<?xml version='1.0' encoding='UTF-8'?><gpx version="1.1" creator="JPX - https://github.com/jenetics/jpx" xmlns="http://www.topografix.com/GPX/1/1"><trk><trkseg><trkpt lat="31.1163567" lon="-5.1622633"><ele>871.0</ele><time>2026-04-23T12:08:00.958Z</time></trkpt><trkpt lat="31.11643" lon="-5.162225"><ele>870.9999999999999</ele><time>2026-04-23T12:09:49.959Z</time></trkpt><trkpt lat="31.116495" lon="-5.1622433"><ele>870.9999999999999</ele><time>2026-04-23T12:09:54.959Z</time></trkpt><trkpt lat="31.1164267" lon="-5.1622217"><ele>871.0</ele><time>2026-04-23T12:56:17.95Z</time></trkpt><trkpt lat="31.1164333" lon="-5.16204"><ele>871.0</ele><time>2026-04-23T13:19:41.945Z</time></trkpt><trkpt lat="31.1164533" lon="-5.1619033"><ele>870.9999999999999</ele><time>2026-04-23T13:19:43.944Z</time></trkpt><trkpt lat="31.1164517" lon="-5.1618217"><ele>871.0</ele><time>2026-04-23T13:19:45.945Z</time></trkpt><trkpt lat="31.1163917" lon="-5.1617933"><ele>871.0</ele><time>2026-04-23T13:19:48.945Z</time></trkpt><trkpt lat="31.1163167" lon="-5.1617917"><ele>871.0</ele><time>2026-04-23T13:19:53.945Z</time></trkpt><trkpt lat="31.1162183" lon="-5.1619117"><ele>870.9999999999999</ele><time>2026-04-23T13:26:12.943Z</time></trkpt><trkpt lat="31.1162433" lon="-5.1619817"><ele>871.0</ele><time>2026-04-23T13:26:14.943Z</time></trkpt><trkpt lat="31.116325" lon="-5.1620533"><ele>870.9999999999999</ele><time>2026-04-23T13:26:16.943Z</time></trkpt><trkpt lat="31.11638" lon="-5.1621"><ele>871.0</ele><time>2026-04-23T13:26:18.943Z</time></trkpt><trkpt lat="31.1164333" lon="-5.1621467"><ele>871.0</ele><time>2026-04-23T13:26:21.943Z</time></trkpt><trkpt lat="31.1164383" lon="-5.1622367"><ele>871.0</ele><time>2026-04-23T13:26:24.943Z</time></trkpt><trkpt lat="31.1164417" lon="-5.1623333"><ele>870.9999999999999</ele><time>2026-04-23T13:28:27.943Z</time></trkpt><trkpt lat="31.11641" lon="-5.1624083"><ele>871.0</ele><time>2026-04-23T13:28:28.942Z</time></trkpt><trkpt lat="31.11638" lon="-5.1625283"><ele>871.5</ele><time>2026-04-23T13:28:29.942Z</time></trkpt><trkpt lat="31.11634" lon="-5.1626867"><ele>872.0</ele><time>2026-04-23T13:28:30.943Z</time></trkpt><trkpt lat="31.1163" lon="-5.16283"><ele>872.5</ele><time>2026-04-23T13:28:31.943Z</time></trkpt><trkpt lat="31.1162567" lon="-5.162965"><ele>873.0</ele><time>2026-04-23T13:28:32.942Z</time></trkpt><trkpt lat="31.1162167" lon="-5.1630967"><ele>873.5</ele><time>2026-04-23T13:28:33.943Z</time></trkpt><trkpt lat="31.1161917" lon="-5.163225"><ele>874.0</ele><time>2026-04-23T13:28:34.943Z</time></trkpt><trkpt lat="31.1161483" lon="-5.1633483"><ele>874.5</ele><time>2026-04-23T13:28:35.942Z</time></trkpt><trkpt lat="31.1161083" lon="-5.1634767"><ele>875.0</ele><time>2026-04-23T13:28:36.943Z</time></trkpt><trkpt lat="31.1160733" lon="-5.1636133"><ele>875.0</ele><time>2026-04-23T13:28:37.942Z</time></trkpt><trkpt lat="31.1160467" lon="-5.16375"><ele>875.0</ele><time>2026-04-23T13:28:38.942Z</time></trkpt><trkpt lat="31.11601" lon="-5.1638917"><ele>875.0</ele><time>2026-04-23T13:28:39.943Z</time></trkpt><trkpt lat="31.1159767" lon="-5.1640333"><ele>875.0</ele><time>2026-04-23T13:28:40.943Z</time></trkpt><trkpt lat="31.11593" lon="-5.1641733"><ele>875.0</ele><time>2026-04-23T13:28:41.942Z</time></trkpt><trkpt lat="31.11589" lon="-5.164305"><ele>875.0</ele><time>2026-04-23T13:28:42.943Z</time></trkpt><trkpt lat="31.1158667" lon="-5.1644317"><ele>875.0</ele><time>2026-04-23T13:28:43.943Z</time></trkpt><trkpt lat="31.11584" lon="-5.164555"><ele>875.0</ele><time>2026-04-23T13:28:44.942Z</time></trkpt><trkpt lat="31.11582" lon="-5.1646817"><ele>875.0</ele><time>2026-04-23T13:28:45.942Z</time></trkpt><trkpt lat="31.11581" lon="-5.164805"><ele>875.0</ele><time>2026-04-23T13:28:46.943Z</time></trkpt><trkpt lat="31.1158033" lon="-5.1649367"><ele>875.0</ele><time>2026-04-23T13:28:47.943Z</time></trkpt><trkpt lat="31.1158" lon="-5.1650733"><ele>875.0</ele><time>2026-04-23T13:28:48.943Z</time></trkpt><trkpt lat="31.1158033" lon="-5.1652117"><ele>875.2</ele><time>2026-04-23T13:28:49.943Z</time></trkpt><trkpt lat="31.1158033" lon="-5.1653383"><ele>875.4</ele><time>2026-04-23T13:28:50.943Z</time></trkpt><trkpt lat="31.1158167" lon="-5.1654617"><ele>875.5999999999999</ele><time>2026-04-23T13:28:51.943Z</time></trkpt><trkpt lat="31.1158133" lon="-5.1655833"><ele>875.8</ele><time>2026-04-23T13:28:52.942Z</time></trkpt><trkpt lat="31.11581" lon="-5.1657117"><ele>876.0</ele><time>2026-04-23T13:28:53.942Z</time></trkpt><trkpt lat="31.1158133" lon="-5.16584"><ele>876.1999999999999</ele><time>2026-04-23T13:28:54.943Z</time></trkpt><trkpt lat="31.1158133" lon="-5.1659683"><ele>876.3999999999999</ele><time>2026-04-23T13:28:55.943Z</time></trkpt><trkpt lat="31.1158117" lon="-5.1660983"><ele>876.6</ele><time>2026-04-23T13:28:56.942Z</time></trkpt><trkpt lat="31.1158183" lon="-5.16623"><ele>876.8</ele><time>2026-04-23T13:28:57.943Z</time></trkpt><trkpt lat="31.1158183" lon="-5.1663583"><ele>877.0</ele><time>2026-04-23T13:28:58.943Z</time></trkpt><trkpt lat="31.1158183" lon="-5.1664817"><ele>877.0</ele><time>2026-04-23T13:28:59.943Z</time></trkpt><trkpt lat="31.11582" lon="-5.166605"><ele>877.0</ele><time>2026-04-23T13:29:00.943Z</time></trkpt><trkpt lat="31.1158183" lon="-5.1667267"><ele>877.0</ele><time>2026-04-23T13:29:01.943Z</time></trkpt><trkpt lat="31.1158217" lon="-5.1668433"><ele>877.0</ele><time>2026-04-23T13:29:02.943Z</time></trkpt><trkpt lat="31.115825" lon="-5.1669617"><ele>877.0</ele><time>2026-04-23T13:29:03.943Z</time></trkpt><trkpt lat="31.115825" lon="-5.1670817"><ele>876.9999999999999</ele><time>2026-04-23T13:29:04.943Z</time></trkpt><trkpt lat="31.1158267" lon="-5.167205"><ele>877.0</ele><time>2026-04-23T13:29:05.942Z</time></trkpt><trkpt lat="31.115825" lon="-5.16732"><ele>877.0</ele><time>2026-04-23T13:29:06.943Z</time></trkpt><trkpt lat="31.1158233" lon="-5.167425"><ele>877.0</ele><time>2026-04-23T13:29:07.943Z</time></trkpt><trkpt lat="31.1158233" lon="-5.16752"><ele>876.9999999999999</ele><time>2026-04-23T13:29:08.943Z</time></trkpt><trkpt lat="31.115825" lon="-5.167605"><ele>877.0</ele><time>2026-04-23T13:29:09.943Z</time></trkpt><trkpt lat="31.11583" lon="-5.16768"><ele>877.3333333333333</ele><time>2026-04-23T13:29:10.942Z</time></trkpt><trkpt lat="31.1158333" lon="-5.16779"><ele>877.6666666666666</ele><time>2026-04-23T13:29:12.943Z</time></trkpt><trkpt lat="31.1158367" lon="-5.167885"><ele>878.0</ele><time>2026-04-23T13:29:15.943Z</time></trkpt><trkpt lat="31.1158483" lon="-5.16798"><ele>878.3333333333333</ele><time>2026-04-23T13:29:18.942Z</time></trkpt><trkpt lat="31.115845" lon="-5.1681017"><ele>878.6666666666666</ele><time>2026-04-23T13:29:20.943Z</time></trkpt><trkpt lat="31.11585" lon="-5.1681983"><ele>879.0</ele><time>2026-04-23T13:29:22.942Z</time></trkpt><trkpt lat="31.1158583" lon="-5.1683133"><ele>879.2</ele><time>2026-04-23T13:29:24.942Z</time></trkpt><trkpt lat="31.11587" lon="-5.1683933"><ele>879.4000000000001</ele><time>2026-04-23T13:29:25.942Z</time></trkpt><trkpt lat="31.115885" lon="-5.1684917"><ele>879.6</ele><time>2026-04-23T13:29:26.941Z</time></trkpt><trkpt lat="31.1159017" lon="-5.1686017"><ele>879.8</ele><time>2026-04-23T13:29:27.942Z</time></trkpt><trkpt lat="31.1159133" lon="-5.16873"><ele>880.0</ele><time>2026-04-23T13:29:28.942Z</time></trkpt><trkpt lat="31.1159167" lon="-5.1688717"><ele>880.0</ele><time>2026-04-23T13:29:29.942Z</time></trkpt><trkpt lat="31.1159233" lon="-5.1690133"><ele>880.0</ele><time>2026-04-23T13:29:30.942Z</time></trkpt><trkpt lat="31.1159367" lon="-5.1691383"><ele>880.0</ele><time>2026-04-23T13:29:31.941Z</time></trkpt><trkpt lat="31.1159683" lon="-5.169235"><ele>880.0</ele><time>2026-04-23T13:29:32.941Z</time></trkpt><trkpt lat="31.1160083" lon="-5.16931"><ele>880.0</ele><time>2026-04-23T13:29:33.941Z</time></trkpt><trkpt lat="31.1160667" lon="-5.1693733"><ele>880.25</ele><time>2026-04-23T13:29:34.942Z</time></trkpt><trkpt lat="31.1161533" lon="-5.1694217"><ele>880.5</ele><time>2026-04-23T13:29:35.942Z</time></trkpt><trkpt lat="31.1162633" lon="-5.1694617"><ele>880.75</ele><time>2026-04-23T13:29:36.942Z</time></trkpt><trkpt lat="31.1163883" lon="-5.1694967"><ele>881.0</ele><time>2026-04-23T13:29:37.942Z</time></trkpt><trkpt lat="31.1165133" lon="-5.1695417"><ele>881.25</ele><time>2026-04-23T13:29:38.942Z</time></trkpt><trkpt lat="31.11664" lon="-5.16958"><ele>881.5</ele><time>2026-04-23T13:29:39.942Z</time></trkpt><trkpt lat="31.11676" lon="-5.16962"><ele>881.75</ele><time>2026-04-23T13:29:40.941Z</time></trkpt><trkpt lat="31.11688" lon="-5.16966"><ele>882.0</ele><time>2026-04-23T13:29:41.942Z</time></trkpt><trkpt lat="31.1170067" lon="-5.1697"><ele>882.0</ele><time>2026-04-23T13:29:42.942Z</time></trkpt><trkpt lat="31.1171283" lon="-5.169745"><ele>882.0</ele><time>2026-04-23T13:29:43.942Z</time></trkpt><trkpt lat="31.11725" lon="-5.1697833"><ele>882.0</ele><time>2026-04-23T13:29:44.942Z</time></trkpt><trkpt lat="31.1173767" lon="-5.16983"><ele>882.0</ele><time>2026-04-23T13:29:45.942Z</time></trkpt><trkpt lat="31.117495" lon="-5.1698817"><ele>882.25</ele><time>2026-04-23T13:29:46.942Z</time></trkpt><trkpt lat="31.1176267" lon="-5.1699233"><ele>882.5</ele><time>2026-04-23T13:29:47.942Z</time></trkpt><trkpt lat="31.1177517" lon="-5.169965"><ele>882.75</ele><time>2026-04-23T13:29:48.942Z</time></trkpt><trkpt lat="31.1178767" lon="-5.1700133"><ele>883.0</ele><time>2026-04-23T13:29:49.942Z</time></trkpt><trkpt lat="31.1180033" lon="-5.1700583"><ele>883.0</ele><time>2026-04-23T13:29:50.941Z</time></trkpt><trkpt lat="31.1181267" lon="-5.17011"><ele>883.0</ele><time>2026-04-23T13:29:51.942Z</time></trkpt><trkpt lat="31.118255" lon="-5.1701567"><ele>883.0</ele><time>2026-04-23T13:29:52.942Z</time></trkpt><trkpt lat="31.118385" lon="-5.170205"><ele>883.0</ele><time>2026-04-23T13:29:53.942Z</time></trkpt><trkpt lat="31.11851" lon="-5.17025"><ele>883.0</ele><time>2026-04-23T13:29:54.941Z</time></trkpt><trkpt lat="31.1186267" lon="-5.170295"><ele>883.0</ele><time>2026-04-23T13:29:55.941Z</time></trkpt><trkpt lat="31.1187317" lon="-5.1703333"><ele>883.0</ele><time>2026-04-23T13:29:56.942Z</time></trkpt><trkpt lat="31.1188333" lon="-5.1703717"><ele>883.0</ele><time>2026-04-23T13:29:57.942Z</time></trkpt><trkpt lat="31.118945" lon="-5.1704067"><ele>882.9999999999999</ele><time>2026-04-23T13:29:58.942Z</time></trkpt><trkpt lat="31.1190433" lon="-5.1704383"><ele>883.0</ele><time>2026-04-23T13:29:59.942Z</time></trkpt><trkpt lat="31.1191167" lon="-5.1704617"><ele>883.0</ele><time>2026-04-23T13:30:00.941Z</time></trkpt><trkpt lat="31.1192033" lon="-5.1704833"><ele>883.0</ele><time>2026-04-23T13:30:02.941Z</time></trkpt><trkpt lat="31.1192583" lon="-5.17052"><ele>882.9999999999999</ele><time>2026-04-23T13:30:04.941Z</time></trkpt><trkpt lat="31.119225" lon="-5.170585"><ele>883.0</ele><time>2026-04-23T13:30:07.941Z</time></trkpt><trkpt lat="31.1191267" lon="-5.170545"><ele>883.0</ele><time>2026-04-23T13:30:09.942Z</time></trkpt><trkpt lat="31.1190533" lon="-5.1705133"><ele>883.0</ele><time>2026-04-23T13:30:10.942Z</time></trkpt><trkpt lat="31.1189633" lon="-5.1704767"><ele>883.0</ele><time>2026-04-23T13:30:11.942Z</time></trkpt><trkpt lat="31.11885" lon="-5.1704317"><ele>883.0</ele><time>2026-04-23T13:30:12.942Z</time></trkpt><trkpt lat="31.11872" lon="-5.1703883"><ele>883.0</ele><time>2026-04-23T13:30:13.942Z</time></trkpt><trkpt lat="31.118585" lon="-5.17034"><ele>883.0</ele><time>2026-04-23T13:30:14.941Z</time></trkpt><trkpt lat="31.1184567" lon="-5.17029"><ele>883.0</ele><time>2026-04-23T13:30:15.942Z</time></trkpt><trkpt lat="31.1183317" lon="-5.1702467"><ele>883.0</ele><time>2026-04-23T13:30:16.942Z</time></trkpt><trkpt lat="31.11821" lon="-5.170205"><ele>883.0</ele><time>2026-04-23T13:30:17.942Z</time></trkpt><trkpt lat="31.11809" lon="-5.1701583"><ele>883.0</ele><time>2026-04-23T13:30:18.942Z</time></trkpt><trkpt lat="31.1179567" lon="-5.1701083"><ele>883.0</ele><time>2026-04-23T13:30:19.941Z</time></trkpt><trkpt lat="31.117825" lon="-5.1700683"><ele>883.0</ele><time>2026-04-23T13:30:20.942Z</time></trkpt><trkpt lat="31.1176833" lon="-5.1700133"><ele>883.0</ele><time>2026-04-23T13:30:21.942Z</time></trkpt><trkpt lat="31.1175433" lon="-5.1699667"><ele>883.0</ele><time>2026-04-23T13:30:22.942Z</time></trkpt><trkpt lat="31.1174017" lon="-5.1699167"><ele>883.0</ele><time>2026-04-23T13:30:23.942Z</time></trkpt><trkpt lat="31.1172633" lon="-5.16986"><ele>883.0</ele><time>2026-04-23T13:30:24.942Z</time></trkpt><trkpt lat="31.1171283" lon="-5.16981"><ele>883.0</ele><time>2026-04-23T13:30:25.942Z</time></trkpt><trkpt lat="31.1169933" lon="-5.1697617"><ele>882.75</ele><time>2026-04-23T13:30:26.942Z</time></trkpt><trkpt lat="31.11686" lon="-5.1697167"><ele>882.5</ele><time>2026-04-23T13:30:27.942Z</time></trkpt><trkpt lat="31.11673" lon="-5.16967"><ele>882.25</ele><time>2026-04-23T13:30:28.942Z</time></trkpt><trkpt lat="31.1166033" lon="-5.16962"><ele>882.0</ele><time>2026-04-23T13:30:29.942Z</time></trkpt><trkpt lat="31.1164817" lon="-5.1695767"><ele>881.8</ele><time>2026-04-23T13:30:30.942Z</time></trkpt><trkpt lat="31.1163633" lon="-5.1695333"><ele>881.6</ele><time>2026-04-23T13:30:31.942Z</time></trkpt><trkpt lat="31.1162533" lon="-5.1695"><ele>881.3999999999999</ele><time>2026-04-23T13:30:32.942Z</time></trkpt><trkpt lat="31.116155" lon="-5.169465"><ele>881.1999999999999</ele><time>2026-04-23T13:30:33.942Z</time></trkpt><trkpt lat="31.1160567" lon="-5.169425"><ele>881.0</ele><time>2026-04-23T13:30:34.942Z</time></trkpt><trkpt lat="31.1159733" lon="-5.1693783"><ele>881.0000000000001</ele><time>2026-04-23T13:30:35.942Z</time></trkpt><trkpt lat="31.1159133" lon="-5.1693133"><ele>881.0</ele><time>2026-04-23T13:30:36.941Z</time></trkpt><trkpt lat="31.1158783" lon="-5.16923"><ele>881.0</ele><time>2026-04-23T13:30:37.942Z</time></trkpt><trkpt lat="31.11586" lon="-5.1691283"><ele>881.0</ele><time>2026-04-23T13:30:38.942Z</time></trkpt><trkpt lat="31.1158617" lon="-5.1690167"><ele>881.0000000000001</ele><time>2026-04-23T13:30:39.942Z</time></trkpt><trkpt lat="31.1158717" lon="-5.1689"><ele>881.0</ele><time>2026-04-23T13:30:40.942Z</time></trkpt><trkpt lat="31.1158767" lon="-5.168785"><ele>880.8</ele><time>2026-04-23T13:30:41.941Z</time></trkpt><trkpt lat="31.11588" lon="-5.1686817"><ele>880.5999999999999</ele><time>2026-04-23T13:30:42.942Z</time></trkpt><trkpt lat="31.11588" lon="-5.1685933"><ele>880.4</ele><time>2026-04-23T13:30:43.941Z</time></trkpt><trkpt lat="31.1158483" lon="-5.1684883"><ele>880.2</ele><time>2026-04-23T13:30:45.942Z</time></trkpt><trkpt lat="31.11575" lon="-5.1685133"><ele>880.0</ele><time>2026-04-23T13:30:48.942Z</time></trkpt><trkpt lat="31.1156767" lon="-5.168625"><ele>878.5</ele><time>2026-04-23T13:30:50.941Z</time></trkpt><trkpt lat="31.1156317" lon="-5.168715"><ele>877.0</ele><time>2026-04-23T13:30:51.942Z</time></trkpt><trkpt lat="31.1155733" lon="-5.1688233"><ele>875.5</ele><time>2026-04-23T13:30:52.942Z</time></trkpt><trkpt lat="31.1154917" lon="-5.1689317"><ele>874.0</ele><time>2026-04-23T13:30:53.941Z</time></trkpt><trkpt lat="31.1153983" lon="-5.1690417"><ele>874.0</ele><time>2026-04-23T13:30:54.942Z</time></trkpt><trkpt lat="31.1153017" lon="-5.1691617"><ele>874.0</ele><time>2026-04-23T13:30:55.942Z</time></trkpt><trkpt lat="31.1151867" lon="-5.16928"><ele>874.0</ele><time>2026-04-23T13:30:56.942Z</time></trkpt><trkpt lat="31.11507" lon="-5.169405"><ele>874.0</ele><time>2026-04-23T13:30:57.941Z</time></trkpt><trkpt lat="31.11495" lon="-5.169545"><ele>874.0</ele><time>2026-04-23T13:30:58.942Z</time></trkpt><trkpt lat="31.1148267" lon="-5.1696867"><ele>874.0</ele><time>2026-04-23T13:30:59.941Z</time></trkpt><trkpt lat="31.114705" lon="-5.1698317"><ele>872.6666666666666</ele><time>2026-04-23T13:31:00.942Z</time></trkpt><trkpt lat="31.1145883" lon="-5.1699633"><ele>871.3333333333333</ele><time>2026-04-23T13:31:01.942Z</time></trkpt><trkpt lat="31.114475" lon="-5.170095"><ele>870.0</ele><time>2026-04-23T13:31:02.942Z</time></trkpt><trkpt lat="31.11436" lon="-5.1702283"><ele>870.0</ele><time>2026-04-23T13:31:03.942Z</time></trkpt><trkpt lat="31.1142483" lon="-5.1703567"><ele>870.0</ele><time>2026-04-23T13:31:04.942Z</time></trkpt><trkpt lat="31.11414" lon="-5.170485"><ele>870.0</ele><time>2026-04-23T13:31:05.942Z</time></trkpt><trkpt lat="31.1140333" lon="-5.17061"><ele>870.25</ele><time>2026-04-23T13:31:06.941Z</time></trkpt><trkpt lat="31.113925" lon="-5.1707317"><ele>870.5</ele><time>2026-04-23T13:31:07.942Z</time></trkpt><trkpt lat="31.1138217" lon="-5.1708517"><ele>870.75</ele><time>2026-04-23T13:31:08.941Z</time></trkpt><trkpt lat="31.11372" lon="-5.1709717"><ele>871.0</ele><time>2026-04-23T13:31:09.942Z</time></trkpt><trkpt lat="31.1136183" lon="-5.1710933"><ele>871.0</ele><time>2026-04-23T13:31:10.942Z</time></trkpt><trkpt lat="31.1135133" lon="-5.1712133"><ele>871.0</ele><time>2026-04-23T13:31:11.942Z</time></trkpt><trkpt lat="31.1134167" lon="-5.1713383"><ele>871.0</ele><time>2026-04-23T13:31:12.942Z</time></trkpt><trkpt lat="31.1133183" lon="-5.17146"><ele>871.0</ele><time>2026-04-23T13:31:13.942Z</time></trkpt><trkpt lat="31.1132267" lon="-5.1715783"><ele>871.75</ele><time>2026-04-23T13:31:14.942Z</time></trkpt><trkpt lat="31.1131317" lon="-5.1716933"><ele>872.5</ele><time>2026-04-23T13:31:15.942Z</time></trkpt><trkpt lat="31.1130283" lon="-5.1718017"><ele>873.25</ele><time>2026-04-23T13:31:16.942Z</time></trkpt><trkpt lat="31.1129283" lon="-5.1719133"><ele>874.0</ele><time>2026-04-23T13:31:17.941Z</time></trkpt><trkpt lat="31.11283" lon="-5.172025"><ele>874.0</ele><time>2026-04-23T13:31:18.942Z</time></trkpt><trkpt lat="31.1127317" lon="-5.1721383"><ele>874.0</ele><time>2026-04-23T13:31:19.942Z</time></trkpt><trkpt lat="31.1126333" lon="-5.1722433"><ele>874.0</ele><time>2026-04-23T13:31:20.942Z</time></trkpt><trkpt lat="31.1125233" lon="-5.1723467"><ele>874.0</ele><time>2026-04-23T13:31:21.941Z</time></trkpt><trkpt lat="31.112425" lon="-5.1724483"><ele>874.75</ele><time>2026-04-23T13:31:22.942Z</time></trkpt><trkpt lat="31.1123133" lon="-5.1725483"><ele>875.5</ele><time>2026-04-23T13:31:23.942Z</time></trkpt><trkpt lat="31.1122033" lon="-5.1726483"><ele>876.25</ele><time>2026-04-23T13:31:24.941Z</time></trkpt><trkpt lat="31.11209" lon="-5.172745"><ele>877.0</ele><time>2026-04-23T13:31:25.942Z</time></trkpt><trkpt lat="31.1119633" lon="-5.1728333"><ele>877.0</ele><time>2026-04-23T13:31:26.941Z</time></trkpt><trkpt lat="31.1118417" lon="-5.1729333"><ele>877.0</ele><time>2026-04-23T13:31:27.942Z</time></trkpt><trkpt lat="31.111715" lon="-5.1730433"><ele>877.0</ele><time>2026-04-23T13:31:28.941Z</time></trkpt><trkpt lat="31.111585" lon="-5.17314"><ele>876.3333333333333</ele><time>2026-04-23T13:31:29.942Z</time></trkpt><trkpt lat="31.111455" lon="-5.17325"><ele>875.6666666666667</ele><time>2026-04-23T13:31:30.942Z</time></trkpt><trkpt lat="31.1113267" lon="-5.17336"><ele>875.0</ele><time>2026-04-23T13:31:31.941Z</time></trkpt><trkpt lat="31.1112083" lon="-5.1734667"><ele>875.0</ele><time>2026-04-23T13:31:32.942Z</time></trkpt><trkpt lat="31.1111017" lon="-5.1735633"><ele>875.0</ele><time>2026-04-23T13:31:33.941Z</time></trkpt><trkpt lat="31.110995" lon="-5.1736583"><ele>875.0</ele><time>2026-04-23T13:31:34.941Z</time></trkpt><trkpt lat="31.110905" lon="-5.1737517"><ele>875.0</ele><time>2026-04-23T13:31:35.942Z</time></trkpt><trkpt lat="31.1108067" lon="-5.1738367"><ele>874.8</ele><time>2026-04-23T13:31:36.942Z</time></trkpt><trkpt lat="31.110705" lon="-5.1739117"><ele>874.6</ele><time>2026-04-23T13:31:37.941Z</time></trkpt><trkpt lat="31.11062" lon="-5.1739767"><ele>874.4000000000001</ele><time>2026-04-23T13:31:38.941Z</time></trkpt><trkpt lat="31.110545" lon="-5.1740467"><ele>874.2</ele><time>2026-04-23T13:31:39.942Z</time></trkpt><trkpt lat="31.11047" lon="-5.1741067"><ele>874.0</ele><time>2026-04-23T13:31:40.942Z</time></trkpt><trkpt lat="31.1104" lon="-5.17417"><ele>874.4999999999999</ele><time>2026-04-23T13:31:41.942Z</time></trkpt><trkpt lat="31.1103333" lon="-5.1742267"><ele>875.0</ele><time>2026-04-23T13:31:42.942Z</time></trkpt><trkpt lat="31.1102683" lon="-5.174275"><ele>875.5</ele><time>2026-04-23T13:31:43.941Z</time></trkpt><trkpt lat="31.1102067" lon="-5.1743217"><ele>876.0</ele><time>2026-04-23T13:31:44.942Z</time></trkpt><trkpt lat="31.1101433" lon="-5.1743733"><ele>876.4999999999999</ele><time>2026-04-23T13:31:45.942Z</time></trkpt><trkpt lat="31.1100733" lon="-5.174435"><ele>877.0</ele><time>2026-04-23T13:31:46.942Z</time></trkpt><trkpt lat="31.109995" lon="-5.1745"><ele>877.0</ele><time>2026-04-23T13:31:47.941Z</time></trkpt><trkpt lat="31.10991" lon="-5.1745733"><ele>877.0</ele><time>2026-04-23T13:31:48.941Z</time></trkpt><trkpt lat="31.109815" lon="-5.1746583"><ele>877.0</ele><time>2026-04-23T13:31:49.942Z</time></trkpt><trkpt lat="31.1097133" lon="-5.1747433"><ele>877.0</ele><time>2026-04-23T13:31:50.942Z</time></trkpt><trkpt lat="31.10961" lon="-5.17483"><ele>877.0</ele><time>2026-04-23T13:31:51.942Z</time></trkpt><trkpt lat="31.1095117" lon="-5.1749167"><ele>877.0</ele><time>2026-04-23T13:31:52.941Z</time></trkpt><trkpt lat="31.1094167" lon="-5.1749983"><ele>877.0</ele><time>2026-04-23T13:31:53.942Z</time></trkpt><trkpt lat="31.1093233" lon="-5.1750817"><ele>877.0</ele><time>2026-04-23T13:31:54.942Z</time></trkpt><trkpt lat="31.10922" lon="-5.175165"><ele>877.0</ele><time>2026-04-23T13:31:55.942Z</time></trkpt><trkpt lat="31.109115" lon="-5.17525"><ele>877.0</ele><time>2026-04-23T13:31:56.942Z</time></trkpt><trkpt lat="31.1090083" lon="-5.1753283"><ele>877.0</ele><time>2026-04-23T13:31:57.942Z</time></trkpt><trkpt lat="31.1089117" lon="-5.1754083"><ele>877.0</ele><time>2026-04-23T13:31:58.942Z</time></trkpt><trkpt lat="31.1088067" lon="-5.1755017"><ele>876.5</ele><time>2026-04-23T13:31:59.942Z</time></trkpt><trkpt lat="31.1086933" lon="-5.1755983"><ele>876.0</ele><time>2026-04-23T13:32:00.941Z</time></trkpt><trkpt lat="31.1085767" lon="-5.1756983"><ele>875.5</ele><time>2026-04-23T13:32:01.942Z</time></trkpt><trkpt lat="31.1084617" lon="-5.175795"><ele>875.0</ele><time>2026-04-23T13:32:02.941Z</time></trkpt><trkpt lat="31.1083417" lon="-5.1758967"><ele>875.25</ele><time>2026-04-23T13:32:03.942Z</time></trkpt><trkpt lat="31.10823" lon="-5.175995"><ele>875.5</ele><time>2026-04-23T13:32:04.941Z</time></trkpt><trkpt lat="31.108115" lon="-5.1760983"><ele>875.75</ele><time>2026-04-23T13:32:05.942Z</time></trkpt><trkpt lat="31.108" lon="-5.1761983"><ele>876.0</ele><time>2026-04-23T13:32:06.942Z</time></trkpt><trkpt lat="31.1078833" lon="-5.1762967"><ele>876.0</ele><time>2026-04-23T13:32:07.941Z</time></trkpt><trkpt lat="31.107765" lon="-5.1763983"><ele>876.0</ele><time>2026-04-23T13:32:08.942Z</time></trkpt><trkpt lat="31.1076467" lon="-5.1764967"><ele>876.0</ele><time>2026-04-23T13:32:09.942Z</time></trkpt><trkpt lat="31.1075267" lon="-5.1765933"><ele>876.0</ele><time>2026-04-23T13:32:10.942Z</time></trkpt><trkpt lat="31.1074133" lon="-5.1766883"><ele>877.25</ele><time>2026-04-23T13:32:11.942Z</time></trkpt><trkpt lat="31.1072967" lon="-5.1767783"><ele>878.5</ele><time>2026-04-23T13:32:12.942Z</time></trkpt><trkpt lat="31.1071817" lon="-5.1768717"><ele>879.75</ele><time>2026-04-23T13:32:13.942Z</time></trkpt><trkpt lat="31.107065" lon="-5.176975"><ele>881.0</ele><time>2026-04-23T13:32:14.942Z</time></trkpt><trkpt lat="31.10695" lon="-5.177075"><ele>881.0</ele><time>2026-04-23T13:32:15.942Z</time></trkpt><trkpt lat="31.10684" lon="-5.17718"><ele>881.0</ele><time>2026-04-23T13:32:16.942Z</time></trkpt><trkpt lat="31.1067333" lon="-5.1772867"><ele>881.0</ele><time>2026-04-23T13:32:17.942Z</time></trkpt><trkpt lat="31.106625" lon="-5.177405"><ele>881.0</ele><time>2026-04-23T13:32:18.942Z</time></trkpt><trkpt lat="31.1065167" lon="-5.17753"><ele>881.6666666666667</ele><time>2026-04-23T13:32:19.942Z</time></trkpt><trkpt lat="31.1064133" lon="-5.177665"><ele>882.3333333333333</ele><time>2026-04-23T13:32:20.942Z</time></trkpt><trkpt lat="31.1063317" lon="-5.1778167"><ele>883.0</ele><time>2026-04-23T13:32:21.942Z</time></trkpt><trkpt lat="31.106265" lon="-5.177975"><ele>883.0</ele><time>2026-04-23T13:32:22.942Z</time></trkpt><trkpt lat="31.1062" lon="-5.1781433"><ele>883.0</ele><time>2026-04-23T13:32:23.941Z</time></trkpt><trkpt lat="31.1061333" lon="-5.1783133"><ele>883.0</ele><time>2026-04-23T13:32:24.942Z</time></trkpt><trkpt lat="31.10607" lon="-5.17849"><ele>884.3333333333333</ele><time>2026-04-23T13:32:25.941Z</time></trkpt><trkpt lat="31.106005" lon="-5.178665"><ele>885.6666666666667</ele><time>2026-04-23T13:32:26.941Z</time></trkpt><trkpt lat="31.1059433" lon="-5.178845"><ele>887.0</ele><time>2026-04-23T13:32:27.941Z</time></trkpt><trkpt lat="31.105875" lon="-5.1790217"><ele>887.3333333333334</ele><time>2026-04-23T13:32:28.942Z</time></trkpt><trkpt lat="31.1058083" lon="-5.179195"><ele>887.6666666666667</ele><time>2026-04-23T13:32:29.942Z</time></trkpt><trkpt lat="31.10574" lon="-5.17937"><ele>888.0</ele><time>2026-04-23T13:32:30.941Z</time></trkpt><trkpt lat="31.105675" lon="-5.17955"><ele>888.0</ele><time>2026-04-23T13:32:31.942Z</time></trkpt><trkpt lat="31.105615" lon="-5.1797267"><ele>888.0</ele><time>2026-04-23T13:32:32.942Z</time></trkpt><trkpt lat="31.105555" lon="-5.179905"><ele>888.0</ele><time>2026-04-23T13:32:33.942Z</time></trkpt><trkpt lat="31.1054883" lon="-5.180085"><ele>889.0</ele><time>2026-04-23T13:32:34.942Z</time></trkpt><trkpt lat="31.1054267" lon="-5.18026"><ele>890.0</ele><time>2026-04-23T13:32:35.942Z</time></trkpt><trkpt lat="31.10536" lon="-5.1804283"><ele>891.0</ele><time>2026-04-23T13:32:36.941Z</time></trkpt><trkpt lat="31.1052983" lon="-5.1806"><ele>891.6666666666667</ele><time>2026-04-23T13:32:37.942Z</time></trkpt><trkpt lat="31.1052283" lon="-5.1807733"><ele>892.3333333333334</ele><time>2026-04-23T13:32:38.942Z</time></trkpt><trkpt lat="31.10516" lon="-5.180945"><ele>893.0</ele><time>2026-04-23T13:32:39.942Z</time></trkpt><trkpt lat="31.1050967" lon="-5.1811183"><ele>893.0</ele><time>2026-04-23T13:32:40.941Z</time></trkpt><trkpt lat="31.1050367" lon="-5.1812967"><ele>893.0</ele><time>2026-04-23T13:32:41.942Z</time></trkpt><trkpt lat="31.10497" lon="-5.1814767"><ele>893.0</ele><time>2026-04-23T13:32:42.941Z</time></trkpt><trkpt lat="31.104905" lon="-5.1816583"><ele>893.6666666666667</ele><time>2026-04-23T13:32:43.942Z</time></trkpt><trkpt lat="31.1048367" lon="-5.1818467"><ele>894.3333333333333</ele><time>2026-04-23T13:32:44.942Z</time></trkpt><trkpt lat="31.104765" lon="-5.1820317"><ele>895.0</ele><time>2026-04-23T13:32:45.942Z</time></trkpt><trkpt lat="31.1046967" lon="-5.182215"><ele>895.0</ele><time>2026-04-23T13:32:46.942Z</time></trkpt><trkpt lat="31.1046267" lon="-5.1824"><ele>895.0</ele><time>2026-04-23T13:32:47.942Z</time></trkpt><trkpt lat="31.1045567" lon="-5.182585"><ele>895.0</ele><time>2026-04-23T13:32:48.942Z</time></trkpt><trkpt lat="31.1044883" lon="-5.1827717"><ele>895.0</ele><time>2026-04-23T13:32:49.941Z</time></trkpt><trkpt lat="31.10442" lon="-5.1829567"><ele>895.0</ele><time>2026-04-23T13:32:50.942Z</time></trkpt><trkpt lat="31.104345" lon="-5.1831417"><ele>895.0</ele><time>2026-04-23T13:32:51.942Z</time></trkpt><trkpt lat="31.1042733" lon="-5.18333"><ele>895.3333333333333</ele><time>2026-04-23T13:32:52.941Z</time></trkpt><trkpt lat="31.1042033" lon="-5.1835133"><ele>895.6666666666667</ele><time>2026-04-23T13:32:53.942Z</time></trkpt><trkpt lat="31.1041367" lon="-5.1837"><ele>896.0</ele><time>2026-04-23T13:32:54.942Z</time></trkpt><trkpt lat="31.10407" lon="-5.1838867"><ele>897.3333333333334</ele><time>2026-04-23T13:32:55.942Z</time></trkpt><trkpt lat="31.1040033" lon="-5.184075"><ele>898.6666666666667</ele><time>2026-04-23T13:32:56.942Z</time></trkpt><trkpt lat="31.103935" lon="-5.184265"><ele>900.0</ele><time>2026-04-23T13:32:57.941Z</time></trkpt><trkpt lat="31.1038617" lon="-5.184455"><ele>900.0</ele><time>2026-04-23T13:32:58.941Z</time></trkpt><trkpt lat="31.1037883" lon="-5.1846467"><ele>900.0</ele><time>2026-04-23T13:32:59.942Z</time></trkpt><trkpt lat="31.1037183" lon="-5.18484"><ele>900.0</ele><time>2026-04-23T13:33:00.942Z</time></trkpt><trkpt lat="31.1036417" lon="-5.1850333"><ele>899.6666666666667</ele><time>2026-04-23T13:33:01.942Z</time></trkpt><trkpt lat="31.1035717" lon="-5.185235"><ele>899.3333333333334</ele><time>2026-04-23T13:33:02.941Z</time></trkpt><trkpt lat="31.1035033" lon="-5.1854367"><ele>899.0</ele><time>2026-04-23T13:33:03.941Z</time></trkpt><trkpt lat="31.10343" lon="-5.1856367"><ele>899.6666666666667</ele><time>2026-04-23T13:33:04.942Z</time></trkpt><trkpt lat="31.1033583" lon="-5.1858383"><ele>900.3333333333333</ele><time>2026-04-23T13:33:05.942Z</time></trkpt><trkpt lat="31.103285" lon="-5.186035"><ele>901.0</ele><time>2026-04-23T13:33:06.941Z</time></trkpt><trkpt lat="31.1032133" lon="-5.1862333"><ele>901.3333333333333</ele><time>2026-04-23T13:33:07.941Z</time></trkpt><trkpt lat="31.1031333" lon="-5.1864283"><ele>901.6666666666667</ele><time>2026-04-23T13:33:08.941Z</time></trkpt><trkpt lat="31.10305" lon="-5.1866233"><ele>902.0</ele><time>2026-04-23T13:33:09.942Z</time></trkpt><trkpt lat="31.1029567" lon="-5.186815"><ele>902.0</ele><time>2026-04-23T13:33:10.942Z</time></trkpt><trkpt lat="31.102855" lon="-5.1870067"><ele>902.0</ele><time>2026-04-23T13:33:11.942Z</time></trkpt><trkpt lat="31.1027517" lon="-5.187195"><ele>902.0</ele><time>2026-04-23T13:33:12.942Z</time></trkpt><trkpt lat="31.102645" lon="-5.18738"><ele>902.3333333333334</ele><time>2026-04-23T13:33:13.942Z</time></trkpt><trkpt lat="31.1025333" lon="-5.187565"><ele>902.6666666666667</ele><time>2026-04-23T13:33:14.942Z</time></trkpt><trkpt lat="31.1024267" lon="-5.1877533"><ele>903.0</ele><time>2026-04-23T13:33:15.941Z</time></trkpt><trkpt lat="31.1023167" lon="-5.187945"><ele>903.3333333333333</ele><time>2026-04-23T13:33:16.942Z</time></trkpt><trkpt lat="31.1022067" lon="-5.1881233"><ele>903.6666666666666</ele><time>2026-04-23T13:33:17.941Z</time></trkpt><trkpt lat="31.1020933" lon="-5.1883083"><ele>904.0</ele><time>2026-04-23T13:33:18.942Z</time></trkpt><trkpt lat="31.1019833" lon="-5.1884983"><ele>904.3333333333333</ele><time>2026-04-23T13:33:19.942Z</time></trkpt><trkpt lat="31.1018717" lon="-5.1886917"><ele>904.6666666666667</ele><time>2026-04-23T13:33:20.941Z</time></trkpt><trkpt lat="31.1017567" lon="-5.188885"><ele>905.0</ele><time>2026-04-23T13:33:21.942Z</time></trkpt><trkpt lat="31.101645" lon="-5.1890767"><ele>905.0</ele><time>2026-04-23T13:33:22.942Z</time></trkpt><trkpt lat="31.101535" lon="-5.1892717"><ele>905.0</ele><time>2026-04-23T13:33:23.941Z</time></trkpt><trkpt lat="31.1014217" lon="-5.189465"><ele>905.0</ele><time>2026-04-23T13:33:24.942Z</time></trkpt><trkpt lat="31.1013067" lon="-5.1896583"><ele>905.3333333333334</ele><time>2026-04-23T13:33:25.941Z</time></trkpt><trkpt lat="31.1011967" lon="-5.189855"><ele>905.6666666666667</ele><time>2026-04-23T13:33:26.942Z</time></trkpt><trkpt lat="31.1010833" lon="-5.1900517"><ele>906.0</ele><time>2026-04-23T13:33:27.941Z</time></trkpt><trkpt lat="31.10097" lon="-5.1902467"><ele>906.0</ele><time>2026-04-23T13:33:28.942Z</time></trkpt><trkpt lat="31.1008583" lon="-5.1904383"><ele>906.0</ele><time>2026-04-23T13:33:29.942Z</time></trkpt><trkpt lat="31.1007433" lon="-5.1906333"><ele>906.0</ele><time>2026-04-23T13:33:30.942Z</time></trkpt><trkpt lat="31.100635" lon="-5.1908317"><ele>906.0</ele><time>2026-04-23T13:33:31.942Z</time></trkpt><trkpt lat="31.1005217" lon="-5.1910267"><ele>906.0</ele><time>2026-04-23T13:33:32.94Z</time></trkpt><trkpt lat="31.10041" lon="-5.1912283"><ele>906.0</ele><time>2026-04-23T13:33:33.94Z</time></trkpt><trkpt lat="31.100295" lon="-5.191425"><ele>905.6666666666667</ele><time>2026-04-23T13:33:34.941Z</time></trkpt><trkpt lat="31.1001817" lon="-5.1916233"><ele>905.3333333333334</ele><time>2026-04-23T13:33:35.941Z</time></trkpt><trkpt lat="31.1000717" lon="-5.1918233"><ele>905.0</ele><time>2026-04-23T13:33:36.94Z</time></trkpt><trkpt lat="31.09995" lon="-5.1920283"><ele>905.6666666666667</ele><time>2026-04-23T13:33:37.941Z</time></trkpt><trkpt lat="31.0998283" lon="-5.192235"><ele>906.3333333333333</ele><time>2026-04-23T13:33:38.94Z</time></trkpt><trkpt lat="31.099705" lon="-5.1924467"><ele>907.0</ele><time>2026-04-23T13:33:39.941Z</time></trkpt><trkpt lat="31.09958" lon="-5.19266"><ele>907.6666666666666</ele><time>2026-04-23T13:33:40.94Z</time></trkpt><trkpt lat="31.0994517" lon="-5.19287"><ele>908.3333333333333</ele><time>2026-04-23T13:33:41.941Z</time></trkpt><trkpt lat="31.0993283" lon="-5.1930767"><ele>909.0</ele><time>2026-04-23T13:33:42.941Z</time></trkpt><trkpt lat="31.0992067" lon="-5.1932833"><ele>909.0</ele><time>2026-04-23T13:33:43.941Z</time></trkpt><trkpt lat="31.099085" lon="-5.1934917"><ele>909.0</ele><time>2026-04-23T13:33:44.941Z</time></trkpt><trkpt lat="31.0989617" lon="-5.19371"><ele>909.0</ele><time>2026-04-23T13:33:45.94Z</time></trkpt><trkpt lat="31.098835" lon="-5.19394"><ele>910.0</ele><time>2026-04-23T13:33:46.941Z</time></trkpt><trkpt lat="31.098705" lon="-5.19417"><ele>911.0</ele><time>2026-04-23T13:33:47.941Z</time></trkpt><trkpt lat="31.09858" lon="-5.1943867"><ele>911.0</ele><time>2026-04-23T13:33:48.94Z</time></trkpt><trkpt lat="31.0984567" lon="-5.1946"><ele>911.0</ele><time>2026-04-23T13:33:49.941Z</time></trkpt><trkpt lat="31.0983317" lon="-5.1948067"><ele>911.0</ele><time>2026-04-23T13:33:50.94Z</time></trkpt><trkpt lat="31.098205" lon="-5.195015"><ele>910.6666666666667</ele><time>2026-04-23T13:33:51.941Z</time></trkpt><trkpt lat="31.0980867" lon="-5.1952267"><ele>910.3333333333333</ele><time>2026-04-23T13:33:52.94Z</time></trkpt><trkpt lat="31.0979617" lon="-5.1954333"><ele>910.0</ele><time>2026-04-23T13:33:53.941Z</time></trkpt><trkpt lat="31.0978383" lon="-5.1956433"><ele>910.6666666666666</ele><time>2026-04-23T13:33:54.94Z</time></trkpt><trkpt lat="31.0977167" lon="-5.195855"><ele>911.3333333333333</ele><time>2026-04-23T13:33:55.941Z</time></trkpt><trkpt lat="31.0975917" lon="-5.1960667"><ele>912.0</ele><time>2026-04-23T13:33:56.941Z</time></trkpt><trkpt lat="31.0974683" lon="-5.1962833"><ele>912.3333333333333</ele><time>2026-04-23T13:33:57.94Z</time></trkpt><trkpt lat="31.0973467" lon="-5.196495"><ele>912.6666666666666</ele><time>2026-04-23T13:33:58.941Z</time></trkpt><trkpt lat="31.0972233" lon="-5.19671"><ele>913.0</ele><time>2026-04-23T13:33:59.94Z</time></trkpt><trkpt lat="31.097095" lon="-5.1969217"><ele>913.6666666666666</ele><time>2026-04-23T13:34:00.941Z</time></trkpt><trkpt lat="31.0969717" lon="-5.197135"><ele>914.3333333333333</ele><time>2026-04-23T13:34:01.941Z</time></trkpt><trkpt lat="31.0968517" lon="-5.1973533"><ele>915.0</ele><time>2026-04-23T13:34:02.941Z</time></trkpt><trkpt lat="31.09673" lon="-5.1975683"><ele>915.0</ele><time>2026-04-23T13:34:03.941Z</time></trkpt><trkpt lat="31.0966083" lon="-5.1977833"><ele>915.0</ele><time>2026-04-23T13:34:04.941Z</time></trkpt><trkpt lat="31.0964817" lon="-5.197995"><ele>915.0</ele><time>2026-04-23T13:34:05.94Z</time></trkpt><trkpt lat="31.0963567" lon="-5.1982083"><ele>914.6666666666667</ele><time>2026-04-23T13:34:06.94Z</time></trkpt><trkpt lat="31.09623" lon="-5.198425"><ele>914.3333333333334</ele><time>2026-04-23T13:34:07.94Z</time></trkpt><trkpt lat="31.096105" lon="-5.1986417"><ele>914.0</ele><time>2026-04-23T13:34:08.941Z</time></trkpt><trkpt lat="31.095985" lon="-5.1988567"><ele>914.3333333333334</ele><time>2026-04-23T13:34:09.941Z</time></trkpt><trkpt lat="31.0958683" lon="-5.1990617"><ele>914.6666666666667</ele><time>2026-04-23T13:34:10.94Z</time></trkpt><trkpt lat="31.095755" lon="-5.1992483"><ele>915.0</ele><time>2026-04-23T13:34:11.94Z</time></trkpt><trkpt lat="31.0956483" lon="-5.199425"><ele>915.6666666666667</ele><time>2026-04-23T13:34:12.941Z</time></trkpt><trkpt lat="31.095545" lon="-5.1995983"><ele>916.3333333333334</ele><time>2026-04-23T13:34:13.941Z</time></trkpt><trkpt lat="31.0954467" lon="-5.1997683"><ele>917.0</ele><time>2026-04-23T13:34:14.941Z</time></trkpt><trkpt lat="31.0953517" lon="-5.19993"><ele>917.3333333333334</ele><time>2026-04-23T13:34:15.94Z</time></trkpt><trkpt lat="31.0952633" lon="-5.20009"><ele>917.6666666666667</ele><time>2026-04-23T13:34:16.941Z</time></trkpt><trkpt lat="31.0951717" lon="-5.2002467"><ele>918.0</ele><time>2026-04-23T13:34:17.94Z</time></trkpt><trkpt lat="31.0950833" lon="-5.2003983"><ele>918.0</ele><time>2026-04-23T13:34:18.941Z</time></trkpt><trkpt lat="31.0949967" lon="-5.200545"><ele>918.0</ele><time>2026-04-23T13:34:19.941Z</time></trkpt><trkpt lat="31.0949117" lon="-5.20069"><ele>918.0</ele><time>2026-04-23T13:34:20.941Z</time></trkpt><trkpt lat="31.09483" lon="-5.200835"><ele>918.0</ele><time>2026-04-23T13:34:21.941Z</time></trkpt><trkpt lat="31.094745" lon="-5.2009833"><ele>918.0</ele><time>2026-04-23T13:34:22.941Z</time></trkpt><trkpt lat="31.0946583" lon="-5.2011267"><ele>918.0</ele><time>2026-04-23T13:34:23.941Z</time></trkpt><trkpt lat="31.0945733" lon="-5.201275"><ele>918.0</ele><time>2026-04-23T13:34:24.941Z</time></trkpt><trkpt lat="31.0944833" lon="-5.2014217"><ele>918.0</ele><time>2026-04-23T13:34:25.941Z</time></trkpt><trkpt lat="31.0943967" lon="-5.2015733"><ele>918.0</ele><time>2026-04-23T13:34:26.94Z</time></trkpt><trkpt lat="31.09431" lon="-5.2017267"><ele>918.0</ele><time>2026-04-23T13:34:27.941Z</time></trkpt><trkpt lat="31.0942233" lon="-5.2018783"><ele>918.0</ele><time>2026-04-23T13:34:28.941Z</time></trkpt><trkpt lat="31.09414" lon="-5.2020283"><ele>918.0</ele><time>2026-04-23T13:34:29.941Z</time></trkpt><trkpt lat="31.0940517" lon="-5.2021783"><ele>918.25</ele><time>2026-04-23T13:34:30.941Z</time></trkpt><trkpt lat="31.093965" lon="-5.202325"><ele>918.5</ele><time>2026-04-23T13:34:31.941Z</time></trkpt><trkpt lat="31.093875" lon="-5.20247"><ele>918.75</ele><time>2026-04-23T13:34:32.94Z</time></trkpt><trkpt lat="31.0937967" lon="-5.2026067"><ele>919.0</ele><time>2026-04-23T13:34:33.941Z</time></trkpt><trkpt lat="31.093725" lon="-5.2027283"><ele>919.4000000000001</ele><time>2026-04-23T13:34:34.941Z</time></trkpt><trkpt lat="31.09366" lon="-5.2028367"><ele>919.8000000000001</ele><time>2026-04-23T13:34:35.941Z</time></trkpt><trkpt lat="31.0936083" lon="-5.2029333"><ele>920.1999999999999</ele><time>2026-04-23T13:34:36.941Z</time></trkpt><trkpt lat="31.09356" lon="-5.2030233"><ele>920.5999999999999</ele><time>2026-04-23T13:34:37.941Z</time></trkpt><trkpt lat="31.0935167" lon="-5.2030983"><ele>921.0</ele><time>2026-04-23T13:34:38.941Z</time></trkpt><trkpt lat="31.0934717" lon="-5.203195"><ele>921.0</ele><time>2026-04-23T13:34:40.941Z</time></trkpt><trkpt lat="31.0934367" lon="-5.20327"><ele>921.0</ele><time>2026-04-23T13:34:43.941Z</time></trkpt><trkpt lat="31.0934" lon="-5.2033367"><ele>921.0</ele><time>2026-04-23T13:35:11.941Z</time></trkpt><trkpt lat="31.0933283" lon="-5.2034433"><ele>921.0</ele><time>2026-04-23T13:35:13.941Z</time></trkpt><trkpt lat="31.0932833" lon="-5.2035133"><ele>921.0</ele><time>2026-04-23T13:35:14.941Z</time></trkpt><trkpt lat="31.0932333" lon="-5.2036"><ele>921.0</ele><time>2026-04-23T13:35:15.941Z</time></trkpt><trkpt lat="31.0931767" lon="-5.2037017"><ele>921.0</ele><time>2026-04-23T13:35:16.941Z</time></trkpt><trkpt lat="31.0931117" lon="-5.203815"><ele>921.0</ele><time>2026-04-23T13:35:17.941Z</time></trkpt><trkpt lat="31.093045" lon="-5.203935"><ele>921.0</ele><time>2026-04-23T13:35:18.94Z</time></trkpt><trkpt lat="31.0929717" lon="-5.20406"><ele>921.0</ele><time>2026-04-23T13:35:19.941Z</time></trkpt><trkpt lat="31.092895" lon="-5.204195"><ele>921.0</ele><time>2026-04-23T13:35:20.941Z</time></trkpt><trkpt lat="31.092815" lon="-5.2043317"><ele>921.0</ele><time>2026-04-23T13:35:21.941Z</time></trkpt><trkpt lat="31.0927317" lon="-5.2044783"><ele>921.0</ele><time>2026-04-23T13:35:22.94Z</time></trkpt><trkpt lat="31.0926383" lon="-5.2046283"><ele>921.0</ele><time>2026-04-23T13:35:23.941Z</time></trkpt><trkpt lat="31.092545" lon="-5.2047817"><ele>921.0</ele><time>2026-04-23T13:35:24.941Z</time></trkpt><trkpt lat="31.09245" lon="-5.2049367"><ele>921.0</ele><time>2026-04-23T13:35:25.94Z</time></trkpt><trkpt lat="31.0923583" lon="-5.2050933"><ele>922.0</ele><time>2026-04-23T13:35:26.941Z</time></trkpt><trkpt lat="31.092265" lon="-5.2052517"><ele>923.0</ele><time>2026-04-23T13:35:27.941Z</time></trkpt><trkpt lat="31.0921733" lon="-5.205415"><ele>924.0</ele><time>2026-04-23T13:35:28.941Z</time></trkpt><trkpt lat="31.09208" lon="-5.205575"><ele>924.3333333333333</ele><time>2026-04-23T13:35:29.941Z</time></trkpt><trkpt lat="31.0919867" lon="-5.20574"><ele>924.6666666666666</ele><time>2026-04-23T13:35:30.941Z</time></trkpt><trkpt lat="31.0918917" lon="-5.2059083"><ele>925.0</ele><time>2026-04-23T13:35:31.941Z</time></trkpt><trkpt lat="31.0917967" lon="-5.2060817"><ele>925.0</ele><time>2026-04-23T13:35:32.94Z</time></trkpt><trkpt lat="31.0916967" lon="-5.2062517"><ele>925.0</ele><time>2026-04-23T13:35:33.94Z</time></trkpt><trkpt lat="31.0915883" lon="-5.2064267"><ele>925.0</ele><time>2026-04-23T13:35:34.941Z</time></trkpt><trkpt lat="31.0914817" lon="-5.206605"><ele>925.0</ele><time>2026-04-23T13:35:35.941Z</time></trkpt><trkpt lat="31.0913817" lon="-5.206785"><ele>925.0</ele><time>2026-04-23T13:35:36.941Z</time></trkpt><trkpt lat="31.0912783" lon="-5.206965"><ele>925.0</ele><time>2026-04-23T13:35:37.941Z</time></trkpt><trkpt lat="31.0911783" lon="-5.2071467"><ele>925.6666666666666</ele><time>2026-04-23T13:35:38.941Z</time></trkpt><trkpt lat="31.0910733" lon="-5.2073283"><ele>926.3333333333333</ele><time>2026-04-23T13:35:39.94Z</time></trkpt><trkpt lat="31.0909683" lon="-5.2075117"><ele>927.0</ele><time>2026-04-23T13:35:40.94Z</time></trkpt><trkpt lat="31.09086" lon="-5.2077"><ele>927.3333333333333</ele><time>2026-04-23T13:35:41.941Z</time></trkpt><trkpt lat="31.0907517" lon="-5.20789"><ele>927.6666666666666</ele><time>2026-04-23T13:35:42.94Z</time></trkpt><trkpt lat="31.0906467" lon="-5.2080717"><ele>928.0</ele><time>2026-04-23T13:35:43.941Z</time></trkpt><trkpt lat="31.090545" lon="-5.208235"><ele>928.3333333333333</ele><time>2026-04-23T13:35:44.94Z</time></trkpt><trkpt lat="31.090455" lon="-5.2084017"><ele>928.6666666666667</ele><time>2026-04-23T13:35:45.94Z</time></trkpt><trkpt lat="31.0903567" lon="-5.2085667"><ele>929.0</ele><time>2026-04-23T13:35:46.94Z</time></trkpt><trkpt lat="31.09026" lon="-5.2087367"><ele>929.0</ele><time>2026-04-23T13:35:47.94Z</time></trkpt><trkpt lat="31.090155" lon="-5.208905"><ele>929.0</ele><time>2026-04-23T13:35:48.941Z</time></trkpt><trkpt lat="31.0900583" lon="-5.20908"><ele>929.0</ele><time>2026-04-23T13:35:49.94Z</time></trkpt><trkpt lat="31.0899583" lon="-5.20925"><ele>928.3333333333334</ele><time>2026-04-23T13:35:50.94Z</time></trkpt><trkpt lat="31.0898617" lon="-5.2094217"><ele>927.6666666666667</ele><time>2026-04-23T13:35:51.94Z</time></trkpt><trkpt lat="31.0897667" lon="-5.2095867"><ele>927.0</ele><time>2026-04-23T13:35:52.941Z</time></trkpt><trkpt lat="31.0896733" lon="-5.2097533"><ele>927.5</ele><time>2026-04-23T13:35:53.941Z</time></trkpt><trkpt lat="31.0895833" lon="-5.2099033"><ele>928.0</ele><time>2026-04-23T13:35:54.941Z</time></trkpt><trkpt lat="31.0894983" lon="-5.2100383"><ele>928.5</ele><time>2026-04-23T13:35:55.94Z</time></trkpt><trkpt lat="31.0894217" lon="-5.210165"><ele>929.0</ele><time>2026-04-23T13:35:56.941Z</time></trkpt><trkpt lat="31.0893567" lon="-5.2102667"><ele>929.0000000000001</ele><time>2026-04-23T13:35:57.941Z</time></trkpt><trkpt lat="31.0893067" lon="-5.2103667"><ele>929.0</ele><time>2026-04-23T13:35:58.94Z</time></trkpt><trkpt lat="31.0892717" lon="-5.2104533"><ele>929.0</ele><time>2026-04-23T13:35:59.94Z</time></trkpt><trkpt lat="31.0892567" lon="-5.2105417"><ele>929.0</ele><time>2026-04-23T13:36:00.941Z</time></trkpt><trkpt lat="31.0892667" lon="-5.2106367"><ele>929.0000000000001</ele><time>2026-04-23T13:36:01.94Z</time></trkpt><trkpt lat="31.0892917" lon="-5.210735"><ele>929.0</ele><time>2026-04-23T13:36:02.941Z</time></trkpt><trkpt lat="31.0893283" lon="-5.2108317"><ele>929.25</ele><time>2026-04-23T13:36:03.941Z</time></trkpt><trkpt lat="31.0893717" lon="-5.2109367"><ele>929.5</ele><time>2026-04-23T13:36:04.941Z</time></trkpt><trkpt lat="31.0894267" lon="-5.21105"><ele>929.75</ele><time>2026-04-23T13:36:05.941Z</time></trkpt><trkpt lat="31.0894867" lon="-5.2111683"><ele>930.0</ele><time>2026-04-23T13:36:06.941Z</time></trkpt><trkpt lat="31.089555" lon="-5.2112933"><ele>930.0</ele><time>2026-04-23T13:36:07.941Z</time></trkpt><trkpt lat="31.0896233" lon="-5.2114217"><ele>930.0</ele><time>2026-04-23T13:36:08.941Z</time></trkpt><trkpt lat="31.0897067" lon="-5.2115533"><ele>930.0</ele><time>2026-04-23T13:36:09.94Z</time></trkpt><trkpt lat="31.089785" lon="-5.21169"><ele>930.0</ele><time>2026-04-23T13:36:10.941Z</time></trkpt><trkpt lat="31.08986" lon="-5.21182"><ele>930.5</ele><time>2026-04-23T13:36:11.94Z</time></trkpt><trkpt lat="31.0899267" lon="-5.2119433"><ele>931.0</ele><time>2026-04-23T13:36:12.94Z</time></trkpt><trkpt lat="31.089995" lon="-5.2120617"><ele>931.5</ele><time>2026-04-23T13:36:13.94Z</time></trkpt><trkpt lat="31.0900617" lon="-5.2121767"><ele>932.0</ele><time>2026-04-23T13:36:14.941Z</time></trkpt><trkpt lat="31.0901267" lon="-5.212305"><ele>932.0</ele><time>2026-04-23T13:36:15.941Z</time></trkpt><trkpt lat="31.090185" lon="-5.212445"><ele>932.0</ele><time>2026-04-23T13:36:16.94Z</time></trkpt><trkpt lat="31.0902417" lon="-5.2125967"><ele>932.0</ele><time>2026-04-23T13:36:17.94Z</time></trkpt><trkpt lat="31.0902867" lon="-5.2127533"><ele>932.0</ele><time>2026-04-23T13:36:18.94Z</time></trkpt><trkpt lat="31.09032" lon="-5.2129167"><ele>932.0</ele><time>2026-04-23T13:36:19.94Z</time></trkpt><trkpt lat="31.0903467" lon="-5.2130883"><ele>932.0</ele><time>2026-04-23T13:36:20.941Z</time></trkpt><trkpt lat="31.0903617" lon="-5.2132633"><ele>932.0</ele><time>2026-04-23T13:36:21.94Z</time></trkpt><trkpt lat="31.090375" lon="-5.2134467"><ele>932.0</ele><time>2026-04-23T13:36:22.941Z</time></trkpt><trkpt lat="31.0903883" lon="-5.2136333"><ele>932.0</ele><time>2026-04-23T13:36:23.941Z</time></trkpt><trkpt lat="31.0904" lon="-5.213825"><ele>932.0</ele><time>2026-04-23T13:36:24.941Z</time></trkpt><trkpt lat="31.0904183" lon="-5.2140083"><ele>932.0</ele><time>2026-04-23T13:36:25.941Z</time></trkpt><trkpt lat="31.0904467" lon="-5.2141983"><ele>932.0</ele><time>2026-04-23T13:36:26.941Z</time></trkpt><trkpt lat="31.0904783" lon="-5.214395"><ele>932.0</ele><time>2026-04-23T13:36:27.94Z</time></trkpt><trkpt lat="31.0905133" lon="-5.2145917"><ele>932.0</ele><time>2026-04-23T13:36:28.941Z</time></trkpt><trkpt lat="31.090545" lon="-5.2147867"><ele>932.0</ele><time>2026-04-23T13:36:29.941Z</time></trkpt><trkpt lat="31.0905783" lon="-5.2149817"><ele>932.0</ele><time>2026-04-23T13:36:30.941Z</time></trkpt><trkpt lat="31.09061" lon="-5.2151833"><ele>932.6666666666667</ele><time>2026-04-23T13:36:31.94Z</time></trkpt><trkpt lat="31.0906417" lon="-5.2153817"><ele>933.3333333333333</ele><time>2026-04-23T13:36:32.941Z</time></trkpt><trkpt lat="31.0906783" lon="-5.215585"><ele>934.0</ele><time>2026-04-23T13:36:33.941Z</time></trkpt><trkpt lat="31.090715" lon="-5.215785"><ele>934.3333333333333</ele><time>2026-04-23T13:36:34.941Z</time></trkpt><trkpt lat="31.0907483" lon="-5.2159867"><ele>934.6666666666667</ele><time>2026-04-23T13:36:35.94Z</time></trkpt><trkpt lat="31.0907867" lon="-5.2161867"><ele>935.0</ele><time>2026-04-23T13:36:36.941Z</time></trkpt><trkpt lat="31.0908217" lon="-5.2163833"><ele>936.0</ele><time>2026-04-23T13:36:37.941Z</time></trkpt><trkpt lat="31.0908617" lon="-5.2165833"><ele>937.0</ele><time>2026-04-23T13:36:38.941Z</time></trkpt><trkpt lat="31.0909017" lon="-5.216785"><ele>938.0</ele><time>2026-04-23T13:36:39.941Z</time></trkpt><trkpt lat="31.0909417" lon="-5.2169883"><ele>938.0</ele><time>2026-04-23T13:36:40.941Z</time></trkpt><trkpt lat="31.09098" lon="-5.21719"><ele>938.0</ele><time>2026-04-23T13:36:41.941Z</time></trkpt><trkpt lat="31.0910217" lon="-5.2173917"><ele>938.0</ele><time>2026-04-23T13:36:42.941Z</time></trkpt><trkpt lat="31.0910633" lon="-5.2175933"><ele>937.3333333333334</ele><time>2026-04-23T13:36:43.94Z</time></trkpt><trkpt lat="31.091105" lon="-5.2177967"><ele>936.6666666666667</ele><time>2026-04-23T13:36:44.941Z</time></trkpt><trkpt lat="31.091145" lon="-5.2179983"><ele>936.0</ele><time>2026-04-23T13:36:45.94Z</time></trkpt><trkpt lat="31.0911867" lon="-5.2181983"><ele>936.0</ele><time>2026-04-23T13:36:46.941Z</time></trkpt><trkpt lat="31.0912283" lon="-5.2184033"><ele>936.0</ele><time>2026-04-23T13:36:47.941Z</time></trkpt><trkpt lat="31.09127" lon="-5.2186083"><ele>936.0</ele><time>2026-04-23T13:36:48.941Z</time></trkpt><trkpt lat="31.0913117" lon="-5.2188133"><ele>936.6666666666667</ele><time>2026-04-23T13:36:49.941Z</time></trkpt><trkpt lat="31.0913483" lon="-5.2190167"><ele>937.3333333333334</ele><time>2026-04-23T13:36:50.941Z</time></trkpt><trkpt lat="31.0913917" lon="-5.2192183"><ele>938.0</ele><time>2026-04-23T13:36:51.941Z</time></trkpt><trkpt lat="31.0914283" lon="-5.2194217"><ele>938.0</ele><time>2026-04-23T13:36:52.94Z</time></trkpt><trkpt lat="31.0914717" lon="-5.2196217"><ele>938.0</ele><time>2026-04-23T13:36:53.94Z</time></trkpt><trkpt lat="31.0915117" lon="-5.2198217"><ele>938.0</ele><time>2026-04-23T13:36:54.94Z</time></trkpt><trkpt lat="31.0915533" lon="-5.220025"><ele>937.6666666666667</ele><time>2026-04-23T13:36:55.941Z</time></trkpt><trkpt lat="31.0915917" lon="-5.22023"><ele>937.3333333333333</ele><time>2026-04-23T13:36:56.941Z</time></trkpt><trkpt lat="31.0916367" lon="-5.22044"><ele>937.0</ele><time>2026-04-23T13:36:57.941Z</time></trkpt><trkpt lat="31.0916767" lon="-5.220645"><ele>938.0</ele><time>2026-04-23T13:36:58.94Z</time></trkpt><trkpt lat="31.09172" lon="-5.2208483"><ele>939.0</ele><time>2026-04-23T13:36:59.94Z</time></trkpt><trkpt lat="31.0917567" lon="-5.2210517"><ele>940.0</ele><time>2026-04-23T13:37:00.94Z</time></trkpt><trkpt lat="31.0918" lon="-5.2212533"><ele>940.0</ele><time>2026-04-23T13:37:01.94Z</time></trkpt><trkpt lat="31.09184" lon="-5.221455"><ele>940.0</ele><time>2026-04-23T13:37:02.941Z</time></trkpt><trkpt lat="31.091875" lon="-5.221655"><ele>940.0</ele><time>2026-04-23T13:37:03.94Z</time></trkpt><trkpt lat="31.09191" lon="-5.2218583"><ele>940.0</ele><time>2026-04-23T13:37:04.941Z</time></trkpt><trkpt lat="31.09195" lon="-5.22206"><ele>940.0</ele><time>2026-04-23T13:37:05.941Z</time></trkpt><trkpt lat="31.0919917" lon="-5.2222633"><ele>940.0</ele><time>2026-04-23T13:37:06.941Z</time></trkpt><trkpt lat="31.0920317" lon="-5.2224683"><ele>940.3333333333333</ele><time>2026-04-23T13:37:07.941Z</time></trkpt><trkpt lat="31.0920733" lon="-5.222665"><ele>940.6666666666667</ele><time>2026-04-23T13:37:08.94Z</time></trkpt><trkpt lat="31.0921167" lon="-5.222865"><ele>941.0</ele><time>2026-04-23T13:37:09.941Z</time></trkpt><trkpt lat="31.0921583" lon="-5.22307"><ele>941.3333333333334</ele><time>2026-04-23T13:37:10.941Z</time></trkpt><trkpt lat="31.0922017" lon="-5.2232733"><ele>941.6666666666667</ele><time>2026-04-23T13:37:11.94Z</time></trkpt><trkpt lat="31.09224" lon="-5.223475"><ele>942.0</ele><time>2026-04-23T13:37:12.94Z</time></trkpt><trkpt lat="31.092275" lon="-5.2236733"><ele>942.0</ele><time>2026-04-23T13:37:13.941Z</time></trkpt><trkpt lat="31.092315" lon="-5.2238767"><ele>942.0</ele><time>2026-04-23T13:37:14.941Z</time></trkpt><trkpt lat="31.092355" lon="-5.22408"><ele>942.0</ele><time>2026-04-23T13:37:15.94Z</time></trkpt><trkpt lat="31.0923933" lon="-5.2242867"><ele>942.6666666666667</ele><time>2026-04-23T13:37:16.941Z</time></trkpt><trkpt lat="31.0924317" lon="-5.2244883"><ele>943.3333333333334</ele><time>2026-04-23T13:37:17.94Z</time></trkpt><trkpt lat="31.0924633" lon="-5.22469"><ele>944.0</ele><time>2026-04-23T13:37:18.941Z</time></trkpt><trkpt lat="31.0924967" lon="-5.224895"><ele>944.6666666666667</ele><time>2026-04-23T13:37:19.94Z</time></trkpt><trkpt lat="31.0925283" lon="-5.2250967"><ele>945.3333333333333</ele><time>2026-04-23T13:37:20.941Z</time></trkpt><trkpt lat="31.092565" lon="-5.2252983"><ele>946.0</ele><time>2026-04-23T13:37:21.941Z</time></trkpt><trkpt lat="31.0925983" lon="-5.2255033"><ele>946.3333333333333</ele><time>2026-04-23T13:37:22.94Z</time></trkpt><trkpt lat="31.09263" lon="-5.2257083"><ele>946.6666666666667</ele><time>2026-04-23T13:37:23.941Z</time></trkpt><trkpt lat="31.092665" lon="-5.2259133"><ele>947.0</ele><time>2026-04-23T13:37:24.941Z</time></trkpt><trkpt lat="31.0927" lon="-5.2261217"><ele>947.0</ele><time>2026-04-23T13:37:25.94Z</time></trkpt><trkpt lat="31.0927317" lon="-5.2263317"><ele>947.0</ele><time>2026-04-23T13:37:26.941Z</time></trkpt><trkpt lat="31.09277" lon="-5.22653"><ele>947.0</ele><time>2026-04-23T13:37:27.941Z</time></trkpt><trkpt lat="31.0928083" lon="-5.22673"><ele>947.6666666666667</ele><time>2026-04-23T13:37:28.94Z</time></trkpt><trkpt lat="31.0928633" lon="-5.2269333"><ele>948.3333333333333</ele><time>2026-04-23T13:37:29.94Z</time></trkpt><trkpt lat="31.0929217" lon="-5.2271317"><ele>949.0</ele><time>2026-04-23T13:37:30.941Z</time></trkpt><trkpt lat="31.0929783" lon="-5.2273283"><ele>949.0</ele><time>2026-04-23T13:37:31.941Z</time></trkpt><trkpt lat="31.0930217" lon="-5.2275283"><ele>949.0</ele><time>2026-04-23T13:37:32.941Z</time></trkpt><trkpt lat="31.0930617" lon="-5.2277317"><ele>949.0</ele><time>2026-04-23T13:37:33.941Z</time></trkpt><trkpt lat="31.0930917" lon="-5.2279383"><ele>948.6666666666666</ele><time>2026-04-23T13:37:34.94Z</time></trkpt><trkpt lat="31.0931167" lon="-5.2281433"><ele>948.3333333333333</ele><time>2026-04-23T13:37:35.941Z</time></trkpt><trkpt lat="31.0931367" lon="-5.228345"><ele>948.0</ele><time>2026-04-23T13:37:36.94Z</time></trkpt><trkpt lat="31.0931667" lon="-5.2285517"><ele>948.0</ele><time>2026-04-23T13:37:37.941Z</time></trkpt><trkpt lat="31.0931983" lon="-5.22876"><ele>948.0</ele><time>2026-04-23T13:37:38.94Z</time></trkpt><trkpt lat="31.09323" lon="-5.228965"><ele>948.0</ele><time>2026-04-23T13:37:39.941Z</time></trkpt><trkpt lat="31.0932533" lon="-5.2291683"><ele>949.0</ele><time>2026-04-23T13:37:40.94Z</time></trkpt><trkpt lat="31.0932833" lon="-5.22937"><ele>950.0</ele><time>2026-04-23T13:37:41.941Z</time></trkpt><trkpt lat="31.09331" lon="-5.2295733"><ele>951.0</ele><time>2026-04-23T13:37:42.941Z</time></trkpt><trkpt lat="31.093335" lon="-5.22978"><ele>951.0</ele><time>2026-04-23T13:37:43.941Z</time></trkpt><trkpt lat="31.09336" lon="-5.229985"><ele>951.0</ele><time>2026-04-23T13:37:44.94Z</time></trkpt><trkpt lat="31.0933883" lon="-5.230195"><ele>951.0</ele><time>2026-04-23T13:37:45.941Z</time></trkpt><trkpt lat="31.0934167" lon="-5.2304017"><ele>951.0</ele><time>2026-04-23T13:37:46.941Z</time></trkpt><trkpt lat="31.0934467" lon="-5.2306083"><ele>951.0</ele><time>2026-04-23T13:37:47.941Z</time></trkpt><trkpt lat="31.093475" lon="-5.2308133"><ele>951.0</ele><time>2026-04-23T13:37:48.941Z</time></trkpt><trkpt lat="31.0935033" lon="-5.2310233"><ele>951.3333333333333</ele><time>2026-04-23T13:37:49.941Z</time></trkpt><trkpt lat="31.0935267" lon="-5.2312283"><ele>951.6666666666666</ele><time>2026-04-23T13:37:50.941Z</time></trkpt><trkpt lat="31.0935483" lon="-5.2314333"><ele>952.0</ele><time>2026-04-23T13:37:51.94Z</time></trkpt><trkpt lat="31.0935767" lon="-5.2316383"><ele>952.6666666666666</ele><time>2026-04-23T13:37:52.94Z</time></trkpt><trkpt lat="31.0936033" lon="-5.231845"><ele>953.3333333333333</ele><time>2026-04-23T13:37:53.939Z</time></trkpt><trkpt lat="31.0936233" lon="-5.2320483"><ele>954.0</ele><time>2026-04-23T13:37:54.939Z</time></trkpt><trkpt lat="31.0936517" lon="-5.2322533"><ele>954.3333333333333</ele><time>2026-04-23T13:37:55.94Z</time></trkpt><trkpt lat="31.09368" lon="-5.2324533"><ele>954.6666666666666</ele><time>2026-04-23T13:37:56.939Z</time></trkpt><trkpt lat="31.0937067" lon="-5.232655"><ele>955.0</ele><time>2026-04-23T13:37:57.94Z</time></trkpt><trkpt lat="31.0937317" lon="-5.23286"><ele>955.0</ele><time>2026-04-23T13:37:58.94Z</time></trkpt><trkpt lat="31.0937567" lon="-5.2330633"><ele>955.0</ele><time>2026-04-23T13:37:59.94Z</time></trkpt><trkpt lat="31.0937883" lon="-5.2332667"><ele>955.0</ele><time>2026-04-23T13:38:00.94Z</time></trkpt><trkpt lat="31.0938183" lon="-5.23347"><ele>955.3333333333333</ele><time>2026-04-23T13:38:01.94Z</time></trkpt><trkpt lat="31.09385" lon="-5.2336717"><ele>955.6666666666667</ele><time>2026-04-23T13:38:02.94Z</time></trkpt><trkpt lat="31.0938883" lon="-5.2338767"><ele>956.0</ele><time>2026-04-23T13:38:03.94Z</time></trkpt><trkpt lat="31.0939333" lon="-5.2340767"><ele>956.0</ele><time>2026-04-23T13:38:04.94Z</time></trkpt><trkpt lat="31.09398" lon="-5.23428"><ele>956.0</ele><time>2026-04-23T13:38:05.939Z</time></trkpt><trkpt lat="31.09403" lon="-5.2344833"><ele>956.0</ele><time>2026-04-23T13:38:06.94Z</time></trkpt><trkpt lat="31.094085" lon="-5.2346867"><ele>957.0</ele><time>2026-04-23T13:38:07.94Z</time></trkpt><trkpt lat="31.094135" lon="-5.2348833"><ele>958.0</ele><time>2026-04-23T13:38:08.94Z</time></trkpt><trkpt lat="31.0941883" lon="-5.2350817"><ele>959.0</ele><time>2026-04-23T13:38:09.939Z</time></trkpt><trkpt lat="31.09424" lon="-5.2352833"><ele>959.0</ele><time>2026-04-23T13:38:10.94Z</time></trkpt><trkpt lat="31.09429" lon="-5.2354833"><ele>959.0</ele><time>2026-04-23T13:38:11.94Z</time></trkpt><trkpt lat="31.0943417" lon="-5.2356817"><ele>959.0</ele><time>2026-04-23T13:38:12.94Z</time></trkpt><trkpt lat="31.094395" lon="-5.2358767"><ele>959.0</ele><time>2026-04-23T13:38:13.94Z</time></trkpt><trkpt lat="31.0944417" lon="-5.2360733"><ele>959.0</ele><time>2026-04-23T13:38:14.94Z</time></trkpt><trkpt lat="31.0944933" lon="-5.2362733"><ele>959.0</ele><time>2026-04-23T13:38:15.94Z</time></trkpt><trkpt lat="31.094545" lon="-5.2364717"><ele>959.3333333333334</ele><time>2026-04-23T13:38:16.94Z</time></trkpt><trkpt lat="31.0945933" lon="-5.23667"><ele>959.6666666666667</ele><time>2026-04-23T13:38:17.94Z</time></trkpt><trkpt lat="31.0946433" lon="-5.2368717"><ele>960.0</ele><time>2026-04-23T13:38:18.939Z</time></trkpt><trkpt lat="31.094695" lon="-5.2370733"><ele>960.0</ele><time>2026-04-23T13:38:19.94Z</time></trkpt><trkpt lat="31.0947467" lon="-5.2372767"><ele>960.0</ele><time>2026-04-23T13:38:20.94Z</time></trkpt><trkpt lat="31.0948" lon="-5.23748"><ele>960.0</ele><time>2026-04-23T13:38:21.94Z</time></trkpt><trkpt lat="31.0948517" lon="-5.2376867"><ele>960.6666666666667</ele><time>2026-04-23T13:38:22.94Z</time></trkpt><trkpt lat="31.094905" lon="-5.2378983"><ele>961.3333333333334</ele><time>2026-04-23T13:38:23.94Z</time></trkpt><trkpt lat="31.09496" lon="-5.2381133"><ele>962.0</ele><time>2026-04-23T13:38:24.939Z</time></trkpt><trkpt lat="31.095015" lon="-5.2383283"><ele>962.0</ele><time>2026-04-23T13:38:25.939Z</time></trkpt><trkpt lat="31.0950733" lon="-5.2385433"><ele>962.0</ele><time>2026-04-23T13:38:26.94Z</time></trkpt><trkpt lat="31.0951333" lon="-5.238765"><ele>962.0</ele><time>2026-04-23T13:38:27.939Z</time></trkpt><trkpt lat="31.0951917" lon="-5.2389883"><ele>962.3333333333334</ele><time>2026-04-23T13:38:28.94Z</time></trkpt><trkpt lat="31.0952467" lon="-5.23921"><ele>962.6666666666667</ele><time>2026-04-23T13:38:29.94Z</time></trkpt><trkpt lat="31.0953067" lon="-5.239435"><ele>963.0</ele><time>2026-04-23T13:38:30.94Z</time></trkpt><trkpt lat="31.09537" lon="-5.23965"><ele>964.0</ele><time>2026-04-23T13:38:31.939Z</time></trkpt><trkpt lat="31.09542" lon="-5.23985"><ele>965.0</ele><time>2026-04-23T13:38:32.94Z</time></trkpt><trkpt lat="31.0954667" lon="-5.2400433"><ele>966.0</ele><time>2026-04-23T13:38:33.94Z</time></trkpt><trkpt lat="31.09551" lon="-5.24025"><ele>966.0</ele><time>2026-04-23T13:38:34.94Z</time></trkpt><trkpt lat="31.0955367" lon="-5.2404617"><ele>966.0</ele><time>2026-04-23T13:38:35.94Z</time></trkpt><trkpt lat="31.0955233" lon="-5.24067"><ele>966.0</ele><time>2026-04-23T13:38:36.94Z</time></trkpt><trkpt lat="31.095495" lon="-5.2408783"><ele>966.3333333333333</ele><time>2026-04-23T13:38:37.94Z</time></trkpt><trkpt lat="31.0954567" lon="-5.2410933"><ele>966.6666666666666</ele><time>2026-04-23T13:38:38.94Z</time></trkpt><trkpt lat="31.0954117" lon="-5.2413067"><ele>967.0</ele><time>2026-04-23T13:38:39.94Z</time></trkpt><trkpt lat="31.0953717" lon="-5.24152"><ele>967.0</ele><time>2026-04-23T13:38:40.94Z</time></trkpt><trkpt lat="31.09533" lon="-5.2417367"><ele>967.0</ele><time>2026-04-23T13:38:41.94Z</time></trkpt><trkpt lat="31.09529" lon="-5.2419633"><ele>967.0</ele><time>2026-04-23T13:38:42.94Z</time></trkpt><trkpt lat="31.095245" lon="-5.2421867"><ele>967.3333333333333</ele><time>2026-04-23T13:38:43.939Z</time></trkpt><trkpt lat="31.095205" lon="-5.2424133"><ele>967.6666666666667</ele><time>2026-04-23T13:38:44.939Z</time></trkpt><trkpt lat="31.0951633" lon="-5.2426433"><ele>968.0</ele><time>2026-04-23T13:38:45.94Z</time></trkpt><trkpt lat="31.09512" lon="-5.2428717"><ele>968.0</ele><time>2026-04-23T13:38:46.94Z</time></trkpt><trkpt lat="31.0950783" lon="-5.2431017"><ele>968.0</ele><time>2026-04-23T13:38:47.94Z</time></trkpt><trkpt lat="31.0950367" lon="-5.2433283"><ele>968.0</ele><time>2026-04-23T13:38:48.939Z</time></trkpt><trkpt lat="31.0949983" lon="-5.2435617"><ele>968.3333333333334</ele><time>2026-04-23T13:38:49.939Z</time></trkpt><trkpt lat="31.0949517" lon="-5.243795"><ele>968.6666666666667</ele><time>2026-04-23T13:38:50.94Z</time></trkpt><trkpt lat="31.09491" lon="-5.24403"><ele>969.0</ele><time>2026-04-23T13:38:51.939Z</time></trkpt><trkpt lat="31.0948683" lon="-5.244265"><ele>969.3333333333333</ele><time>2026-04-23T13:38:52.94Z</time></trkpt><trkpt lat="31.0948233" lon="-5.2444967"><ele>969.6666666666666</ele><time>2026-04-23T13:38:53.939Z</time></trkpt><trkpt lat="31.094785" lon="-5.2447333"><ele>970.0</ele><time>2026-04-23T13:38:54.94Z</time></trkpt><trkpt lat="31.09474" lon="-5.2449617"><ele>970.3333333333333</ele><time>2026-04-23T13:38:55.94Z</time></trkpt><trkpt lat="31.0947033" lon="-5.245195"><ele>970.6666666666667</ele><time>2026-04-23T13:38:56.94Z</time></trkpt><trkpt lat="31.0946667" lon="-5.24543"><ele>971.0</ele><time>2026-04-23T13:38:57.939Z</time></trkpt><trkpt lat="31.0946233" lon="-5.24566"><ele>972.3333333333334</ele><time>2026-04-23T13:38:58.94Z</time></trkpt><trkpt lat="31.0945817" lon="-5.2458883"><ele>973.6666666666667</ele><time>2026-04-23T13:38:59.94Z</time></trkpt><trkpt lat="31.09454" lon="-5.2461133"><ele>975.0</ele><time>2026-04-23T13:39:00.94Z</time></trkpt><trkpt lat="31.0945" lon="-5.2463367"><ele>975.3333333333333</ele><time>2026-04-23T13:39:01.94Z</time></trkpt><trkpt lat="31.0944633" lon="-5.2465633"><ele>975.6666666666666</ele><time>2026-04-23T13:39:02.939Z</time></trkpt><trkpt lat="31.0944283" lon="-5.246795"><ele>976.0</ele><time>2026-04-23T13:39:03.94Z</time></trkpt><trkpt lat="31.0944033" lon="-5.247025"><ele>976.0</ele><time>2026-04-23T13:39:04.94Z</time></trkpt><trkpt lat="31.0943917" lon="-5.2472517"><ele>976.0</ele><time>2026-04-23T13:39:05.94Z</time></trkpt><trkpt lat="31.094385" lon="-5.2474767"><ele>976.0</ele><time>2026-04-23T13:39:06.939Z</time></trkpt><trkpt lat="31.0943833" lon="-5.247705"><ele>976.0</ele><time>2026-04-23T13:39:07.94Z</time></trkpt><trkpt lat="31.0943833" lon="-5.2479317"><ele>976.0</ele><time>2026-04-23T13:39:08.94Z</time></trkpt><trkpt lat="31.0943817" lon="-5.2481583"><ele>976.0</ele><time>2026-04-23T13:39:09.939Z</time></trkpt><trkpt lat="31.0943817" lon="-5.24839"><ele>976.0</ele><time>2026-04-23T13:39:10.94Z</time></trkpt><trkpt lat="31.0943833" lon="-5.2486133"><ele>976.0</ele><time>2026-04-23T13:39:11.94Z</time></trkpt><trkpt lat="31.094385" lon="-5.2488417"><ele>976.0</ele><time>2026-04-23T13:39:12.94Z</time></trkpt><trkpt lat="31.0943817" lon="-5.249065"><ele>976.0</ele><time>2026-04-23T13:39:13.94Z</time></trkpt><trkpt lat="31.09438" lon="-5.2492933"><ele>976.0</ele><time>2026-04-23T13:39:14.94Z</time></trkpt><trkpt lat="31.09438" lon="-5.2495217"><ele>976.0</ele><time>2026-04-23T13:39:15.94Z</time></trkpt><trkpt lat="31.09438" lon="-5.249755"><ele>976.3333333333333</ele><time>2026-04-23T13:39:16.939Z</time></trkpt><trkpt lat="31.0943783" lon="-5.249985"><ele>976.6666666666667</ele><time>2026-04-23T13:39:17.939Z</time></trkpt><trkpt lat="31.0943767" lon="-5.2502133"><ele>977.0</ele><time>2026-04-23T13:39:18.939Z</time></trkpt><trkpt lat="31.09437" lon="-5.250445"><ele>977.3333333333334</ele><time>2026-04-23T13:39:19.939Z</time></trkpt><trkpt lat="31.094365" lon="-5.250675"><ele>977.6666666666667</ele><time>2026-04-23T13:39:20.94Z</time></trkpt><trkpt lat="31.094365" lon="-5.25091"><ele>978.0</ele><time>2026-04-23T13:39:21.94Z</time></trkpt><trkpt lat="31.0943667" lon="-5.251145"><ele>978.0</ele><time>2026-04-23T13:39:22.94Z</time></trkpt><trkpt lat="31.094365" lon="-5.2513817"><ele>978.0</ele><time>2026-04-23T13:39:23.939Z</time></trkpt><trkpt lat="31.0943633" lon="-5.251615"><ele>978.0</ele><time>2026-04-23T13:39:24.94Z</time></trkpt><trkpt lat="31.0943567" lon="-5.2518467"><ele>978.3333333333333</ele><time>2026-04-23T13:39:25.939Z</time></trkpt><trkpt lat="31.09435" lon="-5.2520783"><ele>978.6666666666666</ele><time>2026-04-23T13:39:26.94Z</time></trkpt><trkpt lat="31.0943517" lon="-5.25231"><ele>979.0</ele><time>2026-04-23T13:39:27.939Z</time></trkpt><trkpt lat="31.0943533" lon="-5.252545"><ele>979.3333333333333</ele><time>2026-04-23T13:39:28.939Z</time></trkpt><trkpt lat="31.0943517" lon="-5.2527733"><ele>979.6666666666667</ele><time>2026-04-23T13:39:29.939Z</time></trkpt><trkpt lat="31.0943467" lon="-5.2530017"><ele>980.0</ele><time>2026-04-23T13:39:30.94Z</time></trkpt><trkpt lat="31.0943483" lon="-5.253235"><ele>981.0</ele><time>2026-04-23T13:39:31.94Z</time></trkpt><trkpt lat="31.0943433" lon="-5.253465"><ele>982.0</ele><time>2026-04-23T13:39:32.94Z</time></trkpt><trkpt lat="31.0943467" lon="-5.2536967"><ele>983.0</ele><time>2026-04-23T13:39:33.94Z</time></trkpt><trkpt lat="31.09435" lon="-5.25393"><ele>983.3333333333334</ele><time>2026-04-23T13:39:34.94Z</time></trkpt><trkpt lat="31.0943483" lon="-5.2541617"><ele>983.6666666666667</ele><time>2026-04-23T13:39:35.94Z</time></trkpt><trkpt lat="31.094345" lon="-5.254395"><ele>984.0</ele><time>2026-04-23T13:39:36.94Z</time></trkpt><trkpt lat="31.09435" lon="-5.2546333"><ele>984.0</ele><time>2026-04-23T13:39:37.94Z</time></trkpt><trkpt lat="31.094345" lon="-5.254865"><ele>984.0</ele><time>2026-04-23T13:39:38.94Z</time></trkpt><trkpt lat="31.09434" lon="-5.2551017"><ele>984.0</ele><time>2026-04-23T13:39:39.94Z</time></trkpt><trkpt lat="31.094335" lon="-5.2553383"><ele>984.0</ele><time>2026-04-23T13:39:40.94Z</time></trkpt><trkpt lat="31.0943383" lon="-5.2555783"><ele>984.0</ele><time>2026-04-23T13:39:41.94Z</time></trkpt><trkpt lat="31.0943417" lon="-5.2558133"><ele>984.0</ele><time>2026-04-23T13:39:42.94Z</time></trkpt><trkpt lat="31.0943433" lon="-5.2560517"><ele>984.6666666666667</ele><time>2026-04-23T13:39:43.939Z</time></trkpt><trkpt lat="31.09434" lon="-5.25629"><ele>985.3333333333334</ele><time>2026-04-23T13:39:44.94Z</time></trkpt><trkpt lat="31.0943367" lon="-5.2565267"><ele>986.0</ele><time>2026-04-23T13:39:45.94Z</time></trkpt><trkpt lat="31.0943367" lon="-5.2567633"><ele>986.0</ele><time>2026-04-23T13:39:46.94Z</time></trkpt><trkpt lat="31.0943317" lon="-5.2569933"><ele>986.0</ele><time>2026-04-23T13:39:47.939Z</time></trkpt><trkpt lat="31.094325" lon="-5.25721"><ele>986.0</ele><time>2026-04-23T13:39:48.939Z</time></trkpt><trkpt lat="31.0943133" lon="-5.2574067"><ele>986.75</ele><time>2026-04-23T13:39:49.939Z</time></trkpt><trkpt lat="31.09431" lon="-5.2575867"><ele>987.5</ele><time>2026-04-23T13:39:50.939Z</time></trkpt><trkpt lat="31.0943067" lon="-5.25776"><ele>988.25</ele><time>2026-04-23T13:39:51.939Z</time></trkpt><trkpt lat="31.0943083" lon="-5.25792"><ele>989.0</ele><time>2026-04-23T13:39:52.94Z</time></trkpt><trkpt lat="31.094305" lon="-5.2580583"><ele>989.3333333333334</ele><time>2026-04-23T13:39:53.94Z</time></trkpt><trkpt lat="31.0943017" lon="-5.2581683"><ele>989.6666666666667</ele><time>2026-04-23T13:39:54.939Z</time></trkpt><trkpt lat="31.0942933" lon="-5.2582567"><ele>990.0</ele><time>2026-04-23T13:39:55.939Z</time></trkpt><trkpt lat="31.0942817" lon="-5.258355"><ele>990.3333333333333</ele><time>2026-04-23T13:39:57.94Z</time></trkpt><trkpt lat="31.09429" lon="-5.258435"><ele>990.6666666666666</ele><time>2026-04-23T13:40:29.939Z</time></trkpt><trkpt lat="31.0942983" lon="-5.2585617"><ele>991.0</ele><time>2026-04-23T13:40:31.94Z</time></trkpt><trkpt lat="31.0943" lon="-5.2586417"><ele>990.9999999999999</ele><time>2026-04-23T13:40:32.94Z</time></trkpt><trkpt lat="31.0943033" lon="-5.258735"><ele>991.0</ele><time>2026-04-23T13:40:33.94Z</time></trkpt><trkpt lat="31.0943033" lon="-5.2588317"><ele>991.0</ele><time>2026-04-23T13:40:34.94Z</time></trkpt><trkpt lat="31.0942983" lon="-5.25892"><ele>991.0</ele><time>2026-04-23T13:40:35.939Z</time></trkpt><trkpt lat="31.0942933" lon="-5.2589967"><ele>990.9999999999999</ele><time>2026-04-23T13:40:36.939Z</time></trkpt><trkpt lat="31.0942817" lon="-5.2591"><ele>991.0</ele><time>2026-04-23T13:40:38.939Z</time></trkpt><trkpt lat="31.0942883" lon="-5.2592033"><ele>991.4</ele><time>2026-04-23T13:41:00.94Z</time></trkpt><trkpt lat="31.0942883" lon="-5.2593517"><ele>991.8</ele><time>2026-04-23T13:41:02.94Z</time></trkpt><trkpt lat="31.09429" lon="-5.2594383"><ele>992.1999999999999</ele><time>2026-04-23T13:41:03.94Z</time></trkpt><trkpt lat="31.0942883" lon="-5.2595367"><ele>992.5999999999999</ele><time>2026-04-23T13:41:04.94Z</time></trkpt><trkpt lat="31.0942867" lon="-5.2596417"><ele>993.0</ele><time>2026-04-23T13:41:05.94Z</time></trkpt><trkpt lat="31.094285" lon="-5.25976"><ele>993.75</ele><time>2026-04-23T13:41:06.94Z</time></trkpt><trkpt lat="31.0942833" lon="-5.2598867"><ele>994.5</ele><time>2026-04-23T13:41:07.94Z</time></trkpt><trkpt lat="31.094285" lon="-5.2600267"><ele>995.25</ele><time>2026-04-23T13:41:08.939Z</time></trkpt><trkpt lat="31.0942917" lon="-5.2601717"><ele>996.0</ele><time>2026-04-23T13:41:09.94Z</time></trkpt><trkpt lat="31.094295" lon="-5.260325"><ele>996.0</ele><time>2026-04-23T13:41:10.94Z</time></trkpt><trkpt lat="31.0942983" lon="-5.2604817"><ele>996.0</ele><time>2026-04-23T13:41:11.94Z</time></trkpt><trkpt lat="31.0943" lon="-5.26065"><ele>996.0</ele><time>2026-04-23T13:41:12.94Z</time></trkpt><trkpt lat="31.0943083" lon="-5.26082"><ele>996.0</ele><time>2026-04-23T13:41:13.94Z</time></trkpt><trkpt lat="31.0943133" lon="-5.260995"><ele>996.0</ele><time>2026-04-23T13:41:14.939Z</time></trkpt><trkpt lat="31.0943083" lon="-5.2611683"><ele>996.0</ele><time>2026-04-23T13:41:15.94Z</time></trkpt><trkpt lat="31.0943067" lon="-5.2613483"><ele>996.0</ele><time>2026-04-23T13:41:16.94Z</time></trkpt><trkpt lat="31.0943033" lon="-5.2615317"><ele>996.6666666666667</ele><time>2026-04-23T13:41:17.94Z</time></trkpt><trkpt lat="31.0943" lon="-5.2617183"><ele>997.3333333333334</ele><time>2026-04-23T13:41:18.939Z</time></trkpt><trkpt lat="31.0942883" lon="-5.26191"><ele>998.0</ele><time>2026-04-23T13:41:19.94Z</time></trkpt><trkpt lat="31.0942933" lon="-5.2620933"><ele>998.0</ele><time>2026-04-23T13:41:20.94Z</time></trkpt><trkpt lat="31.0942967" lon="-5.262275"><ele>998.0</ele><time>2026-04-23T13:41:21.94Z</time></trkpt><trkpt lat="31.0942983" lon="-5.262465"><ele>998.0</ele><time>2026-04-23T13:41:22.94Z</time></trkpt><trkpt lat="31.0942983" lon="-5.2626433"><ele>998.25</ele><time>2026-04-23T13:41:23.94Z</time></trkpt><trkpt lat="31.094295" lon="-5.2628083"><ele>998.5</ele><time>2026-04-23T13:41:24.94Z</time></trkpt><trkpt lat="31.0942967" lon="-5.262965"><ele>998.75</ele><time>2026-04-23T13:41:25.94Z</time></trkpt><trkpt lat="31.0942983" lon="-5.263115"><ele>999.0</ele><time>2026-04-23T13:41:26.94Z</time></trkpt><trkpt lat="31.0942933" lon="-5.2632717"><ele>999.5</ele><time>2026-04-23T13:41:27.94Z</time></trkpt><trkpt lat="31.094295" lon="-5.2634283"><ele>1000.0</ele><time>2026-04-23T13:41:28.939Z</time></trkpt><trkpt lat="31.0942967" lon="-5.2635867"><ele>1000.5</ele><time>2026-04-23T13:41:29.94Z</time></trkpt><trkpt lat="31.094295" lon="-5.26375"><ele>1001.0</ele><time>2026-04-23T13:41:30.94Z</time></trkpt><trkpt lat="31.0942917" lon="-5.2639117"><ele>1001.0</ele><time>2026-04-23T13:41:31.939Z</time></trkpt><trkpt lat="31.0942867" lon="-5.2640767"><ele>1001.0</ele><time>2026-04-23T13:41:32.94Z</time></trkpt><trkpt lat="31.094285" lon="-5.2642433"><ele>1001.0</ele><time>2026-04-23T13:41:33.94Z</time></trkpt><trkpt lat="31.0942867" lon="-5.264415"><ele>1001.0</ele><time>2026-04-23T13:41:34.94Z</time></trkpt><trkpt lat="31.0942883" lon="-5.26459"><ele>1001.0</ele><time>2026-04-23T13:41:35.94Z</time></trkpt><trkpt lat="31.0942833" lon="-5.2647683"><ele>1001.0</ele><time>2026-04-23T13:41:36.94Z</time></trkpt><trkpt lat="31.0942883" lon="-5.26495"><ele>1001.0</ele><time>2026-04-23T13:41:37.94Z</time></trkpt><trkpt lat="31.0942867" lon="-5.2651333"><ele>1002.0</ele><time>2026-04-23T13:41:38.94Z</time></trkpt><trkpt lat="31.0942867" lon="-5.2653217"><ele>1003.0</ele><time>2026-04-23T13:41:39.94Z</time></trkpt><trkpt lat="31.0942867" lon="-5.2655083"><ele>1004.0</ele><time>2026-04-23T13:41:40.94Z</time></trkpt><trkpt lat="31.0942867" lon="-5.2657"><ele>1004.3333333333334</ele><time>2026-04-23T13:41:41.94Z</time></trkpt><trkpt lat="31.0942833" lon="-5.26589"><ele>1004.6666666666667</ele><time>2026-04-23T13:41:42.94Z</time></trkpt><trkpt lat="31.094275" lon="-5.26608"><ele>1005.0</ele><time>2026-04-23T13:41:43.94Z</time></trkpt><trkpt lat="31.0942733" lon="-5.266275"><ele>1005.6666666666667</ele><time>2026-04-23T13:41:44.94Z</time></trkpt><trkpt lat="31.0942733" lon="-5.2664683"><ele>1006.3333333333334</ele><time>2026-04-23T13:41:45.94Z</time></trkpt><trkpt lat="31.0942783" lon="-5.2666717"><ele>1007.0</ele><time>2026-04-23T13:41:46.939Z</time></trkpt><trkpt lat="31.0942767" lon="-5.266875"><ele>1007.0</ele><time>2026-04-23T13:41:47.94Z</time></trkpt><trkpt lat="31.094275" lon="-5.2670817"><ele>1007.0</ele><time>2026-04-23T13:41:48.94Z</time></trkpt><trkpt lat="31.0942717" lon="-5.26729"><ele>1007.0</ele><time>2026-04-23T13:41:49.939Z</time></trkpt><trkpt lat="31.09427" lon="-5.2675"><ele>1007.6666666666667</ele><time>2026-04-23T13:41:50.94Z</time></trkpt><trkpt lat="31.094275" lon="-5.2677133"><ele>1008.3333333333333</ele><time>2026-04-23T13:41:51.939Z</time></trkpt><trkpt lat="31.094275" lon="-5.2679217"><ele>1009.0</ele><time>2026-04-23T13:41:52.939Z</time></trkpt><trkpt lat="31.0942783" lon="-5.2681383"><ele>1009.3333333333333</ele><time>2026-04-23T13:41:53.94Z</time></trkpt><trkpt lat="31.0942767" lon="-5.2683467"><ele>1009.6666666666667</ele><time>2026-04-23T13:41:54.94Z</time></trkpt><trkpt lat="31.0942783" lon="-5.2685567"><ele>1010.0</ele><time>2026-04-23T13:41:55.94Z</time></trkpt><trkpt lat="31.0942733" lon="-5.26877"><ele>1010.3333333333334</ele><time>2026-04-23T13:41:56.94Z</time></trkpt><trkpt lat="31.09427" lon="-5.26898"><ele>1010.6666666666667</ele><time>2026-04-23T13:41:57.94Z</time></trkpt><trkpt lat="31.0942683" lon="-5.269195"><ele>1011.0</ele><time>2026-04-23T13:41:58.94Z</time></trkpt><trkpt lat="31.0942667" lon="-5.2694117"><ele>1011.0</ele><time>2026-04-23T13:41:59.939Z</time></trkpt><trkpt lat="31.0942617" lon="-5.269625"><ele>1011.0</ele><time>2026-04-23T13:42:00.94Z</time></trkpt><trkpt lat="31.0942583" lon="-5.2698333"><ele>1011.0</ele><time>2026-04-23T13:42:01.939Z</time></trkpt><trkpt lat="31.0942633" lon="-5.2700467"><ele>1011.6666666666667</ele><time>2026-04-23T13:42:02.939Z</time></trkpt><trkpt lat="31.0942583" lon="-5.27026"><ele>1012.3333333333334</ele><time>2026-04-23T13:42:03.939Z</time></trkpt><trkpt lat="31.0942533" lon="-5.2704633"><ele>1013.0</ele><time>2026-04-23T13:42:04.94Z</time></trkpt><trkpt lat="31.094255" lon="-5.27067"><ele>1013.6666666666667</ele><time>2026-04-23T13:42:05.94Z</time></trkpt><trkpt lat="31.0942533" lon="-5.27088"><ele>1014.3333333333333</ele><time>2026-04-23T13:42:06.94Z</time></trkpt><trkpt lat="31.0942517" lon="-5.271095"><ele>1015.0</ele><time>2026-04-23T13:42:07.94Z</time></trkpt><trkpt lat="31.09425" lon="-5.2713067"><ele>1015.6666666666666</ele><time>2026-04-23T13:42:08.94Z</time></trkpt><trkpt lat="31.0942433" lon="-5.2715183"><ele>1016.3333333333333</ele><time>2026-04-23T13:42:09.94Z</time></trkpt><trkpt lat="31.09423" lon="-5.27173"><ele>1017.0</ele><time>2026-04-23T13:42:10.939Z</time></trkpt><trkpt lat="31.0942133" lon="-5.27194"><ele>1017.0</ele><time>2026-04-23T13:42:11.94Z</time></trkpt><trkpt lat="31.09419" lon="-5.2721483"><ele>1017.0</ele><time>2026-04-23T13:42:12.94Z</time></trkpt><trkpt lat="31.09417" lon="-5.2723517"><ele>1017.0</ele><time>2026-04-23T13:42:13.94Z</time></trkpt><trkpt lat="31.094145" lon="-5.2725633"><ele>1017.6666666666667</ele><time>2026-04-23T13:42:14.94Z</time></trkpt><trkpt lat="31.0941233" lon="-5.272775"><ele>1018.3333333333334</ele><time>2026-04-23T13:42:15.94Z</time></trkpt><trkpt lat="31.094105" lon="-5.2729867"><ele>1019.0</ele><time>2026-04-23T13:42:16.94Z</time></trkpt><trkpt lat="31.0940817" lon="-5.273205"><ele>1019.3333333333334</ele><time>2026-04-23T13:42:17.94Z</time></trkpt><trkpt lat="31.0940567" lon="-5.2734267"><ele>1019.6666666666667</ele><time>2026-04-23T13:42:18.94Z</time></trkpt><trkpt lat="31.0940283" lon="-5.2736483"><ele>1020.0</ele><time>2026-04-23T13:42:19.94Z</time></trkpt><trkpt lat="31.093995" lon="-5.2738717"><ele>1020.3333333333333</ele><time>2026-04-23T13:42:20.94Z</time></trkpt><trkpt lat="31.0939667" lon="-5.274095"><ele>1020.6666666666666</ele><time>2026-04-23T13:42:21.939Z</time></trkpt><trkpt lat="31.0939333" lon="-5.2743183"><ele>1021.0</ele><time>2026-04-23T13:42:22.94Z</time></trkpt><trkpt lat="31.09391" lon="-5.2745417"><ele>1021.0</ele><time>2026-04-23T13:42:23.94Z</time></trkpt><trkpt lat="31.093885" lon="-5.2747667"><ele>1021.0</ele><time>2026-04-23T13:42:24.94Z</time></trkpt><trkpt lat="31.0938633" lon="-5.27499"><ele>1021.0</ele><time>2026-04-23T13:42:25.939Z</time></trkpt><trkpt lat="31.09384" lon="-5.2752183"><ele>1022.0</ele><time>2026-04-23T13:42:26.939Z</time></trkpt><trkpt lat="31.0938133" lon="-5.275435"><ele>1023.0</ele><time>2026-04-23T13:42:27.94Z</time></trkpt><trkpt lat="31.0937867" lon="-5.2756483"><ele>1024.0</ele><time>2026-04-23T13:42:28.94Z</time></trkpt><trkpt lat="31.093755" lon="-5.2758633"><ele>1024.0</ele><time>2026-04-23T13:42:29.94Z</time></trkpt><trkpt lat="31.0937317" lon="-5.2760733"><ele>1024.0</ele><time>2026-04-23T13:42:30.939Z</time></trkpt><trkpt lat="31.09371" lon="-5.2762817"><ele>1024.0</ele><time>2026-04-23T13:42:31.94Z</time></trkpt><trkpt lat="31.0936833" lon="-5.2764867"><ele>1024.3333333333333</ele><time>2026-04-23T13:42:32.94Z</time></trkpt><trkpt lat="31.093665" lon="-5.2766933"><ele>1024.6666666666667</ele><time>2026-04-23T13:42:33.94Z</time></trkpt><trkpt lat="31.09364" lon="-5.2769"><ele>1025.0</ele><time>2026-04-23T13:42:34.939Z</time></trkpt><trkpt lat="31.093615" lon="-5.2771033"><ele>1025.6666666666667</ele><time>2026-04-23T13:42:35.94Z</time></trkpt><trkpt lat="31.0935917" lon="-5.2773117"><ele>1026.3333333333333</ele><time>2026-04-23T13:42:36.939Z</time></trkpt><trkpt lat="31.093565" lon="-5.2775133"><ele>1027.0</ele><time>2026-04-23T13:42:37.939Z</time></trkpt><trkpt lat="31.09354" lon="-5.27772"><ele>1027.0</ele><time>2026-04-23T13:42:38.939Z</time></trkpt><trkpt lat="31.0935133" lon="-5.277925"><ele>1027.0</ele><time>2026-04-23T13:42:39.94Z</time></trkpt><trkpt lat="31.09349" lon="-5.2781283"><ele>1027.0</ele><time>2026-04-23T13:42:40.94Z</time></trkpt><trkpt lat="31.093465" lon="-5.2783333"><ele>1027.3333333333333</ele><time>2026-04-23T13:42:41.94Z</time></trkpt><trkpt lat="31.09344" lon="-5.2785383"><ele>1027.6666666666667</ele><time>2026-04-23T13:42:42.939Z</time></trkpt><trkpt lat="31.0934133" lon="-5.2787483"><ele>1028.0</ele><time>2026-04-23T13:42:43.94Z</time></trkpt><trkpt lat="31.093385" lon="-5.278955"><ele>1028.3333333333335</ele><time>2026-04-23T13:42:44.94Z</time></trkpt><trkpt lat="31.0933567" lon="-5.2791633"><ele>1028.6666666666667</ele><time>2026-04-23T13:42:45.939Z</time></trkpt><trkpt lat="31.0933367" lon="-5.279375"><ele>1029.0</ele><time>2026-04-23T13:42:46.939Z</time></trkpt><trkpt lat="31.0933117" lon="-5.2795933"><ele>1029.6666666666667</ele><time>2026-04-23T13:42:47.939Z</time></trkpt><trkpt lat="31.0933017" lon="-5.279815"><ele>1030.3333333333335</ele><time>2026-04-23T13:42:48.939Z</time></trkpt><trkpt lat="31.0933" lon="-5.2800367"><ele>1031.0</ele><time>2026-04-23T13:42:49.938Z</time></trkpt><trkpt lat="31.0933017" lon="-5.2802617"><ele>1031.0</ele><time>2026-04-23T13:42:50.938Z</time></trkpt><trkpt lat="31.09331" lon="-5.280485"><ele>1031.0</ele><time>2026-04-23T13:42:51.938Z</time></trkpt><trkpt lat="31.0933167" lon="-5.2807117"><ele>1031.0</ele><time>2026-04-23T13:42:52.938Z</time></trkpt><trkpt lat="31.0933267" lon="-5.280935"><ele>1031.0</ele><time>2026-04-23T13:42:53.938Z</time></trkpt><trkpt lat="31.0933367" lon="-5.2811617"><ele>1031.0</ele><time>2026-04-23T13:42:54.939Z</time></trkpt><trkpt lat="31.0933417" lon="-5.2813867"><ele>1031.0</ele><time>2026-04-23T13:42:55.939Z</time></trkpt><trkpt lat="31.093345" lon="-5.281615"><ele>1031.3333333333335</ele><time>2026-04-23T13:42:56.938Z</time></trkpt><trkpt lat="31.0933517" lon="-5.2818383"><ele>1031.6666666666667</ele><time>2026-04-23T13:42:57.938Z</time></trkpt><trkpt lat="31.0933467" lon="-5.28206"><ele>1032.0</ele><time>2026-04-23T13:42:58.939Z</time></trkpt><trkpt lat="31.0933283" lon="-5.2822817"><ele>1032.0</ele><time>2026-04-23T13:42:59.939Z</time></trkpt><trkpt lat="31.0932967" lon="-5.2825"><ele>1032.0</ele><time>2026-04-23T13:43:00.938Z</time></trkpt><trkpt lat="31.0932617" lon="-5.2827117"><ele>1032.0</ele><time>2026-04-23T13:43:01.939Z</time></trkpt><trkpt lat="31.093225" lon="-5.282915"><ele>1031.6666666666667</ele><time>2026-04-23T13:43:02.939Z</time></trkpt><trkpt lat="31.0931967" lon="-5.2831217"><ele>1031.3333333333335</ele><time>2026-04-23T13:43:03.939Z</time></trkpt><trkpt lat="31.093185" lon="-5.2833283"><ele>1031.0</ele><time>2026-04-23T13:43:04.938Z</time></trkpt><trkpt lat="31.0931867" lon="-5.2835383"><ele>1031.0</ele><time>2026-04-23T13:43:05.939Z</time></trkpt><trkpt lat="31.0931967" lon="-5.28375"><ele>1031.0</ele><time>2026-04-23T13:43:06.939Z</time></trkpt><trkpt lat="31.09321" lon="-5.2839667"><ele>1031.0</ele><time>2026-04-23T13:43:07.939Z</time></trkpt><trkpt lat="31.0932133" lon="-5.284185"><ele>1031.3333333333335</ele><time>2026-04-23T13:43:08.939Z</time></trkpt><trkpt lat="31.0932" lon="-5.284405"><ele>1031.6666666666667</ele><time>2026-04-23T13:43:09.939Z</time></trkpt><trkpt lat="31.0931683" lon="-5.284625"><ele>1032.0</ele><time>2026-04-23T13:43:10.939Z</time></trkpt><trkpt lat="31.093125" lon="-5.2848467"><ele>1031.3333333333333</ele><time>2026-04-23T13:43:11.939Z</time></trkpt><trkpt lat="31.09308" lon="-5.2850667"><ele>1030.6666666666665</ele><time>2026-04-23T13:43:12.939Z</time></trkpt><trkpt lat="31.0930367" lon="-5.28529"><ele>1030.0</ele><time>2026-04-23T13:43:13.939Z</time></trkpt><trkpt lat="31.0929917" lon="-5.2855083"><ele>1030.3333333333333</ele><time>2026-04-23T13:43:14.939Z</time></trkpt><trkpt lat="31.092945" lon="-5.28573"><ele>1030.6666666666667</ele><time>2026-04-23T13:43:15.939Z</time></trkpt><trkpt lat="31.0929" lon="-5.2859517"><ele>1031.0</ele><time>2026-04-23T13:43:16.939Z</time></trkpt><trkpt lat="31.0928567" lon="-5.2861783"><ele>1031.0</ele><time>2026-04-23T13:43:17.938Z</time></trkpt><trkpt lat="31.0928133" lon="-5.2864017"><ele>1031.0</ele><time>2026-04-23T13:43:18.939Z</time></trkpt><trkpt lat="31.092765" lon="-5.28662"><ele>1031.0</ele><time>2026-04-23T13:43:19.939Z</time></trkpt><trkpt lat="31.0927217" lon="-5.286835"><ele>1030.6666666666667</ele><time>2026-04-23T13:43:20.939Z</time></trkpt><trkpt lat="31.0926783" lon="-5.287035"><ele>1030.3333333333333</ele><time>2026-04-23T13:43:21.939Z</time></trkpt><trkpt lat="31.0926383" lon="-5.2872267"><ele>1030.0</ele><time>2026-04-23T13:43:22.939Z</time></trkpt><trkpt lat="31.0926117" lon="-5.2874133"><ele>1030.0</ele><time>2026-04-23T13:43:23.939Z</time></trkpt><trkpt lat="31.0926" lon="-5.2875917"><ele>1030.0</ele><time>2026-04-23T13:43:24.939Z</time></trkpt><trkpt lat="31.0926183" lon="-5.28777"><ele>1030.0</ele><time>2026-04-23T13:43:25.939Z</time></trkpt><trkpt lat="31.0926683" lon="-5.2879483"><ele>1029.0</ele><time>2026-04-23T13:43:26.939Z</time></trkpt><trkpt lat="31.0927283" lon="-5.2881283"><ele>1028.0</ele><time>2026-04-23T13:43:27.938Z</time></trkpt><trkpt lat="31.0928033" lon="-5.2883083"><ele>1027.0</ele><time>2026-04-23T13:43:28.939Z</time></trkpt><trkpt lat="31.0928783" lon="-5.2884917"><ele>1027.0</ele><time>2026-04-23T13:43:29.939Z</time></trkpt><trkpt lat="31.092935" lon="-5.2886667"><ele>1027.0</ele><time>2026-04-23T13:43:30.939Z</time></trkpt><trkpt lat="31.09299" lon="-5.2888433"><ele>1027.0</ele><time>2026-04-23T13:43:31.939Z</time></trkpt><trkpt lat="31.09301" lon="-5.28901"><ele>1027.0</ele><time>2026-04-23T13:43:32.939Z</time></trkpt><trkpt lat="31.0929967" lon="-5.289165"><ele>1027.0</ele><time>2026-04-23T13:43:33.939Z</time></trkpt><trkpt lat="31.0929533" lon="-5.28932"><ele>1027.0</ele><time>2026-04-23T13:43:34.939Z</time></trkpt><trkpt lat="31.09289" lon="-5.2894733"><ele>1027.0</ele><time>2026-04-23T13:43:35.938Z</time></trkpt><trkpt lat="31.09281" lon="-5.2896333"><ele>1028.3333333333333</ele><time>2026-04-23T13:43:36.938Z</time></trkpt><trkpt lat="31.0927183" lon="-5.2897967"><ele>1029.6666666666667</ele><time>2026-04-23T13:43:37.938Z</time></trkpt><trkpt lat="31.0926233" lon="-5.2899617"><ele>1031.0</ele><time>2026-04-23T13:43:38.939Z</time></trkpt><trkpt lat="31.0925233" lon="-5.29013"><ele>1031.0</ele><time>2026-04-23T13:43:39.939Z</time></trkpt><trkpt lat="31.0924267" lon="-5.290305"><ele>1031.0</ele><time>2026-04-23T13:43:40.939Z</time></trkpt><trkpt lat="31.0923267" lon="-5.2904817"><ele>1031.0</ele><time>2026-04-23T13:43:41.938Z</time></trkpt><trkpt lat="31.0922267" lon="-5.2906633"><ele>1030.3333333333335</ele><time>2026-04-23T13:43:42.939Z</time></trkpt><trkpt lat="31.0921267" lon="-5.2908533"><ele>1029.6666666666667</ele><time>2026-04-23T13:43:43.939Z</time></trkpt><trkpt lat="31.092025" lon="-5.291045"><ele>1029.0</ele><time>2026-04-23T13:43:44.939Z</time></trkpt><trkpt lat="31.0919233" lon="-5.29123"><ele>1029.0</ele><time>2026-04-23T13:43:45.938Z</time></trkpt><trkpt lat="31.09182" lon="-5.2914133"><ele>1029.0</ele><time>2026-04-23T13:43:46.938Z</time></trkpt><trkpt lat="31.0917267" lon="-5.29159"><ele>1029.0</ele><time>2026-04-23T13:43:47.939Z</time></trkpt><trkpt lat="31.0916433" lon="-5.2917633"><ele>1027.3333333333333</ele><time>2026-04-23T13:43:48.939Z</time></trkpt><trkpt lat="31.091565" lon="-5.2919467"><ele>1025.6666666666665</ele><time>2026-04-23T13:43:49.939Z</time></trkpt><trkpt lat="31.091495" lon="-5.29213"><ele>1024.0</ele><time>2026-04-23T13:43:50.939Z</time></trkpt><trkpt lat="31.09144" lon="-5.2923233"><ele>1024.0</ele><time>2026-04-23T13:43:51.939Z</time></trkpt><trkpt lat="31.0913917" lon="-5.29253"><ele>1024.0</ele><time>2026-04-23T13:43:52.939Z</time></trkpt><trkpt lat="31.0913633" lon="-5.292735"><ele>1024.0</ele><time>2026-04-23T13:43:53.939Z</time></trkpt><trkpt lat="31.0913467" lon="-5.29295"><ele>1024.0</ele><time>2026-04-23T13:43:54.939Z</time></trkpt><trkpt lat="31.091345" lon="-5.293165"><ele>1024.0</ele><time>2026-04-23T13:43:55.939Z</time></trkpt><trkpt lat="31.0913517" lon="-5.2933767"><ele>1024.0</ele><time>2026-04-23T13:43:56.938Z</time></trkpt><trkpt lat="31.0913767" lon="-5.29359"><ele>1024.0</ele><time>2026-04-23T13:43:57.938Z</time></trkpt><trkpt lat="31.0914017" lon="-5.2938033"><ele>1024.0</ele><time>2026-04-23T13:43:58.939Z</time></trkpt><trkpt lat="31.0914167" lon="-5.2940067"><ele>1024.0</ele><time>2026-04-23T13:43:59.939Z</time></trkpt><trkpt lat="31.0914367" lon="-5.2942033"><ele>1024.0</ele><time>2026-04-23T13:44:00.939Z</time></trkpt><trkpt lat="31.0914533" lon="-5.2943867"><ele>1024.0</ele><time>2026-04-23T13:44:01.939Z</time></trkpt><trkpt lat="31.091475" lon="-5.2945783"><ele>1024.0</ele><time>2026-04-23T13:44:02.938Z</time></trkpt><trkpt lat="31.0914983" lon="-5.2947683"><ele>1024.0</ele><time>2026-04-23T13:44:03.938Z</time></trkpt><trkpt lat="31.0915183" lon="-5.29496"><ele>1024.0</ele><time>2026-04-23T13:44:04.939Z</time></trkpt><trkpt lat="31.091535" lon="-5.29515"><ele>1024.0</ele><time>2026-04-23T13:44:05.939Z</time></trkpt><trkpt lat="31.0915533" lon="-5.2953467"><ele>1024.0</ele><time>2026-04-23T13:44:06.939Z</time></trkpt><trkpt lat="31.0915717" lon="-5.2955417"><ele>1024.0</ele><time>2026-04-23T13:44:07.939Z</time></trkpt><trkpt lat="31.0915767" lon="-5.2957367"><ele>1024.0</ele><time>2026-04-23T13:44:08.938Z</time></trkpt><trkpt lat="31.0915917" lon="-5.29593"><ele>1026.6666666666665</ele><time>2026-04-23T13:44:09.938Z</time></trkpt><trkpt lat="31.0916117" lon="-5.2961167"><ele>1029.3333333333333</ele><time>2026-04-23T13:44:10.939Z</time></trkpt><trkpt lat="31.0916333" lon="-5.2962883"><ele>1032.0</ele><time>2026-04-23T13:44:11.939Z</time></trkpt><trkpt lat="31.0916383" lon="-5.2964567"><ele>1032.0</ele><time>2026-04-23T13:44:12.939Z</time></trkpt><trkpt lat="31.0916383" lon="-5.29662"><ele>1032.0</ele><time>2026-04-23T13:44:13.938Z</time></trkpt><trkpt lat="31.0916233" lon="-5.296775"><ele>1032.0</ele><time>2026-04-23T13:44:14.938Z</time></trkpt><trkpt lat="31.0915817" lon="-5.296915"><ele>1032.0</ele><time>2026-04-23T13:44:15.939Z</time></trkpt><trkpt lat="31.09151" lon="-5.2970533"><ele>1030.75</ele><time>2026-04-23T13:44:16.939Z</time></trkpt><trkpt lat="31.0914133" lon="-5.2971783"><ele>1029.5</ele><time>2026-04-23T13:44:17.938Z</time></trkpt><trkpt lat="31.0913067" lon="-5.2972733"><ele>1028.25</ele><time>2026-04-23T13:44:18.939Z</time></trkpt><trkpt lat="31.091175" lon="-5.297355"><ele>1027.0</ele><time>2026-04-23T13:44:19.939Z</time></trkpt><trkpt lat="31.0910267" lon="-5.2974183"><ele>1027.0</ele><time>2026-04-23T13:44:20.939Z</time></trkpt><trkpt lat="31.0908683" lon="-5.2974733"><ele>1027.0</ele><time>2026-04-23T13:44:21.938Z</time></trkpt><trkpt lat="31.0907033" lon="-5.2975283"><ele>1027.0</ele><time>2026-04-23T13:44:22.939Z</time></trkpt><trkpt lat="31.0905383" lon="-5.2975833"><ele>1026.3333333333333</ele><time>2026-04-23T13:44:23.938Z</time></trkpt><trkpt lat="31.090375" lon="-5.2976417"><ele>1025.6666666666667</ele><time>2026-04-23T13:44:24.939Z</time></trkpt><trkpt lat="31.090205" lon="-5.2976983"><ele>1025.0</ele><time>2026-04-23T13:44:25.939Z</time></trkpt><trkpt lat="31.09004" lon="-5.2977583"><ele>1025.3333333333335</ele><time>2026-04-23T13:44:26.939Z</time></trkpt><trkpt lat="31.08988" lon="-5.29781"><ele>1025.6666666666667</ele><time>2026-04-23T13:44:27.938Z</time></trkpt><trkpt lat="31.0897233" lon="-5.297865"><ele>1026.0</ele><time>2026-04-23T13:44:28.939Z</time></trkpt><trkpt lat="31.0895733" lon="-5.29792"><ele>1026.0</ele><time>2026-04-23T13:44:29.939Z</time></trkpt><trkpt lat="31.0894283" lon="-5.2979667"><ele>1026.0</ele><time>2026-04-23T13:44:30.938Z</time></trkpt><trkpt lat="31.08929" lon="-5.29801"><ele>1026.0</ele><time>2026-04-23T13:44:31.938Z</time></trkpt><trkpt lat="31.0891517" lon="-5.2980583"><ele>1026.0</ele><time>2026-04-23T13:44:32.939Z</time></trkpt><trkpt lat="31.0890167" lon="-5.298105"><ele>1027.75</ele><time>2026-04-23T13:44:33.939Z</time></trkpt><trkpt lat="31.0888833" lon="-5.2981617"><ele>1029.5</ele><time>2026-04-23T13:44:34.939Z</time></trkpt><trkpt lat="31.0887583" lon="-5.2982183"><ele>1031.25</ele><time>2026-04-23T13:44:35.939Z</time></trkpt><trkpt lat="31.0886367" lon="-5.298275"><ele>1033.0</ele><time>2026-04-23T13:44:36.938Z</time></trkpt><trkpt lat="31.08852" lon="-5.2983433"><ele>1033.0</ele><time>2026-04-23T13:44:37.939Z</time></trkpt><trkpt lat="31.0884133" lon="-5.2984133"><ele>1033.0</ele><time>2026-04-23T13:44:38.939Z</time></trkpt><trkpt lat="31.0883133" lon="-5.2984933"><ele>1033.0</ele><time>2026-04-23T13:44:39.939Z</time></trkpt><trkpt lat="31.0882117" lon="-5.2985767"><ele>1033.0</ele><time>2026-04-23T13:44:40.939Z</time></trkpt><trkpt lat="31.0881133" lon="-5.2986567"><ele>1035.0</ele><time>2026-04-23T13:44:41.939Z</time></trkpt><trkpt lat="31.0880167" lon="-5.2987367"><ele>1037.0</ele><time>2026-04-23T13:44:42.939Z</time></trkpt><trkpt lat="31.08792" lon="-5.2988167"><ele>1039.0</ele><time>2026-04-23T13:44:43.939Z</time></trkpt><trkpt lat="31.0878317" lon="-5.2989"><ele>1041.0</ele><time>2026-04-23T13:44:44.939Z</time></trkpt><trkpt lat="31.0877367" lon="-5.2989883"><ele>1041.25</ele><time>2026-04-23T13:44:45.938Z</time></trkpt><trkpt lat="31.087645" lon="-5.29908"><ele>1041.5</ele><time>2026-04-23T13:44:46.939Z</time></trkpt><trkpt lat="31.08755" lon="-5.299165"><ele>1041.75</ele><time>2026-04-23T13:44:47.939Z</time></trkpt><trkpt lat="31.0874517" lon="-5.2992533"><ele>1042.0</ele><time>2026-04-23T13:44:48.939Z</time></trkpt><trkpt lat="31.08735" lon="-5.2993433"><ele>1042.0</ele><time>2026-04-23T13:44:49.939Z</time></trkpt><trkpt lat="31.087245" lon="-5.299435"><ele>1042.0</ele><time>2026-04-23T13:44:50.939Z</time></trkpt><trkpt lat="31.0871467" lon="-5.2995283"><ele>1042.0</ele><time>2026-04-23T13:44:51.939Z</time></trkpt><trkpt lat="31.0870483" lon="-5.299615"><ele>1042.0</ele><time>2026-04-23T13:44:52.939Z</time></trkpt><trkpt lat="31.08695" lon="-5.2996967"><ele>1042.0</ele><time>2026-04-23T13:44:53.939Z</time></trkpt><trkpt lat="31.0868533" lon="-5.299785"><ele>1042.0</ele><time>2026-04-23T13:44:54.938Z</time></trkpt><trkpt lat="31.0867517" lon="-5.2998683"><ele>1042.0</ele><time>2026-04-23T13:44:55.939Z</time></trkpt><trkpt lat="31.086655" lon="-5.2999617"><ele>1042.0</ele><time>2026-04-23T13:44:56.939Z</time></trkpt><trkpt lat="31.0865717" lon="-5.3000433"><ele>1040.4</ele><time>2026-04-23T13:44:57.939Z</time></trkpt><trkpt lat="31.0864933" lon="-5.3001233"><ele>1038.8000000000002</ele><time>2026-04-23T13:44:58.939Z</time></trkpt><trkpt lat="31.086425" lon="-5.300225"><ele>1037.2</ele><time>2026-04-23T13:44:59.939Z</time></trkpt><trkpt lat="31.08637" lon="-5.30034"><ele>1035.6000000000001</ele><time>2026-04-23T13:45:00.939Z</time></trkpt><trkpt lat="31.0863317" lon="-5.300465"><ele>1034.0</ele><time>2026-04-23T13:45:01.939Z</time></trkpt><trkpt lat="31.0863183" lon="-5.30061"><ele>1034.0</ele><time>2026-04-23T13:45:02.939Z</time></trkpt><trkpt lat="31.08632" lon="-5.300765"><ele>1034.0</ele><time>2026-04-23T13:45:03.939Z</time></trkpt><trkpt lat="31.0863267" lon="-5.3009183"><ele>1034.0</ele><time>2026-04-23T13:45:04.939Z</time></trkpt><trkpt lat="31.0863317" lon="-5.301075"><ele>1034.0</ele><time>2026-04-23T13:45:05.939Z</time></trkpt><trkpt lat="31.0863283" lon="-5.3012433"><ele>1034.3333333333335</ele><time>2026-04-23T13:45:06.939Z</time></trkpt><trkpt lat="31.0863133" lon="-5.3014183"><ele>1034.6666666666667</ele><time>2026-04-23T13:45:07.939Z</time></trkpt><trkpt lat="31.0862917" lon="-5.3016017"><ele>1035.0</ele><time>2026-04-23T13:45:08.939Z</time></trkpt><trkpt lat="31.0862667" lon="-5.3017933"><ele>1035.0</ele><time>2026-04-23T13:45:09.938Z</time></trkpt><trkpt lat="31.0862317" lon="-5.30199"><ele>1035.0</ele><time>2026-04-23T13:45:10.939Z</time></trkpt><trkpt lat="31.0861883" lon="-5.3021933"><ele>1035.0</ele><time>2026-04-23T13:45:11.938Z</time></trkpt><trkpt lat="31.0861483" lon="-5.3024067"><ele>1035.3333333333333</ele><time>2026-04-23T13:45:12.939Z</time></trkpt><trkpt lat="31.0861083" lon="-5.30262"><ele>1035.6666666666665</ele><time>2026-04-23T13:45:13.939Z</time></trkpt><trkpt lat="31.08607" lon="-5.30282"><ele>1036.0</ele><time>2026-04-23T13:45:14.939Z</time></trkpt><trkpt lat="31.0860333" lon="-5.3030233"><ele>1035.3333333333333</ele><time>2026-04-23T13:45:15.938Z</time></trkpt><trkpt lat="31.085995" lon="-5.303225"><ele>1034.6666666666667</ele><time>2026-04-23T13:45:16.938Z</time></trkpt><trkpt lat="31.0859617" lon="-5.3034267"><ele>1034.0</ele><time>2026-04-23T13:45:17.939Z</time></trkpt><trkpt lat="31.085925" lon="-5.3036333"><ele>1034.0</ele><time>2026-04-23T13:45:18.939Z</time></trkpt><trkpt lat="31.0858983" lon="-5.3038417"><ele>1034.0</ele><time>2026-04-23T13:45:19.939Z</time></trkpt><trkpt lat="31.0858883" lon="-5.3040533"><ele>1034.0</ele><time>2026-04-23T13:45:20.939Z</time></trkpt><trkpt lat="31.0858867" lon="-5.3042683"><ele>1034.6666666666667</ele><time>2026-04-23T13:45:21.939Z</time></trkpt><trkpt lat="31.0859067" lon="-5.3044817"><ele>1035.3333333333333</ele><time>2026-04-23T13:45:22.938Z</time></trkpt><trkpt lat="31.0859383" lon="-5.304695"><ele>1036.0</ele><time>2026-04-23T13:45:23.938Z</time></trkpt><trkpt lat="31.0859817" lon="-5.30491"><ele>1037.3333333333333</ele><time>2026-04-23T13:45:24.939Z</time></trkpt><trkpt lat="31.08604" lon="-5.30512"><ele>1038.6666666666667</ele><time>2026-04-23T13:45:25.939Z</time></trkpt><trkpt lat="31.0861017" lon="-5.305325"><ele>1040.0</ele><time>2026-04-23T13:45:26.939Z</time></trkpt><trkpt lat="31.0861783" lon="-5.3055267"><ele>1041.0</ele><time>2026-04-23T13:45:27.939Z</time></trkpt><trkpt lat="31.0862633" lon="-5.305725"><ele>1042.0</ele><time>2026-04-23T13:45:28.939Z</time></trkpt><trkpt lat="31.0863667" lon="-5.3059167"><ele>1043.0</ele><time>2026-04-23T13:45:29.939Z</time></trkpt><trkpt lat="31.0864817" lon="-5.3060983"><ele>1042.6666666666667</ele><time>2026-04-23T13:45:30.938Z</time></trkpt><trkpt lat="31.0866" lon="-5.3062883"><ele>1042.3333333333333</ele><time>2026-04-23T13:45:31.939Z</time></trkpt><trkpt lat="31.0867183" lon="-5.3064783"><ele>1042.0</ele><time>2026-04-23T13:45:32.939Z</time></trkpt><trkpt lat="31.0868417" lon="-5.3066717"><ele>1042.0</ele><time>2026-04-23T13:45:33.938Z</time></trkpt><trkpt lat="31.08696" lon="-5.30687"><ele>1042.0</ele><time>2026-04-23T13:45:34.939Z</time></trkpt><trkpt lat="31.0870683" lon="-5.30707"><ele>1042.0</ele><time>2026-04-23T13:45:35.939Z</time></trkpt><trkpt lat="31.0871667" lon="-5.3072667"><ele>1041.3333333333333</ele><time>2026-04-23T13:45:36.939Z</time></trkpt><trkpt lat="31.0872633" lon="-5.3074683"><ele>1040.6666666666667</ele><time>2026-04-23T13:45:37.939Z</time></trkpt><trkpt lat="31.0873617" lon="-5.307675"><ele>1040.0</ele><time>2026-04-23T13:45:38.939Z</time></trkpt><trkpt lat="31.08745" lon="-5.3078817"><ele>1042.0</ele><time>2026-04-23T13:45:39.939Z</time></trkpt><trkpt lat="31.0875367" lon="-5.3080933"><ele>1044.0</ele><time>2026-04-23T13:45:40.939Z</time></trkpt><trkpt lat="31.087625" lon="-5.3083067"><ele>1046.0</ele><time>2026-04-23T13:45:41.938Z</time></trkpt><trkpt lat="31.087715" lon="-5.3085233"><ele>1046.0</ele><time>2026-04-23T13:45:42.939Z</time></trkpt><trkpt lat="31.0878067" lon="-5.3087333"><ele>1046.0</ele><time>2026-04-23T13:45:43.939Z</time></trkpt><trkpt lat="31.087895" lon="-5.30894"><ele>1046.0</ele><time>2026-04-23T13:45:44.939Z</time></trkpt><trkpt lat="31.087985" lon="-5.309145"><ele>1048.3333333333335</ele><time>2026-04-23T13:45:45.938Z</time></trkpt><trkpt lat="31.0880717" lon="-5.3093467"><ele>1050.6666666666667</ele><time>2026-04-23T13:45:46.939Z</time></trkpt><trkpt lat="31.0881633" lon="-5.3095533"><ele>1053.0</ele><time>2026-04-23T13:45:47.939Z</time></trkpt><trkpt lat="31.0882517" lon="-5.3097567"><ele>1049.6666666666667</ele><time>2026-04-23T13:45:48.938Z</time></trkpt><trkpt lat="31.0883383" lon="-5.3099617"><ele>1046.3333333333335</ele><time>2026-04-23T13:45:49.939Z</time></trkpt><trkpt lat="31.0884217" lon="-5.31017"><ele>1043.0</ele><time>2026-04-23T13:45:50.938Z</time></trkpt><trkpt lat="31.0884833" lon="-5.3103783"><ele>1044.3333333333335</ele><time>2026-04-23T13:45:51.938Z</time></trkpt><trkpt lat="31.088525" lon="-5.3105917"><ele>1045.6666666666667</ele><time>2026-04-23T13:45:52.939Z</time></trkpt><trkpt lat="31.0885333" lon="-5.310805"><ele>1047.0</ele><time>2026-04-23T13:45:53.938Z</time></trkpt><trkpt lat="31.0885267" lon="-5.3110233"><ele>1047.0</ele><time>2026-04-23T13:45:54.939Z</time></trkpt><trkpt lat="31.0885183" lon="-5.3112467"><ele>1047.0</ele><time>2026-04-23T13:45:55.939Z</time></trkpt><trkpt lat="31.0885033" lon="-5.3114717"><ele>1047.0</ele><time>2026-04-23T13:45:56.939Z</time></trkpt><trkpt lat="31.0884867" lon="-5.3116983"><ele>1047.6666666666667</ele><time>2026-04-23T13:45:57.939Z</time></trkpt><trkpt lat="31.0884733" lon="-5.311925"><ele>1048.3333333333335</ele><time>2026-04-23T13:45:58.939Z</time></trkpt><trkpt lat="31.0884667" lon="-5.3121517"><ele>1049.0</ele><time>2026-04-23T13:45:59.939Z</time></trkpt><trkpt lat="31.088465" lon="-5.3123817"><ele>1049.6666666666667</ele><time>2026-04-23T13:46:00.939Z</time></trkpt><trkpt lat="31.0884817" lon="-5.3126133"><ele>1050.3333333333333</ele><time>2026-04-23T13:46:01.939Z</time></trkpt><trkpt lat="31.0885217" lon="-5.3128367"><ele>1051.0</ele><time>2026-04-23T13:46:02.939Z</time></trkpt><trkpt lat="31.0885833" lon="-5.31306"><ele>1053.6666666666665</ele><time>2026-04-23T13:46:03.939Z</time></trkpt><trkpt lat="31.0886667" lon="-5.3132717"><ele>1056.3333333333333</ele><time>2026-04-23T13:46:04.938Z</time></trkpt><trkpt lat="31.0887633" lon="-5.3134717"><ele>1059.0</ele><time>2026-04-23T13:46:05.938Z</time></trkpt><trkpt lat="31.0888833" lon="-5.3136533"><ele>1059.0</ele><time>2026-04-23T13:46:06.938Z</time></trkpt><trkpt lat="31.089015" lon="-5.3138233"><ele>1059.0</ele><time>2026-04-23T13:46:07.939Z</time></trkpt><trkpt lat="31.0891417" lon="-5.313995"><ele>1059.0</ele><time>2026-04-23T13:46:08.939Z</time></trkpt><trkpt lat="31.0892683" lon="-5.31417"><ele>1056.3333333333333</ele><time>2026-04-23T13:46:09.939Z</time></trkpt><trkpt lat="31.0893917" lon="-5.3143483"><ele>1053.6666666666665</ele><time>2026-04-23T13:46:10.938Z</time></trkpt><trkpt lat="31.08951" lon="-5.3145267"><ele>1051.0</ele><time>2026-04-23T13:46:11.939Z</time></trkpt><trkpt lat="31.0896367" lon="-5.3147033"><ele>1049.6666666666665</ele><time>2026-04-23T13:46:12.938Z</time></trkpt><trkpt lat="31.0897667" lon="-5.3148833"><ele>1048.3333333333333</ele><time>2026-04-23T13:46:13.939Z</time></trkpt><trkpt lat="31.0898883" lon="-5.3150617"><ele>1047.0</ele><time>2026-04-23T13:46:14.939Z</time></trkpt><trkpt lat="31.0900067" lon="-5.3152433"><ele>1047.0</ele><time>2026-04-23T13:46:15.939Z</time></trkpt><trkpt lat="31.0901233" lon="-5.3154267"><ele>1047.0</ele><time>2026-04-23T13:46:16.939Z</time></trkpt><trkpt lat="31.0902517" lon="-5.3156033"><ele>1047.0</ele><time>2026-04-23T13:46:17.939Z</time></trkpt><trkpt lat="31.0903867" lon="-5.3157733"><ele>1046.6666666666667</ele><time>2026-04-23T13:46:18.939Z</time></trkpt><trkpt lat="31.090525" lon="-5.3159333"><ele>1046.3333333333335</ele><time>2026-04-23T13:46:19.939Z</time></trkpt><trkpt lat="31.0906583" lon="-5.3160967"><ele>1046.0</ele><time>2026-04-23T13:46:20.938Z</time></trkpt><trkpt lat="31.0907933" lon="-5.3162533"><ele>1048.3333333333335</ele><time>2026-04-23T13:46:21.939Z</time></trkpt><trkpt lat="31.0909317" lon="-5.3164117"><ele>1050.6666666666667</ele><time>2026-04-23T13:46:22.938Z</time></trkpt><trkpt lat="31.0910683" lon="-5.3165733"><ele>1053.0</ele><time>2026-04-23T13:46:23.939Z</time></trkpt><trkpt lat="31.09121" lon="-5.3167333"><ele>1053.0</ele><time>2026-04-23T13:46:24.938Z</time></trkpt><trkpt lat="31.0913433" lon="-5.3168917"><ele>1053.0</ele><time>2026-04-23T13:46:25.939Z</time></trkpt><trkpt lat="31.0914717" lon="-5.3170417"><ele>1053.0</ele><time>2026-04-23T13:46:26.939Z</time></trkpt><trkpt lat="31.0915983" lon="-5.317195"><ele>1053.0</ele><time>2026-04-23T13:46:27.938Z</time></trkpt><trkpt lat="31.0917233" lon="-5.3173583"><ele>1053.0</ele><time>2026-04-23T13:46:28.939Z</time></trkpt><trkpt lat="31.0918283" lon="-5.31753"><ele>1053.0</ele><time>2026-04-23T13:46:29.939Z</time></trkpt><trkpt lat="31.0919067" lon="-5.3177217"><ele>1053.0</ele><time>2026-04-23T13:46:30.939Z</time></trkpt><trkpt lat="31.0919717" lon="-5.317915"><ele>1053.0</ele><time>2026-04-23T13:46:31.939Z</time></trkpt><trkpt lat="31.0920133" lon="-5.3181183"><ele>1053.0</ele><time>2026-04-23T13:46:32.939Z</time></trkpt><trkpt lat="31.092045" lon="-5.3183317"><ele>1056.0</ele><time>2026-04-23T13:46:33.938Z</time></trkpt><trkpt lat="31.0920767" lon="-5.3185483"><ele>1059.0</ele><time>2026-04-23T13:46:34.939Z</time></trkpt><trkpt lat="31.0921083" lon="-5.3187617"><ele>1062.0</ele><time>2026-04-23T13:46:35.939Z</time></trkpt><trkpt lat="31.0921433" lon="-5.31898"><ele>1066.0</ele><time>2026-04-23T13:46:36.938Z</time></trkpt><trkpt lat="31.0921783" lon="-5.3192017"><ele>1070.0</ele><time>2026-04-23T13:46:37.938Z</time></trkpt><trkpt lat="31.0922317" lon="-5.3194233"><ele>1074.0</ele><time>2026-04-23T13:46:38.939Z</time></trkpt><trkpt lat="31.0922983" lon="-5.3196267"><ele>1069.3333333333333</ele><time>2026-04-23T13:46:39.939Z</time></trkpt><trkpt lat="31.0923817" lon="-5.3198183"><ele>1064.6666666666665</ele><time>2026-04-23T13:46:40.939Z</time></trkpt><trkpt lat="31.092475" lon="-5.3199983"><ele>1060.0</ele><time>2026-04-23T13:46:41.939Z</time></trkpt><trkpt lat="31.092575" lon="-5.32018"><ele>1060.0</ele><time>2026-04-23T13:46:42.939Z</time></trkpt><trkpt lat="31.0926833" lon="-5.320365"><ele>1060.0</ele><time>2026-04-23T13:46:43.939Z</time></trkpt><trkpt lat="31.09279" lon="-5.3205533"><ele>1060.0</ele><time>2026-04-23T13:46:44.939Z</time></trkpt><trkpt lat="31.0928883" lon="-5.320745"><ele>1064.6666666666665</ele><time>2026-04-23T13:46:45.938Z</time></trkpt><trkpt lat="31.0929833" lon="-5.3209417"><ele>1069.3333333333333</ele><time>2026-04-23T13:46:46.939Z</time></trkpt><trkpt lat="31.0930733" lon="-5.3211467"><ele>1074.0</ele><time>2026-04-23T13:46:47.939Z</time></trkpt><trkpt lat="31.0931567" lon="-5.321355"><ele>1070.0</ele><time>2026-04-23T13:46:48.939Z</time></trkpt><trkpt lat="31.0932383" lon="-5.3215667"><ele>1066.0</ele><time>2026-04-23T13:46:49.939Z</time></trkpt><trkpt lat="31.0933083" lon="-5.321785"><ele>1062.0</ele><time>2026-04-23T13:46:50.939Z</time></trkpt><trkpt lat="31.0933683" lon="-5.3220083"><ele>1064.6666666666667</ele><time>2026-04-23T13:46:51.938Z</time></trkpt><trkpt lat="31.0934267" lon="-5.3222333"><ele>1067.3333333333335</ele><time>2026-04-23T13:46:52.938Z</time></trkpt><trkpt lat="31.0934783" lon="-5.322465"><ele>1070.0</ele><time>2026-04-23T13:46:53.939Z</time></trkpt><trkpt lat="31.09352" lon="-5.322695"><ele>1070.0</ele><time>2026-04-23T13:46:54.939Z</time></trkpt><trkpt lat="31.0935533" lon="-5.3229233"><ele>1070.0</ele><time>2026-04-23T13:46:55.938Z</time></trkpt><trkpt lat="31.0935783" lon="-5.3231583"><ele>1070.0</ele><time>2026-04-23T13:46:56.939Z</time></trkpt><trkpt lat="31.0935917" lon="-5.323395"><ele>1071.6666666666667</ele><time>2026-04-23T13:46:57.939Z</time></trkpt><trkpt lat="31.0935967" lon="-5.3236317"><ele>1073.3333333333333</ele><time>2026-04-23T13:46:58.939Z</time></trkpt><trkpt lat="31.0935983" lon="-5.3238617"><ele>1075.0</ele><time>2026-04-23T13:46:59.938Z</time></trkpt><trkpt lat="31.09359" lon="-5.3240767"><ele>1076.6666666666665</ele><time>2026-04-23T13:47:00.938Z</time></trkpt><trkpt lat="31.0935733" lon="-5.3242933"><ele>1078.3333333333333</ele><time>2026-04-23T13:47:01.939Z</time></trkpt><trkpt lat="31.0935633" lon="-5.3245"><ele>1080.0</ele><time>2026-04-23T13:47:02.938Z</time></trkpt><trkpt lat="31.0935467" lon="-5.324705"><ele>1080.3333333333333</ele><time>2026-04-23T13:47:03.938Z</time></trkpt><trkpt lat="31.09352" lon="-5.3249117"><ele>1080.6666666666665</ele><time>2026-04-23T13:47:04.939Z</time></trkpt><trkpt lat="31.093485" lon="-5.3251167"><ele>1081.0</ele><time>2026-04-23T13:47:05.939Z</time></trkpt><trkpt lat="31.0934417" lon="-5.3253217"><ele>1081.0</ele><time>2026-04-23T13:47:06.938Z</time></trkpt><trkpt lat="31.093395" lon="-5.3255283"><ele>1081.0</ele><time>2026-04-23T13:47:07.939Z</time></trkpt><trkpt lat="31.0933417" lon="-5.3257333"><ele>1081.0</ele><time>2026-04-23T13:47:08.939Z</time></trkpt><trkpt lat="31.09328" lon="-5.3259333"><ele>1091.6666666666665</ele><time>2026-04-23T13:47:09.939Z</time></trkpt><trkpt lat="31.0932217" lon="-5.3261367"><ele>1102.3333333333333</ele><time>2026-04-23T13:47:10.939Z</time></trkpt><trkpt lat="31.0931617" lon="-5.3263383"><ele>1113.0</ele><time>2026-04-23T13:47:11.939Z</time></trkpt><trkpt lat="31.0931017" lon="-5.3265417"><ele>1113.0</ele><time>2026-04-23T13:47:12.939Z</time></trkpt><trkpt lat="31.09304" lon="-5.3267483"><ele>1113.0</ele><time>2026-04-23T13:47:13.939Z</time></trkpt><trkpt lat="31.09298" lon="-5.3269533"><ele>1113.0</ele><time>2026-04-23T13:47:14.938Z</time></trkpt><trkpt lat="31.0929183" lon="-5.32716"><ele>1107.3333333333333</ele><time>2026-04-23T13:47:15.939Z</time></trkpt><trkpt lat="31.092855" lon="-5.327365"><ele>1101.6666666666665</ele><time>2026-04-23T13:47:16.939Z</time></trkpt><trkpt lat="31.0927883" lon="-5.3275817"><ele>1096.0</ele><time>2026-04-23T13:47:17.939Z</time></trkpt><trkpt lat="31.0927167" lon="-5.3277933"><ele>1096.0</ele><time>2026-04-23T13:47:18.939Z</time></trkpt><trkpt lat="31.09265" lon="-5.3280033"><ele>1096.0</ele><time>2026-04-23T13:47:19.939Z</time></trkpt><trkpt lat="31.0925933" lon="-5.32822"><ele>1096.0</ele><time>2026-04-23T13:47:20.938Z</time></trkpt><trkpt lat="31.092545" lon="-5.3284417"><ele>1089.6666666666665</ele><time>2026-04-23T13:47:21.939Z</time></trkpt><trkpt lat="31.0925033" lon="-5.3286633"><ele>1083.3333333333333</ele><time>2026-04-23T13:47:22.938Z</time></trkpt><trkpt lat="31.0924667" lon="-5.328885"><ele>1077.0</ele><time>2026-04-23T13:47:23.938Z</time></trkpt><trkpt lat="31.0924333" lon="-5.3291017"><ele>1093.6666666666667</ele><time>2026-04-23T13:47:24.939Z</time></trkpt><trkpt lat="31.0923967" lon="-5.32931"><ele>1110.3333333333335</ele><time>2026-04-23T13:47:25.939Z</time></trkpt><trkpt lat="31.092365" lon="-5.3295167"><ele>1127.0</ele><time>2026-04-23T13:47:26.939Z</time></trkpt><trkpt lat="31.0923317" lon="-5.3297167"><ele>1120.0</ele><time>2026-04-23T13:47:27.939Z</time></trkpt><trkpt lat="31.0922967" lon="-5.3299083"><ele>1113.0</ele><time>2026-04-23T13:47:28.939Z</time></trkpt><trkpt lat="31.0922667" lon="-5.330105"><ele>1106.0</ele><time>2026-04-23T13:47:29.939Z</time></trkpt><trkpt lat="31.092235" lon="-5.33031"><ele>1106.0</ele><time>2026-04-23T13:47:30.939Z</time></trkpt><trkpt lat="31.0922083" lon="-5.3305117"><ele>1106.0</ele><time>2026-04-23T13:47:31.938Z</time></trkpt><trkpt lat="31.0921817" lon="-5.3307167"><ele>1106.0</ele><time>2026-04-23T13:47:32.938Z</time></trkpt><trkpt lat="31.09215" lon="-5.3309233"><ele>1104.0</ele><time>2026-04-23T13:47:33.939Z</time></trkpt><trkpt lat="31.092115" lon="-5.3311267"><ele>1102.0</ele><time>2026-04-23T13:47:34.939Z</time></trkpt><trkpt lat="31.0920767" lon="-5.3313333"><ele>1100.0</ele><time>2026-04-23T13:47:35.939Z</time></trkpt><trkpt lat="31.0920467" lon="-5.3315517"><ele>1098.3333333333335</ele><time>2026-04-23T13:47:36.939Z</time></trkpt><trkpt lat="31.092015" lon="-5.3317717"><ele>1096.6666666666667</ele><time>2026-04-23T13:47:37.939Z</time></trkpt><trkpt lat="31.0919917" lon="-5.3319983"><ele>1095.0</ele><time>2026-04-23T13:47:38.938Z</time></trkpt><trkpt lat="31.0919733" lon="-5.3322283"><ele>1093.0</ele><time>2026-04-23T13:47:39.938Z</time></trkpt><trkpt lat="31.0919583" lon="-5.3324583"><ele>1091.0</ele><time>2026-04-23T13:47:40.939Z</time></trkpt><trkpt lat="31.0919467" lon="-5.3326867"><ele>1089.0</ele><time>2026-04-23T13:47:41.939Z</time></trkpt><trkpt lat="31.091935" lon="-5.3329183"><ele>1087.6666666666667</ele><time>2026-04-23T13:47:42.939Z</time></trkpt><trkpt lat="31.0919183" lon="-5.33315"><ele>1086.3333333333335</ele><time>2026-04-23T13:47:43.939Z</time></trkpt><trkpt lat="31.0919017" lon="-5.3333783"><ele>1085.0</ele><time>2026-04-23T13:47:44.939Z</time></trkpt><trkpt lat="31.0918783" lon="-5.3336067"><ele>1085.0</ele><time>2026-04-23T13:47:45.938Z</time></trkpt><trkpt lat="31.09185" lon="-5.3338333"><ele>1085.0</ele><time>2026-04-23T13:47:46.938Z</time></trkpt><trkpt lat="31.0918267" lon="-5.3340533"><ele>1085.0</ele><time>2026-04-23T13:47:47.938Z</time></trkpt><trkpt lat="31.091795" lon="-5.33427"><ele>1084.3333333333335</ele><time>2026-04-23T13:47:48.937Z</time></trkpt><trkpt lat="31.091765" lon="-5.33449"><ele>1083.6666666666667</ele><time>2026-04-23T13:47:49.938Z</time></trkpt><trkpt lat="31.0917317" lon="-5.334705"><ele>1083.0</ele><time>2026-04-23T13:47:50.938Z</time></trkpt><trkpt lat="31.0917033" lon="-5.3349217"><ele>1082.6666666666667</ele><time>2026-04-23T13:47:51.938Z</time></trkpt><trkpt lat="31.091675" lon="-5.3351417"><ele>1082.3333333333335</ele><time>2026-04-23T13:47:52.937Z</time></trkpt><trkpt lat="31.0916383" lon="-5.33536"><ele>1082.0</ele><time>2026-04-23T13:47:53.938Z</time></trkpt><trkpt lat="31.0916" lon="-5.335575"><ele>1094.6666666666667</ele><time>2026-04-23T13:47:54.938Z</time></trkpt><trkpt lat="31.0915683" lon="-5.3357867"><ele>1107.3333333333333</ele><time>2026-04-23T13:47:55.938Z</time></trkpt><trkpt lat="31.091535" lon="-5.336"><ele>1120.0</ele><time>2026-04-23T13:47:56.938Z</time></trkpt><trkpt lat="31.0915067" lon="-5.3362167"><ele>1116.6666666666665</ele><time>2026-04-23T13:47:57.938Z</time></trkpt><trkpt lat="31.091475" lon="-5.33643"><ele>1113.3333333333333</ele><time>2026-04-23T13:47:58.938Z</time></trkpt><trkpt lat="31.0914433" lon="-5.3366433"><ele>1110.0</ele><time>2026-04-23T13:47:59.938Z</time></trkpt><trkpt lat="31.09141" lon="-5.33686"><ele>1110.0</ele><time>2026-04-23T13:48:00.938Z</time></trkpt><trkpt lat="31.0913867" lon="-5.3370767"><ele>1110.0</ele><time>2026-04-23T13:48:01.938Z</time></trkpt><trkpt lat="31.0913617" lon="-5.3372917"><ele>1110.0</ele><time>2026-04-23T13:48:02.938Z</time></trkpt><trkpt lat="31.0913417" lon="-5.3375067"><ele>1107.3333333333333</ele><time>2026-04-23T13:48:03.938Z</time></trkpt><trkpt lat="31.0913233" lon="-5.3377217"><ele>1104.6666666666665</ele><time>2026-04-23T13:48:04.938Z</time></trkpt><trkpt lat="31.0913083" lon="-5.3379383"><ele>1102.0</ele><time>2026-04-23T13:48:05.938Z</time></trkpt><trkpt lat="31.0912867" lon="-5.338155"><ele>1099.3333333333333</ele><time>2026-04-23T13:48:06.937Z</time></trkpt><trkpt lat="31.0912717" lon="-5.338375"><ele>1096.6666666666667</ele><time>2026-04-23T13:48:07.937Z</time></trkpt><trkpt lat="31.09126" lon="-5.3385933"><ele>1094.0</ele><time>2026-04-23T13:48:08.937Z</time></trkpt><trkpt lat="31.0912433" lon="-5.3388167"><ele>1093.3333333333335</ele><time>2026-04-23T13:48:09.938Z</time></trkpt><trkpt lat="31.0912317" lon="-5.339035"><ele>1092.6666666666667</ele><time>2026-04-23T13:48:10.938Z</time></trkpt><trkpt lat="31.0912267" lon="-5.3392583"><ele>1092.0</ele><time>2026-04-23T13:48:11.937Z</time></trkpt><trkpt lat="31.0912183" lon="-5.33948"><ele>1092.0</ele><time>2026-04-23T13:48:12.937Z</time></trkpt><trkpt lat="31.0912083" lon="-5.3396983"><ele>1092.0</ele><time>2026-04-23T13:48:13.938Z</time></trkpt><trkpt lat="31.091195" lon="-5.339915"><ele>1092.0</ele><time>2026-04-23T13:48:14.938Z</time></trkpt><trkpt lat="31.09118" lon="-5.3401333"><ele>1092.0</ele><time>2026-04-23T13:48:15.938Z</time></trkpt><trkpt lat="31.0911717" lon="-5.34035"><ele>1092.0</ele><time>2026-04-23T13:48:16.938Z</time></trkpt><trkpt lat="31.0911583" lon="-5.3405683"><ele>1092.0</ele><time>2026-04-23T13:48:17.937Z</time></trkpt><trkpt lat="31.0911467" lon="-5.3407933"><ele>1092.0</ele><time>2026-04-23T13:48:18.938Z</time></trkpt><trkpt lat="31.09114" lon="-5.341015"><ele>1092.0</ele><time>2026-04-23T13:48:19.938Z</time></trkpt><trkpt lat="31.0911267" lon="-5.341235"><ele>1092.0</ele><time>2026-04-23T13:48:20.938Z</time></trkpt><trkpt lat="31.0911133" lon="-5.3414617"><ele>1091.3333333333333</ele><time>2026-04-23T13:48:21.938Z</time></trkpt><trkpt lat="31.0911" lon="-5.3416833"><ele>1090.6666666666665</ele><time>2026-04-23T13:48:22.938Z</time></trkpt><trkpt lat="31.09109" lon="-5.3419083"><ele>1090.0</ele><time>2026-04-23T13:48:23.937Z</time></trkpt><trkpt lat="31.09108" lon="-5.34214"><ele>1088.6666666666665</ele><time>2026-04-23T13:48:24.937Z</time></trkpt><trkpt lat="31.0910767" lon="-5.34237"><ele>1087.3333333333333</ele><time>2026-04-23T13:48:25.938Z</time></trkpt><trkpt lat="31.0910833" lon="-5.3425983"><ele>1086.0</ele><time>2026-04-23T13:48:26.938Z</time></trkpt><trkpt lat="31.0911067" lon="-5.342825"><ele>1087.0</ele><time>2026-04-23T13:48:27.937Z</time></trkpt><trkpt lat="31.0911367" lon="-5.3430533"><ele>1088.0</ele><time>2026-04-23T13:48:28.938Z</time></trkpt><trkpt lat="31.0911717" lon="-5.34328"><ele>1089.0</ele><time>2026-04-23T13:48:29.938Z</time></trkpt><trkpt lat="31.0912083" lon="-5.3435067"><ele>1089.0</ele><time>2026-04-23T13:48:30.938Z</time></trkpt><trkpt lat="31.0912433" lon="-5.3437367"><ele>1089.0</ele><time>2026-04-23T13:48:31.938Z</time></trkpt><trkpt lat="31.091285" lon="-5.3439633"><ele>1089.0</ele><time>2026-04-23T13:48:32.938Z</time></trkpt><trkpt lat="31.09132" lon="-5.3441917"><ele>1090.3333333333333</ele><time>2026-04-23T13:48:33.938Z</time></trkpt><trkpt lat="31.0913617" lon="-5.3444233"><ele>1091.6666666666665</ele><time>2026-04-23T13:48:34.938Z</time></trkpt><trkpt lat="31.0914" lon="-5.3446467"><ele>1093.0</ele><time>2026-04-23T13:48:35.938Z</time></trkpt><trkpt lat="31.0914467" lon="-5.34487"><ele>1094.0</ele><time>2026-04-23T13:48:36.938Z</time></trkpt><trkpt lat="31.0914967" lon="-5.3450933"><ele>1095.0</ele><time>2026-04-23T13:48:37.938Z</time></trkpt><trkpt lat="31.0915567" lon="-5.345315"><ele>1096.0</ele><time>2026-04-23T13:48:38.938Z</time></trkpt><trkpt lat="31.0916267" lon="-5.345535"><ele>1092.3333333333333</ele><time>2026-04-23T13:48:39.938Z</time></trkpt><trkpt lat="31.0917067" lon="-5.3457483"><ele>1088.6666666666667</ele><time>2026-04-23T13:48:40.938Z</time></trkpt><trkpt lat="31.09179" lon="-5.3459583"><ele>1085.0</ele><time>2026-04-23T13:48:41.938Z</time></trkpt><trkpt lat="31.09187" lon="-5.346165"><ele>1086.3333333333335</ele><time>2026-04-23T13:48:42.938Z</time></trkpt><trkpt lat="31.0919383" lon="-5.3463783"><ele>1087.6666666666667</ele><time>2026-04-23T13:48:43.938Z</time></trkpt><trkpt lat="31.0919967" lon="-5.3465967"><ele>1089.0</ele><time>2026-04-23T13:48:44.937Z</time></trkpt><trkpt lat="31.0920233" lon="-5.3468133"><ele>1089.0</ele><time>2026-04-23T13:48:45.938Z</time></trkpt><trkpt lat="31.0920217" lon="-5.347025"><ele>1089.0</ele><time>2026-04-23T13:48:46.938Z</time></trkpt><trkpt lat="31.0920017" lon="-5.3472317"><ele>1089.0</ele><time>2026-04-23T13:48:47.938Z</time></trkpt><trkpt lat="31.0919567" lon="-5.34744"><ele>1090.0</ele><time>2026-04-23T13:48:48.938Z</time></trkpt><trkpt lat="31.0918983" lon="-5.3476383"><ele>1091.0</ele><time>2026-04-23T13:48:49.937Z</time></trkpt><trkpt lat="31.0918333" lon="-5.3478267"><ele>1092.0</ele><time>2026-04-23T13:48:50.938Z</time></trkpt><trkpt lat="31.0917717" lon="-5.3480233"><ele>1094.0</ele><time>2026-04-23T13:48:51.938Z</time></trkpt><trkpt lat="31.091725" lon="-5.3482217"><ele>1096.0</ele><time>2026-04-23T13:48:52.937Z</time></trkpt><trkpt lat="31.0916933" lon="-5.3484283"><ele>1098.0</ele><time>2026-04-23T13:48:53.938Z</time></trkpt><trkpt lat="31.0916833" lon="-5.3486383"><ele>1098.0</ele><time>2026-04-23T13:48:54.938Z</time></trkpt><trkpt lat="31.09169" lon="-5.34885"><ele>1098.0</ele><time>2026-04-23T13:48:55.938Z</time></trkpt><trkpt lat="31.0917067" lon="-5.349065"><ele>1098.0</ele><time>2026-04-23T13:48:56.938Z</time></trkpt><trkpt lat="31.09173" lon="-5.3492717"><ele>1098.6666666666667</ele><time>2026-04-23T13:48:57.938Z</time></trkpt><trkpt lat="31.0917667" lon="-5.349485"><ele>1099.3333333333335</ele><time>2026-04-23T13:48:58.938Z</time></trkpt><trkpt lat="31.0918067" lon="-5.3497033"><ele>1100.0</ele><time>2026-04-23T13:48:59.938Z</time></trkpt><trkpt lat="31.0918617" lon="-5.3499117"><ele>1101.0</ele><time>2026-04-23T13:49:00.938Z</time></trkpt><trkpt lat="31.0919417" lon="-5.35012"><ele>1102.0</ele><time>2026-04-23T13:49:01.938Z</time></trkpt><trkpt lat="31.0920333" lon="-5.3503217"><ele>1103.0</ele><time>2026-04-23T13:49:02.938Z</time></trkpt><trkpt lat="31.0921367" lon="-5.350525"><ele>1102.6666666666667</ele><time>2026-04-23T13:49:03.938Z</time></trkpt><trkpt lat="31.0922383" lon="-5.3507267"><ele>1102.3333333333333</ele><time>2026-04-23T13:49:04.938Z</time></trkpt><trkpt lat="31.0923417" lon="-5.35093"><ele>1102.0</ele><time>2026-04-23T13:49:05.938Z</time></trkpt><trkpt lat="31.09245" lon="-5.3511283"><ele>1102.0</ele><time>2026-04-23T13:49:06.937Z</time></trkpt><trkpt lat="31.0925617" lon="-5.3513283"><ele>1102.0</ele><time>2026-04-23T13:49:07.937Z</time></trkpt><trkpt lat="31.0926633" lon="-5.3515183"><ele>1102.0</ele><time>2026-04-23T13:49:08.938Z</time></trkpt><trkpt lat="31.0927667" lon="-5.351705"><ele>1102.3333333333333</ele><time>2026-04-23T13:49:09.937Z</time></trkpt><trkpt lat="31.0928717" lon="-5.35189"><ele>1102.6666666666667</ele><time>2026-04-23T13:49:10.938Z</time></trkpt><trkpt lat="31.0929717" lon="-5.3520767"><ele>1103.0</ele><time>2026-04-23T13:49:11.938Z</time></trkpt><trkpt lat="31.0930683" lon="-5.352265"><ele>1102.6666666666667</ele><time>2026-04-23T13:49:12.937Z</time></trkpt><trkpt lat="31.0931633" lon="-5.3524533"><ele>1102.3333333333333</ele><time>2026-04-23T13:49:13.938Z</time></trkpt><trkpt lat="31.0932667" lon="-5.35264"><ele>1102.0</ele><time>2026-04-23T13:49:14.938Z</time></trkpt><trkpt lat="31.0933717" lon="-5.35283"><ele>1102.0</ele><time>2026-04-23T13:49:15.938Z</time></trkpt><trkpt lat="31.0934733" lon="-5.3530217"><ele>1102.0</ele><time>2026-04-23T13:49:16.938Z</time></trkpt><trkpt lat="31.09357" lon="-5.3532167"><ele>1102.0</ele><time>2026-04-23T13:49:17.938Z</time></trkpt><trkpt lat="31.0936633" lon="-5.35341"><ele>1102.6666666666665</ele><time>2026-04-23T13:49:18.938Z</time></trkpt><trkpt lat="31.09376" lon="-5.3536017"><ele>1103.3333333333333</ele><time>2026-04-23T13:49:19.938Z</time></trkpt><trkpt lat="31.0938617" lon="-5.3537933"><ele>1104.0</ele><time>2026-04-23T13:49:20.938Z</time></trkpt><trkpt lat="31.0939633" lon="-5.3539883"><ele>1103.6666666666667</ele><time>2026-04-23T13:49:21.938Z</time></trkpt><trkpt lat="31.0940683" lon="-5.3541817"><ele>1103.3333333333335</ele><time>2026-04-23T13:49:22.937Z</time></trkpt><trkpt lat="31.0941667" lon="-5.3543767"><ele>1103.0</ele><time>2026-04-23T13:49:23.937Z</time></trkpt><trkpt lat="31.0942633" lon="-5.3545783"><ele>1103.0</ele><time>2026-04-23T13:49:24.938Z</time></trkpt><trkpt lat="31.094355" lon="-5.3547867"><ele>1103.0</ele><time>2026-04-23T13:49:25.938Z</time></trkpt><trkpt lat="31.0944367" lon="-5.3549983"><ele>1103.0</ele><time>2026-04-23T13:49:26.937Z</time></trkpt><trkpt lat="31.0945217" lon="-5.3552083"><ele>1103.0</ele><time>2026-04-23T13:49:27.937Z</time></trkpt><trkpt lat="31.094605" lon="-5.35542"><ele>1103.0</ele><time>2026-04-23T13:49:28.938Z</time></trkpt><trkpt lat="31.0946917" lon="-5.3556317"><ele>1103.0</ele><time>2026-04-23T13:49:29.938Z</time></trkpt><trkpt lat="31.0947667" lon="-5.355845"><ele>1103.3333333333335</ele><time>2026-04-23T13:49:30.938Z</time></trkpt><trkpt lat="31.0948433" lon="-5.3560617"><ele>1103.6666666666667</ele><time>2026-04-23T13:49:31.938Z</time></trkpt><trkpt lat="31.0949133" lon="-5.3562767"><ele>1104.0</ele><time>2026-04-23T13:49:32.938Z</time></trkpt><trkpt lat="31.09497" lon="-5.3564917"><ele>1102.3333333333333</ele><time>2026-04-23T13:49:33.937Z</time></trkpt><trkpt lat="31.0950067" lon="-5.3567117"><ele>1100.6666666666665</ele><time>2026-04-23T13:49:34.938Z</time></trkpt><trkpt lat="31.0950217" lon="-5.35694"><ele>1099.0</ele><time>2026-04-23T13:49:35.937Z</time></trkpt><trkpt lat="31.09501" lon="-5.3571667"><ele>1100.0</ele><time>2026-04-23T13:49:36.938Z</time></trkpt><trkpt lat="31.09499" lon="-5.3573883"><ele>1101.0</ele><time>2026-04-23T13:49:37.938Z</time></trkpt><trkpt lat="31.0949683" lon="-5.3576117"><ele>1102.0</ele><time>2026-04-23T13:49:38.938Z</time></trkpt><trkpt lat="31.0949533" lon="-5.357835"><ele>1102.0</ele><time>2026-04-23T13:49:39.938Z</time></trkpt><trkpt lat="31.09496" lon="-5.358055"><ele>1102.0</ele><time>2026-04-23T13:49:40.938Z</time></trkpt><trkpt lat="31.0949917" lon="-5.3582717"><ele>1102.0</ele><time>2026-04-23T13:49:41.938Z</time></trkpt><trkpt lat="31.0950333" lon="-5.358485"><ele>1102.0</ele><time>2026-04-23T13:49:42.937Z</time></trkpt><trkpt lat="31.0950817" lon="-5.3587017"><ele>1102.0</ele><time>2026-04-23T13:49:43.938Z</time></trkpt><trkpt lat="31.0951283" lon="-5.3589233"><ele>1102.0</ele><time>2026-04-23T13:49:44.938Z</time></trkpt><trkpt lat="31.0951833" lon="-5.3591517"><ele>1102.0</ele><time>2026-04-23T13:49:45.938Z</time></trkpt><trkpt lat="31.0952383" lon="-5.35938"><ele>1102.0</ele><time>2026-04-23T13:49:46.937Z</time></trkpt><trkpt lat="31.0952983" lon="-5.3596083"><ele>1102.0</ele><time>2026-04-23T13:49:47.938Z</time></trkpt><trkpt lat="31.095355" lon="-5.3598383"><ele>1103.6666666666665</ele><time>2026-04-23T13:49:48.938Z</time></trkpt><trkpt lat="31.095405" lon="-5.3600617"><ele>1105.3333333333333</ele><time>2026-04-23T13:49:49.937Z</time></trkpt><trkpt lat="31.0954583" lon="-5.3602783"><ele>1107.0</ele><time>2026-04-23T13:49:50.938Z</time></trkpt><trkpt lat="31.095505" lon="-5.3604867"><ele>1108.6666666666667</ele><time>2026-04-23T13:49:51.938Z</time></trkpt><trkpt lat="31.095555" lon="-5.3607"><ele>1110.3333333333335</ele><time>2026-04-23T13:49:52.937Z</time></trkpt><trkpt lat="31.095615" lon="-5.3609133"><ele>1112.0</ele><time>2026-04-23T13:49:53.937Z</time></trkpt><trkpt lat="31.0956683" lon="-5.3611233"><ele>1112.0</ele><time>2026-04-23T13:49:54.938Z</time></trkpt><trkpt lat="31.09574" lon="-5.36133"><ele>1112.0</ele><time>2026-04-23T13:49:55.937Z</time></trkpt><trkpt lat="31.0958333" lon="-5.36153"><ele>1112.0</ele><time>2026-04-23T13:49:56.938Z</time></trkpt><trkpt lat="31.0959317" lon="-5.3617233"><ele>1110.6666666666667</ele><time>2026-04-23T13:49:57.937Z</time></trkpt><trkpt lat="31.096035" lon="-5.3619133"><ele>1109.3333333333333</ele><time>2026-04-23T13:49:58.938Z</time></trkpt><trkpt lat="31.0961467" lon="-5.3621017"><ele>1108.0</ele><time>2026-04-23T13:49:59.938Z</time></trkpt><trkpt lat="31.0962633" lon="-5.36229"><ele>1108.3333333333333</ele><time>2026-04-23T13:50:00.938Z</time></trkpt><trkpt lat="31.09639" lon="-5.3624717"><ele>1108.6666666666667</ele><time>2026-04-23T13:50:01.938Z</time></trkpt><trkpt lat="31.0965367" lon="-5.3626367"><ele>1109.0</ele><time>2026-04-23T13:50:02.938Z</time></trkpt><trkpt lat="31.0966933" lon="-5.362795"><ele>1109.0</ele><time>2026-04-23T13:50:03.938Z</time></trkpt><trkpt lat="31.0968533" lon="-5.3629517"><ele>1109.0</ele><time>2026-04-23T13:50:04.938Z</time></trkpt><trkpt lat="31.0970133" lon="-5.3631033"><ele>1109.0</ele><time>2026-04-23T13:50:05.938Z</time></trkpt><trkpt lat="31.0971683" lon="-5.3632517"><ele>1108.6666666666667</ele><time>2026-04-23T13:50:06.938Z</time></trkpt><trkpt lat="31.0973267" lon="-5.363395"><ele>1108.3333333333333</ele><time>2026-04-23T13:50:07.938Z</time></trkpt><trkpt lat="31.097485" lon="-5.3635367"><ele>1108.0</ele><time>2026-04-23T13:50:08.937Z</time></trkpt><trkpt lat="31.0976483" lon="-5.3636733"><ele>1108.0</ele><time>2026-04-23T13:50:09.937Z</time></trkpt><trkpt lat="31.0978133" lon="-5.3638083"><ele>1108.0</ele><time>2026-04-23T13:50:10.938Z</time></trkpt><trkpt lat="31.097975" lon="-5.3639417"><ele>1108.0</ele><time>2026-04-23T13:50:11.937Z</time></trkpt><trkpt lat="31.09814" lon="-5.3640733"><ele>1109.3333333333333</ele><time>2026-04-23T13:50:12.937Z</time></trkpt><trkpt lat="31.0983067" lon="-5.3642067"><ele>1110.6666666666667</ele><time>2026-04-23T13:50:13.938Z</time></trkpt><trkpt lat="31.0984767" lon="-5.3643417"><ele>1112.0</ele><time>2026-04-23T13:50:14.938Z</time></trkpt><trkpt lat="31.0986367" lon="-5.3644783"><ele>1112.0</ele><time>2026-04-23T13:50:15.938Z</time></trkpt><trkpt lat="31.0987983" lon="-5.36461"><ele>1112.0</ele><time>2026-04-23T13:50:16.938Z</time></trkpt><trkpt lat="31.09896" lon="-5.3647417"><ele>1112.0</ele><time>2026-04-23T13:50:17.937Z</time></trkpt><trkpt lat="31.0991217" lon="-5.36488"><ele>1112.6666666666667</ele><time>2026-04-23T13:50:18.938Z</time></trkpt><trkpt lat="31.0992783" lon="-5.365015"><ele>1113.3333333333333</ele><time>2026-04-23T13:50:19.938Z</time></trkpt><trkpt lat="31.0994283" lon="-5.3651567"><ele>1114.0</ele><time>2026-04-23T13:50:20.937Z</time></trkpt><trkpt lat="31.0995783" lon="-5.3653033"><ele>1114.0</ele><time>2026-04-23T13:50:21.938Z</time></trkpt><trkpt lat="31.0997267" lon="-5.3654517"><ele>1114.0</ele><time>2026-04-23T13:50:22.938Z</time></trkpt><trkpt lat="31.0998717" lon="-5.3655967"><ele>1114.0</ele><time>2026-04-23T13:50:23.938Z</time></trkpt><trkpt lat="31.1000083" lon="-5.365745"><ele>1114.3333333333333</ele><time>2026-04-23T13:50:24.938Z</time></trkpt><trkpt lat="31.10015" lon="-5.3658867"><ele>1114.6666666666667</ele><time>2026-04-23T13:50:25.938Z</time></trkpt><trkpt lat="31.1002817" lon="-5.36604"><ele>1115.0</ele><time>2026-04-23T13:50:26.938Z</time></trkpt><trkpt lat="31.100395" lon="-5.366205"><ele>1117.0</ele><time>2026-04-23T13:50:27.938Z</time></trkpt><trkpt lat="31.1005017" lon="-5.3663767"><ele>1119.0</ele><time>2026-04-23T13:50:28.938Z</time></trkpt><trkpt lat="31.1005983" lon="-5.3665467"><ele>1121.0</ele><time>2026-04-23T13:50:29.938Z</time></trkpt><trkpt lat="31.10067" lon="-5.3667167"><ele>1121.0</ele><time>2026-04-23T13:50:30.938Z</time></trkpt><trkpt lat="31.1007167" lon="-5.3668883"><ele>1121.0</ele><time>2026-04-23T13:50:31.938Z</time></trkpt><trkpt lat="31.1007533" lon="-5.3670533"><ele>1121.0</ele><time>2026-04-23T13:50:32.938Z</time></trkpt><trkpt lat="31.10078" lon="-5.3672133"><ele>1121.0</ele><time>2026-04-23T13:50:33.938Z</time></trkpt><trkpt lat="31.1008183" lon="-5.3673617"><ele>1119.75</ele><time>2026-04-23T13:50:34.938Z</time></trkpt><trkpt lat="31.10088" lon="-5.3675"><ele>1118.5</ele><time>2026-04-23T13:50:35.938Z</time></trkpt><trkpt lat="31.1009633" lon="-5.367625"><ele>1117.25</ele><time>2026-04-23T13:50:36.938Z</time></trkpt><trkpt lat="31.1010617" lon="-5.3677333"><ele>1116.0</ele><time>2026-04-23T13:50:37.937Z</time></trkpt><trkpt lat="31.1011617" lon="-5.367835"><ele>1116.0</ele><time>2026-04-23T13:50:38.938Z</time></trkpt><trkpt lat="31.1012583" lon="-5.3679333"><ele>1116.0</ele><time>2026-04-23T13:50:39.938Z</time></trkpt><trkpt lat="31.1013583" lon="-5.3680383"><ele>1116.0</ele><time>2026-04-23T13:50:40.938Z</time></trkpt><trkpt lat="31.1014617" lon="-5.3681483"><ele>1116.0</ele><time>2026-04-23T13:50:41.938Z</time></trkpt><trkpt lat="31.1015717" lon="-5.3682667"><ele>1116.3333333333333</ele><time>2026-04-23T13:50:42.938Z</time></trkpt><trkpt lat="31.101685" lon="-5.3683983"><ele>1116.6666666666665</ele><time>2026-04-23T13:50:43.938Z</time></trkpt><trkpt lat="31.1018067" lon="-5.3685333"><ele>1117.0</ele><time>2026-04-23T13:50:44.938Z</time></trkpt><trkpt lat="31.1019333" lon="-5.36868"><ele>1117.0</ele><time>2026-04-23T13:50:45.937Z</time></trkpt><trkpt lat="31.1020833" lon="-5.3688033"><ele>1117.0</ele><time>2026-04-23T13:50:46.937Z</time></trkpt><trkpt lat="31.1022417" lon="-5.3689067"><ele>1117.0</ele><time>2026-04-23T13:50:47.937Z</time></trkpt><trkpt lat="31.1024117" lon="-5.369005"><ele>1118.3333333333333</ele><time>2026-04-23T13:50:48.938Z</time></trkpt><trkpt lat="31.1025917" lon="-5.3690883"><ele>1119.6666666666667</ele><time>2026-04-23T13:50:49.938Z</time></trkpt><trkpt lat="31.1027767" lon="-5.3691583"><ele>1121.0</ele><time>2026-04-23T13:50:50.938Z</time></trkpt><trkpt lat="31.1029567" lon="-5.3692233"><ele>1121.0</ele><time>2026-04-23T13:50:51.938Z</time></trkpt><trkpt lat="31.1031283" lon="-5.3692733"><ele>1121.0</ele><time>2026-04-23T13:50:52.938Z</time></trkpt><trkpt lat="31.1033" lon="-5.3693033"><ele>1121.0</ele><time>2026-04-23T13:50:53.937Z</time></trkpt><trkpt lat="31.1034667" lon="-5.3693117"><ele>1121.0</ele><time>2026-04-23T13:50:54.938Z</time></trkpt><trkpt lat="31.10363" lon="-5.3692983"><ele>1121.0</ele><time>2026-04-23T13:50:55.937Z</time></trkpt><trkpt lat="31.103805" lon="-5.3692833"><ele>1121.0</ele><time>2026-04-23T13:50:56.938Z</time></trkpt><trkpt lat="31.1039867" lon="-5.3692767"><ele>1120.3333333333335</ele><time>2026-04-23T13:50:57.938Z</time></trkpt><trkpt lat="31.104175" lon="-5.369285"><ele>1119.6666666666667</ele><time>2026-04-23T13:50:58.938Z</time></trkpt><trkpt lat="31.1043517" lon="-5.369325"><ele>1119.0</ele><time>2026-04-23T13:50:59.938Z</time></trkpt><trkpt lat="31.1045317" lon="-5.3693817"><ele>1119.0</ele><time>2026-04-23T13:51:00.938Z</time></trkpt><trkpt lat="31.1046983" lon="-5.369465"><ele>1119.0</ele><time>2026-04-23T13:51:01.938Z</time></trkpt><trkpt lat="31.104865" lon="-5.3695583"><ele>1119.0</ele><time>2026-04-23T13:51:02.938Z</time></trkpt><trkpt lat="31.10504" lon="-5.3696533"><ele>1118.6666666666667</ele><time>2026-04-23T13:51:03.938Z</time></trkpt><trkpt lat="31.1052183" lon="-5.3697417"><ele>1118.3333333333335</ele><time>2026-04-23T13:51:04.938Z</time></trkpt><trkpt lat="31.105415" lon="-5.3698233"><ele>1118.0</ele><time>2026-04-23T13:51:05.937Z</time></trkpt><trkpt lat="31.1056133" lon="-5.3699017"><ele>1119.6666666666667</ele><time>2026-04-23T13:51:06.938Z</time></trkpt><trkpt lat="31.1058167" lon="-5.369965"><ele>1121.3333333333333</ele><time>2026-04-23T13:51:07.938Z</time></trkpt><trkpt lat="31.1060283" lon="-5.3700267"><ele>1123.0</ele><time>2026-04-23T13:51:08.938Z</time></trkpt><trkpt lat="31.1062417" lon="-5.3700933"><ele>1123.0</ele><time>2026-04-23T13:51:09.938Z</time></trkpt><trkpt lat="31.1064483" lon="-5.3701683"><ele>1123.0</ele><time>2026-04-23T13:51:10.938Z</time></trkpt><trkpt lat="31.10665" lon="-5.3702533"><ele>1123.0</ele><time>2026-04-23T13:51:11.938Z</time></trkpt><trkpt lat="31.1068567" lon="-5.370345"><ele>1122.3333333333333</ele><time>2026-04-23T13:51:12.938Z</time></trkpt><trkpt lat="31.1070567" lon="-5.37044"><ele>1121.6666666666667</ele><time>2026-04-23T13:51:13.938Z</time></trkpt><trkpt lat="31.1072467" lon="-5.37053"><ele>1121.0</ele><time>2026-04-23T13:51:14.937Z</time></trkpt><trkpt lat="31.1074317" lon="-5.3706133"><ele>1123.6666666666667</ele><time>2026-04-23T13:51:15.938Z</time></trkpt><trkpt lat="31.107605" lon="-5.3707033"><ele>1126.3333333333333</ele><time>2026-04-23T13:51:16.938Z</time></trkpt><trkpt lat="31.1077683" lon="-5.370805"><ele>1129.0</ele><time>2026-04-23T13:51:17.937Z</time></trkpt><trkpt lat="31.10792" lon="-5.370925"><ele>1129.0</ele><time>2026-04-23T13:51:18.938Z</time></trkpt><trkpt lat="31.108075" lon="-5.3710667"><ele>1129.0</ele><time>2026-04-23T13:51:19.938Z</time></trkpt><trkpt lat="31.1082233" lon="-5.37123"><ele>1129.0</ele><time>2026-04-23T13:51:20.937Z</time></trkpt><trkpt lat="31.10835" lon="-5.371405"><ele>1131.0</ele><time>2026-04-23T13:51:21.938Z</time></trkpt><trkpt lat="31.108445" lon="-5.371585"><ele>1133.0</ele><time>2026-04-23T13:51:22.938Z</time></trkpt><trkpt lat="31.108515" lon="-5.3717733"><ele>1135.0</ele><time>2026-04-23T13:51:23.938Z</time></trkpt><trkpt lat="31.1085617" lon="-5.3719633"><ele>1135.0</ele><time>2026-04-23T13:51:24.938Z</time></trkpt><trkpt lat="31.108585" lon="-5.3721533"><ele>1135.0</ele><time>2026-04-23T13:51:25.938Z</time></trkpt><trkpt lat="31.1085817" lon="-5.372345"><ele>1135.0</ele><time>2026-04-23T13:51:26.937Z</time></trkpt><trkpt lat="31.1085667" lon="-5.3725283"><ele>1136.75</ele><time>2026-04-23T13:51:27.938Z</time></trkpt><trkpt lat="31.108565" lon="-5.372705"><ele>1138.5</ele><time>2026-04-23T13:51:28.938Z</time></trkpt><trkpt lat="31.1085817" lon="-5.372875"><ele>1140.25</ele><time>2026-04-23T13:51:29.938Z</time></trkpt><trkpt lat="31.108605" lon="-5.3730433"><ele>1142.0</ele><time>2026-04-23T13:51:30.938Z</time></trkpt><trkpt lat="31.1086683" lon="-5.373185"><ele>1142.3333333333335</ele><time>2026-04-23T13:51:31.937Z</time></trkpt><trkpt lat="31.1087617" lon="-5.3733133"><ele>1142.6666666666667</ele><time>2026-04-23T13:51:32.938Z</time></trkpt><trkpt lat="31.1088933" lon="-5.3734133"><ele>1143.0</ele><time>2026-04-23T13:51:33.938Z</time></trkpt><trkpt lat="31.1090283" lon="-5.373505"><ele>1137.6666666666667</ele><time>2026-04-23T13:51:34.938Z</time></trkpt><trkpt lat="31.1091817" lon="-5.3735933"><ele>1132.3333333333335</ele><time>2026-04-23T13:51:35.938Z</time></trkpt><trkpt lat="31.1093433" lon="-5.37369"><ele>1127.0</ele><time>2026-04-23T13:51:36.938Z</time></trkpt><trkpt lat="31.109515" lon="-5.3737867"><ele>1129.0</ele><time>2026-04-23T13:51:37.938Z</time></trkpt><trkpt lat="31.1096883" lon="-5.3738983"><ele>1131.0</ele><time>2026-04-23T13:51:38.938Z</time></trkpt><trkpt lat="31.1098583" lon="-5.3740117"><ele>1133.0</ele><time>2026-04-23T13:51:39.937Z</time></trkpt><trkpt lat="31.11002" lon="-5.3741133"><ele>1133.0</ele><time>2026-04-23T13:51:40.938Z</time></trkpt><trkpt lat="31.1101717" lon="-5.3742017"><ele>1133.0</ele><time>2026-04-23T13:51:41.938Z</time></trkpt><trkpt lat="31.11034" lon="-5.37427"><ele>1133.0</ele><time>2026-04-23T13:51:42.938Z</time></trkpt><trkpt lat="31.110515" lon="-5.374325"><ele>1133.0</ele><time>2026-04-23T13:51:43.938Z</time></trkpt><trkpt lat="31.1107" lon="-5.3743667"><ele>1133.0</ele><time>2026-04-23T13:51:44.937Z</time></trkpt><trkpt lat="31.1108883" lon="-5.3744017"><ele>1133.0</ele><time>2026-04-23T13:51:45.937Z</time></trkpt><trkpt lat="31.1110767" lon="-5.3744383"><ele>1132.3333333333335</ele><time>2026-04-23T13:51:46.937Z</time></trkpt><trkpt lat="31.1112733" lon="-5.374465"><ele>1131.6666666666667</ele><time>2026-04-23T13:51:47.938Z</time></trkpt><trkpt lat="31.11147" lon="-5.3745"><ele>1131.0</ele><time>2026-04-23T13:51:48.938Z</time></trkpt><trkpt lat="31.1116717" lon="-5.3745383"><ele>1131.0</ele><time>2026-04-23T13:51:49.938Z</time></trkpt><trkpt lat="31.1118717" lon="-5.374585"><ele>1131.0</ele><time>2026-04-23T13:51:50.938Z</time></trkpt><trkpt lat="31.1120783" lon="-5.3746283"><ele>1131.0</ele><time>2026-04-23T13:51:51.938Z</time></trkpt><trkpt lat="31.11227" lon="-5.3746817"><ele>1138.6666666666667</ele><time>2026-04-23T13:51:52.938Z</time></trkpt><trkpt lat="31.11245" lon="-5.37473"><ele>1146.3333333333335</ele><time>2026-04-23T13:51:53.938Z</time></trkpt><trkpt lat="31.112635" lon="-5.3747683"><ele>1154.0</ele><time>2026-04-23T13:51:54.938Z</time></trkpt><trkpt lat="31.1128283" lon="-5.37479"><ele>1154.0</ele><time>2026-04-23T13:51:55.938Z</time></trkpt><trkpt lat="31.1130233" lon="-5.374785"><ele>1154.0</ele><time>2026-04-23T13:51:56.938Z</time></trkpt><trkpt lat="31.1132217" lon="-5.3747567"><ele>1154.0</ele><time>2026-04-23T13:51:57.938Z</time></trkpt><trkpt lat="31.11342" lon="-5.374715"><ele>1146.3333333333335</ele><time>2026-04-23T13:51:58.938Z</time></trkpt><trkpt lat="31.11363" lon="-5.3746683"><ele>1138.6666666666667</ele><time>2026-04-23T13:51:59.937Z</time></trkpt><trkpt lat="31.11384" lon="-5.3746283"><ele>1131.0</ele><time>2026-04-23T13:52:00.938Z</time></trkpt><trkpt lat="31.1140517" lon="-5.3745983"><ele>1133.0</ele><time>2026-04-23T13:52:01.938Z</time></trkpt><trkpt lat="31.1142483" lon="-5.3745867"><ele>1135.0</ele><time>2026-04-23T13:52:02.938Z</time></trkpt><trkpt lat="31.1144333" lon="-5.374595"><ele>1137.0</ele><time>2026-04-23T13:52:03.937Z</time></trkpt><trkpt lat="31.1146017" lon="-5.3746267"><ele>1141.6666666666667</ele><time>2026-04-23T13:52:04.938Z</time></trkpt><trkpt lat="31.1147683" lon="-5.3746917"><ele>1146.3333333333335</ele><time>2026-04-23T13:52:05.938Z</time></trkpt><trkpt lat="31.1149183" lon="-5.3747817"><ele>1151.0</ele><time>2026-04-23T13:52:06.938Z</time></trkpt><trkpt lat="31.1150567" lon="-5.3748917"><ele>1151.0</ele><time>2026-04-23T13:52:07.937Z</time></trkpt><trkpt lat="31.1151933" lon="-5.375025"><ele>1151.0</ele><time>2026-04-23T13:52:08.938Z</time></trkpt><trkpt lat="31.115315" lon="-5.375175"><ele>1151.0</ele><time>2026-04-23T13:52:09.937Z</time></trkpt><trkpt lat="31.1154167" lon="-5.3753433"><ele>1171.3333333333335</ele><time>2026-04-23T13:52:10.937Z</time></trkpt><trkpt lat="31.11552" lon="-5.3755267"><ele>1191.6666666666667</ele><time>2026-04-23T13:52:11.938Z</time></trkpt><trkpt lat="31.1156233" lon="-5.375715"><ele>1212.0</ele><time>2026-04-23T13:52:12.938Z</time></trkpt><trkpt lat="31.1157267" lon="-5.375915"><ele>1196.0</ele><time>2026-04-23T13:52:13.938Z</time></trkpt><trkpt lat="31.11582" lon="-5.3761083"><ele>1180.0</ele><time>2026-04-23T13:52:14.938Z</time></trkpt><trkpt lat="31.1159183" lon="-5.376285"><ele>1164.0</ele><time>2026-04-23T13:52:15.938Z</time></trkpt><trkpt lat="31.1160083" lon="-5.3764467"><ele>1164.0</ele><time>2026-04-23T13:52:16.938Z</time></trkpt><trkpt lat="31.1160883" lon="-5.376595"><ele>1164.0</ele><time>2026-04-23T13:52:17.938Z</time></trkpt><trkpt lat="31.1161617" lon="-5.37672"><ele>1164.0</ele><time>2026-04-23T13:52:18.938Z</time></trkpt><trkpt lat="31.116225" lon="-5.376825"><ele>1164.0</ele><time>2026-04-23T13:52:19.938Z</time></trkpt><trkpt lat="31.1162867" lon="-5.3769217"><ele>1164.0</ele><time>2026-04-23T13:52:20.938Z</time></trkpt><trkpt lat="31.1163433" lon="-5.3770067"><ele>1164.0</ele><time>2026-04-23T13:52:21.937Z</time></trkpt><trkpt lat="31.1163933" lon="-5.377095"><ele>1164.0</ele><time>2026-04-23T13:52:22.938Z</time></trkpt><trkpt lat="31.1164517" lon="-5.3771867"><ele>1164.0</ele><time>2026-04-23T13:52:23.937Z</time></trkpt><trkpt lat="31.1164967" lon="-5.3772883"><ele>1164.0</ele><time>2026-04-23T13:52:24.938Z</time></trkpt><trkpt lat="31.11654" lon="-5.3773867"><ele>1161.0</ele><time>2026-04-23T13:52:25.938Z</time></trkpt><trkpt lat="31.1165883" lon="-5.3774833"><ele>1158.0</ele><time>2026-04-23T13:52:26.938Z</time></trkpt><trkpt lat="31.116655" lon="-5.3775733"><ele>1155.0</ele><time>2026-04-23T13:52:27.938Z</time></trkpt><trkpt lat="31.116725" lon="-5.3776583"><ele>1152.0</ele><time>2026-04-23T13:52:28.938Z</time></trkpt><trkpt lat="31.1167983" lon="-5.3777433"><ele>1149.0</ele><time>2026-04-23T13:52:29.937Z</time></trkpt><trkpt lat="31.1168733" lon="-5.3778283"><ele>1149.0</ele><time>2026-04-23T13:52:30.938Z</time></trkpt><trkpt lat="31.11694" lon="-5.3779183"><ele>1149.0</ele><time>2026-04-23T13:52:31.938Z</time></trkpt><trkpt lat="31.1169967" lon="-5.3780117"><ele>1149.0</ele><time>2026-04-23T13:52:32.937Z</time></trkpt><trkpt lat="31.1170517" lon="-5.3781067"><ele>1149.0</ele><time>2026-04-23T13:52:33.937Z</time></trkpt><trkpt lat="31.11712" lon="-5.37821"><ele>1149.0</ele><time>2026-04-23T13:52:34.938Z</time></trkpt><trkpt lat="31.11719" lon="-5.3783233"><ele>1147.75</ele><time>2026-04-23T13:52:35.938Z</time></trkpt><trkpt lat="31.11727" lon="-5.378435"><ele>1146.5</ele><time>2026-04-23T13:52:36.938Z</time></trkpt><trkpt lat="31.117355" lon="-5.3785567"><ele>1145.25</ele><time>2026-04-23T13:52:37.937Z</time></trkpt><trkpt lat="31.1174417" lon="-5.3786733"><ele>1144.0</ele><time>2026-04-23T13:52:38.938Z</time></trkpt><trkpt lat="31.117525" lon="-5.3787783"><ele>1146.8</ele><time>2026-04-23T13:52:39.938Z</time></trkpt><trkpt lat="31.1176033" lon="-5.3788767"><ele>1149.6000000000001</ele><time>2026-04-23T13:52:40.937Z</time></trkpt><trkpt lat="31.1176783" lon="-5.3789667"><ele>1152.4</ele><time>2026-04-23T13:52:41.937Z</time></trkpt><trkpt lat="31.1177533" lon="-5.379055"><ele>1155.2</ele><time>2026-04-23T13:52:42.937Z</time></trkpt><trkpt lat="31.1178317" lon="-5.379135"><ele>1158.0</ele><time>2026-04-23T13:52:43.937Z</time></trkpt><trkpt lat="31.1179117" lon="-5.3792167"><ele>1158.0</ele><time>2026-04-23T13:52:44.937Z</time></trkpt><trkpt lat="31.1179933" lon="-5.3792983"><ele>1158.0</ele><time>2026-04-23T13:52:45.937Z</time></trkpt><trkpt lat="31.1180667" lon="-5.3793733"><ele>1158.0</ele><time>2026-04-23T13:52:46.937Z</time></trkpt><trkpt lat="31.1181367" lon="-5.3794433"><ele>1158.0</ele><time>2026-04-23T13:52:47.936Z</time></trkpt><trkpt lat="31.1182117" lon="-5.3795083"><ele>1158.0</ele><time>2026-04-23T13:52:48.937Z</time></trkpt><trkpt lat="31.1183067" lon="-5.3795683"><ele>1158.6</ele><time>2026-04-23T13:52:49.936Z</time></trkpt><trkpt lat="31.1184033" lon="-5.3796317"><ele>1159.1999999999998</ele><time>2026-04-23T13:52:50.937Z</time></trkpt><trkpt lat="31.1185033" lon="-5.3796883"><ele>1159.8</ele><time>2026-04-23T13:52:51.937Z</time></trkpt><trkpt lat="31.1186" lon="-5.3797367"><ele>1160.3999999999999</ele><time>2026-04-23T13:52:52.936Z</time></trkpt><trkpt lat="31.11869" lon="-5.3797817"><ele>1161.0</ele><time>2026-04-23T13:52:53.936Z</time></trkpt><trkpt lat="31.1187817" lon="-5.379815"><ele>1161.0</ele><time>2026-04-23T13:52:54.937Z</time></trkpt><trkpt lat="31.1188617" lon="-5.3798467"><ele>1161.0</ele><time>2026-04-23T13:52:55.936Z</time></trkpt><trkpt lat="31.1189317" lon="-5.37987"><ele>1161.0</ele><time>2026-04-23T13:52:56.937Z</time></trkpt><trkpt lat="31.1190333" lon="-5.3798967"><ele>1161.0</ele><time>2026-04-23T13:52:58.937Z</time></trkpt><trkpt lat="31.119105" lon="-5.3799217"><ele>1161.0</ele><time>2026-04-23T13:53:15.936Z</time></trkpt><trkpt lat="31.119215" lon="-5.3799483"><ele>1161.0</ele><time>2026-04-23T13:53:17.937Z</time></trkpt><trkpt lat="31.1192867" lon="-5.379965"><ele>1159.0</ele><time>2026-04-23T13:53:18.937Z</time></trkpt><trkpt lat="31.1193583" lon="-5.379985"><ele>1157.0</ele><time>2026-04-23T13:53:19.937Z</time></trkpt><trkpt lat="31.119435" lon="-5.3800167"><ele>1155.0</ele><time>2026-04-23T13:53:20.937Z</time></trkpt><trkpt lat="31.1195083" lon="-5.3800533"><ele>1153.0</ele><time>2026-04-23T13:53:21.937Z</time></trkpt><trkpt lat="31.1195867" lon="-5.3800817"><ele>1151.0</ele><time>2026-04-23T13:53:22.936Z</time></trkpt><trkpt lat="31.1196633" lon="-5.3800967"><ele>1149.0</ele><time>2026-04-23T13:53:23.936Z</time></trkpt><trkpt lat="31.1197483" lon="-5.380095"><ele>1149.0</ele><time>2026-04-23T13:53:24.937Z</time></trkpt><trkpt lat="31.119845" lon="-5.3800883"><ele>1149.0</ele><time>2026-04-23T13:53:25.936Z</time></trkpt><trkpt lat="31.119955" lon="-5.3800783"><ele>1149.0</ele><time>2026-04-23T13:53:26.937Z</time></trkpt><trkpt lat="31.120055" lon="-5.38008"><ele>1149.0</ele><time>2026-04-23T13:53:27.937Z</time></trkpt><trkpt lat="31.12014" lon="-5.38009"><ele>1149.0</ele><time>2026-04-23T13:53:28.937Z</time></trkpt><trkpt lat="31.1202117" lon="-5.3801017"><ele>1148.5</ele><time>2026-04-23T13:53:29.937Z</time></trkpt><trkpt lat="31.12028" lon="-5.3801217"><ele>1148.0</ele><time>2026-04-23T13:53:30.937Z</time></trkpt><trkpt lat="31.1204" lon="-5.3801567"><ele>1147.5</ele><time>2026-04-23T13:53:32.936Z</time></trkpt><trkpt lat="31.1204717" lon="-5.3801733"><ele>1147.0</ele><time>2026-04-23T13:53:33.936Z</time></trkpt><trkpt lat="31.1205433" lon="-5.3801967"><ele>1146.5</ele><time>2026-04-23T13:53:34.937Z</time></trkpt><trkpt lat="31.1206333" lon="-5.38023"><ele>1146.0</ele><time>2026-04-23T13:53:35.936Z</time></trkpt><trkpt lat="31.1207183" lon="-5.3802617"><ele>1145.1666666666667</ele><time>2026-04-23T13:53:36.937Z</time></trkpt><trkpt lat="31.1208017" lon="-5.380285"><ele>1144.3333333333333</ele><time>2026-04-23T13:53:37.937Z</time></trkpt><trkpt lat="31.12089" lon="-5.3802983"><ele>1143.5</ele><time>2026-04-23T13:53:38.937Z</time></trkpt><trkpt lat="31.1209733" lon="-5.3803067"><ele>1142.6666666666665</ele><time>2026-04-23T13:53:39.937Z</time></trkpt><trkpt lat="31.1210483" lon="-5.3803067"><ele>1141.8333333333333</ele><time>2026-04-23T13:53:40.937Z</time></trkpt><trkpt lat="31.121125" lon="-5.3803133"><ele>1141.0</ele><time>2026-04-23T13:53:41.937Z</time></trkpt><trkpt lat="31.1212233" lon="-5.380315"><ele>1141.0</ele><time>2026-04-23T13:53:42.937Z</time></trkpt><trkpt lat="31.1213217" lon="-5.3803133"><ele>1141.0</ele><time>2026-04-23T13:53:43.937Z</time></trkpt><trkpt lat="31.1214117" lon="-5.38031"><ele>1141.0</ele><time>2026-04-23T13:53:44.937Z</time></trkpt><trkpt lat="31.1214967" lon="-5.3803167"><ele>1141.0</ele><time>2026-04-23T13:53:45.937Z</time></trkpt><trkpt lat="31.1215667" lon="-5.380345"><ele>1141.0</ele><time>2026-04-23T13:53:46.937Z</time></trkpt><trkpt lat="31.1216267" lon="-5.3803867"><ele>1141.0</ele><time>2026-04-23T13:53:47.937Z</time></trkpt><trkpt lat="31.1216867" lon="-5.38044"><ele>1141.8</ele><time>2026-04-23T13:53:48.937Z</time></trkpt><trkpt lat="31.12176" lon="-5.3804967"><ele>1142.6</ele><time>2026-04-23T13:53:49.937Z</time></trkpt><trkpt lat="31.1218433" lon="-5.38055"><ele>1143.4</ele><time>2026-04-23T13:53:50.937Z</time></trkpt><trkpt lat="31.1219333" lon="-5.3805967"><ele>1144.2</ele><time>2026-04-23T13:53:51.937Z</time></trkpt><trkpt lat="31.1220317" lon="-5.3806317"><ele>1145.0</ele><time>2026-04-23T13:53:52.936Z</time></trkpt><trkpt lat="31.1221317" lon="-5.3806533"><ele>1147.2</ele><time>2026-04-23T13:53:53.937Z</time></trkpt><trkpt lat="31.122235" lon="-5.3806633"><ele>1149.4</ele><time>2026-04-23T13:53:54.937Z</time></trkpt><trkpt lat="31.1223383" lon="-5.3806683"><ele>1151.6</ele><time>2026-04-23T13:53:55.937Z</time></trkpt><trkpt lat="31.12243" lon="-5.3806833"><ele>1153.8</ele><time>2026-04-23T13:53:56.936Z</time></trkpt><trkpt lat="31.122525" lon="-5.3807167"><ele>1156.0</ele><time>2026-04-23T13:53:57.937Z</time></trkpt><trkpt lat="31.1226233" lon="-5.3807467"><ele>1156.0</ele><time>2026-04-23T13:53:58.937Z</time></trkpt><trkpt lat="31.1227333" lon="-5.38076"><ele>1156.0</ele><time>2026-04-23T13:53:59.937Z</time></trkpt><trkpt lat="31.1228467" lon="-5.380765"><ele>1156.0</ele><time>2026-04-23T13:54:00.937Z</time></trkpt><trkpt lat="31.1229517" lon="-5.380775"><ele>1156.0</ele><time>2026-04-23T13:54:01.937Z</time></trkpt><trkpt lat="31.1230583" lon="-5.38078"><ele>1156.0</ele><time>2026-04-23T13:54:02.936Z</time></trkpt><trkpt lat="31.123155" lon="-5.3807883"><ele>1156.1666666666665</ele><time>2026-04-23T13:54:03.937Z</time></trkpt><trkpt lat="31.123255" lon="-5.380795"><ele>1156.3333333333333</ele><time>2026-04-23T13:54:04.937Z</time></trkpt><trkpt lat="31.1233383" lon="-5.3807983"><ele>1156.5</ele><time>2026-04-23T13:54:05.936Z</time></trkpt><trkpt lat="31.1234283" lon="-5.380795"><ele>1156.6666666666667</ele><time>2026-04-23T13:54:06.937Z</time></trkpt><trkpt lat="31.1235183" lon="-5.3807967"><ele>1156.8333333333335</ele><time>2026-04-23T13:54:07.937Z</time></trkpt><trkpt lat="31.1235967" lon="-5.3807967"><ele>1157.0</ele><time>2026-04-23T13:54:08.937Z</time></trkpt><trkpt lat="31.1236683" lon="-5.380785"><ele>1157.0</ele><time>2026-04-23T13:54:09.937Z</time></trkpt><trkpt lat="31.12373" lon="-5.380765"><ele>1157.0</ele><time>2026-04-23T13:54:10.937Z</time></trkpt><trkpt lat="31.12379" lon="-5.3807217"><ele>1157.0</ele><time>2026-04-23T13:54:11.937Z</time></trkpt><trkpt lat="31.1238383" lon="-5.3806717"><ele>1157.0</ele><time>2026-04-23T13:54:12.937Z</time></trkpt><trkpt lat="31.1238967" lon="-5.38062"><ele>1157.0</ele><time>2026-04-23T13:54:13.936Z</time></trkpt><trkpt lat="31.123955" lon="-5.38058"><ele>1157.0</ele><time>2026-04-23T13:54:14.937Z</time></trkpt><trkpt lat="31.1240283" lon="-5.3805617"><ele>1157.0</ele><time>2026-04-23T13:54:15.937Z</time></trkpt><trkpt lat="31.1240983" lon="-5.380565"><ele>1156.1666666666667</ele><time>2026-04-23T13:54:16.937Z</time></trkpt><trkpt lat="31.1241717" lon="-5.3805867"><ele>1155.3333333333335</ele><time>2026-04-23T13:54:17.937Z</time></trkpt><trkpt lat="31.1242433" lon="-5.3806267"><ele>1154.5</ele><time>2026-04-23T13:54:18.936Z</time></trkpt><trkpt lat="31.12432" lon="-5.38068"><ele>1153.6666666666667</ele><time>2026-04-23T13:54:19.937Z</time></trkpt><trkpt lat="31.1243917" lon="-5.38075"><ele>1152.8333333333333</ele><time>2026-04-23T13:54:20.937Z</time></trkpt><trkpt lat="31.124455" lon="-5.3808333"><ele>1152.0</ele><time>2026-04-23T13:54:21.936Z</time></trkpt><trkpt lat="31.124505" lon="-5.3809217"><ele>1152.0</ele><time>2026-04-23T13:54:22.937Z</time></trkpt><trkpt lat="31.1245467" lon="-5.381035"><ele>1152.0</ele><time>2026-04-23T13:54:23.937Z</time></trkpt><trkpt lat="31.1245767" lon="-5.3811467"><ele>1152.0</ele><time>2026-04-23T13:54:24.937Z</time></trkpt><trkpt lat="31.124605" lon="-5.381255"><ele>1152.0</ele><time>2026-04-23T13:54:25.937Z</time></trkpt><trkpt lat="31.124645" lon="-5.3813483"><ele>1152.0</ele><time>2026-04-23T13:54:26.937Z</time></trkpt><trkpt lat="31.12469" lon="-5.3814317"><ele>1152.6</ele><time>2026-04-23T13:54:27.937Z</time></trkpt><trkpt lat="31.12476" lon="-5.3815017"><ele>1153.2</ele><time>2026-04-23T13:54:28.937Z</time></trkpt><trkpt lat="31.1248367" lon="-5.3815667"><ele>1153.8</ele><time>2026-04-23T13:54:29.937Z</time></trkpt><trkpt lat="31.1249167" lon="-5.38162"><ele>1154.4</ele><time>2026-04-23T13:54:30.937Z</time></trkpt><trkpt lat="31.125" lon="-5.3816783"><ele>1155.0</ele><time>2026-04-23T13:54:31.937Z</time></trkpt><trkpt lat="31.1250833" lon="-5.38175"><ele>1155.0</ele><time>2026-04-23T13:54:32.937Z</time></trkpt><trkpt lat="31.1251617" lon="-5.38182"><ele>1155.0</ele><time>2026-04-23T13:54:33.936Z</time></trkpt><trkpt lat="31.12522" lon="-5.3818833"><ele>1155.0</ele><time>2026-04-23T13:54:34.936Z</time></trkpt><trkpt lat="31.1252817" lon="-5.3819433"><ele>1155.0</ele><time>2026-04-23T13:54:35.936Z</time></trkpt><trkpt lat="31.1253567" lon="-5.38201"><ele>1155.0</ele><time>2026-04-23T13:54:36.937Z</time></trkpt><trkpt lat="31.1254367" lon="-5.382085"><ele>1155.0</ele><time>2026-04-23T13:54:37.936Z</time></trkpt><trkpt lat="31.1255217" lon="-5.38215"><ele>1155.0</ele><time>2026-04-23T13:54:38.937Z</time></trkpt><trkpt lat="31.1256067" lon="-5.3822083"><ele>1155.0</ele><time>2026-04-23T13:54:39.937Z</time></trkpt><trkpt lat="31.1256833" lon="-5.382265"><ele>1155.0</ele><time>2026-04-23T13:54:40.936Z</time></trkpt><trkpt lat="31.125765" lon="-5.3823217"><ele>1155.0</ele><time>2026-04-23T13:54:41.936Z</time></trkpt><trkpt lat="31.1258567" lon="-5.382385"><ele>1155.6</ele><time>2026-04-23T13:54:42.936Z</time></trkpt><trkpt lat="31.1259617" lon="-5.3824517"><ele>1156.2</ele><time>2026-04-23T13:54:43.936Z</time></trkpt><trkpt lat="31.1260667" lon="-5.3825167"><ele>1156.8</ele><time>2026-04-23T13:54:44.937Z</time></trkpt><trkpt lat="31.1261617" lon="-5.3825683"><ele>1157.4</ele><time>2026-04-23T13:54:45.937Z</time></trkpt><trkpt lat="31.1262467" lon="-5.3826117"><ele>1158.0</ele><time>2026-04-23T13:54:46.937Z</time></trkpt><trkpt lat="31.12633" lon="-5.3826617"><ele>1158.0</ele><time>2026-04-23T13:54:47.937Z</time></trkpt><trkpt lat="31.1264133" lon="-5.38272"><ele>1158.0</ele><time>2026-04-23T13:54:48.937Z</time></trkpt><trkpt lat="31.126495" lon="-5.3828033"><ele>1158.0</ele><time>2026-04-23T13:54:49.937Z</time></trkpt><trkpt lat="31.1265717" lon="-5.3829017"><ele>1158.0</ele><time>2026-04-23T13:54:50.937Z</time></trkpt><trkpt lat="31.1266533" lon="-5.38299"><ele>1158.0</ele><time>2026-04-23T13:54:51.937Z</time></trkpt><trkpt lat="31.1267433" lon="-5.38307"><ele>1159.0</ele><time>2026-04-23T13:54:52.937Z</time></trkpt><trkpt lat="31.1268417" lon="-5.3831467"><ele>1160.0</ele><time>2026-04-23T13:54:53.936Z</time></trkpt><trkpt lat="31.1269367" lon="-5.3832183"><ele>1161.0</ele><time>2026-04-23T13:54:54.937Z</time></trkpt><trkpt lat="31.1270333" lon="-5.3832933"><ele>1162.0</ele><time>2026-04-23T13:54:55.936Z</time></trkpt><trkpt lat="31.1271283" lon="-5.3833683"><ele>1162.0</ele><time>2026-04-23T13:54:56.936Z</time></trkpt><trkpt lat="31.1272183" lon="-5.3834417"><ele>1162.0</ele><time>2026-04-23T13:54:57.937Z</time></trkpt><trkpt lat="31.1273083" lon="-5.3835217"><ele>1162.0</ele><time>2026-04-23T13:54:58.936Z</time></trkpt><trkpt lat="31.12739" lon="-5.3836"><ele>1162.0</ele><time>2026-04-23T13:54:59.937Z</time></trkpt><trkpt lat="31.127475" lon="-5.3836667"><ele>1162.0</ele><time>2026-04-23T13:55:00.937Z</time></trkpt><trkpt lat="31.12757" lon="-5.3837367"><ele>1163.0</ele><time>2026-04-23T13:55:01.937Z</time></trkpt><trkpt lat="31.127665" lon="-5.3838033"><ele>1164.0</ele><time>2026-04-23T13:55:02.936Z</time></trkpt><trkpt lat="31.127755" lon="-5.3838667"><ele>1165.0</ele><time>2026-04-23T13:55:03.937Z</time></trkpt><trkpt lat="31.1278483" lon="-5.38394"><ele>1166.0</ele><time>2026-04-23T13:55:04.936Z</time></trkpt><trkpt lat="31.12794" lon="-5.384035"><ele>1166.0</ele><time>2026-04-23T13:55:05.937Z</time></trkpt><trkpt lat="31.1280233" lon="-5.3841333"><ele>1166.0</ele><time>2026-04-23T13:55:06.936Z</time></trkpt><trkpt lat="31.12812" lon="-5.38423"><ele>1166.0</ele><time>2026-04-23T13:55:07.937Z</time></trkpt><trkpt lat="31.128215" lon="-5.38432"><ele>1166.0</ele><time>2026-04-23T13:55:08.937Z</time></trkpt><trkpt lat="31.1282933" lon="-5.384405"><ele>1167.2</ele><time>2026-04-23T13:55:09.937Z</time></trkpt><trkpt lat="31.12837" lon="-5.3844867"><ele>1168.3999999999999</ele><time>2026-04-23T13:55:10.936Z</time></trkpt><trkpt lat="31.12845" lon="-5.3845583"><ele>1169.6</ele><time>2026-04-23T13:55:11.936Z</time></trkpt><trkpt lat="31.12854" lon="-5.384615"><ele>1170.8</ele><time>2026-04-23T13:55:12.937Z</time></trkpt><trkpt lat="31.12864" lon="-5.3846617"><ele>1172.0</ele><time>2026-04-23T13:55:13.937Z</time></trkpt><trkpt lat="31.1287517" lon="-5.3847"><ele>1172.0</ele><time>2026-04-23T13:55:14.936Z</time></trkpt><trkpt lat="31.1288433" lon="-5.384725"><ele>1172.0</ele><time>2026-04-23T13:55:15.937Z</time></trkpt><trkpt lat="31.1289533" lon="-5.384725"><ele>1172.0</ele><time>2026-04-23T13:55:16.937Z</time></trkpt><trkpt lat="31.12907" lon="-5.3847233"><ele>1172.0</ele><time>2026-04-23T13:55:17.937Z</time></trkpt><trkpt lat="31.129195" lon="-5.3847233"><ele>1172.0</ele><time>2026-04-23T13:55:18.937Z</time></trkpt><trkpt lat="31.12933" lon="-5.3847167"><ele>1170.5</ele><time>2026-04-23T13:55:19.937Z</time></trkpt><trkpt lat="31.12946" lon="-5.3846983"><ele>1169.0</ele><time>2026-04-23T13:55:20.937Z</time></trkpt><trkpt lat="31.1295817" lon="-5.3846667"><ele>1167.5</ele><time>2026-04-23T13:55:21.937Z</time></trkpt><trkpt lat="31.1296933" lon="-5.3846333"><ele>1166.0</ele><time>2026-04-23T13:55:22.937Z</time></trkpt><trkpt lat="31.1297917" lon="-5.384615"><ele>1165.2</ele><time>2026-04-23T13:55:23.937Z</time></trkpt><trkpt lat="31.1298817" lon="-5.38461"><ele>1164.3999999999999</ele><time>2026-04-23T13:55:24.936Z</time></trkpt><trkpt lat="31.1299683" lon="-5.3846333"><ele>1163.6</ele><time>2026-04-23T13:55:25.937Z</time></trkpt><trkpt lat="31.13005" lon="-5.3846733"><ele>1162.8</ele><time>2026-04-23T13:55:26.936Z</time></trkpt><trkpt lat="31.1301217" lon="-5.3847383"><ele>1162.0</ele><time>2026-04-23T13:55:27.937Z</time></trkpt><trkpt lat="31.13018" lon="-5.3848283"><ele>1162.0</ele><time>2026-04-23T13:55:28.937Z</time></trkpt><trkpt lat="31.1302233" lon="-5.384935"><ele>1162.0</ele><time>2026-04-23T13:55:29.937Z</time></trkpt><trkpt lat="31.1302583" lon="-5.3850517"><ele>1162.0</ele><time>2026-04-23T13:55:30.937Z</time></trkpt><trkpt lat="31.1303" lon="-5.3851617"><ele>1162.0</ele><time>2026-04-23T13:55:31.936Z</time></trkpt><trkpt lat="31.1303483" lon="-5.38526"><ele>1162.0</ele><time>2026-04-23T13:55:32.936Z</time></trkpt><trkpt lat="31.1304033" lon="-5.3853233"><ele>1162.0</ele><time>2026-04-23T13:55:33.936Z</time></trkpt><trkpt lat="31.1304767" lon="-5.385375"><ele>1162.0</ele><time>2026-04-23T13:55:34.936Z</time></trkpt><trkpt lat="31.1305783" lon="-5.3854017"><ele>1162.0</ele><time>2026-04-23T13:55:35.937Z</time></trkpt><trkpt lat="31.13069" lon="-5.3854233"><ele>1162.0</ele><time>2026-04-23T13:55:36.937Z</time></trkpt><trkpt lat="31.1308017" lon="-5.3854383"><ele>1162.0</ele><time>2026-04-23T13:55:37.937Z</time></trkpt><trkpt lat="31.1309067" lon="-5.38545"><ele>1161.4</ele><time>2026-04-23T13:55:38.937Z</time></trkpt><trkpt lat="31.1310217" lon="-5.3854467"><ele>1160.8000000000002</ele><time>2026-04-23T13:55:39.937Z</time></trkpt><trkpt lat="31.1311267" lon="-5.38544"><ele>1160.2</ele><time>2026-04-23T13:55:40.937Z</time></trkpt><trkpt lat="31.1312383" lon="-5.3854283"><ele>1159.6000000000001</ele><time>2026-04-23T13:55:41.936Z</time></trkpt><trkpt lat="31.1313383" lon="-5.3854067"><ele>1159.0</ele><time>2026-04-23T13:55:42.936Z</time></trkpt><trkpt lat="31.13143" lon="-5.3853783"><ele>1159.0</ele><time>2026-04-23T13:55:43.937Z</time></trkpt><trkpt lat="31.131535" lon="-5.3853583"><ele>1159.0</ele><time>2026-04-23T13:55:44.936Z</time></trkpt><trkpt lat="31.1316433" lon="-5.38534"><ele>1159.0</ele><time>2026-04-23T13:55:45.937Z</time></trkpt><trkpt lat="31.1317467" lon="-5.3853317"><ele>1159.0</ele><time>2026-04-23T13:55:46.937Z</time></trkpt><trkpt lat="31.1318617" lon="-5.3853367"><ele>1159.0</ele><time>2026-04-23T13:55:47.937Z</time></trkpt><trkpt lat="31.1319767" lon="-5.38535"><ele>1159.0</ele><time>2026-04-23T13:55:48.937Z</time></trkpt><trkpt lat="31.1320917" lon="-5.385365"><ele>1159.0</ele><time>2026-04-23T13:55:49.936Z</time></trkpt><trkpt lat="31.1322033" lon="-5.3853783"><ele>1159.0</ele><time>2026-04-23T13:55:50.936Z</time></trkpt><trkpt lat="31.1323133" lon="-5.385385"><ele>1159.0</ele><time>2026-04-23T13:55:51.937Z</time></trkpt><trkpt lat="31.1324117" lon="-5.38538"><ele>1159.0</ele><time>2026-04-23T13:55:52.937Z</time></trkpt><trkpt lat="31.132495" lon="-5.3853867"><ele>1159.0</ele><time>2026-04-23T13:55:53.936Z</time></trkpt><trkpt lat="31.1325733" lon="-5.38542"><ele>1159.0</ele><time>2026-04-23T13:55:54.937Z</time></trkpt><trkpt lat="31.132655" lon="-5.38547"><ele>1159.0</ele><time>2026-04-23T13:55:55.937Z</time></trkpt><trkpt lat="31.1327283" lon="-5.385545"><ele>1159.0</ele><time>2026-04-23T13:55:56.937Z</time></trkpt><trkpt lat="31.1327867" lon="-5.3856283"><ele>1159.0</ele><time>2026-04-23T13:55:57.937Z</time></trkpt><trkpt lat="31.1328233" lon="-5.3857117"><ele>1159.0</ele><time>2026-04-23T13:55:58.936Z</time></trkpt><trkpt lat="31.132855" lon="-5.3857867"><ele>1159.6666666666665</ele><time>2026-04-23T13:55:59.937Z</time></trkpt><trkpt lat="31.1328683" lon="-5.3858683"><ele>1160.3333333333333</ele><time>2026-04-23T13:56:00.937Z</time></trkpt><trkpt lat="31.132875" lon="-5.3859667"><ele>1161.0</ele><time>2026-04-23T13:56:01.937Z</time></trkpt><trkpt lat="31.1328867" lon="-5.3860683"><ele>1161.6666666666667</ele><time>2026-04-23T13:56:02.936Z</time></trkpt><trkpt lat="31.132895" lon="-5.38617"><ele>1162.3333333333335</ele><time>2026-04-23T13:56:03.937Z</time></trkpt><trkpt lat="31.1329067" lon="-5.386285"><ele>1163.0</ele><time>2026-04-23T13:56:04.937Z</time></trkpt><trkpt lat="31.1329217" lon="-5.3864083"><ele>1163.75</ele><time>2026-04-23T13:56:05.937Z</time></trkpt><trkpt lat="31.132945" lon="-5.3865383"><ele>1164.5</ele><time>2026-04-23T13:56:06.937Z</time></trkpt><trkpt lat="31.13297" lon="-5.3866667"><ele>1165.25</ele><time>2026-04-23T13:56:07.937Z</time></trkpt><trkpt lat="31.1329917" lon="-5.3867983"><ele>1166.0</ele><time>2026-04-23T13:56:08.936Z</time></trkpt><trkpt lat="31.1330117" lon="-5.38693"><ele>1166.0</ele><time>2026-04-23T13:56:09.937Z</time></trkpt><trkpt lat="31.133035" lon="-5.3870617"><ele>1166.0</ele><time>2026-04-23T13:56:10.937Z</time></trkpt><trkpt lat="31.1330533" lon="-5.3871867"><ele>1166.0</ele><time>2026-04-23T13:56:11.937Z</time></trkpt><trkpt lat="31.133065" lon="-5.3873033"><ele>1166.0</ele><time>2026-04-23T13:56:12.937Z</time></trkpt><trkpt lat="31.133065" lon="-5.3874133"><ele>1166.0</ele><time>2026-04-23T13:56:13.937Z</time></trkpt><trkpt lat="31.1330567" lon="-5.387535"><ele>1167.0</ele><time>2026-04-23T13:56:14.937Z</time></trkpt><trkpt lat="31.1330417" lon="-5.3876567"><ele>1168.0</ele><time>2026-04-23T13:56:15.937Z</time></trkpt><trkpt lat="31.1330183" lon="-5.3877833"><ele>1169.0</ele><time>2026-04-23T13:56:16.937Z</time></trkpt><trkpt lat="31.1329867" lon="-5.3878867"><ele>1170.0</ele><time>2026-04-23T13:56:17.936Z</time></trkpt><trkpt lat="31.1329517" lon="-5.3880017"><ele>1171.0</ele><time>2026-04-23T13:56:18.937Z</time></trkpt><trkpt lat="31.132905" lon="-5.3881233"><ele>1171.25</ele><time>2026-04-23T13:56:19.937Z</time></trkpt><trkpt lat="31.1328783" lon="-5.3882433"><ele>1171.5</ele><time>2026-04-23T13:56:20.937Z</time></trkpt><trkpt lat="31.1328733" lon="-5.3883767"><ele>1171.75</ele><time>2026-04-23T13:56:21.937Z</time></trkpt><trkpt lat="31.1328767" lon="-5.38852"><ele>1172.0</ele><time>2026-04-23T13:56:22.937Z</time></trkpt><trkpt lat="31.1328683" lon="-5.3886733"><ele>1172.0</ele><time>2026-04-23T13:56:23.937Z</time></trkpt><trkpt lat="31.1328633" lon="-5.388815"><ele>1172.0</ele><time>2026-04-23T13:56:24.936Z</time></trkpt><trkpt lat="31.1328567" lon="-5.3889717"><ele>1172.0</ele><time>2026-04-23T13:56:25.937Z</time></trkpt><trkpt lat="31.132845" lon="-5.3891417"><ele>1172.0</ele><time>2026-04-23T13:56:26.937Z</time></trkpt><trkpt lat="31.1328433" lon="-5.38931"><ele>1172.2</ele><time>2026-04-23T13:56:27.937Z</time></trkpt><trkpt lat="31.1328417" lon="-5.3894617"><ele>1172.4</ele><time>2026-04-23T13:56:28.937Z</time></trkpt><trkpt lat="31.132845" lon="-5.3895917"><ele>1172.6</ele><time>2026-04-23T13:56:29.937Z</time></trkpt><trkpt lat="31.1328633" lon="-5.3897067"><ele>1172.8</ele><time>2026-04-23T13:56:30.937Z</time></trkpt><trkpt lat="31.1328917" lon="-5.3898117"><ele>1173.0</ele><time>2026-04-23T13:56:31.937Z</time></trkpt><trkpt lat="31.1329333" lon="-5.3899033"><ele>1172.4</ele><time>2026-04-23T13:56:32.937Z</time></trkpt><trkpt lat="31.13299" lon="-5.3899867"><ele>1171.8</ele><time>2026-04-23T13:56:33.937Z</time></trkpt><trkpt lat="31.1330583" lon="-5.3900717"><ele>1171.2</ele><time>2026-04-23T13:56:34.937Z</time></trkpt><trkpt lat="31.1331367" lon="-5.3901583"><ele>1170.6</ele><time>2026-04-23T13:56:35.937Z</time></trkpt><trkpt lat="31.1332133" lon="-5.3902583"><ele>1170.0</ele><time>2026-04-23T13:56:36.936Z</time></trkpt><trkpt lat="31.1333" lon="-5.3903533"><ele>1169.0</ele><time>2026-04-23T13:56:37.937Z</time></trkpt><trkpt lat="31.1333733" lon="-5.3904367"><ele>1168.0</ele><time>2026-04-23T13:56:38.937Z</time></trkpt><trkpt lat="31.13343" lon="-5.3905267"><ele>1167.0</ele><time>2026-04-23T13:56:39.937Z</time></trkpt><trkpt lat="31.1334833" lon="-5.390625"><ele>1166.0</ele><time>2026-04-23T13:56:40.936Z</time></trkpt><trkpt lat="31.13352" lon="-5.3907383"><ele>1165.0</ele><time>2026-04-23T13:56:41.937Z</time></trkpt><trkpt lat="31.1335433" lon="-5.39086"><ele>1165.0</ele><time>2026-04-23T13:56:42.936Z</time></trkpt><trkpt lat="31.1335517" lon="-5.3909983"><ele>1165.0</ele><time>2026-04-23T13:56:43.937Z</time></trkpt><trkpt lat="31.133545" lon="-5.3911367"><ele>1165.0</ele><time>2026-04-23T13:56:44.936Z</time></trkpt><trkpt lat="31.1335133" lon="-5.3912767"><ele>1165.0</ele><time>2026-04-23T13:56:45.937Z</time></trkpt><trkpt lat="31.1334717" lon="-5.3914417"><ele>1166.3333333333333</ele><time>2026-04-23T13:56:46.937Z</time></trkpt><trkpt lat="31.1334233" lon="-5.391625"><ele>1167.6666666666667</ele><time>2026-04-23T13:56:47.937Z</time></trkpt><trkpt lat="31.1333817" lon="-5.3917933"><ele>1169.0</ele><time>2026-04-23T13:56:48.936Z</time></trkpt><trkpt lat="31.1333517" lon="-5.39195"><ele>1169.0</ele><time>2026-04-23T13:56:49.936Z</time></trkpt><trkpt lat="31.133315" lon="-5.3920867"><ele>1169.0</ele><time>2026-04-23T13:56:50.937Z</time></trkpt><trkpt lat="31.13328" lon="-5.3922083"><ele>1169.0</ele><time>2026-04-23T13:56:51.936Z</time></trkpt><trkpt lat="31.1332283" lon="-5.39232"><ele>1169.0</ele><time>2026-04-23T13:56:52.937Z</time></trkpt><trkpt lat="31.1331617" lon="-5.3924283"><ele>1170.2</ele><time>2026-04-23T13:56:53.936Z</time></trkpt><trkpt lat="31.1330833" lon="-5.3925183"><ele>1171.4</ele><time>2026-04-23T13:56:54.937Z</time></trkpt><trkpt lat="31.1330083" lon="-5.3925983"><ele>1172.6</ele><time>2026-04-23T13:56:55.936Z</time></trkpt><trkpt lat="31.13294" lon="-5.39269"><ele>1173.8</ele><time>2026-04-23T13:56:56.937Z</time></trkpt><trkpt lat="31.1328933" lon="-5.3927967"><ele>1175.0</ele><time>2026-04-23T13:56:57.937Z</time></trkpt><trkpt lat="31.1328667" lon="-5.392915"><ele>1175.6666666666667</ele><time>2026-04-23T13:56:58.936Z</time></trkpt><trkpt lat="31.132855" lon="-5.3930367"><ele>1176.3333333333335</ele><time>2026-04-23T13:56:59.937Z</time></trkpt><trkpt lat="31.1328683" lon="-5.3931417"><ele>1177.0</ele><time>2026-04-23T13:57:00.937Z</time></trkpt><trkpt lat="31.1328783" lon="-5.393235"><ele>1177.6666666666667</ele><time>2026-04-23T13:57:01.937Z</time></trkpt><trkpt lat="31.1328833" lon="-5.39333"><ele>1178.3333333333333</ele><time>2026-04-23T13:57:02.937Z</time></trkpt><trkpt lat="31.1328833" lon="-5.393425"><ele>1179.0</ele><time>2026-04-23T13:57:03.937Z</time></trkpt><trkpt lat="31.1328683" lon="-5.3935267"><ele>1179.0</ele><time>2026-04-23T13:57:04.937Z</time></trkpt><trkpt lat="31.13283" lon="-5.3936333"><ele>1179.0</ele><time>2026-04-23T13:57:05.937Z</time></trkpt><trkpt lat="31.1327983" lon="-5.39375"><ele>1179.0</ele><time>2026-04-23T13:57:06.937Z</time></trkpt><trkpt lat="31.1327767" lon="-5.39387"><ele>1179.0</ele><time>2026-04-23T13:57:07.937Z</time></trkpt><trkpt lat="31.13278" lon="-5.3939933"><ele>1179.0</ele><time>2026-04-23T13:57:08.937Z</time></trkpt><trkpt lat="31.13279" lon="-5.394105"><ele>1180.0</ele><time>2026-04-23T13:57:09.936Z</time></trkpt><trkpt lat="31.13282" lon="-5.394215"><ele>1181.0</ele><time>2026-04-23T13:57:10.937Z</time></trkpt><trkpt lat="31.1328667" lon="-5.394325"><ele>1182.0</ele><time>2026-04-23T13:57:11.937Z</time></trkpt><trkpt lat="31.1329183" lon="-5.39446"><ele>1183.0</ele><time>2026-04-23T13:57:12.937Z</time></trkpt><trkpt lat="31.1329733" lon="-5.3945983"><ele>1183.6</ele><time>2026-04-23T13:57:13.937Z</time></trkpt><trkpt lat="31.1330317" lon="-5.394725"><ele>1184.1999999999998</ele><time>2026-04-23T13:57:14.937Z</time></trkpt><trkpt lat="31.133075" lon="-5.3948333"><ele>1184.8</ele><time>2026-04-23T13:57:15.937Z</time></trkpt><trkpt lat="31.1331183" lon="-5.3949367"><ele>1185.3999999999999</ele><time>2026-04-23T13:57:16.935Z</time></trkpt><trkpt lat="31.13316" lon="-5.3950433"><ele>1186.0</ele><time>2026-04-23T13:57:17.936Z</time></trkpt><trkpt lat="31.1331917" lon="-5.3951483"><ele>1186.0</ele><time>2026-04-23T13:57:18.936Z</time></trkpt><trkpt lat="31.1332067" lon="-5.3952383"><ele>1186.0</ele><time>2026-04-23T13:57:19.936Z</time></trkpt><trkpt lat="31.13322" lon="-5.3953233"><ele>1186.0</ele><time>2026-04-23T13:57:20.936Z</time></trkpt><trkpt lat="31.133235" lon="-5.3954167"><ele>1186.0</ele><time>2026-04-23T13:57:21.935Z</time></trkpt><trkpt lat="31.1332717" lon="-5.395495"><ele>1186.0</ele><time>2026-04-23T13:57:22.936Z</time></trkpt><trkpt lat="31.1333033" lon="-5.3955733"><ele>1186.0</ele><time>2026-04-23T13:57:23.936Z</time></trkpt><trkpt lat="31.1333233" lon="-5.3956533"><ele>1184.2</ele><time>2026-04-23T13:57:24.935Z</time></trkpt><trkpt lat="31.1333383" lon="-5.39574"><ele>1182.3999999999999</ele><time>2026-04-23T13:57:25.936Z</time></trkpt><trkpt lat="31.133355" lon="-5.3958433"><ele>1180.6</ele><time>2026-04-23T13:57:26.936Z</time></trkpt><trkpt lat="31.1333783" lon="-5.3959633"><ele>1178.8</ele><time>2026-04-23T13:57:27.935Z</time></trkpt><trkpt lat="31.1334117" lon="-5.3960833"><ele>1177.0</ele><time>2026-04-23T13:57:28.935Z</time></trkpt><trkpt lat="31.1334517" lon="-5.3962"><ele>1177.0</ele><time>2026-04-23T13:57:29.936Z</time></trkpt><trkpt lat="31.133485" lon="-5.3963167"><ele>1177.0</ele><time>2026-04-23T13:57:30.936Z</time></trkpt><trkpt lat="31.1335" lon="-5.3964233"><ele>1177.0</ele><time>2026-04-23T13:57:31.936Z</time></trkpt><trkpt lat="31.1335" lon="-5.3965117"><ele>1177.0</ele><time>2026-04-23T13:57:32.936Z</time></trkpt><trkpt lat="31.13349" lon="-5.396605"><ele>1177.0</ele><time>2026-04-23T13:57:33.936Z</time></trkpt><trkpt lat="31.1334683" lon="-5.3967083"><ele>1177.0</ele><time>2026-04-23T13:57:34.936Z</time></trkpt><trkpt lat="31.1334317" lon="-5.3968167"><ele>1177.8</ele><time>2026-04-23T13:57:35.936Z</time></trkpt><trkpt lat="31.1334" lon="-5.3969267"><ele>1178.6</ele><time>2026-04-23T13:57:36.936Z</time></trkpt><trkpt lat="31.1333733" lon="-5.3970317"><ele>1179.3999999999999</ele><time>2026-04-23T13:57:37.936Z</time></trkpt><trkpt lat="31.1333433" lon="-5.3971517"><ele>1180.2</ele><time>2026-04-23T13:57:38.936Z</time></trkpt><trkpt lat="31.1333133" lon="-5.3972817"><ele>1181.0</ele><time>2026-04-23T13:57:39.936Z</time></trkpt><trkpt lat="31.133265" lon="-5.3974067"><ele>1182.6</ele><time>2026-04-23T13:57:40.935Z</time></trkpt><trkpt lat="31.133215" lon="-5.3975233"><ele>1184.1999999999998</ele><time>2026-04-23T13:57:41.936Z</time></trkpt><trkpt lat="31.133155" lon="-5.397635"><ele>1185.8000000000002</ele><time>2026-04-23T13:57:42.935Z</time></trkpt><trkpt lat="31.13309" lon="-5.39774"><ele>1187.4</ele><time>2026-04-23T13:57:43.935Z</time></trkpt><trkpt lat="31.1330067" lon="-5.397825"><ele>1189.0</ele><time>2026-04-23T13:57:44.936Z</time></trkpt><trkpt lat="31.1329283" lon="-5.3979067"><ele>1189.0</ele><time>2026-04-23T13:57:45.935Z</time></trkpt><trkpt lat="31.1328567" lon="-5.3979883"><ele>1189.0</ele><time>2026-04-23T13:57:46.936Z</time></trkpt><trkpt lat="31.1327967" lon="-5.398085"><ele>1189.0</ele><time>2026-04-23T13:57:47.935Z</time></trkpt><trkpt lat="31.132735" lon="-5.398195"><ele>1189.0</ele><time>2026-04-23T13:57:48.935Z</time></trkpt><trkpt lat="31.1326733" lon="-5.3983017"><ele>1189.0</ele><time>2026-04-23T13:57:49.936Z</time></trkpt><trkpt lat="31.1326067" lon="-5.398405"><ele>1189.6666666666665</ele><time>2026-04-23T13:57:50.936Z</time></trkpt><trkpt lat="31.1325533" lon="-5.3984867"><ele>1190.3333333333333</ele><time>2026-04-23T13:57:51.936Z</time></trkpt><trkpt lat="31.1325167" lon="-5.398565"><ele>1191.0</ele><time>2026-04-23T13:57:52.935Z</time></trkpt><trkpt lat="31.1324933" lon="-5.39866"><ele>1191.6666666666667</ele><time>2026-04-23T13:57:53.935Z</time></trkpt><trkpt lat="31.1324883" lon="-5.398755"><ele>1192.3333333333335</ele><time>2026-04-23T13:57:54.936Z</time></trkpt><trkpt lat="31.1324883" lon="-5.3988533"><ele>1193.0</ele><time>2026-04-23T13:57:55.935Z</time></trkpt><trkpt lat="31.132505" lon="-5.398945"><ele>1193.3333333333335</ele><time>2026-04-23T13:57:56.935Z</time></trkpt><trkpt lat="31.1325217" lon="-5.3990283"><ele>1193.6666666666667</ele><time>2026-04-23T13:57:57.935Z</time></trkpt><trkpt lat="31.1325433" lon="-5.3991183"><ele>1194.0</ele><time>2026-04-23T13:57:58.936Z</time></trkpt><trkpt lat="31.1325767" lon="-5.3992083"><ele>1194.3333333333333</ele><time>2026-04-23T13:57:59.936Z</time></trkpt><trkpt lat="31.13261" lon="-5.399295"><ele>1194.6666666666665</ele><time>2026-04-23T13:58:00.935Z</time></trkpt><trkpt lat="31.1326367" lon="-5.39938"><ele>1195.0</ele><time>2026-04-23T13:58:01.936Z</time></trkpt><trkpt lat="31.1326667" lon="-5.399475"><ele>1195.0</ele><time>2026-04-23T13:58:02.936Z</time></trkpt><trkpt lat="31.132695" lon="-5.3995667"><ele>1195.0</ele><time>2026-04-23T13:58:03.936Z</time></trkpt><trkpt lat="31.1327367" lon="-5.399675"><ele>1195.0</ele><time>2026-04-23T13:58:04.936Z</time></trkpt><trkpt lat="31.132775" lon="-5.399785"><ele>1195.0</ele><time>2026-04-23T13:58:05.936Z</time></trkpt><trkpt lat="31.1328133" lon="-5.399905"><ele>1195.0</ele><time>2026-04-23T13:58:06.936Z</time></trkpt><trkpt lat="31.13285" lon="-5.4000167"><ele>1195.6</ele><time>2026-04-23T13:58:07.936Z</time></trkpt><trkpt lat="31.132885" lon="-5.4001333"><ele>1196.2</ele><time>2026-04-23T13:58:08.936Z</time></trkpt><trkpt lat="31.1329183" lon="-5.400255"><ele>1196.8</ele><time>2026-04-23T13:58:09.936Z</time></trkpt><trkpt lat="31.132955" lon="-5.4003717"><ele>1197.4</ele><time>2026-04-23T13:58:10.936Z</time></trkpt><trkpt lat="31.132995" lon="-5.4004867"><ele>1198.0</ele><time>2026-04-23T13:58:11.936Z</time></trkpt><trkpt lat="31.1330283" lon="-5.40059"><ele>1198.4</ele><time>2026-04-23T13:58:12.935Z</time></trkpt><trkpt lat="31.13307" lon="-5.400685"><ele>1198.8</ele><time>2026-04-23T13:58:13.936Z</time></trkpt><trkpt lat="31.1331067" lon="-5.400795"><ele>1199.2</ele><time>2026-04-23T13:58:14.935Z</time></trkpt><trkpt lat="31.1331383" lon="-5.400915"><ele>1199.6</ele><time>2026-04-23T13:58:15.935Z</time></trkpt><trkpt lat="31.13317" lon="-5.4010367"><ele>1200.0</ele><time>2026-04-23T13:58:16.936Z</time></trkpt><trkpt lat="31.1331883" lon="-5.401155"><ele>1200.0</ele><time>2026-04-23T13:58:17.936Z</time></trkpt><trkpt lat="31.1332033" lon="-5.4012767"><ele>1200.0</ele><time>2026-04-23T13:58:18.936Z</time></trkpt><trkpt lat="31.1332117" lon="-5.401385"><ele>1200.0</ele><time>2026-04-23T13:58:19.936Z</time></trkpt><trkpt lat="31.133205" lon="-5.40149"><ele>1200.0</ele><time>2026-04-23T13:58:20.935Z</time></trkpt><trkpt lat="31.1331917" lon="-5.4015817"><ele>1200.0</ele><time>2026-04-23T13:58:21.936Z</time></trkpt><trkpt lat="31.133165" lon="-5.4016917"><ele>1200.5</ele><time>2026-04-23T13:58:22.936Z</time></trkpt><trkpt lat="31.1331283" lon="-5.4018067"><ele>1201.0</ele><time>2026-04-23T13:58:23.936Z</time></trkpt><trkpt lat="31.1330917" lon="-5.4019267"><ele>1201.5</ele><time>2026-04-23T13:58:24.936Z</time></trkpt><trkpt lat="31.1330433" lon="-5.40205"><ele>1202.0</ele><time>2026-04-23T13:58:25.935Z</time></trkpt><trkpt lat="31.1329833" lon="-5.4021767"><ele>1202.25</ele><time>2026-04-23T13:58:26.936Z</time></trkpt><trkpt lat="31.1329167" lon="-5.402315"><ele>1202.5</ele><time>2026-04-23T13:58:27.936Z</time></trkpt><trkpt lat="31.1328667" lon="-5.402455"><ele>1202.75</ele><time>2026-04-23T13:58:28.936Z</time></trkpt><trkpt lat="31.1328183" lon="-5.4026117"><ele>1203.0</ele><time>2026-04-23T13:58:29.936Z</time></trkpt><trkpt lat="31.1327833" lon="-5.4027567"><ele>1203.0</ele><time>2026-04-23T13:58:30.936Z</time></trkpt><trkpt lat="31.13277" lon="-5.4028767"><ele>1203.0</ele><time>2026-04-23T13:58:31.936Z</time></trkpt><trkpt lat="31.132755" lon="-5.40298"><ele>1203.0</ele><time>2026-04-23T13:58:32.936Z</time></trkpt><trkpt lat="31.1327333" lon="-5.40307"><ele>1203.0</ele><time>2026-04-23T13:58:33.936Z</time></trkpt><trkpt lat="31.1327067" lon="-5.40315"><ele>1203.0</ele><time>2026-04-23T13:58:34.936Z</time></trkpt><trkpt lat="31.1326667" lon="-5.4032183"><ele>1203.0</ele><time>2026-04-23T13:58:35.936Z</time></trkpt><trkpt lat="31.1326183" lon="-5.403275"><ele>1203.8</ele><time>2026-04-23T13:58:36.936Z</time></trkpt><trkpt lat="31.1325533" lon="-5.4033217"><ele>1204.6</ele><time>2026-04-23T13:58:37.936Z</time></trkpt><trkpt lat="31.132475" lon="-5.4033733"><ele>1205.4</ele><time>2026-04-23T13:58:38.936Z</time></trkpt><trkpt lat="31.1323933" lon="-5.4034283"><ele>1206.2</ele><time>2026-04-23T13:58:39.936Z</time></trkpt><trkpt lat="31.1323033" lon="-5.4034767"><ele>1207.0</ele><time>2026-04-23T13:58:40.936Z</time></trkpt><trkpt lat="31.1322117" lon="-5.4035267"><ele>1208.0</ele><time>2026-04-23T13:58:41.936Z</time></trkpt><trkpt lat="31.13212" lon="-5.4035767"><ele>1209.0</ele><time>2026-04-23T13:58:42.936Z</time></trkpt><trkpt lat="31.1320283" lon="-5.403625"><ele>1210.0</ele><time>2026-04-23T13:58:43.935Z</time></trkpt><trkpt lat="31.1319333" lon="-5.4036733"><ele>1211.0</ele><time>2026-04-23T13:58:44.936Z</time></trkpt><trkpt lat="31.1318383" lon="-5.4037417"><ele>1212.0</ele><time>2026-04-23T13:58:45.936Z</time></trkpt><trkpt lat="31.13175" lon="-5.4037983"><ele>1211.8</ele><time>2026-04-23T13:58:46.936Z</time></trkpt><trkpt lat="31.1316567" lon="-5.40385"><ele>1211.6</ele><time>2026-04-23T13:58:47.935Z</time></trkpt><trkpt lat="31.1315567" lon="-5.403905"><ele>1211.3999999999999</ele><time>2026-04-23T13:58:48.935Z</time></trkpt><trkpt lat="31.1314633" lon="-5.4039717"><ele>1211.2</ele><time>2026-04-23T13:58:49.936Z</time></trkpt><trkpt lat="31.1313683" lon="-5.4040483"><ele>1211.0</ele><time>2026-04-23T13:58:50.936Z</time></trkpt><trkpt lat="31.1312833" lon="-5.40412"><ele>1212.8</ele><time>2026-04-23T13:58:51.936Z</time></trkpt><trkpt lat="31.131205" lon="-5.4042017"><ele>1214.6</ele><time>2026-04-23T13:58:52.936Z</time></trkpt><trkpt lat="31.1311417" lon="-5.4042967"><ele>1216.4</ele><time>2026-04-23T13:58:53.936Z</time></trkpt><trkpt lat="31.13107" lon="-5.4043967"><ele>1218.2</ele><time>2026-04-23T13:58:54.935Z</time></trkpt><trkpt lat="31.1310033" lon="-5.40449"><ele>1220.0</ele><time>2026-04-23T13:58:55.936Z</time></trkpt><trkpt lat="31.13094" lon="-5.4045867"><ele>1219.4</ele><time>2026-04-23T13:58:56.936Z</time></trkpt><trkpt lat="31.1308883" lon="-5.4047"><ele>1218.8</ele><time>2026-04-23T13:58:57.935Z</time></trkpt><trkpt lat="31.130855" lon="-5.4048233"><ele>1218.2</ele><time>2026-04-23T13:58:58.935Z</time></trkpt><trkpt lat="31.13083" lon="-5.4049483"><ele>1217.6</ele><time>2026-04-23T13:58:59.936Z</time></trkpt><trkpt lat="31.1308067" lon="-5.405045"><ele>1217.0</ele><time>2026-04-23T13:59:00.935Z</time></trkpt><trkpt lat="31.1307717" lon="-5.405155"><ele>1217.0</ele><time>2026-04-23T13:59:01.936Z</time></trkpt><trkpt lat="31.1307333" lon="-5.40527"><ele>1217.0</ele><time>2026-04-23T13:59:02.936Z</time></trkpt><trkpt lat="31.13069" lon="-5.4053933"><ele>1217.0</ele><time>2026-04-23T13:59:03.936Z</time></trkpt><trkpt lat="31.1306517" lon="-5.4055083"><ele>1217.0</ele><time>2026-04-23T13:59:04.936Z</time></trkpt><trkpt lat="31.130605" lon="-5.40561"><ele>1217.0</ele><time>2026-04-23T13:59:05.936Z</time></trkpt><trkpt lat="31.1305583" lon="-5.4057083"><ele>1218.6</ele><time>2026-04-23T13:59:06.936Z</time></trkpt><trkpt lat="31.13052" lon="-5.4058033"><ele>1220.2</ele><time>2026-04-23T13:59:07.936Z</time></trkpt><trkpt lat="31.13049" lon="-5.4059033"><ele>1221.8</ele><time>2026-04-23T13:59:08.935Z</time></trkpt><trkpt lat="31.130475" lon="-5.40601"><ele>1223.4</ele><time>2026-04-23T13:59:09.935Z</time></trkpt><trkpt lat="31.1304417" lon="-5.4061133"><ele>1225.0</ele><time>2026-04-23T13:59:10.936Z</time></trkpt><trkpt lat="31.1304083" lon="-5.4062233"><ele>1225.5</ele><time>2026-04-23T13:59:11.936Z</time></trkpt><trkpt lat="31.13037" lon="-5.4063317"><ele>1226.0</ele><time>2026-04-23T13:59:12.936Z</time></trkpt><trkpt lat="31.130335" lon="-5.4064567"><ele>1226.5</ele><time>2026-04-23T13:59:13.936Z</time></trkpt><trkpt lat="31.130295" lon="-5.40659"><ele>1227.0</ele><time>2026-04-23T13:59:14.936Z</time></trkpt><trkpt lat="31.1302533" lon="-5.4067433"><ele>1227.0</ele><time>2026-04-23T13:59:15.935Z</time></trkpt><trkpt lat="31.1302317" lon="-5.4068967"><ele>1227.0</ele><time>2026-04-23T13:59:16.936Z</time></trkpt><trkpt lat="31.130215" lon="-5.40704"><ele>1227.0</ele><time>2026-04-23T13:59:17.935Z</time></trkpt><trkpt lat="31.1301983" lon="-5.4071767"><ele>1227.0</ele><time>2026-04-23T13:59:18.935Z</time></trkpt><trkpt lat="31.1301817" lon="-5.4073"><ele>1226.8</ele><time>2026-04-23T13:59:19.936Z</time></trkpt><trkpt lat="31.1301633" lon="-5.40742"><ele>1226.6</ele><time>2026-04-23T13:59:20.935Z</time></trkpt><trkpt lat="31.1301483" lon="-5.407535"><ele>1226.3999999999999</ele><time>2026-04-23T13:59:21.936Z</time></trkpt><trkpt lat="31.1301233" lon="-5.4076417"><ele>1226.2</ele><time>2026-04-23T13:59:22.936Z</time></trkpt><trkpt lat="31.1300867" lon="-5.40775"><ele>1226.0</ele><time>2026-04-23T13:59:23.936Z</time></trkpt><trkpt lat="31.1300483" lon="-5.4078617"><ele>1226.0</ele><time>2026-04-23T13:59:24.936Z</time></trkpt><trkpt lat="31.13001" lon="-5.4079817"><ele>1226.0</ele><time>2026-04-23T13:59:25.936Z</time></trkpt><trkpt lat="31.129975" lon="-5.4081033"><ele>1226.0</ele><time>2026-04-23T13:59:26.936Z</time></trkpt><trkpt lat="31.12994" lon="-5.4082283"><ele>1226.0</ele><time>2026-04-23T13:59:27.935Z</time></trkpt><trkpt lat="31.1299017" lon="-5.4083517"><ele>1226.0</ele><time>2026-04-23T13:59:28.935Z</time></trkpt><trkpt lat="31.1298617" lon="-5.40847"><ele>1229.5</ele><time>2026-04-23T13:59:29.936Z</time></trkpt><trkpt lat="31.1298133" lon="-5.408585"><ele>1233.0</ele><time>2026-04-23T13:59:30.936Z</time></trkpt><trkpt lat="31.1297533" lon="-5.4086983"><ele>1236.5</ele><time>2026-04-23T13:59:31.936Z</time></trkpt><trkpt lat="31.1296917" lon="-5.4088217"><ele>1240.0</ele><time>2026-04-23T13:59:32.935Z</time></trkpt><trkpt lat="31.1296233" lon="-5.40893"><ele>1240.0</ele><time>2026-04-23T13:59:33.936Z</time></trkpt><trkpt lat="31.1295717" lon="-5.4090417"><ele>1240.0</ele><time>2026-04-23T13:59:34.936Z</time></trkpt><trkpt lat="31.1295233" lon="-5.409145"><ele>1240.0</ele><time>2026-04-23T13:59:35.936Z</time></trkpt><trkpt lat="31.1294983" lon="-5.4092567"><ele>1240.0</ele><time>2026-04-23T13:59:36.936Z</time></trkpt><trkpt lat="31.129485" lon="-5.40937"><ele>1240.0</ele><time>2026-04-23T13:59:37.936Z</time></trkpt><trkpt lat="31.1294917" lon="-5.4094783"><ele>1240.0</ele><time>2026-04-23T13:59:38.936Z</time></trkpt><trkpt lat="31.1294967" lon="-5.40959"><ele>1240.0</ele><time>2026-04-23T13:59:39.936Z</time></trkpt><trkpt lat="31.12949" lon="-5.4097067"><ele>1240.0</ele><time>2026-04-23T13:59:40.936Z</time></trkpt><trkpt lat="31.1294783" lon="-5.4098317"><ele>1240.0</ele><time>2026-04-23T13:59:41.935Z</time></trkpt><trkpt lat="31.129475" lon="-5.4099517"><ele>1240.0</ele><time>2026-04-23T13:59:42.935Z</time></trkpt><trkpt lat="31.1294817" lon="-5.4100633"><ele>1240.4</ele><time>2026-04-23T13:59:43.936Z</time></trkpt><trkpt lat="31.129495" lon="-5.4101817"><ele>1240.8</ele><time>2026-04-23T13:59:44.935Z</time></trkpt><trkpt lat="31.1295017" lon="-5.4103083"><ele>1241.2</ele><time>2026-04-23T13:59:45.936Z</time></trkpt><trkpt lat="31.1294933" lon="-5.410445"><ele>1241.6</ele><time>2026-04-23T13:59:46.936Z</time></trkpt><trkpt lat="31.1294883" lon="-5.4105867"><ele>1242.0</ele><time>2026-04-23T13:59:47.935Z</time></trkpt><trkpt lat="31.1294783" lon="-5.4107283"><ele>1242.0</ele><time>2026-04-23T13:59:48.936Z</time></trkpt><trkpt lat="31.1294767" lon="-5.4108683"><ele>1242.0</ele><time>2026-04-23T13:59:49.935Z</time></trkpt><trkpt lat="31.1294783" lon="-5.411015"><ele>1242.0</ele><time>2026-04-23T13:59:50.936Z</time></trkpt><trkpt lat="31.1294717" lon="-5.411165"><ele>1242.0</ele><time>2026-04-23T13:59:51.936Z</time></trkpt><trkpt lat="31.1294617" lon="-5.4113067"><ele>1241.75</ele><time>2026-04-23T13:59:52.936Z</time></trkpt><trkpt lat="31.1294467" lon="-5.411445"><ele>1241.5</ele><time>2026-04-23T13:59:53.935Z</time></trkpt><trkpt lat="31.12943" lon="-5.411575"><ele>1241.25</ele><time>2026-04-23T13:59:54.935Z</time></trkpt><trkpt lat="31.1294233" lon="-5.4117233"><ele>1241.0</ele><time>2026-04-23T13:59:55.936Z</time></trkpt><trkpt lat="31.1294117" lon="-5.4118617"><ele>1241.0</ele><time>2026-04-23T13:59:56.936Z</time></trkpt><trkpt lat="31.1293917" lon="-5.4120117"><ele>1241.0</ele><time>2026-04-23T13:59:57.936Z</time></trkpt><trkpt lat="31.1293867" lon="-5.41217"><ele>1241.0</ele><time>2026-04-23T13:59:58.936Z</time></trkpt><trkpt lat="31.12938" lon="-5.4123267"><ele>1241.0</ele><time>2026-04-23T13:59:59.935Z</time></trkpt><trkpt lat="31.12937" lon="-5.4124733"><ele>1241.2</ele><time>2026-04-23T14:00:00.936Z</time></trkpt><trkpt lat="31.1293617" lon="-5.4126017"><ele>1241.3999999999999</ele><time>2026-04-23T14:00:01.936Z</time></trkpt><trkpt lat="31.129355" lon="-5.4127217"><ele>1241.6</ele><time>2026-04-23T14:00:02.936Z</time></trkpt><trkpt lat="31.129365" lon="-5.412835"><ele>1241.8</ele><time>2026-04-23T14:00:03.936Z</time></trkpt><trkpt lat="31.12938" lon="-5.4129417"><ele>1242.0</ele><time>2026-04-23T14:00:04.936Z</time></trkpt><trkpt lat="31.129395" lon="-5.413045"><ele>1242.0</ele><time>2026-04-23T14:00:05.936Z</time></trkpt><trkpt lat="31.129405" lon="-5.4131633"><ele>1242.0</ele><time>2026-04-23T14:00:06.936Z</time></trkpt><trkpt lat="31.129415" lon="-5.413275"><ele>1242.0</ele><time>2026-04-23T14:00:07.935Z</time></trkpt><trkpt lat="31.129425" lon="-5.413375"><ele>1242.0</ele><time>2026-04-23T14:00:08.935Z</time></trkpt><trkpt lat="31.12942" lon="-5.4134783"><ele>1242.0</ele><time>2026-04-23T14:00:09.936Z</time></trkpt><trkpt lat="31.1294083" lon="-5.4135767"><ele>1242.0</ele><time>2026-04-23T14:00:10.936Z</time></trkpt><trkpt lat="31.129385" lon="-5.413675"><ele>1242.0</ele><time>2026-04-23T14:00:11.936Z</time></trkpt><trkpt lat="31.1293583" lon="-5.4137667"><ele>1242.0</ele><time>2026-04-23T14:00:12.936Z</time></trkpt><trkpt lat="31.1293267" lon="-5.4138567"><ele>1242.0</ele><time>2026-04-23T14:00:13.936Z</time></trkpt><trkpt lat="31.1292883" lon="-5.4139483"><ele>1242.0</ele><time>2026-04-23T14:00:14.936Z</time></trkpt><trkpt lat="31.1292483" lon="-5.41403"><ele>1242.0</ele><time>2026-04-23T14:00:15.936Z</time></trkpt><trkpt lat="31.1291983" lon="-5.41412"><ele>1240.4</ele><time>2026-04-23T14:00:16.936Z</time></trkpt><trkpt lat="31.1291733" lon="-5.4142083"><ele>1238.8000000000002</ele><time>2026-04-23T14:00:17.935Z</time></trkpt><trkpt lat="31.12916" lon="-5.4143083"><ele>1237.2</ele><time>2026-04-23T14:00:18.936Z</time></trkpt><trkpt lat="31.1291617" lon="-5.4144133"><ele>1235.6000000000001</ele><time>2026-04-23T14:00:19.936Z</time></trkpt><trkpt lat="31.1291533" lon="-5.4145417"><ele>1234.0</ele><time>2026-04-23T14:00:20.936Z</time></trkpt><trkpt lat="31.1291417" lon="-5.41468"><ele>1234.0</ele><time>2026-04-23T14:00:21.936Z</time></trkpt><trkpt lat="31.1291333" lon="-5.41483"><ele>1234.0</ele><time>2026-04-23T14:00:22.936Z</time></trkpt><trkpt lat="31.1291283" lon="-5.4149717"><ele>1234.0</ele><time>2026-04-23T14:00:23.936Z</time></trkpt><trkpt lat="31.129115" lon="-5.4151117"><ele>1234.0</ele><time>2026-04-23T14:00:24.936Z</time></trkpt><trkpt lat="31.1290983" lon="-5.41524"><ele>1234.0</ele><time>2026-04-23T14:00:25.936Z</time></trkpt><trkpt lat="31.1290817" lon="-5.415355"><ele>1234.0</ele><time>2026-04-23T14:00:26.936Z</time></trkpt><trkpt lat="31.1290767" lon="-5.41546"><ele>1234.0</ele><time>2026-04-23T14:00:27.935Z</time></trkpt><trkpt lat="31.1290733" lon="-5.4155483"><ele>1234.0</ele><time>2026-04-23T14:00:28.935Z</time></trkpt><trkpt lat="31.1290517" lon="-5.4156233"><ele>1234.0</ele><time>2026-04-23T14:00:29.935Z</time></trkpt><trkpt lat="31.1290083" lon="-5.4156983"><ele>1234.0</ele><time>2026-04-23T14:00:30.935Z</time></trkpt><trkpt lat="31.1289433" lon="-5.4157683"><ele>1236.25</ele><time>2026-04-23T14:00:31.936Z</time></trkpt><trkpt lat="31.12886" lon="-5.4158383"><ele>1238.5</ele><time>2026-04-23T14:00:32.936Z</time></trkpt><trkpt lat="31.1287633" lon="-5.4159117"><ele>1240.75</ele><time>2026-04-23T14:00:33.936Z</time></trkpt><trkpt lat="31.128655" lon="-5.4159917"><ele>1243.0</ele><time>2026-04-23T14:00:34.936Z</time></trkpt><trkpt lat="31.1285417" lon="-5.4160783"><ele>1243.0</ele><time>2026-04-23T14:00:35.935Z</time></trkpt><trkpt lat="31.1284267" lon="-5.4161683"><ele>1243.0</ele><time>2026-04-23T14:00:36.935Z</time></trkpt><trkpt lat="31.1283017" lon="-5.416265"><ele>1243.0</ele><time>2026-04-23T14:00:37.936Z</time></trkpt><trkpt lat="31.128175" lon="-5.4163733"><ele>1243.0</ele><time>2026-04-23T14:00:38.936Z</time></trkpt><trkpt lat="31.1280417" lon="-5.41648"><ele>1243.75</ele><time>2026-04-23T14:00:39.936Z</time></trkpt><trkpt lat="31.1279067" lon="-5.4165817"><ele>1244.5</ele><time>2026-04-23T14:00:40.936Z</time></trkpt><trkpt lat="31.1277833" lon="-5.4166767"><ele>1245.25</ele><time>2026-04-23T14:00:41.936Z</time></trkpt><trkpt lat="31.12768" lon="-5.4167633"><ele>1246.0</ele><time>2026-04-23T14:00:42.936Z</time></trkpt><trkpt lat="31.127585" lon="-5.4168433"><ele>1246.0</ele><time>2026-04-23T14:00:43.936Z</time></trkpt><trkpt lat="31.12748" lon="-5.4169233"><ele>1246.0</ele><time>2026-04-23T14:00:44.935Z</time></trkpt><trkpt lat="31.127375" lon="-5.4170117"><ele>1246.0</ele><time>2026-04-23T14:00:45.936Z</time></trkpt><trkpt lat="31.1272883" lon="-5.4171067"><ele>1246.0</ele><time>2026-04-23T14:00:46.936Z</time></trkpt><trkpt lat="31.127215" lon="-5.417205"><ele>1247.3999999999999</ele><time>2026-04-23T14:00:47.936Z</time></trkpt><trkpt lat="31.1271617" lon="-5.4172967"><ele>1248.8</ele><time>2026-04-23T14:00:48.936Z</time></trkpt><trkpt lat="31.12713" lon="-5.4174083"><ele>1250.1999999999998</ele><time>2026-04-23T14:00:49.935Z</time></trkpt><trkpt lat="31.1271183" lon="-5.4175183"><ele>1251.6</ele><time>2026-04-23T14:00:50.936Z</time></trkpt><trkpt lat="31.1271167" lon="-5.41764"><ele>1253.0</ele><time>2026-04-23T14:00:51.936Z</time></trkpt><trkpt lat="31.1271217" lon="-5.417775"><ele>1253.0</ele><time>2026-04-23T14:00:52.936Z</time></trkpt><trkpt lat="31.1271317" lon="-5.41792"><ele>1253.0</ele><time>2026-04-23T14:00:53.936Z</time></trkpt><trkpt lat="31.12714" lon="-5.4180567"><ele>1253.0</ele><time>2026-04-23T14:00:54.936Z</time></trkpt><trkpt lat="31.1271467" lon="-5.418185"><ele>1253.0</ele><time>2026-04-23T14:00:55.936Z</time></trkpt><trkpt lat="31.1271567" lon="-5.41831"><ele>1253.25</ele><time>2026-04-23T14:00:56.935Z</time></trkpt><trkpt lat="31.1271733" lon="-5.418445"><ele>1253.5</ele><time>2026-04-23T14:00:57.936Z</time></trkpt><trkpt lat="31.1271783" lon="-5.4185867"><ele>1253.75</ele><time>2026-04-23T14:00:58.935Z</time></trkpt><trkpt lat="31.1271833" lon="-5.41873"><ele>1254.0</ele><time>2026-04-23T14:00:59.936Z</time></trkpt><trkpt lat="31.127185" lon="-5.4188617"><ele>1255.0</ele><time>2026-04-23T14:01:00.935Z</time></trkpt><trkpt lat="31.127195" lon="-5.418995"><ele>1256.0</ele><time>2026-04-23T14:01:01.936Z</time></trkpt><trkpt lat="31.1272033" lon="-5.4191333"><ele>1257.0</ele><time>2026-04-23T14:01:02.936Z</time></trkpt><trkpt lat="31.1272117" lon="-5.419275"><ele>1258.0</ele><time>2026-04-23T14:01:03.936Z</time></trkpt><trkpt lat="31.12722" lon="-5.4194"><ele>1258.0</ele><time>2026-04-23T14:01:04.936Z</time></trkpt><trkpt lat="31.12723" lon="-5.4195217"><ele>1258.0</ele><time>2026-04-23T14:01:05.936Z</time></trkpt><trkpt lat="31.1272317" lon="-5.4196483"><ele>1258.0</ele><time>2026-04-23T14:01:06.936Z</time></trkpt><trkpt lat="31.1272333" lon="-5.4197683"><ele>1258.0</ele><time>2026-04-23T14:01:07.936Z</time></trkpt><trkpt lat="31.1272417" lon="-5.4198683"><ele>1258.0</ele><time>2026-04-23T14:01:08.936Z</time></trkpt><trkpt lat="31.12725" lon="-5.419955"><ele>1257.8333333333333</ele><time>2026-04-23T14:01:09.935Z</time></trkpt><trkpt lat="31.1272517" lon="-5.4200383"><ele>1257.6666666666665</ele><time>2026-04-23T14:01:10.935Z</time></trkpt><trkpt lat="31.1272383" lon="-5.4201233"><ele>1257.5</ele><time>2026-04-23T14:01:11.935Z</time></trkpt><trkpt lat="31.1271983" lon="-5.4202167"><ele>1257.3333333333333</ele><time>2026-04-23T14:01:12.935Z</time></trkpt><trkpt lat="31.1271433" lon="-5.4203117"><ele>1257.1666666666667</ele><time>2026-04-23T14:01:13.936Z</time></trkpt><trkpt lat="31.1270733" lon="-5.4204083"><ele>1257.0</ele><time>2026-04-23T14:01:14.936Z</time></trkpt><trkpt lat="31.1269983" lon="-5.4205167"><ele>1257.0</ele><time>2026-04-23T14:01:15.936Z</time></trkpt><trkpt lat="31.126915" lon="-5.4206367"><ele>1257.0</ele><time>2026-04-23T14:01:16.935Z</time></trkpt><trkpt lat="31.12682" lon="-5.4207667"><ele>1257.0</ele><time>2026-04-23T14:01:17.935Z</time></trkpt><trkpt lat="31.126725" lon="-5.420895"><ele>1257.0</ele><time>2026-04-23T14:01:18.936Z</time></trkpt><trkpt lat="31.1266433" lon="-5.421015"><ele>1257.0</ele><time>2026-04-23T14:01:19.935Z</time></trkpt><trkpt lat="31.1265767" lon="-5.42112"><ele>1257.0</ele><time>2026-04-23T14:01:20.936Z</time></trkpt><trkpt lat="31.126515" lon="-5.4212117"><ele>1257.0</ele><time>2026-04-23T14:01:21.936Z</time></trkpt><trkpt lat="31.12646" lon="-5.4212933"><ele>1257.0</ele><time>2026-04-23T14:01:22.935Z</time></trkpt><trkpt lat="31.1263983" lon="-5.42136"><ele>1257.0</ele><time>2026-04-23T14:01:23.935Z</time></trkpt><trkpt lat="31.1263333" lon="-5.4214217"><ele>1257.5</ele><time>2026-04-23T14:01:24.936Z</time></trkpt><trkpt lat="31.126265" lon="-5.4214717"><ele>1258.0</ele><time>2026-04-23T14:01:25.935Z</time></trkpt><trkpt lat="31.1262" lon="-5.4215183"><ele>1258.5</ele><time>2026-04-23T14:01:26.936Z</time></trkpt><trkpt lat="31.1261467" lon="-5.4215583"><ele>1259.0</ele><time>2026-04-23T14:01:27.936Z</time></trkpt><trkpt lat="31.12609" lon="-5.4216317"><ele>1259.5</ele><time>2026-04-23T14:01:29.935Z</time></trkpt><trkpt lat="31.1260883" lon="-5.4217367"><ele>1260.0</ele><time>2026-04-23T14:01:31.936Z</time></trkpt><trkpt lat="31.1261267" lon="-5.4218217"><ele>1260.0</ele><time>2026-04-23T14:01:33.936Z</time></trkpt><trkpt lat="31.126185" lon="-5.4219017"><ele>1260.0</ele><time>2026-04-23T14:01:35.935Z</time></trkpt><trkpt lat="31.126215" lon="-5.4219933"><ele>1260.0</ele><time>2026-04-23T14:01:37.936Z</time></trkpt><trkpt lat="31.1261617" lon="-5.4221017"><ele>1260.0</ele><time>2026-04-23T14:01:39.936Z</time></trkpt><trkpt lat="31.1260733" lon="-5.4221867"><ele>1260.0</ele><time>2026-04-23T14:01:41.935Z</time></trkpt><trkpt lat="31.126025" lon="-5.4222367"><ele>1260.857142857143</ele><time>2026-04-23T14:01:42.935Z</time></trkpt><trkpt lat="31.1259883" lon="-5.4222967"><ele>1261.7142857142858</ele><time>2026-04-23T14:01:43.936Z</time></trkpt><trkpt lat="31.1259583" lon="-5.422365"><ele>1262.5714285714284</ele><time>2026-04-23T14:01:44.935Z</time></trkpt><trkpt lat="31.12594" lon="-5.422445"><ele>1263.4285714285716</ele><time>2026-04-23T14:01:45.936Z</time></trkpt><trkpt lat="31.1259267" lon="-5.4225233"><ele>1264.2857142857142</ele><time>2026-04-23T14:01:46.936Z</time></trkpt><trkpt lat="31.1259083" lon="-5.4226083"><ele>1265.142857142857</ele><time>2026-04-23T14:01:47.935Z</time></trkpt><trkpt lat="31.1258833" lon="-5.422705"><ele>1266.0</ele><time>2026-04-23T14:01:48.936Z</time></trkpt><trkpt lat="31.1258517" lon="-5.42281"><ele>1266.0</ele><time>2026-04-23T14:01:49.936Z</time></trkpt><trkpt lat="31.1258283" lon="-5.422925"><ele>1266.0</ele><time>2026-04-23T14:01:50.936Z</time></trkpt><trkpt lat="31.1258067" lon="-5.4230433"><ele>1266.0</ele><time>2026-04-23T14:01:51.935Z</time></trkpt><trkpt lat="31.1257833" lon="-5.4231517"><ele>1266.0</ele><time>2026-04-23T14:01:52.936Z</time></trkpt><trkpt lat="31.125765" lon="-5.4232483"><ele>1266.0</ele><time>2026-04-23T14:01:53.936Z</time></trkpt><trkpt lat="31.125745" lon="-5.423335"><ele>1269.6666666666667</ele><time>2026-04-23T14:01:54.935Z</time></trkpt><trkpt lat="31.1257117" lon="-5.423425"><ele>1273.3333333333333</ele><time>2026-04-23T14:01:55.934Z</time></trkpt><trkpt lat="31.1256633" lon="-5.423515"><ele>1277.0</ele><time>2026-04-23T14:01:56.935Z</time></trkpt><trkpt lat="31.1256117" lon="-5.4236"><ele>1280.6666666666665</ele><time>2026-04-23T14:01:57.934Z</time></trkpt><trkpt lat="31.1255717" lon="-5.4236783"><ele>1284.3333333333333</ele><time>2026-04-23T14:01:58.935Z</time></trkpt><trkpt lat="31.1255483" lon="-5.4237633"><ele>1288.0</ele><time>2026-04-23T14:01:59.934Z</time></trkpt><trkpt lat="31.12553" lon="-5.42386"><ele>1288.8333333333333</ele><time>2026-04-23T14:02:00.935Z</time></trkpt><trkpt lat="31.1255233" lon="-5.42396"><ele>1289.6666666666665</ele><time>2026-04-23T14:02:01.935Z</time></trkpt><trkpt lat="31.1255117" lon="-5.4240583"><ele>1290.5</ele><time>2026-04-23T14:02:02.935Z</time></trkpt><trkpt lat="31.1255033" lon="-5.4241483"><ele>1291.3333333333333</ele><time>2026-04-23T14:02:03.935Z</time></trkpt><trkpt lat="31.1254867" lon="-5.4242483"><ele>1292.1666666666667</ele><time>2026-04-23T14:02:04.935Z</time></trkpt><trkpt lat="31.125475" lon="-5.42436"><ele>1293.0</ele><time>2026-04-23T14:02:05.935Z</time></trkpt><trkpt lat="31.125475" lon="-5.424455"><ele>1293.0</ele><time>2026-04-23T14:02:06.935Z</time></trkpt><trkpt lat="31.1254967" lon="-5.4245333"><ele>1293.0</ele><time>2026-04-23T14:02:07.934Z</time></trkpt><trkpt lat="31.12554" lon="-5.4246067"><ele>1293.0</ele><time>2026-04-23T14:02:08.935Z</time></trkpt><trkpt lat="31.1255833" lon="-5.4246783"><ele>1293.0</ele><time>2026-04-23T14:02:09.934Z</time></trkpt><trkpt lat="31.1256167" lon="-5.4247483"><ele>1293.0</ele><time>2026-04-23T14:02:10.934Z</time></trkpt><trkpt lat="31.12563" lon="-5.4248333"><ele>1293.0</ele><time>2026-04-23T14:02:11.935Z</time></trkpt><trkpt lat="31.1256383" lon="-5.4249267"><ele>1293.0</ele><time>2026-04-23T14:02:12.934Z</time></trkpt><trkpt lat="31.125635" lon="-5.4250283"><ele>1293.0</ele><time>2026-04-23T14:02:13.935Z</time></trkpt><trkpt lat="31.1256183" lon="-5.4251217"><ele>1293.0</ele><time>2026-04-23T14:02:14.935Z</time></trkpt><trkpt lat="31.1255967" lon="-5.4252"><ele>1293.0</ele><time>2026-04-23T14:02:15.934Z</time></trkpt><trkpt lat="31.1255517" lon="-5.4252767"><ele>1293.0</ele><time>2026-04-23T14:02:16.935Z</time></trkpt><trkpt lat="31.1254933" lon="-5.42534"><ele>1293.0</ele><time>2026-04-23T14:02:17.934Z</time></trkpt><trkpt lat="31.1254367" lon="-5.4254067"><ele>1293.0</ele><time>2026-04-23T14:02:18.935Z</time></trkpt><trkpt lat="31.1253933" lon="-5.42546"><ele>1292.6666666666667</ele><time>2026-04-23T14:02:19.935Z</time></trkpt><trkpt lat="31.1253567" lon="-5.4255733"><ele>1292.3333333333333</ele><time>2026-04-23T14:02:21.935Z</time></trkpt><trkpt lat="31.1254" lon="-5.4256983"><ele>1292.0</ele><time>2026-04-23T14:02:23.935Z</time></trkpt><trkpt lat="31.125435" lon="-5.425765"><ele>1291.6666666666665</ele><time>2026-04-23T14:02:24.935Z</time></trkpt><trkpt lat="31.12547" lon="-5.4258417"><ele>1291.3333333333333</ele><time>2026-04-23T14:02:25.935Z</time></trkpt><trkpt lat="31.125485" lon="-5.4259167"><ele>1291.0</ele><time>2026-04-23T14:02:26.934Z</time></trkpt><trkpt lat="31.1254933" lon="-5.42599"><ele>1291.0</ele><time>2026-04-23T14:02:27.934Z</time></trkpt><trkpt lat="31.125505" lon="-5.4260717"><ele>1291.0</ele><time>2026-04-23T14:02:28.935Z</time></trkpt><trkpt lat="31.1255083" lon="-5.4261667"><ele>1291.0</ele><time>2026-04-23T14:02:29.935Z</time></trkpt><trkpt lat="31.125505" lon="-5.426265"><ele>1291.0</ele><time>2026-04-23T14:02:30.934Z</time></trkpt><trkpt lat="31.1254883" lon="-5.426375"><ele>1291.0</ele><time>2026-04-23T14:02:31.934Z</time></trkpt><trkpt lat="31.12547" lon="-5.4264783"><ele>1291.0</ele><time>2026-04-23T14:02:32.935Z</time></trkpt><trkpt lat="31.1254383" lon="-5.4265833"><ele>1292.2857142857142</ele><time>2026-04-23T14:02:33.935Z</time></trkpt><trkpt lat="31.125405" lon="-5.4266817"><ele>1293.5714285714284</ele><time>2026-04-23T14:02:34.934Z</time></trkpt><trkpt lat="31.12538" lon="-5.42676"><ele>1294.8571428571427</ele><time>2026-04-23T14:02:35.934Z</time></trkpt><trkpt lat="31.1253733" lon="-5.426835"><ele>1296.142857142857</ele><time>2026-04-23T14:02:36.934Z</time></trkpt><trkpt lat="31.12539" lon="-5.4269067"><ele>1297.4285714285716</ele><time>2026-04-23T14:02:37.935Z</time></trkpt><trkpt lat="31.1254283" lon="-5.4269733"><ele>1298.7142857142856</ele><time>2026-04-23T14:02:38.935Z</time></trkpt><trkpt lat="31.12548" lon="-5.427045"><ele>1300.0</ele><time>2026-04-23T14:02:39.935Z</time></trkpt><trkpt lat="31.1255233" lon="-5.4271017"><ele>1300.0</ele><time>2026-04-23T14:02:40.934Z</time></trkpt><trkpt lat="31.12558" lon="-5.4272117"><ele>1300.0</ele><time>2026-04-23T14:02:42.934Z</time></trkpt><trkpt lat="31.1256367" lon="-5.4273083"><ele>1300.0</ele><time>2026-04-23T14:02:44.934Z</time></trkpt><trkpt lat="31.125705" lon="-5.4273867"><ele>1300.0</ele><time>2026-04-23T14:02:46.935Z</time></trkpt><trkpt lat="31.1257717" lon="-5.427445"><ele>1300.0</ele><time>2026-04-23T14:02:48.935Z</time></trkpt><trkpt lat="31.1258383" lon="-5.42754"><ele>1299.6666666666665</ele><time>2026-04-23T14:03:21.935Z</time></trkpt><trkpt lat="31.12589" lon="-5.42763"><ele>1299.3333333333333</ele><time>2026-04-23T14:03:23.934Z</time></trkpt><trkpt lat="31.1259117" lon="-5.42771"><ele>1299.0</ele><time>2026-04-23T14:03:24.935Z</time></trkpt><trkpt lat="31.1259283" lon="-5.4277967"><ele>1298.6666666666667</ele><time>2026-04-23T14:03:25.935Z</time></trkpt><trkpt lat="31.1259483" lon="-5.427895"><ele>1298.3333333333335</ele><time>2026-04-23T14:03:26.935Z</time></trkpt><trkpt lat="31.1259733" lon="-5.42799"><ele>1298.0</ele><time>2026-04-23T14:03:27.935Z</time></trkpt><trkpt lat="31.1260033" lon="-5.4280717"><ele>1297.5</ele><time>2026-04-23T14:03:28.935Z</time></trkpt><trkpt lat="31.126045" lon="-5.4281483"><ele>1297.0</ele><time>2026-04-23T14:03:29.935Z</time></trkpt><trkpt lat="31.12609" lon="-5.42822"><ele>1296.5</ele><time>2026-04-23T14:03:30.935Z</time></trkpt><trkpt lat="31.126135" lon="-5.42828"><ele>1296.0</ele><time>2026-04-23T14:03:31.935Z</time></trkpt><trkpt lat="31.1262467" lon="-5.428335"><ele>1295.5</ele><time>2026-04-23T14:03:33.935Z</time></trkpt><trkpt lat="31.1263183" lon="-5.42835"><ele>1295.0</ele><time>2026-04-23T14:03:34.935Z</time></trkpt><trkpt lat="31.126385" lon="-5.4283667"><ele>1295.0</ele><time>2026-04-23T14:03:35.935Z</time></trkpt><trkpt lat="31.1264483" lon="-5.42839"><ele>1295.0</ele><time>2026-04-23T14:03:36.935Z</time></trkpt><trkpt lat="31.12652" lon="-5.4284117"><ele>1295.0</ele><time>2026-04-23T14:03:37.934Z</time></trkpt><trkpt lat="31.126595" lon="-5.42843"><ele>1295.0</ele><time>2026-04-23T14:03:38.934Z</time></trkpt><trkpt lat="31.12667" lon="-5.428455"><ele>1295.0</ele><time>2026-04-23T14:03:39.935Z</time></trkpt><trkpt lat="31.1267533" lon="-5.4284767"><ele>1295.0</ele><time>2026-04-23T14:03:40.935Z</time></trkpt><trkpt lat="31.12684" lon="-5.4284967"><ele>1295.3333333333335</ele><time>2026-04-23T14:03:41.935Z</time></trkpt><trkpt lat="31.1269267" lon="-5.4285217"><ele>1295.6666666666667</ele><time>2026-04-23T14:03:42.935Z</time></trkpt><trkpt lat="31.1270117" lon="-5.428545"><ele>1296.0</ele><time>2026-04-23T14:03:43.935Z</time></trkpt><trkpt lat="31.1270967" lon="-5.4285767"><ele>1296.3333333333333</ele><time>2026-04-23T14:03:44.935Z</time></trkpt><trkpt lat="31.1271733" lon="-5.4286017"><ele>1296.6666666666665</ele><time>2026-04-23T14:03:45.935Z</time></trkpt><trkpt lat="31.127255" lon="-5.42863"><ele>1297.0</ele><time>2026-04-23T14:03:46.935Z</time></trkpt><trkpt lat="31.127325" lon="-5.4286717"><ele>1297.0</ele><time>2026-04-23T14:03:47.934Z</time></trkpt><trkpt lat="31.12739" lon="-5.4287217"><ele>1297.0</ele><time>2026-04-23T14:03:48.935Z</time></trkpt><trkpt lat="31.12746" lon="-5.428785"><ele>1297.0</ele><time>2026-04-23T14:03:49.935Z</time></trkpt><trkpt lat="31.12753" lon="-5.4288567"><ele>1297.0</ele><time>2026-04-23T14:03:50.935Z</time></trkpt><trkpt lat="31.1276017" lon="-5.4289233"><ele>1297.0</ele><time>2026-04-23T14:03:51.935Z</time></trkpt><trkpt lat="31.1276783" lon="-5.4289867"><ele>1297.0</ele><time>2026-04-23T14:03:52.935Z</time></trkpt><trkpt lat="31.1277617" lon="-5.429035"><ele>1294.8</ele><time>2026-04-23T14:03:53.934Z</time></trkpt><trkpt lat="31.12784" lon="-5.42908"><ele>1292.6</ele><time>2026-04-23T14:03:54.935Z</time></trkpt><trkpt lat="31.1279217" lon="-5.4291283"><ele>1290.3999999999999</ele><time>2026-04-23T14:03:55.935Z</time></trkpt><trkpt lat="31.128" lon="-5.4291817"><ele>1288.1999999999998</ele><time>2026-04-23T14:03:56.935Z</time></trkpt><trkpt lat="31.12808" lon="-5.4292517"><ele>1286.0</ele><time>2026-04-23T14:03:57.935Z</time></trkpt><trkpt lat="31.1281767" lon="-5.4293317"><ele>1283.75</ele><time>2026-04-23T14:03:58.935Z</time></trkpt><trkpt lat="31.1282767" lon="-5.42941"><ele>1281.5</ele><time>2026-04-23T14:03:59.934Z</time></trkpt><trkpt lat="31.1283783" lon="-5.4294917"><ele>1279.25</ele><time>2026-04-23T14:04:00.935Z</time></trkpt><trkpt lat="31.12847" lon="-5.4295667"><ele>1277.0</ele><time>2026-04-23T14:04:01.935Z</time></trkpt><trkpt lat="31.128575" lon="-5.429655"><ele>1277.0</ele><time>2026-04-23T14:04:02.935Z</time></trkpt><trkpt lat="31.1286833" lon="-5.429745"><ele>1277.0</ele><time>2026-04-23T14:04:03.934Z</time></trkpt><trkpt lat="31.1287917" lon="-5.4298217"><ele>1277.0</ele><time>2026-04-23T14:04:04.935Z</time></trkpt><trkpt lat="31.1289" lon="-5.429885"><ele>1277.0</ele><time>2026-04-23T14:04:05.935Z</time></trkpt><trkpt lat="31.1290117" lon="-5.4299367"><ele>1274.0</ele><time>2026-04-23T14:04:06.935Z</time></trkpt><trkpt lat="31.1291283" lon="-5.4299867"><ele>1271.0</ele><time>2026-04-23T14:04:07.935Z</time></trkpt><trkpt lat="31.1292533" lon="-5.4300233"><ele>1268.0</ele><time>2026-04-23T14:04:08.935Z</time></trkpt><trkpt lat="31.12937" lon="-5.4300633"><ele>1265.0</ele><time>2026-04-23T14:04:09.934Z</time></trkpt><trkpt lat="31.1294733" lon="-5.43011"><ele>1265.0</ele><time>2026-04-23T14:04:10.934Z</time></trkpt><trkpt lat="31.129585" lon="-5.4301583"><ele>1265.0</ele><time>2026-04-23T14:04:11.935Z</time></trkpt><trkpt lat="31.12971" lon="-5.430205"><ele>1265.0</ele><time>2026-04-23T14:04:12.935Z</time></trkpt><trkpt lat="31.1298267" lon="-5.4302483"><ele>1265.0</ele><time>2026-04-23T14:04:13.935Z</time></trkpt><trkpt lat="31.12993" lon="-5.4302917"><ele>1264.0</ele><time>2026-04-23T14:04:14.935Z</time></trkpt><trkpt lat="31.130035" lon="-5.430335"><ele>1263.0</ele><time>2026-04-23T14:04:15.934Z</time></trkpt><trkpt lat="31.1301333" lon="-5.4303767"><ele>1262.0</ele><time>2026-04-23T14:04:16.935Z</time></trkpt><trkpt lat="31.130235" lon="-5.4304183"><ele>1261.0</ele><time>2026-04-23T14:04:17.935Z</time></trkpt><trkpt lat="31.1303283" lon="-5.430455"><ele>1260.0</ele><time>2026-04-23T14:04:18.934Z</time></trkpt><trkpt lat="31.13042" lon="-5.430485"><ele>1259.3333333333333</ele><time>2026-04-23T14:04:19.935Z</time></trkpt><trkpt lat="31.1304983" lon="-5.4305117"><ele>1258.6666666666667</ele><time>2026-04-23T14:04:20.935Z</time></trkpt><trkpt lat="31.13057" lon="-5.4305483"><ele>1258.0</ele><time>2026-04-23T14:04:21.935Z</time></trkpt><trkpt lat="31.130625" lon="-5.430595"><ele>1257.3333333333335</ele><time>2026-04-23T14:04:22.935Z</time></trkpt><trkpt lat="31.1306683" lon="-5.43066"><ele>1256.6666666666667</ele><time>2026-04-23T14:04:23.934Z</time></trkpt><trkpt lat="31.1307" lon="-5.4307967"><ele>1256.0</ele><time>2026-04-23T14:04:25.934Z</time></trkpt><trkpt lat="31.1306567" lon="-5.430915"><ele>1256.0</ele><time>2026-04-23T14:04:27.934Z</time></trkpt><trkpt lat="31.13054" lon="-5.4309967"><ele>1256.0</ele><time>2026-04-23T14:04:29.935Z</time></trkpt><trkpt lat="31.1304483" lon="-5.4310467"><ele>1256.0</ele><time>2026-04-23T14:04:30.935Z</time></trkpt><trkpt lat="31.1303633" lon="-5.4310967"><ele>1256.0</ele><time>2026-04-23T14:04:31.935Z</time></trkpt><trkpt lat="31.130285" lon="-5.4311317"><ele>1256.0</ele><time>2026-04-23T14:04:32.935Z</time></trkpt><trkpt lat="31.1301983" lon="-5.4311467"><ele>1256.0</ele><time>2026-04-23T14:04:33.935Z</time></trkpt><trkpt lat="31.1301267" lon="-5.4311433"><ele>1256.0</ele><time>2026-04-23T14:04:34.934Z</time></trkpt><trkpt lat="31.1300183" lon="-5.431145"><ele>1256.0</ele><time>2026-04-23T14:04:36.935Z</time></trkpt><trkpt lat="31.1299733" lon="-5.431225"><ele>1256.0</ele><time>2026-04-23T14:04:39.934Z</time></trkpt><trkpt lat="31.130015" lon="-5.43131"><ele>1256.0</ele><time>2026-04-23T14:04:41.934Z</time></trkpt><trkpt lat="31.1300667" lon="-5.43136"><ele>1256.0</ele><time>2026-04-23T14:04:42.934Z</time></trkpt><trkpt lat="31.1301333" lon="-5.431405"><ele>1256.5714285714284</ele><time>2026-04-23T14:04:43.935Z</time></trkpt><trkpt lat="31.1302067" lon="-5.4314483"><ele>1257.142857142857</ele><time>2026-04-23T14:04:44.935Z</time></trkpt><trkpt lat="31.1302733" lon="-5.4314817"><ele>1257.7142857142858</ele><time>2026-04-23T14:04:45.935Z</time></trkpt><trkpt lat="31.130335" lon="-5.4315183"><ele>1258.2857142857142</ele><time>2026-04-23T14:04:46.934Z</time></trkpt><trkpt lat="31.1303983" lon="-5.43155"><ele>1258.857142857143</ele><time>2026-04-23T14:04:47.934Z</time></trkpt><trkpt lat="31.1304717" lon="-5.4315817"><ele>1259.4285714285713</ele><time>2026-04-23T14:04:48.935Z</time></trkpt><trkpt lat="31.1305433" lon="-5.4316133"><ele>1260.0</ele><time>2026-04-23T14:04:49.935Z</time></trkpt><trkpt lat="31.1306133" lon="-5.4316533"><ele>1260.0</ele><time>2026-04-23T14:04:50.935Z</time></trkpt><trkpt lat="31.1306883" lon="-5.4317117"><ele>1260.0</ele><time>2026-04-23T14:04:51.935Z</time></trkpt><trkpt lat="31.13077" lon="-5.4317933"><ele>1260.0</ele><time>2026-04-23T14:04:52.935Z</time></trkpt><trkpt lat="31.130855" lon="-5.431895"><ele>1260.0</ele><time>2026-04-23T14:04:53.935Z</time></trkpt><trkpt lat="31.13094" lon="-5.4319817"><ele>1260.0</ele><time>2026-04-23T14:04:54.935Z</time></trkpt><trkpt lat="31.13102" lon="-5.4320483"><ele>1259.5</ele><time>2026-04-23T14:04:55.934Z</time></trkpt><trkpt lat="31.1310967" lon="-5.4321083"><ele>1259.0</ele><time>2026-04-23T14:04:56.935Z</time></trkpt><trkpt lat="31.131165" lon="-5.432165"><ele>1258.5</ele><time>2026-04-23T14:04:57.935Z</time></trkpt><trkpt lat="31.13123" lon="-5.432215"><ele>1258.0</ele><time>2026-04-23T14:04:58.935Z</time></trkpt><trkpt lat="31.1312817" lon="-5.4322683"><ele>1257.5</ele><time>2026-04-23T14:04:59.934Z</time></trkpt><trkpt lat="31.1313167" lon="-5.432335"><ele>1257.0</ele><time>2026-04-23T14:05:00.935Z</time></trkpt><trkpt lat="31.1313367" lon="-5.4324083"><ele>1257.0</ele><time>2026-04-23T14:05:01.934Z</time></trkpt><trkpt lat="31.1313467" lon="-5.4324867"><ele>1257.0</ele><time>2026-04-23T14:05:02.935Z</time></trkpt><trkpt lat="31.131345" lon="-5.43257"><ele>1257.0</ele><time>2026-04-23T14:05:03.935Z</time></trkpt><trkpt lat="31.1313383" lon="-5.432665"><ele>1257.0</ele><time>2026-04-23T14:05:04.935Z</time></trkpt><trkpt lat="31.1313317" lon="-5.4327783"><ele>1257.0</ele><time>2026-04-23T14:05:05.934Z</time></trkpt><trkpt lat="31.1313317" lon="-5.4329033"><ele>1257.0</ele><time>2026-04-23T14:05:06.934Z</time></trkpt><trkpt lat="31.1313333" lon="-5.4330483"><ele>1259.2</ele><time>2026-04-23T14:05:07.935Z</time></trkpt><trkpt lat="31.131335" lon="-5.433195"><ele>1261.4</ele><time>2026-04-23T14:05:08.935Z</time></trkpt><trkpt lat="31.1313333" lon="-5.433315"><ele>1263.6</ele><time>2026-04-23T14:05:09.935Z</time></trkpt><trkpt lat="31.1313367" lon="-5.43343"><ele>1265.8</ele><time>2026-04-23T14:05:10.935Z</time></trkpt><trkpt lat="31.13134" lon="-5.4335283"><ele>1268.0</ele><time>2026-04-23T14:05:11.935Z</time></trkpt><trkpt lat="31.1313567" lon="-5.4336267"><ele>1268.0</ele><time>2026-04-23T14:05:12.934Z</time></trkpt><trkpt lat="31.13138" lon="-5.4337367"><ele>1268.0</ele><time>2026-04-23T14:05:13.935Z</time></trkpt><trkpt lat="31.1314233" lon="-5.433855"><ele>1268.0</ele><time>2026-04-23T14:05:14.935Z</time></trkpt><trkpt lat="31.1314767" lon="-5.4339683"><ele>1268.0</ele><time>2026-04-23T14:05:15.935Z</time></trkpt><trkpt lat="31.131525" lon="-5.4340833"><ele>1268.0</ele><time>2026-04-23T14:05:16.935Z</time></trkpt><trkpt lat="31.1315667" lon="-5.434205"><ele>1264.25</ele><time>2026-04-23T14:05:17.935Z</time></trkpt><trkpt lat="31.1316017" lon="-5.4343383"><ele>1260.5</ele><time>2026-04-23T14:05:18.935Z</time></trkpt><trkpt lat="31.131645" lon="-5.4344833"><ele>1256.75</ele><time>2026-04-23T14:05:19.935Z</time></trkpt><trkpt lat="31.1316967" lon="-5.4346217"><ele>1253.0</ele><time>2026-04-23T14:05:20.935Z</time></trkpt><trkpt lat="31.1317433" lon="-5.4347467"><ele>1253.0</ele><time>2026-04-23T14:05:21.934Z</time></trkpt><trkpt lat="31.1317833" lon="-5.4348583"><ele>1253.0</ele><time>2026-04-23T14:05:22.935Z</time></trkpt><trkpt lat="31.1318217" lon="-5.4349617"><ele>1253.0</ele><time>2026-04-23T14:05:23.934Z</time></trkpt><trkpt lat="31.131845" lon="-5.4350567"><ele>1253.0</ele><time>2026-04-23T14:05:24.935Z</time></trkpt><trkpt lat="31.1318533" lon="-5.4351567"><ele>1253.0</ele><time>2026-04-23T14:05:25.935Z</time></trkpt><trkpt lat="31.1318567" lon="-5.4352633"><ele>1253.0</ele><time>2026-04-23T14:05:26.934Z</time></trkpt><trkpt lat="31.13186" lon="-5.43537"><ele>1253.0</ele><time>2026-04-23T14:05:27.935Z</time></trkpt><trkpt lat="31.131865" lon="-5.4354783"><ele>1253.0</ele><time>2026-04-23T14:05:28.935Z</time></trkpt><trkpt lat="31.1318633" lon="-5.43559"><ele>1253.0</ele><time>2026-04-23T14:05:29.935Z</time></trkpt><trkpt lat="31.13186" lon="-5.43569"><ele>1253.0</ele><time>2026-04-23T14:05:30.935Z</time></trkpt><trkpt lat="31.1318817" lon="-5.4357883"><ele>1253.6</ele><time>2026-04-23T14:05:31.935Z</time></trkpt><trkpt lat="31.1319083" lon="-5.435895"><ele>1254.1999999999998</ele><time>2026-04-23T14:05:32.935Z</time></trkpt><trkpt lat="31.1319283" lon="-5.436"><ele>1254.8</ele><time>2026-04-23T14:05:33.935Z</time></trkpt><trkpt lat="31.1319383" lon="-5.436105"><ele>1255.3999999999999</ele><time>2026-04-23T14:05:34.935Z</time></trkpt><trkpt lat="31.13195" lon="-5.436225"><ele>1256.0</ele><time>2026-04-23T14:05:35.934Z</time></trkpt><trkpt lat="31.131975" lon="-5.4363433"><ele>1256.5</ele><time>2026-04-23T14:05:36.935Z</time></trkpt><trkpt lat="31.1320133" lon="-5.436465"><ele>1257.0</ele><time>2026-04-23T14:05:37.935Z</time></trkpt><trkpt lat="31.13206" lon="-5.4365933"><ele>1257.5</ele><time>2026-04-23T14:05:38.935Z</time></trkpt><trkpt lat="31.1321133" lon="-5.43672"><ele>1258.0</ele><time>2026-04-23T14:05:39.934Z</time></trkpt><trkpt lat="31.13218" lon="-5.4368417"><ele>1258.0</ele><time>2026-04-23T14:05:40.935Z</time></trkpt><trkpt lat="31.1322467" lon="-5.4369517"><ele>1258.0</ele><time>2026-04-23T14:05:41.934Z</time></trkpt><trkpt lat="31.1323017" lon="-5.4370483"><ele>1258.0</ele><time>2026-04-23T14:05:42.935Z</time></trkpt><trkpt lat="31.1323517" lon="-5.43713"><ele>1258.0</ele><time>2026-04-23T14:05:43.935Z</time></trkpt><trkpt lat="31.132405" lon="-5.437205"><ele>1258.0</ele><time>2026-04-23T14:05:44.935Z</time></trkpt><trkpt lat="31.1324633" lon="-5.4372867"><ele>1258.25</ele><time>2026-04-23T14:05:45.935Z</time></trkpt><trkpt lat="31.1325367" lon="-5.4373833"><ele>1258.5</ele><time>2026-04-23T14:05:46.935Z</time></trkpt><trkpt lat="31.1326183" lon="-5.4374917"><ele>1258.75</ele><time>2026-04-23T14:05:47.935Z</time></trkpt><trkpt lat="31.1326883" lon="-5.4376067"><ele>1259.0</ele><time>2026-04-23T14:05:48.935Z</time></trkpt><trkpt lat="31.13276" lon="-5.4377183"><ele>1259.0</ele><time>2026-04-23T14:05:49.935Z</time></trkpt><trkpt lat="31.132825" lon="-5.4378183"><ele>1259.0</ele><time>2026-04-23T14:05:50.934Z</time></trkpt><trkpt lat="31.1328883" lon="-5.437925"><ele>1259.0</ele><time>2026-04-23T14:05:51.934Z</time></trkpt><trkpt lat="31.1329483" lon="-5.4380333"><ele>1259.0</ele><time>2026-04-23T14:05:52.934Z</time></trkpt><trkpt lat="31.1330117" lon="-5.4381267"><ele>1259.0</ele><time>2026-04-23T14:05:53.934Z</time></trkpt><trkpt lat="31.1330667" lon="-5.4382083"><ele>1258.8</ele><time>2026-04-23T14:05:54.935Z</time></trkpt><trkpt lat="31.1331217" lon="-5.4382867"><ele>1258.6000000000001</ele><time>2026-04-23T14:05:55.935Z</time></trkpt><trkpt lat="31.1331767" lon="-5.4383717"><ele>1258.4</ele><time>2026-04-23T14:05:56.935Z</time></trkpt><trkpt lat="31.1332233" lon="-5.4384617"><ele>1258.2</ele><time>2026-04-23T14:05:57.934Z</time></trkpt><trkpt lat="31.1332667" lon="-5.438565"><ele>1258.0</ele><time>2026-04-23T14:05:58.934Z</time></trkpt><trkpt lat="31.1332967" lon="-5.4386583"><ele>1258.8</ele><time>2026-04-23T14:05:59.935Z</time></trkpt><trkpt lat="31.133315" lon="-5.4387533"><ele>1259.6</ele><time>2026-04-23T14:06:00.934Z</time></trkpt><trkpt lat="31.133335" lon="-5.4388617"><ele>1260.4</ele><time>2026-04-23T14:06:01.935Z</time></trkpt><trkpt lat="31.13337" lon="-5.43899"><ele>1261.2</ele><time>2026-04-23T14:06:02.935Z</time></trkpt><trkpt lat="31.1334" lon="-5.4391367"><ele>1262.0</ele><time>2026-04-23T14:06:03.935Z</time></trkpt><trkpt lat="31.1334267" lon="-5.4392833"><ele>1262.4</ele><time>2026-04-23T14:06:04.935Z</time></trkpt><trkpt lat="31.1334417" lon="-5.4394117"><ele>1262.8000000000002</ele><time>2026-04-23T14:06:05.935Z</time></trkpt><trkpt lat="31.1334583" lon="-5.4395367"><ele>1263.2</ele><time>2026-04-23T14:06:06.934Z</time></trkpt><trkpt lat="31.1334833" lon="-5.4396583"><ele>1263.6000000000001</ele><time>2026-04-23T14:06:07.935Z</time></trkpt><trkpt lat="31.1335117" lon="-5.4397583"><ele>1264.0</ele><time>2026-04-23T14:06:08.934Z</time></trkpt><trkpt lat="31.133545" lon="-5.4398383"><ele>1264.2</ele><time>2026-04-23T14:06:09.934Z</time></trkpt><trkpt lat="31.133615" lon="-5.4399633"><ele>1264.4</ele><time>2026-04-23T14:06:11.935Z</time></trkpt><trkpt lat="31.1336433" lon="-5.4400383"><ele>1264.6</ele><time>2026-04-23T14:06:12.935Z</time></trkpt><trkpt lat="31.13366" lon="-5.4401133"><ele>1264.8</ele><time>2026-04-23T14:06:13.935Z</time></trkpt><trkpt lat="31.133655" lon="-5.4402383"><ele>1265.0</ele><time>2026-04-23T14:06:15.934Z</time></trkpt><trkpt lat="31.1336183" lon="-5.4403417"><ele>1265.0</ele><time>2026-04-23T14:06:17.935Z</time></trkpt><trkpt lat="31.1335867" lon="-5.4404167"><ele>1265.0</ele><time>2026-04-23T14:06:19.934Z</time></trkpt><trkpt lat="31.133575" lon="-5.440495"><ele>1265.0</ele><time>2026-04-23T14:06:21.934Z</time></trkpt><trkpt lat="31.1336183" lon="-5.4405617"><ele>1265.0</ele><time>2026-04-23T14:06:23.934Z</time></trkpt><trkpt lat="31.13371" lon="-5.440605"><ele>1265.0</ele><time>2026-04-23T14:06:25.935Z</time></trkpt><trkpt lat="31.1337767" lon="-5.4406133"><ele>1265.0</ele><time>2026-04-23T14:06:26.935Z</time></trkpt><trkpt lat="31.1338567" lon="-5.440625"><ele>1265.1666666666667</ele><time>2026-04-23T14:06:27.935Z</time></trkpt><trkpt lat="31.133945" lon="-5.4406317"><ele>1265.3333333333335</ele><time>2026-04-23T14:06:28.935Z</time></trkpt><trkpt lat="31.1340317" lon="-5.4406517"><ele>1265.5</ele><time>2026-04-23T14:06:29.934Z</time></trkpt><trkpt lat="31.1341167" lon="-5.4406767"><ele>1265.6666666666667</ele><time>2026-04-23T14:06:30.935Z</time></trkpt><trkpt lat="31.1341983" lon="-5.4407033"><ele>1265.8333333333333</ele><time>2026-04-23T14:06:31.935Z</time></trkpt><trkpt lat="31.1342833" lon="-5.440745"><ele>1266.0</ele><time>2026-04-23T14:06:32.935Z</time></trkpt><trkpt lat="31.13439" lon="-5.4407983"><ele>1266.5</ele><time>2026-04-23T14:06:33.935Z</time></trkpt><trkpt lat="31.1345067" lon="-5.4408433"><ele>1267.0</ele><time>2026-04-23T14:06:34.935Z</time></trkpt><trkpt lat="31.1346183" lon="-5.4409083"><ele>1267.5</ele><time>2026-04-23T14:06:35.935Z</time></trkpt><trkpt lat="31.1347267" lon="-5.4409733"><ele>1268.0</ele><time>2026-04-23T14:06:36.935Z</time></trkpt><trkpt lat="31.13482" lon="-5.4410433"><ele>1268.4</ele><time>2026-04-23T14:06:37.935Z</time></trkpt><trkpt lat="31.1349017" lon="-5.4411183"><ele>1268.8</ele><time>2026-04-23T14:06:38.935Z</time></trkpt><trkpt lat="31.1349867" lon="-5.441185"><ele>1269.2</ele><time>2026-04-23T14:06:39.934Z</time></trkpt><trkpt lat="31.1350733" lon="-5.4412483"><ele>1269.6</ele><time>2026-04-23T14:06:40.935Z</time></trkpt><trkpt lat="31.1351517" lon="-5.4413017"><ele>1270.0</ele><time>2026-04-23T14:06:41.934Z</time></trkpt><trkpt lat="31.1352317" lon="-5.4413483"><ele>1270.0</ele><time>2026-04-23T14:06:42.934Z</time></trkpt><trkpt lat="31.1353167" lon="-5.4414"><ele>1270.0</ele><time>2026-04-23T14:06:43.934Z</time></trkpt><trkpt lat="31.1354067" lon="-5.441445"><ele>1270.0</ele><time>2026-04-23T14:06:44.934Z</time></trkpt><trkpt lat="31.1355017" lon="-5.4414833"><ele>1270.0</ele><time>2026-04-23T14:06:45.934Z</time></trkpt><trkpt lat="31.1356" lon="-5.4415133"><ele>1270.0</ele><time>2026-04-23T14:06:46.934Z</time></trkpt><trkpt lat="31.13569" lon="-5.44153"><ele>1270.8333333333333</ele><time>2026-04-23T14:06:47.934Z</time></trkpt><trkpt lat="31.135765" lon="-5.4415383"><ele>1271.6666666666665</ele><time>2026-04-23T14:06:48.934Z</time></trkpt><trkpt lat="31.13583" lon="-5.441545"><ele>1272.5</ele><time>2026-04-23T14:06:49.933Z</time></trkpt><trkpt lat="31.1359083" lon="-5.4415883"><ele>1273.3333333333333</ele><time>2026-04-23T14:06:51.934Z</time></trkpt><trkpt lat="31.1359817" lon="-5.44166"><ele>1274.1666666666667</ele><time>2026-04-23T14:07:38.933Z</time></trkpt><trkpt lat="31.1360933" lon="-5.441685"><ele>1275.0</ele><time>2026-04-23T14:07:40.934Z</time></trkpt><trkpt lat="31.1361667" lon="-5.4416917"><ele>1275.0</ele><time>2026-04-23T14:07:41.934Z</time></trkpt><trkpt lat="31.1362467" lon="-5.44168"><ele>1275.0</ele><time>2026-04-23T14:07:42.933Z</time></trkpt><trkpt lat="31.1363267" lon="-5.4416633"><ele>1275.0</ele><time>2026-04-23T14:07:43.934Z</time></trkpt><trkpt lat="31.1364117" lon="-5.4416367"><ele>1275.0</ele><time>2026-04-23T14:07:44.934Z</time></trkpt><trkpt lat="31.1364983" lon="-5.4416"><ele>1275.0</ele><time>2026-04-23T14:07:45.933Z</time></trkpt><trkpt lat="31.13659" lon="-5.4415617"><ele>1275.0</ele><time>2026-04-23T14:07:46.933Z</time></trkpt><trkpt lat="31.1366733" lon="-5.4415167"><ele>1275.0</ele><time>2026-04-23T14:07:47.934Z</time></trkpt><trkpt lat="31.1367467" lon="-5.441475"><ele>1275.0</ele><time>2026-04-23T14:07:48.934Z</time></trkpt><trkpt lat="31.13682" lon="-5.4414283"><ele>1275.0</ele><time>2026-04-23T14:07:49.934Z</time></trkpt><trkpt lat="31.136895" lon="-5.4413783"><ele>1275.0</ele><time>2026-04-23T14:07:50.933Z</time></trkpt><trkpt lat="31.1369717" lon="-5.44132"><ele>1275.0</ele><time>2026-04-23T14:07:51.933Z</time></trkpt><trkpt lat="31.1370417" lon="-5.4412567"><ele>1275.0</ele><time>2026-04-23T14:07:52.934Z</time></trkpt><trkpt lat="31.1371033" lon="-5.441185"><ele>1275.3333333333333</ele><time>2026-04-23T14:07:53.934Z</time></trkpt><trkpt lat="31.1371583" lon="-5.44111"><ele>1275.6666666666667</ele><time>2026-04-23T14:07:54.933Z</time></trkpt><trkpt lat="31.1372117" lon="-5.44103"><ele>1276.0</ele><time>2026-04-23T14:07:55.933Z</time></trkpt><trkpt lat="31.13726" lon="-5.4409533"><ele>1276.3333333333335</ele><time>2026-04-23T14:07:56.934Z</time></trkpt><trkpt lat="31.137295" lon="-5.4408733"><ele>1276.6666666666667</ele><time>2026-04-23T14:07:57.933Z</time></trkpt><trkpt lat="31.1373233" lon="-5.4407983"><ele>1277.0</ele><time>2026-04-23T14:07:58.934Z</time></trkpt><trkpt lat="31.1373567" lon="-5.4406833"><ele>1277.0</ele><time>2026-04-23T14:08:00.934Z</time></trkpt><trkpt lat="31.1373733" lon="-5.4406067"><ele>1277.0</ele><time>2026-04-23T14:08:02.933Z</time></trkpt><trkpt lat="31.1374133" lon="-5.4405167"><ele>1277.0</ele><time>2026-04-23T14:08:44.934Z</time></trkpt><trkpt lat="31.1374517" lon="-5.4404433"><ele>1277.0</ele><time>2026-04-23T14:08:46.934Z</time></trkpt><trkpt lat="31.1374683" lon="-5.4403717"><ele>1277.0</ele><time>2026-04-23T14:08:48.934Z</time></trkpt><trkpt lat="31.1374" lon="-5.4403983"><ele>1277.0</ele><time>2026-04-23T14:09:03.933Z</time></trkpt><trkpt lat="31.1373983" lon="-5.4405"><ele>1277.0</ele><time>2026-04-23T14:09:05.934Z</time></trkpt><trkpt lat="31.1373767" lon="-5.4406"><ele>1277.0</ele><time>2026-04-23T14:09:08.934Z</time></trkpt><trkpt lat="31.13733" lon="-5.4407233"><ele>1277.0</ele><time>2026-04-23T14:09:10.934Z</time></trkpt><trkpt lat="31.1373083" lon="-5.440805"><ele>1277.0</ele><time>2026-04-23T14:09:11.933Z</time></trkpt><trkpt lat="31.137285" lon="-5.4408867"><ele>1277.0</ele><time>2026-04-23T14:09:12.934Z</time></trkpt><trkpt lat="31.1372517" lon="-5.4409583"><ele>1277.0</ele><time>2026-04-23T14:09:13.934Z</time></trkpt><trkpt lat="31.137215" lon="-5.4410283"><ele>1277.0</ele><time>2026-04-23T14:09:14.933Z</time></trkpt><trkpt lat="31.137165" lon="-5.441095"><ele>1277.0</ele><time>2026-04-23T14:09:15.933Z</time></trkpt><trkpt lat="31.1371133" lon="-5.4411583"><ele>1277.0</ele><time>2026-04-23T14:09:16.933Z</time></trkpt><trkpt lat="31.137055" lon="-5.4412367"><ele>1277.0</ele><time>2026-04-23T14:09:17.934Z</time></trkpt><trkpt lat="31.136985" lon="-5.4413133"><ele>1277.0</ele><time>2026-04-23T14:09:18.934Z</time></trkpt><trkpt lat="31.1369083" lon="-5.4413733"><ele>1277.0</ele><time>2026-04-23T14:09:19.934Z</time></trkpt><trkpt lat="31.1368117" lon="-5.44143"><ele>1276.6</ele><time>2026-04-23T14:09:20.933Z</time></trkpt><trkpt lat="31.1367133" lon="-5.4414917"><ele>1276.2</ele><time>2026-04-23T14:09:21.934Z</time></trkpt><trkpt lat="31.1366283" lon="-5.4415533"><ele>1275.8</ele><time>2026-04-23T14:09:22.933Z</time></trkpt><trkpt lat="31.13654" lon="-5.4416017"><ele>1275.4</ele><time>2026-04-23T14:09:23.934Z</time></trkpt><trkpt lat="31.1364517" lon="-5.4416383"><ele>1275.0</ele><time>2026-04-23T14:09:24.933Z</time></trkpt><trkpt lat="31.136355" lon="-5.4416733"><ele>1275.0</ele><time>2026-04-23T14:09:25.934Z</time></trkpt><trkpt lat="31.136265" lon="-5.4416933"><ele>1275.0</ele><time>2026-04-23T14:09:26.933Z</time></trkpt><trkpt lat="31.1361717" lon="-5.4417"><ele>1275.0</ele><time>2026-04-23T14:09:27.934Z</time></trkpt><trkpt lat="31.1360867" lon="-5.4416983"><ele>1275.0</ele><time>2026-04-23T14:09:28.934Z</time></trkpt><trkpt lat="31.13601" lon="-5.4416783"><ele>1275.0</ele><time>2026-04-23T14:09:29.934Z</time></trkpt><trkpt lat="31.1359033" lon="-5.441615"><ele>1275.0</ele><time>2026-04-23T14:09:31.934Z</time></trkpt><trkpt lat="31.1358383" lon="-5.4415833"><ele>1275.0</ele><time>2026-04-23T14:09:32.934Z</time></trkpt><trkpt lat="31.13576" lon="-5.4415567"><ele>1275.0</ele><time>2026-04-23T14:09:33.934Z</time></trkpt><trkpt lat="31.1356717" lon="-5.441535"><ele>1275.0</ele><time>2026-04-23T14:09:34.934Z</time></trkpt><trkpt lat="31.1355717" lon="-5.4415167"><ele>1275.0</ele><time>2026-04-23T14:09:35.933Z</time></trkpt><trkpt lat="31.1354833" lon="-5.4414917"><ele>1275.0</ele><time>2026-04-23T14:09:36.933Z</time></trkpt><trkpt lat="31.1353917" lon="-5.441465"><ele>1275.0</ele><time>2026-04-23T14:09:37.933Z</time></trkpt><trkpt lat="31.1353067" lon="-5.44142"><ele>1275.0</ele><time>2026-04-23T14:09:38.934Z</time></trkpt><trkpt lat="31.1352133" lon="-5.44136"><ele>1275.0</ele><time>2026-04-23T14:09:39.933Z</time></trkpt><trkpt lat="31.1351333" lon="-5.441305"><ele>1275.0</ele><time>2026-04-23T14:09:40.934Z</time></trkpt><trkpt lat="31.1350517" lon="-5.4412483"><ele>1275.0</ele><time>2026-04-23T14:09:41.933Z</time></trkpt><trkpt lat="31.1349783" lon="-5.4411867"><ele>1275.0</ele><time>2026-04-23T14:09:42.934Z</time></trkpt><trkpt lat="31.1349017" lon="-5.4411167"><ele>1275.0</ele><time>2026-04-23T14:09:43.934Z</time></trkpt><trkpt lat="31.1348083" lon="-5.4410467"><ele>1275.0</ele><time>2026-04-23T14:09:44.934Z</time></trkpt><trkpt lat="31.1347133" lon="-5.4409833"><ele>1275.0</ele><time>2026-04-23T14:09:45.934Z</time></trkpt><trkpt lat="31.1346217" lon="-5.4409283"><ele>1275.0</ele><time>2026-04-23T14:09:46.933Z</time></trkpt><trkpt lat="31.1345417" lon="-5.4408667"><ele>1273.8333333333333</ele><time>2026-04-23T14:09:47.934Z</time></trkpt><trkpt lat="31.1344533" lon="-5.4408283"><ele>1272.6666666666667</ele><time>2026-04-23T14:09:48.934Z</time></trkpt><trkpt lat="31.1343667" lon="-5.4408033"><ele>1271.5</ele><time>2026-04-23T14:09:49.934Z</time></trkpt><trkpt lat="31.1342883" lon="-5.44077"><ele>1270.3333333333335</ele><time>2026-04-23T14:09:50.933Z</time></trkpt><trkpt lat="31.1342033" lon="-5.4407333"><ele>1269.1666666666667</ele><time>2026-04-23T14:09:51.934Z</time></trkpt><trkpt lat="31.1341183" lon="-5.4406967"><ele>1268.0</ele><time>2026-04-23T14:09:52.934Z</time></trkpt><trkpt lat="31.1340233" lon="-5.4406717"><ele>1267.6666666666667</ele><time>2026-04-23T14:09:53.933Z</time></trkpt><trkpt lat="31.133935" lon="-5.44066"><ele>1267.3333333333335</ele><time>2026-04-23T14:09:54.934Z</time></trkpt><trkpt lat="31.1338517" lon="-5.4406467"><ele>1267.0</ele><time>2026-04-23T14:09:55.934Z</time></trkpt><trkpt lat="31.133775" lon="-5.4406283"><ele>1266.6666666666667</ele><time>2026-04-23T14:09:56.933Z</time></trkpt><trkpt lat="31.13371" lon="-5.440615"><ele>1266.3333333333333</ele><time>2026-04-23T14:09:57.934Z</time></trkpt><trkpt lat="31.1336017" lon="-5.4405917"><ele>1266.0</ele><time>2026-04-23T14:09:59.934Z</time></trkpt><trkpt lat="31.1335283" lon="-5.4406117"><ele>1266.0</ele><time>2026-04-23T14:10:01.934Z</time></trkpt><trkpt lat="31.133465" lon="-5.4406917"><ele>1266.0</ele><time>2026-04-23T14:10:03.934Z</time></trkpt><trkpt lat="31.1334067" lon="-5.44084"><ele>1266.0</ele><time>2026-04-23T14:10:05.933Z</time></trkpt><trkpt lat="31.1333667" lon="-5.4409217"><ele>1266.0</ele><time>2026-04-23T14:10:06.933Z</time></trkpt><trkpt lat="31.1333133" lon="-5.4410067"><ele>1266.0</ele><time>2026-04-23T14:10:07.934Z</time></trkpt><trkpt lat="31.1332483" lon="-5.4410933"><ele>1266.0</ele><time>2026-04-23T14:10:08.934Z</time></trkpt><trkpt lat="31.1331783" lon="-5.4411783"><ele>1266.0</ele><time>2026-04-23T14:10:09.934Z</time></trkpt><trkpt lat="31.133105" lon="-5.441265"><ele>1266.0</ele><time>2026-04-23T14:10:10.934Z</time></trkpt><trkpt lat="31.1330383" lon="-5.4413567"><ele>1266.0</ele><time>2026-04-23T14:10:11.934Z</time></trkpt><trkpt lat="31.1329717" lon="-5.4414583"><ele>1266.0</ele><time>2026-04-23T14:10:12.934Z</time></trkpt><trkpt lat="31.1329" lon="-5.4415567"><ele>1267.0</ele><time>2026-04-23T14:10:13.934Z</time></trkpt><trkpt lat="31.1328217" lon="-5.4416567"><ele>1268.0</ele><time>2026-04-23T14:10:14.934Z</time></trkpt><trkpt lat="31.1327367" lon="-5.4417517"><ele>1269.0</ele><time>2026-04-23T14:10:15.933Z</time></trkpt><trkpt lat="31.1326483" lon="-5.441845"><ele>1270.0</ele><time>2026-04-23T14:10:16.934Z</time></trkpt><trkpt lat="31.1325567" lon="-5.4419483"><ele>1270.0</ele><time>2026-04-23T14:10:17.934Z</time></trkpt><trkpt lat="31.1324633" lon="-5.442045"><ele>1270.0</ele><time>2026-04-23T14:10:18.933Z</time></trkpt><trkpt lat="31.1323667" lon="-5.44214"><ele>1270.0</ele><time>2026-04-23T14:10:19.934Z</time></trkpt><trkpt lat="31.1322633" lon="-5.4422317"><ele>1270.0</ele><time>2026-04-23T14:10:20.934Z</time></trkpt><trkpt lat="31.1321567" lon="-5.4423267"><ele>1270.75</ele><time>2026-04-23T14:10:21.934Z</time></trkpt><trkpt lat="31.13206" lon="-5.4424183"><ele>1271.5</ele><time>2026-04-23T14:10:22.934Z</time></trkpt><trkpt lat="31.1319733" lon="-5.4425267"><ele>1272.25</ele><time>2026-04-23T14:10:23.933Z</time></trkpt><trkpt lat="31.1318817" lon="-5.442625"><ele>1273.0</ele><time>2026-04-23T14:10:24.934Z</time></trkpt><trkpt lat="31.131785" lon="-5.4427067"><ele>1273.0</ele><time>2026-04-23T14:10:25.934Z</time></trkpt><trkpt lat="31.1316833" lon="-5.4427983"><ele>1273.0</ele><time>2026-04-23T14:10:26.933Z</time></trkpt><trkpt lat="31.131575" lon="-5.4428967"><ele>1273.0</ele><time>2026-04-23T14:10:27.933Z</time></trkpt><trkpt lat="31.13147" lon="-5.4429967"><ele>1273.0</ele><time>2026-04-23T14:10:28.934Z</time></trkpt><trkpt lat="31.131355" lon="-5.4430983"><ele>1273.5</ele><time>2026-04-23T14:10:29.934Z</time></trkpt><trkpt lat="31.1312333" lon="-5.4432"><ele>1274.0</ele><time>2026-04-23T14:10:30.933Z</time></trkpt><trkpt lat="31.13112" lon="-5.4432933"><ele>1274.5</ele><time>2026-04-23T14:10:31.933Z</time></trkpt><trkpt lat="31.1310183" lon="-5.443385"><ele>1275.0</ele><time>2026-04-23T14:10:32.934Z</time></trkpt><trkpt lat="31.1309417" lon="-5.44346"><ele>1275.0</ele><time>2026-04-23T14:10:33.934Z</time></trkpt><trkpt lat="31.1308833" lon="-5.44352"><ele>1275.0</ele><time>2026-04-23T14:10:34.934Z</time></trkpt><trkpt lat="31.13082" lon="-5.443585"><ele>1275.0</ele><time>2026-04-23T14:10:36.933Z</time></trkpt><trkpt lat="31.1307517" lon="-5.4436317"><ele>1275.0</ele><time>2026-04-23T14:12:00.933Z</time></trkpt><trkpt lat="31.1306933" lon="-5.4436783"><ele>1275.0</ele><time>2026-04-23T14:12:03.933Z</time></trkpt><trkpt lat="31.1306367" lon="-5.443735"><ele>1275.0</ele><time>2026-04-23T14:12:19.933Z</time></trkpt><trkpt lat="31.1305333" lon="-5.443825"><ele>1275.5</ele><time>2026-04-23T14:12:21.933Z</time></trkpt><trkpt lat="31.1304733" lon="-5.4438783"><ele>1276.0</ele><time>2026-04-23T14:12:22.933Z</time></trkpt><trkpt lat="31.13041" lon="-5.4439317"><ele>1276.5</ele><time>2026-04-23T14:12:23.933Z</time></trkpt><trkpt lat="31.13034" lon="-5.4439883"><ele>1277.0</ele><time>2026-04-23T14:12:24.933Z</time></trkpt><trkpt lat="31.1302567" lon="-5.4440367"><ele>1277.5</ele><time>2026-04-23T14:12:25.933Z</time></trkpt><trkpt lat="31.1301683" lon="-5.4440933"><ele>1278.0</ele><time>2026-04-23T14:12:26.933Z</time></trkpt><trkpt lat="31.1300817" lon="-5.444165"><ele>1278.0</ele><time>2026-04-23T14:12:27.933Z</time></trkpt><trkpt lat="31.1299967" lon="-5.444235"><ele>1278.0</ele><time>2026-04-23T14:12:28.932Z</time></trkpt><trkpt lat="31.129905" lon="-5.4443033"><ele>1278.0</ele><time>2026-04-23T14:12:29.933Z</time></trkpt><trkpt lat="31.129815" lon="-5.4443683"><ele>1278.0</ele><time>2026-04-23T14:12:30.932Z</time></trkpt><trkpt lat="31.1297317" lon="-5.4444333"><ele>1278.0</ele><time>2026-04-23T14:12:31.932Z</time></trkpt><trkpt lat="31.1296517" lon="-5.444495"><ele>1277.8</ele><time>2026-04-23T14:12:32.933Z</time></trkpt><trkpt lat="31.129565" lon="-5.4445533"><ele>1277.6</ele><time>2026-04-23T14:12:33.932Z</time></trkpt><trkpt lat="31.129485" lon="-5.444625"><ele>1277.4</ele><time>2026-04-23T14:12:34.933Z</time></trkpt><trkpt lat="31.129405" lon="-5.4446967"><ele>1277.2</ele><time>2026-04-23T14:12:35.933Z</time></trkpt><trkpt lat="31.1293217" lon="-5.44477"><ele>1277.0</ele><time>2026-04-23T14:12:36.932Z</time></trkpt><trkpt lat="31.129245" lon="-5.4448533"><ele>1277.2</ele><time>2026-04-23T14:12:37.933Z</time></trkpt><trkpt lat="31.1291717" lon="-5.4449483"><ele>1277.4</ele><time>2026-04-23T14:12:38.932Z</time></trkpt><trkpt lat="31.1291" lon="-5.4450467"><ele>1277.6</ele><time>2026-04-23T14:12:39.933Z</time></trkpt><trkpt lat="31.1290267" lon="-5.44515"><ele>1277.8</ele><time>2026-04-23T14:12:40.932Z</time></trkpt><trkpt lat="31.1289633" lon="-5.44525"><ele>1278.0</ele><time>2026-04-23T14:12:41.933Z</time></trkpt><trkpt lat="31.1289" lon="-5.4453567"><ele>1279.0</ele><time>2026-04-23T14:12:42.933Z</time></trkpt><trkpt lat="31.1288417" lon="-5.44547"><ele>1280.0</ele><time>2026-04-23T14:12:43.932Z</time></trkpt><trkpt lat="31.1287767" lon="-5.44558"><ele>1281.0</ele><time>2026-04-23T14:12:44.933Z</time></trkpt><trkpt lat="31.1287083" lon="-5.4456917"><ele>1282.0</ele><time>2026-04-23T14:12:45.932Z</time></trkpt><trkpt lat="31.1286483" lon="-5.445805"><ele>1282.0</ele><time>2026-04-23T14:12:46.933Z</time></trkpt><trkpt lat="31.1285917" lon="-5.4459067"><ele>1282.0</ele><time>2026-04-23T14:12:47.933Z</time></trkpt><trkpt lat="31.128535" lon="-5.4460067"><ele>1282.0</ele><time>2026-04-23T14:12:48.933Z</time></trkpt><trkpt lat="31.1284833" lon="-5.4461033"><ele>1282.0</ele><time>2026-04-23T14:12:49.933Z</time></trkpt><trkpt lat="31.1284367" lon="-5.4462133"><ele>1282.0</ele><time>2026-04-23T14:12:50.933Z</time></trkpt><trkpt lat="31.1283867" lon="-5.4463317"><ele>1281.6</ele><time>2026-04-23T14:12:51.933Z</time></trkpt><trkpt lat="31.12835" lon="-5.446445"><ele>1281.1999999999998</ele><time>2026-04-23T14:12:52.932Z</time></trkpt><trkpt lat="31.1283067" lon="-5.4465583"><ele>1280.8</ele><time>2026-04-23T14:12:53.933Z</time></trkpt><trkpt lat="31.1282583" lon="-5.4466733"><ele>1280.4</ele><time>2026-04-23T14:12:54.933Z</time></trkpt><trkpt lat="31.1282" lon="-5.446795"><ele>1280.0</ele><time>2026-04-23T14:12:55.933Z</time></trkpt><trkpt lat="31.128135" lon="-5.4469117"><ele>1280.0</ele><time>2026-04-23T14:12:56.932Z</time></trkpt><trkpt lat="31.1280667" lon="-5.4470317"><ele>1280.0</ele><time>2026-04-23T14:12:57.933Z</time></trkpt><trkpt lat="31.1279983" lon="-5.4471533"><ele>1280.0</ele><time>2026-04-23T14:12:58.933Z</time></trkpt><trkpt lat="31.1279383" lon="-5.4472767"><ele>1280.0</ele><time>2026-04-23T14:12:59.933Z</time></trkpt><trkpt lat="31.1278733" lon="-5.4474017"><ele>1281.0</ele><time>2026-04-23T14:13:00.933Z</time></trkpt><trkpt lat="31.1278067" lon="-5.4475167"><ele>1282.0</ele><time>2026-04-23T14:13:01.932Z</time></trkpt><trkpt lat="31.12775" lon="-5.4476217"><ele>1283.0</ele><time>2026-04-23T14:13:02.933Z</time></trkpt><trkpt lat="31.1276917" lon="-5.447725"><ele>1284.0</ele><time>2026-04-23T14:13:03.932Z</time></trkpt><trkpt lat="31.1276233" lon="-5.4478333"><ele>1285.0</ele><time>2026-04-23T14:13:04.932Z</time></trkpt><trkpt lat="31.1275483" lon="-5.4479283"><ele>1286.6</ele><time>2026-04-23T14:13:05.933Z</time></trkpt><trkpt lat="31.1274717" lon="-5.4480067"><ele>1288.2</ele><time>2026-04-23T14:13:06.932Z</time></trkpt><trkpt lat="31.1273833" lon="-5.4480683"><ele>1289.8000000000002</ele><time>2026-04-23T14:13:07.933Z</time></trkpt><trkpt lat="31.127295" lon="-5.4481283"><ele>1291.4</ele><time>2026-04-23T14:13:08.933Z</time></trkpt><trkpt lat="31.1272" lon="-5.4481933"><ele>1293.0</ele><time>2026-04-23T14:13:09.933Z</time></trkpt><trkpt lat="31.1271017" lon="-5.44826"><ele>1293.0</ele><time>2026-04-23T14:13:10.933Z</time></trkpt><trkpt lat="31.127" lon="-5.448335"><ele>1293.0</ele><time>2026-04-23T14:13:11.933Z</time></trkpt><trkpt lat="31.1268983" lon="-5.448415"><ele>1293.0</ele><time>2026-04-23T14:13:12.933Z</time></trkpt><trkpt lat="31.1267933" lon="-5.4485"><ele>1293.0</ele><time>2026-04-23T14:13:13.933Z</time></trkpt><trkpt lat="31.1266933" lon="-5.4485783"><ele>1293.0</ele><time>2026-04-23T14:13:14.933Z</time></trkpt><trkpt lat="31.1265883" lon="-5.448655"><ele>1293.0</ele><time>2026-04-23T14:13:15.933Z</time></trkpt><trkpt lat="31.1264817" lon="-5.44873"><ele>1293.0</ele><time>2026-04-23T14:13:16.933Z</time></trkpt><trkpt lat="31.1263717" lon="-5.4487967"><ele>1293.0</ele><time>2026-04-23T14:13:17.933Z</time></trkpt><trkpt lat="31.12627" lon="-5.4488617"><ele>1295.25</ele><time>2026-04-23T14:13:18.933Z</time></trkpt><trkpt lat="31.1261717" lon="-5.44893"><ele>1297.5</ele><time>2026-04-23T14:13:19.932Z</time></trkpt><trkpt lat="31.12607" lon="-5.4490033"><ele>1299.75</ele><time>2026-04-23T14:13:20.933Z</time></trkpt><trkpt lat="31.1259733" lon="-5.4490783"><ele>1302.0</ele><time>2026-04-23T14:13:21.933Z</time></trkpt><trkpt lat="31.12588" lon="-5.4491467"><ele>1302.0</ele><time>2026-04-23T14:13:22.932Z</time></trkpt><trkpt lat="31.1257817" lon="-5.4492133"><ele>1302.0</ele><time>2026-04-23T14:13:23.932Z</time></trkpt><trkpt lat="31.1256883" lon="-5.4492767"><ele>1302.0</ele><time>2026-04-23T14:13:24.932Z</time></trkpt><trkpt lat="31.125595" lon="-5.4493517"><ele>1302.0</ele><time>2026-04-23T14:13:25.932Z</time></trkpt><trkpt lat="31.125505" lon="-5.449425"><ele>1302.0</ele><time>2026-04-23T14:13:26.933Z</time></trkpt><trkpt lat="31.1254133" lon="-5.4495017"><ele>1301.25</ele><time>2026-04-23T14:13:27.933Z</time></trkpt><trkpt lat="31.12532" lon="-5.449585"><ele>1300.5</ele><time>2026-04-23T14:13:28.933Z</time></trkpt><trkpt lat="31.125235" lon="-5.4496617"><ele>1299.75</ele><time>2026-04-23T14:13:29.933Z</time></trkpt><trkpt lat="31.125135" lon="-5.44974"><ele>1299.0</ele><time>2026-04-23T14:13:30.933Z</time></trkpt><trkpt lat="31.1250417" lon="-5.44981"><ele>1299.8000000000002</ele><time>2026-04-23T14:13:31.933Z</time></trkpt><trkpt lat="31.1249483" lon="-5.449885"><ele>1300.6000000000001</ele><time>2026-04-23T14:13:32.932Z</time></trkpt><trkpt lat="31.1248617" lon="-5.4499683"><ele>1301.4</ele><time>2026-04-23T14:13:33.933Z</time></trkpt><trkpt lat="31.1247883" lon="-5.45005"><ele>1302.2</ele><time>2026-04-23T14:13:34.933Z</time></trkpt><trkpt lat="31.1247167" lon="-5.4501483"><ele>1303.0</ele><time>2026-04-23T14:13:35.933Z</time></trkpt><trkpt lat="31.1246517" lon="-5.450245"><ele>1303.0</ele><time>2026-04-23T14:13:36.933Z</time></trkpt><trkpt lat="31.1245867" lon="-5.4503367"><ele>1303.0</ele><time>2026-04-23T14:13:37.933Z</time></trkpt><trkpt lat="31.1245217" lon="-5.4504217"><ele>1303.0</ele><time>2026-04-23T14:13:38.933Z</time></trkpt><trkpt lat="31.124465" lon="-5.4505083"><ele>1303.0</ele><time>2026-04-23T14:13:39.932Z</time></trkpt><trkpt lat="31.1244217" lon="-5.4505933"><ele>1303.0</ele><time>2026-04-23T14:13:40.932Z</time></trkpt><trkpt lat="31.124385" lon="-5.4506733"><ele>1304.8333333333333</ele><time>2026-04-23T14:13:41.933Z</time></trkpt><trkpt lat="31.1243383" lon="-5.4507417"><ele>1306.6666666666665</ele><time>2026-04-23T14:13:42.933Z</time></trkpt><trkpt lat="31.1242917" lon="-5.4508033"><ele>1308.5</ele><time>2026-04-23T14:13:43.933Z</time></trkpt><trkpt lat="31.1242383" lon="-5.4508667"><ele>1310.3333333333333</ele><time>2026-04-23T14:13:44.933Z</time></trkpt><trkpt lat="31.1241767" lon="-5.4509283"><ele>1312.1666666666667</ele><time>2026-04-23T14:13:45.932Z</time></trkpt><trkpt lat="31.1241167" lon="-5.4509917"><ele>1314.0</ele><time>2026-04-23T14:13:46.933Z</time></trkpt><trkpt lat="31.124055" lon="-5.451055"><ele>1314.0</ele><time>2026-04-23T14:13:47.932Z</time></trkpt><trkpt lat="31.123985" lon="-5.45112"><ele>1314.0</ele><time>2026-04-23T14:13:48.932Z</time></trkpt><trkpt lat="31.123915" lon="-5.451185"><ele>1314.0</ele><time>2026-04-23T14:13:49.933Z</time></trkpt><trkpt lat="31.1238517" lon="-5.4512483"><ele>1314.0</ele><time>2026-04-23T14:13:50.933Z</time></trkpt><trkpt lat="31.1237933" lon="-5.451315"><ele>1314.0</ele><time>2026-04-23T14:13:51.933Z</time></trkpt><trkpt lat="31.1237433" lon="-5.4513867"><ele>1314.0</ele><time>2026-04-23T14:13:52.933Z</time></trkpt><trkpt lat="31.1237067" lon="-5.4514583"><ele>1315.3333333333333</ele><time>2026-04-23T14:13:53.933Z</time></trkpt><trkpt lat="31.1236717" lon="-5.4515367"><ele>1316.6666666666667</ele><time>2026-04-23T14:13:54.933Z</time></trkpt><trkpt lat="31.1236333" lon="-5.451615"><ele>1318.0</ele><time>2026-04-23T14:13:55.933Z</time></trkpt><trkpt lat="31.123585" lon="-5.451705"><ele>1319.3333333333335</ele><time>2026-04-23T14:13:56.933Z</time></trkpt><trkpt lat="31.1235317" lon="-5.45178"><ele>1320.6666666666667</ele><time>2026-04-23T14:13:57.933Z</time></trkpt><trkpt lat="31.123475" lon="-5.4518467"><ele>1322.0</ele><time>2026-04-23T14:13:58.933Z</time></trkpt><trkpt lat="31.1234183" lon="-5.4518983"><ele>1322.0</ele><time>2026-04-23T14:13:59.933Z</time></trkpt><trkpt lat="31.1233467" lon="-5.4519583"><ele>1322.0</ele><time>2026-04-23T14:14:01.933Z</time></trkpt><trkpt lat="31.1233" lon="-5.4520083"><ele>1322.0</ele><time>2026-04-23T14:14:03.933Z</time></trkpt><trkpt lat="31.1232617" lon="-5.4520967"><ele>1322.0</ele><time>2026-04-23T14:14:05.933Z</time></trkpt><trkpt lat="31.1232217" lon="-5.4522117"><ele>1322.0</ele><time>2026-04-23T14:14:07.932Z</time></trkpt><trkpt lat="31.1231667" lon="-5.4523333"><ele>1321.1666666666667</ele><time>2026-04-23T14:14:09.933Z</time></trkpt><trkpt lat="31.123125" lon="-5.45239"><ele>1320.3333333333335</ele><time>2026-04-23T14:14:10.933Z</time></trkpt><trkpt lat="31.1230267" lon="-5.452475"><ele>1319.5</ele><time>2026-04-23T14:14:12.933Z</time></trkpt><trkpt lat="31.1229717" lon="-5.4525233"><ele>1318.6666666666667</ele><time>2026-04-23T14:14:13.932Z</time></trkpt><trkpt lat="31.1229133" lon="-5.4525633"><ele>1317.8333333333333</ele><time>2026-04-23T14:14:14.933Z</time></trkpt><trkpt lat="31.1228133" lon="-5.4526317"><ele>1317.0</ele><time>2026-04-23T14:14:16.933Z</time></trkpt><trkpt lat="31.1227217" lon="-5.4527217"><ele>1317.0</ele><time>2026-04-23T14:14:18.933Z</time></trkpt><trkpt lat="31.122675" lon="-5.4527717"><ele>1317.0</ele><time>2026-04-23T14:14:19.932Z</time></trkpt><trkpt lat="31.1226267" lon="-5.4528217"><ele>1317.0</ele><time>2026-04-23T14:14:20.933Z</time></trkpt><trkpt lat="31.1225717" lon="-5.4528583"><ele>1317.0</ele><time>2026-04-23T14:14:21.933Z</time></trkpt><trkpt lat="31.1224633" lon="-5.4528967"><ele>1317.0</ele><time>2026-04-23T14:14:23.932Z</time></trkpt><trkpt lat="31.1223733" lon="-5.4529417"><ele>1317.0</ele><time>2026-04-23T14:14:25.933Z</time></trkpt><trkpt lat="31.122305" lon="-5.4529983"><ele>1316.6</ele><time>2026-04-23T14:14:27.932Z</time></trkpt><trkpt lat="31.1222417" lon="-5.4530683"><ele>1316.1999999999998</ele><time>2026-04-23T14:14:29.932Z</time></trkpt><trkpt lat="31.1221983" lon="-5.453145"><ele>1315.8</ele><time>2026-04-23T14:14:31.933Z</time></trkpt><trkpt lat="31.12212" lon="-5.4532117"><ele>1315.4</ele><time>2026-04-23T14:14:33.932Z</time></trkpt><trkpt lat="31.1220033" lon="-5.4532633"><ele>1315.0</ele><time>2026-04-23T14:14:35.933Z</time></trkpt><trkpt lat="31.1219367" lon="-5.4533033"><ele>1315.0</ele><time>2026-04-23T14:14:36.932Z</time></trkpt><trkpt lat="31.1218667" lon="-5.453345"><ele>1315.0</ele><time>2026-04-23T14:14:37.933Z</time></trkpt><trkpt lat="31.1218083" lon="-5.45339"><ele>1315.0</ele><time>2026-04-23T14:14:38.932Z</time></trkpt><trkpt lat="31.1217583" lon="-5.4534433"><ele>1315.0</ele><time>2026-04-23T14:14:39.933Z</time></trkpt><trkpt lat="31.1217117" lon="-5.4534983"><ele>1315.0</ele><time>2026-04-23T14:14:40.933Z</time></trkpt><trkpt lat="31.12167" lon="-5.453565"><ele>1315.0</ele><time>2026-04-23T14:14:41.933Z</time></trkpt><trkpt lat="31.121635" lon="-5.4536283"><ele>1315.0</ele><time>2026-04-23T14:14:42.933Z</time></trkpt><trkpt lat="31.1215767" lon="-5.4537383"><ele>1314.6</ele><time>2026-04-23T14:14:44.933Z</time></trkpt><trkpt lat="31.1215367" lon="-5.453855"><ele>1314.2</ele><time>2026-04-23T14:14:46.933Z</time></trkpt><trkpt lat="31.1215183" lon="-5.4539767"><ele>1313.8000000000002</ele><time>2026-04-23T14:14:48.932Z</time></trkpt><trkpt lat="31.1215067" lon="-5.4540983"><ele>1313.4</ele><time>2026-04-23T14:14:50.933Z</time></trkpt><trkpt lat="31.121505" lon="-5.454205"><ele>1313.0</ele><time>2026-04-23T14:14:52.933Z</time></trkpt><trkpt lat="31.1214833" lon="-5.45431"><ele>1313.0</ele><time>2026-04-23T14:15:56.933Z</time></trkpt><trkpt lat="31.1214733" lon="-5.45441"><ele>1313.0</ele><time>2026-04-23T14:15:58.933Z</time></trkpt><trkpt lat="31.121465" lon="-5.4545433"><ele>1313.0</ele><time>2026-04-23T14:16:00.933Z</time></trkpt><trkpt lat="31.121455" lon="-5.4546167"><ele>1313.0</ele><time>2026-04-23T14:16:01.933Z</time></trkpt><trkpt lat="31.1214433" lon="-5.4546917"><ele>1313.0</ele><time>2026-04-23T14:16:02.933Z</time></trkpt><trkpt lat="31.1214167" lon="-5.4548233"><ele>1313.0</ele><time>2026-04-23T14:16:04.932Z</time></trkpt><trkpt lat="31.1214083" lon="-5.4549433"><ele>1313.6000000000001</ele><time>2026-04-23T14:16:06.933Z</time></trkpt><trkpt lat="31.1214117" lon="-5.4550917"><ele>1314.2</ele><time>2026-04-23T14:16:08.932Z</time></trkpt><trkpt lat="31.12142" lon="-5.45523"><ele>1314.8</ele><time>2026-04-23T14:16:10.933Z</time></trkpt><trkpt lat="31.1214" lon="-5.4553667"><ele>1315.4</ele><time>2026-04-23T14:16:12.932Z</time></trkpt><trkpt lat="31.1213883" lon="-5.4554417"><ele>1316.0</ele><time>2026-04-23T14:16:13.931Z</time></trkpt><trkpt lat="31.1213717" lon="-5.4555217"><ele>1316.5</ele><time>2026-04-23T14:16:14.932Z</time></trkpt><trkpt lat="31.12135" lon="-5.4556017"><ele>1317.0</ele><time>2026-04-23T14:16:15.931Z</time></trkpt><trkpt lat="31.12133" lon="-5.4556817"><ele>1317.5</ele><time>2026-04-23T14:16:16.932Z</time></trkpt><trkpt lat="31.1213133" lon="-5.4557617"><ele>1318.0</ele><time>2026-04-23T14:16:17.932Z</time></trkpt><trkpt lat="31.1213033" lon="-5.4558433"><ele>1318.5</ele><time>2026-04-23T14:16:18.931Z</time></trkpt><trkpt lat="31.1213017" lon="-5.4559817"><ele>1319.0</ele><time>2026-04-23T14:16:20.931Z</time></trkpt><trkpt lat="31.1212967" lon="-5.4561167"><ele>1319.0</ele><time>2026-04-23T14:16:22.932Z</time></trkpt><trkpt lat="31.1212917" lon="-5.4561917"><ele>1319.0</ele><time>2026-04-23T14:16:23.932Z</time></trkpt><trkpt lat="31.12128" lon="-5.456275"><ele>1319.0</ele><time>2026-04-23T14:16:24.932Z</time></trkpt><trkpt lat="31.1212567" lon="-5.45636"><ele>1319.0</ele><time>2026-04-23T14:16:25.932Z</time></trkpt><trkpt lat="31.1212367" lon="-5.4564483"><ele>1319.0</ele><time>2026-04-23T14:16:26.932Z</time></trkpt><trkpt lat="31.1212233" lon="-5.456525"><ele>1319.0</ele><time>2026-04-23T14:16:27.931Z</time></trkpt><trkpt lat="31.1211833" lon="-5.45666"><ele>1319.2</ele><time>2026-04-23T14:16:29.932Z</time></trkpt><trkpt lat="31.1211483" lon="-5.4568067"><ele>1319.4</ele><time>2026-04-23T14:16:31.932Z</time></trkpt><trkpt lat="31.1211283" lon="-5.4568867"><ele>1319.6</ele><time>2026-04-23T14:16:32.932Z</time></trkpt><trkpt lat="31.1211033" lon="-5.4569683"><ele>1319.8</ele><time>2026-04-23T14:16:33.932Z</time></trkpt><trkpt lat="31.1210817" lon="-5.4571067"><ele>1320.0</ele><time>2026-04-23T14:16:35.932Z</time></trkpt><trkpt lat="31.1210433" lon="-5.45722"><ele>1321.2</ele><time>2026-04-23T14:16:37.931Z</time></trkpt><trkpt lat="31.1209983" lon="-5.4573133"><ele>1322.4</ele><time>2026-04-23T14:16:39.931Z</time></trkpt><trkpt lat="31.120955" lon="-5.457415"><ele>1323.6</ele><time>2026-04-23T14:16:41.932Z</time></trkpt><trkpt lat="31.1209017" lon="-5.457525"><ele>1324.8</ele><time>2026-04-23T14:16:43.932Z</time></trkpt><trkpt lat="31.1208367" lon="-5.4576233"><ele>1326.0</ele><time>2026-04-23T14:16:45.932Z</time></trkpt><trkpt lat="31.1207767" lon="-5.4577083"><ele>1325.8</ele><time>2026-04-23T14:16:47.932Z</time></trkpt><trkpt lat="31.120725" lon="-5.45779"><ele>1325.6</ele><time>2026-04-23T14:16:49.932Z</time></trkpt><trkpt lat="31.120665" lon="-5.4578983"><ele>1325.4</ele><time>2026-04-23T14:16:51.932Z</time></trkpt><trkpt lat="31.1206017" lon="-5.4580233"><ele>1325.2</ele><time>2026-04-23T14:16:53.931Z</time></trkpt><trkpt lat="31.120575" lon="-5.4580917"><ele>1325.0</ele><time>2026-04-23T14:16:54.932Z</time></trkpt><trkpt lat="31.1205517" lon="-5.4581733"><ele>1325.0</ele><time>2026-04-23T14:16:55.932Z</time></trkpt><trkpt lat="31.1205433" lon="-5.45826"><ele>1325.0</ele><time>2026-04-23T14:16:56.932Z</time></trkpt><trkpt lat="31.12054" lon="-5.4583533"><ele>1325.0</ele><time>2026-04-23T14:16:57.932Z</time></trkpt><trkpt lat="31.1205467" lon="-5.4584433"><ele>1325.0</ele><time>2026-04-23T14:16:58.932Z</time></trkpt><trkpt lat="31.1205567" lon="-5.45854"><ele>1325.0</ele><time>2026-04-23T14:16:59.931Z</time></trkpt><trkpt lat="31.120565" lon="-5.4586383"><ele>1325.0</ele><time>2026-04-23T14:17:00.932Z</time></trkpt><trkpt lat="31.1205667" lon="-5.45875"><ele>1325.4</ele><time>2026-04-23T14:17:01.932Z</time></trkpt><trkpt lat="31.1205667" lon="-5.45886"><ele>1325.8</ele><time>2026-04-23T14:17:02.931Z</time></trkpt><trkpt lat="31.1205717" lon="-5.45897"><ele>1326.1999999999998</ele><time>2026-04-23T14:17:03.932Z</time></trkpt><trkpt lat="31.120575" lon="-5.4590833"><ele>1326.6</ele><time>2026-04-23T14:17:04.932Z</time></trkpt><trkpt lat="31.1205833" lon="-5.4592"><ele>1327.0</ele><time>2026-04-23T14:17:05.931Z</time></trkpt><trkpt lat="31.1205967" lon="-5.4593183"><ele>1327.0</ele><time>2026-04-23T14:17:06.931Z</time></trkpt><trkpt lat="31.1206117" lon="-5.4594233"><ele>1327.0</ele><time>2026-04-23T14:17:07.931Z</time></trkpt><trkpt lat="31.120625" lon="-5.4595167"><ele>1327.0</ele><time>2026-04-23T14:17:08.931Z</time></trkpt><trkpt lat="31.1206333" lon="-5.45961"><ele>1327.0</ele><time>2026-04-23T14:17:09.932Z</time></trkpt><trkpt lat="31.1206383" lon="-5.4596867"><ele>1327.0</ele><time>2026-04-23T14:17:10.932Z</time></trkpt><trkpt lat="31.1206583" lon="-5.4598033"><ele>1327.0</ele><time>2026-04-23T14:17:12.932Z</time></trkpt><trkpt lat="31.1206817" lon="-5.4598717"><ele>1327.0</ele><time>2026-04-23T14:17:14.932Z</time></trkpt><trkpt lat="31.12067" lon="-5.4597933"><ele>1327.0</ele><time>2026-04-23T14:21:52.93Z</time></trkpt><trkpt lat="31.120655" lon="-5.459685"><ele>1327.0</ele><time>2026-04-23T14:21:54.931Z</time></trkpt><trkpt lat="31.120635" lon="-5.4595583"><ele>1327.0</ele><time>2026-04-23T14:21:56.931Z</time></trkpt><trkpt lat="31.1206217" lon="-5.459445"><ele>1327.0</ele><time>2026-04-23T14:21:58.931Z</time></trkpt><trkpt lat="31.1206017" lon="-5.45934"><ele>1327.0</ele><time>2026-04-23T14:22:00.931Z</time></trkpt><trkpt lat="31.1205967" lon="-5.4592383"><ele>1327.0</ele><time>2026-04-23T14:22:02.931Z</time></trkpt><trkpt lat="31.1205917" lon="-5.4591333"><ele>1327.0</ele><time>2026-04-23T14:22:04.931Z</time></trkpt><trkpt lat="31.1205883" lon="-5.4589867"><ele>1327.0</ele><time>2026-04-23T14:22:06.93Z</time></trkpt><trkpt lat="31.1205867" lon="-5.4589"><ele>1327.0</ele><time>2026-04-23T14:22:07.931Z</time></trkpt><trkpt lat="31.1205867" lon="-5.4588067"><ele>1326.6</ele><time>2026-04-23T14:22:08.931Z</time></trkpt><trkpt lat="31.120585" lon="-5.4587167"><ele>1326.1999999999998</ele><time>2026-04-23T14:22:09.931Z</time></trkpt><trkpt lat="31.1205817" lon="-5.4586317"><ele>1325.8</ele><time>2026-04-23T14:22:10.931Z</time></trkpt><trkpt lat="31.1205633" lon="-5.4584867"><ele>1325.4</ele><time>2026-04-23T14:22:12.93Z</time></trkpt><trkpt lat="31.1205517" lon="-5.4583383"><ele>1325.0</ele><time>2026-04-23T14:22:14.931Z</time></trkpt><trkpt lat="31.120555" lon="-5.458255"><ele>1325.0</ele><time>2026-04-23T14:22:15.931Z</time></trkpt><trkpt lat="31.1205617" lon="-5.458175"><ele>1325.0</ele><time>2026-04-23T14:22:16.931Z</time></trkpt><trkpt lat="31.1205767" lon="-5.4580983"><ele>1325.0</ele><time>2026-04-23T14:22:17.931Z</time></trkpt><trkpt lat="31.1206033" lon="-5.4580233"><ele>1325.0</ele><time>2026-04-23T14:22:18.931Z</time></trkpt><trkpt lat="31.1206433" lon="-5.4579467"><ele>1325.0</ele><time>2026-04-23T14:22:19.931Z</time></trkpt><trkpt lat="31.1206933" lon="-5.4578633"><ele>1325.0</ele><time>2026-04-23T14:22:20.931Z</time></trkpt><trkpt lat="31.1207483" lon="-5.4577683"><ele>1325.2</ele><time>2026-04-23T14:22:21.93Z</time></trkpt><trkpt lat="31.120805" lon="-5.4576783"><ele>1325.4</ele><time>2026-04-23T14:22:22.93Z</time></trkpt><trkpt lat="31.1208633" lon="-5.4575867"><ele>1325.6</ele><time>2026-04-23T14:22:23.931Z</time></trkpt><trkpt lat="31.120915" lon="-5.4574917"><ele>1325.8</ele><time>2026-04-23T14:22:24.931Z</time></trkpt><trkpt lat="31.1209633" lon="-5.4573883"><ele>1326.0</ele><time>2026-04-23T14:22:25.931Z</time></trkpt><trkpt lat="31.12101" lon="-5.4572883"><ele>1326.0</ele><time>2026-04-23T14:22:26.931Z</time></trkpt><trkpt lat="31.12105" lon="-5.45719"><ele>1326.0</ele><time>2026-04-23T14:22:27.931Z</time></trkpt><trkpt lat="31.1210883" lon="-5.4570867"><ele>1326.0</ele><time>2026-04-23T14:22:28.93Z</time></trkpt><trkpt lat="31.121115" lon="-5.4569817"><ele>1326.0</ele><time>2026-04-23T14:22:29.931Z</time></trkpt><trkpt lat="31.12114" lon="-5.45688"><ele>1326.0</ele><time>2026-04-23T14:22:30.931Z</time></trkpt><trkpt lat="31.1211617" lon="-5.45678"><ele>1324.8</ele><time>2026-04-23T14:22:31.931Z</time></trkpt><trkpt lat="31.121195" lon="-5.4566733"><ele>1323.6</ele><time>2026-04-23T14:22:32.931Z</time></trkpt><trkpt lat="31.1212183" lon="-5.4565733"><ele>1322.4</ele><time>2026-04-23T14:22:33.93Z</time></trkpt><trkpt lat="31.1212417" lon="-5.4564667"><ele>1321.2</ele><time>2026-04-23T14:22:34.931Z</time></trkpt><trkpt lat="31.121265" lon="-5.45636"><ele>1320.0</ele><time>2026-04-23T14:22:35.931Z</time></trkpt><trkpt lat="31.1212867" lon="-5.4562583"><ele>1319.8333333333333</ele><time>2026-04-23T14:22:36.931Z</time></trkpt><trkpt lat="31.121305" lon="-5.4561633"><ele>1319.6666666666667</ele><time>2026-04-23T14:22:37.931Z</time></trkpt><trkpt lat="31.1213133" lon="-5.4560733"><ele>1319.5</ele><time>2026-04-23T14:22:38.93Z</time></trkpt><trkpt lat="31.1213117" lon="-5.455975"><ele>1319.3333333333335</ele><time>2026-04-23T14:22:39.931Z</time></trkpt><trkpt lat="31.1213067" lon="-5.455885"><ele>1319.1666666666667</ele><time>2026-04-23T14:22:40.931Z</time></trkpt><trkpt lat="31.1213133" lon="-5.455795"><ele>1319.0</ele><time>2026-04-23T14:22:41.93Z</time></trkpt><trkpt lat="31.1213317" lon="-5.455695"><ele>1319.0</ele><time>2026-04-23T14:22:42.931Z</time></trkpt><trkpt lat="31.12136" lon="-5.45559"><ele>1319.0</ele><time>2026-04-23T14:22:43.931Z</time></trkpt><trkpt lat="31.12139" lon="-5.4554817"><ele>1319.0</ele><time>2026-04-23T14:22:44.931Z</time></trkpt><trkpt lat="31.12141" lon="-5.455375"><ele>1319.0</ele><time>2026-04-23T14:22:45.931Z</time></trkpt><trkpt lat="31.1214217" lon="-5.4552667"><ele>1319.0</ele><time>2026-04-23T14:22:46.931Z</time></trkpt><trkpt lat="31.121425" lon="-5.4551583"><ele>1318.4</ele><time>2026-04-23T14:22:47.931Z</time></trkpt><trkpt lat="31.1214183" lon="-5.4550533"><ele>1317.8000000000002</ele><time>2026-04-23T14:22:48.931Z</time></trkpt><trkpt lat="31.1214167" lon="-5.4549433"><ele>1317.1999999999998</ele><time>2026-04-23T14:22:49.93Z</time></trkpt><trkpt lat="31.12142" lon="-5.45482"><ele>1316.6</ele><time>2026-04-23T14:22:50.93Z</time></trkpt><trkpt lat="31.1214417" lon="-5.45468"><ele>1316.0</ele><time>2026-04-23T14:22:51.931Z</time></trkpt><trkpt lat="31.1214667" lon="-5.45454"><ele>1315.4</ele><time>2026-04-23T14:22:52.93Z</time></trkpt><trkpt lat="31.1214867" lon="-5.454405"><ele>1314.8</ele><time>2026-04-23T14:22:53.93Z</time></trkpt><trkpt lat="31.1214983" lon="-5.4542833"><ele>1314.2</ele><time>2026-04-23T14:22:54.931Z</time></trkpt><trkpt lat="31.1215017" lon="-5.4541667"><ele>1313.6000000000001</ele><time>2026-04-23T14:22:55.931Z</time></trkpt><trkpt lat="31.1215067" lon="-5.454045"><ele>1313.0</ele><time>2026-04-23T14:22:56.931Z</time></trkpt><trkpt lat="31.1215133" lon="-5.4539267"><ele>1313.0</ele><time>2026-04-23T14:22:57.93Z</time></trkpt><trkpt lat="31.121535" lon="-5.45383"><ele>1313.0</ele><time>2026-04-23T14:22:58.931Z</time></trkpt><trkpt lat="31.1215683" lon="-5.4537333"><ele>1313.0</ele><time>2026-04-23T14:22:59.931Z</time></trkpt><trkpt lat="31.1216167" lon="-5.4536483"><ele>1313.0</ele><time>2026-04-23T14:23:00.931Z</time></trkpt><trkpt lat="31.1216733" lon="-5.45356"><ele>1313.0</ele><time>2026-04-23T14:23:01.93Z</time></trkpt><trkpt lat="31.121735" lon="-5.4534733"><ele>1313.4</ele><time>2026-04-23T14:23:02.93Z</time></trkpt><trkpt lat="31.1217967" lon="-5.4534067"><ele>1313.8000000000002</ele><time>2026-04-23T14:23:03.931Z</time></trkpt><trkpt lat="31.12187" lon="-5.4533517"><ele>1314.2</ele><time>2026-04-23T14:23:04.93Z</time></trkpt><trkpt lat="31.1219583" lon="-5.4532933"><ele>1314.6</ele><time>2026-04-23T14:23:05.931Z</time></trkpt><trkpt lat="31.1220533" lon="-5.4532333"><ele>1315.0</ele><time>2026-04-23T14:23:06.931Z</time></trkpt><trkpt lat="31.122145" lon="-5.4531717"><ele>1315.0</ele><time>2026-04-23T14:23:07.931Z</time></trkpt><trkpt lat="31.122225" lon="-5.4531"><ele>1315.0</ele><time>2026-04-23T14:23:08.931Z</time></trkpt><trkpt lat="31.1222983" lon="-5.45302"><ele>1315.0</ele><time>2026-04-23T14:23:09.931Z</time></trkpt><trkpt lat="31.1223817" lon="-5.4529533"><ele>1315.0</ele><time>2026-04-23T14:23:10.931Z</time></trkpt><trkpt lat="31.1224633" lon="-5.4529067"><ele>1315.0</ele><time>2026-04-23T14:23:11.93Z</time></trkpt><trkpt lat="31.1225467" lon="-5.4528617"><ele>1315.4</ele><time>2026-04-23T14:23:12.931Z</time></trkpt><trkpt lat="31.1226283" lon="-5.4528083"><ele>1315.8</ele><time>2026-04-23T14:23:13.931Z</time></trkpt><trkpt lat="31.1227083" lon="-5.452745"><ele>1316.1999999999998</ele><time>2026-04-23T14:23:14.931Z</time></trkpt><trkpt lat="31.1227783" lon="-5.4526767"><ele>1316.6</ele><time>2026-04-23T14:23:15.931Z</time></trkpt><trkpt lat="31.1228567" lon="-5.4526067"><ele>1317.0</ele><time>2026-04-23T14:23:16.931Z</time></trkpt><trkpt lat="31.1229417" lon="-5.4525467"><ele>1317.0</ele><time>2026-04-23T14:23:17.931Z</time></trkpt><trkpt lat="31.12302" lon="-5.4524833"><ele>1317.0</ele><time>2026-04-23T14:23:18.931Z</time></trkpt><trkpt lat="31.1230833" lon="-5.4524133"><ele>1317.0</ele><time>2026-04-23T14:23:19.931Z</time></trkpt><trkpt lat="31.123145" lon="-5.4523417"><ele>1317.0</ele><time>2026-04-23T14:23:20.931Z</time></trkpt><trkpt lat="31.1231933" lon="-5.4522617"><ele>1317.0</ele><time>2026-04-23T14:23:21.931Z</time></trkpt><trkpt lat="31.123235" lon="-5.4521633"><ele>1317.0</ele><time>2026-04-23T14:23:22.931Z</time></trkpt><trkpt lat="31.1232733" lon="-5.452075"><ele>1317.8333333333333</ele><time>2026-04-23T14:23:23.931Z</time></trkpt><trkpt lat="31.12331" lon="-5.451995"><ele>1318.6666666666667</ele><time>2026-04-23T14:23:24.931Z</time></trkpt><trkpt lat="31.12336" lon="-5.4519333"><ele>1319.5</ele><time>2026-04-23T14:23:25.931Z</time></trkpt><trkpt lat="31.1234233" lon="-5.4518717"><ele>1320.3333333333335</ele><time>2026-04-23T14:23:26.93Z</time></trkpt><trkpt lat="31.1234917" lon="-5.451815"><ele>1321.1666666666667</ele><time>2026-04-23T14:23:27.93Z</time></trkpt><trkpt lat="31.123555" lon="-5.451755"><ele>1322.0</ele><time>2026-04-23T14:23:28.931Z</time></trkpt><trkpt lat="31.123605" lon="-5.4516833"><ele>1322.0</ele><time>2026-04-23T14:23:29.931Z</time></trkpt><trkpt lat="31.1236467" lon="-5.4516067"><ele>1322.0</ele><time>2026-04-23T14:23:30.931Z</time></trkpt><trkpt lat="31.1236883" lon="-5.45152"><ele>1322.0</ele><time>2026-04-23T14:23:31.931Z</time></trkpt><trkpt lat="31.12372" lon="-5.4514317"><ele>1322.0</ele><time>2026-04-23T14:23:32.931Z</time></trkpt><trkpt lat="31.1237583" lon="-5.4513433"><ele>1322.0</ele><time>2026-04-23T14:23:33.93Z</time></trkpt><trkpt lat="31.1238067" lon="-5.4512683"><ele>1322.0</ele><time>2026-04-23T14:23:34.931Z</time></trkpt><trkpt lat="31.1238683" lon="-5.45121"><ele>1320.8333333333335</ele><time>2026-04-23T14:23:35.931Z</time></trkpt><trkpt lat="31.1239333" lon="-5.4511533"><ele>1319.6666666666667</ele><time>2026-04-23T14:23:36.931Z</time></trkpt><trkpt lat="31.1239917" lon="-5.4511"><ele>1318.5</ele><time>2026-04-23T14:23:37.931Z</time></trkpt><trkpt lat="31.1240617" lon="-5.4510433"><ele>1317.3333333333333</ele><time>2026-04-23T14:23:38.931Z</time></trkpt><trkpt lat="31.12413" lon="-5.450975"><ele>1316.1666666666665</ele><time>2026-04-23T14:23:39.93Z</time></trkpt><trkpt lat="31.1241933" lon="-5.4509017"><ele>1315.0</ele><time>2026-04-23T14:23:40.931Z</time></trkpt><trkpt lat="31.12427" lon="-5.4508167"><ele>1315.0</ele><time>2026-04-23T14:23:41.931Z</time></trkpt><trkpt lat="31.12434" lon="-5.4507267"><ele>1315.0</ele><time>2026-04-23T14:23:42.931Z</time></trkpt><trkpt lat="31.1243983" lon="-5.4506467"><ele>1315.0</ele><time>2026-04-23T14:23:43.93Z</time></trkpt><trkpt lat="31.1244517" lon="-5.450555"><ele>1315.0</ele><time>2026-04-23T14:23:44.931Z</time></trkpt><trkpt lat="31.1245083" lon="-5.450455"><ele>1315.0</ele><time>2026-04-23T14:23:45.931Z</time></trkpt><trkpt lat="31.1245783" lon="-5.45036"><ele>1314.0</ele><time>2026-04-23T14:23:46.931Z</time></trkpt><trkpt lat="31.1246533" lon="-5.450265"><ele>1313.0</ele><time>2026-04-23T14:23:47.93Z</time></trkpt><trkpt lat="31.1247267" lon="-5.4501733"><ele>1312.0</ele><time>2026-04-23T14:23:48.931Z</time></trkpt><trkpt lat="31.1247933" lon="-5.45009"><ele>1311.0</ele><time>2026-04-23T14:23:49.931Z</time></trkpt><trkpt lat="31.1248567" lon="-5.4500133"><ele>1310.0</ele><time>2026-04-23T14:23:50.931Z</time></trkpt><trkpt lat="31.1249233" lon="-5.449935"><ele>1310.0</ele><time>2026-04-23T14:23:51.931Z</time></trkpt><trkpt lat="31.125" lon="-5.449865"><ele>1310.0</ele><time>2026-04-23T14:23:52.931Z</time></trkpt><trkpt lat="31.1250867" lon="-5.4498"><ele>1310.0</ele><time>2026-04-23T14:23:53.931Z</time></trkpt><trkpt lat="31.12517" lon="-5.4497417"><ele>1310.0</ele><time>2026-04-23T14:23:54.93Z</time></trkpt><trkpt lat="31.1252483" lon="-5.4496767"><ele>1310.0</ele><time>2026-04-23T14:23:55.931Z</time></trkpt><trkpt lat="31.1253333" lon="-5.4496133"><ele>1308.4</ele><time>2026-04-23T14:23:56.93Z</time></trkpt><trkpt lat="31.1254217" lon="-5.449535"><ele>1306.8</ele><time>2026-04-23T14:23:57.931Z</time></trkpt><trkpt lat="31.1255017" lon="-5.449455"><ele>1305.1999999999998</ele><time>2026-04-23T14:23:58.931Z</time></trkpt><trkpt lat="31.125585" lon="-5.4493833"><ele>1303.6</ele><time>2026-04-23T14:23:59.931Z</time></trkpt><trkpt lat="31.1256783" lon="-5.4493017"><ele>1302.0</ele><time>2026-04-23T14:24:00.93Z</time></trkpt><trkpt lat="31.125775" lon="-5.4492283"><ele>1302.0</ele><time>2026-04-23T14:24:01.931Z</time></trkpt><trkpt lat="31.12588" lon="-5.4491517"><ele>1302.0</ele><time>2026-04-23T14:24:02.931Z</time></trkpt><trkpt lat="31.12598" lon="-5.4490817"><ele>1302.0</ele><time>2026-04-23T14:24:03.931Z</time></trkpt><trkpt lat="31.12607" lon="-5.4490167"><ele>1302.0</ele><time>2026-04-23T14:24:04.931Z</time></trkpt><trkpt lat="31.1261567" lon="-5.4489483"><ele>1302.0</ele><time>2026-04-23T14:24:05.93Z</time></trkpt><trkpt lat="31.12625" lon="-5.4488783"><ele>1302.0</ele><time>2026-04-23T14:24:06.931Z</time></trkpt><trkpt lat="31.1263567" lon="-5.4488083"><ele>1302.0</ele><time>2026-04-23T14:24:07.93Z</time></trkpt><trkpt lat="31.12647" lon="-5.44873"><ele>1302.0</ele><time>2026-04-23T14:24:08.931Z</time></trkpt><trkpt lat="31.1265867" lon="-5.448655"><ele>1299.75</ele><time>2026-04-23T14:24:09.931Z</time></trkpt><trkpt lat="31.1267017" lon="-5.44858"><ele>1297.5</ele><time>2026-04-23T14:24:10.93Z</time></trkpt><trkpt lat="31.12681" lon="-5.4485083"><ele>1295.25</ele><time>2026-04-23T14:24:11.931Z</time></trkpt><trkpt lat="31.1269183" lon="-5.4484283"><ele>1293.0</ele><time>2026-04-23T14:24:12.93Z</time></trkpt><trkpt lat="31.127025" lon="-5.44834"><ele>1293.0</ele><time>2026-04-23T14:24:13.93Z</time></trkpt><trkpt lat="31.1271317" lon="-5.4482533"><ele>1293.0</ele><time>2026-04-23T14:24:14.931Z</time></trkpt><trkpt lat="31.127225" lon="-5.4481733"><ele>1293.0</ele><time>2026-04-23T14:24:15.931Z</time></trkpt><trkpt lat="31.12731" lon="-5.448105"><ele>1293.0</ele><time>2026-04-23T14:24:16.931Z</time></trkpt><trkpt lat="31.127405" lon="-5.44804"><ele>1293.0</ele><time>2026-04-23T14:24:17.931Z</time></trkpt><trkpt lat="31.12749" lon="-5.4479717"><ele>1293.0</ele><time>2026-04-23T14:24:18.931Z</time></trkpt><trkpt lat="31.12757" lon="-5.447895"><ele>1293.0</ele><time>2026-04-23T14:24:19.931Z</time></trkpt><trkpt lat="31.1276367" lon="-5.4478067"><ele>1293.0</ele><time>2026-04-23T14:24:20.931Z</time></trkpt><trkpt lat="31.1276917" lon="-5.4477233"><ele>1293.0</ele><time>2026-04-23T14:24:21.931Z</time></trkpt><trkpt lat="31.12774" lon="-5.4476317"><ele>1291.4</ele><time>2026-04-23T14:24:22.931Z</time></trkpt><trkpt lat="31.127795" lon="-5.44753"><ele>1289.8000000000002</ele><time>2026-04-23T14:24:23.931Z</time></trkpt><trkpt lat="31.12785" lon="-5.4474233"><ele>1288.2</ele><time>2026-04-23T14:24:24.931Z</time></trkpt><trkpt lat="31.1279017" lon="-5.44732"><ele>1286.6</ele><time>2026-04-23T14:24:25.931Z</time></trkpt><trkpt lat="31.1279483" lon="-5.44723"><ele>1285.0</ele><time>2026-04-23T14:24:26.931Z</time></trkpt><trkpt lat="31.1279917" lon="-5.4471417"><ele>1285.5</ele><time>2026-04-23T14:24:27.931Z</time></trkpt><trkpt lat="31.1280333" lon="-5.44706"><ele>1286.0</ele><time>2026-04-23T14:24:28.931Z</time></trkpt><trkpt lat="31.12808" lon="-5.4469867"><ele>1286.5</ele><time>2026-04-23T14:24:29.93Z</time></trkpt><trkpt lat="31.1281283" lon="-5.4469083"><ele>1287.0</ele><time>2026-04-23T14:24:30.931Z</time></trkpt><trkpt lat="31.128175" lon="-5.446815"><ele>1287.5</ele><time>2026-04-23T14:24:31.93Z</time></trkpt><trkpt lat="31.12823" lon="-5.44671"><ele>1288.0</ele><time>2026-04-23T14:24:32.931Z</time></trkpt><trkpt lat="31.1282933" lon="-5.4465867"><ele>1288.0</ele><time>2026-04-23T14:24:33.93Z</time></trkpt><trkpt lat="31.1283483" lon="-5.4464517"><ele>1288.0</ele><time>2026-04-23T14:24:34.931Z</time></trkpt><trkpt lat="31.1284" lon="-5.446325"><ele>1288.0</ele><time>2026-04-23T14:24:35.93Z</time></trkpt><trkpt lat="31.1284517" lon="-5.4462067"><ele>1288.0</ele><time>2026-04-23T14:24:36.931Z</time></trkpt><trkpt lat="31.1285067" lon="-5.4460917"><ele>1286.5</ele><time>2026-04-23T14:24:37.931Z</time></trkpt><trkpt lat="31.1285617" lon="-5.4459717"><ele>1285.0</ele><time>2026-04-23T14:24:38.93Z</time></trkpt><trkpt lat="31.1286283" lon="-5.4458567"><ele>1283.5</ele><time>2026-04-23T14:24:39.931Z</time></trkpt><trkpt lat="31.128705" lon="-5.4457183"><ele>1282.0</ele><time>2026-04-23T14:24:40.931Z</time></trkpt><trkpt lat="31.1287867" lon="-5.4455783"><ele>1282.0</ele><time>2026-04-23T14:24:41.931Z</time></trkpt><trkpt lat="31.1288617" lon="-5.4454433"><ele>1282.0</ele><time>2026-04-23T14:24:42.931Z</time></trkpt><trkpt lat="31.1289317" lon="-5.4453217"><ele>1282.0</ele><time>2026-04-23T14:24:43.931Z</time></trkpt><trkpt lat="31.1289967" lon="-5.4452117"><ele>1282.0</ele><time>2026-04-23T14:24:44.931Z</time></trkpt><trkpt lat="31.1290683" lon="-5.4451"><ele>1282.0</ele><time>2026-04-23T14:24:45.931Z</time></trkpt><trkpt lat="31.129155" lon="-5.444985"><ele>1282.0</ele><time>2026-04-23T14:24:46.931Z</time></trkpt><trkpt lat="31.1292417" lon="-5.444875"><ele>1282.0</ele><time>2026-04-23T14:24:47.931Z</time></trkpt><trkpt lat="31.12933" lon="-5.4447883"><ele>1282.0</ele><time>2026-04-23T14:24:48.931Z</time></trkpt><trkpt lat="31.1294133" lon="-5.444705"><ele>1280.75</ele><time>2026-04-23T14:24:49.931Z</time></trkpt><trkpt lat="31.1295" lon="-5.4446233"><ele>1279.5</ele><time>2026-04-23T14:24:50.931Z</time></trkpt><trkpt lat="31.12959" lon="-5.4445417"><ele>1278.25</ele><time>2026-04-23T14:24:51.931Z</time></trkpt><trkpt lat="31.1296817" lon="-5.4444683"><ele>1277.0</ele><time>2026-04-23T14:24:52.931Z</time></trkpt><trkpt lat="31.1297833" lon="-5.4443967"><ele>1277.25</ele><time>2026-04-23T14:24:53.93Z</time></trkpt><trkpt lat="31.1298967" lon="-5.4443117"><ele>1277.5</ele><time>2026-04-23T14:24:54.93Z</time></trkpt><trkpt lat="31.1300133" lon="-5.44423"><ele>1277.75</ele><time>2026-04-23T14:24:55.931Z</time></trkpt><trkpt lat="31.13012" lon="-5.444145"><ele>1278.0</ele><time>2026-04-23T14:24:56.931Z</time></trkpt><trkpt lat="31.1302267" lon="-5.444065"><ele>1278.0</ele><time>2026-04-23T14:24:57.931Z</time></trkpt><trkpt lat="31.13034" lon="-5.4439867"><ele>1278.0</ele><time>2026-04-23T14:24:58.931Z</time></trkpt><trkpt lat="31.130455" lon="-5.4438917"><ele>1278.0</ele><time>2026-04-23T14:24:59.931Z</time></trkpt><trkpt lat="31.1305667" lon="-5.443795"><ele>1278.0</ele><time>2026-04-23T14:25:00.931Z</time></trkpt><trkpt lat="31.130675" lon="-5.4437017"><ele>1277.25</ele><time>2026-04-23T14:25:01.931Z</time></trkpt><trkpt lat="31.130775" lon="-5.443615"><ele>1276.5</ele><time>2026-04-23T14:25:02.931Z</time></trkpt><trkpt lat="31.130875" lon="-5.443525"><ele>1275.75</ele><time>2026-04-23T14:25:03.931Z</time></trkpt><trkpt lat="31.1309833" lon="-5.4434333"><ele>1275.0</ele><time>2026-04-23T14:25:04.931Z</time></trkpt><trkpt lat="31.1310933" lon="-5.4433333"><ele>1275.0</ele><time>2026-04-23T14:25:05.931Z</time></trkpt><trkpt lat="31.1311967" lon="-5.4432383"><ele>1275.0</ele><time>2026-04-23T14:25:06.931Z</time></trkpt><trkpt lat="31.1313" lon="-5.4431517"><ele>1275.0</ele><time>2026-04-23T14:25:07.931Z</time></trkpt><trkpt lat="31.131395" lon="-5.4430667"><ele>1275.0</ele><time>2026-04-23T14:25:08.931Z</time></trkpt><trkpt lat="31.1314917" lon="-5.4429783"><ele>1274.5</ele><time>2026-04-23T14:25:09.93Z</time></trkpt><trkpt lat="31.131585" lon="-5.4428933"><ele>1274.0</ele><time>2026-04-23T14:25:10.93Z</time></trkpt><trkpt lat="31.1316833" lon="-5.4428083"><ele>1273.5</ele><time>2026-04-23T14:25:11.929Z</time></trkpt><trkpt lat="31.1317833" lon="-5.44271"><ele>1273.0</ele><time>2026-04-23T14:25:12.93Z</time></trkpt><trkpt lat="31.1318867" lon="-5.442615"><ele>1273.0</ele><time>2026-04-23T14:25:13.93Z</time></trkpt><trkpt lat="31.131985" lon="-5.4425267"><ele>1273.0</ele><time>2026-04-23T14:25:14.929Z</time></trkpt><trkpt lat="31.1320767" lon="-5.4424333"><ele>1273.0</ele><time>2026-04-23T14:25:15.93Z</time></trkpt><trkpt lat="31.1321717" lon="-5.4423333"><ele>1273.0</ele><time>2026-04-23T14:25:16.93Z</time></trkpt><trkpt lat="31.1322717" lon="-5.442235"><ele>1273.0</ele><time>2026-04-23T14:25:17.93Z</time></trkpt><trkpt lat="31.1323633" lon="-5.4421483"><ele>1273.0</ele><time>2026-04-23T14:25:18.93Z</time></trkpt><trkpt lat="31.1324517" lon="-5.442065"><ele>1273.0</ele><time>2026-04-23T14:25:19.93Z</time></trkpt><trkpt lat="31.1325383" lon="-5.441985"><ele>1273.0</ele><time>2026-04-23T14:25:20.93Z</time></trkpt><trkpt lat="31.1326217" lon="-5.4419033"><ele>1272.4</ele><time>2026-04-23T14:25:21.93Z</time></trkpt><trkpt lat="31.132705" lon="-5.4418083"><ele>1271.8</ele><time>2026-04-23T14:25:22.93Z</time></trkpt><trkpt lat="31.1327867" lon="-5.4417117"><ele>1271.2</ele><time>2026-04-23T14:25:23.93Z</time></trkpt><trkpt lat="31.1328717" lon="-5.4416233"><ele>1270.6</ele><time>2026-04-23T14:25:24.929Z</time></trkpt><trkpt lat="31.1329367" lon="-5.4415383"><ele>1270.0</ele><time>2026-04-23T14:25:25.93Z</time></trkpt><trkpt lat="31.13299" lon="-5.4414517"><ele>1270.0</ele><time>2026-04-23T14:25:26.93Z</time></trkpt><trkpt lat="31.133045" lon="-5.441365"><ele>1270.0</ele><time>2026-04-23T14:25:27.929Z</time></trkpt><trkpt lat="31.133105" lon="-5.4412783"><ele>1270.0</ele><time>2026-04-23T14:25:28.93Z</time></trkpt><trkpt lat="31.133165" lon="-5.4411983"><ele>1270.0</ele><time>2026-04-23T14:25:29.929Z</time></trkpt><trkpt lat="31.1332233" lon="-5.44112"><ele>1270.0</ele><time>2026-04-23T14:25:30.93Z</time></trkpt><trkpt lat="31.1332817" lon="-5.4410517"><ele>1269.3333333333333</ele><time>2026-04-23T14:25:31.93Z</time></trkpt><trkpt lat="31.1333317" lon="-5.4409833"><ele>1268.6666666666665</ele><time>2026-04-23T14:25:32.93Z</time></trkpt><trkpt lat="31.1333783" lon="-5.4409083"><ele>1268.0</ele><time>2026-04-23T14:25:33.929Z</time></trkpt><trkpt lat="31.13342" lon="-5.4408283"><ele>1267.3333333333333</ele><time>2026-04-23T14:25:34.93Z</time></trkpt><trkpt lat="31.1334617" lon="-5.4407433"><ele>1266.6666666666667</ele><time>2026-04-23T14:25:35.93Z</time></trkpt><trkpt lat="31.1334967" lon="-5.4406783"><ele>1266.0</ele><time>2026-04-23T14:25:36.93Z</time></trkpt><trkpt lat="31.1335683" lon="-5.4405967"><ele>1266.0</ele><time>2026-04-23T14:25:38.929Z</time></trkpt><trkpt lat="31.1336367" lon="-5.440585"><ele>1266.0</ele><time>2026-04-23T14:25:40.93Z</time></trkpt><trkpt lat="31.1337367" lon="-5.4406183"><ele>1266.0</ele><time>2026-04-23T14:25:42.93Z</time></trkpt><trkpt lat="31.1338033" lon="-5.44063"><ele>1266.0</ele><time>2026-04-23T14:25:43.93Z</time></trkpt><trkpt lat="31.133885" lon="-5.44064"><ele>1266.0</ele><time>2026-04-23T14:25:44.93Z</time></trkpt><trkpt lat="31.1339817" lon="-5.4406583"><ele>1266.0</ele><time>2026-04-23T14:25:45.93Z</time></trkpt><trkpt lat="31.1340883" lon="-5.4406817"><ele>1266.3999999999999</ele><time>2026-04-23T14:25:46.93Z</time></trkpt><trkpt lat="31.134185" lon="-5.4407083"><ele>1266.8</ele><time>2026-04-23T14:25:47.929Z</time></trkpt><trkpt lat="31.1342783" lon="-5.44075"><ele>1267.1999999999998</ele><time>2026-04-23T14:25:48.93Z</time></trkpt><trkpt lat="31.1343883" lon="-5.4407933"><ele>1267.6</ele><time>2026-04-23T14:25:49.93Z</time></trkpt><trkpt lat="31.134495" lon="-5.4408467"><ele>1268.0</ele><time>2026-04-23T14:25:50.93Z</time></trkpt><trkpt lat="31.1345967" lon="-5.4409"><ele>1268.0</ele><time>2026-04-23T14:25:51.93Z</time></trkpt><trkpt lat="31.1346917" lon="-5.4409583"><ele>1268.0</ele><time>2026-04-23T14:25:52.93Z</time></trkpt><trkpt lat="31.13479" lon="-5.441025"><ele>1268.0</ele><time>2026-04-23T14:25:53.93Z</time></trkpt><trkpt lat="31.1348917" lon="-5.4411067"><ele>1268.0</ele><time>2026-04-23T14:25:54.93Z</time></trkpt><trkpt lat="31.1349883" lon="-5.4411833"><ele>1268.4</ele><time>2026-04-23T14:25:55.93Z</time></trkpt><trkpt lat="31.1350817" lon="-5.4412517"><ele>1268.8</ele><time>2026-04-23T14:25:56.93Z</time></trkpt><trkpt lat="31.13517" lon="-5.4413117"><ele>1269.2</ele><time>2026-04-23T14:25:57.93Z</time></trkpt><trkpt lat="31.135265" lon="-5.4413733"><ele>1269.6</ele><time>2026-04-23T14:25:58.93Z</time></trkpt><trkpt lat="31.135365" lon="-5.44143"><ele>1270.0</ele><time>2026-04-23T14:25:59.93Z</time></trkpt><trkpt lat="31.13547" lon="-5.441475"><ele>1270.0</ele><time>2026-04-23T14:26:00.929Z</time></trkpt><trkpt lat="31.1355817" lon="-5.441505"><ele>1270.0</ele><time>2026-04-23T14:26:01.93Z</time></trkpt><trkpt lat="31.1356917" lon="-5.44153"><ele>1270.0</ele><time>2026-04-23T14:26:02.929Z</time></trkpt><trkpt lat="31.1357967" lon="-5.44155"><ele>1270.0</ele><time>2026-04-23T14:26:03.93Z</time></trkpt><trkpt lat="31.1358717" lon="-5.4415717"><ele>1270.0</ele><time>2026-04-23T14:26:04.93Z</time></trkpt><trkpt lat="31.1359617" lon="-5.4416267"><ele>1271.0</ele><time>2026-04-23T14:26:06.93Z</time></trkpt><trkpt lat="31.1360533" lon="-5.4416633"><ele>1272.0</ele><time>2026-04-23T14:26:18.929Z</time></trkpt><trkpt lat="31.1361783" lon="-5.4416817"><ele>1273.0</ele><time>2026-04-23T14:26:20.929Z</time></trkpt><trkpt lat="31.1362633" lon="-5.4416667"><ele>1274.0</ele><time>2026-04-23T14:26:21.93Z</time></trkpt><trkpt lat="31.136355" lon="-5.4416433"><ele>1275.0</ele><time>2026-04-23T14:26:22.929Z</time></trkpt><trkpt lat="31.13644" lon="-5.4416133"><ele>1275.0</ele><time>2026-04-23T14:26:23.93Z</time></trkpt><trkpt lat="31.1365233" lon="-5.4415817"><ele>1275.0</ele><time>2026-04-23T14:26:24.929Z</time></trkpt><trkpt lat="31.1366167" lon="-5.4415367"><ele>1275.0</ele><time>2026-04-23T14:26:25.93Z</time></trkpt><trkpt lat="31.136705" lon="-5.4414933"><ele>1275.0</ele><time>2026-04-23T14:26:26.93Z</time></trkpt><trkpt lat="31.1367917" lon="-5.44144"><ele>1275.0</ele><time>2026-04-23T14:26:27.929Z</time></trkpt><trkpt lat="31.1368833" lon="-5.4413717"><ele>1275.0</ele><time>2026-04-23T14:26:28.929Z</time></trkpt><trkpt lat="31.1369667" lon="-5.441305"><ele>1275.0</ele><time>2026-04-23T14:26:29.93Z</time></trkpt><trkpt lat="31.13705" lon="-5.4412317"><ele>1275.0</ele><time>2026-04-23T14:26:30.929Z</time></trkpt><trkpt lat="31.1371233" lon="-5.44116"><ele>1275.0</ele><time>2026-04-23T14:26:31.929Z</time></trkpt><trkpt lat="31.1371933" lon="-5.4410733"><ele>1275.0</ele><time>2026-04-23T14:26:32.929Z</time></trkpt><trkpt lat="31.1372517" lon="-5.4409767"><ele>1275.4</ele><time>2026-04-23T14:26:33.93Z</time></trkpt><trkpt lat="31.1373017" lon="-5.44087"><ele>1275.8</ele><time>2026-04-23T14:26:34.93Z</time></trkpt><trkpt lat="31.1373433" lon="-5.4407567"><ele>1276.2</ele><time>2026-04-23T14:26:35.93Z</time></trkpt><trkpt lat="31.1373717" lon="-5.4406367"><ele>1276.6</ele><time>2026-04-23T14:26:36.93Z</time></trkpt><trkpt lat="31.1374" lon="-5.440525"><ele>1277.0</ele><time>2026-04-23T14:26:37.93Z</time></trkpt><trkpt lat="31.1374433" lon="-5.440415"><ele>1275.2</ele><time>2026-04-23T14:26:38.93Z</time></trkpt><trkpt lat="31.1374867" lon="-5.440305"><ele>1273.4</ele><time>2026-04-23T14:26:39.929Z</time></trkpt><trkpt lat="31.1375267" lon="-5.4401967"><ele>1271.6</ele><time>2026-04-23T14:26:40.93Z</time></trkpt><trkpt lat="31.1375817" lon="-5.4401083"><ele>1269.8</ele><time>2026-04-23T14:26:41.93Z</time></trkpt><trkpt lat="31.1376417" lon="-5.4400367"><ele>1268.0</ele><time>2026-04-23T14:26:42.929Z</time></trkpt><trkpt lat="31.1377133" lon="-5.4399783"><ele>1268.0</ele><time>2026-04-23T14:26:43.929Z</time></trkpt><trkpt lat="31.1377867" lon="-5.43993"><ele>1268.0</ele><time>2026-04-23T14:26:44.929Z</time></trkpt><trkpt lat="31.1378617" lon="-5.4398833"><ele>1268.0</ele><time>2026-04-23T14:26:45.93Z</time></trkpt><trkpt lat="31.1379417" lon="-5.4398433"><ele>1268.0</ele><time>2026-04-23T14:26:46.93Z</time></trkpt><trkpt lat="31.138025" lon="-5.439815"><ele>1268.0</ele><time>2026-04-23T14:26:47.93Z</time></trkpt><trkpt lat="31.1381067" lon="-5.4397883"><ele>1268.0</ele><time>2026-04-23T14:26:48.93Z</time></trkpt><trkpt lat="31.1381817" lon="-5.4397517"><ele>1267.8</ele><time>2026-04-23T14:26:49.93Z</time></trkpt><trkpt lat="31.1382383" lon="-5.4397067"><ele>1267.6</ele><time>2026-04-23T14:26:50.93Z</time></trkpt><trkpt lat="31.1382883" lon="-5.43966"><ele>1267.4</ele><time>2026-04-23T14:26:51.93Z</time></trkpt><trkpt lat="31.13834" lon="-5.4395583"><ele>1267.2</ele><time>2026-04-23T14:26:52.93Z</time></trkpt><trkpt lat="31.1383933" lon="-5.4394467"><ele>1267.0</ele><time>2026-04-23T14:26:53.929Z</time></trkpt><trkpt lat="31.138455" lon="-5.439345"><ele>1267.0</ele><time>2026-04-23T14:26:54.93Z</time></trkpt><trkpt lat="31.13851" lon="-5.43925"><ele>1267.0</ele><time>2026-04-23T14:26:55.93Z</time></trkpt><trkpt lat="31.13856" lon="-5.4391517"><ele>1267.0</ele><time>2026-04-23T14:26:56.93Z</time></trkpt><trkpt lat="31.1385917" lon="-5.43905"><ele>1267.0</ele><time>2026-04-23T14:26:57.93Z</time></trkpt><trkpt lat="31.138615" lon="-5.4389433"><ele>1267.0</ele><time>2026-04-23T14:26:58.93Z</time></trkpt><trkpt lat="31.1386433" lon="-5.4388383"><ele>1270.0</ele><time>2026-04-23T14:26:59.93Z</time></trkpt><trkpt lat="31.138685" lon="-5.4387483"><ele>1273.0</ele><time>2026-04-23T14:27:00.929Z</time></trkpt><trkpt lat="31.1387367" lon="-5.4386533"><ele>1276.0</ele><time>2026-04-23T14:27:01.93Z</time></trkpt><trkpt lat="31.1387867" lon="-5.438535"><ele>1279.0</ele><time>2026-04-23T14:27:02.93Z</time></trkpt><trkpt lat="31.1388283" lon="-5.4383967"><ele>1282.0</ele><time>2026-04-23T14:27:03.93Z</time></trkpt><trkpt lat="31.1388733" lon="-5.43827"><ele>1282.0</ele><time>2026-04-23T14:27:04.93Z</time></trkpt><trkpt lat="31.1389217" lon="-5.43816"><ele>1282.0</ele><time>2026-04-23T14:27:05.93Z</time></trkpt><trkpt lat="31.1389717" lon="-5.4380583"><ele>1282.0</ele><time>2026-04-23T14:27:06.929Z</time></trkpt><trkpt lat="31.1390283" lon="-5.4379717"><ele>1282.0</ele><time>2026-04-23T14:27:07.93Z</time></trkpt><trkpt lat="31.1390767" lon="-5.4379017"><ele>1282.0</ele><time>2026-04-23T14:27:08.93Z</time></trkpt><trkpt lat="31.1391217" lon="-5.4378467"><ele>1282.0</ele><time>2026-04-23T14:27:09.93Z</time></trkpt><trkpt lat="31.139175" lon="-5.437805"><ele>1276.3999999999999</ele><time>2026-04-23T14:27:10.929Z</time></trkpt><trkpt lat="31.13928" lon="-5.4377467"><ele>1270.8</ele><time>2026-04-23T14:27:12.929Z</time></trkpt><trkpt lat="31.139355" lon="-5.4376833"><ele>1265.2</ele><time>2026-04-23T14:27:14.93Z</time></trkpt><trkpt lat="31.1394033" lon="-5.4375733"><ele>1259.6</ele><time>2026-04-23T14:27:16.93Z</time></trkpt><trkpt lat="31.139395" lon="-5.4374417"><ele>1254.0</ele><time>2026-04-23T14:27:18.93Z</time></trkpt><trkpt lat="31.1393567" lon="-5.437335"><ele>1254.0</ele><time>2026-04-23T14:27:20.93Z</time></trkpt><trkpt lat="31.13932" lon="-5.4372267"><ele>1254.0</ele><time>2026-04-23T14:27:22.93Z</time></trkpt><trkpt lat="31.1392533" lon="-5.437125"><ele>1254.0</ele><time>2026-04-23T14:27:24.929Z</time></trkpt><trkpt lat="31.139185" lon="-5.4370117"><ele>1254.0</ele><time>2026-04-23T14:27:26.929Z</time></trkpt><trkpt lat="31.1391583" lon="-5.4369433"><ele>1254.0</ele><time>2026-04-23T14:27:27.93Z</time></trkpt><trkpt lat="31.139135" lon="-5.4368617"><ele>1254.142857142857</ele><time>2026-04-23T14:27:28.93Z</time></trkpt><trkpt lat="31.1391083" lon="-5.4367817"><ele>1254.2857142857142</ele><time>2026-04-23T14:27:29.93Z</time></trkpt><trkpt lat="31.1390817" lon="-5.43671"><ele>1254.4285714285716</ele><time>2026-04-23T14:27:30.929Z</time></trkpt><trkpt lat="31.13906" lon="-5.4366383"><ele>1254.5714285714284</ele><time>2026-04-23T14:27:31.93Z</time></trkpt><trkpt lat="31.1390317" lon="-5.4365633"><ele>1254.7142857142856</ele><time>2026-04-23T14:27:32.929Z</time></trkpt><trkpt lat="31.1390033" lon="-5.4364833"><ele>1254.857142857143</ele><time>2026-04-23T14:27:33.93Z</time></trkpt><trkpt lat="31.1389783" lon="-5.4364033"><ele>1255.0</ele><time>2026-04-23T14:27:34.93Z</time></trkpt><trkpt lat="31.1389583" lon="-5.436315"><ele>1254.3333333333333</ele><time>2026-04-23T14:27:35.93Z</time></trkpt><trkpt lat="31.13894" lon="-5.436215"><ele>1253.6666666666665</ele><time>2026-04-23T14:27:36.93Z</time></trkpt><trkpt lat="31.13893" lon="-5.43611"><ele>1253.0</ele><time>2026-04-23T14:27:37.929Z</time></trkpt><trkpt lat="31.1389233" lon="-5.4360017"><ele>1252.3333333333333</ele><time>2026-04-23T14:27:38.929Z</time></trkpt><trkpt lat="31.138925" lon="-5.435905"><ele>1251.6666666666667</ele><time>2026-04-23T14:27:39.929Z</time></trkpt><trkpt lat="31.1389283" lon="-5.4358167"><ele>1251.0</ele><time>2026-04-23T14:27:40.93Z</time></trkpt><trkpt lat="31.1389367" lon="-5.4357417"><ele>1251.0</ele><time>2026-04-23T14:27:41.929Z</time></trkpt><trkpt lat="31.1389567" lon="-5.43567"><ele>1251.0</ele><time>2026-04-23T14:27:42.929Z</time></trkpt><trkpt lat="31.1390283" lon="-5.4355467"><ele>1251.0</ele><time>2026-04-23T14:27:44.93Z</time></trkpt><trkpt lat="31.1390817" lon="-5.4354767"><ele>1251.0</ele><time>2026-04-23T14:27:45.929Z</time></trkpt><trkpt lat="31.1391467" lon="-5.4354133"><ele>1251.0</ele><time>2026-04-23T14:27:46.929Z</time></trkpt><trkpt lat="31.1392267" lon="-5.4353433"><ele>1251.8333333333333</ele><time>2026-04-23T14:27:47.93Z</time></trkpt><trkpt lat="31.139295" lon="-5.435275"><ele>1252.6666666666667</ele><time>2026-04-23T14:27:48.929Z</time></trkpt><trkpt lat="31.13935" lon="-5.435195"><ele>1253.5</ele><time>2026-04-23T14:27:49.93Z</time></trkpt><trkpt lat="31.1393983" lon="-5.435105"><ele>1254.3333333333335</ele><time>2026-04-23T14:27:50.93Z</time></trkpt><trkpt lat="31.1394483" lon="-5.4350333"><ele>1255.1666666666667</ele><time>2026-04-23T14:27:51.93Z</time></trkpt><trkpt lat="31.1395017" lon="-5.4349867"><ele>1256.0</ele><time>2026-04-23T14:27:52.929Z</time></trkpt><trkpt lat="31.139605" lon="-5.434955"><ele>1256.0</ele><time>2026-04-23T14:27:54.93Z</time></trkpt><trkpt lat="31.13968" lon="-5.4349433"><ele>1256.0</ele><time>2026-04-23T14:27:55.93Z</time></trkpt><trkpt lat="31.1397733" lon="-5.4349283"><ele>1256.0</ele><time>2026-04-23T14:27:56.929Z</time></trkpt><trkpt lat="31.1398683" lon="-5.43491"><ele>1256.0</ele><time>2026-04-23T14:27:57.93Z</time></trkpt><trkpt lat="31.1399517" lon="-5.4349017"><ele>1256.0</ele><time>2026-04-23T14:27:58.93Z</time></trkpt><trkpt lat="31.1400333" lon="-5.4349117"><ele>1256.0</ele><time>2026-04-23T14:27:59.93Z</time></trkpt><trkpt lat="31.1401183" lon="-5.434925"><ele>1255.5</ele><time>2026-04-23T14:28:00.93Z</time></trkpt><trkpt lat="31.140195" lon="-5.4349283"><ele>1255.0</ele><time>2026-04-23T14:28:01.93Z</time></trkpt><trkpt lat="31.1402767" lon="-5.434915"><ele>1254.5</ele><time>2026-04-23T14:28:02.93Z</time></trkpt><trkpt lat="31.1403667" lon="-5.4348783"><ele>1254.0</ele><time>2026-04-23T14:28:03.929Z</time></trkpt><trkpt lat="31.1404533" lon="-5.43483"><ele>1253.5</ele><time>2026-04-23T14:28:04.929Z</time></trkpt><trkpt lat="31.140535" lon="-5.43478"><ele>1253.0</ele><time>2026-04-23T14:28:05.929Z</time></trkpt><trkpt lat="31.1406333" lon="-5.4347317"><ele>1254.0</ele><time>2026-04-23T14:28:06.93Z</time></trkpt><trkpt lat="31.1407217" lon="-5.4346917"><ele>1255.0</ele><time>2026-04-23T14:28:07.929Z</time></trkpt><trkpt lat="31.1408117" lon="-5.434675"><ele>1256.0</ele><time>2026-04-23T14:28:08.93Z</time></trkpt><trkpt lat="31.1408983" lon="-5.434675"><ele>1257.0</ele><time>2026-04-23T14:28:09.93Z</time></trkpt><trkpt lat="31.1409967" lon="-5.434685"><ele>1258.0</ele><time>2026-04-23T14:28:10.93Z</time></trkpt><trkpt lat="31.1411117" lon="-5.43471"><ele>1258.0</ele><time>2026-04-23T14:28:11.929Z</time></trkpt><trkpt lat="31.1412217" lon="-5.4347433"><ele>1258.0</ele><time>2026-04-23T14:28:12.93Z</time></trkpt><trkpt lat="31.14133" lon="-5.4347717"><ele>1258.0</ele><time>2026-04-23T14:28:13.929Z</time></trkpt><trkpt lat="31.141435" lon="-5.4348"><ele>1258.0</ele><time>2026-04-23T14:28:14.93Z</time></trkpt><trkpt lat="31.1415517" lon="-5.4348183"><ele>1259.25</ele><time>2026-04-23T14:28:15.93Z</time></trkpt><trkpt lat="31.141665" lon="-5.4348383"><ele>1260.5</ele><time>2026-04-23T14:28:16.93Z</time></trkpt><trkpt lat="31.1417883" lon="-5.434855"><ele>1261.75</ele><time>2026-04-23T14:28:17.929Z</time></trkpt><trkpt lat="31.14191" lon="-5.4348733"><ele>1263.0</ele><time>2026-04-23T14:28:18.93Z</time></trkpt><trkpt lat="31.1420133" lon="-5.4348783"><ele>1263.0</ele><time>2026-04-23T14:28:19.93Z</time></trkpt><trkpt lat="31.1421133" lon="-5.4348767"><ele>1263.0</ele><time>2026-04-23T14:28:20.93Z</time></trkpt><trkpt lat="31.1422167" lon="-5.4348683"><ele>1263.0</ele><time>2026-04-23T14:28:21.93Z</time></trkpt><trkpt lat="31.1423183" lon="-5.434855"><ele>1263.0</ele><time>2026-04-23T14:28:22.93Z</time></trkpt><trkpt lat="31.14241" lon="-5.4348333"><ele>1263.0</ele><time>2026-04-23T14:28:23.929Z</time></trkpt><trkpt lat="31.1425017" lon="-5.43481"><ele>1264.2</ele><time>2026-04-23T14:28:24.93Z</time></trkpt><trkpt lat="31.1425933" lon="-5.43479"><ele>1265.4</ele><time>2026-04-23T14:28:25.929Z</time></trkpt><trkpt lat="31.1426817" lon="-5.4347967"><ele>1266.6000000000001</ele><time>2026-04-23T14:28:26.93Z</time></trkpt><trkpt lat="31.142775" lon="-5.43483"><ele>1267.8</ele><time>2026-04-23T14:28:27.93Z</time></trkpt><trkpt lat="31.1428667" lon="-5.4348817"><ele>1269.0</ele><time>2026-04-23T14:28:28.93Z</time></trkpt><trkpt lat="31.1429467" lon="-5.4349417"><ele>1269.0</ele><time>2026-04-23T14:28:29.929Z</time></trkpt><trkpt lat="31.1430183" lon="-5.435"><ele>1269.0</ele><time>2026-04-23T14:28:30.93Z</time></trkpt><trkpt lat="31.143095" lon="-5.4350483"><ele>1269.0</ele><time>2026-04-23T14:28:31.929Z</time></trkpt><trkpt lat="31.14318" lon="-5.4350767"><ele>1269.0</ele><time>2026-04-23T14:28:32.929Z</time></trkpt><trkpt lat="31.1432683" lon="-5.4350917"><ele>1269.0</ele><time>2026-04-23T14:28:33.93Z</time></trkpt><trkpt lat="31.1433533" lon="-5.43512"><ele>1269.0</ele><time>2026-04-23T14:28:34.93Z</time></trkpt><trkpt lat="31.1434383" lon="-5.43516"><ele>1269.2</ele><time>2026-04-23T14:28:35.93Z</time></trkpt><trkpt lat="31.1435233" lon="-5.43522"><ele>1269.4</ele><time>2026-04-23T14:28:36.93Z</time></trkpt><trkpt lat="31.1436083" lon="-5.4352983"><ele>1269.6</ele><time>2026-04-23T14:28:37.929Z</time></trkpt><trkpt lat="31.1436917" lon="-5.4353867"><ele>1269.8</ele><time>2026-04-23T14:28:38.93Z</time></trkpt><trkpt lat="31.1437817" lon="-5.43547"><ele>1270.0</ele><time>2026-04-23T14:28:39.929Z</time></trkpt><trkpt lat="31.1438683" lon="-5.435535"><ele>1269.8333333333333</ele><time>2026-04-23T14:28:40.93Z</time></trkpt><trkpt lat="31.1439483" lon="-5.4355867"><ele>1269.6666666666665</ele><time>2026-04-23T14:28:41.93Z</time></trkpt><trkpt lat="31.1440217" lon="-5.43563"><ele>1269.5</ele><time>2026-04-23T14:28:42.929Z</time></trkpt><trkpt lat="31.1441" lon="-5.435655"><ele>1269.3333333333333</ele><time>2026-04-23T14:28:43.93Z</time></trkpt><trkpt lat="31.144185" lon="-5.4356533"><ele>1269.1666666666667</ele><time>2026-04-23T14:28:44.929Z</time></trkpt><trkpt lat="31.144285" lon="-5.435625"><ele>1269.0</ele><time>2026-04-23T14:28:45.929Z</time></trkpt><trkpt lat="31.1443917" lon="-5.435585"><ele>1269.0</ele><time>2026-04-23T14:28:46.93Z</time></trkpt><trkpt lat="31.144495" lon="-5.4355383"><ele>1269.0</ele><time>2026-04-23T14:28:47.93Z</time></trkpt><trkpt lat="31.1445983" lon="-5.4354833"><ele>1269.0</ele><time>2026-04-23T14:28:48.929Z</time></trkpt><trkpt lat="31.1446933" lon="-5.4354417"><ele>1269.0</ele><time>2026-04-23T14:28:49.93Z</time></trkpt><trkpt lat="31.14479" lon="-5.4354017"><ele>1269.0</ele><time>2026-04-23T14:28:50.929Z</time></trkpt><trkpt lat="31.1448833" lon="-5.4353817"><ele>1271.8000000000002</ele><time>2026-04-23T14:28:51.929Z</time></trkpt><trkpt lat="31.144985" lon="-5.4353783"><ele>1274.6000000000001</ele><time>2026-04-23T14:28:52.929Z</time></trkpt><trkpt lat="31.1451" lon="-5.4353667"><ele>1277.4</ele><time>2026-04-23T14:28:53.93Z</time></trkpt><trkpt lat="31.14521" lon="-5.4353717"><ele>1280.2</ele><time>2026-04-23T14:28:54.93Z</time></trkpt><trkpt lat="31.1453133" lon="-5.4353833"><ele>1283.0</ele><time>2026-04-23T14:28:55.93Z</time></trkpt><trkpt lat="31.14542" lon="-5.43539"><ele>1283.0</ele><time>2026-04-23T14:28:56.93Z</time></trkpt><trkpt lat="31.1455267" lon="-5.435405"><ele>1283.0</ele><time>2026-04-23T14:28:57.929Z</time></trkpt><trkpt lat="31.145635" lon="-5.4354317"><ele>1283.0</ele><time>2026-04-23T14:28:58.929Z</time></trkpt><trkpt lat="31.1457367" lon="-5.43544"><ele>1283.0</ele><time>2026-04-23T14:28:59.93Z</time></trkpt><trkpt lat="31.1458367" lon="-5.4354383"><ele>1283.0</ele><time>2026-04-23T14:29:00.93Z</time></trkpt><trkpt lat="31.1459433" lon="-5.4354367"><ele>1283.8000000000002</ele><time>2026-04-23T14:29:01.93Z</time></trkpt><trkpt lat="31.14605" lon="-5.43544"><ele>1284.6</ele><time>2026-04-23T14:29:02.93Z</time></trkpt><trkpt lat="31.14615" lon="-5.435435"><ele>1285.4</ele><time>2026-04-23T14:29:03.93Z</time></trkpt><trkpt lat="31.146245" lon="-5.43542"><ele>1286.1999999999998</ele><time>2026-04-23T14:29:04.93Z</time></trkpt><trkpt lat="31.1463333" lon="-5.4354"><ele>1287.0</ele><time>2026-04-23T14:29:05.93Z</time></trkpt><trkpt lat="31.1464117" lon="-5.43537"><ele>1287.0</ele><time>2026-04-23T14:29:06.93Z</time></trkpt><trkpt lat="31.1464883" lon="-5.4353267"><ele>1287.0</ele><time>2026-04-23T14:29:07.929Z</time></trkpt><trkpt lat="31.1465683" lon="-5.4352783"><ele>1287.0</ele><time>2026-04-23T14:29:08.93Z</time></trkpt><trkpt lat="31.1466667" lon="-5.4352317"><ele>1287.0</ele><time>2026-04-23T14:29:09.93Z</time></trkpt><trkpt lat="31.1467617" lon="-5.435185"><ele>1287.0</ele><time>2026-04-23T14:29:10.93Z</time></trkpt><trkpt lat="31.1468433" lon="-5.4351367"><ele>1285.8</ele><time>2026-04-23T14:29:11.93Z</time></trkpt><trkpt lat="31.146915" lon="-5.43508"><ele>1284.6</ele><time>2026-04-23T14:29:12.93Z</time></trkpt><trkpt lat="31.1469767" lon="-5.4350283"><ele>1283.3999999999999</ele><time>2026-04-23T14:29:13.93Z</time></trkpt><trkpt lat="31.1470433" lon="-5.4349167"><ele>1282.1999999999998</ele><time>2026-04-23T14:29:15.93Z</time></trkpt><trkpt lat="31.1470683" lon="-5.4347867"><ele>1281.0</ele><time>2026-04-23T14:29:17.93Z</time></trkpt><trkpt lat="31.1470767" lon="-5.434705"><ele>1281.8333333333333</ele><time>2026-04-23T14:29:18.93Z</time></trkpt><trkpt lat="31.1470817" lon="-5.4346183"><ele>1282.6666666666667</ele><time>2026-04-23T14:29:19.93Z</time></trkpt><trkpt lat="31.1470883" lon="-5.43453"><ele>1283.5</ele><time>2026-04-23T14:29:20.93Z</time></trkpt><trkpt lat="31.1471083" lon="-5.4344483"><ele>1284.3333333333335</ele><time>2026-04-23T14:29:21.93Z</time></trkpt><trkpt lat="31.1471333" lon="-5.43437"><ele>1285.1666666666667</ele><time>2026-04-23T14:29:22.93Z</time></trkpt><trkpt lat="31.1471767" lon="-5.4343"><ele>1286.0</ele><time>2026-04-23T14:29:23.93Z</time></trkpt><trkpt lat="31.1472967" lon="-5.4342217"><ele>1286.0</ele><time>2026-04-23T14:29:25.929Z</time></trkpt><trkpt lat="31.1473733" lon="-5.4341817"><ele>1286.0</ele><time>2026-04-23T14:29:26.929Z</time></trkpt><trkpt lat="31.147455" lon="-5.4341333"><ele>1286.0</ele><time>2026-04-23T14:29:27.929Z</time></trkpt><trkpt lat="31.1475233" lon="-5.4340683"><ele>1286.0</ele><time>2026-04-23T14:29:28.928Z</time></trkpt><trkpt lat="31.1475733" lon="-5.43399"><ele>1286.0</ele><time>2026-04-23T14:29:29.928Z</time></trkpt><trkpt lat="31.1476117" lon="-5.4339133"><ele>1286.0</ele><time>2026-04-23T14:29:30.929Z</time></trkpt><trkpt lat="31.1476483" lon="-5.433845"><ele>1286.1666666666667</ele><time>2026-04-23T14:29:31.929Z</time></trkpt><trkpt lat="31.1476867" lon="-5.4337817"><ele>1286.3333333333335</ele><time>2026-04-23T14:29:32.929Z</time></trkpt><trkpt lat="31.1477233" lon="-5.43371"><ele>1286.5</ele><time>2026-04-23T14:29:33.929Z</time></trkpt><trkpt lat="31.147765" lon="-5.433635"><ele>1286.6666666666667</ele><time>2026-04-23T14:29:34.929Z</time></trkpt><trkpt lat="31.1478133" lon="-5.433565"><ele>1286.8333333333333</ele><time>2026-04-23T14:29:35.929Z</time></trkpt><trkpt lat="31.1478717" lon="-5.4335033"><ele>1287.0</ele><time>2026-04-23T14:29:36.929Z</time></trkpt><trkpt lat="31.1479367" lon="-5.43344"><ele>1287.0</ele><time>2026-04-23T14:29:37.928Z</time></trkpt><trkpt lat="31.1480133" lon="-5.4333983"><ele>1287.0</ele><time>2026-04-23T14:29:38.928Z</time></trkpt><trkpt lat="31.148095" lon="-5.433375"><ele>1287.0</ele><time>2026-04-23T14:29:39.929Z</time></trkpt><trkpt lat="31.14819" lon="-5.4333633"><ele>1287.0</ele><time>2026-04-23T14:29:40.929Z</time></trkpt><trkpt lat="31.1482817" lon="-5.4333583"><ele>1287.0</ele><time>2026-04-23T14:29:41.929Z</time></trkpt><trkpt lat="31.1483717" lon="-5.43336"><ele>1287.0</ele><time>2026-04-23T14:29:42.928Z</time></trkpt><trkpt lat="31.1484533" lon="-5.4333583"><ele>1287.5</ele><time>2026-04-23T14:29:43.929Z</time></trkpt><trkpt lat="31.1485433" lon="-5.4333433"><ele>1288.0</ele><time>2026-04-23T14:29:44.929Z</time></trkpt><trkpt lat="31.1486233" lon="-5.4333317"><ele>1288.5</ele><time>2026-04-23T14:29:45.929Z</time></trkpt><trkpt lat="31.1487067" lon="-5.43333"><ele>1289.0</ele><time>2026-04-23T14:29:46.928Z</time></trkpt><trkpt lat="31.148795" lon="-5.433335"><ele>1289.5</ele><time>2026-04-23T14:29:47.928Z</time></trkpt><trkpt lat="31.148875" lon="-5.4333283"><ele>1290.0</ele><time>2026-04-23T14:29:48.929Z</time></trkpt><trkpt lat="31.148955" lon="-5.4333017"><ele>1290.0</ele><time>2026-04-23T14:29:49.929Z</time></trkpt><trkpt lat="31.14902" lon="-5.4332683"><ele>1290.0</ele><time>2026-04-23T14:29:50.928Z</time></trkpt><trkpt lat="31.1490917" lon="-5.4331683"><ele>1290.0</ele><time>2026-04-23T14:29:52.929Z</time></trkpt><trkpt lat="31.1491133" lon="-5.4330867"><ele>1290.0</ele><time>2026-04-23T14:29:53.929Z</time></trkpt><trkpt lat="31.1491267" lon="-5.4329983"><ele>1290.0</ele><time>2026-04-23T14:29:54.929Z</time></trkpt><trkpt lat="31.1491383" lon="-5.4329183"><ele>1290.0</ele><time>2026-04-23T14:29:55.929Z</time></trkpt><trkpt lat="31.149175" lon="-5.4327933"><ele>1290.6666666666667</ele><time>2026-04-23T14:29:57.929Z</time></trkpt><trkpt lat="31.1492433" lon="-5.432715"><ele>1291.3333333333333</ele><time>2026-04-23T14:29:59.928Z</time></trkpt><trkpt lat="31.149335" lon="-5.4326517"><ele>1292.0</ele><time>2026-04-23T14:30:50.928Z</time></trkpt><trkpt lat="31.14942" lon="-5.432585"><ele>1292.6666666666665</ele><time>2026-04-23T14:30:52.929Z</time></trkpt><trkpt lat="31.1494783" lon="-5.432545"><ele>1293.3333333333333</ele><time>2026-04-23T14:30:53.929Z</time></trkpt><trkpt lat="31.14954" lon="-5.4325067"><ele>1294.0</ele><time>2026-04-23T14:30:54.929Z</time></trkpt><trkpt lat="31.1496017" lon="-5.4324667"><ele>1294.0</ele><time>2026-04-23T14:30:55.928Z</time></trkpt><trkpt lat="31.14966" lon="-5.4324167"><ele>1294.0</ele><time>2026-04-23T14:30:56.928Z</time></trkpt><trkpt lat="31.1497233" lon="-5.432365"><ele>1294.0</ele><time>2026-04-23T14:30:57.929Z</time></trkpt><trkpt lat="31.1497867" lon="-5.4323083"><ele>1294.0</ele><time>2026-04-23T14:30:58.928Z</time></trkpt><trkpt lat="31.1498433" lon="-5.4322433"><ele>1294.0</ele><time>2026-04-23T14:30:59.929Z</time></trkpt><trkpt lat="31.1499233" lon="-5.4321683"><ele>1294.0</ele><time>2026-04-23T14:31:00.929Z</time></trkpt><trkpt lat="31.1500083" lon="-5.4321033"><ele>1295.4</ele><time>2026-04-23T14:31:01.929Z</time></trkpt><trkpt lat="31.1500917" lon="-5.432045"><ele>1296.8000000000002</ele><time>2026-04-23T14:31:02.928Z</time></trkpt><trkpt lat="31.1501633" lon="-5.432"><ele>1298.1999999999998</ele><time>2026-04-23T14:31:03.929Z</time></trkpt><trkpt lat="31.150225" lon="-5.4319633"><ele>1299.6</ele><time>2026-04-23T14:31:04.929Z</time></trkpt><trkpt lat="31.15033" lon="-5.4319583"><ele>1301.0</ele><time>2026-04-23T14:31:06.929Z</time></trkpt><trkpt lat="31.150415" lon="-5.4320433"><ele>1301.0</ele><time>2026-04-23T14:31:08.929Z</time></trkpt><trkpt lat="31.150435" lon="-5.4321183"><ele>1301.0</ele><time>2026-04-23T14:31:09.928Z</time></trkpt><trkpt lat="31.1504467" lon="-5.432205"><ele>1301.0</ele><time>2026-04-23T14:31:10.929Z</time></trkpt><trkpt lat="31.150455" lon="-5.432285"><ele>1301.0</ele><time>2026-04-23T14:31:11.929Z</time></trkpt><trkpt lat="31.1504733" lon="-5.43236"><ele>1301.0</ele><time>2026-04-23T14:31:12.929Z</time></trkpt><trkpt lat="31.150525" lon="-5.4324433"><ele>1301.0</ele><time>2026-04-23T14:31:14.929Z</time></trkpt><trkpt lat="31.1506183" lon="-5.4324217"><ele>1299.1999999999998</ele><time>2026-04-23T14:31:16.929Z</time></trkpt><trkpt lat="31.150695" lon="-5.43233"><ele>1297.3999999999999</ele><time>2026-04-23T14:31:18.928Z</time></trkpt><trkpt lat="31.1507533" lon="-5.4322367"><ele>1295.6</ele><time>2026-04-23T14:31:20.928Z</time></trkpt><trkpt lat="31.1508333" lon="-5.4322217"><ele>1293.8</ele><time>2026-04-23T14:31:23.929Z</time></trkpt><trkpt lat="31.1509267" lon="-5.4322817"><ele>1292.0</ele><time>2026-04-23T14:31:26.929Z</time></trkpt><trkpt lat="31.1510267" lon="-5.4323333"><ele>1292.0</ele><time>2026-04-23T14:31:28.928Z</time></trkpt><trkpt lat="31.151085" lon="-5.4323683"><ele>1292.0</ele><time>2026-04-23T14:31:29.929Z</time></trkpt><trkpt lat="31.1511817" lon="-5.4324033"><ele>1292.0</ele><time>2026-04-23T14:31:31.928Z</time></trkpt><trkpt lat="31.151235" lon="-5.432355"><ele>1292.0</ele><time>2026-04-23T14:31:33.929Z</time></trkpt><trkpt lat="31.151245" lon="-5.4322633"><ele>1292.0</ele><time>2026-04-23T14:31:35.929Z</time></trkpt><trkpt lat="31.1512517" lon="-5.43216"><ele>1292.0</ele><time>2026-04-23T14:31:37.929Z</time></trkpt><trkpt lat="31.151255" lon="-5.432045"><ele>1294.0</ele><time>2026-04-23T14:32:02.929Z</time></trkpt><trkpt lat="31.1512783" lon="-5.4318867"><ele>1296.0</ele><time>2026-04-23T14:32:04.929Z</time></trkpt><trkpt lat="31.1512917" lon="-5.431775"><ele>1298.0</ele><time>2026-04-23T14:32:05.929Z</time></trkpt><trkpt lat="31.151305" lon="-5.4316583"><ele>1300.0</ele><time>2026-04-23T14:32:06.929Z</time></trkpt><trkpt lat="31.1513233" lon="-5.43154"><ele>1302.0</ele><time>2026-04-23T14:32:07.929Z</time></trkpt><trkpt lat="31.1513433" lon="-5.431425"><ele>1302.0</ele><time>2026-04-23T14:32:08.929Z</time></trkpt><trkpt lat="31.1513633" lon="-5.4313117"><ele>1302.0</ele><time>2026-04-23T14:32:09.929Z</time></trkpt><trkpt lat="31.1513883" lon="-5.43119"><ele>1302.0</ele><time>2026-04-23T14:32:10.929Z</time></trkpt><trkpt lat="31.1514167" lon="-5.431065"><ele>1302.0</ele><time>2026-04-23T14:32:11.929Z</time></trkpt><trkpt lat="31.1514467" lon="-5.4309317"><ele>1302.0</ele><time>2026-04-23T14:32:12.929Z</time></trkpt><trkpt lat="31.1514767" lon="-5.4308017"><ele>1303.8</ele><time>2026-04-23T14:32:13.929Z</time></trkpt><trkpt lat="31.151505" lon="-5.4306867"><ele>1305.6</ele><time>2026-04-23T14:32:14.928Z</time></trkpt><trkpt lat="31.1515367" lon="-5.43057"><ele>1307.3999999999999</ele><time>2026-04-23T14:32:15.929Z</time></trkpt><trkpt lat="31.15157" lon="-5.4304583"><ele>1309.1999999999998</ele><time>2026-04-23T14:32:16.929Z</time></trkpt><trkpt lat="31.1516067" lon="-5.4303567"><ele>1311.0</ele><time>2026-04-23T14:32:17.929Z</time></trkpt><trkpt lat="31.1516567" lon="-5.4302617"><ele>1312.6</ele><time>2026-04-23T14:32:18.929Z</time></trkpt><trkpt lat="31.151725" lon="-5.430175"><ele>1314.1999999999998</ele><time>2026-04-23T14:32:19.929Z</time></trkpt><trkpt lat="31.1518083" lon="-5.4301017"><ele>1315.8000000000002</ele><time>2026-04-23T14:32:20.929Z</time></trkpt><trkpt lat="31.1518967" lon="-5.4300317"><ele>1317.4</ele><time>2026-04-23T14:32:21.929Z</time></trkpt><trkpt lat="31.1519683" lon="-5.429975"><ele>1319.0</ele><time>2026-04-23T14:32:22.929Z</time></trkpt><trkpt lat="31.1520217" lon="-5.4299"><ele>1319.0</ele><time>2026-04-23T14:32:23.929Z</time></trkpt><trkpt lat="31.1520683" lon="-5.4298067"><ele>1319.0</ele><time>2026-04-23T14:32:24.929Z</time></trkpt><trkpt lat="31.1520933" lon="-5.42971"><ele>1319.0</ele><time>2026-04-23T14:32:25.929Z</time></trkpt><trkpt lat="31.1521067" lon="-5.4296117"><ele>1319.0</ele><time>2026-04-23T14:32:26.929Z</time></trkpt><trkpt lat="31.1521467" lon="-5.4295333"><ele>1319.0</ele><time>2026-04-23T14:32:27.929Z</time></trkpt><trkpt lat="31.1521883" lon="-5.4294567"><ele>1319.0</ele><time>2026-04-23T14:32:28.929Z</time></trkpt><trkpt lat="31.1522183" lon="-5.429375"><ele>1321.1666666666667</ele><time>2026-04-23T14:32:29.929Z</time></trkpt><trkpt lat="31.1522383" lon="-5.4292967"><ele>1323.3333333333335</ele><time>2026-04-23T14:32:30.929Z</time></trkpt><trkpt lat="31.152295" lon="-5.429175"><ele>1325.5</ele><time>2026-04-23T14:32:32.929Z</time></trkpt><trkpt lat="31.1523483" lon="-5.4291283"><ele>1327.6666666666667</ele><time>2026-04-23T14:32:33.929Z</time></trkpt><trkpt lat="31.1524117" lon="-5.4290883"><ele>1329.8333333333333</ele><time>2026-04-23T14:32:34.929Z</time></trkpt><trkpt lat="31.152475" lon="-5.4290483"><ele>1332.0</ele><time>2026-04-23T14:32:35.929Z</time></trkpt><trkpt lat="31.1525733" lon="-5.4289667"><ele>1332.142857142857</ele><time>2026-04-23T14:32:37.929Z</time></trkpt><trkpt lat="31.15261" lon="-5.4289"><ele>1332.2857142857142</ele><time>2026-04-23T14:32:38.929Z</time></trkpt><trkpt lat="31.1526417" lon="-5.4288217"><ele>1332.4285714285713</ele><time>2026-04-23T14:32:39.928Z</time></trkpt><trkpt lat="31.1526617" lon="-5.4287383"><ele>1332.5714285714284</ele><time>2026-04-23T14:32:40.929Z</time></trkpt><trkpt lat="31.1526767" lon="-5.4286533"><ele>1332.7142857142858</ele><time>2026-04-23T14:32:41.929Z</time></trkpt><trkpt lat="31.152685" lon="-5.428565"><ele>1332.8571428571427</ele><time>2026-04-23T14:32:42.929Z</time></trkpt><trkpt lat="31.1526883" lon="-5.428485"><ele>1333.0</ele><time>2026-04-23T14:32:43.929Z</time></trkpt><trkpt lat="31.1526917" lon="-5.4284"><ele>1335.3333333333333</ele><time>2026-04-23T14:32:44.929Z</time></trkpt><trkpt lat="31.1527067" lon="-5.4283117"><ele>1337.6666666666665</ele><time>2026-04-23T14:32:45.929Z</time></trkpt><trkpt lat="31.152725" lon="-5.428225"><ele>1340.0</ele><time>2026-04-23T14:32:46.928Z</time></trkpt><trkpt lat="31.152745" lon="-5.4281517"><ele>1342.3333333333333</ele><time>2026-04-23T14:32:47.929Z</time></trkpt><trkpt lat="31.1527933" lon="-5.4280467"><ele>1344.6666666666667</ele><time>2026-04-23T14:32:49.929Z</time></trkpt><trkpt lat="31.1528817" lon="-5.4280217"><ele>1347.0</ele><time>2026-04-23T14:32:51.928Z</time></trkpt><trkpt lat="31.1529533" lon="-5.4280833"><ele>1347.0</ele><time>2026-04-23T14:32:53.929Z</time></trkpt><trkpt lat="31.1529867" lon="-5.4281467"><ele>1347.0</ele><time>2026-04-23T14:32:54.929Z</time></trkpt><trkpt lat="31.153015" lon="-5.428215"><ele>1347.0</ele><time>2026-04-23T14:32:55.928Z</time></trkpt><trkpt lat="31.1530817" lon="-5.4283167"><ele>1347.0</ele><time>2026-04-23T14:32:57.929Z</time></trkpt><trkpt lat="31.15317" lon="-5.4283033"><ele>1347.0</ele><time>2026-04-23T14:32:59.929Z</time></trkpt><trkpt lat="31.1532217" lon="-5.4282"><ele>1347.0</ele><time>2026-04-23T14:33:01.929Z</time></trkpt><trkpt lat="31.1532317" lon="-5.428125"><ele>1347.8571428571427</ele><time>2026-04-23T14:33:02.928Z</time></trkpt><trkpt lat="31.1532383" lon="-5.4280483"><ele>1348.7142857142858</ele><time>2026-04-23T14:33:03.929Z</time></trkpt><trkpt lat="31.1532517" lon="-5.4279717"><ele>1349.5714285714284</ele><time>2026-04-23T14:33:04.928Z</time></trkpt><trkpt lat="31.1532767" lon="-5.4279"><ele>1350.4285714285713</ele><time>2026-04-23T14:33:05.928Z</time></trkpt><trkpt lat="31.15331" lon="-5.4278267"><ele>1351.2857142857142</ele><time>2026-04-23T14:33:06.929Z</time></trkpt><trkpt lat="31.1533583" lon="-5.427775"><ele>1352.142857142857</ele><time>2026-04-23T14:33:07.929Z</time></trkpt><trkpt lat="31.1534483" lon="-5.427715"><ele>1353.0</ele><time>2026-04-23T14:33:09.929Z</time></trkpt><trkpt lat="31.153485" lon="-5.427645"><ele>1355.0</ele><time>2026-04-23T14:33:11.928Z</time></trkpt><trkpt lat="31.153455" lon="-5.42753"><ele>1357.0</ele><time>2026-04-23T14:33:13.929Z</time></trkpt><trkpt lat="31.153405" lon="-5.4274017"><ele>1359.0</ele><time>2026-04-23T14:33:15.929Z</time></trkpt><trkpt lat="31.1533733" lon="-5.4272667"><ele>1361.0</ele><time>2026-04-23T14:33:17.929Z</time></trkpt><trkpt lat="31.1533533" lon="-5.427195"><ele>1363.0</ele><time>2026-04-23T14:33:18.929Z</time></trkpt><trkpt lat="31.15329" lon="-5.4270967"><ele>1366.4</ele><time>2026-04-23T14:33:20.929Z</time></trkpt><trkpt lat="31.1532" lon="-5.4270367"><ele>1369.8000000000002</ele><time>2026-04-23T14:33:22.929Z</time></trkpt><trkpt lat="31.153095" lon="-5.42706"><ele>1373.2</ele><time>2026-04-23T14:33:24.929Z</time></trkpt><trkpt lat="31.153005" lon="-5.4271083"><ele>1376.6</ele><time>2026-04-23T14:33:26.929Z</time></trkpt><trkpt lat="31.15293" lon="-5.42711"><ele>1380.0</ele><time>2026-04-23T14:33:28.929Z</time></trkpt><trkpt lat="31.15282" lon="-5.4270667"><ele>1380.0</ele><time>2026-04-23T14:33:30.928Z</time></trkpt><trkpt lat="31.1527533" lon="-5.4270333"><ele>1380.0</ele><time>2026-04-23T14:33:31.929Z</time></trkpt><trkpt lat="31.1526817" lon="-5.426995"><ele>1380.0</ele><time>2026-04-23T14:33:32.929Z</time></trkpt><trkpt lat="31.152615" lon="-5.42695"><ele>1380.0</ele><time>2026-04-23T14:33:33.929Z</time></trkpt><trkpt lat="31.1525467" lon="-5.4269033"><ele>1380.0</ele><time>2026-04-23T14:33:34.929Z</time></trkpt><trkpt lat="31.15249" lon="-5.4268483"><ele>1380.0</ele><time>2026-04-23T14:33:35.929Z</time></trkpt><trkpt lat="31.1524433" lon="-5.4267317"><ele>1380.0</ele><time>2026-04-23T14:33:37.928Z</time></trkpt><trkpt lat="31.1524567" lon="-5.4266367"><ele>1380.0</ele><time>2026-04-23T14:33:39.929Z</time></trkpt><trkpt lat="31.15247" lon="-5.426515"><ele>1380.0</ele><time>2026-04-23T14:33:41.928Z</time></trkpt><trkpt lat="31.152445" lon="-5.4263883"><ele>1380.0</ele><time>2026-04-23T14:33:43.927Z</time></trkpt><trkpt lat="31.152415" lon="-5.4263183"><ele>1380.0</ele><time>2026-04-23T14:33:44.927Z</time></trkpt><trkpt lat="31.1523817" lon="-5.4262417"><ele>1380.0</ele><time>2026-04-23T14:33:45.928Z</time></trkpt><trkpt lat="31.152345" lon="-5.4261567"><ele>1377.6666666666667</ele><time>2026-04-23T14:33:46.927Z</time></trkpt><trkpt lat="31.152315" lon="-5.4260533"><ele>1375.3333333333333</ele><time>2026-04-23T14:33:47.928Z</time></trkpt><trkpt lat="31.1522867" lon="-5.42595"><ele>1373.0</ele><time>2026-04-23T14:33:48.928Z</time></trkpt><trkpt lat="31.1522583" lon="-5.4258583"><ele>1370.6666666666665</ele><time>2026-04-23T14:33:49.928Z</time></trkpt><trkpt lat="31.1522417" lon="-5.425775"><ele>1368.3333333333333</ele><time>2026-04-23T14:33:50.927Z</time></trkpt><trkpt lat="31.1522383" lon="-5.4256883"><ele>1366.0</ele><time>2026-04-23T14:33:51.927Z</time></trkpt><trkpt lat="31.1522517" lon="-5.4256133"><ele>1365.8</ele><time>2026-04-23T14:33:52.928Z</time></trkpt><trkpt lat="31.1523017" lon="-5.425475"><ele>1365.6</ele><time>2026-04-23T14:33:54.927Z</time></trkpt><trkpt lat="31.15234" lon="-5.4254067"><ele>1365.4</ele><time>2026-04-23T14:33:55.928Z</time></trkpt><trkpt lat="31.1524267" lon="-5.4253117"><ele>1365.2</ele><time>2026-04-23T14:33:57.927Z</time></trkpt><trkpt lat="31.1524667" lon="-5.4252117"><ele>1365.0</ele><time>2026-04-23T14:33:59.928Z</time></trkpt><trkpt lat="31.1524467" lon="-5.4251167"><ele>1365.0</ele><time>2026-04-23T14:34:01.927Z</time></trkpt><trkpt lat="31.1524017" lon="-5.424995"><ele>1365.0</ele><time>2026-04-23T14:34:03.928Z</time></trkpt><trkpt lat="31.1523367" lon="-5.4249017"><ele>1365.0</ele><time>2026-04-23T14:34:05.928Z</time></trkpt><trkpt lat="31.1522733" lon="-5.4248533"><ele>1365.0</ele><time>2026-04-23T14:34:07.928Z</time></trkpt><trkpt lat="31.1522333" lon="-5.42479"><ele>1365.0</ele><time>2026-04-23T14:34:10.928Z</time></trkpt><trkpt lat="31.1522383" lon="-5.4247"><ele>1365.0</ele><time>2026-04-23T14:34:13.928Z</time></trkpt><trkpt lat="31.1523117" lon="-5.4246217"><ele>1366.6666666666667</ele><time>2026-04-23T14:34:16.927Z</time></trkpt><trkpt lat="31.1523917" lon="-5.424595"><ele>1368.3333333333333</ele><time>2026-04-23T14:34:18.927Z</time></trkpt><trkpt lat="31.152485" lon="-5.4245683"><ele>1370.0</ele><time>2026-04-23T14:34:20.928Z</time></trkpt><trkpt lat="31.1525883" lon="-5.424545"><ele>1371.6666666666665</ele><time>2026-04-23T14:34:22.927Z</time></trkpt><trkpt lat="31.1526683" lon="-5.4244917"><ele>1373.3333333333333</ele><time>2026-04-23T14:34:24.928Z</time></trkpt><trkpt lat="31.1526933" lon="-5.424415"><ele>1375.0</ele><time>2026-04-23T14:34:26.927Z</time></trkpt><trkpt lat="31.152665" lon="-5.4243033"><ele>1374.9999999999998</ele><time>2026-04-23T14:34:28.928Z</time></trkpt><trkpt lat="31.1526533" lon="-5.4242283"><ele>1375.0</ele><time>2026-04-23T14:34:29.927Z</time></trkpt><trkpt lat="31.152645" lon="-5.42415"><ele>1375.0</ele><time>2026-04-23T14:34:30.928Z</time></trkpt><trkpt lat="31.1526433" lon="-5.4240667"><ele>1375.0</ele><time>2026-04-23T14:34:31.928Z</time></trkpt><trkpt lat="31.1526433" lon="-5.4239783"><ele>1375.0</ele><time>2026-04-23T14:34:32.928Z</time></trkpt><trkpt lat="31.1526467" lon="-5.4238817"><ele>1374.9999999999998</ele><time>2026-04-23T14:34:33.928Z</time></trkpt><trkpt lat="31.1526533" lon="-5.4237883"><ele>1375.0</ele><time>2026-04-23T14:34:34.928Z</time></trkpt><trkpt lat="31.1526667" lon="-5.423705"><ele>1373.1666666666665</ele><time>2026-04-23T14:34:35.927Z</time></trkpt><trkpt lat="31.1526867" lon="-5.4236317"><ele>1371.3333333333333</ele><time>2026-04-23T14:34:36.928Z</time></trkpt><trkpt lat="31.15271" lon="-5.4235483"><ele>1369.5</ele><time>2026-04-23T14:34:37.928Z</time></trkpt><trkpt lat="31.15274" lon="-5.4234483"><ele>1367.6666666666667</ele><time>2026-04-23T14:34:38.927Z</time></trkpt><trkpt lat="31.15277" lon="-5.4233433"><ele>1365.8333333333335</ele><time>2026-04-23T14:34:39.928Z</time></trkpt><trkpt lat="31.1528" lon="-5.4232383"><ele>1364.0</ele><time>2026-04-23T14:34:40.928Z</time></trkpt><trkpt lat="31.1528233" lon="-5.423135"><ele>1364.0</ele><time>2026-04-23T14:34:41.928Z</time></trkpt><trkpt lat="31.1528383" lon="-5.4230317"><ele>1364.0</ele><time>2026-04-23T14:34:42.927Z</time></trkpt><trkpt lat="31.152845" lon="-5.422945"><ele>1364.0</ele><time>2026-04-23T14:34:43.928Z</time></trkpt><trkpt lat="31.1528467" lon="-5.4228633"><ele>1364.0</ele><time>2026-04-23T14:34:44.928Z</time></trkpt><trkpt lat="31.1528717" lon="-5.4227583"><ele>1364.0</ele><time>2026-04-23T14:34:46.928Z</time></trkpt><trkpt lat="31.1529" lon="-5.42269"><ele>1364.0</ele><time>2026-04-23T14:34:47.928Z</time></trkpt><trkpt lat="31.1529483" lon="-5.4226233"><ele>1363.3333333333335</ele><time>2026-04-23T14:34:48.928Z</time></trkpt><trkpt lat="31.1529983" lon="-5.4225583"><ele>1362.6666666666667</ele><time>2026-04-23T14:34:49.928Z</time></trkpt><trkpt lat="31.15305" lon="-5.422495"><ele>1362.0</ele><time>2026-04-23T14:34:50.928Z</time></trkpt><trkpt lat="31.153085" lon="-5.4224317"><ele>1361.3333333333333</ele><time>2026-04-23T14:34:51.928Z</time></trkpt><trkpt lat="31.1530983" lon="-5.4223167"><ele>1360.6666666666665</ele><time>2026-04-23T14:34:53.928Z</time></trkpt><trkpt lat="31.15309" lon="-5.4221817"><ele>1360.0</ele><time>2026-04-23T14:34:55.928Z</time></trkpt><trkpt lat="31.153095" lon="-5.422095"><ele>1360.0</ele><time>2026-04-23T14:34:56.928Z</time></trkpt><trkpt lat="31.1531083" lon="-5.422"><ele>1360.0</ele><time>2026-04-23T14:34:57.928Z</time></trkpt><trkpt lat="31.1531183" lon="-5.4219067"><ele>1360.0</ele><time>2026-04-23T14:34:58.927Z</time></trkpt><trkpt lat="31.1531617" lon="-5.4217883"><ele>1360.0</ele><time>2026-04-23T14:35:00.928Z</time></trkpt><trkpt lat="31.1532567" lon="-5.4217167"><ele>1360.0</ele><time>2026-04-23T14:35:02.927Z</time></trkpt><trkpt lat="31.1533267" lon="-5.4216833"><ele>1361.8</ele><time>2026-04-23T14:35:03.928Z</time></trkpt><trkpt lat="31.1534033" lon="-5.4216583"><ele>1363.6</ele><time>2026-04-23T14:35:04.928Z</time></trkpt><trkpt lat="31.153495" lon="-5.4216233"><ele>1365.4</ele><time>2026-04-23T14:35:05.928Z</time></trkpt><trkpt lat="31.153595" lon="-5.4215883"><ele>1367.2</ele><time>2026-04-23T14:35:06.928Z</time></trkpt><trkpt lat="31.1536917" lon="-5.4215667"><ele>1369.0</ele><time>2026-04-23T14:35:07.928Z</time></trkpt><trkpt lat="31.153785" lon="-5.42155"><ele>1369.0</ele><time>2026-04-23T14:35:08.928Z</time></trkpt><trkpt lat="31.1538733" lon="-5.4215283"><ele>1369.0</ele><time>2026-04-23T14:35:09.928Z</time></trkpt><trkpt lat="31.1539583" lon="-5.4215033"><ele>1369.0</ele><time>2026-04-23T14:35:10.928Z</time></trkpt><trkpt lat="31.1540417" lon="-5.421475"><ele>1369.0</ele><time>2026-04-23T14:35:11.928Z</time></trkpt><trkpt lat="31.154135" lon="-5.4214583"><ele>1369.0</ele><time>2026-04-23T14:35:12.927Z</time></trkpt><trkpt lat="31.154225" lon="-5.42145"><ele>1369.0</ele><time>2026-04-23T14:35:13.927Z</time></trkpt><trkpt lat="31.1543033" lon="-5.4214467"><ele>1369.6666666666665</ele><time>2026-04-23T14:35:14.928Z</time></trkpt><trkpt lat="31.15437" lon="-5.4214333"><ele>1370.3333333333333</ele><time>2026-04-23T14:35:15.928Z</time></trkpt><trkpt lat="31.1544367" lon="-5.421415"><ele>1371.0</ele><time>2026-04-23T14:35:16.928Z</time></trkpt><trkpt lat="31.154505" lon="-5.42139"><ele>1371.6666666666667</ele><time>2026-04-23T14:35:17.928Z</time></trkpt><trkpt lat="31.15458" lon="-5.42137"><ele>1372.3333333333335</ele><time>2026-04-23T14:35:18.928Z</time></trkpt><trkpt lat="31.15465" lon="-5.421345"><ele>1373.0</ele><time>2026-04-23T14:35:19.928Z</time></trkpt><trkpt lat="31.15473" lon="-5.4212767"><ele>1372.1666666666667</ele><time>2026-04-23T14:35:21.928Z</time></trkpt><trkpt lat="31.1547733" lon="-5.4211933"><ele>1371.3333333333335</ele><time>2026-04-23T14:35:23.927Z</time></trkpt><trkpt lat="31.154815" lon="-5.42111"><ele>1370.5</ele><time>2026-04-23T14:35:25.928Z</time></trkpt><trkpt lat="31.1549" lon="-5.42105"><ele>1369.6666666666667</ele><time>2026-04-23T14:35:27.928Z</time></trkpt><trkpt lat="31.1549667" lon="-5.421015"><ele>1368.8333333333333</ele><time>2026-04-23T14:35:28.928Z</time></trkpt><trkpt lat="31.1550417" lon="-5.4209767"><ele>1368.0</ele><time>2026-04-23T14:35:29.927Z</time></trkpt><trkpt lat="31.1551233" lon="-5.4209217"><ele>1368.0</ele><time>2026-04-23T14:35:30.927Z</time></trkpt><trkpt lat="31.155215" lon="-5.4208467"><ele>1368.0</ele><time>2026-04-23T14:35:31.928Z</time></trkpt><trkpt lat="31.155305" lon="-5.4207617"><ele>1368.0</ele><time>2026-04-23T14:35:32.928Z</time></trkpt><trkpt lat="31.1553817" lon="-5.4206883"><ele>1368.0</ele><time>2026-04-23T14:35:33.927Z</time></trkpt><trkpt lat="31.155445" lon="-5.42061"><ele>1368.0</ele><time>2026-04-23T14:35:34.927Z</time></trkpt><trkpt lat="31.1555083" lon="-5.420535"><ele>1368.8000000000002</ele><time>2026-04-23T14:35:35.928Z</time></trkpt><trkpt lat="31.155555" lon="-5.4204667"><ele>1369.6</ele><time>2026-04-23T14:35:36.927Z</time></trkpt><trkpt lat="31.1556033" lon="-5.4203983"><ele>1370.4</ele><time>2026-04-23T14:35:37.928Z</time></trkpt><trkpt lat="31.1556967" lon="-5.4203317"><ele>1371.1999999999998</ele><time>2026-04-23T14:35:39.928Z</time></trkpt><trkpt lat="31.1557983" lon="-5.4202883"><ele>1372.0</ele><time>2026-04-23T14:35:41.928Z</time></trkpt><trkpt lat="31.1559117" lon="-5.420215"><ele>1372.142857142857</ele><time>2026-04-23T14:35:43.928Z</time></trkpt><trkpt lat="31.155955" lon="-5.4201567"><ele>1372.2857142857142</ele><time>2026-04-23T14:35:44.928Z</time></trkpt><trkpt lat="31.156" lon="-5.4200983"><ele>1372.4285714285716</ele><time>2026-04-23T14:35:45.927Z</time></trkpt><trkpt lat="31.1560383" lon="-5.4200333"><ele>1372.5714285714284</ele><time>2026-04-23T14:35:46.928Z</time></trkpt><trkpt lat="31.15607" lon="-5.4199683"><ele>1372.7142857142858</ele><time>2026-04-23T14:35:47.927Z</time></trkpt><trkpt lat="31.1560983" lon="-5.4198417"><ele>1372.857142857143</ele><time>2026-04-23T14:35:49.928Z</time></trkpt><trkpt lat="31.1561067" lon="-5.419765"><ele>1373.0</ele><time>2026-04-23T14:35:50.927Z</time></trkpt><trkpt lat="31.15615" lon="-5.4196217"><ele>1374.5</ele><time>2026-04-23T14:35:52.928Z</time></trkpt><trkpt lat="31.1561867" lon="-5.4195383"><ele>1376.0</ele><time>2026-04-23T14:35:53.928Z</time></trkpt><trkpt lat="31.156225" lon="-5.4194583"><ele>1377.5</ele><time>2026-04-23T14:35:54.927Z</time></trkpt><trkpt lat="31.156255" lon="-5.41938"><ele>1379.0</ele><time>2026-04-23T14:35:55.928Z</time></trkpt><trkpt lat="31.1562867" lon="-5.4193067"><ele>1380.5</ele><time>2026-04-23T14:35:56.928Z</time></trkpt><trkpt lat="31.1563733" lon="-5.4192017"><ele>1382.0</ele><time>2026-04-23T14:35:58.928Z</time></trkpt><trkpt lat="31.1564383" lon="-5.4191683"><ele>1382.0</ele><time>2026-04-23T14:35:59.927Z</time></trkpt><trkpt lat="31.156505" lon="-5.419135"><ele>1382.0</ele><time>2026-04-23T14:36:00.928Z</time></trkpt><trkpt lat="31.1565667" lon="-5.4190917"><ele>1382.0</ele><time>2026-04-23T14:36:01.928Z</time></trkpt><trkpt lat="31.1566283" lon="-5.4190367"><ele>1382.0</ele><time>2026-04-23T14:36:02.928Z</time></trkpt><trkpt lat="31.1566817" lon="-5.4189717"><ele>1382.0</ele><time>2026-04-23T14:36:03.928Z</time></trkpt><trkpt lat="31.1567317" lon="-5.418895"><ele>1382.0</ele><time>2026-04-23T14:36:04.928Z</time></trkpt><trkpt lat="31.156765" lon="-5.41882"><ele>1382.0</ele><time>2026-04-23T14:36:05.928Z</time></trkpt><trkpt lat="31.1567917" lon="-5.4187333"><ele>1382.0</ele><time>2026-04-23T14:36:06.928Z</time></trkpt><trkpt lat="31.1568183" lon="-5.4186617"><ele>1382.0</ele><time>2026-04-23T14:36:07.928Z</time></trkpt><trkpt lat="31.1568583" lon="-5.4186017"><ele>1382.0</ele><time>2026-04-23T14:36:08.928Z</time></trkpt><trkpt lat="31.1569117" lon="-5.4185333"><ele>1382.0</ele><time>2026-04-23T14:36:09.928Z</time></trkpt><trkpt lat="31.1569667" lon="-5.418465"><ele>1382.0</ele><time>2026-04-23T14:36:10.928Z</time></trkpt><trkpt lat="31.1570283" lon="-5.4184"><ele>1382.0</ele><time>2026-04-23T14:36:11.928Z</time></trkpt><trkpt lat="31.15708" lon="-5.41833"><ele>1382.0</ele><time>2026-04-23T14:36:12.927Z</time></trkpt><trkpt lat="31.1571133" lon="-5.4182433"><ele>1382.0</ele><time>2026-04-23T14:36:13.928Z</time></trkpt><trkpt lat="31.1571433" lon="-5.41817"><ele>1382.0</ele><time>2026-04-23T14:36:14.927Z</time></trkpt><trkpt lat="31.1571883" lon="-5.4180983"><ele>1382.0</ele><time>2026-04-23T14:36:15.928Z</time></trkpt><trkpt lat="31.1572517" lon="-5.4180383"><ele>1382.0</ele><time>2026-04-23T14:36:16.928Z</time></trkpt><trkpt lat="31.1573233" lon="-5.417995"><ele>1383.8333333333335</ele><time>2026-04-23T14:36:17.928Z</time></trkpt><trkpt lat="31.1573967" lon="-5.4179583"><ele>1385.6666666666667</ele><time>2026-04-23T14:36:18.927Z</time></trkpt><trkpt lat="31.1574733" lon="-5.4179233"><ele>1387.5</ele><time>2026-04-23T14:36:19.928Z</time></trkpt><trkpt lat="31.15754" lon="-5.41789"><ele>1389.3333333333333</ele><time>2026-04-23T14:36:20.928Z</time></trkpt><trkpt lat="31.1575933" lon="-5.4178483"><ele>1391.1666666666665</ele><time>2026-04-23T14:36:21.928Z</time></trkpt><trkpt lat="31.1576683" lon="-5.4177367"><ele>1393.0</ele><time>2026-04-23T14:36:23.928Z</time></trkpt><trkpt lat="31.1576983" lon="-5.417665"><ele>1393.0</ele><time>2026-04-23T14:36:24.928Z</time></trkpt><trkpt lat="31.15772" lon="-5.417585"><ele>1393.0</ele><time>2026-04-23T14:36:25.928Z</time></trkpt><trkpt lat="31.1577283" lon="-5.417495"><ele>1393.0</ele><time>2026-04-23T14:36:26.928Z</time></trkpt><trkpt lat="31.157735" lon="-5.4174117"><ele>1393.0</ele><time>2026-04-23T14:36:27.928Z</time></trkpt><trkpt lat="31.157735" lon="-5.417325"><ele>1393.0</ele><time>2026-04-23T14:36:28.928Z</time></trkpt><trkpt lat="31.1577467" lon="-5.4171817"><ele>1393.0</ele><time>2026-04-23T14:36:30.928Z</time></trkpt><trkpt lat="31.1578083" lon="-5.4170567"><ele>1393.1666666666665</ele><time>2026-04-23T14:36:32.928Z</time></trkpt><trkpt lat="31.157865" lon="-5.4170067"><ele>1393.3333333333333</ele><time>2026-04-23T14:36:33.927Z</time></trkpt><trkpt lat="31.1579333" lon="-5.4169767"><ele>1393.5</ele><time>2026-04-23T14:36:34.928Z</time></trkpt><trkpt lat="31.1580083" lon="-5.4169483"><ele>1393.6666666666667</ele><time>2026-04-23T14:36:35.927Z</time></trkpt><trkpt lat="31.158085" lon="-5.41692"><ele>1393.8333333333335</ele><time>2026-04-23T14:36:36.928Z</time></trkpt><trkpt lat="31.1581617" lon="-5.4168967"><ele>1394.0</ele><time>2026-04-23T14:36:37.928Z</time></trkpt><trkpt lat="31.15823" lon="-5.41688"><ele>1395.4</ele><time>2026-04-23T14:36:38.928Z</time></trkpt><trkpt lat="31.1582983" lon="-5.4168717"><ele>1396.8000000000002</ele><time>2026-04-23T14:36:39.928Z</time></trkpt><trkpt lat="31.158405" lon="-5.4168417"><ele>1398.1999999999998</ele><time>2026-04-23T14:36:41.928Z</time></trkpt><trkpt lat="31.158465" lon="-5.416775"><ele>1399.6</ele><time>2026-04-23T14:36:43.928Z</time></trkpt><trkpt lat="31.158495" lon="-5.4166517"><ele>1401.0</ele><time>2026-04-23T14:36:45.927Z</time></trkpt><trkpt lat="31.1585433" lon="-5.4165417"><ele>1401.0</ele><time>2026-04-23T14:36:47.928Z</time></trkpt><trkpt lat="31.15863" lon="-5.41648"><ele>1401.0</ele><time>2026-04-23T14:36:49.928Z</time></trkpt><trkpt lat="31.1587317" lon="-5.41647"><ele>1401.0</ele><time>2026-04-23T14:36:51.927Z</time></trkpt><trkpt lat="31.1588583" lon="-5.416485"><ele>1401.0</ele><time>2026-04-23T14:36:53.928Z</time></trkpt><trkpt lat="31.1589733" lon="-5.4165233"><ele>1401.8333333333333</ele><time>2026-04-23T14:36:55.927Z</time></trkpt><trkpt lat="31.15908" lon="-5.4165417"><ele>1402.6666666666667</ele><time>2026-04-23T14:36:57.928Z</time></trkpt><trkpt lat="31.1591483" lon="-5.41654"><ele>1403.5</ele><time>2026-04-23T14:36:58.928Z</time></trkpt><trkpt lat="31.15925" lon="-5.4165017"><ele>1404.3333333333335</ele><time>2026-04-23T14:37:00.928Z</time></trkpt><trkpt lat="31.1593017" lon="-5.4164483"><ele>1405.1666666666667</ele><time>2026-04-23T14:37:02.928Z</time></trkpt><trkpt lat="31.1593567" lon="-5.416375"><ele>1406.0</ele><time>2026-04-23T14:37:04.928Z</time></trkpt><trkpt lat="31.1593883" lon="-5.41631"><ele>1407.3333333333335</ele><time>2026-04-23T14:37:06.928Z</time></trkpt><trkpt lat="31.1594333" lon="-5.41624"><ele>1408.6666666666667</ele><time>2026-04-23T14:37:22.927Z</time></trkpt><trkpt lat="31.1594733" lon="-5.41614"><ele>1410.0</ele><time>2026-04-23T14:42:10.926Z</time></trkpt><trkpt lat="31.1595017" lon="-5.4160533"><ele>1411.3333333333333</ele><time>2026-04-23T14:42:12.925Z</time></trkpt><trkpt lat="31.1595033" lon="-5.4159367"><ele>1412.6666666666665</ele><time>2026-04-23T14:42:14.926Z</time></trkpt><trkpt lat="31.1594883" lon="-5.415865"><ele>1414.0</ele><time>2026-04-23T14:42:16.926Z</time></trkpt><trkpt lat="31.159465" lon="-5.4157617"><ele>1414.0</ele><time>2026-04-23T14:42:42.926Z</time></trkpt><trkpt lat="31.1594317" lon="-5.4156183"><ele>1414.0</ele><time>2026-04-23T14:42:44.926Z</time></trkpt><trkpt lat="31.1593933" lon="-5.41547"><ele>1414.0</ele><time>2026-04-23T14:42:46.926Z</time></trkpt><trkpt lat="31.1593783" lon="-5.41539"><ele>1414.0</ele><time>2026-04-23T14:42:47.925Z</time></trkpt><trkpt lat="31.15933" lon="-5.4152683"><ele>1414.0</ele><time>2026-04-23T14:42:49.925Z</time></trkpt><trkpt lat="31.159245" lon="-5.4151617"><ele>1414.8333333333333</ele><time>2026-04-23T14:42:51.926Z</time></trkpt><trkpt lat="31.1591933" lon="-5.415115"><ele>1415.6666666666665</ele><time>2026-04-23T14:42:52.925Z</time></trkpt><trkpt lat="31.1591383" lon="-5.41503"><ele>1416.5</ele><time>2026-04-23T14:42:54.926Z</time></trkpt><trkpt lat="31.1591383" lon="-5.414945"><ele>1417.3333333333333</ele><time>2026-04-23T14:42:56.926Z</time></trkpt><trkpt lat="31.15917" lon="-5.4148617"><ele>1418.1666666666667</ele><time>2026-04-23T14:42:58.926Z</time></trkpt><trkpt lat="31.1592133" lon="-5.4147717"><ele>1419.0</ele><time>2026-04-23T14:43:00.926Z</time></trkpt><trkpt lat="31.159205" lon="-5.4146633"><ele>1418.25</ele><time>2026-04-23T14:43:02.926Z</time></trkpt><trkpt lat="31.1591417" lon="-5.41456"><ele>1417.5</ele><time>2026-04-23T14:43:04.926Z</time></trkpt><trkpt lat="31.1590517" lon="-5.414475"><ele>1416.75</ele><time>2026-04-23T14:43:06.926Z</time></trkpt><trkpt lat="31.15896" lon="-5.4143983"><ele>1416.0</ele><time>2026-04-23T14:43:08.926Z</time></trkpt><trkpt lat="31.1588583" lon="-5.4143267"><ele>1416.0</ele><time>2026-04-23T14:43:10.926Z</time></trkpt><trkpt lat="31.1587467" lon="-5.41429"><ele>1416.0</ele><time>2026-04-23T14:43:12.926Z</time></trkpt><trkpt lat="31.1586283" lon="-5.4142817"><ele>1416.0</ele><time>2026-04-23T14:43:14.926Z</time></trkpt><trkpt lat="31.158515" lon="-5.4142283"><ele>1416.0</ele><time>2026-04-23T14:43:16.926Z</time></trkpt><trkpt lat="31.1584433" lon="-5.414185"><ele>1416.0</ele><time>2026-04-23T14:43:17.926Z</time></trkpt><trkpt lat="31.15836" lon="-5.4141417"><ele>1416.0</ele><time>2026-04-23T14:43:18.925Z</time></trkpt><trkpt lat="31.15828" lon="-5.4141017"><ele>1416.0</ele><time>2026-04-23T14:43:19.926Z</time></trkpt><trkpt lat="31.158205" lon="-5.4140517"><ele>1416.0</ele><time>2026-04-23T14:43:20.925Z</time></trkpt><trkpt lat="31.15813" lon="-5.4139983"><ele>1416.0</ele><time>2026-04-23T14:43:21.926Z</time></trkpt><trkpt lat="31.1580617" lon="-5.4139467"><ele>1416.0</ele><time>2026-04-23T14:43:22.926Z</time></trkpt><trkpt lat="31.1580033" lon="-5.4139017"><ele>1416.0</ele><time>2026-04-23T14:43:23.926Z</time></trkpt><trkpt lat="31.157925" lon="-5.4137933"><ele>1415.5714285714287</ele><time>2026-04-23T14:43:25.926Z</time></trkpt><trkpt lat="31.15789" lon="-5.41373"><ele>1415.142857142857</ele><time>2026-04-23T14:43:26.926Z</time></trkpt><trkpt lat="31.157845" lon="-5.4136633"><ele>1414.7142857142858</ele><time>2026-04-23T14:43:27.926Z</time></trkpt><trkpt lat="31.1577917" lon="-5.4136"><ele>1414.2857142857142</ele><time>2026-04-23T14:43:28.926Z</time></trkpt><trkpt lat="31.1577483" lon="-5.4135467"><ele>1413.857142857143</ele><time>2026-04-23T14:43:29.926Z</time></trkpt><trkpt lat="31.15771" lon="-5.4134733"><ele>1413.4285714285713</ele><time>2026-04-23T14:43:30.926Z</time></trkpt><trkpt lat="31.1576683" lon="-5.4133867"><ele>1413.0</ele><time>2026-04-23T14:43:31.925Z</time></trkpt><trkpt lat="31.1576217" lon="-5.413285"><ele>1413.0</ele><time>2026-04-23T14:43:32.926Z</time></trkpt><trkpt lat="31.15757" lon="-5.4131783"><ele>1413.0</ele><time>2026-04-23T14:43:33.926Z</time></trkpt><trkpt lat="31.1575167" lon="-5.41308"><ele>1413.0</ele><time>2026-04-23T14:43:34.926Z</time></trkpt><trkpt lat="31.1574717" lon="-5.4129783"><ele>1413.0</ele><time>2026-04-23T14:43:35.926Z</time></trkpt><trkpt lat="31.15742" lon="-5.412875"><ele>1413.0</ele><time>2026-04-23T14:43:36.926Z</time></trkpt><trkpt lat="31.1573717" lon="-5.4127783"><ele>1414.3333333333333</ele><time>2026-04-23T14:43:37.925Z</time></trkpt><trkpt lat="31.1573233" lon="-5.412695"><ele>1415.6666666666667</ele><time>2026-04-23T14:43:38.926Z</time></trkpt><trkpt lat="31.1572767" lon="-5.4126117"><ele>1417.0</ele><time>2026-04-23T14:43:39.926Z</time></trkpt><trkpt lat="31.15723" lon="-5.4125267"><ele>1418.3333333333335</ele><time>2026-04-23T14:43:40.926Z</time></trkpt><trkpt lat="31.15719" lon="-5.4124467"><ele>1419.6666666666667</ele><time>2026-04-23T14:43:41.926Z</time></trkpt><trkpt lat="31.1571633" lon="-5.41237"><ele>1421.0</ele><time>2026-04-23T14:43:42.926Z</time></trkpt><trkpt lat="31.1571333" lon="-5.4122967"><ele>1421.0</ele><time>2026-04-23T14:43:43.925Z</time></trkpt><trkpt lat="31.1570917" lon="-5.4122217"><ele>1421.0</ele><time>2026-04-23T14:43:44.926Z</time></trkpt><trkpt lat="31.1570533" lon="-5.41215"><ele>1421.0</ele><time>2026-04-23T14:43:45.925Z</time></trkpt><trkpt lat="31.1570333" lon="-5.41208"><ele>1421.0</ele><time>2026-04-23T14:43:46.926Z</time></trkpt><trkpt lat="31.1570333" lon="-5.4120033"><ele>1421.0</ele><time>2026-04-23T14:43:47.926Z</time></trkpt><trkpt lat="31.1570533" lon="-5.41193"><ele>1421.0</ele><time>2026-04-23T14:43:48.926Z</time></trkpt><trkpt lat="31.1570717" lon="-5.4118533"><ele>1421.0</ele><time>2026-04-23T14:43:49.926Z</time></trkpt><trkpt lat="31.1570733" lon="-5.4117033"><ele>1422.1666666666667</ele><time>2026-04-23T14:43:51.926Z</time></trkpt><trkpt lat="31.15707" lon="-5.4116167"><ele>1423.3333333333335</ele><time>2026-04-23T14:43:52.926Z</time></trkpt><trkpt lat="31.1570717" lon="-5.41153"><ele>1424.5</ele><time>2026-04-23T14:43:53.926Z</time></trkpt><trkpt lat="31.1570717" lon="-5.4114433"><ele>1425.6666666666667</ele><time>2026-04-23T14:43:54.926Z</time></trkpt><trkpt lat="31.1570683" lon="-5.41135"><ele>1426.8333333333333</ele><time>2026-04-23T14:43:55.926Z</time></trkpt><trkpt lat="31.1570533" lon="-5.4112417"><ele>1428.0</ele><time>2026-04-23T14:43:56.926Z</time></trkpt><trkpt lat="31.15703" lon="-5.4111267"><ele>1429.5</ele><time>2026-04-23T14:43:57.926Z</time></trkpt><trkpt lat="31.157005" lon="-5.4110167"><ele>1431.0</ele><time>2026-04-23T14:43:58.926Z</time></trkpt><trkpt lat="31.156975" lon="-5.4109167"><ele>1432.5</ele><time>2026-04-23T14:43:59.925Z</time></trkpt><trkpt lat="31.156935" lon="-5.4108233"><ele>1434.0</ele><time>2026-04-23T14:44:00.926Z</time></trkpt><trkpt lat="31.1569067" lon="-5.4107333"><ele>1435.5</ele><time>2026-04-23T14:44:01.926Z</time></trkpt><trkpt lat="31.1568817" lon="-5.4106533"><ele>1437.0</ele><time>2026-04-23T14:44:02.926Z</time></trkpt><trkpt lat="31.15684" lon="-5.41057"><ele>1437.0</ele><time>2026-04-23T14:44:03.926Z</time></trkpt><trkpt lat="31.156795" lon="-5.41048"><ele>1437.0</ele><time>2026-04-23T14:44:04.926Z</time></trkpt><trkpt lat="31.1567567" lon="-5.4104067"><ele>1437.0</ele><time>2026-04-23T14:44:05.926Z</time></trkpt><trkpt lat="31.156725" lon="-5.4103383"><ele>1437.0</ele><time>2026-04-23T14:44:06.925Z</time></trkpt><trkpt lat="31.1566767" lon="-5.4102267"><ele>1437.0</ele><time>2026-04-23T14:44:08.926Z</time></trkpt><trkpt lat="31.1566517" lon="-5.41011"><ele>1437.0</ele><time>2026-04-23T14:44:10.926Z</time></trkpt><trkpt lat="31.1566133" lon="-5.4100017"><ele>1437.0</ele><time>2026-04-23T14:44:12.926Z</time></trkpt><trkpt lat="31.1565933" lon="-5.4098717"><ele>1437.0</ele><time>2026-04-23T14:44:14.925Z</time></trkpt><trkpt lat="31.1566083" lon="-5.4097317"><ele>1437.0</ele><time>2026-04-23T14:44:16.926Z</time></trkpt><trkpt lat="31.1566267" lon="-5.4096483"><ele>1437.0</ele><time>2026-04-23T14:44:17.925Z</time></trkpt><trkpt lat="31.1566383" lon="-5.4095633"><ele>1437.0</ele><time>2026-04-23T14:44:18.926Z</time></trkpt><trkpt lat="31.1566467" lon="-5.4094783"><ele>1437.1666666666667</ele><time>2026-04-23T14:44:19.926Z</time></trkpt><trkpt lat="31.15666" lon="-5.40939"><ele>1437.3333333333333</ele><time>2026-04-23T14:44:20.925Z</time></trkpt><trkpt lat="31.1566717" lon="-5.4092983"><ele>1437.5</ele><time>2026-04-23T14:44:21.925Z</time></trkpt><trkpt lat="31.156685" lon="-5.409195"><ele>1437.6666666666665</ele><time>2026-04-23T14:44:22.926Z</time></trkpt><trkpt lat="31.156705" lon="-5.40908"><ele>1437.8333333333333</ele><time>2026-04-23T14:44:23.926Z</time></trkpt><trkpt lat="31.1567183" lon="-5.40897"><ele>1438.0</ele><time>2026-04-23T14:44:24.926Z</time></trkpt><trkpt lat="31.15673" lon="-5.4088717"><ele>1437.8333333333333</ele><time>2026-04-23T14:44:25.926Z</time></trkpt><trkpt lat="31.15674" lon="-5.4087833"><ele>1437.6666666666665</ele><time>2026-04-23T14:44:26.926Z</time></trkpt><trkpt lat="31.1567517" lon="-5.4086917"><ele>1437.5</ele><time>2026-04-23T14:44:27.926Z</time></trkpt><trkpt lat="31.156765" lon="-5.4086133"><ele>1437.3333333333333</ele><time>2026-04-23T14:44:28.925Z</time></trkpt><trkpt lat="31.156805" lon="-5.4084967"><ele>1437.1666666666667</ele><time>2026-04-23T14:44:30.926Z</time></trkpt><trkpt lat="31.1568917" lon="-5.4084517"><ele>1437.0</ele><time>2026-04-23T14:44:32.925Z</time></trkpt><trkpt lat="31.157025" lon="-5.408435"><ele>1437.0</ele><time>2026-04-23T14:44:34.926Z</time></trkpt><trkpt lat="31.1571017" lon="-5.4084283"><ele>1437.0</ele><time>2026-04-23T14:44:35.925Z</time></trkpt><trkpt lat="31.1571717" lon="-5.40841"><ele>1437.0</ele><time>2026-04-23T14:44:36.926Z</time></trkpt><trkpt lat="31.1572317" lon="-5.40838"><ele>1437.0</ele><time>2026-04-23T14:44:37.926Z</time></trkpt><trkpt lat="31.1573083" lon="-5.40832"><ele>1437.0</ele><time>2026-04-23T14:44:39.926Z</time></trkpt><trkpt lat="31.1573383" lon="-5.4082317"><ele>1437.0</ele><time>2026-04-23T14:44:41.925Z</time></trkpt><trkpt lat="31.15734" lon="-5.40809"><ele>1437.0</ele><time>2026-04-23T14:44:43.926Z</time></trkpt><trkpt lat="31.1573383" lon="-5.40801"><ele>1437.0</ele><time>2026-04-23T14:44:44.926Z</time></trkpt><trkpt lat="31.1573233" lon="-5.4079267"><ele>1437.0</ele><time>2026-04-23T14:44:45.925Z</time></trkpt><trkpt lat="31.1573067" lon="-5.4078383"><ele>1437.0</ele><time>2026-04-23T14:44:46.926Z</time></trkpt><trkpt lat="31.157295" lon="-5.4077567"><ele>1437.0</ele><time>2026-04-23T14:44:47.926Z</time></trkpt><trkpt lat="31.15728" lon="-5.407675"><ele>1437.0</ele><time>2026-04-23T14:44:48.926Z</time></trkpt><trkpt lat="31.1572633" lon="-5.4075917"><ele>1437.0</ele><time>2026-04-23T14:44:49.925Z</time></trkpt><trkpt lat="31.1572533" lon="-5.4075067"><ele>1436.5</ele><time>2026-04-23T14:44:50.926Z</time></trkpt><trkpt lat="31.1572483" lon="-5.4074183"><ele>1436.0</ele><time>2026-04-23T14:44:51.926Z</time></trkpt><trkpt lat="31.15725" lon="-5.4073333"><ele>1435.5</ele><time>2026-04-23T14:44:52.926Z</time></trkpt><trkpt lat="31.157245" lon="-5.4072383"><ele>1435.0</ele><time>2026-04-23T14:44:53.926Z</time></trkpt><trkpt lat="31.1572417" lon="-5.407145"><ele>1434.5</ele><time>2026-04-23T14:44:54.926Z</time></trkpt><trkpt lat="31.1572317" lon="-5.4070417"><ele>1434.0</ele><time>2026-04-23T14:44:55.926Z</time></trkpt><trkpt lat="31.1572283" lon="-5.4069517"><ele>1434.0</ele><time>2026-04-23T14:44:56.926Z</time></trkpt><trkpt lat="31.15722" lon="-5.4068633"><ele>1434.0</ele><time>2026-04-23T14:44:57.925Z</time></trkpt><trkpt lat="31.1572133" lon="-5.40678"><ele>1434.0</ele><time>2026-04-23T14:44:58.926Z</time></trkpt><trkpt lat="31.157215" lon="-5.406635"><ele>1434.0</ele><time>2026-04-23T14:45:00.926Z</time></trkpt><trkpt lat="31.1571917" lon="-5.4065067"><ele>1434.0</ele><time>2026-04-23T14:45:02.926Z</time></trkpt><trkpt lat="31.1571283" lon="-5.406385"><ele>1434.0</ele><time>2026-04-23T14:45:04.926Z</time></trkpt><trkpt lat="31.15708" lon="-5.4063333"><ele>1434.0</ele><time>2026-04-23T14:45:05.925Z</time></trkpt><trkpt lat="31.1569817" lon="-5.40626"><ele>1434.0</ele><time>2026-04-23T14:45:07.926Z</time></trkpt><trkpt lat="31.1569133" lon="-5.4061583"><ele>1434.0</ele><time>2026-04-23T14:45:09.925Z</time></trkpt><trkpt lat="31.1568733" lon="-5.406075"><ele>1434.0</ele><time>2026-04-23T14:45:10.926Z</time></trkpt><trkpt lat="31.1568383" lon="-5.4059733"><ele>1434.2</ele><time>2026-04-23T14:45:11.926Z</time></trkpt><trkpt lat="31.1567983" lon="-5.4058733"><ele>1434.4</ele><time>2026-04-23T14:45:12.926Z</time></trkpt><trkpt lat="31.1567483" lon="-5.4057817"><ele>1434.6</ele><time>2026-04-23T14:45:13.925Z</time></trkpt><trkpt lat="31.1566917" lon="-5.4056883"><ele>1434.8</ele><time>2026-04-23T14:45:14.926Z</time></trkpt><trkpt lat="31.156645" lon="-5.4056067"><ele>1435.0</ele><time>2026-04-23T14:45:15.926Z</time></trkpt><trkpt lat="31.156585" lon="-5.40553"><ele>1433.8</ele><time>2026-04-23T14:45:16.925Z</time></trkpt><trkpt lat="31.1565017" lon="-5.4054483"><ele>1432.6</ele><time>2026-04-23T14:45:17.925Z</time></trkpt><trkpt lat="31.1564183" lon="-5.4053717"><ele>1431.4</ele><time>2026-04-23T14:45:18.926Z</time></trkpt><trkpt lat="31.15635" lon="-5.405285"><ele>1430.2</ele><time>2026-04-23T14:45:19.926Z</time></trkpt><trkpt lat="31.15629" lon="-5.405215"><ele>1429.0</ele><time>2026-04-23T14:45:20.926Z</time></trkpt><trkpt lat="31.1562333" lon="-5.405155"><ele>1429.0</ele><time>2026-04-23T14:45:21.926Z</time></trkpt><trkpt lat="31.1561883" lon="-5.40509"><ele>1429.0</ele><time>2026-04-23T14:45:22.926Z</time></trkpt><trkpt lat="31.15617" lon="-5.4050117"><ele>1429.0</ele><time>2026-04-23T14:45:23.926Z</time></trkpt><trkpt lat="31.156165" lon="-5.4049167"><ele>1429.0</ele><time>2026-04-23T14:45:24.925Z</time></trkpt><trkpt lat="31.1561733" lon="-5.404825"><ele>1429.0</ele><time>2026-04-23T14:45:25.926Z</time></trkpt><trkpt lat="31.1561883" lon="-5.4047317"><ele>1429.0</ele><time>2026-04-23T14:45:26.926Z</time></trkpt><trkpt lat="31.1561967" lon="-5.4046367"><ele>1428.6</ele><time>2026-04-23T14:45:27.926Z</time></trkpt><trkpt lat="31.1562017" lon="-5.404525"><ele>1428.2</ele><time>2026-04-23T14:45:28.925Z</time></trkpt><trkpt lat="31.15621" lon="-5.4043983"><ele>1427.8</ele><time>2026-04-23T14:45:29.926Z</time></trkpt><trkpt lat="31.15622" lon="-5.4042717"><ele>1427.3999999999999</ele><time>2026-04-23T14:45:30.925Z</time></trkpt><trkpt lat="31.1562267" lon="-5.404155"><ele>1427.0</ele><time>2026-04-23T14:45:31.926Z</time></trkpt><trkpt lat="31.1562383" lon="-5.4040433"><ele>1427.0</ele><time>2026-04-23T14:45:32.926Z</time></trkpt><trkpt lat="31.1562517" lon="-5.403935"><ele>1427.0</ele><time>2026-04-23T14:45:33.925Z</time></trkpt><trkpt lat="31.1562517" lon="-5.4038383"><ele>1427.0</ele><time>2026-04-23T14:45:34.926Z</time></trkpt><trkpt lat="31.1562433" lon="-5.40374"><ele>1427.0</ele><time>2026-04-23T14:45:35.925Z</time></trkpt><trkpt lat="31.1562183" lon="-5.4036533"><ele>1427.0</ele><time>2026-04-23T14:45:36.926Z</time></trkpt><trkpt lat="31.1561783" lon="-5.4035633"><ele>1427.0</ele><time>2026-04-23T14:45:37.925Z</time></trkpt><trkpt lat="31.1561383" lon="-5.4034833"><ele>1427.0</ele><time>2026-04-23T14:45:38.926Z</time></trkpt><trkpt lat="31.15609" lon="-5.403405"><ele>1427.0</ele><time>2026-04-23T14:45:39.926Z</time></trkpt><trkpt lat="31.1560367" lon="-5.4033233"><ele>1427.0</ele><time>2026-04-23T14:45:40.926Z</time></trkpt><trkpt lat="31.1559867" lon="-5.403235"><ele>1427.0</ele><time>2026-04-23T14:45:41.926Z</time></trkpt><trkpt lat="31.15595" lon="-5.40314"><ele>1427.0</ele><time>2026-04-23T14:45:42.926Z</time></trkpt><trkpt lat="31.155925" lon="-5.403045"><ele>1427.0</ele><time>2026-04-23T14:45:43.926Z</time></trkpt><trkpt lat="31.1559017" lon="-5.4029517"><ele>1427.6</ele><time>2026-04-23T14:45:44.926Z</time></trkpt><trkpt lat="31.1558717" lon="-5.4028433"><ele>1428.1999999999998</ele><time>2026-04-23T14:45:45.926Z</time></trkpt><trkpt lat="31.1558483" lon="-5.4027417"><ele>1428.8</ele><time>2026-04-23T14:45:46.925Z</time></trkpt><trkpt lat="31.15583" lon="-5.40264"><ele>1429.4</ele><time>2026-04-23T14:45:47.926Z</time></trkpt><trkpt lat="31.15582" lon="-5.4025383"><ele>1430.0</ele><time>2026-04-23T14:45:48.926Z</time></trkpt><trkpt lat="31.155825" lon="-5.4024333"><ele>1430.0</ele><time>2026-04-23T14:45:49.926Z</time></trkpt><trkpt lat="31.155825" lon="-5.4023217"><ele>1430.0</ele><time>2026-04-23T14:45:50.926Z</time></trkpt><trkpt lat="31.1558183" lon="-5.4022067"><ele>1430.0</ele><time>2026-04-23T14:45:51.926Z</time></trkpt><trkpt lat="31.155795" lon="-5.4020867"><ele>1430.0</ele><time>2026-04-23T14:45:52.926Z</time></trkpt><trkpt lat="31.1557667" lon="-5.40196"><ele>1430.0</ele><time>2026-04-23T14:45:53.925Z</time></trkpt><trkpt lat="31.1557333" lon="-5.40184"><ele>1429.3333333333335</ele><time>2026-04-23T14:45:54.926Z</time></trkpt><trkpt lat="31.1557067" lon="-5.4017283"><ele>1428.6666666666667</ele><time>2026-04-23T14:45:55.926Z</time></trkpt><trkpt lat="31.1556817" lon="-5.4016183"><ele>1428.0</ele><time>2026-04-23T14:45:56.926Z</time></trkpt><trkpt lat="31.155655" lon="-5.4015133"><ele>1427.3333333333333</ele><time>2026-04-23T14:45:57.926Z</time></trkpt><trkpt lat="31.15564" lon="-5.40143"><ele>1426.6666666666665</ele><time>2026-04-23T14:45:58.926Z</time></trkpt><trkpt lat="31.1556467" lon="-5.4013417"><ele>1426.0</ele><time>2026-04-23T14:45:59.926Z</time></trkpt><trkpt lat="31.155665" lon="-5.401255"><ele>1426.0</ele><time>2026-04-23T14:46:00.926Z</time></trkpt><trkpt lat="31.1556933" lon="-5.401165"><ele>1426.0</ele><time>2026-04-23T14:46:01.926Z</time></trkpt><trkpt lat="31.1557317" lon="-5.4010617"><ele>1426.0</ele><time>2026-04-23T14:46:02.925Z</time></trkpt><trkpt lat="31.155765" lon="-5.4009517"><ele>1426.0</ele><time>2026-04-23T14:46:03.926Z</time></trkpt><trkpt lat="31.155795" lon="-5.4008417"><ele>1426.0</ele><time>2026-04-23T14:46:04.926Z</time></trkpt><trkpt lat="31.1558283" lon="-5.4007383"><ele>1426.1999999999998</ele><time>2026-04-23T14:46:05.925Z</time></trkpt><trkpt lat="31.155865" lon="-5.400645"><ele>1426.3999999999999</ele><time>2026-04-23T14:46:06.926Z</time></trkpt><trkpt lat="31.1559167" lon="-5.4005667"><ele>1426.6</ele><time>2026-04-23T14:46:07.925Z</time></trkpt><trkpt lat="31.1559817" lon="-5.4004983"><ele>1426.8</ele><time>2026-04-23T14:46:08.926Z</time></trkpt><trkpt lat="31.1560667" lon="-5.4004383"><ele>1427.0</ele><time>2026-04-23T14:46:09.926Z</time></trkpt><trkpt lat="31.1561483" lon="-5.40037"><ele>1427.0</ele><time>2026-04-23T14:46:10.926Z</time></trkpt><trkpt lat="31.15622" lon="-5.4002983"><ele>1427.0</ele><time>2026-04-23T14:46:11.926Z</time></trkpt><trkpt lat="31.15629" lon="-5.400215"><ele>1427.0</ele><time>2026-04-23T14:46:12.925Z</time></trkpt><trkpt lat="31.1563483" lon="-5.4001233"><ele>1427.0</ele><time>2026-04-23T14:46:13.924Z</time></trkpt><trkpt lat="31.156405" lon="-5.400025"><ele>1427.0</ele><time>2026-04-23T14:46:14.924Z</time></trkpt><trkpt lat="31.1564467" lon="-5.3999267"><ele>1427.0</ele><time>2026-04-23T14:46:15.925Z</time></trkpt><trkpt lat="31.1564867" lon="-5.3998317"><ele>1427.0</ele><time>2026-04-23T14:46:16.925Z</time></trkpt><trkpt lat="31.156525" lon="-5.3997367"><ele>1427.0</ele><time>2026-04-23T14:46:17.924Z</time></trkpt><trkpt lat="31.1565567" lon="-5.399655"><ele>1427.0</ele><time>2026-04-23T14:46:18.925Z</time></trkpt><trkpt lat="31.1566383" lon="-5.3995483"><ele>1427.0</ele><time>2026-04-23T14:46:20.925Z</time></trkpt><trkpt lat="31.1566983" lon="-5.3995033"><ele>1426.1666666666667</ele><time>2026-04-23T14:46:21.924Z</time></trkpt><trkpt lat="31.15677" lon="-5.3994467"><ele>1425.3333333333335</ele><time>2026-04-23T14:46:22.925Z</time></trkpt><trkpt lat="31.1568267" lon="-5.3993883"><ele>1424.5</ele><time>2026-04-23T14:46:23.925Z</time></trkpt><trkpt lat="31.1568817" lon="-5.3993167"><ele>1423.6666666666667</ele><time>2026-04-23T14:46:24.925Z</time></trkpt><trkpt lat="31.1569367" lon="-5.39924"><ele>1422.8333333333333</ele><time>2026-04-23T14:46:25.924Z</time></trkpt><trkpt lat="31.1570033" lon="-5.3991867"><ele>1422.0</ele><time>2026-04-23T14:46:26.924Z</time></trkpt><trkpt lat="31.1570783" lon="-5.3991367"><ele>1422.0</ele><time>2026-04-23T14:46:27.925Z</time></trkpt><trkpt lat="31.1571717" lon="-5.399075"><ele>1422.0</ele><time>2026-04-23T14:46:28.925Z</time></trkpt><trkpt lat="31.157275" lon="-5.39901"><ele>1422.0</ele><time>2026-04-23T14:46:29.924Z</time></trkpt><trkpt lat="31.1573767" lon="-5.3989333"><ele>1422.0</ele><time>2026-04-23T14:46:30.925Z</time></trkpt><trkpt lat="31.15747" lon="-5.3988667"><ele>1422.1999999999998</ele><time>2026-04-23T14:46:31.925Z</time></trkpt><trkpt lat="31.157565" lon="-5.3988033"><ele>1422.4</ele><time>2026-04-23T14:46:32.925Z</time></trkpt><trkpt lat="31.15765" lon="-5.398745"><ele>1422.6</ele><time>2026-04-23T14:46:33.925Z</time></trkpt><trkpt lat="31.157715" lon="-5.39869"><ele>1422.8000000000002</ele><time>2026-04-23T14:46:34.925Z</time></trkpt><trkpt lat="31.1577833" lon="-5.3985883"><ele>1423.0</ele><time>2026-04-23T14:46:36.925Z</time></trkpt><trkpt lat="31.1577983" lon="-5.3985167"><ele>1423.0</ele><time>2026-04-23T14:46:37.925Z</time></trkpt><trkpt lat="31.1578067" lon="-5.3984367"><ele>1423.0</ele><time>2026-04-23T14:46:38.925Z</time></trkpt><trkpt lat="31.1578217" lon="-5.3983433"><ele>1423.0</ele><time>2026-04-23T14:46:39.924Z</time></trkpt><trkpt lat="31.1578317" lon="-5.398255"><ele>1423.0</ele><time>2026-04-23T14:46:40.925Z</time></trkpt><trkpt lat="31.157835" lon="-5.3981767"><ele>1423.0</ele><time>2026-04-23T14:46:41.925Z</time></trkpt><trkpt lat="31.15783" lon="-5.3980967"><ele>1423.0</ele><time>2026-04-23T14:46:42.924Z</time></trkpt><trkpt lat="31.1577933" lon="-5.3979783"><ele>1422.8000000000002</ele><time>2026-04-23T14:46:44.925Z</time></trkpt><trkpt lat="31.1577133" lon="-5.397875"><ele>1422.6</ele><time>2026-04-23T14:46:46.924Z</time></trkpt><trkpt lat="31.1576833" lon="-5.397765"><ele>1422.4</ele><time>2026-04-23T14:46:48.925Z</time></trkpt><trkpt lat="31.1577083" lon="-5.397655"><ele>1422.1999999999998</ele><time>2026-04-23T14:46:50.924Z</time></trkpt><trkpt lat="31.1577433" lon="-5.3975817"><ele>1422.0</ele><time>2026-04-23T14:46:51.924Z</time></trkpt><trkpt lat="31.15779" lon="-5.39749"><ele>1422.0</ele><time>2026-04-23T14:46:52.924Z</time></trkpt><trkpt lat="31.1578367" lon="-5.3974"><ele>1422.0</ele><time>2026-04-23T14:46:53.924Z</time></trkpt><trkpt lat="31.1578733" lon="-5.39732"><ele>1422.0</ele><time>2026-04-23T14:46:54.925Z</time></trkpt><trkpt lat="31.1579117" lon="-5.397245"><ele>1422.0</ele><time>2026-04-23T14:46:55.925Z</time></trkpt><trkpt lat="31.1579583" lon="-5.3971283"><ele>1422.0</ele><time>2026-04-23T14:46:57.924Z</time></trkpt><trkpt lat="31.15794" lon="-5.3970283"><ele>1422.0</ele><time>2026-04-23T14:46:59.925Z</time></trkpt><trkpt lat="31.15787" lon="-5.396965"><ele>1423.0</ele><time>2026-04-23T14:47:01.925Z</time></trkpt><trkpt lat="31.157765" lon="-5.39691"><ele>1424.0</ele><time>2026-04-23T14:47:03.925Z</time></trkpt><trkpt lat="31.1576917" lon="-5.396885"><ele>1425.0</ele><time>2026-04-23T14:47:04.925Z</time></trkpt><trkpt lat="31.15763" lon="-5.3968667"><ele>1426.0</ele><time>2026-04-23T14:47:05.925Z</time></trkpt><trkpt lat="31.1575617" lon="-5.3968017"><ele>1427.0</ele><time>2026-04-23T14:47:07.925Z</time></trkpt><trkpt lat="31.1575467" lon="-5.39668"><ele>1428.0</ele><time>2026-04-23T14:47:09.924Z</time></trkpt><trkpt lat="31.1575883" lon="-5.39657"><ele>1428.0</ele><time>2026-04-23T14:47:11.925Z</time></trkpt><trkpt lat="31.15764" lon="-5.3965117"><ele>1428.0</ele><time>2026-04-23T14:47:12.924Z</time></trkpt><trkpt lat="31.1577117" lon="-5.39646"><ele>1428.0</ele><time>2026-04-23T14:47:13.924Z</time></trkpt><trkpt lat="31.1577867" lon="-5.3964167"><ele>1428.0</ele><time>2026-04-23T14:47:14.925Z</time></trkpt><trkpt lat="31.1578617" lon="-5.3963867"><ele>1428.0</ele><time>2026-04-23T14:47:15.925Z</time></trkpt><trkpt lat="31.15795" lon="-5.3963617"><ele>1428.0</ele><time>2026-04-23T14:47:16.925Z</time></trkpt><trkpt lat="31.1580617" lon="-5.39634"><ele>1428.0</ele><time>2026-04-23T14:47:17.925Z</time></trkpt><trkpt lat="31.15817" lon="-5.3963033"><ele>1428.0</ele><time>2026-04-23T14:47:18.925Z</time></trkpt><trkpt lat="31.1582867" lon="-5.396255"><ele>1428.0</ele><time>2026-04-23T14:47:19.925Z</time></trkpt><trkpt lat="31.1584133" lon="-5.3962067"><ele>1428.0</ele><time>2026-04-23T14:47:20.925Z</time></trkpt><trkpt lat="31.1585117" lon="-5.3961517"><ele>1428.6000000000001</ele><time>2026-04-23T14:47:21.925Z</time></trkpt><trkpt lat="31.1586033" lon="-5.3960983"><ele>1429.2</ele><time>2026-04-23T14:47:22.924Z</time></trkpt><trkpt lat="31.158695" lon="-5.396045"><ele>1429.8</ele><time>2026-04-23T14:47:23.925Z</time></trkpt><trkpt lat="31.1587883" lon="-5.39599"><ele>1430.4</ele><time>2026-04-23T14:47:24.924Z</time></trkpt><trkpt lat="31.1588733" lon="-5.3959467"><ele>1431.0</ele><time>2026-04-23T14:47:25.924Z</time></trkpt><trkpt lat="31.15896" lon="-5.3959067"><ele>1432.0</ele><time>2026-04-23T14:47:26.925Z</time></trkpt><trkpt lat="31.1590433" lon="-5.3958633"><ele>1433.0</ele><time>2026-04-23T14:47:27.925Z</time></trkpt><trkpt lat="31.1591117" lon="-5.395815"><ele>1434.0</ele><time>2026-04-23T14:47:28.924Z</time></trkpt><trkpt lat="31.15918" lon="-5.3957667"><ele>1435.0</ele><time>2026-04-23T14:47:29.924Z</time></trkpt><trkpt lat="31.1592483" lon="-5.3957183"><ele>1436.0</ele><time>2026-04-23T14:47:30.925Z</time></trkpt><trkpt lat="31.1593217" lon="-5.395665"><ele>1437.0</ele><time>2026-04-23T14:47:31.925Z</time></trkpt><trkpt lat="31.1593917" lon="-5.3956033"><ele>1437.0</ele><time>2026-04-23T14:47:32.925Z</time></trkpt><trkpt lat="31.1594683" lon="-5.3955483"><ele>1437.0</ele><time>2026-04-23T14:47:33.925Z</time></trkpt><trkpt lat="31.15954" lon="-5.3955083"><ele>1437.0</ele><time>2026-04-23T14:47:34.925Z</time></trkpt><trkpt lat="31.15962" lon="-5.3954783"><ele>1437.0</ele><time>2026-04-23T14:47:35.925Z</time></trkpt><trkpt lat="31.1597133" lon="-5.3954483"><ele>1437.0</ele><time>2026-04-23T14:47:36.925Z</time></trkpt><trkpt lat="31.159805" lon="-5.395415"><ele>1437.0</ele><time>2026-04-23T14:47:37.924Z</time></trkpt><trkpt lat="31.1598917" lon="-5.3953667"><ele>1437.6</ele><time>2026-04-23T14:47:38.924Z</time></trkpt><trkpt lat="31.159975" lon="-5.3953233"><ele>1438.1999999999998</ele><time>2026-04-23T14:47:39.925Z</time></trkpt><trkpt lat="31.1600683" lon="-5.3952767"><ele>1438.8</ele><time>2026-04-23T14:47:40.924Z</time></trkpt><trkpt lat="31.160175" lon="-5.3952233"><ele>1439.4</ele><time>2026-04-23T14:47:41.924Z</time></trkpt><trkpt lat="31.1602817" lon="-5.3951767"><ele>1440.0</ele><time>2026-04-23T14:47:42.924Z</time></trkpt><trkpt lat="31.160395" lon="-5.3951283"><ele>1440.0</ele><time>2026-04-23T14:47:43.925Z</time></trkpt><trkpt lat="31.160505" lon="-5.3950733"><ele>1440.0</ele><time>2026-04-23T14:47:44.925Z</time></trkpt><trkpt lat="31.1605933" lon="-5.3950367"><ele>1440.0</ele><time>2026-04-23T14:47:45.925Z</time></trkpt><trkpt lat="31.1606817" lon="-5.395"><ele>1440.0</ele><time>2026-04-23T14:47:46.924Z</time></trkpt><trkpt lat="31.16076" lon="-5.394955"><ele>1440.0</ele><time>2026-04-23T14:47:47.925Z</time></trkpt><trkpt lat="31.1608317" lon="-5.3949067"><ele>1440.2857142857142</ele><time>2026-04-23T14:47:48.925Z</time></trkpt><trkpt lat="31.160895" lon="-5.39485"><ele>1440.5714285714287</ele><time>2026-04-23T14:47:49.924Z</time></trkpt><trkpt lat="31.160945" lon="-5.3947917"><ele>1440.857142857143</ele><time>2026-04-23T14:47:50.925Z</time></trkpt><trkpt lat="31.1609817" lon="-5.3947217"><ele>1441.142857142857</ele><time>2026-04-23T14:47:51.924Z</time></trkpt><trkpt lat="31.1610217" lon="-5.3946483"><ele>1441.4285714285716</ele><time>2026-04-23T14:47:52.925Z</time></trkpt><trkpt lat="31.1610533" lon="-5.39458"><ele>1441.7142857142858</ele><time>2026-04-23T14:47:53.924Z</time></trkpt><trkpt lat="31.1610783" lon="-5.394495"><ele>1442.0</ele><time>2026-04-23T14:47:54.925Z</time></trkpt><trkpt lat="31.1610933" lon="-5.3944067"><ele>1442.0</ele><time>2026-04-23T14:47:55.924Z</time></trkpt><trkpt lat="31.1611067" lon="-5.394325"><ele>1442.0</ele><time>2026-04-23T14:47:56.925Z</time></trkpt><trkpt lat="31.1611267" lon="-5.39425"><ele>1442.0</ele><time>2026-04-23T14:47:57.925Z</time></trkpt><trkpt lat="31.1611717" lon="-5.39417"><ele>1442.0</ele><time>2026-04-23T14:47:58.925Z</time></trkpt><trkpt lat="31.1612383" lon="-5.3940767"><ele>1442.0</ele><time>2026-04-23T14:47:59.924Z</time></trkpt><trkpt lat="31.1613067" lon="-5.3939683"><ele>1442.0</ele><time>2026-04-23T14:48:00.925Z</time></trkpt><trkpt lat="31.1613633" lon="-5.3938683"><ele>1441.5</ele><time>2026-04-23T14:48:01.924Z</time></trkpt><trkpt lat="31.1614083" lon="-5.3937817"><ele>1441.0</ele><time>2026-04-23T14:48:02.925Z</time></trkpt><trkpt lat="31.1614533" lon="-5.3936933"><ele>1440.5</ele><time>2026-04-23T14:48:03.924Z</time></trkpt><trkpt lat="31.1614917" lon="-5.3936083"><ele>1440.0</ele><time>2026-04-23T14:48:04.925Z</time></trkpt><trkpt lat="31.1615317" lon="-5.3935283"><ele>1439.5</ele><time>2026-04-23T14:48:05.925Z</time></trkpt><trkpt lat="31.1615683" lon="-5.3934567"><ele>1439.0</ele><time>2026-04-23T14:48:06.925Z</time></trkpt><trkpt lat="31.1615983" lon="-5.3933917"><ele>1439.4</ele><time>2026-04-23T14:48:07.925Z</time></trkpt><trkpt lat="31.16165" lon="-5.393255"><ele>1439.8000000000002</ele><time>2026-04-23T14:48:09.924Z</time></trkpt><trkpt lat="31.1616767" lon="-5.3931867"><ele>1440.1999999999998</ele><time>2026-04-23T14:48:10.924Z</time></trkpt><trkpt lat="31.1617133" lon="-5.393125"><ele>1440.6</ele><time>2026-04-23T14:48:11.925Z</time></trkpt><trkpt lat="31.161815" lon="-5.3930283"><ele>1441.0</ele><time>2026-04-23T14:48:13.925Z</time></trkpt><trkpt lat="31.1618833" lon="-5.39297"><ele>1441.0</ele><time>2026-04-23T14:48:14.925Z</time></trkpt><trkpt lat="31.161955" lon="-5.3929117"><ele>1441.0</ele><time>2026-04-23T14:48:15.925Z</time></trkpt><trkpt lat="31.1620283" lon="-5.39286"><ele>1441.0</ele><time>2026-04-23T14:48:16.925Z</time></trkpt><trkpt lat="31.1621017" lon="-5.3928067"><ele>1441.0</ele><time>2026-04-23T14:48:17.925Z</time></trkpt><trkpt lat="31.162175" lon="-5.3927367"><ele>1441.0</ele><time>2026-04-23T14:48:18.925Z</time></trkpt><trkpt lat="31.1622467" lon="-5.39266"><ele>1441.0</ele><time>2026-04-23T14:48:19.925Z</time></trkpt><trkpt lat="31.1623083" lon="-5.3925817"><ele>1441.0</ele><time>2026-04-23T14:48:20.925Z</time></trkpt><trkpt lat="31.1623617" lon="-5.3925183"><ele>1441.0</ele><time>2026-04-23T14:48:21.924Z</time></trkpt><trkpt lat="31.1624133" lon="-5.3924717"><ele>1441.0</ele><time>2026-04-23T14:48:22.924Z</time></trkpt><trkpt lat="31.1624733" lon="-5.3924033"><ele>1441.0</ele><time>2026-04-23T14:48:24.924Z</time></trkpt><trkpt lat="31.16248" lon="-5.3923283"><ele>1441.0</ele><time>2026-04-23T14:48:26.925Z</time></trkpt><trkpt lat="31.162445" lon="-5.3922567"><ele>1441.0</ele><time>2026-04-23T14:48:28.924Z</time></trkpt><trkpt lat="31.16236" lon="-5.3922083"><ele>1441.0</ele><time>2026-04-23T14:48:30.925Z</time></trkpt><trkpt lat="31.1622417" lon="-5.3921783"><ele>1441.0</ele><time>2026-04-23T14:48:32.925Z</time></trkpt><trkpt lat="31.1621667" lon="-5.3921133"><ele>1441.0</ele><time>2026-04-23T14:48:34.925Z</time></trkpt><trkpt lat="31.1621267" lon="-5.3920283"><ele>1441.0</ele><time>2026-04-23T14:48:36.925Z</time></trkpt><trkpt lat="31.1621383" lon="-5.3919367"><ele>1440.8</ele><time>2026-04-23T14:48:38.925Z</time></trkpt><trkpt lat="31.1621917" lon="-5.391785"><ele>1440.6</ele><time>2026-04-23T14:48:40.925Z</time></trkpt><trkpt lat="31.1622217" lon="-5.3916833"><ele>1440.4</ele><time>2026-04-23T14:48:41.925Z</time></trkpt><trkpt lat="31.16226" lon="-5.3915733"><ele>1440.2</ele><time>2026-04-23T14:48:42.924Z</time></trkpt><trkpt lat="31.1623017" lon="-5.3914717"><ele>1440.0</ele><time>2026-04-23T14:48:43.925Z</time></trkpt><trkpt lat="31.1623317" lon="-5.3913733"><ele>1440.8333333333333</ele><time>2026-04-23T14:48:44.925Z</time></trkpt><trkpt lat="31.1623633" lon="-5.3912833"><ele>1441.6666666666667</ele><time>2026-04-23T14:48:45.925Z</time></trkpt><trkpt lat="31.1623967" lon="-5.39119"><ele>1442.5</ele><time>2026-04-23T14:48:46.924Z</time></trkpt><trkpt lat="31.1624483" lon="-5.3911017"><ele>1443.3333333333335</ele><time>2026-04-23T14:48:47.925Z</time></trkpt><trkpt lat="31.1624933" lon="-5.3910233"><ele>1444.1666666666667</ele><time>2026-04-23T14:48:48.925Z</time></trkpt><trkpt lat="31.1625267" lon="-5.3909433"><ele>1445.0</ele><time>2026-04-23T14:48:49.925Z</time></trkpt><trkpt lat="31.162545" lon="-5.3908683"><ele>1445.0</ele><time>2026-04-23T14:48:50.924Z</time></trkpt><trkpt lat="31.16256" lon="-5.39079"><ele>1445.0</ele><time>2026-04-23T14:48:51.925Z</time></trkpt><trkpt lat="31.1625867" lon="-5.390685"><ele>1445.0</ele><time>2026-04-23T14:48:52.925Z</time></trkpt><trkpt lat="31.1626267" lon="-5.3905683"><ele>1445.0</ele><time>2026-04-23T14:48:53.925Z</time></trkpt><trkpt lat="31.1626633" lon="-5.3904467"><ele>1445.0</ele><time>2026-04-23T14:48:54.925Z</time></trkpt><trkpt lat="31.1627033" lon="-5.390325"><ele>1444.3333333333335</ele><time>2026-04-23T14:48:55.925Z</time></trkpt><trkpt lat="31.162725" lon="-5.39021"><ele>1443.6666666666667</ele><time>2026-04-23T14:48:56.925Z</time></trkpt><trkpt lat="31.16273" lon="-5.3901067"><ele>1443.0</ele><time>2026-04-23T14:48:57.924Z</time></trkpt><trkpt lat="31.1627433" lon="-5.39001"><ele>1442.3333333333333</ele><time>2026-04-23T14:48:58.925Z</time></trkpt><trkpt lat="31.1627633" lon="-5.3899267"><ele>1441.6666666666665</ele><time>2026-04-23T14:48:59.924Z</time></trkpt><trkpt lat="31.1627967" lon="-5.3898433"><ele>1441.0</ele><time>2026-04-23T14:49:00.925Z</time></trkpt><trkpt lat="31.1628317" lon="-5.3897467"><ele>1442.3333333333333</ele><time>2026-04-23T14:49:01.925Z</time></trkpt><trkpt lat="31.16286" lon="-5.3896533"><ele>1443.6666666666665</ele><time>2026-04-23T14:49:02.925Z</time></trkpt><trkpt lat="31.1628767" lon="-5.38956"><ele>1445.0</ele><time>2026-04-23T14:49:03.925Z</time></trkpt><trkpt lat="31.1628983" lon="-5.3894817"><ele>1446.3333333333333</ele><time>2026-04-23T14:49:04.925Z</time></trkpt><trkpt lat="31.1629567" lon="-5.3893583"><ele>1447.6666666666667</ele><time>2026-04-23T14:49:06.924Z</time></trkpt><trkpt lat="31.1630067" lon="-5.3893083"><ele>1449.0</ele><time>2026-04-23T14:49:07.925Z</time></trkpt><trkpt lat="31.163125" lon="-5.3892383"><ele>1449.0</ele><time>2026-04-23T14:49:09.925Z</time></trkpt><trkpt lat="31.1631833" lon="-5.3892033"><ele>1449.0</ele><time>2026-04-23T14:49:10.925Z</time></trkpt><trkpt lat="31.163245" lon="-5.38912"><ele>1449.0</ele><time>2026-04-23T14:49:12.924Z</time></trkpt><trkpt lat="31.163255" lon="-5.389025"><ele>1449.0</ele><time>2026-04-23T14:49:14.925Z</time></trkpt><trkpt lat="31.1632067" lon="-5.3889217"><ele>1449.0</ele><time>2026-04-23T14:49:16.925Z</time></trkpt><trkpt lat="31.16313" lon="-5.38884"><ele>1449.0</ele><time>2026-04-23T14:49:18.925Z</time></trkpt><trkpt lat="31.1630783" lon="-5.3887683"><ele>1451.0</ele><time>2026-04-23T14:49:20.925Z</time></trkpt><trkpt lat="31.1631017" lon="-5.3886983"><ele>1453.0</ele><time>2026-04-23T14:49:22.925Z</time></trkpt><trkpt lat="31.1631783" lon="-5.388645"><ele>1455.0</ele><time>2026-04-23T14:49:24.925Z</time></trkpt><trkpt lat="31.1633017" lon="-5.388625"><ele>1457.0</ele><time>2026-04-23T14:49:26.925Z</time></trkpt><trkpt lat="31.163365" lon="-5.3886217"><ele>1459.0</ele><time>2026-04-23T14:49:27.925Z</time></trkpt><trkpt lat="31.16347" lon="-5.38859"><ele>1459.0</ele><time>2026-04-23T14:49:29.925Z</time></trkpt><trkpt lat="31.163545" lon="-5.3885033"><ele>1459.0</ele><time>2026-04-23T14:49:31.925Z</time></trkpt><trkpt lat="31.1636167" lon="-5.38839"><ele>1459.0</ele><time>2026-04-23T14:49:33.925Z</time></trkpt><trkpt lat="31.16366" lon="-5.3883217"><ele>1459.0</ele><time>2026-04-23T14:49:34.925Z</time></trkpt><trkpt lat="31.1637067" lon="-5.3882583"><ele>1459.0</ele><time>2026-04-23T14:49:35.925Z</time></trkpt><trkpt lat="31.16375" lon="-5.3881983"><ele>1459.0</ele><time>2026-04-23T14:49:36.924Z</time></trkpt><trkpt lat="31.1637917" lon="-5.3881367"><ele>1458.9999999999998</ele><time>2026-04-23T14:49:37.925Z</time></trkpt><trkpt lat="31.1638233" lon="-5.3880683"><ele>1459.0</ele><time>2026-04-23T14:49:38.925Z</time></trkpt><trkpt lat="31.16385" lon="-5.3879983"><ele>1459.0</ele><time>2026-04-23T14:49:39.924Z</time></trkpt><trkpt lat="31.1638733" lon="-5.3879267"><ele>1459.0</ele><time>2026-04-23T14:49:40.925Z</time></trkpt><trkpt lat="31.1639" lon="-5.3878517"><ele>1459.0</ele><time>2026-04-23T14:49:41.925Z</time></trkpt><trkpt lat="31.1639233" lon="-5.387775"><ele>1458.9999999999998</ele><time>2026-04-23T14:49:42.925Z</time></trkpt><trkpt lat="31.1639467" lon="-5.3876967"><ele>1459.0</ele><time>2026-04-23T14:49:43.924Z</time></trkpt><trkpt lat="31.1639683" lon="-5.387625"><ele>1460.142857142857</ele><time>2026-04-23T14:49:44.924Z</time></trkpt><trkpt lat="31.163995" lon="-5.387555"><ele>1461.2857142857142</ele><time>2026-04-23T14:49:45.925Z</time></trkpt><trkpt lat="31.1640333" lon="-5.3874867"><ele>1462.4285714285716</ele><time>2026-04-23T14:49:46.925Z</time></trkpt><trkpt lat="31.164065" lon="-5.38742"><ele>1463.5714285714284</ele><time>2026-04-23T14:49:47.925Z</time></trkpt><trkpt lat="31.1640983" lon="-5.3873517"><ele>1464.7142857142858</ele><time>2026-04-23T14:49:48.924Z</time></trkpt><trkpt lat="31.164145" lon="-5.3872983"><ele>1465.857142857143</ele><time>2026-04-23T14:49:49.925Z</time></trkpt><trkpt lat="31.1642017" lon="-5.3872433"><ele>1467.0</ele><time>2026-04-23T14:49:50.925Z</time></trkpt><trkpt lat="31.1642533" lon="-5.3871967"><ele>1470.3333333333333</ele><time>2026-04-23T14:49:51.925Z</time></trkpt><trkpt lat="31.16431" lon="-5.387145"><ele>1473.6666666666667</ele><time>2026-04-23T14:49:52.925Z</time></trkpt><trkpt lat="31.1643683" lon="-5.3870983"><ele>1477.0</ele><time>2026-04-23T14:49:53.925Z</time></trkpt><trkpt lat="31.1644117" lon="-5.387045"><ele>1480.3333333333335</ele><time>2026-04-23T14:49:54.924Z</time></trkpt><trkpt lat="31.1644867" lon="-5.38692"><ele>1483.6666666666667</ele><time>2026-04-23T14:49:56.924Z</time></trkpt><trkpt lat="31.164535" lon="-5.3868433"><ele>1487.0</ele><time>2026-04-23T14:49:57.925Z</time></trkpt><trkpt lat="31.1645833" lon="-5.38678"><ele>1487.0</ele><time>2026-04-23T14:49:58.925Z</time></trkpt><trkpt lat="31.1646833" lon="-5.3866717"><ele>1487.0</ele><time>2026-04-23T14:50:00.924Z</time></trkpt><trkpt lat="31.1647333" lon="-5.38661"><ele>1487.0</ele><time>2026-04-23T14:50:01.925Z</time></trkpt><trkpt lat="31.164785" lon="-5.3865483"><ele>1487.0</ele><time>2026-04-23T14:50:02.925Z</time></trkpt><trkpt lat="31.1648467" lon="-5.386485"><ele>1487.0</ele><time>2026-04-23T14:50:03.925Z</time></trkpt><trkpt lat="31.1649267" lon="-5.3864133"><ele>1488.6</ele><time>2026-04-23T14:50:04.925Z</time></trkpt><trkpt lat="31.1650133" lon="-5.3863467"><ele>1490.1999999999998</ele><time>2026-04-23T14:50:05.925Z</time></trkpt><trkpt lat="31.1651" lon="-5.3862883"><ele>1491.8</ele><time>2026-04-23T14:50:06.924Z</time></trkpt><trkpt lat="31.1651833" lon="-5.386215"><ele>1493.4</ele><time>2026-04-23T14:50:07.924Z</time></trkpt><trkpt lat="31.1652667" lon="-5.3861417"><ele>1495.0</ele><time>2026-04-23T14:50:08.925Z</time></trkpt><trkpt lat="31.1653467" lon="-5.3860733"><ele>1495.0</ele><time>2026-04-23T14:50:09.925Z</time></trkpt><trkpt lat="31.165415" lon="-5.3860317"><ele>1495.0</ele><time>2026-04-23T14:50:10.925Z</time></trkpt><trkpt lat="31.1654867" lon="-5.3860083"><ele>1495.0</ele><time>2026-04-23T14:50:11.925Z</time></trkpt><trkpt lat="31.16557" lon="-5.38599"><ele>1495.0</ele><time>2026-04-23T14:50:12.924Z</time></trkpt><trkpt lat="31.1656517" lon="-5.385975"><ele>1495.0</ele><time>2026-04-23T14:50:13.924Z</time></trkpt><trkpt lat="31.1657183" lon="-5.3859533"><ele>1495.0</ele><time>2026-04-23T14:50:14.925Z</time></trkpt><trkpt lat="31.165825" lon="-5.385895"><ele>1492.4</ele><time>2026-04-23T14:50:16.925Z</time></trkpt><trkpt lat="31.165905" lon="-5.3858217"><ele>1489.8</ele><time>2026-04-23T14:50:18.924Z</time></trkpt><trkpt lat="31.1659533" lon="-5.3857667"><ele>1487.1999999999998</ele><time>2026-04-23T14:50:19.925Z</time></trkpt><trkpt lat="31.1660233" lon="-5.3856983"><ele>1484.6</ele><time>2026-04-23T14:50:20.925Z</time></trkpt><trkpt lat="31.166115" lon="-5.3856283"><ele>1482.0</ele><time>2026-04-23T14:50:21.925Z</time></trkpt><trkpt lat="31.1662067" lon="-5.3855717"><ele>1482.0</ele><time>2026-04-23T14:50:22.925Z</time></trkpt><trkpt lat="31.1663083" lon="-5.3855217"><ele>1482.0</ele><time>2026-04-23T14:50:23.924Z</time></trkpt><trkpt lat="31.1664017" lon="-5.38548"><ele>1482.0</ele><time>2026-04-23T14:50:24.925Z</time></trkpt><trkpt lat="31.166485" lon="-5.3854517"><ele>1482.0</ele><time>2026-04-23T14:50:25.925Z</time></trkpt><trkpt lat="31.1665717" lon="-5.3854217"><ele>1482.0</ele><time>2026-04-23T14:50:26.924Z</time></trkpt><trkpt lat="31.1666483" lon="-5.38538"><ele>1483.3333333333333</ele><time>2026-04-23T14:50:27.924Z</time></trkpt><trkpt lat="31.16672" lon="-5.3853367"><ele>1484.6666666666667</ele><time>2026-04-23T14:50:28.924Z</time></trkpt><trkpt lat="31.16679" lon="-5.385285"><ele>1486.0</ele><time>2026-04-23T14:50:29.924Z</time></trkpt><trkpt lat="31.16686" lon="-5.3852283"><ele>1487.3333333333335</ele><time>2026-04-23T14:50:30.924Z</time></trkpt><trkpt lat="31.16691" lon="-5.3851633"><ele>1488.6666666666667</ele><time>2026-04-23T14:50:31.924Z</time></trkpt><trkpt lat="31.166955" lon="-5.3850883"><ele>1490.0</ele><time>2026-04-23T14:50:32.924Z</time></trkpt><trkpt lat="31.1669933" lon="-5.385005"><ele>1490.0</ele><time>2026-04-23T14:50:33.923Z</time></trkpt><trkpt lat="31.1670417" lon="-5.384915"><ele>1490.0</ele><time>2026-04-23T14:50:34.924Z</time></trkpt><trkpt lat="31.1671117" lon="-5.384835"><ele>1490.0</ele><time>2026-04-23T14:50:35.924Z</time></trkpt><trkpt lat="31.1671767" lon="-5.3847617"><ele>1490.0</ele><time>2026-04-23T14:50:36.924Z</time></trkpt><trkpt lat="31.1672367" lon="-5.384685"><ele>1490.0</ele><time>2026-04-23T14:50:37.924Z</time></trkpt><trkpt lat="31.1672983" lon="-5.3846033"><ele>1491.4</ele><time>2026-04-23T14:50:38.924Z</time></trkpt><trkpt lat="31.1673717" lon="-5.3845183"><ele>1492.8</ele><time>2026-04-23T14:50:39.924Z</time></trkpt><trkpt lat="31.1674467" lon="-5.38444"><ele>1494.1999999999998</ele><time>2026-04-23T14:50:40.924Z</time></trkpt><trkpt lat="31.1675217" lon="-5.3843583"><ele>1495.6</ele><time>2026-04-23T14:50:41.924Z</time></trkpt><trkpt lat="31.167595" lon="-5.3842783"><ele>1497.0</ele><time>2026-04-23T14:50:42.923Z</time></trkpt><trkpt lat="31.167675" lon="-5.3842133"><ele>1497.0</ele><time>2026-04-23T14:50:43.924Z</time></trkpt><trkpt lat="31.16776" lon="-5.3841617"><ele>1497.0</ele><time>2026-04-23T14:50:44.923Z</time></trkpt><trkpt lat="31.16784" lon="-5.384105"><ele>1497.0</ele><time>2026-04-23T14:50:45.924Z</time></trkpt><trkpt lat="31.1679233" lon="-5.3840433"><ele>1497.0</ele><time>2026-04-23T14:50:46.923Z</time></trkpt><trkpt lat="31.1680033" lon="-5.383985"><ele>1497.0</ele><time>2026-04-23T14:50:47.924Z</time></trkpt><trkpt lat="31.1680883" lon="-5.3839383"><ele>1497.0</ele><time>2026-04-23T14:50:48.924Z</time></trkpt><trkpt lat="31.1681583" lon="-5.383915"><ele>1497.0</ele><time>2026-04-23T14:50:49.923Z</time></trkpt><trkpt lat="31.1682217" lon="-5.383915"><ele>1497.0</ele><time>2026-04-23T14:50:50.923Z</time></trkpt><trkpt lat="31.168285" lon="-5.3839283"><ele>1497.0</ele><time>2026-04-23T14:50:51.923Z</time></trkpt><trkpt lat="31.168355" lon="-5.3839567"><ele>1497.0</ele><time>2026-04-23T14:50:52.923Z</time></trkpt><trkpt lat="31.1684333" lon="-5.3839833"><ele>1497.0</ele><time>2026-04-23T14:50:53.924Z</time></trkpt><trkpt lat="31.168515" lon="-5.384015"><ele>1497.0</ele><time>2026-04-23T14:50:54.923Z</time></trkpt><trkpt lat="31.1685917" lon="-5.3840567"><ele>1497.5</ele><time>2026-04-23T14:50:55.924Z</time></trkpt><trkpt lat="31.1686733" lon="-5.3841033"><ele>1498.0</ele><time>2026-04-23T14:50:56.924Z</time></trkpt><trkpt lat="31.16875" lon="-5.3841517"><ele>1498.5</ele><time>2026-04-23T14:50:57.923Z</time></trkpt><trkpt lat="31.168815" lon="-5.38418"><ele>1499.0</ele><time>2026-04-23T14:50:58.924Z</time></trkpt><trkpt lat="31.1689217" lon="-5.3841967"><ele>1499.5</ele><time>2026-04-23T14:51:00.924Z</time></trkpt><trkpt lat="31.168995" lon="-5.3841583"><ele>1500.0</ele><time>2026-04-23T14:51:02.924Z</time></trkpt><trkpt lat="31.1690417" lon="-5.3840983"><ele>1500.5714285714287</ele><time>2026-04-23T14:51:05.924Z</time></trkpt><trkpt lat="31.1690867" lon="-5.38404"><ele>1501.142857142857</ele><time>2026-04-23T14:51:07.924Z</time></trkpt><trkpt lat="31.1691367" lon="-5.383985"><ele>1501.7142857142858</ele><time>2026-04-23T14:51:09.924Z</time></trkpt><trkpt lat="31.16919" lon="-5.3839433"><ele>1502.2857142857142</ele><time>2026-04-23T14:51:11.924Z</time></trkpt><trkpt lat="31.1692483" lon="-5.3838967"><ele>1502.8571428571427</ele><time>2026-04-23T14:51:13.924Z</time></trkpt><trkpt lat="31.1693183" lon="-5.3838367"><ele>1503.4285714285713</ele><time>2026-04-23T14:51:16.924Z</time></trkpt><trkpt lat="31.1693783" lon="-5.38377"><ele>1504.0</ele><time>2026-04-23T14:51:19.923Z</time></trkpt><trkpt lat="31.169395" lon="-5.383665"><ele>1502.2</ele><time>2026-04-23T14:51:22.923Z</time></trkpt><trkpt lat="31.169375" lon="-5.38357"><ele>1500.4</ele><time>2026-04-23T14:51:24.924Z</time></trkpt><trkpt lat="31.1693567" lon="-5.3834733"><ele>1498.6</ele><time>2026-04-23T14:51:26.924Z</time></trkpt><trkpt lat="31.1693683" lon="-5.3833633"><ele>1496.8</ele><time>2026-04-23T14:51:28.924Z</time></trkpt><trkpt lat="31.1694417" lon="-5.3832717"><ele>1495.0</ele><time>2026-04-23T14:51:30.924Z</time></trkpt><trkpt lat="31.1695317" lon="-5.383185"><ele>1495.0</ele><time>2026-04-23T14:51:32.924Z</time></trkpt><trkpt lat="31.169595" lon="-5.3830817"><ele>1495.0</ele><time>2026-04-23T14:51:34.924Z</time></trkpt><trkpt lat="31.16967" lon="-5.3829767"><ele>1495.0</ele><time>2026-04-23T14:51:36.924Z</time></trkpt><trkpt lat="31.169715" lon="-5.3829167"><ele>1495.0</ele><time>2026-04-23T14:51:37.923Z</time></trkpt><trkpt lat="31.1698117" lon="-5.3828217"><ele>1495.0</ele><time>2026-04-23T14:51:39.923Z</time></trkpt><trkpt lat="31.1698483" lon="-5.3827617"><ele>1493.6666666666665</ele><time>2026-04-23T14:51:40.924Z</time></trkpt><trkpt lat="31.1698717" lon="-5.38268"><ele>1492.3333333333333</ele><time>2026-04-23T14:51:41.923Z</time></trkpt><trkpt lat="31.169885" lon="-5.3825883"><ele>1491.0</ele><time>2026-04-23T14:51:42.924Z</time></trkpt><trkpt lat="31.1698917" lon="-5.3825"><ele>1489.6666666666667</ele><time>2026-04-23T14:51:43.924Z</time></trkpt><trkpt lat="31.1698983" lon="-5.3824133"><ele>1488.3333333333335</ele><time>2026-04-23T14:51:44.924Z</time></trkpt><trkpt lat="31.169915" lon="-5.3823233"><ele>1487.0</ele><time>2026-04-23T14:51:45.923Z</time></trkpt><trkpt lat="31.1699767" lon="-5.3821833"><ele>1486.6666666666667</ele><time>2026-04-23T14:51:47.924Z</time></trkpt><trkpt lat="31.1700217" lon="-5.3820967"><ele>1486.3333333333335</ele><time>2026-04-23T14:51:48.924Z</time></trkpt><trkpt lat="31.1700583" lon="-5.3820083"><ele>1486.0</ele><time>2026-04-23T14:51:49.924Z</time></trkpt><trkpt lat="31.1700933" lon="-5.3819183"><ele>1485.6666666666667</ele><time>2026-04-23T14:51:50.924Z</time></trkpt><trkpt lat="31.170135" lon="-5.3818283"><ele>1485.3333333333333</ele><time>2026-04-23T14:51:51.924Z</time></trkpt><trkpt lat="31.17017" lon="-5.3817417"><ele>1485.0</ele><time>2026-04-23T14:51:52.924Z</time></trkpt><trkpt lat="31.1702017" lon="-5.3816633"><ele>1485.0</ele><time>2026-04-23T14:51:53.924Z</time></trkpt><trkpt lat="31.1702417" lon="-5.381595"><ele>1485.0</ele><time>2026-04-23T14:51:54.924Z</time></trkpt><trkpt lat="31.1702817" lon="-5.3815217"><ele>1485.0</ele><time>2026-04-23T14:51:55.924Z</time></trkpt><trkpt lat="31.1703317" lon="-5.3814467"><ele>1485.0</ele><time>2026-04-23T14:51:56.924Z</time></trkpt><trkpt lat="31.1703933" lon="-5.3813833"><ele>1485.0</ele><time>2026-04-23T14:51:57.924Z</time></trkpt><trkpt lat="31.17046" lon="-5.381315"><ele>1485.0</ele><time>2026-04-23T14:51:58.923Z</time></trkpt><trkpt lat="31.1705283" lon="-5.381255"><ele>1485.6</ele><time>2026-04-23T14:51:59.924Z</time></trkpt><trkpt lat="31.1705933" lon="-5.3812033"><ele>1486.2</ele><time>2026-04-23T14:52:00.924Z</time></trkpt><trkpt lat="31.17067" lon="-5.3811467"><ele>1486.8000000000002</ele><time>2026-04-23T14:52:01.923Z</time></trkpt><trkpt lat="31.1707517" lon="-5.38108"><ele>1487.4</ele><time>2026-04-23T14:52:02.924Z</time></trkpt><trkpt lat="31.1708267" lon="-5.381015"><ele>1488.0</ele><time>2026-04-23T14:52:03.924Z</time></trkpt><trkpt lat="31.1708917" lon="-5.380945"><ele>1486.8333333333333</ele><time>2026-04-23T14:52:04.924Z</time></trkpt><trkpt lat="31.1709533" lon="-5.3808883"><ele>1485.6666666666667</ele><time>2026-04-23T14:52:05.924Z</time></trkpt><trkpt lat="31.171015" lon="-5.380835"><ele>1484.5</ele><time>2026-04-23T14:52:06.924Z</time></trkpt><trkpt lat="31.1710833" lon="-5.38078"><ele>1483.3333333333335</ele><time>2026-04-23T14:52:07.923Z</time></trkpt><trkpt lat="31.171155" lon="-5.3807333"><ele>1482.1666666666667</ele><time>2026-04-23T14:52:08.924Z</time></trkpt><trkpt lat="31.1712317" lon="-5.3806433"><ele>1481.0</ele><time>2026-04-23T14:52:10.923Z</time></trkpt><trkpt lat="31.171265" lon="-5.38055"><ele>1482.0</ele><time>2026-04-23T14:52:12.924Z</time></trkpt><trkpt lat="31.1712867" lon="-5.3804167"><ele>1483.0</ele><time>2026-04-23T14:52:14.924Z</time></trkpt><trkpt lat="31.1713317" lon="-5.38029"><ele>1484.0</ele><time>2026-04-23T14:52:16.924Z</time></trkpt><trkpt lat="31.1713833" lon="-5.38023"><ele>1485.0</ele><time>2026-04-23T14:52:17.924Z</time></trkpt><trkpt lat="31.1714367" lon="-5.3801767"><ele>1486.0</ele><time>2026-04-23T14:52:18.924Z</time></trkpt><trkpt lat="31.1714983" lon="-5.3801233"><ele>1484.5</ele><time>2026-04-23T14:52:19.924Z</time></trkpt><trkpt lat="31.1715483" lon="-5.3800633"><ele>1483.0</ele><time>2026-04-23T14:52:20.924Z</time></trkpt><trkpt lat="31.171595" lon="-5.3800033"><ele>1481.5</ele><time>2026-04-23T14:52:21.923Z</time></trkpt><trkpt lat="31.1716583" lon="-5.3799333"><ele>1480.0</ele><time>2026-04-23T14:52:22.924Z</time></trkpt><trkpt lat="31.1717283" lon="-5.3798733"><ele>1478.5</ele><time>2026-04-23T14:52:23.924Z</time></trkpt><trkpt lat="31.1718017" lon="-5.3798233"><ele>1477.0</ele><time>2026-04-23T14:52:24.923Z</time></trkpt><trkpt lat="31.171865" lon="-5.3797767"><ele>1477.0</ele><time>2026-04-23T14:52:25.924Z</time></trkpt><trkpt lat="31.1719233" lon="-5.379735"><ele>1477.0</ele><time>2026-04-23T14:52:26.924Z</time></trkpt><trkpt lat="31.171975" lon="-5.3796917"><ele>1477.0</ele><time>2026-04-23T14:52:27.924Z</time></trkpt><trkpt lat="31.172015" lon="-5.37963"><ele>1477.0</ele><time>2026-04-23T14:52:28.924Z</time></trkpt><trkpt lat="31.172055" lon="-5.3795483"><ele>1477.0</ele><time>2026-04-23T14:52:29.924Z</time></trkpt><trkpt lat="31.17209" lon="-5.3794617"><ele>1477.0</ele><time>2026-04-23T14:52:30.924Z</time></trkpt><trkpt lat="31.172135" lon="-5.3793617"><ele>1477.0</ele><time>2026-04-23T14:52:31.924Z</time></trkpt><trkpt lat="31.17217" lon="-5.3792617"><ele>1477.0</ele><time>2026-04-23T14:52:32.924Z</time></trkpt><trkpt lat="31.1722017" lon="-5.3791633"><ele>1477.0</ele><time>2026-04-23T14:52:33.923Z</time></trkpt><trkpt lat="31.1722333" lon="-5.379065"><ele>1477.0</ele><time>2026-04-23T14:52:34.924Z</time></trkpt><trkpt lat="31.172265" lon="-5.37895"><ele>1477.0</ele><time>2026-04-23T14:52:35.924Z</time></trkpt><trkpt lat="31.1723033" lon="-5.37882"><ele>1477.3999999999999</ele><time>2026-04-23T14:52:36.924Z</time></trkpt><trkpt lat="31.172335" lon="-5.37868"><ele>1477.8</ele><time>2026-04-23T14:52:37.923Z</time></trkpt><trkpt lat="31.1723567" lon="-5.378555"><ele>1478.2</ele><time>2026-04-23T14:52:38.923Z</time></trkpt><trkpt lat="31.1723633" lon="-5.37843"><ele>1478.6</ele><time>2026-04-23T14:52:39.924Z</time></trkpt><trkpt lat="31.1723667" lon="-5.3783167"><ele>1479.0</ele><time>2026-04-23T14:52:40.924Z</time></trkpt><trkpt lat="31.1723783" lon="-5.3782117"><ele>1477.6666666666667</ele><time>2026-04-23T14:52:41.923Z</time></trkpt><trkpt lat="31.1724033" lon="-5.37813"><ele>1476.3333333333333</ele><time>2026-04-23T14:52:42.924Z</time></trkpt><trkpt lat="31.1724483" lon="-5.37805"><ele>1475.0</ele><time>2026-04-23T14:52:43.924Z</time></trkpt><trkpt lat="31.1725" lon="-5.3779567"><ele>1473.6666666666665</ele><time>2026-04-23T14:52:44.924Z</time></trkpt><trkpt lat="31.172555" lon="-5.3778617"><ele>1472.3333333333333</ele><time>2026-04-23T14:52:45.924Z</time></trkpt><trkpt lat="31.1726117" lon="-5.3777767"><ele>1471.0</ele><time>2026-04-23T14:52:46.924Z</time></trkpt><trkpt lat="31.1726733" lon="-5.3777017"><ele>1471.0</ele><time>2026-04-23T14:52:47.924Z</time></trkpt><trkpt lat="31.1727383" lon="-5.3776333"><ele>1471.0</ele><time>2026-04-23T14:52:48.924Z</time></trkpt><trkpt lat="31.1727833" lon="-5.37756"><ele>1471.0</ele><time>2026-04-23T14:52:49.924Z</time></trkpt><trkpt lat="31.17282" lon="-5.3774867"><ele>1471.0</ele><time>2026-04-23T14:52:50.923Z</time></trkpt><trkpt lat="31.1728483" lon="-5.3774017"><ele>1471.0</ele><time>2026-04-23T14:52:51.924Z</time></trkpt><trkpt lat="31.172875" lon="-5.3773233"><ele>1471.0</ele><time>2026-04-23T14:52:52.923Z</time></trkpt><trkpt lat="31.17291" lon="-5.3772533"><ele>1471.0</ele><time>2026-04-23T14:52:53.924Z</time></trkpt><trkpt lat="31.172965" lon="-5.3772"><ele>1471.0</ele><time>2026-04-23T14:52:54.924Z</time></trkpt><trkpt lat="31.1730283" lon="-5.3771617"><ele>1471.0</ele><time>2026-04-23T14:52:55.924Z</time></trkpt><trkpt lat="31.1731" lon="-5.3771283"><ele>1471.0</ele><time>2026-04-23T14:52:56.924Z</time></trkpt><trkpt lat="31.1731683" lon="-5.37711"><ele>1471.0</ele><time>2026-04-23T14:52:57.923Z</time></trkpt><trkpt lat="31.173245" lon="-5.377095"><ele>1471.0</ele><time>2026-04-23T14:52:58.924Z</time></trkpt><trkpt lat="31.1733233" lon="-5.377085"><ele>1471.0</ele><time>2026-04-23T14:52:59.923Z</time></trkpt><trkpt lat="31.173395" lon="-5.3770517"><ele>1469.8333333333333</ele><time>2026-04-23T14:53:00.924Z</time></trkpt><trkpt lat="31.1734633" lon="-5.3770033"><ele>1468.6666666666665</ele><time>2026-04-23T14:53:01.923Z</time></trkpt><trkpt lat="31.1735217" lon="-5.376945"><ele>1467.5</ele><time>2026-04-23T14:53:02.924Z</time></trkpt><trkpt lat="31.173575" lon="-5.376875"><ele>1466.3333333333333</ele><time>2026-04-23T14:53:03.923Z</time></trkpt><trkpt lat="31.1736217" lon="-5.376815"><ele>1465.1666666666667</ele><time>2026-04-23T14:53:04.924Z</time></trkpt><trkpt lat="31.1736983" lon="-5.3767433"><ele>1464.0</ele><time>2026-04-23T14:53:06.923Z</time></trkpt><trkpt lat="31.1737533" lon="-5.3767017"><ele>1464.0</ele><time>2026-04-23T14:54:03.924Z</time></trkpt><trkpt lat="31.1738233" lon="-5.376615"><ele>1464.0</ele><time>2026-04-23T14:54:05.924Z</time></trkpt><trkpt lat="31.1739133" lon="-5.3765433"><ele>1464.0</ele><time>2026-04-23T14:54:07.924Z</time></trkpt><trkpt lat="31.1740267" lon="-5.3764783"><ele>1464.0</ele><time>2026-04-23T14:54:09.923Z</time></trkpt><trkpt lat="31.1740867" lon="-5.3764467"><ele>1464.0</ele><time>2026-04-23T14:54:10.924Z</time></trkpt><trkpt lat="31.17415" lon="-5.3764167"><ele>1463.3333333333333</ele><time>2026-04-23T14:54:11.923Z</time></trkpt><trkpt lat="31.1742117" lon="-5.3763783"><ele>1462.6666666666667</ele><time>2026-04-23T14:54:12.923Z</time></trkpt><trkpt lat="31.1743" lon="-5.3763017"><ele>1462.0</ele><time>2026-04-23T14:54:14.924Z</time></trkpt><trkpt lat="31.1743383" lon="-5.3762167"><ele>1461.3333333333335</ele><time>2026-04-23T14:54:16.923Z</time></trkpt><trkpt lat="31.1743533" lon="-5.3761133"><ele>1460.6666666666667</ele><time>2026-04-23T14:54:18.924Z</time></trkpt><trkpt lat="31.1743617" lon="-5.3760367"><ele>1460.0</ele><time>2026-04-23T14:54:19.924Z</time></trkpt><trkpt lat="31.1743667" lon="-5.37594"><ele>1460.0</ele><time>2026-04-23T14:54:20.924Z</time></trkpt><trkpt lat="31.17438" lon="-5.37584"><ele>1460.0</ele><time>2026-04-23T14:54:21.924Z</time></trkpt><trkpt lat="31.174395" lon="-5.3757383"><ele>1460.0</ele><time>2026-04-23T14:54:22.924Z</time></trkpt><trkpt lat="31.1744083" lon="-5.37565"><ele>1460.0</ele><time>2026-04-23T14:54:23.923Z</time></trkpt><trkpt lat="31.1744367" lon="-5.3755667"><ele>1460.0</ele><time>2026-04-23T14:54:24.924Z</time></trkpt><trkpt lat="31.17448" lon="-5.3754883"><ele>1460.0</ele><time>2026-04-23T14:54:25.924Z</time></trkpt><trkpt lat="31.1745283" lon="-5.3754067"><ele>1460.5</ele><time>2026-04-23T14:54:26.924Z</time></trkpt><trkpt lat="31.17458" lon="-5.375335"><ele>1461.0</ele><time>2026-04-23T14:54:27.923Z</time></trkpt><trkpt lat="31.1746333" lon="-5.3752667"><ele>1461.5</ele><time>2026-04-23T14:54:28.924Z</time></trkpt><trkpt lat="31.1746983" lon="-5.3752117"><ele>1462.0</ele><time>2026-04-23T14:54:29.924Z</time></trkpt><trkpt lat="31.1747617" lon="-5.3751567"><ele>1462.5</ele><time>2026-04-23T14:54:30.924Z</time></trkpt><trkpt lat="31.17482" lon="-5.3750917"><ele>1463.0</ele><time>2026-04-23T14:54:31.924Z</time></trkpt><trkpt lat="31.1748833" lon="-5.3750467"><ele>1461.6666666666667</ele><time>2026-04-23T14:54:32.924Z</time></trkpt><trkpt lat="31.174945" lon="-5.375"><ele>1460.3333333333335</ele><time>2026-04-23T14:54:33.923Z</time></trkpt><trkpt lat="31.175015" lon="-5.3749533"><ele>1459.0</ele><time>2026-04-23T14:54:34.924Z</time></trkpt><trkpt lat="31.1750783" lon="-5.3749083"><ele>1457.6666666666667</ele><time>2026-04-23T14:54:35.923Z</time></trkpt><trkpt lat="31.1751483" lon="-5.3748783"><ele>1456.3333333333333</ele><time>2026-04-23T14:54:36.924Z</time></trkpt><trkpt lat="31.1752183" lon="-5.374855"><ele>1455.0</ele><time>2026-04-23T14:54:37.923Z</time></trkpt><trkpt lat="31.1752917" lon="-5.3748283"><ele>1455.0</ele><time>2026-04-23T14:54:38.923Z</time></trkpt><trkpt lat="31.175355" lon="-5.374795"><ele>1455.0</ele><time>2026-04-23T14:54:39.924Z</time></trkpt><trkpt lat="31.175415" lon="-5.3747583"><ele>1455.0</ele><time>2026-04-23T14:54:40.923Z</time></trkpt><trkpt lat="31.1754733" lon="-5.3747183"><ele>1455.0</ele><time>2026-04-23T14:54:41.923Z</time></trkpt><trkpt lat="31.1755667" lon="-5.37462"><ele>1455.0</ele><time>2026-04-23T14:54:43.924Z</time></trkpt><trkpt lat="31.1756617" lon="-5.3745333"><ele>1454.1666666666667</ele><time>2026-04-23T14:54:45.924Z</time></trkpt><trkpt lat="31.17575" lon="-5.37445"><ele>1453.3333333333333</ele><time>2026-04-23T14:54:47.924Z</time></trkpt><trkpt lat="31.1758017" lon="-5.37439"><ele>1452.5</ele><time>2026-04-23T14:54:48.924Z</time></trkpt><trkpt lat="31.175865" lon="-5.3743217"><ele>1451.6666666666665</ele><time>2026-04-23T14:54:49.924Z</time></trkpt><trkpt lat="31.1759317" lon="-5.37427"><ele>1450.8333333333333</ele><time>2026-04-23T14:54:50.924Z</time></trkpt><trkpt lat="31.1759933" lon="-5.3742117"><ele>1450.0</ele><time>2026-04-23T14:54:51.924Z</time></trkpt><trkpt lat="31.1760417" lon="-5.3741567"><ele>1450.0</ele><time>2026-04-23T14:54:52.923Z</time></trkpt><trkpt lat="31.1761367" lon="-5.3740817"><ele>1450.0</ele><time>2026-04-23T14:54:54.924Z</time></trkpt><trkpt lat="31.176245" lon="-5.374065"><ele>1450.0</ele><time>2026-04-23T14:54:56.923Z</time></trkpt><trkpt lat="31.1763533" lon="-5.37411"><ele>1450.0</ele><time>2026-04-23T14:54:58.923Z</time></trkpt><trkpt lat="31.1764617" lon="-5.374185"><ele>1449.3333333333333</ele><time>2026-04-23T14:55:00.923Z</time></trkpt><trkpt lat="31.17653" lon="-5.3742233"><ele>1448.6666666666665</ele><time>2026-04-23T14:55:01.922Z</time></trkpt><trkpt lat="31.1766" lon="-5.3742517"><ele>1448.0</ele><time>2026-04-23T14:55:02.922Z</time></trkpt><trkpt lat="31.1766583" lon="-5.37428"><ele>1447.3333333333333</ele><time>2026-04-23T14:55:03.922Z</time></trkpt><trkpt lat="31.1767633" lon="-5.3743467"><ele>1446.6666666666667</ele><time>2026-04-23T14:55:05.922Z</time></trkpt><trkpt lat="31.1768583" lon="-5.37442"><ele>1446.0</ele><time>2026-04-23T14:55:07.923Z</time></trkpt><trkpt lat="31.17694" lon="-5.3744667"><ele>1446.0</ele><time>2026-04-23T14:55:09.923Z</time></trkpt><trkpt lat="31.1770333" lon="-5.3744933"><ele>1446.0</ele><time>2026-04-23T14:55:11.923Z</time></trkpt><trkpt lat="31.1771167" lon="-5.3745067"><ele>1446.0</ele><time>2026-04-23T14:55:13.923Z</time></trkpt><trkpt lat="31.1772067" lon="-5.3745317"><ele>1446.0</ele><time>2026-04-23T14:55:15.923Z</time></trkpt><trkpt lat="31.1773" lon="-5.3745767"><ele>1446.0</ele><time>2026-04-23T14:55:17.923Z</time></trkpt><trkpt lat="31.17742" lon="-5.37462"><ele>1445.8</ele><time>2026-04-23T14:55:19.923Z</time></trkpt><trkpt lat="31.1774817" lon="-5.3746517"><ele>1445.6</ele><time>2026-04-23T14:55:20.923Z</time></trkpt><trkpt lat="31.177565" lon="-5.374725"><ele>1445.4</ele><time>2026-04-23T14:55:22.923Z</time></trkpt><trkpt lat="31.17763" lon="-5.3748033"><ele>1445.2</ele><time>2026-04-23T14:55:24.923Z</time></trkpt><trkpt lat="31.17773" lon="-5.3748467"><ele>1445.0</ele><time>2026-04-23T14:55:26.922Z</time></trkpt><trkpt lat="31.1778183" lon="-5.3748317"><ele>1445.0</ele><time>2026-04-23T14:55:28.923Z</time></trkpt><trkpt lat="31.17789" lon="-5.37476"><ele>1445.0</ele><time>2026-04-23T14:55:30.923Z</time></trkpt><trkpt lat="31.177945" lon="-5.3746867"><ele>1445.0</ele><time>2026-04-23T14:55:32.922Z</time></trkpt><trkpt lat="31.1779867" lon="-5.3746283"><ele>1445.0</ele><time>2026-04-23T14:55:34.923Z</time></trkpt><trkpt lat="31.1780617" lon="-5.3745583"><ele>1445.0</ele><time>2026-04-23T14:56:33.923Z</time></trkpt><trkpt lat="31.1781183" lon="-5.3744917"><ele>1445.0</ele><time>2026-04-23T14:56:35.922Z</time></trkpt><trkpt lat="31.1781767" lon="-5.3744317"><ele>1445.2</ele><time>2026-04-23T14:56:37.923Z</time></trkpt><trkpt lat="31.17822" lon="-5.374365"><ele>1445.4</ele><time>2026-04-23T14:56:39.923Z</time></trkpt><trkpt lat="31.1782617" lon="-5.37425"><ele>1445.6</ele><time>2026-04-23T14:58:59.922Z</time></trkpt><trkpt lat="31.1782567" lon="-5.3741633"><ele>1445.8</ele><time>2026-04-23T14:59:01.922Z</time></trkpt><trkpt lat="31.1782317" lon="-5.37405"><ele>1446.0</ele><time>2026-04-23T14:59:03.923Z</time></trkpt><trkpt lat="31.1781817" lon="-5.3739183"><ele>1445.4</ele><time>2026-04-23T14:59:05.923Z</time></trkpt><trkpt lat="31.178145" lon="-5.3738317"><ele>1444.8</ele><time>2026-04-23T14:59:06.923Z</time></trkpt><trkpt lat="31.17811" lon="-5.373745"><ele>1444.2</ele><time>2026-04-23T14:59:07.923Z</time></trkpt><trkpt lat="31.1780717" lon="-5.3736767"><ele>1443.6000000000001</ele><time>2026-04-23T14:59:08.923Z</time></trkpt><trkpt lat="31.1780083" lon="-5.3735717"><ele>1443.0</ele><time>2026-04-23T14:59:10.923Z</time></trkpt><trkpt lat="31.1779667" lon="-5.37343"><ele>1443.0</ele><time>2026-04-23T14:59:12.923Z</time></trkpt><trkpt lat="31.177965" lon="-5.3732967"><ele>1443.0</ele><time>2026-04-23T14:59:14.922Z</time></trkpt><trkpt lat="31.1779917" lon="-5.3731833"><ele>1443.0</ele><time>2026-04-23T14:59:16.923Z</time></trkpt><trkpt lat="31.178025" lon="-5.3730517"><ele>1443.0</ele><time>2026-04-23T14:59:18.923Z</time></trkpt><trkpt lat="31.1780233" lon="-5.372925"><ele>1443.0</ele><time>2026-04-23T14:59:20.922Z</time></trkpt><trkpt lat="31.1780283" lon="-5.3728067"><ele>1443.4</ele><time>2026-04-23T14:59:22.922Z</time></trkpt><trkpt lat="31.17806" lon="-5.3726983"><ele>1443.8000000000002</ele><time>2026-04-23T14:59:24.923Z</time></trkpt><trkpt lat="31.1781267" lon="-5.3726233"><ele>1444.2</ele><time>2026-04-23T14:59:26.923Z</time></trkpt><trkpt lat="31.1782317" lon="-5.3725533"><ele>1444.6</ele><time>2026-04-23T14:59:28.923Z</time></trkpt><trkpt lat="31.17833" lon="-5.372455"><ele>1445.0</ele><time>2026-04-23T14:59:30.922Z</time></trkpt><trkpt lat="31.1783667" lon="-5.3723917"><ele>1445.1666666666667</ele><time>2026-04-23T14:59:31.922Z</time></trkpt><trkpt lat="31.1784117" lon="-5.3722567"><ele>1445.3333333333335</ele><time>2026-04-23T14:59:33.922Z</time></trkpt><trkpt lat="31.1784333" lon="-5.372185"><ele>1445.5</ele><time>2026-04-23T14:59:34.922Z</time></trkpt><trkpt lat="31.1784633" lon="-5.3720967"><ele>1445.6666666666667</ele><time>2026-04-23T14:59:35.921Z</time></trkpt><trkpt lat="31.1784967" lon="-5.3720033"><ele>1445.8333333333333</ele><time>2026-04-23T14:59:36.922Z</time></trkpt><trkpt lat="31.1785333" lon="-5.3719183"><ele>1446.0</ele><time>2026-04-23T14:59:37.922Z</time></trkpt><trkpt lat="31.1785567" lon="-5.3718317"><ele>1445.6666666666667</ele><time>2026-04-23T14:59:38.922Z</time></trkpt><trkpt lat="31.1785783" lon="-5.37174"><ele>1445.3333333333333</ele><time>2026-04-23T14:59:39.922Z</time></trkpt><trkpt lat="31.178605" lon="-5.37165"><ele>1445.0</ele><time>2026-04-23T14:59:40.921Z</time></trkpt><trkpt lat="31.1786417" lon="-5.3715517"><ele>1444.6666666666665</ele><time>2026-04-23T14:59:41.921Z</time></trkpt><trkpt lat="31.1786783" lon="-5.371465"><ele>1444.3333333333333</ele><time>2026-04-23T14:59:42.921Z</time></trkpt><trkpt lat="31.1787117" lon="-5.3713917"><ele>1444.0</ele><time>2026-04-23T14:59:43.922Z</time></trkpt><trkpt lat="31.178745" lon="-5.3713033"><ele>1443.6666666666665</ele><time>2026-04-23T14:59:44.922Z</time></trkpt><trkpt lat="31.1787733" lon="-5.37122"><ele>1443.3333333333333</ele><time>2026-04-23T14:59:45.922Z</time></trkpt><trkpt lat="31.1788033" lon="-5.3711417"><ele>1443.0</ele><time>2026-04-23T14:59:46.922Z</time></trkpt><trkpt lat="31.1788417" lon="-5.3710567"><ele>1442.6666666666667</ele><time>2026-04-23T14:59:47.921Z</time></trkpt><trkpt lat="31.178885" lon="-5.370965"><ele>1442.3333333333335</ele><time>2026-04-23T14:59:48.922Z</time></trkpt><trkpt lat="31.1789283" lon="-5.3708567"><ele>1442.0</ele><time>2026-04-23T14:59:49.922Z</time></trkpt><trkpt lat="31.1789733" lon="-5.3707567"><ele>1442.0</ele><time>2026-04-23T14:59:50.921Z</time></trkpt><trkpt lat="31.17901" lon="-5.3706617"><ele>1442.0</ele><time>2026-04-23T14:59:51.921Z</time></trkpt><trkpt lat="31.1790517" lon="-5.370565"><ele>1442.0</ele><time>2026-04-23T14:59:52.922Z</time></trkpt><trkpt lat="31.1790867" lon="-5.3704717"><ele>1442.0</ele><time>2026-04-23T14:59:53.922Z</time></trkpt><trkpt lat="31.1791233" lon="-5.3703867"><ele>1442.0</ele><time>2026-04-23T14:59:54.922Z</time></trkpt><trkpt lat="31.1791567" lon="-5.37031"><ele>1442.0</ele><time>2026-04-23T14:59:55.922Z</time></trkpt><trkpt lat="31.1792" lon="-5.3701767"><ele>1442.0</ele><time>2026-04-23T14:59:57.922Z</time></trkpt><trkpt lat="31.179195" lon="-5.370055"><ele>1442.0</ele><time>2026-04-23T14:59:59.921Z</time></trkpt><trkpt lat="31.1791767" lon="-5.3699133"><ele>1442.0</ele><time>2026-04-23T15:00:01.922Z</time></trkpt><trkpt lat="31.1791833" lon="-5.36977"><ele>1442.0</ele><time>2026-04-23T15:00:03.921Z</time></trkpt><trkpt lat="31.1792267" lon="-5.3696483"><ele>1442.0</ele><time>2026-04-23T15:00:05.921Z</time></trkpt><trkpt lat="31.1792667" lon="-5.3695867"><ele>1442.0</ele><time>2026-04-23T15:00:06.922Z</time></trkpt><trkpt lat="31.1793217" lon="-5.3695367"><ele>1442.0</ele><time>2026-04-23T15:00:07.922Z</time></trkpt><trkpt lat="31.17938" lon="-5.3694883"><ele>1442.0</ele><time>2026-04-23T15:00:08.922Z</time></trkpt><trkpt lat="31.1794383" lon="-5.369425"><ele>1442.0</ele><time>2026-04-23T15:00:09.922Z</time></trkpt><trkpt lat="31.1794917" lon="-5.3693517"><ele>1442.0</ele><time>2026-04-23T15:00:10.921Z</time></trkpt><trkpt lat="31.17955" lon="-5.36927"><ele>1442.0</ele><time>2026-04-23T15:00:11.921Z</time></trkpt><trkpt lat="31.179615" lon="-5.3691833"><ele>1442.0</ele><time>2026-04-23T15:00:12.922Z</time></trkpt><trkpt lat="31.1796733" lon="-5.3691"><ele>1442.0</ele><time>2026-04-23T15:00:13.922Z</time></trkpt><trkpt lat="31.1797267" lon="-5.3690283"><ele>1442.0</ele><time>2026-04-23T15:00:14.922Z</time></trkpt><trkpt lat="31.179775" lon="-5.3689567"><ele>1442.0</ele><time>2026-04-23T15:00:15.922Z</time></trkpt><trkpt lat="31.17982" lon="-5.368885"><ele>1442.0</ele><time>2026-04-23T15:00:16.922Z</time></trkpt><trkpt lat="31.1798683" lon="-5.36882"><ele>1441.6666666666667</ele><time>2026-04-23T15:00:17.921Z</time></trkpt><trkpt lat="31.17992" lon="-5.36877"><ele>1441.3333333333335</ele><time>2026-04-23T15:00:18.921Z</time></trkpt><trkpt lat="31.1799783" lon="-5.3687183"><ele>1441.0</ele><time>2026-04-23T15:00:19.922Z</time></trkpt><trkpt lat="31.1800417" lon="-5.3686767"><ele>1440.6666666666667</ele><time>2026-04-23T15:00:20.922Z</time></trkpt><trkpt lat="31.1801117" lon="-5.3686267"><ele>1440.3333333333333</ele><time>2026-04-23T15:00:21.921Z</time></trkpt><trkpt lat="31.1801767" lon="-5.3685733"><ele>1440.0</ele><time>2026-04-23T15:00:22.922Z</time></trkpt><trkpt lat="31.1802533" lon="-5.3685083"><ele>1440.0</ele><time>2026-04-23T15:00:23.922Z</time></trkpt><trkpt lat="31.1803217" lon="-5.3684383"><ele>1440.0</ele><time>2026-04-23T15:00:24.921Z</time></trkpt><trkpt lat="31.1803833" lon="-5.3683583"><ele>1440.0</ele><time>2026-04-23T15:00:25.922Z</time></trkpt><trkpt lat="31.1804417" lon="-5.368285"><ele>1440.0</ele><time>2026-04-23T15:00:26.922Z</time></trkpt><trkpt lat="31.1805033" lon="-5.368215"><ele>1440.0</ele><time>2026-04-23T15:00:27.922Z</time></trkpt><trkpt lat="31.1805717" lon="-5.3681433"><ele>1440.0</ele><time>2026-04-23T15:00:28.922Z</time></trkpt><trkpt lat="31.180635" lon="-5.368075"><ele>1439.3333333333333</ele><time>2026-04-23T15:00:29.921Z</time></trkpt><trkpt lat="31.1807" lon="-5.3680117"><ele>1438.6666666666667</ele><time>2026-04-23T15:00:30.922Z</time></trkpt><trkpt lat="31.1807517" lon="-5.36794"><ele>1438.0</ele><time>2026-04-23T15:00:31.922Z</time></trkpt><trkpt lat="31.1807967" lon="-5.3678667"><ele>1437.3333333333335</ele><time>2026-04-23T15:00:32.921Z</time></trkpt><trkpt lat="31.1808383" lon="-5.3677783"><ele>1436.6666666666667</ele><time>2026-04-23T15:00:33.922Z</time></trkpt><trkpt lat="31.1808717" lon="-5.3676883"><ele>1436.0</ele><time>2026-04-23T15:00:34.921Z</time></trkpt><trkpt lat="31.18089" lon="-5.3676017"><ele>1436.0</ele><time>2026-04-23T15:00:35.922Z</time></trkpt><trkpt lat="31.1809117" lon="-5.3675083"><ele>1436.0</ele><time>2026-04-23T15:00:36.921Z</time></trkpt><trkpt lat="31.180935" lon="-5.3674217"><ele>1436.0</ele><time>2026-04-23T15:00:37.922Z</time></trkpt><trkpt lat="31.1809467" lon="-5.3673317"><ele>1436.0</ele><time>2026-04-23T15:00:38.922Z</time></trkpt><trkpt lat="31.18096" lon="-5.367245"><ele>1436.0</ele><time>2026-04-23T15:00:39.921Z</time></trkpt><trkpt lat="31.180975" lon="-5.367165"><ele>1436.0</ele><time>2026-04-23T15:00:40.922Z</time></trkpt><trkpt lat="31.181" lon="-5.3670933"><ele>1437.3333333333335</ele><time>2026-04-23T15:00:41.922Z</time></trkpt><trkpt lat="31.1810833" lon="-5.3670017"><ele>1438.6666666666667</ele><time>2026-04-23T15:00:43.922Z</time></trkpt><trkpt lat="31.1811883" lon="-5.3669617"><ele>1440.0</ele><time>2026-04-23T15:00:45.922Z</time></trkpt><trkpt lat="31.1812533" lon="-5.3669533"><ele>1441.3333333333333</ele><time>2026-04-23T15:00:46.921Z</time></trkpt><trkpt lat="31.1813283" lon="-5.3669317"><ele>1442.6666666666665</ele><time>2026-04-23T15:00:47.922Z</time></trkpt><trkpt lat="31.1814" lon="-5.3669067"><ele>1444.0</ele><time>2026-04-23T15:00:48.922Z</time></trkpt><trkpt lat="31.181465" lon="-5.3668783"><ele>1443.2857142857144</ele><time>2026-04-23T15:00:49.922Z</time></trkpt><trkpt lat="31.18152" lon="-5.3668417"><ele>1442.5714285714284</ele><time>2026-04-23T15:00:50.922Z</time></trkpt><trkpt lat="31.1815833" lon="-5.3667883"><ele>1441.857142857143</ele><time>2026-04-23T15:00:51.922Z</time></trkpt><trkpt lat="31.1816417" lon="-5.3667317"><ele>1441.1428571428573</ele><time>2026-04-23T15:00:52.922Z</time></trkpt><trkpt lat="31.1816967" lon="-5.36667"><ele>1440.4285714285716</ele><time>2026-04-23T15:00:53.922Z</time></trkpt><trkpt lat="31.18175" lon="-5.36661"><ele>1439.7142857142858</ele><time>2026-04-23T15:00:54.921Z</time></trkpt><trkpt lat="31.1817983" lon="-5.36655"><ele>1439.0</ele><time>2026-04-23T15:00:55.921Z</time></trkpt><trkpt lat="31.1818617" lon="-5.366455"><ele>1440.4</ele><time>2026-04-23T15:00:57.922Z</time></trkpt><trkpt lat="31.1818767" lon="-5.366355"><ele>1441.8000000000002</ele><time>2026-04-23T15:00:59.921Z</time></trkpt><trkpt lat="31.1818867" lon="-5.366195"><ele>1443.1999999999998</ele><time>2026-04-23T15:01:01.922Z</time></trkpt><trkpt lat="31.181905" lon="-5.3660967"><ele>1444.6</ele><time>2026-04-23T15:01:02.922Z</time></trkpt><trkpt lat="31.1819083" lon="-5.3660017"><ele>1446.0</ele><time>2026-04-23T15:01:03.922Z</time></trkpt><trkpt lat="31.1819083" lon="-5.3659233"><ele>1446.0000000000002</ele><time>2026-04-23T15:01:04.922Z</time></trkpt><trkpt lat="31.18191" lon="-5.3658467"><ele>1446.0</ele><time>2026-04-23T15:01:05.922Z</time></trkpt><trkpt lat="31.18191" lon="-5.36576"><ele>1446.0</ele><time>2026-04-23T15:01:06.922Z</time></trkpt><trkpt lat="31.181915" lon="-5.3656767"><ele>1446.0</ele><time>2026-04-23T15:01:07.922Z</time></trkpt><trkpt lat="31.1819133" lon="-5.3656017"><ele>1446.0</ele><time>2026-04-23T15:01:08.921Z</time></trkpt><trkpt lat="31.18191" lon="-5.365525"><ele>1446.0000000000002</ele><time>2026-04-23T15:01:09.922Z</time></trkpt><trkpt lat="31.1819" lon="-5.3654517"><ele>1446.0</ele><time>2026-04-23T15:01:10.922Z</time></trkpt><trkpt lat="31.1818733" lon="-5.365305"><ele>1445.857142857143</ele><time>2026-04-23T15:01:12.922Z</time></trkpt><trkpt lat="31.1818583" lon="-5.365225"><ele>1445.7142857142858</ele><time>2026-04-23T15:01:13.922Z</time></trkpt><trkpt lat="31.181845" lon="-5.365145"><ele>1445.5714285714284</ele><time>2026-04-23T15:01:14.922Z</time></trkpt><trkpt lat="31.181835" lon="-5.365065"><ele>1445.4285714285716</ele><time>2026-04-23T15:01:15.921Z</time></trkpt><trkpt lat="31.1818333" lon="-5.36499"><ele>1445.2857142857142</ele><time>2026-04-23T15:01:16.922Z</time></trkpt><trkpt lat="31.1818333" lon="-5.364915"><ele>1445.142857142857</ele><time>2026-04-23T15:01:17.922Z</time></trkpt><trkpt lat="31.1818383" lon="-5.3648367"><ele>1445.0</ele><time>2026-04-23T15:01:18.922Z</time></trkpt><trkpt lat="31.1818533" lon="-5.3647583"><ele>1445.6666666666667</ele><time>2026-04-23T15:01:19.922Z</time></trkpt><trkpt lat="31.1819083" lon="-5.364635"><ele>1446.3333333333335</ele><time>2026-04-23T15:01:21.922Z</time></trkpt><trkpt lat="31.1819467" lon="-5.3645733"><ele>1447.0</ele><time>2026-04-23T15:01:22.921Z</time></trkpt><trkpt lat="31.1819867" lon="-5.3645067"><ele>1447.6666666666667</ele><time>2026-04-23T15:01:23.922Z</time></trkpt><trkpt lat="31.1820183" lon="-5.3644333"><ele>1448.3333333333333</ele><time>2026-04-23T15:01:24.922Z</time></trkpt><trkpt lat="31.1820683" lon="-5.3643017"><ele>1449.0</ele><time>2026-04-23T15:01:26.922Z</time></trkpt><trkpt lat="31.1820933" lon="-5.364225"><ele>1449.0</ele><time>2026-04-23T15:01:27.922Z</time></trkpt><trkpt lat="31.1821117" lon="-5.36414"><ele>1449.0</ele><time>2026-04-23T15:01:28.921Z</time></trkpt><trkpt lat="31.1821217" lon="-5.3640617"><ele>1449.0</ele><time>2026-04-23T15:01:29.922Z</time></trkpt><trkpt lat="31.1821233" lon="-5.3639833"><ele>1449.0</ele><time>2026-04-23T15:01:30.921Z</time></trkpt><trkpt lat="31.1821217" lon="-5.3639017"><ele>1449.0</ele><time>2026-04-23T15:01:31.922Z</time></trkpt><trkpt lat="31.1821183" lon="-5.363815"><ele>1449.0</ele><time>2026-04-23T15:01:32.921Z</time></trkpt><trkpt lat="31.1821117" lon="-5.3637283"><ele>1449.0</ele><time>2026-04-23T15:01:33.922Z</time></trkpt><trkpt lat="31.182105" lon="-5.3636417"><ele>1449.0</ele><time>2026-04-23T15:01:34.921Z</time></trkpt><trkpt lat="31.1820933" lon="-5.36356"><ele>1449.0</ele><time>2026-04-23T15:01:35.922Z</time></trkpt><trkpt lat="31.182065" lon="-5.3634483"><ele>1449.0</ele><time>2026-04-23T15:01:37.922Z</time></trkpt><trkpt lat="31.1820017" lon="-5.3633867"><ele>1449.0</ele><time>2026-04-23T15:01:39.922Z</time></trkpt><trkpt lat="31.1819433" lon="-5.3633083"><ele>1449.0</ele><time>2026-04-23T15:01:41.921Z</time></trkpt><trkpt lat="31.1819" lon="-5.3631867"><ele>1449.0</ele><time>2026-04-23T15:01:43.922Z</time></trkpt><trkpt lat="31.1818867" lon="-5.3631"><ele>1449.0</ele><time>2026-04-23T15:01:44.921Z</time></trkpt><trkpt lat="31.1818983" lon="-5.3629783"><ele>1449.0</ele><time>2026-04-23T15:01:46.922Z</time></trkpt><trkpt lat="31.181965" lon="-5.3628617"><ele>1449.0</ele><time>2026-04-23T15:01:48.922Z</time></trkpt><trkpt lat="31.1820033" lon="-5.3627267"><ele>1449.0</ele><time>2026-04-23T15:01:50.921Z</time></trkpt><trkpt lat="31.182015" lon="-5.3626383"><ele>1449.5</ele><time>2026-04-23T15:01:51.922Z</time></trkpt><trkpt lat="31.18202" lon="-5.3625383"><ele>1450.0</ele><time>2026-04-23T15:01:52.921Z</time></trkpt><trkpt lat="31.1820167" lon="-5.3624333"><ele>1450.5</ele><time>2026-04-23T15:01:53.921Z</time></trkpt><trkpt lat="31.1820133" lon="-5.362325"><ele>1451.0</ele><time>2026-04-23T15:01:54.922Z</time></trkpt><trkpt lat="31.182005" lon="-5.3622317"><ele>1451.5</ele><time>2026-04-23T15:01:55.922Z</time></trkpt><trkpt lat="31.1819867" lon="-5.3621467"><ele>1452.0</ele><time>2026-04-23T15:01:56.922Z</time></trkpt><trkpt lat="31.1819667" lon="-5.362075"><ele>1453.8</ele><time>2026-04-23T15:01:57.922Z</time></trkpt><trkpt lat="31.1819583" lon="-5.3619483"><ele>1455.6</ele><time>2026-04-23T15:01:59.922Z</time></trkpt><trkpt lat="31.1820233" lon="-5.3618517"><ele>1457.3999999999999</ele><time>2026-04-23T15:02:01.922Z</time></trkpt><trkpt lat="31.182085" lon="-5.36181"><ele>1459.1999999999998</ele><time>2026-04-23T15:02:02.921Z</time></trkpt><trkpt lat="31.18215" lon="-5.36176"><ele>1461.0</ele><time>2026-04-23T15:02:03.921Z</time></trkpt><trkpt lat="31.18222" lon="-5.3617"><ele>1461.0</ele><time>2026-04-23T15:02:04.922Z</time></trkpt><trkpt lat="31.18228" lon="-5.3616233"><ele>1461.0</ele><time>2026-04-23T15:02:05.922Z</time></trkpt><trkpt lat="31.182325" lon="-5.36154"><ele>1461.0</ele><time>2026-04-23T15:02:06.922Z</time></trkpt><trkpt lat="31.182365" lon="-5.3614633"><ele>1461.0</ele><time>2026-04-23T15:02:07.922Z</time></trkpt><trkpt lat="31.1823883" lon="-5.3613483"><ele>1461.0</ele><time>2026-04-23T15:02:09.922Z</time></trkpt><trkpt lat="31.1823767" lon="-5.3612133"><ele>1461.3333333333333</ele><time>2026-04-23T15:02:11.921Z</time></trkpt><trkpt lat="31.1823683" lon="-5.3611233"><ele>1461.6666666666667</ele><time>2026-04-23T15:02:12.921Z</time></trkpt><trkpt lat="31.1823517" lon="-5.361035"><ele>1462.0</ele><time>2026-04-23T15:02:13.922Z</time></trkpt><trkpt lat="31.1823317" lon="-5.36095"><ele>1462.3333333333335</ele><time>2026-04-23T15:02:14.922Z</time></trkpt><trkpt lat="31.1823" lon="-5.3608667"><ele>1462.6666666666667</ele><time>2026-04-23T15:02:15.921Z</time></trkpt><trkpt lat="31.18226" lon="-5.3607917"><ele>1463.0</ele><time>2026-04-23T15:02:16.922Z</time></trkpt><trkpt lat="31.1822033" lon="-5.3607283"><ele>1463.4</ele><time>2026-04-23T15:02:17.922Z</time></trkpt><trkpt lat="31.182135" lon="-5.3606683"><ele>1463.8000000000002</ele><time>2026-04-23T15:02:18.921Z</time></trkpt><trkpt lat="31.18207" lon="-5.36059"><ele>1464.2</ele><time>2026-04-23T15:02:19.922Z</time></trkpt><trkpt lat="31.1820067" lon="-5.3605083"><ele>1464.6</ele><time>2026-04-23T15:02:20.922Z</time></trkpt><trkpt lat="31.181945" lon="-5.3604183"><ele>1465.0</ele><time>2026-04-23T15:02:21.922Z</time></trkpt><trkpt lat="31.181885" lon="-5.3603333"><ele>1465.6666666666665</ele><time>2026-04-23T15:02:22.922Z</time></trkpt><trkpt lat="31.1818217" lon="-5.36025"><ele>1466.3333333333333</ele><time>2026-04-23T15:02:24.922Z</time></trkpt><trkpt lat="31.1817983" lon="-5.3601617"><ele>1467.0</ele><time>2026-04-23T15:02:55.922Z</time></trkpt><trkpt lat="31.1817717" lon="-5.3600533"><ele>1467.6666666666667</ele><time>2026-04-23T15:02:57.922Z</time></trkpt><trkpt lat="31.181765" lon="-5.359975"><ele>1468.3333333333335</ele><time>2026-04-23T15:02:58.922Z</time></trkpt><trkpt lat="31.18175" lon="-5.3598817"><ele>1469.0</ele><time>2026-04-23T15:02:59.922Z</time></trkpt><trkpt lat="31.181735" lon="-5.3597817"><ele>1470.6</ele><time>2026-04-23T15:03:00.922Z</time></trkpt><trkpt lat="31.1817267" lon="-5.3596783"><ele>1472.2</ele><time>2026-04-23T15:03:01.922Z</time></trkpt><trkpt lat="31.18172" lon="-5.35958"><ele>1473.8</ele><time>2026-04-23T15:03:02.922Z</time></trkpt><trkpt lat="31.1817167" lon="-5.3594983"><ele>1475.3999999999999</ele><time>2026-04-23T15:03:03.922Z</time></trkpt><trkpt lat="31.1817417" lon="-5.359375"><ele>1477.0</ele><time>2026-04-23T15:03:05.921Z</time></trkpt><trkpt lat="31.1818267" lon="-5.3592583"><ele>1477.0</ele><time>2026-04-23T15:03:07.922Z</time></trkpt><trkpt lat="31.1818817" lon="-5.3591983"><ele>1477.0</ele><time>2026-04-23T15:03:08.922Z</time></trkpt><trkpt lat="31.1819483" lon="-5.359155"><ele>1477.0</ele><time>2026-04-23T15:03:09.922Z</time></trkpt><trkpt lat="31.1820183" lon="-5.359125"><ele>1477.0</ele><time>2026-04-23T15:03:10.922Z</time></trkpt><trkpt lat="31.18209" lon="-5.359115"><ele>1477.0</ele><time>2026-04-23T15:03:11.922Z</time></trkpt><trkpt lat="31.18217" lon="-5.3591117"><ele>1477.0</ele><time>2026-04-23T15:03:12.922Z</time></trkpt><trkpt lat="31.1822533" lon="-5.35911"><ele>1477.0</ele><time>2026-04-23T15:03:13.921Z</time></trkpt><trkpt lat="31.1823383" lon="-5.3591217"><ele>1477.0</ele><time>2026-04-23T15:03:14.922Z</time></trkpt><trkpt lat="31.1824217" lon="-5.3591317"><ele>1477.0</ele><time>2026-04-23T15:03:15.921Z</time></trkpt><trkpt lat="31.182505" lon="-5.359155"><ele>1477.0</ele><time>2026-04-23T15:03:16.922Z</time></trkpt><trkpt lat="31.1826067" lon="-5.35918"><ele>1477.0</ele><time>2026-04-23T15:03:17.922Z</time></trkpt><trkpt lat="31.1826967" lon="-5.3592017"><ele>1478.3999999999999</ele><time>2026-04-23T15:03:18.922Z</time></trkpt><trkpt lat="31.1827783" lon="-5.3592167"><ele>1479.8</ele><time>2026-04-23T15:03:19.921Z</time></trkpt><trkpt lat="31.1828633" lon="-5.3592133"><ele>1481.2</ele><time>2026-04-23T15:03:20.921Z</time></trkpt><trkpt lat="31.1829533" lon="-5.3592"><ele>1482.6</ele><time>2026-04-23T15:03:21.922Z</time></trkpt><trkpt lat="31.1830533" lon="-5.359175"><ele>1484.0</ele><time>2026-04-23T15:03:22.922Z</time></trkpt><trkpt lat="31.1831433" lon="-5.3591467"><ele>1484.3333333333335</ele><time>2026-04-23T15:03:23.922Z</time></trkpt><trkpt lat="31.1832383" lon="-5.3591117"><ele>1484.6666666666667</ele><time>2026-04-23T15:03:24.922Z</time></trkpt><trkpt lat="31.1833267" lon="-5.3590733"><ele>1485.0</ele><time>2026-04-23T15:03:25.922Z</time></trkpt><trkpt lat="31.1834" lon="-5.359035"><ele>1485.3333333333333</ele><time>2026-04-23T15:03:26.922Z</time></trkpt><trkpt lat="31.18347" lon="-5.35899"><ele>1485.6666666666665</ele><time>2026-04-23T15:03:27.921Z</time></trkpt><trkpt lat="31.183525" lon="-5.3589417"><ele>1486.0</ele><time>2026-04-23T15:03:28.922Z</time></trkpt><trkpt lat="31.18359" lon="-5.3588383"><ele>1490.0</ele><time>2026-04-23T15:03:30.922Z</time></trkpt><trkpt lat="31.1836317" lon="-5.3587483"><ele>1494.0</ele><time>2026-04-23T15:03:32.921Z</time></trkpt><trkpt lat="31.183725" lon="-5.3587383"><ele>1498.0</ele><time>2026-04-23T15:03:34.922Z</time></trkpt><trkpt lat="31.1838383" lon="-5.3587367"><ele>1502.0</ele><time>2026-04-23T15:03:36.922Z</time></trkpt><trkpt lat="31.1839617" lon="-5.3586883"><ele>1506.0</ele><time>2026-04-23T15:03:38.922Z</time></trkpt><trkpt lat="31.184035" lon="-5.3586667"><ele>1506.6666666666667</ele><time>2026-04-23T15:03:39.921Z</time></trkpt><trkpt lat="31.1841167" lon="-5.3586583"><ele>1507.3333333333333</ele><time>2026-04-23T15:03:40.921Z</time></trkpt><trkpt lat="31.184205" lon="-5.3586567"><ele>1508.0</ele><time>2026-04-23T15:03:41.922Z</time></trkpt><trkpt lat="31.1842867" lon="-5.35865"><ele>1508.6666666666665</ele><time>2026-04-23T15:03:42.922Z</time></trkpt><trkpt lat="31.1843683" lon="-5.358625"><ele>1509.3333333333333</ele><time>2026-04-23T15:03:43.922Z</time></trkpt><trkpt lat="31.1844483" lon="-5.35859"><ele>1510.0</ele><time>2026-04-23T15:03:44.922Z</time></trkpt><trkpt lat="31.1845317" lon="-5.35855"><ele>1510.0</ele><time>2026-04-23T15:03:45.922Z</time></trkpt><trkpt lat="31.18462" lon="-5.35851"><ele>1510.0</ele><time>2026-04-23T15:03:46.922Z</time></trkpt><trkpt lat="31.184705" lon="-5.3584633"><ele>1510.0</ele><time>2026-04-23T15:03:47.922Z</time></trkpt><trkpt lat="31.1847833" lon="-5.3584133"><ele>1510.0</ele><time>2026-04-23T15:03:48.922Z</time></trkpt><trkpt lat="31.1848633" lon="-5.3583617"><ele>1510.0</ele><time>2026-04-23T15:03:49.921Z</time></trkpt><trkpt lat="31.1849367" lon="-5.3583267"><ele>1510.0</ele><time>2026-04-23T15:03:50.922Z</time></trkpt><trkpt lat="31.1850133" lon="-5.3583"><ele>1509.1666666666665</ele><time>2026-04-23T15:03:51.922Z</time></trkpt><trkpt lat="31.1850817" lon="-5.3582683"><ele>1508.3333333333333</ele><time>2026-04-23T15:03:52.922Z</time></trkpt><trkpt lat="31.1851867" lon="-5.35821"><ele>1507.5</ele><time>2026-04-23T15:03:54.922Z</time></trkpt><trkpt lat="31.1852433" lon="-5.3581717"><ele>1506.6666666666667</ele><time>2026-04-23T15:03:55.922Z</time></trkpt><trkpt lat="31.1853117" lon="-5.3581333"><ele>1505.8333333333335</ele><time>2026-04-23T15:03:56.921Z</time></trkpt><trkpt lat="31.185375" lon="-5.3580983"><ele>1505.0</ele><time>2026-04-23T15:03:57.922Z</time></trkpt><trkpt lat="31.18543" lon="-5.3580617"><ele>1509.1666666666667</ele><time>2026-04-23T15:03:58.922Z</time></trkpt><trkpt lat="31.1854817" lon="-5.3580183"><ele>1513.3333333333335</ele><time>2026-04-23T15:03:59.922Z</time></trkpt><trkpt lat="31.1855217" lon="-5.35796"><ele>1517.5</ele><time>2026-04-23T15:04:00.922Z</time></trkpt><trkpt lat="31.1855583" lon="-5.3578867"><ele>1521.6666666666667</ele><time>2026-04-23T15:04:01.921Z</time></trkpt><trkpt lat="31.18559" lon="-5.3578"><ele>1525.8333333333333</ele><time>2026-04-23T15:04:02.922Z</time></trkpt><trkpt lat="31.185625" lon="-5.3577067"><ele>1530.0</ele><time>2026-04-23T15:04:03.922Z</time></trkpt><trkpt lat="31.1856717" lon="-5.3576217"><ele>1530.2</ele><time>2026-04-23T15:04:04.922Z</time></trkpt><trkpt lat="31.1857317" lon="-5.3575433"><ele>1530.4</ele><time>2026-04-23T15:04:05.922Z</time></trkpt><trkpt lat="31.1857883" lon="-5.3574567"><ele>1530.6</ele><time>2026-04-23T15:04:06.921Z</time></trkpt><trkpt lat="31.1858367" lon="-5.357365"><ele>1530.8</ele><time>2026-04-23T15:04:07.921Z</time></trkpt><trkpt lat="31.1858867" lon="-5.3572683"><ele>1531.0</ele><time>2026-04-23T15:04:08.92Z</time></trkpt><trkpt lat="31.1859467" lon="-5.357175"><ele>1531.0</ele><time>2026-04-23T15:04:09.92Z</time></trkpt><trkpt lat="31.1860183" lon="-5.3570983"><ele>1531.0</ele><time>2026-04-23T15:04:10.921Z</time></trkpt><trkpt lat="31.1860867" lon="-5.3570183"><ele>1531.0</ele><time>2026-04-23T15:04:11.921Z</time></trkpt><trkpt lat="31.186145" lon="-5.3569267"><ele>1531.0</ele><time>2026-04-23T15:04:12.921Z</time></trkpt><trkpt lat="31.1862017" lon="-5.3568367"><ele>1531.0</ele><time>2026-04-23T15:04:13.92Z</time></trkpt><trkpt lat="31.18626" lon="-5.3567533"><ele>1531.0</ele><time>2026-04-23T15:04:14.921Z</time></trkpt><trkpt lat="31.1863317" lon="-5.3566733"><ele>1531.0</ele><time>2026-04-23T15:04:15.921Z</time></trkpt><trkpt lat="31.1864017" lon="-5.3565867"><ele>1531.0</ele><time>2026-04-23T15:04:16.921Z</time></trkpt><trkpt lat="31.1864717" lon="-5.356495"><ele>1531.0</ele><time>2026-04-23T15:04:17.921Z</time></trkpt><trkpt lat="31.1865383" lon="-5.35641"><ele>1531.0</ele><time>2026-04-23T15:04:18.92Z</time></trkpt><trkpt lat="31.1866117" lon="-5.3563267"><ele>1529.4</ele><time>2026-04-23T15:04:19.921Z</time></trkpt><trkpt lat="31.1866933" lon="-5.3562467"><ele>1527.8</ele><time>2026-04-23T15:04:20.921Z</time></trkpt><trkpt lat="31.18678" lon="-5.35618"><ele>1526.2</ele><time>2026-04-23T15:04:21.921Z</time></trkpt><trkpt lat="31.1868717" lon="-5.3561217"><ele>1524.6000000000001</ele><time>2026-04-23T15:04:22.92Z</time></trkpt><trkpt lat="31.186955" lon="-5.35608"><ele>1523.0</ele><time>2026-04-23T15:04:23.921Z</time></trkpt><trkpt lat="31.1870267" lon="-5.35605"><ele>1523.0</ele><time>2026-04-23T15:04:24.92Z</time></trkpt><trkpt lat="31.1871033" lon="-5.35597"><ele>1523.0</ele><time>2026-04-23T15:04:26.921Z</time></trkpt><trkpt lat="31.1871167" lon="-5.3558767"><ele>1523.0</ele><time>2026-04-23T15:04:28.921Z</time></trkpt><trkpt lat="31.1871" lon="-5.3557533"><ele>1523.0</ele><time>2026-04-23T15:04:30.921Z</time></trkpt><trkpt lat="31.18708" lon="-5.3556767"><ele>1523.0</ele><time>2026-04-23T15:04:31.921Z</time></trkpt><trkpt lat="31.1870467" lon="-5.3555983"><ele>1523.0</ele><time>2026-04-23T15:04:32.921Z</time></trkpt><trkpt lat="31.187005" lon="-5.3555333"><ele>1524.8333333333335</ele><time>2026-04-23T15:04:33.921Z</time></trkpt><trkpt lat="31.18696" lon="-5.3554683"><ele>1526.6666666666667</ele><time>2026-04-23T15:04:34.92Z</time></trkpt><trkpt lat="31.1869333" lon="-5.3554"><ele>1528.5</ele><time>2026-04-23T15:04:35.921Z</time></trkpt><trkpt lat="31.1869233" lon="-5.35532"><ele>1530.3333333333333</ele><time>2026-04-23T15:04:36.92Z</time></trkpt><trkpt lat="31.18693" lon="-5.3552333"><ele>1532.1666666666665</ele><time>2026-04-23T15:04:37.921Z</time></trkpt><trkpt lat="31.1869417" lon="-5.3551217"><ele>1534.0</ele><time>2026-04-23T15:04:38.921Z</time></trkpt><trkpt lat="31.1869667" lon="-5.3550183"><ele>1534.0</ele><time>2026-04-23T15:04:39.92Z</time></trkpt><trkpt lat="31.1869867" lon="-5.354915"><ele>1534.0</ele><time>2026-04-23T15:04:40.921Z</time></trkpt><trkpt lat="31.1869983" lon="-5.3548183"><ele>1534.0</ele><time>2026-04-23T15:04:41.921Z</time></trkpt><trkpt lat="31.1869967" lon="-5.3547333"><ele>1534.0</ele><time>2026-04-23T15:04:42.921Z</time></trkpt><trkpt lat="31.18698" lon="-5.354655"><ele>1534.0</ele><time>2026-04-23T15:04:43.921Z</time></trkpt><trkpt lat="31.1869717" lon="-5.3545783"><ele>1534.0</ele><time>2026-04-23T15:04:44.92Z</time></trkpt><trkpt lat="31.186985" lon="-5.3544567"><ele>1535.8000000000002</ele><time>2026-04-23T15:04:46.92Z</time></trkpt><trkpt lat="31.1870783" lon="-5.3543417"><ele>1537.6000000000001</ele><time>2026-04-23T15:04:48.921Z</time></trkpt><trkpt lat="31.18715" lon="-5.3542933"><ele>1539.4</ele><time>2026-04-23T15:04:49.921Z</time></trkpt><trkpt lat="31.1872233" lon="-5.35424"><ele>1541.2</ele><time>2026-04-23T15:04:50.92Z</time></trkpt><trkpt lat="31.187305" lon="-5.3541833"><ele>1543.0</ele><time>2026-04-23T15:04:51.921Z</time></trkpt><trkpt lat="31.18739" lon="-5.3541283"><ele>1539.6666666666667</ele><time>2026-04-23T15:04:52.92Z</time></trkpt><trkpt lat="31.1874667" lon="-5.3540967"><ele>1536.3333333333335</ele><time>2026-04-23T15:04:53.921Z</time></trkpt><trkpt lat="31.1875583" lon="-5.3540683"><ele>1533.0</ele><time>2026-04-23T15:04:54.921Z</time></trkpt><trkpt lat="31.1876467" lon="-5.35404"><ele>1529.6666666666667</ele><time>2026-04-23T15:04:55.921Z</time></trkpt><trkpt lat="31.1877283" lon="-5.3540167"><ele>1526.3333333333335</ele><time>2026-04-23T15:04:56.921Z</time></trkpt><trkpt lat="31.187795" lon="-5.353985"><ele>1523.0</ele><time>2026-04-23T15:04:57.921Z</time></trkpt><trkpt lat="31.1878517" lon="-5.3539467"><ele>1523.0</ele><time>2026-04-23T15:04:58.921Z</time></trkpt><trkpt lat="31.18791" lon="-5.3538983"><ele>1523.0</ele><time>2026-04-23T15:04:59.92Z</time></trkpt><trkpt lat="31.187975" lon="-5.35383"><ele>1523.0</ele><time>2026-04-23T15:05:00.921Z</time></trkpt><trkpt lat="31.1880417" lon="-5.353745"><ele>1523.0</ele><time>2026-04-23T15:05:01.921Z</time></trkpt><trkpt lat="31.1881117" lon="-5.3536583"><ele>1523.0</ele><time>2026-04-23T15:05:02.921Z</time></trkpt><trkpt lat="31.1881617" lon="-5.3535717"><ele>1523.0</ele><time>2026-04-23T15:05:03.921Z</time></trkpt><trkpt lat="31.1882117" lon="-5.353485"><ele>1525.0</ele><time>2026-04-23T15:05:04.921Z</time></trkpt><trkpt lat="31.1882533" lon="-5.3533967"><ele>1527.0</ele><time>2026-04-23T15:05:05.921Z</time></trkpt><trkpt lat="31.1882883" lon="-5.35332"><ele>1529.0</ele><time>2026-04-23T15:05:06.921Z</time></trkpt><trkpt lat="31.18831" lon="-5.3532433"><ele>1531.0</ele><time>2026-04-23T15:05:07.921Z</time></trkpt><trkpt lat="31.188335" lon="-5.3531083"><ele>1533.0</ele><time>2026-04-23T15:05:09.921Z</time></trkpt><trkpt lat="31.1883633" lon="-5.3530383"><ele>1535.0</ele><time>2026-04-23T15:05:10.921Z</time></trkpt><trkpt lat="31.1884" lon="-5.3529683"><ele>1537.3333333333335</ele><time>2026-04-23T15:05:11.921Z</time></trkpt><trkpt lat="31.1884467" lon="-5.3529033"><ele>1539.6666666666667</ele><time>2026-04-23T15:05:12.921Z</time></trkpt><trkpt lat="31.1884967" lon="-5.3528367"><ele>1542.0</ele><time>2026-04-23T15:05:13.92Z</time></trkpt><trkpt lat="31.1885417" lon="-5.3527683"><ele>1544.3333333333335</ele><time>2026-04-23T15:05:14.921Z</time></trkpt><trkpt lat="31.18859" lon="-5.3526933"><ele>1546.6666666666667</ele><time>2026-04-23T15:05:15.92Z</time></trkpt><trkpt lat="31.188645" lon="-5.3526117"><ele>1549.0</ele><time>2026-04-23T15:05:16.921Z</time></trkpt><trkpt lat="31.188695" lon="-5.3525333"><ele>1549.0000000000002</ele><time>2026-04-23T15:05:17.921Z</time></trkpt><trkpt lat="31.1887467" lon="-5.3524567"><ele>1549.0</ele><time>2026-04-23T15:05:18.92Z</time></trkpt><trkpt lat="31.1887983" lon="-5.3523833"><ele>1549.0</ele><time>2026-04-23T15:05:19.92Z</time></trkpt><trkpt lat="31.18886" lon="-5.3523133"><ele>1549.0</ele><time>2026-04-23T15:05:20.92Z</time></trkpt><trkpt lat="31.1889317" lon="-5.352255"><ele>1549.0000000000002</ele><time>2026-04-23T15:05:21.921Z</time></trkpt><trkpt lat="31.1890083" lon="-5.352205"><ele>1549.0</ele><time>2026-04-23T15:05:22.921Z</time></trkpt><trkpt lat="31.1890717" lon="-5.3521483"><ele>1547.1666666666667</ele><time>2026-04-23T15:05:23.921Z</time></trkpt><trkpt lat="31.1891267" lon="-5.3520933"><ele>1545.3333333333335</ele><time>2026-04-23T15:05:24.921Z</time></trkpt><trkpt lat="31.1891633" lon="-5.3520233"><ele>1543.5</ele><time>2026-04-23T15:05:25.921Z</time></trkpt><trkpt lat="31.1891883" lon="-5.351945"><ele>1541.6666666666665</ele><time>2026-04-23T15:05:26.921Z</time></trkpt><trkpt lat="31.1892267" lon="-5.351855"><ele>1539.8333333333333</ele><time>2026-04-23T15:05:27.921Z</time></trkpt><trkpt lat="31.1892717" lon="-5.3517617"><ele>1538.0</ele><time>2026-04-23T15:05:28.921Z</time></trkpt><trkpt lat="31.189315" lon="-5.35167"><ele>1538.0</ele><time>2026-04-23T15:05:29.921Z</time></trkpt><trkpt lat="31.189365" lon="-5.3515767"><ele>1538.0</ele><time>2026-04-23T15:05:30.921Z</time></trkpt><trkpt lat="31.1894167" lon="-5.3514883"><ele>1538.0</ele><time>2026-04-23T15:05:31.921Z</time></trkpt><trkpt lat="31.1894633" lon="-5.351405"><ele>1538.0</ele><time>2026-04-23T15:05:32.92Z</time></trkpt><trkpt lat="31.1895183" lon="-5.3513217"><ele>1538.0</ele><time>2026-04-23T15:05:33.92Z</time></trkpt><trkpt lat="31.1895883" lon="-5.3512417"><ele>1536.9999999999998</ele><time>2026-04-23T15:05:34.92Z</time></trkpt><trkpt lat="31.189655" lon="-5.3511583"><ele>1536.0</ele><time>2026-04-23T15:05:35.921Z</time></trkpt><trkpt lat="31.1897283" lon="-5.3510883"><ele>1535.0</ele><time>2026-04-23T15:05:36.921Z</time></trkpt><trkpt lat="31.1898017" lon="-5.3510383"><ele>1534.0</ele><time>2026-04-23T15:05:37.921Z</time></trkpt><trkpt lat="31.18987" lon="-5.3510017"><ele>1533.0</ele><time>2026-04-23T15:05:38.921Z</time></trkpt><trkpt lat="31.1899383" lon="-5.350955"><ele>1532.0</ele><time>2026-04-23T15:05:39.921Z</time></trkpt><trkpt lat="31.1900017" lon="-5.3508967"><ele>1532.0</ele><time>2026-04-23T15:05:40.921Z</time></trkpt><trkpt lat="31.1900583" lon="-5.3508333"><ele>1532.0</ele><time>2026-04-23T15:05:41.921Z</time></trkpt><trkpt lat="31.19012" lon="-5.3507633"><ele>1532.0</ele><time>2026-04-23T15:05:42.921Z</time></trkpt><trkpt lat="31.19019" lon="-5.35071"><ele>1532.0</ele><time>2026-04-23T15:05:43.92Z</time></trkpt><trkpt lat="31.19026" lon="-5.3506517"><ele>1532.0</ele><time>2026-04-23T15:05:44.92Z</time></trkpt><trkpt lat="31.19032" lon="-5.350595"><ele>1532.0</ele><time>2026-04-23T15:05:45.921Z</time></trkpt><trkpt lat="31.1903733" lon="-5.3505283"><ele>1532.6</ele><time>2026-04-23T15:05:46.921Z</time></trkpt><trkpt lat="31.1904267" lon="-5.3504483"><ele>1533.1999999999998</ele><time>2026-04-23T15:05:47.921Z</time></trkpt><trkpt lat="31.1904867" lon="-5.3503683"><ele>1533.8</ele><time>2026-04-23T15:05:48.921Z</time></trkpt><trkpt lat="31.190545" lon="-5.3502867"><ele>1534.4</ele><time>2026-04-23T15:05:49.92Z</time></trkpt><trkpt lat="31.1906167" lon="-5.350215"><ele>1535.0</ele><time>2026-04-23T15:05:50.92Z</time></trkpt><trkpt lat="31.1906917" lon="-5.35015"><ele>1535.0</ele><time>2026-04-23T15:05:51.921Z</time></trkpt><trkpt lat="31.19077" lon="-5.35008"><ele>1535.0</ele><time>2026-04-23T15:05:52.921Z</time></trkpt><trkpt lat="31.1908517" lon="-5.35002"><ele>1535.0</ele><time>2026-04-23T15:05:53.921Z</time></trkpt><trkpt lat="31.1909333" lon="-5.3499633"><ele>1535.0</ele><time>2026-04-23T15:05:54.921Z</time></trkpt><trkpt lat="31.1910117" lon="-5.3499067"><ele>1535.0</ele><time>2026-04-23T15:05:55.92Z</time></trkpt><trkpt lat="31.1910917" lon="-5.34986"><ele>1535.0</ele><time>2026-04-23T15:05:56.921Z</time></trkpt><trkpt lat="31.1911783" lon="-5.3498217"><ele>1535.0</ele><time>2026-04-23T15:05:57.92Z</time></trkpt><trkpt lat="31.1912617" lon="-5.3497883"><ele>1535.0</ele><time>2026-04-23T15:05:58.92Z</time></trkpt><trkpt lat="31.1913383" lon="-5.349755"><ele>1535.0</ele><time>2026-04-23T15:05:59.921Z</time></trkpt><trkpt lat="31.1914117" lon="-5.3497133"><ele>1535.0</ele><time>2026-04-23T15:06:00.921Z</time></trkpt><trkpt lat="31.1914783" lon="-5.3496517"><ele>1535.0</ele><time>2026-04-23T15:06:01.921Z</time></trkpt><trkpt lat="31.1915517" lon="-5.349585"><ele>1535.0</ele><time>2026-04-23T15:06:02.92Z</time></trkpt><trkpt lat="31.1916383" lon="-5.34953"><ele>1535.0</ele><time>2026-04-23T15:06:03.92Z</time></trkpt><trkpt lat="31.1917467" lon="-5.3494817"><ele>1535.0</ele><time>2026-04-23T15:06:04.921Z</time></trkpt><trkpt lat="31.1918617" lon="-5.3494167"><ele>1535.0</ele><time>2026-04-23T15:06:05.921Z</time></trkpt><trkpt lat="31.1919633" lon="-5.3493467"><ele>1535.0</ele><time>2026-04-23T15:06:06.921Z</time></trkpt><trkpt lat="31.1920533" lon="-5.3492683"><ele>1535.0</ele><time>2026-04-23T15:06:07.921Z</time></trkpt><trkpt lat="31.1921283" lon="-5.3491967"><ele>1535.0</ele><time>2026-04-23T15:06:08.921Z</time></trkpt><trkpt lat="31.1921933" lon="-5.3491117"><ele>1535.0</ele><time>2026-04-23T15:06:09.92Z</time></trkpt><trkpt lat="31.1922617" lon="-5.349035"><ele>1535.0</ele><time>2026-04-23T15:06:10.92Z</time></trkpt><trkpt lat="31.1923283" lon="-5.348955"><ele>1531.2</ele><time>2026-04-23T15:06:11.921Z</time></trkpt><trkpt lat="31.1923967" lon="-5.34886"><ele>1527.4</ele><time>2026-04-23T15:06:12.921Z</time></trkpt><trkpt lat="31.192465" lon="-5.3487583"><ele>1523.6</ele><time>2026-04-23T15:06:13.921Z</time></trkpt><trkpt lat="31.19253" lon="-5.34866"><ele>1519.8</ele><time>2026-04-23T15:06:14.921Z</time></trkpt><trkpt lat="31.19259" lon="-5.3485683"><ele>1516.0</ele><time>2026-04-23T15:06:15.921Z</time></trkpt><trkpt lat="31.1926567" lon="-5.34848"><ele>1516.0</ele><time>2026-04-23T15:06:16.92Z</time></trkpt><trkpt lat="31.1927217" lon="-5.3484067"><ele>1516.0</ele><time>2026-04-23T15:06:17.921Z</time></trkpt><trkpt lat="31.1927917" lon="-5.34834"><ele>1516.0</ele><time>2026-04-23T15:06:18.921Z</time></trkpt><trkpt lat="31.1928717" lon="-5.3482767"><ele>1516.0</ele><time>2026-04-23T15:06:19.921Z</time></trkpt><trkpt lat="31.19296" lon="-5.3482133"><ele>1516.0</ele><time>2026-04-23T15:06:20.92Z</time></trkpt><trkpt lat="31.193055" lon="-5.3481517"><ele>1516.0</ele><time>2026-04-23T15:06:21.921Z</time></trkpt><trkpt lat="31.1931467" lon="-5.3480833"><ele>1516.0</ele><time>2026-04-23T15:06:22.921Z</time></trkpt><trkpt lat="31.1932333" lon="-5.3480117"><ele>1516.0</ele><time>2026-04-23T15:06:23.921Z</time></trkpt><trkpt lat="31.193315" lon="-5.3479367"><ele>1516.0</ele><time>2026-04-23T15:06:24.921Z</time></trkpt><trkpt lat="31.1934" lon="-5.347865"><ele>1516.0</ele><time>2026-04-23T15:06:25.92Z</time></trkpt><trkpt lat="31.19348" lon="-5.3477783"><ele>1513.1999999999998</ele><time>2026-04-23T15:06:26.921Z</time></trkpt><trkpt lat="31.1935567" lon="-5.347695"><ele>1510.3999999999999</ele><time>2026-04-23T15:06:27.92Z</time></trkpt><trkpt lat="31.19363" lon="-5.3476167"><ele>1507.6</ele><time>2026-04-23T15:06:28.921Z</time></trkpt><trkpt lat="31.193705" lon="-5.34754"><ele>1504.8</ele><time>2026-04-23T15:06:29.921Z</time></trkpt><trkpt lat="31.1937883" lon="-5.3474667"><ele>1502.0</ele><time>2026-04-23T15:06:30.921Z</time></trkpt><trkpt lat="31.1938683" lon="-5.3473917"><ele>1502.0</ele><time>2026-04-23T15:06:31.921Z</time></trkpt><trkpt lat="31.1939433" lon="-5.347325"><ele>1502.0</ele><time>2026-04-23T15:06:32.921Z</time></trkpt><trkpt lat="31.194015" lon="-5.34725"><ele>1502.0</ele><time>2026-04-23T15:06:33.921Z</time></trkpt><trkpt lat="31.1940717" lon="-5.3471683"><ele>1502.0</ele><time>2026-04-23T15:06:34.921Z</time></trkpt><trkpt lat="31.1941217" lon="-5.347085"><ele>1502.0</ele><time>2026-04-23T15:06:35.921Z</time></trkpt><trkpt lat="31.194175" lon="-5.3469917"><ele>1500.3999999999999</ele><time>2026-04-23T15:06:36.92Z</time></trkpt><trkpt lat="31.1942233" lon="-5.3469067"><ele>1498.8</ele><time>2026-04-23T15:06:37.921Z</time></trkpt><trkpt lat="31.19428" lon="-5.3468217"><ele>1497.2</ele><time>2026-04-23T15:06:38.921Z</time></trkpt><trkpt lat="31.1943483" lon="-5.34675"><ele>1495.6</ele><time>2026-04-23T15:06:39.921Z</time></trkpt><trkpt lat="31.1944167" lon="-5.3466783"><ele>1494.0</ele><time>2026-04-23T15:06:40.921Z</time></trkpt><trkpt lat="31.19449" lon="-5.3466117"><ele>1494.0</ele><time>2026-04-23T15:06:41.921Z</time></trkpt><trkpt lat="31.1945617" lon="-5.3465317"><ele>1494.0</ele><time>2026-04-23T15:06:42.921Z</time></trkpt><trkpt lat="31.1946333" lon="-5.3464617"><ele>1494.0</ele><time>2026-04-23T15:06:43.921Z</time></trkpt><trkpt lat="31.1947167" lon="-5.3463717"><ele>1494.0</ele><time>2026-04-23T15:06:44.921Z</time></trkpt><trkpt lat="31.1947933" lon="-5.3462867"><ele>1494.0</ele><time>2026-04-23T15:06:45.921Z</time></trkpt><trkpt lat="31.1948783" lon="-5.3462067"><ele>1493.4</ele><time>2026-04-23T15:06:46.92Z</time></trkpt><trkpt lat="31.1949617" lon="-5.34613"><ele>1492.8000000000002</ele><time>2026-04-23T15:06:47.92Z</time></trkpt><trkpt lat="31.1950233" lon="-5.3460467"><ele>1492.1999999999998</ele><time>2026-04-23T15:06:48.92Z</time></trkpt><trkpt lat="31.19509" lon="-5.3459583"><ele>1491.6</ele><time>2026-04-23T15:06:49.921Z</time></trkpt><trkpt lat="31.1951583" lon="-5.3458733"><ele>1491.0</ele><time>2026-04-23T15:06:50.92Z</time></trkpt><trkpt lat="31.1952333" lon="-5.3457917"><ele>1491.0</ele><time>2026-04-23T15:06:51.921Z</time></trkpt><trkpt lat="31.1953033" lon="-5.3457033"><ele>1491.0</ele><time>2026-04-23T15:06:52.92Z</time></trkpt><trkpt lat="31.195355" lon="-5.3456133"><ele>1491.0</ele><time>2026-04-23T15:06:53.921Z</time></trkpt><trkpt lat="31.1953933" lon="-5.3455167"><ele>1491.0</ele><time>2026-04-23T15:06:54.921Z</time></trkpt><trkpt lat="31.1954233" lon="-5.3454217"><ele>1491.0</ele><time>2026-04-23T15:06:55.921Z</time></trkpt><trkpt lat="31.195455" lon="-5.3453183"><ele>1490.1666666666667</ele><time>2026-04-23T15:06:56.921Z</time></trkpt><trkpt lat="31.1954783" lon="-5.3452133"><ele>1489.3333333333333</ele><time>2026-04-23T15:06:57.921Z</time></trkpt><trkpt lat="31.195495" lon="-5.3451083"><ele>1488.5</ele><time>2026-04-23T15:06:58.92Z</time></trkpt><trkpt lat="31.1955033" lon="-5.3450017"><ele>1487.6666666666665</ele><time>2026-04-23T15:06:59.921Z</time></trkpt><trkpt lat="31.1955067" lon="-5.344905"><ele>1486.8333333333333</ele><time>2026-04-23T15:07:00.921Z</time></trkpt><trkpt lat="31.1955117" lon="-5.3448083"><ele>1486.0</ele><time>2026-04-23T15:07:01.92Z</time></trkpt><trkpt lat="31.195515" lon="-5.3447283"><ele>1486.8</ele><time>2026-04-23T15:07:02.921Z</time></trkpt><trkpt lat="31.1955367" lon="-5.344645"><ele>1487.6</ele><time>2026-04-23T15:07:04.921Z</time></trkpt><trkpt lat="31.1956317" lon="-5.3446133"><ele>1488.4</ele><time>2026-04-23T15:07:07.92Z</time></trkpt><trkpt lat="31.1957083" lon="-5.3446433"><ele>1489.2</ele><time>2026-04-23T15:07:09.921Z</time></trkpt><trkpt lat="31.1958" lon="-5.3446817"><ele>1490.0</ele><time>2026-04-23T15:07:11.92Z</time></trkpt><trkpt lat="31.1959017" lon="-5.3446767"><ele>1491.1666666666667</ele><time>2026-04-23T15:07:13.921Z</time></trkpt><trkpt lat="31.1959683" lon="-5.3446567"><ele>1492.3333333333335</ele><time>2026-04-23T15:07:14.921Z</time></trkpt><trkpt lat="31.196035" lon="-5.3446267"><ele>1493.5</ele><time>2026-04-23T15:07:15.92Z</time></trkpt><trkpt lat="31.1961017" lon="-5.3445917"><ele>1494.6666666666667</ele><time>2026-04-23T15:07:16.921Z</time></trkpt><trkpt lat="31.19616" lon="-5.344555"><ele>1495.8333333333333</ele><time>2026-04-23T15:07:17.921Z</time></trkpt><trkpt lat="31.1962167" lon="-5.3445217"><ele>1497.0</ele><time>2026-04-23T15:07:18.921Z</time></trkpt><trkpt lat="31.1963067" lon="-5.34444"><ele>1497.0</ele><time>2026-04-23T15:07:20.921Z</time></trkpt><trkpt lat="31.1963917" lon="-5.34436"><ele>1497.0</ele><time>2026-04-23T15:07:22.92Z</time></trkpt><trkpt lat="31.1965117" lon="-5.34431"><ele>1497.0</ele><time>2026-04-23T15:07:24.921Z</time></trkpt><trkpt lat="31.1965917" lon="-5.344285"><ele>1497.0</ele><time>2026-04-23T15:07:25.92Z</time></trkpt><trkpt lat="31.196675" lon="-5.3442633"><ele>1497.0</ele><time>2026-04-23T15:07:26.92Z</time></trkpt><trkpt lat="31.1967583" lon="-5.344235"><ele>1497.6666666666667</ele><time>2026-04-23T15:07:27.921Z</time></trkpt><trkpt lat="31.196835" lon="-5.3442033"><ele>1498.3333333333333</ele><time>2026-04-23T15:07:28.921Z</time></trkpt><trkpt lat="31.196905" lon="-5.3441567"><ele>1499.0</ele><time>2026-04-23T15:07:29.92Z</time></trkpt><trkpt lat="31.196965" lon="-5.3440967"><ele>1499.6666666666665</ele><time>2026-04-23T15:07:30.921Z</time></trkpt><trkpt lat="31.1970233" lon="-5.3440383"><ele>1500.3333333333333</ele><time>2026-04-23T15:07:31.921Z</time></trkpt><trkpt lat="31.197085" lon="-5.3439983"><ele>1501.0</ele><time>2026-04-23T15:07:32.921Z</time></trkpt><trkpt lat="31.19715" lon="-5.3439717"><ele>1501.0</ele><time>2026-04-23T15:07:33.92Z</time></trkpt><trkpt lat="31.197215" lon="-5.3439583"><ele>1501.0</ele><time>2026-04-23T15:07:34.921Z</time></trkpt><trkpt lat="31.197325" lon="-5.34393"><ele>1501.0</ele><time>2026-04-23T15:07:36.92Z</time></trkpt><trkpt lat="31.19743" lon="-5.34386"><ele>1501.0</ele><time>2026-04-23T15:07:38.92Z</time></trkpt><trkpt lat="31.19751" lon="-5.3437483"><ele>1501.0</ele><time>2026-04-23T15:07:40.921Z</time></trkpt><trkpt lat="31.1975367" lon="-5.3436783"><ele>1499.0</ele><time>2026-04-23T15:07:41.921Z</time></trkpt><trkpt lat="31.1975667" lon="-5.3436133"><ele>1497.0</ele><time>2026-04-23T15:07:42.92Z</time></trkpt><trkpt lat="31.1976183" lon="-5.3435017"><ele>1495.0</ele><time>2026-04-23T15:07:44.92Z</time></trkpt><trkpt lat="31.197705" lon="-5.34343"><ele>1493.0</ele><time>2026-04-23T15:07:46.921Z</time></trkpt><trkpt lat="31.1977683" lon="-5.34341"><ele>1491.0</ele><time>2026-04-23T15:07:47.92Z</time></trkpt><trkpt lat="31.19784" lon="-5.3433867"><ele>1489.0</ele><time>2026-04-23T15:07:48.921Z</time></trkpt><trkpt lat="31.1979217" lon="-5.3433667"><ele>1489.0</ele><time>2026-04-23T15:07:49.921Z</time></trkpt><trkpt lat="31.1980083" lon="-5.3433433"><ele>1489.0</ele><time>2026-04-23T15:07:50.921Z</time></trkpt><trkpt lat="31.1981017" lon="-5.3433117"><ele>1489.0</ele><time>2026-04-23T15:07:51.921Z</time></trkpt><trkpt lat="31.1981867" lon="-5.3432683"><ele>1489.0</ele><time>2026-04-23T15:07:52.921Z</time></trkpt><trkpt lat="31.1982733" lon="-5.343235"><ele>1489.0</ele><time>2026-04-23T15:07:53.921Z</time></trkpt><trkpt lat="31.1983617" lon="-5.3432117"><ele>1489.2</ele><time>2026-04-23T15:07:54.921Z</time></trkpt><trkpt lat="31.1984533" lon="-5.3431983"><ele>1489.4</ele><time>2026-04-23T15:07:55.921Z</time></trkpt><trkpt lat="31.1985533" lon="-5.34319"><ele>1489.6</ele><time>2026-04-23T15:07:56.92Z</time></trkpt><trkpt lat="31.1986567" lon="-5.3431833"><ele>1489.8</ele><time>2026-04-23T15:07:57.921Z</time></trkpt><trkpt lat="31.198755" lon="-5.3431683"><ele>1490.0</ele><time>2026-04-23T15:07:58.92Z</time></trkpt><trkpt lat="31.1988467" lon="-5.3431517"><ele>1490.0</ele><time>2026-04-23T15:07:59.921Z</time></trkpt><trkpt lat="31.1989317" lon="-5.3431317"><ele>1490.0</ele><time>2026-04-23T15:08:00.921Z</time></trkpt><trkpt lat="31.1990083" lon="-5.343115"><ele>1490.0</ele><time>2026-04-23T15:08:01.92Z</time></trkpt><trkpt lat="31.1990733" lon="-5.3430883"><ele>1490.0</ele><time>2026-04-23T15:08:02.921Z</time></trkpt><trkpt lat="31.1991283" lon="-5.343045"><ele>1490.0</ele><time>2026-04-23T15:08:03.921Z</time></trkpt><trkpt lat="31.1991867" lon="-5.3429983"><ele>1490.0</ele><time>2026-04-23T15:08:04.92Z</time></trkpt><trkpt lat="31.1992433" lon="-5.3429483"><ele>1490.0</ele><time>2026-04-23T15:08:05.92Z</time></trkpt><trkpt lat="31.1992967" lon="-5.3429"><ele>1488.1666666666667</ele><time>2026-04-23T15:08:06.921Z</time></trkpt><trkpt lat="31.19935" lon="-5.3428483"><ele>1486.3333333333335</ele><time>2026-04-23T15:08:07.92Z</time></trkpt><trkpt lat="31.1994033" lon="-5.34278"><ele>1484.5</ele><time>2026-04-23T15:08:08.921Z</time></trkpt><trkpt lat="31.1994617" lon="-5.3427117"><ele>1482.6666666666667</ele><time>2026-04-23T15:08:09.92Z</time></trkpt><trkpt lat="31.19952" lon="-5.34264"><ele>1480.8333333333333</ele><time>2026-04-23T15:08:10.921Z</time></trkpt><trkpt lat="31.1995783" lon="-5.34256"><ele>1479.0</ele><time>2026-04-23T15:08:11.921Z</time></trkpt><trkpt lat="31.19964" lon="-5.342475"><ele>1479.0</ele><time>2026-04-23T15:08:12.921Z</time></trkpt><trkpt lat="31.1997083" lon="-5.3423933"><ele>1479.0</ele><time>2026-04-23T15:08:13.921Z</time></trkpt><trkpt lat="31.199775" lon="-5.342335"><ele>1479.0</ele><time>2026-04-23T15:08:14.921Z</time></trkpt><trkpt lat="31.1998267" lon="-5.3422867"><ele>1479.0</ele><time>2026-04-23T15:08:15.921Z</time></trkpt><trkpt lat="31.19989" lon="-5.3421667"><ele>1479.0</ele><time>2026-04-23T15:08:17.92Z</time></trkpt><trkpt lat="31.19991" lon="-5.3420933"><ele>1479.0</ele><time>2026-04-23T15:08:18.921Z</time></trkpt><trkpt lat="31.1999217" lon="-5.342015"><ele>1476.5</ele><time>2026-04-23T15:08:19.92Z</time></trkpt><trkpt lat="31.1999333" lon="-5.3419317"><ele>1474.0</ele><time>2026-04-23T15:08:20.921Z</time></trkpt><trkpt lat="31.1999417" lon="-5.341845"><ele>1471.5</ele><time>2026-04-23T15:08:21.921Z</time></trkpt><trkpt lat="31.1999533" lon="-5.34175"><ele>1469.0</ele><time>2026-04-23T15:08:22.921Z</time></trkpt><trkpt lat="31.1999633" lon="-5.341655"><ele>1466.5</ele><time>2026-04-23T15:08:23.921Z</time></trkpt><trkpt lat="31.1999833" lon="-5.3415667"><ele>1464.0</ele><time>2026-04-23T15:08:24.92Z</time></trkpt><trkpt lat="31.20001" lon="-5.3414867"><ele>1464.0</ele><time>2026-04-23T15:08:25.92Z</time></trkpt><trkpt lat="31.2000417" lon="-5.3414217"><ele>1464.0</ele><time>2026-04-23T15:08:26.921Z</time></trkpt><trkpt lat="31.20008" lon="-5.3413617"><ele>1464.0</ele><time>2026-04-23T15:08:27.92Z</time></trkpt><trkpt lat="31.2001267" lon="-5.3413017"><ele>1464.0</ele><time>2026-04-23T15:08:28.921Z</time></trkpt><trkpt lat="31.2001867" lon="-5.3412433"><ele>1464.0</ele><time>2026-04-23T15:08:29.921Z</time></trkpt><trkpt lat="31.2002483" lon="-5.3411833"><ele>1464.0</ele><time>2026-04-23T15:08:30.92Z</time></trkpt><trkpt lat="31.2003133" lon="-5.3411317"><ele>1464.0</ele><time>2026-04-23T15:08:31.921Z</time></trkpt><trkpt lat="31.2003817" lon="-5.3410767"><ele>1463.7142857142858</ele><time>2026-04-23T15:08:32.921Z</time></trkpt><trkpt lat="31.2004433" lon="-5.3410333"><ele>1463.4285714285716</ele><time>2026-04-23T15:08:33.921Z</time></trkpt><trkpt lat="31.2004983" lon="-5.3409883"><ele>1463.142857142857</ele><time>2026-04-23T15:08:34.921Z</time></trkpt><trkpt lat="31.2005433" lon="-5.3409317"><ele>1462.857142857143</ele><time>2026-04-23T15:08:35.921Z</time></trkpt><trkpt lat="31.2005817" lon="-5.340865"><ele>1462.5714285714284</ele><time>2026-04-23T15:08:36.921Z</time></trkpt><trkpt lat="31.200625" lon="-5.340785"><ele>1462.2857142857142</ele><time>2026-04-23T15:08:37.92Z</time></trkpt><trkpt lat="31.200665" lon="-5.3407"><ele>1462.0</ele><time>2026-04-23T15:08:38.921Z</time></trkpt><trkpt lat="31.2007083" lon="-5.34061"><ele>1460.7142857142858</ele><time>2026-04-23T15:08:39.92Z</time></trkpt><trkpt lat="31.2007517" lon="-5.340535"><ele>1459.4285714285713</ele><time>2026-04-23T15:08:40.921Z</time></trkpt><trkpt lat="31.2008033" lon="-5.340475"><ele>1458.1428571428573</ele><time>2026-04-23T15:08:41.921Z</time></trkpt><trkpt lat="31.2008567" lon="-5.3404217"><ele>1456.857142857143</ele><time>2026-04-23T15:08:42.921Z</time></trkpt><trkpt lat="31.2009083" lon="-5.3403617"><ele>1455.5714285714287</ele><time>2026-04-23T15:08:43.921Z</time></trkpt><trkpt lat="31.2009633" lon="-5.3403083"><ele>1454.2857142857144</ele><time>2026-04-23T15:08:44.921Z</time></trkpt><trkpt lat="31.2010083" lon="-5.3402567"><ele>1453.0</ele><time>2026-04-23T15:08:45.921Z</time></trkpt><trkpt lat="31.20106" lon="-5.3402033"><ele>1453.0000000000002</ele><time>2026-04-23T15:08:46.921Z</time></trkpt><trkpt lat="31.201115" lon="-5.34015"><ele>1453.0</ele><time>2026-04-23T15:08:47.921Z</time></trkpt><trkpt lat="31.2011733" lon="-5.3401033"><ele>1453.0</ele><time>2026-04-23T15:08:48.921Z</time></trkpt><trkpt lat="31.2012333" lon="-5.34007"><ele>1453.0</ele><time>2026-04-23T15:08:49.92Z</time></trkpt><trkpt lat="31.2012967" lon="-5.3400367"><ele>1453.0</ele><time>2026-04-23T15:08:50.921Z</time></trkpt><trkpt lat="31.201355" lon="-5.3400033"><ele>1453.0000000000002</ele><time>2026-04-23T15:08:51.921Z</time></trkpt><trkpt lat="31.201425" lon="-5.3399783"><ele>1453.0</ele><time>2026-04-23T15:08:52.92Z</time></trkpt><trkpt lat="31.2015017" lon="-5.3399633"><ele>1449.5</ele><time>2026-04-23T15:08:53.92Z</time></trkpt><trkpt lat="31.2015817" lon="-5.3399617"><ele>1446.0</ele><time>2026-04-23T15:08:54.92Z</time></trkpt><trkpt lat="31.2016633" lon="-5.3399683"><ele>1442.5</ele><time>2026-04-23T15:08:55.92Z</time></trkpt><trkpt lat="31.201745" lon="-5.3399767"><ele>1439.0</ele><time>2026-04-23T15:08:56.92Z</time></trkpt><trkpt lat="31.20183" lon="-5.33998"><ele>1435.5</ele><time>2026-04-23T15:08:57.92Z</time></trkpt><trkpt lat="31.2019117" lon="-5.3399817"><ele>1432.0</ele><time>2026-04-23T15:08:58.92Z</time></trkpt><trkpt lat="31.2019783" lon="-5.3399967"><ele>1432.0</ele><time>2026-04-23T15:08:59.919Z</time></trkpt><trkpt lat="31.2020783" lon="-5.3400583"><ele>1432.0</ele><time>2026-04-23T15:09:01.919Z</time></trkpt><trkpt lat="31.2021617" lon="-5.3401033"><ele>1432.0</ele><time>2026-04-23T15:09:03.92Z</time></trkpt><trkpt lat="31.20225" lon="-5.3401117"><ele>1432.0</ele><time>2026-04-23T15:09:05.92Z</time></trkpt><trkpt lat="31.2023517" lon="-5.3400783"><ele>1432.0</ele><time>2026-04-23T15:09:07.92Z</time></trkpt><trkpt lat="31.2024717" lon="-5.3400733"><ele>1429.6</ele><time>2026-04-23T15:09:09.92Z</time></trkpt><trkpt lat="31.2025583" lon="-5.3401517"><ele>1427.1999999999998</ele><time>2026-04-23T15:09:11.92Z</time></trkpt><trkpt lat="31.202635" lon="-5.3402417"><ele>1424.8</ele><time>2026-04-23T15:09:13.92Z</time></trkpt><trkpt lat="31.2027167" lon="-5.340275"><ele>1422.4</ele><time>2026-04-23T15:09:15.92Z</time></trkpt><trkpt lat="31.202815" lon="-5.340245"><ele>1420.0</ele><time>2026-04-23T15:09:17.92Z</time></trkpt><trkpt lat="31.2029183" lon="-5.3401583"><ele>1420.0</ele><time>2026-04-23T15:09:19.92Z</time></trkpt><trkpt lat="31.20298" lon="-5.3401233"><ele>1420.0</ele><time>2026-04-23T15:09:20.919Z</time></trkpt><trkpt lat="31.2030517" lon="-5.3401017"><ele>1420.0</ele><time>2026-04-23T15:09:21.92Z</time></trkpt><trkpt lat="31.2031267" lon="-5.3400917"><ele>1420.0</ele><time>2026-04-23T15:09:22.92Z</time></trkpt><trkpt lat="31.2032017" lon="-5.34008"><ele>1420.0</ele><time>2026-04-23T15:09:23.919Z</time></trkpt><trkpt lat="31.2032717" lon="-5.3400583"><ele>1420.0</ele><time>2026-04-23T15:09:24.919Z</time></trkpt><trkpt lat="31.2033483" lon="-5.340025"><ele>1420.0</ele><time>2026-04-23T15:09:25.92Z</time></trkpt><trkpt lat="31.20342" lon="-5.3399883"><ele>1418.1666666666665</ele><time>2026-04-23T15:09:26.919Z</time></trkpt><trkpt lat="31.20349" lon="-5.3399417"><ele>1416.3333333333333</ele><time>2026-04-23T15:09:27.919Z</time></trkpt><trkpt lat="31.203565" lon="-5.3399"><ele>1414.5</ele><time>2026-04-23T15:09:28.919Z</time></trkpt><trkpt lat="31.2036517" lon="-5.3398667"><ele>1412.6666666666667</ele><time>2026-04-23T15:09:29.92Z</time></trkpt><trkpt lat="31.2037433" lon="-5.3398517"><ele>1410.8333333333335</ele><time>2026-04-23T15:09:30.92Z</time></trkpt><trkpt lat="31.20383" lon="-5.3398433"><ele>1409.0</ele><time>2026-04-23T15:09:31.92Z</time></trkpt><trkpt lat="31.2039067" lon="-5.3398333"><ele>1409.0</ele><time>2026-04-23T15:09:32.92Z</time></trkpt><trkpt lat="31.20399" lon="-5.3398133"><ele>1409.0</ele><time>2026-04-23T15:09:33.92Z</time></trkpt><trkpt lat="31.2040683" lon="-5.3397917"><ele>1409.0</ele><time>2026-04-23T15:09:34.92Z</time></trkpt><trkpt lat="31.2041483" lon="-5.3397633"><ele>1409.0</ele><time>2026-04-23T15:09:35.919Z</time></trkpt><trkpt lat="31.20423" lon="-5.3397283"><ele>1409.0</ele><time>2026-04-23T15:09:36.92Z</time></trkpt><trkpt lat="31.2043183" lon="-5.3396933"><ele>1409.0</ele><time>2026-04-23T15:09:37.92Z</time></trkpt><trkpt lat="31.2044033" lon="-5.339655"><ele>1406.8333333333335</ele><time>2026-04-23T15:09:38.919Z</time></trkpt><trkpt lat="31.204485" lon="-5.3396133"><ele>1404.6666666666667</ele><time>2026-04-23T15:09:39.92Z</time></trkpt><trkpt lat="31.2045567" lon="-5.3395683"><ele>1402.5</ele><time>2026-04-23T15:09:40.92Z</time></trkpt><trkpt lat="31.204615" lon="-5.3395083"><ele>1400.3333333333333</ele><time>2026-04-23T15:09:41.92Z</time></trkpt><trkpt lat="31.20464" lon="-5.3394317"><ele>1398.1666666666665</ele><time>2026-04-23T15:09:42.92Z</time></trkpt><trkpt lat="31.204655" lon="-5.3393483"><ele>1396.0</ele><time>2026-04-23T15:09:43.919Z</time></trkpt><trkpt lat="31.20466" lon="-5.3392483"><ele>1396.0</ele><time>2026-04-23T15:09:44.92Z</time></trkpt><trkpt lat="31.2046617" lon="-5.3391383"><ele>1396.0</ele><time>2026-04-23T15:09:45.919Z</time></trkpt><trkpt lat="31.204665" lon="-5.3390233"><ele>1396.0</ele><time>2026-04-23T15:09:46.919Z</time></trkpt><trkpt lat="31.2046633" lon="-5.3389083"><ele>1396.0</ele><time>2026-04-23T15:09:47.919Z</time></trkpt><trkpt lat="31.2046517" lon="-5.338795"><ele>1396.0</ele><time>2026-04-23T15:09:48.92Z</time></trkpt><trkpt lat="31.20464" lon="-5.3386817"><ele>1394.8</ele><time>2026-04-23T15:09:49.92Z</time></trkpt><trkpt lat="31.2046233" lon="-5.3385567"><ele>1393.6</ele><time>2026-04-23T15:09:50.919Z</time></trkpt><trkpt lat="31.2046017" lon="-5.33843"><ele>1392.4</ele><time>2026-04-23T15:09:51.919Z</time></trkpt><trkpt lat="31.2045783" lon="-5.338305"><ele>1391.2</ele><time>2026-04-23T15:09:52.92Z</time></trkpt><trkpt lat="31.2045567" lon="-5.33818"><ele>1390.0</ele><time>2026-04-23T15:09:53.92Z</time></trkpt><trkpt lat="31.204535" lon="-5.3380583"><ele>1388.4</ele><time>2026-04-23T15:09:54.92Z</time></trkpt><trkpt lat="31.2045183" lon="-5.3379367"><ele>1386.8</ele><time>2026-04-23T15:09:55.92Z</time></trkpt><trkpt lat="31.2045017" lon="-5.3378183"><ele>1385.1999999999998</ele><time>2026-04-23T15:09:56.92Z</time></trkpt><trkpt lat="31.2044833" lon="-5.3376933"><ele>1383.6</ele><time>2026-04-23T15:09:57.92Z</time></trkpt><trkpt lat="31.2044683" lon="-5.3375617"><ele>1382.0</ele><time>2026-04-23T15:09:58.92Z</time></trkpt><trkpt lat="31.2044567" lon="-5.3374283"><ele>1382.0</ele><time>2026-04-23T15:09:59.919Z</time></trkpt><trkpt lat="31.2044433" lon="-5.337305"><ele>1382.0</ele><time>2026-04-23T15:10:00.919Z</time></trkpt><trkpt lat="31.2044183" lon="-5.3371917"><ele>1382.0</ele><time>2026-04-23T15:10:01.919Z</time></trkpt><trkpt lat="31.2043933" lon="-5.337085"><ele>1382.0</ele><time>2026-04-23T15:10:02.919Z</time></trkpt><trkpt lat="31.2043633" lon="-5.336975"><ele>1382.0</ele><time>2026-04-23T15:10:03.92Z</time></trkpt><trkpt lat="31.2043183" lon="-5.33687"><ele>1381.8</ele><time>2026-04-23T15:10:04.919Z</time></trkpt><trkpt lat="31.2042667" lon="-5.3367783"><ele>1381.6</ele><time>2026-04-23T15:10:05.92Z</time></trkpt><trkpt lat="31.2042167" lon="-5.3366883"><ele>1381.3999999999999</ele><time>2026-04-23T15:10:06.919Z</time></trkpt><trkpt lat="31.2041667" lon="-5.3365933"><ele>1381.1999999999998</ele><time>2026-04-23T15:10:07.92Z</time></trkpt><trkpt lat="31.204115" lon="-5.33651"><ele>1381.0</ele><time>2026-04-23T15:10:08.92Z</time></trkpt><trkpt lat="31.2040617" lon="-5.3364217"><ele>1381.1666666666665</ele><time>2026-04-23T15:10:09.919Z</time></trkpt><trkpt lat="31.2040167" lon="-5.3363333"><ele>1381.3333333333333</ele><time>2026-04-23T15:10:10.92Z</time></trkpt><trkpt lat="31.20396" lon="-5.33626"><ele>1381.5</ele><time>2026-04-23T15:10:11.92Z</time></trkpt><trkpt lat="31.203895" lon="-5.3361967"><ele>1381.6666666666667</ele><time>2026-04-23T15:10:12.92Z</time></trkpt><trkpt lat="31.2038333" lon="-5.336135"><ele>1381.8333333333335</ele><time>2026-04-23T15:10:13.92Z</time></trkpt><trkpt lat="31.2037783" lon="-5.336075"><ele>1382.0</ele><time>2026-04-23T15:10:14.919Z</time></trkpt><trkpt lat="31.2037283" lon="-5.336005"><ele>1379.8333333333335</ele><time>2026-04-23T15:10:15.92Z</time></trkpt><trkpt lat="31.2036883" lon="-5.335925"><ele>1377.6666666666667</ele><time>2026-04-23T15:10:16.919Z</time></trkpt><trkpt lat="31.2036567" lon="-5.3358417"><ele>1375.5</ele><time>2026-04-23T15:10:17.92Z</time></trkpt><trkpt lat="31.2036283" lon="-5.335755"><ele>1373.3333333333333</ele><time>2026-04-23T15:10:18.92Z</time></trkpt><trkpt lat="31.2036183" lon="-5.335675"><ele>1371.1666666666665</ele><time>2026-04-23T15:10:19.919Z</time></trkpt><trkpt lat="31.2036217" lon="-5.3355933"><ele>1369.0</ele><time>2026-04-23T15:10:20.92Z</time></trkpt><trkpt lat="31.2036267" lon="-5.3355033"><ele>1367.8000000000002</ele><time>2026-04-23T15:10:21.92Z</time></trkpt><trkpt lat="31.203635" lon="-5.3354067"><ele>1366.6000000000001</ele><time>2026-04-23T15:10:22.92Z</time></trkpt><trkpt lat="31.20364" lon="-5.3353"><ele>1365.4</ele><time>2026-04-23T15:10:23.92Z</time></trkpt><trkpt lat="31.2036333" lon="-5.33518"><ele>1364.2</ele><time>2026-04-23T15:10:24.92Z</time></trkpt><trkpt lat="31.20363" lon="-5.335045"><ele>1363.0</ele><time>2026-04-23T15:10:25.919Z</time></trkpt><trkpt lat="31.203635" lon="-5.3349017"><ele>1363.0</ele><time>2026-04-23T15:10:26.92Z</time></trkpt><trkpt lat="31.2036417" lon="-5.3347633"><ele>1363.0</ele><time>2026-04-23T15:10:27.92Z</time></trkpt><trkpt lat="31.2036483" lon="-5.3346317"><ele>1363.0</ele><time>2026-04-23T15:10:28.92Z</time></trkpt><trkpt lat="31.20366" lon="-5.33452"><ele>1363.0</ele><time>2026-04-23T15:10:29.92Z</time></trkpt><trkpt lat="31.2036883" lon="-5.3344067"><ele>1363.0</ele><time>2026-04-23T15:10:30.919Z</time></trkpt><trkpt lat="31.2037083" lon="-5.334295"><ele>1361.8000000000002</ele><time>2026-04-23T15:10:31.92Z</time></trkpt><trkpt lat="31.203725" lon="-5.3341767"><ele>1360.6</ele><time>2026-04-23T15:10:32.92Z</time></trkpt><trkpt lat="31.203735" lon="-5.3340567"><ele>1359.4</ele><time>2026-04-23T15:10:33.919Z</time></trkpt><trkpt lat="31.20373" lon="-5.33394"><ele>1358.1999999999998</ele><time>2026-04-23T15:10:34.919Z</time></trkpt><trkpt lat="31.2037283" lon="-5.3338217"><ele>1357.0</ele><time>2026-04-23T15:10:35.92Z</time></trkpt><trkpt lat="31.2037383" lon="-5.3336967"><ele>1355.3999999999999</ele><time>2026-04-23T15:10:36.919Z</time></trkpt><trkpt lat="31.203755" lon="-5.3335733"><ele>1353.8</ele><time>2026-04-23T15:10:37.919Z</time></trkpt><trkpt lat="31.203775" lon="-5.3334517"><ele>1352.2</ele><time>2026-04-23T15:10:38.919Z</time></trkpt><trkpt lat="31.2037967" lon="-5.3333383"><ele>1350.6</ele><time>2026-04-23T15:10:39.919Z</time></trkpt><trkpt lat="31.2038267" lon="-5.333235"><ele>1349.0</ele><time>2026-04-23T15:10:40.92Z</time></trkpt><trkpt lat="31.2038583" lon="-5.333135"><ele>1348.5</ele><time>2026-04-23T15:10:41.92Z</time></trkpt><trkpt lat="31.2038883" lon="-5.333035"><ele>1348.0</ele><time>2026-04-23T15:10:42.92Z</time></trkpt><trkpt lat="31.2039167" lon="-5.332935"><ele>1347.5</ele><time>2026-04-23T15:10:43.92Z</time></trkpt><trkpt lat="31.2039483" lon="-5.33284"><ele>1347.0</ele><time>2026-04-23T15:10:44.92Z</time></trkpt><trkpt lat="31.203995" lon="-5.3327633"><ele>1346.5</ele><time>2026-04-23T15:10:45.919Z</time></trkpt><trkpt lat="31.2040483" lon="-5.3327017"><ele>1346.0</ele><time>2026-04-23T15:10:46.919Z</time></trkpt><trkpt lat="31.2041167" lon="-5.33265"><ele>1346.0</ele><time>2026-04-23T15:10:47.92Z</time></trkpt><trkpt lat="31.2041783" lon="-5.3325883"><ele>1346.0</ele><time>2026-04-23T15:10:48.92Z</time></trkpt><trkpt lat="31.2042333" lon="-5.3325167"><ele>1346.0</ele><time>2026-04-23T15:10:49.919Z</time></trkpt><trkpt lat="31.20428" lon="-5.3324417"><ele>1346.0</ele><time>2026-04-23T15:10:50.919Z</time></trkpt><trkpt lat="31.20433" lon="-5.3323633"><ele>1346.0</ele><time>2026-04-23T15:10:51.92Z</time></trkpt><trkpt lat="31.2043917" lon="-5.3322917"><ele>1346.0</ele><time>2026-04-23T15:10:52.92Z</time></trkpt><trkpt lat="31.2044583" lon="-5.33224"><ele>1345.6666666666667</ele><time>2026-04-23T15:10:53.92Z</time></trkpt><trkpt lat="31.204535" lon="-5.3322083"><ele>1345.3333333333335</ele><time>2026-04-23T15:10:54.919Z</time></trkpt><trkpt lat="31.204615" lon="-5.3321867"><ele>1345.0</ele><time>2026-04-23T15:10:55.919Z</time></trkpt><trkpt lat="31.2046933" lon="-5.332165"><ele>1344.6666666666667</ele><time>2026-04-23T15:10:56.92Z</time></trkpt><trkpt lat="31.204765" lon="-5.332135"><ele>1344.3333333333333</ele><time>2026-04-23T15:10:57.919Z</time></trkpt><trkpt lat="31.2048217" lon="-5.3321"><ele>1344.0</ele><time>2026-04-23T15:10:58.919Z</time></trkpt><trkpt lat="31.2048767" lon="-5.3319783"><ele>1344.0</ele><time>2026-04-23T15:11:00.92Z</time></trkpt><trkpt lat="31.204865" lon="-5.3318483"><ele>1344.0</ele><time>2026-04-23T15:11:02.92Z</time></trkpt><trkpt lat="31.2048533" lon="-5.33177"><ele>1344.0</ele><time>2026-04-23T15:11:03.92Z</time></trkpt><trkpt lat="31.2048433" lon="-5.3316933"><ele>1344.0</ele><time>2026-04-23T15:11:04.92Z</time></trkpt><trkpt lat="31.20483" lon="-5.331605"><ele>1344.0</ele><time>2026-04-23T15:11:05.919Z</time></trkpt><trkpt lat="31.2048233" lon="-5.3315083"><ele>1344.0</ele><time>2026-04-23T15:11:06.92Z</time></trkpt><trkpt lat="31.20482" lon="-5.3314017"><ele>1342.1666666666667</ele><time>2026-04-23T15:11:07.92Z</time></trkpt><trkpt lat="31.2048183" lon="-5.3312967"><ele>1340.3333333333333</ele><time>2026-04-23T15:11:08.92Z</time></trkpt><trkpt lat="31.2048333" lon="-5.3312033"><ele>1338.5</ele><time>2026-04-23T15:11:09.92Z</time></trkpt><trkpt lat="31.2048683" lon="-5.3311217"><ele>1336.6666666666665</ele><time>2026-04-23T15:11:10.92Z</time></trkpt><trkpt lat="31.2049183" lon="-5.3310533"><ele>1334.8333333333333</ele><time>2026-04-23T15:11:11.92Z</time></trkpt><trkpt lat="31.204975" lon="-5.330985"><ele>1333.0</ele><time>2026-04-23T15:11:12.92Z</time></trkpt><trkpt lat="31.20504" lon="-5.3309133"><ele>1333.0</ele><time>2026-04-23T15:11:13.92Z</time></trkpt><trkpt lat="31.2051" lon="-5.3308433"><ele>1333.0</ele><time>2026-04-23T15:11:14.92Z</time></trkpt><trkpt lat="31.20515" lon="-5.3307617"><ele>1333.0</ele><time>2026-04-23T15:11:15.919Z</time></trkpt><trkpt lat="31.2051867" lon="-5.3306783"><ele>1333.0</ele><time>2026-04-23T15:11:16.919Z</time></trkpt><trkpt lat="31.2051967" lon="-5.3305967"><ele>1333.0</ele><time>2026-04-23T15:11:17.92Z</time></trkpt><trkpt lat="31.2051967" lon="-5.3304517"><ele>1333.0</ele><time>2026-04-23T15:11:19.92Z</time></trkpt><trkpt lat="31.20521" lon="-5.33037"><ele>1331.0</ele><time>2026-04-23T15:11:20.92Z</time></trkpt><trkpt lat="31.2052483" lon="-5.330275"><ele>1329.0</ele><time>2026-04-23T15:11:21.92Z</time></trkpt><trkpt lat="31.2052867" lon="-5.3301733"><ele>1327.0</ele><time>2026-04-23T15:11:22.92Z</time></trkpt><trkpt lat="31.2053317" lon="-5.3300617"><ele>1325.0</ele><time>2026-04-23T15:11:23.92Z</time></trkpt><trkpt lat="31.205365" lon="-5.3299583"><ele>1323.0</ele><time>2026-04-23T15:11:24.92Z</time></trkpt><trkpt lat="31.2054" lon="-5.3298633"><ele>1323.0</ele><time>2026-04-23T15:11:25.92Z</time></trkpt><trkpt lat="31.2054383" lon="-5.329775"><ele>1323.0</ele><time>2026-04-23T15:11:26.92Z</time></trkpt><trkpt lat="31.2054783" lon="-5.32968"><ele>1323.0</ele><time>2026-04-23T15:11:27.92Z</time></trkpt><trkpt lat="31.2055333" lon="-5.3295967"><ele>1323.0</ele><time>2026-04-23T15:11:28.92Z</time></trkpt><trkpt lat="31.20558" lon="-5.32951"><ele>1323.0</ele><time>2026-04-23T15:11:29.92Z</time></trkpt><trkpt lat="31.205615" lon="-5.3294183"><ele>1323.0</ele><time>2026-04-23T15:11:30.92Z</time></trkpt><trkpt lat="31.20563" lon="-5.3293233"><ele>1323.4</ele><time>2026-04-23T15:11:31.92Z</time></trkpt><trkpt lat="31.2056583" lon="-5.3292383"><ele>1323.8000000000002</ele><time>2026-04-23T15:11:32.92Z</time></trkpt><trkpt lat="31.205695" lon="-5.3291383"><ele>1324.2</ele><time>2026-04-23T15:11:33.92Z</time></trkpt><trkpt lat="31.205745" lon="-5.3290383"><ele>1324.6</ele><time>2026-04-23T15:11:34.919Z</time></trkpt><trkpt lat="31.2058" lon="-5.3289333"><ele>1325.0</ele><time>2026-04-23T15:11:35.92Z</time></trkpt><trkpt lat="31.2058467" lon="-5.3288483"><ele>1325.0</ele><time>2026-04-23T15:11:36.92Z</time></trkpt><trkpt lat="31.2058967" lon="-5.3287817"><ele>1325.0</ele><time>2026-04-23T15:11:37.919Z</time></trkpt><trkpt lat="31.205955" lon="-5.3287283"><ele>1325.0</ele><time>2026-04-23T15:11:38.92Z</time></trkpt><trkpt lat="31.2060217" lon="-5.32868"><ele>1325.0</ele><time>2026-04-23T15:11:39.92Z</time></trkpt><trkpt lat="31.206075" lon="-5.3286233"><ele>1325.0</ele><time>2026-04-23T15:11:40.92Z</time></trkpt><trkpt lat="31.2061117" lon="-5.32856"><ele>1325.0</ele><time>2026-04-23T15:11:41.919Z</time></trkpt><trkpt lat="31.206125" lon="-5.3284833"><ele>1325.0</ele><time>2026-04-23T15:11:42.92Z</time></trkpt><trkpt lat="31.206115" lon="-5.3284033"><ele>1325.0</ele><time>2026-04-23T15:11:43.919Z</time></trkpt><trkpt lat="31.2061" lon="-5.3283217"><ele>1325.0</ele><time>2026-04-23T15:11:44.92Z</time></trkpt><trkpt lat="31.20608" lon="-5.3282333"><ele>1325.0</ele><time>2026-04-23T15:11:45.919Z</time></trkpt><trkpt lat="31.2060583" lon="-5.328145"><ele>1325.0</ele><time>2026-04-23T15:11:46.919Z</time></trkpt><trkpt lat="31.20603" lon="-5.3280533"><ele>1325.0</ele><time>2026-04-23T15:11:47.92Z</time></trkpt><trkpt lat="31.2059967" lon="-5.327955"><ele>1325.0</ele><time>2026-04-23T15:11:48.92Z</time></trkpt><trkpt lat="31.205965" lon="-5.3278583"><ele>1326.3333333333335</ele><time>2026-04-23T15:11:49.919Z</time></trkpt><trkpt lat="31.2059283" lon="-5.327765"><ele>1327.6666666666667</ele><time>2026-04-23T15:11:50.92Z</time></trkpt><trkpt lat="31.2059" lon="-5.3276683"><ele>1329.0</ele><time>2026-04-23T15:11:51.92Z</time></trkpt><trkpt lat="31.2058867" lon="-5.3275783"><ele>1330.3333333333333</ele><time>2026-04-23T15:11:52.919Z</time></trkpt><trkpt lat="31.205885" lon="-5.3274933"><ele>1331.6666666666665</ele><time>2026-04-23T15:11:53.919Z</time></trkpt><trkpt lat="31.2058917" lon="-5.3274"><ele>1333.0</ele><time>2026-04-23T15:11:54.92Z</time></trkpt><trkpt lat="31.2059167" lon="-5.3273083"><ele>1332.8000000000002</ele><time>2026-04-23T15:11:55.92Z</time></trkpt><trkpt lat="31.2059467" lon="-5.3272083"><ele>1332.6</ele><time>2026-04-23T15:11:56.92Z</time></trkpt><trkpt lat="31.205975" lon="-5.3270967"><ele>1332.4</ele><time>2026-04-23T15:11:57.92Z</time></trkpt><trkpt lat="31.206005" lon="-5.326985"><ele>1332.1999999999998</ele><time>2026-04-23T15:11:58.92Z</time></trkpt><trkpt lat="31.20603" lon="-5.32687"><ele>1332.0</ele><time>2026-04-23T15:11:59.92Z</time></trkpt><trkpt lat="31.2060533" lon="-5.3267533"><ele>1332.0</ele><time>2026-04-23T15:12:00.92Z</time></trkpt><trkpt lat="31.2060783" lon="-5.3266383"><ele>1332.0</ele><time>2026-04-23T15:12:01.92Z</time></trkpt><trkpt lat="31.2061067" lon="-5.3265267"><ele>1332.0</ele><time>2026-04-23T15:12:02.92Z</time></trkpt><trkpt lat="31.2061283" lon="-5.3264217"><ele>1332.0</ele><time>2026-04-23T15:12:03.92Z</time></trkpt><trkpt lat="31.2061367" lon="-5.3263133"><ele>1332.0</ele><time>2026-04-23T15:12:04.919Z</time></trkpt><trkpt lat="31.2061417" lon="-5.3262067"><ele>1330.8</ele><time>2026-04-23T15:12:05.92Z</time></trkpt><trkpt lat="31.2061467" lon="-5.3261017"><ele>1329.6</ele><time>2026-04-23T15:12:06.919Z</time></trkpt><trkpt lat="31.2061583" lon="-5.325985"><ele>1328.3999999999999</ele><time>2026-04-23T15:12:07.919Z</time></trkpt><trkpt lat="31.20617" lon="-5.32586"><ele>1327.1999999999998</ele><time>2026-04-23T15:12:08.92Z</time></trkpt><trkpt lat="31.2061833" lon="-5.325735"><ele>1326.0</ele><time>2026-04-23T15:12:09.92Z</time></trkpt><trkpt lat="31.2061917" lon="-5.3256183"><ele>1325.6</ele><time>2026-04-23T15:12:10.92Z</time></trkpt><trkpt lat="31.2061833" lon="-5.3255067"><ele>1325.1999999999998</ele><time>2026-04-23T15:12:11.919Z</time></trkpt><trkpt lat="31.2061567" lon="-5.325405"><ele>1324.8000000000002</ele><time>2026-04-23T15:12:12.92Z</time></trkpt><trkpt lat="31.2061233" lon="-5.3253067"><ele>1324.4</ele><time>2026-04-23T15:12:13.92Z</time></trkpt><trkpt lat="31.206085" lon="-5.325205"><ele>1324.0</ele><time>2026-04-23T15:12:14.919Z</time></trkpt><trkpt lat="31.2060333" lon="-5.3251033"><ele>1324.0</ele><time>2026-04-23T15:12:15.92Z</time></trkpt><trkpt lat="31.20598" lon="-5.3250033"><ele>1324.0</ele><time>2026-04-23T15:12:16.92Z</time></trkpt><trkpt lat="31.2059217" lon="-5.3249083"><ele>1324.0</ele><time>2026-04-23T15:12:17.919Z</time></trkpt><trkpt lat="31.2058667" lon="-5.3248267"><ele>1324.0</ele><time>2026-04-23T15:12:18.92Z</time></trkpt><trkpt lat="31.2058117" lon="-5.3247467"><ele>1324.0</ele><time>2026-04-23T15:12:19.919Z</time></trkpt><trkpt lat="31.205755" lon="-5.3246683"><ele>1323.3333333333333</ele><time>2026-04-23T15:12:20.92Z</time></trkpt><trkpt lat="31.2056967" lon="-5.324585"><ele>1322.6666666666665</ele><time>2026-04-23T15:12:21.92Z</time></trkpt><trkpt lat="31.2056383" lon="-5.3245067"><ele>1322.0</ele><time>2026-04-23T15:12:22.919Z</time></trkpt><trkpt lat="31.205585" lon="-5.3244417"><ele>1321.3333333333333</ele><time>2026-04-23T15:12:23.919Z</time></trkpt><trkpt lat="31.20552" lon="-5.3243917"><ele>1320.6666666666667</ele><time>2026-04-23T15:12:24.919Z</time></trkpt><trkpt lat="31.2054433" lon="-5.3243517"><ele>1320.0</ele><time>2026-04-23T15:12:25.92Z</time></trkpt><trkpt lat="31.2053533" lon="-5.324315"><ele>1319.25</ele><time>2026-04-23T15:12:26.92Z</time></trkpt><trkpt lat="31.205255" lon="-5.3242917"><ele>1318.5</ele><time>2026-04-23T15:12:27.919Z</time></trkpt><trkpt lat="31.2051417" lon="-5.3242633"><ele>1317.75</ele><time>2026-04-23T15:12:28.92Z</time></trkpt><trkpt lat="31.2050167" lon="-5.3242367"><ele>1317.0</ele><time>2026-04-23T15:12:29.92Z</time></trkpt><trkpt lat="31.204905" lon="-5.3242017"><ele>1316.8</ele><time>2026-04-23T15:12:30.92Z</time></trkpt><trkpt lat="31.2048033" lon="-5.3241583"><ele>1316.6</ele><time>2026-04-23T15:12:31.92Z</time></trkpt><trkpt lat="31.2047067" lon="-5.324115"><ele>1316.3999999999999</ele><time>2026-04-23T15:12:32.92Z</time></trkpt><trkpt lat="31.2046117" lon="-5.3240717"><ele>1316.1999999999998</ele><time>2026-04-23T15:12:33.92Z</time></trkpt><trkpt lat="31.2045367" lon="-5.3240233"><ele>1316.0</ele><time>2026-04-23T15:12:34.92Z</time></trkpt><trkpt lat="31.2044633" lon="-5.32397"><ele>1316.0</ele><time>2026-04-23T15:12:35.92Z</time></trkpt><trkpt lat="31.2044033" lon="-5.32391"><ele>1316.0</ele><time>2026-04-23T15:12:36.92Z</time></trkpt><trkpt lat="31.2043517" lon="-5.3238417"><ele>1316.0</ele><time>2026-04-23T15:12:37.919Z</time></trkpt><trkpt lat="31.2043" lon="-5.3237717"><ele>1316.0</ele><time>2026-04-23T15:12:38.92Z</time></trkpt><trkpt lat="31.2042383" lon="-5.323715"><ele>1316.0</ele><time>2026-04-23T15:12:39.919Z</time></trkpt><trkpt lat="31.2041817" lon="-5.32366"><ele>1316.0</ele><time>2026-04-23T15:12:40.92Z</time></trkpt><trkpt lat="31.2041333" lon="-5.3235933"><ele>1314.8333333333335</ele><time>2026-04-23T15:12:41.919Z</time></trkpt><trkpt lat="31.2041" lon="-5.323515"><ele>1313.6666666666667</ele><time>2026-04-23T15:12:42.92Z</time></trkpt><trkpt lat="31.2040767" lon="-5.323435"><ele>1312.5</ele><time>2026-04-23T15:12:43.919Z</time></trkpt><trkpt lat="31.20406" lon="-5.32335"><ele>1311.3333333333333</ele><time>2026-04-23T15:12:44.92Z</time></trkpt><trkpt lat="31.204035" lon="-5.32327"><ele>1310.1666666666665</ele><time>2026-04-23T15:12:45.92Z</time></trkpt><trkpt lat="31.2039917" lon="-5.3231883"><ele>1309.0</ele><time>2026-04-23T15:12:46.92Z</time></trkpt><trkpt lat="31.2039317" lon="-5.3231117"><ele>1307.1666666666665</ele><time>2026-04-23T15:12:47.92Z</time></trkpt><trkpt lat="31.2038683" lon="-5.323035"><ele>1305.3333333333333</ele><time>2026-04-23T15:12:48.92Z</time></trkpt><trkpt lat="31.2038" lon="-5.3229617"><ele>1303.5</ele><time>2026-04-23T15:12:49.92Z</time></trkpt><trkpt lat="31.2037267" lon="-5.322905"><ele>1301.6666666666667</ele><time>2026-04-23T15:12:50.92Z</time></trkpt><trkpt lat="31.203655" lon="-5.3228683"><ele>1299.8333333333335</ele><time>2026-04-23T15:12:51.919Z</time></trkpt><trkpt lat="31.203595" lon="-5.322835"><ele>1298.0</ele><time>2026-04-23T15:12:52.92Z</time></trkpt><trkpt lat="31.2035417" lon="-5.322795"><ele>1298.0</ele><time>2026-04-23T15:12:53.92Z</time></trkpt><trkpt lat="31.2034833" lon="-5.3226883"><ele>1298.0</ele><time>2026-04-23T15:12:55.919Z</time></trkpt><trkpt lat="31.2034967" lon="-5.3225633"><ele>1298.0</ele><time>2026-04-23T15:12:57.92Z</time></trkpt><trkpt lat="31.2035333" lon="-5.3224467"><ele>1298.0</ele><time>2026-04-23T15:12:59.92Z</time></trkpt><trkpt lat="31.20355" lon="-5.322335"><ele>1298.0</ele><time>2026-04-23T15:13:01.919Z</time></trkpt><trkpt lat="31.2035167" lon="-5.3222383"><ele>1295.6666666666667</ele><time>2026-04-23T15:13:03.92Z</time></trkpt><trkpt lat="31.203465" lon="-5.3221583"><ele>1293.3333333333335</ele><time>2026-04-23T15:13:05.92Z</time></trkpt><trkpt lat="31.20345" lon="-5.3220567"><ele>1291.0</ele><time>2026-04-23T15:13:07.92Z</time></trkpt><trkpt lat="31.2034817" lon="-5.3219583"><ele>1288.6666666666667</ele><time>2026-04-23T15:13:09.92Z</time></trkpt><trkpt lat="31.203545" lon="-5.32188"><ele>1286.3333333333333</ele><time>2026-04-23T15:13:11.92Z</time></trkpt><trkpt lat="31.2036017" lon="-5.3218033"><ele>1284.0</ele><time>2026-04-23T15:13:13.919Z</time></trkpt><trkpt lat="31.20365" lon="-5.3217067"><ele>1284.0</ele><time>2026-04-23T15:13:15.92Z</time></trkpt><trkpt lat="31.2036983" lon="-5.3216"><ele>1284.0</ele><time>2026-04-23T15:13:17.919Z</time></trkpt><trkpt lat="31.2037267" lon="-5.3215067"><ele>1284.0</ele><time>2026-04-23T15:13:19.92Z</time></trkpt><trkpt lat="31.2037267" lon="-5.3214033"><ele>1284.0</ele><time>2026-04-23T15:13:21.92Z</time></trkpt><trkpt lat="31.2037483" lon="-5.3212967"><ele>1284.0</ele><time>2026-04-23T15:13:23.92Z</time></trkpt><trkpt lat="31.2038167" lon="-5.3212217"><ele>1282.4</ele><time>2026-04-23T15:13:25.92Z</time></trkpt><trkpt lat="31.2039067" lon="-5.3212133"><ele>1280.8000000000002</ele><time>2026-04-23T15:13:27.92Z</time></trkpt><trkpt lat="31.20401" lon="-5.3212117"><ele>1279.1999999999998</ele><time>2026-04-23T15:13:29.92Z</time></trkpt><trkpt lat="31.2041333" lon="-5.3211833"><ele>1277.6</ele><time>2026-04-23T15:13:31.92Z</time></trkpt><trkpt lat="31.2042017" lon="-5.3211533"><ele>1276.0</ele><time>2026-04-23T15:13:32.92Z</time></trkpt><trkpt lat="31.2042567" lon="-5.32111"><ele>1276.0</ele><time>2026-04-23T15:13:33.92Z</time></trkpt><trkpt lat="31.2043017" lon="-5.321055"><ele>1276.0</ele><time>2026-04-23T15:13:34.92Z</time></trkpt><trkpt lat="31.204365" lon="-5.32094"><ele>1276.0</ele><time>2026-04-23T15:13:36.919Z</time></trkpt><trkpt lat="31.204435" lon="-5.32082"><ele>1276.0</ele><time>2026-04-23T15:13:38.918Z</time></trkpt><trkpt lat="31.20448" lon="-5.3207567"><ele>1276.0</ele><time>2026-04-23T15:13:39.918Z</time></trkpt><trkpt lat="31.20452" lon="-5.32069"><ele>1276.0</ele><time>2026-04-23T15:13:40.919Z</time></trkpt><trkpt lat="31.20455" lon="-5.320615"><ele>1274.8333333333333</ele><time>2026-04-23T15:13:41.919Z</time></trkpt><trkpt lat="31.2045617" lon="-5.32053"><ele>1273.6666666666665</ele><time>2026-04-23T15:13:42.919Z</time></trkpt><trkpt lat="31.204565" lon="-5.3204417"><ele>1272.5</ele><time>2026-04-23T15:13:43.919Z</time></trkpt><trkpt lat="31.2045583" lon="-5.3203517"><ele>1271.3333333333333</ele><time>2026-04-23T15:13:44.919Z</time></trkpt><trkpt lat="31.2045433" lon="-5.3202633"><ele>1270.1666666666667</ele><time>2026-04-23T15:13:45.919Z</time></trkpt><trkpt lat="31.2045333" lon="-5.3201883"><ele>1269.0</ele><time>2026-04-23T15:13:46.919Z</time></trkpt><trkpt lat="31.20453" lon="-5.320075"><ele>1269.0</ele><time>2026-04-23T15:13:48.919Z</time></trkpt><trkpt lat="31.2045917" lon="-5.3199867"><ele>1269.0</ele><time>2026-04-23T15:13:50.918Z</time></trkpt><trkpt lat="31.2046483" lon="-5.3199483"><ele>1269.0</ele><time>2026-04-23T15:13:51.919Z</time></trkpt><trkpt lat="31.2047183" lon="-5.3198983"><ele>1269.0</ele><time>2026-04-23T15:13:52.919Z</time></trkpt><trkpt lat="31.2047917" lon="-5.31984"><ele>1269.0</ele><time>2026-04-23T15:13:53.919Z</time></trkpt><trkpt lat="31.2048633" lon="-5.3197683"><ele>1269.0</ele><time>2026-04-23T15:13:54.919Z</time></trkpt><trkpt lat="31.2049417" lon="-5.3196683"><ele>1265.8</ele><time>2026-04-23T15:13:55.919Z</time></trkpt><trkpt lat="31.2050217" lon="-5.3195633"><ele>1262.6000000000001</ele><time>2026-04-23T15:13:56.919Z</time></trkpt><trkpt lat="31.2050917" lon="-5.3194517"><ele>1259.4</ele><time>2026-04-23T15:13:57.919Z</time></trkpt><trkpt lat="31.2051517" lon="-5.31935"><ele>1256.2</ele><time>2026-04-23T15:13:58.919Z</time></trkpt><trkpt lat="31.2052033" lon="-5.3192667"><ele>1253.0</ele><time>2026-04-23T15:13:59.919Z</time></trkpt><trkpt lat="31.20525" lon="-5.319195"><ele>1253.0</ele><time>2026-04-23T15:14:00.919Z</time></trkpt><trkpt lat="31.205305" lon="-5.3191517"><ele>1253.0</ele><time>2026-04-23T15:14:01.919Z</time></trkpt><trkpt lat="31.205435" lon="-5.3191217"><ele>1253.0</ele><time>2026-04-23T15:14:03.919Z</time></trkpt><trkpt lat="31.2055483" lon="-5.3191067"><ele>1253.0</ele><time>2026-04-23T15:14:05.919Z</time></trkpt><trkpt lat="31.20565" lon="-5.3190317"><ele>1253.0</ele><time>2026-04-23T15:14:07.918Z</time></trkpt><trkpt lat="31.205685" lon="-5.318965"><ele>1251.2857142857142</ele><time>2026-04-23T15:14:08.919Z</time></trkpt><trkpt lat="31.205705" lon="-5.3188883"><ele>1249.5714285714284</ele><time>2026-04-23T15:14:09.919Z</time></trkpt><trkpt lat="31.2057183" lon="-5.3188083"><ele>1247.857142857143</ele><time>2026-04-23T15:14:10.919Z</time></trkpt><trkpt lat="31.2057217" lon="-5.31872"><ele>1246.142857142857</ele><time>2026-04-23T15:14:11.918Z</time></trkpt><trkpt lat="31.2057033" lon="-5.3186283"><ele>1244.4285714285713</ele><time>2026-04-23T15:14:12.919Z</time></trkpt><trkpt lat="31.20567" lon="-5.3185483"><ele>1242.7142857142858</ele><time>2026-04-23T15:14:13.919Z</time></trkpt><trkpt lat="31.2056317" lon="-5.3184767"><ele>1241.0</ele><time>2026-04-23T15:14:14.919Z</time></trkpt><trkpt lat="31.205595" lon="-5.3183967"><ele>1241.0</ele><time>2026-04-23T15:14:15.918Z</time></trkpt><trkpt lat="31.2055583" lon="-5.3183083"><ele>1241.0</ele><time>2026-04-23T15:14:16.919Z</time></trkpt><trkpt lat="31.2055267" lon="-5.318225"><ele>1241.0</ele><time>2026-04-23T15:14:17.918Z</time></trkpt><trkpt lat="31.205495" lon="-5.318145"><ele>1241.0</ele><time>2026-04-23T15:14:18.919Z</time></trkpt><trkpt lat="31.20545" lon="-5.318075"><ele>1241.0</ele><time>2026-04-23T15:14:19.919Z</time></trkpt><trkpt lat="31.20539" lon="-5.318025"><ele>1241.0</ele><time>2026-04-23T15:14:20.919Z</time></trkpt><trkpt lat="31.2053333" lon="-5.3179733"><ele>1239.6666666666667</ele><time>2026-04-23T15:14:21.919Z</time></trkpt><trkpt lat="31.2053" lon="-5.3179083"><ele>1238.3333333333335</ele><time>2026-04-23T15:14:22.919Z</time></trkpt><trkpt lat="31.2052833" lon="-5.3178367"><ele>1237.0</ele><time>2026-04-23T15:14:23.919Z</time></trkpt><trkpt lat="31.205315" lon="-5.3176983"><ele>1235.6666666666667</ele><time>2026-04-23T15:14:25.919Z</time></trkpt><trkpt lat="31.205355" lon="-5.3176217"><ele>1234.3333333333333</ele><time>2026-04-23T15:14:26.919Z</time></trkpt><trkpt lat="31.2054017" lon="-5.3175267"><ele>1233.0</ele><time>2026-04-23T15:14:27.918Z</time></trkpt><trkpt lat="31.205445" lon="-5.317425"><ele>1233.0</ele><time>2026-04-23T15:14:28.919Z</time></trkpt><trkpt lat="31.2054833" lon="-5.3173167"><ele>1233.0</ele><time>2026-04-23T15:14:29.919Z</time></trkpt><trkpt lat="31.2055167" lon="-5.31721"><ele>1233.0</ele><time>2026-04-23T15:14:30.919Z</time></trkpt><trkpt lat="31.205545" lon="-5.3171067"><ele>1233.0</ele><time>2026-04-23T15:14:31.919Z</time></trkpt><trkpt lat="31.2055733" lon="-5.3170017"><ele>1233.0</ele><time>2026-04-23T15:14:32.919Z</time></trkpt><trkpt lat="31.205605" lon="-5.31692"><ele>1231.3333333333333</ele><time>2026-04-23T15:14:33.919Z</time></trkpt><trkpt lat="31.2056433" lon="-5.3168483"><ele>1229.6666666666667</ele><time>2026-04-23T15:14:34.919Z</time></trkpt><trkpt lat="31.205695" lon="-5.3167967"><ele>1228.0</ele><time>2026-04-23T15:14:35.919Z</time></trkpt><trkpt lat="31.2057583" lon="-5.316755"><ele>1226.3333333333335</ele><time>2026-04-23T15:14:36.919Z</time></trkpt><trkpt lat="31.205835" lon="-5.31671"><ele>1224.6666666666667</ele><time>2026-04-23T15:14:37.919Z</time></trkpt><trkpt lat="31.2059117" lon="-5.3166583"><ele>1223.0</ele><time>2026-04-23T15:14:38.919Z</time></trkpt><trkpt lat="31.20599" lon="-5.3166083"><ele>1223.0</ele><time>2026-04-23T15:14:39.918Z</time></trkpt><trkpt lat="31.2060767" lon="-5.316565"><ele>1223.0</ele><time>2026-04-23T15:14:40.919Z</time></trkpt><trkpt lat="31.206165" lon="-5.3165267"><ele>1223.0</ele><time>2026-04-23T15:14:41.918Z</time></trkpt><trkpt lat="31.2062567" lon="-5.3164883"><ele>1223.0</ele><time>2026-04-23T15:14:42.919Z</time></trkpt><trkpt lat="31.2063383" lon="-5.3164283"><ele>1223.0</ele><time>2026-04-23T15:14:43.918Z</time></trkpt><trkpt lat="31.2064067" lon="-5.31635"><ele>1221.3333333333335</ele><time>2026-04-23T15:14:44.919Z</time></trkpt><trkpt lat="31.2064633" lon="-5.3162767"><ele>1219.6666666666667</ele><time>2026-04-23T15:14:45.919Z</time></trkpt><trkpt lat="31.2065267" lon="-5.3161983"><ele>1218.0</ele><time>2026-04-23T15:14:46.919Z</time></trkpt><trkpt lat="31.206595" lon="-5.3161283"><ele>1216.3333333333333</ele><time>2026-04-23T15:14:47.918Z</time></trkpt><trkpt lat="31.2066617" lon="-5.3160617"><ele>1214.6666666666665</ele><time>2026-04-23T15:14:48.918Z</time></trkpt><trkpt lat="31.2067067" lon="-5.3159733"><ele>1213.0</ele><time>2026-04-23T15:14:49.918Z</time></trkpt><trkpt lat="31.2067367" lon="-5.31589"><ele>1212.5714285714287</ele><time>2026-04-23T15:14:50.918Z</time></trkpt><trkpt lat="31.20675" lon="-5.3158083"><ele>1212.142857142857</ele><time>2026-04-23T15:14:51.919Z</time></trkpt><trkpt lat="31.20676" lon="-5.31572"><ele>1211.7142857142858</ele><time>2026-04-23T15:14:52.919Z</time></trkpt><trkpt lat="31.2067667" lon="-5.3156333"><ele>1211.2857142857142</ele><time>2026-04-23T15:14:53.918Z</time></trkpt><trkpt lat="31.2067683" lon="-5.31555"><ele>1210.857142857143</ele><time>2026-04-23T15:14:54.919Z</time></trkpt><trkpt lat="31.2067833" lon="-5.31547"><ele>1210.4285714285713</ele><time>2026-04-23T15:14:55.918Z</time></trkpt><trkpt lat="31.2068167" lon="-5.3153967"><ele>1210.0</ele><time>2026-04-23T15:14:56.919Z</time></trkpt><trkpt lat="31.206865" lon="-5.3153367"><ele>1209.3333333333333</ele><time>2026-04-23T15:14:57.918Z</time></trkpt><trkpt lat="31.2069227" lon="-5.3152916"><ele>1208.6666666666665</ele><time>2026-04-23T15:14:58.918Z</time></trkpt><trkpt lat="31.2069941" lon="-5.3152501"><ele>1208.0</ele><time>2026-04-23T15:14:59.919Z</time></trkpt><trkpt lat="31.2070718" lon="-5.3152028"><ele>1207.3333333333333</ele><time>2026-04-23T15:15:00.918Z</time></trkpt><trkpt lat="31.2071446" lon="-5.3151492"><ele>1206.6666666666667</ele><time>2026-04-23T15:15:01.918Z</time></trkpt><trkpt lat="31.2072095" lon="-5.3150843"><ele>1206.0</ele><time>2026-04-23T15:15:02.918Z</time></trkpt><trkpt lat="31.2072684" lon="-5.3150127"><ele>1206.0</ele><time>2026-04-23T15:15:03.919Z</time></trkpt><trkpt lat="31.2073244" lon="-5.3149374"><ele>1206.0</ele><time>2026-04-23T15:15:04.919Z</time></trkpt><trkpt lat="31.2073801" lon="-5.3148594"><ele>1206.0</ele><time>2026-04-23T15:15:05.919Z</time></trkpt><trkpt lat="31.2074363" lon="-5.3147837"><ele>1206.0</ele><time>2026-04-23T15:15:06.919Z</time></trkpt><trkpt lat="31.2074903" lon="-5.3147116"><ele>1206.0</ele><time>2026-04-23T15:15:07.919Z</time></trkpt><trkpt lat="31.2075433" lon="-5.3146461"><ele>1206.0</ele><time>2026-04-23T15:15:08.919Z</time></trkpt><trkpt lat="31.2075922" lon="-5.314582"><ele>1204.6666666666667</ele><time>2026-04-23T15:15:09.919Z</time></trkpt><trkpt lat="31.2076365" lon="-5.3145168"><ele>1203.3333333333333</ele><time>2026-04-23T15:15:10.919Z</time></trkpt><trkpt lat="31.2076819" lon="-5.3144465"><ele>1202.0</ele><time>2026-04-23T15:15:11.919Z</time></trkpt><trkpt lat="31.2077316" lon="-5.3143775"><ele>1200.6666666666665</ele><time>2026-04-23T15:15:12.919Z</time></trkpt><trkpt lat="31.2077871" lon="-5.3143114"><ele>1199.3333333333333</ele><time>2026-04-23T15:15:13.918Z</time></trkpt><trkpt lat="31.2078478" lon="-5.3142466"><ele>1198.0</ele><time>2026-04-23T15:15:14.919Z</time></trkpt><trkpt lat="31.2079125" lon="-5.3141785"><ele>1198.0</ele><time>2026-04-23T15:15:15.919Z</time></trkpt><trkpt lat="31.2079792" lon="-5.3141093"><ele>1198.0</ele><time>2026-04-23T15:15:16.919Z</time></trkpt><trkpt lat="31.2080443" lon="-5.3140351"><ele>1198.0</ele><time>2026-04-23T15:15:17.919Z</time></trkpt><trkpt lat="31.2081029" lon="-5.3139552"><ele>1198.0</ele><time>2026-04-23T15:15:18.918Z</time></trkpt><trkpt lat="31.2081582" lon="-5.313874"><ele>1198.0</ele><time>2026-04-23T15:15:19.919Z</time></trkpt><trkpt lat="31.208215" lon="-5.3137997"><ele>1198.0</ele><time>2026-04-23T15:15:20.919Z</time></trkpt><trkpt lat="31.2082717" lon="-5.3137375"><ele>1198.0</ele><time>2026-04-23T15:15:21.919Z</time></trkpt><trkpt lat="31.2083272" lon="-5.3137023"><ele>1198.0</ele><time>2026-04-23T15:15:22.919Z</time></trkpt><trkpt lat="31.2084405" lon="-5.3137092"><ele>1198.0</ele><time>2026-04-23T15:15:24.918Z</time></trkpt><trkpt lat="31.2085009" lon="-5.313742"><ele>1198.0</ele><time>2026-04-23T15:15:25.918Z</time></trkpt><trkpt lat="31.208566" lon="-5.3137893"><ele>1198.0</ele><time>2026-04-23T15:15:26.919Z</time></trkpt><trkpt lat="31.2086337" lon="-5.3138483"><ele>1198.0</ele><time>2026-04-23T15:15:27.918Z</time></trkpt><trkpt lat="31.2087024" lon="-5.3139215"><ele>1198.0</ele><time>2026-04-23T15:15:28.919Z</time></trkpt><trkpt lat="31.2087673" lon="-5.3140001"><ele>1198.0</ele><time>2026-04-23T15:15:29.919Z</time></trkpt><trkpt lat="31.2088311" lon="-5.3140691"><ele>1198.0</ele><time>2026-04-23T15:15:30.918Z</time></trkpt><trkpt lat="31.2089017" lon="-5.3141283"><ele>1198.0</ele><time>2026-04-23T15:15:31.918Z</time></trkpt><trkpt lat="31.2089683" lon="-5.3141717"><ele>1198.0</ele><time>2026-04-23T15:15:32.918Z</time></trkpt><trkpt lat="31.209035" lon="-5.3141983"><ele>1198.0</ele><time>2026-04-23T15:15:33.919Z</time></trkpt><trkpt lat="31.2091017" lon="-5.3142133"><ele>1197.8333333333333</ele><time>2026-04-23T15:15:34.919Z</time></trkpt><trkpt lat="31.2091683" lon="-5.314225"><ele>1197.6666666666665</ele><time>2026-04-23T15:15:35.919Z</time></trkpt><trkpt lat="31.2092417" lon="-5.314235"><ele>1197.5</ele><time>2026-04-23T15:15:36.919Z</time></trkpt><trkpt lat="31.20932" lon="-5.3142367"><ele>1197.3333333333333</ele><time>2026-04-23T15:15:37.919Z</time></trkpt><trkpt lat="31.2094117" lon="-5.3142383"><ele>1197.1666666666667</ele><time>2026-04-23T15:15:38.918Z</time></trkpt><trkpt lat="31.209515" lon="-5.31425"><ele>1197.0</ele><time>2026-04-23T15:15:39.919Z</time></trkpt><trkpt lat="31.2096233" lon="-5.3142583"><ele>1197.0</ele><time>2026-04-23T15:15:40.919Z</time></trkpt><trkpt lat="31.2097233" lon="-5.3142717"><ele>1197.0</ele><time>2026-04-23T15:15:41.919Z</time></trkpt><trkpt lat="31.209825" lon="-5.3142867"><ele>1197.0</ele><time>2026-04-23T15:15:42.919Z</time></trkpt><trkpt lat="31.2099317" lon="-5.3143"><ele>1197.0</ele><time>2026-04-23T15:15:43.918Z</time></trkpt><trkpt lat="31.2100383" lon="-5.3143083"><ele>1197.0</ele><time>2026-04-23T15:15:44.919Z</time></trkpt><trkpt lat="31.21014" lon="-5.3143167"><ele>1196.8</ele><time>2026-04-23T15:15:45.919Z</time></trkpt><trkpt lat="31.2102417" lon="-5.3143283"><ele>1196.6</ele><time>2026-04-23T15:15:46.919Z</time></trkpt><trkpt lat="31.2103467" lon="-5.314345"><ele>1196.3999999999999</ele><time>2026-04-23T15:15:47.918Z</time></trkpt><trkpt lat="31.21045" lon="-5.3143583"><ele>1196.2</ele><time>2026-04-23T15:15:48.919Z</time></trkpt><trkpt lat="31.2105517" lon="-5.3143633"><ele>1196.0</ele><time>2026-04-23T15:15:49.919Z</time></trkpt><trkpt lat="31.2106633" lon="-5.314355"><ele>1195.6</ele><time>2026-04-23T15:15:50.919Z</time></trkpt><trkpt lat="31.2107767" lon="-5.3143417"><ele>1195.1999999999998</ele><time>2026-04-23T15:15:51.919Z</time></trkpt><trkpt lat="31.21089" lon="-5.3143267"><ele>1194.8000000000002</ele><time>2026-04-23T15:15:52.918Z</time></trkpt><trkpt lat="31.2109917" lon="-5.3143017"><ele>1194.4</ele><time>2026-04-23T15:15:53.918Z</time></trkpt><trkpt lat="31.2110867" lon="-5.3142717"><ele>1194.0</ele><time>2026-04-23T15:15:54.919Z</time></trkpt><trkpt lat="31.21118" lon="-5.31423"><ele>1194.0</ele><time>2026-04-23T15:15:55.919Z</time></trkpt><trkpt lat="31.2112733" lon="-5.314175"><ele>1194.0</ele><time>2026-04-23T15:15:56.919Z</time></trkpt><trkpt lat="31.2113633" lon="-5.31413"><ele>1194.0</ele><time>2026-04-23T15:15:57.919Z</time></trkpt><trkpt lat="31.2114483" lon="-5.3140633"><ele>1194.0</ele><time>2026-04-23T15:15:58.919Z</time></trkpt><trkpt lat="31.211535" lon="-5.3139883"><ele>1194.0</ele><time>2026-04-23T15:15:59.919Z</time></trkpt><trkpt lat="31.2116283" lon="-5.3139217"><ele>1194.0</ele><time>2026-04-23T15:16:00.919Z</time></trkpt><trkpt lat="31.2117183" lon="-5.31387"><ele>1194.0</ele><time>2026-04-23T15:16:01.919Z</time></trkpt><trkpt lat="31.211805" lon="-5.3138133"><ele>1194.0</ele><time>2026-04-23T15:16:02.918Z</time></trkpt><trkpt lat="31.211885" lon="-5.313745"><ele>1194.0</ele><time>2026-04-23T15:16:03.919Z</time></trkpt><trkpt lat="31.2119633" lon="-5.31366"><ele>1194.0</ele><time>2026-04-23T15:16:04.918Z</time></trkpt><trkpt lat="31.21204" lon="-5.3135783"><ele>1194.0</ele><time>2026-04-23T15:16:05.918Z</time></trkpt><trkpt lat="31.21213" lon="-5.3135033"><ele>1194.0</ele><time>2026-04-23T15:16:06.918Z</time></trkpt><trkpt lat="31.212225" lon="-5.31345"><ele>1194.0</ele><time>2026-04-23T15:16:07.919Z</time></trkpt><trkpt lat="31.2123267" lon="-5.3134167"><ele>1194.0</ele><time>2026-04-23T15:16:08.918Z</time></trkpt><trkpt lat="31.2124333" lon="-5.3133983"><ele>1194.0</ele><time>2026-04-23T15:16:09.919Z</time></trkpt><trkpt lat="31.2125367" lon="-5.313395"><ele>1192.0</ele><time>2026-04-23T15:16:10.918Z</time></trkpt><trkpt lat="31.2126333" lon="-5.3133917"><ele>1190.0</ele><time>2026-04-23T15:16:11.918Z</time></trkpt><trkpt lat="31.2127317" lon="-5.31338"><ele>1188.0</ele><time>2026-04-23T15:16:12.919Z</time></trkpt><trkpt lat="31.2128133" lon="-5.3133517"><ele>1186.0</ele><time>2026-04-23T15:16:13.918Z</time></trkpt><trkpt lat="31.212895" lon="-5.3133033"><ele>1184.0</ele><time>2026-04-23T15:16:14.918Z</time></trkpt><trkpt lat="31.2129617" lon="-5.3132317"><ele>1184.0</ele><time>2026-04-23T15:16:15.918Z</time></trkpt><trkpt lat="31.2130233" lon="-5.3131467"><ele>1184.0</ele><time>2026-04-23T15:16:16.919Z</time></trkpt><trkpt lat="31.213075" lon="-5.3130683"><ele>1184.0</ele><time>2026-04-23T15:16:17.919Z</time></trkpt><trkpt lat="31.2131267" lon="-5.312995"><ele>1184.0</ele><time>2026-04-23T15:16:18.919Z</time></trkpt><trkpt lat="31.21319" lon="-5.31293"><ele>1184.0</ele><time>2026-04-23T15:16:19.919Z</time></trkpt><trkpt lat="31.2132683" lon="-5.3128883"><ele>1184.0</ele><time>2026-04-23T15:16:20.919Z</time></trkpt><trkpt lat="31.21334" lon="-5.3128667"><ele>1183.5714285714287</ele><time>2026-04-23T15:16:21.919Z</time></trkpt><trkpt lat="31.2134117" lon="-5.312865"><ele>1183.142857142857</ele><time>2026-04-23T15:16:22.919Z</time></trkpt><trkpt lat="31.213485" lon="-5.312875"><ele>1182.7142857142858</ele><time>2026-04-23T15:16:23.918Z</time></trkpt><trkpt lat="31.21355" lon="-5.31289"><ele>1182.2857142857142</ele><time>2026-04-23T15:16:24.919Z</time></trkpt><trkpt lat="31.213615" lon="-5.31292"><ele>1181.857142857143</ele><time>2026-04-23T15:16:25.919Z</time></trkpt><trkpt lat="31.2136833" lon="-5.3129567"><ele>1181.4285714285716</ele><time>2026-04-23T15:16:26.918Z</time></trkpt><trkpt lat="31.2137517" lon="-5.3129933"><ele>1181.0</ele><time>2026-04-23T15:16:27.919Z</time></trkpt><trkpt lat="31.2138317" lon="-5.313035"><ele>1180.6</ele><time>2026-04-23T15:16:28.918Z</time></trkpt><trkpt lat="31.2139167" lon="-5.3130917"><ele>1180.1999999999998</ele><time>2026-04-23T15:16:29.918Z</time></trkpt><trkpt lat="31.2140033" lon="-5.3131567"><ele>1179.8000000000002</ele><time>2026-04-23T15:16:30.919Z</time></trkpt><trkpt lat="31.2140817" lon="-5.3132267"><ele>1179.4</ele><time>2026-04-23T15:16:31.919Z</time></trkpt><trkpt lat="31.2141517" lon="-5.3132933"><ele>1179.0</ele><time>2026-04-23T15:16:32.918Z</time></trkpt><trkpt lat="31.2142167" lon="-5.31336"><ele>1179.0</ele><time>2026-04-23T15:16:33.918Z</time></trkpt><trkpt lat="31.21428" lon="-5.3134283"><ele>1179.0</ele><time>2026-04-23T15:16:34.919Z</time></trkpt><trkpt lat="31.2143417" lon="-5.3134983"><ele>1179.0</ele><time>2026-04-23T15:16:35.918Z</time></trkpt><trkpt lat="31.2144067" lon="-5.3135617"><ele>1179.0</ele><time>2026-04-23T15:16:36.918Z</time></trkpt><trkpt lat="31.2144767" lon="-5.3136217"><ele>1179.0</ele><time>2026-04-23T15:16:37.918Z</time></trkpt><trkpt lat="31.2145433" lon="-5.3136767"><ele>1179.0</ele><time>2026-04-23T15:16:38.918Z</time></trkpt><trkpt lat="31.2145983" lon="-5.313735"><ele>1179.0</ele><time>2026-04-23T15:16:39.919Z</time></trkpt><trkpt lat="31.214645" lon="-5.3137983"><ele>1179.0</ele><time>2026-04-23T15:16:40.919Z</time></trkpt><trkpt lat="31.214695" lon="-5.31387"><ele>1179.0</ele><time>2026-04-23T15:16:41.919Z</time></trkpt><trkpt lat="31.214755" lon="-5.31393"><ele>1179.0</ele><time>2026-04-23T15:16:42.919Z</time></trkpt><trkpt lat="31.2148283" lon="-5.3139983"><ele>1179.0</ele><time>2026-04-23T15:16:44.919Z</time></trkpt><trkpt lat="31.2148983" lon="-5.3140467"><ele>1179.0</ele><time>2026-04-23T15:17:17.918Z</time></trkpt><trkpt lat="31.214995" lon="-5.3140633"><ele>1178.8333333333333</ele><time>2026-04-23T15:17:19.918Z</time></trkpt><trkpt lat="31.2150667" lon="-5.3140617"><ele>1178.6666666666667</ele><time>2026-04-23T15:17:21.919Z</time></trkpt><trkpt lat="31.2151483" lon="-5.314055"><ele>1178.5</ele><time>2026-04-23T15:17:47.919Z</time></trkpt><trkpt lat="31.2152483" lon="-5.3140117"><ele>1178.3333333333335</ele><time>2026-04-23T15:17:49.919Z</time></trkpt><trkpt lat="31.2153067" lon="-5.3139667"><ele>1178.1666666666667</ele><time>2026-04-23T15:17:50.919Z</time></trkpt><trkpt lat="31.2153633" lon="-5.3139167"><ele>1178.0</ele><time>2026-04-23T15:17:51.919Z</time></trkpt><trkpt lat="31.2154233" lon="-5.3138683"><ele>1177.4285714285713</ele><time>2026-04-23T15:17:52.919Z</time></trkpt><trkpt lat="31.21548" lon="-5.3138183"><ele>1176.8571428571427</ele><time>2026-04-23T15:17:53.919Z</time></trkpt><trkpt lat="31.2155383" lon="-5.31377"><ele>1176.2857142857142</ele><time>2026-04-23T15:17:54.919Z</time></trkpt><trkpt lat="31.2156017" lon="-5.3137217"><ele>1175.7142857142858</ele><time>2026-04-23T15:17:55.918Z</time></trkpt><trkpt lat="31.2156633" lon="-5.31367"><ele>1175.1428571428573</ele><time>2026-04-23T15:17:56.918Z</time></trkpt><trkpt lat="31.21573" lon="-5.3136283"><ele>1174.5714285714287</ele><time>2026-04-23T15:17:57.919Z</time></trkpt><trkpt lat="31.2158" lon="-5.3135917"><ele>1174.0</ele><time>2026-04-23T15:17:58.919Z</time></trkpt><trkpt lat="31.2158683" lon="-5.31355"><ele>1174.0</ele><time>2026-04-23T15:17:59.919Z</time></trkpt><trkpt lat="31.21593" lon="-5.3134983"><ele>1174.0</ele><time>2026-04-23T15:18:00.919Z</time></trkpt><trkpt lat="31.2159833" lon="-5.3134367"><ele>1174.0</ele><time>2026-04-23T15:18:01.919Z</time></trkpt><trkpt lat="31.2160433" lon="-5.3133733"><ele>1174.0</ele><time>2026-04-23T15:18:02.919Z</time></trkpt><trkpt lat="31.21611" lon="-5.3133117"><ele>1174.0</ele><time>2026-04-23T15:18:03.919Z</time></trkpt><trkpt lat="31.2161817" lon="-5.313265"><ele>1174.0</ele><time>2026-04-23T15:18:04.918Z</time></trkpt><trkpt lat="31.2162533" lon="-5.3132233"><ele>1174.0</ele><time>2026-04-23T15:18:05.919Z</time></trkpt><trkpt lat="31.2163267" lon="-5.31318"><ele>1174.0</ele><time>2026-04-23T15:18:06.918Z</time></trkpt><trkpt lat="31.2164" lon="-5.3131433"><ele>1174.0</ele><time>2026-04-23T15:18:07.919Z</time></trkpt><trkpt lat="31.2164583" lon="-5.3131133"><ele>1174.0</ele><time>2026-04-23T15:18:08.919Z</time></trkpt><trkpt lat="31.2165167" lon="-5.313045"><ele>1174.0</ele><time>2026-04-23T15:18:10.918Z</time></trkpt><trkpt lat="31.2165333" lon="-5.3129733"><ele>1174.0</ele><time>2026-04-23T15:18:12.919Z</time></trkpt><trkpt lat="31.2165067" lon="-5.3128983"><ele>1174.0</ele><time>2026-04-23T15:18:14.919Z</time></trkpt><trkpt lat="31.216445" lon="-5.3128167"><ele>1173.5</ele><time>2026-04-23T15:18:16.918Z</time></trkpt><trkpt lat="31.2164" lon="-5.3127017"><ele>1173.0</ele><time>2026-04-23T15:18:18.918Z</time></trkpt><trkpt lat="31.2163917" lon="-5.3126217"><ele>1172.5</ele><time>2026-04-23T15:18:19.918Z</time></trkpt><trkpt lat="31.2163917" lon="-5.31253"><ele>1172.0</ele><time>2026-04-23T15:18:20.918Z</time></trkpt><trkpt lat="31.2163933" lon="-5.3124267"><ele>1171.5</ele><time>2026-04-23T15:18:21.917Z</time></trkpt><trkpt lat="31.216405" lon="-5.31231"><ele>1171.0</ele><time>2026-04-23T15:18:22.918Z</time></trkpt><trkpt lat="31.21642" lon="-5.3122067"><ele>1169.6666666666665</ele><time>2026-04-23T15:18:23.918Z</time></trkpt><trkpt lat="31.2164483" lon="-5.312115"><ele>1168.3333333333333</ele><time>2026-04-23T15:18:24.917Z</time></trkpt><trkpt lat="31.21648" lon="-5.3120267"><ele>1167.0</ele><time>2026-04-23T15:18:25.918Z</time></trkpt><trkpt lat="31.21652" lon="-5.311945"><ele>1165.6666666666667</ele><time>2026-04-23T15:18:26.918Z</time></trkpt><trkpt lat="31.21657" lon="-5.3118733"><ele>1164.3333333333335</ele><time>2026-04-23T15:18:27.918Z</time></trkpt><trkpt lat="31.2166333" lon="-5.3118167"><ele>1163.0</ele><time>2026-04-23T15:18:28.918Z</time></trkpt><trkpt lat="31.2166967" lon="-5.3117783"><ele>1161.6</ele><time>2026-04-23T15:18:29.918Z</time></trkpt><trkpt lat="31.2167933" lon="-5.311745"><ele>1160.1999999999998</ele><time>2026-04-23T15:18:31.918Z</time></trkpt><trkpt lat="31.216875" lon="-5.3117783"><ele>1158.8</ele><time>2026-04-23T15:18:33.918Z</time></trkpt><trkpt lat="31.216965" lon="-5.3118533"><ele>1157.3999999999999</ele><time>2026-04-23T15:18:35.918Z</time></trkpt><trkpt lat="31.2170517" lon="-5.31183"><ele>1156.0</ele><time>2026-04-23T15:18:37.917Z</time></trkpt><trkpt lat="31.2171533" lon="-5.31172"><ele>1156.0</ele><time>2026-04-23T15:18:39.918Z</time></trkpt><trkpt lat="31.2172217" lon="-5.3116517"><ele>1156.0</ele><time>2026-04-23T15:18:40.918Z</time></trkpt><trkpt lat="31.2173" lon="-5.31159"><ele>1156.0</ele><time>2026-04-23T15:18:41.918Z</time></trkpt><trkpt lat="31.2173733" lon="-5.3115233"><ele>1156.0</ele><time>2026-04-23T15:18:42.918Z</time></trkpt><trkpt lat="31.2174367" lon="-5.31145"><ele>1156.0</ele><time>2026-04-23T15:18:43.918Z</time></trkpt><trkpt lat="31.2174833" lon="-5.3113733"><ele>1156.0</ele><time>2026-04-23T15:18:44.918Z</time></trkpt><trkpt lat="31.217525" lon="-5.3112933"><ele>1153.7142857142858</ele><time>2026-04-23T15:18:45.918Z</time></trkpt><trkpt lat="31.2175583" lon="-5.3112133"><ele>1151.4285714285713</ele><time>2026-04-23T15:18:46.918Z</time></trkpt><trkpt lat="31.2175717" lon="-5.31113"><ele>1149.142857142857</ele><time>2026-04-23T15:18:47.918Z</time></trkpt><trkpt lat="31.2175717" lon="-5.3110467"><ele>1146.857142857143</ele><time>2026-04-23T15:18:48.918Z</time></trkpt><trkpt lat="31.2175633" lon="-5.310965"><ele>1144.5714285714287</ele><time>2026-04-23T15:18:49.918Z</time></trkpt><trkpt lat="31.2175617" lon="-5.310885"><ele>1142.2857142857142</ele><time>2026-04-23T15:18:50.918Z</time></trkpt><trkpt lat="31.2175667" lon="-5.3108"><ele>1140.0</ele><time>2026-04-23T15:18:51.918Z</time></trkpt><trkpt lat="31.2175817" lon="-5.3107083"><ele>1140.0</ele><time>2026-04-23T15:18:52.918Z</time></trkpt><trkpt lat="31.2175983" lon="-5.31062"><ele>1140.0</ele><time>2026-04-23T15:18:53.918Z</time></trkpt><trkpt lat="31.2176" lon="-5.310525"><ele>1140.0</ele><time>2026-04-23T15:18:54.917Z</time></trkpt><trkpt lat="31.217595" lon="-5.3104433"><ele>1140.0</ele><time>2026-04-23T15:18:55.918Z</time></trkpt><trkpt lat="31.2176" lon="-5.3103117"><ele>1140.0</ele><time>2026-04-23T15:18:57.918Z</time></trkpt><trkpt lat="31.217665" lon="-5.3102417"><ele>1140.0</ele><time>2026-04-23T15:18:59.918Z</time></trkpt><trkpt lat="31.217775" lon="-5.310215"><ele>1138.6666666666667</ele><time>2026-04-23T15:19:01.918Z</time></trkpt><trkpt lat="31.217855" lon="-5.3102083"><ele>1137.3333333333333</ele><time>2026-04-23T15:19:02.918Z</time></trkpt><trkpt lat="31.21794" lon="-5.3101917"><ele>1136.0</ele><time>2026-04-23T15:19:03.918Z</time></trkpt><trkpt lat="31.2180183" lon="-5.310165"><ele>1134.6666666666665</ele><time>2026-04-23T15:19:04.918Z</time></trkpt><trkpt lat="31.218085" lon="-5.3101183"><ele>1133.3333333333333</ele><time>2026-04-23T15:19:05.918Z</time></trkpt><trkpt lat="31.2181483" lon="-5.31006"><ele>1132.0</ele><time>2026-04-23T15:19:06.918Z</time></trkpt><trkpt lat="31.2182083" lon="-5.31"><ele>1130.2</ele><time>2026-04-23T15:19:07.918Z</time></trkpt><trkpt lat="31.2182567" lon="-5.3099417"><ele>1128.4</ele><time>2026-04-23T15:19:08.917Z</time></trkpt><trkpt lat="31.218295" lon="-5.30988"><ele>1126.6</ele><time>2026-04-23T15:19:09.918Z</time></trkpt><trkpt lat="31.2183167" lon="-5.3097733"><ele>1124.8</ele><time>2026-04-23T15:19:11.918Z</time></trkpt><trkpt lat="31.218295" lon="-5.3096433"><ele>1123.0</ele><time>2026-04-23T15:19:13.918Z</time></trkpt><trkpt lat="31.2182983" lon="-5.3095"><ele>1122.7142857142856</ele><time>2026-04-23T15:19:15.917Z</time></trkpt><trkpt lat="31.2183117" lon="-5.3094233"><ele>1122.4285714285713</ele><time>2026-04-23T15:19:16.918Z</time></trkpt><trkpt lat="31.2183183" lon="-5.3093467"><ele>1122.142857142857</ele><time>2026-04-23T15:19:17.917Z</time></trkpt><trkpt lat="31.2183117" lon="-5.30927"><ele>1121.8571428571427</ele><time>2026-04-23T15:19:18.918Z</time></trkpt><trkpt lat="31.21829" lon="-5.30919"><ele>1121.5714285714284</ele><time>2026-04-23T15:19:19.917Z</time></trkpt><trkpt lat="31.2182433" lon="-5.309115"><ele>1121.2857142857142</ele><time>2026-04-23T15:19:20.918Z</time></trkpt><trkpt lat="31.2181917" lon="-5.309045"><ele>1121.0</ele><time>2026-04-23T15:19:21.918Z</time></trkpt><trkpt lat="31.2181383" lon="-5.308985"><ele>1121.1666666666667</ele><time>2026-04-23T15:19:22.918Z</time></trkpt><trkpt lat="31.2180867" lon="-5.3089267"><ele>1121.3333333333335</ele><time>2026-04-23T15:19:23.918Z</time></trkpt><trkpt lat="31.2180417" lon="-5.3088667"><ele>1121.5</ele><time>2026-04-23T15:19:24.917Z</time></trkpt><trkpt lat="31.2180033" lon="-5.3088033"><ele>1121.6666666666667</ele><time>2026-04-23T15:19:25.918Z</time></trkpt><trkpt lat="31.2179767" lon="-5.308675"><ele>1121.8333333333333</ele><time>2026-04-23T15:19:27.918Z</time></trkpt><trkpt lat="31.218015" lon="-5.30855"><ele>1122.0</ele><time>2026-04-23T15:19:29.917Z</time></trkpt><trkpt lat="31.2180517" lon="-5.3084883"><ele>1122.0</ele><time>2026-04-23T15:19:30.917Z</time></trkpt><trkpt lat="31.21811" lon="-5.3084267"><ele>1122.0</ele><time>2026-04-23T15:19:31.917Z</time></trkpt><trkpt lat="31.21819" lon="-5.3083683"><ele>1122.0</ele><time>2026-04-23T15:19:32.918Z</time></trkpt><trkpt lat="31.218275" lon="-5.3083117"><ele>1122.0</ele><time>2026-04-23T15:19:33.918Z</time></trkpt><trkpt lat="31.218355" lon="-5.30825"><ele>1122.0</ele><time>2026-04-23T15:19:34.918Z</time></trkpt><trkpt lat="31.21842" lon="-5.3081733"><ele>1120.8</ele><time>2026-04-23T15:19:35.918Z</time></trkpt><trkpt lat="31.21849" lon="-5.3081017"><ele>1119.6</ele><time>2026-04-23T15:19:36.917Z</time></trkpt><trkpt lat="31.2185633" lon="-5.3080367"><ele>1118.3999999999999</ele><time>2026-04-23T15:19:37.917Z</time></trkpt><trkpt lat="31.2186417" lon="-5.3079783"><ele>1117.2</ele><time>2026-04-23T15:19:38.918Z</time></trkpt><trkpt lat="31.2187217" lon="-5.3079317"><ele>1116.0</ele><time>2026-04-23T15:19:39.917Z</time></trkpt><trkpt lat="31.218795" lon="-5.3078817"><ele>1116.0</ele><time>2026-04-23T15:19:40.918Z</time></trkpt><trkpt lat="31.2188717" lon="-5.30783"><ele>1116.0</ele><time>2026-04-23T15:19:41.918Z</time></trkpt><trkpt lat="31.218955" lon="-5.3077667"><ele>1116.0</ele><time>2026-04-23T15:19:42.918Z</time></trkpt><trkpt lat="31.2190383" lon="-5.3076983"><ele>1116.0</ele><time>2026-04-23T15:19:43.918Z</time></trkpt><trkpt lat="31.2191183" lon="-5.3076317"><ele>1116.0</ele><time>2026-04-23T15:19:44.917Z</time></trkpt><trkpt lat="31.2192" lon="-5.3075717"><ele>1114.8</ele><time>2026-04-23T15:19:45.918Z</time></trkpt><trkpt lat="31.2192767" lon="-5.3075033"><ele>1113.6</ele><time>2026-04-23T15:19:46.917Z</time></trkpt><trkpt lat="31.2193483" lon="-5.3074333"><ele>1112.4</ele><time>2026-04-23T15:19:47.918Z</time></trkpt><trkpt lat="31.219415" lon="-5.3073583"><ele>1111.2</ele><time>2026-04-23T15:19:48.918Z</time></trkpt><trkpt lat="31.21948" lon="-5.3072833"><ele>1110.0</ele><time>2026-04-23T15:19:49.918Z</time></trkpt><trkpt lat="31.219545" lon="-5.3072183"><ele>1110.0</ele><time>2026-04-23T15:19:50.918Z</time></trkpt><trkpt lat="31.2196117" lon="-5.30715"><ele>1110.0</ele><time>2026-04-23T15:19:51.918Z</time></trkpt><trkpt lat="31.2196817" lon="-5.30707"><ele>1110.0</ele><time>2026-04-23T15:19:52.918Z</time></trkpt><trkpt lat="31.219745" lon="-5.3069983"><ele>1110.0</ele><time>2026-04-23T15:19:53.917Z</time></trkpt><trkpt lat="31.2198017" lon="-5.306915"><ele>1110.0</ele><time>2026-04-23T15:19:54.918Z</time></trkpt><trkpt lat="31.2198533" lon="-5.3068283"><ele>1107.3333333333333</ele><time>2026-04-23T15:19:55.918Z</time></trkpt><trkpt lat="31.2199083" lon="-5.3067433"><ele>1104.6666666666667</ele><time>2026-04-23T15:19:56.918Z</time></trkpt><trkpt lat="31.2199517" lon="-5.3066567"><ele>1102.0</ele><time>2026-04-23T15:19:57.918Z</time></trkpt><trkpt lat="31.219995" lon="-5.3065667"><ele>1099.3333333333335</ele><time>2026-04-23T15:19:58.918Z</time></trkpt><trkpt lat="31.2200283" lon="-5.306475"><ele>1096.6666666666667</ele><time>2026-04-23T15:19:59.918Z</time></trkpt><trkpt lat="31.2200633" lon="-5.3063833"><ele>1094.0</ele><time>2026-04-23T15:20:00.918Z</time></trkpt><trkpt lat="31.2200983" lon="-5.30628"><ele>1093.5</ele><time>2026-04-23T15:20:01.918Z</time></trkpt><trkpt lat="31.220145" lon="-5.306165"><ele>1093.0</ele><time>2026-04-23T15:20:02.918Z</time></trkpt><trkpt lat="31.2201933" lon="-5.3060317"><ele>1092.5</ele><time>2026-04-23T15:20:03.918Z</time></trkpt><trkpt lat="31.2202467" lon="-5.3059"><ele>1092.0</ele><time>2026-04-23T15:20:04.918Z</time></trkpt><trkpt lat="31.220295" lon="-5.3057683"><ele>1092.0</ele><time>2026-04-23T15:20:05.918Z</time></trkpt><trkpt lat="31.22034" lon="-5.3056417"><ele>1092.0</ele><time>2026-04-23T15:20:06.918Z</time></trkpt><trkpt lat="31.22038" lon="-5.3055083"><ele>1092.0</ele><time>2026-04-23T15:20:07.918Z</time></trkpt><trkpt lat="31.220415" lon="-5.3053733"><ele>1092.0</ele><time>2026-04-23T15:20:08.917Z</time></trkpt><trkpt lat="31.2204583" lon="-5.3052433"><ele>1089.75</ele><time>2026-04-23T15:20:09.918Z</time></trkpt><trkpt lat="31.2204967" lon="-5.3051133"><ele>1087.5</ele><time>2026-04-23T15:20:10.918Z</time></trkpt><trkpt lat="31.2205233" lon="-5.3049817"><ele>1085.25</ele><time>2026-04-23T15:20:11.918Z</time></trkpt><trkpt lat="31.22054" lon="-5.304855"><ele>1083.0</ele><time>2026-04-23T15:20:12.918Z</time></trkpt><trkpt lat="31.2205417" lon="-5.3047283"><ele>1082.4</ele><time>2026-04-23T15:20:13.918Z</time></trkpt><trkpt lat="31.220535" lon="-5.3046033"><ele>1081.8</ele><time>2026-04-23T15:20:14.917Z</time></trkpt><trkpt lat="31.2205233" lon="-5.3044833"><ele>1081.2</ele><time>2026-04-23T15:20:15.918Z</time></trkpt><trkpt lat="31.2205067" lon="-5.304365"><ele>1080.6</ele><time>2026-04-23T15:20:16.917Z</time></trkpt><trkpt lat="31.2204917" lon="-5.30425"><ele>1080.0</ele><time>2026-04-23T15:20:17.918Z</time></trkpt><trkpt lat="31.2204833" lon="-5.3041383"><ele>1080.0</ele><time>2026-04-23T15:20:18.917Z</time></trkpt><trkpt lat="31.2204817" lon="-5.3040333"><ele>1080.0</ele><time>2026-04-23T15:20:19.917Z</time></trkpt><trkpt lat="31.2204883" lon="-5.3039333"><ele>1080.0</ele><time>2026-04-23T15:20:20.917Z</time></trkpt><trkpt lat="31.2204983" lon="-5.3038383"><ele>1080.0</ele><time>2026-04-23T15:20:21.918Z</time></trkpt><trkpt lat="31.22052" lon="-5.3037433"><ele>1080.0</ele><time>2026-04-23T15:20:22.918Z</time></trkpt><trkpt lat="31.2205567" lon="-5.303645"><ele>1080.0</ele><time>2026-04-23T15:20:23.918Z</time></trkpt><trkpt lat="31.2206067" lon="-5.3035333"><ele>1078.2</ele><time>2026-04-23T15:20:24.918Z</time></trkpt><trkpt lat="31.2206533" lon="-5.3034183"><ele>1076.4</ele><time>2026-04-23T15:20:25.918Z</time></trkpt><trkpt lat="31.2207" lon="-5.3033083"><ele>1074.6</ele><time>2026-04-23T15:20:26.918Z</time></trkpt><trkpt lat="31.220755" lon="-5.3031917"><ele>1072.8</ele><time>2026-04-23T15:20:27.917Z</time></trkpt><trkpt lat="31.2208217" lon="-5.303075"><ele>1071.0</ele><time>2026-04-23T15:20:28.918Z</time></trkpt><trkpt lat="31.2208817" lon="-5.30296"><ele>1069.25</ele><time>2026-04-23T15:20:29.918Z</time></trkpt><trkpt lat="31.220945" lon="-5.3028467"><ele>1067.5</ele><time>2026-04-23T15:20:30.918Z</time></trkpt><trkpt lat="31.2210133" lon="-5.3027283"><ele>1065.75</ele><time>2026-04-23T15:20:31.918Z</time></trkpt><trkpt lat="31.2210867" lon="-5.3026133"><ele>1064.0</ele><time>2026-04-23T15:20:32.918Z</time></trkpt><trkpt lat="31.2211633" lon="-5.3025017"><ele>1064.0</ele><time>2026-04-23T15:20:33.918Z</time></trkpt><trkpt lat="31.2212467" lon="-5.3023983"><ele>1064.0</ele><time>2026-04-23T15:20:34.917Z</time></trkpt><trkpt lat="31.2213433" lon="-5.30229"><ele>1064.0</ele><time>2026-04-23T15:20:35.918Z</time></trkpt><trkpt lat="31.2214283" lon="-5.3021867"><ele>1064.0</ele><time>2026-04-23T15:20:36.917Z</time></trkpt><trkpt lat="31.2215167" lon="-5.30209"><ele>1062.5</ele><time>2026-04-23T15:20:37.918Z</time></trkpt><trkpt lat="31.2216083" lon="-5.301995"><ele>1061.0</ele><time>2026-04-23T15:20:38.918Z</time></trkpt><trkpt lat="31.2216917" lon="-5.3019017"><ele>1059.5</ele><time>2026-04-23T15:20:39.917Z</time></trkpt><trkpt lat="31.2217717" lon="-5.301815"><ele>1058.0</ele><time>2026-04-23T15:20:40.918Z</time></trkpt><trkpt lat="31.22185" lon="-5.3017267"><ele>1058.0</ele><time>2026-04-23T15:20:41.918Z</time></trkpt><trkpt lat="31.2219217" lon="-5.301645"><ele>1058.0</ele><time>2026-04-23T15:20:42.918Z</time></trkpt><trkpt lat="31.221995" lon="-5.3015733"><ele>1058.0</ele><time>2026-04-23T15:20:43.918Z</time></trkpt><trkpt lat="31.2220633" lon="-5.3015"><ele>1058.0</ele><time>2026-04-23T15:20:44.917Z</time></trkpt><trkpt lat="31.2221367" lon="-5.301425"><ele>1058.0</ele><time>2026-04-23T15:20:45.917Z</time></trkpt><trkpt lat="31.2222017" lon="-5.301345"><ele>1057.8</ele><time>2026-04-23T15:20:46.918Z</time></trkpt><trkpt lat="31.222265" lon="-5.3012667"><ele>1057.6</ele><time>2026-04-23T15:20:47.918Z</time></trkpt><trkpt lat="31.2223317" lon="-5.301195"><ele>1057.4</ele><time>2026-04-23T15:20:48.917Z</time></trkpt><trkpt lat="31.222405" lon="-5.3011183"><ele>1057.2</ele><time>2026-04-23T15:20:49.917Z</time></trkpt><trkpt lat="31.22249" lon="-5.301045"><ele>1057.0</ele><time>2026-04-23T15:20:50.917Z</time></trkpt><trkpt lat="31.22257" lon="-5.3009683"><ele>1055.8</ele><time>2026-04-23T15:20:51.917Z</time></trkpt><trkpt lat="31.222645" lon="-5.3008867"><ele>1054.6</ele><time>2026-04-23T15:20:52.918Z</time></trkpt><trkpt lat="31.2227233" lon="-5.3008167"><ele>1053.3999999999999</ele><time>2026-04-23T15:20:53.917Z</time></trkpt><trkpt lat="31.222805" lon="-5.30075"><ele>1052.2</ele><time>2026-04-23T15:20:54.917Z</time></trkpt><trkpt lat="31.222885" lon="-5.3006867"><ele>1051.0</ele><time>2026-04-23T15:20:55.917Z</time></trkpt><trkpt lat="31.222965" lon="-5.3006217"><ele>1050.8</ele><time>2026-04-23T15:20:56.918Z</time></trkpt><trkpt lat="31.223035" lon="-5.30055"><ele>1050.6</ele><time>2026-04-23T15:20:57.918Z</time></trkpt><trkpt lat="31.223105" lon="-5.300465"><ele>1050.4</ele><time>2026-04-23T15:20:58.918Z</time></trkpt><trkpt lat="31.22317" lon="-5.3003783"><ele>1050.2</ele><time>2026-04-23T15:20:59.918Z</time></trkpt><trkpt lat="31.2232467" lon="-5.3002867"><ele>1050.0</ele><time>2026-04-23T15:21:00.918Z</time></trkpt><trkpt lat="31.2233233" lon="-5.3002067"><ele>1048.0</ele><time>2026-04-23T15:21:01.917Z</time></trkpt><trkpt lat="31.223405" lon="-5.300135"><ele>1046.0</ele><time>2026-04-23T15:21:02.918Z</time></trkpt><trkpt lat="31.2235" lon="-5.3000717"><ele>1044.0</ele><time>2026-04-23T15:21:03.918Z</time></trkpt><trkpt lat="31.2236" lon="-5.2999967"><ele>1042.0</ele><time>2026-04-23T15:21:04.918Z</time></trkpt><trkpt lat="31.2237033" lon="-5.2999383"><ele>1040.0</ele><time>2026-04-23T15:21:05.917Z</time></trkpt><trkpt lat="31.2237983" lon="-5.2998833"><ele>1040.0</ele><time>2026-04-23T15:21:06.918Z</time></trkpt><trkpt lat="31.2239" lon="-5.299825"><ele>1040.0</ele><time>2026-04-23T15:21:07.918Z</time></trkpt><trkpt lat="31.223995" lon="-5.29975"><ele>1040.0</ele><time>2026-04-23T15:21:08.918Z</time></trkpt><trkpt lat="31.224095" lon="-5.2996767"><ele>1040.0</ele><time>2026-04-23T15:21:09.918Z</time></trkpt><trkpt lat="31.2241867" lon="-5.2996017"><ele>1039.0</ele><time>2026-04-23T15:21:10.918Z</time></trkpt><trkpt lat="31.2242733" lon="-5.299525"><ele>1038.0</ele><time>2026-04-23T15:21:11.918Z</time></trkpt><trkpt lat="31.2243583" lon="-5.299445"><ele>1037.0</ele><time>2026-04-23T15:21:12.918Z</time></trkpt><trkpt lat="31.2244467" lon="-5.299375"><ele>1036.0</ele><time>2026-04-23T15:21:13.918Z</time></trkpt><trkpt lat="31.224535" lon="-5.2992933"><ele>1035.0</ele><time>2026-04-23T15:21:14.918Z</time></trkpt><trkpt lat="31.2246283" lon="-5.2992117"><ele>1035.0</ele><time>2026-04-23T15:21:15.918Z</time></trkpt><trkpt lat="31.2247233" lon="-5.29913"><ele>1035.0</ele><time>2026-04-23T15:21:16.918Z</time></trkpt><trkpt lat="31.22482" lon="-5.2990333"><ele>1035.0</ele><time>2026-04-23T15:21:17.918Z</time></trkpt><trkpt lat="31.2249167" lon="-5.2989233"><ele>1035.0</ele><time>2026-04-23T15:21:18.918Z</time></trkpt><trkpt lat="31.225015" lon="-5.29883"><ele>1033.25</ele><time>2026-04-23T15:21:19.918Z</time></trkpt><trkpt lat="31.2251017" lon="-5.2987317"><ele>1031.5</ele><time>2026-04-23T15:21:20.917Z</time></trkpt><trkpt lat="31.22518" lon="-5.2986367"><ele>1029.75</ele><time>2026-04-23T15:21:21.918Z</time></trkpt><trkpt lat="31.22526" lon="-5.2985467"><ele>1028.0</ele><time>2026-04-23T15:21:22.918Z</time></trkpt><trkpt lat="31.22533" lon="-5.2984517"><ele>1028.0</ele><time>2026-04-23T15:21:23.918Z</time></trkpt><trkpt lat="31.2253983" lon="-5.2983617"><ele>1028.0</ele><time>2026-04-23T15:21:24.918Z</time></trkpt><trkpt lat="31.2254633" lon="-5.29827"><ele>1028.0</ele><time>2026-04-23T15:21:25.918Z</time></trkpt><trkpt lat="31.225525" lon="-5.2981783"><ele>1028.0</ele><time>2026-04-23T15:21:26.918Z</time></trkpt><trkpt lat="31.2255783" lon="-5.298085"><ele>1028.0</ele><time>2026-04-23T15:21:27.918Z</time></trkpt><trkpt lat="31.22562" lon="-5.29799"><ele>1026.5</ele><time>2026-04-23T15:21:28.917Z</time></trkpt><trkpt lat="31.2256567" lon="-5.2979017"><ele>1025.0</ele><time>2026-04-23T15:21:29.917Z</time></trkpt><trkpt lat="31.22569" lon="-5.2978067"><ele>1023.5</ele><time>2026-04-23T15:21:30.917Z</time></trkpt><trkpt lat="31.22572" lon="-5.297715"><ele>1022.0</ele><time>2026-04-23T15:21:31.918Z</time></trkpt><trkpt lat="31.225755" lon="-5.2976383"><ele>1020.5000000000001</ele><time>2026-04-23T15:21:32.917Z</time></trkpt><trkpt lat="31.2257883" lon="-5.297575"><ele>1019.0</ele><time>2026-04-23T15:21:33.918Z</time></trkpt><trkpt lat="31.22585" lon="-5.2974833"><ele>1019.0</ele><time>2026-04-23T15:21:35.918Z</time></trkpt><trkpt lat="31.2259" lon="-5.2973983"><ele>1019.0000000000001</ele><time>2026-04-23T15:21:37.917Z</time></trkpt><trkpt lat="31.225945" lon="-5.297325"><ele>1019.0000000000001</ele><time>2026-04-23T15:21:39.917Z</time></trkpt><trkpt lat="31.2260333" lon="-5.2972083"><ele>1019.0</ele><time>2026-04-23T15:22:37.918Z</time></trkpt><trkpt lat="31.2261083" lon="-5.297125"><ele>1019.0</ele><time>2026-04-23T15:22:39.918Z</time></trkpt><trkpt lat="31.22619" lon="-5.2970133"><ele>1019.0000000000001</ele><time>2026-04-23T15:22:41.918Z</time></trkpt><trkpt lat="31.2262383" lon="-5.2969567"><ele>1019.0</ele><time>2026-04-23T15:22:42.918Z</time></trkpt><trkpt lat="31.2262817" lon="-5.2969"><ele>1019.0</ele><time>2026-04-23T15:22:43.918Z</time></trkpt><trkpt lat="31.2263583" lon="-5.2967967"><ele>1019.0</ele><time>2026-04-23T15:22:45.918Z</time></trkpt><trkpt lat="31.2264233" lon="-5.296705"><ele>1019.0000000000001</ele><time>2026-04-23T15:22:47.917Z</time></trkpt><trkpt lat="31.2264717" lon="-5.296645"><ele>1019.0</ele><time>2026-04-23T15:22:49.917Z</time></trkpt><trkpt lat="31.226525" lon="-5.29658"><ele>1018.2</ele><time>2026-04-23T15:22:52.917Z</time></trkpt><trkpt lat="31.2265767" lon="-5.2965133"><ele>1017.4000000000001</ele><time>2026-04-23T15:22:56.918Z</time></trkpt><trkpt lat="31.2266233" lon="-5.2964117"><ele>1016.6</ele><time>2026-04-23T15:23:20.917Z</time></trkpt><trkpt lat="31.2266683" lon="-5.2962667"><ele>1015.8</ele><time>2026-04-23T15:23:22.917Z</time></trkpt><trkpt lat="31.2266883" lon="-5.29618"><ele>1015.0</ele><time>2026-04-23T15:23:23.917Z</time></trkpt><trkpt lat="31.226715" lon="-5.2960917"><ele>1014.8</ele><time>2026-04-23T15:23:24.917Z</time></trkpt><trkpt lat="31.2267467" lon="-5.2960017"><ele>1014.6</ele><time>2026-04-23T15:23:25.917Z</time></trkpt><trkpt lat="31.2267917" lon="-5.29591"><ele>1014.4000000000001</ele><time>2026-04-23T15:23:26.917Z</time></trkpt><trkpt lat="31.22684" lon="-5.2958167"><ele>1014.2</ele><time>2026-04-23T15:23:27.916Z</time></trkpt><trkpt lat="31.2268783" lon="-5.295715"><ele>1014.0</ele><time>2026-04-23T15:23:28.917Z</time></trkpt><trkpt lat="31.226915" lon="-5.2956067"><ele>1013.6</ele><time>2026-04-23T15:23:29.916Z</time></trkpt><trkpt lat="31.2269617" lon="-5.29549"><ele>1013.2</ele><time>2026-04-23T15:23:30.916Z</time></trkpt><trkpt lat="31.227005" lon="-5.2953783"><ele>1012.8000000000001</ele><time>2026-04-23T15:23:31.917Z</time></trkpt><trkpt lat="31.227055" lon="-5.2952733"><ele>1012.4000000000001</ele><time>2026-04-23T15:23:32.916Z</time></trkpt><trkpt lat="31.2271" lon="-5.2951667"><ele>1012.0</ele><time>2026-04-23T15:23:33.917Z</time></trkpt><trkpt lat="31.2271483" lon="-5.2950667"><ele>1012.0</ele><time>2026-04-23T15:23:34.917Z</time></trkpt><trkpt lat="31.227195" lon="-5.2949667"><ele>1012.0</ele><time>2026-04-23T15:23:35.917Z</time></trkpt><trkpt lat="31.2272383" lon="-5.2948683"><ele>1012.0</ele><time>2026-04-23T15:23:36.917Z</time></trkpt><trkpt lat="31.2272767" lon="-5.2947517"><ele>1012.0</ele><time>2026-04-23T15:23:37.917Z</time></trkpt><trkpt lat="31.22731" lon="-5.294635"><ele>1012.0</ele><time>2026-04-23T15:23:38.917Z</time></trkpt><trkpt lat="31.2273533" lon="-5.294515"><ele>1010.8</ele><time>2026-04-23T15:23:39.916Z</time></trkpt><trkpt lat="31.2274033" lon="-5.2943983"><ele>1009.6</ele><time>2026-04-23T15:23:40.917Z</time></trkpt><trkpt lat="31.2274533" lon="-5.2942933"><ele>1008.3999999999999</ele><time>2026-04-23T15:23:41.917Z</time></trkpt><trkpt lat="31.227495" lon="-5.2941883"><ele>1007.1999999999999</ele><time>2026-04-23T15:23:42.916Z</time></trkpt><trkpt lat="31.2275383" lon="-5.29408"><ele>1006.0</ele><time>2026-04-23T15:23:43.916Z</time></trkpt><trkpt lat="31.227585" lon="-5.293975"><ele>1005.9999999999999</ele><time>2026-04-23T15:23:44.917Z</time></trkpt><trkpt lat="31.2276267" lon="-5.29387"><ele>1006.0</ele><time>2026-04-23T15:23:45.917Z</time></trkpt><trkpt lat="31.227665" lon="-5.2937767"><ele>1006.0</ele><time>2026-04-23T15:23:46.916Z</time></trkpt><trkpt lat="31.2276967" lon="-5.2937"><ele>1006.0</ele><time>2026-04-23T15:23:47.916Z</time></trkpt><trkpt lat="31.2277533" lon="-5.2936117"><ele>1005.9999999999999</ele><time>2026-04-23T15:23:49.916Z</time></trkpt><trkpt lat="31.227815" lon="-5.2935883"><ele>1006.0</ele><time>2026-04-23T15:23:51.917Z</time></trkpt><trkpt lat="31.2278767" lon="-5.293625"><ele>1005.9999999999999</ele><time>2026-04-23T15:23:53.916Z</time></trkpt><trkpt lat="31.2279633" lon="-5.2937"><ele>1006.0</ele><time>2026-04-23T15:23:55.917Z</time></trkpt><trkpt lat="31.2280283" lon="-5.2937467"><ele>1006.0</ele><time>2026-04-23T15:23:56.917Z</time></trkpt><trkpt lat="31.2281017" lon="-5.2937933"><ele>1006.0</ele><time>2026-04-23T15:23:57.917Z</time></trkpt><trkpt lat="31.2281683" lon="-5.2938467"><ele>1005.9999999999999</ele><time>2026-04-23T15:23:58.917Z</time></trkpt><trkpt lat="31.2282433" lon="-5.2939017"><ele>1006.0</ele><time>2026-04-23T15:23:59.917Z</time></trkpt><trkpt lat="31.2283167" lon="-5.293955"><ele>1005.8333333333333</ele><time>2026-04-23T15:24:00.916Z</time></trkpt><trkpt lat="31.2283933" lon="-5.2939967"><ele>1005.6666666666666</ele><time>2026-04-23T15:24:01.917Z</time></trkpt><trkpt lat="31.2284717" lon="-5.2940367"><ele>1005.5</ele><time>2026-04-23T15:24:02.917Z</time></trkpt><trkpt lat="31.22855" lon="-5.29408"><ele>1005.3333333333333</ele><time>2026-04-23T15:24:03.917Z</time></trkpt><trkpt lat="31.2286367" lon="-5.29412"><ele>1005.1666666666666</ele><time>2026-04-23T15:24:04.917Z</time></trkpt><trkpt lat="31.2287267" lon="-5.2941633"><ele>1005.0</ele><time>2026-04-23T15:24:05.917Z</time></trkpt><trkpt lat="31.2288267" lon="-5.2942067"><ele>1005.0</ele><time>2026-04-23T15:24:06.917Z</time></trkpt><trkpt lat="31.2289267" lon="-5.294255"><ele>1005.0</ele><time>2026-04-23T15:24:07.917Z</time></trkpt><trkpt lat="31.229025" lon="-5.2943033"><ele>1005.0</ele><time>2026-04-23T15:24:08.917Z</time></trkpt><trkpt lat="31.22913" lon="-5.2943533"><ele>1005.0</ele><time>2026-04-23T15:24:09.916Z</time></trkpt><trkpt lat="31.2292167" lon="-5.2943867"><ele>1005.0</ele><time>2026-04-23T15:24:10.917Z</time></trkpt><trkpt lat="31.2293033" lon="-5.2944117"><ele>1004.6</ele><time>2026-04-23T15:24:11.917Z</time></trkpt><trkpt lat="31.229395" lon="-5.2944217"><ele>1004.2</ele><time>2026-04-23T15:24:12.916Z</time></trkpt><trkpt lat="31.229495" lon="-5.2944333"><ele>1003.8</ele><time>2026-04-23T15:24:13.917Z</time></trkpt><trkpt lat="31.229595" lon="-5.2944483"><ele>1003.4</ele><time>2026-04-23T15:24:14.917Z</time></trkpt><trkpt lat="31.2296933" lon="-5.2944617"><ele>1003.0</ele><time>2026-04-23T15:24:15.917Z</time></trkpt><trkpt lat="31.2297817" lon="-5.2944883"><ele>1002.8333333333333</ele><time>2026-04-23T15:24:16.917Z</time></trkpt><trkpt lat="31.2298567" lon="-5.29453"><ele>1002.6666666666666</ele><time>2026-04-23T15:24:17.917Z</time></trkpt><trkpt lat="31.229935" lon="-5.2945633"><ele>1002.5</ele><time>2026-04-23T15:24:18.917Z</time></trkpt><trkpt lat="31.2300167" lon="-5.2945867"><ele>1002.3333333333333</ele><time>2026-04-23T15:24:19.916Z</time></trkpt><trkpt lat="31.2301067" lon="-5.2946083"><ele>1002.1666666666666</ele><time>2026-04-23T15:24:20.916Z</time></trkpt><trkpt lat="31.2301933" lon="-5.2946283"><ele>1002.0</ele><time>2026-04-23T15:24:21.917Z</time></trkpt><trkpt lat="31.2302783" lon="-5.2946417"><ele>1002.0</ele><time>2026-04-23T15:24:22.917Z</time></trkpt><trkpt lat="31.2303617" lon="-5.2946517"><ele>1002.0</ele><time>2026-04-23T15:24:23.917Z</time></trkpt><trkpt lat="31.2304483" lon="-5.2946617"><ele>1002.0</ele><time>2026-04-23T15:24:24.917Z</time></trkpt><trkpt lat="31.2305333" lon="-5.2946717"><ele>1002.0</ele><time>2026-04-23T15:24:25.916Z</time></trkpt><trkpt lat="31.2306233" lon="-5.2946883"><ele>1002.0</ele><time>2026-04-23T15:24:26.917Z</time></trkpt><trkpt lat="31.2307267" lon="-5.2947083"><ele>1002.0</ele><time>2026-04-23T15:24:27.917Z</time></trkpt><trkpt lat="31.23083" lon="-5.29473"><ele>1002.0</ele><time>2026-04-23T15:24:28.916Z</time></trkpt><trkpt lat="31.2309367" lon="-5.2947467"><ele>1002.0</ele><time>2026-04-23T15:24:29.916Z</time></trkpt><trkpt lat="31.2310483" lon="-5.2947617"><ele>1002.0</ele><time>2026-04-23T15:24:30.916Z</time></trkpt><trkpt lat="31.2311633" lon="-5.294775"><ele>1002.0</ele><time>2026-04-23T15:24:31.916Z</time></trkpt><trkpt lat="31.231265" lon="-5.29479"><ele>1002.0</ele><time>2026-04-23T15:24:32.916Z</time></trkpt><trkpt lat="31.23137" lon="-5.294805"><ele>1002.0</ele><time>2026-04-23T15:24:33.917Z</time></trkpt><trkpt lat="31.231465" lon="-5.2948217"><ele>1002.0</ele><time>2026-04-23T15:24:34.916Z</time></trkpt><trkpt lat="31.2315583" lon="-5.2948383"><ele>1002.0</ele><time>2026-04-23T15:24:35.917Z</time></trkpt><trkpt lat="31.2316467" lon="-5.29486"><ele>1002.0</ele><time>2026-04-23T15:24:36.917Z</time></trkpt><trkpt lat="31.231735" lon="-5.294875"><ele>1002.0</ele><time>2026-04-23T15:24:37.916Z</time></trkpt><trkpt lat="31.2318117" lon="-5.2948683"><ele>1002.0</ele><time>2026-04-23T15:24:38.916Z</time></trkpt><trkpt lat="31.2318783" lon="-5.2948417"><ele>1002.0</ele><time>2026-04-23T15:24:39.917Z</time></trkpt><trkpt lat="31.2319417" lon="-5.2947967"><ele>1002.0</ele><time>2026-04-23T15:24:40.917Z</time></trkpt><trkpt lat="31.2320017" lon="-5.2947367"><ele>1002.0</ele><time>2026-04-23T15:24:41.917Z</time></trkpt><trkpt lat="31.2320717" lon="-5.2946733"><ele>1002.0</ele><time>2026-04-23T15:24:42.917Z</time></trkpt><trkpt lat="31.2321517" lon="-5.29461"><ele>1002.0</ele><time>2026-04-23T15:24:43.917Z</time></trkpt><trkpt lat="31.232235" lon="-5.2945483"><ele>1002.0</ele><time>2026-04-23T15:24:44.917Z</time></trkpt><trkpt lat="31.232315" lon="-5.2944883"><ele>1002.0</ele><time>2026-04-23T15:24:45.916Z</time></trkpt><trkpt lat="31.2323983" lon="-5.2944367"><ele>1002.0</ele><time>2026-04-23T15:24:46.917Z</time></trkpt><trkpt lat="31.2324833" lon="-5.2943967"><ele>1002.0</ele><time>2026-04-23T15:24:47.917Z</time></trkpt><trkpt lat="31.23257" lon="-5.2943567"><ele>1000.8</ele><time>2026-04-23T15:24:48.917Z</time></trkpt><trkpt lat="31.232655" lon="-5.2943083"><ele>999.6</ele><time>2026-04-23T15:24:49.916Z</time></trkpt><trkpt lat="31.2327317" lon="-5.2942417"><ele>998.3999999999999</ele><time>2026-04-23T15:24:50.917Z</time></trkpt><trkpt lat="31.2328167" lon="-5.29418"><ele>997.1999999999999</ele><time>2026-04-23T15:24:51.916Z</time></trkpt><trkpt lat="31.2328967" lon="-5.2941217"><ele>996.0</ele><time>2026-04-23T15:24:52.917Z</time></trkpt><trkpt lat="31.232975" lon="-5.29406"><ele>996.0</ele><time>2026-04-23T15:24:53.917Z</time></trkpt><trkpt lat="31.233055" lon="-5.2939983"><ele>995.9999999999999</ele><time>2026-04-23T15:24:54.917Z</time></trkpt><trkpt lat="31.2331383" lon="-5.29394"><ele>995.9999999999999</ele><time>2026-04-23T15:24:55.917Z</time></trkpt><trkpt lat="31.23322" lon="-5.2938667"><ele>996.0</ele><time>2026-04-23T15:24:56.917Z</time></trkpt><trkpt lat="31.2333033" lon="-5.2937917"><ele>996.0</ele><time>2026-04-23T15:24:57.917Z</time></trkpt><trkpt lat="31.23338" lon="-5.2937217"><ele>996.1666666666666</ele><time>2026-04-23T15:24:58.916Z</time></trkpt><trkpt lat="31.233455" lon="-5.29366"><ele>996.3333333333333</ele><time>2026-04-23T15:24:59.917Z</time></trkpt><trkpt lat="31.2335267" lon="-5.2936067"><ele>996.5</ele><time>2026-04-23T15:25:00.917Z</time></trkpt><trkpt lat="31.2336" lon="-5.2935567"><ele>996.6666666666666</ele><time>2026-04-23T15:25:01.917Z</time></trkpt><trkpt lat="31.2336733" lon="-5.2935183"><ele>996.8333333333333</ele><time>2026-04-23T15:25:02.917Z</time></trkpt><trkpt lat="31.233755" lon="-5.2934633"><ele>997.0</ele><time>2026-04-23T15:25:03.917Z</time></trkpt><trkpt lat="31.23383" lon="-5.2934083"><ele>996.9999999999999</ele><time>2026-04-23T15:25:04.917Z</time></trkpt><trkpt lat="31.2338967" lon="-5.2933633"><ele>997.0</ele><time>2026-04-23T15:25:05.917Z</time></trkpt><trkpt lat="31.233965" lon="-5.2933283"><ele>997.0</ele><time>2026-04-23T15:25:06.917Z</time></trkpt><trkpt lat="31.2340367" lon="-5.2933117"><ele>997.0</ele><time>2026-04-23T15:25:07.917Z</time></trkpt><trkpt lat="31.2341017" lon="-5.29331"><ele>996.9999999999999</ele><time>2026-04-23T15:25:08.917Z</time></trkpt><trkpt lat="31.2342183" lon="-5.29334"><ele>997.0</ele><time>2026-04-23T15:25:10.917Z</time></trkpt><trkpt lat="31.2343183" lon="-5.2934017"><ele>996.9999999999999</ele><time>2026-04-23T15:25:12.917Z</time></trkpt><trkpt lat="31.2343883" lon="-5.2934267"><ele>997.0</ele><time>2026-04-23T15:25:14.917Z</time></trkpt><trkpt lat="31.234455" lon="-5.293355"><ele>997.0</ele><time>2026-04-23T15:25:17.917Z</time></trkpt><trkpt lat="31.2344733" lon="-5.2932283"><ele>997.0</ele><time>2026-04-23T15:25:19.917Z</time></trkpt><trkpt lat="31.2344817" lon="-5.2931467"><ele>996.9999999999999</ele><time>2026-04-23T15:25:20.917Z</time></trkpt><trkpt lat="31.23449" lon="-5.2930483"><ele>997.0</ele><time>2026-04-23T15:25:21.916Z</time></trkpt><trkpt lat="31.2344983" lon="-5.29294"><ele>997.2</ele><time>2026-04-23T15:25:22.916Z</time></trkpt><trkpt lat="31.2345017" lon="-5.2928133"><ele>997.4000000000001</ele><time>2026-04-23T15:25:23.917Z</time></trkpt><trkpt lat="31.2345083" lon="-5.2926833"><ele>997.5999999999999</ele><time>2026-04-23T15:25:24.917Z</time></trkpt><trkpt lat="31.2345083" lon="-5.292565"><ele>997.8</ele><time>2026-04-23T15:25:25.917Z</time></trkpt><trkpt lat="31.2345067" lon="-5.2924433"><ele>998.0</ele><time>2026-04-23T15:25:26.917Z</time></trkpt><trkpt lat="31.2345033" lon="-5.2923217"><ele>997.8</ele><time>2026-04-23T15:25:27.917Z</time></trkpt><trkpt lat="31.2344983" lon="-5.2922017"><ele>997.5999999999999</ele><time>2026-04-23T15:25:28.916Z</time></trkpt><trkpt lat="31.2344917" lon="-5.2920833"><ele>997.4000000000001</ele><time>2026-04-23T15:25:29.917Z</time></trkpt><trkpt lat="31.2344867" lon="-5.2919633"><ele>997.2</ele><time>2026-04-23T15:25:30.917Z</time></trkpt><trkpt lat="31.2344833" lon="-5.2918467"><ele>997.0</ele><time>2026-04-23T15:25:31.917Z</time></trkpt><trkpt lat="31.2344783" lon="-5.2917267"><ele>996.9999999999999</ele><time>2026-04-23T15:25:32.917Z</time></trkpt><trkpt lat="31.2344717" lon="-5.29161"><ele>997.0</ele><time>2026-04-23T15:25:33.916Z</time></trkpt><trkpt lat="31.234465" lon="-5.291505"><ele>997.0</ele><time>2026-04-23T15:25:34.917Z</time></trkpt><trkpt lat="31.2344617" lon="-5.2914183"><ele>997.0</ele><time>2026-04-23T15:25:35.917Z</time></trkpt><trkpt lat="31.2344533" lon="-5.2913283"><ele>996.9999999999999</ele><time>2026-04-23T15:25:36.917Z</time></trkpt><trkpt lat="31.234445" lon="-5.291235"><ele>997.0</ele><time>2026-04-23T15:25:37.917Z</time></trkpt><trkpt lat="31.2344283" lon="-5.29115"><ele>996.8</ele><time>2026-04-23T15:25:38.917Z</time></trkpt><trkpt lat="31.2344133" lon="-5.2910633"><ele>996.6</ele><time>2026-04-23T15:25:39.917Z</time></trkpt><trkpt lat="31.2343917" lon="-5.2909633"><ele>996.3999999999999</ele><time>2026-04-23T15:25:40.916Z</time></trkpt><trkpt lat="31.2343667" lon="-5.2908417"><ele>996.1999999999999</ele><time>2026-04-23T15:25:41.917Z</time></trkpt><trkpt lat="31.2343383" lon="-5.2907017"><ele>996.0</ele><time>2026-04-23T15:25:42.917Z</time></trkpt><trkpt lat="31.2343067" lon="-5.2905483"><ele>995.3333333333333</ele><time>2026-04-23T15:25:43.916Z</time></trkpt><trkpt lat="31.2342733" lon="-5.2903833"><ele>994.6666666666666</ele><time>2026-04-23T15:25:44.917Z</time></trkpt><trkpt lat="31.2342367" lon="-5.290205"><ele>994.0</ele><time>2026-04-23T15:25:45.917Z</time></trkpt><trkpt lat="31.2342" lon="-5.29003"><ele>994.0</ele><time>2026-04-23T15:25:46.916Z</time></trkpt><trkpt lat="31.2341617" lon="-5.2898583"><ele>994.0</ele><time>2026-04-23T15:25:47.917Z</time></trkpt><trkpt lat="31.23412" lon="-5.28968"><ele>994.0</ele><time>2026-04-23T15:25:48.916Z</time></trkpt><trkpt lat="31.2340767" lon="-5.2895017"><ele>993.6666666666666</ele><time>2026-04-23T15:25:49.917Z</time></trkpt><trkpt lat="31.2340317" lon="-5.2893217"><ele>993.3333333333333</ele><time>2026-04-23T15:25:50.917Z</time></trkpt><trkpt lat="31.23399" lon="-5.2891317"><ele>993.0</ele><time>2026-04-23T15:25:51.917Z</time></trkpt><trkpt lat="31.2339483" lon="-5.2889383"><ele>992.3333333333333</ele><time>2026-04-23T15:25:52.917Z</time></trkpt><trkpt lat="31.2339033" lon="-5.2887433"><ele>991.6666666666666</ele><time>2026-04-23T15:25:53.916Z</time></trkpt><trkpt lat="31.233855" lon="-5.288555"><ele>991.0</ele><time>2026-04-23T15:25:54.917Z</time></trkpt><trkpt lat="31.2338017" lon="-5.288375"><ele>991.0</ele><time>2026-04-23T15:25:55.917Z</time></trkpt><trkpt lat="31.2337483" lon="-5.2882067"><ele>991.0</ele><time>2026-04-23T15:25:56.917Z</time></trkpt><trkpt lat="31.23369" lon="-5.288045"><ele>991.0</ele><time>2026-04-23T15:25:57.917Z</time></trkpt><trkpt lat="31.233625" lon="-5.2878833"><ele>991.0</ele><time>2026-04-23T15:25:58.917Z</time></trkpt><trkpt lat="31.2335533" lon="-5.287725"><ele>991.0</ele><time>2026-04-23T15:25:59.917Z</time></trkpt><trkpt lat="31.2334833" lon="-5.287565"><ele>991.0</ele><time>2026-04-23T15:26:00.916Z</time></trkpt><trkpt lat="31.233415" lon="-5.2874017"><ele>991.0</ele><time>2026-04-23T15:26:01.917Z</time></trkpt><trkpt lat="31.2333433" lon="-5.28724"><ele>991.0</ele><time>2026-04-23T15:26:02.917Z</time></trkpt><trkpt lat="31.2332683" lon="-5.2870767"><ele>991.0</ele><time>2026-04-23T15:26:03.916Z</time></trkpt><trkpt lat="31.2331917" lon="-5.2869133"><ele>991.3333333333333</ele><time>2026-04-23T15:26:04.917Z</time></trkpt><trkpt lat="31.2331117" lon="-5.2867567"><ele>991.6666666666667</ele><time>2026-04-23T15:26:05.917Z</time></trkpt><trkpt lat="31.2330367" lon="-5.286605"><ele>992.0</ele><time>2026-04-23T15:26:06.917Z</time></trkpt><trkpt lat="31.2329633" lon="-5.2864517"><ele>991.3333333333334</ele><time>2026-04-23T15:26:07.917Z</time></trkpt><trkpt lat="31.2328917" lon="-5.286295"><ele>990.6666666666667</ele><time>2026-04-23T15:26:08.917Z</time></trkpt><trkpt lat="31.23283" lon="-5.28613"><ele>990.0</ele><time>2026-04-23T15:26:09.917Z</time></trkpt><trkpt lat="31.2327717" lon="-5.28596"><ele>990.0</ele><time>2026-04-23T15:26:10.917Z</time></trkpt><trkpt lat="31.2327117" lon="-5.285785"><ele>990.0</ele><time>2026-04-23T15:26:11.917Z</time></trkpt><trkpt lat="31.232655" lon="-5.2856117"><ele>990.0</ele><time>2026-04-23T15:26:12.917Z</time></trkpt><trkpt lat="31.2326067" lon="-5.2854533"><ele>990.2</ele><time>2026-04-23T15:26:13.917Z</time></trkpt><trkpt lat="31.2325633" lon="-5.285305"><ele>990.4</ele><time>2026-04-23T15:26:14.917Z</time></trkpt><trkpt lat="31.2325317" lon="-5.2851783"><ele>990.5999999999999</ele><time>2026-04-23T15:26:15.917Z</time></trkpt><trkpt lat="31.2325183" lon="-5.2850717"><ele>990.8</ele><time>2026-04-23T15:26:16.917Z</time></trkpt><trkpt lat="31.23252" lon="-5.2849783"><ele>991.0</ele><time>2026-04-23T15:26:17.917Z</time></trkpt><trkpt lat="31.2325333" lon="-5.28489"><ele>991.0</ele><time>2026-04-23T15:26:18.917Z</time></trkpt><trkpt lat="31.2325617" lon="-5.284805"><ele>990.9999999999999</ele><time>2026-04-23T15:26:19.916Z</time></trkpt><trkpt lat="31.23261" lon="-5.2847183"><ele>990.9999999999999</ele><time>2026-04-23T15:26:20.917Z</time></trkpt><trkpt lat="31.23267" lon="-5.28462"><ele>991.0</ele><time>2026-04-23T15:26:21.916Z</time></trkpt><trkpt lat="31.2327417" lon="-5.2845167"><ele>991.0</ele><time>2026-04-23T15:26:22.917Z</time></trkpt><trkpt lat="31.232815" lon="-5.2844117"><ele>990.5999999999999</ele><time>2026-04-23T15:26:23.916Z</time></trkpt><trkpt lat="31.23288" lon="-5.2843183"><ele>990.1999999999999</ele><time>2026-04-23T15:26:24.916Z</time></trkpt><trkpt lat="31.2329433" lon="-5.2842267"><ele>989.8000000000001</ele><time>2026-04-23T15:26:25.917Z</time></trkpt><trkpt lat="31.2330033" lon="-5.2841367"><ele>989.4000000000001</ele><time>2026-04-23T15:26:26.917Z</time></trkpt><trkpt lat="31.2330733" lon="-5.28404"><ele>989.0</ele><time>2026-04-23T15:26:27.917Z</time></trkpt><trkpt lat="31.23314" lon="-5.283945"><ele>990.0</ele><time>2026-04-23T15:26:28.917Z</time></trkpt><trkpt lat="31.233205" lon="-5.2838533"><ele>991.0000000000001</ele><time>2026-04-23T15:26:29.917Z</time></trkpt><trkpt lat="31.23325" lon="-5.2837617"><ele>992.0000000000001</ele><time>2026-04-23T15:26:30.917Z</time></trkpt><trkpt lat="31.2332917" lon="-5.28366"><ele>993.0</ele><time>2026-04-23T15:26:31.917Z</time></trkpt><trkpt lat="31.23332" lon="-5.2835417"><ele>994.0</ele><time>2026-04-23T15:26:32.917Z</time></trkpt><trkpt lat="31.2333233" lon="-5.2834283"><ele>994.0</ele><time>2026-04-23T15:26:33.917Z</time></trkpt><trkpt lat="31.2333117" lon="-5.28332"><ele>994.0000000000001</ele><time>2026-04-23T15:26:34.917Z</time></trkpt><trkpt lat="31.233285" lon="-5.2832"><ele>994.0000000000001</ele><time>2026-04-23T15:26:35.917Z</time></trkpt><trkpt lat="31.2332383" lon="-5.2830783"><ele>994.0</ele><time>2026-04-23T15:26:36.917Z</time></trkpt><trkpt lat="31.233185" lon="-5.282945"><ele>994.0</ele><time>2026-04-23T15:26:37.917Z</time></trkpt><trkpt lat="31.233125" lon="-5.2828133"><ele>993.25</ele><time>2026-04-23T15:26:38.916Z</time></trkpt><trkpt lat="31.2330567" lon="-5.2826783"><ele>992.5</ele><time>2026-04-23T15:26:39.917Z</time></trkpt><trkpt lat="31.23299" lon="-5.2825367"><ele>991.75</ele><time>2026-04-23T15:26:40.917Z</time></trkpt><trkpt lat="31.2329083" lon="-5.2823967"><ele>991.0</ele><time>2026-04-23T15:26:41.917Z</time></trkpt><trkpt lat="31.2328217" lon="-5.2822583"><ele>991.0</ele><time>2026-04-23T15:26:42.917Z</time></trkpt><trkpt lat="31.2327383" lon="-5.28213"><ele>991.0</ele><time>2026-04-23T15:26:43.917Z</time></trkpt><trkpt lat="31.2326617" lon="-5.2820133"><ele>991.0</ele><time>2026-04-23T15:26:44.917Z</time></trkpt><trkpt lat="31.2325883" lon="-5.2819017"><ele>991.0</ele><time>2026-04-23T15:26:45.917Z</time></trkpt><trkpt lat="31.2325233" lon="-5.2818033"><ele>990.9999999999999</ele><time>2026-04-23T15:26:46.917Z</time></trkpt><trkpt lat="31.232475" lon="-5.281715"><ele>991.0</ele><time>2026-04-23T15:26:47.916Z</time></trkpt><trkpt lat="31.2324483" lon="-5.28164"><ele>991.0</ele><time>2026-04-23T15:26:48.917Z</time></trkpt><trkpt lat="31.23244" lon="-5.281555"><ele>991.0</ele><time>2026-04-23T15:26:49.917Z</time></trkpt><trkpt lat="31.2324467" lon="-5.2814667"><ele>990.9999999999999</ele><time>2026-04-23T15:26:50.917Z</time></trkpt><trkpt lat="31.23247" lon="-5.281365"><ele>991.0</ele><time>2026-04-23T15:26:51.917Z</time></trkpt><trkpt lat="31.232505" lon="-5.2812533"><ele>991.75</ele><time>2026-04-23T15:26:52.917Z</time></trkpt><trkpt lat="31.2325583" lon="-5.2811467"><ele>992.5</ele><time>2026-04-23T15:26:53.917Z</time></trkpt><trkpt lat="31.2326283" lon="-5.2810433"><ele>993.25</ele><time>2026-04-23T15:26:54.917Z</time></trkpt><trkpt lat="31.23272" lon="-5.2809367"><ele>994.0</ele><time>2026-04-23T15:26:55.917Z</time></trkpt><trkpt lat="31.2328283" lon="-5.28082"><ele>994.0</ele><time>2026-04-23T15:26:56.917Z</time></trkpt><trkpt lat="31.2329483" lon="-5.28071"><ele>994.0</ele><time>2026-04-23T15:26:57.917Z</time></trkpt><trkpt lat="31.2330733" lon="-5.2805783"><ele>994.0</ele><time>2026-04-23T15:26:58.916Z</time></trkpt><trkpt lat="31.2331917" lon="-5.2804383"><ele>995.6666666666666</ele><time>2026-04-23T15:26:59.916Z</time></trkpt><trkpt lat="31.233305" lon="-5.2803017"><ele>997.3333333333333</ele><time>2026-04-23T15:27:00.917Z</time></trkpt><trkpt lat="31.2334" lon="-5.2801717"><ele>999.0</ele><time>2026-04-23T15:27:01.917Z</time></trkpt><trkpt lat="31.2334767" lon="-5.2800317"><ele>999.0</ele><time>2026-04-23T15:27:02.917Z</time></trkpt><trkpt lat="31.2335433" lon="-5.2798833"><ele>999.0</ele><time>2026-04-23T15:27:03.916Z</time></trkpt><trkpt lat="31.2336067" lon="-5.2797267"><ele>999.0</ele><time>2026-04-23T15:27:04.917Z</time></trkpt><trkpt lat="31.2336617" lon="-5.27957"><ele>999.0</ele><time>2026-04-23T15:27:05.917Z</time></trkpt><trkpt lat="31.2337217" lon="-5.2794283"><ele>1000.5</ele><time>2026-04-23T15:27:06.917Z</time></trkpt><trkpt lat="31.233775" lon="-5.2793"><ele>1002.0</ele><time>2026-04-23T15:27:07.917Z</time></trkpt><trkpt lat="31.2338383" lon="-5.27917"><ele>1003.5</ele><time>2026-04-23T15:27:08.917Z</time></trkpt><trkpt lat="31.2339" lon="-5.2790333"><ele>1005.0</ele><time>2026-04-23T15:27:09.917Z</time></trkpt><trkpt lat="31.23396" lon="-5.2788983"><ele>1007.25</ele><time>2026-04-23T15:27:10.916Z</time></trkpt><trkpt lat="31.2340183" lon="-5.2787617"><ele>1009.5</ele><time>2026-04-23T15:27:11.917Z</time></trkpt><trkpt lat="31.2340833" lon="-5.2786167"><ele>1011.75</ele><time>2026-04-23T15:27:12.917Z</time></trkpt><trkpt lat="31.2341517" lon="-5.2784717"><ele>1014.0</ele><time>2026-04-23T15:27:13.916Z</time></trkpt><trkpt lat="31.2342217" lon="-5.2783383"><ele>1014.0</ele><time>2026-04-23T15:27:14.917Z</time></trkpt><trkpt lat="31.2342867" lon="-5.278215"><ele>1014.0000000000001</ele><time>2026-04-23T15:27:15.917Z</time></trkpt><trkpt lat="31.2343417" lon="-5.278105"><ele>1014.0000000000001</ele><time>2026-04-23T15:27:16.916Z</time></trkpt><trkpt lat="31.23439" lon="-5.278025"><ele>1014.0</ele><time>2026-04-23T15:27:17.917Z</time></trkpt><trkpt lat="31.234425" lon="-5.27796"><ele>1014.0</ele><time>2026-04-23T15:27:18.917Z</time></trkpt><trkpt lat="31.2344817" lon="-5.2778567"><ele>1014.0</ele><time>2026-04-23T15:27:20.917Z</time></trkpt><trkpt lat="31.23452" lon="-5.2777917"><ele>1014.0</ele><time>2026-04-23T15:27:22.917Z</time></trkpt><trkpt lat="31.2345833" lon="-5.277705"><ele>1014.0</ele><time>2026-04-23T15:28:47.916Z</time></trkpt><trkpt lat="31.23463" lon="-5.2776267"><ele>1014.0</ele><time>2026-04-23T15:28:48.915Z</time></trkpt><trkpt lat="31.234685" lon="-5.27754"><ele>1014.0</ele><time>2026-04-23T15:28:49.916Z</time></trkpt><trkpt lat="31.2347417" lon="-5.277435"><ele>1014.0</ele><time>2026-04-23T15:28:50.916Z</time></trkpt><trkpt lat="31.2348" lon="-5.2773233"><ele>1012.8000000000001</ele><time>2026-04-23T15:28:51.915Z</time></trkpt><trkpt lat="31.2348583" lon="-5.27721"><ele>1011.6000000000001</ele><time>2026-04-23T15:28:52.916Z</time></trkpt><trkpt lat="31.23492" lon="-5.2770983"><ele>1010.4</ele><time>2026-04-23T15:28:53.916Z</time></trkpt><trkpt lat="31.23497" lon="-5.276985"><ele>1009.2</ele><time>2026-04-23T15:28:54.916Z</time></trkpt><trkpt lat="31.2350183" lon="-5.2768733"><ele>1008.0</ele><time>2026-04-23T15:28:55.915Z</time></trkpt><trkpt lat="31.2350583" lon="-5.2767567"><ele>1008.0</ele><time>2026-04-23T15:28:56.916Z</time></trkpt><trkpt lat="31.2350867" lon="-5.27662"><ele>1008.0</ele><time>2026-04-23T15:28:57.916Z</time></trkpt><trkpt lat="31.2351083" lon="-5.2764817"><ele>1008.0</ele><time>2026-04-23T15:28:58.916Z</time></trkpt><trkpt lat="31.2351183" lon="-5.2763383"><ele>1008.0</ele><time>2026-04-23T15:28:59.916Z</time></trkpt><trkpt lat="31.2351183" lon="-5.27619"><ele>1008.5</ele><time>2026-04-23T15:29:00.915Z</time></trkpt><trkpt lat="31.2351167" lon="-5.2760433"><ele>1009.0</ele><time>2026-04-23T15:29:01.916Z</time></trkpt><trkpt lat="31.2351233" lon="-5.2759083"><ele>1009.5</ele><time>2026-04-23T15:29:02.916Z</time></trkpt><trkpt lat="31.2351233" lon="-5.2757783"><ele>1010.0</ele><time>2026-04-23T15:29:03.916Z</time></trkpt><trkpt lat="31.2351233" lon="-5.27565"><ele>1009.4</ele><time>2026-04-23T15:29:04.916Z</time></trkpt><trkpt lat="31.23512" lon="-5.27552"><ele>1008.8</ele><time>2026-04-23T15:29:05.915Z</time></trkpt><trkpt lat="31.2351217" lon="-5.2753983"><ele>1008.2</ele><time>2026-04-23T15:29:06.916Z</time></trkpt><trkpt lat="31.2351217" lon="-5.2752833"><ele>1007.6</ele><time>2026-04-23T15:29:07.916Z</time></trkpt><trkpt lat="31.235125" lon="-5.27517"><ele>1007.0</ele><time>2026-04-23T15:29:08.916Z</time></trkpt><trkpt lat="31.2351367" lon="-5.275065"><ele>1007.0</ele><time>2026-04-23T15:29:09.915Z</time></trkpt><trkpt lat="31.2351583" lon="-5.2749533"><ele>1007.0</ele><time>2026-04-23T15:29:10.916Z</time></trkpt><trkpt lat="31.2352" lon="-5.27484"><ele>1007.0</ele><time>2026-04-23T15:29:11.916Z</time></trkpt><trkpt lat="31.2352533" lon="-5.2747317"><ele>1007.0</ele><time>2026-04-23T15:29:12.916Z</time></trkpt><trkpt lat="31.235325" lon="-5.2746267"><ele>1007.0</ele><time>2026-04-23T15:29:13.915Z</time></trkpt><trkpt lat="31.235415" lon="-5.2745"><ele>1007.75</ele><time>2026-04-23T15:29:14.915Z</time></trkpt><trkpt lat="31.235505" lon="-5.27437"><ele>1008.5</ele><time>2026-04-23T15:29:15.915Z</time></trkpt><trkpt lat="31.2355967" lon="-5.274245"><ele>1009.25</ele><time>2026-04-23T15:29:16.916Z</time></trkpt><trkpt lat="31.2356933" lon="-5.274125"><ele>1010.0</ele><time>2026-04-23T15:29:17.916Z</time></trkpt><trkpt lat="31.235795" lon="-5.2740017"><ele>1009.6666666666667</ele><time>2026-04-23T15:29:18.916Z</time></trkpt><trkpt lat="31.2359083" lon="-5.2738633"><ele>1009.3333333333333</ele><time>2026-04-23T15:29:19.915Z</time></trkpt><trkpt lat="31.236025" lon="-5.2737283"><ele>1009.0</ele><time>2026-04-23T15:29:20.916Z</time></trkpt><trkpt lat="31.2361367" lon="-5.273605"><ele>1009.0</ele><time>2026-04-23T15:29:21.916Z</time></trkpt><trkpt lat="31.2362483" lon="-5.2734767"><ele>1009.0</ele><time>2026-04-23T15:29:22.915Z</time></trkpt><trkpt lat="31.236355" lon="-5.2733483"><ele>1009.0</ele><time>2026-04-23T15:29:23.916Z</time></trkpt><trkpt lat="31.2364517" lon="-5.2732183"><ele>1005.5</ele><time>2026-04-23T15:29:24.916Z</time></trkpt><trkpt lat="31.236535" lon="-5.2730717"><ele>1002.0</ele><time>2026-04-23T15:29:25.916Z</time></trkpt><trkpt lat="31.2366167" lon="-5.27293"><ele>998.5</ele><time>2026-04-23T15:29:26.916Z</time></trkpt><trkpt lat="31.2366917" lon="-5.2727917"><ele>995.0</ele><time>2026-04-23T15:29:27.916Z</time></trkpt><trkpt lat="31.2367667" lon="-5.272665"><ele>995.0</ele><time>2026-04-23T15:29:28.915Z</time></trkpt><trkpt lat="31.23684" lon="-5.2725417"><ele>995.0</ele><time>2026-04-23T15:29:29.916Z</time></trkpt><trkpt lat="31.2369217" lon="-5.2724217"><ele>995.0</ele><time>2026-04-23T15:29:30.916Z</time></trkpt><trkpt lat="31.2370067" lon="-5.2722967"><ele>995.0</ele><time>2026-04-23T15:29:31.916Z</time></trkpt><trkpt lat="31.2371017" lon="-5.2721683"><ele>994.0</ele><time>2026-04-23T15:29:32.915Z</time></trkpt><trkpt lat="31.2371967" lon="-5.27203"><ele>993.0</ele><time>2026-04-23T15:29:33.916Z</time></trkpt><trkpt lat="31.2372783" lon="-5.2718817"><ele>992.0</ele><time>2026-04-23T15:29:34.916Z</time></trkpt><trkpt lat="31.237345" lon="-5.27173"><ele>991.0</ele><time>2026-04-23T15:29:35.916Z</time></trkpt><trkpt lat="31.2374" lon="-5.2715783"><ele>991.0</ele><time>2026-04-23T15:29:36.916Z</time></trkpt><trkpt lat="31.237455" lon="-5.27143"><ele>991.0</ele><time>2026-04-23T15:29:37.915Z</time></trkpt><trkpt lat="31.237505" lon="-5.2712917"><ele>991.0</ele><time>2026-04-23T15:29:38.915Z</time></trkpt><trkpt lat="31.2375467" lon="-5.2711533"><ele>991.0</ele><time>2026-04-23T15:29:39.915Z</time></trkpt><trkpt lat="31.237595" lon="-5.2710267"><ele>991.0</ele><time>2026-04-23T15:29:40.916Z</time></trkpt><trkpt lat="31.237645" lon="-5.2709033"><ele>991.0</ele><time>2026-04-23T15:29:41.916Z</time></trkpt><trkpt lat="31.2377067" lon="-5.2707917"><ele>991.0</ele><time>2026-04-23T15:29:42.916Z</time></trkpt><trkpt lat="31.2377833" lon="-5.27069"><ele>991.0</ele><time>2026-04-23T15:29:43.916Z</time></trkpt><trkpt lat="31.2378767" lon="-5.2705967"><ele>990.75</ele><time>2026-04-23T15:29:44.915Z</time></trkpt><trkpt lat="31.2379833" lon="-5.27051"><ele>990.5</ele><time>2026-04-23T15:29:45.916Z</time></trkpt><trkpt lat="31.2380933" lon="-5.2704217"><ele>990.25</ele><time>2026-04-23T15:29:46.916Z</time></trkpt><trkpt lat="31.2381967" lon="-5.27033"><ele>990.0</ele><time>2026-04-23T15:29:47.916Z</time></trkpt><trkpt lat="31.238285" lon="-5.2702217"><ele>991.0</ele><time>2026-04-23T15:29:48.916Z</time></trkpt><trkpt lat="31.2383617" lon="-5.2701033"><ele>992.0</ele><time>2026-04-23T15:29:49.916Z</time></trkpt><trkpt lat="31.2384417" lon="-5.26998"><ele>993.0</ele><time>2026-04-23T15:29:50.916Z</time></trkpt><trkpt lat="31.2385283" lon="-5.2698433"><ele>994.0</ele><time>2026-04-23T15:29:51.916Z</time></trkpt><trkpt lat="31.238625" lon="-5.2697067"><ele>994.0</ele><time>2026-04-23T15:29:52.916Z</time></trkpt><trkpt lat="31.2387233" lon="-5.2695733"><ele>994.0</ele><time>2026-04-23T15:29:53.916Z</time></trkpt><trkpt lat="31.2388217" lon="-5.2694533"><ele>994.0</ele><time>2026-04-23T15:29:54.915Z</time></trkpt><trkpt lat="31.2389133" lon="-5.2693367"><ele>994.0</ele><time>2026-04-23T15:29:55.916Z</time></trkpt><trkpt lat="31.2390033" lon="-5.26923"><ele>994.25</ele><time>2026-04-23T15:29:56.916Z</time></trkpt><trkpt lat="31.2390883" lon="-5.2691267"><ele>994.5</ele><time>2026-04-23T15:29:57.916Z</time></trkpt><trkpt lat="31.2391717" lon="-5.269025"><ele>994.75</ele><time>2026-04-23T15:29:58.916Z</time></trkpt><trkpt lat="31.23925" lon="-5.2689233"><ele>995.0</ele><time>2026-04-23T15:29:59.916Z</time></trkpt><trkpt lat="31.2393267" lon="-5.2688283"><ele>995.0</ele><time>2026-04-23T15:30:00.916Z</time></trkpt><trkpt lat="31.2394" lon="-5.2687233"><ele>995.0</ele><time>2026-04-23T15:30:01.916Z</time></trkpt><trkpt lat="31.2394767" lon="-5.2686267"><ele>995.0</ele><time>2026-04-23T15:30:02.916Z</time></trkpt><trkpt lat="31.239555" lon="-5.2685217"><ele>995.0</ele><time>2026-04-23T15:30:03.916Z</time></trkpt><trkpt lat="31.2396333" lon="-5.2684333"><ele>995.0</ele><time>2026-04-23T15:30:04.916Z</time></trkpt><trkpt lat="31.2397117" lon="-5.26834"><ele>995.0</ele><time>2026-04-23T15:30:05.916Z</time></trkpt><trkpt lat="31.2397917" lon="-5.2682467"><ele>995.0</ele><time>2026-04-23T15:30:06.916Z</time></trkpt><trkpt lat="31.2398717" lon="-5.26815"><ele>995.0</ele><time>2026-04-23T15:30:07.916Z</time></trkpt><trkpt lat="31.23996" lon="-5.2680533"><ele>994.5</ele><time>2026-04-23T15:30:08.916Z</time></trkpt><trkpt lat="31.240055" lon="-5.267955"><ele>994.0</ele><time>2026-04-23T15:30:09.916Z</time></trkpt><trkpt lat="31.2401633" lon="-5.26785"><ele>993.5</ele><time>2026-04-23T15:30:10.916Z</time></trkpt><trkpt lat="31.2402833" lon="-5.2677433"><ele>993.0</ele><time>2026-04-23T15:30:11.916Z</time></trkpt><trkpt lat="31.2404083" lon="-5.2676283"><ele>993.0</ele><time>2026-04-23T15:30:12.916Z</time></trkpt><trkpt lat="31.2405467" lon="-5.2675183"><ele>993.0</ele><time>2026-04-23T15:30:13.916Z</time></trkpt><trkpt lat="31.2406783" lon="-5.2674067"><ele>993.0</ele><time>2026-04-23T15:30:14.915Z</time></trkpt><trkpt lat="31.240805" lon="-5.2672967"><ele>992.5</ele><time>2026-04-23T15:30:15.915Z</time></trkpt><trkpt lat="31.2409267" lon="-5.2671933"><ele>992.0</ele><time>2026-04-23T15:30:16.916Z</time></trkpt><trkpt lat="31.2410433" lon="-5.26709"><ele>991.5</ele><time>2026-04-23T15:30:17.916Z</time></trkpt><trkpt lat="31.2411517" lon="-5.2669867"><ele>991.0</ele><time>2026-04-23T15:30:18.916Z</time></trkpt><trkpt lat="31.2412467" lon="-5.2668817"><ele>991.0</ele><time>2026-04-23T15:30:19.916Z</time></trkpt><trkpt lat="31.2413333" lon="-5.266775"><ele>990.9999999999999</ele><time>2026-04-23T15:30:20.916Z</time></trkpt><trkpt lat="31.2414083" lon="-5.2666817"><ele>990.9999999999999</ele><time>2026-04-23T15:30:21.916Z</time></trkpt><trkpt lat="31.241475" lon="-5.2666067"><ele>991.0</ele><time>2026-04-23T15:30:22.915Z</time></trkpt><trkpt lat="31.241535" lon="-5.2665367"><ele>991.0</ele><time>2026-04-23T15:30:23.916Z</time></trkpt><trkpt lat="31.2415783" lon="-5.2664767"><ele>990.3333333333333</ele><time>2026-04-23T15:30:24.916Z</time></trkpt><trkpt lat="31.24162" lon="-5.2664167"><ele>989.6666666666666</ele><time>2026-04-23T15:30:25.916Z</time></trkpt><trkpt lat="31.241715" lon="-5.26633"><ele>989.0</ele><time>2026-04-23T15:30:27.916Z</time></trkpt><trkpt lat="31.24178" lon="-5.2663033"><ele>988.3333333333333</ele><time>2026-04-23T15:30:28.916Z</time></trkpt><trkpt lat="31.24186" lon="-5.26629"><ele>987.6666666666666</ele><time>2026-04-23T15:30:29.916Z</time></trkpt><trkpt lat="31.241955" lon="-5.2662867"><ele>987.0</ele><time>2026-04-23T15:30:30.916Z</time></trkpt><trkpt lat="31.2420617" lon="-5.2662967"><ele>987.0</ele><time>2026-04-23T15:30:31.915Z</time></trkpt><trkpt lat="31.2421833" lon="-5.2663117"><ele>987.0</ele><time>2026-04-23T15:30:32.916Z</time></trkpt><trkpt lat="31.24232" lon="-5.2663283"><ele>987.0</ele><time>2026-04-23T15:30:33.916Z</time></trkpt><trkpt lat="31.24247" lon="-5.2663467"><ele>987.0</ele><time>2026-04-23T15:30:34.915Z</time></trkpt><trkpt lat="31.2426233" lon="-5.2663667"><ele>987.0</ele><time>2026-04-23T15:30:35.915Z</time></trkpt><trkpt lat="31.242785" lon="-5.2663883"><ele>987.0</ele><time>2026-04-23T15:30:36.916Z</time></trkpt><trkpt lat="31.2429383" lon="-5.266405"><ele>987.0</ele><time>2026-04-23T15:30:37.916Z</time></trkpt><trkpt lat="31.2430867" lon="-5.2664233"><ele>988.0</ele><time>2026-04-23T15:30:38.916Z</time></trkpt><trkpt lat="31.2432383" lon="-5.2664317"><ele>989.0</ele><time>2026-04-23T15:30:39.915Z</time></trkpt><trkpt lat="31.2433983" lon="-5.26643"><ele>990.0</ele><time>2026-04-23T15:30:40.916Z</time></trkpt><trkpt lat="31.2435583" lon="-5.2664117"><ele>990.0</ele><time>2026-04-23T15:30:41.915Z</time></trkpt><trkpt lat="31.2437217" lon="-5.26638"><ele>990.0</ele><time>2026-04-23T15:30:42.915Z</time></trkpt><trkpt lat="31.2438833" lon="-5.2663333"><ele>990.0</ele><time>2026-04-23T15:30:43.916Z</time></trkpt><trkpt lat="31.2440467" lon="-5.2662667"><ele>988.6666666666667</ele><time>2026-04-23T15:30:44.916Z</time></trkpt><trkpt lat="31.2442033" lon="-5.2662033"><ele>987.3333333333334</ele><time>2026-04-23T15:30:45.916Z</time></trkpt><trkpt lat="31.244365" lon="-5.2661333"><ele>986.0</ele><time>2026-04-23T15:30:46.916Z</time></trkpt><trkpt lat="31.24453" lon="-5.2660617"><ele>986.0</ele><time>2026-04-23T15:30:47.916Z</time></trkpt><trkpt lat="31.2447017" lon="-5.2659833"><ele>986.0</ele><time>2026-04-23T15:30:48.916Z</time></trkpt><trkpt lat="31.24487" lon="-5.2659033"><ele>986.0</ele><time>2026-04-23T15:30:49.916Z</time></trkpt><trkpt lat="31.24504" lon="-5.26582"><ele>986.0</ele><time>2026-04-23T15:30:50.916Z</time></trkpt><trkpt lat="31.24521" lon="-5.265735"><ele>986.0</ele><time>2026-04-23T15:30:51.916Z</time></trkpt><trkpt lat="31.2453817" lon="-5.2656533"><ele>986.0</ele><time>2026-04-23T15:30:52.916Z</time></trkpt><trkpt lat="31.245555" lon="-5.2655733"><ele>987.6666666666667</ele><time>2026-04-23T15:30:53.915Z</time></trkpt><trkpt lat="31.2457283" lon="-5.2654917"><ele>989.3333333333333</ele><time>2026-04-23T15:30:54.916Z</time></trkpt><trkpt lat="31.2459033" lon="-5.2654133"><ele>991.0</ele><time>2026-04-23T15:30:55.916Z</time></trkpt><trkpt lat="31.2460817" lon="-5.2653317"><ele>991.0</ele><time>2026-04-23T15:30:56.915Z</time></trkpt><trkpt lat="31.2462583" lon="-5.265255"><ele>991.0</ele><time>2026-04-23T15:30:57.916Z</time></trkpt><trkpt lat="31.2464367" lon="-5.2651733"><ele>991.0</ele><time>2026-04-23T15:30:58.915Z</time></trkpt><trkpt lat="31.24661" lon="-5.2650917"><ele>991.0</ele><time>2026-04-23T15:30:59.916Z</time></trkpt><trkpt lat="31.246775" lon="-5.265015"><ele>991.0</ele><time>2026-04-23T15:31:00.916Z</time></trkpt><trkpt lat="31.2469383" lon="-5.2649383"><ele>991.0</ele><time>2026-04-23T15:31:01.916Z</time></trkpt><trkpt lat="31.2471033" lon="-5.264865"><ele>991.0</ele><time>2026-04-23T15:31:02.915Z</time></trkpt><trkpt lat="31.2472683" lon="-5.26479"><ele>991.0</ele><time>2026-04-23T15:31:03.916Z</time></trkpt><trkpt lat="31.2474333" lon="-5.2647283"><ele>991.0</ele><time>2026-04-23T15:31:04.915Z</time></trkpt><trkpt lat="31.2476083" lon="-5.2646717"><ele>992.3333333333333</ele><time>2026-04-23T15:31:05.916Z</time></trkpt><trkpt lat="31.2477883" lon="-5.264625"><ele>993.6666666666667</ele><time>2026-04-23T15:31:06.916Z</time></trkpt><trkpt lat="31.2479767" lon="-5.2645983"><ele>995.0</ele><time>2026-04-23T15:31:07.915Z</time></trkpt><trkpt lat="31.2481683" lon="-5.264595"><ele>995.0</ele><time>2026-04-23T15:31:08.916Z</time></trkpt><trkpt lat="31.2483633" lon="-5.2646083"><ele>995.0</ele><time>2026-04-23T15:31:09.916Z</time></trkpt><trkpt lat="31.2485633" lon="-5.2646283"><ele>995.0</ele><time>2026-04-23T15:31:10.915Z</time></trkpt><trkpt lat="31.2487583" lon="-5.2646483"><ele>995.0</ele><time>2026-04-23T15:31:11.915Z</time></trkpt><trkpt lat="31.2489583" lon="-5.2646733"><ele>995.0</ele><time>2026-04-23T15:31:12.916Z</time></trkpt><trkpt lat="31.2491583" lon="-5.2647"><ele>995.0</ele><time>2026-04-23T15:31:13.915Z</time></trkpt><trkpt lat="31.2493633" lon="-5.264725"><ele>995.0</ele><time>2026-04-23T15:31:14.916Z</time></trkpt><trkpt lat="31.2495717" lon="-5.2647517"><ele>995.0</ele><time>2026-04-23T15:31:15.916Z</time></trkpt><trkpt lat="31.2497883" lon="-5.2647783"><ele>995.0</ele><time>2026-04-23T15:31:16.916Z</time></trkpt><trkpt lat="31.2500083" lon="-5.2648067"><ele>996.6666666666667</ele><time>2026-04-23T15:31:17.916Z</time></trkpt><trkpt lat="31.25023" lon="-5.2648383"><ele>998.3333333333333</ele><time>2026-04-23T15:31:18.915Z</time></trkpt><trkpt lat="31.2504433" lon="-5.2648667"><ele>1000.0</ele><time>2026-04-23T15:31:19.916Z</time></trkpt><trkpt lat="31.2506617" lon="-5.26489"><ele>1000.0</ele><time>2026-04-23T15:31:20.915Z</time></trkpt><trkpt lat="31.25088" lon="-5.26492"><ele>1000.0</ele><time>2026-04-23T15:31:21.916Z</time></trkpt><trkpt lat="31.2511" lon="-5.264945"><ele>1000.0</ele><time>2026-04-23T15:31:22.915Z</time></trkpt><trkpt lat="31.2513183" lon="-5.2649733"><ele>999.6666666666666</ele><time>2026-04-23T15:31:23.916Z</time></trkpt><trkpt lat="31.2515383" lon="-5.265"><ele>999.3333333333333</ele><time>2026-04-23T15:31:24.915Z</time></trkpt><trkpt lat="31.2517617" lon="-5.2650233"><ele>999.0</ele><time>2026-04-23T15:31:25.916Z</time></trkpt><trkpt lat="31.2519717" lon="-5.2650567"><ele>999.0</ele><time>2026-04-23T15:31:26.916Z</time></trkpt><trkpt lat="31.2521717" lon="-5.2650883"><ele>999.0</ele><time>2026-04-23T15:31:27.916Z</time></trkpt><trkpt lat="31.2523667" lon="-5.2651183"><ele>999.0</ele><time>2026-04-23T15:31:28.916Z</time></trkpt><trkpt lat="31.2525533" lon="-5.2651417"><ele>999.6666666666667</ele><time>2026-04-23T15:31:29.915Z</time></trkpt><trkpt lat="31.2527333" lon="-5.2651683"><ele>1000.3333333333334</ele><time>2026-04-23T15:31:30.916Z</time></trkpt><trkpt lat="31.25291" lon="-5.265205"><ele>1001.0</ele><time>2026-04-23T15:31:31.916Z</time></trkpt><trkpt lat="31.2530933" lon="-5.2652617"><ele>1003.3333333333334</ele><time>2026-04-23T15:31:32.916Z</time></trkpt><trkpt lat="31.25327" lon="-5.265345"><ele>1005.6666666666667</ele><time>2026-04-23T15:31:33.916Z</time></trkpt><trkpt lat="31.2534483" lon="-5.2654367"><ele>1008.0</ele><time>2026-04-23T15:31:34.916Z</time></trkpt><trkpt lat="31.253625" lon="-5.2655367"><ele>1007.0</ele><time>2026-04-23T15:31:35.916Z</time></trkpt><trkpt lat="31.253815" lon="-5.2656333"><ele>1006.0</ele><time>2026-04-23T15:31:36.916Z</time></trkpt><trkpt lat="31.2540083" lon="-5.265725"><ele>1005.0</ele><time>2026-04-23T15:31:37.915Z</time></trkpt><trkpt lat="31.2542017" lon="-5.265815"><ele>1005.0</ele><time>2026-04-23T15:31:38.916Z</time></trkpt><trkpt lat="31.2543933" lon="-5.2659067"><ele>1005.0</ele><time>2026-04-23T15:31:39.915Z</time></trkpt><trkpt lat="31.2545883" lon="-5.266005"><ele>1005.0</ele><time>2026-04-23T15:31:40.916Z</time></trkpt><trkpt lat="31.2547783" lon="-5.2661067"><ele>1006.6666666666667</ele><time>2026-04-23T15:31:41.916Z</time></trkpt><trkpt lat="31.2549717" lon="-5.2662117"><ele>1008.3333333333334</ele><time>2026-04-23T15:31:42.916Z</time></trkpt><trkpt lat="31.2551667" lon="-5.266305"><ele>1010.0</ele><time>2026-04-23T15:31:43.916Z</time></trkpt><trkpt lat="31.255365" lon="-5.26638"><ele>1010.0</ele><time>2026-04-23T15:31:44.915Z</time></trkpt><trkpt lat="31.25556" lon="-5.26644"><ele>1010.0</ele><time>2026-04-23T15:31:45.915Z</time></trkpt><trkpt lat="31.2557583" lon="-5.2664683"><ele>1010.0</ele><time>2026-04-23T15:31:46.914Z</time></trkpt><trkpt lat="31.255955" lon="-5.2664667"><ele>1010.0</ele><time>2026-04-23T15:31:47.915Z</time></trkpt><trkpt lat="31.256145" lon="-5.2664233"><ele>1010.0</ele><time>2026-04-23T15:31:48.914Z</time></trkpt><trkpt lat="31.2563283" lon="-5.2663517"><ele>1010.0</ele><time>2026-04-23T15:31:49.915Z</time></trkpt><trkpt lat="31.2565067" lon="-5.2662517"><ele>1010.6666666666667</ele><time>2026-04-23T15:31:50.915Z</time></trkpt><trkpt lat="31.2566933" lon="-5.26616"><ele>1011.3333333333333</ele><time>2026-04-23T15:31:51.915Z</time></trkpt><trkpt lat="31.256885" lon="-5.2660617"><ele>1012.0</ele><time>2026-04-23T15:31:52.915Z</time></trkpt><trkpt lat="31.257075" lon="-5.2659633"><ele>1012.0</ele><time>2026-04-23T15:31:53.914Z</time></trkpt><trkpt lat="31.2572667" lon="-5.265865"><ele>1012.0</ele><time>2026-04-23T15:31:54.914Z</time></trkpt><trkpt lat="31.2574683" lon="-5.2657717"><ele>1012.0</ele><time>2026-04-23T15:31:55.915Z</time></trkpt><trkpt lat="31.2576717" lon="-5.2656817"><ele>1013.3333333333333</ele><time>2026-04-23T15:31:56.915Z</time></trkpt><trkpt lat="31.2578733" lon="-5.2655767"><ele>1014.6666666666667</ele><time>2026-04-23T15:31:57.915Z</time></trkpt><trkpt lat="31.2580767" lon="-5.2654683"><ele>1016.0</ele><time>2026-04-23T15:31:58.915Z</time></trkpt><trkpt lat="31.2582833" lon="-5.2653617"><ele>1019.5</ele><time>2026-04-23T15:31:59.915Z</time></trkpt><trkpt lat="31.258485" lon="-5.265255"><ele>1023.0</ele><time>2026-04-23T15:32:00.915Z</time></trkpt><trkpt lat="31.258695" lon="-5.2651483"><ele>1023.0</ele><time>2026-04-23T15:32:01.915Z</time></trkpt><trkpt lat="31.258905" lon="-5.2650467"><ele>1023.0</ele><time>2026-04-23T15:32:02.915Z</time></trkpt><trkpt lat="31.259115" lon="-5.264945"><ele>1023.5</ele><time>2026-04-23T15:32:03.915Z</time></trkpt><trkpt lat="31.25933" lon="-5.2648383"><ele>1024.0</ele><time>2026-04-23T15:32:04.915Z</time></trkpt><trkpt lat="31.2595367" lon="-5.2647283"><ele>1023.0</ele><time>2026-04-23T15:32:05.915Z</time></trkpt><trkpt lat="31.2597483" lon="-5.26462"><ele>1022.0</ele><time>2026-04-23T15:32:06.915Z</time></trkpt><trkpt lat="31.259965" lon="-5.26451"><ele>1025.0</ele><time>2026-04-23T15:32:07.915Z</time></trkpt><trkpt lat="31.26018" lon="-5.2644083"><ele>1028.0</ele><time>2026-04-23T15:32:08.914Z</time></trkpt><trkpt lat="31.2603933" lon="-5.2643067"><ele>1028.0</ele><time>2026-04-23T15:32:09.914Z</time></trkpt><trkpt lat="31.2606067" lon="-5.2642"><ele>1028.0</ele><time>2026-04-23T15:32:10.915Z</time></trkpt><trkpt lat="31.2608267" lon="-5.264095"><ele>1028.5</ele><time>2026-04-23T15:32:11.915Z</time></trkpt><trkpt lat="31.261045" lon="-5.2639867"><ele>1029.0</ele><time>2026-04-23T15:32:12.915Z</time></trkpt><trkpt lat="31.26126" lon="-5.26388"><ele>1030.5</ele><time>2026-04-23T15:32:13.915Z</time></trkpt><trkpt lat="31.26148" lon="-5.263775"><ele>1032.0</ele><time>2026-04-23T15:32:14.915Z</time></trkpt><trkpt lat="31.2617017" lon="-5.2636667"><ele>1032.0</ele><time>2026-04-23T15:32:15.915Z</time></trkpt><trkpt lat="31.26192" lon="-5.2635567"><ele>1032.0</ele><time>2026-04-23T15:32:16.915Z</time></trkpt><trkpt lat="31.2621417" lon="-5.2634517"><ele>1036.5</ele><time>2026-04-23T15:32:17.915Z</time></trkpt><trkpt lat="31.2623617" lon="-5.263345"><ele>1041.0</ele><time>2026-04-23T15:32:18.914Z</time></trkpt><trkpt lat="31.2625817" lon="-5.26323"><ele>1041.0</ele><time>2026-04-23T15:32:19.915Z</time></trkpt><trkpt lat="31.2627967" lon="-5.263125"><ele>1041.0</ele><time>2026-04-23T15:32:20.915Z</time></trkpt><trkpt lat="31.263005" lon="-5.26302"><ele>1040.3333333333333</ele><time>2026-04-23T15:32:21.915Z</time></trkpt><trkpt lat="31.263205" lon="-5.2629083"><ele>1039.6666666666665</ele><time>2026-04-23T15:32:22.915Z</time></trkpt><trkpt lat="31.26339" lon="-5.2627683"><ele>1039.0</ele><time>2026-04-23T15:32:23.915Z</time></trkpt><trkpt lat="31.263565" lon="-5.2626133"><ele>1039.0</ele><time>2026-04-23T15:32:24.914Z</time></trkpt><trkpt lat="31.2637333" lon="-5.26246"><ele>1039.0</ele><time>2026-04-23T15:32:25.915Z</time></trkpt><trkpt lat="31.263895" lon="-5.2623133"><ele>1039.0</ele><time>2026-04-23T15:32:26.914Z</time></trkpt><trkpt lat="31.26406" lon="-5.2621683"><ele>1037.6666666666665</ele><time>2026-04-23T15:32:27.915Z</time></trkpt><trkpt lat="31.2642217" lon="-5.262025"><ele>1036.3333333333333</ele><time>2026-04-23T15:32:28.915Z</time></trkpt><trkpt lat="31.2643783" lon="-5.261885"><ele>1035.0</ele><time>2026-04-23T15:32:29.915Z</time></trkpt><trkpt lat="31.2645383" lon="-5.2617483"><ele>1035.0</ele><time>2026-04-23T15:32:30.915Z</time></trkpt><trkpt lat="31.264685" lon="-5.261595"><ele>1035.0</ele><time>2026-04-23T15:32:31.914Z</time></trkpt><trkpt lat="31.2648217" lon="-5.26144"><ele>1035.0</ele><time>2026-04-23T15:32:32.915Z</time></trkpt><trkpt lat="31.264955" lon="-5.261275"><ele>1035.6666666666667</ele><time>2026-04-23T15:32:33.915Z</time></trkpt><trkpt lat="31.2650733" lon="-5.2611"><ele>1036.3333333333335</ele><time>2026-04-23T15:32:34.915Z</time></trkpt><trkpt lat="31.265185" lon="-5.260915"><ele>1037.0</ele><time>2026-04-23T15:32:35.915Z</time></trkpt><trkpt lat="31.2652933" lon="-5.2607217"><ele>1037.0</ele><time>2026-04-23T15:32:36.915Z</time></trkpt><trkpt lat="31.265405" lon="-5.2605267"><ele>1037.0</ele><time>2026-04-23T15:32:37.915Z</time></trkpt><trkpt lat="31.26552" lon="-5.2603367"><ele>1037.0</ele><time>2026-04-23T15:32:38.915Z</time></trkpt><trkpt lat="31.26564" lon="-5.26014"><ele>1037.0</ele><time>2026-04-23T15:32:39.915Z</time></trkpt><trkpt lat="31.2657633" lon="-5.2599417"><ele>1037.0</ele><time>2026-04-23T15:32:40.914Z</time></trkpt><trkpt lat="31.2658883" lon="-5.2597417"><ele>1037.0</ele><time>2026-04-23T15:32:41.915Z</time></trkpt><trkpt lat="31.2660133" lon="-5.2595417"><ele>1035.6666666666667</ele><time>2026-04-23T15:32:42.914Z</time></trkpt><trkpt lat="31.2661317" lon="-5.2593333"><ele>1034.3333333333333</ele><time>2026-04-23T15:32:43.915Z</time></trkpt><trkpt lat="31.26626" lon="-5.2591283"><ele>1033.0</ele><time>2026-04-23T15:32:44.914Z</time></trkpt><trkpt lat="31.2663883" lon="-5.2589183"><ele>1032.0</ele><time>2026-04-23T15:32:45.915Z</time></trkpt><trkpt lat="31.266515" lon="-5.2587083"><ele>1031.0</ele><time>2026-04-23T15:32:46.915Z</time></trkpt><trkpt lat="31.2666433" lon="-5.2585017"><ele>1030.0</ele><time>2026-04-23T15:32:47.915Z</time></trkpt><trkpt lat="31.266775" lon="-5.2582917"><ele>1029.3333333333333</ele><time>2026-04-23T15:32:48.915Z</time></trkpt><trkpt lat="31.2669017" lon="-5.2580833"><ele>1028.6666666666667</ele><time>2026-04-23T15:32:49.914Z</time></trkpt><trkpt lat="31.2670233" lon="-5.257875"><ele>1028.0</ele><time>2026-04-23T15:32:50.915Z</time></trkpt><trkpt lat="31.2671433" lon="-5.2576733"><ele>1028.0</ele><time>2026-04-23T15:32:51.915Z</time></trkpt><trkpt lat="31.26726" lon="-5.2574767"><ele>1028.0</ele><time>2026-04-23T15:32:52.915Z</time></trkpt><trkpt lat="31.2673783" lon="-5.2572833"><ele>1028.0</ele><time>2026-04-23T15:32:53.915Z</time></trkpt><trkpt lat="31.2674917" lon="-5.25709"><ele>1028.3333333333335</ele><time>2026-04-23T15:32:54.915Z</time></trkpt><trkpt lat="31.26761" lon="-5.2568933"><ele>1028.6666666666667</ele><time>2026-04-23T15:32:55.915Z</time></trkpt><trkpt lat="31.267725" lon="-5.2566967"><ele>1029.0</ele><time>2026-04-23T15:32:56.915Z</time></trkpt><trkpt lat="31.2678367" lon="-5.2565017"><ele>1030.0</ele><time>2026-04-23T15:32:57.915Z</time></trkpt><trkpt lat="31.2679533" lon="-5.2563117"><ele>1031.0</ele><time>2026-04-23T15:32:58.915Z</time></trkpt><trkpt lat="31.268075" lon="-5.256115"><ele>1032.0</ele><time>2026-04-23T15:32:59.915Z</time></trkpt><trkpt lat="31.268195" lon="-5.2559217"><ele>1032.6666666666667</ele><time>2026-04-23T15:33:00.915Z</time></trkpt><trkpt lat="31.2683133" lon="-5.2557233"><ele>1033.3333333333335</ele><time>2026-04-23T15:33:01.914Z</time></trkpt><trkpt lat="31.2684333" lon="-5.25552"><ele>1034.0</ele><time>2026-04-23T15:33:02.915Z</time></trkpt><trkpt lat="31.2685567" lon="-5.2553233"><ele>1034.3333333333335</ele><time>2026-04-23T15:33:03.915Z</time></trkpt><trkpt lat="31.2686767" lon="-5.25513"><ele>1034.6666666666667</ele><time>2026-04-23T15:33:04.915Z</time></trkpt><trkpt lat="31.2688" lon="-5.2549317"><ele>1035.0</ele><time>2026-04-23T15:33:05.915Z</time></trkpt><trkpt lat="31.2689283" lon="-5.2547383"><ele>1035.0</ele><time>2026-04-23T15:33:06.915Z</time></trkpt><trkpt lat="31.2690633" lon="-5.2545533"><ele>1035.0</ele><time>2026-04-23T15:33:07.915Z</time></trkpt><trkpt lat="31.2692067" lon="-5.25438"><ele>1035.0</ele><time>2026-04-23T15:33:08.914Z</time></trkpt><trkpt lat="31.2693567" lon="-5.2542317"><ele>1035.0</ele><time>2026-04-23T15:33:09.914Z</time></trkpt><trkpt lat="31.2695167" lon="-5.2541017"><ele>1035.0</ele><time>2026-04-23T15:33:10.915Z</time></trkpt><trkpt lat="31.2696717" lon="-5.253985"><ele>1035.0</ele><time>2026-04-23T15:33:11.914Z</time></trkpt><trkpt lat="31.2698233" lon="-5.253875"><ele>1035.3333333333333</ele><time>2026-04-23T15:33:12.914Z</time></trkpt><trkpt lat="31.2699633" lon="-5.2537667"><ele>1035.6666666666665</ele><time>2026-04-23T15:33:13.915Z</time></trkpt><trkpt lat="31.2701" lon="-5.2536733"><ele>1036.0</ele><time>2026-04-23T15:33:14.915Z</time></trkpt><trkpt lat="31.270235" lon="-5.2535967"><ele>1036.0</ele><time>2026-04-23T15:33:15.915Z</time></trkpt><trkpt lat="31.2703667" lon="-5.253555"><ele>1036.0</ele><time>2026-04-23T15:33:16.914Z</time></trkpt><trkpt lat="31.2704917" lon="-5.25355"><ele>1036.0</ele><time>2026-04-23T15:33:17.915Z</time></trkpt><trkpt lat="31.27062" lon="-5.2535883"><ele>1036.0</ele><time>2026-04-23T15:33:18.915Z</time></trkpt><trkpt lat="31.270735" lon="-5.2536583"><ele>1037.0</ele><time>2026-04-23T15:33:19.915Z</time></trkpt><trkpt lat="31.2708417" lon="-5.253755"><ele>1038.0</ele><time>2026-04-23T15:33:20.915Z</time></trkpt><trkpt lat="31.270945" lon="-5.2538817"><ele>1039.0</ele><time>2026-04-23T15:33:21.915Z</time></trkpt><trkpt lat="31.2710417" lon="-5.2540233"><ele>1040.0</ele><time>2026-04-23T15:33:22.915Z</time></trkpt><trkpt lat="31.2711133" lon="-5.2541883"><ele>1042.3333333333335</ele><time>2026-04-23T15:33:23.915Z</time></trkpt><trkpt lat="31.2711667" lon="-5.254365"><ele>1044.6666666666667</ele><time>2026-04-23T15:33:24.914Z</time></trkpt><trkpt lat="31.2712067" lon="-5.2545333"><ele>1047.0</ele><time>2026-04-23T15:33:25.915Z</time></trkpt><trkpt lat="31.2712733" lon="-5.2547017"><ele>1047.0</ele><time>2026-04-23T15:33:26.915Z</time></trkpt><trkpt lat="31.2713517" lon="-5.2548633"><ele>1047.0</ele><time>2026-04-23T15:33:27.915Z</time></trkpt><trkpt lat="31.271445" lon="-5.2550133"><ele>1047.0</ele><time>2026-04-23T15:33:28.914Z</time></trkpt><trkpt lat="31.2715383" lon="-5.2551417"><ele>1047.0</ele><time>2026-04-23T15:33:29.915Z</time></trkpt><trkpt lat="31.271625" lon="-5.2552583"><ele>1047.0</ele><time>2026-04-23T15:33:30.915Z</time></trkpt><trkpt lat="31.27172" lon="-5.2553767"><ele>1047.0</ele><time>2026-04-23T15:33:31.915Z</time></trkpt><trkpt lat="31.2718267" lon="-5.2554917"><ele>1047.0</ele><time>2026-04-23T15:33:32.915Z</time></trkpt><trkpt lat="31.2719483" lon="-5.2555933"><ele>1047.6666666666667</ele><time>2026-04-23T15:33:33.914Z</time></trkpt><trkpt lat="31.27208" lon="-5.255685"><ele>1048.3333333333335</ele><time>2026-04-23T15:33:34.915Z</time></trkpt><trkpt lat="31.27222" lon="-5.2557883"><ele>1049.0</ele><time>2026-04-23T15:33:35.915Z</time></trkpt><trkpt lat="31.2723583" lon="-5.25591"><ele>1049.0</ele><time>2026-04-23T15:33:36.915Z</time></trkpt><trkpt lat="31.272495" lon="-5.256025"><ele>1049.0</ele><time>2026-04-23T15:33:37.915Z</time></trkpt><trkpt lat="31.272635" lon="-5.2561167"><ele>1049.0</ele><time>2026-04-23T15:33:38.915Z</time></trkpt><trkpt lat="31.2728017" lon="-5.2561683"><ele>1049.0</ele><time>2026-04-23T15:33:39.915Z</time></trkpt><trkpt lat="31.2729717" lon="-5.2561933"><ele>1049.0</ele><time>2026-04-23T15:33:40.915Z</time></trkpt><trkpt lat="31.2731517" lon="-5.25621"><ele>1049.0</ele><time>2026-04-23T15:33:41.915Z</time></trkpt><trkpt lat="31.2733383" lon="-5.2562067"><ele>1048.3333333333335</ele><time>2026-04-23T15:33:42.915Z</time></trkpt><trkpt lat="31.2735267" lon="-5.2562"><ele>1047.6666666666667</ele><time>2026-04-23T15:33:43.915Z</time></trkpt><trkpt lat="31.27372" lon="-5.2561983"><ele>1047.0</ele><time>2026-04-23T15:33:44.914Z</time></trkpt><trkpt lat="31.27392" lon="-5.2562217"><ele>1049.6666666666667</ele><time>2026-04-23T15:33:45.915Z</time></trkpt><trkpt lat="31.2741233" lon="-5.256255"><ele>1052.3333333333335</ele><time>2026-04-23T15:33:46.915Z</time></trkpt><trkpt lat="31.274325" lon="-5.2562967"><ele>1055.0</ele><time>2026-04-23T15:33:47.915Z</time></trkpt><trkpt lat="31.27452" lon="-5.256335"><ele>1055.0</ele><time>2026-04-23T15:33:48.915Z</time></trkpt><trkpt lat="31.2746983" lon="-5.25638"><ele>1055.0</ele><time>2026-04-23T15:33:49.915Z</time></trkpt><trkpt lat="31.2748667" lon="-5.256445"><ele>1055.0</ele><time>2026-04-23T15:33:50.915Z</time></trkpt><trkpt lat="31.27501" lon="-5.2565433"><ele>1056.25</ele><time>2026-04-23T15:33:51.915Z</time></trkpt><trkpt lat="31.27513" lon="-5.2566517"><ele>1057.5</ele><time>2026-04-23T15:33:52.914Z</time></trkpt><trkpt lat="31.2752383" lon="-5.2567683"><ele>1058.75</ele><time>2026-04-23T15:33:53.915Z</time></trkpt><trkpt lat="31.2753333" lon="-5.256885"><ele>1060.0</ele><time>2026-04-23T15:33:54.914Z</time></trkpt><trkpt lat="31.275445" lon="-5.257005"><ele>1060.0</ele><time>2026-04-23T15:33:55.914Z</time></trkpt><trkpt lat="31.27556" lon="-5.2571267"><ele>1060.0</ele><time>2026-04-23T15:33:56.915Z</time></trkpt><trkpt lat="31.275685" lon="-5.2572383"><ele>1060.0</ele><time>2026-04-23T15:33:57.915Z</time></trkpt><trkpt lat="31.275825" lon="-5.2573317"><ele>1061.6666666666665</ele><time>2026-04-23T15:33:58.915Z</time></trkpt><trkpt lat="31.27598" lon="-5.2573933"><ele>1063.3333333333333</ele><time>2026-04-23T15:33:59.915Z</time></trkpt><trkpt lat="31.276145" lon="-5.2574333"><ele>1065.0</ele><time>2026-04-23T15:34:00.915Z</time></trkpt><trkpt lat="31.2763217" lon="-5.257455"><ele>1066.0</ele><time>2026-04-23T15:34:01.915Z</time></trkpt><trkpt lat="31.2765017" lon="-5.257465"><ele>1067.0</ele><time>2026-04-23T15:34:02.915Z</time></trkpt><trkpt lat="31.2766833" lon="-5.2574617"><ele>1068.0</ele><time>2026-04-23T15:34:03.915Z</time></trkpt><trkpt lat="31.2768767" lon="-5.25743"><ele>1068.0</ele><time>2026-04-23T15:34:04.915Z</time></trkpt><trkpt lat="31.2770617" lon="-5.2573817"><ele>1068.0</ele><time>2026-04-23T15:34:05.915Z</time></trkpt><trkpt lat="31.2772433" lon="-5.257335"><ele>1068.0</ele><time>2026-04-23T15:34:06.914Z</time></trkpt><trkpt lat="31.277405" lon="-5.2572983"><ele>1066.5</ele><time>2026-04-23T15:34:07.915Z</time></trkpt><trkpt lat="31.27755" lon="-5.2572683"><ele>1065.0</ele><time>2026-04-23T15:34:08.914Z</time></trkpt><trkpt lat="31.2776917" lon="-5.2572483"><ele>1063.5</ele><time>2026-04-23T15:34:09.915Z</time></trkpt><trkpt lat="31.2778333" lon="-5.2572433"><ele>1062.0</ele><time>2026-04-23T15:34:10.914Z</time></trkpt><trkpt lat="31.2779683" lon="-5.2572533"><ele>1065.0</ele><time>2026-04-23T15:34:11.915Z</time></trkpt><trkpt lat="31.2780833" lon="-5.2572983"><ele>1068.0</ele><time>2026-04-23T15:34:12.915Z</time></trkpt><trkpt lat="31.2781867" lon="-5.2573817"><ele>1071.0</ele><time>2026-04-23T15:34:13.915Z</time></trkpt><trkpt lat="31.278295" lon="-5.25749"><ele>1074.0</ele><time>2026-04-23T15:34:14.915Z</time></trkpt><trkpt lat="31.2784033" lon="-5.2576183"><ele>1074.0</ele><time>2026-04-23T15:34:15.915Z</time></trkpt><trkpt lat="31.27852" lon="-5.2577583"><ele>1074.0</ele><time>2026-04-23T15:34:16.915Z</time></trkpt><trkpt lat="31.278655" lon="-5.25791"><ele>1074.0</ele><time>2026-04-23T15:34:17.914Z</time></trkpt><trkpt lat="31.2787983" lon="-5.258075"><ele>1072.3333333333333</ele><time>2026-04-23T15:34:18.915Z</time></trkpt><trkpt lat="31.2789517" lon="-5.2582533"><ele>1070.6666666666665</ele><time>2026-04-23T15:34:19.915Z</time></trkpt><trkpt lat="31.279105" lon="-5.258435"><ele>1069.0</ele><time>2026-04-23T15:34:20.915Z</time></trkpt><trkpt lat="31.2792667" lon="-5.25863"><ele>1069.0</ele><time>2026-04-23T15:34:21.915Z</time></trkpt><trkpt lat="31.279425" lon="-5.2588233"><ele>1069.0</ele><time>2026-04-23T15:34:22.915Z</time></trkpt><trkpt lat="31.2795883" lon="-5.2590233"><ele>1069.0</ele><time>2026-04-23T15:34:23.915Z</time></trkpt><trkpt lat="31.2797583" lon="-5.2592217"><ele>1069.0</ele><time>2026-04-23T15:34:24.914Z</time></trkpt><trkpt lat="31.279925" lon="-5.2594133"><ele>1069.0</ele><time>2026-04-23T15:34:25.915Z</time></trkpt><trkpt lat="31.280095" lon="-5.259605"><ele>1069.0</ele><time>2026-04-23T15:34:26.915Z</time></trkpt><trkpt lat="31.28026" lon="-5.2598"><ele>1076.0</ele><time>2026-04-23T15:34:27.915Z</time></trkpt><trkpt lat="31.2804267" lon="-5.2599967"><ele>1083.0</ele><time>2026-04-23T15:34:28.915Z</time></trkpt><trkpt lat="31.2805933" lon="-5.2601933"><ele>1077.0</ele><time>2026-04-23T15:34:29.915Z</time></trkpt><trkpt lat="31.2807583" lon="-5.2603833"><ele>1071.0</ele><time>2026-04-23T15:34:30.915Z</time></trkpt><trkpt lat="31.28092" lon="-5.2605733"><ele>1076.5</ele><time>2026-04-23T15:34:31.915Z</time></trkpt><trkpt lat="31.2810917" lon="-5.2607583"><ele>1082.0</ele><time>2026-04-23T15:34:32.915Z</time></trkpt><trkpt lat="31.2812633" lon="-5.26094"><ele>1076.5</ele><time>2026-04-23T15:34:33.915Z</time></trkpt><trkpt lat="31.28144" lon="-5.261115"><ele>1071.0</ele><time>2026-04-23T15:34:34.914Z</time></trkpt><trkpt lat="31.28162" lon="-5.2612783"><ele>1071.0</ele><time>2026-04-23T15:34:35.915Z</time></trkpt><trkpt lat="31.2818033" lon="-5.26143"><ele>1071.0</ele><time>2026-04-23T15:34:36.915Z</time></trkpt><trkpt lat="31.28198" lon="-5.2615667"><ele>1071.0</ele><time>2026-04-23T15:34:37.914Z</time></trkpt><trkpt lat="31.2821467" lon="-5.261695"><ele>1072.6666666666667</ele><time>2026-04-23T15:34:38.915Z</time></trkpt><trkpt lat="31.2822983" lon="-5.2618183"><ele>1074.3333333333335</ele><time>2026-04-23T15:34:39.915Z</time></trkpt><trkpt lat="31.28245" lon="-5.26194"><ele>1076.0</ele><time>2026-04-23T15:34:40.914Z</time></trkpt><trkpt lat="31.2826183" lon="-5.26205"><ele>1076.0</ele><time>2026-04-23T15:34:41.914Z</time></trkpt><trkpt lat="31.2827983" lon="-5.2621483"><ele>1076.0</ele><time>2026-04-23T15:34:42.915Z</time></trkpt><trkpt lat="31.2829867" lon="-5.262215"><ele>1076.0</ele><time>2026-04-23T15:34:43.914Z</time></trkpt><trkpt lat="31.2831683" lon="-5.26225"><ele>1075.3333333333335</ele><time>2026-04-23T15:34:44.915Z</time></trkpt><trkpt lat="31.283355" lon="-5.2622417"><ele>1074.6666666666667</ele><time>2026-04-23T15:34:45.915Z</time></trkpt><trkpt lat="31.2835467" lon="-5.2621883"><ele>1074.0</ele><time>2026-04-23T15:34:46.915Z</time></trkpt><trkpt lat="31.28374" lon="-5.2620983"><ele>1075.0</ele><time>2026-04-23T15:34:47.915Z</time></trkpt><trkpt lat="31.2839333" lon="-5.26199"><ele>1076.0</ele><time>2026-04-23T15:34:48.914Z</time></trkpt><trkpt lat="31.2841283" lon="-5.2618917"><ele>1077.0</ele><time>2026-04-23T15:34:49.914Z</time></trkpt><trkpt lat="31.2843333" lon="-5.261785"><ele>1077.0</ele><time>2026-04-23T15:34:50.915Z</time></trkpt><trkpt lat="31.2845333" lon="-5.2616717"><ele>1077.0</ele><time>2026-04-23T15:34:51.915Z</time></trkpt><trkpt lat="31.2847417" lon="-5.2615567"><ele>1079.0</ele><time>2026-04-23T15:34:52.915Z</time></trkpt><trkpt lat="31.28496" lon="-5.2614433"><ele>1081.0</ele><time>2026-04-23T15:34:53.914Z</time></trkpt><trkpt lat="31.28518" lon="-5.2613283"><ele>1081.0</ele><time>2026-04-23T15:34:54.915Z</time></trkpt><trkpt lat="31.2854017" lon="-5.2612083"><ele>1081.0</ele><time>2026-04-23T15:34:55.915Z</time></trkpt><trkpt lat="31.2856267" lon="-5.26108"><ele>1082.5</ele><time>2026-04-23T15:34:56.915Z</time></trkpt><trkpt lat="31.2858567" lon="-5.2609583"><ele>1084.0</ele><time>2026-04-23T15:34:57.915Z</time></trkpt><trkpt lat="31.2860833" lon="-5.2608417"><ele>1084.0</ele><time>2026-04-23T15:34:58.914Z</time></trkpt><trkpt lat="31.2862983" lon="-5.2607233"><ele>1084.0</ele><time>2026-04-23T15:34:59.915Z</time></trkpt><trkpt lat="31.286515" lon="-5.2606117"><ele>1083.5</ele><time>2026-04-23T15:35:00.915Z</time></trkpt><trkpt lat="31.2867333" lon="-5.2605017"><ele>1083.0</ele><time>2026-04-23T15:35:01.915Z</time></trkpt><trkpt lat="31.2869483" lon="-5.2603933"><ele>1083.0</ele><time>2026-04-23T15:35:02.914Z</time></trkpt><trkpt lat="31.2871683" lon="-5.2602833"><ele>1083.0</ele><time>2026-04-23T15:35:03.915Z</time></trkpt><trkpt lat="31.287395" lon="-5.2601683"><ele>1083.5</ele><time>2026-04-23T15:35:04.915Z</time></trkpt><trkpt lat="31.287625" lon="-5.2600417"><ele>1084.0</ele><time>2026-04-23T15:35:05.915Z</time></trkpt><trkpt lat="31.2878533" lon="-5.259915"><ele>1084.0</ele><time>2026-04-23T15:35:06.915Z</time></trkpt><trkpt lat="31.2880767" lon="-5.2597867"><ele>1084.0</ele><time>2026-04-23T15:35:07.915Z</time></trkpt><trkpt lat="31.2882883" lon="-5.2596633"><ele>1086.5</ele><time>2026-04-23T15:35:08.915Z</time></trkpt><trkpt lat="31.2884967" lon="-5.259545"><ele>1089.0</ele><time>2026-04-23T15:35:09.915Z</time></trkpt><trkpt lat="31.2887017" lon="-5.25943"><ele>1089.0</ele><time>2026-04-23T15:35:10.915Z</time></trkpt><trkpt lat="31.2889067" lon="-5.2593067"><ele>1089.0</ele><time>2026-04-23T15:35:11.915Z</time></trkpt><trkpt lat="31.2891133" lon="-5.2591817"><ele>1090.5</ele><time>2026-04-23T15:35:12.915Z</time></trkpt><trkpt lat="31.28932" lon="-5.259055"><ele>1092.0</ele><time>2026-04-23T15:35:13.915Z</time></trkpt><trkpt lat="31.28953" lon="-5.25893"><ele>1092.0</ele><time>2026-04-23T15:35:14.914Z</time></trkpt><trkpt lat="31.2897333" lon="-5.2588167"><ele>1092.0</ele><time>2026-04-23T15:35:15.914Z</time></trkpt><trkpt lat="31.2899267" lon="-5.2587117"><ele>1092.0</ele><time>2026-04-23T15:35:16.913Z</time></trkpt><trkpt lat="31.2901133" lon="-5.2586233"><ele>1094.0</ele><time>2026-04-23T15:35:17.914Z</time></trkpt><trkpt lat="31.2903067" lon="-5.258565"><ele>1096.0</ele><time>2026-04-23T15:35:18.915Z</time></trkpt><trkpt lat="31.2905" lon="-5.25852"><ele>1098.0</ele><time>2026-04-23T15:35:19.914Z</time></trkpt><trkpt lat="31.290685" lon="-5.2584833"><ele>1099.5</ele><time>2026-04-23T15:35:20.914Z</time></trkpt><trkpt lat="31.2908517" lon="-5.2584533"><ele>1101.0</ele><time>2026-04-23T15:35:21.915Z</time></trkpt><trkpt lat="31.290995" lon="-5.258425"><ele>1102.5</ele><time>2026-04-23T15:35:22.915Z</time></trkpt><trkpt lat="31.2911183" lon="-5.2583967"><ele>1104.0</ele><time>2026-04-23T15:35:23.915Z</time></trkpt><trkpt lat="31.291225" lon="-5.2583617"><ele>1104.0</ele><time>2026-04-23T15:35:24.915Z</time></trkpt><trkpt lat="31.291315" lon="-5.2583233"><ele>1104.0</ele><time>2026-04-23T15:35:25.914Z</time></trkpt><trkpt lat="31.2913967" lon="-5.25829"><ele>1104.0</ele><time>2026-04-23T15:35:26.914Z</time></trkpt><trkpt lat="31.2914783" lon="-5.258255"><ele>1104.0</ele><time>2026-04-23T15:35:27.915Z</time></trkpt><trkpt lat="31.291565" lon="-5.25822"><ele>1104.0</ele><time>2026-04-23T15:35:28.914Z</time></trkpt><trkpt lat="31.2916633" lon="-5.2581867"><ele>1105.25</ele><time>2026-04-23T15:35:29.915Z</time></trkpt><trkpt lat="31.29177" lon="-5.25816"><ele>1106.5</ele><time>2026-04-23T15:35:30.915Z</time></trkpt><trkpt lat="31.29188" lon="-5.25813"><ele>1107.75</ele><time>2026-04-23T15:35:31.915Z</time></trkpt><trkpt lat="31.2919967" lon="-5.2581133"><ele>1109.0</ele><time>2026-04-23T15:35:32.914Z</time></trkpt><trkpt lat="31.2921267" lon="-5.2581033"><ele>1110.5</ele><time>2026-04-23T15:35:33.914Z</time></trkpt><trkpt lat="31.29226" lon="-5.2581067"><ele>1112.0</ele><time>2026-04-23T15:35:34.915Z</time></trkpt><trkpt lat="31.2924033" lon="-5.2581217"><ele>1113.5</ele><time>2026-04-23T15:35:35.915Z</time></trkpt><trkpt lat="31.292555" lon="-5.2581467"><ele>1115.0</ele><time>2026-04-23T15:35:36.915Z</time></trkpt><trkpt lat="31.292715" lon="-5.25818"><ele>1116.6666666666667</ele><time>2026-04-23T15:35:37.915Z</time></trkpt><trkpt lat="31.2928783" lon="-5.258215"><ele>1118.3333333333333</ele><time>2026-04-23T15:35:38.915Z</time></trkpt><trkpt lat="31.2930517" lon="-5.2582433"><ele>1120.0</ele><time>2026-04-23T15:35:39.915Z</time></trkpt><trkpt lat="31.29323" lon="-5.2582717"><ele>1121.6666666666665</ele><time>2026-04-23T15:35:40.915Z</time></trkpt><trkpt lat="31.2934183" lon="-5.2583067"><ele>1123.3333333333333</ele><time>2026-04-23T15:35:41.915Z</time></trkpt><trkpt lat="31.293595" lon="-5.2583483"><ele>1125.0</ele><time>2026-04-23T15:35:42.915Z</time></trkpt><trkpt lat="31.2937567" lon="-5.2584133"><ele>1125.0</ele><time>2026-04-23T15:35:43.914Z</time></trkpt><trkpt lat="31.2939083" lon="-5.2585133"><ele>1125.0</ele><time>2026-04-23T15:35:44.914Z</time></trkpt><trkpt lat="31.294065" lon="-5.2586333"><ele>1125.0</ele><time>2026-04-23T15:35:45.914Z</time></trkpt><trkpt lat="31.2942217" lon="-5.2587583"><ele>1126.3333333333333</ele><time>2026-04-23T15:35:46.915Z</time></trkpt><trkpt lat="31.2943867" lon="-5.258885"><ele>1127.6666666666665</ele><time>2026-04-23T15:35:47.915Z</time></trkpt><trkpt lat="31.2945517" lon="-5.2590167"><ele>1129.0</ele><time>2026-04-23T15:35:48.914Z</time></trkpt><trkpt lat="31.29472" lon="-5.259145"><ele>1132.0</ele><time>2026-04-23T15:35:49.915Z</time></trkpt><trkpt lat="31.294885" lon="-5.2592733"><ele>1135.0</ele><time>2026-04-23T15:35:50.915Z</time></trkpt><trkpt lat="31.29506" lon="-5.25941"><ele>1138.0</ele><time>2026-04-23T15:35:51.914Z</time></trkpt><trkpt lat="31.295235" lon="-5.2595467"><ele>1138.0</ele><time>2026-04-23T15:35:52.914Z</time></trkpt><trkpt lat="31.295405" lon="-5.25969"><ele>1138.0</ele><time>2026-04-23T15:35:53.915Z</time></trkpt><trkpt lat="31.2955817" lon="-5.25983"><ele>1138.0</ele><time>2026-04-23T15:35:54.915Z</time></trkpt><trkpt lat="31.2957617" lon="-5.2599717"><ele>1140.6666666666665</ele><time>2026-04-23T15:35:55.914Z</time></trkpt><trkpt lat="31.2959433" lon="-5.2601133"><ele>1143.3333333333333</ele><time>2026-04-23T15:35:56.915Z</time></trkpt><trkpt lat="31.296125" lon="-5.2602583"><ele>1146.0</ele><time>2026-04-23T15:35:57.915Z</time></trkpt><trkpt lat="31.2963133" lon="-5.2604033"><ele>1147.0</ele><time>2026-04-23T15:35:58.915Z</time></trkpt><trkpt lat="31.296495" lon="-5.2605467"><ele>1148.0</ele><time>2026-04-23T15:35:59.914Z</time></trkpt><trkpt lat="31.29667" lon="-5.2607017"><ele>1149.0</ele><time>2026-04-23T15:36:00.915Z</time></trkpt><trkpt lat="31.296845" lon="-5.26087"><ele>1149.5</ele><time>2026-04-23T15:36:01.914Z</time></trkpt><trkpt lat="31.2970117" lon="-5.261045"><ele>1150.0</ele><time>2026-04-23T15:36:02.915Z</time></trkpt><trkpt lat="31.2971783" lon="-5.2612267"><ele>1154.5</ele><time>2026-04-23T15:36:03.914Z</time></trkpt><trkpt lat="31.297335" lon="-5.26142"><ele>1159.0</ele><time>2026-04-23T15:36:04.915Z</time></trkpt><trkpt lat="31.2974833" lon="-5.2616167"><ele>1159.3333333333333</ele><time>2026-04-23T15:36:05.914Z</time></trkpt><trkpt lat="31.29763" lon="-5.2618"><ele>1159.6666666666667</ele><time>2026-04-23T15:36:06.914Z</time></trkpt><trkpt lat="31.297765" lon="-5.2619733"><ele>1160.0</ele><time>2026-04-23T15:36:07.914Z</time></trkpt><trkpt lat="31.2978983" lon="-5.2621433"><ele>1160.6666666666667</ele><time>2026-04-23T15:36:08.913Z</time></trkpt><trkpt lat="31.2980233" lon="-5.2623233"><ele>1161.3333333333333</ele><time>2026-04-23T15:36:09.913Z</time></trkpt><trkpt lat="31.2981333" lon="-5.2625133"><ele>1162.0</ele><time>2026-04-23T15:36:10.914Z</time></trkpt><trkpt lat="31.2982367" lon="-5.262715"><ele>1164.0</ele><time>2026-04-23T15:36:11.914Z</time></trkpt><trkpt lat="31.2983317" lon="-5.26292"><ele>1166.0</ele><time>2026-04-23T15:36:12.914Z</time></trkpt><trkpt lat="31.2984267" lon="-5.2631283"><ele>1168.0</ele><time>2026-04-23T15:36:13.913Z</time></trkpt><trkpt lat="31.2985267" lon="-5.26334"><ele>1168.0</ele><time>2026-04-23T15:36:14.914Z</time></trkpt><trkpt lat="31.2986083" lon="-5.26354"><ele>1168.0</ele><time>2026-04-23T15:36:15.914Z</time></trkpt><trkpt lat="31.298695" lon="-5.263725"><ele>1168.0</ele><time>2026-04-23T15:36:16.914Z</time></trkpt><trkpt lat="31.2987917" lon="-5.263895"><ele>1169.0</ele><time>2026-04-23T15:36:17.914Z</time></trkpt><trkpt lat="31.298905" lon="-5.2640483"><ele>1170.0</ele><time>2026-04-23T15:36:18.914Z</time></trkpt><trkpt lat="31.2990267" lon="-5.2641917"><ele>1171.0</ele><time>2026-04-23T15:36:19.914Z</time></trkpt><trkpt lat="31.2991517" lon="-5.264325"><ele>1173.0</ele><time>2026-04-23T15:36:20.914Z</time></trkpt><trkpt lat="31.29928" lon="-5.2644517"><ele>1175.0</ele><time>2026-04-23T15:36:21.913Z</time></trkpt><trkpt lat="31.2994117" lon="-5.2645883"><ele>1177.0</ele><time>2026-04-23T15:36:22.914Z</time></trkpt><trkpt lat="31.2995533" lon="-5.2647233"><ele>1177.0</ele><time>2026-04-23T15:36:23.914Z</time></trkpt><trkpt lat="31.2996967" lon="-5.264875"><ele>1177.0</ele><time>2026-04-23T15:36:24.913Z</time></trkpt><trkpt lat="31.299845" lon="-5.26503"><ele>1177.0</ele><time>2026-04-23T15:36:25.913Z</time></trkpt><trkpt lat="31.300005" lon="-5.2651883"><ele>1178.6666666666665</ele><time>2026-04-23T15:36:26.914Z</time></trkpt><trkpt lat="31.3001583" lon="-5.2653517"><ele>1180.3333333333333</ele><time>2026-04-23T15:36:27.914Z</time></trkpt><trkpt lat="31.3003167" lon="-5.2655167"><ele>1182.0</ele><time>2026-04-23T15:36:28.913Z</time></trkpt><trkpt lat="31.300475" lon="-5.2656867"><ele>1185.0</ele><time>2026-04-23T15:36:29.914Z</time></trkpt><trkpt lat="31.3006383" lon="-5.2658617"><ele>1188.0</ele><time>2026-04-23T15:36:30.914Z</time></trkpt><trkpt lat="31.300815" lon="-5.26604"><ele>1188.0</ele><time>2026-04-23T15:36:31.914Z</time></trkpt><trkpt lat="31.3009983" lon="-5.2662067"><ele>1188.0</ele><time>2026-04-23T15:36:32.914Z</time></trkpt><trkpt lat="31.3011833" lon="-5.2663417"><ele>1188.3333333333333</ele><time>2026-04-23T15:36:33.914Z</time></trkpt><trkpt lat="31.3013717" lon="-5.2664533"><ele>1188.6666666666665</ele><time>2026-04-23T15:36:34.914Z</time></trkpt><trkpt lat="31.3015567" lon="-5.266525"><ele>1189.0</ele><time>2026-04-23T15:36:35.913Z</time></trkpt><trkpt lat="31.301765" lon="-5.2665617"><ele>1192.0</ele><time>2026-04-23T15:36:36.914Z</time></trkpt><trkpt lat="31.30199" lon="-5.2665733"><ele>1195.0</ele><time>2026-04-23T15:36:37.913Z</time></trkpt><trkpt lat="31.3022217" lon="-5.2665783"><ele>1198.5</ele><time>2026-04-23T15:36:38.914Z</time></trkpt><trkpt lat="31.302455" lon="-5.2665817"><ele>1202.0</ele><time>2026-04-23T15:36:39.914Z</time></trkpt><trkpt lat="31.3026833" lon="-5.266595"><ele>1202.0</ele><time>2026-04-23T15:36:40.914Z</time></trkpt><trkpt lat="31.3029033" lon="-5.2666233"><ele>1202.0</ele><time>2026-04-23T15:36:41.914Z</time></trkpt><trkpt lat="31.30312" lon="-5.26667"><ele>1202.0</ele><time>2026-04-23T15:36:42.914Z</time></trkpt><trkpt lat="31.3033383" lon="-5.2667467"><ele>1202.5</ele><time>2026-04-23T15:36:43.913Z</time></trkpt><trkpt lat="31.3035533" lon="-5.2668433"><ele>1203.0</ele><time>2026-04-23T15:36:44.914Z</time></trkpt><trkpt lat="31.303765" lon="-5.266955"><ele>1205.0</ele><time>2026-04-23T15:36:45.914Z</time></trkpt><trkpt lat="31.30396" lon="-5.2670583"><ele>1207.0</ele><time>2026-04-23T15:36:46.914Z</time></trkpt><trkpt lat="31.3041433" lon="-5.2671583"><ele>1209.0</ele><time>2026-04-23T15:36:47.914Z</time></trkpt><trkpt lat="31.3043217" lon="-5.2672483"><ele>1209.3333333333333</ele><time>2026-04-23T15:36:48.914Z</time></trkpt><trkpt lat="31.3045033" lon="-5.267345"><ele>1209.6666666666665</ele><time>2026-04-23T15:36:49.914Z</time></trkpt><trkpt lat="31.3046667" lon="-5.2674667"><ele>1210.0</ele><time>2026-04-23T15:36:50.914Z</time></trkpt><trkpt lat="31.3048267" lon="-5.267605"><ele>1210.0</ele><time>2026-04-23T15:36:51.914Z</time></trkpt><trkpt lat="31.3049683" lon="-5.2677717"><ele>1210.0</ele><time>2026-04-23T15:36:52.913Z</time></trkpt><trkpt lat="31.3051033" lon="-5.267965"><ele>1210.0</ele><time>2026-04-23T15:36:53.914Z</time></trkpt><trkpt lat="31.3052167" lon="-5.268175"><ele>1208.3333333333333</ele><time>2026-04-23T15:36:54.913Z</time></trkpt><trkpt lat="31.3053283" lon="-5.268395"><ele>1206.6666666666667</ele><time>2026-04-23T15:36:55.914Z</time></trkpt><trkpt lat="31.3054317" lon="-5.26861"><ele>1205.0</ele><time>2026-04-23T15:36:56.914Z</time></trkpt><trkpt lat="31.3055367" lon="-5.2688083"><ele>1207.3333333333335</ele><time>2026-04-23T15:36:57.913Z</time></trkpt><trkpt lat="31.30564" lon="-5.268995"><ele>1209.6666666666667</ele><time>2026-04-23T15:36:58.913Z</time></trkpt><trkpt lat="31.3057483" lon="-5.2691533"><ele>1212.0</ele><time>2026-04-23T15:36:59.913Z</time></trkpt><trkpt lat="31.305875" lon="-5.2692967"><ele>1212.0</ele><time>2026-04-23T15:37:00.914Z</time></trkpt><trkpt lat="31.306015" lon="-5.2694217"><ele>1212.0</ele><time>2026-04-23T15:37:01.913Z</time></trkpt><trkpt lat="31.3061717" lon="-5.2695333"><ele>1212.0</ele><time>2026-04-23T15:37:02.914Z</time></trkpt><trkpt lat="31.3063317" lon="-5.2696267"><ele>1211.0</ele><time>2026-04-23T15:37:03.914Z</time></trkpt><trkpt lat="31.3065017" lon="-5.2696917"><ele>1210.0</ele><time>2026-04-23T15:37:04.913Z</time></trkpt><trkpt lat="31.30668" lon="-5.2697733"><ele>1209.0</ele><time>2026-04-23T15:37:05.913Z</time></trkpt><trkpt lat="31.3068617" lon="-5.26985"><ele>1209.0</ele><time>2026-04-23T15:37:06.913Z</time></trkpt><trkpt lat="31.3070533" lon="-5.269925"><ele>1209.0</ele><time>2026-04-23T15:37:07.914Z</time></trkpt><trkpt lat="31.3072483" lon="-5.2700017"><ele>1209.0</ele><time>2026-04-23T15:37:08.914Z</time></trkpt><trkpt lat="31.30744" lon="-5.270085"><ele>1210.0</ele><time>2026-04-23T15:37:09.913Z</time></trkpt><trkpt lat="31.3076317" lon="-5.2701767"><ele>1211.0</ele><time>2026-04-23T15:37:10.913Z</time></trkpt><trkpt lat="31.3078317" lon="-5.2702633"><ele>1212.0</ele><time>2026-04-23T15:37:11.914Z</time></trkpt><trkpt lat="31.30804" lon="-5.270355"><ele>1213.0</ele><time>2026-04-23T15:37:12.914Z</time></trkpt><trkpt lat="31.3082417" lon="-5.2704467"><ele>1214.0</ele><time>2026-04-23T15:37:13.913Z</time></trkpt><trkpt lat="31.3084367" lon="-5.2705383"><ele>1215.0</ele><time>2026-04-23T15:37:14.914Z</time></trkpt><trkpt lat="31.30863" lon="-5.2706233"><ele>1212.0</ele><time>2026-04-23T15:37:15.914Z</time></trkpt><trkpt lat="31.3088233" lon="-5.2707167"><ele>1209.0</ele><time>2026-04-23T15:37:16.914Z</time></trkpt><trkpt lat="31.3090233" lon="-5.270805"><ele>1206.0</ele><time>2026-04-23T15:37:17.914Z</time></trkpt><trkpt lat="31.30923" lon="-5.2708917"><ele>1206.0</ele><time>2026-04-23T15:37:18.914Z</time></trkpt><trkpt lat="31.3094433" lon="-5.2709667"><ele>1206.0</ele><time>2026-04-23T15:37:19.914Z</time></trkpt><trkpt lat="31.3096683" lon="-5.2710317"><ele>1206.5</ele><time>2026-04-23T15:37:20.914Z</time></trkpt><trkpt lat="31.3099" lon="-5.27109"><ele>1207.0</ele><time>2026-04-23T15:37:21.913Z</time></trkpt><trkpt lat="31.31014" lon="-5.2711383"><ele>1207.0</ele><time>2026-04-23T15:37:22.914Z</time></trkpt><trkpt lat="31.3103867" lon="-5.271175"><ele>1207.0</ele><time>2026-04-23T15:37:23.914Z</time></trkpt><trkpt lat="31.310625" lon="-5.2712017"><ele>1204.0</ele><time>2026-04-23T15:37:24.914Z</time></trkpt><trkpt lat="31.3108583" lon="-5.2712267"><ele>1201.0</ele><time>2026-04-23T15:37:25.913Z</time></trkpt><trkpt lat="31.3110833" lon="-5.27125"><ele>1201.0</ele><time>2026-04-23T15:37:26.913Z</time></trkpt><trkpt lat="31.3113133" lon="-5.2712733"><ele>1201.0</ele><time>2026-04-23T15:37:27.914Z</time></trkpt><trkpt lat="31.311545" lon="-5.2712983"><ele>1200.0</ele><time>2026-04-23T15:37:28.913Z</time></trkpt><trkpt lat="31.311775" lon="-5.2713217"><ele>1199.0</ele><time>2026-04-23T15:37:29.914Z</time></trkpt><trkpt lat="31.3120133" lon="-5.271345"><ele>1198.0</ele><time>2026-04-23T15:37:30.914Z</time></trkpt><trkpt lat="31.31225" lon="-5.27137"><ele>1197.0</ele><time>2026-04-23T15:37:31.913Z</time></trkpt><trkpt lat="31.3124817" lon="-5.2713983"><ele>1197.0</ele><time>2026-04-23T15:37:32.914Z</time></trkpt><trkpt lat="31.3127117" lon="-5.2714267"><ele>1197.0</ele><time>2026-04-23T15:37:33.914Z</time></trkpt><trkpt lat="31.3129467" lon="-5.2714633"><ele>1198.0</ele><time>2026-04-23T15:37:34.914Z</time></trkpt><trkpt lat="31.3131833" lon="-5.2715117"><ele>1199.0</ele><time>2026-04-23T15:37:35.914Z</time></trkpt><trkpt lat="31.3134183" lon="-5.27158"><ele>1199.0</ele><time>2026-04-23T15:37:36.914Z</time></trkpt><trkpt lat="31.31366" lon="-5.2716633"><ele>1199.0</ele><time>2026-04-23T15:37:37.914Z</time></trkpt><trkpt lat="31.3138983" lon="-5.2717633"><ele>1200.0</ele><time>2026-04-23T15:37:38.913Z</time></trkpt><trkpt lat="31.314135" lon="-5.2718667"><ele>1201.0</ele><time>2026-04-23T15:37:39.914Z</time></trkpt><trkpt lat="31.3143817" lon="-5.2719783"><ele>1201.0</ele><time>2026-04-23T15:37:40.914Z</time></trkpt><trkpt lat="31.31463" lon="-5.27209"><ele>1201.0</ele><time>2026-04-23T15:37:41.914Z</time></trkpt><trkpt lat="31.31488" lon="-5.2722017"><ele>1199.5</ele><time>2026-04-23T15:37:42.913Z</time></trkpt><trkpt lat="31.3151333" lon="-5.272315"><ele>1198.0</ele><time>2026-04-23T15:37:43.914Z</time></trkpt><trkpt lat="31.3153767" lon="-5.2724217"><ele>1199.5</ele><time>2026-04-23T15:37:44.914Z</time></trkpt><trkpt lat="31.31562" lon="-5.272525"><ele>1201.0</ele><time>2026-04-23T15:37:45.913Z</time></trkpt><trkpt lat="31.315865" lon="-5.2726367"><ele>1201.0</ele><time>2026-04-23T15:37:46.914Z</time></trkpt><trkpt lat="31.3161033" lon="-5.2727433"><ele>1201.0</ele><time>2026-04-23T15:37:47.914Z</time></trkpt><trkpt lat="31.3163433" lon="-5.27285"><ele>1202.0</ele><time>2026-04-23T15:37:48.914Z</time></trkpt><trkpt lat="31.3165733" lon="-5.2729583"><ele>1203.0</ele><time>2026-04-23T15:37:49.913Z</time></trkpt><trkpt lat="31.3168017" lon="-5.2730683"><ele>1201.5</ele><time>2026-04-23T15:37:50.914Z</time></trkpt><trkpt lat="31.3170333" lon="-5.273175"><ele>1200.0</ele><time>2026-04-23T15:37:51.914Z</time></trkpt><trkpt lat="31.317265" lon="-5.273275"><ele>1200.0</ele><time>2026-04-23T15:37:52.913Z</time></trkpt><trkpt lat="31.3175" lon="-5.2733767"><ele>1200.0</ele><time>2026-04-23T15:37:53.913Z</time></trkpt><trkpt lat="31.317735" lon="-5.2734817"><ele>1200.0</ele><time>2026-04-23T15:37:54.914Z</time></trkpt><trkpt lat="31.317965" lon="-5.2735917"><ele>1200.0</ele><time>2026-04-23T15:37:55.914Z</time></trkpt><trkpt lat="31.318195" lon="-5.2736983"><ele>1202.0</ele><time>2026-04-23T15:37:56.914Z</time></trkpt><trkpt lat="31.3184283" lon="-5.2738083"><ele>1204.0</ele><time>2026-04-23T15:37:57.914Z</time></trkpt><trkpt lat="31.3186633" lon="-5.2739233"><ele>1204.0</ele><time>2026-04-23T15:37:58.914Z</time></trkpt><trkpt lat="31.318895" lon="-5.2740517"><ele>1204.0</ele><time>2026-04-23T15:37:59.914Z</time></trkpt><trkpt lat="31.3191183" lon="-5.2741883"><ele>1204.0</ele><time>2026-04-23T15:38:00.914Z</time></trkpt><trkpt lat="31.3193333" lon="-5.27434"><ele>1204.0</ele><time>2026-04-23T15:38:01.914Z</time></trkpt><trkpt lat="31.3195383" lon="-5.2745017"><ele>1205.0</ele><time>2026-04-23T15:38:02.914Z</time></trkpt><trkpt lat="31.31975" lon="-5.27467"><ele>1206.0</ele><time>2026-04-23T15:38:03.914Z</time></trkpt><trkpt lat="31.3199567" lon="-5.2748417"><ele>1206.0</ele><time>2026-04-23T15:38:04.913Z</time></trkpt><trkpt lat="31.320165" lon="-5.2750167"><ele>1206.0</ele><time>2026-04-23T15:38:05.913Z</time></trkpt><trkpt lat="31.3203683" lon="-5.2751883"><ele>1207.5</ele><time>2026-04-23T15:38:06.914Z</time></trkpt><trkpt lat="31.3205733" lon="-5.275355"><ele>1209.0</ele><time>2026-04-23T15:38:07.914Z</time></trkpt><trkpt lat="31.3207783" lon="-5.27552"><ele>1209.5</ele><time>2026-04-23T15:38:08.914Z</time></trkpt><trkpt lat="31.3209817" lon="-5.2756917"><ele>1210.0</ele><time>2026-04-23T15:38:09.914Z</time></trkpt><trkpt lat="31.3211883" lon="-5.2758667"><ele>1210.0</ele><time>2026-04-23T15:38:10.913Z</time></trkpt><trkpt lat="31.321395" lon="-5.2760383"><ele>1210.0</ele><time>2026-04-23T15:38:11.914Z</time></trkpt><trkpt lat="31.3216033" lon="-5.27621"><ele>1210.5</ele><time>2026-04-23T15:38:12.914Z</time></trkpt><trkpt lat="31.32181" lon="-5.2763833"><ele>1211.0</ele><time>2026-04-23T15:38:13.914Z</time></trkpt><trkpt lat="31.322015" lon="-5.276555"><ele>1211.0</ele><time>2026-04-23T15:38:14.914Z</time></trkpt><trkpt lat="31.32223" lon="-5.2767217"><ele>1211.0</ele><time>2026-04-23T15:38:15.913Z</time></trkpt><trkpt lat="31.3224367" lon="-5.2768983"><ele>1212.5</ele><time>2026-04-23T15:38:16.914Z</time></trkpt><trkpt lat="31.32264" lon="-5.27707"><ele>1214.0</ele><time>2026-04-23T15:38:17.914Z</time></trkpt><trkpt lat="31.3228383" lon="-5.277235"><ele>1215.0</ele><time>2026-04-23T15:38:18.914Z</time></trkpt><trkpt lat="31.3230367" lon="-5.27739"><ele>1216.0</ele><time>2026-04-23T15:38:19.914Z</time></trkpt><trkpt lat="31.323225" lon="-5.2775467"><ele>1218.0</ele><time>2026-04-23T15:38:20.914Z</time></trkpt><trkpt lat="31.3234133" lon="-5.2777067"><ele>1220.0</ele><time>2026-04-23T15:38:21.914Z</time></trkpt><trkpt lat="31.32361" lon="-5.2778633"><ele>1220.0</ele><time>2026-04-23T15:38:22.913Z</time></trkpt><trkpt lat="31.3238033" lon="-5.278025"><ele>1220.0</ele><time>2026-04-23T15:38:23.913Z</time></trkpt><trkpt lat="31.3240017" lon="-5.2781867"><ele>1219.0</ele><time>2026-04-23T15:38:24.914Z</time></trkpt><trkpt lat="31.3241967" lon="-5.2783517"><ele>1218.0</ele><time>2026-04-23T15:38:25.914Z</time></trkpt><trkpt lat="31.324395" lon="-5.2785167"><ele>1218.0</ele><time>2026-04-23T15:38:26.913Z</time></trkpt><trkpt lat="31.32459" lon="-5.27868"><ele>1218.0</ele><time>2026-04-23T15:38:27.914Z</time></trkpt><trkpt lat="31.3247883" lon="-5.278845"><ele>1220.5</ele><time>2026-04-23T15:38:28.914Z</time></trkpt><trkpt lat="31.3249867" lon="-5.2789967"><ele>1223.0</ele><time>2026-04-23T15:38:29.914Z</time></trkpt><trkpt lat="31.3251917" lon="-5.2791483"><ele>1223.0</ele><time>2026-04-23T15:38:30.914Z</time></trkpt><trkpt lat="31.3253983" lon="-5.2792933"><ele>1223.0</ele><time>2026-04-23T15:38:31.914Z</time></trkpt><trkpt lat="31.32561" lon="-5.2794333"><ele>1223.5</ele><time>2026-04-23T15:38:32.914Z</time></trkpt><trkpt lat="31.3258267" lon="-5.279575"><ele>1224.0</ele><time>2026-04-23T15:38:33.913Z</time></trkpt><trkpt lat="31.3260367" lon="-5.2797233"><ele>1223.5</ele><time>2026-04-23T15:38:34.914Z</time></trkpt><trkpt lat="31.3262467" lon="-5.2798717"><ele>1223.0</ele><time>2026-04-23T15:38:35.914Z</time></trkpt><trkpt lat="31.3264583" lon="-5.2800217"><ele>1225.5</ele><time>2026-04-23T15:38:36.914Z</time></trkpt><trkpt lat="31.3266717" lon="-5.2801667"><ele>1228.0</ele><time>2026-04-23T15:38:37.914Z</time></trkpt><trkpt lat="31.326885" lon="-5.2803133"><ele>1228.0</ele><time>2026-04-23T15:38:38.914Z</time></trkpt><trkpt lat="31.3270967" lon="-5.2804617"><ele>1228.0</ele><time>2026-04-23T15:38:39.914Z</time></trkpt><trkpt lat="31.327295" lon="-5.2806217"><ele>1227.5</ele><time>2026-04-23T15:38:40.914Z</time></trkpt><trkpt lat="31.3274883" lon="-5.2807883"><ele>1227.0</ele><time>2026-04-23T15:38:41.913Z</time></trkpt><trkpt lat="31.3276633" lon="-5.2809833"><ele>1227.0</ele><time>2026-04-23T15:38:42.914Z</time></trkpt><trkpt lat="31.3278267" lon="-5.281205"><ele>1227.0</ele><time>2026-04-23T15:38:43.913Z</time></trkpt><trkpt lat="31.3279767" lon="-5.2814367"><ele>1228.5</ele><time>2026-04-23T15:38:44.913Z</time></trkpt><trkpt lat="31.3281117" lon="-5.2816733"><ele>1230.0</ele><time>2026-04-23T15:38:45.914Z</time></trkpt><trkpt lat="31.3282517" lon="-5.28191"><ele>1230.0</ele><time>2026-04-23T15:38:46.913Z</time></trkpt><trkpt lat="31.328375" lon="-5.282135"><ele>1230.0</ele><time>2026-04-23T15:38:47.914Z</time></trkpt><trkpt lat="31.3284967" lon="-5.2823567"><ele>1231.3333333333333</ele><time>2026-04-23T15:38:48.914Z</time></trkpt><trkpt lat="31.3286183" lon="-5.282575"><ele>1232.6666666666665</ele><time>2026-04-23T15:38:49.914Z</time></trkpt><trkpt lat="31.328745" lon="-5.2827883"><ele>1234.0</ele><time>2026-04-23T15:38:50.913Z</time></trkpt><trkpt lat="31.3288717" lon="-5.283"><ele>1237.3333333333333</ele><time>2026-04-23T15:38:51.914Z</time></trkpt><trkpt lat="31.3289967" lon="-5.2832117"><ele>1240.6666666666667</ele><time>2026-04-23T15:38:52.914Z</time></trkpt><trkpt lat="31.3291183" lon="-5.283425"><ele>1244.0</ele><time>2026-04-23T15:38:53.914Z</time></trkpt><trkpt lat="31.3292383" lon="-5.28364"><ele>1244.0</ele><time>2026-04-23T15:38:54.914Z</time></trkpt><trkpt lat="31.32936" lon="-5.283845"><ele>1244.0</ele><time>2026-04-23T15:38:55.913Z</time></trkpt><trkpt lat="31.32948" lon="-5.284045"><ele>1244.0</ele><time>2026-04-23T15:38:56.914Z</time></trkpt><trkpt lat="31.3295917" lon="-5.284245"><ele>1244.6666666666667</ele><time>2026-04-23T15:38:57.914Z</time></trkpt><trkpt lat="31.3297083" lon="-5.2844367"><ele>1245.3333333333333</ele><time>2026-04-23T15:38:58.913Z</time></trkpt><trkpt lat="31.3298183" lon="-5.2846267"><ele>1246.0</ele><time>2026-04-23T15:38:59.914Z</time></trkpt><trkpt lat="31.32992" lon="-5.284805"><ele>1249.0</ele><time>2026-04-23T15:39:00.914Z</time></trkpt><trkpt lat="31.3300233" lon="-5.2849667"><ele>1252.0</ele><time>2026-04-23T15:39:01.913Z</time></trkpt><trkpt lat="31.330115" lon="-5.2851083"><ele>1255.0</ele><time>2026-04-23T15:39:02.914Z</time></trkpt><trkpt lat="31.3301967" lon="-5.2852217"><ele>1255.0</ele><time>2026-04-23T15:39:03.914Z</time></trkpt><trkpt lat="31.33027" lon="-5.28532"><ele>1255.0</ele><time>2026-04-23T15:39:04.914Z</time></trkpt><trkpt lat="31.330345" lon="-5.285415"><ele>1255.0</ele><time>2026-04-23T15:39:05.914Z</time></trkpt><trkpt lat="31.3304267" lon="-5.2855083"><ele>1255.0</ele><time>2026-04-23T15:39:06.914Z</time></trkpt><trkpt lat="31.330525" lon="-5.28559"><ele>1257.75</ele><time>2026-04-23T15:39:07.913Z</time></trkpt><trkpt lat="31.3306217" lon="-5.285675"><ele>1260.5</ele><time>2026-04-23T15:39:08.914Z</time></trkpt><trkpt lat="31.3307383" lon="-5.2857483"><ele>1263.25</ele><time>2026-04-23T15:39:09.914Z</time></trkpt><trkpt lat="31.330855" lon="-5.2858367"><ele>1266.0</ele><time>2026-04-23T15:39:10.914Z</time></trkpt><trkpt lat="31.3309817" lon="-5.2859333"><ele>1266.0</ele><time>2026-04-23T15:39:11.914Z</time></trkpt><trkpt lat="31.3311167" lon="-5.28604"><ele>1266.0</ele><time>2026-04-23T15:39:12.914Z</time></trkpt><trkpt lat="31.3312583" lon="-5.28614"><ele>1266.0</ele><time>2026-04-23T15:39:13.914Z</time></trkpt><trkpt lat="31.3314" lon="-5.286225"><ele>1267.0</ele><time>2026-04-23T15:39:14.914Z</time></trkpt><trkpt lat="31.331535" lon="-5.2863"><ele>1268.0</ele><time>2026-04-23T15:39:15.914Z</time></trkpt><trkpt lat="31.3316683" lon="-5.2863683"><ele>1269.0</ele><time>2026-04-23T15:39:16.914Z</time></trkpt><trkpt lat="31.3318017" lon="-5.2864383"><ele>1270.0</ele><time>2026-04-23T15:39:17.913Z</time></trkpt><trkpt lat="31.3319333" lon="-5.2865017"><ele>1270.0</ele><time>2026-04-23T15:39:18.914Z</time></trkpt><trkpt lat="31.3320483" lon="-5.2865817"><ele>1270.0</ele><time>2026-04-23T15:39:19.914Z</time></trkpt><trkpt lat="31.3321267" lon="-5.2866883"><ele>1270.0</ele><time>2026-04-23T15:39:20.914Z</time></trkpt><trkpt lat="31.3321683" lon="-5.2868183"><ele>1270.0</ele><time>2026-04-23T15:39:21.914Z</time></trkpt><trkpt lat="31.3321883" lon="-5.2869783"><ele>1270.0</ele><time>2026-04-23T15:39:22.914Z</time></trkpt><trkpt lat="31.33219" lon="-5.28715"><ele>1270.0</ele><time>2026-04-23T15:39:23.914Z</time></trkpt><trkpt lat="31.3321917" lon="-5.2873283"><ele>1270.0</ele><time>2026-04-23T15:39:24.914Z</time></trkpt><trkpt lat="31.3321967" lon="-5.2875"><ele>1270.0</ele><time>2026-04-23T15:39:25.914Z</time></trkpt><trkpt lat="31.3322033" lon="-5.2876617"><ele>1268.75</ele><time>2026-04-23T15:39:26.913Z</time></trkpt><trkpt lat="31.33222" lon="-5.2878167"><ele>1267.5</ele><time>2026-04-23T15:39:27.914Z</time></trkpt><trkpt lat="31.33225" lon="-5.2879583"><ele>1266.25</ele><time>2026-04-23T15:39:28.914Z</time></trkpt><trkpt lat="31.3323" lon="-5.288065"><ele>1265.0</ele><time>2026-04-23T15:39:29.914Z</time></trkpt><trkpt lat="31.332375" lon="-5.2881433"><ele>1260.75</ele><time>2026-04-23T15:39:30.913Z</time></trkpt><trkpt lat="31.332475" lon="-5.2881883"><ele>1256.5</ele><time>2026-04-23T15:39:31.914Z</time></trkpt><trkpt lat="31.3325883" lon="-5.2881983"><ele>1252.25</ele><time>2026-04-23T15:39:32.914Z</time></trkpt><trkpt lat="31.33271" lon="-5.2881917"><ele>1248.0</ele><time>2026-04-23T15:39:33.913Z</time></trkpt><trkpt lat="31.3328317" lon="-5.2881883"><ele>1248.0</ele><time>2026-04-23T15:39:34.913Z</time></trkpt><trkpt lat="31.3329567" lon="-5.2881833"><ele>1248.0</ele><time>2026-04-23T15:39:35.914Z</time></trkpt><trkpt lat="31.3330883" lon="-5.2881783"><ele>1248.0</ele><time>2026-04-23T15:39:36.914Z</time></trkpt><trkpt lat="31.3332183" lon="-5.2881667"><ele>1248.0</ele><time>2026-04-23T15:39:37.914Z</time></trkpt><trkpt lat="31.3333383" lon="-5.288125"><ele>1247.5</ele><time>2026-04-23T15:39:38.914Z</time></trkpt><trkpt lat="31.3334433" lon="-5.288055"><ele>1247.0</ele><time>2026-04-23T15:39:39.914Z</time></trkpt><trkpt lat="31.3335267" lon="-5.2879533"><ele>1246.5</ele><time>2026-04-23T15:39:40.914Z</time></trkpt><trkpt lat="31.33358" lon="-5.287825"><ele>1246.0</ele><time>2026-04-23T15:39:41.913Z</time></trkpt><trkpt lat="31.3336067" lon="-5.2876867"><ele>1246.0</ele><time>2026-04-23T15:39:42.914Z</time></trkpt><trkpt lat="31.33361" lon="-5.2875467"><ele>1246.0</ele><time>2026-04-23T15:39:43.914Z</time></trkpt><trkpt lat="31.333605" lon="-5.2874117"><ele>1246.0</ele><time>2026-04-23T15:39:44.914Z</time></trkpt><trkpt lat="31.3336267" lon="-5.2872833"><ele>1246.0</ele><time>2026-04-23T15:39:45.914Z</time></trkpt><trkpt lat="31.33367" lon="-5.2871683"><ele>1249.0</ele><time>2026-04-23T15:39:46.913Z</time></trkpt><trkpt lat="31.333755" lon="-5.2870783"><ele>1252.0</ele><time>2026-04-23T15:39:47.913Z</time></trkpt><trkpt lat="31.3338517" lon="-5.2870067"><ele>1255.0</ele><time>2026-04-23T15:39:48.913Z</time></trkpt><trkpt lat="31.3339583" lon="-5.286955"><ele>1258.0</ele><time>2026-04-23T15:39:49.914Z</time></trkpt><trkpt lat="31.3340733" lon="-5.2869017"><ele>1251.5</ele><time>2026-04-23T15:39:50.914Z</time></trkpt><trkpt lat="31.33418" lon="-5.2868217"><ele>1245.0</ele><time>2026-04-23T15:39:51.913Z</time></trkpt><trkpt lat="31.3342733" lon="-5.2867083"><ele>1238.5</ele><time>2026-04-23T15:39:52.914Z</time></trkpt><trkpt lat="31.3343567" lon="-5.28658"><ele>1232.0</ele><time>2026-04-23T15:39:53.913Z</time></trkpt><trkpt lat="31.334435" lon="-5.2864367"><ele>1229.0</ele><time>2026-04-23T15:39:54.914Z</time></trkpt><trkpt lat="31.3345317" lon="-5.2863167"><ele>1226.0</ele><time>2026-04-23T15:39:55.914Z</time></trkpt><trkpt lat="31.3346467" lon="-5.2862117"><ele>1223.0</ele><time>2026-04-23T15:39:56.913Z</time></trkpt><trkpt lat="31.3347817" lon="-5.2861067"><ele>1220.0</ele><time>2026-04-23T15:39:57.914Z</time></trkpt><trkpt lat="31.3349133" lon="-5.28599"><ele>1220.0</ele><time>2026-04-23T15:39:58.913Z</time></trkpt><trkpt lat="31.33504" lon="-5.2858717"><ele>1220.0</ele><time>2026-04-23T15:39:59.914Z</time></trkpt><trkpt lat="31.33517" lon="-5.2857567"><ele>1220.0</ele><time>2026-04-23T15:40:00.914Z</time></trkpt><trkpt lat="31.335295" lon="-5.285635"><ele>1217.3333333333335</ele><time>2026-04-23T15:40:01.914Z</time></trkpt><trkpt lat="31.3354167" lon="-5.2855033"><ele>1214.6666666666667</ele><time>2026-04-23T15:40:02.914Z</time></trkpt><trkpt lat="31.3355283" lon="-5.28535"><ele>1212.0</ele><time>2026-04-23T15:40:03.914Z</time></trkpt><trkpt lat="31.335635" lon="-5.2852"><ele>1212.0</ele><time>2026-04-23T15:40:04.914Z</time></trkpt><trkpt lat="31.335755" lon="-5.285055"><ele>1212.0</ele><time>2026-04-23T15:40:05.914Z</time></trkpt><trkpt lat="31.335905" lon="-5.2849083"><ele>1212.0</ele><time>2026-04-23T15:40:06.914Z</time></trkpt><trkpt lat="31.3360783" lon="-5.2847717"><ele>1214.0</ele><time>2026-04-23T15:40:07.914Z</time></trkpt><trkpt lat="31.33627" lon="-5.28466"><ele>1216.0</ele><time>2026-04-23T15:40:08.913Z</time></trkpt><trkpt lat="31.3364567" lon="-5.284565"><ele>1218.0</ele><time>2026-04-23T15:40:09.914Z</time></trkpt><trkpt lat="31.33665" lon="-5.2844883"><ele>1214.0</ele><time>2026-04-23T15:40:10.914Z</time></trkpt><trkpt lat="31.33684" lon="-5.2844417"><ele>1210.0</ele><time>2026-04-23T15:40:11.914Z</time></trkpt><trkpt lat="31.337035" lon="-5.2844317"><ele>1206.0</ele><time>2026-04-23T15:40:12.914Z</time></trkpt><trkpt lat="31.33723" lon="-5.2844567"><ele>1203.5</ele><time>2026-04-23T15:40:13.914Z</time></trkpt><trkpt lat="31.337445" lon="-5.2845117"><ele>1201.0</ele><time>2026-04-23T15:40:14.914Z</time></trkpt><trkpt lat="31.3376683" lon="-5.2845767"><ele>1201.0</ele><time>2026-04-23T15:40:15.914Z</time></trkpt><trkpt lat="31.3379" lon="-5.28464"><ele>1201.0</ele><time>2026-04-23T15:40:16.914Z</time></trkpt><trkpt lat="31.3381417" lon="-5.2847067"><ele>1196.0</ele><time>2026-04-23T15:40:17.914Z</time></trkpt><trkpt lat="31.338375" lon="-5.2847767"><ele>1191.0</ele><time>2026-04-23T15:40:18.914Z</time></trkpt><trkpt lat="31.338605" lon="-5.28484"><ele>1191.0</ele><time>2026-04-23T15:40:19.913Z</time></trkpt><trkpt lat="31.338835" lon="-5.2849017"><ele>1191.0</ele><time>2026-04-23T15:40:20.914Z</time></trkpt><trkpt lat="31.3390517" lon="-5.2849667"><ele>1190.3333333333333</ele><time>2026-04-23T15:40:21.914Z</time></trkpt><trkpt lat="31.3392633" lon="-5.2850283"><ele>1189.6666666666665</ele><time>2026-04-23T15:40:22.913Z</time></trkpt><trkpt lat="31.3394717" lon="-5.2850883"><ele>1189.0</ele><time>2026-04-23T15:40:23.914Z</time></trkpt><trkpt lat="31.339675" lon="-5.2851483"><ele>1188.6666666666665</ele><time>2026-04-23T15:40:24.914Z</time></trkpt><trkpt lat="31.3398733" lon="-5.28521"><ele>1188.3333333333333</ele><time>2026-04-23T15:40:25.914Z</time></trkpt><trkpt lat="31.3400683" lon="-5.2852633"><ele>1188.0</ele><time>2026-04-23T15:40:26.913Z</time></trkpt><trkpt lat="31.3402633" lon="-5.285315"><ele>1188.0</ele><time>2026-04-23T15:40:27.914Z</time></trkpt><trkpt lat="31.3404533" lon="-5.2853767"><ele>1188.0</ele><time>2026-04-23T15:40:28.913Z</time></trkpt><trkpt lat="31.3406383" lon="-5.28543"><ele>1188.0</ele><time>2026-04-23T15:40:29.913Z</time></trkpt><trkpt lat="31.3408267" lon="-5.28548"><ele>1187.3333333333333</ele><time>2026-04-23T15:40:30.914Z</time></trkpt><trkpt lat="31.34102" lon="-5.2855183"><ele>1186.6666666666665</ele><time>2026-04-23T15:40:31.914Z</time></trkpt><trkpt lat="31.341215" lon="-5.2855467"><ele>1186.0</ele><time>2026-04-23T15:40:32.914Z</time></trkpt><trkpt lat="31.3414267" lon="-5.285565"><ele>1185.0</ele><time>2026-04-23T15:40:33.914Z</time></trkpt><trkpt lat="31.3416383" lon="-5.2855883"><ele>1184.0</ele><time>2026-04-23T15:40:34.914Z</time></trkpt><trkpt lat="31.3418533" lon="-5.285605"><ele>1183.0</ele><time>2026-04-23T15:40:35.914Z</time></trkpt><trkpt lat="31.3420733" lon="-5.285625"><ele>1179.6666666666665</ele><time>2026-04-23T15:40:36.914Z</time></trkpt><trkpt lat="31.342295" lon="-5.2856417"><ele>1176.3333333333333</ele><time>2026-04-23T15:40:37.913Z</time></trkpt><trkpt lat="31.342515" lon="-5.2856633"><ele>1173.0</ele><time>2026-04-23T15:40:38.914Z</time></trkpt><trkpt lat="31.3427317" lon="-5.285685"><ele>1173.0</ele><time>2026-04-23T15:40:39.913Z</time></trkpt><trkpt lat="31.3429417" lon="-5.285705"><ele>1173.0</ele><time>2026-04-23T15:40:40.913Z</time></trkpt><trkpt lat="31.3431433" lon="-5.2857183"><ele>1173.0</ele><time>2026-04-23T15:40:41.914Z</time></trkpt><trkpt lat="31.3433433" lon="-5.2857317"><ele>1171.6666666666667</ele><time>2026-04-23T15:40:42.914Z</time></trkpt><trkpt lat="31.3435417" lon="-5.28574"><ele>1170.3333333333335</ele><time>2026-04-23T15:40:43.914Z</time></trkpt><trkpt lat="31.3437367" lon="-5.2857433"><ele>1169.0</ele><time>2026-04-23T15:40:44.913Z</time></trkpt><trkpt lat="31.34393" lon="-5.28572"><ele>1168.75</ele><time>2026-04-23T15:40:45.914Z</time></trkpt><trkpt lat="31.3441067" lon="-5.285685"><ele>1168.5</ele><time>2026-04-23T15:40:46.914Z</time></trkpt><trkpt lat="31.3442533" lon="-5.2856517"><ele>1168.25</ele><time>2026-04-23T15:40:47.914Z</time></trkpt><trkpt lat="31.3443717" lon="-5.285625"><ele>1168.0</ele><time>2026-04-23T15:40:48.914Z</time></trkpt><trkpt lat="31.3444617" lon="-5.2855983"><ele>1168.6666666666665</ele><time>2026-04-23T15:40:49.912Z</time></trkpt><trkpt lat="31.344545" lon="-5.2855733"><ele>1169.3333333333333</ele><time>2026-04-23T15:40:50.913Z</time></trkpt><trkpt lat="31.3446233" lon="-5.28555"><ele>1170.0</ele><time>2026-04-23T15:40:51.913Z</time></trkpt><trkpt lat="31.3447033" lon="-5.28553"><ele>1170.6666666666667</ele><time>2026-04-23T15:40:52.913Z</time></trkpt><trkpt lat="31.3447917" lon="-5.2855117"><ele>1171.3333333333335</ele><time>2026-04-23T15:40:53.913Z</time></trkpt><trkpt lat="31.34489" lon="-5.2854917"><ele>1172.0</ele><time>2026-04-23T15:40:54.913Z</time></trkpt><trkpt lat="31.3449933" lon="-5.2854667"><ele>1172.0</ele><time>2026-04-23T15:40:55.913Z</time></trkpt><trkpt lat="31.3450967" lon="-5.2854417"><ele>1172.0</ele><time>2026-04-23T15:40:56.913Z</time></trkpt><trkpt lat="31.3451917" lon="-5.285415"><ele>1172.0</ele><time>2026-04-23T15:40:57.912Z</time></trkpt><trkpt lat="31.3452883" lon="-5.2853883"><ele>1172.0</ele><time>2026-04-23T15:40:58.913Z</time></trkpt><trkpt lat="31.3453883" lon="-5.285365"><ele>1172.0</ele><time>2026-04-23T15:40:59.913Z</time></trkpt><trkpt lat="31.34549" lon="-5.2853417"><ele>1170.0</ele><time>2026-04-23T15:41:00.913Z</time></trkpt><trkpt lat="31.3455983" lon="-5.2853167"><ele>1168.0</ele><time>2026-04-23T15:41:01.913Z</time></trkpt><trkpt lat="31.34572" lon="-5.2852967"><ele>1166.0</ele><time>2026-04-23T15:41:02.912Z</time></trkpt><trkpt lat="31.3458467" lon="-5.285275"><ele>1164.0</ele><time>2026-04-23T15:41:03.913Z</time></trkpt><trkpt lat="31.345995" lon="-5.285255"><ele>1164.0</ele><time>2026-04-23T15:41:04.913Z</time></trkpt><trkpt lat="31.3461633" lon="-5.2852467"><ele>1164.0</ele><time>2026-04-23T15:41:05.913Z</time></trkpt><trkpt lat="31.3463483" lon="-5.28526"><ele>1164.0</ele><time>2026-04-23T15:41:06.913Z</time></trkpt><trkpt lat="31.3465467" lon="-5.285285"><ele>1163.0</ele><time>2026-04-23T15:41:07.912Z</time></trkpt><trkpt lat="31.3467533" lon="-5.2853167"><ele>1162.0</ele><time>2026-04-23T15:41:08.913Z</time></trkpt><trkpt lat="31.34697" lon="-5.28535"><ele>1161.0</ele><time>2026-04-23T15:41:09.913Z</time></trkpt><trkpt lat="31.347185" lon="-5.285385"><ele>1161.0</ele><time>2026-04-23T15:41:10.913Z</time></trkpt><trkpt lat="31.3473933" lon="-5.2854167"><ele>1161.0</ele><time>2026-04-23T15:41:11.913Z</time></trkpt><trkpt lat="31.3475933" lon="-5.2854483"><ele>1161.0</ele><time>2026-04-23T15:41:12.913Z</time></trkpt><trkpt lat="31.34779" lon="-5.285485"><ele>1161.0</ele><time>2026-04-23T15:41:13.913Z</time></trkpt><trkpt lat="31.3479967" lon="-5.28552"><ele>1161.0</ele><time>2026-04-23T15:41:14.913Z</time></trkpt><trkpt lat="31.3481983" lon="-5.2855533"><ele>1161.0</ele><time>2026-04-23T15:41:15.913Z</time></trkpt><trkpt lat="31.3483917" lon="-5.2855867"><ele>1159.6666666666667</ele><time>2026-04-23T15:41:16.913Z</time></trkpt><trkpt lat="31.3485733" lon="-5.28562"><ele>1158.3333333333335</ele><time>2026-04-23T15:41:17.913Z</time></trkpt><trkpt lat="31.3487383" lon="-5.285655"><ele>1157.0</ele><time>2026-04-23T15:41:18.912Z</time></trkpt><trkpt lat="31.3488833" lon="-5.2856817"><ele>1156.25</ele><time>2026-04-23T15:41:19.912Z</time></trkpt><trkpt lat="31.34902" lon="-5.2857"><ele>1155.5</ele><time>2026-04-23T15:41:20.913Z</time></trkpt><trkpt lat="31.349145" lon="-5.2857183"><ele>1154.75</ele><time>2026-04-23T15:41:21.913Z</time></trkpt><trkpt lat="31.34927" lon="-5.285735"><ele>1154.0</ele><time>2026-04-23T15:41:22.912Z</time></trkpt><trkpt lat="31.3493967" lon="-5.2857583"><ele>1154.0</ele><time>2026-04-23T15:41:23.913Z</time></trkpt><trkpt lat="31.34953" lon="-5.285785"><ele>1154.0</ele><time>2026-04-23T15:41:24.912Z</time></trkpt><trkpt lat="31.3496667" lon="-5.285805"><ele>1154.0</ele><time>2026-04-23T15:41:25.913Z</time></trkpt><trkpt lat="31.3498117" lon="-5.2858233"><ele>1154.0</ele><time>2026-04-23T15:41:26.913Z</time></trkpt><trkpt lat="31.34995" lon="-5.285845"><ele>1153.75</ele><time>2026-04-23T15:41:27.913Z</time></trkpt><trkpt lat="31.3500933" lon="-5.2858667"><ele>1153.5</ele><time>2026-04-23T15:41:28.913Z</time></trkpt><trkpt lat="31.350235" lon="-5.2858883"><ele>1153.25</ele><time>2026-04-23T15:41:29.912Z</time></trkpt><trkpt lat="31.3503867" lon="-5.28591"><ele>1153.0</ele><time>2026-04-23T15:41:30.913Z</time></trkpt><trkpt lat="31.3505483" lon="-5.285935"><ele>1153.0</ele><time>2026-04-23T15:41:31.913Z</time></trkpt><trkpt lat="31.35071" lon="-5.2859667"><ele>1153.0</ele><time>2026-04-23T15:41:32.913Z</time></trkpt><trkpt lat="31.3508683" lon="-5.2859967"><ele>1153.0</ele><time>2026-04-23T15:41:33.912Z</time></trkpt><trkpt lat="31.351035" lon="-5.2860267"><ele>1153.0</ele><time>2026-04-23T15:41:34.913Z</time></trkpt><trkpt lat="31.3511967" lon="-5.286055"><ele>1153.0</ele><time>2026-04-23T15:41:35.912Z</time></trkpt><trkpt lat="31.351355" lon="-5.2860783"><ele>1153.0</ele><time>2026-04-23T15:41:36.913Z</time></trkpt><trkpt lat="31.3515133" lon="-5.2861033"><ele>1152.3333333333333</ele><time>2026-04-23T15:41:37.913Z</time></trkpt><trkpt lat="31.3516617" lon="-5.2861267"><ele>1151.6666666666667</ele><time>2026-04-23T15:41:38.913Z</time></trkpt><trkpt lat="31.3518167" lon="-5.28615"><ele>1151.0</ele><time>2026-04-23T15:41:39.913Z</time></trkpt><trkpt lat="31.3519667" lon="-5.2861767"><ele>1151.0</ele><time>2026-04-23T15:41:40.913Z</time></trkpt><trkpt lat="31.3521217" lon="-5.2862033"><ele>1151.0</ele><time>2026-04-23T15:41:41.913Z</time></trkpt><trkpt lat="31.3522767" lon="-5.2862317"><ele>1151.0</ele><time>2026-04-23T15:41:42.913Z</time></trkpt><trkpt lat="31.3524317" lon="-5.28626"><ele>1149.6666666666667</ele><time>2026-04-23T15:41:43.912Z</time></trkpt><trkpt lat="31.352585" lon="-5.2862933"><ele>1148.3333333333333</ele><time>2026-04-23T15:41:44.913Z</time></trkpt><trkpt lat="31.35274" lon="-5.2863333"><ele>1147.0</ele><time>2026-04-23T15:41:45.913Z</time></trkpt><trkpt lat="31.352895" lon="-5.2863733"><ele>1146.3333333333333</ele><time>2026-04-23T15:41:46.912Z</time></trkpt><trkpt lat="31.353045" lon="-5.2864217"><ele>1145.6666666666667</ele><time>2026-04-23T15:41:47.913Z</time></trkpt><trkpt lat="31.3531883" lon="-5.2864817"><ele>1145.0</ele><time>2026-04-23T15:41:48.913Z</time></trkpt><trkpt lat="31.3533333" lon="-5.2865467"><ele>1144.6666666666667</ele><time>2026-04-23T15:41:49.913Z</time></trkpt><trkpt lat="31.3534733" lon="-5.28662"><ele>1144.3333333333333</ele><time>2026-04-23T15:41:50.913Z</time></trkpt><trkpt lat="31.35361" lon="-5.2867067"><ele>1144.0</ele><time>2026-04-23T15:41:51.913Z</time></trkpt><trkpt lat="31.3537333" lon="-5.2867983"><ele>1144.0</ele><time>2026-04-23T15:41:52.913Z</time></trkpt><trkpt lat="31.35386" lon="-5.28689"><ele>1144.0</ele><time>2026-04-23T15:41:53.913Z</time></trkpt><trkpt lat="31.35399" lon="-5.2869717"><ele>1144.0</ele><time>2026-04-23T15:41:54.913Z</time></trkpt><trkpt lat="31.3541167" lon="-5.2870567"><ele>1144.0</ele><time>2026-04-23T15:41:55.912Z</time></trkpt><trkpt lat="31.354245" lon="-5.2871467"><ele>1144.0</ele><time>2026-04-23T15:41:56.912Z</time></trkpt><trkpt lat="31.35437" lon="-5.28723"><ele>1144.0</ele><time>2026-04-23T15:41:57.913Z</time></trkpt><trkpt lat="31.3544967" lon="-5.2873133"><ele>1144.0</ele><time>2026-04-23T15:41:58.913Z</time></trkpt><trkpt lat="31.354625" lon="-5.2874"><ele>1144.0</ele><time>2026-04-23T15:41:59.912Z</time></trkpt><trkpt lat="31.3547533" lon="-5.2874833"><ele>1143.5</ele><time>2026-04-23T15:42:00.913Z</time></trkpt><trkpt lat="31.3548733" lon="-5.2875617"><ele>1143.0</ele><time>2026-04-23T15:42:01.913Z</time></trkpt><trkpt lat="31.3549933" lon="-5.2876433"><ele>1142.5</ele><time>2026-04-23T15:42:02.913Z</time></trkpt><trkpt lat="31.355115" lon="-5.287725"><ele>1142.0</ele><time>2026-04-23T15:42:03.913Z</time></trkpt><trkpt lat="31.35524" lon="-5.2878067"><ele>1142.0</ele><time>2026-04-23T15:42:04.913Z</time></trkpt><trkpt lat="31.3553667" lon="-5.2878833"><ele>1142.0</ele><time>2026-04-23T15:42:05.912Z</time></trkpt><trkpt lat="31.3554917" lon="-5.2879567"><ele>1142.0</ele><time>2026-04-23T15:42:06.913Z</time></trkpt><trkpt lat="31.355615" lon="-5.2880317"><ele>1142.0</ele><time>2026-04-23T15:42:07.912Z</time></trkpt><trkpt lat="31.3557367" lon="-5.288105"><ele>1141.25</ele><time>2026-04-23T15:42:08.913Z</time></trkpt><trkpt lat="31.355855" lon="-5.28817"><ele>1140.5</ele><time>2026-04-23T15:42:09.913Z</time></trkpt><trkpt lat="31.3559733" lon="-5.2882367"><ele>1139.75</ele><time>2026-04-23T15:42:10.913Z</time></trkpt><trkpt lat="31.35609" lon="-5.2883083"><ele>1139.0</ele><time>2026-04-23T15:42:11.912Z</time></trkpt><trkpt lat="31.3562067" lon="-5.2883817"><ele>1139.0</ele><time>2026-04-23T15:42:12.913Z</time></trkpt><trkpt lat="31.3563283" lon="-5.2884517"><ele>1139.0</ele><time>2026-04-23T15:42:13.913Z</time></trkpt><trkpt lat="31.3564533" lon="-5.28852"><ele>1139.0</ele><time>2026-04-23T15:42:14.912Z</time></trkpt><trkpt lat="31.35658" lon="-5.2885933"><ele>1139.0</ele><time>2026-04-23T15:42:15.912Z</time></trkpt><trkpt lat="31.3567033" lon="-5.28867"><ele>1138.75</ele><time>2026-04-23T15:42:16.913Z</time></trkpt><trkpt lat="31.3568283" lon="-5.2887467"><ele>1138.5</ele><time>2026-04-23T15:42:17.913Z</time></trkpt><trkpt lat="31.3569567" lon="-5.2888267"><ele>1138.25</ele><time>2026-04-23T15:42:18.912Z</time></trkpt><trkpt lat="31.3570833" lon="-5.2889083"><ele>1138.0</ele><time>2026-04-23T15:42:19.913Z</time></trkpt><trkpt lat="31.3572083" lon="-5.288985"><ele>1138.0</ele><time>2026-04-23T15:42:20.913Z</time></trkpt><trkpt lat="31.3573317" lon="-5.2890583"><ele>1138.0</ele><time>2026-04-23T15:42:21.913Z</time></trkpt><trkpt lat="31.35745" lon="-5.2891283"><ele>1138.0</ele><time>2026-04-23T15:42:22.913Z</time></trkpt><trkpt lat="31.3575717" lon="-5.289195"><ele>1138.0</ele><time>2026-04-23T15:42:23.912Z</time></trkpt><trkpt lat="31.35769" lon="-5.2892633"><ele>1138.0</ele><time>2026-04-23T15:42:24.913Z</time></trkpt><trkpt lat="31.3578033" lon="-5.2893283"><ele>1138.0</ele><time>2026-04-23T15:42:25.913Z</time></trkpt><trkpt lat="31.3579183" lon="-5.2893983"><ele>1138.0</ele><time>2026-04-23T15:42:26.913Z</time></trkpt><trkpt lat="31.3580267" lon="-5.2894683"><ele>1138.0</ele><time>2026-04-23T15:42:27.913Z</time></trkpt><trkpt lat="31.3581417" lon="-5.289545"><ele>1138.0</ele><time>2026-04-23T15:42:28.913Z</time></trkpt><trkpt lat="31.3582583" lon="-5.2896217"><ele>1138.0</ele><time>2026-04-23T15:42:29.912Z</time></trkpt><trkpt lat="31.3583733" lon="-5.289685"><ele>1138.0</ele><time>2026-04-23T15:42:30.913Z</time></trkpt><trkpt lat="31.358485" lon="-5.2897483"><ele>1138.0</ele><time>2026-04-23T15:42:31.913Z</time></trkpt><trkpt lat="31.3586" lon="-5.28981"><ele>1138.0</ele><time>2026-04-23T15:42:32.913Z</time></trkpt><trkpt lat="31.35872" lon="-5.28988"><ele>1138.0</ele><time>2026-04-23T15:42:33.913Z</time></trkpt><trkpt lat="31.3588367" lon="-5.2899517"><ele>1138.0</ele><time>2026-04-23T15:42:34.913Z</time></trkpt><trkpt lat="31.358965" lon="-5.2900217"><ele>1138.0</ele><time>2026-04-23T15:42:35.913Z</time></trkpt><trkpt lat="31.3590867" lon="-5.2900867"><ele>1137.25</ele><time>2026-04-23T15:42:36.913Z</time></trkpt><trkpt lat="31.35921" lon="-5.2901483"><ele>1136.5</ele><time>2026-04-23T15:42:37.912Z</time></trkpt><trkpt lat="31.3593333" lon="-5.290215"><ele>1135.75</ele><time>2026-04-23T15:42:38.912Z</time></trkpt><trkpt lat="31.3594467" lon="-5.29027"><ele>1135.0</ele><time>2026-04-23T15:42:39.913Z</time></trkpt><trkpt lat="31.3595633" lon="-5.29034"><ele>1135.0</ele><time>2026-04-23T15:42:40.912Z</time></trkpt><trkpt lat="31.3596783" lon="-5.2904067"><ele>1135.0</ele><time>2026-04-23T15:42:41.913Z</time></trkpt><trkpt lat="31.3597817" lon="-5.2904583"><ele>1135.0</ele><time>2026-04-23T15:42:42.912Z</time></trkpt><trkpt lat="31.35989" lon="-5.2905083"><ele>1135.0</ele><time>2026-04-23T15:42:43.913Z</time></trkpt><trkpt lat="31.3599967" lon="-5.2905567"><ele>1134.8</ele><time>2026-04-23T15:42:44.913Z</time></trkpt><trkpt lat="31.3601017" lon="-5.290615"><ele>1134.6</ele><time>2026-04-23T15:42:45.913Z</time></trkpt><trkpt lat="31.3601967" lon="-5.29067"><ele>1134.4</ele><time>2026-04-23T15:42:46.913Z</time></trkpt><trkpt lat="31.36029" lon="-5.29072"><ele>1134.2</ele><time>2026-04-23T15:42:47.913Z</time></trkpt><trkpt lat="31.3603867" lon="-5.2907667"><ele>1134.0</ele><time>2026-04-23T15:42:48.913Z</time></trkpt><trkpt lat="31.3604783" lon="-5.2908067"><ele>1134.1666666666667</ele><time>2026-04-23T15:42:49.913Z</time></trkpt><trkpt lat="31.3605633" lon="-5.2908383"><ele>1134.3333333333333</ele><time>2026-04-23T15:42:50.913Z</time></trkpt><trkpt lat="31.3606533" lon="-5.2908683"><ele>1134.5</ele><time>2026-04-23T15:42:51.912Z</time></trkpt><trkpt lat="31.3607417" lon="-5.2909017"><ele>1134.6666666666665</ele><time>2026-04-23T15:42:52.913Z</time></trkpt><trkpt lat="31.3608217" lon="-5.2909383"><ele>1134.8333333333333</ele><time>2026-04-23T15:42:53.913Z</time></trkpt><trkpt lat="31.3609" lon="-5.2909717"><ele>1135.0</ele><time>2026-04-23T15:42:54.912Z</time></trkpt><trkpt lat="31.360975" lon="-5.291005"><ele>1135.0</ele><time>2026-04-23T15:42:55.912Z</time></trkpt><trkpt lat="31.3610517" lon="-5.29104"><ele>1135.0</ele><time>2026-04-23T15:42:56.912Z</time></trkpt><trkpt lat="31.3611267" lon="-5.291075"><ele>1135.0</ele><time>2026-04-23T15:42:57.913Z</time></trkpt><trkpt lat="31.361195" lon="-5.2911067"><ele>1135.0</ele><time>2026-04-23T15:42:58.913Z</time></trkpt><trkpt lat="31.3612633" lon="-5.2911367"><ele>1135.0</ele><time>2026-04-23T15:42:59.913Z</time></trkpt><trkpt lat="31.361335" lon="-5.2911717"><ele>1135.0</ele><time>2026-04-23T15:43:00.913Z</time></trkpt><trkpt lat="31.3614017" lon="-5.2912067"><ele>1134.5714285714287</ele><time>2026-04-23T15:43:01.913Z</time></trkpt><trkpt lat="31.3614633" lon="-5.2912417"><ele>1134.142857142857</ele><time>2026-04-23T15:43:02.913Z</time></trkpt><trkpt lat="31.361525" lon="-5.291275"><ele>1133.7142857142858</ele><time>2026-04-23T15:43:03.912Z</time></trkpt><trkpt lat="31.361585" lon="-5.2913"><ele>1133.2857142857142</ele><time>2026-04-23T15:43:04.913Z</time></trkpt><trkpt lat="31.36165" lon="-5.2913233"><ele>1132.857142857143</ele><time>2026-04-23T15:43:05.913Z</time></trkpt><trkpt lat="31.3617117" lon="-5.2913483"><ele>1132.4285714285716</ele><time>2026-04-23T15:43:06.913Z</time></trkpt><trkpt lat="31.3617783" lon="-5.29137"><ele>1132.0</ele><time>2026-04-23T15:43:07.913Z</time></trkpt><trkpt lat="31.3618533" lon="-5.29139"><ele>1132.0</ele><time>2026-04-23T15:43:08.913Z</time></trkpt><trkpt lat="31.3619283" lon="-5.29141"><ele>1132.0</ele><time>2026-04-23T15:43:09.913Z</time></trkpt><trkpt lat="31.3620167" lon="-5.2914383"><ele>1132.0</ele><time>2026-04-23T15:43:10.913Z</time></trkpt><trkpt lat="31.3621083" lon="-5.29148"><ele>1132.0</ele><time>2026-04-23T15:43:11.913Z</time></trkpt><trkpt lat="31.362215" lon="-5.29153"><ele>1132.0</ele><time>2026-04-23T15:43:12.913Z</time></trkpt><trkpt lat="31.3623267" lon="-5.2915833"><ele>1132.6666666666665</ele><time>2026-04-23T15:43:13.913Z</time></trkpt><trkpt lat="31.3624567" lon="-5.2916417"><ele>1133.3333333333333</ele><time>2026-04-23T15:43:14.913Z</time></trkpt><trkpt lat="31.3626033" lon="-5.2916983"><ele>1134.0</ele><time>2026-04-23T15:43:15.913Z</time></trkpt><trkpt lat="31.3627567" lon="-5.291755"><ele>1134.0</ele><time>2026-04-23T15:43:16.913Z</time></trkpt><trkpt lat="31.3629217" lon="-5.2918133"><ele>1134.0</ele><time>2026-04-23T15:43:17.912Z</time></trkpt><trkpt lat="31.363095" lon="-5.2918767"><ele>1134.0</ele><time>2026-04-23T15:43:18.913Z</time></trkpt><trkpt lat="31.3632783" lon="-5.291945"><ele>1134.0</ele><time>2026-04-23T15:43:19.913Z</time></trkpt><trkpt lat="31.3634683" lon="-5.2920267"><ele>1134.0</ele><time>2026-04-23T15:43:20.913Z</time></trkpt><trkpt lat="31.3636567" lon="-5.2921017"><ele>1134.0</ele><time>2026-04-23T15:43:21.913Z</time></trkpt><trkpt lat="31.363835" lon="-5.292175"><ele>1134.0</ele><time>2026-04-23T15:43:22.913Z</time></trkpt><trkpt lat="31.364" lon="-5.29224"><ele>1134.0</ele><time>2026-04-23T15:43:23.913Z</time></trkpt><trkpt lat="31.364165" lon="-5.29231"><ele>1134.0</ele><time>2026-04-23T15:43:24.913Z</time></trkpt><trkpt lat="31.364315" lon="-5.2923733"><ele>1134.0</ele><time>2026-04-23T15:43:25.912Z</time></trkpt><trkpt lat="31.36447" lon="-5.2924383"><ele>1134.0</ele><time>2026-04-23T15:43:26.913Z</time></trkpt><trkpt lat="31.3646233" lon="-5.2925033"><ele>1134.0</ele><time>2026-04-23T15:43:27.912Z</time></trkpt><trkpt lat="31.3647833" lon="-5.2925683"><ele>1134.0</ele><time>2026-04-23T15:43:28.913Z</time></trkpt><trkpt lat="31.3649467" lon="-5.2926333"><ele>1134.0</ele><time>2026-04-23T15:43:29.913Z</time></trkpt><trkpt lat="31.3651183" lon="-5.2927017"><ele>1134.0</ele><time>2026-04-23T15:43:30.913Z</time></trkpt><trkpt lat="31.3652867" lon="-5.29277"><ele>1134.0</ele><time>2026-04-23T15:43:31.912Z</time></trkpt><trkpt lat="31.3654433" lon="-5.2928383"><ele>1134.0</ele><time>2026-04-23T15:43:32.913Z</time></trkpt><trkpt lat="31.3656017" lon="-5.2929017"><ele>1134.0</ele><time>2026-04-23T15:43:33.913Z</time></trkpt><trkpt lat="31.3657683" lon="-5.2929667"><ele>1134.3333333333333</ele><time>2026-04-23T15:43:34.912Z</time></trkpt><trkpt lat="31.3659383" lon="-5.2930133"><ele>1134.6666666666665</ele><time>2026-04-23T15:43:35.913Z</time></trkpt><trkpt lat="31.366105" lon="-5.2930267"><ele>1135.0</ele><time>2026-04-23T15:43:36.912Z</time></trkpt><trkpt lat="31.36628" lon="-5.2930317"><ele>1134.3333333333333</ele><time>2026-04-23T15:43:37.912Z</time></trkpt><trkpt lat="31.3664533" lon="-5.293015"><ele>1133.6666666666667</ele><time>2026-04-23T15:43:38.912Z</time></trkpt><trkpt lat="31.3666183" lon="-5.2929967"><ele>1133.0</ele><time>2026-04-23T15:43:39.912Z</time></trkpt><trkpt lat="31.3667883" lon="-5.2929667"><ele>1133.0</ele><time>2026-04-23T15:43:40.913Z</time></trkpt><trkpt lat="31.3669583" lon="-5.292925"><ele>1133.0</ele><time>2026-04-23T15:43:41.913Z</time></trkpt><trkpt lat="31.3671367" lon="-5.292875"><ele>1133.0</ele><time>2026-04-23T15:43:42.913Z</time></trkpt><trkpt lat="31.3673133" lon="-5.2928267"><ele>1132.3333333333335</ele><time>2026-04-23T15:43:43.912Z</time></trkpt><trkpt lat="31.3674983" lon="-5.2927683"><ele>1131.6666666666667</ele><time>2026-04-23T15:43:44.912Z</time></trkpt><trkpt lat="31.3676867" lon="-5.29271"><ele>1131.0</ele><time>2026-04-23T15:43:45.913Z</time></trkpt><trkpt lat="31.3678717" lon="-5.2926517"><ele>1131.3333333333333</ele><time>2026-04-23T15:43:46.913Z</time></trkpt><trkpt lat="31.3680583" lon="-5.2925933"><ele>1131.6666666666665</ele><time>2026-04-23T15:43:47.913Z</time></trkpt><trkpt lat="31.3682483" lon="-5.2925383"><ele>1132.0</ele><time>2026-04-23T15:43:48.913Z</time></trkpt><trkpt lat="31.368435" lon="-5.2924817"><ele>1132.0</ele><time>2026-04-23T15:43:49.913Z</time></trkpt><trkpt lat="31.3686233" lon="-5.2924233"><ele>1132.0</ele><time>2026-04-23T15:43:50.913Z</time></trkpt><trkpt lat="31.3688033" lon="-5.2923667"><ele>1132.0</ele><time>2026-04-23T15:43:51.912Z</time></trkpt><trkpt lat="31.36898" lon="-5.29231"><ele>1132.0</ele><time>2026-04-23T15:43:52.912Z</time></trkpt><trkpt lat="31.3691617" lon="-5.292255"><ele>1132.0</ele><time>2026-04-23T15:43:53.913Z</time></trkpt><trkpt lat="31.3693433" lon="-5.2922033"><ele>1132.0</ele><time>2026-04-23T15:43:54.913Z</time></trkpt><trkpt lat="31.369525" lon="-5.2921517"><ele>1131.6666666666665</ele><time>2026-04-23T15:43:55.913Z</time></trkpt><trkpt lat="31.3697083" lon="-5.2921117"><ele>1131.3333333333333</ele><time>2026-04-23T15:43:56.913Z</time></trkpt><trkpt lat="31.3698983" lon="-5.29208"><ele>1131.0</ele><time>2026-04-23T15:43:57.913Z</time></trkpt><trkpt lat="31.3700917" lon="-5.29207"><ele>1131.0</ele><time>2026-04-23T15:43:58.912Z</time></trkpt><trkpt lat="31.3702867" lon="-5.2920733"><ele>1131.0</ele><time>2026-04-23T15:43:59.912Z</time></trkpt><trkpt lat="31.3704833" lon="-5.292095"><ele>1131.0</ele><time>2026-04-23T15:44:00.913Z</time></trkpt><trkpt lat="31.370675" lon="-5.29212"><ele>1131.3333333333333</ele><time>2026-04-23T15:44:01.913Z</time></trkpt><trkpt lat="31.3708617" lon="-5.292145"><ele>1131.6666666666665</ele><time>2026-04-23T15:44:02.912Z</time></trkpt><trkpt lat="31.3710483" lon="-5.2921683"><ele>1132.0</ele><time>2026-04-23T15:44:03.913Z</time></trkpt><trkpt lat="31.37123" lon="-5.2921933"><ele>1131.6666666666665</ele><time>2026-04-23T15:44:04.913Z</time></trkpt><trkpt lat="31.3714167" lon="-5.2922167"><ele>1131.3333333333333</ele><time>2026-04-23T15:44:05.913Z</time></trkpt><trkpt lat="31.3716" lon="-5.292245"><ele>1131.0</ele><time>2026-04-23T15:44:06.913Z</time></trkpt><trkpt lat="31.371785" lon="-5.29227"><ele>1131.6666666666667</ele><time>2026-04-23T15:44:07.913Z</time></trkpt><trkpt lat="31.3719667" lon="-5.2922933"><ele>1132.3333333333335</ele><time>2026-04-23T15:44:08.913Z</time></trkpt><trkpt lat="31.3721483" lon="-5.29232"><ele>1133.0</ele><time>2026-04-23T15:44:09.912Z</time></trkpt><trkpt lat="31.3723333" lon="-5.292355"><ele>1133.3333333333335</ele><time>2026-04-23T15:44:10.913Z</time></trkpt><trkpt lat="31.3725083" lon="-5.2924"><ele>1133.6666666666667</ele><time>2026-04-23T15:44:11.913Z</time></trkpt><trkpt lat="31.37268" lon="-5.2924533"><ele>1134.0</ele><time>2026-04-23T15:44:12.912Z</time></trkpt><trkpt lat="31.3728517" lon="-5.29252"><ele>1133.0</ele><time>2026-04-23T15:44:13.913Z</time></trkpt><trkpt lat="31.3730233" lon="-5.2926067"><ele>1132.0</ele><time>2026-04-23T15:44:14.913Z</time></trkpt><trkpt lat="31.3731933" lon="-5.2926967"><ele>1131.0</ele><time>2026-04-23T15:44:15.913Z</time></trkpt><trkpt lat="31.3733617" lon="-5.292795"><ele>1131.0</ele><time>2026-04-23T15:44:16.913Z</time></trkpt><trkpt lat="31.3735317" lon="-5.2928983"><ele>1131.0</ele><time>2026-04-23T15:44:17.912Z</time></trkpt><trkpt lat="31.3737067" lon="-5.2930067"><ele>1131.0</ele><time>2026-04-23T15:44:18.913Z</time></trkpt><trkpt lat="31.3738783" lon="-5.2931117"><ele>1130.0</ele><time>2026-04-23T15:44:19.913Z</time></trkpt><trkpt lat="31.3740467" lon="-5.29321"><ele>1129.0</ele><time>2026-04-23T15:44:20.913Z</time></trkpt><trkpt lat="31.3742133" lon="-5.293305"><ele>1128.0</ele><time>2026-04-23T15:44:21.913Z</time></trkpt><trkpt lat="31.3743733" lon="-5.2934017"><ele>1128.0</ele><time>2026-04-23T15:44:22.912Z</time></trkpt><trkpt lat="31.3745333" lon="-5.2935"><ele>1128.0</ele><time>2026-04-23T15:44:23.913Z</time></trkpt><trkpt lat="31.3746983" lon="-5.2935967"><ele>1128.0</ele><time>2026-04-23T15:44:24.913Z</time></trkpt><trkpt lat="31.3748667" lon="-5.2936967"><ele>1127.6666666666667</ele><time>2026-04-23T15:44:25.913Z</time></trkpt><trkpt lat="31.375035" lon="-5.2937983"><ele>1127.3333333333335</ele><time>2026-04-23T15:44:26.913Z</time></trkpt><trkpt lat="31.3752017" lon="-5.2939"><ele>1127.0</ele><time>2026-04-23T15:44:27.912Z</time></trkpt><trkpt lat="31.375365" lon="-5.2940033"><ele>1127.0</ele><time>2026-04-23T15:44:28.913Z</time></trkpt><trkpt lat="31.37553" lon="-5.2941033"><ele>1127.0</ele><time>2026-04-23T15:44:29.912Z</time></trkpt><trkpt lat="31.3756933" lon="-5.294205"><ele>1127.0</ele><time>2026-04-23T15:44:30.912Z</time></trkpt><trkpt lat="31.3758583" lon="-5.29431"><ele>1127.0</ele><time>2026-04-23T15:44:31.913Z</time></trkpt><trkpt lat="31.3760233" lon="-5.2944167"><ele>1127.0</ele><time>2026-04-23T15:44:32.913Z</time></trkpt><trkpt lat="31.376195" lon="-5.294515"><ele>1127.0</ele><time>2026-04-23T15:44:33.913Z</time></trkpt><trkpt lat="31.37636" lon="-5.29461"><ele>1127.0</ele><time>2026-04-23T15:44:34.913Z</time></trkpt><trkpt lat="31.3765217" lon="-5.2947133"><ele>1127.0</ele><time>2026-04-23T15:44:35.913Z</time></trkpt><trkpt lat="31.3766917" lon="-5.2948167"><ele>1127.0</ele><time>2026-04-23T15:44:36.913Z</time></trkpt><trkpt lat="31.3768667" lon="-5.2949167"><ele>1127.0</ele><time>2026-04-23T15:44:37.913Z</time></trkpt><trkpt lat="31.377045" lon="-5.2950183"><ele>1127.0</ele><time>2026-04-23T15:44:38.912Z</time></trkpt><trkpt lat="31.3772167" lon="-5.2951217"><ele>1127.0</ele><time>2026-04-23T15:44:39.912Z</time></trkpt><trkpt lat="31.377385" lon="-5.2952283"><ele>1126.3333333333335</ele><time>2026-04-23T15:44:40.913Z</time></trkpt><trkpt lat="31.37756" lon="-5.2953333"><ele>1125.6666666666667</ele><time>2026-04-23T15:44:41.912Z</time></trkpt><trkpt lat="31.3777333" lon="-5.2954433"><ele>1125.0</ele><time>2026-04-23T15:44:42.913Z</time></trkpt><trkpt lat="31.37792" lon="-5.2955433"><ele>1125.3333333333333</ele><time>2026-04-23T15:44:43.913Z</time></trkpt><trkpt lat="31.3781017" lon="-5.295655"><ele>1125.6666666666665</ele><time>2026-04-23T15:44:44.913Z</time></trkpt><trkpt lat="31.37828" lon="-5.295765"><ele>1126.0</ele><time>2026-04-23T15:44:45.913Z</time></trkpt><trkpt lat="31.3784617" lon="-5.2958783"><ele>1126.0</ele><time>2026-04-23T15:44:46.913Z</time></trkpt><trkpt lat="31.3786483" lon="-5.29599"><ele>1126.0</ele><time>2026-04-23T15:44:47.912Z</time></trkpt><trkpt lat="31.3788333" lon="-5.2960967"><ele>1126.0</ele><time>2026-04-23T15:44:48.912Z</time></trkpt><trkpt lat="31.3790083" lon="-5.2962017"><ele>1126.0</ele><time>2026-04-23T15:44:49.913Z</time></trkpt><trkpt lat="31.3791817" lon="-5.2963017"><ele>1126.0</ele><time>2026-04-23T15:44:50.913Z</time></trkpt><trkpt lat="31.37936" lon="-5.2964033"><ele>1126.0</ele><time>2026-04-23T15:44:51.913Z</time></trkpt><trkpt lat="31.3795417" lon="-5.29651"><ele>1126.3333333333333</ele><time>2026-04-23T15:44:52.912Z</time></trkpt><trkpt lat="31.379715" lon="-5.29662"><ele>1126.6666666666667</ele><time>2026-04-23T15:44:53.913Z</time></trkpt><trkpt lat="31.3798933" lon="-5.296735"><ele>1127.0</ele><time>2026-04-23T15:44:54.913Z</time></trkpt><trkpt lat="31.38008" lon="-5.2968533"><ele>1127.0</ele><time>2026-04-23T15:44:55.912Z</time></trkpt><trkpt lat="31.38026" lon="-5.2969633"><ele>1127.0</ele><time>2026-04-23T15:44:56.913Z</time></trkpt><trkpt lat="31.3804483" lon="-5.2970717"><ele>1127.0</ele><time>2026-04-23T15:44:57.913Z</time></trkpt><trkpt lat="31.380635" lon="-5.2971783"><ele>1127.0</ele><time>2026-04-23T15:44:58.913Z</time></trkpt><trkpt lat="31.3808133" lon="-5.2972883"><ele>1127.0</ele><time>2026-04-23T15:44:59.913Z</time></trkpt><trkpt lat="31.3809967" lon="-5.2974033"><ele>1127.0</ele><time>2026-04-23T15:45:00.913Z</time></trkpt><trkpt lat="31.3811867" lon="-5.2975183"><ele>1126.6666666666667</ele><time>2026-04-23T15:45:01.913Z</time></trkpt><trkpt lat="31.381365" lon="-5.2976283"><ele>1126.3333333333333</ele><time>2026-04-23T15:45:02.913Z</time></trkpt><trkpt lat="31.3815417" lon="-5.297735"><ele>1126.0</ele><time>2026-04-23T15:45:03.912Z</time></trkpt><trkpt lat="31.381725" lon="-5.2978417"><ele>1126.0</ele><time>2026-04-23T15:45:04.913Z</time></trkpt><trkpt lat="31.3819133" lon="-5.2979533"><ele>1126.0</ele><time>2026-04-23T15:45:05.913Z</time></trkpt><trkpt lat="31.382095" lon="-5.29806"><ele>1126.0</ele><time>2026-04-23T15:45:06.913Z</time></trkpt><trkpt lat="31.3822717" lon="-5.29817"><ele>1125.6666666666665</ele><time>2026-04-23T15:45:07.912Z</time></trkpt><trkpt lat="31.3824483" lon="-5.298275"><ele>1125.3333333333333</ele><time>2026-04-23T15:45:08.913Z</time></trkpt><trkpt lat="31.382635" lon="-5.2983833"><ele>1125.0</ele><time>2026-04-23T15:45:09.913Z</time></trkpt><trkpt lat="31.38282" lon="-5.2984917"><ele>1125.0</ele><time>2026-04-23T15:45:10.913Z</time></trkpt><trkpt lat="31.383005" lon="-5.2986017"><ele>1125.0</ele><time>2026-04-23T15:45:11.912Z</time></trkpt><trkpt lat="31.38319" lon="-5.2987183"><ele>1125.0</ele><time>2026-04-23T15:45:12.912Z</time></trkpt><trkpt lat="31.3833733" lon="-5.2988317"><ele>1124.6666666666667</ele><time>2026-04-23T15:45:13.912Z</time></trkpt><trkpt lat="31.383555" lon="-5.2989433"><ele>1124.3333333333335</ele><time>2026-04-23T15:45:14.913Z</time></trkpt><trkpt lat="31.3837383" lon="-5.2990533"><ele>1124.0</ele><time>2026-04-23T15:45:15.912Z</time></trkpt><trkpt lat="31.3839183" lon="-5.2991633"><ele>1123.6666666666667</ele><time>2026-04-23T15:45:16.913Z</time></trkpt><trkpt lat="31.3840967" lon="-5.2992683"><ele>1123.3333333333333</ele><time>2026-04-23T15:45:17.913Z</time></trkpt><trkpt lat="31.3842683" lon="-5.29937"><ele>1123.0</ele><time>2026-04-23T15:45:18.913Z</time></trkpt><trkpt lat="31.3844383" lon="-5.2994717"><ele>1123.0</ele><time>2026-04-23T15:45:19.913Z</time></trkpt><trkpt lat="31.3846033" lon="-5.29957"><ele>1123.0</ele><time>2026-04-23T15:45:20.913Z</time></trkpt><trkpt lat="31.3847767" lon="-5.2996717"><ele>1123.0</ele><time>2026-04-23T15:45:21.913Z</time></trkpt><trkpt lat="31.384945" lon="-5.299775"><ele>1123.6666666666665</ele><time>2026-04-23T15:45:22.913Z</time></trkpt><trkpt lat="31.3851233" lon="-5.2998783"><ele>1124.3333333333333</ele><time>2026-04-23T15:45:23.913Z</time></trkpt><trkpt lat="31.3852983" lon="-5.2999867"><ele>1125.0</ele><time>2026-04-23T15:45:24.912Z</time></trkpt><trkpt lat="31.385475" lon="-5.300095"><ele>1125.6666666666667</ele><time>2026-04-23T15:45:25.913Z</time></trkpt><trkpt lat="31.3856583" lon="-5.3002033"><ele>1126.3333333333335</ele><time>2026-04-23T15:45:26.913Z</time></trkpt><trkpt lat="31.3858383" lon="-5.300305"><ele>1127.0</ele><time>2026-04-23T15:45:27.913Z</time></trkpt><trkpt lat="31.3860133" lon="-5.3004083"><ele>1127.0</ele><time>2026-04-23T15:45:28.913Z</time></trkpt><trkpt lat="31.3861867" lon="-5.3005117"><ele>1127.0</ele><time>2026-04-23T15:45:29.913Z</time></trkpt><trkpt lat="31.3863567" lon="-5.3006117"><ele>1127.0</ele><time>2026-04-23T15:45:30.913Z</time></trkpt><trkpt lat="31.3865267" lon="-5.300715"><ele>1127.0</ele><time>2026-04-23T15:45:31.913Z</time></trkpt><trkpt lat="31.3867" lon="-5.30082"><ele>1127.0</ele><time>2026-04-23T15:45:32.913Z</time></trkpt><trkpt lat="31.3868733" lon="-5.300925"><ele>1127.0</ele><time>2026-04-23T15:45:33.913Z</time></trkpt><trkpt lat="31.387045" lon="-5.3010317"><ele>1126.6666666666667</ele><time>2026-04-23T15:45:34.913Z</time></trkpt><trkpt lat="31.38722" lon="-5.3011517"><ele>1126.3333333333333</ele><time>2026-04-23T15:45:35.913Z</time></trkpt><trkpt lat="31.3873933" lon="-5.3012833"><ele>1126.0</ele><time>2026-04-23T15:45:36.912Z</time></trkpt><trkpt lat="31.3875633" lon="-5.3014217"><ele>1127.0</ele><time>2026-04-23T15:45:37.913Z</time></trkpt><trkpt lat="31.3877367" lon="-5.3015683"><ele>1128.0</ele><time>2026-04-23T15:45:38.913Z</time></trkpt><trkpt lat="31.387895" lon="-5.3017233"><ele>1129.0</ele><time>2026-04-23T15:45:39.912Z</time></trkpt><trkpt lat="31.3880433" lon="-5.3018833"><ele>1129.3333333333333</ele><time>2026-04-23T15:45:40.912Z</time></trkpt><trkpt lat="31.3881767" lon="-5.302055"><ele>1129.6666666666667</ele><time>2026-04-23T15:45:41.911Z</time></trkpt><trkpt lat="31.3883017" lon="-5.3022267"><ele>1130.0</ele><time>2026-04-23T15:45:42.912Z</time></trkpt><trkpt lat="31.3884233" lon="-5.3024067"><ele>1130.6666666666667</ele><time>2026-04-23T15:45:43.912Z</time></trkpt><trkpt lat="31.3885433" lon="-5.3025933"><ele>1131.3333333333333</ele><time>2026-04-23T15:45:44.912Z</time></trkpt><trkpt lat="31.3886633" lon="-5.3027883"><ele>1132.0</ele><time>2026-04-23T15:45:45.912Z</time></trkpt><trkpt lat="31.3887833" lon="-5.3029883"><ele>1130.3333333333333</ele><time>2026-04-23T15:45:46.911Z</time></trkpt><trkpt lat="31.3889033" lon="-5.3031967"><ele>1128.6666666666667</ele><time>2026-04-23T15:45:47.911Z</time></trkpt><trkpt lat="31.38903" lon="-5.3034033"><ele>1127.0</ele><time>2026-04-23T15:45:48.912Z</time></trkpt><trkpt lat="31.3891567" lon="-5.3036117"><ele>1127.0</ele><time>2026-04-23T15:45:49.912Z</time></trkpt><trkpt lat="31.38928" lon="-5.3038233"><ele>1127.0</ele><time>2026-04-23T15:45:50.912Z</time></trkpt><trkpt lat="31.3893967" lon="-5.3040267"><ele>1127.0</ele><time>2026-04-23T15:45:51.912Z</time></trkpt><trkpt lat="31.3895117" lon="-5.304225"><ele>1126.6666666666667</ele><time>2026-04-23T15:45:52.911Z</time></trkpt><trkpt lat="31.3896217" lon="-5.30442"><ele>1126.3333333333333</ele><time>2026-04-23T15:45:53.912Z</time></trkpt><trkpt lat="31.3897383" lon="-5.3046183"><ele>1126.0</ele><time>2026-04-23T15:45:54.911Z</time></trkpt><trkpt lat="31.3898467" lon="-5.3048133"><ele>1125.0</ele><time>2026-04-23T15:45:55.912Z</time></trkpt><trkpt lat="31.3899533" lon="-5.30501"><ele>1124.0</ele><time>2026-04-23T15:45:56.912Z</time></trkpt><trkpt lat="31.3900683" lon="-5.305205"><ele>1123.0</ele><time>2026-04-23T15:45:57.912Z</time></trkpt><trkpt lat="31.3901767" lon="-5.3053983"><ele>1123.0</ele><time>2026-04-23T15:45:58.912Z</time></trkpt><trkpt lat="31.390285" lon="-5.3055867"><ele>1123.0</ele><time>2026-04-23T15:45:59.912Z</time></trkpt><trkpt lat="31.390395" lon="-5.3057733"><ele>1123.0</ele><time>2026-04-23T15:46:00.912Z</time></trkpt><trkpt lat="31.3905083" lon="-5.30596"><ele>1123.3333333333333</ele><time>2026-04-23T15:46:01.912Z</time></trkpt><trkpt lat="31.39062" lon="-5.3061467"><ele>1123.6666666666667</ele><time>2026-04-23T15:46:02.911Z</time></trkpt><trkpt lat="31.3907283" lon="-5.3063383"><ele>1124.0</ele><time>2026-04-23T15:46:03.912Z</time></trkpt><trkpt lat="31.3908367" lon="-5.306535"><ele>1124.0</ele><time>2026-04-23T15:46:04.912Z</time></trkpt><trkpt lat="31.3909433" lon="-5.3067317"><ele>1124.0</ele><time>2026-04-23T15:46:05.912Z</time></trkpt><trkpt lat="31.391055" lon="-5.3069283"><ele>1124.0</ele><time>2026-04-23T15:46:06.911Z</time></trkpt><trkpt lat="31.3911667" lon="-5.3071233"><ele>1123.6666666666667</ele><time>2026-04-23T15:46:07.912Z</time></trkpt><trkpt lat="31.3912817" lon="-5.3073183"><ele>1123.3333333333333</ele><time>2026-04-23T15:46:08.912Z</time></trkpt><trkpt lat="31.391395" lon="-5.3075133"><ele>1123.0</ele><time>2026-04-23T15:46:09.912Z</time></trkpt><trkpt lat="31.391505" lon="-5.30771"><ele>1123.0</ele><time>2026-04-23T15:46:10.912Z</time></trkpt><trkpt lat="31.3916183" lon="-5.3079033"><ele>1123.0</ele><time>2026-04-23T15:46:11.911Z</time></trkpt><trkpt lat="31.3917333" lon="-5.308095"><ele>1123.0</ele><time>2026-04-23T15:46:12.911Z</time></trkpt><trkpt lat="31.3918417" lon="-5.3082883"><ele>1122.6666666666665</ele><time>2026-04-23T15:46:13.912Z</time></trkpt><trkpt lat="31.3919533" lon="-5.3084833"><ele>1122.3333333333333</ele><time>2026-04-23T15:46:14.912Z</time></trkpt><trkpt lat="31.3920667" lon="-5.30868"><ele>1122.0</ele><time>2026-04-23T15:46:15.912Z</time></trkpt><trkpt lat="31.392175" lon="-5.30887"><ele>1122.3333333333333</ele><time>2026-04-23T15:46:16.912Z</time></trkpt><trkpt lat="31.3922833" lon="-5.309065"><ele>1122.6666666666665</ele><time>2026-04-23T15:46:17.911Z</time></trkpt><trkpt lat="31.3923983" lon="-5.3092567"><ele>1123.0</ele><time>2026-04-23T15:46:18.912Z</time></trkpt><trkpt lat="31.39251" lon="-5.309455"><ele>1123.0</ele><time>2026-04-23T15:46:19.912Z</time></trkpt><trkpt lat="31.3926233" lon="-5.3096517"><ele>1123.0</ele><time>2026-04-23T15:46:20.912Z</time></trkpt><trkpt lat="31.39274" lon="-5.30985"><ele>1123.0</ele><time>2026-04-23T15:46:21.912Z</time></trkpt><trkpt lat="31.392855" lon="-5.310045"><ele>1123.6666666666665</ele><time>2026-04-23T15:46:22.911Z</time></trkpt><trkpt lat="31.392965" lon="-5.3102383"><ele>1124.3333333333333</ele><time>2026-04-23T15:46:23.912Z</time></trkpt><trkpt lat="31.393075" lon="-5.3104317"><ele>1125.0</ele><time>2026-04-23T15:46:24.911Z</time></trkpt><trkpt lat="31.3931867" lon="-5.310625"><ele>1126.0</ele><time>2026-04-23T15:46:25.912Z</time></trkpt><trkpt lat="31.3932983" lon="-5.3108183"><ele>1127.0</ele><time>2026-04-23T15:46:26.912Z</time></trkpt><trkpt lat="31.3934117" lon="-5.3110117"><ele>1128.0</ele><time>2026-04-23T15:46:27.912Z</time></trkpt><trkpt lat="31.3935217" lon="-5.3112067"><ele>1128.0</ele><time>2026-04-23T15:46:28.912Z</time></trkpt><trkpt lat="31.39363" lon="-5.3113967"><ele>1128.0</ele><time>2026-04-23T15:46:29.912Z</time></trkpt><trkpt lat="31.3937433" lon="-5.3115917"><ele>1128.0</ele><time>2026-04-23T15:46:30.912Z</time></trkpt><trkpt lat="31.393855" lon="-5.311785"><ele>1129.0</ele><time>2026-04-23T15:46:31.912Z</time></trkpt><trkpt lat="31.3939633" lon="-5.31198"><ele>1130.0</ele><time>2026-04-23T15:46:32.912Z</time></trkpt><trkpt lat="31.3940733" lon="-5.312175"><ele>1131.0</ele><time>2026-04-23T15:46:33.911Z</time></trkpt><trkpt lat="31.39418" lon="-5.312375"><ele>1131.0</ele><time>2026-04-23T15:46:34.911Z</time></trkpt><trkpt lat="31.3942917" lon="-5.3125683"><ele>1131.0</ele><time>2026-04-23T15:46:35.912Z</time></trkpt><trkpt lat="31.394405" lon="-5.3127633"><ele>1131.0</ele><time>2026-04-23T15:46:36.912Z</time></trkpt><trkpt lat="31.3945167" lon="-5.312955"><ele>1131.6666666666667</ele><time>2026-04-23T15:46:37.912Z</time></trkpt><trkpt lat="31.3946317" lon="-5.3131483"><ele>1132.3333333333335</ele><time>2026-04-23T15:46:38.911Z</time></trkpt><trkpt lat="31.3947467" lon="-5.3133367"><ele>1133.0</ele><time>2026-04-23T15:46:39.912Z</time></trkpt><trkpt lat="31.3948567" lon="-5.3135283"><ele>1133.6666666666667</ele><time>2026-04-23T15:46:40.912Z</time></trkpt><trkpt lat="31.3949717" lon="-5.3137183"><ele>1134.3333333333333</ele><time>2026-04-23T15:46:41.912Z</time></trkpt><trkpt lat="31.3950783" lon="-5.3139167"><ele>1135.0</ele><time>2026-04-23T15:46:42.912Z</time></trkpt><trkpt lat="31.395185" lon="-5.314115"><ele>1135.3333333333333</ele><time>2026-04-23T15:46:43.912Z</time></trkpt><trkpt lat="31.39528" lon="-5.3143033"><ele>1135.6666666666667</ele><time>2026-04-23T15:46:44.912Z</time></trkpt><trkpt lat="31.3953683" lon="-5.31449"><ele>1136.0</ele><time>2026-04-23T15:46:45.912Z</time></trkpt><trkpt lat="31.3954483" lon="-5.314685"><ele>1137.6666666666667</ele><time>2026-04-23T15:46:46.912Z</time></trkpt><trkpt lat="31.3955233" lon="-5.314875"><ele>1139.3333333333333</ele><time>2026-04-23T15:46:47.911Z</time></trkpt><trkpt lat="31.3956017" lon="-5.3150617"><ele>1141.0</ele><time>2026-04-23T15:46:48.912Z</time></trkpt><trkpt lat="31.3956833" lon="-5.3152483"><ele>1141.0</ele><time>2026-04-23T15:46:49.912Z</time></trkpt><trkpt lat="31.3957833" lon="-5.3154167"><ele>1141.0</ele><time>2026-04-23T15:46:50.912Z</time></trkpt><trkpt lat="31.3958867" lon="-5.3155583"><ele>1141.0</ele><time>2026-04-23T15:46:51.912Z</time></trkpt><trkpt lat="31.3960033" lon="-5.3156917"><ele>1141.0</ele><time>2026-04-23T15:46:52.911Z</time></trkpt><trkpt lat="31.3961317" lon="-5.3158283"><ele>1141.0</ele><time>2026-04-23T15:46:53.912Z</time></trkpt><trkpt lat="31.3962617" lon="-5.3159583"><ele>1141.0</ele><time>2026-04-23T15:46:54.912Z</time></trkpt><trkpt lat="31.39639" lon="-5.3160917"><ele>1141.0</ele><time>2026-04-23T15:46:55.912Z</time></trkpt><trkpt lat="31.3965233" lon="-5.3162217"><ele>1141.0</ele><time>2026-04-23T15:46:56.912Z</time></trkpt><trkpt lat="31.3966533" lon="-5.3163517"><ele>1141.0</ele><time>2026-04-23T15:46:57.912Z</time></trkpt><trkpt lat="31.396785" lon="-5.316485"><ele>1140.3333333333333</ele><time>2026-04-23T15:46:58.912Z</time></trkpt><trkpt lat="31.396915" lon="-5.3166167"><ele>1139.6666666666667</ele><time>2026-04-23T15:46:59.912Z</time></trkpt><trkpt lat="31.3970433" lon="-5.316755"><ele>1139.0</ele><time>2026-04-23T15:47:00.912Z</time></trkpt><trkpt lat="31.3971817" lon="-5.3168917"><ele>1139.0</ele><time>2026-04-23T15:47:01.912Z</time></trkpt><trkpt lat="31.397325" lon="-5.31703"><ele>1139.0</ele><time>2026-04-23T15:47:02.912Z</time></trkpt><trkpt lat="31.397465" lon="-5.31717"><ele>1139.0</ele><time>2026-04-23T15:47:03.911Z</time></trkpt><trkpt lat="31.39761" lon="-5.31731"><ele>1138.6666666666667</ele><time>2026-04-23T15:47:04.911Z</time></trkpt><trkpt lat="31.3977533" lon="-5.31745"><ele>1138.3333333333333</ele><time>2026-04-23T15:47:05.912Z</time></trkpt><trkpt lat="31.3978917" lon="-5.3175933"><ele>1138.0</ele><time>2026-04-23T15:47:06.912Z</time></trkpt><trkpt lat="31.3980267" lon="-5.31773"><ele>1138.0</ele><time>2026-04-23T15:47:07.912Z</time></trkpt><trkpt lat="31.39816" lon="-5.31786"><ele>1138.0</ele><time>2026-04-23T15:47:08.912Z</time></trkpt><trkpt lat="31.3982933" lon="-5.317995"><ele>1138.0</ele><time>2026-04-23T15:47:09.912Z</time></trkpt><trkpt lat="31.3984217" lon="-5.31813"><ele>1137.25</ele><time>2026-04-23T15:47:10.912Z</time></trkpt><trkpt lat="31.398545" lon="-5.3182633"><ele>1136.5</ele><time>2026-04-23T15:47:11.911Z</time></trkpt><trkpt lat="31.398645" lon="-5.3183917"><ele>1135.75</ele><time>2026-04-23T15:47:12.912Z</time></trkpt><trkpt lat="31.3987333" lon="-5.318495"><ele>1135.0</ele><time>2026-04-23T15:47:13.912Z</time></trkpt><trkpt lat="31.3988117" lon="-5.3185767"><ele>1135.0</ele><time>2026-04-23T15:47:14.912Z</time></trkpt><trkpt lat="31.3988733" lon="-5.3186383"><ele>1135.0</ele><time>2026-04-23T15:47:15.911Z</time></trkpt><trkpt lat="31.3989417" lon="-5.3187133"><ele>1135.0</ele><time>2026-04-23T15:47:17.912Z</time></trkpt><trkpt lat="31.399" lon="-5.3187583"><ele>1135.0</ele><time>2026-04-23T15:47:57.912Z</time></trkpt><trkpt lat="31.3991017" lon="-5.318855"><ele>1135.0</ele><time>2026-04-23T15:47:59.911Z</time></trkpt><trkpt lat="31.3991767" lon="-5.3189267"><ele>1134.5</ele><time>2026-04-23T15:48:00.912Z</time></trkpt><trkpt lat="31.3992583" lon="-5.319005"><ele>1134.0</ele><time>2026-04-23T15:48:01.912Z</time></trkpt><trkpt lat="31.3993483" lon="-5.3190867"><ele>1133.5</ele><time>2026-04-23T15:48:02.912Z</time></trkpt><trkpt lat="31.3994583" lon="-5.3191867"><ele>1133.0</ele><time>2026-04-23T15:48:03.911Z</time></trkpt><trkpt lat="31.3995767" lon="-5.3193"><ele>1132.6666666666667</ele><time>2026-04-23T15:48:04.911Z</time></trkpt><trkpt lat="31.3997067" lon="-5.319425"><ele>1132.3333333333333</ele><time>2026-04-23T15:48:05.912Z</time></trkpt><trkpt lat="31.399845" lon="-5.3195633"><ele>1132.0</ele><time>2026-04-23T15:48:06.911Z</time></trkpt><trkpt lat="31.3999883" lon="-5.3197133"><ele>1131.3333333333333</ele><time>2026-04-23T15:48:07.912Z</time></trkpt><trkpt lat="31.4001417" lon="-5.3198667"><ele>1130.6666666666667</ele><time>2026-04-23T15:48:08.911Z</time></trkpt><trkpt lat="31.4002967" lon="-5.320025"><ele>1130.0</ele><time>2026-04-23T15:48:09.911Z</time></trkpt><trkpt lat="31.4004483" lon="-5.320175"><ele>1130.3333333333335</ele><time>2026-04-23T15:48:10.912Z</time></trkpt><trkpt lat="31.4005917" lon="-5.3203217"><ele>1130.6666666666667</ele><time>2026-04-23T15:48:11.911Z</time></trkpt><trkpt lat="31.400745" lon="-5.3204717"><ele>1131.0</ele><time>2026-04-23T15:48:12.911Z</time></trkpt><trkpt lat="31.4009033" lon="-5.320625"><ele>1130.3333333333333</ele><time>2026-04-23T15:48:13.911Z</time></trkpt><trkpt lat="31.40106" lon="-5.32078"><ele>1129.6666666666665</ele><time>2026-04-23T15:48:14.911Z</time></trkpt><trkpt lat="31.401205" lon="-5.3209383"><ele>1129.0</ele><time>2026-04-23T15:48:15.911Z</time></trkpt><trkpt lat="31.4013483" lon="-5.3210833"><ele>1129.0</ele><time>2026-04-23T15:48:16.911Z</time></trkpt><trkpt lat="31.4014833" lon="-5.32122"><ele>1129.0</ele><time>2026-04-23T15:48:17.912Z</time></trkpt><trkpt lat="31.40162" lon="-5.3213467"><ele>1129.0</ele><time>2026-04-23T15:48:18.912Z</time></trkpt><trkpt lat="31.401745" lon="-5.321475"><ele>1128.3333333333333</ele><time>2026-04-23T15:48:19.911Z</time></trkpt><trkpt lat="31.40187" lon="-5.3215983"><ele>1127.6666666666667</ele><time>2026-04-23T15:48:20.912Z</time></trkpt><trkpt lat="31.4019933" lon="-5.321715"><ele>1127.0</ele><time>2026-04-23T15:48:21.912Z</time></trkpt><trkpt lat="31.4021033" lon="-5.3218333"><ele>1126.75</ele><time>2026-04-23T15:48:22.912Z</time></trkpt><trkpt lat="31.402215" lon="-5.32195"><ele>1126.5</ele><time>2026-04-23T15:48:23.912Z</time></trkpt><trkpt lat="31.402325" lon="-5.3220667"><ele>1126.25</ele><time>2026-04-23T15:48:24.912Z</time></trkpt><trkpt lat="31.4024267" lon="-5.32217"><ele>1126.0</ele><time>2026-04-23T15:48:25.911Z</time></trkpt><trkpt lat="31.4025267" lon="-5.3222717"><ele>1125.6</ele><time>2026-04-23T15:48:26.912Z</time></trkpt><trkpt lat="31.4026233" lon="-5.322375"><ele>1125.1999999999998</ele><time>2026-04-23T15:48:27.912Z</time></trkpt><trkpt lat="31.40272" lon="-5.3224683"><ele>1124.8000000000002</ele><time>2026-04-23T15:48:28.911Z</time></trkpt><trkpt lat="31.4028017" lon="-5.3225383"><ele>1124.4</ele><time>2026-04-23T15:48:29.912Z</time></trkpt><trkpt lat="31.4028717" lon="-5.3225983"><ele>1124.0</ele><time>2026-04-23T15:48:30.912Z</time></trkpt><trkpt lat="31.40293" lon="-5.3226483"><ele>1123.8</ele><time>2026-04-23T15:48:31.912Z</time></trkpt><trkpt lat="31.403005" lon="-5.3227267"><ele>1123.6000000000001</ele><time>2026-04-23T15:48:33.912Z</time></trkpt><trkpt lat="31.403055" lon="-5.3227817"><ele>1123.4</ele><time>2026-04-23T15:48:36.911Z</time></trkpt><trkpt lat="31.4031233" lon="-5.32286"><ele>1123.2</ele><time>2026-04-23T15:49:48.912Z</time></trkpt><trkpt lat="31.4031933" lon="-5.3229317"><ele>1123.0</ele><time>2026-04-23T15:49:49.912Z</time></trkpt><trkpt lat="31.403275" lon="-5.32301"><ele>1122.75</ele><time>2026-04-23T15:49:50.912Z</time></trkpt><trkpt lat="31.403365" lon="-5.3230983"><ele>1122.5</ele><time>2026-04-23T15:49:51.911Z</time></trkpt><trkpt lat="31.4034683" lon="-5.3231933"><ele>1122.25</ele><time>2026-04-23T15:49:52.911Z</time></trkpt><trkpt lat="31.4035767" lon="-5.3232983"><ele>1122.0</ele><time>2026-04-23T15:49:53.912Z</time></trkpt><trkpt lat="31.4036883" lon="-5.3234133"><ele>1122.0</ele><time>2026-04-23T15:49:54.912Z</time></trkpt><trkpt lat="31.4038017" lon="-5.3235317"><ele>1122.0</ele><time>2026-04-23T15:49:55.912Z</time></trkpt><trkpt lat="31.4039183" lon="-5.3236417"><ele>1122.0</ele><time>2026-04-23T15:49:56.912Z</time></trkpt><trkpt lat="31.40403" lon="-5.3237433"><ele>1122.0</ele><time>2026-04-23T15:49:57.912Z</time></trkpt><trkpt lat="31.404145" lon="-5.32383"><ele>1122.0</ele><time>2026-04-23T15:49:58.912Z</time></trkpt><trkpt lat="31.4042617" lon="-5.3239133"><ele>1122.0</ele><time>2026-04-23T15:49:59.912Z</time></trkpt><trkpt lat="31.40438" lon="-5.323995"><ele>1122.0</ele><time>2026-04-23T15:50:00.912Z</time></trkpt><trkpt lat="31.4044983" lon="-5.3240717"><ele>1122.0</ele><time>2026-04-23T15:50:01.912Z</time></trkpt><trkpt lat="31.4046267" lon="-5.3241433"><ele>1122.0</ele><time>2026-04-23T15:50:02.911Z</time></trkpt><trkpt lat="31.4047567" lon="-5.3242133"><ele>1122.0</ele><time>2026-04-23T15:50:03.912Z</time></trkpt><trkpt lat="31.404885" lon="-5.324285"><ele>1122.0</ele><time>2026-04-23T15:50:04.912Z</time></trkpt><trkpt lat="31.4050167" lon="-5.324345"><ele>1122.0</ele><time>2026-04-23T15:50:05.911Z</time></trkpt><trkpt lat="31.4051533" lon="-5.3244067"><ele>1122.0</ele><time>2026-04-23T15:50:06.912Z</time></trkpt><trkpt lat="31.4052917" lon="-5.3244667"><ele>1122.0</ele><time>2026-04-23T15:50:07.911Z</time></trkpt><trkpt lat="31.40543" lon="-5.324525"><ele>1122.0</ele><time>2026-04-23T15:50:08.912Z</time></trkpt><trkpt lat="31.4055733" lon="-5.32458"><ele>1122.0</ele><time>2026-04-23T15:50:09.912Z</time></trkpt><trkpt lat="31.4057183" lon="-5.3246333"><ele>1122.3333333333333</ele><time>2026-04-23T15:50:10.912Z</time></trkpt><trkpt lat="31.405865" lon="-5.3246883"><ele>1122.6666666666665</ele><time>2026-04-23T15:50:11.911Z</time></trkpt><trkpt lat="31.406005" lon="-5.3247483"><ele>1123.0</ele><time>2026-04-23T15:50:12.912Z</time></trkpt><trkpt lat="31.4061483" lon="-5.3248117"><ele>1123.3333333333333</ele><time>2026-04-23T15:50:13.912Z</time></trkpt><trkpt lat="31.4062983" lon="-5.3248817"><ele>1123.6666666666667</ele><time>2026-04-23T15:50:14.912Z</time></trkpt><trkpt lat="31.406445" lon="-5.3249433"><ele>1124.0</ele><time>2026-04-23T15:50:15.912Z</time></trkpt><trkpt lat="31.4065867" lon="-5.325"><ele>1124.0</ele><time>2026-04-23T15:50:16.912Z</time></trkpt><trkpt lat="31.4067367" lon="-5.3250633"><ele>1124.0</ele><time>2026-04-23T15:50:17.911Z</time></trkpt><trkpt lat="31.4068867" lon="-5.3251233"><ele>1124.0</ele><time>2026-04-23T15:50:18.912Z</time></trkpt><trkpt lat="31.4070367" lon="-5.3251917"><ele>1123.6666666666667</ele><time>2026-04-23T15:50:19.912Z</time></trkpt><trkpt lat="31.4071967" lon="-5.3252583"><ele>1123.3333333333333</ele><time>2026-04-23T15:50:20.912Z</time></trkpt><trkpt lat="31.4073567" lon="-5.325325"><ele>1123.0</ele><time>2026-04-23T15:50:21.912Z</time></trkpt><trkpt lat="31.4075167" lon="-5.3253933"><ele>1123.0</ele><time>2026-04-23T15:50:22.912Z</time></trkpt><trkpt lat="31.4076817" lon="-5.3254633"><ele>1123.0</ele><time>2026-04-23T15:50:23.911Z</time></trkpt><trkpt lat="31.4078483" lon="-5.3255367"><ele>1123.0</ele><time>2026-04-23T15:50:24.912Z</time></trkpt><trkpt lat="31.40802" lon="-5.3256083"><ele>1122.6666666666665</ele><time>2026-04-23T15:50:25.912Z</time></trkpt><trkpt lat="31.408195" lon="-5.32568"><ele>1122.3333333333333</ele><time>2026-04-23T15:50:26.912Z</time></trkpt><trkpt lat="31.408375" lon="-5.3257517"><ele>1122.0</ele><time>2026-04-23T15:50:27.912Z</time></trkpt><trkpt lat="31.4085533" lon="-5.3258283"><ele>1122.0</ele><time>2026-04-23T15:50:28.912Z</time></trkpt><trkpt lat="31.4087317" lon="-5.325905"><ele>1122.0</ele><time>2026-04-23T15:50:29.912Z</time></trkpt><trkpt lat="31.40891" lon="-5.325985"><ele>1122.0</ele><time>2026-04-23T15:50:30.911Z</time></trkpt><trkpt lat="31.4090817" lon="-5.32606"><ele>1122.0</ele><time>2026-04-23T15:50:31.912Z</time></trkpt><trkpt lat="31.4092567" lon="-5.326135"><ele>1122.0</ele><time>2026-04-23T15:50:32.912Z</time></trkpt><trkpt lat="31.4094317" lon="-5.326215"><ele>1122.0</ele><time>2026-04-23T15:50:33.912Z</time></trkpt><trkpt lat="31.4096017" lon="-5.3263"><ele>1122.3333333333333</ele><time>2026-04-23T15:50:34.912Z</time></trkpt><trkpt lat="31.4097767" lon="-5.3263883"><ele>1122.6666666666665</ele><time>2026-04-23T15:50:35.911Z</time></trkpt><trkpt lat="31.4099533" lon="-5.3264783"><ele>1123.0</ele><time>2026-04-23T15:50:36.911Z</time></trkpt><trkpt lat="31.4101267" lon="-5.3265683"><ele>1123.3333333333333</ele><time>2026-04-23T15:50:37.912Z</time></trkpt><trkpt lat="31.4103033" lon="-5.3266617"><ele>1123.6666666666667</ele><time>2026-04-23T15:50:38.912Z</time></trkpt><trkpt lat="31.4104817" lon="-5.3267567"><ele>1124.0</ele><time>2026-04-23T15:50:39.911Z</time></trkpt><trkpt lat="31.4106633" lon="-5.3268467"><ele>1124.0</ele><time>2026-04-23T15:50:40.911Z</time></trkpt><trkpt lat="31.410855" lon="-5.3269383"><ele>1124.0</ele><time>2026-04-23T15:50:41.911Z</time></trkpt><trkpt lat="31.41104" lon="-5.3270333"><ele>1124.0</ele><time>2026-04-23T15:50:42.911Z</time></trkpt><trkpt lat="31.4112233" lon="-5.3271267"><ele>1124.0</ele><time>2026-04-23T15:50:43.91Z</time></trkpt><trkpt lat="31.4114067" lon="-5.327225"><ele>1124.0</ele><time>2026-04-23T15:50:44.91Z</time></trkpt><trkpt lat="31.411585" lon="-5.3273183"><ele>1124.0</ele><time>2026-04-23T15:50:45.91Z</time></trkpt><trkpt lat="31.4117683" lon="-5.3274083"><ele>1124.3333333333335</ele><time>2026-04-23T15:50:46.91Z</time></trkpt><trkpt lat="31.411945" lon="-5.3275"><ele>1124.6666666666667</ele><time>2026-04-23T15:50:47.91Z</time></trkpt><trkpt lat="31.4121233" lon="-5.32759"><ele>1125.0</ele><time>2026-04-23T15:50:48.911Z</time></trkpt><trkpt lat="31.4123017" lon="-5.3276783"><ele>1125.0</ele><time>2026-04-23T15:50:49.911Z</time></trkpt><trkpt lat="31.4124817" lon="-5.32777"><ele>1125.0</ele><time>2026-04-23T15:50:50.911Z</time></trkpt><trkpt lat="31.412665" lon="-5.327865"><ele>1125.0</ele><time>2026-04-23T15:50:51.91Z</time></trkpt><trkpt lat="31.412845" lon="-5.327965"><ele>1125.0</ele><time>2026-04-23T15:50:52.911Z</time></trkpt><trkpt lat="31.41303" lon="-5.3280583"><ele>1125.0</ele><time>2026-04-23T15:50:53.91Z</time></trkpt><trkpt lat="31.4132183" lon="-5.3281483"><ele>1125.0</ele><time>2026-04-23T15:50:54.91Z</time></trkpt><trkpt lat="31.4134" lon="-5.3282417"><ele>1125.0</ele><time>2026-04-23T15:50:55.911Z</time></trkpt><trkpt lat="31.4135717" lon="-5.3283283"><ele>1125.0</ele><time>2026-04-23T15:50:56.911Z</time></trkpt><trkpt lat="31.4137483" lon="-5.32842"><ele>1125.0</ele><time>2026-04-23T15:50:57.911Z</time></trkpt><trkpt lat="31.4139283" lon="-5.32851"><ele>1124.6666666666667</ele><time>2026-04-23T15:50:58.911Z</time></trkpt><trkpt lat="31.4141117" lon="-5.3286033"><ele>1124.3333333333335</ele><time>2026-04-23T15:50:59.91Z</time></trkpt><trkpt lat="31.4142983" lon="-5.3286933"><ele>1124.0</ele><time>2026-04-23T15:51:00.911Z</time></trkpt><trkpt lat="31.41448" lon="-5.32878"><ele>1124.0</ele><time>2026-04-23T15:51:01.911Z</time></trkpt><trkpt lat="31.4146533" lon="-5.3288633"><ele>1124.0</ele><time>2026-04-23T15:51:02.911Z</time></trkpt><trkpt lat="31.414825" lon="-5.3289517"><ele>1124.0</ele><time>2026-04-23T15:51:03.911Z</time></trkpt><trkpt lat="31.414995" lon="-5.3290383"><ele>1124.0</ele><time>2026-04-23T15:51:04.911Z</time></trkpt><trkpt lat="31.4151683" lon="-5.3291167"><ele>1124.0</ele><time>2026-04-23T15:51:05.911Z</time></trkpt><trkpt lat="31.4153433" lon="-5.329195"><ele>1124.0</ele><time>2026-04-23T15:51:06.911Z</time></trkpt><trkpt lat="31.41551" lon="-5.3292883"><ele>1123.6666666666667</ele><time>2026-04-23T15:51:07.911Z</time></trkpt><trkpt lat="31.4156783" lon="-5.3293817"><ele>1123.3333333333333</ele><time>2026-04-23T15:51:08.911Z</time></trkpt><trkpt lat="31.4158483" lon="-5.32947"><ele>1123.0</ele><time>2026-04-23T15:51:09.911Z</time></trkpt><trkpt lat="31.4160267" lon="-5.329555"><ele>1123.0</ele><time>2026-04-23T15:51:10.911Z</time></trkpt><trkpt lat="31.4161983" lon="-5.3296433"><ele>1123.0</ele><time>2026-04-23T15:51:11.911Z</time></trkpt><trkpt lat="31.4163717" lon="-5.3297317"><ele>1123.0</ele><time>2026-04-23T15:51:12.911Z</time></trkpt><trkpt lat="31.4165433" lon="-5.3298217"><ele>1123.6666666666665</ele><time>2026-04-23T15:51:13.911Z</time></trkpt><trkpt lat="31.4167117" lon="-5.329915"><ele>1124.3333333333333</ele><time>2026-04-23T15:51:14.911Z</time></trkpt><trkpt lat="31.4168867" lon="-5.3300017"><ele>1125.0</ele><time>2026-04-23T15:51:15.91Z</time></trkpt><trkpt lat="31.417065" lon="-5.3300917"><ele>1125.0</ele><time>2026-04-23T15:51:16.911Z</time></trkpt><trkpt lat="31.4172517" lon="-5.3301833"><ele>1125.0</ele><time>2026-04-23T15:51:17.911Z</time></trkpt><trkpt lat="31.4174417" lon="-5.3302683"><ele>1125.0</ele><time>2026-04-23T15:51:18.911Z</time></trkpt><trkpt lat="31.4176167" lon="-5.33037"><ele>1125.0</ele><time>2026-04-23T15:51:19.911Z</time></trkpt><trkpt lat="31.4177967" lon="-5.3304667"><ele>1125.0</ele><time>2026-04-23T15:51:20.911Z</time></trkpt><trkpt lat="31.41798" lon="-5.33056"><ele>1125.0</ele><time>2026-04-23T15:51:21.911Z</time></trkpt><trkpt lat="31.4181617" lon="-5.3306533"><ele>1125.3333333333333</ele><time>2026-04-23T15:51:22.91Z</time></trkpt><trkpt lat="31.4183467" lon="-5.3307483"><ele>1125.6666666666665</ele><time>2026-04-23T15:51:23.91Z</time></trkpt><trkpt lat="31.4185333" lon="-5.33084"><ele>1126.0</ele><time>2026-04-23T15:51:24.91Z</time></trkpt><trkpt lat="31.4187183" lon="-5.3309317"><ele>1126.0</ele><time>2026-04-23T15:51:25.91Z</time></trkpt><trkpt lat="31.4189067" lon="-5.331025"><ele>1126.0</ele><time>2026-04-23T15:51:26.91Z</time></trkpt><trkpt lat="31.4190917" lon="-5.33112"><ele>1126.0</ele><time>2026-04-23T15:51:27.911Z</time></trkpt><trkpt lat="31.4192783" lon="-5.331215"><ele>1126.0</ele><time>2026-04-23T15:51:28.911Z</time></trkpt><trkpt lat="31.4194667" lon="-5.3313083"><ele>1126.0</ele><time>2026-04-23T15:51:29.911Z</time></trkpt><trkpt lat="31.4196583" lon="-5.3314067"><ele>1126.0</ele><time>2026-04-23T15:51:30.911Z</time></trkpt><trkpt lat="31.4198483" lon="-5.3315083"><ele>1126.0</ele><time>2026-04-23T15:51:31.911Z</time></trkpt><trkpt lat="31.4200367" lon="-5.3316017"><ele>1126.0</ele><time>2026-04-23T15:51:32.911Z</time></trkpt><trkpt lat="31.42022" lon="-5.331695"><ele>1126.0</ele><time>2026-04-23T15:51:33.91Z</time></trkpt><trkpt lat="31.4203983" lon="-5.331785"><ele>1127.0</ele><time>2026-04-23T15:51:34.911Z</time></trkpt><trkpt lat="31.4205817" lon="-5.331875"><ele>1128.0</ele><time>2026-04-23T15:51:35.911Z</time></trkpt><trkpt lat="31.4207617" lon="-5.33197"><ele>1129.0</ele><time>2026-04-23T15:51:36.911Z</time></trkpt><trkpt lat="31.4209417" lon="-5.3320633"><ele>1129.0</ele><time>2026-04-23T15:51:37.911Z</time></trkpt><trkpt lat="31.4211267" lon="-5.3321567"><ele>1129.0</ele><time>2026-04-23T15:51:38.911Z</time></trkpt><trkpt lat="31.4213083" lon="-5.33225"><ele>1129.0</ele><time>2026-04-23T15:51:39.911Z</time></trkpt><trkpt lat="31.42149" lon="-5.3323417"><ele>1128.6666666666665</ele><time>2026-04-23T15:51:40.911Z</time></trkpt><trkpt lat="31.4216717" lon="-5.3324383"><ele>1128.3333333333333</ele><time>2026-04-23T15:51:41.91Z</time></trkpt><trkpt lat="31.42185" lon="-5.3325317"><ele>1128.0</ele><time>2026-04-23T15:51:42.911Z</time></trkpt><trkpt lat="31.4220317" lon="-5.3326283"><ele>1128.6666666666667</ele><time>2026-04-23T15:51:43.911Z</time></trkpt><trkpt lat="31.422215" lon="-5.3327233"><ele>1129.3333333333335</ele><time>2026-04-23T15:51:44.91Z</time></trkpt><trkpt lat="31.4224017" lon="-5.33282"><ele>1130.0</ele><time>2026-04-23T15:51:45.911Z</time></trkpt><trkpt lat="31.4225867" lon="-5.3329083"><ele>1130.0</ele><time>2026-04-23T15:51:46.91Z</time></trkpt><trkpt lat="31.4227683" lon="-5.3330033"><ele>1130.0</ele><time>2026-04-23T15:51:47.911Z</time></trkpt><trkpt lat="31.42295" lon="-5.3331"><ele>1130.0</ele><time>2026-04-23T15:51:48.911Z</time></trkpt><trkpt lat="31.42314" lon="-5.3331967"><ele>1129.0</ele><time>2026-04-23T15:51:49.91Z</time></trkpt><trkpt lat="31.4233283" lon="-5.3332917"><ele>1128.0</ele><time>2026-04-23T15:51:50.911Z</time></trkpt><trkpt lat="31.4235167" lon="-5.33339"><ele>1127.0</ele><time>2026-04-23T15:51:51.911Z</time></trkpt><trkpt lat="31.423705" lon="-5.333485"><ele>1127.6666666666667</ele><time>2026-04-23T15:51:52.911Z</time></trkpt><trkpt lat="31.4238933" lon="-5.333585"><ele>1128.3333333333333</ele><time>2026-04-23T15:51:53.911Z</time></trkpt><trkpt lat="31.4240833" lon="-5.3336833"><ele>1129.0</ele><time>2026-04-23T15:51:54.911Z</time></trkpt><trkpt lat="31.4242733" lon="-5.333775"><ele>1129.0</ele><time>2026-04-23T15:51:55.911Z</time></trkpt><trkpt lat="31.4244617" lon="-5.3338717"><ele>1129.0</ele><time>2026-04-23T15:51:56.911Z</time></trkpt><trkpt lat="31.4246517" lon="-5.333965"><ele>1129.0</ele><time>2026-04-23T15:51:57.91Z</time></trkpt><trkpt lat="31.4248383" lon="-5.3340583"><ele>1129.0</ele><time>2026-04-23T15:51:58.911Z</time></trkpt><trkpt lat="31.425025" lon="-5.3341483"><ele>1129.0</ele><time>2026-04-23T15:51:59.911Z</time></trkpt><trkpt lat="31.4252117" lon="-5.334245"><ele>1129.0</ele><time>2026-04-23T15:52:00.911Z</time></trkpt><trkpt lat="31.4253967" lon="-5.3343367"><ele>1128.3333333333333</ele><time>2026-04-23T15:52:01.91Z</time></trkpt><trkpt lat="31.425585" lon="-5.3344333"><ele>1127.6666666666667</ele><time>2026-04-23T15:52:02.911Z</time></trkpt><trkpt lat="31.42577" lon="-5.3345267"><ele>1127.0</ele><time>2026-04-23T15:52:03.911Z</time></trkpt><trkpt lat="31.4259567" lon="-5.3346233"><ele>1127.0</ele><time>2026-04-23T15:52:04.911Z</time></trkpt><trkpt lat="31.42615" lon="-5.3347183"><ele>1127.0</ele><time>2026-04-23T15:52:05.911Z</time></trkpt><trkpt lat="31.4263383" lon="-5.3348167"><ele>1127.0</ele><time>2026-04-23T15:52:06.911Z</time></trkpt><trkpt lat="31.42653" lon="-5.3349133"><ele>1127.6666666666667</ele><time>2026-04-23T15:52:07.911Z</time></trkpt><trkpt lat="31.4267183" lon="-5.3350167"><ele>1128.3333333333333</ele><time>2026-04-23T15:52:08.911Z</time></trkpt><trkpt lat="31.4269083" lon="-5.3351183"><ele>1129.0</ele><time>2026-04-23T15:52:09.91Z</time></trkpt><trkpt lat="31.4270983" lon="-5.33522"><ele>1129.3333333333333</ele><time>2026-04-23T15:52:10.911Z</time></trkpt><trkpt lat="31.4272867" lon="-5.33532"><ele>1129.6666666666667</ele><time>2026-04-23T15:52:11.91Z</time></trkpt><trkpt lat="31.4274767" lon="-5.3354167"><ele>1130.0</ele><time>2026-04-23T15:52:12.91Z</time></trkpt><trkpt lat="31.4276733" lon="-5.3355117"><ele>1130.0</ele><time>2026-04-23T15:52:13.911Z</time></trkpt><trkpt lat="31.4278683" lon="-5.3356067"><ele>1130.0</ele><time>2026-04-23T15:52:14.91Z</time></trkpt><trkpt lat="31.4280633" lon="-5.335705"><ele>1130.0</ele><time>2026-04-23T15:52:15.911Z</time></trkpt><trkpt lat="31.4282567" lon="-5.3358017"><ele>1130.6666666666667</ele><time>2026-04-23T15:52:16.911Z</time></trkpt><trkpt lat="31.42845" lon="-5.3359033"><ele>1131.3333333333333</ele><time>2026-04-23T15:52:17.911Z</time></trkpt><trkpt lat="31.4286383" lon="-5.3359983"><ele>1132.0</ele><time>2026-04-23T15:52:18.911Z</time></trkpt><trkpt lat="31.4288217" lon="-5.336095"><ele>1132.3333333333333</ele><time>2026-04-23T15:52:19.911Z</time></trkpt><trkpt lat="31.428995" lon="-5.3361917"><ele>1132.6666666666667</ele><time>2026-04-23T15:52:20.91Z</time></trkpt><trkpt lat="31.4291683" lon="-5.336285"><ele>1133.0</ele><time>2026-04-23T15:52:21.91Z</time></trkpt><trkpt lat="31.429335" lon="-5.3363783"><ele>1133.3333333333335</ele><time>2026-04-23T15:52:22.911Z</time></trkpt><trkpt lat="31.4294967" lon="-5.3364717"><ele>1133.6666666666667</ele><time>2026-04-23T15:52:23.911Z</time></trkpt><trkpt lat="31.4296517" lon="-5.3365617"><ele>1134.0</ele><time>2026-04-23T15:52:24.911Z</time></trkpt><trkpt lat="31.429805" lon="-5.3366467"><ele>1133.3333333333333</ele><time>2026-04-23T15:52:25.911Z</time></trkpt><trkpt lat="31.4299567" lon="-5.33673"><ele>1132.6666666666665</ele><time>2026-04-23T15:52:26.911Z</time></trkpt><trkpt lat="31.4301067" lon="-5.336815"><ele>1132.0</ele><time>2026-04-23T15:52:27.91Z</time></trkpt><trkpt lat="31.4302567" lon="-5.3369"><ele>1132.0</ele><time>2026-04-23T15:52:28.911Z</time></trkpt><trkpt lat="31.4304017" lon="-5.3369883"><ele>1132.0</ele><time>2026-04-23T15:52:29.911Z</time></trkpt><trkpt lat="31.430545" lon="-5.3370683"><ele>1132.0</ele><time>2026-04-23T15:52:30.911Z</time></trkpt><trkpt lat="31.430685" lon="-5.3371467"><ele>1132.0</ele><time>2026-04-23T15:52:31.911Z</time></trkpt><trkpt lat="31.4308133" lon="-5.337225"><ele>1132.0</ele><time>2026-04-23T15:52:32.91Z</time></trkpt><trkpt lat="31.430935" lon="-5.337295"><ele>1132.0</ele><time>2026-04-23T15:52:33.911Z</time></trkpt><trkpt lat="31.4310533" lon="-5.3373617"><ele>1132.0</ele><time>2026-04-23T15:52:34.911Z</time></trkpt><trkpt lat="31.4311667" lon="-5.3374283"><ele>1132.0</ele><time>2026-04-23T15:52:35.911Z</time></trkpt><trkpt lat="31.43127" lon="-5.3374917"><ele>1132.0</ele><time>2026-04-23T15:52:36.911Z</time></trkpt><trkpt lat="31.4313733" lon="-5.3375567"><ele>1132.0</ele><time>2026-04-23T15:52:37.911Z</time></trkpt><trkpt lat="31.431475" lon="-5.3376167"><ele>1132.0</ele><time>2026-04-23T15:52:38.911Z</time></trkpt><trkpt lat="31.43158" lon="-5.337675"><ele>1132.0</ele><time>2026-04-23T15:52:39.911Z</time></trkpt><trkpt lat="31.4316783" lon="-5.3377333"><ele>1132.0</ele><time>2026-04-23T15:52:40.911Z</time></trkpt><trkpt lat="31.4317783" lon="-5.3377917"><ele>1132.0</ele><time>2026-04-23T15:52:41.911Z</time></trkpt><trkpt lat="31.4318867" lon="-5.337855"><ele>1132.0</ele><time>2026-04-23T15:52:42.911Z</time></trkpt><trkpt lat="31.4320017" lon="-5.3379217"><ele>1132.0</ele><time>2026-04-23T15:52:43.91Z</time></trkpt><trkpt lat="31.4321217" lon="-5.33799"><ele>1132.0</ele><time>2026-04-23T15:52:44.911Z</time></trkpt><trkpt lat="31.4322517" lon="-5.3380617"><ele>1132.0</ele><time>2026-04-23T15:52:45.911Z</time></trkpt><trkpt lat="31.4323817" lon="-5.3381417"><ele>1132.0</ele><time>2026-04-23T15:52:46.911Z</time></trkpt><trkpt lat="31.4325217" lon="-5.3382267"><ele>1132.0</ele><time>2026-04-23T15:52:47.911Z</time></trkpt><trkpt lat="31.4326633" lon="-5.33831"><ele>1132.0</ele><time>2026-04-23T15:52:48.91Z</time></trkpt><trkpt lat="31.4328133" lon="-5.3383983"><ele>1132.0</ele><time>2026-04-23T15:52:49.91Z</time></trkpt><trkpt lat="31.4329617" lon="-5.33849"><ele>1132.3333333333333</ele><time>2026-04-23T15:52:50.911Z</time></trkpt><trkpt lat="31.4331183" lon="-5.3385817"><ele>1132.6666666666667</ele><time>2026-04-23T15:52:51.911Z</time></trkpt><trkpt lat="31.4332767" lon="-5.3386767"><ele>1133.0</ele><time>2026-04-23T15:52:52.91Z</time></trkpt><trkpt lat="31.4334433" lon="-5.3387717"><ele>1133.0</ele><time>2026-04-23T15:52:53.911Z</time></trkpt><trkpt lat="31.4336083" lon="-5.338875"><ele>1133.0</ele><time>2026-04-23T15:52:54.911Z</time></trkpt><trkpt lat="31.43378" lon="-5.3389783"><ele>1133.0</ele><time>2026-04-23T15:52:55.911Z</time></trkpt><trkpt lat="31.4339583" lon="-5.3390833"><ele>1133.0</ele><time>2026-04-23T15:52:56.911Z</time></trkpt><trkpt lat="31.434135" lon="-5.3391917"><ele>1133.0</ele><time>2026-04-23T15:52:57.911Z</time></trkpt><trkpt lat="31.4343117" lon="-5.3392967"><ele>1133.0</ele><time>2026-04-23T15:52:58.911Z</time></trkpt><trkpt lat="31.4344833" lon="-5.339395"><ele>1133.0</ele><time>2026-04-23T15:52:59.911Z</time></trkpt><trkpt lat="31.434645" lon="-5.3394933"><ele>1133.0</ele><time>2026-04-23T15:53:00.91Z</time></trkpt><trkpt lat="31.4347983" lon="-5.33959"><ele>1133.0</ele><time>2026-04-23T15:53:01.911Z</time></trkpt><trkpt lat="31.4349517" lon="-5.339685"><ele>1133.3333333333335</ele><time>2026-04-23T15:53:02.911Z</time></trkpt><trkpt lat="31.435105" lon="-5.3397717"><ele>1133.6666666666667</ele><time>2026-04-23T15:53:03.91Z</time></trkpt><trkpt lat="31.4352483" lon="-5.3398533"><ele>1134.0</ele><time>2026-04-23T15:53:04.91Z</time></trkpt><trkpt lat="31.4353933" lon="-5.339935"><ele>1134.0</ele><time>2026-04-23T15:53:05.911Z</time></trkpt><trkpt lat="31.4355367" lon="-5.340015"><ele>1134.0</ele><time>2026-04-23T15:53:06.911Z</time></trkpt><trkpt lat="31.4356783" lon="-5.340095"><ele>1134.0</ele><time>2026-04-23T15:53:07.911Z</time></trkpt><trkpt lat="31.435825" lon="-5.3401683"><ele>1134.0</ele><time>2026-04-23T15:53:08.911Z</time></trkpt><trkpt lat="31.4359833" lon="-5.3402333"><ele>1134.0</ele><time>2026-04-23T15:53:09.911Z</time></trkpt><trkpt lat="31.4361467" lon="-5.340285"><ele>1134.0</ele><time>2026-04-23T15:53:10.911Z</time></trkpt><trkpt lat="31.4363117" lon="-5.3403317"><ele>1134.3333333333333</ele><time>2026-04-23T15:53:11.911Z</time></trkpt><trkpt lat="31.4364833" lon="-5.340375"><ele>1134.6666666666665</ele><time>2026-04-23T15:53:12.911Z</time></trkpt><trkpt lat="31.4366533" lon="-5.340415"><ele>1135.0</ele><time>2026-04-23T15:53:13.911Z</time></trkpt><trkpt lat="31.4368317" lon="-5.3404617"><ele>1135.0</ele><time>2026-04-23T15:53:14.911Z</time></trkpt><trkpt lat="31.4370017" lon="-5.3405033"><ele>1135.0</ele><time>2026-04-23T15:53:15.911Z</time></trkpt><trkpt lat="31.4371733" lon="-5.340555"><ele>1135.0</ele><time>2026-04-23T15:53:16.911Z</time></trkpt><trkpt lat="31.437345" lon="-5.3406233"><ele>1134.6666666666665</ele><time>2026-04-23T15:53:17.911Z</time></trkpt><trkpt lat="31.4375167" lon="-5.340705"><ele>1134.3333333333333</ele><time>2026-04-23T15:53:18.91Z</time></trkpt><trkpt lat="31.4376867" lon="-5.34079"><ele>1134.0</ele><time>2026-04-23T15:53:19.911Z</time></trkpt><trkpt lat="31.4378567" lon="-5.3408767"><ele>1134.0</ele><time>2026-04-23T15:53:20.91Z</time></trkpt><trkpt lat="31.4380233" lon="-5.3409683"><ele>1134.0</ele><time>2026-04-23T15:53:21.911Z</time></trkpt><trkpt lat="31.438195" lon="-5.3410517"><ele>1134.0</ele><time>2026-04-23T15:53:22.911Z</time></trkpt><trkpt lat="31.438365" lon="-5.3411417"><ele>1134.0</ele><time>2026-04-23T15:53:23.911Z</time></trkpt><trkpt lat="31.438535" lon="-5.3412367"><ele>1134.0</ele><time>2026-04-23T15:53:24.91Z</time></trkpt><trkpt lat="31.4387083" lon="-5.34133"><ele>1134.0</ele><time>2026-04-23T15:53:25.91Z</time></trkpt><trkpt lat="31.438885" lon="-5.3414217"><ele>1134.0</ele><time>2026-04-23T15:53:26.911Z</time></trkpt><trkpt lat="31.4390633" lon="-5.34151"><ele>1134.0</ele><time>2026-04-23T15:53:27.911Z</time></trkpt><trkpt lat="31.4392367" lon="-5.3415983"><ele>1134.0</ele><time>2026-04-23T15:53:28.911Z</time></trkpt><trkpt lat="31.4394133" lon="-5.3416883"><ele>1134.0</ele><time>2026-04-23T15:53:29.91Z</time></trkpt><trkpt lat="31.4395867" lon="-5.3417817"><ele>1134.0</ele><time>2026-04-23T15:53:30.911Z</time></trkpt><trkpt lat="31.4397583" lon="-5.34188"><ele>1134.0</ele><time>2026-04-23T15:53:31.911Z</time></trkpt><trkpt lat="31.439925" lon="-5.3419733"><ele>1134.3333333333333</ele><time>2026-04-23T15:53:32.911Z</time></trkpt><trkpt lat="31.440095" lon="-5.3420467"><ele>1134.6666666666665</ele><time>2026-04-23T15:53:33.911Z</time></trkpt><trkpt lat="31.4402733" lon="-5.34209"><ele>1135.0</ele><time>2026-04-23T15:53:34.91Z</time></trkpt><trkpt lat="31.4404583" lon="-5.3421067"><ele>1134.6666666666665</ele><time>2026-04-23T15:53:35.911Z</time></trkpt><trkpt lat="31.4406417" lon="-5.3420867"><ele>1134.3333333333333</ele><time>2026-04-23T15:53:36.91Z</time></trkpt><trkpt lat="31.4408333" lon="-5.3420467"><ele>1134.0</ele><time>2026-04-23T15:53:37.911Z</time></trkpt><trkpt lat="31.4410333" lon="-5.342"><ele>1134.0</ele><time>2026-04-23T15:53:38.911Z</time></trkpt><trkpt lat="31.4412367" lon="-5.34194"><ele>1134.0</ele><time>2026-04-23T15:53:39.911Z</time></trkpt><trkpt lat="31.441445" lon="-5.34188"><ele>1134.0</ele><time>2026-04-23T15:53:40.911Z</time></trkpt><trkpt lat="31.4416533" lon="-5.34181"><ele>1133.6666666666667</ele><time>2026-04-23T15:53:41.91Z</time></trkpt><trkpt lat="31.4418517" lon="-5.341745"><ele>1133.3333333333335</ele><time>2026-04-23T15:53:42.911Z</time></trkpt><trkpt lat="31.44205" lon="-5.341685"><ele>1133.0</ele><time>2026-04-23T15:53:43.911Z</time></trkpt><trkpt lat="31.442245" lon="-5.3416167"><ele>1132.3333333333335</ele><time>2026-04-23T15:53:44.911Z</time></trkpt><trkpt lat="31.4424417" lon="-5.3415433"><ele>1131.6666666666667</ele><time>2026-04-23T15:53:45.911Z</time></trkpt><trkpt lat="31.442635" lon="-5.3414683"><ele>1131.0</ele><time>2026-04-23T15:53:46.911Z</time></trkpt><trkpt lat="31.442825" lon="-5.3413833"><ele>1131.3333333333333</ele><time>2026-04-23T15:53:47.911Z</time></trkpt><trkpt lat="31.4430117" lon="-5.341305"><ele>1131.6666666666665</ele><time>2026-04-23T15:53:48.911Z</time></trkpt><trkpt lat="31.4431917" lon="-5.34123"><ele>1132.0</ele><time>2026-04-23T15:53:49.91Z</time></trkpt><trkpt lat="31.4433617" lon="-5.3411583"><ele>1132.0</ele><time>2026-04-23T15:53:50.911Z</time></trkpt><trkpt lat="31.4435283" lon="-5.3410883"><ele>1132.0</ele><time>2026-04-23T15:53:51.911Z</time></trkpt><trkpt lat="31.4436917" lon="-5.3410167"><ele>1132.0</ele><time>2026-04-23T15:53:52.91Z</time></trkpt><trkpt lat="31.4438517" lon="-5.3409483"><ele>1133.0</ele><time>2026-04-23T15:53:53.911Z</time></trkpt><trkpt lat="31.44401" lon="-5.3408817"><ele>1134.0</ele><time>2026-04-23T15:53:54.911Z</time></trkpt><trkpt lat="31.4441733" lon="-5.3408133"><ele>1135.0</ele><time>2026-04-23T15:53:55.911Z</time></trkpt><trkpt lat="31.4443417" lon="-5.3407417"><ele>1135.0</ele><time>2026-04-23T15:53:56.911Z</time></trkpt><trkpt lat="31.444515" lon="-5.3406683"><ele>1135.0</ele><time>2026-04-23T15:53:57.91Z</time></trkpt><trkpt lat="31.4446917" lon="-5.3405933"><ele>1135.0</ele><time>2026-04-23T15:53:58.911Z</time></trkpt><trkpt lat="31.444865" lon="-5.3405167"><ele>1136.0</ele><time>2026-04-23T15:53:59.911Z</time></trkpt><trkpt lat="31.4450383" lon="-5.34044"><ele>1137.0</ele><time>2026-04-23T15:54:00.91Z</time></trkpt><trkpt lat="31.4452083" lon="-5.3403717"><ele>1138.0</ele><time>2026-04-23T15:54:01.911Z</time></trkpt><trkpt lat="31.44537" lon="-5.3403067"><ele>1138.6666666666665</ele><time>2026-04-23T15:54:02.91Z</time></trkpt><trkpt lat="31.4455317" lon="-5.34025"><ele>1139.3333333333333</ele><time>2026-04-23T15:54:03.911Z</time></trkpt><trkpt lat="31.4457" lon="-5.340205"><ele>1140.0</ele><time>2026-04-23T15:54:04.91Z</time></trkpt><trkpt lat="31.4458683" lon="-5.3401783"><ele>1140.0</ele><time>2026-04-23T15:54:05.911Z</time></trkpt><trkpt lat="31.44604" lon="-5.3401633"><ele>1140.0</ele><time>2026-04-23T15:54:06.911Z</time></trkpt><trkpt lat="31.4462" lon="-5.3401567"><ele>1140.0</ele><time>2026-04-23T15:54:07.911Z</time></trkpt><trkpt lat="31.4463533" lon="-5.340155"><ele>1140.5</ele><time>2026-04-23T15:54:08.911Z</time></trkpt><trkpt lat="31.4464967" lon="-5.3401583"><ele>1141.0</ele><time>2026-04-23T15:54:09.91Z</time></trkpt><trkpt lat="31.4466317" lon="-5.34016"><ele>1141.5</ele><time>2026-04-23T15:54:10.911Z</time></trkpt><trkpt lat="31.446755" lon="-5.3401617"><ele>1142.0</ele><time>2026-04-23T15:54:11.911Z</time></trkpt><trkpt lat="31.4468767" lon="-5.34016"><ele>1142.0</ele><time>2026-04-23T15:54:12.911Z</time></trkpt><trkpt lat="31.4469917" lon="-5.3401617"><ele>1142.0</ele><time>2026-04-23T15:54:13.911Z</time></trkpt><trkpt lat="31.4470983" lon="-5.3401667"><ele>1142.0</ele><time>2026-04-23T15:54:14.911Z</time></trkpt><trkpt lat="31.447205" lon="-5.3401683"><ele>1142.0</ele><time>2026-04-23T15:54:15.91Z</time></trkpt><trkpt lat="31.4473033" lon="-5.3401583"><ele>1142.0</ele><time>2026-04-23T15:54:16.911Z</time></trkpt><trkpt lat="31.4473933" lon="-5.3401383"><ele>1142.3333333333335</ele><time>2026-04-23T15:54:17.911Z</time></trkpt><trkpt lat="31.447475" lon="-5.3401217"><ele>1142.6666666666667</ele><time>2026-04-23T15:54:18.911Z</time></trkpt><trkpt lat="31.44754" lon="-5.340105"><ele>1143.0</ele><time>2026-04-23T15:54:19.911Z</time></trkpt><trkpt lat="31.4476233" lon="-5.3400633"><ele>1143.3333333333333</ele><time>2026-04-23T15:54:21.91Z</time></trkpt><trkpt lat="31.4476983" lon="-5.3400617"><ele>1143.6666666666665</ele><time>2026-04-23T15:54:23.911Z</time></trkpt><trkpt lat="31.44776" lon="-5.3400867"><ele>1144.0</ele><time>2026-04-23T15:54:24.91Z</time></trkpt><trkpt lat="31.44782" lon="-5.340145"><ele>1144.0</ele><time>2026-04-23T15:54:25.911Z</time></trkpt><trkpt lat="31.447885" lon="-5.3402317"><ele>1144.0</ele><time>2026-04-23T15:54:26.91Z</time></trkpt><trkpt lat="31.447945" lon="-5.3403367"><ele>1144.0</ele><time>2026-04-23T15:54:27.911Z</time></trkpt><trkpt lat="31.4480017" lon="-5.3404367"><ele>1144.0</ele><time>2026-04-23T15:54:28.911Z</time></trkpt><trkpt lat="31.4480583" lon="-5.3405383"><ele>1144.0</ele><time>2026-04-23T15:54:29.911Z</time></trkpt><trkpt lat="31.4481217" lon="-5.3406483"><ele>1144.25</ele><time>2026-04-23T15:54:30.91Z</time></trkpt><trkpt lat="31.44819" lon="-5.3407567"><ele>1144.5</ele><time>2026-04-23T15:54:31.911Z</time></trkpt><trkpt lat="31.4482633" lon="-5.3408767"><ele>1144.75</ele><time>2026-04-23T15:54:32.911Z</time></trkpt><trkpt lat="31.448345" lon="-5.341"><ele>1145.0</ele><time>2026-04-23T15:54:33.911Z</time></trkpt><trkpt lat="31.44843" lon="-5.3411333"><ele>1145.0</ele><time>2026-04-23T15:54:34.911Z</time></trkpt><trkpt lat="31.4485217" lon="-5.3412667"><ele>1145.0</ele><time>2026-04-23T15:54:35.91Z</time></trkpt><trkpt lat="31.4486183" lon="-5.3414083"><ele>1145.0</ele><time>2026-04-23T15:54:36.911Z</time></trkpt><trkpt lat="31.44872" lon="-5.34156"><ele>1145.0</ele><time>2026-04-23T15:54:37.911Z</time></trkpt><trkpt lat="31.44882" lon="-5.3417217"><ele>1145.0</ele><time>2026-04-23T15:54:38.911Z</time></trkpt><trkpt lat="31.448935" lon="-5.341885"><ele>1145.0</ele><time>2026-04-23T15:54:39.91Z</time></trkpt><trkpt lat="31.4490533" lon="-5.3420533"><ele>1145.6666666666667</ele><time>2026-04-23T15:54:40.911Z</time></trkpt><trkpt lat="31.449175" lon="-5.3422267"><ele>1146.3333333333333</ele><time>2026-04-23T15:54:41.911Z</time></trkpt><trkpt lat="31.4492917" lon="-5.3424017"><ele>1147.0</ele><time>2026-04-23T15:54:42.91Z</time></trkpt><trkpt lat="31.44941" lon="-5.3425783"><ele>1147.0</ele><time>2026-04-23T15:54:43.911Z</time></trkpt><trkpt lat="31.4495367" lon="-5.3427583"><ele>1147.0</ele><time>2026-04-23T15:54:44.91Z</time></trkpt><trkpt lat="31.449665" lon="-5.3429383"><ele>1147.0</ele><time>2026-04-23T15:54:45.911Z</time></trkpt><trkpt lat="31.44979" lon="-5.3431267"><ele>1147.6666666666665</ele><time>2026-04-23T15:54:46.911Z</time></trkpt><trkpt lat="31.449915" lon="-5.3433217"><ele>1148.3333333333333</ele><time>2026-04-23T15:54:47.911Z</time></trkpt><trkpt lat="31.4500467" lon="-5.3435167"><ele>1149.0</ele><time>2026-04-23T15:54:48.911Z</time></trkpt><trkpt lat="31.4501817" lon="-5.343715"><ele>1148.6666666666667</ele><time>2026-04-23T15:54:49.911Z</time></trkpt><trkpt lat="31.4503167" lon="-5.3439167"><ele>1148.3333333333335</ele><time>2026-04-23T15:54:50.911Z</time></trkpt><trkpt lat="31.450455" lon="-5.344125"><ele>1148.0</ele><time>2026-04-23T15:54:51.91Z</time></trkpt><trkpt lat="31.450595" lon="-5.344325"><ele>1148.0</ele><time>2026-04-23T15:54:52.91Z</time></trkpt><trkpt lat="31.4507417" lon="-5.344525"><ele>1148.0</ele><time>2026-04-23T15:54:53.911Z</time></trkpt><trkpt lat="31.4508833" lon="-5.34473"><ele>1149.0</ele><time>2026-04-23T15:54:54.91Z</time></trkpt><trkpt lat="31.4510183" lon="-5.3449283"><ele>1150.0</ele><time>2026-04-23T15:54:55.911Z</time></trkpt><trkpt lat="31.4511533" lon="-5.3451233"><ele>1151.0</ele><time>2026-04-23T15:54:56.911Z</time></trkpt><trkpt lat="31.4512883" lon="-5.3453233"><ele>1150.6666666666667</ele><time>2026-04-23T15:54:57.911Z</time></trkpt><trkpt lat="31.4514233" lon="-5.345525"><ele>1150.3333333333333</ele><time>2026-04-23T15:54:58.911Z</time></trkpt><trkpt lat="31.4515533" lon="-5.3457367"><ele>1150.0</ele><time>2026-04-23T15:54:59.911Z</time></trkpt><trkpt lat="31.4516767" lon="-5.34595"><ele>1150.0</ele><time>2026-04-23T15:55:00.911Z</time></trkpt><trkpt lat="31.4518" lon="-5.346165"><ele>1150.0</ele><time>2026-04-23T15:55:01.91Z</time></trkpt><trkpt lat="31.45192" lon="-5.346385"><ele>1150.0</ele><time>2026-04-23T15:55:02.911Z</time></trkpt><trkpt lat="31.4520367" lon="-5.346605"><ele>1149.6666666666665</ele><time>2026-04-23T15:55:03.91Z</time></trkpt><trkpt lat="31.4521483" lon="-5.3468267"><ele>1149.3333333333333</ele><time>2026-04-23T15:55:04.91Z</time></trkpt><trkpt lat="31.452255" lon="-5.347055"><ele>1149.0</ele><time>2026-04-23T15:55:05.911Z</time></trkpt><trkpt lat="31.4523567" lon="-5.3472867"><ele>1148.3333333333333</ele><time>2026-04-23T15:55:06.91Z</time></trkpt><trkpt lat="31.4524533" lon="-5.3475217"><ele>1147.6666666666665</ele><time>2026-04-23T15:55:07.911Z</time></trkpt><trkpt lat="31.452545" lon="-5.347755"><ele>1147.0</ele><time>2026-04-23T15:55:08.911Z</time></trkpt><trkpt lat="31.4526333" lon="-5.3479933"><ele>1147.0</ele><time>2026-04-23T15:55:09.91Z</time></trkpt><trkpt lat="31.452715" lon="-5.3482367"><ele>1147.0</ele><time>2026-04-23T15:55:10.911Z</time></trkpt><trkpt lat="31.4527967" lon="-5.3484833"><ele>1147.0</ele><time>2026-04-23T15:55:11.911Z</time></trkpt><trkpt lat="31.4528733" lon="-5.3487333"><ele>1147.0</ele><time>2026-04-23T15:55:12.911Z</time></trkpt><trkpt lat="31.4529467" lon="-5.34899"><ele>1147.0</ele><time>2026-04-23T15:55:13.911Z</time></trkpt><trkpt lat="31.4530133" lon="-5.349245"><ele>1147.5</ele><time>2026-04-23T15:55:14.911Z</time></trkpt><trkpt lat="31.453075" lon="-5.349505"><ele>1148.0</ele><time>2026-04-23T15:55:15.911Z</time></trkpt><trkpt lat="31.453135" lon="-5.3497617"><ele>1148.5</ele><time>2026-04-23T15:55:16.911Z</time></trkpt><trkpt lat="31.4531883" lon="-5.3500217"><ele>1149.0</ele><time>2026-04-23T15:55:17.911Z</time></trkpt><trkpt lat="31.4532383" lon="-5.3502833"><ele>1148.5</ele><time>2026-04-23T15:55:18.911Z</time></trkpt><trkpt lat="31.4532883" lon="-5.350545"><ele>1148.0</ele><time>2026-04-23T15:55:19.911Z</time></trkpt><trkpt lat="31.4533417" lon="-5.3508033"><ele>1148.0</ele><time>2026-04-23T15:55:20.911Z</time></trkpt><trkpt lat="31.4533867" lon="-5.35106"><ele>1148.0</ele><time>2026-04-23T15:55:21.911Z</time></trkpt><trkpt lat="31.4534367" lon="-5.3513183"><ele>1148.0</ele><time>2026-04-23T15:55:22.91Z</time></trkpt><trkpt lat="31.45349" lon="-5.3515767"><ele>1147.5</ele><time>2026-04-23T15:55:23.911Z</time></trkpt><trkpt lat="31.453545" lon="-5.3518333"><ele>1147.0</ele><time>2026-04-23T15:55:24.911Z</time></trkpt><trkpt lat="31.4536" lon="-5.3520933"><ele>1147.0</ele><time>2026-04-23T15:55:25.911Z</time></trkpt><trkpt lat="31.4536567" lon="-5.3523517"><ele>1147.0</ele><time>2026-04-23T15:55:26.911Z</time></trkpt><trkpt lat="31.453705" lon="-5.3526083"><ele>1147.0</ele><time>2026-04-23T15:55:27.911Z</time></trkpt><trkpt lat="31.4537533" lon="-5.3528683"><ele>1147.0</ele><time>2026-04-23T15:55:28.91Z</time></trkpt><trkpt lat="31.4538083" lon="-5.353125"><ele>1148.0</ele><time>2026-04-23T15:55:29.911Z</time></trkpt><trkpt lat="31.4538617" lon="-5.3533883"><ele>1149.0</ele><time>2026-04-23T15:55:30.911Z</time></trkpt><trkpt lat="31.4539167" lon="-5.35365"><ele>1149.5</ele><time>2026-04-23T15:55:31.911Z</time></trkpt><trkpt lat="31.4539733" lon="-5.3539117"><ele>1150.0</ele><time>2026-04-23T15:55:32.911Z</time></trkpt><trkpt lat="31.454025" lon="-5.3541717"><ele>1150.0</ele><time>2026-04-23T15:55:33.911Z</time></trkpt><trkpt lat="31.45408" lon="-5.3544333"><ele>1150.0</ele><time>2026-04-23T15:55:34.911Z</time></trkpt><trkpt lat="31.4541317" lon="-5.3546933"><ele>1149.5</ele><time>2026-04-23T15:55:35.911Z</time></trkpt><trkpt lat="31.4541817" lon="-5.3549533"><ele>1149.0</ele><time>2026-04-23T15:55:36.911Z</time></trkpt><trkpt lat="31.4542333" lon="-5.3552117"><ele>1149.0</ele><time>2026-04-23T15:55:37.911Z</time></trkpt><trkpt lat="31.4542833" lon="-5.3554717"><ele>1149.0</ele><time>2026-04-23T15:55:38.911Z</time></trkpt><trkpt lat="31.454335" lon="-5.3557333"><ele>1148.5</ele><time>2026-04-23T15:55:39.91Z</time></trkpt><trkpt lat="31.454385" lon="-5.355995"><ele>1148.0</ele><time>2026-04-23T15:55:40.911Z</time></trkpt><trkpt lat="31.4544417" lon="-5.3562533"><ele>1147.0</ele><time>2026-04-23T15:55:41.91Z</time></trkpt><trkpt lat="31.4544983" lon="-5.3565117"><ele>1146.0</ele><time>2026-04-23T15:55:42.911Z</time></trkpt><trkpt lat="31.45455" lon="-5.3567683"><ele>1146.0</ele><time>2026-04-23T15:55:43.911Z</time></trkpt><trkpt lat="31.4546017" lon="-5.357025"><ele>1146.0</ele><time>2026-04-23T15:55:44.911Z</time></trkpt><trkpt lat="31.454655" lon="-5.357285"><ele>1145.5</ele><time>2026-04-23T15:55:45.911Z</time></trkpt><trkpt lat="31.4547083" lon="-5.3575433"><ele>1145.0</ele><time>2026-04-23T15:55:46.911Z</time></trkpt><trkpt lat="31.4547617" lon="-5.3578017"><ele>1144.5</ele><time>2026-04-23T15:55:47.911Z</time></trkpt><trkpt lat="31.45481" lon="-5.35806"><ele>1144.0</ele><time>2026-04-23T15:55:48.911Z</time></trkpt><trkpt lat="31.4548633" lon="-5.3583167"><ele>1144.0</ele><time>2026-04-23T15:55:49.911Z</time></trkpt><trkpt lat="31.4549133" lon="-5.3585717"><ele>1144.0</ele><time>2026-04-23T15:55:50.91Z</time></trkpt><trkpt lat="31.4549617" lon="-5.3588283"><ele>1144.0</ele><time>2026-04-23T15:55:51.91Z</time></trkpt><trkpt lat="31.45501" lon="-5.3590617"><ele>1144.6666666666665</ele><time>2026-04-23T15:55:52.91Z</time></trkpt><trkpt lat="31.4550517" lon="-5.3592767"><ele>1145.3333333333333</ele><time>2026-04-23T15:55:53.909Z</time></trkpt><trkpt lat="31.4550883" lon="-5.359465"><ele>1146.0</ele><time>2026-04-23T15:55:54.909Z</time></trkpt><trkpt lat="31.4551233" lon="-5.359625"><ele>1146.0</ele><time>2026-04-23T15:55:55.91Z</time></trkpt><trkpt lat="31.45515" lon="-5.3597633"><ele>1146.0</ele><time>2026-04-23T15:55:56.91Z</time></trkpt><trkpt lat="31.45517" lon="-5.35988"><ele>1146.0</ele><time>2026-04-23T15:55:57.909Z</time></trkpt><trkpt lat="31.45518" lon="-5.3599733"><ele>1146.0</ele><time>2026-04-23T15:55:58.91Z</time></trkpt><trkpt lat="31.4551717" lon="-5.3600833"><ele>1146.0</ele><time>2026-04-23T15:56:00.91Z</time></trkpt><trkpt lat="31.455105" lon="-5.3600783"><ele>1146.0</ele><time>2026-04-23T15:56:03.909Z</time></trkpt><trkpt lat="31.45503" lon="-5.3600017"><ele>1146.0</ele><time>2026-04-23T15:56:14.909Z</time></trkpt><trkpt lat="31.4550767" lon="-5.3599483"><ele>1146.0</ele><time>2026-04-23T15:56:17.91Z</time></trkpt><trkpt lat="31.455165" lon="-5.3600117"><ele>1146.0</ele><time>2026-04-23T15:56:20.91Z</time></trkpt><trkpt lat="31.4551867" lon="-5.3600833"><ele>1146.0</ele><time>2026-04-23T15:56:21.91Z</time></trkpt><trkpt lat="31.4552083" lon="-5.3601733"><ele>1146.0</ele><time>2026-04-23T15:56:22.91Z</time></trkpt><trkpt lat="31.455225" lon="-5.3602817"><ele>1146.0</ele><time>2026-04-23T15:56:23.909Z</time></trkpt><trkpt lat="31.4552383" lon="-5.360415"><ele>1146.0</ele><time>2026-04-23T15:56:24.91Z</time></trkpt><trkpt lat="31.4552483" lon="-5.360565"><ele>1146.0</ele><time>2026-04-23T15:56:25.909Z</time></trkpt><trkpt lat="31.455255" lon="-5.3607283"><ele>1146.0</ele><time>2026-04-23T15:56:26.91Z</time></trkpt><trkpt lat="31.4552517" lon="-5.3609117"><ele>1145.6666666666667</ele><time>2026-04-23T15:56:27.909Z</time></trkpt><trkpt lat="31.4552567" lon="-5.3611067"><ele>1145.3333333333335</ele><time>2026-04-23T15:56:28.909Z</time></trkpt><trkpt lat="31.4552633" lon="-5.3613217"><ele>1145.0</ele><time>2026-04-23T15:56:29.909Z</time></trkpt><trkpt lat="31.455265" lon="-5.3615417"><ele>1145.0</ele><time>2026-04-23T15:56:30.91Z</time></trkpt><trkpt lat="31.4552667" lon="-5.3617617"><ele>1145.0</ele><time>2026-04-23T15:56:31.91Z</time></trkpt><trkpt lat="31.455265" lon="-5.3619833"><ele>1145.0</ele><time>2026-04-23T15:56:32.91Z</time></trkpt><trkpt lat="31.4552633" lon="-5.3622083"><ele>1145.0</ele><time>2026-04-23T15:56:33.91Z</time></trkpt><trkpt lat="31.4552567" lon="-5.3624367"><ele>1145.0</ele><time>2026-04-23T15:56:34.91Z</time></trkpt><trkpt lat="31.4552483" lon="-5.3626733"><ele>1145.0</ele><time>2026-04-23T15:56:35.909Z</time></trkpt><trkpt lat="31.455245" lon="-5.36291"><ele>1145.6666666666667</ele><time>2026-04-23T15:56:36.909Z</time></trkpt><trkpt lat="31.45524" lon="-5.3631517"><ele>1146.3333333333333</ele><time>2026-04-23T15:56:37.91Z</time></trkpt><trkpt lat="31.45524" lon="-5.3633983"><ele>1147.0</ele><time>2026-04-23T15:56:38.91Z</time></trkpt><trkpt lat="31.4552483" lon="-5.3636483"><ele>1147.0</ele><time>2026-04-23T15:56:39.91Z</time></trkpt><trkpt lat="31.4552583" lon="-5.3639083"><ele>1147.0</ele><time>2026-04-23T15:56:40.91Z</time></trkpt><trkpt lat="31.4552717" lon="-5.364165"><ele>1147.0</ele><time>2026-04-23T15:56:41.91Z</time></trkpt><trkpt lat="31.4552867" lon="-5.3644117"><ele>1147.0</ele><time>2026-04-23T15:56:42.91Z</time></trkpt><trkpt lat="31.45531" lon="-5.3646567"><ele>1147.0</ele><time>2026-04-23T15:56:43.91Z</time></trkpt><trkpt lat="31.4553383" lon="-5.3648967"><ele>1147.0</ele><time>2026-04-23T15:56:44.91Z</time></trkpt><trkpt lat="31.4553667" lon="-5.3651367"><ele>1147.6666666666665</ele><time>2026-04-23T15:56:45.91Z</time></trkpt><trkpt lat="31.4553983" lon="-5.365375"><ele>1148.3333333333333</ele><time>2026-04-23T15:56:46.909Z</time></trkpt><trkpt lat="31.455435" lon="-5.365615"><ele>1149.0</ele><time>2026-04-23T15:56:47.909Z</time></trkpt><trkpt lat="31.4554767" lon="-5.3658483"><ele>1149.0</ele><time>2026-04-23T15:56:48.909Z</time></trkpt><trkpt lat="31.45552" lon="-5.36607"><ele>1149.0</ele><time>2026-04-23T15:56:49.91Z</time></trkpt><trkpt lat="31.4555733" lon="-5.366285"><ele>1149.0</ele><time>2026-04-23T15:56:50.91Z</time></trkpt><trkpt lat="31.4556267" lon="-5.3665"><ele>1148.6666666666667</ele><time>2026-04-23T15:56:51.91Z</time></trkpt><trkpt lat="31.4556783" lon="-5.3667083"><ele>1148.3333333333335</ele><time>2026-04-23T15:56:52.91Z</time></trkpt><trkpt lat="31.4557333" lon="-5.3669117"><ele>1148.0</ele><time>2026-04-23T15:56:53.909Z</time></trkpt><trkpt lat="31.4557933" lon="-5.3671133"><ele>1148.3333333333335</ele><time>2026-04-23T15:56:54.91Z</time></trkpt><trkpt lat="31.455855" lon="-5.3673133"><ele>1148.6666666666667</ele><time>2026-04-23T15:56:55.91Z</time></trkpt><trkpt lat="31.4559217" lon="-5.3675067"><ele>1149.0</ele><time>2026-04-23T15:56:56.91Z</time></trkpt><trkpt lat="31.4559867" lon="-5.3676867"><ele>1149.0</ele><time>2026-04-23T15:56:57.91Z</time></trkpt><trkpt lat="31.456055" lon="-5.367865"><ele>1149.0</ele><time>2026-04-23T15:56:58.91Z</time></trkpt><trkpt lat="31.4561233" lon="-5.3680467"><ele>1149.0</ele><time>2026-04-23T15:56:59.91Z</time></trkpt><trkpt lat="31.4561983" lon="-5.3682267"><ele>1149.3333333333333</ele><time>2026-04-23T15:57:00.91Z</time></trkpt><trkpt lat="31.456275" lon="-5.368405"><ele>1149.6666666666665</ele><time>2026-04-23T15:57:01.91Z</time></trkpt><trkpt lat="31.4563517" lon="-5.3685833"><ele>1150.0</ele><time>2026-04-23T15:57:02.91Z</time></trkpt><trkpt lat="31.4564233" lon="-5.36876"><ele>1150.25</ele><time>2026-04-23T15:57:03.91Z</time></trkpt><trkpt lat="31.4565" lon="-5.3689317"><ele>1150.5</ele><time>2026-04-23T15:57:04.91Z</time></trkpt><trkpt lat="31.4565733" lon="-5.3690883"><ele>1150.75</ele><time>2026-04-23T15:57:05.91Z</time></trkpt><trkpt lat="31.45663" lon="-5.3692167"><ele>1151.0</ele><time>2026-04-23T15:57:06.91Z</time></trkpt><trkpt lat="31.4566767" lon="-5.369315"><ele>1151.0</ele><time>2026-04-23T15:57:07.91Z</time></trkpt><trkpt lat="31.4567183" lon="-5.3693867"><ele>1151.0</ele><time>2026-04-23T15:57:08.91Z</time></trkpt><trkpt lat="31.4567767" lon="-5.3694667"><ele>1151.0</ele><time>2026-04-23T15:57:10.909Z</time></trkpt><trkpt lat="31.4568633" lon="-5.3694633"><ele>1151.0</ele><time>2026-04-23T15:57:13.91Z</time></trkpt><trkpt lat="31.4568867" lon="-5.3693683"><ele>1151.0</ele><time>2026-04-23T15:57:16.91Z</time></trkpt><trkpt lat="31.4568383" lon="-5.3693117"><ele>1151.0</ele><time>2026-04-23T15:57:18.909Z</time></trkpt><trkpt lat="31.45677" lon="-5.3693167"><ele>1151.0</ele><time>2026-04-23T16:15:28.906Z</time></trkpt><trkpt lat="31.45674" lon="-5.36939"><ele>1151.0</ele><time>2026-04-23T16:15:31.906Z</time></trkpt><trkpt lat="31.4567483" lon="-5.36951"><ele>1151.0</ele><time>2026-04-23T16:15:33.906Z</time></trkpt><trkpt lat="31.4567817" lon="-5.3695967"><ele>1151.0</ele><time>2026-04-23T16:15:34.906Z</time></trkpt><trkpt lat="31.45683" lon="-5.3697"><ele>1151.0</ele><time>2026-04-23T16:15:35.905Z</time></trkpt><trkpt lat="31.45689" lon="-5.3698167"><ele>1151.0</ele><time>2026-04-23T16:15:36.906Z</time></trkpt><trkpt lat="31.4569483" lon="-5.3699567"><ele>1151.0</ele><time>2026-04-23T16:15:37.905Z</time></trkpt><trkpt lat="31.4570217" lon="-5.37011"><ele>1151.0</ele><time>2026-04-23T16:15:38.906Z</time></trkpt><trkpt lat="31.4570917" lon="-5.37028"><ele>1151.0</ele><time>2026-04-23T16:15:39.906Z</time></trkpt><trkpt lat="31.4571717" lon="-5.370455"><ele>1151.3333333333335</ele><time>2026-04-23T16:15:40.906Z</time></trkpt><trkpt lat="31.4572567" lon="-5.370645"><ele>1151.6666666666667</ele><time>2026-04-23T16:15:41.905Z</time></trkpt><trkpt lat="31.457345" lon="-5.370845"><ele>1152.0</ele><time>2026-04-23T16:15:42.905Z</time></trkpt><trkpt lat="31.4574317" lon="-5.3710567"><ele>1152.0</ele><time>2026-04-23T16:15:43.905Z</time></trkpt><trkpt lat="31.4575283" lon="-5.3712717"><ele>1152.0</ele><time>2026-04-23T16:15:44.906Z</time></trkpt><trkpt lat="31.45762" lon="-5.3714883"><ele>1152.0</ele><time>2026-04-23T16:15:45.906Z</time></trkpt><trkpt lat="31.4577133" lon="-5.3716967"><ele>1152.6666666666667</ele><time>2026-04-23T16:15:46.906Z</time></trkpt><trkpt lat="31.4578" lon="-5.3718933"><ele>1153.3333333333335</ele><time>2026-04-23T16:15:47.906Z</time></trkpt><trkpt lat="31.4578833" lon="-5.3720883"><ele>1154.0</ele><time>2026-04-23T16:15:48.906Z</time></trkpt><trkpt lat="31.4579717" lon="-5.372285"><ele>1154.3333333333335</ele><time>2026-04-23T16:15:49.906Z</time></trkpt><trkpt lat="31.4580617" lon="-5.3724833"><ele>1154.6666666666667</ele><time>2026-04-23T16:15:50.905Z</time></trkpt><trkpt lat="31.4581517" lon="-5.372685"><ele>1155.0</ele><time>2026-04-23T16:15:51.906Z</time></trkpt><trkpt lat="31.45824" lon="-5.3728917"><ele>1155.0</ele><time>2026-04-23T16:15:52.906Z</time></trkpt><trkpt lat="31.4583283" lon="-5.3731083"><ele>1155.0</ele><time>2026-04-23T16:15:53.906Z</time></trkpt><trkpt lat="31.45842" lon="-5.3733183"><ele>1155.0</ele><time>2026-04-23T16:15:54.906Z</time></trkpt><trkpt lat="31.4585167" lon="-5.3735333"><ele>1155.0</ele><time>2026-04-23T16:15:55.905Z</time></trkpt><trkpt lat="31.4586133" lon="-5.3737567"><ele>1155.0</ele><time>2026-04-23T16:15:56.906Z</time></trkpt><trkpt lat="31.4587133" lon="-5.3739767"><ele>1155.0</ele><time>2026-04-23T16:15:57.906Z</time></trkpt><trkpt lat="31.458815" lon="-5.3742"><ele>1155.6666666666667</ele><time>2026-04-23T16:15:58.906Z</time></trkpt><trkpt lat="31.458915" lon="-5.374425"><ele>1156.3333333333335</ele><time>2026-04-23T16:15:59.906Z</time></trkpt><trkpt lat="31.4590133" lon="-5.3746517"><ele>1157.0</ele><time>2026-04-23T16:16:00.906Z</time></trkpt><trkpt lat="31.4591117" lon="-5.37488"><ele>1157.0</ele><time>2026-04-23T16:16:01.906Z</time></trkpt><trkpt lat="31.45921" lon="-5.3751117"><ele>1157.0</ele><time>2026-04-23T16:16:02.905Z</time></trkpt><trkpt lat="31.4593067" lon="-5.375345"><ele>1157.0</ele><time>2026-04-23T16:16:03.906Z</time></trkpt><trkpt lat="31.4594117" lon="-5.3755767"><ele>1157.0</ele><time>2026-04-23T16:16:04.906Z</time></trkpt><trkpt lat="31.4595133" lon="-5.3758067"><ele>1157.0</ele><time>2026-04-23T16:16:05.905Z</time></trkpt><trkpt lat="31.4596167" lon="-5.37604"><ele>1157.0</ele><time>2026-04-23T16:16:06.906Z</time></trkpt><trkpt lat="31.4597183" lon="-5.3762733"><ele>1157.6666666666667</ele><time>2026-04-23T16:16:07.906Z</time></trkpt><trkpt lat="31.4598217" lon="-5.3765067"><ele>1158.3333333333333</ele><time>2026-04-23T16:16:08.905Z</time></trkpt><trkpt lat="31.4599217" lon="-5.3767367"><ele>1159.0</ele><time>2026-04-23T16:16:09.905Z</time></trkpt><trkpt lat="31.4600167" lon="-5.3769667"><ele>1159.3333333333333</ele><time>2026-04-23T16:16:10.905Z</time></trkpt><trkpt lat="31.4601083" lon="-5.3771867"><ele>1159.6666666666667</ele><time>2026-04-23T16:16:11.905Z</time></trkpt><trkpt lat="31.460205" lon="-5.377405"><ele>1160.0</ele><time>2026-04-23T16:16:12.906Z</time></trkpt><trkpt lat="31.460305" lon="-5.377625"><ele>1160.0</ele><time>2026-04-23T16:16:13.906Z</time></trkpt><trkpt lat="31.4604017" lon="-5.37784"><ele>1160.0</ele><time>2026-04-23T16:16:14.906Z</time></trkpt><trkpt lat="31.460495" lon="-5.37806"><ele>1160.0</ele><time>2026-04-23T16:16:15.906Z</time></trkpt><trkpt lat="31.4605967" lon="-5.37828"><ele>1160.0</ele><time>2026-04-23T16:16:16.906Z</time></trkpt><trkpt lat="31.460695" lon="-5.3784983"><ele>1160.0</ele><time>2026-04-23T16:16:17.906Z</time></trkpt><trkpt lat="31.4607983" lon="-5.3787167"><ele>1160.0</ele><time>2026-04-23T16:16:18.906Z</time></trkpt><trkpt lat="31.4608967" lon="-5.378935"><ele>1160.0</ele><time>2026-04-23T16:16:19.906Z</time></trkpt><trkpt lat="31.4609933" lon="-5.379155"><ele>1160.0</ele><time>2026-04-23T16:16:20.906Z</time></trkpt><trkpt lat="31.4610933" lon="-5.3793733"><ele>1160.0</ele><time>2026-04-23T16:16:21.906Z</time></trkpt><trkpt lat="31.4611917" lon="-5.3795817"><ele>1160.0</ele><time>2026-04-23T16:16:22.906Z</time></trkpt><trkpt lat="31.46129" lon="-5.379785"><ele>1160.0</ele><time>2026-04-23T16:16:23.906Z</time></trkpt><trkpt lat="31.4613817" lon="-5.3799883"><ele>1160.0</ele><time>2026-04-23T16:16:24.906Z</time></trkpt><trkpt lat="31.4614733" lon="-5.3801833"><ele>1160.0</ele><time>2026-04-23T16:16:25.905Z</time></trkpt><trkpt lat="31.4615583" lon="-5.38037"><ele>1160.0</ele><time>2026-04-23T16:16:26.905Z</time></trkpt><trkpt lat="31.4616417" lon="-5.3805517"><ele>1160.0</ele><time>2026-04-23T16:16:27.905Z</time></trkpt><trkpt lat="31.4617233" lon="-5.3807383"><ele>1159.3333333333335</ele><time>2026-04-23T16:16:28.905Z</time></trkpt><trkpt lat="31.4618033" lon="-5.38093"><ele>1158.6666666666667</ele><time>2026-04-23T16:16:29.906Z</time></trkpt><trkpt lat="31.461885" lon="-5.3811267"><ele>1158.0</ele><time>2026-04-23T16:16:30.906Z</time></trkpt><trkpt lat="31.4619733" lon="-5.3813233"><ele>1158.0</ele><time>2026-04-23T16:16:31.906Z</time></trkpt><trkpt lat="31.46207" lon="-5.3815283"><ele>1158.0</ele><time>2026-04-23T16:16:32.906Z</time></trkpt><trkpt lat="31.4621733" lon="-5.381735"><ele>1158.0</ele><time>2026-04-23T16:16:33.905Z</time></trkpt><trkpt lat="31.4622783" lon="-5.381945"><ele>1158.0</ele><time>2026-04-23T16:16:34.906Z</time></trkpt><trkpt lat="31.4623767" lon="-5.3821533"><ele>1158.0</ele><time>2026-04-23T16:16:35.906Z</time></trkpt><trkpt lat="31.46247" lon="-5.3823483"><ele>1158.0</ele><time>2026-04-23T16:16:36.905Z</time></trkpt><trkpt lat="31.4625567" lon="-5.3825367"><ele>1158.6666666666667</ele><time>2026-04-23T16:16:37.906Z</time></trkpt><trkpt lat="31.4626383" lon="-5.3827183"><ele>1159.3333333333335</ele><time>2026-04-23T16:16:38.906Z</time></trkpt><trkpt lat="31.4627233" lon="-5.3828983"><ele>1160.0</ele><time>2026-04-23T16:16:39.906Z</time></trkpt><trkpt lat="31.462805" lon="-5.3830883"><ele>1160.3333333333335</ele><time>2026-04-23T16:16:40.906Z</time></trkpt><trkpt lat="31.46289" lon="-5.3832783"><ele>1160.6666666666667</ele><time>2026-04-23T16:16:41.906Z</time></trkpt><trkpt lat="31.46298" lon="-5.38347"><ele>1161.0</ele><time>2026-04-23T16:16:42.905Z</time></trkpt><trkpt lat="31.4630733" lon="-5.3836683"><ele>1161.6666666666667</ele><time>2026-04-23T16:16:43.905Z</time></trkpt><trkpt lat="31.4631683" lon="-5.3838583"><ele>1162.3333333333335</ele><time>2026-04-23T16:16:44.905Z</time></trkpt><trkpt lat="31.46325" lon="-5.3840467"><ele>1163.0</ele><time>2026-04-23T16:16:45.906Z</time></trkpt><trkpt lat="31.4633317" lon="-5.384225"><ele>1163.0</ele><time>2026-04-23T16:16:46.905Z</time></trkpt><trkpt lat="31.463415" lon="-5.3844"><ele>1163.0</ele><time>2026-04-23T16:16:47.905Z</time></trkpt><trkpt lat="31.4634983" lon="-5.384575"><ele>1163.0</ele><time>2026-04-23T16:16:48.906Z</time></trkpt><trkpt lat="31.463575" lon="-5.38475"><ele>1163.3333333333335</ele><time>2026-04-23T16:16:49.906Z</time></trkpt><trkpt lat="31.4636533" lon="-5.3849217"><ele>1163.6666666666667</ele><time>2026-04-23T16:16:50.905Z</time></trkpt><trkpt lat="31.4637317" lon="-5.3850967"><ele>1164.0</ele><time>2026-04-23T16:16:51.906Z</time></trkpt><trkpt lat="31.4638083" lon="-5.3852617"><ele>1164.0</ele><time>2026-04-23T16:16:52.906Z</time></trkpt><trkpt lat="31.463885" lon="-5.3854283"><ele>1164.0</ele><time>2026-04-23T16:16:53.906Z</time></trkpt><trkpt lat="31.46396" lon="-5.3855933"><ele>1164.0</ele><time>2026-04-23T16:16:54.906Z</time></trkpt><trkpt lat="31.4640333" lon="-5.3857483"><ele>1164.0</ele><time>2026-04-23T16:16:55.905Z</time></trkpt><trkpt lat="31.4641117" lon="-5.3859"><ele>1164.0</ele><time>2026-04-23T16:16:56.906Z</time></trkpt><trkpt lat="31.4641833" lon="-5.3860533"><ele>1164.0</ele><time>2026-04-23T16:16:57.906Z</time></trkpt><trkpt lat="31.4642567" lon="-5.3862083"><ele>1164.3333333333333</ele><time>2026-04-23T16:16:58.906Z</time></trkpt><trkpt lat="31.46433" lon="-5.3863767"><ele>1164.6666666666665</ele><time>2026-04-23T16:16:59.905Z</time></trkpt><trkpt lat="31.464405" lon="-5.38655"><ele>1165.0</ele><time>2026-04-23T16:17:00.906Z</time></trkpt><trkpt lat="31.46448" lon="-5.3867183"><ele>1165.0</ele><time>2026-04-23T16:17:01.906Z</time></trkpt><trkpt lat="31.4645583" lon="-5.3868983"><ele>1165.0</ele><time>2026-04-23T16:17:02.906Z</time></trkpt><trkpt lat="31.4646383" lon="-5.38708"><ele>1165.0</ele><time>2026-04-23T16:17:03.906Z</time></trkpt><trkpt lat="31.4647167" lon="-5.38726"><ele>1165.6666666666665</ele><time>2026-04-23T16:17:04.905Z</time></trkpt><trkpt lat="31.4648" lon="-5.3874433"><ele>1166.3333333333333</ele><time>2026-04-23T16:17:05.906Z</time></trkpt><trkpt lat="31.464885" lon="-5.387625"><ele>1167.0</ele><time>2026-04-23T16:17:06.906Z</time></trkpt><trkpt lat="31.464975" lon="-5.387815"><ele>1167.0</ele><time>2026-04-23T16:17:07.906Z</time></trkpt><trkpt lat="31.465065" lon="-5.3880067"><ele>1167.0</ele><time>2026-04-23T16:17:08.906Z</time></trkpt><trkpt lat="31.465155" lon="-5.3882017"><ele>1167.0</ele><time>2026-04-23T16:17:09.906Z</time></trkpt><trkpt lat="31.465245" lon="-5.38839"><ele>1167.0</ele><time>2026-04-23T16:17:10.905Z</time></trkpt><trkpt lat="31.4653317" lon="-5.3885767"><ele>1167.0</ele><time>2026-04-23T16:17:11.906Z</time></trkpt><trkpt lat="31.4654167" lon="-5.3887517"><ele>1167.0</ele><time>2026-04-23T16:17:12.905Z</time></trkpt><trkpt lat="31.4654933" lon="-5.3889283"><ele>1167.0</ele><time>2026-04-23T16:17:13.905Z</time></trkpt><trkpt lat="31.4655733" lon="-5.3890933"><ele>1167.0</ele><time>2026-04-23T16:17:14.906Z</time></trkpt><trkpt lat="31.4656517" lon="-5.3892667"><ele>1167.0</ele><time>2026-04-23T16:17:15.906Z</time></trkpt><trkpt lat="31.46573" lon="-5.3894367"><ele>1167.0</ele><time>2026-04-23T16:17:16.906Z</time></trkpt><trkpt lat="31.4658083" lon="-5.38961"><ele>1167.0</ele><time>2026-04-23T16:17:17.905Z</time></trkpt><trkpt lat="31.4658867" lon="-5.3897917"><ele>1167.0</ele><time>2026-04-23T16:17:18.906Z</time></trkpt><trkpt lat="31.46597" lon="-5.3899683"><ele>1167.3333333333333</ele><time>2026-04-23T16:17:19.906Z</time></trkpt><trkpt lat="31.46605" lon="-5.3901533"><ele>1167.6666666666665</ele><time>2026-04-23T16:17:20.906Z</time></trkpt><trkpt lat="31.4661383" lon="-5.39033"><ele>1168.0</ele><time>2026-04-23T16:17:21.906Z</time></trkpt><trkpt lat="31.46622" lon="-5.3904983"><ele>1168.3333333333333</ele><time>2026-04-23T16:17:22.906Z</time></trkpt><trkpt lat="31.466295" lon="-5.3906617"><ele>1168.6666666666667</ele><time>2026-04-23T16:17:23.905Z</time></trkpt><trkpt lat="31.466365" lon="-5.3908183"><ele>1169.0</ele><time>2026-04-23T16:17:24.905Z</time></trkpt><trkpt lat="31.466435" lon="-5.3909683"><ele>1169.0</ele><time>2026-04-23T16:17:25.906Z</time></trkpt><trkpt lat="31.4665017" lon="-5.3911133"><ele>1169.0</ele><time>2026-04-23T16:17:26.906Z</time></trkpt><trkpt lat="31.4665667" lon="-5.3912717"><ele>1169.0</ele><time>2026-04-23T16:17:27.906Z</time></trkpt><trkpt lat="31.466645" lon="-5.3914267"><ele>1169.0</ele><time>2026-04-23T16:17:28.906Z</time></trkpt><trkpt lat="31.4667233" lon="-5.39159"><ele>1168.6666666666667</ele><time>2026-04-23T16:17:29.906Z</time></trkpt><trkpt lat="31.4667967" lon="-5.3917533"><ele>1168.3333333333333</ele><time>2026-04-23T16:17:30.906Z</time></trkpt><trkpt lat="31.4668683" lon="-5.3919117"><ele>1168.0</ele><time>2026-04-23T16:17:31.905Z</time></trkpt><trkpt lat="31.466935" lon="-5.3920667"><ele>1168.0</ele><time>2026-04-23T16:17:32.906Z</time></trkpt><trkpt lat="31.467" lon="-5.392225"><ele>1168.0</ele><time>2026-04-23T16:17:33.905Z</time></trkpt><trkpt lat="31.467065" lon="-5.3923833"><ele>1168.0</ele><time>2026-04-23T16:17:34.906Z</time></trkpt><trkpt lat="31.4671333" lon="-5.392535"><ele>1168.0</ele><time>2026-04-23T16:17:35.906Z</time></trkpt><trkpt lat="31.4672083" lon="-5.392695"><ele>1168.6666666666665</ele><time>2026-04-23T16:17:36.906Z</time></trkpt><trkpt lat="31.4672667" lon="-5.3928667"><ele>1169.3333333333333</ele><time>2026-04-23T16:17:37.906Z</time></trkpt><trkpt lat="31.4673383" lon="-5.3930417"><ele>1170.0</ele><time>2026-04-23T16:17:38.906Z</time></trkpt><trkpt lat="31.4674067" lon="-5.3932133"><ele>1170.0</ele><time>2026-04-23T16:17:39.906Z</time></trkpt><trkpt lat="31.4674717" lon="-5.393385"><ele>1170.0</ele><time>2026-04-23T16:17:40.906Z</time></trkpt><trkpt lat="31.467535" lon="-5.3935433"><ele>1170.0</ele><time>2026-04-23T16:17:41.905Z</time></trkpt><trkpt lat="31.4675967" lon="-5.3937017"><ele>1170.3333333333333</ele><time>2026-04-23T16:17:42.906Z</time></trkpt><trkpt lat="31.4676683" lon="-5.3938683"><ele>1170.6666666666665</ele><time>2026-04-23T16:17:43.906Z</time></trkpt><trkpt lat="31.467735" lon="-5.3940417"><ele>1171.0</ele><time>2026-04-23T16:17:44.906Z</time></trkpt><trkpt lat="31.467805" lon="-5.39423"><ele>1171.0</ele><time>2026-04-23T16:17:45.905Z</time></trkpt><trkpt lat="31.467885" lon="-5.3944233"><ele>1171.0</ele><time>2026-04-23T16:17:46.906Z</time></trkpt><trkpt lat="31.4679633" lon="-5.3946217"><ele>1171.0</ele><time>2026-04-23T16:17:47.906Z</time></trkpt><trkpt lat="31.4680483" lon="-5.3948367"><ele>1171.0</ele><time>2026-04-23T16:17:48.906Z</time></trkpt><trkpt lat="31.4681417" lon="-5.3950483"><ele>1171.0</ele><time>2026-04-23T16:17:49.906Z</time></trkpt><trkpt lat="31.4682283" lon="-5.3952667"><ele>1171.0</ele><time>2026-04-23T16:17:50.906Z</time></trkpt><trkpt lat="31.4683217" lon="-5.3954917"><ele>1171.3333333333333</ele><time>2026-04-23T16:17:51.906Z</time></trkpt><trkpt lat="31.4684133" lon="-5.3957217"><ele>1171.6666666666667</ele><time>2026-04-23T16:17:52.905Z</time></trkpt><trkpt lat="31.4684967" lon="-5.395955"><ele>1172.0</ele><time>2026-04-23T16:17:53.905Z</time></trkpt><trkpt lat="31.4685833" lon="-5.3961767"><ele>1171.6666666666667</ele><time>2026-04-23T16:17:54.906Z</time></trkpt><trkpt lat="31.4686667" lon="-5.39639"><ele>1171.3333333333333</ele><time>2026-04-23T16:17:55.906Z</time></trkpt><trkpt lat="31.4687517" lon="-5.396595"><ele>1171.0</ele><time>2026-04-23T16:17:56.906Z</time></trkpt><trkpt lat="31.4688317" lon="-5.3967967"><ele>1172.0</ele><time>2026-04-23T16:17:57.905Z</time></trkpt><trkpt lat="31.468905" lon="-5.397"><ele>1173.0</ele><time>2026-04-23T16:17:58.906Z</time></trkpt><trkpt lat="31.4689933" lon="-5.3971967"><ele>1174.0</ele><time>2026-04-23T16:17:59.905Z</time></trkpt><trkpt lat="31.4690783" lon="-5.3974017"><ele>1174.0</ele><time>2026-04-23T16:18:00.906Z</time></trkpt><trkpt lat="31.4691567" lon="-5.397605"><ele>1174.0</ele><time>2026-04-23T16:18:01.905Z</time></trkpt><trkpt lat="31.4692317" lon="-5.3978133"><ele>1174.0</ele><time>2026-04-23T16:18:02.906Z</time></trkpt><trkpt lat="31.4693133" lon="-5.398015"><ele>1174.0</ele><time>2026-04-23T16:18:03.906Z</time></trkpt><trkpt lat="31.4693933" lon="-5.3982183"><ele>1174.0</ele><time>2026-04-23T16:18:04.906Z</time></trkpt><trkpt lat="31.4694767" lon="-5.3984217"><ele>1174.0</ele><time>2026-04-23T16:18:05.906Z</time></trkpt><trkpt lat="31.46956" lon="-5.3986267"><ele>1174.0</ele><time>2026-04-23T16:18:06.906Z</time></trkpt><trkpt lat="31.4696367" lon="-5.3988317"><ele>1174.0</ele><time>2026-04-23T16:18:07.906Z</time></trkpt><trkpt lat="31.4697233" lon="-5.3990317"><ele>1174.0</ele><time>2026-04-23T16:18:08.906Z</time></trkpt><trkpt lat="31.4698033" lon="-5.3992383"><ele>1174.3333333333333</ele><time>2026-04-23T16:18:09.906Z</time></trkpt><trkpt lat="31.4698883" lon="-5.3994433"><ele>1174.6666666666667</ele><time>2026-04-23T16:18:10.905Z</time></trkpt><trkpt lat="31.4699667" lon="-5.399645"><ele>1175.0</ele><time>2026-04-23T16:18:11.906Z</time></trkpt><trkpt lat="31.47004" lon="-5.399835"><ele>1175.0</ele><time>2026-04-23T16:18:12.906Z</time></trkpt><trkpt lat="31.4701117" lon="-5.40001"><ele>1175.0</ele><time>2026-04-23T16:18:13.906Z</time></trkpt><trkpt lat="31.4701817" lon="-5.4001817"><ele>1175.0</ele><time>2026-04-23T16:18:14.906Z</time></trkpt><trkpt lat="31.470245" lon="-5.4003533"><ele>1175.3333333333335</ele><time>2026-04-23T16:18:15.906Z</time></trkpt><trkpt lat="31.470315" lon="-5.4005183"><ele>1175.6666666666667</ele><time>2026-04-23T16:18:16.906Z</time></trkpt><trkpt lat="31.4703783" lon="-5.4006883"><ele>1176.0</ele><time>2026-04-23T16:18:17.906Z</time></trkpt><trkpt lat="31.4704483" lon="-5.4008517"><ele>1176.3333333333333</ele><time>2026-04-23T16:18:18.906Z</time></trkpt><trkpt lat="31.4705133" lon="-5.4010167"><ele>1176.6666666666665</ele><time>2026-04-23T16:18:19.906Z</time></trkpt><trkpt lat="31.47058" lon="-5.401185"><ele>1177.0</ele><time>2026-04-23T16:18:20.905Z</time></trkpt><trkpt lat="31.4706467" lon="-5.4013583"><ele>1177.3333333333333</ele><time>2026-04-23T16:18:21.906Z</time></trkpt><trkpt lat="31.4707133" lon="-5.4015317"><ele>1177.6666666666667</ele><time>2026-04-23T16:18:22.906Z</time></trkpt><trkpt lat="31.4707833" lon="-5.4017"><ele>1178.0</ele><time>2026-04-23T16:18:23.905Z</time></trkpt><trkpt lat="31.4708517" lon="-5.4018733"><ele>1178.0</ele><time>2026-04-23T16:18:24.906Z</time></trkpt><trkpt lat="31.4709233" lon="-5.40205"><ele>1178.0</ele><time>2026-04-23T16:18:25.906Z</time></trkpt><trkpt lat="31.470995" lon="-5.40223"><ele>1178.0</ele><time>2026-04-23T16:18:26.906Z</time></trkpt><trkpt lat="31.471065" lon="-5.4024133"><ele>1178.0</ele><time>2026-04-23T16:18:27.906Z</time></trkpt><trkpt lat="31.4711383" lon="-5.402595"><ele>1178.0</ele><time>2026-04-23T16:18:28.904Z</time></trkpt><trkpt lat="31.471215" lon="-5.402785"><ele>1178.0</ele><time>2026-04-23T16:18:29.905Z</time></trkpt><trkpt lat="31.47129" lon="-5.402975"><ele>1178.0</ele><time>2026-04-23T16:18:30.905Z</time></trkpt><trkpt lat="31.471365" lon="-5.4031517"><ele>1178.0</ele><time>2026-04-23T16:18:31.905Z</time></trkpt><trkpt lat="31.471435" lon="-5.403325"><ele>1178.0</ele><time>2026-04-23T16:18:32.905Z</time></trkpt><trkpt lat="31.471515" lon="-5.4035"><ele>1178.0</ele><time>2026-04-23T16:18:33.904Z</time></trkpt><trkpt lat="31.471585" lon="-5.4036717"><ele>1178.0</ele><time>2026-04-23T16:18:34.905Z</time></trkpt><trkpt lat="31.47165" lon="-5.40385"><ele>1178.0</ele><time>2026-04-23T16:18:35.905Z</time></trkpt><trkpt lat="31.4717233" lon="-5.4040233"><ele>1178.0</ele><time>2026-04-23T16:18:36.905Z</time></trkpt><trkpt lat="31.47179" lon="-5.4042117"><ele>1178.0</ele><time>2026-04-23T16:18:37.905Z</time></trkpt><trkpt lat="31.4718567" lon="-5.4044033"><ele>1178.0</ele><time>2026-04-23T16:18:38.905Z</time></trkpt><trkpt lat="31.4719267" lon="-5.4045883"><ele>1178.0</ele><time>2026-04-23T16:18:39.904Z</time></trkpt><trkpt lat="31.472" lon="-5.404765"><ele>1178.0</ele><time>2026-04-23T16:18:40.904Z</time></trkpt><trkpt lat="31.4720733" lon="-5.4049467"><ele>1178.0</ele><time>2026-04-23T16:18:41.905Z</time></trkpt><trkpt lat="31.4721483" lon="-5.4051167"><ele>1178.3333333333335</ele><time>2026-04-23T16:18:42.905Z</time></trkpt><trkpt lat="31.4722233" lon="-5.4052917"><ele>1178.6666666666667</ele><time>2026-04-23T16:18:43.904Z</time></trkpt><trkpt lat="31.4722933" lon="-5.4054717"><ele>1179.0</ele><time>2026-04-23T16:18:44.905Z</time></trkpt><trkpt lat="31.472365" lon="-5.40565"><ele>1179.0</ele><time>2026-04-23T16:18:45.905Z</time></trkpt><trkpt lat="31.4724383" lon="-5.4058267"><ele>1179.0</ele><time>2026-04-23T16:18:46.905Z</time></trkpt><trkpt lat="31.4725083" lon="-5.4060033"><ele>1179.0</ele><time>2026-04-23T16:18:47.905Z</time></trkpt><trkpt lat="31.472575" lon="-5.406185"><ele>1179.3333333333333</ele><time>2026-04-23T16:18:48.905Z</time></trkpt><trkpt lat="31.4726433" lon="-5.40636"><ele>1179.6666666666665</ele><time>2026-04-23T16:18:49.905Z</time></trkpt><trkpt lat="31.472705" lon="-5.4065417"><ele>1180.0</ele><time>2026-04-23T16:18:50.905Z</time></trkpt><trkpt lat="31.472775" lon="-5.4067217"><ele>1180.0</ele><time>2026-04-23T16:18:51.904Z</time></trkpt><trkpt lat="31.472845" lon="-5.4068983"><ele>1180.0</ele><time>2026-04-23T16:18:52.905Z</time></trkpt><trkpt lat="31.4729233" lon="-5.40708"><ele>1180.0</ele><time>2026-04-23T16:18:53.905Z</time></trkpt><trkpt lat="31.473" lon="-5.4072633"><ele>1180.6666666666665</ele><time>2026-04-23T16:18:54.904Z</time></trkpt><trkpt lat="31.4730783" lon="-5.4074467"><ele>1181.3333333333333</ele><time>2026-04-23T16:18:55.905Z</time></trkpt><trkpt lat="31.47315" lon="-5.4076317"><ele>1182.0</ele><time>2026-04-23T16:18:56.904Z</time></trkpt><trkpt lat="31.47322" lon="-5.4078217"><ele>1182.0</ele><time>2026-04-23T16:18:57.904Z</time></trkpt><trkpt lat="31.4732983" lon="-5.408015"><ele>1182.0</ele><time>2026-04-23T16:18:58.905Z</time></trkpt><trkpt lat="31.4733833" lon="-5.4082033"><ele>1182.0</ele><time>2026-04-23T16:18:59.905Z</time></trkpt><trkpt lat="31.4734633" lon="-5.4084017"><ele>1182.0</ele><time>2026-04-23T16:19:00.904Z</time></trkpt><trkpt lat="31.4735417" lon="-5.4085933"><ele>1182.0</ele><time>2026-04-23T16:19:01.904Z</time></trkpt><trkpt lat="31.4736217" lon="-5.4087867"><ele>1182.0</ele><time>2026-04-23T16:19:02.905Z</time></trkpt><trkpt lat="31.473705" lon="-5.4089783"><ele>1182.6666666666667</ele><time>2026-04-23T16:19:03.904Z</time></trkpt><trkpt lat="31.4737883" lon="-5.4091667"><ele>1183.3333333333335</ele><time>2026-04-23T16:19:04.905Z</time></trkpt><trkpt lat="31.473875" lon="-5.409355"><ele>1184.0</ele><time>2026-04-23T16:19:05.905Z</time></trkpt><trkpt lat="31.4739683" lon="-5.4095367"><ele>1184.3333333333335</ele><time>2026-04-23T16:19:06.904Z</time></trkpt><trkpt lat="31.474065" lon="-5.4097167"><ele>1184.6666666666667</ele><time>2026-04-23T16:19:07.904Z</time></trkpt><trkpt lat="31.4741617" lon="-5.4099017"><ele>1185.0</ele><time>2026-04-23T16:19:08.905Z</time></trkpt><trkpt lat="31.4742667" lon="-5.410085"><ele>1185.0</ele><time>2026-04-23T16:19:09.905Z</time></trkpt><trkpt lat="31.4743733" lon="-5.410265"><ele>1185.0</ele><time>2026-04-23T16:19:10.904Z</time></trkpt><trkpt lat="31.4744833" lon="-5.4104483"><ele>1185.0</ele><time>2026-04-23T16:19:11.905Z</time></trkpt><trkpt lat="31.4745917" lon="-5.4106267"><ele>1185.0</ele><time>2026-04-23T16:19:12.905Z</time></trkpt><trkpt lat="31.4746983" lon="-5.41081"><ele>1185.0</ele><time>2026-04-23T16:19:13.905Z</time></trkpt><trkpt lat="31.474805" lon="-5.4109817"><ele>1185.0</ele><time>2026-04-23T16:19:14.904Z</time></trkpt><trkpt lat="31.4749" lon="-5.41115"><ele>1185.0</ele><time>2026-04-23T16:19:15.905Z</time></trkpt><trkpt lat="31.4749917" lon="-5.4113217"><ele>1185.0</ele><time>2026-04-23T16:19:16.905Z</time></trkpt><trkpt lat="31.4750867" lon="-5.41149"><ele>1185.0</ele><time>2026-04-23T16:19:17.905Z</time></trkpt><trkpt lat="31.4751767" lon="-5.41166"><ele>1185.3333333333333</ele><time>2026-04-23T16:19:18.905Z</time></trkpt><trkpt lat="31.47527" lon="-5.4118267"><ele>1185.6666666666665</ele><time>2026-04-23T16:19:19.904Z</time></trkpt><trkpt lat="31.4753667" lon="-5.4119867"><ele>1186.0</ele><time>2026-04-23T16:19:20.904Z</time></trkpt><trkpt lat="31.4754667" lon="-5.412145"><ele>1186.6666666666665</ele><time>2026-04-23T16:19:21.905Z</time></trkpt><trkpt lat="31.4755567" lon="-5.412305"><ele>1187.3333333333333</ele><time>2026-04-23T16:19:22.905Z</time></trkpt><trkpt lat="31.4756483" lon="-5.4124667"><ele>1188.0</ele><time>2026-04-23T16:19:23.904Z</time></trkpt><trkpt lat="31.4757433" lon="-5.4126317"><ele>1188.0</ele><time>2026-04-23T16:19:24.905Z</time></trkpt><trkpt lat="31.4758417" lon="-5.4128017"><ele>1188.0</ele><time>2026-04-23T16:19:25.905Z</time></trkpt><trkpt lat="31.4759383" lon="-5.41297"><ele>1188.0</ele><time>2026-04-23T16:19:26.904Z</time></trkpt><trkpt lat="31.476035" lon="-5.413145"><ele>1188.0</ele><time>2026-04-23T16:19:27.905Z</time></trkpt><trkpt lat="31.4761317" lon="-5.4133217"><ele>1188.0</ele><time>2026-04-23T16:19:28.905Z</time></trkpt><trkpt lat="31.4762317" lon="-5.413495"><ele>1188.0</ele><time>2026-04-23T16:19:29.905Z</time></trkpt><trkpt lat="31.4763317" lon="-5.4136617"><ele>1188.3333333333333</ele><time>2026-04-23T16:19:30.905Z</time></trkpt><trkpt lat="31.4764233" lon="-5.4138283"><ele>1188.6666666666665</ele><time>2026-04-23T16:19:31.905Z</time></trkpt><trkpt lat="31.4765117" lon="-5.4139933"><ele>1189.0</ele><time>2026-04-23T16:19:32.905Z</time></trkpt><trkpt lat="31.4766033" lon="-5.4141533"><ele>1189.0</ele><time>2026-04-23T16:19:33.905Z</time></trkpt><trkpt lat="31.4766883" lon="-5.4143167"><ele>1189.0</ele><time>2026-04-23T16:19:34.905Z</time></trkpt><trkpt lat="31.4767783" lon="-5.4144733"><ele>1189.0</ele><time>2026-04-23T16:19:35.904Z</time></trkpt><trkpt lat="31.476865" lon="-5.4146333"><ele>1189.0</ele><time>2026-04-23T16:19:36.905Z</time></trkpt><trkpt lat="31.4769567" lon="-5.4147817"><ele>1189.0</ele><time>2026-04-23T16:19:37.905Z</time></trkpt><trkpt lat="31.4770467" lon="-5.41494"><ele>1189.0</ele><time>2026-04-23T16:19:38.904Z</time></trkpt><trkpt lat="31.4771367" lon="-5.4150933"><ele>1189.0</ele><time>2026-04-23T16:19:39.905Z</time></trkpt><trkpt lat="31.4772283" lon="-5.4152517"><ele>1189.0</ele><time>2026-04-23T16:19:40.905Z</time></trkpt><trkpt lat="31.4773133" lon="-5.415415"><ele>1189.0</ele><time>2026-04-23T16:19:41.904Z</time></trkpt><trkpt lat="31.4774083" lon="-5.4155717"><ele>1189.0</ele><time>2026-04-23T16:19:42.905Z</time></trkpt><trkpt lat="31.4775067" lon="-5.4157317"><ele>1189.0</ele><time>2026-04-23T16:19:43.905Z</time></trkpt><trkpt lat="31.477605" lon="-5.4158917"><ele>1189.0</ele><time>2026-04-23T16:19:44.905Z</time></trkpt><trkpt lat="31.477705" lon="-5.4160667"><ele>1189.0</ele><time>2026-04-23T16:19:45.905Z</time></trkpt><trkpt lat="31.477805" lon="-5.41624"><ele>1189.0</ele><time>2026-04-23T16:19:46.905Z</time></trkpt><trkpt lat="31.4779033" lon="-5.4164133"><ele>1189.0</ele><time>2026-04-23T16:19:47.905Z</time></trkpt><trkpt lat="31.4779983" lon="-5.4165933"><ele>1189.0</ele><time>2026-04-23T16:19:48.905Z</time></trkpt><trkpt lat="31.4780967" lon="-5.416775"><ele>1189.0</ele><time>2026-04-23T16:19:49.905Z</time></trkpt><trkpt lat="31.4781967" lon="-5.4169633"><ele>1189.0</ele><time>2026-04-23T16:19:50.904Z</time></trkpt><trkpt lat="31.4783083" lon="-5.4171467"><ele>1189.0</ele><time>2026-04-23T16:19:51.905Z</time></trkpt><trkpt lat="31.4784167" lon="-5.4173283"><ele>1189.0</ele><time>2026-04-23T16:19:52.905Z</time></trkpt><trkpt lat="31.47852" lon="-5.41751"><ele>1189.0</ele><time>2026-04-23T16:19:53.905Z</time></trkpt><trkpt lat="31.4786233" lon="-5.4177017"><ele>1189.0</ele><time>2026-04-23T16:19:54.904Z</time></trkpt><trkpt lat="31.4787233" lon="-5.417885"><ele>1189.0</ele><time>2026-04-23T16:19:55.905Z</time></trkpt><trkpt lat="31.47882" lon="-5.4180567"><ele>1189.0</ele><time>2026-04-23T16:19:56.905Z</time></trkpt><trkpt lat="31.4789083" lon="-5.4182317"><ele>1189.6666666666665</ele><time>2026-04-23T16:19:57.904Z</time></trkpt><trkpt lat="31.4790083" lon="-5.418395"><ele>1190.3333333333333</ele><time>2026-04-23T16:19:58.905Z</time></trkpt><trkpt lat="31.4791017" lon="-5.4185533"><ele>1191.0</ele><time>2026-04-23T16:19:59.904Z</time></trkpt><trkpt lat="31.479195" lon="-5.41871"><ele>1191.3333333333333</ele><time>2026-04-23T16:20:00.905Z</time></trkpt><trkpt lat="31.4792833" lon="-5.4188733"><ele>1191.6666666666665</ele><time>2026-04-23T16:20:01.905Z</time></trkpt><trkpt lat="31.4793717" lon="-5.4190433"><ele>1192.0</ele><time>2026-04-23T16:20:02.904Z</time></trkpt><trkpt lat="31.4794683" lon="-5.41921"><ele>1192.0</ele><time>2026-04-23T16:20:03.905Z</time></trkpt><trkpt lat="31.4795633" lon="-5.419375"><ele>1192.0</ele><time>2026-04-23T16:20:04.905Z</time></trkpt><trkpt lat="31.4796567" lon="-5.419545"><ele>1192.0</ele><time>2026-04-23T16:20:05.904Z</time></trkpt><trkpt lat="31.479755" lon="-5.4197167"><ele>1191.6666666666665</ele><time>2026-04-23T16:20:06.905Z</time></trkpt><trkpt lat="31.4798567" lon="-5.4198867"><ele>1191.3333333333333</ele><time>2026-04-23T16:20:07.905Z</time></trkpt><trkpt lat="31.4799533" lon="-5.420065"><ele>1191.0</ele><time>2026-04-23T16:20:08.905Z</time></trkpt><trkpt lat="31.48005" lon="-5.420245"><ele>1191.0</ele><time>2026-04-23T16:20:09.905Z</time></trkpt><trkpt lat="31.4801467" lon="-5.42042"><ele>1191.0</ele><time>2026-04-23T16:20:10.904Z</time></trkpt><trkpt lat="31.4802483" lon="-5.4205967"><ele>1191.0</ele><time>2026-04-23T16:20:11.904Z</time></trkpt><trkpt lat="31.4803483" lon="-5.4207717"><ele>1191.6666666666667</ele><time>2026-04-23T16:20:12.905Z</time></trkpt><trkpt lat="31.480455" lon="-5.4209433"><ele>1192.3333333333335</ele><time>2026-04-23T16:20:13.905Z</time></trkpt><trkpt lat="31.4805517" lon="-5.421115"><ele>1193.0</ele><time>2026-04-23T16:20:14.904Z</time></trkpt><trkpt lat="31.48065" lon="-5.421295"><ele>1193.0</ele><time>2026-04-23T16:20:15.905Z</time></trkpt><trkpt lat="31.4807517" lon="-5.4214717"><ele>1193.0</ele><time>2026-04-23T16:20:16.904Z</time></trkpt><trkpt lat="31.4808567" lon="-5.4216533"><ele>1193.0</ele><time>2026-04-23T16:20:17.905Z</time></trkpt><trkpt lat="31.4809517" lon="-5.421835"><ele>1193.0</ele><time>2026-04-23T16:20:18.905Z</time></trkpt><trkpt lat="31.4810567" lon="-5.4220117"><ele>1193.0</ele><time>2026-04-23T16:20:19.904Z</time></trkpt><trkpt lat="31.481165" lon="-5.4221917"><ele>1193.0</ele><time>2026-04-23T16:20:20.905Z</time></trkpt><trkpt lat="31.481265" lon="-5.42238"><ele>1193.6666666666667</ele><time>2026-04-23T16:20:21.905Z</time></trkpt><trkpt lat="31.4813733" lon="-5.4225667"><ele>1194.3333333333333</ele><time>2026-04-23T16:20:22.905Z</time></trkpt><trkpt lat="31.481485" lon="-5.4227583"><ele>1195.0</ele><time>2026-04-23T16:20:23.905Z</time></trkpt><trkpt lat="31.48159" lon="-5.4229533"><ele>1195.3333333333333</ele><time>2026-04-23T16:20:24.905Z</time></trkpt><trkpt lat="31.4816967" lon="-5.4231467"><ele>1195.6666666666667</ele><time>2026-04-23T16:20:25.905Z</time></trkpt><trkpt lat="31.4818083" lon="-5.42334"><ele>1196.0</ele><time>2026-04-23T16:20:26.904Z</time></trkpt><trkpt lat="31.4819167" lon="-5.4235333"><ele>1196.0</ele><time>2026-04-23T16:20:27.905Z</time></trkpt><trkpt lat="31.4820117" lon="-5.42372"><ele>1196.0</ele><time>2026-04-23T16:20:28.904Z</time></trkpt><trkpt lat="31.48211" lon="-5.423895"><ele>1196.0</ele><time>2026-04-23T16:20:29.905Z</time></trkpt><trkpt lat="31.4822067" lon="-5.4240717"><ele>1197.0</ele><time>2026-04-23T16:20:30.904Z</time></trkpt><trkpt lat="31.4823083" lon="-5.42424"><ele>1198.0</ele><time>2026-04-23T16:20:31.905Z</time></trkpt><trkpt lat="31.48242" lon="-5.42442"><ele>1199.0</ele><time>2026-04-23T16:20:32.905Z</time></trkpt><trkpt lat="31.482525" lon="-5.4246033"><ele>1198.6666666666667</ele><time>2026-04-23T16:20:33.905Z</time></trkpt><trkpt lat="31.4826367" lon="-5.4247917"><ele>1198.3333333333333</ele><time>2026-04-23T16:20:34.904Z</time></trkpt><trkpt lat="31.4827433" lon="-5.4249833"><ele>1198.0</ele><time>2026-04-23T16:20:35.905Z</time></trkpt><trkpt lat="31.4828517" lon="-5.4251817"><ele>1198.6666666666665</ele><time>2026-04-23T16:20:36.905Z</time></trkpt><trkpt lat="31.48296" lon="-5.425385"><ele>1199.3333333333333</ele><time>2026-04-23T16:20:37.905Z</time></trkpt><trkpt lat="31.483075" lon="-5.4255883"><ele>1200.0</ele><time>2026-04-23T16:20:38.904Z</time></trkpt><trkpt lat="31.4831867" lon="-5.425795"><ele>1200.3333333333333</ele><time>2026-04-23T16:20:39.904Z</time></trkpt><trkpt lat="31.4833" lon="-5.426005"><ele>1200.6666666666665</ele><time>2026-04-23T16:20:40.904Z</time></trkpt><trkpt lat="31.4834167" lon="-5.4262233"><ele>1201.0</ele><time>2026-04-23T16:20:41.905Z</time></trkpt><trkpt lat="31.48354" lon="-5.426445"><ele>1201.0</ele><time>2026-04-23T16:20:42.905Z</time></trkpt><trkpt lat="31.483665" lon="-5.4266733"><ele>1201.0</ele><time>2026-04-23T16:20:43.905Z</time></trkpt><trkpt lat="31.4837917" lon="-5.4269083"><ele>1201.0</ele><time>2026-04-23T16:20:44.904Z</time></trkpt><trkpt lat="31.4839217" lon="-5.42715"><ele>1201.0</ele><time>2026-04-23T16:20:45.905Z</time></trkpt><trkpt lat="31.4840467" lon="-5.4274033"><ele>1201.0</ele><time>2026-04-23T16:20:46.905Z</time></trkpt><trkpt lat="31.4841717" lon="-5.4276483"><ele>1201.0</ele><time>2026-04-23T16:20:47.905Z</time></trkpt><trkpt lat="31.4842983" lon="-5.427895"><ele>1201.0</ele><time>2026-04-23T16:20:48.905Z</time></trkpt><trkpt lat="31.4844367" lon="-5.4281417"><ele>1201.0</ele><time>2026-04-23T16:20:49.905Z</time></trkpt><trkpt lat="31.4845783" lon="-5.4283917"><ele>1201.0</ele><time>2026-04-23T16:20:50.904Z</time></trkpt><trkpt lat="31.4847167" lon="-5.4286383"><ele>1201.0</ele><time>2026-04-23T16:20:51.905Z</time></trkpt><trkpt lat="31.4848533" lon="-5.428895"><ele>1201.0</ele><time>2026-04-23T16:20:52.905Z</time></trkpt><trkpt lat="31.4849833" lon="-5.4291533"><ele>1201.0</ele><time>2026-04-23T16:20:53.905Z</time></trkpt><trkpt lat="31.48511" lon="-5.4294117"><ele>1201.0</ele><time>2026-04-23T16:20:54.905Z</time></trkpt><trkpt lat="31.4852367" lon="-5.42967"><ele>1201.0</ele><time>2026-04-23T16:20:55.905Z</time></trkpt><trkpt lat="31.4853683" lon="-5.42993"><ele>1201.5</ele><time>2026-04-23T16:20:56.905Z</time></trkpt><trkpt lat="31.4854983" lon="-5.4301867"><ele>1202.0</ele><time>2026-04-23T16:20:57.905Z</time></trkpt><trkpt lat="31.48563" lon="-5.430445"><ele>1202.5</ele><time>2026-04-23T16:20:58.905Z</time></trkpt><trkpt lat="31.4857633" lon="-5.4307067"><ele>1203.0</ele><time>2026-04-23T16:20:59.905Z</time></trkpt><trkpt lat="31.485895" lon="-5.4309667"><ele>1203.0</ele><time>2026-04-23T16:21:00.905Z</time></trkpt><trkpt lat="31.48603" lon="-5.43123"><ele>1203.0</ele><time>2026-04-23T16:21:01.905Z</time></trkpt><trkpt lat="31.4861617" lon="-5.4314933"><ele>1202.5</ele><time>2026-04-23T16:21:02.904Z</time></trkpt><trkpt lat="31.48629" lon="-5.431755"><ele>1202.0</ele><time>2026-04-23T16:21:03.905Z</time></trkpt><trkpt lat="31.4864167" lon="-5.43202"><ele>1202.5</ele><time>2026-04-23T16:21:04.905Z</time></trkpt><trkpt lat="31.4865417" lon="-5.4322833"><ele>1203.0</ele><time>2026-04-23T16:21:05.904Z</time></trkpt><trkpt lat="31.4866717" lon="-5.4325417"><ele>1203.0</ele><time>2026-04-23T16:21:06.905Z</time></trkpt><trkpt lat="31.4867983" lon="-5.4328017"><ele>1203.0</ele><time>2026-04-23T16:21:07.905Z</time></trkpt><trkpt lat="31.4869267" lon="-5.4330633"><ele>1203.5</ele><time>2026-04-23T16:21:08.905Z</time></trkpt><trkpt lat="31.4870633" lon="-5.4333133"><ele>1204.0</ele><time>2026-04-23T16:21:09.905Z</time></trkpt><trkpt lat="31.4871883" lon="-5.4335583"><ele>1204.0</ele><time>2026-04-23T16:21:10.905Z</time></trkpt><trkpt lat="31.487305" lon="-5.4338"><ele>1204.0</ele><time>2026-04-23T16:21:11.905Z</time></trkpt><trkpt lat="31.4874233" lon="-5.4340383"><ele>1204.0</ele><time>2026-04-23T16:21:12.905Z</time></trkpt><trkpt lat="31.4875383" lon="-5.434275"><ele>1204.0</ele><time>2026-04-23T16:21:13.904Z</time></trkpt><trkpt lat="31.4876533" lon="-5.4345083"><ele>1205.0</ele><time>2026-04-23T16:21:14.905Z</time></trkpt><trkpt lat="31.4877667" lon="-5.434745"><ele>1206.0</ele><time>2026-04-23T16:21:15.905Z</time></trkpt><trkpt lat="31.48789" lon="-5.4349767"><ele>1206.0</ele><time>2026-04-23T16:21:16.905Z</time></trkpt><trkpt lat="31.48801" lon="-5.4352117"><ele>1206.0</ele><time>2026-04-23T16:21:17.904Z</time></trkpt><trkpt lat="31.4881317" lon="-5.4354483"><ele>1207.0</ele><time>2026-04-23T16:21:18.905Z</time></trkpt><trkpt lat="31.4882483" lon="-5.43569"><ele>1208.0</ele><time>2026-04-23T16:21:19.904Z</time></trkpt><trkpt lat="31.4883633" lon="-5.4359283"><ele>1208.0</ele><time>2026-04-23T16:21:20.905Z</time></trkpt><trkpt lat="31.488485" lon="-5.4361667"><ele>1208.0</ele><time>2026-04-23T16:21:21.905Z</time></trkpt><trkpt lat="31.4886017" lon="-5.4364117"><ele>1208.0</ele><time>2026-04-23T16:21:22.905Z</time></trkpt><trkpt lat="31.4887233" lon="-5.4366517"><ele>1208.0</ele><time>2026-04-23T16:21:23.905Z</time></trkpt><trkpt lat="31.4888467" lon="-5.4368933"><ele>1208.0</ele><time>2026-04-23T16:21:24.904Z</time></trkpt><trkpt lat="31.488965" lon="-5.4371317"><ele>1208.0</ele><time>2026-04-23T16:21:25.905Z</time></trkpt><trkpt lat="31.4890867" lon="-5.43737"><ele>1208.0</ele><time>2026-04-23T16:21:26.905Z</time></trkpt><trkpt lat="31.4892083" lon="-5.43761"><ele>1208.0</ele><time>2026-04-23T16:21:27.905Z</time></trkpt><trkpt lat="31.4893283" lon="-5.43785"><ele>1208.0</ele><time>2026-04-23T16:21:28.905Z</time></trkpt><trkpt lat="31.4894483" lon="-5.4380933"><ele>1208.0</ele><time>2026-04-23T16:21:29.904Z</time></trkpt><trkpt lat="31.489565" lon="-5.4383317"><ele>1208.5</ele><time>2026-04-23T16:21:30.905Z</time></trkpt><trkpt lat="31.4896833" lon="-5.4385733"><ele>1209.0</ele><time>2026-04-23T16:21:31.905Z</time></trkpt><trkpt lat="31.4898067" lon="-5.4388117"><ele>1209.0</ele><time>2026-04-23T16:21:32.905Z</time></trkpt><trkpt lat="31.4899283" lon="-5.4390533"><ele>1209.0</ele><time>2026-04-23T16:21:33.905Z</time></trkpt><trkpt lat="31.49005" lon="-5.4392933"><ele>1209.0</ele><time>2026-04-23T16:21:34.905Z</time></trkpt><trkpt lat="31.4901683" lon="-5.439535"><ele>1209.0</ele><time>2026-04-23T16:21:35.905Z</time></trkpt><trkpt lat="31.4902867" lon="-5.4397783"><ele>1209.5</ele><time>2026-04-23T16:21:36.904Z</time></trkpt><trkpt lat="31.4904067" lon="-5.4400167"><ele>1210.0</ele><time>2026-04-23T16:21:37.905Z</time></trkpt><trkpt lat="31.49053" lon="-5.44026"><ele>1210.0</ele><time>2026-04-23T16:21:38.905Z</time></trkpt><trkpt lat="31.4906533" lon="-5.4405033"><ele>1210.0</ele><time>2026-04-23T16:21:39.905Z</time></trkpt><trkpt lat="31.490775" lon="-5.4407417"><ele>1210.0</ele><time>2026-04-23T16:21:40.904Z</time></trkpt><trkpt lat="31.4908933" lon="-5.44098"><ele>1210.0</ele><time>2026-04-23T16:21:41.904Z</time></trkpt><trkpt lat="31.491015" lon="-5.4412233"><ele>1209.5</ele><time>2026-04-23T16:21:42.905Z</time></trkpt><trkpt lat="31.4911333" lon="-5.4414617"><ele>1209.0</ele><time>2026-04-23T16:21:43.904Z</time></trkpt><trkpt lat="31.4912517" lon="-5.4416967"><ele>1210.0</ele><time>2026-04-23T16:21:44.905Z</time></trkpt><trkpt lat="31.4913717" lon="-5.4419367"><ele>1211.0</ele><time>2026-04-23T16:21:45.905Z</time></trkpt><trkpt lat="31.4914933" lon="-5.4421783"><ele>1211.5</ele><time>2026-04-23T16:21:46.905Z</time></trkpt><trkpt lat="31.4916133" lon="-5.44242"><ele>1212.0</ele><time>2026-04-23T16:21:47.905Z</time></trkpt><trkpt lat="31.491725" lon="-5.4426583"><ele>1212.0</ele><time>2026-04-23T16:21:48.905Z</time></trkpt><trkpt lat="31.4918433" lon="-5.4428967"><ele>1212.0</ele><time>2026-04-23T16:21:49.905Z</time></trkpt><trkpt lat="31.491965" lon="-5.4431333"><ele>1212.5</ele><time>2026-04-23T16:21:50.905Z</time></trkpt><trkpt lat="31.492085" lon="-5.4433733"><ele>1213.0</ele><time>2026-04-23T16:21:51.905Z</time></trkpt><trkpt lat="31.4922067" lon="-5.4436117"><ele>1214.5</ele><time>2026-04-23T16:21:52.905Z</time></trkpt><trkpt lat="31.4923183" lon="-5.443845"><ele>1216.0</ele><time>2026-04-23T16:21:53.904Z</time></trkpt><trkpt lat="31.4924367" lon="-5.4440783"><ele>1216.0</ele><time>2026-04-23T16:21:54.904Z</time></trkpt><trkpt lat="31.4925583" lon="-5.4443133"><ele>1216.0</ele><time>2026-04-23T16:21:55.905Z</time></trkpt><trkpt lat="31.492675" lon="-5.44455"><ele>1216.5</ele><time>2026-04-23T16:21:56.904Z</time></trkpt><trkpt lat="31.49279" lon="-5.4447833"><ele>1217.0</ele><time>2026-04-23T16:21:57.905Z</time></trkpt><trkpt lat="31.4929083" lon="-5.44502"><ele>1217.0</ele><time>2026-04-23T16:21:58.905Z</time></trkpt><trkpt lat="31.4930267" lon="-5.44526"><ele>1217.0</ele><time>2026-04-23T16:21:59.905Z</time></trkpt><trkpt lat="31.4931483" lon="-5.4455"><ele>1217.0</ele><time>2026-04-23T16:22:00.905Z</time></trkpt><trkpt lat="31.49327" lon="-5.44574"><ele>1217.0</ele><time>2026-04-23T16:22:01.904Z</time></trkpt><trkpt lat="31.4933883" lon="-5.4459817"><ele>1217.0</ele><time>2026-04-23T16:22:02.905Z</time></trkpt><trkpt lat="31.4935017" lon="-5.4462233"><ele>1217.0</ele><time>2026-04-23T16:22:03.905Z</time></trkpt><trkpt lat="31.49362" lon="-5.44647"><ele>1217.5</ele><time>2026-04-23T16:22:04.905Z</time></trkpt><trkpt lat="31.4937333" lon="-5.4467183"><ele>1218.0</ele><time>2026-04-23T16:22:05.905Z</time></trkpt><trkpt lat="31.4938467" lon="-5.4469667"><ele>1218.5</ele><time>2026-04-23T16:22:06.905Z</time></trkpt><trkpt lat="31.4939533" lon="-5.447215"><ele>1219.0</ele><time>2026-04-23T16:22:07.904Z</time></trkpt><trkpt lat="31.4940583" lon="-5.4474667"><ele>1219.0</ele><time>2026-04-23T16:22:08.905Z</time></trkpt><trkpt lat="31.4941617" lon="-5.4477233"><ele>1219.0</ele><time>2026-04-23T16:22:09.905Z</time></trkpt><trkpt lat="31.4942683" lon="-5.447975"><ele>1219.0</ele><time>2026-04-23T16:22:10.905Z</time></trkpt><trkpt lat="31.4943783" lon="-5.448235"><ele>1219.0</ele><time>2026-04-23T16:22:11.904Z</time></trkpt><trkpt lat="31.494485" lon="-5.448495"><ele>1219.0</ele><time>2026-04-23T16:22:12.904Z</time></trkpt><trkpt lat="31.4945933" lon="-5.4487483"><ele>1219.0</ele><time>2026-04-23T16:22:13.904Z</time></trkpt><trkpt lat="31.494695" lon="-5.4490083"><ele>1219.5</ele><time>2026-04-23T16:22:14.905Z</time></trkpt><trkpt lat="31.4947983" lon="-5.4492667"><ele>1220.0</ele><time>2026-04-23T16:22:15.904Z</time></trkpt><trkpt lat="31.4949017" lon="-5.4495317"><ele>1220.5</ele><time>2026-04-23T16:22:16.905Z</time></trkpt><trkpt lat="31.495" lon="-5.4497967"><ele>1221.0</ele><time>2026-04-23T16:22:17.905Z</time></trkpt><trkpt lat="31.4950983" lon="-5.4500633"><ele>1221.0</ele><time>2026-04-23T16:22:18.904Z</time></trkpt><trkpt lat="31.4951867" lon="-5.4503283"><ele>1221.0</ele><time>2026-04-23T16:22:19.905Z</time></trkpt><trkpt lat="31.4952733" lon="-5.4505983"><ele>1221.5</ele><time>2026-04-23T16:22:20.905Z</time></trkpt><trkpt lat="31.49535" lon="-5.4508733"><ele>1222.0</ele><time>2026-04-23T16:22:21.905Z</time></trkpt><trkpt lat="31.4954217" lon="-5.4511517"><ele>1223.0</ele><time>2026-04-23T16:22:22.905Z</time></trkpt><trkpt lat="31.495495" lon="-5.45143"><ele>1224.0</ele><time>2026-04-23T16:22:23.905Z</time></trkpt><trkpt lat="31.4955667" lon="-5.4517133"><ele>1224.0</ele><time>2026-04-23T16:22:24.905Z</time></trkpt><trkpt lat="31.4956367" lon="-5.4519967"><ele>1224.0</ele><time>2026-04-23T16:22:25.905Z</time></trkpt><trkpt lat="31.4957017" lon="-5.4522833"><ele>1224.5</ele><time>2026-04-23T16:22:26.905Z</time></trkpt><trkpt lat="31.4957583" lon="-5.4525717"><ele>1225.0</ele><time>2026-04-23T16:22:27.905Z</time></trkpt><trkpt lat="31.49581" lon="-5.45286"><ele>1224.0</ele><time>2026-04-23T16:22:28.905Z</time></trkpt><trkpt lat="31.4958533" lon="-5.4531567"><ele>1223.0</ele><time>2026-04-23T16:22:29.905Z</time></trkpt><trkpt lat="31.4958967" lon="-5.4534583"><ele>1223.0</ele><time>2026-04-23T16:22:30.905Z</time></trkpt><trkpt lat="31.4959333" lon="-5.45376"><ele>1223.0</ele><time>2026-04-23T16:22:31.905Z</time></trkpt><trkpt lat="31.4959667" lon="-5.4540617"><ele>1223.0</ele><time>2026-04-23T16:22:32.905Z</time></trkpt><trkpt lat="31.4959967" lon="-5.4543667"><ele>1223.0</ele><time>2026-04-23T16:22:33.904Z</time></trkpt><trkpt lat="31.4960267" lon="-5.454675"><ele>1223.0</ele><time>2026-04-23T16:22:34.905Z</time></trkpt><trkpt lat="31.4960533" lon="-5.4549833"><ele>1223.0</ele><time>2026-04-23T16:22:35.905Z</time></trkpt><trkpt lat="31.4960767" lon="-5.4552983"><ele>1223.5</ele><time>2026-04-23T16:22:36.905Z</time></trkpt><trkpt lat="31.4960967" lon="-5.455615"><ele>1224.0</ele><time>2026-04-23T16:22:37.904Z</time></trkpt><trkpt lat="31.49612" lon="-5.4559367"><ele>1224.0</ele><time>2026-04-23T16:22:38.905Z</time></trkpt><trkpt lat="31.496145" lon="-5.4562567"><ele>1224.0</ele><time>2026-04-23T16:22:39.905Z</time></trkpt><trkpt lat="31.49617" lon="-5.4565767"><ele>1224.5</ele><time>2026-04-23T16:22:40.905Z</time></trkpt><trkpt lat="31.496195" lon="-5.4568917"><ele>1225.0</ele><time>2026-04-23T16:22:41.904Z</time></trkpt><trkpt lat="31.49622" lon="-5.4572083"><ele>1225.0</ele><time>2026-04-23T16:22:42.905Z</time></trkpt><trkpt lat="31.4962467" lon="-5.4575283"><ele>1225.0</ele><time>2026-04-23T16:22:43.904Z</time></trkpt><trkpt lat="31.496275" lon="-5.4578483"><ele>1225.0</ele><time>2026-04-23T16:22:44.905Z</time></trkpt><trkpt lat="31.4963033" lon="-5.4581683"><ele>1225.0</ele><time>2026-04-23T16:22:45.904Z</time></trkpt><trkpt lat="31.496335" lon="-5.458485"><ele>1225.0</ele><time>2026-04-23T16:22:46.904Z</time></trkpt><trkpt lat="31.49637" lon="-5.458805"><ele>1225.0</ele><time>2026-04-23T16:22:47.905Z</time></trkpt><trkpt lat="31.4964167" lon="-5.4591217"><ele>1225.0</ele><time>2026-04-23T16:22:48.905Z</time></trkpt><trkpt lat="31.496475" lon="-5.45944"><ele>1225.0</ele><time>2026-04-23T16:22:49.904Z</time></trkpt><trkpt lat="31.4965317" lon="-5.459755"><ele>1225.5</ele><time>2026-04-23T16:22:50.905Z</time></trkpt><trkpt lat="31.496595" lon="-5.46007"><ele>1226.0</ele><time>2026-04-23T16:22:51.905Z</time></trkpt><trkpt lat="31.4966617" lon="-5.4603833"><ele>1226.5</ele><time>2026-04-23T16:22:52.905Z</time></trkpt><trkpt lat="31.4967267" lon="-5.460695"><ele>1227.0</ele><time>2026-04-23T16:22:53.905Z</time></trkpt><trkpt lat="31.4968" lon="-5.4610033"><ele>1227.5</ele><time>2026-04-23T16:22:54.904Z</time></trkpt><trkpt lat="31.4968767" lon="-5.46131"><ele>1228.0</ele><time>2026-04-23T16:22:55.905Z</time></trkpt><trkpt lat="31.4969583" lon="-5.4616183"><ele>1228.0</ele><time>2026-04-23T16:22:56.905Z</time></trkpt><trkpt lat="31.4970367" lon="-5.4619267"><ele>1228.0</ele><time>2026-04-23T16:22:57.904Z</time></trkpt><trkpt lat="31.4971167" lon="-5.4622333"><ele>1229.0</ele><time>2026-04-23T16:22:58.905Z</time></trkpt><trkpt lat="31.4971933" lon="-5.4625433"><ele>1230.0</ele><time>2026-04-23T16:22:59.905Z</time></trkpt><trkpt lat="31.4972717" lon="-5.4628483"><ele>1230.5</ele><time>2026-04-23T16:23:00.905Z</time></trkpt><trkpt lat="31.4973483" lon="-5.463155"><ele>1231.0</ele><time>2026-04-23T16:23:01.905Z</time></trkpt><trkpt lat="31.497425" lon="-5.4634617"><ele>1231.0</ele><time>2026-04-23T16:23:02.904Z</time></trkpt><trkpt lat="31.4974983" lon="-5.4637667"><ele>1231.0</ele><time>2026-04-23T16:23:03.905Z</time></trkpt><trkpt lat="31.4975783" lon="-5.464075"><ele>1231.5</ele><time>2026-04-23T16:23:04.905Z</time></trkpt><trkpt lat="31.4976517" lon="-5.464385"><ele>1232.0</ele><time>2026-04-23T16:23:05.905Z</time></trkpt><trkpt lat="31.4977283" lon="-5.4646917"><ele>1232.0</ele><time>2026-04-23T16:23:06.905Z</time></trkpt><trkpt lat="31.4978033" lon="-5.4650033"><ele>1232.0</ele><time>2026-04-23T16:23:07.905Z</time></trkpt><trkpt lat="31.4978817" lon="-5.4653167"><ele>1232.5</ele><time>2026-04-23T16:23:08.905Z</time></trkpt><trkpt lat="31.49797" lon="-5.4656283"><ele>1233.0</ele><time>2026-04-23T16:23:09.904Z</time></trkpt><trkpt lat="31.498065" lon="-5.4659367"><ele>1233.0</ele><time>2026-04-23T16:23:10.905Z</time></trkpt><trkpt lat="31.4981617" lon="-5.4662417"><ele>1233.0</ele><time>2026-04-23T16:23:11.905Z</time></trkpt><trkpt lat="31.4982667" lon="-5.4665467"><ele>1234.0</ele><time>2026-04-23T16:23:12.904Z</time></trkpt><trkpt lat="31.4983717" lon="-5.4668483"><ele>1235.0</ele><time>2026-04-23T16:23:13.905Z</time></trkpt><trkpt lat="31.49848" lon="-5.467155"><ele>1235.0</ele><time>2026-04-23T16:23:14.904Z</time></trkpt><trkpt lat="31.4985917" lon="-5.467455"><ele>1235.0</ele><time>2026-04-23T16:23:15.905Z</time></trkpt><trkpt lat="31.4987133" lon="-5.467755"><ele>1235.5</ele><time>2026-04-23T16:23:16.905Z</time></trkpt><trkpt lat="31.4988417" lon="-5.468055"><ele>1236.0</ele><time>2026-04-23T16:23:17.904Z</time></trkpt><trkpt lat="31.49897" lon="-5.4683467"><ele>1236.0</ele><time>2026-04-23T16:23:18.904Z</time></trkpt><trkpt lat="31.4990967" lon="-5.4686467"><ele>1236.0</ele><time>2026-04-23T16:23:19.903Z</time></trkpt><trkpt lat="31.4992283" lon="-5.4689433"><ele>1236.5</ele><time>2026-04-23T16:23:20.904Z</time></trkpt><trkpt lat="31.4993567" lon="-5.46924"><ele>1237.0</ele><time>2026-04-23T16:23:21.904Z</time></trkpt><trkpt lat="31.4994833" lon="-5.4695367"><ele>1238.0</ele><time>2026-04-23T16:23:22.903Z</time></trkpt><trkpt lat="31.4996133" lon="-5.4698367"><ele>1239.0</ele><time>2026-04-23T16:23:23.904Z</time></trkpt><trkpt lat="31.4997417" lon="-5.470135"><ele>1239.0</ele><time>2026-04-23T16:23:24.904Z</time></trkpt><trkpt lat="31.499875" lon="-5.470435"><ele>1239.0</ele><time>2026-04-23T16:23:25.904Z</time></trkpt><trkpt lat="31.4999983" lon="-5.47073"><ele>1239.5</ele><time>2026-04-23T16:23:26.903Z</time></trkpt><trkpt lat="31.50012" lon="-5.471015"><ele>1240.0</ele><time>2026-04-23T16:23:27.904Z</time></trkpt><trkpt lat="31.5002433" lon="-5.4712967"><ele>1240.0</ele><time>2026-04-23T16:23:28.904Z</time></trkpt><trkpt lat="31.500365" lon="-5.4715783"><ele>1240.0</ele><time>2026-04-23T16:23:29.904Z</time></trkpt><trkpt lat="31.5004867" lon="-5.4718617"><ele>1240.0</ele><time>2026-04-23T16:23:30.904Z</time></trkpt><trkpt lat="31.50061" lon="-5.4721467"><ele>1240.0</ele><time>2026-04-23T16:23:31.903Z</time></trkpt><trkpt lat="31.500735" lon="-5.4724367"><ele>1240.0</ele><time>2026-04-23T16:23:32.904Z</time></trkpt><trkpt lat="31.5008633" lon="-5.47273"><ele>1240.0</ele><time>2026-04-23T16:23:33.904Z</time></trkpt><trkpt lat="31.5009867" lon="-5.473015"><ele>1240.5</ele><time>2026-04-23T16:23:34.904Z</time></trkpt><trkpt lat="31.501115" lon="-5.4733033"><ele>1241.0</ele><time>2026-04-23T16:23:35.904Z</time></trkpt><trkpt lat="31.5012367" lon="-5.47359"><ele>1242.0</ele><time>2026-04-23T16:23:36.903Z</time></trkpt><trkpt lat="31.5013667" lon="-5.4738867"><ele>1243.0</ele><time>2026-04-23T16:23:37.904Z</time></trkpt><trkpt lat="31.5014983" lon="-5.4741633"><ele>1243.0</ele><time>2026-04-23T16:23:38.904Z</time></trkpt><trkpt lat="31.50163" lon="-5.4744617"><ele>1243.0</ele><time>2026-04-23T16:23:39.904Z</time></trkpt><trkpt lat="31.5017667" lon="-5.4747617"><ele>1243.0</ele><time>2026-04-23T16:23:40.904Z</time></trkpt><trkpt lat="31.501895" lon="-5.47506"><ele>1243.0</ele><time>2026-04-23T16:23:41.904Z</time></trkpt><trkpt lat="31.50202" lon="-5.4753583"><ele>1243.5</ele><time>2026-04-23T16:23:42.903Z</time></trkpt><trkpt lat="31.5021467" lon="-5.4756567"><ele>1244.0</ele><time>2026-04-23T16:23:43.903Z</time></trkpt><trkpt lat="31.50228" lon="-5.475955"><ele>1244.0</ele><time>2026-04-23T16:23:44.904Z</time></trkpt><trkpt lat="31.5024117" lon="-5.4762567"><ele>1244.0</ele><time>2026-04-23T16:23:45.904Z</time></trkpt><trkpt lat="31.5025383" lon="-5.4765567"><ele>1245.0</ele><time>2026-04-23T16:23:46.903Z</time></trkpt><trkpt lat="31.5026683" lon="-5.4768567"><ele>1246.0</ele><time>2026-04-23T16:23:47.904Z</time></trkpt><trkpt lat="31.5027983" lon="-5.4771583"><ele>1246.0</ele><time>2026-04-23T16:23:48.904Z</time></trkpt><trkpt lat="31.5029083" lon="-5.477455"><ele>1246.0</ele><time>2026-04-23T16:23:49.904Z</time></trkpt><trkpt lat="31.503035" lon="-5.4777317"><ele>1246.5</ele><time>2026-04-23T16:23:50.904Z</time></trkpt><trkpt lat="31.5031483" lon="-5.4779967"><ele>1247.0</ele><time>2026-04-23T16:23:51.903Z</time></trkpt><trkpt lat="31.5032617" lon="-5.4782517"><ele>1247.0</ele><time>2026-04-23T16:23:52.904Z</time></trkpt><trkpt lat="31.5033667" lon="-5.4784933"><ele>1247.0</ele><time>2026-04-23T16:23:53.904Z</time></trkpt><trkpt lat="31.5034633" lon="-5.4787267"><ele>1247.0</ele><time>2026-04-23T16:23:54.904Z</time></trkpt><trkpt lat="31.50356" lon="-5.4789517"><ele>1247.0</ele><time>2026-04-23T16:23:55.904Z</time></trkpt><trkpt lat="31.5036617" lon="-5.4791833"><ele>1247.0</ele><time>2026-04-23T16:23:56.904Z</time></trkpt><trkpt lat="31.5037683" lon="-5.4794167"><ele>1247.5</ele><time>2026-04-23T16:23:57.903Z</time></trkpt><trkpt lat="31.5038783" lon="-5.4796567"><ele>1248.0</ele><time>2026-04-23T16:23:58.904Z</time></trkpt><trkpt lat="31.5039917" lon="-5.4799017"><ele>1248.0</ele><time>2026-04-23T16:23:59.904Z</time></trkpt><trkpt lat="31.5041083" lon="-5.4801583"><ele>1248.0</ele><time>2026-04-23T16:24:00.904Z</time></trkpt><trkpt lat="31.5042167" lon="-5.48042"><ele>1249.5</ele><time>2026-04-23T16:24:01.903Z</time></trkpt><trkpt lat="31.50433" lon="-5.4806867"><ele>1251.0</ele><time>2026-04-23T16:24:02.904Z</time></trkpt><trkpt lat="31.5044433" lon="-5.480955"><ele>1251.0</ele><time>2026-04-23T16:24:03.904Z</time></trkpt><trkpt lat="31.5045633" lon="-5.4812267"><ele>1251.0</ele><time>2026-04-23T16:24:04.904Z</time></trkpt><trkpt lat="31.504685" lon="-5.4815033"><ele>1251.5</ele><time>2026-04-23T16:24:05.904Z</time></trkpt><trkpt lat="31.5048083" lon="-5.4817867"><ele>1252.0</ele><time>2026-04-23T16:24:06.904Z</time></trkpt><trkpt lat="31.5049317" lon="-5.482075"><ele>1253.0</ele><time>2026-04-23T16:24:07.904Z</time></trkpt><trkpt lat="31.5050583" lon="-5.4823633"><ele>1254.0</ele><time>2026-04-23T16:24:08.904Z</time></trkpt><trkpt lat="31.5051867" lon="-5.4826517"><ele>1254.5</ele><time>2026-04-23T16:24:09.903Z</time></trkpt><trkpt lat="31.505315" lon="-5.4829433"><ele>1255.0</ele><time>2026-04-23T16:24:10.903Z</time></trkpt><trkpt lat="31.5054483" lon="-5.48324"><ele>1255.0</ele><time>2026-04-23T16:24:11.904Z</time></trkpt><trkpt lat="31.5055733" lon="-5.4835417"><ele>1255.0</ele><time>2026-04-23T16:24:12.904Z</time></trkpt><trkpt lat="31.5057" lon="-5.483845"><ele>1255.0</ele><time>2026-04-23T16:24:13.904Z</time></trkpt><trkpt lat="31.5058233" lon="-5.484135"><ele>1255.0</ele><time>2026-04-23T16:24:14.904Z</time></trkpt><trkpt lat="31.5059433" lon="-5.4844183"><ele>1255.5</ele><time>2026-04-23T16:24:15.904Z</time></trkpt><trkpt lat="31.5060683" lon="-5.4846983"><ele>1256.0</ele><time>2026-04-23T16:24:16.904Z</time></trkpt><trkpt lat="31.5061933" lon="-5.4849833"><ele>1255.5</ele><time>2026-04-23T16:24:17.903Z</time></trkpt><trkpt lat="31.5063233" lon="-5.4852683"><ele>1255.0</ele><time>2026-04-23T16:24:18.904Z</time></trkpt><trkpt lat="31.5064483" lon="-5.485555"><ele>1256.0</ele><time>2026-04-23T16:24:19.904Z</time></trkpt><trkpt lat="31.50657" lon="-5.4858367"><ele>1257.0</ele><time>2026-04-23T16:24:20.904Z</time></trkpt><trkpt lat="31.506695" lon="-5.4861167"><ele>1257.5</ele><time>2026-04-23T16:24:21.903Z</time></trkpt><trkpt lat="31.5068133" lon="-5.486395"><ele>1258.0</ele><time>2026-04-23T16:24:22.904Z</time></trkpt><trkpt lat="31.506935" lon="-5.4866733"><ele>1258.0</ele><time>2026-04-23T16:24:23.904Z</time></trkpt><trkpt lat="31.5070533" lon="-5.4869533"><ele>1258.0</ele><time>2026-04-23T16:24:24.904Z</time></trkpt><trkpt lat="31.5071717" lon="-5.4872317"><ele>1259.0</ele><time>2026-04-23T16:24:25.904Z</time></trkpt><trkpt lat="31.5072933" lon="-5.4875133"><ele>1260.0</ele><time>2026-04-23T16:24:26.904Z</time></trkpt><trkpt lat="31.5074117" lon="-5.4877917"><ele>1260.5</ele><time>2026-04-23T16:24:27.904Z</time></trkpt><trkpt lat="31.5075417" lon="-5.4880717"><ele>1261.0</ele><time>2026-04-23T16:24:28.904Z</time></trkpt><trkpt lat="31.507665" lon="-5.4883517"><ele>1261.0</ele><time>2026-04-23T16:24:29.904Z</time></trkpt><trkpt lat="31.5077917" lon="-5.488635"><ele>1261.0</ele><time>2026-04-23T16:24:30.904Z</time></trkpt><trkpt lat="31.5079133" lon="-5.4889233"><ele>1262.5</ele><time>2026-04-23T16:24:31.903Z</time></trkpt><trkpt lat="31.50804" lon="-5.48921"><ele>1264.0</ele><time>2026-04-23T16:24:32.903Z</time></trkpt><trkpt lat="31.508165" lon="-5.4894933"><ele>1264.0</ele><time>2026-04-23T16:24:33.904Z</time></trkpt><trkpt lat="31.5082917" lon="-5.489785"><ele>1264.0</ele><time>2026-04-23T16:24:34.904Z</time></trkpt><trkpt lat="31.5084217" lon="-5.4900767"><ele>1264.0</ele><time>2026-04-23T16:24:35.904Z</time></trkpt><trkpt lat="31.5085433" lon="-5.4903667"><ele>1264.0</ele><time>2026-04-23T16:24:36.904Z</time></trkpt><trkpt lat="31.5086717" lon="-5.490655"><ele>1265.5</ele><time>2026-04-23T16:24:37.903Z</time></trkpt><trkpt lat="31.5087983" lon="-5.4909467"><ele>1267.0</ele><time>2026-04-23T16:24:38.904Z</time></trkpt><trkpt lat="31.5089217" lon="-5.4912383"><ele>1266.0</ele><time>2026-04-23T16:24:39.903Z</time></trkpt><trkpt lat="31.509045" lon="-5.4915167"><ele>1265.0</ele><time>2026-04-23T16:24:40.904Z</time></trkpt><trkpt lat="31.5091683" lon="-5.49179"><ele>1265.0</ele><time>2026-04-23T16:24:41.904Z</time></trkpt><trkpt lat="31.509295" lon="-5.4920567"><ele>1265.0</ele><time>2026-04-23T16:24:42.903Z</time></trkpt><trkpt lat="31.50943" lon="-5.4923167"><ele>1265.0</ele><time>2026-04-23T16:24:43.904Z</time></trkpt><trkpt lat="31.5095717" lon="-5.492575"><ele>1265.0</ele><time>2026-04-23T16:24:44.904Z</time></trkpt><trkpt lat="31.5097083" lon="-5.49283"><ele>1265.5</ele><time>2026-04-23T16:24:45.904Z</time></trkpt><trkpt lat="31.5098533" lon="-5.4930833"><ele>1266.0</ele><time>2026-04-23T16:24:46.904Z</time></trkpt><trkpt lat="31.51" lon="-5.4933317"><ele>1266.0</ele><time>2026-04-23T16:24:47.904Z</time></trkpt><trkpt lat="31.5101517" lon="-5.4935733"><ele>1266.0</ele><time>2026-04-23T16:24:48.904Z</time></trkpt><trkpt lat="31.5103017" lon="-5.4938133"><ele>1267.5</ele><time>2026-04-23T16:24:49.904Z</time></trkpt><trkpt lat="31.5104567" lon="-5.4940533"><ele>1269.0</ele><time>2026-04-23T16:24:50.904Z</time></trkpt><trkpt lat="31.510615" lon="-5.49429"><ele>1269.0</ele><time>2026-04-23T16:24:51.904Z</time></trkpt><trkpt lat="31.5107767" lon="-5.4945283"><ele>1269.0</ele><time>2026-04-23T16:24:52.903Z</time></trkpt><trkpt lat="31.51094" lon="-5.49477"><ele>1269.0</ele><time>2026-04-23T16:24:53.904Z</time></trkpt><trkpt lat="31.511105" lon="-5.4950033"><ele>1269.0</ele><time>2026-04-23T16:24:54.904Z</time></trkpt><trkpt lat="31.5112717" lon="-5.49524"><ele>1268.0</ele><time>2026-04-23T16:24:55.903Z</time></trkpt><trkpt lat="31.5114417" lon="-5.4954733"><ele>1267.0</ele><time>2026-04-23T16:24:56.903Z</time></trkpt><trkpt lat="31.5116133" lon="-5.4957033"><ele>1267.0</ele><time>2026-04-23T16:24:57.904Z</time></trkpt><trkpt lat="31.5117817" lon="-5.4959367"><ele>1267.0</ele><time>2026-04-23T16:24:58.903Z</time></trkpt><trkpt lat="31.511945" lon="-5.49617"><ele>1268.0</ele><time>2026-04-23T16:24:59.904Z</time></trkpt><trkpt lat="31.5121033" lon="-5.4963983"><ele>1269.0</ele><time>2026-04-23T16:25:00.904Z</time></trkpt><trkpt lat="31.512265" lon="-5.4966283"><ele>1269.0</ele><time>2026-04-23T16:25:01.904Z</time></trkpt><trkpt lat="31.5124267" lon="-5.496855"><ele>1269.0</ele><time>2026-04-23T16:25:02.903Z</time></trkpt><trkpt lat="31.5125883" lon="-5.4970717"><ele>1269.0</ele><time>2026-04-23T16:25:03.904Z</time></trkpt><trkpt lat="31.51274" lon="-5.4972783"><ele>1269.0</ele><time>2026-04-23T16:25:04.904Z</time></trkpt><trkpt lat="31.5128833" lon="-5.4974767"><ele>1270.0</ele><time>2026-04-23T16:25:05.903Z</time></trkpt><trkpt lat="31.51302" lon="-5.497665"><ele>1271.0</ele><time>2026-04-23T16:25:06.904Z</time></trkpt><trkpt lat="31.5131467" lon="-5.4978433"><ele>1272.0</ele><time>2026-04-23T16:25:07.903Z</time></trkpt><trkpt lat="31.5132783" lon="-5.4980233"><ele>1272.0</ele><time>2026-04-23T16:25:08.904Z</time></trkpt><trkpt lat="31.5134" lon="-5.49821"><ele>1272.0</ele><time>2026-04-23T16:25:09.904Z</time></trkpt><trkpt lat="31.5135283" lon="-5.498395"><ele>1272.0</ele><time>2026-04-23T16:25:10.904Z</time></trkpt><trkpt lat="31.51365" lon="-5.498575"><ele>1272.0</ele><time>2026-04-23T16:25:11.904Z</time></trkpt><trkpt lat="31.5137717" lon="-5.49875"><ele>1272.0</ele><time>2026-04-23T16:25:12.903Z</time></trkpt><trkpt lat="31.5138967" lon="-5.49893"><ele>1272.0</ele><time>2026-04-23T16:25:13.904Z</time></trkpt><trkpt lat="31.5140267" lon="-5.4991083"><ele>1272.0</ele><time>2026-04-23T16:25:14.904Z</time></trkpt><trkpt lat="31.514155" lon="-5.49929"><ele>1272.0</ele><time>2026-04-23T16:25:15.903Z</time></trkpt><trkpt lat="31.5142817" lon="-5.4994717"><ele>1272.0</ele><time>2026-04-23T16:25:16.904Z</time></trkpt><trkpt lat="31.5144133" lon="-5.4996583"><ele>1272.3333333333333</ele><time>2026-04-23T16:25:17.904Z</time></trkpt><trkpt lat="31.514545" lon="-5.4998417"><ele>1272.6666666666665</ele><time>2026-04-23T16:25:18.903Z</time></trkpt><trkpt lat="31.5146783" lon="-5.5000283"><ele>1273.0</ele><time>2026-04-23T16:25:19.903Z</time></trkpt><trkpt lat="31.5148117" lon="-5.5002133"><ele>1273.6666666666665</ele><time>2026-04-23T16:25:20.903Z</time></trkpt><trkpt lat="31.5149483" lon="-5.5004033"><ele>1274.3333333333333</ele><time>2026-04-23T16:25:21.904Z</time></trkpt><trkpt lat="31.5150833" lon="-5.500595"><ele>1275.0</ele><time>2026-04-23T16:25:22.903Z</time></trkpt><trkpt lat="31.5152133" lon="-5.5007783"><ele>1275.0</ele><time>2026-04-23T16:25:23.904Z</time></trkpt><trkpt lat="31.5153417" lon="-5.50095"><ele>1275.0</ele><time>2026-04-23T16:25:24.904Z</time></trkpt><trkpt lat="31.5154567" lon="-5.5011233"><ele>1275.0</ele><time>2026-04-23T16:25:25.904Z</time></trkpt><trkpt lat="31.5155683" lon="-5.50129"><ele>1274.6666666666667</ele><time>2026-04-23T16:25:26.903Z</time></trkpt><trkpt lat="31.5156767" lon="-5.5014517"><ele>1274.3333333333335</ele><time>2026-04-23T16:25:27.904Z</time></trkpt><trkpt lat="31.5157867" lon="-5.50162"><ele>1274.0</ele><time>2026-04-23T16:25:28.903Z</time></trkpt><trkpt lat="31.5159017" lon="-5.5018067"><ele>1274.0</ele><time>2026-04-23T16:25:29.904Z</time></trkpt><trkpt lat="31.5160267" lon="-5.5019917"><ele>1274.0</ele><time>2026-04-23T16:25:30.904Z</time></trkpt><trkpt lat="31.51616" lon="-5.5021767"><ele>1274.0</ele><time>2026-04-23T16:25:31.904Z</time></trkpt><trkpt lat="31.51629" lon="-5.502365"><ele>1275.0</ele><time>2026-04-23T16:25:32.904Z</time></trkpt><trkpt lat="31.51644" lon="-5.5025633"><ele>1276.0</ele><time>2026-04-23T16:25:33.903Z</time></trkpt><trkpt lat="31.5165933" lon="-5.502765"><ele>1275.5</ele><time>2026-04-23T16:25:34.903Z</time></trkpt><trkpt lat="31.5167417" lon="-5.5029733"><ele>1275.0</ele><time>2026-04-23T16:25:35.904Z</time></trkpt><trkpt lat="31.5168983" lon="-5.5031867"><ele>1275.0</ele><time>2026-04-23T16:25:36.903Z</time></trkpt><trkpt lat="31.51705" lon="-5.50341"><ele>1275.0</ele><time>2026-04-23T16:25:37.904Z</time></trkpt><trkpt lat="31.5171983" lon="-5.503635"><ele>1275.5</ele><time>2026-04-23T16:25:38.904Z</time></trkpt><trkpt lat="31.5173467" lon="-5.50385"><ele>1276.0</ele><time>2026-04-23T16:25:39.904Z</time></trkpt><trkpt lat="31.51749" lon="-5.5040517"><ele>1276.0</ele><time>2026-04-23T16:25:40.903Z</time></trkpt><trkpt lat="31.5176267" lon="-5.5042417"><ele>1276.0</ele><time>2026-04-23T16:25:41.904Z</time></trkpt><trkpt lat="31.5177633" lon="-5.50443"><ele>1276.0</ele><time>2026-04-23T16:25:42.904Z</time></trkpt><trkpt lat="31.5179" lon="-5.5046167"><ele>1276.6666666666665</ele><time>2026-04-23T16:25:43.903Z</time></trkpt><trkpt lat="31.5180333" lon="-5.5048033"><ele>1277.3333333333333</ele><time>2026-04-23T16:25:44.904Z</time></trkpt><trkpt lat="31.5181633" lon="-5.504985"><ele>1278.0</ele><time>2026-04-23T16:25:45.904Z</time></trkpt><trkpt lat="31.518295" lon="-5.50516"><ele>1278.0</ele><time>2026-04-23T16:25:46.903Z</time></trkpt><trkpt lat="31.5184233" lon="-5.505335"><ele>1278.0</ele><time>2026-04-23T16:25:47.904Z</time></trkpt><trkpt lat="31.518545" lon="-5.50551"><ele>1278.0</ele><time>2026-04-23T16:25:48.904Z</time></trkpt><trkpt lat="31.51867" lon="-5.5056833"><ele>1279.0</ele><time>2026-04-23T16:25:49.903Z</time></trkpt><trkpt lat="31.5187883" lon="-5.505855"><ele>1280.0</ele><time>2026-04-23T16:25:50.904Z</time></trkpt><trkpt lat="31.5188967" lon="-5.506025"><ele>1281.0</ele><time>2026-04-23T16:25:51.903Z</time></trkpt><trkpt lat="31.51901" lon="-5.5061967"><ele>1280.6666666666667</ele><time>2026-04-23T16:25:52.903Z</time></trkpt><trkpt lat="31.5191233" lon="-5.506365"><ele>1280.3333333333335</ele><time>2026-04-23T16:25:53.904Z</time></trkpt><trkpt lat="31.51924" lon="-5.5065317"><ele>1280.0</ele><time>2026-04-23T16:25:54.904Z</time></trkpt><trkpt lat="31.5193583" lon="-5.5066967"><ele>1280.0</ele><time>2026-04-23T16:25:55.904Z</time></trkpt><trkpt lat="31.5194717" lon="-5.5068583"><ele>1280.0</ele><time>2026-04-23T16:25:56.904Z</time></trkpt><trkpt lat="31.5195867" lon="-5.5070167"><ele>1280.0</ele><time>2026-04-23T16:25:57.904Z</time></trkpt><trkpt lat="31.5197067" lon="-5.5071817"><ele>1280.0</ele><time>2026-04-23T16:25:58.903Z</time></trkpt><trkpt lat="31.5198283" lon="-5.507345"><ele>1280.0</ele><time>2026-04-23T16:25:59.904Z</time></trkpt><trkpt lat="31.5199517" lon="-5.5075167"><ele>1280.0</ele><time>2026-04-23T16:26:00.904Z</time></trkpt><trkpt lat="31.5200833" lon="-5.50769"><ele>1280.0</ele><time>2026-04-23T16:26:01.904Z</time></trkpt><trkpt lat="31.5202083" lon="-5.5078617"><ele>1280.0</ele><time>2026-04-23T16:26:02.904Z</time></trkpt><trkpt lat="31.5203417" lon="-5.50804"><ele>1280.0</ele><time>2026-04-23T16:26:03.904Z</time></trkpt><trkpt lat="31.52047" lon="-5.5082133"><ele>1280.6666666666667</ele><time>2026-04-23T16:26:04.904Z</time></trkpt><trkpt lat="31.5205933" lon="-5.5083817"><ele>1281.3333333333333</ele><time>2026-04-23T16:26:05.904Z</time></trkpt><trkpt lat="31.5207117" lon="-5.5085467"><ele>1282.0</ele><time>2026-04-23T16:26:06.903Z</time></trkpt><trkpt lat="31.5208317" lon="-5.5087183"><ele>1281.3333333333333</ele><time>2026-04-23T16:26:07.904Z</time></trkpt><trkpt lat="31.5209533" lon="-5.508885"><ele>1280.6666666666667</ele><time>2026-04-23T16:26:08.903Z</time></trkpt><trkpt lat="31.5210767" lon="-5.5090533"><ele>1280.0</ele><time>2026-04-23T16:26:09.903Z</time></trkpt><trkpt lat="31.52121" lon="-5.5092183"><ele>1280.6666666666667</ele><time>2026-04-23T16:26:10.903Z</time></trkpt><trkpt lat="31.5213433" lon="-5.50938"><ele>1281.3333333333333</ele><time>2026-04-23T16:26:11.904Z</time></trkpt><trkpt lat="31.5214917" lon="-5.5095367"><ele>1282.0</ele><time>2026-04-23T16:26:12.904Z</time></trkpt><trkpt lat="31.5216383" lon="-5.509695"><ele>1282.3333333333333</ele><time>2026-04-23T16:26:13.904Z</time></trkpt><trkpt lat="31.52179" lon="-5.5098483"><ele>1282.6666666666667</ele><time>2026-04-23T16:26:14.903Z</time></trkpt><trkpt lat="31.52194" lon="-5.51"><ele>1283.0</ele><time>2026-04-23T16:26:15.904Z</time></trkpt><trkpt lat="31.5220817" lon="-5.5101467"><ele>1283.3333333333335</ele><time>2026-04-23T16:26:16.904Z</time></trkpt><trkpt lat="31.5222283" lon="-5.5102883"><ele>1283.6666666666667</ele><time>2026-04-23T16:26:17.904Z</time></trkpt><trkpt lat="31.5223733" lon="-5.5104333"><ele>1284.0</ele><time>2026-04-23T16:26:18.904Z</time></trkpt><trkpt lat="31.5225267" lon="-5.5105817"><ele>1284.3333333333333</ele><time>2026-04-23T16:26:19.904Z</time></trkpt><trkpt lat="31.5226767" lon="-5.5107233"><ele>1284.6666666666665</ele><time>2026-04-23T16:26:20.903Z</time></trkpt><trkpt lat="31.52282" lon="-5.5108717"><ele>1285.0</ele><time>2026-04-23T16:26:21.904Z</time></trkpt><trkpt lat="31.52297" lon="-5.5110183"><ele>1285.3333333333333</ele><time>2026-04-23T16:26:22.904Z</time></trkpt><trkpt lat="31.5231167" lon="-5.5111667"><ele>1285.6666666666667</ele><time>2026-04-23T16:26:23.904Z</time></trkpt><trkpt lat="31.5232633" lon="-5.5113133"><ele>1286.0</ele><time>2026-04-23T16:26:24.903Z</time></trkpt><trkpt lat="31.52342" lon="-5.51146"><ele>1285.3333333333335</ele><time>2026-04-23T16:26:25.904Z</time></trkpt><trkpt lat="31.5235683" lon="-5.5115983"><ele>1284.6666666666667</ele><time>2026-04-23T16:26:26.903Z</time></trkpt><trkpt lat="31.5237067" lon="-5.511735"><ele>1284.0</ele><time>2026-04-23T16:26:27.903Z</time></trkpt><trkpt lat="31.5238433" lon="-5.511865"><ele>1284.0</ele><time>2026-04-23T16:26:28.904Z</time></trkpt><trkpt lat="31.5239833" lon="-5.51199"><ele>1284.0</ele><time>2026-04-23T16:26:29.904Z</time></trkpt><trkpt lat="31.524125" lon="-5.51212"><ele>1284.0</ele><time>2026-04-23T16:26:30.904Z</time></trkpt><trkpt lat="31.5242683" lon="-5.5122533"><ele>1284.3333333333333</ele><time>2026-04-23T16:26:31.904Z</time></trkpt><trkpt lat="31.52441" lon="-5.51239"><ele>1284.6666666666665</ele><time>2026-04-23T16:26:32.904Z</time></trkpt><trkpt lat="31.5245517" lon="-5.5125117"><ele>1285.0</ele><time>2026-04-23T16:26:33.904Z</time></trkpt><trkpt lat="31.5246883" lon="-5.5126283"><ele>1285.6666666666665</ele><time>2026-04-23T16:26:34.904Z</time></trkpt><trkpt lat="31.5248233" lon="-5.5127417"><ele>1286.3333333333333</ele><time>2026-04-23T16:26:35.904Z</time></trkpt><trkpt lat="31.5249583" lon="-5.5128633"><ele>1287.0</ele><time>2026-04-23T16:26:36.904Z</time></trkpt><trkpt lat="31.5250983" lon="-5.5129867"><ele>1287.0</ele><time>2026-04-23T16:26:37.903Z</time></trkpt><trkpt lat="31.5252317" lon="-5.5131133"><ele>1287.0</ele><time>2026-04-23T16:26:38.903Z</time></trkpt><trkpt lat="31.525365" lon="-5.5132367"><ele>1287.0</ele><time>2026-04-23T16:26:39.904Z</time></trkpt><trkpt lat="31.5254917" lon="-5.5133517"><ele>1287.6666666666667</ele><time>2026-04-23T16:26:40.903Z</time></trkpt><trkpt lat="31.5256117" lon="-5.5134683"><ele>1288.3333333333335</ele><time>2026-04-23T16:26:41.903Z</time></trkpt><trkpt lat="31.5257283" lon="-5.51357"><ele>1289.0</ele><time>2026-04-23T16:26:42.904Z</time></trkpt><trkpt lat="31.5258483" lon="-5.5136833"><ele>1289.0</ele><time>2026-04-23T16:26:43.904Z</time></trkpt><trkpt lat="31.5259633" lon="-5.5137983"><ele>1289.0</ele><time>2026-04-23T16:26:44.903Z</time></trkpt><trkpt lat="31.52609" lon="-5.513905"><ele>1289.0</ele><time>2026-04-23T16:26:45.903Z</time></trkpt><trkpt lat="31.526215" lon="-5.5140217"><ele>1289.3333333333335</ele><time>2026-04-23T16:26:46.904Z</time></trkpt><trkpt lat="31.5263367" lon="-5.5141283"><ele>1289.6666666666667</ele><time>2026-04-23T16:26:47.904Z</time></trkpt><trkpt lat="31.5264617" lon="-5.5142467"><ele>1290.0</ele><time>2026-04-23T16:26:48.903Z</time></trkpt><trkpt lat="31.52659" lon="-5.514375"><ele>1290.0</ele><time>2026-04-23T16:26:49.903Z</time></trkpt><trkpt lat="31.5267233" lon="-5.5145017"><ele>1290.0</ele><time>2026-04-23T16:26:50.903Z</time></trkpt><trkpt lat="31.5268667" lon="-5.5146383"><ele>1290.0</ele><time>2026-04-23T16:26:51.903Z</time></trkpt><trkpt lat="31.5270267" lon="-5.5147833"><ele>1290.6666666666667</ele><time>2026-04-23T16:26:52.904Z</time></trkpt><trkpt lat="31.5271833" lon="-5.5149267"><ele>1291.3333333333335</ele><time>2026-04-23T16:26:53.904Z</time></trkpt><trkpt lat="31.5273383" lon="-5.515055"><ele>1292.0</ele><time>2026-04-23T16:26:54.904Z</time></trkpt><trkpt lat="31.5274933" lon="-5.5151833"><ele>1292.0</ele><time>2026-04-23T16:26:55.904Z</time></trkpt><trkpt lat="31.5276517" lon="-5.5153183"><ele>1292.0</ele><time>2026-04-23T16:26:56.904Z</time></trkpt><trkpt lat="31.5278067" lon="-5.5154633"><ele>1292.0</ele><time>2026-04-23T16:26:57.904Z</time></trkpt><trkpt lat="31.5279683" lon="-5.5156083"><ele>1292.6666666666667</ele><time>2026-04-23T16:26:58.904Z</time></trkpt><trkpt lat="31.528125" lon="-5.5157567"><ele>1293.3333333333333</ele><time>2026-04-23T16:26:59.903Z</time></trkpt><trkpt lat="31.5282817" lon="-5.5159017"><ele>1294.0</ele><time>2026-04-23T16:27:00.904Z</time></trkpt><trkpt lat="31.5284367" lon="-5.5160383"><ele>1294.0</ele><time>2026-04-23T16:27:01.904Z</time></trkpt><trkpt lat="31.5285783" lon="-5.516165"><ele>1294.0</ele><time>2026-04-23T16:27:02.904Z</time></trkpt><trkpt lat="31.5287233" lon="-5.5162867"><ele>1294.0</ele><time>2026-04-23T16:27:03.904Z</time></trkpt><trkpt lat="31.52887" lon="-5.5164133"><ele>1294.6666666666665</ele><time>2026-04-23T16:27:04.904Z</time></trkpt><trkpt lat="31.5290117" lon="-5.5165467"><ele>1295.3333333333333</ele><time>2026-04-23T16:27:05.904Z</time></trkpt><trkpt lat="31.5291583" lon="-5.51668"><ele>1296.0</ele><time>2026-04-23T16:27:06.903Z</time></trkpt><trkpt lat="31.529295" lon="-5.5168183"><ele>1296.0</ele><time>2026-04-23T16:27:07.903Z</time></trkpt><trkpt lat="31.5294233" lon="-5.5169467"><ele>1296.0</ele><time>2026-04-23T16:27:08.904Z</time></trkpt><trkpt lat="31.529565" lon="-5.5170617"><ele>1296.0</ele><time>2026-04-23T16:27:09.904Z</time></trkpt><trkpt lat="31.5296933" lon="-5.517195"><ele>1296.3333333333333</ele><time>2026-04-23T16:27:10.903Z</time></trkpt><trkpt lat="31.5298283" lon="-5.5173283"><ele>1296.6666666666665</ele><time>2026-04-23T16:27:11.904Z</time></trkpt><trkpt lat="31.529955" lon="-5.51745"><ele>1297.0</ele><time>2026-04-23T16:27:12.904Z</time></trkpt><trkpt lat="31.5300817" lon="-5.5175633"><ele>1297.0</ele><time>2026-04-23T16:27:13.903Z</time></trkpt><trkpt lat="31.5301967" lon="-5.51767"><ele>1297.0</ele><time>2026-04-23T16:27:14.904Z</time></trkpt><trkpt lat="31.5303067" lon="-5.5177817"><ele>1297.0</ele><time>2026-04-23T16:27:15.903Z</time></trkpt><trkpt lat="31.530415" lon="-5.51789"><ele>1297.0</ele><time>2026-04-23T16:27:16.903Z</time></trkpt><trkpt lat="31.53051" lon="-5.5180083"><ele>1297.0</ele><time>2026-04-23T16:27:17.904Z</time></trkpt><trkpt lat="31.5306117" lon="-5.5181267"><ele>1297.0</ele><time>2026-04-23T16:27:18.903Z</time></trkpt><trkpt lat="31.5307083" lon="-5.51826"><ele>1297.0</ele><time>2026-04-23T16:27:19.904Z</time></trkpt><trkpt lat="31.530805" lon="-5.5184067"><ele>1297.0</ele><time>2026-04-23T16:27:20.903Z</time></trkpt><trkpt lat="31.5309033" lon="-5.5185633"><ele>1297.0</ele><time>2026-04-23T16:27:21.904Z</time></trkpt><trkpt lat="31.5309983" lon="-5.51874"><ele>1297.0</ele><time>2026-04-23T16:27:22.904Z</time></trkpt><trkpt lat="31.5310967" lon="-5.518925"><ele>1295.3333333333333</ele><time>2026-04-23T16:27:23.904Z</time></trkpt><trkpt lat="31.5311883" lon="-5.519135"><ele>1293.6666666666667</ele><time>2026-04-23T16:27:24.904Z</time></trkpt><trkpt lat="31.5312733" lon="-5.5193267"><ele>1292.0</ele><time>2026-04-23T16:27:25.904Z</time></trkpt><trkpt lat="31.5313533" lon="-5.5195167"><ele>1290.0</ele><time>2026-04-23T16:27:26.904Z</time></trkpt><trkpt lat="31.53142" lon="-5.519715"><ele>1288.0</ele><time>2026-04-23T16:27:27.904Z</time></trkpt><trkpt lat="31.5314817" lon="-5.5199317"><ele>1286.0</ele><time>2026-04-23T16:27:28.904Z</time></trkpt><trkpt lat="31.5315383" lon="-5.52015"><ele>1286.0</ele><time>2026-04-23T16:27:29.904Z</time></trkpt><trkpt lat="31.5315917" lon="-5.5203717"><ele>1286.0</ele><time>2026-04-23T16:27:30.904Z</time></trkpt><trkpt lat="31.5316467" lon="-5.5206017"><ele>1286.0</ele><time>2026-04-23T16:27:31.903Z</time></trkpt><trkpt lat="31.5316983" lon="-5.5208383"><ele>1287.3333333333335</ele><time>2026-04-23T16:27:32.904Z</time></trkpt><trkpt lat="31.5317483" lon="-5.5210717"><ele>1288.6666666666667</ele><time>2026-04-23T16:27:33.903Z</time></trkpt><trkpt lat="31.5318017" lon="-5.521295"><ele>1290.0</ele><time>2026-04-23T16:27:34.903Z</time></trkpt><trkpt lat="31.5318517" lon="-5.5214983"><ele>1291.0</ele><time>2026-04-23T16:27:35.904Z</time></trkpt><trkpt lat="31.531905" lon="-5.521705"><ele>1292.0</ele><time>2026-04-23T16:27:36.904Z</time></trkpt><trkpt lat="31.531955" lon="-5.5219133"><ele>1293.0</ele><time>2026-04-23T16:27:37.904Z</time></trkpt><trkpt lat="31.5320117" lon="-5.5221183"><ele>1292.3333333333333</ele><time>2026-04-23T16:27:38.904Z</time></trkpt><trkpt lat="31.5320583" lon="-5.5223367"><ele>1291.6666666666665</ele><time>2026-04-23T16:27:39.904Z</time></trkpt><trkpt lat="31.5321117" lon="-5.522565"><ele>1291.0</ele><time>2026-04-23T16:27:40.904Z</time></trkpt><trkpt lat="31.532165" lon="-5.522795"><ele>1291.3333333333333</ele><time>2026-04-23T16:27:41.904Z</time></trkpt><trkpt lat="31.5322217" lon="-5.52303"><ele>1291.6666666666667</ele><time>2026-04-23T16:27:42.904Z</time></trkpt><trkpt lat="31.5322817" lon="-5.5232517"><ele>1292.0</ele><time>2026-04-23T16:27:43.904Z</time></trkpt><trkpt lat="31.5323417" lon="-5.523455"><ele>1292.0</ele><time>2026-04-23T16:27:44.904Z</time></trkpt><trkpt lat="31.5323883" lon="-5.5236483"><ele>1292.0</ele><time>2026-04-23T16:27:45.904Z</time></trkpt><trkpt lat="31.5324217" lon="-5.523835"><ele>1292.0</ele><time>2026-04-23T16:27:46.903Z</time></trkpt><trkpt lat="31.5324483" lon="-5.5240167"><ele>1292.0</ele><time>2026-04-23T16:27:47.904Z</time></trkpt><trkpt lat="31.53247" lon="-5.5241833"><ele>1292.0</ele><time>2026-04-23T16:27:48.904Z</time></trkpt><trkpt lat="31.53249" lon="-5.5243517"><ele>1292.0</ele><time>2026-04-23T16:27:49.904Z</time></trkpt><trkpt lat="31.5325" lon="-5.5245267"><ele>1292.0</ele><time>2026-04-23T16:27:50.904Z</time></trkpt><trkpt lat="31.5325117" lon="-5.5246983"><ele>1292.5</ele><time>2026-04-23T16:27:51.903Z</time></trkpt><trkpt lat="31.532525" lon="-5.5248633"><ele>1293.0</ele><time>2026-04-23T16:27:52.904Z</time></trkpt><trkpt lat="31.5325267" lon="-5.5250217"><ele>1293.5</ele><time>2026-04-23T16:27:53.904Z</time></trkpt><trkpt lat="31.5325233" lon="-5.5251817"><ele>1294.0</ele><time>2026-04-23T16:27:54.904Z</time></trkpt><trkpt lat="31.53251" lon="-5.5253417"><ele>1295.3333333333333</ele><time>2026-04-23T16:27:55.904Z</time></trkpt><trkpt lat="31.532485" lon="-5.5255117"><ele>1296.6666666666667</ele><time>2026-04-23T16:27:56.904Z</time></trkpt><trkpt lat="31.5324583" lon="-5.5256917"><ele>1298.0</ele><time>2026-04-23T16:27:57.904Z</time></trkpt><trkpt lat="31.532425" lon="-5.5258833"><ele>1298.0</ele><time>2026-04-23T16:27:58.903Z</time></trkpt><trkpt lat="31.532395" lon="-5.526075"><ele>1298.0</ele><time>2026-04-23T16:27:59.904Z</time></trkpt><trkpt lat="31.5323733" lon="-5.5262633"><ele>1298.0</ele><time>2026-04-23T16:28:00.904Z</time></trkpt><trkpt lat="31.5323517" lon="-5.5264383"><ele>1298.5</ele><time>2026-04-23T16:28:01.904Z</time></trkpt><trkpt lat="31.5323417" lon="-5.526605"><ele>1299.0</ele><time>2026-04-23T16:28:02.904Z</time></trkpt><trkpt lat="31.532325" lon="-5.5267683"><ele>1299.5</ele><time>2026-04-23T16:28:03.904Z</time></trkpt><trkpt lat="31.5323017" lon="-5.526935"><ele>1300.0</ele><time>2026-04-23T16:28:04.903Z</time></trkpt><trkpt lat="31.5322783" lon="-5.527095"><ele>1300.75</ele><time>2026-04-23T16:28:05.904Z</time></trkpt><trkpt lat="31.5322533" lon="-5.527245"><ele>1301.5</ele><time>2026-04-23T16:28:06.904Z</time></trkpt><trkpt lat="31.5322317" lon="-5.52739"><ele>1302.25</ele><time>2026-04-23T16:28:07.904Z</time></trkpt><trkpt lat="31.5322133" lon="-5.52754"><ele>1303.0</ele><time>2026-04-23T16:28:08.904Z</time></trkpt><trkpt lat="31.5321917" lon="-5.5276833"><ele>1303.0</ele><time>2026-04-23T16:28:09.904Z</time></trkpt><trkpt lat="31.5321717" lon="-5.5278133"><ele>1303.0</ele><time>2026-04-23T16:28:10.904Z</time></trkpt><trkpt lat="31.5321533" lon="-5.5279433"><ele>1303.0</ele><time>2026-04-23T16:28:11.904Z</time></trkpt><trkpt lat="31.5321317" lon="-5.5280583"><ele>1303.0</ele><time>2026-04-23T16:28:12.903Z</time></trkpt><trkpt lat="31.5321217" lon="-5.5281717"><ele>1303.0</ele><time>2026-04-23T16:28:13.903Z</time></trkpt><trkpt lat="31.5321033" lon="-5.52829"><ele>1303.2</ele><time>2026-04-23T16:28:14.904Z</time></trkpt><trkpt lat="31.5320867" lon="-5.528405"><ele>1303.4</ele><time>2026-04-23T16:28:15.903Z</time></trkpt><trkpt lat="31.53208" lon="-5.5285183"><ele>1303.6000000000001</ele><time>2026-04-23T16:28:16.903Z</time></trkpt><trkpt lat="31.532065" lon="-5.5286333"><ele>1303.8000000000002</ele><time>2026-04-23T16:28:17.903Z</time></trkpt><trkpt lat="31.5320483" lon="-5.52875"><ele>1304.0</ele><time>2026-04-23T16:28:18.903Z</time></trkpt><trkpt lat="31.5320267" lon="-5.528865"><ele>1304.0</ele><time>2026-04-23T16:28:19.904Z</time></trkpt><trkpt lat="31.532005" lon="-5.5289717"><ele>1304.0</ele><time>2026-04-23T16:28:20.903Z</time></trkpt><trkpt lat="31.5319733" lon="-5.5290733"><ele>1304.0</ele><time>2026-04-23T16:28:21.903Z</time></trkpt><trkpt lat="31.5319367" lon="-5.5291717"><ele>1304.0</ele><time>2026-04-23T16:28:22.904Z</time></trkpt><trkpt lat="31.5318833" lon="-5.5292633"><ele>1304.0</ele><time>2026-04-23T16:28:23.903Z</time></trkpt><trkpt lat="31.5318233" lon="-5.529355"><ele>1304.0</ele><time>2026-04-23T16:28:24.904Z</time></trkpt><trkpt lat="31.53176" lon="-5.5294417"><ele>1304.0</ele><time>2026-04-23T16:28:25.904Z</time></trkpt><trkpt lat="31.5316833" lon="-5.52951"><ele>1304.0</ele><time>2026-04-23T16:28:26.903Z</time></trkpt><trkpt lat="31.531605" lon="-5.5295733"><ele>1304.0</ele><time>2026-04-23T16:28:27.904Z</time></trkpt><trkpt lat="31.5315233" lon="-5.5296333"><ele>1304.0</ele><time>2026-04-23T16:28:28.904Z</time></trkpt><trkpt lat="31.5314467" lon="-5.529685"><ele>1303.8333333333335</ele><time>2026-04-23T16:28:29.904Z</time></trkpt><trkpt lat="31.5313633" lon="-5.529725"><ele>1303.6666666666667</ele><time>2026-04-23T16:28:30.904Z</time></trkpt><trkpt lat="31.5312833" lon="-5.5297667"><ele>1303.5</ele><time>2026-04-23T16:28:31.904Z</time></trkpt><trkpt lat="31.5312033" lon="-5.529815"><ele>1303.3333333333333</ele><time>2026-04-23T16:28:32.903Z</time></trkpt><trkpt lat="31.5311267" lon="-5.529865"><ele>1303.1666666666665</ele><time>2026-04-23T16:28:33.904Z</time></trkpt><trkpt lat="31.5310533" lon="-5.5299067"><ele>1303.0</ele><time>2026-04-23T16:28:34.904Z</time></trkpt><trkpt lat="31.5309767" lon="-5.5299367"><ele>1301.6666666666665</ele><time>2026-04-23T16:28:35.903Z</time></trkpt><trkpt lat="31.5308983" lon="-5.5299517"><ele>1300.3333333333333</ele><time>2026-04-23T16:28:36.904Z</time></trkpt><trkpt lat="31.53082" lon="-5.5299517"><ele>1299.0</ele><time>2026-04-23T16:28:37.903Z</time></trkpt><trkpt lat="31.5307367" lon="-5.5299383"><ele>1297.6666666666667</ele><time>2026-04-23T16:28:38.904Z</time></trkpt><trkpt lat="31.53067" lon="-5.5299133"><ele>1296.3333333333335</ele><time>2026-04-23T16:28:39.904Z</time></trkpt><trkpt lat="31.5306" lon="-5.52988"><ele>1295.0</ele><time>2026-04-23T16:28:40.904Z</time></trkpt><trkpt lat="31.530535" lon="-5.529825"><ele>1295.0</ele><time>2026-04-23T16:28:41.904Z</time></trkpt><trkpt lat="31.5304717" lon="-5.5297433"><ele>1295.0</ele><time>2026-04-23T16:28:42.904Z</time></trkpt><trkpt lat="31.5304067" lon="-5.5296467"><ele>1295.0</ele><time>2026-04-23T16:28:43.904Z</time></trkpt><trkpt lat="31.5303433" lon="-5.5295467"><ele>1295.0</ele><time>2026-04-23T16:28:44.904Z</time></trkpt><trkpt lat="31.5302833" lon="-5.5294333"><ele>1295.0</ele><time>2026-04-23T16:28:45.904Z</time></trkpt><trkpt lat="31.530225" lon="-5.529325"><ele>1294.5</ele><time>2026-04-23T16:28:46.904Z</time></trkpt><trkpt lat="31.5301567" lon="-5.529215"><ele>1294.0</ele><time>2026-04-23T16:28:47.904Z</time></trkpt><trkpt lat="31.530085" lon="-5.5290983"><ele>1293.5</ele><time>2026-04-23T16:28:48.904Z</time></trkpt><trkpt lat="31.5300133" lon="-5.52899"><ele>1293.0</ele><time>2026-04-23T16:28:49.904Z</time></trkpt><trkpt lat="31.5299367" lon="-5.528895"><ele>1293.0</ele><time>2026-04-23T16:28:50.904Z</time></trkpt><trkpt lat="31.529855" lon="-5.5288167"><ele>1293.0</ele><time>2026-04-23T16:28:51.903Z</time></trkpt><trkpt lat="31.529755" lon="-5.5287533"><ele>1293.0</ele><time>2026-04-23T16:28:52.903Z</time></trkpt><trkpt lat="31.5296383" lon="-5.5287117"><ele>1293.0</ele><time>2026-04-23T16:28:53.904Z</time></trkpt><trkpt lat="31.5295217" lon="-5.5286983"><ele>1292.2</ele><time>2026-04-23T16:28:54.904Z</time></trkpt><trkpt lat="31.529405" lon="-5.528725"><ele>1291.4</ele><time>2026-04-23T16:28:55.904Z</time></trkpt><trkpt lat="31.529295" lon="-5.528755"><ele>1290.6000000000001</ele><time>2026-04-23T16:28:56.904Z</time></trkpt><trkpt lat="31.529195" lon="-5.5287883"><ele>1289.8000000000002</ele><time>2026-04-23T16:28:57.903Z</time></trkpt><trkpt lat="31.5290983" lon="-5.5288217"><ele>1289.0</ele><time>2026-04-23T16:28:58.904Z</time></trkpt><trkpt lat="31.5290083" lon="-5.5288617"><ele>1288.6666666666667</ele><time>2026-04-23T16:28:59.904Z</time></trkpt><trkpt lat="31.5289217" lon="-5.528895"><ele>1288.3333333333335</ele><time>2026-04-23T16:29:00.904Z</time></trkpt><trkpt lat="31.5288433" lon="-5.52893"><ele>1288.0</ele><time>2026-04-23T16:29:01.903Z</time></trkpt><trkpt lat="31.528765" lon="-5.5289567"><ele>1287.6666666666667</ele><time>2026-04-23T16:29:02.903Z</time></trkpt><trkpt lat="31.52868" lon="-5.5289883"><ele>1287.3333333333333</ele><time>2026-04-23T16:29:03.903Z</time></trkpt><trkpt lat="31.5285833" lon="-5.52903"><ele>1287.0</ele><time>2026-04-23T16:29:04.902Z</time></trkpt><trkpt lat="31.52848" lon="-5.52908"><ele>1286.3999999999999</ele><time>2026-04-23T16:29:05.902Z</time></trkpt><trkpt lat="31.5283833" lon="-5.52912"><ele>1285.8</ele><time>2026-04-23T16:29:06.902Z</time></trkpt><trkpt lat="31.52829" lon="-5.5291533"><ele>1285.2</ele><time>2026-04-23T16:29:07.903Z</time></trkpt><trkpt lat="31.5282017" lon="-5.5291917"><ele>1284.6</ele><time>2026-04-23T16:29:08.903Z</time></trkpt><trkpt lat="31.528115" lon="-5.5292283"><ele>1284.0</ele><time>2026-04-23T16:29:09.903Z</time></trkpt><trkpt lat="31.5280233" lon="-5.5292667"><ele>1284.0</ele><time>2026-04-23T16:29:10.902Z</time></trkpt><trkpt lat="31.5279333" lon="-5.5293033"><ele>1284.0</ele><time>2026-04-23T16:29:11.903Z</time></trkpt><trkpt lat="31.52784" lon="-5.5293367"><ele>1284.0</ele><time>2026-04-23T16:29:12.903Z</time></trkpt><trkpt lat="31.5277483" lon="-5.52937"><ele>1284.0</ele><time>2026-04-23T16:29:13.903Z</time></trkpt><trkpt lat="31.5276583" lon="-5.5294033"><ele>1284.0</ele><time>2026-04-23T16:29:14.903Z</time></trkpt><trkpt lat="31.5275667" lon="-5.529435"><ele>1284.2</ele><time>2026-04-23T16:29:15.902Z</time></trkpt><trkpt lat="31.5274733" lon="-5.5294717"><ele>1284.4</ele><time>2026-04-23T16:29:16.902Z</time></trkpt><trkpt lat="31.527375" lon="-5.529515"><ele>1284.6</ele><time>2026-04-23T16:29:17.902Z</time></trkpt><trkpt lat="31.527275" lon="-5.5295567"><ele>1284.8</ele><time>2026-04-23T16:29:18.903Z</time></trkpt><trkpt lat="31.5271783" lon="-5.52959"><ele>1285.0</ele><time>2026-04-23T16:29:19.903Z</time></trkpt><trkpt lat="31.5270883" lon="-5.5296267"><ele>1284.6666666666665</ele><time>2026-04-23T16:29:20.903Z</time></trkpt><trkpt lat="31.5269967" lon="-5.52966"><ele>1284.3333333333333</ele><time>2026-04-23T16:29:21.903Z</time></trkpt><trkpt lat="31.5269117" lon="-5.5296967"><ele>1284.0</ele><time>2026-04-23T16:29:22.902Z</time></trkpt><trkpt lat="31.5268333" lon="-5.5297283"><ele>1283.6666666666667</ele><time>2026-04-23T16:29:23.903Z</time></trkpt><trkpt lat="31.5267517" lon="-5.5297583"><ele>1283.3333333333335</ele><time>2026-04-23T16:29:24.902Z</time></trkpt><trkpt lat="31.52667" lon="-5.52979"><ele>1283.0</ele><time>2026-04-23T16:29:25.903Z</time></trkpt><trkpt lat="31.5265883" lon="-5.5298167"><ele>1283.0</ele><time>2026-04-23T16:29:26.903Z</time></trkpt><trkpt lat="31.5265083" lon="-5.529845"><ele>1283.0</ele><time>2026-04-23T16:29:27.902Z</time></trkpt><trkpt lat="31.5264283" lon="-5.529875"><ele>1283.0</ele><time>2026-04-23T16:29:28.903Z</time></trkpt><trkpt lat="31.5263467" lon="-5.5299067"><ele>1283.0</ele><time>2026-04-23T16:29:29.902Z</time></trkpt><trkpt lat="31.5262717" lon="-5.52994"><ele>1283.0</ele><time>2026-04-23T16:29:30.903Z</time></trkpt><trkpt lat="31.5262033" lon="-5.5299667"><ele>1283.0</ele><time>2026-04-23T16:29:31.903Z</time></trkpt><trkpt lat="31.5261383" lon="-5.5299983"><ele>1283.142857142857</ele><time>2026-04-23T16:29:32.903Z</time></trkpt><trkpt lat="31.5260717" lon="-5.5300183"><ele>1283.2857142857142</ele><time>2026-04-23T16:29:33.903Z</time></trkpt><trkpt lat="31.526" lon="-5.5300283"><ele>1283.4285714285713</ele><time>2026-04-23T16:29:34.902Z</time></trkpt><trkpt lat="31.5259367" lon="-5.5300317"><ele>1283.5714285714284</ele><time>2026-04-23T16:29:35.903Z</time></trkpt><trkpt lat="31.525875" lon="-5.5300067"><ele>1283.7142857142858</ele><time>2026-04-23T16:29:36.903Z</time></trkpt><trkpt lat="31.52581" lon="-5.5299633"><ele>1283.8571428571427</ele><time>2026-04-23T16:29:37.903Z</time></trkpt><trkpt lat="31.5257483" lon="-5.529895"><ele>1284.0</ele><time>2026-04-23T16:29:38.902Z</time></trkpt><trkpt lat="31.525685" lon="-5.5298267"><ele>1284.0</ele><time>2026-04-23T16:29:39.903Z</time></trkpt><trkpt lat="31.5256217" lon="-5.5297667"><ele>1284.0</ele><time>2026-04-23T16:29:40.902Z</time></trkpt><trkpt lat="31.525555" lon="-5.52971"><ele>1284.0</ele><time>2026-04-23T16:29:41.902Z</time></trkpt><trkpt lat="31.5254867" lon="-5.5296567"><ele>1284.0</ele><time>2026-04-23T16:29:42.903Z</time></trkpt><trkpt lat="31.5254183" lon="-5.5296083"><ele>1284.0</ele><time>2026-04-23T16:29:43.903Z</time></trkpt><trkpt lat="31.5253533" lon="-5.5295567"><ele>1284.0</ele><time>2026-04-23T16:29:44.903Z</time></trkpt><trkpt lat="31.5252783" lon="-5.5295017"><ele>1284.2</ele><time>2026-04-23T16:29:45.903Z</time></trkpt><trkpt lat="31.5251967" lon="-5.5294483"><ele>1284.4</ele><time>2026-04-23T16:29:46.902Z</time></trkpt><trkpt lat="31.5251117" lon="-5.529395"><ele>1284.6</ele><time>2026-04-23T16:29:47.903Z</time></trkpt><trkpt lat="31.5250283" lon="-5.5293483"><ele>1284.8</ele><time>2026-04-23T16:29:48.903Z</time></trkpt><trkpt lat="31.5249467" lon="-5.52931"><ele>1285.0</ele><time>2026-04-23T16:29:49.903Z</time></trkpt><trkpt lat="31.5248667" lon="-5.52928"><ele>1285.0</ele><time>2026-04-23T16:29:50.903Z</time></trkpt><trkpt lat="31.5247883" lon="-5.5292683"><ele>1285.0</ele><time>2026-04-23T16:29:51.903Z</time></trkpt><trkpt lat="31.5247117" lon="-5.5292783"><ele>1285.0</ele><time>2026-04-23T16:29:52.902Z</time></trkpt><trkpt lat="31.5246417" lon="-5.5292983"><ele>1285.0</ele><time>2026-04-23T16:29:53.903Z</time></trkpt><trkpt lat="31.5245617" lon="-5.5293233"><ele>1285.0</ele><time>2026-04-23T16:29:54.903Z</time></trkpt><trkpt lat="31.52448" lon="-5.52934"><ele>1285.0</ele><time>2026-04-23T16:29:55.902Z</time></trkpt><trkpt lat="31.5243833" lon="-5.52936"><ele>1285.4</ele><time>2026-04-23T16:29:56.903Z</time></trkpt><trkpt lat="31.5242817" lon="-5.5293717"><ele>1285.8</ele><time>2026-04-23T16:29:57.902Z</time></trkpt><trkpt lat="31.524185" lon="-5.5293683"><ele>1286.1999999999998</ele><time>2026-04-23T16:29:58.903Z</time></trkpt><trkpt lat="31.5240833" lon="-5.5293517"><ele>1286.6</ele><time>2026-04-23T16:29:59.903Z</time></trkpt><trkpt lat="31.5239867" lon="-5.5293367"><ele>1287.0</ele><time>2026-04-23T16:30:00.903Z</time></trkpt><trkpt lat="31.523895" lon="-5.52932"><ele>1287.0</ele><time>2026-04-23T16:30:01.903Z</time></trkpt><trkpt lat="31.523795" lon="-5.5292933"><ele>1287.0</ele><time>2026-04-23T16:30:02.903Z</time></trkpt><trkpt lat="31.5237067" lon="-5.5292867"><ele>1287.0</ele><time>2026-04-23T16:30:03.903Z</time></trkpt><trkpt lat="31.5236167" lon="-5.5292833"><ele>1287.0</ele><time>2026-04-23T16:30:04.903Z</time></trkpt><trkpt lat="31.5235333" lon="-5.5292767"><ele>1287.0</ele><time>2026-04-23T16:30:05.902Z</time></trkpt><trkpt lat="31.5234517" lon="-5.52928"><ele>1287.0</ele><time>2026-04-23T16:30:06.903Z</time></trkpt><trkpt lat="31.523375" lon="-5.5293067"><ele>1287.6666666666667</ele><time>2026-04-23T16:30:07.903Z</time></trkpt><trkpt lat="31.5233033" lon="-5.529355"><ele>1288.3333333333333</ele><time>2026-04-23T16:30:08.903Z</time></trkpt><trkpt lat="31.523235" lon="-5.5294167"><ele>1289.0</ele><time>2026-04-23T16:30:09.902Z</time></trkpt><trkpt lat="31.5231733" lon="-5.5294867"><ele>1289.6666666666665</ele><time>2026-04-23T16:30:10.902Z</time></trkpt><trkpt lat="31.5231083" lon="-5.52957"><ele>1290.3333333333333</ele><time>2026-04-23T16:30:11.903Z</time></trkpt><trkpt lat="31.5230383" lon="-5.5296467"><ele>1291.0</ele><time>2026-04-23T16:30:12.903Z</time></trkpt><trkpt lat="31.5229667" lon="-5.52972"><ele>1292.4</ele><time>2026-04-23T16:30:13.902Z</time></trkpt><trkpt lat="31.522895" lon="-5.529795"><ele>1293.8</ele><time>2026-04-23T16:30:14.902Z</time></trkpt><trkpt lat="31.5228183" lon="-5.5298683"><ele>1295.2</ele><time>2026-04-23T16:30:15.903Z</time></trkpt><trkpt lat="31.5227467" lon="-5.5299417"><ele>1296.6000000000001</ele><time>2026-04-23T16:30:16.903Z</time></trkpt><trkpt lat="31.522675" lon="-5.53001"><ele>1298.0</ele><time>2026-04-23T16:30:17.902Z</time></trkpt><trkpt lat="31.5226017" lon="-5.530085"><ele>1298.0</ele><time>2026-04-23T16:30:18.902Z</time></trkpt><trkpt lat="31.5225367" lon="-5.5301517"><ele>1298.0</ele><time>2026-04-23T16:30:19.903Z</time></trkpt><trkpt lat="31.522475" lon="-5.5302133"><ele>1298.0</ele><time>2026-04-23T16:30:20.903Z</time></trkpt><trkpt lat="31.5224217" lon="-5.5302683"><ele>1298.0</ele><time>2026-04-23T16:30:21.903Z</time></trkpt><trkpt lat="31.5223733" lon="-5.5303233"><ele>1298.0</ele><time>2026-04-23T16:30:22.903Z</time></trkpt><trkpt lat="31.522305" lon="-5.5304033"><ele>1298.0</ele><time>2026-04-23T16:30:24.903Z</time></trkpt><trkpt lat="31.5222517" lon="-5.530455"><ele>1297.75</ele><time>2026-04-23T16:30:26.903Z</time></trkpt><trkpt lat="31.5221183" lon="-5.5305883"><ele>1297.5</ele><time>2026-04-23T16:30:55.903Z</time></trkpt><trkpt lat="31.5220383" lon="-5.5306867"><ele>1297.25</ele><time>2026-04-23T16:30:56.902Z</time></trkpt><trkpt lat="31.5219583" lon="-5.530785"><ele>1297.0</ele><time>2026-04-23T16:30:57.903Z</time></trkpt><trkpt lat="31.521875" lon="-5.5308933"><ele>1297.0</ele><time>2026-04-23T16:30:58.903Z</time></trkpt><trkpt lat="31.5218083" lon="-5.530995"><ele>1297.0</ele><time>2026-04-23T16:30:59.903Z</time></trkpt><trkpt lat="31.5217433" lon="-5.5311117"><ele>1297.0</ele><time>2026-04-23T16:31:00.903Z</time></trkpt><trkpt lat="31.5216817" lon="-5.5312167"><ele>1297.0</ele><time>2026-04-23T16:31:01.903Z</time></trkpt><trkpt lat="31.5216183" lon="-5.5313233"><ele>1297.0</ele><time>2026-04-23T16:31:02.903Z</time></trkpt><trkpt lat="31.52155" lon="-5.5314333"><ele>1297.75</ele><time>2026-04-23T16:31:03.903Z</time></trkpt><trkpt lat="31.5214817" lon="-5.5315467"><ele>1298.5</ele><time>2026-04-23T16:31:04.903Z</time></trkpt><trkpt lat="31.5214117" lon="-5.531665"><ele>1299.25</ele><time>2026-04-23T16:31:05.903Z</time></trkpt><trkpt lat="31.52134" lon="-5.5317883"><ele>1300.0</ele><time>2026-04-23T16:31:06.902Z</time></trkpt><trkpt lat="31.52127" lon="-5.5319133"><ele>1299.5</ele><time>2026-04-23T16:31:07.903Z</time></trkpt><trkpt lat="31.5212033" lon="-5.5320467"><ele>1299.0</ele><time>2026-04-23T16:31:08.902Z</time></trkpt><trkpt lat="31.5211267" lon="-5.532175"><ele>1298.5</ele><time>2026-04-23T16:31:09.903Z</time></trkpt><trkpt lat="31.52105" lon="-5.532305"><ele>1298.0</ele><time>2026-04-23T16:31:10.903Z</time></trkpt><trkpt lat="31.5209817" lon="-5.5324283"><ele>1298.0</ele><time>2026-04-23T16:31:11.903Z</time></trkpt><trkpt lat="31.5209167" lon="-5.5325417"><ele>1298.0</ele><time>2026-04-23T16:31:12.903Z</time></trkpt><trkpt lat="31.520855" lon="-5.53265"><ele>1298.0</ele><time>2026-04-23T16:31:13.903Z</time></trkpt><trkpt lat="31.5207983" lon="-5.53275"><ele>1298.0</ele><time>2026-04-23T16:31:14.903Z</time></trkpt><trkpt lat="31.520745" lon="-5.53285"><ele>1298.0</ele><time>2026-04-23T16:31:15.903Z</time></trkpt><trkpt lat="31.520695" lon="-5.5329417"><ele>1298.8000000000002</ele><time>2026-04-23T16:31:16.903Z</time></trkpt><trkpt lat="31.5206517" lon="-5.5330317"><ele>1299.6</ele><time>2026-04-23T16:31:17.902Z</time></trkpt><trkpt lat="31.5206167" lon="-5.5331217"><ele>1300.4</ele><time>2026-04-23T16:31:18.903Z</time></trkpt><trkpt lat="31.520585" lon="-5.5332033"><ele>1301.1999999999998</ele><time>2026-04-23T16:31:19.903Z</time></trkpt><trkpt lat="31.5205583" lon="-5.53328"><ele>1302.0</ele><time>2026-04-23T16:31:20.902Z</time></trkpt><trkpt lat="31.5204833" lon="-5.5334133"><ele>1302.0</ele><time>2026-04-23T16:31:22.902Z</time></trkpt><trkpt lat="31.5204283" lon="-5.533475"><ele>1302.0</ele><time>2026-04-23T16:31:23.903Z</time></trkpt><trkpt lat="31.520355" lon="-5.5335383"><ele>1302.0</ele><time>2026-04-23T16:31:24.903Z</time></trkpt><trkpt lat="31.5202817" lon="-5.533605"><ele>1302.0</ele><time>2026-04-23T16:31:25.903Z</time></trkpt><trkpt lat="31.5202" lon="-5.5336783"><ele>1302.0</ele><time>2026-04-23T16:31:26.903Z</time></trkpt><trkpt lat="31.520115" lon="-5.533755"><ele>1301.25</ele><time>2026-04-23T16:31:27.903Z</time></trkpt><trkpt lat="31.5200233" lon="-5.5338317"><ele>1300.5</ele><time>2026-04-23T16:31:28.903Z</time></trkpt><trkpt lat="31.519935" lon="-5.5339067"><ele>1299.75</ele><time>2026-04-23T16:31:29.903Z</time></trkpt><trkpt lat="31.51984" lon="-5.53398"><ele>1299.0</ele><time>2026-04-23T16:31:30.903Z</time></trkpt><trkpt lat="31.5197367" lon="-5.53406"><ele>1299.0</ele><time>2026-04-23T16:31:31.903Z</time></trkpt><trkpt lat="31.5196433" lon="-5.5341417"><ele>1299.0</ele><time>2026-04-23T16:31:32.902Z</time></trkpt><trkpt lat="31.5195633" lon="-5.5342267"><ele>1299.0</ele><time>2026-04-23T16:31:33.903Z</time></trkpt><trkpt lat="31.5194883" lon="-5.5343"><ele>1299.0</ele><time>2026-04-23T16:31:34.903Z</time></trkpt><trkpt lat="31.5194167" lon="-5.5343717"><ele>1299.0</ele><time>2026-04-23T16:31:35.903Z</time></trkpt><trkpt lat="31.5193517" lon="-5.5344267"><ele>1298.8000000000002</ele><time>2026-04-23T16:31:36.903Z</time></trkpt><trkpt lat="31.5192917" lon="-5.534485"><ele>1298.6000000000001</ele><time>2026-04-23T16:31:37.903Z</time></trkpt><trkpt lat="31.5192017" lon="-5.534555"><ele>1298.4</ele><time>2026-04-23T16:31:39.902Z</time></trkpt><trkpt lat="31.51911" lon="-5.5346283"><ele>1298.2</ele><time>2026-04-23T16:32:09.902Z</time></trkpt><trkpt lat="31.519055" lon="-5.53468"><ele>1298.0</ele><time>2026-04-23T16:32:10.903Z</time></trkpt><trkpt lat="31.51898" lon="-5.53475"><ele>1298.0</ele><time>2026-04-23T16:32:11.903Z</time></trkpt><trkpt lat="31.518895" lon="-5.534825"><ele>1298.0</ele><time>2026-04-23T16:32:12.903Z</time></trkpt><trkpt lat="31.5187883" lon="-5.534915"><ele>1298.0</ele><time>2026-04-23T16:32:13.903Z</time></trkpt><trkpt lat="31.5186783" lon="-5.535005"><ele>1298.0</ele><time>2026-04-23T16:32:14.902Z</time></trkpt><trkpt lat="31.518575" lon="-5.5350883"><ele>1298.0</ele><time>2026-04-23T16:32:15.903Z</time></trkpt><trkpt lat="31.5184833" lon="-5.5351683"><ele>1298.0</ele><time>2026-04-23T16:32:16.903Z</time></trkpt><trkpt lat="31.5183983" lon="-5.53524"><ele>1298.0</ele><time>2026-04-23T16:32:17.903Z</time></trkpt><trkpt lat="31.5183217" lon="-5.535305"><ele>1298.0</ele><time>2026-04-23T16:32:18.903Z</time></trkpt><trkpt lat="31.518245" lon="-5.5353717"><ele>1298.0</ele><time>2026-04-23T16:32:19.903Z</time></trkpt><trkpt lat="31.5181667" lon="-5.5354333"><ele>1298.1666666666667</ele><time>2026-04-23T16:32:20.903Z</time></trkpt><trkpt lat="31.5180917" lon="-5.5354883"><ele>1298.3333333333335</ele><time>2026-04-23T16:32:21.903Z</time></trkpt><trkpt lat="31.5180133" lon="-5.535545"><ele>1298.5</ele><time>2026-04-23T16:32:22.903Z</time></trkpt><trkpt lat="31.5179417" lon="-5.5356167"><ele>1298.6666666666667</ele><time>2026-04-23T16:32:23.903Z</time></trkpt><trkpt lat="31.51788" lon="-5.53568"><ele>1298.8333333333333</ele><time>2026-04-23T16:32:24.903Z</time></trkpt><trkpt lat="31.51782" lon="-5.5357383"><ele>1299.0</ele><time>2026-04-23T16:32:25.903Z</time></trkpt><trkpt lat="31.5177583" lon="-5.5357917"><ele>1299.0</ele><time>2026-04-23T16:32:26.903Z</time></trkpt><trkpt lat="31.5176933" lon="-5.53585"><ele>1299.0</ele><time>2026-04-23T16:32:27.903Z</time></trkpt><trkpt lat="31.517625" lon="-5.535915"><ele>1299.0</ele><time>2026-04-23T16:32:28.903Z</time></trkpt><trkpt lat="31.51755" lon="-5.5359683"><ele>1299.0</ele><time>2026-04-23T16:32:29.903Z</time></trkpt><trkpt lat="31.517475" lon="-5.5360333"><ele>1299.0</ele><time>2026-04-23T16:32:30.903Z</time></trkpt><trkpt lat="31.5174067" lon="-5.5361017"><ele>1299.0</ele><time>2026-04-23T16:32:31.903Z</time></trkpt><trkpt lat="31.5173383" lon="-5.536155"><ele>1299.0</ele><time>2026-04-23T16:32:32.902Z</time></trkpt><trkpt lat="31.5172717" lon="-5.5362133"><ele>1299.0</ele><time>2026-04-23T16:32:33.903Z</time></trkpt><trkpt lat="31.5172033" lon="-5.536275"><ele>1299.0</ele><time>2026-04-23T16:32:34.903Z</time></trkpt><trkpt lat="31.5171317" lon="-5.5363367"><ele>1299.0</ele><time>2026-04-23T16:32:35.902Z</time></trkpt><trkpt lat="31.5170567" lon="-5.536395"><ele>1299.0</ele><time>2026-04-23T16:32:36.902Z</time></trkpt><trkpt lat="31.5169833" lon="-5.5364583"><ele>1299.0</ele><time>2026-04-23T16:32:37.903Z</time></trkpt><trkpt lat="31.51691" lon="-5.536525"><ele>1299.0</ele><time>2026-04-23T16:32:38.903Z</time></trkpt><trkpt lat="31.5168333" lon="-5.5365933"><ele>1299.0</ele><time>2026-04-23T16:32:39.902Z</time></trkpt><trkpt lat="31.516755" lon="-5.5366633"><ele>1299.0</ele><time>2026-04-23T16:32:40.903Z</time></trkpt><trkpt lat="31.5166717" lon="-5.5367333"><ele>1299.0</ele><time>2026-04-23T16:32:41.902Z</time></trkpt><trkpt lat="31.5165867" lon="-5.536805"><ele>1299.0</ele><time>2026-04-23T16:32:42.903Z</time></trkpt><trkpt lat="31.5165033" lon="-5.536875"><ele>1299.0</ele><time>2026-04-23T16:32:43.903Z</time></trkpt><trkpt lat="31.516415" lon="-5.5369383"><ele>1299.0</ele><time>2026-04-23T16:32:44.903Z</time></trkpt><trkpt lat="31.5163267" lon="-5.537"><ele>1299.0</ele><time>2026-04-23T16:32:45.902Z</time></trkpt><trkpt lat="31.51624" lon="-5.53707"><ele>1299.0</ele><time>2026-04-23T16:32:46.903Z</time></trkpt><trkpt lat="31.5161517" lon="-5.5371483"><ele>1299.0</ele><time>2026-04-23T16:32:47.903Z</time></trkpt><trkpt lat="31.5160567" lon="-5.53723"><ele>1298.25</ele><time>2026-04-23T16:32:48.902Z</time></trkpt><trkpt lat="31.5159567" lon="-5.5373183"><ele>1297.5</ele><time>2026-04-23T16:32:49.903Z</time></trkpt><trkpt lat="31.5158517" lon="-5.5374067"><ele>1296.75</ele><time>2026-04-23T16:32:50.903Z</time></trkpt><trkpt lat="31.51575" lon="-5.5374983"><ele>1296.0</ele><time>2026-04-23T16:32:51.903Z</time></trkpt><trkpt lat="31.5156567" lon="-5.5375933"><ele>1296.0</ele><time>2026-04-23T16:32:52.902Z</time></trkpt><trkpt lat="31.515565" lon="-5.5376767"><ele>1296.0</ele><time>2026-04-23T16:32:53.903Z</time></trkpt><trkpt lat="31.5154733" lon="-5.53776"><ele>1296.0</ele><time>2026-04-23T16:32:54.902Z</time></trkpt><trkpt lat="31.5153733" lon="-5.5378517"><ele>1296.0</ele><time>2026-04-23T16:32:55.903Z</time></trkpt><trkpt lat="31.5152717" lon="-5.537935"><ele>1295.75</ele><time>2026-04-23T16:32:56.903Z</time></trkpt><trkpt lat="31.515175" lon="-5.5380217"><ele>1295.5</ele><time>2026-04-23T16:32:57.903Z</time></trkpt><trkpt lat="31.5150767" lon="-5.5380917"><ele>1295.25</ele><time>2026-04-23T16:32:58.903Z</time></trkpt><trkpt lat="31.514985" lon="-5.538175"><ele>1295.0</ele><time>2026-04-23T16:32:59.902Z</time></trkpt><trkpt lat="31.5148967" lon="-5.53825"><ele>1295.0</ele><time>2026-04-23T16:33:00.903Z</time></trkpt><trkpt lat="31.5148033" lon="-5.53833"><ele>1295.0</ele><time>2026-04-23T16:33:01.902Z</time></trkpt><trkpt lat="31.5147117" lon="-5.5384"><ele>1295.0</ele><time>2026-04-23T16:33:02.903Z</time></trkpt><trkpt lat="31.51463" lon="-5.5384617"><ele>1295.0</ele><time>2026-04-23T16:33:03.903Z</time></trkpt><trkpt lat="31.51456" lon="-5.5385217"><ele>1295.0</ele><time>2026-04-23T16:33:04.903Z</time></trkpt><trkpt lat="31.5145" lon="-5.5385733"><ele>1295.0</ele><time>2026-04-23T16:33:05.902Z</time></trkpt><trkpt lat="31.514435" lon="-5.5386283"><ele>1295.0</ele><time>2026-04-23T16:33:06.903Z</time></trkpt><trkpt lat="31.5143483" lon="-5.5386967"><ele>1295.0</ele><time>2026-04-23T16:33:07.902Z</time></trkpt><trkpt lat="31.5142283" lon="-5.5388033"><ele>1295.0</ele><time>2026-04-23T16:33:08.903Z</time></trkpt><trkpt lat="31.5141017" lon="-5.53892"><ele>1295.25</ele><time>2026-04-23T16:33:09.902Z</time></trkpt><trkpt lat="31.513975" lon="-5.5390217"><ele>1295.5</ele><time>2026-04-23T16:33:10.902Z</time></trkpt><trkpt lat="31.51385" lon="-5.539105"><ele>1295.75</ele><time>2026-04-23T16:33:11.902Z</time></trkpt><trkpt lat="31.5137217" lon="-5.539165"><ele>1296.0</ele><time>2026-04-23T16:33:12.903Z</time></trkpt><trkpt lat="31.5135883" lon="-5.5392133"><ele>1295.5</ele><time>2026-04-23T16:33:13.902Z</time></trkpt><trkpt lat="31.5134617" lon="-5.539265"><ele>1295.0</ele><time>2026-04-23T16:33:14.902Z</time></trkpt><trkpt lat="31.5133267" lon="-5.5393033"><ele>1294.5</ele><time>2026-04-23T16:33:15.903Z</time></trkpt><trkpt lat="31.5131767" lon="-5.5393333"><ele>1294.0</ele><time>2026-04-23T16:33:16.903Z</time></trkpt><trkpt lat="31.5130317" lon="-5.5393483"><ele>1293.0</ele><time>2026-04-23T16:33:17.903Z</time></trkpt><trkpt lat="31.5128967" lon="-5.5393433"><ele>1292.0</ele><time>2026-04-23T16:33:18.903Z</time></trkpt><trkpt lat="31.51277" lon="-5.5393317"><ele>1291.0</ele><time>2026-04-23T16:33:19.903Z</time></trkpt><trkpt lat="31.5126433" lon="-5.5393117"><ele>1290.0</ele><time>2026-04-23T16:33:20.902Z</time></trkpt><trkpt lat="31.5125133" lon="-5.5392817"><ele>1290.0</ele><time>2026-04-23T16:33:21.903Z</time></trkpt><trkpt lat="31.5123833" lon="-5.5392383"><ele>1290.0</ele><time>2026-04-23T16:33:22.902Z</time></trkpt><trkpt lat="31.5122483" lon="-5.53918"><ele>1290.0</ele><time>2026-04-23T16:33:23.903Z</time></trkpt><trkpt lat="31.5121267" lon="-5.5391283"><ele>1290.0</ele><time>2026-04-23T16:33:24.903Z</time></trkpt><trkpt lat="31.5120067" lon="-5.5390767"><ele>1289.25</ele><time>2026-04-23T16:33:25.903Z</time></trkpt><trkpt lat="31.5118867" lon="-5.5390267"><ele>1288.5</ele><time>2026-04-23T16:33:26.903Z</time></trkpt><trkpt lat="31.51177" lon="-5.5389817"><ele>1287.75</ele><time>2026-04-23T16:33:27.903Z</time></trkpt><trkpt lat="31.5116583" lon="-5.5389483"><ele>1287.0</ele><time>2026-04-23T16:33:28.903Z</time></trkpt><trkpt lat="31.5115533" lon="-5.5389083"><ele>1287.0</ele><time>2026-04-23T16:33:29.903Z</time></trkpt><trkpt lat="31.5114467" lon="-5.53887"><ele>1287.0</ele><time>2026-04-23T16:33:30.903Z</time></trkpt><trkpt lat="31.51134" lon="-5.5388367"><ele>1287.0</ele><time>2026-04-23T16:33:31.903Z</time></trkpt><trkpt lat="31.5112367" lon="-5.53881"><ele>1287.0</ele><time>2026-04-23T16:33:32.903Z</time></trkpt><trkpt lat="31.5111383" lon="-5.5387833"><ele>1287.0</ele><time>2026-04-23T16:33:33.903Z</time></trkpt><trkpt lat="31.511045" lon="-5.5387567"><ele>1286.6</ele><time>2026-04-23T16:33:34.903Z</time></trkpt><trkpt lat="31.51095" lon="-5.5387267"><ele>1286.1999999999998</ele><time>2026-04-23T16:33:35.903Z</time></trkpt><trkpt lat="31.5108533" lon="-5.5386933"><ele>1285.8</ele><time>2026-04-23T16:33:36.903Z</time></trkpt><trkpt lat="31.5107617" lon="-5.5386683"><ele>1285.4</ele><time>2026-04-23T16:33:37.902Z</time></trkpt><trkpt lat="31.510675" lon="-5.5386383"><ele>1285.0</ele><time>2026-04-23T16:33:38.903Z</time></trkpt><trkpt lat="31.51058" lon="-5.538615"><ele>1285.0</ele><time>2026-04-23T16:33:39.903Z</time></trkpt><trkpt lat="31.51048" lon="-5.5386033"><ele>1285.0</ele><time>2026-04-23T16:33:40.903Z</time></trkpt><trkpt lat="31.51038" lon="-5.53859"><ele>1285.0</ele><time>2026-04-23T16:33:41.903Z</time></trkpt><trkpt lat="31.510285" lon="-5.5385867"><ele>1285.0</ele><time>2026-04-23T16:33:42.903Z</time></trkpt><trkpt lat="31.5101983" lon="-5.5386117"><ele>1285.0</ele><time>2026-04-23T16:33:43.902Z</time></trkpt><trkpt lat="31.5101133" lon="-5.538615"><ele>1285.0</ele><time>2026-04-23T16:33:44.902Z</time></trkpt><trkpt lat="31.5100267" lon="-5.5386283"><ele>1285.0</ele><time>2026-04-23T16:33:45.903Z</time></trkpt><trkpt lat="31.5099317" lon="-5.5386433"><ele>1285.0</ele><time>2026-04-23T16:33:46.902Z</time></trkpt><trkpt lat="31.5098317" lon="-5.53866"><ele>1285.0</ele><time>2026-04-23T16:33:47.903Z</time></trkpt><trkpt lat="31.5097283" lon="-5.538685"><ele>1285.0</ele><time>2026-04-23T16:33:48.903Z</time></trkpt><trkpt lat="31.50963" lon="-5.5387083"><ele>1284.8</ele><time>2026-04-23T16:33:49.903Z</time></trkpt><trkpt lat="31.50954" lon="-5.538735"><ele>1284.6</ele><time>2026-04-23T16:33:50.902Z</time></trkpt><trkpt lat="31.5094517" lon="-5.5387533"><ele>1284.4</ele><time>2026-04-23T16:33:51.903Z</time></trkpt><trkpt lat="31.509355" lon="-5.5387717"><ele>1284.2</ele><time>2026-04-23T16:33:52.903Z</time></trkpt><trkpt lat="31.5092533" lon="-5.5387883"><ele>1284.0</ele><time>2026-04-23T16:33:53.903Z</time></trkpt><trkpt lat="31.50917" lon="-5.5388067"><ele>1284.0</ele><time>2026-04-23T16:33:54.902Z</time></trkpt><trkpt lat="31.509085" lon="-5.5388283"><ele>1284.0</ele><time>2026-04-23T16:33:55.903Z</time></trkpt><trkpt lat="31.508995" lon="-5.5388467"><ele>1284.0</ele><time>2026-04-23T16:33:56.903Z</time></trkpt><trkpt lat="31.5089" lon="-5.538865"><ele>1284.0</ele><time>2026-04-23T16:33:57.903Z</time></trkpt><trkpt lat="31.5088017" lon="-5.53888"><ele>1284.0</ele><time>2026-04-23T16:33:58.903Z</time></trkpt><trkpt lat="31.5087" lon="-5.5388967"><ele>1283.8000000000002</ele><time>2026-04-23T16:33:59.903Z</time></trkpt><trkpt lat="31.5086017" lon="-5.53892"><ele>1283.6000000000001</ele><time>2026-04-23T16:34:00.903Z</time></trkpt><trkpt lat="31.5085033" lon="-5.5389417"><ele>1283.4</ele><time>2026-04-23T16:34:01.903Z</time></trkpt><trkpt lat="31.508415" lon="-5.53897"><ele>1283.2</ele><time>2026-04-23T16:34:02.903Z</time></trkpt><trkpt lat="31.50833" lon="-5.538995"><ele>1283.0</ele><time>2026-04-23T16:34:03.903Z</time></trkpt><trkpt lat="31.5082383" lon="-5.5390083"><ele>1283.0</ele><time>2026-04-23T16:34:04.903Z</time></trkpt><trkpt lat="31.5081417" lon="-5.53902"><ele>1283.0</ele><time>2026-04-23T16:34:05.903Z</time></trkpt><trkpt lat="31.5080533" lon="-5.5390383"><ele>1283.0</ele><time>2026-04-23T16:34:06.903Z</time></trkpt><trkpt lat="31.507955" lon="-5.5390567"><ele>1283.0</ele><time>2026-04-23T16:34:07.903Z</time></trkpt><trkpt lat="31.50785" lon="-5.53909"><ele>1283.0</ele><time>2026-04-23T16:34:08.902Z</time></trkpt><trkpt lat="31.5077483" lon="-5.5391167"><ele>1283.3333333333335</ele><time>2026-04-23T16:34:09.903Z</time></trkpt><trkpt lat="31.5076483" lon="-5.5391333"><ele>1283.6666666666667</ele><time>2026-04-23T16:34:10.903Z</time></trkpt><trkpt lat="31.507555" lon="-5.5391517"><ele>1284.0</ele><time>2026-04-23T16:34:11.903Z</time></trkpt><trkpt lat="31.5074667" lon="-5.5391667"><ele>1284.3333333333333</ele><time>2026-04-23T16:34:12.903Z</time></trkpt><trkpt lat="31.507385" lon="-5.5391867"><ele>1284.6666666666665</ele><time>2026-04-23T16:34:13.903Z</time></trkpt><trkpt lat="31.5073067" lon="-5.5391967"><ele>1285.0</ele><time>2026-04-23T16:34:14.902Z</time></trkpt><trkpt lat="31.5072" lon="-5.5392333"><ele>1285.0</ele><time>2026-04-23T16:34:16.903Z</time></trkpt><trkpt lat="31.5071333" lon="-5.5392567"><ele>1285.0</ele><time>2026-04-23T16:34:18.903Z</time></trkpt><trkpt lat="31.5070433" lon="-5.5392717"><ele>1285.0</ele><time>2026-04-23T16:34:24.903Z</time></trkpt><trkpt lat="31.50698" lon="-5.5392817"><ele>1285.0</ele><time>2026-04-23T16:34:25.902Z</time></trkpt><trkpt lat="31.5069" lon="-5.5392983"><ele>1285.0</ele><time>2026-04-23T16:34:26.903Z</time></trkpt><trkpt lat="31.5067883" lon="-5.5393317"><ele>1285.0</ele><time>2026-04-23T16:34:27.903Z</time></trkpt><trkpt lat="31.506655" lon="-5.539365"><ele>1284.75</ele><time>2026-04-23T16:34:28.903Z</time></trkpt><trkpt lat="31.5065117" lon="-5.5394033"><ele>1284.5</ele><time>2026-04-23T16:34:29.903Z</time></trkpt><trkpt lat="31.5063733" lon="-5.5394417"><ele>1284.25</ele><time>2026-04-23T16:34:30.903Z</time></trkpt><trkpt lat="31.50625" lon="-5.5394733"><ele>1284.0</ele><time>2026-04-23T16:34:31.902Z</time></trkpt><trkpt lat="31.50612" lon="-5.539505"><ele>1284.0</ele><time>2026-04-23T16:34:32.903Z</time></trkpt><trkpt lat="31.5059967" lon="-5.53954"><ele>1284.0</ele><time>2026-04-23T16:34:33.903Z</time></trkpt><trkpt lat="31.5058717" lon="-5.5395733"><ele>1284.0</ele><time>2026-04-23T16:34:34.903Z</time></trkpt><trkpt lat="31.5057433" lon="-5.5395983"><ele>1284.0</ele><time>2026-04-23T16:34:35.903Z</time></trkpt><trkpt lat="31.5056067" lon="-5.5396283"><ele>1283.75</ele><time>2026-04-23T16:34:36.903Z</time></trkpt><trkpt lat="31.50547" lon="-5.5396517"><ele>1283.5</ele><time>2026-04-23T16:34:37.902Z</time></trkpt><trkpt lat="31.5053283" lon="-5.5396817"><ele>1283.25</ele><time>2026-04-23T16:34:38.902Z</time></trkpt><trkpt lat="31.50519" lon="-5.5397133"><ele>1283.0</ele><time>2026-04-23T16:34:39.902Z</time></trkpt><trkpt lat="31.505055" lon="-5.539745"><ele>1282.75</ele><time>2026-04-23T16:34:40.903Z</time></trkpt><trkpt lat="31.504925" lon="-5.5397867"><ele>1282.5</ele><time>2026-04-23T16:34:41.902Z</time></trkpt><trkpt lat="31.5047967" lon="-5.5398267"><ele>1282.25</ele><time>2026-04-23T16:34:42.903Z</time></trkpt><trkpt lat="31.5046783" lon="-5.5398683"><ele>1282.0</ele><time>2026-04-23T16:34:43.903Z</time></trkpt><trkpt lat="31.5045667" lon="-5.5399217"><ele>1281.25</ele><time>2026-04-23T16:34:44.902Z</time></trkpt><trkpt lat="31.5044567" lon="-5.5399767"><ele>1280.5</ele><time>2026-04-23T16:34:45.903Z</time></trkpt><trkpt lat="31.504345" lon="-5.54003"><ele>1279.75</ele><time>2026-04-23T16:34:46.903Z</time></trkpt><trkpt lat="31.5042383" lon="-5.54009"><ele>1279.0</ele><time>2026-04-23T16:34:47.903Z</time></trkpt><trkpt lat="31.5041383" lon="-5.5401483"><ele>1279.0</ele><time>2026-04-23T16:34:48.903Z</time></trkpt><trkpt lat="31.5040367" lon="-5.5402117"><ele>1279.0</ele><time>2026-04-23T16:34:49.903Z</time></trkpt><trkpt lat="31.5039467" lon="-5.5402867"><ele>1279.0</ele><time>2026-04-23T16:34:50.903Z</time></trkpt><trkpt lat="31.5038683" lon="-5.5403633"><ele>1279.0</ele><time>2026-04-23T16:34:51.903Z</time></trkpt><trkpt lat="31.5037983" lon="-5.5404383"><ele>1279.0</ele><time>2026-04-23T16:34:52.902Z</time></trkpt><trkpt lat="31.5037183" lon="-5.540495"><ele>1278.6000000000001</ele><time>2026-04-23T16:34:53.903Z</time></trkpt><trkpt lat="31.5036333" lon="-5.540525"><ele>1278.2</ele><time>2026-04-23T16:34:54.903Z</time></trkpt><trkpt lat="31.5035417" lon="-5.5405517"><ele>1277.8000000000002</ele><time>2026-04-23T16:34:55.903Z</time></trkpt><trkpt lat="31.503445" lon="-5.5405917"><ele>1277.4</ele><time>2026-04-23T16:34:56.903Z</time></trkpt><trkpt lat="31.5033433" lon="-5.5406417"><ele>1277.0</ele><time>2026-04-23T16:34:57.903Z</time></trkpt><trkpt lat="31.5032383" lon="-5.5407033"><ele>1277.0</ele><time>2026-04-23T16:34:58.903Z</time></trkpt><trkpt lat="31.5031333" lon="-5.540765"><ele>1277.0</ele><time>2026-04-23T16:34:59.903Z</time></trkpt><trkpt lat="31.5030217" lon="-5.5408367"><ele>1277.0</ele><time>2026-04-23T16:35:00.903Z</time></trkpt><trkpt lat="31.502905" lon="-5.5409117"><ele>1277.0</ele><time>2026-04-23T16:35:01.903Z</time></trkpt><trkpt lat="31.5027883" lon="-5.5409833"><ele>1276.75</ele><time>2026-04-23T16:35:02.902Z</time></trkpt><trkpt lat="31.5026683" lon="-5.5410633"><ele>1276.5</ele><time>2026-04-23T16:35:03.903Z</time></trkpt><trkpt lat="31.50255" lon="-5.541135"><ele>1276.25</ele><time>2026-04-23T16:35:04.903Z</time></trkpt><trkpt lat="31.50244" lon="-5.5412133"><ele>1276.0</ele><time>2026-04-23T16:35:05.902Z</time></trkpt><trkpt lat="31.5023333" lon="-5.541295"><ele>1276.25</ele><time>2026-04-23T16:35:06.902Z</time></trkpt><trkpt lat="31.5022267" lon="-5.5413633"><ele>1276.5</ele><time>2026-04-23T16:35:07.902Z</time></trkpt><trkpt lat="31.5021217" lon="-5.54144"><ele>1276.75</ele><time>2026-04-23T16:35:08.901Z</time></trkpt><trkpt lat="31.5020083" lon="-5.5415067"><ele>1277.0</ele><time>2026-04-23T16:35:09.902Z</time></trkpt><trkpt lat="31.501895" lon="-5.5415933"><ele>1277.0</ele><time>2026-04-23T16:35:10.902Z</time></trkpt><trkpt lat="31.5017833" lon="-5.5416683"><ele>1277.0</ele><time>2026-04-23T16:35:11.902Z</time></trkpt><trkpt lat="31.501665" lon="-5.5417433"><ele>1277.0</ele><time>2026-04-23T16:35:12.901Z</time></trkpt><trkpt lat="31.50154" lon="-5.5418183"><ele>1277.0</ele><time>2026-04-23T16:35:13.902Z</time></trkpt><trkpt lat="31.5014217" lon="-5.5418917"><ele>1277.0</ele><time>2026-04-23T16:35:14.902Z</time></trkpt><trkpt lat="31.5013067" lon="-5.541965"><ele>1277.0</ele><time>2026-04-23T16:35:15.901Z</time></trkpt><trkpt lat="31.5011917" lon="-5.5420383"><ele>1277.0</ele><time>2026-04-23T16:35:16.901Z</time></trkpt><trkpt lat="31.5010767" lon="-5.5421167"><ele>1277.0</ele><time>2026-04-23T16:35:17.902Z</time></trkpt><trkpt lat="31.500955" lon="-5.5421933"><ele>1277.25</ele><time>2026-04-23T16:35:18.902Z</time></trkpt><trkpt lat="31.500835" lon="-5.5422683"><ele>1277.5</ele><time>2026-04-23T16:35:19.901Z</time></trkpt><trkpt lat="31.500715" lon="-5.542345"><ele>1277.75</ele><time>2026-04-23T16:35:20.902Z</time></trkpt><trkpt lat="31.5005983" lon="-5.5424233"><ele>1278.0</ele><time>2026-04-23T16:35:21.902Z</time></trkpt><trkpt lat="31.50049" lon="-5.5424933"><ele>1277.5</ele><time>2026-04-23T16:35:22.902Z</time></trkpt><trkpt lat="31.5003883" lon="-5.5425683"><ele>1277.0</ele><time>2026-04-23T16:35:23.902Z</time></trkpt><trkpt lat="31.5002867" lon="-5.5426483"><ele>1276.5</ele><time>2026-04-23T16:35:24.902Z</time></trkpt><trkpt lat="31.5001833" lon="-5.54272"><ele>1276.0</ele><time>2026-04-23T16:35:25.902Z</time></trkpt><trkpt lat="31.5000783" lon="-5.5427983"><ele>1276.0</ele><time>2026-04-23T16:35:26.901Z</time></trkpt><trkpt lat="31.499975" lon="-5.5428817"><ele>1276.0</ele><time>2026-04-23T16:35:27.902Z</time></trkpt><trkpt lat="31.499875" lon="-5.5429617"><ele>1276.0</ele><time>2026-04-23T16:35:28.902Z</time></trkpt><trkpt lat="31.4997617" lon="-5.54303"><ele>1276.0</ele><time>2026-04-23T16:35:29.901Z</time></trkpt><trkpt lat="31.4996417" lon="-5.5431"><ele>1275.25</ele><time>2026-04-23T16:35:30.901Z</time></trkpt><trkpt lat="31.4995183" lon="-5.5431617"><ele>1274.5</ele><time>2026-04-23T16:35:31.902Z</time></trkpt><trkpt lat="31.4993967" lon="-5.543235"><ele>1273.75</ele><time>2026-04-23T16:35:32.902Z</time></trkpt><trkpt lat="31.4992717" lon="-5.5433117"><ele>1273.0</ele><time>2026-04-23T16:35:33.902Z</time></trkpt><trkpt lat="31.4991417" lon="-5.5433917"><ele>1273.0</ele><time>2026-04-23T16:35:34.902Z</time></trkpt><trkpt lat="31.4989983" lon="-5.5434717"><ele>1273.0</ele><time>2026-04-23T16:35:35.902Z</time></trkpt><trkpt lat="31.4988617" lon="-5.5435517"><ele>1273.0</ele><time>2026-04-23T16:35:36.902Z</time></trkpt><trkpt lat="31.498735" lon="-5.5436333"><ele>1272.75</ele><time>2026-04-23T16:35:37.901Z</time></trkpt><trkpt lat="31.4986117" lon="-5.5437183"><ele>1272.5</ele><time>2026-04-23T16:35:38.901Z</time></trkpt><trkpt lat="31.498485" lon="-5.5438033"><ele>1272.25</ele><time>2026-04-23T16:35:39.902Z</time></trkpt><trkpt lat="31.4983567" lon="-5.54389"><ele>1272.0</ele><time>2026-04-23T16:35:40.902Z</time></trkpt><trkpt lat="31.498225" lon="-5.5439833"><ele>1272.0</ele><time>2026-04-23T16:35:41.902Z</time></trkpt><trkpt lat="31.49809" lon="-5.5440733"><ele>1272.0</ele><time>2026-04-23T16:35:42.902Z</time></trkpt><trkpt lat="31.4979583" lon="-5.54416"><ele>1272.0</ele><time>2026-04-23T16:35:43.902Z</time></trkpt><trkpt lat="31.4978317" lon="-5.5442433"><ele>1272.0</ele><time>2026-04-23T16:35:44.902Z</time></trkpt><trkpt lat="31.4977067" lon="-5.5443233"><ele>1272.0</ele><time>2026-04-23T16:35:45.902Z</time></trkpt><trkpt lat="31.49758" lon="-5.544405"><ele>1272.0</ele><time>2026-04-23T16:35:46.902Z</time></trkpt><trkpt lat="31.4974483" lon="-5.544485"><ele>1272.0</ele><time>2026-04-23T16:35:47.901Z</time></trkpt><trkpt lat="31.4973183" lon="-5.5445683"><ele>1272.0</ele><time>2026-04-23T16:35:48.902Z</time></trkpt><trkpt lat="31.49719" lon="-5.5446517"><ele>1272.0</ele><time>2026-04-23T16:35:49.901Z</time></trkpt><trkpt lat="31.497065" lon="-5.5447367"><ele>1272.0</ele><time>2026-04-23T16:35:50.902Z</time></trkpt><trkpt lat="31.49694" lon="-5.54482"><ele>1272.0</ele><time>2026-04-23T16:35:51.901Z</time></trkpt><trkpt lat="31.49681" lon="-5.5448983"><ele>1271.5</ele><time>2026-04-23T16:35:52.902Z</time></trkpt><trkpt lat="31.4966817" lon="-5.54498"><ele>1271.0</ele><time>2026-04-23T16:35:53.902Z</time></trkpt><trkpt lat="31.4965517" lon="-5.5450617"><ele>1270.5</ele><time>2026-04-23T16:35:54.902Z</time></trkpt><trkpt lat="31.4964217" lon="-5.5451383"><ele>1270.0</ele><time>2026-04-23T16:35:55.902Z</time></trkpt><trkpt lat="31.4963" lon="-5.5452217"><ele>1269.75</ele><time>2026-04-23T16:35:56.902Z</time></trkpt><trkpt lat="31.4961767" lon="-5.54531"><ele>1269.5</ele><time>2026-04-23T16:35:57.901Z</time></trkpt><trkpt lat="31.49606" lon="-5.5453983"><ele>1269.25</ele><time>2026-04-23T16:35:58.902Z</time></trkpt><trkpt lat="31.4959517" lon="-5.5454767"><ele>1269.0</ele><time>2026-04-23T16:35:59.901Z</time></trkpt><trkpt lat="31.4958467" lon="-5.5455517"><ele>1269.0</ele><time>2026-04-23T16:36:00.902Z</time></trkpt><trkpt lat="31.49574" lon="-5.5456233"><ele>1269.0</ele><time>2026-04-23T16:36:01.902Z</time></trkpt><trkpt lat="31.4956417" lon="-5.5456917"><ele>1269.0</ele><time>2026-04-23T16:36:02.901Z</time></trkpt><trkpt lat="31.4955467" lon="-5.5457517"><ele>1269.0</ele><time>2026-04-23T16:36:03.901Z</time></trkpt><trkpt lat="31.49546" lon="-5.5458117"><ele>1269.0</ele><time>2026-04-23T16:36:04.901Z</time></trkpt><trkpt lat="31.4953683" lon="-5.5458683"><ele>1269.0</ele><time>2026-04-23T16:36:05.902Z</time></trkpt><trkpt lat="31.49528" lon="-5.5459267"><ele>1269.0</ele><time>2026-04-23T16:36:06.902Z</time></trkpt><trkpt lat="31.4952067" lon="-5.5459767"><ele>1269.0</ele><time>2026-04-23T16:36:07.902Z</time></trkpt><trkpt lat="31.4951467" lon="-5.5460333"><ele>1269.0</ele><time>2026-04-23T16:36:08.902Z</time></trkpt><trkpt lat="31.495065" lon="-5.5461367"><ele>1269.0</ele><time>2026-04-23T16:36:10.902Z</time></trkpt><trkpt lat="31.4949967" lon="-5.5462483"><ele>1269.3333333333333</ele><time>2026-04-23T16:36:12.902Z</time></trkpt><trkpt lat="31.494915" lon="-5.5463267"><ele>1269.6666666666667</ele><time>2026-04-23T16:36:14.901Z</time></trkpt><trkpt lat="31.494855" lon="-5.5463533"><ele>1270.0</ele><time>2026-04-23T16:36:15.901Z</time></trkpt><trkpt lat="31.4947833" lon="-5.546365"><ele>1270.3333333333335</ele><time>2026-04-23T16:36:16.902Z</time></trkpt><trkpt lat="31.4947033" lon="-5.546375"><ele>1270.6666666666667</ele><time>2026-04-23T16:36:17.901Z</time></trkpt><trkpt lat="31.4946167" lon="-5.5463933"><ele>1271.0</ele><time>2026-04-23T16:36:18.902Z</time></trkpt><trkpt lat="31.4945183" lon="-5.546435"><ele>1271.0</ele><time>2026-04-23T16:36:19.902Z</time></trkpt><trkpt lat="31.4944117" lon="-5.5464967"><ele>1271.0</ele><time>2026-04-23T16:36:20.902Z</time></trkpt><trkpt lat="31.4943033" lon="-5.5465767"><ele>1271.0</ele><time>2026-04-23T16:36:21.901Z</time></trkpt><trkpt lat="31.4941933" lon="-5.546655"><ele>1271.0</ele><time>2026-04-23T16:36:22.902Z</time></trkpt><trkpt lat="31.4940717" lon="-5.5467333"><ele>1271.0</ele><time>2026-04-23T16:36:23.902Z</time></trkpt><trkpt lat="31.49396" lon="-5.5468033"><ele>1271.0</ele><time>2026-04-23T16:36:24.901Z</time></trkpt><trkpt lat="31.4938383" lon="-5.5468767"><ele>1271.0</ele><time>2026-04-23T16:36:25.901Z</time></trkpt><trkpt lat="31.4937067" lon="-5.5469533"><ele>1271.0</ele><time>2026-04-23T16:36:26.902Z</time></trkpt><trkpt lat="31.4935667" lon="-5.547035"><ele>1271.3333333333335</ele><time>2026-04-23T16:36:27.902Z</time></trkpt><trkpt lat="31.4934217" lon="-5.54713"><ele>1271.6666666666667</ele><time>2026-04-23T16:36:28.902Z</time></trkpt><trkpt lat="31.4932783" lon="-5.5472483"><ele>1272.0</ele><time>2026-04-23T16:36:29.902Z</time></trkpt><trkpt lat="31.4931417" lon="-5.5473767"><ele>1272.0</ele><time>2026-04-23T16:36:30.902Z</time></trkpt><trkpt lat="31.4930017" lon="-5.5475217"><ele>1272.0</ele><time>2026-04-23T16:36:31.902Z</time></trkpt><trkpt lat="31.49287" lon="-5.54766"><ele>1272.0</ele><time>2026-04-23T16:36:32.901Z</time></trkpt><trkpt lat="31.4927517" lon="-5.5478"><ele>1272.6666666666667</ele><time>2026-04-23T16:36:33.902Z</time></trkpt><trkpt lat="31.4926383" lon="-5.5479367"><ele>1273.3333333333335</ele><time>2026-04-23T16:36:34.901Z</time></trkpt><trkpt lat="31.4925217" lon="-5.5480683"><ele>1274.0</ele><time>2026-04-23T16:36:35.902Z</time></trkpt><trkpt lat="31.4924083" lon="-5.5482"><ele>1274.0</ele><time>2026-04-23T16:36:36.902Z</time></trkpt><trkpt lat="31.4922933" lon="-5.548335"><ele>1274.0</ele><time>2026-04-23T16:36:37.902Z</time></trkpt><trkpt lat="31.492185" lon="-5.548475"><ele>1274.0</ele><time>2026-04-23T16:36:38.902Z</time></trkpt><trkpt lat="31.4920717" lon="-5.548615"><ele>1274.3333333333335</ele><time>2026-04-23T16:36:39.901Z</time></trkpt><trkpt lat="31.4919567" lon="-5.5487533"><ele>1274.6666666666667</ele><time>2026-04-23T16:36:40.901Z</time></trkpt><trkpt lat="31.4918483" lon="-5.5488833"><ele>1275.0</ele><time>2026-04-23T16:36:41.902Z</time></trkpt><trkpt lat="31.49175" lon="-5.549005"><ele>1275.0</ele><time>2026-04-23T16:36:42.902Z</time></trkpt><trkpt lat="31.49165" lon="-5.549125"><ele>1275.0</ele><time>2026-04-23T16:36:43.902Z</time></trkpt><trkpt lat="31.4915583" lon="-5.54924"><ele>1275.0</ele><time>2026-04-23T16:36:44.902Z</time></trkpt><trkpt lat="31.49147" lon="-5.54935"><ele>1275.0</ele><time>2026-04-23T16:36:45.901Z</time></trkpt><trkpt lat="31.4913867" lon="-5.5494483"><ele>1275.0</ele><time>2026-04-23T16:36:46.901Z</time></trkpt><trkpt lat="31.491315" lon="-5.5495383"><ele>1275.0</ele><time>2026-04-23T16:36:47.902Z</time></trkpt><trkpt lat="31.4912517" lon="-5.549615"><ele>1275.0</ele><time>2026-04-23T16:36:48.902Z</time></trkpt><trkpt lat="31.4911983" lon="-5.5496883"><ele>1275.0</ele><time>2026-04-23T16:36:49.902Z</time></trkpt><trkpt lat="31.4911483" lon="-5.5497483"><ele>1275.0</ele><time>2026-04-23T16:36:50.901Z</time></trkpt><trkpt lat="31.4911033" lon="-5.5498033"><ele>1275.0</ele><time>2026-04-23T16:36:51.902Z</time></trkpt><trkpt lat="31.4910617" lon="-5.5498667"><ele>1274.8333333333333</ele><time>2026-04-23T16:36:52.901Z</time></trkpt><trkpt lat="31.4910183" lon="-5.5499367"><ele>1274.6666666666667</ele><time>2026-04-23T16:36:53.902Z</time></trkpt><trkpt lat="31.4909717" lon="-5.5500067"><ele>1274.5</ele><time>2026-04-23T16:36:54.902Z</time></trkpt><trkpt lat="31.4909233" lon="-5.55007"><ele>1274.3333333333335</ele><time>2026-04-23T16:36:55.902Z</time></trkpt><trkpt lat="31.4908767" lon="-5.5501233"><ele>1274.1666666666667</ele><time>2026-04-23T16:36:56.902Z</time></trkpt><trkpt lat="31.4908083" lon="-5.5501683"><ele>1274.0</ele><time>2026-04-23T16:36:57.902Z</time></trkpt><trkpt lat="31.490735" lon="-5.5502267"><ele>1274.0</ele><time>2026-04-23T16:36:58.901Z</time></trkpt><trkpt lat="31.4906517" lon="-5.550305"><ele>1274.0</ele><time>2026-04-23T16:36:59.902Z</time></trkpt><trkpt lat="31.490565" lon="-5.5503867"><ele>1274.0</ele><time>2026-04-23T16:37:00.901Z</time></trkpt><trkpt lat="31.4904767" lon="-5.550495"><ele>1274.0</ele><time>2026-04-23T16:37:01.902Z</time></trkpt><trkpt lat="31.49037" lon="-5.5506183"><ele>1274.0</ele><time>2026-04-23T16:37:02.902Z</time></trkpt><trkpt lat="31.4902583" lon="-5.5507567"><ele>1274.0</ele><time>2026-04-23T16:37:03.902Z</time></trkpt><trkpt lat="31.490135" lon="-5.550895"><ele>1274.0</ele><time>2026-04-23T16:37:04.902Z</time></trkpt><trkpt lat="31.4900067" lon="-5.5510433"><ele>1274.0</ele><time>2026-04-23T16:37:05.901Z</time></trkpt><trkpt lat="31.48987" lon="-5.5511933"><ele>1274.0</ele><time>2026-04-23T16:37:06.902Z</time></trkpt><trkpt lat="31.489725" lon="-5.5513417"><ele>1274.0</ele><time>2026-04-23T16:37:07.902Z</time></trkpt><trkpt lat="31.489575" lon="-5.5514933"><ele>1275.6666666666667</ele><time>2026-04-23T16:37:08.902Z</time></trkpt><trkpt lat="31.4894233" lon="-5.5516483"><ele>1277.3333333333333</ele><time>2026-04-23T16:37:09.902Z</time></trkpt><trkpt lat="31.4892733" lon="-5.551805"><ele>1279.0</ele><time>2026-04-23T16:37:10.901Z</time></trkpt><trkpt lat="31.4891267" lon="-5.5519583"><ele>1280.0</ele><time>2026-04-23T16:37:11.902Z</time></trkpt><trkpt lat="31.4889833" lon="-5.5521067"><ele>1281.0</ele><time>2026-04-23T16:37:12.902Z</time></trkpt><trkpt lat="31.488845" lon="-5.5522567"><ele>1282.0</ele><time>2026-04-23T16:37:13.902Z</time></trkpt><trkpt lat="31.4887" lon="-5.5524167"><ele>1282.0</ele><time>2026-04-23T16:37:14.902Z</time></trkpt><trkpt lat="31.4885567" lon="-5.5525783"><ele>1282.0</ele><time>2026-04-23T16:37:15.901Z</time></trkpt><trkpt lat="31.4884183" lon="-5.5527433"><ele>1282.0</ele><time>2026-04-23T16:37:16.902Z</time></trkpt><trkpt lat="31.4882917" lon="-5.55291"><ele>1281.6666666666665</ele><time>2026-04-23T16:37:17.901Z</time></trkpt><trkpt lat="31.4881667" lon="-5.553065"><ele>1281.3333333333333</ele><time>2026-04-23T16:37:18.901Z</time></trkpt><trkpt lat="31.4880433" lon="-5.5532183"><ele>1281.0</ele><time>2026-04-23T16:37:19.901Z</time></trkpt><trkpt lat="31.48792" lon="-5.5533733"><ele>1280.6666666666667</ele><time>2026-04-23T16:37:20.902Z</time></trkpt><trkpt lat="31.4878067" lon="-5.5535217"><ele>1280.3333333333335</ele><time>2026-04-23T16:37:21.902Z</time></trkpt><trkpt lat="31.4876983" lon="-5.5536633"><ele>1280.0</ele><time>2026-04-23T16:37:22.901Z</time></trkpt><trkpt lat="31.4875967" lon="-5.553795"><ele>1280.0</ele><time>2026-04-23T16:37:23.901Z</time></trkpt><trkpt lat="31.4874983" lon="-5.5539267"><ele>1280.0</ele><time>2026-04-23T16:37:24.901Z</time></trkpt><trkpt lat="31.4874117" lon="-5.5540467"><ele>1280.0</ele><time>2026-04-23T16:37:25.901Z</time></trkpt><trkpt lat="31.4873367" lon="-5.5541583"><ele>1280.0</ele><time>2026-04-23T16:37:26.902Z</time></trkpt><trkpt lat="31.48727" lon="-5.5542583"><ele>1280.0</ele><time>2026-04-23T16:37:27.902Z</time></trkpt><trkpt lat="31.4872083" lon="-5.5543467"><ele>1280.0</ele><time>2026-04-23T16:37:28.902Z</time></trkpt><trkpt lat="31.4871433" lon="-5.55443"><ele>1280.0</ele><time>2026-04-23T16:37:29.902Z</time></trkpt><trkpt lat="31.4870683" lon="-5.5545017"><ele>1280.0</ele><time>2026-04-23T16:37:30.902Z</time></trkpt><trkpt lat="31.4869783" lon="-5.55458"><ele>1280.0</ele><time>2026-04-23T16:37:31.901Z</time></trkpt><trkpt lat="31.48689" lon="-5.5546717"><ele>1279.75</ele><time>2026-04-23T16:37:32.901Z</time></trkpt><trkpt lat="31.486795" lon="-5.5547717"><ele>1279.5</ele><time>2026-04-23T16:37:33.902Z</time></trkpt><trkpt lat="31.4866967" lon="-5.5548883"><ele>1279.25</ele><time>2026-04-23T16:37:34.902Z</time></trkpt><trkpt lat="31.4865883" lon="-5.555015"><ele>1279.0</ele><time>2026-04-23T16:37:35.902Z</time></trkpt><trkpt lat="31.48648" lon="-5.5551617"><ele>1279.0</ele><time>2026-04-23T16:37:36.902Z</time></trkpt><trkpt lat="31.4863683" lon="-5.5553233"><ele>1279.0</ele><time>2026-04-23T16:37:37.902Z</time></trkpt><trkpt lat="31.4862433" lon="-5.5554917"><ele>1279.0</ele><time>2026-04-23T16:37:38.902Z</time></trkpt><trkpt lat="31.48612" lon="-5.555675"><ele>1279.3333333333333</ele><time>2026-04-23T16:37:39.902Z</time></trkpt><trkpt lat="31.48598" lon="-5.55585"><ele>1279.6666666666667</ele><time>2026-04-23T16:37:40.902Z</time></trkpt><trkpt lat="31.48584" lon="-5.5560333"><ele>1280.0</ele><time>2026-04-23T16:37:41.902Z</time></trkpt><trkpt lat="31.4856983" lon="-5.5562167"><ele>1280.0</ele><time>2026-04-23T16:37:42.901Z</time></trkpt><trkpt lat="31.485565" lon="-5.5563933"><ele>1280.0</ele><time>2026-04-23T16:37:43.902Z</time></trkpt><trkpt lat="31.4854317" lon="-5.556565"><ele>1280.0</ele><time>2026-04-23T16:37:44.902Z</time></trkpt><trkpt lat="31.485295" lon="-5.5567367"><ele>1279.6666666666667</ele><time>2026-04-23T16:37:45.902Z</time></trkpt><trkpt lat="31.4851567" lon="-5.5569067"><ele>1279.3333333333333</ele><time>2026-04-23T16:37:46.902Z</time></trkpt><trkpt lat="31.485015" lon="-5.5570783"><ele>1279.0</ele><time>2026-04-23T16:37:47.902Z</time></trkpt><trkpt lat="31.4848733" lon="-5.5572533"><ele>1279.6666666666665</ele><time>2026-04-23T16:37:48.902Z</time></trkpt><trkpt lat="31.48473" lon="-5.5574267"><ele>1280.3333333333333</ele><time>2026-04-23T16:37:49.902Z</time></trkpt><trkpt lat="31.4845883" lon="-5.557605"><ele>1281.0</ele><time>2026-04-23T16:37:50.901Z</time></trkpt><trkpt lat="31.4844483" lon="-5.557785"><ele>1280.3333333333333</ele><time>2026-04-23T16:37:51.902Z</time></trkpt><trkpt lat="31.4843083" lon="-5.557965"><ele>1279.6666666666665</ele><time>2026-04-23T16:37:52.902Z</time></trkpt><trkpt lat="31.4841717" lon="-5.5581517"><ele>1279.0</ele><time>2026-04-23T16:37:53.902Z</time></trkpt><trkpt lat="31.484035" lon="-5.558335"><ele>1279.0</ele><time>2026-04-23T16:37:54.902Z</time></trkpt><trkpt lat="31.4839033" lon="-5.55851"><ele>1279.0</ele><time>2026-04-23T16:37:55.901Z</time></trkpt><trkpt lat="31.4837833" lon="-5.558675"><ele>1279.0</ele><time>2026-04-23T16:37:56.902Z</time></trkpt><trkpt lat="31.4836733" lon="-5.5588217"><ele>1279.0</ele><time>2026-04-23T16:37:57.902Z</time></trkpt><trkpt lat="31.4835733" lon="-5.5589583"><ele>1279.0</ele><time>2026-04-23T16:37:58.901Z</time></trkpt><trkpt lat="31.483485" lon="-5.5590817"><ele>1279.0</ele><time>2026-04-23T16:37:59.901Z</time></trkpt><trkpt lat="31.4834017" lon="-5.5592017"><ele>1279.0</ele><time>2026-04-23T16:38:00.901Z</time></trkpt><trkpt lat="31.4833167" lon="-5.55932"><ele>1279.0</ele><time>2026-04-23T16:38:01.901Z</time></trkpt><trkpt lat="31.4832267" lon="-5.55944"><ele>1279.0</ele><time>2026-04-23T16:38:02.902Z</time></trkpt><trkpt lat="31.4831267" lon="-5.5595583"><ele>1279.0</ele><time>2026-04-23T16:38:03.902Z</time></trkpt><trkpt lat="31.4830133" lon="-5.5596833"><ele>1279.0</ele><time>2026-04-23T16:38:04.902Z</time></trkpt><trkpt lat="31.482895" lon="-5.559815"><ele>1280.0</ele><time>2026-04-23T16:38:05.901Z</time></trkpt><trkpt lat="31.4827667" lon="-5.559955"><ele>1281.0</ele><time>2026-04-23T16:38:06.902Z</time></trkpt><trkpt lat="31.482635" lon="-5.5601183"><ele>1282.0</ele><time>2026-04-23T16:38:07.902Z</time></trkpt><trkpt lat="31.4824917" lon="-5.5602967"><ele>1282.3333333333333</ele><time>2026-04-23T16:38:08.902Z</time></trkpt><trkpt lat="31.4823483" lon="-5.560485"><ele>1282.6666666666667</ele><time>2026-04-23T16:38:09.902Z</time></trkpt><trkpt lat="31.4822017" lon="-5.5606867"><ele>1283.0</ele><time>2026-04-23T16:38:10.902Z</time></trkpt><trkpt lat="31.482045" lon="-5.5608967"><ele>1282.5</ele><time>2026-04-23T16:38:11.902Z</time></trkpt><trkpt lat="31.481885" lon="-5.561115"><ele>1282.0</ele><time>2026-04-23T16:38:12.902Z</time></trkpt><trkpt lat="31.4817183" lon="-5.5613333"><ele>1282.0</ele><time>2026-04-23T16:38:13.902Z</time></trkpt><trkpt lat="31.481545" lon="-5.5615533"><ele>1282.0</ele><time>2026-04-23T16:38:14.902Z</time></trkpt><trkpt lat="31.4813783" lon="-5.5617633"><ele>1281.3333333333333</ele><time>2026-04-23T16:38:15.902Z</time></trkpt><trkpt lat="31.4812233" lon="-5.5619567"><ele>1280.6666666666667</ele><time>2026-04-23T16:38:16.902Z</time></trkpt><trkpt lat="31.4810783" lon="-5.562145"><ele>1280.0</ele><time>2026-04-23T16:38:17.902Z</time></trkpt><trkpt lat="31.4809417" lon="-5.5623233"><ele>1281.3333333333335</ele><time>2026-04-23T16:38:18.902Z</time></trkpt><trkpt lat="31.48082" lon="-5.5624883"><ele>1282.6666666666667</ele><time>2026-04-23T16:38:19.902Z</time></trkpt><trkpt lat="31.4807" lon="-5.56264"><ele>1284.0</ele><time>2026-04-23T16:38:20.901Z</time></trkpt><trkpt lat="31.480585" lon="-5.56278"><ele>1284.0</ele><time>2026-04-23T16:38:21.902Z</time></trkpt><trkpt lat="31.480485" lon="-5.5629167"><ele>1284.0</ele><time>2026-04-23T16:38:22.902Z</time></trkpt><trkpt lat="31.4803883" lon="-5.5630467"><ele>1284.0</ele><time>2026-04-23T16:38:23.901Z</time></trkpt><trkpt lat="31.4802917" lon="-5.5631833"><ele>1283.6666666666667</ele><time>2026-04-23T16:38:24.902Z</time></trkpt><trkpt lat="31.4801883" lon="-5.56332"><ele>1283.3333333333335</ele><time>2026-04-23T16:38:25.901Z</time></trkpt><trkpt lat="31.480075" lon="-5.563465"><ele>1283.0</ele><time>2026-04-23T16:38:26.901Z</time></trkpt><trkpt lat="31.47995" lon="-5.5636217"><ele>1283.0</ele><time>2026-04-23T16:38:27.901Z</time></trkpt><trkpt lat="31.4798133" lon="-5.5637733"><ele>1283.0</ele><time>2026-04-23T16:38:28.902Z</time></trkpt><trkpt lat="31.4796733" lon="-5.5639433"><ele>1283.0</ele><time>2026-04-23T16:38:29.902Z</time></trkpt><trkpt lat="31.4795333" lon="-5.5641317"><ele>1283.0</ele><time>2026-04-23T16:38:30.902Z</time></trkpt><trkpt lat="31.4793983" lon="-5.5643133"><ele>1283.0</ele><time>2026-04-23T16:38:31.902Z</time></trkpt><trkpt lat="31.4792717" lon="-5.564485"><ele>1283.0</ele><time>2026-04-23T16:38:32.902Z</time></trkpt><trkpt lat="31.4791483" lon="-5.5646383"><ele>1283.0</ele><time>2026-04-23T16:38:33.902Z</time></trkpt><trkpt lat="31.4790333" lon="-5.5647883"><ele>1283.0</ele><time>2026-04-23T16:38:34.902Z</time></trkpt><trkpt lat="31.47893" lon="-5.5649367"><ele>1283.0</ele><time>2026-04-23T16:38:35.901Z</time></trkpt><trkpt lat="31.4788333" lon="-5.5650683"><ele>1283.25</ele><time>2026-04-23T16:38:36.902Z</time></trkpt><trkpt lat="31.478745" lon="-5.5652017"><ele>1283.5</ele><time>2026-04-23T16:38:37.902Z</time></trkpt><trkpt lat="31.478655" lon="-5.5653283"><ele>1283.75</ele><time>2026-04-23T16:38:38.902Z</time></trkpt><trkpt lat="31.4785633" lon="-5.5654433"><ele>1284.0</ele><time>2026-04-23T16:38:39.902Z</time></trkpt><trkpt lat="31.47846" lon="-5.5655367"><ele>1283.3333333333333</ele><time>2026-04-23T16:38:40.902Z</time></trkpt><trkpt lat="31.47833" lon="-5.5656183"><ele>1282.6666666666665</ele><time>2026-04-23T16:38:41.902Z</time></trkpt><trkpt lat="31.478175" lon="-5.56571"><ele>1282.0</ele><time>2026-04-23T16:38:42.902Z</time></trkpt><trkpt lat="31.4780133" lon="-5.5658117"><ele>1282.0</ele><time>2026-04-23T16:38:43.902Z</time></trkpt><trkpt lat="31.4778483" lon="-5.5659533"><ele>1282.0</ele><time>2026-04-23T16:38:44.902Z</time></trkpt><trkpt lat="31.4776867" lon="-5.5661283"><ele>1282.0</ele><time>2026-04-23T16:38:45.902Z</time></trkpt><trkpt lat="31.4775233" lon="-5.5663217"><ele>1281.3333333333333</ele><time>2026-04-23T16:38:46.902Z</time></trkpt><trkpt lat="31.477375" lon="-5.5665117"><ele>1280.6666666666667</ele><time>2026-04-23T16:38:47.902Z</time></trkpt><trkpt lat="31.4772283" lon="-5.56669"><ele>1280.0</ele><time>2026-04-23T16:38:48.902Z</time></trkpt><trkpt lat="31.4770883" lon="-5.5668767"><ele>1280.3333333333335</ele><time>2026-04-23T16:38:49.902Z</time></trkpt><trkpt lat="31.4769467" lon="-5.5670583"><ele>1280.6666666666667</ele><time>2026-04-23T16:38:50.902Z</time></trkpt><trkpt lat="31.476805" lon="-5.5672417"><ele>1281.0</ele><time>2026-04-23T16:38:51.902Z</time></trkpt><trkpt lat="31.476655" lon="-5.5674217"><ele>1281.0</ele><time>2026-04-23T16:38:52.901Z</time></trkpt><trkpt lat="31.47651" lon="-5.5676083"><ele>1281.0</ele><time>2026-04-23T16:38:53.902Z</time></trkpt><trkpt lat="31.47636" lon="-5.5678017"><ele>1281.0</ele><time>2026-04-23T16:38:54.902Z</time></trkpt><trkpt lat="31.4762083" lon="-5.5679917"><ele>1280.6666666666667</ele><time>2026-04-23T16:38:55.902Z</time></trkpt><trkpt lat="31.4760583" lon="-5.5681783"><ele>1280.3333333333335</ele><time>2026-04-23T16:38:56.902Z</time></trkpt><trkpt lat="31.47592" lon="-5.56836"><ele>1280.0</ele><time>2026-04-23T16:38:57.902Z</time></trkpt><trkpt lat="31.4757867" lon="-5.5685317"><ele>1280.6666666666667</ele><time>2026-04-23T16:38:58.902Z</time></trkpt><trkpt lat="31.4756517" lon="-5.5686983"><ele>1281.3333333333333</ele><time>2026-04-23T16:38:59.902Z</time></trkpt><trkpt lat="31.4755117" lon="-5.5688667"><ele>1282.0</ele><time>2026-04-23T16:39:00.902Z</time></trkpt><trkpt lat="31.4753783" lon="-5.5690317"><ele>1282.6666666666665</ele><time>2026-04-23T16:39:01.901Z</time></trkpt><trkpt lat="31.47525" lon="-5.5691933"><ele>1283.3333333333333</ele><time>2026-04-23T16:39:02.901Z</time></trkpt><trkpt lat="31.47513" lon="-5.5693483"><ele>1284.0</ele><time>2026-04-23T16:39:03.901Z</time></trkpt><trkpt lat="31.4750133" lon="-5.5695033"><ele>1284.3333333333333</ele><time>2026-04-23T16:39:04.902Z</time></trkpt><trkpt lat="31.4749017" lon="-5.5696433"><ele>1284.6666666666665</ele><time>2026-04-23T16:39:05.902Z</time></trkpt><trkpt lat="31.474795" lon="-5.56978"><ele>1285.0</ele><time>2026-04-23T16:39:06.902Z</time></trkpt><trkpt lat="31.474695" lon="-5.5699017"><ele>1285.0</ele><time>2026-04-23T16:39:07.902Z</time></trkpt><trkpt lat="31.4745967" lon="-5.5700217"><ele>1285.0</ele><time>2026-04-23T16:39:08.902Z</time></trkpt><trkpt lat="31.4745017" lon="-5.5701417"><ele>1285.0</ele><time>2026-04-23T16:39:09.902Z</time></trkpt><trkpt lat="31.4743983" lon="-5.5702633"><ele>1285.0</ele><time>2026-04-23T16:39:10.902Z</time></trkpt><trkpt lat="31.47429" lon="-5.5704017"><ele>1285.0</ele><time>2026-04-23T16:39:11.902Z</time></trkpt><trkpt lat="31.4741717" lon="-5.5705467"><ele>1285.0</ele><time>2026-04-23T16:39:12.901Z</time></trkpt><trkpt lat="31.4740483" lon="-5.5707017"><ele>1285.0</ele><time>2026-04-23T16:39:13.901Z</time></trkpt><trkpt lat="31.47392" lon="-5.5708683"><ele>1285.0</ele><time>2026-04-23T16:39:14.901Z</time></trkpt><trkpt lat="31.4737933" lon="-5.57103"><ele>1285.0</ele><time>2026-04-23T16:39:15.902Z</time></trkpt><trkpt lat="31.473665" lon="-5.5711967"><ele>1285.0</ele><time>2026-04-23T16:39:16.902Z</time></trkpt><trkpt lat="31.47354" lon="-5.5713467"><ele>1284.6666666666665</ele><time>2026-04-23T16:39:17.902Z</time></trkpt><trkpt lat="31.4734217" lon="-5.5715017"><ele>1284.3333333333333</ele><time>2026-04-23T16:39:18.901Z</time></trkpt><trkpt lat="31.47331" lon="-5.5716483"><ele>1284.0</ele><time>2026-04-23T16:39:19.902Z</time></trkpt><trkpt lat="31.4731967" lon="-5.5717983"><ele>1284.0</ele><time>2026-04-23T16:39:20.901Z</time></trkpt><trkpt lat="31.473075" lon="-5.571945"><ele>1284.0</ele><time>2026-04-23T16:39:21.902Z</time></trkpt><trkpt lat="31.47295" lon="-5.5721067"><ele>1284.0</ele><time>2026-04-23T16:39:22.902Z</time></trkpt><trkpt lat="31.4728267" lon="-5.572265"><ele>1283.6666666666667</ele><time>2026-04-23T16:39:23.902Z</time></trkpt><trkpt lat="31.4726967" lon="-5.5724267"><ele>1283.3333333333335</ele><time>2026-04-23T16:39:24.902Z</time></trkpt><trkpt lat="31.4725733" lon="-5.5725867"><ele>1283.0</ele><time>2026-04-23T16:39:25.902Z</time></trkpt><trkpt lat="31.47245" lon="-5.5727417"><ele>1283.0</ele><time>2026-04-23T16:39:26.901Z</time></trkpt><trkpt lat="31.4723283" lon="-5.572895"><ele>1283.0</ele><time>2026-04-23T16:39:27.902Z</time></trkpt><trkpt lat="31.4722033" lon="-5.5730533"><ele>1283.0</ele><time>2026-04-23T16:39:28.902Z</time></trkpt><trkpt lat="31.4720783" lon="-5.5732133"><ele>1283.3333333333335</ele><time>2026-04-23T16:39:29.902Z</time></trkpt><trkpt lat="31.4719583" lon="-5.5733633"><ele>1283.6666666666667</ele><time>2026-04-23T16:39:30.902Z</time></trkpt><trkpt lat="31.471845" lon="-5.57351"><ele>1284.0</ele><time>2026-04-23T16:39:31.902Z</time></trkpt><trkpt lat="31.47174" lon="-5.5736517"><ele>1283.0</ele><time>2026-04-23T16:39:32.901Z</time></trkpt><trkpt lat="31.47164" lon="-5.57379"><ele>1282.0</ele><time>2026-04-23T16:39:33.902Z</time></trkpt><trkpt lat="31.4715433" lon="-5.5739267"><ele>1281.0</ele><time>2026-04-23T16:39:34.902Z</time></trkpt><trkpt lat="31.4714517" lon="-5.5740583"><ele>1281.0</ele><time>2026-04-23T16:39:35.902Z</time></trkpt><trkpt lat="31.4713617" lon="-5.5741883"><ele>1281.0</ele><time>2026-04-23T16:39:36.902Z</time></trkpt><trkpt lat="31.4712733" lon="-5.5743133"><ele>1281.0</ele><time>2026-04-23T16:39:37.902Z</time></trkpt><trkpt lat="31.471195" lon="-5.574435"><ele>1281.0</ele><time>2026-04-23T16:39:38.901Z</time></trkpt><trkpt lat="31.471125" lon="-5.5745583"><ele>1281.0</ele><time>2026-04-23T16:39:39.902Z</time></trkpt><trkpt lat="31.4710533" lon="-5.5746733"><ele>1281.0</ele><time>2026-04-23T16:39:40.901Z</time></trkpt><trkpt lat="31.4709867" lon="-5.574785"><ele>1281.0</ele><time>2026-04-23T16:39:41.902Z</time></trkpt><trkpt lat="31.4709267" lon="-5.5748883"><ele>1281.0</ele><time>2026-04-23T16:39:42.902Z</time></trkpt><trkpt lat="31.4708717" lon="-5.5749867"><ele>1281.0</ele><time>2026-04-23T16:39:43.902Z</time></trkpt><trkpt lat="31.4708183" lon="-5.5750867"><ele>1281.0</ele><time>2026-04-23T16:39:44.902Z</time></trkpt><trkpt lat="31.47076" lon="-5.575185"><ele>1281.0</ele><time>2026-04-23T16:39:45.902Z</time></trkpt><trkpt lat="31.4706967" lon="-5.5752967"><ele>1281.0</ele><time>2026-04-23T16:39:46.902Z</time></trkpt><trkpt lat="31.4706283" lon="-5.57541"><ele>1281.0</ele><time>2026-04-23T16:39:47.902Z</time></trkpt><trkpt lat="31.4705567" lon="-5.5755283"><ele>1281.25</ele><time>2026-04-23T16:39:48.901Z</time></trkpt><trkpt lat="31.4704867" lon="-5.575655"><ele>1281.5</ele><time>2026-04-23T16:39:49.902Z</time></trkpt><trkpt lat="31.47041" lon="-5.575785"><ele>1281.75</ele><time>2026-04-23T16:39:50.902Z</time></trkpt><trkpt lat="31.4703367" lon="-5.57591"><ele>1282.0</ele><time>2026-04-23T16:39:51.902Z</time></trkpt><trkpt lat="31.47027" lon="-5.5760383"><ele>1282.0</ele><time>2026-04-23T16:39:52.901Z</time></trkpt><trkpt lat="31.4701983" lon="-5.576165"><ele>1282.0</ele><time>2026-04-23T16:39:53.902Z</time></trkpt><trkpt lat="31.4701233" lon="-5.576295"><ele>1282.0</ele><time>2026-04-23T16:39:54.902Z</time></trkpt><trkpt lat="31.4700417" lon="-5.576435"><ele>1282.0</ele><time>2026-04-23T16:39:55.902Z</time></trkpt><trkpt lat="31.4699617" lon="-5.5765817"><ele>1282.0</ele><time>2026-04-23T16:39:56.902Z</time></trkpt><trkpt lat="31.4698733" lon="-5.5767333"><ele>1282.0</ele><time>2026-04-23T16:39:57.902Z</time></trkpt><trkpt lat="31.4697817" lon="-5.5768883"><ele>1282.0</ele><time>2026-04-23T16:39:58.902Z</time></trkpt><trkpt lat="31.4696917" lon="-5.5770433"><ele>1281.6666666666665</ele><time>2026-04-23T16:39:59.902Z</time></trkpt><trkpt lat="31.4696083" lon="-5.5771917"><ele>1281.3333333333333</ele><time>2026-04-23T16:40:00.902Z</time></trkpt><trkpt lat="31.4695267" lon="-5.57734"><ele>1281.0</ele><time>2026-04-23T16:40:01.902Z</time></trkpt><trkpt lat="31.4694467" lon="-5.57749"><ele>1281.0</ele><time>2026-04-23T16:40:02.902Z</time></trkpt><trkpt lat="31.4693617" lon="-5.5776367"><ele>1281.0</ele><time>2026-04-23T16:40:03.902Z</time></trkpt><trkpt lat="31.4692783" lon="-5.5777783"><ele>1281.0</ele><time>2026-04-23T16:40:04.901Z</time></trkpt><trkpt lat="31.4692033" lon="-5.5779183"><ele>1281.0</ele><time>2026-04-23T16:40:05.902Z</time></trkpt><trkpt lat="31.4691333" lon="-5.578055"><ele>1281.5</ele><time>2026-04-23T16:40:06.901Z</time></trkpt><trkpt lat="31.46906" lon="-5.578185"><ele>1282.0</ele><time>2026-04-23T16:40:07.902Z</time></trkpt><trkpt lat="31.4689883" lon="-5.578315"><ele>1282.5</ele><time>2026-04-23T16:40:08.902Z</time></trkpt><trkpt lat="31.4689183" lon="-5.5784433"><ele>1283.0</ele><time>2026-04-23T16:40:09.902Z</time></trkpt><trkpt lat="31.4688483" lon="-5.5785667"><ele>1282.75</ele><time>2026-04-23T16:40:10.902Z</time></trkpt><trkpt lat="31.4687783" lon="-5.5786917"><ele>1282.5</ele><time>2026-04-23T16:40:11.901Z</time></trkpt><trkpt lat="31.4687033" lon="-5.5788233"><ele>1282.25</ele><time>2026-04-23T16:40:12.901Z</time></trkpt><trkpt lat="31.4686267" lon="-5.5789617"><ele>1282.0</ele><time>2026-04-23T16:40:13.902Z</time></trkpt><trkpt lat="31.4685483" lon="-5.5791"><ele>1282.25</ele><time>2026-04-23T16:40:14.902Z</time></trkpt><trkpt lat="31.4684717" lon="-5.5792333"><ele>1282.5</ele><time>2026-04-23T16:40:15.901Z</time></trkpt><trkpt lat="31.4683983" lon="-5.5793667"><ele>1282.75</ele><time>2026-04-23T16:40:16.902Z</time></trkpt><trkpt lat="31.46832" lon="-5.5794883"><ele>1283.0</ele><time>2026-04-23T16:40:17.902Z</time></trkpt><trkpt lat="31.46825" lon="-5.579615"><ele>1283.0</ele><time>2026-04-23T16:40:18.902Z</time></trkpt><trkpt lat="31.4681767" lon="-5.579745"><ele>1283.0</ele><time>2026-04-23T16:40:19.902Z</time></trkpt><trkpt lat="31.4680983" lon="-5.57987"><ele>1283.0</ele><time>2026-04-23T16:40:20.902Z</time></trkpt><trkpt lat="31.468025" lon="-5.580005"><ele>1283.0</ele><time>2026-04-23T16:40:21.902Z</time></trkpt><trkpt lat="31.4679483" lon="-5.5801533"><ele>1283.3333333333335</ele><time>2026-04-23T16:40:22.902Z</time></trkpt><trkpt lat="31.4678633" lon="-5.5803017"><ele>1283.6666666666667</ele><time>2026-04-23T16:40:23.902Z</time></trkpt><trkpt lat="31.4677817" lon="-5.5804567"><ele>1284.0</ele><time>2026-04-23T16:40:24.901Z</time></trkpt><trkpt lat="31.4677" lon="-5.5806"><ele>1284.0</ele><time>2026-04-23T16:40:25.902Z</time></trkpt><trkpt lat="31.4676117" lon="-5.5807383"><ele>1284.0</ele><time>2026-04-23T16:40:26.901Z</time></trkpt><trkpt lat="31.467525" lon="-5.580885"><ele>1284.0</ele><time>2026-04-23T16:40:27.902Z</time></trkpt><trkpt lat="31.4674467" lon="-5.5810333"><ele>1284.0</ele><time>2026-04-23T16:40:28.902Z</time></trkpt><trkpt lat="31.4673667" lon="-5.581175"><ele>1284.0</ele><time>2026-04-23T16:40:29.902Z</time></trkpt><trkpt lat="31.4672883" lon="-5.58132"><ele>1284.0</ele><time>2026-04-23T16:40:30.902Z</time></trkpt><trkpt lat="31.4672033" lon="-5.5814683"><ele>1284.0</ele><time>2026-04-23T16:40:31.901Z</time></trkpt><trkpt lat="31.4671167" lon="-5.58162"><ele>1284.0</ele><time>2026-04-23T16:40:32.902Z</time></trkpt><trkpt lat="31.4670267" lon="-5.5817717"><ele>1284.0</ele><time>2026-04-23T16:40:33.901Z</time></trkpt><trkpt lat="31.4669367" lon="-5.5819333"><ele>1284.0</ele><time>2026-04-23T16:40:34.902Z</time></trkpt><trkpt lat="31.4668433" lon="-5.5821"><ele>1284.0</ele><time>2026-04-23T16:40:35.902Z</time></trkpt><trkpt lat="31.4667533" lon="-5.58226"><ele>1284.0</ele><time>2026-04-23T16:40:36.902Z</time></trkpt><trkpt lat="31.4666717" lon="-5.5824083"><ele>1284.0</ele><time>2026-04-23T16:40:37.902Z</time></trkpt><trkpt lat="31.4665933" lon="-5.5825517"><ele>1284.0</ele><time>2026-04-23T16:40:38.902Z</time></trkpt><trkpt lat="31.4665133" lon="-5.58269"><ele>1284.0</ele><time>2026-04-23T16:40:39.902Z</time></trkpt><trkpt lat="31.466435" lon="-5.5828267"><ele>1284.0</ele><time>2026-04-23T16:40:40.902Z</time></trkpt><trkpt lat="31.46635" lon="-5.5829633"><ele>1284.0</ele><time>2026-04-23T16:40:41.902Z</time></trkpt><trkpt lat="31.4662683" lon="-5.5831117"><ele>1284.6666666666667</ele><time>2026-04-23T16:40:42.901Z</time></trkpt><trkpt lat="31.46618" lon="-5.5832733"><ele>1285.3333333333335</ele><time>2026-04-23T16:40:43.902Z</time></trkpt><trkpt lat="31.4660833" lon="-5.5834383"><ele>1286.0</ele><time>2026-04-23T16:40:44.902Z</time></trkpt><trkpt lat="31.4659817" lon="-5.583615"><ele>1286.0</ele><time>2026-04-23T16:40:45.902Z</time></trkpt><trkpt lat="31.4658783" lon="-5.583805"><ele>1286.0</ele><time>2026-04-23T16:40:46.902Z</time></trkpt><trkpt lat="31.46579" lon="-5.5839783"><ele>1286.0</ele><time>2026-04-23T16:40:47.902Z</time></trkpt><trkpt lat="31.4657117" lon="-5.5841183"><ele>1286.0</ele><time>2026-04-23T16:40:48.901Z</time></trkpt><trkpt lat="31.4656383" lon="-5.5842583"><ele>1286.0</ele><time>2026-04-23T16:40:49.902Z</time></trkpt><trkpt lat="31.46556" lon="-5.5843933"><ele>1286.0</ele><time>2026-04-23T16:40:50.902Z</time></trkpt><trkpt lat="31.4654817" lon="-5.5845267"><ele>1286.0</ele><time>2026-04-23T16:40:51.902Z</time></trkpt><trkpt lat="31.4653967" lon="-5.5846617"><ele>1286.0</ele><time>2026-04-23T16:40:52.902Z</time></trkpt><trkpt lat="31.465315" lon="-5.584805"><ele>1286.0</ele><time>2026-04-23T16:40:53.901Z</time></trkpt><trkpt lat="31.465235" lon="-5.58495"><ele>1286.0</ele><time>2026-04-23T16:40:54.902Z</time></trkpt><trkpt lat="31.4651583" lon="-5.5850917"><ele>1286.0</ele><time>2026-04-23T16:40:55.902Z</time></trkpt><trkpt lat="31.4650867" lon="-5.5852367"><ele>1286.25</ele><time>2026-04-23T16:40:56.902Z</time></trkpt><trkpt lat="31.4650067" lon="-5.58538"><ele>1286.5</ele><time>2026-04-23T16:40:57.901Z</time></trkpt><trkpt lat="31.4649267" lon="-5.5855217"><ele>1286.75</ele><time>2026-04-23T16:40:58.902Z</time></trkpt><trkpt lat="31.4648533" lon="-5.58566"><ele>1287.0</ele><time>2026-04-23T16:40:59.902Z</time></trkpt><trkpt lat="31.46478" lon="-5.5857833"><ele>1287.0</ele><time>2026-04-23T16:41:00.902Z</time></trkpt><trkpt lat="31.464705" lon="-5.5859183"><ele>1287.0</ele><time>2026-04-23T16:41:01.902Z</time></trkpt><trkpt lat="31.4646317" lon="-5.58606"><ele>1287.0</ele><time>2026-04-23T16:41:02.902Z</time></trkpt><trkpt lat="31.4645683" lon="-5.586205"><ele>1287.0</ele><time>2026-04-23T16:41:03.902Z</time></trkpt><trkpt lat="31.46451" lon="-5.58635"><ele>1287.0</ele><time>2026-04-23T16:41:04.901Z</time></trkpt><trkpt lat="31.4644583" lon="-5.5864867"><ele>1287.0</ele><time>2026-04-23T16:41:05.902Z</time></trkpt><trkpt lat="31.4644183" lon="-5.586625"><ele>1287.0</ele><time>2026-04-23T16:41:06.902Z</time></trkpt><trkpt lat="31.4643667" lon="-5.58678"><ele>1287.0</ele><time>2026-04-23T16:41:07.902Z</time></trkpt><trkpt lat="31.4643133" lon="-5.58694"><ele>1287.6666666666667</ele><time>2026-04-23T16:41:08.901Z</time></trkpt><trkpt lat="31.464265" lon="-5.58711"><ele>1288.3333333333335</ele><time>2026-04-23T16:41:09.902Z</time></trkpt><trkpt lat="31.4642133" lon="-5.5872883"><ele>1289.0</ele><time>2026-04-23T16:41:10.901Z</time></trkpt><trkpt lat="31.464145" lon="-5.5875"><ele>1289.0</ele><time>2026-04-23T16:41:11.901Z</time></trkpt><trkpt lat="31.4640717" lon="-5.587725"><ele>1289.0</ele><time>2026-04-23T16:41:12.901Z</time></trkpt><trkpt lat="31.4640117" lon="-5.587975"><ele>1289.0</ele><time>2026-04-23T16:41:13.902Z</time></trkpt><trkpt lat="31.4639533" lon="-5.58823"><ele>1289.3333333333335</ele><time>2026-04-23T16:41:14.902Z</time></trkpt><trkpt lat="31.4638933" lon="-5.5884717"><ele>1289.6666666666667</ele><time>2026-04-23T16:41:15.902Z</time></trkpt><trkpt lat="31.463825" lon="-5.588705"><ele>1290.0</ele><time>2026-04-23T16:41:16.902Z</time></trkpt><trkpt lat="31.4637533" lon="-5.588925"><ele>1290.0</ele><time>2026-04-23T16:41:17.902Z</time></trkpt><trkpt lat="31.4636817" lon="-5.5891433"><ele>1290.0</ele><time>2026-04-23T16:41:18.901Z</time></trkpt><trkpt lat="31.4636083" lon="-5.5893833"><ele>1290.0</ele><time>2026-04-23T16:41:19.902Z</time></trkpt><trkpt lat="31.4635283" lon="-5.5896283"><ele>1291.5</ele><time>2026-04-23T16:41:20.902Z</time></trkpt><trkpt lat="31.463455" lon="-5.5898917"><ele>1293.0</ele><time>2026-04-23T16:41:21.901Z</time></trkpt><trkpt lat="31.4633917" lon="-5.5901683"><ele>1292.5</ele><time>2026-04-23T16:41:22.902Z</time></trkpt><trkpt lat="31.463325" lon="-5.5904567"><ele>1292.0</ele><time>2026-04-23T16:41:23.902Z</time></trkpt><trkpt lat="31.46325" lon="-5.590745"><ele>1292.0</ele><time>2026-04-23T16:41:24.902Z</time></trkpt><trkpt lat="31.4631717" lon="-5.5910183"><ele>1292.0</ele><time>2026-04-23T16:41:25.901Z</time></trkpt><trkpt lat="31.463095" lon="-5.5912733"><ele>1292.0</ele><time>2026-04-23T16:41:26.901Z</time></trkpt><trkpt lat="31.4630267" lon="-5.591525"><ele>1292.0</ele><time>2026-04-23T16:41:27.901Z</time></trkpt><trkpt lat="31.4629567" lon="-5.591785"><ele>1293.0</ele><time>2026-04-23T16:41:28.9Z</time></trkpt><trkpt lat="31.4628783" lon="-5.5920467"><ele>1294.0</ele><time>2026-04-23T16:41:29.901Z</time></trkpt><trkpt lat="31.46279" lon="-5.5923067"><ele>1294.0</ele><time>2026-04-23T16:41:30.901Z</time></trkpt><trkpt lat="31.46269" lon="-5.59257"><ele>1294.0</ele><time>2026-04-23T16:41:31.901Z</time></trkpt><trkpt lat="31.4625783" lon="-5.5928333"><ele>1293.5</ele><time>2026-04-23T16:41:32.901Z</time></trkpt><trkpt lat="31.46245" lon="-5.5930967"><ele>1293.0</ele><time>2026-04-23T16:41:33.9Z</time></trkpt><trkpt lat="31.46231" lon="-5.5933683"><ele>1293.0</ele><time>2026-04-23T16:41:34.9Z</time></trkpt><trkpt lat="31.4621583" lon="-5.5936367"><ele>1293.0</ele><time>2026-04-23T16:41:35.901Z</time></trkpt><trkpt lat="31.4620083" lon="-5.5939083"><ele>1292.5</ele><time>2026-04-23T16:41:36.901Z</time></trkpt><trkpt lat="31.4618617" lon="-5.5941867"><ele>1292.0</ele><time>2026-04-23T16:41:37.901Z</time></trkpt><trkpt lat="31.46171" lon="-5.5944683"><ele>1293.0</ele><time>2026-04-23T16:41:38.901Z</time></trkpt><trkpt lat="31.4615583" lon="-5.5947567"><ele>1294.0</ele><time>2026-04-23T16:41:39.901Z</time></trkpt><trkpt lat="31.4614" lon="-5.5950467"><ele>1293.5</ele><time>2026-04-23T16:41:40.901Z</time></trkpt><trkpt lat="31.461245" lon="-5.595325"><ele>1293.0</ele><time>2026-04-23T16:41:41.901Z</time></trkpt><trkpt lat="31.4611017" lon="-5.5955967"><ele>1293.0</ele><time>2026-04-23T16:41:42.901Z</time></trkpt><trkpt lat="31.460955" lon="-5.595865"><ele>1293.0</ele><time>2026-04-23T16:41:43.901Z</time></trkpt><trkpt lat="31.460805" lon="-5.59614"><ele>1293.5</ele><time>2026-04-23T16:41:44.9Z</time></trkpt><trkpt lat="31.4606567" lon="-5.596415"><ele>1294.0</ele><time>2026-04-23T16:41:45.901Z</time></trkpt><trkpt lat="31.460505" lon="-5.5966983"><ele>1294.0</ele><time>2026-04-23T16:41:46.901Z</time></trkpt><trkpt lat="31.4603517" lon="-5.59698"><ele>1294.0</ele><time>2026-04-23T16:41:47.901Z</time></trkpt><trkpt lat="31.4602033" lon="-5.5972467"><ele>1294.0</ele><time>2026-04-23T16:41:48.901Z</time></trkpt><trkpt lat="31.4600633" lon="-5.597515"><ele>1294.0</ele><time>2026-04-23T16:41:49.901Z</time></trkpt><trkpt lat="31.4599183" lon="-5.5977733"><ele>1294.5</ele><time>2026-04-23T16:41:50.9Z</time></trkpt><trkpt lat="31.4597817" lon="-5.59803"><ele>1295.0</ele><time>2026-04-23T16:41:51.901Z</time></trkpt><trkpt lat="31.4596483" lon="-5.59828"><ele>1295.0</ele><time>2026-04-23T16:41:52.901Z</time></trkpt><trkpt lat="31.4595217" lon="-5.5985283"><ele>1295.0</ele><time>2026-04-23T16:41:53.9Z</time></trkpt><trkpt lat="31.45939" lon="-5.5987683"><ele>1295.0</ele><time>2026-04-23T16:41:54.901Z</time></trkpt><trkpt lat="31.4592567" lon="-5.5990017"><ele>1295.0</ele><time>2026-04-23T16:41:55.901Z</time></trkpt><trkpt lat="31.4591317" lon="-5.5992367"><ele>1295.0</ele><time>2026-04-23T16:41:56.9Z</time></trkpt><trkpt lat="31.459" lon="-5.59948"><ele>1295.0</ele><time>2026-04-23T16:41:57.9Z</time></trkpt><trkpt lat="31.4588683" lon="-5.5997233"><ele>1295.0</ele><time>2026-04-23T16:41:58.9Z</time></trkpt><trkpt lat="31.4587383" lon="-5.59997"><ele>1295.0</ele><time>2026-04-23T16:41:59.901Z</time></trkpt><trkpt lat="31.4586017" lon="-5.6002117"><ele>1296.5</ele><time>2026-04-23T16:42:00.901Z</time></trkpt><trkpt lat="31.4584683" lon="-5.6004633"><ele>1298.0</ele><time>2026-04-23T16:42:01.9Z</time></trkpt><trkpt lat="31.4583317" lon="-5.60072"><ele>1298.0</ele><time>2026-04-23T16:42:02.9Z</time></trkpt><trkpt lat="31.458195" lon="-5.6009767"><ele>1298.0</ele><time>2026-04-23T16:42:03.901Z</time></trkpt><trkpt lat="31.4580583" lon="-5.601235"><ele>1298.0</ele><time>2026-04-23T16:42:04.901Z</time></trkpt><trkpt lat="31.457915" lon="-5.6014933"><ele>1298.0</ele><time>2026-04-23T16:42:05.901Z</time></trkpt><trkpt lat="31.4577717" lon="-5.6017483"><ele>1299.0</ele><time>2026-04-23T16:42:06.901Z</time></trkpt><trkpt lat="31.45763" lon="-5.602005"><ele>1300.0</ele><time>2026-04-23T16:42:07.9Z</time></trkpt><trkpt lat="31.4574883" lon="-5.6022667"><ele>1300.0</ele><time>2026-04-23T16:42:08.901Z</time></trkpt><trkpt lat="31.4573483" lon="-5.602535"><ele>1300.0</ele><time>2026-04-23T16:42:09.901Z</time></trkpt><trkpt lat="31.4572083" lon="-5.6027917"><ele>1300.0</ele><time>2026-04-23T16:42:10.901Z</time></trkpt><trkpt lat="31.4570717" lon="-5.6030367"><ele>1300.0</ele><time>2026-04-23T16:42:11.901Z</time></trkpt><trkpt lat="31.456945" lon="-5.6032767"><ele>1300.0</ele><time>2026-04-23T16:42:12.901Z</time></trkpt><trkpt lat="31.4568167" lon="-5.6035167"><ele>1300.0</ele><time>2026-04-23T16:42:13.901Z</time></trkpt><trkpt lat="31.4566867" lon="-5.6037517"><ele>1301.0</ele><time>2026-04-23T16:42:14.9Z</time></trkpt><trkpt lat="31.4565583" lon="-5.603985"><ele>1302.0</ele><time>2026-04-23T16:42:15.901Z</time></trkpt><trkpt lat="31.4564333" lon="-5.6042167"><ele>1302.0</ele><time>2026-04-23T16:42:16.9Z</time></trkpt><trkpt lat="31.4563083" lon="-5.60445"><ele>1302.0</ele><time>2026-04-23T16:42:17.9Z</time></trkpt><trkpt lat="31.4561833" lon="-5.6046867"><ele>1302.5</ele><time>2026-04-23T16:42:18.901Z</time></trkpt><trkpt lat="31.4560567" lon="-5.60492"><ele>1303.0</ele><time>2026-04-23T16:42:19.901Z</time></trkpt><trkpt lat="31.45593" lon="-5.605155"><ele>1303.5</ele><time>2026-04-23T16:42:20.901Z</time></trkpt><trkpt lat="31.455805" lon="-5.60539"><ele>1304.0</ele><time>2026-04-23T16:42:21.901Z</time></trkpt><trkpt lat="31.4556767" lon="-5.60562"><ele>1304.0</ele><time>2026-04-23T16:42:22.901Z</time></trkpt><trkpt lat="31.4555517" lon="-5.6058533"><ele>1304.0</ele><time>2026-04-23T16:42:23.901Z</time></trkpt><trkpt lat="31.4554283" lon="-5.6060933"><ele>1305.0</ele><time>2026-04-23T16:42:24.901Z</time></trkpt><trkpt lat="31.4553033" lon="-5.6063317"><ele>1306.0</ele><time>2026-04-23T16:42:25.901Z</time></trkpt><trkpt lat="31.4551733" lon="-5.6065733"><ele>1306.0</ele><time>2026-04-23T16:42:26.901Z</time></trkpt><trkpt lat="31.455045" lon="-5.6068167"><ele>1306.0</ele><time>2026-04-23T16:42:27.901Z</time></trkpt><trkpt lat="31.4549067" lon="-5.6070617"><ele>1306.5</ele><time>2026-04-23T16:42:28.901Z</time></trkpt><trkpt lat="31.4547717" lon="-5.6073067"><ele>1307.0</ele><time>2026-04-23T16:42:29.901Z</time></trkpt><trkpt lat="31.45464" lon="-5.6075467"><ele>1306.0</ele><time>2026-04-23T16:42:30.901Z</time></trkpt><trkpt lat="31.4545183" lon="-5.60778"><ele>1305.0</ele><time>2026-04-23T16:42:31.901Z</time></trkpt><trkpt lat="31.4543933" lon="-5.6080083"><ele>1305.0</ele><time>2026-04-23T16:42:32.901Z</time></trkpt><trkpt lat="31.45427" lon="-5.6082383"><ele>1305.0</ele><time>2026-04-23T16:42:33.901Z</time></trkpt><trkpt lat="31.4541483" lon="-5.608475"><ele>1307.0</ele><time>2026-04-23T16:42:34.9Z</time></trkpt><trkpt lat="31.454025" lon="-5.6087083"><ele>1309.0</ele><time>2026-04-23T16:42:35.901Z</time></trkpt><trkpt lat="31.4539067" lon="-5.60895"><ele>1309.0</ele><time>2026-04-23T16:42:36.901Z</time></trkpt><trkpt lat="31.453795" lon="-5.6091917"><ele>1309.0</ele><time>2026-04-23T16:42:37.901Z</time></trkpt><trkpt lat="31.4536883" lon="-5.6094383"><ele>1308.5</ele><time>2026-04-23T16:42:38.901Z</time></trkpt><trkpt lat="31.4535733" lon="-5.6096883"><ele>1308.0</ele><time>2026-04-23T16:42:39.9Z</time></trkpt><trkpt lat="31.4534583" lon="-5.6099367"><ele>1308.0</ele><time>2026-04-23T16:42:40.901Z</time></trkpt><trkpt lat="31.4533483" lon="-5.6101833"><ele>1308.0</ele><time>2026-04-23T16:42:41.9Z</time></trkpt><trkpt lat="31.453235" lon="-5.6104283"><ele>1309.0</ele><time>2026-04-23T16:42:42.9Z</time></trkpt><trkpt lat="31.4531283" lon="-5.61068"><ele>1310.0</ele><time>2026-04-23T16:42:43.901Z</time></trkpt><trkpt lat="31.4530167" lon="-5.61093"><ele>1309.5</ele><time>2026-04-23T16:42:44.901Z</time></trkpt><trkpt lat="31.4529" lon="-5.6111783"><ele>1309.0</ele><time>2026-04-23T16:42:45.901Z</time></trkpt><trkpt lat="31.4527967" lon="-5.6114183"><ele>1309.0</ele><time>2026-04-23T16:42:46.901Z</time></trkpt><trkpt lat="31.4526917" lon="-5.6116667"><ele>1309.0</ele><time>2026-04-23T16:42:47.901Z</time></trkpt><trkpt lat="31.4525783" lon="-5.6119167"><ele>1310.0</ele><time>2026-04-23T16:42:48.901Z</time></trkpt><trkpt lat="31.452465" lon="-5.61216"><ele>1311.0</ele><time>2026-04-23T16:42:49.901Z</time></trkpt><trkpt lat="31.45235" lon="-5.612415"><ele>1311.0</ele><time>2026-04-23T16:42:50.901Z</time></trkpt><trkpt lat="31.4522367" lon="-5.612675"><ele>1311.0</ele><time>2026-04-23T16:42:51.901Z</time></trkpt><trkpt lat="31.45212" lon="-5.612935"><ele>1311.0</ele><time>2026-04-23T16:42:52.9Z</time></trkpt><trkpt lat="31.452005" lon="-5.613195"><ele>1311.0</ele><time>2026-04-23T16:42:53.901Z</time></trkpt><trkpt lat="31.4518817" lon="-5.6134483"><ele>1311.5</ele><time>2026-04-23T16:42:54.901Z</time></trkpt><trkpt lat="31.4517567" lon="-5.6137133"><ele>1312.0</ele><time>2026-04-23T16:42:55.901Z</time></trkpt><trkpt lat="31.4516283" lon="-5.61399"><ele>1312.0</ele><time>2026-04-23T16:42:56.901Z</time></trkpt><trkpt lat="31.4515" lon="-5.6142767"><ele>1312.0</ele><time>2026-04-23T16:42:57.901Z</time></trkpt><trkpt lat="31.4513667" lon="-5.6145833"><ele>1312.5</ele><time>2026-04-23T16:42:58.901Z</time></trkpt><trkpt lat="31.4512283" lon="-5.6148817"><ele>1313.0</ele><time>2026-04-23T16:42:59.9Z</time></trkpt><trkpt lat="31.4510983" lon="-5.615185"><ele>1313.5</ele><time>2026-04-23T16:43:00.901Z</time></trkpt><trkpt lat="31.450965" lon="-5.61549"><ele>1314.0</ele><time>2026-04-23T16:43:01.9Z</time></trkpt><trkpt lat="31.45084" lon="-5.6158067"><ele>1314.0</ele><time>2026-04-23T16:43:02.901Z</time></trkpt><trkpt lat="31.4507083" lon="-5.6161133"><ele>1314.0</ele><time>2026-04-23T16:43:03.9Z</time></trkpt><trkpt lat="31.4505783" lon="-5.616405"><ele>1314.5</ele><time>2026-04-23T16:43:04.901Z</time></trkpt><trkpt lat="31.4504483" lon="-5.61669"><ele>1315.0</ele><time>2026-04-23T16:43:05.901Z</time></trkpt><trkpt lat="31.4503167" lon="-5.61698"><ele>1315.5</ele><time>2026-04-23T16:43:06.901Z</time></trkpt><trkpt lat="31.450185" lon="-5.617275"><ele>1316.0</ele><time>2026-04-23T16:43:07.901Z</time></trkpt><trkpt lat="31.45005" lon="-5.6175683"><ele>1315.5</ele><time>2026-04-23T16:43:08.901Z</time></trkpt><trkpt lat="31.4499117" lon="-5.61787"><ele>1315.0</ele><time>2026-04-23T16:43:09.9Z</time></trkpt><trkpt lat="31.44977" lon="-5.6181667"><ele>1315.0</ele><time>2026-04-23T16:43:10.901Z</time></trkpt><trkpt lat="31.449635" lon="-5.618465"><ele>1315.0</ele><time>2026-04-23T16:43:11.901Z</time></trkpt><trkpt lat="31.4495017" lon="-5.6187633"><ele>1315.0</ele><time>2026-04-23T16:43:12.9Z</time></trkpt><trkpt lat="31.4493667" lon="-5.61907"><ele>1315.0</ele><time>2026-04-23T16:43:13.9Z</time></trkpt><trkpt lat="31.4492333" lon="-5.619375"><ele>1315.5</ele><time>2026-04-23T16:43:14.901Z</time></trkpt><trkpt lat="31.4490933" lon="-5.619675"><ele>1316.0</ele><time>2026-04-23T16:43:15.901Z</time></trkpt><trkpt lat="31.448965" lon="-5.6199733"><ele>1316.0</ele><time>2026-04-23T16:43:16.901Z</time></trkpt><trkpt lat="31.4488333" lon="-5.6202683"><ele>1316.0</ele><time>2026-04-23T16:43:17.901Z</time></trkpt><trkpt lat="31.4487033" lon="-5.6205683"><ele>1316.5</ele><time>2026-04-23T16:43:18.9Z</time></trkpt><trkpt lat="31.44857" lon="-5.620855"><ele>1317.0</ele><time>2026-04-23T16:43:19.901Z</time></trkpt><trkpt lat="31.4484367" lon="-5.6211433"><ele>1317.5</ele><time>2026-04-23T16:43:20.901Z</time></trkpt><trkpt lat="31.4483133" lon="-5.6214367"><ele>1318.0</ele><time>2026-04-23T16:43:21.901Z</time></trkpt><trkpt lat="31.44819" lon="-5.621725"><ele>1317.5</ele><time>2026-04-23T16:43:22.9Z</time></trkpt><trkpt lat="31.4480633" lon="-5.6220167"><ele>1317.0</ele><time>2026-04-23T16:43:23.9Z</time></trkpt><trkpt lat="31.4479333" lon="-5.622305"><ele>1317.0</ele><time>2026-04-23T16:43:24.9Z</time></trkpt><trkpt lat="31.447805" lon="-5.622585"><ele>1317.0</ele><time>2026-04-23T16:43:25.901Z</time></trkpt><trkpt lat="31.44768" lon="-5.6228683"><ele>1318.0</ele><time>2026-04-23T16:43:26.901Z</time></trkpt><trkpt lat="31.4475533" lon="-5.6231583"><ele>1319.0</ele><time>2026-04-23T16:43:27.901Z</time></trkpt><trkpt lat="31.4474233" lon="-5.6234433"><ele>1318.5</ele><time>2026-04-23T16:43:28.901Z</time></trkpt><trkpt lat="31.4472917" lon="-5.6237283"><ele>1318.0</ele><time>2026-04-23T16:43:29.9Z</time></trkpt><trkpt lat="31.4471617" lon="-5.6240117"><ele>1319.0</ele><time>2026-04-23T16:43:30.901Z</time></trkpt><trkpt lat="31.4470267" lon="-5.62429"><ele>1320.0</ele><time>2026-04-23T16:43:31.901Z</time></trkpt><trkpt lat="31.446895" lon="-5.6245783"><ele>1320.0</ele><time>2026-04-23T16:43:32.901Z</time></trkpt><trkpt lat="31.4467667" lon="-5.6248617"><ele>1320.0</ele><time>2026-04-23T16:43:33.9Z</time></trkpt><trkpt lat="31.4466367" lon="-5.625145"><ele>1321.0</ele><time>2026-04-23T16:43:34.901Z</time></trkpt><trkpt lat="31.4465133" lon="-5.6254317"><ele>1322.0</ele><time>2026-04-23T16:43:35.901Z</time></trkpt><trkpt lat="31.446385" lon="-5.6257217"><ele>1322.0</ele><time>2026-04-23T16:43:36.901Z</time></trkpt><trkpt lat="31.4462583" lon="-5.6260083"><ele>1322.0</ele><time>2026-04-23T16:43:37.901Z</time></trkpt><trkpt lat="31.4461317" lon="-5.6263033"><ele>1322.0</ele><time>2026-04-23T16:43:38.901Z</time></trkpt><trkpt lat="31.4459983" lon="-5.6265917"><ele>1322.0</ele><time>2026-04-23T16:43:39.9Z</time></trkpt><trkpt lat="31.4458683" lon="-5.62688"><ele>1323.0</ele><time>2026-04-23T16:43:40.901Z</time></trkpt><trkpt lat="31.4457433" lon="-5.6271683"><ele>1324.0</ele><time>2026-04-23T16:43:41.901Z</time></trkpt><trkpt lat="31.4456183" lon="-5.62746"><ele>1324.0</ele><time>2026-04-23T16:43:42.901Z</time></trkpt><trkpt lat="31.4454867" lon="-5.627745"><ele>1324.0</ele><time>2026-04-23T16:43:43.9Z</time></trkpt><trkpt lat="31.4453567" lon="-5.62804"><ele>1324.5</ele><time>2026-04-23T16:43:44.901Z</time></trkpt><trkpt lat="31.4452233" lon="-5.628335"><ele>1325.0</ele><time>2026-04-23T16:43:45.901Z</time></trkpt><trkpt lat="31.4450917" lon="-5.6286283"><ele>1326.0</ele><time>2026-04-23T16:43:46.901Z</time></trkpt><trkpt lat="31.4449517" lon="-5.6289233"><ele>1327.0</ele><time>2026-04-23T16:43:47.901Z</time></trkpt><trkpt lat="31.44481" lon="-5.62922"><ele>1327.5</ele><time>2026-04-23T16:43:48.901Z</time></trkpt><trkpt lat="31.4446667" lon="-5.6295233"><ele>1328.0</ele><time>2026-04-23T16:43:49.901Z</time></trkpt><trkpt lat="31.4445233" lon="-5.6298233"><ele>1328.0</ele><time>2026-04-23T16:43:50.9Z</time></trkpt><trkpt lat="31.4443817" lon="-5.63013"><ele>1328.0</ele><time>2026-04-23T16:43:51.901Z</time></trkpt><trkpt lat="31.4442483" lon="-5.63044"><ele>1329.5</ele><time>2026-04-23T16:43:52.9Z</time></trkpt><trkpt lat="31.4441117" lon="-5.6307433"><ele>1331.0</ele><time>2026-04-23T16:43:53.901Z</time></trkpt><trkpt lat="31.4439817" lon="-5.63105"><ele>1331.0</ele><time>2026-04-23T16:43:54.901Z</time></trkpt><trkpt lat="31.4438567" lon="-5.6313633"><ele>1331.0</ele><time>2026-04-23T16:43:55.901Z</time></trkpt><trkpt lat="31.4437233" lon="-5.6316783"><ele>1332.0</ele><time>2026-04-23T16:43:56.901Z</time></trkpt><trkpt lat="31.44359" lon="-5.63198"><ele>1333.0</ele><time>2026-04-23T16:43:57.9Z</time></trkpt><trkpt lat="31.4434683" lon="-5.6322717"><ele>1333.0</ele><time>2026-04-23T16:43:58.901Z</time></trkpt><trkpt lat="31.4433333" lon="-5.6325533"><ele>1333.0</ele><time>2026-04-23T16:43:59.9Z</time></trkpt><trkpt lat="31.443205" lon="-5.6328267"><ele>1333.5</ele><time>2026-04-23T16:44:00.901Z</time></trkpt><trkpt lat="31.4430867" lon="-5.6331083"><ele>1334.0</ele><time>2026-04-23T16:44:01.901Z</time></trkpt><trkpt lat="31.4429617" lon="-5.6333833"><ele>1335.0</ele><time>2026-04-23T16:44:02.901Z</time></trkpt><trkpt lat="31.44284" lon="-5.6336567"><ele>1336.0</ele><time>2026-04-23T16:44:03.901Z</time></trkpt><trkpt lat="31.4427183" lon="-5.6339283"><ele>1336.0</ele><time>2026-04-23T16:44:04.901Z</time></trkpt><trkpt lat="31.4425933" lon="-5.634205"><ele>1336.0</ele><time>2026-04-23T16:44:05.901Z</time></trkpt><trkpt lat="31.4424683" lon="-5.6344783"><ele>1337.5</ele><time>2026-04-23T16:44:06.901Z</time></trkpt><trkpt lat="31.4423417" lon="-5.6347467"><ele>1339.0</ele><time>2026-04-23T16:44:07.9Z</time></trkpt><trkpt lat="31.4422133" lon="-5.6350233"><ele>1339.0</ele><time>2026-04-23T16:44:08.901Z</time></trkpt><trkpt lat="31.4420867" lon="-5.635305"><ele>1339.0</ele><time>2026-04-23T16:44:09.901Z</time></trkpt><trkpt lat="31.441965" lon="-5.6355867"><ele>1339.0</ele><time>2026-04-23T16:44:10.901Z</time></trkpt><trkpt lat="31.4418367" lon="-5.63587"><ele>1339.0</ele><time>2026-04-23T16:44:11.901Z</time></trkpt><trkpt lat="31.4417117" lon="-5.636155"><ele>1339.0</ele><time>2026-04-23T16:44:12.901Z</time></trkpt><trkpt lat="31.44159" lon="-5.6364383"><ele>1339.0</ele><time>2026-04-23T16:44:13.901Z</time></trkpt><trkpt lat="31.4414633" lon="-5.6367233"><ele>1338.5</ele><time>2026-04-23T16:44:14.901Z</time></trkpt><trkpt lat="31.441335" lon="-5.63701"><ele>1338.0</ele><time>2026-04-23T16:44:15.901Z</time></trkpt><trkpt lat="31.4412017" lon="-5.6372967"><ele>1338.0</ele><time>2026-04-23T16:44:16.901Z</time></trkpt><trkpt lat="31.4410767" lon="-5.6375833"><ele>1338.0</ele><time>2026-04-23T16:44:17.9Z</time></trkpt><trkpt lat="31.4409533" lon="-5.6378533"><ele>1339.0</ele><time>2026-04-23T16:44:18.9Z</time></trkpt><trkpt lat="31.4408367" lon="-5.6381233"><ele>1340.0</ele><time>2026-04-23T16:44:19.901Z</time></trkpt><trkpt lat="31.4407233" lon="-5.63839"><ele>1340.5</ele><time>2026-04-23T16:44:20.901Z</time></trkpt><trkpt lat="31.4406067" lon="-5.6386483"><ele>1341.0</ele><time>2026-04-23T16:44:21.901Z</time></trkpt><trkpt lat="31.4404917" lon="-5.6389033"><ele>1340.5</ele><time>2026-04-23T16:44:22.9Z</time></trkpt><trkpt lat="31.4403783" lon="-5.63914"><ele>1340.0</ele><time>2026-04-23T16:44:23.9Z</time></trkpt><trkpt lat="31.44027" lon="-5.6393733"><ele>1340.6666666666667</ele><time>2026-04-23T16:44:24.9Z</time></trkpt><trkpt lat="31.4401667" lon="-5.6396067"><ele>1341.3333333333333</ele><time>2026-04-23T16:44:25.901Z</time></trkpt><trkpt lat="31.4400683" lon="-5.6398367"><ele>1342.0</ele><time>2026-04-23T16:44:26.9Z</time></trkpt><trkpt lat="31.43997" lon="-5.6400567"><ele>1342.0</ele><time>2026-04-23T16:44:27.901Z</time></trkpt><trkpt lat="31.4398717" lon="-5.6402683"><ele>1342.0</ele><time>2026-04-23T16:44:28.901Z</time></trkpt><trkpt lat="31.43979" lon="-5.640465"><ele>1342.0</ele><time>2026-04-23T16:44:29.901Z</time></trkpt><trkpt lat="31.4397083" lon="-5.6406583"><ele>1342.3333333333333</ele><time>2026-04-23T16:44:30.9Z</time></trkpt><trkpt lat="31.4396317" lon="-5.6408517"><ele>1342.6666666666667</ele><time>2026-04-23T16:44:31.901Z</time></trkpt><trkpt lat="31.4395617" lon="-5.6410417"><ele>1343.0</ele><time>2026-04-23T16:44:32.901Z</time></trkpt><trkpt lat="31.439495" lon="-5.6412333"><ele>1343.6666666666667</ele><time>2026-04-23T16:44:33.901Z</time></trkpt><trkpt lat="31.43943" lon="-5.64143"><ele>1344.3333333333333</ele><time>2026-04-23T16:44:34.901Z</time></trkpt><trkpt lat="31.4393767" lon="-5.6416333"><ele>1345.0</ele><time>2026-04-23T16:44:35.901Z</time></trkpt><trkpt lat="31.4393267" lon="-5.6418467"><ele>1344.6666666666665</ele><time>2026-04-23T16:44:36.901Z</time></trkpt><trkpt lat="31.43928" lon="-5.6420617"><ele>1344.3333333333333</ele><time>2026-04-23T16:44:37.9Z</time></trkpt><trkpt lat="31.4392417" lon="-5.6422833"><ele>1344.0</ele><time>2026-04-23T16:44:38.9Z</time></trkpt><trkpt lat="31.4392033" lon="-5.6424983"><ele>1344.0</ele><time>2026-04-23T16:44:39.9Z</time></trkpt><trkpt lat="31.4391717" lon="-5.6427233"><ele>1344.0</ele><time>2026-04-23T16:44:40.901Z</time></trkpt><trkpt lat="31.4391467" lon="-5.6429567"><ele>1344.0</ele><time>2026-04-23T16:44:41.901Z</time></trkpt><trkpt lat="31.4391333" lon="-5.643205"><ele>1344.5</ele><time>2026-04-23T16:44:42.901Z</time></trkpt><trkpt lat="31.4391183" lon="-5.64347"><ele>1345.0</ele><time>2026-04-23T16:44:43.901Z</time></trkpt><trkpt lat="31.4391383" lon="-5.64375"><ele>1345.0</ele><time>2026-04-23T16:44:44.901Z</time></trkpt><trkpt lat="31.4391633" lon="-5.6440417"><ele>1345.0</ele><time>2026-04-23T16:44:45.901Z</time></trkpt><trkpt lat="31.4391933" lon="-5.6443417"><ele>1346.5</ele><time>2026-04-23T16:44:46.901Z</time></trkpt><trkpt lat="31.4392183" lon="-5.644645"><ele>1348.0</ele><time>2026-04-23T16:44:47.901Z</time></trkpt><trkpt lat="31.4392417" lon="-5.644935"><ele>1348.0</ele><time>2026-04-23T16:44:48.901Z</time></trkpt><trkpt lat="31.4392583" lon="-5.6452117"><ele>1348.0</ele><time>2026-04-23T16:44:49.901Z</time></trkpt><trkpt lat="31.4392767" lon="-5.64549"><ele>1349.5</ele><time>2026-04-23T16:44:50.901Z</time></trkpt><trkpt lat="31.4393017" lon="-5.64576"><ele>1351.0</ele><time>2026-04-23T16:44:51.901Z</time></trkpt><trkpt lat="31.4393267" lon="-5.6460233"><ele>1352.5</ele><time>2026-04-23T16:44:52.901Z</time></trkpt><trkpt lat="31.4393467" lon="-5.6462833"><ele>1354.0</ele><time>2026-04-23T16:44:53.901Z</time></trkpt><trkpt lat="31.4393717" lon="-5.6465483"><ele>1354.0</ele><time>2026-04-23T16:44:54.901Z</time></trkpt><trkpt lat="31.4393917" lon="-5.64681"><ele>1354.0</ele><time>2026-04-23T16:44:55.9Z</time></trkpt><trkpt lat="31.4394083" lon="-5.6470683"><ele>1354.0</ele><time>2026-04-23T16:44:56.901Z</time></trkpt><trkpt lat="31.43943" lon="-5.6473217"><ele>1354.3333333333333</ele><time>2026-04-23T16:44:57.901Z</time></trkpt><trkpt lat="31.4394517" lon="-5.6475667"><ele>1354.6666666666667</ele><time>2026-04-23T16:44:58.901Z</time></trkpt><trkpt lat="31.43947" lon="-5.6478083"><ele>1355.0</ele><time>2026-04-23T16:44:59.901Z</time></trkpt><trkpt lat="31.4394833" lon="-5.6480517"><ele>1355.0</ele><time>2026-04-23T16:45:00.9Z</time></trkpt><trkpt lat="31.4394867" lon="-5.6483"><ele>1355.0</ele><time>2026-04-23T16:45:01.901Z</time></trkpt><trkpt lat="31.43949" lon="-5.648535"><ele>1355.0</ele><time>2026-04-23T16:45:02.901Z</time></trkpt><trkpt lat="31.43948" lon="-5.6487767"><ele>1355.0</ele><time>2026-04-23T16:45:03.901Z</time></trkpt><trkpt lat="31.439455" lon="-5.6490183"><ele>1355.0</ele><time>2026-04-23T16:45:04.9Z</time></trkpt><trkpt lat="31.439415" lon="-5.64926"><ele>1355.0</ele><time>2026-04-23T16:45:05.9Z</time></trkpt><trkpt lat="31.4393667" lon="-5.649515"><ele>1356.5</ele><time>2026-04-23T16:45:06.901Z</time></trkpt><trkpt lat="31.4393017" lon="-5.6497683"><ele>1358.0</ele><time>2026-04-23T16:45:07.901Z</time></trkpt><trkpt lat="31.4392183" lon="-5.6500233"><ele>1358.0</ele><time>2026-04-23T16:45:08.901Z</time></trkpt><trkpt lat="31.4391233" lon="-5.65028"><ele>1358.0</ele><time>2026-04-23T16:45:09.901Z</time></trkpt><trkpt lat="31.4390067" lon="-5.6505283"><ele>1359.0</ele><time>2026-04-23T16:45:10.901Z</time></trkpt><trkpt lat="31.438875" lon="-5.650775"><ele>1360.0</ele><time>2026-04-23T16:45:11.901Z</time></trkpt><trkpt lat="31.438725" lon="-5.6510167"><ele>1359.5</ele><time>2026-04-23T16:45:12.901Z</time></trkpt><trkpt lat="31.43856" lon="-5.651245"><ele>1359.0</ele><time>2026-04-23T16:45:13.901Z</time></trkpt><trkpt lat="31.438385" lon="-5.6514617"><ele>1359.0</ele><time>2026-04-23T16:45:14.9Z</time></trkpt><trkpt lat="31.4381933" lon="-5.6516683"><ele>1359.0</ele><time>2026-04-23T16:45:15.9Z</time></trkpt><trkpt lat="31.43799" lon="-5.6518667"><ele>1360.0</ele><time>2026-04-23T16:45:16.901Z</time></trkpt><trkpt lat="31.4377767" lon="-5.6520617"><ele>1361.0</ele><time>2026-04-23T16:45:17.901Z</time></trkpt><trkpt lat="31.4375633" lon="-5.652255"><ele>1361.0</ele><time>2026-04-23T16:45:18.9Z</time></trkpt><trkpt lat="31.4373517" lon="-5.6524467"><ele>1361.0</ele><time>2026-04-23T16:45:19.9Z</time></trkpt><trkpt lat="31.4371383" lon="-5.6526433"><ele>1363.0</ele><time>2026-04-23T16:45:20.901Z</time></trkpt><trkpt lat="31.4369233" lon="-5.6528433"><ele>1365.0</ele><time>2026-04-23T16:45:21.901Z</time></trkpt><trkpt lat="31.4367117" lon="-5.6530483"><ele>1365.0</ele><time>2026-04-23T16:45:22.901Z</time></trkpt><trkpt lat="31.4365017" lon="-5.6532517"><ele>1365.0</ele><time>2026-04-23T16:45:23.901Z</time></trkpt><trkpt lat="31.4362867" lon="-5.65345"><ele>1367.0</ele><time>2026-04-23T16:45:24.901Z</time></trkpt><trkpt lat="31.4360817" lon="-5.6536433"><ele>1369.0</ele><time>2026-04-23T16:45:25.9Z</time></trkpt><trkpt lat="31.4358783" lon="-5.653835"><ele>1369.0</ele><time>2026-04-23T16:45:26.9Z</time></trkpt><trkpt lat="31.4356867" lon="-5.6540333"><ele>1369.0</ele><time>2026-04-23T16:45:27.901Z</time></trkpt><trkpt lat="31.4355017" lon="-5.654245"><ele>1368.0</ele><time>2026-04-23T16:45:28.9Z</time></trkpt><trkpt lat="31.4353267" lon="-5.6544583"><ele>1367.0</ele><time>2026-04-23T16:45:29.901Z</time></trkpt><trkpt lat="31.4351667" lon="-5.6546583"><ele>1367.0</ele><time>2026-04-23T16:45:30.901Z</time></trkpt><trkpt lat="31.4350083" lon="-5.6548617"><ele>1367.0</ele><time>2026-04-23T16:45:31.901Z</time></trkpt><trkpt lat="31.4348567" lon="-5.6550617"><ele>1367.0</ele><time>2026-04-23T16:45:32.901Z</time></trkpt><trkpt lat="31.4347033" lon="-5.655275"><ele>1367.0</ele><time>2026-04-23T16:45:33.901Z</time></trkpt><trkpt lat="31.4345533" lon="-5.6554983"><ele>1365.0</ele><time>2026-04-23T16:45:34.901Z</time></trkpt><trkpt lat="31.4344133" lon="-5.6557333"><ele>1363.0</ele><time>2026-04-23T16:45:35.901Z</time></trkpt><trkpt lat="31.434275" lon="-5.6559767"><ele>1363.5</ele><time>2026-04-23T16:45:36.901Z</time></trkpt><trkpt lat="31.4341383" lon="-5.6562267"><ele>1364.0</ele><time>2026-04-23T16:45:37.901Z</time></trkpt><trkpt lat="31.434005" lon="-5.65648"><ele>1364.0</ele><time>2026-04-23T16:45:38.901Z</time></trkpt><trkpt lat="31.43387" lon="-5.656745"><ele>1364.0</ele><time>2026-04-23T16:45:39.901Z</time></trkpt><trkpt lat="31.433745" lon="-5.65701"><ele>1360.5</ele><time>2026-04-23T16:45:40.9Z</time></trkpt><trkpt lat="31.4336183" lon="-5.6572683"><ele>1357.0</ele><time>2026-04-23T16:45:41.901Z</time></trkpt><trkpt lat="31.4335017" lon="-5.6575283"><ele>1357.0</ele><time>2026-04-23T16:45:42.9Z</time></trkpt><trkpt lat="31.4333783" lon="-5.657785"><ele>1357.0</ele><time>2026-04-23T16:45:43.901Z</time></trkpt><trkpt lat="31.4332567" lon="-5.6580433"><ele>1357.5</ele><time>2026-04-23T16:45:44.901Z</time></trkpt><trkpt lat="31.4331317" lon="-5.6582967"><ele>1358.0</ele><time>2026-04-23T16:45:45.9Z</time></trkpt><trkpt lat="31.433005" lon="-5.6585483"><ele>1357.5</ele><time>2026-04-23T16:45:46.901Z</time></trkpt><trkpt lat="31.4328833" lon="-5.658795"><ele>1357.0</ele><time>2026-04-23T16:45:47.901Z</time></trkpt><trkpt lat="31.4327633" lon="-5.6590417"><ele>1357.0</ele><time>2026-04-23T16:45:48.9Z</time></trkpt><trkpt lat="31.4326433" lon="-5.65929"><ele>1357.0</ele><time>2026-04-23T16:45:49.901Z</time></trkpt><trkpt lat="31.4325267" lon="-5.6595383"><ele>1357.5</ele><time>2026-04-23T16:45:50.901Z</time></trkpt><trkpt lat="31.4324133" lon="-5.6597867"><ele>1358.0</ele><time>2026-04-23T16:45:51.901Z</time></trkpt><trkpt lat="31.4322983" lon="-5.6600417"><ele>1358.5</ele><time>2026-04-23T16:45:52.9Z</time></trkpt><trkpt lat="31.43219" lon="-5.6603"><ele>1359.0</ele><time>2026-04-23T16:45:53.901Z</time></trkpt><trkpt lat="31.4320933" lon="-5.66056"><ele>1356.5</ele><time>2026-04-23T16:45:54.901Z</time></trkpt><trkpt lat="31.4319983" lon="-5.6608217"><ele>1354.0</ele><time>2026-04-23T16:45:55.901Z</time></trkpt><trkpt lat="31.4319017" lon="-5.6610783"><ele>1356.0</ele><time>2026-04-23T16:45:56.901Z</time></trkpt><trkpt lat="31.4318083" lon="-5.6613417"><ele>1358.0</ele><time>2026-04-23T16:45:57.901Z</time></trkpt><trkpt lat="31.4317183" lon="-5.661595"><ele>1358.0</ele><time>2026-04-23T16:45:58.901Z</time></trkpt><trkpt lat="31.43163" lon="-5.6618517"><ele>1358.0</ele><time>2026-04-23T16:45:59.9Z</time></trkpt><trkpt lat="31.4315417" lon="-5.6621083"><ele>1358.5</ele><time>2026-04-23T16:46:00.9Z</time></trkpt><trkpt lat="31.4314517" lon="-5.66237"><ele>1359.0</ele><time>2026-04-23T16:46:01.9Z</time></trkpt><trkpt lat="31.431355" lon="-5.66263"><ele>1356.5</ele><time>2026-04-23T16:46:02.901Z</time></trkpt><trkpt lat="31.4312617" lon="-5.66289"><ele>1354.0</ele><time>2026-04-23T16:46:03.9Z</time></trkpt><trkpt lat="31.4311683" lon="-5.663155"><ele>1354.0</ele><time>2026-04-23T16:46:04.901Z</time></trkpt><trkpt lat="31.4310733" lon="-5.6634183"><ele>1354.0</ele><time>2026-04-23T16:46:05.901Z</time></trkpt><trkpt lat="31.430975" lon="-5.66369"><ele>1354.5</ele><time>2026-04-23T16:46:06.901Z</time></trkpt><trkpt lat="31.4308767" lon="-5.66396"><ele>1355.0</ele><time>2026-04-23T16:46:07.901Z</time></trkpt><trkpt lat="31.430775" lon="-5.6642317"><ele>1355.5</ele><time>2026-04-23T16:46:08.901Z</time></trkpt><trkpt lat="31.43068" lon="-5.6645117"><ele>1356.0</ele><time>2026-04-23T16:46:09.901Z</time></trkpt><trkpt lat="31.430585" lon="-5.6647867"><ele>1356.0</ele><time>2026-04-23T16:46:10.901Z</time></trkpt><trkpt lat="31.4304933" lon="-5.66506"><ele>1356.0</ele><time>2026-04-23T16:46:11.9Z</time></trkpt><trkpt lat="31.4303933" lon="-5.66533"><ele>1353.5</ele><time>2026-04-23T16:46:12.901Z</time></trkpt><trkpt lat="31.4303017" lon="-5.6655967"><ele>1351.0</ele><time>2026-04-23T16:46:13.901Z</time></trkpt><trkpt lat="31.4302033" lon="-5.6658633"><ele>1352.0</ele><time>2026-04-23T16:46:14.901Z</time></trkpt><trkpt lat="31.4301033" lon="-5.666135"><ele>1353.0</ele><time>2026-04-23T16:46:15.901Z</time></trkpt><trkpt lat="31.4299967" lon="-5.6664083"><ele>1353.0</ele><time>2026-04-23T16:46:16.901Z</time></trkpt><trkpt lat="31.4298867" lon="-5.666685"><ele>1353.0</ele><time>2026-04-23T16:46:17.901Z</time></trkpt><trkpt lat="31.429785" lon="-5.6669717"><ele>1353.0</ele><time>2026-04-23T16:46:18.901Z</time></trkpt><trkpt lat="31.4296833" lon="-5.66727"><ele>1353.0</ele><time>2026-04-23T16:46:19.9Z</time></trkpt><trkpt lat="31.4295867" lon="-5.6675667"><ele>1353.5</ele><time>2026-04-23T16:46:20.901Z</time></trkpt><trkpt lat="31.4294867" lon="-5.667875"><ele>1354.0</ele><time>2026-04-23T16:46:21.901Z</time></trkpt><trkpt lat="31.4293917" lon="-5.6681817"><ele>1354.0</ele><time>2026-04-23T16:46:22.9Z</time></trkpt><trkpt lat="31.4292883" lon="-5.66847"><ele>1354.0</ele><time>2026-04-23T16:46:23.901Z</time></trkpt><trkpt lat="31.4291867" lon="-5.668745"><ele>1354.0</ele><time>2026-04-23T16:46:24.901Z</time></trkpt><trkpt lat="31.4290917" lon="-5.6690233"><ele>1354.0</ele><time>2026-04-23T16:46:25.9Z</time></trkpt><trkpt lat="31.428985" lon="-5.6692967"><ele>1354.0</ele><time>2026-04-23T16:46:26.9Z</time></trkpt><trkpt lat="31.42887" lon="-5.66957"><ele>1354.0</ele><time>2026-04-23T16:46:27.901Z</time></trkpt><trkpt lat="31.42874" lon="-5.6698483"><ele>1354.0</ele><time>2026-04-23T16:46:28.9Z</time></trkpt><trkpt lat="31.4285933" lon="-5.67012"><ele>1354.0</ele><time>2026-04-23T16:46:29.901Z</time></trkpt><trkpt lat="31.42844" lon="-5.6703933"><ele>1354.0</ele><time>2026-04-23T16:46:30.9Z</time></trkpt><trkpt lat="31.428285" lon="-5.6706683"><ele>1354.0</ele><time>2026-04-23T16:46:31.901Z</time></trkpt><trkpt lat="31.4281333" lon="-5.670945"><ele>1352.5</ele><time>2026-04-23T16:46:32.901Z</time></trkpt><trkpt lat="31.42797" lon="-5.6712233"><ele>1351.0</ele><time>2026-04-23T16:46:33.901Z</time></trkpt><trkpt lat="31.42781" lon="-5.6715117"><ele>1351.0</ele><time>2026-04-23T16:46:34.9Z</time></trkpt><trkpt lat="31.427655" lon="-5.6717967"><ele>1351.0</ele><time>2026-04-23T16:46:35.901Z</time></trkpt><trkpt lat="31.427495" lon="-5.67209"><ele>1351.0</ele><time>2026-04-23T16:46:36.901Z</time></trkpt><trkpt lat="31.427335" lon="-5.6723767"><ele>1351.0</ele><time>2026-04-23T16:46:37.9Z</time></trkpt><trkpt lat="31.42718" lon="-5.6726517"><ele>1350.0</ele><time>2026-04-23T16:46:38.901Z</time></trkpt><trkpt lat="31.42703" lon="-5.67293"><ele>1349.0</ele><time>2026-04-23T16:46:39.901Z</time></trkpt><trkpt lat="31.4268767" lon="-5.6731983"><ele>1349.0</ele><time>2026-04-23T16:46:40.9Z</time></trkpt><trkpt lat="31.4267283" lon="-5.673465"><ele>1349.0</ele><time>2026-04-23T16:46:41.901Z</time></trkpt><trkpt lat="31.4265717" lon="-5.67374"><ele>1349.0</ele><time>2026-04-23T16:46:42.901Z</time></trkpt><trkpt lat="31.426425" lon="-5.674005"><ele>1349.0</ele><time>2026-04-23T16:46:43.9Z</time></trkpt><trkpt lat="31.426275" lon="-5.674275"><ele>1347.5</ele><time>2026-04-23T16:46:44.901Z</time></trkpt><trkpt lat="31.4261267" lon="-5.6745467"><ele>1346.0</ele><time>2026-04-23T16:46:45.901Z</time></trkpt><trkpt lat="31.42597" lon="-5.6748167"><ele>1346.0</ele><time>2026-04-23T16:46:46.901Z</time></trkpt><trkpt lat="31.4258183" lon="-5.6750933"><ele>1346.0</ele><time>2026-04-23T16:46:47.901Z</time></trkpt><trkpt lat="31.4256667" lon="-5.6753667"><ele>1346.0</ele><time>2026-04-23T16:46:48.901Z</time></trkpt><trkpt lat="31.425515" lon="-5.6756383"><ele>1346.0</ele><time>2026-04-23T16:46:49.901Z</time></trkpt><trkpt lat="31.4253617" lon="-5.675905"><ele>1346.5</ele><time>2026-04-23T16:46:50.901Z</time></trkpt><trkpt lat="31.425215" lon="-5.6761733"><ele>1347.0</ele><time>2026-04-23T16:46:51.901Z</time></trkpt><trkpt lat="31.425065" lon="-5.67644"><ele>1347.0</ele><time>2026-04-23T16:46:52.9Z</time></trkpt><trkpt lat="31.42492" lon="-5.6766967"><ele>1347.0</ele><time>2026-04-23T16:46:53.9Z</time></trkpt><trkpt lat="31.4247783" lon="-5.6769533"><ele>1346.5</ele><time>2026-04-23T16:46:54.901Z</time></trkpt><trkpt lat="31.4246383" lon="-5.6772083"><ele>1346.0</ele><time>2026-04-23T16:46:55.901Z</time></trkpt><trkpt lat="31.4244983" lon="-5.67746"><ele>1346.0</ele><time>2026-04-23T16:46:56.901Z</time></trkpt><trkpt lat="31.4243583" lon="-5.677715"><ele>1346.0</ele><time>2026-04-23T16:46:57.901Z</time></trkpt><trkpt lat="31.4242133" lon="-5.677965"><ele>1346.5</ele><time>2026-04-23T16:46:58.901Z</time></trkpt><trkpt lat="31.4240683" lon="-5.678225"><ele>1347.0</ele><time>2026-04-23T16:46:59.9Z</time></trkpt><trkpt lat="31.423925" lon="-5.6784867"><ele>1346.5</ele><time>2026-04-23T16:47:00.901Z</time></trkpt><trkpt lat="31.4237867" lon="-5.6787467"><ele>1346.0</ele><time>2026-04-23T16:47:01.9Z</time></trkpt><trkpt lat="31.42364" lon="-5.6790117"><ele>1346.0</ele><time>2026-04-23T16:47:02.901Z</time></trkpt><trkpt lat="31.4234883" lon="-5.6792733"><ele>1346.0</ele><time>2026-04-23T16:47:03.901Z</time></trkpt><trkpt lat="31.4233417" lon="-5.6795383"><ele>1346.0</ele><time>2026-04-23T16:47:04.901Z</time></trkpt><trkpt lat="31.4231883" lon="-5.679805"><ele>1346.0</ele><time>2026-04-23T16:47:05.901Z</time></trkpt><trkpt lat="31.423035" lon="-5.6800767"><ele>1346.0</ele><time>2026-04-23T16:47:06.901Z</time></trkpt><trkpt lat="31.4228783" lon="-5.6803483"><ele>1346.0</ele><time>2026-04-23T16:47:07.9Z</time></trkpt><trkpt lat="31.422725" lon="-5.68063"><ele>1346.0</ele><time>2026-04-23T16:47:08.9Z</time></trkpt><trkpt lat="31.42257" lon="-5.6809033"><ele>1346.0</ele><time>2026-04-23T16:47:09.901Z</time></trkpt><trkpt lat="31.422425" lon="-5.68117"><ele>1346.5</ele><time>2026-04-23T16:47:10.901Z</time></trkpt><trkpt lat="31.4222783" lon="-5.681435"><ele>1347.0</ele><time>2026-04-23T16:47:11.9Z</time></trkpt><trkpt lat="31.4221267" lon="-5.6816983"><ele>1347.0</ele><time>2026-04-23T16:47:12.901Z</time></trkpt><trkpt lat="31.4219783" lon="-5.681965"><ele>1347.0</ele><time>2026-04-23T16:47:13.901Z</time></trkpt><trkpt lat="31.4218317" lon="-5.6822317"><ele>1347.0</ele><time>2026-04-23T16:47:14.901Z</time></trkpt><trkpt lat="31.4216817" lon="-5.682505"><ele>1347.0</ele><time>2026-04-23T16:47:15.9Z</time></trkpt><trkpt lat="31.4215317" lon="-5.6827783"><ele>1346.5</ele><time>2026-04-23T16:47:16.901Z</time></trkpt><trkpt lat="31.4213817" lon="-5.6830433"><ele>1346.0</ele><time>2026-04-23T16:47:17.901Z</time></trkpt><trkpt lat="31.4212283" lon="-5.6833183"><ele>1346.0</ele><time>2026-04-23T16:47:18.9Z</time></trkpt><trkpt lat="31.4210733" lon="-5.68359"><ele>1346.0</ele><time>2026-04-23T16:47:19.9Z</time></trkpt><trkpt lat="31.4209217" lon="-5.6838633"><ele>1347.0</ele><time>2026-04-23T16:47:20.9Z</time></trkpt><trkpt lat="31.4207667" lon="-5.684135"><ele>1348.0</ele><time>2026-04-23T16:47:21.901Z</time></trkpt><trkpt lat="31.420615" lon="-5.684415"><ele>1347.5</ele><time>2026-04-23T16:47:22.901Z</time></trkpt><trkpt lat="31.4204633" lon="-5.6846917"><ele>1347.0</ele><time>2026-04-23T16:47:23.901Z</time></trkpt><trkpt lat="31.4203033" lon="-5.6849633"><ele>1347.0</ele><time>2026-04-23T16:47:24.901Z</time></trkpt><trkpt lat="31.420155" lon="-5.6852267"><ele>1347.0</ele><time>2026-04-23T16:47:25.901Z</time></trkpt><trkpt lat="31.4200117" lon="-5.685495"><ele>1348.5</ele><time>2026-04-23T16:47:26.901Z</time></trkpt><trkpt lat="31.4198617" lon="-5.6857533"><ele>1350.0</ele><time>2026-04-23T16:47:27.9Z</time></trkpt><trkpt lat="31.4197133" lon="-5.6860183"><ele>1350.5</ele><time>2026-04-23T16:47:28.901Z</time></trkpt><trkpt lat="31.419565" lon="-5.6862817"><ele>1351.0</ele><time>2026-04-23T16:47:29.901Z</time></trkpt><trkpt lat="31.419415" lon="-5.6865483"><ele>1351.0</ele><time>2026-04-23T16:47:30.9Z</time></trkpt><trkpt lat="31.41927" lon="-5.68681"><ele>1351.0</ele><time>2026-04-23T16:47:31.901Z</time></trkpt><trkpt lat="31.4191233" lon="-5.6870733"><ele>1352.0</ele><time>2026-04-23T16:47:32.901Z</time></trkpt><trkpt lat="31.41898" lon="-5.6873367"><ele>1353.0</ele><time>2026-04-23T16:47:33.901Z</time></trkpt><trkpt lat="31.4188433" lon="-5.6875883"><ele>1354.0</ele><time>2026-04-23T16:47:34.901Z</time></trkpt><trkpt lat="31.41872" lon="-5.6878433"><ele>1355.0</ele><time>2026-04-23T16:47:35.9Z</time></trkpt><trkpt lat="31.4186083" lon="-5.6880933"><ele>1355.0</ele><time>2026-04-23T16:47:36.901Z</time></trkpt><trkpt lat="31.4185033" lon="-5.6883517"><ele>1355.0</ele><time>2026-04-23T16:47:37.901Z</time></trkpt><trkpt lat="31.4184033" lon="-5.6886167"><ele>1355.5</ele><time>2026-04-23T16:47:38.901Z</time></trkpt><trkpt lat="31.418305" lon="-5.6888817"><ele>1356.0</ele><time>2026-04-23T16:47:39.9Z</time></trkpt><trkpt lat="31.4182167" lon="-5.6891433"><ele>1356.0</ele><time>2026-04-23T16:47:40.9Z</time></trkpt><trkpt lat="31.4181217" lon="-5.6894167"><ele>1356.0</ele><time>2026-04-23T16:47:41.901Z</time></trkpt><trkpt lat="31.4180267" lon="-5.6896883"><ele>1357.0</ele><time>2026-04-23T16:47:42.9Z</time></trkpt><trkpt lat="31.4179383" lon="-5.6899633"><ele>1358.0</ele><time>2026-04-23T16:47:43.901Z</time></trkpt><trkpt lat="31.41784" lon="-5.6902367"><ele>1357.5</ele><time>2026-04-23T16:47:44.9Z</time></trkpt><trkpt lat="31.4177483" lon="-5.6905017"><ele>1357.0</ele><time>2026-04-23T16:47:45.901Z</time></trkpt><trkpt lat="31.4176567" lon="-5.6907617"><ele>1357.0</ele><time>2026-04-23T16:47:46.901Z</time></trkpt><trkpt lat="31.417565" lon="-5.6910083"><ele>1357.0</ele><time>2026-04-23T16:47:47.901Z</time></trkpt><trkpt lat="31.4174833" lon="-5.691245"><ele>1357.0</ele><time>2026-04-23T16:47:48.901Z</time></trkpt><trkpt lat="31.4173983" lon="-5.6914767"><ele>1357.0</ele><time>2026-04-23T16:47:49.901Z</time></trkpt><trkpt lat="31.4173217" lon="-5.69169"><ele>1357.0</ele><time>2026-04-23T16:47:50.901Z</time></trkpt><trkpt lat="31.417245" lon="-5.6918983"><ele>1357.0</ele><time>2026-04-23T16:47:51.901Z</time></trkpt><trkpt lat="31.4171783" lon="-5.6921033"><ele>1356.6666666666665</ele><time>2026-04-23T16:47:52.901Z</time></trkpt><trkpt lat="31.4171083" lon="-5.6923"><ele>1356.3333333333333</ele><time>2026-04-23T16:47:53.9Z</time></trkpt><trkpt lat="31.4170383" lon="-5.6924883"><ele>1356.0</ele><time>2026-04-23T16:47:54.901Z</time></trkpt><trkpt lat="31.4169767" lon="-5.6926717"><ele>1356.3333333333333</ele><time>2026-04-23T16:47:55.9Z</time></trkpt><trkpt lat="31.416905" lon="-5.69286"><ele>1356.6666666666665</ele><time>2026-04-23T16:47:56.901Z</time></trkpt><trkpt lat="31.4168367" lon="-5.693045"><ele>1357.0</ele><time>2026-04-23T16:47:57.9Z</time></trkpt><trkpt lat="31.4167767" lon="-5.6932283"><ele>1357.0</ele><time>2026-04-23T16:47:58.9Z</time></trkpt><trkpt lat="31.4167217" lon="-5.693395"><ele>1357.0</ele><time>2026-04-23T16:47:59.9Z</time></trkpt><trkpt lat="31.4166667" lon="-5.693555"><ele>1357.0</ele><time>2026-04-23T16:48:00.9Z</time></trkpt><trkpt lat="31.416615" lon="-5.6937067"><ele>1357.0</ele><time>2026-04-23T16:48:01.901Z</time></trkpt><trkpt lat="31.41656" lon="-5.6938567"><ele>1357.0</ele><time>2026-04-23T16:48:02.901Z</time></trkpt><trkpt lat="31.4165133" lon="-5.6939983"><ele>1357.0</ele><time>2026-04-23T16:48:03.9Z</time></trkpt><trkpt lat="31.4164617" lon="-5.69414"><ele>1357.0</ele><time>2026-04-23T16:48:04.9Z</time></trkpt><trkpt lat="31.4164117" lon="-5.69429"><ele>1357.0</ele><time>2026-04-23T16:48:05.901Z</time></trkpt><trkpt lat="31.4163633" lon="-5.69444"><ele>1357.0</ele><time>2026-04-23T16:48:06.9Z</time></trkpt><trkpt lat="31.41632" lon="-5.6945817"><ele>1357.0</ele><time>2026-04-23T16:48:07.901Z</time></trkpt><trkpt lat="31.416275" lon="-5.6947117"><ele>1357.0</ele><time>2026-04-23T16:48:08.9Z</time></trkpt><trkpt lat="31.41623" lon="-5.694845"><ele>1357.0</ele><time>2026-04-23T16:48:09.901Z</time></trkpt><trkpt lat="31.416185" lon="-5.6949633"><ele>1356.5</ele><time>2026-04-23T16:48:10.901Z</time></trkpt><trkpt lat="31.4161483" lon="-5.6950817"><ele>1356.0</ele><time>2026-04-23T16:48:11.901Z</time></trkpt><trkpt lat="31.416105" lon="-5.6951967"><ele>1355.5</ele><time>2026-04-23T16:48:12.901Z</time></trkpt><trkpt lat="31.4160617" lon="-5.6953267"><ele>1355.0</ele><time>2026-04-23T16:48:13.899Z</time></trkpt><trkpt lat="31.4160133" lon="-5.6954583"><ele>1355.0</ele><time>2026-04-23T16:48:14.899Z</time></trkpt><trkpt lat="31.4159667" lon="-5.695595"><ele>1355.0</ele><time>2026-04-23T16:48:15.9Z</time></trkpt><trkpt lat="31.4159133" lon="-5.695735"><ele>1355.0</ele><time>2026-04-23T16:48:16.9Z</time></trkpt><trkpt lat="31.4158633" lon="-5.6958783"><ele>1355.0</ele><time>2026-04-23T16:48:17.9Z</time></trkpt><trkpt lat="31.4158133" lon="-5.6960233"><ele>1355.75</ele><time>2026-04-23T16:48:18.9Z</time></trkpt><trkpt lat="31.41576" lon="-5.69617"><ele>1356.5</ele><time>2026-04-23T16:48:19.899Z</time></trkpt><trkpt lat="31.41571" lon="-5.6963267"><ele>1357.25</ele><time>2026-04-23T16:48:20.9Z</time></trkpt><trkpt lat="31.415655" lon="-5.6964817"><ele>1358.0</ele><time>2026-04-23T16:48:21.9Z</time></trkpt><trkpt lat="31.4156" lon="-5.6966417"><ele>1358.0</ele><time>2026-04-23T16:48:22.9Z</time></trkpt><trkpt lat="31.41554" lon="-5.696805"><ele>1358.0</ele><time>2026-04-23T16:48:23.9Z</time></trkpt><trkpt lat="31.4154817" lon="-5.6969683"><ele>1358.0</ele><time>2026-04-23T16:48:24.9Z</time></trkpt><trkpt lat="31.4154217" lon="-5.6971383"><ele>1358.0</ele><time>2026-04-23T16:48:25.9Z</time></trkpt><trkpt lat="31.4153617" lon="-5.6973083"><ele>1358.0</ele><time>2026-04-23T16:48:26.9Z</time></trkpt><trkpt lat="31.4153033" lon="-5.6974867"><ele>1358.0</ele><time>2026-04-23T16:48:27.9Z</time></trkpt><trkpt lat="31.4152417" lon="-5.697665"><ele>1357.6666666666667</ele><time>2026-04-23T16:48:28.9Z</time></trkpt><trkpt lat="31.4151783" lon="-5.69785"><ele>1357.3333333333333</ele><time>2026-04-23T16:48:29.9Z</time></trkpt><trkpt lat="31.4151067" lon="-5.698045"><ele>1357.0</ele><time>2026-04-23T16:48:30.9Z</time></trkpt><trkpt lat="31.4150367" lon="-5.6982317"><ele>1357.0</ele><time>2026-04-23T16:48:31.9Z</time></trkpt><trkpt lat="31.414965" lon="-5.6984167"><ele>1357.0</ele><time>2026-04-23T16:48:32.9Z</time></trkpt><trkpt lat="31.4149017" lon="-5.698595"><ele>1357.0</ele><time>2026-04-23T16:48:33.9Z</time></trkpt><trkpt lat="31.41485" lon="-5.6987633"><ele>1357.3333333333333</ele><time>2026-04-23T16:48:34.899Z</time></trkpt><trkpt lat="31.4147967" lon="-5.698925"><ele>1357.6666666666667</ele><time>2026-04-23T16:48:35.9Z</time></trkpt><trkpt lat="31.4147417" lon="-5.6990933"><ele>1358.0</ele><time>2026-04-23T16:48:36.9Z</time></trkpt><trkpt lat="31.41469" lon="-5.6992567"><ele>1357.3333333333335</ele><time>2026-04-23T16:48:37.9Z</time></trkpt><trkpt lat="31.4146333" lon="-5.69942"><ele>1356.6666666666667</ele><time>2026-04-23T16:48:38.899Z</time></trkpt><trkpt lat="31.4145767" lon="-5.699595"><ele>1356.0</ele><time>2026-04-23T16:48:39.899Z</time></trkpt><trkpt lat="31.4145133" lon="-5.6997683"><ele>1356.0</ele><time>2026-04-23T16:48:40.899Z</time></trkpt><trkpt lat="31.4144517" lon="-5.6999433"><ele>1356.0</ele><time>2026-04-23T16:48:41.899Z</time></trkpt><trkpt lat="31.41439" lon="-5.700125"><ele>1356.0</ele><time>2026-04-23T16:48:42.9Z</time></trkpt><trkpt lat="31.414325" lon="-5.700305"><ele>1357.0</ele><time>2026-04-23T16:48:43.9Z</time></trkpt><trkpt lat="31.4142583" lon="-5.7004883"><ele>1358.0</ele><time>2026-04-23T16:48:44.9Z</time></trkpt><trkpt lat="31.41419" lon="-5.700675"><ele>1359.0</ele><time>2026-04-23T16:48:45.9Z</time></trkpt><trkpt lat="31.414125" lon="-5.700875"><ele>1359.0</ele><time>2026-04-23T16:48:46.9Z</time></trkpt><trkpt lat="31.414055" lon="-5.70107"><ele>1359.0</ele><time>2026-04-23T16:48:47.9Z</time></trkpt><trkpt lat="31.4139867" lon="-5.7012717"><ele>1359.0</ele><time>2026-04-23T16:48:48.9Z</time></trkpt><trkpt lat="31.4139217" lon="-5.7014717"><ele>1359.0</ele><time>2026-04-23T16:48:49.9Z</time></trkpt><trkpt lat="31.4138483" lon="-5.7016767"><ele>1359.0</ele><time>2026-04-23T16:48:50.9Z</time></trkpt><trkpt lat="31.41377" lon="-5.7018733"><ele>1359.0</ele><time>2026-04-23T16:48:51.9Z</time></trkpt><trkpt lat="31.413695" lon="-5.7020733"><ele>1359.0</ele><time>2026-04-23T16:48:52.899Z</time></trkpt><trkpt lat="31.4136267" lon="-5.7022767"><ele>1359.0</ele><time>2026-04-23T16:48:53.899Z</time></trkpt><trkpt lat="31.4135533" lon="-5.70249"><ele>1359.0</ele><time>2026-04-23T16:48:54.899Z</time></trkpt><trkpt lat="31.4134733" lon="-5.7027017"><ele>1359.3333333333333</ele><time>2026-04-23T16:48:55.899Z</time></trkpt><trkpt lat="31.41339" lon="-5.7029217"><ele>1359.6666666666665</ele><time>2026-04-23T16:48:56.899Z</time></trkpt><trkpt lat="31.4133167" lon="-5.703125"><ele>1360.0</ele><time>2026-04-23T16:48:57.9Z</time></trkpt><trkpt lat="31.4132533" lon="-5.7033167"><ele>1360.0</ele><time>2026-04-23T16:48:58.9Z</time></trkpt><trkpt lat="31.413185" lon="-5.7034983"><ele>1360.0</ele><time>2026-04-23T16:48:59.899Z</time></trkpt><trkpt lat="31.4131233" lon="-5.7036783"><ele>1360.0</ele><time>2026-04-23T16:49:00.9Z</time></trkpt><trkpt lat="31.41306" lon="-5.7038617"><ele>1360.0</ele><time>2026-04-23T16:49:01.9Z</time></trkpt><trkpt lat="31.4129983" lon="-5.70405"><ele>1360.0</ele><time>2026-04-23T16:49:02.899Z</time></trkpt><trkpt lat="31.4129367" lon="-5.70423"><ele>1360.0</ele><time>2026-04-23T16:49:03.9Z</time></trkpt><trkpt lat="31.412875" lon="-5.7044117"><ele>1361.3333333333333</ele><time>2026-04-23T16:49:04.9Z</time></trkpt><trkpt lat="31.4128133" lon="-5.7045983"><ele>1362.6666666666667</ele><time>2026-04-23T16:49:05.9Z</time></trkpt><trkpt lat="31.4127567" lon="-5.7047733"><ele>1364.0</ele><time>2026-04-23T16:49:06.9Z</time></trkpt><trkpt lat="31.4126967" lon="-5.7049517"><ele>1364.0</ele><time>2026-04-23T16:49:07.899Z</time></trkpt><trkpt lat="31.4126417" lon="-5.70513"><ele>1364.0</ele><time>2026-04-23T16:49:08.9Z</time></trkpt><trkpt lat="31.4125767" lon="-5.705305"><ele>1364.0</ele><time>2026-04-23T16:49:09.899Z</time></trkpt><trkpt lat="31.4125183" lon="-5.7054733"><ele>1363.6666666666667</ele><time>2026-04-23T16:49:10.9Z</time></trkpt><trkpt lat="31.41246" lon="-5.705635"><ele>1363.3333333333333</ele><time>2026-04-23T16:49:11.9Z</time></trkpt><trkpt lat="31.412405" lon="-5.7058"><ele>1363.0</ele><time>2026-04-23T16:49:12.9Z</time></trkpt><trkpt lat="31.4123417" lon="-5.7059617"><ele>1363.6666666666665</ele><time>2026-04-23T16:49:13.9Z</time></trkpt><trkpt lat="31.4122733" lon="-5.70613"><ele>1364.3333333333333</ele><time>2026-04-23T16:49:14.9Z</time></trkpt><trkpt lat="31.4121983" lon="-5.706305"><ele>1365.0</ele><time>2026-04-23T16:49:15.899Z</time></trkpt><trkpt lat="31.4121167" lon="-5.70648"><ele>1365.0</ele><time>2026-04-23T16:49:16.9Z</time></trkpt><trkpt lat="31.4120333" lon="-5.7066483"><ele>1365.0</ele><time>2026-04-23T16:49:17.9Z</time></trkpt><trkpt lat="31.41195" lon="-5.7068167"><ele>1365.0</ele><time>2026-04-23T16:49:18.9Z</time></trkpt><trkpt lat="31.4118583" lon="-5.7069817"><ele>1365.0</ele><time>2026-04-23T16:49:19.9Z</time></trkpt><trkpt lat="31.41176" lon="-5.7071433"><ele>1365.0</ele><time>2026-04-23T16:49:20.9Z</time></trkpt><trkpt lat="31.4116617" lon="-5.7073083"><ele>1365.0</ele><time>2026-04-23T16:49:21.899Z</time></trkpt><trkpt lat="31.4115683" lon="-5.7074633"><ele>1365.0</ele><time>2026-04-23T16:49:22.9Z</time></trkpt><trkpt lat="31.4114717" lon="-5.7076183"><ele>1365.0</ele><time>2026-04-23T16:49:23.9Z</time></trkpt><trkpt lat="31.4113783" lon="-5.70777"><ele>1365.0</ele><time>2026-04-23T16:49:24.899Z</time></trkpt><trkpt lat="31.411295" lon="-5.7079167"><ele>1365.25</ele><time>2026-04-23T16:49:25.899Z</time></trkpt><trkpt lat="31.4112117" lon="-5.7080533"><ele>1365.5</ele><time>2026-04-23T16:49:26.899Z</time></trkpt><trkpt lat="31.41113" lon="-5.7081883"><ele>1365.75</ele><time>2026-04-23T16:49:27.899Z</time></trkpt><trkpt lat="31.41104" lon="-5.7083267"><ele>1366.0</ele><time>2026-04-23T16:49:28.9Z</time></trkpt><trkpt lat="31.4109467" lon="-5.7084633"><ele>1366.5</ele><time>2026-04-23T16:49:29.9Z</time></trkpt><trkpt lat="31.4108533" lon="-5.7086033"><ele>1367.0</ele><time>2026-04-23T16:49:30.899Z</time></trkpt><trkpt lat="31.4107633" lon="-5.7087367"><ele>1367.5</ele><time>2026-04-23T16:49:31.9Z</time></trkpt><trkpt lat="31.4106733" lon="-5.708875"><ele>1368.0</ele><time>2026-04-23T16:49:32.9Z</time></trkpt><trkpt lat="31.4105833" lon="-5.7090167"><ele>1368.0</ele><time>2026-04-23T16:49:33.9Z</time></trkpt><trkpt lat="31.4104967" lon="-5.7091483"><ele>1368.0</ele><time>2026-04-23T16:49:34.9Z</time></trkpt><trkpt lat="31.41042" lon="-5.7092783"><ele>1368.0</ele><time>2026-04-23T16:49:35.9Z</time></trkpt><trkpt lat="31.4103417" lon="-5.7094067"><ele>1368.0</ele><time>2026-04-23T16:49:36.899Z</time></trkpt><trkpt lat="31.4102683" lon="-5.7095333"><ele>1367.5</ele><time>2026-04-23T16:49:37.899Z</time></trkpt><trkpt lat="31.4101917" lon="-5.70965"><ele>1367.0</ele><time>2026-04-23T16:49:38.899Z</time></trkpt><trkpt lat="31.4101133" lon="-5.709785"><ele>1366.5</ele><time>2026-04-23T16:49:39.9Z</time></trkpt><trkpt lat="31.410035" lon="-5.7099167"><ele>1366.0</ele><time>2026-04-23T16:49:40.899Z</time></trkpt><trkpt lat="31.409955" lon="-5.7100417"><ele>1366.0</ele><time>2026-04-23T16:49:41.899Z</time></trkpt><trkpt lat="31.4098733" lon="-5.7101733"><ele>1366.0</ele><time>2026-04-23T16:49:42.9Z</time></trkpt><trkpt lat="31.40979" lon="-5.7103083"><ele>1366.0</ele><time>2026-04-23T16:49:43.9Z</time></trkpt><trkpt lat="31.4097083" lon="-5.7104367"><ele>1366.0</ele><time>2026-04-23T16:49:44.899Z</time></trkpt><trkpt lat="31.40964" lon="-5.71056"><ele>1365.5</ele><time>2026-04-23T16:49:45.9Z</time></trkpt><trkpt lat="31.4095767" lon="-5.7106733"><ele>1365.0</ele><time>2026-04-23T16:49:46.9Z</time></trkpt><trkpt lat="31.4095033" lon="-5.710785"><ele>1364.5</ele><time>2026-04-23T16:49:47.9Z</time></trkpt><trkpt lat="31.4094283" lon="-5.7109"><ele>1364.0</ele><time>2026-04-23T16:49:48.9Z</time></trkpt><trkpt lat="31.4093517" lon="-5.7110233"><ele>1364.0</ele><time>2026-04-23T16:49:49.9Z</time></trkpt><trkpt lat="31.4092733" lon="-5.7111367"><ele>1364.0</ele><time>2026-04-23T16:49:50.9Z</time></trkpt><trkpt lat="31.4091883" lon="-5.7112633"><ele>1364.0</ele><time>2026-04-23T16:49:51.899Z</time></trkpt><trkpt lat="31.4091067" lon="-5.71139"><ele>1364.0</ele><time>2026-04-23T16:49:52.9Z</time></trkpt><trkpt lat="31.4090267" lon="-5.7115167"><ele>1364.0</ele><time>2026-04-23T16:49:53.9Z</time></trkpt><trkpt lat="31.4089433" lon="-5.7116583"><ele>1364.0</ele><time>2026-04-23T16:49:54.899Z</time></trkpt><trkpt lat="31.4088517" lon="-5.7117967"><ele>1364.0</ele><time>2026-04-23T16:49:55.9Z</time></trkpt><trkpt lat="31.4087667" lon="-5.711945"><ele>1364.0</ele><time>2026-04-23T16:49:56.9Z</time></trkpt><trkpt lat="31.4086783" lon="-5.712095"><ele>1364.25</ele><time>2026-04-23T16:49:57.9Z</time></trkpt><trkpt lat="31.40859" lon="-5.712235"><ele>1364.5</ele><time>2026-04-23T16:49:58.899Z</time></trkpt><trkpt lat="31.4084933" lon="-5.7123683"><ele>1364.75</ele><time>2026-04-23T16:49:59.9Z</time></trkpt><trkpt lat="31.4084083" lon="-5.712505"><ele>1365.0</ele><time>2026-04-23T16:50:00.9Z</time></trkpt><trkpt lat="31.408325" lon="-5.7126367"><ele>1365.0</ele><time>2026-04-23T16:50:01.9Z</time></trkpt><trkpt lat="31.4082483" lon="-5.712775"><ele>1365.0</ele><time>2026-04-23T16:50:02.9Z</time></trkpt><trkpt lat="31.4081633" lon="-5.7129083"><ele>1365.0</ele><time>2026-04-23T16:50:03.9Z</time></trkpt><trkpt lat="31.4080767" lon="-5.71304"><ele>1365.0</ele><time>2026-04-23T16:50:04.9Z</time></trkpt><trkpt lat="31.4079917" lon="-5.71318"><ele>1365.0</ele><time>2026-04-23T16:50:05.9Z</time></trkpt><trkpt lat="31.4079033" lon="-5.713325"><ele>1365.0</ele><time>2026-04-23T16:50:06.899Z</time></trkpt><trkpt lat="31.4078083" lon="-5.7134633"><ele>1365.0</ele><time>2026-04-23T16:50:07.899Z</time></trkpt><trkpt lat="31.4077133" lon="-5.71361"><ele>1365.0</ele><time>2026-04-23T16:50:08.899Z</time></trkpt><trkpt lat="31.4076183" lon="-5.713765"><ele>1365.0</ele><time>2026-04-23T16:50:09.899Z</time></trkpt><trkpt lat="31.407525" lon="-5.7139117"><ele>1365.0</ele><time>2026-04-23T16:50:10.899Z</time></trkpt><trkpt lat="31.4074383" lon="-5.7140433"><ele>1365.0</ele><time>2026-04-23T16:50:11.9Z</time></trkpt><trkpt lat="31.407355" lon="-5.71418"><ele>1365.0</ele><time>2026-04-23T16:50:12.899Z</time></trkpt><trkpt lat="31.407275" lon="-5.7143183"><ele>1365.0</ele><time>2026-04-23T16:50:13.9Z</time></trkpt><trkpt lat="31.407185" lon="-5.7144567"><ele>1365.0</ele><time>2026-04-23T16:50:14.899Z</time></trkpt><trkpt lat="31.4070917" lon="-5.7146017"><ele>1365.0</ele><time>2026-04-23T16:50:15.9Z</time></trkpt><trkpt lat="31.4069983" lon="-5.714755"><ele>1365.0</ele><time>2026-04-23T16:50:16.899Z</time></trkpt><trkpt lat="31.4069017" lon="-5.7149083"><ele>1365.0</ele><time>2026-04-23T16:50:17.9Z</time></trkpt><trkpt lat="31.4068" lon="-5.71507"><ele>1365.0</ele><time>2026-04-23T16:50:18.899Z</time></trkpt><trkpt lat="31.4066933" lon="-5.715235"><ele>1365.0</ele><time>2026-04-23T16:50:19.9Z</time></trkpt><trkpt lat="31.40659" lon="-5.7154083"><ele>1365.0</ele><time>2026-04-23T16:50:20.9Z</time></trkpt><trkpt lat="31.4064767" lon="-5.7155867"><ele>1365.3333333333333</ele><time>2026-04-23T16:50:21.9Z</time></trkpt><trkpt lat="31.4063567" lon="-5.7157733"><ele>1365.6666666666665</ele><time>2026-04-23T16:50:22.899Z</time></trkpt><trkpt lat="31.406235" lon="-5.71596"><ele>1366.0</ele><time>2026-04-23T16:50:23.9Z</time></trkpt><trkpt lat="31.4061133" lon="-5.716155"><ele>1367.3333333333333</ele><time>2026-04-23T16:50:24.9Z</time></trkpt><trkpt lat="31.4059883" lon="-5.71635"><ele>1368.6666666666667</ele><time>2026-04-23T16:50:25.9Z</time></trkpt><trkpt lat="31.405865" lon="-5.7165433"><ele>1370.0</ele><time>2026-04-23T16:50:26.9Z</time></trkpt><trkpt lat="31.4057367" lon="-5.716745"><ele>1369.0</ele><time>2026-04-23T16:50:27.899Z</time></trkpt><trkpt lat="31.4056033" lon="-5.7169567"><ele>1368.0</ele><time>2026-04-23T16:50:28.9Z</time></trkpt><trkpt lat="31.40546" lon="-5.7171783"><ele>1368.0</ele><time>2026-04-23T16:50:29.9Z</time></trkpt><trkpt lat="31.4053083" lon="-5.7174117"><ele>1368.0</ele><time>2026-04-23T16:50:30.9Z</time></trkpt><trkpt lat="31.4051533" lon="-5.7176583"><ele>1369.0</ele><time>2026-04-23T16:50:31.9Z</time></trkpt><trkpt lat="31.4049967" lon="-5.7179"><ele>1370.0</ele><time>2026-04-23T16:50:32.9Z</time></trkpt><trkpt lat="31.4048433" lon="-5.7181517"><ele>1370.0</ele><time>2026-04-23T16:50:33.9Z</time></trkpt><trkpt lat="31.4046967" lon="-5.7183983"><ele>1370.0</ele><time>2026-04-23T16:50:34.9Z</time></trkpt><trkpt lat="31.404555" lon="-5.71863"><ele>1369.3333333333335</ele><time>2026-04-23T16:50:35.9Z</time></trkpt><trkpt lat="31.4044183" lon="-5.718845"><ele>1368.6666666666667</ele><time>2026-04-23T16:50:36.9Z</time></trkpt><trkpt lat="31.404295" lon="-5.71905"><ele>1368.0</ele><time>2026-04-23T16:50:37.9Z</time></trkpt><trkpt lat="31.4041733" lon="-5.7192467"><ele>1369.3333333333333</ele><time>2026-04-23T16:50:38.9Z</time></trkpt><trkpt lat="31.4040583" lon="-5.719465"><ele>1370.6666666666665</ele><time>2026-04-23T16:50:39.9Z</time></trkpt><trkpt lat="31.4039617" lon="-5.7197033"><ele>1372.0</ele><time>2026-04-23T16:50:40.899Z</time></trkpt><trkpt lat="31.4038867" lon="-5.7199567"><ele>1370.5</ele><time>2026-04-23T16:50:41.9Z</time></trkpt><trkpt lat="31.40381" lon="-5.7202233"><ele>1369.0</ele><time>2026-04-23T16:50:42.899Z</time></trkpt><trkpt lat="31.4037483" lon="-5.7204883"><ele>1369.0</ele><time>2026-04-23T16:50:43.9Z</time></trkpt><trkpt lat="31.403695" lon="-5.7207467"><ele>1369.0</ele><time>2026-04-23T16:50:44.899Z</time></trkpt><trkpt lat="31.4036467" lon="-5.72101"><ele>1370.0</ele><time>2026-04-23T16:50:45.9Z</time></trkpt><trkpt lat="31.40359" lon="-5.721275"><ele>1371.0</ele><time>2026-04-23T16:50:46.9Z</time></trkpt><trkpt lat="31.4035317" lon="-5.72154"><ele>1371.0</ele><time>2026-04-23T16:50:47.899Z</time></trkpt><trkpt lat="31.4034733" lon="-5.7217883"><ele>1371.0</ele><time>2026-04-23T16:50:48.9Z</time></trkpt><trkpt lat="31.4034233" lon="-5.7220317"><ele>1371.0</ele><time>2026-04-23T16:50:49.9Z</time></trkpt><trkpt lat="31.40338" lon="-5.722265"><ele>1372.3333333333333</ele><time>2026-04-23T16:50:50.899Z</time></trkpt><trkpt lat="31.40333" lon="-5.7225033"><ele>1373.6666666666665</ele><time>2026-04-23T16:50:51.9Z</time></trkpt><trkpt lat="31.40328" lon="-5.7227517"><ele>1375.0</ele><time>2026-04-23T16:50:52.9Z</time></trkpt><trkpt lat="31.40323" lon="-5.7230033"><ele>1375.6666666666665</ele><time>2026-04-23T16:50:53.9Z</time></trkpt><trkpt lat="31.403185" lon="-5.7232583"><ele>1376.3333333333333</ele><time>2026-04-23T16:50:54.9Z</time></trkpt><trkpt lat="31.4031367" lon="-5.7235183"><ele>1377.0</ele><time>2026-04-23T16:50:55.9Z</time></trkpt><trkpt lat="31.40309" lon="-5.7237783"><ele>1377.5</ele><time>2026-04-23T16:50:56.9Z</time></trkpt><trkpt lat="31.403035" lon="-5.724045"><ele>1378.0</ele><time>2026-04-23T16:50:57.899Z</time></trkpt><trkpt lat="31.402985" lon="-5.7242983"><ele>1378.5</ele><time>2026-04-23T16:50:58.9Z</time></trkpt><trkpt lat="31.40293" lon="-5.7245567"><ele>1379.0</ele><time>2026-04-23T16:50:59.899Z</time></trkpt><trkpt lat="31.40288" lon="-5.7248217"><ele>1379.0</ele><time>2026-04-23T16:51:00.899Z</time></trkpt><trkpt lat="31.4028233" lon="-5.725085"><ele>1379.0</ele><time>2026-04-23T16:51:01.9Z</time></trkpt><trkpt lat="31.40277" lon="-5.7253367"><ele>1379.3333333333335</ele><time>2026-04-23T16:51:02.899Z</time></trkpt><trkpt lat="31.40271" lon="-5.7255717"><ele>1379.6666666666667</ele><time>2026-04-23T16:51:03.9Z</time></trkpt><trkpt lat="31.40265" lon="-5.7258083"><ele>1380.0</ele><time>2026-04-23T16:51:04.9Z</time></trkpt><trkpt lat="31.402575" lon="-5.726045"><ele>1379.5</ele><time>2026-04-23T16:51:05.9Z</time></trkpt><trkpt lat="31.402485" lon="-5.7262883"><ele>1379.0</ele><time>2026-04-23T16:51:06.9Z</time></trkpt><trkpt lat="31.402385" lon="-5.7265333"><ele>1379.0</ele><time>2026-04-23T16:51:07.899Z</time></trkpt><trkpt lat="31.40227" lon="-5.726785"><ele>1379.0</ele><time>2026-04-23T16:51:08.9Z</time></trkpt><trkpt lat="31.4021467" lon="-5.7270233"><ele>1378.5</ele><time>2026-04-23T16:51:09.9Z</time></trkpt><trkpt lat="31.4020167" lon="-5.7272467"><ele>1378.0</ele><time>2026-04-23T16:51:10.9Z</time></trkpt><trkpt lat="31.4018783" lon="-5.7274633"><ele>1378.0</ele><time>2026-04-23T16:51:11.9Z</time></trkpt><trkpt lat="31.40174" lon="-5.7276717"><ele>1378.0</ele><time>2026-04-23T16:51:12.9Z</time></trkpt><trkpt lat="31.40161" lon="-5.7278783"><ele>1378.0</ele><time>2026-04-23T16:51:13.899Z</time></trkpt><trkpt lat="31.4014883" lon="-5.7280783"><ele>1378.3333333333333</ele><time>2026-04-23T16:51:14.899Z</time></trkpt><trkpt lat="31.4013667" lon="-5.7282733"><ele>1378.6666666666667</ele><time>2026-04-23T16:51:15.9Z</time></trkpt><trkpt lat="31.4012483" lon="-5.72847"><ele>1379.0</ele><time>2026-04-23T16:51:16.9Z</time></trkpt><trkpt lat="31.4011283" lon="-5.7286717"><ele>1379.3333333333335</ele><time>2026-04-23T16:51:17.9Z</time></trkpt><trkpt lat="31.4010083" lon="-5.7288667"><ele>1379.6666666666667</ele><time>2026-04-23T16:51:18.9Z</time></trkpt><trkpt lat="31.400895" lon="-5.7290533"><ele>1380.0</ele><time>2026-04-23T16:51:19.9Z</time></trkpt><trkpt lat="31.4007783" lon="-5.7292367"><ele>1379.6666666666667</ele><time>2026-04-23T16:51:20.9Z</time></trkpt><trkpt lat="31.4006617" lon="-5.7294233"><ele>1379.3333333333335</ele><time>2026-04-23T16:51:21.899Z</time></trkpt><trkpt lat="31.40054" lon="-5.7296133"><ele>1379.0</ele><time>2026-04-23T16:51:22.9Z</time></trkpt><trkpt lat="31.4004167" lon="-5.7298017"><ele>1379.0</ele><time>2026-04-23T16:51:23.9Z</time></trkpt><trkpt lat="31.4003" lon="-5.7299817"><ele>1379.0</ele><time>2026-04-23T16:51:24.9Z</time></trkpt><trkpt lat="31.400185" lon="-5.73016"><ele>1379.0</ele><time>2026-04-23T16:51:25.9Z</time></trkpt><trkpt lat="31.4000733" lon="-5.7303283"><ele>1379.0</ele><time>2026-04-23T16:51:26.9Z</time></trkpt><trkpt lat="31.3999583" lon="-5.7304833"><ele>1379.0</ele><time>2026-04-23T16:51:27.899Z</time></trkpt><trkpt lat="31.3998417" lon="-5.73063"><ele>1379.0</ele><time>2026-04-23T16:51:28.899Z</time></trkpt><trkpt lat="31.3997283" lon="-5.730765"><ele>1378.6666666666667</ele><time>2026-04-23T16:51:29.9Z</time></trkpt><trkpt lat="31.399615" lon="-5.730895"><ele>1378.3333333333333</ele><time>2026-04-23T16:51:30.9Z</time></trkpt><trkpt lat="31.399505" lon="-5.7310267"><ele>1378.0</ele><time>2026-04-23T16:51:31.899Z</time></trkpt><trkpt lat="31.399405" lon="-5.7311517"><ele>1378.0</ele><time>2026-04-23T16:51:32.9Z</time></trkpt><trkpt lat="31.39931" lon="-5.7312667"><ele>1378.0</ele><time>2026-04-23T16:51:33.9Z</time></trkpt><trkpt lat="31.39922" lon="-5.73137"><ele>1378.0</ele><time>2026-04-23T16:51:34.9Z</time></trkpt><trkpt lat="31.3991317" lon="-5.7314783"><ele>1378.0</ele><time>2026-04-23T16:51:35.9Z</time></trkpt><trkpt lat="31.3990417" lon="-5.7315833"><ele>1378.0</ele><time>2026-04-23T16:51:36.9Z</time></trkpt><trkpt lat="31.398955" lon="-5.7316883"><ele>1378.0</ele><time>2026-04-23T16:51:37.9Z</time></trkpt><trkpt lat="31.39887" lon="-5.7317883"><ele>1378.0</ele><time>2026-04-23T16:51:38.9Z</time></trkpt><trkpt lat="31.39879" lon="-5.7318867"><ele>1378.0</ele><time>2026-04-23T16:51:39.9Z</time></trkpt><trkpt lat="31.398715" lon="-5.7319883"><ele>1377.75</ele><time>2026-04-23T16:51:40.9Z</time></trkpt><trkpt lat="31.39864" lon="-5.73208"><ele>1377.5</ele><time>2026-04-23T16:51:41.899Z</time></trkpt><trkpt lat="31.3985617" lon="-5.7321733"><ele>1377.25</ele><time>2026-04-23T16:51:42.9Z</time></trkpt><trkpt lat="31.3984817" lon="-5.7322733"><ele>1377.0</ele><time>2026-04-23T16:51:43.9Z</time></trkpt><trkpt lat="31.3983983" lon="-5.7323767"><ele>1377.0</ele><time>2026-04-23T16:51:44.9Z</time></trkpt><trkpt lat="31.398315" lon="-5.732485"><ele>1377.0</ele><time>2026-04-23T16:51:45.9Z</time></trkpt><trkpt lat="31.398225" lon="-5.7325917"><ele>1377.0</ele><time>2026-04-23T16:51:46.899Z</time></trkpt><trkpt lat="31.3981333" lon="-5.7326983"><ele>1377.0</ele><time>2026-04-23T16:51:47.9Z</time></trkpt><trkpt lat="31.398035" lon="-5.732815"><ele>1378.3333333333333</ele><time>2026-04-23T16:51:48.9Z</time></trkpt><trkpt lat="31.39793" lon="-5.73294"><ele>1379.6666666666665</ele><time>2026-04-23T16:51:49.9Z</time></trkpt><trkpt lat="31.397825" lon="-5.7330733"><ele>1381.0</ele><time>2026-04-23T16:51:50.9Z</time></trkpt><trkpt lat="31.39772" lon="-5.7332033"><ele>1381.0</ele><time>2026-04-23T16:51:51.9Z</time></trkpt><trkpt lat="31.397625" lon="-5.7333367"><ele>1381.0</ele><time>2026-04-23T16:51:52.9Z</time></trkpt><trkpt lat="31.397535" lon="-5.733475"><ele>1381.0</ele><time>2026-04-23T16:51:53.9Z</time></trkpt><trkpt lat="31.39745" lon="-5.7336267"><ele>1383.3333333333333</ele><time>2026-04-23T16:51:54.9Z</time></trkpt><trkpt lat="31.397365" lon="-5.73378"><ele>1385.6666666666667</ele><time>2026-04-23T16:51:55.9Z</time></trkpt><trkpt lat="31.3972833" lon="-5.733945"><ele>1388.0</ele><time>2026-04-23T16:51:56.9Z</time></trkpt><trkpt lat="31.3972217" lon="-5.7341233"><ele>1384.6666666666667</ele><time>2026-04-23T16:51:57.9Z</time></trkpt><trkpt lat="31.3971583" lon="-5.734315"><ele>1381.3333333333333</ele><time>2026-04-23T16:51:58.9Z</time></trkpt><trkpt lat="31.3971" lon="-5.734515"><ele>1378.0</ele><time>2026-04-23T16:51:59.9Z</time></trkpt><trkpt lat="31.3970667" lon="-5.73471"><ele>1378.0</ele><time>2026-04-23T16:52:00.9Z</time></trkpt><trkpt lat="31.39705" lon="-5.73491"><ele>1378.0</ele><time>2026-04-23T16:52:01.9Z</time></trkpt><trkpt lat="31.3970367" lon="-5.7351167"><ele>1378.0</ele><time>2026-04-23T16:52:02.9Z</time></trkpt><trkpt lat="31.397025" lon="-5.7353267"><ele>1378.6666666666665</ele><time>2026-04-23T16:52:03.9Z</time></trkpt><trkpt lat="31.3970083" lon="-5.7355483"><ele>1379.3333333333333</ele><time>2026-04-23T16:52:04.9Z</time></trkpt><trkpt lat="31.3969933" lon="-5.7357717"><ele>1380.0</ele><time>2026-04-23T16:52:05.9Z</time></trkpt><trkpt lat="31.3969667" lon="-5.7359733"><ele>1380.6666666666667</ele><time>2026-04-23T16:52:06.9Z</time></trkpt><trkpt lat="31.396935" lon="-5.7361617"><ele>1381.3333333333335</ele><time>2026-04-23T16:52:07.9Z</time></trkpt><trkpt lat="31.3968917" lon="-5.736335"><ele>1382.0</ele><time>2026-04-23T16:52:08.9Z</time></trkpt><trkpt lat="31.39684" lon="-5.7365017"><ele>1382.0</ele><time>2026-04-23T16:52:09.9Z</time></trkpt><trkpt lat="31.39677" lon="-5.73668"><ele>1382.0</ele><time>2026-04-23T16:52:10.9Z</time></trkpt><trkpt lat="31.3966883" lon="-5.73687"><ele>1382.0</ele><time>2026-04-23T16:52:11.9Z</time></trkpt><trkpt lat="31.3966033" lon="-5.7370783"><ele>1382.3333333333335</ele><time>2026-04-23T16:52:12.9Z</time></trkpt><trkpt lat="31.39651" lon="-5.7372917"><ele>1382.6666666666667</ele><time>2026-04-23T16:52:13.9Z</time></trkpt><trkpt lat="31.3964133" lon="-5.7375083"><ele>1383.0</ele><time>2026-04-23T16:52:14.899Z</time></trkpt><trkpt lat="31.396315" lon="-5.7377283"><ele>1383.0</ele><time>2026-04-23T16:52:15.9Z</time></trkpt><trkpt lat="31.396215" lon="-5.73795"><ele>1383.0</ele><time>2026-04-23T16:52:16.899Z</time></trkpt><trkpt lat="31.3961183" lon="-5.7381667"><ele>1383.0</ele><time>2026-04-23T16:52:17.9Z</time></trkpt><trkpt lat="31.3960217" lon="-5.7383933"><ele>1383.5</ele><time>2026-04-23T16:52:18.9Z</time></trkpt><trkpt lat="31.3959183" lon="-5.73863"><ele>1384.0</ele><time>2026-04-23T16:52:19.9Z</time></trkpt><trkpt lat="31.3958117" lon="-5.7388767"><ele>1384.0</ele><time>2026-04-23T16:52:20.899Z</time></trkpt><trkpt lat="31.395695" lon="-5.7391317"><ele>1384.0</ele><time>2026-04-23T16:52:21.9Z</time></trkpt><trkpt lat="31.3955883" lon="-5.739395"><ele>1383.5</ele><time>2026-04-23T16:52:22.9Z</time></trkpt><trkpt lat="31.395485" lon="-5.739655"><ele>1383.0</ele><time>2026-04-23T16:52:23.9Z</time></trkpt><trkpt lat="31.3953783" lon="-5.7398967"><ele>1383.0</ele><time>2026-04-23T16:52:24.9Z</time></trkpt><trkpt lat="31.3952583" lon="-5.7401333"><ele>1383.0</ele><time>2026-04-23T16:52:25.9Z</time></trkpt><trkpt lat="31.3951183" lon="-5.7403717"><ele>1383.5</ele><time>2026-04-23T16:52:26.899Z</time></trkpt><trkpt lat="31.3949633" lon="-5.740595"><ele>1384.0</ele><time>2026-04-23T16:52:27.899Z</time></trkpt><trkpt lat="31.3947833" lon="-5.7408067"><ele>1385.0</ele><time>2026-04-23T16:52:28.899Z</time></trkpt><trkpt lat="31.39459" lon="-5.74101"><ele>1386.0</ele><time>2026-04-23T16:52:29.9Z</time></trkpt><trkpt lat="31.3943733" lon="-5.7411967"><ele>1386.0</ele><time>2026-04-23T16:52:30.9Z</time></trkpt><trkpt lat="31.3941433" lon="-5.7413867"><ele>1386.0</ele><time>2026-04-23T16:52:31.9Z</time></trkpt><trkpt lat="31.3939133" lon="-5.7415817"><ele>1386.0</ele><time>2026-04-23T16:52:32.9Z</time></trkpt><trkpt lat="31.3937017" lon="-5.7417633"><ele>1386.0</ele><time>2026-04-23T16:52:33.9Z</time></trkpt><trkpt lat="31.3934967" lon="-5.7419333"><ele>1386.0</ele><time>2026-04-23T16:52:34.9Z</time></trkpt><trkpt lat="31.3933017" lon="-5.7421"><ele>1386.0</ele><time>2026-04-23T16:52:35.899Z</time></trkpt><trkpt lat="31.3931133" lon="-5.74227"><ele>1386.3333333333333</ele><time>2026-04-23T16:52:36.9Z</time></trkpt><trkpt lat="31.3929267" lon="-5.74243"><ele>1386.6666666666665</ele><time>2026-04-23T16:52:37.9Z</time></trkpt><trkpt lat="31.3927533" lon="-5.7425833"><ele>1387.0</ele><time>2026-04-23T16:52:38.9Z</time></trkpt><trkpt lat="31.3925733" lon="-5.7427367"><ele>1386.6666666666665</ele><time>2026-04-23T16:52:39.899Z</time></trkpt><trkpt lat="31.3923917" lon="-5.74289"><ele>1386.3333333333333</ele><time>2026-04-23T16:52:40.9Z</time></trkpt><trkpt lat="31.3922133" lon="-5.7430383"><ele>1386.0</ele><time>2026-04-23T16:52:41.9Z</time></trkpt><trkpt lat="31.3920383" lon="-5.7431917"><ele>1386.0</ele><time>2026-04-23T16:52:42.9Z</time></trkpt><trkpt lat="31.391855" lon="-5.7433417"><ele>1386.0</ele><time>2026-04-23T16:52:43.9Z</time></trkpt><trkpt lat="31.3916617" lon="-5.743495"><ele>1386.5</ele><time>2026-04-23T16:52:44.899Z</time></trkpt><trkpt lat="31.3914683" lon="-5.7436617"><ele>1387.0</ele><time>2026-04-23T16:52:45.899Z</time></trkpt><trkpt lat="31.391285" lon="-5.7438367"><ele>1387.0</ele><time>2026-04-23T16:52:46.9Z</time></trkpt><trkpt lat="31.3911017" lon="-5.74401"><ele>1387.0</ele><time>2026-04-23T16:52:47.9Z</time></trkpt><trkpt lat="31.3909183" lon="-5.7441783"><ele>1387.0</ele><time>2026-04-23T16:52:48.9Z</time></trkpt><trkpt lat="31.3907267" lon="-5.744355"><ele>1387.0</ele><time>2026-04-23T16:52:49.9Z</time></trkpt><trkpt lat="31.3905333" lon="-5.7445267"><ele>1387.5</ele><time>2026-04-23T16:52:50.9Z</time></trkpt><trkpt lat="31.39035" lon="-5.744715"><ele>1388.0</ele><time>2026-04-23T16:52:51.899Z</time></trkpt><trkpt lat="31.39019" lon="-5.7449083"><ele>1388.0</ele><time>2026-04-23T16:52:52.899Z</time></trkpt><trkpt lat="31.3900333" lon="-5.745115"><ele>1388.0</ele><time>2026-04-23T16:52:53.9Z</time></trkpt><trkpt lat="31.3899017" lon="-5.7453167"><ele>1388.0</ele><time>2026-04-23T16:52:54.9Z</time></trkpt><trkpt lat="31.3897867" lon="-5.7455267"><ele>1388.0</ele><time>2026-04-23T16:52:55.899Z</time></trkpt><trkpt lat="31.3896917" lon="-5.74575"><ele>1388.0</ele><time>2026-04-23T16:52:56.9Z</time></trkpt><trkpt lat="31.389605" lon="-5.74598"><ele>1389.0</ele><time>2026-04-23T16:52:57.9Z</time></trkpt><trkpt lat="31.38953" lon="-5.7462183"><ele>1390.0</ele><time>2026-04-23T16:52:58.899Z</time></trkpt><trkpt lat="31.389475" lon="-5.746455"><ele>1391.0</ele><time>2026-04-23T16:52:59.9Z</time></trkpt><trkpt lat="31.389425" lon="-5.7466833"><ele>1391.6666666666667</ele><time>2026-04-23T16:53:00.899Z</time></trkpt><trkpt lat="31.3893733" lon="-5.746905"><ele>1392.3333333333333</ele><time>2026-04-23T16:53:01.9Z</time></trkpt><trkpt lat="31.38933" lon="-5.7471183"><ele>1393.0</ele><time>2026-04-23T16:53:02.9Z</time></trkpt><trkpt lat="31.3892917" lon="-5.747325"><ele>1393.0</ele><time>2026-04-23T16:53:03.9Z</time></trkpt><trkpt lat="31.38925" lon="-5.7475317"><ele>1393.0</ele><time>2026-04-23T16:53:04.899Z</time></trkpt><trkpt lat="31.3892133" lon="-5.7477433"><ele>1393.0</ele><time>2026-04-23T16:53:05.899Z</time></trkpt><trkpt lat="31.3891733" lon="-5.747965"><ele>1393.3333333333333</ele><time>2026-04-23T16:53:06.9Z</time></trkpt><trkpt lat="31.38913" lon="-5.7481967"><ele>1393.6666666666667</ele><time>2026-04-23T16:53:07.9Z</time></trkpt><trkpt lat="31.3890833" lon="-5.7484233"><ele>1394.0</ele><time>2026-04-23T16:53:08.899Z</time></trkpt><trkpt lat="31.38904" lon="-5.7486533"><ele>1394.3333333333335</ele><time>2026-04-23T16:53:09.9Z</time></trkpt><trkpt lat="31.388995" lon="-5.7488917"><ele>1394.6666666666667</ele><time>2026-04-23T16:53:10.9Z</time></trkpt><trkpt lat="31.3889533" lon="-5.74912"><ele>1395.0</ele><time>2026-04-23T16:53:11.899Z</time></trkpt><trkpt lat="31.3889133" lon="-5.7493433"><ele>1394.6666666666667</ele><time>2026-04-23T16:53:12.899Z</time></trkpt><trkpt lat="31.3888683" lon="-5.7495717"><ele>1394.3333333333335</ele><time>2026-04-23T16:53:13.9Z</time></trkpt><trkpt lat="31.3888167" lon="-5.749805"><ele>1394.0</ele><time>2026-04-23T16:53:14.899Z</time></trkpt><trkpt lat="31.3887717" lon="-5.75004"><ele>1394.3333333333335</ele><time>2026-04-23T16:53:15.9Z</time></trkpt><trkpt lat="31.3887217" lon="-5.7502833"><ele>1394.6666666666667</ele><time>2026-04-23T16:53:16.9Z</time></trkpt><trkpt lat="31.3886717" lon="-5.7505233"><ele>1395.0</ele><time>2026-04-23T16:53:17.9Z</time></trkpt><trkpt lat="31.3886233" lon="-5.7507667"><ele>1395.0</ele><time>2026-04-23T16:53:18.899Z</time></trkpt><trkpt lat="31.3885733" lon="-5.7510117"><ele>1395.0</ele><time>2026-04-23T16:53:19.9Z</time></trkpt><trkpt lat="31.38853" lon="-5.7512633"><ele>1395.0</ele><time>2026-04-23T16:53:20.899Z</time></trkpt><trkpt lat="31.388485" lon="-5.7515183"><ele>1395.0</ele><time>2026-04-23T16:53:21.9Z</time></trkpt><trkpt lat="31.3884383" lon="-5.7517667"><ele>1395.0</ele><time>2026-04-23T16:53:22.9Z</time></trkpt><trkpt lat="31.3883883" lon="-5.7520233"><ele>1395.0</ele><time>2026-04-23T16:53:23.9Z</time></trkpt><trkpt lat="31.3883383" lon="-5.7522783"><ele>1395.6666666666667</ele><time>2026-04-23T16:53:24.899Z</time></trkpt><trkpt lat="31.38829" lon="-5.752535"><ele>1396.3333333333335</ele><time>2026-04-23T16:53:25.9Z</time></trkpt><trkpt lat="31.3882367" lon="-5.75279"><ele>1397.0</ele><time>2026-04-23T16:53:26.9Z</time></trkpt><trkpt lat="31.3881817" lon="-5.7530417"><ele>1398.5</ele><time>2026-04-23T16:53:27.9Z</time></trkpt><trkpt lat="31.388115" lon="-5.75329"><ele>1400.0</ele><time>2026-04-23T16:53:28.9Z</time></trkpt><trkpt lat="31.3880333" lon="-5.75355"><ele>1398.5</ele><time>2026-04-23T16:53:29.9Z</time></trkpt><trkpt lat="31.3879433" lon="-5.7538083"><ele>1397.0</ele><time>2026-04-23T16:53:30.9Z</time></trkpt><trkpt lat="31.38784" lon="-5.7540683"><ele>1397.0</ele><time>2026-04-23T16:53:31.9Z</time></trkpt><trkpt lat="31.3877317" lon="-5.7543383"><ele>1397.0</ele><time>2026-04-23T16:53:32.9Z</time></trkpt><trkpt lat="31.3876167" lon="-5.7546067"><ele>1397.5</ele><time>2026-04-23T16:53:33.899Z</time></trkpt><trkpt lat="31.3875017" lon="-5.7548717"><ele>1398.0</ele><time>2026-04-23T16:53:34.9Z</time></trkpt><trkpt lat="31.3873883" lon="-5.7551467"><ele>1397.0</ele><time>2026-04-23T16:53:35.9Z</time></trkpt><trkpt lat="31.38727" lon="-5.7554117"><ele>1396.0</ele><time>2026-04-23T16:53:36.9Z</time></trkpt><trkpt lat="31.3871517" lon="-5.7556767"><ele>1396.0</ele><time>2026-04-23T16:53:37.9Z</time></trkpt><trkpt lat="31.38704" lon="-5.7559467"><ele>1396.0</ele><time>2026-04-23T16:53:38.9Z</time></trkpt><trkpt lat="31.3869283" lon="-5.7562067"><ele>1395.5</ele><time>2026-04-23T16:53:39.9Z</time></trkpt><trkpt lat="31.3868183" lon="-5.756455"><ele>1395.0</ele><time>2026-04-23T16:53:40.9Z</time></trkpt><trkpt lat="31.3867083" lon="-5.7566933"><ele>1399.5</ele><time>2026-04-23T16:53:41.899Z</time></trkpt><trkpt lat="31.3866033" lon="-5.75693"><ele>1404.0</ele><time>2026-04-23T16:53:42.9Z</time></trkpt><trkpt lat="31.3865017" lon="-5.7571683"><ele>1404.0</ele><time>2026-04-23T16:53:43.9Z</time></trkpt><trkpt lat="31.386395" lon="-5.7574217"><ele>1404.0</ele><time>2026-04-23T16:53:44.899Z</time></trkpt><trkpt lat="31.38629" lon="-5.757675"><ele>1401.5</ele><time>2026-04-23T16:53:45.9Z</time></trkpt><trkpt lat="31.3861733" lon="-5.7579267"><ele>1399.0</ele><time>2026-04-23T16:53:46.9Z</time></trkpt><trkpt lat="31.386055" lon="-5.75819"><ele>1399.0</ele><time>2026-04-23T16:53:47.899Z</time></trkpt><trkpt lat="31.3859383" lon="-5.75846"><ele>1399.0</ele><time>2026-04-23T16:53:48.899Z</time></trkpt><trkpt lat="31.3858167" lon="-5.7587333"><ele>1400.0</ele><time>2026-04-23T16:53:49.9Z</time></trkpt><trkpt lat="31.3856967" lon="-5.759015"><ele>1401.0</ele><time>2026-04-23T16:53:50.9Z</time></trkpt><trkpt lat="31.3855833" lon="-5.7592933"><ele>1399.0</ele><time>2026-04-23T16:53:51.9Z</time></trkpt><trkpt lat="31.3854667" lon="-5.75957"><ele>1397.0</ele><time>2026-04-23T16:53:52.9Z</time></trkpt><trkpt lat="31.3853433" lon="-5.7598567"><ele>1397.0</ele><time>2026-04-23T16:53:53.9Z</time></trkpt><trkpt lat="31.3852233" lon="-5.7601367"><ele>1397.0</ele><time>2026-04-23T16:53:54.9Z</time></trkpt><trkpt lat="31.38511" lon="-5.7604167"><ele>1399.0</ele><time>2026-04-23T16:53:55.899Z</time></trkpt><trkpt lat="31.384985" lon="-5.7606967"><ele>1401.0</ele><time>2026-04-23T16:53:56.9Z</time></trkpt><trkpt lat="31.384865" lon="-5.760985"><ele>1401.0</ele><time>2026-04-23T16:53:57.9Z</time></trkpt><trkpt lat="31.384735" lon="-5.7612883"><ele>1401.0</ele><time>2026-04-23T16:53:58.9Z</time></trkpt><trkpt lat="31.3845983" lon="-5.7615967"><ele>1400.5</ele><time>2026-04-23T16:53:59.899Z</time></trkpt><trkpt lat="31.38446" lon="-5.7619083"><ele>1400.0</ele><time>2026-04-23T16:54:00.899Z</time></trkpt><trkpt lat="31.38432" lon="-5.7622167"><ele>1400.0</ele><time>2026-04-23T16:54:01.899Z</time></trkpt><trkpt lat="31.3841733" lon="-5.7625417"><ele>1400.0</ele><time>2026-04-23T16:54:02.899Z</time></trkpt><trkpt lat="31.3840233" lon="-5.7628767"><ele>1400.5</ele><time>2026-04-23T16:54:03.9Z</time></trkpt><trkpt lat="31.3838817" lon="-5.7632083"><ele>1401.0</ele><time>2026-04-23T16:54:04.9Z</time></trkpt><trkpt lat="31.38376" lon="-5.7635233"><ele>1402.0</ele><time>2026-04-23T16:54:05.899Z</time></trkpt><trkpt lat="31.3836367" lon="-5.7638283"><ele>1403.0</ele><time>2026-04-23T16:54:06.9Z</time></trkpt><trkpt lat="31.38351" lon="-5.7641267"><ele>1406.0</ele><time>2026-04-23T16:54:07.899Z</time></trkpt><trkpt lat="31.38338" lon="-5.76442"><ele>1409.0</ele><time>2026-04-23T16:54:08.899Z</time></trkpt><trkpt lat="31.3832667" lon="-5.7647117"><ele>1409.0</ele><time>2026-04-23T16:54:09.9Z</time></trkpt><trkpt lat="31.38315" lon="-5.7649917"><ele>1409.0</ele><time>2026-04-23T16:54:10.899Z</time></trkpt><trkpt lat="31.38304" lon="-5.7652467"><ele>1406.5</ele><time>2026-04-23T16:54:11.899Z</time></trkpt><trkpt lat="31.382935" lon="-5.765495"><ele>1404.0</ele><time>2026-04-23T16:54:12.9Z</time></trkpt><trkpt lat="31.382825" lon="-5.7657233"><ele>1404.0</ele><time>2026-04-23T16:54:13.9Z</time></trkpt><trkpt lat="31.3827183" lon="-5.76594"><ele>1404.0</ele><time>2026-04-23T16:54:14.9Z</time></trkpt><trkpt lat="31.3826067" lon="-5.7661467"><ele>1404.0</ele><time>2026-04-23T16:54:15.9Z</time></trkpt><trkpt lat="31.3824933" lon="-5.7663367"><ele>1403.6666666666667</ele><time>2026-04-23T16:54:16.9Z</time></trkpt><trkpt lat="31.3823683" lon="-5.7665083"><ele>1403.3333333333335</ele><time>2026-04-23T16:54:17.9Z</time></trkpt><trkpt lat="31.38224" lon="-5.7666817"><ele>1403.0</ele><time>2026-04-23T16:54:18.9Z</time></trkpt><trkpt lat="31.3821083" lon="-5.7668583"><ele>1404.3333333333335</ele><time>2026-04-23T16:54:19.899Z</time></trkpt><trkpt lat="31.38197" lon="-5.7670533"><ele>1405.6666666666667</ele><time>2026-04-23T16:54:20.9Z</time></trkpt><trkpt lat="31.3818267" lon="-5.7672567"><ele>1407.0</ele><time>2026-04-23T16:54:21.9Z</time></trkpt><trkpt lat="31.3816783" lon="-5.7674633"><ele>1407.0</ele><time>2026-04-23T16:54:22.9Z</time></trkpt><trkpt lat="31.38153" lon="-5.7676733"><ele>1407.0</ele><time>2026-04-23T16:54:23.899Z</time></trkpt><trkpt lat="31.3813733" lon="-5.7678883"><ele>1406.6666666666667</ele><time>2026-04-23T16:54:24.9Z</time></trkpt><trkpt lat="31.3812233" lon="-5.768085"><ele>1406.3333333333335</ele><time>2026-04-23T16:54:25.9Z</time></trkpt><trkpt lat="31.38108" lon="-5.7682867"><ele>1406.0</ele><time>2026-04-23T16:54:26.9Z</time></trkpt><trkpt lat="31.38093" lon="-5.7684867"><ele>1405.3333333333335</ele><time>2026-04-23T16:54:27.9Z</time></trkpt><trkpt lat="31.3807867" lon="-5.7686867"><ele>1404.6666666666667</ele><time>2026-04-23T16:54:28.899Z</time></trkpt><trkpt lat="31.3806417" lon="-5.7688833"><ele>1404.0</ele><time>2026-04-23T16:54:29.9Z</time></trkpt><trkpt lat="31.380495" lon="-5.769085"><ele>1404.0</ele><time>2026-04-23T16:54:30.9Z</time></trkpt><trkpt lat="31.38035" lon="-5.769295"><ele>1404.0</ele><time>2026-04-23T16:54:31.9Z</time></trkpt><trkpt lat="31.3802" lon="-5.7695083"><ele>1406.5</ele><time>2026-04-23T16:54:32.9Z</time></trkpt><trkpt lat="31.3800483" lon="-5.7697183"><ele>1409.0</ele><time>2026-04-23T16:54:33.899Z</time></trkpt><trkpt lat="31.3798917" lon="-5.7699267"><ele>1409.0</ele><time>2026-04-23T16:54:34.899Z</time></trkpt><trkpt lat="31.3797233" lon="-5.7701267"><ele>1409.0</ele><time>2026-04-23T16:54:35.9Z</time></trkpt><trkpt lat="31.379555" lon="-5.770325"><ele>1409.0</ele><time>2026-04-23T16:54:36.899Z</time></trkpt><trkpt lat="31.3793867" lon="-5.7705233"><ele>1409.0</ele><time>2026-04-23T16:54:37.9Z</time></trkpt><trkpt lat="31.3792217" lon="-5.770725"><ele>1409.0</ele><time>2026-04-23T16:54:38.9Z</time></trkpt><trkpt lat="31.3790517" lon="-5.7709233"><ele>1409.0</ele><time>2026-04-23T16:54:39.9Z</time></trkpt><trkpt lat="31.37889" lon="-5.771115"><ele>1409.0</ele><time>2026-04-23T16:54:40.9Z</time></trkpt><trkpt lat="31.37873" lon="-5.771305"><ele>1409.0</ele><time>2026-04-23T16:54:41.9Z</time></trkpt><trkpt lat="31.3785717" lon="-5.7715017"><ele>1409.0</ele><time>2026-04-23T16:54:42.9Z</time></trkpt><trkpt lat="31.3784117" lon="-5.7716967"><ele>1409.0</ele><time>2026-04-23T16:54:43.9Z</time></trkpt><trkpt lat="31.3782517" lon="-5.7718833"><ele>1407.5</ele><time>2026-04-23T16:54:44.9Z</time></trkpt><trkpt lat="31.3780867" lon="-5.772075"><ele>1406.0</ele><time>2026-04-23T16:54:45.899Z</time></trkpt><trkpt lat="31.377925" lon="-5.7722667"><ele>1406.0</ele><time>2026-04-23T16:54:46.9Z</time></trkpt><trkpt lat="31.37776" lon="-5.7724667"><ele>1406.0</ele><time>2026-04-23T16:54:47.899Z</time></trkpt><trkpt lat="31.3775933" lon="-5.772665"><ele>1408.0</ele><time>2026-04-23T16:54:48.9Z</time></trkpt><trkpt lat="31.3774217" lon="-5.772865"><ele>1410.0</ele><time>2026-04-23T16:54:49.9Z</time></trkpt><trkpt lat="31.3772583" lon="-5.773065"><ele>1408.0</ele><time>2026-04-23T16:54:50.9Z</time></trkpt><trkpt lat="31.3770967" lon="-5.7732633"><ele>1406.0</ele><time>2026-04-23T16:54:51.9Z</time></trkpt><trkpt lat="31.37693" lon="-5.7734617"><ele>1408.0</ele><time>2026-04-23T16:54:52.899Z</time></trkpt><trkpt lat="31.3767567" lon="-5.7736567"><ele>1410.0</ele><time>2026-04-23T16:54:53.9Z</time></trkpt><trkpt lat="31.3765833" lon="-5.7738567"><ele>1410.0</ele><time>2026-04-23T16:54:54.9Z</time></trkpt><trkpt lat="31.3764133" lon="-5.7740567"><ele>1410.0</ele><time>2026-04-23T16:54:55.899Z</time></trkpt><trkpt lat="31.376245" lon="-5.7742583"><ele>1411.0</ele><time>2026-04-23T16:54:56.9Z</time></trkpt><trkpt lat="31.3760733" lon="-5.7744567"><ele>1412.0</ele><time>2026-04-23T16:54:57.9Z</time></trkpt><trkpt lat="31.3758983" lon="-5.77466"><ele>1412.0</ele><time>2026-04-23T16:54:58.9Z</time></trkpt><trkpt lat="31.3757317" lon="-5.7748567"><ele>1412.0</ele><time>2026-04-23T16:54:59.9Z</time></trkpt><trkpt lat="31.3755717" lon="-5.7750383"><ele>1411.6666666666667</ele><time>2026-04-23T16:55:00.899Z</time></trkpt><trkpt lat="31.375425" lon="-5.7752233"><ele>1411.3333333333333</ele><time>2026-04-23T16:55:01.9Z</time></trkpt><trkpt lat="31.375285" lon="-5.7753933"><ele>1411.0</ele><time>2026-04-23T16:55:02.9Z</time></trkpt><trkpt lat="31.3751417" lon="-5.7755567"><ele>1411.0</ele><time>2026-04-23T16:55:03.9Z</time></trkpt><trkpt lat="31.3749883" lon="-5.7757233"><ele>1411.0</ele><time>2026-04-23T16:55:04.9Z</time></trkpt><trkpt lat="31.37483" lon="-5.7758933"><ele>1411.0</ele><time>2026-04-23T16:55:05.899Z</time></trkpt><trkpt lat="31.3746783" lon="-5.7760833"><ele>1411.5</ele><time>2026-04-23T16:55:06.9Z</time></trkpt><trkpt lat="31.3745217" lon="-5.7762833"><ele>1412.0</ele><time>2026-04-23T16:55:07.9Z</time></trkpt><trkpt lat="31.3743583" lon="-5.7764733"><ele>1412.0</ele><time>2026-04-23T16:55:08.9Z</time></trkpt><trkpt lat="31.3742" lon="-5.7766617"><ele>1412.0</ele><time>2026-04-23T16:55:09.899Z</time></trkpt><trkpt lat="31.3740467" lon="-5.776845"><ele>1412.0</ele><time>2026-04-23T16:55:10.9Z</time></trkpt><trkpt lat="31.3738967" lon="-5.7770267"><ele>1412.3333333333335</ele><time>2026-04-23T16:55:11.9Z</time></trkpt><trkpt lat="31.37374" lon="-5.7772067"><ele>1412.6666666666667</ele><time>2026-04-23T16:55:12.9Z</time></trkpt><trkpt lat="31.3735833" lon="-5.77739"><ele>1413.0</ele><time>2026-04-23T16:55:13.9Z</time></trkpt><trkpt lat="31.3734233" lon="-5.7775783"><ele>1413.6666666666667</ele><time>2026-04-23T16:55:14.9Z</time></trkpt><trkpt lat="31.3732683" lon="-5.7777633"><ele>1414.3333333333335</ele><time>2026-04-23T16:55:15.899Z</time></trkpt><trkpt lat="31.37312" lon="-5.7779467"><ele>1415.0</ele><time>2026-04-23T16:55:16.899Z</time></trkpt><trkpt lat="31.37298" lon="-5.7781533"><ele>1415.0</ele><time>2026-04-23T16:55:17.9Z</time></trkpt><trkpt lat="31.3728383" lon="-5.778375"><ele>1415.0</ele><time>2026-04-23T16:55:18.9Z</time></trkpt><trkpt lat="31.3726983" lon="-5.7785983"><ele>1415.5</ele><time>2026-04-23T16:55:19.9Z</time></trkpt><trkpt lat="31.37256" lon="-5.7788233"><ele>1416.0</ele><time>2026-04-23T16:55:20.9Z</time></trkpt><trkpt lat="31.372435" lon="-5.77905"><ele>1416.0</ele><time>2026-04-23T16:55:21.9Z</time></trkpt><trkpt lat="31.3723133" lon="-5.77927"><ele>1416.0</ele><time>2026-04-23T16:55:22.9Z</time></trkpt><trkpt lat="31.3721933" lon="-5.7794883"><ele>1416.0</ele><time>2026-04-23T16:55:23.899Z</time></trkpt><trkpt lat="31.3720767" lon="-5.77971"><ele>1416.0</ele><time>2026-04-23T16:55:24.899Z</time></trkpt><trkpt lat="31.3719617" lon="-5.77994"><ele>1416.0</ele><time>2026-04-23T16:55:25.9Z</time></trkpt><trkpt lat="31.37185" lon="-5.780175"><ele>1416.5</ele><time>2026-04-23T16:55:26.9Z</time></trkpt><trkpt lat="31.371745" lon="-5.7804133"><ele>1417.0</ele><time>2026-04-23T16:55:27.899Z</time></trkpt><trkpt lat="31.37165" lon="-5.7806483"><ele>1417.0</ele><time>2026-04-23T16:55:28.9Z</time></trkpt><trkpt lat="31.3715833" lon="-5.7808867"><ele>1417.0</ele><time>2026-04-23T16:55:29.898Z</time></trkpt><trkpt lat="31.3715317" lon="-5.7811367"><ele>1417.0</ele><time>2026-04-23T16:55:30.898Z</time></trkpt><trkpt lat="31.3714833" lon="-5.7813867"><ele>1418.5</ele><time>2026-04-23T16:55:31.898Z</time></trkpt><trkpt lat="31.3714483" lon="-5.78165"><ele>1420.0</ele><time>2026-04-23T16:55:32.899Z</time></trkpt><trkpt lat="31.3714217" lon="-5.7819117"><ele>1420.3333333333333</ele><time>2026-04-23T16:55:33.899Z</time></trkpt><trkpt lat="31.3713967" lon="-5.7821633"><ele>1420.6666666666667</ele><time>2026-04-23T16:55:34.898Z</time></trkpt><trkpt lat="31.371375" lon="-5.7824017"><ele>1421.0</ele><time>2026-04-23T16:55:35.899Z</time></trkpt><trkpt lat="31.3713567" lon="-5.78263"><ele>1420.6666666666667</ele><time>2026-04-23T16:55:36.898Z</time></trkpt><trkpt lat="31.3713317" lon="-5.78284"><ele>1420.3333333333333</ele><time>2026-04-23T16:55:37.899Z</time></trkpt><trkpt lat="31.3713067" lon="-5.783035"><ele>1420.0</ele><time>2026-04-23T16:55:38.899Z</time></trkpt><trkpt lat="31.3712867" lon="-5.7832167"><ele>1420.0</ele><time>2026-04-23T16:55:39.899Z</time></trkpt><trkpt lat="31.3712633" lon="-5.7833917"><ele>1420.0</ele><time>2026-04-23T16:55:40.899Z</time></trkpt><trkpt lat="31.37124" lon="-5.783565"><ele>1420.0</ele><time>2026-04-23T16:55:41.899Z</time></trkpt><trkpt lat="31.3712067" lon="-5.7837467"><ele>1420.3333333333333</ele><time>2026-04-23T16:55:42.899Z</time></trkpt><trkpt lat="31.3711717" lon="-5.7839283"><ele>1420.6666666666667</ele><time>2026-04-23T16:55:43.898Z</time></trkpt><trkpt lat="31.3711383" lon="-5.78411"><ele>1421.0</ele><time>2026-04-23T16:55:44.898Z</time></trkpt><trkpt lat="31.371105" lon="-5.7842767"><ele>1421.25</ele><time>2026-04-23T16:55:45.899Z</time></trkpt><trkpt lat="31.3710683" lon="-5.7844317"><ele>1421.5</ele><time>2026-04-23T16:55:46.898Z</time></trkpt><trkpt lat="31.3710283" lon="-5.7845883"><ele>1421.75</ele><time>2026-04-23T16:55:47.899Z</time></trkpt><trkpt lat="31.3709933" lon="-5.7847317"><ele>1422.0</ele><time>2026-04-23T16:55:48.898Z</time></trkpt><trkpt lat="31.370955" lon="-5.7848767"><ele>1422.0</ele><time>2026-04-23T16:55:49.899Z</time></trkpt><trkpt lat="31.3709133" lon="-5.7850317"><ele>1422.0</ele><time>2026-04-23T16:55:50.898Z</time></trkpt><trkpt lat="31.3708733" lon="-5.785175"><ele>1422.0</ele><time>2026-04-23T16:55:51.899Z</time></trkpt><trkpt lat="31.3708333" lon="-5.785315"><ele>1422.0</ele><time>2026-04-23T16:55:52.898Z</time></trkpt><trkpt lat="31.3707867" lon="-5.7854667"><ele>1422.75</ele><time>2026-04-23T16:55:53.899Z</time></trkpt><trkpt lat="31.3707467" lon="-5.7856267"><ele>1423.5</ele><time>2026-04-23T16:55:54.898Z</time></trkpt><trkpt lat="31.3707083" lon="-5.7857883"><ele>1424.25</ele><time>2026-04-23T16:55:55.899Z</time></trkpt><trkpt lat="31.3706783" lon="-5.7859467"><ele>1425.0</ele><time>2026-04-23T16:55:56.899Z</time></trkpt><trkpt lat="31.37065" lon="-5.7860883"><ele>1425.0</ele><time>2026-04-23T16:55:57.899Z</time></trkpt><trkpt lat="31.3706167" lon="-5.7862233"><ele>1425.0</ele><time>2026-04-23T16:55:58.899Z</time></trkpt><trkpt lat="31.3705783" lon="-5.7863567"><ele>1425.0</ele><time>2026-04-23T16:55:59.899Z</time></trkpt><trkpt lat="31.3705417" lon="-5.7865017"><ele>1425.0</ele><time>2026-04-23T16:56:00.899Z</time></trkpt><trkpt lat="31.3705" lon="-5.786645"><ele>1425.0</ele><time>2026-04-23T16:56:01.898Z</time></trkpt><trkpt lat="31.3704667" lon="-5.7867883"><ele>1425.0</ele><time>2026-04-23T16:56:02.898Z</time></trkpt><trkpt lat="31.370425" lon="-5.786925"><ele>1425.0</ele><time>2026-04-23T16:56:03.898Z</time></trkpt><trkpt lat="31.3703817" lon="-5.78707"><ele>1425.0</ele><time>2026-04-23T16:56:04.899Z</time></trkpt><trkpt lat="31.3703483" lon="-5.7872133"><ele>1425.75</ele><time>2026-04-23T16:56:05.898Z</time></trkpt><trkpt lat="31.37031" lon="-5.7873633"><ele>1426.5</ele><time>2026-04-23T16:56:06.899Z</time></trkpt><trkpt lat="31.3702733" lon="-5.7875117"><ele>1427.25</ele><time>2026-04-23T16:56:07.899Z</time></trkpt><trkpt lat="31.37024" lon="-5.7876517"><ele>1428.0</ele><time>2026-04-23T16:56:08.899Z</time></trkpt><trkpt lat="31.37021" lon="-5.7877883"><ele>1428.4</ele><time>2026-04-23T16:56:09.899Z</time></trkpt><trkpt lat="31.3701867" lon="-5.7879183"><ele>1428.8000000000002</ele><time>2026-04-23T16:56:10.899Z</time></trkpt><trkpt lat="31.37016" lon="-5.78804"><ele>1429.2</ele><time>2026-04-23T16:56:11.899Z</time></trkpt><trkpt lat="31.3701233" lon="-5.7881567"><ele>1429.6</ele><time>2026-04-23T16:56:12.899Z</time></trkpt><trkpt lat="31.370085" lon="-5.7882767"><ele>1430.0</ele><time>2026-04-23T16:56:13.899Z</time></trkpt><trkpt lat="31.370045" lon="-5.7883933"><ele>1430.0</ele><time>2026-04-23T16:56:14.899Z</time></trkpt><trkpt lat="31.3700117" lon="-5.7885283"><ele>1430.0</ele><time>2026-04-23T16:56:15.899Z</time></trkpt><trkpt lat="31.3699883" lon="-5.7886567"><ele>1430.0</ele><time>2026-04-23T16:56:16.899Z</time></trkpt><trkpt lat="31.3699583" lon="-5.788785"><ele>1430.0</ele><time>2026-04-23T16:56:17.899Z</time></trkpt><trkpt lat="31.3699283" lon="-5.7889217"><ele>1430.0</ele><time>2026-04-23T16:56:18.899Z</time></trkpt><trkpt lat="31.3698967" lon="-5.7890433"><ele>1430.0</ele><time>2026-04-23T16:56:19.899Z</time></trkpt><trkpt lat="31.369865" lon="-5.7891667"><ele>1430.0</ele><time>2026-04-23T16:56:20.899Z</time></trkpt><trkpt lat="31.3698483" lon="-5.789295"><ele>1430.0</ele><time>2026-04-23T16:56:21.899Z</time></trkpt><trkpt lat="31.369835" lon="-5.7894217"><ele>1430.0</ele><time>2026-04-23T16:56:22.899Z</time></trkpt><trkpt lat="31.36982" lon="-5.7895583"><ele>1429.75</ele><time>2026-04-23T16:56:23.899Z</time></trkpt><trkpt lat="31.3697933" lon="-5.7897"><ele>1429.5</ele><time>2026-04-23T16:56:24.899Z</time></trkpt><trkpt lat="31.3697667" lon="-5.7898317"><ele>1429.25</ele><time>2026-04-23T16:56:25.898Z</time></trkpt><trkpt lat="31.36974" lon="-5.7899567"><ele>1429.0</ele><time>2026-04-23T16:56:26.899Z</time></trkpt><trkpt lat="31.369715" lon="-5.7900817"><ele>1427.75</ele><time>2026-04-23T16:56:27.899Z</time></trkpt><trkpt lat="31.369695" lon="-5.7902133"><ele>1426.5</ele><time>2026-04-23T16:56:28.898Z</time></trkpt><trkpt lat="31.3696933" lon="-5.7903583"><ele>1425.25</ele><time>2026-04-23T16:56:29.899Z</time></trkpt><trkpt lat="31.369715" lon="-5.7905"><ele>1424.0</ele><time>2026-04-23T16:56:30.898Z</time></trkpt><trkpt lat="31.369755" lon="-5.79064"><ele>1424.0</ele><time>2026-04-23T16:56:31.899Z</time></trkpt><trkpt lat="31.3698017" lon="-5.7907833"><ele>1424.0</ele><time>2026-04-23T16:56:32.899Z</time></trkpt><trkpt lat="31.3698583" lon="-5.7909383"><ele>1424.0</ele><time>2026-04-23T16:56:33.898Z</time></trkpt><trkpt lat="31.3699133" lon="-5.7911067"><ele>1424.0</ele><time>2026-04-23T16:56:34.899Z</time></trkpt><trkpt lat="31.3699533" lon="-5.7912667"><ele>1423.75</ele><time>2026-04-23T16:56:35.899Z</time></trkpt><trkpt lat="31.369985" lon="-5.7914183"><ele>1423.5</ele><time>2026-04-23T16:56:36.898Z</time></trkpt><trkpt lat="31.3700167" lon="-5.7915717"><ele>1423.25</ele><time>2026-04-23T16:56:37.899Z</time></trkpt><trkpt lat="31.37006" lon="-5.79172"><ele>1423.0</ele><time>2026-04-23T16:56:38.899Z</time></trkpt><trkpt lat="31.370105" lon="-5.791875"><ele>1423.5</ele><time>2026-04-23T16:56:39.898Z</time></trkpt><trkpt lat="31.3701483" lon="-5.7920317"><ele>1424.0</ele><time>2026-04-23T16:56:40.899Z</time></trkpt><trkpt lat="31.370205" lon="-5.7921867"><ele>1424.5</ele><time>2026-04-23T16:56:41.899Z</time></trkpt><trkpt lat="31.3702567" lon="-5.7923417"><ele>1425.0</ele><time>2026-04-23T16:56:42.898Z</time></trkpt><trkpt lat="31.37031" lon="-5.7924967"><ele>1425.0</ele><time>2026-04-23T16:56:43.898Z</time></trkpt><trkpt lat="31.37037" lon="-5.7926517"><ele>1425.0</ele><time>2026-04-23T16:56:44.899Z</time></trkpt><trkpt lat="31.3704367" lon="-5.79281"><ele>1425.0</ele><time>2026-04-23T16:56:45.899Z</time></trkpt><trkpt lat="31.3705017" lon="-5.79297"><ele>1425.0</ele><time>2026-04-23T16:56:46.898Z</time></trkpt><trkpt lat="31.3705717" lon="-5.7931283"><ele>1425.25</ele><time>2026-04-23T16:56:47.899Z</time></trkpt><trkpt lat="31.3706317" lon="-5.793295"><ele>1425.5</ele><time>2026-04-23T16:56:48.899Z</time></trkpt><trkpt lat="31.37069" lon="-5.793455"><ele>1425.75</ele><time>2026-04-23T16:56:49.899Z</time></trkpt><trkpt lat="31.3707483" lon="-5.7936067"><ele>1426.0</ele><time>2026-04-23T16:56:50.899Z</time></trkpt><trkpt lat="31.3708033" lon="-5.7937583"><ele>1426.5</ele><time>2026-04-23T16:56:51.899Z</time></trkpt><trkpt lat="31.3708617" lon="-5.7939067"><ele>1427.0</ele><time>2026-04-23T16:56:52.898Z</time></trkpt><trkpt lat="31.3709233" lon="-5.79406"><ele>1427.5</ele><time>2026-04-23T16:56:53.898Z</time></trkpt><trkpt lat="31.37099" lon="-5.7942233"><ele>1428.0</ele><time>2026-04-23T16:56:54.899Z</time></trkpt><trkpt lat="31.37106" lon="-5.79439"><ele>1429.0</ele><time>2026-04-23T16:56:55.898Z</time></trkpt><trkpt lat="31.3711367" lon="-5.7945633"><ele>1430.0</ele><time>2026-04-23T16:56:56.899Z</time></trkpt><trkpt lat="31.3712117" lon="-5.794745"><ele>1431.0</ele><time>2026-04-23T16:56:57.899Z</time></trkpt><trkpt lat="31.3712867" lon="-5.7949333"><ele>1431.0</ele><time>2026-04-23T16:56:58.899Z</time></trkpt><trkpt lat="31.37136" lon="-5.795115"><ele>1431.0</ele><time>2026-04-23T16:56:59.899Z</time></trkpt><trkpt lat="31.3714267" lon="-5.79528"><ele>1431.0</ele><time>2026-04-23T16:57:00.899Z</time></trkpt><trkpt lat="31.3715017" lon="-5.79545"><ele>1431.0</ele><time>2026-04-23T16:57:01.899Z</time></trkpt><trkpt lat="31.3715833" lon="-5.79562"><ele>1431.0</ele><time>2026-04-23T16:57:02.899Z</time></trkpt><trkpt lat="31.3716667" lon="-5.795795"><ele>1431.0</ele><time>2026-04-23T16:57:03.899Z</time></trkpt><trkpt lat="31.3717417" lon="-5.7959717"><ele>1431.0</ele><time>2026-04-23T16:57:04.898Z</time></trkpt><trkpt lat="31.3718083" lon="-5.7961483"><ele>1431.0</ele><time>2026-04-23T16:57:05.899Z</time></trkpt><trkpt lat="31.3718833" lon="-5.796335"><ele>1431.0</ele><time>2026-04-23T16:57:06.898Z</time></trkpt><trkpt lat="31.371965" lon="-5.7965133"><ele>1431.0</ele><time>2026-04-23T16:57:07.899Z</time></trkpt><trkpt lat="31.3720567" lon="-5.7966733"><ele>1431.0</ele><time>2026-04-23T16:57:08.899Z</time></trkpt><trkpt lat="31.372145" lon="-5.796825"><ele>1431.0</ele><time>2026-04-23T16:57:09.899Z</time></trkpt><trkpt lat="31.3722333" lon="-5.796965"><ele>1431.5</ele><time>2026-04-23T16:57:10.899Z</time></trkpt><trkpt lat="31.3723267" lon="-5.79709"><ele>1432.0</ele><time>2026-04-23T16:57:11.898Z</time></trkpt><trkpt lat="31.3724133" lon="-5.7972033"><ele>1432.5</ele><time>2026-04-23T16:57:12.899Z</time></trkpt><trkpt lat="31.3725" lon="-5.7973017"><ele>1433.0</ele><time>2026-04-23T16:57:13.898Z</time></trkpt><trkpt lat="31.3725733" lon="-5.7973817"><ele>1433.0</ele><time>2026-04-23T16:57:14.898Z</time></trkpt><trkpt lat="31.3726483" lon="-5.7974433"><ele>1433.0</ele><time>2026-04-23T16:57:15.899Z</time></trkpt><trkpt lat="31.3727117" lon="-5.79749"><ele>1433.0</ele><time>2026-04-23T16:57:16.899Z</time></trkpt><trkpt lat="31.3727783" lon="-5.79753"><ele>1433.0</ele><time>2026-04-23T16:57:17.899Z</time></trkpt><trkpt lat="31.3728467" lon="-5.79756"><ele>1433.0</ele><time>2026-04-23T16:57:18.899Z</time></trkpt><trkpt lat="31.37292" lon="-5.7975867"><ele>1433.0</ele><time>2026-04-23T16:57:19.899Z</time></trkpt><trkpt lat="31.37301" lon="-5.7976083"><ele>1433.5</ele><time>2026-04-23T16:57:20.899Z</time></trkpt><trkpt lat="31.373125" lon="-5.7976267"><ele>1434.0</ele><time>2026-04-23T16:57:21.899Z</time></trkpt><trkpt lat="31.3732533" lon="-5.7976417"><ele>1434.5</ele><time>2026-04-23T16:57:22.898Z</time></trkpt><trkpt lat="31.3734017" lon="-5.7976383"><ele>1435.0</ele><time>2026-04-23T16:57:23.898Z</time></trkpt><trkpt lat="31.3735467" lon="-5.79764"><ele>1435.0</ele><time>2026-04-23T16:57:24.899Z</time></trkpt><trkpt lat="31.3736933" lon="-5.7976433"><ele>1435.0</ele><time>2026-04-23T16:57:25.899Z</time></trkpt><trkpt lat="31.3738217" lon="-5.7976583"><ele>1435.0</ele><time>2026-04-23T16:57:26.898Z</time></trkpt><trkpt lat="31.3739533" lon="-5.79768"><ele>1435.0</ele><time>2026-04-23T16:57:27.898Z</time></trkpt><trkpt lat="31.37409" lon="-5.797715"><ele>1436.0</ele><time>2026-04-23T16:57:28.899Z</time></trkpt><trkpt lat="31.3742267" lon="-5.7977583"><ele>1437.0</ele><time>2026-04-23T16:57:29.899Z</time></trkpt><trkpt lat="31.3743633" lon="-5.7978067"><ele>1438.0</ele><time>2026-04-23T16:57:30.898Z</time></trkpt><trkpt lat="31.374505" lon="-5.7978567"><ele>1439.0</ele><time>2026-04-23T16:57:31.899Z</time></trkpt><trkpt lat="31.374645" lon="-5.7979133"><ele>1439.3333333333335</ele><time>2026-04-23T16:57:32.899Z</time></trkpt><trkpt lat="31.3747867" lon="-5.7979683"><ele>1439.6666666666667</ele><time>2026-04-23T16:57:33.898Z</time></trkpt><trkpt lat="31.3749383" lon="-5.7980217"><ele>1440.0</ele><time>2026-04-23T16:57:34.899Z</time></trkpt><trkpt lat="31.3750833" lon="-5.7980833"><ele>1440.0</ele><time>2026-04-23T16:57:35.899Z</time></trkpt><trkpt lat="31.3752483" lon="-5.79814"><ele>1440.0</ele><time>2026-04-23T16:57:36.898Z</time></trkpt><trkpt lat="31.3754117" lon="-5.7982033"><ele>1440.0</ele><time>2026-04-23T16:57:37.899Z</time></trkpt><trkpt lat="31.37557" lon="-5.798265"><ele>1438.6666666666667</ele><time>2026-04-23T16:57:38.899Z</time></trkpt><trkpt lat="31.3757267" lon="-5.7983333"><ele>1437.3333333333335</ele><time>2026-04-23T16:57:39.898Z</time></trkpt><trkpt lat="31.375885" lon="-5.798405"><ele>1436.0</ele><time>2026-04-23T16:57:40.899Z</time></trkpt><trkpt lat="31.3760533" lon="-5.7984733"><ele>1437.6666666666667</ele><time>2026-04-23T16:57:41.899Z</time></trkpt><trkpt lat="31.37622" lon="-5.7985467"><ele>1439.3333333333333</ele><time>2026-04-23T16:57:42.899Z</time></trkpt><trkpt lat="31.3763867" lon="-5.798625"><ele>1441.0</ele><time>2026-04-23T16:57:43.899Z</time></trkpt><trkpt lat="31.3765567" lon="-5.7987"><ele>1441.0</ele><time>2026-04-23T16:57:44.899Z</time></trkpt><trkpt lat="31.37672" lon="-5.798765"><ele>1441.0</ele><time>2026-04-23T16:57:45.899Z</time></trkpt><trkpt lat="31.3768783" lon="-5.7988333"><ele>1441.0</ele><time>2026-04-23T16:57:46.899Z</time></trkpt><trkpt lat="31.3770383" lon="-5.798905"><ele>1440.3333333333333</ele><time>2026-04-23T16:57:47.898Z</time></trkpt><trkpt lat="31.3772017" lon="-5.79897"><ele>1439.6666666666667</ele><time>2026-04-23T16:57:48.899Z</time></trkpt><trkpt lat="31.377365" lon="-5.7990417"><ele>1439.0</ele><time>2026-04-23T16:57:49.899Z</time></trkpt><trkpt lat="31.377525" lon="-5.79912"><ele>1439.0</ele><time>2026-04-23T16:57:50.898Z</time></trkpt><trkpt lat="31.3776867" lon="-5.7991983"><ele>1439.0</ele><time>2026-04-23T16:57:51.899Z</time></trkpt><trkpt lat="31.3778417" lon="-5.7992883"><ele>1439.0</ele><time>2026-04-23T16:57:52.898Z</time></trkpt><trkpt lat="31.378" lon="-5.7993817"><ele>1440.6666666666667</ele><time>2026-04-23T16:57:53.899Z</time></trkpt><trkpt lat="31.3781567" lon="-5.7994833"><ele>1442.3333333333333</ele><time>2026-04-23T16:57:54.899Z</time></trkpt><trkpt lat="31.3783183" lon="-5.7995883"><ele>1444.0</ele><time>2026-04-23T16:57:55.899Z</time></trkpt><trkpt lat="31.3784767" lon="-5.7997033"><ele>1444.0</ele><time>2026-04-23T16:57:56.898Z</time></trkpt><trkpt lat="31.37863" lon="-5.7998133"><ele>1444.0</ele><time>2026-04-23T16:57:57.898Z</time></trkpt><trkpt lat="31.378775" lon="-5.7999317"><ele>1444.0</ele><time>2026-04-23T16:57:58.899Z</time></trkpt><trkpt lat="31.3789233" lon="-5.8000517"><ele>1446.3333333333333</ele><time>2026-04-23T16:57:59.898Z</time></trkpt><trkpt lat="31.3790667" lon="-5.8001717"><ele>1448.6666666666667</ele><time>2026-04-23T16:58:00.899Z</time></trkpt><trkpt lat="31.379205" lon="-5.8002967"><ele>1451.0</ele><time>2026-04-23T16:58:01.899Z</time></trkpt><trkpt lat="31.379345" lon="-5.8004183"><ele>1451.0</ele><time>2026-04-23T16:58:02.899Z</time></trkpt><trkpt lat="31.37948" lon="-5.8005367"><ele>1451.0</ele><time>2026-04-23T16:58:03.898Z</time></trkpt><trkpt lat="31.3796083" lon="-5.80066"><ele>1451.0</ele><time>2026-04-23T16:58:04.899Z</time></trkpt><trkpt lat="31.3797367" lon="-5.8007817"><ele>1452.0</ele><time>2026-04-23T16:58:05.898Z</time></trkpt><trkpt lat="31.3798667" lon="-5.8009083"><ele>1453.0</ele><time>2026-04-23T16:58:06.899Z</time></trkpt><trkpt lat="31.3799967" lon="-5.8010367"><ele>1454.0</ele><time>2026-04-23T16:58:07.898Z</time></trkpt><trkpt lat="31.380135" lon="-5.8011683"><ele>1453.6666666666667</ele><time>2026-04-23T16:58:08.898Z</time></trkpt><trkpt lat="31.380275" lon="-5.8012983"><ele>1453.3333333333333</ele><time>2026-04-23T16:58:09.899Z</time></trkpt><trkpt lat="31.380425" lon="-5.80142"><ele>1453.0</ele><time>2026-04-23T16:58:10.898Z</time></trkpt><trkpt lat="31.3805833" lon="-5.8015483"><ele>1453.0</ele><time>2026-04-23T16:58:11.898Z</time></trkpt><trkpt lat="31.3807367" lon="-5.8016833"><ele>1453.0</ele><time>2026-04-23T16:58:12.899Z</time></trkpt><trkpt lat="31.38089" lon="-5.8018233"><ele>1453.0</ele><time>2026-04-23T16:58:13.899Z</time></trkpt><trkpt lat="31.3810333" lon="-5.8019567"><ele>1451.6666666666665</ele><time>2026-04-23T16:58:14.898Z</time></trkpt><trkpt lat="31.381175" lon="-5.80209"><ele>1450.3333333333333</ele><time>2026-04-23T16:58:15.899Z</time></trkpt><trkpt lat="31.3813233" lon="-5.8022317"><ele>1449.0</ele><time>2026-04-23T16:58:16.898Z</time></trkpt><trkpt lat="31.381475" lon="-5.8023733"><ele>1449.0</ele><time>2026-04-23T16:58:17.899Z</time></trkpt><trkpt lat="31.38163" lon="-5.8025083"><ele>1449.0</ele><time>2026-04-23T16:58:18.898Z</time></trkpt><trkpt lat="31.38179" lon="-5.8026567"><ele>1449.0</ele><time>2026-04-23T16:58:19.899Z</time></trkpt><trkpt lat="31.381945" lon="-5.802815"><ele>1448.6666666666667</ele><time>2026-04-23T16:58:20.898Z</time></trkpt><trkpt lat="31.382095" lon="-5.80299"><ele>1448.3333333333335</ele><time>2026-04-23T16:58:21.899Z</time></trkpt><trkpt lat="31.382235" lon="-5.803175"><ele>1448.0</ele><time>2026-04-23T16:58:22.899Z</time></trkpt><trkpt lat="31.3823717" lon="-5.8033667"><ele>1449.0</ele><time>2026-04-23T16:58:23.899Z</time></trkpt><trkpt lat="31.3824983" lon="-5.803565"><ele>1450.0</ele><time>2026-04-23T16:58:24.898Z</time></trkpt><trkpt lat="31.3826033" lon="-5.8037667"><ele>1451.0</ele><time>2026-04-23T16:58:25.899Z</time></trkpt><trkpt lat="31.3826883" lon="-5.80397"><ele>1451.0</ele><time>2026-04-23T16:58:26.899Z</time></trkpt><trkpt lat="31.382755" lon="-5.8041767"><ele>1451.0</ele><time>2026-04-23T16:58:27.899Z</time></trkpt><trkpt lat="31.3828033" lon="-5.8043983"><ele>1451.0</ele><time>2026-04-23T16:58:28.898Z</time></trkpt><trkpt lat="31.38284" lon="-5.8046317"><ele>1452.0</ele><time>2026-04-23T16:58:29.899Z</time></trkpt><trkpt lat="31.3828717" lon="-5.8048633"><ele>1453.0</ele><time>2026-04-23T16:58:30.899Z</time></trkpt><trkpt lat="31.3828917" lon="-5.80508"><ele>1454.0</ele><time>2026-04-23T16:58:31.899Z</time></trkpt><trkpt lat="31.3828933" lon="-5.8052867"><ele>1455.6666666666667</ele><time>2026-04-23T16:58:32.898Z</time></trkpt><trkpt lat="31.38287" lon="-5.8054933"><ele>1457.3333333333333</ele><time>2026-04-23T16:58:33.899Z</time></trkpt><trkpt lat="31.3828283" lon="-5.8056917"><ele>1459.0</ele><time>2026-04-23T16:58:34.899Z</time></trkpt><trkpt lat="31.38278" lon="-5.8058967"><ele>1459.3333333333333</ele><time>2026-04-23T16:58:35.899Z</time></trkpt><trkpt lat="31.382715" lon="-5.8061083"><ele>1459.6666666666667</ele><time>2026-04-23T16:58:36.899Z</time></trkpt><trkpt lat="31.3826367" lon="-5.8063183"><ele>1460.0</ele><time>2026-04-23T16:58:37.899Z</time></trkpt><trkpt lat="31.38255" lon="-5.8065267"><ele>1460.0</ele><time>2026-04-23T16:58:38.899Z</time></trkpt><trkpt lat="31.382445" lon="-5.80673"><ele>1460.0</ele><time>2026-04-23T16:58:39.899Z</time></trkpt><trkpt lat="31.3823317" lon="-5.80693"><ele>1460.0</ele><time>2026-04-23T16:58:40.899Z</time></trkpt><trkpt lat="31.3822167" lon="-5.8071267"><ele>1460.6666666666667</ele><time>2026-04-23T16:58:41.899Z</time></trkpt><trkpt lat="31.382105" lon="-5.8073167"><ele>1461.3333333333333</ele><time>2026-04-23T16:58:42.899Z</time></trkpt><trkpt lat="31.3820067" lon="-5.8075"><ele>1462.0</ele><time>2026-04-23T16:58:43.899Z</time></trkpt><trkpt lat="31.3818983" lon="-5.8076867"><ele>1462.6666666666665</ele><time>2026-04-23T16:58:44.898Z</time></trkpt><trkpt lat="31.3817917" lon="-5.8078733"><ele>1463.3333333333333</ele><time>2026-04-23T16:58:45.899Z</time></trkpt><trkpt lat="31.3816817" lon="-5.808065"><ele>1464.0</ele><time>2026-04-23T16:58:46.899Z</time></trkpt><trkpt lat="31.38157" lon="-5.8082567"><ele>1464.0</ele><time>2026-04-23T16:58:47.899Z</time></trkpt><trkpt lat="31.38146" lon="-5.80845"><ele>1464.0</ele><time>2026-04-23T16:58:48.899Z</time></trkpt><trkpt lat="31.38135" lon="-5.8086417"><ele>1464.0</ele><time>2026-04-23T16:58:49.898Z</time></trkpt><trkpt lat="31.3812417" lon="-5.8088383"><ele>1464.3333333333333</ele><time>2026-04-23T16:58:50.898Z</time></trkpt><trkpt lat="31.3811283" lon="-5.8090283"><ele>1464.6666666666665</ele><time>2026-04-23T16:58:51.899Z</time></trkpt><trkpt lat="31.38102" lon="-5.809225"><ele>1465.0</ele><time>2026-04-23T16:58:52.898Z</time></trkpt><trkpt lat="31.380905" lon="-5.80942"><ele>1465.3333333333333</ele><time>2026-04-23T16:58:53.899Z</time></trkpt><trkpt lat="31.3808017" lon="-5.8096017"><ele>1465.6666666666667</ele><time>2026-04-23T16:58:54.899Z</time></trkpt><trkpt lat="31.3806967" lon="-5.8097767"><ele>1466.0</ele><time>2026-04-23T16:58:55.898Z</time></trkpt><trkpt lat="31.38059" lon="-5.8099567"><ele>1465.6666666666667</ele><time>2026-04-23T16:58:56.899Z</time></trkpt><trkpt lat="31.3804883" lon="-5.810135"><ele>1465.3333333333333</ele><time>2026-04-23T16:58:57.899Z</time></trkpt><trkpt lat="31.38038" lon="-5.81032"><ele>1465.0</ele><time>2026-04-23T16:58:58.898Z</time></trkpt><trkpt lat="31.3802733" lon="-5.810505"><ele>1465.0</ele><time>2026-04-23T16:58:59.898Z</time></trkpt><trkpt lat="31.3801683" lon="-5.81069"><ele>1465.0</ele><time>2026-04-23T16:59:00.898Z</time></trkpt><trkpt lat="31.3800517" lon="-5.810875"><ele>1465.0</ele><time>2026-04-23T16:59:01.898Z</time></trkpt><trkpt lat="31.3799333" lon="-5.81106"><ele>1464.0</ele><time>2026-04-23T16:59:02.899Z</time></trkpt><trkpt lat="31.3798117" lon="-5.81125"><ele>1463.0</ele><time>2026-04-23T16:59:03.899Z</time></trkpt><trkpt lat="31.3796883" lon="-5.8114383"><ele>1462.0</ele><time>2026-04-23T16:59:04.899Z</time></trkpt><trkpt lat="31.3795683" lon="-5.8116267"><ele>1462.0</ele><time>2026-04-23T16:59:05.899Z</time></trkpt><trkpt lat="31.3794433" lon="-5.81182"><ele>1462.0</ele><time>2026-04-23T16:59:06.899Z</time></trkpt><trkpt lat="31.37932" lon="-5.812015"><ele>1462.0</ele><time>2026-04-23T16:59:07.899Z</time></trkpt><trkpt lat="31.37919" lon="-5.8122083"><ele>1461.6666666666665</ele><time>2026-04-23T16:59:08.899Z</time></trkpt><trkpt lat="31.3790633" lon="-5.8124033"><ele>1461.3333333333333</ele><time>2026-04-23T16:59:09.899Z</time></trkpt><trkpt lat="31.3789483" lon="-5.8125917"><ele>1461.0</ele><time>2026-04-23T16:59:10.898Z</time></trkpt><trkpt lat="31.3788283" lon="-5.8127783"><ele>1461.6666666666667</ele><time>2026-04-23T16:59:11.899Z</time></trkpt><trkpt lat="31.378715" lon="-5.8129683"><ele>1462.3333333333335</ele><time>2026-04-23T16:59:12.898Z</time></trkpt><trkpt lat="31.378595" lon="-5.8131567"><ele>1463.0</ele><time>2026-04-23T16:59:13.898Z</time></trkpt><trkpt lat="31.3784833" lon="-5.8133433"><ele>1463.6666666666667</ele><time>2026-04-23T16:59:14.899Z</time></trkpt><trkpt lat="31.37837" lon="-5.8135233"><ele>1464.3333333333333</ele><time>2026-04-23T16:59:15.898Z</time></trkpt><trkpt lat="31.3782617" lon="-5.813705"><ele>1465.0</ele><time>2026-04-23T16:59:16.898Z</time></trkpt><trkpt lat="31.37815" lon="-5.8138783"><ele>1465.0</ele><time>2026-04-23T16:59:17.899Z</time></trkpt><trkpt lat="31.3780383" lon="-5.8140567"><ele>1465.0</ele><time>2026-04-23T16:59:18.898Z</time></trkpt><trkpt lat="31.3779217" lon="-5.8142317"><ele>1465.0</ele><time>2026-04-23T16:59:19.899Z</time></trkpt><trkpt lat="31.3778067" lon="-5.81441"><ele>1465.3333333333333</ele><time>2026-04-23T16:59:20.898Z</time></trkpt><trkpt lat="31.3776917" lon="-5.8145883"><ele>1465.6666666666667</ele><time>2026-04-23T16:59:21.899Z</time></trkpt><trkpt lat="31.3775767" lon="-5.8147633"><ele>1466.0</ele><time>2026-04-23T16:59:22.899Z</time></trkpt><trkpt lat="31.3774683" lon="-5.8149333"><ele>1466.0</ele><time>2026-04-23T16:59:23.899Z</time></trkpt><trkpt lat="31.3773633" lon="-5.8151033"><ele>1466.0</ele><time>2026-04-23T16:59:24.899Z</time></trkpt><trkpt lat="31.3772583" lon="-5.8152683"><ele>1466.0</ele><time>2026-04-23T16:59:25.899Z</time></trkpt><trkpt lat="31.377155" lon="-5.8154333"><ele>1467.3333333333335</ele><time>2026-04-23T16:59:26.899Z</time></trkpt><trkpt lat="31.3770567" lon="-5.8156033"><ele>1468.6666666666667</ele><time>2026-04-23T16:59:27.899Z</time></trkpt><trkpt lat="31.376965" lon="-5.8157767"><ele>1470.0</ele><time>2026-04-23T16:59:28.898Z</time></trkpt><trkpt lat="31.37689" lon="-5.81594"><ele>1470.5</ele><time>2026-04-23T16:59:29.898Z</time></trkpt><trkpt lat="31.3768133" lon="-5.8161"><ele>1471.0</ele><time>2026-04-23T16:59:30.899Z</time></trkpt><trkpt lat="31.376745" lon="-5.8162483"><ele>1471.5</ele><time>2026-04-23T16:59:31.899Z</time></trkpt><trkpt lat="31.3766817" lon="-5.8164017"><ele>1472.0</ele><time>2026-04-23T16:59:32.899Z</time></trkpt><trkpt lat="31.3766167" lon="-5.8165717"><ele>1472.0</ele><time>2026-04-23T16:59:33.899Z</time></trkpt><trkpt lat="31.3765617" lon="-5.8167533"><ele>1472.0</ele><time>2026-04-23T16:59:34.898Z</time></trkpt><trkpt lat="31.376505" lon="-5.8169483"><ele>1472.0</ele><time>2026-04-23T16:59:35.899Z</time></trkpt><trkpt lat="31.3764567" lon="-5.8171567"><ele>1472.0</ele><time>2026-04-23T16:59:36.899Z</time></trkpt><trkpt lat="31.3764017" lon="-5.81738"><ele>1472.0</ele><time>2026-04-23T16:59:37.899Z</time></trkpt><trkpt lat="31.3763583" lon="-5.817605"><ele>1472.0</ele><time>2026-04-23T16:59:38.899Z</time></trkpt><trkpt lat="31.3763167" lon="-5.81784"><ele>1472.6666666666667</ele><time>2026-04-23T16:59:39.899Z</time></trkpt><trkpt lat="31.3762767" lon="-5.81809"><ele>1473.3333333333333</ele><time>2026-04-23T16:59:40.899Z</time></trkpt><trkpt lat="31.3762517" lon="-5.8183383"><ele>1474.0</ele><time>2026-04-23T16:59:41.899Z</time></trkpt><trkpt lat="31.3762317" lon="-5.8185883"><ele>1474.0</ele><time>2026-04-23T16:59:42.898Z</time></trkpt><trkpt lat="31.3762033" lon="-5.8188283"><ele>1474.0</ele><time>2026-04-23T16:59:43.899Z</time></trkpt><trkpt lat="31.376175" lon="-5.8190733"><ele>1474.0</ele><time>2026-04-23T16:59:44.899Z</time></trkpt><trkpt lat="31.37614" lon="-5.8193067"><ele>1474.6666666666665</ele><time>2026-04-23T16:59:45.899Z</time></trkpt><trkpt lat="31.3761117" lon="-5.81953"><ele>1475.3333333333333</ele><time>2026-04-23T16:59:46.899Z</time></trkpt><trkpt lat="31.3760833" lon="-5.8197517"><ele>1476.0</ele><time>2026-04-23T16:59:47.899Z</time></trkpt><trkpt lat="31.3760517" lon="-5.8199633"><ele>1477.0</ele><time>2026-04-23T16:59:48.899Z</time></trkpt><trkpt lat="31.3760283" lon="-5.8201733"><ele>1478.0</ele><time>2026-04-23T16:59:49.899Z</time></trkpt><trkpt lat="31.3759967" lon="-5.8203717"><ele>1479.0</ele><time>2026-04-23T16:59:50.899Z</time></trkpt><trkpt lat="31.3759717" lon="-5.8205767"><ele>1479.0</ele><time>2026-04-23T16:59:51.899Z</time></trkpt><trkpt lat="31.3759417" lon="-5.8207867"><ele>1479.0</ele><time>2026-04-23T16:59:52.899Z</time></trkpt><trkpt lat="31.3759167" lon="-5.8209883"><ele>1479.0</ele><time>2026-04-23T16:59:53.898Z</time></trkpt><trkpt lat="31.37589" lon="-5.82119"><ele>1479.0</ele><time>2026-04-23T16:59:54.899Z</time></trkpt><trkpt lat="31.3758633" lon="-5.8213967"><ele>1479.0</ele><time>2026-04-23T16:59:55.899Z</time></trkpt><trkpt lat="31.3758367" lon="-5.8216"><ele>1479.0</ele><time>2026-04-23T16:59:56.898Z</time></trkpt><trkpt lat="31.37581" lon="-5.8218083"><ele>1478.3333333333333</ele><time>2026-04-23T16:59:57.898Z</time></trkpt><trkpt lat="31.3757817" lon="-5.8220133"><ele>1477.6666666666665</ele><time>2026-04-23T16:59:58.898Z</time></trkpt><trkpt lat="31.3757583" lon="-5.8222133"><ele>1477.0</ele><time>2026-04-23T16:59:59.899Z</time></trkpt><trkpt lat="31.3757333" lon="-5.82242"><ele>1477.0</ele><time>2026-04-23T17:00:00.899Z</time></trkpt><trkpt lat="31.375705" lon="-5.822615"><ele>1477.0</ele><time>2026-04-23T17:00:01.899Z</time></trkpt><trkpt lat="31.3756817" lon="-5.822805"><ele>1477.0</ele><time>2026-04-23T17:00:02.899Z</time></trkpt><trkpt lat="31.3756617" lon="-5.822995"><ele>1477.3333333333333</ele><time>2026-04-23T17:00:03.899Z</time></trkpt><trkpt lat="31.3756433" lon="-5.8231933"><ele>1477.6666666666667</ele><time>2026-04-23T17:00:04.899Z</time></trkpt><trkpt lat="31.3756133" lon="-5.82339"><ele>1478.0</ele><time>2026-04-23T17:00:05.899Z</time></trkpt><trkpt lat="31.3755867" lon="-5.823595"><ele>1478.0</ele><time>2026-04-23T17:00:06.899Z</time></trkpt><trkpt lat="31.3755533" lon="-5.8238083"><ele>1478.0</ele><time>2026-04-23T17:00:07.899Z</time></trkpt><trkpt lat="31.37552" lon="-5.82403"><ele>1478.0</ele><time>2026-04-23T17:00:08.899Z</time></trkpt><trkpt lat="31.3754883" lon="-5.8242517"><ele>1477.0</ele><time>2026-04-23T17:00:09.899Z</time></trkpt><trkpt lat="31.3754533" lon="-5.8244733"><ele>1476.0</ele><time>2026-04-23T17:00:10.898Z</time></trkpt><trkpt lat="31.3754133" lon="-5.8247"><ele>1475.0</ele><time>2026-04-23T17:00:11.899Z</time></trkpt><trkpt lat="31.3753717" lon="-5.8249267"><ele>1475.6666666666667</ele><time>2026-04-23T17:00:12.898Z</time></trkpt><trkpt lat="31.3753267" lon="-5.8251483"><ele>1476.3333333333333</ele><time>2026-04-23T17:00:13.899Z</time></trkpt><trkpt lat="31.3752833" lon="-5.825365"><ele>1477.0</ele><time>2026-04-23T17:00:14.899Z</time></trkpt><trkpt lat="31.3752333" lon="-5.825585"><ele>1477.0</ele><time>2026-04-23T17:00:15.899Z</time></trkpt><trkpt lat="31.375185" lon="-5.825805"><ele>1477.0</ele><time>2026-04-23T17:00:16.898Z</time></trkpt><trkpt lat="31.375135" lon="-5.8260267"><ele>1477.0</ele><time>2026-04-23T17:00:17.898Z</time></trkpt><trkpt lat="31.3750867" lon="-5.8262417"><ele>1476.3333333333333</ele><time>2026-04-23T17:00:18.899Z</time></trkpt><trkpt lat="31.3750417" lon="-5.8264533"><ele>1475.6666666666667</ele><time>2026-04-23T17:00:19.899Z</time></trkpt><trkpt lat="31.3749917" lon="-5.8266633"><ele>1475.0</ele><time>2026-04-23T17:00:20.899Z</time></trkpt><trkpt lat="31.3749483" lon="-5.826875"><ele>1475.0</ele><time>2026-04-23T17:00:21.899Z</time></trkpt><trkpt lat="31.3748983" lon="-5.82709"><ele>1475.0</ele><time>2026-04-23T17:00:22.898Z</time></trkpt><trkpt lat="31.3748533" lon="-5.8273033"><ele>1475.0</ele><time>2026-04-23T17:00:23.899Z</time></trkpt><trkpt lat="31.374805" lon="-5.8275217"><ele>1475.3333333333335</ele><time>2026-04-23T17:00:24.898Z</time></trkpt><trkpt lat="31.37476" lon="-5.8277433"><ele>1475.6666666666667</ele><time>2026-04-23T17:00:25.898Z</time></trkpt><trkpt lat="31.374715" lon="-5.8279667"><ele>1476.0</ele><time>2026-04-23T17:00:26.899Z</time></trkpt><trkpt lat="31.374665" lon="-5.828195"><ele>1476.3333333333333</ele><time>2026-04-23T17:00:27.899Z</time></trkpt><trkpt lat="31.3746183" lon="-5.8284217"><ele>1476.6666666666665</ele><time>2026-04-23T17:00:28.899Z</time></trkpt><trkpt lat="31.3745733" lon="-5.8286517"><ele>1477.0</ele><time>2026-04-23T17:00:29.899Z</time></trkpt><trkpt lat="31.3745233" lon="-5.828885"><ele>1477.0</ele><time>2026-04-23T17:00:30.898Z</time></trkpt><trkpt lat="31.3744733" lon="-5.829125"><ele>1477.0</ele><time>2026-04-23T17:00:31.899Z</time></trkpt><trkpt lat="31.3744217" lon="-5.8293633"><ele>1477.0</ele><time>2026-04-23T17:00:32.899Z</time></trkpt><trkpt lat="31.37437" lon="-5.8296083"><ele>1477.0</ele><time>2026-04-23T17:00:33.898Z</time></trkpt><trkpt lat="31.37432" lon="-5.8298467"><ele>1477.0</ele><time>2026-04-23T17:00:34.898Z</time></trkpt><trkpt lat="31.37427" lon="-5.8300817"><ele>1477.0</ele><time>2026-04-23T17:00:35.898Z</time></trkpt><trkpt lat="31.3742167" lon="-5.8303183"><ele>1476.6666666666665</ele><time>2026-04-23T17:00:36.899Z</time></trkpt><trkpt lat="31.3741533" lon="-5.830555"><ele>1476.3333333333333</ele><time>2026-04-23T17:00:37.899Z</time></trkpt><trkpt lat="31.3740833" lon="-5.830785"><ele>1476.0</ele><time>2026-04-23T17:00:38.899Z</time></trkpt><trkpt lat="31.3740133" lon="-5.8310167"><ele>1476.0</ele><time>2026-04-23T17:00:39.899Z</time></trkpt><trkpt lat="31.3739333" lon="-5.83125"><ele>1476.0</ele><time>2026-04-23T17:00:40.899Z</time></trkpt><trkpt lat="31.3738433" lon="-5.8314783"><ele>1476.0</ele><time>2026-04-23T17:00:41.899Z</time></trkpt><trkpt lat="31.373745" lon="-5.831705"><ele>1475.6666666666667</ele><time>2026-04-23T17:00:42.899Z</time></trkpt><trkpt lat="31.3736367" lon="-5.8319267"><ele>1475.3333333333335</ele><time>2026-04-23T17:00:43.899Z</time></trkpt><trkpt lat="31.3735233" lon="-5.8321433"><ele>1475.0</ele><time>2026-04-23T17:00:44.898Z</time></trkpt><trkpt lat="31.3734067" lon="-5.8323483"><ele>1475.0</ele><time>2026-04-23T17:00:45.899Z</time></trkpt><trkpt lat="31.3732917" lon="-5.832545"><ele>1475.0</ele><time>2026-04-23T17:00:46.899Z</time></trkpt><trkpt lat="31.3731717" lon="-5.83274"><ele>1475.0</ele><time>2026-04-23T17:00:47.898Z</time></trkpt><trkpt lat="31.3730517" lon="-5.8329333"><ele>1474.6666666666667</ele><time>2026-04-23T17:00:48.899Z</time></trkpt><trkpt lat="31.3729333" lon="-5.8331283"><ele>1474.3333333333333</ele><time>2026-04-23T17:00:49.899Z</time></trkpt><trkpt lat="31.3728183" lon="-5.83333"><ele>1474.0</ele><time>2026-04-23T17:00:50.899Z</time></trkpt><trkpt lat="31.3727017" lon="-5.833535"><ele>1474.0</ele><time>2026-04-23T17:00:51.899Z</time></trkpt><trkpt lat="31.3725783" lon="-5.8337383"><ele>1474.0</ele><time>2026-04-23T17:00:52.899Z</time></trkpt><trkpt lat="31.3724633" lon="-5.8339367"><ele>1474.0</ele><time>2026-04-23T17:00:53.899Z</time></trkpt><trkpt lat="31.3723567" lon="-5.8341517"><ele>1474.6666666666665</ele><time>2026-04-23T17:00:54.899Z</time></trkpt><trkpt lat="31.37225" lon="-5.8343783"><ele>1475.3333333333333</ele><time>2026-04-23T17:00:55.899Z</time></trkpt><trkpt lat="31.3721567" lon="-5.8346183"><ele>1476.0</ele><time>2026-04-23T17:00:56.899Z</time></trkpt><trkpt lat="31.3720617" lon="-5.834875"><ele>1472.5</ele><time>2026-04-23T17:00:57.898Z</time></trkpt><trkpt lat="31.371975" lon="-5.8351367"><ele>1469.0</ele><time>2026-04-23T17:00:58.898Z</time></trkpt><trkpt lat="31.3718933" lon="-5.8354083"><ele>1469.0</ele><time>2026-04-23T17:00:59.899Z</time></trkpt><trkpt lat="31.3718233" lon="-5.8356883"><ele>1469.0</ele><time>2026-04-23T17:01:00.898Z</time></trkpt><trkpt lat="31.3717567" lon="-5.83597"><ele>1470.0</ele><time>2026-04-23T17:01:01.899Z</time></trkpt><trkpt lat="31.371685" lon="-5.8362533"><ele>1471.0</ele><time>2026-04-23T17:01:02.898Z</time></trkpt><trkpt lat="31.37161" lon="-5.836535"><ele>1472.0</ele><time>2026-04-23T17:01:03.898Z</time></trkpt><trkpt lat="31.3715383" lon="-5.83682"><ele>1473.0</ele><time>2026-04-23T17:01:04.898Z</time></trkpt><trkpt lat="31.3714617" lon="-5.8371033"><ele>1473.0</ele><time>2026-04-23T17:01:05.899Z</time></trkpt><trkpt lat="31.3713833" lon="-5.8373933"><ele>1473.0</ele><time>2026-04-23T17:01:06.899Z</time></trkpt><trkpt lat="31.37131" lon="-5.83768"><ele>1473.0</ele><time>2026-04-23T17:01:07.899Z</time></trkpt><trkpt lat="31.371235" lon="-5.8379717"><ele>1473.0</ele><time>2026-04-23T17:01:08.899Z</time></trkpt><trkpt lat="31.3711683" lon="-5.838255"><ele>1472.5</ele><time>2026-04-23T17:01:09.898Z</time></trkpt><trkpt lat="31.3711017" lon="-5.838525"><ele>1472.0</ele><time>2026-04-23T17:01:10.899Z</time></trkpt><trkpt lat="31.37103" lon="-5.83879"><ele>1472.0</ele><time>2026-04-23T17:01:11.898Z</time></trkpt><trkpt lat="31.37096" lon="-5.8390517"><ele>1472.0</ele><time>2026-04-23T17:01:12.899Z</time></trkpt><trkpt lat="31.3708933" lon="-5.839305"><ele>1471.6666666666667</ele><time>2026-04-23T17:01:13.899Z</time></trkpt><trkpt lat="31.37083" lon="-5.8395567"><ele>1471.3333333333333</ele><time>2026-04-23T17:01:14.898Z</time></trkpt><trkpt lat="31.370765" lon="-5.8398067"><ele>1471.0</ele><time>2026-04-23T17:01:15.898Z</time></trkpt><trkpt lat="31.3707" lon="-5.8400567"><ele>1471.3333333333333</ele><time>2026-04-23T17:01:16.899Z</time></trkpt><trkpt lat="31.370635" lon="-5.8403017"><ele>1471.6666666666667</ele><time>2026-04-23T17:01:17.899Z</time></trkpt><trkpt lat="31.3705733" lon="-5.84054"><ele>1472.0</ele><time>2026-04-23T17:01:18.898Z</time></trkpt><trkpt lat="31.3705133" lon="-5.8407783"><ele>1472.3333333333335</ele><time>2026-04-23T17:01:19.898Z</time></trkpt><trkpt lat="31.370455" lon="-5.8410117"><ele>1472.6666666666667</ele><time>2026-04-23T17:01:20.898Z</time></trkpt><trkpt lat="31.3703933" lon="-5.8412483"><ele>1473.0</ele><time>2026-04-23T17:01:21.898Z</time></trkpt><trkpt lat="31.37033" lon="-5.8414833"><ele>1473.0</ele><time>2026-04-23T17:01:22.899Z</time></trkpt><trkpt lat="31.37027" lon="-5.84172"><ele>1473.0</ele><time>2026-04-23T17:01:23.899Z</time></trkpt><trkpt lat="31.3702067" lon="-5.8419583"><ele>1473.0</ele><time>2026-04-23T17:01:24.899Z</time></trkpt><trkpt lat="31.3701433" lon="-5.8422"><ele>1473.3333333333333</ele><time>2026-04-23T17:01:25.899Z</time></trkpt><trkpt lat="31.3700833" lon="-5.84244"><ele>1473.6666666666665</ele><time>2026-04-23T17:01:26.898Z</time></trkpt><trkpt lat="31.37002" lon="-5.8426867"><ele>1474.0</ele><time>2026-04-23T17:01:27.898Z</time></trkpt><trkpt lat="31.3699633" lon="-5.8429267"><ele>1474.6666666666665</ele><time>2026-04-23T17:01:28.899Z</time></trkpt><trkpt lat="31.3699" lon="-5.8431683"><ele>1475.3333333333333</ele><time>2026-04-23T17:01:29.899Z</time></trkpt><trkpt lat="31.3698367" lon="-5.8434083"><ele>1476.0</ele><time>2026-04-23T17:01:30.898Z</time></trkpt><trkpt lat="31.369775" lon="-5.8436483"><ele>1476.0</ele><time>2026-04-23T17:01:31.898Z</time></trkpt><trkpt lat="31.369715" lon="-5.843885"><ele>1476.0</ele><time>2026-04-23T17:01:32.899Z</time></trkpt><trkpt lat="31.3696533" lon="-5.8441267"><ele>1476.0</ele><time>2026-04-23T17:01:33.899Z</time></trkpt><trkpt lat="31.3695883" lon="-5.8443633"><ele>1476.3333333333333</ele><time>2026-04-23T17:01:34.899Z</time></trkpt><trkpt lat="31.36953" lon="-5.8446033"><ele>1476.6666666666665</ele><time>2026-04-23T17:01:35.899Z</time></trkpt><trkpt lat="31.36947" lon="-5.8448433"><ele>1477.0</ele><time>2026-04-23T17:01:36.899Z</time></trkpt><trkpt lat="31.3694133" lon="-5.8450867"><ele>1477.6666666666665</ele><time>2026-04-23T17:01:37.899Z</time></trkpt><trkpt lat="31.369345" lon="-5.8453267"><ele>1478.3333333333333</ele><time>2026-04-23T17:01:38.899Z</time></trkpt><trkpt lat="31.3692883" lon="-5.8455767"><ele>1479.0</ele><time>2026-04-23T17:01:39.899Z</time></trkpt><trkpt lat="31.3692317" lon="-5.8458233"><ele>1479.3333333333333</ele><time>2026-04-23T17:01:40.899Z</time></trkpt><trkpt lat="31.3691817" lon="-5.8460733"><ele>1479.6666666666665</ele><time>2026-04-23T17:01:41.899Z</time></trkpt><trkpt lat="31.3691383" lon="-5.846325"><ele>1480.0</ele><time>2026-04-23T17:01:42.899Z</time></trkpt><trkpt lat="31.369095" lon="-5.8465733"><ele>1480.6666666666665</ele><time>2026-04-23T17:01:43.899Z</time></trkpt><trkpt lat="31.3690533" lon="-5.8468233"><ele>1481.3333333333333</ele><time>2026-04-23T17:01:44.898Z</time></trkpt><trkpt lat="31.3690083" lon="-5.847075"><ele>1482.0</ele><time>2026-04-23T17:01:45.898Z</time></trkpt><trkpt lat="31.3689633" lon="-5.84732"><ele>1482.0</ele><time>2026-04-23T17:01:46.899Z</time></trkpt><trkpt lat="31.36892" lon="-5.84757"><ele>1482.0</ele><time>2026-04-23T17:01:47.899Z</time></trkpt><trkpt lat="31.368875" lon="-5.8478167"><ele>1482.0</ele><time>2026-04-23T17:01:48.898Z</time></trkpt><trkpt lat="31.3688383" lon="-5.8480633"><ele>1481.6666666666667</ele><time>2026-04-23T17:01:49.898Z</time></trkpt><trkpt lat="31.3688" lon="-5.8483083"><ele>1481.3333333333335</ele><time>2026-04-23T17:01:50.899Z</time></trkpt><trkpt lat="31.3687617" lon="-5.8485333"><ele>1481.0</ele><time>2026-04-23T17:01:51.899Z</time></trkpt><trkpt lat="31.3687233" lon="-5.8487633"><ele>1481.0</ele><time>2026-04-23T17:01:52.898Z</time></trkpt><trkpt lat="31.3686867" lon="-5.8489817"><ele>1481.0</ele><time>2026-04-23T17:01:53.899Z</time></trkpt><trkpt lat="31.3686533" lon="-5.849205"><ele>1481.0</ele><time>2026-04-23T17:01:54.899Z</time></trkpt><trkpt lat="31.3686183" lon="-5.84943"><ele>1481.0</ele><time>2026-04-23T17:01:55.899Z</time></trkpt><trkpt lat="31.3685817" lon="-5.8496467"><ele>1481.0</ele><time>2026-04-23T17:01:56.898Z</time></trkpt><trkpt lat="31.36854" lon="-5.84986"><ele>1481.0</ele><time>2026-04-23T17:01:57.899Z</time></trkpt><trkpt lat="31.368505" lon="-5.8500767"><ele>1481.6666666666667</ele><time>2026-04-23T17:01:58.899Z</time></trkpt><trkpt lat="31.3684733" lon="-5.850285"><ele>1482.3333333333333</ele><time>2026-04-23T17:01:59.899Z</time></trkpt><trkpt lat="31.3684433" lon="-5.8504933"><ele>1483.0</ele><time>2026-04-23T17:02:00.899Z</time></trkpt><trkpt lat="31.36841" lon="-5.8507033"><ele>1483.0</ele><time>2026-04-23T17:02:01.899Z</time></trkpt><trkpt lat="31.36837" lon="-5.8509183"><ele>1483.0</ele><time>2026-04-23T17:02:02.899Z</time></trkpt><trkpt lat="31.36834" lon="-5.851125"><ele>1483.0</ele><time>2026-04-23T17:02:03.898Z</time></trkpt><trkpt lat="31.3683083" lon="-5.851325"><ele>1483.3333333333333</ele><time>2026-04-23T17:02:04.899Z</time></trkpt><trkpt lat="31.36827" lon="-5.85153"><ele>1483.6666666666667</ele><time>2026-04-23T17:02:05.899Z</time></trkpt><trkpt lat="31.3682367" lon="-5.8517317"><ele>1484.0</ele><time>2026-04-23T17:02:06.899Z</time></trkpt><trkpt lat="31.3682067" lon="-5.85193"><ele>1484.3333333333335</ele><time>2026-04-23T17:02:07.898Z</time></trkpt><trkpt lat="31.3681667" lon="-5.85213"><ele>1484.6666666666667</ele><time>2026-04-23T17:02:08.899Z</time></trkpt><trkpt lat="31.3681417" lon="-5.8523383"><ele>1485.0</ele><time>2026-04-23T17:02:09.899Z</time></trkpt><trkpt lat="31.3681083" lon="-5.8525383"><ele>1485.6666666666667</ele><time>2026-04-23T17:02:10.899Z</time></trkpt><trkpt lat="31.3680817" lon="-5.852745"><ele>1486.3333333333335</ele><time>2026-04-23T17:02:11.899Z</time></trkpt><trkpt lat="31.368055" lon="-5.8529483"><ele>1487.0</ele><time>2026-04-23T17:02:12.898Z</time></trkpt><trkpt lat="31.368035" lon="-5.8531533"><ele>1487.0</ele><time>2026-04-23T17:02:13.899Z</time></trkpt><trkpt lat="31.3680233" lon="-5.8533583"><ele>1487.0</ele><time>2026-04-23T17:02:14.899Z</time></trkpt><trkpt lat="31.3680133" lon="-5.8535683"><ele>1487.0</ele><time>2026-04-23T17:02:15.899Z</time></trkpt><trkpt lat="31.3680033" lon="-5.8537817"><ele>1487.3333333333335</ele><time>2026-04-23T17:02:16.899Z</time></trkpt><trkpt lat="31.3679983" lon="-5.8539983"><ele>1487.6666666666667</ele><time>2026-04-23T17:02:17.898Z</time></trkpt><trkpt lat="31.368005" lon="-5.8542183"><ele>1488.0</ele><time>2026-04-23T17:02:18.899Z</time></trkpt><trkpt lat="31.36802" lon="-5.8544467"><ele>1488.0</ele><time>2026-04-23T17:02:19.899Z</time></trkpt><trkpt lat="31.3680433" lon="-5.8546717"><ele>1488.0</ele><time>2026-04-23T17:02:20.899Z</time></trkpt><trkpt lat="31.3680767" lon="-5.8548933"><ele>1488.0</ele><time>2026-04-23T17:02:21.899Z</time></trkpt><trkpt lat="31.3681183" lon="-5.8551183"><ele>1488.6666666666667</ele><time>2026-04-23T17:02:22.899Z</time></trkpt><trkpt lat="31.36816" lon="-5.8553383"><ele>1489.3333333333335</ele><time>2026-04-23T17:02:23.898Z</time></trkpt><trkpt lat="31.36821" lon="-5.8555633"><ele>1490.0</ele><time>2026-04-23T17:02:24.899Z</time></trkpt><trkpt lat="31.3682633" lon="-5.855785"><ele>1490.0</ele><time>2026-04-23T17:02:25.898Z</time></trkpt><trkpt lat="31.3683183" lon="-5.8560117"><ele>1490.0</ele><time>2026-04-23T17:02:26.899Z</time></trkpt><trkpt lat="31.3683717" lon="-5.8562383"><ele>1490.0</ele><time>2026-04-23T17:02:27.899Z</time></trkpt><trkpt lat="31.3684233" lon="-5.85646"><ele>1490.0</ele><time>2026-04-23T17:02:28.899Z</time></trkpt><trkpt lat="31.36848" lon="-5.8566883"><ele>1490.0</ele><time>2026-04-23T17:02:29.898Z</time></trkpt><trkpt lat="31.368535" lon="-5.8569167"><ele>1490.0</ele><time>2026-04-23T17:02:30.899Z</time></trkpt><trkpt lat="31.3685883" lon="-5.857145"><ele>1490.0</ele><time>2026-04-23T17:02:31.899Z</time></trkpt><trkpt lat="31.3686433" lon="-5.85737"><ele>1490.0</ele><time>2026-04-23T17:02:32.899Z</time></trkpt><trkpt lat="31.3687017" lon="-5.8575967"><ele>1490.0</ele><time>2026-04-23T17:02:33.899Z</time></trkpt><trkpt lat="31.36876" lon="-5.8578183"><ele>1490.0</ele><time>2026-04-23T17:02:34.899Z</time></trkpt><trkpt lat="31.3688133" lon="-5.858035"><ele>1490.0</ele><time>2026-04-23T17:02:35.899Z</time></trkpt><trkpt lat="31.36887" lon="-5.8582467"><ele>1490.0</ele><time>2026-04-23T17:02:36.899Z</time></trkpt><trkpt lat="31.36893" lon="-5.85846"><ele>1490.6666666666667</ele><time>2026-04-23T17:02:37.899Z</time></trkpt><trkpt lat="31.368985" lon="-5.8586683"><ele>1491.3333333333333</ele><time>2026-04-23T17:02:38.899Z</time></trkpt><trkpt lat="31.3690367" lon="-5.8588767"><ele>1492.0</ele><time>2026-04-23T17:02:39.899Z</time></trkpt><trkpt lat="31.3690917" lon="-5.8590867"><ele>1492.6666666666665</ele><time>2026-04-23T17:02:40.899Z</time></trkpt><trkpt lat="31.369145" lon="-5.859295"><ele>1493.3333333333333</ele><time>2026-04-23T17:02:41.899Z</time></trkpt><trkpt lat="31.3692" lon="-5.8595017"><ele>1494.0</ele><time>2026-04-23T17:02:42.899Z</time></trkpt><trkpt lat="31.3692567" lon="-5.8597067"><ele>1494.0</ele><time>2026-04-23T17:02:43.899Z</time></trkpt><trkpt lat="31.3693083" lon="-5.859915"><ele>1494.0</ele><time>2026-04-23T17:02:44.898Z</time></trkpt><trkpt lat="31.369365" lon="-5.860125"><ele>1494.0</ele><time>2026-04-23T17:02:45.899Z</time></trkpt><trkpt lat="31.3694217" lon="-5.8603367"><ele>1494.0</ele><time>2026-04-23T17:02:46.899Z</time></trkpt><trkpt lat="31.3694767" lon="-5.8605433"><ele>1494.0</ele><time>2026-04-23T17:02:47.898Z</time></trkpt><trkpt lat="31.3695317" lon="-5.86075"><ele>1494.0</ele><time>2026-04-23T17:02:48.898Z</time></trkpt><trkpt lat="31.3695867" lon="-5.8609617"><ele>1493.6666666666667</ele><time>2026-04-23T17:02:49.898Z</time></trkpt><trkpt lat="31.36964" lon="-5.861175"><ele>1493.3333333333335</ele><time>2026-04-23T17:02:50.898Z</time></trkpt><trkpt lat="31.36969" lon="-5.8613883"><ele>1493.0</ele><time>2026-04-23T17:02:51.899Z</time></trkpt><trkpt lat="31.369745" lon="-5.861605"><ele>1493.6666666666667</ele><time>2026-04-23T17:02:52.898Z</time></trkpt><trkpt lat="31.3698" lon="-5.861825"><ele>1494.3333333333333</ele><time>2026-04-23T17:02:53.898Z</time></trkpt><trkpt lat="31.3698533" lon="-5.8620433"><ele>1495.0</ele><time>2026-04-23T17:02:54.899Z</time></trkpt><trkpt lat="31.3699083" lon="-5.86226"><ele>1495.0</ele><time>2026-04-23T17:02:55.898Z</time></trkpt><trkpt lat="31.3699717" lon="-5.8624817"><ele>1495.0</ele><time>2026-04-23T17:02:56.899Z</time></trkpt><trkpt lat="31.37003" lon="-5.862705"><ele>1495.0</ele><time>2026-04-23T17:02:57.899Z</time></trkpt><trkpt lat="31.370085" lon="-5.8629317"><ele>1495.3333333333333</ele><time>2026-04-23T17:02:58.899Z</time></trkpt><trkpt lat="31.37015" lon="-5.8631583"><ele>1495.6666666666667</ele><time>2026-04-23T17:02:59.898Z</time></trkpt><trkpt lat="31.370215" lon="-5.863385"><ele>1496.0</ele><time>2026-04-23T17:03:00.899Z</time></trkpt><trkpt lat="31.37028" lon="-5.863615"><ele>1496.3333333333335</ele><time>2026-04-23T17:03:01.899Z</time></trkpt><trkpt lat="31.370345" lon="-5.8638383"><ele>1496.6666666666667</ele><time>2026-04-23T17:03:02.899Z</time></trkpt><trkpt lat="31.3704017" lon="-5.86406"><ele>1497.0</ele><time>2026-04-23T17:03:03.898Z</time></trkpt><trkpt lat="31.3704617" lon="-5.8642767"><ele>1496.6666666666667</ele><time>2026-04-23T17:03:04.899Z</time></trkpt><trkpt lat="31.3705133" lon="-5.8644817"><ele>1496.3333333333335</ele><time>2026-04-23T17:03:05.898Z</time></trkpt><trkpt lat="31.3705667" lon="-5.8646817"><ele>1496.0</ele><time>2026-04-23T17:03:06.899Z</time></trkpt><trkpt lat="31.3706167" lon="-5.8648733"><ele>1496.6666666666667</ele><time>2026-04-23T17:03:07.899Z</time></trkpt><trkpt lat="31.3706667" lon="-5.8650683"><ele>1497.3333333333333</ele><time>2026-04-23T17:03:08.898Z</time></trkpt><trkpt lat="31.370715" lon="-5.8652683"><ele>1498.0</ele><time>2026-04-23T17:03:09.899Z</time></trkpt><trkpt lat="31.3707717" lon="-5.8654717"><ele>1499.0</ele><time>2026-04-23T17:03:10.898Z</time></trkpt><trkpt lat="31.3708283" lon="-5.8656833"><ele>1500.0</ele><time>2026-04-23T17:03:11.899Z</time></trkpt><trkpt lat="31.370885" lon="-5.8658983"><ele>1501.0</ele><time>2026-04-23T17:03:12.899Z</time></trkpt><trkpt lat="31.3709433" lon="-5.8661183"><ele>1501.3333333333333</ele><time>2026-04-23T17:03:13.899Z</time></trkpt><trkpt lat="31.371005" lon="-5.8663383"><ele>1501.6666666666667</ele><time>2026-04-23T17:03:14.899Z</time></trkpt><trkpt lat="31.3710633" lon="-5.866565"><ele>1502.0</ele><time>2026-04-23T17:03:15.898Z</time></trkpt><trkpt lat="31.3711217" lon="-5.866795"><ele>1502.3333333333335</ele><time>2026-04-23T17:03:16.899Z</time></trkpt><trkpt lat="31.3711817" lon="-5.8670317"><ele>1502.6666666666667</ele><time>2026-04-23T17:03:17.899Z</time></trkpt><trkpt lat="31.3712417" lon="-5.8672683"><ele>1503.0</ele><time>2026-04-23T17:03:18.899Z</time></trkpt><trkpt lat="31.371305" lon="-5.8675133"><ele>1503.3333333333333</ele><time>2026-04-23T17:03:19.898Z</time></trkpt><trkpt lat="31.3713717" lon="-5.8677633"><ele>1503.6666666666665</ele><time>2026-04-23T17:03:20.899Z</time></trkpt><trkpt lat="31.3714367" lon="-5.868015"><ele>1504.0</ele><time>2026-04-23T17:03:21.899Z</time></trkpt><trkpt lat="31.3715" lon="-5.8682717"><ele>1504.5</ele><time>2026-04-23T17:03:22.899Z</time></trkpt><trkpt lat="31.3715617" lon="-5.868525"><ele>1505.0</ele><time>2026-04-23T17:03:23.899Z</time></trkpt><trkpt lat="31.3716283" lon="-5.8687783"><ele>1505.0</ele><time>2026-04-23T17:03:24.897Z</time></trkpt><trkpt lat="31.3716983" lon="-5.8690333"><ele>1505.0</ele><time>2026-04-23T17:03:25.898Z</time></trkpt><trkpt lat="31.3717667" lon="-5.8692933"><ele>1505.0</ele><time>2026-04-23T17:03:26.898Z</time></trkpt><trkpt lat="31.3718367" lon="-5.8695467"><ele>1505.0</ele><time>2026-04-23T17:03:27.898Z</time></trkpt><trkpt lat="31.3719" lon="-5.8697883"><ele>1505.0</ele><time>2026-04-23T17:03:28.898Z</time></trkpt><trkpt lat="31.3719633" lon="-5.8700267"><ele>1505.6666666666667</ele><time>2026-04-23T17:03:29.898Z</time></trkpt><trkpt lat="31.3720217" lon="-5.8702667"><ele>1506.3333333333333</ele><time>2026-04-23T17:03:30.897Z</time></trkpt><trkpt lat="31.372085" lon="-5.8705067"><ele>1507.0</ele><time>2026-04-23T17:03:31.898Z</time></trkpt><trkpt lat="31.3721483" lon="-5.870745"><ele>1507.0</ele><time>2026-04-23T17:03:32.898Z</time></trkpt><trkpt lat="31.3722117" lon="-5.87099"><ele>1507.0</ele><time>2026-04-23T17:03:33.898Z</time></trkpt><trkpt lat="31.37227" lon="-5.87123"><ele>1507.0</ele><time>2026-04-23T17:03:34.898Z</time></trkpt><trkpt lat="31.3723333" lon="-5.8714717"><ele>1507.0</ele><time>2026-04-23T17:03:35.897Z</time></trkpt><trkpt lat="31.3723917" lon="-5.8717083"><ele>1507.0</ele><time>2026-04-23T17:03:36.898Z</time></trkpt><trkpt lat="31.3724517" lon="-5.8719433"><ele>1507.0</ele><time>2026-04-23T17:03:37.898Z</time></trkpt><trkpt lat="31.3725117" lon="-5.8721783"><ele>1507.6666666666665</ele><time>2026-04-23T17:03:38.897Z</time></trkpt><trkpt lat="31.3725717" lon="-5.8724117"><ele>1508.3333333333333</ele><time>2026-04-23T17:03:39.898Z</time></trkpt><trkpt lat="31.3726283" lon="-5.8726467"><ele>1509.0</ele><time>2026-04-23T17:03:40.898Z</time></trkpt><trkpt lat="31.372685" lon="-5.8728833"><ele>1509.0</ele><time>2026-04-23T17:03:41.898Z</time></trkpt><trkpt lat="31.3727467" lon="-5.873115"><ele>1509.0</ele><time>2026-04-23T17:03:42.898Z</time></trkpt><trkpt lat="31.3728133" lon="-5.8733483"><ele>1509.0</ele><time>2026-04-23T17:03:43.898Z</time></trkpt><trkpt lat="31.3728817" lon="-5.8735817"><ele>1509.0</ele><time>2026-04-23T17:03:44.898Z</time></trkpt><trkpt lat="31.372945" lon="-5.8738133"><ele>1509.0</ele><time>2026-04-23T17:03:45.898Z</time></trkpt><trkpt lat="31.3730067" lon="-5.874045"><ele>1509.0</ele><time>2026-04-23T17:03:46.898Z</time></trkpt><trkpt lat="31.3730683" lon="-5.8742783"><ele>1509.3333333333333</ele><time>2026-04-23T17:03:47.898Z</time></trkpt><trkpt lat="31.3731283" lon="-5.87451"><ele>1509.6666666666665</ele><time>2026-04-23T17:03:48.897Z</time></trkpt><trkpt lat="31.3731883" lon="-5.8747433"><ele>1510.0</ele><time>2026-04-23T17:03:49.898Z</time></trkpt><trkpt lat="31.3732517" lon="-5.8749733"><ele>1511.0</ele><time>2026-04-23T17:03:50.898Z</time></trkpt><trkpt lat="31.3733117" lon="-5.875205"><ele>1512.0</ele><time>2026-04-23T17:03:51.897Z</time></trkpt><trkpt lat="31.37337" lon="-5.875435"><ele>1513.0</ele><time>2026-04-23T17:03:52.898Z</time></trkpt><trkpt lat="31.373425" lon="-5.87567"><ele>1513.0</ele><time>2026-04-23T17:03:53.898Z</time></trkpt><trkpt lat="31.37349" lon="-5.8759"><ele>1513.0</ele><time>2026-04-23T17:03:54.898Z</time></trkpt><trkpt lat="31.37355" lon="-5.8761333"><ele>1513.0</ele><time>2026-04-23T17:03:55.898Z</time></trkpt><trkpt lat="31.3736133" lon="-5.87636"><ele>1513.3333333333333</ele><time>2026-04-23T17:03:56.898Z</time></trkpt><trkpt lat="31.3736733" lon="-5.8765933"><ele>1513.6666666666667</ele><time>2026-04-23T17:03:57.898Z</time></trkpt><trkpt lat="31.37373" lon="-5.8768233"><ele>1514.0</ele><time>2026-04-23T17:03:58.898Z</time></trkpt><trkpt lat="31.3737867" lon="-5.87705"><ele>1514.3333333333335</ele><time>2026-04-23T17:03:59.898Z</time></trkpt><trkpt lat="31.3738417" lon="-5.8772767"><ele>1514.6666666666667</ele><time>2026-04-23T17:04:00.898Z</time></trkpt><trkpt lat="31.3738967" lon="-5.877505"><ele>1515.0</ele><time>2026-04-23T17:04:01.898Z</time></trkpt><trkpt lat="31.3739567" lon="-5.877735"><ele>1515.3333333333333</ele><time>2026-04-23T17:04:02.897Z</time></trkpt><trkpt lat="31.3740133" lon="-5.87796"><ele>1515.6666666666665</ele><time>2026-04-23T17:04:03.897Z</time></trkpt><trkpt lat="31.3740767" lon="-5.8781883"><ele>1516.0</ele><time>2026-04-23T17:04:04.898Z</time></trkpt><trkpt lat="31.3741367" lon="-5.8784183"><ele>1516.6666666666665</ele><time>2026-04-23T17:04:05.897Z</time></trkpt><trkpt lat="31.3742" lon="-5.87865"><ele>1517.3333333333333</ele><time>2026-04-23T17:04:06.898Z</time></trkpt><trkpt lat="31.3742617" lon="-5.87888"><ele>1518.0</ele><time>2026-04-23T17:04:07.898Z</time></trkpt><trkpt lat="31.3743183" lon="-5.87911"><ele>1517.6666666666667</ele><time>2026-04-23T17:04:08.898Z</time></trkpt><trkpt lat="31.3743817" lon="-5.8793367"><ele>1517.3333333333335</ele><time>2026-04-23T17:04:09.898Z</time></trkpt><trkpt lat="31.37444" lon="-5.8795633"><ele>1517.0</ele><time>2026-04-23T17:04:10.898Z</time></trkpt><trkpt lat="31.3745033" lon="-5.8797933"><ele>1517.0</ele><time>2026-04-23T17:04:11.898Z</time></trkpt><trkpt lat="31.3745683" lon="-5.8800217"><ele>1517.0</ele><time>2026-04-23T17:04:12.898Z</time></trkpt><trkpt lat="31.3746283" lon="-5.8802517"><ele>1517.0</ele><time>2026-04-23T17:04:13.898Z</time></trkpt><trkpt lat="31.374685" lon="-5.8804867"><ele>1518.0</ele><time>2026-04-23T17:04:14.898Z</time></trkpt><trkpt lat="31.3747433" lon="-5.8807183"><ele>1519.0</ele><time>2026-04-23T17:04:15.898Z</time></trkpt><trkpt lat="31.3748017" lon="-5.880945"><ele>1520.0</ele><time>2026-04-23T17:04:16.898Z</time></trkpt><trkpt lat="31.374865" lon="-5.8811667"><ele>1520.3333333333335</ele><time>2026-04-23T17:04:17.898Z</time></trkpt><trkpt lat="31.374925" lon="-5.8813883"><ele>1520.6666666666667</ele><time>2026-04-23T17:04:18.898Z</time></trkpt><trkpt lat="31.3749817" lon="-5.88161"><ele>1521.0</ele><time>2026-04-23T17:04:19.898Z</time></trkpt><trkpt lat="31.37504" lon="-5.88183"><ele>1521.0</ele><time>2026-04-23T17:04:20.898Z</time></trkpt><trkpt lat="31.3750967" lon="-5.8820467"><ele>1521.0</ele><time>2026-04-23T17:04:21.898Z</time></trkpt><trkpt lat="31.3751517" lon="-5.8822567"><ele>1521.0</ele><time>2026-04-23T17:04:22.898Z</time></trkpt><trkpt lat="31.3752033" lon="-5.8824583"><ele>1522.0</ele><time>2026-04-23T17:04:23.897Z</time></trkpt><trkpt lat="31.37525" lon="-5.8826483"><ele>1523.0</ele><time>2026-04-23T17:04:24.898Z</time></trkpt><trkpt lat="31.3753" lon="-5.8828367"><ele>1524.0</ele><time>2026-04-23T17:04:25.898Z</time></trkpt><trkpt lat="31.3753517" lon="-5.88303"><ele>1524.0</ele><time>2026-04-23T17:04:26.897Z</time></trkpt><trkpt lat="31.375405" lon="-5.88323"><ele>1524.0</ele><time>2026-04-23T17:04:27.898Z</time></trkpt><trkpt lat="31.3754483" lon="-5.8834383"><ele>1524.0</ele><time>2026-04-23T17:04:28.898Z</time></trkpt><trkpt lat="31.3754883" lon="-5.8836567"><ele>1524.0</ele><time>2026-04-23T17:04:29.897Z</time></trkpt><trkpt lat="31.3755317" lon="-5.883885"><ele>1524.0</ele><time>2026-04-23T17:04:30.898Z</time></trkpt><trkpt lat="31.3755667" lon="-5.8841233"><ele>1524.0</ele><time>2026-04-23T17:04:31.898Z</time></trkpt><trkpt lat="31.375585" lon="-5.8843683"><ele>1524.0</ele><time>2026-04-23T17:04:32.898Z</time></trkpt><trkpt lat="31.3756067" lon="-5.88461"><ele>1524.0</ele><time>2026-04-23T17:04:33.898Z</time></trkpt><trkpt lat="31.3756" lon="-5.8848467"><ele>1524.0</ele><time>2026-04-23T17:04:34.897Z</time></trkpt><trkpt lat="31.3755733" lon="-5.8850933"><ele>1524.5</ele><time>2026-04-23T17:04:35.897Z</time></trkpt><trkpt lat="31.3755267" lon="-5.8853483"><ele>1525.0</ele><time>2026-04-23T17:04:36.898Z</time></trkpt><trkpt lat="31.3754583" lon="-5.885605"><ele>1525.0</ele><time>2026-04-23T17:04:37.898Z</time></trkpt><trkpt lat="31.3753683" lon="-5.8858567"><ele>1525.0</ele><time>2026-04-23T17:04:38.897Z</time></trkpt><trkpt lat="31.3752667" lon="-5.8861067"><ele>1525.0</ele><time>2026-04-23T17:04:39.898Z</time></trkpt><trkpt lat="31.3751583" lon="-5.8863483"><ele>1525.0</ele><time>2026-04-23T17:04:40.897Z</time></trkpt><trkpt lat="31.375045" lon="-5.886595"><ele>1525.5</ele><time>2026-04-23T17:04:41.897Z</time></trkpt><trkpt lat="31.37493" lon="-5.88683"><ele>1526.0</ele><time>2026-04-23T17:04:42.897Z</time></trkpt><trkpt lat="31.374825" lon="-5.88706"><ele>1526.0</ele><time>2026-04-23T17:04:43.898Z</time></trkpt><trkpt lat="31.3747183" lon="-5.8872917"><ele>1526.0</ele><time>2026-04-23T17:04:44.898Z</time></trkpt><trkpt lat="31.37461" lon="-5.88752"><ele>1526.0</ele><time>2026-04-23T17:04:45.898Z</time></trkpt><trkpt lat="31.3745" lon="-5.887745"><ele>1526.6666666666667</ele><time>2026-04-23T17:04:46.898Z</time></trkpt><trkpt lat="31.3743933" lon="-5.8879717"><ele>1527.3333333333333</ele><time>2026-04-23T17:04:47.898Z</time></trkpt><trkpt lat="31.374285" lon="-5.888205"><ele>1528.0</ele><time>2026-04-23T17:04:48.898Z</time></trkpt><trkpt lat="31.3741767" lon="-5.8884367"><ele>1528.0</ele><time>2026-04-23T17:04:49.898Z</time></trkpt><trkpt lat="31.374065" lon="-5.8886767"><ele>1528.0</ele><time>2026-04-23T17:04:50.898Z</time></trkpt><trkpt lat="31.3739533" lon="-5.8889083"><ele>1528.5</ele><time>2026-04-23T17:04:51.898Z</time></trkpt><trkpt lat="31.3738433" lon="-5.889145"><ele>1529.0</ele><time>2026-04-23T17:04:52.898Z</time></trkpt><trkpt lat="31.3737233" lon="-5.8893767"><ele>1529.5</ele><time>2026-04-23T17:04:53.897Z</time></trkpt><trkpt lat="31.3736117" lon="-5.889605"><ele>1530.0</ele><time>2026-04-23T17:04:54.898Z</time></trkpt><trkpt lat="31.3735" lon="-5.889835"><ele>1530.0</ele><time>2026-04-23T17:04:55.898Z</time></trkpt><trkpt lat="31.3733883" lon="-5.8900767"><ele>1530.0</ele><time>2026-04-23T17:04:56.898Z</time></trkpt><trkpt lat="31.3732767" lon="-5.8903133"><ele>1530.5</ele><time>2026-04-23T17:04:57.898Z</time></trkpt><trkpt lat="31.3731617" lon="-5.890555"><ele>1531.0</ele><time>2026-04-23T17:04:58.898Z</time></trkpt><trkpt lat="31.3730467" lon="-5.8907933"><ele>1530.5</ele><time>2026-04-23T17:04:59.897Z</time></trkpt><trkpt lat="31.372935" lon="-5.8910317"><ele>1530.0</ele><time>2026-04-23T17:05:00.898Z</time></trkpt><trkpt lat="31.3728217" lon="-5.8912667"><ele>1530.0</ele><time>2026-04-23T17:05:01.898Z</time></trkpt><trkpt lat="31.37271" lon="-5.8915033"><ele>1530.0</ele><time>2026-04-23T17:05:02.898Z</time></trkpt><trkpt lat="31.3726" lon="-5.8917383"><ele>1531.0</ele><time>2026-04-23T17:05:03.897Z</time></trkpt><trkpt lat="31.372485" lon="-5.8919633"><ele>1532.0</ele><time>2026-04-23T17:05:04.897Z</time></trkpt><trkpt lat="31.372375" lon="-5.8921967"><ele>1532.0</ele><time>2026-04-23T17:05:05.898Z</time></trkpt><trkpt lat="31.3722667" lon="-5.8924283"><ele>1532.0</ele><time>2026-04-23T17:05:06.897Z</time></trkpt><trkpt lat="31.3721583" lon="-5.8926683"><ele>1531.5</ele><time>2026-04-23T17:05:07.897Z</time></trkpt><trkpt lat="31.3720483" lon="-5.8929017"><ele>1531.0</ele><time>2026-04-23T17:05:08.897Z</time></trkpt><trkpt lat="31.3719417" lon="-5.8931317"><ele>1531.0</ele><time>2026-04-23T17:05:09.898Z</time></trkpt><trkpt lat="31.3718317" lon="-5.8933617"><ele>1531.0</ele><time>2026-04-23T17:05:10.897Z</time></trkpt><trkpt lat="31.3717183" lon="-5.8935867"><ele>1531.0</ele><time>2026-04-23T17:05:11.898Z</time></trkpt><trkpt lat="31.3716117" lon="-5.8938117"><ele>1532.0</ele><time>2026-04-23T17:05:12.898Z</time></trkpt><trkpt lat="31.3715017" lon="-5.8940383"><ele>1533.0</ele><time>2026-04-23T17:05:13.897Z</time></trkpt><trkpt lat="31.371395" lon="-5.894275"><ele>1533.5</ele><time>2026-04-23T17:05:14.898Z</time></trkpt><trkpt lat="31.3712833" lon="-5.8945067"><ele>1534.0</ele><time>2026-04-23T17:05:15.897Z</time></trkpt><trkpt lat="31.37117" lon="-5.8947417"><ele>1534.0</ele><time>2026-04-23T17:05:16.898Z</time></trkpt><trkpt lat="31.3710583" lon="-5.8949767"><ele>1534.0</ele><time>2026-04-23T17:05:17.898Z</time></trkpt><trkpt lat="31.3709483" lon="-5.8952117"><ele>1534.0</ele><time>2026-04-23T17:05:18.898Z</time></trkpt><trkpt lat="31.370835" lon="-5.8954483"><ele>1534.0</ele><time>2026-04-23T17:05:19.897Z</time></trkpt><trkpt lat="31.37072" lon="-5.8956883"><ele>1533.5</ele><time>2026-04-23T17:05:20.898Z</time></trkpt><trkpt lat="31.3706083" lon="-5.8959233"><ele>1533.0</ele><time>2026-04-23T17:05:21.898Z</time></trkpt><trkpt lat="31.3705033" lon="-5.8961517"><ele>1533.0</ele><time>2026-04-23T17:05:22.897Z</time></trkpt><trkpt lat="31.3703967" lon="-5.896375"><ele>1533.0</ele><time>2026-04-23T17:05:23.898Z</time></trkpt><trkpt lat="31.3702817" lon="-5.8965967"><ele>1533.0</ele><time>2026-04-23T17:05:24.897Z</time></trkpt><trkpt lat="31.370175" lon="-5.8968283"><ele>1532.5</ele><time>2026-04-23T17:05:25.898Z</time></trkpt><trkpt lat="31.3700633" lon="-5.897055"><ele>1532.0</ele><time>2026-04-23T17:05:26.898Z</time></trkpt><trkpt lat="31.3699467" lon="-5.8972867"><ele>1532.0</ele><time>2026-04-23T17:05:27.897Z</time></trkpt><trkpt lat="31.3698367" lon="-5.8975183"><ele>1532.0</ele><time>2026-04-23T17:05:28.898Z</time></trkpt><trkpt lat="31.36973" lon="-5.8977417"><ele>1532.0</ele><time>2026-04-23T17:05:29.897Z</time></trkpt><trkpt lat="31.3696233" lon="-5.897965"><ele>1532.0</ele><time>2026-04-23T17:05:30.898Z</time></trkpt><trkpt lat="31.3695183" lon="-5.8981883"><ele>1532.0</ele><time>2026-04-23T17:05:31.898Z</time></trkpt><trkpt lat="31.36941" lon="-5.8984133"><ele>1532.0</ele><time>2026-04-23T17:05:32.897Z</time></trkpt><trkpt lat="31.369305" lon="-5.8986367"><ele>1532.3333333333335</ele><time>2026-04-23T17:05:33.898Z</time></trkpt><trkpt lat="31.3692" lon="-5.89886"><ele>1532.6666666666667</ele><time>2026-04-23T17:05:34.898Z</time></trkpt><trkpt lat="31.3690967" lon="-5.899085"><ele>1533.0</ele><time>2026-04-23T17:05:35.898Z</time></trkpt><trkpt lat="31.3689883" lon="-5.8993083"><ele>1533.0</ele><time>2026-04-23T17:05:36.898Z</time></trkpt><trkpt lat="31.36888" lon="-5.8995283"><ele>1533.0</ele><time>2026-04-23T17:05:37.898Z</time></trkpt><trkpt lat="31.368775" lon="-5.899755"><ele>1533.0</ele><time>2026-04-23T17:05:38.897Z</time></trkpt><trkpt lat="31.3686733" lon="-5.8999767"><ele>1532.6666666666667</ele><time>2026-04-23T17:05:39.898Z</time></trkpt><trkpt lat="31.3685733" lon="-5.900205"><ele>1532.3333333333335</ele><time>2026-04-23T17:05:40.897Z</time></trkpt><trkpt lat="31.3684633" lon="-5.90043"><ele>1532.0</ele><time>2026-04-23T17:05:41.897Z</time></trkpt><trkpt lat="31.368355" lon="-5.90065"><ele>1532.0</ele><time>2026-04-23T17:05:42.898Z</time></trkpt><trkpt lat="31.3682467" lon="-5.9008683"><ele>1532.0</ele><time>2026-04-23T17:05:43.898Z</time></trkpt><trkpt lat="31.36814" lon="-5.9010917"><ele>1532.0</ele><time>2026-04-23T17:05:44.898Z</time></trkpt><trkpt lat="31.3680333" lon="-5.90132"><ele>1532.6666666666667</ele><time>2026-04-23T17:05:45.898Z</time></trkpt><trkpt lat="31.3679233" lon="-5.9015483"><ele>1533.3333333333333</ele><time>2026-04-23T17:05:46.898Z</time></trkpt><trkpt lat="31.3678133" lon="-5.9017767"><ele>1534.0</ele><time>2026-04-23T17:05:47.898Z</time></trkpt><trkpt lat="31.3677067" lon="-5.9020017"><ele>1534.0</ele><time>2026-04-23T17:05:48.898Z</time></trkpt><trkpt lat="31.3676017" lon="-5.902225"><ele>1534.0</ele><time>2026-04-23T17:05:49.897Z</time></trkpt><trkpt lat="31.367495" lon="-5.902455"><ele>1534.0</ele><time>2026-04-23T17:05:50.897Z</time></trkpt><trkpt lat="31.3673833" lon="-5.9026883"><ele>1534.0</ele><time>2026-04-23T17:05:51.898Z</time></trkpt><trkpt lat="31.3672733" lon="-5.9029217"><ele>1534.0</ele><time>2026-04-23T17:05:52.898Z</time></trkpt><trkpt lat="31.367155" lon="-5.9031583"><ele>1534.0</ele><time>2026-04-23T17:05:53.898Z</time></trkpt><trkpt lat="31.3670417" lon="-5.9033983"><ele>1534.0</ele><time>2026-04-23T17:05:54.898Z</time></trkpt><trkpt lat="31.36693" lon="-5.903635"><ele>1535.0</ele><time>2026-04-23T17:05:55.898Z</time></trkpt><trkpt lat="31.3668167" lon="-5.9038717"><ele>1536.0</ele><time>2026-04-23T17:05:56.898Z</time></trkpt><trkpt lat="31.3667017" lon="-5.9041083"><ele>1537.0</ele><time>2026-04-23T17:05:57.898Z</time></trkpt><trkpt lat="31.3665883" lon="-5.9043467"><ele>1538.0</ele><time>2026-04-23T17:05:58.898Z</time></trkpt><trkpt lat="31.36648" lon="-5.9045833"><ele>1538.0</ele><time>2026-04-23T17:05:59.898Z</time></trkpt><trkpt lat="31.3663733" lon="-5.9048167"><ele>1538.0</ele><time>2026-04-23T17:06:00.897Z</time></trkpt><trkpt lat="31.3662667" lon="-5.9050517"><ele>1538.6666666666665</ele><time>2026-04-23T17:06:01.898Z</time></trkpt><trkpt lat="31.3661633" lon="-5.9052833"><ele>1539.3333333333335</ele><time>2026-04-23T17:06:02.898Z</time></trkpt><trkpt lat="31.36606" lon="-5.9055083"><ele>1540.0</ele><time>2026-04-23T17:06:03.897Z</time></trkpt><trkpt lat="31.3659567" lon="-5.90573"><ele>1540.6666666666667</ele><time>2026-04-23T17:06:04.898Z</time></trkpt><trkpt lat="31.3658483" lon="-5.9059483"><ele>1541.3333333333335</ele><time>2026-04-23T17:06:05.898Z</time></trkpt><trkpt lat="31.365745" lon="-5.906165"><ele>1542.0</ele><time>2026-04-23T17:06:06.898Z</time></trkpt><trkpt lat="31.3656417" lon="-5.9063783"><ele>1542.0</ele><time>2026-04-23T17:06:07.898Z</time></trkpt><trkpt lat="31.3655367" lon="-5.9065983"><ele>1542.0</ele><time>2026-04-23T17:06:08.898Z</time></trkpt><trkpt lat="31.3654333" lon="-5.906815"><ele>1542.0</ele><time>2026-04-23T17:06:09.898Z</time></trkpt><trkpt lat="31.3653317" lon="-5.90703"><ele>1543.3333333333335</ele><time>2026-04-23T17:06:10.897Z</time></trkpt><trkpt lat="31.3652367" lon="-5.9072417"><ele>1544.6666666666667</ele><time>2026-04-23T17:06:11.898Z</time></trkpt><trkpt lat="31.365135" lon="-5.907455"><ele>1546.0</ele><time>2026-04-23T17:06:12.898Z</time></trkpt><trkpt lat="31.365035" lon="-5.90767"><ele>1547.0</ele><time>2026-04-23T17:06:13.898Z</time></trkpt><trkpt lat="31.36493" lon="-5.9078833"><ele>1548.0</ele><time>2026-04-23T17:06:14.898Z</time></trkpt><trkpt lat="31.3648267" lon="-5.9080933"><ele>1549.0</ele><time>2026-04-23T17:06:15.898Z</time></trkpt><trkpt lat="31.364725" lon="-5.9083067"><ele>1549.6666666666667</ele><time>2026-04-23T17:06:16.898Z</time></trkpt><trkpt lat="31.3646283" lon="-5.908525"><ele>1550.3333333333335</ele><time>2026-04-23T17:06:17.898Z</time></trkpt><trkpt lat="31.364535" lon="-5.9087517"><ele>1551.0</ele><time>2026-04-23T17:06:18.898Z</time></trkpt><trkpt lat="31.364455" lon="-5.90899"><ele>1551.0</ele><time>2026-04-23T17:06:19.897Z</time></trkpt><trkpt lat="31.3643767" lon="-5.9092283"><ele>1551.0</ele><time>2026-04-23T17:06:20.898Z</time></trkpt><trkpt lat="31.3643067" lon="-5.9094733"><ele>1551.0</ele><time>2026-04-23T17:06:21.898Z</time></trkpt><trkpt lat="31.364245" lon="-5.9097283"><ele>1551.5</ele><time>2026-04-23T17:06:22.898Z</time></trkpt><trkpt lat="31.364195" lon="-5.909985"><ele>1552.0</ele><time>2026-04-23T17:06:23.898Z</time></trkpt><trkpt lat="31.36416" lon="-5.910245"><ele>1552.0</ele><time>2026-04-23T17:06:24.898Z</time></trkpt><trkpt lat="31.3641367" lon="-5.91051"><ele>1552.0</ele><time>2026-04-23T17:06:25.898Z</time></trkpt><trkpt lat="31.364115" lon="-5.910785"><ele>1551.0</ele><time>2026-04-23T17:06:26.898Z</time></trkpt><trkpt lat="31.3641033" lon="-5.9110667"><ele>1550.0</ele><time>2026-04-23T17:06:27.898Z</time></trkpt><trkpt lat="31.3641017" lon="-5.9113467"><ele>1550.0</ele><time>2026-04-23T17:06:28.898Z</time></trkpt><trkpt lat="31.3641033" lon="-5.9116267"><ele>1550.0</ele><time>2026-04-23T17:06:29.898Z</time></trkpt><trkpt lat="31.36411" lon="-5.9118967"><ele>1551.5</ele><time>2026-04-23T17:06:30.898Z</time></trkpt><trkpt lat="31.36412" lon="-5.912165"><ele>1553.0</ele><time>2026-04-23T17:06:31.898Z</time></trkpt><trkpt lat="31.3641367" lon="-5.9124333"><ele>1553.0</ele><time>2026-04-23T17:06:32.897Z</time></trkpt><trkpt lat="31.36415" lon="-5.9127"><ele>1553.0</ele><time>2026-04-23T17:06:33.897Z</time></trkpt><trkpt lat="31.364165" lon="-5.9129567"><ele>1553.0</ele><time>2026-04-23T17:06:34.898Z</time></trkpt><trkpt lat="31.3641733" lon="-5.91322"><ele>1552.3333333333333</ele><time>2026-04-23T17:06:35.898Z</time></trkpt><trkpt lat="31.3641817" lon="-5.9134767"><ele>1551.6666666666665</ele><time>2026-04-23T17:06:36.898Z</time></trkpt><trkpt lat="31.3641967" lon="-5.91373"><ele>1551.0</ele><time>2026-04-23T17:06:37.898Z</time></trkpt><trkpt lat="31.36421" lon="-5.91398"><ele>1551.0</ele><time>2026-04-23T17:06:38.898Z</time></trkpt><trkpt lat="31.364225" lon="-5.9142333"><ele>1551.0</ele><time>2026-04-23T17:06:39.898Z</time></trkpt><trkpt lat="31.36424" lon="-5.9144867"><ele>1551.0</ele><time>2026-04-23T17:06:40.897Z</time></trkpt><trkpt lat="31.3642583" lon="-5.91474"><ele>1550.6666666666665</ele><time>2026-04-23T17:06:41.898Z</time></trkpt><trkpt lat="31.3642683" lon="-5.9149983"><ele>1550.3333333333333</ele><time>2026-04-23T17:06:42.898Z</time></trkpt><trkpt lat="31.3642783" lon="-5.9152617"><ele>1550.0</ele><time>2026-04-23T17:06:43.898Z</time></trkpt><trkpt lat="31.3642883" lon="-5.9155283"><ele>1551.5</ele><time>2026-04-23T17:06:44.898Z</time></trkpt><trkpt lat="31.3643017" lon="-5.9157967"><ele>1553.0</ele><time>2026-04-23T17:06:45.898Z</time></trkpt><trkpt lat="31.3643117" lon="-5.9160683"><ele>1553.0</ele><time>2026-04-23T17:06:46.897Z</time></trkpt><trkpt lat="31.3643233" lon="-5.916335"><ele>1553.0</ele><time>2026-04-23T17:06:47.897Z</time></trkpt><trkpt lat="31.3643367" lon="-5.9165867"><ele>1553.0</ele><time>2026-04-23T17:06:48.898Z</time></trkpt><trkpt lat="31.3643533" lon="-5.9168417"><ele>1552.3333333333333</ele><time>2026-04-23T17:06:49.897Z</time></trkpt><trkpt lat="31.36437" lon="-5.9170967"><ele>1551.6666666666665</ele><time>2026-04-23T17:06:50.897Z</time></trkpt><trkpt lat="31.3643817" lon="-5.9173417"><ele>1551.0</ele><time>2026-04-23T17:06:51.897Z</time></trkpt><trkpt lat="31.3643967" lon="-5.9175717"><ele>1551.0</ele><time>2026-04-23T17:06:52.898Z</time></trkpt><trkpt lat="31.3644133" lon="-5.9178"><ele>1551.0</ele><time>2026-04-23T17:06:53.898Z</time></trkpt><trkpt lat="31.3644267" lon="-5.91801"><ele>1551.0</ele><time>2026-04-23T17:06:54.898Z</time></trkpt><trkpt lat="31.36444" lon="-5.9182033"><ele>1551.0</ele><time>2026-04-23T17:06:55.898Z</time></trkpt><trkpt lat="31.3644533" lon="-5.9183833"><ele>1551.0</ele><time>2026-04-23T17:06:56.897Z</time></trkpt><trkpt lat="31.3644617" lon="-5.9185617"><ele>1551.0</ele><time>2026-04-23T17:06:57.897Z</time></trkpt><trkpt lat="31.3644717" lon="-5.91874"><ele>1551.6666666666665</ele><time>2026-04-23T17:06:58.898Z</time></trkpt><trkpt lat="31.3644783" lon="-5.9189117"><ele>1552.3333333333333</ele><time>2026-04-23T17:06:59.898Z</time></trkpt><trkpt lat="31.3644833" lon="-5.9190917"><ele>1553.0</ele><time>2026-04-23T17:07:00.898Z</time></trkpt><trkpt lat="31.3644867" lon="-5.9192883"><ele>1553.0</ele><time>2026-04-23T17:07:01.897Z</time></trkpt><trkpt lat="31.3644917" lon="-5.9195033"><ele>1553.0</ele><time>2026-04-23T17:07:02.898Z</time></trkpt><trkpt lat="31.364505" lon="-5.9197433"><ele>1553.0</ele><time>2026-04-23T17:07:03.897Z</time></trkpt><trkpt lat="31.364515" lon="-5.9200033"><ele>1552.0</ele><time>2026-04-23T17:07:04.897Z</time></trkpt><trkpt lat="31.3645233" lon="-5.9202733"><ele>1551.0</ele><time>2026-04-23T17:07:05.898Z</time></trkpt><trkpt lat="31.3645367" lon="-5.92055"><ele>1551.0</ele><time>2026-04-23T17:07:06.897Z</time></trkpt><trkpt lat="31.3645533" lon="-5.9208333"><ele>1551.0</ele><time>2026-04-23T17:07:07.898Z</time></trkpt><trkpt lat="31.3645717" lon="-5.9211283"><ele>1552.5</ele><time>2026-04-23T17:07:08.898Z</time></trkpt><trkpt lat="31.3645933" lon="-5.9214233"><ele>1554.0</ele><time>2026-04-23T17:07:09.898Z</time></trkpt><trkpt lat="31.3646117" lon="-5.92173"><ele>1554.5</ele><time>2026-04-23T17:07:10.898Z</time></trkpt><trkpt lat="31.36463" lon="-5.9220383"><ele>1555.0</ele><time>2026-04-23T17:07:11.898Z</time></trkpt><trkpt lat="31.3646433" lon="-5.922345"><ele>1555.0</ele><time>2026-04-23T17:07:12.898Z</time></trkpt><trkpt lat="31.364655" lon="-5.9226383"><ele>1555.0</ele><time>2026-04-23T17:07:13.897Z</time></trkpt><trkpt lat="31.3646667" lon="-5.9229283"><ele>1555.0</ele><time>2026-04-23T17:07:14.897Z</time></trkpt><trkpt lat="31.3646767" lon="-5.923205"><ele>1555.0</ele><time>2026-04-23T17:07:15.898Z</time></trkpt><trkpt lat="31.36469" lon="-5.92348"><ele>1556.0</ele><time>2026-04-23T17:07:16.897Z</time></trkpt><trkpt lat="31.3647017" lon="-5.9237533"><ele>1557.0</ele><time>2026-04-23T17:07:17.898Z</time></trkpt><trkpt lat="31.364715" lon="-5.9240233"><ele>1556.6666666666665</ele><time>2026-04-23T17:07:18.897Z</time></trkpt><trkpt lat="31.3647283" lon="-5.92429"><ele>1556.3333333333333</ele><time>2026-04-23T17:07:19.898Z</time></trkpt><trkpt lat="31.36474" lon="-5.9245483"><ele>1556.0</ele><time>2026-04-23T17:07:20.897Z</time></trkpt><trkpt lat="31.364755" lon="-5.9248"><ele>1556.0</ele><time>2026-04-23T17:07:21.898Z</time></trkpt><trkpt lat="31.3647717" lon="-5.9250517"><ele>1556.0</ele><time>2026-04-23T17:07:22.897Z</time></trkpt><trkpt lat="31.36478" lon="-5.9253"><ele>1556.0</ele><time>2026-04-23T17:07:23.898Z</time></trkpt><trkpt lat="31.3647967" lon="-5.9255467"><ele>1556.0</ele><time>2026-04-23T17:07:24.897Z</time></trkpt><trkpt lat="31.3648083" lon="-5.9258"><ele>1556.0</ele><time>2026-04-23T17:07:25.897Z</time></trkpt><trkpt lat="31.36482" lon="-5.92605"><ele>1556.0</ele><time>2026-04-23T17:07:26.898Z</time></trkpt><trkpt lat="31.364835" lon="-5.9263017"><ele>1555.6666666666665</ele><time>2026-04-23T17:07:27.897Z</time></trkpt><trkpt lat="31.36485" lon="-5.9265533"><ele>1555.3333333333335</ele><time>2026-04-23T17:07:28.898Z</time></trkpt><trkpt lat="31.364865" lon="-5.9267983"><ele>1555.0</ele><time>2026-04-23T17:07:29.898Z</time></trkpt><trkpt lat="31.3648783" lon="-5.9270517"><ele>1555.3333333333335</ele><time>2026-04-23T17:07:30.898Z</time></trkpt><trkpt lat="31.3648867" lon="-5.9273033"><ele>1555.6666666666665</ele><time>2026-04-23T17:07:31.898Z</time></trkpt><trkpt lat="31.3648967" lon="-5.92756"><ele>1556.0</ele><time>2026-04-23T17:07:32.897Z</time></trkpt><trkpt lat="31.3649067" lon="-5.9278117"><ele>1556.0</ele><time>2026-04-23T17:07:33.897Z</time></trkpt><trkpt lat="31.36492" lon="-5.9280617"><ele>1556.0</ele><time>2026-04-23T17:07:34.898Z</time></trkpt><trkpt lat="31.364935" lon="-5.9283133"><ele>1556.0</ele><time>2026-04-23T17:07:35.897Z</time></trkpt><trkpt lat="31.36495" lon="-5.928565"><ele>1555.6666666666665</ele><time>2026-04-23T17:07:36.898Z</time></trkpt><trkpt lat="31.364965" lon="-5.9288083"><ele>1555.3333333333335</ele><time>2026-04-23T17:07:37.897Z</time></trkpt><trkpt lat="31.3649767" lon="-5.9290583"><ele>1555.0</ele><time>2026-04-23T17:07:38.898Z</time></trkpt><trkpt lat="31.3649867" lon="-5.9293083"><ele>1555.0</ele><time>2026-04-23T17:07:39.897Z</time></trkpt><trkpt lat="31.365005" lon="-5.929555"><ele>1555.0</ele><time>2026-04-23T17:07:40.898Z</time></trkpt><trkpt lat="31.36502" lon="-5.9297967"><ele>1555.0</ele><time>2026-04-23T17:07:41.898Z</time></trkpt><trkpt lat="31.3650333" lon="-5.9300333"><ele>1555.3333333333335</ele><time>2026-04-23T17:07:42.898Z</time></trkpt><trkpt lat="31.365045" lon="-5.930265"><ele>1555.6666666666665</ele><time>2026-04-23T17:07:43.898Z</time></trkpt><trkpt lat="31.365055" lon="-5.930495"><ele>1556.0</ele><time>2026-04-23T17:07:44.897Z</time></trkpt><trkpt lat="31.365065" lon="-5.93072"><ele>1556.3333333333333</ele><time>2026-04-23T17:07:45.898Z</time></trkpt><trkpt lat="31.3650767" lon="-5.9309467"><ele>1556.6666666666665</ele><time>2026-04-23T17:07:46.897Z</time></trkpt><trkpt lat="31.3650883" lon="-5.9311717"><ele>1557.0</ele><time>2026-04-23T17:07:47.898Z</time></trkpt><trkpt lat="31.3650967" lon="-5.9314033"><ele>1557.0</ele><time>2026-04-23T17:07:48.897Z</time></trkpt><trkpt lat="31.36511" lon="-5.93164"><ele>1557.0</ele><time>2026-04-23T17:07:49.898Z</time></trkpt><trkpt lat="31.3651217" lon="-5.9318767"><ele>1557.0</ele><time>2026-04-23T17:07:50.898Z</time></trkpt><trkpt lat="31.3651317" lon="-5.9321117"><ele>1557.3333333333335</ele><time>2026-04-23T17:07:51.897Z</time></trkpt><trkpt lat="31.3651467" lon="-5.932355"><ele>1557.6666666666667</ele><time>2026-04-23T17:07:52.898Z</time></trkpt><trkpt lat="31.36516" lon="-5.932595"><ele>1558.0</ele><time>2026-04-23T17:07:53.898Z</time></trkpt><trkpt lat="31.3651717" lon="-5.9328433"><ele>1557.3333333333335</ele><time>2026-04-23T17:07:54.898Z</time></trkpt><trkpt lat="31.36519" lon="-5.9330983"><ele>1556.6666666666665</ele><time>2026-04-23T17:07:55.898Z</time></trkpt><trkpt lat="31.3652" lon="-5.93335"><ele>1556.0</ele><time>2026-04-23T17:07:56.897Z</time></trkpt><trkpt lat="31.3652067" lon="-5.9336017"><ele>1556.0</ele><time>2026-04-23T17:07:57.898Z</time></trkpt><trkpt lat="31.3652183" lon="-5.9338533"><ele>1556.0</ele><time>2026-04-23T17:07:58.898Z</time></trkpt><trkpt lat="31.3652367" lon="-5.934095"><ele>1556.0</ele><time>2026-04-23T17:07:59.898Z</time></trkpt><trkpt lat="31.36525" lon="-5.9343333"><ele>1556.0</ele><time>2026-04-23T17:08:00.897Z</time></trkpt><trkpt lat="31.365265" lon="-5.934575"><ele>1556.0</ele><time>2026-04-23T17:08:01.898Z</time></trkpt><trkpt lat="31.3652783" lon="-5.9348217"><ele>1556.0</ele><time>2026-04-23T17:08:02.898Z</time></trkpt><trkpt lat="31.3652917" lon="-5.93507"><ele>1555.6666666666665</ele><time>2026-04-23T17:08:03.898Z</time></trkpt><trkpt lat="31.3653" lon="-5.9353167"><ele>1555.3333333333335</ele><time>2026-04-23T17:08:04.897Z</time></trkpt><trkpt lat="31.36531" lon="-5.9355667"><ele>1555.0</ele><time>2026-04-23T17:08:05.897Z</time></trkpt><trkpt lat="31.365325" lon="-5.9358117"><ele>1554.0</ele><time>2026-04-23T17:08:06.898Z</time></trkpt><trkpt lat="31.36534" lon="-5.9360567"><ele>1553.0</ele><time>2026-04-23T17:08:07.897Z</time></trkpt><trkpt lat="31.3653533" lon="-5.936295"><ele>1552.0</ele><time>2026-04-23T17:08:08.898Z</time></trkpt><trkpt lat="31.3653667" lon="-5.9365383"><ele>1552.6666666666667</ele><time>2026-04-23T17:08:09.898Z</time></trkpt><trkpt lat="31.3653767" lon="-5.9367817"><ele>1553.3333333333335</ele><time>2026-04-23T17:08:10.897Z</time></trkpt><trkpt lat="31.36539" lon="-5.9370183"><ele>1554.0</ele><time>2026-04-23T17:08:11.898Z</time></trkpt><trkpt lat="31.3654017" lon="-5.9372567"><ele>1554.0</ele><time>2026-04-23T17:08:12.898Z</time></trkpt><trkpt lat="31.3654183" lon="-5.937495"><ele>1554.0</ele><time>2026-04-23T17:08:13.898Z</time></trkpt><trkpt lat="31.3654267" lon="-5.9377317"><ele>1554.0</ele><time>2026-04-23T17:08:14.897Z</time></trkpt><trkpt lat="31.3654383" lon="-5.9379667"><ele>1554.6666666666665</ele><time>2026-04-23T17:08:15.898Z</time></trkpt><trkpt lat="31.3654467" lon="-5.9382033"><ele>1555.3333333333333</ele><time>2026-04-23T17:08:16.897Z</time></trkpt><trkpt lat="31.3654583" lon="-5.9384417"><ele>1556.0</ele><time>2026-04-23T17:08:17.898Z</time></trkpt><trkpt lat="31.3654733" lon="-5.9386783"><ele>1556.0</ele><time>2026-04-23T17:08:18.898Z</time></trkpt><trkpt lat="31.36549" lon="-5.9389167"><ele>1556.0</ele><time>2026-04-23T17:08:19.898Z</time></trkpt><trkpt lat="31.3655033" lon="-5.939155"><ele>1556.0</ele><time>2026-04-23T17:08:20.898Z</time></trkpt><trkpt lat="31.36551" lon="-5.9393917"><ele>1556.6666666666665</ele><time>2026-04-23T17:08:21.898Z</time></trkpt><trkpt lat="31.3655233" lon="-5.93963"><ele>1557.3333333333335</ele><time>2026-04-23T17:08:22.898Z</time></trkpt><trkpt lat="31.3655367" lon="-5.9398717"><ele>1558.0</ele><time>2026-04-23T17:08:23.898Z</time></trkpt><trkpt lat="31.3655467" lon="-5.9401133"><ele>1558.6666666666667</ele><time>2026-04-23T17:08:24.898Z</time></trkpt><trkpt lat="31.3655583" lon="-5.940355"><ele>1559.3333333333335</ele><time>2026-04-23T17:08:25.898Z</time></trkpt><trkpt lat="31.3655683" lon="-5.9405917"><ele>1560.0</ele><time>2026-04-23T17:08:26.898Z</time></trkpt><trkpt lat="31.365585" lon="-5.9408367"><ele>1560.0</ele><time>2026-04-23T17:08:27.898Z</time></trkpt><trkpt lat="31.3655983" lon="-5.941075"><ele>1560.0</ele><time>2026-04-23T17:08:28.897Z</time></trkpt><trkpt lat="31.36561" lon="-5.94132"><ele>1560.0</ele><time>2026-04-23T17:08:29.897Z</time></trkpt><trkpt lat="31.3656217" lon="-5.9415617"><ele>1560.0</ele><time>2026-04-23T17:08:30.898Z</time></trkpt><trkpt lat="31.365635" lon="-5.9418017"><ele>1560.0</ele><time>2026-04-23T17:08:31.897Z</time></trkpt><trkpt lat="31.3656483" lon="-5.942045"><ele>1560.0</ele><time>2026-04-23T17:08:32.897Z</time></trkpt><trkpt lat="31.3656617" lon="-5.9422833"><ele>1560.0</ele><time>2026-04-23T17:08:33.898Z</time></trkpt><trkpt lat="31.365675" lon="-5.9425217"><ele>1560.0</ele><time>2026-04-23T17:08:34.897Z</time></trkpt><trkpt lat="31.3656917" lon="-5.9427533"><ele>1560.0</ele><time>2026-04-23T17:08:35.898Z</time></trkpt><trkpt lat="31.365705" lon="-5.9429817"><ele>1560.0</ele><time>2026-04-23T17:08:36.898Z</time></trkpt><trkpt lat="31.3657167" lon="-5.9432117"><ele>1560.0</ele><time>2026-04-23T17:08:37.898Z</time></trkpt><trkpt lat="31.3657183" lon="-5.9434533"><ele>1560.0</ele><time>2026-04-23T17:08:38.898Z</time></trkpt><trkpt lat="31.3657267" lon="-5.94368"><ele>1560.0</ele><time>2026-04-23T17:08:39.898Z</time></trkpt><trkpt lat="31.3657383" lon="-5.9439117"><ele>1560.0</ele><time>2026-04-23T17:08:40.898Z</time></trkpt><trkpt lat="31.36575" lon="-5.9441467"><ele>1560.0</ele><time>2026-04-23T17:08:41.898Z</time></trkpt><trkpt lat="31.3657633" lon="-5.94438"><ele>1559.6666666666665</ele><time>2026-04-23T17:08:42.898Z</time></trkpt><trkpt lat="31.3657817" lon="-5.944615"><ele>1559.3333333333333</ele><time>2026-04-23T17:08:43.897Z</time></trkpt><trkpt lat="31.3657967" lon="-5.9448517"><ele>1559.0</ele><time>2026-04-23T17:08:44.898Z</time></trkpt><trkpt lat="31.3658117" lon="-5.9450883"><ele>1560.3333333333333</ele><time>2026-04-23T17:08:45.898Z</time></trkpt><trkpt lat="31.36582" lon="-5.9453283"><ele>1561.6666666666665</ele><time>2026-04-23T17:08:46.897Z</time></trkpt><trkpt lat="31.3658333" lon="-5.9455667"><ele>1563.0</ele><time>2026-04-23T17:08:47.897Z</time></trkpt><trkpt lat="31.3658433" lon="-5.945805"><ele>1562.6666666666665</ele><time>2026-04-23T17:08:48.897Z</time></trkpt><trkpt lat="31.3658583" lon="-5.9460367"><ele>1562.3333333333333</ele><time>2026-04-23T17:08:49.898Z</time></trkpt><trkpt lat="31.3658717" lon="-5.9462633"><ele>1562.0</ele><time>2026-04-23T17:08:50.898Z</time></trkpt><trkpt lat="31.3658833" lon="-5.94648"><ele>1562.0</ele><time>2026-04-23T17:08:51.897Z</time></trkpt><trkpt lat="31.3658967" lon="-5.9466883"><ele>1562.0</ele><time>2026-04-23T17:08:52.897Z</time></trkpt><trkpt lat="31.3659083" lon="-5.9468967"><ele>1562.0</ele><time>2026-04-23T17:08:53.898Z</time></trkpt><trkpt lat="31.3659183" lon="-5.94711"><ele>1562.6666666666665</ele><time>2026-04-23T17:08:54.897Z</time></trkpt><trkpt lat="31.3659317" lon="-5.9473233"><ele>1563.3333333333335</ele><time>2026-04-23T17:08:55.898Z</time></trkpt><trkpt lat="31.3659267" lon="-5.9475433"><ele>1564.0</ele><time>2026-04-23T17:08:56.897Z</time></trkpt><trkpt lat="31.3659383" lon="-5.94776"><ele>1564.0</ele><time>2026-04-23T17:08:57.898Z</time></trkpt><trkpt lat="31.3659417" lon="-5.9479833"><ele>1564.0</ele><time>2026-04-23T17:08:58.898Z</time></trkpt><trkpt lat="31.36595" lon="-5.948205"><ele>1564.0</ele><time>2026-04-23T17:08:59.898Z</time></trkpt><trkpt lat="31.365965" lon="-5.948435"><ele>1563.6666666666667</ele><time>2026-04-23T17:09:00.898Z</time></trkpt><trkpt lat="31.36598" lon="-5.948665"><ele>1563.3333333333335</ele><time>2026-04-23T17:09:01.898Z</time></trkpt><trkpt lat="31.365995" lon="-5.9488983"><ele>1563.0</ele><time>2026-04-23T17:09:02.898Z</time></trkpt><trkpt lat="31.3660117" lon="-5.9491367"><ele>1563.6666666666665</ele><time>2026-04-23T17:09:03.897Z</time></trkpt><trkpt lat="31.366025" lon="-5.9493833"><ele>1564.3333333333333</ele><time>2026-04-23T17:09:04.898Z</time></trkpt><trkpt lat="31.3660383" lon="-5.9496183"><ele>1565.0</ele><time>2026-04-23T17:09:05.897Z</time></trkpt><trkpt lat="31.3660483" lon="-5.949855"><ele>1564.6666666666665</ele><time>2026-04-23T17:09:06.897Z</time></trkpt><trkpt lat="31.3660583" lon="-5.9501"><ele>1564.3333333333335</ele><time>2026-04-23T17:09:07.898Z</time></trkpt><trkpt lat="31.36607" lon="-5.9503433"><ele>1564.0</ele><time>2026-04-23T17:09:08.898Z</time></trkpt><trkpt lat="31.36608" lon="-5.9505883"><ele>1564.0</ele><time>2026-04-23T17:09:09.898Z</time></trkpt><trkpt lat="31.36609" lon="-5.9508317"><ele>1564.0</ele><time>2026-04-23T17:09:10.898Z</time></trkpt><trkpt lat="31.366105" lon="-5.9510617"><ele>1564.0</ele><time>2026-04-23T17:09:11.898Z</time></trkpt><trkpt lat="31.366115" lon="-5.95129"><ele>1564.0</ele><time>2026-04-23T17:09:12.898Z</time></trkpt><trkpt lat="31.36613" lon="-5.9515233"><ele>1564.0</ele><time>2026-04-23T17:09:13.898Z</time></trkpt><trkpt lat="31.3661433" lon="-5.9517583"><ele>1564.0</ele><time>2026-04-23T17:09:14.898Z</time></trkpt><trkpt lat="31.3661533" lon="-5.9519917"><ele>1564.0</ele><time>2026-04-23T17:09:15.898Z</time></trkpt><trkpt lat="31.366165" lon="-5.9522233"><ele>1564.0</ele><time>2026-04-23T17:09:16.897Z</time></trkpt><trkpt lat="31.366175" lon="-5.9524533"><ele>1564.0</ele><time>2026-04-23T17:09:17.897Z</time></trkpt><trkpt lat="31.3661883" lon="-5.9526767"><ele>1563.6666666666667</ele><time>2026-04-23T17:09:18.898Z</time></trkpt><trkpt lat="31.3662017" lon="-5.9528983"><ele>1563.3333333333335</ele><time>2026-04-23T17:09:19.898Z</time></trkpt><trkpt lat="31.3662133" lon="-5.9531117"><ele>1563.0</ele><time>2026-04-23T17:09:20.898Z</time></trkpt><trkpt lat="31.3662267" lon="-5.9533333"><ele>1562.6666666666665</ele><time>2026-04-23T17:09:21.898Z</time></trkpt><trkpt lat="31.36624" lon="-5.9535533"><ele>1562.3333333333333</ele><time>2026-04-23T17:09:22.898Z</time></trkpt><trkpt lat="31.3662483" lon="-5.9537717"><ele>1562.0</ele><time>2026-04-23T17:09:23.897Z</time></trkpt><trkpt lat="31.366265" lon="-5.9540017"><ele>1562.6666666666665</ele><time>2026-04-23T17:09:24.898Z</time></trkpt><trkpt lat="31.3662767" lon="-5.9542333"><ele>1563.3333333333335</ele><time>2026-04-23T17:09:25.897Z</time></trkpt><trkpt lat="31.36629" lon="-5.9544667"><ele>1564.0</ele><time>2026-04-23T17:09:26.898Z</time></trkpt><trkpt lat="31.3662983" lon="-5.9547083"><ele>1564.0</ele><time>2026-04-23T17:09:27.898Z</time></trkpt><trkpt lat="31.3663083" lon="-5.9549617"><ele>1564.0</ele><time>2026-04-23T17:09:28.898Z</time></trkpt><trkpt lat="31.3663133" lon="-5.9552217"><ele>1564.0</ele><time>2026-04-23T17:09:29.898Z</time></trkpt><trkpt lat="31.3663233" lon="-5.9554833"><ele>1564.0</ele><time>2026-04-23T17:09:30.898Z</time></trkpt><trkpt lat="31.36633" lon="-5.9557633"><ele>1564.0</ele><time>2026-04-23T17:09:31.898Z</time></trkpt><trkpt lat="31.36634" lon="-5.9560417"><ele>1564.0</ele><time>2026-04-23T17:09:32.898Z</time></trkpt><trkpt lat="31.3663533" lon="-5.9563233"><ele>1564.0</ele><time>2026-04-23T17:09:33.898Z</time></trkpt><trkpt lat="31.3663667" lon="-5.95661"><ele>1566.0</ele><time>2026-04-23T17:09:34.898Z</time></trkpt><trkpt lat="31.366385" lon="-5.9569017"><ele>1568.0</ele><time>2026-04-23T17:09:35.897Z</time></trkpt><trkpt lat="31.3664017" lon="-5.957195"><ele>1568.0</ele><time>2026-04-23T17:09:36.898Z</time></trkpt><trkpt lat="31.3664217" lon="-5.9574867"><ele>1568.0</ele><time>2026-04-23T17:09:37.898Z</time></trkpt><trkpt lat="31.3664333" lon="-5.9577867"><ele>1567.0</ele><time>2026-04-23T17:09:38.898Z</time></trkpt><trkpt lat="31.3664517" lon="-5.9580883"><ele>1566.0</ele><time>2026-04-23T17:09:39.898Z</time></trkpt><trkpt lat="31.3664683" lon="-5.9583967"><ele>1565.5</ele><time>2026-04-23T17:09:40.898Z</time></trkpt><trkpt lat="31.3664833" lon="-5.9587033"><ele>1565.0</ele><time>2026-04-23T17:09:41.898Z</time></trkpt><trkpt lat="31.3664983" lon="-5.9589883"><ele>1564.0</ele><time>2026-04-23T17:09:42.898Z</time></trkpt><trkpt lat="31.3665167" lon="-5.959265"><ele>1563.0</ele><time>2026-04-23T17:09:43.898Z</time></trkpt><trkpt lat="31.3665383" lon="-5.9595333"><ele>1563.0</ele><time>2026-04-23T17:09:44.897Z</time></trkpt><trkpt lat="31.3665583" lon="-5.9597867"><ele>1563.0</ele><time>2026-04-23T17:09:45.898Z</time></trkpt><trkpt lat="31.3665717" lon="-5.9600333"><ele>1563.0</ele><time>2026-04-23T17:09:46.898Z</time></trkpt><trkpt lat="31.366585" lon="-5.9602867"><ele>1563.3333333333335</ele><time>2026-04-23T17:09:47.898Z</time></trkpt><trkpt lat="31.3666" lon="-5.9605367"><ele>1563.6666666666667</ele><time>2026-04-23T17:09:48.897Z</time></trkpt><trkpt lat="31.3666133" lon="-5.9607833"><ele>1564.0</ele><time>2026-04-23T17:09:49.897Z</time></trkpt><trkpt lat="31.3666267" lon="-5.9610283"><ele>1564.6666666666667</ele><time>2026-04-23T17:09:50.898Z</time></trkpt><trkpt lat="31.36664" lon="-5.96127"><ele>1565.3333333333335</ele><time>2026-04-23T17:09:51.897Z</time></trkpt><trkpt lat="31.366655" lon="-5.9615117"><ele>1566.0</ele><time>2026-04-23T17:09:52.898Z</time></trkpt><trkpt lat="31.3666667" lon="-5.961755"><ele>1566.6666666666665</ele><time>2026-04-23T17:09:53.898Z</time></trkpt><trkpt lat="31.3666783" lon="-5.9619967"><ele>1567.3333333333333</ele><time>2026-04-23T17:09:54.898Z</time></trkpt><trkpt lat="31.3666867" lon="-5.9622433"><ele>1568.0</ele><time>2026-04-23T17:09:55.898Z</time></trkpt><trkpt lat="31.3667" lon="-5.9624867"><ele>1568.0</ele><time>2026-04-23T17:09:56.898Z</time></trkpt><trkpt lat="31.3667133" lon="-5.9627317"><ele>1568.0</ele><time>2026-04-23T17:09:57.898Z</time></trkpt><trkpt lat="31.3667267" lon="-5.9629767"><ele>1568.0</ele><time>2026-04-23T17:09:58.898Z</time></trkpt><trkpt lat="31.3667383" lon="-5.9632133"><ele>1567.6666666666665</ele><time>2026-04-23T17:09:59.897Z</time></trkpt><trkpt lat="31.36675" lon="-5.963445"><ele>1567.3333333333335</ele><time>2026-04-23T17:10:00.897Z</time></trkpt><trkpt lat="31.3667617" lon="-5.9636767"><ele>1567.0</ele><time>2026-04-23T17:10:01.898Z</time></trkpt><trkpt lat="31.3667717" lon="-5.963905"><ele>1567.0</ele><time>2026-04-23T17:10:02.897Z</time></trkpt><trkpt lat="31.3667817" lon="-5.964135"><ele>1567.0</ele><time>2026-04-23T17:10:03.898Z</time></trkpt><trkpt lat="31.3667933" lon="-5.9643667"><ele>1567.0</ele><time>2026-04-23T17:10:04.897Z</time></trkpt><trkpt lat="31.366805" lon="-5.9645833"><ele>1567.3333333333335</ele><time>2026-04-23T17:10:05.897Z</time></trkpt><trkpt lat="31.3668217" lon="-5.964795"><ele>1567.6666666666665</ele><time>2026-04-23T17:10:06.898Z</time></trkpt><trkpt lat="31.36683" lon="-5.9650017"><ele>1568.0</ele><time>2026-04-23T17:10:07.897Z</time></trkpt><trkpt lat="31.3668433" lon="-5.96521"><ele>1568.3333333333333</ele><time>2026-04-23T17:10:08.898Z</time></trkpt><trkpt lat="31.3668517" lon="-5.9654167"><ele>1568.6666666666665</ele><time>2026-04-23T17:10:09.897Z</time></trkpt><trkpt lat="31.3668617" lon="-5.96562"><ele>1569.0</ele><time>2026-04-23T17:10:10.898Z</time></trkpt><trkpt lat="31.3668683" lon="-5.965825"><ele>1568.6666666666665</ele><time>2026-04-23T17:10:11.898Z</time></trkpt><trkpt lat="31.36688" lon="-5.9660217"><ele>1568.3333333333333</ele><time>2026-04-23T17:10:12.898Z</time></trkpt><trkpt lat="31.36689" lon="-5.9662017"><ele>1568.0</ele><time>2026-04-23T17:10:13.898Z</time></trkpt><trkpt lat="31.3669" lon="-5.9663667"><ele>1568.0</ele><time>2026-04-23T17:10:14.898Z</time></trkpt><trkpt lat="31.3669083" lon="-5.9665217"><ele>1568.0</ele><time>2026-04-23T17:10:15.898Z</time></trkpt><trkpt lat="31.36692" lon="-5.9666717"><ele>1568.0</ele><time>2026-04-23T17:10:16.898Z</time></trkpt><trkpt lat="31.3669283" lon="-5.96682"><ele>1568.0</ele><time>2026-04-23T17:10:17.897Z</time></trkpt><trkpt lat="31.3669367" lon="-5.9669683"><ele>1568.0</ele><time>2026-04-23T17:10:18.897Z</time></trkpt><trkpt lat="31.3669433" lon="-5.9671183"><ele>1568.0</ele><time>2026-04-23T17:10:19.898Z</time></trkpt><trkpt lat="31.3669533" lon="-5.9672733"><ele>1568.0</ele><time>2026-04-23T17:10:20.898Z</time></trkpt><trkpt lat="31.3669617" lon="-5.9674317"><ele>1568.0</ele><time>2026-04-23T17:10:21.898Z</time></trkpt><trkpt lat="31.3669667" lon="-5.9675917"><ele>1568.25</ele><time>2026-04-23T17:10:22.897Z</time></trkpt><trkpt lat="31.3669717" lon="-5.967755"><ele>1568.5</ele><time>2026-04-23T17:10:23.897Z</time></trkpt><trkpt lat="31.3669783" lon="-5.9679217"><ele>1568.75</ele><time>2026-04-23T17:10:24.898Z</time></trkpt><trkpt lat="31.366985" lon="-5.9680917"><ele>1569.0</ele><time>2026-04-23T17:10:25.897Z</time></trkpt><trkpt lat="31.36699" lon="-5.9682683"><ele>1568.6666666666665</ele><time>2026-04-23T17:10:26.898Z</time></trkpt><trkpt lat="31.3670017" lon="-5.9684467"><ele>1568.3333333333333</ele><time>2026-04-23T17:10:27.897Z</time></trkpt><trkpt lat="31.36701" lon="-5.9686333"><ele>1568.0</ele><time>2026-04-23T17:10:28.898Z</time></trkpt><trkpt lat="31.3670267" lon="-5.968825"><ele>1568.0</ele><time>2026-04-23T17:10:29.898Z</time></trkpt><trkpt lat="31.3670433" lon="-5.9690183"><ele>1568.0</ele><time>2026-04-23T17:10:30.898Z</time></trkpt><trkpt lat="31.3670517" lon="-5.9692167"><ele>1568.0</ele><time>2026-04-23T17:10:31.898Z</time></trkpt><trkpt lat="31.3670567" lon="-5.9694167"><ele>1567.6666666666665</ele><time>2026-04-23T17:10:32.898Z</time></trkpt><trkpt lat="31.3670667" lon="-5.9696133"><ele>1567.3333333333335</ele><time>2026-04-23T17:10:33.897Z</time></trkpt><trkpt lat="31.367075" lon="-5.969815"><ele>1567.0</ele><time>2026-04-23T17:10:34.898Z</time></trkpt><trkpt lat="31.3670883" lon="-5.9700183"><ele>1566.6666666666667</ele><time>2026-04-23T17:10:35.898Z</time></trkpt><trkpt lat="31.3670983" lon="-5.9702183"><ele>1566.3333333333335</ele><time>2026-04-23T17:10:36.898Z</time></trkpt><trkpt lat="31.367105" lon="-5.9704183"><ele>1566.0</ele><time>2026-04-23T17:10:37.897Z</time></trkpt><trkpt lat="31.367115" lon="-5.9706217"><ele>1566.0</ele><time>2026-04-23T17:10:38.898Z</time></trkpt><trkpt lat="31.3671217" lon="-5.9708267"><ele>1566.0</ele><time>2026-04-23T17:10:39.898Z</time></trkpt><trkpt lat="31.3671317" lon="-5.9710283"><ele>1566.0</ele><time>2026-04-23T17:10:40.898Z</time></trkpt><trkpt lat="31.36714" lon="-5.97123"><ele>1566.3333333333335</ele><time>2026-04-23T17:10:41.897Z</time></trkpt><trkpt lat="31.3671533" lon="-5.9714283"><ele>1566.6666666666667</ele><time>2026-04-23T17:10:42.897Z</time></trkpt><trkpt lat="31.367165" lon="-5.9716317"><ele>1567.0</ele><time>2026-04-23T17:10:43.898Z</time></trkpt><trkpt lat="31.3671733" lon="-5.97183"><ele>1567.6666666666667</ele><time>2026-04-23T17:10:44.898Z</time></trkpt><trkpt lat="31.3671783" lon="-5.9720317"><ele>1568.3333333333335</ele><time>2026-04-23T17:10:45.898Z</time></trkpt><trkpt lat="31.3671867" lon="-5.9722317"><ele>1569.0</ele><time>2026-04-23T17:10:46.897Z</time></trkpt><trkpt lat="31.3671967" lon="-5.9724333"><ele>1569.6666666666665</ele><time>2026-04-23T17:10:47.897Z</time></trkpt><trkpt lat="31.3672133" lon="-5.9726367"><ele>1570.3333333333333</ele><time>2026-04-23T17:10:48.897Z</time></trkpt><trkpt lat="31.367225" lon="-5.972835"><ele>1571.0</ele><time>2026-04-23T17:10:49.898Z</time></trkpt><trkpt lat="31.3672383" lon="-5.9730283"><ele>1571.0</ele><time>2026-04-23T17:10:50.898Z</time></trkpt><trkpt lat="31.3672467" lon="-5.9732233"><ele>1571.0</ele><time>2026-04-23T17:10:51.897Z</time></trkpt><trkpt lat="31.3672517" lon="-5.9734183"><ele>1571.0</ele><time>2026-04-23T17:10:52.897Z</time></trkpt><trkpt lat="31.36726" lon="-5.9736167"><ele>1570.6666666666665</ele><time>2026-04-23T17:10:53.898Z</time></trkpt><trkpt lat="31.3672667" lon="-5.9738117"><ele>1570.3333333333335</ele><time>2026-04-23T17:10:54.898Z</time></trkpt><trkpt lat="31.367275" lon="-5.9740033"><ele>1570.0</ele><time>2026-04-23T17:10:55.898Z</time></trkpt><trkpt lat="31.3672867" lon="-5.974195"><ele>1571.3333333333335</ele><time>2026-04-23T17:10:56.898Z</time></trkpt><trkpt lat="31.3673017" lon="-5.974385"><ele>1572.6666666666665</ele><time>2026-04-23T17:10:57.897Z</time></trkpt><trkpt lat="31.36731" lon="-5.9745767"><ele>1574.0</ele><time>2026-04-23T17:10:58.898Z</time></trkpt><trkpt lat="31.36732" lon="-5.974765"><ele>1574.0</ele><time>2026-04-23T17:10:59.898Z</time></trkpt><trkpt lat="31.3673333" lon="-5.9749583"><ele>1574.0</ele><time>2026-04-23T17:11:00.898Z</time></trkpt><trkpt lat="31.3673467" lon="-5.9751583"><ele>1574.0</ele><time>2026-04-23T17:11:01.898Z</time></trkpt><trkpt lat="31.36736" lon="-5.9753583"><ele>1574.0</ele><time>2026-04-23T17:11:02.898Z</time></trkpt><trkpt lat="31.3673733" lon="-5.9755633"><ele>1574.0</ele><time>2026-04-23T17:11:03.897Z</time></trkpt><trkpt lat="31.3673817" lon="-5.9757667"><ele>1574.0</ele><time>2026-04-23T17:11:04.898Z</time></trkpt><trkpt lat="31.3673983" lon="-5.9759717"><ele>1574.0</ele><time>2026-04-23T17:11:05.898Z</time></trkpt><trkpt lat="31.3674083" lon="-5.9761833"><ele>1574.0</ele><time>2026-04-23T17:11:06.898Z</time></trkpt><trkpt lat="31.3674183" lon="-5.97639"><ele>1574.0</ele><time>2026-04-23T17:11:07.898Z</time></trkpt><trkpt lat="31.3674283" lon="-5.9766"><ele>1574.0</ele><time>2026-04-23T17:11:08.898Z</time></trkpt><trkpt lat="31.367435" lon="-5.9768083"><ele>1574.0</ele><time>2026-04-23T17:11:09.898Z</time></trkpt><trkpt lat="31.3674383" lon="-5.977015"><ele>1574.0</ele><time>2026-04-23T17:11:10.898Z</time></trkpt><trkpt lat="31.36745" lon="-5.9772167"><ele>1574.0</ele><time>2026-04-23T17:11:11.898Z</time></trkpt><trkpt lat="31.36746" lon="-5.9774217"><ele>1574.0</ele><time>2026-04-23T17:11:12.898Z</time></trkpt><trkpt lat="31.3674717" lon="-5.9776283"><ele>1574.0</ele><time>2026-04-23T17:11:13.898Z</time></trkpt><trkpt lat="31.3674833" lon="-5.9778367"><ele>1574.6666666666665</ele><time>2026-04-23T17:11:14.898Z</time></trkpt><trkpt lat="31.3674883" lon="-5.9780467"><ele>1575.3333333333335</ele><time>2026-04-23T17:11:15.898Z</time></trkpt><trkpt lat="31.3674983" lon="-5.9782617"><ele>1576.0</ele><time>2026-04-23T17:11:16.898Z</time></trkpt><trkpt lat="31.3675067" lon="-5.97848"><ele>1577.0</ele><time>2026-04-23T17:11:17.898Z</time></trkpt><trkpt lat="31.3675183" lon="-5.978695"><ele>1578.0</ele><time>2026-04-23T17:11:18.897Z</time></trkpt><trkpt lat="31.36753" lon="-5.9788983"><ele>1579.0</ele><time>2026-04-23T17:11:19.898Z</time></trkpt><trkpt lat="31.3675383" lon="-5.9790933"><ele>1579.3333333333335</ele><time>2026-04-23T17:11:20.898Z</time></trkpt><trkpt lat="31.36755" lon="-5.9792933"><ele>1579.6666666666665</ele><time>2026-04-23T17:11:21.898Z</time></trkpt><trkpt lat="31.3675533" lon="-5.9794917"><ele>1580.0</ele><time>2026-04-23T17:11:22.898Z</time></trkpt><trkpt lat="31.3675633" lon="-5.9796867"><ele>1580.0</ele><time>2026-04-23T17:11:23.898Z</time></trkpt><trkpt lat="31.367575" lon="-5.97988"><ele>1580.0</ele><time>2026-04-23T17:11:24.898Z</time></trkpt><trkpt lat="31.3675867" lon="-5.980075"><ele>1580.0</ele><time>2026-04-23T17:11:25.898Z</time></trkpt><trkpt lat="31.3675967" lon="-5.9802683"><ele>1581.6666666666665</ele><time>2026-04-23T17:11:26.898Z</time></trkpt><trkpt lat="31.3676117" lon="-5.9804583"><ele>1583.3333333333335</ele><time>2026-04-23T17:11:27.898Z</time></trkpt><trkpt lat="31.3676233" lon="-5.9806383"><ele>1585.0</ele><time>2026-04-23T17:11:28.898Z</time></trkpt><trkpt lat="31.3676367" lon="-5.9808183"><ele>1584.3333333333335</ele><time>2026-04-23T17:11:29.898Z</time></trkpt><trkpt lat="31.367645" lon="-5.9809967"><ele>1583.6666666666665</ele><time>2026-04-23T17:11:30.898Z</time></trkpt><trkpt lat="31.3676517" lon="-5.981175"><ele>1583.0</ele><time>2026-04-23T17:11:31.898Z</time></trkpt><trkpt lat="31.3676633" lon="-5.9813533"><ele>1583.0</ele><time>2026-04-23T17:11:32.898Z</time></trkpt><trkpt lat="31.3676767" lon="-5.981525"><ele>1583.0</ele><time>2026-04-23T17:11:33.897Z</time></trkpt><trkpt lat="31.3676883" lon="-5.9816833"><ele>1583.0</ele><time>2026-04-23T17:11:34.898Z</time></trkpt><trkpt lat="31.3676933" lon="-5.981835"><ele>1583.0</ele><time>2026-04-23T17:11:35.898Z</time></trkpt><trkpt lat="31.3676983" lon="-5.9819833"><ele>1582.75</ele><time>2026-04-23T17:11:36.898Z</time></trkpt><trkpt lat="31.3677067" lon="-5.982125"><ele>1582.5</ele><time>2026-04-23T17:11:37.898Z</time></trkpt><trkpt lat="31.3677167" lon="-5.9822817"><ele>1582.25</ele><time>2026-04-23T17:11:38.898Z</time></trkpt><trkpt lat="31.3677217" lon="-5.9824417"><ele>1582.0</ele><time>2026-04-23T17:11:39.898Z</time></trkpt><trkpt lat="31.3677317" lon="-5.9826067"><ele>1582.0</ele><time>2026-04-23T17:11:40.897Z</time></trkpt><trkpt lat="31.3677467" lon="-5.9827683"><ele>1582.0</ele><time>2026-04-23T17:11:41.898Z</time></trkpt><trkpt lat="31.3677617" lon="-5.982915"><ele>1582.0</ele><time>2026-04-23T17:11:42.898Z</time></trkpt><trkpt lat="31.3677717" lon="-5.9830583"><ele>1582.0</ele><time>2026-04-23T17:11:43.898Z</time></trkpt><trkpt lat="31.3677733" lon="-5.9831717"><ele>1582.0000000000002</ele><time>2026-04-23T17:11:44.897Z</time></trkpt><trkpt lat="31.367755" lon="-5.9832467"><ele>1582.0</ele><time>2026-04-23T17:11:45.898Z</time></trkpt><trkpt lat="31.3676583" lon="-5.98332"><ele>1582.0</ele><time>2026-04-23T17:11:47.897Z</time></trkpt><trkpt lat="31.367585" lon="-5.983315"><ele>1582.0</ele><time>2026-04-23T17:11:48.898Z</time></trkpt><trkpt lat="31.367505" lon="-5.98328"><ele>1582.0000000000002</ele><time>2026-04-23T17:11:49.898Z</time></trkpt><trkpt lat="31.3674167" lon="-5.9832367"><ele>1582.0</ele><time>2026-04-23T17:11:50.897Z</time></trkpt><trkpt lat="31.3673117" lon="-5.9832067"><ele>1580.75</ele><time>2026-04-23T17:11:51.898Z</time></trkpt><trkpt lat="31.3671917" lon="-5.98318"><ele>1579.5</ele><time>2026-04-23T17:11:52.897Z</time></trkpt><trkpt lat="31.3670567" lon="-5.983155"><ele>1578.25</ele><time>2026-04-23T17:11:53.898Z</time></trkpt><trkpt lat="31.36691" lon="-5.9831317"><ele>1577.0</ele><time>2026-04-23T17:11:54.898Z</time></trkpt><trkpt lat="31.3667417" lon="-5.9831117"><ele>1577.0</ele><time>2026-04-23T17:11:55.898Z</time></trkpt><trkpt lat="31.36658" lon="-5.9830933"><ele>1577.0</ele><time>2026-04-23T17:11:56.897Z</time></trkpt><trkpt lat="31.3664133" lon="-5.9830733"><ele>1577.0</ele><time>2026-04-23T17:11:57.898Z</time></trkpt><trkpt lat="31.3662417" lon="-5.9830567"><ele>1577.6666666666665</ele><time>2026-04-23T17:11:58.898Z</time></trkpt><trkpt lat="31.3660733" lon="-5.9830417"><ele>1578.3333333333335</ele><time>2026-04-23T17:11:59.898Z</time></trkpt><trkpt lat="31.3659017" lon="-5.9830233"><ele>1579.0</ele><time>2026-04-23T17:12:00.897Z</time></trkpt><trkpt lat="31.3657317" lon="-5.983005"><ele>1579.0</ele><time>2026-04-23T17:12:01.898Z</time></trkpt><trkpt lat="31.3655533" lon="-5.982985"><ele>1579.0</ele><time>2026-04-23T17:12:02.898Z</time></trkpt><trkpt lat="31.3653783" lon="-5.982965"><ele>1579.0</ele><time>2026-04-23T17:12:03.898Z</time></trkpt><trkpt lat="31.3652017" lon="-5.9829533"><ele>1578.6666666666667</ele><time>2026-04-23T17:12:04.898Z</time></trkpt><trkpt lat="31.365025" lon="-5.9829417"><ele>1578.3333333333335</ele><time>2026-04-23T17:12:05.898Z</time></trkpt><trkpt lat="31.3648467" lon="-5.98293"><ele>1578.0</ele><time>2026-04-23T17:12:06.897Z</time></trkpt><trkpt lat="31.3646667" lon="-5.9829133"><ele>1576.3333333333335</ele><time>2026-04-23T17:12:07.898Z</time></trkpt><trkpt lat="31.364485" lon="-5.9829033"><ele>1574.6666666666667</ele><time>2026-04-23T17:12:08.898Z</time></trkpt><trkpt lat="31.3642983" lon="-5.9828883"><ele>1573.0</ele><time>2026-04-23T17:12:09.897Z</time></trkpt><trkpt lat="31.3641083" lon="-5.9828733"><ele>1573.0</ele><time>2026-04-23T17:12:10.897Z</time></trkpt><trkpt lat="31.3639217" lon="-5.9828567"><ele>1573.0</ele><time>2026-04-23T17:12:11.898Z</time></trkpt><trkpt lat="31.36373" lon="-5.9828383"><ele>1573.0</ele><time>2026-04-23T17:12:12.898Z</time></trkpt><trkpt lat="31.3635383" lon="-5.9828183"><ele>1573.0</ele><time>2026-04-23T17:12:13.897Z</time></trkpt><trkpt lat="31.3633517" lon="-5.9827933"><ele>1573.0</ele><time>2026-04-23T17:12:14.898Z</time></trkpt><trkpt lat="31.36317" lon="-5.9827717"><ele>1573.0</ele><time>2026-04-23T17:12:15.898Z</time></trkpt><trkpt lat="31.3629917" lon="-5.982755"><ele>1573.0</ele><time>2026-04-23T17:12:16.897Z</time></trkpt><trkpt lat="31.3628083" lon="-5.982745"><ele>1573.0</ele><time>2026-04-23T17:12:17.898Z</time></trkpt><trkpt lat="31.3626283" lon="-5.9827367"><ele>1573.0</ele><time>2026-04-23T17:12:18.898Z</time></trkpt><trkpt lat="31.3624483" lon="-5.9827217"><ele>1573.0</ele><time>2026-04-23T17:12:19.897Z</time></trkpt><trkpt lat="31.3622767" lon="-5.982705"><ele>1573.0</ele><time>2026-04-23T17:12:20.897Z</time></trkpt><trkpt lat="31.3620967" lon="-5.9826883"><ele>1573.0</ele><time>2026-04-23T17:12:21.897Z</time></trkpt><trkpt lat="31.36192" lon="-5.9826683"><ele>1574.0</ele><time>2026-04-23T17:12:22.897Z</time></trkpt><trkpt lat="31.3617467" lon="-5.9826517"><ele>1575.0</ele><time>2026-04-23T17:12:23.897Z</time></trkpt><trkpt lat="31.361575" lon="-5.9826367"><ele>1576.0</ele><time>2026-04-23T17:12:24.897Z</time></trkpt><trkpt lat="31.3614" lon="-5.9826283"><ele>1575.3333333333335</ele><time>2026-04-23T17:12:25.897Z</time></trkpt><trkpt lat="31.3612217" lon="-5.98261"><ele>1574.6666666666665</ele><time>2026-04-23T17:12:26.897Z</time></trkpt><trkpt lat="31.3610417" lon="-5.9825933"><ele>1574.0</ele><time>2026-04-23T17:12:27.896Z</time></trkpt><trkpt lat="31.3608517" lon="-5.982575"><ele>1574.0</ele><time>2026-04-23T17:12:28.896Z</time></trkpt><trkpt lat="31.3606683" lon="-5.9825583"><ele>1574.0</ele><time>2026-04-23T17:12:29.896Z</time></trkpt><trkpt lat="31.3604933" lon="-5.9825417"><ele>1574.0</ele><time>2026-04-23T17:12:30.897Z</time></trkpt><trkpt lat="31.3603233" lon="-5.9825317"><ele>1573.3333333333333</ele><time>2026-04-23T17:12:31.897Z</time></trkpt><trkpt lat="31.36016" lon="-5.9825183"><ele>1572.6666666666665</ele><time>2026-04-23T17:12:32.897Z</time></trkpt><trkpt lat="31.3599967" lon="-5.9825017"><ele>1572.0</ele><time>2026-04-23T17:12:33.896Z</time></trkpt><trkpt lat="31.35983" lon="-5.9824883"><ele>1571.6666666666665</ele><time>2026-04-23T17:12:34.897Z</time></trkpt><trkpt lat="31.3596633" lon="-5.9824717"><ele>1571.3333333333333</ele><time>2026-04-23T17:12:35.896Z</time></trkpt><trkpt lat="31.359495" lon="-5.98245"><ele>1571.0</ele><time>2026-04-23T17:12:36.897Z</time></trkpt><trkpt lat="31.3593217" lon="-5.9824317"><ele>1571.0</ele><time>2026-04-23T17:12:37.897Z</time></trkpt><trkpt lat="31.3591417" lon="-5.9824183"><ele>1571.0</ele><time>2026-04-23T17:12:38.896Z</time></trkpt><trkpt lat="31.358965" lon="-5.9824017"><ele>1571.0</ele><time>2026-04-23T17:12:39.897Z</time></trkpt><trkpt lat="31.35879" lon="-5.9823833"><ele>1571.0</ele><time>2026-04-23T17:12:40.897Z</time></trkpt><trkpt lat="31.3586217" lon="-5.9823783"><ele>1571.0</ele><time>2026-04-23T17:12:41.897Z</time></trkpt><trkpt lat="31.3584617" lon="-5.9823633"><ele>1571.0</ele><time>2026-04-23T17:12:42.897Z</time></trkpt><trkpt lat="31.3583083" lon="-5.9823467"><ele>1571.0</ele><time>2026-04-23T17:12:43.897Z</time></trkpt><trkpt lat="31.3581633" lon="-5.982335"><ele>1571.0</ele><time>2026-04-23T17:12:44.897Z</time></trkpt><trkpt lat="31.35803" lon="-5.9823217"><ele>1571.0</ele><time>2026-04-23T17:12:45.896Z</time></trkpt><trkpt lat="31.3579067" lon="-5.98231"><ele>1571.0</ele><time>2026-04-23T17:12:46.897Z</time></trkpt><trkpt lat="31.3577867" lon="-5.9822933"><ele>1570.5</ele><time>2026-04-23T17:12:47.897Z</time></trkpt><trkpt lat="31.3576683" lon="-5.9822833"><ele>1570.0</ele><time>2026-04-23T17:12:48.897Z</time></trkpt><trkpt lat="31.3575533" lon="-5.9822717"><ele>1569.5</ele><time>2026-04-23T17:12:49.897Z</time></trkpt><trkpt lat="31.35744" lon="-5.98227"><ele>1569.0</ele><time>2026-04-23T17:12:50.897Z</time></trkpt><trkpt lat="31.357325" lon="-5.9822683"><ele>1569.0</ele><time>2026-04-23T17:12:51.897Z</time></trkpt><trkpt lat="31.3572067" lon="-5.9822683"><ele>1569.0</ele><time>2026-04-23T17:12:52.897Z</time></trkpt><trkpt lat="31.3570817" lon="-5.9822717"><ele>1569.0</ele><time>2026-04-23T17:12:53.897Z</time></trkpt><trkpt lat="31.356955" lon="-5.982295"><ele>1569.0</ele><time>2026-04-23T17:12:54.897Z</time></trkpt><trkpt lat="31.3568383" lon="-5.9823333"><ele>1569.25</ele><time>2026-04-23T17:12:55.896Z</time></trkpt><trkpt lat="31.3567167" lon="-5.982395"><ele>1569.5</ele><time>2026-04-23T17:12:56.897Z</time></trkpt><trkpt lat="31.3565967" lon="-5.98247"><ele>1569.75</ele><time>2026-04-23T17:12:57.897Z</time></trkpt><trkpt lat="31.3564717" lon="-5.9825583"><ele>1570.0</ele><time>2026-04-23T17:12:58.897Z</time></trkpt><trkpt lat="31.3563433" lon="-5.9826567"><ele>1568.3333333333335</ele><time>2026-04-23T17:12:59.896Z</time></trkpt><trkpt lat="31.3562117" lon="-5.9827617"><ele>1566.6666666666665</ele><time>2026-04-23T17:13:00.897Z</time></trkpt><trkpt lat="31.3560667" lon="-5.9828733"><ele>1565.0</ele><time>2026-04-23T17:13:01.897Z</time></trkpt><trkpt lat="31.3559117" lon="-5.98299"><ele>1565.0</ele><time>2026-04-23T17:13:02.897Z</time></trkpt><trkpt lat="31.35575" lon="-5.983105"><ele>1565.0</ele><time>2026-04-23T17:13:03.896Z</time></trkpt><trkpt lat="31.3555917" lon="-5.983235"><ele>1565.0</ele><time>2026-04-23T17:13:04.897Z</time></trkpt><trkpt lat="31.3554233" lon="-5.9833683"><ele>1564.6666666666665</ele><time>2026-04-23T17:13:05.897Z</time></trkpt><trkpt lat="31.3552467" lon="-5.9835033"><ele>1564.3333333333335</ele><time>2026-04-23T17:13:06.897Z</time></trkpt><trkpt lat="31.3550633" lon="-5.9836417"><ele>1564.0</ele><time>2026-04-23T17:13:07.897Z</time></trkpt><trkpt lat="31.35487" lon="-5.983785"><ele>1563.5</ele><time>2026-04-23T17:13:08.896Z</time></trkpt><trkpt lat="31.3546783" lon="-5.9839317"><ele>1563.0</ele><time>2026-04-23T17:13:09.896Z</time></trkpt><trkpt lat="31.3544783" lon="-5.9840733"><ele>1564.5</ele><time>2026-04-23T17:13:10.896Z</time></trkpt><trkpt lat="31.3542783" lon="-5.9842217"><ele>1566.0</ele><time>2026-04-23T17:13:11.896Z</time></trkpt><trkpt lat="31.3540733" lon="-5.9843617"><ele>1566.0</ele><time>2026-04-23T17:13:12.897Z</time></trkpt><trkpt lat="31.353875" lon="-5.9845133"><ele>1566.0</ele><time>2026-04-23T17:13:13.897Z</time></trkpt><trkpt lat="31.3536783" lon="-5.9846733"><ele>1565.5</ele><time>2026-04-23T17:13:14.896Z</time></trkpt><trkpt lat="31.3534817" lon="-5.9848417"><ele>1565.0</ele><time>2026-04-23T17:13:15.897Z</time></trkpt><trkpt lat="31.35328" lon="-5.985005"><ele>1565.5</ele><time>2026-04-23T17:13:16.897Z</time></trkpt><trkpt lat="31.3530783" lon="-5.98516"><ele>1566.0</ele><time>2026-04-23T17:13:17.897Z</time></trkpt><trkpt lat="31.3528833" lon="-5.9853117"><ele>1566.0</ele><time>2026-04-23T17:13:18.896Z</time></trkpt><trkpt lat="31.3526933" lon="-5.9854467"><ele>1566.0</ele><time>2026-04-23T17:13:19.897Z</time></trkpt><trkpt lat="31.3525067" lon="-5.9855917"><ele>1566.0</ele><time>2026-04-23T17:13:20.897Z</time></trkpt><trkpt lat="31.3523117" lon="-5.9857233"><ele>1566.0</ele><time>2026-04-23T17:13:21.897Z</time></trkpt><trkpt lat="31.352105" lon="-5.985845"><ele>1566.0</ele><time>2026-04-23T17:13:22.896Z</time></trkpt><trkpt lat="31.3518883" lon="-5.9859533"><ele>1566.0</ele><time>2026-04-23T17:13:23.897Z</time></trkpt><trkpt lat="31.351665" lon="-5.9860483"><ele>1566.0</ele><time>2026-04-23T17:13:24.896Z</time></trkpt><trkpt lat="31.3514383" lon="-5.9861417"><ele>1564.5</ele><time>2026-04-23T17:13:25.897Z</time></trkpt><trkpt lat="31.35122" lon="-5.9862217"><ele>1563.0</ele><time>2026-04-23T17:13:26.897Z</time></trkpt><trkpt lat="31.3510117" lon="-5.9863083"><ele>1563.0</ele><time>2026-04-23T17:13:27.897Z</time></trkpt><trkpt lat="31.3508167" lon="-5.9863767"><ele>1563.0</ele><time>2026-04-23T17:13:28.896Z</time></trkpt><trkpt lat="31.3506267" lon="-5.9864467"><ele>1563.0</ele><time>2026-04-23T17:13:29.897Z</time></trkpt><trkpt lat="31.3504433" lon="-5.9865117"><ele>1563.0</ele><time>2026-04-23T17:13:30.897Z</time></trkpt><trkpt lat="31.3502633" lon="-5.986585"><ele>1563.0</ele><time>2026-04-23T17:13:31.897Z</time></trkpt><trkpt lat="31.350095" lon="-5.9866533"><ele>1563.0</ele><time>2026-04-23T17:13:32.896Z</time></trkpt><trkpt lat="31.3499317" lon="-5.9867233"><ele>1563.0</ele><time>2026-04-23T17:13:33.897Z</time></trkpt><trkpt lat="31.349765" lon="-5.9867917"><ele>1563.0</ele><time>2026-04-23T17:13:34.896Z</time></trkpt><trkpt lat="31.3496" lon="-5.986865"><ele>1563.0</ele><time>2026-04-23T17:13:35.897Z</time></trkpt><trkpt lat="31.349425" lon="-5.9869367"><ele>1563.3333333333335</ele><time>2026-04-23T17:13:36.896Z</time></trkpt><trkpt lat="31.34925" lon="-5.9870033"><ele>1563.6666666666667</ele><time>2026-04-23T17:13:37.896Z</time></trkpt><trkpt lat="31.34908" lon="-5.98708"><ele>1564.0</ele><time>2026-04-23T17:13:38.896Z</time></trkpt><trkpt lat="31.3489067" lon="-5.9871533"><ele>1563.3333333333335</ele><time>2026-04-23T17:13:39.897Z</time></trkpt><trkpt lat="31.3487217" lon="-5.9872367"><ele>1562.6666666666665</ele><time>2026-04-23T17:13:40.897Z</time></trkpt><trkpt lat="31.3485367" lon="-5.987315"><ele>1562.0</ele><time>2026-04-23T17:13:41.897Z</time></trkpt><trkpt lat="31.3483433" lon="-5.987395"><ele>1562.0</ele><time>2026-04-23T17:13:42.897Z</time></trkpt><trkpt lat="31.348145" lon="-5.987475"><ele>1562.0</ele><time>2026-04-23T17:13:43.896Z</time></trkpt><trkpt lat="31.3479467" lon="-5.98755"><ele>1562.0</ele><time>2026-04-23T17:13:44.897Z</time></trkpt><trkpt lat="31.34774" lon="-5.9876333"><ele>1561.3333333333333</ele><time>2026-04-23T17:13:45.896Z</time></trkpt><trkpt lat="31.34753" lon="-5.9877117"><ele>1560.6666666666665</ele><time>2026-04-23T17:13:46.896Z</time></trkpt><trkpt lat="31.3473183" lon="-5.98779"><ele>1560.0</ele><time>2026-04-23T17:13:47.896Z</time></trkpt><trkpt lat="31.3471083" lon="-5.9878667"><ele>1560.0</ele><time>2026-04-23T17:13:48.897Z</time></trkpt><trkpt lat="31.3469067" lon="-5.9879383"><ele>1560.0</ele><time>2026-04-23T17:13:49.897Z</time></trkpt><trkpt lat="31.3467067" lon="-5.9880083"><ele>1560.0</ele><time>2026-04-23T17:13:50.896Z</time></trkpt><trkpt lat="31.3465033" lon="-5.9880767"><ele>1559.6666666666665</ele><time>2026-04-23T17:13:51.897Z</time></trkpt><trkpt lat="31.3462983" lon="-5.988145"><ele>1559.3333333333333</ele><time>2026-04-23T17:13:52.897Z</time></trkpt><trkpt lat="31.3460933" lon="-5.9882183"><ele>1559.0</ele><time>2026-04-23T17:13:53.897Z</time></trkpt><trkpt lat="31.3458883" lon="-5.98829"><ele>1558.6666666666665</ele><time>2026-04-23T17:13:54.897Z</time></trkpt><trkpt lat="31.3456767" lon="-5.9883617"><ele>1558.3333333333335</ele><time>2026-04-23T17:13:55.897Z</time></trkpt><trkpt lat="31.3454667" lon="-5.988435"><ele>1558.0</ele><time>2026-04-23T17:13:56.897Z</time></trkpt><trkpt lat="31.345255" lon="-5.9885033"><ele>1558.0</ele><time>2026-04-23T17:13:57.897Z</time></trkpt><trkpt lat="31.3450383" lon="-5.9885717"><ele>1558.0</ele><time>2026-04-23T17:13:58.897Z</time></trkpt><trkpt lat="31.3448233" lon="-5.988645"><ele>1558.0</ele><time>2026-04-23T17:13:59.897Z</time></trkpt><trkpt lat="31.3446167" lon="-5.9887233"><ele>1558.0</ele><time>2026-04-23T17:14:00.896Z</time></trkpt><trkpt lat="31.344405" lon="-5.9888017"><ele>1558.0</ele><time>2026-04-23T17:14:01.897Z</time></trkpt><trkpt lat="31.3441883" lon="-5.988875"><ele>1558.0</ele><time>2026-04-23T17:14:02.897Z</time></trkpt><trkpt lat="31.3439683" lon="-5.98895"><ele>1557.0</ele><time>2026-04-23T17:14:03.897Z</time></trkpt><trkpt lat="31.34375" lon="-5.9890283"><ele>1556.0</ele><time>2026-04-23T17:14:04.897Z</time></trkpt><trkpt lat="31.3435317" lon="-5.9891033"><ele>1556.0</ele><time>2026-04-23T17:14:05.897Z</time></trkpt><trkpt lat="31.3433083" lon="-5.9891733"><ele>1556.0</ele><time>2026-04-23T17:14:06.897Z</time></trkpt><trkpt lat="31.343085" lon="-5.98925"><ele>1555.0</ele><time>2026-04-23T17:14:07.897Z</time></trkpt><trkpt lat="31.3428617" lon="-5.9893283"><ele>1554.0</ele><time>2026-04-23T17:14:08.896Z</time></trkpt><trkpt lat="31.342635" lon="-5.9894133"><ele>1554.0</ele><time>2026-04-23T17:14:09.897Z</time></trkpt><trkpt lat="31.3424067" lon="-5.9894933"><ele>1554.0</ele><time>2026-04-23T17:14:10.897Z</time></trkpt><trkpt lat="31.3421817" lon="-5.9895667"><ele>1554.5</ele><time>2026-04-23T17:14:11.897Z</time></trkpt><trkpt lat="31.341955" lon="-5.989645"><ele>1555.0</ele><time>2026-04-23T17:14:12.897Z</time></trkpt><trkpt lat="31.3417267" lon="-5.9897283"><ele>1555.0</ele><time>2026-04-23T17:14:13.897Z</time></trkpt><trkpt lat="31.3415" lon="-5.98981"><ele>1555.0</ele><time>2026-04-23T17:14:14.897Z</time></trkpt><trkpt lat="31.3412683" lon="-5.9898917"><ele>1554.5</ele><time>2026-04-23T17:14:15.897Z</time></trkpt><trkpt lat="31.3410383" lon="-5.9899733"><ele>1554.0</ele><time>2026-04-23T17:14:16.897Z</time></trkpt><trkpt lat="31.3408117" lon="-5.9900533"><ele>1554.0</ele><time>2026-04-23T17:14:17.897Z</time></trkpt><trkpt lat="31.34059" lon="-5.990135"><ele>1554.0</ele><time>2026-04-23T17:14:18.896Z</time></trkpt><trkpt lat="31.34037" lon="-5.9902167"><ele>1553.0</ele><time>2026-04-23T17:14:19.897Z</time></trkpt><trkpt lat="31.3401517" lon="-5.9903"><ele>1552.0</ele><time>2026-04-23T17:14:20.896Z</time></trkpt><trkpt lat="31.339925" lon="-5.990385"><ele>1552.0</ele><time>2026-04-23T17:14:21.896Z</time></trkpt><trkpt lat="31.3397017" lon="-5.990475"><ele>1552.0</ele><time>2026-04-23T17:14:22.896Z</time></trkpt><trkpt lat="31.3394767" lon="-5.99057"><ele>1552.0</ele><time>2026-04-23T17:14:23.897Z</time></trkpt><trkpt lat="31.3392467" lon="-5.9906683"><ele>1552.0</ele><time>2026-04-23T17:14:24.897Z</time></trkpt><trkpt lat="31.3390183" lon="-5.9907667"><ele>1550.5</ele><time>2026-04-23T17:14:25.896Z</time></trkpt><trkpt lat="31.3387933" lon="-5.9908617"><ele>1549.0</ele><time>2026-04-23T17:14:26.896Z</time></trkpt><trkpt lat="31.3385683" lon="-5.9909617"><ele>1549.0</ele><time>2026-04-23T17:14:27.897Z</time></trkpt><trkpt lat="31.3383417" lon="-5.991065"><ele>1549.0</ele><time>2026-04-23T17:14:28.897Z</time></trkpt><trkpt lat="31.338115" lon="-5.9911683"><ele>1548.0</ele><time>2026-04-23T17:14:29.897Z</time></trkpt><trkpt lat="31.3378883" lon="-5.991275"><ele>1547.0</ele><time>2026-04-23T17:14:30.896Z</time></trkpt><trkpt lat="31.3376617" lon="-5.99138"><ele>1547.0</ele><time>2026-04-23T17:14:31.897Z</time></trkpt><trkpt lat="31.3374283" lon="-5.9914817"><ele>1547.0</ele><time>2026-04-23T17:14:32.897Z</time></trkpt><trkpt lat="31.3372" lon="-5.99158"><ele>1548.0</ele><time>2026-04-23T17:14:33.897Z</time></trkpt><trkpt lat="31.3369733" lon="-5.9916817"><ele>1549.0</ele><time>2026-04-23T17:14:34.897Z</time></trkpt><trkpt lat="31.3367483" lon="-5.99178"><ele>1549.0</ele><time>2026-04-23T17:14:35.896Z</time></trkpt><trkpt lat="31.336525" lon="-5.991885"><ele>1549.0</ele><time>2026-04-23T17:14:36.897Z</time></trkpt><trkpt lat="31.3363017" lon="-5.991995"><ele>1548.0</ele><time>2026-04-23T17:14:37.897Z</time></trkpt><trkpt lat="31.3360767" lon="-5.992105"><ele>1547.0</ele><time>2026-04-23T17:14:38.897Z</time></trkpt><trkpt lat="31.3358533" lon="-5.9922183"><ele>1547.0</ele><time>2026-04-23T17:14:39.897Z</time></trkpt><trkpt lat="31.3356333" lon="-5.9923233"><ele>1547.0</ele><time>2026-04-23T17:14:40.897Z</time></trkpt><trkpt lat="31.335415" lon="-5.99243"><ele>1547.5</ele><time>2026-04-23T17:14:41.896Z</time></trkpt><trkpt lat="31.3351933" lon="-5.9925333"><ele>1548.0</ele><time>2026-04-23T17:14:42.897Z</time></trkpt><trkpt lat="31.3349733" lon="-5.9926333"><ele>1548.0</ele><time>2026-04-23T17:14:43.897Z</time></trkpt><trkpt lat="31.3347533" lon="-5.9927333"><ele>1548.0</ele><time>2026-04-23T17:14:44.896Z</time></trkpt><trkpt lat="31.3345333" lon="-5.992835"><ele>1549.0</ele><time>2026-04-23T17:14:45.897Z</time></trkpt><trkpt lat="31.3343133" lon="-5.9929383"><ele>1550.0</ele><time>2026-04-23T17:14:46.897Z</time></trkpt><trkpt lat="31.3340933" lon="-5.9930417"><ele>1548.5</ele><time>2026-04-23T17:14:47.897Z</time></trkpt><trkpt lat="31.3338733" lon="-5.99314"><ele>1547.0</ele><time>2026-04-23T17:14:48.896Z</time></trkpt><trkpt lat="31.3336517" lon="-5.9932433"><ele>1546.5</ele><time>2026-04-23T17:14:49.896Z</time></trkpt><trkpt lat="31.3334317" lon="-5.993345"><ele>1546.0</ele><time>2026-04-23T17:14:50.896Z</time></trkpt><trkpt lat="31.3332167" lon="-5.99345"><ele>1545.0</ele><time>2026-04-23T17:14:51.897Z</time></trkpt><trkpt lat="31.3329983" lon="-5.9935533"><ele>1544.0</ele><time>2026-04-23T17:14:52.897Z</time></trkpt><trkpt lat="31.3327767" lon="-5.9936567"><ele>1544.0</ele><time>2026-04-23T17:14:53.896Z</time></trkpt><trkpt lat="31.3325617" lon="-5.9937567"><ele>1544.0</ele><time>2026-04-23T17:14:54.897Z</time></trkpt><trkpt lat="31.3323383" lon="-5.9938533"><ele>1542.5</ele><time>2026-04-23T17:14:55.897Z</time></trkpt><trkpt lat="31.332115" lon="-5.9939467"><ele>1541.0</ele><time>2026-04-23T17:14:56.897Z</time></trkpt><trkpt lat="31.3318917" lon="-5.9940417"><ele>1541.0</ele><time>2026-04-23T17:14:57.897Z</time></trkpt><trkpt lat="31.3316667" lon="-5.9941367"><ele>1541.0</ele><time>2026-04-23T17:14:58.897Z</time></trkpt><trkpt lat="31.331445" lon="-5.9942317"><ele>1541.0</ele><time>2026-04-23T17:14:59.897Z</time></trkpt><trkpt lat="31.33122" lon="-5.9943333"><ele>1541.0</ele><time>2026-04-23T17:15:00.897Z</time></trkpt><trkpt lat="31.3310017" lon="-5.9944433"><ele>1541.0</ele><time>2026-04-23T17:15:01.897Z</time></trkpt><trkpt lat="31.3307833" lon="-5.9945533"><ele>1541.0</ele><time>2026-04-23T17:15:02.897Z</time></trkpt><trkpt lat="31.3305683" lon="-5.9946567"><ele>1541.5</ele><time>2026-04-23T17:15:03.897Z</time></trkpt><trkpt lat="31.3303583" lon="-5.99476"><ele>1542.0</ele><time>2026-04-23T17:15:04.897Z</time></trkpt><trkpt lat="31.3301517" lon="-5.9948617"><ele>1542.0</ele><time>2026-04-23T17:15:05.897Z</time></trkpt><trkpt lat="31.32994" lon="-5.9949617"><ele>1542.0</ele><time>2026-04-23T17:15:06.897Z</time></trkpt><trkpt lat="31.3297333" lon="-5.9950567"><ele>1541.3333333333335</ele><time>2026-04-23T17:15:07.897Z</time></trkpt><trkpt lat="31.3295283" lon="-5.9951467"><ele>1540.6666666666667</ele><time>2026-04-23T17:15:08.897Z</time></trkpt><trkpt lat="31.3293233" lon="-5.9952433"><ele>1540.0</ele><time>2026-04-23T17:15:09.897Z</time></trkpt><trkpt lat="31.3291167" lon="-5.9953367"><ele>1540.0</ele><time>2026-04-23T17:15:10.897Z</time></trkpt><trkpt lat="31.32891" lon="-5.9954333"><ele>1540.0</ele><time>2026-04-23T17:15:11.897Z</time></trkpt><trkpt lat="31.3287033" lon="-5.9955283"><ele>1540.0</ele><time>2026-04-23T17:15:12.897Z</time></trkpt><trkpt lat="31.328495" lon="-5.99562"><ele>1540.0</ele><time>2026-04-23T17:15:13.897Z</time></trkpt><trkpt lat="31.3282817" lon="-5.9957133"><ele>1540.0</ele><time>2026-04-23T17:15:14.897Z</time></trkpt><trkpt lat="31.32807" lon="-5.9958067"><ele>1540.3333333333335</ele><time>2026-04-23T17:15:15.897Z</time></trkpt><trkpt lat="31.32786" lon="-5.9958983"><ele>1540.6666666666665</ele><time>2026-04-23T17:15:16.896Z</time></trkpt><trkpt lat="31.32765" lon="-5.9959917"><ele>1541.0</ele><time>2026-04-23T17:15:17.897Z</time></trkpt><trkpt lat="31.327445" lon="-5.996085"><ele>1541.0</ele><time>2026-04-23T17:15:18.897Z</time></trkpt><trkpt lat="31.3272417" lon="-5.9961983"><ele>1541.0</ele><time>2026-04-23T17:15:19.897Z</time></trkpt><trkpt lat="31.32703" lon="-5.99631"><ele>1541.0</ele><time>2026-04-23T17:15:20.897Z</time></trkpt><trkpt lat="31.3268117" lon="-5.9964217"><ele>1541.0</ele><time>2026-04-23T17:15:21.896Z</time></trkpt><trkpt lat="31.3265933" lon="-5.9965183"><ele>1539.0</ele><time>2026-04-23T17:15:22.897Z</time></trkpt><trkpt lat="31.3263767" lon="-5.996615"><ele>1537.0</ele><time>2026-04-23T17:15:23.897Z</time></trkpt><trkpt lat="31.3261583" lon="-5.99672"><ele>1536.5</ele><time>2026-04-23T17:15:24.896Z</time></trkpt><trkpt lat="31.3259383" lon="-5.9968183"><ele>1536.0</ele><time>2026-04-23T17:15:25.897Z</time></trkpt><trkpt lat="31.32572" lon="-5.9969183"><ele>1536.0</ele><time>2026-04-23T17:15:26.897Z</time></trkpt><trkpt lat="31.3254983" lon="-5.9970183"><ele>1536.0</ele><time>2026-04-23T17:15:27.896Z</time></trkpt><trkpt lat="31.325275" lon="-5.9971183"><ele>1536.0</ele><time>2026-04-23T17:15:28.897Z</time></trkpt><trkpt lat="31.32506" lon="-5.9972183"><ele>1536.0</ele><time>2026-04-23T17:15:29.897Z</time></trkpt><trkpt lat="31.32484" lon="-5.99732"><ele>1536.0</ele><time>2026-04-23T17:15:30.897Z</time></trkpt><trkpt lat="31.3246183" lon="-5.9974183"><ele>1536.0</ele><time>2026-04-23T17:15:31.896Z</time></trkpt><trkpt lat="31.3244017" lon="-5.9975183"><ele>1536.0</ele><time>2026-04-23T17:15:32.897Z</time></trkpt><trkpt lat="31.32419" lon="-5.9976167"><ele>1536.0</ele><time>2026-04-23T17:15:33.897Z</time></trkpt><trkpt lat="31.32398" lon="-5.9977183"><ele>1535.6666666666667</ele><time>2026-04-23T17:15:34.897Z</time></trkpt><trkpt lat="31.3237767" lon="-5.99782"><ele>1535.3333333333335</ele><time>2026-04-23T17:15:35.897Z</time></trkpt><trkpt lat="31.3235717" lon="-5.9979167"><ele>1535.0</ele><time>2026-04-23T17:15:36.897Z</time></trkpt><trkpt lat="31.3233633" lon="-5.9980117"><ele>1535.0</ele><time>2026-04-23T17:15:37.897Z</time></trkpt><trkpt lat="31.3231633" lon="-5.9981"><ele>1535.0</ele><time>2026-04-23T17:15:38.897Z</time></trkpt><trkpt lat="31.3229717" lon="-5.99819"><ele>1535.0</ele><time>2026-04-23T17:15:39.897Z</time></trkpt><trkpt lat="31.32278" lon="-5.9982767"><ele>1535.0</ele><time>2026-04-23T17:15:40.897Z</time></trkpt><trkpt lat="31.32259" lon="-5.9983567"><ele>1535.0</ele><time>2026-04-23T17:15:41.896Z</time></trkpt><trkpt lat="31.3223983" lon="-5.998445"><ele>1535.0</ele><time>2026-04-23T17:15:42.896Z</time></trkpt><trkpt lat="31.322205" lon="-5.9985383"><ele>1535.0</ele><time>2026-04-23T17:15:43.897Z</time></trkpt><trkpt lat="31.322015" lon="-5.998625"><ele>1535.0</ele><time>2026-04-23T17:15:44.897Z</time></trkpt><trkpt lat="31.3218183" lon="-5.99872"><ele>1535.0</ele><time>2026-04-23T17:15:45.897Z</time></trkpt><trkpt lat="31.32162" lon="-5.9988167"><ele>1535.0</ele><time>2026-04-23T17:15:46.897Z</time></trkpt><trkpt lat="31.3214217" lon="-5.99891"><ele>1535.0</ele><time>2026-04-23T17:15:47.897Z</time></trkpt><trkpt lat="31.3212217" lon="-5.9990083"><ele>1535.0</ele><time>2026-04-23T17:15:48.897Z</time></trkpt><trkpt lat="31.32102" lon="-5.9991083"><ele>1534.6666666666667</ele><time>2026-04-23T17:15:49.897Z</time></trkpt><trkpt lat="31.3208167" lon="-5.9992067"><ele>1534.3333333333333</ele><time>2026-04-23T17:15:50.897Z</time></trkpt><trkpt lat="31.3206133" lon="-5.9993117"><ele>1534.0</ele><time>2026-04-23T17:15:51.897Z</time></trkpt><trkpt lat="31.3204083" lon="-5.9994233"><ele>1534.0</ele><time>2026-04-23T17:15:52.896Z</time></trkpt><trkpt lat="31.320205" lon="-5.999535"><ele>1534.0</ele><time>2026-04-23T17:15:53.897Z</time></trkpt><trkpt lat="31.3200067" lon="-5.9996517"><ele>1534.0</ele><time>2026-04-23T17:15:54.897Z</time></trkpt><trkpt lat="31.3198" lon="-5.999765"><ele>1533.0</ele><time>2026-04-23T17:15:55.897Z</time></trkpt><trkpt lat="31.319595" lon="-5.9998783"><ele>1532.0</ele><time>2026-04-23T17:15:56.897Z</time></trkpt><trkpt lat="31.3193933" lon="-6.0000017"><ele>1532.0</ele><time>2026-04-23T17:15:57.897Z</time></trkpt><trkpt lat="31.31919" lon="-6.000125"><ele>1532.0</ele><time>2026-04-23T17:15:58.897Z</time></trkpt><trkpt lat="31.31899" lon="-6.0002517"><ele>1532.0</ele><time>2026-04-23T17:15:59.897Z</time></trkpt><trkpt lat="31.3187883" lon="-6.000385"><ele>1532.0</ele><time>2026-04-23T17:16:00.897Z</time></trkpt><trkpt lat="31.3185833" lon="-6.0005233"><ele>1532.0</ele><time>2026-04-23T17:16:01.896Z</time></trkpt><trkpt lat="31.3183767" lon="-6.0006667"><ele>1532.0</ele><time>2026-04-23T17:16:02.896Z</time></trkpt><trkpt lat="31.3181717" lon="-6.0008133"><ele>1531.0</ele><time>2026-04-23T17:16:03.897Z</time></trkpt><trkpt lat="31.317965" lon="-6.0009633"><ele>1530.0</ele><time>2026-04-23T17:16:04.897Z</time></trkpt><trkpt lat="31.3177583" lon="-6.001115"><ele>1530.0</ele><time>2026-04-23T17:16:05.897Z</time></trkpt><trkpt lat="31.3175517" lon="-6.00127"><ele>1530.0</ele><time>2026-04-23T17:16:06.897Z</time></trkpt><trkpt lat="31.317345" lon="-6.00143"><ele>1530.5</ele><time>2026-04-23T17:16:07.897Z</time></trkpt><trkpt lat="31.317135" lon="-6.00159"><ele>1531.0</ele><time>2026-04-23T17:16:08.896Z</time></trkpt><trkpt lat="31.316925" lon="-6.0017533"><ele>1530.0</ele><time>2026-04-23T17:16:09.897Z</time></trkpt><trkpt lat="31.3167217" lon="-6.001915"><ele>1529.0</ele><time>2026-04-23T17:16:10.896Z</time></trkpt><trkpt lat="31.3165133" lon="-6.0020783"><ele>1527.5</ele><time>2026-04-23T17:16:11.897Z</time></trkpt><trkpt lat="31.3163067" lon="-6.002245"><ele>1526.0</ele><time>2026-04-23T17:16:12.897Z</time></trkpt><trkpt lat="31.3160933" lon="-6.0024167"><ele>1527.5</ele><time>2026-04-23T17:16:13.897Z</time></trkpt><trkpt lat="31.31588" lon="-6.00258"><ele>1529.0</ele><time>2026-04-23T17:16:14.896Z</time></trkpt><trkpt lat="31.3156667" lon="-6.002745"><ele>1529.5</ele><time>2026-04-23T17:16:15.896Z</time></trkpt><trkpt lat="31.3154517" lon="-6.0029067"><ele>1530.0</ele><time>2026-04-23T17:16:16.897Z</time></trkpt><trkpt lat="31.315235" lon="-6.003075"><ele>1530.0</ele><time>2026-04-23T17:16:17.896Z</time></trkpt><trkpt lat="31.3150183" lon="-6.0032417"><ele>1530.0</ele><time>2026-04-23T17:16:18.897Z</time></trkpt><trkpt lat="31.3148017" lon="-6.0034133"><ele>1528.0</ele><time>2026-04-23T17:16:19.897Z</time></trkpt><trkpt lat="31.3145867" lon="-6.0035817"><ele>1526.0</ele><time>2026-04-23T17:16:20.897Z</time></trkpt><trkpt lat="31.31437" lon="-6.003745"><ele>1526.0</ele><time>2026-04-23T17:16:21.897Z</time></trkpt><trkpt lat="31.3141517" lon="-6.003915"><ele>1526.0</ele><time>2026-04-23T17:16:22.897Z</time></trkpt><trkpt lat="31.313935" lon="-6.0040867"><ele>1526.5</ele><time>2026-04-23T17:16:23.897Z</time></trkpt><trkpt lat="31.3137183" lon="-6.004255"><ele>1527.0</ele><time>2026-04-23T17:16:24.897Z</time></trkpt><trkpt lat="31.3135117" lon="-6.0044133"><ele>1527.0</ele><time>2026-04-23T17:16:25.897Z</time></trkpt><trkpt lat="31.3133133" lon="-6.0045767"><ele>1527.0</ele><time>2026-04-23T17:16:26.897Z</time></trkpt><trkpt lat="31.3131133" lon="-6.0047333"><ele>1527.0</ele><time>2026-04-23T17:16:27.896Z</time></trkpt><trkpt lat="31.3129117" lon="-6.0048883"><ele>1527.0</ele><time>2026-04-23T17:16:28.897Z</time></trkpt><trkpt lat="31.31271" lon="-6.0050433"><ele>1527.0</ele><time>2026-04-23T17:16:29.897Z</time></trkpt><trkpt lat="31.3125083" lon="-6.0052"><ele>1527.0</ele><time>2026-04-23T17:16:30.897Z</time></trkpt><trkpt lat="31.3123067" lon="-6.0053517"><ele>1526.5</ele><time>2026-04-23T17:16:31.896Z</time></trkpt><trkpt lat="31.3121033" lon="-6.0055083"><ele>1526.0</ele><time>2026-04-23T17:16:32.897Z</time></trkpt><trkpt lat="31.3118967" lon="-6.0056633"><ele>1526.0</ele><time>2026-04-23T17:16:33.897Z</time></trkpt><trkpt lat="31.3116967" lon="-6.0058217"><ele>1526.0</ele><time>2026-04-23T17:16:34.897Z</time></trkpt><trkpt lat="31.3114917" lon="-6.00598"><ele>1525.0</ele><time>2026-04-23T17:16:35.897Z</time></trkpt><trkpt lat="31.3112883" lon="-6.006135"><ele>1524.0</ele><time>2026-04-23T17:16:36.896Z</time></trkpt><trkpt lat="31.3110867" lon="-6.0062917"><ele>1524.0</ele><time>2026-04-23T17:16:37.897Z</time></trkpt><trkpt lat="31.3108833" lon="-6.0064467"><ele>1524.0</ele><time>2026-04-23T17:16:38.896Z</time></trkpt><trkpt lat="31.3106833" lon="-6.0066067"><ele>1524.0</ele><time>2026-04-23T17:16:39.897Z</time></trkpt><trkpt lat="31.31048" lon="-6.0067617"><ele>1524.0</ele><time>2026-04-23T17:16:40.897Z</time></trkpt><trkpt lat="31.31028" lon="-6.0069183"><ele>1524.0</ele><time>2026-04-23T17:16:41.897Z</time></trkpt><trkpt lat="31.3100783" lon="-6.007075"><ele>1524.0</ele><time>2026-04-23T17:16:42.897Z</time></trkpt><trkpt lat="31.3098783" lon="-6.0072283"><ele>1523.5</ele><time>2026-04-23T17:16:43.897Z</time></trkpt><trkpt lat="31.309685" lon="-6.0073867"><ele>1523.0</ele><time>2026-04-23T17:16:44.897Z</time></trkpt><trkpt lat="31.3094883" lon="-6.007545"><ele>1522.5</ele><time>2026-04-23T17:16:45.897Z</time></trkpt><trkpt lat="31.30929" lon="-6.0076983"><ele>1522.0</ele><time>2026-04-23T17:16:46.896Z</time></trkpt><trkpt lat="31.3090917" lon="-6.0078517"><ele>1522.0</ele><time>2026-04-23T17:16:47.897Z</time></trkpt><trkpt lat="31.30889" lon="-6.008005"><ele>1522.0</ele><time>2026-04-23T17:16:48.896Z</time></trkpt><trkpt lat="31.30869" lon="-6.0081617"><ele>1522.0</ele><time>2026-04-23T17:16:49.897Z</time></trkpt><trkpt lat="31.3084917" lon="-6.008315"><ele>1522.0</ele><time>2026-04-23T17:16:50.897Z</time></trkpt><trkpt lat="31.3082933" lon="-6.00847"><ele>1522.5</ele><time>2026-04-23T17:16:51.896Z</time></trkpt><trkpt lat="31.3080917" lon="-6.0086233"><ele>1523.0</ele><time>2026-04-23T17:16:52.897Z</time></trkpt><trkpt lat="31.30789" lon="-6.0087717"><ele>1523.0</ele><time>2026-04-23T17:16:53.897Z</time></trkpt><trkpt lat="31.3076883" lon="-6.00892"><ele>1523.0</ele><time>2026-04-23T17:16:54.897Z</time></trkpt><trkpt lat="31.307485" lon="-6.009075"><ele>1523.5</ele><time>2026-04-23T17:16:55.896Z</time></trkpt><trkpt lat="31.3072817" lon="-6.0092317"><ele>1524.0</ele><time>2026-04-23T17:16:56.897Z</time></trkpt><trkpt lat="31.30708" lon="-6.0093933"><ele>1521.5</ele><time>2026-04-23T17:16:57.897Z</time></trkpt><trkpt lat="31.3068767" lon="-6.0095517"><ele>1519.0</ele><time>2026-04-23T17:16:58.896Z</time></trkpt><trkpt lat="31.3066733" lon="-6.00971"><ele>1519.0</ele><time>2026-04-23T17:16:59.897Z</time></trkpt><trkpt lat="31.3064717" lon="-6.0098683"><ele>1519.0</ele><time>2026-04-23T17:17:00.897Z</time></trkpt><trkpt lat="31.3062733" lon="-6.0100283"><ele>1520.0</ele><time>2026-04-23T17:17:01.897Z</time></trkpt><trkpt lat="31.306075" lon="-6.010185"><ele>1521.0</ele><time>2026-04-23T17:17:02.897Z</time></trkpt><trkpt lat="31.3058767" lon="-6.0103417"><ele>1521.0</ele><time>2026-04-23T17:17:03.897Z</time></trkpt><trkpt lat="31.3056783" lon="-6.0105"><ele>1521.0</ele><time>2026-04-23T17:17:04.897Z</time></trkpt><trkpt lat="31.3054833" lon="-6.010655"><ele>1520.5</ele><time>2026-04-23T17:17:05.896Z</time></trkpt><trkpt lat="31.3052867" lon="-6.0108067"><ele>1520.0</ele><time>2026-04-23T17:17:06.897Z</time></trkpt><trkpt lat="31.3050883" lon="-6.010955"><ele>1520.0</ele><time>2026-04-23T17:17:07.897Z</time></trkpt><trkpt lat="31.3048917" lon="-6.0111017"><ele>1520.0</ele><time>2026-04-23T17:17:08.897Z</time></trkpt><trkpt lat="31.3046983" lon="-6.0112567"><ele>1519.0</ele><time>2026-04-23T17:17:09.897Z</time></trkpt><trkpt lat="31.3045067" lon="-6.0114067"><ele>1518.0</ele><time>2026-04-23T17:17:10.897Z</time></trkpt><trkpt lat="31.3043133" lon="-6.0115617"><ele>1518.0</ele><time>2026-04-23T17:17:11.897Z</time></trkpt><trkpt lat="31.30412" lon="-6.0117083"><ele>1518.0</ele><time>2026-04-23T17:17:12.897Z</time></trkpt><trkpt lat="31.303925" lon="-6.0118533"><ele>1518.0</ele><time>2026-04-23T17:17:13.897Z</time></trkpt><trkpt lat="31.30373" lon="-6.0120033"><ele>1518.0</ele><time>2026-04-23T17:17:14.897Z</time></trkpt><trkpt lat="31.303535" lon="-6.01216"><ele>1518.0</ele><time>2026-04-23T17:17:15.897Z</time></trkpt><trkpt lat="31.3033383" lon="-6.0123133"><ele>1518.0</ele><time>2026-04-23T17:17:16.897Z</time></trkpt><trkpt lat="31.303145" lon="-6.0124683"><ele>1517.5</ele><time>2026-04-23T17:17:17.897Z</time></trkpt><trkpt lat="31.30295" lon="-6.0126233"><ele>1517.0</ele><time>2026-04-23T17:17:18.897Z</time></trkpt><trkpt lat="31.3027533" lon="-6.0127783"><ele>1517.0</ele><time>2026-04-23T17:17:19.896Z</time></trkpt><trkpt lat="31.3025567" lon="-6.01293"><ele>1517.0</ele><time>2026-04-23T17:17:20.897Z</time></trkpt><trkpt lat="31.3023583" lon="-6.013085"><ele>1517.0</ele><time>2026-04-23T17:17:21.897Z</time></trkpt><trkpt lat="31.3021617" lon="-6.013235"><ele>1517.0</ele><time>2026-04-23T17:17:22.897Z</time></trkpt><trkpt lat="31.3019617" lon="-6.0133867"><ele>1517.0</ele><time>2026-04-23T17:17:23.897Z</time></trkpt><trkpt lat="31.3017617" lon="-6.0135417"><ele>1517.0</ele><time>2026-04-23T17:17:24.897Z</time></trkpt><trkpt lat="31.3015583" lon="-6.013695"><ele>1516.0</ele><time>2026-04-23T17:17:25.896Z</time></trkpt><trkpt lat="31.301355" lon="-6.0138483"><ele>1515.0</ele><time>2026-04-23T17:17:26.897Z</time></trkpt><trkpt lat="31.3011533" lon="-6.014"><ele>1515.5</ele><time>2026-04-23T17:17:27.897Z</time></trkpt><trkpt lat="31.3009533" lon="-6.0141583"><ele>1516.0</ele><time>2026-04-23T17:17:28.896Z</time></trkpt><trkpt lat="31.3007567" lon="-6.0143167"><ele>1515.0</ele><time>2026-04-23T17:17:29.896Z</time></trkpt><trkpt lat="31.300555" lon="-6.0144733"><ele>1514.0</ele><time>2026-04-23T17:17:30.896Z</time></trkpt><trkpt lat="31.300355" lon="-6.01463"><ele>1514.0</ele><time>2026-04-23T17:17:31.896Z</time></trkpt><trkpt lat="31.3001517" lon="-6.01478"><ele>1514.0</ele><time>2026-04-23T17:17:32.897Z</time></trkpt><trkpt lat="31.2999467" lon="-6.0149317"><ele>1514.5</ele><time>2026-04-23T17:17:33.897Z</time></trkpt><trkpt lat="31.2997367" lon="-6.01508"><ele>1515.0</ele><time>2026-04-23T17:17:34.896Z</time></trkpt><trkpt lat="31.29952" lon="-6.0152233"><ele>1515.0</ele><time>2026-04-23T17:17:35.896Z</time></trkpt><trkpt lat="31.299305" lon="-6.0153583"><ele>1515.0</ele><time>2026-04-23T17:17:36.896Z</time></trkpt><trkpt lat="31.2990833" lon="-6.0154867"><ele>1513.5</ele><time>2026-04-23T17:17:37.897Z</time></trkpt><trkpt lat="31.2988617" lon="-6.0156133"><ele>1512.0</ele><time>2026-04-23T17:17:38.897Z</time></trkpt><trkpt lat="31.298635" lon="-6.0157367"><ele>1513.0</ele><time>2026-04-23T17:17:39.896Z</time></trkpt><trkpt lat="31.2984117" lon="-6.01586"><ele>1514.0</ele><time>2026-04-23T17:17:40.897Z</time></trkpt><trkpt lat="31.2981833" lon="-6.0159783"><ele>1513.0</ele><time>2026-04-23T17:17:41.897Z</time></trkpt><trkpt lat="31.29795" lon="-6.01609"><ele>1512.0</ele><time>2026-04-23T17:17:42.897Z</time></trkpt><trkpt lat="31.297715" lon="-6.0162"><ele>1512.0</ele><time>2026-04-23T17:17:43.897Z</time></trkpt><trkpt lat="31.2974783" lon="-6.0163033"><ele>1512.0</ele><time>2026-04-23T17:17:44.897Z</time></trkpt><trkpt lat="31.2972417" lon="-6.0163983"><ele>1513.0</ele><time>2026-04-23T17:17:45.896Z</time></trkpt><trkpt lat="31.297" lon="-6.01649"><ele>1514.0</ele><time>2026-04-23T17:17:46.897Z</time></trkpt><trkpt lat="31.2967517" lon="-6.01658"><ele>1514.5</ele><time>2026-04-23T17:17:47.896Z</time></trkpt><trkpt lat="31.2965" lon="-6.01666"><ele>1515.0</ele><time>2026-04-23T17:17:48.897Z</time></trkpt><trkpt lat="31.29625" lon="-6.01674"><ele>1513.0</ele><time>2026-04-23T17:17:49.897Z</time></trkpt><trkpt lat="31.295995" lon="-6.0168083"><ele>1511.0</ele><time>2026-04-23T17:17:50.897Z</time></trkpt><trkpt lat="31.2957417" lon="-6.0168717"><ele>1511.0</ele><time>2026-04-23T17:17:51.896Z</time></trkpt><trkpt lat="31.295485" lon="-6.016935"><ele>1511.0</ele><time>2026-04-23T17:17:52.897Z</time></trkpt><trkpt lat="31.2952317" lon="-6.0169983"><ele>1511.0</ele><time>2026-04-23T17:17:53.897Z</time></trkpt><trkpt lat="31.2949783" lon="-6.017065"><ele>1511.0</ele><time>2026-04-23T17:17:54.896Z</time></trkpt><trkpt lat="31.2947233" lon="-6.0171317"><ele>1511.0</ele><time>2026-04-23T17:17:55.897Z</time></trkpt><trkpt lat="31.2944667" lon="-6.0171967"><ele>1511.0</ele><time>2026-04-23T17:17:56.897Z</time></trkpt><trkpt lat="31.2942083" lon="-6.01726"><ele>1511.0</ele><time>2026-04-23T17:17:57.897Z</time></trkpt><trkpt lat="31.2939517" lon="-6.0173133"><ele>1511.0</ele><time>2026-04-23T17:17:58.897Z</time></trkpt><trkpt lat="31.2936967" lon="-6.0173733"><ele>1510.5</ele><time>2026-04-23T17:17:59.896Z</time></trkpt><trkpt lat="31.293445" lon="-6.017435"><ele>1510.0</ele><time>2026-04-23T17:18:00.897Z</time></trkpt><trkpt lat="31.2932033" lon="-6.01749"><ele>1510.0</ele><time>2026-04-23T17:18:01.897Z</time></trkpt><trkpt lat="31.292965" lon="-6.01755"><ele>1510.0</ele><time>2026-04-23T17:18:02.897Z</time></trkpt><trkpt lat="31.292725" lon="-6.0176083"><ele>1510.0</ele><time>2026-04-23T17:18:03.896Z</time></trkpt><trkpt lat="31.2924817" lon="-6.0176683"><ele>1510.0</ele><time>2026-04-23T17:18:04.896Z</time></trkpt><trkpt lat="31.292235" lon="-6.017725"><ele>1509.5</ele><time>2026-04-23T17:18:05.897Z</time></trkpt><trkpt lat="31.2919933" lon="-6.0177817"><ele>1509.0</ele><time>2026-04-23T17:18:06.897Z</time></trkpt><trkpt lat="31.2917483" lon="-6.0178433"><ele>1509.0</ele><time>2026-04-23T17:18:07.897Z</time></trkpt><trkpt lat="31.2915017" lon="-6.0179083"><ele>1509.0</ele><time>2026-04-23T17:18:08.897Z</time></trkpt><trkpt lat="31.2912583" lon="-6.0179667"><ele>1508.0</ele><time>2026-04-23T17:18:09.897Z</time></trkpt><trkpt lat="31.291015" lon="-6.01802"><ele>1507.0</ele><time>2026-04-23T17:18:10.897Z</time></trkpt><trkpt lat="31.2907733" lon="-6.01808"><ele>1506.5</ele><time>2026-04-23T17:18:11.897Z</time></trkpt><trkpt lat="31.290535" lon="-6.01814"><ele>1506.0</ele><time>2026-04-23T17:18:12.897Z</time></trkpt><trkpt lat="31.2903" lon="-6.0181983"><ele>1506.0</ele><time>2026-04-23T17:18:13.897Z</time></trkpt><trkpt lat="31.2900667" lon="-6.0182517"><ele>1506.0</ele><time>2026-04-23T17:18:14.897Z</time></trkpt><trkpt lat="31.2898367" lon="-6.018305"><ele>1505.0</ele><time>2026-04-23T17:18:15.897Z</time></trkpt><trkpt lat="31.2896133" lon="-6.0183567"><ele>1504.0</ele><time>2026-04-23T17:18:16.897Z</time></trkpt><trkpt lat="31.28939" lon="-6.0184117"><ele>1504.0</ele><time>2026-04-23T17:18:17.896Z</time></trkpt><trkpt lat="31.289165" lon="-6.0184633"><ele>1504.0</ele><time>2026-04-23T17:18:18.897Z</time></trkpt><trkpt lat="31.2889433" lon="-6.0185133"><ele>1503.6666666666665</ele><time>2026-04-23T17:18:19.897Z</time></trkpt><trkpt lat="31.2887267" lon="-6.0185683"><ele>1503.3333333333333</ele><time>2026-04-23T17:18:20.896Z</time></trkpt><trkpt lat="31.288505" lon="-6.0186267"><ele>1503.0</ele><time>2026-04-23T17:18:21.896Z</time></trkpt><trkpt lat="31.288285" lon="-6.01868"><ele>1504.0</ele><time>2026-04-23T17:18:22.897Z</time></trkpt><trkpt lat="31.2880617" lon="-6.0187383"><ele>1505.0</ele><time>2026-04-23T17:18:23.897Z</time></trkpt><trkpt lat="31.2878533" lon="-6.0187883"><ele>1506.0</ele><time>2026-04-23T17:18:24.897Z</time></trkpt><trkpt lat="31.28767" lon="-6.01883"><ele>1506.0</ele><time>2026-04-23T17:18:25.897Z</time></trkpt><trkpt lat="31.2875" lon="-6.0188733"><ele>1506.0</ele><time>2026-04-23T17:18:26.896Z</time></trkpt><trkpt lat="31.28734" lon="-6.01892"><ele>1506.0</ele><time>2026-04-23T17:18:27.896Z</time></trkpt><trkpt lat="31.2871983" lon="-6.0189633"><ele>1505.8</ele><time>2026-04-23T17:18:28.896Z</time></trkpt><trkpt lat="31.2870717" lon="-6.019"><ele>1505.6</ele><time>2026-04-23T17:18:29.897Z</time></trkpt><trkpt lat="31.286965" lon="-6.0190267"><ele>1505.4</ele><time>2026-04-23T17:18:30.897Z</time></trkpt><trkpt lat="31.2868833" lon="-6.01905"><ele>1505.2</ele><time>2026-04-23T17:18:31.897Z</time></trkpt><trkpt lat="31.286815" lon="-6.01907"><ele>1505.0</ele><time>2026-04-23T17:18:32.897Z</time></trkpt><trkpt lat="31.28672" lon="-6.0191"><ele>1505.0</ele><time>2026-04-23T17:18:34.897Z</time></trkpt><trkpt lat="31.2866467" lon="-6.0190867"><ele>1505.0</ele><time>2026-04-23T17:18:37.897Z</time></trkpt><trkpt lat="31.2867017" lon="-6.0190283"><ele>1505.0</ele><time>2026-04-23T17:18:42.896Z</time></trkpt><trkpt lat="31.28679" lon="-6.0190083"><ele>1505.0</ele><time>2026-04-23T17:18:44.897Z</time></trkpt><trkpt lat="31.2868617" lon="-6.018995"><ele>1505.0</ele><time>2026-04-23T17:18:45.897Z</time></trkpt><trkpt lat="31.2869467" lon="-6.0189783"><ele>1505.0</ele><time>2026-04-23T17:18:46.897Z</time></trkpt><trkpt lat="31.28704" lon="-6.0189567"><ele>1505.0</ele><time>2026-04-23T17:18:47.897Z</time></trkpt><trkpt lat="31.28712" lon="-6.0189367"><ele>1505.0</ele><time>2026-04-23T17:18:48.897Z</time></trkpt><trkpt lat="31.2871983" lon="-6.018925"><ele>1505.0</ele><time>2026-04-23T17:18:49.897Z</time></trkpt><trkpt lat="31.2872717" lon="-6.0189133"><ele>1505.0</ele><time>2026-04-23T17:18:50.897Z</time></trkpt><trkpt lat="31.2873383" lon="-6.0189083"><ele>1505.0</ele><time>2026-04-23T17:18:51.897Z</time></trkpt><trkpt lat="31.2874417" lon="-6.0189117"><ele>1505.0</ele><time>2026-04-23T17:18:53.897Z</time></trkpt><trkpt lat="31.28751" lon="-6.0189083"><ele>1505.2</ele><time>2026-04-23T17:18:55.897Z</time></trkpt><trkpt lat="31.2875783" lon="-6.0189767"><ele>1505.4</ele><time>2026-04-23T17:19:27.897Z</time></trkpt><trkpt lat="31.287615" lon="-6.0191"><ele>1505.6</ele><time>2026-04-23T17:19:29.897Z</time></trkpt><trkpt lat="31.287645" lon="-6.0192283"><ele>1505.8</ele><time>2026-04-23T17:19:31.896Z</time></trkpt><trkpt lat="31.2876617" lon="-6.0193067"><ele>1506.0</ele><time>2026-04-23T17:19:32.897Z</time></trkpt><trkpt lat="31.2876817" lon="-6.0193817"><ele>1506.0</ele><time>2026-04-23T17:19:33.897Z</time></trkpt><trkpt lat="31.2877083" lon="-6.019455"><ele>1506.0</ele><time>2026-04-23T17:19:34.896Z</time></trkpt><trkpt lat="31.287735" lon="-6.0195317"><ele>1506.0</ele><time>2026-04-23T17:19:35.897Z</time></trkpt><trkpt lat="31.2877633" lon="-6.01962"><ele>1506.0</ele><time>2026-04-23T17:19:36.897Z</time></trkpt><trkpt lat="31.287795" lon="-6.0197067"><ele>1506.0</ele><time>2026-04-23T17:19:37.897Z</time></trkpt><trkpt lat="31.28783" lon="-6.0198083"><ele>1506.0</ele><time>2026-04-23T17:19:38.896Z</time></trkpt><trkpt lat="31.2878717" lon="-6.01991"><ele>1505.6666666666667</ele><time>2026-04-23T17:19:39.896Z</time></trkpt><trkpt lat="31.2879133" lon="-6.02001"><ele>1505.3333333333333</ele><time>2026-04-23T17:19:40.897Z</time></trkpt><trkpt lat="31.2879533" lon="-6.0201083"><ele>1505.0</ele><time>2026-04-23T17:19:41.896Z</time></trkpt><trkpt lat="31.2879933" lon="-6.0201983"><ele>1504.6666666666665</ele><time>2026-04-23T17:19:42.896Z</time></trkpt><trkpt lat="31.288025" lon="-6.02029"><ele>1504.3333333333333</ele><time>2026-04-23T17:19:43.897Z</time></trkpt><trkpt lat="31.288055" lon="-6.02037"><ele>1504.0</ele><time>2026-04-23T17:19:44.897Z</time></trkpt><trkpt lat="31.2880983" lon="-6.020455"><ele>1504.2</ele><time>2026-04-23T17:19:45.897Z</time></trkpt><trkpt lat="31.288145" lon="-6.0205533"><ele>1504.4</ele><time>2026-04-23T17:19:46.896Z</time></trkpt><trkpt lat="31.2881867" lon="-6.020655"><ele>1504.6</ele><time>2026-04-23T17:19:47.896Z</time></trkpt><trkpt lat="31.288235" lon="-6.0207617"><ele>1504.8</ele><time>2026-04-23T17:19:48.897Z</time></trkpt><trkpt lat="31.2882867" lon="-6.0208717"><ele>1505.0</ele><time>2026-04-23T17:19:49.897Z</time></trkpt><trkpt lat="31.2883417" lon="-6.0209867"><ele>1505.0</ele><time>2026-04-23T17:19:50.897Z</time></trkpt><trkpt lat="31.2884033" lon="-6.0211083"><ele>1505.0</ele><time>2026-04-23T17:19:51.896Z</time></trkpt><trkpt lat="31.288465" lon="-6.0212283"><ele>1505.0</ele><time>2026-04-23T17:19:52.896Z</time></trkpt><trkpt lat="31.2885183" lon="-6.021345"><ele>1505.0</ele><time>2026-04-23T17:19:53.897Z</time></trkpt><trkpt lat="31.2885767" lon="-6.0214583"><ele>1505.0</ele><time>2026-04-23T17:19:54.897Z</time></trkpt><trkpt lat="31.2886317" lon="-6.02157"><ele>1505.0</ele><time>2026-04-23T17:19:55.897Z</time></trkpt><trkpt lat="31.2886917" lon="-6.0216767"><ele>1505.0</ele><time>2026-04-23T17:19:56.897Z</time></trkpt><trkpt lat="31.2887633" lon="-6.02179"><ele>1505.0</ele><time>2026-04-23T17:19:57.897Z</time></trkpt><trkpt lat="31.2888283" lon="-6.0219067"><ele>1505.0</ele><time>2026-04-23T17:19:58.897Z</time></trkpt><trkpt lat="31.2889017" lon="-6.0220233"><ele>1505.0</ele><time>2026-04-23T17:19:59.897Z</time></trkpt><trkpt lat="31.2889667" lon="-6.0221383"><ele>1505.0</ele><time>2026-04-23T17:20:00.897Z</time></trkpt><trkpt lat="31.28903" lon="-6.0222517"><ele>1505.0</ele><time>2026-04-23T17:20:01.897Z</time></trkpt><trkpt lat="31.2890883" lon="-6.02238"><ele>1505.0</ele><time>2026-04-23T17:20:02.897Z</time></trkpt><trkpt lat="31.2891417" lon="-6.0225067"><ele>1505.0</ele><time>2026-04-23T17:20:03.896Z</time></trkpt><trkpt lat="31.2891883" lon="-6.0226217"><ele>1505.0</ele><time>2026-04-23T17:20:04.897Z</time></trkpt><trkpt lat="31.2892333" lon="-6.022725"><ele>1505.0</ele><time>2026-04-23T17:20:05.896Z</time></trkpt><trkpt lat="31.28929" lon="-6.0228267"><ele>1505.0</ele><time>2026-04-23T17:20:06.897Z</time></trkpt><trkpt lat="31.28934" lon="-6.022915"><ele>1505.0</ele><time>2026-04-23T17:20:07.897Z</time></trkpt><trkpt lat="31.289395" lon="-6.02299"><ele>1505.0</ele><time>2026-04-23T17:20:08.897Z</time></trkpt><trkpt lat="31.2894533" lon="-6.023055"><ele>1505.0</ele><time>2026-04-23T17:20:09.896Z</time></trkpt><trkpt lat="31.2895033" lon="-6.0231167"><ele>1505.0</ele><time>2026-04-23T17:20:10.897Z</time></trkpt><trkpt lat="31.2895467" lon="-6.02324"><ele>1505.0</ele><time>2026-04-23T17:20:12.896Z</time></trkpt><trkpt lat="31.289535" lon="-6.02336"><ele>1504.8333333333335</ele><time>2026-04-23T17:20:14.897Z</time></trkpt><trkpt lat="31.2895" lon="-6.0234233"><ele>1504.6666666666667</ele><time>2026-04-23T17:20:15.896Z</time></trkpt><trkpt lat="31.2894383" lon="-6.0234833"><ele>1504.5</ele><time>2026-04-23T17:20:16.896Z</time></trkpt><trkpt lat="31.2893683" lon="-6.0235283"><ele>1504.3333333333333</ele><time>2026-04-23T17:20:17.897Z</time></trkpt><trkpt lat="31.2892883" lon="-6.02357"><ele>1504.1666666666665</ele><time>2026-04-23T17:20:18.897Z</time></trkpt><trkpt lat="31.2892067" lon="-6.02362"><ele>1504.0</ele><time>2026-04-23T17:20:19.897Z</time></trkpt><trkpt lat="31.2891317" lon="-6.0236683"><ele>1504.0</ele><time>2026-04-23T17:20:20.897Z</time></trkpt><trkpt lat="31.2890683" lon="-6.0237233"><ele>1504.0</ele><time>2026-04-23T17:20:21.897Z</time></trkpt><trkpt lat="31.2890267" lon="-6.0237817"><ele>1504.0</ele><time>2026-04-23T17:20:22.897Z</time></trkpt><trkpt lat="31.2889933" lon="-6.023915"><ele>1504.0</ele><time>2026-04-23T17:20:24.897Z</time></trkpt><trkpt lat="31.28904" lon="-6.024025"><ele>1504.0</ele><time>2026-04-23T17:20:26.896Z</time></trkpt><trkpt lat="31.2890833" lon="-6.0240883"><ele>1504.0</ele><time>2026-04-23T17:20:27.897Z</time></trkpt><trkpt lat="31.2891433" lon="-6.0241583"><ele>1504.0</ele><time>2026-04-23T17:20:28.897Z</time></trkpt><trkpt lat="31.289205" lon="-6.02423"><ele>1504.0</ele><time>2026-04-23T17:20:29.897Z</time></trkpt><trkpt lat="31.2892567" lon="-6.024315"><ele>1504.0</ele><time>2026-04-23T17:20:30.897Z</time></trkpt><trkpt lat="31.2892983" lon="-6.02442"><ele>1504.0</ele><time>2026-04-23T17:20:31.897Z</time></trkpt><trkpt lat="31.2893217" lon="-6.0245233"><ele>1504.0</ele><time>2026-04-23T17:20:32.896Z</time></trkpt><trkpt lat="31.2893367" lon="-6.024625"><ele>1504.0</ele><time>2026-04-23T17:20:33.897Z</time></trkpt><trkpt lat="31.2893483" lon="-6.0247083"><ele>1504.0</ele><time>2026-04-23T17:20:34.897Z</time></trkpt><trkpt lat="31.28936" lon="-6.024825"><ele>1504.0</ele><time>2026-04-23T17:20:36.897Z</time></trkpt><trkpt lat="31.289315" lon="-6.0249017"><ele>1504.0</ele><time>2026-04-23T17:20:38.897Z</time></trkpt><trkpt lat="31.2892183" lon="-6.0249983"><ele>1504.0</ele><time>2026-04-23T17:20:40.897Z</time></trkpt><trkpt lat="31.2891433" lon="-6.0250567"><ele>1504.0</ele><time>2026-04-23T17:20:41.897Z</time></trkpt><trkpt lat="31.28905" lon="-6.0251133"><ele>1504.0</ele><time>2026-04-23T17:20:42.897Z</time></trkpt><trkpt lat="31.2889433" lon="-6.02519"><ele>1504.0</ele><time>2026-04-23T17:20:43.897Z</time></trkpt><trkpt lat="31.2888283" lon="-6.0252833"><ele>1504.0</ele><time>2026-04-23T17:20:44.896Z</time></trkpt><trkpt lat="31.288705" lon="-6.02538"><ele>1503.75</ele><time>2026-04-23T17:20:45.896Z</time></trkpt><trkpt lat="31.28859" lon="-6.0254667"><ele>1503.5</ele><time>2026-04-23T17:20:46.897Z</time></trkpt><trkpt lat="31.2884817" lon="-6.0255417"><ele>1503.25</ele><time>2026-04-23T17:20:47.897Z</time></trkpt><trkpt lat="31.2883767" lon="-6.0256183"><ele>1503.0</ele><time>2026-04-23T17:20:48.897Z</time></trkpt><trkpt lat="31.2882767" lon="-6.02569"><ele>1503.0</ele><time>2026-04-23T17:20:49.897Z</time></trkpt><trkpt lat="31.2881967" lon="-6.02576"><ele>1503.0</ele><time>2026-04-23T17:20:50.897Z</time></trkpt><trkpt lat="31.2881367" lon="-6.0258033"><ele>1503.0</ele><time>2026-04-23T17:20:51.896Z</time></trkpt><trkpt lat="31.288055" lon="-6.02586"><ele>1503.0</ele><time>2026-04-23T17:20:54.897Z</time></trkpt><trkpt lat="31.2879567" lon="-6.0259433"><ele>1503.0</ele><time>2026-04-23T17:20:56.897Z</time></trkpt><trkpt lat="31.287885" lon="-6.025995"><ele>1503.5</ele><time>2026-04-23T17:20:57.897Z</time></trkpt><trkpt lat="31.287795" lon="-6.02606"><ele>1504.0</ele><time>2026-04-23T17:20:58.897Z</time></trkpt><trkpt lat="31.287695" lon="-6.026135"><ele>1504.5</ele><time>2026-04-23T17:20:59.896Z</time></trkpt><trkpt lat="31.2875817" lon="-6.0262217"><ele>1505.0</ele><time>2026-04-23T17:21:00.897Z</time></trkpt><trkpt lat="31.2874717" lon="-6.0263033"><ele>1505.0</ele><time>2026-04-23T17:21:01.897Z</time></trkpt><trkpt lat="31.2873617" lon="-6.0263867"><ele>1505.0</ele><time>2026-04-23T17:21:02.897Z</time></trkpt><trkpt lat="31.287245" lon="-6.0264733"><ele>1505.0</ele><time>2026-04-23T17:21:03.897Z</time></trkpt><trkpt lat="31.2871267" lon="-6.026565"><ele>1505.0</ele><time>2026-04-23T17:21:04.897Z</time></trkpt><trkpt lat="31.2870133" lon="-6.0266533"><ele>1505.0</ele><time>2026-04-23T17:21:05.897Z</time></trkpt><trkpt lat="31.2868967" lon="-6.02674"><ele>1505.0</ele><time>2026-04-23T17:21:06.896Z</time></trkpt><trkpt lat="31.2867867" lon="-6.0268183"><ele>1505.0</ele><time>2026-04-23T17:21:07.896Z</time></trkpt><trkpt lat="31.286675" lon="-6.0268983"><ele>1505.0</ele><time>2026-04-23T17:21:08.897Z</time></trkpt><trkpt lat="31.2865617" lon="-6.0269883"><ele>1505.0</ele><time>2026-04-23T17:21:09.897Z</time></trkpt><trkpt lat="31.2864383" lon="-6.0270867"><ele>1505.0</ele><time>2026-04-23T17:21:10.897Z</time></trkpt><trkpt lat="31.2863133" lon="-6.0271917"><ele>1505.0</ele><time>2026-04-23T17:21:11.897Z</time></trkpt><trkpt lat="31.28618" lon="-6.027305"><ele>1504.3333333333335</ele><time>2026-04-23T17:21:12.897Z</time></trkpt><trkpt lat="31.2860517" lon="-6.027425"><ele>1503.6666666666667</ele><time>2026-04-23T17:21:13.897Z</time></trkpt><trkpt lat="31.2859333" lon="-6.0275467"><ele>1503.0</ele><time>2026-04-23T17:21:14.896Z</time></trkpt><trkpt lat="31.28581" lon="-6.02765"><ele>1503.0</ele><time>2026-04-23T17:21:15.896Z</time></trkpt><trkpt lat="31.2856917" lon="-6.0277567"><ele>1503.0</ele><time>2026-04-23T17:21:16.897Z</time></trkpt><trkpt lat="31.2855817" lon="-6.0278467"><ele>1503.0</ele><time>2026-04-23T17:21:17.897Z</time></trkpt><trkpt lat="31.28547" lon="-6.0279467"><ele>1503.0</ele><time>2026-04-23T17:21:18.897Z</time></trkpt><trkpt lat="31.285365" lon="-6.0280467"><ele>1503.5</ele><time>2026-04-23T17:21:19.897Z</time></trkpt><trkpt lat="31.2852633" lon="-6.0281483"><ele>1504.0</ele><time>2026-04-23T17:21:20.897Z</time></trkpt><trkpt lat="31.2851567" lon="-6.0282533"><ele>1504.5</ele><time>2026-04-23T17:21:21.897Z</time></trkpt><trkpt lat="31.2850483" lon="-6.0283617"><ele>1505.0</ele><time>2026-04-23T17:21:22.897Z</time></trkpt><trkpt lat="31.284935" lon="-6.028465"><ele>1505.25</ele><time>2026-04-23T17:21:23.897Z</time></trkpt><trkpt lat="31.2848183" lon="-6.028575"><ele>1505.5</ele><time>2026-04-23T17:21:24.897Z</time></trkpt><trkpt lat="31.2847083" lon="-6.0286767"><ele>1505.75</ele><time>2026-04-23T17:21:25.896Z</time></trkpt><trkpt lat="31.2846017" lon="-6.0287767"><ele>1506.0</ele><time>2026-04-23T17:21:26.897Z</time></trkpt><trkpt lat="31.2844967" lon="-6.0288817"><ele>1505.5</ele><time>2026-04-23T17:21:27.897Z</time></trkpt><trkpt lat="31.28439" lon="-6.028985"><ele>1505.0</ele><time>2026-04-23T17:21:28.897Z</time></trkpt><trkpt lat="31.28429" lon="-6.0290883"><ele>1504.5</ele><time>2026-04-23T17:21:29.897Z</time></trkpt><trkpt lat="31.2841833" lon="-6.0291867"><ele>1504.0</ele><time>2026-04-23T17:21:30.897Z</time></trkpt><trkpt lat="31.284075" lon="-6.0292867"><ele>1504.0</ele><time>2026-04-23T17:21:31.897Z</time></trkpt><trkpt lat="31.2839667" lon="-6.0293867"><ele>1504.0</ele><time>2026-04-23T17:21:32.897Z</time></trkpt><trkpt lat="31.2838533" lon="-6.0294967"><ele>1504.0</ele><time>2026-04-23T17:21:33.897Z</time></trkpt><trkpt lat="31.2837417" lon="-6.0296083"><ele>1504.0</ele><time>2026-04-23T17:21:34.896Z</time></trkpt><trkpt lat="31.2836217" lon="-6.0297217"><ele>1503.3333333333333</ele><time>2026-04-23T17:21:35.897Z</time></trkpt><trkpt lat="31.283495" lon="-6.0298283"><ele>1502.6666666666667</ele><time>2026-04-23T17:21:36.897Z</time></trkpt><trkpt lat="31.2833717" lon="-6.029935"><ele>1502.0</ele><time>2026-04-23T17:21:37.896Z</time></trkpt><trkpt lat="31.283255" lon="-6.030035"><ele>1502.0</ele><time>2026-04-23T17:21:38.897Z</time></trkpt><trkpt lat="31.2831367" lon="-6.0301267"><ele>1502.0</ele><time>2026-04-23T17:21:39.897Z</time></trkpt><trkpt lat="31.28302" lon="-6.03022"><ele>1502.0</ele><time>2026-04-23T17:21:40.895Z</time></trkpt><trkpt lat="31.2829017" lon="-6.03032"><ele>1502.0</ele><time>2026-04-23T17:21:41.896Z</time></trkpt><trkpt lat="31.28279" lon="-6.03042"><ele>1502.0</ele><time>2026-04-23T17:21:42.896Z</time></trkpt><trkpt lat="31.2826783" lon="-6.03053"><ele>1502.0</ele><time>2026-04-23T17:21:43.896Z</time></trkpt><trkpt lat="31.2825633" lon="-6.03064"><ele>1502.0</ele><time>2026-04-23T17:21:44.896Z</time></trkpt><trkpt lat="31.28245" lon="-6.030755"><ele>1502.0</ele><time>2026-04-23T17:21:45.896Z</time></trkpt><trkpt lat="31.2823417" lon="-6.0308617"><ele>1501.75</ele><time>2026-04-23T17:21:46.896Z</time></trkpt><trkpt lat="31.282235" lon="-6.0309683"><ele>1501.5</ele><time>2026-04-23T17:21:47.895Z</time></trkpt><trkpt lat="31.2821217" lon="-6.03107"><ele>1501.25</ele><time>2026-04-23T17:21:48.896Z</time></trkpt><trkpt lat="31.28201" lon="-6.0311767"><ele>1501.0</ele><time>2026-04-23T17:21:49.896Z</time></trkpt><trkpt lat="31.281895" lon="-6.0312817"><ele>1501.0</ele><time>2026-04-23T17:21:50.896Z</time></trkpt><trkpt lat="31.28178" lon="-6.0313917"><ele>1501.0</ele><time>2026-04-23T17:21:51.896Z</time></trkpt><trkpt lat="31.2816683" lon="-6.0314933"><ele>1501.0</ele><time>2026-04-23T17:21:52.896Z</time></trkpt><trkpt lat="31.2815583" lon="-6.0315983"><ele>1501.0</ele><time>2026-04-23T17:21:53.896Z</time></trkpt><trkpt lat="31.2814417" lon="-6.0317083"><ele>1501.3333333333333</ele><time>2026-04-23T17:21:54.895Z</time></trkpt><trkpt lat="31.2813217" lon="-6.0318183"><ele>1501.6666666666667</ele><time>2026-04-23T17:21:55.896Z</time></trkpt><trkpt lat="31.2812" lon="-6.0319267"><ele>1502.0</ele><time>2026-04-23T17:21:56.896Z</time></trkpt><trkpt lat="31.2810717" lon="-6.0320367"><ele>1502.0</ele><time>2026-04-23T17:21:57.896Z</time></trkpt><trkpt lat="31.2809433" lon="-6.0321433"><ele>1502.0</ele><time>2026-04-23T17:21:58.896Z</time></trkpt><trkpt lat="31.2808233" lon="-6.032255"><ele>1502.0</ele><time>2026-04-23T17:21:59.896Z</time></trkpt><trkpt lat="31.2807067" lon="-6.0323567"><ele>1501.75</ele><time>2026-04-23T17:22:00.895Z</time></trkpt><trkpt lat="31.2805917" lon="-6.0324583"><ele>1501.5</ele><time>2026-04-23T17:22:01.895Z</time></trkpt><trkpt lat="31.280475" lon="-6.0325583"><ele>1501.25</ele><time>2026-04-23T17:22:02.895Z</time></trkpt><trkpt lat="31.2803517" lon="-6.032665"><ele>1501.0</ele><time>2026-04-23T17:22:03.896Z</time></trkpt><trkpt lat="31.2802417" lon="-6.0327683"><ele>1501.0</ele><time>2026-04-23T17:22:04.896Z</time></trkpt><trkpt lat="31.2801183" lon="-6.0328767"><ele>1501.0</ele><time>2026-04-23T17:22:05.896Z</time></trkpt><trkpt lat="31.2800017" lon="-6.0329833"><ele>1501.0</ele><time>2026-04-23T17:22:06.895Z</time></trkpt><trkpt lat="31.27988" lon="-6.03309"><ele>1500.6666666666665</ele><time>2026-04-23T17:22:07.895Z</time></trkpt><trkpt lat="31.2797517" lon="-6.0331933"><ele>1500.3333333333333</ele><time>2026-04-23T17:22:08.896Z</time></trkpt><trkpt lat="31.2796267" lon="-6.03331"><ele>1500.0</ele><time>2026-04-23T17:22:09.896Z</time></trkpt><trkpt lat="31.2795" lon="-6.0334233"><ele>1499.6666666666667</ele><time>2026-04-23T17:22:10.896Z</time></trkpt><trkpt lat="31.2793783" lon="-6.033535"><ele>1499.3333333333335</ele><time>2026-04-23T17:22:11.895Z</time></trkpt><trkpt lat="31.2792583" lon="-6.03365"><ele>1499.0</ele><time>2026-04-23T17:22:12.896Z</time></trkpt><trkpt lat="31.2791333" lon="-6.0337667"><ele>1499.0</ele><time>2026-04-23T17:22:13.896Z</time></trkpt><trkpt lat="31.279015" lon="-6.0338833"><ele>1499.0</ele><time>2026-04-23T17:22:14.895Z</time></trkpt><trkpt lat="31.2788933" lon="-6.0340033"><ele>1499.0</ele><time>2026-04-23T17:22:15.895Z</time></trkpt><trkpt lat="31.2787683" lon="-6.0341167"><ele>1499.0</ele><time>2026-04-23T17:22:16.896Z</time></trkpt><trkpt lat="31.2786483" lon="-6.034225"><ele>1499.0</ele><time>2026-04-23T17:22:17.896Z</time></trkpt><trkpt lat="31.27853" lon="-6.034325"><ele>1499.0</ele><time>2026-04-23T17:22:18.896Z</time></trkpt><trkpt lat="31.2784117" lon="-6.0344317"><ele>1499.0</ele><time>2026-04-23T17:22:19.896Z</time></trkpt><trkpt lat="31.2782967" lon="-6.034545"><ele>1499.0</ele><time>2026-04-23T17:22:20.896Z</time></trkpt><trkpt lat="31.2781767" lon="-6.0346483"><ele>1499.0</ele><time>2026-04-23T17:22:21.896Z</time></trkpt><trkpt lat="31.278055" lon="-6.0347517"><ele>1499.0</ele><time>2026-04-23T17:22:22.896Z</time></trkpt><trkpt lat="31.2779333" lon="-6.0348567"><ele>1498.5</ele><time>2026-04-23T17:22:23.896Z</time></trkpt><trkpt lat="31.2778233" lon="-6.034955"><ele>1498.0</ele><time>2026-04-23T17:22:24.896Z</time></trkpt><trkpt lat="31.2777" lon="-6.035065"><ele>1497.5</ele><time>2026-04-23T17:22:25.896Z</time></trkpt><trkpt lat="31.2775817" lon="-6.035175"><ele>1497.0</ele><time>2026-04-23T17:22:26.895Z</time></trkpt><trkpt lat="31.2774617" lon="-6.03529"><ele>1497.0</ele><time>2026-04-23T17:22:27.896Z</time></trkpt><trkpt lat="31.27734" lon="-6.0354017"><ele>1497.0</ele><time>2026-04-23T17:22:28.896Z</time></trkpt><trkpt lat="31.2772183" lon="-6.0355283"><ele>1497.0</ele><time>2026-04-23T17:22:29.896Z</time></trkpt><trkpt lat="31.2771033" lon="-6.03566"><ele>1497.0</ele><time>2026-04-23T17:22:30.895Z</time></trkpt><trkpt lat="31.2769883" lon="-6.0357867"><ele>1497.0</ele><time>2026-04-23T17:22:31.896Z</time></trkpt><trkpt lat="31.27687" lon="-6.0359067"><ele>1497.0</ele><time>2026-04-23T17:22:32.896Z</time></trkpt><trkpt lat="31.27676" lon="-6.0360283"><ele>1497.3333333333333</ele><time>2026-04-23T17:22:33.895Z</time></trkpt><trkpt lat="31.2766433" lon="-6.0361567"><ele>1497.6666666666665</ele><time>2026-04-23T17:22:34.895Z</time></trkpt><trkpt lat="31.2765217" lon="-6.0362817"><ele>1498.0</ele><time>2026-04-23T17:22:35.896Z</time></trkpt><trkpt lat="31.2764033" lon="-6.0364067"><ele>1497.25</ele><time>2026-04-23T17:22:36.895Z</time></trkpt><trkpt lat="31.2762967" lon="-6.036525"><ele>1496.5</ele><time>2026-04-23T17:22:37.896Z</time></trkpt><trkpt lat="31.2761883" lon="-6.0366367"><ele>1495.75</ele><time>2026-04-23T17:22:38.896Z</time></trkpt><trkpt lat="31.2760883" lon="-6.0367433"><ele>1495.0</ele><time>2026-04-23T17:22:39.895Z</time></trkpt><trkpt lat="31.2759933" lon="-6.0368483"><ele>1495.0</ele><time>2026-04-23T17:22:40.896Z</time></trkpt><trkpt lat="31.2758967" lon="-6.03695"><ele>1495.0</ele><time>2026-04-23T17:22:41.896Z</time></trkpt><trkpt lat="31.2758067" lon="-6.037045"><ele>1495.0</ele><time>2026-04-23T17:22:42.896Z</time></trkpt><trkpt lat="31.2757217" lon="-6.0371433"><ele>1495.0</ele><time>2026-04-23T17:22:43.895Z</time></trkpt><trkpt lat="31.2756333" lon="-6.0372467"><ele>1494.5</ele><time>2026-04-23T17:22:44.896Z</time></trkpt><trkpt lat="31.2755383" lon="-6.0373467"><ele>1494.0</ele><time>2026-04-23T17:22:45.896Z</time></trkpt><trkpt lat="31.275445" lon="-6.0374467"><ele>1493.5</ele><time>2026-04-23T17:22:46.896Z</time></trkpt><trkpt lat="31.2753483" lon="-6.0375433"><ele>1493.0</ele><time>2026-04-23T17:22:47.895Z</time></trkpt><trkpt lat="31.27526" lon="-6.0376483"><ele>1493.0</ele><time>2026-04-23T17:22:48.895Z</time></trkpt><trkpt lat="31.27517" lon="-6.0377617"><ele>1493.0</ele><time>2026-04-23T17:22:49.896Z</time></trkpt><trkpt lat="31.2750817" lon="-6.0378783"><ele>1493.0</ele><time>2026-04-23T17:22:50.896Z</time></trkpt><trkpt lat="31.2749967" lon="-6.0379883"><ele>1493.0</ele><time>2026-04-23T17:22:51.896Z</time></trkpt><trkpt lat="31.27492" lon="-6.038095"><ele>1493.0</ele><time>2026-04-23T17:22:52.896Z</time></trkpt><trkpt lat="31.2748567" lon="-6.0381867"><ele>1493.0</ele><time>2026-04-23T17:22:53.896Z</time></trkpt><trkpt lat="31.2747933" lon="-6.0382683"><ele>1493.0</ele><time>2026-04-23T17:22:54.896Z</time></trkpt><trkpt lat="31.2747483" lon="-6.0383367"><ele>1493.0</ele><time>2026-04-23T17:22:55.896Z</time></trkpt><trkpt lat="31.2747017" lon="-6.0383867"><ele>1493.0</ele><time>2026-04-23T17:22:56.896Z</time></trkpt><trkpt lat="31.2746367" lon="-6.038485"><ele>1493.0</ele><time>2026-04-23T17:23:21.895Z</time></trkpt><trkpt lat="31.27458" lon="-6.0385517"><ele>1492.0</ele><time>2026-04-23T17:23:22.896Z</time></trkpt><trkpt lat="31.2745083" lon="-6.0386483"><ele>1491.0</ele><time>2026-04-23T17:23:23.895Z</time></trkpt><trkpt lat="31.2744217" lon="-6.0387517"><ele>1490.0</ele><time>2026-04-23T17:23:24.895Z</time></trkpt><trkpt lat="31.274325" lon="-6.0388617"><ele>1489.0</ele><time>2026-04-23T17:23:25.896Z</time></trkpt><trkpt lat="31.274215" lon="-6.0389733"><ele>1489.0</ele><time>2026-04-23T17:23:26.896Z</time></trkpt><trkpt lat="31.274095" lon="-6.039085"><ele>1489.0</ele><time>2026-04-23T17:23:27.895Z</time></trkpt><trkpt lat="31.2739667" lon="-6.0392033"><ele>1489.0</ele><time>2026-04-23T17:23:28.895Z</time></trkpt><trkpt lat="31.2738333" lon="-6.03932"><ele>1489.0</ele><time>2026-04-23T17:23:29.896Z</time></trkpt><trkpt lat="31.2736867" lon="-6.03943"><ele>1489.0</ele><time>2026-04-23T17:23:30.896Z</time></trkpt><trkpt lat="31.2735417" lon="-6.0395333"><ele>1489.0</ele><time>2026-04-23T17:23:31.895Z</time></trkpt><trkpt lat="31.2734" lon="-6.0396367"><ele>1489.0</ele><time>2026-04-23T17:23:32.896Z</time></trkpt><trkpt lat="31.2732517" lon="-6.0397433"><ele>1489.0</ele><time>2026-04-23T17:23:33.895Z</time></trkpt><trkpt lat="31.2731033" lon="-6.03986"><ele>1489.0</ele><time>2026-04-23T17:23:34.896Z</time></trkpt><trkpt lat="31.2729617" lon="-6.0399817"><ele>1489.6666666666665</ele><time>2026-04-23T17:23:35.896Z</time></trkpt><trkpt lat="31.2728167" lon="-6.0401033"><ele>1490.3333333333333</ele><time>2026-04-23T17:23:36.896Z</time></trkpt><trkpt lat="31.2726783" lon="-6.0402267"><ele>1491.0</ele><time>2026-04-23T17:23:37.895Z</time></trkpt><trkpt lat="31.2725367" lon="-6.0403517"><ele>1491.0</ele><time>2026-04-23T17:23:38.896Z</time></trkpt><trkpt lat="31.2724033" lon="-6.0404733"><ele>1491.0</ele><time>2026-04-23T17:23:39.896Z</time></trkpt><trkpt lat="31.2722717" lon="-6.040585"><ele>1491.0</ele><time>2026-04-23T17:23:40.896Z</time></trkpt><trkpt lat="31.27215" lon="-6.040685"><ele>1491.0</ele><time>2026-04-23T17:23:41.896Z</time></trkpt><trkpt lat="31.27202" lon="-6.0407883"><ele>1491.0</ele><time>2026-04-23T17:23:42.895Z</time></trkpt><trkpt lat="31.2718917" lon="-6.0408933"><ele>1491.0</ele><time>2026-04-23T17:23:43.896Z</time></trkpt><trkpt lat="31.2717583" lon="-6.040995"><ele>1491.0</ele><time>2026-04-23T17:23:44.896Z</time></trkpt><trkpt lat="31.27163" lon="-6.0410933"><ele>1491.0</ele><time>2026-04-23T17:23:45.896Z</time></trkpt><trkpt lat="31.2715067" lon="-6.0411983"><ele>1491.0</ele><time>2026-04-23T17:23:46.896Z</time></trkpt><trkpt lat="31.27138" lon="-6.04132"><ele>1490.6666666666667</ele><time>2026-04-23T17:23:47.895Z</time></trkpt><trkpt lat="31.2712583" lon="-6.0414467"><ele>1490.3333333333335</ele><time>2026-04-23T17:23:48.896Z</time></trkpt><trkpt lat="31.27113" lon="-6.0415917"><ele>1490.0</ele><time>2026-04-23T17:23:49.896Z</time></trkpt><trkpt lat="31.2709917" lon="-6.0417483"><ele>1490.0</ele><time>2026-04-23T17:23:50.896Z</time></trkpt><trkpt lat="31.270845" lon="-6.041905"><ele>1490.0</ele><time>2026-04-23T17:23:51.895Z</time></trkpt><trkpt lat="31.2707017" lon="-6.0420667"><ele>1490.0</ele><time>2026-04-23T17:23:52.896Z</time></trkpt><trkpt lat="31.2705667" lon="-6.042225"><ele>1489.0</ele><time>2026-04-23T17:23:53.896Z</time></trkpt><trkpt lat="31.270435" lon="-6.042375"><ele>1488.0</ele><time>2026-04-23T17:23:54.896Z</time></trkpt><trkpt lat="31.2703117" lon="-6.042525"><ele>1487.0</ele><time>2026-04-23T17:23:55.895Z</time></trkpt><trkpt lat="31.2701967" lon="-6.0426733"><ele>1487.0</ele><time>2026-04-23T17:23:56.896Z</time></trkpt><trkpt lat="31.2700717" lon="-6.042825"><ele>1487.0</ele><time>2026-04-23T17:23:57.896Z</time></trkpt><trkpt lat="31.2699433" lon="-6.0429767"><ele>1487.0</ele><time>2026-04-23T17:23:58.896Z</time></trkpt><trkpt lat="31.2698233" lon="-6.0431183"><ele>1486.0</ele><time>2026-04-23T17:23:59.895Z</time></trkpt><trkpt lat="31.2697033" lon="-6.04325"><ele>1485.0</ele><time>2026-04-23T17:24:00.895Z</time></trkpt><trkpt lat="31.2695917" lon="-6.04337"><ele>1484.0</ele><time>2026-04-23T17:24:01.895Z</time></trkpt><trkpt lat="31.2694833" lon="-6.043495"><ele>1484.0</ele><time>2026-04-23T17:24:02.896Z</time></trkpt><trkpt lat="31.269375" lon="-6.0436117"><ele>1484.0</ele><time>2026-04-23T17:24:03.896Z</time></trkpt><trkpt lat="31.2692733" lon="-6.0437133"><ele>1484.0</ele><time>2026-04-23T17:24:04.896Z</time></trkpt><trkpt lat="31.2691717" lon="-6.0438117"><ele>1484.0</ele><time>2026-04-23T17:24:05.896Z</time></trkpt><trkpt lat="31.2690733" lon="-6.04392"><ele>1484.0</ele><time>2026-04-23T17:24:06.895Z</time></trkpt><trkpt lat="31.2689933" lon="-6.0440283"><ele>1484.0</ele><time>2026-04-23T17:24:07.895Z</time></trkpt><trkpt lat="31.2689167" lon="-6.044135"><ele>1484.0</ele><time>2026-04-23T17:24:08.896Z</time></trkpt><trkpt lat="31.2688583" lon="-6.0442567"><ele>1484.0</ele><time>2026-04-23T17:24:09.895Z</time></trkpt><trkpt lat="31.268795" lon="-6.0443633"><ele>1483.75</ele><time>2026-04-23T17:24:10.896Z</time></trkpt><trkpt lat="31.2687383" lon="-6.0444917"><ele>1483.5</ele><time>2026-04-23T17:24:11.896Z</time></trkpt><trkpt lat="31.2686733" lon="-6.044605"><ele>1483.25</ele><time>2026-04-23T17:24:12.896Z</time></trkpt><trkpt lat="31.2686117" lon="-6.0447067"><ele>1483.0</ele><time>2026-04-23T17:24:13.896Z</time></trkpt><trkpt lat="31.2685483" lon="-6.0448017"><ele>1483.0</ele><time>2026-04-23T17:24:14.896Z</time></trkpt><trkpt lat="31.268475" lon="-6.044905"><ele>1483.0</ele><time>2026-04-23T17:24:15.896Z</time></trkpt><trkpt lat="31.2684067" lon="-6.0449933"><ele>1483.0</ele><time>2026-04-23T17:24:16.896Z</time></trkpt><trkpt lat="31.2683233" lon="-6.0450667"><ele>1483.0</ele><time>2026-04-23T17:24:17.895Z</time></trkpt><trkpt lat="31.2682317" lon="-6.045105"><ele>1483.0</ele><time>2026-04-23T17:24:18.896Z</time></trkpt><trkpt lat="31.2681217" lon="-6.0451233"><ele>1481.25</ele><time>2026-04-23T17:24:19.896Z</time></trkpt><trkpt lat="31.268" lon="-6.045155"><ele>1479.5</ele><time>2026-04-23T17:24:20.896Z</time></trkpt><trkpt lat="31.2678817" lon="-6.0451867"><ele>1477.75</ele><time>2026-04-23T17:24:21.895Z</time></trkpt><trkpt lat="31.267765" lon="-6.0452267"><ele>1476.0</ele><time>2026-04-23T17:24:22.896Z</time></trkpt><trkpt lat="31.2676467" lon="-6.0452567"><ele>1476.0</ele><time>2026-04-23T17:24:23.895Z</time></trkpt><trkpt lat="31.2675283" lon="-6.0452867"><ele>1476.0</ele><time>2026-04-23T17:24:24.896Z</time></trkpt><trkpt lat="31.2674117" lon="-6.04531"><ele>1476.0</ele><time>2026-04-23T17:24:25.896Z</time></trkpt><trkpt lat="31.2673" lon="-6.04534"><ele>1476.0</ele><time>2026-04-23T17:24:26.896Z</time></trkpt><trkpt lat="31.2671867" lon="-6.0453783"><ele>1475.0</ele><time>2026-04-23T17:24:27.896Z</time></trkpt><trkpt lat="31.2670717" lon="-6.0454167"><ele>1474.0</ele><time>2026-04-23T17:24:28.896Z</time></trkpt><trkpt lat="31.26696" lon="-6.0454483"><ele>1473.0</ele><time>2026-04-23T17:24:29.896Z</time></trkpt><trkpt lat="31.26685" lon="-6.0454733"><ele>1472.0</ele><time>2026-04-23T17:24:30.896Z</time></trkpt><trkpt lat="31.2667367" lon="-6.0455017"><ele>1472.0</ele><time>2026-04-23T17:24:31.896Z</time></trkpt><trkpt lat="31.2666217" lon="-6.0455283"><ele>1472.0</ele><time>2026-04-23T17:24:32.896Z</time></trkpt><trkpt lat="31.2665167" lon="-6.0455567"><ele>1472.0</ele><time>2026-04-23T17:24:33.896Z</time></trkpt><trkpt lat="31.266415" lon="-6.0455933"><ele>1472.0</ele><time>2026-04-23T17:24:34.896Z</time></trkpt><trkpt lat="31.266315" lon="-6.0456333"><ele>1472.0</ele><time>2026-04-23T17:24:35.896Z</time></trkpt><trkpt lat="31.2662133" lon="-6.04568"><ele>1470.8</ele><time>2026-04-23T17:24:36.896Z</time></trkpt><trkpt lat="31.2661217" lon="-6.04573"><ele>1469.6</ele><time>2026-04-23T17:24:37.896Z</time></trkpt><trkpt lat="31.2660383" lon="-6.0457883"><ele>1468.3999999999999</ele><time>2026-04-23T17:24:38.895Z</time></trkpt><trkpt lat="31.265965" lon="-6.0458517"><ele>1467.1999999999998</ele><time>2026-04-23T17:24:39.896Z</time></trkpt><trkpt lat="31.2658933" lon="-6.0459067"><ele>1466.0</ele><time>2026-04-23T17:24:40.895Z</time></trkpt><trkpt lat="31.265815" lon="-6.0459633"><ele>1466.0</ele><time>2026-04-23T17:24:41.895Z</time></trkpt><trkpt lat="31.265745" lon="-6.0460233"><ele>1466.0</ele><time>2026-04-23T17:24:42.896Z</time></trkpt><trkpt lat="31.2656867" lon="-6.046085"><ele>1466.0</ele><time>2026-04-23T17:24:43.896Z</time></trkpt><trkpt lat="31.2656233" lon="-6.0461417"><ele>1466.0</ele><time>2026-04-23T17:24:44.895Z</time></trkpt><trkpt lat="31.265565" lon="-6.0461967"><ele>1466.0</ele><time>2026-04-23T17:24:45.896Z</time></trkpt><trkpt lat="31.265505" lon="-6.0462617"><ele>1466.0</ele><time>2026-04-23T17:24:46.896Z</time></trkpt><trkpt lat="31.2654417" lon="-6.0463217"><ele>1465.1666666666667</ele><time>2026-04-23T17:24:47.896Z</time></trkpt><trkpt lat="31.265375" lon="-6.0463617"><ele>1464.3333333333335</ele><time>2026-04-23T17:24:48.896Z</time></trkpt><trkpt lat="31.2653033" lon="-6.0464033"><ele>1463.5</ele><time>2026-04-23T17:24:49.895Z</time></trkpt><trkpt lat="31.2652233" lon="-6.0464483"><ele>1462.6666666666667</ele><time>2026-04-23T17:24:50.895Z</time></trkpt><trkpt lat="31.265155" lon="-6.0464817"><ele>1461.8333333333333</ele><time>2026-04-23T17:24:51.896Z</time></trkpt><trkpt lat="31.2650917" lon="-6.0465"><ele>1461.0</ele><time>2026-04-23T17:24:52.896Z</time></trkpt><trkpt lat="31.2650233" lon="-6.046515"><ele>1461.0</ele><time>2026-04-23T17:24:53.896Z</time></trkpt><trkpt lat="31.2649633" lon="-6.0465417"><ele>1461.0</ele><time>2026-04-23T17:24:54.896Z</time></trkpt><trkpt lat="31.2649017" lon="-6.0465717"><ele>1461.0</ele><time>2026-04-23T17:24:55.895Z</time></trkpt><trkpt lat="31.264835" lon="-6.0466083"><ele>1461.0</ele><time>2026-04-23T17:24:56.896Z</time></trkpt><trkpt lat="31.26477" lon="-6.046645"><ele>1461.0</ele><time>2026-04-23T17:24:57.896Z</time></trkpt><trkpt lat="31.2646983" lon="-6.0466883"><ele>1461.0</ele><time>2026-04-23T17:24:58.896Z</time></trkpt><trkpt lat="31.26462" lon="-6.046735"><ele>1461.0</ele><time>2026-04-23T17:24:59.896Z</time></trkpt><trkpt lat="31.2645367" lon="-6.0467833"><ele>1461.0</ele><time>2026-04-23T17:25:00.896Z</time></trkpt><trkpt lat="31.264455" lon="-6.04683"><ele>1461.0</ele><time>2026-04-23T17:25:01.896Z</time></trkpt><trkpt lat="31.2643817" lon="-6.0468767"><ele>1461.0</ele><time>2026-04-23T17:25:02.895Z</time></trkpt><trkpt lat="31.2643167" lon="-6.0469283"><ele>1461.0</ele><time>2026-04-23T17:25:03.895Z</time></trkpt><trkpt lat="31.2642517" lon="-6.0469867"><ele>1461.0</ele><time>2026-04-23T17:25:04.896Z</time></trkpt><trkpt lat="31.2641983" lon="-6.0470583"><ele>1461.0</ele><time>2026-04-23T17:25:05.896Z</time></trkpt><trkpt lat="31.26414" lon="-6.047155"><ele>1461.0</ele><time>2026-04-23T17:25:06.896Z</time></trkpt><trkpt lat="31.2640883" lon="-6.047255"><ele>1461.0</ele><time>2026-04-23T17:25:07.895Z</time></trkpt><trkpt lat="31.2640367" lon="-6.04735"><ele>1461.0</ele><time>2026-04-23T17:25:08.896Z</time></trkpt><trkpt lat="31.263985" lon="-6.04744"><ele>1461.0</ele><time>2026-04-23T17:25:09.895Z</time></trkpt><trkpt lat="31.263935" lon="-6.04752"><ele>1461.0</ele><time>2026-04-23T17:25:10.895Z</time></trkpt><trkpt lat="31.2638933" lon="-6.0476067"><ele>1461.6</ele><time>2026-04-23T17:25:11.896Z</time></trkpt><trkpt lat="31.2638583" lon="-6.0477"><ele>1462.1999999999998</ele><time>2026-04-23T17:25:12.895Z</time></trkpt><trkpt lat="31.2638317" lon="-6.047795"><ele>1462.8000000000002</ele><time>2026-04-23T17:25:13.896Z</time></trkpt><trkpt lat="31.2638117" lon="-6.0478917"><ele>1463.4</ele><time>2026-04-23T17:25:14.896Z</time></trkpt><trkpt lat="31.2637917" lon="-6.0480083"><ele>1464.0</ele><time>2026-04-23T17:25:15.896Z</time></trkpt><trkpt lat="31.2637767" lon="-6.04812"><ele>1464.0</ele><time>2026-04-23T17:25:16.896Z</time></trkpt><trkpt lat="31.2637683" lon="-6.048225"><ele>1464.0</ele><time>2026-04-23T17:25:17.896Z</time></trkpt><trkpt lat="31.2637583" lon="-6.048325"><ele>1464.0</ele><time>2026-04-23T17:25:18.896Z</time></trkpt><trkpt lat="31.2637333" lon="-6.0484117"><ele>1464.0</ele><time>2026-04-23T17:25:19.896Z</time></trkpt><trkpt lat="31.2637067" lon="-6.0484917"><ele>1464.0</ele><time>2026-04-23T17:25:20.896Z</time></trkpt><trkpt lat="31.2636617" lon="-6.0485683"><ele>1464.0</ele><time>2026-04-23T17:25:21.895Z</time></trkpt><trkpt lat="31.26361" lon="-6.0486333"><ele>1464.5</ele><time>2026-04-23T17:25:22.896Z</time></trkpt><trkpt lat="31.26355" lon="-6.0486933"><ele>1465.0</ele><time>2026-04-23T17:25:23.896Z</time></trkpt><trkpt lat="31.2634867" lon="-6.0487467"><ele>1465.5</ele><time>2026-04-23T17:25:24.896Z</time></trkpt><trkpt lat="31.2634217" lon="-6.048805"><ele>1466.0</ele><time>2026-04-23T17:25:25.896Z</time></trkpt><trkpt lat="31.2633433" lon="-6.04884"><ele>1466.5</ele><time>2026-04-23T17:25:26.895Z</time></trkpt><trkpt lat="31.2632633" lon="-6.048895"><ele>1467.0</ele><time>2026-04-23T17:25:27.896Z</time></trkpt><trkpt lat="31.263185" lon="-6.0489367"><ele>1467.0</ele><time>2026-04-23T17:25:28.896Z</time></trkpt><trkpt lat="31.2631" lon="-6.04898"><ele>1467.0</ele><time>2026-04-23T17:25:29.896Z</time></trkpt><trkpt lat="31.2630133" lon="-6.0490083"><ele>1467.0</ele><time>2026-04-23T17:25:30.895Z</time></trkpt><trkpt lat="31.2629267" lon="-6.0490233"><ele>1467.0</ele><time>2026-04-23T17:25:31.896Z</time></trkpt><trkpt lat="31.2628467" lon="-6.0490267"><ele>1467.0</ele><time>2026-04-23T17:25:32.895Z</time></trkpt><trkpt lat="31.262755" lon="-6.0490133"><ele>1467.0</ele><time>2026-04-23T17:25:33.896Z</time></trkpt><trkpt lat="31.2626583" lon="-6.0489883"><ele>1467.0</ele><time>2026-04-23T17:25:34.896Z</time></trkpt><trkpt lat="31.2625617" lon="-6.0489617"><ele>1467.0</ele><time>2026-04-23T17:25:35.895Z</time></trkpt><trkpt lat="31.2624767" lon="-6.0489367"><ele>1467.0</ele><time>2026-04-23T17:25:36.896Z</time></trkpt><trkpt lat="31.26239" lon="-6.0489"><ele>1467.0</ele><time>2026-04-23T17:25:37.896Z</time></trkpt><trkpt lat="31.2623017" lon="-6.048865"><ele>1467.0</ele><time>2026-04-23T17:25:38.895Z</time></trkpt><trkpt lat="31.2622117" lon="-6.0488267"><ele>1467.1999999999998</ele><time>2026-04-23T17:25:39.896Z</time></trkpt><trkpt lat="31.262125" lon="-6.04878"><ele>1467.4</ele><time>2026-04-23T17:25:40.895Z</time></trkpt><trkpt lat="31.2620367" lon="-6.0487517"><ele>1467.6</ele><time>2026-04-23T17:25:41.896Z</time></trkpt><trkpt lat="31.2619417" lon="-6.0487383"><ele>1467.8000000000002</ele><time>2026-04-23T17:25:42.896Z</time></trkpt><trkpt lat="31.26185" lon="-6.0487717"><ele>1468.0</ele><time>2026-04-23T17:25:43.896Z</time></trkpt><trkpt lat="31.261755" lon="-6.04882"><ele>1468.0</ele><time>2026-04-23T17:25:44.896Z</time></trkpt><trkpt lat="31.2616683" lon="-6.04889"><ele>1468.0</ele><time>2026-04-23T17:25:45.896Z</time></trkpt><trkpt lat="31.2615717" lon="-6.0489717"><ele>1468.0</ele><time>2026-04-23T17:25:46.896Z</time></trkpt><trkpt lat="31.2614767" lon="-6.04906"><ele>1468.0</ele><time>2026-04-23T17:25:47.896Z</time></trkpt><trkpt lat="31.261385" lon="-6.0491433"><ele>1467.2</ele><time>2026-04-23T17:25:48.895Z</time></trkpt><trkpt lat="31.2612983" lon="-6.049225"><ele>1466.4</ele><time>2026-04-23T17:25:49.896Z</time></trkpt><trkpt lat="31.2612117" lon="-6.049295"><ele>1465.6000000000001</ele><time>2026-04-23T17:25:50.896Z</time></trkpt><trkpt lat="31.26112" lon="-6.04937"><ele>1464.8000000000002</ele><time>2026-04-23T17:25:51.896Z</time></trkpt><trkpt lat="31.2610417" lon="-6.0494333"><ele>1464.0</ele><time>2026-04-23T17:25:52.896Z</time></trkpt><trkpt lat="31.2609567" lon="-6.049485"><ele>1464.0</ele><time>2026-04-23T17:25:53.896Z</time></trkpt><trkpt lat="31.2608767" lon="-6.04952"><ele>1464.0</ele><time>2026-04-23T17:25:54.896Z</time></trkpt><trkpt lat="31.2607933" lon="-6.04953"><ele>1464.0</ele><time>2026-04-23T17:25:55.896Z</time></trkpt><trkpt lat="31.2607017" lon="-6.049515"><ele>1464.0</ele><time>2026-04-23T17:25:56.896Z</time></trkpt><trkpt lat="31.2606117" lon="-6.049485"><ele>1464.0</ele><time>2026-04-23T17:25:57.896Z</time></trkpt><trkpt lat="31.2605233" lon="-6.049445"><ele>1462.0</ele><time>2026-04-23T17:25:58.896Z</time></trkpt><trkpt lat="31.2604467" lon="-6.0493867"><ele>1460.0</ele><time>2026-04-23T17:25:59.896Z</time></trkpt><trkpt lat="31.2603817" lon="-6.0493117"><ele>1458.0</ele><time>2026-04-23T17:26:00.896Z</time></trkpt><trkpt lat="31.2603267" lon="-6.0492267"><ele>1456.0</ele><time>2026-04-23T17:26:01.896Z</time></trkpt><trkpt lat="31.2603017" lon="-6.0491283"><ele>1454.0</ele><time>2026-04-23T17:26:02.896Z</time></trkpt><trkpt lat="31.2602867" lon="-6.049025"><ele>1454.0</ele><time>2026-04-23T17:26:03.896Z</time></trkpt><trkpt lat="31.260275" lon="-6.0489233"><ele>1454.0</ele><time>2026-04-23T17:26:04.895Z</time></trkpt><trkpt lat="31.26027" lon="-6.0488133"><ele>1454.0</ele><time>2026-04-23T17:26:05.895Z</time></trkpt><trkpt lat="31.2602733" lon="-6.0487033"><ele>1454.0</ele><time>2026-04-23T17:26:06.895Z</time></trkpt><trkpt lat="31.260285" lon="-6.0485867"><ele>1454.0</ele><time>2026-04-23T17:26:07.896Z</time></trkpt><trkpt lat="31.260295" lon="-6.0484667"><ele>1454.0</ele><time>2026-04-23T17:26:08.896Z</time></trkpt><trkpt lat="31.2603033" lon="-6.04835"><ele>1454.0</ele><time>2026-04-23T17:26:09.895Z</time></trkpt><trkpt lat="31.2603" lon="-6.0482383"><ele>1454.0</ele><time>2026-04-23T17:26:10.896Z</time></trkpt><trkpt lat="31.2603067" lon="-6.0481267"><ele>1454.0</ele><time>2026-04-23T17:26:11.896Z</time></trkpt><trkpt lat="31.2603217" lon="-6.04802"><ele>1454.0</ele><time>2026-04-23T17:26:12.896Z</time></trkpt><trkpt lat="31.2603467" lon="-6.0479133"><ele>1453.6</ele><time>2026-04-23T17:26:13.896Z</time></trkpt><trkpt lat="31.2603783" lon="-6.0478217"><ele>1453.2</ele><time>2026-04-23T17:26:14.896Z</time></trkpt><trkpt lat="31.2604183" lon="-6.04773"><ele>1452.8</ele><time>2026-04-23T17:26:15.895Z</time></trkpt><trkpt lat="31.2604583" lon="-6.0476333"><ele>1452.3999999999999</ele><time>2026-04-23T17:26:16.896Z</time></trkpt><trkpt lat="31.2604933" lon="-6.0475233"><ele>1452.0</ele><time>2026-04-23T17:26:17.895Z</time></trkpt><trkpt lat="31.2605283" lon="-6.0474017"><ele>1451.75</ele><time>2026-04-23T17:26:18.896Z</time></trkpt><trkpt lat="31.260565" lon="-6.0472767"><ele>1451.5</ele><time>2026-04-23T17:26:19.896Z</time></trkpt><trkpt lat="31.2606033" lon="-6.0471433"><ele>1451.25</ele><time>2026-04-23T17:26:20.896Z</time></trkpt><trkpt lat="31.2606367" lon="-6.04701"><ele>1451.0</ele><time>2026-04-23T17:26:21.896Z</time></trkpt><trkpt lat="31.2606667" lon="-6.0468883"><ele>1450.8333333333335</ele><time>2026-04-23T17:26:22.896Z</time></trkpt><trkpt lat="31.260695" lon="-6.0467733"><ele>1450.6666666666667</ele><time>2026-04-23T17:26:23.895Z</time></trkpt><trkpt lat="31.26071" lon="-6.046665"><ele>1450.5</ele><time>2026-04-23T17:26:24.896Z</time></trkpt><trkpt lat="31.26071" lon="-6.0465633"><ele>1450.3333333333333</ele><time>2026-04-23T17:26:25.895Z</time></trkpt><trkpt lat="31.260695" lon="-6.0464767"><ele>1450.1666666666665</ele><time>2026-04-23T17:26:26.896Z</time></trkpt><trkpt lat="31.2606517" lon="-6.0464033"><ele>1450.0</ele><time>2026-04-23T17:26:27.895Z</time></trkpt><trkpt lat="31.2606" lon="-6.04634"><ele>1450.0</ele><time>2026-04-23T17:26:28.896Z</time></trkpt><trkpt lat="31.2605267" lon="-6.04631"><ele>1450.0</ele><time>2026-04-23T17:26:29.896Z</time></trkpt><trkpt lat="31.2604317" lon="-6.04629"><ele>1450.0</ele><time>2026-04-23T17:26:30.896Z</time></trkpt><trkpt lat="31.260325" lon="-6.046265"><ele>1450.0</ele><time>2026-04-23T17:26:31.896Z</time></trkpt><trkpt lat="31.260205" lon="-6.0462317"><ele>1450.0</ele><time>2026-04-23T17:26:32.896Z</time></trkpt><trkpt lat="31.2600833" lon="-6.0461867"><ele>1450.0</ele><time>2026-04-23T17:26:33.895Z</time></trkpt><trkpt lat="31.2599417" lon="-6.046135"><ele>1450.0</ele><time>2026-04-23T17:26:34.895Z</time></trkpt><trkpt lat="31.2597933" lon="-6.046085"><ele>1450.0</ele><time>2026-04-23T17:26:35.896Z</time></trkpt><trkpt lat="31.2596317" lon="-6.046025"><ele>1448.3333333333333</ele><time>2026-04-23T17:26:36.896Z</time></trkpt><trkpt lat="31.2594617" lon="-6.0459567"><ele>1446.6666666666667</ele><time>2026-04-23T17:26:37.895Z</time></trkpt><trkpt lat="31.259285" lon="-6.0458917"><ele>1445.0</ele><time>2026-04-23T17:26:38.895Z</time></trkpt><trkpt lat="31.2591017" lon="-6.045825"><ele>1445.6666666666667</ele><time>2026-04-23T17:26:39.896Z</time></trkpt><trkpt lat="31.258915" lon="-6.045755"><ele>1446.3333333333333</ele><time>2026-04-23T17:26:40.896Z</time></trkpt><trkpt lat="31.25874" lon="-6.0456933"><ele>1447.0</ele><time>2026-04-23T17:26:41.896Z</time></trkpt><trkpt lat="31.2585717" lon="-6.0456333"><ele>1447.0</ele><time>2026-04-23T17:26:42.895Z</time></trkpt><trkpt lat="31.25842" lon="-6.0455833"><ele>1447.0</ele><time>2026-04-23T17:26:43.896Z</time></trkpt><trkpt lat="31.258275" lon="-6.0455317"><ele>1447.0</ele><time>2026-04-23T17:26:44.896Z</time></trkpt><trkpt lat="31.2581383" lon="-6.0454767"><ele>1447.5</ele><time>2026-04-23T17:26:45.896Z</time></trkpt><trkpt lat="31.2580117" lon="-6.04542"><ele>1448.0</ele><time>2026-04-23T17:26:46.896Z</time></trkpt><trkpt lat="31.2578817" lon="-6.04536"><ele>1448.5</ele><time>2026-04-23T17:26:47.896Z</time></trkpt><trkpt lat="31.25775" lon="-6.045295"><ele>1449.0</ele><time>2026-04-23T17:26:48.896Z</time></trkpt><trkpt lat="31.257605" lon="-6.0452233"><ele>1449.0</ele><time>2026-04-23T17:26:49.896Z</time></trkpt><trkpt lat="31.257465" lon="-6.045145"><ele>1449.0</ele><time>2026-04-23T17:26:50.896Z</time></trkpt><trkpt lat="31.257315" lon="-6.04508"><ele>1449.0</ele><time>2026-04-23T17:26:51.896Z</time></trkpt><trkpt lat="31.2571567" lon="-6.04501"><ele>1450.3333333333333</ele><time>2026-04-23T17:26:52.895Z</time></trkpt><trkpt lat="31.2569983" lon="-6.0449483"><ele>1451.6666666666665</ele><time>2026-04-23T17:26:53.896Z</time></trkpt><trkpt lat="31.2568467" lon="-6.04489"><ele>1453.0</ele><time>2026-04-23T17:26:54.896Z</time></trkpt><trkpt lat="31.2567" lon="-6.044835"><ele>1453.0</ele><time>2026-04-23T17:26:55.896Z</time></trkpt><trkpt lat="31.2565583" lon="-6.0447883"><ele>1453.0</ele><time>2026-04-23T17:26:56.896Z</time></trkpt><trkpt lat="31.2564167" lon="-6.044735"><ele>1453.0</ele><time>2026-04-23T17:26:57.896Z</time></trkpt><trkpt lat="31.2562783" lon="-6.0446783"><ele>1453.0</ele><time>2026-04-23T17:26:58.896Z</time></trkpt><trkpt lat="31.256145" lon="-6.0446317"><ele>1453.25</ele><time>2026-04-23T17:26:59.895Z</time></trkpt><trkpt lat="31.2560067" lon="-6.044585"><ele>1453.5</ele><time>2026-04-23T17:27:00.896Z</time></trkpt><trkpt lat="31.2558733" lon="-6.04454"><ele>1453.75</ele><time>2026-04-23T17:27:01.896Z</time></trkpt><trkpt lat="31.2557333" lon="-6.0444917"><ele>1454.0</ele><time>2026-04-23T17:27:02.896Z</time></trkpt><trkpt lat="31.2555967" lon="-6.044445"><ele>1454.0</ele><time>2026-04-23T17:27:03.896Z</time></trkpt><trkpt lat="31.2554617" lon="-6.0444"><ele>1454.0</ele><time>2026-04-23T17:27:04.895Z</time></trkpt><trkpt lat="31.2553217" lon="-6.0443583"><ele>1454.0</ele><time>2026-04-23T17:27:05.895Z</time></trkpt><trkpt lat="31.25519" lon="-6.04431"><ele>1454.0</ele><time>2026-04-23T17:27:06.896Z</time></trkpt><trkpt lat="31.2550517" lon="-6.0442567"><ele>1454.0</ele><time>2026-04-23T17:27:07.896Z</time></trkpt><trkpt lat="31.2549167" lon="-6.044215"><ele>1454.0</ele><time>2026-04-23T17:27:08.896Z</time></trkpt><trkpt lat="31.2547783" lon="-6.0441667"><ele>1454.0</ele><time>2026-04-23T17:27:09.896Z</time></trkpt><trkpt lat="31.254645" lon="-6.04412"><ele>1454.0</ele><time>2026-04-23T17:27:10.895Z</time></trkpt><trkpt lat="31.254515" lon="-6.04407"><ele>1455.0</ele><time>2026-04-23T17:27:11.895Z</time></trkpt><trkpt lat="31.2543817" lon="-6.0440233"><ele>1456.0</ele><time>2026-04-23T17:27:12.896Z</time></trkpt><trkpt lat="31.254245" lon="-6.0439783"><ele>1457.0</ele><time>2026-04-23T17:27:13.896Z</time></trkpt><trkpt lat="31.254115" lon="-6.04393"><ele>1458.0</ele><time>2026-04-23T17:27:14.896Z</time></trkpt><trkpt lat="31.253985" lon="-6.04388"><ele>1458.75</ele><time>2026-04-23T17:27:15.896Z</time></trkpt><trkpt lat="31.2538567" lon="-6.04383"><ele>1459.5</ele><time>2026-04-23T17:27:16.896Z</time></trkpt><trkpt lat="31.2537233" lon="-6.043785"><ele>1460.25</ele><time>2026-04-23T17:27:17.896Z</time></trkpt><trkpt lat="31.2535933" lon="-6.04374"><ele>1461.0</ele><time>2026-04-23T17:27:18.895Z</time></trkpt><trkpt lat="31.2534517" lon="-6.043695"><ele>1461.0</ele><time>2026-04-23T17:27:19.896Z</time></trkpt><trkpt lat="31.2533083" lon="-6.0436517"><ele>1461.0</ele><time>2026-04-23T17:27:20.896Z</time></trkpt><trkpt lat="31.2531683" lon="-6.043605"><ele>1461.0</ele><time>2026-04-23T17:27:21.896Z</time></trkpt><trkpt lat="31.25303" lon="-6.0435617"><ele>1461.0</ele><time>2026-04-23T17:27:22.896Z</time></trkpt><trkpt lat="31.2528983" lon="-6.0435167"><ele>1461.25</ele><time>2026-04-23T17:27:23.896Z</time></trkpt><trkpt lat="31.2527717" lon="-6.0434683"><ele>1461.5</ele><time>2026-04-23T17:27:24.896Z</time></trkpt><trkpt lat="31.252655" lon="-6.043425"><ele>1461.75</ele><time>2026-04-23T17:27:25.896Z</time></trkpt><trkpt lat="31.2525517" lon="-6.04338"><ele>1462.0</ele><time>2026-04-23T17:27:26.896Z</time></trkpt><trkpt lat="31.2524483" lon="-6.0433383"><ele>1462.0</ele><time>2026-04-23T17:27:27.896Z</time></trkpt><trkpt lat="31.2523617" lon="-6.0433117"><ele>1462.0</ele><time>2026-04-23T17:27:28.896Z</time></trkpt><trkpt lat="31.2522867" lon="-6.0432967"><ele>1462.0</ele><time>2026-04-23T17:27:29.895Z</time></trkpt><trkpt lat="31.2521717" lon="-6.0433167"><ele>1462.0</ele><time>2026-04-23T17:27:31.896Z</time></trkpt><trkpt lat="31.2521183" lon="-6.0433633"><ele>1462.0</ele><time>2026-04-23T17:27:32.896Z</time></trkpt><trkpt lat="31.2520633" lon="-6.0434267"><ele>1462.0</ele><time>2026-04-23T17:27:33.895Z</time></trkpt><trkpt lat="31.2520083" lon="-6.0435167"><ele>1463.25</ele><time>2026-04-23T17:27:34.896Z</time></trkpt><trkpt lat="31.251955" lon="-6.04363"><ele>1464.5</ele><time>2026-04-23T17:27:35.895Z</time></trkpt><trkpt lat="31.25189" lon="-6.043755"><ele>1465.75</ele><time>2026-04-23T17:27:36.895Z</time></trkpt><trkpt lat="31.25181" lon="-6.0438883"><ele>1467.0</ele><time>2026-04-23T17:27:37.896Z</time></trkpt><trkpt lat="31.251715" lon="-6.044035"><ele>1466.3333333333333</ele><time>2026-04-23T17:27:38.895Z</time></trkpt><trkpt lat="31.251605" lon="-6.0441883"><ele>1465.6666666666665</ele><time>2026-04-23T17:27:39.895Z</time></trkpt><trkpt lat="31.2514883" lon="-6.0443383"><ele>1465.0</ele><time>2026-04-23T17:27:40.895Z</time></trkpt><trkpt lat="31.2513633" lon="-6.04449"><ele>1466.3333333333333</ele><time>2026-04-23T17:27:41.896Z</time></trkpt><trkpt lat="31.2512317" lon="-6.0446467"><ele>1467.6666666666667</ele><time>2026-04-23T17:27:42.896Z</time></trkpt><trkpt lat="31.2510917" lon="-6.044815"><ele>1469.0</ele><time>2026-04-23T17:27:43.896Z</time></trkpt><trkpt lat="31.2509417" lon="-6.0449783"><ele>1469.0</ele><time>2026-04-23T17:27:44.895Z</time></trkpt><trkpt lat="31.2507867" lon="-6.0451367"><ele>1469.0</ele><time>2026-04-23T17:27:45.896Z</time></trkpt><trkpt lat="31.2506383" lon="-6.0452783"><ele>1469.0</ele><time>2026-04-23T17:27:46.896Z</time></trkpt><trkpt lat="31.2504967" lon="-6.0454067"><ele>1471.6666666666667</ele><time>2026-04-23T17:27:47.895Z</time></trkpt><trkpt lat="31.2503583" lon="-6.0455283"><ele>1474.3333333333333</ele><time>2026-04-23T17:27:48.896Z</time></trkpt><trkpt lat="31.2502133" lon="-6.0456467"><ele>1477.0</ele><time>2026-04-23T17:27:49.896Z</time></trkpt><trkpt lat="31.2500583" lon="-6.0457633"><ele>1476.3333333333333</ele><time>2026-04-23T17:27:50.896Z</time></trkpt><trkpt lat="31.2498967" lon="-6.0458767"><ele>1475.6666666666667</ele><time>2026-04-23T17:27:51.896Z</time></trkpt><trkpt lat="31.2497317" lon="-6.0459817"><ele>1475.0</ele><time>2026-04-23T17:27:52.896Z</time></trkpt><trkpt lat="31.2495633" lon="-6.04609"><ele>1475.0</ele><time>2026-04-23T17:27:53.896Z</time></trkpt><trkpt lat="31.2493833" lon="-6.0462017"><ele>1475.0</ele><time>2026-04-23T17:27:54.896Z</time></trkpt><trkpt lat="31.2492033" lon="-6.046305"><ele>1475.0</ele><time>2026-04-23T17:27:55.896Z</time></trkpt><trkpt lat="31.2490133" lon="-6.046415"><ele>1474.0</ele><time>2026-04-23T17:27:56.896Z</time></trkpt><trkpt lat="31.2488283" lon="-6.04652"><ele>1473.0</ele><time>2026-04-23T17:27:57.896Z</time></trkpt><trkpt lat="31.2486333" lon="-6.0466283"><ele>1472.0</ele><time>2026-04-23T17:27:58.895Z</time></trkpt><trkpt lat="31.2484333" lon="-6.0467333"><ele>1472.0</ele><time>2026-04-23T17:27:59.896Z</time></trkpt><trkpt lat="31.248225" lon="-6.0468417"><ele>1472.0</ele><time>2026-04-23T17:28:00.896Z</time></trkpt><trkpt lat="31.2480267" lon="-6.0469567"><ele>1472.0</ele><time>2026-04-23T17:28:01.896Z</time></trkpt><trkpt lat="31.2478233" lon="-6.0470767"><ele>1469.5</ele><time>2026-04-23T17:28:02.896Z</time></trkpt><trkpt lat="31.24762" lon="-6.0471983"><ele>1467.0</ele><time>2026-04-23T17:28:03.896Z</time></trkpt><trkpt lat="31.2474183" lon="-6.0473167"><ele>1467.0</ele><time>2026-04-23T17:28:04.896Z</time></trkpt><trkpt lat="31.2472183" lon="-6.0474367"><ele>1467.0</ele><time>2026-04-23T17:28:05.895Z</time></trkpt><trkpt lat="31.2470217" lon="-6.0475633"><ele>1467.0</ele><time>2026-04-23T17:28:06.895Z</time></trkpt><trkpt lat="31.2468267" lon="-6.04767"><ele>1467.0</ele><time>2026-04-23T17:28:07.895Z</time></trkpt><trkpt lat="31.2466367" lon="-6.0477767"><ele>1467.0</ele><time>2026-04-23T17:28:08.896Z</time></trkpt><trkpt lat="31.246445" lon="-6.047885"><ele>1467.0</ele><time>2026-04-23T17:28:09.895Z</time></trkpt><trkpt lat="31.2462517" lon="-6.0479933"><ele>1467.3333333333333</ele><time>2026-04-23T17:28:10.895Z</time></trkpt><trkpt lat="31.2460583" lon="-6.048095"><ele>1467.6666666666665</ele><time>2026-04-23T17:28:11.896Z</time></trkpt><trkpt lat="31.2458683" lon="-6.0482083"><ele>1468.0</ele><time>2026-04-23T17:28:12.896Z</time></trkpt><trkpt lat="31.24568" lon="-6.0483233"><ele>1468.0</ele><time>2026-04-23T17:28:13.895Z</time></trkpt><trkpt lat="31.245495" lon="-6.0484483"><ele>1468.0</ele><time>2026-04-23T17:28:14.895Z</time></trkpt><trkpt lat="31.2453133" lon="-6.0485783"><ele>1468.0</ele><time>2026-04-23T17:28:15.896Z</time></trkpt><trkpt lat="31.2451367" lon="-6.048715"><ele>1468.0</ele><time>2026-04-23T17:28:16.896Z</time></trkpt><trkpt lat="31.244965" lon="-6.0488633"><ele>1468.0</ele><time>2026-04-23T17:28:17.896Z</time></trkpt><trkpt lat="31.2448" lon="-6.049015"><ele>1468.0</ele><time>2026-04-23T17:28:18.896Z</time></trkpt><trkpt lat="31.2446283" lon="-6.0491733"><ele>1471.0</ele><time>2026-04-23T17:28:19.895Z</time></trkpt><trkpt lat="31.244465" lon="-6.0493367"><ele>1474.0</ele><time>2026-04-23T17:28:20.896Z</time></trkpt><trkpt lat="31.244315" lon="-6.0495033"><ele>1477.0</ele><time>2026-04-23T17:28:21.896Z</time></trkpt><trkpt lat="31.2441717" lon="-6.04968"><ele>1477.0</ele><time>2026-04-23T17:28:22.895Z</time></trkpt><trkpt lat="31.24403" lon="-6.0498567"><ele>1477.0</ele><time>2026-04-23T17:28:23.896Z</time></trkpt><trkpt lat="31.2438983" lon="-6.0500417"><ele>1477.0</ele><time>2026-04-23T17:28:24.896Z</time></trkpt><trkpt lat="31.2437683" lon="-6.050225"><ele>1477.0</ele><time>2026-04-23T17:28:25.896Z</time></trkpt><trkpt lat="31.2436333" lon="-6.0504133"><ele>1477.0</ele><time>2026-04-23T17:28:26.895Z</time></trkpt><trkpt lat="31.243505" lon="-6.0506083"><ele>1477.0</ele><time>2026-04-23T17:28:27.896Z</time></trkpt><trkpt lat="31.2433883" lon="-6.050815"><ele>1476.6666666666665</ele><time>2026-04-23T17:28:28.896Z</time></trkpt><trkpt lat="31.243275" lon="-6.05103"><ele>1476.3333333333333</ele><time>2026-04-23T17:28:29.896Z</time></trkpt><trkpt lat="31.243165" lon="-6.051255"><ele>1476.0</ele><time>2026-04-23T17:28:30.895Z</time></trkpt><trkpt lat="31.2430567" lon="-6.0514833"><ele>1476.0</ele><time>2026-04-23T17:28:31.896Z</time></trkpt><trkpt lat="31.2429533" lon="-6.05172"><ele>1476.0</ele><time>2026-04-23T17:28:32.895Z</time></trkpt><trkpt lat="31.2428583" lon="-6.05196"><ele>1476.0</ele><time>2026-04-23T17:28:33.896Z</time></trkpt><trkpt lat="31.2427667" lon="-6.0522"><ele>1476.0</ele><time>2026-04-23T17:28:34.896Z</time></trkpt><trkpt lat="31.24268" lon="-6.0524517"><ele>1476.0</ele><time>2026-04-23T17:28:35.896Z</time></trkpt><trkpt lat="31.242595" lon="-6.0526967"><ele>1476.0</ele><time>2026-04-23T17:28:36.896Z</time></trkpt><trkpt lat="31.2425133" lon="-6.0529367"><ele>1476.0</ele><time>2026-04-23T17:28:37.896Z</time></trkpt><trkpt lat="31.2424383" lon="-6.0531683"><ele>1476.3333333333333</ele><time>2026-04-23T17:28:38.895Z</time></trkpt><trkpt lat="31.24236" lon="-6.053405"><ele>1476.6666666666665</ele><time>2026-04-23T17:28:39.896Z</time></trkpt><trkpt lat="31.24228" lon="-6.0536367"><ele>1477.0</ele><time>2026-04-23T17:28:40.896Z</time></trkpt><trkpt lat="31.242195" lon="-6.0538717"><ele>1477.0</ele><time>2026-04-23T17:28:41.896Z</time></trkpt><trkpt lat="31.242115" lon="-6.0541017"><ele>1477.0</ele><time>2026-04-23T17:28:42.895Z</time></trkpt><trkpt lat="31.2420333" lon="-6.054335"><ele>1477.0</ele><time>2026-04-23T17:28:43.896Z</time></trkpt><trkpt lat="31.2419517" lon="-6.054565"><ele>1476.0</ele><time>2026-04-23T17:28:44.896Z</time></trkpt><trkpt lat="31.2418633" lon="-6.0547967"><ele>1475.0</ele><time>2026-04-23T17:28:45.895Z</time></trkpt><trkpt lat="31.24178" lon="-6.0550367"><ele>1474.0</ele><time>2026-04-23T17:28:46.896Z</time></trkpt><trkpt lat="31.2417017" lon="-6.05527"><ele>1472.6666666666665</ele><time>2026-04-23T17:28:47.896Z</time></trkpt><trkpt lat="31.2416233" lon="-6.0555083"><ele>1471.3333333333333</ele><time>2026-04-23T17:28:48.895Z</time></trkpt><trkpt lat="31.241545" lon="-6.0557467"><ele>1470.0</ele><time>2026-04-23T17:28:49.896Z</time></trkpt><trkpt lat="31.2414583" lon="-6.0559817"><ele>1470.0</ele><time>2026-04-23T17:28:50.896Z</time></trkpt><trkpt lat="31.2413683" lon="-6.0562167"><ele>1470.0</ele><time>2026-04-23T17:28:51.895Z</time></trkpt><trkpt lat="31.2412733" lon="-6.0564583"><ele>1470.0</ele><time>2026-04-23T17:28:52.896Z</time></trkpt><trkpt lat="31.2411733" lon="-6.0566983"><ele>1469.0</ele><time>2026-04-23T17:28:53.896Z</time></trkpt><trkpt lat="31.2410717" lon="-6.05694"><ele>1468.0</ele><time>2026-04-23T17:28:54.896Z</time></trkpt><trkpt lat="31.24096" lon="-6.0571717"><ele>1468.0</ele><time>2026-04-23T17:28:55.895Z</time></trkpt><trkpt lat="31.2408433" lon="-6.0574033"><ele>1468.0</ele><time>2026-04-23T17:28:56.895Z</time></trkpt><trkpt lat="31.240725" lon="-6.0576283"><ele>1465.5</ele><time>2026-04-23T17:28:57.896Z</time></trkpt><trkpt lat="31.2405983" lon="-6.057845"><ele>1463.0</ele><time>2026-04-23T17:28:58.896Z</time></trkpt><trkpt lat="31.24046" lon="-6.0580667"><ele>1463.0</ele><time>2026-04-23T17:28:59.896Z</time></trkpt><trkpt lat="31.2403183" lon="-6.0582767"><ele>1463.0</ele><time>2026-04-23T17:29:00.896Z</time></trkpt><trkpt lat="31.240175" lon="-6.0584833"><ele>1461.0</ele><time>2026-04-23T17:29:01.895Z</time></trkpt><trkpt lat="31.240025" lon="-6.0586933"><ele>1459.0</ele><time>2026-04-23T17:29:02.896Z</time></trkpt><trkpt lat="31.2398783" lon="-6.0588967"><ele>1457.5</ele><time>2026-04-23T17:29:03.895Z</time></trkpt><trkpt lat="31.239735" lon="-6.0591083"><ele>1456.0</ele><time>2026-04-23T17:29:04.895Z</time></trkpt><trkpt lat="31.2395867" lon="-6.0593167"><ele>1456.0</ele><time>2026-04-23T17:29:05.895Z</time></trkpt><trkpt lat="31.2394383" lon="-6.0595133"><ele>1456.0</ele><time>2026-04-23T17:29:06.896Z</time></trkpt><trkpt lat="31.23929" lon="-6.05972"><ele>1456.0</ele><time>2026-04-23T17:29:07.896Z</time></trkpt><trkpt lat="31.2391433" lon="-6.059925"><ele>1456.0</ele><time>2026-04-23T17:29:08.895Z</time></trkpt><trkpt lat="31.238995" lon="-6.0601367"><ele>1452.5</ele><time>2026-04-23T17:29:09.896Z</time></trkpt><trkpt lat="31.23885" lon="-6.0603517"><ele>1449.0</ele><time>2026-04-23T17:29:10.896Z</time></trkpt><trkpt lat="31.2387033" lon="-6.0605633"><ele>1449.0</ele><time>2026-04-23T17:29:11.896Z</time></trkpt><trkpt lat="31.2385533" lon="-6.0607717"><ele>1449.0</ele><time>2026-04-23T17:29:12.896Z</time></trkpt><trkpt lat="31.2384033" lon="-6.0609767"><ele>1447.5</ele><time>2026-04-23T17:29:13.896Z</time></trkpt><trkpt lat="31.2382567" lon="-6.0611817"><ele>1446.0</ele><time>2026-04-23T17:29:14.895Z</time></trkpt><trkpt lat="31.2381083" lon="-6.06139"><ele>1446.0</ele><time>2026-04-23T17:29:15.896Z</time></trkpt><trkpt lat="31.23796" lon="-6.0615983"><ele>1446.0</ele><time>2026-04-23T17:29:16.896Z</time></trkpt><trkpt lat="31.2378133" lon="-6.0618033"><ele>1445.5</ele><time>2026-04-23T17:29:17.895Z</time></trkpt><trkpt lat="31.237665" lon="-6.0620083"><ele>1445.0</ele><time>2026-04-23T17:29:18.895Z</time></trkpt><trkpt lat="31.2375217" lon="-6.06221"><ele>1445.0</ele><time>2026-04-23T17:29:19.895Z</time></trkpt><trkpt lat="31.237375" lon="-6.0624133"><ele>1445.0</ele><time>2026-04-23T17:29:20.896Z</time></trkpt><trkpt lat="31.2372283" lon="-6.0626133"><ele>1444.3333333333335</ele><time>2026-04-23T17:29:21.896Z</time></trkpt><trkpt lat="31.2370833" lon="-6.0628133"><ele>1443.6666666666667</ele><time>2026-04-23T17:29:22.895Z</time></trkpt><trkpt lat="31.23694" lon="-6.063015"><ele>1443.0</ele><time>2026-04-23T17:29:23.896Z</time></trkpt><trkpt lat="31.2367933" lon="-6.0632183"><ele>1444.6666666666667</ele><time>2026-04-23T17:29:24.896Z</time></trkpt><trkpt lat="31.2366517" lon="-6.063415"><ele>1446.3333333333335</ele><time>2026-04-23T17:29:25.896Z</time></trkpt><trkpt lat="31.2365133" lon="-6.06361"><ele>1448.0</ele><time>2026-04-23T17:29:26.896Z</time></trkpt><trkpt lat="31.236375" lon="-6.0638033"><ele>1448.3333333333335</ele><time>2026-04-23T17:29:27.896Z</time></trkpt><trkpt lat="31.2362283" lon="-6.064"><ele>1448.6666666666667</ele><time>2026-04-23T17:29:28.895Z</time></trkpt><trkpt lat="31.23608" lon="-6.06419"><ele>1449.0</ele><time>2026-04-23T17:29:29.896Z</time></trkpt><trkpt lat="31.235925" lon="-6.0643717"><ele>1450.0</ele><time>2026-04-23T17:29:30.895Z</time></trkpt><trkpt lat="31.2357683" lon="-6.0645467"><ele>1451.0</ele><time>2026-04-23T17:29:31.895Z</time></trkpt><trkpt lat="31.2356033" lon="-6.06472"><ele>1452.0</ele><time>2026-04-23T17:29:32.896Z</time></trkpt><trkpt lat="31.2354317" lon="-6.0648783"><ele>1454.6666666666667</ele><time>2026-04-23T17:29:33.896Z</time></trkpt><trkpt lat="31.23526" lon="-6.0650217"><ele>1457.3333333333335</ele><time>2026-04-23T17:29:34.896Z</time></trkpt><trkpt lat="31.2350867" lon="-6.0651483"><ele>1460.0</ele><time>2026-04-23T17:29:35.895Z</time></trkpt><trkpt lat="31.234915" lon="-6.0652783"><ele>1460.6666666666667</ele><time>2026-04-23T17:29:36.896Z</time></trkpt><trkpt lat="31.234745" lon="-6.065405"><ele>1461.3333333333333</ele><time>2026-04-23T17:29:37.895Z</time></trkpt><trkpt lat="31.234565" lon="-6.06553"><ele>1462.0</ele><time>2026-04-23T17:29:38.895Z</time></trkpt><trkpt lat="31.234385" lon="-6.0656417"><ele>1462.0</ele><time>2026-04-23T17:29:39.895Z</time></trkpt><trkpt lat="31.2341983" lon="-6.0657417"><ele>1462.0</ele><time>2026-04-23T17:29:40.896Z</time></trkpt><trkpt lat="31.2340067" lon="-6.0658333"><ele>1462.0</ele><time>2026-04-23T17:29:41.895Z</time></trkpt><trkpt lat="31.2338117" lon="-6.0659217"><ele>1462.0</ele><time>2026-04-23T17:29:42.896Z</time></trkpt><trkpt lat="31.2336183" lon="-6.0660017"><ele>1462.0</ele><time>2026-04-23T17:29:43.896Z</time></trkpt><trkpt lat="31.2334217" lon="-6.0660683"><ele>1462.0</ele><time>2026-04-23T17:29:44.895Z</time></trkpt><trkpt lat="31.2332233" lon="-6.0661333"><ele>1463.3333333333333</ele><time>2026-04-23T17:29:45.896Z</time></trkpt><trkpt lat="31.23302" lon="-6.06619"><ele>1464.6666666666667</ele><time>2026-04-23T17:29:46.896Z</time></trkpt><trkpt lat="31.2328167" lon="-6.06625"><ele>1466.0</ele><time>2026-04-23T17:29:47.896Z</time></trkpt><trkpt lat="31.2326117" lon="-6.0663083"><ele>1466.0</ele><time>2026-04-23T17:29:48.896Z</time></trkpt><trkpt lat="31.2324" lon="-6.0663667"><ele>1466.0</ele><time>2026-04-23T17:29:49.896Z</time></trkpt><trkpt lat="31.2321967" lon="-6.066425"><ele>1466.0</ele><time>2026-04-23T17:29:50.895Z</time></trkpt><trkpt lat="31.2319883" lon="-6.0664817"><ele>1466.0</ele><time>2026-04-23T17:29:51.896Z</time></trkpt><trkpt lat="31.2317783" lon="-6.06654"><ele>1466.0</ele><time>2026-04-23T17:29:52.896Z</time></trkpt><trkpt lat="31.2315733" lon="-6.0665933"><ele>1466.0</ele><time>2026-04-23T17:29:53.896Z</time></trkpt><trkpt lat="31.23136" lon="-6.066645"><ele>1464.0</ele><time>2026-04-23T17:29:54.896Z</time></trkpt><trkpt lat="31.2311467" lon="-6.066695"><ele>1462.0</ele><time>2026-04-23T17:29:55.896Z</time></trkpt><trkpt lat="31.2309317" lon="-6.0667467"><ele>1460.0</ele><time>2026-04-23T17:29:56.896Z</time></trkpt><trkpt lat="31.2307217" lon="-6.0668033"><ele>1461.0</ele><time>2026-04-23T17:29:57.895Z</time></trkpt><trkpt lat="31.230505" lon="-6.0668583"><ele>1462.0</ele><time>2026-04-23T17:29:58.896Z</time></trkpt><trkpt lat="31.2302867" lon="-6.06692"><ele>1463.0</ele><time>2026-04-23T17:29:59.896Z</time></trkpt><trkpt lat="31.2300683" lon="-6.0669833"><ele>1463.0</ele><time>2026-04-23T17:30:00.895Z</time></trkpt><trkpt lat="31.22985" lon="-6.06704"><ele>1463.0</ele><time>2026-04-23T17:30:01.896Z</time></trkpt><trkpt lat="31.22963" lon="-6.0671033"><ele>1462.5</ele><time>2026-04-23T17:30:02.895Z</time></trkpt><trkpt lat="31.2294067" lon="-6.0671683"><ele>1462.0</ele><time>2026-04-23T17:30:03.896Z</time></trkpt><trkpt lat="31.22918" lon="-6.0672317"><ele>1462.0</ele><time>2026-04-23T17:30:04.895Z</time></trkpt><trkpt lat="31.2289433" lon="-6.0672867"><ele>1462.0</ele><time>2026-04-23T17:30:05.895Z</time></trkpt><trkpt lat="31.2287033" lon="-6.0673483"><ele>1462.0</ele><time>2026-04-23T17:30:06.896Z</time></trkpt><trkpt lat="31.2284683" lon="-6.0674083"><ele>1462.0</ele><time>2026-04-23T17:30:07.896Z</time></trkpt><trkpt lat="31.22823" lon="-6.0674733"><ele>1461.5</ele><time>2026-04-23T17:30:08.896Z</time></trkpt><trkpt lat="31.2279933" lon="-6.0675383"><ele>1461.0</ele><time>2026-04-23T17:30:09.896Z</time></trkpt><trkpt lat="31.2277517" lon="-6.06761"><ele>1461.0</ele><time>2026-04-23T17:30:10.896Z</time></trkpt><trkpt lat="31.227515" lon="-6.067685"><ele>1461.0</ele><time>2026-04-23T17:30:11.895Z</time></trkpt><trkpt lat="31.2272833" lon="-6.0677683"><ele>1462.5</ele><time>2026-04-23T17:30:12.895Z</time></trkpt><trkpt lat="31.2270583" lon="-6.0678667"><ele>1464.0</ele><time>2026-04-23T17:30:13.895Z</time></trkpt><trkpt lat="31.2268317" lon="-6.06797"><ele>1464.0</ele><time>2026-04-23T17:30:14.896Z</time></trkpt><trkpt lat="31.2266033" lon="-6.0680783"><ele>1464.0</ele><time>2026-04-23T17:30:15.895Z</time></trkpt><trkpt lat="31.2263817" lon="-6.0681883"><ele>1462.5</ele><time>2026-04-23T17:30:16.895Z</time></trkpt><trkpt lat="31.2261567" lon="-6.06831"><ele>1461.0</ele><time>2026-04-23T17:30:17.895Z</time></trkpt><trkpt lat="31.22594" lon="-6.0684383"><ele>1461.0</ele><time>2026-04-23T17:30:18.894Z</time></trkpt><trkpt lat="31.22573" lon="-6.0685717"><ele>1461.0</ele><time>2026-04-23T17:30:19.895Z</time></trkpt><trkpt lat="31.22552" lon="-6.0687117"><ele>1459.5</ele><time>2026-04-23T17:30:20.895Z</time></trkpt><trkpt lat="31.2253133" lon="-6.068855"><ele>1458.0</ele><time>2026-04-23T17:30:21.894Z</time></trkpt><trkpt lat="31.2251067" lon="-6.0690033"><ele>1456.0</ele><time>2026-04-23T17:30:22.894Z</time></trkpt><trkpt lat="31.224895" lon="-6.06916"><ele>1454.0</ele><time>2026-04-23T17:30:23.895Z</time></trkpt><trkpt lat="31.2246883" lon="-6.069325"><ele>1452.0</ele><time>2026-04-23T17:30:24.895Z</time></trkpt><trkpt lat="31.224485" lon="-6.069495"><ele>1450.0</ele><time>2026-04-23T17:30:25.895Z</time></trkpt><trkpt lat="31.2242783" lon="-6.06967"><ele>1450.0</ele><time>2026-04-23T17:30:26.895Z</time></trkpt><trkpt lat="31.2240683" lon="-6.069845"><ele>1450.0</ele><time>2026-04-23T17:30:27.895Z</time></trkpt><trkpt lat="31.2238583" lon="-6.0700217"><ele>1447.5</ele><time>2026-04-23T17:30:28.895Z</time></trkpt><trkpt lat="31.2236467" lon="-6.07021"><ele>1445.0</ele><time>2026-04-23T17:30:29.895Z</time></trkpt><trkpt lat="31.2234367" lon="-6.0703833"><ele>1445.0</ele><time>2026-04-23T17:30:30.895Z</time></trkpt><trkpt lat="31.2232333" lon="-6.0705617"><ele>1445.0</ele><time>2026-04-23T17:30:31.895Z</time></trkpt><trkpt lat="31.22303" lon="-6.0707367"><ele>1444.5</ele><time>2026-04-23T17:30:32.894Z</time></trkpt><trkpt lat="31.2228267" lon="-6.07091"><ele>1444.0</ele><time>2026-04-23T17:30:33.895Z</time></trkpt><trkpt lat="31.222625" lon="-6.0710833"><ele>1444.0</ele><time>2026-04-23T17:30:34.895Z</time></trkpt><trkpt lat="31.222425" lon="-6.0712533"><ele>1444.0</ele><time>2026-04-23T17:30:35.895Z</time></trkpt><trkpt lat="31.222225" lon="-6.071425"><ele>1443.5</ele><time>2026-04-23T17:30:36.894Z</time></trkpt><trkpt lat="31.2220217" lon="-6.071595"><ele>1443.0</ele><time>2026-04-23T17:30:37.895Z</time></trkpt><trkpt lat="31.2218217" lon="-6.071765"><ele>1443.0</ele><time>2026-04-23T17:30:38.895Z</time></trkpt><trkpt lat="31.2216267" lon="-6.0719233"><ele>1443.0</ele><time>2026-04-23T17:30:39.895Z</time></trkpt><trkpt lat="31.2214217" lon="-6.0720617"><ele>1443.5</ele><time>2026-04-23T17:30:40.895Z</time></trkpt><trkpt lat="31.221205" lon="-6.0721883"><ele>1444.0</ele><time>2026-04-23T17:30:41.895Z</time></trkpt><trkpt lat="31.220975" lon="-6.0722867"><ele>1444.0</ele><time>2026-04-23T17:30:42.895Z</time></trkpt><trkpt lat="31.2207417" lon="-6.0723633"><ele>1444.0</ele><time>2026-04-23T17:30:43.895Z</time></trkpt><trkpt lat="31.2205067" lon="-6.0724183"><ele>1445.5</ele><time>2026-04-23T17:30:44.895Z</time></trkpt><trkpt lat="31.2202717" lon="-6.0724367"><ele>1447.0</ele><time>2026-04-23T17:30:45.895Z</time></trkpt><trkpt lat="31.2200267" lon="-6.0724317"><ele>1449.0</ele><time>2026-04-23T17:30:46.894Z</time></trkpt><trkpt lat="31.219775" lon="-6.07241"><ele>1451.0</ele><time>2026-04-23T17:30:47.895Z</time></trkpt><trkpt lat="31.2195217" lon="-6.0723667"><ele>1451.0</ele><time>2026-04-23T17:30:48.895Z</time></trkpt><trkpt lat="31.219265" lon="-6.072315"><ele>1451.0</ele><time>2026-04-23T17:30:49.894Z</time></trkpt><trkpt lat="31.2190067" lon="-6.0722683"><ele>1453.0</ele><time>2026-04-23T17:30:50.895Z</time></trkpt><trkpt lat="31.2187567" lon="-6.0722283"><ele>1455.0</ele><time>2026-04-23T17:30:51.895Z</time></trkpt><trkpt lat="31.2185133" lon="-6.0721983"><ele>1455.0</ele><time>2026-04-23T17:30:52.895Z</time></trkpt><trkpt lat="31.2182783" lon="-6.0721667"><ele>1455.0</ele><time>2026-04-23T17:30:53.895Z</time></trkpt><trkpt lat="31.218045" lon="-6.0721367"><ele>1458.0</ele><time>2026-04-23T17:30:54.894Z</time></trkpt><trkpt lat="31.21781" lon="-6.0721017"><ele>1461.0</ele><time>2026-04-23T17:30:55.895Z</time></trkpt><trkpt lat="31.2175883" lon="-6.0720633"><ele>1461.0</ele><time>2026-04-23T17:30:56.894Z</time></trkpt><trkpt lat="31.2173683" lon="-6.0720283"><ele>1461.0</ele><time>2026-04-23T17:30:57.895Z</time></trkpt><trkpt lat="31.2171483" lon="-6.0719967"><ele>1461.0</ele><time>2026-04-23T17:30:58.894Z</time></trkpt><trkpt lat="31.21693" lon="-6.0719683"><ele>1461.3333333333333</ele><time>2026-04-23T17:30:59.894Z</time></trkpt><trkpt lat="31.21671" lon="-6.07194"><ele>1461.6666666666665</ele><time>2026-04-23T17:31:00.895Z</time></trkpt><trkpt lat="31.2164867" lon="-6.071925"><ele>1462.0</ele><time>2026-04-23T17:31:01.895Z</time></trkpt><trkpt lat="31.216265" lon="-6.0719333"><ele>1464.0</ele><time>2026-04-23T17:31:02.895Z</time></trkpt><trkpt lat="31.2160433" lon="-6.0719617"><ele>1466.0</ele><time>2026-04-23T17:31:03.895Z</time></trkpt><trkpt lat="31.215825" lon="-6.0720233"><ele>1468.0</ele><time>2026-04-23T17:31:04.894Z</time></trkpt><trkpt lat="31.2156233" lon="-6.0721033"><ele>1468.6666666666665</ele><time>2026-04-23T17:31:05.895Z</time></trkpt><trkpt lat="31.215425" lon="-6.0722133"><ele>1469.3333333333333</ele><time>2026-04-23T17:31:06.895Z</time></trkpt><trkpt lat="31.2152317" lon="-6.07235"><ele>1470.0</ele><time>2026-04-23T17:31:07.895Z</time></trkpt><trkpt lat="31.2150467" lon="-6.0725167"><ele>1471.0</ele><time>2026-04-23T17:31:08.894Z</time></trkpt><trkpt lat="31.2148917" lon="-6.0727067"><ele>1472.0</ele><time>2026-04-23T17:31:09.895Z</time></trkpt><trkpt lat="31.2147517" lon="-6.0729067"><ele>1473.0</ele><time>2026-04-23T17:31:10.894Z</time></trkpt><trkpt lat="31.214645" lon="-6.0731483"><ele>1475.0</ele><time>2026-04-23T17:31:11.895Z</time></trkpt><trkpt lat="31.2145567" lon="-6.07341"><ele>1477.0</ele><time>2026-04-23T17:31:12.895Z</time></trkpt><trkpt lat="31.214485" lon="-6.0736783"><ele>1477.0</ele><time>2026-04-23T17:31:13.895Z</time></trkpt><trkpt lat="31.2144267" lon="-6.07396"><ele>1477.0</ele><time>2026-04-23T17:31:14.895Z</time></trkpt><trkpt lat="31.21439" lon="-6.0742383"><ele>1479.5</ele><time>2026-04-23T17:31:15.895Z</time></trkpt><trkpt lat="31.2143667" lon="-6.074505"><ele>1482.0</ele><time>2026-04-23T17:31:16.894Z</time></trkpt><trkpt lat="31.2143483" lon="-6.0747733"><ele>1479.0</ele><time>2026-04-23T17:31:17.895Z</time></trkpt><trkpt lat="31.2143283" lon="-6.0750483"><ele>1476.0</ele><time>2026-04-23T17:31:18.895Z</time></trkpt><trkpt lat="31.21431" lon="-6.0753133"><ele>1476.0</ele><time>2026-04-23T17:31:19.895Z</time></trkpt><trkpt lat="31.2142983" lon="-6.0755767"><ele>1476.0</ele><time>2026-04-23T17:31:20.895Z</time></trkpt><trkpt lat="31.2142783" lon="-6.0758417"><ele>1474.5</ele><time>2026-04-23T17:31:21.895Z</time></trkpt><trkpt lat="31.2142583" lon="-6.0761083"><ele>1473.0</ele><time>2026-04-23T17:31:22.895Z</time></trkpt><trkpt lat="31.214235" lon="-6.07638"><ele>1476.0</ele><time>2026-04-23T17:31:23.894Z</time></trkpt><trkpt lat="31.2141983" lon="-6.0766517"><ele>1479.0</ele><time>2026-04-23T17:31:24.894Z</time></trkpt><trkpt lat="31.214145" lon="-6.0769083"><ele>1479.0</ele><time>2026-04-23T17:31:25.894Z</time></trkpt><trkpt lat="31.2140833" lon="-6.0771633"><ele>1479.0</ele><time>2026-04-23T17:31:26.895Z</time></trkpt><trkpt lat="31.2139967" lon="-6.077405"><ele>1482.0</ele><time>2026-04-23T17:31:27.895Z</time></trkpt><trkpt lat="31.2139017" lon="-6.0776433"><ele>1485.0</ele><time>2026-04-23T17:31:28.894Z</time></trkpt><trkpt lat="31.213815" lon="-6.0778717"><ele>1488.0</ele><time>2026-04-23T17:31:29.895Z</time></trkpt><trkpt lat="31.2137333" lon="-6.0780833"><ele>1486.3333333333333</ele><time>2026-04-23T17:31:30.895Z</time></trkpt><trkpt lat="31.2136583" lon="-6.0782817"><ele>1484.6666666666665</ele><time>2026-04-23T17:31:31.895Z</time></trkpt><trkpt lat="31.2135867" lon="-6.0784733"><ele>1483.0</ele><time>2026-04-23T17:31:32.894Z</time></trkpt><trkpt lat="31.2135033" lon="-6.07866"><ele>1483.0</ele><time>2026-04-23T17:31:33.894Z</time></trkpt><trkpt lat="31.2134133" lon="-6.0788517"><ele>1483.0</ele><time>2026-04-23T17:31:34.894Z</time></trkpt><trkpt lat="31.2133083" lon="-6.07904"><ele>1483.0</ele><time>2026-04-23T17:31:35.895Z</time></trkpt><trkpt lat="31.2132017" lon="-6.0792333"><ele>1483.6666666666665</ele><time>2026-04-23T17:31:36.895Z</time></trkpt><trkpt lat="31.2130883" lon="-6.07943"><ele>1484.3333333333333</ele><time>2026-04-23T17:31:37.894Z</time></trkpt><trkpt lat="31.2129817" lon="-6.0796367"><ele>1485.0</ele><time>2026-04-23T17:31:38.895Z</time></trkpt><trkpt lat="31.2128633" lon="-6.0798433"><ele>1483.3333333333333</ele><time>2026-04-23T17:31:39.894Z</time></trkpt><trkpt lat="31.212745" lon="-6.0800633"><ele>1481.6666666666665</ele><time>2026-04-23T17:31:40.895Z</time></trkpt><trkpt lat="31.21263" lon="-6.0802783"><ele>1480.0</ele><time>2026-04-23T17:31:41.894Z</time></trkpt><trkpt lat="31.212505" lon="-6.0805"><ele>1480.0</ele><time>2026-04-23T17:31:42.894Z</time></trkpt><trkpt lat="31.2123883" lon="-6.080725"><ele>1480.0</ele><time>2026-04-23T17:31:43.895Z</time></trkpt><trkpt lat="31.2122583" lon="-6.0809483"><ele>1482.5</ele><time>2026-04-23T17:31:44.894Z</time></trkpt><trkpt lat="31.2121283" lon="-6.0811783"><ele>1485.0</ele><time>2026-04-23T17:31:45.895Z</time></trkpt><trkpt lat="31.2120033" lon="-6.08141"><ele>1479.0</ele><time>2026-04-23T17:31:46.894Z</time></trkpt><trkpt lat="31.2118767" lon="-6.0816333"><ele>1473.0</ele><time>2026-04-23T17:31:47.895Z</time></trkpt><trkpt lat="31.2117567" lon="-6.08185"><ele>1473.0</ele><time>2026-04-23T17:31:48.895Z</time></trkpt><trkpt lat="31.2116367" lon="-6.08207"><ele>1473.0</ele><time>2026-04-23T17:31:49.894Z</time></trkpt><trkpt lat="31.211515" lon="-6.0822817"><ele>1473.0</ele><time>2026-04-23T17:31:50.894Z</time></trkpt><trkpt lat="31.2114033" lon="-6.0824983"><ele>1473.6666666666667</ele><time>2026-04-23T17:31:51.894Z</time></trkpt><trkpt lat="31.211285" lon="-6.082705"><ele>1474.3333333333335</ele><time>2026-04-23T17:31:52.895Z</time></trkpt><trkpt lat="31.2111667" lon="-6.0829233"><ele>1475.0</ele><time>2026-04-23T17:31:53.895Z</time></trkpt><trkpt lat="31.211045" lon="-6.0831283"><ele>1474.0</ele><time>2026-04-23T17:31:54.894Z</time></trkpt><trkpt lat="31.2109183" lon="-6.083335"><ele>1473.0</ele><time>2026-04-23T17:31:55.895Z</time></trkpt><trkpt lat="31.210785" lon="-6.0835267"><ele>1472.0</ele><time>2026-04-23T17:31:56.894Z</time></trkpt><trkpt lat="31.2106433" lon="-6.0837017"><ele>1474.3333333333335</ele><time>2026-04-23T17:31:57.895Z</time></trkpt><trkpt lat="31.2104933" lon="-6.0838683"><ele>1476.6666666666667</ele><time>2026-04-23T17:31:58.895Z</time></trkpt><trkpt lat="31.2103333" lon="-6.084025"><ele>1479.0</ele><time>2026-04-23T17:31:59.895Z</time></trkpt><trkpt lat="31.2101633" lon="-6.0841683"><ele>1479.0</ele><time>2026-04-23T17:32:00.895Z</time></trkpt><trkpt lat="31.20999" lon="-6.0843033"><ele>1479.0</ele><time>2026-04-23T17:32:01.894Z</time></trkpt><trkpt lat="31.2098067" lon="-6.08442"><ele>1479.0</ele><time>2026-04-23T17:32:02.895Z</time></trkpt><trkpt lat="31.2096167" lon="-6.0845233"><ele>1479.3333333333333</ele><time>2026-04-23T17:32:03.895Z</time></trkpt><trkpt lat="31.2094183" lon="-6.0846283"><ele>1479.6666666666665</ele><time>2026-04-23T17:32:04.894Z</time></trkpt><trkpt lat="31.2092183" lon="-6.0847217"><ele>1480.0</ele><time>2026-04-23T17:32:05.895Z</time></trkpt><trkpt lat="31.2090167" lon="-6.08482"><ele>1481.0</ele><time>2026-04-23T17:32:06.894Z</time></trkpt><trkpt lat="31.20881" lon="-6.084915"><ele>1482.0</ele><time>2026-04-23T17:32:07.895Z</time></trkpt><trkpt lat="31.20861" lon="-6.0850033"><ele>1483.0</ele><time>2026-04-23T17:32:08.895Z</time></trkpt><trkpt lat="31.2084083" lon="-6.085095"><ele>1484.6666666666665</ele><time>2026-04-23T17:32:09.894Z</time></trkpt><trkpt lat="31.208195" lon="-6.085185"><ele>1486.3333333333333</ele><time>2026-04-23T17:32:10.894Z</time></trkpt><trkpt lat="31.207995" lon="-6.0852783"><ele>1488.0</ele><time>2026-04-23T17:32:11.895Z</time></trkpt><trkpt lat="31.2077917" lon="-6.0853733"><ele>1490.0</ele><time>2026-04-23T17:32:12.894Z</time></trkpt><trkpt lat="31.207585" lon="-6.08548"><ele>1492.0</ele><time>2026-04-23T17:32:13.894Z</time></trkpt><trkpt lat="31.2073833" lon="-6.085595"><ele>1491.0</ele><time>2026-04-23T17:32:14.895Z</time></trkpt><trkpt lat="31.2071867" lon="-6.08573"><ele>1490.0</ele><time>2026-04-23T17:32:15.894Z</time></trkpt><trkpt lat="31.20701" lon="-6.0858767"><ele>1489.0</ele><time>2026-04-23T17:32:16.894Z</time></trkpt><trkpt lat="31.2068517" lon="-6.0860283"><ele>1489.0</ele><time>2026-04-23T17:32:17.895Z</time></trkpt><trkpt lat="31.2067117" lon="-6.0862067"><ele>1489.0</ele><time>2026-04-23T17:32:18.895Z</time></trkpt><trkpt lat="31.2065833" lon="-6.0864083"><ele>1489.0</ele><time>2026-04-23T17:32:19.895Z</time></trkpt><trkpt lat="31.20647" lon="-6.0866383"><ele>1488.5</ele><time>2026-04-23T17:32:20.895Z</time></trkpt><trkpt lat="31.20637" lon="-6.0868717"><ele>1488.0</ele><time>2026-04-23T17:32:21.894Z</time></trkpt><trkpt lat="31.20628" lon="-6.08712"><ele>1488.0</ele><time>2026-04-23T17:32:22.895Z</time></trkpt><trkpt lat="31.206215" lon="-6.08738"><ele>1488.0</ele><time>2026-04-23T17:32:23.895Z</time></trkpt><trkpt lat="31.2061817" lon="-6.0876433"><ele>1489.0</ele><time>2026-04-23T17:32:24.895Z</time></trkpt><trkpt lat="31.2061567" lon="-6.0879067"><ele>1490.0</ele><time>2026-04-23T17:32:25.895Z</time></trkpt><trkpt lat="31.2061517" lon="-6.08818"><ele>1488.0</ele><time>2026-04-23T17:32:26.895Z</time></trkpt><trkpt lat="31.2061583" lon="-6.0884517"><ele>1486.0</ele><time>2026-04-23T17:32:27.895Z</time></trkpt><trkpt lat="31.2061633" lon="-6.08873"><ele>1486.0</ele><time>2026-04-23T17:32:28.895Z</time></trkpt><trkpt lat="31.2061783" lon="-6.0890083"><ele>1486.0</ele><time>2026-04-23T17:32:29.894Z</time></trkpt><trkpt lat="31.2061933" lon="-6.089295"><ele>1485.5</ele><time>2026-04-23T17:32:30.895Z</time></trkpt><trkpt lat="31.20621" lon="-6.08957"><ele>1485.0</ele><time>2026-04-23T17:32:31.894Z</time></trkpt><trkpt lat="31.206225" lon="-6.0898367"><ele>1482.5</ele><time>2026-04-23T17:32:32.895Z</time></trkpt><trkpt lat="31.2062367" lon="-6.0901033"><ele>1480.0</ele><time>2026-04-23T17:32:33.895Z</time></trkpt><trkpt lat="31.2062467" lon="-6.09038"><ele>1480.0</ele><time>2026-04-23T17:32:34.895Z</time></trkpt><trkpt lat="31.20625" lon="-6.0906483"><ele>1480.0</ele><time>2026-04-23T17:32:35.894Z</time></trkpt><trkpt lat="31.2062567" lon="-6.09092"><ele>1479.0</ele><time>2026-04-23T17:32:36.895Z</time></trkpt><trkpt lat="31.206265" lon="-6.0911933"><ele>1478.0</ele><time>2026-04-23T17:32:37.895Z</time></trkpt><trkpt lat="31.2062833" lon="-6.0914683"><ele>1476.0</ele><time>2026-04-23T17:32:38.894Z</time></trkpt><trkpt lat="31.2063017" lon="-6.091745"><ele>1474.0</ele><time>2026-04-23T17:32:39.894Z</time></trkpt><trkpt lat="31.2063233" lon="-6.0920233"><ele>1474.0</ele><time>2026-04-23T17:32:40.895Z</time></trkpt><trkpt lat="31.2063467" lon="-6.0923017"><ele>1474.0</ele><time>2026-04-23T17:32:41.895Z</time></trkpt><trkpt lat="31.2063833" lon="-6.092585"><ele>1472.5</ele><time>2026-04-23T17:32:42.894Z</time></trkpt><trkpt lat="31.206445" lon="-6.092865"><ele>1471.0</ele><time>2026-04-23T17:32:43.895Z</time></trkpt><trkpt lat="31.2065217" lon="-6.0931317"><ele>1463.5</ele><time>2026-04-23T17:32:44.894Z</time></trkpt><trkpt lat="31.2065967" lon="-6.0934017"><ele>1456.0</ele><time>2026-04-23T17:32:45.895Z</time></trkpt><trkpt lat="31.2066817" lon="-6.09367"><ele>1456.0</ele><time>2026-04-23T17:32:46.895Z</time></trkpt><trkpt lat="31.2067733" lon="-6.09394"><ele>1456.0</ele><time>2026-04-23T17:32:47.894Z</time></trkpt><trkpt lat="31.2068617" lon="-6.0942117"><ele>1455.0</ele><time>2026-04-23T17:32:48.895Z</time></trkpt><trkpt lat="31.2069433" lon="-6.0944767"><ele>1454.0</ele><time>2026-04-23T17:32:49.894Z</time></trkpt><trkpt lat="31.2070417" lon="-6.0947283"><ele>1451.5</ele><time>2026-04-23T17:32:50.895Z</time></trkpt><trkpt lat="31.207145" lon="-6.0949783"><ele>1449.0</ele><time>2026-04-23T17:32:51.895Z</time></trkpt><trkpt lat="31.207265" lon="-6.095215"><ele>1447.5</ele><time>2026-04-23T17:32:52.895Z</time></trkpt><trkpt lat="31.2073983" lon="-6.0954367"><ele>1446.0</ele><time>2026-04-23T17:32:53.895Z</time></trkpt><trkpt lat="31.20755" lon="-6.09564"><ele>1449.0</ele><time>2026-04-23T17:32:54.895Z</time></trkpt><trkpt lat="31.2077217" lon="-6.09583"><ele>1452.0</ele><time>2026-04-23T17:32:55.895Z</time></trkpt><trkpt lat="31.2079017" lon="-6.0960017"><ele>1452.0</ele><time>2026-04-23T17:32:56.894Z</time></trkpt><trkpt lat="31.208095" lon="-6.0961567"><ele>1452.0</ele><time>2026-04-23T17:32:57.895Z</time></trkpt><trkpt lat="31.2083" lon="-6.0962933"><ele>1449.0</ele><time>2026-04-23T17:32:58.895Z</time></trkpt><trkpt lat="31.2085217" lon="-6.096415"><ele>1446.0</ele><time>2026-04-23T17:32:59.895Z</time></trkpt><trkpt lat="31.2087467" lon="-6.0965233"><ele>1448.5</ele><time>2026-04-23T17:33:00.894Z</time></trkpt><trkpt lat="31.2089767" lon="-6.0966233"><ele>1451.0</ele><time>2026-04-23T17:33:01.895Z</time></trkpt><trkpt lat="31.2092067" lon="-6.0967283"><ele>1451.0</ele><time>2026-04-23T17:33:02.895Z</time></trkpt><trkpt lat="31.2094383" lon="-6.0968267"><ele>1451.0</ele><time>2026-04-23T17:33:03.895Z</time></trkpt><trkpt lat="31.209665" lon="-6.096925"><ele>1448.5</ele><time>2026-04-23T17:33:04.895Z</time></trkpt><trkpt lat="31.2098983" lon="-6.0970183"><ele>1446.0</ele><time>2026-04-23T17:33:05.895Z</time></trkpt><trkpt lat="31.210125" lon="-6.0971117"><ele>1446.0</ele><time>2026-04-23T17:33:06.895Z</time></trkpt><trkpt lat="31.21033" lon="-6.0972117"><ele>1446.0</ele><time>2026-04-23T17:33:07.895Z</time></trkpt><trkpt lat="31.210535" lon="-6.0973117"><ele>1446.0</ele><time>2026-04-23T17:33:08.895Z</time></trkpt><trkpt lat="31.210735" lon="-6.09742"><ele>1448.3333333333333</ele><time>2026-04-23T17:33:09.895Z</time></trkpt><trkpt lat="31.2109217" lon="-6.09755"><ele>1450.6666666666665</ele><time>2026-04-23T17:33:10.895Z</time></trkpt><trkpt lat="31.2111" lon="-6.0976983"><ele>1453.0</ele><time>2026-04-23T17:33:11.894Z</time></trkpt><trkpt lat="31.21127" lon="-6.0978617"><ele>1453.0</ele><time>2026-04-23T17:33:12.895Z</time></trkpt><trkpt lat="31.21142" lon="-6.0980483"><ele>1453.0</ele><time>2026-04-23T17:33:13.895Z</time></trkpt><trkpt lat="31.2115533" lon="-6.098255"><ele>1453.0</ele><time>2026-04-23T17:33:14.894Z</time></trkpt><trkpt lat="31.2116633" lon="-6.09848"><ele>1453.3333333333333</ele><time>2026-04-23T17:33:15.894Z</time></trkpt><trkpt lat="31.2117667" lon="-6.0987117"><ele>1453.6666666666667</ele><time>2026-04-23T17:33:16.894Z</time></trkpt><trkpt lat="31.2118567" lon="-6.0989517"><ele>1454.0</ele><time>2026-04-23T17:33:17.894Z</time></trkpt><trkpt lat="31.2119217" lon="-6.0992083"><ele>1454.0</ele><time>2026-04-23T17:33:18.894Z</time></trkpt><trkpt lat="31.211965" lon="-6.0994667"><ele>1454.0</ele><time>2026-04-23T17:33:19.895Z</time></trkpt><trkpt lat="31.2119867" lon="-6.09972"><ele>1454.0</ele><time>2026-04-23T17:33:20.895Z</time></trkpt><trkpt lat="31.21199" lon="-6.09997"><ele>1451.6666666666667</ele><time>2026-04-23T17:33:21.894Z</time></trkpt><trkpt lat="31.2119867" lon="-6.100225"><ele>1449.3333333333333</ele><time>2026-04-23T17:33:22.894Z</time></trkpt><trkpt lat="31.21197" lon="-6.1004583"><ele>1447.0</ele><time>2026-04-23T17:33:23.894Z</time></trkpt><trkpt lat="31.2119167" lon="-6.1007167"><ele>1443.0</ele><time>2026-04-23T17:33:24.894Z</time></trkpt><trkpt lat="31.2118517" lon="-6.1009817"><ele>1439.0</ele><time>2026-04-23T17:33:25.894Z</time></trkpt><trkpt lat="31.2117833" lon="-6.1012333"><ele>1439.0</ele><time>2026-04-23T17:33:26.895Z</time></trkpt><trkpt lat="31.2117083" lon="-6.1014983"><ele>1439.0</ele><time>2026-04-23T17:33:27.895Z</time></trkpt><trkpt lat="31.2116467" lon="-6.101745"><ele>1438.5</ele><time>2026-04-23T17:33:28.895Z</time></trkpt><trkpt lat="31.21159" lon="-6.1019967"><ele>1438.0</ele><time>2026-04-23T17:33:29.895Z</time></trkpt><trkpt lat="31.2115233" lon="-6.1022567"><ele>1438.6666666666665</ele><time>2026-04-23T17:33:30.894Z</time></trkpt><trkpt lat="31.2114617" lon="-6.1025033"><ele>1439.3333333333333</ele><time>2026-04-23T17:33:31.895Z</time></trkpt><trkpt lat="31.2114033" lon="-6.1027583"><ele>1440.0</ele><time>2026-04-23T17:33:32.895Z</time></trkpt><trkpt lat="31.2113417" lon="-6.103015"><ele>1440.3333333333333</ele><time>2026-04-23T17:33:33.895Z</time></trkpt><trkpt lat="31.2112783" lon="-6.103265"><ele>1440.6666666666665</ele><time>2026-04-23T17:33:34.895Z</time></trkpt><trkpt lat="31.211215" lon="-6.1035083"><ele>1441.0</ele><time>2026-04-23T17:33:35.895Z</time></trkpt><trkpt lat="31.21115" lon="-6.1037567"><ele>1441.0</ele><time>2026-04-23T17:33:36.895Z</time></trkpt><trkpt lat="31.2110817" lon="-6.1040017"><ele>1441.0</ele><time>2026-04-23T17:33:37.895Z</time></trkpt><trkpt lat="31.21101" lon="-6.1042317"><ele>1441.0</ele><time>2026-04-23T17:33:38.895Z</time></trkpt><trkpt lat="31.2109283" lon="-6.104465"><ele>1442.6666666666665</ele><time>2026-04-23T17:33:39.894Z</time></trkpt><trkpt lat="31.2108367" lon="-6.1046933"><ele>1444.3333333333333</ele><time>2026-04-23T17:33:40.894Z</time></trkpt><trkpt lat="31.2107433" lon="-6.1049083"><ele>1446.0</ele><time>2026-04-23T17:33:41.895Z</time></trkpt><trkpt lat="31.21064" lon="-6.1051233"><ele>1446.0</ele><time>2026-04-23T17:33:42.894Z</time></trkpt><trkpt lat="31.2105333" lon="-6.1053467"><ele>1446.0</ele><time>2026-04-23T17:33:43.895Z</time></trkpt><trkpt lat="31.21042" lon="-6.1055733"><ele>1446.0</ele><time>2026-04-23T17:33:44.895Z</time></trkpt><trkpt lat="31.210305" lon="-6.105795"><ele>1444.3333333333333</ele><time>2026-04-23T17:33:45.895Z</time></trkpt><trkpt lat="31.2101883" lon="-6.106015"><ele>1442.6666666666665</ele><time>2026-04-23T17:33:46.894Z</time></trkpt><trkpt lat="31.2100833" lon="-6.1062433"><ele>1441.0</ele><time>2026-04-23T17:33:47.895Z</time></trkpt><trkpt lat="31.2099783" lon="-6.1064733"><ele>1441.0</ele><time>2026-04-23T17:33:48.895Z</time></trkpt><trkpt lat="31.2098683" lon="-6.1066933"><ele>1441.0</ele><time>2026-04-23T17:33:49.895Z</time></trkpt><trkpt lat="31.2097533" lon="-6.1069117"><ele>1441.0</ele><time>2026-04-23T17:33:50.895Z</time></trkpt><trkpt lat="31.209635" lon="-6.1071417"><ele>1445.0</ele><time>2026-04-23T17:33:51.895Z</time></trkpt><trkpt lat="31.2095233" lon="-6.1073733"><ele>1449.0</ele><time>2026-04-23T17:33:52.894Z</time></trkpt><trkpt lat="31.2094167" lon="-6.1076033"><ele>1449.0</ele><time>2026-04-23T17:33:53.895Z</time></trkpt><trkpt lat="31.209305" lon="-6.107835"><ele>1449.0</ele><time>2026-04-23T17:33:54.895Z</time></trkpt><trkpt lat="31.2091883" lon="-6.1080617"><ele>1447.5</ele><time>2026-04-23T17:33:55.894Z</time></trkpt><trkpt lat="31.2090717" lon="-6.108295"><ele>1446.0</ele><time>2026-04-23T17:33:56.895Z</time></trkpt><trkpt lat="31.2089517" lon="-6.1085383"><ele>1446.0</ele><time>2026-04-23T17:33:57.895Z</time></trkpt><trkpt lat="31.2088367" lon="-6.1087917"><ele>1446.0</ele><time>2026-04-23T17:33:58.895Z</time></trkpt><trkpt lat="31.2087217" lon="-6.1090567"><ele>1443.0</ele><time>2026-04-23T17:33:59.895Z</time></trkpt><trkpt lat="31.20861" lon="-6.1093233"><ele>1440.0</ele><time>2026-04-23T17:34:00.895Z</time></trkpt><trkpt lat="31.2085083" lon="-6.1095917"><ele>1440.0</ele><time>2026-04-23T17:34:01.895Z</time></trkpt><trkpt lat="31.2084083" lon="-6.1098617"><ele>1440.0</ele><time>2026-04-23T17:34:02.895Z</time></trkpt><trkpt lat="31.208305" lon="-6.1101333"><ele>1438.5</ele><time>2026-04-23T17:34:03.895Z</time></trkpt><trkpt lat="31.2082" lon="-6.1104017"><ele>1437.0</ele><time>2026-04-23T17:34:04.895Z</time></trkpt><trkpt lat="31.2081067" lon="-6.110655"><ele>1435.0</ele><time>2026-04-23T17:34:05.895Z</time></trkpt><trkpt lat="31.2080083" lon="-6.11091"><ele>1433.0</ele><time>2026-04-23T17:34:06.895Z</time></trkpt><trkpt lat="31.207905" lon="-6.1111717"><ele>1433.0</ele><time>2026-04-23T17:34:07.895Z</time></trkpt><trkpt lat="31.2078017" lon="-6.1114317"><ele>1433.0</ele><time>2026-04-23T17:34:08.894Z</time></trkpt><trkpt lat="31.2077033" lon="-6.1116833"><ele>1432.0</ele><time>2026-04-23T17:34:09.895Z</time></trkpt><trkpt lat="31.2076017" lon="-6.1119467"><ele>1431.0</ele><time>2026-04-23T17:34:10.895Z</time></trkpt><trkpt lat="31.2074983" lon="-6.112215"><ele>1430.0</ele><time>2026-04-23T17:34:11.895Z</time></trkpt><trkpt lat="31.207395" lon="-6.11248"><ele>1429.0</ele><time>2026-04-23T17:34:12.895Z</time></trkpt><trkpt lat="31.207285" lon="-6.1127467"><ele>1433.5</ele><time>2026-04-23T17:34:13.895Z</time></trkpt><trkpt lat="31.2071767" lon="-6.11302"><ele>1438.0</ele><time>2026-04-23T17:34:14.895Z</time></trkpt><trkpt lat="31.2070717" lon="-6.113295"><ele>1438.0</ele><time>2026-04-23T17:34:15.894Z</time></trkpt><trkpt lat="31.2069733" lon="-6.1135683"><ele>1438.0</ele><time>2026-04-23T17:34:16.895Z</time></trkpt><trkpt lat="31.2068767" lon="-6.113845"><ele>1436.0</ele><time>2026-04-23T17:34:17.895Z</time></trkpt><trkpt lat="31.2067767" lon="-6.11411"><ele>1434.0</ele><time>2026-04-23T17:34:18.895Z</time></trkpt><trkpt lat="31.206675" lon="-6.1143633"><ele>1434.0</ele><time>2026-04-23T17:34:19.895Z</time></trkpt><trkpt lat="31.2065717" lon="-6.1146167"><ele>1434.0</ele><time>2026-04-23T17:34:20.895Z</time></trkpt><trkpt lat="31.2064533" lon="-6.11486"><ele>1434.5</ele><time>2026-04-23T17:34:21.895Z</time></trkpt><trkpt lat="31.2063233" lon="-6.1151"><ele>1435.0</ele><time>2026-04-23T17:34:22.894Z</time></trkpt><trkpt lat="31.2061833" lon="-6.1153333"><ele>1435.0</ele><time>2026-04-23T17:34:23.895Z</time></trkpt><trkpt lat="31.20603" lon="-6.115565"><ele>1435.0</ele><time>2026-04-23T17:34:24.895Z</time></trkpt><trkpt lat="31.205865" lon="-6.11579"><ele>1432.5</ele><time>2026-04-23T17:34:25.895Z</time></trkpt><trkpt lat="31.2056867" lon="-6.1160017"><ele>1430.0</ele><time>2026-04-23T17:34:26.895Z</time></trkpt><trkpt lat="31.205495" lon="-6.116205"><ele>1430.0</ele><time>2026-04-23T17:34:27.895Z</time></trkpt><trkpt lat="31.2052933" lon="-6.116405"><ele>1430.0</ele><time>2026-04-23T17:34:28.895Z</time></trkpt><trkpt lat="31.205085" lon="-6.1165983"><ele>1428.5</ele><time>2026-04-23T17:34:29.895Z</time></trkpt><trkpt lat="31.2048783" lon="-6.11679"><ele>1427.0</ele><time>2026-04-23T17:34:30.895Z</time></trkpt><trkpt lat="31.2046783" lon="-6.1169667"><ele>1431.0</ele><time>2026-04-23T17:34:31.895Z</time></trkpt><trkpt lat="31.2044783" lon="-6.11714"><ele>1435.0</ele><time>2026-04-23T17:34:32.895Z</time></trkpt><trkpt lat="31.2042867" lon="-6.1173083"><ele>1433.5</ele><time>2026-04-23T17:34:33.895Z</time></trkpt><trkpt lat="31.2040967" lon="-6.1174833"><ele>1432.0</ele><time>2026-04-23T17:34:34.895Z</time></trkpt><trkpt lat="31.2039067" lon="-6.11765"><ele>1430.0</ele><time>2026-04-23T17:34:35.895Z</time></trkpt><trkpt lat="31.203715" lon="-6.1178117"><ele>1428.0</ele><time>2026-04-23T17:34:36.895Z</time></trkpt><trkpt lat="31.2035267" lon="-6.117985"><ele>1428.0</ele><time>2026-04-23T17:34:37.895Z</time></trkpt><trkpt lat="31.2033317" lon="-6.1181617"><ele>1428.0</ele><time>2026-04-23T17:34:38.894Z</time></trkpt><trkpt lat="31.2031417" lon="-6.118325"><ele>1428.5</ele><time>2026-04-23T17:34:39.895Z</time></trkpt><trkpt lat="31.2029433" lon="-6.1184767"><ele>1429.0</ele><time>2026-04-23T17:34:40.895Z</time></trkpt><trkpt lat="31.20274" lon="-6.118615"><ele>1429.0</ele><time>2026-04-23T17:34:41.895Z</time></trkpt><trkpt lat="31.2025283" lon="-6.1187367"><ele>1429.0</ele><time>2026-04-23T17:34:42.895Z</time></trkpt><trkpt lat="31.202315" lon="-6.118845"><ele>1431.6666666666665</ele><time>2026-04-23T17:34:43.895Z</time></trkpt><trkpt lat="31.2020967" lon="-6.1189133"><ele>1434.3333333333333</ele><time>2026-04-23T17:34:44.895Z</time></trkpt><trkpt lat="31.20188" lon="-6.1189417"><ele>1437.0</ele><time>2026-04-23T17:34:45.895Z</time></trkpt><trkpt lat="31.20166" lon="-6.1189417"><ele>1435.0</ele><time>2026-04-23T17:34:46.895Z</time></trkpt><trkpt lat="31.201435" lon="-6.118915"><ele>1433.0</ele><time>2026-04-23T17:34:47.895Z</time></trkpt><trkpt lat="31.201205" lon="-6.1188817"><ele>1433.0</ele><time>2026-04-23T17:34:48.895Z</time></trkpt><trkpt lat="31.2009783" lon="-6.118825"><ele>1433.0</ele><time>2026-04-23T17:34:49.894Z</time></trkpt><trkpt lat="31.2007483" lon="-6.118755"><ele>1431.0</ele><time>2026-04-23T17:34:50.894Z</time></trkpt><trkpt lat="31.20053" lon="-6.1186767"><ele>1429.0</ele><time>2026-04-23T17:34:51.895Z</time></trkpt><trkpt lat="31.20032" lon="-6.1185967"><ele>1427.0</ele><time>2026-04-23T17:34:52.895Z</time></trkpt><trkpt lat="31.2001133" lon="-6.1185117"><ele>1427.0</ele><time>2026-04-23T17:34:53.895Z</time></trkpt><trkpt lat="31.199905" lon="-6.1184333"><ele>1427.0</ele><time>2026-04-23T17:34:54.895Z</time></trkpt><trkpt lat="31.1996983" lon="-6.1183533"><ele>1427.0</ele><time>2026-04-23T17:34:55.895Z</time></trkpt><trkpt lat="31.1994933" lon="-6.1182817"><ele>1426.6666666666667</ele><time>2026-04-23T17:34:56.895Z</time></trkpt><trkpt lat="31.199285" lon="-6.1182167"><ele>1426.3333333333333</ele><time>2026-04-23T17:34:57.894Z</time></trkpt><trkpt lat="31.19908" lon="-6.1181533"><ele>1426.0</ele><time>2026-04-23T17:34:58.895Z</time></trkpt><trkpt lat="31.19888" lon="-6.1180983"><ele>1426.0</ele><time>2026-04-23T17:34:59.895Z</time></trkpt><trkpt lat="31.1986767" lon="-6.11806"><ele>1426.0</ele><time>2026-04-23T17:35:00.894Z</time></trkpt><trkpt lat="31.1984783" lon="-6.1180583"><ele>1426.0</ele><time>2026-04-23T17:35:01.894Z</time></trkpt><trkpt lat="31.19828" lon="-6.1180867"><ele>1423.6666666666665</ele><time>2026-04-23T17:35:02.894Z</time></trkpt><trkpt lat="31.1980783" lon="-6.1181517"><ele>1421.3333333333333</ele><time>2026-04-23T17:35:03.895Z</time></trkpt><trkpt lat="31.1978817" lon="-6.1182483"><ele>1419.0</ele><time>2026-04-23T17:35:04.895Z</time></trkpt><trkpt lat="31.1976833" lon="-6.1183533"><ele>1418.3333333333333</ele><time>2026-04-23T17:35:05.895Z</time></trkpt><trkpt lat="31.1974867" lon="-6.1184617"><ele>1417.6666666666665</ele><time>2026-04-23T17:35:06.895Z</time></trkpt><trkpt lat="31.1973017" lon="-6.1185933"><ele>1417.0</ele><time>2026-04-23T17:35:07.895Z</time></trkpt><trkpt lat="31.1971167" lon="-6.118755"><ele>1417.3333333333333</ele><time>2026-04-23T17:35:08.895Z</time></trkpt><trkpt lat="31.1969533" lon="-6.1189317"><ele>1417.6666666666667</ele><time>2026-04-23T17:35:09.895Z</time></trkpt><trkpt lat="31.1968067" lon="-6.1191217"><ele>1418.0</ele><time>2026-04-23T17:35:10.895Z</time></trkpt><trkpt lat="31.1966783" lon="-6.1193483"><ele>1418.0</ele><time>2026-04-23T17:35:11.895Z</time></trkpt><trkpt lat="31.1965667" lon="-6.1195833"><ele>1418.0</ele><time>2026-04-23T17:35:12.894Z</time></trkpt><trkpt lat="31.196475" lon="-6.11984"><ele>1425.0</ele><time>2026-04-23T17:35:13.895Z</time></trkpt><trkpt lat="31.1963983" lon="-6.1200983"><ele>1432.0</ele><time>2026-04-23T17:35:14.894Z</time></trkpt><trkpt lat="31.1963383" lon="-6.12037"><ele>1432.0</ele><time>2026-04-23T17:35:15.895Z</time></trkpt><trkpt lat="31.1962933" lon="-6.12065"><ele>1432.0</ele><time>2026-04-23T17:35:16.895Z</time></trkpt><trkpt lat="31.1962567" lon="-6.12093"><ele>1430.5</ele><time>2026-04-23T17:35:17.895Z</time></trkpt><trkpt lat="31.1962183" lon="-6.12121"><ele>1429.0</ele><time>2026-04-23T17:35:18.895Z</time></trkpt><trkpt lat="31.196175" lon="-6.1214883"><ele>1426.5</ele><time>2026-04-23T17:35:19.895Z</time></trkpt><trkpt lat="31.1961433" lon="-6.1217667"><ele>1424.0</ele><time>2026-04-23T17:35:20.895Z</time></trkpt><trkpt lat="31.1961117" lon="-6.122045"><ele>1424.0</ele><time>2026-04-23T17:35:21.895Z</time></trkpt><trkpt lat="31.1960767" lon="-6.1223183"><ele>1424.0</ele><time>2026-04-23T17:35:22.895Z</time></trkpt><trkpt lat="31.1960467" lon="-6.12259"><ele>1425.5</ele><time>2026-04-23T17:35:23.895Z</time></trkpt><trkpt lat="31.196015" lon="-6.1228583"><ele>1427.0</ele><time>2026-04-23T17:35:24.895Z</time></trkpt><trkpt lat="31.1959833" lon="-6.123125"><ele>1427.0</ele><time>2026-04-23T17:35:25.894Z</time></trkpt><trkpt lat="31.1959483" lon="-6.1233917"><ele>1427.0</ele><time>2026-04-23T17:35:26.894Z</time></trkpt><trkpt lat="31.19592" lon="-6.1236517"><ele>1427.0</ele><time>2026-04-23T17:35:27.895Z</time></trkpt><trkpt lat="31.1958883" lon="-6.1239167"><ele>1427.0</ele><time>2026-04-23T17:35:28.895Z</time></trkpt><trkpt lat="31.1958583" lon="-6.1241817"><ele>1427.0</ele><time>2026-04-23T17:35:29.895Z</time></trkpt><trkpt lat="31.1958233" lon="-6.1244483"><ele>1427.0</ele><time>2026-04-23T17:35:30.895Z</time></trkpt><trkpt lat="31.195795" lon="-6.1247183"><ele>1427.5</ele><time>2026-04-23T17:35:31.895Z</time></trkpt><trkpt lat="31.1957683" lon="-6.12499"><ele>1428.0</ele><time>2026-04-23T17:35:32.895Z</time></trkpt><trkpt lat="31.1957433" lon="-6.125265"><ele>1428.0</ele><time>2026-04-23T17:35:33.895Z</time></trkpt><trkpt lat="31.195715" lon="-6.125535"><ele>1428.0</ele><time>2026-04-23T17:35:34.894Z</time></trkpt><trkpt lat="31.1956783" lon="-6.1258117"><ele>1428.0</ele><time>2026-04-23T17:35:35.895Z</time></trkpt><trkpt lat="31.1956383" lon="-6.1260883"><ele>1428.0</ele><time>2026-04-23T17:35:36.895Z</time></trkpt><trkpt lat="31.1956017" lon="-6.1263633"><ele>1430.0</ele><time>2026-04-23T17:35:37.895Z</time></trkpt><trkpt lat="31.195565" lon="-6.1266433"><ele>1432.0</ele><time>2026-04-23T17:35:38.895Z</time></trkpt><trkpt lat="31.1955283" lon="-6.126925"><ele>1432.0</ele><time>2026-04-23T17:35:39.895Z</time></trkpt><trkpt lat="31.1954917" lon="-6.1272167"><ele>1432.0</ele><time>2026-04-23T17:35:40.895Z</time></trkpt><trkpt lat="31.195455" lon="-6.127505"><ele>1431.5</ele><time>2026-04-23T17:35:41.895Z</time></trkpt><trkpt lat="31.1954183" lon="-6.1277967"><ele>1431.0</ele><time>2026-04-23T17:35:42.894Z</time></trkpt><trkpt lat="31.195385" lon="-6.1280883"><ele>1430.0</ele><time>2026-04-23T17:35:43.895Z</time></trkpt><trkpt lat="31.19535" lon="-6.128385"><ele>1429.0</ele><time>2026-04-23T17:35:44.895Z</time></trkpt><trkpt lat="31.195315" lon="-6.12868"><ele>1429.0</ele><time>2026-04-23T17:35:45.895Z</time></trkpt><trkpt lat="31.1952767" lon="-6.1289583"><ele>1429.0</ele><time>2026-04-23T17:35:46.895Z</time></trkpt><trkpt lat="31.195245" lon="-6.12923"><ele>1428.5</ele><time>2026-04-23T17:35:47.895Z</time></trkpt><trkpt lat="31.1952133" lon="-6.1295"><ele>1428.0</ele><time>2026-04-23T17:35:48.895Z</time></trkpt><trkpt lat="31.19518" lon="-6.1297633"><ele>1427.0</ele><time>2026-04-23T17:35:49.894Z</time></trkpt><trkpt lat="31.195145" lon="-6.130015"><ele>1426.0</ele><time>2026-04-23T17:35:50.895Z</time></trkpt><trkpt lat="31.1951133" lon="-6.1302583"><ele>1425.0</ele><time>2026-04-23T17:35:51.895Z</time></trkpt><trkpt lat="31.195085" lon="-6.1305"><ele>1424.6666666666667</ele><time>2026-04-23T17:35:52.894Z</time></trkpt><trkpt lat="31.1950567" lon="-6.1307383"><ele>1424.3333333333335</ele><time>2026-04-23T17:35:53.894Z</time></trkpt><trkpt lat="31.1950283" lon="-6.13097"><ele>1424.0</ele><time>2026-04-23T17:35:54.895Z</time></trkpt><trkpt lat="31.1950017" lon="-6.131195"><ele>1424.0</ele><time>2026-04-23T17:35:55.895Z</time></trkpt><trkpt lat="31.19497" lon="-6.131415"><ele>1424.0</ele><time>2026-04-23T17:35:56.894Z</time></trkpt><trkpt lat="31.1949433" lon="-6.131635"><ele>1424.0</ele><time>2026-04-23T17:35:57.895Z</time></trkpt><trkpt lat="31.1949083" lon="-6.1318583"><ele>1423.3333333333335</ele><time>2026-04-23T17:35:58.894Z</time></trkpt><trkpt lat="31.1948667" lon="-6.1320783"><ele>1422.6666666666667</ele><time>2026-04-23T17:35:59.894Z</time></trkpt><trkpt lat="31.1948167" lon="-6.132305"><ele>1422.0</ele><time>2026-04-23T17:36:00.894Z</time></trkpt><trkpt lat="31.194755" lon="-6.1325383"><ele>1419.3333333333333</ele><time>2026-04-23T17:36:01.894Z</time></trkpt><trkpt lat="31.1946767" lon="-6.13277"><ele>1416.6666666666665</ele><time>2026-04-23T17:36:02.895Z</time></trkpt><trkpt lat="31.1945833" lon="-6.1330033"><ele>1414.0</ele><time>2026-04-23T17:36:03.894Z</time></trkpt><trkpt lat="31.19447" lon="-6.13322"><ele>1410.0</ele><time>2026-04-23T17:36:04.894Z</time></trkpt><trkpt lat="31.1943467" lon="-6.1334317"><ele>1406.0</ele><time>2026-04-23T17:36:05.894Z</time></trkpt><trkpt lat="31.19422" lon="-6.1336233"><ele>1402.0</ele><time>2026-04-23T17:36:06.894Z</time></trkpt><trkpt lat="31.1940817" lon="-6.1338083"><ele>1405.6666666666665</ele><time>2026-04-23T17:36:07.895Z</time></trkpt><trkpt lat="31.19394" lon="-6.1339733"><ele>1409.3333333333333</ele><time>2026-04-23T17:36:08.895Z</time></trkpt><trkpt lat="31.1937883" lon="-6.1341283"><ele>1413.0</ele><time>2026-04-23T17:36:09.895Z</time></trkpt><trkpt lat="31.1936333" lon="-6.1342733"><ele>1414.0</ele><time>2026-04-23T17:36:10.894Z</time></trkpt><trkpt lat="31.1934633" lon="-6.1344067"><ele>1415.0</ele><time>2026-04-23T17:36:11.895Z</time></trkpt><trkpt lat="31.19329" lon="-6.1345317"><ele>1416.0</ele><time>2026-04-23T17:36:12.895Z</time></trkpt><trkpt lat="31.1931067" lon="-6.1346417"><ele>1417.3333333333333</ele><time>2026-04-23T17:36:13.894Z</time></trkpt><trkpt lat="31.1929133" lon="-6.1347517"><ele>1418.6666666666665</ele><time>2026-04-23T17:36:14.895Z</time></trkpt><trkpt lat="31.1927233" lon="-6.1348533"><ele>1420.0</ele><time>2026-04-23T17:36:15.895Z</time></trkpt><trkpt lat="31.19253" lon="-6.13495"><ele>1419.6666666666665</ele><time>2026-04-23T17:36:16.895Z</time></trkpt><trkpt lat="31.1923317" lon="-6.1350417"><ele>1419.3333333333333</ele><time>2026-04-23T17:36:17.894Z</time></trkpt><trkpt lat="31.19213" lon="-6.135135"><ele>1419.0</ele><time>2026-04-23T17:36:18.895Z</time></trkpt><trkpt lat="31.1919217" lon="-6.1352283"><ele>1419.0</ele><time>2026-04-23T17:36:19.895Z</time></trkpt><trkpt lat="31.191715" lon="-6.1353233"><ele>1419.0</ele><time>2026-04-23T17:36:20.895Z</time></trkpt><trkpt lat="31.191515" lon="-6.1354183"><ele>1419.0</ele><time>2026-04-23T17:36:21.894Z</time></trkpt><trkpt lat="31.191305" lon="-6.13552"><ele>1420.5</ele><time>2026-04-23T17:36:22.895Z</time></trkpt><trkpt lat="31.1910933" lon="-6.1356133"><ele>1422.0</ele><time>2026-04-23T17:36:23.895Z</time></trkpt><trkpt lat="31.1908733" lon="-6.13571"><ele>1418.5</ele><time>2026-04-23T17:36:24.895Z</time></trkpt><trkpt lat="31.1906367" lon="-6.13581"><ele>1415.0</ele><time>2026-04-23T17:36:25.895Z</time></trkpt><trkpt lat="31.1903917" lon="-6.135915"><ele>1415.0</ele><time>2026-04-23T17:36:26.895Z</time></trkpt><trkpt lat="31.1901417" lon="-6.13603"><ele>1415.0</ele><time>2026-04-23T17:36:27.894Z</time></trkpt><trkpt lat="31.1898917" lon="-6.1361533"><ele>1414.0</ele><time>2026-04-23T17:36:28.895Z</time></trkpt><trkpt lat="31.189645" lon="-6.1362683"><ele>1413.0</ele><time>2026-04-23T17:36:29.895Z</time></trkpt><trkpt lat="31.1894067" lon="-6.136385"><ele>1413.0</ele><time>2026-04-23T17:36:30.895Z</time></trkpt><trkpt lat="31.1891783" lon="-6.1365083"><ele>1413.0</ele><time>2026-04-23T17:36:31.894Z</time></trkpt><trkpt lat="31.1889533" lon="-6.1366317"><ele>1415.0</ele><time>2026-04-23T17:36:32.895Z</time></trkpt><trkpt lat="31.1887317" lon="-6.13676"><ele>1417.0</ele><time>2026-04-23T17:36:33.895Z</time></trkpt><trkpt lat="31.1885217" lon="-6.1369017"><ele>1417.0</ele><time>2026-04-23T17:36:34.895Z</time></trkpt><trkpt lat="31.1883183" lon="-6.137065"><ele>1417.0</ele><time>2026-04-23T17:36:35.895Z</time></trkpt><trkpt lat="31.18813" lon="-6.1372517"><ele>1416.0</ele><time>2026-04-23T17:36:36.894Z</time></trkpt><trkpt lat="31.1879533" lon="-6.1374533"><ele>1415.0</ele><time>2026-04-23T17:36:37.895Z</time></trkpt><trkpt lat="31.18779" lon="-6.1376667"><ele>1415.0</ele><time>2026-04-23T17:36:38.895Z</time></trkpt><trkpt lat="31.1876333" lon="-6.1378917"><ele>1415.0</ele><time>2026-04-23T17:36:39.895Z</time></trkpt><trkpt lat="31.187485" lon="-6.138125"><ele>1414.0</ele><time>2026-04-23T17:36:40.895Z</time></trkpt><trkpt lat="31.1873483" lon="-6.1383683"><ele>1413.0</ele><time>2026-04-23T17:36:41.895Z</time></trkpt><trkpt lat="31.1872117" lon="-6.1386183"><ele>1415.0</ele><time>2026-04-23T17:36:42.894Z</time></trkpt><trkpt lat="31.18708" lon="-6.1388717"><ele>1417.0</ele><time>2026-04-23T17:36:43.895Z</time></trkpt><trkpt lat="31.1869417" lon="-6.13912"><ele>1417.0</ele><time>2026-04-23T17:36:44.895Z</time></trkpt><trkpt lat="31.1868067" lon="-6.139365"><ele>1417.0</ele><time>2026-04-23T17:36:45.895Z</time></trkpt><trkpt lat="31.1866767" lon="-6.1396067"><ele>1417.0</ele><time>2026-04-23T17:36:46.895Z</time></trkpt><trkpt lat="31.186545" lon="-6.13984"><ele>1417.0</ele><time>2026-04-23T17:36:47.895Z</time></trkpt><trkpt lat="31.1864183" lon="-6.1400717"><ele>1416.5</ele><time>2026-04-23T17:36:48.895Z</time></trkpt><trkpt lat="31.1862867" lon="-6.1403033"><ele>1416.0</ele><time>2026-04-23T17:36:49.894Z</time></trkpt><trkpt lat="31.1861533" lon="-6.14054"><ele>1416.0</ele><time>2026-04-23T17:36:50.895Z</time></trkpt><trkpt lat="31.1860233" lon="-6.14078"><ele>1416.0</ele><time>2026-04-23T17:36:51.894Z</time></trkpt><trkpt lat="31.1858867" lon="-6.1410217"><ele>1416.0</ele><time>2026-04-23T17:36:52.895Z</time></trkpt><trkpt lat="31.185755" lon="-6.14126"><ele>1416.0</ele><time>2026-04-23T17:36:53.895Z</time></trkpt><trkpt lat="31.1856217" lon="-6.141495"><ele>1423.0</ele><time>2026-04-23T17:36:54.895Z</time></trkpt><trkpt lat="31.1854883" lon="-6.14173"><ele>1430.0</ele><time>2026-04-23T17:36:55.895Z</time></trkpt><trkpt lat="31.185365" lon="-6.14197"><ele>1430.0</ele><time>2026-04-23T17:36:56.895Z</time></trkpt><trkpt lat="31.1852333" lon="-6.142205"><ele>1430.0</ele><time>2026-04-23T17:36:57.895Z</time></trkpt><trkpt lat="31.1850967" lon="-6.1424433"><ele>1428.0</ele><time>2026-04-23T17:36:58.894Z</time></trkpt><trkpt lat="31.1849633" lon="-6.1426917"><ele>1426.0</ele><time>2026-04-23T17:36:59.895Z</time></trkpt><trkpt lat="31.18483" lon="-6.142935"><ele>1426.5</ele><time>2026-04-23T17:37:00.894Z</time></trkpt><trkpt lat="31.1846917" lon="-6.14318"><ele>1427.0</ele><time>2026-04-23T17:37:01.895Z</time></trkpt><trkpt lat="31.1845517" lon="-6.1434217"><ele>1427.0</ele><time>2026-04-23T17:37:02.894Z</time></trkpt><trkpt lat="31.18441" lon="-6.1436583"><ele>1427.0</ele><time>2026-04-23T17:37:03.894Z</time></trkpt><trkpt lat="31.184265" lon="-6.143885"><ele>1426.5</ele><time>2026-04-23T17:37:04.895Z</time></trkpt><trkpt lat="31.184105" lon="-6.1440967"><ele>1426.0</ele><time>2026-04-23T17:37:05.895Z</time></trkpt><trkpt lat="31.1839267" lon="-6.1442917"><ele>1426.0</ele><time>2026-04-23T17:37:06.895Z</time></trkpt><trkpt lat="31.1837333" lon="-6.1444733"><ele>1426.0</ele><time>2026-04-23T17:37:07.895Z</time></trkpt><trkpt lat="31.183535" lon="-6.1446267"><ele>1426.0</ele><time>2026-04-23T17:37:08.895Z</time></trkpt><trkpt lat="31.1833317" lon="-6.1447717"><ele>1426.0</ele><time>2026-04-23T17:37:09.895Z</time></trkpt><trkpt lat="31.18311" lon="-6.1449217"><ele>1423.5</ele><time>2026-04-23T17:37:10.895Z</time></trkpt><trkpt lat="31.182895" lon="-6.14505"><ele>1421.0</ele><time>2026-04-23T17:37:11.895Z</time></trkpt><trkpt lat="31.1826833" lon="-6.1451767"><ele>1421.0</ele><time>2026-04-23T17:37:12.895Z</time></trkpt><trkpt lat="31.182475" lon="-6.1452967"><ele>1421.0</ele><time>2026-04-23T17:37:13.895Z</time></trkpt><trkpt lat="31.18228" lon="-6.1454117"><ele>1418.6666666666667</ele><time>2026-04-23T17:37:14.895Z</time></trkpt><trkpt lat="31.1820867" lon="-6.145525"><ele>1416.3333333333333</ele><time>2026-04-23T17:37:15.895Z</time></trkpt><trkpt lat="31.181885" lon="-6.145645"><ele>1414.0</ele><time>2026-04-23T17:37:16.895Z</time></trkpt><trkpt lat="31.1816867" lon="-6.1457783"><ele>1410.5</ele><time>2026-04-23T17:37:17.895Z</time></trkpt><trkpt lat="31.1814917" lon="-6.1459533"><ele>1407.0</ele><time>2026-04-23T17:37:18.895Z</time></trkpt><trkpt lat="31.1813133" lon="-6.14616"><ele>1407.0</ele><time>2026-04-23T17:37:19.895Z</time></trkpt><trkpt lat="31.1811533" lon="-6.14639"><ele>1407.0</ele><time>2026-04-23T17:37:20.895Z</time></trkpt><trkpt lat="31.1810017" lon="-6.14662"><ele>1405.5</ele><time>2026-04-23T17:37:21.895Z</time></trkpt><trkpt lat="31.18087" lon="-6.1468683"><ele>1404.0</ele><time>2026-04-23T17:37:22.895Z</time></trkpt><trkpt lat="31.1807683" lon="-6.1471233"><ele>1404.0</ele><time>2026-04-23T17:37:23.895Z</time></trkpt><trkpt lat="31.180695" lon="-6.1473817"><ele>1404.0</ele><time>2026-04-23T17:37:24.895Z</time></trkpt><trkpt lat="31.1806617" lon="-6.1476567"><ele>1404.0</ele><time>2026-04-23T17:37:25.895Z</time></trkpt><trkpt lat="31.1806383" lon="-6.1479483"><ele>1404.0</ele><time>2026-04-23T17:37:26.895Z</time></trkpt><trkpt lat="31.1806383" lon="-6.148245"><ele>1402.5</ele><time>2026-04-23T17:37:27.894Z</time></trkpt><trkpt lat="31.18066" lon="-6.148545"><ele>1401.0</ele><time>2026-04-23T17:37:28.895Z</time></trkpt><trkpt lat="31.1806883" lon="-6.1488433"><ele>1399.0</ele><time>2026-04-23T17:37:29.895Z</time></trkpt><trkpt lat="31.1807267" lon="-6.1491467"><ele>1397.0</ele><time>2026-04-23T17:37:30.895Z</time></trkpt><trkpt lat="31.1807733" lon="-6.1494367"><ele>1397.0</ele><time>2026-04-23T17:37:31.894Z</time></trkpt><trkpt lat="31.1808267" lon="-6.149725"><ele>1397.0</ele><time>2026-04-23T17:37:32.894Z</time></trkpt><trkpt lat="31.18087" lon="-6.1500167"><ele>1398.5</ele><time>2026-04-23T17:37:33.895Z</time></trkpt><trkpt lat="31.1809167" lon="-6.1503133"><ele>1400.0</ele><time>2026-04-23T17:37:34.895Z</time></trkpt><trkpt lat="31.1809617" lon="-6.1506017"><ele>1403.0</ele><time>2026-04-23T17:37:35.895Z</time></trkpt><trkpt lat="31.181005" lon="-6.1508883"><ele>1406.0</ele><time>2026-04-23T17:37:36.895Z</time></trkpt><trkpt lat="31.181045" lon="-6.1511733"><ele>1406.0</ele><time>2026-04-23T17:37:37.894Z</time></trkpt><trkpt lat="31.1810817" lon="-6.1514467"><ele>1406.0</ele><time>2026-04-23T17:37:38.895Z</time></trkpt><trkpt lat="31.181115" lon="-6.1517183"><ele>1408.5</ele><time>2026-04-23T17:37:39.895Z</time></trkpt><trkpt lat="31.181155" lon="-6.1519933"><ele>1411.0</ele><time>2026-04-23T17:37:40.895Z</time></trkpt><trkpt lat="31.1811967" lon="-6.1522683"><ele>1413.0</ele><time>2026-04-23T17:37:41.894Z</time></trkpt><trkpt lat="31.18124" lon="-6.152535"><ele>1415.0</ele><time>2026-04-23T17:37:42.894Z</time></trkpt><trkpt lat="31.18127" lon="-6.1527917"><ele>1415.0</ele><time>2026-04-23T17:37:43.894Z</time></trkpt><trkpt lat="31.1812883" lon="-6.153045"><ele>1415.0</ele><time>2026-04-23T17:37:44.895Z</time></trkpt><trkpt lat="31.1812883" lon="-6.15329"><ele>1415.0</ele><time>2026-04-23T17:37:45.894Z</time></trkpt><trkpt lat="31.1812717" lon="-6.1535283"><ele>1417.0</ele><time>2026-04-23T17:37:46.894Z</time></trkpt><trkpt lat="31.181235" lon="-6.1537617"><ele>1419.0</ele><time>2026-04-23T17:37:47.894Z</time></trkpt><trkpt lat="31.1811783" lon="-6.1539917"><ele>1421.0</ele><time>2026-04-23T17:37:48.894Z</time></trkpt><trkpt lat="31.18111" lon="-6.1542067"><ele>1421.3333333333335</ele><time>2026-04-23T17:37:49.895Z</time></trkpt><trkpt lat="31.1810233" lon="-6.1544133"><ele>1421.6666666666667</ele><time>2026-04-23T17:37:50.895Z</time></trkpt><trkpt lat="31.1809233" lon="-6.1546167"><ele>1422.0</ele><time>2026-04-23T17:37:51.894Z</time></trkpt><trkpt lat="31.180805" lon="-6.1548133"><ele>1423.0</ele><time>2026-04-23T17:37:52.894Z</time></trkpt><trkpt lat="31.180675" lon="-6.1549967"><ele>1424.0</ele><time>2026-04-23T17:37:53.895Z</time></trkpt><trkpt lat="31.1805283" lon="-6.155165"><ele>1425.0</ele><time>2026-04-23T17:37:54.895Z</time></trkpt><trkpt lat="31.18037" lon="-6.1553267"><ele>1425.0</ele><time>2026-04-23T17:37:55.895Z</time></trkpt><trkpt lat="31.1801983" lon="-6.1554767"><ele>1425.0</ele><time>2026-04-23T17:37:56.895Z</time></trkpt><trkpt lat="31.1800217" lon="-6.1556233"><ele>1425.0</ele><time>2026-04-23T17:37:57.894Z</time></trkpt><trkpt lat="31.179845" lon="-6.1557767"><ele>1426.3333333333333</ele><time>2026-04-23T17:37:58.895Z</time></trkpt><trkpt lat="31.179665" lon="-6.1559283"><ele>1427.6666666666665</ele><time>2026-04-23T17:37:59.895Z</time></trkpt><trkpt lat="31.1794817" lon="-6.15607"><ele>1429.0</ele><time>2026-04-23T17:38:00.894Z</time></trkpt><trkpt lat="31.1792967" lon="-6.1562067"><ele>1429.0</ele><time>2026-04-23T17:38:01.895Z</time></trkpt><trkpt lat="31.1791083" lon="-6.156335"><ele>1429.0</ele><time>2026-04-23T17:38:02.895Z</time></trkpt><trkpt lat="31.178905" lon="-6.156445"><ele>1429.0</ele><time>2026-04-23T17:38:03.894Z</time></trkpt><trkpt lat="31.1786933" lon="-6.15653"><ele>1434.5</ele><time>2026-04-23T17:38:04.895Z</time></trkpt><trkpt lat="31.1784767" lon="-6.15661"><ele>1440.0</ele><time>2026-04-23T17:38:05.894Z</time></trkpt><trkpt lat="31.178255" lon="-6.15667"><ele>1443.0</ele><time>2026-04-23T17:38:06.894Z</time></trkpt><trkpt lat="31.1780333" lon="-6.15672"><ele>1446.0</ele><time>2026-04-23T17:38:07.894Z</time></trkpt><trkpt lat="31.1778" lon="-6.156765"><ele>1446.0</ele><time>2026-04-23T17:38:08.894Z</time></trkpt><trkpt lat="31.17756" lon="-6.1567933"><ele>1446.0</ele><time>2026-04-23T17:38:09.893Z</time></trkpt><trkpt lat="31.1773067" lon="-6.156815"><ele>1443.5</ele><time>2026-04-23T17:38:10.894Z</time></trkpt><trkpt lat="31.1770467" lon="-6.1568417"><ele>1441.0</ele><time>2026-04-23T17:38:11.894Z</time></trkpt><trkpt lat="31.17678" lon="-6.1568683"><ele>1440.5</ele><time>2026-04-23T17:38:12.894Z</time></trkpt><trkpt lat="31.1765117" lon="-6.156895"><ele>1440.0</ele><time>2026-04-23T17:38:13.894Z</time></trkpt><trkpt lat="31.1762517" lon="-6.1569217"><ele>1440.0</ele><time>2026-04-23T17:38:14.893Z</time></trkpt><trkpt lat="31.1760083" lon="-6.156955"><ele>1440.0</ele><time>2026-04-23T17:38:15.894Z</time></trkpt><trkpt lat="31.17577" lon="-6.1569933"><ele>1439.0</ele><time>2026-04-23T17:38:16.894Z</time></trkpt><trkpt lat="31.175535" lon="-6.157025"><ele>1438.0</ele><time>2026-04-23T17:38:17.894Z</time></trkpt><trkpt lat="31.175295" lon="-6.157055"><ele>1438.0</ele><time>2026-04-23T17:38:18.894Z</time></trkpt><trkpt lat="31.1750567" lon="-6.157075"><ele>1438.0</ele><time>2026-04-23T17:38:19.894Z</time></trkpt><trkpt lat="31.1748217" lon="-6.1571"><ele>1438.0</ele><time>2026-04-23T17:38:20.894Z</time></trkpt><trkpt lat="31.1745967" lon="-6.1571217"><ele>1438.0</ele><time>2026-04-23T17:38:21.894Z</time></trkpt><trkpt lat="31.1743667" lon="-6.157155"><ele>1438.0</ele><time>2026-04-23T17:38:22.894Z</time></trkpt><trkpt lat="31.1741333" lon="-6.1572"><ele>1438.0</ele><time>2026-04-23T17:38:23.894Z</time></trkpt><trkpt lat="31.1738967" lon="-6.15725"><ele>1438.5</ele><time>2026-04-23T17:38:24.894Z</time></trkpt><trkpt lat="31.1736617" lon="-6.1573"><ele>1439.0</ele><time>2026-04-23T17:38:25.894Z</time></trkpt><trkpt lat="31.1734283" lon="-6.157365"><ele>1436.5</ele><time>2026-04-23T17:38:26.894Z</time></trkpt><trkpt lat="31.1731933" lon="-6.15745"><ele>1434.0</ele><time>2026-04-23T17:38:27.894Z</time></trkpt><trkpt lat="31.172955" lon="-6.1575417"><ele>1434.0</ele><time>2026-04-23T17:38:28.893Z</time></trkpt><trkpt lat="31.1727117" lon="-6.1576417"><ele>1434.0</ele><time>2026-04-23T17:38:29.893Z</time></trkpt><trkpt lat="31.172465" lon="-6.1577367"><ele>1434.5</ele><time>2026-04-23T17:38:30.894Z</time></trkpt><trkpt lat="31.1722133" lon="-6.157835"><ele>1435.0</ele><time>2026-04-23T17:38:31.894Z</time></trkpt><trkpt lat="31.1719583" lon="-6.157935"><ele>1435.0</ele><time>2026-04-23T17:38:32.894Z</time></trkpt><trkpt lat="31.171705" lon="-6.1580383"><ele>1435.0</ele><time>2026-04-23T17:38:33.894Z</time></trkpt><trkpt lat="31.1714583" lon="-6.1581367"><ele>1435.5</ele><time>2026-04-23T17:38:34.894Z</time></trkpt><trkpt lat="31.171215" lon="-6.1582317"><ele>1436.0</ele><time>2026-04-23T17:38:35.893Z</time></trkpt><trkpt lat="31.1709683" lon="-6.1583233"><ele>1436.0</ele><time>2026-04-23T17:38:36.894Z</time></trkpt><trkpt lat="31.1707267" lon="-6.158425"><ele>1436.0</ele><time>2026-04-23T17:38:37.894Z</time></trkpt><trkpt lat="31.170485" lon="-6.1585233"><ele>1436.0</ele><time>2026-04-23T17:38:38.894Z</time></trkpt><trkpt lat="31.1702533" lon="-6.1586183"><ele>1436.0</ele><time>2026-04-23T17:38:39.893Z</time></trkpt><trkpt lat="31.170025" lon="-6.1587133"><ele>1437.5</ele><time>2026-04-23T17:38:40.894Z</time></trkpt><trkpt lat="31.1697983" lon="-6.1588117"><ele>1439.0</ele><time>2026-04-23T17:38:41.894Z</time></trkpt><trkpt lat="31.1695717" lon="-6.1589083"><ele>1439.0</ele><time>2026-04-23T17:38:42.894Z</time></trkpt><trkpt lat="31.16935" lon="-6.1589933"><ele>1439.0</ele><time>2026-04-23T17:38:43.894Z</time></trkpt><trkpt lat="31.169135" lon="-6.1590667"><ele>1441.5</ele><time>2026-04-23T17:38:44.893Z</time></trkpt><trkpt lat="31.16891" lon="-6.1591283"><ele>1444.0</ele><time>2026-04-23T17:38:45.894Z</time></trkpt><trkpt lat="31.1686833" lon="-6.1591933"><ele>1444.0</ele><time>2026-04-23T17:38:46.894Z</time></trkpt><trkpt lat="31.168455" lon="-6.1592433"><ele>1444.0</ele><time>2026-04-23T17:38:47.894Z</time></trkpt><trkpt lat="31.1682183" lon="-6.1592817"><ele>1445.5</ele><time>2026-04-23T17:38:48.894Z</time></trkpt><trkpt lat="31.167985" lon="-6.1593067"><ele>1447.0</ele><time>2026-04-23T17:38:49.894Z</time></trkpt><trkpt lat="31.1677417" lon="-6.159315"><ele>1447.0</ele><time>2026-04-23T17:38:50.894Z</time></trkpt><trkpt lat="31.1674917" lon="-6.1593"><ele>1447.0</ele><time>2026-04-23T17:38:51.894Z</time></trkpt><trkpt lat="31.1672333" lon="-6.1592617"><ele>1448.0</ele><time>2026-04-23T17:38:52.894Z</time></trkpt><trkpt lat="31.16697" lon="-6.15922"><ele>1449.0</ele><time>2026-04-23T17:38:53.894Z</time></trkpt><trkpt lat="31.1666933" lon="-6.1591767"><ele>1448.0</ele><time>2026-04-23T17:38:54.893Z</time></trkpt><trkpt lat="31.166405" lon="-6.1591317"><ele>1447.0</ele><time>2026-04-23T17:38:55.894Z</time></trkpt><trkpt lat="31.1661033" lon="-6.1590933"><ele>1447.0</ele><time>2026-04-23T17:38:56.894Z</time></trkpt><trkpt lat="31.165795" lon="-6.159065"><ele>1447.0</ele><time>2026-04-23T17:38:57.894Z</time></trkpt><trkpt lat="31.165495" lon="-6.1590517"><ele>1447.5</ele><time>2026-04-23T17:38:58.893Z</time></trkpt><trkpt lat="31.1652017" lon="-6.15906"><ele>1448.0</ele><time>2026-04-23T17:38:59.894Z</time></trkpt><trkpt lat="31.16492" lon="-6.159085"><ele>1448.5</ele><time>2026-04-23T17:39:00.894Z</time></trkpt><trkpt lat="31.1646517" lon="-6.1591317"><ele>1449.0</ele><time>2026-04-23T17:39:01.894Z</time></trkpt><trkpt lat="31.1643933" lon="-6.15919"><ele>1449.0</ele><time>2026-04-23T17:39:02.894Z</time></trkpt><trkpt lat="31.16414" lon="-6.1592783"><ele>1449.0</ele><time>2026-04-23T17:39:03.894Z</time></trkpt><trkpt lat="31.1638933" lon="-6.1593983"><ele>1448.5</ele><time>2026-04-23T17:39:04.894Z</time></trkpt><trkpt lat="31.1636567" lon="-6.159535"><ele>1448.0</ele><time>2026-04-23T17:39:05.894Z</time></trkpt><trkpt lat="31.163435" lon="-6.1596817"><ele>1448.0</ele><time>2026-04-23T17:39:06.894Z</time></trkpt><trkpt lat="31.1632283" lon="-6.1598383"><ele>1448.0</ele><time>2026-04-23T17:39:07.893Z</time></trkpt><trkpt lat="31.1630267" lon="-6.1600067"><ele>1450.5</ele><time>2026-04-23T17:39:08.894Z</time></trkpt><trkpt lat="31.1628417" lon="-6.1601933"><ele>1453.0</ele><time>2026-04-23T17:39:09.894Z</time></trkpt><trkpt lat="31.1626683" lon="-6.16039"><ele>1453.0</ele><time>2026-04-23T17:39:10.894Z</time></trkpt><trkpt lat="31.16252" lon="-6.1605933"><ele>1453.0</ele><time>2026-04-23T17:39:11.894Z</time></trkpt><trkpt lat="31.1623717" lon="-6.1608167"><ele>1454.0</ele><time>2026-04-23T17:39:12.894Z</time></trkpt><trkpt lat="31.162235" lon="-6.1610567"><ele>1455.0</ele><time>2026-04-23T17:39:13.894Z</time></trkpt><trkpt lat="31.1621183" lon="-6.1613017"><ele>1456.5</ele><time>2026-04-23T17:39:14.893Z</time></trkpt><trkpt lat="31.1620067" lon="-6.1615567"><ele>1458.0</ele><time>2026-04-23T17:39:15.894Z</time></trkpt><trkpt lat="31.1619133" lon="-6.16182"><ele>1458.0</ele><time>2026-04-23T17:39:16.894Z</time></trkpt><trkpt lat="31.1618367" lon="-6.162095"><ele>1458.0</ele><time>2026-04-23T17:39:17.894Z</time></trkpt><trkpt lat="31.1617883" lon="-6.1623817"><ele>1458.0</ele><time>2026-04-23T17:39:18.894Z</time></trkpt><trkpt lat="31.1617483" lon="-6.1626783"><ele>1458.0</ele><time>2026-04-23T17:39:19.894Z</time></trkpt><trkpt lat="31.161715" lon="-6.1629833"><ele>1457.0</ele><time>2026-04-23T17:39:20.893Z</time></trkpt><trkpt lat="31.161695" lon="-6.1633067"><ele>1456.0</ele><time>2026-04-23T17:39:21.894Z</time></trkpt><trkpt lat="31.16168" lon="-6.1636317"><ele>1456.0</ele><time>2026-04-23T17:39:22.893Z</time></trkpt><trkpt lat="31.161665" lon="-6.1639467"><ele>1456.0</ele><time>2026-04-23T17:39:23.894Z</time></trkpt><trkpt lat="31.1616433" lon="-6.1642483"><ele>1456.5</ele><time>2026-04-23T17:39:24.893Z</time></trkpt><trkpt lat="31.1616233" lon="-6.16454"><ele>1457.0</ele><time>2026-04-23T17:39:25.894Z</time></trkpt><trkpt lat="31.1616067" lon="-6.1648333"><ele>1459.5</ele><time>2026-04-23T17:39:26.894Z</time></trkpt><trkpt lat="31.1615917" lon="-6.1651267"><ele>1462.0</ele><time>2026-04-23T17:39:27.894Z</time></trkpt><trkpt lat="31.1615733" lon="-6.1654167"><ele>1463.0</ele><time>2026-04-23T17:39:28.894Z</time></trkpt><trkpt lat="31.16155" lon="-6.165705"><ele>1464.0</ele><time>2026-04-23T17:39:29.894Z</time></trkpt><trkpt lat="31.1615267" lon="-6.166005"><ele>1464.0</ele><time>2026-04-23T17:39:30.894Z</time></trkpt><trkpt lat="31.1615033" lon="-6.166295"><ele>1464.0</ele><time>2026-04-23T17:39:31.894Z</time></trkpt><trkpt lat="31.1614817" lon="-6.1665867"><ele>1467.0</ele><time>2026-04-23T17:39:32.894Z</time></trkpt><trkpt lat="31.16145" lon="-6.16688"><ele>1470.0</ele><time>2026-04-23T17:39:33.894Z</time></trkpt><trkpt lat="31.1614133" lon="-6.1671767"><ele>1473.5</ele><time>2026-04-23T17:39:34.894Z</time></trkpt><trkpt lat="31.1613767" lon="-6.16748"><ele>1477.0</ele><time>2026-04-23T17:39:35.893Z</time></trkpt><trkpt lat="31.16134" lon="-6.1677833"><ele>1477.0</ele><time>2026-04-23T17:39:36.894Z</time></trkpt><trkpt lat="31.161305" lon="-6.1680867"><ele>1477.0</ele><time>2026-04-23T17:39:37.894Z</time></trkpt><trkpt lat="31.1612567" lon="-6.1683883"><ele>1477.0</ele><time>2026-04-23T17:39:38.894Z</time></trkpt><trkpt lat="31.161205" lon="-6.168685"><ele>1477.0</ele><time>2026-04-23T17:39:39.894Z</time></trkpt><trkpt lat="31.1611517" lon="-6.1689817"><ele>1473.5</ele><time>2026-04-23T17:39:40.893Z</time></trkpt><trkpt lat="31.161095" lon="-6.1692767"><ele>1470.0</ele><time>2026-04-23T17:39:41.894Z</time></trkpt><trkpt lat="31.1610467" lon="-6.1695617"><ele>1470.0</ele><time>2026-04-23T17:39:42.894Z</time></trkpt><trkpt lat="31.160995" lon="-6.16985"><ele>1470.0</ele><time>2026-04-23T17:39:43.894Z</time></trkpt><trkpt lat="31.1609417" lon="-6.1701383"><ele>1466.5</ele><time>2026-04-23T17:39:44.893Z</time></trkpt><trkpt lat="31.1608917" lon="-6.170435"><ele>1463.0</ele><time>2026-04-23T17:39:45.894Z</time></trkpt><trkpt lat="31.1608383" lon="-6.170735"><ele>1463.0</ele><time>2026-04-23T17:39:46.894Z</time></trkpt><trkpt lat="31.1607817" lon="-6.171035"><ele>1463.0</ele><time>2026-04-23T17:39:47.893Z</time></trkpt><trkpt lat="31.160725" lon="-6.1713367"><ele>1462.5</ele><time>2026-04-23T17:39:48.894Z</time></trkpt><trkpt lat="31.1606633" lon="-6.1716417"><ele>1462.0</ele><time>2026-04-23T17:39:49.894Z</time></trkpt><trkpt lat="31.1606" lon="-6.17195"><ele>1462.0</ele><time>2026-04-23T17:39:50.894Z</time></trkpt><trkpt lat="31.1605433" lon="-6.1722633"><ele>1462.0</ele><time>2026-04-23T17:39:51.894Z</time></trkpt><trkpt lat="31.16049" lon="-6.172575"><ele>1461.5</ele><time>2026-04-23T17:39:52.894Z</time></trkpt><trkpt lat="31.160435" lon="-6.1728867"><ele>1461.0</ele><time>2026-04-23T17:39:53.894Z</time></trkpt><trkpt lat="31.160375" lon="-6.1731967"><ele>1462.0</ele><time>2026-04-23T17:39:54.893Z</time></trkpt><trkpt lat="31.1603183" lon="-6.1735083"><ele>1463.0</ele><time>2026-04-23T17:39:55.894Z</time></trkpt><trkpt lat="31.1602617" lon="-6.1738183"><ele>1465.0</ele><time>2026-04-23T17:39:56.894Z</time></trkpt><trkpt lat="31.1602083" lon="-6.17412"><ele>1467.0</ele><time>2026-04-23T17:39:57.893Z</time></trkpt><trkpt lat="31.1601633" lon="-6.17443"><ele>1467.0</ele><time>2026-04-23T17:39:58.893Z</time></trkpt><trkpt lat="31.1601217" lon="-6.17474"><ele>1467.0</ele><time>2026-04-23T17:39:59.894Z</time></trkpt><trkpt lat="31.1600917" lon="-6.1750267"><ele>1467.0</ele><time>2026-04-23T17:40:00.894Z</time></trkpt><trkpt lat="31.16006" lon="-6.1753033"><ele>1467.0</ele><time>2026-04-23T17:40:01.894Z</time></trkpt><trkpt lat="31.160025" lon="-6.175575"><ele>1465.5</ele><time>2026-04-23T17:40:02.894Z</time></trkpt><trkpt lat="31.159995" lon="-6.1758467"><ele>1464.0</ele><time>2026-04-23T17:40:03.894Z</time></trkpt><trkpt lat="31.1599717" lon="-6.1761233"><ele>1464.0</ele><time>2026-04-23T17:40:04.894Z</time></trkpt><trkpt lat="31.1599467" lon="-6.1763983"><ele>1464.0</ele><time>2026-04-23T17:40:05.894Z</time></trkpt><trkpt lat="31.15992" lon="-6.1766767"><ele>1464.5</ele><time>2026-04-23T17:40:06.893Z</time></trkpt><trkpt lat="31.15989" lon="-6.1769567"><ele>1465.0</ele><time>2026-04-23T17:40:07.894Z</time></trkpt><trkpt lat="31.1598683" lon="-6.1772433"><ele>1463.5</ele><time>2026-04-23T17:40:08.894Z</time></trkpt><trkpt lat="31.1598417" lon="-6.1775317"><ele>1462.0</ele><time>2026-04-23T17:40:09.894Z</time></trkpt><trkpt lat="31.159815" lon="-6.17782"><ele>1462.0</ele><time>2026-04-23T17:40:10.894Z</time></trkpt><trkpt lat="31.1597883" lon="-6.178105"><ele>1462.0</ele><time>2026-04-23T17:40:11.893Z</time></trkpt><trkpt lat="31.1597667" lon="-6.1783883"><ele>1460.0</ele><time>2026-04-23T17:40:12.894Z</time></trkpt><trkpt lat="31.1597417" lon="-6.1786667"><ele>1458.0</ele><time>2026-04-23T17:40:13.894Z</time></trkpt><trkpt lat="31.1597183" lon="-6.1789467"><ele>1458.0</ele><time>2026-04-23T17:40:14.894Z</time></trkpt><trkpt lat="31.1597" lon="-6.179235"><ele>1458.0</ele><time>2026-04-23T17:40:15.894Z</time></trkpt><trkpt lat="31.1596867" lon="-6.1795283"><ele>1458.0</ele><time>2026-04-23T17:40:16.894Z</time></trkpt><trkpt lat="31.159675" lon="-6.179825"><ele>1458.0</ele><time>2026-04-23T17:40:17.893Z</time></trkpt><trkpt lat="31.15967" lon="-6.180125"><ele>1457.5</ele><time>2026-04-23T17:40:18.894Z</time></trkpt><trkpt lat="31.1596717" lon="-6.1804333"><ele>1457.0</ele><time>2026-04-23T17:40:19.893Z</time></trkpt><trkpt lat="31.1596783" lon="-6.180745"><ele>1457.0</ele><time>2026-04-23T17:40:20.893Z</time></trkpt><trkpt lat="31.1596983" lon="-6.1810517"><ele>1457.0</ele><time>2026-04-23T17:40:21.894Z</time></trkpt><trkpt lat="31.1597167" lon="-6.18136"><ele>1455.5</ele><time>2026-04-23T17:40:22.894Z</time></trkpt><trkpt lat="31.1597317" lon="-6.181675"><ele>1454.0</ele><time>2026-04-23T17:40:23.894Z</time></trkpt><trkpt lat="31.15975" lon="-6.1819917"><ele>1454.0</ele><time>2026-04-23T17:40:24.894Z</time></trkpt><trkpt lat="31.1597733" lon="-6.1823133"><ele>1454.0</ele><time>2026-04-23T17:40:25.893Z</time></trkpt><trkpt lat="31.159795" lon="-6.1826333"><ele>1454.5</ele><time>2026-04-23T17:40:26.894Z</time></trkpt><trkpt lat="31.159815" lon="-6.18295"><ele>1455.0</ele><time>2026-04-23T17:40:27.894Z</time></trkpt><trkpt lat="31.1598267" lon="-6.18327"><ele>1456.5</ele><time>2026-04-23T17:40:28.894Z</time></trkpt><trkpt lat="31.1598483" lon="-6.1835967"><ele>1458.0</ele><time>2026-04-23T17:40:29.894Z</time></trkpt><trkpt lat="31.159865" lon="-6.1839267"><ele>1450.0</ele><time>2026-04-23T17:40:30.893Z</time></trkpt><trkpt lat="31.1598817" lon="-6.1842567"><ele>1442.0</ele><time>2026-04-23T17:40:31.894Z</time></trkpt><trkpt lat="31.1599017" lon="-6.1845767"><ele>1441.0</ele><time>2026-04-23T17:40:32.894Z</time></trkpt><trkpt lat="31.1599333" lon="-6.1848817"><ele>1440.0</ele><time>2026-04-23T17:40:33.894Z</time></trkpt><trkpt lat="31.1599567" lon="-6.1851833"><ele>1440.0</ele><time>2026-04-23T17:40:34.894Z</time></trkpt><trkpt lat="31.1599717" lon="-6.1854933"><ele>1440.0</ele><time>2026-04-23T17:40:35.894Z</time></trkpt><trkpt lat="31.1599817" lon="-6.1858"><ele>1439.0</ele><time>2026-04-23T17:40:36.894Z</time></trkpt><trkpt lat="31.159995" lon="-6.186105"><ele>1438.0</ele><time>2026-04-23T17:40:37.894Z</time></trkpt><trkpt lat="31.160025" lon="-6.1864133"><ele>1434.0</ele><time>2026-04-23T17:40:38.894Z</time></trkpt><trkpt lat="31.1600467" lon="-6.18672"><ele>1430.0</ele><time>2026-04-23T17:40:39.894Z</time></trkpt><trkpt lat="31.16006" lon="-6.1870217"><ele>1430.0</ele><time>2026-04-23T17:40:40.893Z</time></trkpt><trkpt lat="31.1600817" lon="-6.1873133"><ele>1430.0</ele><time>2026-04-23T17:40:41.894Z</time></trkpt><trkpt lat="31.1601133" lon="-6.1876117"><ele>1430.0</ele><time>2026-04-23T17:40:42.894Z</time></trkpt><trkpt lat="31.160155" lon="-6.18791"><ele>1430.0</ele><time>2026-04-23T17:40:43.894Z</time></trkpt><trkpt lat="31.1602167" lon="-6.1882067"><ele>1428.5</ele><time>2026-04-23T17:40:44.894Z</time></trkpt><trkpt lat="31.1602783" lon="-6.1885067"><ele>1427.0</ele><time>2026-04-23T17:40:45.894Z</time></trkpt><trkpt lat="31.1603533" lon="-6.1888033"><ele>1429.0</ele><time>2026-04-23T17:40:46.894Z</time></trkpt><trkpt lat="31.1604267" lon="-6.1891017"><ele>1431.0</ele><time>2026-04-23T17:40:47.894Z</time></trkpt><trkpt lat="31.1605167" lon="-6.1894017"><ele>1431.0</ele><time>2026-04-23T17:40:48.893Z</time></trkpt><trkpt lat="31.1606183" lon="-6.1896917"><ele>1431.0</ele><time>2026-04-23T17:40:49.893Z</time></trkpt><trkpt lat="31.1607283" lon="-6.1899833"><ele>1427.0</ele><time>2026-04-23T17:40:50.894Z</time></trkpt><trkpt lat="31.1608433" lon="-6.190265"><ele>1423.0</ele><time>2026-04-23T17:40:51.894Z</time></trkpt><trkpt lat="31.16096" lon="-6.19054"><ele>1422.0</ele><time>2026-04-23T17:40:52.894Z</time></trkpt><trkpt lat="31.1610617" lon="-6.19081"><ele>1421.0</ele><time>2026-04-23T17:40:53.894Z</time></trkpt><trkpt lat="31.161165" lon="-6.1910783"><ele>1421.0</ele><time>2026-04-23T17:40:54.894Z</time></trkpt><trkpt lat="31.16127" lon="-6.1913483"><ele>1421.0</ele><time>2026-04-23T17:40:55.894Z</time></trkpt><trkpt lat="31.1613783" lon="-6.1916183"><ele>1423.0</ele><time>2026-04-23T17:40:56.893Z</time></trkpt><trkpt lat="31.161485" lon="-6.191895"><ele>1425.0</ele><time>2026-04-23T17:40:57.893Z</time></trkpt><trkpt lat="31.1615883" lon="-6.192175"><ele>1420.5</ele><time>2026-04-23T17:40:58.894Z</time></trkpt><trkpt lat="31.1616967" lon="-6.19245"><ele>1416.0</ele><time>2026-04-23T17:40:59.894Z</time></trkpt><trkpt lat="31.1617983" lon="-6.1927133"><ele>1416.0</ele><time>2026-04-23T17:41:00.893Z</time></trkpt><trkpt lat="31.161905" lon="-6.192965"><ele>1416.0</ele><time>2026-04-23T17:41:01.894Z</time></trkpt><trkpt lat="31.1620033" lon="-6.1932083"><ele>1414.5</ele><time>2026-04-23T17:41:02.893Z</time></trkpt><trkpt lat="31.1620967" lon="-6.1934467"><ele>1413.0</ele><time>2026-04-23T17:41:03.894Z</time></trkpt><trkpt lat="31.1621917" lon="-6.193695"><ele>1413.0</ele><time>2026-04-23T17:41:04.893Z</time></trkpt><trkpt lat="31.16229" lon="-6.1939467"><ele>1413.0</ele><time>2026-04-23T17:41:05.894Z</time></trkpt><trkpt lat="31.16239" lon="-6.1942083"><ele>1411.0</ele><time>2026-04-23T17:41:06.893Z</time></trkpt><trkpt lat="31.162485" lon="-6.19446"><ele>1409.0</ele><time>2026-04-23T17:41:07.893Z</time></trkpt><trkpt lat="31.1625867" lon="-6.1947083"><ele>1408.0</ele><time>2026-04-23T17:41:08.893Z</time></trkpt><trkpt lat="31.1626933" lon="-6.1949433"><ele>1407.0</ele><time>2026-04-23T17:41:09.894Z</time></trkpt><trkpt lat="31.1628167" lon="-6.195175"><ele>1407.0</ele><time>2026-04-23T17:41:10.894Z</time></trkpt><trkpt lat="31.162965" lon="-6.1954033"><ele>1407.0</ele><time>2026-04-23T17:41:11.894Z</time></trkpt><trkpt lat="31.16313" lon="-6.195625"><ele>1405.0</ele><time>2026-04-23T17:41:12.893Z</time></trkpt><trkpt lat="31.16332" lon="-6.1958383"><ele>1403.0</ele><time>2026-04-23T17:41:13.894Z</time></trkpt><trkpt lat="31.1635283" lon="-6.19604"><ele>1403.0</ele><time>2026-04-23T17:41:14.894Z</time></trkpt><trkpt lat="31.163745" lon="-6.1962283"><ele>1403.0</ele><time>2026-04-23T17:41:15.894Z</time></trkpt><trkpt lat="31.1639783" lon="-6.1963767"><ele>1397.0</ele><time>2026-04-23T17:41:16.894Z</time></trkpt><trkpt lat="31.1642233" lon="-6.1965183"><ele>1391.0</ele><time>2026-04-23T17:41:17.894Z</time></trkpt><trkpt lat="31.164485" lon="-6.19664"><ele>1391.0</ele><time>2026-04-23T17:41:18.894Z</time></trkpt><trkpt lat="31.1647567" lon="-6.19673"><ele>1391.0</ele><time>2026-04-23T17:41:19.893Z</time></trkpt><trkpt lat="31.1650383" lon="-6.1968"><ele>1390.5</ele><time>2026-04-23T17:41:20.894Z</time></trkpt><trkpt lat="31.165315" lon="-6.1968667"><ele>1390.0</ele><time>2026-04-23T17:41:21.893Z</time></trkpt><trkpt lat="31.165575" lon="-6.19693"><ele>1388.5</ele><time>2026-04-23T17:41:22.894Z</time></trkpt><trkpt lat="31.16583" lon="-6.1969817"><ele>1387.0</ele><time>2026-04-23T17:41:23.893Z</time></trkpt><trkpt lat="31.166075" lon="-6.1970367"><ele>1387.0</ele><time>2026-04-23T17:41:24.894Z</time></trkpt><trkpt lat="31.16631" lon="-6.1970933"><ele>1387.0</ele><time>2026-04-23T17:41:25.893Z</time></trkpt><trkpt lat="31.1665467" lon="-6.19716"><ele>1385.5</ele><time>2026-04-23T17:41:26.894Z</time></trkpt><trkpt lat="31.16679" lon="-6.1972417"><ele>1384.0</ele><time>2026-04-23T17:41:27.894Z</time></trkpt><trkpt lat="31.1670317" lon="-6.1973417"><ele>1384.0</ele><time>2026-04-23T17:41:28.894Z</time></trkpt><trkpt lat="31.1672733" lon="-6.197465"><ele>1384.0</ele><time>2026-04-23T17:41:29.894Z</time></trkpt><trkpt lat="31.1675033" lon="-6.197605"><ele>1382.5</ele><time>2026-04-23T17:41:30.894Z</time></trkpt><trkpt lat="31.1677183" lon="-6.19777"><ele>1381.0</ele><time>2026-04-23T17:41:31.894Z</time></trkpt><trkpt lat="31.1679167" lon="-6.1979633"><ele>1379.0</ele><time>2026-04-23T17:41:32.894Z</time></trkpt><trkpt lat="31.1680933" lon="-6.1981783"><ele>1377.0</ele><time>2026-04-23T17:41:33.894Z</time></trkpt><trkpt lat="31.1682583" lon="-6.1984083"><ele>1376.5</ele><time>2026-04-23T17:41:34.894Z</time></trkpt><trkpt lat="31.1684133" lon="-6.19865"><ele>1376.0</ele><time>2026-04-23T17:41:35.894Z</time></trkpt><trkpt lat="31.1685467" lon="-6.1989183"><ele>1375.0</ele><time>2026-04-23T17:41:36.894Z</time></trkpt><trkpt lat="31.1686567" lon="-6.199195"><ele>1374.0</ele><time>2026-04-23T17:41:37.894Z</time></trkpt><trkpt lat="31.1687567" lon="-6.1994833"><ele>1374.0</ele><time>2026-04-23T17:41:38.894Z</time></trkpt><trkpt lat="31.1688333" lon="-6.1997833"><ele>1374.0</ele><time>2026-04-23T17:41:39.894Z</time></trkpt><trkpt lat="31.168885" lon="-6.2000767"><ele>1375.5</ele><time>2026-04-23T17:41:40.894Z</time></trkpt><trkpt lat="31.1689067" lon="-6.2003767"><ele>1377.0</ele><time>2026-04-23T17:41:41.894Z</time></trkpt><trkpt lat="31.1689" lon="-6.2006667"><ele>1378.0</ele><time>2026-04-23T17:41:42.894Z</time></trkpt><trkpt lat="31.1688717" lon="-6.200965"><ele>1379.0</ele><time>2026-04-23T17:41:43.894Z</time></trkpt><trkpt lat="31.1688317" lon="-6.2012517"><ele>1376.5</ele><time>2026-04-23T17:41:44.894Z</time></trkpt><trkpt lat="31.1687783" lon="-6.2015167"><ele>1374.0</ele><time>2026-04-23T17:41:45.894Z</time></trkpt><trkpt lat="31.1687067" lon="-6.201775"><ele>1374.0</ele><time>2026-04-23T17:41:46.894Z</time></trkpt><trkpt lat="31.1686167" lon="-6.20202"><ele>1374.0</ele><time>2026-04-23T17:41:47.893Z</time></trkpt><trkpt lat="31.1685083" lon="-6.2022583"><ele>1372.0</ele><time>2026-04-23T17:41:48.894Z</time></trkpt><trkpt lat="31.16838" lon="-6.202475"><ele>1370.0</ele><time>2026-04-23T17:41:49.893Z</time></trkpt><trkpt lat="31.1682433" lon="-6.202695"><ele>1377.5</ele><time>2026-04-23T17:41:50.894Z</time></trkpt><trkpt lat="31.168095" lon="-6.2029067"><ele>1385.0</ele><time>2026-04-23T17:41:51.893Z</time></trkpt><trkpt lat="31.1679467" lon="-6.2031017"><ele>1383.0</ele><time>2026-04-23T17:41:52.894Z</time></trkpt><trkpt lat="31.1678067" lon="-6.20329"><ele>1381.0</ele><time>2026-04-23T17:41:53.893Z</time></trkpt><trkpt lat="31.1676633" lon="-6.2034633"><ele>1379.0</ele><time>2026-04-23T17:41:54.894Z</time></trkpt><trkpt lat="31.16753" lon="-6.203645"><ele>1379.0</ele><time>2026-04-23T17:41:55.893Z</time></trkpt><trkpt lat="31.1674117" lon="-6.2038217"><ele>1379.0</ele><time>2026-04-23T17:41:56.894Z</time></trkpt><trkpt lat="31.1672883" lon="-6.2040233"><ele>1379.0</ele><time>2026-04-23T17:41:57.894Z</time></trkpt><trkpt lat="31.1671717" lon="-6.2042367"><ele>1374.5</ele><time>2026-04-23T17:41:58.893Z</time></trkpt><trkpt lat="31.1670467" lon="-6.20447"><ele>1370.0</ele><time>2026-04-23T17:41:59.894Z</time></trkpt><trkpt lat="31.1669267" lon="-6.2047233"><ele>1366.5</ele><time>2026-04-23T17:42:00.893Z</time></trkpt><trkpt lat="31.1668133" lon="-6.2049967"><ele>1363.0</ele><time>2026-04-23T17:42:01.893Z</time></trkpt><trkpt lat="31.1666917" lon="-6.2052767"><ele>1363.0</ele><time>2026-04-23T17:42:02.893Z</time></trkpt><trkpt lat="31.1665667" lon="-6.205565"><ele>1363.0</ele><time>2026-04-23T17:42:03.894Z</time></trkpt><trkpt lat="31.1664317" lon="-6.20585"><ele>1365.0</ele><time>2026-04-23T17:42:04.894Z</time></trkpt><trkpt lat="31.1663017" lon="-6.20613"><ele>1367.0</ele><time>2026-04-23T17:42:05.894Z</time></trkpt><trkpt lat="31.16618" lon="-6.206395"><ele>1370.0</ele><time>2026-04-23T17:42:06.893Z</time></trkpt><trkpt lat="31.166065" lon="-6.2066417"><ele>1373.0</ele><time>2026-04-23T17:42:07.894Z</time></trkpt><trkpt lat="31.1659533" lon="-6.2068783"><ele>1373.0</ele><time>2026-04-23T17:42:08.894Z</time></trkpt><trkpt lat="31.16585" lon="-6.2071083"><ele>1373.0</ele><time>2026-04-23T17:42:09.894Z</time></trkpt><trkpt lat="31.1657483" lon="-6.207335"><ele>1373.0</ele><time>2026-04-23T17:42:10.894Z</time></trkpt><trkpt lat="31.1656483" lon="-6.2075633"><ele>1372.6666666666667</ele><time>2026-04-23T17:42:11.894Z</time></trkpt><trkpt lat="31.16555" lon="-6.207795"><ele>1372.3333333333333</ele><time>2026-04-23T17:42:12.894Z</time></trkpt><trkpt lat="31.1654533" lon="-6.2080267"><ele>1372.0</ele><time>2026-04-23T17:42:13.893Z</time></trkpt><trkpt lat="31.1653617" lon="-6.2082683"><ele>1372.0</ele><time>2026-04-23T17:42:14.894Z</time></trkpt><trkpt lat="31.1652717" lon="-6.2085067"><ele>1372.0</ele><time>2026-04-23T17:42:15.894Z</time></trkpt><trkpt lat="31.1652" lon="-6.20874"><ele>1372.0</ele><time>2026-04-23T17:42:16.894Z</time></trkpt><trkpt lat="31.16514" lon="-6.2089733"><ele>1369.0</ele><time>2026-04-23T17:42:17.893Z</time></trkpt><trkpt lat="31.165095" lon="-6.2092033"><ele>1366.0</ele><time>2026-04-23T17:42:18.893Z</time></trkpt><trkpt lat="31.165065" lon="-6.2094317"><ele>1363.0</ele><time>2026-04-23T17:42:19.893Z</time></trkpt><trkpt lat="31.1650467" lon="-6.2096367"><ele>1363.0</ele><time>2026-04-23T17:42:20.894Z</time></trkpt><trkpt lat="31.1650367" lon="-6.2098217"><ele>1363.0</ele><time>2026-04-23T17:42:21.894Z</time></trkpt><trkpt lat="31.1650367" lon="-6.2099883"><ele>1363.0</ele><time>2026-04-23T17:42:22.894Z</time></trkpt><trkpt lat="31.1650417" lon="-6.2101533"><ele>1363.0</ele><time>2026-04-23T17:42:23.894Z</time></trkpt><trkpt lat="31.1650683" lon="-6.2103333"><ele>1363.0</ele><time>2026-04-23T17:42:24.894Z</time></trkpt><trkpt lat="31.1650983" lon="-6.2105133"><ele>1363.0</ele><time>2026-04-23T17:42:25.894Z</time></trkpt><trkpt lat="31.1651367" lon="-6.2107"><ele>1363.0</ele><time>2026-04-23T17:42:26.894Z</time></trkpt><trkpt lat="31.1651833" lon="-6.21089"><ele>1363.0</ele><time>2026-04-23T17:42:27.894Z</time></trkpt><trkpt lat="31.1652233" lon="-6.211085"><ele>1363.0</ele><time>2026-04-23T17:42:28.894Z</time></trkpt><trkpt lat="31.165265" lon="-6.211285"><ele>1363.0</ele><time>2026-04-23T17:42:29.894Z</time></trkpt><trkpt lat="31.1653117" lon="-6.2114917"><ele>1362.6666666666665</ele><time>2026-04-23T17:42:30.894Z</time></trkpt><trkpt lat="31.1653583" lon="-6.2117017"><ele>1362.3333333333333</ele><time>2026-04-23T17:42:31.894Z</time></trkpt><trkpt lat="31.1654033" lon="-6.2118983"><ele>1362.0</ele><time>2026-04-23T17:42:32.894Z</time></trkpt><trkpt lat="31.1654517" lon="-6.2120883"><ele>1362.0</ele><time>2026-04-23T17:42:33.894Z</time></trkpt><trkpt lat="31.165485" lon="-6.2122683"><ele>1362.0</ele><time>2026-04-23T17:42:34.893Z</time></trkpt><trkpt lat="31.1655267" lon="-6.2124483"><ele>1362.0</ele><time>2026-04-23T17:42:35.894Z</time></trkpt><trkpt lat="31.165585" lon="-6.2126167"><ele>1360.5</ele><time>2026-04-23T17:42:36.893Z</time></trkpt><trkpt lat="31.1656633" lon="-6.21276"><ele>1359.0</ele><time>2026-04-23T17:42:37.893Z</time></trkpt><trkpt lat="31.1657717" lon="-6.2128733"><ele>1357.5</ele><time>2026-04-23T17:42:38.893Z</time></trkpt><trkpt lat="31.1658917" lon="-6.2129717"><ele>1356.0</ele><time>2026-04-23T17:42:39.893Z</time></trkpt><trkpt lat="31.1660183" lon="-6.2130817"><ele>1351.6666666666667</ele><time>2026-04-23T17:42:40.894Z</time></trkpt><trkpt lat="31.1661417" lon="-6.2131883"><ele>1347.3333333333335</ele><time>2026-04-23T17:42:41.893Z</time></trkpt><trkpt lat="31.1662633" lon="-6.2133"><ele>1343.0</ele><time>2026-04-23T17:42:42.893Z</time></trkpt><trkpt lat="31.16639" lon="-6.2134033"><ele>1343.0</ele><time>2026-04-23T17:42:43.894Z</time></trkpt><trkpt lat="31.1665117" lon="-6.21351"><ele>1343.0</ele><time>2026-04-23T17:42:44.894Z</time></trkpt><trkpt lat="31.1666267" lon="-6.213605"><ele>1343.0</ele><time>2026-04-23T17:42:45.894Z</time></trkpt><trkpt lat="31.1667317" lon="-6.2137"><ele>1343.0</ele><time>2026-04-23T17:42:46.893Z</time></trkpt><trkpt lat="31.166835" lon="-6.2137867"><ele>1342.5</ele><time>2026-04-23T17:42:47.894Z</time></trkpt><trkpt lat="31.16693" lon="-6.2138583"><ele>1342.0</ele><time>2026-04-23T17:42:48.894Z</time></trkpt><trkpt lat="31.1670283" lon="-6.2139317"><ele>1341.5</ele><time>2026-04-23T17:42:49.894Z</time></trkpt><trkpt lat="31.1671333" lon="-6.214005"><ele>1341.0</ele><time>2026-04-23T17:42:50.894Z</time></trkpt><trkpt lat="31.167245" lon="-6.21407"><ele>1342.25</ele><time>2026-04-23T17:42:51.894Z</time></trkpt><trkpt lat="31.16736" lon="-6.214125"><ele>1343.5</ele><time>2026-04-23T17:42:52.894Z</time></trkpt><trkpt lat="31.1674883" lon="-6.21416"><ele>1344.75</ele><time>2026-04-23T17:42:53.894Z</time></trkpt><trkpt lat="31.1676133" lon="-6.2141883"><ele>1346.0</ele><time>2026-04-23T17:42:54.894Z</time></trkpt><trkpt lat="31.1677283" lon="-6.2142033"><ele>1347.5</ele><time>2026-04-23T17:42:55.893Z</time></trkpt><trkpt lat="31.1678483" lon="-6.21422"><ele>1349.0</ele><time>2026-04-23T17:42:56.894Z</time></trkpt><trkpt lat="31.1679717" lon="-6.2142517"><ele>1350.5</ele><time>2026-04-23T17:42:57.894Z</time></trkpt><trkpt lat="31.1680967" lon="-6.21431"><ele>1352.0</ele><time>2026-04-23T17:42:58.894Z</time></trkpt><trkpt lat="31.1682233" lon="-6.214395"><ele>1355.0</ele><time>2026-04-23T17:42:59.894Z</time></trkpt><trkpt lat="31.168355" lon="-6.2144967"><ele>1358.0</ele><time>2026-04-23T17:43:00.893Z</time></trkpt><trkpt lat="31.1684917" lon="-6.2146117"><ele>1361.0</ele><time>2026-04-23T17:43:01.894Z</time></trkpt><trkpt lat="31.1686183" lon="-6.2147367"><ele>1362.0</ele><time>2026-04-23T17:43:02.894Z</time></trkpt><trkpt lat="31.168745" lon="-6.2148483"><ele>1363.0</ele><time>2026-04-23T17:43:03.894Z</time></trkpt><trkpt lat="31.1688683" lon="-6.2149617"><ele>1364.0</ele><time>2026-04-23T17:43:04.893Z</time></trkpt><trkpt lat="31.169" lon="-6.21507"><ele>1364.0</ele><time>2026-04-23T17:43:05.893Z</time></trkpt><trkpt lat="31.16913" lon="-6.2151833"><ele>1364.0</ele><time>2026-04-23T17:43:06.893Z</time></trkpt><trkpt lat="31.1692683" lon="-6.2152917"><ele>1364.0</ele><time>2026-04-23T17:43:07.893Z</time></trkpt><trkpt lat="31.169405" lon="-6.215405"><ele>1364.0</ele><time>2026-04-23T17:43:08.893Z</time></trkpt><trkpt lat="31.16954" lon="-6.215525"><ele>1364.0</ele><time>2026-04-23T17:43:09.894Z</time></trkpt><trkpt lat="31.1696733" lon="-6.2156433"><ele>1364.0</ele><time>2026-04-23T17:43:10.894Z</time></trkpt><trkpt lat="31.1698133" lon="-6.21576"><ele>1366.0</ele><time>2026-04-23T17:43:11.894Z</time></trkpt><trkpt lat="31.16996" lon="-6.2158783"><ele>1368.0</ele><time>2026-04-23T17:43:12.894Z</time></trkpt><trkpt lat="31.17012" lon="-6.215995"><ele>1370.0</ele><time>2026-04-23T17:43:13.894Z</time></trkpt><trkpt lat="31.1702783" lon="-6.2161017"><ele>1370.0</ele><time>2026-04-23T17:43:14.894Z</time></trkpt><trkpt lat="31.170445" lon="-6.2162067"><ele>1370.0</ele><time>2026-04-23T17:43:15.894Z</time></trkpt><trkpt lat="31.170615" lon="-6.2163"><ele>1370.0</ele><time>2026-04-23T17:43:16.894Z</time></trkpt><trkpt lat="31.1707933" lon="-6.2163867"><ele>1371.0</ele><time>2026-04-23T17:43:17.894Z</time></trkpt><trkpt lat="31.1709717" lon="-6.216475"><ele>1372.0</ele><time>2026-04-23T17:43:18.893Z</time></trkpt><trkpt lat="31.17115" lon="-6.21656"><ele>1373.0</ele><time>2026-04-23T17:43:19.893Z</time></trkpt><trkpt lat="31.17133" lon="-6.216645"><ele>1373.0</ele><time>2026-04-23T17:43:20.894Z</time></trkpt><trkpt lat="31.1715" lon="-6.2167267"><ele>1373.0</ele><time>2026-04-23T17:43:21.894Z</time></trkpt><trkpt lat="31.171675" lon="-6.2168133"><ele>1373.0</ele><time>2026-04-23T17:43:22.893Z</time></trkpt><trkpt lat="31.1718583" lon="-6.2169083"><ele>1374.3333333333335</ele><time>2026-04-23T17:43:23.894Z</time></trkpt><trkpt lat="31.1720333" lon="-6.2170083"><ele>1375.6666666666667</ele><time>2026-04-23T17:43:24.894Z</time></trkpt><trkpt lat="31.1722167" lon="-6.2171133"><ele>1377.0</ele><time>2026-04-23T17:43:25.894Z</time></trkpt><trkpt lat="31.1723817" lon="-6.2172433"><ele>1379.6666666666667</ele><time>2026-04-23T17:43:26.893Z</time></trkpt><trkpt lat="31.17254" lon="-6.2173867"><ele>1382.3333333333335</ele><time>2026-04-23T17:43:27.893Z</time></trkpt><trkpt lat="31.1726867" lon="-6.2175467"><ele>1385.0</ele><time>2026-04-23T17:43:28.894Z</time></trkpt><trkpt lat="31.172825" lon="-6.2177167"><ele>1385.0</ele><time>2026-04-23T17:43:29.893Z</time></trkpt><trkpt lat="31.1729483" lon="-6.2179033"><ele>1385.0</ele><time>2026-04-23T17:43:30.893Z</time></trkpt><trkpt lat="31.17306" lon="-6.218105"><ele>1385.0</ele><time>2026-04-23T17:43:31.894Z</time></trkpt><trkpt lat="31.1731533" lon="-6.2183233"><ele>1387.3333333333335</ele><time>2026-04-23T17:43:32.894Z</time></trkpt><trkpt lat="31.173235" lon="-6.21854"><ele>1389.6666666666667</ele><time>2026-04-23T17:43:33.894Z</time></trkpt><trkpt lat="31.1732967" lon="-6.2187533"><ele>1392.0</ele><time>2026-04-23T17:43:34.893Z</time></trkpt><trkpt lat="31.1733533" lon="-6.218975"><ele>1392.3333333333333</ele><time>2026-04-23T17:43:35.894Z</time></trkpt><trkpt lat="31.173395" lon="-6.219195"><ele>1392.6666666666665</ele><time>2026-04-23T17:43:36.894Z</time></trkpt><trkpt lat="31.1734317" lon="-6.2194183"><ele>1393.0</ele><time>2026-04-23T17:43:37.893Z</time></trkpt><trkpt lat="31.173465" lon="-6.2196583"><ele>1393.3333333333333</ele><time>2026-04-23T17:43:38.894Z</time></trkpt><trkpt lat="31.173505" lon="-6.2198967"><ele>1393.6666666666667</ele><time>2026-04-23T17:43:39.894Z</time></trkpt><trkpt lat="31.1735433" lon="-6.2201217"><ele>1394.0</ele><time>2026-04-23T17:43:40.894Z</time></trkpt><trkpt lat="31.1736" lon="-6.220345"><ele>1394.0</ele><time>2026-04-23T17:43:41.894Z</time></trkpt><trkpt lat="31.1736667" lon="-6.220575"><ele>1394.0</ele><time>2026-04-23T17:43:42.894Z</time></trkpt><trkpt lat="31.17374" lon="-6.220805"><ele>1394.0</ele><time>2026-04-23T17:43:43.894Z</time></trkpt><trkpt lat="31.1738283" lon="-6.221025"><ele>1394.0</ele><time>2026-04-23T17:43:44.894Z</time></trkpt><trkpt lat="31.1739267" lon="-6.221245"><ele>1394.0</ele><time>2026-04-23T17:43:45.894Z</time></trkpt><trkpt lat="31.1740317" lon="-6.22146"><ele>1394.0</ele><time>2026-04-23T17:43:46.894Z</time></trkpt><trkpt lat="31.1741433" lon="-6.2216733"><ele>1393.3333333333335</ele><time>2026-04-23T17:43:47.894Z</time></trkpt><trkpt lat="31.1742633" lon="-6.2218817"><ele>1392.6666666666667</ele><time>2026-04-23T17:43:48.893Z</time></trkpt><trkpt lat="31.1743817" lon="-6.2220883"><ele>1392.0</ele><time>2026-04-23T17:43:49.894Z</time></trkpt><trkpt lat="31.1745017" lon="-6.2222933"><ele>1391.6666666666667</ele><time>2026-04-23T17:43:50.894Z</time></trkpt><trkpt lat="31.17462" lon="-6.2224983"><ele>1391.3333333333335</ele><time>2026-04-23T17:43:51.894Z</time></trkpt><trkpt lat="31.1747417" lon="-6.2227"><ele>1391.0</ele><time>2026-04-23T17:43:52.894Z</time></trkpt><trkpt lat="31.17486" lon="-6.2229017"><ele>1391.0</ele><time>2026-04-23T17:43:53.894Z</time></trkpt><trkpt lat="31.1749767" lon="-6.2231017"><ele>1391.0</ele><time>2026-04-23T17:43:54.894Z</time></trkpt><trkpt lat="31.175095" lon="-6.223305"><ele>1391.0</ele><time>2026-04-23T17:43:55.894Z</time></trkpt><trkpt lat="31.1752117" lon="-6.22351"><ele>1391.3333333333335</ele><time>2026-04-23T17:43:56.894Z</time></trkpt><trkpt lat="31.1753367" lon="-6.2237133"><ele>1391.6666666666667</ele><time>2026-04-23T17:43:57.894Z</time></trkpt><trkpt lat="31.175455" lon="-6.2239267"><ele>1392.0</ele><time>2026-04-23T17:43:58.894Z</time></trkpt><trkpt lat="31.1755733" lon="-6.2241433"><ele>1391.6666666666667</ele><time>2026-04-23T17:43:59.894Z</time></trkpt><trkpt lat="31.1756967" lon="-6.2243517"><ele>1391.3333333333335</ele><time>2026-04-23T17:44:00.893Z</time></trkpt><trkpt lat="31.1758117" lon="-6.224555"><ele>1391.0</ele><time>2026-04-23T17:44:01.894Z</time></trkpt><trkpt lat="31.1759267" lon="-6.224755"><ele>1391.0</ele><time>2026-04-23T17:44:02.894Z</time></trkpt><trkpt lat="31.1760467" lon="-6.2249567"><ele>1391.0</ele><time>2026-04-23T17:44:03.894Z</time></trkpt><trkpt lat="31.1761567" lon="-6.225155"><ele>1391.0</ele><time>2026-04-23T17:44:04.893Z</time></trkpt><trkpt lat="31.1762633" lon="-6.225345"><ele>1391.0</ele><time>2026-04-23T17:44:05.894Z</time></trkpt><trkpt lat="31.176375" lon="-6.2255417"><ele>1391.0</ele><time>2026-04-23T17:44:06.893Z</time></trkpt><trkpt lat="31.176485" lon="-6.2257483"><ele>1391.0</ele><time>2026-04-23T17:44:07.894Z</time></trkpt><trkpt lat="31.176585" lon="-6.2259633"><ele>1392.3333333333335</ele><time>2026-04-23T17:44:08.894Z</time></trkpt><trkpt lat="31.1766833" lon="-6.2261833"><ele>1393.6666666666667</ele><time>2026-04-23T17:44:09.893Z</time></trkpt><trkpt lat="31.17678" lon="-6.2264167"><ele>1395.0</ele><time>2026-04-23T17:44:10.894Z</time></trkpt><trkpt lat="31.1768717" lon="-6.2266617"><ele>1395.0</ele><time>2026-04-23T17:44:11.894Z</time></trkpt><trkpt lat="31.1769667" lon="-6.2269217"><ele>1395.0</ele><time>2026-04-23T17:44:12.894Z</time></trkpt><trkpt lat="31.177055" lon="-6.2271833"><ele>1393.5</ele><time>2026-04-23T17:44:13.894Z</time></trkpt><trkpt lat="31.1771333" lon="-6.22744"><ele>1392.0</ele><time>2026-04-23T17:44:14.894Z</time></trkpt><trkpt lat="31.1772017" lon="-6.2276983"><ele>1392.0</ele><time>2026-04-23T17:44:15.894Z</time></trkpt><trkpt lat="31.1772633" lon="-6.22796"><ele>1392.0</ele><time>2026-04-23T17:44:16.894Z</time></trkpt><trkpt lat="31.1773183" lon="-6.2282233"><ele>1389.0</ele><time>2026-04-23T17:44:17.894Z</time></trkpt><trkpt lat="31.17737" lon="-6.2284917"><ele>1386.0</ele><time>2026-04-23T17:44:18.894Z</time></trkpt><trkpt lat="31.1774233" lon="-6.2287683"><ele>1386.0</ele><time>2026-04-23T17:44:19.894Z</time></trkpt><trkpt lat="31.1774817" lon="-6.2290467"><ele>1386.0</ele><time>2026-04-23T17:44:20.893Z</time></trkpt><trkpt lat="31.177545" lon="-6.2293233"><ele>1386.0</ele><time>2026-04-23T17:44:21.893Z</time></trkpt><trkpt lat="31.1776" lon="-6.2296067"><ele>1386.0</ele><time>2026-04-23T17:44:22.894Z</time></trkpt><trkpt lat="31.177655" lon="-6.229885"><ele>1385.0</ele><time>2026-04-23T17:44:23.894Z</time></trkpt><trkpt lat="31.177715" lon="-6.23017"><ele>1384.0</ele><time>2026-04-23T17:44:24.894Z</time></trkpt><trkpt lat="31.177775" lon="-6.2304483"><ele>1383.5</ele><time>2026-04-23T17:44:25.894Z</time></trkpt><trkpt lat="31.1778317" lon="-6.2307167"><ele>1383.0</ele><time>2026-04-23T17:44:26.894Z</time></trkpt><trkpt lat="31.1778917" lon="-6.230985"><ele>1383.0</ele><time>2026-04-23T17:44:27.894Z</time></trkpt><trkpt lat="31.177955" lon="-6.2312467"><ele>1383.0</ele><time>2026-04-23T17:44:28.894Z</time></trkpt><trkpt lat="31.1780317" lon="-6.2315"><ele>1383.0</ele><time>2026-04-23T17:44:29.894Z</time></trkpt><trkpt lat="31.1781167" lon="-6.2317383"><ele>1383.0</ele><time>2026-04-23T17:44:30.894Z</time></trkpt><trkpt lat="31.178215" lon="-6.23197"><ele>1383.0</ele><time>2026-04-23T17:44:31.894Z</time></trkpt><trkpt lat="31.178325" lon="-6.23219"><ele>1382.6666666666667</ele><time>2026-04-23T17:44:32.894Z</time></trkpt><trkpt lat="31.1784433" lon="-6.2324083"><ele>1382.3333333333335</ele><time>2026-04-23T17:44:33.894Z</time></trkpt><trkpt lat="31.1785683" lon="-6.232615"><ele>1382.0</ele><time>2026-04-23T17:44:34.893Z</time></trkpt><trkpt lat="31.178705" lon="-6.23281"><ele>1382.0</ele><time>2026-04-23T17:44:35.894Z</time></trkpt><trkpt lat="31.178855" lon="-6.2330017"><ele>1382.0</ele><time>2026-04-23T17:44:36.894Z</time></trkpt><trkpt lat="31.1790233" lon="-6.2331783"><ele>1382.0</ele><time>2026-04-23T17:44:37.894Z</time></trkpt><trkpt lat="31.1791883" lon="-6.2333417"><ele>1383.0</ele><time>2026-04-23T17:44:38.893Z</time></trkpt><trkpt lat="31.1793733" lon="-6.23349"><ele>1384.0</ele><time>2026-04-23T17:44:39.894Z</time></trkpt><trkpt lat="31.1795717" lon="-6.2336283"><ele>1384.0</ele><time>2026-04-23T17:44:40.893Z</time></trkpt><trkpt lat="31.1797767" lon="-6.2337617"><ele>1384.0</ele><time>2026-04-23T17:44:41.893Z</time></trkpt><trkpt lat="31.1799817" lon="-6.2338933"><ele>1383.0</ele><time>2026-04-23T17:44:42.894Z</time></trkpt><trkpt lat="31.1801867" lon="-6.2340167"><ele>1382.0</ele><time>2026-04-23T17:44:43.893Z</time></trkpt><trkpt lat="31.1803767" lon="-6.2341317"><ele>1381.0</ele><time>2026-04-23T17:44:44.894Z</time></trkpt><trkpt lat="31.1805667" lon="-6.2342417"><ele>1380.3333333333333</ele><time>2026-04-23T17:44:45.894Z</time></trkpt><trkpt lat="31.1807483" lon="-6.23435"><ele>1379.6666666666667</ele><time>2026-04-23T17:44:46.893Z</time></trkpt><trkpt lat="31.1809483" lon="-6.2344567"><ele>1379.0</ele><time>2026-04-23T17:44:47.894Z</time></trkpt><trkpt lat="31.1811467" lon="-6.234565"><ele>1379.0</ele><time>2026-04-23T17:44:48.893Z</time></trkpt><trkpt lat="31.1813467" lon="-6.23468"><ele>1379.0</ele><time>2026-04-23T17:44:49.894Z</time></trkpt><trkpt lat="31.1815467" lon="-6.2347983"><ele>1379.0</ele><time>2026-04-23T17:44:50.894Z</time></trkpt><trkpt lat="31.1817467" lon="-6.2349167"><ele>1377.6666666666667</ele><time>2026-04-23T17:44:51.893Z</time></trkpt><trkpt lat="31.1819433" lon="-6.2350283"><ele>1376.3333333333333</ele><time>2026-04-23T17:44:52.894Z</time></trkpt><trkpt lat="31.1821317" lon="-6.2351433"><ele>1375.0</ele><time>2026-04-23T17:44:53.893Z</time></trkpt><trkpt lat="31.1823133" lon="-6.2352467"><ele>1375.0</ele><time>2026-04-23T17:44:54.894Z</time></trkpt><trkpt lat="31.1824917" lon="-6.2353517"><ele>1375.0</ele><time>2026-04-23T17:44:55.894Z</time></trkpt><trkpt lat="31.1826667" lon="-6.2354583"><ele>1375.0</ele><time>2026-04-23T17:44:56.894Z</time></trkpt><trkpt lat="31.1828433" lon="-6.2355633"><ele>1373.6666666666665</ele><time>2026-04-23T17:44:57.894Z</time></trkpt><trkpt lat="31.183015" lon="-6.2356633"><ele>1372.3333333333333</ele><time>2026-04-23T17:44:58.894Z</time></trkpt><trkpt lat="31.1831783" lon="-6.2357633"><ele>1371.0</ele><time>2026-04-23T17:44:59.893Z</time></trkpt><trkpt lat="31.1833367" lon="-6.235855"><ele>1370.6666666666667</ele><time>2026-04-23T17:45:00.894Z</time></trkpt><trkpt lat="31.183485" lon="-6.2359383"><ele>1370.3333333333335</ele><time>2026-04-23T17:45:01.894Z</time></trkpt><trkpt lat="31.1836317" lon="-6.2360183"><ele>1370.0</ele><time>2026-04-23T17:45:02.894Z</time></trkpt><trkpt lat="31.1837767" lon="-6.2360933"><ele>1370.0</ele><time>2026-04-23T17:45:03.894Z</time></trkpt><trkpt lat="31.18392" lon="-6.2361517"><ele>1370.0</ele><time>2026-04-23T17:45:04.894Z</time></trkpt><trkpt lat="31.184055" lon="-6.2361983"><ele>1370.0</ele><time>2026-04-23T17:45:05.894Z</time></trkpt><trkpt lat="31.1841883" lon="-6.2362233"><ele>1370.0</ele><time>2026-04-23T17:45:06.894Z</time></trkpt><trkpt lat="31.1843117" lon="-6.236235"><ele>1370.2</ele><time>2026-04-23T17:45:07.893Z</time></trkpt><trkpt lat="31.1844183" lon="-6.2362567"><ele>1370.4</ele><time>2026-04-23T17:45:08.894Z</time></trkpt><trkpt lat="31.1845067" lon="-6.2363"><ele>1370.6</ele><time>2026-04-23T17:45:09.893Z</time></trkpt><trkpt lat="31.184575" lon="-6.2363667"><ele>1370.8</ele><time>2026-04-23T17:45:10.894Z</time></trkpt><trkpt lat="31.184615" lon="-6.2364483"><ele>1371.0</ele><time>2026-04-23T17:45:11.894Z</time></trkpt><trkpt lat="31.184625" lon="-6.2365417"><ele>1371.1999999999998</ele><time>2026-04-23T17:45:12.894Z</time></trkpt><trkpt lat="31.1846067" lon="-6.2366433"><ele>1371.3999999999999</ele><time>2026-04-23T17:45:13.894Z</time></trkpt><trkpt lat="31.1845633" lon="-6.236745"><ele>1371.6</ele><time>2026-04-23T17:45:14.893Z</time></trkpt><trkpt lat="31.184505" lon="-6.2368533"><ele>1371.8</ele><time>2026-04-23T17:45:15.894Z</time></trkpt><trkpt lat="31.1844517" lon="-6.23698"><ele>1372.0</ele><time>2026-04-23T17:45:16.894Z</time></trkpt><trkpt lat="31.1844" lon="-6.237105"><ele>1372.0</ele><time>2026-04-23T17:45:17.894Z</time></trkpt><trkpt lat="31.18437" lon="-6.237235"><ele>1372.0</ele><time>2026-04-23T17:45:18.894Z</time></trkpt><trkpt lat="31.1843467" lon="-6.237365"><ele>1372.0</ele><time>2026-04-23T17:45:19.894Z</time></trkpt><trkpt lat="31.184325" lon="-6.2374983"><ele>1372.0</ele><time>2026-04-23T17:45:20.894Z</time></trkpt><trkpt lat="31.1842983" lon="-6.237635"><ele>1372.25</ele><time>2026-04-23T17:45:21.894Z</time></trkpt><trkpt lat="31.1842717" lon="-6.2377733"><ele>1372.5</ele><time>2026-04-23T17:45:22.894Z</time></trkpt><trkpt lat="31.184245" lon="-6.2379333"><ele>1372.75</ele><time>2026-04-23T17:45:23.894Z</time></trkpt><trkpt lat="31.1842117" lon="-6.2381033"><ele>1373.0</ele><time>2026-04-23T17:45:24.894Z</time></trkpt><trkpt lat="31.18417" lon="-6.238275"><ele>1373.0</ele><time>2026-04-23T17:45:25.894Z</time></trkpt><trkpt lat="31.1841217" lon="-6.2384617"><ele>1373.0</ele><time>2026-04-23T17:45:26.894Z</time></trkpt><trkpt lat="31.18406" lon="-6.238665"><ele>1373.0</ele><time>2026-04-23T17:45:27.894Z</time></trkpt><trkpt lat="31.1839933" lon="-6.2388783"><ele>1371.3333333333335</ele><time>2026-04-23T17:45:28.894Z</time></trkpt><trkpt lat="31.18392" lon="-6.2391133"><ele>1369.6666666666667</ele><time>2026-04-23T17:45:29.894Z</time></trkpt><trkpt lat="31.1838483" lon="-6.239355"><ele>1368.0</ele><time>2026-04-23T17:45:30.893Z</time></trkpt><trkpt lat="31.1837733" lon="-6.2395883"><ele>1368.0</ele><time>2026-04-23T17:45:31.894Z</time></trkpt><trkpt lat="31.1837" lon="-6.2398067"><ele>1368.0</ele><time>2026-04-23T17:45:32.893Z</time></trkpt><trkpt lat="31.1836183" lon="-6.2400283"><ele>1368.0</ele><time>2026-04-23T17:45:33.893Z</time></trkpt><trkpt lat="31.1835433" lon="-6.240255"><ele>1368.0</ele><time>2026-04-23T17:45:34.894Z</time></trkpt><trkpt lat="31.1834667" lon="-6.240485"><ele>1368.0</ele><time>2026-04-23T17:45:35.893Z</time></trkpt><trkpt lat="31.1833933" lon="-6.2407117"><ele>1368.0</ele><time>2026-04-23T17:45:36.894Z</time></trkpt><trkpt lat="31.183315" lon="-6.240935"><ele>1368.0</ele><time>2026-04-23T17:45:37.893Z</time></trkpt><trkpt lat="31.1832367" lon="-6.2411567"><ele>1368.0</ele><time>2026-04-23T17:45:38.894Z</time></trkpt><trkpt lat="31.1831533" lon="-6.2413817"><ele>1368.0</ele><time>2026-04-23T17:45:39.894Z</time></trkpt><trkpt lat="31.18307" lon="-6.2416083"><ele>1366.6666666666667</ele><time>2026-04-23T17:45:40.893Z</time></trkpt><trkpt lat="31.1829933" lon="-6.241845"><ele>1365.3333333333335</ele><time>2026-04-23T17:45:41.894Z</time></trkpt><trkpt lat="31.1829167" lon="-6.2420733"><ele>1364.0</ele><time>2026-04-23T17:45:42.893Z</time></trkpt><trkpt lat="31.182845" lon="-6.2422917"><ele>1364.3333333333335</ele><time>2026-04-23T17:45:43.893Z</time></trkpt><trkpt lat="31.1827733" lon="-6.2425117"><ele>1364.6666666666667</ele><time>2026-04-23T17:45:44.894Z</time></trkpt><trkpt lat="31.1827033" lon="-6.24273"><ele>1365.0</ele><time>2026-04-23T17:45:45.893Z</time></trkpt><trkpt lat="31.182625" lon="-6.2429483"><ele>1364.3333333333333</ele><time>2026-04-23T17:45:46.894Z</time></trkpt><trkpt lat="31.18255" lon="-6.2431667"><ele>1363.6666666666665</ele><time>2026-04-23T17:45:47.894Z</time></trkpt><trkpt lat="31.18247" lon="-6.2433883"><ele>1363.0</ele><time>2026-04-23T17:45:48.893Z</time></trkpt><trkpt lat="31.1823933" lon="-6.2436183"><ele>1362.6666666666665</ele><time>2026-04-23T17:45:49.893Z</time></trkpt><trkpt lat="31.1823183" lon="-6.2438433"><ele>1362.3333333333333</ele><time>2026-04-23T17:45:50.894Z</time></trkpt><trkpt lat="31.1822417" lon="-6.2440733"><ele>1362.0</ele><time>2026-04-23T17:45:51.894Z</time></trkpt><trkpt lat="31.182165" lon="-6.2443017"><ele>1361.0</ele><time>2026-04-23T17:45:52.894Z</time></trkpt><trkpt lat="31.1820917" lon="-6.24452"><ele>1360.0</ele><time>2026-04-23T17:45:53.893Z</time></trkpt><trkpt lat="31.182015" lon="-6.2447533"><ele>1359.0</ele><time>2026-04-23T17:45:54.893Z</time></trkpt><trkpt lat="31.18194" lon="-6.2449817"><ele>1359.0</ele><time>2026-04-23T17:45:55.893Z</time></trkpt><trkpt lat="31.1818567" lon="-6.24522"><ele>1359.0</ele><time>2026-04-23T17:45:56.894Z</time></trkpt><trkpt lat="31.1817767" lon="-6.2454533"><ele>1359.0</ele><time>2026-04-23T17:45:57.894Z</time></trkpt><trkpt lat="31.1816967" lon="-6.2456867"><ele>1360.0</ele><time>2026-04-23T17:45:58.894Z</time></trkpt><trkpt lat="31.18161" lon="-6.2459267"><ele>1361.0</ele><time>2026-04-23T17:45:59.894Z</time></trkpt><trkpt lat="31.1815217" lon="-6.2461717"><ele>1361.0</ele><time>2026-04-23T17:46:00.894Z</time></trkpt><trkpt lat="31.1814217" lon="-6.246415"><ele>1361.0</ele><time>2026-04-23T17:46:01.893Z</time></trkpt><trkpt lat="31.181315" lon="-6.246655"><ele>1361.0</ele><time>2026-04-23T17:46:02.893Z</time></trkpt><trkpt lat="31.18121" lon="-6.2469"><ele>1361.0</ele><time>2026-04-23T17:46:03.893Z</time></trkpt><trkpt lat="31.181095" lon="-6.2471383"><ele>1361.0</ele><time>2026-04-23T17:46:04.893Z</time></trkpt><trkpt lat="31.1809783" lon="-6.24737"><ele>1361.0</ele><time>2026-04-23T17:46:05.893Z</time></trkpt><trkpt lat="31.1808483" lon="-6.24761"><ele>1361.0</ele><time>2026-04-23T17:46:06.894Z</time></trkpt><trkpt lat="31.1807217" lon="-6.247845"><ele>1361.0</ele><time>2026-04-23T17:46:07.894Z</time></trkpt><trkpt lat="31.1805883" lon="-6.24808"><ele>1361.0</ele><time>2026-04-23T17:46:08.894Z</time></trkpt><trkpt lat="31.1804567" lon="-6.24831"><ele>1361.0</ele><time>2026-04-23T17:46:09.894Z</time></trkpt><trkpt lat="31.1803283" lon="-6.248535"><ele>1361.0</ele><time>2026-04-23T17:46:10.893Z</time></trkpt><trkpt lat="31.1802" lon="-6.2487567"><ele>1361.0</ele><time>2026-04-23T17:46:11.894Z</time></trkpt><trkpt lat="31.1800717" lon="-6.2489767"><ele>1361.5</ele><time>2026-04-23T17:46:12.893Z</time></trkpt><trkpt lat="31.1799417" lon="-6.2492"><ele>1362.0</ele><time>2026-04-23T17:46:13.893Z</time></trkpt><trkpt lat="31.1798117" lon="-6.2494317"><ele>1362.0</ele><time>2026-04-23T17:46:14.894Z</time></trkpt><trkpt lat="31.1796817" lon="-6.2496583"><ele>1362.0</ele><time>2026-04-23T17:46:15.894Z</time></trkpt><trkpt lat="31.179545" lon="-6.2498917"><ele>1362.0</ele><time>2026-04-23T17:46:16.894Z</time></trkpt><trkpt lat="31.1794083" lon="-6.250125"><ele>1362.0</ele><time>2026-04-23T17:46:17.894Z</time></trkpt><trkpt lat="31.17927" lon="-6.250365"><ele>1362.0</ele><time>2026-04-23T17:46:18.894Z</time></trkpt><trkpt lat="31.1791317" lon="-6.250605"><ele>1362.0</ele><time>2026-04-23T17:46:19.894Z</time></trkpt><trkpt lat="31.1789867" lon="-6.2508533"><ele>1361.0</ele><time>2026-04-23T17:46:20.894Z</time></trkpt><trkpt lat="31.1788433" lon="-6.2511"><ele>1360.0</ele><time>2026-04-23T17:46:21.894Z</time></trkpt><trkpt lat="31.1786967" lon="-6.2513483"><ele>1358.5</ele><time>2026-04-23T17:46:22.894Z</time></trkpt><trkpt lat="31.17855" lon="-6.2515983"><ele>1357.0</ele><time>2026-04-23T17:46:23.894Z</time></trkpt><trkpt lat="31.178405" lon="-6.2518483"><ele>1357.0</ele><time>2026-04-23T17:46:24.894Z</time></trkpt><trkpt lat="31.1782583" lon="-6.2521"><ele>1357.0</ele><time>2026-04-23T17:46:25.894Z</time></trkpt><trkpt lat="31.17811" lon="-6.2523583"><ele>1357.0</ele><time>2026-04-23T17:46:26.893Z</time></trkpt><trkpt lat="31.1779567" lon="-6.2526117"><ele>1357.0</ele><time>2026-04-23T17:46:27.893Z</time></trkpt><trkpt lat="31.17781" lon="-6.252865"><ele>1357.0</ele><time>2026-04-23T17:46:28.894Z</time></trkpt><trkpt lat="31.1776567" lon="-6.25312"><ele>1357.0</ele><time>2026-04-23T17:46:29.893Z</time></trkpt><trkpt lat="31.1775217" lon="-6.2533717"><ele>1357.0</ele><time>2026-04-23T17:46:30.894Z</time></trkpt><trkpt lat="31.1773833" lon="-6.253615"><ele>1357.0</ele><time>2026-04-23T17:46:31.894Z</time></trkpt><trkpt lat="31.1772433" lon="-6.25385"><ele>1356.0</ele><time>2026-04-23T17:46:32.894Z</time></trkpt><trkpt lat="31.177105" lon="-6.2540833"><ele>1355.0</ele><time>2026-04-23T17:46:33.894Z</time></trkpt><trkpt lat="31.1769683" lon="-6.25431"><ele>1355.0</ele><time>2026-04-23T17:46:34.893Z</time></trkpt><trkpt lat="31.1768333" lon="-6.25455"><ele>1355.0</ele><time>2026-04-23T17:46:35.893Z</time></trkpt><trkpt lat="31.1767033" lon="-6.2547817"><ele>1354.5</ele><time>2026-04-23T17:46:36.893Z</time></trkpt><trkpt lat="31.1765667" lon="-6.2550133"><ele>1354.0</ele><time>2026-04-23T17:46:37.893Z</time></trkpt><trkpt lat="31.1764317" lon="-6.255245"><ele>1353.5</ele><time>2026-04-23T17:46:38.894Z</time></trkpt><trkpt lat="31.1762933" lon="-6.2554783"><ele>1353.0</ele><time>2026-04-23T17:46:39.894Z</time></trkpt><trkpt lat="31.17616" lon="-6.2557033"><ele>1352.5</ele><time>2026-04-23T17:46:40.893Z</time></trkpt><trkpt lat="31.176025" lon="-6.2559283"><ele>1352.0</ele><time>2026-04-23T17:46:41.893Z</time></trkpt><trkpt lat="31.1758967" lon="-6.2561583"><ele>1352.0</ele><time>2026-04-23T17:46:42.892Z</time></trkpt><trkpt lat="31.17577" lon="-6.2563833"><ele>1352.0</ele><time>2026-04-23T17:46:43.893Z</time></trkpt><trkpt lat="31.1756433" lon="-6.2566033"><ele>1352.0</ele><time>2026-04-23T17:46:44.893Z</time></trkpt><trkpt lat="31.1755117" lon="-6.2568267"><ele>1352.0</ele><time>2026-04-23T17:46:45.893Z</time></trkpt><trkpt lat="31.1753783" lon="-6.2570533"><ele>1352.0</ele><time>2026-04-23T17:46:46.892Z</time></trkpt><trkpt lat="31.1752467" lon="-6.2572767"><ele>1352.0</ele><time>2026-04-23T17:46:47.892Z</time></trkpt><trkpt lat="31.1751133" lon="-6.2575017"><ele>1352.0</ele><time>2026-04-23T17:46:48.893Z</time></trkpt><trkpt lat="31.1749783" lon="-6.257725"><ele>1352.0</ele><time>2026-04-23T17:46:49.893Z</time></trkpt><trkpt lat="31.174855" lon="-6.257955"><ele>1353.0</ele><time>2026-04-23T17:46:50.893Z</time></trkpt><trkpt lat="31.1747183" lon="-6.2581817"><ele>1354.0</ele><time>2026-04-23T17:46:51.893Z</time></trkpt><trkpt lat="31.174585" lon="-6.258405"><ele>1354.0</ele><time>2026-04-23T17:46:52.893Z</time></trkpt><trkpt lat="31.1744583" lon="-6.2586333"><ele>1354.0</ele><time>2026-04-23T17:46:53.892Z</time></trkpt><trkpt lat="31.174325" lon="-6.2588517"><ele>1355.5</ele><time>2026-04-23T17:46:54.893Z</time></trkpt><trkpt lat="31.1741983" lon="-6.2590767"><ele>1357.0</ele><time>2026-04-23T17:46:55.893Z</time></trkpt><trkpt lat="31.1740667" lon="-6.259305"><ele>1357.5</ele><time>2026-04-23T17:46:56.893Z</time></trkpt><trkpt lat="31.1739367" lon="-6.2595333"><ele>1358.0</ele><time>2026-04-23T17:46:57.893Z</time></trkpt><trkpt lat="31.1738083" lon="-6.2597467"><ele>1359.0</ele><time>2026-04-23T17:46:58.893Z</time></trkpt><trkpt lat="31.1736767" lon="-6.259965"><ele>1360.0</ele><time>2026-04-23T17:46:59.893Z</time></trkpt><trkpt lat="31.1735483" lon="-6.2601883"><ele>1360.0</ele><time>2026-04-23T17:47:00.893Z</time></trkpt><trkpt lat="31.1734217" lon="-6.2604067"><ele>1360.0</ele><time>2026-04-23T17:47:01.893Z</time></trkpt><trkpt lat="31.1732933" lon="-6.2606233"><ele>1359.0</ele><time>2026-04-23T17:47:02.893Z</time></trkpt><trkpt lat="31.173175" lon="-6.2608383"><ele>1358.0</ele><time>2026-04-23T17:47:03.893Z</time></trkpt><trkpt lat="31.1730533" lon="-6.2610483"><ele>1357.0</ele><time>2026-04-23T17:47:04.893Z</time></trkpt><trkpt lat="31.1729333" lon="-6.2612533"><ele>1357.6666666666665</ele><time>2026-04-23T17:47:05.892Z</time></trkpt><trkpt lat="31.17281" lon="-6.2614683"><ele>1358.3333333333333</ele><time>2026-04-23T17:47:06.892Z</time></trkpt><trkpt lat="31.1726867" lon="-6.26168"><ele>1359.0</ele><time>2026-04-23T17:47:07.893Z</time></trkpt><trkpt lat="31.1725667" lon="-6.2618967"><ele>1359.0</ele><time>2026-04-23T17:47:08.893Z</time></trkpt><trkpt lat="31.172445" lon="-6.2621067"><ele>1359.0</ele><time>2026-04-23T17:47:09.893Z</time></trkpt><trkpt lat="31.1723267" lon="-6.262305"><ele>1359.0</ele><time>2026-04-23T17:47:10.893Z</time></trkpt><trkpt lat="31.17221" lon="-6.2624933"><ele>1357.6666666666667</ele><time>2026-04-23T17:47:11.892Z</time></trkpt><trkpt lat="31.172095" lon="-6.2626867"><ele>1356.3333333333335</ele><time>2026-04-23T17:47:12.893Z</time></trkpt><trkpt lat="31.1719783" lon="-6.2628867"><ele>1355.0</ele><time>2026-04-23T17:47:13.892Z</time></trkpt><trkpt lat="31.1718583" lon="-6.2630867"><ele>1355.0</ele><time>2026-04-23T17:47:14.892Z</time></trkpt><trkpt lat="31.17174" lon="-6.263305"><ele>1355.0</ele><time>2026-04-23T17:47:15.892Z</time></trkpt><trkpt lat="31.1716183" lon="-6.2635167"><ele>1355.0</ele><time>2026-04-23T17:47:16.892Z</time></trkpt><trkpt lat="31.171495" lon="-6.2637333"><ele>1354.5</ele><time>2026-04-23T17:47:17.893Z</time></trkpt><trkpt lat="31.1713717" lon="-6.2639567"><ele>1354.0</ele><time>2026-04-23T17:47:18.892Z</time></trkpt><trkpt lat="31.1712383" lon="-6.2641833"><ele>1354.0</ele><time>2026-04-23T17:47:19.893Z</time></trkpt><trkpt lat="31.1711" lon="-6.2644167"><ele>1354.0</ele><time>2026-04-23T17:47:20.893Z</time></trkpt><trkpt lat="31.17096" lon="-6.2646483"><ele>1352.5</ele><time>2026-04-23T17:47:21.893Z</time></trkpt><trkpt lat="31.1708267" lon="-6.2648867"><ele>1351.0</ele><time>2026-04-23T17:47:22.892Z</time></trkpt><trkpt lat="31.1706933" lon="-6.2651383"><ele>1350.5</ele><time>2026-04-23T17:47:23.892Z</time></trkpt><trkpt lat="31.170555" lon="-6.2653917"><ele>1350.0</ele><time>2026-04-23T17:47:24.893Z</time></trkpt><trkpt lat="31.170415" lon="-6.2656517"><ele>1350.0</ele><time>2026-04-23T17:47:25.893Z</time></trkpt><trkpt lat="31.1702717" lon="-6.26592"><ele>1350.0</ele><time>2026-04-23T17:47:26.893Z</time></trkpt><trkpt lat="31.170115" lon="-6.2661783"><ele>1351.0</ele><time>2026-04-23T17:47:27.893Z</time></trkpt><trkpt lat="31.169965" lon="-6.2664617"><ele>1352.0</ele><time>2026-04-23T17:47:28.892Z</time></trkpt><trkpt lat="31.169815" lon="-6.2667533"><ele>1352.0</ele><time>2026-04-23T17:47:29.893Z</time></trkpt><trkpt lat="31.1696633" lon="-6.26705"><ele>1352.0</ele><time>2026-04-23T17:47:30.893Z</time></trkpt><trkpt lat="31.1695" lon="-6.2673583"><ele>1350.0</ele><time>2026-04-23T17:47:31.893Z</time></trkpt><trkpt lat="31.169335" lon="-6.2676767"><ele>1348.0</ele><time>2026-04-23T17:47:32.893Z</time></trkpt><trkpt lat="31.16917" lon="-6.2679983"><ele>1346.5</ele><time>2026-04-23T17:47:33.893Z</time></trkpt><trkpt lat="31.169" lon="-6.26832"><ele>1345.0</ele><time>2026-04-23T17:47:34.893Z</time></trkpt><trkpt lat="31.1688367" lon="-6.268655"><ele>1345.5</ele><time>2026-04-23T17:47:35.893Z</time></trkpt><trkpt lat="31.16868" lon="-6.26898"><ele>1346.0</ele><time>2026-04-23T17:47:36.893Z</time></trkpt><trkpt lat="31.1685217" lon="-6.2693067"><ele>1346.0</ele><time>2026-04-23T17:47:37.892Z</time></trkpt><trkpt lat="31.168365" lon="-6.2696217"><ele>1346.0</ele><time>2026-04-23T17:47:38.893Z</time></trkpt><trkpt lat="31.1682117" lon="-6.26992"><ele>1346.0</ele><time>2026-04-23T17:47:39.892Z</time></trkpt><trkpt lat="31.168055" lon="-6.270215"><ele>1346.0</ele><time>2026-04-23T17:47:40.892Z</time></trkpt><trkpt lat="31.1679033" lon="-6.2704983"><ele>1345.5</ele><time>2026-04-23T17:47:41.893Z</time></trkpt><trkpt lat="31.1677583" lon="-6.2707967"><ele>1345.0</ele><time>2026-04-23T17:47:42.893Z</time></trkpt><trkpt lat="31.1676117" lon="-6.2710917"><ele>1345.0</ele><time>2026-04-23T17:47:43.893Z</time></trkpt><trkpt lat="31.167455" lon="-6.271375"><ele>1345.0</ele><time>2026-04-23T17:47:44.893Z</time></trkpt><trkpt lat="31.1673117" lon="-6.2716683"><ele>1344.0</ele><time>2026-04-23T17:47:45.893Z</time></trkpt><trkpt lat="31.1671717" lon="-6.27195"><ele>1343.0</ele><time>2026-04-23T17:47:46.893Z</time></trkpt><trkpt lat="31.1670367" lon="-6.27223"><ele>1341.0</ele><time>2026-04-23T17:47:47.893Z</time></trkpt><trkpt lat="31.1668967" lon="-6.2725083"><ele>1339.0</ele><time>2026-04-23T17:47:48.893Z</time></trkpt><trkpt lat="31.1667617" lon="-6.2727983"><ele>1339.0</ele><time>2026-04-23T17:47:49.893Z</time></trkpt><trkpt lat="31.16662" lon="-6.2730733"><ele>1339.0</ele><time>2026-04-23T17:47:50.892Z</time></trkpt><trkpt lat="31.1664817" lon="-6.2733333"><ele>1341.0</ele><time>2026-04-23T17:47:51.892Z</time></trkpt><trkpt lat="31.1663483" lon="-6.2735917"><ele>1343.0</ele><time>2026-04-23T17:47:52.893Z</time></trkpt><trkpt lat="31.16622" lon="-6.2738467"><ele>1342.0</ele><time>2026-04-23T17:47:53.893Z</time></trkpt><trkpt lat="31.16609" lon="-6.2741017"><ele>1341.0</ele><time>2026-04-23T17:47:54.893Z</time></trkpt><trkpt lat="31.165965" lon="-6.2743517"><ele>1341.0</ele><time>2026-04-23T17:47:55.892Z</time></trkpt><trkpt lat="31.1658367" lon="-6.2746033"><ele>1341.0</ele><time>2026-04-23T17:47:56.893Z</time></trkpt><trkpt lat="31.1657017" lon="-6.27487"><ele>1341.0</ele><time>2026-04-23T17:47:57.893Z</time></trkpt><trkpt lat="31.165565" lon="-6.2751333"><ele>1341.0</ele><time>2026-04-23T17:47:58.893Z</time></trkpt><trkpt lat="31.16543" lon="-6.2753967"><ele>1341.0</ele><time>2026-04-23T17:47:59.893Z</time></trkpt><trkpt lat="31.1652933" lon="-6.2756567"><ele>1341.0</ele><time>2026-04-23T17:48:00.892Z</time></trkpt><trkpt lat="31.1651683" lon="-6.2759033"><ele>1341.0</ele><time>2026-04-23T17:48:01.893Z</time></trkpt><trkpt lat="31.165045" lon="-6.2761467"><ele>1341.0</ele><time>2026-04-23T17:48:02.893Z</time></trkpt><trkpt lat="31.1649217" lon="-6.276385"><ele>1339.5</ele><time>2026-04-23T17:48:03.893Z</time></trkpt><trkpt lat="31.1647983" lon="-6.27662"><ele>1338.0</ele><time>2026-04-23T17:48:04.893Z</time></trkpt><trkpt lat="31.1646767" lon="-6.2768617"><ele>1338.0</ele><time>2026-04-23T17:48:05.893Z</time></trkpt><trkpt lat="31.1645517" lon="-6.2771083"><ele>1338.0</ele><time>2026-04-23T17:48:06.892Z</time></trkpt><trkpt lat="31.1644167" lon="-6.27736"><ele>1336.5</ele><time>2026-04-23T17:48:07.892Z</time></trkpt><trkpt lat="31.1642783" lon="-6.2776317"><ele>1335.0</ele><time>2026-04-23T17:48:08.892Z</time></trkpt><trkpt lat="31.164135" lon="-6.2779083"><ele>1337.0</ele><time>2026-04-23T17:48:09.893Z</time></trkpt><trkpt lat="31.1639983" lon="-6.2781817"><ele>1339.0</ele><time>2026-04-23T17:48:10.893Z</time></trkpt><trkpt lat="31.1638583" lon="-6.2784433"><ele>1339.0</ele><time>2026-04-23T17:48:11.893Z</time></trkpt><trkpt lat="31.16372" lon="-6.2787133"><ele>1339.0</ele><time>2026-04-23T17:48:12.893Z</time></trkpt><trkpt lat="31.1635717" lon="-6.2789983"><ele>1337.0</ele><time>2026-04-23T17:48:13.893Z</time></trkpt><trkpt lat="31.163415" lon="-6.2792933"><ele>1335.0</ele><time>2026-04-23T17:48:14.893Z</time></trkpt><trkpt lat="31.1632533" lon="-6.2795933"><ele>1335.5</ele><time>2026-04-23T17:48:15.893Z</time></trkpt><trkpt lat="31.1630933" lon="-6.2798767"><ele>1336.0</ele><time>2026-04-23T17:48:16.893Z</time></trkpt><trkpt lat="31.1629233" lon="-6.2801583"><ele>1336.0</ele><time>2026-04-23T17:48:17.893Z</time></trkpt><trkpt lat="31.1627333" lon="-6.2804317"><ele>1336.0</ele><time>2026-04-23T17:48:18.893Z</time></trkpt><trkpt lat="31.1625283" lon="-6.28071"><ele>1335.5</ele><time>2026-04-23T17:48:19.893Z</time></trkpt><trkpt lat="31.1623133" lon="-6.2810017"><ele>1335.0</ele><time>2026-04-23T17:48:20.893Z</time></trkpt><trkpt lat="31.1620983" lon="-6.2812717"><ele>1334.5</ele><time>2026-04-23T17:48:21.893Z</time></trkpt><trkpt lat="31.1619" lon="-6.2815267"><ele>1334.0</ele><time>2026-04-23T17:48:22.893Z</time></trkpt><trkpt lat="31.1617167" lon="-6.28178"><ele>1334.0</ele><time>2026-04-23T17:48:23.893Z</time></trkpt><trkpt lat="31.1615333" lon="-6.2820267"><ele>1334.0</ele><time>2026-04-23T17:48:24.893Z</time></trkpt><trkpt lat="31.1613533" lon="-6.2822717"><ele>1333.5</ele><time>2026-04-23T17:48:25.893Z</time></trkpt><trkpt lat="31.1611717" lon="-6.28252"><ele>1333.0</ele><time>2026-04-23T17:48:26.893Z</time></trkpt><trkpt lat="31.160985" lon="-6.2827683"><ele>1333.0</ele><time>2026-04-23T17:48:27.893Z</time></trkpt><trkpt lat="31.160805" lon="-6.2830167"><ele>1333.0</ele><time>2026-04-23T17:48:28.893Z</time></trkpt><trkpt lat="31.160615" lon="-6.2832617"><ele>1332.5</ele><time>2026-04-23T17:48:29.893Z</time></trkpt><trkpt lat="31.1604317" lon="-6.283515"><ele>1332.0</ele><time>2026-04-23T17:48:30.893Z</time></trkpt><trkpt lat="31.1602567" lon="-6.28375"><ele>1331.0</ele><time>2026-04-23T17:48:31.892Z</time></trkpt><trkpt lat="31.16009" lon="-6.2839833"><ele>1330.0</ele><time>2026-04-23T17:48:32.892Z</time></trkpt><trkpt lat="31.15992" lon="-6.2842083"><ele>1332.0</ele><time>2026-04-23T17:48:33.893Z</time></trkpt><trkpt lat="31.1597567" lon="-6.2844283"><ele>1334.0</ele><time>2026-04-23T17:48:34.893Z</time></trkpt><trkpt lat="31.1596033" lon="-6.2846467"><ele>1334.5</ele><time>2026-04-23T17:48:35.893Z</time></trkpt><trkpt lat="31.1594467" lon="-6.2848467"><ele>1335.0</ele><time>2026-04-23T17:48:36.892Z</time></trkpt><trkpt lat="31.1592967" lon="-6.2850767"><ele>1335.0</ele><time>2026-04-23T17:48:37.893Z</time></trkpt><trkpt lat="31.159165" lon="-6.285345"><ele>1335.0</ele><time>2026-04-23T17:48:38.892Z</time></trkpt><trkpt lat="31.159045" lon="-6.285625"><ele>1333.0</ele><time>2026-04-23T17:48:39.893Z</time></trkpt><trkpt lat="31.1589267" lon="-6.2859117"><ele>1331.0</ele><time>2026-04-23T17:48:40.893Z</time></trkpt><trkpt lat="31.15882" lon="-6.2861883"><ele>1330.0</ele><time>2026-04-23T17:48:41.893Z</time></trkpt><trkpt lat="31.15872" lon="-6.2864467"><ele>1329.0</ele><time>2026-04-23T17:48:42.893Z</time></trkpt><trkpt lat="31.1586233" lon="-6.286685"><ele>1329.0</ele><time>2026-04-23T17:48:43.892Z</time></trkpt><trkpt lat="31.1585367" lon="-6.28691"><ele>1329.0</ele><time>2026-04-23T17:48:44.893Z</time></trkpt><trkpt lat="31.1584483" lon="-6.287145"><ele>1329.0</ele><time>2026-04-23T17:48:45.893Z</time></trkpt><trkpt lat="31.15836" lon="-6.2873767"><ele>1329.0</ele><time>2026-04-23T17:48:46.893Z</time></trkpt><trkpt lat="31.15827" lon="-6.2876267"><ele>1329.0</ele><time>2026-04-23T17:48:47.893Z</time></trkpt><trkpt lat="31.15818" lon="-6.28787"><ele>1327.6666666666667</ele><time>2026-04-23T17:48:48.892Z</time></trkpt><trkpt lat="31.15809" lon="-6.2881017"><ele>1326.3333333333335</ele><time>2026-04-23T17:48:49.893Z</time></trkpt><trkpt lat="31.1580017" lon="-6.2883333"><ele>1325.0</ele><time>2026-04-23T17:48:50.892Z</time></trkpt><trkpt lat="31.157915" lon="-6.2885717"><ele>1325.0</ele><time>2026-04-23T17:48:51.893Z</time></trkpt><trkpt lat="31.1578217" lon="-6.2888017"><ele>1325.0</ele><time>2026-04-23T17:48:52.892Z</time></trkpt><trkpt lat="31.15773" lon="-6.289035"><ele>1325.0</ele><time>2026-04-23T17:48:53.893Z</time></trkpt><trkpt lat="31.1576333" lon="-6.2892633"><ele>1325.0</ele><time>2026-04-23T17:48:54.893Z</time></trkpt><trkpt lat="31.15753" lon="-6.289485"><ele>1325.0</ele><time>2026-04-23T17:48:55.893Z</time></trkpt><trkpt lat="31.1574133" lon="-6.2897"><ele>1325.0</ele><time>2026-04-23T17:48:56.893Z</time></trkpt><trkpt lat="31.1572917" lon="-6.2899083"><ele>1325.0</ele><time>2026-04-23T17:48:57.892Z</time></trkpt><trkpt lat="31.157165" lon="-6.290125"><ele>1325.0</ele><time>2026-04-23T17:48:58.893Z</time></trkpt><trkpt lat="31.15703" lon="-6.29033"><ele>1325.0</ele><time>2026-04-23T17:48:59.892Z</time></trkpt><trkpt lat="31.156905" lon="-6.2905483"><ele>1325.5</ele><time>2026-04-23T17:49:00.893Z</time></trkpt><trkpt lat="31.1567783" lon="-6.2907667"><ele>1326.0</ele><time>2026-04-23T17:49:01.893Z</time></trkpt><trkpt lat="31.15665" lon="-6.2909883"><ele>1325.5</ele><time>2026-04-23T17:49:02.893Z</time></trkpt><trkpt lat="31.1565217" lon="-6.2912083"><ele>1325.0</ele><time>2026-04-23T17:49:03.892Z</time></trkpt><trkpt lat="31.1563933" lon="-6.2914267"><ele>1323.5</ele><time>2026-04-23T17:49:04.893Z</time></trkpt><trkpt lat="31.1562567" lon="-6.2916333"><ele>1322.0</ele><time>2026-04-23T17:49:05.892Z</time></trkpt><trkpt lat="31.15612" lon="-6.2918717"><ele>1322.0</ele><time>2026-04-23T17:49:06.893Z</time></trkpt><trkpt lat="31.1559883" lon="-6.2921033"><ele>1322.0</ele><time>2026-04-23T17:49:07.892Z</time></trkpt><trkpt lat="31.1558533" lon="-6.2923283"><ele>1322.5</ele><time>2026-04-23T17:49:08.893Z</time></trkpt><trkpt lat="31.1557183" lon="-6.292555"><ele>1323.0</ele><time>2026-04-23T17:49:09.893Z</time></trkpt><trkpt lat="31.1555833" lon="-6.2927783"><ele>1323.0</ele><time>2026-04-23T17:49:10.893Z</time></trkpt><trkpt lat="31.15545" lon="-6.293005"><ele>1323.0</ele><time>2026-04-23T17:49:11.893Z</time></trkpt><trkpt lat="31.15531" lon="-6.293235"><ele>1323.5</ele><time>2026-04-23T17:49:12.892Z</time></trkpt><trkpt lat="31.155165" lon="-6.2934717"><ele>1324.0</ele><time>2026-04-23T17:49:13.893Z</time></trkpt><trkpt lat="31.155025" lon="-6.293705"><ele>1324.5</ele><time>2026-04-23T17:49:14.892Z</time></trkpt><trkpt lat="31.1548783" lon="-6.2939333"><ele>1325.0</ele><time>2026-04-23T17:49:15.893Z</time></trkpt><trkpt lat="31.1547383" lon="-6.2941733"><ele>1324.0</ele><time>2026-04-23T17:49:16.893Z</time></trkpt><trkpt lat="31.1545917" lon="-6.2944067"><ele>1323.0</ele><time>2026-04-23T17:49:17.893Z</time></trkpt><trkpt lat="31.1544433" lon="-6.2946333"><ele>1322.5</ele><time>2026-04-23T17:49:18.892Z</time></trkpt><trkpt lat="31.1543067" lon="-6.294855"><ele>1322.0</ele><time>2026-04-23T17:49:19.893Z</time></trkpt><trkpt lat="31.154175" lon="-6.2950683"><ele>1322.0</ele><time>2026-04-23T17:49:20.893Z</time></trkpt><trkpt lat="31.15405" lon="-6.295285"><ele>1322.0</ele><time>2026-04-23T17:49:21.893Z</time></trkpt><trkpt lat="31.1539217" lon="-6.2955017"><ele>1322.0</ele><time>2026-04-23T17:49:22.892Z</time></trkpt><trkpt lat="31.1537933" lon="-6.2957167"><ele>1321.5</ele><time>2026-04-23T17:49:23.893Z</time></trkpt><trkpt lat="31.1536667" lon="-6.2959333"><ele>1321.0</ele><time>2026-04-23T17:49:24.893Z</time></trkpt><trkpt lat="31.153535" lon="-6.2961467"><ele>1321.0</ele><time>2026-04-23T17:49:25.893Z</time></trkpt><trkpt lat="31.1534033" lon="-6.2963633"><ele>1321.0</ele><time>2026-04-23T17:49:26.893Z</time></trkpt><trkpt lat="31.1532733" lon="-6.2965867"><ele>1320.5</ele><time>2026-04-23T17:49:27.893Z</time></trkpt><trkpt lat="31.15314" lon="-6.2968067"><ele>1320.0</ele><time>2026-04-23T17:49:28.892Z</time></trkpt><trkpt lat="31.1530067" lon="-6.297025"><ele>1320.5</ele><time>2026-04-23T17:49:29.893Z</time></trkpt><trkpt lat="31.1528783" lon="-6.297255"><ele>1321.0</ele><time>2026-04-23T17:49:30.893Z</time></trkpt><trkpt lat="31.15275" lon="-6.2974817"><ele>1321.0</ele><time>2026-04-23T17:49:31.893Z</time></trkpt><trkpt lat="31.1526117" lon="-6.297705"><ele>1321.0</ele><time>2026-04-23T17:49:32.892Z</time></trkpt><trkpt lat="31.1524767" lon="-6.29793"><ele>1320.5</ele><time>2026-04-23T17:49:33.892Z</time></trkpt><trkpt lat="31.15234" lon="-6.298155"><ele>1320.0</ele><time>2026-04-23T17:49:34.893Z</time></trkpt><trkpt lat="31.1522033" lon="-6.2983717"><ele>1320.0</ele><time>2026-04-23T17:49:35.893Z</time></trkpt><trkpt lat="31.1520667" lon="-6.298595"><ele>1320.0</ele><time>2026-04-23T17:49:36.893Z</time></trkpt><trkpt lat="31.1519333" lon="-6.2988233"><ele>1319.0</ele><time>2026-04-23T17:49:37.893Z</time></trkpt><trkpt lat="31.1518" lon="-6.2990533"><ele>1318.0</ele><time>2026-04-23T17:49:38.893Z</time></trkpt><trkpt lat="31.1516617" lon="-6.2992733"><ele>1317.5</ele><time>2026-04-23T17:49:39.892Z</time></trkpt><trkpt lat="31.1515333" lon="-6.2995067"><ele>1317.0</ele><time>2026-04-23T17:49:40.893Z</time></trkpt><trkpt lat="31.151395" lon="-6.2997317"><ele>1316.0</ele><time>2026-04-23T17:49:41.893Z</time></trkpt><trkpt lat="31.15126" lon="-6.29996"><ele>1315.0</ele><time>2026-04-23T17:49:42.893Z</time></trkpt><trkpt lat="31.1511267" lon="-6.3001867"><ele>1315.0</ele><time>2026-04-23T17:49:43.892Z</time></trkpt><trkpt lat="31.1509833" lon="-6.3004033"><ele>1315.0</ele><time>2026-04-23T17:49:44.892Z</time></trkpt><trkpt lat="31.15085" lon="-6.3006183"><ele>1316.0</ele><time>2026-04-23T17:49:45.893Z</time></trkpt><trkpt lat="31.1507133" lon="-6.300835"><ele>1317.0</ele><time>2026-04-23T17:49:46.893Z</time></trkpt><trkpt lat="31.1505717" lon="-6.3010367"><ele>1316.5</ele><time>2026-04-23T17:49:47.892Z</time></trkpt><trkpt lat="31.1504367" lon="-6.3012483"><ele>1316.0</ele><time>2026-04-23T17:49:48.893Z</time></trkpt><trkpt lat="31.150295" lon="-6.3014567"><ele>1316.0</ele><time>2026-04-23T17:49:49.893Z</time></trkpt><trkpt lat="31.15015" lon="-6.301675"><ele>1316.0</ele><time>2026-04-23T17:49:50.893Z</time></trkpt><trkpt lat="31.1500083" lon="-6.301895"><ele>1316.5</ele><time>2026-04-23T17:49:51.893Z</time></trkpt><trkpt lat="31.149865" lon="-6.3021117"><ele>1317.0</ele><time>2026-04-23T17:49:52.893Z</time></trkpt><trkpt lat="31.149725" lon="-6.302325"><ele>1317.0</ele><time>2026-04-23T17:49:53.893Z</time></trkpt><trkpt lat="31.1495817" lon="-6.302535"><ele>1317.0</ele><time>2026-04-23T17:49:54.892Z</time></trkpt><trkpt lat="31.1494383" lon="-6.302745"><ele>1317.0</ele><time>2026-04-23T17:49:55.893Z</time></trkpt><trkpt lat="31.1492967" lon="-6.3029567"><ele>1317.0</ele><time>2026-04-23T17:49:56.893Z</time></trkpt><trkpt lat="31.14915" lon="-6.3031717"><ele>1315.5</ele><time>2026-04-23T17:49:57.893Z</time></trkpt><trkpt lat="31.1490017" lon="-6.3033783"><ele>1314.0</ele><time>2026-04-23T17:49:58.893Z</time></trkpt><trkpt lat="31.148855" lon="-6.30358"><ele>1314.0</ele><time>2026-04-23T17:49:59.893Z</time></trkpt><trkpt lat="31.1487117" lon="-6.303795"><ele>1314.0</ele><time>2026-04-23T17:50:00.893Z</time></trkpt><trkpt lat="31.1485683" lon="-6.3040067"><ele>1315.0</ele><time>2026-04-23T17:50:01.893Z</time></trkpt><trkpt lat="31.1484283" lon="-6.30422"><ele>1316.0</ele><time>2026-04-23T17:50:02.893Z</time></trkpt><trkpt lat="31.1482867" lon="-6.3044483"><ele>1317.0</ele><time>2026-04-23T17:50:03.892Z</time></trkpt><trkpt lat="31.1481667" lon="-6.30468"><ele>1318.0</ele><time>2026-04-23T17:50:04.893Z</time></trkpt><trkpt lat="31.14805" lon="-6.3049133"><ele>1319.5</ele><time>2026-04-23T17:50:05.892Z</time></trkpt><trkpt lat="31.1479317" lon="-6.3051433"><ele>1321.0</ele><time>2026-04-23T17:50:06.893Z</time></trkpt><trkpt lat="31.1478167" lon="-6.3053633"><ele>1320.3333333333333</ele><time>2026-04-23T17:50:07.893Z</time></trkpt><trkpt lat="31.1477067" lon="-6.3055817"><ele>1319.6666666666667</ele><time>2026-04-23T17:50:08.893Z</time></trkpt><trkpt lat="31.147605" lon="-6.3057933"><ele>1319.0</ele><time>2026-04-23T17:50:09.893Z</time></trkpt><trkpt lat="31.147495" lon="-6.3059933"><ele>1319.0</ele><time>2026-04-23T17:50:10.892Z</time></trkpt><trkpt lat="31.1473883" lon="-6.3062"><ele>1319.0</ele><time>2026-04-23T17:50:11.893Z</time></trkpt><trkpt lat="31.14729" lon="-6.30641"><ele>1319.0</ele><time>2026-04-23T17:50:12.893Z</time></trkpt><trkpt lat="31.1471917" lon="-6.3066133"><ele>1319.0</ele><time>2026-04-23T17:50:13.893Z</time></trkpt><trkpt lat="31.147095" lon="-6.3068183"><ele>1319.0</ele><time>2026-04-23T17:50:14.893Z</time></trkpt><trkpt lat="31.147005" lon="-6.3070083"><ele>1319.0</ele><time>2026-04-23T17:50:15.893Z</time></trkpt><trkpt lat="31.146915" lon="-6.30719"><ele>1320.6666666666667</ele><time>2026-04-23T17:50:16.892Z</time></trkpt><trkpt lat="31.1468233" lon="-6.30738"><ele>1322.3333333333333</ele><time>2026-04-23T17:50:17.893Z</time></trkpt><trkpt lat="31.1467217" lon="-6.3075717"><ele>1324.0</ele><time>2026-04-23T17:50:18.893Z</time></trkpt><trkpt lat="31.1466167" lon="-6.3077583"><ele>1323.6666666666665</ele><time>2026-04-23T17:50:19.893Z</time></trkpt><trkpt lat="31.1465017" lon="-6.3079417"><ele>1323.3333333333333</ele><time>2026-04-23T17:50:20.892Z</time></trkpt><trkpt lat="31.14638" lon="-6.3081133"><ele>1323.0</ele><time>2026-04-23T17:50:21.893Z</time></trkpt><trkpt lat="31.1462417" lon="-6.3082867"><ele>1323.0</ele><time>2026-04-23T17:50:22.893Z</time></trkpt><trkpt lat="31.146095" lon="-6.3084517"><ele>1323.0</ele><time>2026-04-23T17:50:23.893Z</time></trkpt><trkpt lat="31.145935" lon="-6.3086233"><ele>1323.0</ele><time>2026-04-23T17:50:24.892Z</time></trkpt><trkpt lat="31.14578" lon="-6.308795"><ele>1322.6666666666667</ele><time>2026-04-23T17:50:25.893Z</time></trkpt><trkpt lat="31.1456183" lon="-6.3089633"><ele>1322.3333333333335</ele><time>2026-04-23T17:50:26.893Z</time></trkpt><trkpt lat="31.1454467" lon="-6.3091417"><ele>1322.0</ele><time>2026-04-23T17:50:27.893Z</time></trkpt><trkpt lat="31.145275" lon="-6.3093217"><ele>1322.0</ele><time>2026-04-23T17:50:28.893Z</time></trkpt><trkpt lat="31.1451033" lon="-6.30951"><ele>1322.0</ele><time>2026-04-23T17:50:29.893Z</time></trkpt><trkpt lat="31.144915" lon="-6.309705"><ele>1324.0</ele><time>2026-04-23T17:50:30.893Z</time></trkpt><trkpt lat="31.1447267" lon="-6.3098983"><ele>1326.0</ele><time>2026-04-23T17:50:31.893Z</time></trkpt><trkpt lat="31.1445367" lon="-6.3100983"><ele>1326.0</ele><time>2026-04-23T17:50:32.893Z</time></trkpt><trkpt lat="31.144355" lon="-6.310295"><ele>1326.0</ele><time>2026-04-23T17:50:33.892Z</time></trkpt><trkpt lat="31.1441767" lon="-6.3104717"><ele>1324.3333333333333</ele><time>2026-04-23T17:50:34.893Z</time></trkpt><trkpt lat="31.14402" lon="-6.3106283"><ele>1322.6666666666665</ele><time>2026-04-23T17:50:35.893Z</time></trkpt><trkpt lat="31.1438783" lon="-6.3107817"><ele>1321.0</ele><time>2026-04-23T17:50:36.893Z</time></trkpt><trkpt lat="31.1437467" lon="-6.31092"><ele>1321.0</ele><time>2026-04-23T17:50:37.893Z</time></trkpt><trkpt lat="31.1435983" lon="-6.31107"><ele>1321.0</ele><time>2026-04-23T17:50:38.893Z</time></trkpt><trkpt lat="31.1434417" lon="-6.3112267"><ele>1321.0</ele><time>2026-04-23T17:50:39.892Z</time></trkpt><trkpt lat="31.1432883" lon="-6.3113917"><ele>1320.3333333333333</ele><time>2026-04-23T17:50:40.893Z</time></trkpt><trkpt lat="31.1431433" lon="-6.3115483"><ele>1319.6666666666667</ele><time>2026-04-23T17:50:41.893Z</time></trkpt><trkpt lat="31.142995" lon="-6.311705"><ele>1319.0</ele><time>2026-04-23T17:50:42.893Z</time></trkpt><trkpt lat="31.1428433" lon="-6.3118567"><ele>1319.0</ele><time>2026-04-23T17:50:43.893Z</time></trkpt><trkpt lat="31.1426933" lon="-6.3120167"><ele>1319.0</ele><time>2026-04-23T17:50:44.893Z</time></trkpt><trkpt lat="31.1425567" lon="-6.31217"><ele>1319.0</ele><time>2026-04-23T17:50:45.893Z</time></trkpt><trkpt lat="31.1424167" lon="-6.3123183"><ele>1318.6666666666667</ele><time>2026-04-23T17:50:46.892Z</time></trkpt><trkpt lat="31.1422767" lon="-6.3124683"><ele>1318.3333333333333</ele><time>2026-04-23T17:50:47.893Z</time></trkpt><trkpt lat="31.1421317" lon="-6.3126167"><ele>1318.0</ele><time>2026-04-23T17:50:48.893Z</time></trkpt><trkpt lat="31.1419867" lon="-6.3127567"><ele>1318.0</ele><time>2026-04-23T17:50:49.893Z</time></trkpt><trkpt lat="31.1418567" lon="-6.3128933"><ele>1318.0</ele><time>2026-04-23T17:50:50.893Z</time></trkpt><trkpt lat="31.1417317" lon="-6.31303"><ele>1318.0</ele><time>2026-04-23T17:50:51.893Z</time></trkpt><trkpt lat="31.1416" lon="-6.313165"><ele>1315.6666666666665</ele><time>2026-04-23T17:50:52.892Z</time></trkpt><trkpt lat="31.141465" lon="-6.3133133"><ele>1313.3333333333333</ele><time>2026-04-23T17:50:53.893Z</time></trkpt><trkpt lat="31.141325" lon="-6.3134567"><ele>1311.0</ele><time>2026-04-23T17:50:54.893Z</time></trkpt><trkpt lat="31.1411833" lon="-6.3135967"><ele>1311.0</ele><time>2026-04-23T17:50:55.893Z</time></trkpt><trkpt lat="31.14105" lon="-6.3137367"><ele>1311.0</ele><time>2026-04-23T17:50:56.893Z</time></trkpt><trkpt lat="31.140915" lon="-6.3138817"><ele>1311.0</ele><time>2026-04-23T17:50:57.893Z</time></trkpt><trkpt lat="31.140775" lon="-6.314025"><ele>1310.0</ele><time>2026-04-23T17:50:58.893Z</time></trkpt><trkpt lat="31.140635" lon="-6.314175"><ele>1309.0</ele><time>2026-04-23T17:50:59.893Z</time></trkpt><trkpt lat="31.1404917" lon="-6.3143367"><ele>1308.0</ele><time>2026-04-23T17:51:00.893Z</time></trkpt><trkpt lat="31.1403567" lon="-6.3144933"><ele>1308.0</ele><time>2026-04-23T17:51:01.892Z</time></trkpt><trkpt lat="31.140225" lon="-6.3146567"><ele>1308.0</ele><time>2026-04-23T17:51:02.893Z</time></trkpt><trkpt lat="31.1400983" lon="-6.3148233"><ele>1308.0</ele><time>2026-04-23T17:51:03.893Z</time></trkpt><trkpt lat="31.139975" lon="-6.3150067"><ele>1307.3333333333333</ele><time>2026-04-23T17:51:04.893Z</time></trkpt><trkpt lat="31.1398583" lon="-6.3152017"><ele>1306.6666666666665</ele><time>2026-04-23T17:51:05.893Z</time></trkpt><trkpt lat="31.1397533" lon="-6.315405"><ele>1306.0</ele><time>2026-04-23T17:51:06.893Z</time></trkpt><trkpt lat="31.1396483" lon="-6.3156117"><ele>1306.0</ele><time>2026-04-23T17:51:07.893Z</time></trkpt><trkpt lat="31.1395467" lon="-6.3158283"><ele>1306.0</ele><time>2026-04-23T17:51:08.892Z</time></trkpt><trkpt lat="31.1394517" lon="-6.3160567"><ele>1306.0</ele><time>2026-04-23T17:51:09.892Z</time></trkpt><trkpt lat="31.13936" lon="-6.316275"><ele>1305.3333333333333</ele><time>2026-04-23T17:51:10.893Z</time></trkpt><trkpt lat="31.1392683" lon="-6.3164933"><ele>1304.6666666666667</ele><time>2026-04-23T17:51:11.893Z</time></trkpt><trkpt lat="31.13918" lon="-6.31671"><ele>1304.0</ele><time>2026-04-23T17:51:12.892Z</time></trkpt><trkpt lat="31.13909" lon="-6.3169333"><ele>1304.0</ele><time>2026-04-23T17:51:13.893Z</time></trkpt><trkpt lat="31.1389883" lon="-6.3171567"><ele>1304.0</ele><time>2026-04-23T17:51:14.893Z</time></trkpt><trkpt lat="31.1388917" lon="-6.3173817"><ele>1304.0</ele><time>2026-04-23T17:51:15.893Z</time></trkpt><trkpt lat="31.13879" lon="-6.3176017"><ele>1304.0</ele><time>2026-04-23T17:51:16.893Z</time></trkpt><trkpt lat="31.1387017" lon="-6.31783"><ele>1304.0</ele><time>2026-04-23T17:51:17.893Z</time></trkpt><trkpt lat="31.1386067" lon="-6.3180567"><ele>1304.0</ele><time>2026-04-23T17:51:18.893Z</time></trkpt><trkpt lat="31.1385117" lon="-6.31828"><ele>1305.0</ele><time>2026-04-23T17:51:19.892Z</time></trkpt><trkpt lat="31.1384183" lon="-6.318505"><ele>1306.0</ele><time>2026-04-23T17:51:20.893Z</time></trkpt><trkpt lat="31.138325" lon="-6.3187333"><ele>1307.0</ele><time>2026-04-23T17:51:21.893Z</time></trkpt><trkpt lat="31.13823" lon="-6.31896"><ele>1308.3333333333335</ele><time>2026-04-23T17:51:22.893Z</time></trkpt><trkpt lat="31.1381383" lon="-6.3191917"><ele>1309.6666666666667</ele><time>2026-04-23T17:51:23.893Z</time></trkpt><trkpt lat="31.1380417" lon="-6.3194217"><ele>1311.0</ele><time>2026-04-23T17:51:24.893Z</time></trkpt><trkpt lat="31.1379483" lon="-6.3196517"><ele>1311.3333333333333</ele><time>2026-04-23T17:51:25.893Z</time></trkpt><trkpt lat="31.137845" lon="-6.31988"><ele>1311.6666666666665</ele><time>2026-04-23T17:51:26.893Z</time></trkpt><trkpt lat="31.1377517" lon="-6.3201067"><ele>1312.0</ele><time>2026-04-23T17:51:27.893Z</time></trkpt><trkpt lat="31.1376633" lon="-6.3203317"><ele>1312.0</ele><time>2026-04-23T17:51:28.892Z</time></trkpt><trkpt lat="31.1375733" lon="-6.32055"><ele>1312.0</ele><time>2026-04-23T17:51:29.893Z</time></trkpt><trkpt lat="31.1374867" lon="-6.3207583"><ele>1312.0</ele><time>2026-04-23T17:51:30.893Z</time></trkpt><trkpt lat="31.1374" lon="-6.3209733"><ele>1311.3333333333333</ele><time>2026-04-23T17:51:31.893Z</time></trkpt><trkpt lat="31.1373083" lon="-6.32118"><ele>1310.6666666666667</ele><time>2026-04-23T17:51:32.892Z</time></trkpt><trkpt lat="31.13722" lon="-6.3213933"><ele>1310.0</ele><time>2026-04-23T17:51:33.893Z</time></trkpt><trkpt lat="31.1371283" lon="-6.3216033"><ele>1310.0</ele><time>2026-04-23T17:51:34.893Z</time></trkpt><trkpt lat="31.137035" lon="-6.3218167"><ele>1310.0</ele><time>2026-04-23T17:51:35.893Z</time></trkpt><trkpt lat="31.1369467" lon="-6.3220317"><ele>1310.0</ele><time>2026-04-23T17:51:36.893Z</time></trkpt><trkpt lat="31.1368533" lon="-6.322255"><ele>1310.6666666666667</ele><time>2026-04-23T17:51:37.893Z</time></trkpt><trkpt lat="31.1367633" lon="-6.3224817"><ele>1311.3333333333333</ele><time>2026-04-23T17:51:38.892Z</time></trkpt><trkpt lat="31.1366667" lon="-6.3227017"><ele>1312.0</ele><time>2026-04-23T17:51:39.892Z</time></trkpt><trkpt lat="31.1365683" lon="-6.3229217"><ele>1313.3333333333333</ele><time>2026-04-23T17:51:40.893Z</time></trkpt><trkpt lat="31.136475" lon="-6.3231433"><ele>1314.6666666666667</ele><time>2026-04-23T17:51:41.893Z</time></trkpt><trkpt lat="31.136385" lon="-6.3233517"><ele>1316.0</ele><time>2026-04-23T17:51:42.892Z</time></trkpt><trkpt lat="31.1363017" lon="-6.3235567"><ele>1316.0</ele><time>2026-04-23T17:51:43.893Z</time></trkpt><trkpt lat="31.136215" lon="-6.3237533"><ele>1316.0</ele><time>2026-04-23T17:51:44.892Z</time></trkpt><trkpt lat="31.1361317" lon="-6.32395"><ele>1316.0</ele><time>2026-04-23T17:51:45.893Z</time></trkpt><trkpt lat="31.136045" lon="-6.3241417"><ele>1316.3333333333335</ele><time>2026-04-23T17:51:46.893Z</time></trkpt><trkpt lat="31.135965" lon="-6.3243383"><ele>1316.6666666666667</ele><time>2026-04-23T17:51:47.893Z</time></trkpt><trkpt lat="31.1358817" lon="-6.3245333"><ele>1317.0</ele><time>2026-04-23T17:51:48.892Z</time></trkpt><trkpt lat="31.1358033" lon="-6.3247267"><ele>1318.0</ele><time>2026-04-23T17:51:49.893Z</time></trkpt><trkpt lat="31.1357283" lon="-6.32491"><ele>1319.0</ele><time>2026-04-23T17:51:50.893Z</time></trkpt><trkpt lat="31.1356533" lon="-6.325095"><ele>1320.0</ele><time>2026-04-23T17:51:51.893Z</time></trkpt><trkpt lat="31.1355833" lon="-6.3252783"><ele>1320.0</ele><time>2026-04-23T17:51:52.893Z</time></trkpt><trkpt lat="31.13551" lon="-6.32546"><ele>1320.0</ele><time>2026-04-23T17:51:53.892Z</time></trkpt><trkpt lat="31.1354367" lon="-6.3256383"><ele>1320.0</ele><time>2026-04-23T17:51:54.893Z</time></trkpt><trkpt lat="31.13536" lon="-6.3258183"><ele>1320.0</ele><time>2026-04-23T17:51:55.893Z</time></trkpt><trkpt lat="31.13528" lon="-6.3260017"><ele>1320.0</ele><time>2026-04-23T17:51:56.892Z</time></trkpt><trkpt lat="31.1351983" lon="-6.32619"><ele>1320.0</ele><time>2026-04-23T17:51:57.893Z</time></trkpt><trkpt lat="31.1351167" lon="-6.326385"><ele>1319.3333333333333</ele><time>2026-04-23T17:51:58.893Z</time></trkpt><trkpt lat="31.13503" lon="-6.32658"><ele>1318.6666666666665</ele><time>2026-04-23T17:51:59.892Z</time></trkpt><trkpt lat="31.1349433" lon="-6.3267783"><ele>1318.0</ele><time>2026-04-23T17:52:00.893Z</time></trkpt><trkpt lat="31.1348667" lon="-6.3269783"><ele>1318.0</ele><time>2026-04-23T17:52:01.892Z</time></trkpt><trkpt lat="31.13479" lon="-6.3271683"><ele>1318.0</ele><time>2026-04-23T17:52:02.892Z</time></trkpt><trkpt lat="31.1347117" lon="-6.32736"><ele>1318.0</ele><time>2026-04-23T17:52:03.893Z</time></trkpt><trkpt lat="31.1346383" lon="-6.3275483"><ele>1317.6666666666665</ele><time>2026-04-23T17:52:04.893Z</time></trkpt><trkpt lat="31.134555" lon="-6.3277367"><ele>1317.3333333333333</ele><time>2026-04-23T17:52:05.893Z</time></trkpt><trkpt lat="31.13447" lon="-6.327935"><ele>1317.0</ele><time>2026-04-23T17:52:06.893Z</time></trkpt><trkpt lat="31.13439" lon="-6.3281133"><ele>1316.3333333333333</ele><time>2026-04-23T17:52:07.892Z</time></trkpt><trkpt lat="31.1343233" lon="-6.3282983"><ele>1315.6666666666665</ele><time>2026-04-23T17:52:08.893Z</time></trkpt><trkpt lat="31.1342583" lon="-6.328475"><ele>1315.0</ele><time>2026-04-23T17:52:09.893Z</time></trkpt><trkpt lat="31.1341867" lon="-6.3286467"><ele>1315.0</ele><time>2026-04-23T17:52:10.892Z</time></trkpt><trkpt lat="31.1341083" lon="-6.328825"><ele>1315.0</ele><time>2026-04-23T17:52:11.893Z</time></trkpt><trkpt lat="31.1340283" lon="-6.3290083"><ele>1315.0</ele><time>2026-04-23T17:52:12.893Z</time></trkpt><trkpt lat="31.1339517" lon="-6.3291817"><ele>1314.6666666666665</ele><time>2026-04-23T17:52:13.892Z</time></trkpt><trkpt lat="31.1338767" lon="-6.3293533"><ele>1314.3333333333333</ele><time>2026-04-23T17:52:14.892Z</time></trkpt><trkpt lat="31.1338017" lon="-6.3295233"><ele>1314.0</ele><time>2026-04-23T17:52:15.893Z</time></trkpt><trkpt lat="31.133735" lon="-6.3297"><ele>1313.3333333333333</ele><time>2026-04-23T17:52:16.893Z</time></trkpt><trkpt lat="31.1336583" lon="-6.3298567"><ele>1312.6666666666665</ele><time>2026-04-23T17:52:17.892Z</time></trkpt><trkpt lat="31.13359" lon="-6.3300183"><ele>1312.0</ele><time>2026-04-23T17:52:18.893Z</time></trkpt><trkpt lat="31.1335233" lon="-6.3301833"><ele>1312.0</ele><time>2026-04-23T17:52:19.892Z</time></trkpt><trkpt lat="31.1334533" lon="-6.3303383"><ele>1312.0</ele><time>2026-04-23T17:52:20.893Z</time></trkpt><trkpt lat="31.1333917" lon="-6.3304983"><ele>1312.0</ele><time>2026-04-23T17:52:21.893Z</time></trkpt><trkpt lat="31.1333233" lon="-6.3306383"><ele>1312.0</ele><time>2026-04-23T17:52:22.892Z</time></trkpt><trkpt lat="31.1332633" lon="-6.3307933"><ele>1311.75</ele><time>2026-04-23T17:52:23.893Z</time></trkpt><trkpt lat="31.1332" lon="-6.33095"><ele>1311.5</ele><time>2026-04-23T17:52:24.893Z</time></trkpt><trkpt lat="31.1331383" lon="-6.331105"><ele>1311.25</ele><time>2026-04-23T17:52:25.893Z</time></trkpt><trkpt lat="31.1330783" lon="-6.3312683"><ele>1311.0</ele><time>2026-04-23T17:52:26.893Z</time></trkpt><trkpt lat="31.1330117" lon="-6.3314283"><ele>1310.3333333333333</ele><time>2026-04-23T17:52:27.893Z</time></trkpt><trkpt lat="31.1329417" lon="-6.33158"><ele>1309.6666666666665</ele><time>2026-04-23T17:52:28.893Z</time></trkpt><trkpt lat="31.1328783" lon="-6.3317433"><ele>1309.0</ele><time>2026-04-23T17:52:29.893Z</time></trkpt><trkpt lat="31.1328083" lon="-6.3319067"><ele>1309.0</ele><time>2026-04-23T17:52:30.893Z</time></trkpt><trkpt lat="31.1327433" lon="-6.3320667"><ele>1309.0</ele><time>2026-04-23T17:52:31.893Z</time></trkpt><trkpt lat="31.1326717" lon="-6.33222"><ele>1309.0</ele><time>2026-04-23T17:52:32.892Z</time></trkpt><trkpt lat="31.1326133" lon="-6.3323817"><ele>1307.6666666666665</ele><time>2026-04-23T17:52:33.892Z</time></trkpt><trkpt lat="31.1325433" lon="-6.3325383"><ele>1306.3333333333333</ele><time>2026-04-23T17:52:34.893Z</time></trkpt><trkpt lat="31.132475" lon="-6.3326967"><ele>1305.0</ele><time>2026-04-23T17:52:35.893Z</time></trkpt><trkpt lat="31.13241" lon="-6.3328617"><ele>1305.25</ele><time>2026-04-23T17:52:36.893Z</time></trkpt><trkpt lat="31.1323467" lon="-6.333015"><ele>1305.5</ele><time>2026-04-23T17:52:37.893Z</time></trkpt><trkpt lat="31.1322883" lon="-6.3331633"><ele>1305.75</ele><time>2026-04-23T17:52:38.893Z</time></trkpt><trkpt lat="31.132235" lon="-6.33331"><ele>1306.0</ele><time>2026-04-23T17:52:39.893Z</time></trkpt><trkpt lat="31.13218" lon="-6.3334583"><ele>1306.0</ele><time>2026-04-23T17:52:40.892Z</time></trkpt><trkpt lat="31.1321333" lon="-6.333605"><ele>1306.0</ele><time>2026-04-23T17:52:41.893Z</time></trkpt><trkpt lat="31.13209" lon="-6.3337567"><ele>1306.0</ele><time>2026-04-23T17:52:42.893Z</time></trkpt><trkpt lat="31.13205" lon="-6.333905"><ele>1306.0</ele><time>2026-04-23T17:52:43.892Z</time></trkpt><trkpt lat="31.1320133" lon="-6.3340533"><ele>1306.75</ele><time>2026-04-23T17:52:44.893Z</time></trkpt><trkpt lat="31.1319817" lon="-6.33421"><ele>1307.5</ele><time>2026-04-23T17:52:45.893Z</time></trkpt><trkpt lat="31.1319533" lon="-6.3343667"><ele>1308.25</ele><time>2026-04-23T17:52:46.892Z</time></trkpt><trkpt lat="31.1319267" lon="-6.3345267"><ele>1309.0</ele><time>2026-04-23T17:52:47.893Z</time></trkpt><trkpt lat="31.1319" lon="-6.33469"><ele>1309.75</ele><time>2026-04-23T17:52:48.893Z</time></trkpt><trkpt lat="31.1318783" lon="-6.33485"><ele>1310.5</ele><time>2026-04-23T17:52:49.892Z</time></trkpt><trkpt lat="31.1318617" lon="-6.335015"><ele>1311.25</ele><time>2026-04-23T17:52:50.893Z</time></trkpt><trkpt lat="31.13185" lon="-6.3351883"><ele>1312.0</ele><time>2026-04-23T17:52:51.893Z</time></trkpt><trkpt lat="31.1318433" lon="-6.3353633"><ele>1312.0</ele><time>2026-04-23T17:52:52.892Z</time></trkpt><trkpt lat="31.131845" lon="-6.33555"><ele>1312.0</ele><time>2026-04-23T17:52:53.893Z</time></trkpt><trkpt lat="31.13185" lon="-6.335735"><ele>1312.0</ele><time>2026-04-23T17:52:54.892Z</time></trkpt><trkpt lat="31.1318617" lon="-6.3359183"><ele>1312.0</ele><time>2026-04-23T17:52:55.893Z</time></trkpt><trkpt lat="31.1318783" lon="-6.3361017"><ele>1312.0</ele><time>2026-04-23T17:52:56.893Z</time></trkpt><trkpt lat="31.1318983" lon="-6.3362833"><ele>1312.0</ele><time>2026-04-23T17:52:57.893Z</time></trkpt><trkpt lat="31.1319217" lon="-6.3364733"><ele>1311.6666666666665</ele><time>2026-04-23T17:52:58.893Z</time></trkpt><trkpt lat="31.131945" lon="-6.33667"><ele>1311.3333333333333</ele><time>2026-04-23T17:52:59.893Z</time></trkpt><trkpt lat="31.1319683" lon="-6.3368633"><ele>1311.0</ele><time>2026-04-23T17:53:00.892Z</time></trkpt><trkpt lat="31.131985" lon="-6.3370533"><ele>1311.25</ele><time>2026-04-23T17:53:01.893Z</time></trkpt><trkpt lat="31.1320117" lon="-6.337225"><ele>1311.5</ele><time>2026-04-23T17:53:02.893Z</time></trkpt><trkpt lat="31.1320333" lon="-6.33738"><ele>1311.75</ele><time>2026-04-23T17:53:03.893Z</time></trkpt><trkpt lat="31.1320567" lon="-6.3375233"><ele>1312.0</ele><time>2026-04-23T17:53:04.893Z</time></trkpt><trkpt lat="31.1320783" lon="-6.337655"><ele>1312.0</ele><time>2026-04-23T17:53:05.893Z</time></trkpt><trkpt lat="31.1321" lon="-6.33777"><ele>1312.0</ele><time>2026-04-23T17:53:06.893Z</time></trkpt><trkpt lat="31.132115" lon="-6.33788"><ele>1312.0</ele><time>2026-04-23T17:53:07.892Z</time></trkpt><trkpt lat="31.1321283" lon="-6.3379717"><ele>1312.0</ele><time>2026-04-23T17:53:08.892Z</time></trkpt><trkpt lat="31.1321417" lon="-6.3380467"><ele>1312.0</ele><time>2026-04-23T17:53:09.893Z</time></trkpt><trkpt lat="31.13217" lon="-6.3381533"><ele>1312.0</ele><time>2026-04-23T17:53:11.893Z</time></trkpt><trkpt lat="31.1321917" lon="-6.3382567"><ele>1312.0</ele><time>2026-04-23T17:55:02.893Z</time></trkpt><trkpt lat="31.13219" lon="-6.3384033"><ele>1312.0</ele><time>2026-04-23T17:55:04.892Z</time></trkpt><trkpt lat="31.1321933" lon="-6.3385"><ele>1312.0</ele><time>2026-04-23T17:55:05.892Z</time></trkpt><trkpt lat="31.132205" lon="-6.3386167"><ele>1312.0</ele><time>2026-04-23T17:55:06.893Z</time></trkpt><trkpt lat="31.1322217" lon="-6.3387467"><ele>1312.0</ele><time>2026-04-23T17:55:07.893Z</time></trkpt><trkpt lat="31.1322417" lon="-6.3388917"><ele>1311.75</ele><time>2026-04-23T17:55:08.893Z</time></trkpt><trkpt lat="31.1322683" lon="-6.3390533"><ele>1311.5</ele><time>2026-04-23T17:55:09.893Z</time></trkpt><trkpt lat="31.132285" lon="-6.3392117"><ele>1311.25</ele><time>2026-04-23T17:55:10.892Z</time></trkpt><trkpt lat="31.1323" lon="-6.33937"><ele>1311.0</ele><time>2026-04-23T17:55:11.893Z</time></trkpt><trkpt lat="31.1323167" lon="-6.3395267"><ele>1311.0</ele><time>2026-04-23T17:55:12.893Z</time></trkpt><trkpt lat="31.132335" lon="-6.3396983"><ele>1311.0</ele><time>2026-04-23T17:55:13.893Z</time></trkpt><trkpt lat="31.132355" lon="-6.339865"><ele>1311.0</ele><time>2026-04-23T17:55:14.893Z</time></trkpt><trkpt lat="31.1323767" lon="-6.3400433"><ele>1311.0</ele><time>2026-04-23T17:55:15.892Z</time></trkpt><trkpt lat="31.1323967" lon="-6.340235"><ele>1311.3333333333333</ele><time>2026-04-23T17:55:16.893Z</time></trkpt><trkpt lat="31.1324167" lon="-6.34043"><ele>1311.6666666666665</ele><time>2026-04-23T17:55:17.893Z</time></trkpt><trkpt lat="31.1324383" lon="-6.34063"><ele>1312.0</ele><time>2026-04-23T17:55:18.892Z</time></trkpt><trkpt lat="31.132465" lon="-6.3408417"><ele>1310.0</ele><time>2026-04-23T17:55:19.893Z</time></trkpt><trkpt lat="31.1325" lon="-6.34106"><ele>1308.0</ele><time>2026-04-23T17:55:20.892Z</time></trkpt><trkpt lat="31.1325417" lon="-6.3412767"><ele>1306.0</ele><time>2026-04-23T17:55:21.893Z</time></trkpt><trkpt lat="31.1325867" lon="-6.3414833"><ele>1305.0</ele><time>2026-04-23T17:55:22.893Z</time></trkpt><trkpt lat="31.132635" lon="-6.3416883"><ele>1304.0</ele><time>2026-04-23T17:55:23.893Z</time></trkpt><trkpt lat="31.132695" lon="-6.34188"><ele>1303.0</ele><time>2026-04-23T17:55:24.892Z</time></trkpt><trkpt lat="31.132765" lon="-6.3420717"><ele>1301.6666666666665</ele><time>2026-04-23T17:55:25.893Z</time></trkpt><trkpt lat="31.1328417" lon="-6.34225"><ele>1300.3333333333333</ele><time>2026-04-23T17:55:26.893Z</time></trkpt><trkpt lat="31.1329283" lon="-6.342425"><ele>1299.0</ele><time>2026-04-23T17:55:27.893Z</time></trkpt><trkpt lat="31.1330283" lon="-6.3425983"><ele>1299.0</ele><time>2026-04-23T17:55:28.893Z</time></trkpt><trkpt lat="31.13313" lon="-6.34277"><ele>1299.0</ele><time>2026-04-23T17:55:29.893Z</time></trkpt><trkpt lat="31.1332417" lon="-6.3429333"><ele>1299.0</ele><time>2026-04-23T17:55:30.892Z</time></trkpt><trkpt lat="31.133355" lon="-6.34309"><ele>1297.6666666666667</ele><time>2026-04-23T17:55:31.893Z</time></trkpt><trkpt lat="31.133475" lon="-6.3432533"><ele>1296.3333333333335</ele><time>2026-04-23T17:55:32.892Z</time></trkpt><trkpt lat="31.1335933" lon="-6.34343"><ele>1295.0</ele><time>2026-04-23T17:55:33.893Z</time></trkpt><trkpt lat="31.133705" lon="-6.3436233"><ele>1295.0</ele><time>2026-04-23T17:55:34.893Z</time></trkpt><trkpt lat="31.1338133" lon="-6.3438267"><ele>1295.0</ele><time>2026-04-23T17:55:35.892Z</time></trkpt><trkpt lat="31.1339117" lon="-6.3440433"><ele>1295.0</ele><time>2026-04-23T17:55:36.893Z</time></trkpt><trkpt lat="31.1340033" lon="-6.3442567"><ele>1293.0</ele><time>2026-04-23T17:55:37.893Z</time></trkpt><trkpt lat="31.1340867" lon="-6.344475"><ele>1291.0</ele><time>2026-04-23T17:55:38.893Z</time></trkpt><trkpt lat="31.1341667" lon="-6.3446967"><ele>1289.0</ele><time>2026-04-23T17:55:39.893Z</time></trkpt><trkpt lat="31.134255" lon="-6.3449183"><ele>1288.6666666666667</ele><time>2026-04-23T17:55:40.893Z</time></trkpt><trkpt lat="31.13434" lon="-6.3451417"><ele>1288.3333333333333</ele><time>2026-04-23T17:55:41.893Z</time></trkpt><trkpt lat="31.1344283" lon="-6.345375"><ele>1288.0</ele><time>2026-04-23T17:55:42.893Z</time></trkpt><trkpt lat="31.1345183" lon="-6.34561"><ele>1288.0</ele><time>2026-04-23T17:55:43.893Z</time></trkpt><trkpt lat="31.1346067" lon="-6.3458483"><ele>1288.0</ele><time>2026-04-23T17:55:44.893Z</time></trkpt><trkpt lat="31.1346967" lon="-6.346085"><ele>1288.0</ele><time>2026-04-23T17:55:45.893Z</time></trkpt><trkpt lat="31.1347883" lon="-6.3463317"><ele>1288.5</ele><time>2026-04-23T17:55:46.892Z</time></trkpt><trkpt lat="31.1348783" lon="-6.3465783"><ele>1289.0</ele><time>2026-04-23T17:55:47.893Z</time></trkpt><trkpt lat="31.1349533" lon="-6.3468217"><ele>1289.0</ele><time>2026-04-23T17:55:48.892Z</time></trkpt><trkpt lat="31.13503" lon="-6.347055"><ele>1289.0</ele><time>2026-04-23T17:55:49.893Z</time></trkpt><trkpt lat="31.135095" lon="-6.34729"><ele>1289.0</ele><time>2026-04-23T17:55:50.893Z</time></trkpt><trkpt lat="31.1351517" lon="-6.34752"><ele>1290.3333333333335</ele><time>2026-04-23T17:55:51.893Z</time></trkpt><trkpt lat="31.1351917" lon="-6.3477633"><ele>1291.6666666666667</ele><time>2026-04-23T17:55:52.893Z</time></trkpt><trkpt lat="31.13522" lon="-6.348015"><ele>1293.0</ele><time>2026-04-23T17:55:53.892Z</time></trkpt><trkpt lat="31.1352333" lon="-6.348275"><ele>1293.0</ele><time>2026-04-23T17:55:54.893Z</time></trkpt><trkpt lat="31.135225" lon="-6.3485433"><ele>1293.0</ele><time>2026-04-23T17:55:55.893Z</time></trkpt><trkpt lat="31.1351967" lon="-6.3488083"><ele>1293.3333333333333</ele><time>2026-04-23T17:55:56.893Z</time></trkpt><trkpt lat="31.135145" lon="-6.349065"><ele>1293.6666666666665</ele><time>2026-04-23T17:55:57.893Z</time></trkpt><trkpt lat="31.1350733" lon="-6.34931"><ele>1294.0</ele><time>2026-04-23T17:55:58.893Z</time></trkpt><trkpt lat="31.1349867" lon="-6.349545"><ele>1294.6666666666665</ele><time>2026-04-23T17:55:59.893Z</time></trkpt><trkpt lat="31.13489" lon="-6.3497667"><ele>1295.3333333333333</ele><time>2026-04-23T17:56:00.893Z</time></trkpt><trkpt lat="31.1347833" lon="-6.34997"><ele>1296.0</ele><time>2026-04-23T17:56:01.893Z</time></trkpt><trkpt lat="31.134675" lon="-6.3501633"><ele>1296.6666666666667</ele><time>2026-04-23T17:56:02.892Z</time></trkpt><trkpt lat="31.13455" lon="-6.3503433"><ele>1297.3333333333335</ele><time>2026-04-23T17:56:03.892Z</time></trkpt><trkpt lat="31.1344117" lon="-6.3505133"><ele>1298.0</ele><time>2026-04-23T17:56:04.893Z</time></trkpt><trkpt lat="31.1342683" lon="-6.35067"><ele>1298.0</ele><time>2026-04-23T17:56:05.893Z</time></trkpt><trkpt lat="31.13412" lon="-6.35082"><ele>1298.0</ele><time>2026-04-23T17:56:06.892Z</time></trkpt><trkpt lat="31.1339833" lon="-6.350965"><ele>1298.0</ele><time>2026-04-23T17:56:07.892Z</time></trkpt><trkpt lat="31.13385" lon="-6.3511167"><ele>1298.3333333333335</ele><time>2026-04-23T17:56:08.892Z</time></trkpt><trkpt lat="31.133715" lon="-6.3512633"><ele>1298.6666666666667</ele><time>2026-04-23T17:56:09.893Z</time></trkpt><trkpt lat="31.1335783" lon="-6.3514167"><ele>1299.0</ele><time>2026-04-23T17:56:10.893Z</time></trkpt><trkpt lat="31.1334367" lon="-6.3515717"><ele>1299.3333333333333</ele><time>2026-04-23T17:56:11.893Z</time></trkpt><trkpt lat="31.1332967" lon="-6.351725"><ele>1299.6666666666665</ele><time>2026-04-23T17:56:12.893Z</time></trkpt><trkpt lat="31.133145" lon="-6.3518817"><ele>1300.0</ele><time>2026-04-23T17:56:13.893Z</time></trkpt><trkpt lat="31.1329917" lon="-6.3520417"><ele>1300.0</ele><time>2026-04-23T17:56:14.893Z</time></trkpt><trkpt lat="31.1328383" lon="-6.352205"><ele>1300.0</ele><time>2026-04-23T17:56:15.893Z</time></trkpt><trkpt lat="31.1326867" lon="-6.35237"><ele>1300.0</ele><time>2026-04-23T17:56:16.893Z</time></trkpt><trkpt lat="31.13253" lon="-6.35254"><ele>1299.0</ele><time>2026-04-23T17:56:17.893Z</time></trkpt><trkpt lat="31.1323717" lon="-6.3527067"><ele>1298.0</ele><time>2026-04-23T17:56:18.893Z</time></trkpt><trkpt lat="31.13221" lon="-6.3528833"><ele>1297.0</ele><time>2026-04-23T17:56:19.893Z</time></trkpt><trkpt lat="31.132045" lon="-6.353055"><ele>1297.0</ele><time>2026-04-23T17:56:20.893Z</time></trkpt><trkpt lat="31.13189" lon="-6.3532267"><ele>1297.0</ele><time>2026-04-23T17:56:21.893Z</time></trkpt><trkpt lat="31.131735" lon="-6.3534"><ele>1297.0</ele><time>2026-04-23T17:56:22.893Z</time></trkpt><trkpt lat="31.13158" lon="-6.3535683"><ele>1297.3333333333333</ele><time>2026-04-23T17:56:23.892Z</time></trkpt><trkpt lat="31.13143" lon="-6.3537367"><ele>1297.6666666666667</ele><time>2026-04-23T17:56:24.893Z</time></trkpt><trkpt lat="31.1312833" lon="-6.3539017"><ele>1298.0</ele><time>2026-04-23T17:56:25.893Z</time></trkpt><trkpt lat="31.13114" lon="-6.354055"><ele>1298.0</ele><time>2026-04-23T17:56:26.893Z</time></trkpt><trkpt lat="31.131005" lon="-6.3542067"><ele>1298.0</ele><time>2026-04-23T17:56:27.893Z</time></trkpt><trkpt lat="31.1308667" lon="-6.3543633"><ele>1298.0</ele><time>2026-04-23T17:56:28.893Z</time></trkpt><trkpt lat="31.1307233" lon="-6.3545167"><ele>1298.0</ele><time>2026-04-23T17:56:29.892Z</time></trkpt><trkpt lat="31.1305833" lon="-6.3546767"><ele>1298.0</ele><time>2026-04-23T17:56:30.892Z</time></trkpt><trkpt lat="31.1304283" lon="-6.354825"><ele>1298.0</ele><time>2026-04-23T17:56:31.892Z</time></trkpt><trkpt lat="31.130265" lon="-6.3549733"><ele>1298.3333333333335</ele><time>2026-04-23T17:56:32.893Z</time></trkpt><trkpt lat="31.1300967" lon="-6.3551233"><ele>1298.6666666666667</ele><time>2026-04-23T17:56:33.893Z</time></trkpt><trkpt lat="31.1299217" lon="-6.3552783"><ele>1299.0</ele><time>2026-04-23T17:56:34.893Z</time></trkpt><trkpt lat="31.1297517" lon="-6.35542"><ele>1299.0</ele><time>2026-04-23T17:56:35.893Z</time></trkpt><trkpt lat="31.129585" lon="-6.3555583"><ele>1299.0</ele><time>2026-04-23T17:56:36.893Z</time></trkpt><trkpt lat="31.1294283" lon="-6.35569"><ele>1299.0</ele><time>2026-04-23T17:56:37.892Z</time></trkpt><trkpt lat="31.1292783" lon="-6.3558133"><ele>1299.0</ele><time>2026-04-23T17:56:38.892Z</time></trkpt><trkpt lat="31.12913" lon="-6.35594"><ele>1299.0</ele><time>2026-04-23T17:56:39.892Z</time></trkpt><trkpt lat="31.1289867" lon="-6.3560617"><ele>1299.0</ele><time>2026-04-23T17:56:40.892Z</time></trkpt><trkpt lat="31.1288367" lon="-6.3561917"><ele>1299.0</ele><time>2026-04-23T17:56:41.891Z</time></trkpt><trkpt lat="31.1286917" lon="-6.3563233"><ele>1299.0</ele><time>2026-04-23T17:56:42.892Z</time></trkpt><trkpt lat="31.12854" lon="-6.356455"><ele>1299.0</ele><time>2026-04-23T17:56:43.892Z</time></trkpt><trkpt lat="31.128385" lon="-6.3565933"><ele>1299.0</ele><time>2026-04-23T17:56:44.891Z</time></trkpt><trkpt lat="31.1282267" lon="-6.3567183"><ele>1299.0</ele><time>2026-04-23T17:56:45.892Z</time></trkpt><trkpt lat="31.1280633" lon="-6.3568517"><ele>1299.0</ele><time>2026-04-23T17:56:46.892Z</time></trkpt><trkpt lat="31.1279" lon="-6.3569867"><ele>1299.0</ele><time>2026-04-23T17:56:47.892Z</time></trkpt><trkpt lat="31.1277417" lon="-6.3571283"><ele>1299.0</ele><time>2026-04-23T17:56:48.891Z</time></trkpt><trkpt lat="31.1275883" lon="-6.357275"><ele>1299.0</ele><time>2026-04-23T17:56:49.892Z</time></trkpt><trkpt lat="31.1274317" lon="-6.35743"><ele>1297.3333333333333</ele><time>2026-04-23T17:56:50.892Z</time></trkpt><trkpt lat="31.12728" lon="-6.35759"><ele>1295.6666666666665</ele><time>2026-04-23T17:56:51.892Z</time></trkpt><trkpt lat="31.1271317" lon="-6.3577483"><ele>1294.0</ele><time>2026-04-23T17:56:52.892Z</time></trkpt><trkpt lat="31.12699" lon="-6.35792"><ele>1293.0</ele><time>2026-04-23T17:56:53.892Z</time></trkpt><trkpt lat="31.12684" lon="-6.3580883"><ele>1292.0</ele><time>2026-04-23T17:56:54.891Z</time></trkpt><trkpt lat="31.1266967" lon="-6.3582533"><ele>1291.0</ele><time>2026-04-23T17:56:55.892Z</time></trkpt><trkpt lat="31.1265533" lon="-6.3584267"><ele>1291.0</ele><time>2026-04-23T17:56:56.892Z</time></trkpt><trkpt lat="31.126405" lon="-6.3586083"><ele>1291.0</ele><time>2026-04-23T17:56:57.891Z</time></trkpt><trkpt lat="31.12625" lon="-6.3588033"><ele>1291.0</ele><time>2026-04-23T17:56:58.892Z</time></trkpt><trkpt lat="31.1260867" lon="-6.359"><ele>1290.5</ele><time>2026-04-23T17:56:59.892Z</time></trkpt><trkpt lat="31.1259133" lon="-6.3592033"><ele>1290.0</ele><time>2026-04-23T17:57:00.892Z</time></trkpt><trkpt lat="31.1257383" lon="-6.3594033"><ele>1290.5</ele><time>2026-04-23T17:57:01.892Z</time></trkpt><trkpt lat="31.1255683" lon="-6.3596133"><ele>1291.0</ele><time>2026-04-23T17:57:02.892Z</time></trkpt><trkpt lat="31.1254017" lon="-6.3598183"><ele>1293.5</ele><time>2026-04-23T17:57:03.891Z</time></trkpt><trkpt lat="31.1252317" lon="-6.360025"><ele>1296.0</ele><time>2026-04-23T17:57:04.892Z</time></trkpt><trkpt lat="31.1250533" lon="-6.3602317"><ele>1295.5</ele><time>2026-04-23T17:57:05.892Z</time></trkpt><trkpt lat="31.1248783" lon="-6.3604417"><ele>1295.0</ele><time>2026-04-23T17:57:06.892Z</time></trkpt><trkpt lat="31.1247117" lon="-6.3606367"><ele>1295.0</ele><time>2026-04-23T17:57:07.892Z</time></trkpt><trkpt lat="31.1245533" lon="-6.3608433"><ele>1295.0</ele><time>2026-04-23T17:57:08.891Z</time></trkpt><trkpt lat="31.1243883" lon="-6.3610483"><ele>1295.0</ele><time>2026-04-23T17:57:09.892Z</time></trkpt><trkpt lat="31.12423" lon="-6.3612533"><ele>1295.0</ele><time>2026-04-23T17:57:10.891Z</time></trkpt><trkpt lat="31.12408" lon="-6.3614367"><ele>1295.6666666666667</ele><time>2026-04-23T17:57:11.892Z</time></trkpt><trkpt lat="31.12393" lon="-6.36161"><ele>1296.3333333333333</ele><time>2026-04-23T17:57:12.892Z</time></trkpt><trkpt lat="31.12378" lon="-6.361785"><ele>1297.0</ele><time>2026-04-23T17:57:13.892Z</time></trkpt><trkpt lat="31.1236333" lon="-6.3619617"><ele>1297.0</ele><time>2026-04-23T17:57:14.891Z</time></trkpt><trkpt lat="31.1234983" lon="-6.3621333"><ele>1297.0</ele><time>2026-04-23T17:57:15.891Z</time></trkpt><trkpt lat="31.12337" lon="-6.362305"><ele>1297.0</ele><time>2026-04-23T17:57:16.892Z</time></trkpt><trkpt lat="31.123235" lon="-6.3624683"><ele>1297.6666666666665</ele><time>2026-04-23T17:57:17.891Z</time></trkpt><trkpt lat="31.123095" lon="-6.3626317"><ele>1298.3333333333333</ele><time>2026-04-23T17:57:18.892Z</time></trkpt><trkpt lat="31.1229517" lon="-6.3628017"><ele>1299.0</ele><time>2026-04-23T17:57:19.892Z</time></trkpt><trkpt lat="31.1228067" lon="-6.3629667"><ele>1299.3333333333333</ele><time>2026-04-23T17:57:20.892Z</time></trkpt><trkpt lat="31.12266" lon="-6.36314"><ele>1299.6666666666665</ele><time>2026-04-23T17:57:21.892Z</time></trkpt><trkpt lat="31.1225117" lon="-6.3633217"><ele>1300.0</ele><time>2026-04-23T17:57:22.892Z</time></trkpt><trkpt lat="31.1223583" lon="-6.3635083"><ele>1299.0</ele><time>2026-04-23T17:57:23.891Z</time></trkpt><trkpt lat="31.1222033" lon="-6.3636917"><ele>1298.0</ele><time>2026-04-23T17:57:24.892Z</time></trkpt><trkpt lat="31.122055" lon="-6.3638717"><ele>1297.0</ele><time>2026-04-23T17:57:25.892Z</time></trkpt><trkpt lat="31.1219067" lon="-6.3640533"><ele>1296.3333333333333</ele><time>2026-04-23T17:57:26.891Z</time></trkpt><trkpt lat="31.121765" lon="-6.364225"><ele>1295.6666666666667</ele><time>2026-04-23T17:57:27.892Z</time></trkpt><trkpt lat="31.12162" lon="-6.36439"><ele>1295.0</ele><time>2026-04-23T17:57:28.891Z</time></trkpt><trkpt lat="31.1214767" lon="-6.3645667"><ele>1293.6666666666667</ele><time>2026-04-23T17:57:29.891Z</time></trkpt><trkpt lat="31.1213317" lon="-6.364745"><ele>1292.3333333333333</ele><time>2026-04-23T17:57:30.892Z</time></trkpt><trkpt lat="31.1211783" lon="-6.3649267"><ele>1291.0</ele><time>2026-04-23T17:57:31.892Z</time></trkpt><trkpt lat="31.1210283" lon="-6.36511"><ele>1291.0</ele><time>2026-04-23T17:57:32.892Z</time></trkpt><trkpt lat="31.1208883" lon="-6.365275"><ele>1291.0</ele><time>2026-04-23T17:57:33.892Z</time></trkpt><trkpt lat="31.120755" lon="-6.3654283"><ele>1291.0</ele><time>2026-04-23T17:57:34.892Z</time></trkpt><trkpt lat="31.1206333" lon="-6.3655817"><ele>1289.75</ele><time>2026-04-23T17:57:35.892Z</time></trkpt><trkpt lat="31.120525" lon="-6.3657167"><ele>1288.5</ele><time>2026-04-23T17:57:36.891Z</time></trkpt><trkpt lat="31.1204283" lon="-6.3658383"><ele>1287.25</ele><time>2026-04-23T17:57:37.891Z</time></trkpt><trkpt lat="31.12035" lon="-6.3659433"><ele>1286.0</ele><time>2026-04-23T17:57:38.892Z</time></trkpt><trkpt lat="31.1202833" lon="-6.36604"><ele>1286.0</ele><time>2026-04-23T17:57:39.891Z</time></trkpt><trkpt lat="31.12023" lon="-6.36614"><ele>1286.0</ele><time>2026-04-23T17:57:40.892Z</time></trkpt><trkpt lat="31.1201833" lon="-6.366245"><ele>1286.0</ele><time>2026-04-23T17:57:41.891Z</time></trkpt><trkpt lat="31.1201333" lon="-6.3663583"><ele>1286.0</ele><time>2026-04-23T17:57:42.892Z</time></trkpt><trkpt lat="31.1200767" lon="-6.3664867"><ele>1286.0</ele><time>2026-04-23T17:57:43.892Z</time></trkpt><trkpt lat="31.1200067" lon="-6.3666133"><ele>1285.5</ele><time>2026-04-23T17:57:44.892Z</time></trkpt><trkpt lat="31.1199267" lon="-6.3667317"><ele>1285.0</ele><time>2026-04-23T17:57:45.891Z</time></trkpt><trkpt lat="31.1198483" lon="-6.3668417"><ele>1284.5</ele><time>2026-04-23T17:57:46.892Z</time></trkpt><trkpt lat="31.1197717" lon="-6.366945"><ele>1284.0</ele><time>2026-04-23T17:57:47.892Z</time></trkpt><trkpt lat="31.1197" lon="-6.36705"><ele>1284.0</ele><time>2026-04-23T17:57:48.892Z</time></trkpt><trkpt lat="31.119625" lon="-6.3671383"><ele>1284.0</ele><time>2026-04-23T17:57:49.891Z</time></trkpt><trkpt lat="31.119555" lon="-6.367215"><ele>1284.0</ele><time>2026-04-23T17:57:50.891Z</time></trkpt><trkpt lat="31.1194817" lon="-6.3672767"><ele>1284.0</ele><time>2026-04-23T17:57:51.891Z</time></trkpt><trkpt lat="31.11942" lon="-6.36731"><ele>1284.0</ele><time>2026-04-23T17:57:52.891Z</time></trkpt><trkpt lat="31.11932" lon="-6.36734"><ele>1284.0</ele><time>2026-04-23T17:57:54.891Z</time></trkpt><trkpt lat="31.1192283" lon="-6.3673617"><ele>1284.0</ele><time>2026-04-23T17:57:56.892Z</time></trkpt><trkpt lat="31.119165" lon="-6.3673883"><ele>1284.0</ele><time>2026-04-23T17:57:57.892Z</time></trkpt><trkpt lat="31.1190967" lon="-6.3674433"><ele>1284.0</ele><time>2026-04-23T17:57:58.891Z</time></trkpt><trkpt lat="31.1190217" lon="-6.36752"><ele>1284.0</ele><time>2026-04-23T17:57:59.892Z</time></trkpt><trkpt lat="31.1189383" lon="-6.3676167"><ele>1284.0</ele><time>2026-04-23T17:58:00.892Z</time></trkpt><trkpt lat="31.11884" lon="-6.36774"><ele>1284.0</ele><time>2026-04-23T17:58:01.892Z</time></trkpt><trkpt lat="31.11873" lon="-6.3678783"><ele>1284.0</ele><time>2026-04-23T17:58:02.892Z</time></trkpt><trkpt lat="31.1186117" lon="-6.3680283"><ele>1284.3333333333333</ele><time>2026-04-23T17:58:03.892Z</time></trkpt><trkpt lat="31.11849" lon="-6.3681817"><ele>1284.6666666666665</ele><time>2026-04-23T17:58:04.891Z</time></trkpt><trkpt lat="31.1183533" lon="-6.3683483"><ele>1285.0</ele><time>2026-04-23T17:58:05.891Z</time></trkpt><trkpt lat="31.11821" lon="-6.3685117"><ele>1284.6666666666665</ele><time>2026-04-23T17:58:06.892Z</time></trkpt><trkpt lat="31.1180783" lon="-6.3686683"><ele>1284.3333333333333</ele><time>2026-04-23T17:58:07.892Z</time></trkpt><trkpt lat="31.11795" lon="-6.3688283"><ele>1284.0</ele><time>2026-04-23T17:58:08.892Z</time></trkpt><trkpt lat="31.1178317" lon="-6.3689717"><ele>1284.0</ele><time>2026-04-23T17:58:09.892Z</time></trkpt><trkpt lat="31.1177183" lon="-6.3691183"><ele>1284.0</ele><time>2026-04-23T17:58:10.891Z</time></trkpt><trkpt lat="31.1176017" lon="-6.3692583"><ele>1284.0</ele><time>2026-04-23T17:58:11.892Z</time></trkpt><trkpt lat="31.1174833" lon="-6.3693983"><ele>1284.6666666666667</ele><time>2026-04-23T17:58:12.892Z</time></trkpt><trkpt lat="31.117365" lon="-6.3695417"><ele>1285.3333333333335</ele><time>2026-04-23T17:58:13.892Z</time></trkpt><trkpt lat="31.117245" lon="-6.369685"><ele>1286.0</ele><time>2026-04-23T17:58:14.892Z</time></trkpt><trkpt lat="31.1171233" lon="-6.3698217"><ele>1286.0</ele><time>2026-04-23T17:58:15.892Z</time></trkpt><trkpt lat="31.1170033" lon="-6.3699683"><ele>1286.0</ele><time>2026-04-23T17:58:16.891Z</time></trkpt><trkpt lat="31.116885" lon="-6.3701117"><ele>1286.0</ele><time>2026-04-23T17:58:17.891Z</time></trkpt><trkpt lat="31.11677" lon="-6.3702533"><ele>1286.0</ele><time>2026-04-23T17:58:18.892Z</time></trkpt><trkpt lat="31.11665" lon="-6.3703917"><ele>1286.0</ele><time>2026-04-23T17:58:19.892Z</time></trkpt><trkpt lat="31.11654" lon="-6.3705317"><ele>1286.0</ele><time>2026-04-23T17:58:20.892Z</time></trkpt><trkpt lat="31.1164317" lon="-6.370675"><ele>1286.3333333333335</ele><time>2026-04-23T17:58:21.891Z</time></trkpt><trkpt lat="31.1163167" lon="-6.3708117"><ele>1286.6666666666667</ele><time>2026-04-23T17:58:22.892Z</time></trkpt><trkpt lat="31.1162" lon="-6.37095"><ele>1287.0</ele><time>2026-04-23T17:58:23.892Z</time></trkpt><trkpt lat="31.1160767" lon="-6.371085"><ele>1287.0</ele><time>2026-04-23T17:58:24.892Z</time></trkpt><trkpt lat="31.11596" lon="-6.37123"><ele>1287.0</ele><time>2026-04-23T17:58:25.891Z</time></trkpt><trkpt lat="31.115845" lon="-6.3713717"><ele>1287.0</ele><time>2026-04-23T17:58:26.892Z</time></trkpt><trkpt lat="31.11573" lon="-6.3715067"><ele>1288.0</ele><time>2026-04-23T17:58:27.892Z</time></trkpt><trkpt lat="31.1156133" lon="-6.371645"><ele>1289.0</ele><time>2026-04-23T17:58:28.892Z</time></trkpt><trkpt lat="31.11549" lon="-6.3717767"><ele>1290.0</ele><time>2026-04-23T17:58:29.892Z</time></trkpt><trkpt lat="31.115365" lon="-6.37191"><ele>1290.0</ele><time>2026-04-23T17:58:30.892Z</time></trkpt><trkpt lat="31.1152367" lon="-6.3720367"><ele>1290.0</ele><time>2026-04-23T17:58:31.892Z</time></trkpt><trkpt lat="31.1151017" lon="-6.3721617"><ele>1290.0</ele><time>2026-04-23T17:58:32.891Z</time></trkpt><trkpt lat="31.1149617" lon="-6.3722717"><ele>1291.0</ele><time>2026-04-23T17:58:33.892Z</time></trkpt><trkpt lat="31.11481" lon="-6.3723783"><ele>1292.0</ele><time>2026-04-23T17:58:34.891Z</time></trkpt><trkpt lat="31.11466" lon="-6.3724783"><ele>1293.0</ele><time>2026-04-23T17:58:35.892Z</time></trkpt><trkpt lat="31.1145117" lon="-6.3725783"><ele>1293.0</ele><time>2026-04-23T17:58:36.892Z</time></trkpt><trkpt lat="31.1143617" lon="-6.3726667"><ele>1293.0</ele><time>2026-04-23T17:58:37.891Z</time></trkpt><trkpt lat="31.114205" lon="-6.3727467"><ele>1293.0</ele><time>2026-04-23T17:58:38.892Z</time></trkpt><trkpt lat="31.11405" lon="-6.372825"><ele>1292.6666666666667</ele><time>2026-04-23T17:58:39.892Z</time></trkpt><trkpt lat="31.113895" lon="-6.3729117"><ele>1292.3333333333335</ele><time>2026-04-23T17:58:40.892Z</time></trkpt><trkpt lat="31.1137367" lon="-6.3729983"><ele>1292.0</ele><time>2026-04-23T17:58:41.892Z</time></trkpt><trkpt lat="31.1135833" lon="-6.3730817"><ele>1292.0</ele><time>2026-04-23T17:58:42.892Z</time></trkpt><trkpt lat="31.1134333" lon="-6.3731667"><ele>1292.0</ele><time>2026-04-23T17:58:43.892Z</time></trkpt><trkpt lat="31.11328" lon="-6.373245"><ele>1292.0</ele><time>2026-04-23T17:58:44.892Z</time></trkpt><trkpt lat="31.1131283" lon="-6.37333"><ele>1292.3333333333335</ele><time>2026-04-23T17:58:45.891Z</time></trkpt><trkpt lat="31.1129767" lon="-6.3734167"><ele>1292.6666666666667</ele><time>2026-04-23T17:58:46.891Z</time></trkpt><trkpt lat="31.1128217" lon="-6.3735017"><ele>1293.0</ele><time>2026-04-23T17:58:47.892Z</time></trkpt><trkpt lat="31.1126667" lon="-6.3735917"><ele>1293.0</ele><time>2026-04-23T17:58:48.892Z</time></trkpt><trkpt lat="31.1125167" lon="-6.373675"><ele>1293.0</ele><time>2026-04-23T17:58:49.892Z</time></trkpt><trkpt lat="31.11237" lon="-6.37376"><ele>1293.0</ele><time>2026-04-23T17:58:50.892Z</time></trkpt><trkpt lat="31.1122217" lon="-6.373845"><ele>1294.0</ele><time>2026-04-23T17:58:51.891Z</time></trkpt><trkpt lat="31.1120783" lon="-6.3739283"><ele>1295.0</ele><time>2026-04-23T17:58:52.892Z</time></trkpt><trkpt lat="31.11193" lon="-6.3740133"><ele>1296.0</ele><time>2026-04-23T17:58:53.891Z</time></trkpt><trkpt lat="31.1117833" lon="-6.3740967"><ele>1296.0</ele><time>2026-04-23T17:58:54.891Z</time></trkpt><trkpt lat="31.1116383" lon="-6.3741833"><ele>1296.0</ele><time>2026-04-23T17:58:55.892Z</time></trkpt><trkpt lat="31.1114883" lon="-6.3742667"><ele>1296.0</ele><time>2026-04-23T17:58:56.892Z</time></trkpt><trkpt lat="31.11134" lon="-6.37435"><ele>1295.6666666666667</ele><time>2026-04-23T17:58:57.892Z</time></trkpt><trkpt lat="31.11119" lon="-6.3744367"><ele>1295.3333333333335</ele><time>2026-04-23T17:58:58.892Z</time></trkpt><trkpt lat="31.1110317" lon="-6.374525"><ele>1295.0</ele><time>2026-04-23T17:58:59.892Z</time></trkpt><trkpt lat="31.1108717" lon="-6.374615"><ele>1296.6666666666667</ele><time>2026-04-23T17:59:00.892Z</time></trkpt><trkpt lat="31.1106883" lon="-6.3747133"><ele>1298.3333333333333</ele><time>2026-04-23T17:59:01.891Z</time></trkpt><trkpt lat="31.1104983" lon="-6.37482"><ele>1300.0</ele><time>2026-04-23T17:59:02.891Z</time></trkpt><trkpt lat="31.1103017" lon="-6.3749283"><ele>1300.0</ele><time>2026-04-23T17:59:03.891Z</time></trkpt><trkpt lat="31.1101033" lon="-6.375035"><ele>1300.0</ele><time>2026-04-23T17:59:04.892Z</time></trkpt><trkpt lat="31.1099" lon="-6.375145"><ele>1300.0</ele><time>2026-04-23T17:59:05.892Z</time></trkpt><trkpt lat="31.1096967" lon="-6.3752483"><ele>1300.0</ele><time>2026-04-23T17:59:06.892Z</time></trkpt><trkpt lat="31.1094983" lon="-6.3753467"><ele>1300.0</ele><time>2026-04-23T17:59:07.891Z</time></trkpt><trkpt lat="31.10931" lon="-6.3754683"><ele>1300.0</ele><time>2026-04-23T17:59:08.892Z</time></trkpt><trkpt lat="31.1091283" lon="-6.3755883"><ele>1299.0</ele><time>2026-04-23T17:59:09.892Z</time></trkpt><trkpt lat="31.1089583" lon="-6.3757167"><ele>1298.0</ele><time>2026-04-23T17:59:10.891Z</time></trkpt><trkpt lat="31.1087917" lon="-6.375865"><ele>1297.0</ele><time>2026-04-23T17:59:11.892Z</time></trkpt><trkpt lat="31.1086317" lon="-6.3760317"><ele>1297.0</ele><time>2026-04-23T17:59:12.892Z</time></trkpt><trkpt lat="31.1084833" lon="-6.3762217"><ele>1297.0</ele><time>2026-04-23T17:59:13.892Z</time></trkpt><trkpt lat="31.1083383" lon="-6.376435"><ele>1296.5</ele><time>2026-04-23T17:59:14.892Z</time></trkpt><trkpt lat="31.1081967" lon="-6.3766633"><ele>1296.0</ele><time>2026-04-23T17:59:15.891Z</time></trkpt><trkpt lat="31.1080733" lon="-6.3769017"><ele>1296.0</ele><time>2026-04-23T17:59:16.892Z</time></trkpt><trkpt lat="31.107975" lon="-6.3771533"><ele>1296.0</ele><time>2026-04-23T17:59:17.891Z</time></trkpt><trkpt lat="31.107895" lon="-6.3774183"><ele>1297.5</ele><time>2026-04-23T17:59:18.892Z</time></trkpt><trkpt lat="31.107825" lon="-6.377685"><ele>1299.0</ele><time>2026-04-23T17:59:19.891Z</time></trkpt><trkpt lat="31.1077617" lon="-6.37795"><ele>1299.6666666666667</ele><time>2026-04-23T17:59:20.891Z</time></trkpt><trkpt lat="31.1077" lon="-6.3782"><ele>1300.3333333333335</ele><time>2026-04-23T17:59:21.892Z</time></trkpt><trkpt lat="31.1076467" lon="-6.3784367"><ele>1301.0</ele><time>2026-04-23T17:59:22.891Z</time></trkpt><trkpt lat="31.1075983" lon="-6.378665"><ele>1302.6666666666667</ele><time>2026-04-23T17:59:23.892Z</time></trkpt><trkpt lat="31.1075617" lon="-6.3788917"><ele>1304.3333333333333</ele><time>2026-04-23T17:59:24.892Z</time></trkpt><trkpt lat="31.10754" lon="-6.379135"><ele>1306.0</ele><time>2026-04-23T17:59:25.891Z</time></trkpt><trkpt lat="31.107535" lon="-6.3793883"><ele>1306.0</ele><time>2026-04-23T17:59:26.892Z</time></trkpt><trkpt lat="31.10754" lon="-6.3796417"><ele>1306.0</ele><time>2026-04-23T17:59:27.892Z</time></trkpt><trkpt lat="31.1075633" lon="-6.3798883"><ele>1306.0</ele><time>2026-04-23T17:59:28.892Z</time></trkpt><trkpt lat="31.1076067" lon="-6.38014"><ele>1306.5</ele><time>2026-04-23T17:59:29.892Z</time></trkpt><trkpt lat="31.1076667" lon="-6.38039"><ele>1307.0</ele><time>2026-04-23T17:59:30.891Z</time></trkpt><trkpt lat="31.1077483" lon="-6.3806467"><ele>1305.0</ele><time>2026-04-23T17:59:31.892Z</time></trkpt><trkpt lat="31.1078367" lon="-6.3809067"><ele>1303.0</ele><time>2026-04-23T17:59:32.892Z</time></trkpt><trkpt lat="31.1079367" lon="-6.3811633"><ele>1301.5</ele><time>2026-04-23T17:59:33.892Z</time></trkpt><trkpt lat="31.108045" lon="-6.381415"><ele>1300.0</ele><time>2026-04-23T17:59:34.892Z</time></trkpt><trkpt lat="31.1081517" lon="-6.3816667"><ele>1302.5</ele><time>2026-04-23T17:59:35.891Z</time></trkpt><trkpt lat="31.1082567" lon="-6.3819183"><ele>1305.0</ele><time>2026-04-23T17:59:36.892Z</time></trkpt><trkpt lat="31.1083583" lon="-6.38217"><ele>1304.5</ele><time>2026-04-23T17:59:37.892Z</time></trkpt><trkpt lat="31.1084617" lon="-6.3824183"><ele>1304.0</ele><time>2026-04-23T17:59:38.891Z</time></trkpt><trkpt lat="31.1085667" lon="-6.3826633"><ele>1304.0</ele><time>2026-04-23T17:59:39.892Z</time></trkpt><trkpt lat="31.1086733" lon="-6.3829083"><ele>1304.0</ele><time>2026-04-23T17:59:40.891Z</time></trkpt><trkpt lat="31.1087817" lon="-6.3831483"><ele>1303.5</ele><time>2026-04-23T17:59:41.892Z</time></trkpt><trkpt lat="31.1088883" lon="-6.3833883"><ele>1303.0</ele><time>2026-04-23T17:59:42.892Z</time></trkpt><trkpt lat="31.1089917" lon="-6.38362"><ele>1304.3333333333333</ele><time>2026-04-23T17:59:43.891Z</time></trkpt><trkpt lat="31.1090833" lon="-6.3838433"><ele>1305.6666666666667</ele><time>2026-04-23T17:59:44.891Z</time></trkpt><trkpt lat="31.1091733" lon="-6.384065"><ele>1307.0</ele><time>2026-04-23T17:59:45.892Z</time></trkpt><trkpt lat="31.1092683" lon="-6.3842733"><ele>1307.0</ele><time>2026-04-23T17:59:46.891Z</time></trkpt><trkpt lat="31.10935" lon="-6.3844733"><ele>1307.0</ele><time>2026-04-23T17:59:47.892Z</time></trkpt><trkpt lat="31.10944" lon="-6.3846917"><ele>1307.0</ele><time>2026-04-23T17:59:48.892Z</time></trkpt><trkpt lat="31.1095367" lon="-6.384905"><ele>1307.0</ele><time>2026-04-23T17:59:49.892Z</time></trkpt><trkpt lat="31.1096267" lon="-6.3851267"><ele>1307.0</ele><time>2026-04-23T17:59:50.892Z</time></trkpt><trkpt lat="31.109715" lon="-6.3853483"><ele>1307.0</ele><time>2026-04-23T17:59:51.891Z</time></trkpt><trkpt lat="31.10981" lon="-6.38557"><ele>1307.3333333333335</ele><time>2026-04-23T17:59:52.891Z</time></trkpt><trkpt lat="31.1099067" lon="-6.38579"><ele>1307.6666666666667</ele><time>2026-04-23T17:59:53.892Z</time></trkpt><trkpt lat="31.110005" lon="-6.3860117"><ele>1308.0</ele><time>2026-04-23T17:59:54.892Z</time></trkpt><trkpt lat="31.1101067" lon="-6.3862333"><ele>1307.0</ele><time>2026-04-23T17:59:55.892Z</time></trkpt><trkpt lat="31.1102017" lon="-6.3864583"><ele>1306.0</ele><time>2026-04-23T17:59:56.892Z</time></trkpt><trkpt lat="31.1102983" lon="-6.386685"><ele>1305.0</ele><time>2026-04-23T17:59:57.892Z</time></trkpt><trkpt lat="31.110395" lon="-6.3869133"><ele>1305.0</ele><time>2026-04-23T17:59:58.892Z</time></trkpt><trkpt lat="31.1104967" lon="-6.3871417"><ele>1305.0</ele><time>2026-04-23T17:59:59.892Z</time></trkpt><trkpt lat="31.1105933" lon="-6.3873683"><ele>1305.0</ele><time>2026-04-23T18:00:00.892Z</time></trkpt><trkpt lat="31.11069" lon="-6.387585"><ele>1305.3333333333333</ele><time>2026-04-23T18:00:01.892Z</time></trkpt><trkpt lat="31.1107733" lon="-6.3877983"><ele>1305.6666666666665</ele><time>2026-04-23T18:00:02.892Z</time></trkpt><trkpt lat="31.1108617" lon="-6.388015"><ele>1306.0</ele><time>2026-04-23T18:00:03.891Z</time></trkpt><trkpt lat="31.1109517" lon="-6.3882233"><ele>1306.6666666666665</ele><time>2026-04-23T18:00:04.892Z</time></trkpt><trkpt lat="31.111045" lon="-6.3884183"><ele>1307.3333333333333</ele><time>2026-04-23T18:00:05.892Z</time></trkpt><trkpt lat="31.1111383" lon="-6.3886183"><ele>1308.0</ele><time>2026-04-23T18:00:06.891Z</time></trkpt><trkpt lat="31.1112267" lon="-6.38882"><ele>1307.6666666666667</ele><time>2026-04-23T18:00:07.891Z</time></trkpt><trkpt lat="31.1113183" lon="-6.3890317"><ele>1307.3333333333335</ele><time>2026-04-23T18:00:08.892Z</time></trkpt><trkpt lat="31.1114067" lon="-6.3892567"><ele>1307.0</ele><time>2026-04-23T18:00:09.892Z</time></trkpt><trkpt lat="31.111475" lon="-6.389485"><ele>1307.0</ele><time>2026-04-23T18:00:10.891Z</time></trkpt><trkpt lat="31.1115233" lon="-6.3897167"><ele>1307.0</ele><time>2026-04-23T18:00:11.891Z</time></trkpt><trkpt lat="31.1115583" lon="-6.3899567"><ele>1307.0</ele><time>2026-04-23T18:00:12.892Z</time></trkpt><trkpt lat="31.1115817" lon="-6.390205"><ele>1307.0</ele><time>2026-04-23T18:00:13.892Z</time></trkpt><trkpt lat="31.1115867" lon="-6.390455"><ele>1307.0</ele><time>2026-04-23T18:00:14.891Z</time></trkpt><trkpt lat="31.111575" lon="-6.3907017"><ele>1307.0</ele><time>2026-04-23T18:00:15.892Z</time></trkpt><trkpt lat="31.1115617" lon="-6.390945"><ele>1306.3333333333335</ele><time>2026-04-23T18:00:16.892Z</time></trkpt><trkpt lat="31.1115417" lon="-6.39119"><ele>1305.6666666666667</ele><time>2026-04-23T18:00:17.892Z</time></trkpt><trkpt lat="31.11152" lon="-6.39144"><ele>1305.0</ele><time>2026-04-23T18:00:18.891Z</time></trkpt><trkpt lat="31.1114883" lon="-6.39168"><ele>1305.0</ele><time>2026-04-23T18:00:19.892Z</time></trkpt><trkpt lat="31.11146" lon="-6.3919233"><ele>1305.0</ele><time>2026-04-23T18:00:20.891Z</time></trkpt><trkpt lat="31.1114333" lon="-6.39216"><ele>1305.0</ele><time>2026-04-23T18:00:21.892Z</time></trkpt><trkpt lat="31.111405" lon="-6.3923967"><ele>1305.3333333333333</ele><time>2026-04-23T18:00:22.891Z</time></trkpt><trkpt lat="31.1113817" lon="-6.392635"><ele>1305.6666666666665</ele><time>2026-04-23T18:00:23.891Z</time></trkpt><trkpt lat="31.1113533" lon="-6.3928633"><ele>1306.0</ele><time>2026-04-23T18:00:24.891Z</time></trkpt><trkpt lat="31.1113283" lon="-6.3930917"><ele>1306.0</ele><time>2026-04-23T18:00:25.892Z</time></trkpt><trkpt lat="31.1112983" lon="-6.393315"><ele>1306.0</ele><time>2026-04-23T18:00:26.892Z</time></trkpt><trkpt lat="31.1112717" lon="-6.3935417"><ele>1306.0</ele><time>2026-04-23T18:00:27.891Z</time></trkpt><trkpt lat="31.1112467" lon="-6.3937667"><ele>1307.3333333333333</ele><time>2026-04-23T18:00:28.892Z</time></trkpt><trkpt lat="31.1112183" lon="-6.3939867"><ele>1308.6666666666667</ele><time>2026-04-23T18:00:29.891Z</time></trkpt><trkpt lat="31.1111933" lon="-6.39422"><ele>1310.0</ele><time>2026-04-23T18:00:30.892Z</time></trkpt><trkpt lat="31.1111667" lon="-6.3944683"><ele>1308.3333333333335</ele><time>2026-04-23T18:00:31.892Z</time></trkpt><trkpt lat="31.1111417" lon="-6.3947117"><ele>1306.6666666666667</ele><time>2026-04-23T18:00:32.892Z</time></trkpt><trkpt lat="31.1111133" lon="-6.3949583"><ele>1305.0</ele><time>2026-04-23T18:00:33.892Z</time></trkpt><trkpt lat="31.1110783" lon="-6.3952117"><ele>1305.0</ele><time>2026-04-23T18:00:34.892Z</time></trkpt><trkpt lat="31.11105" lon="-6.3954667"><ele>1305.0</ele><time>2026-04-23T18:00:35.892Z</time></trkpt><trkpt lat="31.1110217" lon="-6.3957267"><ele>1305.0</ele><time>2026-04-23T18:00:36.892Z</time></trkpt><trkpt lat="31.1109867" lon="-6.395985"><ele>1304.6666666666667</ele><time>2026-04-23T18:00:37.892Z</time></trkpt><trkpt lat="31.1109567" lon="-6.39623"><ele>1304.3333333333335</ele><time>2026-04-23T18:00:38.892Z</time></trkpt><trkpt lat="31.1109233" lon="-6.39647"><ele>1304.0</ele><time>2026-04-23T18:00:39.891Z</time></trkpt><trkpt lat="31.1108917" lon="-6.3967"><ele>1304.0</ele><time>2026-04-23T18:00:40.892Z</time></trkpt><trkpt lat="31.1108767" lon="-6.3969433"><ele>1304.0</ele><time>2026-04-23T18:00:41.892Z</time></trkpt><trkpt lat="31.1108467" lon="-6.3971633"><ele>1304.0</ele><time>2026-04-23T18:00:42.892Z</time></trkpt><trkpt lat="31.1108183" lon="-6.3973883"><ele>1304.0</ele><time>2026-04-23T18:00:43.891Z</time></trkpt><trkpt lat="31.1107883" lon="-6.397615"><ele>1304.0</ele><time>2026-04-23T18:00:44.891Z</time></trkpt><trkpt lat="31.1107683" lon="-6.3978383"><ele>1304.0</ele><time>2026-04-23T18:00:45.891Z</time></trkpt><trkpt lat="31.1107483" lon="-6.3980633"><ele>1304.0</ele><time>2026-04-23T18:00:46.892Z</time></trkpt><trkpt lat="31.1107283" lon="-6.3982867"><ele>1304.0</ele><time>2026-04-23T18:00:47.892Z</time></trkpt><trkpt lat="31.1107233" lon="-6.398505"><ele>1304.0</ele><time>2026-04-23T18:00:48.892Z</time></trkpt><trkpt lat="31.110745" lon="-6.39871"><ele>1306.0</ele><time>2026-04-23T18:00:49.891Z</time></trkpt><trkpt lat="31.1107983" lon="-6.398905"><ele>1308.0</ele><time>2026-04-23T18:00:50.891Z</time></trkpt><trkpt lat="31.1108717" lon="-6.39909"><ele>1310.0</ele><time>2026-04-23T18:00:51.892Z</time></trkpt><trkpt lat="31.1109817" lon="-6.3992783"><ele>1310.0</ele><time>2026-04-23T18:00:52.891Z</time></trkpt><trkpt lat="31.11111" lon="-6.39945"><ele>1310.0</ele><time>2026-04-23T18:00:53.892Z</time></trkpt><trkpt lat="31.11125" lon="-6.399595"><ele>1310.0</ele><time>2026-04-23T18:00:54.892Z</time></trkpt><trkpt lat="31.1113917" lon="-6.39972"><ele>1312.0</ele><time>2026-04-23T18:00:55.892Z</time></trkpt><trkpt lat="31.11153" lon="-6.3998517"><ele>1314.0</ele><time>2026-04-23T18:00:56.892Z</time></trkpt><trkpt lat="31.1116583" lon="-6.3999883"><ele>1316.0</ele><time>2026-04-23T18:00:57.892Z</time></trkpt><trkpt lat="31.1117617" lon="-6.40013"><ele>1316.0</ele><time>2026-04-23T18:00:58.891Z</time></trkpt><trkpt lat="31.1118417" lon="-6.40027"><ele>1316.0</ele><time>2026-04-23T18:00:59.892Z</time></trkpt><trkpt lat="31.1119067" lon="-6.4004383"><ele>1316.0</ele><time>2026-04-23T18:01:00.892Z</time></trkpt><trkpt lat="31.1119517" lon="-6.40063"><ele>1321.6666666666667</ele><time>2026-04-23T18:01:01.891Z</time></trkpt><trkpt lat="31.11198" lon="-6.4008233"><ele>1327.3333333333333</ele><time>2026-04-23T18:01:02.892Z</time></trkpt><trkpt lat="31.1120033" lon="-6.40102"><ele>1333.0</ele><time>2026-04-23T18:01:03.891Z</time></trkpt><trkpt lat="31.1120317" lon="-6.401235"><ele>1335.0</ele><time>2026-04-23T18:01:04.892Z</time></trkpt><trkpt lat="31.1120533" lon="-6.4014517"><ele>1337.0</ele><time>2026-04-23T18:01:05.892Z</time></trkpt><trkpt lat="31.11208" lon="-6.4016617"><ele>1339.0</ele><time>2026-04-23T18:01:06.892Z</time></trkpt><trkpt lat="31.1121" lon="-6.4018533"><ele>1339.0</ele><time>2026-04-23T18:01:07.892Z</time></trkpt><trkpt lat="31.11212" lon="-6.4020417"><ele>1339.0</ele><time>2026-04-23T18:01:08.892Z</time></trkpt><trkpt lat="31.112135" lon="-6.4022267"><ele>1339.0</ele><time>2026-04-23T18:01:09.892Z</time></trkpt><trkpt lat="31.11215" lon="-6.40241"><ele>1343.0</ele><time>2026-04-23T18:01:10.892Z</time></trkpt><trkpt lat="31.1121717" lon="-6.4026017"><ele>1347.0</ele><time>2026-04-23T18:01:11.892Z</time></trkpt><trkpt lat="31.1121933" lon="-6.40279"><ele>1351.0</ele><time>2026-04-23T18:01:12.892Z</time></trkpt><trkpt lat="31.1122183" lon="-6.40298"><ele>1354.0</ele><time>2026-04-23T18:01:13.891Z</time></trkpt><trkpt lat="31.11225" lon="-6.40317"><ele>1357.0</ele><time>2026-04-23T18:01:14.891Z</time></trkpt><trkpt lat="31.1122933" lon="-6.4033433"><ele>1360.0</ele><time>2026-04-23T18:01:15.892Z</time></trkpt><trkpt lat="31.11235" lon="-6.4034983"><ele>1357.75</ele><time>2026-04-23T18:01:16.892Z</time></trkpt><trkpt lat="31.1124183" lon="-6.4036367"><ele>1355.5</ele><time>2026-04-23T18:01:17.892Z</time></trkpt><trkpt lat="31.1124817" lon="-6.40376"><ele>1353.25</ele><time>2026-04-23T18:01:18.891Z</time></trkpt><trkpt lat="31.1125383" lon="-6.4038683"><ele>1351.0</ele><time>2026-04-23T18:01:19.891Z</time></trkpt><trkpt lat="31.1125833" lon="-6.4039617"><ele>1351.0</ele><time>2026-04-23T18:01:20.892Z</time></trkpt><trkpt lat="31.112625" lon="-6.404055"><ele>1351.0</ele><time>2026-04-23T18:01:21.892Z</time></trkpt><trkpt lat="31.1126617" lon="-6.4041633"><ele>1351.0</ele><time>2026-04-23T18:01:22.892Z</time></trkpt><trkpt lat="31.1126933" lon="-6.4042883"><ele>1351.0</ele><time>2026-04-23T18:01:23.892Z</time></trkpt><trkpt lat="31.11272" lon="-6.4044183"><ele>1351.0</ele><time>2026-04-23T18:01:24.891Z</time></trkpt><trkpt lat="31.1127383" lon="-6.4045467"><ele>1352.3333333333333</ele><time>2026-04-23T18:01:25.892Z</time></trkpt><trkpt lat="31.1127517" lon="-6.4046633"><ele>1353.6666666666665</ele><time>2026-04-23T18:01:26.892Z</time></trkpt><trkpt lat="31.11276" lon="-6.4047717"><ele>1355.0</ele><time>2026-04-23T18:01:27.892Z</time></trkpt><trkpt lat="31.1127617" lon="-6.4048783"><ele>1356.3333333333333</ele><time>2026-04-23T18:01:28.892Z</time></trkpt><trkpt lat="31.1127683" lon="-6.40498"><ele>1357.6666666666667</ele><time>2026-04-23T18:01:29.891Z</time></trkpt><trkpt lat="31.1127733" lon="-6.4050583"><ele>1359.0</ele><time>2026-04-23T18:01:30.892Z</time></trkpt><trkpt lat="31.1127883" lon="-6.4051883"><ele>1359.0</ele><time>2026-04-23T18:01:32.891Z</time></trkpt><trkpt lat="31.1127983" lon="-6.4053033"><ele>1359.0</ele><time>2026-04-23T18:01:34.892Z</time></trkpt><trkpt lat="31.11282" lon="-6.4054217"><ele>1359.0</ele><time>2026-04-23T18:01:36.892Z</time></trkpt><trkpt lat="31.1128333" lon="-6.4055"><ele>1359.0</ele><time>2026-04-23T18:01:37.892Z</time></trkpt><trkpt lat="31.1128567" lon="-6.4056033"><ele>1359.0</ele><time>2026-04-23T18:01:38.891Z</time></trkpt><trkpt lat="31.1128867" lon="-6.4057317"><ele>1360.75</ele><time>2026-04-23T18:01:39.891Z</time></trkpt><trkpt lat="31.1129267" lon="-6.405865"><ele>1362.5</ele><time>2026-04-23T18:01:40.892Z</time></trkpt><trkpt lat="31.1129617" lon="-6.4060017"><ele>1364.25</ele><time>2026-04-23T18:01:41.892Z</time></trkpt><trkpt lat="31.1129983" lon="-6.4061533"><ele>1366.0</ele><time>2026-04-23T18:01:42.892Z</time></trkpt><trkpt lat="31.11304" lon="-6.40631"><ele>1368.0</ele><time>2026-04-23T18:01:43.892Z</time></trkpt><trkpt lat="31.1130883" lon="-6.40649"><ele>1370.0</ele><time>2026-04-23T18:01:44.892Z</time></trkpt><trkpt lat="31.113135" lon="-6.406685"><ele>1372.0</ele><time>2026-04-23T18:01:45.892Z</time></trkpt><trkpt lat="31.1131817" lon="-6.4069"><ele>1372.0</ele><time>2026-04-23T18:01:46.892Z</time></trkpt><trkpt lat="31.11323" lon="-6.4071383"><ele>1372.0</ele><time>2026-04-23T18:01:47.892Z</time></trkpt><trkpt lat="31.1132817" lon="-6.4073983"><ele>1372.0</ele><time>2026-04-23T18:01:48.892Z</time></trkpt><trkpt lat="31.1133267" lon="-6.407665"><ele>1371.0</ele><time>2026-04-23T18:01:49.892Z</time></trkpt><trkpt lat="31.1133733" lon="-6.407945"><ele>1370.0</ele><time>2026-04-23T18:01:50.891Z</time></trkpt><trkpt lat="31.11341" lon="-6.4082333"><ele>1372.0</ele><time>2026-04-23T18:01:51.892Z</time></trkpt><trkpt lat="31.1134333" lon="-6.4085267"><ele>1374.0</ele><time>2026-04-23T18:01:52.892Z</time></trkpt><trkpt lat="31.1134383" lon="-6.4088083"><ele>1374.0</ele><time>2026-04-23T18:01:53.892Z</time></trkpt><trkpt lat="31.113435" lon="-6.409095"><ele>1374.0</ele><time>2026-04-23T18:01:54.892Z</time></trkpt><trkpt lat="31.1134217" lon="-6.40939"><ele>1374.5</ele><time>2026-04-23T18:01:55.892Z</time></trkpt><trkpt lat="31.1134" lon="-6.4096917"><ele>1375.0</ele><time>2026-04-23T18:01:56.892Z</time></trkpt><trkpt lat="31.11337" lon="-6.40999"><ele>1375.0</ele><time>2026-04-23T18:01:57.892Z</time></trkpt><trkpt lat="31.1133383" lon="-6.4102767"><ele>1375.0</ele><time>2026-04-23T18:01:58.891Z</time></trkpt><trkpt lat="31.1133117" lon="-6.4105567"><ele>1376.0</ele><time>2026-04-23T18:01:59.891Z</time></trkpt><trkpt lat="31.11329" lon="-6.4108333"><ele>1377.0</ele><time>2026-04-23T18:02:00.892Z</time></trkpt><trkpt lat="31.113265" lon="-6.41111"><ele>1377.0</ele><time>2026-04-23T18:02:01.892Z</time></trkpt><trkpt lat="31.1132433" lon="-6.4113767"><ele>1377.0</ele><time>2026-04-23T18:02:02.892Z</time></trkpt><trkpt lat="31.1132217" lon="-6.4116333"><ele>1377.0</ele><time>2026-04-23T18:02:03.892Z</time></trkpt><trkpt lat="31.1131967" lon="-6.4118767"><ele>1377.0</ele><time>2026-04-23T18:02:04.892Z</time></trkpt><trkpt lat="31.113175" lon="-6.4121133"><ele>1377.0</ele><time>2026-04-23T18:02:05.892Z</time></trkpt><trkpt lat="31.113155" lon="-6.4123383"><ele>1378.0</ele><time>2026-04-23T18:02:06.891Z</time></trkpt><trkpt lat="31.1131367" lon="-6.412565"><ele>1379.0</ele><time>2026-04-23T18:02:07.892Z</time></trkpt><trkpt lat="31.113115" lon="-6.4127883"><ele>1380.0</ele><time>2026-04-23T18:02:08.892Z</time></trkpt><trkpt lat="31.113095" lon="-6.4130133"><ele>1380.0</ele><time>2026-04-23T18:02:09.892Z</time></trkpt><trkpt lat="31.1130683" lon="-6.4132333"><ele>1380.0</ele><time>2026-04-23T18:02:10.891Z</time></trkpt><trkpt lat="31.1130483" lon="-6.41346"><ele>1380.0</ele><time>2026-04-23T18:02:11.891Z</time></trkpt><trkpt lat="31.1130267" lon="-6.41368"><ele>1380.0</ele><time>2026-04-23T18:02:12.891Z</time></trkpt><trkpt lat="31.1130083" lon="-6.4138917"><ele>1380.0</ele><time>2026-04-23T18:02:13.891Z</time></trkpt><trkpt lat="31.1129867" lon="-6.4141"><ele>1380.0</ele><time>2026-04-23T18:02:14.892Z</time></trkpt><trkpt lat="31.1129617" lon="-6.4143033"><ele>1380.0</ele><time>2026-04-23T18:02:15.892Z</time></trkpt><trkpt lat="31.112925" lon="-6.4144967"><ele>1380.0</ele><time>2026-04-23T18:02:16.892Z</time></trkpt><trkpt lat="31.112875" lon="-6.41468"><ele>1380.0</ele><time>2026-04-23T18:02:17.892Z</time></trkpt><trkpt lat="31.112815" lon="-6.41485"><ele>1381.75</ele><time>2026-04-23T18:02:18.892Z</time></trkpt><trkpt lat="31.11274" lon="-6.4150083"><ele>1383.5</ele><time>2026-04-23T18:02:19.892Z</time></trkpt><trkpt lat="31.1126483" lon="-6.4151433"><ele>1385.25</ele><time>2026-04-23T18:02:20.891Z</time></trkpt><trkpt lat="31.112545" lon="-6.4152617"><ele>1387.0</ele><time>2026-04-23T18:02:21.892Z</time></trkpt><trkpt lat="31.11243" lon="-6.4153683"><ele>1385.0</ele><time>2026-04-23T18:02:22.891Z</time></trkpt><trkpt lat="31.1122983" lon="-6.41546"><ele>1383.0</ele><time>2026-04-23T18:02:23.892Z</time></trkpt><trkpt lat="31.1121583" lon="-6.4155283"><ele>1381.0</ele><time>2026-04-23T18:02:24.892Z</time></trkpt><trkpt lat="31.1120117" lon="-6.4155933"><ele>1379.0</ele><time>2026-04-23T18:02:25.891Z</time></trkpt><trkpt lat="31.1118583" lon="-6.415645"><ele>1377.0</ele><time>2026-04-23T18:02:26.892Z</time></trkpt><trkpt lat="31.11169" lon="-6.4156617"><ele>1375.0</ele><time>2026-04-23T18:02:27.892Z</time></trkpt><trkpt lat="31.111505" lon="-6.41564"><ele>1372.0</ele><time>2026-04-23T18:02:28.892Z</time></trkpt><trkpt lat="31.11133" lon="-6.4156067"><ele>1369.0</ele><time>2026-04-23T18:02:29.892Z</time></trkpt><trkpt lat="31.1111567" lon="-6.4155683"><ele>1366.0</ele><time>2026-04-23T18:02:30.892Z</time></trkpt><trkpt lat="31.1109917" lon="-6.4155583"><ele>1366.0</ele><time>2026-04-23T18:02:31.892Z</time></trkpt><trkpt lat="31.110805" lon="-6.4155717"><ele>1366.0</ele><time>2026-04-23T18:02:32.892Z</time></trkpt><trkpt lat="31.11062" lon="-6.4156117"><ele>1366.0</ele><time>2026-04-23T18:02:33.892Z</time></trkpt><trkpt lat="31.11044" lon="-6.4156967"><ele>1366.3333333333333</ele><time>2026-04-23T18:02:34.892Z</time></trkpt><trkpt lat="31.110255" lon="-6.41578"><ele>1366.6666666666667</ele><time>2026-04-23T18:02:35.892Z</time></trkpt><trkpt lat="31.1100683" lon="-6.4158617"><ele>1367.0</ele><time>2026-04-23T18:02:36.891Z</time></trkpt><trkpt lat="31.1098867" lon="-6.415915"><ele>1367.0</ele><time>2026-04-23T18:02:37.892Z</time></trkpt><trkpt lat="31.1097033" lon="-6.4159717"><ele>1367.0</ele><time>2026-04-23T18:02:38.892Z</time></trkpt><trkpt lat="31.10953" lon="-6.41603"><ele>1367.0</ele><time>2026-04-23T18:02:39.891Z</time></trkpt><trkpt lat="31.1093567" lon="-6.4161017"><ele>1367.0</ele><time>2026-04-23T18:02:40.892Z</time></trkpt><trkpt lat="31.10919" lon="-6.41618"><ele>1367.0</ele><time>2026-04-23T18:02:41.891Z</time></trkpt><trkpt lat="31.1090317" lon="-6.4162633"><ele>1367.0</ele><time>2026-04-23T18:02:42.892Z</time></trkpt><trkpt lat="31.1088783" lon="-6.4163583"><ele>1361.0</ele><time>2026-04-23T18:02:43.892Z</time></trkpt><trkpt lat="31.108725" lon="-6.4164533"><ele>1355.0</ele><time>2026-04-23T18:02:44.892Z</time></trkpt><trkpt lat="31.1085667" lon="-6.41656"><ele>1349.0</ele><time>2026-04-23T18:02:45.892Z</time></trkpt><trkpt lat="31.108415" lon="-6.4166767"><ele>1349.0</ele><time>2026-04-23T18:02:46.892Z</time></trkpt><trkpt lat="31.1082817" lon="-6.4168183"><ele>1349.0</ele><time>2026-04-23T18:02:47.892Z</time></trkpt><trkpt lat="31.1081683" lon="-6.41699"><ele>1349.0</ele><time>2026-04-23T18:02:48.892Z</time></trkpt><trkpt lat="31.108075" lon="-6.4172"><ele>1346.6666666666667</ele><time>2026-04-23T18:02:49.891Z</time></trkpt><trkpt lat="31.1079967" lon="-6.4174217"><ele>1344.3333333333333</ele><time>2026-04-23T18:02:50.892Z</time></trkpt><trkpt lat="31.10793" lon="-6.417645"><ele>1342.0</ele><time>2026-04-23T18:02:51.892Z</time></trkpt><trkpt lat="31.10787" lon="-6.41787"><ele>1341.3333333333333</ele><time>2026-04-23T18:02:52.892Z</time></trkpt><trkpt lat="31.107805" lon="-6.418095"><ele>1340.6666666666667</ele><time>2026-04-23T18:02:53.892Z</time></trkpt><trkpt lat="31.107745" lon="-6.41832"><ele>1340.0</ele><time>2026-04-23T18:02:54.892Z</time></trkpt><trkpt lat="31.10769" lon="-6.4185433"><ele>1340.0</ele><time>2026-04-23T18:02:55.891Z</time></trkpt><trkpt lat="31.1076267" lon="-6.4187617"><ele>1340.0</ele><time>2026-04-23T18:02:56.892Z</time></trkpt><trkpt lat="31.107565" lon="-6.4189783"><ele>1340.0</ele><time>2026-04-23T18:02:57.892Z</time></trkpt><trkpt lat="31.1075083" lon="-6.4192033"><ele>1339.6666666666667</ele><time>2026-04-23T18:02:58.892Z</time></trkpt><trkpt lat="31.107445" lon="-6.41943"><ele>1339.3333333333333</ele><time>2026-04-23T18:02:59.892Z</time></trkpt><trkpt lat="31.1073767" lon="-6.41966"><ele>1339.0</ele><time>2026-04-23T18:03:00.892Z</time></trkpt><trkpt lat="31.10731" lon="-6.4198917"><ele>1337.6666666666665</ele><time>2026-04-23T18:03:01.892Z</time></trkpt><trkpt lat="31.10724" lon="-6.420115"><ele>1336.3333333333333</ele><time>2026-04-23T18:03:02.892Z</time></trkpt><trkpt lat="31.1071783" lon="-6.4203433"><ele>1335.0</ele><time>2026-04-23T18:03:03.892Z</time></trkpt><trkpt lat="31.10711" lon="-6.420575"><ele>1334.3333333333333</ele><time>2026-04-23T18:03:04.892Z</time></trkpt><trkpt lat="31.1070467" lon="-6.4208117"><ele>1333.6666666666665</ele><time>2026-04-23T18:03:05.892Z</time></trkpt><trkpt lat="31.1069917" lon="-6.4210517"><ele>1333.0</ele><time>2026-04-23T18:03:06.891Z</time></trkpt><trkpt lat="31.1069417" lon="-6.4213"><ele>1333.0</ele><time>2026-04-23T18:03:07.892Z</time></trkpt><trkpt lat="31.1069" lon="-6.4215517"><ele>1333.0</ele><time>2026-04-23T18:03:08.892Z</time></trkpt><trkpt lat="31.1068733" lon="-6.4218083"><ele>1333.0</ele><time>2026-04-23T18:03:09.892Z</time></trkpt><trkpt lat="31.1068567" lon="-6.422075"><ele>1331.5</ele><time>2026-04-23T18:03:10.892Z</time></trkpt><trkpt lat="31.1068433" lon="-6.4223517"><ele>1330.0</ele><time>2026-04-23T18:03:11.892Z</time></trkpt><trkpt lat="31.1068433" lon="-6.4226283"><ele>1330.0</ele><time>2026-04-23T18:03:12.892Z</time></trkpt><trkpt lat="31.1068483" lon="-6.4229083"><ele>1330.0</ele><time>2026-04-23T18:03:13.892Z</time></trkpt><trkpt lat="31.1068517" lon="-6.4231883"><ele>1330.0</ele><time>2026-04-23T18:03:14.892Z</time></trkpt><trkpt lat="31.1068567" lon="-6.4234717"><ele>1330.0</ele><time>2026-04-23T18:03:15.892Z</time></trkpt><trkpt lat="31.1068533" lon="-6.423745"><ele>1332.0</ele><time>2026-04-23T18:03:16.892Z</time></trkpt><trkpt lat="31.1068517" lon="-6.42402"><ele>1334.0</ele><time>2026-04-23T18:03:17.891Z</time></trkpt><trkpt lat="31.1068533" lon="-6.4242933"><ele>1334.0</ele><time>2026-04-23T18:03:18.892Z</time></trkpt><trkpt lat="31.1068517" lon="-6.4245667"><ele>1334.0</ele><time>2026-04-23T18:03:19.891Z</time></trkpt><trkpt lat="31.1068483" lon="-6.42484"><ele>1333.5</ele><time>2026-04-23T18:03:20.892Z</time></trkpt><trkpt lat="31.1068483" lon="-6.4251167"><ele>1333.0</ele><time>2026-04-23T18:03:21.892Z</time></trkpt><trkpt lat="31.1068467" lon="-6.4253933"><ele>1333.5</ele><time>2026-04-23T18:03:22.892Z</time></trkpt><trkpt lat="31.1068483" lon="-6.42567"><ele>1334.0</ele><time>2026-04-23T18:03:23.892Z</time></trkpt><trkpt lat="31.1068467" lon="-6.42594"><ele>1334.0</ele><time>2026-04-23T18:03:24.891Z</time></trkpt><trkpt lat="31.106845" lon="-6.42621"><ele>1334.0</ele><time>2026-04-23T18:03:25.892Z</time></trkpt><trkpt lat="31.106845" lon="-6.4264767"><ele>1335.5</ele><time>2026-04-23T18:03:26.892Z</time></trkpt><trkpt lat="31.1068483" lon="-6.426745"><ele>1337.0</ele><time>2026-04-23T18:03:27.892Z</time></trkpt><trkpt lat="31.10685" lon="-6.4270117"><ele>1337.5</ele><time>2026-04-23T18:03:28.892Z</time></trkpt><trkpt lat="31.1068483" lon="-6.42728"><ele>1338.0</ele><time>2026-04-23T18:03:29.892Z</time></trkpt><trkpt lat="31.1068417" lon="-6.4275433"><ele>1338.0</ele><time>2026-04-23T18:03:30.892Z</time></trkpt><trkpt lat="31.106825" lon="-6.427805"><ele>1338.0</ele><time>2026-04-23T18:03:31.892Z</time></trkpt><trkpt lat="31.1068" lon="-6.4280617"><ele>1338.0</ele><time>2026-04-23T18:03:32.892Z</time></trkpt><trkpt lat="31.1067583" lon="-6.4283183"><ele>1340.0</ele><time>2026-04-23T18:03:33.892Z</time></trkpt><trkpt lat="31.1066933" lon="-6.4285667"><ele>1342.0</ele><time>2026-04-23T18:03:34.891Z</time></trkpt><trkpt lat="31.106615" lon="-6.4288167"><ele>1342.0</ele><time>2026-04-23T18:03:35.892Z</time></trkpt><trkpt lat="31.1065133" lon="-6.42906"><ele>1342.0</ele><time>2026-04-23T18:03:36.892Z</time></trkpt><trkpt lat="31.1063917" lon="-6.4292817"><ele>1342.0</ele><time>2026-04-23T18:03:37.892Z</time></trkpt><trkpt lat="31.106255" lon="-6.4294967"><ele>1342.0</ele><time>2026-04-23T18:03:38.892Z</time></trkpt><trkpt lat="31.1060983" lon="-6.4296867"><ele>1346.0</ele><time>2026-04-23T18:03:39.892Z</time></trkpt><trkpt lat="31.105935" lon="-6.4298733"><ele>1350.0</ele><time>2026-04-23T18:03:40.892Z</time></trkpt><trkpt lat="31.1057583" lon="-6.4300567"><ele>1349.3333333333333</ele><time>2026-04-23T18:03:41.892Z</time></trkpt><trkpt lat="31.105575" lon="-6.4302133"><ele>1348.6666666666665</ele><time>2026-04-23T18:03:42.892Z</time></trkpt><trkpt lat="31.105385" lon="-6.43033"><ele>1348.0</ele><time>2026-04-23T18:03:43.892Z</time></trkpt><trkpt lat="31.1051917" lon="-6.4304383"><ele>1350.0</ele><time>2026-04-23T18:03:44.892Z</time></trkpt><trkpt lat="31.104995" lon="-6.4305333"><ele>1352.0</ele><time>2026-04-23T18:03:45.892Z</time></trkpt><trkpt lat="31.1047983" lon="-6.4306217"><ele>1354.0</ele><time>2026-04-23T18:03:46.892Z</time></trkpt><trkpt lat="31.1046117" lon="-6.4306983"><ele>1354.0</ele><time>2026-04-23T18:03:47.892Z</time></trkpt><trkpt lat="31.1044283" lon="-6.4307683"><ele>1354.0</ele><time>2026-04-23T18:03:48.892Z</time></trkpt><trkpt lat="31.10424" lon="-6.4308517"><ele>1354.0</ele><time>2026-04-23T18:03:49.892Z</time></trkpt><trkpt lat="31.1040483" lon="-6.4309483"><ele>1353.6666666666665</ele><time>2026-04-23T18:03:50.892Z</time></trkpt><trkpt lat="31.1038717" lon="-6.431075"><ele>1353.3333333333333</ele><time>2026-04-23T18:03:51.892Z</time></trkpt><trkpt lat="31.1037" lon="-6.43122"><ele>1353.0</ele><time>2026-04-23T18:03:52.892Z</time></trkpt><trkpt lat="31.10353" lon="-6.4313783"><ele>1353.0</ele><time>2026-04-23T18:03:53.892Z</time></trkpt><trkpt lat="31.1033783" lon="-6.4315467"><ele>1353.0</ele><time>2026-04-23T18:03:54.891Z</time></trkpt><trkpt lat="31.1032417" lon="-6.4317183"><ele>1353.0</ele><time>2026-04-23T18:03:55.891Z</time></trkpt><trkpt lat="31.1031217" lon="-6.4319217"><ele>1351.6666666666667</ele><time>2026-04-23T18:03:56.892Z</time></trkpt><trkpt lat="31.102995" lon="-6.4321267"><ele>1350.3333333333335</ele><time>2026-04-23T18:03:57.892Z</time></trkpt><trkpt lat="31.1028883" lon="-6.4323533"><ele>1349.0</ele><time>2026-04-23T18:03:58.891Z</time></trkpt><trkpt lat="31.1027933" lon="-6.4325933"><ele>1345.0</ele><time>2026-04-23T18:03:59.891Z</time></trkpt><trkpt lat="31.1027083" lon="-6.4328433"><ele>1341.0</ele><time>2026-04-23T18:04:00.891Z</time></trkpt><trkpt lat="31.1026517" lon="-6.43311"><ele>1340.0</ele><time>2026-04-23T18:04:01.891Z</time></trkpt><trkpt lat="31.102615" lon="-6.4333883"><ele>1339.0</ele><time>2026-04-23T18:04:02.892Z</time></trkpt><trkpt lat="31.1025883" lon="-6.433665"><ele>1340.0</ele><time>2026-04-23T18:04:03.892Z</time></trkpt><trkpt lat="31.10257" lon="-6.4339383"><ele>1341.0</ele><time>2026-04-23T18:04:04.892Z</time></trkpt><trkpt lat="31.1025433" lon="-6.4342"><ele>1341.0</ele><time>2026-04-23T18:04:05.891Z</time></trkpt><trkpt lat="31.102515" lon="-6.43446"><ele>1341.0</ele><time>2026-04-23T18:04:06.892Z</time></trkpt><trkpt lat="31.102495" lon="-6.434725"><ele>1341.0</ele><time>2026-04-23T18:04:07.892Z</time></trkpt><trkpt lat="31.102475" lon="-6.4349933"><ele>1341.0</ele><time>2026-04-23T18:04:08.892Z</time></trkpt><trkpt lat="31.10244" lon="-6.4352517"><ele>1339.0</ele><time>2026-04-23T18:04:09.891Z</time></trkpt><trkpt lat="31.1023917" lon="-6.4355067"><ele>1337.0</ele><time>2026-04-23T18:04:10.891Z</time></trkpt><trkpt lat="31.10233" lon="-6.435765"><ele>1337.0</ele><time>2026-04-23T18:04:11.891Z</time></trkpt><trkpt lat="31.1022533" lon="-6.4360167"><ele>1337.0</ele><time>2026-04-23T18:04:12.892Z</time></trkpt><trkpt lat="31.1021683" lon="-6.4362567"><ele>1337.5</ele><time>2026-04-23T18:04:13.891Z</time></trkpt><trkpt lat="31.1020767" lon="-6.4365067"><ele>1338.0</ele><time>2026-04-23T18:04:14.891Z</time></trkpt><trkpt lat="31.1019867" lon="-6.436765"><ele>1338.0</ele><time>2026-04-23T18:04:15.892Z</time></trkpt><trkpt lat="31.1018867" lon="-6.4370283"><ele>1338.0</ele><time>2026-04-23T18:04:16.892Z</time></trkpt><trkpt lat="31.101785" lon="-6.4372867"><ele>1337.0</ele><time>2026-04-23T18:04:17.891Z</time></trkpt><trkpt lat="31.1016817" lon="-6.4375567"><ele>1336.0</ele><time>2026-04-23T18:04:18.892Z</time></trkpt><trkpt lat="31.101575" lon="-6.4378233"><ele>1334.5</ele><time>2026-04-23T18:04:19.892Z</time></trkpt><trkpt lat="31.101475" lon="-6.438095"><ele>1333.0</ele><time>2026-04-23T18:04:20.892Z</time></trkpt><trkpt lat="31.1013783" lon="-6.4383567"><ele>1333.0</ele><time>2026-04-23T18:04:21.892Z</time></trkpt><trkpt lat="31.1012783" lon="-6.4386133"><ele>1333.0</ele><time>2026-04-23T18:04:22.892Z</time></trkpt><trkpt lat="31.1011833" lon="-6.4388717"><ele>1332.0</ele><time>2026-04-23T18:04:23.892Z</time></trkpt><trkpt lat="31.1010817" lon="-6.4391217"><ele>1331.0</ele><time>2026-04-23T18:04:24.891Z</time></trkpt><trkpt lat="31.1009833" lon="-6.439375"><ele>1331.0</ele><time>2026-04-23T18:04:25.892Z</time></trkpt><trkpt lat="31.10088" lon="-6.4396267"><ele>1331.0</ele><time>2026-04-23T18:04:26.892Z</time></trkpt><trkpt lat="31.1007867" lon="-6.4398767"><ele>1329.0</ele><time>2026-04-23T18:04:27.891Z</time></trkpt><trkpt lat="31.1006917" lon="-6.44013"><ele>1327.0</ele><time>2026-04-23T18:04:28.892Z</time></trkpt><trkpt lat="31.1005983" lon="-6.4403967"><ele>1327.5</ele><time>2026-04-23T18:04:29.892Z</time></trkpt><trkpt lat="31.100495" lon="-6.44065"><ele>1328.0</ele><time>2026-04-23T18:04:30.892Z</time></trkpt><trkpt lat="31.100395" lon="-6.440905"><ele>1328.0</ele><time>2026-04-23T18:04:31.892Z</time></trkpt><trkpt lat="31.1003" lon="-6.4411567"><ele>1328.0</ele><time>2026-04-23T18:04:32.891Z</time></trkpt><trkpt lat="31.1002017" lon="-6.441415"><ele>1327.5</ele><time>2026-04-23T18:04:33.892Z</time></trkpt><trkpt lat="31.1000983" lon="-6.44167"><ele>1327.0</ele><time>2026-04-23T18:04:34.892Z</time></trkpt><trkpt lat="31.1000017" lon="-6.4419317"><ele>1326.5</ele><time>2026-04-23T18:04:35.892Z</time></trkpt><trkpt lat="31.0999067" lon="-6.4421933"><ele>1326.0</ele><time>2026-04-23T18:04:36.892Z</time></trkpt><trkpt lat="31.0998083" lon="-6.4424483"><ele>1326.0</ele><time>2026-04-23T18:04:37.892Z</time></trkpt><trkpt lat="31.09971" lon="-6.4427017"><ele>1326.0</ele><time>2026-04-23T18:04:38.892Z</time></trkpt><trkpt lat="31.09961" lon="-6.44296"><ele>1327.5</ele><time>2026-04-23T18:04:39.892Z</time></trkpt><trkpt lat="31.0995117" lon="-6.443225"><ele>1329.0</ele><time>2026-04-23T18:04:40.892Z</time></trkpt><trkpt lat="31.0994117" lon="-6.443485"><ele>1329.0</ele><time>2026-04-23T18:04:41.891Z</time></trkpt><trkpt lat="31.0993133" lon="-6.44374"><ele>1329.0</ele><time>2026-04-23T18:04:42.892Z</time></trkpt><trkpt lat="31.0992167" lon="-6.443985"><ele>1325.5</ele><time>2026-04-23T18:04:43.891Z</time></trkpt><trkpt lat="31.09912" lon="-6.4442433"><ele>1322.0</ele><time>2026-04-23T18:04:44.892Z</time></trkpt><trkpt lat="31.099025" lon="-6.4445017"><ele>1321.5</ele><time>2026-04-23T18:04:45.891Z</time></trkpt><trkpt lat="31.0989267" lon="-6.4447617"><ele>1321.0</ele><time>2026-04-23T18:04:46.892Z</time></trkpt><trkpt lat="31.098825" lon="-6.4450133"><ele>1321.0</ele><time>2026-04-23T18:04:47.892Z</time></trkpt><trkpt lat="31.0987317" lon="-6.44528"><ele>1321.0</ele><time>2026-04-23T18:04:48.892Z</time></trkpt><trkpt lat="31.09863" lon="-6.44554"><ele>1320.5</ele><time>2026-04-23T18:04:49.891Z</time></trkpt><trkpt lat="31.09853" lon="-6.4457983"><ele>1320.0</ele><time>2026-04-23T18:04:50.892Z</time></trkpt><trkpt lat="31.098425" lon="-6.4460583"><ele>1320.5</ele><time>2026-04-23T18:04:51.891Z</time></trkpt><trkpt lat="31.0983283" lon="-6.4463183"><ele>1321.0</ele><time>2026-04-23T18:04:52.892Z</time></trkpt><trkpt lat="31.0982267" lon="-6.4465733"><ele>1319.5</ele><time>2026-04-23T18:04:53.892Z</time></trkpt><trkpt lat="31.0981317" lon="-6.4468267"><ele>1318.0</ele><time>2026-04-23T18:04:54.892Z</time></trkpt><trkpt lat="31.0980333" lon="-6.447085"><ele>1318.5</ele><time>2026-04-23T18:04:55.892Z</time></trkpt><trkpt lat="31.0979333" lon="-6.447345"><ele>1319.0</ele><time>2026-04-23T18:04:56.891Z</time></trkpt><trkpt lat="31.0978333" lon="-6.4476083"><ele>1319.0</ele><time>2026-04-23T18:04:57.891Z</time></trkpt><trkpt lat="31.0977333" lon="-6.4478683"><ele>1319.0</ele><time>2026-04-23T18:04:58.891Z</time></trkpt><trkpt lat="31.0976283" lon="-6.4481267"><ele>1318.5</ele><time>2026-04-23T18:04:59.891Z</time></trkpt><trkpt lat="31.0975217" lon="-6.448385"><ele>1318.0</ele><time>2026-04-23T18:05:00.892Z</time></trkpt><trkpt lat="31.0974133" lon="-6.4486483"><ele>1319.0</ele><time>2026-04-23T18:05:01.892Z</time></trkpt><trkpt lat="31.0973" lon="-6.448905"><ele>1320.0</ele><time>2026-04-23T18:05:02.892Z</time></trkpt><trkpt lat="31.097185" lon="-6.4491583"><ele>1320.0</ele><time>2026-04-23T18:05:03.892Z</time></trkpt><trkpt lat="31.0970783" lon="-6.4494183"><ele>1320.0</ele><time>2026-04-23T18:05:04.891Z</time></trkpt><trkpt lat="31.09697" lon="-6.449685"><ele>1320.0</ele><time>2026-04-23T18:05:05.891Z</time></trkpt><trkpt lat="31.0968667" lon="-6.44995"><ele>1320.0</ele><time>2026-04-23T18:05:06.892Z</time></trkpt><trkpt lat="31.0967567" lon="-6.4502"><ele>1320.0</ele><time>2026-04-23T18:05:07.892Z</time></trkpt><trkpt lat="31.0966483" lon="-6.4504567"><ele>1320.0</ele><time>2026-04-23T18:05:08.892Z</time></trkpt><trkpt lat="31.09654" lon="-6.4507117"><ele>1318.5</ele><time>2026-04-23T18:05:09.892Z</time></trkpt><trkpt lat="31.0964267" lon="-6.4509633"><ele>1317.0</ele><time>2026-04-23T18:05:10.892Z</time></trkpt><trkpt lat="31.0963167" lon="-6.4512217"><ele>1315.0</ele><time>2026-04-23T18:05:11.891Z</time></trkpt><trkpt lat="31.096215" lon="-6.4514883"><ele>1313.0</ele><time>2026-04-23T18:05:12.892Z</time></trkpt><trkpt lat="31.096105" lon="-6.4517583"><ele>1313.0</ele><time>2026-04-23T18:05:13.891Z</time></trkpt><trkpt lat="31.0959917" lon="-6.4520217"><ele>1313.0</ele><time>2026-04-23T18:05:14.892Z</time></trkpt><trkpt lat="31.0958817" lon="-6.4522833"><ele>1312.5</ele><time>2026-04-23T18:05:15.892Z</time></trkpt><trkpt lat="31.09577" lon="-6.4525483"><ele>1312.0</ele><time>2026-04-23T18:05:16.891Z</time></trkpt><trkpt lat="31.095665" lon="-6.4528233"><ele>1312.5</ele><time>2026-04-23T18:05:17.892Z</time></trkpt><trkpt lat="31.0955483" lon="-6.4530917"><ele>1313.0</ele><time>2026-04-23T18:05:18.892Z</time></trkpt><trkpt lat="31.09543" lon="-6.453355"><ele>1313.0</ele><time>2026-04-23T18:05:19.892Z</time></trkpt><trkpt lat="31.0953167" lon="-6.45362"><ele>1313.0</ele><time>2026-04-23T18:05:20.892Z</time></trkpt><trkpt lat="31.0952083" lon="-6.45389"><ele>1315.0</ele><time>2026-04-23T18:05:21.891Z</time></trkpt><trkpt lat="31.0950933" lon="-6.4541567"><ele>1317.0</ele><time>2026-04-23T18:05:22.892Z</time></trkpt><trkpt lat="31.0949783" lon="-6.4544317"><ele>1316.5</ele><time>2026-04-23T18:05:23.892Z</time></trkpt><trkpt lat="31.0948633" lon="-6.4547083"><ele>1316.0</ele><time>2026-04-23T18:05:24.892Z</time></trkpt><trkpt lat="31.0947467" lon="-6.4549883"><ele>1316.0</ele><time>2026-04-23T18:05:25.892Z</time></trkpt><trkpt lat="31.0946233" lon="-6.45526"><ele>1316.0</ele><time>2026-04-23T18:05:26.892Z</time></trkpt><trkpt lat="31.09451" lon="-6.45553"><ele>1313.5</ele><time>2026-04-23T18:05:27.892Z</time></trkpt><trkpt lat="31.0944" lon="-6.4557967"><ele>1311.0</ele><time>2026-04-23T18:05:28.892Z</time></trkpt><trkpt lat="31.094295" lon="-6.45605"><ele>1311.3333333333333</ele><time>2026-04-23T18:05:29.892Z</time></trkpt><trkpt lat="31.094195" lon="-6.4562883"><ele>1311.6666666666665</ele><time>2026-04-23T18:05:30.892Z</time></trkpt><trkpt lat="31.0941033" lon="-6.4565233"><ele>1312.0</ele><time>2026-04-23T18:05:31.892Z</time></trkpt><trkpt lat="31.0940033" lon="-6.4567483"><ele>1312.0</ele><time>2026-04-23T18:05:32.892Z</time></trkpt><trkpt lat="31.09391" lon="-6.456975"><ele>1312.0</ele><time>2026-04-23T18:05:33.892Z</time></trkpt><trkpt lat="31.0938167" lon="-6.4571883"><ele>1312.0</ele><time>2026-04-23T18:05:34.892Z</time></trkpt><trkpt lat="31.0937267" lon="-6.4574017"><ele>1311.0</ele><time>2026-04-23T18:05:35.892Z</time></trkpt><trkpt lat="31.093635" lon="-6.4576217"><ele>1310.0</ele><time>2026-04-23T18:05:36.892Z</time></trkpt><trkpt lat="31.0935367" lon="-6.457845"><ele>1309.0</ele><time>2026-04-23T18:05:37.892Z</time></trkpt><trkpt lat="31.0934183" lon="-6.4580867"><ele>1309.0</ele><time>2026-04-23T18:05:38.892Z</time></trkpt><trkpt lat="31.0933083" lon="-6.458345"><ele>1309.0</ele><time>2026-04-23T18:05:39.892Z</time></trkpt><trkpt lat="31.093195" lon="-6.4586233"><ele>1307.0</ele><time>2026-04-23T18:05:40.892Z</time></trkpt><trkpt lat="31.0930833" lon="-6.4589067"><ele>1305.0</ele><time>2026-04-23T18:05:41.892Z</time></trkpt><trkpt lat="31.0929683" lon="-6.4591933"><ele>1305.0</ele><time>2026-04-23T18:05:42.892Z</time></trkpt><trkpt lat="31.092845" lon="-6.4594783"><ele>1305.0</ele><time>2026-04-23T18:05:43.892Z</time></trkpt><trkpt lat="31.0927233" lon="-6.4597633"><ele>1304.5</ele><time>2026-04-23T18:05:44.892Z</time></trkpt><trkpt lat="31.092605" lon="-6.46004"><ele>1304.0</ele><time>2026-04-23T18:05:45.892Z</time></trkpt><trkpt lat="31.09249" lon="-6.4603083"><ele>1303.5</ele><time>2026-04-23T18:05:46.892Z</time></trkpt><trkpt lat="31.0923783" lon="-6.4605767"><ele>1303.0</ele><time>2026-04-23T18:05:47.892Z</time></trkpt><trkpt lat="31.0922683" lon="-6.4608383"><ele>1303.0</ele><time>2026-04-23T18:05:48.892Z</time></trkpt><trkpt lat="31.0921617" lon="-6.4610867"><ele>1303.0</ele><time>2026-04-23T18:05:49.892Z</time></trkpt><trkpt lat="31.0920633" lon="-6.4613267"><ele>1303.3333333333333</ele><time>2026-04-23T18:05:50.891Z</time></trkpt><trkpt lat="31.0919617" lon="-6.46156"><ele>1303.6666666666667</ele><time>2026-04-23T18:05:51.892Z</time></trkpt><trkpt lat="31.09187" lon="-6.461795"><ele>1304.0</ele><time>2026-04-23T18:05:52.892Z</time></trkpt><trkpt lat="31.09178" lon="-6.4620217"><ele>1303.3333333333335</ele><time>2026-04-23T18:05:53.892Z</time></trkpt><trkpt lat="31.0916833" lon="-6.4622483"><ele>1302.6666666666667</ele><time>2026-04-23T18:05:54.892Z</time></trkpt><trkpt lat="31.0915867" lon="-6.46248"><ele>1302.0</ele><time>2026-04-23T18:05:55.891Z</time></trkpt><trkpt lat="31.091495" lon="-6.46271"><ele>1302.0</ele><time>2026-04-23T18:05:56.891Z</time></trkpt><trkpt lat="31.091395" lon="-6.4629433"><ele>1302.0</ele><time>2026-04-23T18:05:57.891Z</time></trkpt><trkpt lat="31.0912917" lon="-6.4631683"><ele>1302.0</ele><time>2026-04-23T18:05:58.892Z</time></trkpt><trkpt lat="31.091195" lon="-6.46338"><ele>1300.3333333333333</ele><time>2026-04-23T18:05:59.892Z</time></trkpt><trkpt lat="31.09109" lon="-6.4635733"><ele>1298.6666666666665</ele><time>2026-04-23T18:06:00.891Z</time></trkpt><trkpt lat="31.0909833" lon="-6.4637633"><ele>1297.0</ele><time>2026-04-23T18:06:01.892Z</time></trkpt><trkpt lat="31.0908733" lon="-6.463935"><ele>1297.0</ele><time>2026-04-23T18:06:02.892Z</time></trkpt><trkpt lat="31.09077" lon="-6.4641117"><ele>1297.0</ele><time>2026-04-23T18:06:03.892Z</time></trkpt><trkpt lat="31.0906617" lon="-6.4642883"><ele>1297.0</ele><time>2026-04-23T18:06:04.892Z</time></trkpt><trkpt lat="31.0905533" lon="-6.4644667"><ele>1295.6666666666665</ele><time>2026-04-23T18:06:05.892Z</time></trkpt><trkpt lat="31.09045" lon="-6.4646467"><ele>1294.3333333333333</ele><time>2026-04-23T18:06:06.892Z</time></trkpt><trkpt lat="31.09034" lon="-6.464815"><ele>1293.0</ele><time>2026-04-23T18:06:07.892Z</time></trkpt><trkpt lat="31.09023" lon="-6.464975"><ele>1293.0</ele><time>2026-04-23T18:06:08.892Z</time></trkpt><trkpt lat="31.0901233" lon="-6.4651317"><ele>1293.0</ele><time>2026-04-23T18:06:09.892Z</time></trkpt><trkpt lat="31.0900067" lon="-6.4652833"><ele>1293.0</ele><time>2026-04-23T18:06:10.892Z</time></trkpt><trkpt lat="31.0898967" lon="-6.4654233"><ele>1292.3333333333333</ele><time>2026-04-23T18:06:11.892Z</time></trkpt><trkpt lat="31.0897833" lon="-6.465565"><ele>1291.6666666666665</ele><time>2026-04-23T18:06:12.892Z</time></trkpt><trkpt lat="31.0896733" lon="-6.4657033"><ele>1291.0</ele><time>2026-04-23T18:06:13.892Z</time></trkpt><trkpt lat="31.0895617" lon="-6.4658383"><ele>1291.0</ele><time>2026-04-23T18:06:14.891Z</time></trkpt><trkpt lat="31.0894517" lon="-6.4659683"><ele>1291.0</ele><time>2026-04-23T18:06:15.892Z</time></trkpt><trkpt lat="31.0893417" lon="-6.46612"><ele>1291.0</ele><time>2026-04-23T18:06:16.892Z</time></trkpt><trkpt lat="31.08923" lon="-6.46627"><ele>1290.6666666666665</ele><time>2026-04-23T18:06:17.892Z</time></trkpt><trkpt lat="31.0891267" lon="-6.46641"><ele>1290.3333333333333</ele><time>2026-04-23T18:06:18.892Z</time></trkpt><trkpt lat="31.0890217" lon="-6.4665367"><ele>1290.0</ele><time>2026-04-23T18:06:19.891Z</time></trkpt><trkpt lat="31.0889233" lon="-6.4666667"><ele>1290.0</ele><time>2026-04-23T18:06:20.892Z</time></trkpt><trkpt lat="31.0888217" lon="-6.466795"><ele>1290.0</ele><time>2026-04-23T18:06:21.892Z</time></trkpt><trkpt lat="31.0887167" lon="-6.466925"><ele>1290.0</ele><time>2026-04-23T18:06:22.892Z</time></trkpt><trkpt lat="31.0886167" lon="-6.4670667"><ele>1289.6666666666667</ele><time>2026-04-23T18:06:23.892Z</time></trkpt><trkpt lat="31.0885233" lon="-6.4672083"><ele>1289.3333333333335</ele><time>2026-04-23T18:06:24.892Z</time></trkpt><trkpt lat="31.08843" lon="-6.4673633"><ele>1289.0</ele><time>2026-04-23T18:06:25.892Z</time></trkpt><trkpt lat="31.0883317" lon="-6.4675133"><ele>1288.3333333333335</ele><time>2026-04-23T18:06:26.892Z</time></trkpt><trkpt lat="31.0882367" lon="-6.467665"><ele>1287.6666666666667</ele><time>2026-04-23T18:06:27.892Z</time></trkpt><trkpt lat="31.08814" lon="-6.4678233"><ele>1287.0</ele><time>2026-04-23T18:06:28.892Z</time></trkpt><trkpt lat="31.088045" lon="-6.4679867"><ele>1287.0</ele><time>2026-04-23T18:06:29.891Z</time></trkpt><trkpt lat="31.0879467" lon="-6.4681467"><ele>1287.0</ele><time>2026-04-23T18:06:30.892Z</time></trkpt><trkpt lat="31.0878633" lon="-6.4683"><ele>1287.0</ele><time>2026-04-23T18:06:31.892Z</time></trkpt><trkpt lat="31.0877833" lon="-6.4684367"><ele>1287.0</ele><time>2026-04-23T18:06:32.892Z</time></trkpt><trkpt lat="31.0877083" lon="-6.4685533"><ele>1287.0</ele><time>2026-04-23T18:06:33.891Z</time></trkpt><trkpt lat="31.087625" lon="-6.4686533"><ele>1287.0</ele><time>2026-04-23T18:06:34.892Z</time></trkpt><trkpt lat="31.08753" lon="-6.4687367"><ele>1287.0</ele><time>2026-04-23T18:06:35.891Z</time></trkpt><trkpt lat="31.0874217" lon="-6.468805"><ele>1287.25</ele><time>2026-04-23T18:06:36.892Z</time></trkpt><trkpt lat="31.0873083" lon="-6.468875"><ele>1287.5</ele><time>2026-04-23T18:06:37.892Z</time></trkpt><trkpt lat="31.0872017" lon="-6.4689483"><ele>1287.75</ele><time>2026-04-23T18:06:38.892Z</time></trkpt><trkpt lat="31.087095" lon="-6.4690167"><ele>1288.0</ele><time>2026-04-23T18:06:39.892Z</time></trkpt><trkpt lat="31.0869967" lon="-6.469085"><ele>1288.0</ele><time>2026-04-23T18:06:40.89Z</time></trkpt><trkpt lat="31.0869017" lon="-6.46917"><ele>1288.0</ele><time>2026-04-23T18:06:41.891Z</time></trkpt><trkpt lat="31.08681" lon="-6.4692767"><ele>1288.0</ele><time>2026-04-23T18:06:42.891Z</time></trkpt><trkpt lat="31.0867117" lon="-6.4693883"><ele>1288.0</ele><time>2026-04-23T18:06:43.891Z</time></trkpt><trkpt lat="31.08661" lon="-6.4695133"><ele>1289.3333333333333</ele><time>2026-04-23T18:06:44.891Z</time></trkpt><trkpt lat="31.0865117" lon="-6.4696417"><ele>1290.6666666666667</ele><time>2026-04-23T18:06:45.891Z</time></trkpt><trkpt lat="31.086405" lon="-6.469765"><ele>1292.0</ele><time>2026-04-23T18:06:46.891Z</time></trkpt><trkpt lat="31.086295" lon="-6.46989"><ele>1292.0</ele><time>2026-04-23T18:06:47.891Z</time></trkpt><trkpt lat="31.0861967" lon="-6.4700167"><ele>1292.0</ele><time>2026-04-23T18:06:48.891Z</time></trkpt><trkpt lat="31.086105" lon="-6.47014"><ele>1292.0</ele><time>2026-04-23T18:06:49.891Z</time></trkpt><trkpt lat="31.08603" lon="-6.4702717"><ele>1292.0</ele><time>2026-04-23T18:06:50.891Z</time></trkpt><trkpt lat="31.0859617" lon="-6.4703967"><ele>1292.5</ele><time>2026-04-23T18:06:51.891Z</time></trkpt><trkpt lat="31.0858967" lon="-6.4705267"><ele>1293.0</ele><time>2026-04-23T18:06:52.89Z</time></trkpt><trkpt lat="31.0858417" lon="-6.47066"><ele>1293.5</ele><time>2026-04-23T18:06:53.891Z</time></trkpt><trkpt lat="31.0857933" lon="-6.4708083"><ele>1294.0</ele><time>2026-04-23T18:06:54.89Z</time></trkpt><trkpt lat="31.0857533" lon="-6.4709783"><ele>1294.0</ele><time>2026-04-23T18:06:55.891Z</time></trkpt><trkpt lat="31.0857117" lon="-6.4711533"><ele>1294.0</ele><time>2026-04-23T18:06:56.89Z</time></trkpt><trkpt lat="31.0856717" lon="-6.4713367"><ele>1294.0</ele><time>2026-04-23T18:06:57.891Z</time></trkpt><trkpt lat="31.085635" lon="-6.471535"><ele>1293.6666666666665</ele><time>2026-04-23T18:06:58.891Z</time></trkpt><trkpt lat="31.0856067" lon="-6.4717317"><ele>1293.3333333333333</ele><time>2026-04-23T18:06:59.891Z</time></trkpt><trkpt lat="31.0855833" lon="-6.4719333"><ele>1293.0</ele><time>2026-04-23T18:07:00.891Z</time></trkpt><trkpt lat="31.0855383" lon="-6.4721083"><ele>1293.0</ele><time>2026-04-23T18:07:01.891Z</time></trkpt><trkpt lat="31.0854867" lon="-6.4722917"><ele>1293.0</ele><time>2026-04-23T18:07:02.891Z</time></trkpt><trkpt lat="31.0854267" lon="-6.472475"><ele>1293.0</ele><time>2026-04-23T18:07:03.891Z</time></trkpt><trkpt lat="31.085375" lon="-6.47266"><ele>1293.0</ele><time>2026-04-23T18:07:04.89Z</time></trkpt><trkpt lat="31.0853267" lon="-6.4728467"><ele>1293.0</ele><time>2026-04-23T18:07:05.891Z</time></trkpt><trkpt lat="31.085275" lon="-6.4730333"><ele>1293.0</ele><time>2026-04-23T18:07:06.891Z</time></trkpt><trkpt lat="31.0852217" lon="-6.473215"><ele>1291.6666666666667</ele><time>2026-04-23T18:07:07.89Z</time></trkpt><trkpt lat="31.085155" lon="-6.4733733"><ele>1290.3333333333335</ele><time>2026-04-23T18:07:08.891Z</time></trkpt><trkpt lat="31.0850983" lon="-6.4735467"><ele>1289.0</ele><time>2026-04-23T18:07:09.89Z</time></trkpt><trkpt lat="31.0850367" lon="-6.473715"><ele>1287.75</ele><time>2026-04-23T18:07:10.891Z</time></trkpt><trkpt lat="31.084975" lon="-6.473875"><ele>1286.5</ele><time>2026-04-23T18:07:11.891Z</time></trkpt><trkpt lat="31.0849167" lon="-6.4740267"><ele>1285.25</ele><time>2026-04-23T18:07:12.89Z</time></trkpt><trkpt lat="31.0848517" lon="-6.4741667"><ele>1284.0</ele><time>2026-04-23T18:07:13.891Z</time></trkpt><trkpt lat="31.0847867" lon="-6.4743033"><ele>1283.25</ele><time>2026-04-23T18:07:14.891Z</time></trkpt><trkpt lat="31.0847267" lon="-6.474435"><ele>1282.5</ele><time>2026-04-23T18:07:15.89Z</time></trkpt><trkpt lat="31.084665" lon="-6.4745833"><ele>1281.75</ele><time>2026-04-23T18:07:16.89Z</time></trkpt><trkpt lat="31.084605" lon="-6.4747467"><ele>1281.0</ele><time>2026-04-23T18:07:17.89Z</time></trkpt><trkpt lat="31.0845367" lon="-6.4749217"><ele>1281.0</ele><time>2026-04-23T18:07:18.891Z</time></trkpt><trkpt lat="31.08447" lon="-6.4751033"><ele>1281.0</ele><time>2026-04-23T18:07:19.891Z</time></trkpt><trkpt lat="31.0843983" lon="-6.4752917"><ele>1281.0</ele><time>2026-04-23T18:07:20.891Z</time></trkpt><trkpt lat="31.0843267" lon="-6.4754683"><ele>1281.0</ele><time>2026-04-23T18:07:21.89Z</time></trkpt><trkpt lat="31.0842733" lon="-6.47565"><ele>1281.0</ele><time>2026-04-23T18:07:22.89Z</time></trkpt><trkpt lat="31.0842417" lon="-6.475855"><ele>1281.0</ele><time>2026-04-23T18:07:23.891Z</time></trkpt><trkpt lat="31.0842083" lon="-6.4760633"><ele>1281.6666666666667</ele><time>2026-04-23T18:07:24.891Z</time></trkpt><trkpt lat="31.08419" lon="-6.4762833"><ele>1282.3333333333335</ele><time>2026-04-23T18:07:25.89Z</time></trkpt><trkpt lat="31.0841833" lon="-6.476515"><ele>1283.0</ele><time>2026-04-23T18:07:26.891Z</time></trkpt><trkpt lat="31.0841833" lon="-6.47675"><ele>1283.0</ele><time>2026-04-23T18:07:27.89Z</time></trkpt><trkpt lat="31.0841583" lon="-6.4769833"><ele>1283.0</ele><time>2026-04-23T18:07:28.89Z</time></trkpt><trkpt lat="31.08413" lon="-6.477195"><ele>1283.0</ele><time>2026-04-23T18:07:29.891Z</time></trkpt><trkpt lat="31.084075" lon="-6.47739"><ele>1283.0</ele><time>2026-04-23T18:07:30.89Z</time></trkpt><trkpt lat="31.083995" lon="-6.4776017"><ele>1283.0</ele><time>2026-04-23T18:07:31.891Z</time></trkpt><trkpt lat="31.0839067" lon="-6.4778367"><ele>1283.0</ele><time>2026-04-23T18:07:32.89Z</time></trkpt><trkpt lat="31.083825" lon="-6.478085"><ele>1283.0</ele><time>2026-04-23T18:07:33.891Z</time></trkpt><trkpt lat="31.08373" lon="-6.4783317"><ele>1283.0</ele><time>2026-04-23T18:07:34.891Z</time></trkpt><trkpt lat="31.0836417" lon="-6.47859"><ele>1283.0</ele><time>2026-04-23T18:07:35.891Z</time></trkpt><trkpt lat="31.0835517" lon="-6.4788367"><ele>1283.0</ele><time>2026-04-23T18:07:36.89Z</time></trkpt><trkpt lat="31.0834617" lon="-6.479085"><ele>1283.0</ele><time>2026-04-23T18:07:37.891Z</time></trkpt><trkpt lat="31.083365" lon="-6.4793333"><ele>1283.0</ele><time>2026-04-23T18:07:38.891Z</time></trkpt><trkpt lat="31.0832717" lon="-6.479585"><ele>1281.5</ele><time>2026-04-23T18:07:39.89Z</time></trkpt><trkpt lat="31.0831783" lon="-6.47984"><ele>1280.0</ele><time>2026-04-23T18:07:40.891Z</time></trkpt><trkpt lat="31.0830933" lon="-6.48009"><ele>1280.0</ele><time>2026-04-23T18:07:41.89Z</time></trkpt><trkpt lat="31.083015" lon="-6.4803367"><ele>1280.0</ele><time>2026-04-23T18:07:42.891Z</time></trkpt><trkpt lat="31.0829367" lon="-6.4805667"><ele>1280.0</ele><time>2026-04-23T18:07:43.89Z</time></trkpt><trkpt lat="31.0828533" lon="-6.4807967"><ele>1279.3333333333335</ele><time>2026-04-23T18:07:44.891Z</time></trkpt><trkpt lat="31.0827733" lon="-6.4810367"><ele>1278.6666666666667</ele><time>2026-04-23T18:07:45.891Z</time></trkpt><trkpt lat="31.0826817" lon="-6.4812767"><ele>1278.0</ele><time>2026-04-23T18:07:46.891Z</time></trkpt><trkpt lat="31.082595" lon="-6.4815283"><ele>1278.0</ele><time>2026-04-23T18:07:47.891Z</time></trkpt><trkpt lat="31.08251" lon="-6.4817917"><ele>1278.0</ele><time>2026-04-23T18:07:48.891Z</time></trkpt><trkpt lat="31.0824117" lon="-6.4820483"><ele>1278.0</ele><time>2026-04-23T18:07:49.89Z</time></trkpt><trkpt lat="31.0823183" lon="-6.482315"><ele>1278.0</ele><time>2026-04-23T18:07:50.891Z</time></trkpt><trkpt lat="31.0822217" lon="-6.48258"><ele>1278.0</ele><time>2026-04-23T18:07:51.891Z</time></trkpt><trkpt lat="31.0821317" lon="-6.4828417"><ele>1278.0</ele><time>2026-04-23T18:07:52.891Z</time></trkpt><trkpt lat="31.0820383" lon="-6.4830967"><ele>1278.0</ele><time>2026-04-23T18:07:53.891Z</time></trkpt><trkpt lat="31.081945" lon="-6.48336"><ele>1278.0</ele><time>2026-04-23T18:07:54.891Z</time></trkpt><trkpt lat="31.0818533" lon="-6.4836217"><ele>1277.5</ele><time>2026-04-23T18:07:55.891Z</time></trkpt><trkpt lat="31.08176" lon="-6.48388"><ele>1277.0</ele><time>2026-04-23T18:07:56.891Z</time></trkpt><trkpt lat="31.0816667" lon="-6.484145"><ele>1277.5</ele><time>2026-04-23T18:07:57.89Z</time></trkpt><trkpt lat="31.08157" lon="-6.48441"><ele>1278.0</ele><time>2026-04-23T18:07:58.89Z</time></trkpt><trkpt lat="31.0814767" lon="-6.48468"><ele>1275.5</ele><time>2026-04-23T18:07:59.891Z</time></trkpt><trkpt lat="31.08138" lon="-6.484955"><ele>1273.0</ele><time>2026-04-23T18:08:00.89Z</time></trkpt><trkpt lat="31.0812783" lon="-6.4852183"><ele>1270.5</ele><time>2026-04-23T18:08:01.891Z</time></trkpt><trkpt lat="31.0811817" lon="-6.4854917"><ele>1268.0</ele><time>2026-04-23T18:08:02.89Z</time></trkpt><trkpt lat="31.0810867" lon="-6.4857683"><ele>1268.0</ele><time>2026-04-23T18:08:03.891Z</time></trkpt><trkpt lat="31.0809883" lon="-6.48604"><ele>1268.0</ele><time>2026-04-23T18:08:04.891Z</time></trkpt><trkpt lat="31.0808917" lon="-6.4863083"><ele>1269.5</ele><time>2026-04-23T18:08:05.891Z</time></trkpt><trkpt lat="31.0807967" lon="-6.4865767"><ele>1271.0</ele><time>2026-04-23T18:08:06.891Z</time></trkpt><trkpt lat="31.0807017" lon="-6.48683"><ele>1270.5</ele><time>2026-04-23T18:08:07.891Z</time></trkpt><trkpt lat="31.0806133" lon="-6.487085"><ele>1270.0</ele><time>2026-04-23T18:08:08.891Z</time></trkpt><trkpt lat="31.0805217" lon="-6.4873367"><ele>1270.0</ele><time>2026-04-23T18:08:09.891Z</time></trkpt><trkpt lat="31.08043" lon="-6.48759"><ele>1270.0</ele><time>2026-04-23T18:08:10.891Z</time></trkpt><trkpt lat="31.0803367" lon="-6.48785"><ele>1272.5</ele><time>2026-04-23T18:08:11.891Z</time></trkpt><trkpt lat="31.0802433" lon="-6.4881067"><ele>1275.0</ele><time>2026-04-23T18:08:12.891Z</time></trkpt><trkpt lat="31.0801483" lon="-6.4883667"><ele>1275.0</ele><time>2026-04-23T18:08:13.89Z</time></trkpt><trkpt lat="31.0800517" lon="-6.4886267"><ele>1275.0</ele><time>2026-04-23T18:08:14.891Z</time></trkpt><trkpt lat="31.07996" lon="-6.4888867"><ele>1274.5</ele><time>2026-04-23T18:08:15.891Z</time></trkpt><trkpt lat="31.0798683" lon="-6.489155"><ele>1274.0</ele><time>2026-04-23T18:08:16.89Z</time></trkpt><trkpt lat="31.0797733" lon="-6.4894167"><ele>1274.0</ele><time>2026-04-23T18:08:17.891Z</time></trkpt><trkpt lat="31.079675" lon="-6.48968"><ele>1274.0</ele><time>2026-04-23T18:08:18.891Z</time></trkpt><trkpt lat="31.0795833" lon="-6.4899517"><ele>1274.0</ele><time>2026-04-23T18:08:19.89Z</time></trkpt><trkpt lat="31.0794933" lon="-6.490225"><ele>1274.0</ele><time>2026-04-23T18:08:20.891Z</time></trkpt><trkpt lat="31.0794017" lon="-6.4904967"><ele>1274.0</ele><time>2026-04-23T18:08:21.891Z</time></trkpt><trkpt lat="31.07931" lon="-6.4907717"><ele>1274.0</ele><time>2026-04-23T18:08:22.891Z</time></trkpt><trkpt lat="31.0792067" lon="-6.4910417"><ele>1274.5</ele><time>2026-04-23T18:08:23.89Z</time></trkpt><trkpt lat="31.0791067" lon="-6.4913183"><ele>1275.0</ele><time>2026-04-23T18:08:24.891Z</time></trkpt><trkpt lat="31.07901" lon="-6.4915983"><ele>1275.0</ele><time>2026-04-23T18:08:25.89Z</time></trkpt><trkpt lat="31.07891" lon="-6.4918717"><ele>1275.0</ele><time>2026-04-23T18:08:26.891Z</time></trkpt><trkpt lat="31.0788133" lon="-6.4921333"><ele>1275.0</ele><time>2026-04-23T18:08:27.891Z</time></trkpt><trkpt lat="31.07873" lon="-6.4924"><ele>1275.0</ele><time>2026-04-23T18:08:28.89Z</time></trkpt><trkpt lat="31.078635" lon="-6.492655"><ele>1275.0</ele><time>2026-04-23T18:08:29.891Z</time></trkpt><trkpt lat="31.0785383" lon="-6.492905"><ele>1275.0</ele><time>2026-04-23T18:08:30.891Z</time></trkpt><trkpt lat="31.0784417" lon="-6.4931533"><ele>1274.5</ele><time>2026-04-23T18:08:31.89Z</time></trkpt><trkpt lat="31.0783517" lon="-6.4934033"><ele>1274.0</ele><time>2026-04-23T18:08:32.891Z</time></trkpt><trkpt lat="31.0782683" lon="-6.4936567"><ele>1272.0</ele><time>2026-04-23T18:08:33.891Z</time></trkpt><trkpt lat="31.0781817" lon="-6.493905"><ele>1270.0</ele><time>2026-04-23T18:08:34.891Z</time></trkpt><trkpt lat="31.07809" lon="-6.4941617"><ele>1270.0</ele><time>2026-04-23T18:08:35.891Z</time></trkpt><trkpt lat="31.0779967" lon="-6.4944183"><ele>1270.0</ele><time>2026-04-23T18:08:36.891Z</time></trkpt><trkpt lat="31.0779033" lon="-6.4946733"><ele>1270.5</ele><time>2026-04-23T18:08:37.891Z</time></trkpt><trkpt lat="31.0778133" lon="-6.4949267"><ele>1271.0</ele><time>2026-04-23T18:08:38.891Z</time></trkpt><trkpt lat="31.0777333" lon="-6.495175"><ele>1271.0</ele><time>2026-04-23T18:08:39.891Z</time></trkpt><trkpt lat="31.0776567" lon="-6.49541"><ele>1271.0</ele><time>2026-04-23T18:08:40.89Z</time></trkpt><trkpt lat="31.0775817" lon="-6.495635"><ele>1271.0</ele><time>2026-04-23T18:08:41.891Z</time></trkpt><trkpt lat="31.07751" lon="-6.4958483"><ele>1271.3333333333335</ele><time>2026-04-23T18:08:42.89Z</time></trkpt><trkpt lat="31.07744" lon="-6.49606"><ele>1271.6666666666667</ele><time>2026-04-23T18:08:43.891Z</time></trkpt><trkpt lat="31.0773683" lon="-6.496275"><ele>1272.0</ele><time>2026-04-23T18:08:44.891Z</time></trkpt><trkpt lat="31.0773017" lon="-6.4964883"><ele>1269.3333333333333</ele><time>2026-04-23T18:08:45.891Z</time></trkpt><trkpt lat="31.077225" lon="-6.496705"><ele>1266.6666666666665</ele><time>2026-04-23T18:08:46.891Z</time></trkpt><trkpt lat="31.07716" lon="-6.4969283"><ele>1264.0</ele><time>2026-04-23T18:08:47.891Z</time></trkpt><trkpt lat="31.0770933" lon="-6.49714"><ele>1262.0</ele><time>2026-04-23T18:08:48.891Z</time></trkpt><trkpt lat="31.0770317" lon="-6.4973517"><ele>1260.0</ele><time>2026-04-23T18:08:49.891Z</time></trkpt><trkpt lat="31.0769617" lon="-6.497565"><ele>1258.0</ele><time>2026-04-23T18:08:50.89Z</time></trkpt><trkpt lat="31.0768917" lon="-6.4977783"><ele>1258.6666666666665</ele><time>2026-04-23T18:08:51.891Z</time></trkpt><trkpt lat="31.0768167" lon="-6.4979933"><ele>1259.3333333333333</ele><time>2026-04-23T18:08:52.891Z</time></trkpt><trkpt lat="31.076745" lon="-6.49821"><ele>1260.0</ele><time>2026-04-23T18:08:53.89Z</time></trkpt><trkpt lat="31.0766733" lon="-6.49843"><ele>1260.0</ele><time>2026-04-23T18:08:54.89Z</time></trkpt><trkpt lat="31.076605" lon="-6.49864"><ele>1260.0</ele><time>2026-04-23T18:08:55.891Z</time></trkpt><trkpt lat="31.0765367" lon="-6.498845"><ele>1260.0</ele><time>2026-04-23T18:08:56.891Z</time></trkpt><trkpt lat="31.07647" lon="-6.49906"><ele>1258.6666666666667</ele><time>2026-04-23T18:08:57.89Z</time></trkpt><trkpt lat="31.0764067" lon="-6.49928"><ele>1257.3333333333335</ele><time>2026-04-23T18:08:58.89Z</time></trkpt><trkpt lat="31.0763383" lon="-6.499505"><ele>1256.0</ele><time>2026-04-23T18:08:59.891Z</time></trkpt><trkpt lat="31.0762683" lon="-6.499725"><ele>1255.6666666666667</ele><time>2026-04-23T18:09:00.89Z</time></trkpt><trkpt lat="31.0762" lon="-6.4999383"><ele>1255.3333333333333</ele><time>2026-04-23T18:09:01.891Z</time></trkpt><trkpt lat="31.0761333" lon="-6.5001333"><ele>1255.0</ele><time>2026-04-23T18:09:02.891Z</time></trkpt><trkpt lat="31.07607" lon="-6.500335"><ele>1254.6666666666665</ele><time>2026-04-23T18:09:03.89Z</time></trkpt><trkpt lat="31.0760033" lon="-6.5005383"><ele>1254.3333333333333</ele><time>2026-04-23T18:09:04.891Z</time></trkpt><trkpt lat="31.075935" lon="-6.5007483"><ele>1254.0</ele><time>2026-04-23T18:09:05.891Z</time></trkpt><trkpt lat="31.0758617" lon="-6.5009567"><ele>1254.0</ele><time>2026-04-23T18:09:06.891Z</time></trkpt><trkpt lat="31.07579" lon="-6.5011583"><ele>1254.0</ele><time>2026-04-23T18:09:07.89Z</time></trkpt><trkpt lat="31.0757283" lon="-6.5013683"><ele>1254.0</ele><time>2026-04-23T18:09:08.891Z</time></trkpt><trkpt lat="31.0756783" lon="-6.501585"><ele>1254.6666666666667</ele><time>2026-04-23T18:09:09.891Z</time></trkpt><trkpt lat="31.07561" lon="-6.501775"><ele>1255.3333333333335</ele><time>2026-04-23T18:09:10.891Z</time></trkpt><trkpt lat="31.0755417" lon="-6.5019667"><ele>1256.0</ele><time>2026-04-23T18:09:11.891Z</time></trkpt><trkpt lat="31.0754783" lon="-6.5021667"><ele>1256.0</ele><time>2026-04-23T18:09:12.89Z</time></trkpt><trkpt lat="31.07541" lon="-6.5023767"><ele>1256.0</ele><time>2026-04-23T18:09:13.891Z</time></trkpt><trkpt lat="31.0753333" lon="-6.5025983"><ele>1256.0</ele><time>2026-04-23T18:09:14.891Z</time></trkpt><trkpt lat="31.075245" lon="-6.5028383"><ele>1254.0</ele><time>2026-04-23T18:09:15.891Z</time></trkpt><trkpt lat="31.0751717" lon="-6.5030983"><ele>1252.0</ele><time>2026-04-23T18:09:16.89Z</time></trkpt><trkpt lat="31.0750967" lon="-6.5033717"><ele>1252.0</ele><time>2026-04-23T18:09:17.891Z</time></trkpt><trkpt lat="31.075005" lon="-6.50368"><ele>1252.0</ele><time>2026-04-23T18:09:18.891Z</time></trkpt><trkpt lat="31.074895" lon="-6.5040133"><ele>1250.0</ele><time>2026-04-23T18:09:19.89Z</time></trkpt><trkpt lat="31.0747683" lon="-6.5043567"><ele>1248.0</ele><time>2026-04-23T18:09:20.89Z</time></trkpt><trkpt lat="31.0746617" lon="-6.5047083"><ele>1247.5</ele><time>2026-04-23T18:09:21.89Z</time></trkpt><trkpt lat="31.0745667" lon="-6.505035"><ele>1247.0</ele><time>2026-04-23T18:09:22.891Z</time></trkpt><trkpt lat="31.0744767" lon="-6.5053383"><ele>1248.5</ele><time>2026-04-23T18:09:23.891Z</time></trkpt><trkpt lat="31.0743933" lon="-6.5056367"><ele>1250.0</ele><time>2026-04-23T18:09:24.89Z</time></trkpt><trkpt lat="31.0743067" lon="-6.5059067"><ele>1250.0</ele><time>2026-04-23T18:09:25.89Z</time></trkpt><trkpt lat="31.074215" lon="-6.5061817"><ele>1250.0</ele><time>2026-04-23T18:09:26.891Z</time></trkpt><trkpt lat="31.0741283" lon="-6.50645"><ele>1248.5</ele><time>2026-04-23T18:09:27.891Z</time></trkpt><trkpt lat="31.0740433" lon="-6.5067167"><ele>1247.0</ele><time>2026-04-23T18:09:28.89Z</time></trkpt><trkpt lat="31.0739617" lon="-6.5069883"><ele>1247.5</ele><time>2026-04-23T18:09:29.891Z</time></trkpt><trkpt lat="31.0738683" lon="-6.5072533"><ele>1248.0</ele><time>2026-04-23T18:09:30.891Z</time></trkpt><trkpt lat="31.073785" lon="-6.5075383"><ele>1248.0</ele><time>2026-04-23T18:09:31.891Z</time></trkpt><trkpt lat="31.0737033" lon="-6.50782"><ele>1248.0</ele><time>2026-04-23T18:09:32.891Z</time></trkpt><trkpt lat="31.07362" lon="-6.5080983"><ele>1247.5</ele><time>2026-04-23T18:09:33.891Z</time></trkpt><trkpt lat="31.0735433" lon="-6.5083767"><ele>1247.0</ele><time>2026-04-23T18:09:34.891Z</time></trkpt><trkpt lat="31.0734767" lon="-6.508655"><ele>1248.5</ele><time>2026-04-23T18:09:35.89Z</time></trkpt><trkpt lat="31.0734117" lon="-6.50893"><ele>1250.0</ele><time>2026-04-23T18:09:36.891Z</time></trkpt><trkpt lat="31.0733533" lon="-6.5092167"><ele>1250.0</ele><time>2026-04-23T18:09:37.89Z</time></trkpt><trkpt lat="31.07328" lon="-6.5094883"><ele>1250.0</ele><time>2026-04-23T18:09:38.891Z</time></trkpt><trkpt lat="31.07321" lon="-6.5097633"><ele>1248.5</ele><time>2026-04-23T18:09:39.891Z</time></trkpt><trkpt lat="31.0731433" lon="-6.5100417"><ele>1247.0</ele><time>2026-04-23T18:09:40.891Z</time></trkpt><trkpt lat="31.073075" lon="-6.510325"><ele>1248.0</ele><time>2026-04-23T18:09:41.891Z</time></trkpt><trkpt lat="31.0730133" lon="-6.5106217"><ele>1249.0</ele><time>2026-04-23T18:09:42.89Z</time></trkpt><trkpt lat="31.0729533" lon="-6.510925"><ele>1249.0</ele><time>2026-04-23T18:09:43.891Z</time></trkpt><trkpt lat="31.0728833" lon="-6.5112233"><ele>1249.0</ele><time>2026-04-23T18:09:44.891Z</time></trkpt><trkpt lat="31.0728067" lon="-6.5115133"><ele>1247.5</ele><time>2026-04-23T18:09:45.891Z</time></trkpt><trkpt lat="31.0727117" lon="-6.51179"><ele>1246.0</ele><time>2026-04-23T18:09:46.891Z</time></trkpt><trkpt lat="31.0726133" lon="-6.5120617"><ele>1243.5</ele><time>2026-04-23T18:09:47.891Z</time></trkpt><trkpt lat="31.07251" lon="-6.5123217"><ele>1241.0</ele><time>2026-04-23T18:09:48.891Z</time></trkpt><trkpt lat="31.0724117" lon="-6.5125883"><ele>1240.0</ele><time>2026-04-23T18:09:49.89Z</time></trkpt><trkpt lat="31.072315" lon="-6.5128583"><ele>1239.0</ele><time>2026-04-23T18:09:50.891Z</time></trkpt><trkpt lat="31.0722167" lon="-6.5131283"><ele>1237.0</ele><time>2026-04-23T18:09:51.891Z</time></trkpt><trkpt lat="31.0721233" lon="-6.5134017"><ele>1235.0</ele><time>2026-04-23T18:09:52.891Z</time></trkpt><trkpt lat="31.0720233" lon="-6.513665"><ele>1235.5</ele><time>2026-04-23T18:09:53.891Z</time></trkpt><trkpt lat="31.071925" lon="-6.51393"><ele>1236.0</ele><time>2026-04-23T18:09:54.89Z</time></trkpt><trkpt lat="31.071825" lon="-6.5141883"><ele>1236.0</ele><time>2026-04-23T18:09:55.891Z</time></trkpt><trkpt lat="31.0717283" lon="-6.51445"><ele>1236.0</ele><time>2026-04-23T18:09:56.891Z</time></trkpt><trkpt lat="31.0716383" lon="-6.514715"><ele>1235.0</ele><time>2026-04-23T18:09:57.891Z</time></trkpt><trkpt lat="31.07155" lon="-6.5149767"><ele>1234.0</ele><time>2026-04-23T18:09:58.891Z</time></trkpt><trkpt lat="31.0714567" lon="-6.5152367"><ele>1232.5</ele><time>2026-04-23T18:09:59.89Z</time></trkpt><trkpt lat="31.071355" lon="-6.5154817"><ele>1231.0</ele><time>2026-04-23T18:10:00.891Z</time></trkpt><trkpt lat="31.0712583" lon="-6.5157333"><ele>1231.0</ele><time>2026-04-23T18:10:01.891Z</time></trkpt><trkpt lat="31.07116" lon="-6.515985"><ele>1231.0</ele><time>2026-04-23T18:10:02.891Z</time></trkpt><trkpt lat="31.0710717" lon="-6.5162433"><ele>1231.0</ele><time>2026-04-23T18:10:03.89Z</time></trkpt><trkpt lat="31.0709783" lon="-6.5164883"><ele>1231.0</ele><time>2026-04-23T18:10:04.891Z</time></trkpt><trkpt lat="31.0708983" lon="-6.5167267"><ele>1231.0</ele><time>2026-04-23T18:10:05.891Z</time></trkpt><trkpt lat="31.0708133" lon="-6.5169533"><ele>1231.3333333333333</ele><time>2026-04-23T18:10:06.891Z</time></trkpt><trkpt lat="31.07073" lon="-6.5171767"><ele>1231.6666666666667</ele><time>2026-04-23T18:10:07.891Z</time></trkpt><trkpt lat="31.0706483" lon="-6.5174083"><ele>1232.0</ele><time>2026-04-23T18:10:08.891Z</time></trkpt><trkpt lat="31.070565" lon="-6.5176333"><ele>1232.0</ele><time>2026-04-23T18:10:09.891Z</time></trkpt><trkpt lat="31.0704733" lon="-6.5178417"><ele>1232.0</ele><time>2026-04-23T18:10:10.891Z</time></trkpt><trkpt lat="31.0703983" lon="-6.5180517"><ele>1232.0</ele><time>2026-04-23T18:10:11.891Z</time></trkpt><trkpt lat="31.0703217" lon="-6.51825"><ele>1231.6666666666667</ele><time>2026-04-23T18:10:12.891Z</time></trkpt><trkpt lat="31.07025" lon="-6.5184417"><ele>1231.3333333333333</ele><time>2026-04-23T18:10:13.891Z</time></trkpt><trkpt lat="31.0701917" lon="-6.5186183"><ele>1231.0</ele><time>2026-04-23T18:10:14.891Z</time></trkpt><trkpt lat="31.070145" lon="-6.5187883"><ele>1230.6666666666665</ele><time>2026-04-23T18:10:15.89Z</time></trkpt><trkpt lat="31.0701133" lon="-6.5189617"><ele>1230.3333333333333</ele><time>2026-04-23T18:10:16.891Z</time></trkpt><trkpt lat="31.0701033" lon="-6.519145"><ele>1230.0</ele><time>2026-04-23T18:10:17.891Z</time></trkpt><trkpt lat="31.0701" lon="-6.5193217"><ele>1230.0</ele><time>2026-04-23T18:10:18.891Z</time></trkpt><trkpt lat="31.0700917" lon="-6.5195033"><ele>1230.0</ele><time>2026-04-23T18:10:19.89Z</time></trkpt><trkpt lat="31.0700983" lon="-6.519705"><ele>1230.0</ele><time>2026-04-23T18:10:20.89Z</time></trkpt><trkpt lat="31.0701033" lon="-6.519915"><ele>1230.3333333333333</ele><time>2026-04-23T18:10:21.891Z</time></trkpt><trkpt lat="31.07011" lon="-6.520135"><ele>1230.6666666666665</ele><time>2026-04-23T18:10:22.891Z</time></trkpt><trkpt lat="31.07011" lon="-6.52035"><ele>1231.0</ele><time>2026-04-23T18:10:23.891Z</time></trkpt><trkpt lat="31.07012" lon="-6.52056"><ele>1229.0</ele><time>2026-04-23T18:10:24.891Z</time></trkpt><trkpt lat="31.0701267" lon="-6.5207583"><ele>1227.0</ele><time>2026-04-23T18:10:25.891Z</time></trkpt><trkpt lat="31.07013" lon="-6.5209417"><ele>1225.0</ele><time>2026-04-23T18:10:26.89Z</time></trkpt><trkpt lat="31.0701283" lon="-6.5211117"><ele>1225.25</ele><time>2026-04-23T18:10:27.891Z</time></trkpt><trkpt lat="31.0701117" lon="-6.5212767"><ele>1225.5</ele><time>2026-04-23T18:10:28.891Z</time></trkpt><trkpt lat="31.070085" lon="-6.52144"><ele>1225.75</ele><time>2026-04-23T18:10:29.891Z</time></trkpt><trkpt lat="31.0700383" lon="-6.52161"><ele>1226.0</ele><time>2026-04-23T18:10:30.891Z</time></trkpt><trkpt lat="31.0699867" lon="-6.5217967"><ele>1226.0</ele><time>2026-04-23T18:10:31.891Z</time></trkpt><trkpt lat="31.0699433" lon="-6.52199"><ele>1226.0</ele><time>2026-04-23T18:10:32.89Z</time></trkpt><trkpt lat="31.0699167" lon="-6.5221767"><ele>1226.0</ele><time>2026-04-23T18:10:33.891Z</time></trkpt><trkpt lat="31.069905" lon="-6.5223733"><ele>1227.3333333333335</ele><time>2026-04-23T18:10:34.891Z</time></trkpt><trkpt lat="31.0699" lon="-6.522585"><ele>1228.6666666666667</ele><time>2026-04-23T18:10:35.891Z</time></trkpt><trkpt lat="31.0698983" lon="-6.522795"><ele>1230.0</ele><time>2026-04-23T18:10:36.891Z</time></trkpt><trkpt lat="31.069895" lon="-6.5230017"><ele>1230.0</ele><time>2026-04-23T18:10:37.891Z</time></trkpt><trkpt lat="31.0699" lon="-6.5231933"><ele>1230.0</ele><time>2026-04-23T18:10:38.891Z</time></trkpt><trkpt lat="31.0698967" lon="-6.5233767"><ele>1230.0</ele><time>2026-04-23T18:10:39.891Z</time></trkpt><trkpt lat="31.0699" lon="-6.52356"><ele>1228.6666666666667</ele><time>2026-04-23T18:10:40.89Z</time></trkpt><trkpt lat="31.069905" lon="-6.52374"><ele>1227.3333333333335</ele><time>2026-04-23T18:10:41.89Z</time></trkpt><trkpt lat="31.0699167" lon="-6.523915"><ele>1226.0</ele><time>2026-04-23T18:10:42.891Z</time></trkpt><trkpt lat="31.069935" lon="-6.52409"><ele>1226.3333333333335</ele><time>2026-04-23T18:10:43.891Z</time></trkpt><trkpt lat="31.0699583" lon="-6.52428"><ele>1226.6666666666667</ele><time>2026-04-23T18:10:44.89Z</time></trkpt><trkpt lat="31.0699867" lon="-6.5244717"><ele>1227.0</ele><time>2026-04-23T18:10:45.891Z</time></trkpt><trkpt lat="31.0700167" lon="-6.5246767"><ele>1227.0</ele><time>2026-04-23T18:10:46.891Z</time></trkpt><trkpt lat="31.0700417" lon="-6.5248783"><ele>1227.0</ele><time>2026-04-23T18:10:47.891Z</time></trkpt><trkpt lat="31.070055" lon="-6.52508"><ele>1227.0</ele><time>2026-04-23T18:10:48.891Z</time></trkpt><trkpt lat="31.07006" lon="-6.525285"><ele>1227.0</ele><time>2026-04-23T18:10:49.89Z</time></trkpt><trkpt lat="31.07005" lon="-6.52549"><ele>1227.0</ele><time>2026-04-23T18:10:50.891Z</time></trkpt><trkpt lat="31.0700467" lon="-6.5257"><ele>1227.0</ele><time>2026-04-23T18:10:51.891Z</time></trkpt><trkpt lat="31.0700383" lon="-6.52591"><ele>1227.0</ele><time>2026-04-23T18:10:52.891Z</time></trkpt><trkpt lat="31.0700367" lon="-6.5261017"><ele>1227.0</ele><time>2026-04-23T18:10:53.891Z</time></trkpt><trkpt lat="31.07004" lon="-6.5262817"><ele>1227.0</ele><time>2026-04-23T18:10:54.891Z</time></trkpt><trkpt lat="31.070035" lon="-6.5264567"><ele>1225.6666666666667</ele><time>2026-04-23T18:10:55.89Z</time></trkpt><trkpt lat="31.0700417" lon="-6.5266467"><ele>1224.3333333333335</ele><time>2026-04-23T18:10:56.891Z</time></trkpt><trkpt lat="31.070045" lon="-6.5268333"><ele>1223.0</ele><time>2026-04-23T18:10:57.891Z</time></trkpt><trkpt lat="31.0700517" lon="-6.5270167"><ele>1225.3333333333335</ele><time>2026-04-23T18:10:58.89Z</time></trkpt><trkpt lat="31.0700567" lon="-6.5272033"><ele>1227.6666666666667</ele><time>2026-04-23T18:10:59.891Z</time></trkpt><trkpt lat="31.07005" lon="-6.5273917"><ele>1230.0</ele><time>2026-04-23T18:11:00.891Z</time></trkpt><trkpt lat="31.0700333" lon="-6.5275717"><ele>1230.0</ele><time>2026-04-23T18:11:01.89Z</time></trkpt><trkpt lat="31.0700033" lon="-6.5277383"><ele>1230.0</ele><time>2026-04-23T18:11:02.891Z</time></trkpt><trkpt lat="31.0699767" lon="-6.5279067"><ele>1230.0</ele><time>2026-04-23T18:11:03.891Z</time></trkpt><trkpt lat="31.0699283" lon="-6.52806"><ele>1230.0</ele><time>2026-04-23T18:11:04.89Z</time></trkpt><trkpt lat="31.0698667" lon="-6.5282017"><ele>1228.3333333333333</ele><time>2026-04-23T18:11:05.891Z</time></trkpt><trkpt lat="31.069805" lon="-6.5283683"><ele>1226.6666666666665</ele><time>2026-04-23T18:11:06.891Z</time></trkpt><trkpt lat="31.0697433" lon="-6.5285417"><ele>1225.0</ele><time>2026-04-23T18:11:07.891Z</time></trkpt><trkpt lat="31.069675" lon="-6.5287283"><ele>1225.0</ele><time>2026-04-23T18:11:08.89Z</time></trkpt><trkpt lat="31.0696117" lon="-6.528915"><ele>1225.0</ele><time>2026-04-23T18:11:09.89Z</time></trkpt><trkpt lat="31.0695483" lon="-6.52911"><ele>1225.0</ele><time>2026-04-23T18:11:10.891Z</time></trkpt><trkpt lat="31.06949" lon="-6.5293233"><ele>1225.0</ele><time>2026-04-23T18:11:11.891Z</time></trkpt><trkpt lat="31.0694267" lon="-6.5295517"><ele>1225.0</ele><time>2026-04-23T18:11:12.89Z</time></trkpt><trkpt lat="31.0693683" lon="-6.5297983"><ele>1225.0</ele><time>2026-04-23T18:11:13.89Z</time></trkpt><trkpt lat="31.069315" lon="-6.5300533"><ele>1225.0</ele><time>2026-04-23T18:11:14.89Z</time></trkpt><trkpt lat="31.0692667" lon="-6.5303167"><ele>1225.0</ele><time>2026-04-23T18:11:15.89Z</time></trkpt><trkpt lat="31.06921" lon="-6.53056"><ele>1225.0</ele><time>2026-04-23T18:11:16.891Z</time></trkpt><trkpt lat="31.0691567" lon="-6.5307967"><ele>1225.3333333333333</ele><time>2026-04-23T18:11:17.891Z</time></trkpt><trkpt lat="31.0691017" lon="-6.5310183"><ele>1225.6666666666667</ele><time>2026-04-23T18:11:18.89Z</time></trkpt><trkpt lat="31.06905" lon="-6.53123"><ele>1226.0</ele><time>2026-04-23T18:11:19.891Z</time></trkpt><trkpt lat="31.0690017" lon="-6.5314333"><ele>1225.3333333333335</ele><time>2026-04-23T18:11:20.891Z</time></trkpt><trkpt lat="31.068955" lon="-6.53163"><ele>1224.6666666666667</ele><time>2026-04-23T18:11:21.89Z</time></trkpt><trkpt lat="31.0689117" lon="-6.5318217"><ele>1224.0</ele><time>2026-04-23T18:11:22.891Z</time></trkpt><trkpt lat="31.0688667" lon="-6.53202"><ele>1224.6666666666667</ele><time>2026-04-23T18:11:23.891Z</time></trkpt><trkpt lat="31.068815" lon="-6.5322217"><ele>1225.3333333333335</ele><time>2026-04-23T18:11:24.891Z</time></trkpt><trkpt lat="31.0687683" lon="-6.532445"><ele>1226.0</ele><time>2026-04-23T18:11:25.891Z</time></trkpt><trkpt lat="31.0687067" lon="-6.5326617"><ele>1225.6666666666667</ele><time>2026-04-23T18:11:26.891Z</time></trkpt><trkpt lat="31.0686467" lon="-6.5328933"><ele>1225.3333333333333</ele><time>2026-04-23T18:11:27.891Z</time></trkpt><trkpt lat="31.0685883" lon="-6.53314"><ele>1225.0</ele><time>2026-04-23T18:11:28.891Z</time></trkpt><trkpt lat="31.0685283" lon="-6.5333983"><ele>1225.0</ele><time>2026-04-23T18:11:29.891Z</time></trkpt><trkpt lat="31.06847" lon="-6.533675"><ele>1225.0</ele><time>2026-04-23T18:11:30.891Z</time></trkpt><trkpt lat="31.0684" lon="-6.533945"><ele>1223.5</ele><time>2026-04-23T18:11:31.891Z</time></trkpt><trkpt lat="31.0683283" lon="-6.53422"><ele>1222.0</ele><time>2026-04-23T18:11:32.891Z</time></trkpt><trkpt lat="31.0682583" lon="-6.53451"><ele>1221.5</ele><time>2026-04-23T18:11:33.891Z</time></trkpt><trkpt lat="31.068185" lon="-6.5348067"><ele>1221.0</ele><time>2026-04-23T18:11:34.891Z</time></trkpt><trkpt lat="31.068105" lon="-6.53511"><ele>1222.0</ele><time>2026-04-23T18:11:35.891Z</time></trkpt><trkpt lat="31.0680333" lon="-6.53543"><ele>1223.0</ele><time>2026-04-23T18:11:36.89Z</time></trkpt><trkpt lat="31.067965" lon="-6.5357633"><ele>1223.0</ele><time>2026-04-23T18:11:37.89Z</time></trkpt><trkpt lat="31.067885" lon="-6.5360817"><ele>1223.0</ele><time>2026-04-23T18:11:38.891Z</time></trkpt><trkpt lat="31.0678117" lon="-6.5363833"><ele>1222.0</ele><time>2026-04-23T18:11:39.891Z</time></trkpt><trkpt lat="31.0677417" lon="-6.5366833"><ele>1221.0</ele><time>2026-04-23T18:11:40.891Z</time></trkpt><trkpt lat="31.0676733" lon="-6.536975"><ele>1221.0</ele><time>2026-04-23T18:11:41.891Z</time></trkpt><trkpt lat="31.0676067" lon="-6.537245"><ele>1221.0</ele><time>2026-04-23T18:11:42.89Z</time></trkpt><trkpt lat="31.0675517" lon="-6.537505"><ele>1221.0</ele><time>2026-04-23T18:11:43.89Z</time></trkpt><trkpt lat="31.0674933" lon="-6.53775"><ele>1221.0</ele><time>2026-04-23T18:11:44.891Z</time></trkpt><trkpt lat="31.0674367" lon="-6.5379833"><ele>1221.0</ele><time>2026-04-23T18:11:45.891Z</time></trkpt><trkpt lat="31.0673883" lon="-6.5382067"><ele>1221.0</ele><time>2026-04-23T18:11:46.891Z</time></trkpt><trkpt lat="31.0673383" lon="-6.538405"><ele>1221.0</ele><time>2026-04-23T18:11:47.89Z</time></trkpt><trkpt lat="31.0672933" lon="-6.538585"><ele>1221.0</ele><time>2026-04-23T18:11:48.89Z</time></trkpt><trkpt lat="31.06725" lon="-6.5387517"><ele>1221.0</ele><time>2026-04-23T18:11:49.89Z</time></trkpt><trkpt lat="31.0672133" lon="-6.5389183"><ele>1221.0</ele><time>2026-04-23T18:11:50.891Z</time></trkpt><trkpt lat="31.0671717" lon="-6.5390733"><ele>1221.0</ele><time>2026-04-23T18:11:51.891Z</time></trkpt><trkpt lat="31.067135" lon="-6.53923"><ele>1221.0</ele><time>2026-04-23T18:11:52.89Z</time></trkpt><trkpt lat="31.0671017" lon="-6.5393817"><ele>1221.0</ele><time>2026-04-23T18:11:53.891Z</time></trkpt><trkpt lat="31.0670667" lon="-6.53952"><ele>1221.0</ele><time>2026-04-23T18:11:54.891Z</time></trkpt><trkpt lat="31.0670333" lon="-6.539645"><ele>1221.0</ele><time>2026-04-23T18:11:55.89Z</time></trkpt><trkpt lat="31.06701" lon="-6.5397667"><ele>1221.0</ele><time>2026-04-23T18:11:56.891Z</time></trkpt><trkpt lat="31.067005" lon="-6.5398867"><ele>1221.0</ele><time>2026-04-23T18:11:57.891Z</time></trkpt><trkpt lat="31.0670067" lon="-6.5399983"><ele>1221.0</ele><time>2026-04-23T18:11:58.89Z</time></trkpt><trkpt lat="31.0670183" lon="-6.5401017"><ele>1221.0</ele><time>2026-04-23T18:11:59.891Z</time></trkpt><trkpt lat="31.0670317" lon="-6.540205"><ele>1221.0</ele><time>2026-04-23T18:12:00.891Z</time></trkpt><trkpt lat="31.0670383" lon="-6.5403017"><ele>1221.0</ele><time>2026-04-23T18:12:01.89Z</time></trkpt><trkpt lat="31.0670317" lon="-6.5403983"><ele>1221.0</ele><time>2026-04-23T18:12:02.89Z</time></trkpt><trkpt lat="31.0670117" lon="-6.5404833"><ele>1221.0</ele><time>2026-04-23T18:12:03.891Z</time></trkpt><trkpt lat="31.0669783" lon="-6.5405683"><ele>1220.8333333333333</ele><time>2026-04-23T18:12:04.891Z</time></trkpt><trkpt lat="31.0669317" lon="-6.5406533"><ele>1220.6666666666667</ele><time>2026-04-23T18:12:05.89Z</time></trkpt><trkpt lat="31.066875" lon="-6.5407333"><ele>1220.5</ele><time>2026-04-23T18:12:06.891Z</time></trkpt><trkpt lat="31.06682" lon="-6.5408183"><ele>1220.3333333333335</ele><time>2026-04-23T18:12:07.89Z</time></trkpt><trkpt lat="31.066775" lon="-6.54091"><ele>1220.1666666666667</ele><time>2026-04-23T18:12:08.891Z</time></trkpt><trkpt lat="31.066735" lon="-6.5409983"><ele>1220.0</ele><time>2026-04-23T18:12:09.891Z</time></trkpt><trkpt lat="31.0666983" lon="-6.541085"><ele>1220.0</ele><time>2026-04-23T18:12:10.891Z</time></trkpt><trkpt lat="31.0666683" lon="-6.5411783"><ele>1220.0</ele><time>2026-04-23T18:12:11.891Z</time></trkpt><trkpt lat="31.0666383" lon="-6.5412783"><ele>1220.0</ele><time>2026-04-23T18:12:12.891Z</time></trkpt><trkpt lat="31.0666083" lon="-6.5413817"><ele>1220.0</ele><time>2026-04-23T18:12:13.891Z</time></trkpt><trkpt lat="31.06658" lon="-6.541495"><ele>1220.0</ele><time>2026-04-23T18:12:14.891Z</time></trkpt><trkpt lat="31.0665483" lon="-6.5416167"><ele>1220.25</ele><time>2026-04-23T18:12:15.891Z</time></trkpt><trkpt lat="31.0665133" lon="-6.5417583"><ele>1220.5</ele><time>2026-04-23T18:12:16.891Z</time></trkpt><trkpt lat="31.0664717" lon="-6.5419233"><ele>1220.75</ele><time>2026-04-23T18:12:17.89Z</time></trkpt><trkpt lat="31.06642" lon="-6.542105"><ele>1221.0</ele><time>2026-04-23T18:12:18.891Z</time></trkpt><trkpt lat="31.06638" lon="-6.542315"><ele>1221.0</ele><time>2026-04-23T18:12:19.891Z</time></trkpt><trkpt lat="31.066335" lon="-6.54253"><ele>1221.0</ele><time>2026-04-23T18:12:20.89Z</time></trkpt><trkpt lat="31.066295" lon="-6.5427533"><ele>1221.0</ele><time>2026-04-23T18:12:21.891Z</time></trkpt><trkpt lat="31.0662517" lon="-6.5429767"><ele>1220.3333333333333</ele><time>2026-04-23T18:12:22.891Z</time></trkpt><trkpt lat="31.0662017" lon="-6.543195"><ele>1219.6666666666665</ele><time>2026-04-23T18:12:23.891Z</time></trkpt><trkpt lat="31.0661483" lon="-6.543415"><ele>1219.0</ele><time>2026-04-23T18:12:24.891Z</time></trkpt><trkpt lat="31.0660983" lon="-6.5436383"><ele>1220.3333333333333</ele><time>2026-04-23T18:12:25.891Z</time></trkpt><trkpt lat="31.0660317" lon="-6.5438567"><ele>1221.6666666666667</ele><time>2026-04-23T18:12:26.891Z</time></trkpt><trkpt lat="31.065975" lon="-6.544085"><ele>1223.0</ele><time>2026-04-23T18:12:27.891Z</time></trkpt><trkpt lat="31.0659317" lon="-6.5443317"><ele>1223.0</ele><time>2026-04-23T18:12:28.891Z</time></trkpt><trkpt lat="31.0658717" lon="-6.5445717"><ele>1223.0</ele><time>2026-04-23T18:12:29.891Z</time></trkpt><trkpt lat="31.0658133" lon="-6.5448133"><ele>1223.0</ele><time>2026-04-23T18:12:30.89Z</time></trkpt><trkpt lat="31.065755" lon="-6.54504"><ele>1222.6666666666667</ele><time>2026-04-23T18:12:31.891Z</time></trkpt><trkpt lat="31.0657017" lon="-6.5452633"><ele>1222.3333333333333</ele><time>2026-04-23T18:12:32.891Z</time></trkpt><trkpt lat="31.0656417" lon="-6.5454883"><ele>1222.0</ele><time>2026-04-23T18:12:33.891Z</time></trkpt><trkpt lat="31.0655817" lon="-6.545715"><ele>1221.6666666666665</ele><time>2026-04-23T18:12:34.891Z</time></trkpt><trkpt lat="31.0655317" lon="-6.5459467"><ele>1221.3333333333333</ele><time>2026-04-23T18:12:35.89Z</time></trkpt><trkpt lat="31.06547" lon="-6.5461617"><ele>1221.0</ele><time>2026-04-23T18:12:36.891Z</time></trkpt><trkpt lat="31.0653983" lon="-6.5463567"><ele>1222.0</ele><time>2026-04-23T18:12:37.891Z</time></trkpt><trkpt lat="31.065335" lon="-6.5465617"><ele>1223.0</ele><time>2026-04-23T18:12:38.891Z</time></trkpt><trkpt lat="31.0652583" lon="-6.546765"><ele>1224.0</ele><time>2026-04-23T18:12:39.891Z</time></trkpt><trkpt lat="31.0651767" lon="-6.5469483"><ele>1224.6666666666667</ele><time>2026-04-23T18:12:40.891Z</time></trkpt><trkpt lat="31.06509" lon="-6.5471167"><ele>1225.3333333333335</ele><time>2026-04-23T18:12:41.891Z</time></trkpt><trkpt lat="31.065005" lon="-6.547285"><ele>1226.0</ele><time>2026-04-23T18:12:42.891Z</time></trkpt><trkpt lat="31.0649083" lon="-6.547455"><ele>1225.6666666666667</ele><time>2026-04-23T18:12:43.891Z</time></trkpt><trkpt lat="31.0648033" lon="-6.5476333"><ele>1225.3333333333333</ele><time>2026-04-23T18:12:44.891Z</time></trkpt><trkpt lat="31.0646983" lon="-6.54781"><ele>1225.0</ele><time>2026-04-23T18:12:45.89Z</time></trkpt><trkpt lat="31.0646017" lon="-6.5479783"><ele>1225.0</ele><time>2026-04-23T18:12:46.89Z</time></trkpt><trkpt lat="31.0645067" lon="-6.5481467"><ele>1225.0</ele><time>2026-04-23T18:12:47.891Z</time></trkpt><trkpt lat="31.0644133" lon="-6.5483167"><ele>1225.0</ele><time>2026-04-23T18:12:48.89Z</time></trkpt><trkpt lat="31.0643133" lon="-6.5484967"><ele>1225.0</ele><time>2026-04-23T18:12:49.891Z</time></trkpt><trkpt lat="31.0642" lon="-6.5486767"><ele>1225.0</ele><time>2026-04-23T18:12:50.891Z</time></trkpt><trkpt lat="31.0640867" lon="-6.5488633"><ele>1225.0</ele><time>2026-04-23T18:12:51.891Z</time></trkpt><trkpt lat="31.06398" lon="-6.5490467"><ele>1226.0</ele><time>2026-04-23T18:12:52.89Z</time></trkpt><trkpt lat="31.0638767" lon="-6.5492183"><ele>1227.0</ele><time>2026-04-23T18:12:53.89Z</time></trkpt><trkpt lat="31.063785" lon="-6.54938"><ele>1228.0</ele><time>2026-04-23T18:12:54.89Z</time></trkpt><trkpt lat="31.0636883" lon="-6.5495267"><ele>1227.0</ele><time>2026-04-23T18:12:55.891Z</time></trkpt><trkpt lat="31.0635983" lon="-6.5496767"><ele>1226.0</ele><time>2026-04-23T18:12:56.891Z</time></trkpt><trkpt lat="31.0635017" lon="-6.5498333"><ele>1225.0</ele><time>2026-04-23T18:12:57.89Z</time></trkpt><trkpt lat="31.0634033" lon="-6.5499933"><ele>1225.0</ele><time>2026-04-23T18:12:58.891Z</time></trkpt><trkpt lat="31.0633033" lon="-6.550155"><ele>1225.0</ele><time>2026-04-23T18:12:59.891Z</time></trkpt><trkpt lat="31.0632033" lon="-6.550315"><ele>1225.0</ele><time>2026-04-23T18:13:00.89Z</time></trkpt><trkpt lat="31.06311" lon="-6.5504817"><ele>1225.6666666666665</ele><time>2026-04-23T18:13:01.891Z</time></trkpt><trkpt lat="31.0630083" lon="-6.5506417"><ele>1226.3333333333333</ele><time>2026-04-23T18:13:02.891Z</time></trkpt><trkpt lat="31.06291" lon="-6.5507983"><ele>1227.0</ele><time>2026-04-23T18:13:03.891Z</time></trkpt><trkpt lat="31.0628117" lon="-6.550955"><ele>1227.0</ele><time>2026-04-23T18:13:04.891Z</time></trkpt><trkpt lat="31.0627217" lon="-6.5511017"><ele>1227.0</ele><time>2026-04-23T18:13:05.891Z</time></trkpt><trkpt lat="31.062635" lon="-6.5512417"><ele>1227.0</ele><time>2026-04-23T18:13:06.891Z</time></trkpt><trkpt lat="31.0625567" lon="-6.55138"><ele>1227.0</ele><time>2026-04-23T18:13:07.891Z</time></trkpt><trkpt lat="31.062475" lon="-6.5515133"><ele>1225.5</ele><time>2026-04-23T18:13:08.89Z</time></trkpt><trkpt lat="31.062395" lon="-6.5516417"><ele>1224.0</ele><time>2026-04-23T18:13:09.891Z</time></trkpt><trkpt lat="31.0623167" lon="-6.55177"><ele>1222.5</ele><time>2026-04-23T18:13:10.891Z</time></trkpt><trkpt lat="31.0622417" lon="-6.5518983"><ele>1221.0</ele><time>2026-04-23T18:13:11.89Z</time></trkpt><trkpt lat="31.0621683" lon="-6.5520217"><ele>1221.5</ele><time>2026-04-23T18:13:12.891Z</time></trkpt><trkpt lat="31.06209" lon="-6.5521533"><ele>1222.0</ele><time>2026-04-23T18:13:13.891Z</time></trkpt><trkpt lat="31.062015" lon="-6.5522817"><ele>1222.5</ele><time>2026-04-23T18:13:14.89Z</time></trkpt><trkpt lat="31.0619383" lon="-6.552405"><ele>1223.0</ele><time>2026-04-23T18:13:15.891Z</time></trkpt><trkpt lat="31.0618567" lon="-6.5525317"><ele>1223.0</ele><time>2026-04-23T18:13:16.891Z</time></trkpt><trkpt lat="31.06178" lon="-6.5526567"><ele>1223.0</ele><time>2026-04-23T18:13:17.891Z</time></trkpt><trkpt lat="31.061705" lon="-6.552775"><ele>1223.0</ele><time>2026-04-23T18:13:18.891Z</time></trkpt><trkpt lat="31.0616283" lon="-6.5528833"><ele>1223.0</ele><time>2026-04-23T18:13:19.891Z</time></trkpt><trkpt lat="31.06156" lon="-6.552995"><ele>1222.25</ele><time>2026-04-23T18:13:20.891Z</time></trkpt><trkpt lat="31.06149" lon="-6.553105"><ele>1221.5</ele><time>2026-04-23T18:13:21.89Z</time></trkpt><trkpt lat="31.06142" lon="-6.5532133"><ele>1220.75</ele><time>2026-04-23T18:13:22.891Z</time></trkpt><trkpt lat="31.0613483" lon="-6.5533267"><ele>1220.0</ele><time>2026-04-23T18:13:23.891Z</time></trkpt><trkpt lat="31.06128" lon="-6.5534267"><ele>1220.0</ele><time>2026-04-23T18:13:24.891Z</time></trkpt><trkpt lat="31.0612117" lon="-6.5535367"><ele>1220.0</ele><time>2026-04-23T18:13:25.89Z</time></trkpt><trkpt lat="31.06114" lon="-6.5536383"><ele>1220.0</ele><time>2026-04-23T18:13:26.89Z</time></trkpt><trkpt lat="31.0610667" lon="-6.5537417"><ele>1220.0</ele><time>2026-04-23T18:13:27.891Z</time></trkpt><trkpt lat="31.061" lon="-6.5538567"><ele>1220.0</ele><time>2026-04-23T18:13:28.89Z</time></trkpt><trkpt lat="31.0609367" lon="-6.55397"><ele>1220.0</ele><time>2026-04-23T18:13:29.891Z</time></trkpt><trkpt lat="31.0608733" lon="-6.554085"><ele>1220.0</ele><time>2026-04-23T18:13:30.891Z</time></trkpt><trkpt lat="31.0608033" lon="-6.554195"><ele>1220.0</ele><time>2026-04-23T18:13:31.89Z</time></trkpt><trkpt lat="31.0607367" lon="-6.5542983"><ele>1220.6</ele><time>2026-04-23T18:13:32.891Z</time></trkpt><trkpt lat="31.0606717" lon="-6.5543933"><ele>1221.2</ele><time>2026-04-23T18:13:33.891Z</time></trkpt><trkpt lat="31.0606083" lon="-6.5544867"><ele>1221.8</ele><time>2026-04-23T18:13:34.89Z</time></trkpt><trkpt lat="31.0605467" lon="-6.5545783"><ele>1222.4</ele><time>2026-04-23T18:13:35.891Z</time></trkpt><trkpt lat="31.0604883" lon="-6.554675"><ele>1223.0</ele><time>2026-04-23T18:13:36.89Z</time></trkpt><trkpt lat="31.0604317" lon="-6.5547767"><ele>1223.0</ele><time>2026-04-23T18:13:37.891Z</time></trkpt><trkpt lat="31.0603817" lon="-6.5548783"><ele>1223.0</ele><time>2026-04-23T18:13:38.891Z</time></trkpt><trkpt lat="31.0603283" lon="-6.554965"><ele>1223.0</ele><time>2026-04-23T18:13:39.891Z</time></trkpt><trkpt lat="31.060275" lon="-6.5550417"><ele>1223.0</ele><time>2026-04-23T18:13:40.89Z</time></trkpt><trkpt lat="31.0602183" lon="-6.5551117"><ele>1223.0</ele><time>2026-04-23T18:13:41.891Z</time></trkpt><trkpt lat="31.060165" lon="-6.555185"><ele>1223.0</ele><time>2026-04-23T18:13:42.891Z</time></trkpt><trkpt lat="31.060115" lon="-6.5552567"><ele>1223.0</ele><time>2026-04-23T18:13:43.891Z</time></trkpt><trkpt lat="31.06008" lon="-6.5553267"><ele>1223.0</ele><time>2026-04-23T18:13:44.89Z</time></trkpt><trkpt lat="31.0600067" lon="-6.5554417"><ele>1223.0</ele><time>2026-04-23T18:13:46.891Z</time></trkpt><trkpt lat="31.0599667" lon="-6.5555017"><ele>1223.0</ele><time>2026-04-23T18:13:47.89Z</time></trkpt><trkpt lat="31.0599267" lon="-6.5555667"><ele>1223.0</ele><time>2026-04-23T18:13:48.891Z</time></trkpt><trkpt lat="31.0598817" lon="-6.5556333"><ele>1223.0</ele><time>2026-04-23T18:13:49.891Z</time></trkpt><trkpt lat="31.0598333" lon="-6.5556933"><ele>1222.8333333333335</ele><time>2026-04-23T18:13:50.891Z</time></trkpt><trkpt lat="31.059785" lon="-6.5557617"><ele>1222.6666666666667</ele><time>2026-04-23T18:13:51.891Z</time></trkpt><trkpt lat="31.0597383" lon="-6.5558333"><ele>1222.5</ele><time>2026-04-23T18:13:52.891Z</time></trkpt><trkpt lat="31.0596967" lon="-6.5559033"><ele>1222.3333333333333</ele><time>2026-04-23T18:13:53.891Z</time></trkpt><trkpt lat="31.0596583" lon="-6.5559783"><ele>1222.1666666666665</ele><time>2026-04-23T18:13:54.89Z</time></trkpt><trkpt lat="31.0596183" lon="-6.55606"><ele>1222.0</ele><time>2026-04-23T18:13:55.891Z</time></trkpt><trkpt lat="31.0595733" lon="-6.556145"><ele>1221.6666666666665</ele><time>2026-04-23T18:13:56.891Z</time></trkpt><trkpt lat="31.05953" lon="-6.5562283"><ele>1221.3333333333333</ele><time>2026-04-23T18:13:57.89Z</time></trkpt><trkpt lat="31.0594817" lon="-6.5563067"><ele>1221.0</ele><time>2026-04-23T18:13:58.891Z</time></trkpt><trkpt lat="31.059435" lon="-6.556395"><ele>1220.6666666666667</ele><time>2026-04-23T18:13:59.891Z</time></trkpt><trkpt lat="31.0593767" lon="-6.556475"><ele>1220.3333333333335</ele><time>2026-04-23T18:14:00.89Z</time></trkpt><trkpt lat="31.0593217" lon="-6.5565517"><ele>1220.0</ele><time>2026-04-23T18:14:01.891Z</time></trkpt><trkpt lat="31.0592667" lon="-6.5566267"><ele>1220.0</ele><time>2026-04-23T18:14:02.891Z</time></trkpt><trkpt lat="31.0592117" lon="-6.5567"><ele>1220.0</ele><time>2026-04-23T18:14:03.891Z</time></trkpt><trkpt lat="31.059165" lon="-6.55677"><ele>1220.0</ele><time>2026-04-23T18:14:04.89Z</time></trkpt><trkpt lat="31.05912" lon="-6.5568383"><ele>1220.0</ele><time>2026-04-23T18:14:05.891Z</time></trkpt><trkpt lat="31.0590783" lon="-6.5569083"><ele>1220.0</ele><time>2026-04-23T18:14:06.891Z</time></trkpt><trkpt lat="31.059035" lon="-6.556975"><ele>1220.0</ele><time>2026-04-23T18:14:07.891Z</time></trkpt><trkpt lat="31.0589933" lon="-6.5570517"><ele>1219.6666666666667</ele><time>2026-04-23T18:14:08.89Z</time></trkpt><trkpt lat="31.05895" lon="-6.55713"><ele>1219.3333333333335</ele><time>2026-04-23T18:14:09.891Z</time></trkpt><trkpt lat="31.058905" lon="-6.5572083"><ele>1219.0</ele><time>2026-04-23T18:14:10.891Z</time></trkpt><trkpt lat="31.0588583" lon="-6.5572833"><ele>1218.6666666666667</ele><time>2026-04-23T18:14:11.891Z</time></trkpt><trkpt lat="31.0588217" lon="-6.55735"><ele>1218.3333333333333</ele><time>2026-04-23T18:14:12.891Z</time></trkpt><trkpt lat="31.058785" lon="-6.5574183"><ele>1218.0</ele><time>2026-04-23T18:14:13.891Z</time></trkpt><trkpt lat="31.05874" lon="-6.5574867"><ele>1218.0</ele><time>2026-04-23T18:14:14.891Z</time></trkpt><trkpt lat="31.058695" lon="-6.5575567"><ele>1218.0</ele><time>2026-04-23T18:14:15.891Z</time></trkpt><trkpt lat="31.058655" lon="-6.5576367"><ele>1218.0</ele><time>2026-04-23T18:14:16.89Z</time></trkpt><trkpt lat="31.0586133" lon="-6.557715"><ele>1218.0</ele><time>2026-04-23T18:14:17.89Z</time></trkpt><trkpt lat="31.0585717" lon="-6.5577917"><ele>1218.0</ele><time>2026-04-23T18:14:18.89Z</time></trkpt><trkpt lat="31.0585233" lon="-6.55787"><ele>1218.0</ele><time>2026-04-23T18:14:19.891Z</time></trkpt><trkpt lat="31.058475" lon="-6.55795"><ele>1217.8333333333333</ele><time>2026-04-23T18:14:20.891Z</time></trkpt><trkpt lat="31.058415" lon="-6.5580317"><ele>1217.6666666666667</ele><time>2026-04-23T18:14:21.891Z</time></trkpt><trkpt lat="31.0583617" lon="-6.558115"><ele>1217.5</ele><time>2026-04-23T18:14:22.891Z</time></trkpt><trkpt lat="31.0583067" lon="-6.5582017"><ele>1217.3333333333335</ele><time>2026-04-23T18:14:23.89Z</time></trkpt><trkpt lat="31.0582533" lon="-6.558285"><ele>1217.1666666666667</ele><time>2026-04-23T18:14:24.891Z</time></trkpt><trkpt lat="31.0582033" lon="-6.55836"><ele>1217.0</ele><time>2026-04-23T18:14:25.891Z</time></trkpt><trkpt lat="31.0581633" lon="-6.5584417"><ele>1216.8333333333335</ele><time>2026-04-23T18:14:26.89Z</time></trkpt><trkpt lat="31.05812" lon="-6.55852"><ele>1216.6666666666667</ele><time>2026-04-23T18:14:27.891Z</time></trkpt><trkpt lat="31.05807" lon="-6.558595"><ele>1216.5</ele><time>2026-04-23T18:14:28.891Z</time></trkpt><trkpt lat="31.0580167" lon="-6.5586817"><ele>1216.3333333333333</ele><time>2026-04-23T18:14:29.891Z</time></trkpt><trkpt lat="31.057965" lon="-6.5587717"><ele>1216.1666666666665</ele><time>2026-04-23T18:14:30.891Z</time></trkpt><trkpt lat="31.0579117" lon="-6.558865"><ele>1216.0</ele><time>2026-04-23T18:14:31.891Z</time></trkpt><trkpt lat="31.057855" lon="-6.558965"><ele>1216.0</ele><time>2026-04-23T18:14:32.891Z</time></trkpt><trkpt lat="31.057795" lon="-6.55907"><ele>1216.0</ele><time>2026-04-23T18:14:33.891Z</time></trkpt><trkpt lat="31.05773" lon="-6.5591733"><ele>1216.0</ele><time>2026-04-23T18:14:34.89Z</time></trkpt><trkpt lat="31.05767" lon="-6.5592767"><ele>1216.0</ele><time>2026-04-23T18:14:35.891Z</time></trkpt><trkpt lat="31.05761" lon="-6.55938"><ele>1216.0</ele><time>2026-04-23T18:14:36.891Z</time></trkpt><trkpt lat="31.0575517" lon="-6.5594767"><ele>1215.8</ele><time>2026-04-23T18:14:37.891Z</time></trkpt><trkpt lat="31.0574983" lon="-6.5595717"><ele>1215.6</ele><time>2026-04-23T18:14:38.891Z</time></trkpt><trkpt lat="31.0574433" lon="-6.5596617"><ele>1215.4</ele><time>2026-04-23T18:14:39.891Z</time></trkpt><trkpt lat="31.0573883" lon="-6.559755"><ele>1215.2</ele><time>2026-04-23T18:14:40.891Z</time></trkpt><trkpt lat="31.0573317" lon="-6.5598467"><ele>1215.0</ele><time>2026-04-23T18:14:41.891Z</time></trkpt><trkpt lat="31.05728" lon="-6.5599333"><ele>1215.0</ele><time>2026-04-23T18:14:42.891Z</time></trkpt><trkpt lat="31.0572283" lon="-6.56001"><ele>1215.0</ele><time>2026-04-23T18:14:43.891Z</time></trkpt><trkpt lat="31.0571783" lon="-6.56008"><ele>1215.0</ele><time>2026-04-23T18:14:44.89Z</time></trkpt><trkpt lat="31.0571367" lon="-6.5601417"><ele>1215.0</ele><time>2026-04-23T18:14:45.89Z</time></trkpt><trkpt lat="31.0570617" lon="-6.5602683"><ele>1215.0</ele><time>2026-04-23T18:14:47.891Z</time></trkpt><trkpt lat="31.0570183" lon="-6.5603517"><ele>1215.0</ele><time>2026-04-23T18:14:48.891Z</time></trkpt><trkpt lat="31.0569733" lon="-6.5604383"><ele>1214.4</ele><time>2026-04-23T18:14:49.891Z</time></trkpt><trkpt lat="31.05692" lon="-6.56054"><ele>1213.8</ele><time>2026-04-23T18:14:50.891Z</time></trkpt><trkpt lat="31.0568583" lon="-6.560635"><ele>1213.2</ele><time>2026-04-23T18:14:51.891Z</time></trkpt><trkpt lat="31.0567983" lon="-6.560725"><ele>1212.6</ele><time>2026-04-23T18:14:52.891Z</time></trkpt><trkpt lat="31.0567433" lon="-6.5608083"><ele>1212.0</ele><time>2026-04-23T18:14:53.891Z</time></trkpt><trkpt lat="31.0566867" lon="-6.56089"><ele>1212.0</ele><time>2026-04-23T18:14:54.891Z</time></trkpt><trkpt lat="31.0566267" lon="-6.56097"><ele>1212.0</ele><time>2026-04-23T18:14:55.891Z</time></trkpt><trkpt lat="31.056575" lon="-6.5610617"><ele>1212.0</ele><time>2026-04-23T18:14:56.891Z</time></trkpt><trkpt lat="31.0565317" lon="-6.56116"><ele>1212.0</ele><time>2026-04-23T18:14:57.891Z</time></trkpt><trkpt lat="31.05647" lon="-6.5612583"><ele>1212.0</ele><time>2026-04-23T18:14:58.891Z</time></trkpt><trkpt lat="31.0564067" lon="-6.5613717"><ele>1211.75</ele><time>2026-04-23T18:14:59.891Z</time></trkpt><trkpt lat="31.056345" lon="-6.5614767"><ele>1211.5</ele><time>2026-04-23T18:15:00.891Z</time></trkpt><trkpt lat="31.0562817" lon="-6.5615833"><ele>1211.25</ele><time>2026-04-23T18:15:01.891Z</time></trkpt><trkpt lat="31.0562067" lon="-6.5616917"><ele>1211.0</ele><time>2026-04-23T18:15:02.891Z</time></trkpt><trkpt lat="31.056135" lon="-6.5617967"><ele>1211.0</ele><time>2026-04-23T18:15:03.891Z</time></trkpt><trkpt lat="31.0560617" lon="-6.5619117"><ele>1211.0</ele><time>2026-04-23T18:15:04.891Z</time></trkpt><trkpt lat="31.055985" lon="-6.5620267"><ele>1211.0</ele><time>2026-04-23T18:15:05.89Z</time></trkpt><trkpt lat="31.0559133" lon="-6.5621433"><ele>1211.0</ele><time>2026-04-23T18:15:06.891Z</time></trkpt><trkpt lat="31.0558383" lon="-6.5622583"><ele>1212.25</ele><time>2026-04-23T18:15:07.891Z</time></trkpt><trkpt lat="31.0557633" lon="-6.56237"><ele>1213.5</ele><time>2026-04-23T18:15:08.891Z</time></trkpt><trkpt lat="31.055685" lon="-6.562485"><ele>1214.75</ele><time>2026-04-23T18:15:09.891Z</time></trkpt><trkpt lat="31.05562" lon="-6.5625983"><ele>1216.0</ele><time>2026-04-23T18:15:10.89Z</time></trkpt><trkpt lat="31.05555" lon="-6.562715"><ele>1216.0</ele><time>2026-04-23T18:15:11.891Z</time></trkpt><trkpt lat="31.0554733" lon="-6.5628283"><ele>1216.0</ele><time>2026-04-23T18:15:12.891Z</time></trkpt><trkpt lat="31.055395" lon="-6.5629517"><ele>1216.0</ele><time>2026-04-23T18:15:13.891Z</time></trkpt><trkpt lat="31.0553033" lon="-6.56307"><ele>1216.0</ele><time>2026-04-23T18:15:14.891Z</time></trkpt><trkpt lat="31.0552033" lon="-6.5631967"><ele>1215.6666666666665</ele><time>2026-04-23T18:15:15.891Z</time></trkpt><trkpt lat="31.0550933" lon="-6.563325"><ele>1215.3333333333333</ele><time>2026-04-23T18:15:16.89Z</time></trkpt><trkpt lat="31.0549917" lon="-6.5634517"><ele>1215.0</ele><time>2026-04-23T18:15:17.891Z</time></trkpt><trkpt lat="31.0548833" lon="-6.56357"><ele>1214.75</ele><time>2026-04-23T18:15:18.891Z</time></trkpt><trkpt lat="31.0547717" lon="-6.5636867"><ele>1214.5</ele><time>2026-04-23T18:15:19.89Z</time></trkpt><trkpt lat="31.054655" lon="-6.563795"><ele>1214.25</ele><time>2026-04-23T18:15:20.89Z</time></trkpt><trkpt lat="31.0545383" lon="-6.5638983"><ele>1214.0</ele><time>2026-04-23T18:15:21.891Z</time></trkpt><trkpt lat="31.054425" lon="-6.5640033"><ele>1214.0</ele><time>2026-04-23T18:15:22.89Z</time></trkpt><trkpt lat="31.0543133" lon="-6.5641117"><ele>1214.0</ele><time>2026-04-23T18:15:23.891Z</time></trkpt><trkpt lat="31.0542033" lon="-6.5642217"><ele>1214.0</ele><time>2026-04-23T18:15:24.891Z</time></trkpt><trkpt lat="31.0540933" lon="-6.5643317"><ele>1214.0</ele><time>2026-04-23T18:15:25.891Z</time></trkpt><trkpt lat="31.053975" lon="-6.5644383"><ele>1213.0</ele><time>2026-04-23T18:15:26.891Z</time></trkpt><trkpt lat="31.0538667" lon="-6.5645533"><ele>1212.0</ele><time>2026-04-23T18:15:27.89Z</time></trkpt><trkpt lat="31.0537683" lon="-6.564685"><ele>1211.0</ele><time>2026-04-23T18:15:28.891Z</time></trkpt><trkpt lat="31.0536717" lon="-6.5648267"><ele>1211.0</ele><time>2026-04-23T18:15:29.891Z</time></trkpt><trkpt lat="31.053565" lon="-6.5649733"><ele>1211.0</ele><time>2026-04-23T18:15:30.891Z</time></trkpt><trkpt lat="31.0534717" lon="-6.56513"><ele>1211.0</ele><time>2026-04-23T18:15:31.891Z</time></trkpt><trkpt lat="31.0533767" lon="-6.565295"><ele>1211.6666666666667</ele><time>2026-04-23T18:15:32.89Z</time></trkpt><trkpt lat="31.0532867" lon="-6.5654483"><ele>1212.3333333333333</ele><time>2026-04-23T18:15:33.891Z</time></trkpt><trkpt lat="31.0531967" lon="-6.5656"><ele>1213.0</ele><time>2026-04-23T18:15:34.891Z</time></trkpt><trkpt lat="31.0531033" lon="-6.5657433"><ele>1213.0</ele><time>2026-04-23T18:15:35.89Z</time></trkpt><trkpt lat="31.0530117" lon="-6.5658867"><ele>1213.0</ele><time>2026-04-23T18:15:36.891Z</time></trkpt><trkpt lat="31.0529217" lon="-6.56604"><ele>1213.0</ele><time>2026-04-23T18:15:37.891Z</time></trkpt><trkpt lat="31.052825" lon="-6.5662017"><ele>1211.6666666666665</ele><time>2026-04-23T18:15:38.891Z</time></trkpt><trkpt lat="31.0527333" lon="-6.5663583"><ele>1210.3333333333333</ele><time>2026-04-23T18:15:39.89Z</time></trkpt><trkpt lat="31.0526433" lon="-6.5665283"><ele>1209.0</ele><time>2026-04-23T18:15:40.891Z</time></trkpt><trkpt lat="31.05254" lon="-6.5666867"><ele>1209.6666666666667</ele><time>2026-04-23T18:15:41.89Z</time></trkpt><trkpt lat="31.052445" lon="-6.5668533"><ele>1210.3333333333335</ele><time>2026-04-23T18:15:42.891Z</time></trkpt><trkpt lat="31.0523383" lon="-6.5670183"><ele>1211.0</ele><time>2026-04-23T18:15:43.891Z</time></trkpt><trkpt lat="31.052225" lon="-6.567165"><ele>1208.6666666666667</ele><time>2026-04-23T18:15:44.891Z</time></trkpt><trkpt lat="31.05211" lon="-6.567305"><ele>1206.3333333333333</ele><time>2026-04-23T18:15:45.891Z</time></trkpt><trkpt lat="31.0519933" lon="-6.5674533"><ele>1204.0</ele><time>2026-04-23T18:15:46.891Z</time></trkpt><trkpt lat="31.0518733" lon="-6.5676017"><ele>1204.0</ele><time>2026-04-23T18:15:47.891Z</time></trkpt><trkpt lat="31.051745" lon="-6.5677517"><ele>1204.0</ele><time>2026-04-23T18:15:48.89Z</time></trkpt><trkpt lat="31.0516117" lon="-6.567895"><ele>1204.0</ele><time>2026-04-23T18:15:49.891Z</time></trkpt><trkpt lat="31.0514733" lon="-6.5680433"><ele>1202.6666666666665</ele><time>2026-04-23T18:15:50.891Z</time></trkpt><trkpt lat="31.0513367" lon="-6.5681983"><ele>1201.3333333333333</ele><time>2026-04-23T18:15:51.89Z</time></trkpt><trkpt lat="31.0511967" lon="-6.568355"><ele>1200.0</ele><time>2026-04-23T18:15:52.89Z</time></trkpt><trkpt lat="31.0510533" lon="-6.5685167"><ele>1200.0</ele><time>2026-04-23T18:15:53.891Z</time></trkpt><trkpt lat="31.0509083" lon="-6.56868"><ele>1200.0</ele><time>2026-04-23T18:15:54.891Z</time></trkpt><trkpt lat="31.050755" lon="-6.56884"><ele>1200.0</ele><time>2026-04-23T18:15:55.89Z</time></trkpt><trkpt lat="31.0506067" lon="-6.5690117"><ele>1200.0</ele><time>2026-04-23T18:15:56.891Z</time></trkpt><trkpt lat="31.0504533" lon="-6.5691917"><ele>1200.0</ele><time>2026-04-23T18:15:57.891Z</time></trkpt><trkpt lat="31.050295" lon="-6.5693717"><ele>1200.0</ele><time>2026-04-23T18:15:58.891Z</time></trkpt><trkpt lat="31.0501383" lon="-6.56954"><ele>1200.0</ele><time>2026-04-23T18:15:59.89Z</time></trkpt><trkpt lat="31.0499783" lon="-6.5697133"><ele>1200.0</ele><time>2026-04-23T18:16:00.891Z</time></trkpt><trkpt lat="31.049815" lon="-6.5698933"><ele>1200.0</ele><time>2026-04-23T18:16:01.891Z</time></trkpt><trkpt lat="31.049655" lon="-6.570075"><ele>1200.0</ele><time>2026-04-23T18:16:02.891Z</time></trkpt><trkpt lat="31.0494917" lon="-6.5702617"><ele>1200.0</ele><time>2026-04-23T18:16:03.891Z</time></trkpt><trkpt lat="31.049325" lon="-6.570445"><ele>1199.0</ele><time>2026-04-23T18:16:04.891Z</time></trkpt><trkpt lat="31.0491583" lon="-6.570625"><ele>1198.0</ele><time>2026-04-23T18:16:05.891Z</time></trkpt><trkpt lat="31.049" lon="-6.5707983"><ele>1197.0</ele><time>2026-04-23T18:16:06.891Z</time></trkpt><trkpt lat="31.0488483" lon="-6.5709733"><ele>1197.0</ele><time>2026-04-23T18:16:07.89Z</time></trkpt></trkseg><trkseg><trkpt lat="31.0094513" lon="-6.6156866"><ele>1151.0</ele><time>2026-04-23T18:23:15.425Z</time></trkpt><trkpt lat="31.008906" lon="-6.6160638"><ele>1150.3333333333335</ele><time>2026-04-23T18:23:18.425Z</time></trkpt><trkpt lat="31.0087197" lon="-6.6161975"><ele>1149.6666666666667</ele><time>2026-04-23T18:23:19.425Z</time></trkpt><trkpt lat="31.008536" lon="-6.6163469"><ele>1149.0</ele><time>2026-04-23T18:23:20.425Z</time></trkpt><trkpt lat="31.0083654" lon="-6.6165143"><ele>1149.0</ele><time>2026-04-23T18:23:21.425Z</time></trkpt><trkpt lat="31.0082105" lon="-6.6166983"><ele>1149.0</ele><time>2026-04-23T18:23:22.425Z</time></trkpt><trkpt lat="31.008062" lon="-6.6168824"><ele>1149.0</ele><time>2026-04-23T18:23:23.425Z</time></trkpt><trkpt lat="31.0079217" lon="-6.6170766"><ele>1149.0</ele><time>2026-04-23T18:23:24.425Z</time></trkpt><trkpt lat="31.0077896" lon="-6.617283"><ele>1149.0</ele><time>2026-04-23T18:23:25.425Z</time></trkpt><trkpt lat="31.0076675" lon="-6.6175075"><ele>1149.0</ele><time>2026-04-23T18:23:26.425Z</time></trkpt><trkpt lat="31.0075458" lon="-6.617739"><ele>1148.0</ele><time>2026-04-23T18:23:27.425Z</time></trkpt><trkpt lat="31.007434" lon="-6.6179742"><ele>1147.0</ele><time>2026-04-23T18:23:28.425Z</time></trkpt><trkpt lat="31.0073361" lon="-6.6182089"><ele>1147.0</ele><time>2026-04-23T18:23:29.425Z</time></trkpt><trkpt lat="31.00725" lon="-6.6184383"><ele>1147.0</ele><time>2026-04-23T18:23:30.425Z</time></trkpt><trkpt lat="31.0071767" lon="-6.6186667"><ele>1147.0</ele><time>2026-04-23T18:23:31.425Z</time></trkpt><trkpt lat="31.0071183" lon="-6.6188967"><ele>1147.0</ele><time>2026-04-23T18:23:32.425Z</time></trkpt><trkpt lat="31.00708" lon="-6.6191233"><ele>1147.0</ele><time>2026-04-23T18:23:33.425Z</time></trkpt><trkpt lat="31.0070567" lon="-6.61935"><ele>1147.0</ele><time>2026-04-23T18:23:34.425Z</time></trkpt><trkpt lat="31.0070483" lon="-6.6195717"><ele>1147.0</ele><time>2026-04-23T18:23:35.425Z</time></trkpt><trkpt lat="31.00705" lon="-6.6197983"><ele>1147.0</ele><time>2026-04-23T18:23:36.425Z</time></trkpt><trkpt lat="31.0070567" lon="-6.62003"><ele>1147.0</ele><time>2026-04-23T18:23:37.425Z</time></trkpt><trkpt lat="31.0070683" lon="-6.6202683"><ele>1148.0</ele><time>2026-04-23T18:23:38.425Z</time></trkpt><trkpt lat="31.0070867" lon="-6.6205083"><ele>1149.0</ele><time>2026-04-23T18:23:39.425Z</time></trkpt><trkpt lat="31.0071067" lon="-6.6207583"><ele>1150.0</ele><time>2026-04-23T18:23:40.425Z</time></trkpt><trkpt lat="31.007135" lon="-6.6210233"><ele>1150.0</ele><time>2026-04-23T18:23:41.425Z</time></trkpt><trkpt lat="31.0071717" lon="-6.6213083"><ele>1150.0</ele><time>2026-04-23T18:23:42.425Z</time></trkpt><trkpt lat="31.0072133" lon="-6.6216167"><ele>1150.0</ele><time>2026-04-23T18:23:43.425Z</time></trkpt><trkpt lat="31.0072617" lon="-6.6219483"><ele>1150.0</ele><time>2026-04-23T18:23:44.425Z</time></trkpt><trkpt lat="31.0073183" lon="-6.6222817"><ele>1149.5</ele><time>2026-04-23T18:23:45.425Z</time></trkpt><trkpt lat="31.00737" lon="-6.6226217"><ele>1149.0</ele><time>2026-04-23T18:23:46.425Z</time></trkpt><trkpt lat="31.0074183" lon="-6.6229583"><ele>1149.0</ele><time>2026-04-23T18:23:47.426Z</time></trkpt><trkpt lat="31.007465" lon="-6.623295"><ele>1149.0</ele><time>2026-04-23T18:23:48.425Z</time></trkpt><trkpt lat="31.0075067" lon="-6.623635"><ele>1151.5</ele><time>2026-04-23T18:23:49.425Z</time></trkpt><trkpt lat="31.00755" lon="-6.6239667"><ele>1154.0</ele><time>2026-04-23T18:23:50.425Z</time></trkpt><trkpt lat="31.0075917" lon="-6.6242883"><ele>1153.5</ele><time>2026-04-23T18:23:51.425Z</time></trkpt><trkpt lat="31.0076367" lon="-6.6246117"><ele>1153.0</ele><time>2026-04-23T18:23:52.425Z</time></trkpt><trkpt lat="31.0076783" lon="-6.6249317"><ele>1153.0</ele><time>2026-04-23T18:23:53.425Z</time></trkpt><trkpt lat="31.007715" lon="-6.6252483"><ele>1153.0</ele><time>2026-04-23T18:23:54.425Z</time></trkpt><trkpt lat="31.007745" lon="-6.62557"><ele>1153.0</ele><time>2026-04-23T18:23:55.425Z</time></trkpt><trkpt lat="31.0077667" lon="-6.6258933"><ele>1153.0</ele><time>2026-04-23T18:23:56.425Z</time></trkpt><trkpt lat="31.0077717" lon="-6.6262117"><ele>1154.0</ele><time>2026-04-23T18:23:57.425Z</time></trkpt><trkpt lat="31.00776" lon="-6.62653"><ele>1155.0</ele><time>2026-04-23T18:23:58.425Z</time></trkpt><trkpt lat="31.007735" lon="-6.62683"><ele>1154.5</ele><time>2026-04-23T18:23:59.425Z</time></trkpt><trkpt lat="31.0076933" lon="-6.6271183"><ele>1154.0</ele><time>2026-04-23T18:24:00.425Z</time></trkpt><trkpt lat="31.0076317" lon="-6.6274"><ele>1154.0</ele><time>2026-04-23T18:24:01.425Z</time></trkpt><trkpt lat="31.00756" lon="-6.6276867"><ele>1154.0</ele><time>2026-04-23T18:24:02.425Z</time></trkpt><trkpt lat="31.007485" lon="-6.62797"><ele>1154.0</ele><time>2026-04-23T18:24:03.425Z</time></trkpt><trkpt lat="31.0073933" lon="-6.628235"><ele>1154.0</ele><time>2026-04-23T18:24:04.425Z</time></trkpt><trkpt lat="31.0072933" lon="-6.6284967"><ele>1154.0</ele><time>2026-04-23T18:24:05.425Z</time></trkpt><trkpt lat="31.00719" lon="-6.6287467"><ele>1154.0</ele><time>2026-04-23T18:24:06.425Z</time></trkpt><trkpt lat="31.0070833" lon="-6.6289933"><ele>1154.0</ele><time>2026-04-23T18:24:07.425Z</time></trkpt><trkpt lat="31.006975" lon="-6.629235"><ele>1154.0</ele><time>2026-04-23T18:24:08.425Z</time></trkpt><trkpt lat="31.00686" lon="-6.6294783"><ele>1155.0</ele><time>2026-04-23T18:24:09.425Z</time></trkpt><trkpt lat="31.00675" lon="-6.6297233"><ele>1156.0</ele><time>2026-04-23T18:24:10.425Z</time></trkpt><trkpt lat="31.0066383" lon="-6.6299683"><ele>1156.0</ele><time>2026-04-23T18:24:11.425Z</time></trkpt><trkpt lat="31.0065233" lon="-6.630215"><ele>1156.0</ele><time>2026-04-23T18:24:12.425Z</time></trkpt><trkpt lat="31.0064067" lon="-6.6304583"><ele>1155.5</ele><time>2026-04-23T18:24:13.425Z</time></trkpt><trkpt lat="31.0062883" lon="-6.6307033"><ele>1155.0</ele><time>2026-04-23T18:24:14.425Z</time></trkpt><trkpt lat="31.0061783" lon="-6.6309583"><ele>1157.5</ele><time>2026-04-23T18:24:15.425Z</time></trkpt><trkpt lat="31.0060683" lon="-6.631215"><ele>1160.0</ele><time>2026-04-23T18:24:16.425Z</time></trkpt><trkpt lat="31.00595" lon="-6.6314783"><ele>1160.0</ele><time>2026-04-23T18:24:17.425Z</time></trkpt><trkpt lat="31.0058317" lon="-6.6317467"><ele>1160.0</ele><time>2026-04-23T18:24:18.425Z</time></trkpt><trkpt lat="31.0057217" lon="-6.6320167"><ele>1160.0</ele><time>2026-04-23T18:24:19.425Z</time></trkpt><trkpt lat="31.0056167" lon="-6.6322817"><ele>1160.0</ele><time>2026-04-23T18:24:20.425Z</time></trkpt><trkpt lat="31.0055183" lon="-6.6325517"><ele>1160.0</ele><time>2026-04-23T18:24:21.425Z</time></trkpt><trkpt lat="31.0054167" lon="-6.632825"><ele>1160.0</ele><time>2026-04-23T18:24:22.425Z</time></trkpt><trkpt lat="31.0053233" lon="-6.6331"><ele>1160.0</ele><time>2026-04-23T18:24:23.426Z</time></trkpt><trkpt lat="31.005235" lon="-6.6333667"><ele>1160.0</ele><time>2026-04-23T18:24:24.425Z</time></trkpt><trkpt lat="31.0051417" lon="-6.63362"><ele>1159.5</ele><time>2026-04-23T18:24:25.425Z</time></trkpt><trkpt lat="31.005045" lon="-6.6338717"><ele>1159.0</ele><time>2026-04-23T18:24:26.425Z</time></trkpt><trkpt lat="31.0049517" lon="-6.63412"><ele>1159.0</ele><time>2026-04-23T18:24:27.425Z</time></trkpt><trkpt lat="31.004865" lon="-6.634365"><ele>1159.0</ele><time>2026-04-23T18:24:28.425Z</time></trkpt><trkpt lat="31.0047767" lon="-6.6346133"><ele>1158.0</ele><time>2026-04-23T18:24:29.425Z</time></trkpt><trkpt lat="31.0046967" lon="-6.63487"><ele>1157.0</ele><time>2026-04-23T18:24:30.426Z</time></trkpt><trkpt lat="31.0046233" lon="-6.6351233"><ele>1158.0</ele><time>2026-04-23T18:24:31.425Z</time></trkpt><trkpt lat="31.0045433" lon="-6.6353683"><ele>1159.0</ele><time>2026-04-23T18:24:32.425Z</time></trkpt><trkpt lat="31.00446" lon="-6.6356067"><ele>1160.0</ele><time>2026-04-23T18:24:33.425Z</time></trkpt><trkpt lat="31.0043767" lon="-6.6358517"><ele>1160.0</ele><time>2026-04-23T18:24:34.425Z</time></trkpt><trkpt lat="31.0042967" lon="-6.6360933"><ele>1160.0</ele><time>2026-04-23T18:24:35.425Z</time></trkpt><trkpt lat="31.0042133" lon="-6.6363333"><ele>1160.0</ele><time>2026-04-23T18:24:36.425Z</time></trkpt><trkpt lat="31.0041367" lon="-6.6365767"><ele>1160.0</ele><time>2026-04-23T18:24:37.425Z</time></trkpt><trkpt lat="31.004055" lon="-6.636825"><ele>1160.0</ele><time>2026-04-23T18:24:38.425Z</time></trkpt><trkpt lat="31.0039733" lon="-6.6370717"><ele>1160.0</ele><time>2026-04-23T18:24:39.425Z</time></trkpt><trkpt lat="31.0038883" lon="-6.6373133"><ele>1160.0</ele><time>2026-04-23T18:24:40.425Z</time></trkpt><trkpt lat="31.0038083" lon="-6.63756"><ele>1161.5</ele><time>2026-04-23T18:24:41.425Z</time></trkpt><trkpt lat="31.003725" lon="-6.63781"><ele>1163.0</ele><time>2026-04-23T18:24:42.426Z</time></trkpt><trkpt lat="31.0036433" lon="-6.6380533"><ele>1163.0</ele><time>2026-04-23T18:24:43.425Z</time></trkpt><trkpt lat="31.00356" lon="-6.6383033"><ele>1163.0</ele><time>2026-04-23T18:24:44.425Z</time></trkpt><trkpt lat="31.0034733" lon="-6.6385517"><ele>1161.5</ele><time>2026-04-23T18:24:45.425Z</time></trkpt><trkpt lat="31.0033883" lon="-6.6388"><ele>1160.0</ele><time>2026-04-23T18:24:46.425Z</time></trkpt><trkpt lat="31.0033067" lon="-6.6390433"><ele>1159.6666666666667</ele><time>2026-04-23T18:24:47.425Z</time></trkpt><trkpt lat="31.0032317" lon="-6.6392867"><ele>1159.3333333333333</ele><time>2026-04-23T18:24:48.425Z</time></trkpt><trkpt lat="31.0031467" lon="-6.6395233"><ele>1159.0</ele><time>2026-04-23T18:24:49.425Z</time></trkpt><trkpt lat="31.0030667" lon="-6.6397633"><ele>1158.5</ele><time>2026-04-23T18:24:50.425Z</time></trkpt><trkpt lat="31.0029817" lon="-6.6400083"><ele>1158.0</ele><time>2026-04-23T18:24:51.425Z</time></trkpt><trkpt lat="31.0029017" lon="-6.6402583"><ele>1160.0</ele><time>2026-04-23T18:24:52.425Z</time></trkpt><trkpt lat="31.002815" lon="-6.64051"><ele>1162.0</ele><time>2026-04-23T18:24:53.425Z</time></trkpt><trkpt lat="31.00272" lon="-6.6407583"><ele>1162.0</ele><time>2026-04-23T18:24:54.425Z</time></trkpt><trkpt lat="31.00263" lon="-6.6410117"><ele>1162.0</ele><time>2026-04-23T18:24:55.425Z</time></trkpt><trkpt lat="31.0025433" lon="-6.6412617"><ele>1161.0</ele><time>2026-04-23T18:24:56.425Z</time></trkpt><trkpt lat="31.00246" lon="-6.6415133"><ele>1160.0</ele><time>2026-04-23T18:24:57.424Z</time></trkpt><trkpt lat="31.002375" lon="-6.64176"><ele>1160.3333333333335</ele><time>2026-04-23T18:24:58.424Z</time></trkpt><trkpt lat="31.0022967" lon="-6.6419967"><ele>1160.6666666666667</ele><time>2026-04-23T18:24:59.424Z</time></trkpt><trkpt lat="31.00222" lon="-6.6422367"><ele>1161.0</ele><time>2026-04-23T18:25:00.424Z</time></trkpt><trkpt lat="31.0021383" lon="-6.64247"><ele>1161.0</ele><time>2026-04-23T18:25:01.425Z</time></trkpt><trkpt lat="31.0020567" lon="-6.6427"><ele>1161.0</ele><time>2026-04-23T18:25:02.424Z</time></trkpt><trkpt lat="31.0019767" lon="-6.64293"><ele>1161.0</ele><time>2026-04-23T18:25:03.424Z</time></trkpt><trkpt lat="31.0018983" lon="-6.6431567"><ele>1161.3333333333333</ele><time>2026-04-23T18:25:04.424Z</time></trkpt><trkpt lat="31.0018233" lon="-6.6433767"><ele>1161.6666666666665</ele><time>2026-04-23T18:25:05.424Z</time></trkpt><trkpt lat="31.00175" lon="-6.64359"><ele>1162.0</ele><time>2026-04-23T18:25:06.424Z</time></trkpt><trkpt lat="31.001675" lon="-6.6438"><ele>1161.3333333333333</ele><time>2026-04-23T18:25:07.424Z</time></trkpt><trkpt lat="31.0016033" lon="-6.644015"><ele>1160.6666666666667</ele><time>2026-04-23T18:25:08.424Z</time></trkpt><trkpt lat="31.0015317" lon="-6.6442233"><ele>1160.0</ele><time>2026-04-23T18:25:09.424Z</time></trkpt><trkpt lat="31.0014633" lon="-6.6444383"><ele>1161.0</ele><time>2026-04-23T18:25:10.424Z</time></trkpt><trkpt lat="31.001395" lon="-6.644655"><ele>1162.0</ele><time>2026-04-23T18:25:11.424Z</time></trkpt><trkpt lat="31.0013217" lon="-6.6448667"><ele>1163.0</ele><time>2026-04-23T18:25:12.424Z</time></trkpt><trkpt lat="31.0012483" lon="-6.6450767"><ele>1163.0</ele><time>2026-04-23T18:25:13.424Z</time></trkpt><trkpt lat="31.001175" lon="-6.64529"><ele>1163.0</ele><time>2026-04-23T18:25:14.424Z</time></trkpt><trkpt lat="31.0011" lon="-6.645505"><ele>1163.0</ele><time>2026-04-23T18:25:15.424Z</time></trkpt><trkpt lat="31.0010217" lon="-6.64573"><ele>1162.6666666666667</ele><time>2026-04-23T18:25:16.424Z</time></trkpt><trkpt lat="31.0009483" lon="-6.6459467"><ele>1162.3333333333333</ele><time>2026-04-23T18:25:17.424Z</time></trkpt><trkpt lat="31.00088" lon="-6.64616"><ele>1162.0</ele><time>2026-04-23T18:25:18.424Z</time></trkpt><trkpt lat="31.0008183" lon="-6.6463633"><ele>1162.0</ele><time>2026-04-23T18:25:19.424Z</time></trkpt><trkpt lat="31.0007483" lon="-6.6465617"><ele>1162.0</ele><time>2026-04-23T18:25:20.424Z</time></trkpt><trkpt lat="31.0006867" lon="-6.646755"><ele>1162.0</ele><time>2026-04-23T18:25:21.424Z</time></trkpt><trkpt lat="31.0006217" lon="-6.6469383"><ele>1162.0</ele><time>2026-04-23T18:25:22.424Z</time></trkpt><trkpt lat="31.0005583" lon="-6.6471133"><ele>1162.0</ele><time>2026-04-23T18:25:23.424Z</time></trkpt><trkpt lat="31.000495" lon="-6.6472817"><ele>1162.0</ele><time>2026-04-23T18:25:24.424Z</time></trkpt><trkpt lat="31.000435" lon="-6.647445"><ele>1162.0</ele><time>2026-04-23T18:25:25.424Z</time></trkpt><trkpt lat="31.00038" lon="-6.6476067"><ele>1162.0</ele><time>2026-04-23T18:25:26.424Z</time></trkpt><trkpt lat="31.0003267" lon="-6.6477583"><ele>1162.0</ele><time>2026-04-23T18:25:27.424Z</time></trkpt><trkpt lat="31.00028" lon="-6.6479"><ele>1162.0</ele><time>2026-04-23T18:25:28.424Z</time></trkpt><trkpt lat="31.0002283" lon="-6.6480433"><ele>1161.0</ele><time>2026-04-23T18:25:29.424Z</time></trkpt><trkpt lat="31.000185" lon="-6.6481833"><ele>1160.0</ele><time>2026-04-23T18:25:30.424Z</time></trkpt><trkpt lat="31.0001367" lon="-6.6483267"><ele>1159.0</ele><time>2026-04-23T18:25:31.424Z</time></trkpt><trkpt lat="31.0000883" lon="-6.6484717"><ele>1158.0</ele><time>2026-04-23T18:25:32.424Z</time></trkpt><trkpt lat="31.00004" lon="-6.64862"><ele>1159.25</ele><time>2026-04-23T18:25:33.424Z</time></trkpt><trkpt lat="30.9999867" lon="-6.6487617"><ele>1160.5</ele><time>2026-04-23T18:25:34.424Z</time></trkpt><trkpt lat="30.9999367" lon="-6.6489017"><ele>1161.75</ele><time>2026-04-23T18:25:35.424Z</time></trkpt><trkpt lat="30.9998917" lon="-6.6490417"><ele>1163.0</ele><time>2026-04-23T18:25:36.424Z</time></trkpt><trkpt lat="30.9998467" lon="-6.6491717"><ele>1163.0</ele><time>2026-04-23T18:25:37.424Z</time></trkpt><trkpt lat="30.9997983" lon="-6.649305"><ele>1163.0</ele><time>2026-04-23T18:25:38.424Z</time></trkpt><trkpt lat="30.9997533" lon="-6.64944"><ele>1163.0</ele><time>2026-04-23T18:25:39.424Z</time></trkpt><trkpt lat="30.9997067" lon="-6.6495667"><ele>1163.0</ele><time>2026-04-23T18:25:40.424Z</time></trkpt><trkpt lat="30.99966" lon="-6.649695"><ele>1163.25</ele><time>2026-04-23T18:25:41.424Z</time></trkpt><trkpt lat="30.99962" lon="-6.6498183"><ele>1163.5</ele><time>2026-04-23T18:25:42.425Z</time></trkpt><trkpt lat="30.9995717" lon="-6.6499383"><ele>1163.75</ele><time>2026-04-23T18:25:43.424Z</time></trkpt><trkpt lat="30.9995217" lon="-6.65006"><ele>1164.0</ele><time>2026-04-23T18:25:44.424Z</time></trkpt><trkpt lat="30.999475" lon="-6.650185"><ele>1164.25</ele><time>2026-04-23T18:25:45.424Z</time></trkpt><trkpt lat="30.9994333" lon="-6.650315"><ele>1164.5</ele><time>2026-04-23T18:25:46.424Z</time></trkpt><trkpt lat="30.9993917" lon="-6.6504433"><ele>1164.75</ele><time>2026-04-23T18:25:47.424Z</time></trkpt><trkpt lat="30.9993533" lon="-6.6505717"><ele>1165.0</ele><time>2026-04-23T18:25:48.424Z</time></trkpt><trkpt lat="30.9993133" lon="-6.6506983"><ele>1165.0</ele><time>2026-04-23T18:25:49.424Z</time></trkpt><trkpt lat="30.9992717" lon="-6.6508183"><ele>1165.0</ele><time>2026-04-23T18:25:50.424Z</time></trkpt><trkpt lat="30.9992367" lon="-6.65094"><ele>1165.0</ele><time>2026-04-23T18:25:51.424Z</time></trkpt><trkpt lat="30.9991983" lon="-6.6510517"><ele>1165.0</ele><time>2026-04-23T18:25:52.424Z</time></trkpt><trkpt lat="30.99916" lon="-6.6511483"><ele>1165.0</ele><time>2026-04-23T18:25:53.424Z</time></trkpt><trkpt lat="30.99913" lon="-6.6512367"><ele>1165.5</ele><time>2026-04-23T18:25:54.424Z</time></trkpt><trkpt lat="30.9991083" lon="-6.6513133"><ele>1166.0</ele><time>2026-04-23T18:25:55.424Z</time></trkpt><trkpt lat="30.999085" lon="-6.6513867"><ele>1166.5</ele><time>2026-04-23T18:25:56.424Z</time></trkpt><trkpt lat="30.9990283" lon="-6.651515"><ele>1167.0</ele><time>2026-04-23T18:25:58.424Z</time></trkpt><trkpt lat="30.9989667" lon="-6.6515933"><ele>1167.5</ele><time>2026-04-23T18:26:00.424Z</time></trkpt><trkpt lat="30.9988933" lon="-6.6515583"><ele>1168.0</ele><time>2026-04-23T18:26:03.424Z</time></trkpt><trkpt lat="30.998885" lon="-6.651455"><ele>1168.0</ele><time>2026-04-23T18:26:06.424Z</time></trkpt><trkpt lat="30.998905" lon="-6.651375"><ele>1168.0</ele><time>2026-04-23T18:26:08.424Z</time></trkpt><trkpt lat="30.9989317" lon="-6.6512933"><ele>1168.0</ele><time>2026-04-23T18:26:10.424Z</time></trkpt><trkpt lat="30.9989533" lon="-6.6512083"><ele>1168.0</ele><time>2026-04-23T18:26:12.424Z</time></trkpt><trkpt lat="30.9989767" lon="-6.6511317"><ele>1168.0</ele><time>2026-04-23T18:26:14.424Z</time></trkpt><trkpt lat="30.9989967" lon="-6.6510583"><ele>1168.0</ele><time>2026-04-23T18:26:16.424Z</time></trkpt><trkpt lat="30.9989817" lon="-6.65095"><ele>1168.0</ele><time>2026-04-23T18:29:52.424Z</time></trkpt><trkpt lat="30.999045" lon="-6.650915"><ele>1168.0</ele><time>2026-04-23T18:29:55.424Z</time></trkpt><trkpt lat="30.9991133" lon="-6.65095"><ele>1168.0</ele><time>2026-04-23T18:29:58.424Z</time></trkpt><trkpt lat="30.9991533" lon="-6.651035"><ele>1168.0</ele><time>2026-04-23T18:30:01.424Z</time></trkpt><trkpt lat="30.9991433" lon="-6.65116"><ele>1168.0</ele><time>2026-04-23T18:30:03.424Z</time></trkpt><trkpt lat="30.99913" lon="-6.651245"><ele>1168.0</ele><time>2026-04-23T18:30:04.424Z</time></trkpt><trkpt lat="30.9991083" lon="-6.65133"><ele>1168.0</ele><time>2026-04-23T18:30:05.424Z</time></trkpt><trkpt lat="30.9990783" lon="-6.651415"><ele>1168.0</ele><time>2026-04-23T18:30:06.424Z</time></trkpt><trkpt lat="30.9990383" lon="-6.65152"><ele>1168.0</ele><time>2026-04-23T18:30:07.424Z</time></trkpt><trkpt lat="30.998995" lon="-6.651645"><ele>1168.0</ele><time>2026-04-23T18:30:08.424Z</time></trkpt><trkpt lat="30.9989467" lon="-6.6517767"><ele>1168.0</ele><time>2026-04-23T18:30:09.424Z</time></trkpt><trkpt lat="30.9988983" lon="-6.6519133"><ele>1167.75</ele><time>2026-04-23T18:30:10.424Z</time></trkpt><trkpt lat="30.9988583" lon="-6.6520433"><ele>1167.5</ele><time>2026-04-23T18:30:11.424Z</time></trkpt><trkpt lat="30.9988167" lon="-6.652175"><ele>1167.25</ele><time>2026-04-23T18:30:12.424Z</time></trkpt><trkpt lat="30.99877" lon="-6.6522983"><ele>1167.0</ele><time>2026-04-23T18:30:13.424Z</time></trkpt><trkpt lat="30.9987283" lon="-6.6524283"><ele>1167.0</ele><time>2026-04-23T18:30:14.424Z</time></trkpt><trkpt lat="30.998685" lon="-6.6525567"><ele>1167.0</ele><time>2026-04-23T18:30:15.424Z</time></trkpt><trkpt lat="30.9986417" lon="-6.652695"><ele>1167.0</ele><time>2026-04-23T18:30:16.424Z</time></trkpt><trkpt lat="30.998595" lon="-6.6528383"><ele>1167.0</ele><time>2026-04-23T18:30:17.424Z</time></trkpt><trkpt lat="30.99855" lon="-6.6529883"><ele>1167.0</ele><time>2026-04-23T18:30:18.424Z</time></trkpt><trkpt lat="30.99851" lon="-6.653145"><ele>1167.0</ele><time>2026-04-23T18:30:19.424Z</time></trkpt><trkpt lat="30.998455" lon="-6.6532917"><ele>1167.0</ele><time>2026-04-23T18:30:20.424Z</time></trkpt><trkpt lat="30.9984133" lon="-6.6534367"><ele>1167.0</ele><time>2026-04-23T18:30:21.424Z</time></trkpt><trkpt lat="30.9983683" lon="-6.6535817"><ele>1167.0</ele><time>2026-04-23T18:30:22.424Z</time></trkpt><trkpt lat="30.9983233" lon="-6.6537217"><ele>1167.0</ele><time>2026-04-23T18:30:23.425Z</time></trkpt><trkpt lat="30.9982783" lon="-6.653855"><ele>1167.0</ele><time>2026-04-23T18:30:24.424Z</time></trkpt><trkpt lat="30.99823" lon="-6.6539867"><ele>1167.0</ele><time>2026-04-23T18:30:25.424Z</time></trkpt><trkpt lat="30.9981883" lon="-6.6541233"><ele>1167.0</ele><time>2026-04-23T18:30:26.424Z</time></trkpt><trkpt lat="30.998145" lon="-6.6542617"><ele>1167.0</ele><time>2026-04-23T18:30:27.424Z</time></trkpt><trkpt lat="30.9981" lon="-6.6544067"><ele>1167.0</ele><time>2026-04-23T18:30:28.424Z</time></trkpt><trkpt lat="30.9980567" lon="-6.6545417"><ele>1167.0</ele><time>2026-04-23T18:30:29.424Z</time></trkpt><trkpt lat="30.9980183" lon="-6.65467"><ele>1166.4</ele><time>2026-04-23T18:30:30.424Z</time></trkpt><trkpt lat="30.9979783" lon="-6.6547967"><ele>1165.8000000000002</ele><time>2026-04-23T18:30:31.424Z</time></trkpt><trkpt lat="30.997935" lon="-6.6549217"><ele>1165.2</ele><time>2026-04-23T18:30:32.424Z</time></trkpt><trkpt lat="30.997895" lon="-6.6550383"><ele>1164.6000000000001</ele><time>2026-04-23T18:30:33.424Z</time></trkpt><trkpt lat="30.9978567" lon="-6.6551517"><ele>1164.0</ele><time>2026-04-23T18:30:34.424Z</time></trkpt><trkpt lat="30.9978233" lon="-6.655265"><ele>1164.2</ele><time>2026-04-23T18:30:35.424Z</time></trkpt><trkpt lat="30.9977883" lon="-6.65538"><ele>1164.4</ele><time>2026-04-23T18:30:36.424Z</time></trkpt><trkpt lat="30.997755" lon="-6.655495"><ele>1164.6</ele><time>2026-04-23T18:30:37.424Z</time></trkpt><trkpt lat="30.9977217" lon="-6.6556117"><ele>1164.8</ele><time>2026-04-23T18:30:38.424Z</time></trkpt><trkpt lat="30.99769" lon="-6.6557267"><ele>1165.0</ele><time>2026-04-23T18:30:39.424Z</time></trkpt><trkpt lat="30.9976517" lon="-6.6558467"><ele>1165.0</ele><time>2026-04-23T18:30:40.424Z</time></trkpt><trkpt lat="30.99761" lon="-6.6559733"><ele>1165.0</ele><time>2026-04-23T18:30:41.424Z</time></trkpt><trkpt lat="30.99757" lon="-6.6560967"><ele>1165.0</ele><time>2026-04-23T18:30:42.425Z</time></trkpt><trkpt lat="30.997535" lon="-6.6562233"><ele>1165.0</ele><time>2026-04-23T18:30:43.424Z</time></trkpt><trkpt lat="30.9974967" lon="-6.656345"><ele>1164.6</ele><time>2026-04-23T18:30:44.424Z</time></trkpt><trkpt lat="30.9974617" lon="-6.6564633"><ele>1164.2</ele><time>2026-04-23T18:30:45.425Z</time></trkpt><trkpt lat="30.9974233" lon="-6.65658"><ele>1163.8</ele><time>2026-04-23T18:30:46.424Z</time></trkpt><trkpt lat="30.9973883" lon="-6.6567"><ele>1163.4</ele><time>2026-04-23T18:30:47.424Z</time></trkpt><trkpt lat="30.99735" lon="-6.6568233"><ele>1163.0</ele><time>2026-04-23T18:30:48.424Z</time></trkpt><trkpt lat="30.997305" lon="-6.6569533"><ele>1162.25</ele><time>2026-04-23T18:30:49.424Z</time></trkpt><trkpt lat="30.9972567" lon="-6.6571033"><ele>1161.5</ele><time>2026-04-23T18:30:50.424Z</time></trkpt><trkpt lat="30.9972017" lon="-6.6572683"><ele>1160.75</ele><time>2026-04-23T18:30:51.424Z</time></trkpt><trkpt lat="30.9971467" lon="-6.6574433"><ele>1160.0</ele><time>2026-04-23T18:30:52.425Z</time></trkpt><trkpt lat="30.9970933" lon="-6.6576283"><ele>1159.6666666666667</ele><time>2026-04-23T18:30:53.424Z</time></trkpt><trkpt lat="30.9970383" lon="-6.6578133"><ele>1159.3333333333333</ele><time>2026-04-23T18:30:54.424Z</time></trkpt><trkpt lat="30.9969883" lon="-6.6580017"><ele>1159.0</ele><time>2026-04-23T18:30:55.424Z</time></trkpt><trkpt lat="30.9969317" lon="-6.6581683"><ele>1159.0</ele><time>2026-04-23T18:30:56.424Z</time></trkpt><trkpt lat="30.9968783" lon="-6.65833"><ele>1159.0</ele><time>2026-04-23T18:30:57.424Z</time></trkpt><trkpt lat="30.9968183" lon="-6.6584967"><ele>1159.0</ele><time>2026-04-23T18:30:58.424Z</time></trkpt><trkpt lat="30.9967617" lon="-6.65868"><ele>1159.0</ele><time>2026-04-23T18:30:59.424Z</time></trkpt><trkpt lat="30.9966983" lon="-6.6588667"><ele>1159.0</ele><time>2026-04-23T18:31:00.424Z</time></trkpt><trkpt lat="30.9966333" lon="-6.6590533"><ele>1159.0</ele><time>2026-04-23T18:31:01.424Z</time></trkpt><trkpt lat="30.996565" lon="-6.6592483"><ele>1159.6666666666665</ele><time>2026-04-23T18:31:02.424Z</time></trkpt><trkpt lat="30.9965017" lon="-6.6594567"><ele>1160.3333333333333</ele><time>2026-04-23T18:31:03.424Z</time></trkpt><trkpt lat="30.9964367" lon="-6.6596717"><ele>1161.0</ele><time>2026-04-23T18:31:04.424Z</time></trkpt><trkpt lat="30.9963717" lon="-6.659895"><ele>1161.0</ele><time>2026-04-23T18:31:05.424Z</time></trkpt><trkpt lat="30.9963033" lon="-6.66012"><ele>1161.0</ele><time>2026-04-23T18:31:06.425Z</time></trkpt><trkpt lat="30.9962367" lon="-6.66035"><ele>1161.0</ele><time>2026-04-23T18:31:07.424Z</time></trkpt><trkpt lat="30.996165" lon="-6.660585"><ele>1160.0</ele><time>2026-04-23T18:31:08.424Z</time></trkpt><trkpt lat="30.9960917" lon="-6.66082"><ele>1159.0</ele><time>2026-04-23T18:31:09.424Z</time></trkpt><trkpt lat="30.9960183" lon="-6.66106"><ele>1158.0</ele><time>2026-04-23T18:31:10.424Z</time></trkpt><trkpt lat="30.9959417" lon="-6.6613067"><ele>1158.0</ele><time>2026-04-23T18:31:11.424Z</time></trkpt><trkpt lat="30.9958633" lon="-6.6615667"><ele>1158.0</ele><time>2026-04-23T18:31:12.424Z</time></trkpt><trkpt lat="30.995785" lon="-6.6618083"><ele>1158.6666666666667</ele><time>2026-04-23T18:31:13.424Z</time></trkpt><trkpt lat="30.9957083" lon="-6.6620433"><ele>1159.3333333333335</ele><time>2026-04-23T18:31:14.424Z</time></trkpt><trkpt lat="30.9956317" lon="-6.6622817"><ele>1160.0</ele><time>2026-04-23T18:31:15.424Z</time></trkpt><trkpt lat="30.9955567" lon="-6.66252"><ele>1160.0</ele><time>2026-04-23T18:31:16.424Z</time></trkpt><trkpt lat="30.9954883" lon="-6.662765"><ele>1160.0</ele><time>2026-04-23T18:31:17.425Z</time></trkpt><trkpt lat="30.995415" lon="-6.6630117"><ele>1160.0</ele><time>2026-04-23T18:31:18.424Z</time></trkpt><trkpt lat="30.9953367" lon="-6.6632633"><ele>1159.6666666666667</ele><time>2026-04-23T18:31:19.424Z</time></trkpt><trkpt lat="30.9952583" lon="-6.6635117"><ele>1159.3333333333333</ele><time>2026-04-23T18:31:20.424Z</time></trkpt><trkpt lat="30.9951833" lon="-6.663755"><ele>1159.0</ele><time>2026-04-23T18:31:21.424Z</time></trkpt><trkpt lat="30.9951033" lon="-6.66399"><ele>1157.0</ele><time>2026-04-23T18:31:22.424Z</time></trkpt><trkpt lat="30.9950317" lon="-6.6642267"><ele>1155.0</ele><time>2026-04-23T18:31:23.424Z</time></trkpt><trkpt lat="30.99496" lon="-6.6644467"><ele>1153.0</ele><time>2026-04-23T18:31:24.424Z</time></trkpt><trkpt lat="30.9948933" lon="-6.6646617"><ele>1153.0</ele><time>2026-04-23T18:31:25.424Z</time></trkpt><trkpt lat="30.9948317" lon="-6.664865"><ele>1153.0</ele><time>2026-04-23T18:31:26.424Z</time></trkpt><trkpt lat="30.9947667" lon="-6.665075"><ele>1153.0</ele><time>2026-04-23T18:31:27.424Z</time></trkpt><trkpt lat="30.9946983" lon="-6.66529"><ele>1152.6666666666665</ele><time>2026-04-23T18:31:28.424Z</time></trkpt><trkpt lat="30.9946283" lon="-6.6655083"><ele>1152.3333333333333</ele><time>2026-04-23T18:31:29.424Z</time></trkpt><trkpt lat="30.994555" lon="-6.6657267"><ele>1152.0</ele><time>2026-04-23T18:31:30.424Z</time></trkpt><trkpt lat="30.994485" lon="-6.6659533"><ele>1153.0</ele><time>2026-04-23T18:31:31.424Z</time></trkpt><trkpt lat="30.9944167" lon="-6.6661817"><ele>1154.0</ele><time>2026-04-23T18:31:32.423Z</time></trkpt><trkpt lat="30.9943467" lon="-6.6663917"><ele>1155.0</ele><time>2026-04-23T18:31:33.423Z</time></trkpt><trkpt lat="30.9942817" lon="-6.666595"><ele>1155.0</ele><time>2026-04-23T18:31:34.423Z</time></trkpt><trkpt lat="30.9942167" lon="-6.666795"><ele>1155.0</ele><time>2026-04-23T18:31:35.423Z</time></trkpt><trkpt lat="30.9941583" lon="-6.6669867"><ele>1155.0</ele><time>2026-04-23T18:31:36.423Z</time></trkpt><trkpt lat="30.9941017" lon="-6.6671717"><ele>1155.0</ele><time>2026-04-23T18:31:37.423Z</time></trkpt><trkpt lat="30.99405" lon="-6.6673517"><ele>1155.0</ele><time>2026-04-23T18:31:38.423Z</time></trkpt><trkpt lat="30.993995" lon="-6.6675333"><ele>1155.0</ele><time>2026-04-23T18:31:39.423Z</time></trkpt><trkpt lat="30.9939333" lon="-6.6677217"><ele>1154.3333333333333</ele><time>2026-04-23T18:31:40.423Z</time></trkpt><trkpt lat="30.99387" lon="-6.6679167"><ele>1153.6666666666665</ele><time>2026-04-23T18:31:41.423Z</time></trkpt><trkpt lat="30.9938067" lon="-6.6681233"><ele>1153.0</ele><time>2026-04-23T18:31:42.423Z</time></trkpt><trkpt lat="30.993735" lon="-6.66834"><ele>1153.0</ele><time>2026-04-23T18:31:43.423Z</time></trkpt><trkpt lat="30.993665" lon="-6.6685633"><ele>1153.0</ele><time>2026-04-23T18:31:44.423Z</time></trkpt><trkpt lat="30.9935917" lon="-6.6687933"><ele>1153.0</ele><time>2026-04-23T18:31:45.423Z</time></trkpt><trkpt lat="30.9935167" lon="-6.6690317"><ele>1152.3333333333333</ele><time>2026-04-23T18:31:46.423Z</time></trkpt><trkpt lat="30.9934433" lon="-6.6692733"><ele>1151.6666666666667</ele><time>2026-04-23T18:31:47.423Z</time></trkpt><trkpt lat="30.993365" lon="-6.6695183"><ele>1151.0</ele><time>2026-04-23T18:31:48.423Z</time></trkpt><trkpt lat="30.9932883" lon="-6.6697667"><ele>1150.5</ele><time>2026-04-23T18:31:49.423Z</time></trkpt><trkpt lat="30.9932083" lon="-6.6700167"><ele>1150.0</ele><time>2026-04-23T18:31:50.423Z</time></trkpt><trkpt lat="30.99313" lon="-6.6702683"><ele>1150.5</ele><time>2026-04-23T18:31:51.423Z</time></trkpt><trkpt lat="30.9930483" lon="-6.67052"><ele>1151.0</ele><time>2026-04-23T18:31:52.423Z</time></trkpt><trkpt lat="30.9929683" lon="-6.6707717"><ele>1151.0</ele><time>2026-04-23T18:31:53.423Z</time></trkpt><trkpt lat="30.9928883" lon="-6.6710133"><ele>1151.0</ele><time>2026-04-23T18:31:54.423Z</time></trkpt><trkpt lat="30.9928133" lon="-6.6712567"><ele>1151.0</ele><time>2026-04-23T18:31:55.424Z</time></trkpt><trkpt lat="30.99274" lon="-6.6715017"><ele>1150.6666666666667</ele><time>2026-04-23T18:31:56.423Z</time></trkpt><trkpt lat="30.9926667" lon="-6.67174"><ele>1150.3333333333333</ele><time>2026-04-23T18:31:57.423Z</time></trkpt><trkpt lat="30.992595" lon="-6.6719667"><ele>1150.0</ele><time>2026-04-23T18:31:58.423Z</time></trkpt><trkpt lat="30.9925217" lon="-6.6721883"><ele>1150.3333333333333</ele><time>2026-04-23T18:31:59.423Z</time></trkpt><trkpt lat="30.9924467" lon="-6.6724083"><ele>1150.6666666666667</ele><time>2026-04-23T18:32:00.423Z</time></trkpt><trkpt lat="30.99238" lon="-6.672625"><ele>1151.0</ele><time>2026-04-23T18:32:01.423Z</time></trkpt><trkpt lat="30.9923117" lon="-6.6728367"><ele>1151.0</ele><time>2026-04-23T18:32:02.423Z</time></trkpt><trkpt lat="30.9922483" lon="-6.6730483"><ele>1151.0</ele><time>2026-04-23T18:32:03.423Z</time></trkpt><trkpt lat="30.9921817" lon="-6.67326"><ele>1151.0</ele><time>2026-04-23T18:32:04.423Z</time></trkpt><trkpt lat="30.9921217" lon="-6.6734683"><ele>1150.0</ele><time>2026-04-23T18:32:05.423Z</time></trkpt><trkpt lat="30.9920667" lon="-6.6736717"><ele>1149.0</ele><time>2026-04-23T18:32:06.424Z</time></trkpt><trkpt lat="30.9920083" lon="-6.6738717"><ele>1148.0</ele><time>2026-04-23T18:32:07.423Z</time></trkpt><trkpt lat="30.991945" lon="-6.674075"><ele>1148.0</ele><time>2026-04-23T18:32:08.423Z</time></trkpt><trkpt lat="30.9918817" lon="-6.6742783"><ele>1148.0</ele><time>2026-04-23T18:32:09.423Z</time></trkpt><trkpt lat="30.99181" lon="-6.6744767"><ele>1148.0</ele><time>2026-04-23T18:32:10.423Z</time></trkpt><trkpt lat="30.9917433" lon="-6.6746767"><ele>1148.0</ele><time>2026-04-23T18:32:11.423Z</time></trkpt><trkpt lat="30.9916767" lon="-6.67488"><ele>1148.0</ele><time>2026-04-23T18:32:12.423Z</time></trkpt><trkpt lat="30.9916133" lon="-6.675075"><ele>1148.0</ele><time>2026-04-23T18:32:13.423Z</time></trkpt><trkpt lat="30.991555" lon="-6.6752717"><ele>1148.0</ele><time>2026-04-23T18:32:14.423Z</time></trkpt><trkpt lat="30.9914967" lon="-6.67547"><ele>1148.0</ele><time>2026-04-23T18:32:15.423Z</time></trkpt><trkpt lat="30.9914383" lon="-6.67567"><ele>1148.0</ele><time>2026-04-23T18:32:16.423Z</time></trkpt><trkpt lat="30.991375" lon="-6.6758683"><ele>1148.0</ele><time>2026-04-23T18:32:17.423Z</time></trkpt><trkpt lat="30.9913067" lon="-6.6760733"><ele>1148.0</ele><time>2026-04-23T18:32:18.423Z</time></trkpt><trkpt lat="30.9912417" lon="-6.6762767"><ele>1148.0</ele><time>2026-04-23T18:32:19.423Z</time></trkpt><trkpt lat="30.9911817" lon="-6.6764833"><ele>1147.6666666666667</ele><time>2026-04-23T18:32:20.423Z</time></trkpt><trkpt lat="30.9911217" lon="-6.67668"><ele>1147.3333333333333</ele><time>2026-04-23T18:32:21.423Z</time></trkpt><trkpt lat="30.9910617" lon="-6.6768783"><ele>1147.0</ele><time>2026-04-23T18:32:22.423Z</time></trkpt><trkpt lat="30.9909983" lon="-6.67708"><ele>1147.0</ele><time>2026-04-23T18:32:23.423Z</time></trkpt><trkpt lat="30.9909317" lon="-6.6772833"><ele>1147.0</ele><time>2026-04-23T18:32:24.423Z</time></trkpt><trkpt lat="30.9908667" lon="-6.6774883"><ele>1147.0</ele><time>2026-04-23T18:32:25.423Z</time></trkpt><trkpt lat="30.9908017" lon="-6.6776983"><ele>1146.0</ele><time>2026-04-23T18:32:26.423Z</time></trkpt><trkpt lat="30.9907383" lon="-6.6779183"><ele>1145.0</ele><time>2026-04-23T18:32:27.423Z</time></trkpt><trkpt lat="30.9906733" lon="-6.67814"><ele>1144.0</ele><time>2026-04-23T18:32:28.423Z</time></trkpt><trkpt lat="30.9906" lon="-6.6783667"><ele>1144.0</ele><time>2026-04-23T18:32:29.423Z</time></trkpt><trkpt lat="30.9905333" lon="-6.6785933"><ele>1144.0</ele><time>2026-04-23T18:32:30.423Z</time></trkpt><trkpt lat="30.9904633" lon="-6.678815"><ele>1144.0</ele><time>2026-04-23T18:32:31.423Z</time></trkpt><trkpt lat="30.9903917" lon="-6.6790317"><ele>1144.6666666666665</ele><time>2026-04-23T18:32:32.423Z</time></trkpt><trkpt lat="30.9903167" lon="-6.6792467"><ele>1145.3333333333333</ele><time>2026-04-23T18:32:33.423Z</time></trkpt><trkpt lat="30.990245" lon="-6.6794633"><ele>1146.0</ele><time>2026-04-23T18:32:34.423Z</time></trkpt><trkpt lat="30.990175" lon="-6.6796817"><ele>1146.0</ele><time>2026-04-23T18:32:35.424Z</time></trkpt><trkpt lat="30.9901083" lon="-6.6799017"><ele>1146.0</ele><time>2026-04-23T18:32:36.423Z</time></trkpt><trkpt lat="30.99004" lon="-6.6801233"><ele>1146.0</ele><time>2026-04-23T18:32:37.423Z</time></trkpt><trkpt lat="30.98997" lon="-6.6803483"><ele>1146.0</ele><time>2026-04-23T18:32:38.423Z</time></trkpt><trkpt lat="30.9899033" lon="-6.6805783"><ele>1146.0</ele><time>2026-04-23T18:32:39.423Z</time></trkpt><trkpt lat="30.9898383" lon="-6.6808117"><ele>1146.0</ele><time>2026-04-23T18:32:40.423Z</time></trkpt><trkpt lat="30.9897617" lon="-6.68104"><ele>1146.3333333333333</ele><time>2026-04-23T18:32:41.423Z</time></trkpt><trkpt lat="30.98969" lon="-6.6812717"><ele>1146.6666666666665</ele><time>2026-04-23T18:32:42.423Z</time></trkpt><trkpt lat="30.9896117" lon="-6.6815017"><ele>1147.0</ele><time>2026-04-23T18:32:43.423Z</time></trkpt><trkpt lat="30.9895383" lon="-6.6817433"><ele>1147.6666666666665</ele><time>2026-04-23T18:32:44.423Z</time></trkpt><trkpt lat="30.9894633" lon="-6.681975"><ele>1148.3333333333333</ele><time>2026-04-23T18:32:45.423Z</time></trkpt><trkpt lat="30.9893883" lon="-6.6822067"><ele>1149.0</ele><time>2026-04-23T18:32:46.423Z</time></trkpt><trkpt lat="30.9893117" lon="-6.6824367"><ele>1149.0</ele><time>2026-04-23T18:32:47.423Z</time></trkpt><trkpt lat="30.9892317" lon="-6.6826733"><ele>1149.0</ele><time>2026-04-23T18:32:48.423Z</time></trkpt><trkpt lat="30.9891533" lon="-6.682915"><ele>1149.0</ele><time>2026-04-23T18:32:49.423Z</time></trkpt><trkpt lat="30.9890767" lon="-6.6831617"><ele>1148.0</ele><time>2026-04-23T18:32:50.423Z</time></trkpt><trkpt lat="30.989" lon="-6.68341"><ele>1147.0</ele><time>2026-04-23T18:32:51.423Z</time></trkpt><trkpt lat="30.9889283" lon="-6.68367"><ele>1147.0</ele><time>2026-04-23T18:32:52.423Z</time></trkpt><trkpt lat="30.9888583" lon="-6.6839367"><ele>1147.0</ele><time>2026-04-23T18:32:53.423Z</time></trkpt><trkpt lat="30.9888" lon="-6.684205"><ele>1148.0</ele><time>2026-04-23T18:32:54.423Z</time></trkpt><trkpt lat="30.9887517" lon="-6.68448"><ele>1149.0</ele><time>2026-04-23T18:32:55.423Z</time></trkpt><trkpt lat="30.9887083" lon="-6.6847633"><ele>1149.0</ele><time>2026-04-23T18:32:56.423Z</time></trkpt><trkpt lat="30.9886567" lon="-6.6850417"><ele>1149.0</ele><time>2026-04-23T18:32:57.423Z</time></trkpt><trkpt lat="30.9886033" lon="-6.6853233"><ele>1147.5</ele><time>2026-04-23T18:32:58.423Z</time></trkpt><trkpt lat="30.9885483" lon="-6.6856083"><ele>1146.0</ele><time>2026-04-23T18:32:59.423Z</time></trkpt><trkpt lat="30.9884967" lon="-6.6858933"><ele>1144.5</ele><time>2026-04-23T18:33:00.423Z</time></trkpt><trkpt lat="30.98844" lon="-6.6861817"><ele>1143.0</ele><time>2026-04-23T18:33:01.423Z</time></trkpt><trkpt lat="30.9883867" lon="-6.6864683"><ele>1144.5</ele><time>2026-04-23T18:33:02.423Z</time></trkpt><trkpt lat="30.988325" lon="-6.6867533"><ele>1146.0</ele><time>2026-04-23T18:33:03.423Z</time></trkpt><trkpt lat="30.9882733" lon="-6.6870417"><ele>1147.0</ele><time>2026-04-23T18:33:04.423Z</time></trkpt><trkpt lat="30.9882183" lon="-6.6873283"><ele>1148.0</ele><time>2026-04-23T18:33:05.423Z</time></trkpt><trkpt lat="30.9881633" lon="-6.68761"><ele>1146.0</ele><time>2026-04-23T18:33:06.423Z</time></trkpt><trkpt lat="30.9881017" lon="-6.6878883"><ele>1144.0</ele><time>2026-04-23T18:33:07.423Z</time></trkpt><trkpt lat="30.9880467" lon="-6.6881733"><ele>1144.0</ele><time>2026-04-23T18:33:08.424Z</time></trkpt><trkpt lat="30.9879933" lon="-6.688455"><ele>1144.0</ele><time>2026-04-23T18:33:09.423Z</time></trkpt><trkpt lat="30.9879417" lon="-6.6887333"><ele>1144.0</ele><time>2026-04-23T18:33:10.423Z</time></trkpt><trkpt lat="30.9878867" lon="-6.6890083"><ele>1144.0</ele><time>2026-04-23T18:33:11.423Z</time></trkpt><trkpt lat="30.9878317" lon="-6.6892883"><ele>1142.5</ele><time>2026-04-23T18:33:12.423Z</time></trkpt><trkpt lat="30.987785" lon="-6.6895733"><ele>1141.0</ele><time>2026-04-23T18:33:13.423Z</time></trkpt><trkpt lat="30.9877333" lon="-6.6898533"><ele>1141.0</ele><time>2026-04-23T18:33:14.423Z</time></trkpt><trkpt lat="30.98768" lon="-6.6901317"><ele>1141.0</ele><time>2026-04-23T18:33:15.423Z</time></trkpt><trkpt lat="30.98763" lon="-6.6904133"><ele>1140.0</ele><time>2026-04-23T18:33:16.423Z</time></trkpt><trkpt lat="30.9875833" lon="-6.6906933"><ele>1139.0</ele><time>2026-04-23T18:33:17.423Z</time></trkpt><trkpt lat="30.9875283" lon="-6.69097"><ele>1142.0</ele><time>2026-04-23T18:33:18.423Z</time></trkpt><trkpt lat="30.9874767" lon="-6.6912483"><ele>1145.0</ele><time>2026-04-23T18:33:19.423Z</time></trkpt><trkpt lat="30.9874217" lon="-6.691525"><ele>1145.0</ele><time>2026-04-23T18:33:20.423Z</time></trkpt><trkpt lat="30.9873667" lon="-6.6918"><ele>1145.0</ele><time>2026-04-23T18:33:21.423Z</time></trkpt><trkpt lat="30.9873133" lon="-6.692075"><ele>1144.0</ele><time>2026-04-23T18:33:22.423Z</time></trkpt><trkpt lat="30.987265" lon="-6.6923533"><ele>1143.0</ele><time>2026-04-23T18:33:23.423Z</time></trkpt><trkpt lat="30.9872217" lon="-6.6926317"><ele>1143.5</ele><time>2026-04-23T18:33:24.423Z</time></trkpt><trkpt lat="30.9871683" lon="-6.6929067"><ele>1144.0</ele><time>2026-04-23T18:33:25.423Z</time></trkpt><trkpt lat="30.987115" lon="-6.6931783"><ele>1144.0</ele><time>2026-04-23T18:33:26.423Z</time></trkpt><trkpt lat="30.9870667" lon="-6.6934517"><ele>1144.0</ele><time>2026-04-23T18:33:27.423Z</time></trkpt><trkpt lat="30.9870117" lon="-6.69372"><ele>1144.0</ele><time>2026-04-23T18:33:28.423Z</time></trkpt><trkpt lat="30.98695" lon="-6.693985"><ele>1144.0</ele><time>2026-04-23T18:33:29.423Z</time></trkpt><trkpt lat="30.98688" lon="-6.6942467"><ele>1142.0</ele><time>2026-04-23T18:33:30.423Z</time></trkpt><trkpt lat="30.9868033" lon="-6.6945083"><ele>1140.0</ele><time>2026-04-23T18:33:31.423Z</time></trkpt><trkpt lat="30.9867217" lon="-6.6947683"><ele>1139.0</ele><time>2026-04-23T18:33:32.423Z</time></trkpt><trkpt lat="30.98663" lon="-6.6950283"><ele>1138.0</ele><time>2026-04-23T18:33:33.423Z</time></trkpt><trkpt lat="30.98654" lon="-6.6952767"><ele>1138.0</ele><time>2026-04-23T18:33:34.423Z</time></trkpt><trkpt lat="30.9864483" lon="-6.6955233"><ele>1138.0</ele><time>2026-04-23T18:33:35.423Z</time></trkpt><trkpt lat="30.9863567" lon="-6.695775"><ele>1138.0</ele><time>2026-04-23T18:33:36.423Z</time></trkpt><trkpt lat="30.9862617" lon="-6.696025"><ele>1138.0</ele><time>2026-04-23T18:33:37.423Z</time></trkpt><trkpt lat="30.986165" lon="-6.6962717"><ele>1138.0</ele><time>2026-04-23T18:33:38.423Z</time></trkpt><trkpt lat="30.9860717" lon="-6.696525"><ele>1138.0</ele><time>2026-04-23T18:33:39.423Z</time></trkpt><trkpt lat="30.9859767" lon="-6.6967717"><ele>1138.0</ele><time>2026-04-23T18:33:40.423Z</time></trkpt><trkpt lat="30.985885" lon="-6.6970267"><ele>1138.0</ele><time>2026-04-23T18:33:41.423Z</time></trkpt><trkpt lat="30.985795" lon="-6.6972733"><ele>1138.0</ele><time>2026-04-23T18:33:42.423Z</time></trkpt><trkpt lat="30.9856983" lon="-6.6975183"><ele>1138.0</ele><time>2026-04-23T18:33:43.423Z</time></trkpt><trkpt lat="30.9855983" lon="-6.6977683"><ele>1136.5</ele><time>2026-04-23T18:33:44.423Z</time></trkpt><trkpt lat="30.9855067" lon="-6.69802"><ele>1135.0</ele><time>2026-04-23T18:33:45.423Z</time></trkpt><trkpt lat="30.9854117" lon="-6.6982667"><ele>1135.0</ele><time>2026-04-23T18:33:46.423Z</time></trkpt><trkpt lat="30.9853167" lon="-6.6985167"><ele>1135.0</ele><time>2026-04-23T18:33:47.423Z</time></trkpt><trkpt lat="30.985225" lon="-6.6987633"><ele>1135.0</ele><time>2026-04-23T18:33:48.423Z</time></trkpt><trkpt lat="30.98513" lon="-6.6990083"><ele>1135.0</ele><time>2026-04-23T18:33:49.423Z</time></trkpt><trkpt lat="30.985035" lon="-6.6992567"><ele>1135.5</ele><time>2026-04-23T18:33:50.423Z</time></trkpt><trkpt lat="30.9849383" lon="-6.6995017"><ele>1136.0</ele><time>2026-04-23T18:33:51.423Z</time></trkpt><trkpt lat="30.9848433" lon="-6.6997533"><ele>1136.0</ele><time>2026-04-23T18:33:52.423Z</time></trkpt><trkpt lat="30.984745" lon="-6.7000067"><ele>1136.0</ele><time>2026-04-23T18:33:53.423Z</time></trkpt><trkpt lat="30.98465" lon="-6.700265"><ele>1135.5</ele><time>2026-04-23T18:33:54.423Z</time></trkpt><trkpt lat="30.984555" lon="-6.7005267"><ele>1135.0</ele><time>2026-04-23T18:33:55.423Z</time></trkpt><trkpt lat="30.9844533" lon="-6.7007817"><ele>1135.0</ele><time>2026-04-23T18:33:56.423Z</time></trkpt><trkpt lat="30.984355" lon="-6.70104"><ele>1135.0</ele><time>2026-04-23T18:33:57.423Z</time></trkpt><trkpt lat="30.9842533" lon="-6.7013"><ele>1133.0</ele><time>2026-04-23T18:33:58.423Z</time></trkpt><trkpt lat="30.9841567" lon="-6.7015617"><ele>1131.0</ele><time>2026-04-23T18:33:59.423Z</time></trkpt><trkpt lat="30.9840567" lon="-6.7018217"><ele>1130.5</ele><time>2026-04-23T18:34:00.423Z</time></trkpt><trkpt lat="30.9839617" lon="-6.7020867"><ele>1130.0</ele><time>2026-04-23T18:34:01.423Z</time></trkpt><trkpt lat="30.9838633" lon="-6.7023483"><ele>1130.0</ele><time>2026-04-23T18:34:02.423Z</time></trkpt><trkpt lat="30.9837633" lon="-6.702605"><ele>1130.0</ele><time>2026-04-23T18:34:03.423Z</time></trkpt><trkpt lat="30.9836617" lon="-6.70287"><ele>1131.5</ele><time>2026-04-23T18:34:04.423Z</time></trkpt><trkpt lat="30.98356" lon="-6.7031367"><ele>1133.0</ele><time>2026-04-23T18:34:05.423Z</time></trkpt><trkpt lat="30.98346" lon="-6.7033967"><ele>1133.5</ele><time>2026-04-23T18:34:06.424Z</time></trkpt><trkpt lat="30.9833633" lon="-6.70366"><ele>1134.0</ele><time>2026-04-23T18:34:07.423Z</time></trkpt><trkpt lat="30.983265" lon="-6.7039217"><ele>1134.5</ele><time>2026-04-23T18:34:08.423Z</time></trkpt><trkpt lat="30.9831667" lon="-6.7041867"><ele>1135.0</ele><time>2026-04-23T18:34:09.423Z</time></trkpt><trkpt lat="30.9830667" lon="-6.704455"><ele>1135.0</ele><time>2026-04-23T18:34:10.423Z</time></trkpt><trkpt lat="30.982965" lon="-6.7047183"><ele>1135.0</ele><time>2026-04-23T18:34:11.423Z</time></trkpt><trkpt lat="30.9828633" lon="-6.7049867"><ele>1135.5</ele><time>2026-04-23T18:34:12.423Z</time></trkpt><trkpt lat="30.9827617" lon="-6.70525"><ele>1136.0</ele><time>2026-04-23T18:34:13.423Z</time></trkpt><trkpt lat="30.9826633" lon="-6.7055183"><ele>1136.0</ele><time>2026-04-23T18:34:14.423Z</time></trkpt><trkpt lat="30.9825617" lon="-6.7057867"><ele>1136.0</ele><time>2026-04-23T18:34:15.423Z</time></trkpt><trkpt lat="30.98246" lon="-6.7060517"><ele>1134.5</ele><time>2026-04-23T18:34:16.423Z</time></trkpt><trkpt lat="30.982365" lon="-6.70632"><ele>1133.0</ele><time>2026-04-23T18:34:17.423Z</time></trkpt><trkpt lat="30.9822667" lon="-6.7065883"><ele>1133.0</ele><time>2026-04-23T18:34:18.423Z</time></trkpt><trkpt lat="30.98217" lon="-6.7068567"><ele>1133.0</ele><time>2026-04-23T18:34:19.423Z</time></trkpt><trkpt lat="30.9820733" lon="-6.70713"><ele>1134.0</ele><time>2026-04-23T18:34:20.423Z</time></trkpt><trkpt lat="30.9819717" lon="-6.7073983"><ele>1135.0</ele><time>2026-04-23T18:34:21.423Z</time></trkpt><trkpt lat="30.9818733" lon="-6.7076683"><ele>1134.5</ele><time>2026-04-23T18:34:22.424Z</time></trkpt><trkpt lat="30.9817717" lon="-6.707935"><ele>1134.0</ele><time>2026-04-23T18:34:23.423Z</time></trkpt><trkpt lat="30.981665" lon="-6.70819"><ele>1133.5</ele><time>2026-04-23T18:34:24.423Z</time></trkpt><trkpt lat="30.9815583" lon="-6.70845"><ele>1133.0</ele><time>2026-04-23T18:34:25.423Z</time></trkpt><trkpt lat="30.9814567" lon="-6.7087167"><ele>1133.0</ele><time>2026-04-23T18:34:26.423Z</time></trkpt><trkpt lat="30.98136" lon="-6.7089833"><ele>1133.0</ele><time>2026-04-23T18:34:27.423Z</time></trkpt><trkpt lat="30.98126" lon="-6.7092517"><ele>1133.0</ele><time>2026-04-23T18:34:28.423Z</time></trkpt><trkpt lat="30.9811583" lon="-6.70952"><ele>1133.0</ele><time>2026-04-23T18:34:29.423Z</time></trkpt><trkpt lat="30.9810567" lon="-6.7097883"><ele>1133.0</ele><time>2026-04-23T18:34:30.423Z</time></trkpt><trkpt lat="30.9809567" lon="-6.7100617"><ele>1133.0</ele><time>2026-04-23T18:34:31.423Z</time></trkpt><trkpt lat="30.9808567" lon="-6.7103317"><ele>1136.0</ele><time>2026-04-23T18:34:32.423Z</time></trkpt><trkpt lat="30.9807483" lon="-6.7105967"><ele>1139.0</ele><time>2026-04-23T18:34:33.423Z</time></trkpt><trkpt lat="30.9806383" lon="-6.7108617"><ele>1139.0</ele><time>2026-04-23T18:34:34.423Z</time></trkpt><trkpt lat="30.98053" lon="-6.7111283"><ele>1139.0</ele><time>2026-04-23T18:34:35.423Z</time></trkpt><trkpt lat="30.9804233" lon="-6.711405"><ele>1139.0</ele><time>2026-04-23T18:34:36.424Z</time></trkpt><trkpt lat="30.9803367" lon="-6.7116817"><ele>1139.0</ele><time>2026-04-23T18:34:37.423Z</time></trkpt><trkpt lat="30.9802283" lon="-6.711945"><ele>1138.5</ele><time>2026-04-23T18:34:38.423Z</time></trkpt><trkpt lat="30.980125" lon="-6.7122117"><ele>1138.0</ele><time>2026-04-23T18:34:39.423Z</time></trkpt><trkpt lat="30.9800267" lon="-6.7124883"><ele>1138.0</ele><time>2026-04-23T18:34:40.423Z</time></trkpt><trkpt lat="30.9799233" lon="-6.7127583"><ele>1138.0</ele><time>2026-04-23T18:34:41.423Z</time></trkpt><trkpt lat="30.9798217" lon="-6.7130267"><ele>1138.0</ele><time>2026-04-23T18:34:42.423Z</time></trkpt><trkpt lat="30.97972" lon="-6.7133"><ele>1138.0</ele><time>2026-04-23T18:34:43.423Z</time></trkpt><trkpt lat="30.9796133" lon="-6.7135683"><ele>1138.0</ele><time>2026-04-23T18:34:44.424Z</time></trkpt><trkpt lat="30.9795133" lon="-6.7138417"><ele>1138.0</ele><time>2026-04-23T18:34:45.423Z</time></trkpt><trkpt lat="30.979415" lon="-6.71411"><ele>1138.0</ele><time>2026-04-23T18:34:46.423Z</time></trkpt><trkpt lat="30.9793167" lon="-6.7143817"><ele>1138.0</ele><time>2026-04-23T18:34:47.423Z</time></trkpt><trkpt lat="30.9792167" lon="-6.7146517"><ele>1139.0</ele><time>2026-04-23T18:34:48.423Z</time></trkpt><trkpt lat="30.9791133" lon="-6.7149317"><ele>1140.0</ele><time>2026-04-23T18:34:49.423Z</time></trkpt><trkpt lat="30.979005" lon="-6.7152017"><ele>1139.5</ele><time>2026-04-23T18:34:50.423Z</time></trkpt><trkpt lat="30.9789083" lon="-6.7154717"><ele>1139.0</ele><time>2026-04-23T18:34:51.423Z</time></trkpt><trkpt lat="30.9788083" lon="-6.71573"><ele>1139.0</ele><time>2026-04-23T18:34:52.423Z</time></trkpt><trkpt lat="30.9787033" lon="-6.71599"><ele>1139.0</ele><time>2026-04-23T18:34:53.423Z</time></trkpt><trkpt lat="30.9786017" lon="-6.7162467"><ele>1139.0</ele><time>2026-04-23T18:34:54.423Z</time></trkpt><trkpt lat="30.9785" lon="-6.7165033"><ele>1139.0</ele><time>2026-04-23T18:34:55.423Z</time></trkpt><trkpt lat="30.9784017" lon="-6.7167567"><ele>1141.0</ele><time>2026-04-23T18:34:56.423Z</time></trkpt><trkpt lat="30.9783117" lon="-6.7170133"><ele>1143.0</ele><time>2026-04-23T18:34:57.423Z</time></trkpt><trkpt lat="30.978215" lon="-6.7172733"><ele>1143.0</ele><time>2026-04-23T18:34:58.423Z</time></trkpt><trkpt lat="30.9781217" lon="-6.71753"><ele>1143.0</ele><time>2026-04-23T18:34:59.423Z</time></trkpt><trkpt lat="30.978025" lon="-6.7177883"><ele>1143.0</ele><time>2026-04-23T18:35:00.423Z</time></trkpt><trkpt lat="30.9779283" lon="-6.7180483"><ele>1143.0</ele><time>2026-04-23T18:35:01.423Z</time></trkpt><trkpt lat="30.9778283" lon="-6.7183"><ele>1143.0</ele><time>2026-04-23T18:35:02.423Z</time></trkpt><trkpt lat="30.9777283" lon="-6.7185467"><ele>1143.0</ele><time>2026-04-23T18:35:03.423Z</time></trkpt><trkpt lat="30.97763" lon="-6.7188033"><ele>1143.0</ele><time>2026-04-23T18:35:04.423Z</time></trkpt><trkpt lat="30.97753" lon="-6.7190567"><ele>1143.0</ele><time>2026-04-23T18:35:05.423Z</time></trkpt><trkpt lat="30.977435" lon="-6.71931"><ele>1142.5</ele><time>2026-04-23T18:35:06.423Z</time></trkpt><trkpt lat="30.977345" lon="-6.7195667"><ele>1142.0</ele><time>2026-04-23T18:35:07.423Z</time></trkpt><trkpt lat="30.9772433" lon="-6.719825"><ele>1142.0</ele><time>2026-04-23T18:35:08.423Z</time></trkpt><trkpt lat="30.9771467" lon="-6.7200783"><ele>1142.0</ele><time>2026-04-23T18:35:09.423Z</time></trkpt><trkpt lat="30.97705" lon="-6.72034"><ele>1142.0</ele><time>2026-04-23T18:35:10.423Z</time></trkpt><trkpt lat="30.9769517" lon="-6.7206017"><ele>1142.0</ele><time>2026-04-23T18:35:11.423Z</time></trkpt><trkpt lat="30.9768567" lon="-6.7208583"><ele>1142.5</ele><time>2026-04-23T18:35:12.423Z</time></trkpt><trkpt lat="30.9767583" lon="-6.7211117"><ele>1143.0</ele><time>2026-04-23T18:35:13.424Z</time></trkpt><trkpt lat="30.976655" lon="-6.7213683"><ele>1143.0</ele><time>2026-04-23T18:35:14.423Z</time></trkpt><trkpt lat="30.9765533" lon="-6.7216183"><ele>1143.0</ele><time>2026-04-23T18:35:15.423Z</time></trkpt><trkpt lat="30.9764433" lon="-6.7218717"><ele>1142.0</ele><time>2026-04-23T18:35:16.423Z</time></trkpt><trkpt lat="30.97633" lon="-6.7221333"><ele>1141.0</ele><time>2026-04-23T18:35:17.423Z</time></trkpt><trkpt lat="30.9762217" lon="-6.7223917"><ele>1141.0</ele><time>2026-04-23T18:35:18.423Z</time></trkpt><trkpt lat="30.9761117" lon="-6.7226567"><ele>1141.0</ele><time>2026-04-23T18:35:19.423Z</time></trkpt><trkpt lat="30.9760017" lon="-6.7229183"><ele>1140.5</ele><time>2026-04-23T18:35:20.423Z</time></trkpt><trkpt lat="30.9758883" lon="-6.7231817"><ele>1140.0</ele><time>2026-04-23T18:35:21.423Z</time></trkpt><trkpt lat="30.975775" lon="-6.7234417"><ele>1138.5</ele><time>2026-04-23T18:35:22.423Z</time></trkpt><trkpt lat="30.975675" lon="-6.7236983"><ele>1137.0</ele><time>2026-04-23T18:35:23.423Z</time></trkpt><trkpt lat="30.9755717" lon="-6.7239467"><ele>1137.0</ele><time>2026-04-23T18:35:24.423Z</time></trkpt><trkpt lat="30.97547" lon="-6.724195"><ele>1137.0</ele><time>2026-04-23T18:35:25.423Z</time></trkpt><trkpt lat="30.97536" lon="-6.72444"><ele>1137.0</ele><time>2026-04-23T18:35:26.423Z</time></trkpt><trkpt lat="30.9752583" lon="-6.724685"><ele>1137.0</ele><time>2026-04-23T18:35:27.423Z</time></trkpt><trkpt lat="30.9751533" lon="-6.724925"><ele>1137.0</ele><time>2026-04-23T18:35:28.423Z</time></trkpt><trkpt lat="30.9750433" lon="-6.725165"><ele>1137.0</ele><time>2026-04-23T18:35:29.424Z</time></trkpt><trkpt lat="30.974935" lon="-6.7254067"><ele>1137.5</ele><time>2026-04-23T18:35:30.423Z</time></trkpt><trkpt lat="30.9748283" lon="-6.725655"><ele>1138.0</ele><time>2026-04-23T18:35:31.423Z</time></trkpt><trkpt lat="30.9747233" lon="-6.7259033"><ele>1142.5</ele><time>2026-04-23T18:35:32.423Z</time></trkpt><trkpt lat="30.9746283" lon="-6.7261567"><ele>1147.0</ele><time>2026-04-23T18:35:33.423Z</time></trkpt><trkpt lat="30.9745417" lon="-6.7264167"><ele>1147.0</ele><time>2026-04-23T18:35:34.423Z</time></trkpt><trkpt lat="30.9744617" lon="-6.7266733"><ele>1147.0</ele><time>2026-04-23T18:35:35.423Z</time></trkpt><trkpt lat="30.9743917" lon="-6.7269433"><ele>1146.0</ele><time>2026-04-23T18:35:36.423Z</time></trkpt><trkpt lat="30.9743317" lon="-6.72722"><ele>1145.0</ele><time>2026-04-23T18:35:37.423Z</time></trkpt><trkpt lat="30.9742867" lon="-6.727505"><ele>1143.5</ele><time>2026-04-23T18:35:38.423Z</time></trkpt><trkpt lat="30.9742633" lon="-6.7278017"><ele>1142.0</ele><time>2026-04-23T18:35:39.423Z</time></trkpt><trkpt lat="30.9742533" lon="-6.7281"><ele>1142.0</ele><time>2026-04-23T18:35:40.423Z</time></trkpt><trkpt lat="30.9742533" lon="-6.7284"><ele>1142.0</ele><time>2026-04-23T18:35:41.423Z</time></trkpt><trkpt lat="30.9742633" lon="-6.7286983"><ele>1141.5</ele><time>2026-04-23T18:35:42.423Z</time></trkpt><trkpt lat="30.974285" lon="-6.7290017"><ele>1141.0</ele><time>2026-04-23T18:35:43.423Z</time></trkpt><trkpt lat="30.974315" lon="-6.72929"><ele>1140.5</ele><time>2026-04-23T18:35:44.423Z</time></trkpt><trkpt lat="30.9743467" lon="-6.729555"><ele>1140.0</ele><time>2026-04-23T18:35:45.423Z</time></trkpt><trkpt lat="30.9743833" lon="-6.729825"><ele>1140.0</ele><time>2026-04-23T18:35:46.423Z</time></trkpt><trkpt lat="30.9744133" lon="-6.7300883"><ele>1140.0</ele><time>2026-04-23T18:35:47.423Z</time></trkpt><trkpt lat="30.97444" lon="-6.73035"><ele>1139.5</ele><time>2026-04-23T18:35:48.423Z</time></trkpt><trkpt lat="30.974465" lon="-6.7306233"><ele>1139.0</ele><time>2026-04-23T18:35:49.423Z</time></trkpt><trkpt lat="30.97449" lon="-6.7308933"><ele>1137.5</ele><time>2026-04-23T18:35:50.423Z</time></trkpt><trkpt lat="30.974515" lon="-6.7311733"><ele>1136.0</ele><time>2026-04-23T18:35:51.423Z</time></trkpt><trkpt lat="30.9745433" lon="-6.73145"><ele>1136.0</ele><time>2026-04-23T18:35:52.423Z</time></trkpt><trkpt lat="30.9745717" lon="-6.7317117"><ele>1136.0</ele><time>2026-04-23T18:35:53.423Z</time></trkpt><trkpt lat="30.9745967" lon="-6.731965"><ele>1136.0</ele><time>2026-04-23T18:35:54.424Z</time></trkpt><trkpt lat="30.9746183" lon="-6.7322117"><ele>1135.6666666666667</ele><time>2026-04-23T18:35:55.423Z</time></trkpt><trkpt lat="30.9746433" lon="-6.7324467"><ele>1135.3333333333333</ele><time>2026-04-23T18:35:56.424Z</time></trkpt><trkpt lat="30.9746617" lon="-6.732675"><ele>1135.0</ele><time>2026-04-23T18:35:57.423Z</time></trkpt><trkpt lat="30.974685" lon="-6.7329017"><ele>1135.0</ele><time>2026-04-23T18:35:58.423Z</time></trkpt><trkpt lat="30.9747067" lon="-6.733125"><ele>1135.0</ele><time>2026-04-23T18:35:59.423Z</time></trkpt><trkpt lat="30.9747317" lon="-6.7333417"><ele>1135.0</ele><time>2026-04-23T18:36:00.423Z</time></trkpt><trkpt lat="30.9747533" lon="-6.7335667"><ele>1135.3333333333333</ele><time>2026-04-23T18:36:01.423Z</time></trkpt><trkpt lat="30.974775" lon="-6.73379"><ele>1135.6666666666667</ele><time>2026-04-23T18:36:02.423Z</time></trkpt><trkpt lat="30.9747967" lon="-6.7340117"><ele>1136.0</ele><time>2026-04-23T18:36:03.423Z</time></trkpt><trkpt lat="30.974815" lon="-6.7342383"><ele>1135.3333333333335</ele><time>2026-04-23T18:36:04.423Z</time></trkpt><trkpt lat="30.9748333" lon="-6.7344583"><ele>1134.6666666666667</ele><time>2026-04-23T18:36:05.423Z</time></trkpt><trkpt lat="30.97486" lon="-6.7346833"><ele>1134.0</ele><time>2026-04-23T18:36:06.423Z</time></trkpt><trkpt lat="30.9748867" lon="-6.73491"><ele>1134.0</ele><time>2026-04-23T18:36:07.423Z</time></trkpt><trkpt lat="30.974905" lon="-6.7351267"><ele>1134.0</ele><time>2026-04-23T18:36:08.423Z</time></trkpt><trkpt lat="30.9749267" lon="-6.7353367"><ele>1134.0</ele><time>2026-04-23T18:36:09.423Z</time></trkpt><trkpt lat="30.9749483" lon="-6.735545"><ele>1133.6666666666667</ele><time>2026-04-23T18:36:10.423Z</time></trkpt><trkpt lat="30.9749683" lon="-6.73575"><ele>1133.3333333333335</ele><time>2026-04-23T18:36:11.423Z</time></trkpt><trkpt lat="30.97499" lon="-6.7359617"><ele>1133.0</ele><time>2026-04-23T18:36:12.423Z</time></trkpt><trkpt lat="30.975015" lon="-6.736175"><ele>1133.6666666666667</ele><time>2026-04-23T18:36:13.423Z</time></trkpt><trkpt lat="30.9750383" lon="-6.7363883"><ele>1134.3333333333333</ele><time>2026-04-23T18:36:14.423Z</time></trkpt><trkpt lat="30.9750617" lon="-6.73661"><ele>1135.0</ele><time>2026-04-23T18:36:15.423Z</time></trkpt><trkpt lat="30.9750817" lon="-6.7368367"><ele>1134.0</ele><time>2026-04-23T18:36:16.423Z</time></trkpt><trkpt lat="30.9751033" lon="-6.7370717"><ele>1133.0</ele><time>2026-04-23T18:36:17.423Z</time></trkpt><trkpt lat="30.9751317" lon="-6.7373033"><ele>1132.0</ele><time>2026-04-23T18:36:18.423Z</time></trkpt><trkpt lat="30.9751467" lon="-6.7375333"><ele>1131.6666666666665</ele><time>2026-04-23T18:36:19.423Z</time></trkpt><trkpt lat="30.975165" lon="-6.7377617"><ele>1131.3333333333333</ele><time>2026-04-23T18:36:20.423Z</time></trkpt><trkpt lat="30.975185" lon="-6.7379933"><ele>1131.0</ele><time>2026-04-23T18:36:21.423Z</time></trkpt><trkpt lat="30.9752" lon="-6.7382217"><ele>1131.0</ele><time>2026-04-23T18:36:22.423Z</time></trkpt><trkpt lat="30.9752167" lon="-6.73846"><ele>1131.0</ele><time>2026-04-23T18:36:23.423Z</time></trkpt><trkpt lat="30.9752333" lon="-6.7387067"><ele>1131.0</ele><time>2026-04-23T18:36:24.423Z</time></trkpt><trkpt lat="30.97524" lon="-6.73895"><ele>1130.6666666666667</ele><time>2026-04-23T18:36:25.423Z</time></trkpt><trkpt lat="30.9752467" lon="-6.7391883"><ele>1130.3333333333335</ele><time>2026-04-23T18:36:26.423Z</time></trkpt><trkpt lat="30.9752533" lon="-6.73943"><ele>1130.0</ele><time>2026-04-23T18:36:27.423Z</time></trkpt><trkpt lat="30.97526" lon="-6.7396767"><ele>1129.6666666666667</ele><time>2026-04-23T18:36:28.423Z</time></trkpt><trkpt lat="30.9752767" lon="-6.73993"><ele>1129.3333333333333</ele><time>2026-04-23T18:36:29.423Z</time></trkpt><trkpt lat="30.9752933" lon="-6.74019"><ele>1129.0</ele><time>2026-04-23T18:36:30.423Z</time></trkpt><trkpt lat="30.9753067" lon="-6.7404533"><ele>1128.0</ele><time>2026-04-23T18:36:31.423Z</time></trkpt><trkpt lat="30.9753167" lon="-6.7407217"><ele>1127.0</ele><time>2026-04-23T18:36:32.423Z</time></trkpt><trkpt lat="30.9753267" lon="-6.7409917"><ele>1127.0</ele><time>2026-04-23T18:36:33.423Z</time></trkpt><trkpt lat="30.97534" lon="-6.741265"><ele>1127.0</ele><time>2026-04-23T18:36:34.423Z</time></trkpt><trkpt lat="30.9753517" lon="-6.7415417"><ele>1127.0</ele><time>2026-04-23T18:36:35.423Z</time></trkpt><trkpt lat="30.97536" lon="-6.7418167"><ele>1127.0</ele><time>2026-04-23T18:36:36.423Z</time></trkpt><trkpt lat="30.9753817" lon="-6.7420967"><ele>1127.0</ele><time>2026-04-23T18:36:37.423Z</time></trkpt><trkpt lat="30.9753967" lon="-6.7423767"><ele>1127.0</ele><time>2026-04-23T18:36:38.423Z</time></trkpt><trkpt lat="30.9754067" lon="-6.7426533"><ele>1128.0</ele><time>2026-04-23T18:36:39.423Z</time></trkpt><trkpt lat="30.97542" lon="-6.7429317"><ele>1129.0</ele><time>2026-04-23T18:36:40.423Z</time></trkpt><trkpt lat="30.9754367" lon="-6.743205"><ele>1129.0</ele><time>2026-04-23T18:36:41.423Z</time></trkpt><trkpt lat="30.9754533" lon="-6.7434717"><ele>1129.0</ele><time>2026-04-23T18:36:42.423Z</time></trkpt><trkpt lat="30.9754667" lon="-6.7437233"><ele>1129.0</ele><time>2026-04-23T18:36:43.423Z</time></trkpt><trkpt lat="30.9754733" lon="-6.7439733"><ele>1129.0</ele><time>2026-04-23T18:36:44.423Z</time></trkpt><trkpt lat="30.97548" lon="-6.744215"><ele>1129.0</ele><time>2026-04-23T18:36:45.423Z</time></trkpt><trkpt lat="30.9754833" lon="-6.744445"><ele>1129.0</ele><time>2026-04-23T18:36:46.423Z</time></trkpt><trkpt lat="30.9754917" lon="-6.7446733"><ele>1128.3333333333333</ele><time>2026-04-23T18:36:47.423Z</time></trkpt><trkpt lat="30.9755017" lon="-6.7449"><ele>1127.6666666666667</ele><time>2026-04-23T18:36:48.423Z</time></trkpt><trkpt lat="30.9755133" lon="-6.745125"><ele>1127.0</ele><time>2026-04-23T18:36:49.423Z</time></trkpt><trkpt lat="30.97552" lon="-6.7453467"><ele>1126.3333333333335</ele><time>2026-04-23T18:36:50.423Z</time></trkpt><trkpt lat="30.97553" lon="-6.745565"><ele>1125.6666666666667</ele><time>2026-04-23T18:36:51.423Z</time></trkpt><trkpt lat="30.9755417" lon="-6.7457933"><ele>1125.0</ele><time>2026-04-23T18:36:52.423Z</time></trkpt><trkpt lat="30.97555" lon="-6.7460133"><ele>1126.3333333333333</ele><time>2026-04-23T18:36:53.424Z</time></trkpt><trkpt lat="30.9755567" lon="-6.7462333"><ele>1127.6666666666665</ele><time>2026-04-23T18:36:54.423Z</time></trkpt><trkpt lat="30.97557" lon="-6.74646"><ele>1129.0</ele><time>2026-04-23T18:36:55.423Z</time></trkpt><trkpt lat="30.975575" lon="-6.7466867"><ele>1129.0</ele><time>2026-04-23T18:36:56.423Z</time></trkpt><trkpt lat="30.9755933" lon="-6.7469217"><ele>1129.0</ele><time>2026-04-23T18:36:57.423Z</time></trkpt><trkpt lat="30.9756117" lon="-6.7471567"><ele>1129.0</ele><time>2026-04-23T18:36:58.423Z</time></trkpt><trkpt lat="30.97563" lon="-6.74739"><ele>1129.0</ele><time>2026-04-23T18:36:59.423Z</time></trkpt><trkpt lat="30.9756467" lon="-6.7476233"><ele>1129.0</ele><time>2026-04-23T18:37:00.423Z</time></trkpt><trkpt lat="30.9756583" lon="-6.7478583"><ele>1129.0</ele><time>2026-04-23T18:37:01.423Z</time></trkpt><trkpt lat="30.9756617" lon="-6.74809"><ele>1128.6666666666665</ele><time>2026-04-23T18:37:02.423Z</time></trkpt><trkpt lat="30.9756683" lon="-6.74832"><ele>1128.3333333333333</ele><time>2026-04-23T18:37:03.423Z</time></trkpt><trkpt lat="30.9756783" lon="-6.7485567"><ele>1128.0</ele><time>2026-04-23T18:37:04.423Z</time></trkpt><trkpt lat="30.9756833" lon="-6.74879"><ele>1128.0</ele><time>2026-04-23T18:37:05.423Z</time></trkpt><trkpt lat="30.9756983" lon="-6.74903"><ele>1128.0</ele><time>2026-04-23T18:37:06.423Z</time></trkpt><trkpt lat="30.975715" lon="-6.7492733"><ele>1128.0</ele><time>2026-04-23T18:37:07.423Z</time></trkpt><trkpt lat="30.9757267" lon="-6.7495133"><ele>1128.0</ele><time>2026-04-23T18:37:08.423Z</time></trkpt><trkpt lat="30.97574" lon="-6.7497567"><ele>1128.0</ele><time>2026-04-23T18:37:09.423Z</time></trkpt><trkpt lat="30.97575" lon="-6.7499967"><ele>1128.0</ele><time>2026-04-23T18:37:10.423Z</time></trkpt><trkpt lat="30.97576" lon="-6.750235"><ele>1128.0</ele><time>2026-04-23T18:37:11.423Z</time></trkpt><trkpt lat="30.9757733" lon="-6.750475"><ele>1128.0</ele><time>2026-04-23T18:37:12.423Z</time></trkpt><trkpt lat="30.9757833" lon="-6.7507167"><ele>1128.0</ele><time>2026-04-23T18:37:13.423Z</time></trkpt><trkpt lat="30.9757933" lon="-6.75096"><ele>1128.0</ele><time>2026-04-23T18:37:14.423Z</time></trkpt><trkpt lat="30.9758017" lon="-6.7512017"><ele>1128.0</ele><time>2026-04-23T18:37:15.423Z</time></trkpt><trkpt lat="30.9758133" lon="-6.7514467"><ele>1128.0</ele><time>2026-04-23T18:37:16.423Z</time></trkpt><trkpt lat="30.9758283" lon="-6.75169"><ele>1127.0</ele><time>2026-04-23T18:37:17.423Z</time></trkpt><trkpt lat="30.975845" lon="-6.7519267"><ele>1126.0</ele><time>2026-04-23T18:37:18.423Z</time></trkpt><trkpt lat="30.9758583" lon="-6.752165"><ele>1125.0</ele><time>2026-04-23T18:37:19.423Z</time></trkpt><trkpt lat="30.975865" lon="-6.7524017"><ele>1125.0</ele><time>2026-04-23T18:37:20.424Z</time></trkpt><trkpt lat="30.97588" lon="-6.7526417"><ele>1125.0</ele><time>2026-04-23T18:37:21.423Z</time></trkpt><trkpt lat="30.9758933" lon="-6.752875"><ele>1125.0</ele><time>2026-04-23T18:37:22.423Z</time></trkpt><trkpt lat="30.9759033" lon="-6.7531083"><ele>1125.0</ele><time>2026-04-23T18:37:23.423Z</time></trkpt><trkpt lat="30.975915" lon="-6.7533433"><ele>1125.0</ele><time>2026-04-23T18:37:24.423Z</time></trkpt><trkpt lat="30.9759267" lon="-6.7535783"><ele>1125.0</ele><time>2026-04-23T18:37:25.423Z</time></trkpt><trkpt lat="30.9759367" lon="-6.7538117"><ele>1126.6666666666667</ele><time>2026-04-23T18:37:26.423Z</time></trkpt><trkpt lat="30.9759483" lon="-6.75405"><ele>1128.3333333333335</ele><time>2026-04-23T18:37:27.423Z</time></trkpt><trkpt lat="30.9759633" lon="-6.75429"><ele>1130.0</ele><time>2026-04-23T18:37:28.423Z</time></trkpt><trkpt lat="30.9759733" lon="-6.7545267"><ele>1130.6666666666667</ele><time>2026-04-23T18:37:29.423Z</time></trkpt><trkpt lat="30.9759833" lon="-6.7547633"><ele>1131.3333333333333</ele><time>2026-04-23T18:37:30.424Z</time></trkpt><trkpt lat="30.975995" lon="-6.7549967"><ele>1132.0</ele><time>2026-04-23T18:37:31.423Z</time></trkpt><trkpt lat="30.9760033" lon="-6.7552333"><ele>1132.3333333333333</ele><time>2026-04-23T18:37:32.423Z</time></trkpt><trkpt lat="30.9760183" lon="-6.7554733"><ele>1132.6666666666667</ele><time>2026-04-23T18:37:33.423Z</time></trkpt><trkpt lat="30.97603" lon="-6.7557117"><ele>1133.0</ele><time>2026-04-23T18:37:34.423Z</time></trkpt><trkpt lat="30.9760467" lon="-6.7559567"><ele>1132.0</ele><time>2026-04-23T18:37:35.423Z</time></trkpt><trkpt lat="30.976065" lon="-6.7562033"><ele>1131.0</ele><time>2026-04-23T18:37:36.423Z</time></trkpt><trkpt lat="30.9760767" lon="-6.75644"><ele>1130.0</ele><time>2026-04-23T18:37:37.423Z</time></trkpt><trkpt lat="30.97609" lon="-6.7566833"><ele>1130.0</ele><time>2026-04-23T18:37:38.423Z</time></trkpt><trkpt lat="30.9760967" lon="-6.7569217"><ele>1130.0</ele><time>2026-04-23T18:37:39.423Z</time></trkpt><trkpt lat="30.976105" lon="-6.7571617"><ele>1130.0</ele><time>2026-04-23T18:37:40.423Z</time></trkpt><trkpt lat="30.9761167" lon="-6.7574017"><ele>1130.0</ele><time>2026-04-23T18:37:41.423Z</time></trkpt><trkpt lat="30.9761267" lon="-6.757645"><ele>1130.0</ele><time>2026-04-23T18:37:42.423Z</time></trkpt><trkpt lat="30.9761383" lon="-6.7578883"><ele>1130.0</ele><time>2026-04-23T18:37:43.423Z</time></trkpt><trkpt lat="30.97615" lon="-6.75813"><ele>1130.0</ele><time>2026-04-23T18:37:44.423Z</time></trkpt><trkpt lat="30.976155" lon="-6.7583717"><ele>1130.0</ele><time>2026-04-23T18:37:45.423Z</time></trkpt><trkpt lat="30.9761617" lon="-6.7586117"><ele>1130.0</ele><time>2026-04-23T18:37:46.423Z</time></trkpt><trkpt lat="30.976175" lon="-6.758855"><ele>1130.0</ele><time>2026-04-23T18:37:47.423Z</time></trkpt><trkpt lat="30.9761833" lon="-6.759095"><ele>1130.0</ele><time>2026-04-23T18:37:48.423Z</time></trkpt><trkpt lat="30.9761933" lon="-6.75933"><ele>1130.0</ele><time>2026-04-23T18:37:49.423Z</time></trkpt><trkpt lat="30.9762017" lon="-6.7595617"><ele>1130.3333333333335</ele><time>2026-04-23T18:37:50.422Z</time></trkpt><trkpt lat="30.9762133" lon="-6.7597933"><ele>1130.6666666666667</ele><time>2026-04-23T18:37:51.422Z</time></trkpt><trkpt lat="30.976225" lon="-6.7600233"><ele>1131.0</ele><time>2026-04-23T18:37:52.422Z</time></trkpt><trkpt lat="30.976245" lon="-6.7602567"><ele>1131.3333333333333</ele><time>2026-04-23T18:37:53.422Z</time></trkpt><trkpt lat="30.9762617" lon="-6.7604967"><ele>1131.6666666666665</ele><time>2026-04-23T18:37:54.422Z</time></trkpt><trkpt lat="30.976275" lon="-6.760735"><ele>1132.0</ele><time>2026-04-23T18:37:55.422Z</time></trkpt><trkpt lat="30.9762833" lon="-6.760975"><ele>1130.6666666666665</ele><time>2026-04-23T18:37:56.423Z</time></trkpt><trkpt lat="30.9762917" lon="-6.7612183"><ele>1129.3333333333333</ele><time>2026-04-23T18:37:57.422Z</time></trkpt><trkpt lat="30.9763017" lon="-6.7614567"><ele>1128.0</ele><time>2026-04-23T18:37:58.422Z</time></trkpt><trkpt lat="30.9763133" lon="-6.7616967"><ele>1127.3333333333333</ele><time>2026-04-23T18:37:59.422Z</time></trkpt><trkpt lat="30.976325" lon="-6.7619317"><ele>1126.6666666666665</ele><time>2026-04-23T18:38:00.422Z</time></trkpt><trkpt lat="30.97634" lon="-6.7621733"><ele>1126.0</ele><time>2026-04-23T18:38:01.422Z</time></trkpt><trkpt lat="30.97635" lon="-6.762415"><ele>1126.0</ele><time>2026-04-23T18:38:02.422Z</time></trkpt><trkpt lat="30.9763583" lon="-6.7626533"><ele>1126.0</ele><time>2026-04-23T18:38:03.422Z</time></trkpt><trkpt lat="30.9763733" lon="-6.7628917"><ele>1126.0</ele><time>2026-04-23T18:38:04.422Z</time></trkpt><trkpt lat="30.9763883" lon="-6.7631167"><ele>1126.3333333333333</ele><time>2026-04-23T18:38:05.423Z</time></trkpt><trkpt lat="30.9764017" lon="-6.7633383"><ele>1126.6666666666667</ele><time>2026-04-23T18:38:06.422Z</time></trkpt><trkpt lat="30.9764117" lon="-6.7635533"><ele>1127.0</ele><time>2026-04-23T18:38:07.422Z</time></trkpt><trkpt lat="30.9764183" lon="-6.763755"><ele>1128.0</ele><time>2026-04-23T18:38:08.422Z</time></trkpt><trkpt lat="30.9764283" lon="-6.763955"><ele>1129.0</ele><time>2026-04-23T18:38:09.422Z</time></trkpt><trkpt lat="30.9764417" lon="-6.7641483"><ele>1130.0</ele><time>2026-04-23T18:38:10.422Z</time></trkpt><trkpt lat="30.9764533" lon="-6.7643417"><ele>1130.0</ele><time>2026-04-23T18:38:11.422Z</time></trkpt><trkpt lat="30.97646" lon="-6.7645217"><ele>1130.0</ele><time>2026-04-23T18:38:12.423Z</time></trkpt><trkpt lat="30.9764667" lon="-6.7647067"><ele>1130.0</ele><time>2026-04-23T18:38:13.422Z</time></trkpt><trkpt lat="30.9764717" lon="-6.764885"><ele>1130.0</ele><time>2026-04-23T18:38:14.422Z</time></trkpt><trkpt lat="30.9764783" lon="-6.7650717"><ele>1130.0</ele><time>2026-04-23T18:38:15.422Z</time></trkpt><trkpt lat="30.9764867" lon="-6.76526"><ele>1130.0</ele><time>2026-04-23T18:38:16.422Z</time></trkpt><trkpt lat="30.9765" lon="-6.765455"><ele>1129.0</ele><time>2026-04-23T18:38:17.422Z</time></trkpt><trkpt lat="30.97651" lon="-6.765645"><ele>1128.0</ele><time>2026-04-23T18:38:18.422Z</time></trkpt><trkpt lat="30.9765183" lon="-6.76584"><ele>1127.0</ele><time>2026-04-23T18:38:19.422Z</time></trkpt><trkpt lat="30.9765283" lon="-6.7660333"><ele>1127.0</ele><time>2026-04-23T18:38:20.422Z</time></trkpt><trkpt lat="30.9765367" lon="-6.7662267"><ele>1127.0</ele><time>2026-04-23T18:38:21.422Z</time></trkpt><trkpt lat="30.9765433" lon="-6.7664217"><ele>1127.0</ele><time>2026-04-23T18:38:22.422Z</time></trkpt><trkpt lat="30.9765483" lon="-6.76661"><ele>1127.0</ele><time>2026-04-23T18:38:23.422Z</time></trkpt><trkpt lat="30.9765583" lon="-6.7668"><ele>1127.0</ele><time>2026-04-23T18:38:24.422Z</time></trkpt><trkpt lat="30.9765683" lon="-6.7669783"><ele>1127.0</ele><time>2026-04-23T18:38:25.422Z</time></trkpt><trkpt lat="30.9765783" lon="-6.767155"><ele>1126.5</ele><time>2026-04-23T18:38:26.422Z</time></trkpt><trkpt lat="30.97659" lon="-6.76733"><ele>1126.0</ele><time>2026-04-23T18:38:27.422Z</time></trkpt><trkpt lat="30.9765983" lon="-6.7675017"><ele>1125.5</ele><time>2026-04-23T18:38:28.423Z</time></trkpt><trkpt lat="30.976605" lon="-6.7676717"><ele>1125.0</ele><time>2026-04-23T18:38:29.422Z</time></trkpt><trkpt lat="30.9766133" lon="-6.76785"><ele>1125.0</ele><time>2026-04-23T18:38:30.422Z</time></trkpt><trkpt lat="30.9766233" lon="-6.7680267"><ele>1125.0</ele><time>2026-04-23T18:38:31.422Z</time></trkpt><trkpt lat="30.9766233" lon="-6.7682067"><ele>1125.0</ele><time>2026-04-23T18:38:32.422Z</time></trkpt><trkpt lat="30.9766317" lon="-6.768405"><ele>1125.6666666666667</ele><time>2026-04-23T18:38:33.422Z</time></trkpt><trkpt lat="30.97664" lon="-6.7685883"><ele>1126.3333333333335</ele><time>2026-04-23T18:38:34.422Z</time></trkpt><trkpt lat="30.9766533" lon="-6.7687717"><ele>1127.0</ele><time>2026-04-23T18:38:35.422Z</time></trkpt><trkpt lat="30.976665" lon="-6.7689517"><ele>1127.0</ele><time>2026-04-23T18:38:36.422Z</time></trkpt><trkpt lat="30.97668" lon="-6.7691383"><ele>1127.0</ele><time>2026-04-23T18:38:37.423Z</time></trkpt><trkpt lat="30.976695" lon="-6.769315"><ele>1127.0</ele><time>2026-04-23T18:38:38.422Z</time></trkpt><trkpt lat="30.9767083" lon="-6.769495"><ele>1128.6666666666667</ele><time>2026-04-23T18:38:39.422Z</time></trkpt><trkpt lat="30.9767167" lon="-6.7696783"><ele>1130.3333333333333</ele><time>2026-04-23T18:38:40.422Z</time></trkpt><trkpt lat="30.976725" lon="-6.7698683"><ele>1132.0</ele><time>2026-04-23T18:38:41.422Z</time></trkpt><trkpt lat="30.97673" lon="-6.770065"><ele>1132.0</ele><time>2026-04-23T18:38:42.422Z</time></trkpt><trkpt lat="30.9767333" lon="-6.77025"><ele>1132.0</ele><time>2026-04-23T18:38:43.422Z</time></trkpt><trkpt lat="30.9767383" lon="-6.7704267"><ele>1132.0</ele><time>2026-04-23T18:38:44.422Z</time></trkpt><trkpt lat="30.9767467" lon="-6.7705983"><ele>1132.0</ele><time>2026-04-23T18:38:45.422Z</time></trkpt><trkpt lat="30.97675" lon="-6.7707683"><ele>1132.0</ele><time>2026-04-23T18:38:46.422Z</time></trkpt><trkpt lat="30.976755" lon="-6.770945"><ele>1132.0</ele><time>2026-04-23T18:38:47.422Z</time></trkpt><trkpt lat="30.9767567" lon="-6.7711133"><ele>1132.0</ele><time>2026-04-23T18:38:48.422Z</time></trkpt><trkpt lat="30.9767667" lon="-6.7712917"><ele>1132.0</ele><time>2026-04-23T18:38:49.422Z</time></trkpt><trkpt lat="30.9767783" lon="-6.7714783"><ele>1132.0</ele><time>2026-04-23T18:38:50.422Z</time></trkpt><trkpt lat="30.9767883" lon="-6.7716667"><ele>1132.0</ele><time>2026-04-23T18:38:51.422Z</time></trkpt><trkpt lat="30.9767983" lon="-6.7718567"><ele>1132.3333333333333</ele><time>2026-04-23T18:38:52.422Z</time></trkpt><trkpt lat="30.9768" lon="-6.7720417"><ele>1132.6666666666667</ele><time>2026-04-23T18:38:53.422Z</time></trkpt><trkpt lat="30.9768133" lon="-6.7722317"><ele>1133.0</ele><time>2026-04-23T18:38:54.422Z</time></trkpt><trkpt lat="30.9768233" lon="-6.77242"><ele>1133.0</ele><time>2026-04-23T18:38:55.422Z</time></trkpt><trkpt lat="30.9768267" lon="-6.7726083"><ele>1133.0</ele><time>2026-04-23T18:38:56.422Z</time></trkpt><trkpt lat="30.9768417" lon="-6.772805"><ele>1133.0</ele><time>2026-04-23T18:38:57.422Z</time></trkpt><trkpt lat="30.9768533" lon="-6.7730033"><ele>1132.3333333333335</ele><time>2026-04-23T18:38:58.422Z</time></trkpt><trkpt lat="30.9768667" lon="-6.773205"><ele>1131.6666666666667</ele><time>2026-04-23T18:38:59.422Z</time></trkpt><trkpt lat="30.9768717" lon="-6.7734"><ele>1131.0</ele><time>2026-04-23T18:39:00.422Z</time></trkpt><trkpt lat="30.97688" lon="-6.7736"><ele>1131.0</ele><time>2026-04-23T18:39:01.422Z</time></trkpt><trkpt lat="30.9768917" lon="-6.7737983"><ele>1131.0</ele><time>2026-04-23T18:39:02.422Z</time></trkpt><trkpt lat="30.9769183" lon="-6.7739983"><ele>1131.0</ele><time>2026-04-23T18:39:03.422Z</time></trkpt><trkpt lat="30.9769433" lon="-6.7742"><ele>1131.3333333333333</ele><time>2026-04-23T18:39:04.422Z</time></trkpt><trkpt lat="30.9769817" lon="-6.7743983"><ele>1131.6666666666665</ele><time>2026-04-23T18:39:05.422Z</time></trkpt><trkpt lat="30.9770267" lon="-6.7746017"><ele>1132.0</ele><time>2026-04-23T18:39:06.422Z</time></trkpt><trkpt lat="30.9770767" lon="-6.7748033"><ele>1132.0</ele><time>2026-04-23T18:39:07.422Z</time></trkpt><trkpt lat="30.97713" lon="-6.775015"><ele>1132.0</ele><time>2026-04-23T18:39:08.422Z</time></trkpt><trkpt lat="30.9771933" lon="-6.77522"><ele>1132.0</ele><time>2026-04-23T18:39:09.422Z</time></trkpt><trkpt lat="30.9772517" lon="-6.77541"><ele>1133.0</ele><time>2026-04-23T18:39:10.422Z</time></trkpt><trkpt lat="30.9773167" lon="-6.7755967"><ele>1134.0</ele><time>2026-04-23T18:39:11.422Z</time></trkpt><trkpt lat="30.97739" lon="-6.77578"><ele>1135.0</ele><time>2026-04-23T18:39:12.422Z</time></trkpt><trkpt lat="30.977465" lon="-6.77596"><ele>1135.3333333333333</ele><time>2026-04-23T18:39:13.422Z</time></trkpt><trkpt lat="30.9775467" lon="-6.7761333"><ele>1135.6666666666667</ele><time>2026-04-23T18:39:14.422Z</time></trkpt><trkpt lat="30.9776233" lon="-6.776305"><ele>1136.0</ele><time>2026-04-23T18:39:15.422Z</time></trkpt><trkpt lat="30.9777033" lon="-6.7764767"><ele>1136.0</ele><time>2026-04-23T18:39:16.422Z</time></trkpt><trkpt lat="30.9777817" lon="-6.7766467"><ele>1136.0</ele><time>2026-04-23T18:39:17.422Z</time></trkpt><trkpt lat="30.97786" lon="-6.7768217"><ele>1136.0</ele><time>2026-04-23T18:39:18.422Z</time></trkpt><trkpt lat="30.9779317" lon="-6.776995"><ele>1134.6666666666667</ele><time>2026-04-23T18:39:19.422Z</time></trkpt><trkpt lat="30.9780083" lon="-6.7771667"><ele>1133.3333333333333</ele><time>2026-04-23T18:39:20.422Z</time></trkpt><trkpt lat="30.9780833" lon="-6.7773367"><ele>1132.0</ele><time>2026-04-23T18:39:21.422Z</time></trkpt><trkpt lat="30.97815" lon="-6.77751"><ele>1132.0</ele><time>2026-04-23T18:39:22.422Z</time></trkpt><trkpt lat="30.97822" lon="-6.777685"><ele>1132.0</ele><time>2026-04-23T18:39:23.422Z</time></trkpt><trkpt lat="30.9782883" lon="-6.7778617"><ele>1132.0</ele><time>2026-04-23T18:39:24.422Z</time></trkpt><trkpt lat="30.9783483" lon="-6.7780383"><ele>1133.3333333333333</ele><time>2026-04-23T18:39:25.422Z</time></trkpt><trkpt lat="30.9784067" lon="-6.7782167"><ele>1134.6666666666667</ele><time>2026-04-23T18:39:26.422Z</time></trkpt><trkpt lat="30.9784583" lon="-6.7783983"><ele>1136.0</ele><time>2026-04-23T18:39:27.422Z</time></trkpt><trkpt lat="30.9785083" lon="-6.7785917"><ele>1136.0</ele><time>2026-04-23T18:39:28.422Z</time></trkpt><trkpt lat="30.9785483" lon="-6.7787783"><ele>1136.0</ele><time>2026-04-23T18:39:29.422Z</time></trkpt><trkpt lat="30.9785767" lon="-6.77897"><ele>1136.0</ele><time>2026-04-23T18:39:30.422Z</time></trkpt><trkpt lat="30.9785967" lon="-6.7791667"><ele>1138.3333333333335</ele><time>2026-04-23T18:39:31.422Z</time></trkpt><trkpt lat="30.9786117" lon="-6.7793617"><ele>1140.6666666666667</ele><time>2026-04-23T18:39:32.422Z</time></trkpt><trkpt lat="30.9786117" lon="-6.7795383"><ele>1143.0</ele><time>2026-04-23T18:39:33.422Z</time></trkpt><trkpt lat="30.9785983" lon="-6.7797067"><ele>1143.0</ele><time>2026-04-23T18:39:34.422Z</time></trkpt><trkpt lat="30.97858" lon="-6.7798667"><ele>1143.0</ele><time>2026-04-23T18:39:35.422Z</time></trkpt><trkpt lat="30.9785517" lon="-6.7800283"><ele>1143.0</ele><time>2026-04-23T18:39:36.422Z</time></trkpt><trkpt lat="30.97852" lon="-6.7801867"><ele>1143.0</ele><time>2026-04-23T18:39:37.422Z</time></trkpt><trkpt lat="30.9784933" lon="-6.7803467"><ele>1143.0</ele><time>2026-04-23T18:39:38.423Z</time></trkpt><trkpt lat="30.978455" lon="-6.7805"><ele>1143.0</ele><time>2026-04-23T18:39:39.422Z</time></trkpt><trkpt lat="30.9784117" lon="-6.780655"><ele>1143.0</ele><time>2026-04-23T18:39:40.422Z</time></trkpt><trkpt lat="30.9783683" lon="-6.780805"><ele>1143.0</ele><time>2026-04-23T18:39:41.423Z</time></trkpt><trkpt lat="30.9783267" lon="-6.7809583"><ele>1142.25</ele><time>2026-04-23T18:39:42.422Z</time></trkpt><trkpt lat="30.9782917" lon="-6.7811033"><ele>1141.5</ele><time>2026-04-23T18:39:43.422Z</time></trkpt><trkpt lat="30.978255" lon="-6.7812483"><ele>1140.75</ele><time>2026-04-23T18:39:44.423Z</time></trkpt><trkpt lat="30.97822" lon="-6.7813933"><ele>1140.0</ele><time>2026-04-23T18:39:45.422Z</time></trkpt><trkpt lat="30.978185" lon="-6.7815317"><ele>1140.0</ele><time>2026-04-23T18:39:46.422Z</time></trkpt><trkpt lat="30.978155" lon="-6.7816667"><ele>1140.0</ele><time>2026-04-23T18:39:47.422Z</time></trkpt><trkpt lat="30.97812" lon="-6.7818033"><ele>1140.0</ele><time>2026-04-23T18:39:48.422Z</time></trkpt><trkpt lat="30.978085" lon="-6.781935"><ele>1140.0</ele><time>2026-04-23T18:39:49.422Z</time></trkpt><trkpt lat="30.9780533" lon="-6.782075"><ele>1139.0</ele><time>2026-04-23T18:39:50.422Z</time></trkpt><trkpt lat="30.9780233" lon="-6.782215"><ele>1138.0</ele><time>2026-04-23T18:39:51.422Z</time></trkpt><trkpt lat="30.9779917" lon="-6.7823533"><ele>1137.0</ele><time>2026-04-23T18:39:52.422Z</time></trkpt><trkpt lat="30.9779567" lon="-6.782485"><ele>1136.0</ele><time>2026-04-23T18:39:53.422Z</time></trkpt><trkpt lat="30.97792" lon="-6.7826167"><ele>1134.5</ele><time>2026-04-23T18:39:54.422Z</time></trkpt><trkpt lat="30.9778833" lon="-6.782755"><ele>1133.0</ele><time>2026-04-23T18:39:55.422Z</time></trkpt><trkpt lat="30.977845" lon="-6.7829"><ele>1131.5</ele><time>2026-04-23T18:39:56.422Z</time></trkpt><trkpt lat="30.9778083" lon="-6.783055"><ele>1130.0</ele><time>2026-04-23T18:39:57.422Z</time></trkpt><trkpt lat="30.97776" lon="-6.78321"><ele>1130.0</ele><time>2026-04-23T18:39:58.422Z</time></trkpt><trkpt lat="30.9777" lon="-6.7833833"><ele>1130.0</ele><time>2026-04-23T18:39:59.423Z</time></trkpt><trkpt lat="30.9776333" lon="-6.78358"><ele>1130.0</ele><time>2026-04-23T18:40:00.422Z</time></trkpt><trkpt lat="30.9775617" lon="-6.78379"><ele>1128.3333333333335</ele><time>2026-04-23T18:40:01.422Z</time></trkpt><trkpt lat="30.9774917" lon="-6.784015"><ele>1126.6666666666667</ele><time>2026-04-23T18:40:02.422Z</time></trkpt><trkpt lat="30.97743" lon="-6.7842617"><ele>1125.0</ele><time>2026-04-23T18:40:03.423Z</time></trkpt><trkpt lat="30.9773733" lon="-6.784515"><ele>1125.0</ele><time>2026-04-23T18:40:04.423Z</time></trkpt><trkpt lat="30.9773233" lon="-6.7847667"><ele>1125.0</ele><time>2026-04-23T18:40:05.423Z</time></trkpt><trkpt lat="30.977265" lon="-6.7850067"><ele>1125.0</ele><time>2026-04-23T18:40:06.422Z</time></trkpt><trkpt lat="30.9772033" lon="-6.7852467"><ele>1124.6666666666667</ele><time>2026-04-23T18:40:07.422Z</time></trkpt><trkpt lat="30.9771383" lon="-6.7854917"><ele>1124.3333333333335</ele><time>2026-04-23T18:40:08.422Z</time></trkpt><trkpt lat="30.977075" lon="-6.785745"><ele>1124.0</ele><time>2026-04-23T18:40:09.422Z</time></trkpt><trkpt lat="30.9770083" lon="-6.7859983"><ele>1124.0</ele><time>2026-04-23T18:40:10.422Z</time></trkpt><trkpt lat="30.97694" lon="-6.7862417"><ele>1124.0</ele><time>2026-04-23T18:40:11.422Z</time></trkpt><trkpt lat="30.9768717" lon="-6.78648"><ele>1124.0</ele><time>2026-04-23T18:40:12.422Z</time></trkpt><trkpt lat="30.9768083" lon="-6.78671"><ele>1124.0</ele><time>2026-04-23T18:40:13.423Z</time></trkpt><trkpt lat="30.976745" lon="-6.7869317"><ele>1124.0</ele><time>2026-04-23T18:40:14.422Z</time></trkpt><trkpt lat="30.9766833" lon="-6.78714"><ele>1124.0</ele><time>2026-04-23T18:40:15.422Z</time></trkpt><trkpt lat="30.9766283" lon="-6.7873383"><ele>1123.0</ele><time>2026-04-23T18:40:16.422Z</time></trkpt><trkpt lat="30.9765783" lon="-6.7875333"><ele>1122.0</ele><time>2026-04-23T18:40:17.423Z</time></trkpt><trkpt lat="30.9765317" lon="-6.7877167"><ele>1121.0</ele><time>2026-04-23T18:40:18.422Z</time></trkpt><trkpt lat="30.97648" lon="-6.7878933"><ele>1121.0</ele><time>2026-04-23T18:40:19.422Z</time></trkpt><trkpt lat="30.9764367" lon="-6.7880717"><ele>1121.0</ele><time>2026-04-23T18:40:20.422Z</time></trkpt><trkpt lat="30.9763917" lon="-6.7882433"><ele>1121.0</ele><time>2026-04-23T18:40:21.422Z</time></trkpt><trkpt lat="30.9763583" lon="-6.7884233"><ele>1122.6666666666667</ele><time>2026-04-23T18:40:22.422Z</time></trkpt><trkpt lat="30.976325" lon="-6.7885983"><ele>1124.3333333333333</ele><time>2026-04-23T18:40:23.422Z</time></trkpt><trkpt lat="30.9763067" lon="-6.7887833"><ele>1126.0</ele><time>2026-04-23T18:40:24.422Z</time></trkpt><trkpt lat="30.9762917" lon="-6.7889667"><ele>1126.0</ele><time>2026-04-23T18:40:25.422Z</time></trkpt><trkpt lat="30.9762833" lon="-6.7891517"><ele>1126.0</ele><time>2026-04-23T18:40:26.422Z</time></trkpt><trkpt lat="30.9762783" lon="-6.7893333"><ele>1126.0</ele><time>2026-04-23T18:40:27.422Z</time></trkpt><trkpt lat="30.9762833" lon="-6.7895183"><ele>1128.6666666666665</ele><time>2026-04-23T18:40:28.422Z</time></trkpt><trkpt lat="30.97629" lon="-6.7896933"><ele>1131.3333333333333</ele><time>2026-04-23T18:40:29.422Z</time></trkpt><trkpt lat="30.9763083" lon="-6.7898667"><ele>1134.0</ele><time>2026-04-23T18:40:30.422Z</time></trkpt><trkpt lat="30.97633" lon="-6.7900433"><ele>1138.3333333333333</ele><time>2026-04-23T18:40:31.422Z</time></trkpt><trkpt lat="30.9763583" lon="-6.79022"><ele>1142.6666666666665</ele><time>2026-04-23T18:40:32.422Z</time></trkpt><trkpt lat="30.9763983" lon="-6.790395"><ele>1147.0</ele><time>2026-04-23T18:40:33.422Z</time></trkpt><trkpt lat="30.9764517" lon="-6.7905867"><ele>1147.0</ele><time>2026-04-23T18:40:34.422Z</time></trkpt><trkpt lat="30.976515" lon="-6.7907767"><ele>1147.0</ele><time>2026-04-23T18:40:35.422Z</time></trkpt><trkpt lat="30.9765917" lon="-6.7909683"><ele>1147.0</ele><time>2026-04-23T18:40:36.422Z</time></trkpt><trkpt lat="30.9766767" lon="-6.7911367"><ele>1150.6666666666665</ele><time>2026-04-23T18:40:37.422Z</time></trkpt><trkpt lat="30.9767617" lon="-6.7913083"><ele>1154.3333333333333</ele><time>2026-04-23T18:40:38.422Z</time></trkpt><trkpt lat="30.976855" lon="-6.7914617"><ele>1158.0</ele><time>2026-04-23T18:40:39.422Z</time></trkpt><trkpt lat="30.9769517" lon="-6.7916017"><ele>1158.0</ele><time>2026-04-23T18:40:40.422Z</time></trkpt><trkpt lat="30.9770533" lon="-6.7917417"><ele>1158.0</ele><time>2026-04-23T18:40:41.422Z</time></trkpt><trkpt lat="30.9771533" lon="-6.7918767"><ele>1158.0</ele><time>2026-04-23T18:40:42.422Z</time></trkpt><trkpt lat="30.9772617" lon="-6.7920167"><ele>1157.3333333333333</ele><time>2026-04-23T18:40:43.422Z</time></trkpt><trkpt lat="30.97739" lon="-6.79217"><ele>1156.6666666666665</ele><time>2026-04-23T18:40:44.422Z</time></trkpt><trkpt lat="30.9775333" lon="-6.792335"><ele>1156.0</ele><time>2026-04-23T18:40:45.422Z</time></trkpt><trkpt lat="30.9776783" lon="-6.7925233"><ele>1155.0</ele><time>2026-04-23T18:40:46.422Z</time></trkpt><trkpt lat="30.97784" lon="-6.7927083"><ele>1154.0</ele><time>2026-04-23T18:40:47.422Z</time></trkpt><trkpt lat="30.9779917" lon="-6.7928883"><ele>1153.0</ele><time>2026-04-23T18:40:48.422Z</time></trkpt><trkpt lat="30.97813" lon="-6.7930583"><ele>1153.0</ele><time>2026-04-23T18:40:49.422Z</time></trkpt><trkpt lat="30.978255" lon="-6.793225"><ele>1153.0</ele><time>2026-04-23T18:40:50.422Z</time></trkpt><trkpt lat="30.9783733" lon="-6.79338"><ele>1153.0</ele><time>2026-04-23T18:40:51.422Z</time></trkpt><trkpt lat="30.9784833" lon="-6.7935217"><ele>1154.3333333333333</ele><time>2026-04-23T18:40:52.422Z</time></trkpt><trkpt lat="30.9786067" lon="-6.7936617"><ele>1155.6666666666667</ele><time>2026-04-23T18:40:53.422Z</time></trkpt><trkpt lat="30.978725" lon="-6.793805"><ele>1157.0</ele><time>2026-04-23T18:40:54.422Z</time></trkpt><trkpt lat="30.9788383" lon="-6.7939517"><ele>1157.0</ele><time>2026-04-23T18:40:55.422Z</time></trkpt><trkpt lat="30.9789533" lon="-6.7940983"><ele>1157.0</ele><time>2026-04-23T18:40:56.422Z</time></trkpt><trkpt lat="30.9790633" lon="-6.794235"><ele>1157.0</ele><time>2026-04-23T18:40:57.422Z</time></trkpt><trkpt lat="30.979165" lon="-6.7943633"><ele>1157.0</ele><time>2026-04-23T18:40:58.423Z</time></trkpt><trkpt lat="30.9792517" lon="-6.7944967"><ele>1157.0</ele><time>2026-04-23T18:40:59.422Z</time></trkpt><trkpt lat="30.9793317" lon="-6.79463"><ele>1157.0</ele><time>2026-04-23T18:41:00.422Z</time></trkpt><trkpt lat="30.9794083" lon="-6.7947683"><ele>1157.0</ele><time>2026-04-23T18:41:01.422Z</time></trkpt><trkpt lat="30.979485" lon="-6.794915"><ele>1157.0</ele><time>2026-04-23T18:41:02.422Z</time></trkpt><trkpt lat="30.9795583" lon="-6.79507"><ele>1157.0</ele><time>2026-04-23T18:41:03.422Z</time></trkpt><trkpt lat="30.9796267" lon="-6.7952183"><ele>1157.0</ele><time>2026-04-23T18:41:04.422Z</time></trkpt><trkpt lat="30.97968" lon="-6.795365"><ele>1157.0</ele><time>2026-04-23T18:41:05.422Z</time></trkpt><trkpt lat="30.9797267" lon="-6.795515"><ele>1157.25</ele><time>2026-04-23T18:41:06.422Z</time></trkpt><trkpt lat="30.9797683" lon="-6.7956733"><ele>1157.5</ele><time>2026-04-23T18:41:07.422Z</time></trkpt><trkpt lat="30.979805" lon="-6.795835"><ele>1157.75</ele><time>2026-04-23T18:41:08.423Z</time></trkpt><trkpt lat="30.9798333" lon="-6.7959983"><ele>1158.0</ele><time>2026-04-23T18:41:09.422Z</time></trkpt><trkpt lat="30.979855" lon="-6.7961633"><ele>1158.0</ele><time>2026-04-23T18:41:10.422Z</time></trkpt><trkpt lat="30.9798683" lon="-6.7963267"><ele>1158.0</ele><time>2026-04-23T18:41:11.422Z</time></trkpt><trkpt lat="30.9798783" lon="-6.7964867"><ele>1158.0</ele><time>2026-04-23T18:41:12.423Z</time></trkpt><trkpt lat="30.9798817" lon="-6.7966383"><ele>1158.0</ele><time>2026-04-23T18:41:13.422Z</time></trkpt><trkpt lat="30.9798767" lon="-6.7967783"><ele>1158.25</ele><time>2026-04-23T18:41:14.422Z</time></trkpt><trkpt lat="30.979865" lon="-6.7969133"><ele>1158.5</ele><time>2026-04-23T18:41:15.422Z</time></trkpt><trkpt lat="30.9798517" lon="-6.7970633"><ele>1158.75</ele><time>2026-04-23T18:41:16.422Z</time></trkpt><trkpt lat="30.9798417" lon="-6.797225"><ele>1159.0</ele><time>2026-04-23T18:41:17.422Z</time></trkpt><trkpt lat="30.979825" lon="-6.79738"><ele>1159.0</ele><time>2026-04-23T18:41:18.422Z</time></trkpt><trkpt lat="30.9797967" lon="-6.7975467"><ele>1159.0</ele><time>2026-04-23T18:41:19.422Z</time></trkpt><trkpt lat="30.9797533" lon="-6.7977183"><ele>1159.0</ele><time>2026-04-23T18:41:20.422Z</time></trkpt><trkpt lat="30.9797033" lon="-6.7978967"><ele>1157.3333333333333</ele><time>2026-04-23T18:41:21.422Z</time></trkpt><trkpt lat="30.979655" lon="-6.7980917"><ele>1155.6666666666667</ele><time>2026-04-23T18:41:22.422Z</time></trkpt><trkpt lat="30.9796017" lon="-6.7982983"><ele>1154.0</ele><time>2026-04-23T18:41:23.422Z</time></trkpt><trkpt lat="30.9795367" lon="-6.798515"><ele>1150.6666666666667</ele><time>2026-04-23T18:41:24.422Z</time></trkpt><trkpt lat="30.979475" lon="-6.7987467"><ele>1147.3333333333333</ele><time>2026-04-23T18:41:25.422Z</time></trkpt><trkpt lat="30.9793967" lon="-6.799"><ele>1144.0</ele><time>2026-04-23T18:41:26.423Z</time></trkpt><trkpt lat="30.9793217" lon="-6.799275"><ele>1142.5</ele><time>2026-04-23T18:41:27.422Z</time></trkpt><trkpt lat="30.9792467" lon="-6.799555"><ele>1141.0</ele><time>2026-04-23T18:41:28.422Z</time></trkpt><trkpt lat="30.9791767" lon="-6.799825"><ele>1140.3333333333333</ele><time>2026-04-23T18:41:29.422Z</time></trkpt><trkpt lat="30.9791133" lon="-6.800085"><ele>1139.6666666666667</ele><time>2026-04-23T18:41:30.422Z</time></trkpt><trkpt lat="30.97905" lon="-6.8003267"><ele>1139.0</ele><time>2026-04-23T18:41:31.422Z</time></trkpt><trkpt lat="30.9789883" lon="-6.8005583"><ele>1138.3333333333335</ele><time>2026-04-23T18:41:32.422Z</time></trkpt><trkpt lat="30.9789283" lon="-6.8007883"><ele>1137.6666666666667</ele><time>2026-04-23T18:41:33.422Z</time></trkpt><trkpt lat="30.9788733" lon="-6.80101"><ele>1137.0</ele><time>2026-04-23T18:41:34.423Z</time></trkpt><trkpt lat="30.9788117" lon="-6.8012217"><ele>1136.6666666666667</ele><time>2026-04-23T18:41:35.422Z</time></trkpt><trkpt lat="30.9787567" lon="-6.80144"><ele>1136.3333333333335</ele><time>2026-04-23T18:41:36.422Z</time></trkpt><trkpt lat="30.9786967" lon="-6.801655"><ele>1136.0</ele><time>2026-04-23T18:41:37.422Z</time></trkpt><trkpt lat="30.9786433" lon="-6.801855"><ele>1134.6666666666667</ele><time>2026-04-23T18:41:38.422Z</time></trkpt><trkpt lat="30.9785917" lon="-6.8020483"><ele>1133.3333333333333</ele><time>2026-04-23T18:41:39.422Z</time></trkpt><trkpt lat="30.9785417" lon="-6.80224"><ele>1132.0</ele><time>2026-04-23T18:41:40.422Z</time></trkpt><trkpt lat="30.97848" lon="-6.8024367"><ele>1132.0</ele><time>2026-04-23T18:41:41.422Z</time></trkpt><trkpt lat="30.9784017" lon="-6.802655"><ele>1132.0</ele><time>2026-04-23T18:41:42.422Z</time></trkpt><trkpt lat="30.9783317" lon="-6.80292"><ele>1132.0</ele><time>2026-04-23T18:41:43.422Z</time></trkpt><trkpt lat="30.9782467" lon="-6.8032083"><ele>1131.0</ele><time>2026-04-23T18:41:44.422Z</time></trkpt><trkpt lat="30.9781533" lon="-6.8035383"><ele>1130.0</ele><time>2026-04-23T18:41:45.422Z</time></trkpt><trkpt lat="30.978065" lon="-6.803895"><ele>1130.0</ele><time>2026-04-23T18:41:46.422Z</time></trkpt><trkpt lat="30.9779883" lon="-6.8042433"><ele>1130.0</ele><time>2026-04-23T18:41:47.422Z</time></trkpt><trkpt lat="30.9779033" lon="-6.8045683"><ele>1130.5</ele><time>2026-04-23T18:41:48.422Z</time></trkpt><trkpt lat="30.9778133" lon="-6.8048933"><ele>1131.0</ele><time>2026-04-23T18:41:49.422Z</time></trkpt><trkpt lat="30.9777267" lon="-6.805225"><ele>1129.0</ele><time>2026-04-23T18:41:50.422Z</time></trkpt><trkpt lat="30.9776417" lon="-6.805565"><ele>1127.0</ele><time>2026-04-23T18:41:51.422Z</time></trkpt><trkpt lat="30.9775533" lon="-6.805915"><ele>1126.0</ele><time>2026-04-23T18:41:52.423Z</time></trkpt><trkpt lat="30.9774667" lon="-6.806265"><ele>1125.0</ele><time>2026-04-23T18:41:53.422Z</time></trkpt><trkpt lat="30.9773833" lon="-6.80663"><ele>1125.0</ele><time>2026-04-23T18:41:54.422Z</time></trkpt><trkpt lat="30.9773017" lon="-6.806995"><ele>1125.0</ele><time>2026-04-23T18:41:55.422Z</time></trkpt><trkpt lat="30.9772267" lon="-6.80736"><ele>1125.5</ele><time>2026-04-23T18:41:56.422Z</time></trkpt><trkpt lat="30.9771533" lon="-6.8077067"><ele>1126.0</ele><time>2026-04-23T18:41:57.422Z</time></trkpt><trkpt lat="30.9770817" lon="-6.80803"><ele>1126.0</ele><time>2026-04-23T18:41:58.422Z</time></trkpt><trkpt lat="30.9770033" lon="-6.8083433"><ele>1126.0</ele><time>2026-04-23T18:41:59.422Z</time></trkpt><trkpt lat="30.9769283" lon="-6.8086683"><ele>1126.5</ele><time>2026-04-23T18:42:00.422Z</time></trkpt><trkpt lat="30.9768533" lon="-6.80899"><ele>1127.0</ele><time>2026-04-23T18:42:01.422Z</time></trkpt><trkpt lat="30.976775" lon="-6.8093117"><ele>1126.5</ele><time>2026-04-23T18:42:02.422Z</time></trkpt><trkpt lat="30.9766983" lon="-6.8096367"><ele>1126.0</ele><time>2026-04-23T18:42:03.422Z</time></trkpt><trkpt lat="30.9766233" lon="-6.8099617"><ele>1125.5</ele><time>2026-04-23T18:42:04.422Z</time></trkpt><trkpt lat="30.9765517" lon="-6.810285"><ele>1125.0</ele><time>2026-04-23T18:42:05.422Z</time></trkpt><trkpt lat="30.9764767" lon="-6.8106017"><ele>1125.0</ele><time>2026-04-23T18:42:06.422Z</time></trkpt><trkpt lat="30.9763983" lon="-6.81092"><ele>1125.0</ele><time>2026-04-23T18:42:07.422Z</time></trkpt><trkpt lat="30.976325" lon="-6.8112367"><ele>1125.5</ele><time>2026-04-23T18:42:08.422Z</time></trkpt><trkpt lat="30.97625" lon="-6.8115533"><ele>1126.0</ele><time>2026-04-23T18:42:09.422Z</time></trkpt><trkpt lat="30.9761767" lon="-6.8118633"><ele>1127.0</ele><time>2026-04-23T18:42:10.422Z</time></trkpt><trkpt lat="30.976105" lon="-6.812155"><ele>1128.0</ele><time>2026-04-23T18:42:11.422Z</time></trkpt><trkpt lat="30.9760317" lon="-6.8124433"><ele>1128.0</ele><time>2026-04-23T18:42:12.422Z</time></trkpt><trkpt lat="30.975965" lon="-6.8127283"><ele>1128.0</ele><time>2026-04-23T18:42:13.422Z</time></trkpt><trkpt lat="30.9759017" lon="-6.8130117"><ele>1128.5</ele><time>2026-04-23T18:42:14.422Z</time></trkpt><trkpt lat="30.975835" lon="-6.8132867"><ele>1129.0</ele><time>2026-04-23T18:42:15.422Z</time></trkpt><trkpt lat="30.97577" lon="-6.813565"><ele>1130.0</ele><time>2026-04-23T18:42:16.422Z</time></trkpt><trkpt lat="30.9756967" lon="-6.8138467"><ele>1131.0</ele><time>2026-04-23T18:42:17.422Z</time></trkpt><trkpt lat="30.9756283" lon="-6.8141267"><ele>1132.0</ele><time>2026-04-23T18:42:18.422Z</time></trkpt><trkpt lat="30.9755633" lon="-6.8144133"><ele>1133.0</ele><time>2026-04-23T18:42:19.422Z</time></trkpt><trkpt lat="30.9754983" lon="-6.8146983"><ele>1133.0</ele><time>2026-04-23T18:42:20.422Z</time></trkpt><trkpt lat="30.9754333" lon="-6.8149917"><ele>1133.0</ele><time>2026-04-23T18:42:21.422Z</time></trkpt><trkpt lat="30.9753667" lon="-6.81528"><ele>1134.0</ele><time>2026-04-23T18:42:22.422Z</time></trkpt><trkpt lat="30.9752983" lon="-6.8155667"><ele>1135.0</ele><time>2026-04-23T18:42:23.422Z</time></trkpt><trkpt lat="30.9752283" lon="-6.8158567"><ele>1134.5</ele><time>2026-04-23T18:42:24.422Z</time></trkpt><trkpt lat="30.9751567" lon="-6.8161417"><ele>1134.0</ele><time>2026-04-23T18:42:25.422Z</time></trkpt><trkpt lat="30.97509" lon="-6.8164133"><ele>1134.0</ele><time>2026-04-23T18:42:26.422Z</time></trkpt><trkpt lat="30.9750283" lon="-6.8166817"><ele>1134.0</ele><time>2026-04-23T18:42:27.422Z</time></trkpt><trkpt lat="30.974965" lon="-6.8169417"><ele>1133.0</ele><time>2026-04-23T18:42:28.422Z</time></trkpt><trkpt lat="30.9749067" lon="-6.8171967"><ele>1132.0</ele><time>2026-04-23T18:42:29.422Z</time></trkpt><trkpt lat="30.9748517" lon="-6.817455"><ele>1132.6666666666665</ele><time>2026-04-23T18:42:30.422Z</time></trkpt><trkpt lat="30.97479" lon="-6.8177033"><ele>1133.3333333333333</ele><time>2026-04-23T18:42:31.422Z</time></trkpt><trkpt lat="30.97473" lon="-6.81795"><ele>1134.0</ele><time>2026-04-23T18:42:32.422Z</time></trkpt><trkpt lat="30.9746683" lon="-6.818205"><ele>1134.0</ele><time>2026-04-23T18:42:33.422Z</time></trkpt><trkpt lat="30.974605" lon="-6.8184567"><ele>1134.0</ele><time>2026-04-23T18:42:34.422Z</time></trkpt><trkpt lat="30.9745467" lon="-6.8187183"><ele>1134.5</ele><time>2026-04-23T18:42:35.422Z</time></trkpt><trkpt lat="30.9744867" lon="-6.8189767"><ele>1135.0</ele><time>2026-04-23T18:42:36.422Z</time></trkpt><trkpt lat="30.974425" lon="-6.81924"><ele>1135.5</ele><time>2026-04-23T18:42:37.422Z</time></trkpt><trkpt lat="30.97436" lon="-6.8195017"><ele>1136.0</ele><time>2026-04-23T18:42:38.422Z</time></trkpt><trkpt lat="30.9742933" lon="-6.8197683"><ele>1136.0</ele><time>2026-04-23T18:42:39.422Z</time></trkpt><trkpt lat="30.97423" lon="-6.82004"><ele>1136.0</ele><time>2026-04-23T18:42:40.422Z</time></trkpt><trkpt lat="30.97417" lon="-6.8203083"><ele>1134.5</ele><time>2026-04-23T18:42:41.422Z</time></trkpt><trkpt lat="30.97411" lon="-6.8205717"><ele>1133.0</ele><time>2026-04-23T18:42:42.422Z</time></trkpt><trkpt lat="30.97405" lon="-6.820825"><ele>1134.6666666666667</ele><time>2026-04-23T18:42:43.422Z</time></trkpt><trkpt lat="30.9739933" lon="-6.8210733"><ele>1136.3333333333333</ele><time>2026-04-23T18:42:44.423Z</time></trkpt><trkpt lat="30.9739433" lon="-6.8213167"><ele>1138.0</ele><time>2026-04-23T18:42:45.422Z</time></trkpt><trkpt lat="30.9738867" lon="-6.8215567"><ele>1138.0</ele><time>2026-04-23T18:42:46.422Z</time></trkpt><trkpt lat="30.973825" lon="-6.8218"><ele>1138.0</ele><time>2026-04-23T18:42:47.422Z</time></trkpt><trkpt lat="30.973765" lon="-6.82203"><ele>1138.0</ele><time>2026-04-23T18:42:48.422Z</time></trkpt><trkpt lat="30.97371" lon="-6.82225"><ele>1138.3333333333333</ele><time>2026-04-23T18:42:49.422Z</time></trkpt><trkpt lat="30.9736633" lon="-6.8224767"><ele>1138.6666666666667</ele><time>2026-04-23T18:42:50.422Z</time></trkpt><trkpt lat="30.9736133" lon="-6.82269"><ele>1139.0</ele><time>2026-04-23T18:42:51.422Z</time></trkpt><trkpt lat="30.9735567" lon="-6.8229067"><ele>1138.3333333333335</ele><time>2026-04-23T18:42:52.422Z</time></trkpt><trkpt lat="30.97351" lon="-6.823125"><ele>1137.6666666666667</ele><time>2026-04-23T18:42:53.422Z</time></trkpt><trkpt lat="30.9734583" lon="-6.823345"><ele>1137.0</ele><time>2026-04-23T18:42:54.422Z</time></trkpt><trkpt lat="30.973405" lon="-6.8235767"><ele>1136.0</ele><time>2026-04-23T18:42:55.422Z</time></trkpt><trkpt lat="30.9733483" lon="-6.823805"><ele>1135.0</ele><time>2026-04-23T18:42:56.422Z</time></trkpt><trkpt lat="30.9732933" lon="-6.824035"><ele>1134.0</ele><time>2026-04-23T18:42:57.422Z</time></trkpt><trkpt lat="30.97324" lon="-6.8242517"><ele>1134.3333333333333</ele><time>2026-04-23T18:42:58.422Z</time></trkpt><trkpt lat="30.9731917" lon="-6.8244717"><ele>1134.6666666666665</ele><time>2026-04-23T18:42:59.422Z</time></trkpt><trkpt lat="30.9731433" lon="-6.8246933"><ele>1135.0</ele><time>2026-04-23T18:43:00.422Z</time></trkpt><trkpt lat="30.9730917" lon="-6.8249067"><ele>1135.0</ele><time>2026-04-23T18:43:01.422Z</time></trkpt><trkpt lat="30.9730383" lon="-6.825125"><ele>1135.0</ele><time>2026-04-23T18:43:02.422Z</time></trkpt><trkpt lat="30.972985" lon="-6.8253433"><ele>1135.0</ele><time>2026-04-23T18:43:03.422Z</time></trkpt><trkpt lat="30.9729333" lon="-6.82556"><ele>1135.3333333333333</ele><time>2026-04-23T18:43:04.422Z</time></trkpt><trkpt lat="30.9728817" lon="-6.82577"><ele>1135.6666666666667</ele><time>2026-04-23T18:43:05.422Z</time></trkpt><trkpt lat="30.9728317" lon="-6.8259883"><ele>1136.0</ele><time>2026-04-23T18:43:06.422Z</time></trkpt><trkpt lat="30.9727817" lon="-6.8262"><ele>1136.0</ele><time>2026-04-23T18:43:07.422Z</time></trkpt><trkpt lat="30.9727317" lon="-6.8264033"><ele>1136.0</ele><time>2026-04-23T18:43:08.422Z</time></trkpt><trkpt lat="30.9726833" lon="-6.8266017"><ele>1136.0</ele><time>2026-04-23T18:43:09.423Z</time></trkpt><trkpt lat="30.9726367" lon="-6.8267983"><ele>1136.0</ele><time>2026-04-23T18:43:10.422Z</time></trkpt><trkpt lat="30.9725883" lon="-6.8269967"><ele>1136.0</ele><time>2026-04-23T18:43:11.422Z</time></trkpt><trkpt lat="30.9725433" lon="-6.827195"><ele>1136.0</ele><time>2026-04-23T18:43:12.422Z</time></trkpt><trkpt lat="30.9725033" lon="-6.8273883"><ele>1135.6666666666667</ele><time>2026-04-23T18:43:13.422Z</time></trkpt><trkpt lat="30.97246" lon="-6.8275683"><ele>1135.3333333333333</ele><time>2026-04-23T18:43:14.422Z</time></trkpt><trkpt lat="30.9724217" lon="-6.8277517"><ele>1135.0</ele><time>2026-04-23T18:43:15.422Z</time></trkpt><trkpt lat="30.9723767" lon="-6.8279317"><ele>1135.0</ele><time>2026-04-23T18:43:16.423Z</time></trkpt><trkpt lat="30.972335" lon="-6.8281117"><ele>1135.0</ele><time>2026-04-23T18:43:17.422Z</time></trkpt><trkpt lat="30.97229" lon="-6.82829"><ele>1135.0</ele><time>2026-04-23T18:43:18.422Z</time></trkpt><trkpt lat="30.9722467" lon="-6.8284717"><ele>1135.3333333333333</ele><time>2026-04-23T18:43:19.422Z</time></trkpt><trkpt lat="30.9722067" lon="-6.8286517"><ele>1135.6666666666667</ele><time>2026-04-23T18:43:20.422Z</time></trkpt><trkpt lat="30.972165" lon="-6.8288383"><ele>1136.0</ele><time>2026-04-23T18:43:21.422Z</time></trkpt><trkpt lat="30.97212" lon="-6.829025"><ele>1136.0</ele><time>2026-04-23T18:43:22.422Z</time></trkpt><trkpt lat="30.9720767" lon="-6.8292033"><ele>1136.0</ele><time>2026-04-23T18:43:23.422Z</time></trkpt><trkpt lat="30.9720367" lon="-6.8293983"><ele>1136.0</ele><time>2026-04-23T18:43:24.422Z</time></trkpt><trkpt lat="30.9719967" lon="-6.8295967"><ele>1137.0</ele><time>2026-04-23T18:43:25.422Z</time></trkpt><trkpt lat="30.971955" lon="-6.8297983"><ele>1138.0</ele><time>2026-04-23T18:43:26.422Z</time></trkpt><trkpt lat="30.9719083" lon="-6.8300033"><ele>1139.0</ele><time>2026-04-23T18:43:27.422Z</time></trkpt><trkpt lat="30.9718667" lon="-6.830205"><ele>1140.0</ele><time>2026-04-23T18:43:28.422Z</time></trkpt><trkpt lat="30.9718267" lon="-6.83039"><ele>1141.0</ele><time>2026-04-23T18:43:29.423Z</time></trkpt><trkpt lat="30.9717817" lon="-6.8305667"><ele>1142.0</ele><time>2026-04-23T18:43:30.422Z</time></trkpt><trkpt lat="30.9717417" lon="-6.8307533"><ele>1142.0</ele><time>2026-04-23T18:43:31.422Z</time></trkpt><trkpt lat="30.9717033" lon="-6.8309333"><ele>1142.0</ele><time>2026-04-23T18:43:32.423Z</time></trkpt><trkpt lat="30.97166" lon="-6.83111"><ele>1142.0</ele><time>2026-04-23T18:43:33.422Z</time></trkpt><trkpt lat="30.9716167" lon="-6.8312883"><ele>1142.6666666666667</ele><time>2026-04-23T18:43:34.422Z</time></trkpt><trkpt lat="30.97158" lon="-6.8314733"><ele>1143.3333333333333</ele><time>2026-04-23T18:43:35.422Z</time></trkpt><trkpt lat="30.97154" lon="-6.8316617"><ele>1144.0</ele><time>2026-04-23T18:43:36.422Z</time></trkpt><trkpt lat="30.9715" lon="-6.8318567"><ele>1145.3333333333333</ele><time>2026-04-23T18:43:37.423Z</time></trkpt><trkpt lat="30.9714533" lon="-6.832055"><ele>1146.6666666666667</ele><time>2026-04-23T18:43:38.422Z</time></trkpt><trkpt lat="30.97141" lon="-6.8322483"><ele>1148.0</ele><time>2026-04-23T18:43:39.422Z</time></trkpt><trkpt lat="30.9713617" lon="-6.8324283"><ele>1148.0</ele><time>2026-04-23T18:43:40.422Z</time></trkpt><trkpt lat="30.9713183" lon="-6.8326017"><ele>1148.0</ele><time>2026-04-23T18:43:41.422Z</time></trkpt><trkpt lat="30.9712783" lon="-6.83276"><ele>1148.0</ele><time>2026-04-23T18:43:42.422Z</time></trkpt><trkpt lat="30.9712367" lon="-6.8329133"><ele>1148.0</ele><time>2026-04-23T18:43:43.422Z</time></trkpt><trkpt lat="30.9711983" lon="-6.8330533"><ele>1148.3333333333335</ele><time>2026-04-23T18:43:44.422Z</time></trkpt><trkpt lat="30.9711717" lon="-6.833175"><ele>1148.6666666666667</ele><time>2026-04-23T18:43:45.422Z</time></trkpt><trkpt lat="30.9711483" lon="-6.833265"><ele>1149.0</ele><time>2026-04-23T18:43:46.422Z</time></trkpt><trkpt lat="30.9711217" lon="-6.833345"><ele>1149.3333333333333</ele><time>2026-04-23T18:43:47.423Z</time></trkpt><trkpt lat="30.9711017" lon="-6.8334183"><ele>1149.6666666666665</ele><time>2026-04-23T18:43:48.422Z</time></trkpt><trkpt lat="30.9710867" lon="-6.8334917"><ele>1150.0</ele><time>2026-04-23T18:43:49.422Z</time></trkpt><trkpt lat="30.9710717" lon="-6.8335767"><ele>1150.2</ele><time>2026-04-23T18:43:50.422Z</time></trkpt><trkpt lat="30.9710517" lon="-6.833665"><ele>1150.4</ele><time>2026-04-23T18:43:51.422Z</time></trkpt><trkpt lat="30.9710317" lon="-6.833765"><ele>1150.6</ele><time>2026-04-23T18:43:52.422Z</time></trkpt><trkpt lat="30.971005" lon="-6.8338783"><ele>1150.8</ele><time>2026-04-23T18:43:53.422Z</time></trkpt><trkpt lat="30.9709683" lon="-6.8340083"><ele>1151.0</ele><time>2026-04-23T18:43:54.422Z</time></trkpt><trkpt lat="30.97093" lon="-6.83415"><ele>1151.0</ele><time>2026-04-23T18:43:55.422Z</time></trkpt><trkpt lat="30.97089" lon="-6.8343017"><ele>1151.0</ele><time>2026-04-23T18:43:56.422Z</time></trkpt><trkpt lat="30.9708517" lon="-6.83447"><ele>1151.0</ele><time>2026-04-23T18:43:57.422Z</time></trkpt><trkpt lat="30.9708083" lon="-6.8346433"><ele>1151.0</ele><time>2026-04-23T18:43:58.422Z</time></trkpt><trkpt lat="30.97076" lon="-6.8348267"><ele>1151.3333333333335</ele><time>2026-04-23T18:43:59.422Z</time></trkpt><trkpt lat="30.9707183" lon="-6.8350167"><ele>1151.6666666666667</ele><time>2026-04-23T18:44:00.422Z</time></trkpt><trkpt lat="30.970675" lon="-6.83521"><ele>1152.0</ele><time>2026-04-23T18:44:01.422Z</time></trkpt><trkpt lat="30.9706267" lon="-6.83541"><ele>1153.0</ele><time>2026-04-23T18:44:02.422Z</time></trkpt><trkpt lat="30.9705817" lon="-6.8355983"><ele>1154.0</ele><time>2026-04-23T18:44:03.422Z</time></trkpt><trkpt lat="30.9705383" lon="-6.8357883"><ele>1155.0</ele><time>2026-04-23T18:44:04.422Z</time></trkpt><trkpt lat="30.9704933" lon="-6.8359817"><ele>1155.3333333333333</ele><time>2026-04-23T18:44:05.422Z</time></trkpt><trkpt lat="30.9704467" lon="-6.83616"><ele>1155.6666666666665</ele><time>2026-04-23T18:44:06.422Z</time></trkpt><trkpt lat="30.9704" lon="-6.8363383"><ele>1156.0</ele><time>2026-04-23T18:44:07.422Z</time></trkpt><trkpt lat="30.9703567" lon="-6.836515"><ele>1156.0</ele><time>2026-04-23T18:44:08.422Z</time></trkpt><trkpt lat="30.9703067" lon="-6.8366933"><ele>1156.0</ele><time>2026-04-23T18:44:09.422Z</time></trkpt><trkpt lat="30.9702533" lon="-6.8368683"><ele>1156.0</ele><time>2026-04-23T18:44:10.422Z</time></trkpt><trkpt lat="30.9702033" lon="-6.8370433"><ele>1155.75</ele><time>2026-04-23T18:44:11.422Z</time></trkpt><trkpt lat="30.970155" lon="-6.8372133"><ele>1155.5</ele><time>2026-04-23T18:44:12.422Z</time></trkpt><trkpt lat="30.970105" lon="-6.8373783"><ele>1155.25</ele><time>2026-04-23T18:44:13.422Z</time></trkpt><trkpt lat="30.970055" lon="-6.8375367"><ele>1155.0</ele><time>2026-04-23T18:44:14.422Z</time></trkpt><trkpt lat="30.9700067" lon="-6.8376833"><ele>1155.0</ele><time>2026-04-23T18:44:15.422Z</time></trkpt><trkpt lat="30.9699567" lon="-6.83783"><ele>1155.0</ele><time>2026-04-23T18:44:16.422Z</time></trkpt><trkpt lat="30.9699017" lon="-6.8379683"><ele>1155.0</ele><time>2026-04-23T18:44:17.422Z</time></trkpt><trkpt lat="30.96984" lon="-6.838115"><ele>1155.0</ele><time>2026-04-23T18:44:18.422Z</time></trkpt><trkpt lat="30.9697733" lon="-6.83825"><ele>1155.0</ele><time>2026-04-23T18:44:19.421Z</time></trkpt><trkpt lat="30.9697017" lon="-6.838385"><ele>1155.0</ele><time>2026-04-23T18:44:20.421Z</time></trkpt><trkpt lat="30.9696267" lon="-6.8385117"><ele>1155.0</ele><time>2026-04-23T18:44:21.421Z</time></trkpt><trkpt lat="30.9695517" lon="-6.8386333"><ele>1155.0</ele><time>2026-04-23T18:44:22.421Z</time></trkpt><trkpt lat="30.9694717" lon="-6.8387533"><ele>1155.75</ele><time>2026-04-23T18:44:23.421Z</time></trkpt><trkpt lat="30.969395" lon="-6.8388683"><ele>1156.5</ele><time>2026-04-23T18:44:24.421Z</time></trkpt><trkpt lat="30.9693233" lon="-6.8389717"><ele>1157.25</ele><time>2026-04-23T18:44:25.421Z</time></trkpt><trkpt lat="30.96924" lon="-6.83907"><ele>1158.0</ele><time>2026-04-23T18:44:26.421Z</time></trkpt><trkpt lat="30.969155" lon="-6.8391633"><ele>1158.0</ele><time>2026-04-23T18:44:27.421Z</time></trkpt><trkpt lat="30.96907" lon="-6.8392583"><ele>1158.0</ele><time>2026-04-23T18:44:28.421Z</time></trkpt><trkpt lat="30.9689833" lon="-6.8393567"><ele>1158.0</ele><time>2026-04-23T18:44:29.421Z</time></trkpt><trkpt lat="30.968895" lon="-6.839455"><ele>1158.0</ele><time>2026-04-23T18:44:30.421Z</time></trkpt><trkpt lat="30.968805" lon="-6.839545"><ele>1159.2</ele><time>2026-04-23T18:44:31.421Z</time></trkpt><trkpt lat="30.9687133" lon="-6.83963"><ele>1160.4</ele><time>2026-04-23T18:44:32.421Z</time></trkpt><trkpt lat="30.96863" lon="-6.8397133"><ele>1161.6000000000001</ele><time>2026-04-23T18:44:33.421Z</time></trkpt><trkpt lat="30.9685533" lon="-6.8397867"><ele>1162.8</ele><time>2026-04-23T18:44:34.422Z</time></trkpt><trkpt lat="30.9684833" lon="-6.8398533"><ele>1164.0</ele><time>2026-04-23T18:44:35.421Z</time></trkpt><trkpt lat="30.9684117" lon="-6.83992"><ele>1165.4</ele><time>2026-04-23T18:44:36.421Z</time></trkpt><trkpt lat="30.9683383" lon="-6.83999"><ele>1166.8000000000002</ele><time>2026-04-23T18:44:37.421Z</time></trkpt><trkpt lat="30.9682583" lon="-6.840065"><ele>1168.1999999999998</ele><time>2026-04-23T18:44:38.421Z</time></trkpt><trkpt lat="30.968175" lon="-6.8401383"><ele>1169.6</ele><time>2026-04-23T18:44:39.422Z</time></trkpt><trkpt lat="30.9680933" lon="-6.840215"><ele>1171.0</ele><time>2026-04-23T18:44:40.421Z</time></trkpt><trkpt lat="30.9680083" lon="-6.84029"><ele>1172.0</ele><time>2026-04-23T18:44:41.421Z</time></trkpt><trkpt lat="30.9679233" lon="-6.8403667"><ele>1173.0</ele><time>2026-04-23T18:44:42.421Z</time></trkpt><trkpt lat="30.967835" lon="-6.8404533"><ele>1174.0</ele><time>2026-04-23T18:44:43.421Z</time></trkpt><trkpt lat="30.967755" lon="-6.840535"><ele>1175.0</ele><time>2026-04-23T18:44:44.421Z</time></trkpt><trkpt lat="30.96768" lon="-6.84061"><ele>1176.0</ele><time>2026-04-23T18:44:45.421Z</time></trkpt><trkpt lat="30.9676017" lon="-6.8406867"><ele>1176.0</ele><time>2026-04-23T18:44:46.421Z</time></trkpt><trkpt lat="30.9675217" lon="-6.8407617"><ele>1176.0</ele><time>2026-04-23T18:44:47.421Z</time></trkpt><trkpt lat="30.96744" lon="-6.8408367"><ele>1176.0</ele><time>2026-04-23T18:44:48.421Z</time></trkpt><trkpt lat="30.9673617" lon="-6.8409083"><ele>1176.0</ele><time>2026-04-23T18:44:49.421Z</time></trkpt><trkpt lat="30.96728" lon="-6.84098"><ele>1176.0</ele><time>2026-04-23T18:44:50.421Z</time></trkpt><trkpt lat="30.9672" lon="-6.841055"><ele>1175.8</ele><time>2026-04-23T18:44:51.421Z</time></trkpt><trkpt lat="30.9671233" lon="-6.841125"><ele>1175.6</ele><time>2026-04-23T18:44:52.421Z</time></trkpt><trkpt lat="30.96705" lon="-6.8411917"><ele>1175.4</ele><time>2026-04-23T18:44:53.421Z</time></trkpt><trkpt lat="30.966975" lon="-6.8412533"><ele>1175.2</ele><time>2026-04-23T18:44:54.421Z</time></trkpt><trkpt lat="30.9669067" lon="-6.841315"><ele>1175.0</ele><time>2026-04-23T18:44:55.421Z</time></trkpt><trkpt lat="30.9668383" lon="-6.8413733"><ele>1175.0</ele><time>2026-04-23T18:44:56.421Z</time></trkpt><trkpt lat="30.9667717" lon="-6.8414367"><ele>1175.0</ele><time>2026-04-23T18:44:57.421Z</time></trkpt><trkpt lat="30.9667" lon="-6.841505"><ele>1175.0</ele><time>2026-04-23T18:44:58.421Z</time></trkpt><trkpt lat="30.9666233" lon="-6.841575"><ele>1175.0</ele><time>2026-04-23T18:44:59.421Z</time></trkpt><trkpt lat="30.96655" lon="-6.8416433"><ele>1175.0</ele><time>2026-04-23T18:45:00.421Z</time></trkpt><trkpt lat="30.9664733" lon="-6.8417183"><ele>1175.2</ele><time>2026-04-23T18:45:01.421Z</time></trkpt><trkpt lat="30.9663833" lon="-6.8417883"><ele>1175.4</ele><time>2026-04-23T18:45:02.421Z</time></trkpt><trkpt lat="30.966295" lon="-6.8418667"><ele>1175.6</ele><time>2026-04-23T18:45:03.422Z</time></trkpt><trkpt lat="30.9662033" lon="-6.84194"><ele>1175.8</ele><time>2026-04-23T18:45:04.421Z</time></trkpt><trkpt lat="30.9661117" lon="-6.842025"><ele>1176.0</ele><time>2026-04-23T18:45:05.421Z</time></trkpt><trkpt lat="30.9660217" lon="-6.8421083"><ele>1176.0</ele><time>2026-04-23T18:45:06.421Z</time></trkpt><trkpt lat="30.965935" lon="-6.8421983"><ele>1176.0</ele><time>2026-04-23T18:45:07.421Z</time></trkpt><trkpt lat="30.9658517" lon="-6.84229"><ele>1176.0</ele><time>2026-04-23T18:45:08.421Z</time></trkpt><trkpt lat="30.9657767" lon="-6.8423833"><ele>1176.0</ele><time>2026-04-23T18:45:09.422Z</time></trkpt><trkpt lat="30.9656983" lon="-6.84248"><ele>1175.25</ele><time>2026-04-23T18:45:10.421Z</time></trkpt><trkpt lat="30.9656183" lon="-6.8425783"><ele>1174.5</ele><time>2026-04-23T18:45:11.421Z</time></trkpt><trkpt lat="30.9655467" lon="-6.8426783"><ele>1173.75</ele><time>2026-04-23T18:45:12.421Z</time></trkpt><trkpt lat="30.9654767" lon="-6.8427833"><ele>1173.0</ele><time>2026-04-23T18:45:13.421Z</time></trkpt><trkpt lat="30.9654067" lon="-6.8428883"><ele>1172.4</ele><time>2026-04-23T18:45:14.421Z</time></trkpt><trkpt lat="30.9653417" lon="-6.8429917"><ele>1171.8</ele><time>2026-04-23T18:45:15.421Z</time></trkpt><trkpt lat="30.9652767" lon="-6.8430867"><ele>1171.2</ele><time>2026-04-23T18:45:16.421Z</time></trkpt><trkpt lat="30.9652167" lon="-6.8431883"><ele>1170.6</ele><time>2026-04-23T18:45:17.421Z</time></trkpt><trkpt lat="30.9651517" lon="-6.8432917"><ele>1170.0</ele><time>2026-04-23T18:45:18.421Z</time></trkpt><trkpt lat="30.96509" lon="-6.8433983"><ele>1165.5</ele><time>2026-04-23T18:45:19.421Z</time></trkpt><trkpt lat="30.965025" lon="-6.843505"><ele>1161.0</ele><time>2026-04-23T18:45:20.421Z</time></trkpt><trkpt lat="30.96496" lon="-6.8436183"><ele>1156.5</ele><time>2026-04-23T18:45:21.421Z</time></trkpt><trkpt lat="30.9648933" lon="-6.8437317"><ele>1152.0</ele><time>2026-04-23T18:45:22.421Z</time></trkpt><trkpt lat="30.9648267" lon="-6.8438467"><ele>1152.0</ele><time>2026-04-23T18:45:23.421Z</time></trkpt><trkpt lat="30.96476" lon="-6.84396"><ele>1152.0</ele><time>2026-04-23T18:45:24.421Z</time></trkpt><trkpt lat="30.964695" lon="-6.8440717"><ele>1152.0</ele><time>2026-04-23T18:45:25.422Z</time></trkpt><trkpt lat="30.964625" lon="-6.8441783"><ele>1152.0</ele><time>2026-04-23T18:45:26.421Z</time></trkpt><trkpt lat="30.9645583" lon="-6.8442833"><ele>1151.0</ele><time>2026-04-23T18:45:27.421Z</time></trkpt><trkpt lat="30.9644933" lon="-6.8443917"><ele>1150.0</ele><time>2026-04-23T18:45:28.421Z</time></trkpt><trkpt lat="30.96443" lon="-6.8445"><ele>1149.0</ele><time>2026-04-23T18:45:29.421Z</time></trkpt><trkpt lat="30.964365" lon="-6.8446083"><ele>1148.0</ele><time>2026-04-23T18:45:30.421Z</time></trkpt><trkpt lat="30.9643" lon="-6.84472"><ele>1148.0</ele><time>2026-04-23T18:45:31.421Z</time></trkpt><trkpt lat="30.9642283" lon="-6.844835"><ele>1148.0</ele><time>2026-04-23T18:45:32.421Z</time></trkpt><trkpt lat="30.964155" lon="-6.8449567"><ele>1148.0</ele><time>2026-04-23T18:45:33.421Z</time></trkpt><trkpt lat="30.9640783" lon="-6.8450833"><ele>1148.0</ele><time>2026-04-23T18:45:34.421Z</time></trkpt><trkpt lat="30.9639983" lon="-6.8452167"><ele>1146.25</ele><time>2026-04-23T18:45:35.421Z</time></trkpt><trkpt lat="30.9639183" lon="-6.8453483"><ele>1144.5</ele><time>2026-04-23T18:45:36.421Z</time></trkpt><trkpt lat="30.9638383" lon="-6.8454833"><ele>1142.75</ele><time>2026-04-23T18:45:37.421Z</time></trkpt><trkpt lat="30.96375" lon="-6.8456133"><ele>1141.0</ele><time>2026-04-23T18:45:38.421Z</time></trkpt><trkpt lat="30.9636633" lon="-6.8457383"><ele>1141.0</ele><time>2026-04-23T18:45:39.421Z</time></trkpt><trkpt lat="30.96358" lon="-6.8458683"><ele>1141.0</ele><time>2026-04-23T18:45:40.421Z</time></trkpt><trkpt lat="30.9635017" lon="-6.8459917"><ele>1141.0</ele><time>2026-04-23T18:45:41.421Z</time></trkpt><trkpt lat="30.9634267" lon="-6.84612"><ele>1141.0</ele><time>2026-04-23T18:45:42.421Z</time></trkpt><trkpt lat="30.963355" lon="-6.8462483"><ele>1141.0</ele><time>2026-04-23T18:45:43.421Z</time></trkpt><trkpt lat="30.9632833" lon="-6.846375"><ele>1141.0</ele><time>2026-04-23T18:45:44.421Z</time></trkpt><trkpt lat="30.9632117" lon="-6.8465067"><ele>1141.0</ele><time>2026-04-23T18:45:45.421Z</time></trkpt><trkpt lat="30.96314" lon="-6.8466483"><ele>1141.0</ele><time>2026-04-23T18:45:46.421Z</time></trkpt><trkpt lat="30.9630567" lon="-6.8467833"><ele>1143.75</ele><time>2026-04-23T18:45:47.421Z</time></trkpt><trkpt lat="30.9629817" lon="-6.8469183"><ele>1146.5</ele><time>2026-04-23T18:45:48.421Z</time></trkpt><trkpt lat="30.962905" lon="-6.84705"><ele>1149.25</ele><time>2026-04-23T18:45:49.421Z</time></trkpt><trkpt lat="30.9628317" lon="-6.8471717"><ele>1152.0</ele><time>2026-04-23T18:45:50.421Z</time></trkpt><trkpt lat="30.9627667" lon="-6.8472883"><ele>1152.0</ele><time>2026-04-23T18:45:51.421Z</time></trkpt><trkpt lat="30.9627017" lon="-6.8474033"><ele>1152.0</ele><time>2026-04-23T18:45:52.422Z</time></trkpt><trkpt lat="30.9626417" lon="-6.8475167"><ele>1152.0</ele><time>2026-04-23T18:45:53.421Z</time></trkpt><trkpt lat="30.9625783" lon="-6.84763"><ele>1152.0</ele><time>2026-04-23T18:45:54.421Z</time></trkpt><trkpt lat="30.9625233" lon="-6.847745"><ele>1150.75</ele><time>2026-04-23T18:45:55.421Z</time></trkpt><trkpt lat="30.96247" lon="-6.847865"><ele>1149.5</ele><time>2026-04-23T18:45:56.421Z</time></trkpt><trkpt lat="30.9624167" lon="-6.8479917"><ele>1148.25</ele><time>2026-04-23T18:45:57.421Z</time></trkpt><trkpt lat="30.9623667" lon="-6.848105"><ele>1147.0</ele><time>2026-04-23T18:45:58.421Z</time></trkpt><trkpt lat="30.9623133" lon="-6.848215"><ele>1147.0</ele><time>2026-04-23T18:45:59.421Z</time></trkpt><trkpt lat="30.9622617" lon="-6.84833"><ele>1147.0</ele><time>2026-04-23T18:46:00.421Z</time></trkpt><trkpt lat="30.962215" lon="-6.848445"><ele>1147.0</ele><time>2026-04-23T18:46:01.421Z</time></trkpt><trkpt lat="30.9621667" lon="-6.848565"><ele>1147.0</ele><time>2026-04-23T18:46:02.421Z</time></trkpt><trkpt lat="30.9621183" lon="-6.84868"><ele>1147.0</ele><time>2026-04-23T18:46:03.421Z</time></trkpt><trkpt lat="30.96207" lon="-6.8488033"><ele>1147.75</ele><time>2026-04-23T18:46:04.421Z</time></trkpt><trkpt lat="30.9620217" lon="-6.84893"><ele>1148.5</ele><time>2026-04-23T18:46:05.421Z</time></trkpt><trkpt lat="30.9619717" lon="-6.8490517"><ele>1149.25</ele><time>2026-04-23T18:46:06.421Z</time></trkpt><trkpt lat="30.9619217" lon="-6.84918"><ele>1150.0</ele><time>2026-04-23T18:46:07.421Z</time></trkpt><trkpt lat="30.961875" lon="-6.8493067"><ele>1149.4</ele><time>2026-04-23T18:46:08.421Z</time></trkpt><trkpt lat="30.9618317" lon="-6.8494233"><ele>1148.8</ele><time>2026-04-23T18:46:09.421Z</time></trkpt><trkpt lat="30.96179" lon="-6.84953"><ele>1148.2</ele><time>2026-04-23T18:46:10.421Z</time></trkpt><trkpt lat="30.9617517" lon="-6.8496367"><ele>1147.6</ele><time>2026-04-23T18:46:11.421Z</time></trkpt><trkpt lat="30.9617167" lon="-6.8497417"><ele>1147.0</ele><time>2026-04-23T18:46:12.421Z</time></trkpt><trkpt lat="30.9616817" lon="-6.8498383"><ele>1147.0</ele><time>2026-04-23T18:46:13.421Z</time></trkpt><trkpt lat="30.961655" lon="-6.8499383"><ele>1147.0</ele><time>2026-04-23T18:46:14.421Z</time></trkpt><trkpt lat="30.9616283" lon="-6.8500317"><ele>1147.0</ele><time>2026-04-23T18:46:15.421Z</time></trkpt><trkpt lat="30.961595" lon="-6.8501267"><ele>1147.0</ele><time>2026-04-23T18:46:16.421Z</time></trkpt><trkpt lat="30.96156" lon="-6.8502217"><ele>1147.0</ele><time>2026-04-23T18:46:17.421Z</time></trkpt><trkpt lat="30.9615217" lon="-6.85032"><ele>1147.0</ele><time>2026-04-23T18:46:18.421Z</time></trkpt><trkpt lat="30.9614767" lon="-6.850425"><ele>1147.0</ele><time>2026-04-23T18:46:19.421Z</time></trkpt><trkpt lat="30.9614417" lon="-6.850545"><ele>1147.0</ele><time>2026-04-23T18:46:20.421Z</time></trkpt><trkpt lat="30.9614017" lon="-6.8506633"><ele>1147.0</ele><time>2026-04-23T18:46:21.421Z</time></trkpt><trkpt lat="30.9613617" lon="-6.85078"><ele>1147.0</ele><time>2026-04-23T18:46:22.421Z</time></trkpt><trkpt lat="30.9613217" lon="-6.8509033"><ele>1147.0</ele><time>2026-04-23T18:46:23.421Z</time></trkpt><trkpt lat="30.9612783" lon="-6.8510233"><ele>1146.5</ele><time>2026-04-23T18:46:24.421Z</time></trkpt><trkpt lat="30.96123" lon="-6.85114"><ele>1146.0</ele><time>2026-04-23T18:46:25.421Z</time></trkpt><trkpt lat="30.96118" lon="-6.8512633"><ele>1145.5</ele><time>2026-04-23T18:46:26.421Z</time></trkpt><trkpt lat="30.9611317" lon="-6.8513933"><ele>1145.0</ele><time>2026-04-23T18:46:27.421Z</time></trkpt><trkpt lat="30.9610867" lon="-6.8515283"><ele>1145.0</ele><time>2026-04-23T18:46:28.421Z</time></trkpt><trkpt lat="30.9610317" lon="-6.8516567"><ele>1145.0</ele><time>2026-04-23T18:46:29.421Z</time></trkpt><trkpt lat="30.9609817" lon="-6.8517917"><ele>1145.0</ele><time>2026-04-23T18:46:30.421Z</time></trkpt><trkpt lat="30.960935" lon="-6.851935"><ele>1145.0</ele><time>2026-04-23T18:46:31.421Z</time></trkpt><trkpt lat="30.9608867" lon="-6.8520733"><ele>1144.0</ele><time>2026-04-23T18:46:32.421Z</time></trkpt><trkpt lat="30.9608433" lon="-6.8522033"><ele>1143.0</ele><time>2026-04-23T18:46:33.421Z</time></trkpt><trkpt lat="30.960795" lon="-6.852325"><ele>1142.0</ele><time>2026-04-23T18:46:34.421Z</time></trkpt><trkpt lat="30.9607483" lon="-6.85243"><ele>1141.0</ele><time>2026-04-23T18:46:35.421Z</time></trkpt><trkpt lat="30.9607083" lon="-6.8525317"><ele>1140.0</ele><time>2026-04-23T18:46:36.421Z</time></trkpt><trkpt lat="30.9606667" lon="-6.8526183"><ele>1140.0</ele><time>2026-04-23T18:46:37.422Z</time></trkpt><trkpt lat="30.9606367" lon="-6.8526933"><ele>1140.0</ele><time>2026-04-23T18:46:38.421Z</time></trkpt><trkpt lat="30.9606133" lon="-6.8527617"><ele>1140.0</ele><time>2026-04-23T18:46:39.421Z</time></trkpt><trkpt lat="30.9605883" lon="-6.85283"><ele>1140.0</ele><time>2026-04-23T18:46:40.421Z</time></trkpt><trkpt lat="30.9605633" lon="-6.8529083"><ele>1140.0</ele><time>2026-04-23T18:46:41.421Z</time></trkpt><trkpt lat="30.9605367" lon="-6.8529867"><ele>1140.0</ele><time>2026-04-23T18:46:42.421Z</time></trkpt><trkpt lat="30.9605" lon="-6.8530717"><ele>1140.0</ele><time>2026-04-23T18:46:43.421Z</time></trkpt><trkpt lat="30.960465" lon="-6.85317"><ele>1140.0</ele><time>2026-04-23T18:46:44.421Z</time></trkpt><trkpt lat="30.9604267" lon="-6.85327"><ele>1140.0</ele><time>2026-04-23T18:46:45.421Z</time></trkpt><trkpt lat="30.9603833" lon="-6.853375"><ele>1140.0</ele><time>2026-04-23T18:46:46.421Z</time></trkpt><trkpt lat="30.9603433" lon="-6.8534833"><ele>1140.0</ele><time>2026-04-23T18:46:47.421Z</time></trkpt><trkpt lat="30.9603067" lon="-6.8535933"><ele>1140.0</ele><time>2026-04-23T18:46:48.421Z</time></trkpt><trkpt lat="30.9602683" lon="-6.853695"><ele>1139.0</ele><time>2026-04-23T18:46:49.421Z</time></trkpt><trkpt lat="30.9602317" lon="-6.8537967"><ele>1138.0</ele><time>2026-04-23T18:46:50.421Z</time></trkpt><trkpt lat="30.9601967" lon="-6.853905"><ele>1137.0</ele><time>2026-04-23T18:46:51.421Z</time></trkpt><trkpt lat="30.9601617" lon="-6.8540133"><ele>1136.0</ele><time>2026-04-23T18:46:52.421Z</time></trkpt><trkpt lat="30.96012" lon="-6.8541267"><ele>1135.0</ele><time>2026-04-23T18:46:53.421Z</time></trkpt><trkpt lat="30.9600867" lon="-6.8542283"><ele>1135.0</ele><time>2026-04-23T18:46:54.421Z</time></trkpt><trkpt lat="30.9600533" lon="-6.85431"><ele>1135.0</ele><time>2026-04-23T18:46:55.421Z</time></trkpt><trkpt lat="30.9600233" lon="-6.8543833"><ele>1135.0</ele><time>2026-04-23T18:46:56.421Z</time></trkpt><trkpt lat="30.9599867" lon="-6.8544483"><ele>1135.0</ele><time>2026-04-23T18:46:57.421Z</time></trkpt><trkpt lat="30.95995" lon="-6.8545167"><ele>1135.0</ele><time>2026-04-23T18:46:58.421Z</time></trkpt><trkpt lat="30.959915" lon="-6.8545783"><ele>1135.0</ele><time>2026-04-23T18:46:59.421Z</time></trkpt><trkpt lat="30.9598467" lon="-6.854705"><ele>1135.0</ele><time>2026-04-23T18:47:01.421Z</time></trkpt><trkpt lat="30.959815" lon="-6.8547767"><ele>1135.0</ele><time>2026-04-23T18:47:02.421Z</time></trkpt><trkpt lat="30.959785" lon="-6.8548483"><ele>1135.0</ele><time>2026-04-23T18:47:03.421Z</time></trkpt><trkpt lat="30.95976" lon="-6.854925"><ele>1135.0</ele><time>2026-04-23T18:47:04.421Z</time></trkpt><trkpt lat="30.9597383" lon="-6.8550017"><ele>1135.0</ele><time>2026-04-23T18:47:05.421Z</time></trkpt><trkpt lat="30.95971" lon="-6.85508"><ele>1135.0</ele><time>2026-04-23T18:47:06.421Z</time></trkpt><trkpt lat="30.9596767" lon="-6.85516"><ele>1135.0</ele><time>2026-04-23T18:47:07.421Z</time></trkpt><trkpt lat="30.9596483" lon="-6.8552617"><ele>1135.0</ele><time>2026-04-23T18:47:08.421Z</time></trkpt><trkpt lat="30.9596217" lon="-6.8553833"><ele>1135.0</ele><time>2026-04-23T18:47:09.421Z</time></trkpt><trkpt lat="30.95959" lon="-6.855515"><ele>1135.0</ele><time>2026-04-23T18:47:10.421Z</time></trkpt><trkpt lat="30.9595467" lon="-6.855655"><ele>1135.0</ele><time>2026-04-23T18:47:11.421Z</time></trkpt><trkpt lat="30.9594967" lon="-6.8557883"><ele>1135.0</ele><time>2026-04-23T18:47:12.421Z</time></trkpt><trkpt lat="30.959455" lon="-6.85592"><ele>1135.0</ele><time>2026-04-23T18:47:13.421Z</time></trkpt><trkpt lat="30.959415" lon="-6.8560467"><ele>1135.0</ele><time>2026-04-23T18:47:14.421Z</time></trkpt><trkpt lat="30.9593667" lon="-6.856175"><ele>1135.0</ele><time>2026-04-23T18:47:15.421Z</time></trkpt><trkpt lat="30.959315" lon="-6.8563033"><ele>1135.0</ele><time>2026-04-23T18:47:16.421Z</time></trkpt><trkpt lat="30.9592633" lon="-6.85643"><ele>1135.0</ele><time>2026-04-23T18:47:17.421Z</time></trkpt><trkpt lat="30.9592167" lon="-6.85655"><ele>1135.0</ele><time>2026-04-23T18:47:18.421Z</time></trkpt><trkpt lat="30.9591683" lon="-6.856665"><ele>1135.0</ele><time>2026-04-23T18:47:19.421Z</time></trkpt><trkpt lat="30.9591167" lon="-6.8567983"><ele>1135.0</ele><time>2026-04-23T18:47:20.421Z</time></trkpt><trkpt lat="30.95907" lon="-6.8569417"><ele>1135.0</ele><time>2026-04-23T18:47:21.421Z</time></trkpt><trkpt lat="30.9590083" lon="-6.8571017"><ele>1135.0</ele><time>2026-04-23T18:47:22.421Z</time></trkpt><trkpt lat="30.958945" lon="-6.8572783"><ele>1135.0</ele><time>2026-04-23T18:47:23.421Z</time></trkpt><trkpt lat="30.9588633" lon="-6.85747"><ele>1135.3333333333333</ele><time>2026-04-23T18:47:24.421Z</time></trkpt><trkpt lat="30.95878" lon="-6.857695"><ele>1135.6666666666667</ele><time>2026-04-23T18:47:25.422Z</time></trkpt><trkpt lat="30.9586883" lon="-6.8579267"><ele>1136.0</ele><time>2026-04-23T18:47:26.421Z</time></trkpt><trkpt lat="30.958595" lon="-6.858165"><ele>1136.0</ele><time>2026-04-23T18:47:27.421Z</time></trkpt><trkpt lat="30.9585067" lon="-6.8584183"><ele>1136.0</ele><time>2026-04-23T18:47:28.421Z</time></trkpt><trkpt lat="30.95843" lon="-6.8586633"><ele>1135.6666666666667</ele><time>2026-04-23T18:47:29.421Z</time></trkpt><trkpt lat="30.9583617" lon="-6.8588933"><ele>1135.3333333333333</ele><time>2026-04-23T18:47:30.421Z</time></trkpt><trkpt lat="30.9582917" lon="-6.859105"><ele>1135.0</ele><time>2026-04-23T18:47:31.421Z</time></trkpt><trkpt lat="30.958215" lon="-6.8593067"><ele>1135.0</ele><time>2026-04-23T18:47:32.421Z</time></trkpt><trkpt lat="30.9581367" lon="-6.8594967"><ele>1135.0</ele><time>2026-04-23T18:47:33.421Z</time></trkpt><trkpt lat="30.9580667" lon="-6.8596883"><ele>1135.0</ele><time>2026-04-23T18:47:34.421Z</time></trkpt><trkpt lat="30.9579917" lon="-6.859875"><ele>1135.0</ele><time>2026-04-23T18:47:35.422Z</time></trkpt><trkpt lat="30.9579083" lon="-6.8600483"><ele>1135.0</ele><time>2026-04-23T18:47:36.421Z</time></trkpt><trkpt lat="30.9578283" lon="-6.8602283"><ele>1135.0</ele><time>2026-04-23T18:47:37.422Z</time></trkpt><trkpt lat="30.9577383" lon="-6.860405"><ele>1134.6666666666665</ele><time>2026-04-23T18:47:38.421Z</time></trkpt><trkpt lat="30.95765" lon="-6.8605733"><ele>1134.3333333333333</ele><time>2026-04-23T18:47:39.421Z</time></trkpt><trkpt lat="30.9575567" lon="-6.860735"><ele>1134.0</ele><time>2026-04-23T18:47:40.421Z</time></trkpt><trkpt lat="30.95748" lon="-6.860895"><ele>1133.5</ele><time>2026-04-23T18:47:41.421Z</time></trkpt><trkpt lat="30.9574067" lon="-6.8610483"><ele>1133.0</ele><time>2026-04-23T18:47:42.421Z</time></trkpt><trkpt lat="30.957335" lon="-6.86119"><ele>1132.5</ele><time>2026-04-23T18:47:43.421Z</time></trkpt><trkpt lat="30.9572633" lon="-6.8613267"><ele>1132.0</ele><time>2026-04-23T18:47:44.421Z</time></trkpt><trkpt lat="30.9571983" lon="-6.86146"><ele>1132.0</ele><time>2026-04-23T18:47:45.421Z</time></trkpt><trkpt lat="30.9571333" lon="-6.8615883"><ele>1132.0</ele><time>2026-04-23T18:47:46.421Z</time></trkpt><trkpt lat="30.95706" lon="-6.8617317"><ele>1132.0</ele><time>2026-04-23T18:47:47.421Z</time></trkpt><trkpt lat="30.956975" lon="-6.861895"><ele>1132.0</ele><time>2026-04-23T18:47:48.421Z</time></trkpt><trkpt lat="30.956885" lon="-6.862075"><ele>1132.0</ele><time>2026-04-23T18:47:49.421Z</time></trkpt><trkpt lat="30.95679" lon="-6.862265"><ele>1132.0</ele><time>2026-04-23T18:47:50.421Z</time></trkpt><trkpt lat="30.9566883" lon="-6.8624683"><ele>1132.0</ele><time>2026-04-23T18:47:51.422Z</time></trkpt><trkpt lat="30.9565833" lon="-6.86268"><ele>1135.0</ele><time>2026-04-23T18:47:52.421Z</time></trkpt><trkpt lat="30.9564733" lon="-6.8628967"><ele>1138.0</ele><time>2026-04-23T18:47:53.421Z</time></trkpt><trkpt lat="30.9563633" lon="-6.863115"><ele>1141.0</ele><time>2026-04-23T18:47:54.421Z</time></trkpt><trkpt lat="30.9562567" lon="-6.8633233"><ele>1143.3333333333333</ele><time>2026-04-23T18:47:55.421Z</time></trkpt><trkpt lat="30.9561517" lon="-6.8635233"><ele>1145.6666666666667</ele><time>2026-04-23T18:47:56.421Z</time></trkpt><trkpt lat="30.9560433" lon="-6.863705"><ele>1148.0</ele><time>2026-04-23T18:47:57.421Z</time></trkpt><trkpt lat="30.95595" lon="-6.8638833"><ele>1145.6666666666667</ele><time>2026-04-23T18:47:58.421Z</time></trkpt><trkpt lat="30.9558567" lon="-6.8640567"><ele>1143.3333333333333</ele><time>2026-04-23T18:47:59.421Z</time></trkpt><trkpt lat="30.9557767" lon="-6.8642433"><ele>1141.0</ele><time>2026-04-23T18:48:00.421Z</time></trkpt><trkpt lat="30.9556883" lon="-6.86442"><ele>1139.6666666666665</ele><time>2026-04-23T18:48:01.421Z</time></trkpt><trkpt lat="30.9556033" lon="-6.86459"><ele>1138.3333333333333</ele><time>2026-04-23T18:48:02.421Z</time></trkpt><trkpt lat="30.95552" lon="-6.8647667"><ele>1137.0</ele><time>2026-04-23T18:48:03.422Z</time></trkpt><trkpt lat="30.9554283" lon="-6.86494"><ele>1137.0</ele><time>2026-04-23T18:48:04.421Z</time></trkpt><trkpt lat="30.9553383" lon="-6.865115"><ele>1137.0</ele><time>2026-04-23T18:48:05.421Z</time></trkpt><trkpt lat="30.955245" lon="-6.8652933"><ele>1137.0</ele><time>2026-04-23T18:48:06.421Z</time></trkpt><trkpt lat="30.9551533" lon="-6.8654733"><ele>1137.0</ele><time>2026-04-23T18:48:07.421Z</time></trkpt><trkpt lat="30.95506" lon="-6.8656567"><ele>1137.0</ele><time>2026-04-23T18:48:08.421Z</time></trkpt><trkpt lat="30.9549633" lon="-6.8658417"><ele>1137.0</ele><time>2026-04-23T18:48:09.421Z</time></trkpt><trkpt lat="30.95487" lon="-6.8660367"><ele>1135.0</ele><time>2026-04-23T18:48:10.421Z</time></trkpt><trkpt lat="30.9547717" lon="-6.8662283"><ele>1133.0</ele><time>2026-04-23T18:48:11.421Z</time></trkpt><trkpt lat="30.9546733" lon="-6.8664167"><ele>1131.0</ele><time>2026-04-23T18:48:12.421Z</time></trkpt><trkpt lat="30.9545783" lon="-6.8665933"><ele>1131.0</ele><time>2026-04-23T18:48:13.421Z</time></trkpt><trkpt lat="30.954485" lon="-6.86677"><ele>1131.0</ele><time>2026-04-23T18:48:14.421Z</time></trkpt><trkpt lat="30.9543933" lon="-6.8669483"><ele>1131.0</ele><time>2026-04-23T18:48:15.421Z</time></trkpt><trkpt lat="30.9543017" lon="-6.8671317"><ele>1128.0</ele><time>2026-04-23T18:48:16.421Z</time></trkpt><trkpt lat="30.9542083" lon="-6.8673183"><ele>1125.0</ele><time>2026-04-23T18:48:17.421Z</time></trkpt><trkpt lat="30.954115" lon="-6.8675067"><ele>1122.0</ele><time>2026-04-23T18:48:18.421Z</time></trkpt><trkpt lat="30.95402" lon="-6.8677"><ele>1121.3333333333333</ele><time>2026-04-23T18:48:19.421Z</time></trkpt><trkpt lat="30.9539183" lon="-6.8678983"><ele>1120.6666666666665</ele><time>2026-04-23T18:48:20.421Z</time></trkpt><trkpt lat="30.953815" lon="-6.8681"><ele>1120.0</ele><time>2026-04-23T18:48:21.421Z</time></trkpt><trkpt lat="30.95371" lon="-6.8683"><ele>1121.3333333333333</ele><time>2026-04-23T18:48:22.422Z</time></trkpt><trkpt lat="30.9536017" lon="-6.8685083"><ele>1122.6666666666667</ele><time>2026-04-23T18:48:23.421Z</time></trkpt><trkpt lat="30.953495" lon="-6.8687167"><ele>1124.0</ele><time>2026-04-23T18:48:24.421Z</time></trkpt><trkpt lat="30.9533867" lon="-6.8689267"><ele>1124.3333333333335</ele><time>2026-04-23T18:48:25.421Z</time></trkpt><trkpt lat="30.95328" lon="-6.8691367"><ele>1124.6666666666667</ele><time>2026-04-23T18:48:26.421Z</time></trkpt><trkpt lat="30.95317" lon="-6.8693433"><ele>1125.0</ele><time>2026-04-23T18:48:27.421Z</time></trkpt><trkpt lat="30.95306" lon="-6.8695417"><ele>1127.0</ele><time>2026-04-23T18:48:28.421Z</time></trkpt><trkpt lat="30.9529567" lon="-6.869745"><ele>1129.0</ele><time>2026-04-23T18:48:29.421Z</time></trkpt><trkpt lat="30.952865" lon="-6.869945"><ele>1131.0</ele><time>2026-04-23T18:48:30.421Z</time></trkpt><trkpt lat="30.9527667" lon="-6.8701383"><ele>1133.0</ele><time>2026-04-23T18:48:31.421Z</time></trkpt><trkpt lat="30.952665" lon="-6.8703333"><ele>1135.0</ele><time>2026-04-23T18:48:32.421Z</time></trkpt><trkpt lat="30.9525567" lon="-6.870525"><ele>1137.0</ele><time>2026-04-23T18:48:33.421Z</time></trkpt><trkpt lat="30.9524533" lon="-6.870725"><ele>1137.6666666666667</ele><time>2026-04-23T18:48:34.421Z</time></trkpt><trkpt lat="30.95235" lon="-6.8709283"><ele>1138.3333333333335</ele><time>2026-04-23T18:48:35.421Z</time></trkpt><trkpt lat="30.95224" lon="-6.8711283"><ele>1139.0</ele><time>2026-04-23T18:48:36.421Z</time></trkpt><trkpt lat="30.9521383" lon="-6.87132"><ele>1139.3333333333335</ele><time>2026-04-23T18:48:37.421Z</time></trkpt><trkpt lat="30.95204" lon="-6.87151"><ele>1139.6666666666667</ele><time>2026-04-23T18:48:38.421Z</time></trkpt><trkpt lat="30.9519317" lon="-6.871685"><ele>1140.0</ele><time>2026-04-23T18:48:39.421Z</time></trkpt><trkpt lat="30.95181" lon="-6.87185"><ele>1138.6666666666667</ele><time>2026-04-23T18:48:40.421Z</time></trkpt><trkpt lat="30.95168" lon="-6.8720083"><ele>1137.3333333333335</ele><time>2026-04-23T18:48:41.421Z</time></trkpt><trkpt lat="30.9515383" lon="-6.872175"><ele>1136.0</ele><time>2026-04-23T18:48:42.421Z</time></trkpt><trkpt lat="30.951395" lon="-6.8723367"><ele>1136.0</ele><time>2026-04-23T18:48:43.421Z</time></trkpt><trkpt lat="30.9512567" lon="-6.8724933"><ele>1136.0</ele><time>2026-04-23T18:48:44.421Z</time></trkpt><trkpt lat="30.951115" lon="-6.8726483"><ele>1136.0</ele><time>2026-04-23T18:48:45.421Z</time></trkpt><trkpt lat="30.9509783" lon="-6.8727967"><ele>1134.6666666666667</ele><time>2026-04-23T18:48:46.421Z</time></trkpt><trkpt lat="30.9508383" lon="-6.8729483"><ele>1133.3333333333333</ele><time>2026-04-23T18:48:47.421Z</time></trkpt><trkpt lat="30.9507" lon="-6.873105"><ele>1132.0</ele><time>2026-04-23T18:48:48.421Z</time></trkpt><trkpt lat="30.9505483" lon="-6.87327"><ele>1132.6666666666665</ele><time>2026-04-23T18:48:49.421Z</time></trkpt><trkpt lat="30.9503883" lon="-6.87344"><ele>1133.3333333333333</ele><time>2026-04-23T18:48:50.421Z</time></trkpt><trkpt lat="30.95023" lon="-6.87362"><ele>1134.0</ele><time>2026-04-23T18:48:51.422Z</time></trkpt><trkpt lat="30.950065" lon="-6.8738017"><ele>1131.5</ele><time>2026-04-23T18:48:52.421Z</time></trkpt><trkpt lat="30.949895" lon="-6.8739933"><ele>1129.0</ele><time>2026-04-23T18:48:53.421Z</time></trkpt><trkpt lat="30.9497183" lon="-6.8741867"><ele>1132.5</ele><time>2026-04-23T18:48:54.421Z</time></trkpt><trkpt lat="30.949535" lon="-6.8743867"><ele>1136.0</ele><time>2026-04-23T18:48:55.421Z</time></trkpt><trkpt lat="30.949345" lon="-6.8745983"><ele>1134.5</ele><time>2026-04-23T18:48:56.422Z</time></trkpt><trkpt lat="30.9491533" lon="-6.874815"><ele>1133.0</ele><time>2026-04-23T18:48:57.421Z</time></trkpt><trkpt lat="30.9489567" lon="-6.8750367"><ele>1134.5</ele><time>2026-04-23T18:48:58.421Z</time></trkpt><trkpt lat="30.9487517" lon="-6.8752583"><ele>1136.0</ele><time>2026-04-23T18:48:59.421Z</time></trkpt><trkpt lat="30.94855" lon="-6.8754817"><ele>1133.0</ele><time>2026-04-23T18:49:00.421Z</time></trkpt><trkpt lat="30.9483517" lon="-6.87571"><ele>1130.0</ele><time>2026-04-23T18:49:01.422Z</time></trkpt><trkpt lat="30.9481533" lon="-6.8759267"><ele>1129.0</ele><time>2026-04-23T18:49:02.421Z</time></trkpt><trkpt lat="30.9479683" lon="-6.8761383"><ele>1128.0</ele><time>2026-04-23T18:49:03.421Z</time></trkpt><trkpt lat="30.9477817" lon="-6.8763383"><ele>1128.0</ele><time>2026-04-23T18:49:04.421Z</time></trkpt><trkpt lat="30.947585" lon="-6.8765583"><ele>1128.0</ele><time>2026-04-23T18:49:05.421Z</time></trkpt><trkpt lat="30.9473883" lon="-6.8767783"><ele>1126.5</ele><time>2026-04-23T18:49:06.421Z</time></trkpt><trkpt lat="30.9472033" lon="-6.87698"><ele>1125.0</ele><time>2026-04-23T18:49:07.421Z</time></trkpt><trkpt lat="30.9470317" lon="-6.8771717"><ele>1125.0</ele><time>2026-04-23T18:49:08.421Z</time></trkpt><trkpt lat="30.9468667" lon="-6.8773567"><ele>1125.0</ele><time>2026-04-23T18:49:09.421Z</time></trkpt><trkpt lat="30.9467083" lon="-6.87753"><ele>1125.0</ele><time>2026-04-23T18:49:10.421Z</time></trkpt><trkpt lat="30.94655" lon="-6.877705"><ele>1123.0</ele><time>2026-04-23T18:49:11.421Z</time></trkpt><trkpt lat="30.9463883" lon="-6.877885"><ele>1121.0</ele><time>2026-04-23T18:49:12.421Z</time></trkpt><trkpt lat="30.9462267" lon="-6.8780783"><ele>1121.0</ele><time>2026-04-23T18:49:13.421Z</time></trkpt><trkpt lat="30.9460517" lon="-6.8782717"><ele>1121.0</ele><time>2026-04-23T18:49:14.421Z</time></trkpt><trkpt lat="30.94587" lon="-6.87848"><ele>1118.5</ele><time>2026-04-23T18:49:15.421Z</time></trkpt><trkpt lat="30.9456817" lon="-6.8786833"><ele>1116.0</ele><time>2026-04-23T18:49:16.421Z</time></trkpt><trkpt lat="30.9454867" lon="-6.8788867"><ele>1116.0</ele><time>2026-04-23T18:49:17.421Z</time></trkpt><trkpt lat="30.9453017" lon="-6.8790883"><ele>1116.0</ele><time>2026-04-23T18:49:18.421Z</time></trkpt><trkpt lat="30.9451317" lon="-6.8792783"><ele>1115.0</ele><time>2026-04-23T18:49:19.421Z</time></trkpt><trkpt lat="30.9449617" lon="-6.8794633"><ele>1114.0</ele><time>2026-04-23T18:49:20.421Z</time></trkpt><trkpt lat="30.9447883" lon="-6.8796483"><ele>1114.0</ele><time>2026-04-23T18:49:21.421Z</time></trkpt><trkpt lat="30.9446133" lon="-6.8798433"><ele>1114.0</ele><time>2026-04-23T18:49:22.421Z</time></trkpt><trkpt lat="30.944435" lon="-6.880045"><ele>1115.0</ele><time>2026-04-23T18:49:23.421Z</time></trkpt><trkpt lat="30.944255" lon="-6.8802433"><ele>1116.0</ele><time>2026-04-23T18:49:24.421Z</time></trkpt><trkpt lat="30.94408" lon="-6.8804467"><ele>1116.0</ele><time>2026-04-23T18:49:25.421Z</time></trkpt><trkpt lat="30.9438983" lon="-6.880645"><ele>1116.0</ele><time>2026-04-23T18:49:26.421Z</time></trkpt><trkpt lat="30.943725" lon="-6.8808367"><ele>1115.5</ele><time>2026-04-23T18:49:27.421Z</time></trkpt><trkpt lat="30.9435583" lon="-6.8810183"><ele>1115.0</ele><time>2026-04-23T18:49:28.421Z</time></trkpt><trkpt lat="30.9433933" lon="-6.8812033"><ele>1115.0</ele><time>2026-04-23T18:49:29.421Z</time></trkpt><trkpt lat="30.94323" lon="-6.8813867"><ele>1115.0</ele><time>2026-04-23T18:49:30.421Z</time></trkpt><trkpt lat="30.94307" lon="-6.881565"><ele>1115.0</ele><time>2026-04-23T18:49:31.421Z</time></trkpt><trkpt lat="30.9429183" lon="-6.8817317"><ele>1115.0</ele><time>2026-04-23T18:49:32.421Z</time></trkpt><trkpt lat="30.9427717" lon="-6.8818917"><ele>1115.0</ele><time>2026-04-23T18:49:33.421Z</time></trkpt><trkpt lat="30.9426283" lon="-6.8820467"><ele>1115.0</ele><time>2026-04-23T18:49:34.421Z</time></trkpt><trkpt lat="30.9424933" lon="-6.8822"><ele>1115.0</ele><time>2026-04-23T18:49:35.421Z</time></trkpt><trkpt lat="30.9423617" lon="-6.8823483"><ele>1115.0</ele><time>2026-04-23T18:49:36.422Z</time></trkpt><trkpt lat="30.94223" lon="-6.8825"><ele>1115.0</ele><time>2026-04-23T18:49:37.421Z</time></trkpt><trkpt lat="30.9421017" lon="-6.8826433"><ele>1115.6666666666667</ele><time>2026-04-23T18:49:38.421Z</time></trkpt><trkpt lat="30.9419733" lon="-6.8827867"><ele>1116.3333333333333</ele><time>2026-04-23T18:49:39.421Z</time></trkpt><trkpt lat="30.9418433" lon="-6.88293"><ele>1117.0</ele><time>2026-04-23T18:49:40.422Z</time></trkpt><trkpt lat="30.9417183" lon="-6.88307"><ele>1117.0</ele><time>2026-04-23T18:49:41.421Z</time></trkpt><trkpt lat="30.9415883" lon="-6.88321"><ele>1117.0</ele><time>2026-04-23T18:49:42.421Z</time></trkpt><trkpt lat="30.9414617" lon="-6.8833483"><ele>1117.0</ele><time>2026-04-23T18:49:43.421Z</time></trkpt><trkpt lat="30.9413333" lon="-6.8834917"><ele>1116.6666666666665</ele><time>2026-04-23T18:49:44.421Z</time></trkpt><trkpt lat="30.9412017" lon="-6.883635"><ele>1116.3333333333333</ele><time>2026-04-23T18:49:45.421Z</time></trkpt><trkpt lat="30.9410683" lon="-6.883775"><ele>1116.0</ele><time>2026-04-23T18:49:46.421Z</time></trkpt><trkpt lat="30.9409383" lon="-6.88392"><ele>1116.0</ele><time>2026-04-23T18:49:47.421Z</time></trkpt><trkpt lat="30.94081" lon="-6.88407"><ele>1116.0</ele><time>2026-04-23T18:49:48.421Z</time></trkpt><trkpt lat="30.9406867" lon="-6.88421"><ele>1116.0</ele><time>2026-04-23T18:49:49.421Z</time></trkpt><trkpt lat="30.940575" lon="-6.8843367"><ele>1116.75</ele><time>2026-04-23T18:49:50.421Z</time></trkpt><trkpt lat="30.9404667" lon="-6.884455"><ele>1117.5</ele><time>2026-04-23T18:49:51.421Z</time></trkpt><trkpt lat="30.9403617" lon="-6.8845783"><ele>1118.25</ele><time>2026-04-23T18:49:52.421Z</time></trkpt><trkpt lat="30.9402533" lon="-6.8846967"><ele>1119.0</ele><time>2026-04-23T18:49:53.422Z</time></trkpt><trkpt lat="30.9401483" lon="-6.8848167"><ele>1118.5</ele><time>2026-04-23T18:49:54.421Z</time></trkpt><trkpt lat="30.94004" lon="-6.8849317"><ele>1118.0</ele><time>2026-04-23T18:49:55.422Z</time></trkpt><trkpt lat="30.939935" lon="-6.885045"><ele>1117.5</ele><time>2026-04-23T18:49:56.421Z</time></trkpt><trkpt lat="30.9398333" lon="-6.8851517"><ele>1117.0</ele><time>2026-04-23T18:49:57.421Z</time></trkpt><trkpt lat="30.9397417" lon="-6.88526"><ele>1117.0</ele><time>2026-04-23T18:49:58.421Z</time></trkpt><trkpt lat="30.9396467" lon="-6.8853617"><ele>1117.0</ele><time>2026-04-23T18:49:59.421Z</time></trkpt><trkpt lat="30.9395567" lon="-6.8854667"><ele>1117.0</ele><time>2026-04-23T18:50:00.421Z</time></trkpt><trkpt lat="30.9394583" lon="-6.885565"><ele>1117.0</ele><time>2026-04-23T18:50:01.421Z</time></trkpt><trkpt lat="30.9393533" lon="-6.885655"><ele>1117.0</ele><time>2026-04-23T18:50:02.421Z</time></trkpt><trkpt lat="30.9392467" lon="-6.8857167"><ele>1117.0</ele><time>2026-04-23T18:50:03.421Z</time></trkpt><trkpt lat="30.9391367" lon="-6.88576"><ele>1117.0</ele><time>2026-04-23T18:50:04.421Z</time></trkpt><trkpt lat="30.9390217" lon="-6.8858017"><ele>1117.0</ele><time>2026-04-23T18:50:05.422Z</time></trkpt><trkpt lat="30.938905" lon="-6.88585"><ele>1116.75</ele><time>2026-04-23T18:50:06.42Z</time></trkpt><trkpt lat="30.9387983" lon="-6.88592"><ele>1116.5</ele><time>2026-04-23T18:50:07.42Z</time></trkpt><trkpt lat="30.9387083" lon="-6.8860133"><ele>1116.25</ele><time>2026-04-23T18:50:08.42Z</time></trkpt><trkpt lat="30.9386133" lon="-6.886125"><ele>1116.0</ele><time>2026-04-23T18:50:09.42Z</time></trkpt><trkpt lat="30.93852" lon="-6.8862517"><ele>1116.0</ele><time>2026-04-23T18:50:10.42Z</time></trkpt><trkpt lat="30.93843" lon="-6.8863833"><ele>1116.0</ele><time>2026-04-23T18:50:11.42Z</time></trkpt><trkpt lat="30.9383533" lon="-6.8865183"><ele>1116.0</ele><time>2026-04-23T18:50:12.42Z</time></trkpt><trkpt lat="30.93829" lon="-6.8866533"><ele>1116.0</ele><time>2026-04-23T18:50:13.42Z</time></trkpt><trkpt lat="30.9382317" lon="-6.8867783"><ele>1117.0</ele><time>2026-04-23T18:50:14.42Z</time></trkpt><trkpt lat="30.93817" lon="-6.886895"><ele>1118.0</ele><time>2026-04-23T18:50:15.42Z</time></trkpt><trkpt lat="30.938105" lon="-6.8870167"><ele>1119.0</ele><time>2026-04-23T18:50:16.42Z</time></trkpt><trkpt lat="30.938035" lon="-6.88713"><ele>1120.0</ele><time>2026-04-23T18:50:17.421Z</time></trkpt><trkpt lat="30.93795" lon="-6.8872367"><ele>1120.0</ele><time>2026-04-23T18:50:18.42Z</time></trkpt><trkpt lat="30.9378483" lon="-6.88735"><ele>1120.0</ele><time>2026-04-23T18:50:19.42Z</time></trkpt><trkpt lat="30.9377483" lon="-6.8874617"><ele>1120.0</ele><time>2026-04-23T18:50:20.42Z</time></trkpt><trkpt lat="30.93765" lon="-6.8875683"><ele>1120.0</ele><time>2026-04-23T18:50:21.42Z</time></trkpt><trkpt lat="30.9375567" lon="-6.8876733"><ele>1118.75</ele><time>2026-04-23T18:50:22.42Z</time></trkpt><trkpt lat="30.9374583" lon="-6.8877867"><ele>1117.5</ele><time>2026-04-23T18:50:23.42Z</time></trkpt><trkpt lat="30.9373567" lon="-6.8879"><ele>1116.25</ele><time>2026-04-23T18:50:24.42Z</time></trkpt><trkpt lat="30.9372433" lon="-6.8880233"><ele>1115.0</ele><time>2026-04-23T18:50:25.42Z</time></trkpt><trkpt lat="30.93712" lon="-6.88816"><ele>1115.0</ele><time>2026-04-23T18:50:26.42Z</time></trkpt><trkpt lat="30.93699" lon="-6.8882983"><ele>1115.0</ele><time>2026-04-23T18:50:27.42Z</time></trkpt><trkpt lat="30.9368567" lon="-6.8884467"><ele>1115.0</ele><time>2026-04-23T18:50:28.42Z</time></trkpt><trkpt lat="30.9367267" lon="-6.888585"><ele>1115.0</ele><time>2026-04-23T18:50:29.42Z</time></trkpt><trkpt lat="30.9366067" lon="-6.8887217"><ele>1115.0</ele><time>2026-04-23T18:50:30.42Z</time></trkpt><trkpt lat="30.936495" lon="-6.8888517"><ele>1115.0</ele><time>2026-04-23T18:50:31.42Z</time></trkpt><trkpt lat="30.93639" lon="-6.8889767"><ele>1115.0</ele><time>2026-04-23T18:50:32.42Z</time></trkpt><trkpt lat="30.9362783" lon="-6.889095"><ele>1115.0</ele><time>2026-04-23T18:50:33.42Z</time></trkpt><trkpt lat="30.93615" lon="-6.889225"><ele>1115.0</ele><time>2026-04-23T18:50:34.42Z</time></trkpt><trkpt lat="30.93601" lon="-6.8893617"><ele>1116.5</ele><time>2026-04-23T18:50:35.42Z</time></trkpt><trkpt lat="30.9358783" lon="-6.8894783"><ele>1118.0</ele><time>2026-04-23T18:50:36.42Z</time></trkpt><trkpt lat="30.9357567" lon="-6.88957"><ele>1119.5</ele><time>2026-04-23T18:50:37.42Z</time></trkpt><trkpt lat="30.9356367" lon="-6.8896483"><ele>1121.0</ele><time>2026-04-23T18:50:38.42Z</time></trkpt><trkpt lat="30.9355" lon="-6.8897233"><ele>1121.0</ele><time>2026-04-23T18:50:39.42Z</time></trkpt><trkpt lat="30.9353483" lon="-6.889795"><ele>1121.0</ele><time>2026-04-23T18:50:40.42Z</time></trkpt><trkpt lat="30.9351733" lon="-6.8898583"><ele>1121.0</ele><time>2026-04-23T18:50:41.42Z</time></trkpt><trkpt lat="30.935" lon="-6.88991"><ele>1121.3333333333335</ele><time>2026-04-23T18:50:42.42Z</time></trkpt><trkpt lat="30.9348267" lon="-6.889955"><ele>1121.6666666666667</ele><time>2026-04-23T18:50:43.42Z</time></trkpt><trkpt lat="30.9346483" lon="-6.8899783"><ele>1122.0</ele><time>2026-04-23T18:50:44.42Z</time></trkpt><trkpt lat="30.9344533" lon="-6.8899933"><ele>1122.0</ele><time>2026-04-23T18:50:45.42Z</time></trkpt><trkpt lat="30.934255" lon="-6.8899967"><ele>1122.0</ele><time>2026-04-23T18:50:46.42Z</time></trkpt><trkpt lat="30.934065" lon="-6.8899917"><ele>1122.0</ele><time>2026-04-23T18:50:47.42Z</time></trkpt><trkpt lat="30.93389" lon="-6.88999"><ele>1121.6666666666667</ele><time>2026-04-23T18:50:48.42Z</time></trkpt><trkpt lat="30.9337183" lon="-6.8899867"><ele>1121.3333333333335</ele><time>2026-04-23T18:50:49.42Z</time></trkpt><trkpt lat="30.9335583" lon="-6.8899867"><ele>1121.0</ele><time>2026-04-23T18:50:50.42Z</time></trkpt><trkpt lat="30.9334117" lon="-6.88998"><ele>1120.75</ele><time>2026-04-23T18:50:51.42Z</time></trkpt><trkpt lat="30.9332767" lon="-6.8899767"><ele>1120.5</ele><time>2026-04-23T18:50:52.42Z</time></trkpt><trkpt lat="30.93315" lon="-6.8899767"><ele>1120.25</ele><time>2026-04-23T18:50:53.42Z</time></trkpt><trkpt lat="30.9330333" lon="-6.8899767"><ele>1120.0</ele><time>2026-04-23T18:50:54.42Z</time></trkpt><trkpt lat="30.9329367" lon="-6.88998"><ele>1120.0</ele><time>2026-04-23T18:50:55.42Z</time></trkpt><trkpt lat="30.9328583" lon="-6.8899917"><ele>1120.0</ele><time>2026-04-23T18:50:56.42Z</time></trkpt><trkpt lat="30.93279" lon="-6.890005"><ele>1120.0</ele><time>2026-04-23T18:50:57.42Z</time></trkpt><trkpt lat="30.932705" lon="-6.8900133"><ele>1120.0</ele><time>2026-04-23T18:50:59.42Z</time></trkpt><trkpt lat="30.93262" lon="-6.890015"><ele>1120.0</ele><time>2026-04-23T18:51:15.421Z</time></trkpt><trkpt lat="30.9325133" lon="-6.8899933"><ele>1120.0</ele><time>2026-04-23T18:51:17.42Z</time></trkpt><trkpt lat="30.9324367" lon="-6.8899833"><ele>1120.8</ele><time>2026-04-23T18:51:18.42Z</time></trkpt><trkpt lat="30.9323433" lon="-6.8899783"><ele>1121.6</ele><time>2026-04-23T18:51:19.42Z</time></trkpt><trkpt lat="30.9322367" lon="-6.8899733"><ele>1122.4</ele><time>2026-04-23T18:51:20.42Z</time></trkpt><trkpt lat="30.9321133" lon="-6.889975"><ele>1123.2</ele><time>2026-04-23T18:51:21.42Z</time></trkpt><trkpt lat="30.9319983" lon="-6.8899733"><ele>1124.0</ele><time>2026-04-23T18:51:22.42Z</time></trkpt><trkpt lat="30.9319" lon="-6.88997"><ele>1124.0</ele><time>2026-04-23T18:51:23.42Z</time></trkpt><trkpt lat="30.931815" lon="-6.8899583"><ele>1124.0</ele><time>2026-04-23T18:51:24.42Z</time></trkpt><trkpt lat="30.93174" lon="-6.8899217"><ele>1124.0</ele><time>2026-04-23T18:51:25.42Z</time></trkpt><trkpt lat="30.93167" lon="-6.88982"><ele>1124.0</ele><time>2026-04-23T18:51:27.42Z</time></trkpt><trkpt lat="30.93165" lon="-6.8897383"><ele>1124.0</ele><time>2026-04-23T18:51:29.42Z</time></trkpt><trkpt lat="30.93162" lon="-6.8896667"><ele>1124.0</ele><time>2026-04-23T18:51:32.42Z</time></trkpt><trkpt lat="30.9316117" lon="-6.8895783"><ele>1124.7142857142858</ele><time>2026-04-23T18:51:36.42Z</time></trkpt><trkpt lat="30.9315467" lon="-6.8895417"><ele>1125.4285714285716</ele><time>2026-04-23T18:57:08.419Z</time></trkpt><trkpt lat="30.931475" lon="-6.889565"><ele>1126.142857142857</ele><time>2026-04-23T18:57:12.419Z</time></trkpt><trkpt lat="30.9314083" lon="-6.8895917"><ele>1126.857142857143</ele><time>2026-04-23T18:57:15.419Z</time></trkpt><trkpt lat="30.931365" lon="-6.8896517"><ele>1127.5714285714284</ele><time>2026-04-23T18:57:18.419Z</time></trkpt><trkpt lat="30.9313217" lon="-6.8897133"><ele>1128.2857142857142</ele><time>2026-04-23T18:57:21.42Z</time></trkpt><trkpt lat="30.9312767" lon="-6.889775"><ele>1129.0</ele><time>2026-04-23T18:57:24.419Z</time></trkpt><trkpt lat="30.9312267" lon="-6.8898217"><ele>1129.0</ele><time>2026-04-23T19:01:26.418Z</time></trkpt><trkpt lat="30.93114" lon="-6.8898867"><ele>1129.0</ele><time>2026-04-23T19:01:37.418Z</time></trkpt><trkpt lat="30.9310267" lon="-6.88992"><ele>1129.0</ele><time>2026-04-23T19:01:39.418Z</time></trkpt><trkpt lat="30.930955" lon="-6.889925"><ele>1129.0</ele><time>2026-04-23T19:01:40.418Z</time></trkpt><trkpt lat="30.93087" lon="-6.8899283"><ele>1129.0</ele><time>2026-04-23T19:01:41.418Z</time></trkpt><trkpt lat="30.9307783" lon="-6.8899283"><ele>1129.2</ele><time>2026-04-23T19:01:42.418Z</time></trkpt><trkpt lat="30.930695" lon="-6.8899233"><ele>1129.4</ele><time>2026-04-23T19:01:43.418Z</time></trkpt><trkpt lat="30.93062" lon="-6.8899233"><ele>1129.6</ele><time>2026-04-23T19:01:44.418Z</time></trkpt><trkpt lat="30.9305017" lon="-6.8899233"><ele>1129.8</ele><time>2026-04-23T19:01:46.418Z</time></trkpt><trkpt lat="30.930405" lon="-6.8899233"><ele>1130.0</ele><time>2026-04-23T19:01:48.418Z</time></trkpt><trkpt lat="30.9302883" lon="-6.8899217"><ele>1130.0</ele><time>2026-04-23T19:01:50.418Z</time></trkpt><trkpt lat="30.9302217" lon="-6.8899233"><ele>1130.0</ele><time>2026-04-23T19:01:51.418Z</time></trkpt><trkpt lat="30.9301483" lon="-6.8899233"><ele>1130.0</ele><time>2026-04-23T19:01:52.418Z</time></trkpt><trkpt lat="30.9300633" lon="-6.88992"><ele>1130.0</ele><time>2026-04-23T19:01:53.418Z</time></trkpt><trkpt lat="30.9299783" lon="-6.889915"><ele>1130.0</ele><time>2026-04-23T19:01:54.418Z</time></trkpt><trkpt lat="30.9298933" lon="-6.88991"><ele>1130.0</ele><time>2026-04-23T19:01:55.418Z</time></trkpt><trkpt lat="30.92981" lon="-6.8899033"><ele>1129.8333333333335</ele><time>2026-04-23T19:01:56.418Z</time></trkpt><trkpt lat="30.9297267" lon="-6.8899"><ele>1129.6666666666667</ele><time>2026-04-23T19:01:57.418Z</time></trkpt><trkpt lat="30.9296383" lon="-6.8899"><ele>1129.5</ele><time>2026-04-23T19:01:58.419Z</time></trkpt><trkpt lat="30.9295467" lon="-6.8898983"><ele>1129.3333333333333</ele><time>2026-04-23T19:01:59.418Z</time></trkpt><trkpt lat="30.92946" lon="-6.8898983"><ele>1129.1666666666665</ele><time>2026-04-23T19:02:00.418Z</time></trkpt><trkpt lat="30.92937" lon="-6.8899017"><ele>1129.0</ele><time>2026-04-23T19:02:01.418Z</time></trkpt><trkpt lat="30.9292783" lon="-6.8899033"><ele>1128.8</ele><time>2026-04-23T19:02:02.418Z</time></trkpt><trkpt lat="30.9291833" lon="-6.8899033"><ele>1128.6000000000001</ele><time>2026-04-23T19:02:03.418Z</time></trkpt><trkpt lat="30.9290883" lon="-6.8898983"><ele>1128.4</ele><time>2026-04-23T19:02:04.418Z</time></trkpt><trkpt lat="30.9289933" lon="-6.8898983"><ele>1128.2</ele><time>2026-04-23T19:02:05.418Z</time></trkpt><trkpt lat="30.9288967" lon="-6.8898983"><ele>1128.0</ele><time>2026-04-23T19:02:06.418Z</time></trkpt><trkpt lat="30.9288033" lon="-6.8898983"><ele>1128.0</ele><time>2026-04-23T19:02:07.418Z</time></trkpt><trkpt lat="30.9287067" lon="-6.8898983"><ele>1128.0</ele><time>2026-04-23T19:02:08.418Z</time></trkpt><trkpt lat="30.92861" lon="-6.8898983"><ele>1128.0</ele><time>2026-04-23T19:02:09.418Z</time></trkpt><trkpt lat="30.9285083" lon="-6.8898983"><ele>1128.0</ele><time>2026-04-23T19:02:10.418Z</time></trkpt><trkpt lat="30.9284083" lon="-6.8899033"><ele>1128.0</ele><time>2026-04-23T19:02:11.418Z</time></trkpt><trkpt lat="30.9283067" lon="-6.889905"><ele>1128.2</ele><time>2026-04-23T19:02:12.418Z</time></trkpt><trkpt lat="30.9282083" lon="-6.8899067"><ele>1128.4</ele><time>2026-04-23T19:02:13.418Z</time></trkpt><trkpt lat="30.9281117" lon="-6.88991"><ele>1128.6000000000001</ele><time>2026-04-23T19:02:14.418Z</time></trkpt><trkpt lat="30.9280183" lon="-6.8899117"><ele>1128.8</ele><time>2026-04-23T19:02:15.418Z</time></trkpt><trkpt lat="30.9279267" lon="-6.8899167"><ele>1129.0</ele><time>2026-04-23T19:02:16.418Z</time></trkpt><trkpt lat="30.92784" lon="-6.8899183"><ele>1129.0</ele><time>2026-04-23T19:02:17.418Z</time></trkpt><trkpt lat="30.92775" lon="-6.8899267"><ele>1129.0</ele><time>2026-04-23T19:02:18.418Z</time></trkpt><trkpt lat="30.9276617" lon="-6.8899417"><ele>1129.0</ele><time>2026-04-23T19:02:19.418Z</time></trkpt><trkpt lat="30.9275783" lon="-6.8899633"><ele>1129.0</ele><time>2026-04-23T19:02:20.418Z</time></trkpt><trkpt lat="30.9275" lon="-6.8899967"><ele>1129.0</ele><time>2026-04-23T19:02:21.418Z</time></trkpt><trkpt lat="30.9274283" lon="-6.8900467"><ele>1129.0</ele><time>2026-04-23T19:02:22.418Z</time></trkpt><trkpt lat="30.9273617" lon="-6.89011"><ele>1129.0</ele><time>2026-04-23T19:02:23.418Z</time></trkpt><trkpt lat="30.9273067" lon="-6.8901817"><ele>1129.0</ele><time>2026-04-23T19:02:24.418Z</time></trkpt><trkpt lat="30.9272683" lon="-6.8902667"><ele>1129.0</ele><time>2026-04-23T19:02:25.418Z</time></trkpt><trkpt lat="30.927245" lon="-6.8903467"><ele>1129.0</ele><time>2026-04-23T19:02:26.418Z</time></trkpt><trkpt lat="30.9272317" lon="-6.890425"><ele>1129.0</ele><time>2026-04-23T19:02:27.418Z</time></trkpt><trkpt lat="30.9272367" lon="-6.8905083"><ele>1129.0</ele><time>2026-04-23T19:02:28.418Z</time></trkpt><trkpt lat="30.9272583" lon="-6.8905917"><ele>1129.0</ele><time>2026-04-23T19:02:29.418Z</time></trkpt><trkpt lat="30.9272883" lon="-6.8906867"><ele>1129.0</ele><time>2026-04-23T19:02:30.419Z</time></trkpt><trkpt lat="30.92732" lon="-6.8907783"><ele>1129.0</ele><time>2026-04-23T19:02:31.418Z</time></trkpt><trkpt lat="30.9273517" lon="-6.89087"><ele>1129.0</ele><time>2026-04-23T19:02:32.418Z</time></trkpt><trkpt lat="30.927385" lon="-6.8909633"><ele>1129.0</ele><time>2026-04-23T19:02:33.418Z</time></trkpt><trkpt lat="30.9274167" lon="-6.891055"><ele>1129.0</ele><time>2026-04-23T19:02:34.418Z</time></trkpt><trkpt lat="30.9274533" lon="-6.8911483"><ele>1129.0</ele><time>2026-04-23T19:02:35.418Z</time></trkpt><trkpt lat="30.9274933" lon="-6.8912433"><ele>1129.0</ele><time>2026-04-23T19:02:36.418Z</time></trkpt><trkpt lat="30.9275283" lon="-6.8913383"><ele>1129.0</ele><time>2026-04-23T19:02:37.418Z</time></trkpt><trkpt lat="30.9275717" lon="-6.8914283"><ele>1129.0</ele><time>2026-04-23T19:02:38.418Z</time></trkpt><trkpt lat="30.9276167" lon="-6.89152"><ele>1129.0</ele><time>2026-04-23T19:02:39.418Z</time></trkpt><trkpt lat="30.92766" lon="-6.89162"><ele>1129.0</ele><time>2026-04-23T19:02:40.418Z</time></trkpt><trkpt lat="30.92771" lon="-6.8917183"><ele>1129.0</ele><time>2026-04-23T19:02:41.418Z</time></trkpt><trkpt lat="30.9277583" lon="-6.8918117"><ele>1129.0</ele><time>2026-04-23T19:02:42.418Z</time></trkpt><trkpt lat="30.9278067" lon="-6.8919067"><ele>1129.0</ele><time>2026-04-23T19:02:43.418Z</time></trkpt><trkpt lat="30.927865" lon="-6.8920017"><ele>1129.0</ele><time>2026-04-23T19:02:44.418Z</time></trkpt><trkpt lat="30.9279333" lon="-6.8920933"><ele>1129.2</ele><time>2026-04-23T19:02:45.418Z</time></trkpt><trkpt lat="30.9279867" lon="-6.89219"><ele>1129.4</ele><time>2026-04-23T19:02:46.418Z</time></trkpt><trkpt lat="30.9280483" lon="-6.8922833"><ele>1129.6</ele><time>2026-04-23T19:02:47.418Z</time></trkpt><trkpt lat="30.9281117" lon="-6.8923783"><ele>1129.8</ele><time>2026-04-23T19:02:48.418Z</time></trkpt><trkpt lat="30.9281783" lon="-6.89247"><ele>1130.0</ele><time>2026-04-23T19:02:49.418Z</time></trkpt><trkpt lat="30.9282433" lon="-6.89257"><ele>1130.4</ele><time>2026-04-23T19:02:50.418Z</time></trkpt><trkpt lat="30.9283117" lon="-6.8926667"><ele>1130.8</ele><time>2026-04-23T19:02:51.418Z</time></trkpt><trkpt lat="30.928375" lon="-6.8927633"><ele>1131.2</ele><time>2026-04-23T19:02:52.418Z</time></trkpt><trkpt lat="30.9284383" lon="-6.8928617"><ele>1131.6</ele><time>2026-04-23T19:02:53.418Z</time></trkpt><trkpt lat="30.928505" lon="-6.892965"><ele>1132.0</ele><time>2026-04-23T19:02:54.418Z</time></trkpt><trkpt lat="30.9285717" lon="-6.893065"><ele>1131.6</ele><time>2026-04-23T19:02:55.418Z</time></trkpt><trkpt lat="30.928645" lon="-6.8931633"><ele>1131.2</ele><time>2026-04-23T19:02:56.418Z</time></trkpt><trkpt lat="30.92872" lon="-6.893265"><ele>1130.8</ele><time>2026-04-23T19:02:57.418Z</time></trkpt><trkpt lat="30.9287933" lon="-6.89336"><ele>1130.4</ele><time>2026-04-23T19:02:58.418Z</time></trkpt><trkpt lat="30.9288667" lon="-6.8934583"><ele>1130.0</ele><time>2026-04-23T19:02:59.418Z</time></trkpt><trkpt lat="30.928935" lon="-6.893555"><ele>1130.0</ele><time>2026-04-23T19:03:00.418Z</time></trkpt><trkpt lat="30.9290067" lon="-6.8936583"><ele>1130.0</ele><time>2026-04-23T19:03:01.418Z</time></trkpt><trkpt lat="30.9290717" lon="-6.8937683"><ele>1130.0</ele><time>2026-04-23T19:03:02.418Z</time></trkpt><trkpt lat="30.9291333" lon="-6.8938733"><ele>1130.0</ele><time>2026-04-23T19:03:03.418Z</time></trkpt><trkpt lat="30.9292033" lon="-6.8939817"><ele>1129.75</ele><time>2026-04-23T19:03:04.418Z</time></trkpt><trkpt lat="30.92926" lon="-6.8940967"><ele>1129.5</ele><time>2026-04-23T19:03:05.418Z</time></trkpt><trkpt lat="30.9293183" lon="-6.894215"><ele>1129.25</ele><time>2026-04-23T19:03:06.418Z</time></trkpt><trkpt lat="30.9293717" lon="-6.894335"><ele>1129.0</ele><time>2026-04-23T19:03:07.418Z</time></trkpt><trkpt lat="30.9294217" lon="-6.8944583"><ele>1128.5</ele><time>2026-04-23T19:03:08.418Z</time></trkpt><trkpt lat="30.9294717" lon="-6.894585"><ele>1128.0</ele><time>2026-04-23T19:03:09.418Z</time></trkpt><trkpt lat="30.9295283" lon="-6.8947133"><ele>1127.5</ele><time>2026-04-23T19:03:10.418Z</time></trkpt><trkpt lat="30.9295883" lon="-6.8948433"><ele>1127.0</ele><time>2026-04-23T19:03:11.419Z</time></trkpt><trkpt lat="30.9296517" lon="-6.8949733"><ele>1127.0</ele><time>2026-04-23T19:03:12.418Z</time></trkpt><trkpt lat="30.9297183" lon="-6.8951133"><ele>1127.0</ele><time>2026-04-23T19:03:13.418Z</time></trkpt><trkpt lat="30.9297783" lon="-6.8952517"><ele>1127.0</ele><time>2026-04-23T19:03:14.418Z</time></trkpt><trkpt lat="30.9298433" lon="-6.895395"><ele>1127.0</ele><time>2026-04-23T19:03:15.419Z</time></trkpt><trkpt lat="30.9299067" lon="-6.895535"><ele>1127.0</ele><time>2026-04-23T19:03:16.418Z</time></trkpt><trkpt lat="30.9299717" lon="-6.8956767"><ele>1127.0</ele><time>2026-04-23T19:03:17.418Z</time></trkpt><trkpt lat="30.9300367" lon="-6.8958233"><ele>1127.0</ele><time>2026-04-23T19:03:18.418Z</time></trkpt><trkpt lat="30.9300983" lon="-6.8959667"><ele>1127.0</ele><time>2026-04-23T19:03:19.418Z</time></trkpt><trkpt lat="30.9301617" lon="-6.896105"><ele>1127.0</ele><time>2026-04-23T19:03:20.418Z</time></trkpt><trkpt lat="30.93022" lon="-6.8962417"><ele>1127.0</ele><time>2026-04-23T19:03:21.418Z</time></trkpt><trkpt lat="30.93028" lon="-6.896375"><ele>1127.0</ele><time>2026-04-23T19:03:22.418Z</time></trkpt><trkpt lat="30.93034" lon="-6.89651"><ele>1127.0</ele><time>2026-04-23T19:03:23.418Z</time></trkpt><trkpt lat="30.9304" lon="-6.8966467"><ele>1126.75</ele><time>2026-04-23T19:03:24.418Z</time></trkpt><trkpt lat="30.9304617" lon="-6.8967883"><ele>1126.5</ele><time>2026-04-23T19:03:25.418Z</time></trkpt><trkpt lat="30.9305183" lon="-6.8969267"><ele>1126.25</ele><time>2026-04-23T19:03:26.418Z</time></trkpt><trkpt lat="30.93058" lon="-6.89707"><ele>1126.0</ele><time>2026-04-23T19:03:27.418Z</time></trkpt><trkpt lat="30.9306433" lon="-6.897215"><ele>1126.0</ele><time>2026-04-23T19:03:28.418Z</time></trkpt><trkpt lat="30.9307083" lon="-6.8973667"><ele>1126.0</ele><time>2026-04-23T19:03:29.418Z</time></trkpt><trkpt lat="30.9307717" lon="-6.8975167"><ele>1126.0</ele><time>2026-04-23T19:03:30.418Z</time></trkpt><trkpt lat="30.93084" lon="-6.897665"><ele>1126.0</ele><time>2026-04-23T19:03:31.418Z</time></trkpt><trkpt lat="30.9309083" lon="-6.8978167"><ele>1126.5</ele><time>2026-04-23T19:03:32.418Z</time></trkpt><trkpt lat="30.9309767" lon="-6.8979717"><ele>1127.0</ele><time>2026-04-23T19:03:33.419Z</time></trkpt><trkpt lat="30.9310433" lon="-6.898125"><ele>1127.5</ele><time>2026-04-23T19:03:34.418Z</time></trkpt><trkpt lat="30.9311117" lon="-6.8982833"><ele>1128.0</ele><time>2026-04-23T19:03:35.418Z</time></trkpt><trkpt lat="30.9311733" lon="-6.89843"><ele>1128.8</ele><time>2026-04-23T19:03:36.418Z</time></trkpt><trkpt lat="30.9312283" lon="-6.898565"><ele>1129.6</ele><time>2026-04-23T19:03:37.418Z</time></trkpt><trkpt lat="30.93128" lon="-6.8986783"><ele>1130.4</ele><time>2026-04-23T19:03:38.419Z</time></trkpt><trkpt lat="30.9313133" lon="-6.8987667"><ele>1131.2</ele><time>2026-04-23T19:03:39.418Z</time></trkpt><trkpt lat="30.9313483" lon="-6.8988567"><ele>1132.0</ele><time>2026-04-23T19:03:41.418Z</time></trkpt><trkpt lat="30.931355" lon="-6.8989483"><ele>1132.0</ele><time>2026-04-23T19:03:45.418Z</time></trkpt><trkpt lat="30.93129" lon="-6.8989567"><ele>1132.0</ele><time>2026-04-23T19:03:47.418Z</time></trkpt><trkpt lat="30.9311767" lon="-6.8989267"><ele>1132.0</ele><time>2026-04-23T19:03:49.418Z</time></trkpt><trkpt lat="30.9311133" lon="-6.8989383"><ele>1132.0</ele><time>2026-04-23T19:03:50.418Z</time></trkpt><trkpt lat="30.93105" lon="-6.8989583"><ele>1132.0</ele><time>2026-04-23T19:03:51.418Z</time></trkpt><trkpt lat="30.9309867" lon="-6.8989833"><ele>1132.0</ele><time>2026-04-23T19:03:52.418Z</time></trkpt><trkpt lat="30.9308633" lon="-6.8990183"><ele>1131.8333333333333</ele><time>2026-04-23T19:03:54.418Z</time></trkpt><trkpt lat="30.9307417" lon="-6.8990417"><ele>1131.6666666666665</ele><time>2026-04-23T19:03:56.418Z</time></trkpt><trkpt lat="30.9306767" lon="-6.899055"><ele>1131.5</ele><time>2026-04-23T19:03:57.418Z</time></trkpt><trkpt lat="30.9306133" lon="-6.8990633"><ele>1131.3333333333333</ele><time>2026-04-23T19:03:58.418Z</time></trkpt><trkpt lat="30.9305483" lon="-6.89907"><ele>1131.1666666666667</ele><time>2026-04-23T19:03:59.418Z</time></trkpt><trkpt lat="30.930435" lon="-6.899095"><ele>1131.0</ele><time>2026-04-23T19:04:01.418Z</time></trkpt><trkpt lat="30.93032" lon="-6.8991083"><ele>1131.0000000000002</ele><time>2026-04-23T19:04:03.418Z</time></trkpt><trkpt lat="30.9302567" lon="-6.8991267"><ele>1131.0</ele><time>2026-04-23T19:04:04.418Z</time></trkpt><trkpt lat="30.9301933" lon="-6.8991383"><ele>1131.0</ele><time>2026-04-23T19:04:05.418Z</time></trkpt><trkpt lat="30.9301283" lon="-6.8991483"><ele>1131.0</ele><time>2026-04-23T19:04:06.418Z</time></trkpt><trkpt lat="30.9300583" lon="-6.8991633"><ele>1131.0</ele><time>2026-04-23T19:04:07.418Z</time></trkpt><trkpt lat="30.9299917" lon="-6.8991783"><ele>1131.0000000000002</ele><time>2026-04-23T19:04:08.418Z</time></trkpt><trkpt lat="30.92992" lon="-6.899195"><ele>1131.0</ele><time>2026-04-23T19:04:09.418Z</time></trkpt><trkpt lat="30.929815" lon="-6.8992183"><ele>1130.5</ele><time>2026-04-23T19:04:11.418Z</time></trkpt><trkpt lat="30.92972" lon="-6.8992383"><ele>1130.0</ele><time>2026-04-23T19:04:13.418Z</time></trkpt><trkpt lat="30.9296483" lon="-6.8992433"><ele>1129.5</ele><time>2026-04-23T19:04:16.418Z</time></trkpt><trkpt lat="30.9296133" lon="-6.899165"><ele>1129.0</ele><time>2026-04-23T19:04:19.418Z</time></trkpt><trkpt lat="30.9296183" lon="-6.8990917"><ele>1128.5</ele><time>2026-04-23T19:04:21.418Z</time></trkpt><trkpt lat="30.9296117" lon="-6.89899"><ele>1128.0</ele><time>2026-04-23T19:04:24.418Z</time></trkpt><trkpt lat="30.92968" lon="-6.89898"><ele>1128.0</ele><time>2026-04-23T19:08:25.417Z</time></trkpt><trkpt lat="30.9295917" lon="-6.89893"><ele>1128.0</ele><time>2026-04-23T19:09:24.417Z</time></trkpt><trkpt lat="30.9295267" lon="-6.89894"><ele>1128.0</ele><time>2026-04-23T19:11:02.417Z</time></trkpt><trkpt lat="30.92942" lon="-6.8989767"><ele>1128.0</ele><time>2026-04-23T19:14:53.416Z</time></trkpt><trkpt lat="30.9294883" lon="-6.8989017"><ele>1128.0</ele><time>2026-04-23T19:21:16.415Z</time></trkpt><trkpt lat="30.92957" lon="-6.8989483"><ele>1128.0</ele><time>2026-04-23T19:45:30.411Z</time></trkpt><trkpt lat="30.9295083" lon="-6.8988683"><ele>1128.0</ele><time>2026-04-23T19:54:01.41Z</time></trkpt><trkpt lat="30.9294133" lon="-6.8989217"><ele>1128.0</ele><time>2026-04-23T20:53:43.4Z</time></trkpt></trkseg><trkseg><trkpt lat="30.9296567" lon="-6.8991617"><ele>1128.2</ele><time>2026-04-24T09:07:39.424Z</time></trkpt><trkpt lat="30.9296467" lon="-6.8992933"><ele>1128.4</ele><time>2026-04-24T09:07:41.424Z</time></trkpt><trkpt lat="30.929645" lon="-6.8994083"><ele>1128.6000000000001</ele><time>2026-04-24T09:07:43.424Z</time></trkpt><trkpt lat="30.9296533" lon="-6.8995333"><ele>1128.8</ele><time>2026-04-24T09:07:45.424Z</time></trkpt><trkpt lat="30.92968" lon="-6.89965"><ele>1129.0</ele><time>2026-04-24T09:07:47.424Z</time></trkpt><trkpt lat="30.92972" lon="-6.8997783"><ele>1129.0</ele><time>2026-04-24T09:07:49.424Z</time></trkpt><trkpt lat="30.92977" lon="-6.899885"><ele>1129.0</ele><time>2026-04-24T09:07:51.424Z</time></trkpt><trkpt lat="30.9298183" lon="-6.8999683"><ele>1129.0</ele><time>2026-04-24T09:07:53.424Z</time></trkpt><trkpt lat="30.9298433" lon="-6.9000533"><ele>1129.0</ele><time>2026-04-24T09:07:55.424Z</time></trkpt><trkpt lat="30.92977" lon="-6.9001083"><ele>1129.0</ele><time>2026-04-24T09:07:58.424Z</time></trkpt><trkpt lat="30.929675" lon="-6.900115"><ele>1129.0</ele><time>2026-04-24T09:08:00.424Z</time></trkpt><trkpt lat="30.929565" lon="-6.9001067"><ele>1129.0</ele><time>2026-04-24T09:08:02.424Z</time></trkpt><trkpt lat="30.9294633" lon="-6.9000933"><ele>1129.0</ele><time>2026-04-24T09:08:04.424Z</time></trkpt><trkpt lat="30.9293617" lon="-6.9001033"><ele>1129.0</ele><time>2026-04-24T09:08:06.424Z</time></trkpt><trkpt lat="30.929255" lon="-6.9000983"><ele>1129.0</ele><time>2026-04-24T09:08:08.424Z</time></trkpt><trkpt lat="30.9291433" lon="-6.9000817"><ele>1128.6000000000001</ele><time>2026-04-24T09:08:10.424Z</time></trkpt><trkpt lat="30.9290483" lon="-6.900075"><ele>1128.2</ele><time>2026-04-24T09:08:12.424Z</time></trkpt><trkpt lat="30.9289483" lon="-6.9000617"><ele>1127.8000000000002</ele><time>2026-04-24T09:08:14.424Z</time></trkpt><trkpt lat="30.9288517" lon="-6.9000483"><ele>1127.4</ele><time>2026-04-24T09:08:16.424Z</time></trkpt><trkpt lat="30.9287517" lon="-6.9000383"><ele>1127.0</ele><time>2026-04-24T09:08:18.424Z</time></trkpt><trkpt lat="30.9286483" lon="-6.9000217"><ele>1127.0</ele><time>2026-04-24T09:08:20.424Z</time></trkpt><trkpt lat="30.928545" lon="-6.9000233"><ele>1127.0</ele><time>2026-04-24T09:08:22.424Z</time></trkpt><trkpt lat="30.92844" lon="-6.90001"><ele>1127.0</ele><time>2026-04-24T09:08:24.424Z</time></trkpt><trkpt lat="30.9283617" lon="-6.8999983"><ele>1127.0</ele><time>2026-04-24T09:08:26.424Z</time></trkpt><trkpt lat="30.92832" lon="-6.9000533"><ele>1127.0</ele><time>2026-04-24T09:08:30.424Z</time></trkpt><trkpt lat="30.9282983" lon="-6.9001533"><ele>1127.0</ele><time>2026-04-24T09:08:32.424Z</time></trkpt><trkpt lat="30.92826" lon="-6.9002933"><ele>1126.8</ele><time>2026-04-24T09:08:34.424Z</time></trkpt><trkpt lat="30.9282267" lon="-6.90039"><ele>1126.6</ele><time>2026-04-24T09:08:35.424Z</time></trkpt><trkpt lat="30.9282067" lon="-6.9004817"><ele>1126.3999999999999</ele><time>2026-04-24T09:08:36.424Z</time></trkpt><trkpt lat="30.9281883" lon="-6.9005817"><ele>1126.2</ele><time>2026-04-24T09:08:37.424Z</time></trkpt><trkpt lat="30.92816" lon="-6.9006967"><ele>1126.0</ele><time>2026-04-24T09:08:38.424Z</time></trkpt><trkpt lat="30.9281333" lon="-6.9008083"><ele>1126.2</ele><time>2026-04-24T09:08:39.424Z</time></trkpt><trkpt lat="30.9281133" lon="-6.9009283"><ele>1126.3999999999999</ele><time>2026-04-24T09:08:40.424Z</time></trkpt><trkpt lat="30.92808" lon="-6.9010417"><ele>1126.6</ele><time>2026-04-24T09:08:41.424Z</time></trkpt><trkpt lat="30.9280517" lon="-6.9011517"><ele>1126.8</ele><time>2026-04-24T09:08:42.424Z</time></trkpt><trkpt lat="30.9280267" lon="-6.901265"><ele>1127.0</ele><time>2026-04-24T09:08:43.424Z</time></trkpt><trkpt lat="30.9279983" lon="-6.9013733"><ele>1127.0</ele><time>2026-04-24T09:08:44.424Z</time></trkpt><trkpt lat="30.9279733" lon="-6.901475"><ele>1127.0</ele><time>2026-04-24T09:08:45.424Z</time></trkpt><trkpt lat="30.9279583" lon="-6.9015767"><ele>1127.0</ele><time>2026-04-24T09:08:46.424Z</time></trkpt><trkpt lat="30.92794" lon="-6.9016783"><ele>1127.0</ele><time>2026-04-24T09:08:47.424Z</time></trkpt><trkpt lat="30.927905" lon="-6.90178"><ele>1127.0</ele><time>2026-04-24T09:08:48.424Z</time></trkpt><trkpt lat="30.9278733" lon="-6.90188"><ele>1128.0</ele><time>2026-04-24T09:08:49.424Z</time></trkpt><trkpt lat="30.9278383" lon="-6.90197"><ele>1129.0</ele><time>2026-04-24T09:08:50.424Z</time></trkpt><trkpt lat="30.9278033" lon="-6.9020583"><ele>1130.0</ele><time>2026-04-24T09:08:51.424Z</time></trkpt><trkpt lat="30.9277683" lon="-6.9021533"><ele>1131.0</ele><time>2026-04-24T09:08:52.424Z</time></trkpt><trkpt lat="30.927735" lon="-6.9022417"><ele>1132.0</ele><time>2026-04-24T09:08:53.424Z</time></trkpt><trkpt lat="30.9277083" lon="-6.9023283"><ele>1133.0</ele><time>2026-04-24T09:08:54.424Z</time></trkpt><trkpt lat="30.927685" lon="-6.9024167"><ele>1133.0</ele><time>2026-04-24T09:08:55.424Z</time></trkpt><trkpt lat="30.9276617" lon="-6.90251"><ele>1133.0</ele><time>2026-04-24T09:08:56.424Z</time></trkpt><trkpt lat="30.9276367" lon="-6.9026"><ele>1133.0</ele><time>2026-04-24T09:08:57.425Z</time></trkpt><trkpt lat="30.92762" lon="-6.9026917"><ele>1133.0</ele><time>2026-04-24T09:08:58.424Z</time></trkpt><trkpt lat="30.92759" lon="-6.9027733"><ele>1133.0</ele><time>2026-04-24T09:08:59.424Z</time></trkpt><trkpt lat="30.927565" lon="-6.902855"><ele>1133.0</ele><time>2026-04-24T09:09:00.424Z</time></trkpt><trkpt lat="30.9275417" lon="-6.9029417"><ele>1133.6</ele><time>2026-04-24T09:09:01.424Z</time></trkpt><trkpt lat="30.92752" lon="-6.9030267"><ele>1134.1999999999998</ele><time>2026-04-24T09:09:02.424Z</time></trkpt><trkpt lat="30.9275033" lon="-6.9031083"><ele>1134.8</ele><time>2026-04-24T09:09:03.424Z</time></trkpt><trkpt lat="30.9274717" lon="-6.9032483"><ele>1135.3999999999999</ele><time>2026-04-24T09:09:05.424Z</time></trkpt><trkpt lat="30.927455" lon="-6.90332"><ele>1136.0</ele><time>2026-04-24T09:09:06.424Z</time></trkpt><trkpt lat="30.9274117" lon="-6.9034433"><ele>1136.8333333333335</ele><time>2026-04-24T09:09:08.425Z</time></trkpt><trkpt lat="30.9273783" lon="-6.9035367"><ele>1137.6666666666667</ele><time>2026-04-24T09:09:10.424Z</time></trkpt><trkpt lat="30.9273633" lon="-6.9036133"><ele>1138.5</ele><time>2026-04-24T09:09:13.424Z</time></trkpt><trkpt lat="30.9273417" lon="-6.903685"><ele>1139.3333333333333</ele><time>2026-04-24T09:09:16.424Z</time></trkpt><trkpt lat="30.9273167" lon="-6.90377"><ele>1140.1666666666665</ele><time>2026-04-24T09:09:19.424Z</time></trkpt><trkpt lat="30.9272917" lon="-6.9038433"><ele>1141.0</ele><time>2026-04-24T09:09:21.424Z</time></trkpt><trkpt lat="30.9272633" lon="-6.9039583"><ele>1141.0</ele><time>2026-04-24T09:09:23.424Z</time></trkpt><trkpt lat="30.9272483" lon="-6.9040383"><ele>1141.0</ele><time>2026-04-24T09:09:24.424Z</time></trkpt><trkpt lat="30.9272267" lon="-6.904135"><ele>1141.0</ele><time>2026-04-24T09:09:25.424Z</time></trkpt><trkpt lat="30.9271933" lon="-6.9042483"><ele>1141.0</ele><time>2026-04-24T09:09:26.424Z</time></trkpt><trkpt lat="30.92716" lon="-6.9043667"><ele>1141.0</ele><time>2026-04-24T09:09:27.424Z</time></trkpt><trkpt lat="30.9271383" lon="-6.9045"><ele>1141.5</ele><time>2026-04-24T09:09:28.424Z</time></trkpt><trkpt lat="30.927115" lon="-6.9046267"><ele>1142.0</ele><time>2026-04-24T09:09:29.424Z</time></trkpt><trkpt lat="30.927075" lon="-6.9047583"><ele>1142.5</ele><time>2026-04-24T09:09:30.424Z</time></trkpt><trkpt lat="30.92704" lon="-6.904885"><ele>1143.0</ele><time>2026-04-24T09:09:31.424Z</time></trkpt><trkpt lat="30.9270017" lon="-6.905015"><ele>1142.75</ele><time>2026-04-24T09:09:32.424Z</time></trkpt><trkpt lat="30.9269717" lon="-6.9051433"><ele>1142.5</ele><time>2026-04-24T09:09:33.424Z</time></trkpt><trkpt lat="30.92694" lon="-6.9052733"><ele>1142.25</ele><time>2026-04-24T09:09:34.425Z</time></trkpt><trkpt lat="30.92691" lon="-6.90541"><ele>1142.0</ele><time>2026-04-24T09:09:35.424Z</time></trkpt><trkpt lat="30.9268667" lon="-6.9055417"><ele>1142.0</ele><time>2026-04-24T09:09:36.424Z</time></trkpt><trkpt lat="30.92682" lon="-6.90566"><ele>1142.0</ele><time>2026-04-24T09:09:37.424Z</time></trkpt><trkpt lat="30.9267767" lon="-6.90579"><ele>1142.0</ele><time>2026-04-24T09:09:38.425Z</time></trkpt><trkpt lat="30.9267517" lon="-6.905925"><ele>1142.0</ele><time>2026-04-24T09:09:39.425Z</time></trkpt><trkpt lat="30.9267233" lon="-6.9060567"><ele>1141.2</ele><time>2026-04-24T09:09:40.424Z</time></trkpt><trkpt lat="30.9266967" lon="-6.9061933"><ele>1140.4</ele><time>2026-04-24T09:09:41.424Z</time></trkpt><trkpt lat="30.9266633" lon="-6.9063117"><ele>1139.6</ele><time>2026-04-24T09:09:42.424Z</time></trkpt><trkpt lat="30.926635" lon="-6.90644"><ele>1138.8</ele><time>2026-04-24T09:09:43.424Z</time></trkpt><trkpt lat="30.9266133" lon="-6.9065583"><ele>1138.0</ele><time>2026-04-24T09:09:44.424Z</time></trkpt><trkpt lat="30.92658" lon="-6.90668"><ele>1137.8</ele><time>2026-04-24T09:09:45.424Z</time></trkpt><trkpt lat="30.9265433" lon="-6.9068033"><ele>1137.6</ele><time>2026-04-24T09:09:46.424Z</time></trkpt><trkpt lat="30.9265033" lon="-6.90692"><ele>1137.4</ele><time>2026-04-24T09:09:47.424Z</time></trkpt><trkpt lat="30.9264633" lon="-6.907035"><ele>1137.2</ele><time>2026-04-24T09:09:48.424Z</time></trkpt><trkpt lat="30.926425" lon="-6.907155"><ele>1137.0</ele><time>2026-04-24T09:09:49.424Z</time></trkpt><trkpt lat="30.9263883" lon="-6.907285"><ele>1137.0</ele><time>2026-04-24T09:09:50.424Z</time></trkpt><trkpt lat="30.9263567" lon="-6.9074117"><ele>1137.0</ele><time>2026-04-24T09:09:51.424Z</time></trkpt><trkpt lat="30.926325" lon="-6.9075333"><ele>1137.0</ele><time>2026-04-24T09:09:52.424Z</time></trkpt><trkpt lat="30.9263033" lon="-6.9076583"><ele>1137.0</ele><time>2026-04-24T09:09:53.424Z</time></trkpt><trkpt lat="30.926275" lon="-6.9077867"><ele>1137.0</ele><time>2026-04-24T09:09:54.424Z</time></trkpt><trkpt lat="30.926245" lon="-6.9079067"><ele>1136.6</ele><time>2026-04-24T09:09:55.424Z</time></trkpt><trkpt lat="30.9262117" lon="-6.908015"><ele>1136.2</ele><time>2026-04-24T09:09:56.424Z</time></trkpt><trkpt lat="30.9261717" lon="-6.9081183"><ele>1135.8</ele><time>2026-04-24T09:09:57.424Z</time></trkpt><trkpt lat="30.9261417" lon="-6.9082233"><ele>1135.4</ele><time>2026-04-24T09:09:58.424Z</time></trkpt><trkpt lat="30.9261167" lon="-6.9083333"><ele>1135.0</ele><time>2026-04-24T09:09:59.425Z</time></trkpt><trkpt lat="30.9260917" lon="-6.908445"><ele>1134.6</ele><time>2026-04-24T09:10:00.424Z</time></trkpt><trkpt lat="30.9260633" lon="-6.9085517"><ele>1134.2</ele><time>2026-04-24T09:10:01.425Z</time></trkpt><trkpt lat="30.926035" lon="-6.90866"><ele>1133.8</ele><time>2026-04-24T09:10:02.424Z</time></trkpt><trkpt lat="30.92601" lon="-6.90878"><ele>1133.4</ele><time>2026-04-24T09:10:03.424Z</time></trkpt><trkpt lat="30.9259817" lon="-6.9088983"><ele>1133.0</ele><time>2026-04-24T09:10:04.425Z</time></trkpt><trkpt lat="30.9259533" lon="-6.90901"><ele>1133.0</ele><time>2026-04-24T09:10:05.425Z</time></trkpt><trkpt lat="30.9259217" lon="-6.9091167"><ele>1133.0</ele><time>2026-04-24T09:10:06.424Z</time></trkpt><trkpt lat="30.925895" lon="-6.90923"><ele>1133.0</ele><time>2026-04-24T09:10:07.424Z</time></trkpt><trkpt lat="30.9258683" lon="-6.9093433"><ele>1133.0</ele><time>2026-04-24T09:10:08.424Z</time></trkpt><trkpt lat="30.9258383" lon="-6.9094567"><ele>1133.0</ele><time>2026-04-24T09:10:09.424Z</time></trkpt><trkpt lat="30.9258167" lon="-6.9095767"><ele>1133.6</ele><time>2026-04-24T09:10:10.424Z</time></trkpt><trkpt lat="30.9257933" lon="-6.9096933"><ele>1134.1999999999998</ele><time>2026-04-24T09:10:11.424Z</time></trkpt><trkpt lat="30.9257733" lon="-6.9098067"><ele>1134.8</ele><time>2026-04-24T09:10:12.424Z</time></trkpt><trkpt lat="30.9257583" lon="-6.90992"><ele>1135.3999999999999</ele><time>2026-04-24T09:10:13.424Z</time></trkpt><trkpt lat="30.9257417" lon="-6.9100317"><ele>1136.0</ele><time>2026-04-24T09:10:14.424Z</time></trkpt><trkpt lat="30.9257283" lon="-6.9101483"><ele>1136.0</ele><time>2026-04-24T09:10:15.424Z</time></trkpt><trkpt lat="30.9257217" lon="-6.9102583"><ele>1136.0</ele><time>2026-04-24T09:10:16.424Z</time></trkpt><trkpt lat="30.925715" lon="-6.910365"><ele>1136.0</ele><time>2026-04-24T09:10:17.424Z</time></trkpt><trkpt lat="30.9257083" lon="-6.9104583"><ele>1136.0</ele><time>2026-04-24T09:10:18.424Z</time></trkpt><trkpt lat="30.9257017" lon="-6.9105567"><ele>1136.0</ele><time>2026-04-24T09:10:19.424Z</time></trkpt><trkpt lat="30.925695" lon="-6.9106567"><ele>1136.0</ele><time>2026-04-24T09:10:20.424Z</time></trkpt><trkpt lat="30.9256867" lon="-6.9107567"><ele>1136.0</ele><time>2026-04-24T09:10:21.424Z</time></trkpt><trkpt lat="30.9256833" lon="-6.9108617"><ele>1136.0</ele><time>2026-04-24T09:10:22.424Z</time></trkpt><trkpt lat="30.925675" lon="-6.910965"><ele>1136.0</ele><time>2026-04-24T09:10:23.424Z</time></trkpt><trkpt lat="30.92567" lon="-6.91107"><ele>1136.0</ele><time>2026-04-24T09:10:24.424Z</time></trkpt><trkpt lat="30.9256617" lon="-6.9111783"><ele>1136.0</ele><time>2026-04-24T09:10:25.424Z</time></trkpt><trkpt lat="30.925645" lon="-6.9112867"><ele>1136.6</ele><time>2026-04-24T09:10:26.424Z</time></trkpt><trkpt lat="30.9256267" lon="-6.9113967"><ele>1137.1999999999998</ele><time>2026-04-24T09:10:27.424Z</time></trkpt><trkpt lat="30.9256" lon="-6.9115"><ele>1137.8000000000002</ele><time>2026-04-24T09:10:28.424Z</time></trkpt><trkpt lat="30.92556" lon="-6.9116"><ele>1138.4</ele><time>2026-04-24T09:10:29.424Z</time></trkpt><trkpt lat="30.9255183" lon="-6.9117033"><ele>1139.0</ele><time>2026-04-24T09:10:30.424Z</time></trkpt><trkpt lat="30.925475" lon="-6.911805"><ele>1139.6000000000001</ele><time>2026-04-24T09:10:31.424Z</time></trkpt><trkpt lat="30.9254333" lon="-6.9119083"><ele>1140.2</ele><time>2026-04-24T09:10:32.424Z</time></trkpt><trkpt lat="30.9253933" lon="-6.9120117"><ele>1140.8000000000002</ele><time>2026-04-24T09:10:33.424Z</time></trkpt><trkpt lat="30.925355" lon="-6.91211"><ele>1141.4</ele><time>2026-04-24T09:10:34.424Z</time></trkpt><trkpt lat="30.925315" lon="-6.912205"><ele>1142.0</ele><time>2026-04-24T09:10:35.424Z</time></trkpt><trkpt lat="30.9252783" lon="-6.9122933"><ele>1142.0</ele><time>2026-04-24T09:10:36.424Z</time></trkpt><trkpt lat="30.9252383" lon="-6.912375"><ele>1142.0</ele><time>2026-04-24T09:10:37.424Z</time></trkpt><trkpt lat="30.9252033" lon="-6.91246"><ele>1142.0</ele><time>2026-04-24T09:10:38.424Z</time></trkpt><trkpt lat="30.9251767" lon="-6.9125433"><ele>1142.0</ele><time>2026-04-24T09:10:39.424Z</time></trkpt><trkpt lat="30.9251483" lon="-6.9126267"><ele>1142.0</ele><time>2026-04-24T09:10:40.424Z</time></trkpt><trkpt lat="30.9251217" lon="-6.9127133"><ele>1142.0</ele><time>2026-04-24T09:10:41.425Z</time></trkpt><trkpt lat="30.925095" lon="-6.9128083"><ele>1142.0</ele><time>2026-04-24T09:10:42.424Z</time></trkpt><trkpt lat="30.9250683" lon="-6.912895"><ele>1142.0</ele><time>2026-04-24T09:10:43.424Z</time></trkpt><trkpt lat="30.9250483" lon="-6.9129683"><ele>1142.0</ele><time>2026-04-24T09:10:44.424Z</time></trkpt><trkpt lat="30.92503" lon="-6.9130517"><ele>1142.0</ele><time>2026-04-24T09:10:46.424Z</time></trkpt><trkpt lat="30.9250133" lon="-6.9132083"><ele>1142.0</ele><time>2026-04-24T09:10:57.424Z</time></trkpt><trkpt lat="30.9250833" lon="-6.91325"><ele>1142.0</ele><time>2026-04-24T09:11:02.424Z</time></trkpt><trkpt lat="30.9251483" lon="-6.9132533"><ele>1142.0</ele><time>2026-04-24T09:11:04.424Z</time></trkpt><trkpt lat="30.92523" lon="-6.9132733"><ele>1142.0</ele><time>2026-04-24T09:11:07.424Z</time></trkpt><trkpt lat="30.925305" lon="-6.9133183"><ele>1142.0</ele><time>2026-04-24T09:11:10.424Z</time></trkpt><trkpt lat="30.9253617" lon="-6.913375"><ele>1142.0</ele><time>2026-04-24T09:11:13.425Z</time></trkpt><trkpt lat="30.925415" lon="-6.9134283"><ele>1142.0</ele><time>2026-04-24T09:11:17.424Z</time></trkpt><trkpt lat="30.9254617" lon="-6.913485"><ele>1142.0</ele><time>2026-04-24T09:11:32.424Z</time></trkpt><trkpt lat="30.9254683" lon="-6.9135833"><ele>1142.142857142857</ele><time>2026-04-24T09:11:36.424Z</time></trkpt><trkpt lat="30.9255033" lon="-6.9136533"><ele>1142.2857142857142</ele><time>2026-04-24T09:11:41.424Z</time></trkpt><trkpt lat="30.9255667" lon="-6.9136817"><ele>1142.4285714285713</ele><time>2026-04-24T09:11:43.424Z</time></trkpt><trkpt lat="30.9256433" lon="-6.9137033"><ele>1142.5714285714284</ele><time>2026-04-24T09:11:46.424Z</time></trkpt><trkpt lat="30.9256467" lon="-6.9137767"><ele>1142.7142857142856</ele><time>2026-04-24T09:11:52.424Z</time></trkpt><trkpt lat="30.9255867" lon="-6.91373"><ele>1142.857142857143</ele><time>2026-04-24T09:11:55.424Z</time></trkpt><trkpt lat="30.9255217" lon="-6.9137133"><ele>1143.0</ele><time>2026-04-24T09:11:58.424Z</time></trkpt><trkpt lat="30.92546" lon="-6.91365"><ele>1143.0</ele><time>2026-04-24T09:12:02.424Z</time></trkpt><trkpt lat="30.9254117" lon="-6.9135317"><ele>1143.0</ele><time>2026-04-24T09:13:54.424Z</time></trkpt><trkpt lat="30.92539" lon="-6.91346"><ele>1143.0</ele><time>2026-04-24T09:13:59.424Z</time></trkpt><trkpt lat="30.92533" lon="-6.9134983"><ele>1143.0</ele><time>2026-04-24T09:14:04.424Z</time></trkpt><trkpt lat="30.9253917" lon="-6.9135267"><ele>1143.0</ele><time>2026-04-24T09:14:07.424Z</time></trkpt><trkpt lat="30.9254567" lon="-6.913475"><ele>1143.0</ele><time>2026-04-24T09:14:11.424Z</time></trkpt><trkpt lat="30.92542" lon="-6.9134133"><ele>1143.0</ele><time>2026-04-24T09:14:16.424Z</time></trkpt><trkpt lat="30.925365" lon="-6.9134617"><ele>1143.0</ele><time>2026-04-24T09:21:26.423Z</time></trkpt><trkpt lat="30.9252433" lon="-6.9135633"><ele>1143.0</ele><time>2026-04-24T09:49:10.419Z</time></trkpt><trkpt lat="30.9252683" lon="-6.9134633"><ele>1143.0</ele><time>2026-04-24T10:19:06.412Z</time></trkpt><trkpt lat="30.92527" lon="-6.913385"><ele>1143.0</ele><time>2026-04-24T10:31:09.409Z</time></trkpt><trkpt lat="30.925255" lon="-6.9133117"><ele>1143.0</ele><time>2026-04-24T10:31:12.409Z</time></trkpt><trkpt lat="30.9251667" lon="-6.9132983"><ele>1142.8333333333333</ele><time>2026-04-24T10:31:15.409Z</time></trkpt><trkpt lat="30.9250917" lon="-6.9132867"><ele>1142.6666666666667</ele><time>2026-04-24T10:31:17.409Z</time></trkpt><trkpt lat="30.925025" lon="-6.91326"><ele>1142.5</ele><time>2026-04-24T10:31:19.409Z</time></trkpt><trkpt lat="30.9249683" lon="-6.9133233"><ele>1142.3333333333335</ele><time>2026-04-24T10:31:26.409Z</time></trkpt><trkpt lat="30.9249633" lon="-6.9134417"><ele>1142.1666666666667</ele><time>2026-04-24T10:31:28.409Z</time></trkpt><trkpt lat="30.92495" lon="-6.91352"><ele>1142.0</ele><time>2026-04-24T10:31:29.409Z</time></trkpt><trkpt lat="30.9249267" lon="-6.91359"><ele>1142.0</ele><time>2026-04-24T10:31:30.409Z</time></trkpt><trkpt lat="30.92491" lon="-6.9136617"><ele>1142.0</ele><time>2026-04-24T10:31:31.409Z</time></trkpt><trkpt lat="30.9248967" lon="-6.9138"><ele>1142.0</ele><time>2026-04-24T10:31:33.409Z</time></trkpt><trkpt lat="30.9248767" lon="-6.9139117"><ele>1142.0</ele><time>2026-04-24T10:31:35.409Z</time></trkpt><trkpt lat="30.9248583" lon="-6.91401"><ele>1142.0</ele><time>2026-04-24T10:31:37.409Z</time></trkpt><trkpt lat="30.9248467" lon="-6.91411"><ele>1142.0</ele><time>2026-04-24T10:31:39.409Z</time></trkpt><trkpt lat="30.92485" lon="-6.9141967"><ele>1142.0</ele><time>2026-04-24T10:31:41.409Z</time></trkpt><trkpt lat="30.9248517" lon="-6.914355"><ele>1142.0</ele><time>2026-04-24T10:32:14.409Z</time></trkpt><trkpt lat="30.9248883" lon="-6.9144183"><ele>1142.0</ele><time>2026-04-24T10:32:15.409Z</time></trkpt><trkpt lat="30.9249333" lon="-6.9144867"><ele>1142.0</ele><time>2026-04-24T10:32:16.409Z</time></trkpt><trkpt lat="30.9249717" lon="-6.914555"><ele>1142.0</ele><time>2026-04-24T10:32:17.409Z</time></trkpt><trkpt lat="30.9250017" lon="-6.91463"><ele>1141.8333333333335</ele><time>2026-04-24T10:32:18.409Z</time></trkpt><trkpt lat="30.9250233" lon="-6.9147067"><ele>1141.6666666666667</ele><time>2026-04-24T10:32:19.409Z</time></trkpt><trkpt lat="30.9250367" lon="-6.91479"><ele>1141.5</ele><time>2026-04-24T10:32:20.409Z</time></trkpt><trkpt lat="30.9250433" lon="-6.9148767"><ele>1141.3333333333333</ele><time>2026-04-24T10:32:21.409Z</time></trkpt><trkpt lat="30.9250517" lon="-6.91497"><ele>1141.1666666666665</ele><time>2026-04-24T10:32:22.409Z</time></trkpt><trkpt lat="30.9250517" lon="-6.9150683"><ele>1141.0</ele><time>2026-04-24T10:32:23.409Z</time></trkpt><trkpt lat="30.9250483" lon="-6.9151633"><ele>1141.0</ele><time>2026-04-24T10:32:24.409Z</time></trkpt><trkpt lat="30.92504" lon="-6.9152633"><ele>1141.0</ele><time>2026-04-24T10:32:25.409Z</time></trkpt><trkpt lat="30.9250283" lon="-6.9153667"><ele>1141.0</ele><time>2026-04-24T10:32:26.409Z</time></trkpt><trkpt lat="30.9250183" lon="-6.9154717"><ele>1141.0</ele><time>2026-04-24T10:32:27.409Z</time></trkpt><trkpt lat="30.9250033" lon="-6.91558"><ele>1141.0</ele><time>2026-04-24T10:32:28.409Z</time></trkpt><trkpt lat="30.92499" lon="-6.91569"><ele>1141.0</ele><time>2026-04-24T10:32:29.409Z</time></trkpt><trkpt lat="30.9249733" lon="-6.9157917"><ele>1141.0</ele><time>2026-04-24T10:32:30.409Z</time></trkpt><trkpt lat="30.9249567" lon="-6.9158883"><ele>1141.0</ele><time>2026-04-24T10:32:31.409Z</time></trkpt><trkpt lat="30.9249417" lon="-6.9159883"><ele>1141.0</ele><time>2026-04-24T10:32:32.409Z</time></trkpt><trkpt lat="30.9249267" lon="-6.9160883"><ele>1141.0</ele><time>2026-04-24T10:32:33.409Z</time></trkpt><trkpt lat="30.9249083" lon="-6.916185"><ele>1141.0</ele><time>2026-04-24T10:32:34.41Z</time></trkpt><trkpt lat="30.9248867" lon="-6.9162783"><ele>1141.3333333333333</ele><time>2026-04-24T10:32:35.409Z</time></trkpt><trkpt lat="30.9248717" lon="-6.91638"><ele>1141.6666666666665</ele><time>2026-04-24T10:32:36.409Z</time></trkpt><trkpt lat="30.9248533" lon="-6.9164733"><ele>1142.0</ele><time>2026-04-24T10:32:37.409Z</time></trkpt><trkpt lat="30.9248267" lon="-6.916565"><ele>1142.3333333333333</ele><time>2026-04-24T10:32:38.409Z</time></trkpt><trkpt lat="30.92479" lon="-6.9166567"><ele>1142.6666666666667</ele><time>2026-04-24T10:32:39.409Z</time></trkpt><trkpt lat="30.9247433" lon="-6.9167467"><ele>1143.0</ele><time>2026-04-24T10:32:40.409Z</time></trkpt><trkpt lat="30.9246917" lon="-6.9168417"><ele>1143.0</ele><time>2026-04-24T10:32:41.409Z</time></trkpt><trkpt lat="30.9246317" lon="-6.9169333"><ele>1143.0</ele><time>2026-04-24T10:32:42.409Z</time></trkpt><trkpt lat="30.924575" lon="-6.91703"><ele>1143.0</ele><time>2026-04-24T10:32:43.409Z</time></trkpt><trkpt lat="30.9245067" lon="-6.917125"><ele>1143.0</ele><time>2026-04-24T10:32:44.409Z</time></trkpt><trkpt lat="30.9244383" lon="-6.9172183"><ele>1143.0</ele><time>2026-04-24T10:32:45.409Z</time></trkpt><trkpt lat="30.9243683" lon="-6.91731"><ele>1143.0</ele><time>2026-04-24T10:32:46.409Z</time></trkpt><trkpt lat="30.9242967" lon="-6.9173983"><ele>1143.0</ele><time>2026-04-24T10:32:47.409Z</time></trkpt><trkpt lat="30.9242283" lon="-6.9174867"><ele>1143.0</ele><time>2026-04-24T10:32:48.409Z</time></trkpt><trkpt lat="30.924165" lon="-6.9175667"><ele>1143.0</ele><time>2026-04-24T10:32:49.409Z</time></trkpt><trkpt lat="30.9241067" lon="-6.9176383"><ele>1143.0</ele><time>2026-04-24T10:32:50.409Z</time></trkpt><trkpt lat="30.9240483" lon="-6.917715"><ele>1142.8333333333333</ele><time>2026-04-24T10:32:51.409Z</time></trkpt><trkpt lat="30.9239917" lon="-6.9177917"><ele>1142.6666666666667</ele><time>2026-04-24T10:32:52.409Z</time></trkpt><trkpt lat="30.923945" lon="-6.9178667"><ele>1142.5</ele><time>2026-04-24T10:32:53.409Z</time></trkpt><trkpt lat="30.9238983" lon="-6.9179417"><ele>1142.3333333333335</ele><time>2026-04-24T10:32:54.409Z</time></trkpt><trkpt lat="30.9238533" lon="-6.9180133"><ele>1142.1666666666667</ele><time>2026-04-24T10:32:55.409Z</time></trkpt><trkpt lat="30.92381" lon="-6.9180883"><ele>1142.0</ele><time>2026-04-24T10:32:56.409Z</time></trkpt><trkpt lat="30.923765" lon="-6.91816"><ele>1142.0</ele><time>2026-04-24T10:32:57.409Z</time></trkpt><trkpt lat="30.9237217" lon="-6.9182317"><ele>1142.0</ele><time>2026-04-24T10:32:58.409Z</time></trkpt><trkpt lat="30.9236767" lon="-6.9183033"><ele>1142.0</ele><time>2026-04-24T10:32:59.409Z</time></trkpt><trkpt lat="30.9236317" lon="-6.9183717"><ele>1142.0</ele><time>2026-04-24T10:33:00.41Z</time></trkpt><trkpt lat="30.9235817" lon="-6.9184367"><ele>1142.0</ele><time>2026-04-24T10:33:01.409Z</time></trkpt><trkpt lat="30.9235333" lon="-6.9184917"><ele>1142.0</ele><time>2026-04-24T10:33:02.409Z</time></trkpt><trkpt lat="30.9234533" lon="-6.9185833"><ele>1140.4</ele><time>2026-04-24T10:33:04.409Z</time></trkpt><trkpt lat="30.9233783" lon="-6.91865"><ele>1138.8000000000002</ele><time>2026-04-24T10:33:06.409Z</time></trkpt><trkpt lat="30.923315" lon="-6.91871"><ele>1137.2</ele><time>2026-04-24T10:33:08.409Z</time></trkpt><trkpt lat="30.9232617" lon="-6.9188017"><ele>1135.6000000000001</ele><time>2026-04-24T10:33:11.409Z</time></trkpt><trkpt lat="30.9232267" lon="-6.9188667"><ele>1134.0</ele><time>2026-04-24T10:33:14.409Z</time></trkpt><trkpt lat="30.9231433" lon="-6.9189633"><ele>1134.0</ele><time>2026-04-24T10:33:17.409Z</time></trkpt><trkpt lat="30.923095" lon="-6.9190183"><ele>1134.0</ele><time>2026-04-24T10:33:18.409Z</time></trkpt><trkpt lat="30.9230433" lon="-6.9190817"><ele>1134.0</ele><time>2026-04-24T10:33:19.409Z</time></trkpt><trkpt lat="30.9229883" lon="-6.9191517"><ele>1134.0</ele><time>2026-04-24T10:33:20.409Z</time></trkpt><trkpt lat="30.9229367" lon="-6.9192183"><ele>1134.0</ele><time>2026-04-24T10:33:21.409Z</time></trkpt><trkpt lat="30.922885" lon="-6.9192783"><ele>1134.0</ele><time>2026-04-24T10:33:22.409Z</time></trkpt><trkpt lat="30.92284" lon="-6.9193367"><ele>1134.0</ele><time>2026-04-24T10:33:23.409Z</time></trkpt><trkpt lat="30.9227833" lon="-6.9194217"><ele>1133.6000000000001</ele><time>2026-04-24T10:33:25.409Z</time></trkpt><trkpt lat="30.9227333" lon="-6.91948"><ele>1133.2</ele><time>2026-04-24T10:33:29.409Z</time></trkpt><trkpt lat="30.9226667" lon="-6.9195617"><ele>1132.8000000000002</ele><time>2026-04-24T10:33:32.409Z</time></trkpt><trkpt lat="30.9226033" lon="-6.9196433"><ele>1132.4</ele><time>2026-04-24T10:33:34.409Z</time></trkpt><trkpt lat="30.922515" lon="-6.9197533"><ele>1132.0</ele><time>2026-04-24T10:33:36.409Z</time></trkpt><trkpt lat="30.9224567" lon="-6.9198217"><ele>1131.6</ele><time>2026-04-24T10:33:37.409Z</time></trkpt><trkpt lat="30.9223833" lon="-6.9198933"><ele>1131.2</ele><time>2026-04-24T10:33:38.409Z</time></trkpt><trkpt lat="30.9223183" lon="-6.9199667"><ele>1130.8</ele><time>2026-04-24T10:33:39.409Z</time></trkpt><trkpt lat="30.9222583" lon="-6.9200417"><ele>1130.4</ele><time>2026-04-24T10:33:40.409Z</time></trkpt><trkpt lat="30.922195" lon="-6.92011"><ele>1130.0</ele><time>2026-04-24T10:33:41.409Z</time></trkpt><trkpt lat="30.9221283" lon="-6.9201867"><ele>1130.0</ele><time>2026-04-24T10:33:42.409Z</time></trkpt><trkpt lat="30.9220617" lon="-6.920265"><ele>1130.0</ele><time>2026-04-24T10:33:43.409Z</time></trkpt><trkpt lat="30.9219917" lon="-6.920335"><ele>1130.0</ele><time>2026-04-24T10:33:44.409Z</time></trkpt><trkpt lat="30.9219217" lon="-6.92041"><ele>1130.0</ele><time>2026-04-24T10:33:45.409Z</time></trkpt><trkpt lat="30.9218567" lon="-6.92048"><ele>1130.0</ele><time>2026-04-24T10:33:46.409Z</time></trkpt><trkpt lat="30.9217917" lon="-6.9205567"><ele>1130.0</ele><time>2026-04-24T10:33:47.409Z</time></trkpt><trkpt lat="30.9217267" lon="-6.9206367"><ele>1130.0</ele><time>2026-04-24T10:33:48.409Z</time></trkpt><trkpt lat="30.9216533" lon="-6.92071"><ele>1130.0</ele><time>2026-04-24T10:33:49.409Z</time></trkpt><trkpt lat="30.92158" lon="-6.9207733"><ele>1130.0</ele><time>2026-04-24T10:33:50.409Z</time></trkpt><trkpt lat="30.9215083" lon="-6.9208233"><ele>1130.0</ele><time>2026-04-24T10:33:51.409Z</time></trkpt><trkpt lat="30.921435" lon="-6.9208683"><ele>1130.0</ele><time>2026-04-24T10:33:52.409Z</time></trkpt><trkpt lat="30.92136" lon="-6.92091"><ele>1129.6666666666667</ele><time>2026-04-24T10:33:53.409Z</time></trkpt><trkpt lat="30.921285" lon="-6.9209467"><ele>1129.3333333333335</ele><time>2026-04-24T10:33:54.41Z</time></trkpt><trkpt lat="30.921205" lon="-6.9209883"><ele>1129.0</ele><time>2026-04-24T10:33:55.41Z</time></trkpt><trkpt lat="30.9211283" lon="-6.9210367"><ele>1128.6666666666667</ele><time>2026-04-24T10:33:56.409Z</time></trkpt><trkpt lat="30.9210483" lon="-6.921075"><ele>1128.3333333333333</ele><time>2026-04-24T10:33:57.409Z</time></trkpt><trkpt lat="30.92098" lon="-6.921115"><ele>1128.0</ele><time>2026-04-24T10:33:58.409Z</time></trkpt><trkpt lat="30.9209283" lon="-6.9211717"><ele>1127.8333333333333</ele><time>2026-04-24T10:33:59.409Z</time></trkpt><trkpt lat="30.92087" lon="-6.9212033"><ele>1127.6666666666667</ele><time>2026-04-24T10:34:00.409Z</time></trkpt><trkpt lat="30.9208083" lon="-6.92123"><ele>1127.5</ele><time>2026-04-24T10:34:01.409Z</time></trkpt><trkpt lat="30.9207333" lon="-6.9212583"><ele>1127.3333333333335</ele><time>2026-04-24T10:34:03.409Z</time></trkpt><trkpt lat="30.9207517" lon="-6.921345"><ele>1127.1666666666667</ele><time>2026-04-24T10:34:07.409Z</time></trkpt><trkpt lat="30.9207867" lon="-6.9214633"><ele>1127.0</ele><time>2026-04-24T10:34:09.409Z</time></trkpt><trkpt lat="30.9208117" lon="-6.9215317"><ele>1127.0</ele><time>2026-04-24T10:34:10.409Z</time></trkpt><trkpt lat="30.9208367" lon="-6.921605"><ele>1127.0</ele><time>2026-04-24T10:34:11.409Z</time></trkpt><trkpt lat="30.9208617" lon="-6.92168"><ele>1127.0</ele><time>2026-04-24T10:34:12.409Z</time></trkpt><trkpt lat="30.9208883" lon="-6.92177"><ele>1127.0</ele><time>2026-04-24T10:34:13.409Z</time></trkpt><trkpt lat="30.920925" lon="-6.921865"><ele>1127.0</ele><time>2026-04-24T10:34:14.409Z</time></trkpt><trkpt lat="30.9209567" lon="-6.92196"><ele>1127.0</ele><time>2026-04-24T10:34:15.409Z</time></trkpt><trkpt lat="30.9209867" lon="-6.92204"><ele>1127.3333333333335</ele><time>2026-04-24T10:34:16.409Z</time></trkpt><trkpt lat="30.9210183" lon="-6.9221183"><ele>1127.6666666666667</ele><time>2026-04-24T10:34:17.409Z</time></trkpt><trkpt lat="30.9210467" lon="-6.92219"><ele>1128.0</ele><time>2026-04-24T10:34:18.409Z</time></trkpt><trkpt lat="30.921075" lon="-6.9222567"><ele>1128.3333333333333</ele><time>2026-04-24T10:34:19.409Z</time></trkpt><trkpt lat="30.92111" lon="-6.92236"><ele>1128.6666666666665</ele><time>2026-04-24T10:34:21.409Z</time></trkpt><trkpt lat="30.9211483" lon="-6.9224317"><ele>1129.0</ele><time>2026-04-24T10:34:23.409Z</time></trkpt><trkpt lat="30.9211833" lon="-6.9225133"><ele>1129.5</ele><time>2026-04-24T10:34:26.409Z</time></trkpt><trkpt lat="30.9212183" lon="-6.9226"><ele>1130.0</ele><time>2026-04-24T10:34:30.409Z</time></trkpt><trkpt lat="30.9212367" lon="-6.922675"><ele>1130.5</ele><time>2026-04-24T10:34:33.409Z</time></trkpt><trkpt lat="30.9212567" lon="-6.9227517"><ele>1131.0</ele><time>2026-04-24T10:34:35.408Z</time></trkpt><trkpt lat="30.9212767" lon="-6.9228217"><ele>1131.5</ele><time>2026-04-24T10:34:37.408Z</time></trkpt><trkpt lat="30.9213017" lon="-6.9229033"><ele>1132.0</ele><time>2026-04-24T10:34:39.408Z</time></trkpt><trkpt lat="30.921335" lon="-6.9230267"><ele>1132.0</ele><time>2026-04-24T10:34:41.408Z</time></trkpt><trkpt lat="30.9213583" lon="-6.9231017"><ele>1132.0</ele><time>2026-04-24T10:34:42.408Z</time></trkpt><trkpt lat="30.9213833" lon="-6.9231833"><ele>1132.0</ele><time>2026-04-24T10:34:43.408Z</time></trkpt><trkpt lat="30.921415" lon="-6.9232717"><ele>1132.0</ele><time>2026-04-24T10:34:44.408Z</time></trkpt><trkpt lat="30.9214483" lon="-6.92337"><ele>1132.0</ele><time>2026-04-24T10:34:45.408Z</time></trkpt><trkpt lat="30.9214833" lon="-6.9234717"><ele>1132.0</ele><time>2026-04-24T10:34:46.408Z</time></trkpt><trkpt lat="30.92152" lon="-6.9235767"><ele>1131.5</ele><time>2026-04-24T10:34:47.408Z</time></trkpt><trkpt lat="30.9215533" lon="-6.9236733"><ele>1131.0</ele><time>2026-04-24T10:34:48.408Z</time></trkpt><trkpt lat="30.92159" lon="-6.9237667"><ele>1130.5</ele><time>2026-04-24T10:34:49.408Z</time></trkpt><trkpt lat="30.9216233" lon="-6.9238567"><ele>1130.0</ele><time>2026-04-24T10:34:50.408Z</time></trkpt><trkpt lat="30.9216567" lon="-6.9239567"><ele>1129.5</ele><time>2026-04-24T10:34:51.408Z</time></trkpt><trkpt lat="30.9216933" lon="-6.924055"><ele>1129.0</ele><time>2026-04-24T10:34:52.408Z</time></trkpt><trkpt lat="30.92173" lon="-6.9241583"><ele>1129.2</ele><time>2026-04-24T10:34:53.408Z</time></trkpt><trkpt lat="30.92178" lon="-6.9242483"><ele>1129.4</ele><time>2026-04-24T10:34:54.408Z</time></trkpt><trkpt lat="30.9218183" lon="-6.9243483"><ele>1129.6</ele><time>2026-04-24T10:34:55.408Z</time></trkpt><trkpt lat="30.9218517" lon="-6.9244517"><ele>1129.8</ele><time>2026-04-24T10:34:56.408Z</time></trkpt><trkpt lat="30.9218817" lon="-6.9245583"><ele>1130.0</ele><time>2026-04-24T10:34:57.408Z</time></trkpt><trkpt lat="30.9219133" lon="-6.9246583"><ele>1130.0</ele><time>2026-04-24T10:34:58.409Z</time></trkpt><trkpt lat="30.9219483" lon="-6.9247583"><ele>1130.0</ele><time>2026-04-24T10:34:59.408Z</time></trkpt><trkpt lat="30.9219817" lon="-6.9248633"><ele>1130.0</ele><time>2026-04-24T10:35:00.408Z</time></trkpt><trkpt lat="30.9220167" lon="-6.9249633"><ele>1130.0</ele><time>2026-04-24T10:35:01.408Z</time></trkpt><trkpt lat="30.9220467" lon="-6.925055"><ele>1130.0</ele><time>2026-04-24T10:35:02.408Z</time></trkpt><trkpt lat="30.922075" lon="-6.925145"><ele>1130.0</ele><time>2026-04-24T10:35:03.408Z</time></trkpt><trkpt lat="30.9221033" lon="-6.9252383"><ele>1129.8333333333335</ele><time>2026-04-24T10:35:04.408Z</time></trkpt><trkpt lat="30.9221333" lon="-6.9253317"><ele>1129.6666666666667</ele><time>2026-04-24T10:35:05.408Z</time></trkpt><trkpt lat="30.92216" lon="-6.925425"><ele>1129.5</ele><time>2026-04-24T10:35:06.408Z</time></trkpt><trkpt lat="30.9221917" lon="-6.9255167"><ele>1129.3333333333333</ele><time>2026-04-24T10:35:07.408Z</time></trkpt><trkpt lat="30.9222217" lon="-6.9255983"><ele>1129.1666666666665</ele><time>2026-04-24T10:35:08.408Z</time></trkpt><trkpt lat="30.9222533" lon="-6.92568"><ele>1129.0</ele><time>2026-04-24T10:35:09.408Z</time></trkpt><trkpt lat="30.9222883" lon="-6.92576"><ele>1129.0</ele><time>2026-04-24T10:35:10.408Z</time></trkpt><trkpt lat="30.922325" lon="-6.9258433"><ele>1129.0</ele><time>2026-04-24T10:35:11.408Z</time></trkpt><trkpt lat="30.9223633" lon="-6.925925"><ele>1129.0</ele><time>2026-04-24T10:35:12.408Z</time></trkpt><trkpt lat="30.9223967" lon="-6.9260167"><ele>1129.0</ele><time>2026-04-24T10:35:13.408Z</time></trkpt><trkpt lat="30.9224217" lon="-6.9261117"><ele>1129.0</ele><time>2026-04-24T10:35:14.408Z</time></trkpt><trkpt lat="30.92245" lon="-6.9262067"><ele>1129.0</ele><time>2026-04-24T10:35:15.408Z</time></trkpt><trkpt lat="30.9224833" lon="-6.9263033"><ele>1129.1666666666665</ele><time>2026-04-24T10:35:16.409Z</time></trkpt><trkpt lat="30.9225167" lon="-6.9263967"><ele>1129.3333333333333</ele><time>2026-04-24T10:35:17.408Z</time></trkpt><trkpt lat="30.92255" lon="-6.9264917"><ele>1129.5</ele><time>2026-04-24T10:35:18.408Z</time></trkpt><trkpt lat="30.922585" lon="-6.9265833"><ele>1129.6666666666667</ele><time>2026-04-24T10:35:19.408Z</time></trkpt><trkpt lat="30.9226117" lon="-6.9266633"><ele>1129.8333333333335</ele><time>2026-04-24T10:35:20.408Z</time></trkpt><trkpt lat="30.922645" lon="-6.926735"><ele>1130.0</ele><time>2026-04-24T10:35:21.408Z</time></trkpt><trkpt lat="30.9226933" lon="-6.9268467"><ele>1130.0</ele><time>2026-04-24T10:35:23.408Z</time></trkpt><trkpt lat="30.9227317" lon="-6.9269217"><ele>1130.0</ele><time>2026-04-24T10:35:25.408Z</time></trkpt><trkpt lat="30.9227617" lon="-6.9269883"><ele>1130.0</ele><time>2026-04-24T10:35:28.408Z</time></trkpt><trkpt lat="30.9228167" lon="-6.9270767"><ele>1130.0</ele><time>2026-04-24T10:35:53.408Z</time></trkpt><trkpt lat="30.9228283" lon="-6.927175"><ele>1130.0</ele><time>2026-04-24T10:35:54.408Z</time></trkpt><trkpt lat="30.9228583" lon="-6.9272883"><ele>1130.0</ele><time>2026-04-24T10:35:55.408Z</time></trkpt><trkpt lat="30.9228917" lon="-6.9274217"><ele>1130.0</ele><time>2026-04-24T10:35:56.409Z</time></trkpt><trkpt lat="30.92293" lon="-6.9275467"><ele>1130.0</ele><time>2026-04-24T10:35:57.408Z</time></trkpt><trkpt lat="30.9229733" lon="-6.9276683"><ele>1130.0</ele><time>2026-04-24T10:35:58.409Z</time></trkpt><trkpt lat="30.9230183" lon="-6.927785"><ele>1130.0</ele><time>2026-04-24T10:35:59.408Z</time></trkpt><trkpt lat="30.9230667" lon="-6.9279083"><ele>1130.25</ele><time>2026-04-24T10:36:00.408Z</time></trkpt><trkpt lat="30.9231117" lon="-6.9280367"><ele>1130.5</ele><time>2026-04-24T10:36:01.408Z</time></trkpt><trkpt lat="30.92316" lon="-6.92817"><ele>1130.75</ele><time>2026-04-24T10:36:02.408Z</time></trkpt><trkpt lat="30.9232033" lon="-6.9283"><ele>1131.0</ele><time>2026-04-24T10:36:03.408Z</time></trkpt><trkpt lat="30.9232517" lon="-6.9284367"><ele>1131.0</ele><time>2026-04-24T10:36:04.408Z</time></trkpt><trkpt lat="30.9233017" lon="-6.9285783"><ele>1131.0</ele><time>2026-04-24T10:36:05.408Z</time></trkpt><trkpt lat="30.9233517" lon="-6.928715"><ele>1131.0</ele><time>2026-04-24T10:36:06.408Z</time></trkpt><trkpt lat="30.923405" lon="-6.9288517"><ele>1131.0</ele><time>2026-04-24T10:36:07.408Z</time></trkpt><trkpt lat="30.92345" lon="-6.9289817"><ele>1131.0</ele><time>2026-04-24T10:36:08.408Z</time></trkpt><trkpt lat="30.9234917" lon="-6.9291117"><ele>1131.0</ele><time>2026-04-24T10:36:09.408Z</time></trkpt><trkpt lat="30.9235333" lon="-6.92924"><ele>1131.0</ele><time>2026-04-24T10:36:10.408Z</time></trkpt><trkpt lat="30.923575" lon="-6.9293667"><ele>1131.0</ele><time>2026-04-24T10:36:11.408Z</time></trkpt><trkpt lat="30.9236133" lon="-6.92949"><ele>1131.6</ele><time>2026-04-24T10:36:12.409Z</time></trkpt><trkpt lat="30.9236583" lon="-6.9296067"><ele>1132.1999999999998</ele><time>2026-04-24T10:36:13.408Z</time></trkpt><trkpt lat="30.9237033" lon="-6.929725"><ele>1132.8000000000002</ele><time>2026-04-24T10:36:14.408Z</time></trkpt><trkpt lat="30.923745" lon="-6.929845"><ele>1133.4</ele><time>2026-04-24T10:36:15.408Z</time></trkpt><trkpt lat="30.9237867" lon="-6.9299633"><ele>1134.0</ele><time>2026-04-24T10:36:16.408Z</time></trkpt><trkpt lat="30.923825" lon="-6.9300867"><ele>1134.0</ele><time>2026-04-24T10:36:17.408Z</time></trkpt><trkpt lat="30.92386" lon="-6.9302067"><ele>1134.0</ele><time>2026-04-24T10:36:18.408Z</time></trkpt><trkpt lat="30.9239117" lon="-6.9303183"><ele>1134.0</ele><time>2026-04-24T10:36:19.408Z</time></trkpt><trkpt lat="30.9239633" lon="-6.9304367"><ele>1134.0</ele><time>2026-04-24T10:36:20.408Z</time></trkpt><trkpt lat="30.9240033" lon="-6.93056"><ele>1134.0</ele><time>2026-04-24T10:36:21.408Z</time></trkpt><trkpt lat="30.9240483" lon="-6.9306817"><ele>1134.0</ele><time>2026-04-24T10:36:22.408Z</time></trkpt><trkpt lat="30.9240933" lon="-6.930805"><ele>1134.0</ele><time>2026-04-24T10:36:23.408Z</time></trkpt><trkpt lat="30.9241417" lon="-6.9309283"><ele>1134.0</ele><time>2026-04-24T10:36:24.408Z</time></trkpt><trkpt lat="30.9241833" lon="-6.931055"><ele>1134.0</ele><time>2026-04-24T10:36:25.408Z</time></trkpt><trkpt lat="30.9242217" lon="-6.9311817"><ele>1134.0</ele><time>2026-04-24T10:36:26.409Z</time></trkpt><trkpt lat="30.9242683" lon="-6.9313083"><ele>1134.0</ele><time>2026-04-24T10:36:27.408Z</time></trkpt><trkpt lat="30.9243183" lon="-6.9314367"><ele>1134.0</ele><time>2026-04-24T10:36:28.408Z</time></trkpt><trkpt lat="30.9243683" lon="-6.9315617"><ele>1134.0</ele><time>2026-04-24T10:36:29.408Z</time></trkpt><trkpt lat="30.9244067" lon="-6.9316867"><ele>1133.8</ele><time>2026-04-24T10:36:30.408Z</time></trkpt><trkpt lat="30.9244483" lon="-6.9318017"><ele>1133.6000000000001</ele><time>2026-04-24T10:36:31.408Z</time></trkpt><trkpt lat="30.9244867" lon="-6.9319167"><ele>1133.4</ele><time>2026-04-24T10:36:32.408Z</time></trkpt><trkpt lat="30.9245317" lon="-6.93203"><ele>1133.2</ele><time>2026-04-24T10:36:33.408Z</time></trkpt><trkpt lat="30.9245733" lon="-6.93215"><ele>1133.0</ele><time>2026-04-24T10:36:34.408Z</time></trkpt><trkpt lat="30.92461" lon="-6.932265"><ele>1133.0</ele><time>2026-04-24T10:36:35.408Z</time></trkpt><trkpt lat="30.9246533" lon="-6.9323733"><ele>1133.0</ele><time>2026-04-24T10:36:36.408Z</time></trkpt><trkpt lat="30.9246883" lon="-6.9324733"><ele>1133.0</ele><time>2026-04-24T10:36:37.408Z</time></trkpt><trkpt lat="30.9247317" lon="-6.9325667"><ele>1133.0</ele><time>2026-04-24T10:36:38.408Z</time></trkpt><trkpt lat="30.9247733" lon="-6.9326617"><ele>1133.0</ele><time>2026-04-24T10:36:39.408Z</time></trkpt><trkpt lat="30.9248183" lon="-6.932755"><ele>1132.6</ele><time>2026-04-24T10:36:40.408Z</time></trkpt><trkpt lat="30.9248617" lon="-6.9328517"><ele>1132.1999999999998</ele><time>2026-04-24T10:36:41.408Z</time></trkpt><trkpt lat="30.9249117" lon="-6.9329517"><ele>1131.8</ele><time>2026-04-24T10:36:42.408Z</time></trkpt><trkpt lat="30.924965" lon="-6.9330483"><ele>1131.3999999999999</ele><time>2026-04-24T10:36:43.408Z</time></trkpt><trkpt lat="30.9250117" lon="-6.9331483"><ele>1131.0</ele><time>2026-04-24T10:36:44.408Z</time></trkpt><trkpt lat="30.9250633" lon="-6.93325"><ele>1131.0</ele><time>2026-04-24T10:36:45.408Z</time></trkpt><trkpt lat="30.9251133" lon="-6.9333517"><ele>1131.0</ele><time>2026-04-24T10:36:46.408Z</time></trkpt><trkpt lat="30.9251517" lon="-6.9334583"><ele>1131.0</ele><time>2026-04-24T10:36:47.408Z</time></trkpt><trkpt lat="30.92518" lon="-6.93357"><ele>1131.0</ele><time>2026-04-24T10:36:48.408Z</time></trkpt><trkpt lat="30.92521" lon="-6.9336867"><ele>1131.0</ele><time>2026-04-24T10:36:49.408Z</time></trkpt><trkpt lat="30.9252383" lon="-6.9338"><ele>1130.6</ele><time>2026-04-24T10:36:50.408Z</time></trkpt><trkpt lat="30.92527" lon="-6.933915"><ele>1130.1999999999998</ele><time>2026-04-24T10:36:51.408Z</time></trkpt><trkpt lat="30.9253017" lon="-6.9340333"><ele>1129.8000000000002</ele><time>2026-04-24T10:36:52.408Z</time></trkpt><trkpt lat="30.9253383" lon="-6.934155"><ele>1129.4</ele><time>2026-04-24T10:36:53.408Z</time></trkpt><trkpt lat="30.9253733" lon="-6.9342817"><ele>1129.0</ele><time>2026-04-24T10:36:54.408Z</time></trkpt><trkpt lat="30.92541" lon="-6.9344117"><ele>1128.75</ele><time>2026-04-24T10:36:55.408Z</time></trkpt><trkpt lat="30.9254417" lon="-6.9345483"><ele>1128.5</ele><time>2026-04-24T10:36:56.408Z</time></trkpt><trkpt lat="30.9254783" lon="-6.934685"><ele>1128.25</ele><time>2026-04-24T10:36:57.408Z</time></trkpt><trkpt lat="30.9255183" lon="-6.9348217"><ele>1128.0</ele><time>2026-04-24T10:36:58.408Z</time></trkpt><trkpt lat="30.9255667" lon="-6.9349583"><ele>1127.5</ele><time>2026-04-24T10:36:59.408Z</time></trkpt><trkpt lat="30.9256167" lon="-6.9351"><ele>1127.0</ele><time>2026-04-24T10:37:00.408Z</time></trkpt><trkpt lat="30.9256633" lon="-6.935245"><ele>1126.5</ele><time>2026-04-24T10:37:01.408Z</time></trkpt><trkpt lat="30.92571" lon="-6.93539"><ele>1126.0</ele><time>2026-04-24T10:37:02.408Z</time></trkpt><trkpt lat="30.9257583" lon="-6.93554"><ele>1126.0</ele><time>2026-04-24T10:37:03.408Z</time></trkpt><trkpt lat="30.92581" lon="-6.935695"><ele>1126.0</ele><time>2026-04-24T10:37:04.408Z</time></trkpt><trkpt lat="30.9258617" lon="-6.9358467"><ele>1126.0</ele><time>2026-04-24T10:37:05.408Z</time></trkpt><trkpt lat="30.925915" lon="-6.936"><ele>1126.0</ele><time>2026-04-24T10:37:06.408Z</time></trkpt><trkpt lat="30.9259683" lon="-6.9361483"><ele>1126.75</ele><time>2026-04-24T10:37:07.408Z</time></trkpt><trkpt lat="30.9260217" lon="-6.9363"><ele>1127.5</ele><time>2026-04-24T10:37:08.408Z</time></trkpt><trkpt lat="30.9260833" lon="-6.9364517"><ele>1128.25</ele><time>2026-04-24T10:37:09.408Z</time></trkpt><trkpt lat="30.92614" lon="-6.9366033"><ele>1129.0</ele><time>2026-04-24T10:37:10.408Z</time></trkpt><trkpt lat="30.926195" lon="-6.9367617"><ele>1129.25</ele><time>2026-04-24T10:37:11.408Z</time></trkpt><trkpt lat="30.9262483" lon="-6.9369133"><ele>1129.5</ele><time>2026-04-24T10:37:12.408Z</time></trkpt><trkpt lat="30.926305" lon="-6.9370767"><ele>1129.75</ele><time>2026-04-24T10:37:13.408Z</time></trkpt><trkpt lat="30.926365" lon="-6.9372383"><ele>1130.0</ele><time>2026-04-24T10:37:14.408Z</time></trkpt><trkpt lat="30.92642" lon="-6.9373933"><ele>1129.6666666666667</ele><time>2026-04-24T10:37:15.408Z</time></trkpt><trkpt lat="30.926485" lon="-6.9375533"><ele>1129.3333333333333</ele><time>2026-04-24T10:37:16.408Z</time></trkpt><trkpt lat="30.9265433" lon="-6.9377183"><ele>1129.0</ele><time>2026-04-24T10:37:17.408Z</time></trkpt><trkpt lat="30.9266033" lon="-6.93788"><ele>1129.0</ele><time>2026-04-24T10:37:18.408Z</time></trkpt><trkpt lat="30.926665" lon="-6.9380483"><ele>1129.0</ele><time>2026-04-24T10:37:19.408Z</time></trkpt><trkpt lat="30.9267217" lon="-6.9382117"><ele>1129.0</ele><time>2026-04-24T10:37:20.408Z</time></trkpt><trkpt lat="30.9267783" lon="-6.9383783"><ele>1128.25</ele><time>2026-04-24T10:37:21.408Z</time></trkpt><trkpt lat="30.9268333" lon="-6.9385383"><ele>1127.5</ele><time>2026-04-24T10:37:22.408Z</time></trkpt><trkpt lat="30.92689" lon="-6.9386967"><ele>1126.75</ele><time>2026-04-24T10:37:23.408Z</time></trkpt><trkpt lat="30.9269383" lon="-6.9388467"><ele>1126.0</ele><time>2026-04-24T10:37:24.408Z</time></trkpt><trkpt lat="30.9269933" lon="-6.938995"><ele>1126.0</ele><time>2026-04-24T10:37:25.408Z</time></trkpt><trkpt lat="30.927045" lon="-6.9391417"><ele>1126.0</ele><time>2026-04-24T10:37:26.408Z</time></trkpt><trkpt lat="30.9271017" lon="-6.9392917"><ele>1126.0</ele><time>2026-04-24T10:37:27.408Z</time></trkpt><trkpt lat="30.92715" lon="-6.9394433"><ele>1126.0</ele><time>2026-04-24T10:37:28.408Z</time></trkpt><trkpt lat="30.9272017" lon="-6.9395933"><ele>1126.5</ele><time>2026-04-24T10:37:29.409Z</time></trkpt><trkpt lat="30.92725" lon="-6.9397417"><ele>1127.0</ele><time>2026-04-24T10:37:30.408Z</time></trkpt><trkpt lat="30.9272983" lon="-6.9398967"><ele>1127.5</ele><time>2026-04-24T10:37:31.408Z</time></trkpt><trkpt lat="30.92735" lon="-6.9400467"><ele>1128.0</ele><time>2026-04-24T10:37:32.408Z</time></trkpt><trkpt lat="30.9274033" lon="-6.9402033"><ele>1128.25</ele><time>2026-04-24T10:37:33.408Z</time></trkpt><trkpt lat="30.9274517" lon="-6.94036"><ele>1128.5</ele><time>2026-04-24T10:37:34.408Z</time></trkpt><trkpt lat="30.927505" lon="-6.9405183"><ele>1128.75</ele><time>2026-04-24T10:37:35.408Z</time></trkpt><trkpt lat="30.9275633" lon="-6.9406767"><ele>1129.0</ele><time>2026-04-24T10:37:36.408Z</time></trkpt><trkpt lat="30.9276217" lon="-6.9408383"><ele>1129.25</ele><time>2026-04-24T10:37:37.408Z</time></trkpt><trkpt lat="30.9276817" lon="-6.9409967"><ele>1129.5</ele><time>2026-04-24T10:37:38.408Z</time></trkpt><trkpt lat="30.9277333" lon="-6.9411517"><ele>1129.75</ele><time>2026-04-24T10:37:39.408Z</time></trkpt><trkpt lat="30.9277817" lon="-6.9412967"><ele>1130.0</ele><time>2026-04-24T10:37:40.408Z</time></trkpt><trkpt lat="30.92783" lon="-6.9414367"><ele>1130.0</ele><time>2026-04-24T10:37:41.408Z</time></trkpt><trkpt lat="30.9278767" lon="-6.94157"><ele>1130.0</ele><time>2026-04-24T10:37:42.408Z</time></trkpt><trkpt lat="30.9279233" lon="-6.9416983"><ele>1130.0</ele><time>2026-04-24T10:37:43.408Z</time></trkpt><trkpt lat="30.9279667" lon="-6.9418167"><ele>1130.0</ele><time>2026-04-24T10:37:44.408Z</time></trkpt><trkpt lat="30.9280117" lon="-6.9419283"><ele>1130.0</ele><time>2026-04-24T10:37:45.409Z</time></trkpt><trkpt lat="30.9280533" lon="-6.942045"><ele>1130.0</ele><time>2026-04-24T10:37:46.408Z</time></trkpt><trkpt lat="30.9280967" lon="-6.94217"><ele>1130.0</ele><time>2026-04-24T10:37:47.408Z</time></trkpt><trkpt lat="30.9281383" lon="-6.9422967"><ele>1130.0</ele><time>2026-04-24T10:37:48.408Z</time></trkpt><trkpt lat="30.9281867" lon="-6.9424333"><ele>1130.0</ele><time>2026-04-24T10:37:49.408Z</time></trkpt><trkpt lat="30.9282317" lon="-6.942575"><ele>1130.0</ele><time>2026-04-24T10:37:50.408Z</time></trkpt><trkpt lat="30.9282833" lon="-6.9427283"><ele>1130.0</ele><time>2026-04-24T10:37:51.409Z</time></trkpt><trkpt lat="30.9283433" lon="-6.94289"><ele>1130.0</ele><time>2026-04-24T10:37:52.408Z</time></trkpt><trkpt lat="30.9283983" lon="-6.943055"><ele>1130.0</ele><time>2026-04-24T10:37:53.408Z</time></trkpt><trkpt lat="30.92846" lon="-6.9432217"><ele>1130.0</ele><time>2026-04-24T10:37:54.408Z</time></trkpt><trkpt lat="30.9285217" lon="-6.9433967"><ele>1130.0</ele><time>2026-04-24T10:37:55.408Z</time></trkpt><trkpt lat="30.9285867" lon="-6.9435767"><ele>1129.6666666666667</ele><time>2026-04-24T10:37:56.408Z</time></trkpt><trkpt lat="30.928655" lon="-6.943755"><ele>1129.3333333333333</ele><time>2026-04-24T10:37:57.408Z</time></trkpt><trkpt lat="30.9287233" lon="-6.9439333"><ele>1129.0</ele><time>2026-04-24T10:37:58.408Z</time></trkpt><trkpt lat="30.9287933" lon="-6.94411"><ele>1129.3333333333333</ele><time>2026-04-24T10:37:59.408Z</time></trkpt><trkpt lat="30.9288617" lon="-6.94429"><ele>1129.6666666666667</ele><time>2026-04-24T10:38:00.408Z</time></trkpt><trkpt lat="30.9289283" lon="-6.944475"><ele>1130.0</ele><time>2026-04-24T10:38:01.408Z</time></trkpt><trkpt lat="30.9289933" lon="-6.9446517"><ele>1130.0</ele><time>2026-04-24T10:38:02.408Z</time></trkpt><trkpt lat="30.9290567" lon="-6.94482"><ele>1130.0</ele><time>2026-04-24T10:38:03.408Z</time></trkpt><trkpt lat="30.9291183" lon="-6.9449867"><ele>1130.0</ele><time>2026-04-24T10:38:04.408Z</time></trkpt><trkpt lat="30.9291783" lon="-6.9451567"><ele>1130.6666666666667</ele><time>2026-04-24T10:38:05.408Z</time></trkpt><trkpt lat="30.9292367" lon="-6.9453283"><ele>1131.3333333333333</ele><time>2026-04-24T10:38:06.408Z</time></trkpt><trkpt lat="30.9292967" lon="-6.9455"><ele>1132.0</ele><time>2026-04-24T10:38:07.408Z</time></trkpt><trkpt lat="30.9293517" lon="-6.9456633"><ele>1132.0</ele><time>2026-04-24T10:38:08.408Z</time></trkpt><trkpt lat="30.9294133" lon="-6.9458283"><ele>1132.0</ele><time>2026-04-24T10:38:09.408Z</time></trkpt><trkpt lat="30.9294783" lon="-6.9459983"><ele>1132.0</ele><time>2026-04-24T10:38:10.408Z</time></trkpt><trkpt lat="30.929535" lon="-6.9461667"><ele>1131.6666666666665</ele><time>2026-04-24T10:38:11.408Z</time></trkpt><trkpt lat="30.9295967" lon="-6.9463333"><ele>1131.3333333333333</ele><time>2026-04-24T10:38:12.408Z</time></trkpt><trkpt lat="30.929655" lon="-6.9465017"><ele>1131.0</ele><time>2026-04-24T10:38:13.408Z</time></trkpt><trkpt lat="30.9297117" lon="-6.9466717"><ele>1131.0</ele><time>2026-04-24T10:38:14.408Z</time></trkpt><trkpt lat="30.9297667" lon="-6.9468383"><ele>1131.0</ele><time>2026-04-24T10:38:15.408Z</time></trkpt><trkpt lat="30.9298183" lon="-6.9469933"><ele>1131.0</ele><time>2026-04-24T10:38:16.408Z</time></trkpt><trkpt lat="30.9298683" lon="-6.94713"><ele>1131.0</ele><time>2026-04-24T10:38:17.408Z</time></trkpt><trkpt lat="30.9299167" lon="-6.947265"><ele>1131.0</ele><time>2026-04-24T10:38:18.408Z</time></trkpt><trkpt lat="30.9299667" lon="-6.9474017"><ele>1131.0</ele><time>2026-04-24T10:38:19.408Z</time></trkpt><trkpt lat="30.9300117" lon="-6.9475333"><ele>1131.0</ele><time>2026-04-24T10:38:20.408Z</time></trkpt><trkpt lat="30.93006" lon="-6.9476633"><ele>1131.0</ele><time>2026-04-24T10:38:21.408Z</time></trkpt><trkpt lat="30.9301033" lon="-6.9477933"><ele>1131.0</ele><time>2026-04-24T10:38:22.408Z</time></trkpt><trkpt lat="30.9301467" lon="-6.9479267"><ele>1131.0</ele><time>2026-04-24T10:38:23.408Z</time></trkpt><trkpt lat="30.9301933" lon="-6.9480633"><ele>1131.0</ele><time>2026-04-24T10:38:24.408Z</time></trkpt><trkpt lat="30.9302433" lon="-6.9482017"><ele>1131.0</ele><time>2026-04-24T10:38:25.408Z</time></trkpt><trkpt lat="30.9302983" lon="-6.948345"><ele>1131.0</ele><time>2026-04-24T10:38:26.408Z</time></trkpt><trkpt lat="30.9303533" lon="-6.9484883"><ele>1131.0</ele><time>2026-04-24T10:38:27.408Z</time></trkpt><trkpt lat="30.9304067" lon="-6.9486367"><ele>1131.0</ele><time>2026-04-24T10:38:28.407Z</time></trkpt><trkpt lat="30.9304617" lon="-6.9487917"><ele>1131.0</ele><time>2026-04-24T10:38:29.407Z</time></trkpt><trkpt lat="30.9305133" lon="-6.9489433"><ele>1131.0</ele><time>2026-04-24T10:38:30.407Z</time></trkpt><trkpt lat="30.9305683" lon="-6.9491"><ele>1131.0</ele><time>2026-04-24T10:38:31.407Z</time></trkpt><trkpt lat="30.9306183" lon="-6.949245"><ele>1131.0</ele><time>2026-04-24T10:38:32.407Z</time></trkpt><trkpt lat="30.9306683" lon="-6.9493833"><ele>1131.0</ele><time>2026-04-24T10:38:33.407Z</time></trkpt><trkpt lat="30.9307167" lon="-6.9495133"><ele>1131.0</ele><time>2026-04-24T10:38:34.407Z</time></trkpt><trkpt lat="30.9307733" lon="-6.94964"><ele>1131.0</ele><time>2026-04-24T10:38:35.407Z</time></trkpt><trkpt lat="30.9308233" lon="-6.949755"><ele>1131.0</ele><time>2026-04-24T10:38:36.407Z</time></trkpt><trkpt lat="30.9308783" lon="-6.9498583"><ele>1131.0</ele><time>2026-04-24T10:38:37.407Z</time></trkpt><trkpt lat="30.9309383" lon="-6.9499533"><ele>1131.0</ele><time>2026-04-24T10:38:38.407Z</time></trkpt><trkpt lat="30.931" lon="-6.9500533"><ele>1131.2</ele><time>2026-04-24T10:38:39.407Z</time></trkpt><trkpt lat="30.9310433" lon="-6.9501567"><ele>1131.3999999999999</ele><time>2026-04-24T10:38:40.407Z</time></trkpt><trkpt lat="30.9310583" lon="-6.950255"><ele>1131.6</ele><time>2026-04-24T10:38:41.407Z</time></trkpt><trkpt lat="30.9310633" lon="-6.9503533"><ele>1131.8</ele><time>2026-04-24T10:38:42.407Z</time></trkpt><trkpt lat="30.9310767" lon="-6.9504567"><ele>1132.0</ele><time>2026-04-24T10:38:43.407Z</time></trkpt><trkpt lat="30.9310983" lon="-6.9505717"><ele>1132.0</ele><time>2026-04-24T10:38:44.407Z</time></trkpt><trkpt lat="30.9311383" lon="-6.9506933"><ele>1132.0</ele><time>2026-04-24T10:38:45.407Z</time></trkpt><trkpt lat="30.93118" lon="-6.9508217"><ele>1132.0</ele><time>2026-04-24T10:38:46.407Z</time></trkpt><trkpt lat="30.9312267" lon="-6.9509583"><ele>1132.0</ele><time>2026-04-24T10:38:47.407Z</time></trkpt><trkpt lat="30.9312767" lon="-6.951105"><ele>1132.0</ele><time>2026-04-24T10:38:48.407Z</time></trkpt><trkpt lat="30.9313317" lon="-6.9512567"><ele>1132.0</ele><time>2026-04-24T10:38:49.407Z</time></trkpt><trkpt lat="30.9313867" lon="-6.95142"><ele>1132.0</ele><time>2026-04-24T10:38:50.407Z</time></trkpt><trkpt lat="30.9314433" lon="-6.9515883"><ele>1132.0</ele><time>2026-04-24T10:38:51.407Z</time></trkpt><trkpt lat="30.9315017" lon="-6.9517567"><ele>1131.3333333333333</ele><time>2026-04-24T10:38:52.407Z</time></trkpt><trkpt lat="30.931565" lon="-6.95193"><ele>1130.6666666666667</ele><time>2026-04-24T10:38:53.407Z</time></trkpt><trkpt lat="30.9316267" lon="-6.952105"><ele>1130.0</ele><time>2026-04-24T10:38:54.407Z</time></trkpt><trkpt lat="30.9316883" lon="-6.95228"><ele>1130.75</ele><time>2026-04-24T10:38:55.407Z</time></trkpt><trkpt lat="30.931745" lon="-6.9524433"><ele>1131.5</ele><time>2026-04-24T10:38:56.407Z</time></trkpt><trkpt lat="30.9318" lon="-6.9526017"><ele>1132.25</ele><time>2026-04-24T10:38:57.407Z</time></trkpt><trkpt lat="30.9318533" lon="-6.9527533"><ele>1133.0</ele><time>2026-04-24T10:38:58.408Z</time></trkpt><trkpt lat="30.9319067" lon="-6.9528983"><ele>1133.0</ele><time>2026-04-24T10:38:59.408Z</time></trkpt><trkpt lat="30.9319533" lon="-6.953035"><ele>1133.0</ele><time>2026-04-24T10:39:00.407Z</time></trkpt><trkpt lat="30.9320033" lon="-6.9531683"><ele>1133.0</ele><time>2026-04-24T10:39:01.407Z</time></trkpt><trkpt lat="30.9320517" lon="-6.9533"><ele>1133.0</ele><time>2026-04-24T10:39:02.407Z</time></trkpt><trkpt lat="30.9320983" lon="-6.953435"><ele>1133.25</ele><time>2026-04-24T10:39:03.407Z</time></trkpt><trkpt lat="30.9321483" lon="-6.9535667"><ele>1133.5</ele><time>2026-04-24T10:39:04.407Z</time></trkpt><trkpt lat="30.932195" lon="-6.9537017"><ele>1133.75</ele><time>2026-04-24T10:39:05.407Z</time></trkpt><trkpt lat="30.9322417" lon="-6.9538333"><ele>1134.0</ele><time>2026-04-24T10:39:06.407Z</time></trkpt><trkpt lat="30.9322883" lon="-6.9539667"><ele>1134.0</ele><time>2026-04-24T10:39:07.407Z</time></trkpt><trkpt lat="30.9323383" lon="-6.9541033"><ele>1134.0</ele><time>2026-04-24T10:39:08.407Z</time></trkpt><trkpt lat="30.9323883" lon="-6.9542333"><ele>1134.0</ele><time>2026-04-24T10:39:09.407Z</time></trkpt><trkpt lat="30.93244" lon="-6.9543617"><ele>1134.0</ele><time>2026-04-24T10:39:10.407Z</time></trkpt><trkpt lat="30.9324933" lon="-6.954495"><ele>1134.0</ele><time>2026-04-24T10:39:11.407Z</time></trkpt><trkpt lat="30.93255" lon="-6.954625"><ele>1134.0</ele><time>2026-04-24T10:39:12.407Z</time></trkpt><trkpt lat="30.932605" lon="-6.9547517"><ele>1134.0</ele><time>2026-04-24T10:39:13.407Z</time></trkpt><trkpt lat="30.932665" lon="-6.9548767"><ele>1134.0</ele><time>2026-04-24T10:39:14.407Z</time></trkpt><trkpt lat="30.932725" lon="-6.9550017"><ele>1134.25</ele><time>2026-04-24T10:39:15.407Z</time></trkpt><trkpt lat="30.932785" lon="-6.95513"><ele>1134.5</ele><time>2026-04-24T10:39:16.407Z</time></trkpt><trkpt lat="30.93285" lon="-6.9552617"><ele>1134.75</ele><time>2026-04-24T10:39:17.407Z</time></trkpt><trkpt lat="30.9329133" lon="-6.9553883"><ele>1135.0</ele><time>2026-04-24T10:39:18.407Z</time></trkpt><trkpt lat="30.93298" lon="-6.95551"><ele>1135.0</ele><time>2026-04-24T10:39:19.408Z</time></trkpt><trkpt lat="30.93305" lon="-6.9556367"><ele>1135.0</ele><time>2026-04-24T10:39:20.407Z</time></trkpt><trkpt lat="30.933125" lon="-6.9557583"><ele>1135.0</ele><time>2026-04-24T10:39:21.407Z</time></trkpt><trkpt lat="30.9331983" lon="-6.9558833"><ele>1135.0</ele><time>2026-04-24T10:39:22.407Z</time></trkpt><trkpt lat="30.933275" lon="-6.9560083"><ele>1135.0</ele><time>2026-04-24T10:39:23.407Z</time></trkpt><trkpt lat="30.9333517" lon="-6.9561317"><ele>1135.0</ele><time>2026-04-24T10:39:24.407Z</time></trkpt><trkpt lat="30.9334317" lon="-6.956255"><ele>1135.0</ele><time>2026-04-24T10:39:25.407Z</time></trkpt><trkpt lat="30.93351" lon="-6.9563783"><ele>1135.0</ele><time>2026-04-24T10:39:26.407Z</time></trkpt><trkpt lat="30.93359" lon="-6.9565017"><ele>1135.0</ele><time>2026-04-24T10:39:27.407Z</time></trkpt><trkpt lat="30.9336717" lon="-6.9566283"><ele>1135.0</ele><time>2026-04-24T10:39:28.407Z</time></trkpt><trkpt lat="30.93375" lon="-6.956755"><ele>1135.0</ele><time>2026-04-24T10:39:29.407Z</time></trkpt><trkpt lat="30.9338333" lon="-6.9568767"><ele>1135.0</ele><time>2026-04-24T10:39:30.407Z</time></trkpt><trkpt lat="30.9339183" lon="-6.9569967"><ele>1135.0</ele><time>2026-04-24T10:39:31.407Z</time></trkpt><trkpt lat="30.9340017" lon="-6.9571117"><ele>1135.0</ele><time>2026-04-24T10:39:32.407Z</time></trkpt><trkpt lat="30.9340817" lon="-6.9572333"><ele>1135.0</ele><time>2026-04-24T10:39:33.407Z</time></trkpt><trkpt lat="30.9341617" lon="-6.9573617"><ele>1135.0</ele><time>2026-04-24T10:39:34.407Z</time></trkpt><trkpt lat="30.93424" lon="-6.95749"><ele>1135.5</ele><time>2026-04-24T10:39:35.407Z</time></trkpt><trkpt lat="30.9343167" lon="-6.9576167"><ele>1136.0</ele><time>2026-04-24T10:39:36.407Z</time></trkpt><trkpt lat="30.9344017" lon="-6.9577467"><ele>1136.5</ele><time>2026-04-24T10:39:37.407Z</time></trkpt><trkpt lat="30.9344883" lon="-6.957875"><ele>1137.0</ele><time>2026-04-24T10:39:38.407Z</time></trkpt><trkpt lat="30.93457" lon="-6.9579983"><ele>1137.0</ele><time>2026-04-24T10:39:39.407Z</time></trkpt><trkpt lat="30.934655" lon="-6.958125"><ele>1137.0</ele><time>2026-04-24T10:39:40.407Z</time></trkpt><trkpt lat="30.93474" lon="-6.9582517"><ele>1137.0</ele><time>2026-04-24T10:39:41.407Z</time></trkpt><trkpt lat="30.9348267" lon="-6.9583783"><ele>1137.0</ele><time>2026-04-24T10:39:42.407Z</time></trkpt><trkpt lat="30.9349067" lon="-6.9585083"><ele>1136.5</ele><time>2026-04-24T10:39:43.407Z</time></trkpt><trkpt lat="30.934995" lon="-6.9586417"><ele>1136.0</ele><time>2026-04-24T10:39:44.408Z</time></trkpt><trkpt lat="30.9350817" lon="-6.9587733"><ele>1135.5</ele><time>2026-04-24T10:39:45.407Z</time></trkpt><trkpt lat="30.9351683" lon="-6.958905"><ele>1135.0</ele><time>2026-04-24T10:39:46.407Z</time></trkpt><trkpt lat="30.935255" lon="-6.959035"><ele>1135.0</ele><time>2026-04-24T10:39:47.407Z</time></trkpt><trkpt lat="30.93534" lon="-6.9591633"><ele>1135.0</ele><time>2026-04-24T10:39:48.407Z</time></trkpt><trkpt lat="30.9354233" lon="-6.9592967"><ele>1135.0</ele><time>2026-04-24T10:39:49.407Z</time></trkpt><trkpt lat="30.9355017" lon="-6.9594233"><ele>1135.0</ele><time>2026-04-24T10:39:50.407Z</time></trkpt><trkpt lat="30.9355717" lon="-6.9595433"><ele>1135.0</ele><time>2026-04-24T10:39:51.407Z</time></trkpt><trkpt lat="30.9356433" lon="-6.95966"><ele>1135.0</ele><time>2026-04-24T10:39:52.407Z</time></trkpt><trkpt lat="30.935715" lon="-6.9597733"><ele>1135.0</ele><time>2026-04-24T10:39:53.407Z</time></trkpt><trkpt lat="30.935785" lon="-6.959885"><ele>1135.0</ele><time>2026-04-24T10:39:54.407Z</time></trkpt><trkpt lat="30.9358567" lon="-6.9599983"><ele>1135.75</ele><time>2026-04-24T10:39:55.407Z</time></trkpt><trkpt lat="30.9359283" lon="-6.9601067"><ele>1136.5</ele><time>2026-04-24T10:39:56.407Z</time></trkpt><trkpt lat="30.936005" lon="-6.9602217"><ele>1137.25</ele><time>2026-04-24T10:39:57.407Z</time></trkpt><trkpt lat="30.93608" lon="-6.960335"><ele>1138.0</ele><time>2026-04-24T10:39:58.407Z</time></trkpt><trkpt lat="30.9361533" lon="-6.9604483"><ele>1138.0</ele><time>2026-04-24T10:39:59.407Z</time></trkpt><trkpt lat="30.936225" lon="-6.9605633"><ele>1138.0</ele><time>2026-04-24T10:40:00.407Z</time></trkpt><trkpt lat="30.9363033" lon="-6.96068"><ele>1138.0</ele><time>2026-04-24T10:40:01.408Z</time></trkpt><trkpt lat="30.9363783" lon="-6.9607933"><ele>1138.0</ele><time>2026-04-24T10:40:02.407Z</time></trkpt><trkpt lat="30.9364583" lon="-6.9609083"><ele>1138.5</ele><time>2026-04-24T10:40:03.407Z</time></trkpt><trkpt lat="30.9365333" lon="-6.9610233"><ele>1139.0</ele><time>2026-04-24T10:40:04.407Z</time></trkpt><trkpt lat="30.9366083" lon="-6.9611417"><ele>1139.5</ele><time>2026-04-24T10:40:05.407Z</time></trkpt><trkpt lat="30.9366817" lon="-6.96126"><ele>1140.0</ele><time>2026-04-24T10:40:06.407Z</time></trkpt><trkpt lat="30.9367567" lon="-6.961375"><ele>1140.25</ele><time>2026-04-24T10:40:07.407Z</time></trkpt><trkpt lat="30.93683" lon="-6.96149"><ele>1140.5</ele><time>2026-04-24T10:40:08.407Z</time></trkpt><trkpt lat="30.93691" lon="-6.9616017"><ele>1140.75</ele><time>2026-04-24T10:40:09.407Z</time></trkpt><trkpt lat="30.9369833" lon="-6.961715"><ele>1141.0</ele><time>2026-04-24T10:40:10.407Z</time></trkpt><trkpt lat="30.9370567" lon="-6.961825"><ele>1141.75</ele><time>2026-04-24T10:40:11.407Z</time></trkpt><trkpt lat="30.9371267" lon="-6.961935"><ele>1142.5</ele><time>2026-04-24T10:40:12.407Z</time></trkpt><trkpt lat="30.9372033" lon="-6.9620433"><ele>1143.25</ele><time>2026-04-24T10:40:13.407Z</time></trkpt><trkpt lat="30.9372817" lon="-6.962155"><ele>1144.0</ele><time>2026-04-24T10:40:14.407Z</time></trkpt><trkpt lat="30.9373533" lon="-6.9622717"><ele>1144.0</ele><time>2026-04-24T10:40:15.407Z</time></trkpt><trkpt lat="30.9374283" lon="-6.9623883"><ele>1144.0</ele><time>2026-04-24T10:40:16.407Z</time></trkpt><trkpt lat="30.9374967" lon="-6.962515"><ele>1144.0</ele><time>2026-04-24T10:40:17.407Z</time></trkpt><trkpt lat="30.9375583" lon="-6.9626483"><ele>1144.0</ele><time>2026-04-24T10:40:18.407Z</time></trkpt><trkpt lat="30.937615" lon="-6.9627817"><ele>1143.75</ele><time>2026-04-24T10:40:19.407Z</time></trkpt><trkpt lat="30.9376683" lon="-6.9629217"><ele>1143.5</ele><time>2026-04-24T10:40:20.407Z</time></trkpt><trkpt lat="30.93773" lon="-6.96306"><ele>1143.25</ele><time>2026-04-24T10:40:21.407Z</time></trkpt><trkpt lat="30.9377833" lon="-6.9632033"><ele>1143.0</ele><time>2026-04-24T10:40:22.407Z</time></trkpt><trkpt lat="30.9378267" lon="-6.9633483"><ele>1142.25</ele><time>2026-04-24T10:40:23.407Z</time></trkpt><trkpt lat="30.9378667" lon="-6.9634817"><ele>1141.5</ele><time>2026-04-24T10:40:24.407Z</time></trkpt><trkpt lat="30.9379" lon="-6.9636117"><ele>1140.75</ele><time>2026-04-24T10:40:25.407Z</time></trkpt><trkpt lat="30.9379367" lon="-6.9637433"><ele>1140.0</ele><time>2026-04-24T10:40:26.407Z</time></trkpt><trkpt lat="30.9379667" lon="-6.9638767"><ele>1140.0</ele><time>2026-04-24T10:40:27.407Z</time></trkpt><trkpt lat="30.93799" lon="-6.9640133"><ele>1140.0</ele><time>2026-04-24T10:40:28.407Z</time></trkpt><trkpt lat="30.9380117" lon="-6.9641483"><ele>1140.0</ele><time>2026-04-24T10:40:29.407Z</time></trkpt><trkpt lat="30.938035" lon="-6.964275"><ele>1140.0</ele><time>2026-04-24T10:40:30.407Z</time></trkpt><trkpt lat="30.938055" lon="-6.964395"><ele>1140.8</ele><time>2026-04-24T10:40:31.407Z</time></trkpt><trkpt lat="30.9380633" lon="-6.9645133"><ele>1141.6</ele><time>2026-04-24T10:40:32.407Z</time></trkpt><trkpt lat="30.9380833" lon="-6.9646283"><ele>1142.4</ele><time>2026-04-24T10:40:33.407Z</time></trkpt><trkpt lat="30.9381033" lon="-6.9647467"><ele>1143.2</ele><time>2026-04-24T10:40:34.407Z</time></trkpt><trkpt lat="30.9381217" lon="-6.964865"><ele>1144.0</ele><time>2026-04-24T10:40:35.407Z</time></trkpt><trkpt lat="30.938135" lon="-6.9649767"><ele>1144.8</ele><time>2026-04-24T10:40:36.407Z</time></trkpt><trkpt lat="30.9381483" lon="-6.9650867"><ele>1145.6000000000001</ele><time>2026-04-24T10:40:37.407Z</time></trkpt><trkpt lat="30.93816" lon="-6.9651967"><ele>1146.4</ele><time>2026-04-24T10:40:38.407Z</time></trkpt><trkpt lat="30.93817" lon="-6.9653117"><ele>1147.2</ele><time>2026-04-24T10:40:39.407Z</time></trkpt><trkpt lat="30.938175" lon="-6.9654317"><ele>1148.0</ele><time>2026-04-24T10:40:40.407Z</time></trkpt><trkpt lat="30.9381883" lon="-6.9655483"><ele>1148.0</ele><time>2026-04-24T10:40:41.407Z</time></trkpt><trkpt lat="30.9382" lon="-6.96567"><ele>1148.0</ele><time>2026-04-24T10:40:42.407Z</time></trkpt><trkpt lat="30.9382167" lon="-6.9657917"><ele>1148.0</ele><time>2026-04-24T10:40:43.407Z</time></trkpt><trkpt lat="30.9382267" lon="-6.9659117"><ele>1148.0</ele><time>2026-04-24T10:40:44.407Z</time></trkpt><trkpt lat="30.9382467" lon="-6.96604"><ele>1148.0</ele><time>2026-04-24T10:40:45.407Z</time></trkpt><trkpt lat="30.93826" lon="-6.966165"><ele>1148.4</ele><time>2026-04-24T10:40:46.407Z</time></trkpt><trkpt lat="30.9382717" lon="-6.9662883"><ele>1148.8</ele><time>2026-04-24T10:40:47.407Z</time></trkpt><trkpt lat="30.93829" lon="-6.9664117"><ele>1149.2</ele><time>2026-04-24T10:40:48.407Z</time></trkpt><trkpt lat="30.93831" lon="-6.96654"><ele>1149.6</ele><time>2026-04-24T10:40:49.407Z</time></trkpt><trkpt lat="30.9383233" lon="-6.9666567"><ele>1150.0</ele><time>2026-04-24T10:40:50.407Z</time></trkpt><trkpt lat="30.93834" lon="-6.9667633"><ele>1150.5</ele><time>2026-04-24T10:40:51.407Z</time></trkpt><trkpt lat="30.9383533" lon="-6.9668617"><ele>1151.0</ele><time>2026-04-24T10:40:52.407Z</time></trkpt><trkpt lat="30.9383633" lon="-6.966955"><ele>1151.5</ele><time>2026-04-24T10:40:53.407Z</time></trkpt><trkpt lat="30.9383717" lon="-6.9670417"><ele>1152.0</ele><time>2026-04-24T10:40:54.407Z</time></trkpt><trkpt lat="30.9383767" lon="-6.967115"><ele>1152.5</ele><time>2026-04-24T10:40:55.407Z</time></trkpt><trkpt lat="30.938405" lon="-6.9672217"><ele>1153.0</ele><time>2026-04-24T10:40:57.408Z</time></trkpt><trkpt lat="30.9384933" lon="-6.9672583"><ele>1151.6666666666665</ele><time>2026-04-24T10:40:59.407Z</time></trkpt><trkpt lat="30.938605" lon="-6.967265"><ele>1150.3333333333333</ele><time>2026-04-24T10:41:01.407Z</time></trkpt><trkpt lat="30.9386783" lon="-6.9672567"><ele>1149.0</ele><time>2026-04-24T10:41:02.407Z</time></trkpt><trkpt lat="30.9387517" lon="-6.96724"><ele>1147.6666666666667</ele><time>2026-04-24T10:41:03.407Z</time></trkpt><trkpt lat="30.9388267" lon="-6.9672283"><ele>1146.3333333333335</ele><time>2026-04-24T10:41:04.407Z</time></trkpt><trkpt lat="30.9388967" lon="-6.96722"><ele>1145.0</ele><time>2026-04-24T10:41:05.407Z</time></trkpt><trkpt lat="30.9389683" lon="-6.9672133"><ele>1145.0</ele><time>2026-04-24T10:41:06.407Z</time></trkpt><trkpt lat="30.9390417" lon="-6.967205"><ele>1145.0</ele><time>2026-04-24T10:41:07.407Z</time></trkpt><trkpt lat="30.9391133" lon="-6.967195"><ele>1145.0</ele><time>2026-04-24T10:41:08.407Z</time></trkpt><trkpt lat="30.9391817" lon="-6.96719"><ele>1145.0</ele><time>2026-04-24T10:41:09.407Z</time></trkpt><trkpt lat="30.9393" lon="-6.9671817"><ele>1145.0</ele><time>2026-04-24T10:41:11.407Z</time></trkpt><trkpt lat="30.9394133" lon="-6.9671667"><ele>1145.0</ele><time>2026-04-24T10:41:13.407Z</time></trkpt><trkpt lat="30.939525" lon="-6.9671517"><ele>1145.0</ele><time>2026-04-24T10:41:15.407Z</time></trkpt><trkpt lat="30.9396267" lon="-6.9671317"><ele>1145.0</ele><time>2026-04-24T10:41:17.407Z</time></trkpt><trkpt lat="30.9397417" lon="-6.967115"><ele>1145.0</ele><time>2026-04-24T10:41:19.407Z</time></trkpt><trkpt lat="30.9398567" lon="-6.9670983"><ele>1145.0</ele><time>2026-04-24T10:41:21.407Z</time></trkpt><trkpt lat="30.9399317" lon="-6.9670867"><ele>1145.0</ele><time>2026-04-24T10:41:23.407Z</time></trkpt><trkpt lat="30.94004" lon="-6.967065"><ele>1145.3333333333335</ele><time>2026-04-24T10:41:56.407Z</time></trkpt><trkpt lat="30.9401017" lon="-6.967035"><ele>1145.6666666666667</ele><time>2026-04-24T10:41:59.407Z</time></trkpt><trkpt lat="30.94013" lon="-6.96695"><ele>1146.0</ele><time>2026-04-24T10:42:01.407Z</time></trkpt><trkpt lat="30.9401267" lon="-6.9668233"><ele>1146.3333333333333</ele><time>2026-04-24T10:42:03.407Z</time></trkpt><trkpt lat="30.9401117" lon="-6.9667517"><ele>1146.6666666666665</ele><time>2026-04-24T10:42:04.407Z</time></trkpt><trkpt lat="30.94009" lon="-6.9666717"><ele>1147.0</ele><time>2026-04-24T10:42:05.407Z</time></trkpt><trkpt lat="30.9400767" lon="-6.9665817"><ele>1147.0</ele><time>2026-04-24T10:42:06.408Z</time></trkpt><trkpt lat="30.940075" lon="-6.96649"><ele>1147.0</ele><time>2026-04-24T10:42:07.407Z</time></trkpt><trkpt lat="30.9400767" lon="-6.9664033"><ele>1147.0</ele><time>2026-04-24T10:42:08.407Z</time></trkpt><trkpt lat="30.9400867" lon="-6.96631"><ele>1147.0</ele><time>2026-04-24T10:42:09.407Z</time></trkpt><trkpt lat="30.9401033" lon="-6.9662183"><ele>1147.0</ele><time>2026-04-24T10:42:10.407Z</time></trkpt><trkpt lat="30.940125" lon="-6.966135"><ele>1147.0</ele><time>2026-04-24T10:42:11.407Z</time></trkpt><trkpt lat="30.94015" lon="-6.9660567"><ele>1147.0</ele><time>2026-04-24T10:42:12.407Z</time></trkpt><trkpt lat="30.9401717" lon="-6.9659833"><ele>1147.0</ele><time>2026-04-24T10:42:13.407Z</time></trkpt><trkpt lat="30.94018" lon="-6.9658983"><ele>1147.0</ele><time>2026-04-24T10:42:14.407Z</time></trkpt><trkpt lat="30.940185" lon="-6.9658033"><ele>1147.0</ele><time>2026-04-24T10:42:15.407Z</time></trkpt><trkpt lat="30.9401867" lon="-6.9656967"><ele>1147.0</ele><time>2026-04-24T10:42:16.407Z</time></trkpt><trkpt lat="30.94019" lon="-6.965585"><ele>1147.0</ele><time>2026-04-24T10:42:17.408Z</time></trkpt><trkpt lat="30.9401933" lon="-6.9654617"><ele>1147.1666666666665</ele><time>2026-04-24T10:42:18.407Z</time></trkpt><trkpt lat="30.9402" lon="-6.9653467"><ele>1147.3333333333333</ele><time>2026-04-24T10:42:19.407Z</time></trkpt><trkpt lat="30.940205" lon="-6.9652467"><ele>1147.5</ele><time>2026-04-24T10:42:20.407Z</time></trkpt><trkpt lat="30.9402033" lon="-6.9651517"><ele>1147.6666666666667</ele><time>2026-04-24T10:42:21.407Z</time></trkpt><trkpt lat="30.9401933" lon="-6.9650583"><ele>1147.8333333333335</ele><time>2026-04-24T10:42:22.407Z</time></trkpt><trkpt lat="30.9401833" lon="-6.9649783"><ele>1148.0</ele><time>2026-04-24T10:42:23.407Z</time></trkpt><trkpt lat="30.94019" lon="-6.9648633"><ele>1148.0</ele><time>2026-04-24T10:42:25.407Z</time></trkpt><trkpt lat="30.940245" lon="-6.9647717"><ele>1148.0</ele><time>2026-04-24T10:42:27.407Z</time></trkpt><trkpt lat="30.9403183" lon="-6.9646367"><ele>1148.0</ele><time>2026-04-24T10:42:29.407Z</time></trkpt><trkpt lat="30.940355" lon="-6.9645717"><ele>1148.0</ele><time>2026-04-24T10:42:30.406Z</time></trkpt><trkpt lat="30.940415" lon="-6.9645017"><ele>1148.0</ele><time>2026-04-24T10:42:32.406Z</time></trkpt><trkpt lat="30.9404817" lon="-6.9644583"><ele>1148.0</ele><time>2026-04-24T10:42:35.406Z</time></trkpt><trkpt lat="30.94055" lon="-6.96442"><ele>1148.0</ele><time>2026-04-24T10:43:21.406Z</time></trkpt><trkpt lat="30.9404967" lon="-6.964375"><ele>1148.0</ele><time>2026-04-24T10:43:25.406Z</time></trkpt><trkpt lat="30.9404383" lon="-6.964425"><ele>1148.0</ele><time>2026-04-24T10:43:28.406Z</time></trkpt><trkpt lat="30.9403767" lon="-6.9645467"><ele>1148.0</ele><time>2026-04-24T10:44:20.406Z</time></trkpt><trkpt lat="30.9403317" lon="-6.9646417"><ele>1148.0</ele><time>2026-04-24T10:44:22.406Z</time></trkpt><trkpt lat="30.9402617" lon="-6.964765"><ele>1148.0</ele><time>2026-04-24T10:44:24.406Z</time></trkpt><trkpt lat="30.9401967" lon="-6.9648683"><ele>1148.0</ele><time>2026-04-24T10:44:26.406Z</time></trkpt><trkpt lat="30.9401817" lon="-6.9649567"><ele>1148.0</ele><time>2026-04-24T10:44:28.407Z</time></trkpt><trkpt lat="30.9402133" lon="-6.9650783"><ele>1148.0</ele><time>2026-04-24T10:44:30.406Z</time></trkpt><trkpt lat="30.9402183" lon="-6.9651517"><ele>1148.0</ele><time>2026-04-24T10:44:31.406Z</time></trkpt><trkpt lat="30.9402217" lon="-6.965235"><ele>1148.0</ele><time>2026-04-24T10:44:32.406Z</time></trkpt><trkpt lat="30.940215" lon="-6.9653317"><ele>1147.8333333333335</ele><time>2026-04-24T10:44:33.406Z</time></trkpt><trkpt lat="30.9402167" lon="-6.9654333"><ele>1147.6666666666667</ele><time>2026-04-24T10:44:34.406Z</time></trkpt><trkpt lat="30.9402133" lon="-6.9655383"><ele>1147.5</ele><time>2026-04-24T10:44:35.406Z</time></trkpt><trkpt lat="30.9402117" lon="-6.9656283"><ele>1147.3333333333333</ele><time>2026-04-24T10:44:36.406Z</time></trkpt><trkpt lat="30.940215" lon="-6.9657167"><ele>1147.1666666666665</ele><time>2026-04-24T10:44:37.406Z</time></trkpt><trkpt lat="30.9402183" lon="-6.9658"><ele>1147.0</ele><time>2026-04-24T10:44:38.406Z</time></trkpt><trkpt lat="30.9402267" lon="-6.9658833"><ele>1147.0</ele><time>2026-04-24T10:44:39.407Z</time></trkpt><trkpt lat="30.9402367" lon="-6.9659667"><ele>1147.0</ele><time>2026-04-24T10:44:40.406Z</time></trkpt><trkpt lat="30.9402417" lon="-6.9660433"><ele>1147.0</ele><time>2026-04-24T10:44:41.407Z</time></trkpt><trkpt lat="30.940245" lon="-6.9661183"><ele>1147.0</ele><time>2026-04-24T10:44:42.406Z</time></trkpt><trkpt lat="30.940255" lon="-6.9662467"><ele>1147.0</ele><time>2026-04-24T10:44:44.406Z</time></trkpt><trkpt lat="30.9403033" lon="-6.9663483"><ele>1147.0</ele><time>2026-04-24T10:44:46.406Z</time></trkpt><trkpt lat="30.9403567" lon="-6.9664317"><ele>1147.0</ele><time>2026-04-24T10:44:48.406Z</time></trkpt><trkpt lat="30.9403933" lon="-6.9665233"><ele>1147.0</ele><time>2026-04-24T10:44:50.406Z</time></trkpt><trkpt lat="30.9404183" lon="-6.96662"><ele>1147.0</ele><time>2026-04-24T10:44:52.406Z</time></trkpt><trkpt lat="30.940445" lon="-6.9667067"><ele>1147.0</ele><time>2026-04-24T10:44:54.406Z</time></trkpt><trkpt lat="30.940475" lon="-6.9667717"><ele>1147.0</ele><time>2026-04-24T10:44:56.406Z</time></trkpt><trkpt lat="30.9405017" lon="-6.9668533"><ele>1147.0</ele><time>2026-04-24T10:45:00.406Z</time></trkpt><trkpt lat="30.9405367" lon="-6.966915"><ele>1147.0</ele><time>2026-04-24T10:45:19.406Z</time></trkpt><trkpt lat="30.940565" lon="-6.9670117"><ele>1147.0</ele><time>2026-04-24T10:45:23.406Z</time></trkpt><trkpt lat="30.940575" lon="-6.9670917"><ele>1147.0</ele><time>2026-04-24T10:45:26.407Z</time></trkpt><trkpt lat="30.9405967" lon="-6.9671767"><ele>1147.0</ele><time>2026-04-24T10:45:29.407Z</time></trkpt><trkpt lat="30.9406383" lon="-6.9672383"><ele>1147.0</ele><time>2026-04-24T10:45:32.406Z</time></trkpt><trkpt lat="30.9406817" lon="-6.967295"><ele>1147.0</ele><time>2026-04-24T10:45:35.406Z</time></trkpt><trkpt lat="30.9406933" lon="-6.9674333"><ele>1146.6</ele><time>2026-04-24T10:53:36.404Z</time></trkpt><trkpt lat="30.9406983" lon="-6.9675433"><ele>1146.2</ele><time>2026-04-24T10:53:38.404Z</time></trkpt><trkpt lat="30.9407183" lon="-6.9676683"><ele>1145.8</ele><time>2026-04-24T10:53:40.404Z</time></trkpt><trkpt lat="30.9407533" lon="-6.967805"><ele>1145.4</ele><time>2026-04-24T10:53:42.405Z</time></trkpt><trkpt lat="30.940775" lon="-6.9678783"><ele>1145.0</ele><time>2026-04-24T10:53:43.404Z</time></trkpt><trkpt lat="30.940795" lon="-6.967955"><ele>1145.0000000000002</ele><time>2026-04-24T10:53:44.404Z</time></trkpt><trkpt lat="30.9408133" lon="-6.9680333"><ele>1145.0</ele><time>2026-04-24T10:53:45.404Z</time></trkpt><trkpt lat="30.9408233" lon="-6.9681133"><ele>1145.0</ele><time>2026-04-24T10:53:46.404Z</time></trkpt><trkpt lat="30.94084" lon="-6.9682017"><ele>1145.0</ele><time>2026-04-24T10:53:47.404Z</time></trkpt><trkpt lat="30.9408567" lon="-6.968285"><ele>1145.0</ele><time>2026-04-24T10:53:48.404Z</time></trkpt><trkpt lat="30.94087" lon="-6.9683617"><ele>1145.0000000000002</ele><time>2026-04-24T10:53:49.404Z</time></trkpt><trkpt lat="30.9408833" lon="-6.96844"><ele>1145.0</ele><time>2026-04-24T10:53:50.404Z</time></trkpt><trkpt lat="30.9408983" lon="-6.968525"><ele>1145.6666666666667</ele><time>2026-04-24T10:53:51.404Z</time></trkpt><trkpt lat="30.9409117" lon="-6.9686083"><ele>1146.3333333333335</ele><time>2026-04-24T10:53:52.404Z</time></trkpt><trkpt lat="30.9409283" lon="-6.9686917"><ele>1147.0</ele><time>2026-04-24T10:53:53.404Z</time></trkpt><trkpt lat="30.940945" lon="-6.968775"><ele>1147.6666666666667</ele><time>2026-04-24T10:53:54.404Z</time></trkpt><trkpt lat="30.9409617" lon="-6.9689133"><ele>1148.3333333333333</ele><time>2026-04-24T10:53:56.404Z</time></trkpt><trkpt lat="30.9409767" lon="-6.9690283"><ele>1149.0</ele><time>2026-04-24T10:53:58.404Z</time></trkpt><trkpt lat="30.9410117" lon="-6.9691267"><ele>1149.5</ele><time>2026-04-24T10:54:00.404Z</time></trkpt><trkpt lat="30.9410517" lon="-6.96922"><ele>1150.0</ele><time>2026-04-24T10:54:02.404Z</time></trkpt><trkpt lat="30.9411" lon="-6.9693367"><ele>1150.5</ele><time>2026-04-24T10:54:04.404Z</time></trkpt><trkpt lat="30.9411283" lon="-6.9694067"><ele>1151.0</ele><time>2026-04-24T10:54:05.404Z</time></trkpt><trkpt lat="30.9411517" lon="-6.96948"><ele>1151.5</ele><time>2026-04-24T10:54:06.405Z</time></trkpt><trkpt lat="30.941175" lon="-6.969555"><ele>1152.0</ele><time>2026-04-24T10:54:07.404Z</time></trkpt><trkpt lat="30.941205" lon="-6.9696333"><ele>1152.0000000000002</ele><time>2026-04-24T10:54:08.404Z</time></trkpt><trkpt lat="30.9412367" lon="-6.9697117"><ele>1152.0</ele><time>2026-04-24T10:54:09.404Z</time></trkpt><trkpt lat="30.9412667" lon="-6.9697983"><ele>1152.0</ele><time>2026-04-24T10:54:10.404Z</time></trkpt><trkpt lat="30.94129" lon="-6.9698833"><ele>1152.0</ele><time>2026-04-24T10:54:11.404Z</time></trkpt><trkpt lat="30.9413117" lon="-6.9699683"><ele>1152.0</ele><time>2026-04-24T10:54:12.404Z</time></trkpt><trkpt lat="30.9413167" lon="-6.97005"><ele>1152.0000000000002</ele><time>2026-04-24T10:54:13.404Z</time></trkpt><trkpt lat="30.9413033" lon="-6.9701233"><ele>1152.0</ele><time>2026-04-24T10:54:14.404Z</time></trkpt><trkpt lat="30.9412683" lon="-6.9702617"><ele>1152.1666666666667</ele><time>2026-04-24T10:54:16.404Z</time></trkpt><trkpt lat="30.9412267" lon="-6.9703967"><ele>1152.3333333333333</ele><time>2026-04-24T10:54:18.404Z</time></trkpt><trkpt lat="30.9412" lon="-6.970475"><ele>1152.5</ele><time>2026-04-24T10:54:19.404Z</time></trkpt><trkpt lat="30.941175" lon="-6.9705567"><ele>1152.6666666666665</ele><time>2026-04-24T10:54:20.404Z</time></trkpt><trkpt lat="30.9411583" lon="-6.97065"><ele>1152.8333333333333</ele><time>2026-04-24T10:54:21.404Z</time></trkpt><trkpt lat="30.9411483" lon="-6.9707483"><ele>1153.0</ele><time>2026-04-24T10:54:22.404Z</time></trkpt><trkpt lat="30.94116" lon="-6.9708417"><ele>1153.5</ele><time>2026-04-24T10:54:23.404Z</time></trkpt><trkpt lat="30.941175" lon="-6.970935"><ele>1154.0</ele><time>2026-04-24T10:54:24.404Z</time></trkpt><trkpt lat="30.941185" lon="-6.9710267"><ele>1154.5</ele><time>2026-04-24T10:54:25.404Z</time></trkpt><trkpt lat="30.9411917" lon="-6.97111"><ele>1155.0</ele><time>2026-04-24T10:54:26.404Z</time></trkpt><trkpt lat="30.941195" lon="-6.9711867"><ele>1155.5</ele><time>2026-04-24T10:54:27.404Z</time></trkpt><trkpt lat="30.94118" lon="-6.971295"><ele>1156.0</ele><time>2026-04-24T10:54:29.403Z</time></trkpt><trkpt lat="30.94114" lon="-6.971395"><ele>1156.0</ele><time>2026-04-24T10:54:32.403Z</time></trkpt><trkpt lat="30.94108" lon="-6.9714867"><ele>1156.0</ele><time>2026-04-24T10:54:34.404Z</time></trkpt><trkpt lat="30.94098" lon="-6.97156"><ele>1156.0</ele><time>2026-04-24T10:54:36.403Z</time></trkpt><trkpt lat="30.94092" lon="-6.9715917"><ele>1156.0</ele><time>2026-04-24T10:54:37.403Z</time></trkpt><trkpt lat="30.9408533" lon="-6.97163"><ele>1156.0</ele><time>2026-04-24T10:54:38.403Z</time></trkpt><trkpt lat="30.9407917" lon="-6.9716833"><ele>1156.0</ele><time>2026-04-24T10:54:39.403Z</time></trkpt><trkpt lat="30.94075" lon="-6.9717467"><ele>1156.6666666666665</ele><time>2026-04-24T10:54:40.403Z</time></trkpt><trkpt lat="30.940725" lon="-6.9718183"><ele>1157.3333333333333</ele><time>2026-04-24T10:54:41.403Z</time></trkpt><trkpt lat="30.9407117" lon="-6.9719183"><ele>1158.0</ele><time>2026-04-24T10:54:43.403Z</time></trkpt><trkpt lat="30.940665" lon="-6.9719867"><ele>1158.6666666666667</ele><time>2026-04-24T10:54:47.403Z</time></trkpt><trkpt lat="30.9406067" lon="-6.9719267"><ele>1159.3333333333335</ele><time>2026-04-24T10:54:51.403Z</time></trkpt><trkpt lat="30.9406717" lon="-6.971845"><ele>1160.0</ele><time>2026-04-24T10:54:55.403Z</time></trkpt><trkpt lat="30.9407183" lon="-6.9717783"><ele>1160.0</ele><time>2026-04-24T10:54:57.403Z</time></trkpt><trkpt lat="30.9407817" lon="-6.9716983"><ele>1160.0</ele><time>2026-04-24T10:54:59.403Z</time></trkpt><trkpt lat="30.94087" lon="-6.971625"><ele>1160.0</ele><time>2026-04-24T10:55:01.403Z</time></trkpt><trkpt lat="30.9409567" lon="-6.9715567"><ele>1160.0</ele><time>2026-04-24T10:55:03.403Z</time></trkpt><trkpt lat="30.941055" lon="-6.9714917"><ele>1160.0</ele><time>2026-04-24T10:55:05.403Z</time></trkpt><trkpt lat="30.9411483" lon="-6.9713983"><ele>1159.2</ele><time>2026-04-24T10:55:07.403Z</time></trkpt><trkpt lat="30.94123" lon="-6.9713067"><ele>1158.4</ele><time>2026-04-24T10:55:09.404Z</time></trkpt><trkpt lat="30.9412983" lon="-6.97124"><ele>1157.6</ele><time>2026-04-24T10:55:11.403Z</time></trkpt><trkpt lat="30.9413783" lon="-6.9711833"><ele>1156.8</ele><time>2026-04-24T10:55:13.403Z</time></trkpt><trkpt lat="30.9414833" lon="-6.9711233"><ele>1156.0</ele><time>2026-04-24T10:55:15.403Z</time></trkpt><trkpt lat="30.94154" lon="-6.9710883"><ele>1156.0</ele><time>2026-04-24T10:55:16.403Z</time></trkpt><trkpt lat="30.9415967" lon="-6.9710517"><ele>1156.0</ele><time>2026-04-24T10:55:17.403Z</time></trkpt><trkpt lat="30.94171" lon="-6.97099"><ele>1156.0</ele><time>2026-04-24T10:55:19.403Z</time></trkpt><trkpt lat="30.9418233" lon="-6.9709333"><ele>1156.0</ele><time>2026-04-24T10:55:21.403Z</time></trkpt><trkpt lat="30.9419367" lon="-6.9708717"><ele>1156.0</ele><time>2026-04-24T10:55:23.403Z</time></trkpt><trkpt lat="30.9419967" lon="-6.970845"><ele>1155.3333333333333</ele><time>2026-04-24T10:55:24.403Z</time></trkpt><trkpt lat="30.9420533" lon="-6.970805"><ele>1154.6666666666665</ele><time>2026-04-24T10:55:25.403Z</time></trkpt><trkpt lat="30.9421167" lon="-6.9707667"><ele>1154.0</ele><time>2026-04-24T10:55:26.403Z</time></trkpt><trkpt lat="30.9421867" lon="-6.9707233"><ele>1153.3333333333333</ele><time>2026-04-24T10:55:27.403Z</time></trkpt><trkpt lat="30.942255" lon="-6.97068"><ele>1152.6666666666667</ele><time>2026-04-24T10:55:28.403Z</time></trkpt><trkpt lat="30.94233" lon="-6.970635"><ele>1152.0</ele><time>2026-04-24T10:55:29.403Z</time></trkpt><trkpt lat="30.9424033" lon="-6.9705883"><ele>1152.0</ele><time>2026-04-24T10:55:30.403Z</time></trkpt><trkpt lat="30.9424733" lon="-6.9705333"><ele>1152.0</ele><time>2026-04-24T10:55:31.403Z</time></trkpt><trkpt lat="30.9425383" lon="-6.9704767"><ele>1152.0</ele><time>2026-04-24T10:55:32.403Z</time></trkpt><trkpt lat="30.9425967" lon="-6.97043"><ele>1152.0</ele><time>2026-04-24T10:55:33.403Z</time></trkpt><trkpt lat="30.9426417" lon="-6.9703783"><ele>1152.0</ele><time>2026-04-24T10:55:34.403Z</time></trkpt><trkpt lat="30.9426917" lon="-6.9702983"><ele>1152.0</ele><time>2026-04-24T10:55:36.403Z</time></trkpt><trkpt lat="30.9427133" lon="-6.9702117"><ele>1152.0</ele><time>2026-04-24T10:55:38.403Z</time></trkpt><trkpt lat="30.9427417" lon="-6.970085"><ele>1152.0</ele><time>2026-04-24T10:55:40.403Z</time></trkpt><trkpt lat="30.9427533" lon="-6.9700083"><ele>1152.0</ele><time>2026-04-24T10:55:41.403Z</time></trkpt><trkpt lat="30.94276" lon="-6.9699333"><ele>1152.0</ele><time>2026-04-24T10:55:42.403Z</time></trkpt><trkpt lat="30.9427883" lon="-6.9698117"><ele>1152.0</ele><time>2026-04-24T10:55:44.403Z</time></trkpt><trkpt lat="30.94284" lon="-6.96975"><ele>1152.0</ele><time>2026-04-24T10:55:46.403Z</time></trkpt><trkpt lat="30.9429233" lon="-6.969735"><ele>1151.6666666666667</ele><time>2026-04-24T10:55:49.403Z</time></trkpt><trkpt lat="30.9429933" lon="-6.9697617"><ele>1151.3333333333333</ele><time>2026-04-24T10:55:51.403Z</time></trkpt><trkpt lat="30.9430617" lon="-6.9697967"><ele>1151.0</ele><time>2026-04-24T10:55:53.403Z</time></trkpt><trkpt lat="30.9431633" lon="-6.969845"><ele>1150.6666666666665</ele><time>2026-04-24T10:55:55.403Z</time></trkpt><trkpt lat="30.9432267" lon="-6.9698667"><ele>1150.3333333333333</ele><time>2026-04-24T10:55:56.403Z</time></trkpt><trkpt lat="30.9432933" lon="-6.9698817"><ele>1150.0</ele><time>2026-04-24T10:55:57.403Z</time></trkpt><trkpt lat="30.9434017" lon="-6.9698983"><ele>1150.0</ele><time>2026-04-24T10:55:59.403Z</time></trkpt><trkpt lat="30.9434783" lon="-6.9699067"><ele>1150.0</ele><time>2026-04-24T10:56:01.403Z</time></trkpt><trkpt lat="30.9435633" lon="-6.9698933"><ele>1150.0</ele><time>2026-04-24T10:56:03.403Z</time></trkpt><trkpt lat="30.9436783" lon="-6.969845"><ele>1150.0</ele><time>2026-04-24T10:56:05.403Z</time></trkpt><trkpt lat="30.943795" lon="-6.9698067"><ele>1150.0</ele><time>2026-04-24T10:56:07.403Z</time></trkpt><trkpt lat="30.9438567" lon="-6.969775"><ele>1150.0</ele><time>2026-04-24T10:56:08.404Z</time></trkpt><trkpt lat="30.943925" lon="-6.969745"><ele>1150.0</ele><time>2026-04-24T10:56:09.403Z</time></trkpt><trkpt lat="30.94399" lon="-6.9697133"><ele>1150.0</ele><time>2026-04-24T10:56:10.403Z</time></trkpt><trkpt lat="30.9440567" lon="-6.9696817"><ele>1150.0</ele><time>2026-04-24T10:56:11.403Z</time></trkpt><trkpt lat="30.9441267" lon="-6.969655"><ele>1150.0</ele><time>2026-04-24T10:56:12.403Z</time></trkpt><trkpt lat="30.9441933" lon="-6.969625"><ele>1150.0</ele><time>2026-04-24T10:56:13.403Z</time></trkpt><trkpt lat="30.9442917" lon="-6.9695767"><ele>1150.0</ele><time>2026-04-24T10:56:15.404Z</time></trkpt><trkpt lat="30.944395" lon="-6.9695333"><ele>1150.0</ele><time>2026-04-24T10:56:17.403Z</time></trkpt><trkpt lat="30.9445083" lon="-6.9694883"><ele>1150.0</ele><time>2026-04-24T10:56:19.403Z</time></trkpt><trkpt lat="30.94457" lon="-6.9694633"><ele>1150.0</ele><time>2026-04-24T10:56:20.403Z</time></trkpt><trkpt lat="30.9446317" lon="-6.9694433"><ele>1150.0</ele><time>2026-04-24T10:56:21.403Z</time></trkpt><trkpt lat="30.944695" lon="-6.9694283"><ele>1150.0</ele><time>2026-04-24T10:56:22.403Z</time></trkpt><trkpt lat="30.9448267" lon="-6.9694283"><ele>1150.0</ele><time>2026-04-24T10:56:24.403Z</time></trkpt><trkpt lat="30.9448967" lon="-6.96943"><ele>1150.0</ele><time>2026-04-24T10:56:25.403Z</time></trkpt><trkpt lat="30.9449617" lon="-6.9694233"><ele>1150.0</ele><time>2026-04-24T10:56:26.403Z</time></trkpt><trkpt lat="30.94503" lon="-6.9694133"><ele>1150.0</ele><time>2026-04-24T10:56:27.403Z</time></trkpt><trkpt lat="30.9450983" lon="-6.9694017"><ele>1150.0</ele><time>2026-04-24T10:56:28.403Z</time></trkpt><trkpt lat="30.9451983" lon="-6.9693867"><ele>1150.0</ele><time>2026-04-24T10:56:30.403Z</time></trkpt><trkpt lat="30.9452867" lon="-6.9693867"><ele>1149.6</ele><time>2026-04-24T10:56:32.403Z</time></trkpt><trkpt lat="30.9454233" lon="-6.9693883"><ele>1149.2</ele><time>2026-04-24T10:56:34.403Z</time></trkpt><trkpt lat="30.945515" lon="-6.9693983"><ele>1148.8</ele><time>2026-04-24T10:56:35.403Z</time></trkpt><trkpt lat="30.9456033" lon="-6.9694133"><ele>1148.4</ele><time>2026-04-24T10:56:36.403Z</time></trkpt><trkpt lat="30.9456933" lon="-6.9694317"><ele>1148.0</ele><time>2026-04-24T10:56:37.403Z</time></trkpt><trkpt lat="30.9457783" lon="-6.9694317"><ele>1148.0</ele><time>2026-04-24T10:56:38.404Z</time></trkpt><trkpt lat="30.9458533" lon="-6.9694333"><ele>1148.0</ele><time>2026-04-24T10:56:39.403Z</time></trkpt><trkpt lat="30.9459233" lon="-6.969425"><ele>1148.0</ele><time>2026-04-24T10:56:40.403Z</time></trkpt><trkpt lat="30.9459917" lon="-6.9694183"><ele>1148.0</ele><time>2026-04-24T10:56:41.404Z</time></trkpt><trkpt lat="30.9460567" lon="-6.969415"><ele>1148.0</ele><time>2026-04-24T10:56:42.403Z</time></trkpt><trkpt lat="30.9461233" lon="-6.969415"><ele>1148.0</ele><time>2026-04-24T10:56:43.403Z</time></trkpt><trkpt lat="30.946195" lon="-6.9694217"><ele>1148.0</ele><time>2026-04-24T10:56:44.403Z</time></trkpt><trkpt lat="30.9462617" lon="-6.9694317"><ele>1148.0</ele><time>2026-04-24T10:56:45.403Z</time></trkpt><trkpt lat="30.9463383" lon="-6.9694467"><ele>1148.0</ele><time>2026-04-24T10:56:46.403Z</time></trkpt><trkpt lat="30.9464183" lon="-6.969465"><ele>1148.0</ele><time>2026-04-24T10:56:47.403Z</time></trkpt><trkpt lat="30.946495" lon="-6.9694883"><ele>1148.0</ele><time>2026-04-24T10:56:48.403Z</time></trkpt><trkpt lat="30.946565" lon="-6.9695133"><ele>1148.0</ele><time>2026-04-24T10:56:49.404Z</time></trkpt><trkpt lat="30.9466317" lon="-6.9695417"><ele>1148.0</ele><time>2026-04-24T10:56:50.403Z</time></trkpt><trkpt lat="30.946695" lon="-6.96957"><ele>1147.8333333333335</ele><time>2026-04-24T10:56:51.403Z</time></trkpt><trkpt lat="30.9468167" lon="-6.969605"><ele>1147.6666666666667</ele><time>2026-04-24T10:56:53.403Z</time></trkpt><trkpt lat="30.94688" lon="-6.96961"><ele>1147.5</ele><time>2026-04-24T10:56:54.403Z</time></trkpt><trkpt lat="30.946945" lon="-6.9696083"><ele>1147.3333333333333</ele><time>2026-04-24T10:56:55.403Z</time></trkpt><trkpt lat="30.9470083" lon="-6.969595"><ele>1147.1666666666665</ele><time>2026-04-24T10:56:56.403Z</time></trkpt><trkpt lat="30.9470683" lon="-6.9695717"><ele>1147.0</ele><time>2026-04-24T10:56:57.403Z</time></trkpt><trkpt lat="30.9471933" lon="-6.96953"><ele>1147.0</ele><time>2026-04-24T10:56:59.403Z</time></trkpt><trkpt lat="30.9472583" lon="-6.9695233"><ele>1147.0</ele><time>2026-04-24T10:57:00.403Z</time></trkpt><trkpt lat="30.9473267" lon="-6.9695117"><ele>1147.0</ele><time>2026-04-24T10:57:01.403Z</time></trkpt><trkpt lat="30.9474" lon="-6.9695067"><ele>1147.0</ele><time>2026-04-24T10:57:02.403Z</time></trkpt><trkpt lat="30.9474767" lon="-6.9695117"><ele>1147.0</ele><time>2026-04-24T10:57:03.403Z</time></trkpt><trkpt lat="30.94756" lon="-6.9695217"><ele>1147.0</ele><time>2026-04-24T10:57:04.403Z</time></trkpt><trkpt lat="30.9476417" lon="-6.9695333"><ele>1146.5</ele><time>2026-04-24T10:57:05.403Z</time></trkpt><trkpt lat="30.9477233" lon="-6.9695483"><ele>1146.0</ele><time>2026-04-24T10:57:06.403Z</time></trkpt><trkpt lat="30.947805" lon="-6.969565"><ele>1145.5</ele><time>2026-04-24T10:57:07.403Z</time></trkpt><trkpt lat="30.9478883" lon="-6.9695783"><ele>1145.0</ele><time>2026-04-24T10:57:08.403Z</time></trkpt><trkpt lat="30.94797" lon="-6.9695933"><ele>1144.5</ele><time>2026-04-24T10:57:09.403Z</time></trkpt><trkpt lat="30.9480533" lon="-6.9696067"><ele>1144.0</ele><time>2026-04-24T10:57:10.403Z</time></trkpt><trkpt lat="30.9481367" lon="-6.96962"><ele>1144.0</ele><time>2026-04-24T10:57:11.403Z</time></trkpt><trkpt lat="30.94822" lon="-6.9696317"><ele>1144.0</ele><time>2026-04-24T10:57:12.403Z</time></trkpt><trkpt lat="30.9483067" lon="-6.969645"><ele>1144.0</ele><time>2026-04-24T10:57:13.403Z</time></trkpt><trkpt lat="30.94839" lon="-6.9696617"><ele>1144.0</ele><time>2026-04-24T10:57:14.404Z</time></trkpt><trkpt lat="30.948475" lon="-6.9696733"><ele>1144.0</ele><time>2026-04-24T10:57:15.403Z</time></trkpt><trkpt lat="30.9485517" lon="-6.9696883"><ele>1144.0</ele><time>2026-04-24T10:57:16.403Z</time></trkpt><trkpt lat="30.9486217" lon="-6.9697033"><ele>1143.8</ele><time>2026-04-24T10:57:17.403Z</time></trkpt><trkpt lat="30.94874" lon="-6.969725"><ele>1143.6000000000001</ele><time>2026-04-24T10:57:19.403Z</time></trkpt><trkpt lat="30.9488433" lon="-6.9697467"><ele>1143.4</ele><time>2026-04-24T10:57:21.403Z</time></trkpt><trkpt lat="30.948925" lon="-6.9697617"><ele>1143.2</ele><time>2026-04-24T10:57:23.403Z</time></trkpt><trkpt lat="30.9489933" lon="-6.969775"><ele>1143.0</ele><time>2026-04-24T10:57:25.403Z</time></trkpt><trkpt lat="30.9490717" lon="-6.9697967"><ele>1143.0</ele><time>2026-04-24T10:57:27.403Z</time></trkpt><trkpt lat="30.949145" lon="-6.9698533"><ele>1143.0</ele><time>2026-04-24T10:57:29.403Z</time></trkpt><trkpt lat="30.9492183" lon="-6.9699233"><ele>1143.0</ele><time>2026-04-24T10:57:31.403Z</time></trkpt><trkpt lat="30.9493067" lon="-6.96995"><ele>1143.0</ele><time>2026-04-24T10:57:33.403Z</time></trkpt><trkpt lat="30.949385" lon="-6.9699583"><ele>1143.0</ele><time>2026-04-24T10:57:35.403Z</time></trkpt><trkpt lat="30.9494617" lon="-6.9699617"><ele>1143.0</ele><time>2026-04-24T10:57:37.403Z</time></trkpt><trkpt lat="30.9495317" lon="-6.9699817"><ele>1143.3333333333333</ele><time>2026-04-24T10:57:40.403Z</time></trkpt><trkpt lat="30.9495533" lon="-6.9700517"><ele>1143.6666666666667</ele><time>2026-04-24T10:57:43.404Z</time></trkpt><trkpt lat="30.949545" lon="-6.970125"><ele>1144.0</ele><time>2026-04-24T10:57:45.403Z</time></trkpt><trkpt lat="30.9495167" lon="-6.9702217"><ele>1144.3333333333335</ele><time>2026-04-24T10:57:47.403Z</time></trkpt><trkpt lat="30.9494883" lon="-6.970345"><ele>1144.6666666666667</ele><time>2026-04-24T10:57:49.403Z</time></trkpt><trkpt lat="30.9494533" lon="-6.970455"><ele>1145.0</ele><time>2026-04-24T10:57:51.403Z</time></trkpt><trkpt lat="30.94943" lon="-6.9705633"><ele>1145.0</ele><time>2026-04-24T10:57:53.403Z</time></trkpt><trkpt lat="30.949415" lon="-6.9706533"><ele>1145.0</ele><time>2026-04-24T10:57:55.403Z</time></trkpt><trkpt lat="30.9494133" lon="-6.97076"><ele>1145.0</ele><time>2026-04-24T10:57:57.403Z</time></trkpt><trkpt lat="30.9494333" lon="-6.9708483"><ele>1145.0</ele><time>2026-04-24T10:57:59.403Z</time></trkpt><trkpt lat="30.949465" lon="-6.9709217"><ele>1145.0</ele><time>2026-04-24T10:58:01.403Z</time></trkpt><trkpt lat="30.949485" lon="-6.9709967"><ele>1145.0</ele><time>2026-04-24T10:58:04.403Z</time></trkpt><trkpt lat="30.94942" lon="-6.9710467"><ele>1145.2</ele><time>2026-04-24T10:58:09.403Z</time></trkpt><trkpt lat="30.9493333" lon="-6.9709767"><ele>1145.4</ele><time>2026-04-24T10:58:12.403Z</time></trkpt><trkpt lat="30.9492683" lon="-6.9708867"><ele>1145.6</ele><time>2026-04-24T10:58:14.403Z</time></trkpt><trkpt lat="30.9492" lon="-6.9707733"><ele>1145.8</ele><time>2026-04-24T10:58:16.403Z</time></trkpt><trkpt lat="30.9491283" lon="-6.970665"><ele>1146.0</ele><time>2026-04-24T10:58:18.403Z</time></trkpt><trkpt lat="30.94906" lon="-6.970585"><ele>1145.3999999999999</ele><time>2026-04-24T10:58:20.403Z</time></trkpt><trkpt lat="30.9489933" lon="-6.9705067"><ele>1144.8</ele><time>2026-04-24T10:58:22.402Z</time></trkpt><trkpt lat="30.9489117" lon="-6.9704317"><ele>1144.1999999999998</ele><time>2026-04-24T10:58:24.402Z</time></trkpt><trkpt lat="30.9488333" lon="-6.9703467"><ele>1143.6</ele><time>2026-04-24T10:58:26.402Z</time></trkpt><trkpt lat="30.9487667" lon="-6.9702467"><ele>1143.0</ele><time>2026-04-24T10:58:28.402Z</time></trkpt><trkpt lat="30.9487017" lon="-6.9701367"><ele>1143.0</ele><time>2026-04-24T10:58:30.402Z</time></trkpt><trkpt lat="30.94865" lon="-6.970025"><ele>1143.0</ele><time>2026-04-24T10:58:32.402Z</time></trkpt><trkpt lat="30.948635" lon="-6.96991"><ele>1143.0</ele><time>2026-04-24T10:58:34.402Z</time></trkpt><trkpt lat="30.9486267" lon="-6.9698117"><ele>1143.0</ele><time>2026-04-24T10:58:36.402Z</time></trkpt><trkpt lat="30.9486317" lon="-6.9697267"><ele>1143.0</ele><time>2026-04-24T10:58:38.402Z</time></trkpt><trkpt lat="30.948625" lon="-6.9696417"><ele>1143.0</ele><time>2026-04-24T10:58:40.402Z</time></trkpt><trkpt lat="30.9486233" lon="-6.9695533"><ele>1143.0</ele><time>2026-04-24T10:58:42.402Z</time></trkpt><trkpt lat="30.9486283" lon="-6.9694633"><ele>1143.0</ele><time>2026-04-24T10:58:44.402Z</time></trkpt><trkpt lat="30.9486267" lon="-6.969385"><ele>1143.0</ele><time>2026-04-24T10:58:46.402Z</time></trkpt><trkpt lat="30.94862" lon="-6.96925"><ele>1143.0</ele><time>2026-04-24T10:59:15.402Z</time></trkpt><trkpt lat="30.9486033" lon="-6.969125"><ele>1143.0</ele><time>2026-04-24T10:59:17.403Z</time></trkpt><trkpt lat="30.94859" lon="-6.9690383"><ele>1143.0</ele><time>2026-04-24T10:59:18.402Z</time></trkpt><trkpt lat="30.94858" lon="-6.9689383"><ele>1143.0</ele><time>2026-04-24T10:59:19.402Z</time></trkpt><trkpt lat="30.9485633" lon="-6.9688267"><ele>1143.0</ele><time>2026-04-24T10:59:20.402Z</time></trkpt><trkpt lat="30.9485467" lon="-6.9687183"><ele>1143.0</ele><time>2026-04-24T10:59:21.402Z</time></trkpt><trkpt lat="30.9485367" lon="-6.968625"><ele>1143.0</ele><time>2026-04-24T10:59:22.402Z</time></trkpt><trkpt lat="30.9485283" lon="-6.96854"><ele>1143.0</ele><time>2026-04-24T10:59:23.402Z</time></trkpt><trkpt lat="30.948525" lon="-6.9684583"><ele>1143.0</ele><time>2026-04-24T10:59:24.402Z</time></trkpt><trkpt lat="30.9485233" lon="-6.968315"><ele>1143.0</ele><time>2026-04-24T10:59:26.402Z</time></trkpt><trkpt lat="30.948535" lon="-6.9681767"><ele>1143.0</ele><time>2026-04-24T10:59:28.402Z</time></trkpt><trkpt lat="30.9485917" lon="-6.96807"><ele>1143.0</ele><time>2026-04-24T10:59:30.402Z</time></trkpt><trkpt lat="30.9486933" lon="-6.96799"><ele>1143.0</ele><time>2026-04-24T10:59:32.402Z</time></trkpt><trkpt lat="30.9487517" lon="-6.9679617"><ele>1143.0</ele><time>2026-04-24T10:59:33.402Z</time></trkpt><trkpt lat="30.9488717" lon="-6.96792"><ele>1143.0</ele><time>2026-04-24T10:59:35.402Z</time></trkpt><trkpt lat="30.948995" lon="-6.96791"><ele>1143.0</ele><time>2026-04-24T10:59:37.402Z</time></trkpt><trkpt lat="30.9490617" lon="-6.9679183"><ele>1143.0</ele><time>2026-04-24T10:59:38.402Z</time></trkpt><trkpt lat="30.9491283" lon="-6.967935"><ele>1143.0</ele><time>2026-04-24T10:59:39.402Z</time></trkpt><trkpt lat="30.9491983" lon="-6.9679567"><ele>1143.0</ele><time>2026-04-24T10:59:40.402Z</time></trkpt><trkpt lat="30.9492717" lon="-6.9679767"><ele>1143.0</ele><time>2026-04-24T10:59:41.402Z</time></trkpt><trkpt lat="30.949345" lon="-6.967995"><ele>1143.1666666666667</ele><time>2026-04-24T10:59:42.402Z</time></trkpt><trkpt lat="30.9494233" lon="-6.968"><ele>1143.3333333333333</ele><time>2026-04-24T10:59:43.402Z</time></trkpt><trkpt lat="30.94951" lon="-6.9680033"><ele>1143.5</ele><time>2026-04-24T10:59:44.402Z</time></trkpt><trkpt lat="30.9495967" lon="-6.9679983"><ele>1143.6666666666665</ele><time>2026-04-24T10:59:45.402Z</time></trkpt><trkpt lat="30.94968" lon="-6.967995"><ele>1143.8333333333333</ele><time>2026-04-24T10:59:46.402Z</time></trkpt><trkpt lat="30.9497717" lon="-6.967995"><ele>1144.0</ele><time>2026-04-24T10:59:47.402Z</time></trkpt><trkpt lat="30.94987" lon="-6.967985"><ele>1144.0</ele><time>2026-04-24T10:59:48.402Z</time></trkpt><trkpt lat="30.94997" lon="-6.9679733"><ele>1144.0</ele><time>2026-04-24T10:59:49.402Z</time></trkpt><trkpt lat="30.9500667" lon="-6.9679567"><ele>1144.0</ele><time>2026-04-24T10:59:50.402Z</time></trkpt><trkpt lat="30.950155" lon="-6.9679417"><ele>1144.0</ele><time>2026-04-24T10:59:51.402Z</time></trkpt><trkpt lat="30.95024" lon="-6.9679333"><ele>1144.0</ele><time>2026-04-24T10:59:52.402Z</time></trkpt><trkpt lat="30.9503233" lon="-6.9679267"><ele>1144.4</ele><time>2026-04-24T10:59:53.402Z</time></trkpt><trkpt lat="30.9504083" lon="-6.9679133"><ele>1144.8000000000002</ele><time>2026-04-24T10:59:54.402Z</time></trkpt><trkpt lat="30.9504983" lon="-6.967905"><ele>1145.1999999999998</ele><time>2026-04-24T10:59:55.402Z</time></trkpt><trkpt lat="30.9505917" lon="-6.967895"><ele>1145.6</ele><time>2026-04-24T10:59:56.402Z</time></trkpt><trkpt lat="30.95069" lon="-6.9678817"><ele>1146.0</ele><time>2026-04-24T10:59:57.402Z</time></trkpt><trkpt lat="30.9507833" lon="-6.9678733"><ele>1146.0</ele><time>2026-04-24T10:59:58.402Z</time></trkpt><trkpt lat="30.9508667" lon="-6.96786"><ele>1146.0</ele><time>2026-04-24T10:59:59.402Z</time></trkpt><trkpt lat="30.9509467" lon="-6.9678483"><ele>1146.0</ele><time>2026-04-24T11:00:00.402Z</time></trkpt><trkpt lat="30.9510217" lon="-6.9678367"><ele>1146.0</ele><time>2026-04-24T11:00:01.402Z</time></trkpt><trkpt lat="30.9510883" lon="-6.9678283"><ele>1146.0</ele><time>2026-04-24T11:00:02.402Z</time></trkpt><trkpt lat="30.9512017" lon="-6.967815"><ele>1146.0</ele><time>2026-04-24T11:00:04.402Z</time></trkpt><trkpt lat="30.9512933" lon="-6.96781"><ele>1146.2</ele><time>2026-04-24T11:00:06.402Z</time></trkpt><trkpt lat="30.951365" lon="-6.9678017"><ele>1146.3999999999999</ele><time>2026-04-24T11:00:08.402Z</time></trkpt><trkpt lat="30.9514467" lon="-6.9677867"><ele>1146.6</ele><time>2026-04-24T11:00:11.402Z</time></trkpt><trkpt lat="30.9515333" lon="-6.967765"><ele>1146.8</ele><time>2026-04-24T11:00:13.402Z</time></trkpt><trkpt lat="30.9516583" lon="-6.9677133"><ele>1147.0</ele><time>2026-04-24T11:00:15.402Z</time></trkpt><trkpt lat="30.9517367" lon="-6.967675"><ele>1147.0</ele><time>2026-04-24T11:00:16.402Z</time></trkpt><trkpt lat="30.9518183" lon="-6.96763"><ele>1147.0</ele><time>2026-04-24T11:00:17.402Z</time></trkpt><trkpt lat="30.951905" lon="-6.9675833"><ele>1147.0</ele><time>2026-04-24T11:00:18.402Z</time></trkpt><trkpt lat="30.9519817" lon="-6.9675433"><ele>1147.0</ele><time>2026-04-24T11:00:19.402Z</time></trkpt><trkpt lat="30.9520533" lon="-6.967515"><ele>1147.0</ele><time>2026-04-24T11:00:20.402Z</time></trkpt><trkpt lat="30.9521117" lon="-6.967485"><ele>1147.0</ele><time>2026-04-24T11:00:21.402Z</time></trkpt><trkpt lat="30.9521933" lon="-6.9674433"><ele>1146.8333333333333</ele><time>2026-04-24T11:00:23.402Z</time></trkpt><trkpt lat="30.9522817" lon="-6.9674333"><ele>1146.6666666666665</ele><time>2026-04-24T11:00:38.402Z</time></trkpt><trkpt lat="30.9523517" lon="-6.967415"><ele>1146.5</ele><time>2026-04-24T11:00:40.402Z</time></trkpt><trkpt lat="30.9524333" lon="-6.9674283"><ele>1146.3333333333333</ele><time>2026-04-24T11:00:42.402Z</time></trkpt><trkpt lat="30.9525267" lon="-6.9674483"><ele>1146.1666666666667</ele><time>2026-04-24T11:00:44.402Z</time></trkpt><trkpt lat="30.95262" lon="-6.9674933"><ele>1146.0</ele><time>2026-04-24T11:00:46.402Z</time></trkpt><trkpt lat="30.952685" lon="-6.9675533"><ele>1146.0</ele><time>2026-04-24T11:00:48.402Z</time></trkpt><trkpt lat="30.952715" lon="-6.9676317"><ele>1146.0</ele><time>2026-04-24T11:00:50.402Z</time></trkpt><trkpt lat="30.95275" lon="-6.9677517"><ele>1146.0</ele><time>2026-04-24T11:00:52.402Z</time></trkpt><trkpt lat="30.9527717" lon="-6.9678283"><ele>1146.0</ele><time>2026-04-24T11:00:53.402Z</time></trkpt><trkpt lat="30.9527983" lon="-6.967905"><ele>1146.0</ele><time>2026-04-24T11:00:54.403Z</time></trkpt><trkpt lat="30.9528333" lon="-6.9679933"><ele>1146.0</ele><time>2026-04-24T11:00:55.402Z</time></trkpt><trkpt lat="30.9528767" lon="-6.9680867"><ele>1146.0</ele><time>2026-04-24T11:00:56.402Z</time></trkpt><trkpt lat="30.9529233" lon="-6.968175"><ele>1146.0</ele><time>2026-04-24T11:00:57.402Z</time></trkpt><trkpt lat="30.952975" lon="-6.9682633"><ele>1146.0</ele><time>2026-04-24T11:00:58.402Z</time></trkpt><trkpt lat="30.95302" lon="-6.9683433"><ele>1146.0</ele><time>2026-04-24T11:00:59.403Z</time></trkpt><trkpt lat="30.953065" lon="-6.9684233"><ele>1146.0</ele><time>2026-04-24T11:01:00.402Z</time></trkpt><trkpt lat="30.953105" lon="-6.9684883"><ele>1146.0</ele><time>2026-04-24T11:01:01.402Z</time></trkpt><trkpt lat="30.95314" lon="-6.9685583"><ele>1146.1666666666667</ele><time>2026-04-24T11:01:02.402Z</time></trkpt><trkpt lat="30.95317" lon="-6.9686383"><ele>1146.3333333333333</ele><time>2026-04-24T11:01:03.402Z</time></trkpt><trkpt lat="30.9532" lon="-6.96872"><ele>1146.5</ele><time>2026-04-24T11:01:04.402Z</time></trkpt><trkpt lat="30.9532333" lon="-6.9688133"><ele>1146.6666666666665</ele><time>2026-04-24T11:01:05.402Z</time></trkpt><trkpt lat="30.95327" lon="-6.9689133"><ele>1146.8333333333333</ele><time>2026-04-24T11:01:06.403Z</time></trkpt><trkpt lat="30.9533083" lon="-6.9690167"><ele>1147.0</ele><time>2026-04-24T11:01:07.402Z</time></trkpt><trkpt lat="30.9533483" lon="-6.9691217"><ele>1147.0</ele><time>2026-04-24T11:01:08.402Z</time></trkpt><trkpt lat="30.9533867" lon="-6.9692183"><ele>1147.0</ele><time>2026-04-24T11:01:09.402Z</time></trkpt><trkpt lat="30.95342" lon="-6.9693117"><ele>1147.0</ele><time>2026-04-24T11:01:10.402Z</time></trkpt><trkpt lat="30.9534617" lon="-6.9693917"><ele>1147.0</ele><time>2026-04-24T11:01:11.402Z</time></trkpt><trkpt lat="30.9534933" lon="-6.9694633"><ele>1147.0</ele><time>2026-04-24T11:01:12.402Z</time></trkpt><trkpt lat="30.9535283" lon="-6.9695433"><ele>1147.0</ele><time>2026-04-24T11:01:13.402Z</time></trkpt><trkpt lat="30.9535517" lon="-6.969615"><ele>1147.0</ele><time>2026-04-24T11:01:14.402Z</time></trkpt><trkpt lat="30.9535617" lon="-6.9696883"><ele>1147.0</ele><time>2026-04-24T11:01:15.403Z</time></trkpt><trkpt lat="30.9535667" lon="-6.9697667"><ele>1147.0</ele><time>2026-04-24T11:01:16.402Z</time></trkpt><trkpt lat="30.95356" lon="-6.96985"><ele>1147.0</ele><time>2026-04-24T11:01:17.402Z</time></trkpt><trkpt lat="30.95355" lon="-6.9699383"><ele>1147.0</ele><time>2026-04-24T11:01:18.402Z</time></trkpt><trkpt lat="30.95354" lon="-6.9700233"><ele>1147.0</ele><time>2026-04-24T11:01:19.402Z</time></trkpt><trkpt lat="30.953505" lon="-6.97014"><ele>1147.1666666666665</ele><time>2026-04-24T11:01:21.402Z</time></trkpt><trkpt lat="30.95346" lon="-6.97023"><ele>1147.3333333333333</ele><time>2026-04-24T11:01:24.402Z</time></trkpt><trkpt lat="30.9534383" lon="-6.9703467"><ele>1147.5</ele><time>2026-04-24T11:17:01.398Z</time></trkpt><trkpt lat="30.9534733" lon="-6.97043"><ele>1147.6666666666667</ele><time>2026-04-24T11:17:03.398Z</time></trkpt><trkpt lat="30.9534583" lon="-6.9705217"><ele>1147.8333333333335</ele><time>2026-04-24T11:17:06.398Z</time></trkpt><trkpt lat="30.9533833" lon="-6.9705033"><ele>1148.0</ele><time>2026-04-24T11:17:10.398Z</time></trkpt><trkpt lat="30.9533767" lon="-6.970395"><ele>1148.0</ele><time>2026-04-24T11:17:13.398Z</time></trkpt><trkpt lat="30.9533917" lon="-6.9703033"><ele>1148.0</ele><time>2026-04-24T11:17:16.398Z</time></trkpt><trkpt lat="30.95336" lon="-6.9701967"><ele>1148.0</ele><time>2026-04-24T11:17:33.398Z</time></trkpt><trkpt lat="30.9533217" lon="-6.9700817"><ele>1148.0</ele><time>2026-04-24T11:17:35.398Z</time></trkpt><trkpt lat="30.9532683" lon="-6.969945"><ele>1148.0</ele><time>2026-04-24T11:17:37.398Z</time></trkpt><trkpt lat="30.953245" lon="-6.9698633"><ele>1148.0</ele><time>2026-04-24T11:17:38.398Z</time></trkpt><trkpt lat="30.9532233" lon="-6.969785"><ele>1148.0</ele><time>2026-04-24T11:17:39.398Z</time></trkpt><trkpt lat="30.9532083" lon="-6.9697033"><ele>1148.0</ele><time>2026-04-24T11:17:40.398Z</time></trkpt><trkpt lat="30.9531883" lon="-6.9696233"><ele>1148.0</ele><time>2026-04-24T11:17:41.398Z</time></trkpt><trkpt lat="30.9531667" lon="-6.96955"><ele>1148.0</ele><time>2026-04-24T11:17:42.398Z</time></trkpt><trkpt lat="30.9531467" lon="-6.9694717"><ele>1148.0</ele><time>2026-04-24T11:17:43.398Z</time></trkpt><trkpt lat="30.95313" lon="-6.969395"><ele>1148.0</ele><time>2026-04-24T11:17:44.398Z</time></trkpt><trkpt lat="30.9531117" lon="-6.96931"><ele>1148.0</ele><time>2026-04-24T11:17:45.398Z</time></trkpt><trkpt lat="30.9530933" lon="-6.969225"><ele>1148.0</ele><time>2026-04-24T11:17:46.398Z</time></trkpt><trkpt lat="30.953075" lon="-6.96914"><ele>1148.0</ele><time>2026-04-24T11:17:47.398Z</time></trkpt><trkpt lat="30.9530733" lon="-6.9690583"><ele>1148.0</ele><time>2026-04-24T11:17:48.398Z</time></trkpt><trkpt lat="30.953085" lon="-6.9689783"><ele>1148.0</ele><time>2026-04-24T11:17:49.398Z</time></trkpt><trkpt lat="30.9531" lon="-6.9688883"><ele>1148.0</ele><time>2026-04-24T11:17:50.398Z</time></trkpt><trkpt lat="30.953115" lon="-6.9688033"><ele>1148.0</ele><time>2026-04-24T11:17:51.398Z</time></trkpt><trkpt lat="30.9531267" lon="-6.9687283"><ele>1147.8</ele><time>2026-04-24T11:17:52.398Z</time></trkpt><trkpt lat="30.953135" lon="-6.9685917"><ele>1147.6</ele><time>2026-04-24T11:17:54.398Z</time></trkpt><trkpt lat="30.9530983" lon="-6.9684667"><ele>1147.4</ele><time>2026-04-24T11:17:56.398Z</time></trkpt><trkpt lat="30.9530617" lon="-6.9684033"><ele>1147.2</ele><time>2026-04-24T11:17:57.397Z</time></trkpt><trkpt lat="30.9529917" lon="-6.9682967"><ele>1147.0</ele><time>2026-04-24T11:17:59.397Z</time></trkpt><trkpt lat="30.9529333" lon="-6.9681817"><ele>1146.8333333333333</ele><time>2026-04-24T11:18:01.397Z</time></trkpt><trkpt lat="30.9528617" lon="-6.9680583"><ele>1146.6666666666665</ele><time>2026-04-24T11:18:03.397Z</time></trkpt><trkpt lat="30.9528233" lon="-6.9679867"><ele>1146.5</ele><time>2026-04-24T11:18:04.397Z</time></trkpt><trkpt lat="30.9527933" lon="-6.967905"><ele>1146.3333333333333</ele><time>2026-04-24T11:18:05.397Z</time></trkpt><trkpt lat="30.9527667" lon="-6.9678167"><ele>1146.1666666666667</ele><time>2026-04-24T11:18:06.397Z</time></trkpt><trkpt lat="30.9527433" lon="-6.9677317"><ele>1146.0</ele><time>2026-04-24T11:18:07.397Z</time></trkpt><trkpt lat="30.952725" lon="-6.96766"><ele>1146.0</ele><time>2026-04-24T11:18:08.397Z</time></trkpt><trkpt lat="30.9526917" lon="-6.96757"><ele>1146.0</ele><time>2026-04-24T11:18:10.397Z</time></trkpt><trkpt lat="30.952645" lon="-6.96752"><ele>1146.0</ele><time>2026-04-24T11:18:12.397Z</time></trkpt><trkpt lat="30.9525667" lon="-6.9674783"><ele>1146.0</ele><time>2026-04-24T11:18:14.398Z</time></trkpt><trkpt lat="30.9524483" lon="-6.967435"><ele>1146.0</ele><time>2026-04-24T11:18:16.397Z</time></trkpt><trkpt lat="30.95232" lon="-6.9674183"><ele>1145.8333333333333</ele><time>2026-04-24T11:18:18.397Z</time></trkpt><trkpt lat="30.9522517" lon="-6.9674283"><ele>1145.6666666666667</ele><time>2026-04-24T11:18:19.397Z</time></trkpt><trkpt lat="30.95218" lon="-6.9674533"><ele>1145.5</ele><time>2026-04-24T11:18:20.397Z</time></trkpt><trkpt lat="30.9521033" lon="-6.9674883"><ele>1145.3333333333335</ele><time>2026-04-24T11:18:21.397Z</time></trkpt><trkpt lat="30.95202" lon="-6.967525"><ele>1145.1666666666667</ele><time>2026-04-24T11:18:22.397Z</time></trkpt><trkpt lat="30.9519333" lon="-6.967565"><ele>1145.0</ele><time>2026-04-24T11:18:23.397Z</time></trkpt><trkpt lat="30.951845" lon="-6.9676067"><ele>1145.4</ele><time>2026-04-24T11:18:24.397Z</time></trkpt><trkpt lat="30.951765" lon="-6.9676517"><ele>1145.8</ele><time>2026-04-24T11:18:25.397Z</time></trkpt><trkpt lat="30.9516867" lon="-6.96769"><ele>1146.2</ele><time>2026-04-24T11:18:26.397Z</time></trkpt><trkpt lat="30.9516017" lon="-6.96772"><ele>1146.6</ele><time>2026-04-24T11:18:27.397Z</time></trkpt><trkpt lat="30.9515117" lon="-6.9677483"><ele>1147.0</ele><time>2026-04-24T11:18:28.397Z</time></trkpt><trkpt lat="30.9514167" lon="-6.967775"><ele>1147.0</ele><time>2026-04-24T11:18:29.397Z</time></trkpt><trkpt lat="30.951315" lon="-6.9677933"><ele>1147.0</ele><time>2026-04-24T11:18:30.397Z</time></trkpt><trkpt lat="30.951215" lon="-6.9678067"><ele>1147.0</ele><time>2026-04-24T11:18:31.397Z</time></trkpt><trkpt lat="30.9511133" lon="-6.9678217"><ele>1147.0</ele><time>2026-04-24T11:18:32.397Z</time></trkpt><trkpt lat="30.951005" lon="-6.9678383"><ele>1147.0</ele><time>2026-04-24T11:18:33.397Z</time></trkpt><trkpt lat="30.9508917" lon="-6.9678433"><ele>1146.75</ele><time>2026-04-24T11:18:34.397Z</time></trkpt><trkpt lat="30.950775" lon="-6.967855"><ele>1146.5</ele><time>2026-04-24T11:18:35.397Z</time></trkpt><trkpt lat="30.95066" lon="-6.9678667"><ele>1146.25</ele><time>2026-04-24T11:18:36.397Z</time></trkpt><trkpt lat="30.950545" lon="-6.9678833"><ele>1146.0</ele><time>2026-04-24T11:18:37.397Z</time></trkpt><trkpt lat="30.9504317" lon="-6.9679"><ele>1146.0</ele><time>2026-04-24T11:18:38.397Z</time></trkpt><trkpt lat="30.9503167" lon="-6.9679133"><ele>1146.0</ele><time>2026-04-24T11:18:39.398Z</time></trkpt><trkpt lat="30.9502067" lon="-6.9679283"><ele>1146.0</ele><time>2026-04-24T11:18:40.397Z</time></trkpt><trkpt lat="30.9501" lon="-6.9679483"><ele>1146.0</ele><time>2026-04-24T11:18:41.397Z</time></trkpt><trkpt lat="30.9499983" lon="-6.9679633"><ele>1146.0</ele><time>2026-04-24T11:18:42.397Z</time></trkpt><trkpt lat="30.9498983" lon="-6.9679733"><ele>1145.6</ele><time>2026-04-24T11:18:43.397Z</time></trkpt><trkpt lat="30.9498" lon="-6.9679883"><ele>1145.1999999999998</ele><time>2026-04-24T11:18:44.397Z</time></trkpt><trkpt lat="30.9497017" lon="-6.9680017"><ele>1144.8000000000002</ele><time>2026-04-24T11:18:45.397Z</time></trkpt><trkpt lat="30.94961" lon="-6.9680017"><ele>1144.4</ele><time>2026-04-24T11:18:46.397Z</time></trkpt><trkpt lat="30.94952" lon="-6.968"><ele>1144.0</ele><time>2026-04-24T11:18:47.397Z</time></trkpt><trkpt lat="30.9494367" lon="-6.9679983"><ele>1144.0</ele><time>2026-04-24T11:18:48.397Z</time></trkpt><trkpt lat="30.9493533" lon="-6.9679883"><ele>1144.0</ele><time>2026-04-24T11:18:49.397Z</time></trkpt><trkpt lat="30.9492783" lon="-6.96797"><ele>1144.0</ele><time>2026-04-24T11:18:50.397Z</time></trkpt><trkpt lat="30.9491983" lon="-6.9679467"><ele>1144.0</ele><time>2026-04-24T11:18:51.397Z</time></trkpt><trkpt lat="30.9491183" lon="-6.9679283"><ele>1144.0</ele><time>2026-04-24T11:18:52.397Z</time></trkpt><trkpt lat="30.9490383" lon="-6.9679117"><ele>1144.0</ele><time>2026-04-24T11:18:53.397Z</time></trkpt><trkpt lat="30.948965" lon="-6.9679033"><ele>1143.8333333333333</ele><time>2026-04-24T11:18:54.397Z</time></trkpt><trkpt lat="30.9488917" lon="-6.967905"><ele>1143.6666666666665</ele><time>2026-04-24T11:18:55.397Z</time></trkpt><trkpt lat="30.94882" lon="-6.9679217"><ele>1143.5</ele><time>2026-04-24T11:18:56.397Z</time></trkpt><trkpt lat="30.94875" lon="-6.967955"><ele>1143.3333333333333</ele><time>2026-04-24T11:18:57.397Z</time></trkpt><trkpt lat="30.948685" lon="-6.967995"><ele>1143.1666666666667</ele><time>2026-04-24T11:18:58.397Z</time></trkpt><trkpt lat="30.9486167" lon="-6.9680467"><ele>1143.0</ele><time>2026-04-24T11:18:59.397Z</time></trkpt><trkpt lat="30.948545" lon="-6.96811"><ele>1143.0</ele><time>2026-04-24T11:19:00.397Z</time></trkpt><trkpt lat="30.9484817" lon="-6.96818"><ele>1143.0</ele><time>2026-04-24T11:19:01.397Z</time></trkpt><trkpt lat="30.9484117" lon="-6.96825"><ele>1143.0</ele><time>2026-04-24T11:19:02.397Z</time></trkpt><trkpt lat="30.9483433" lon="-6.9683317"><ele>1143.0</ele><time>2026-04-24T11:19:03.397Z</time></trkpt><trkpt lat="30.9482633" lon="-6.9684133"><ele>1143.0</ele><time>2026-04-24T11:19:04.397Z</time></trkpt><trkpt lat="30.9481867" lon="-6.9685"><ele>1143.2</ele><time>2026-04-24T11:19:05.397Z</time></trkpt><trkpt lat="30.9481133" lon="-6.9685883"><ele>1143.4</ele><time>2026-04-24T11:19:06.397Z</time></trkpt><trkpt lat="30.9480367" lon="-6.968675"><ele>1143.6000000000001</ele><time>2026-04-24T11:19:07.397Z</time></trkpt><trkpt lat="30.947965" lon="-6.9687617"><ele>1143.8</ele><time>2026-04-24T11:19:08.398Z</time></trkpt><trkpt lat="30.9478967" lon="-6.9688483"><ele>1144.0</ele><time>2026-04-24T11:19:09.397Z</time></trkpt><trkpt lat="30.9478383" lon="-6.9689283"><ele>1144.0</ele><time>2026-04-24T11:19:10.397Z</time></trkpt><trkpt lat="30.94778" lon="-6.969005"><ele>1144.0</ele><time>2026-04-24T11:19:11.397Z</time></trkpt><trkpt lat="30.9477183" lon="-6.96908"><ele>1144.0</ele><time>2026-04-24T11:19:12.397Z</time></trkpt><trkpt lat="30.9476517" lon="-6.969155"><ele>1144.0</ele><time>2026-04-24T11:19:13.397Z</time></trkpt><trkpt lat="30.9475833" lon="-6.9692317"><ele>1144.0</ele><time>2026-04-24T11:19:14.397Z</time></trkpt><trkpt lat="30.9475133" lon="-6.969295"><ele>1144.5</ele><time>2026-04-24T11:19:15.397Z</time></trkpt><trkpt lat="30.947445" lon="-6.9693583"><ele>1145.0</ele><time>2026-04-24T11:19:16.397Z</time></trkpt><trkpt lat="30.9473733" lon="-6.9694167"><ele>1145.5</ele><time>2026-04-24T11:19:17.397Z</time></trkpt><trkpt lat="30.947305" lon="-6.9694667"><ele>1146.0</ele><time>2026-04-24T11:19:18.397Z</time></trkpt><trkpt lat="30.9472417" lon="-6.9695017"><ele>1146.5</ele><time>2026-04-24T11:19:19.398Z</time></trkpt><trkpt lat="30.94718" lon="-6.96953"><ele>1147.0</ele><time>2026-04-24T11:19:20.397Z</time></trkpt><trkpt lat="30.94712" lon="-6.969555"><ele>1147.0</ele><time>2026-04-24T11:19:21.397Z</time></trkpt><trkpt lat="30.947055" lon="-6.9695817"><ele>1147.0</ele><time>2026-04-24T11:19:22.398Z</time></trkpt><trkpt lat="30.9469817" lon="-6.9696017"><ele>1147.0</ele><time>2026-04-24T11:19:23.398Z</time></trkpt><trkpt lat="30.9469083" lon="-6.9696167"><ele>1147.0</ele><time>2026-04-24T11:19:24.397Z</time></trkpt><trkpt lat="30.9468383" lon="-6.9696183"><ele>1147.0</ele><time>2026-04-24T11:19:25.397Z</time></trkpt><trkpt lat="30.9467717" lon="-6.9696067"><ele>1147.0</ele><time>2026-04-24T11:19:26.397Z</time></trkpt><trkpt lat="30.9466983" lon="-6.9695867"><ele>1147.0</ele><time>2026-04-24T11:19:27.397Z</time></trkpt><trkpt lat="30.9466233" lon="-6.9695567"><ele>1147.1666666666665</ele><time>2026-04-24T11:19:28.397Z</time></trkpt><trkpt lat="30.9465517" lon="-6.9695233"><ele>1147.3333333333333</ele><time>2026-04-24T11:19:29.397Z</time></trkpt><trkpt lat="30.9464733" lon="-6.9694967"><ele>1147.5</ele><time>2026-04-24T11:19:30.397Z</time></trkpt><trkpt lat="30.9463967" lon="-6.9694733"><ele>1147.6666666666667</ele><time>2026-04-24T11:19:31.397Z</time></trkpt><trkpt lat="30.9463233" lon="-6.9694583"><ele>1147.8333333333335</ele><time>2026-04-24T11:19:32.397Z</time></trkpt><trkpt lat="30.9462467" lon="-6.9694367"><ele>1148.0</ele><time>2026-04-24T11:19:33.397Z</time></trkpt><trkpt lat="30.946165" lon="-6.9694133"><ele>1148.0</ele><time>2026-04-24T11:19:34.397Z</time></trkpt><trkpt lat="30.9460817" lon="-6.9693983"><ele>1148.0</ele><time>2026-04-24T11:19:35.397Z</time></trkpt><trkpt lat="30.9460017" lon="-6.9694017"><ele>1148.0</ele><time>2026-04-24T11:19:36.397Z</time></trkpt><trkpt lat="30.94592" lon="-6.9694183"><ele>1148.0</ele><time>2026-04-24T11:19:37.397Z</time></trkpt><trkpt lat="30.9458383" lon="-6.96943"><ele>1148.0</ele><time>2026-04-24T11:19:38.397Z</time></trkpt><trkpt lat="30.9457533" lon="-6.9694383"><ele>1148.0</ele><time>2026-04-24T11:19:39.397Z</time></trkpt><trkpt lat="30.9456617" lon="-6.969435"><ele>1148.0</ele><time>2026-04-24T11:19:40.397Z</time></trkpt><trkpt lat="30.94557" lon="-6.9694217"><ele>1148.0</ele><time>2026-04-24T11:19:41.397Z</time></trkpt><trkpt lat="30.9454817" lon="-6.969405"><ele>1148.0</ele><time>2026-04-24T11:19:42.398Z</time></trkpt><trkpt lat="30.9453967" lon="-6.9693917"><ele>1148.0</ele><time>2026-04-24T11:19:43.397Z</time></trkpt><trkpt lat="30.9453083" lon="-6.96938"><ele>1148.0</ele><time>2026-04-24T11:19:44.397Z</time></trkpt><trkpt lat="30.9452283" lon="-6.96938"><ele>1148.0</ele><time>2026-04-24T11:19:45.397Z</time></trkpt><trkpt lat="30.945145" lon="-6.96939"><ele>1148.0</ele><time>2026-04-24T11:19:46.397Z</time></trkpt><trkpt lat="30.9450567" lon="-6.9694033"><ele>1148.0</ele><time>2026-04-24T11:19:47.397Z</time></trkpt><trkpt lat="30.9449733" lon="-6.96942"><ele>1148.0</ele><time>2026-04-24T11:19:48.397Z</time></trkpt><trkpt lat="30.9448883" lon="-6.9694317"><ele>1148.0</ele><time>2026-04-24T11:19:49.397Z</time></trkpt><trkpt lat="30.94481" lon="-6.969435"><ele>1148.0</ele><time>2026-04-24T11:19:50.397Z</time></trkpt><trkpt lat="30.9447317" lon="-6.9694283"><ele>1148.0</ele><time>2026-04-24T11:19:51.397Z</time></trkpt><trkpt lat="30.9446583" lon="-6.969405"><ele>1148.2</ele><time>2026-04-24T11:19:52.397Z</time></trkpt><trkpt lat="30.9445817" lon="-6.9693683"><ele>1148.4</ele><time>2026-04-24T11:19:53.397Z</time></trkpt><trkpt lat="30.9445033" lon="-6.9693217"><ele>1148.6000000000001</ele><time>2026-04-24T11:19:54.397Z</time></trkpt><trkpt lat="30.9444283" lon="-6.9692533"><ele>1148.8</ele><time>2026-04-24T11:19:55.397Z</time></trkpt><trkpt lat="30.9443517" lon="-6.9691783"><ele>1149.0</ele><time>2026-04-24T11:19:56.397Z</time></trkpt><trkpt lat="30.94428" lon="-6.9691067"><ele>1148.8333333333333</ele><time>2026-04-24T11:19:57.397Z</time></trkpt><trkpt lat="30.9442117" lon="-6.9690467"><ele>1148.6666666666667</ele><time>2026-04-24T11:19:58.397Z</time></trkpt><trkpt lat="30.9441333" lon="-6.9690117"><ele>1148.5</ele><time>2026-04-24T11:19:59.397Z</time></trkpt><trkpt lat="30.94405" lon="-6.9689933"><ele>1148.3333333333335</ele><time>2026-04-24T11:20:00.397Z</time></trkpt><trkpt lat="30.9439667" lon="-6.968985"><ele>1148.1666666666667</ele><time>2026-04-24T11:20:01.397Z</time></trkpt><trkpt lat="30.94389" lon="-6.968975"><ele>1148.0</ele><time>2026-04-24T11:20:02.397Z</time></trkpt><trkpt lat="30.94381" lon="-6.9689733"><ele>1148.0</ele><time>2026-04-24T11:20:03.397Z</time></trkpt><trkpt lat="30.9437217" lon="-6.968985"><ele>1148.0</ele><time>2026-04-24T11:20:04.397Z</time></trkpt><trkpt lat="30.943635" lon="-6.9689983"><ele>1148.0</ele><time>2026-04-24T11:20:05.397Z</time></trkpt><trkpt lat="30.94355" lon="-6.9690117"><ele>1148.0</ele><time>2026-04-24T11:20:06.397Z</time></trkpt><trkpt lat="30.9434667" lon="-6.969025"><ele>1148.0</ele><time>2026-04-24T11:20:07.397Z</time></trkpt><trkpt lat="30.9433883" lon="-6.9690317"><ele>1148.0</ele><time>2026-04-24T11:20:08.397Z</time></trkpt><trkpt lat="30.94332" lon="-6.969045"><ele>1147.8333333333335</ele><time>2026-04-24T11:20:09.397Z</time></trkpt><trkpt lat="30.9432567" lon="-6.96906"><ele>1147.6666666666667</ele><time>2026-04-24T11:20:10.397Z</time></trkpt><trkpt lat="30.9431867" lon="-6.9690667"><ele>1147.5</ele><time>2026-04-24T11:20:11.397Z</time></trkpt><trkpt lat="30.94311" lon="-6.969065"><ele>1147.3333333333333</ele><time>2026-04-24T11:20:12.397Z</time></trkpt><trkpt lat="30.9430317" lon="-6.96906"><ele>1147.1666666666665</ele><time>2026-04-24T11:20:13.397Z</time></trkpt><trkpt lat="30.9429517" lon="-6.9690533"><ele>1147.0</ele><time>2026-04-24T11:20:14.397Z</time></trkpt><trkpt lat="30.94287" lon="-6.9690433"><ele>1147.0</ele><time>2026-04-24T11:20:15.398Z</time></trkpt><trkpt lat="30.9427867" lon="-6.9690333"><ele>1147.0</ele><time>2026-04-24T11:20:16.398Z</time></trkpt><trkpt lat="30.9427017" lon="-6.9690217"><ele>1147.0</ele><time>2026-04-24T11:20:17.397Z</time></trkpt><trkpt lat="30.9426167" lon="-6.96901"><ele>1147.0</ele><time>2026-04-24T11:20:18.397Z</time></trkpt><trkpt lat="30.94253" lon="-6.9689983"><ele>1147.0</ele><time>2026-04-24T11:20:19.397Z</time></trkpt><trkpt lat="30.9424567" lon="-6.968975"><ele>1147.0</ele><time>2026-04-24T11:20:20.397Z</time></trkpt><trkpt lat="30.9423883" lon="-6.9689517"><ele>1147.3333333333333</ele><time>2026-04-24T11:20:21.397Z</time></trkpt><trkpt lat="30.94232" lon="-6.9689333"><ele>1147.6666666666665</ele><time>2026-04-24T11:20:22.397Z</time></trkpt><trkpt lat="30.942255" lon="-6.9689283"><ele>1148.0</ele><time>2026-04-24T11:20:23.397Z</time></trkpt><trkpt lat="30.9421817" lon="-6.9689433"><ele>1148.3333333333333</ele><time>2026-04-24T11:20:24.397Z</time></trkpt><trkpt lat="30.9421083" lon="-6.9689633"><ele>1148.6666666666667</ele><time>2026-04-24T11:20:25.397Z</time></trkpt><trkpt lat="30.9420183" lon="-6.9689833"><ele>1149.0</ele><time>2026-04-24T11:20:26.397Z</time></trkpt><trkpt lat="30.9419267" lon="-6.9690083"><ele>1149.0</ele><time>2026-04-24T11:20:27.397Z</time></trkpt><trkpt lat="30.941845" lon="-6.9690283"><ele>1149.0</ele><time>2026-04-24T11:20:28.397Z</time></trkpt><trkpt lat="30.9417667" lon="-6.969045"><ele>1149.0</ele><time>2026-04-24T11:20:29.397Z</time></trkpt><trkpt lat="30.9416917" lon="-6.969065"><ele>1149.0</ele><time>2026-04-24T11:20:30.397Z</time></trkpt><trkpt lat="30.9416233" lon="-6.9690733"><ele>1149.0</ele><time>2026-04-24T11:20:31.397Z</time></trkpt><trkpt lat="30.9415583" lon="-6.9690917"><ele>1149.0</ele><time>2026-04-24T11:20:32.397Z</time></trkpt><trkpt lat="30.9414933" lon="-6.9691033"><ele>1149.0</ele><time>2026-04-24T11:20:33.397Z</time></trkpt><trkpt lat="30.9414217" lon="-6.969115"><ele>1149.0</ele><time>2026-04-24T11:20:34.397Z</time></trkpt><trkpt lat="30.941345" lon="-6.9691317"><ele>1149.0</ele><time>2026-04-24T11:20:35.398Z</time></trkpt><trkpt lat="30.94127" lon="-6.9691483"><ele>1149.0</ele><time>2026-04-24T11:20:36.398Z</time></trkpt><trkpt lat="30.9411967" lon="-6.9691633"><ele>1149.0</ele><time>2026-04-24T11:20:37.397Z</time></trkpt><trkpt lat="30.9411333" lon="-6.9691717"><ele>1149.0</ele><time>2026-04-24T11:20:38.397Z</time></trkpt><trkpt lat="30.9410267" lon="-6.9691333"><ele>1149.0</ele><time>2026-04-24T11:20:40.397Z</time></trkpt><trkpt lat="30.9409667" lon="-6.9690317"><ele>1149.0</ele><time>2026-04-24T11:20:42.397Z</time></trkpt><trkpt lat="30.9409533" lon="-6.9689567"><ele>1149.0</ele><time>2026-04-24T11:20:43.397Z</time></trkpt><trkpt lat="30.9409467" lon="-6.9688717"><ele>1149.0</ele><time>2026-04-24T11:20:44.397Z</time></trkpt><trkpt lat="30.9409417" lon="-6.96877"><ele>1149.0</ele><time>2026-04-24T11:20:45.397Z</time></trkpt><trkpt lat="30.940925" lon="-6.9686633"><ele>1149.0</ele><time>2026-04-24T11:20:46.397Z</time></trkpt><trkpt lat="30.9409133" lon="-6.96856"><ele>1149.0</ele><time>2026-04-24T11:20:47.397Z</time></trkpt><trkpt lat="30.9408917" lon="-6.9684467"><ele>1148.3333333333333</ele><time>2026-04-24T11:20:48.397Z</time></trkpt><trkpt lat="30.9408783" lon="-6.968345"><ele>1147.6666666666667</ele><time>2026-04-24T11:20:49.397Z</time></trkpt><trkpt lat="30.94086" lon="-6.9682483"><ele>1147.0</ele><time>2026-04-24T11:20:50.397Z</time></trkpt><trkpt lat="30.9408367" lon="-6.968155"><ele>1146.3333333333335</ele><time>2026-04-24T11:20:51.397Z</time></trkpt><trkpt lat="30.94081" lon="-6.9680667"><ele>1145.6666666666667</ele><time>2026-04-24T11:20:52.397Z</time></trkpt><trkpt lat="30.9407917" lon="-6.967985"><ele>1145.0</ele><time>2026-04-24T11:20:53.397Z</time></trkpt><trkpt lat="30.9407767" lon="-6.9679083"><ele>1145.0</ele><time>2026-04-24T11:20:54.398Z</time></trkpt><trkpt lat="30.9407367" lon="-6.9677717"><ele>1145.0</ele><time>2026-04-24T11:20:56.397Z</time></trkpt><trkpt lat="30.9406833" lon="-6.96765"><ele>1145.0</ele><time>2026-04-24T11:20:58.397Z</time></trkpt><trkpt lat="30.940645" lon="-6.9675467"><ele>1145.0</ele><time>2026-04-24T11:21:00.397Z</time></trkpt><trkpt lat="30.9406083" lon="-6.967465"><ele>1145.0</ele><time>2026-04-24T11:21:02.397Z</time></trkpt><trkpt lat="30.9405817" lon="-6.96738"><ele>1145.3333333333335</ele><time>2026-04-24T11:21:05.397Z</time></trkpt><trkpt lat="30.9405667" lon="-6.96729"><ele>1145.6666666666667</ele><time>2026-04-24T11:21:22.397Z</time></trkpt><trkpt lat="30.94055" lon="-6.9672083"><ele>1146.0</ele><time>2026-04-24T11:21:24.397Z</time></trkpt><trkpt lat="30.9405433" lon="-6.9671033"><ele>1146.3333333333333</ele><time>2026-04-24T11:21:27.397Z</time></trkpt><trkpt lat="30.9404983" lon="-6.967045"><ele>1146.6666666666665</ele><time>2026-04-24T11:21:30.398Z</time></trkpt><trkpt lat="30.9404067" lon="-6.9670567"><ele>1147.0</ele><time>2026-04-24T11:21:33.397Z</time></trkpt><trkpt lat="30.9403383" lon="-6.967075"><ele>1147.0</ele><time>2026-04-24T11:21:35.397Z</time></trkpt><trkpt lat="30.94027" lon="-6.9670933"><ele>1147.0</ele><time>2026-04-24T11:21:37.397Z</time></trkpt><trkpt lat="30.9401833" lon="-6.9671067"><ele>1147.0</ele><time>2026-04-24T11:21:39.397Z</time></trkpt><trkpt lat="30.9400817" lon="-6.967115"><ele>1147.0</ele><time>2026-04-24T11:21:41.397Z</time></trkpt><trkpt lat="30.93997" lon="-6.96713"><ele>1147.0</ele><time>2026-04-24T11:21:43.397Z</time></trkpt><trkpt lat="30.9398433" lon="-6.9671533"><ele>1146.6666666666665</ele><time>2026-04-24T11:21:45.397Z</time></trkpt><trkpt lat="30.9397683" lon="-6.9671617"><ele>1146.3333333333333</ele><time>2026-04-24T11:21:46.397Z</time></trkpt><trkpt lat="30.9396933" lon="-6.9671767"><ele>1146.0</ele><time>2026-04-24T11:21:47.397Z</time></trkpt><trkpt lat="30.9396133" lon="-6.9671817"><ele>1145.6666666666667</ele><time>2026-04-24T11:21:48.397Z</time></trkpt><trkpt lat="30.9395333" lon="-6.9671933"><ele>1145.3333333333335</ele><time>2026-04-24T11:21:49.397Z</time></trkpt><trkpt lat="30.939455" lon="-6.9672033"><ele>1145.0</ele><time>2026-04-24T11:21:50.397Z</time></trkpt><trkpt lat="30.9393717" lon="-6.96721"><ele>1145.0</ele><time>2026-04-24T11:21:51.397Z</time></trkpt><trkpt lat="30.9392883" lon="-6.9672233"><ele>1145.0</ele><time>2026-04-24T11:21:52.397Z</time></trkpt><trkpt lat="30.9392" lon="-6.9672333"><ele>1145.0</ele><time>2026-04-24T11:21:53.397Z</time></trkpt><trkpt lat="30.9391167" lon="-6.9672467"><ele>1145.0</ele><time>2026-04-24T11:21:54.396Z</time></trkpt><trkpt lat="30.93904" lon="-6.9672633"><ele>1145.0</ele><time>2026-04-24T11:21:55.396Z</time></trkpt><trkpt lat="30.9389683" lon="-6.9672717"><ele>1145.0</ele><time>2026-04-24T11:21:56.396Z</time></trkpt><trkpt lat="30.9389" lon="-6.9672767"><ele>1145.0000000000002</ele><time>2026-04-24T11:21:57.396Z</time></trkpt><trkpt lat="30.938835" lon="-6.9672867"><ele>1145.0</ele><time>2026-04-24T11:21:58.396Z</time></trkpt><trkpt lat="30.9387683" lon="-6.9672967"><ele>1145.0</ele><time>2026-04-24T11:21:59.396Z</time></trkpt><trkpt lat="30.9387033" lon="-6.9673"><ele>1145.0</ele><time>2026-04-24T11:22:00.397Z</time></trkpt><trkpt lat="30.9386367" lon="-6.9673083"><ele>1145.0</ele><time>2026-04-24T11:22:01.396Z</time></trkpt><trkpt lat="30.9385733" lon="-6.9673117"><ele>1145.0000000000002</ele><time>2026-04-24T11:22:02.396Z</time></trkpt><trkpt lat="30.938475" lon="-6.967335"><ele>1145.0</ele><time>2026-04-24T11:22:04.396Z</time></trkpt><trkpt lat="30.93843" lon="-6.96741"><ele>1145.0</ele><time>2026-04-24T11:22:06.396Z</time></trkpt><trkpt lat="30.9384467" lon="-6.9675133"><ele>1145.0</ele><time>2026-04-24T11:22:08.396Z</time></trkpt><trkpt lat="30.938465" lon="-6.9675883"><ele>1145.0</ele><time>2026-04-24T11:22:10.396Z</time></trkpt><trkpt lat="30.9384717" lon="-6.9676633"><ele>1145.0</ele><time>2026-04-24T11:22:13.396Z</time></trkpt><trkpt lat="30.9384667" lon="-6.9677367"><ele>1145.0</ele><time>2026-04-24T11:22:21.396Z</time></trkpt><trkpt lat="30.9384733" lon="-6.9678867"><ele>1145.0</ele><time>2026-04-24T11:22:23.396Z</time></trkpt><trkpt lat="30.9384867" lon="-6.967985"><ele>1145.6</ele><time>2026-04-24T11:22:24.396Z</time></trkpt><trkpt lat="30.9384967" lon="-6.9680933"><ele>1146.2</ele><time>2026-04-24T11:22:25.396Z</time></trkpt><trkpt lat="30.9385083" lon="-6.968215"><ele>1146.8</ele><time>2026-04-24T11:22:26.396Z</time></trkpt><trkpt lat="30.9385217" lon="-6.96834"><ele>1147.4</ele><time>2026-04-24T11:22:27.396Z</time></trkpt><trkpt lat="30.93854" lon="-6.9684567"><ele>1148.0</ele><time>2026-04-24T11:22:28.396Z</time></trkpt><trkpt lat="30.9385617" lon="-6.9685633"><ele>1148.6</ele><time>2026-04-24T11:22:29.396Z</time></trkpt><trkpt lat="30.9385783" lon="-6.968675"><ele>1149.1999999999998</ele><time>2026-04-24T11:22:30.396Z</time></trkpt><trkpt lat="30.9385883" lon="-6.9687867"><ele>1149.8</ele><time>2026-04-24T11:22:31.396Z</time></trkpt><trkpt lat="30.9386033" lon="-6.9689"><ele>1150.3999999999999</ele><time>2026-04-24T11:22:32.396Z</time></trkpt><trkpt lat="30.93862" lon="-6.9690183"><ele>1151.0</ele><time>2026-04-24T11:22:33.396Z</time></trkpt><trkpt lat="30.9386383" lon="-6.9691333"><ele>1151.1666666666667</ele><time>2026-04-24T11:22:34.396Z</time></trkpt><trkpt lat="30.9386483" lon="-6.9692367"><ele>1151.3333333333335</ele><time>2026-04-24T11:22:35.396Z</time></trkpt><trkpt lat="30.9386617" lon="-6.969335"><ele>1151.5</ele><time>2026-04-24T11:22:36.396Z</time></trkpt><trkpt lat="30.9386733" lon="-6.96943"><ele>1151.6666666666667</ele><time>2026-04-24T11:22:37.396Z</time></trkpt><trkpt lat="30.9386833" lon="-6.9695183"><ele>1151.8333333333333</ele><time>2026-04-24T11:22:38.396Z</time></trkpt><trkpt lat="30.9386933" lon="-6.969615"><ele>1152.0</ele><time>2026-04-24T11:22:39.396Z</time></trkpt><trkpt lat="30.938705" lon="-6.969715"><ele>1152.0</ele><time>2026-04-24T11:22:40.396Z</time></trkpt><trkpt lat="30.938715" lon="-6.9698133"><ele>1152.0</ele><time>2026-04-24T11:22:41.396Z</time></trkpt><trkpt lat="30.9387283" lon="-6.9699183"><ele>1152.0</ele><time>2026-04-24T11:22:42.396Z</time></trkpt><trkpt lat="30.9387433" lon="-6.9700333"><ele>1152.0</ele><time>2026-04-24T11:22:43.396Z</time></trkpt><trkpt lat="30.9387583" lon="-6.970155"><ele>1152.0</ele><time>2026-04-24T11:22:44.396Z</time></trkpt><trkpt lat="30.9387733" lon="-6.9702833"><ele>1152.4</ele><time>2026-04-24T11:22:45.396Z</time></trkpt><trkpt lat="30.9387917" lon="-6.9704033"><ele>1152.8000000000002</ele><time>2026-04-24T11:22:46.396Z</time></trkpt><trkpt lat="30.938805" lon="-6.9705133"><ele>1153.2</ele><time>2026-04-24T11:22:47.396Z</time></trkpt><trkpt lat="30.9388183" lon="-6.97062"><ele>1153.6000000000001</ele><time>2026-04-24T11:22:48.396Z</time></trkpt><trkpt lat="30.93883" lon="-6.970735"><ele>1154.0</ele><time>2026-04-24T11:22:49.396Z</time></trkpt><trkpt lat="30.93884" lon="-6.970855"><ele>1154.75</ele><time>2026-04-24T11:22:50.396Z</time></trkpt><trkpt lat="30.9388533" lon="-6.9709867"><ele>1155.5</ele><time>2026-04-24T11:22:51.396Z</time></trkpt><trkpt lat="30.9388717" lon="-6.9711233"><ele>1156.25</ele><time>2026-04-24T11:22:52.396Z</time></trkpt><trkpt lat="30.938885" lon="-6.9712667"><ele>1157.0</ele><time>2026-04-24T11:22:53.397Z</time></trkpt><trkpt lat="30.9389" lon="-6.9714183"><ele>1157.0</ele><time>2026-04-24T11:22:54.396Z</time></trkpt><trkpt lat="30.9389183" lon="-6.9715733"><ele>1157.0</ele><time>2026-04-24T11:22:55.396Z</time></trkpt><trkpt lat="30.938935" lon="-6.9717367"><ele>1157.0</ele><time>2026-04-24T11:22:56.396Z</time></trkpt><trkpt lat="30.9389517" lon="-6.971895"><ele>1157.0</ele><time>2026-04-24T11:22:57.396Z</time></trkpt><trkpt lat="30.9389733" lon="-6.9720583"><ele>1156.5</ele><time>2026-04-24T11:22:58.396Z</time></trkpt><trkpt lat="30.9389883" lon="-6.9722133"><ele>1156.0</ele><time>2026-04-24T11:22:59.396Z</time></trkpt><trkpt lat="30.939" lon="-6.97237"><ele>1155.5</ele><time>2026-04-24T11:23:00.396Z</time></trkpt><trkpt lat="30.9390133" lon="-6.9725333"><ele>1155.0</ele><time>2026-04-24T11:23:01.396Z</time></trkpt><trkpt lat="30.9390233" lon="-6.9726933"><ele>1154.75</ele><time>2026-04-24T11:23:02.396Z</time></trkpt><trkpt lat="30.939045" lon="-6.9728533"><ele>1154.5</ele><time>2026-04-24T11:23:03.396Z</time></trkpt><trkpt lat="30.9390683" lon="-6.973015"><ele>1154.25</ele><time>2026-04-24T11:23:04.396Z</time></trkpt><trkpt lat="30.9390933" lon="-6.9731717"><ele>1154.0</ele><time>2026-04-24T11:23:05.396Z</time></trkpt><trkpt lat="30.9391183" lon="-6.9733283"><ele>1154.25</ele><time>2026-04-24T11:23:06.397Z</time></trkpt><trkpt lat="30.93914" lon="-6.9734883"><ele>1154.5</ele><time>2026-04-24T11:23:07.396Z</time></trkpt><trkpt lat="30.93916" lon="-6.97365"><ele>1154.75</ele><time>2026-04-24T11:23:08.396Z</time></trkpt><trkpt lat="30.9391767" lon="-6.97381"><ele>1155.0</ele><time>2026-04-24T11:23:09.397Z</time></trkpt><trkpt lat="30.9391933" lon="-6.9739717"><ele>1155.0</ele><time>2026-04-24T11:23:10.396Z</time></trkpt><trkpt lat="30.93921" lon="-6.97413"><ele>1155.0</ele><time>2026-04-24T11:23:11.396Z</time></trkpt><trkpt lat="30.9392333" lon="-6.9742917"><ele>1155.0</ele><time>2026-04-24T11:23:12.396Z</time></trkpt><trkpt lat="30.9392517" lon="-6.9744517"><ele>1155.0</ele><time>2026-04-24T11:23:13.396Z</time></trkpt><trkpt lat="30.9392733" lon="-6.9746167"><ele>1155.0</ele><time>2026-04-24T11:23:14.397Z</time></trkpt><trkpt lat="30.9392917" lon="-6.9747833"><ele>1155.0</ele><time>2026-04-24T11:23:15.396Z</time></trkpt><trkpt lat="30.9393133" lon="-6.9749467"><ele>1155.0</ele><time>2026-04-24T11:23:16.397Z</time></trkpt><trkpt lat="30.9393333" lon="-6.9751117"><ele>1155.0</ele><time>2026-04-24T11:23:17.396Z</time></trkpt><trkpt lat="30.9393517" lon="-6.9752767"><ele>1154.75</ele><time>2026-04-24T11:23:18.396Z</time></trkpt><trkpt lat="30.9393717" lon="-6.9754383"><ele>1154.5</ele><time>2026-04-24T11:23:19.396Z</time></trkpt><trkpt lat="30.9393917" lon="-6.9755983"><ele>1154.25</ele><time>2026-04-24T11:23:20.396Z</time></trkpt><trkpt lat="30.93941" lon="-6.97576"><ele>1154.0</ele><time>2026-04-24T11:23:21.396Z</time></trkpt><trkpt lat="30.9394283" lon="-6.975925"><ele>1154.0</ele><time>2026-04-24T11:23:22.396Z</time></trkpt><trkpt lat="30.93945" lon="-6.9760867"><ele>1154.0</ele><time>2026-04-24T11:23:23.396Z</time></trkpt><trkpt lat="30.9394717" lon="-6.9762367"><ele>1154.0</ele><time>2026-04-24T11:23:24.396Z</time></trkpt><trkpt lat="30.9394917" lon="-6.9763833"><ele>1154.0</ele><time>2026-04-24T11:23:25.396Z</time></trkpt><trkpt lat="30.93951" lon="-6.9765183"><ele>1154.0</ele><time>2026-04-24T11:23:26.396Z</time></trkpt><trkpt lat="30.9395183" lon="-6.9766483"><ele>1154.0</ele><time>2026-04-24T11:23:27.396Z</time></trkpt><trkpt lat="30.9395317" lon="-6.9767783"><ele>1154.0</ele><time>2026-04-24T11:23:28.396Z</time></trkpt><trkpt lat="30.9395467" lon="-6.9769067"><ele>1154.0</ele><time>2026-04-24T11:23:29.396Z</time></trkpt><trkpt lat="30.9395633" lon="-6.977035"><ele>1154.0</ele><time>2026-04-24T11:23:30.396Z</time></trkpt><trkpt lat="30.939575" lon="-6.9771617"><ele>1154.2</ele><time>2026-04-24T11:23:31.396Z</time></trkpt><trkpt lat="30.9395867" lon="-6.977285"><ele>1154.4</ele><time>2026-04-24T11:23:32.396Z</time></trkpt><trkpt lat="30.939605" lon="-6.977405"><ele>1154.6</ele><time>2026-04-24T11:23:33.396Z</time></trkpt><trkpt lat="30.9396167" lon="-6.9775233"><ele>1154.8</ele><time>2026-04-24T11:23:34.396Z</time></trkpt><trkpt lat="30.9396333" lon="-6.977645"><ele>1155.0</ele><time>2026-04-24T11:23:35.396Z</time></trkpt><trkpt lat="30.9396483" lon="-6.97777"><ele>1155.25</ele><time>2026-04-24T11:23:36.396Z</time></trkpt><trkpt lat="30.93966" lon="-6.9778983"><ele>1155.5</ele><time>2026-04-24T11:23:37.396Z</time></trkpt><trkpt lat="30.9396767" lon="-6.97803"><ele>1155.75</ele><time>2026-04-24T11:23:38.396Z</time></trkpt><trkpt lat="30.939695" lon="-6.9781667"><ele>1156.0</ele><time>2026-04-24T11:23:39.396Z</time></trkpt><trkpt lat="30.93971" lon="-6.9783067"><ele>1156.0</ele><time>2026-04-24T11:23:40.396Z</time></trkpt><trkpt lat="30.9397267" lon="-6.9784483"><ele>1156.0</ele><time>2026-04-24T11:23:41.396Z</time></trkpt><trkpt lat="30.9397467" lon="-6.9785983"><ele>1156.0</ele><time>2026-04-24T11:23:42.396Z</time></trkpt><trkpt lat="30.9397667" lon="-6.9787483"><ele>1156.0</ele><time>2026-04-24T11:23:43.396Z</time></trkpt><trkpt lat="30.9397883" lon="-6.9789017"><ele>1156.0</ele><time>2026-04-24T11:23:44.396Z</time></trkpt><trkpt lat="30.93981" lon="-6.9790567"><ele>1156.0</ele><time>2026-04-24T11:23:45.396Z</time></trkpt><trkpt lat="30.9398267" lon="-6.979215"><ele>1156.0</ele><time>2026-04-24T11:23:46.396Z</time></trkpt><trkpt lat="30.9398433" lon="-6.9793767"><ele>1156.0</ele><time>2026-04-24T11:23:47.396Z</time></trkpt><trkpt lat="30.9398583" lon="-6.9795383"><ele>1156.0</ele><time>2026-04-24T11:23:48.396Z</time></trkpt><trkpt lat="30.9398783" lon="-6.9797"><ele>1156.0</ele><time>2026-04-24T11:23:49.396Z</time></trkpt><trkpt lat="30.9398983" lon="-6.9798617"><ele>1156.0</ele><time>2026-04-24T11:23:50.396Z</time></trkpt><trkpt lat="30.9399167" lon="-6.9800217"><ele>1156.0</ele><time>2026-04-24T11:23:51.396Z</time></trkpt><trkpt lat="30.9399417" lon="-6.9801833"><ele>1157.0</ele><time>2026-04-24T11:23:52.396Z</time></trkpt><trkpt lat="30.93996" lon="-6.9803483"><ele>1158.0</ele><time>2026-04-24T11:23:53.396Z</time></trkpt><trkpt lat="30.9399783" lon="-6.980515"><ele>1159.0</ele><time>2026-04-24T11:23:54.396Z</time></trkpt><trkpt lat="30.9399983" lon="-6.980685"><ele>1160.0</ele><time>2026-04-24T11:23:55.396Z</time></trkpt><trkpt lat="30.9400167" lon="-6.9808567"><ele>1160.0</ele><time>2026-04-24T11:23:56.396Z</time></trkpt><trkpt lat="30.9400367" lon="-6.9810283"><ele>1160.0</ele><time>2026-04-24T11:23:57.396Z</time></trkpt><trkpt lat="30.940055" lon="-6.9811883"><ele>1160.0</ele><time>2026-04-24T11:23:58.396Z</time></trkpt><trkpt lat="30.9400733" lon="-6.981345"><ele>1160.0</ele><time>2026-04-24T11:23:59.397Z</time></trkpt><trkpt lat="30.94009" lon="-6.9814967"><ele>1160.0</ele><time>2026-04-24T11:24:00.396Z</time></trkpt><trkpt lat="30.9401067" lon="-6.9816483"><ele>1160.0</ele><time>2026-04-24T11:24:01.396Z</time></trkpt><trkpt lat="30.9401217" lon="-6.981795"><ele>1160.0</ele><time>2026-04-24T11:24:02.396Z</time></trkpt><trkpt lat="30.9401383" lon="-6.981945"><ele>1160.0</ele><time>2026-04-24T11:24:03.396Z</time></trkpt><trkpt lat="30.9401583" lon="-6.9820967"><ele>1160.0</ele><time>2026-04-24T11:24:04.396Z</time></trkpt><trkpt lat="30.9401817" lon="-6.9822433"><ele>1160.0</ele><time>2026-04-24T11:24:05.396Z</time></trkpt><trkpt lat="30.9402" lon="-6.9823917"><ele>1160.0</ele><time>2026-04-24T11:24:06.396Z</time></trkpt><trkpt lat="30.9402167" lon="-6.98254"><ele>1160.0</ele><time>2026-04-24T11:24:07.396Z</time></trkpt><trkpt lat="30.9402333" lon="-6.9826883"><ele>1160.0</ele><time>2026-04-24T11:24:08.396Z</time></trkpt><trkpt lat="30.9402483" lon="-6.98283"><ele>1160.0</ele><time>2026-04-24T11:24:09.397Z</time></trkpt><trkpt lat="30.9402633" lon="-6.9829783"><ele>1160.0</ele><time>2026-04-24T11:24:10.396Z</time></trkpt><trkpt lat="30.9402783" lon="-6.9831217"><ele>1160.0</ele><time>2026-04-24T11:24:11.396Z</time></trkpt><trkpt lat="30.940295" lon="-6.9832683"><ele>1159.5</ele><time>2026-04-24T11:24:12.396Z</time></trkpt><trkpt lat="30.9403133" lon="-6.983415"><ele>1159.0</ele><time>2026-04-24T11:24:13.396Z</time></trkpt><trkpt lat="30.9403283" lon="-6.9835583"><ele>1158.5</ele><time>2026-04-24T11:24:14.396Z</time></trkpt><trkpt lat="30.9403433" lon="-6.9836933"><ele>1158.0</ele><time>2026-04-24T11:24:15.396Z</time></trkpt><trkpt lat="30.94036" lon="-6.9838217"><ele>1158.0</ele><time>2026-04-24T11:24:16.396Z</time></trkpt><trkpt lat="30.9403783" lon="-6.9839467"><ele>1158.0</ele><time>2026-04-24T11:24:17.396Z</time></trkpt><trkpt lat="30.94039" lon="-6.9840667"><ele>1158.0</ele><time>2026-04-24T11:24:18.396Z</time></trkpt><trkpt lat="30.9404017" lon="-6.9841833"><ele>1158.0</ele><time>2026-04-24T11:24:19.396Z</time></trkpt><trkpt lat="30.9404133" lon="-6.9843033"><ele>1158.0</ele><time>2026-04-24T11:24:20.396Z</time></trkpt><trkpt lat="30.9404283" lon="-6.98442"><ele>1158.2</ele><time>2026-04-24T11:24:21.396Z</time></trkpt><trkpt lat="30.94044" lon="-6.9845333"><ele>1158.4</ele><time>2026-04-24T11:24:22.396Z</time></trkpt><trkpt lat="30.9404533" lon="-6.984645"><ele>1158.6000000000001</ele><time>2026-04-24T11:24:23.396Z</time></trkpt><trkpt lat="30.94047" lon="-6.98476"><ele>1158.8</ele><time>2026-04-24T11:24:24.396Z</time></trkpt><trkpt lat="30.9404883" lon="-6.9848767"><ele>1159.0</ele><time>2026-04-24T11:24:25.396Z</time></trkpt><trkpt lat="30.9405067" lon="-6.9849933"><ele>1159.2</ele><time>2026-04-24T11:24:26.396Z</time></trkpt><trkpt lat="30.9405217" lon="-6.985105"><ele>1159.4</ele><time>2026-04-24T11:24:27.396Z</time></trkpt><trkpt lat="30.940545" lon="-6.98521"><ele>1159.6</ele><time>2026-04-24T11:24:28.396Z</time></trkpt><trkpt lat="30.940575" lon="-6.9853117"><ele>1159.8</ele><time>2026-04-24T11:24:29.397Z</time></trkpt><trkpt lat="30.9406167" lon="-6.9854117"><ele>1160.0</ele><time>2026-04-24T11:24:30.396Z</time></trkpt><trkpt lat="30.94065" lon="-6.98551"><ele>1160.0</ele><time>2026-04-24T11:24:31.396Z</time></trkpt><trkpt lat="30.940665" lon="-6.9856067"><ele>1160.0</ele><time>2026-04-24T11:24:32.396Z</time></trkpt><trkpt lat="30.9406583" lon="-6.9856983"><ele>1160.0</ele><time>2026-04-24T11:24:33.396Z</time></trkpt><trkpt lat="30.94064" lon="-6.9857967"><ele>1160.0</ele><time>2026-04-24T11:24:34.396Z</time></trkpt><trkpt lat="30.9406267" lon="-6.9859083"><ele>1160.0</ele><time>2026-04-24T11:24:35.396Z</time></trkpt><trkpt lat="30.9406233" lon="-6.9860267"><ele>1160.0</ele><time>2026-04-24T11:24:36.396Z</time></trkpt><trkpt lat="30.9406267" lon="-6.986135"><ele>1160.0</ele><time>2026-04-24T11:24:37.396Z</time></trkpt><trkpt lat="30.9406317" lon="-6.986235"><ele>1160.0</ele><time>2026-04-24T11:24:38.396Z</time></trkpt><trkpt lat="30.94064" lon="-6.9863367"><ele>1160.0</ele><time>2026-04-24T11:24:39.396Z</time></trkpt><trkpt lat="30.9406433" lon="-6.986435"><ele>1160.0</ele><time>2026-04-24T11:24:40.396Z</time></trkpt><trkpt lat="30.9406533" lon="-6.986535"><ele>1160.0</ele><time>2026-04-24T11:24:41.396Z</time></trkpt><trkpt lat="30.9406633" lon="-6.986635"><ele>1160.0</ele><time>2026-04-24T11:24:42.396Z</time></trkpt><trkpt lat="30.9406767" lon="-6.98674"><ele>1160.0</ele><time>2026-04-24T11:24:43.396Z</time></trkpt><trkpt lat="30.9406883" lon="-6.9868417"><ele>1160.0</ele><time>2026-04-24T11:24:44.396Z</time></trkpt><trkpt lat="30.9407017" lon="-6.9869417"><ele>1160.0</ele><time>2026-04-24T11:24:45.396Z</time></trkpt><trkpt lat="30.9407117" lon="-6.9870317"><ele>1160.0</ele><time>2026-04-24T11:24:46.396Z</time></trkpt><trkpt lat="30.94072" lon="-6.9871233"><ele>1160.0</ele><time>2026-04-24T11:24:47.396Z</time></trkpt><trkpt lat="30.9407333" lon="-6.98722"><ele>1160.0</ele><time>2026-04-24T11:24:48.396Z</time></trkpt><trkpt lat="30.940745" lon="-6.9873217"><ele>1160.0</ele><time>2026-04-24T11:24:49.396Z</time></trkpt><trkpt lat="30.940755" lon="-6.98743"><ele>1160.0</ele><time>2026-04-24T11:24:50.396Z</time></trkpt><trkpt lat="30.9407683" lon="-6.987545"><ele>1160.0</ele><time>2026-04-24T11:24:51.396Z</time></trkpt><trkpt lat="30.9407817" lon="-6.9876667"><ele>1160.0</ele><time>2026-04-24T11:24:52.396Z</time></trkpt><trkpt lat="30.9407967" lon="-6.987795"><ele>1160.0</ele><time>2026-04-24T11:24:53.396Z</time></trkpt><trkpt lat="30.940815" lon="-6.9879283"><ele>1160.5</ele><time>2026-04-24T11:24:54.396Z</time></trkpt><trkpt lat="30.9408317" lon="-6.9880683"><ele>1161.0</ele><time>2026-04-24T11:24:55.396Z</time></trkpt><trkpt lat="30.94085" lon="-6.9882117"><ele>1161.5</ele><time>2026-04-24T11:24:56.396Z</time></trkpt><trkpt lat="30.9408683" lon="-6.9883633"><ele>1162.0</ele><time>2026-04-24T11:24:57.396Z</time></trkpt><trkpt lat="30.9408933" lon="-6.9885183"><ele>1162.25</ele><time>2026-04-24T11:24:58.397Z</time></trkpt><trkpt lat="30.9409267" lon="-6.988675"><ele>1162.5</ele><time>2026-04-24T11:24:59.396Z</time></trkpt><trkpt lat="30.940975" lon="-6.98883"><ele>1162.75</ele><time>2026-04-24T11:25:00.396Z</time></trkpt><trkpt lat="30.9410417" lon="-6.988975"><ele>1163.0</ele><time>2026-04-24T11:25:01.396Z</time></trkpt><trkpt lat="30.94113" lon="-6.989105"><ele>1161.0</ele><time>2026-04-24T11:25:02.396Z</time></trkpt><trkpt lat="30.9412417" lon="-6.9892183"><ele>1159.0</ele><time>2026-04-24T11:25:03.396Z</time></trkpt><trkpt lat="30.94137" lon="-6.989315"><ele>1157.0</ele><time>2026-04-24T11:25:04.396Z</time></trkpt><trkpt lat="30.9415017" lon="-6.9894083"><ele>1157.0</ele><time>2026-04-24T11:25:05.396Z</time></trkpt><trkpt lat="30.9416433" lon="-6.989485"><ele>1157.0</ele><time>2026-04-24T11:25:06.396Z</time></trkpt><trkpt lat="30.9417783" lon="-6.9895617"><ele>1157.0</ele><time>2026-04-24T11:25:07.396Z</time></trkpt><trkpt lat="30.9419083" lon="-6.989635"><ele>1157.75</ele><time>2026-04-24T11:25:08.397Z</time></trkpt><trkpt lat="30.9420317" lon="-6.9897083"><ele>1158.5</ele><time>2026-04-24T11:25:09.396Z</time></trkpt><trkpt lat="30.9421567" lon="-6.9897767"><ele>1159.25</ele><time>2026-04-24T11:25:10.396Z</time></trkpt><trkpt lat="30.9422667" lon="-6.98986"><ele>1160.0</ele><time>2026-04-24T11:25:11.396Z</time></trkpt><trkpt lat="30.9423717" lon="-6.9899517"><ele>1158.5</ele><time>2026-04-24T11:25:12.396Z</time></trkpt><trkpt lat="30.9424817" lon="-6.9900667"><ele>1157.0</ele><time>2026-04-24T11:25:13.396Z</time></trkpt><trkpt lat="30.942585" lon="-6.990185"><ele>1155.5</ele><time>2026-04-24T11:25:14.396Z</time></trkpt><trkpt lat="30.9426767" lon="-6.9903133"><ele>1154.0</ele><time>2026-04-24T11:25:15.396Z</time></trkpt><trkpt lat="30.9427567" lon="-6.9904533"><ele>1154.0</ele><time>2026-04-24T11:25:16.396Z</time></trkpt><trkpt lat="30.942825" lon="-6.9905967"><ele>1154.0</ele><time>2026-04-24T11:25:17.396Z</time></trkpt><trkpt lat="30.942885" lon="-6.990745"><ele>1154.0</ele><time>2026-04-24T11:25:18.396Z</time></trkpt><trkpt lat="30.9429383" lon="-6.9908967"><ele>1154.0</ele><time>2026-04-24T11:25:19.396Z</time></trkpt><trkpt lat="30.942975" lon="-6.9910433"><ele>1153.75</ele><time>2026-04-24T11:25:20.396Z</time></trkpt><trkpt lat="30.943005" lon="-6.991195"><ele>1153.5</ele><time>2026-04-24T11:25:21.396Z</time></trkpt><trkpt lat="30.9430267" lon="-6.9913467"><ele>1153.25</ele><time>2026-04-24T11:25:22.396Z</time></trkpt><trkpt lat="30.9430517" lon="-6.9914933"><ele>1153.0</ele><time>2026-04-24T11:25:23.396Z</time></trkpt><trkpt lat="30.943075" lon="-6.9916467"><ele>1153.0</ele><time>2026-04-24T11:25:24.396Z</time></trkpt><trkpt lat="30.943095" lon="-6.9917983"><ele>1153.0</ele><time>2026-04-24T11:25:25.396Z</time></trkpt><trkpt lat="30.9431183" lon="-6.991955"><ele>1153.0</ele><time>2026-04-24T11:25:26.396Z</time></trkpt><trkpt lat="30.94314" lon="-6.9921133"><ele>1153.0</ele><time>2026-04-24T11:25:27.396Z</time></trkpt><trkpt lat="30.9431617" lon="-6.9922833"><ele>1153.0</ele><time>2026-04-24T11:25:28.396Z</time></trkpt><trkpt lat="30.94318" lon="-6.9924583"><ele>1153.0</ele><time>2026-04-24T11:25:29.396Z</time></trkpt><trkpt lat="30.9432" lon="-6.9926383"><ele>1153.0</ele><time>2026-04-24T11:25:30.396Z</time></trkpt><trkpt lat="30.9432183" lon="-6.9928183"><ele>1152.3333333333333</ele><time>2026-04-24T11:25:31.396Z</time></trkpt><trkpt lat="30.943245" lon="-6.9930067"><ele>1151.6666666666667</ele><time>2026-04-24T11:25:32.396Z</time></trkpt><trkpt lat="30.9432667" lon="-6.9931967"><ele>1151.0</ele><time>2026-04-24T11:25:33.396Z</time></trkpt><trkpt lat="30.9432917" lon="-6.9933867"><ele>1150.3333333333335</ele><time>2026-04-24T11:25:34.396Z</time></trkpt><trkpt lat="30.9433167" lon="-6.9935883"><ele>1149.6666666666667</ele><time>2026-04-24T11:25:35.396Z</time></trkpt><trkpt lat="30.9433417" lon="-6.99379"><ele>1149.0</ele><time>2026-04-24T11:25:36.396Z</time></trkpt><trkpt lat="30.94337" lon="-6.99399"><ele>1149.0</ele><time>2026-04-24T11:25:37.396Z</time></trkpt><trkpt lat="30.9434" lon="-6.9941983"><ele>1149.0</ele><time>2026-04-24T11:25:38.396Z</time></trkpt><trkpt lat="30.9434283" lon="-6.9944017"><ele>1149.0</ele><time>2026-04-24T11:25:39.396Z</time></trkpt><trkpt lat="30.94346" lon="-6.9946117"><ele>1149.0</ele><time>2026-04-24T11:25:40.396Z</time></trkpt><trkpt lat="30.9434833" lon="-6.994825"><ele>1149.0</ele><time>2026-04-24T11:25:41.396Z</time></trkpt><trkpt lat="30.9435083" lon="-6.995035"><ele>1149.0</ele><time>2026-04-24T11:25:42.396Z</time></trkpt><trkpt lat="30.9435383" lon="-6.99525"><ele>1149.3333333333333</ele><time>2026-04-24T11:25:43.396Z</time></trkpt><trkpt lat="30.9435633" lon="-6.99546"><ele>1149.6666666666665</ele><time>2026-04-24T11:25:44.396Z</time></trkpt><trkpt lat="30.9435817" lon="-6.995665"><ele>1150.0</ele><time>2026-04-24T11:25:45.397Z</time></trkpt><trkpt lat="30.9436083" lon="-6.9958717"><ele>1152.0</ele><time>2026-04-24T11:25:46.396Z</time></trkpt><trkpt lat="30.943635" lon="-6.9960817"><ele>1154.0</ele><time>2026-04-24T11:25:47.396Z</time></trkpt><trkpt lat="30.94366" lon="-6.9962883"><ele>1156.0</ele><time>2026-04-24T11:25:48.396Z</time></trkpt><trkpt lat="30.943685" lon="-6.9964967"><ele>1157.0</ele><time>2026-04-24T11:25:49.396Z</time></trkpt><trkpt lat="30.943705" lon="-6.996695"><ele>1158.0</ele><time>2026-04-24T11:25:50.396Z</time></trkpt><trkpt lat="30.94372" lon="-6.996875"><ele>1159.0</ele><time>2026-04-24T11:25:51.396Z</time></trkpt><trkpt lat="30.9437333" lon="-6.9970433"><ele>1159.0</ele><time>2026-04-24T11:25:52.396Z</time></trkpt><trkpt lat="30.9437467" lon="-6.9972067"><ele>1159.0</ele><time>2026-04-24T11:25:53.396Z</time></trkpt><trkpt lat="30.94375" lon="-6.99736"><ele>1159.0</ele><time>2026-04-24T11:25:54.396Z</time></trkpt><trkpt lat="30.9437567" lon="-6.9975083"><ele>1159.0</ele><time>2026-04-24T11:25:55.396Z</time></trkpt><trkpt lat="30.943765" lon="-6.9976567"><ele>1159.5</ele><time>2026-04-24T11:25:56.396Z</time></trkpt><trkpt lat="30.943775" lon="-6.99781"><ele>1160.0</ele><time>2026-04-24T11:25:57.396Z</time></trkpt><trkpt lat="30.9437817" lon="-6.997965"><ele>1160.5</ele><time>2026-04-24T11:25:58.396Z</time></trkpt><trkpt lat="30.943785" lon="-6.9981183"><ele>1161.0</ele><time>2026-04-24T11:25:59.395Z</time></trkpt><trkpt lat="30.943795" lon="-6.9982733"><ele>1161.75</ele><time>2026-04-24T11:26:00.395Z</time></trkpt><trkpt lat="30.9437983" lon="-6.9984283"><ele>1162.5</ele><time>2026-04-24T11:26:01.395Z</time></trkpt><trkpt lat="30.9438067" lon="-6.9985817"><ele>1163.25</ele><time>2026-04-24T11:26:02.395Z</time></trkpt><trkpt lat="30.943815" lon="-6.9987383"><ele>1164.0</ele><time>2026-04-24T11:26:03.395Z</time></trkpt><trkpt lat="30.943825" lon="-6.9988967"><ele>1164.0</ele><time>2026-04-24T11:26:04.395Z</time></trkpt><trkpt lat="30.943835" lon="-6.9990583"><ele>1164.0</ele><time>2026-04-24T11:26:05.395Z</time></trkpt><trkpt lat="30.9438433" lon="-6.99922"><ele>1164.0</ele><time>2026-04-24T11:26:06.395Z</time></trkpt><trkpt lat="30.94385" lon="-6.9993817"><ele>1164.0</ele><time>2026-04-24T11:26:07.395Z</time></trkpt><trkpt lat="30.943855" lon="-6.9995433"><ele>1164.25</ele><time>2026-04-24T11:26:08.395Z</time></trkpt><trkpt lat="30.9438617" lon="-6.9997033"><ele>1164.5</ele><time>2026-04-24T11:26:09.395Z</time></trkpt><trkpt lat="30.943875" lon="-6.9998667"><ele>1164.75</ele><time>2026-04-24T11:26:10.395Z</time></trkpt><trkpt lat="30.9438817" lon="-7.000035"><ele>1165.0</ele><time>2026-04-24T11:26:11.396Z</time></trkpt><trkpt lat="30.9438917" lon="-7.00022"><ele>1165.0</ele><time>2026-04-24T11:26:12.395Z</time></trkpt><trkpt lat="30.9439017" lon="-7.0004133"><ele>1165.0</ele><time>2026-04-24T11:26:13.395Z</time></trkpt><trkpt lat="30.9439117" lon="-7.0006183"><ele>1165.0</ele><time>2026-04-24T11:26:14.395Z</time></trkpt><trkpt lat="30.9439233" lon="-7.0008367"><ele>1164.6666666666665</ele><time>2026-04-24T11:26:15.395Z</time></trkpt><trkpt lat="30.9439333" lon="-7.001065"><ele>1164.3333333333333</ele><time>2026-04-24T11:26:16.395Z</time></trkpt><trkpt lat="30.943945" lon="-7.0012967"><ele>1164.0</ele><time>2026-04-24T11:26:17.396Z</time></trkpt><trkpt lat="30.94396" lon="-7.001535"><ele>1163.6666666666667</ele><time>2026-04-24T11:26:18.395Z</time></trkpt><trkpt lat="30.94397" lon="-7.001765"><ele>1163.3333333333335</ele><time>2026-04-24T11:26:19.395Z</time></trkpt><trkpt lat="30.94398" lon="-7.001985"><ele>1163.0</ele><time>2026-04-24T11:26:20.395Z</time></trkpt><trkpt lat="30.9439917" lon="-7.0022017"><ele>1163.0</ele><time>2026-04-24T11:26:21.395Z</time></trkpt><trkpt lat="30.9439983" lon="-7.00242"><ele>1163.0</ele><time>2026-04-24T11:26:22.395Z</time></trkpt><trkpt lat="30.9440117" lon="-7.0026367"><ele>1163.0</ele><time>2026-04-24T11:26:23.395Z</time></trkpt><trkpt lat="30.9440283" lon="-7.002855"><ele>1162.6666666666667</ele><time>2026-04-24T11:26:24.395Z</time></trkpt><trkpt lat="30.944055" lon="-7.0030733"><ele>1162.3333333333333</ele><time>2026-04-24T11:26:25.395Z</time></trkpt><trkpt lat="30.944085" lon="-7.0032917"><ele>1162.0</ele><time>2026-04-24T11:26:26.395Z</time></trkpt><trkpt lat="30.9441233" lon="-7.0035033"><ele>1161.3333333333333</ele><time>2026-04-24T11:26:27.395Z</time></trkpt><trkpt lat="30.9441783" lon="-7.0037183"><ele>1160.6666666666667</ele><time>2026-04-24T11:26:28.396Z</time></trkpt><trkpt lat="30.94424" lon="-7.0039367"><ele>1160.0</ele><time>2026-04-24T11:26:29.395Z</time></trkpt><trkpt lat="30.9443033" lon="-7.0041467"><ele>1162.3333333333335</ele><time>2026-04-24T11:26:30.395Z</time></trkpt><trkpt lat="30.9443717" lon="-7.0043617"><ele>1164.6666666666667</ele><time>2026-04-24T11:26:31.395Z</time></trkpt><trkpt lat="30.944435" lon="-7.00457"><ele>1167.0</ele><time>2026-04-24T11:26:32.395Z</time></trkpt><trkpt lat="30.944505" lon="-7.0047867"><ele>1165.6666666666667</ele><time>2026-04-24T11:26:33.395Z</time></trkpt><trkpt lat="30.9445733" lon="-7.0049967"><ele>1164.3333333333335</ele><time>2026-04-24T11:26:34.395Z</time></trkpt><trkpt lat="30.9446467" lon="-7.0052017"><ele>1163.0</ele><time>2026-04-24T11:26:35.395Z</time></trkpt><trkpt lat="30.9447167" lon="-7.00541"><ele>1163.0</ele><time>2026-04-24T11:26:36.395Z</time></trkpt><trkpt lat="30.94479" lon="-7.0056117"><ele>1163.0</ele><time>2026-04-24T11:26:37.395Z</time></trkpt><trkpt lat="30.9448617" lon="-7.0058117"><ele>1163.0</ele><time>2026-04-24T11:26:38.395Z</time></trkpt><trkpt lat="30.9449383" lon="-7.006015"><ele>1163.0</ele><time>2026-04-24T11:26:39.395Z</time></trkpt><trkpt lat="30.9450133" lon="-7.00622"><ele>1163.0</ele><time>2026-04-24T11:26:40.395Z</time></trkpt><trkpt lat="30.9450833" lon="-7.0064217"><ele>1163.0</ele><time>2026-04-24T11:26:41.395Z</time></trkpt><trkpt lat="30.9451533" lon="-7.00663"><ele>1162.6666666666667</ele><time>2026-04-24T11:26:42.395Z</time></trkpt><trkpt lat="30.945225" lon="-7.0068383"><ele>1162.3333333333333</ele><time>2026-04-24T11:26:43.395Z</time></trkpt><trkpt lat="30.9452983" lon="-7.0070467"><ele>1162.0</ele><time>2026-04-24T11:26:44.395Z</time></trkpt><trkpt lat="30.9453717" lon="-7.00726"><ele>1162.0</ele><time>2026-04-24T11:26:45.395Z</time></trkpt><trkpt lat="30.94544" lon="-7.0074683"><ele>1162.0</ele><time>2026-04-24T11:26:46.395Z</time></trkpt><trkpt lat="30.9455117" lon="-7.0076767"><ele>1162.0</ele><time>2026-04-24T11:26:47.395Z</time></trkpt><trkpt lat="30.94559" lon="-7.0078883"><ele>1162.0</ele><time>2026-04-24T11:26:48.395Z</time></trkpt><trkpt lat="30.9456633" lon="-7.0080967"><ele>1162.0</ele><time>2026-04-24T11:26:49.395Z</time></trkpt><trkpt lat="30.9457417" lon="-7.0083117"><ele>1162.0</ele><time>2026-04-24T11:26:50.395Z</time></trkpt><trkpt lat="30.945815" lon="-7.0085233"><ele>1162.6666666666665</ele><time>2026-04-24T11:26:51.395Z</time></trkpt><trkpt lat="30.9458883" lon="-7.0087367"><ele>1163.3333333333333</ele><time>2026-04-24T11:26:52.395Z</time></trkpt><trkpt lat="30.9459567" lon="-7.0089483"><ele>1164.0</ele><time>2026-04-24T11:26:53.396Z</time></trkpt><trkpt lat="30.9460267" lon="-7.0091583"><ele>1164.0</ele><time>2026-04-24T11:26:54.395Z</time></trkpt><trkpt lat="30.9461017" lon="-7.0093733"><ele>1164.0</ele><time>2026-04-24T11:26:55.396Z</time></trkpt><trkpt lat="30.9461783" lon="-7.0095833"><ele>1164.0</ele><time>2026-04-24T11:26:56.395Z</time></trkpt><trkpt lat="30.9462517" lon="-7.00979"><ele>1164.6666666666667</ele><time>2026-04-24T11:26:57.395Z</time></trkpt><trkpt lat="30.9463217" lon="-7.009995"><ele>1165.3333333333335</ele><time>2026-04-24T11:26:58.395Z</time></trkpt><trkpt lat="30.9463933" lon="-7.0102017"><ele>1166.0</ele><time>2026-04-24T11:26:59.395Z</time></trkpt><trkpt lat="30.94646" lon="-7.0104033"><ele>1166.0</ele><time>2026-04-24T11:27:00.395Z</time></trkpt><trkpt lat="30.94652" lon="-7.01061"><ele>1166.0</ele><time>2026-04-24T11:27:01.396Z</time></trkpt><trkpt lat="30.9465683" lon="-7.0108167"><ele>1166.0</ele><time>2026-04-24T11:27:02.395Z</time></trkpt><trkpt lat="30.9466033" lon="-7.01103"><ele>1166.3333333333335</ele><time>2026-04-24T11:27:03.395Z</time></trkpt><trkpt lat="30.9466267" lon="-7.0112517"><ele>1166.6666666666667</ele><time>2026-04-24T11:27:04.395Z</time></trkpt><trkpt lat="30.9466433" lon="-7.01148"><ele>1167.0</ele><time>2026-04-24T11:27:05.395Z</time></trkpt><trkpt lat="30.946655" lon="-7.011705"><ele>1168.3333333333333</ele><time>2026-04-24T11:27:06.395Z</time></trkpt><trkpt lat="30.94667" lon="-7.0119333"><ele>1169.6666666666665</ele><time>2026-04-24T11:27:07.395Z</time></trkpt><trkpt lat="30.9466867" lon="-7.0121667"><ele>1171.0</ele><time>2026-04-24T11:27:08.395Z</time></trkpt><trkpt lat="30.9467033" lon="-7.0123967"><ele>1171.3333333333333</ele><time>2026-04-24T11:27:09.395Z</time></trkpt><trkpt lat="30.9467183" lon="-7.0126283"><ele>1171.6666666666667</ele><time>2026-04-24T11:27:10.395Z</time></trkpt><trkpt lat="30.9467367" lon="-7.0128583"><ele>1172.0</ele><time>2026-04-24T11:27:11.395Z</time></trkpt><trkpt lat="30.9467533" lon="-7.01309"><ele>1173.3333333333335</ele><time>2026-04-24T11:27:12.395Z</time></trkpt><trkpt lat="30.9467717" lon="-7.0133233"><ele>1174.6666666666667</ele><time>2026-04-24T11:27:13.395Z</time></trkpt><trkpt lat="30.9467867" lon="-7.013555"><ele>1176.0</ele><time>2026-04-24T11:27:14.395Z</time></trkpt><trkpt lat="30.946795" lon="-7.013785"><ele>1176.0</ele><time>2026-04-24T11:27:15.395Z</time></trkpt><trkpt lat="30.9468117" lon="-7.0140167"><ele>1176.0</ele><time>2026-04-24T11:27:16.395Z</time></trkpt><trkpt lat="30.9468283" lon="-7.0142483"><ele>1176.0</ele><time>2026-04-24T11:27:17.396Z</time></trkpt><trkpt lat="30.946845" lon="-7.0144783"><ele>1177.3333333333333</ele><time>2026-04-24T11:27:18.395Z</time></trkpt><trkpt lat="30.9468583" lon="-7.0147083"><ele>1178.6666666666665</ele><time>2026-04-24T11:27:19.395Z</time></trkpt><trkpt lat="30.9468717" lon="-7.01494"><ele>1180.0</ele><time>2026-04-24T11:27:20.396Z</time></trkpt><trkpt lat="30.946885" lon="-7.015175"><ele>1180.3333333333333</ele><time>2026-04-24T11:27:21.395Z</time></trkpt><trkpt lat="30.9468983" lon="-7.015405"><ele>1180.6666666666667</ele><time>2026-04-24T11:27:22.395Z</time></trkpt><trkpt lat="30.9469167" lon="-7.01564"><ele>1181.0</ele><time>2026-04-24T11:27:23.395Z</time></trkpt><trkpt lat="30.9469333" lon="-7.015875"><ele>1181.0</ele><time>2026-04-24T11:27:24.395Z</time></trkpt><trkpt lat="30.9469483" lon="-7.0161117"><ele>1181.0</ele><time>2026-04-24T11:27:25.395Z</time></trkpt><trkpt lat="30.9469633" lon="-7.0163517"><ele>1181.0</ele><time>2026-04-24T11:27:26.395Z</time></trkpt><trkpt lat="30.9469767" lon="-7.0165817"><ele>1182.0</ele><time>2026-04-24T11:27:27.396Z</time></trkpt><trkpt lat="30.9469933" lon="-7.0168"><ele>1183.0</ele><time>2026-04-24T11:27:28.395Z</time></trkpt><trkpt lat="30.94701" lon="-7.01701"><ele>1184.0</ele><time>2026-04-24T11:27:29.395Z</time></trkpt><trkpt lat="30.947025" lon="-7.0172117"><ele>1184.0</ele><time>2026-04-24T11:27:30.395Z</time></trkpt><trkpt lat="30.947035" lon="-7.01741"><ele>1184.0</ele><time>2026-04-24T11:27:31.395Z</time></trkpt><trkpt lat="30.9470467" lon="-7.01761"><ele>1184.0</ele><time>2026-04-24T11:27:32.395Z</time></trkpt><trkpt lat="30.9470617" lon="-7.0178083"><ele>1184.3333333333335</ele><time>2026-04-24T11:27:33.395Z</time></trkpt><trkpt lat="30.947075" lon="-7.0180133"><ele>1184.6666666666667</ele><time>2026-04-24T11:27:34.395Z</time></trkpt><trkpt lat="30.9470917" lon="-7.01822"><ele>1185.0</ele><time>2026-04-24T11:27:35.395Z</time></trkpt><trkpt lat="30.947105" lon="-7.01843"><ele>1185.3333333333333</ele><time>2026-04-24T11:27:36.395Z</time></trkpt><trkpt lat="30.947115" lon="-7.0186417"><ele>1185.6666666666665</ele><time>2026-04-24T11:27:37.395Z</time></trkpt><trkpt lat="30.9471267" lon="-7.0188567"><ele>1186.0</ele><time>2026-04-24T11:27:38.396Z</time></trkpt><trkpt lat="30.947135" lon="-7.0190667"><ele>1186.3333333333333</ele><time>2026-04-24T11:27:39.395Z</time></trkpt><trkpt lat="30.9471483" lon="-7.0192817"><ele>1186.6666666666667</ele><time>2026-04-24T11:27:40.395Z</time></trkpt><trkpt lat="30.9471633" lon="-7.0194933"><ele>1187.0</ele><time>2026-04-24T11:27:41.395Z</time></trkpt><trkpt lat="30.947175" lon="-7.0197"><ele>1187.0</ele><time>2026-04-24T11:27:42.395Z</time></trkpt><trkpt lat="30.9471917" lon="-7.0199083"><ele>1187.0</ele><time>2026-04-24T11:27:43.395Z</time></trkpt><trkpt lat="30.947205" lon="-7.0201217"><ele>1187.0</ele><time>2026-04-24T11:27:44.395Z</time></trkpt><trkpt lat="30.94722" lon="-7.0203367"><ele>1187.6666666666667</ele><time>2026-04-24T11:27:45.395Z</time></trkpt><trkpt lat="30.9472333" lon="-7.020555"><ele>1188.3333333333333</ele><time>2026-04-24T11:27:46.395Z</time></trkpt><trkpt lat="30.94724" lon="-7.0207683"><ele>1189.0</ele><time>2026-04-24T11:27:47.395Z</time></trkpt><trkpt lat="30.947255" lon="-7.0209867"><ele>1189.0</ele><time>2026-04-24T11:27:48.395Z</time></trkpt><trkpt lat="30.9472667" lon="-7.0211917"><ele>1189.0</ele><time>2026-04-24T11:27:49.395Z</time></trkpt><trkpt lat="30.9472833" lon="-7.02139"><ele>1189.0</ele><time>2026-04-24T11:27:50.395Z</time></trkpt><trkpt lat="30.9472967" lon="-7.02158"><ele>1189.3333333333333</ele><time>2026-04-24T11:27:51.395Z</time></trkpt><trkpt lat="30.9473133" lon="-7.0217733"><ele>1189.6666666666667</ele><time>2026-04-24T11:27:52.395Z</time></trkpt><trkpt lat="30.94733" lon="-7.02198"><ele>1190.0</ele><time>2026-04-24T11:27:53.395Z</time></trkpt><trkpt lat="30.9473417" lon="-7.02219"><ele>1190.0</ele><time>2026-04-24T11:27:54.395Z</time></trkpt><trkpt lat="30.9473567" lon="-7.0224"><ele>1190.0</ele><time>2026-04-24T11:27:55.395Z</time></trkpt><trkpt lat="30.9473683" lon="-7.022605"><ele>1190.0</ele><time>2026-04-24T11:27:56.395Z</time></trkpt><trkpt lat="30.9473867" lon="-7.0228117"><ele>1190.0</ele><time>2026-04-24T11:27:57.395Z</time></trkpt><trkpt lat="30.9473983" lon="-7.0230167"><ele>1190.0</ele><time>2026-04-24T11:27:58.395Z</time></trkpt><trkpt lat="30.94741" lon="-7.0232283"><ele>1190.0</ele><time>2026-04-24T11:27:59.395Z</time></trkpt><trkpt lat="30.9474267" lon="-7.0234383"><ele>1190.0</ele><time>2026-04-24T11:28:00.395Z</time></trkpt><trkpt lat="30.9474367" lon="-7.0236417"><ele>1190.0</ele><time>2026-04-24T11:28:01.395Z</time></trkpt><trkpt lat="30.94745" lon="-7.0238467"><ele>1190.0</ele><time>2026-04-24T11:28:02.395Z</time></trkpt><trkpt lat="30.9474667" lon="-7.024055"><ele>1190.0</ele><time>2026-04-24T11:28:03.395Z</time></trkpt><trkpt lat="30.94748" lon="-7.0242583"><ele>1190.0</ele><time>2026-04-24T11:28:04.395Z</time></trkpt><trkpt lat="30.9474917" lon="-7.0244633"><ele>1190.0</ele><time>2026-04-24T11:28:05.395Z</time></trkpt><trkpt lat="30.9475067" lon="-7.0246767"><ele>1190.0</ele><time>2026-04-24T11:28:06.395Z</time></trkpt><trkpt lat="30.9475217" lon="-7.0248883"><ele>1190.0</ele><time>2026-04-24T11:28:07.395Z</time></trkpt><trkpt lat="30.9475383" lon="-7.025095"><ele>1190.0</ele><time>2026-04-24T11:28:08.395Z</time></trkpt><trkpt lat="30.94755" lon="-7.025305"><ele>1190.3333333333335</ele><time>2026-04-24T11:28:09.395Z</time></trkpt><trkpt lat="30.9475617" lon="-7.0255117"><ele>1190.6666666666667</ele><time>2026-04-24T11:28:10.395Z</time></trkpt><trkpt lat="30.94757" lon="-7.025715"><ele>1191.0</ele><time>2026-04-24T11:28:11.395Z</time></trkpt><trkpt lat="30.9475833" lon="-7.025915"><ele>1191.0</ele><time>2026-04-24T11:28:12.395Z</time></trkpt><trkpt lat="30.947595" lon="-7.02611"><ele>1191.0</ele><time>2026-04-24T11:28:13.395Z</time></trkpt><trkpt lat="30.94761" lon="-7.02631"><ele>1191.0</ele><time>2026-04-24T11:28:14.395Z</time></trkpt><trkpt lat="30.9476233" lon="-7.0265083"><ele>1192.6666666666667</ele><time>2026-04-24T11:28:15.395Z</time></trkpt><trkpt lat="30.947635" lon="-7.026705"><ele>1194.3333333333335</ele><time>2026-04-24T11:28:16.395Z</time></trkpt><trkpt lat="30.94765" lon="-7.0269083"><ele>1196.0</ele><time>2026-04-24T11:28:17.395Z</time></trkpt><trkpt lat="30.94767" lon="-7.0271117"><ele>1196.0</ele><time>2026-04-24T11:28:18.396Z</time></trkpt><trkpt lat="30.9476833" lon="-7.0273183"><ele>1196.0</ele><time>2026-04-24T11:28:19.395Z</time></trkpt><trkpt lat="30.9476933" lon="-7.0275217"><ele>1196.0</ele><time>2026-04-24T11:28:20.395Z</time></trkpt><trkpt lat="30.9477033" lon="-7.02773"><ele>1197.0</ele><time>2026-04-24T11:28:21.395Z</time></trkpt><trkpt lat="30.94772" lon="-7.0279467"><ele>1198.0</ele><time>2026-04-24T11:28:22.395Z</time></trkpt><trkpt lat="30.94773" lon="-7.0281683"><ele>1199.0</ele><time>2026-04-24T11:28:23.395Z</time></trkpt><trkpt lat="30.9477433" lon="-7.02839"><ele>1199.3333333333335</ele><time>2026-04-24T11:28:24.395Z</time></trkpt><trkpt lat="30.947755" lon="-7.0286033"><ele>1199.6666666666667</ele><time>2026-04-24T11:28:25.395Z</time></trkpt><trkpt lat="30.9477683" lon="-7.0288183"><ele>1200.0</ele><time>2026-04-24T11:28:26.396Z</time></trkpt><trkpt lat="30.9477833" lon="-7.0290367"><ele>1198.6666666666667</ele><time>2026-04-24T11:28:27.395Z</time></trkpt><trkpt lat="30.9478017" lon="-7.0292567"><ele>1197.3333333333335</ele><time>2026-04-24T11:28:28.395Z</time></trkpt><trkpt lat="30.9478167" lon="-7.02948"><ele>1196.0</ele><time>2026-04-24T11:28:29.395Z</time></trkpt><trkpt lat="30.9478317" lon="-7.0297033"><ele>1196.0</ele><time>2026-04-24T11:28:30.395Z</time></trkpt><trkpt lat="30.947845" lon="-7.0299317"><ele>1196.0</ele><time>2026-04-24T11:28:31.395Z</time></trkpt><trkpt lat="30.9478583" lon="-7.0301567"><ele>1196.0</ele><time>2026-04-24T11:28:32.395Z</time></trkpt><trkpt lat="30.9478733" lon="-7.0303833"><ele>1196.0</ele><time>2026-04-24T11:28:33.395Z</time></trkpt><trkpt lat="30.9478883" lon="-7.0306117"><ele>1196.0</ele><time>2026-04-24T11:28:34.395Z</time></trkpt><trkpt lat="30.9479017" lon="-7.0308383"><ele>1196.0</ele><time>2026-04-24T11:28:35.395Z</time></trkpt><trkpt lat="30.9479217" lon="-7.0310667"><ele>1196.6666666666667</ele><time>2026-04-24T11:28:36.395Z</time></trkpt><trkpt lat="30.9479367" lon="-7.03129"><ele>1197.3333333333333</ele><time>2026-04-24T11:28:37.395Z</time></trkpt><trkpt lat="30.947955" lon="-7.0315117"><ele>1198.0</ele><time>2026-04-24T11:28:38.395Z</time></trkpt><trkpt lat="30.9479683" lon="-7.0317233"><ele>1198.6666666666665</ele><time>2026-04-24T11:28:39.395Z</time></trkpt><trkpt lat="30.947985" lon="-7.0319217"><ele>1199.3333333333333</ele><time>2026-04-24T11:28:40.395Z</time></trkpt><trkpt lat="30.9479933" lon="-7.0321217"><ele>1200.0</ele><time>2026-04-24T11:28:41.395Z</time></trkpt><trkpt lat="30.9480017" lon="-7.03232"><ele>1200.3333333333333</ele><time>2026-04-24T11:28:42.396Z</time></trkpt><trkpt lat="30.948015" lon="-7.0325283"><ele>1200.6666666666665</ele><time>2026-04-24T11:28:43.396Z</time></trkpt><trkpt lat="30.9480317" lon="-7.032725"><ele>1201.0</ele><time>2026-04-24T11:28:44.395Z</time></trkpt><trkpt lat="30.9480433" lon="-7.0329167"><ele>1201.0</ele><time>2026-04-24T11:28:45.395Z</time></trkpt><trkpt lat="30.9480533" lon="-7.0331083"><ele>1201.0</ele><time>2026-04-24T11:28:46.395Z</time></trkpt><trkpt lat="30.948065" lon="-7.0333"><ele>1201.0</ele><time>2026-04-24T11:28:47.395Z</time></trkpt><trkpt lat="30.9480783" lon="-7.0334867"><ele>1202.0</ele><time>2026-04-24T11:28:48.395Z</time></trkpt><trkpt lat="30.94809" lon="-7.0336783"><ele>1203.0</ele><time>2026-04-24T11:28:49.395Z</time></trkpt><trkpt lat="30.948105" lon="-7.0338717"><ele>1204.0</ele><time>2026-04-24T11:28:50.395Z</time></trkpt><trkpt lat="30.94813" lon="-7.0340683"><ele>1204.6666666666665</ele><time>2026-04-24T11:28:51.395Z</time></trkpt><trkpt lat="30.948165" lon="-7.0342583"><ele>1205.3333333333333</ele><time>2026-04-24T11:28:52.395Z</time></trkpt><trkpt lat="30.9482067" lon="-7.0344433"><ele>1206.0</ele><time>2026-04-24T11:28:53.395Z</time></trkpt><trkpt lat="30.9482533" lon="-7.0346333"><ele>1206.0</ele><time>2026-04-24T11:28:54.395Z</time></trkpt><trkpt lat="30.948305" lon="-7.03482"><ele>1206.0</ele><time>2026-04-24T11:28:55.395Z</time></trkpt><trkpt lat="30.9483567" lon="-7.0350017"><ele>1206.0</ele><time>2026-04-24T11:28:56.395Z</time></trkpt><trkpt lat="30.9484233" lon="-7.0351833"><ele>1207.0</ele><time>2026-04-24T11:28:57.395Z</time></trkpt><trkpt lat="30.9484967" lon="-7.0353683"><ele>1208.0</ele><time>2026-04-24T11:28:58.395Z</time></trkpt><trkpt lat="30.9485783" lon="-7.0355517"><ele>1209.0</ele><time>2026-04-24T11:28:59.396Z</time></trkpt><trkpt lat="30.9486583" lon="-7.0357267"><ele>1208.6666666666667</ele><time>2026-04-24T11:29:00.395Z</time></trkpt><trkpt lat="30.9487383" lon="-7.035895"><ele>1208.3333333333335</ele><time>2026-04-24T11:29:01.396Z</time></trkpt><trkpt lat="30.948805" lon="-7.0360583"><ele>1208.0</ele><time>2026-04-24T11:29:02.395Z</time></trkpt><trkpt lat="30.94888" lon="-7.0362167"><ele>1208.0</ele><time>2026-04-24T11:29:03.395Z</time></trkpt><trkpt lat="30.9489567" lon="-7.0363717"><ele>1208.0</ele><time>2026-04-24T11:29:04.395Z</time></trkpt><trkpt lat="30.9490383" lon="-7.03653"><ele>1208.0</ele><time>2026-04-24T11:29:05.395Z</time></trkpt><trkpt lat="30.9491283" lon="-7.0367"><ele>1208.6666666666667</ele><time>2026-04-24T11:29:06.395Z</time></trkpt><trkpt lat="30.94922" lon="-7.03687"><ele>1209.3333333333333</ele><time>2026-04-24T11:29:07.395Z</time></trkpt><trkpt lat="30.94931" lon="-7.0370383"><ele>1210.0</ele><time>2026-04-24T11:29:08.395Z</time></trkpt><trkpt lat="30.9494033" lon="-7.0372117"><ele>1210.0</ele><time>2026-04-24T11:29:09.395Z</time></trkpt><trkpt lat="30.9495" lon="-7.0373833"><ele>1210.0</ele><time>2026-04-24T11:29:10.395Z</time></trkpt><trkpt lat="30.9496033" lon="-7.0375533"><ele>1210.0</ele><time>2026-04-24T11:29:11.395Z</time></trkpt><trkpt lat="30.9497117" lon="-7.0377217"><ele>1209.3333333333333</ele><time>2026-04-24T11:29:12.395Z</time></trkpt><trkpt lat="30.949825" lon="-7.0378833"><ele>1208.6666666666667</ele><time>2026-04-24T11:29:13.395Z</time></trkpt><trkpt lat="30.9499433" lon="-7.03804"><ele>1208.0</ele><time>2026-04-24T11:29:14.395Z</time></trkpt><trkpt lat="30.9500633" lon="-7.0381867"><ele>1207.0</ele><time>2026-04-24T11:29:15.395Z</time></trkpt><trkpt lat="30.9501867" lon="-7.038335"><ele>1206.0</ele><time>2026-04-24T11:29:16.395Z</time></trkpt><trkpt lat="30.9503133" lon="-7.038485"><ele>1205.0</ele><time>2026-04-24T11:29:17.395Z</time></trkpt><trkpt lat="30.9504417" lon="-7.0386367"><ele>1205.0</ele><time>2026-04-24T11:29:18.395Z</time></trkpt><trkpt lat="30.9505683" lon="-7.0387817"><ele>1205.0</ele><time>2026-04-24T11:29:19.395Z</time></trkpt><trkpt lat="30.9506983" lon="-7.0389283"><ele>1205.0</ele><time>2026-04-24T11:29:20.395Z</time></trkpt><trkpt lat="30.95083" lon="-7.03908"><ele>1203.6666666666667</ele><time>2026-04-24T11:29:21.395Z</time></trkpt><trkpt lat="30.95096" lon="-7.03923"><ele>1202.3333333333333</ele><time>2026-04-24T11:29:22.395Z</time></trkpt><trkpt lat="30.9510967" lon="-7.0393783"><ele>1201.0</ele><time>2026-04-24T11:29:23.395Z</time></trkpt><trkpt lat="30.9512217" lon="-7.03952"><ele>1201.0</ele><time>2026-04-24T11:29:24.395Z</time></trkpt><trkpt lat="30.951345" lon="-7.0396633"><ele>1201.0</ele><time>2026-04-24T11:29:25.395Z</time></trkpt><trkpt lat="30.9514733" lon="-7.0398083"><ele>1201.0</ele><time>2026-04-24T11:29:26.395Z</time></trkpt><trkpt lat="30.9516" lon="-7.0399533"><ele>1199.6666666666665</ele><time>2026-04-24T11:29:27.395Z</time></trkpt><trkpt lat="30.9517283" lon="-7.0401033"><ele>1198.3333333333333</ele><time>2026-04-24T11:29:28.395Z</time></trkpt><trkpt lat="30.9518583" lon="-7.04025"><ele>1197.0</ele><time>2026-04-24T11:29:29.395Z</time></trkpt><trkpt lat="30.9519867" lon="-7.040395"><ele>1197.0</ele><time>2026-04-24T11:29:30.395Z</time></trkpt><trkpt lat="30.9521183" lon="-7.0405433"><ele>1197.0</ele><time>2026-04-24T11:29:31.395Z</time></trkpt><trkpt lat="30.9522483" lon="-7.0406917"><ele>1197.0</ele><time>2026-04-24T11:29:32.395Z</time></trkpt><trkpt lat="30.9523833" lon="-7.0408483"><ele>1197.0</ele><time>2026-04-24T11:29:33.395Z</time></trkpt><trkpt lat="30.952515" lon="-7.0409983"><ele>1197.0</ele><time>2026-04-24T11:29:34.395Z</time></trkpt><trkpt lat="30.9526433" lon="-7.0411417"><ele>1197.0</ele><time>2026-04-24T11:29:35.395Z</time></trkpt><trkpt lat="30.9527717" lon="-7.0412833"><ele>1198.3333333333333</ele><time>2026-04-24T11:29:36.395Z</time></trkpt><trkpt lat="30.9529" lon="-7.0414217"><ele>1199.6666666666665</ele><time>2026-04-24T11:29:37.395Z</time></trkpt><trkpt lat="30.953025" lon="-7.0415617"><ele>1201.0</ele><time>2026-04-24T11:29:38.395Z</time></trkpt><trkpt lat="30.9531483" lon="-7.0417067"><ele>1202.0</ele><time>2026-04-24T11:29:39.395Z</time></trkpt><trkpt lat="30.9532717" lon="-7.0418467"><ele>1203.0</ele><time>2026-04-24T11:29:40.395Z</time></trkpt><trkpt lat="30.95339" lon="-7.0419867"><ele>1204.0</ele><time>2026-04-24T11:29:41.395Z</time></trkpt><trkpt lat="30.9535117" lon="-7.0421283"><ele>1206.3333333333333</ele><time>2026-04-24T11:29:42.396Z</time></trkpt><trkpt lat="30.9536317" lon="-7.0422633"><ele>1208.6666666666667</ele><time>2026-04-24T11:29:43.395Z</time></trkpt><trkpt lat="30.953755" lon="-7.0424033"><ele>1211.0</ele><time>2026-04-24T11:29:44.395Z</time></trkpt><trkpt lat="30.95388" lon="-7.042545"><ele>1211.0</ele><time>2026-04-24T11:29:45.395Z</time></trkpt><trkpt lat="30.9540067" lon="-7.0426817"><ele>1211.0</ele><time>2026-04-24T11:29:46.395Z</time></trkpt><trkpt lat="30.95413" lon="-7.042805"><ele>1211.0</ele><time>2026-04-24T11:29:47.395Z</time></trkpt><trkpt lat="30.9542533" lon="-7.0429233"><ele>1213.3333333333335</ele><time>2026-04-24T11:29:48.395Z</time></trkpt><trkpt lat="30.9543833" lon="-7.04304"><ele>1215.6666666666667</ele><time>2026-04-24T11:29:49.395Z</time></trkpt><trkpt lat="30.95452" lon="-7.0431533"><ele>1218.0</ele><time>2026-04-24T11:29:50.395Z</time></trkpt><trkpt lat="30.9546667" lon="-7.043265"><ele>1214.6666666666667</ele><time>2026-04-24T11:29:51.395Z</time></trkpt><trkpt lat="30.9548183" lon="-7.043365"><ele>1211.3333333333335</ele><time>2026-04-24T11:29:52.396Z</time></trkpt><trkpt lat="30.9549617" lon="-7.0434617"><ele>1208.0</ele><time>2026-04-24T11:29:53.395Z</time></trkpt><trkpt lat="30.955105" lon="-7.043555"><ele>1208.0</ele><time>2026-04-24T11:29:54.395Z</time></trkpt><trkpt lat="30.9552567" lon="-7.043655"><ele>1208.0</ele><time>2026-04-24T11:29:55.395Z</time></trkpt><trkpt lat="30.9554067" lon="-7.0437433"><ele>1208.0</ele><time>2026-04-24T11:29:56.395Z</time></trkpt><trkpt lat="30.9555533" lon="-7.043835"><ele>1208.0</ele><time>2026-04-24T11:29:57.395Z</time></trkpt><trkpt lat="30.9557" lon="-7.0439267"><ele>1208.0</ele><time>2026-04-24T11:29:58.395Z</time></trkpt><trkpt lat="30.9558467" lon="-7.0440233"><ele>1208.0</ele><time>2026-04-24T11:29:59.395Z</time></trkpt><trkpt lat="30.9559917" lon="-7.0441167"><ele>1207.3333333333335</ele><time>2026-04-24T11:30:00.396Z</time></trkpt><trkpt lat="30.9561417" lon="-7.04421"><ele>1206.6666666666667</ele><time>2026-04-24T11:30:01.395Z</time></trkpt><trkpt lat="30.9562833" lon="-7.04431"><ele>1206.0</ele><time>2026-04-24T11:30:02.395Z</time></trkpt><trkpt lat="30.9564217" lon="-7.044405"><ele>1206.0</ele><time>2026-04-24T11:30:03.395Z</time></trkpt><trkpt lat="30.95656" lon="-7.044495"><ele>1206.0</ele><time>2026-04-24T11:30:04.395Z</time></trkpt><trkpt lat="30.956705" lon="-7.04459"><ele>1206.0</ele><time>2026-04-24T11:30:05.395Z</time></trkpt><trkpt lat="30.9568483" lon="-7.044685"><ele>1207.3333333333333</ele><time>2026-04-24T11:30:06.395Z</time></trkpt><trkpt lat="30.9569917" lon="-7.044775"><ele>1208.6666666666665</ele><time>2026-04-24T11:30:07.395Z</time></trkpt><trkpt lat="30.9571417" lon="-7.0448667"><ele>1210.0</ele><time>2026-04-24T11:30:08.395Z</time></trkpt><trkpt lat="30.9573" lon="-7.0449483"><ele>1209.0</ele><time>2026-04-24T11:30:09.395Z</time></trkpt><trkpt lat="30.957465" lon="-7.0450217"><ele>1208.0</ele><time>2026-04-24T11:30:10.395Z</time></trkpt><trkpt lat="30.957625" lon="-7.0450833"><ele>1207.0</ele><time>2026-04-24T11:30:11.395Z</time></trkpt><trkpt lat="30.9577917" lon="-7.045125"><ele>1207.0</ele><time>2026-04-24T11:30:12.395Z</time></trkpt><trkpt lat="30.957965" lon="-7.0451533"><ele>1207.0</ele><time>2026-04-24T11:30:13.395Z</time></trkpt><trkpt lat="30.958145" lon="-7.0451767"><ele>1207.0</ele><time>2026-04-24T11:30:14.395Z</time></trkpt><trkpt lat="30.958325" lon="-7.0452"><ele>1207.3333333333333</ele><time>2026-04-24T11:30:15.395Z</time></trkpt><trkpt lat="30.9585083" lon="-7.045215"><ele>1207.6666666666667</ele><time>2026-04-24T11:30:16.395Z</time></trkpt><trkpt lat="30.9586867" lon="-7.0452317"><ele>1208.0</ele><time>2026-04-24T11:30:17.394Z</time></trkpt><trkpt lat="30.9588617" lon="-7.0452517"><ele>1208.0</ele><time>2026-04-24T11:30:18.394Z</time></trkpt><trkpt lat="30.9590383" lon="-7.045275"><ele>1208.0</ele><time>2026-04-24T11:30:19.394Z</time></trkpt><trkpt lat="30.9592067" lon="-7.0453017"><ele>1208.0</ele><time>2026-04-24T11:30:20.394Z</time></trkpt><trkpt lat="30.9593767" lon="-7.04532"><ele>1208.3333333333335</ele><time>2026-04-24T11:30:21.394Z</time></trkpt><trkpt lat="30.9595417" lon="-7.045335"><ele>1208.6666666666667</ele><time>2026-04-24T11:30:22.394Z</time></trkpt><trkpt lat="30.959695" lon="-7.04535"><ele>1209.0</ele><time>2026-04-24T11:30:23.394Z</time></trkpt><trkpt lat="30.9598517" lon="-7.045365"><ele>1209.0</ele><time>2026-04-24T11:30:24.394Z</time></trkpt><trkpt lat="30.96001" lon="-7.0453917"><ele>1209.0</ele><time>2026-04-24T11:30:25.394Z</time></trkpt><trkpt lat="30.96017" lon="-7.0454317"><ele>1209.0</ele><time>2026-04-24T11:30:26.394Z</time></trkpt><trkpt lat="30.9603283" lon="-7.04548"><ele>1210.6666666666667</ele><time>2026-04-24T11:30:27.394Z</time></trkpt><trkpt lat="30.9604883" lon="-7.045555"><ele>1212.3333333333335</ele><time>2026-04-24T11:30:28.394Z</time></trkpt><trkpt lat="30.9606433" lon="-7.04565"><ele>1214.0</ele><time>2026-04-24T11:30:29.394Z</time></trkpt><trkpt lat="30.9607867" lon="-7.0457633"><ele>1213.6666666666667</ele><time>2026-04-24T11:30:30.394Z</time></trkpt><trkpt lat="30.9609133" lon="-7.0458883"><ele>1213.3333333333333</ele><time>2026-04-24T11:30:31.394Z</time></trkpt><trkpt lat="30.9610367" lon="-7.0460233"><ele>1213.0</ele><time>2026-04-24T11:30:32.394Z</time></trkpt><trkpt lat="30.9611667" lon="-7.0461617"><ele>1213.0</ele><time>2026-04-24T11:30:33.394Z</time></trkpt><trkpt lat="30.9612983" lon="-7.0463"><ele>1213.0</ele><time>2026-04-24T11:30:34.394Z</time></trkpt><trkpt lat="30.9614283" lon="-7.046445"><ele>1213.0</ele><time>2026-04-24T11:30:35.394Z</time></trkpt><trkpt lat="30.9615617" lon="-7.0465917"><ele>1213.6666666666665</ele><time>2026-04-24T11:30:36.394Z</time></trkpt><trkpt lat="30.9616917" lon="-7.0467383"><ele>1214.3333333333333</ele><time>2026-04-24T11:30:37.394Z</time></trkpt><trkpt lat="30.96182" lon="-7.0468833"><ele>1215.0</ele><time>2026-04-24T11:30:38.394Z</time></trkpt><trkpt lat="30.9619467" lon="-7.0470267"><ele>1215.6666666666667</ele><time>2026-04-24T11:30:39.394Z</time></trkpt><trkpt lat="30.962075" lon="-7.0471733"><ele>1216.3333333333335</ele><time>2026-04-24T11:30:40.394Z</time></trkpt><trkpt lat="30.9622" lon="-7.0473117"><ele>1217.0</ele><time>2026-04-24T11:30:41.394Z</time></trkpt><trkpt lat="30.9623217" lon="-7.0474383"><ele>1217.3333333333335</ele><time>2026-04-24T11:30:42.394Z</time></trkpt><trkpt lat="30.9624417" lon="-7.0475683"><ele>1217.6666666666667</ele><time>2026-04-24T11:30:43.394Z</time></trkpt><trkpt lat="30.96255" lon="-7.0477017"><ele>1218.0</ele><time>2026-04-24T11:30:44.394Z</time></trkpt><trkpt lat="30.9626617" lon="-7.047835"><ele>1218.6666666666667</ele><time>2026-04-24T11:30:45.394Z</time></trkpt><trkpt lat="30.9627683" lon="-7.04797"><ele>1219.3333333333335</ele><time>2026-04-24T11:30:46.394Z</time></trkpt><trkpt lat="30.9628767" lon="-7.04811"><ele>1220.0</ele><time>2026-04-24T11:30:47.394Z</time></trkpt><trkpt lat="30.9629883" lon="-7.04825"><ele>1218.6666666666667</ele><time>2026-04-24T11:30:48.394Z</time></trkpt><trkpt lat="30.9631" lon="-7.04839"><ele>1217.3333333333333</ele><time>2026-04-24T11:30:49.394Z</time></trkpt><trkpt lat="30.9632083" lon="-7.04853"><ele>1216.0</ele><time>2026-04-24T11:30:50.394Z</time></trkpt><trkpt lat="30.9633167" lon="-7.0486717"><ele>1216.0</ele><time>2026-04-24T11:30:51.394Z</time></trkpt><trkpt lat="30.9634267" lon="-7.04881"><ele>1216.0</ele><time>2026-04-24T11:30:52.394Z</time></trkpt><trkpt lat="30.9635383" lon="-7.0489517"><ele>1216.0</ele><time>2026-04-24T11:30:53.394Z</time></trkpt><trkpt lat="30.9636417" lon="-7.04909"><ele>1215.6666666666665</ele><time>2026-04-24T11:30:54.394Z</time></trkpt><trkpt lat="30.9637417" lon="-7.0492233"><ele>1215.3333333333333</ele><time>2026-04-24T11:30:55.394Z</time></trkpt><trkpt lat="30.9638483" lon="-7.049355"><ele>1215.0</ele><time>2026-04-24T11:30:56.394Z</time></trkpt><trkpt lat="30.9639567" lon="-7.0494867"><ele>1215.0</ele><time>2026-04-24T11:30:57.394Z</time></trkpt><trkpt lat="30.9640617" lon="-7.049625"><ele>1215.0</ele><time>2026-04-24T11:30:58.394Z</time></trkpt><trkpt lat="30.9641733" lon="-7.0497667"><ele>1215.0</ele><time>2026-04-24T11:30:59.394Z</time></trkpt><trkpt lat="30.964285" lon="-7.0499117"><ele>1213.3333333333333</ele><time>2026-04-24T11:31:00.394Z</time></trkpt><trkpt lat="30.9644017" lon="-7.0500583"><ele>1211.6666666666665</ele><time>2026-04-24T11:31:01.394Z</time></trkpt><trkpt lat="30.9645167" lon="-7.0502083"><ele>1210.0</ele><time>2026-04-24T11:31:02.395Z</time></trkpt><trkpt lat="30.9646383" lon="-7.0503617"><ele>1210.0</ele><time>2026-04-24T11:31:03.394Z</time></trkpt><trkpt lat="30.9647583" lon="-7.0505167"><ele>1210.0</ele><time>2026-04-24T11:31:04.394Z</time></trkpt><trkpt lat="30.9648767" lon="-7.0506817"><ele>1210.0</ele><time>2026-04-24T11:31:05.394Z</time></trkpt><trkpt lat="30.9650017" lon="-7.0508433"><ele>1208.0</ele><time>2026-04-24T11:31:06.395Z</time></trkpt><trkpt lat="30.96512" lon="-7.0509967"><ele>1206.0</ele><time>2026-04-24T11:31:07.394Z</time></trkpt><trkpt lat="30.9652367" lon="-7.0511483"><ele>1204.0</ele><time>2026-04-24T11:31:08.394Z</time></trkpt><trkpt lat="30.965355" lon="-7.0513"><ele>1204.0</ele><time>2026-04-24T11:31:09.394Z</time></trkpt><trkpt lat="30.9654717" lon="-7.05145"><ele>1204.0</ele><time>2026-04-24T11:31:10.394Z</time></trkpt><trkpt lat="30.9655917" lon="-7.0516"><ele>1204.0</ele><time>2026-04-24T11:31:11.394Z</time></trkpt><trkpt lat="30.9657117" lon="-7.0517483"><ele>1204.3333333333333</ele><time>2026-04-24T11:31:12.394Z</time></trkpt><trkpt lat="30.96583" lon="-7.051895"><ele>1204.6666666666667</ele><time>2026-04-24T11:31:13.394Z</time></trkpt><trkpt lat="30.9659467" lon="-7.0520467"><ele>1205.0</ele><time>2026-04-24T11:31:14.394Z</time></trkpt><trkpt lat="30.9660683" lon="-7.052195"><ele>1205.0</ele><time>2026-04-24T11:31:15.394Z</time></trkpt><trkpt lat="30.9661917" lon="-7.0523533"><ele>1205.0</ele><time>2026-04-24T11:31:16.394Z</time></trkpt><trkpt lat="30.96632" lon="-7.0525133"><ele>1205.0</ele><time>2026-04-24T11:31:17.395Z</time></trkpt><trkpt lat="30.9664467" lon="-7.0526733"><ele>1205.6666666666667</ele><time>2026-04-24T11:31:18.394Z</time></trkpt><trkpt lat="30.966565" lon="-7.0528333"><ele>1206.3333333333333</ele><time>2026-04-24T11:31:19.394Z</time></trkpt><trkpt lat="30.9666883" lon="-7.0529983"><ele>1207.0</ele><time>2026-04-24T11:31:20.394Z</time></trkpt><trkpt lat="30.96681" lon="-7.0531633"><ele>1207.6666666666665</ele><time>2026-04-24T11:31:21.394Z</time></trkpt><trkpt lat="30.9669383" lon="-7.0533283"><ele>1208.3333333333333</ele><time>2026-04-24T11:31:22.394Z</time></trkpt><trkpt lat="30.9670633" lon="-7.05349"><ele>1209.0</ele><time>2026-04-24T11:31:23.395Z</time></trkpt><trkpt lat="30.96719" lon="-7.0536483"><ele>1209.0</ele><time>2026-04-24T11:31:24.394Z</time></trkpt><trkpt lat="30.9673183" lon="-7.0538083"><ele>1209.0</ele><time>2026-04-24T11:31:25.394Z</time></trkpt><trkpt lat="30.9674433" lon="-7.0539717"><ele>1209.0</ele><time>2026-04-24T11:31:26.394Z</time></trkpt><trkpt lat="30.9675683" lon="-7.05414"><ele>1210.0</ele><time>2026-04-24T11:31:27.394Z</time></trkpt><trkpt lat="30.9676967" lon="-7.0543067"><ele>1211.0</ele><time>2026-04-24T11:31:28.394Z</time></trkpt><trkpt lat="30.9678267" lon="-7.0544717"><ele>1212.0</ele><time>2026-04-24T11:31:29.394Z</time></trkpt><trkpt lat="30.967955" lon="-7.0546283"><ele>1212.0</ele><time>2026-04-24T11:31:30.394Z</time></trkpt><trkpt lat="30.9680783" lon="-7.0547867"><ele>1212.0</ele><time>2026-04-24T11:31:31.394Z</time></trkpt><trkpt lat="30.9681983" lon="-7.0549467"><ele>1212.0</ele><time>2026-04-24T11:31:32.394Z</time></trkpt><trkpt lat="30.9683217" lon="-7.0551067"><ele>1213.3333333333333</ele><time>2026-04-24T11:31:33.394Z</time></trkpt><trkpt lat="30.9684483" lon="-7.0552683"><ele>1214.6666666666665</ele><time>2026-04-24T11:31:34.394Z</time></trkpt><trkpt lat="30.968575" lon="-7.05543"><ele>1216.0</ele><time>2026-04-24T11:31:35.394Z</time></trkpt><trkpt lat="30.9687" lon="-7.055595"><ele>1216.0</ele><time>2026-04-24T11:31:36.394Z</time></trkpt><trkpt lat="30.9688267" lon="-7.0557567"><ele>1216.0</ele><time>2026-04-24T11:31:37.394Z</time></trkpt><trkpt lat="30.9689517" lon="-7.0559167"><ele>1216.0</ele><time>2026-04-24T11:31:38.394Z</time></trkpt><trkpt lat="30.9690733" lon="-7.0560783"><ele>1217.6666666666665</ele><time>2026-04-24T11:31:39.394Z</time></trkpt><trkpt lat="30.969195" lon="-7.0562417"><ele>1219.3333333333333</ele><time>2026-04-24T11:31:40.394Z</time></trkpt><trkpt lat="30.969315" lon="-7.0563967"><ele>1221.0</ele><time>2026-04-24T11:31:41.394Z</time></trkpt><trkpt lat="30.969435" lon="-7.05655"><ele>1221.6666666666667</ele><time>2026-04-24T11:31:42.394Z</time></trkpt><trkpt lat="30.9695583" lon="-7.0567017"><ele>1222.3333333333335</ele><time>2026-04-24T11:31:43.394Z</time></trkpt><trkpt lat="30.9696783" lon="-7.0568517"><ele>1223.0</ele><time>2026-04-24T11:31:44.394Z</time></trkpt><trkpt lat="30.9698017" lon="-7.0570033"><ele>1223.0</ele><time>2026-04-24T11:31:45.394Z</time></trkpt><trkpt lat="30.9699233" lon="-7.0571583"><ele>1223.0</ele><time>2026-04-24T11:31:46.394Z</time></trkpt><trkpt lat="30.97004" lon="-7.057315"><ele>1223.0</ele><time>2026-04-24T11:31:47.394Z</time></trkpt><trkpt lat="30.9701583" lon="-7.0574667"><ele>1223.6666666666667</ele><time>2026-04-24T11:31:48.394Z</time></trkpt><trkpt lat="30.97027" lon="-7.05761"><ele>1224.3333333333333</ele><time>2026-04-24T11:31:49.394Z</time></trkpt><trkpt lat="30.9703783" lon="-7.0577467"><ele>1225.0</ele><time>2026-04-24T11:31:50.394Z</time></trkpt><trkpt lat="30.9704883" lon="-7.0578833"><ele>1225.0</ele><time>2026-04-24T11:31:51.394Z</time></trkpt><trkpt lat="30.9705933" lon="-7.05802"><ele>1225.0</ele><time>2026-04-24T11:31:52.394Z</time></trkpt><trkpt lat="30.9706983" lon="-7.0581533"><ele>1225.0</ele><time>2026-04-24T11:31:53.394Z</time></trkpt><trkpt lat="30.9708" lon="-7.0582883"><ele>1227.25</ele><time>2026-04-24T11:31:54.394Z</time></trkpt><trkpt lat="30.9708933" lon="-7.0584217"><ele>1229.5</ele><time>2026-04-24T11:31:55.394Z</time></trkpt><trkpt lat="30.9709767" lon="-7.058555"><ele>1231.75</ele><time>2026-04-24T11:31:56.394Z</time></trkpt><trkpt lat="30.9710483" lon="-7.058695"><ele>1234.0</ele><time>2026-04-24T11:31:57.394Z</time></trkpt><trkpt lat="30.9711067" lon="-7.0588517"><ele>1234.0</ele><time>2026-04-24T11:31:58.394Z</time></trkpt><trkpt lat="30.971145" lon="-7.059045"><ele>1234.0</ele><time>2026-04-24T11:31:59.394Z</time></trkpt><trkpt lat="30.9711667" lon="-7.05928"><ele>1234.0</ele><time>2026-04-24T11:32:00.394Z</time></trkpt><trkpt lat="30.9711683" lon="-7.05954"><ele>1234.3333333333333</ele><time>2026-04-24T11:32:01.394Z</time></trkpt><trkpt lat="30.97117" lon="-7.0598083"><ele>1234.6666666666667</ele><time>2026-04-24T11:32:02.394Z</time></trkpt><trkpt lat="30.9711783" lon="-7.0600533"><ele>1235.0</ele><time>2026-04-24T11:32:03.394Z</time></trkpt><trkpt lat="30.9711833" lon="-7.0602767"><ele>1236.0</ele><time>2026-04-24T11:32:04.394Z</time></trkpt><trkpt lat="30.9712" lon="-7.0604883"><ele>1237.0</ele><time>2026-04-24T11:32:05.394Z</time></trkpt><trkpt lat="30.971245" lon="-7.060675"><ele>1238.0</ele><time>2026-04-24T11:32:06.394Z</time></trkpt><trkpt lat="30.9713167" lon="-7.06086"><ele>1238.0</ele><time>2026-04-24T11:32:07.394Z</time></trkpt><trkpt lat="30.9714167" lon="-7.0610267"><ele>1238.0</ele><time>2026-04-24T11:32:08.395Z</time></trkpt><trkpt lat="30.9715383" lon="-7.0611717"><ele>1238.0</ele><time>2026-04-24T11:32:09.394Z</time></trkpt><trkpt lat="30.9716767" lon="-7.061295"><ele>1237.6666666666667</ele><time>2026-04-24T11:32:10.394Z</time></trkpt><trkpt lat="30.97182" lon="-7.0614083"><ele>1237.3333333333333</ele><time>2026-04-24T11:32:11.394Z</time></trkpt><trkpt lat="30.9719567" lon="-7.0615133"><ele>1237.0</ele><time>2026-04-24T11:32:12.394Z</time></trkpt><trkpt lat="30.9720967" lon="-7.0616183"><ele>1237.0</ele><time>2026-04-24T11:32:13.394Z</time></trkpt><trkpt lat="30.9722333" lon="-7.0617217"><ele>1237.0</ele><time>2026-04-24T11:32:14.394Z</time></trkpt><trkpt lat="30.9723683" lon="-7.0618267"><ele>1237.0</ele><time>2026-04-24T11:32:15.394Z</time></trkpt><trkpt lat="30.9725083" lon="-7.06193"><ele>1237.3333333333333</ele><time>2026-04-24T11:32:16.394Z</time></trkpt><trkpt lat="30.97265" lon="-7.0620317"><ele>1237.6666666666667</ele><time>2026-04-24T11:32:17.394Z</time></trkpt><trkpt lat="30.972785" lon="-7.0621417"><ele>1238.0</ele><time>2026-04-24T11:32:18.394Z</time></trkpt><trkpt lat="30.9729283" lon="-7.0622533"><ele>1238.0</ele><time>2026-04-24T11:32:19.394Z</time></trkpt><trkpt lat="30.9730733" lon="-7.0623633"><ele>1238.0</ele><time>2026-04-24T11:32:20.394Z</time></trkpt><trkpt lat="30.973225" lon="-7.0624783"><ele>1238.0</ele><time>2026-04-24T11:32:21.394Z</time></trkpt><trkpt lat="30.9733767" lon="-7.0625917"><ele>1236.6666666666667</ele><time>2026-04-24T11:32:22.394Z</time></trkpt><trkpt lat="30.9735333" lon="-7.0627067"><ele>1235.3333333333333</ele><time>2026-04-24T11:32:23.394Z</time></trkpt><trkpt lat="30.9736967" lon="-7.062825"><ele>1234.0</ele><time>2026-04-24T11:32:24.395Z</time></trkpt><trkpt lat="30.9738583" lon="-7.0629467"><ele>1234.0</ele><time>2026-04-24T11:32:25.394Z</time></trkpt><trkpt lat="30.9740233" lon="-7.0630733"><ele>1234.0</ele><time>2026-04-24T11:32:26.394Z</time></trkpt><trkpt lat="30.97419" lon="-7.063195"><ele>1234.0</ele><time>2026-04-24T11:32:27.394Z</time></trkpt><trkpt lat="30.9743483" lon="-7.0633117"><ele>1232.3333333333333</ele><time>2026-04-24T11:32:28.394Z</time></trkpt><trkpt lat="30.974505" lon="-7.0634283"><ele>1230.6666666666667</ele><time>2026-04-24T11:32:29.394Z</time></trkpt><trkpt lat="30.9746617" lon="-7.0635433"><ele>1229.0</ele><time>2026-04-24T11:32:30.394Z</time></trkpt><trkpt lat="30.9748217" lon="-7.0636633"><ele>1229.0</ele><time>2026-04-24T11:32:31.394Z</time></trkpt><trkpt lat="30.9749733" lon="-7.0637783"><ele>1229.0</ele><time>2026-04-24T11:32:32.394Z</time></trkpt><trkpt lat="30.9751283" lon="-7.0638967"><ele>1229.0</ele><time>2026-04-24T11:32:33.394Z</time></trkpt><trkpt lat="30.9752783" lon="-7.0640167"><ele>1230.0</ele><time>2026-04-24T11:32:34.394Z</time></trkpt><trkpt lat="30.97543" lon="-7.0641333"><ele>1231.0</ele><time>2026-04-24T11:32:35.394Z</time></trkpt><trkpt lat="30.9755833" lon="-7.06424"><ele>1232.0</ele><time>2026-04-24T11:32:36.394Z</time></trkpt><trkpt lat="30.9757233" lon="-7.0643533"><ele>1232.0</ele><time>2026-04-24T11:32:37.394Z</time></trkpt><trkpt lat="30.9758533" lon="-7.0644517"><ele>1232.0</ele><time>2026-04-24T11:32:38.394Z</time></trkpt><trkpt lat="30.9759783" lon="-7.06456"><ele>1232.0</ele><time>2026-04-24T11:32:39.394Z</time></trkpt><trkpt lat="30.97609" lon="-7.0646833"><ele>1232.0</ele><time>2026-04-24T11:32:40.394Z</time></trkpt><trkpt lat="30.9761867" lon="-7.064825"><ele>1232.0</ele><time>2026-04-24T11:32:41.394Z</time></trkpt><trkpt lat="30.9762733" lon="-7.064995"><ele>1232.0</ele><time>2026-04-24T11:32:42.394Z</time></trkpt><trkpt lat="30.9763383" lon="-7.06518"><ele>1232.3333333333335</ele><time>2026-04-24T11:32:43.394Z</time></trkpt><trkpt lat="30.9763783" lon="-7.06538"><ele>1232.6666666666667</ele><time>2026-04-24T11:32:44.394Z</time></trkpt><trkpt lat="30.9763983" lon="-7.0655767"><ele>1233.0</ele><time>2026-04-24T11:32:45.394Z</time></trkpt><trkpt lat="30.9763883" lon="-7.0657567"><ele>1233.0</ele><time>2026-04-24T11:32:46.394Z</time></trkpt><trkpt lat="30.9763517" lon="-7.06593"><ele>1233.0</ele><time>2026-04-24T11:32:47.394Z</time></trkpt><trkpt lat="30.9762817" lon="-7.066105"><ele>1233.0</ele><time>2026-04-24T11:32:48.394Z</time></trkpt><trkpt lat="30.9761833" lon="-7.066275"><ele>1233.0</ele><time>2026-04-24T11:32:49.394Z</time></trkpt><trkpt lat="30.9760683" lon="-7.0664333"><ele>1233.0</ele><time>2026-04-24T11:32:50.394Z</time></trkpt><trkpt lat="30.9759367" lon="-7.0665883"><ele>1233.0</ele><time>2026-04-24T11:32:51.394Z</time></trkpt><trkpt lat="30.9757983" lon="-7.06675"><ele>1234.3333333333333</ele><time>2026-04-24T11:32:52.394Z</time></trkpt><trkpt lat="30.975655" lon="-7.066915"><ele>1235.6666666666665</ele><time>2026-04-24T11:32:53.394Z</time></trkpt><trkpt lat="30.9755083" lon="-7.0670833"><ele>1237.0</ele><time>2026-04-24T11:32:54.394Z</time></trkpt><trkpt lat="30.9753567" lon="-7.067265"><ele>1238.5</ele><time>2026-04-24T11:32:55.394Z</time></trkpt><trkpt lat="30.9752017" lon="-7.0674567"><ele>1240.0</ele><time>2026-04-24T11:32:56.394Z</time></trkpt><trkpt lat="30.9750433" lon="-7.067645"><ele>1238.5</ele><time>2026-04-24T11:32:57.394Z</time></trkpt><trkpt lat="30.9748767" lon="-7.0678367"><ele>1237.0</ele><time>2026-04-24T11:32:58.394Z</time></trkpt><trkpt lat="30.9747167" lon="-7.0680383"><ele>1237.0</ele><time>2026-04-24T11:32:59.394Z</time></trkpt><trkpt lat="30.97455" lon="-7.0682417"><ele>1237.0</ele><time>2026-04-24T11:33:00.394Z</time></trkpt><trkpt lat="30.9743883" lon="-7.0684367"><ele>1237.5</ele><time>2026-04-24T11:33:01.394Z</time></trkpt><trkpt lat="30.9742183" lon="-7.0686417"><ele>1238.0</ele><time>2026-04-24T11:33:02.394Z</time></trkpt><trkpt lat="30.9740467" lon="-7.068845"><ele>1239.0</ele><time>2026-04-24T11:33:03.394Z</time></trkpt><trkpt lat="30.9738817" lon="-7.069045"><ele>1240.0</ele><time>2026-04-24T11:33:04.394Z</time></trkpt><trkpt lat="30.9737133" lon="-7.0692483"><ele>1240.0</ele><time>2026-04-24T11:33:05.394Z</time></trkpt><trkpt lat="30.9735467" lon="-7.0694483"><ele>1240.0</ele><time>2026-04-24T11:33:06.394Z</time></trkpt><trkpt lat="30.9733867" lon="-7.0696433"><ele>1240.5</ele><time>2026-04-24T11:33:07.394Z</time></trkpt><trkpt lat="30.9732283" lon="-7.0698433"><ele>1241.0</ele><time>2026-04-24T11:33:08.394Z</time></trkpt><trkpt lat="30.9730667" lon="-7.070045"><ele>1242.0</ele><time>2026-04-24T11:33:09.394Z</time></trkpt><trkpt lat="30.9729067" lon="-7.0702383"><ele>1243.0</ele><time>2026-04-24T11:33:10.394Z</time></trkpt><trkpt lat="30.9727417" lon="-7.070425"><ele>1243.0</ele><time>2026-04-24T11:33:11.394Z</time></trkpt><trkpt lat="30.9725817" lon="-7.070615"><ele>1243.0</ele><time>2026-04-24T11:33:12.394Z</time></trkpt><trkpt lat="30.97242" lon="-7.0708083"><ele>1244.5</ele><time>2026-04-24T11:33:13.394Z</time></trkpt><trkpt lat="30.9722617" lon="-7.0710017"><ele>1246.0</ele><time>2026-04-24T11:33:14.394Z</time></trkpt><trkpt lat="30.97211" lon="-7.0711917"><ele>1246.0</ele><time>2026-04-24T11:33:15.394Z</time></trkpt><trkpt lat="30.9719667" lon="-7.07137"><ele>1246.0</ele><time>2026-04-24T11:33:16.394Z</time></trkpt><trkpt lat="30.9718317" lon="-7.071545"><ele>1246.0</ele><time>2026-04-24T11:33:17.395Z</time></trkpt><trkpt lat="30.9717033" lon="-7.071705"><ele>1247.3333333333333</ele><time>2026-04-24T11:33:18.394Z</time></trkpt><trkpt lat="30.97158" lon="-7.07186"><ele>1248.6666666666667</ele><time>2026-04-24T11:33:19.394Z</time></trkpt><trkpt lat="30.9714717" lon="-7.0720167"><ele>1250.0</ele><time>2026-04-24T11:33:20.394Z</time></trkpt><trkpt lat="30.9713783" lon="-7.0721683"><ele>1250.0</ele><time>2026-04-24T11:33:21.394Z</time></trkpt><trkpt lat="30.9713" lon="-7.0723183"><ele>1250.0</ele><time>2026-04-24T11:33:22.394Z</time></trkpt><trkpt lat="30.9712483" lon="-7.07247"><ele>1250.0</ele><time>2026-04-24T11:33:23.394Z</time></trkpt><trkpt lat="30.971225" lon="-7.072615"><ele>1250.0</ele><time>2026-04-24T11:33:24.395Z</time></trkpt><trkpt lat="30.97124" lon="-7.0727517"><ele>1251.75</ele><time>2026-04-24T11:33:25.394Z</time></trkpt><trkpt lat="30.9712933" lon="-7.072895"><ele>1253.5</ele><time>2026-04-24T11:33:26.394Z</time></trkpt><trkpt lat="30.9713633" lon="-7.07304"><ele>1255.25</ele><time>2026-04-24T11:33:27.395Z</time></trkpt><trkpt lat="30.9714517" lon="-7.073175"><ele>1257.0</ele><time>2026-04-24T11:33:28.394Z</time></trkpt><trkpt lat="30.9715367" lon="-7.0733167"><ele>1257.25</ele><time>2026-04-24T11:33:29.394Z</time></trkpt><trkpt lat="30.9716133" lon="-7.0734467"><ele>1257.5</ele><time>2026-04-24T11:33:30.394Z</time></trkpt><trkpt lat="30.9716867" lon="-7.0735767"><ele>1257.75</ele><time>2026-04-24T11:33:31.394Z</time></trkpt><trkpt lat="30.9717483" lon="-7.07371"><ele>1258.0</ele><time>2026-04-24T11:33:32.394Z</time></trkpt><trkpt lat="30.9717833" lon="-7.073835"><ele>1258.5</ele><time>2026-04-24T11:33:33.394Z</time></trkpt><trkpt lat="30.9717833" lon="-7.0739583"><ele>1259.0</ele><time>2026-04-24T11:33:34.394Z</time></trkpt><trkpt lat="30.9717483" lon="-7.074075"><ele>1259.5</ele><time>2026-04-24T11:33:35.395Z</time></trkpt><trkpt lat="30.9716833" lon="-7.07419"><ele>1260.0</ele><time>2026-04-24T11:33:36.394Z</time></trkpt><trkpt lat="30.9715983" lon="-7.07429"><ele>1260.0</ele><time>2026-04-24T11:33:37.394Z</time></trkpt><trkpt lat="30.9714783" lon="-7.074365"><ele>1260.0</ele><time>2026-04-24T11:33:38.394Z</time></trkpt><trkpt lat="30.971325" lon="-7.0744367"><ele>1260.0</ele><time>2026-04-24T11:33:39.394Z</time></trkpt><trkpt lat="30.97115" lon="-7.0745183"><ele>1260.0</ele><time>2026-04-24T11:33:40.394Z</time></trkpt><trkpt lat="30.970955" lon="-7.0746117"><ele>1260.0</ele><time>2026-04-24T11:33:41.394Z</time></trkpt><trkpt lat="30.970745" lon="-7.0747"><ele>1260.0</ele><time>2026-04-24T11:33:42.394Z</time></trkpt><trkpt lat="30.970535" lon="-7.0748033"><ele>1262.3333333333333</ele><time>2026-04-24T11:33:43.394Z</time></trkpt><trkpt lat="30.9703417" lon="-7.0749"><ele>1264.6666666666665</ele><time>2026-04-24T11:33:44.395Z</time></trkpt><trkpt lat="30.97017" lon="-7.074985"><ele>1267.0</ele><time>2026-04-24T11:33:45.394Z</time></trkpt><trkpt lat="30.9700217" lon="-7.075055"><ele>1267.0</ele><time>2026-04-24T11:33:46.394Z</time></trkpt><trkpt lat="30.9698867" lon="-7.07509"><ele>1267.0</ele><time>2026-04-24T11:33:47.394Z</time></trkpt><trkpt lat="30.96974" lon="-7.07511"><ele>1267.0</ele><time>2026-04-24T11:33:48.394Z</time></trkpt><trkpt lat="30.9696033" lon="-7.0751217"><ele>1267.0</ele><time>2026-04-24T11:33:49.394Z</time></trkpt><trkpt lat="30.969495" lon="-7.0751317"><ele>1267.0</ele><time>2026-04-24T11:33:50.394Z</time></trkpt><trkpt lat="30.9694133" lon="-7.0751317"><ele>1267.0</ele><time>2026-04-24T11:33:51.394Z</time></trkpt><trkpt lat="30.969345" lon="-7.0751383"><ele>1267.0</ele><time>2026-04-24T11:33:52.394Z</time></trkpt><trkpt lat="30.9692817" lon="-7.0751467"><ele>1267.0</ele><time>2026-04-24T11:33:53.394Z</time></trkpt><trkpt lat="30.9692133" lon="-7.0751567"><ele>1267.0</ele><time>2026-04-24T11:33:54.394Z</time></trkpt><trkpt lat="30.9691467" lon="-7.07517"><ele>1267.0</ele><time>2026-04-24T11:33:55.394Z</time></trkpt><trkpt lat="30.96908" lon="-7.0752017"><ele>1267.0</ele><time>2026-04-24T11:33:56.394Z</time></trkpt><trkpt lat="30.9690167" lon="-7.0752517"><ele>1266.5</ele><time>2026-04-24T11:33:57.394Z</time></trkpt><trkpt lat="30.9689633" lon="-7.0753117"><ele>1266.0</ele><time>2026-04-24T11:33:58.394Z</time></trkpt><trkpt lat="30.9689233" lon="-7.07539"><ele>1265.5</ele><time>2026-04-24T11:33:59.394Z</time></trkpt><trkpt lat="30.96889" lon="-7.0754833"><ele>1265.0</ele><time>2026-04-24T11:34:00.394Z</time></trkpt><trkpt lat="30.9688667" lon="-7.075585"><ele>1264.5</ele><time>2026-04-24T11:34:01.394Z</time></trkpt><trkpt lat="30.9688633" lon="-7.0756883"><ele>1264.0</ele><time>2026-04-24T11:34:02.394Z</time></trkpt><trkpt lat="30.9688733" lon="-7.075785"><ele>1265.5</ele><time>2026-04-24T11:34:03.395Z</time></trkpt><trkpt lat="30.9688983" lon="-7.0758817"><ele>1267.0</ele><time>2026-04-24T11:34:04.394Z</time></trkpt><trkpt lat="30.9689317" lon="-7.075965"><ele>1268.5</ele><time>2026-04-24T11:34:05.394Z</time></trkpt><trkpt lat="30.9689733" lon="-7.0760417"><ele>1270.0</ele><time>2026-04-24T11:34:06.394Z</time></trkpt><trkpt lat="30.9690183" lon="-7.0761233"><ele>1271.5</ele><time>2026-04-24T11:34:07.394Z</time></trkpt><trkpt lat="30.969055" lon="-7.0762117"><ele>1273.0</ele><time>2026-04-24T11:34:08.394Z</time></trkpt><trkpt lat="30.969065" lon="-7.07631"><ele>1273.0</ele><time>2026-04-24T11:34:09.394Z</time></trkpt><trkpt lat="30.969045" lon="-7.076415"><ele>1273.0</ele><time>2026-04-24T11:34:10.394Z</time></trkpt><trkpt lat="30.9689967" lon="-7.07652"><ele>1273.0</ele><time>2026-04-24T11:34:11.394Z</time></trkpt><trkpt lat="30.9689317" lon="-7.0766133"><ele>1273.0</ele><time>2026-04-24T11:34:12.394Z</time></trkpt><trkpt lat="30.968845" lon="-7.0766783"><ele>1273.0</ele><time>2026-04-24T11:34:13.394Z</time></trkpt><trkpt lat="30.9687533" lon="-7.076725"><ele>1272.6</ele><time>2026-04-24T11:34:14.394Z</time></trkpt><trkpt lat="30.9686633" lon="-7.0767733"><ele>1272.1999999999998</ele><time>2026-04-24T11:34:15.394Z</time></trkpt><trkpt lat="30.9685817" lon="-7.0768317"><ele>1271.8</ele><time>2026-04-24T11:34:16.394Z</time></trkpt><trkpt lat="30.968505" lon="-7.0768983"><ele>1271.3999999999999</ele><time>2026-04-24T11:34:17.394Z</time></trkpt><trkpt lat="30.968435" lon="-7.07697"><ele>1271.0</ele><time>2026-04-24T11:34:18.394Z</time></trkpt><trkpt lat="30.96837" lon="-7.077065"><ele>1268.5</ele><time>2026-04-24T11:34:19.394Z</time></trkpt><trkpt lat="30.9683067" lon="-7.077185"><ele>1266.0</ele><time>2026-04-24T11:34:20.394Z</time></trkpt><trkpt lat="30.9682567" lon="-7.077345"><ele>1263.5</ele><time>2026-04-24T11:34:21.394Z</time></trkpt><trkpt lat="30.968215" lon="-7.07752"><ele>1261.0</ele><time>2026-04-24T11:34:22.394Z</time></trkpt><trkpt lat="30.9681817" lon="-7.077715"><ele>1261.0</ele><time>2026-04-24T11:34:23.394Z</time></trkpt><trkpt lat="30.9681467" lon="-7.0779283"><ele>1261.0</ele><time>2026-04-24T11:34:24.394Z</time></trkpt><trkpt lat="30.9681133" lon="-7.07816"><ele>1261.0</ele><time>2026-04-24T11:34:25.394Z</time></trkpt><trkpt lat="30.9680917" lon="-7.0783917"><ele>1259.6666666666665</ele><time>2026-04-24T11:34:26.394Z</time></trkpt><trkpt lat="30.9680767" lon="-7.0786133"><ele>1258.3333333333333</ele><time>2026-04-24T11:34:27.394Z</time></trkpt><trkpt lat="30.9680683" lon="-7.0788183"><ele>1257.0</ele><time>2026-04-24T11:34:28.394Z</time></trkpt><trkpt lat="30.9680683" lon="-7.0790183"><ele>1257.0</ele><time>2026-04-24T11:34:29.394Z</time></trkpt><trkpt lat="30.968075" lon="-7.0792217"><ele>1257.0</ele><time>2026-04-24T11:34:30.394Z</time></trkpt><trkpt lat="30.9680933" lon="-7.079425"><ele>1257.0</ele><time>2026-04-24T11:34:31.394Z</time></trkpt><trkpt lat="30.9681183" lon="-7.079625"><ele>1257.0</ele><time>2026-04-24T11:34:32.394Z</time></trkpt><trkpt lat="30.9681483" lon="-7.07982"><ele>1257.0</ele><time>2026-04-24T11:34:33.394Z</time></trkpt><trkpt lat="30.96819" lon="-7.0800167"><ele>1257.0</ele><time>2026-04-24T11:34:34.394Z</time></trkpt><trkpt lat="30.9682267" lon="-7.0802083"><ele>1259.3333333333333</ele><time>2026-04-24T11:34:35.394Z</time></trkpt><trkpt lat="30.9682617" lon="-7.0804017"><ele>1261.6666666666665</ele><time>2026-04-24T11:34:36.394Z</time></trkpt><trkpt lat="30.9682817" lon="-7.080595"><ele>1264.0</ele><time>2026-04-24T11:34:37.394Z</time></trkpt><trkpt lat="30.9682967" lon="-7.080795"><ele>1265.3333333333333</ele><time>2026-04-24T11:34:38.394Z</time></trkpt><trkpt lat="30.9683067" lon="-7.081"><ele>1266.6666666666667</ele><time>2026-04-24T11:34:39.394Z</time></trkpt><trkpt lat="30.96831" lon="-7.0812067"><ele>1268.0</ele><time>2026-04-24T11:34:40.394Z</time></trkpt><trkpt lat="30.9683183" lon="-7.0814133"><ele>1269.6666666666667</ele><time>2026-04-24T11:34:41.394Z</time></trkpt><trkpt lat="30.9683167" lon="-7.0816117"><ele>1271.3333333333333</ele><time>2026-04-24T11:34:42.394Z</time></trkpt><trkpt lat="30.9683033" lon="-7.0818083"><ele>1273.0</ele><time>2026-04-24T11:34:43.394Z</time></trkpt><trkpt lat="30.96827" lon="-7.0820033"><ele>1273.0</ele><time>2026-04-24T11:34:44.394Z</time></trkpt><trkpt lat="30.9682167" lon="-7.0821933"><ele>1273.0</ele><time>2026-04-24T11:34:45.394Z</time></trkpt><trkpt lat="30.96817" lon="-7.08238"><ele>1273.0</ele><time>2026-04-24T11:34:46.394Z</time></trkpt><trkpt lat="30.9681567" lon="-7.0825817"><ele>1273.0</ele><time>2026-04-24T11:34:47.394Z</time></trkpt><trkpt lat="30.96815" lon="-7.082795"><ele>1273.0</ele><time>2026-04-24T11:34:48.394Z</time></trkpt><trkpt lat="30.9681533" lon="-7.0830017"><ele>1273.0</ele><time>2026-04-24T11:34:49.394Z</time></trkpt><trkpt lat="30.9681633" lon="-7.08321"><ele>1273.0</ele><time>2026-04-24T11:34:50.394Z</time></trkpt><trkpt lat="30.9681767" lon="-7.0834183"><ele>1273.0</ele><time>2026-04-24T11:34:51.394Z</time></trkpt><trkpt lat="30.9681883" lon="-7.0836233"><ele>1273.0</ele><time>2026-04-24T11:34:52.394Z</time></trkpt><trkpt lat="30.9682067" lon="-7.08383"><ele>1273.0</ele><time>2026-04-24T11:34:53.394Z</time></trkpt><trkpt lat="30.9682183" lon="-7.084035"><ele>1273.0</ele><time>2026-04-24T11:34:54.394Z</time></trkpt><trkpt lat="30.9682367" lon="-7.08424"><ele>1273.0</ele><time>2026-04-24T11:34:55.394Z</time></trkpt><trkpt lat="30.9682533" lon="-7.084445"><ele>1273.6666666666665</ele><time>2026-04-24T11:34:56.394Z</time></trkpt><trkpt lat="30.9682667" lon="-7.0846467"><ele>1274.3333333333333</ele><time>2026-04-24T11:34:57.394Z</time></trkpt><trkpt lat="30.9682883" lon="-7.0848533"><ele>1275.0</ele><time>2026-04-24T11:34:58.394Z</time></trkpt><trkpt lat="30.9683183" lon="-7.0850533"><ele>1279.0</ele><time>2026-04-24T11:34:59.394Z</time></trkpt><trkpt lat="30.9683717" lon="-7.0852483"><ele>1283.0</ele><time>2026-04-24T11:35:00.394Z</time></trkpt><trkpt lat="30.9684383" lon="-7.0854433"><ele>1287.0</ele><time>2026-04-24T11:35:01.394Z</time></trkpt><trkpt lat="30.9685083" lon="-7.08563"><ele>1290.0</ele><time>2026-04-24T11:35:02.394Z</time></trkpt><trkpt lat="30.9685767" lon="-7.0858083"><ele>1293.0</ele><time>2026-04-24T11:35:03.394Z</time></trkpt><trkpt lat="30.968655" lon="-7.085985"><ele>1296.0</ele><time>2026-04-24T11:35:04.394Z</time></trkpt><trkpt lat="30.9687417" lon="-7.0861567"><ele>1296.0</ele><time>2026-04-24T11:35:05.393Z</time></trkpt><trkpt lat="30.9688383" lon="-7.086325"><ele>1296.0</ele><time>2026-04-24T11:35:06.393Z</time></trkpt><trkpt lat="30.9689283" lon="-7.0864967"><ele>1296.0</ele><time>2026-04-24T11:35:07.393Z</time></trkpt><trkpt lat="30.96902" lon="-7.0866583"><ele>1292.6666666666667</ele><time>2026-04-24T11:35:08.393Z</time></trkpt><trkpt lat="30.969095" lon="-7.0868233"><ele>1289.3333333333335</ele><time>2026-04-24T11:35:09.393Z</time></trkpt><trkpt lat="30.96916" lon="-7.08699"><ele>1286.0</ele><time>2026-04-24T11:35:10.393Z</time></trkpt><trkpt lat="30.9692217" lon="-7.0871533"><ele>1293.6666666666667</ele><time>2026-04-24T11:35:11.393Z</time></trkpt><trkpt lat="30.9692867" lon="-7.0873233"><ele>1301.3333333333333</ele><time>2026-04-24T11:35:12.393Z</time></trkpt><trkpt lat="30.96935" lon="-7.0874933"><ele>1309.0</ele><time>2026-04-24T11:35:13.393Z</time></trkpt><trkpt lat="30.9694083" lon="-7.0876717"><ele>1309.0</ele><time>2026-04-24T11:35:14.393Z</time></trkpt><trkpt lat="30.9694617" lon="-7.087855"><ele>1309.0</ele><time>2026-04-24T11:35:15.393Z</time></trkpt><trkpt lat="30.9695133" lon="-7.0880383"><ele>1309.0</ele><time>2026-04-24T11:35:16.393Z</time></trkpt><trkpt lat="30.9695667" lon="-7.0882167"><ele>1301.3333333333333</ele><time>2026-04-24T11:35:17.394Z</time></trkpt><trkpt lat="30.969635" lon="-7.0883983"><ele>1293.6666666666667</ele><time>2026-04-24T11:35:18.393Z</time></trkpt><trkpt lat="30.9697183" lon="-7.0885733"><ele>1286.0</ele><time>2026-04-24T11:35:19.393Z</time></trkpt><trkpt lat="30.9698033" lon="-7.0887467"><ele>1286.0</ele><time>2026-04-24T11:35:20.393Z</time></trkpt><trkpt lat="30.9698767" lon="-7.0889167"><ele>1286.0</ele><time>2026-04-24T11:35:21.393Z</time></trkpt><trkpt lat="30.9699267" lon="-7.08909"><ele>1286.0</ele><time>2026-04-24T11:35:22.393Z</time></trkpt><trkpt lat="30.9699567" lon="-7.0892717"><ele>1287.25</ele><time>2026-04-24T11:35:23.393Z</time></trkpt><trkpt lat="30.9699867" lon="-7.0894383"><ele>1288.5</ele><time>2026-04-24T11:35:24.393Z</time></trkpt><trkpt lat="30.9700283" lon="-7.089605"><ele>1289.75</ele><time>2026-04-24T11:35:25.393Z</time></trkpt><trkpt lat="30.9700683" lon="-7.0897683"><ele>1291.0</ele><time>2026-04-24T11:35:26.393Z</time></trkpt><trkpt lat="30.9701233" lon="-7.08994"><ele>1291.0</ele><time>2026-04-24T11:35:27.393Z</time></trkpt><trkpt lat="30.9701767" lon="-7.09011"><ele>1291.0</ele><time>2026-04-24T11:35:28.393Z</time></trkpt><trkpt lat="30.9702467" lon="-7.0902683"><ele>1291.0</ele><time>2026-04-24T11:35:29.393Z</time></trkpt><trkpt lat="30.9703183" lon="-7.0904217"><ele>1291.0</ele><time>2026-04-24T11:35:30.393Z</time></trkpt><trkpt lat="30.9704033" lon="-7.0905683"><ele>1291.0</ele><time>2026-04-24T11:35:31.393Z</time></trkpt><trkpt lat="30.97048" lon="-7.0907117"><ele>1291.0</ele><time>2026-04-24T11:35:32.393Z</time></trkpt><trkpt lat="30.9705417" lon="-7.090865"><ele>1291.0</ele><time>2026-04-24T11:35:33.393Z</time></trkpt><trkpt lat="30.970585" lon="-7.0910233"><ele>1284.0</ele><time>2026-04-24T11:35:34.393Z</time></trkpt><trkpt lat="30.9706133" lon="-7.0912017"><ele>1277.0</ele><time>2026-04-24T11:35:35.393Z</time></trkpt><trkpt lat="30.9706367" lon="-7.0913933"><ele>1270.0</ele><time>2026-04-24T11:35:36.393Z</time></trkpt><trkpt lat="30.970665" lon="-7.0915733"><ele>1268.25</ele><time>2026-04-24T11:35:37.393Z</time></trkpt><trkpt lat="30.9707067" lon="-7.0917517"><ele>1266.5</ele><time>2026-04-24T11:35:38.393Z</time></trkpt><trkpt lat="30.9707583" lon="-7.0919167"><ele>1264.75</ele><time>2026-04-24T11:35:39.394Z</time></trkpt><trkpt lat="30.9708167" lon="-7.0920517"><ele>1263.0</ele><time>2026-04-24T11:35:40.393Z</time></trkpt><trkpt lat="30.9708933" lon="-7.0921517"><ele>1263.0</ele><time>2026-04-24T11:35:41.393Z</time></trkpt><trkpt lat="30.971" lon="-7.0922233"><ele>1263.0</ele><time>2026-04-24T11:35:42.393Z</time></trkpt><trkpt lat="30.9711117" lon="-7.09226"><ele>1263.0</ele><time>2026-04-24T11:35:43.393Z</time></trkpt><trkpt lat="30.9712317" lon="-7.0922633"><ele>1263.0</ele><time>2026-04-24T11:35:44.393Z</time></trkpt><trkpt lat="30.9713583" lon="-7.0922517"><ele>1263.0</ele><time>2026-04-24T11:35:45.393Z</time></trkpt><trkpt lat="30.9714867" lon="-7.0922183"><ele>1263.0</ele><time>2026-04-24T11:35:46.393Z</time></trkpt><trkpt lat="30.9716183" lon="-7.0921783"><ele>1263.0</ele><time>2026-04-24T11:35:47.393Z</time></trkpt><trkpt lat="30.9717533" lon="-7.0921533"><ele>1263.0</ele><time>2026-04-24T11:35:48.393Z</time></trkpt><trkpt lat="30.9718967" lon="-7.0921633"><ele>1264.6666666666667</ele><time>2026-04-24T11:35:49.393Z</time></trkpt><trkpt lat="30.9720417" lon="-7.0922"><ele>1266.3333333333335</ele><time>2026-04-24T11:35:50.393Z</time></trkpt><trkpt lat="30.9721917" lon="-7.0922617"><ele>1268.0</ele><time>2026-04-24T11:35:51.393Z</time></trkpt><trkpt lat="30.9723417" lon="-7.0923317"><ele>1268.0</ele><time>2026-04-24T11:35:52.393Z</time></trkpt><trkpt lat="30.9724983" lon="-7.0923967"><ele>1268.0</ele><time>2026-04-24T11:35:53.393Z</time></trkpt><trkpt lat="30.9726583" lon="-7.092465"><ele>1268.0</ele><time>2026-04-24T11:35:54.393Z</time></trkpt><trkpt lat="30.9728217" lon="-7.092535"><ele>1259.3333333333335</ele><time>2026-04-24T11:35:55.393Z</time></trkpt><trkpt lat="30.9729817" lon="-7.0926"><ele>1250.6666666666667</ele><time>2026-04-24T11:35:56.393Z</time></trkpt><trkpt lat="30.9731333" lon="-7.0926633"><ele>1242.0</ele><time>2026-04-24T11:35:57.393Z</time></trkpt><trkpt lat="30.9732917" lon="-7.09273"><ele>1239.6666666666667</ele><time>2026-04-24T11:35:58.393Z</time></trkpt><trkpt lat="30.9734567" lon="-7.0927917"><ele>1237.3333333333335</ele><time>2026-04-24T11:35:59.393Z</time></trkpt><trkpt lat="30.973625" lon="-7.0928517"><ele>1235.0</ele><time>2026-04-24T11:36:00.393Z</time></trkpt><trkpt lat="30.9737867" lon="-7.0929133"><ele>1235.0</ele><time>2026-04-24T11:36:01.393Z</time></trkpt><trkpt lat="30.9739433" lon="-7.092975"><ele>1235.0</ele><time>2026-04-24T11:36:02.394Z</time></trkpt><trkpt lat="30.9741017" lon="-7.0930383"><ele>1235.0</ele><time>2026-04-24T11:36:03.393Z</time></trkpt><trkpt lat="30.974255" lon="-7.0931083"><ele>1233.6666666666667</ele><time>2026-04-24T11:36:04.393Z</time></trkpt><trkpt lat="30.9744133" lon="-7.0931733"><ele>1232.3333333333333</ele><time>2026-04-24T11:36:05.393Z</time></trkpt><trkpt lat="30.974565" lon="-7.0932417"><ele>1231.0</ele><time>2026-04-24T11:36:06.393Z</time></trkpt><trkpt lat="30.9747167" lon="-7.0933133"><ele>1230.0</ele><time>2026-04-24T11:36:07.393Z</time></trkpt><trkpt lat="30.9748617" lon="-7.0933817"><ele>1229.0</ele><time>2026-04-24T11:36:08.393Z</time></trkpt><trkpt lat="30.9749983" lon="-7.0934483"><ele>1228.0</ele><time>2026-04-24T11:36:09.393Z</time></trkpt><trkpt lat="30.9751333" lon="-7.093525"><ele>1228.0</ele><time>2026-04-24T11:36:10.393Z</time></trkpt><trkpt lat="30.9752567" lon="-7.0936117"><ele>1228.0</ele><time>2026-04-24T11:36:11.393Z</time></trkpt><trkpt lat="30.9753667" lon="-7.0937117"><ele>1228.0</ele><time>2026-04-24T11:36:12.393Z</time></trkpt><trkpt lat="30.9754617" lon="-7.0938167"><ele>1228.0</ele><time>2026-04-24T11:36:13.393Z</time></trkpt><trkpt lat="30.9755483" lon="-7.0939333"><ele>1228.0</ele><time>2026-04-24T11:36:14.393Z</time></trkpt><trkpt lat="30.9756267" lon="-7.0940633"><ele>1228.0</ele><time>2026-04-24T11:36:15.393Z</time></trkpt><trkpt lat="30.975685" lon="-7.0942"><ele>1228.0</ele><time>2026-04-24T11:36:16.393Z</time></trkpt><trkpt lat="30.9757333" lon="-7.09435"><ele>1228.0</ele><time>2026-04-24T11:36:17.394Z</time></trkpt><trkpt lat="30.9757717" lon="-7.094515"><ele>1227.0</ele><time>2026-04-24T11:36:18.393Z</time></trkpt><trkpt lat="30.9758017" lon="-7.0946867"><ele>1226.0</ele><time>2026-04-24T11:36:19.393Z</time></trkpt><trkpt lat="30.9758167" lon="-7.0948633"><ele>1225.0</ele><time>2026-04-24T11:36:20.393Z</time></trkpt><trkpt lat="30.9758133" lon="-7.0950317"><ele>1224.0</ele><time>2026-04-24T11:36:21.393Z</time></trkpt><trkpt lat="30.9758033" lon="-7.0952033"><ele>1223.0</ele><time>2026-04-24T11:36:22.393Z</time></trkpt><trkpt lat="30.97578" lon="-7.0953767"><ele>1222.0</ele><time>2026-04-24T11:36:23.393Z</time></trkpt><trkpt lat="30.9757633" lon="-7.09555"><ele>1221.0</ele><time>2026-04-24T11:36:24.393Z</time></trkpt><trkpt lat="30.9757417" lon="-7.0957217"><ele>1220.0</ele><time>2026-04-24T11:36:25.393Z</time></trkpt><trkpt lat="30.9757217" lon="-7.095895"><ele>1219.0</ele><time>2026-04-24T11:36:26.393Z</time></trkpt><trkpt lat="30.975705" lon="-7.0960683"><ele>1218.0</ele><time>2026-04-24T11:36:27.393Z</time></trkpt><trkpt lat="30.97569" lon="-7.0962467"><ele>1217.0</ele><time>2026-04-24T11:36:28.393Z</time></trkpt><trkpt lat="30.9756767" lon="-7.09643"><ele>1216.5</ele><time>2026-04-24T11:36:29.393Z</time></trkpt><trkpt lat="30.975655" lon="-7.09661"><ele>1216.0</ele><time>2026-04-24T11:36:30.393Z</time></trkpt><trkpt lat="30.975635" lon="-7.0967817"><ele>1215.5</ele><time>2026-04-24T11:36:31.393Z</time></trkpt><trkpt lat="30.975615" lon="-7.0969467"><ele>1215.0</ele><time>2026-04-24T11:36:32.393Z</time></trkpt><trkpt lat="30.9756" lon="-7.09712"><ele>1215.0</ele><time>2026-04-24T11:36:33.393Z</time></trkpt><trkpt lat="30.9755883" lon="-7.09729"><ele>1215.0</ele><time>2026-04-24T11:36:34.393Z</time></trkpt><trkpt lat="30.9755683" lon="-7.0974533"><ele>1215.0</ele><time>2026-04-24T11:36:35.393Z</time></trkpt><trkpt lat="30.97555" lon="-7.097625"><ele>1215.0</ele><time>2026-04-24T11:36:36.393Z</time></trkpt><trkpt lat="30.9755333" lon="-7.0978017"><ele>1214.6666666666667</ele><time>2026-04-24T11:36:37.394Z</time></trkpt><trkpt lat="30.9755183" lon="-7.0979833"><ele>1214.3333333333335</ele><time>2026-04-24T11:36:38.393Z</time></trkpt><trkpt lat="30.9755033" lon="-7.0981633"><ele>1214.0</ele><time>2026-04-24T11:36:39.393Z</time></trkpt><trkpt lat="30.9754867" lon="-7.09834"><ele>1212.25</ele><time>2026-04-24T11:36:40.393Z</time></trkpt><trkpt lat="30.97547" lon="-7.0985183"><ele>1210.5</ele><time>2026-04-24T11:36:41.393Z</time></trkpt><trkpt lat="30.975455" lon="-7.0986933"><ele>1208.75</ele><time>2026-04-24T11:36:42.393Z</time></trkpt><trkpt lat="30.9754333" lon="-7.09886"><ele>1207.0</ele><time>2026-04-24T11:36:43.393Z</time></trkpt><trkpt lat="30.975415" lon="-7.0990283"><ele>1206.5</ele><time>2026-04-24T11:36:44.393Z</time></trkpt><trkpt lat="30.9753933" lon="-7.0991917"><ele>1206.0</ele><time>2026-04-24T11:36:45.393Z</time></trkpt><trkpt lat="30.975375" lon="-7.09936"><ele>1205.5</ele><time>2026-04-24T11:36:46.393Z</time></trkpt><trkpt lat="30.9753517" lon="-7.0995267"><ele>1205.0</ele><time>2026-04-24T11:36:47.393Z</time></trkpt><trkpt lat="30.9753317" lon="-7.0996933"><ele>1205.0</ele><time>2026-04-24T11:36:48.393Z</time></trkpt><trkpt lat="30.97531" lon="-7.0998567"><ele>1205.0</ele><time>2026-04-24T11:36:49.393Z</time></trkpt><trkpt lat="30.9752917" lon="-7.1000233"><ele>1205.0</ele><time>2026-04-24T11:36:50.393Z</time></trkpt><trkpt lat="30.9752783" lon="-7.1001917"><ele>1205.0</ele><time>2026-04-24T11:36:51.393Z</time></trkpt><trkpt lat="30.9752617" lon="-7.1003583"><ele>1205.0</ele><time>2026-04-24T11:36:52.393Z</time></trkpt><trkpt lat="30.9752483" lon="-7.100525"><ele>1205.0</ele><time>2026-04-24T11:36:53.393Z</time></trkpt><trkpt lat="30.975235" lon="-7.1006833"><ele>1205.0</ele><time>2026-04-24T11:36:54.393Z</time></trkpt><trkpt lat="30.97522" lon="-7.100835"><ele>1205.0</ele><time>2026-04-24T11:36:55.393Z</time></trkpt><trkpt lat="30.9751983" lon="-7.1009717"><ele>1205.0</ele><time>2026-04-24T11:36:56.393Z</time></trkpt><trkpt lat="30.97519" lon="-7.1010967"><ele>1205.0</ele><time>2026-04-24T11:36:57.393Z</time></trkpt><trkpt lat="30.9751783" lon="-7.101215"><ele>1205.0</ele><time>2026-04-24T11:36:58.393Z</time></trkpt><trkpt lat="30.9751683" lon="-7.1013233"><ele>1205.0</ele><time>2026-04-24T11:36:59.393Z</time></trkpt><trkpt lat="30.9751583" lon="-7.1014217"><ele>1205.0</ele><time>2026-04-24T11:37:00.393Z</time></trkpt><trkpt lat="30.9751433" lon="-7.1015133"><ele>1205.8</ele><time>2026-04-24T11:37:01.393Z</time></trkpt><trkpt lat="30.9751283" lon="-7.101595"><ele>1206.6</ele><time>2026-04-24T11:37:02.393Z</time></trkpt><trkpt lat="30.9751183" lon="-7.1016717"><ele>1207.4</ele><time>2026-04-24T11:37:03.393Z</time></trkpt><trkpt lat="30.9751067" lon="-7.1018083"><ele>1208.2</ele><time>2026-04-24T11:37:05.393Z</time></trkpt><trkpt lat="30.9750933" lon="-7.10193"><ele>1209.0</ele><time>2026-04-24T11:37:07.393Z</time></trkpt><trkpt lat="30.9750783" lon="-7.1020317"><ele>1209.0</ele><time>2026-04-24T11:37:09.393Z</time></trkpt><trkpt lat="30.975075" lon="-7.1021083"><ele>1209.0</ele><time>2026-04-24T11:37:11.393Z</time></trkpt><trkpt lat="30.9750667" lon="-7.1022067"><ele>1209.0</ele><time>2026-04-24T11:37:14.394Z</time></trkpt><trkpt lat="30.9750567" lon="-7.1022917"><ele>1209.0</ele><time>2026-04-24T11:37:17.393Z</time></trkpt><trkpt lat="30.9750417" lon="-7.1024133"><ele>1209.0</ele><time>2026-04-24T11:37:19.393Z</time></trkpt><trkpt lat="30.975035" lon="-7.102495"><ele>1209.0</ele><time>2026-04-24T11:37:20.393Z</time></trkpt><trkpt lat="30.9750283" lon="-7.102585"><ele>1209.2</ele><time>2026-04-24T11:37:21.393Z</time></trkpt><trkpt lat="30.9750217" lon="-7.1026817"><ele>1209.4</ele><time>2026-04-24T11:37:22.393Z</time></trkpt><trkpt lat="30.9750133" lon="-7.1027917"><ele>1209.6</ele><time>2026-04-24T11:37:23.393Z</time></trkpt><trkpt lat="30.975005" lon="-7.1029083"><ele>1209.8</ele><time>2026-04-24T11:37:24.393Z</time></trkpt><trkpt lat="30.9749967" lon="-7.1030367"><ele>1210.0</ele><time>2026-04-24T11:37:25.394Z</time></trkpt><trkpt lat="30.974985" lon="-7.1031733"><ele>1210.0</ele><time>2026-04-24T11:37:26.394Z</time></trkpt><trkpt lat="30.9749717" lon="-7.1033083"><ele>1210.0</ele><time>2026-04-24T11:37:27.393Z</time></trkpt><trkpt lat="30.9749533" lon="-7.103435"><ele>1210.0</ele><time>2026-04-24T11:37:28.393Z</time></trkpt><trkpt lat="30.9749467" lon="-7.1035517"><ele>1210.0</ele><time>2026-04-24T11:37:29.393Z</time></trkpt><trkpt lat="30.9749383" lon="-7.10366"><ele>1210.0</ele><time>2026-04-24T11:37:30.393Z</time></trkpt><trkpt lat="30.9749267" lon="-7.1037617"><ele>1210.0</ele><time>2026-04-24T11:37:31.393Z</time></trkpt><trkpt lat="30.9749233" lon="-7.1038633"><ele>1210.0</ele><time>2026-04-24T11:37:32.393Z</time></trkpt><trkpt lat="30.97493" lon="-7.103965"><ele>1210.0</ele><time>2026-04-24T11:37:33.393Z</time></trkpt><trkpt lat="30.9749583" lon="-7.1040667"><ele>1210.0</ele><time>2026-04-24T11:37:34.393Z</time></trkpt><trkpt lat="30.975005" lon="-7.10416"><ele>1210.0</ele><time>2026-04-24T11:37:35.393Z</time></trkpt><trkpt lat="30.9750733" lon="-7.1042367"><ele>1210.2</ele><time>2026-04-24T11:37:36.393Z</time></trkpt><trkpt lat="30.9751567" lon="-7.1043033"><ele>1210.4</ele><time>2026-04-24T11:37:37.393Z</time></trkpt><trkpt lat="30.97525" lon="-7.10435"><ele>1210.6</ele><time>2026-04-24T11:37:38.393Z</time></trkpt><trkpt lat="30.975345" lon="-7.10437"><ele>1210.8</ele><time>2026-04-24T11:37:39.393Z</time></trkpt><trkpt lat="30.975445" lon="-7.1043567"><ele>1211.0</ele><time>2026-04-24T11:37:40.393Z</time></trkpt><trkpt lat="30.9755417" lon="-7.104345"><ele>1211.0</ele><time>2026-04-24T11:37:41.393Z</time></trkpt><trkpt lat="30.9756467" lon="-7.10432"><ele>1211.0</ele><time>2026-04-24T11:37:42.393Z</time></trkpt><trkpt lat="30.9757483" lon="-7.1042983"><ele>1211.0</ele><time>2026-04-24T11:37:43.393Z</time></trkpt><trkpt lat="30.9758383" lon="-7.10428"><ele>1211.0</ele><time>2026-04-24T11:37:44.393Z</time></trkpt><trkpt lat="30.97592" lon="-7.1042667"><ele>1211.0</ele><time>2026-04-24T11:37:45.393Z</time></trkpt><trkpt lat="30.9760117" lon="-7.1042533"><ele>1211.2</ele><time>2026-04-24T11:37:46.393Z</time></trkpt><trkpt lat="30.9761033" lon="-7.1042433"><ele>1211.3999999999999</ele><time>2026-04-24T11:37:47.393Z</time></trkpt><trkpt lat="30.9761967" lon="-7.1042317"><ele>1211.6</ele><time>2026-04-24T11:37:48.393Z</time></trkpt><trkpt lat="30.9762917" lon="-7.10422"><ele>1211.8</ele><time>2026-04-24T11:37:49.393Z</time></trkpt><trkpt lat="30.9763983" lon="-7.10421"><ele>1212.0</ele><time>2026-04-24T11:37:50.393Z</time></trkpt><trkpt lat="30.9765033" lon="-7.1041983"><ele>1212.0</ele><time>2026-04-24T11:37:51.393Z</time></trkpt><trkpt lat="30.97661" lon="-7.1041867"><ele>1212.0</ele><time>2026-04-24T11:37:52.393Z</time></trkpt><trkpt lat="30.97672" lon="-7.1041717"><ele>1212.0</ele><time>2026-04-24T11:37:53.393Z</time></trkpt><trkpt lat="30.9768267" lon="-7.1041567"><ele>1212.0</ele><time>2026-04-24T11:37:54.393Z</time></trkpt><trkpt lat="30.976935" lon="-7.1041467"><ele>1212.0</ele><time>2026-04-24T11:37:55.393Z</time></trkpt><trkpt lat="30.9770367" lon="-7.104145"><ele>1212.4</ele><time>2026-04-24T11:37:56.393Z</time></trkpt><trkpt lat="30.9771417" lon="-7.1041283"><ele>1212.8000000000002</ele><time>2026-04-24T11:37:57.393Z</time></trkpt><trkpt lat="30.9772517" lon="-7.1041133"><ele>1213.2</ele><time>2026-04-24T11:37:58.393Z</time></trkpt><trkpt lat="30.9773583" lon="-7.1040933"><ele>1213.6000000000001</ele><time>2026-04-24T11:37:59.393Z</time></trkpt><trkpt lat="30.9774633" lon="-7.1040667"><ele>1214.0</ele><time>2026-04-24T11:38:00.393Z</time></trkpt><trkpt lat="30.9775733" lon="-7.1040417"><ele>1214.2</ele><time>2026-04-24T11:38:01.393Z</time></trkpt><trkpt lat="30.97768" lon="-7.1040183"><ele>1214.4</ele><time>2026-04-24T11:38:02.393Z</time></trkpt><trkpt lat="30.9777883" lon="-7.103995"><ele>1214.6</ele><time>2026-04-24T11:38:03.393Z</time></trkpt><trkpt lat="30.977895" lon="-7.1039667"><ele>1214.8</ele><time>2026-04-24T11:38:04.393Z</time></trkpt><trkpt lat="30.9779967" lon="-7.1039433"><ele>1215.0</ele><time>2026-04-24T11:38:05.393Z</time></trkpt><trkpt lat="30.9780917" lon="-7.1039233"><ele>1215.0</ele><time>2026-04-24T11:38:06.393Z</time></trkpt><trkpt lat="30.9781733" lon="-7.1039"><ele>1215.0</ele><time>2026-04-24T11:38:07.393Z</time></trkpt><trkpt lat="30.9782617" lon="-7.10387"><ele>1215.0</ele><time>2026-04-24T11:38:08.393Z</time></trkpt><trkpt lat="30.9783567" lon="-7.1038367"><ele>1215.0</ele><time>2026-04-24T11:38:09.393Z</time></trkpt><trkpt lat="30.9784483" lon="-7.1037867"><ele>1215.0</ele><time>2026-04-24T11:38:10.393Z</time></trkpt><trkpt lat="30.978545" lon="-7.1037467"><ele>1215.5</ele><time>2026-04-24T11:38:11.393Z</time></trkpt><trkpt lat="30.9786483" lon="-7.1037067"><ele>1216.0</ele><time>2026-04-24T11:38:12.393Z</time></trkpt><trkpt lat="30.978755" lon="-7.103665"><ele>1216.5</ele><time>2026-04-24T11:38:13.393Z</time></trkpt><trkpt lat="30.9788683" lon="-7.10362"><ele>1217.0</ele><time>2026-04-24T11:38:14.393Z</time></trkpt><trkpt lat="30.97899" lon="-7.1035783"><ele>1217.0</ele><time>2026-04-24T11:38:15.393Z</time></trkpt><trkpt lat="30.97912" lon="-7.1035467"><ele>1217.0</ele><time>2026-04-24T11:38:16.393Z</time></trkpt><trkpt lat="30.979255" lon="-7.1035333"><ele>1217.0</ele><time>2026-04-24T11:38:17.393Z</time></trkpt><trkpt lat="30.97939" lon="-7.1035317"><ele>1217.0</ele><time>2026-04-24T11:38:18.393Z</time></trkpt><trkpt lat="30.97952" lon="-7.103545"><ele>1216.25</ele><time>2026-04-24T11:38:19.393Z</time></trkpt><trkpt lat="30.97964" lon="-7.1035617"><ele>1215.5</ele><time>2026-04-24T11:38:20.393Z</time></trkpt><trkpt lat="30.979745" lon="-7.1035883"><ele>1214.75</ele><time>2026-04-24T11:38:21.393Z</time></trkpt><trkpt lat="30.9798483" lon="-7.1036317"><ele>1214.0</ele><time>2026-04-24T11:38:22.393Z</time></trkpt><trkpt lat="30.9799533" lon="-7.1036917"><ele>1213.75</ele><time>2026-04-24T11:38:23.394Z</time></trkpt><trkpt lat="30.9800517" lon="-7.10378"><ele>1213.5</ele><time>2026-04-24T11:38:24.393Z</time></trkpt><trkpt lat="30.9801617" lon="-7.1038817"><ele>1213.25</ele><time>2026-04-24T11:38:25.393Z</time></trkpt><trkpt lat="30.9802717" lon="-7.1039933"><ele>1213.0</ele><time>2026-04-24T11:38:26.393Z</time></trkpt><trkpt lat="30.9803833" lon="-7.10411"><ele>1213.0</ele><time>2026-04-24T11:38:27.393Z</time></trkpt><trkpt lat="30.9805017" lon="-7.1042333"><ele>1213.0</ele><time>2026-04-24T11:38:28.393Z</time></trkpt><trkpt lat="30.9806283" lon="-7.1043583"><ele>1213.0</ele><time>2026-04-24T11:38:29.393Z</time></trkpt><trkpt lat="30.980755" lon="-7.104495"><ele>1212.3333333333333</ele><time>2026-04-24T11:38:30.393Z</time></trkpt><trkpt lat="30.980885" lon="-7.10463"><ele>1211.6666666666667</ele><time>2026-04-24T11:38:31.393Z</time></trkpt><trkpt lat="30.9810217" lon="-7.104765"><ele>1211.0</ele><time>2026-04-24T11:38:32.393Z</time></trkpt><trkpt lat="30.98116" lon="-7.1048967"><ele>1212.3333333333335</ele><time>2026-04-24T11:38:33.393Z</time></trkpt><trkpt lat="30.9813067" lon="-7.1050233"><ele>1213.6666666666667</ele><time>2026-04-24T11:38:34.393Z</time></trkpt><trkpt lat="30.98146" lon="-7.1051533"><ele>1215.0</ele><time>2026-04-24T11:38:35.393Z</time></trkpt><trkpt lat="30.98161" lon="-7.105285"><ele>1214.3333333333333</ele><time>2026-04-24T11:38:36.393Z</time></trkpt><trkpt lat="30.9817617" lon="-7.1054117"><ele>1213.6666666666665</ele><time>2026-04-24T11:38:37.393Z</time></trkpt><trkpt lat="30.9819083" lon="-7.10553"><ele>1213.0</ele><time>2026-04-24T11:38:38.393Z</time></trkpt><trkpt lat="30.982075" lon="-7.1056383"><ele>1213.0</ele><time>2026-04-24T11:38:39.393Z</time></trkpt><trkpt lat="30.98226" lon="-7.1057233"><ele>1213.0</ele><time>2026-04-24T11:38:40.393Z</time></trkpt><trkpt lat="30.98246" lon="-7.10579"><ele>1213.0</ele><time>2026-04-24T11:38:41.393Z</time></trkpt><trkpt lat="30.9826683" lon="-7.1058533"><ele>1213.6666666666665</ele><time>2026-04-24T11:38:42.393Z</time></trkpt><trkpt lat="30.9828817" lon="-7.1059067"><ele>1214.3333333333333</ele><time>2026-04-24T11:38:43.393Z</time></trkpt><trkpt lat="30.9830833" lon="-7.105955"><ele>1215.0</ele><time>2026-04-24T11:38:44.393Z</time></trkpt><trkpt lat="30.9832833" lon="-7.1060033"><ele>1215.3333333333333</ele><time>2026-04-24T11:38:45.393Z</time></trkpt><trkpt lat="30.9834817" lon="-7.1060533"><ele>1215.6666666666665</ele><time>2026-04-24T11:38:46.393Z</time></trkpt><trkpt lat="30.9836867" lon="-7.1061117"><ele>1216.0</ele><time>2026-04-24T11:38:47.393Z</time></trkpt><trkpt lat="30.9838983" lon="-7.1061633"><ele>1216.0</ele><time>2026-04-24T11:38:48.393Z</time></trkpt><trkpt lat="30.9841117" lon="-7.10621"><ele>1216.0</ele><time>2026-04-24T11:38:49.394Z</time></trkpt><trkpt lat="30.9843317" lon="-7.1062383"><ele>1216.0</ele><time>2026-04-24T11:38:50.393Z</time></trkpt><trkpt lat="30.9845533" lon="-7.106245"><ele>1216.0</ele><time>2026-04-24T11:38:51.393Z</time></trkpt><trkpt lat="30.9847833" lon="-7.10623"><ele>1216.0</ele><time>2026-04-24T11:38:52.393Z</time></trkpt><trkpt lat="30.9850183" lon="-7.1061767"><ele>1216.0</ele><time>2026-04-24T11:38:53.393Z</time></trkpt><trkpt lat="30.9852533" lon="-7.1061067"><ele>1216.0</ele><time>2026-04-24T11:38:54.393Z</time></trkpt><trkpt lat="30.9854933" lon="-7.1060417"><ele>1216.0</ele><time>2026-04-24T11:38:55.393Z</time></trkpt><trkpt lat="30.9857283" lon="-7.105975"><ele>1216.0</ele><time>2026-04-24T11:38:56.393Z</time></trkpt><trkpt lat="30.9859617" lon="-7.1059083"><ele>1215.6666666666665</ele><time>2026-04-24T11:38:57.393Z</time></trkpt><trkpt lat="30.9861867" lon="-7.1058467"><ele>1215.3333333333333</ele><time>2026-04-24T11:38:58.393Z</time></trkpt><trkpt lat="30.9863983" lon="-7.1057883"><ele>1215.0</ele><time>2026-04-24T11:38:59.393Z</time></trkpt><trkpt lat="30.9866017" lon="-7.1057267"><ele>1217.3333333333333</ele><time>2026-04-24T11:39:00.393Z</time></trkpt><trkpt lat="30.9868067" lon="-7.1056617"><ele>1219.6666666666665</ele><time>2026-04-24T11:39:01.393Z</time></trkpt><trkpt lat="30.9870133" lon="-7.1055883"><ele>1222.0</ele><time>2026-04-24T11:39:02.393Z</time></trkpt><trkpt lat="30.98721" lon="-7.1054667"><ele>1222.0</ele><time>2026-04-24T11:39:03.393Z</time></trkpt><trkpt lat="30.9873967" lon="-7.1053417"><ele>1222.0</ele><time>2026-04-24T11:39:04.394Z</time></trkpt><trkpt lat="30.98757" lon="-7.1051833"><ele>1222.0</ele><time>2026-04-24T11:39:05.393Z</time></trkpt><trkpt lat="30.9877283" lon="-7.1050267"><ele>1219.3333333333333</ele><time>2026-04-24T11:39:06.393Z</time></trkpt><trkpt lat="30.987885" lon="-7.104895"><ele>1216.6666666666667</ele><time>2026-04-24T11:39:07.393Z</time></trkpt><trkpt lat="30.98805" lon="-7.1048017"><ele>1214.0</ele><time>2026-04-24T11:39:08.394Z</time></trkpt><trkpt lat="30.9882167" lon="-7.104745"><ele>1214.3333333333335</ele><time>2026-04-24T11:39:09.393Z</time></trkpt><trkpt lat="30.988405" lon="-7.10473"><ele>1214.6666666666667</ele><time>2026-04-24T11:39:10.393Z</time></trkpt><trkpt lat="30.9886033" lon="-7.1047533"><ele>1215.0</ele><time>2026-04-24T11:39:11.393Z</time></trkpt><trkpt lat="30.988815" lon="-7.1048033"><ele>1215.0</ele><time>2026-04-24T11:39:12.393Z</time></trkpt><trkpt lat="30.9890417" lon="-7.1048683"><ele>1215.0</ele><time>2026-04-24T11:39:13.393Z</time></trkpt><trkpt lat="30.9892683" lon="-7.1049433"><ele>1217.3333333333333</ele><time>2026-04-24T11:39:14.393Z</time></trkpt><trkpt lat="30.9894833" lon="-7.10501"><ele>1219.6666666666665</ele><time>2026-04-24T11:39:15.393Z</time></trkpt><trkpt lat="30.9896983" lon="-7.10508"><ele>1222.0</ele><time>2026-04-24T11:39:16.393Z</time></trkpt><trkpt lat="30.9899133" lon="-7.1051533"><ele>1220.6666666666665</ele><time>2026-04-24T11:39:17.393Z</time></trkpt><trkpt lat="30.99013" lon="-7.10523"><ele>1219.3333333333333</ele><time>2026-04-24T11:39:18.393Z</time></trkpt><trkpt lat="30.9903367" lon="-7.105315"><ele>1218.0</ele><time>2026-04-24T11:39:19.393Z</time></trkpt><trkpt lat="30.9905267" lon="-7.1054017"><ele>1218.0</ele><time>2026-04-24T11:39:20.393Z</time></trkpt><trkpt lat="30.9907117" lon="-7.1055117"><ele>1218.0</ele><time>2026-04-24T11:39:21.393Z</time></trkpt><trkpt lat="30.9908833" lon="-7.1056283"><ele>1218.0</ele><time>2026-04-24T11:39:22.393Z</time></trkpt><trkpt lat="30.991045" lon="-7.105755"><ele>1219.6666666666667</ele><time>2026-04-24T11:39:23.393Z</time></trkpt><trkpt lat="30.99119" lon="-7.10588"><ele>1221.3333333333335</ele><time>2026-04-24T11:39:24.393Z</time></trkpt><trkpt lat="30.9913267" lon="-7.1060033"><ele>1223.0</ele><time>2026-04-24T11:39:25.393Z</time></trkpt><trkpt lat="30.9914567" lon="-7.1061267"><ele>1223.0</ele><time>2026-04-24T11:39:26.393Z</time></trkpt><trkpt lat="30.9915917" lon="-7.10625"><ele>1223.0</ele><time>2026-04-24T11:39:27.393Z</time></trkpt><trkpt lat="30.9917217" lon="-7.10638"><ele>1223.0</ele><time>2026-04-24T11:39:28.393Z</time></trkpt><trkpt lat="30.991855" lon="-7.10651"><ele>1224.3333333333335</ele><time>2026-04-24T11:39:29.393Z</time></trkpt><trkpt lat="30.9919817" lon="-7.1066267"><ele>1225.6666666666667</ele><time>2026-04-24T11:39:30.393Z</time></trkpt><trkpt lat="30.99211" lon="-7.106735"><ele>1227.0</ele><time>2026-04-24T11:39:31.393Z</time></trkpt><trkpt lat="30.99224" lon="-7.1068417"><ele>1227.0</ele><time>2026-04-24T11:39:32.393Z</time></trkpt><trkpt lat="30.992385" lon="-7.1069267"><ele>1227.0</ele><time>2026-04-24T11:39:33.393Z</time></trkpt><trkpt lat="30.9925317" lon="-7.1070033"><ele>1227.0</ele><time>2026-04-24T11:39:34.393Z</time></trkpt><trkpt lat="30.9926933" lon="-7.1070617"><ele>1226.6666666666667</ele><time>2026-04-24T11:39:35.393Z</time></trkpt><trkpt lat="30.992865" lon="-7.1070983"><ele>1226.3333333333335</ele><time>2026-04-24T11:39:36.393Z</time></trkpt><trkpt lat="30.9930467" lon="-7.1071267"><ele>1226.0</ele><time>2026-04-24T11:39:37.393Z</time></trkpt><trkpt lat="30.993215" lon="-7.1071433"><ele>1226.0</ele><time>2026-04-24T11:39:38.393Z</time></trkpt><trkpt lat="30.993385" lon="-7.1071567"><ele>1226.0</ele><time>2026-04-24T11:39:39.393Z</time></trkpt><trkpt lat="30.9935533" lon="-7.10716"><ele>1226.0</ele><time>2026-04-24T11:39:40.393Z</time></trkpt><trkpt lat="30.9937283" lon="-7.1071583"><ele>1226.0</ele><time>2026-04-24T11:39:41.393Z</time></trkpt><trkpt lat="30.9939067" lon="-7.1071567"><ele>1226.0</ele><time>2026-04-24T11:39:42.393Z</time></trkpt><trkpt lat="30.9940833" lon="-7.1071583"><ele>1226.0</ele><time>2026-04-24T11:39:43.393Z</time></trkpt><trkpt lat="30.9942633" lon="-7.1071567"><ele>1226.3333333333335</ele><time>2026-04-24T11:39:44.393Z</time></trkpt><trkpt lat="30.99445" lon="-7.1071567"><ele>1226.6666666666667</ele><time>2026-04-24T11:39:45.393Z</time></trkpt><trkpt lat="30.9946383" lon="-7.1071567"><ele>1227.0</ele><time>2026-04-24T11:39:46.393Z</time></trkpt><trkpt lat="30.9948267" lon="-7.1071567"><ele>1227.0</ele><time>2026-04-24T11:39:47.393Z</time></trkpt><trkpt lat="30.9950117" lon="-7.107155"><ele>1227.0</ele><time>2026-04-24T11:39:48.393Z</time></trkpt><trkpt lat="30.99519" lon="-7.10715"><ele>1227.0</ele><time>2026-04-24T11:39:49.393Z</time></trkpt><trkpt lat="30.9953533" lon="-7.1071433"><ele>1227.0</ele><time>2026-04-24T11:39:50.393Z</time></trkpt><trkpt lat="30.99552" lon="-7.1071433"><ele>1227.0</ele><time>2026-04-24T11:39:51.393Z</time></trkpt><trkpt lat="30.995695" lon="-7.10714"><ele>1227.0</ele><time>2026-04-24T11:39:52.393Z</time></trkpt><trkpt lat="30.9958683" lon="-7.1071367"><ele>1227.0</ele><time>2026-04-24T11:39:53.393Z</time></trkpt><trkpt lat="30.996045" lon="-7.107135"><ele>1227.0</ele><time>2026-04-24T11:39:54.393Z</time></trkpt><trkpt lat="30.9962183" lon="-7.107135"><ele>1227.0</ele><time>2026-04-24T11:39:55.393Z</time></trkpt><trkpt lat="30.9963933" lon="-7.1071333"><ele>1227.0</ele><time>2026-04-24T11:39:56.393Z</time></trkpt><trkpt lat="30.9965683" lon="-7.10713"><ele>1227.0</ele><time>2026-04-24T11:39:57.393Z</time></trkpt><trkpt lat="30.9967417" lon="-7.1071333"><ele>1227.0</ele><time>2026-04-24T11:39:58.393Z</time></trkpt><trkpt lat="30.996915" lon="-7.1071333"><ele>1226.3333333333333</ele><time>2026-04-24T11:39:59.393Z</time></trkpt><trkpt lat="30.9970917" lon="-7.1071283"><ele>1225.6666666666665</ele><time>2026-04-24T11:40:00.393Z</time></trkpt><trkpt lat="30.997265" lon="-7.1071183"><ele>1225.0</ele><time>2026-04-24T11:40:01.393Z</time></trkpt><trkpt lat="30.99744" lon="-7.1070917"><ele>1226.0</ele><time>2026-04-24T11:40:02.393Z</time></trkpt><trkpt lat="30.99762" lon="-7.1070617"><ele>1227.0</ele><time>2026-04-24T11:40:03.393Z</time></trkpt><trkpt lat="30.997795" lon="-7.10702"><ele>1228.0</ele><time>2026-04-24T11:40:04.393Z</time></trkpt><trkpt lat="30.99797" lon="-7.1069633"><ele>1228.0</ele><time>2026-04-24T11:40:05.393Z</time></trkpt><trkpt lat="30.9981383" lon="-7.1068983"><ele>1228.0</ele><time>2026-04-24T11:40:06.393Z</time></trkpt><trkpt lat="30.9983033" lon="-7.10681"><ele>1228.0</ele><time>2026-04-24T11:40:07.393Z</time></trkpt><trkpt lat="30.9984583" lon="-7.1067067"><ele>1228.0</ele><time>2026-04-24T11:40:08.393Z</time></trkpt><trkpt lat="30.9986067" lon="-7.1065933"><ele>1228.0</ele><time>2026-04-24T11:40:09.392Z</time></trkpt><trkpt lat="30.99876" lon="-7.10647"><ele>1228.0</ele><time>2026-04-24T11:40:10.393Z</time></trkpt><trkpt lat="30.99891" lon="-7.1063383"><ele>1227.6666666666665</ele><time>2026-04-24T11:40:11.392Z</time></trkpt><trkpt lat="30.999055" lon="-7.10621"><ele>1227.3333333333333</ele><time>2026-04-24T11:40:12.392Z</time></trkpt><trkpt lat="30.9991933" lon="-7.1060767"><ele>1227.0</ele><time>2026-04-24T11:40:13.392Z</time></trkpt><trkpt lat="30.9993317" lon="-7.1059433"><ele>1227.0</ele><time>2026-04-24T11:40:14.392Z</time></trkpt><trkpt lat="30.9994667" lon="-7.1058017"><ele>1227.0</ele><time>2026-04-24T11:40:15.392Z</time></trkpt><trkpt lat="30.99961" lon="-7.105665"><ele>1227.0</ele><time>2026-04-24T11:40:16.392Z</time></trkpt><trkpt lat="30.9997533" lon="-7.1055317"><ele>1228.0</ele><time>2026-04-24T11:40:17.392Z</time></trkpt><trkpt lat="30.9999" lon="-7.105405"><ele>1229.0</ele><time>2026-04-24T11:40:18.392Z</time></trkpt><trkpt lat="31.00005" lon="-7.1052817"><ele>1230.0</ele><time>2026-04-24T11:40:19.392Z</time></trkpt><trkpt lat="31.0002083" lon="-7.1051633"><ele>1230.0</ele><time>2026-04-24T11:40:20.392Z</time></trkpt><trkpt lat="31.000375" lon="-7.1050533"><ele>1230.0</ele><time>2026-04-24T11:40:21.392Z</time></trkpt><trkpt lat="31.0005433" lon="-7.104955"><ele>1230.0</ele><time>2026-04-24T11:40:22.392Z</time></trkpt><trkpt lat="31.0007167" lon="-7.1048667"><ele>1229.0</ele><time>2026-04-24T11:40:23.392Z</time></trkpt><trkpt lat="31.0008883" lon="-7.1047883"><ele>1228.0</ele><time>2026-04-24T11:40:24.392Z</time></trkpt><trkpt lat="31.0010633" lon="-7.1047183"><ele>1227.0</ele><time>2026-04-24T11:40:25.392Z</time></trkpt><trkpt lat="31.0012417" lon="-7.1046633"><ele>1227.0</ele><time>2026-04-24T11:40:26.392Z</time></trkpt><trkpt lat="31.0014233" lon="-7.1046217"><ele>1227.0</ele><time>2026-04-24T11:40:27.392Z</time></trkpt><trkpt lat="31.0016083" lon="-7.104585"><ele>1227.0</ele><time>2026-04-24T11:40:28.392Z</time></trkpt><trkpt lat="31.0017917" lon="-7.1045583"><ele>1227.0</ele><time>2026-04-24T11:40:29.392Z</time></trkpt><trkpt lat="31.00198" lon="-7.1045433"><ele>1227.0</ele><time>2026-04-24T11:40:30.392Z</time></trkpt><trkpt lat="31.002175" lon="-7.1045383"><ele>1227.0</ele><time>2026-04-24T11:40:31.392Z</time></trkpt><trkpt lat="31.0023767" lon="-7.1045383"><ele>1227.0</ele><time>2026-04-24T11:40:32.392Z</time></trkpt><trkpt lat="31.002575" lon="-7.10454"><ele>1227.0</ele><time>2026-04-24T11:40:33.392Z</time></trkpt><trkpt lat="31.0027817" lon="-7.104545"><ele>1227.0</ele><time>2026-04-24T11:40:34.392Z</time></trkpt><trkpt lat="31.002995" lon="-7.1045467"><ele>1227.0</ele><time>2026-04-24T11:40:35.392Z</time></trkpt><trkpt lat="31.0032117" lon="-7.10455"><ele>1227.0</ele><time>2026-04-24T11:40:36.392Z</time></trkpt><trkpt lat="31.00343" lon="-7.104555"><ele>1227.0</ele><time>2026-04-24T11:40:37.392Z</time></trkpt><trkpt lat="31.003655" lon="-7.1045533"><ele>1227.0</ele><time>2026-04-24T11:40:38.392Z</time></trkpt><trkpt lat="31.00389" lon="-7.1045367"><ele>1227.0</ele><time>2026-04-24T11:40:39.392Z</time></trkpt><trkpt lat="31.0041333" lon="-7.1045033"><ele>1229.5</ele><time>2026-04-24T11:40:40.392Z</time></trkpt><trkpt lat="31.00438" lon="-7.10446"><ele>1232.0</ele><time>2026-04-24T11:40:41.392Z</time></trkpt><trkpt lat="31.0046283" lon="-7.1044083"><ele>1232.0</ele><time>2026-04-24T11:40:42.392Z</time></trkpt><trkpt lat="31.00487" lon="-7.1043483"><ele>1232.0</ele><time>2026-04-24T11:40:43.392Z</time></trkpt><trkpt lat="31.0050983" lon="-7.10427"><ele>1233.5</ele><time>2026-04-24T11:40:44.392Z</time></trkpt><trkpt lat="31.0053267" lon="-7.104175"><ele>1235.0</ele><time>2026-04-24T11:40:45.392Z</time></trkpt><trkpt lat="31.0055483" lon="-7.1040683"><ele>1232.0</ele><time>2026-04-24T11:40:46.392Z</time></trkpt><trkpt lat="31.0057733" lon="-7.1039583"><ele>1229.0</ele><time>2026-04-24T11:40:47.392Z</time></trkpt><trkpt lat="31.0059933" lon="-7.1038467"><ele>1229.0</ele><time>2026-04-24T11:40:48.392Z</time></trkpt><trkpt lat="31.0062117" lon="-7.10374"><ele>1229.0</ele><time>2026-04-24T11:40:49.392Z</time></trkpt><trkpt lat="31.0064333" lon="-7.10363"><ele>1229.0</ele><time>2026-04-24T11:40:50.392Z</time></trkpt><trkpt lat="31.0066383" lon="-7.1035217"><ele>1229.0</ele><time>2026-04-24T11:40:51.392Z</time></trkpt><trkpt lat="31.0068317" lon="-7.1034117"><ele>1229.0</ele><time>2026-04-24T11:40:52.392Z</time></trkpt><trkpt lat="31.007025" lon="-7.1033133"><ele>1230.3333333333335</ele><time>2026-04-24T11:40:53.393Z</time></trkpt><trkpt lat="31.007225" lon="-7.1032133"><ele>1231.6666666666667</ele><time>2026-04-24T11:40:54.392Z</time></trkpt><trkpt lat="31.00743" lon="-7.1031167"><ele>1233.0</ele><time>2026-04-24T11:40:55.392Z</time></trkpt><trkpt lat="31.0076417" lon="-7.1030133"><ele>1234.5</ele><time>2026-04-24T11:40:56.392Z</time></trkpt><trkpt lat="31.007855" lon="-7.1029117"><ele>1236.0</ele><time>2026-04-24T11:40:57.392Z</time></trkpt><trkpt lat="31.0080683" lon="-7.10281"><ele>1236.0</ele><time>2026-04-24T11:40:58.392Z</time></trkpt><trkpt lat="31.0082817" lon="-7.102705"><ele>1236.0</ele><time>2026-04-24T11:40:59.392Z</time></trkpt><trkpt lat="31.0084833" lon="-7.1026033"><ele>1234.6666666666667</ele><time>2026-04-24T11:41:00.392Z</time></trkpt><trkpt lat="31.00867" lon="-7.1025133"><ele>1233.3333333333335</ele><time>2026-04-24T11:41:01.392Z</time></trkpt><trkpt lat="31.0088467" lon="-7.1024283"><ele>1232.0</ele><time>2026-04-24T11:41:02.392Z</time></trkpt><trkpt lat="31.00902" lon="-7.1023467"><ele>1234.0</ele><time>2026-04-24T11:41:03.392Z</time></trkpt><trkpt lat="31.0091883" lon="-7.1022833"><ele>1236.0</ele><time>2026-04-24T11:41:04.392Z</time></trkpt><trkpt lat="31.0093617" lon="-7.1022283"><ele>1238.0</ele><time>2026-04-24T11:41:05.392Z</time></trkpt><trkpt lat="31.00954" lon="-7.1021867"><ele>1238.0</ele><time>2026-04-24T11:41:06.392Z</time></trkpt><trkpt lat="31.0097283" lon="-7.1021583"><ele>1238.0</ele><time>2026-04-24T11:41:07.393Z</time></trkpt><trkpt lat="31.00992" lon="-7.1021317"><ele>1238.0</ele><time>2026-04-24T11:41:08.392Z</time></trkpt><trkpt lat="31.010115" lon="-7.1021167"><ele>1240.6666666666667</ele><time>2026-04-24T11:41:09.392Z</time></trkpt><trkpt lat="31.01031" lon="-7.1021033"><ele>1243.3333333333333</ele><time>2026-04-24T11:41:10.392Z</time></trkpt><trkpt lat="31.01051" lon="-7.1020967"><ele>1246.0</ele><time>2026-04-24T11:41:11.392Z</time></trkpt><trkpt lat="31.0107083" lon="-7.1021083"><ele>1247.6666666666665</ele><time>2026-04-24T11:41:12.392Z</time></trkpt><trkpt lat="31.0109067" lon="-7.1021267"><ele>1249.3333333333333</ele><time>2026-04-24T11:41:13.392Z</time></trkpt><trkpt lat="31.0111033" lon="-7.102155"><ele>1251.0</ele><time>2026-04-24T11:41:14.392Z</time></trkpt><trkpt lat="31.011295" lon="-7.1021967"><ele>1251.0</ele><time>2026-04-24T11:41:15.392Z</time></trkpt><trkpt lat="31.0114867" lon="-7.1022483"><ele>1251.0</ele><time>2026-04-24T11:41:16.392Z</time></trkpt><trkpt lat="31.0116783" lon="-7.1023083"><ele>1251.0</ele><time>2026-04-24T11:41:17.392Z</time></trkpt><trkpt lat="31.0118667" lon="-7.1023817"><ele>1251.0</ele><time>2026-04-24T11:41:18.392Z</time></trkpt><trkpt lat="31.012055" lon="-7.10246"><ele>1251.0</ele><time>2026-04-24T11:41:19.392Z</time></trkpt><trkpt lat="31.0122267" lon="-7.1025467"><ele>1251.0</ele><time>2026-04-24T11:41:20.392Z</time></trkpt><trkpt lat="31.0123917" lon="-7.1026433"><ele>1251.3333333333333</ele><time>2026-04-24T11:41:21.392Z</time></trkpt><trkpt lat="31.0125583" lon="-7.1027483"><ele>1251.6666666666665</ele><time>2026-04-24T11:41:22.392Z</time></trkpt><trkpt lat="31.01272" lon="-7.1028633"><ele>1252.0</ele><time>2026-04-24T11:41:23.392Z</time></trkpt><trkpt lat="31.01288" lon="-7.1029883"><ele>1252.0</ele><time>2026-04-24T11:41:24.392Z</time></trkpt><trkpt lat="31.0130383" lon="-7.103125"><ele>1252.0</ele><time>2026-04-24T11:41:25.392Z</time></trkpt><trkpt lat="31.013195" lon="-7.1032683"><ele>1252.0</ele><time>2026-04-24T11:41:26.392Z</time></trkpt><trkpt lat="31.0133567" lon="-7.1034217"><ele>1251.0</ele><time>2026-04-24T11:41:27.392Z</time></trkpt><trkpt lat="31.0135167" lon="-7.10358"><ele>1250.0</ele><time>2026-04-24T11:41:28.392Z</time></trkpt><trkpt lat="31.0136733" lon="-7.1037333"><ele>1249.0</ele><time>2026-04-24T11:41:29.393Z</time></trkpt><trkpt lat="31.0138233" lon="-7.10389"><ele>1249.0</ele><time>2026-04-24T11:41:30.392Z</time></trkpt><trkpt lat="31.01397" lon="-7.1040317"><ele>1249.0</ele><time>2026-04-24T11:41:31.393Z</time></trkpt><trkpt lat="31.0141067" lon="-7.10417"><ele>1249.0</ele><time>2026-04-24T11:41:32.392Z</time></trkpt><trkpt lat="31.0142433" lon="-7.104305"><ele>1249.6666666666665</ele><time>2026-04-24T11:41:33.392Z</time></trkpt><trkpt lat="31.014385" lon="-7.10444"><ele>1250.3333333333333</ele><time>2026-04-24T11:41:34.392Z</time></trkpt><trkpt lat="31.014525" lon="-7.1045783"><ele>1251.0</ele><time>2026-04-24T11:41:35.392Z</time></trkpt><trkpt lat="31.014665" lon="-7.1047217"><ele>1251.0</ele><time>2026-04-24T11:41:36.392Z</time></trkpt><trkpt lat="31.0148067" lon="-7.1048633"><ele>1251.0</ele><time>2026-04-24T11:41:37.392Z</time></trkpt><trkpt lat="31.01495" lon="-7.1050083"><ele>1251.0</ele><time>2026-04-24T11:41:38.392Z</time></trkpt><trkpt lat="31.01509" lon="-7.1051583"><ele>1251.3333333333333</ele><time>2026-04-24T11:41:39.392Z</time></trkpt><trkpt lat="31.01523" lon="-7.1053183"><ele>1251.6666666666665</ele><time>2026-04-24T11:41:40.392Z</time></trkpt><trkpt lat="31.0153617" lon="-7.1054883"><ele>1252.0</ele><time>2026-04-24T11:41:41.392Z</time></trkpt><trkpt lat="31.0154733" lon="-7.1056517"><ele>1252.6666666666665</ele><time>2026-04-24T11:41:42.392Z</time></trkpt><trkpt lat="31.0155817" lon="-7.1058067"><ele>1253.3333333333333</ele><time>2026-04-24T11:41:43.392Z</time></trkpt><trkpt lat="31.0156683" lon="-7.1059633"><ele>1254.0</ele><time>2026-04-24T11:41:44.392Z</time></trkpt><trkpt lat="31.0157383" lon="-7.1061133"><ele>1254.0</ele><time>2026-04-24T11:41:45.392Z</time></trkpt><trkpt lat="31.0158017" lon="-7.1062533"><ele>1254.0</ele><time>2026-04-24T11:41:46.392Z</time></trkpt><trkpt lat="31.015855" lon="-7.1063883"><ele>1254.0</ele><time>2026-04-24T11:41:47.392Z</time></trkpt><trkpt lat="31.0159067" lon="-7.106515"><ele>1254.0</ele><time>2026-04-24T11:41:48.392Z</time></trkpt><trkpt lat="31.0159517" lon="-7.1066367"><ele>1253.8</ele><time>2026-04-24T11:41:49.392Z</time></trkpt><trkpt lat="31.0159933" lon="-7.1067633"><ele>1253.6000000000001</ele><time>2026-04-24T11:41:50.392Z</time></trkpt><trkpt lat="31.016035" lon="-7.1068817"><ele>1253.4</ele><time>2026-04-24T11:41:51.392Z</time></trkpt><trkpt lat="31.016075" lon="-7.106995"><ele>1253.2</ele><time>2026-04-24T11:41:52.392Z</time></trkpt><trkpt lat="31.0161117" lon="-7.1071"><ele>1253.0</ele><time>2026-04-24T11:41:53.392Z</time></trkpt><trkpt lat="31.0161483" lon="-7.1072017"><ele>1253.0</ele><time>2026-04-24T11:41:54.392Z</time></trkpt><trkpt lat="31.0161817" lon="-7.1072917"><ele>1253.0</ele><time>2026-04-24T11:41:55.392Z</time></trkpt><trkpt lat="31.016215" lon="-7.1073767"><ele>1253.0</ele><time>2026-04-24T11:41:56.392Z</time></trkpt><trkpt lat="31.01625" lon="-7.1074633"><ele>1253.0</ele><time>2026-04-24T11:41:57.392Z</time></trkpt><trkpt lat="31.0162817" lon="-7.1075467"><ele>1253.0</ele><time>2026-04-24T11:41:58.392Z</time></trkpt><trkpt lat="31.01631" lon="-7.1076233"><ele>1253.0</ele><time>2026-04-24T11:41:59.392Z</time></trkpt><trkpt lat="31.0163333" lon="-7.1077"><ele>1253.1666666666667</ele><time>2026-04-24T11:42:00.392Z</time></trkpt><trkpt lat="31.0163583" lon="-7.10777"><ele>1253.3333333333335</ele><time>2026-04-24T11:42:01.392Z</time></trkpt><trkpt lat="31.016385" lon="-7.10784"><ele>1253.5</ele><time>2026-04-24T11:42:02.392Z</time></trkpt><trkpt lat="31.01643" lon="-7.10795"><ele>1253.6666666666667</ele><time>2026-04-24T11:42:04.392Z</time></trkpt><trkpt lat="31.016475" lon="-7.1080467"><ele>1253.8333333333333</ele><time>2026-04-24T11:42:06.392Z</time></trkpt><trkpt lat="31.016505" lon="-7.1081167"><ele>1254.0</ele><time>2026-04-24T11:42:08.392Z</time></trkpt><trkpt lat="31.0164733" lon="-7.1080383"><ele>1254.0</ele><time>2026-04-24T11:48:35.391Z</time></trkpt><trkpt lat="31.01644" lon="-7.1079617"><ele>1254.0</ele><time>2026-04-24T11:48:40.391Z</time></trkpt><trkpt lat="31.0164133" lon="-7.1078817"><ele>1254.0</ele><time>2026-04-24T11:48:46.391Z</time></trkpt><trkpt lat="31.01639" lon="-7.1078067"><ele>1254.0</ele><time>2026-04-24T11:48:52.391Z</time></trkpt><trkpt lat="31.016395" lon="-7.1077333"><ele>1254.0</ele><time>2026-04-24T11:48:56.391Z</time></trkpt><trkpt lat="31.0163867" lon="-7.1076533"><ele>1254.0</ele><time>2026-04-24T11:49:03.391Z</time></trkpt><trkpt lat="31.0163933" lon="-7.1075767"><ele>1254.0</ele><time>2026-04-24T11:49:08.391Z</time></trkpt><trkpt lat="31.0164083" lon="-7.1074983"><ele>1254.0</ele><time>2026-04-24T11:49:14.391Z</time></trkpt><trkpt lat="31.0164783" lon="-7.107415"><ele>1254.0</ele><time>2026-04-24T12:43:07.382Z</time></trkpt></trkseg><trkseg><trkpt lat="31.04275" lon="-7.129715"><ele>1276.0</ele><time>2026-04-24T15:57:25.423Z</time></trkpt><trkpt lat="31.042715" lon="-7.1296483"><ele>1276.0</ele><time>2026-04-24T15:57:28.423Z</time></trkpt><trkpt lat="31.042635" lon="-7.1296517"><ele>1276.0</ele><time>2026-04-24T15:57:43.423Z</time></trkpt><trkpt lat="31.0425867" lon="-7.1297133"><ele>1276.0</ele><time>2026-04-24T15:57:46.423Z</time></trkpt><trkpt lat="31.0425567" lon="-7.1297833"><ele>1276.0</ele><time>2026-04-24T15:57:50.423Z</time></trkpt><trkpt lat="31.042535" lon="-7.12986"><ele>1276.0</ele><time>2026-04-24T15:58:10.423Z</time></trkpt><trkpt lat="31.042495" lon="-7.1299333"><ele>1276.0</ele><time>2026-04-24T15:58:12.423Z</time></trkpt><trkpt lat="31.04245" lon="-7.1300067"><ele>1276.0</ele><time>2026-04-24T15:58:15.423Z</time></trkpt><trkpt lat="31.0423983" lon="-7.1300533"><ele>1276.0</ele><time>2026-04-24T15:58:18.423Z</time></trkpt><trkpt lat="31.042325" lon="-7.1300017"><ele>1276.0</ele><time>2026-04-24T15:58:21.423Z</time></trkpt><trkpt lat="31.0422783" lon="-7.1299183"><ele>1276.0</ele><time>2026-04-24T15:58:23.423Z</time></trkpt><trkpt lat="31.042215" lon="-7.1298183"><ele>1276.0</ele><time>2026-04-24T15:58:25.423Z</time></trkpt><trkpt lat="31.04214" lon="-7.1297333"><ele>1276.0</ele><time>2026-04-24T15:58:27.423Z</time></trkpt><trkpt lat="31.0420667" lon="-7.12964"><ele>1276.0</ele><time>2026-04-24T15:58:29.423Z</time></trkpt><trkpt lat="31.0420017" lon="-7.129555"><ele>1276.0</ele><time>2026-04-24T15:58:31.423Z</time></trkpt><trkpt lat="31.0419383" lon="-7.1294783"><ele>1276.0</ele><time>2026-04-24T15:58:33.423Z</time></trkpt><trkpt lat="31.041875" lon="-7.1293867"><ele>1276.0</ele><time>2026-04-24T15:58:35.423Z</time></trkpt><trkpt lat="31.0417967" lon="-7.1292717"><ele>1276.0</ele><time>2026-04-24T15:58:37.423Z</time></trkpt><trkpt lat="31.041745" lon="-7.1292117"><ele>1276.0</ele><time>2026-04-24T15:58:38.423Z</time></trkpt><trkpt lat="31.0416883" lon="-7.1291517"><ele>1276.0</ele><time>2026-04-24T15:58:39.423Z</time></trkpt><trkpt lat="31.0416317" lon="-7.129085"><ele>1276.0</ele><time>2026-04-24T15:58:40.423Z</time></trkpt><trkpt lat="31.0415767" lon="-7.1290183"><ele>1276.0</ele><time>2026-04-24T15:58:41.423Z</time></trkpt><trkpt lat="31.0415217" lon="-7.1289567"><ele>1276.0</ele><time>2026-04-24T15:58:42.423Z</time></trkpt><trkpt lat="31.041465" lon="-7.12891"><ele>1276.0</ele><time>2026-04-24T15:58:43.424Z</time></trkpt><trkpt lat="31.0414167" lon="-7.128855"><ele>1276.0</ele><time>2026-04-24T15:58:44.423Z</time></trkpt><trkpt lat="31.041365" lon="-7.1287967"><ele>1276.3333333333333</ele><time>2026-04-24T15:58:45.423Z</time></trkpt><trkpt lat="31.0413183" lon="-7.1287283"><ele>1276.6666666666665</ele><time>2026-04-24T15:58:46.423Z</time></trkpt><trkpt lat="31.0412683" lon="-7.1286617"><ele>1277.0</ele><time>2026-04-24T15:58:47.423Z</time></trkpt><trkpt lat="31.0412167" lon="-7.1285983"><ele>1277.3333333333333</ele><time>2026-04-24T15:58:48.423Z</time></trkpt><trkpt lat="31.0411667" lon="-7.1285317"><ele>1277.6666666666667</ele><time>2026-04-24T15:58:49.423Z</time></trkpt><trkpt lat="31.041105" lon="-7.128465"><ele>1278.0</ele><time>2026-04-24T15:58:50.423Z</time></trkpt><trkpt lat="31.0410467" lon="-7.1283867"><ele>1278.0</ele><time>2026-04-24T15:58:51.423Z</time></trkpt><trkpt lat="31.040985" lon="-7.1283067"><ele>1278.0</ele><time>2026-04-24T15:58:52.423Z</time></trkpt><trkpt lat="31.0409217" lon="-7.1282233"><ele>1278.0</ele><time>2026-04-24T15:58:53.423Z</time></trkpt><trkpt lat="31.0408583" lon="-7.12814"><ele>1278.0</ele><time>2026-04-24T15:58:54.423Z</time></trkpt><trkpt lat="31.0407933" lon="-7.1280517"><ele>1278.0</ele><time>2026-04-24T15:58:55.423Z</time></trkpt><trkpt lat="31.0407283" lon="-7.1279567"><ele>1282.5</ele><time>2026-04-24T15:58:56.423Z</time></trkpt><trkpt lat="31.0406533" lon="-7.12786"><ele>1287.0</ele><time>2026-04-24T15:58:57.424Z</time></trkpt><trkpt lat="31.0405767" lon="-7.127755"><ele>1291.5</ele><time>2026-04-24T15:58:58.423Z</time></trkpt><trkpt lat="31.0405" lon="-7.1276467"><ele>1296.0</ele><time>2026-04-24T15:58:59.423Z</time></trkpt><trkpt lat="31.040425" lon="-7.1275333"><ele>1296.0</ele><time>2026-04-24T15:59:00.423Z</time></trkpt><trkpt lat="31.04035" lon="-7.1274167"><ele>1296.0</ele><time>2026-04-24T15:59:01.423Z</time></trkpt><trkpt lat="31.0402733" lon="-7.1273"><ele>1296.0</ele><time>2026-04-24T15:59:02.423Z</time></trkpt><trkpt lat="31.0401983" lon="-7.1271917"><ele>1296.0</ele><time>2026-04-24T15:59:03.423Z</time></trkpt><trkpt lat="31.04012" lon="-7.1270883"><ele>1295.25</ele><time>2026-04-24T15:59:04.423Z</time></trkpt><trkpt lat="31.0400433" lon="-7.1269833"><ele>1294.5</ele><time>2026-04-24T15:59:05.423Z</time></trkpt><trkpt lat="31.0399717" lon="-7.12687"><ele>1293.75</ele><time>2026-04-24T15:59:06.423Z</time></trkpt><trkpt lat="31.0399017" lon="-7.1267567"><ele>1293.0</ele><time>2026-04-24T15:59:07.423Z</time></trkpt><trkpt lat="31.0398317" lon="-7.126645"><ele>1290.25</ele><time>2026-04-24T15:59:08.423Z</time></trkpt><trkpt lat="31.0397633" lon="-7.12653"><ele>1287.5</ele><time>2026-04-24T15:59:09.423Z</time></trkpt><trkpt lat="31.0396917" lon="-7.1264167"><ele>1284.75</ele><time>2026-04-24T15:59:10.423Z</time></trkpt><trkpt lat="31.0396317" lon="-7.1263"><ele>1282.0</ele><time>2026-04-24T15:59:11.423Z</time></trkpt><trkpt lat="31.0395733" lon="-7.1261917"><ele>1282.0</ele><time>2026-04-24T15:59:12.423Z</time></trkpt><trkpt lat="31.0395083" lon="-7.126085"><ele>1282.0</ele><time>2026-04-24T15:59:13.423Z</time></trkpt><trkpt lat="31.0394367" lon="-7.12597"><ele>1282.0</ele><time>2026-04-24T15:59:14.423Z</time></trkpt><trkpt lat="31.039375" lon="-7.1258567"><ele>1282.0</ele><time>2026-04-24T15:59:15.423Z</time></trkpt><trkpt lat="31.0393" lon="-7.1257417"><ele>1281.0</ele><time>2026-04-24T15:59:16.423Z</time></trkpt><trkpt lat="31.0392183" lon="-7.1256283"><ele>1280.0</ele><time>2026-04-24T15:59:17.423Z</time></trkpt><trkpt lat="31.0391283" lon="-7.1255117"><ele>1279.0</ele><time>2026-04-24T15:59:18.423Z</time></trkpt><trkpt lat="31.0390217" lon="-7.1253983"><ele>1278.0</ele><time>2026-04-24T15:59:19.423Z</time></trkpt><trkpt lat="31.038905" lon="-7.1252933"><ele>1277.3333333333333</ele><time>2026-04-24T15:59:20.423Z</time></trkpt><trkpt lat="31.0387817" lon="-7.1251883"><ele>1276.6666666666665</ele><time>2026-04-24T15:59:21.423Z</time></trkpt><trkpt lat="31.03865" lon="-7.125085"><ele>1276.0</ele><time>2026-04-24T15:59:22.423Z</time></trkpt><trkpt lat="31.0385083" lon="-7.1249917"><ele>1276.0</ele><time>2026-04-24T15:59:23.423Z</time></trkpt><trkpt lat="31.038355" lon="-7.1249017"><ele>1276.0</ele><time>2026-04-24T15:59:24.423Z</time></trkpt><trkpt lat="31.0382017" lon="-7.1248167"><ele>1276.0</ele><time>2026-04-24T15:59:25.423Z</time></trkpt><trkpt lat="31.0380467" lon="-7.124735"><ele>1275.0</ele><time>2026-04-24T15:59:26.423Z</time></trkpt><trkpt lat="31.0378983" lon="-7.12466"><ele>1274.0</ele><time>2026-04-24T15:59:27.423Z</time></trkpt><trkpt lat="31.03774" lon="-7.1245917"><ele>1273.0</ele><time>2026-04-24T15:59:28.423Z</time></trkpt><trkpt lat="31.0375917" lon="-7.1245133"><ele>1272.0</ele><time>2026-04-24T15:59:29.423Z</time></trkpt><trkpt lat="31.03744" lon="-7.1244367"><ele>1271.0</ele><time>2026-04-24T15:59:30.423Z</time></trkpt><trkpt lat="31.03729" lon="-7.1243567"><ele>1270.0</ele><time>2026-04-24T15:59:31.423Z</time></trkpt><trkpt lat="31.037145" lon="-7.12428"><ele>1270.0</ele><time>2026-04-24T15:59:32.423Z</time></trkpt><trkpt lat="31.0370017" lon="-7.1242017"><ele>1270.0</ele><time>2026-04-24T15:59:33.423Z</time></trkpt><trkpt lat="31.036855" lon="-7.12413"><ele>1270.0</ele><time>2026-04-24T15:59:34.423Z</time></trkpt><trkpt lat="31.0367017" lon="-7.1240617"><ele>1270.3333333333333</ele><time>2026-04-24T15:59:35.423Z</time></trkpt><trkpt lat="31.036545" lon="-7.1239933"><ele>1270.6666666666667</ele><time>2026-04-24T15:59:36.423Z</time></trkpt><trkpt lat="31.036395" lon="-7.1239183"><ele>1271.0</ele><time>2026-04-24T15:59:37.423Z</time></trkpt><trkpt lat="31.036245" lon="-7.123835"><ele>1271.0</ele><time>2026-04-24T15:59:38.423Z</time></trkpt><trkpt lat="31.0360917" lon="-7.1237517"><ele>1271.0</ele><time>2026-04-24T15:59:39.423Z</time></trkpt><trkpt lat="31.0359383" lon="-7.1236667"><ele>1271.0</ele><time>2026-04-24T15:59:40.423Z</time></trkpt><trkpt lat="31.0357783" lon="-7.1235883"><ele>1270.6666666666667</ele><time>2026-04-24T15:59:41.423Z</time></trkpt><trkpt lat="31.035615" lon="-7.1235117"><ele>1270.3333333333333</ele><time>2026-04-24T15:59:42.423Z</time></trkpt><trkpt lat="31.0354517" lon="-7.1234267"><ele>1270.0</ele><time>2026-04-24T15:59:43.423Z</time></trkpt><trkpt lat="31.0352967" lon="-7.1233467"><ele>1270.0</ele><time>2026-04-24T15:59:44.423Z</time></trkpt><trkpt lat="31.0351367" lon="-7.1232667"><ele>1270.0</ele><time>2026-04-24T15:59:45.423Z</time></trkpt><trkpt lat="31.034975" lon="-7.123185"><ele>1270.0</ele><time>2026-04-24T15:59:46.423Z</time></trkpt><trkpt lat="31.0348183" lon="-7.1231083"><ele>1269.3333333333333</ele><time>2026-04-24T15:59:47.423Z</time></trkpt><trkpt lat="31.0346517" lon="-7.123035"><ele>1268.6666666666667</ele><time>2026-04-24T15:59:48.423Z</time></trkpt><trkpt lat="31.0344817" lon="-7.122965"><ele>1268.0</ele><time>2026-04-24T15:59:49.423Z</time></trkpt><trkpt lat="31.0343117" lon="-7.1229017"><ele>1267.6666666666667</ele><time>2026-04-24T15:59:50.423Z</time></trkpt><trkpt lat="31.0341333" lon="-7.1228433"><ele>1267.3333333333333</ele><time>2026-04-24T15:59:51.423Z</time></trkpt><trkpt lat="31.0339567" lon="-7.1227883"><ele>1267.0</ele><time>2026-04-24T15:59:52.423Z</time></trkpt><trkpt lat="31.0337767" lon="-7.1227383"><ele>1267.0</ele><time>2026-04-24T15:59:53.423Z</time></trkpt><trkpt lat="31.0335933" lon="-7.1226917"><ele>1267.0</ele><time>2026-04-24T15:59:54.423Z</time></trkpt><trkpt lat="31.0334083" lon="-7.122645"><ele>1267.0</ele><time>2026-04-24T15:59:55.423Z</time></trkpt><trkpt lat="31.0332233" lon="-7.1225967"><ele>1266.6666666666665</ele><time>2026-04-24T15:59:56.423Z</time></trkpt><trkpt lat="31.0330417" lon="-7.1225483"><ele>1266.3333333333333</ele><time>2026-04-24T15:59:57.423Z</time></trkpt><trkpt lat="31.0328483" lon="-7.1225033"><ele>1266.0</ele><time>2026-04-24T15:59:58.423Z</time></trkpt><trkpt lat="31.0326583" lon="-7.1224533"><ele>1267.3333333333333</ele><time>2026-04-24T15:59:59.423Z</time></trkpt><trkpt lat="31.0324567" lon="-7.1223933"><ele>1268.6666666666665</ele><time>2026-04-24T16:00:00.423Z</time></trkpt><trkpt lat="31.0322517" lon="-7.1223467"><ele>1270.0</ele><time>2026-04-24T16:00:01.423Z</time></trkpt><trkpt lat="31.0320483" lon="-7.122295"><ele>1270.0</ele><time>2026-04-24T16:00:02.423Z</time></trkpt><trkpt lat="31.0318533" lon="-7.1222467"><ele>1270.0</ele><time>2026-04-24T16:00:03.423Z</time></trkpt><trkpt lat="31.0316583" lon="-7.1221983"><ele>1270.0</ele><time>2026-04-24T16:00:04.423Z</time></trkpt><trkpt lat="31.0314617" lon="-7.122145"><ele>1270.6666666666665</ele><time>2026-04-24T16:00:05.423Z</time></trkpt><trkpt lat="31.031265" lon="-7.122095"><ele>1271.3333333333333</ele><time>2026-04-24T16:00:06.423Z</time></trkpt><trkpt lat="31.0310717" lon="-7.1220417"><ele>1272.0</ele><time>2026-04-24T16:00:07.423Z</time></trkpt><trkpt lat="31.0308733" lon="-7.1219883"><ele>1271.3333333333333</ele><time>2026-04-24T16:00:08.423Z</time></trkpt><trkpt lat="31.03067" lon="-7.12192"><ele>1270.6666666666665</ele><time>2026-04-24T16:00:09.423Z</time></trkpt><trkpt lat="31.0304733" lon="-7.1218433"><ele>1270.0</ele><time>2026-04-24T16:00:10.423Z</time></trkpt><trkpt lat="31.0302767" lon="-7.1217583"><ele>1270.0</ele><time>2026-04-24T16:00:11.423Z</time></trkpt><trkpt lat="31.0300767" lon="-7.1216583"><ele>1270.0</ele><time>2026-04-24T16:00:12.424Z</time></trkpt><trkpt lat="31.029885" lon="-7.121545"><ele>1270.0</ele><time>2026-04-24T16:00:13.423Z</time></trkpt><trkpt lat="31.0297033" lon="-7.1214317"><ele>1270.0</ele><time>2026-04-24T16:00:14.423Z</time></trkpt><trkpt lat="31.0295333" lon="-7.1213067"><ele>1270.0</ele><time>2026-04-24T16:00:15.423Z</time></trkpt><trkpt lat="31.029365" lon="-7.1211767"><ele>1270.0</ele><time>2026-04-24T16:00:16.423Z</time></trkpt><trkpt lat="31.0292033" lon="-7.1210417"><ele>1269.6666666666665</ele><time>2026-04-24T16:00:17.423Z</time></trkpt><trkpt lat="31.0290417" lon="-7.1208917"><ele>1269.3333333333333</ele><time>2026-04-24T16:00:18.423Z</time></trkpt><trkpt lat="31.0288933" lon="-7.120735"><ele>1269.0</ele><time>2026-04-24T16:00:19.423Z</time></trkpt><trkpt lat="31.0287483" lon="-7.1205667"><ele>1269.0</ele><time>2026-04-24T16:00:20.423Z</time></trkpt><trkpt lat="31.02861" lon="-7.1203867"><ele>1269.0</ele><time>2026-04-24T16:00:21.423Z</time></trkpt><trkpt lat="31.0284783" lon="-7.120205"><ele>1269.0</ele><time>2026-04-24T16:00:22.423Z</time></trkpt><trkpt lat="31.02836" lon="-7.12002"><ele>1268.0</ele><time>2026-04-24T16:00:23.423Z</time></trkpt><trkpt lat="31.0282433" lon="-7.1198317"><ele>1267.0</ele><time>2026-04-24T16:00:24.424Z</time></trkpt><trkpt lat="31.028135" lon="-7.1196383"><ele>1266.0</ele><time>2026-04-24T16:00:25.423Z</time></trkpt><trkpt lat="31.028025" lon="-7.1194467"><ele>1266.0</ele><time>2026-04-24T16:00:26.423Z</time></trkpt><trkpt lat="31.027915" lon="-7.11926"><ele>1266.0</ele><time>2026-04-24T16:00:27.423Z</time></trkpt><trkpt lat="31.0278033" lon="-7.1190783"><ele>1266.0</ele><time>2026-04-24T16:00:28.423Z</time></trkpt><trkpt lat="31.0276983" lon="-7.1188983"><ele>1266.0</ele><time>2026-04-24T16:00:29.423Z</time></trkpt><trkpt lat="31.027595" lon="-7.1187233"><ele>1266.0</ele><time>2026-04-24T16:00:30.423Z</time></trkpt><trkpt lat="31.0274933" lon="-7.1185483"><ele>1266.0</ele><time>2026-04-24T16:00:31.423Z</time></trkpt><trkpt lat="31.027385" lon="-7.1183767"><ele>1265.3333333333333</ele><time>2026-04-24T16:00:32.423Z</time></trkpt><trkpt lat="31.0272733" lon="-7.118205"><ele>1264.6666666666665</ele><time>2026-04-24T16:00:33.424Z</time></trkpt><trkpt lat="31.0271617" lon="-7.1180333"><ele>1264.0</ele><time>2026-04-24T16:00:34.423Z</time></trkpt><trkpt lat="31.02705" lon="-7.1178667"><ele>1264.0</ele><time>2026-04-24T16:00:35.423Z</time></trkpt><trkpt lat="31.0269333" lon="-7.1176983"><ele>1264.0</ele><time>2026-04-24T16:00:36.423Z</time></trkpt><trkpt lat="31.0268117" lon="-7.11754"><ele>1264.0</ele><time>2026-04-24T16:00:37.423Z</time></trkpt><trkpt lat="31.0266883" lon="-7.11738"><ele>1264.3333333333333</ele><time>2026-04-24T16:00:38.423Z</time></trkpt><trkpt lat="31.02656" lon="-7.1172217"><ele>1264.6666666666667</ele><time>2026-04-24T16:00:39.423Z</time></trkpt><trkpt lat="31.0264217" lon="-7.1170667"><ele>1265.0</ele><time>2026-04-24T16:00:40.423Z</time></trkpt><trkpt lat="31.02628" lon="-7.116915"><ele>1265.0</ele><time>2026-04-24T16:00:41.423Z</time></trkpt><trkpt lat="31.026135" lon="-7.1167633"><ele>1265.0</ele><time>2026-04-24T16:00:42.423Z</time></trkpt><trkpt lat="31.0259917" lon="-7.1166117"><ele>1265.0</ele><time>2026-04-24T16:00:43.423Z</time></trkpt><trkpt lat="31.0258417" lon="-7.1164683"><ele>1264.6666666666667</ele><time>2026-04-24T16:00:44.423Z</time></trkpt><trkpt lat="31.02569" lon="-7.1163283"><ele>1264.3333333333333</ele><time>2026-04-24T16:00:45.423Z</time></trkpt><trkpt lat="31.025535" lon="-7.1161983"><ele>1264.0</ele><time>2026-04-24T16:00:46.423Z</time></trkpt><trkpt lat="31.0253833" lon="-7.1160667"><ele>1264.0</ele><time>2026-04-24T16:00:47.423Z</time></trkpt><trkpt lat="31.0252283" lon="-7.1159367"><ele>1264.0</ele><time>2026-04-24T16:00:48.423Z</time></trkpt><trkpt lat="31.0250733" lon="-7.1158083"><ele>1264.0</ele><time>2026-04-24T16:00:49.423Z</time></trkpt><trkpt lat="31.0249117" lon="-7.1156833"><ele>1263.3333333333333</ele><time>2026-04-24T16:00:50.423Z</time></trkpt><trkpt lat="31.024745" lon="-7.11557"><ele>1262.6666666666667</ele><time>2026-04-24T16:00:51.423Z</time></trkpt><trkpt lat="31.0245717" lon="-7.115465"><ele>1262.0</ele><time>2026-04-24T16:00:52.423Z</time></trkpt><trkpt lat="31.0244017" lon="-7.11536"><ele>1262.0</ele><time>2026-04-24T16:00:53.423Z</time></trkpt><trkpt lat="31.02423" lon="-7.1152567"><ele>1262.0</ele><time>2026-04-24T16:00:54.423Z</time></trkpt><trkpt lat="31.0240583" lon="-7.1151533"><ele>1262.0</ele><time>2026-04-24T16:00:55.423Z</time></trkpt><trkpt lat="31.0238917" lon="-7.1150517"><ele>1261.3333333333335</ele><time>2026-04-24T16:00:56.423Z</time></trkpt><trkpt lat="31.02373" lon="-7.114945"><ele>1260.6666666666667</ele><time>2026-04-24T16:00:57.423Z</time></trkpt><trkpt lat="31.0235767" lon="-7.11484"><ele>1260.0</ele><time>2026-04-24T16:00:58.423Z</time></trkpt><trkpt lat="31.0234167" lon="-7.1147417"><ele>1260.0</ele><time>2026-04-24T16:00:59.423Z</time></trkpt><trkpt lat="31.02325" lon="-7.114645"><ele>1260.0</ele><time>2026-04-24T16:01:00.424Z</time></trkpt><trkpt lat="31.0230783" lon="-7.11455"><ele>1260.0</ele><time>2026-04-24T16:01:01.423Z</time></trkpt><trkpt lat="31.0229067" lon="-7.114455"><ele>1260.0</ele><time>2026-04-24T16:01:02.423Z</time></trkpt><trkpt lat="31.022735" lon="-7.1143583"><ele>1260.0</ele><time>2026-04-24T16:01:03.423Z</time></trkpt><trkpt lat="31.0225583" lon="-7.1142583"><ele>1260.0</ele><time>2026-04-24T16:01:04.423Z</time></trkpt><trkpt lat="31.0223917" lon="-7.11416"><ele>1259.0</ele><time>2026-04-24T16:01:05.423Z</time></trkpt><trkpt lat="31.0222283" lon="-7.114055"><ele>1258.0</ele><time>2026-04-24T16:01:06.423Z</time></trkpt><trkpt lat="31.0220633" lon="-7.11396"><ele>1257.0</ele><time>2026-04-24T16:01:07.423Z</time></trkpt><trkpt lat="31.0219" lon="-7.1138583"><ele>1257.0</ele><time>2026-04-24T16:01:08.423Z</time></trkpt><trkpt lat="31.0217333" lon="-7.1137567"><ele>1257.0</ele><time>2026-04-24T16:01:09.423Z</time></trkpt><trkpt lat="31.0215667" lon="-7.11365"><ele>1257.0</ele><time>2026-04-24T16:01:10.423Z</time></trkpt><trkpt lat="31.0213983" lon="-7.1135417"><ele>1257.0</ele><time>2026-04-24T16:01:11.423Z</time></trkpt><trkpt lat="31.0212267" lon="-7.1134317"><ele>1257.0</ele><time>2026-04-24T16:01:12.423Z</time></trkpt><trkpt lat="31.0210533" lon="-7.1133167"><ele>1257.0</ele><time>2026-04-24T16:01:13.424Z</time></trkpt><trkpt lat="31.0208817" lon="-7.113195"><ele>1256.6666666666667</ele><time>2026-04-24T16:01:14.423Z</time></trkpt><trkpt lat="31.0207133" lon="-7.11307"><ele>1256.3333333333335</ele><time>2026-04-24T16:01:15.423Z</time></trkpt><trkpt lat="31.0205483" lon="-7.1129367"><ele>1256.0</ele><time>2026-04-24T16:01:16.423Z</time></trkpt><trkpt lat="31.0203833" lon="-7.1127983"><ele>1256.0</ele><time>2026-04-24T16:01:17.423Z</time></trkpt><trkpt lat="31.0202233" lon="-7.1126617"><ele>1256.0</ele><time>2026-04-24T16:01:18.423Z</time></trkpt><trkpt lat="31.02007" lon="-7.1125267"><ele>1256.0</ele><time>2026-04-24T16:01:19.423Z</time></trkpt><trkpt lat="31.0199233" lon="-7.11239"><ele>1256.0</ele><time>2026-04-24T16:01:20.423Z</time></trkpt><trkpt lat="31.0197767" lon="-7.1122617"><ele>1256.0</ele><time>2026-04-24T16:01:21.423Z</time></trkpt><trkpt lat="31.01964" lon="-7.112125"><ele>1256.0</ele><time>2026-04-24T16:01:22.423Z</time></trkpt><trkpt lat="31.019505" lon="-7.111985"><ele>1256.0</ele><time>2026-04-24T16:01:23.423Z</time></trkpt><trkpt lat="31.0193767" lon="-7.1118383"><ele>1256.0</ele><time>2026-04-24T16:01:24.423Z</time></trkpt><trkpt lat="31.0192467" lon="-7.1116883"><ele>1256.0</ele><time>2026-04-24T16:01:25.423Z</time></trkpt><trkpt lat="31.01911" lon="-7.11154"><ele>1255.3333333333335</ele><time>2026-04-24T16:01:26.423Z</time></trkpt><trkpt lat="31.01898" lon="-7.1113867"><ele>1254.6666666666667</ele><time>2026-04-24T16:01:27.423Z</time></trkpt><trkpt lat="31.0188467" lon="-7.1112383"><ele>1254.0</ele><time>2026-04-24T16:01:28.423Z</time></trkpt><trkpt lat="31.01871" lon="-7.1110833"><ele>1254.0</ele><time>2026-04-24T16:01:29.423Z</time></trkpt><trkpt lat="31.0185683" lon="-7.1109267"><ele>1254.0</ele><time>2026-04-24T16:01:30.423Z</time></trkpt><trkpt lat="31.0184283" lon="-7.1107717"><ele>1254.0</ele><time>2026-04-24T16:01:31.423Z</time></trkpt><trkpt lat="31.0182883" lon="-7.1106183"><ele>1254.3333333333333</ele><time>2026-04-24T16:01:32.423Z</time></trkpt><trkpt lat="31.018155" lon="-7.110465"><ele>1254.6666666666665</ele><time>2026-04-24T16:01:33.423Z</time></trkpt><trkpt lat="31.0180217" lon="-7.11032"><ele>1255.0</ele><time>2026-04-24T16:01:34.423Z</time></trkpt><trkpt lat="31.01789" lon="-7.110175"><ele>1255.0</ele><time>2026-04-24T16:01:35.424Z</time></trkpt><trkpt lat="31.0177567" lon="-7.1100283"><ele>1255.0</ele><time>2026-04-24T16:01:36.423Z</time></trkpt><trkpt lat="31.01763" lon="-7.1098817"><ele>1255.0</ele><time>2026-04-24T16:01:37.423Z</time></trkpt><trkpt lat="31.0175033" lon="-7.109735"><ele>1254.6666666666665</ele><time>2026-04-24T16:01:38.423Z</time></trkpt><trkpt lat="31.0173733" lon="-7.109585"><ele>1254.3333333333333</ele><time>2026-04-24T16:01:39.423Z</time></trkpt><trkpt lat="31.017245" lon="-7.1094283"><ele>1254.0</ele><time>2026-04-24T16:01:40.423Z</time></trkpt><trkpt lat="31.0171283" lon="-7.109265"><ele>1254.0</ele><time>2026-04-24T16:01:41.423Z</time></trkpt><trkpt lat="31.0170183" lon="-7.1090983"><ele>1254.0</ele><time>2026-04-24T16:01:42.423Z</time></trkpt><trkpt lat="31.0169133" lon="-7.1089383"><ele>1254.0</ele><time>2026-04-24T16:01:43.423Z</time></trkpt><trkpt lat="31.016815" lon="-7.1087717"><ele>1254.0</ele><time>2026-04-24T16:01:44.423Z</time></trkpt><trkpt lat="31.01672" lon="-7.108605"><ele>1254.0</ele><time>2026-04-24T16:01:45.423Z</time></trkpt><trkpt lat="31.016635" lon="-7.1084333"><ele>1254.0</ele><time>2026-04-24T16:01:46.423Z</time></trkpt><trkpt lat="31.016555" lon="-7.1082567"><ele>1254.0</ele><time>2026-04-24T16:01:47.423Z</time></trkpt><trkpt lat="31.01648" lon="-7.108075"><ele>1254.0</ele><time>2026-04-24T16:01:48.423Z</time></trkpt><trkpt lat="31.0164117" lon="-7.1078917"><ele>1254.0</ele><time>2026-04-24T16:01:49.423Z</time></trkpt><trkpt lat="31.0163433" lon="-7.1077167"><ele>1254.0</ele><time>2026-04-24T16:01:50.423Z</time></trkpt><trkpt lat="31.0162817" lon="-7.107545"><ele>1254.0</ele><time>2026-04-24T16:01:51.423Z</time></trkpt><trkpt lat="31.0162167" lon="-7.107375"><ele>1254.0</ele><time>2026-04-24T16:01:52.424Z</time></trkpt><trkpt lat="31.0161567" lon="-7.107205"><ele>1253.6666666666667</ele><time>2026-04-24T16:01:53.423Z</time></trkpt><trkpt lat="31.0161" lon="-7.1070367"><ele>1253.3333333333335</ele><time>2026-04-24T16:01:54.423Z</time></trkpt><trkpt lat="31.0160467" lon="-7.1068617"><ele>1253.0</ele><time>2026-04-24T16:01:55.423Z</time></trkpt><trkpt lat="31.015985" lon="-7.10669"><ele>1253.3333333333335</ele><time>2026-04-24T16:01:56.423Z</time></trkpt><trkpt lat="31.01592" lon="-7.1065167"><ele>1253.6666666666667</ele><time>2026-04-24T16:01:57.423Z</time></trkpt><trkpt lat="31.0158483" lon="-7.1063467"><ele>1254.0</ele><time>2026-04-24T16:01:58.424Z</time></trkpt><trkpt lat="31.0157733" lon="-7.1061783"><ele>1254.0</ele><time>2026-04-24T16:01:59.423Z</time></trkpt><trkpt lat="31.0156917" lon="-7.1060083"><ele>1254.0</ele><time>2026-04-24T16:02:00.423Z</time></trkpt><trkpt lat="31.015605" lon="-7.1058533"><ele>1254.0</ele><time>2026-04-24T16:02:01.423Z</time></trkpt><trkpt lat="31.0155083" lon="-7.1057"><ele>1253.3333333333333</ele><time>2026-04-24T16:02:02.423Z</time></trkpt><trkpt lat="31.0154067" lon="-7.105555"><ele>1252.6666666666665</ele><time>2026-04-24T16:02:03.423Z</time></trkpt><trkpt lat="31.0152933" lon="-7.1054117"><ele>1252.0</ele><time>2026-04-24T16:02:04.423Z</time></trkpt><trkpt lat="31.015175" lon="-7.1052717"><ele>1252.0</ele><time>2026-04-24T16:02:05.423Z</time></trkpt><trkpt lat="31.0150517" lon="-7.1051317"><ele>1252.0</ele><time>2026-04-24T16:02:06.423Z</time></trkpt><trkpt lat="31.0149233" lon="-7.1049933"><ele>1252.0</ele><time>2026-04-24T16:02:07.424Z</time></trkpt><trkpt lat="31.01479" lon="-7.1048583"><ele>1251.6666666666665</ele><time>2026-04-24T16:02:08.423Z</time></trkpt><trkpt lat="31.0146567" lon="-7.1047167"><ele>1251.3333333333333</ele><time>2026-04-24T16:02:09.423Z</time></trkpt><trkpt lat="31.0145183" lon="-7.1045733"><ele>1251.0</ele><time>2026-04-24T16:02:10.423Z</time></trkpt><trkpt lat="31.0143733" lon="-7.10443"><ele>1251.0</ele><time>2026-04-24T16:02:11.423Z</time></trkpt><trkpt lat="31.014225" lon="-7.1042733"><ele>1251.0</ele><time>2026-04-24T16:02:12.423Z</time></trkpt><trkpt lat="31.014085" lon="-7.10412"><ele>1251.0</ele><time>2026-04-24T16:02:13.423Z</time></trkpt><trkpt lat="31.0139433" lon="-7.10398"><ele>1250.3333333333333</ele><time>2026-04-24T16:02:14.423Z</time></trkpt><trkpt lat="31.0138067" lon="-7.1038383"><ele>1249.6666666666665</ele><time>2026-04-24T16:02:15.423Z</time></trkpt><trkpt lat="31.0136733" lon="-7.103695"><ele>1249.0</ele><time>2026-04-24T16:02:16.423Z</time></trkpt><trkpt lat="31.0135383" lon="-7.103555"><ele>1249.0</ele><time>2026-04-24T16:02:17.423Z</time></trkpt><trkpt lat="31.0134033" lon="-7.10342"><ele>1249.0</ele><time>2026-04-24T16:02:18.424Z</time></trkpt><trkpt lat="31.0132667" lon="-7.1032867"><ele>1249.0</ele><time>2026-04-24T16:02:19.424Z</time></trkpt><trkpt lat="31.01313" lon="-7.1031483"><ele>1250.0</ele><time>2026-04-24T16:02:20.423Z</time></trkpt><trkpt lat="31.0129817" lon="-7.1030117"><ele>1251.0</ele><time>2026-04-24T16:02:21.423Z</time></trkpt><trkpt lat="31.012825" lon="-7.1028883"><ele>1252.0</ele><time>2026-04-24T16:02:22.423Z</time></trkpt><trkpt lat="31.01266" lon="-7.1027767"><ele>1252.0</ele><time>2026-04-24T16:02:23.423Z</time></trkpt><trkpt lat="31.012495" lon="-7.1026733"><ele>1252.0</ele><time>2026-04-24T16:02:24.423Z</time></trkpt><trkpt lat="31.0123333" lon="-7.1025783"><ele>1252.0</ele><time>2026-04-24T16:02:25.423Z</time></trkpt><trkpt lat="31.01217" lon="-7.1024867"><ele>1251.6666666666665</ele><time>2026-04-24T16:02:26.423Z</time></trkpt><trkpt lat="31.0120033" lon="-7.1024033"><ele>1251.3333333333333</ele><time>2026-04-24T16:02:27.423Z</time></trkpt><trkpt lat="31.01183" lon="-7.1023317"><ele>1251.0</ele><time>2026-04-24T16:02:28.423Z</time></trkpt><trkpt lat="31.0116517" lon="-7.10227"><ele>1251.0</ele><time>2026-04-24T16:02:29.423Z</time></trkpt><trkpt lat="31.01146" lon="-7.1022117"><ele>1251.0</ele><time>2026-04-24T16:02:30.423Z</time></trkpt><trkpt lat="31.0112633" lon="-7.1021667"><ele>1251.0</ele><time>2026-04-24T16:02:31.423Z</time></trkpt><trkpt lat="31.0110617" lon="-7.1021317"><ele>1251.0</ele><time>2026-04-24T16:02:32.423Z</time></trkpt><trkpt lat="31.01086" lon="-7.1020983"><ele>1251.0</ele><time>2026-04-24T16:02:33.423Z</time></trkpt><trkpt lat="31.0106633" lon="-7.102075"><ele>1251.0</ele><time>2026-04-24T16:02:34.423Z</time></trkpt><trkpt lat="31.0104633" lon="-7.1020783"><ele>1249.3333333333333</ele><time>2026-04-24T16:02:35.423Z</time></trkpt><trkpt lat="31.010275" lon="-7.10209"><ele>1247.6666666666665</ele><time>2026-04-24T16:02:36.423Z</time></trkpt><trkpt lat="31.0100883" lon="-7.1021017"><ele>1246.0</ele><time>2026-04-24T16:02:37.423Z</time></trkpt><trkpt lat="31.009905" lon="-7.1021167"><ele>1243.3333333333333</ele><time>2026-04-24T16:02:38.423Z</time></trkpt><trkpt lat="31.0097217" lon="-7.1021433"><ele>1240.6666666666667</ele><time>2026-04-24T16:02:39.423Z</time></trkpt><trkpt lat="31.0095417" lon="-7.1021817"><ele>1238.0</ele><time>2026-04-24T16:02:40.423Z</time></trkpt><trkpt lat="31.009365" lon="-7.1022283"><ele>1238.0</ele><time>2026-04-24T16:02:41.423Z</time></trkpt><trkpt lat="31.00919" lon="-7.1022967"><ele>1238.0</ele><time>2026-04-24T16:02:42.424Z</time></trkpt><trkpt lat="31.0090083" lon="-7.1023733"><ele>1238.0</ele><time>2026-04-24T16:02:43.423Z</time></trkpt><trkpt lat="31.0088267" lon="-7.10245"><ele>1237.3333333333335</ele><time>2026-04-24T16:02:44.423Z</time></trkpt><trkpt lat="31.00865" lon="-7.102535"><ele>1236.6666666666667</ele><time>2026-04-24T16:02:45.423Z</time></trkpt><trkpt lat="31.0084817" lon="-7.102625"><ele>1236.0</ele><time>2026-04-24T16:02:46.423Z</time></trkpt><trkpt lat="31.0083217" lon="-7.10271"><ele>1236.0</ele><time>2026-04-24T16:02:47.423Z</time></trkpt><trkpt lat="31.0081683" lon="-7.102795"><ele>1236.0</ele><time>2026-04-24T16:02:48.423Z</time></trkpt><trkpt lat="31.008015" lon="-7.1028717"><ele>1236.0</ele><time>2026-04-24T16:02:49.423Z</time></trkpt><trkpt lat="31.0078583" lon="-7.10295"><ele>1236.0</ele><time>2026-04-24T16:02:50.423Z</time></trkpt><trkpt lat="31.0077017" lon="-7.1030217"><ele>1236.0</ele><time>2026-04-24T16:02:51.423Z</time></trkpt><trkpt lat="31.0075483" lon="-7.103105"><ele>1236.0</ele><time>2026-04-24T16:02:52.423Z</time></trkpt><trkpt lat="31.007395" lon="-7.1031833"><ele>1236.3333333333333</ele><time>2026-04-24T16:02:53.423Z</time></trkpt><trkpt lat="31.007245" lon="-7.103255"><ele>1236.6666666666665</ele><time>2026-04-24T16:02:54.423Z</time></trkpt><trkpt lat="31.007095" lon="-7.1033233"><ele>1237.0</ele><time>2026-04-24T16:02:55.423Z</time></trkpt><trkpt lat="31.006945" lon="-7.1033933"><ele>1237.0</ele><time>2026-04-24T16:02:56.423Z</time></trkpt><trkpt lat="31.00679" lon="-7.1034683"><ele>1237.0</ele><time>2026-04-24T16:02:57.423Z</time></trkpt><trkpt lat="31.0066283" lon="-7.1035483"><ele>1237.0</ele><time>2026-04-24T16:02:58.423Z</time></trkpt><trkpt lat="31.006465" lon="-7.1036317"><ele>1234.3333333333333</ele><time>2026-04-24T16:02:59.423Z</time></trkpt><trkpt lat="31.006305" lon="-7.1037183"><ele>1231.6666666666667</ele><time>2026-04-24T16:03:00.423Z</time></trkpt><trkpt lat="31.0061333" lon="-7.1038017"><ele>1229.0</ele><time>2026-04-24T16:03:01.423Z</time></trkpt><trkpt lat="31.00596" lon="-7.1038867"><ele>1228.3333333333335</ele><time>2026-04-24T16:03:02.423Z</time></trkpt><trkpt lat="31.0057817" lon="-7.1039717"><ele>1227.6666666666667</ele><time>2026-04-24T16:03:03.423Z</time></trkpt><trkpt lat="31.005605" lon="-7.10406"><ele>1227.0</ele><time>2026-04-24T16:03:04.423Z</time></trkpt><trkpt lat="31.00542" lon="-7.10415"><ele>1228.6666666666667</ele><time>2026-04-24T16:03:05.423Z</time></trkpt><trkpt lat="31.005235" lon="-7.10424"><ele>1230.3333333333335</ele><time>2026-04-24T16:03:06.423Z</time></trkpt><trkpt lat="31.0050417" lon="-7.104315"><ele>1232.0</ele><time>2026-04-24T16:03:07.423Z</time></trkpt><trkpt lat="31.0048417" lon="-7.1043783"><ele>1232.0</ele><time>2026-04-24T16:03:08.423Z</time></trkpt><trkpt lat="31.004635" lon="-7.1044317"><ele>1232.0</ele><time>2026-04-24T16:03:09.423Z</time></trkpt><trkpt lat="31.0044233" lon="-7.104475"><ele>1232.0</ele><time>2026-04-24T16:03:10.423Z</time></trkpt><trkpt lat="31.0042133" lon="-7.1045017"><ele>1230.3333333333335</ele><time>2026-04-24T16:03:11.423Z</time></trkpt><trkpt lat="31.0040017" lon="-7.1045217"><ele>1228.6666666666667</ele><time>2026-04-24T16:03:12.423Z</time></trkpt><trkpt lat="31.0037933" lon="-7.10454"><ele>1227.0</ele><time>2026-04-24T16:03:13.423Z</time></trkpt><trkpt lat="31.0035917" lon="-7.1045433"><ele>1227.0</ele><time>2026-04-24T16:03:14.423Z</time></trkpt><trkpt lat="31.0033917" lon="-7.1045533"><ele>1227.0</ele><time>2026-04-24T16:03:15.423Z</time></trkpt><trkpt lat="31.0031967" lon="-7.1045567"><ele>1227.0</ele><time>2026-04-24T16:03:16.423Z</time></trkpt><trkpt lat="31.0030083" lon="-7.1045583"><ele>1227.0</ele><time>2026-04-24T16:03:17.423Z</time></trkpt><trkpt lat="31.0028183" lon="-7.10456"><ele>1227.0</ele><time>2026-04-24T16:03:18.423Z</time></trkpt><trkpt lat="31.0026317" lon="-7.10456"><ele>1227.0</ele><time>2026-04-24T16:03:19.423Z</time></trkpt><trkpt lat="31.0024517" lon="-7.1045583"><ele>1227.0</ele><time>2026-04-24T16:03:20.423Z</time></trkpt><trkpt lat="31.0022717" lon="-7.1045583"><ele>1227.0</ele><time>2026-04-24T16:03:21.423Z</time></trkpt><trkpt lat="31.0020933" lon="-7.1045633"><ele>1227.0</ele><time>2026-04-24T16:03:22.423Z</time></trkpt><trkpt lat="31.0019217" lon="-7.1045783"><ele>1227.0</ele><time>2026-04-24T16:03:23.423Z</time></trkpt><trkpt lat="31.0017433" lon="-7.1046"><ele>1227.0</ele><time>2026-04-24T16:03:24.424Z</time></trkpt><trkpt lat="31.0015617" lon="-7.10463"><ele>1227.0</ele><time>2026-04-24T16:03:25.423Z</time></trkpt><trkpt lat="31.001385" lon="-7.104665"><ele>1227.0</ele><time>2026-04-24T16:03:26.423Z</time></trkpt><trkpt lat="31.001205" lon="-7.1047083"><ele>1227.0</ele><time>2026-04-24T16:03:27.423Z</time></trkpt><trkpt lat="31.0010217" lon="-7.104765"><ele>1227.0</ele><time>2026-04-24T16:03:28.423Z</time></trkpt><trkpt lat="31.0008433" lon="-7.104835"><ele>1228.0</ele><time>2026-04-24T16:03:29.423Z</time></trkpt><trkpt lat="31.0006767" lon="-7.1049167"><ele>1229.0</ele><time>2026-04-24T16:03:30.423Z</time></trkpt><trkpt lat="31.0005167" lon="-7.1049983"><ele>1230.0</ele><time>2026-04-24T16:03:31.423Z</time></trkpt><trkpt lat="31.00037" lon="-7.105085"><ele>1230.0</ele><time>2026-04-24T16:03:32.423Z</time></trkpt><trkpt lat="31.0002267" lon="-7.1051867"><ele>1230.0</ele><time>2026-04-24T16:03:33.423Z</time></trkpt><trkpt lat="31.0000867" lon="-7.10529"><ele>1230.0</ele><time>2026-04-24T16:03:34.423Z</time></trkpt><trkpt lat="30.9999533" lon="-7.1054067"><ele>1230.0</ele><time>2026-04-24T16:03:35.423Z</time></trkpt><trkpt lat="30.9998233" lon="-7.1055267"><ele>1230.0</ele><time>2026-04-24T16:03:36.423Z</time></trkpt><trkpt lat="30.99969" lon="-7.1056533"><ele>1230.0</ele><time>2026-04-24T16:03:37.423Z</time></trkpt><trkpt lat="30.9995583" lon="-7.1057767"><ele>1229.0</ele><time>2026-04-24T16:03:38.423Z</time></trkpt><trkpt lat="30.9994283" lon="-7.105905"><ele>1228.0</ele><time>2026-04-24T16:03:39.423Z</time></trkpt><trkpt lat="30.9992983" lon="-7.1060317"><ele>1227.0</ele><time>2026-04-24T16:03:40.423Z</time></trkpt><trkpt lat="30.9991683" lon="-7.10615"><ele>1226.3333333333333</ele><time>2026-04-24T16:03:41.423Z</time></trkpt><trkpt lat="30.9990383" lon="-7.10628"><ele>1225.6666666666665</ele><time>2026-04-24T16:03:42.423Z</time></trkpt><trkpt lat="30.9989083" lon="-7.106405"><ele>1225.0</ele><time>2026-04-24T16:03:43.423Z</time></trkpt><trkpt lat="30.99877" lon="-7.1065233"><ele>1226.0</ele><time>2026-04-24T16:03:44.423Z</time></trkpt><trkpt lat="30.9986283" lon="-7.106635"><ele>1227.0</ele><time>2026-04-24T16:03:45.423Z</time></trkpt><trkpt lat="30.9984817" lon="-7.106735"><ele>1228.0</ele><time>2026-04-24T16:03:46.423Z</time></trkpt><trkpt lat="30.99833" lon="-7.1068217"><ele>1228.0</ele><time>2026-04-24T16:03:47.423Z</time></trkpt><trkpt lat="30.9981733" lon="-7.106905"><ele>1228.0</ele><time>2026-04-24T16:03:48.423Z</time></trkpt><trkpt lat="30.9980083" lon="-7.1069717"><ele>1228.0</ele><time>2026-04-24T16:03:49.423Z</time></trkpt><trkpt lat="30.997835" lon="-7.1070317"><ele>1228.0</ele><time>2026-04-24T16:03:50.423Z</time></trkpt><trkpt lat="30.9976517" lon="-7.1070767"><ele>1228.0</ele><time>2026-04-24T16:03:51.423Z</time></trkpt><trkpt lat="30.9974667" lon="-7.1071133"><ele>1228.0</ele><time>2026-04-24T16:03:52.423Z</time></trkpt><trkpt lat="30.9972833" lon="-7.1071333"><ele>1227.0</ele><time>2026-04-24T16:03:53.423Z</time></trkpt><trkpt lat="30.9970933" lon="-7.1071433"><ele>1226.0</ele><time>2026-04-24T16:03:54.423Z</time></trkpt><trkpt lat="30.9968967" lon="-7.10715"><ele>1225.0</ele><time>2026-04-24T16:03:55.423Z</time></trkpt><trkpt lat="30.9967033" lon="-7.1071533"><ele>1225.6666666666665</ele><time>2026-04-24T16:03:56.423Z</time></trkpt><trkpt lat="30.9965033" lon="-7.1071533"><ele>1226.3333333333333</ele><time>2026-04-24T16:03:57.423Z</time></trkpt><trkpt lat="30.9963033" lon="-7.1071583"><ele>1227.0</ele><time>2026-04-24T16:03:58.423Z</time></trkpt><trkpt lat="30.9961017" lon="-7.1071617"><ele>1227.0</ele><time>2026-04-24T16:03:59.424Z</time></trkpt><trkpt lat="30.9958967" lon="-7.1071633"><ele>1227.0</ele><time>2026-04-24T16:04:00.423Z</time></trkpt><trkpt lat="30.9956917" lon="-7.1071683"><ele>1227.0</ele><time>2026-04-24T16:04:01.423Z</time></trkpt><trkpt lat="30.9954917" lon="-7.107165"><ele>1227.0</ele><time>2026-04-24T16:04:02.423Z</time></trkpt><trkpt lat="30.9953033" lon="-7.107165"><ele>1227.0</ele><time>2026-04-24T16:04:03.423Z</time></trkpt><trkpt lat="30.99512" lon="-7.107165"><ele>1227.0</ele><time>2026-04-24T16:04:04.423Z</time></trkpt><trkpt lat="30.994935" lon="-7.10717"><ele>1227.0</ele><time>2026-04-24T16:04:05.423Z</time></trkpt><trkpt lat="30.9947517" lon="-7.1071667"><ele>1227.0</ele><time>2026-04-24T16:04:06.423Z</time></trkpt><trkpt lat="30.9945667" lon="-7.1071717"><ele>1227.0</ele><time>2026-04-24T16:04:07.423Z</time></trkpt><trkpt lat="30.99438" lon="-7.1071767"><ele>1227.0</ele><time>2026-04-24T16:04:08.423Z</time></trkpt><trkpt lat="30.9941917" lon="-7.1071783"><ele>1227.0</ele><time>2026-04-24T16:04:09.423Z</time></trkpt><trkpt lat="30.9940033" lon="-7.1071817"><ele>1227.0</ele><time>2026-04-24T16:04:10.423Z</time></trkpt><trkpt lat="30.9938167" lon="-7.1071833"><ele>1226.6666666666667</ele><time>2026-04-24T16:04:11.423Z</time></trkpt><trkpt lat="30.9936367" lon="-7.1071817"><ele>1226.3333333333335</ele><time>2026-04-24T16:04:12.423Z</time></trkpt><trkpt lat="30.9934617" lon="-7.1071817"><ele>1226.0</ele><time>2026-04-24T16:04:13.423Z</time></trkpt><trkpt lat="30.993295" lon="-7.107175"><ele>1226.0</ele><time>2026-04-24T16:04:14.423Z</time></trkpt><trkpt lat="30.9931383" lon="-7.1071667"><ele>1226.0</ele><time>2026-04-24T16:04:15.423Z</time></trkpt><trkpt lat="30.9929917" lon="-7.1071483"><ele>1226.0</ele><time>2026-04-24T16:04:16.423Z</time></trkpt><trkpt lat="30.992845" lon="-7.107115"><ele>1226.0</ele><time>2026-04-24T16:04:17.423Z</time></trkpt><trkpt lat="30.9926933" lon="-7.10707"><ele>1226.0</ele><time>2026-04-24T16:04:18.423Z</time></trkpt><trkpt lat="30.9925383" lon="-7.1070067"><ele>1226.0</ele><time>2026-04-24T16:04:19.423Z</time></trkpt><trkpt lat="30.9923833" lon="-7.1069217"><ele>1226.3333333333335</ele><time>2026-04-24T16:04:20.423Z</time></trkpt><trkpt lat="30.99223" lon="-7.1068233"><ele>1226.6666666666667</ele><time>2026-04-24T16:04:21.423Z</time></trkpt><trkpt lat="30.9920883" lon="-7.1067033"><ele>1227.0</ele><time>2026-04-24T16:04:22.423Z</time></trkpt><trkpt lat="30.9919483" lon="-7.106575"><ele>1225.6666666666667</ele><time>2026-04-24T16:04:23.423Z</time></trkpt><trkpt lat="30.9918083" lon="-7.1064417"><ele>1224.3333333333335</ele><time>2026-04-24T16:04:24.423Z</time></trkpt><trkpt lat="30.9916617" lon="-7.1063"><ele>1223.0</ele><time>2026-04-24T16:04:25.423Z</time></trkpt><trkpt lat="30.9915133" lon="-7.106155"><ele>1223.0</ele><time>2026-04-24T16:04:26.423Z</time></trkpt><trkpt lat="30.9913667" lon="-7.10602"><ele>1223.0</ele><time>2026-04-24T16:04:27.423Z</time></trkpt><trkpt lat="30.9912217" lon="-7.1058883"><ele>1223.0</ele><time>2026-04-24T16:04:28.423Z</time></trkpt><trkpt lat="30.991075" lon="-7.1057533"><ele>1222.0</ele><time>2026-04-24T16:04:29.423Z</time></trkpt><trkpt lat="30.9909217" lon="-7.10563"><ele>1221.0</ele><time>2026-04-24T16:04:30.423Z</time></trkpt><trkpt lat="30.99076" lon="-7.1055133"><ele>1220.0</ele><time>2026-04-24T16:04:31.423Z</time></trkpt><trkpt lat="30.990585" lon="-7.105415"><ele>1219.3333333333335</ele><time>2026-04-24T16:04:32.423Z</time></trkpt><trkpt lat="30.9904033" lon="-7.105335"><ele>1218.6666666666667</ele><time>2026-04-24T16:04:33.423Z</time></trkpt><trkpt lat="30.9902233" lon="-7.1052683"><ele>1218.0</ele><time>2026-04-24T16:04:34.423Z</time></trkpt><trkpt lat="30.99004" lon="-7.10521"><ele>1219.3333333333333</ele><time>2026-04-24T16:04:35.423Z</time></trkpt><trkpt lat="30.9898617" lon="-7.1051517"><ele>1220.6666666666665</ele><time>2026-04-24T16:04:36.423Z</time></trkpt><trkpt lat="30.98969" lon="-7.105095"><ele>1222.0</ele><time>2026-04-24T16:04:37.423Z</time></trkpt><trkpt lat="30.9895267" lon="-7.1050283"><ele>1222.0</ele><time>2026-04-24T16:04:38.423Z</time></trkpt><trkpt lat="30.989355" lon="-7.10497"><ele>1222.0</ele><time>2026-04-24T16:04:39.423Z</time></trkpt><trkpt lat="30.9891867" lon="-7.1049167"><ele>1222.0</ele><time>2026-04-24T16:04:40.423Z</time></trkpt><trkpt lat="30.9890217" lon="-7.1048617"><ele>1219.6666666666665</ele><time>2026-04-24T16:04:41.423Z</time></trkpt><trkpt lat="30.9888633" lon="-7.1048033"><ele>1217.3333333333333</ele><time>2026-04-24T16:04:42.423Z</time></trkpt><trkpt lat="30.988695" lon="-7.1047517"><ele>1215.0</ele><time>2026-04-24T16:04:43.423Z</time></trkpt><trkpt lat="30.9885233" lon="-7.1047233"><ele>1215.0</ele><time>2026-04-24T16:04:44.423Z</time></trkpt><trkpt lat="30.9883583" lon="-7.104725"><ele>1215.0</ele><time>2026-04-24T16:04:45.423Z</time></trkpt><trkpt lat="30.9881967" lon="-7.1047517"><ele>1215.0</ele><time>2026-04-24T16:04:46.423Z</time></trkpt><trkpt lat="30.98804" lon="-7.104815"><ele>1214.6666666666667</ele><time>2026-04-24T16:04:47.423Z</time></trkpt><trkpt lat="30.9878967" lon="-7.10491"><ele>1214.3333333333335</ele><time>2026-04-24T16:04:48.423Z</time></trkpt><trkpt lat="30.9877633" lon="-7.10502"><ele>1214.0</ele><time>2026-04-24T16:04:49.423Z</time></trkpt><trkpt lat="30.9876383" lon="-7.1051383"><ele>1216.6666666666667</ele><time>2026-04-24T16:04:50.423Z</time></trkpt><trkpt lat="30.9875117" lon="-7.105255"><ele>1219.3333333333333</ele><time>2026-04-24T16:04:51.423Z</time></trkpt><trkpt lat="30.987385" lon="-7.1053717"><ele>1222.0</ele><time>2026-04-24T16:04:52.423Z</time></trkpt><trkpt lat="30.9872533" lon="-7.10547"><ele>1222.0</ele><time>2026-04-24T16:04:53.423Z</time></trkpt><trkpt lat="30.9871017" lon="-7.105555"><ele>1222.0</ele><time>2026-04-24T16:04:54.423Z</time></trkpt><trkpt lat="30.9869467" lon="-7.105645"><ele>1222.0</ele><time>2026-04-24T16:04:55.423Z</time></trkpt><trkpt lat="30.986785" lon="-7.1056883"><ele>1222.6666666666665</ele><time>2026-04-24T16:04:56.423Z</time></trkpt><trkpt lat="30.986615" lon="-7.1057383"><ele>1223.3333333333333</ele><time>2026-04-24T16:04:57.423Z</time></trkpt><trkpt lat="30.98644" lon="-7.1057917"><ele>1224.0</ele><time>2026-04-24T16:04:58.423Z</time></trkpt><trkpt lat="30.9862667" lon="-7.1058417"><ele>1224.0</ele><time>2026-04-24T16:04:59.423Z</time></trkpt><trkpt lat="30.9860867" lon="-7.1058917"><ele>1224.0</ele><time>2026-04-24T16:05:00.423Z</time></trkpt><trkpt lat="30.9859117" lon="-7.105945"><ele>1224.0</ele><time>2026-04-24T16:05:01.423Z</time></trkpt><trkpt lat="30.985735" lon="-7.1059883"><ele>1221.3333333333333</ele><time>2026-04-24T16:05:02.423Z</time></trkpt><trkpt lat="30.985565" lon="-7.1060317"><ele>1218.6666666666665</ele><time>2026-04-24T16:05:03.423Z</time></trkpt><trkpt lat="30.9853917" lon="-7.1060817"><ele>1216.0</ele><time>2026-04-24T16:05:04.423Z</time></trkpt><trkpt lat="30.985225" lon="-7.106125"><ele>1216.0</ele><time>2026-04-24T16:05:05.423Z</time></trkpt><trkpt lat="30.9850567" lon="-7.1061617"><ele>1216.0</ele><time>2026-04-24T16:05:06.423Z</time></trkpt><trkpt lat="30.98488" lon="-7.1062017"><ele>1216.0</ele><time>2026-04-24T16:05:07.423Z</time></trkpt><trkpt lat="30.9847" lon="-7.10623"><ele>1216.0</ele><time>2026-04-24T16:05:08.423Z</time></trkpt><trkpt lat="30.9845167" lon="-7.10624"><ele>1216.0</ele><time>2026-04-24T16:05:09.423Z</time></trkpt><trkpt lat="30.9843317" lon="-7.1062317"><ele>1216.0</ele><time>2026-04-24T16:05:10.423Z</time></trkpt><trkpt lat="30.9841433" lon="-7.1062067"><ele>1216.0</ele><time>2026-04-24T16:05:11.423Z</time></trkpt><trkpt lat="30.9839483" lon="-7.1061667"><ele>1216.0</ele><time>2026-04-24T16:05:12.423Z</time></trkpt><trkpt lat="30.9837533" lon="-7.10612"><ele>1216.0</ele><time>2026-04-24T16:05:13.423Z</time></trkpt><trkpt lat="30.983555" lon="-7.10607"><ele>1216.0</ele><time>2026-04-24T16:05:14.423Z</time></trkpt><trkpt lat="30.9833567" lon="-7.1060167"><ele>1216.0</ele><time>2026-04-24T16:05:15.423Z</time></trkpt><trkpt lat="30.9831617" lon="-7.10597"><ele>1216.0</ele><time>2026-04-24T16:05:16.423Z</time></trkpt><trkpt lat="30.9829717" lon="-7.1059283"><ele>1215.6666666666665</ele><time>2026-04-24T16:05:17.423Z</time></trkpt><trkpt lat="30.9827883" lon="-7.1058867"><ele>1215.3333333333333</ele><time>2026-04-24T16:05:18.423Z</time></trkpt><trkpt lat="30.9826133" lon="-7.1058367"><ele>1215.0</ele><time>2026-04-24T16:05:19.423Z</time></trkpt><trkpt lat="30.9824467" lon="-7.105785"><ele>1214.3333333333333</ele><time>2026-04-24T16:05:20.423Z</time></trkpt><trkpt lat="30.9822767" lon="-7.10572"><ele>1213.6666666666665</ele><time>2026-04-24T16:05:21.423Z</time></trkpt><trkpt lat="30.9821067" lon="-7.105635"><ele>1213.0</ele><time>2026-04-24T16:05:22.423Z</time></trkpt><trkpt lat="30.9819417" lon="-7.10553"><ele>1213.0</ele><time>2026-04-24T16:05:23.423Z</time></trkpt><trkpt lat="30.98178" lon="-7.1054133"><ele>1213.0</ele><time>2026-04-24T16:05:24.423Z</time></trkpt><trkpt lat="30.981625" lon="-7.10528"><ele>1213.0</ele><time>2026-04-24T16:05:25.423Z</time></trkpt><trkpt lat="30.9814617" lon="-7.1051483"><ele>1213.6666666666665</ele><time>2026-04-24T16:05:26.423Z</time></trkpt><trkpt lat="30.9812967" lon="-7.10501"><ele>1214.3333333333333</ele><time>2026-04-24T16:05:27.422Z</time></trkpt><trkpt lat="30.9811367" lon="-7.1048617"><ele>1215.0</ele><time>2026-04-24T16:05:28.422Z</time></trkpt><trkpt lat="30.9809867" lon="-7.104715"><ele>1214.3333333333333</ele><time>2026-04-24T16:05:29.422Z</time></trkpt><trkpt lat="30.98084" lon="-7.104575"><ele>1213.6666666666665</ele><time>2026-04-24T16:05:30.422Z</time></trkpt><trkpt lat="30.9807" lon="-7.1044383"><ele>1213.0</ele><time>2026-04-24T16:05:31.422Z</time></trkpt><trkpt lat="30.9805717" lon="-7.104295"><ele>1213.0</ele><time>2026-04-24T16:05:32.422Z</time></trkpt><trkpt lat="30.98045" lon="-7.10415"><ele>1213.0</ele><time>2026-04-24T16:05:33.422Z</time></trkpt><trkpt lat="30.98033" lon="-7.1040183"><ele>1213.0</ele><time>2026-04-24T16:05:34.422Z</time></trkpt><trkpt lat="30.9802083" lon="-7.1039017"><ele>1213.3333333333333</ele><time>2026-04-24T16:05:35.422Z</time></trkpt><trkpt lat="30.9800883" lon="-7.10378"><ele>1213.6666666666667</ele><time>2026-04-24T16:05:36.422Z</time></trkpt><trkpt lat="30.97996" lon="-7.1036783"><ele>1214.0</ele><time>2026-04-24T16:05:37.422Z</time></trkpt><trkpt lat="30.979825" lon="-7.1036033"><ele>1214.0</ele><time>2026-04-24T16:05:38.422Z</time></trkpt><trkpt lat="30.979685" lon="-7.1035567"><ele>1214.0</ele><time>2026-04-24T16:05:39.422Z</time></trkpt><trkpt lat="30.979535" lon="-7.103535"><ele>1214.0</ele><time>2026-04-24T16:05:40.422Z</time></trkpt><trkpt lat="30.9793867" lon="-7.1035267"><ele>1214.0</ele><time>2026-04-24T16:05:41.422Z</time></trkpt><trkpt lat="30.9792467" lon="-7.103545"><ele>1214.75</ele><time>2026-04-24T16:05:42.422Z</time></trkpt><trkpt lat="30.9791067" lon="-7.1035783"><ele>1215.5</ele><time>2026-04-24T16:05:43.422Z</time></trkpt><trkpt lat="30.97897" lon="-7.1036183"><ele>1216.25</ele><time>2026-04-24T16:05:44.422Z</time></trkpt><trkpt lat="30.9788417" lon="-7.1036667"><ele>1217.0</ele><time>2026-04-24T16:05:45.422Z</time></trkpt><trkpt lat="30.97872" lon="-7.1037283"><ele>1217.0</ele><time>2026-04-24T16:05:46.422Z</time></trkpt><trkpt lat="30.978595" lon="-7.1037817"><ele>1217.0</ele><time>2026-04-24T16:05:47.422Z</time></trkpt><trkpt lat="30.9784667" lon="-7.1038333"><ele>1217.0</ele><time>2026-04-24T16:05:48.422Z</time></trkpt><trkpt lat="30.9783367" lon="-7.10388"><ele>1217.0</ele><time>2026-04-24T16:05:49.423Z</time></trkpt><trkpt lat="30.9782017" lon="-7.1039217"><ele>1216.5</ele><time>2026-04-24T16:05:50.422Z</time></trkpt><trkpt lat="30.9780667" lon="-7.10397"><ele>1216.0</ele><time>2026-04-24T16:05:51.422Z</time></trkpt><trkpt lat="30.9779317" lon="-7.1040067"><ele>1215.5</ele><time>2026-04-24T16:05:52.423Z</time></trkpt><trkpt lat="30.9777917" lon="-7.1040483"><ele>1215.0</ele><time>2026-04-24T16:05:53.422Z</time></trkpt><trkpt lat="30.9776567" lon="-7.1040783"><ele>1215.25</ele><time>2026-04-24T16:05:54.422Z</time></trkpt><trkpt lat="30.977525" lon="-7.1041067"><ele>1215.5</ele><time>2026-04-24T16:05:55.422Z</time></trkpt><trkpt lat="30.9774" lon="-7.10413"><ele>1215.75</ele><time>2026-04-24T16:05:56.422Z</time></trkpt><trkpt lat="30.9772783" lon="-7.10415"><ele>1216.0</ele><time>2026-04-24T16:05:57.422Z</time></trkpt><trkpt lat="30.977155" lon="-7.1041667"><ele>1215.5</ele><time>2026-04-24T16:05:58.422Z</time></trkpt><trkpt lat="30.9770333" lon="-7.1041817"><ele>1215.0</ele><time>2026-04-24T16:05:59.422Z</time></trkpt><trkpt lat="30.976905" lon="-7.1041983"><ele>1214.5</ele><time>2026-04-24T16:06:00.422Z</time></trkpt><trkpt lat="30.97678" lon="-7.104215"><ele>1214.0</ele><time>2026-04-24T16:06:01.422Z</time></trkpt><trkpt lat="30.9766583" lon="-7.104235"><ele>1213.5</ele><time>2026-04-24T16:06:02.422Z</time></trkpt><trkpt lat="30.9765333" lon="-7.1042517"><ele>1213.0</ele><time>2026-04-24T16:06:03.422Z</time></trkpt><trkpt lat="30.9764033" lon="-7.104265"><ele>1212.5</ele><time>2026-04-24T16:06:04.422Z</time></trkpt><trkpt lat="30.9762733" lon="-7.104285"><ele>1212.0</ele><time>2026-04-24T16:06:05.422Z</time></trkpt><trkpt lat="30.9761517" lon="-7.1043017"><ele>1212.0</ele><time>2026-04-24T16:06:06.422Z</time></trkpt><trkpt lat="30.97602" lon="-7.10432"><ele>1212.0</ele><time>2026-04-24T16:06:07.422Z</time></trkpt><trkpt lat="30.9758833" lon="-7.1043333"><ele>1212.0</ele><time>2026-04-24T16:06:08.422Z</time></trkpt><trkpt lat="30.9757533" lon="-7.10435"><ele>1212.0</ele><time>2026-04-24T16:06:09.422Z</time></trkpt><trkpt lat="30.9756217" lon="-7.104375"><ele>1211.8</ele><time>2026-04-24T16:06:10.422Z</time></trkpt><trkpt lat="30.9755067" lon="-7.1043883"><ele>1211.6</ele><time>2026-04-24T16:06:11.422Z</time></trkpt><trkpt lat="30.9753983" lon="-7.1044117"><ele>1211.3999999999999</ele><time>2026-04-24T16:06:12.422Z</time></trkpt><trkpt lat="30.9752967" lon="-7.104435"><ele>1211.2</ele><time>2026-04-24T16:06:13.422Z</time></trkpt><trkpt lat="30.9752033" lon="-7.104465"><ele>1211.0</ele><time>2026-04-24T16:06:14.422Z</time></trkpt><trkpt lat="30.975125" lon="-7.10449"><ele>1211.0</ele><time>2026-04-24T16:06:15.422Z</time></trkpt><trkpt lat="30.9750633" lon="-7.1045117"><ele>1211.0</ele><time>2026-04-24T16:06:16.422Z</time></trkpt><trkpt lat="30.9749717" lon="-7.1045133"><ele>1211.0</ele><time>2026-04-24T16:06:18.422Z</time></trkpt><trkpt lat="30.9749017" lon="-7.1044567"><ele>1211.0</ele><time>2026-04-24T16:06:20.422Z</time></trkpt><trkpt lat="30.9748667" lon="-7.104325"><ele>1211.0</ele><time>2026-04-24T16:06:22.422Z</time></trkpt><trkpt lat="30.9748583" lon="-7.1042417"><ele>1211.0</ele><time>2026-04-24T16:06:23.422Z</time></trkpt><trkpt lat="30.9748633" lon="-7.10415"><ele>1210.8333333333335</ele><time>2026-04-24T16:06:24.422Z</time></trkpt><trkpt lat="30.9748783" lon="-7.104055"><ele>1210.6666666666667</ele><time>2026-04-24T16:06:25.422Z</time></trkpt><trkpt lat="30.9748883" lon="-7.1039533"><ele>1210.5</ele><time>2026-04-24T16:06:26.422Z</time></trkpt><trkpt lat="30.9748967" lon="-7.103855"><ele>1210.3333333333333</ele><time>2026-04-24T16:06:27.422Z</time></trkpt><trkpt lat="30.9749067" lon="-7.103755"><ele>1210.1666666666665</ele><time>2026-04-24T16:06:28.422Z</time></trkpt><trkpt lat="30.9749217" lon="-7.1036583"><ele>1210.0</ele><time>2026-04-24T16:06:29.422Z</time></trkpt><trkpt lat="30.9749317" lon="-7.1035583"><ele>1210.0</ele><time>2026-04-24T16:06:30.422Z</time></trkpt><trkpt lat="30.97495" lon="-7.10346"><ele>1210.0</ele><time>2026-04-24T16:06:31.422Z</time></trkpt><trkpt lat="30.974965" lon="-7.1033633"><ele>1210.0</ele><time>2026-04-24T16:06:32.422Z</time></trkpt><trkpt lat="30.974965" lon="-7.10326"><ele>1210.0</ele><time>2026-04-24T16:06:33.422Z</time></trkpt><trkpt lat="30.974965" lon="-7.1031467"><ele>1210.0</ele><time>2026-04-24T16:06:34.422Z</time></trkpt><trkpt lat="30.9749783" lon="-7.1030317"><ele>1210.0</ele><time>2026-04-24T16:06:35.422Z</time></trkpt><trkpt lat="30.9749933" lon="-7.1029117"><ele>1210.0</ele><time>2026-04-24T16:06:36.422Z</time></trkpt><trkpt lat="30.9750017" lon="-7.102795"><ele>1210.0</ele><time>2026-04-24T16:06:37.422Z</time></trkpt><trkpt lat="30.9750167" lon="-7.1026783"><ele>1210.0</ele><time>2026-04-24T16:06:38.422Z</time></trkpt><trkpt lat="30.9750267" lon="-7.102575"><ele>1210.0</ele><time>2026-04-24T16:06:39.422Z</time></trkpt><trkpt lat="30.9750333" lon="-7.10247"><ele>1209.8333333333333</ele><time>2026-04-24T16:06:40.422Z</time></trkpt><trkpt lat="30.9750417" lon="-7.102375"><ele>1209.6666666666665</ele><time>2026-04-24T16:06:41.422Z</time></trkpt><trkpt lat="30.97505" lon="-7.1022833"><ele>1209.5</ele><time>2026-04-24T16:06:42.422Z</time></trkpt><trkpt lat="30.9750583" lon="-7.102195"><ele>1209.3333333333333</ele><time>2026-04-24T16:06:43.422Z</time></trkpt><trkpt lat="30.9750683" lon="-7.1021067"><ele>1209.1666666666667</ele><time>2026-04-24T16:06:44.422Z</time></trkpt><trkpt lat="30.9750767" lon="-7.10201"><ele>1209.0</ele><time>2026-04-24T16:06:45.422Z</time></trkpt><trkpt lat="30.975085" lon="-7.1019"><ele>1209.0</ele><time>2026-04-24T16:06:46.422Z</time></trkpt><trkpt lat="30.9751" lon="-7.1017883"><ele>1209.0</ele><time>2026-04-24T16:06:47.423Z</time></trkpt><trkpt lat="30.975115" lon="-7.1016633"><ele>1209.0</ele><time>2026-04-24T16:06:48.422Z</time></trkpt><trkpt lat="30.9751317" lon="-7.1015283"><ele>1209.0</ele><time>2026-04-24T16:06:49.422Z</time></trkpt><trkpt lat="30.9751467" lon="-7.1013867"><ele>1209.0</ele><time>2026-04-24T16:06:50.423Z</time></trkpt><trkpt lat="30.97516" lon="-7.10124"><ele>1208.0</ele><time>2026-04-24T16:06:51.422Z</time></trkpt><trkpt lat="30.975175" lon="-7.10108"><ele>1207.0</ele><time>2026-04-24T16:06:52.422Z</time></trkpt><trkpt lat="30.9751933" lon="-7.100915"><ele>1206.0</ele><time>2026-04-24T16:06:53.422Z</time></trkpt><trkpt lat="30.9752167" lon="-7.1007417"><ele>1205.0</ele><time>2026-04-24T16:06:54.422Z</time></trkpt><trkpt lat="30.975235" lon="-7.1005717"><ele>1204.75</ele><time>2026-04-24T16:06:55.422Z</time></trkpt><trkpt lat="30.9752517" lon="-7.1004083"><ele>1204.5</ele><time>2026-04-24T16:06:56.422Z</time></trkpt><trkpt lat="30.97527" lon="-7.1002467"><ele>1204.25</ele><time>2026-04-24T16:06:57.422Z</time></trkpt><trkpt lat="30.9752883" lon="-7.1000867"><ele>1204.0</ele><time>2026-04-24T16:06:58.422Z</time></trkpt><trkpt lat="30.97531" lon="-7.099925"><ele>1204.25</ele><time>2026-04-24T16:06:59.422Z</time></trkpt><trkpt lat="30.9753267" lon="-7.099765"><ele>1204.5</ele><time>2026-04-24T16:07:00.422Z</time></trkpt><trkpt lat="30.975345" lon="-7.0996"><ele>1204.75</ele><time>2026-04-24T16:07:01.422Z</time></trkpt><trkpt lat="30.9753567" lon="-7.099435"><ele>1205.0</ele><time>2026-04-24T16:07:02.423Z</time></trkpt><trkpt lat="30.97537" lon="-7.0992733"><ele>1205.0</ele><time>2026-04-24T16:07:03.422Z</time></trkpt><trkpt lat="30.9753917" lon="-7.0991083"><ele>1205.0</ele><time>2026-04-24T16:07:04.422Z</time></trkpt><trkpt lat="30.97541" lon="-7.0989567"><ele>1205.0</ele><time>2026-04-24T16:07:05.422Z</time></trkpt><trkpt lat="30.97543" lon="-7.0988"><ele>1205.0</ele><time>2026-04-24T16:07:06.422Z</time></trkpt><trkpt lat="30.97545" lon="-7.0986483"><ele>1205.5</ele><time>2026-04-24T16:07:07.423Z</time></trkpt><trkpt lat="30.97547" lon="-7.0984933"><ele>1206.0</ele><time>2026-04-24T16:07:08.422Z</time></trkpt><trkpt lat="30.9754833" lon="-7.09834"><ele>1206.5</ele><time>2026-04-24T16:07:09.422Z</time></trkpt><trkpt lat="30.9755" lon="-7.0981883"><ele>1207.0</ele><time>2026-04-24T16:07:10.422Z</time></trkpt><trkpt lat="30.9755133" lon="-7.098035"><ele>1208.75</ele><time>2026-04-24T16:07:11.422Z</time></trkpt><trkpt lat="30.9755267" lon="-7.0978867"><ele>1210.5</ele><time>2026-04-24T16:07:12.422Z</time></trkpt><trkpt lat="30.9755367" lon="-7.097745"><ele>1212.25</ele><time>2026-04-24T16:07:13.422Z</time></trkpt><trkpt lat="30.9755517" lon="-7.0976067"><ele>1214.0</ele><time>2026-04-24T16:07:14.422Z</time></trkpt><trkpt lat="30.9755667" lon="-7.09747"><ele>1214.25</ele><time>2026-04-24T16:07:15.422Z</time></trkpt><trkpt lat="30.9755817" lon="-7.0973367"><ele>1214.5</ele><time>2026-04-24T16:07:16.422Z</time></trkpt><trkpt lat="30.9755933" lon="-7.0972083"><ele>1214.75</ele><time>2026-04-24T16:07:17.422Z</time></trkpt><trkpt lat="30.9756067" lon="-7.09707"><ele>1215.0</ele><time>2026-04-24T16:07:18.422Z</time></trkpt><trkpt lat="30.9756217" lon="-7.0969267"><ele>1215.0</ele><time>2026-04-24T16:07:19.423Z</time></trkpt><trkpt lat="30.9756383" lon="-7.0967833"><ele>1215.0</ele><time>2026-04-24T16:07:20.422Z</time></trkpt><trkpt lat="30.9756533" lon="-7.096635"><ele>1215.0</ele><time>2026-04-24T16:07:21.422Z</time></trkpt><trkpt lat="30.9756717" lon="-7.0964833"><ele>1215.0</ele><time>2026-04-24T16:07:22.422Z</time></trkpt><trkpt lat="30.9756933" lon="-7.096325"><ele>1215.5</ele><time>2026-04-24T16:07:23.422Z</time></trkpt><trkpt lat="30.9757067" lon="-7.0961683"><ele>1216.0</ele><time>2026-04-24T16:07:24.423Z</time></trkpt><trkpt lat="30.97572" lon="-7.09601"><ele>1216.5</ele><time>2026-04-24T16:07:25.422Z</time></trkpt><trkpt lat="30.97573" lon="-7.0958517"><ele>1217.0</ele><time>2026-04-24T16:07:26.422Z</time></trkpt><trkpt lat="30.97575" lon="-7.095685"><ele>1218.0</ele><time>2026-04-24T16:07:27.422Z</time></trkpt><trkpt lat="30.97577" lon="-7.0955117"><ele>1219.0</ele><time>2026-04-24T16:07:28.422Z</time></trkpt><trkpt lat="30.9757867" lon="-7.0953317"><ele>1220.0</ele><time>2026-04-24T16:07:29.422Z</time></trkpt><trkpt lat="30.975805" lon="-7.0951433"><ele>1220.0</ele><time>2026-04-24T16:07:30.422Z</time></trkpt><trkpt lat="30.9758117" lon="-7.0949483"><ele>1220.0</ele><time>2026-04-24T16:07:31.422Z</time></trkpt><trkpt lat="30.975815" lon="-7.0947483"><ele>1220.0</ele><time>2026-04-24T16:07:32.422Z</time></trkpt><trkpt lat="30.9758017" lon="-7.0945567"><ele>1221.3333333333335</ele><time>2026-04-24T16:07:33.422Z</time></trkpt><trkpt lat="30.97576" lon="-7.0943617"><ele>1222.6666666666667</ele><time>2026-04-24T16:07:34.422Z</time></trkpt><trkpt lat="30.9756917" lon="-7.0941617"><ele>1224.0</ele><time>2026-04-24T16:07:35.422Z</time></trkpt><trkpt lat="30.9756033" lon="-7.093985"><ele>1225.3333333333333</ele><time>2026-04-24T16:07:36.422Z</time></trkpt><trkpt lat="30.9754883" lon="-7.0938083"><ele>1226.6666666666665</ele><time>2026-04-24T16:07:37.422Z</time></trkpt><trkpt lat="30.9753483" lon="-7.0936567"><ele>1228.0</ele><time>2026-04-24T16:07:38.422Z</time></trkpt><trkpt lat="30.9751767" lon="-7.0935267"><ele>1227.0</ele><time>2026-04-24T16:07:39.422Z</time></trkpt><trkpt lat="30.974985" lon="-7.09342"><ele>1226.0</ele><time>2026-04-24T16:07:40.422Z</time></trkpt><trkpt lat="30.9747833" lon="-7.093325"><ele>1225.0</ele><time>2026-04-24T16:07:41.422Z</time></trkpt><trkpt lat="30.974585" lon="-7.0932333"><ele>1227.0</ele><time>2026-04-24T16:07:42.422Z</time></trkpt><trkpt lat="30.9743933" lon="-7.0931533"><ele>1229.0</ele><time>2026-04-24T16:07:43.422Z</time></trkpt><trkpt lat="30.9742133" lon="-7.09308"><ele>1231.0</ele><time>2026-04-24T16:07:44.422Z</time></trkpt><trkpt lat="30.97404" lon="-7.093015"><ele>1232.3333333333333</ele><time>2026-04-24T16:07:45.422Z</time></trkpt><trkpt lat="30.9738683" lon="-7.0929433"><ele>1233.6666666666667</ele><time>2026-04-24T16:07:46.422Z</time></trkpt><trkpt lat="30.9736983" lon="-7.0928833"><ele>1235.0</ele><time>2026-04-24T16:07:47.422Z</time></trkpt><trkpt lat="30.97353" lon="-7.0928183"><ele>1235.0</ele><time>2026-04-24T16:07:48.422Z</time></trkpt><trkpt lat="30.973365" lon="-7.0927533"><ele>1235.0</ele><time>2026-04-24T16:07:49.422Z</time></trkpt><trkpt lat="30.9732017" lon="-7.0926833"><ele>1235.0</ele><time>2026-04-24T16:07:50.422Z</time></trkpt><trkpt lat="30.9730333" lon="-7.0926083"><ele>1237.3333333333335</ele><time>2026-04-24T16:07:51.422Z</time></trkpt><trkpt lat="30.972865" lon="-7.09254"><ele>1239.6666666666667</ele><time>2026-04-24T16:07:52.422Z</time></trkpt><trkpt lat="30.972695" lon="-7.0924717"><ele>1242.0</ele><time>2026-04-24T16:07:53.422Z</time></trkpt><trkpt lat="30.9725233" lon="-7.0924083"><ele>1250.6666666666667</ele><time>2026-04-24T16:07:54.422Z</time></trkpt><trkpt lat="30.9723517" lon="-7.09234"><ele>1259.3333333333335</ele><time>2026-04-24T16:07:55.422Z</time></trkpt><trkpt lat="30.9722033" lon="-7.09227"><ele>1268.0</ele><time>2026-04-24T16:07:56.422Z</time></trkpt><trkpt lat="30.9720533" lon="-7.0922133"><ele>1268.0</ele><time>2026-04-24T16:07:57.422Z</time></trkpt><trkpt lat="30.97191" lon="-7.0921833"><ele>1268.0</ele><time>2026-04-24T16:07:58.422Z</time></trkpt><trkpt lat="30.9717717" lon="-7.0921883"><ele>1268.0</ele><time>2026-04-24T16:07:59.423Z</time></trkpt><trkpt lat="30.9716333" lon="-7.0922167"><ele>1268.0</ele><time>2026-04-24T16:08:00.422Z</time></trkpt><trkpt lat="30.971495" lon="-7.0922467"><ele>1266.75</ele><time>2026-04-24T16:08:01.422Z</time></trkpt><trkpt lat="30.9713617" lon="-7.0922683"><ele>1265.5</ele><time>2026-04-24T16:08:02.422Z</time></trkpt><trkpt lat="30.9712333" lon="-7.09228"><ele>1264.25</ele><time>2026-04-24T16:08:03.422Z</time></trkpt><trkpt lat="30.9711033" lon="-7.09226"><ele>1263.0</ele><time>2026-04-24T16:08:04.422Z</time></trkpt><trkpt lat="30.9709783" lon="-7.0922033"><ele>1263.0</ele><time>2026-04-24T16:08:05.422Z</time></trkpt><trkpt lat="30.9708667" lon="-7.0921217"><ele>1263.0</ele><time>2026-04-24T16:08:06.422Z</time></trkpt><trkpt lat="30.970785" lon="-7.0920017"><ele>1263.0</ele><time>2026-04-24T16:08:07.422Z</time></trkpt><trkpt lat="30.97073" lon="-7.09186"><ele>1263.0</ele><time>2026-04-24T16:08:08.422Z</time></trkpt><trkpt lat="30.9706867" lon="-7.0917067"><ele>1264.75</ele><time>2026-04-24T16:08:09.422Z</time></trkpt><trkpt lat="30.970655" lon="-7.09155"><ele>1266.5</ele><time>2026-04-24T16:08:10.422Z</time></trkpt><trkpt lat="30.9706317" lon="-7.0913917"><ele>1268.25</ele><time>2026-04-24T16:08:11.422Z</time></trkpt><trkpt lat="30.9706183" lon="-7.0912283"><ele>1270.0</ele><time>2026-04-24T16:08:12.422Z</time></trkpt><trkpt lat="30.970605" lon="-7.09107"><ele>1270.0</ele><time>2026-04-24T16:08:13.422Z</time></trkpt><trkpt lat="30.97058" lon="-7.0909183"><ele>1270.0</ele><time>2026-04-24T16:08:14.422Z</time></trkpt><trkpt lat="30.9705283" lon="-7.0907733"><ele>1270.0</ele><time>2026-04-24T16:08:15.422Z</time></trkpt><trkpt lat="30.970455" lon="-7.0906267"><ele>1270.0</ele><time>2026-04-24T16:08:16.422Z</time></trkpt><trkpt lat="30.9703633" lon="-7.0904817"><ele>1277.0</ele><time>2026-04-24T16:08:17.422Z</time></trkpt><trkpt lat="30.97028" lon="-7.0903267"><ele>1284.0</ele><time>2026-04-24T16:08:18.422Z</time></trkpt><trkpt lat="30.97021" lon="-7.090155"><ele>1291.0</ele><time>2026-04-24T16:08:19.422Z</time></trkpt><trkpt lat="30.9701467" lon="-7.0899683"><ele>1296.3333333333333</ele><time>2026-04-24T16:08:20.423Z</time></trkpt><trkpt lat="30.9700917" lon="-7.0897783"><ele>1301.6666666666667</ele><time>2026-04-24T16:08:21.422Z</time></trkpt><trkpt lat="30.970045" lon="-7.0895817"><ele>1307.0</ele><time>2026-04-24T16:08:22.422Z</time></trkpt><trkpt lat="30.970005" lon="-7.08937"><ele>1300.0</ele><time>2026-04-24T16:08:23.422Z</time></trkpt><trkpt lat="30.9699667" lon="-7.0891567"><ele>1293.0</ele><time>2026-04-24T16:08:24.422Z</time></trkpt><trkpt lat="30.9699167" lon="-7.088935"><ele>1286.0</ele><time>2026-04-24T16:08:25.422Z</time></trkpt><trkpt lat="30.9698367" lon="-7.0887233"><ele>1286.0</ele><time>2026-04-24T16:08:26.422Z</time></trkpt><trkpt lat="30.9697367" lon="-7.08852"><ele>1286.0</ele><time>2026-04-24T16:08:27.422Z</time></trkpt><trkpt lat="30.9696467" lon="-7.0883167"><ele>1286.0</ele><time>2026-04-24T16:08:28.422Z</time></trkpt><trkpt lat="30.9695717" lon="-7.0881083"><ele>1293.6666666666667</ele><time>2026-04-24T16:08:29.422Z</time></trkpt><trkpt lat="30.9694967" lon="-7.0878933"><ele>1301.3333333333333</ele><time>2026-04-24T16:08:30.422Z</time></trkpt><trkpt lat="30.9694267" lon="-7.087675"><ele>1309.0</ele><time>2026-04-24T16:08:31.422Z</time></trkpt><trkpt lat="30.9693533" lon="-7.0874517"><ele>1311.6666666666665</ele><time>2026-04-24T16:08:32.422Z</time></trkpt><trkpt lat="30.9692767" lon="-7.087225"><ele>1314.3333333333333</ele><time>2026-04-24T16:08:33.422Z</time></trkpt><trkpt lat="30.9691917" lon="-7.0869983"><ele>1317.0</ele><time>2026-04-24T16:08:34.422Z</time></trkpt><trkpt lat="30.9690983" lon="-7.08679"><ele>1310.0</ele><time>2026-04-24T16:08:35.422Z</time></trkpt><trkpt lat="30.9690067" lon="-7.0865983"><ele>1303.0</ele><time>2026-04-24T16:08:36.422Z</time></trkpt><trkpt lat="30.9689117" lon="-7.0864217"><ele>1296.0</ele><time>2026-04-24T16:08:37.423Z</time></trkpt><trkpt lat="30.9688117" lon="-7.0862533"><ele>1296.0</ele><time>2026-04-24T16:08:38.422Z</time></trkpt><trkpt lat="30.9687267" lon="-7.0860767"><ele>1296.0</ele><time>2026-04-24T16:08:39.422Z</time></trkpt><trkpt lat="30.9686483" lon="-7.08589"><ele>1296.0</ele><time>2026-04-24T16:08:40.422Z</time></trkpt><trkpt lat="30.9685683" lon="-7.085695"><ele>1293.0</ele><time>2026-04-24T16:08:41.422Z</time></trkpt><trkpt lat="30.9684883" lon="-7.085505"><ele>1290.0</ele><time>2026-04-24T16:08:42.422Z</time></trkpt><trkpt lat="30.968415" lon="-7.0853117"><ele>1287.0</ele><time>2026-04-24T16:08:43.422Z</time></trkpt><trkpt lat="30.96836" lon="-7.0851167"><ele>1283.0</ele><time>2026-04-24T16:08:44.422Z</time></trkpt><trkpt lat="30.9683217" lon="-7.0849217"><ele>1279.0</ele><time>2026-04-24T16:08:45.422Z</time></trkpt><trkpt lat="30.9682983" lon="-7.08473"><ele>1275.0</ele><time>2026-04-24T16:08:46.422Z</time></trkpt><trkpt lat="30.9682833" lon="-7.0845317"><ele>1275.0</ele><time>2026-04-24T16:08:47.422Z</time></trkpt><trkpt lat="30.9682683" lon="-7.0843217"><ele>1275.0</ele><time>2026-04-24T16:08:48.422Z</time></trkpt><trkpt lat="30.96825" lon="-7.0841033"><ele>1275.0</ele><time>2026-04-24T16:08:49.423Z</time></trkpt><trkpt lat="30.968235" lon="-7.0838767"><ele>1274.3333333333333</ele><time>2026-04-24T16:08:50.422Z</time></trkpt><trkpt lat="30.968215" lon="-7.08364"><ele>1273.6666666666665</ele><time>2026-04-24T16:08:51.422Z</time></trkpt><trkpt lat="30.968195" lon="-7.0834017"><ele>1273.0</ele><time>2026-04-24T16:08:52.422Z</time></trkpt><trkpt lat="30.96818" lon="-7.0831683"><ele>1273.0</ele><time>2026-04-24T16:08:53.422Z</time></trkpt><trkpt lat="30.9681633" lon="-7.0829383"><ele>1273.0</ele><time>2026-04-24T16:08:54.422Z</time></trkpt><trkpt lat="30.9681567" lon="-7.082725"><ele>1273.0</ele><time>2026-04-24T16:08:55.422Z</time></trkpt><trkpt lat="30.9681717" lon="-7.0825067"><ele>1273.0</ele><time>2026-04-24T16:08:56.422Z</time></trkpt><trkpt lat="30.9682033" lon="-7.0823033"><ele>1273.0</ele><time>2026-04-24T16:08:57.422Z</time></trkpt><trkpt lat="30.9682417" lon="-7.082115"><ele>1273.0</ele><time>2026-04-24T16:08:58.422Z</time></trkpt><trkpt lat="30.96829" lon="-7.081935"><ele>1273.0</ele><time>2026-04-24T16:08:59.422Z</time></trkpt><trkpt lat="30.968325" lon="-7.0817517"><ele>1273.0</ele><time>2026-04-24T16:09:00.423Z</time></trkpt><trkpt lat="30.968345" lon="-7.08156"><ele>1273.0</ele><time>2026-04-24T16:09:01.422Z</time></trkpt><trkpt lat="30.9683517" lon="-7.08136"><ele>1271.3333333333333</ele><time>2026-04-24T16:09:02.422Z</time></trkpt><trkpt lat="30.9683367" lon="-7.0811433"><ele>1269.6666666666667</ele><time>2026-04-24T16:09:03.422Z</time></trkpt><trkpt lat="30.9683233" lon="-7.0809217"><ele>1268.0</ele><time>2026-04-24T16:09:04.422Z</time></trkpt><trkpt lat="30.968315" lon="-7.0807067"><ele>1266.6666666666667</ele><time>2026-04-24T16:09:05.422Z</time></trkpt><trkpt lat="30.968295" lon="-7.0804917"><ele>1265.3333333333333</ele><time>2026-04-24T16:09:06.422Z</time></trkpt><trkpt lat="30.968275" lon="-7.0802833"><ele>1264.0</ele><time>2026-04-24T16:09:07.422Z</time></trkpt><trkpt lat="30.9682333" lon="-7.0800517"><ele>1261.6666666666665</ele><time>2026-04-24T16:09:08.422Z</time></trkpt><trkpt lat="30.9681867" lon="-7.0798217"><ele>1259.3333333333333</ele><time>2026-04-24T16:09:09.422Z</time></trkpt><trkpt lat="30.9681433" lon="-7.0795983"><ele>1257.0</ele><time>2026-04-24T16:09:10.422Z</time></trkpt><trkpt lat="30.968115" lon="-7.0793817"><ele>1257.0</ele><time>2026-04-24T16:09:11.422Z</time></trkpt><trkpt lat="30.9681" lon="-7.0791717"><ele>1257.0</ele><time>2026-04-24T16:09:12.422Z</time></trkpt><trkpt lat="30.9680983" lon="-7.0789583"><ele>1257.0</ele><time>2026-04-24T16:09:13.422Z</time></trkpt><trkpt lat="30.9681" lon="-7.078735"><ele>1257.0</ele><time>2026-04-24T16:09:14.422Z</time></trkpt><trkpt lat="30.968115" lon="-7.0784983"><ele>1257.0</ele><time>2026-04-24T16:09:15.422Z</time></trkpt><trkpt lat="30.9681433" lon="-7.07827"><ele>1257.0</ele><time>2026-04-24T16:09:16.422Z</time></trkpt><trkpt lat="30.9681783" lon="-7.0780283"><ele>1257.0</ele><time>2026-04-24T16:09:17.423Z</time></trkpt><trkpt lat="30.968215" lon="-7.0777967"><ele>1257.0</ele><time>2026-04-24T16:09:18.422Z</time></trkpt><trkpt lat="30.9682467" lon="-7.0775833"><ele>1257.0</ele><time>2026-04-24T16:09:19.422Z</time></trkpt><trkpt lat="30.9682767" lon="-7.077385"><ele>1257.0</ele><time>2026-04-24T16:09:20.422Z</time></trkpt><trkpt lat="30.9683167" lon="-7.0772017"><ele>1257.0</ele><time>2026-04-24T16:09:21.422Z</time></trkpt><trkpt lat="30.968385" lon="-7.0770317"><ele>1257.0</ele><time>2026-04-24T16:09:22.422Z</time></trkpt><trkpt lat="30.9684783" lon="-7.0768933"><ele>1260.5</ele><time>2026-04-24T16:09:23.422Z</time></trkpt><trkpt lat="30.9686017" lon="-7.0767833"><ele>1264.0</ele><time>2026-04-24T16:09:24.422Z</time></trkpt><trkpt lat="30.968735" lon="-7.0767083"><ele>1267.5</ele><time>2026-04-24T16:09:25.422Z</time></trkpt><trkpt lat="30.96886" lon="-7.0766383"><ele>1271.0</ele><time>2026-04-24T16:09:26.422Z</time></trkpt><trkpt lat="30.9689683" lon="-7.0765617"><ele>1271.3999999999999</ele><time>2026-04-24T16:09:27.422Z</time></trkpt><trkpt lat="30.9690517" lon="-7.076465"><ele>1271.8</ele><time>2026-04-24T16:09:28.422Z</time></trkpt><trkpt lat="30.9690933" lon="-7.0763583"><ele>1272.1999999999998</ele><time>2026-04-24T16:09:29.422Z</time></trkpt><trkpt lat="30.969095" lon="-7.0762367"><ele>1272.6</ele><time>2026-04-24T16:09:30.422Z</time></trkpt><trkpt lat="30.96905" lon="-7.0761183"><ele>1273.0</ele><time>2026-04-24T16:09:31.422Z</time></trkpt><trkpt lat="30.9689867" lon="-7.0760017"><ele>1273.0</ele><time>2026-04-24T16:09:32.422Z</time></trkpt><trkpt lat="30.9689333" lon="-7.0758867"><ele>1273.0</ele><time>2026-04-24T16:09:33.422Z</time></trkpt><trkpt lat="30.9689017" lon="-7.0757783"><ele>1273.0</ele><time>2026-04-24T16:09:34.422Z</time></trkpt><trkpt lat="30.96889" lon="-7.0756783"><ele>1273.0</ele><time>2026-04-24T16:09:35.422Z</time></trkpt><trkpt lat="30.9688867" lon="-7.0755933"><ele>1273.0</ele><time>2026-04-24T16:09:36.422Z</time></trkpt><trkpt lat="30.968895" lon="-7.0755083"><ele>1273.0</ele><time>2026-04-24T16:09:37.422Z</time></trkpt><trkpt lat="30.9689067" lon="-7.0754217"><ele>1272.0</ele><time>2026-04-24T16:09:38.422Z</time></trkpt><trkpt lat="30.9689283" lon="-7.0753433"><ele>1271.0</ele><time>2026-04-24T16:09:39.422Z</time></trkpt><trkpt lat="30.968965" lon="-7.075275"><ele>1270.0</ele><time>2026-04-24T16:09:40.422Z</time></trkpt><trkpt lat="30.9690417" lon="-7.075175"><ele>1269.0</ele><time>2026-04-24T16:09:42.422Z</time></trkpt><trkpt lat="30.9691083" lon="-7.075115"><ele>1268.0</ele><time>2026-04-24T16:09:44.422Z</time></trkpt><trkpt lat="30.969195" lon="-7.075075"><ele>1267.0</ele><time>2026-04-24T16:10:23.422Z</time></trkpt><trkpt lat="30.9692917" lon="-7.0750733"><ele>1267.0</ele><time>2026-04-24T16:10:26.422Z</time></trkpt><trkpt lat="30.9693617" lon="-7.0750733"><ele>1267.0</ele><time>2026-04-24T16:10:28.422Z</time></trkpt><trkpt lat="30.9694317" lon="-7.0750683"><ele>1267.0</ele><time>2026-04-24T16:10:30.423Z</time></trkpt><trkpt lat="30.9695117" lon="-7.0750583"><ele>1267.0</ele><time>2026-04-24T16:10:32.422Z</time></trkpt><trkpt lat="30.969605" lon="-7.07505"><ele>1267.0</ele><time>2026-04-24T16:10:34.422Z</time></trkpt><trkpt lat="30.9697" lon="-7.0750467"><ele>1267.0</ele><time>2026-04-24T16:10:36.422Z</time></trkpt><trkpt lat="30.9697983" lon="-7.07504"><ele>1267.0</ele><time>2026-04-24T16:10:38.422Z</time></trkpt><trkpt lat="30.96991" lon="-7.075025"><ele>1267.0</ele><time>2026-04-24T16:10:40.422Z</time></trkpt><trkpt lat="30.970015" lon="-7.075"><ele>1267.0</ele><time>2026-04-24T16:10:42.422Z</time></trkpt><trkpt lat="30.97012" lon="-7.0749683"><ele>1267.0</ele><time>2026-04-24T16:10:44.422Z</time></trkpt><trkpt lat="30.970225" lon="-7.0749267"><ele>1267.0</ele><time>2026-04-24T16:10:46.422Z</time></trkpt><trkpt lat="30.970325" lon="-7.0748833"><ele>1264.0</ele><time>2026-04-24T16:10:48.422Z</time></trkpt><trkpt lat="30.97043" lon="-7.0748317"><ele>1261.0</ele><time>2026-04-24T16:10:50.422Z</time></trkpt><trkpt lat="30.9705317" lon="-7.0747817"><ele>1258.0</ele><time>2026-04-24T16:10:52.422Z</time></trkpt><trkpt lat="30.970645" lon="-7.0747283"><ele>1255.0</ele><time>2026-04-24T16:10:54.422Z</time></trkpt><trkpt lat="30.970705" lon="-7.0747"><ele>1252.0</ele><time>2026-04-24T16:10:55.422Z</time></trkpt><trkpt lat="30.9707633" lon="-7.07467"><ele>1252.0</ele><time>2026-04-24T16:10:56.422Z</time></trkpt><trkpt lat="30.9708383" lon="-7.0746317"><ele>1252.0</ele><time>2026-04-24T16:10:57.422Z</time></trkpt><trkpt lat="30.9709317" lon="-7.074585"><ele>1252.0</ele><time>2026-04-24T16:10:58.422Z</time></trkpt><trkpt lat="30.971035" lon="-7.0745317"><ele>1252.0</ele><time>2026-04-24T16:10:59.422Z</time></trkpt><trkpt lat="30.97115" lon="-7.0744783"><ele>1252.0</ele><time>2026-04-24T16:11:00.422Z</time></trkpt><trkpt lat="30.97128" lon="-7.07442"><ele>1254.0</ele><time>2026-04-24T16:11:01.422Z</time></trkpt><trkpt lat="30.9714067" lon="-7.0743567"><ele>1256.0</ele><time>2026-04-24T16:11:02.422Z</time></trkpt><trkpt lat="30.9715267" lon="-7.074295"><ele>1258.0</ele><time>2026-04-24T16:11:03.422Z</time></trkpt><trkpt lat="30.9716317" lon="-7.0742317"><ele>1260.0</ele><time>2026-04-24T16:11:04.422Z</time></trkpt><trkpt lat="30.9717183" lon="-7.0741433"><ele>1262.25</ele><time>2026-04-24T16:11:05.422Z</time></trkpt><trkpt lat="30.97178" lon="-7.0740267"><ele>1264.5</ele><time>2026-04-24T16:11:06.422Z</time></trkpt><trkpt lat="30.97181" lon="-7.0739"><ele>1266.75</ele><time>2026-04-24T16:11:07.422Z</time></trkpt><trkpt lat="30.9717983" lon="-7.0737733"><ele>1269.0</ele><time>2026-04-24T16:11:08.422Z</time></trkpt><trkpt lat="30.97175" lon="-7.0736383"><ele>1266.25</ele><time>2026-04-24T16:11:09.422Z</time></trkpt><trkpt lat="30.9716667" lon="-7.0735083"><ele>1263.5</ele><time>2026-04-24T16:11:10.422Z</time></trkpt><trkpt lat="30.9715767" lon="-7.0733683"><ele>1260.75</ele><time>2026-04-24T16:11:11.423Z</time></trkpt><trkpt lat="30.97149" lon="-7.073225"><ele>1258.0</ele><time>2026-04-24T16:11:12.422Z</time></trkpt><trkpt lat="30.971405" lon="-7.0730817"><ele>1257.75</ele><time>2026-04-24T16:11:13.422Z</time></trkpt><trkpt lat="30.971325" lon="-7.0729417"><ele>1257.5</ele><time>2026-04-24T16:11:14.422Z</time></trkpt><trkpt lat="30.9712617" lon="-7.0728033"><ele>1257.25</ele><time>2026-04-24T16:11:15.422Z</time></trkpt><trkpt lat="30.9712217" lon="-7.07266"><ele>1257.0</ele><time>2026-04-24T16:11:16.422Z</time></trkpt><trkpt lat="30.9712183" lon="-7.072505"><ele>1255.25</ele><time>2026-04-24T16:11:17.422Z</time></trkpt><trkpt lat="30.971255" lon="-7.07235"><ele>1253.5</ele><time>2026-04-24T16:11:18.422Z</time></trkpt><trkpt lat="30.9713317" lon="-7.072205"><ele>1251.75</ele><time>2026-04-24T16:11:19.422Z</time></trkpt><trkpt lat="30.9714317" lon="-7.0720633"><ele>1250.0</ele><time>2026-04-24T16:11:20.422Z</time></trkpt><trkpt lat="30.9715367" lon="-7.0719233"><ele>1250.0</ele><time>2026-04-24T16:11:21.422Z</time></trkpt><trkpt lat="30.97165" lon="-7.0717783"><ele>1250.0</ele><time>2026-04-24T16:11:22.422Z</time></trkpt><trkpt lat="30.9717667" lon="-7.0716233"><ele>1250.0</ele><time>2026-04-24T16:11:23.422Z</time></trkpt><trkpt lat="30.9718867" lon="-7.0714683"><ele>1248.6666666666667</ele><time>2026-04-24T16:11:24.423Z</time></trkpt><trkpt lat="30.9720083" lon="-7.0713167"><ele>1247.3333333333333</ele><time>2026-04-24T16:11:25.422Z</time></trkpt><trkpt lat="30.9721367" lon="-7.0711567"><ele>1246.0</ele><time>2026-04-24T16:11:26.422Z</time></trkpt><trkpt lat="30.9722633" lon="-7.071"><ele>1246.0</ele><time>2026-04-24T16:11:27.422Z</time></trkpt><trkpt lat="30.9723867" lon="-7.07085"><ele>1246.0</ele><time>2026-04-24T16:11:28.422Z</time></trkpt><trkpt lat="30.9725117" lon="-7.0706983"><ele>1246.0</ele><time>2026-04-24T16:11:29.422Z</time></trkpt><trkpt lat="30.972635" lon="-7.0705517"><ele>1245.0</ele><time>2026-04-24T16:11:30.422Z</time></trkpt><trkpt lat="30.9727617" lon="-7.0704033"><ele>1244.0</ele><time>2026-04-24T16:11:31.422Z</time></trkpt><trkpt lat="30.9728833" lon="-7.0702533"><ele>1243.0</ele><time>2026-04-24T16:11:32.422Z</time></trkpt><trkpt lat="30.9730067" lon="-7.070105"><ele>1243.0</ele><time>2026-04-24T16:11:33.422Z</time></trkpt><trkpt lat="30.97313" lon="-7.069955"><ele>1243.0</ele><time>2026-04-24T16:11:34.422Z</time></trkpt><trkpt lat="30.9732517" lon="-7.0698067"><ele>1243.0</ele><time>2026-04-24T16:11:35.422Z</time></trkpt><trkpt lat="30.9733733" lon="-7.0696583"><ele>1242.0</ele><time>2026-04-24T16:11:36.422Z</time></trkpt><trkpt lat="30.9734983" lon="-7.0695083"><ele>1241.0</ele><time>2026-04-24T16:11:37.422Z</time></trkpt><trkpt lat="30.973625" lon="-7.06936"><ele>1240.0</ele><time>2026-04-24T16:11:38.422Z</time></trkpt><trkpt lat="30.9737483" lon="-7.0692083"><ele>1240.6666666666665</ele><time>2026-04-24T16:11:39.422Z</time></trkpt><trkpt lat="30.97387" lon="-7.0690533"><ele>1241.3333333333333</ele><time>2026-04-24T16:11:40.422Z</time></trkpt><trkpt lat="30.9739917" lon="-7.0689033"><ele>1242.0</ele><time>2026-04-24T16:11:41.422Z</time></trkpt><trkpt lat="30.97412" lon="-7.068755"><ele>1240.6666666666667</ele><time>2026-04-24T16:11:42.422Z</time></trkpt><trkpt lat="30.974245" lon="-7.06861"><ele>1239.3333333333335</ele><time>2026-04-24T16:11:43.422Z</time></trkpt><trkpt lat="30.9743683" lon="-7.0684617"><ele>1238.0</ele><time>2026-04-24T16:11:44.422Z</time></trkpt><trkpt lat="30.9744883" lon="-7.0683183"><ele>1237.6666666666667</ele><time>2026-04-24T16:11:45.422Z</time></trkpt><trkpt lat="30.9746067" lon="-7.0681667"><ele>1237.3333333333333</ele><time>2026-04-24T16:11:46.422Z</time></trkpt><trkpt lat="30.9747317" lon="-7.0680167"><ele>1237.0</ele><time>2026-04-24T16:11:47.422Z</time></trkpt><trkpt lat="30.97486" lon="-7.0678667"><ele>1237.0</ele><time>2026-04-24T16:11:48.422Z</time></trkpt><trkpt lat="30.97499" lon="-7.0677117"><ele>1237.0</ele><time>2026-04-24T16:11:49.422Z</time></trkpt><trkpt lat="30.9751167" lon="-7.0675567"><ele>1237.0</ele><time>2026-04-24T16:11:50.422Z</time></trkpt><trkpt lat="30.97524" lon="-7.0674017"><ele>1237.0</ele><time>2026-04-24T16:11:51.422Z</time></trkpt><trkpt lat="30.9753717" lon="-7.0672467"><ele>1237.0</ele><time>2026-04-24T16:11:52.422Z</time></trkpt><trkpt lat="30.9755" lon="-7.0670883"><ele>1237.0</ele><time>2026-04-24T16:11:53.422Z</time></trkpt><trkpt lat="30.97563" lon="-7.066935"><ele>1237.0</ele><time>2026-04-24T16:11:54.422Z</time></trkpt><trkpt lat="30.97576" lon="-7.0667817"><ele>1237.0</ele><time>2026-04-24T16:11:55.422Z</time></trkpt><trkpt lat="30.9758867" lon="-7.0666283"><ele>1237.0</ele><time>2026-04-24T16:11:56.422Z</time></trkpt><trkpt lat="30.9760133" lon="-7.06648"><ele>1235.6666666666665</ele><time>2026-04-24T16:11:57.422Z</time></trkpt><trkpt lat="30.9761283" lon="-7.06634"><ele>1234.3333333333333</ele><time>2026-04-24T16:11:58.422Z</time></trkpt><trkpt lat="30.97623" lon="-7.0661983"><ele>1233.0</ele><time>2026-04-24T16:11:59.422Z</time></trkpt><trkpt lat="30.9763117" lon="-7.0660533"><ele>1233.0</ele><time>2026-04-24T16:12:00.422Z</time></trkpt><trkpt lat="30.97637" lon="-7.0659033"><ele>1233.0</ele><time>2026-04-24T16:12:01.422Z</time></trkpt><trkpt lat="30.97641" lon="-7.0657433"><ele>1233.0</ele><time>2026-04-24T16:12:02.422Z</time></trkpt><trkpt lat="30.976435" lon="-7.06558"><ele>1233.0</ele><time>2026-04-24T16:12:03.422Z</time></trkpt><trkpt lat="30.9764267" lon="-7.0654133"><ele>1233.0</ele><time>2026-04-24T16:12:04.422Z</time></trkpt><trkpt lat="30.9763983" lon="-7.0652467"><ele>1233.0</ele><time>2026-04-24T16:12:05.422Z</time></trkpt><trkpt lat="30.97635" lon="-7.0650767"><ele>1233.0</ele><time>2026-04-24T16:12:06.422Z</time></trkpt><trkpt lat="30.97628" lon="-7.0649067"><ele>1232.6666666666667</ele><time>2026-04-24T16:12:07.422Z</time></trkpt><trkpt lat="30.9761917" lon="-7.0647517"><ele>1232.3333333333335</ele><time>2026-04-24T16:12:08.422Z</time></trkpt><trkpt lat="30.9760817" lon="-7.0646167"><ele>1232.0</ele><time>2026-04-24T16:12:09.422Z</time></trkpt><trkpt lat="30.975955" lon="-7.0644967"><ele>1232.0</ele><time>2026-04-24T16:12:10.422Z</time></trkpt><trkpt lat="30.9758267" lon="-7.0644017"><ele>1232.0</ele><time>2026-04-24T16:12:11.422Z</time></trkpt><trkpt lat="30.9756933" lon="-7.0643083"><ele>1232.0</ele><time>2026-04-24T16:12:12.422Z</time></trkpt><trkpt lat="30.9755633" lon="-7.0642133"><ele>1232.0</ele><time>2026-04-24T16:12:13.422Z</time></trkpt><trkpt lat="30.9754317" lon="-7.0641167"><ele>1232.0</ele><time>2026-04-24T16:12:14.422Z</time></trkpt><trkpt lat="30.9753" lon="-7.0640217"><ele>1232.0</ele><time>2026-04-24T16:12:15.422Z</time></trkpt><trkpt lat="30.97517" lon="-7.0639267"><ele>1231.6666666666667</ele><time>2026-04-24T16:12:16.422Z</time></trkpt><trkpt lat="30.97504" lon="-7.06383"><ele>1231.3333333333333</ele><time>2026-04-24T16:12:17.422Z</time></trkpt><trkpt lat="30.9749117" lon="-7.06373"><ele>1231.0</ele><time>2026-04-24T16:12:18.422Z</time></trkpt><trkpt lat="30.9747817" lon="-7.06363"><ele>1230.3333333333333</ele><time>2026-04-24T16:12:19.422Z</time></trkpt><trkpt lat="30.9746533" lon="-7.0635333"><ele>1229.6666666666667</ele><time>2026-04-24T16:12:20.422Z</time></trkpt><trkpt lat="30.974525" lon="-7.063435"><ele>1229.0</ele><time>2026-04-24T16:12:21.422Z</time></trkpt><trkpt lat="30.9743983" lon="-7.0633367"><ele>1229.6666666666667</ele><time>2026-04-24T16:12:22.422Z</time></trkpt><trkpt lat="30.97427" lon="-7.06324"><ele>1230.3333333333333</ele><time>2026-04-24T16:12:23.422Z</time></trkpt><trkpt lat="30.9741433" lon="-7.0631467"><ele>1231.0</ele><time>2026-04-24T16:12:24.422Z</time></trkpt><trkpt lat="30.974015" lon="-7.06305"><ele>1232.0</ele><time>2026-04-24T16:12:25.422Z</time></trkpt><trkpt lat="30.9738917" lon="-7.06295"><ele>1233.0</ele><time>2026-04-24T16:12:26.422Z</time></trkpt><trkpt lat="30.9737617" lon="-7.0628517"><ele>1234.0</ele><time>2026-04-24T16:12:27.422Z</time></trkpt><trkpt lat="30.97363" lon="-7.0627633"><ele>1234.0</ele><time>2026-04-24T16:12:28.422Z</time></trkpt><trkpt lat="30.9734967" lon="-7.0626717"><ele>1234.0</ele><time>2026-04-24T16:12:29.422Z</time></trkpt><trkpt lat="30.9733717" lon="-7.0625717"><ele>1234.0</ele><time>2026-04-24T16:12:30.422Z</time></trkpt><trkpt lat="30.9732467" lon="-7.0624733"><ele>1235.0</ele><time>2026-04-24T16:12:31.422Z</time></trkpt><trkpt lat="30.9731267" lon="-7.062375"><ele>1236.0</ele><time>2026-04-24T16:12:32.422Z</time></trkpt><trkpt lat="30.973005" lon="-7.0622767"><ele>1237.0</ele><time>2026-04-24T16:12:33.422Z</time></trkpt><trkpt lat="30.972875" lon="-7.0621867"><ele>1238.0</ele><time>2026-04-24T16:12:34.422Z</time></trkpt><trkpt lat="30.9727483" lon="-7.06209"><ele>1238.0</ele><time>2026-04-24T16:12:35.423Z</time></trkpt><trkpt lat="30.9726167" lon="-7.0619983"><ele>1238.0</ele><time>2026-04-24T16:12:36.422Z</time></trkpt><trkpt lat="30.9724883" lon="-7.061905"><ele>1238.0</ele><time>2026-04-24T16:12:37.422Z</time></trkpt><trkpt lat="30.9723633" lon="-7.06181"><ele>1237.6666666666667</ele><time>2026-04-24T16:12:38.422Z</time></trkpt><trkpt lat="30.972235" lon="-7.0617117"><ele>1237.3333333333333</ele><time>2026-04-24T16:12:39.422Z</time></trkpt><trkpt lat="30.972105" lon="-7.061615"><ele>1237.0</ele><time>2026-04-24T16:12:40.422Z</time></trkpt><trkpt lat="30.9719767" lon="-7.0615217"><ele>1237.3333333333333</ele><time>2026-04-24T16:12:41.422Z</time></trkpt><trkpt lat="30.9718533" lon="-7.0614217"><ele>1237.6666666666667</ele><time>2026-04-24T16:12:42.422Z</time></trkpt><trkpt lat="30.97172" lon="-7.0613167"><ele>1238.0</ele><time>2026-04-24T16:12:43.422Z</time></trkpt><trkpt lat="30.9715883" lon="-7.0612"><ele>1238.0</ele><time>2026-04-24T16:12:44.422Z</time></trkpt><trkpt lat="30.9714717" lon="-7.06106"><ele>1238.0</ele><time>2026-04-24T16:12:45.422Z</time></trkpt><trkpt lat="30.9713617" lon="-7.0608983"><ele>1238.0</ele><time>2026-04-24T16:12:46.422Z</time></trkpt><trkpt lat="30.9712783" lon="-7.06072"><ele>1238.6666666666667</ele><time>2026-04-24T16:12:47.422Z</time></trkpt><trkpt lat="30.9712217" lon="-7.060515"><ele>1239.3333333333333</ele><time>2026-04-24T16:12:48.422Z</time></trkpt><trkpt lat="30.971195" lon="-7.060295"><ele>1240.0</ele><time>2026-04-24T16:12:49.422Z</time></trkpt><trkpt lat="30.97119" lon="-7.06006"><ele>1238.3333333333333</ele><time>2026-04-24T16:12:50.422Z</time></trkpt><trkpt lat="30.9711967" lon="-7.0598283"><ele>1236.6666666666667</ele><time>2026-04-24T16:12:51.422Z</time></trkpt><trkpt lat="30.9712033" lon="-7.059595"><ele>1235.0</ele><time>2026-04-24T16:12:52.422Z</time></trkpt><trkpt lat="30.97121" lon="-7.05937"><ele>1235.0</ele><time>2026-04-24T16:12:53.422Z</time></trkpt><trkpt lat="30.9711983" lon="-7.0591533"><ele>1235.0</ele><time>2026-04-24T16:12:54.422Z</time></trkpt><trkpt lat="30.9711667" lon="-7.0589517"><ele>1235.0</ele><time>2026-04-24T16:12:55.422Z</time></trkpt><trkpt lat="30.9711" lon="-7.0587517"><ele>1234.6666666666667</ele><time>2026-04-24T16:12:56.422Z</time></trkpt><trkpt lat="30.971015" lon="-7.0585617"><ele>1234.3333333333333</ele><time>2026-04-24T16:12:57.422Z</time></trkpt><trkpt lat="30.9709" lon="-7.0583817"><ele>1234.0</ele><time>2026-04-24T16:12:58.422Z</time></trkpt><trkpt lat="30.9707633" lon="-7.05821"><ele>1231.0</ele><time>2026-04-24T16:12:59.422Z</time></trkpt><trkpt lat="30.9706217" lon="-7.058035"><ele>1228.0</ele><time>2026-04-24T16:13:00.422Z</time></trkpt><trkpt lat="30.970475" lon="-7.0578517"><ele>1225.0</ele><time>2026-04-24T16:13:01.422Z</time></trkpt><trkpt lat="30.9703317" lon="-7.057665"><ele>1225.0</ele><time>2026-04-24T16:13:02.422Z</time></trkpt><trkpt lat="30.970185" lon="-7.0574733"><ele>1225.0</ele><time>2026-04-24T16:13:03.422Z</time></trkpt><trkpt lat="30.97003" lon="-7.0572783"><ele>1225.0</ele><time>2026-04-24T16:13:04.422Z</time></trkpt><trkpt lat="30.9698767" lon="-7.0570783"><ele>1224.0</ele><time>2026-04-24T16:13:05.422Z</time></trkpt><trkpt lat="30.9697233" lon="-7.0568733"><ele>1223.0</ele><time>2026-04-24T16:13:06.422Z</time></trkpt><trkpt lat="30.96956" lon="-7.0566667"><ele>1222.0</ele><time>2026-04-24T16:13:07.423Z</time></trkpt><trkpt lat="30.9693967" lon="-7.0564517"><ele>1221.0</ele><time>2026-04-24T16:13:08.422Z</time></trkpt><trkpt lat="30.9692233" lon="-7.0562367"><ele>1219.5</ele><time>2026-04-24T16:13:09.422Z</time></trkpt><trkpt lat="30.9690533" lon="-7.0560117"><ele>1218.0</ele><time>2026-04-24T16:13:10.422Z</time></trkpt><trkpt lat="30.9688683" lon="-7.05578"><ele>1217.0</ele><time>2026-04-24T16:13:11.422Z</time></trkpt><trkpt lat="30.9686817" lon="-7.0555467"><ele>1216.0</ele><time>2026-04-24T16:13:12.422Z</time></trkpt><trkpt lat="30.9685033" lon="-7.0553067"><ele>1215.0</ele><time>2026-04-24T16:13:13.422Z</time></trkpt><trkpt lat="30.96832" lon="-7.0550633"><ele>1214.0</ele><time>2026-04-24T16:13:14.422Z</time></trkpt><trkpt lat="30.9681333" lon="-7.0548183"><ele>1213.0</ele><time>2026-04-24T16:13:15.422Z</time></trkpt><trkpt lat="30.9679433" lon="-7.0545767"><ele>1212.0</ele><time>2026-04-24T16:13:16.422Z</time></trkpt><trkpt lat="30.9677517" lon="-7.054335"><ele>1211.5</ele><time>2026-04-24T16:13:17.422Z</time></trkpt><trkpt lat="30.9675617" lon="-7.0540933"><ele>1211.0</ele><time>2026-04-24T16:13:18.422Z</time></trkpt><trkpt lat="30.96737" lon="-7.0538533"><ele>1210.0</ele><time>2026-04-24T16:13:19.423Z</time></trkpt><trkpt lat="30.96718" lon="-7.053615"><ele>1209.0</ele><time>2026-04-24T16:13:20.422Z</time></trkpt><trkpt lat="30.966995" lon="-7.0533833"><ele>1208.0</ele><time>2026-04-24T16:13:21.422Z</time></trkpt><trkpt lat="30.966815" lon="-7.0531567"><ele>1207.0</ele><time>2026-04-24T16:13:22.422Z</time></trkpt><trkpt lat="30.966645" lon="-7.0529367"><ele>1207.0</ele><time>2026-04-24T16:13:23.422Z</time></trkpt><trkpt lat="30.9664717" lon="-7.0527167"><ele>1207.0</ele><time>2026-04-24T16:13:24.422Z</time></trkpt><trkpt lat="30.9663" lon="-7.0524933"><ele>1206.0</ele><time>2026-04-24T16:13:25.422Z</time></trkpt><trkpt lat="30.96613" lon="-7.0522633"><ele>1205.0</ele><time>2026-04-24T16:13:26.422Z</time></trkpt><trkpt lat="30.9659517" lon="-7.0520283"><ele>1205.0</ele><time>2026-04-24T16:13:27.422Z</time></trkpt><trkpt lat="30.9657717" lon="-7.05179"><ele>1205.0</ele><time>2026-04-24T16:13:28.422Z</time></trkpt><trkpt lat="30.9655833" lon="-7.05155"><ele>1204.5</ele><time>2026-04-24T16:13:29.422Z</time></trkpt><trkpt lat="30.9653967" lon="-7.0513083"><ele>1204.0</ele><time>2026-04-24T16:13:30.422Z</time></trkpt><trkpt lat="30.9652067" lon="-7.0510633"><ele>1206.0</ele><time>2026-04-24T16:13:31.422Z</time></trkpt><trkpt lat="30.9650133" lon="-7.05082"><ele>1208.0</ele><time>2026-04-24T16:13:32.422Z</time></trkpt><trkpt lat="30.96483" lon="-7.0505767"><ele>1209.0</ele><time>2026-04-24T16:13:33.422Z</time></trkpt><trkpt lat="30.9646417" lon="-7.0503367"><ele>1210.0</ele><time>2026-04-24T16:13:34.422Z</time></trkpt><trkpt lat="30.9644617" lon="-7.050105"><ele>1211.0</ele><time>2026-04-24T16:13:35.422Z</time></trkpt><trkpt lat="30.964295" lon="-7.0498867"><ele>1212.0</ele><time>2026-04-24T16:13:36.422Z</time></trkpt><trkpt lat="30.96413" lon="-7.0496717"><ele>1213.5</ele><time>2026-04-24T16:13:37.422Z</time></trkpt><trkpt lat="30.9639667" lon="-7.0494533"><ele>1215.0</ele><time>2026-04-24T16:13:38.422Z</time></trkpt><trkpt lat="30.9638033" lon="-7.049235"><ele>1215.5</ele><time>2026-04-24T16:13:39.422Z</time></trkpt><trkpt lat="30.9636333" lon="-7.04902"><ele>1216.0</ele><time>2026-04-24T16:13:40.422Z</time></trkpt><trkpt lat="30.96346" lon="-7.0488067"><ele>1216.0</ele><time>2026-04-24T16:13:41.422Z</time></trkpt><trkpt lat="30.963285" lon="-7.0485917"><ele>1216.0</ele><time>2026-04-24T16:13:42.422Z</time></trkpt><trkpt lat="30.96311" lon="-7.0483733"><ele>1218.0</ele><time>2026-04-24T16:13:43.422Z</time></trkpt><trkpt lat="30.9629417" lon="-7.0481517"><ele>1220.0</ele><time>2026-04-24T16:13:44.422Z</time></trkpt><trkpt lat="30.9627683" lon="-7.0479333"><ele>1220.0</ele><time>2026-04-24T16:13:45.422Z</time></trkpt><trkpt lat="30.9626033" lon="-7.047725"><ele>1220.0</ele><time>2026-04-24T16:13:46.422Z</time></trkpt><trkpt lat="30.9624417" lon="-7.04754"><ele>1218.5</ele><time>2026-04-24T16:13:47.422Z</time></trkpt><trkpt lat="30.9622717" lon="-7.0473533"><ele>1217.0</ele><time>2026-04-24T16:13:48.422Z</time></trkpt><trkpt lat="30.962105" lon="-7.0471683"><ele>1217.0</ele><time>2026-04-24T16:13:49.422Z</time></trkpt><trkpt lat="30.9619367" lon="-7.04698"><ele>1217.0</ele><time>2026-04-24T16:13:50.422Z</time></trkpt><trkpt lat="30.9617733" lon="-7.0467933"><ele>1215.6666666666667</ele><time>2026-04-24T16:13:51.422Z</time></trkpt><trkpt lat="30.96161" lon="-7.0466133"><ele>1214.3333333333333</ele><time>2026-04-24T16:13:52.422Z</time></trkpt><trkpt lat="30.961445" lon="-7.0464367"><ele>1213.0</ele><time>2026-04-24T16:13:53.422Z</time></trkpt><trkpt lat="30.9612817" lon="-7.0462583"><ele>1213.0</ele><time>2026-04-24T16:13:54.422Z</time></trkpt><trkpt lat="30.961125" lon="-7.0460833"><ele>1213.0</ele><time>2026-04-24T16:13:55.422Z</time></trkpt><trkpt lat="30.9609667" lon="-7.0459133"><ele>1213.0</ele><time>2026-04-24T16:13:56.422Z</time></trkpt><trkpt lat="30.9608083" lon="-7.04576"><ele>1213.3333333333333</ele><time>2026-04-24T16:13:57.422Z</time></trkpt><trkpt lat="30.9606367" lon="-7.0456217"><ele>1213.6666666666667</ele><time>2026-04-24T16:13:58.422Z</time></trkpt><trkpt lat="30.96044" lon="-7.045515"><ele>1214.0</ele><time>2026-04-24T16:13:59.421Z</time></trkpt><trkpt lat="30.9602283" lon="-7.0454417"><ele>1211.5</ele><time>2026-04-24T16:14:00.421Z</time></trkpt><trkpt lat="30.96" lon="-7.0453933"><ele>1209.0</ele><time>2026-04-24T16:14:01.421Z</time></trkpt><trkpt lat="30.9597767" lon="-7.0453567"><ele>1209.0</ele><time>2026-04-24T16:14:02.421Z</time></trkpt><trkpt lat="30.9595467" lon="-7.04533"><ele>1209.0</ele><time>2026-04-24T16:14:03.421Z</time></trkpt><trkpt lat="30.9593067" lon="-7.0453033"><ele>1208.5</ele><time>2026-04-24T16:14:04.421Z</time></trkpt><trkpt lat="30.95907" lon="-7.045275"><ele>1208.0</ele><time>2026-04-24T16:14:05.421Z</time></trkpt><trkpt lat="30.9588333" lon="-7.0452517"><ele>1208.0</ele><time>2026-04-24T16:14:06.421Z</time></trkpt><trkpt lat="30.9585983" lon="-7.0452233"><ele>1208.0</ele><time>2026-04-24T16:14:07.421Z</time></trkpt><trkpt lat="30.95836" lon="-7.0452033"><ele>1207.6666666666667</ele><time>2026-04-24T16:14:08.421Z</time></trkpt><trkpt lat="30.9581367" lon="-7.0451783"><ele>1207.3333333333333</ele><time>2026-04-24T16:14:09.421Z</time></trkpt><trkpt lat="30.9579183" lon="-7.0451483"><ele>1207.0</ele><time>2026-04-24T16:14:10.421Z</time></trkpt><trkpt lat="30.9577133" lon="-7.0451083"><ele>1206.3333333333333</ele><time>2026-04-24T16:14:11.421Z</time></trkpt><trkpt lat="30.9575133" lon="-7.045045"><ele>1205.6666666666667</ele><time>2026-04-24T16:14:12.421Z</time></trkpt><trkpt lat="30.957325" lon="-7.0449567"><ele>1205.0</ele><time>2026-04-24T16:14:13.421Z</time></trkpt><trkpt lat="30.9571383" lon="-7.0448517"><ele>1205.3333333333335</ele><time>2026-04-24T16:14:14.421Z</time></trkpt><trkpt lat="30.9569517" lon="-7.04474"><ele>1205.6666666666667</ele><time>2026-04-24T16:14:15.421Z</time></trkpt><trkpt lat="30.9567667" lon="-7.0446183"><ele>1206.0</ele><time>2026-04-24T16:14:16.421Z</time></trkpt><trkpt lat="30.9565717" lon="-7.0444917"><ele>1206.0</ele><time>2026-04-24T16:14:17.421Z</time></trkpt><trkpt lat="30.956385" lon="-7.044365"><ele>1206.0</ele><time>2026-04-24T16:14:18.421Z</time></trkpt><trkpt lat="30.9561933" lon="-7.044245"><ele>1206.0</ele><time>2026-04-24T16:14:19.421Z</time></trkpt><trkpt lat="30.9560033" lon="-7.0441183"><ele>1206.6666666666667</ele><time>2026-04-24T16:14:20.421Z</time></trkpt><trkpt lat="30.9558183" lon="-7.0439933"><ele>1207.3333333333335</ele><time>2026-04-24T16:14:21.421Z</time></trkpt><trkpt lat="30.9556317" lon="-7.0438667"><ele>1208.0</ele><time>2026-04-24T16:14:22.421Z</time></trkpt><trkpt lat="30.955445" lon="-7.043745"><ele>1208.0</ele><time>2026-04-24T16:14:23.421Z</time></trkpt><trkpt lat="30.95526" lon="-7.0436267"><ele>1208.0</ele><time>2026-04-24T16:14:24.421Z</time></trkpt><trkpt lat="30.955075" lon="-7.0435083"><ele>1208.0</ele><time>2026-04-24T16:14:25.421Z</time></trkpt><trkpt lat="30.9548883" lon="-7.0433883"><ele>1211.3333333333335</ele><time>2026-04-24T16:14:26.422Z</time></trkpt><trkpt lat="30.9547067" lon="-7.043265"><ele>1214.6666666666667</ele><time>2026-04-24T16:14:27.421Z</time></trkpt><trkpt lat="30.9545333" lon="-7.043125"><ele>1218.0</ele><time>2026-04-24T16:14:28.421Z</time></trkpt><trkpt lat="30.954365" lon="-7.0429867"><ele>1215.6666666666667</ele><time>2026-04-24T16:14:29.421Z</time></trkpt><trkpt lat="30.9542033" lon="-7.042845"><ele>1213.3333333333335</ele><time>2026-04-24T16:14:30.421Z</time></trkpt><trkpt lat="30.9540483" lon="-7.0426967"><ele>1211.0</ele><time>2026-04-24T16:14:31.421Z</time></trkpt><trkpt lat="30.9539017" lon="-7.0425383"><ele>1211.3333333333335</ele><time>2026-04-24T16:14:32.421Z</time></trkpt><trkpt lat="30.953755" lon="-7.0423717"><ele>1211.6666666666667</ele><time>2026-04-24T16:14:33.421Z</time></trkpt><trkpt lat="30.9536017" lon="-7.042205"><ele>1212.0</ele><time>2026-04-24T16:14:34.421Z</time></trkpt><trkpt lat="30.9534533" lon="-7.0420333"><ele>1209.3333333333333</ele><time>2026-04-24T16:14:35.421Z</time></trkpt><trkpt lat="30.9533067" lon="-7.04187"><ele>1206.6666666666665</ele><time>2026-04-24T16:14:36.421Z</time></trkpt><trkpt lat="30.9531583" lon="-7.041705"><ele>1204.0</ele><time>2026-04-24T16:14:37.422Z</time></trkpt><trkpt lat="30.953015" lon="-7.041535"><ele>1203.0</ele><time>2026-04-24T16:14:38.421Z</time></trkpt><trkpt lat="30.9528667" lon="-7.0413683"><ele>1202.0</ele><time>2026-04-24T16:14:39.421Z</time></trkpt><trkpt lat="30.95272" lon="-7.0412033"><ele>1201.0</ele><time>2026-04-24T16:14:40.421Z</time></trkpt><trkpt lat="30.9525783" lon="-7.04104"><ele>1199.6666666666665</ele><time>2026-04-24T16:14:41.421Z</time></trkpt><trkpt lat="30.952435" lon="-7.0408717"><ele>1198.3333333333333</ele><time>2026-04-24T16:14:42.421Z</time></trkpt><trkpt lat="30.9522883" lon="-7.0407067"><ele>1197.0</ele><time>2026-04-24T16:14:43.421Z</time></trkpt><trkpt lat="30.952145" lon="-7.0405383"><ele>1197.0</ele><time>2026-04-24T16:14:44.421Z</time></trkpt><trkpt lat="30.952" lon="-7.0403683"><ele>1197.0</ele><time>2026-04-24T16:14:45.421Z</time></trkpt><trkpt lat="30.9518533" lon="-7.040195"><ele>1197.0</ele><time>2026-04-24T16:14:46.421Z</time></trkpt><trkpt lat="30.9517067" lon="-7.0400267"><ele>1198.3333333333333</ele><time>2026-04-24T16:14:47.421Z</time></trkpt><trkpt lat="30.9515517" lon="-7.039855"><ele>1199.6666666666665</ele><time>2026-04-24T16:14:48.421Z</time></trkpt><trkpt lat="30.951395" lon="-7.039685"><ele>1201.0</ele><time>2026-04-24T16:14:49.421Z</time></trkpt><trkpt lat="30.9512433" lon="-7.0395133"><ele>1201.0</ele><time>2026-04-24T16:14:50.421Z</time></trkpt><trkpt lat="30.95109" lon="-7.0393383"><ele>1201.0</ele><time>2026-04-24T16:14:51.421Z</time></trkpt><trkpt lat="30.9509367" lon="-7.039165"><ele>1201.0</ele><time>2026-04-24T16:14:52.421Z</time></trkpt><trkpt lat="30.95079" lon="-7.03899"><ele>1202.3333333333333</ele><time>2026-04-24T16:14:53.421Z</time></trkpt><trkpt lat="30.9506383" lon="-7.038825"><ele>1203.6666666666667</ele><time>2026-04-24T16:14:54.421Z</time></trkpt><trkpt lat="30.9504917" lon="-7.0386583"><ele>1205.0</ele><time>2026-04-24T16:14:55.421Z</time></trkpt><trkpt lat="30.9503417" lon="-7.0384917"><ele>1205.0</ele><time>2026-04-24T16:14:56.422Z</time></trkpt><trkpt lat="30.9501917" lon="-7.0383183"><ele>1205.0</ele><time>2026-04-24T16:14:57.421Z</time></trkpt><trkpt lat="30.950045" lon="-7.0381483"><ele>1205.0</ele><time>2026-04-24T16:14:58.421Z</time></trkpt><trkpt lat="30.9499083" lon="-7.0379783"><ele>1206.0</ele><time>2026-04-24T16:14:59.421Z</time></trkpt><trkpt lat="30.94978" lon="-7.0378083"><ele>1207.0</ele><time>2026-04-24T16:15:00.421Z</time></trkpt><trkpt lat="30.9496617" lon="-7.0376283"><ele>1208.0</ele><time>2026-04-24T16:15:01.421Z</time></trkpt><trkpt lat="30.94955" lon="-7.0374433"><ele>1208.6666666666667</ele><time>2026-04-24T16:15:02.421Z</time></trkpt><trkpt lat="30.9494417" lon="-7.0372433"><ele>1209.3333333333333</ele><time>2026-04-24T16:15:03.421Z</time></trkpt><trkpt lat="30.949335" lon="-7.0370417"><ele>1210.0</ele><time>2026-04-24T16:15:04.421Z</time></trkpt><trkpt lat="30.949235" lon="-7.036845"><ele>1209.3333333333333</ele><time>2026-04-24T16:15:05.421Z</time></trkpt><trkpt lat="30.9491383" lon="-7.0366533"><ele>1208.6666666666667</ele><time>2026-04-24T16:15:06.421Z</time></trkpt><trkpt lat="30.9490417" lon="-7.0364617"><ele>1208.0</ele><time>2026-04-24T16:15:07.421Z</time></trkpt><trkpt lat="30.94895" lon="-7.0362767"><ele>1208.0</ele><time>2026-04-24T16:15:08.421Z</time></trkpt><trkpt lat="30.948855" lon="-7.0360883"><ele>1208.0</ele><time>2026-04-24T16:15:09.421Z</time></trkpt><trkpt lat="30.94876" lon="-7.0358933"><ele>1208.0</ele><time>2026-04-24T16:15:10.422Z</time></trkpt><trkpt lat="30.9486633" lon="-7.0356983"><ele>1208.3333333333335</ele><time>2026-04-24T16:15:11.421Z</time></trkpt><trkpt lat="30.94857" lon="-7.0354967"><ele>1208.6666666666667</ele><time>2026-04-24T16:15:12.422Z</time></trkpt><trkpt lat="30.9484833" lon="-7.0352967"><ele>1209.0</ele><time>2026-04-24T16:15:13.421Z</time></trkpt><trkpt lat="30.9484117" lon="-7.0350933"><ele>1208.0</ele><time>2026-04-24T16:15:14.421Z</time></trkpt><trkpt lat="30.948345" lon="-7.0348867"><ele>1207.0</ele><time>2026-04-24T16:15:15.421Z</time></trkpt><trkpt lat="30.9482883" lon="-7.0346833"><ele>1206.0</ele><time>2026-04-24T16:15:16.421Z</time></trkpt><trkpt lat="30.9482383" lon="-7.034475"><ele>1206.0</ele><time>2026-04-24T16:15:17.421Z</time></trkpt><trkpt lat="30.9481967" lon="-7.034265"><ele>1206.0</ele><time>2026-04-24T16:15:18.421Z</time></trkpt><trkpt lat="30.94816" lon="-7.0340567"><ele>1206.0</ele><time>2026-04-24T16:15:19.421Z</time></trkpt><trkpt lat="30.9481317" lon="-7.0338533"><ele>1205.3333333333333</ele><time>2026-04-24T16:15:20.421Z</time></trkpt><trkpt lat="30.9481067" lon="-7.0336483"><ele>1204.6666666666665</ele><time>2026-04-24T16:15:21.421Z</time></trkpt><trkpt lat="30.94809" lon="-7.0334467"><ele>1204.0</ele><time>2026-04-24T16:15:22.421Z</time></trkpt><trkpt lat="30.9480767" lon="-7.03325"><ele>1203.0</ele><time>2026-04-24T16:15:23.421Z</time></trkpt><trkpt lat="30.9480633" lon="-7.0330517"><ele>1202.0</ele><time>2026-04-24T16:15:24.421Z</time></trkpt><trkpt lat="30.9480483" lon="-7.03285"><ele>1201.0</ele><time>2026-04-24T16:15:25.421Z</time></trkpt><trkpt lat="30.9480367" lon="-7.0326517"><ele>1200.6666666666665</ele><time>2026-04-24T16:15:26.421Z</time></trkpt><trkpt lat="30.948025" lon="-7.0324483"><ele>1200.3333333333333</ele><time>2026-04-24T16:15:27.421Z</time></trkpt><trkpt lat="30.9480117" lon="-7.0322433"><ele>1200.0</ele><time>2026-04-24T16:15:28.421Z</time></trkpt><trkpt lat="30.9480017" lon="-7.03204"><ele>1200.0</ele><time>2026-04-24T16:15:29.421Z</time></trkpt><trkpt lat="30.9479883" lon="-7.031835"><ele>1200.0</ele><time>2026-04-24T16:15:30.421Z</time></trkpt><trkpt lat="30.94797" lon="-7.0316283"><ele>1200.0</ele><time>2026-04-24T16:15:31.421Z</time></trkpt><trkpt lat="30.9479583" lon="-7.0314183"><ele>1199.3333333333333</ele><time>2026-04-24T16:15:32.421Z</time></trkpt><trkpt lat="30.947945" lon="-7.031205"><ele>1198.6666666666665</ele><time>2026-04-24T16:15:33.422Z</time></trkpt><trkpt lat="30.9479383" lon="-7.03099"><ele>1198.0</ele><time>2026-04-24T16:15:34.421Z</time></trkpt><trkpt lat="30.947925" lon="-7.0307783"><ele>1197.3333333333333</ele><time>2026-04-24T16:15:35.421Z</time></trkpt><trkpt lat="30.9479083" lon="-7.0305617"><ele>1196.6666666666667</ele><time>2026-04-24T16:15:36.421Z</time></trkpt><trkpt lat="30.9478933" lon="-7.03035"><ele>1196.0</ele><time>2026-04-24T16:15:37.421Z</time></trkpt><trkpt lat="30.9478817" lon="-7.030125"><ele>1196.0</ele><time>2026-04-24T16:15:38.421Z</time></trkpt><trkpt lat="30.94787" lon="-7.0299017"><ele>1196.0</ele><time>2026-04-24T16:15:39.421Z</time></trkpt><trkpt lat="30.947855" lon="-7.02968"><ele>1196.0</ele><time>2026-04-24T16:15:40.421Z</time></trkpt><trkpt lat="30.9478367" lon="-7.0294633"><ele>1196.0</ele><time>2026-04-24T16:15:41.421Z</time></trkpt><trkpt lat="30.94782" lon="-7.0292367"><ele>1196.0</ele><time>2026-04-24T16:15:42.421Z</time></trkpt><trkpt lat="30.9478067" lon="-7.029005"><ele>1196.0</ele><time>2026-04-24T16:15:43.421Z</time></trkpt><trkpt lat="30.947795" lon="-7.0287733"><ele>1197.0</ele><time>2026-04-24T16:15:44.421Z</time></trkpt><trkpt lat="30.9477783" lon="-7.0285417"><ele>1198.0</ele><time>2026-04-24T16:15:45.421Z</time></trkpt><trkpt lat="30.9477617" lon="-7.0283017"><ele>1199.0</ele><time>2026-04-24T16:15:46.421Z</time></trkpt><trkpt lat="30.947745" lon="-7.02807"><ele>1199.0</ele><time>2026-04-24T16:15:47.421Z</time></trkpt><trkpt lat="30.9477267" lon="-7.0278383"><ele>1199.0</ele><time>2026-04-24T16:15:48.421Z</time></trkpt><trkpt lat="30.9477117" lon="-7.0276017"><ele>1199.0</ele><time>2026-04-24T16:15:49.421Z</time></trkpt><trkpt lat="30.9477" lon="-7.027365"><ele>1198.0</ele><time>2026-04-24T16:15:50.421Z</time></trkpt><trkpt lat="30.947685" lon="-7.0271233"><ele>1197.0</ele><time>2026-04-24T16:15:51.421Z</time></trkpt><trkpt lat="30.9476633" lon="-7.0268767"><ele>1196.0</ele><time>2026-04-24T16:15:52.421Z</time></trkpt><trkpt lat="30.9476483" lon="-7.02663"><ele>1194.3333333333335</ele><time>2026-04-24T16:15:53.421Z</time></trkpt><trkpt lat="30.9476367" lon="-7.0263867"><ele>1192.6666666666667</ele><time>2026-04-24T16:15:54.421Z</time></trkpt><trkpt lat="30.9476183" lon="-7.02614"><ele>1191.0</ele><time>2026-04-24T16:15:55.421Z</time></trkpt><trkpt lat="30.9476017" lon="-7.0259067"><ele>1190.0</ele><time>2026-04-24T16:15:56.421Z</time></trkpt><trkpt lat="30.9475867" lon="-7.0256833"><ele>1189.0</ele><time>2026-04-24T16:15:57.421Z</time></trkpt><trkpt lat="30.9475767" lon="-7.0254633"><ele>1188.0</ele><time>2026-04-24T16:15:58.421Z</time></trkpt><trkpt lat="30.9475633" lon="-7.0252467"><ele>1188.0</ele><time>2026-04-24T16:15:59.421Z</time></trkpt><trkpt lat="30.9475483" lon="-7.025035"><ele>1188.0</ele><time>2026-04-24T16:16:00.421Z</time></trkpt><trkpt lat="30.9475367" lon="-7.0248317"><ele>1188.0</ele><time>2026-04-24T16:16:01.421Z</time></trkpt><trkpt lat="30.947525" lon="-7.0246317"><ele>1188.6666666666667</ele><time>2026-04-24T16:16:02.421Z</time></trkpt><trkpt lat="30.94751" lon="-7.0244317"><ele>1189.3333333333335</ele><time>2026-04-24T16:16:03.421Z</time></trkpt><trkpt lat="30.9474983" lon="-7.0242333"><ele>1190.0</ele><time>2026-04-24T16:16:04.421Z</time></trkpt><trkpt lat="30.9474867" lon="-7.02404"><ele>1190.0</ele><time>2026-04-24T16:16:05.421Z</time></trkpt><trkpt lat="30.94747" lon="-7.0238433"><ele>1190.0</ele><time>2026-04-24T16:16:06.421Z</time></trkpt><trkpt lat="30.9474583" lon="-7.0236483"><ele>1190.0</ele><time>2026-04-24T16:16:07.421Z</time></trkpt><trkpt lat="30.9474433" lon="-7.0234483"><ele>1189.6666666666667</ele><time>2026-04-24T16:16:08.421Z</time></trkpt><trkpt lat="30.9474317" lon="-7.0232467"><ele>1189.3333333333333</ele><time>2026-04-24T16:16:09.421Z</time></trkpt><trkpt lat="30.947415" lon="-7.0230417"><ele>1189.0</ele><time>2026-04-24T16:16:10.421Z</time></trkpt><trkpt lat="30.9473967" lon="-7.0228317"><ele>1189.0</ele><time>2026-04-24T16:16:11.421Z</time></trkpt><trkpt lat="30.94739" lon="-7.0226267"><ele>1189.0</ele><time>2026-04-24T16:16:12.421Z</time></trkpt><trkpt lat="30.947375" lon="-7.0224117"><ele>1189.0</ele><time>2026-04-24T16:16:13.421Z</time></trkpt><trkpt lat="30.94736" lon="-7.0221967"><ele>1189.0</ele><time>2026-04-24T16:16:14.421Z</time></trkpt><trkpt lat="30.9473433" lon="-7.02198"><ele>1189.0</ele><time>2026-04-24T16:16:15.421Z</time></trkpt><trkpt lat="30.9473317" lon="-7.02176"><ele>1189.0</ele><time>2026-04-24T16:16:16.421Z</time></trkpt><trkpt lat="30.9473217" lon="-7.0215417"><ele>1189.0</ele><time>2026-04-24T16:16:17.421Z</time></trkpt><trkpt lat="30.94731" lon="-7.0213267"><ele>1189.0</ele><time>2026-04-24T16:16:18.421Z</time></trkpt><trkpt lat="30.947295" lon="-7.02112"><ele>1189.0</ele><time>2026-04-24T16:16:19.421Z</time></trkpt><trkpt lat="30.9472817" lon="-7.020915"><ele>1189.0</ele><time>2026-04-24T16:16:20.421Z</time></trkpt><trkpt lat="30.9472717" lon="-7.0207083"><ele>1189.0</ele><time>2026-04-24T16:16:21.421Z</time></trkpt><trkpt lat="30.9472567" lon="-7.0204983"><ele>1189.0</ele><time>2026-04-24T16:16:22.421Z</time></trkpt><trkpt lat="30.94724" lon="-7.0202833"><ele>1189.0</ele><time>2026-04-24T16:16:23.421Z</time></trkpt><trkpt lat="30.9472267" lon="-7.0200667"><ele>1189.0</ele><time>2026-04-24T16:16:24.422Z</time></trkpt><trkpt lat="30.9472117" lon="-7.01985"><ele>1189.0</ele><time>2026-04-24T16:16:25.421Z</time></trkpt><trkpt lat="30.9471967" lon="-7.0196333"><ele>1188.3333333333333</ele><time>2026-04-24T16:16:26.421Z</time></trkpt><trkpt lat="30.947185" lon="-7.0194167"><ele>1187.6666666666667</ele><time>2026-04-24T16:16:27.421Z</time></trkpt><trkpt lat="30.9471717" lon="-7.0191967"><ele>1187.0</ele><time>2026-04-24T16:16:28.421Z</time></trkpt><trkpt lat="30.94716" lon="-7.01897"><ele>1186.6666666666667</ele><time>2026-04-24T16:16:29.421Z</time></trkpt><trkpt lat="30.9471483" lon="-7.01874"><ele>1186.3333333333333</ele><time>2026-04-24T16:16:30.422Z</time></trkpt><trkpt lat="30.947135" lon="-7.018505"><ele>1186.0</ele><time>2026-04-24T16:16:31.421Z</time></trkpt><trkpt lat="30.94712" lon="-7.0182667"><ele>1185.6666666666665</ele><time>2026-04-24T16:16:32.421Z</time></trkpt><trkpt lat="30.9471017" lon="-7.0180217"><ele>1185.3333333333333</ele><time>2026-04-24T16:16:33.421Z</time></trkpt><trkpt lat="30.9470833" lon="-7.017775"><ele>1185.0</ele><time>2026-04-24T16:16:34.421Z</time></trkpt><trkpt lat="30.9470667" lon="-7.0175333"><ele>1184.6666666666667</ele><time>2026-04-24T16:16:35.421Z</time></trkpt><trkpt lat="30.9470517" lon="-7.017285"><ele>1184.3333333333335</ele><time>2026-04-24T16:16:36.422Z</time></trkpt><trkpt lat="30.9470367" lon="-7.0170383"><ele>1184.0</ele><time>2026-04-24T16:16:37.421Z</time></trkpt><trkpt lat="30.94702" lon="-7.0168017"><ele>1183.0</ele><time>2026-04-24T16:16:38.421Z</time></trkpt><trkpt lat="30.947005" lon="-7.016565"><ele>1182.0</ele><time>2026-04-24T16:16:39.421Z</time></trkpt><trkpt lat="30.9469883" lon="-7.0163333"><ele>1181.0</ele><time>2026-04-24T16:16:40.421Z</time></trkpt><trkpt lat="30.9469767" lon="-7.016105"><ele>1181.0</ele><time>2026-04-24T16:16:41.421Z</time></trkpt><trkpt lat="30.94696" lon="-7.0158783"><ele>1181.0</ele><time>2026-04-24T16:16:42.421Z</time></trkpt><trkpt lat="30.946945" lon="-7.01565"><ele>1181.0</ele><time>2026-04-24T16:16:43.421Z</time></trkpt><trkpt lat="30.9469283" lon="-7.0154233"><ele>1181.3333333333335</ele><time>2026-04-24T16:16:44.421Z</time></trkpt><trkpt lat="30.9469117" lon="-7.015195"><ele>1181.6666666666667</ele><time>2026-04-24T16:16:45.421Z</time></trkpt><trkpt lat="30.9468983" lon="-7.0149667"><ele>1182.0</ele><time>2026-04-24T16:16:46.421Z</time></trkpt><trkpt lat="30.9468833" lon="-7.0147367"><ele>1181.3333333333333</ele><time>2026-04-24T16:16:47.421Z</time></trkpt><trkpt lat="30.9468667" lon="-7.0145167"><ele>1180.6666666666665</ele><time>2026-04-24T16:16:48.421Z</time></trkpt><trkpt lat="30.9468517" lon="-7.0142983"><ele>1180.0</ele><time>2026-04-24T16:16:49.421Z</time></trkpt><trkpt lat="30.9468367" lon="-7.0140817"><ele>1178.6666666666665</ele><time>2026-04-24T16:16:50.421Z</time></trkpt><trkpt lat="30.9468233" lon="-7.0138733"><ele>1177.3333333333333</ele><time>2026-04-24T16:16:51.421Z</time></trkpt><trkpt lat="30.9468067" lon="-7.0136617"><ele>1176.0</ele><time>2026-04-24T16:16:52.421Z</time></trkpt><trkpt lat="30.9467917" lon="-7.01345"><ele>1174.6666666666667</ele><time>2026-04-24T16:16:53.421Z</time></trkpt><trkpt lat="30.9467817" lon="-7.0132417"><ele>1173.3333333333335</ele><time>2026-04-24T16:16:54.421Z</time></trkpt><trkpt lat="30.9467683" lon="-7.0130367"><ele>1172.0</ele><time>2026-04-24T16:16:55.421Z</time></trkpt><trkpt lat="30.946755" lon="-7.0128267"><ele>1172.0</ele><time>2026-04-24T16:16:56.421Z</time></trkpt><trkpt lat="30.9467417" lon="-7.0126217"><ele>1172.0</ele><time>2026-04-24T16:16:57.421Z</time></trkpt><trkpt lat="30.9467233" lon="-7.0124167"><ele>1172.0</ele><time>2026-04-24T16:16:58.421Z</time></trkpt><trkpt lat="30.9467117" lon="-7.012215"><ele>1171.6666666666667</ele><time>2026-04-24T16:16:59.421Z</time></trkpt><trkpt lat="30.9467017" lon="-7.012005"><ele>1171.3333333333333</ele><time>2026-04-24T16:17:00.421Z</time></trkpt><trkpt lat="30.9466883" lon="-7.0117883"><ele>1171.0</ele><time>2026-04-24T16:17:01.421Z</time></trkpt><trkpt lat="30.946675" lon="-7.0115733"><ele>1169.6666666666665</ele><time>2026-04-24T16:17:02.421Z</time></trkpt><trkpt lat="30.9466567" lon="-7.011355"><ele>1168.3333333333333</ele><time>2026-04-24T16:17:03.421Z</time></trkpt><trkpt lat="30.9466367" lon="-7.011135"><ele>1167.0</ele><time>2026-04-24T16:17:04.421Z</time></trkpt><trkpt lat="30.9466017" lon="-7.0109133"><ele>1166.6666666666667</ele><time>2026-04-24T16:17:05.421Z</time></trkpt><trkpt lat="30.9465633" lon="-7.0106933"><ele>1166.3333333333335</ele><time>2026-04-24T16:17:06.421Z</time></trkpt><trkpt lat="30.9465083" lon="-7.0104783"><ele>1166.0</ele><time>2026-04-24T16:17:07.421Z</time></trkpt><trkpt lat="30.9464417" lon="-7.0102633"><ele>1166.0</ele><time>2026-04-24T16:17:08.421Z</time></trkpt><trkpt lat="30.9463667" lon="-7.01005"><ele>1166.0</ele><time>2026-04-24T16:17:09.421Z</time></trkpt><trkpt lat="30.94629" lon="-7.0098333"><ele>1166.0</ele><time>2026-04-24T16:17:10.421Z</time></trkpt><trkpt lat="30.9462117" lon="-7.0096133"><ele>1165.3333333333335</ele><time>2026-04-24T16:17:11.421Z</time></trkpt><trkpt lat="30.94614" lon="-7.0093933"><ele>1164.6666666666667</ele><time>2026-04-24T16:17:12.422Z</time></trkpt><trkpt lat="30.9460667" lon="-7.0091717"><ele>1164.0</ele><time>2026-04-24T16:17:13.421Z</time></trkpt><trkpt lat="30.9459867" lon="-7.0089483"><ele>1164.0</ele><time>2026-04-24T16:17:14.421Z</time></trkpt><trkpt lat="30.94591" lon="-7.0087333"><ele>1164.0</ele><time>2026-04-24T16:17:15.421Z</time></trkpt><trkpt lat="30.9458383" lon="-7.008525"><ele>1164.0</ele><time>2026-04-24T16:17:16.421Z</time></trkpt><trkpt lat="30.9457683" lon="-7.0083233"><ele>1163.3333333333333</ele><time>2026-04-24T16:17:17.421Z</time></trkpt><trkpt lat="30.9456983" lon="-7.008125"><ele>1162.6666666666665</ele><time>2026-04-24T16:17:18.421Z</time></trkpt><trkpt lat="30.9456333" lon="-7.0079283"><ele>1162.0</ele><time>2026-04-24T16:17:19.421Z</time></trkpt><trkpt lat="30.94557" lon="-7.007735"><ele>1162.0</ele><time>2026-04-24T16:17:20.421Z</time></trkpt><trkpt lat="30.9455017" lon="-7.0075467"><ele>1162.0</ele><time>2026-04-24T16:17:21.421Z</time></trkpt><trkpt lat="30.94544" lon="-7.0073567"><ele>1162.0</ele><time>2026-04-24T16:17:22.421Z</time></trkpt><trkpt lat="30.9453717" lon="-7.007165"><ele>1162.0</ele><time>2026-04-24T16:17:23.421Z</time></trkpt><trkpt lat="30.9453033" lon="-7.0069783"><ele>1162.0</ele><time>2026-04-24T16:17:24.421Z</time></trkpt><trkpt lat="30.9452333" lon="-7.0067883"><ele>1162.0</ele><time>2026-04-24T16:17:25.421Z</time></trkpt><trkpt lat="30.9451667" lon="-7.006595"><ele>1161.6666666666665</ele><time>2026-04-24T16:17:26.421Z</time></trkpt><trkpt lat="30.9450983" lon="-7.0064017"><ele>1161.3333333333333</ele><time>2026-04-24T16:17:27.421Z</time></trkpt><trkpt lat="30.9450317" lon="-7.00621"><ele>1161.0</ele><time>2026-04-24T16:17:28.421Z</time></trkpt><trkpt lat="30.9449617" lon="-7.0060133"><ele>1161.6666666666667</ele><time>2026-04-24T16:17:29.421Z</time></trkpt><trkpt lat="30.9448933" lon="-7.0058167"><ele>1162.3333333333335</ele><time>2026-04-24T16:17:30.421Z</time></trkpt><trkpt lat="30.9448217" lon="-7.005615"><ele>1163.0</ele><time>2026-04-24T16:17:31.421Z</time></trkpt><trkpt lat="30.9447517" lon="-7.005405"><ele>1163.0</ele><time>2026-04-24T16:17:32.421Z</time></trkpt><trkpt lat="30.94468" lon="-7.0051967"><ele>1163.0</ele><time>2026-04-24T16:17:33.421Z</time></trkpt><trkpt lat="30.944605" lon="-7.0049833"><ele>1163.0</ele><time>2026-04-24T16:17:34.422Z</time></trkpt><trkpt lat="30.9445283" lon="-7.00477"><ele>1164.0</ele><time>2026-04-24T16:17:35.421Z</time></trkpt><trkpt lat="30.944455" lon="-7.00456"><ele>1165.0</ele><time>2026-04-24T16:17:36.421Z</time></trkpt><trkpt lat="30.9443883" lon="-7.0043533"><ele>1166.0</ele><time>2026-04-24T16:17:37.421Z</time></trkpt><trkpt lat="30.9443233" lon="-7.0041583"><ele>1166.0</ele><time>2026-04-24T16:17:38.421Z</time></trkpt><trkpt lat="30.9442617" lon="-7.0039617"><ele>1166.0</ele><time>2026-04-24T16:17:39.422Z</time></trkpt><trkpt lat="30.9442067" lon="-7.0037667"><ele>1166.0</ele><time>2026-04-24T16:17:40.421Z</time></trkpt><trkpt lat="30.9441583" lon="-7.0035667"><ele>1164.6666666666667</ele><time>2026-04-24T16:17:41.421Z</time></trkpt><trkpt lat="30.9441183" lon="-7.0033667"><ele>1163.3333333333333</ele><time>2026-04-24T16:17:42.421Z</time></trkpt><trkpt lat="30.9440833" lon="-7.003165"><ele>1162.0</ele><time>2026-04-24T16:17:43.422Z</time></trkpt><trkpt lat="30.9440567" lon="-7.002955"><ele>1162.0</ele><time>2026-04-24T16:17:44.421Z</time></trkpt><trkpt lat="30.9440283" lon="-7.0027467"><ele>1162.0</ele><time>2026-04-24T16:17:45.421Z</time></trkpt><trkpt lat="30.9440033" lon="-7.0025333"><ele>1162.0</ele><time>2026-04-24T16:17:46.421Z</time></trkpt><trkpt lat="30.9439917" lon="-7.00232"><ele>1162.3333333333333</ele><time>2026-04-24T16:17:47.421Z</time></trkpt><trkpt lat="30.943985" lon="-7.0021067"><ele>1162.6666666666667</ele><time>2026-04-24T16:17:48.421Z</time></trkpt><trkpt lat="30.943975" lon="-7.0018983"><ele>1163.0</ele><time>2026-04-24T16:17:49.421Z</time></trkpt><trkpt lat="30.9439683" lon="-7.0016967"><ele>1163.3333333333335</ele><time>2026-04-24T16:17:50.421Z</time></trkpt><trkpt lat="30.9439617" lon="-7.0014967"><ele>1163.6666666666667</ele><time>2026-04-24T16:17:51.421Z</time></trkpt><trkpt lat="30.9439517" lon="-7.0012967"><ele>1164.0</ele><time>2026-04-24T16:17:52.421Z</time></trkpt><trkpt lat="30.9439417" lon="-7.0010967"><ele>1164.0</ele><time>2026-04-24T16:17:53.421Z</time></trkpt><trkpt lat="30.9439283" lon="-7.000905"><ele>1164.0</ele><time>2026-04-24T16:17:54.421Z</time></trkpt><trkpt lat="30.94392" lon="-7.000725"><ele>1164.0</ele><time>2026-04-24T16:17:55.421Z</time></trkpt><trkpt lat="30.9439167" lon="-7.00056"><ele>1164.25</ele><time>2026-04-24T16:17:56.421Z</time></trkpt><trkpt lat="30.9439117" lon="-7.00041"><ele>1164.5</ele><time>2026-04-24T16:17:57.421Z</time></trkpt><trkpt lat="30.9439017" lon="-7.0002633"><ele>1164.75</ele><time>2026-04-24T16:17:58.421Z</time></trkpt><trkpt lat="30.943895" lon="-7.0001217"><ele>1165.0</ele><time>2026-04-24T16:17:59.421Z</time></trkpt><trkpt lat="30.9438933" lon="-6.9999767"><ele>1165.0</ele><time>2026-04-24T16:18:00.421Z</time></trkpt><trkpt lat="30.9438883" lon="-6.9998417"><ele>1165.0</ele><time>2026-04-24T16:18:01.421Z</time></trkpt><trkpt lat="30.9438833" lon="-6.9997"><ele>1165.0</ele><time>2026-04-24T16:18:02.421Z</time></trkpt><trkpt lat="30.9438817" lon="-6.99956"><ele>1165.0</ele><time>2026-04-24T16:18:03.421Z</time></trkpt><trkpt lat="30.9438733" lon="-6.9994167"><ele>1165.0</ele><time>2026-04-24T16:18:04.421Z</time></trkpt><trkpt lat="30.943865" lon="-6.9992717"><ele>1165.0</ele><time>2026-04-24T16:18:05.422Z</time></trkpt><trkpt lat="30.943855" lon="-6.999125"><ele>1165.0</ele><time>2026-04-24T16:18:06.421Z</time></trkpt><trkpt lat="30.9438483" lon="-6.9989817"><ele>1165.0</ele><time>2026-04-24T16:18:07.422Z</time></trkpt><trkpt lat="30.94384" lon="-6.9988283"><ele>1164.75</ele><time>2026-04-24T16:18:08.421Z</time></trkpt><trkpt lat="30.943835" lon="-6.9986733"><ele>1164.5</ele><time>2026-04-24T16:18:09.421Z</time></trkpt><trkpt lat="30.943825" lon="-6.99851"><ele>1164.25</ele><time>2026-04-24T16:18:10.421Z</time></trkpt><trkpt lat="30.9438183" lon="-6.99834"><ele>1164.0</ele><time>2026-04-24T16:18:11.421Z</time></trkpt><trkpt lat="30.9438083" lon="-6.9981733"><ele>1163.0</ele><time>2026-04-24T16:18:12.421Z</time></trkpt><trkpt lat="30.9437983" lon="-6.998"><ele>1162.0</ele><time>2026-04-24T16:18:13.421Z</time></trkpt><trkpt lat="30.94379" lon="-6.9978233"><ele>1161.0</ele><time>2026-04-24T16:18:14.421Z</time></trkpt><trkpt lat="30.9437783" lon="-6.9976417"><ele>1160.3333333333333</ele><time>2026-04-24T16:18:15.421Z</time></trkpt><trkpt lat="30.9437683" lon="-6.9974617"><ele>1159.6666666666665</ele><time>2026-04-24T16:18:16.421Z</time></trkpt><trkpt lat="30.94376" lon="-6.9972767"><ele>1159.0</ele><time>2026-04-24T16:18:17.421Z</time></trkpt><trkpt lat="30.94375" lon="-6.9970967"><ele>1159.0</ele><time>2026-04-24T16:18:18.421Z</time></trkpt><trkpt lat="30.94374" lon="-6.9969133"><ele>1159.0</ele><time>2026-04-24T16:18:19.421Z</time></trkpt><trkpt lat="30.9437317" lon="-6.9967317"><ele>1159.0</ele><time>2026-04-24T16:18:20.421Z</time></trkpt><trkpt lat="30.9437133" lon="-6.9965517"><ele>1158.0</ele><time>2026-04-24T16:18:21.421Z</time></trkpt><trkpt lat="30.9436867" lon="-6.99637"><ele>1157.0</ele><time>2026-04-24T16:18:22.421Z</time></trkpt><trkpt lat="30.9436633" lon="-6.99618"><ele>1156.0</ele><time>2026-04-24T16:18:23.421Z</time></trkpt><trkpt lat="30.9436383" lon="-6.9959933"><ele>1154.0</ele><time>2026-04-24T16:18:24.421Z</time></trkpt><trkpt lat="30.94361" lon="-6.9958033"><ele>1152.0</ele><time>2026-04-24T16:18:25.421Z</time></trkpt><trkpt lat="30.9435883" lon="-6.995625"><ele>1150.0</ele><time>2026-04-24T16:18:26.421Z</time></trkpt><trkpt lat="30.943565" lon="-6.9954433"><ele>1150.0</ele><time>2026-04-24T16:18:27.421Z</time></trkpt><trkpt lat="30.943545" lon="-6.9952683"><ele>1150.0</ele><time>2026-04-24T16:18:28.421Z</time></trkpt><trkpt lat="30.943525" lon="-6.9950967"><ele>1150.0</ele><time>2026-04-24T16:18:29.422Z</time></trkpt><trkpt lat="30.943505" lon="-6.994925"><ele>1150.0</ele><time>2026-04-24T16:18:30.421Z</time></trkpt><trkpt lat="30.9434817" lon="-6.9947517"><ele>1149.6666666666665</ele><time>2026-04-24T16:18:31.421Z</time></trkpt><trkpt lat="30.94346" lon="-6.9945783"><ele>1149.3333333333333</ele><time>2026-04-24T16:18:32.421Z</time></trkpt><trkpt lat="30.9434367" lon="-6.9944"><ele>1149.0</ele><time>2026-04-24T16:18:33.421Z</time></trkpt><trkpt lat="30.9434133" lon="-6.9942183"><ele>1149.0</ele><time>2026-04-24T16:18:34.421Z</time></trkpt><trkpt lat="30.94339" lon="-6.9940333"><ele>1149.0</ele><time>2026-04-24T16:18:35.421Z</time></trkpt><trkpt lat="30.9433667" lon="-6.9938533"><ele>1149.0</ele><time>2026-04-24T16:18:36.421Z</time></trkpt><trkpt lat="30.9433467" lon="-6.9936733"><ele>1149.0</ele><time>2026-04-24T16:18:37.421Z</time></trkpt><trkpt lat="30.9433233" lon="-6.9935017"><ele>1149.0</ele><time>2026-04-24T16:18:38.421Z</time></trkpt><trkpt lat="30.943305" lon="-6.9933417"><ele>1149.0</ele><time>2026-04-24T16:18:39.421Z</time></trkpt><trkpt lat="30.9432867" lon="-6.9931867"><ele>1149.0</ele><time>2026-04-24T16:18:40.421Z</time></trkpt><trkpt lat="30.9432667" lon="-6.993035"><ele>1149.5</ele><time>2026-04-24T16:18:41.421Z</time></trkpt><trkpt lat="30.9432483" lon="-6.9928867"><ele>1150.0</ele><time>2026-04-24T16:18:42.421Z</time></trkpt><trkpt lat="30.94323" lon="-6.99274"><ele>1150.5</ele><time>2026-04-24T16:18:43.421Z</time></trkpt><trkpt lat="30.9432133" lon="-6.99259"><ele>1151.0</ele><time>2026-04-24T16:18:44.421Z</time></trkpt><trkpt lat="30.943195" lon="-6.99244"><ele>1151.5</ele><time>2026-04-24T16:18:45.421Z</time></trkpt><trkpt lat="30.943175" lon="-6.992295"><ele>1152.0</ele><time>2026-04-24T16:18:46.421Z</time></trkpt><trkpt lat="30.9431533" lon="-6.992145"><ele>1152.5</ele><time>2026-04-24T16:18:47.421Z</time></trkpt><trkpt lat="30.9431333" lon="-6.9919917"><ele>1153.0</ele><time>2026-04-24T16:18:48.421Z</time></trkpt><trkpt lat="30.9431167" lon="-6.9918383"><ele>1153.0</ele><time>2026-04-24T16:18:49.421Z</time></trkpt><trkpt lat="30.9431" lon="-6.99168"><ele>1153.0</ele><time>2026-04-24T16:18:50.421Z</time></trkpt><trkpt lat="30.9430817" lon="-6.991515"><ele>1153.0</ele><time>2026-04-24T16:18:51.421Z</time></trkpt><trkpt lat="30.9430583" lon="-6.9913517"><ele>1153.0</ele><time>2026-04-24T16:18:52.421Z</time></trkpt><trkpt lat="30.9430333" lon="-6.9911917"><ele>1153.0</ele><time>2026-04-24T16:18:53.422Z</time></trkpt><trkpt lat="30.9430067" lon="-6.9910317"><ele>1153.0</ele><time>2026-04-24T16:18:54.421Z</time></trkpt><trkpt lat="30.9429717" lon="-6.99088"><ele>1153.0</ele><time>2026-04-24T16:18:55.421Z</time></trkpt><trkpt lat="30.94292" lon="-6.9907267"><ele>1153.0</ele><time>2026-04-24T16:18:56.421Z</time></trkpt><trkpt lat="30.9428617" lon="-6.9905883"><ele>1153.25</ele><time>2026-04-24T16:18:57.421Z</time></trkpt><trkpt lat="30.9427917" lon="-6.9904633"><ele>1153.5</ele><time>2026-04-24T16:18:58.421Z</time></trkpt><trkpt lat="30.9427167" lon="-6.9903433"><ele>1153.75</ele><time>2026-04-24T16:18:59.421Z</time></trkpt><trkpt lat="30.9426367" lon="-6.9902233"><ele>1154.0</ele><time>2026-04-24T16:19:00.421Z</time></trkpt><trkpt lat="30.942555" lon="-6.990115"><ele>1153.75</ele><time>2026-04-24T16:19:01.421Z</time></trkpt><trkpt lat="30.94247" lon="-6.9900133"><ele>1153.5</ele><time>2026-04-24T16:19:02.421Z</time></trkpt><trkpt lat="30.942375" lon="-6.9899233"><ele>1153.25</ele><time>2026-04-24T16:19:03.421Z</time></trkpt><trkpt lat="30.9422683" lon="-6.9898417"><ele>1153.0</ele><time>2026-04-24T16:19:04.421Z</time></trkpt><trkpt lat="30.9421583" lon="-6.98976"><ele>1154.0</ele><time>2026-04-24T16:19:05.421Z</time></trkpt><trkpt lat="30.9420367" lon="-6.98969"><ele>1155.0</ele><time>2026-04-24T16:19:06.421Z</time></trkpt><trkpt lat="30.9419167" lon="-6.989625"><ele>1156.0</ele><time>2026-04-24T16:19:07.421Z</time></trkpt><trkpt lat="30.9417883" lon="-6.9895583"><ele>1157.0</ele><time>2026-04-24T16:19:08.421Z</time></trkpt><trkpt lat="30.941665" lon="-6.9894867"><ele>1157.0</ele><time>2026-04-24T16:19:09.421Z</time></trkpt><trkpt lat="30.9415483" lon="-6.9894167"><ele>1157.0</ele><time>2026-04-24T16:19:10.421Z</time></trkpt><trkpt lat="30.941445" lon="-6.9893517"><ele>1157.0</ele><time>2026-04-24T16:19:11.421Z</time></trkpt><trkpt lat="30.941345" lon="-6.989285"><ele>1157.0</ele><time>2026-04-24T16:19:12.421Z</time></trkpt><trkpt lat="30.9412467" lon="-6.9892117"><ele>1158.2</ele><time>2026-04-24T16:19:13.421Z</time></trkpt><trkpt lat="30.9411567" lon="-6.9891233"><ele>1159.4</ele><time>2026-04-24T16:19:14.421Z</time></trkpt><trkpt lat="30.9410817" lon="-6.9890283"><ele>1160.6</ele><time>2026-04-24T16:19:15.422Z</time></trkpt><trkpt lat="30.9410217" lon="-6.9889267"><ele>1161.8</ele><time>2026-04-24T16:19:16.421Z</time></trkpt><trkpt lat="30.9409667" lon="-6.9888133"><ele>1163.0</ele><time>2026-04-24T16:19:17.421Z</time></trkpt><trkpt lat="30.9409267" lon="-6.9886967"><ele>1163.0</ele><time>2026-04-24T16:19:18.421Z</time></trkpt><trkpt lat="30.9408983" lon="-6.9885783"><ele>1163.0</ele><time>2026-04-24T16:19:19.421Z</time></trkpt><trkpt lat="30.940875" lon="-6.9884617"><ele>1163.0</ele><time>2026-04-24T16:19:20.421Z</time></trkpt><trkpt lat="30.9408617" lon="-6.98836"><ele>1163.0</ele><time>2026-04-24T16:19:21.421Z</time></trkpt><trkpt lat="30.9408517" lon="-6.98826"><ele>1163.0</ele><time>2026-04-24T16:19:22.421Z</time></trkpt><trkpt lat="30.9408467" lon="-6.9881683"><ele>1162.8</ele><time>2026-04-24T16:19:23.421Z</time></trkpt><trkpt lat="30.94084" lon="-6.9880917"><ele>1162.6</ele><time>2026-04-24T16:19:24.421Z</time></trkpt><trkpt lat="30.9408317" lon="-6.9879583"><ele>1162.4</ele><time>2026-04-24T16:19:26.421Z</time></trkpt><trkpt lat="30.94081" lon="-6.9878283"><ele>1162.2</ele><time>2026-04-24T16:19:28.421Z</time></trkpt><trkpt lat="30.9408017" lon="-6.987705"><ele>1162.0</ele><time>2026-04-24T16:19:30.421Z</time></trkpt><trkpt lat="30.9407917" lon="-6.9875883"><ele>1161.6666666666665</ele><time>2026-04-24T16:19:32.421Z</time></trkpt><trkpt lat="30.9407717" lon="-6.9874767"><ele>1161.3333333333333</ele><time>2026-04-24T16:19:34.421Z</time></trkpt><trkpt lat="30.9407667" lon="-6.9873967"><ele>1161.0</ele><time>2026-04-24T16:19:36.421Z</time></trkpt><trkpt lat="30.94076" lon="-6.9873083"><ele>1160.6666666666667</ele><time>2026-04-24T16:19:42.421Z</time></trkpt><trkpt lat="30.94075" lon="-6.987225"><ele>1160.3333333333335</ele><time>2026-04-24T16:19:46.421Z</time></trkpt><trkpt lat="30.9407317" lon="-6.98713"><ele>1160.0</ele><time>2026-04-24T16:19:49.421Z</time></trkpt><trkpt lat="30.9407183" lon="-6.98703"><ele>1160.0</ele><time>2026-04-24T16:19:53.421Z</time></trkpt><trkpt lat="30.9407117" lon="-6.9869117"><ele>1160.0</ele><time>2026-04-24T16:19:55.421Z</time></trkpt><trkpt lat="30.9407033" lon="-6.9868333"><ele>1160.0</ele><time>2026-04-24T16:19:56.421Z</time></trkpt><trkpt lat="30.9406883" lon="-6.9867483"><ele>1160.0</ele><time>2026-04-24T16:19:57.421Z</time></trkpt><trkpt lat="30.940675" lon="-6.986655"><ele>1160.0</ele><time>2026-04-24T16:19:58.421Z</time></trkpt><trkpt lat="30.94066" lon="-6.9865533"><ele>1160.0</ele><time>2026-04-24T16:19:59.421Z</time></trkpt><trkpt lat="30.9406433" lon="-6.9864467"><ele>1160.0</ele><time>2026-04-24T16:20:00.421Z</time></trkpt><trkpt lat="30.9406317" lon="-6.9863333"><ele>1160.0</ele><time>2026-04-24T16:20:01.421Z</time></trkpt><trkpt lat="30.9406167" lon="-6.9862217"><ele>1160.0</ele><time>2026-04-24T16:20:02.421Z</time></trkpt><trkpt lat="30.9406017" lon="-6.986115"><ele>1160.0</ele><time>2026-04-24T16:20:03.421Z</time></trkpt><trkpt lat="30.9405867" lon="-6.9860183"><ele>1160.0</ele><time>2026-04-24T16:20:04.421Z</time></trkpt><trkpt lat="30.9405633" lon="-6.9859267"><ele>1160.0</ele><time>2026-04-24T16:20:05.421Z</time></trkpt><trkpt lat="30.9405333" lon="-6.9858383"><ele>1160.0</ele><time>2026-04-24T16:20:06.421Z</time></trkpt><trkpt lat="30.9405" lon="-6.985765"><ele>1160.0</ele><time>2026-04-24T16:20:07.422Z</time></trkpt><trkpt lat="30.94046" lon="-6.9857017"><ele>1160.0</ele><time>2026-04-24T16:20:08.421Z</time></trkpt><trkpt lat="30.94043" lon="-6.9856367"><ele>1160.0</ele><time>2026-04-24T16:20:09.421Z</time></trkpt><trkpt lat="30.940415" lon="-6.9854883"><ele>1160.0</ele><time>2026-04-24T16:20:11.421Z</time></trkpt><trkpt lat="30.9404317" lon="-6.9854083"><ele>1160.0</ele><time>2026-04-24T16:20:12.421Z</time></trkpt><trkpt lat="30.94045" lon="-6.98533"><ele>1160.0</ele><time>2026-04-24T16:20:13.421Z</time></trkpt><trkpt lat="30.9404667" lon="-6.9852567"><ele>1160.0</ele><time>2026-04-24T16:20:14.421Z</time></trkpt><trkpt lat="30.9404683" lon="-6.9851817"><ele>1160.0</ele><time>2026-04-24T16:20:15.421Z</time></trkpt><trkpt lat="30.940465" lon="-6.9850983"><ele>1160.0</ele><time>2026-04-24T16:20:16.421Z</time></trkpt><trkpt lat="30.94046" lon="-6.9850017"><ele>1160.0</ele><time>2026-04-24T16:20:17.421Z</time></trkpt><trkpt lat="30.9404517" lon="-6.9849"><ele>1160.0</ele><time>2026-04-24T16:20:18.421Z</time></trkpt><trkpt lat="30.940445" lon="-6.984785"><ele>1159.8</ele><time>2026-04-24T16:20:19.421Z</time></trkpt><trkpt lat="30.9404367" lon="-6.9846717"><ele>1159.6</ele><time>2026-04-24T16:20:20.421Z</time></trkpt><trkpt lat="30.9404283" lon="-6.984565"><ele>1159.4</ele><time>2026-04-24T16:20:21.421Z</time></trkpt><trkpt lat="30.9404217" lon="-6.9844567"><ele>1159.2</ele><time>2026-04-24T16:20:22.421Z</time></trkpt><trkpt lat="30.9404117" lon="-6.9843433"><ele>1159.0</ele><time>2026-04-24T16:20:23.421Z</time></trkpt><trkpt lat="30.9404033" lon="-6.9842183"><ele>1158.75</ele><time>2026-04-24T16:20:24.421Z</time></trkpt><trkpt lat="30.9403867" lon="-6.9840933"><ele>1158.5</ele><time>2026-04-24T16:20:25.421Z</time></trkpt><trkpt lat="30.9403717" lon="-6.9839683"><ele>1158.25</ele><time>2026-04-24T16:20:26.421Z</time></trkpt><trkpt lat="30.9403567" lon="-6.9838333"><ele>1158.0</ele><time>2026-04-24T16:20:27.422Z</time></trkpt><trkpt lat="30.9403417" lon="-6.9836933"><ele>1158.0</ele><time>2026-04-24T16:20:28.421Z</time></trkpt><trkpt lat="30.9403267" lon="-6.98356"><ele>1158.0</ele><time>2026-04-24T16:20:29.421Z</time></trkpt><trkpt lat="30.940315" lon="-6.9834367"><ele>1158.0</ele><time>2026-04-24T16:20:30.421Z</time></trkpt><trkpt lat="30.9403" lon="-6.9833033"><ele>1158.0</ele><time>2026-04-24T16:20:31.421Z</time></trkpt><trkpt lat="30.9402833" lon="-6.9831683"><ele>1158.5</ele><time>2026-04-24T16:20:32.421Z</time></trkpt><trkpt lat="30.9402667" lon="-6.983035"><ele>1159.0</ele><time>2026-04-24T16:20:33.422Z</time></trkpt><trkpt lat="30.9402483" lon="-6.98289"><ele>1159.5</ele><time>2026-04-24T16:20:34.421Z</time></trkpt><trkpt lat="30.94023" lon="-6.9827267"><ele>1160.0</ele><time>2026-04-24T16:20:35.421Z</time></trkpt><trkpt lat="30.94021" lon="-6.98255"><ele>1160.6666666666667</ele><time>2026-04-24T16:20:36.421Z</time></trkpt><trkpt lat="30.94018" lon="-6.9823533"><ele>1161.3333333333333</ele><time>2026-04-24T16:20:37.421Z</time></trkpt><trkpt lat="30.940155" lon="-6.982145"><ele>1162.0</ele><time>2026-04-24T16:20:38.421Z</time></trkpt><trkpt lat="30.9401283" lon="-6.9819283"><ele>1162.0</ele><time>2026-04-24T16:20:39.421Z</time></trkpt><trkpt lat="30.9400933" lon="-6.9817117"><ele>1162.0</ele><time>2026-04-24T16:20:40.421Z</time></trkpt><trkpt lat="30.940065" lon="-6.9814733"><ele>1162.0</ele><time>2026-04-24T16:20:41.421Z</time></trkpt><trkpt lat="30.9400283" lon="-6.9812233"><ele>1161.3333333333333</ele><time>2026-04-24T16:20:42.421Z</time></trkpt><trkpt lat="30.939995" lon="-6.9809767"><ele>1160.6666666666667</ele><time>2026-04-24T16:20:43.421Z</time></trkpt><trkpt lat="30.939965" lon="-6.98074"><ele>1160.0</ele><time>2026-04-24T16:20:44.421Z</time></trkpt><trkpt lat="30.9399367" lon="-6.9804967"><ele>1160.0</ele><time>2026-04-24T16:20:45.421Z</time></trkpt><trkpt lat="30.93991" lon="-6.9802517"><ele>1160.0</ele><time>2026-04-24T16:20:46.421Z</time></trkpt><trkpt lat="30.9398833" lon="-6.9799983"><ele>1160.0</ele><time>2026-04-24T16:20:47.421Z</time></trkpt><trkpt lat="30.9398533" lon="-6.979745"><ele>1158.6666666666667</ele><time>2026-04-24T16:20:48.421Z</time></trkpt><trkpt lat="30.939825" lon="-6.979495"><ele>1157.3333333333333</ele><time>2026-04-24T16:20:49.421Z</time></trkpt><trkpt lat="30.9397967" lon="-6.9792517"><ele>1156.0</ele><time>2026-04-24T16:20:50.421Z</time></trkpt><trkpt lat="30.93977" lon="-6.9790183"><ele>1156.0</ele><time>2026-04-24T16:20:51.421Z</time></trkpt><trkpt lat="30.9397433" lon="-6.9787883"><ele>1156.0</ele><time>2026-04-24T16:20:52.421Z</time></trkpt><trkpt lat="30.9397167" lon="-6.978555"><ele>1156.0</ele><time>2026-04-24T16:20:53.422Z</time></trkpt><trkpt lat="30.9396883" lon="-6.978325"><ele>1156.0</ele><time>2026-04-24T16:20:54.421Z</time></trkpt><trkpt lat="30.93966" lon="-6.9781033"><ele>1156.0</ele><time>2026-04-24T16:20:55.421Z</time></trkpt><trkpt lat="30.939635" lon="-6.9778883"><ele>1156.0</ele><time>2026-04-24T16:20:56.421Z</time></trkpt><trkpt lat="30.9396083" lon="-6.9776833"><ele>1155.6666666666665</ele><time>2026-04-24T16:20:57.421Z</time></trkpt><trkpt lat="30.9395883" lon="-6.9774833"><ele>1155.3333333333333</ele><time>2026-04-24T16:20:58.421Z</time></trkpt><trkpt lat="30.9395633" lon="-6.9772833"><ele>1155.0</ele><time>2026-04-24T16:20:59.421Z</time></trkpt><trkpt lat="30.93954" lon="-6.9770783"><ele>1155.0</ele><time>2026-04-24T16:21:00.421Z</time></trkpt><trkpt lat="30.93952" lon="-6.976875"><ele>1155.0</ele><time>2026-04-24T16:21:01.421Z</time></trkpt><trkpt lat="30.9394983" lon="-6.9766783"><ele>1155.0</ele><time>2026-04-24T16:21:02.421Z</time></trkpt><trkpt lat="30.93947" lon="-6.9764883"><ele>1154.6666666666667</ele><time>2026-04-24T16:21:03.422Z</time></trkpt><trkpt lat="30.939445" lon="-6.9763067"><ele>1154.3333333333335</ele><time>2026-04-24T16:21:04.421Z</time></trkpt><trkpt lat="30.939425" lon="-6.976135"><ele>1154.0</ele><time>2026-04-24T16:21:05.421Z</time></trkpt><trkpt lat="30.939405" lon="-6.9759583"><ele>1153.6666666666667</ele><time>2026-04-24T16:21:06.421Z</time></trkpt><trkpt lat="30.9393833" lon="-6.975775"><ele>1153.3333333333333</ele><time>2026-04-24T16:21:07.421Z</time></trkpt><trkpt lat="30.9393567" lon="-6.97558"><ele>1153.0</ele><time>2026-04-24T16:21:08.421Z</time></trkpt><trkpt lat="30.93933" lon="-6.9753767"><ele>1153.0</ele><time>2026-04-24T16:21:09.421Z</time></trkpt><trkpt lat="30.939305" lon="-6.9751683"><ele>1153.0</ele><time>2026-04-24T16:21:10.421Z</time></trkpt><trkpt lat="30.93928" lon="-6.9749567"><ele>1153.0</ele><time>2026-04-24T16:21:11.421Z</time></trkpt><trkpt lat="30.9392583" lon="-6.9747367"><ele>1153.0</ele><time>2026-04-24T16:21:12.421Z</time></trkpt><trkpt lat="30.9392317" lon="-6.9745117"><ele>1153.0</ele><time>2026-04-24T16:21:13.421Z</time></trkpt><trkpt lat="30.939205" lon="-6.97428"><ele>1153.0</ele><time>2026-04-24T16:21:14.421Z</time></trkpt><trkpt lat="30.9391783" lon="-6.974055"><ele>1153.6666666666665</ele><time>2026-04-24T16:21:15.421Z</time></trkpt><trkpt lat="30.9391517" lon="-6.973835"><ele>1154.3333333333333</ele><time>2026-04-24T16:21:16.421Z</time></trkpt><trkpt lat="30.93913" lon="-6.9736267"><ele>1155.0</ele><time>2026-04-24T16:21:17.421Z</time></trkpt><trkpt lat="30.93911" lon="-6.973415"><ele>1154.6666666666667</ele><time>2026-04-24T16:21:18.421Z</time></trkpt><trkpt lat="30.93909" lon="-6.9732033"><ele>1154.3333333333335</ele><time>2026-04-24T16:21:19.421Z</time></trkpt><trkpt lat="30.93907" lon="-6.972985"><ele>1154.0</ele><time>2026-04-24T16:21:20.421Z</time></trkpt><trkpt lat="30.9390483" lon="-6.9727683"><ele>1154.0</ele><time>2026-04-24T16:21:21.421Z</time></trkpt><trkpt lat="30.9390217" lon="-6.9725617"><ele>1154.0</ele><time>2026-04-24T16:21:22.421Z</time></trkpt><trkpt lat="30.9389967" lon="-6.972365"><ele>1154.0</ele><time>2026-04-24T16:21:23.421Z</time></trkpt><trkpt lat="30.9389717" lon="-6.9721617"><ele>1154.3333333333335</ele><time>2026-04-24T16:21:24.421Z</time></trkpt><trkpt lat="30.938945" lon="-6.9719583"><ele>1154.6666666666667</ele><time>2026-04-24T16:21:25.422Z</time></trkpt><trkpt lat="30.9389183" lon="-6.9717517"><ele>1155.0</ele><time>2026-04-24T16:21:26.421Z</time></trkpt><trkpt lat="30.9388917" lon="-6.9715483"><ele>1155.6666666666667</ele><time>2026-04-24T16:21:27.421Z</time></trkpt><trkpt lat="30.9388683" lon="-6.9713467"><ele>1156.3333333333335</ele><time>2026-04-24T16:21:28.421Z</time></trkpt><trkpt lat="30.9388483" lon="-6.9711567"><ele>1157.0</ele><time>2026-04-24T16:21:29.421Z</time></trkpt><trkpt lat="30.9388267" lon="-6.9709717"><ele>1156.0</ele><time>2026-04-24T16:21:30.421Z</time></trkpt><trkpt lat="30.938805" lon="-6.9707883"><ele>1155.0</ele><time>2026-04-24T16:21:31.421Z</time></trkpt><trkpt lat="30.9387883" lon="-6.9706133"><ele>1154.0</ele><time>2026-04-24T16:21:32.422Z</time></trkpt><trkpt lat="30.9387667" lon="-6.97044"><ele>1154.0</ele><time>2026-04-24T16:21:33.421Z</time></trkpt><trkpt lat="30.9387467" lon="-6.9702733"><ele>1154.0</ele><time>2026-04-24T16:21:34.421Z</time></trkpt><trkpt lat="30.9387267" lon="-6.9701133"><ele>1154.0</ele><time>2026-04-24T16:21:35.421Z</time></trkpt><trkpt lat="30.9387133" lon="-6.96996"><ele>1154.0</ele><time>2026-04-24T16:21:36.421Z</time></trkpt><trkpt lat="30.9386933" lon="-6.9698083"><ele>1153.5</ele><time>2026-04-24T16:21:37.421Z</time></trkpt><trkpt lat="30.9386717" lon="-6.969665"><ele>1153.0</ele><time>2026-04-24T16:21:38.421Z</time></trkpt><trkpt lat="30.9386583" lon="-6.9695233"><ele>1152.5</ele><time>2026-04-24T16:21:39.421Z</time></trkpt><trkpt lat="30.9386467" lon="-6.9693783"><ele>1152.0</ele><time>2026-04-24T16:21:40.421Z</time></trkpt><trkpt lat="30.93863" lon="-6.96922"><ele>1151.75</ele><time>2026-04-24T16:21:41.422Z</time></trkpt><trkpt lat="30.9386133" lon="-6.96906"><ele>1151.5</ele><time>2026-04-24T16:21:42.421Z</time></trkpt><trkpt lat="30.9385967" lon="-6.9689017"><ele>1151.25</ele><time>2026-04-24T16:21:43.421Z</time></trkpt><trkpt lat="30.9385667" lon="-6.968745"><ele>1151.0</ele><time>2026-04-24T16:21:44.421Z</time></trkpt><trkpt lat="30.9385567" lon="-6.96859"><ele>1151.0</ele><time>2026-04-24T16:21:45.421Z</time></trkpt><trkpt lat="30.9385333" lon="-6.9684483"><ele>1151.0</ele><time>2026-04-24T16:21:46.421Z</time></trkpt><trkpt lat="30.938525" lon="-6.9683"><ele>1151.0</ele><time>2026-04-24T16:21:47.421Z</time></trkpt><trkpt lat="30.9385067" lon="-6.968165"><ele>1151.0</ele><time>2026-04-24T16:21:48.421Z</time></trkpt><trkpt lat="30.9384933" lon="-6.9680183"><ele>1150.3999999999999</ele><time>2026-04-24T16:21:49.421Z</time></trkpt><trkpt lat="30.9384733" lon="-6.9678767"><ele>1149.8</ele><time>2026-04-24T16:21:50.421Z</time></trkpt><trkpt lat="30.9384617" lon="-6.9677467"><ele>1149.1999999999998</ele><time>2026-04-24T16:21:51.421Z</time></trkpt><trkpt lat="30.9384483" lon="-6.9676233"><ele>1148.6</ele><time>2026-04-24T16:21:52.421Z</time></trkpt><trkpt lat="30.9384367" lon="-6.9675167"><ele>1148.0</ele><time>2026-04-24T16:21:53.421Z</time></trkpt><trkpt lat="30.9384333" lon="-6.9674383"><ele>1147.4</ele><time>2026-04-24T16:21:54.42Z</time></trkpt><trkpt lat="30.9384267" lon="-6.967325"><ele>1146.8</ele><time>2026-04-24T16:21:56.42Z</time></trkpt><trkpt lat="30.9384917" lon="-6.967275"><ele>1146.2</ele><time>2026-04-24T16:21:58.42Z</time></trkpt><trkpt lat="30.93862" lon="-6.9672583"><ele>1145.6</ele><time>2026-04-24T16:22:00.42Z</time></trkpt><trkpt lat="30.9386917" lon="-6.9672567"><ele>1145.0</ele><time>2026-04-24T16:22:01.42Z</time></trkpt><trkpt lat="30.9387767" lon="-6.96725"><ele>1145.0</ele><time>2026-04-24T16:22:02.42Z</time></trkpt><trkpt lat="30.9388633" lon="-6.9672417"><ele>1145.0</ele><time>2026-04-24T16:22:03.42Z</time></trkpt><trkpt lat="30.9389433" lon="-6.96723"><ele>1145.0</ele><time>2026-04-24T16:22:04.42Z</time></trkpt><trkpt lat="30.9390267" lon="-6.9672217"><ele>1145.0</ele><time>2026-04-24T16:22:05.42Z</time></trkpt><trkpt lat="30.93911" lon="-6.9672117"><ele>1145.0</ele><time>2026-04-24T16:22:06.42Z</time></trkpt><trkpt lat="30.9391917" lon="-6.9671983"><ele>1145.0</ele><time>2026-04-24T16:22:07.42Z</time></trkpt><trkpt lat="30.9392667" lon="-6.96719"><ele>1145.0</ele><time>2026-04-24T16:22:08.42Z</time></trkpt><trkpt lat="30.9393383" lon="-6.9671833"><ele>1145.0</ele><time>2026-04-24T16:22:09.42Z</time></trkpt><trkpt lat="30.9394083" lon="-6.9671717"><ele>1145.0</ele><time>2026-04-24T16:22:10.42Z</time></trkpt><trkpt lat="30.93948" lon="-6.9671617"><ele>1145.0</ele><time>2026-04-24T16:22:11.42Z</time></trkpt><trkpt lat="30.9395433" lon="-6.9671517"><ele>1145.0</ele><time>2026-04-24T16:22:12.42Z</time></trkpt><trkpt lat="30.9396083" lon="-6.9671417"><ele>1145.0</ele><time>2026-04-24T16:22:13.42Z</time></trkpt><trkpt lat="30.9397267" lon="-6.9671267"><ele>1145.0</ele><time>2026-04-24T16:22:15.42Z</time></trkpt><trkpt lat="30.9397933" lon="-6.9671167"><ele>1145.0</ele><time>2026-04-24T16:22:16.42Z</time></trkpt><trkpt lat="30.9398683" lon="-6.9671033"><ele>1145.0</ele><time>2026-04-24T16:22:17.42Z</time></trkpt><trkpt lat="30.9399467" lon="-6.9670933"><ele>1145.0</ele><time>2026-04-24T16:22:18.42Z</time></trkpt><trkpt lat="30.9400117" lon="-6.9670867"><ele>1145.0</ele><time>2026-04-24T16:22:19.42Z</time></trkpt><trkpt lat="30.9401067" lon="-6.9670617"><ele>1145.0</ele><time>2026-04-24T16:22:21.42Z</time></trkpt><trkpt lat="30.9401833" lon="-6.9670467"><ele>1145.3333333333335</ele><time>2026-04-24T16:22:23.42Z</time></trkpt><trkpt lat="30.9402683" lon="-6.9670417"><ele>1145.6666666666667</ele><time>2026-04-24T16:22:25.42Z</time></trkpt><trkpt lat="30.9403583" lon="-6.9670333"><ele>1146.0</ele><time>2026-04-24T16:22:27.42Z</time></trkpt><trkpt lat="30.940435" lon="-6.9670233"><ele>1146.3333333333333</ele><time>2026-04-24T16:22:29.42Z</time></trkpt><trkpt lat="30.9404983" lon="-6.96701"><ele>1146.6666666666665</ele><time>2026-04-24T16:22:31.42Z</time></trkpt><trkpt lat="30.9405817" lon="-6.9670217"><ele>1147.0</ele><time>2026-04-24T16:22:34.42Z</time></trkpt><trkpt lat="30.9406367" lon="-6.967075"><ele>1147.0</ele><time>2026-04-24T16:22:36.42Z</time></trkpt><trkpt lat="30.9406617" lon="-6.9671633"><ele>1147.0</ele><time>2026-04-24T16:22:38.42Z</time></trkpt><trkpt lat="30.9407033" lon="-6.9672233"><ele>1147.0</ele><time>2026-04-24T16:22:41.42Z</time></trkpt><trkpt lat="30.9406483" lon="-6.9671717"><ele>1147.0</ele><time>2026-04-24T17:33:50.413Z</time></trkpt><trkpt lat="30.94061" lon="-6.96708"><ele>1147.0</ele><time>2026-04-24T17:33:53.413Z</time></trkpt><trkpt lat="30.940545" lon="-6.967025"><ele>1147.0</ele><time>2026-04-24T17:33:56.413Z</time></trkpt><trkpt lat="30.9404783" lon="-6.9670283"><ele>1147.0</ele><time>2026-04-24T17:33:58.413Z</time></trkpt><trkpt lat="30.9403817" lon="-6.9670517"><ele>1147.0</ele><time>2026-04-24T17:34:00.413Z</time></trkpt><trkpt lat="30.9402967" lon="-6.9670717"><ele>1147.0</ele><time>2026-04-24T17:34:02.414Z</time></trkpt><trkpt lat="30.9402067" lon="-6.9670833"><ele>1147.0</ele><time>2026-04-24T17:34:05.413Z</time></trkpt><trkpt lat="30.9401233" lon="-6.9670983"><ele>1147.0</ele><time>2026-04-24T17:34:07.413Z</time></trkpt><trkpt lat="30.9400267" lon="-6.9671233"><ele>1146.6666666666665</ele><time>2026-04-24T17:34:09.413Z</time></trkpt><trkpt lat="30.9399267" lon="-6.9671417"><ele>1146.3333333333333</ele><time>2026-04-24T17:34:11.413Z</time></trkpt><trkpt lat="30.9398383" lon="-6.9671533"><ele>1146.0</ele><time>2026-04-24T17:34:13.413Z</time></trkpt><trkpt lat="30.93976" lon="-6.9671617"><ele>1145.6666666666667</ele><time>2026-04-24T17:34:15.413Z</time></trkpt><trkpt lat="30.9396883" lon="-6.9671783"><ele>1145.3333333333335</ele><time>2026-04-24T17:34:17.413Z</time></trkpt><trkpt lat="30.9396183" lon="-6.96718"><ele>1145.0</ele><time>2026-04-24T17:34:19.413Z</time></trkpt><trkpt lat="30.9395317" lon="-6.96719"><ele>1145.0</ele><time>2026-04-24T17:34:21.413Z</time></trkpt><trkpt lat="30.939435" lon="-6.9671983"><ele>1145.0</ele><time>2026-04-24T17:34:23.413Z</time></trkpt><trkpt lat="30.9393333" lon="-6.9672083"><ele>1145.0</ele><time>2026-04-24T17:34:25.413Z</time></trkpt><trkpt lat="30.9392333" lon="-6.967225"><ele>1145.0</ele><time>2026-04-24T17:34:27.413Z</time></trkpt><trkpt lat="30.93911" lon="-6.96725"><ele>1145.0</ele><time>2026-04-24T17:34:30.413Z</time></trkpt><trkpt lat="30.9390383" lon="-6.9672583"><ele>1145.0</ele><time>2026-04-24T17:34:32.413Z</time></trkpt><trkpt lat="30.9389583" lon="-6.9672667"><ele>1145.0</ele><time>2026-04-24T17:34:34.414Z</time></trkpt><trkpt lat="30.9388817" lon="-6.9672783"><ele>1145.0</ele><time>2026-04-24T17:34:36.414Z</time></trkpt><trkpt lat="30.938785" lon="-6.9672983"><ele>1145.0</ele><time>2026-04-24T17:34:39.413Z</time></trkpt><trkpt lat="30.938685" lon="-6.9673117"><ele>1145.0</ele><time>2026-04-24T17:34:41.413Z</time></trkpt><trkpt lat="30.9385933" lon="-6.9673183"><ele>1145.0</ele><time>2026-04-24T17:34:43.413Z</time></trkpt><trkpt lat="30.938525" lon="-6.96733"><ele>1145.0</ele><time>2026-04-24T17:34:45.413Z</time></trkpt><trkpt lat="30.9384117" lon="-6.9673217"><ele>1145.0</ele><time>2026-04-24T17:34:56.413Z</time></trkpt><trkpt lat="30.938355" lon="-6.967245"><ele>1145.0</ele><time>2026-04-24T17:34:58.413Z</time></trkpt><trkpt lat="30.9383267" lon="-6.9671233"><ele>1145.0</ele><time>2026-04-24T17:35:00.413Z</time></trkpt><trkpt lat="30.9383" lon="-6.9669833"><ele>1145.0</ele><time>2026-04-24T17:35:02.413Z</time></trkpt><trkpt lat="30.93829" lon="-6.9669083"><ele>1145.7142857142858</ele><time>2026-04-24T17:35:03.413Z</time></trkpt><trkpt lat="30.9382817" lon="-6.9668267"><ele>1146.4285714285716</ele><time>2026-04-24T17:35:04.413Z</time></trkpt><trkpt lat="30.9382733" lon="-6.9667433"><ele>1147.142857142857</ele><time>2026-04-24T17:35:05.413Z</time></trkpt><trkpt lat="30.9382683" lon="-6.9666583"><ele>1147.857142857143</ele><time>2026-04-24T17:35:06.414Z</time></trkpt><trkpt lat="30.9382617" lon="-6.9665733"><ele>1148.5714285714284</ele><time>2026-04-24T17:35:07.413Z</time></trkpt><trkpt lat="30.9382567" lon="-6.9664867"><ele>1149.2857142857142</ele><time>2026-04-24T17:35:08.413Z</time></trkpt><trkpt lat="30.9382483" lon="-6.9664"><ele>1150.0</ele><time>2026-04-24T17:35:09.413Z</time></trkpt><trkpt lat="30.9382367" lon="-6.96631"><ele>1150.0</ele><time>2026-04-24T17:35:10.413Z</time></trkpt><trkpt lat="30.938225" lon="-6.9662183"><ele>1150.0</ele><time>2026-04-24T17:35:11.413Z</time></trkpt><trkpt lat="30.9382167" lon="-6.9661183"><ele>1150.0</ele><time>2026-04-24T17:35:12.413Z</time></trkpt><trkpt lat="30.9382033" lon="-6.9660217"><ele>1150.0</ele><time>2026-04-24T17:35:13.414Z</time></trkpt><trkpt lat="30.93819" lon="-6.965925"><ele>1150.0</ele><time>2026-04-24T17:35:14.413Z</time></trkpt><trkpt lat="30.9381717" lon="-6.9658317"><ele>1150.0</ele><time>2026-04-24T17:35:15.413Z</time></trkpt><trkpt lat="30.93816" lon="-6.965735"><ele>1149.6666666666665</ele><time>2026-04-24T17:35:16.413Z</time></trkpt><trkpt lat="30.9381533" lon="-6.9656383"><ele>1149.3333333333333</ele><time>2026-04-24T17:35:17.413Z</time></trkpt><trkpt lat="30.938145" lon="-6.965545"><ele>1149.0</ele><time>2026-04-24T17:35:18.413Z</time></trkpt><trkpt lat="30.9381367" lon="-6.9654483"><ele>1148.6666666666667</ele><time>2026-04-24T17:35:19.413Z</time></trkpt><trkpt lat="30.93812" lon="-6.9653517"><ele>1148.3333333333335</ele><time>2026-04-24T17:35:20.413Z</time></trkpt><trkpt lat="30.93811" lon="-6.9652533"><ele>1148.0</ele><time>2026-04-24T17:35:21.413Z</time></trkpt><trkpt lat="30.9381" lon="-6.9651567"><ele>1148.0</ele><time>2026-04-24T17:35:22.413Z</time></trkpt><trkpt lat="30.93809" lon="-6.9650617"><ele>1148.0</ele><time>2026-04-24T17:35:23.413Z</time></trkpt><trkpt lat="30.9380783" lon="-6.964975"><ele>1148.0</ele><time>2026-04-24T17:35:24.413Z</time></trkpt><trkpt lat="30.93807" lon="-6.9648933"><ele>1148.0</ele><time>2026-04-24T17:35:25.413Z</time></trkpt><trkpt lat="30.9380567" lon="-6.9648033"><ele>1148.0</ele><time>2026-04-24T17:35:26.413Z</time></trkpt><trkpt lat="30.938045" lon="-6.96471"><ele>1148.0</ele><time>2026-04-24T17:35:27.413Z</time></trkpt><trkpt lat="30.938035" lon="-6.964605"><ele>1147.2</ele><time>2026-04-24T17:35:28.413Z</time></trkpt><trkpt lat="30.9380233" lon="-6.964495"><ele>1146.4</ele><time>2026-04-24T17:35:29.413Z</time></trkpt><trkpt lat="30.9380083" lon="-6.9643817"><ele>1145.6000000000001</ele><time>2026-04-24T17:35:30.413Z</time></trkpt><trkpt lat="30.9379983" lon="-6.9642667"><ele>1144.8</ele><time>2026-04-24T17:35:31.413Z</time></trkpt><trkpt lat="30.93798" lon="-6.9641567"><ele>1144.0</ele><time>2026-04-24T17:35:32.413Z</time></trkpt><trkpt lat="30.9379617" lon="-6.9640583"><ele>1143.3333333333333</ele><time>2026-04-24T17:35:33.413Z</time></trkpt><trkpt lat="30.93794" lon="-6.9639583"><ele>1142.6666666666665</ele><time>2026-04-24T17:35:34.413Z</time></trkpt><trkpt lat="30.93792" lon="-6.9638617"><ele>1142.0</ele><time>2026-04-24T17:35:35.413Z</time></trkpt><trkpt lat="30.9378933" lon="-6.9637683"><ele>1141.3333333333333</ele><time>2026-04-24T17:35:36.413Z</time></trkpt><trkpt lat="30.9378633" lon="-6.9636767"><ele>1140.6666666666667</ele><time>2026-04-24T17:35:37.413Z</time></trkpt><trkpt lat="30.9378333" lon="-6.963585"><ele>1140.0</ele><time>2026-04-24T17:35:38.413Z</time></trkpt><trkpt lat="30.9378033" lon="-6.9634933"><ele>1140.0</ele><time>2026-04-24T17:35:39.414Z</time></trkpt><trkpt lat="30.9377733" lon="-6.9634067"><ele>1140.0</ele><time>2026-04-24T17:35:40.413Z</time></trkpt><trkpt lat="30.93775" lon="-6.9633233"><ele>1140.0</ele><time>2026-04-24T17:35:41.413Z</time></trkpt><trkpt lat="30.9377233" lon="-6.9632433"><ele>1140.0</ele><time>2026-04-24T17:35:42.413Z</time></trkpt><trkpt lat="30.9376967" lon="-6.9631633"><ele>1140.0</ele><time>2026-04-24T17:35:43.413Z</time></trkpt><trkpt lat="30.9376667" lon="-6.963085"><ele>1140.0</ele><time>2026-04-24T17:35:44.413Z</time></trkpt><trkpt lat="30.937635" lon="-6.9629983"><ele>1140.6</ele><time>2026-04-24T17:35:45.413Z</time></trkpt><trkpt lat="30.9375967" lon="-6.9629033"><ele>1141.2</ele><time>2026-04-24T17:35:46.413Z</time></trkpt><trkpt lat="30.937555" lon="-6.962805"><ele>1141.8</ele><time>2026-04-24T17:35:47.413Z</time></trkpt><trkpt lat="30.9375067" lon="-6.9627067"><ele>1142.4</ele><time>2026-04-24T17:35:48.413Z</time></trkpt><trkpt lat="30.9374583" lon="-6.9626083"><ele>1143.0</ele><time>2026-04-24T17:35:49.413Z</time></trkpt><trkpt lat="30.9374167" lon="-6.962515"><ele>1143.2</ele><time>2026-04-24T17:35:50.413Z</time></trkpt><trkpt lat="30.9373733" lon="-6.9624283"><ele>1143.4</ele><time>2026-04-24T17:35:51.413Z</time></trkpt><trkpt lat="30.937325" lon="-6.9623467"><ele>1143.6000000000001</ele><time>2026-04-24T17:35:52.413Z</time></trkpt><trkpt lat="30.937275" lon="-6.9622583"><ele>1143.8</ele><time>2026-04-24T17:35:53.413Z</time></trkpt><trkpt lat="30.9372167" lon="-6.9621717"><ele>1144.0</ele><time>2026-04-24T17:35:54.413Z</time></trkpt><trkpt lat="30.9371567" lon="-6.9620833"><ele>1144.0</ele><time>2026-04-24T17:35:55.413Z</time></trkpt><trkpt lat="30.9371033" lon="-6.9619933"><ele>1144.0</ele><time>2026-04-24T17:35:56.413Z</time></trkpt><trkpt lat="30.9370433" lon="-6.9619017"><ele>1144.0</ele><time>2026-04-24T17:35:57.413Z</time></trkpt><trkpt lat="30.9369833" lon="-6.9618167"><ele>1144.0</ele><time>2026-04-24T17:35:58.413Z</time></trkpt><trkpt lat="30.93693" lon="-6.96173"><ele>1144.0</ele><time>2026-04-24T17:35:59.413Z</time></trkpt><trkpt lat="30.936875" lon="-6.9616483"><ele>1143.4</ele><time>2026-04-24T17:36:00.413Z</time></trkpt><trkpt lat="30.9368233" lon="-6.961565"><ele>1142.8000000000002</ele><time>2026-04-24T17:36:01.413Z</time></trkpt><trkpt lat="30.9367617" lon="-6.96147"><ele>1142.1999999999998</ele><time>2026-04-24T17:36:02.413Z</time></trkpt><trkpt lat="30.9367017" lon="-6.9613733"><ele>1141.6</ele><time>2026-04-24T17:36:03.413Z</time></trkpt><trkpt lat="30.9366383" lon="-6.96128"><ele>1141.0</ele><time>2026-04-24T17:36:04.413Z</time></trkpt><trkpt lat="30.93658" lon="-6.96119"><ele>1140.8</ele><time>2026-04-24T17:36:05.413Z</time></trkpt><trkpt lat="30.9365217" lon="-6.961095"><ele>1140.6</ele><time>2026-04-24T17:36:06.413Z</time></trkpt><trkpt lat="30.9364633" lon="-6.9609967"><ele>1140.4</ele><time>2026-04-24T17:36:07.413Z</time></trkpt><trkpt lat="30.9364017" lon="-6.9608933"><ele>1140.2</ele><time>2026-04-24T17:36:08.413Z</time></trkpt><trkpt lat="30.9363417" lon="-6.9607917"><ele>1140.0</ele><time>2026-04-24T17:36:09.413Z</time></trkpt><trkpt lat="30.9362717" lon="-6.9606917"><ele>1139.5</ele><time>2026-04-24T17:36:10.413Z</time></trkpt><trkpt lat="30.936205" lon="-6.96059"><ele>1139.0</ele><time>2026-04-24T17:36:11.413Z</time></trkpt><trkpt lat="30.9361367" lon="-6.960485"><ele>1138.5</ele><time>2026-04-24T17:36:12.413Z</time></trkpt><trkpt lat="30.9360583" lon="-6.9603733"><ele>1138.0</ele><time>2026-04-24T17:36:13.413Z</time></trkpt><trkpt lat="30.9359833" lon="-6.96026"><ele>1138.0</ele><time>2026-04-24T17:36:14.413Z</time></trkpt><trkpt lat="30.9359067" lon="-6.9601483"><ele>1138.0</ele><time>2026-04-24T17:36:15.413Z</time></trkpt><trkpt lat="30.9358317" lon="-6.9600317"><ele>1138.0</ele><time>2026-04-24T17:36:16.414Z</time></trkpt><trkpt lat="30.9357517" lon="-6.9599117"><ele>1138.0</ele><time>2026-04-24T17:36:17.412Z</time></trkpt><trkpt lat="30.9356717" lon="-6.95979"><ele>1137.25</ele><time>2026-04-24T17:36:18.412Z</time></trkpt><trkpt lat="30.93559" lon="-6.959665"><ele>1136.5</ele><time>2026-04-24T17:36:19.412Z</time></trkpt><trkpt lat="30.93551" lon="-6.9595417"><ele>1135.75</ele><time>2026-04-24T17:36:20.412Z</time></trkpt><trkpt lat="30.93543" lon="-6.9594183"><ele>1135.0</ele><time>2026-04-24T17:36:21.412Z</time></trkpt><trkpt lat="30.935355" lon="-6.9593033"><ele>1135.0</ele><time>2026-04-24T17:36:22.412Z</time></trkpt><trkpt lat="30.9352817" lon="-6.959185"><ele>1135.0</ele><time>2026-04-24T17:36:23.412Z</time></trkpt><trkpt lat="30.93521" lon="-6.959065"><ele>1135.0</ele><time>2026-04-24T17:36:24.412Z</time></trkpt><trkpt lat="30.93513" lon="-6.9589467"><ele>1135.0</ele><time>2026-04-24T17:36:25.412Z</time></trkpt><trkpt lat="30.93506" lon="-6.9588233"><ele>1135.0</ele><time>2026-04-24T17:36:26.412Z</time></trkpt><trkpt lat="30.9349867" lon="-6.9587"><ele>1135.0</ele><time>2026-04-24T17:36:27.412Z</time></trkpt><trkpt lat="30.93491" lon="-6.9585733"><ele>1135.0</ele><time>2026-04-24T17:36:28.412Z</time></trkpt><trkpt lat="30.9348333" lon="-6.9584467"><ele>1135.0</ele><time>2026-04-24T17:36:29.412Z</time></trkpt><trkpt lat="30.9347483" lon="-6.958325"><ele>1135.5</ele><time>2026-04-24T17:36:30.412Z</time></trkpt><trkpt lat="30.93466" lon="-6.9582017"><ele>1136.0</ele><time>2026-04-24T17:36:31.412Z</time></trkpt><trkpt lat="30.9345667" lon="-6.958075"><ele>1136.5</ele><time>2026-04-24T17:36:32.412Z</time></trkpt><trkpt lat="30.934475" lon="-6.9579517"><ele>1137.0</ele><time>2026-04-24T17:36:33.412Z</time></trkpt><trkpt lat="30.9343833" lon="-6.95782"><ele>1137.0</ele><time>2026-04-24T17:36:34.412Z</time></trkpt><trkpt lat="30.9342983" lon="-6.957685"><ele>1137.0</ele><time>2026-04-24T17:36:35.412Z</time></trkpt><trkpt lat="30.9342167" lon="-6.9575533"><ele>1137.0</ele><time>2026-04-24T17:36:36.412Z</time></trkpt><trkpt lat="30.9341333" lon="-6.9574233"><ele>1137.0</ele><time>2026-04-24T17:36:37.413Z</time></trkpt><trkpt lat="30.93405" lon="-6.9572967"><ele>1136.5</ele><time>2026-04-24T17:36:38.413Z</time></trkpt><trkpt lat="30.9339683" lon="-6.957175"><ele>1136.0</ele><time>2026-04-24T17:36:39.412Z</time></trkpt><trkpt lat="30.93389" lon="-6.9570533"><ele>1135.5</ele><time>2026-04-24T17:36:40.412Z</time></trkpt><trkpt lat="30.9338083" lon="-6.9569367"><ele>1135.0</ele><time>2026-04-24T17:36:41.412Z</time></trkpt><trkpt lat="30.9337283" lon="-6.9568167"><ele>1135.0</ele><time>2026-04-24T17:36:42.412Z</time></trkpt><trkpt lat="30.93365" lon="-6.9566917"><ele>1135.0</ele><time>2026-04-24T17:36:43.412Z</time></trkpt><trkpt lat="30.9335717" lon="-6.956565"><ele>1135.0</ele><time>2026-04-24T17:36:44.412Z</time></trkpt><trkpt lat="30.93349" lon="-6.956435"><ele>1135.0</ele><time>2026-04-24T17:36:45.412Z</time></trkpt><trkpt lat="30.93341" lon="-6.9563033"><ele>1135.0</ele><time>2026-04-24T17:36:46.412Z</time></trkpt><trkpt lat="30.933325" lon="-6.95617"><ele>1135.0</ele><time>2026-04-24T17:36:47.412Z</time></trkpt><trkpt lat="30.9332417" lon="-6.956035"><ele>1135.0</ele><time>2026-04-24T17:36:48.412Z</time></trkpt><trkpt lat="30.9331567" lon="-6.9558967"><ele>1135.0</ele><time>2026-04-24T17:36:49.412Z</time></trkpt><trkpt lat="30.9330717" lon="-6.9557533"><ele>1135.0</ele><time>2026-04-24T17:36:50.412Z</time></trkpt><trkpt lat="30.9329933" lon="-6.9556117"><ele>1135.0</ele><time>2026-04-24T17:36:51.413Z</time></trkpt><trkpt lat="30.9329167" lon="-6.9554733"><ele>1135.0</ele><time>2026-04-24T17:36:52.412Z</time></trkpt><trkpt lat="30.9328417" lon="-6.9553333"><ele>1135.0</ele><time>2026-04-24T17:36:53.412Z</time></trkpt><trkpt lat="30.93277" lon="-6.9551967"><ele>1135.0</ele><time>2026-04-24T17:36:54.412Z</time></trkpt><trkpt lat="30.9326983" lon="-6.9550517"><ele>1135.0</ele><time>2026-04-24T17:36:55.412Z</time></trkpt><trkpt lat="30.9326283" lon="-6.9549067"><ele>1135.0</ele><time>2026-04-24T17:36:56.412Z</time></trkpt><trkpt lat="30.9325583" lon="-6.9547717"><ele>1135.0</ele><time>2026-04-24T17:36:57.412Z</time></trkpt><trkpt lat="30.9324967" lon="-6.9546217"><ele>1134.75</ele><time>2026-04-24T17:36:58.412Z</time></trkpt><trkpt lat="30.932435" lon="-6.9544733"><ele>1134.5</ele><time>2026-04-24T17:36:59.412Z</time></trkpt><trkpt lat="30.9323733" lon="-6.9543283"><ele>1134.25</ele><time>2026-04-24T17:37:00.412Z</time></trkpt><trkpt lat="30.9323183" lon="-6.95418"><ele>1134.0</ele><time>2026-04-24T17:37:01.412Z</time></trkpt><trkpt lat="30.9322617" lon="-6.9540283"><ele>1134.0</ele><time>2026-04-24T17:37:02.412Z</time></trkpt><trkpt lat="30.93221" lon="-6.95388"><ele>1134.0</ele><time>2026-04-24T17:37:03.412Z</time></trkpt><trkpt lat="30.932155" lon="-6.9537317"><ele>1134.0</ele><time>2026-04-24T17:37:04.412Z</time></trkpt><trkpt lat="30.9321033" lon="-6.9535833"><ele>1134.0</ele><time>2026-04-24T17:37:05.412Z</time></trkpt><trkpt lat="30.9320483" lon="-6.9534333"><ele>1133.75</ele><time>2026-04-24T17:37:06.412Z</time></trkpt><trkpt lat="30.9319967" lon="-6.95328"><ele>1133.5</ele><time>2026-04-24T17:37:07.412Z</time></trkpt><trkpt lat="30.9319433" lon="-6.95313"><ele>1133.25</ele><time>2026-04-24T17:37:08.413Z</time></trkpt><trkpt lat="30.9318917" lon="-6.95297"><ele>1133.0</ele><time>2026-04-24T17:37:09.412Z</time></trkpt><trkpt lat="30.93184" lon="-6.9528183"><ele>1133.0</ele><time>2026-04-24T17:37:10.412Z</time></trkpt><trkpt lat="30.9317883" lon="-6.9526633"><ele>1133.0</ele><time>2026-04-24T17:37:11.412Z</time></trkpt><trkpt lat="30.9317333" lon="-6.952505"><ele>1133.0</ele><time>2026-04-24T17:37:12.412Z</time></trkpt><trkpt lat="30.9316783" lon="-6.952345"><ele>1133.0</ele><time>2026-04-24T17:37:13.412Z</time></trkpt><trkpt lat="30.9316267" lon="-6.95219"><ele>1132.75</ele><time>2026-04-24T17:37:14.412Z</time></trkpt><trkpt lat="30.9315683" lon="-6.9520317"><ele>1132.5</ele><time>2026-04-24T17:37:15.412Z</time></trkpt><trkpt lat="30.931505" lon="-6.951875"><ele>1132.25</ele><time>2026-04-24T17:37:16.412Z</time></trkpt><trkpt lat="30.9314417" lon="-6.95172"><ele>1132.0</ele><time>2026-04-24T17:37:17.412Z</time></trkpt><trkpt lat="30.93139" lon="-6.95157"><ele>1132.0</ele><time>2026-04-24T17:37:18.412Z</time></trkpt><trkpt lat="30.9313383" lon="-6.9514233"><ele>1132.0</ele><time>2026-04-24T17:37:19.412Z</time></trkpt><trkpt lat="30.9312867" lon="-6.9512917"><ele>1132.0</ele><time>2026-04-24T17:37:20.412Z</time></trkpt><trkpt lat="30.9312367" lon="-6.9511617"><ele>1132.0</ele><time>2026-04-24T17:37:21.412Z</time></trkpt><trkpt lat="30.9311967" lon="-6.9510333"><ele>1132.0</ele><time>2026-04-24T17:37:22.412Z</time></trkpt><trkpt lat="30.9311583" lon="-6.950915"><ele>1132.0</ele><time>2026-04-24T17:37:23.412Z</time></trkpt><trkpt lat="30.9311217" lon="-6.9508033"><ele>1132.0</ele><time>2026-04-24T17:37:24.412Z</time></trkpt><trkpt lat="30.931085" lon="-6.9506933"><ele>1132.0</ele><time>2026-04-24T17:37:25.412Z</time></trkpt><trkpt lat="30.9310383" lon="-6.9505933"><ele>1132.0</ele><time>2026-04-24T17:37:26.412Z</time></trkpt><trkpt lat="30.930995" lon="-6.950495"><ele>1132.0</ele><time>2026-04-24T17:37:27.412Z</time></trkpt><trkpt lat="30.9309383" lon="-6.9504067"><ele>1132.0</ele><time>2026-04-24T17:37:28.412Z</time></trkpt><trkpt lat="30.9308833" lon="-6.9503217"><ele>1132.0</ele><time>2026-04-24T17:37:29.412Z</time></trkpt><trkpt lat="30.9308283" lon="-6.9502383"><ele>1132.0</ele><time>2026-04-24T17:37:30.412Z</time></trkpt><trkpt lat="30.9307917" lon="-6.9501433"><ele>1132.0</ele><time>2026-04-24T17:37:31.412Z</time></trkpt><trkpt lat="30.9307833" lon="-6.9500367"><ele>1132.0</ele><time>2026-04-24T17:37:32.412Z</time></trkpt><trkpt lat="30.9307733" lon="-6.9499217"><ele>1132.0</ele><time>2026-04-24T17:37:33.412Z</time></trkpt><trkpt lat="30.930755" lon="-6.949795"><ele>1132.0</ele><time>2026-04-24T17:37:34.412Z</time></trkpt><trkpt lat="30.9307233" lon="-6.9496733"><ele>1132.0</ele><time>2026-04-24T17:37:35.412Z</time></trkpt><trkpt lat="30.9306867" lon="-6.9495417"><ele>1132.0</ele><time>2026-04-24T17:37:36.412Z</time></trkpt><trkpt lat="30.930645" lon="-6.9494067"><ele>1132.0</ele><time>2026-04-24T17:37:37.413Z</time></trkpt><trkpt lat="30.9306" lon="-6.9492683"><ele>1132.0</ele><time>2026-04-24T17:37:38.412Z</time></trkpt><trkpt lat="30.9305517" lon="-6.9491283"><ele>1132.0</ele><time>2026-04-24T17:37:39.413Z</time></trkpt><trkpt lat="30.9305017" lon="-6.9490017"><ele>1132.0</ele><time>2026-04-24T17:37:40.412Z</time></trkpt><trkpt lat="30.9304533" lon="-6.9488817"><ele>1131.75</ele><time>2026-04-24T17:37:41.412Z</time></trkpt><trkpt lat="30.9303983" lon="-6.9487583"><ele>1131.5</ele><time>2026-04-24T17:37:42.412Z</time></trkpt><trkpt lat="30.9303533" lon="-6.9486417"><ele>1131.25</ele><time>2026-04-24T17:37:43.412Z</time></trkpt><trkpt lat="30.9303117" lon="-6.9485233"><ele>1131.0</ele><time>2026-04-24T17:37:44.412Z</time></trkpt><trkpt lat="30.93027" lon="-6.948395"><ele>1131.0</ele><time>2026-04-24T17:37:45.412Z</time></trkpt><trkpt lat="30.93023" lon="-6.9482717"><ele>1131.0</ele><time>2026-04-24T17:37:46.412Z</time></trkpt><trkpt lat="30.9301867" lon="-6.94815"><ele>1131.0</ele><time>2026-04-24T17:37:47.412Z</time></trkpt><trkpt lat="30.9301417" lon="-6.9480267"><ele>1131.0</ele><time>2026-04-24T17:37:48.412Z</time></trkpt><trkpt lat="30.9300983" lon="-6.9479"><ele>1131.0</ele><time>2026-04-24T17:37:49.412Z</time></trkpt><trkpt lat="30.9300567" lon="-6.9477767"><ele>1131.0</ele><time>2026-04-24T17:37:50.412Z</time></trkpt><trkpt lat="30.9300117" lon="-6.94765"><ele>1131.0</ele><time>2026-04-24T17:37:51.412Z</time></trkpt><trkpt lat="30.929965" lon="-6.947525"><ele>1131.0</ele><time>2026-04-24T17:37:52.412Z</time></trkpt><trkpt lat="30.92992" lon="-6.9474"><ele>1131.0</ele><time>2026-04-24T17:37:53.412Z</time></trkpt><trkpt lat="30.9298767" lon="-6.947265"><ele>1131.0</ele><time>2026-04-24T17:37:54.412Z</time></trkpt><trkpt lat="30.9298283" lon="-6.9471367"><ele>1131.0</ele><time>2026-04-24T17:37:55.412Z</time></trkpt><trkpt lat="30.92978" lon="-6.9470067"><ele>1131.0</ele><time>2026-04-24T17:37:56.412Z</time></trkpt><trkpt lat="30.929735" lon="-6.94688"><ele>1131.0</ele><time>2026-04-24T17:37:57.412Z</time></trkpt><trkpt lat="30.92969" lon="-6.9467483"><ele>1131.0</ele><time>2026-04-24T17:37:58.412Z</time></trkpt><trkpt lat="30.92964" lon="-6.9466167"><ele>1131.0</ele><time>2026-04-24T17:37:59.412Z</time></trkpt><trkpt lat="30.9295933" lon="-6.9464783"><ele>1131.0</ele><time>2026-04-24T17:38:00.412Z</time></trkpt><trkpt lat="30.9295483" lon="-6.9463467"><ele>1131.0</ele><time>2026-04-24T17:38:01.412Z</time></trkpt><trkpt lat="30.929505" lon="-6.94622"><ele>1131.0</ele><time>2026-04-24T17:38:02.412Z</time></trkpt><trkpt lat="30.9294583" lon="-6.9460933"><ele>1131.0</ele><time>2026-04-24T17:38:03.412Z</time></trkpt><trkpt lat="30.9294117" lon="-6.945965"><ele>1131.0</ele><time>2026-04-24T17:38:04.412Z</time></trkpt><trkpt lat="30.929365" lon="-6.945835"><ele>1131.0</ele><time>2026-04-24T17:38:05.412Z</time></trkpt><trkpt lat="30.9293183" lon="-6.9457067"><ele>1131.0</ele><time>2026-04-24T17:38:06.412Z</time></trkpt><trkpt lat="30.9292717" lon="-6.945575"><ele>1131.0</ele><time>2026-04-24T17:38:07.412Z</time></trkpt><trkpt lat="30.929225" lon="-6.94544"><ele>1131.0</ele><time>2026-04-24T17:38:08.412Z</time></trkpt><trkpt lat="30.929175" lon="-6.9453067"><ele>1131.0</ele><time>2026-04-24T17:38:09.412Z</time></trkpt><trkpt lat="30.9291317" lon="-6.9451717"><ele>1131.0</ele><time>2026-04-24T17:38:10.412Z</time></trkpt><trkpt lat="30.929085" lon="-6.9450367"><ele>1131.0</ele><time>2026-04-24T17:38:11.412Z</time></trkpt><trkpt lat="30.9290417" lon="-6.9449017"><ele>1131.0</ele><time>2026-04-24T17:38:12.412Z</time></trkpt><trkpt lat="30.9289983" lon="-6.9447667"><ele>1130.75</ele><time>2026-04-24T17:38:13.412Z</time></trkpt><trkpt lat="30.928955" lon="-6.94463"><ele>1130.5</ele><time>2026-04-24T17:38:14.412Z</time></trkpt><trkpt lat="30.9289067" lon="-6.944495"><ele>1130.25</ele><time>2026-04-24T17:38:15.412Z</time></trkpt><trkpt lat="30.92886" lon="-6.944365"><ele>1130.0</ele><time>2026-04-24T17:38:16.412Z</time></trkpt><trkpt lat="30.9288133" lon="-6.94424"><ele>1129.75</ele><time>2026-04-24T17:38:17.413Z</time></trkpt><trkpt lat="30.9287683" lon="-6.94411"><ele>1129.5</ele><time>2026-04-24T17:38:18.412Z</time></trkpt><trkpt lat="30.9287233" lon="-6.9439733"><ele>1129.25</ele><time>2026-04-24T17:38:19.412Z</time></trkpt><trkpt lat="30.928675" lon="-6.9438333"><ele>1129.0</ele><time>2026-04-24T17:38:20.412Z</time></trkpt><trkpt lat="30.9286267" lon="-6.9436933"><ele>1129.0</ele><time>2026-04-24T17:38:21.412Z</time></trkpt><trkpt lat="30.9285767" lon="-6.9435617"><ele>1129.0</ele><time>2026-04-24T17:38:22.412Z</time></trkpt><trkpt lat="30.92853" lon="-6.9434283"><ele>1129.0</ele><time>2026-04-24T17:38:23.412Z</time></trkpt><trkpt lat="30.92848" lon="-6.943295"><ele>1129.0</ele><time>2026-04-24T17:38:24.412Z</time></trkpt><trkpt lat="30.928435" lon="-6.9431633"><ele>1129.5</ele><time>2026-04-24T17:38:25.412Z</time></trkpt><trkpt lat="30.9283883" lon="-6.9430283"><ele>1130.0</ele><time>2026-04-24T17:38:26.412Z</time></trkpt><trkpt lat="30.9283333" lon="-6.9428933"><ele>1130.5</ele><time>2026-04-24T17:38:27.412Z</time></trkpt><trkpt lat="30.9282833" lon="-6.942755"><ele>1131.0</ele><time>2026-04-24T17:38:28.412Z</time></trkpt><trkpt lat="30.9282333" lon="-6.9426183"><ele>1130.75</ele><time>2026-04-24T17:38:29.412Z</time></trkpt><trkpt lat="30.9281817" lon="-6.942485"><ele>1130.5</ele><time>2026-04-24T17:38:30.412Z</time></trkpt><trkpt lat="30.9281367" lon="-6.9423483"><ele>1130.25</ele><time>2026-04-24T17:38:31.412Z</time></trkpt><trkpt lat="30.9280917" lon="-6.942215"><ele>1130.0</ele><time>2026-04-24T17:38:32.412Z</time></trkpt><trkpt lat="30.9280417" lon="-6.9420833"><ele>1130.0</ele><time>2026-04-24T17:38:33.412Z</time></trkpt><trkpt lat="30.9279917" lon="-6.9419517"><ele>1130.0</ele><time>2026-04-24T17:38:34.412Z</time></trkpt><trkpt lat="30.92794" lon="-6.941825"><ele>1130.0</ele><time>2026-04-24T17:38:35.412Z</time></trkpt><trkpt lat="30.9278967" lon="-6.9416967"><ele>1130.0</ele><time>2026-04-24T17:38:36.412Z</time></trkpt><trkpt lat="30.92785" lon="-6.9415717"><ele>1130.0</ele><time>2026-04-24T17:38:37.412Z</time></trkpt><trkpt lat="30.927805" lon="-6.941445"><ele>1130.0</ele><time>2026-04-24T17:38:38.412Z</time></trkpt><trkpt lat="30.92776" lon="-6.9413167"><ele>1130.0</ele><time>2026-04-24T17:38:39.412Z</time></trkpt><trkpt lat="30.927715" lon="-6.9411867"><ele>1130.0</ele><time>2026-04-24T17:38:40.412Z</time></trkpt><trkpt lat="30.92767" lon="-6.9410483"><ele>1130.0</ele><time>2026-04-24T17:38:41.412Z</time></trkpt><trkpt lat="30.9276283" lon="-6.940915"><ele>1130.0</ele><time>2026-04-24T17:38:42.412Z</time></trkpt><trkpt lat="30.9275817" lon="-6.9407783"><ele>1130.0</ele><time>2026-04-24T17:38:43.412Z</time></trkpt><trkpt lat="30.927525" lon="-6.9406417"><ele>1130.0</ele><time>2026-04-24T17:38:44.412Z</time></trkpt><trkpt lat="30.927475" lon="-6.9405033"><ele>1129.75</ele><time>2026-04-24T17:38:45.413Z</time></trkpt><trkpt lat="30.9274283" lon="-6.9403633"><ele>1129.5</ele><time>2026-04-24T17:38:46.412Z</time></trkpt><trkpt lat="30.9273817" lon="-6.9402317"><ele>1129.25</ele><time>2026-04-24T17:38:47.412Z</time></trkpt><trkpt lat="30.92734" lon="-6.9401067"><ele>1129.0</ele><time>2026-04-24T17:38:48.412Z</time></trkpt><trkpt lat="30.9272933" lon="-6.9399783"><ele>1128.75</ele><time>2026-04-24T17:38:49.413Z</time></trkpt><trkpt lat="30.92725" lon="-6.9398467"><ele>1128.5</ele><time>2026-04-24T17:38:50.412Z</time></trkpt><trkpt lat="30.9271983" lon="-6.939715"><ele>1128.25</ele><time>2026-04-24T17:38:51.412Z</time></trkpt><trkpt lat="30.9271483" lon="-6.93958"><ele>1128.0</ele><time>2026-04-24T17:38:52.412Z</time></trkpt><trkpt lat="30.9271017" lon="-6.9394367"><ele>1128.0</ele><time>2026-04-24T17:38:53.412Z</time></trkpt><trkpt lat="30.927055" lon="-6.9392917"><ele>1128.0</ele><time>2026-04-24T17:38:54.412Z</time></trkpt><trkpt lat="30.927005" lon="-6.9391417"><ele>1128.0</ele><time>2026-04-24T17:38:55.412Z</time></trkpt><trkpt lat="30.9269517" lon="-6.9389917"><ele>1128.0</ele><time>2026-04-24T17:38:56.412Z</time></trkpt><trkpt lat="30.9269017" lon="-6.9388383"><ele>1128.25</ele><time>2026-04-24T17:38:57.412Z</time></trkpt><trkpt lat="30.92685" lon="-6.9386967"><ele>1128.5</ele><time>2026-04-24T17:38:58.412Z</time></trkpt><trkpt lat="30.9267917" lon="-6.9385633"><ele>1128.75</ele><time>2026-04-24T17:38:59.412Z</time></trkpt><trkpt lat="30.9267367" lon="-6.938425"><ele>1129.0</ele><time>2026-04-24T17:39:00.412Z</time></trkpt><trkpt lat="30.926685" lon="-6.93828"><ele>1129.0</ele><time>2026-04-24T17:39:01.412Z</time></trkpt><trkpt lat="30.9266367" lon="-6.9381383"><ele>1129.0</ele><time>2026-04-24T17:39:02.412Z</time></trkpt><trkpt lat="30.9265867" lon="-6.9379933"><ele>1129.0</ele><time>2026-04-24T17:39:03.412Z</time></trkpt><trkpt lat="30.926535" lon="-6.9378517"><ele>1129.0</ele><time>2026-04-24T17:39:04.412Z</time></trkpt><trkpt lat="30.926485" lon="-6.937715"><ele>1129.0</ele><time>2026-04-24T17:39:05.412Z</time></trkpt><trkpt lat="30.9264367" lon="-6.9375817"><ele>1129.0</ele><time>2026-04-24T17:39:06.412Z</time></trkpt><trkpt lat="30.926395" lon="-6.93745"><ele>1129.0</ele><time>2026-04-24T17:39:07.412Z</time></trkpt><trkpt lat="30.9263483" lon="-6.93731"><ele>1129.0</ele><time>2026-04-24T17:39:08.412Z</time></trkpt><trkpt lat="30.926295" lon="-6.9371717"><ele>1129.0</ele><time>2026-04-24T17:39:09.412Z</time></trkpt><trkpt lat="30.9262367" lon="-6.9370283"><ele>1129.0</ele><time>2026-04-24T17:39:10.412Z</time></trkpt><trkpt lat="30.9261867" lon="-6.936885"><ele>1129.0</ele><time>2026-04-24T17:39:11.412Z</time></trkpt><trkpt lat="30.926135" lon="-6.9367433"><ele>1129.0</ele><time>2026-04-24T17:39:12.412Z</time></trkpt><trkpt lat="30.9260883" lon="-6.9366"><ele>1129.0</ele><time>2026-04-24T17:39:13.412Z</time></trkpt><trkpt lat="30.92604" lon="-6.9364667"><ele>1129.0</ele><time>2026-04-24T17:39:14.412Z</time></trkpt><trkpt lat="30.9260017" lon="-6.9363333"><ele>1129.0</ele><time>2026-04-24T17:39:15.412Z</time></trkpt><trkpt lat="30.92596" lon="-6.9362067"><ele>1129.0</ele><time>2026-04-24T17:39:16.412Z</time></trkpt><trkpt lat="30.9259183" lon="-6.9360883"><ele>1129.2</ele><time>2026-04-24T17:39:17.412Z</time></trkpt><trkpt lat="30.92588" lon="-6.93598"><ele>1129.4</ele><time>2026-04-24T17:39:18.412Z</time></trkpt><trkpt lat="30.92584" lon="-6.9358767"><ele>1129.6</ele><time>2026-04-24T17:39:19.413Z</time></trkpt><trkpt lat="30.925805" lon="-6.935775"><ele>1129.8</ele><time>2026-04-24T17:39:20.412Z</time></trkpt><trkpt lat="30.9257733" lon="-6.9356817"><ele>1130.0</ele><time>2026-04-24T17:39:21.412Z</time></trkpt><trkpt lat="30.92574" lon="-6.9355867"><ele>1129.2</ele><time>2026-04-24T17:39:22.412Z</time></trkpt><trkpt lat="30.9257033" lon="-6.9354917"><ele>1128.4</ele><time>2026-04-24T17:39:23.412Z</time></trkpt><trkpt lat="30.9256683" lon="-6.9353933"><ele>1127.6</ele><time>2026-04-24T17:39:24.412Z</time></trkpt><trkpt lat="30.92563" lon="-6.9352883"><ele>1126.8</ele><time>2026-04-24T17:39:25.412Z</time></trkpt><trkpt lat="30.925585" lon="-6.9351767"><ele>1126.0</ele><time>2026-04-24T17:39:26.412Z</time></trkpt><trkpt lat="30.92554" lon="-6.935055"><ele>1126.3999999999999</ele><time>2026-04-24T17:39:27.412Z</time></trkpt><trkpt lat="30.9255" lon="-6.9349317"><ele>1126.8</ele><time>2026-04-24T17:39:28.412Z</time></trkpt><trkpt lat="30.9254583" lon="-6.9348117"><ele>1127.1999999999998</ele><time>2026-04-24T17:39:29.412Z</time></trkpt><trkpt lat="30.9254183" lon="-6.9347083"><ele>1127.6</ele><time>2026-04-24T17:39:30.413Z</time></trkpt><trkpt lat="30.92538" lon="-6.9346"><ele>1128.0</ele><time>2026-04-24T17:39:31.412Z</time></trkpt><trkpt lat="30.925345" lon="-6.9344983"><ele>1128.0</ele><time>2026-04-24T17:39:32.412Z</time></trkpt><trkpt lat="30.9253083" lon="-6.9344"><ele>1128.0</ele><time>2026-04-24T17:39:33.412Z</time></trkpt><trkpt lat="30.9252717" lon="-6.934305"><ele>1128.0</ele><time>2026-04-24T17:39:34.412Z</time></trkpt><trkpt lat="30.9252317" lon="-6.93421"><ele>1128.0</ele><time>2026-04-24T17:39:35.412Z</time></trkpt><trkpt lat="30.9251833" lon="-6.9341183"><ele>1128.0</ele><time>2026-04-24T17:39:36.412Z</time></trkpt><trkpt lat="30.9251267" lon="-6.9340367"><ele>1128.1666666666667</ele><time>2026-04-24T17:39:37.412Z</time></trkpt><trkpt lat="30.9250717" lon="-6.9339633"><ele>1128.3333333333333</ele><time>2026-04-24T17:39:38.412Z</time></trkpt><trkpt lat="30.92502" lon="-6.9338833"><ele>1128.5</ele><time>2026-04-24T17:39:39.412Z</time></trkpt><trkpt lat="30.9249683" lon="-6.9338"><ele>1128.6666666666665</ele><time>2026-04-24T17:39:40.412Z</time></trkpt><trkpt lat="30.9249117" lon="-6.9337133"><ele>1128.8333333333333</ele><time>2026-04-24T17:39:41.412Z</time></trkpt><trkpt lat="30.9248617" lon="-6.9336183"><ele>1129.0</ele><time>2026-04-24T17:39:42.412Z</time></trkpt><trkpt lat="30.92483" lon="-6.93352"><ele>1129.0</ele><time>2026-04-24T17:39:43.412Z</time></trkpt><trkpt lat="30.9248133" lon="-6.93342"><ele>1129.0</ele><time>2026-04-24T17:39:44.412Z</time></trkpt><trkpt lat="30.9248083" lon="-6.9333267"><ele>1129.0</ele><time>2026-04-24T17:39:45.412Z</time></trkpt><trkpt lat="30.9248083" lon="-6.933235"><ele>1129.0</ele><time>2026-04-24T17:39:46.412Z</time></trkpt><trkpt lat="30.92481" lon="-6.933145"><ele>1129.0</ele><time>2026-04-24T17:39:47.412Z</time></trkpt><trkpt lat="30.9248017" lon="-6.933055"><ele>1129.0</ele><time>2026-04-24T17:39:48.412Z</time></trkpt><trkpt lat="30.9247867" lon="-6.9329667"><ele>1129.0</ele><time>2026-04-24T17:39:49.412Z</time></trkpt><trkpt lat="30.9247633" lon="-6.93288"><ele>1129.0</ele><time>2026-04-24T17:39:50.412Z</time></trkpt><trkpt lat="30.9247417" lon="-6.9327933"><ele>1129.0</ele><time>2026-04-24T17:39:51.412Z</time></trkpt><trkpt lat="30.9247167" lon="-6.9327133"><ele>1129.0</ele><time>2026-04-24T17:39:52.412Z</time></trkpt><trkpt lat="30.924695" lon="-6.9326367"><ele>1129.0</ele><time>2026-04-24T17:39:53.412Z</time></trkpt><trkpt lat="30.9246733" lon="-6.932565"><ele>1129.0</ele><time>2026-04-24T17:39:54.412Z</time></trkpt><trkpt lat="30.9246433" lon="-6.932495"><ele>1129.0</ele><time>2026-04-24T17:39:55.412Z</time></trkpt><trkpt lat="30.9246117" lon="-6.9324167"><ele>1129.6666666666665</ele><time>2026-04-24T17:39:56.412Z</time></trkpt><trkpt lat="30.9245817" lon="-6.932335"><ele>1130.3333333333333</ele><time>2026-04-24T17:39:57.412Z</time></trkpt><trkpt lat="30.92455" lon="-6.93225"><ele>1131.0</ele><time>2026-04-24T17:39:58.412Z</time></trkpt><trkpt lat="30.9245133" lon="-6.932165"><ele>1131.6666666666667</ele><time>2026-04-24T17:39:59.412Z</time></trkpt><trkpt lat="30.92448" lon="-6.932075"><ele>1132.3333333333335</ele><time>2026-04-24T17:40:00.412Z</time></trkpt><trkpt lat="30.9244483" lon="-6.9319783"><ele>1133.0</ele><time>2026-04-24T17:40:01.412Z</time></trkpt><trkpt lat="30.9244117" lon="-6.9318683"><ele>1133.0</ele><time>2026-04-24T17:40:02.412Z</time></trkpt><trkpt lat="30.924375" lon="-6.931755"><ele>1133.0</ele><time>2026-04-24T17:40:03.412Z</time></trkpt><trkpt lat="30.92433" lon="-6.931645"><ele>1133.0</ele><time>2026-04-24T17:40:04.412Z</time></trkpt><trkpt lat="30.924285" lon="-6.93153"><ele>1133.0</ele><time>2026-04-24T17:40:05.412Z</time></trkpt><trkpt lat="30.9242467" lon="-6.9314183"><ele>1133.0</ele><time>2026-04-24T17:40:06.412Z</time></trkpt><trkpt lat="30.9242117" lon="-6.9313083"><ele>1133.2</ele><time>2026-04-24T17:40:07.412Z</time></trkpt><trkpt lat="30.92417" lon="-6.9312017"><ele>1133.4</ele><time>2026-04-24T17:40:08.412Z</time></trkpt><trkpt lat="30.9241317" lon="-6.9311"><ele>1133.6000000000001</ele><time>2026-04-24T17:40:09.412Z</time></trkpt><trkpt lat="30.924095" lon="-6.9309917"><ele>1133.8</ele><time>2026-04-24T17:40:10.412Z</time></trkpt><trkpt lat="30.9240583" lon="-6.930885"><ele>1134.0</ele><time>2026-04-24T17:40:11.412Z</time></trkpt><trkpt lat="30.9240217" lon="-6.930775"><ele>1134.0</ele><time>2026-04-24T17:40:12.412Z</time></trkpt><trkpt lat="30.9239867" lon="-6.9306633"><ele>1134.0</ele><time>2026-04-24T17:40:13.412Z</time></trkpt><trkpt lat="30.9239517" lon="-6.9305533"><ele>1134.0</ele><time>2026-04-24T17:40:14.412Z</time></trkpt><trkpt lat="30.9239133" lon="-6.9304483"><ele>1134.0</ele><time>2026-04-24T17:40:15.412Z</time></trkpt><trkpt lat="30.9238767" lon="-6.9303533"><ele>1134.0</ele><time>2026-04-24T17:40:16.412Z</time></trkpt><trkpt lat="30.9238417" lon="-6.9302583"><ele>1134.0</ele><time>2026-04-24T17:40:17.412Z</time></trkpt><trkpt lat="30.9238067" lon="-6.93016"><ele>1134.0</ele><time>2026-04-24T17:40:18.412Z</time></trkpt><trkpt lat="30.9237683" lon="-6.9300633"><ele>1134.0</ele><time>2026-04-24T17:40:19.412Z</time></trkpt><trkpt lat="30.9237333" lon="-6.9299633"><ele>1134.0</ele><time>2026-04-24T17:40:20.412Z</time></trkpt><trkpt lat="30.9236933" lon="-6.9298633"><ele>1134.0</ele><time>2026-04-24T17:40:21.412Z</time></trkpt><trkpt lat="30.923655" lon="-6.929755"><ele>1134.2</ele><time>2026-04-24T17:40:22.412Z</time></trkpt><trkpt lat="30.9236167" lon="-6.9296467"><ele>1134.4</ele><time>2026-04-24T17:40:23.412Z</time></trkpt><trkpt lat="30.92358" lon="-6.9295283"><ele>1134.6</ele><time>2026-04-24T17:40:24.412Z</time></trkpt><trkpt lat="30.9235417" lon="-6.9294133"><ele>1134.8</ele><time>2026-04-24T17:40:25.412Z</time></trkpt><trkpt lat="30.9235033" lon="-6.9292967"><ele>1135.0</ele><time>2026-04-24T17:40:26.412Z</time></trkpt><trkpt lat="30.9234683" lon="-6.9291783"><ele>1134.6</ele><time>2026-04-24T17:40:27.412Z</time></trkpt><trkpt lat="30.9234233" lon="-6.9290633"><ele>1134.2</ele><time>2026-04-24T17:40:28.412Z</time></trkpt><trkpt lat="30.923385" lon="-6.9289533"><ele>1133.8</ele><time>2026-04-24T17:40:29.412Z</time></trkpt><trkpt lat="30.923345" lon="-6.9288417"><ele>1133.4</ele><time>2026-04-24T17:40:30.413Z</time></trkpt><trkpt lat="30.9233083" lon="-6.9287317"><ele>1133.0</ele><time>2026-04-24T17:40:31.412Z</time></trkpt><trkpt lat="30.92327" lon="-6.9286183"><ele>1133.0</ele><time>2026-04-24T17:40:32.412Z</time></trkpt><trkpt lat="30.9232333" lon="-6.9285"><ele>1133.0</ele><time>2026-04-24T17:40:33.412Z</time></trkpt><trkpt lat="30.9231983" lon="-6.9283833"><ele>1133.0</ele><time>2026-04-24T17:40:34.412Z</time></trkpt><trkpt lat="30.92316" lon="-6.9282667"><ele>1133.0</ele><time>2026-04-24T17:40:35.412Z</time></trkpt><trkpt lat="30.9231183" lon="-6.92816"><ele>1133.0</ele><time>2026-04-24T17:40:36.412Z</time></trkpt><trkpt lat="30.92308" lon="-6.9280533"><ele>1132.6666666666667</ele><time>2026-04-24T17:40:37.412Z</time></trkpt><trkpt lat="30.923045" lon="-6.9279533"><ele>1132.3333333333335</ele><time>2026-04-24T17:40:38.412Z</time></trkpt><trkpt lat="30.92301" lon="-6.9278533"><ele>1132.0</ele><time>2026-04-24T17:40:39.412Z</time></trkpt><trkpt lat="30.9229733" lon="-6.9277633"><ele>1131.6666666666667</ele><time>2026-04-24T17:40:40.413Z</time></trkpt><trkpt lat="30.9229383" lon="-6.927675"><ele>1131.3333333333333</ele><time>2026-04-24T17:40:41.412Z</time></trkpt><trkpt lat="30.9229067" lon="-6.9276017"><ele>1131.0</ele><time>2026-04-24T17:40:42.412Z</time></trkpt><trkpt lat="30.9228683" lon="-6.9275083"><ele>1130.8</ele><time>2026-04-24T17:40:44.412Z</time></trkpt><trkpt lat="30.9228367" lon="-6.9274433"><ele>1130.6</ele><time>2026-04-24T17:40:47.412Z</time></trkpt><trkpt lat="30.92281" lon="-6.9273617"><ele>1130.4</ele><time>2026-04-24T17:40:55.412Z</time></trkpt><trkpt lat="30.9227583" lon="-6.927215"><ele>1130.2</ele><time>2026-04-24T17:40:57.412Z</time></trkpt><trkpt lat="30.922735" lon="-6.9271367"><ele>1130.0</ele><time>2026-04-24T17:40:58.412Z</time></trkpt><trkpt lat="30.9226917" lon="-6.9270217"><ele>1130.0</ele><time>2026-04-24T17:41:00.412Z</time></trkpt><trkpt lat="30.922655" lon="-6.9269267"><ele>1130.0</ele><time>2026-04-24T17:41:02.412Z</time></trkpt><trkpt lat="30.9226183" lon="-6.92683"><ele>1130.0</ele><time>2026-04-24T17:41:04.412Z</time></trkpt><trkpt lat="30.9225817" lon="-6.9267383"><ele>1130.0</ele><time>2026-04-24T17:41:06.412Z</time></trkpt><trkpt lat="30.9225483" lon="-6.9266367"><ele>1130.0</ele><time>2026-04-24T17:41:08.412Z</time></trkpt><trkpt lat="30.92252" lon="-6.9265433"><ele>1130.0</ele><time>2026-04-24T17:41:10.412Z</time></trkpt><trkpt lat="30.9224917" lon="-6.9264683"><ele>1129.5</ele><time>2026-04-24T17:41:12.412Z</time></trkpt><trkpt lat="30.9224517" lon="-6.9263967"><ele>1129.0</ele><time>2026-04-24T17:41:14.412Z</time></trkpt><trkpt lat="30.9224217" lon="-6.9263317"><ele>1128.5</ele><time>2026-04-24T17:41:16.412Z</time></trkpt><trkpt lat="30.9223733" lon="-6.9262783"><ele>1128.0</ele><time>2026-04-24T17:42:24.411Z</time></trkpt><trkpt lat="30.9223517" lon="-6.9261983"><ele>1127.5</ele><time>2026-04-24T17:42:28.411Z</time></trkpt><trkpt lat="30.9223417" lon="-6.9260717"><ele>1127.0</ele><time>2026-04-24T17:43:57.411Z</time></trkpt><trkpt lat="30.9223233" lon="-6.92598"><ele>1127.4</ele><time>2026-04-24T17:43:59.412Z</time></trkpt><trkpt lat="30.9222917" lon="-6.9258683"><ele>1127.8000000000002</ele><time>2026-04-24T17:44:01.411Z</time></trkpt><trkpt lat="30.922255" lon="-6.9257567"><ele>1128.2</ele><time>2026-04-24T17:44:03.411Z</time></trkpt><trkpt lat="30.92222" lon="-6.9256483"><ele>1128.6000000000001</ele><time>2026-04-24T17:44:05.411Z</time></trkpt><trkpt lat="30.9221767" lon="-6.9255467"><ele>1129.0</ele><time>2026-04-24T17:44:07.411Z</time></trkpt><trkpt lat="30.9221333" lon="-6.9254317"><ele>1129.0</ele><time>2026-04-24T17:44:09.411Z</time></trkpt><trkpt lat="30.9220817" lon="-6.925295"><ele>1129.0</ele><time>2026-04-24T17:44:11.411Z</time></trkpt><trkpt lat="30.9220567" lon="-6.925225"><ele>1129.0</ele><time>2026-04-24T17:44:12.411Z</time></trkpt><trkpt lat="30.9220133" lon="-6.925095"><ele>1129.0</ele><time>2026-04-24T17:44:14.411Z</time></trkpt><trkpt lat="30.9219633" lon="-6.9249483"><ele>1129.0</ele><time>2026-04-24T17:44:16.411Z</time></trkpt><trkpt lat="30.92194" lon="-6.92486"><ele>1129.1666666666665</ele><time>2026-04-24T17:44:17.411Z</time></trkpt><trkpt lat="30.9219117" lon="-6.9247733"><ele>1129.3333333333333</ele><time>2026-04-24T17:44:18.411Z</time></trkpt><trkpt lat="30.9218767" lon="-6.92468"><ele>1129.5</ele><time>2026-04-24T17:44:19.411Z</time></trkpt><trkpt lat="30.9218383" lon="-6.9245867"><ele>1129.6666666666667</ele><time>2026-04-24T17:44:20.411Z</time></trkpt><trkpt lat="30.9217983" lon="-6.9244967"><ele>1129.8333333333335</ele><time>2026-04-24T17:44:21.411Z</time></trkpt><trkpt lat="30.9217683" lon="-6.9244067"><ele>1130.0</ele><time>2026-04-24T17:44:22.411Z</time></trkpt><trkpt lat="30.9217417" lon="-6.924325"><ele>1129.8571428571427</ele><time>2026-04-24T17:44:23.411Z</time></trkpt><trkpt lat="30.921715" lon="-6.92424"><ele>1129.7142857142858</ele><time>2026-04-24T17:44:24.411Z</time></trkpt><trkpt lat="30.9216883" lon="-6.9241583"><ele>1129.5714285714284</ele><time>2026-04-24T17:44:25.411Z</time></trkpt><trkpt lat="30.9216633" lon="-6.9240767"><ele>1129.4285714285713</ele><time>2026-04-24T17:44:26.411Z</time></trkpt><trkpt lat="30.92164" lon="-6.9240067"><ele>1129.2857142857142</ele><time>2026-04-24T17:44:27.411Z</time></trkpt><trkpt lat="30.921615" lon="-6.923935"><ele>1129.142857142857</ele><time>2026-04-24T17:44:28.411Z</time></trkpt><trkpt lat="30.9215883" lon="-6.9238617"><ele>1129.0</ele><time>2026-04-24T17:44:29.411Z</time></trkpt><trkpt lat="30.9215617" lon="-6.9237833"><ele>1129.0</ele><time>2026-04-24T17:44:30.411Z</time></trkpt><trkpt lat="30.9215333" lon="-6.9236983"><ele>1129.0</ele><time>2026-04-24T17:44:31.412Z</time></trkpt><trkpt lat="30.9215033" lon="-6.9236133"><ele>1129.0</ele><time>2026-04-24T17:44:32.411Z</time></trkpt><trkpt lat="30.9214767" lon="-6.9235283"><ele>1129.0</ele><time>2026-04-24T17:44:33.411Z</time></trkpt><trkpt lat="30.9214367" lon="-6.9234433"><ele>1129.0</ele><time>2026-04-24T17:44:34.411Z</time></trkpt><trkpt lat="30.9214033" lon="-6.9233467"><ele>1129.0</ele><time>2026-04-24T17:44:35.411Z</time></trkpt><trkpt lat="30.9213683" lon="-6.9232433"><ele>1129.5</ele><time>2026-04-24T17:44:36.411Z</time></trkpt><trkpt lat="30.9213383" lon="-6.9231517"><ele>1130.0</ele><time>2026-04-24T17:44:37.412Z</time></trkpt><trkpt lat="30.921305" lon="-6.923065"><ele>1130.5</ele><time>2026-04-24T17:44:38.411Z</time></trkpt><trkpt lat="30.9212717" lon="-6.9229717"><ele>1131.0</ele><time>2026-04-24T17:44:39.411Z</time></trkpt><trkpt lat="30.9212383" lon="-6.9228783"><ele>1131.5</ele><time>2026-04-24T17:44:40.411Z</time></trkpt><trkpt lat="30.921205" lon="-6.9227817"><ele>1132.0</ele><time>2026-04-24T17:44:41.411Z</time></trkpt><trkpt lat="30.9211683" lon="-6.922685"><ele>1132.0</ele><time>2026-04-24T17:44:42.412Z</time></trkpt><trkpt lat="30.9211317" lon="-6.92259"><ele>1132.0</ele><time>2026-04-24T17:44:43.411Z</time></trkpt><trkpt lat="30.9210983" lon="-6.9224967"><ele>1132.0</ele><time>2026-04-24T17:44:44.411Z</time></trkpt><trkpt lat="30.9210633" lon="-6.9223983"><ele>1132.0</ele><time>2026-04-24T17:44:45.411Z</time></trkpt><trkpt lat="30.9210267" lon="-6.922295"><ele>1132.0</ele><time>2026-04-24T17:44:46.412Z</time></trkpt><trkpt lat="30.920995" lon="-6.92219"><ele>1131.4</ele><time>2026-04-24T17:44:47.411Z</time></trkpt><trkpt lat="30.9209633" lon="-6.92209"><ele>1130.8000000000002</ele><time>2026-04-24T17:44:48.411Z</time></trkpt><trkpt lat="30.9209267" lon="-6.9219833"><ele>1130.2</ele><time>2026-04-24T17:44:49.411Z</time></trkpt><trkpt lat="30.92089" lon="-6.9218817"><ele>1129.6000000000001</ele><time>2026-04-24T17:44:50.411Z</time></trkpt><trkpt lat="30.9208517" lon="-6.9217733"><ele>1129.0</ele><time>2026-04-24T17:44:51.411Z</time></trkpt><trkpt lat="30.9208133" lon="-6.9216683"><ele>1128.6000000000001</ele><time>2026-04-24T17:44:52.411Z</time></trkpt><trkpt lat="30.9207783" lon="-6.9215717"><ele>1128.2</ele><time>2026-04-24T17:44:53.411Z</time></trkpt><trkpt lat="30.9207483" lon="-6.9214717"><ele>1127.8000000000002</ele><time>2026-04-24T17:44:54.411Z</time></trkpt><trkpt lat="30.9207083" lon="-6.92138"><ele>1127.4</ele><time>2026-04-24T17:44:55.411Z</time></trkpt><trkpt lat="30.92067" lon="-6.9212783"><ele>1127.0</ele><time>2026-04-24T17:44:56.411Z</time></trkpt><trkpt lat="30.92063" lon="-6.92117"><ele>1127.0</ele><time>2026-04-24T17:44:57.411Z</time></trkpt><trkpt lat="30.9205933" lon="-6.9210517"><ele>1127.0</ele><time>2026-04-24T17:44:58.412Z</time></trkpt><trkpt lat="30.9205533" lon="-6.9209367"><ele>1127.0</ele><time>2026-04-24T17:44:59.411Z</time></trkpt><trkpt lat="30.9205133" lon="-6.9208217"><ele>1127.0</ele><time>2026-04-24T17:45:00.411Z</time></trkpt><trkpt lat="30.9204683" lon="-6.9207067"><ele>1127.0</ele><time>2026-04-24T17:45:01.411Z</time></trkpt><trkpt lat="30.9204217" lon="-6.9205883"><ele>1127.6</ele><time>2026-04-24T17:45:02.411Z</time></trkpt><trkpt lat="30.920375" lon="-6.920475"><ele>1128.2</ele><time>2026-04-24T17:45:03.411Z</time></trkpt><trkpt lat="30.9203317" lon="-6.92036"><ele>1128.8</ele><time>2026-04-24T17:45:04.411Z</time></trkpt><trkpt lat="30.9202933" lon="-6.92025"><ele>1129.4</ele><time>2026-04-24T17:45:05.411Z</time></trkpt><trkpt lat="30.9202517" lon="-6.920145"><ele>1130.0</ele><time>2026-04-24T17:45:06.411Z</time></trkpt><trkpt lat="30.92022" lon="-6.9200433"><ele>1130.8</ele><time>2026-04-24T17:45:07.411Z</time></trkpt><trkpt lat="30.920195" lon="-6.9199367"><ele>1131.6</ele><time>2026-04-24T17:45:08.411Z</time></trkpt><trkpt lat="30.9201733" lon="-6.9198283"><ele>1132.4</ele><time>2026-04-24T17:45:09.411Z</time></trkpt><trkpt lat="30.9201517" lon="-6.919715"><ele>1133.2</ele><time>2026-04-24T17:45:10.411Z</time></trkpt><trkpt lat="30.9201333" lon="-6.9196"><ele>1134.0</ele><time>2026-04-24T17:45:11.412Z</time></trkpt><trkpt lat="30.92012" lon="-6.9194733"><ele>1134.0</ele><time>2026-04-24T17:45:12.411Z</time></trkpt><trkpt lat="30.920105" lon="-6.9193467"><ele>1134.0</ele><time>2026-04-24T17:45:13.411Z</time></trkpt><trkpt lat="30.9201017" lon="-6.919215"><ele>1134.0</ele><time>2026-04-24T17:45:14.411Z</time></trkpt><trkpt lat="30.9201083" lon="-6.91908"><ele>1134.0</ele><time>2026-04-24T17:45:15.411Z</time></trkpt><trkpt lat="30.9201083" lon="-6.9189483"><ele>1133.5</ele><time>2026-04-24T17:45:16.412Z</time></trkpt><trkpt lat="30.920115" lon="-6.9188167"><ele>1133.0</ele><time>2026-04-24T17:45:17.412Z</time></trkpt><trkpt lat="30.9201233" lon="-6.91869"><ele>1132.5</ele><time>2026-04-24T17:45:18.411Z</time></trkpt><trkpt lat="30.9201283" lon="-6.9185533"><ele>1132.0</ele><time>2026-04-24T17:45:19.411Z</time></trkpt><trkpt lat="30.9201383" lon="-6.9184217"><ele>1131.8</ele><time>2026-04-24T17:45:20.411Z</time></trkpt><trkpt lat="30.9201467" lon="-6.918295"><ele>1131.6</ele><time>2026-04-24T17:45:21.411Z</time></trkpt><trkpt lat="30.920155" lon="-6.9181667"><ele>1131.3999999999999</ele><time>2026-04-24T17:45:22.411Z</time></trkpt><trkpt lat="30.9201633" lon="-6.9180383"><ele>1131.2</ele><time>2026-04-24T17:45:23.411Z</time></trkpt><trkpt lat="30.9201717" lon="-6.9179167"><ele>1131.0</ele><time>2026-04-24T17:45:24.411Z</time></trkpt><trkpt lat="30.92018" lon="-6.9177917"><ele>1131.0</ele><time>2026-04-24T17:45:25.411Z</time></trkpt><trkpt lat="30.9201883" lon="-6.9176583"><ele>1131.0</ele><time>2026-04-24T17:45:26.411Z</time></trkpt><trkpt lat="30.9201967" lon="-6.9175367"><ele>1131.0</ele><time>2026-04-24T17:45:27.411Z</time></trkpt><trkpt lat="30.9202033" lon="-6.9174167"><ele>1131.0</ele><time>2026-04-24T17:45:28.411Z</time></trkpt><trkpt lat="30.920205" lon="-6.9173133"><ele>1131.0</ele><time>2026-04-24T17:45:29.411Z</time></trkpt><trkpt lat="30.9202117" lon="-6.9172167"><ele>1131.1666666666667</ele><time>2026-04-24T17:45:30.411Z</time></trkpt><trkpt lat="30.92022" lon="-6.9171267"><ele>1131.3333333333333</ele><time>2026-04-24T17:45:31.411Z</time></trkpt><trkpt lat="30.9202233" lon="-6.9170433"><ele>1131.5</ele><time>2026-04-24T17:45:32.412Z</time></trkpt><trkpt lat="30.9202267" lon="-6.9169683"><ele>1131.6666666666665</ele><time>2026-04-24T17:45:33.411Z</time></trkpt><trkpt lat="30.92023" lon="-6.91689"><ele>1131.8333333333333</ele><time>2026-04-24T17:45:34.411Z</time></trkpt><trkpt lat="30.9202333" lon="-6.916745"><ele>1132.0</ele><time>2026-04-24T17:45:36.411Z</time></trkpt><trkpt lat="30.92025" lon="-6.9166033"><ele>1132.6</ele><time>2026-04-24T17:45:38.411Z</time></trkpt><trkpt lat="30.9202583" lon="-6.9164917"><ele>1133.2</ele><time>2026-04-24T17:45:40.411Z</time></trkpt><trkpt lat="30.9202533" lon="-6.9163967"><ele>1133.8</ele><time>2026-04-24T17:45:42.411Z</time></trkpt><trkpt lat="30.920255" lon="-6.9163017"><ele>1134.4</ele><time>2026-04-24T17:45:45.411Z</time></trkpt><trkpt lat="30.9202683" lon="-6.9161933"><ele>1135.0</ele><time>2026-04-24T17:45:48.411Z</time></trkpt><trkpt lat="30.92028" lon="-6.9160717"><ele>1135.0</ele><time>2026-04-24T17:45:50.411Z</time></trkpt><trkpt lat="30.920285" lon="-6.9159917"><ele>1135.0</ele><time>2026-04-24T17:45:51.412Z</time></trkpt><trkpt lat="30.92029" lon="-6.9159017"><ele>1135.0</ele><time>2026-04-24T17:45:52.411Z</time></trkpt><trkpt lat="30.9202933" lon="-6.9158"><ele>1135.0</ele><time>2026-04-24T17:45:53.412Z</time></trkpt><trkpt lat="30.9202983" lon="-6.9156917"><ele>1135.0</ele><time>2026-04-24T17:45:54.411Z</time></trkpt><trkpt lat="30.9202983" lon="-6.9155783"><ele>1135.0</ele><time>2026-04-24T17:45:55.411Z</time></trkpt><trkpt lat="30.9203083" lon="-6.9154667"><ele>1135.8333333333333</ele><time>2026-04-24T17:45:56.411Z</time></trkpt><trkpt lat="30.92032" lon="-6.9153733"><ele>1136.6666666666665</ele><time>2026-04-24T17:45:57.411Z</time></trkpt><trkpt lat="30.92033" lon="-6.9152817"><ele>1137.5</ele><time>2026-04-24T17:45:58.411Z</time></trkpt><trkpt lat="30.9203417" lon="-6.9151867"><ele>1138.3333333333333</ele><time>2026-04-24T17:45:59.412Z</time></trkpt><trkpt lat="30.9203533" lon="-6.9150983"><ele>1139.1666666666667</ele><time>2026-04-24T17:46:00.411Z</time></trkpt><trkpt lat="30.9203467" lon="-6.915025"><ele>1140.0</ele><time>2026-04-24T17:46:01.411Z</time></trkpt><trkpt lat="30.920335" lon="-6.91494"><ele>1140.4</ele><time>2026-04-24T17:46:03.411Z</time></trkpt><trkpt lat="30.9203533" lon="-6.91484"><ele>1140.8</ele><time>2026-04-24T17:46:10.411Z</time></trkpt><trkpt lat="30.9203567" lon="-6.9146917"><ele>1141.2</ele><time>2026-04-24T17:46:12.411Z</time></trkpt><trkpt lat="30.920355" lon="-6.9146133"><ele>1141.6</ele><time>2026-04-24T17:46:13.411Z</time></trkpt><trkpt lat="30.9203567" lon="-6.9144667"><ele>1142.0</ele><time>2026-04-24T17:46:15.411Z</time></trkpt><trkpt lat="30.9203667" lon="-6.91432"><ele>1142.0</ele><time>2026-04-24T17:46:17.411Z</time></trkpt><trkpt lat="30.9203817" lon="-6.914245"><ele>1142.0</ele><time>2026-04-24T17:46:18.411Z</time></trkpt><trkpt lat="30.920395" lon="-6.914165"><ele>1142.0</ele><time>2026-04-24T17:46:19.411Z</time></trkpt><trkpt lat="30.920405" lon="-6.91409"><ele>1142.0</ele><time>2026-04-24T17:46:20.411Z</time></trkpt><trkpt lat="30.92041" lon="-6.9140167"><ele>1142.0</ele><time>2026-04-24T17:46:21.411Z</time></trkpt><trkpt lat="30.9204267" lon="-6.9138767"><ele>1142.0</ele><time>2026-04-24T17:46:23.411Z</time></trkpt><trkpt lat="30.9204367" lon="-6.9138"><ele>1141.5</ele><time>2026-04-24T17:46:24.411Z</time></trkpt><trkpt lat="30.920445" lon="-6.9137133"><ele>1141.0</ele><time>2026-04-24T17:46:25.411Z</time></trkpt><trkpt lat="30.9204533" lon="-6.9136317"><ele>1140.5</ele><time>2026-04-24T17:46:26.411Z</time></trkpt><trkpt lat="30.92046" lon="-6.91355"><ele>1140.0</ele><time>2026-04-24T17:46:27.411Z</time></trkpt><trkpt lat="30.9204667" lon="-6.913465"><ele>1139.5</ele><time>2026-04-24T17:46:28.411Z</time></trkpt><trkpt lat="30.9204767" lon="-6.91337"><ele>1139.0</ele><time>2026-04-24T17:46:29.411Z</time></trkpt><trkpt lat="30.9204867" lon="-6.913275"><ele>1138.5</ele><time>2026-04-24T17:46:30.411Z</time></trkpt><trkpt lat="30.9204983" lon="-6.9131717"><ele>1138.0</ele><time>2026-04-24T17:46:31.411Z</time></trkpt><trkpt lat="30.9205067" lon="-6.9130733"><ele>1137.5</ele><time>2026-04-24T17:46:32.412Z</time></trkpt><trkpt lat="30.9205117" lon="-6.9129783"><ele>1137.0</ele><time>2026-04-24T17:46:33.411Z</time></trkpt><trkpt lat="30.92052" lon="-6.9128783"><ele>1136.5</ele><time>2026-04-24T17:46:34.411Z</time></trkpt><trkpt lat="30.92053" lon="-6.912775"><ele>1136.0</ele><time>2026-04-24T17:46:35.411Z</time></trkpt><trkpt lat="30.9205417" lon="-6.91267"><ele>1135.3999999999999</ele><time>2026-04-24T17:46:36.411Z</time></trkpt><trkpt lat="30.920545" lon="-6.912555"><ele>1134.8</ele><time>2026-04-24T17:46:37.411Z</time></trkpt><trkpt lat="30.9205433" lon="-6.9124383"><ele>1134.1999999999998</ele><time>2026-04-24T17:46:38.411Z</time></trkpt><trkpt lat="30.9205383" lon="-6.9123217"><ele>1133.6</ele><time>2026-04-24T17:46:39.411Z</time></trkpt><trkpt lat="30.9205317" lon="-6.9122117"><ele>1133.0</ele><time>2026-04-24T17:46:40.411Z</time></trkpt><trkpt lat="30.9205167" lon="-6.9121017"><ele>1133.0</ele><time>2026-04-24T17:46:41.411Z</time></trkpt><trkpt lat="30.9204967" lon="-6.9119933"><ele>1133.0</ele><time>2026-04-24T17:46:42.411Z</time></trkpt><trkpt lat="30.9204733" lon="-6.9118983"><ele>1133.0</ele><time>2026-04-24T17:46:43.411Z</time></trkpt><trkpt lat="30.9204483" lon="-6.91181"><ele>1133.0</ele><time>2026-04-24T17:46:44.411Z</time></trkpt><trkpt lat="30.9204233" lon="-6.9117283"><ele>1133.0</ele><time>2026-04-24T17:46:45.411Z</time></trkpt><trkpt lat="30.9203983" lon="-6.9116467"><ele>1133.0</ele><time>2026-04-24T17:46:46.411Z</time></trkpt><trkpt lat="30.9203683" lon="-6.9115617"><ele>1132.0</ele><time>2026-04-24T17:46:47.411Z</time></trkpt><trkpt lat="30.92034" lon="-6.911475"><ele>1131.0</ele><time>2026-04-24T17:46:48.411Z</time></trkpt><trkpt lat="30.9203133" lon="-6.9113917"><ele>1130.0</ele><time>2026-04-24T17:46:49.411Z</time></trkpt><trkpt lat="30.9202883" lon="-6.9113117"><ele>1129.0</ele><time>2026-04-24T17:46:50.411Z</time></trkpt><trkpt lat="30.9202767" lon="-6.91119"><ele>1128.0</ele><time>2026-04-24T17:46:52.411Z</time></trkpt><trkpt lat="30.9203133" lon="-6.911105"><ele>1127.0</ele><time>2026-04-24T17:46:54.411Z</time></trkpt><trkpt lat="30.9203983" lon="-6.9110667"><ele>1127.0</ele><time>2026-04-24T17:46:56.411Z</time></trkpt><trkpt lat="30.9205017" lon="-6.91102"><ele>1127.0</ele><time>2026-04-24T17:46:58.411Z</time></trkpt><trkpt lat="30.9206" lon="-6.9109733"><ele>1127.0</ele><time>2026-04-24T17:47:00.411Z</time></trkpt><trkpt lat="30.920715" lon="-6.9109183"><ele>1127.0</ele><time>2026-04-24T17:47:02.411Z</time></trkpt><trkpt lat="30.920775" lon="-6.910895"><ele>1127.0</ele><time>2026-04-24T17:47:03.411Z</time></trkpt><trkpt lat="30.9208367" lon="-6.91087"><ele>1127.8333333333335</ele><time>2026-04-24T17:47:04.412Z</time></trkpt><trkpt lat="30.9209" lon="-6.9108383"><ele>1128.6666666666667</ele><time>2026-04-24T17:47:05.411Z</time></trkpt><trkpt lat="30.920965" lon="-6.9108017"><ele>1129.5</ele><time>2026-04-24T17:47:06.411Z</time></trkpt><trkpt lat="30.9210283" lon="-6.91077"><ele>1130.3333333333333</ele><time>2026-04-24T17:47:07.411Z</time></trkpt><trkpt lat="30.92112" lon="-6.91068"><ele>1131.1666666666665</ele><time>2026-04-24T17:47:09.411Z</time></trkpt><trkpt lat="30.9212017" lon="-6.910605"><ele>1132.0</ele><time>2026-04-24T17:47:11.411Z</time></trkpt><trkpt lat="30.9212733" lon="-6.9105883"><ele>1132.0</ele><time>2026-04-24T17:47:13.411Z</time></trkpt><trkpt lat="30.921375" lon="-6.9106467"><ele>1132.0</ele><time>2026-04-24T17:47:15.411Z</time></trkpt><trkpt lat="30.9214233" lon="-6.9106983"><ele>1132.0</ele><time>2026-04-24T17:47:16.411Z</time></trkpt><trkpt lat="30.92147" lon="-6.9107583"><ele>1132.0</ele><time>2026-04-24T17:47:17.411Z</time></trkpt><trkpt lat="30.9215533" lon="-6.9108583"><ele>1132.0</ele><time>2026-04-24T17:47:19.411Z</time></trkpt><trkpt lat="30.9216483" lon="-6.9109517"><ele>1132.1666666666665</ele><time>2026-04-24T17:47:21.411Z</time></trkpt><trkpt lat="30.9217067" lon="-6.9110017"><ele>1132.3333333333333</ele><time>2026-04-24T17:47:22.411Z</time></trkpt><trkpt lat="30.9217683" lon="-6.9110433"><ele>1132.5</ele><time>2026-04-24T17:47:23.411Z</time></trkpt><trkpt lat="30.921835" lon="-6.9110983"><ele>1132.6666666666667</ele><time>2026-04-24T17:47:24.411Z</time></trkpt><trkpt lat="30.9219" lon="-6.91115"><ele>1132.8333333333335</ele><time>2026-04-24T17:47:25.411Z</time></trkpt><trkpt lat="30.9219717" lon="-6.9112033"><ele>1133.0</ele><time>2026-04-24T17:47:26.411Z</time></trkpt><trkpt lat="30.9220333" lon="-6.9112517"><ele>1133.1666666666667</ele><time>2026-04-24T17:47:27.411Z</time></trkpt><trkpt lat="30.9220883" lon="-6.9112983"><ele>1133.3333333333335</ele><time>2026-04-24T17:47:28.411Z</time></trkpt><trkpt lat="30.9221433" lon="-6.9113483"><ele>1133.5</ele><time>2026-04-24T17:47:30.411Z</time></trkpt><trkpt lat="30.92223" lon="-6.9114083"><ele>1133.6666666666667</ele><time>2026-04-24T17:47:34.411Z</time></trkpt><trkpt lat="30.92231" lon="-6.91145"><ele>1133.8333333333333</ele><time>2026-04-24T17:47:36.411Z</time></trkpt><trkpt lat="30.9224117" lon="-6.91151"><ele>1134.0</ele><time>2026-04-24T17:47:38.411Z</time></trkpt><trkpt lat="30.92251" lon="-6.9115683"><ele>1134.6000000000001</ele><time>2026-04-24T17:47:40.411Z</time></trkpt><trkpt lat="30.922615" lon="-6.9116367"><ele>1135.2</ele><time>2026-04-24T17:47:42.412Z</time></trkpt><trkpt lat="30.9226717" lon="-6.9116733"><ele>1135.8000000000002</ele><time>2026-04-24T17:47:43.411Z</time></trkpt><trkpt lat="30.9227767" lon="-6.911755"><ele>1136.4</ele><time>2026-04-24T17:47:45.411Z</time></trkpt><trkpt lat="30.92287" lon="-6.9118133"><ele>1137.0</ele><time>2026-04-24T17:47:47.411Z</time></trkpt><trkpt lat="30.92295" lon="-6.91187"><ele>1137.0</ele><time>2026-04-24T17:47:49.411Z</time></trkpt><trkpt lat="30.923045" lon="-6.911935"><ele>1137.0</ele><time>2026-04-24T17:47:51.411Z</time></trkpt><trkpt lat="30.9231483" lon="-6.9120117"><ele>1137.0</ele><time>2026-04-24T17:47:53.411Z</time></trkpt><trkpt lat="30.92326" lon="-6.91207"><ele>1137.0</ele><time>2026-04-24T17:47:55.411Z</time></trkpt><trkpt lat="30.92336" lon="-6.9121167"><ele>1137.0</ele><time>2026-04-24T17:47:57.411Z</time></trkpt><trkpt lat="30.9234633" lon="-6.91216"><ele>1137.0</ele><time>2026-04-24T17:47:59.412Z</time></trkpt><trkpt lat="30.9235217" lon="-6.91221"><ele>1137.0</ele><time>2026-04-24T17:48:01.411Z</time></trkpt><trkpt lat="30.923595" lon="-6.91223"><ele>1137.0</ele><time>2026-04-24T17:48:04.411Z</time></trkpt><trkpt lat="30.9236767" lon="-6.912245"><ele>1137.0</ele><time>2026-04-24T17:48:07.411Z</time></trkpt><trkpt lat="30.9237583" lon="-6.9122667"><ele>1137.0</ele><time>2026-04-24T17:48:10.411Z</time></trkpt><trkpt lat="30.9238367" lon="-6.912285"><ele>1137.0</ele><time>2026-04-24T17:48:13.41Z</time></trkpt><trkpt lat="30.923905" lon="-6.912305"><ele>1137.0</ele><time>2026-04-24T17:48:15.41Z</time></trkpt><trkpt lat="30.92398" lon="-6.9123333"><ele>1137.0</ele><time>2026-04-24T17:48:17.41Z</time></trkpt><trkpt lat="30.9240583" lon="-6.9123567"><ele>1137.0</ele><time>2026-04-24T17:48:19.41Z</time></trkpt><trkpt lat="30.9241417" lon="-6.9123783"><ele>1137.0</ele><time>2026-04-24T17:48:21.41Z</time></trkpt><trkpt lat="30.924225" lon="-6.912395"><ele>1137.0</ele><time>2026-04-24T17:48:23.41Z</time></trkpt><trkpt lat="30.924295" lon="-6.912415"><ele>1137.1666666666667</ele><time>2026-04-24T17:48:25.41Z</time></trkpt><trkpt lat="30.9243767" lon="-6.9124517"><ele>1137.3333333333333</ele><time>2026-04-24T17:48:27.41Z</time></trkpt><trkpt lat="30.9244633" lon="-6.912485"><ele>1137.5</ele><time>2026-04-24T17:48:29.41Z</time></trkpt><trkpt lat="30.9245417" lon="-6.9125033"><ele>1137.6666666666665</ele><time>2026-04-24T17:48:31.41Z</time></trkpt><trkpt lat="30.9246383" lon="-6.9125233"><ele>1137.8333333333333</ele><time>2026-04-24T17:48:34.41Z</time></trkpt><trkpt lat="30.924705" lon="-6.9125317"><ele>1138.0</ele><time>2026-04-24T17:48:36.41Z</time></trkpt><trkpt lat="30.9247717" lon="-6.91257"><ele>1138.6</ele><time>2026-04-24T17:48:59.41Z</time></trkpt><trkpt lat="30.92486" lon="-6.9125867"><ele>1139.1999999999998</ele><time>2026-04-24T17:49:01.41Z</time></trkpt><trkpt lat="30.9249683" lon="-6.9126017"><ele>1139.8</ele><time>2026-04-24T17:49:03.41Z</time></trkpt><trkpt lat="30.9250667" lon="-6.912575"><ele>1140.3999999999999</ele><time>2026-04-24T17:49:05.41Z</time></trkpt><trkpt lat="30.925155" lon="-6.9124783"><ele>1141.0</ele><time>2026-04-24T17:49:07.41Z</time></trkpt><trkpt lat="30.9251967" lon="-6.9124117"><ele>1141.142857142857</ele><time>2026-04-24T17:49:08.41Z</time></trkpt><trkpt lat="30.925225" lon="-6.912335"><ele>1141.2857142857142</ele><time>2026-04-24T17:49:09.41Z</time></trkpt><trkpt lat="30.9252483" lon="-6.912255"><ele>1141.4285714285716</ele><time>2026-04-24T17:49:10.411Z</time></trkpt><trkpt lat="30.9252717" lon="-6.9121867"><ele>1141.5714285714284</ele><time>2026-04-24T17:49:11.41Z</time></trkpt><trkpt lat="30.9253017" lon="-6.912115"><ele>1141.7142857142858</ele><time>2026-04-24T17:49:12.41Z</time></trkpt><trkpt lat="30.9253317" lon="-6.9120383"><ele>1141.857142857143</ele><time>2026-04-24T17:49:13.41Z</time></trkpt><trkpt lat="30.9253667" lon="-6.911955"><ele>1142.0</ele><time>2026-04-24T17:49:14.411Z</time></trkpt><trkpt lat="30.9254033" lon="-6.9118733"><ele>1142.0</ele><time>2026-04-24T17:49:15.41Z</time></trkpt><trkpt lat="30.92543" lon="-6.9117917"><ele>1142.0</ele><time>2026-04-24T17:49:16.41Z</time></trkpt><trkpt lat="30.92546" lon="-6.9117167"><ele>1142.0</ele><time>2026-04-24T17:49:17.41Z</time></trkpt><trkpt lat="30.9254917" lon="-6.9116467"><ele>1142.0</ele><time>2026-04-24T17:49:18.41Z</time></trkpt><trkpt lat="30.9255233" lon="-6.9115733"><ele>1142.0</ele><time>2026-04-24T17:49:19.41Z</time></trkpt><trkpt lat="30.92555" lon="-6.9115067"><ele>1142.0</ele><time>2026-04-24T17:49:20.41Z</time></trkpt><trkpt lat="30.925575" lon="-6.9114383"><ele>1142.0</ele><time>2026-04-24T17:49:21.41Z</time></trkpt><trkpt lat="30.9256033" lon="-6.9113667"><ele>1141.5</ele><time>2026-04-24T17:49:22.41Z</time></trkpt><trkpt lat="30.9256233" lon="-6.9112767"><ele>1141.0</ele><time>2026-04-24T17:49:23.41Z</time></trkpt><trkpt lat="30.9256417" lon="-6.9111833"><ele>1140.5</ele><time>2026-04-24T17:49:24.41Z</time></trkpt><trkpt lat="30.9256517" lon="-6.9110883"><ele>1140.0</ele><time>2026-04-24T17:49:25.41Z</time></trkpt><trkpt lat="30.9256533" lon="-6.9109917"><ele>1139.5</ele><time>2026-04-24T17:49:26.41Z</time></trkpt><trkpt lat="30.9256517" lon="-6.9109167"><ele>1139.0</ele><time>2026-04-24T17:49:27.41Z</time></trkpt><trkpt lat="30.9256483" lon="-6.9108133"><ele>1139.0</ele><time>2026-04-24T17:49:29.411Z</time></trkpt><trkpt lat="30.925655" lon="-6.9107067"><ele>1139.0</ele><time>2026-04-24T17:52:38.41Z</time></trkpt><trkpt lat="30.9257" lon="-6.91061"><ele>1139.0</ele><time>2026-04-24T17:52:40.41Z</time></trkpt><trkpt lat="30.925745" lon="-6.9106783"><ele>1139.0</ele><time>2026-04-24T17:52:44.41Z</time></trkpt><trkpt lat="30.9257233" lon="-6.910805"><ele>1139.0</ele><time>2026-04-24T17:52:46.41Z</time></trkpt><trkpt lat="30.9257017" lon="-6.9109383"><ele>1139.0</ele><time>2026-04-24T17:52:48.41Z</time></trkpt><trkpt lat="30.9256817" lon="-6.9110533"><ele>1139.0</ele><time>2026-04-24T17:52:50.41Z</time></trkpt><trkpt lat="30.9256683" lon="-6.9111667"><ele>1139.0</ele><time>2026-04-24T17:52:52.41Z</time></trkpt><trkpt lat="30.92566" lon="-6.9112583"><ele>1139.0</ele><time>2026-04-24T17:52:54.41Z</time></trkpt><trkpt lat="30.9256567" lon="-6.9113467"><ele>1139.0</ele><time>2026-04-24T17:52:56.41Z</time></trkpt><trkpt lat="30.9256533" lon="-6.9114367"><ele>1139.0</ele><time>2026-04-24T17:52:59.41Z</time></trkpt><trkpt lat="30.9256167" lon="-6.9115333"><ele>1139.0</ele><time>2026-04-24T17:53:05.41Z</time></trkpt><trkpt lat="30.9255717" lon="-6.9116383"><ele>1139.0</ele><time>2026-04-24T17:53:06.41Z</time></trkpt><trkpt lat="30.9255267" lon="-6.9117583"><ele>1139.0</ele><time>2026-04-24T17:53:07.41Z</time></trkpt><trkpt lat="30.9254867" lon="-6.9118817"><ele>1139.0</ele><time>2026-04-24T17:53:08.41Z</time></trkpt><trkpt lat="30.9254417" lon="-6.912005"><ele>1139.0</ele><time>2026-04-24T17:53:09.41Z</time></trkpt><trkpt lat="30.925395" lon="-6.9121167"><ele>1139.5</ele><time>2026-04-24T17:53:10.41Z</time></trkpt><trkpt lat="30.9253483" lon="-6.912225"><ele>1140.0</ele><time>2026-04-24T17:53:11.41Z</time></trkpt><trkpt lat="30.92531" lon="-6.9123217"><ele>1140.5</ele><time>2026-04-24T17:53:12.41Z</time></trkpt><trkpt lat="30.925275" lon="-6.9124083"><ele>1141.0</ele><time>2026-04-24T17:53:13.41Z</time></trkpt><trkpt lat="30.9252383" lon="-6.91249"><ele>1141.5</ele><time>2026-04-24T17:53:14.41Z</time></trkpt><trkpt lat="30.9252117" lon="-6.9125717"><ele>1142.0</ele><time>2026-04-24T17:53:15.41Z</time></trkpt><trkpt lat="30.925185" lon="-6.912655"><ele>1142.0</ele><time>2026-04-24T17:53:16.41Z</time></trkpt><trkpt lat="30.9251583" lon="-6.9127383"><ele>1142.0</ele><time>2026-04-24T17:53:17.41Z</time></trkpt><trkpt lat="30.9251333" lon="-6.912815"><ele>1142.0</ele><time>2026-04-24T17:53:18.41Z</time></trkpt><trkpt lat="30.9251133" lon="-6.91289"><ele>1142.0</ele><time>2026-04-24T17:53:19.41Z</time></trkpt><trkpt lat="30.9250933" lon="-6.9129633"><ele>1142.0</ele><time>2026-04-24T17:53:20.41Z</time></trkpt><trkpt lat="30.9250567" lon="-6.913085"><ele>1142.0</ele><time>2026-04-24T17:53:22.41Z</time></trkpt><trkpt lat="30.9250383" lon="-6.9131683"><ele>1142.0</ele><time>2026-04-24T17:53:24.41Z</time></trkpt><trkpt lat="30.9250183" lon="-6.9132683"><ele>1142.0</ele><time>2026-04-24T17:53:27.41Z</time></trkpt><trkpt lat="30.9250033" lon="-6.9133667"><ele>1142.0</ele><time>2026-04-24T17:53:29.41Z</time></trkpt><trkpt lat="30.9249933" lon="-6.913495"><ele>1142.0</ele><time>2026-04-24T17:53:31.41Z</time></trkpt><trkpt lat="30.924975" lon="-6.9136217"><ele>1142.0</ele><time>2026-04-24T17:53:33.41Z</time></trkpt><trkpt lat="30.9249433" lon="-6.9137317"><ele>1142.0</ele><time>2026-04-24T17:53:36.41Z</time></trkpt><trkpt lat="30.92491" lon="-6.913885"><ele>1142.0</ele><time>2026-04-24T17:53:38.41Z</time></trkpt><trkpt lat="30.924895" lon="-6.9139633"><ele>1142.0</ele><time>2026-04-24T17:53:39.41Z</time></trkpt><trkpt lat="30.9248867" lon="-6.9140383"><ele>1142.0</ele><time>2026-04-24T17:53:40.41Z</time></trkpt><trkpt lat="30.924875" lon="-6.9141417"><ele>1142.0</ele><time>2026-04-24T17:53:42.41Z</time></trkpt><trkpt lat="30.9248" lon="-6.9141633"><ele>1142.0</ele><time>2026-04-24T17:53:56.41Z</time></trkpt><trkpt lat="30.924815" lon="-6.9140367"><ele>1142.0</ele><time>2026-04-24T17:53:58.41Z</time></trkpt><trkpt lat="30.9248417" lon="-6.913965"><ele>1142.0</ele><time>2026-04-24T17:53:59.41Z</time></trkpt><trkpt lat="30.9248683" lon="-6.9138883"><ele>1142.0</ele><time>2026-04-24T17:54:00.41Z</time></trkpt><trkpt lat="30.9248883" lon="-6.91381"><ele>1142.0</ele><time>2026-04-24T17:54:01.41Z</time></trkpt><trkpt lat="30.9249017" lon="-6.9137167"><ele>1142.0</ele><time>2026-04-24T17:54:02.41Z</time></trkpt><trkpt lat="30.9249167" lon="-6.913635"><ele>1142.0</ele><time>2026-04-24T17:54:03.41Z</time></trkpt><trkpt lat="30.924935" lon="-6.9135617"><ele>1142.0</ele><time>2026-04-24T17:54:04.41Z</time></trkpt><trkpt lat="30.92495" lon="-6.913485"><ele>1142.0</ele><time>2026-04-24T17:54:05.41Z</time></trkpt><trkpt lat="30.924965" lon="-6.9134067"><ele>1142.0</ele><time>2026-04-24T17:54:06.41Z</time></trkpt><trkpt lat="30.9249817" lon="-6.913335"><ele>1142.0</ele><time>2026-04-24T17:54:07.41Z</time></trkpt><trkpt lat="30.9250217" lon="-6.9132117"><ele>1142.0</ele><time>2026-04-24T17:54:09.41Z</time></trkpt><trkpt lat="30.9250933" lon="-6.9131783"><ele>1142.0</ele><time>2026-04-24T17:54:11.41Z</time></trkpt><trkpt lat="30.92519" lon="-6.9132267"><ele>1142.0</ele><time>2026-04-24T17:54:13.41Z</time></trkpt><trkpt lat="30.92529" lon="-6.9132633"><ele>1142.0</ele><time>2026-04-24T17:54:15.41Z</time></trkpt><trkpt lat="30.9253517" lon="-6.9133333"><ele>1142.0</ele><time>2026-04-24T17:54:17.41Z</time></trkpt><trkpt lat="30.925365" lon="-6.9134083"><ele>1142.0</ele><time>2026-04-24T17:54:19.41Z</time></trkpt><trkpt lat="30.92532" lon="-6.9134733"><ele>1142.0</ele><time>2026-04-24T17:54:22.41Z</time></trkpt><trkpt lat="30.9252946" lon="-6.9136019"><ele>1142.0</ele><time>2026-04-24T18:00:37.095Z</time></trkpt><trkpt lat="30.9252928" lon="-6.9136753"><ele>1142.0</ele><time>2026-04-24T18:01:27.518Z</time></trkpt><trkpt lat="30.9252889" lon="-6.9137498"><ele>1142.142857142857</ele><time>2026-04-24T19:46:39.42Z</time></trkpt><trkpt lat="30.9252493" lon="-6.9138077"><ele>1142.2857142857142</ele><time>2026-04-24T19:47:17.419Z</time></trkpt><trkpt lat="30.9253081" lon="-6.9137762"><ele>1142.4285714285713</ele><time>2026-04-24T19:52:27.432Z</time></trkpt><trkpt lat="30.9253402" lon="-6.9137122"><ele>1142.5714285714284</ele><time>2026-04-24T19:53:12.47Z</time></trkpt><trkpt lat="30.9252826" lon="-6.9137468"><ele>1142.7142857142856</ele><time>2026-04-24T22:50:58.432Z</time></trkpt><trkpt lat="30.9252363" lon="-6.9136906"><ele>1142.857142857143</ele><time>2026-04-25T08:25:17.441Z</time></trkpt><trkpt lat="30.925243" lon="-6.9136022"><ele>1143.0</ele><time>2026-04-25T08:30:09.509Z</time></trkpt><trkpt lat="30.9252548" lon="-6.913524"><ele>1143.0</ele><time>2026-04-25T08:30:15.502Z</time></trkpt><trkpt lat="30.9252213" lon="-6.9134604"><ele>1143.0</ele><time>2026-04-25T08:30:21.431Z</time></trkpt></trkseg><trkseg><trkpt lat="30.9233283" lon="-6.91875"><ele>1134.0</ele><time>2026-04-25T08:44:04.416Z</time></trkpt><trkpt lat="30.923245" lon="-6.9188533"><ele>1134.0</ele><time>2026-04-25T08:44:16.416Z</time></trkpt><trkpt lat="30.9231833" lon="-6.9189417"><ele>1134.0</ele><time>2026-04-25T08:44:18.416Z</time></trkpt><trkpt lat="30.9231733" lon="-6.9190533"><ele>1134.0</ele><time>2026-04-25T08:44:20.417Z</time></trkpt><trkpt lat="30.92321" lon="-6.9191167"><ele>1134.0</ele><time>2026-04-25T08:44:21.416Z</time></trkpt><trkpt lat="30.92326" lon="-6.9191817"><ele>1133.8333333333333</ele><time>2026-04-25T08:44:22.416Z</time></trkpt><trkpt lat="30.9233167" lon="-6.9192383"><ele>1133.6666666666667</ele><time>2026-04-25T08:44:23.416Z</time></trkpt><trkpt lat="30.9233733" lon="-6.919295"><ele>1133.5</ele><time>2026-04-25T08:44:24.416Z</time></trkpt><trkpt lat="30.92343" lon="-6.9193517"><ele>1133.3333333333335</ele><time>2026-04-25T08:44:25.416Z</time></trkpt><trkpt lat="30.9234867" lon="-6.919415"><ele>1133.1666666666667</ele><time>2026-04-25T08:44:26.416Z</time></trkpt><trkpt lat="30.9235417" lon="-6.9194783"><ele>1133.0</ele><time>2026-04-25T08:44:27.416Z</time></trkpt><trkpt lat="30.9236033" lon="-6.91955"><ele>1133.0</ele><time>2026-04-25T08:44:28.416Z</time></trkpt><trkpt lat="30.9236683" lon="-6.9196233"><ele>1133.0</ele><time>2026-04-25T08:44:29.416Z</time></trkpt><trkpt lat="30.9237317" lon="-6.9197017"><ele>1133.0</ele><time>2026-04-25T08:44:30.416Z</time></trkpt><trkpt lat="30.9238083" lon="-6.9197817"><ele>1133.0</ele><time>2026-04-25T08:44:31.416Z</time></trkpt><trkpt lat="30.92388" lon="-6.91986"><ele>1133.0</ele><time>2026-04-25T08:44:32.416Z</time></trkpt><trkpt lat="30.92395" lon="-6.919935"><ele>1133.0</ele><time>2026-04-25T08:44:33.416Z</time></trkpt><trkpt lat="30.9240217" lon="-6.9200117"><ele>1133.0</ele><time>2026-04-25T08:44:34.416Z</time></trkpt><trkpt lat="30.9240983" lon="-6.9200933"><ele>1133.0</ele><time>2026-04-25T08:44:35.416Z</time></trkpt><trkpt lat="30.924175" lon="-6.9201783"><ele>1133.0</ele><time>2026-04-25T08:44:36.416Z</time></trkpt><trkpt lat="30.9242517" lon="-6.920265"><ele>1133.0</ele><time>2026-04-25T08:44:37.416Z</time></trkpt><trkpt lat="30.9243183" lon="-6.92035"><ele>1133.1666666666667</ele><time>2026-04-25T08:44:38.416Z</time></trkpt><trkpt lat="30.9243883" lon="-6.9204317"><ele>1133.3333333333335</ele><time>2026-04-25T08:44:39.416Z</time></trkpt><trkpt lat="30.9244567" lon="-6.920505"><ele>1133.5</ele><time>2026-04-25T08:44:40.416Z</time></trkpt><trkpt lat="30.9245217" lon="-6.9205667"><ele>1133.6666666666667</ele><time>2026-04-25T08:44:41.416Z</time></trkpt><trkpt lat="30.92459" lon="-6.9206267"><ele>1133.8333333333333</ele><time>2026-04-25T08:44:42.416Z</time></trkpt><trkpt lat="30.924645" lon="-6.9206833"><ele>1134.0</ele><time>2026-04-25T08:44:43.416Z</time></trkpt><trkpt lat="30.9247033" lon="-6.9207867"><ele>1134.0</ele><time>2026-04-25T08:44:45.416Z</time></trkpt><trkpt lat="30.9246633" lon="-6.9208917"><ele>1134.0</ele><time>2026-04-25T08:44:47.416Z</time></trkpt><trkpt lat="30.9246217" lon="-6.9209483"><ele>1134.0</ele><time>2026-04-25T08:44:48.416Z</time></trkpt><trkpt lat="30.9245817" lon="-6.92102"><ele>1134.0</ele><time>2026-04-25T08:44:49.416Z</time></trkpt><trkpt lat="30.9245383" lon="-6.9211083"><ele>1134.0</ele><time>2026-04-25T08:44:50.416Z</time></trkpt><trkpt lat="30.9244933" lon="-6.9212033"><ele>1134.0</ele><time>2026-04-25T08:44:51.416Z</time></trkpt><trkpt lat="30.9244467" lon="-6.9212983"><ele>1134.4</ele><time>2026-04-25T08:44:52.417Z</time></trkpt><trkpt lat="30.9243967" lon="-6.9213983"><ele>1134.8000000000002</ele><time>2026-04-25T08:44:53.416Z</time></trkpt><trkpt lat="30.924345" lon="-6.9215017"><ele>1135.1999999999998</ele><time>2026-04-25T08:44:54.416Z</time></trkpt><trkpt lat="30.9242917" lon="-6.92161"><ele>1135.6</ele><time>2026-04-25T08:44:55.416Z</time></trkpt><trkpt lat="30.92424" lon="-6.9217233"><ele>1136.0</ele><time>2026-04-25T08:44:56.416Z</time></trkpt><trkpt lat="30.9242" lon="-6.92184"><ele>1136.2</ele><time>2026-04-25T08:44:57.416Z</time></trkpt><trkpt lat="30.9241533" lon="-6.92195"><ele>1136.3999999999999</ele><time>2026-04-25T08:44:58.416Z</time></trkpt><trkpt lat="30.924105" lon="-6.9220617"><ele>1136.6</ele><time>2026-04-25T08:44:59.416Z</time></trkpt><trkpt lat="30.9240617" lon="-6.9221783"><ele>1136.8</ele><time>2026-04-25T08:45:00.416Z</time></trkpt><trkpt lat="30.92402" lon="-6.9222967"><ele>1137.0</ele><time>2026-04-25T08:45:01.417Z</time></trkpt><trkpt lat="30.9239783" lon="-6.9224183"><ele>1137.0</ele><time>2026-04-25T08:45:02.416Z</time></trkpt><trkpt lat="30.9239333" lon="-6.9225283"><ele>1137.0</ele><time>2026-04-25T08:45:03.416Z</time></trkpt><trkpt lat="30.9238883" lon="-6.9226433"><ele>1137.0</ele><time>2026-04-25T08:45:04.416Z</time></trkpt><trkpt lat="30.923845" lon="-6.9227567"><ele>1137.0</ele><time>2026-04-25T08:45:05.416Z</time></trkpt><trkpt lat="30.9238067" lon="-6.9228683"><ele>1137.0</ele><time>2026-04-25T08:45:06.416Z</time></trkpt><trkpt lat="30.92379" lon="-6.92299"><ele>1137.0</ele><time>2026-04-25T08:45:07.416Z</time></trkpt><trkpt lat="30.9237917" lon="-6.92311"><ele>1137.0</ele><time>2026-04-25T08:45:08.416Z</time></trkpt><trkpt lat="30.9238117" lon="-6.9232233"><ele>1137.0</ele><time>2026-04-25T08:45:09.416Z</time></trkpt><trkpt lat="30.9238533" lon="-6.9233333"><ele>1137.0</ele><time>2026-04-25T08:45:10.416Z</time></trkpt><trkpt lat="30.9238933" lon="-6.9234517"><ele>1137.0</ele><time>2026-04-25T08:45:11.416Z</time></trkpt><trkpt lat="30.9239433" lon="-6.923565"><ele>1137.0</ele><time>2026-04-25T08:45:12.416Z</time></trkpt><trkpt lat="30.9239933" lon="-6.92369"><ele>1137.0</ele><time>2026-04-25T08:45:13.416Z</time></trkpt><trkpt lat="30.9240417" lon="-6.9238133"><ele>1137.0</ele><time>2026-04-25T08:45:14.416Z</time></trkpt><trkpt lat="30.92409" lon="-6.9239317"><ele>1137.0</ele><time>2026-04-25T08:45:15.416Z</time></trkpt><trkpt lat="30.9241317" lon="-6.924045"><ele>1137.0</ele><time>2026-04-25T08:45:16.415Z</time></trkpt><trkpt lat="30.924165" lon="-6.9241533"><ele>1137.0</ele><time>2026-04-25T08:45:17.415Z</time></trkpt><trkpt lat="30.9242033" lon="-6.92426"><ele>1137.0</ele><time>2026-04-25T08:45:18.415Z</time></trkpt><trkpt lat="30.9242433" lon="-6.924365"><ele>1137.0</ele><time>2026-04-25T08:45:19.415Z</time></trkpt><trkpt lat="30.9242783" lon="-6.9244683"><ele>1137.0</ele><time>2026-04-25T08:45:20.415Z</time></trkpt><trkpt lat="30.9243183" lon="-6.9245633"><ele>1136.8</ele><time>2026-04-25T08:45:21.415Z</time></trkpt><trkpt lat="30.9243533" lon="-6.92466"><ele>1136.6</ele><time>2026-04-25T08:45:22.415Z</time></trkpt><trkpt lat="30.924395" lon="-6.9247617"><ele>1136.3999999999999</ele><time>2026-04-25T08:45:23.415Z</time></trkpt><trkpt lat="30.9244317" lon="-6.9248683"><ele>1136.2</ele><time>2026-04-25T08:45:24.415Z</time></trkpt><trkpt lat="30.9244717" lon="-6.92497"><ele>1136.0</ele><time>2026-04-25T08:45:25.415Z</time></trkpt><trkpt lat="30.9245" lon="-6.925075"><ele>1135.5</ele><time>2026-04-25T08:45:26.415Z</time></trkpt><trkpt lat="30.9245367" lon="-6.92518"><ele>1135.0</ele><time>2026-04-25T08:45:27.415Z</time></trkpt><trkpt lat="30.92457" lon="-6.9252817"><ele>1134.5</ele><time>2026-04-25T08:45:28.415Z</time></trkpt><trkpt lat="30.9246033" lon="-6.92537"><ele>1134.0</ele><time>2026-04-25T08:45:29.415Z</time></trkpt><trkpt lat="30.9246367" lon="-6.9254633"><ele>1133.5</ele><time>2026-04-25T08:45:30.415Z</time></trkpt><trkpt lat="30.9246633" lon="-6.9255483"><ele>1133.0</ele><time>2026-04-25T08:45:31.415Z</time></trkpt><trkpt lat="30.9246933" lon="-6.9256267"><ele>1133.0</ele><time>2026-04-25T08:45:32.415Z</time></trkpt><trkpt lat="30.92472" lon="-6.9256967"><ele>1133.0</ele><time>2026-04-25T08:45:33.415Z</time></trkpt><trkpt lat="30.92477" lon="-6.9258017"><ele>1133.0</ele><time>2026-04-25T08:45:35.415Z</time></trkpt><trkpt lat="30.9247983" lon="-6.925875"><ele>1133.0</ele><time>2026-04-25T08:45:37.415Z</time></trkpt><trkpt lat="30.924825" lon="-6.9259417"><ele>1133.0</ele><time>2026-04-25T08:45:40.415Z</time></trkpt><trkpt lat="30.924865" lon="-6.9260767"><ele>1133.0</ele><time>2026-04-25T08:45:54.415Z</time></trkpt><trkpt lat="30.92489" lon="-6.9261467"><ele>1133.3333333333335</ele><time>2026-04-25T08:45:55.415Z</time></trkpt><trkpt lat="30.9249167" lon="-6.9262167"><ele>1133.6666666666667</ele><time>2026-04-25T08:45:56.415Z</time></trkpt><trkpt lat="30.9249683" lon="-6.9263467"><ele>1134.0</ele><time>2026-04-25T08:45:58.415Z</time></trkpt><trkpt lat="30.9249933" lon="-6.92642"><ele>1134.3333333333333</ele><time>2026-04-25T08:45:59.415Z</time></trkpt><trkpt lat="30.92502" lon="-6.9264983"><ele>1134.6666666666665</ele><time>2026-04-25T08:46:00.416Z</time></trkpt><trkpt lat="30.925045" lon="-6.9265783"><ele>1135.0</ele><time>2026-04-25T08:46:01.415Z</time></trkpt><trkpt lat="30.9250783" lon="-6.9266533"><ele>1134.8333333333333</ele><time>2026-04-25T08:46:02.415Z</time></trkpt><trkpt lat="30.9251117" lon="-6.92673"><ele>1134.6666666666665</ele><time>2026-04-25T08:46:03.415Z</time></trkpt><trkpt lat="30.92514" lon="-6.9268033"><ele>1134.5</ele><time>2026-04-25T08:46:04.415Z</time></trkpt><trkpt lat="30.9251683" lon="-6.9268783"><ele>1134.3333333333333</ele><time>2026-04-25T08:46:05.415Z</time></trkpt><trkpt lat="30.9251933" lon="-6.9269483"><ele>1134.1666666666667</ele><time>2026-04-25T08:46:06.415Z</time></trkpt><trkpt lat="30.9252367" lon="-6.9270783"><ele>1134.0</ele><time>2026-04-25T08:46:08.415Z</time></trkpt><trkpt lat="30.9252783" lon="-6.92722"><ele>1134.0</ele><time>2026-04-25T08:46:10.415Z</time></trkpt><trkpt lat="30.9253" lon="-6.9273"><ele>1134.0</ele><time>2026-04-25T08:46:11.415Z</time></trkpt><trkpt lat="30.92532" lon="-6.92738"><ele>1134.0</ele><time>2026-04-25T08:46:12.415Z</time></trkpt><trkpt lat="30.9253483" lon="-6.92745"><ele>1134.0</ele><time>2026-04-25T08:46:13.415Z</time></trkpt><trkpt lat="30.925385" lon="-6.9275517"><ele>1134.0</ele><time>2026-04-25T08:46:15.415Z</time></trkpt><trkpt lat="30.9254083" lon="-6.9276333"><ele>1134.0</ele><time>2026-04-25T08:46:19.415Z</time></trkpt><trkpt lat="30.925435" lon="-6.9277267"><ele>1133.6000000000001</ele><time>2026-04-25T08:46:22.415Z</time></trkpt><trkpt lat="30.92546" lon="-6.927815"><ele>1133.2</ele><time>2026-04-25T08:46:24.415Z</time></trkpt><trkpt lat="30.9255033" lon="-6.9279133"><ele>1132.8000000000002</ele><time>2026-04-25T08:46:26.415Z</time></trkpt><trkpt lat="30.92555" lon="-6.9280233"><ele>1132.4</ele><time>2026-04-25T08:46:28.415Z</time></trkpt><trkpt lat="30.9256283" lon="-6.9281383"><ele>1132.0</ele><time>2026-04-25T08:46:30.415Z</time></trkpt><trkpt lat="30.9256833" lon="-6.9281967"><ele>1132.0</ele><time>2026-04-25T08:46:31.415Z</time></trkpt><trkpt lat="30.9257467" lon="-6.92826"><ele>1132.0</ele><time>2026-04-25T08:46:32.416Z</time></trkpt><trkpt lat="30.92582" lon="-6.9283067"><ele>1132.0</ele><time>2026-04-25T08:46:33.416Z</time></trkpt><trkpt lat="30.9258917" lon="-6.9283467"><ele>1132.0</ele><time>2026-04-25T08:46:34.415Z</time></trkpt><trkpt lat="30.9259583" lon="-6.9283683"><ele>1132.0</ele><time>2026-04-25T08:46:35.415Z</time></trkpt><trkpt lat="30.9260233" lon="-6.928385"><ele>1132.0</ele><time>2026-04-25T08:46:36.415Z</time></trkpt><trkpt lat="30.926085" lon="-6.928405"><ele>1132.0</ele><time>2026-04-25T08:46:37.415Z</time></trkpt><trkpt lat="30.9261917" lon="-6.9284333"><ele>1131.8</ele><time>2026-04-25T08:46:39.415Z</time></trkpt><trkpt lat="30.9262867" lon="-6.92848"><ele>1131.6</ele><time>2026-04-25T08:46:41.415Z</time></trkpt><trkpt lat="30.9263917" lon="-6.9285183"><ele>1131.3999999999999</ele><time>2026-04-25T08:46:43.415Z</time></trkpt><trkpt lat="30.9264733" lon="-6.9285533"><ele>1131.2</ele><time>2026-04-25T08:46:45.415Z</time></trkpt><trkpt lat="30.9265567" lon="-6.92857"><ele>1131.0</ele><time>2026-04-25T08:46:48.415Z</time></trkpt><trkpt lat="30.9266267" lon="-6.9285967"><ele>1131.0</ele><time>2026-04-25T08:46:52.415Z</time></trkpt><trkpt lat="30.9267033" lon="-6.92864"><ele>1131.0</ele><time>2026-04-25T08:46:55.415Z</time></trkpt><trkpt lat="30.9267833" lon="-6.9286683"><ele>1131.0</ele><time>2026-04-25T08:46:59.415Z</time></trkpt><trkpt lat="30.9268133" lon="-6.9287417"><ele>1131.0</ele><time>2026-04-25T08:47:01.415Z</time></trkpt><trkpt lat="30.9268" lon="-6.9288517"><ele>1131.0</ele><time>2026-04-25T08:47:03.415Z</time></trkpt><trkpt lat="30.9267833" lon="-6.9289283"><ele>1131.0</ele><time>2026-04-25T08:47:04.415Z</time></trkpt><trkpt lat="30.9267583" lon="-6.9290067"><ele>1131.0</ele><time>2026-04-25T08:47:05.415Z</time></trkpt><trkpt lat="30.9267217" lon="-6.9290983"><ele>1131.0</ele><time>2026-04-25T08:47:06.415Z</time></trkpt><trkpt lat="30.9266817" lon="-6.9291917"><ele>1131.0</ele><time>2026-04-25T08:47:07.415Z</time></trkpt><trkpt lat="30.9266383" lon="-6.9292833"><ele>1131.0</ele><time>2026-04-25T08:47:08.415Z</time></trkpt><trkpt lat="30.9265967" lon="-6.9293867"><ele>1131.0</ele><time>2026-04-25T08:47:09.415Z</time></trkpt><trkpt lat="30.926555" lon="-6.9294967"><ele>1131.0</ele><time>2026-04-25T08:47:10.415Z</time></trkpt><trkpt lat="30.92651" lon="-6.9296083"><ele>1131.0</ele><time>2026-04-25T08:47:11.415Z</time></trkpt><trkpt lat="30.926465" lon="-6.9297283"><ele>1131.0</ele><time>2026-04-25T08:47:12.415Z</time></trkpt><trkpt lat="30.9264233" lon="-6.9298433"><ele>1131.0</ele><time>2026-04-25T08:47:13.415Z</time></trkpt><trkpt lat="30.9263833" lon="-6.92996"><ele>1131.0</ele><time>2026-04-25T08:47:14.415Z</time></trkpt><trkpt lat="30.926165" lon="-6.930605"><ele>1131.0</ele><time>2026-04-25T08:50:44.417Z</time></trkpt><trkpt lat="30.926105" lon="-6.9307267"><ele>1131.0</ele><time>2026-04-25T08:50:46.417Z</time></trkpt><trkpt lat="30.926045" lon="-6.930855"><ele>1131.0</ele><time>2026-04-25T08:50:48.417Z</time></trkpt><trkpt lat="30.9260133" lon="-6.9309233"><ele>1131.0</ele><time>2026-04-25T08:50:49.417Z</time></trkpt><trkpt lat="30.925985" lon="-6.9309967"><ele>1131.0</ele><time>2026-04-25T08:50:50.417Z</time></trkpt><trkpt lat="30.925955" lon="-6.931085"><ele>1131.6</ele><time>2026-04-25T08:50:51.417Z</time></trkpt><trkpt lat="30.9259133" lon="-6.931175"><ele>1132.1999999999998</ele><time>2026-04-25T08:50:52.417Z</time></trkpt><trkpt lat="30.9258767" lon="-6.93128"><ele>1132.8000000000002</ele><time>2026-04-25T08:50:53.417Z</time></trkpt><trkpt lat="30.9258367" lon="-6.9313933"><ele>1133.4</ele><time>2026-04-25T08:50:54.417Z</time></trkpt><trkpt lat="30.925795" lon="-6.931505"><ele>1134.0</ele><time>2026-04-25T08:50:55.417Z</time></trkpt><trkpt lat="30.92575" lon="-6.9316233"><ele>1134.0</ele><time>2026-04-25T08:50:56.418Z</time></trkpt><trkpt lat="30.92569" lon="-6.931725"><ele>1134.0</ele><time>2026-04-25T08:50:57.417Z</time></trkpt><trkpt lat="30.9256517" lon="-6.9318517"><ele>1134.0</ele><time>2026-04-25T08:50:58.417Z</time></trkpt><trkpt lat="30.92561" lon="-6.9319683"><ele>1134.0</ele><time>2026-04-25T08:50:59.417Z</time></trkpt><trkpt lat="30.925565" lon="-6.932085"><ele>1134.0</ele><time>2026-04-25T08:51:00.417Z</time></trkpt><trkpt lat="30.9255217" lon="-6.9321933"><ele>1134.0</ele><time>2026-04-25T08:51:01.417Z</time></trkpt><trkpt lat="30.9254817" lon="-6.9322983"><ele>1134.0</ele><time>2026-04-25T08:51:02.417Z</time></trkpt><trkpt lat="30.9254417" lon="-6.9323983"><ele>1134.0</ele><time>2026-04-25T08:51:03.417Z</time></trkpt><trkpt lat="30.925405" lon="-6.9324917"><ele>1134.0</ele><time>2026-04-25T08:51:04.417Z</time></trkpt><trkpt lat="30.92537" lon="-6.932585"><ele>1134.0</ele><time>2026-04-25T08:51:05.417Z</time></trkpt><trkpt lat="30.92534" lon="-6.93268"><ele>1133.4</ele><time>2026-04-25T08:51:06.417Z</time></trkpt><trkpt lat="30.9253117" lon="-6.9327817"><ele>1132.8000000000002</ele><time>2026-04-25T08:51:07.417Z</time></trkpt><trkpt lat="30.925285" lon="-6.9328867"><ele>1132.1999999999998</ele><time>2026-04-25T08:51:08.417Z</time></trkpt><trkpt lat="30.92526" lon="-6.9329983"><ele>1131.6</ele><time>2026-04-25T08:51:09.417Z</time></trkpt><trkpt lat="30.9252417" lon="-6.93312"><ele>1131.0</ele><time>2026-04-25T08:51:10.417Z</time></trkpt><trkpt lat="30.9252317" lon="-6.9332433"><ele>1131.0</ele><time>2026-04-25T08:51:11.417Z</time></trkpt><trkpt lat="30.9252317" lon="-6.9333767"><ele>1131.0</ele><time>2026-04-25T08:51:12.417Z</time></trkpt><trkpt lat="30.925235" lon="-6.9335133"><ele>1131.0</ele><time>2026-04-25T08:51:13.417Z</time></trkpt><trkpt lat="30.92525" lon="-6.9336567"><ele>1131.0</ele><time>2026-04-25T08:51:14.417Z</time></trkpt><trkpt lat="30.9252733" lon="-6.9338017"><ele>1130.5</ele><time>2026-04-25T08:51:15.417Z</time></trkpt><trkpt lat="30.9253" lon="-6.933955"><ele>1130.0</ele><time>2026-04-25T08:51:16.417Z</time></trkpt><trkpt lat="30.9253367" lon="-6.9341067"><ele>1129.5</ele><time>2026-04-25T08:51:17.417Z</time></trkpt><trkpt lat="30.9253767" lon="-6.9342617"><ele>1129.0</ele><time>2026-04-25T08:51:18.417Z</time></trkpt><trkpt lat="30.9254183" lon="-6.9344133"><ele>1128.75</ele><time>2026-04-25T08:51:19.417Z</time></trkpt><trkpt lat="30.9254617" lon="-6.9345683"><ele>1128.5</ele><time>2026-04-25T08:51:20.417Z</time></trkpt><trkpt lat="30.925505" lon="-6.934715"><ele>1128.25</ele><time>2026-04-25T08:51:21.417Z</time></trkpt><trkpt lat="30.92555" lon="-6.9348617"><ele>1128.0</ele><time>2026-04-25T08:51:22.417Z</time></trkpt><trkpt lat="30.925595" lon="-6.935005"><ele>1127.5</ele><time>2026-04-25T08:51:23.417Z</time></trkpt><trkpt lat="30.9256333" lon="-6.935145"><ele>1127.0</ele><time>2026-04-25T08:51:24.417Z</time></trkpt><trkpt lat="30.9256717" lon="-6.935285"><ele>1126.5</ele><time>2026-04-25T08:51:25.417Z</time></trkpt><trkpt lat="30.9257183" lon="-6.935435"><ele>1126.0</ele><time>2026-04-25T08:51:26.417Z</time></trkpt><trkpt lat="30.92577" lon="-6.9355833"><ele>1126.0</ele><time>2026-04-25T08:51:27.417Z</time></trkpt><trkpt lat="30.9258167" lon="-6.9357417"><ele>1126.0</ele><time>2026-04-25T08:51:28.417Z</time></trkpt><trkpt lat="30.9258717" lon="-6.9358933"><ele>1126.0</ele><time>2026-04-25T08:51:29.417Z</time></trkpt><trkpt lat="30.9259217" lon="-6.9360317"><ele>1126.0</ele><time>2026-04-25T08:51:30.417Z</time></trkpt><trkpt lat="30.92597" lon="-6.9361567"><ele>1126.75</ele><time>2026-04-25T08:51:31.418Z</time></trkpt><trkpt lat="30.9260167" lon="-6.9362767"><ele>1127.5</ele><time>2026-04-25T08:51:32.417Z</time></trkpt><trkpt lat="30.9260617" lon="-6.9363983"><ele>1128.25</ele><time>2026-04-25T08:51:33.417Z</time></trkpt><trkpt lat="30.9261067" lon="-6.9365217"><ele>1129.0</ele><time>2026-04-25T08:51:34.417Z</time></trkpt><trkpt lat="30.9261483" lon="-6.9366483"><ele>1129.25</ele><time>2026-04-25T08:51:35.417Z</time></trkpt><trkpt lat="30.92619" lon="-6.9367817"><ele>1129.5</ele><time>2026-04-25T08:51:36.417Z</time></trkpt><trkpt lat="30.9262367" lon="-6.9369233"><ele>1129.75</ele><time>2026-04-25T08:51:37.417Z</time></trkpt><trkpt lat="30.9262917" lon="-6.9370667"><ele>1130.0</ele><time>2026-04-25T08:51:38.417Z</time></trkpt><trkpt lat="30.9263433" lon="-6.93721"><ele>1130.0</ele><time>2026-04-25T08:51:39.417Z</time></trkpt><trkpt lat="30.9263983" lon="-6.937355"><ele>1130.0</ele><time>2026-04-25T08:51:40.417Z</time></trkpt><trkpt lat="30.92645" lon="-6.937505"><ele>1130.0</ele><time>2026-04-25T08:51:41.418Z</time></trkpt><trkpt lat="30.9265017" lon="-6.9376583"><ele>1130.0</ele><time>2026-04-25T08:51:42.417Z</time></trkpt><trkpt lat="30.926545" lon="-6.9378183"><ele>1129.75</ele><time>2026-04-25T08:51:43.417Z</time></trkpt><trkpt lat="30.9265983" lon="-6.9379783"><ele>1129.5</ele><time>2026-04-25T08:51:44.417Z</time></trkpt><trkpt lat="30.9266583" lon="-6.93814"><ele>1129.25</ele><time>2026-04-25T08:51:45.417Z</time></trkpt><trkpt lat="30.9267167" lon="-6.9382967"><ele>1129.0</ele><time>2026-04-25T08:51:46.417Z</time></trkpt><trkpt lat="30.9267733" lon="-6.9384467"><ele>1128.25</ele><time>2026-04-25T08:51:47.417Z</time></trkpt><trkpt lat="30.9268267" lon="-6.93859"><ele>1127.5</ele><time>2026-04-25T08:51:48.417Z</time></trkpt><trkpt lat="30.9268833" lon="-6.9387383"><ele>1126.75</ele><time>2026-04-25T08:51:49.418Z</time></trkpt><trkpt lat="30.9269367" lon="-6.938885"><ele>1126.0</ele><time>2026-04-25T08:51:50.417Z</time></trkpt><trkpt lat="30.926985" lon="-6.93903"><ele>1126.0</ele><time>2026-04-25T08:51:51.417Z</time></trkpt><trkpt lat="30.927035" lon="-6.93917"><ele>1126.0</ele><time>2026-04-25T08:51:52.417Z</time></trkpt><trkpt lat="30.9270783" lon="-6.93931"><ele>1126.0</ele><time>2026-04-25T08:51:53.417Z</time></trkpt><trkpt lat="30.927125" lon="-6.9394417"><ele>1126.0</ele><time>2026-04-25T08:51:54.417Z</time></trkpt><trkpt lat="30.9271717" lon="-6.93957"><ele>1126.5</ele><time>2026-04-25T08:51:55.417Z</time></trkpt><trkpt lat="30.9272167" lon="-6.9397017"><ele>1127.0</ele><time>2026-04-25T08:51:56.417Z</time></trkpt><trkpt lat="30.9272567" lon="-6.93984"><ele>1127.5</ele><time>2026-04-25T08:51:57.417Z</time></trkpt><trkpt lat="30.9273067" lon="-6.9399717"><ele>1128.0</ele><time>2026-04-25T08:51:58.417Z</time></trkpt><trkpt lat="30.9273583" lon="-6.940105"><ele>1128.25</ele><time>2026-04-25T08:51:59.417Z</time></trkpt><trkpt lat="30.92741" lon="-6.9402417"><ele>1128.5</ele><time>2026-04-25T08:52:00.417Z</time></trkpt><trkpt lat="30.92746" lon="-6.9403783"><ele>1128.75</ele><time>2026-04-25T08:52:01.417Z</time></trkpt><trkpt lat="30.92751" lon="-6.9405167"><ele>1129.0</ele><time>2026-04-25T08:52:02.417Z</time></trkpt><trkpt lat="30.9275667" lon="-6.94066"><ele>1129.0</ele><time>2026-04-25T08:52:03.417Z</time></trkpt><trkpt lat="30.9276133" lon="-6.940805"><ele>1129.0</ele><time>2026-04-25T08:52:04.417Z</time></trkpt><trkpt lat="30.92766" lon="-6.940945"><ele>1129.0</ele><time>2026-04-25T08:52:05.417Z</time></trkpt><trkpt lat="30.9277067" lon="-6.9410817"><ele>1129.0</ele><time>2026-04-25T08:52:06.417Z</time></trkpt><trkpt lat="30.9277483" lon="-6.941215"><ele>1129.25</ele><time>2026-04-25T08:52:07.417Z</time></trkpt><trkpt lat="30.9277933" lon="-6.9413417"><ele>1129.5</ele><time>2026-04-25T08:52:08.417Z</time></trkpt><trkpt lat="30.9278417" lon="-6.9414683"><ele>1129.75</ele><time>2026-04-25T08:52:09.417Z</time></trkpt><trkpt lat="30.9278933" lon="-6.9415983"><ele>1130.0</ele><time>2026-04-25T08:52:10.417Z</time></trkpt><trkpt lat="30.9279383" lon="-6.9417317"><ele>1130.0</ele><time>2026-04-25T08:52:11.417Z</time></trkpt><trkpt lat="30.92799" lon="-6.94187"><ele>1130.0</ele><time>2026-04-25T08:52:12.417Z</time></trkpt><trkpt lat="30.92804" lon="-6.9420133"><ele>1130.0</ele><time>2026-04-25T08:52:13.417Z</time></trkpt><trkpt lat="30.9280883" lon="-6.9421517"><ele>1130.0</ele><time>2026-04-25T08:52:14.417Z</time></trkpt><trkpt lat="30.9281467" lon="-6.9422967"><ele>1130.0</ele><time>2026-04-25T08:52:15.417Z</time></trkpt><trkpt lat="30.9282017" lon="-6.9424467"><ele>1130.0</ele><time>2026-04-25T08:52:16.417Z</time></trkpt><trkpt lat="30.92826" lon="-6.9425983"><ele>1130.0</ele><time>2026-04-25T08:52:17.417Z</time></trkpt><trkpt lat="30.9283183" lon="-6.9427567"><ele>1130.0</ele><time>2026-04-25T08:52:18.417Z</time></trkpt><trkpt lat="30.9283717" lon="-6.9429133"><ele>1130.0</ele><time>2026-04-25T08:52:19.417Z</time></trkpt><trkpt lat="30.9284267" lon="-6.9430683"><ele>1130.0</ele><time>2026-04-25T08:52:20.418Z</time></trkpt><trkpt lat="30.9284783" lon="-6.9432267"><ele>1130.0</ele><time>2026-04-25T08:52:21.417Z</time></trkpt><trkpt lat="30.9285417" lon="-6.94339"><ele>1130.0</ele><time>2026-04-25T08:52:22.417Z</time></trkpt><trkpt lat="30.9286" lon="-6.9435533"><ele>1129.6666666666667</ele><time>2026-04-25T08:52:23.417Z</time></trkpt><trkpt lat="30.9286583" lon="-6.943715"><ele>1129.3333333333333</ele><time>2026-04-25T08:52:24.417Z</time></trkpt><trkpt lat="30.928715" lon="-6.943885"><ele>1129.0</ele><time>2026-04-25T08:52:25.417Z</time></trkpt><trkpt lat="30.9287767" lon="-6.94405"><ele>1129.3333333333333</ele><time>2026-04-25T08:52:26.417Z</time></trkpt><trkpt lat="30.9288333" lon="-6.9442183"><ele>1129.6666666666667</ele><time>2026-04-25T08:52:27.417Z</time></trkpt><trkpt lat="30.9288883" lon="-6.9443867"><ele>1130.0</ele><time>2026-04-25T08:52:28.417Z</time></trkpt><trkpt lat="30.9289483" lon="-6.9445583"><ele>1130.0</ele><time>2026-04-25T08:52:29.417Z</time></trkpt><trkpt lat="30.929005" lon="-6.94473"><ele>1130.0</ele><time>2026-04-25T08:52:30.417Z</time></trkpt><trkpt lat="30.9290617" lon="-6.9449067"><ele>1130.0</ele><time>2026-04-25T08:52:31.417Z</time></trkpt><trkpt lat="30.9291233" lon="-6.94509"><ele>1130.3333333333335</ele><time>2026-04-25T08:52:32.417Z</time></trkpt><trkpt lat="30.9291867" lon="-6.945275"><ele>1130.6666666666667</ele><time>2026-04-25T08:52:33.418Z</time></trkpt><trkpt lat="30.929255" lon="-6.9454633"><ele>1131.0</ele><time>2026-04-25T08:52:34.417Z</time></trkpt><trkpt lat="30.9293283" lon="-6.9456517"><ele>1131.0</ele><time>2026-04-25T08:52:35.417Z</time></trkpt><trkpt lat="30.929405" lon="-6.945845"><ele>1131.0</ele><time>2026-04-25T08:52:36.417Z</time></trkpt><trkpt lat="30.92948" lon="-6.946045"><ele>1131.0</ele><time>2026-04-25T08:52:37.417Z</time></trkpt><trkpt lat="30.9295517" lon="-6.9462467"><ele>1131.0</ele><time>2026-04-25T08:52:38.417Z</time></trkpt><trkpt lat="30.929625" lon="-6.9464567"><ele>1131.0</ele><time>2026-04-25T08:52:39.418Z</time></trkpt><trkpt lat="30.9297" lon="-6.94667"><ele>1131.0</ele><time>2026-04-25T08:52:40.417Z</time></trkpt><trkpt lat="30.92978" lon="-6.94688"><ele>1131.0</ele><time>2026-04-25T08:52:41.417Z</time></trkpt><trkpt lat="30.9298483" lon="-6.94709"><ele>1131.0</ele><time>2026-04-25T08:52:42.417Z</time></trkpt><trkpt lat="30.9299183" lon="-6.9472883"><ele>1131.0</ele><time>2026-04-25T08:52:43.417Z</time></trkpt><trkpt lat="30.92998" lon="-6.947475"><ele>1131.0</ele><time>2026-04-25T08:52:44.417Z</time></trkpt><trkpt lat="30.9300417" lon="-6.947655"><ele>1131.0</ele><time>2026-04-25T08:52:45.417Z</time></trkpt><trkpt lat="30.930105" lon="-6.947825"><ele>1131.0</ele><time>2026-04-25T08:52:46.417Z</time></trkpt><trkpt lat="30.9301617" lon="-6.9479867"><ele>1131.0</ele><time>2026-04-25T08:52:47.417Z</time></trkpt><trkpt lat="30.9302167" lon="-6.94815"><ele>1131.0</ele><time>2026-04-25T08:52:48.417Z</time></trkpt><trkpt lat="30.9302767" lon="-6.9483133"><ele>1131.0</ele><time>2026-04-25T08:52:49.417Z</time></trkpt><trkpt lat="30.9303383" lon="-6.948485"><ele>1131.0</ele><time>2026-04-25T08:52:50.417Z</time></trkpt><trkpt lat="30.9304" lon="-6.9486533"><ele>1131.0</ele><time>2026-04-25T08:52:51.417Z</time></trkpt><trkpt lat="30.9304633" lon="-6.94882"><ele>1131.0</ele><time>2026-04-25T08:52:52.417Z</time></trkpt><trkpt lat="30.9305167" lon="-6.94898"><ele>1131.0</ele><time>2026-04-25T08:52:53.417Z</time></trkpt><trkpt lat="30.9305683" lon="-6.9491317"><ele>1131.0</ele><time>2026-04-25T08:52:54.417Z</time></trkpt><trkpt lat="30.9306167" lon="-6.9492767"><ele>1131.0</ele><time>2026-04-25T08:52:55.417Z</time></trkpt><trkpt lat="30.9306617" lon="-6.949415"><ele>1131.0</ele><time>2026-04-25T08:52:56.417Z</time></trkpt><trkpt lat="30.930715" lon="-6.9495483"><ele>1131.0</ele><time>2026-04-25T08:52:57.417Z</time></trkpt><trkpt lat="30.9307717" lon="-6.94967"><ele>1131.0</ele><time>2026-04-25T08:52:58.417Z</time></trkpt><trkpt lat="30.9308283" lon="-6.9497833"><ele>1131.0</ele><time>2026-04-25T08:52:59.417Z</time></trkpt><trkpt lat="30.9309017" lon="-6.9498917"><ele>1131.0</ele><time>2026-04-25T08:53:00.417Z</time></trkpt><trkpt lat="30.9309683" lon="-6.9499917"><ele>1131.2</ele><time>2026-04-25T08:53:01.417Z</time></trkpt><trkpt lat="30.9310267" lon="-6.9501"><ele>1131.3999999999999</ele><time>2026-04-25T08:53:02.417Z</time></trkpt><trkpt lat="30.931055" lon="-6.950205"><ele>1131.6</ele><time>2026-04-25T08:53:03.417Z</time></trkpt><trkpt lat="30.931065" lon="-6.950325"><ele>1131.8</ele><time>2026-04-25T08:53:04.417Z</time></trkpt><trkpt lat="30.9310867" lon="-6.9504583"><ele>1132.0</ele><time>2026-04-25T08:53:05.417Z</time></trkpt><trkpt lat="30.93112" lon="-6.9505917"><ele>1132.0</ele><time>2026-04-25T08:53:06.417Z</time></trkpt><trkpt lat="30.931155" lon="-6.95074"><ele>1132.0</ele><time>2026-04-25T08:53:07.417Z</time></trkpt><trkpt lat="30.9311983" lon="-6.9508917"><ele>1132.0</ele><time>2026-04-25T08:53:08.417Z</time></trkpt><trkpt lat="30.9312517" lon="-6.9510483"><ele>1132.0</ele><time>2026-04-25T08:53:09.417Z</time></trkpt><trkpt lat="30.931315" lon="-6.9512133"><ele>1132.0</ele><time>2026-04-25T08:53:10.417Z</time></trkpt><trkpt lat="30.93137" lon="-6.951375"><ele>1132.0</ele><time>2026-04-25T08:53:11.417Z</time></trkpt><trkpt lat="30.9314233" lon="-6.9515333"><ele>1132.0</ele><time>2026-04-25T08:53:12.417Z</time></trkpt><trkpt lat="30.9314817" lon="-6.9516867"><ele>1132.0</ele><time>2026-04-25T08:53:13.417Z</time></trkpt><trkpt lat="30.931535" lon="-6.95185"><ele>1131.3333333333333</ele><time>2026-04-25T08:53:14.417Z</time></trkpt><trkpt lat="30.931595" lon="-6.9520133"><ele>1130.6666666666667</ele><time>2026-04-25T08:53:15.417Z</time></trkpt><trkpt lat="30.9316517" lon="-6.95218"><ele>1130.0</ele><time>2026-04-25T08:53:16.417Z</time></trkpt><trkpt lat="30.9317083" lon="-6.9523483"><ele>1131.0</ele><time>2026-04-25T08:53:17.417Z</time></trkpt><trkpt lat="30.9317667" lon="-6.9525267"><ele>1132.0</ele><time>2026-04-25T08:53:18.417Z</time></trkpt><trkpt lat="30.93183" lon="-6.9526983"><ele>1133.0</ele><time>2026-04-25T08:53:19.417Z</time></trkpt><trkpt lat="30.9318967" lon="-6.952875"><ele>1133.0</ele><time>2026-04-25T08:53:20.417Z</time></trkpt><trkpt lat="30.931955" lon="-6.9530567"><ele>1133.0</ele><time>2026-04-25T08:53:21.417Z</time></trkpt><trkpt lat="30.932015" lon="-6.9532367"><ele>1133.0</ele><time>2026-04-25T08:53:22.417Z</time></trkpt><trkpt lat="30.9320817" lon="-6.9534183"><ele>1133.3333333333335</ele><time>2026-04-25T08:53:23.417Z</time></trkpt><trkpt lat="30.9321433" lon="-6.9536017"><ele>1133.6666666666667</ele><time>2026-04-25T08:53:24.417Z</time></trkpt><trkpt lat="30.9322067" lon="-6.9537867"><ele>1134.0</ele><time>2026-04-25T08:53:25.417Z</time></trkpt><trkpt lat="30.9322717" lon="-6.9539633"><ele>1134.0</ele><time>2026-04-25T08:53:26.418Z</time></trkpt><trkpt lat="30.9323383" lon="-6.95415"><ele>1134.0</ele><time>2026-04-25T08:53:27.417Z</time></trkpt><trkpt lat="30.932405" lon="-6.9543367"><ele>1134.0</ele><time>2026-04-25T08:53:28.417Z</time></trkpt><trkpt lat="30.9324783" lon="-6.9545117"><ele>1134.0</ele><time>2026-04-25T08:53:29.417Z</time></trkpt><trkpt lat="30.9325567" lon="-6.954695"><ele>1134.0</ele><time>2026-04-25T08:53:30.417Z</time></trkpt><trkpt lat="30.93264" lon="-6.9548783"><ele>1134.0</ele><time>2026-04-25T08:53:31.417Z</time></trkpt><trkpt lat="30.93273" lon="-6.9550583"><ele>1134.3333333333333</ele><time>2026-04-25T08:53:32.417Z</time></trkpt><trkpt lat="30.93282" lon="-6.95524"><ele>1134.6666666666665</ele><time>2026-04-25T08:53:33.417Z</time></trkpt><trkpt lat="30.93292" lon="-6.9554183"><ele>1135.0</ele><time>2026-04-25T08:53:34.417Z</time></trkpt><trkpt lat="30.9330183" lon="-6.955595"><ele>1135.0</ele><time>2026-04-25T08:53:35.417Z</time></trkpt><trkpt lat="30.9331133" lon="-6.95576"><ele>1135.0</ele><time>2026-04-25T08:53:36.417Z</time></trkpt><trkpt lat="30.9332167" lon="-6.9559267"><ele>1135.0</ele><time>2026-04-25T08:53:37.417Z</time></trkpt><trkpt lat="30.9333217" lon="-6.956095"><ele>1135.0</ele><time>2026-04-25T08:53:38.417Z</time></trkpt><trkpt lat="30.93343" lon="-6.9562633"><ele>1135.0</ele><time>2026-04-25T08:53:39.417Z</time></trkpt><trkpt lat="30.9335317" lon="-6.9564383"><ele>1135.0</ele><time>2026-04-25T08:53:40.417Z</time></trkpt><trkpt lat="30.9336433" lon="-6.9565983"><ele>1135.0</ele><time>2026-04-25T08:53:41.417Z</time></trkpt><trkpt lat="30.9337533" lon="-6.9567683"><ele>1135.0</ele><time>2026-04-25T08:53:42.417Z</time></trkpt><trkpt lat="30.933865" lon="-6.9569433"><ele>1135.0</ele><time>2026-04-25T08:53:43.416Z</time></trkpt><trkpt lat="30.9339817" lon="-6.9571217"><ele>1135.0</ele><time>2026-04-25T08:53:44.416Z</time></trkpt><trkpt lat="30.9340933" lon="-6.9573017"><ele>1135.0</ele><time>2026-04-25T08:53:45.416Z</time></trkpt><trkpt lat="30.9342167" lon="-6.9574883"><ele>1135.0</ele><time>2026-04-25T08:53:46.416Z</time></trkpt><trkpt lat="30.934335" lon="-6.9576767"><ele>1135.6666666666665</ele><time>2026-04-25T08:53:47.416Z</time></trkpt><trkpt lat="30.93446" lon="-6.9578633"><ele>1136.3333333333333</ele><time>2026-04-25T08:53:48.416Z</time></trkpt><trkpt lat="30.9345833" lon="-6.9580417"><ele>1137.0</ele><time>2026-04-25T08:53:49.416Z</time></trkpt><trkpt lat="30.9347" lon="-6.9582133"><ele>1136.3333333333333</ele><time>2026-04-25T08:53:50.416Z</time></trkpt><trkpt lat="30.93481" lon="-6.9583767"><ele>1135.6666666666665</ele><time>2026-04-25T08:53:51.417Z</time></trkpt><trkpt lat="30.9349117" lon="-6.9585467"><ele>1135.0</ele><time>2026-04-25T08:53:52.416Z</time></trkpt><trkpt lat="30.9350233" lon="-6.958715"><ele>1135.0</ele><time>2026-04-25T08:53:53.416Z</time></trkpt><trkpt lat="30.9351333" lon="-6.958885"><ele>1135.0</ele><time>2026-04-25T08:53:54.416Z</time></trkpt><trkpt lat="30.9352483" lon="-6.9590533"><ele>1135.0</ele><time>2026-04-25T08:53:55.416Z</time></trkpt><trkpt lat="30.9353583" lon="-6.9592217"><ele>1135.0</ele><time>2026-04-25T08:53:56.416Z</time></trkpt><trkpt lat="30.93547" lon="-6.9593967"><ele>1135.0</ele><time>2026-04-25T08:53:57.416Z</time></trkpt><trkpt lat="30.9355867" lon="-6.9595733"><ele>1135.0</ele><time>2026-04-25T08:53:58.416Z</time></trkpt><trkpt lat="30.9356967" lon="-6.9597467"><ele>1135.0</ele><time>2026-04-25T08:53:59.416Z</time></trkpt><trkpt lat="30.9358083" lon="-6.9599167"><ele>1135.0</ele><time>2026-04-25T08:54:00.416Z</time></trkpt><trkpt lat="30.9359233" lon="-6.9600933"><ele>1135.0</ele><time>2026-04-25T08:54:01.416Z</time></trkpt><trkpt lat="30.9360367" lon="-6.960265"><ele>1136.0</ele><time>2026-04-25T08:54:02.416Z</time></trkpt><trkpt lat="30.936145" lon="-6.9604317"><ele>1137.0</ele><time>2026-04-25T08:54:03.417Z</time></trkpt><trkpt lat="30.9362467" lon="-6.9605867"><ele>1138.0</ele><time>2026-04-25T08:54:04.416Z</time></trkpt><trkpt lat="30.93634" lon="-6.9607383"><ele>1138.6666666666665</ele><time>2026-04-25T08:54:05.416Z</time></trkpt><trkpt lat="30.93643" lon="-6.9608833"><ele>1139.3333333333333</ele><time>2026-04-25T08:54:06.416Z</time></trkpt><trkpt lat="30.9365233" lon="-6.961025"><ele>1140.0</ele><time>2026-04-25T08:54:07.417Z</time></trkpt><trkpt lat="30.9366117" lon="-6.9611633"><ele>1140.0</ele><time>2026-04-25T08:54:08.416Z</time></trkpt><trkpt lat="30.9366967" lon="-6.9612983"><ele>1140.0</ele><time>2026-04-25T08:54:09.416Z</time></trkpt><trkpt lat="30.936785" lon="-6.9614267"><ele>1140.0</ele><time>2026-04-25T08:54:10.416Z</time></trkpt><trkpt lat="30.9368733" lon="-6.961555"><ele>1140.0</ele><time>2026-04-25T08:54:11.416Z</time></trkpt><trkpt lat="30.9369667" lon="-6.9616867"><ele>1141.3333333333333</ele><time>2026-04-25T08:54:12.416Z</time></trkpt><trkpt lat="30.9370567" lon="-6.9618217"><ele>1142.6666666666665</ele><time>2026-04-25T08:54:13.416Z</time></trkpt><trkpt lat="30.93715" lon="-6.9619617"><ele>1144.0</ele><time>2026-04-25T08:54:14.416Z</time></trkpt><trkpt lat="30.9372417" lon="-6.96211"><ele>1144.0</ele><time>2026-04-25T08:54:15.416Z</time></trkpt><trkpt lat="30.9373367" lon="-6.9622567"><ele>1144.0</ele><time>2026-04-25T08:54:16.416Z</time></trkpt><trkpt lat="30.9374283" lon="-6.9624117"><ele>1144.0</ele><time>2026-04-25T08:54:17.416Z</time></trkpt><trkpt lat="30.937515" lon="-6.9625767"><ele>1143.6666666666665</ele><time>2026-04-25T08:54:18.416Z</time></trkpt><trkpt lat="30.937595" lon="-6.9627483"><ele>1143.3333333333333</ele><time>2026-04-25T08:54:19.416Z</time></trkpt><trkpt lat="30.9376717" lon="-6.96292"><ele>1143.0</ele><time>2026-04-25T08:54:20.416Z</time></trkpt><trkpt lat="30.9377483" lon="-6.9630933"><ele>1143.0</ele><time>2026-04-25T08:54:21.417Z</time></trkpt><trkpt lat="30.9378017" lon="-6.963265"><ele>1143.0</ele><time>2026-04-25T08:54:22.416Z</time></trkpt><trkpt lat="30.9378567" lon="-6.963425"><ele>1143.0</ele><time>2026-04-25T08:54:23.416Z</time></trkpt><trkpt lat="30.9378933" lon="-6.9635883"><ele>1143.0</ele><time>2026-04-25T08:54:24.416Z</time></trkpt><trkpt lat="30.937935" lon="-6.9637467"><ele>1143.25</ele><time>2026-04-25T08:54:25.416Z</time></trkpt><trkpt lat="30.9379733" lon="-6.96391"><ele>1143.5</ele><time>2026-04-25T08:54:26.416Z</time></trkpt><trkpt lat="30.938005" lon="-6.96408"><ele>1143.75</ele><time>2026-04-25T08:54:27.416Z</time></trkpt><trkpt lat="30.938025" lon="-6.9642483"><ele>1144.0</ele><time>2026-04-25T08:54:28.417Z</time></trkpt><trkpt lat="30.9380433" lon="-6.96441"><ele>1144.0</ele><time>2026-04-25T08:54:29.416Z</time></trkpt><trkpt lat="30.93806" lon="-6.964565"><ele>1144.0</ele><time>2026-04-25T08:54:30.416Z</time></trkpt><trkpt lat="30.9380717" lon="-6.964715"><ele>1144.0</ele><time>2026-04-25T08:54:31.416Z</time></trkpt><trkpt lat="30.9380867" lon="-6.9648483"><ele>1144.0</ele><time>2026-04-25T08:54:32.416Z</time></trkpt><trkpt lat="30.9381067" lon="-6.964975"><ele>1145.0</ele><time>2026-04-25T08:54:33.416Z</time></trkpt><trkpt lat="30.9381183" lon="-6.9651083"><ele>1146.0</ele><time>2026-04-25T08:54:34.416Z</time></trkpt><trkpt lat="30.9381333" lon="-6.965245"><ele>1147.0</ele><time>2026-04-25T08:54:35.416Z</time></trkpt><trkpt lat="30.9381517" lon="-6.96539"><ele>1148.0</ele><time>2026-04-25T08:54:36.416Z</time></trkpt><trkpt lat="30.93817" lon="-6.9655383"><ele>1148.0</ele><time>2026-04-25T08:54:37.416Z</time></trkpt><trkpt lat="30.9381883" lon="-6.96569"><ele>1148.0</ele><time>2026-04-25T08:54:38.416Z</time></trkpt><trkpt lat="30.9382017" lon="-6.9658433"><ele>1148.0</ele><time>2026-04-25T08:54:39.416Z</time></trkpt><trkpt lat="30.9382217" lon="-6.9660017"><ele>1148.0</ele><time>2026-04-25T08:54:40.416Z</time></trkpt><trkpt lat="30.938245" lon="-6.96616"><ele>1148.5</ele><time>2026-04-25T08:54:41.416Z</time></trkpt><trkpt lat="30.938265" lon="-6.9663183"><ele>1149.0</ele><time>2026-04-25T08:54:42.416Z</time></trkpt><trkpt lat="30.9382883" lon="-6.9664767"><ele>1149.5</ele><time>2026-04-25T08:54:43.416Z</time></trkpt><trkpt lat="30.9383083" lon="-6.9666417"><ele>1150.0</ele><time>2026-04-25T08:54:44.416Z</time></trkpt><trkpt lat="30.9383317" lon="-6.9668033"><ele>1150.75</ele><time>2026-04-25T08:54:45.416Z</time></trkpt><trkpt lat="30.9383517" lon="-6.9669683"><ele>1151.5</ele><time>2026-04-25T08:54:46.416Z</time></trkpt><trkpt lat="30.9383767" lon="-6.9671383"><ele>1152.25</ele><time>2026-04-25T08:54:47.416Z</time></trkpt><trkpt lat="30.9384" lon="-6.9673133"><ele>1153.0</ele><time>2026-04-25T08:54:48.416Z</time></trkpt><trkpt lat="30.9384183" lon="-6.9674917"><ele>1151.3333333333333</ele><time>2026-04-25T08:54:49.416Z</time></trkpt><trkpt lat="30.9384417" lon="-6.9676717"><ele>1149.6666666666667</ele><time>2026-04-25T08:54:50.416Z</time></trkpt><trkpt lat="30.938455" lon="-6.9678567"><ele>1148.0</ele><time>2026-04-25T08:54:51.417Z</time></trkpt><trkpt lat="30.93848" lon="-6.9680483"><ele>1148.0</ele><time>2026-04-25T08:54:52.416Z</time></trkpt><trkpt lat="30.938505" lon="-6.9682317"><ele>1148.0</ele><time>2026-04-25T08:54:53.416Z</time></trkpt><trkpt lat="30.938525" lon="-6.9684083"><ele>1148.0</ele><time>2026-04-25T08:54:54.416Z</time></trkpt><trkpt lat="30.93854" lon="-6.9685833"><ele>1149.0</ele><time>2026-04-25T08:54:55.416Z</time></trkpt><trkpt lat="30.9385617" lon="-6.968755"><ele>1150.0</ele><time>2026-04-25T08:54:56.416Z</time></trkpt><trkpt lat="30.9385867" lon="-6.96893"><ele>1151.0</ele><time>2026-04-25T08:54:57.416Z</time></trkpt><trkpt lat="30.9386117" lon="-6.96911"><ele>1151.3333333333335</ele><time>2026-04-25T08:54:58.416Z</time></trkpt><trkpt lat="30.9386333" lon="-6.9692883"><ele>1151.6666666666667</ele><time>2026-04-25T08:54:59.416Z</time></trkpt><trkpt lat="30.9386567" lon="-6.9694733"><ele>1152.0</ele><time>2026-04-25T08:55:00.416Z</time></trkpt><trkpt lat="30.9386783" lon="-6.9696617"><ele>1152.0</ele><time>2026-04-25T08:55:01.416Z</time></trkpt><trkpt lat="30.9386967" lon="-6.9698633"><ele>1152.0</ele><time>2026-04-25T08:55:02.416Z</time></trkpt><trkpt lat="30.9387167" lon="-6.9700767"><ele>1152.0</ele><time>2026-04-25T08:55:03.416Z</time></trkpt><trkpt lat="30.9387383" lon="-6.9702967"><ele>1152.6666666666667</ele><time>2026-04-25T08:55:04.416Z</time></trkpt><trkpt lat="30.9387633" lon="-6.9705367"><ele>1153.3333333333335</ele><time>2026-04-25T08:55:05.416Z</time></trkpt><trkpt lat="30.93879" lon="-6.9707867"><ele>1154.0</ele><time>2026-04-25T08:55:06.416Z</time></trkpt><trkpt lat="30.9388183" lon="-6.9710467"><ele>1155.5</ele><time>2026-04-25T08:55:07.416Z</time></trkpt><trkpt lat="30.938845" lon="-6.9713117"><ele>1157.0</ele><time>2026-04-25T08:55:08.416Z</time></trkpt><trkpt lat="30.9388733" lon="-6.9715717"><ele>1156.3333333333335</ele><time>2026-04-25T08:55:09.416Z</time></trkpt><trkpt lat="30.9389033" lon="-6.9718217"><ele>1155.6666666666667</ele><time>2026-04-25T08:55:10.416Z</time></trkpt><trkpt lat="30.9389283" lon="-6.9720517"><ele>1155.0</ele><time>2026-04-25T08:55:11.416Z</time></trkpt><trkpt lat="30.9389517" lon="-6.9722567"><ele>1155.0</ele><time>2026-04-25T08:55:12.416Z</time></trkpt><trkpt lat="30.9389717" lon="-6.9724383"><ele>1155.0</ele><time>2026-04-25T08:55:13.416Z</time></trkpt><trkpt lat="30.93899" lon="-6.9726"><ele>1155.0</ele><time>2026-04-25T08:55:14.416Z</time></trkpt><trkpt lat="30.9390117" lon="-6.972755"><ele>1155.0</ele><time>2026-04-25T08:55:15.416Z</time></trkpt><trkpt lat="30.93903" lon="-6.9729117"><ele>1155.0</ele><time>2026-04-25T08:55:16.416Z</time></trkpt><trkpt lat="30.93905" lon="-6.9730867"><ele>1155.0</ele><time>2026-04-25T08:55:17.416Z</time></trkpt><trkpt lat="30.9390667" lon="-6.973275"><ele>1155.0</ele><time>2026-04-25T08:55:18.417Z</time></trkpt><trkpt lat="30.9390833" lon="-6.973485"><ele>1155.0</ele><time>2026-04-25T08:55:19.416Z</time></trkpt><trkpt lat="30.9391117" lon="-6.97375"><ele>1155.0</ele><time>2026-04-25T08:55:20.417Z</time></trkpt><trkpt lat="30.9391467" lon="-6.974025"><ele>1155.0</ele><time>2026-04-25T08:55:21.416Z</time></trkpt><trkpt lat="30.9391817" lon="-6.9742783"><ele>1155.0</ele><time>2026-04-25T08:55:22.416Z</time></trkpt><trkpt lat="30.93921" lon="-6.9745083"><ele>1155.0</ele><time>2026-04-25T08:55:23.416Z</time></trkpt><trkpt lat="30.9392367" lon="-6.9747217"><ele>1155.0</ele><time>2026-04-25T08:55:24.416Z</time></trkpt><trkpt lat="30.9392633" lon="-6.9749267"><ele>1155.0</ele><time>2026-04-25T08:55:25.416Z</time></trkpt><trkpt lat="30.9392867" lon="-6.9751333"><ele>1155.0</ele><time>2026-04-25T08:55:26.416Z</time></trkpt><trkpt lat="30.9393117" lon="-6.9753433"><ele>1154.6666666666667</ele><time>2026-04-25T08:55:27.416Z</time></trkpt><trkpt lat="30.9393333" lon="-6.9755433"><ele>1154.3333333333335</ele><time>2026-04-25T08:55:28.416Z</time></trkpt><trkpt lat="30.9393567" lon="-6.9757267"><ele>1154.0</ele><time>2026-04-25T08:55:29.416Z</time></trkpt><trkpt lat="30.9393767" lon="-6.9759"><ele>1154.0</ele><time>2026-04-25T08:55:30.416Z</time></trkpt><trkpt lat="30.939395" lon="-6.97606"><ele>1154.0</ele><time>2026-04-25T08:55:31.417Z</time></trkpt><trkpt lat="30.93941" lon="-6.976205"><ele>1154.0</ele><time>2026-04-25T08:55:32.416Z</time></trkpt><trkpt lat="30.93943" lon="-6.9763633"><ele>1154.0</ele><time>2026-04-25T08:55:33.417Z</time></trkpt><trkpt lat="30.9394533" lon="-6.9765283"><ele>1154.25</ele><time>2026-04-25T08:55:34.416Z</time></trkpt><trkpt lat="30.9394767" lon="-6.9767"><ele>1154.5</ele><time>2026-04-25T08:55:35.416Z</time></trkpt><trkpt lat="30.9394933" lon="-6.976855"><ele>1154.75</ele><time>2026-04-25T08:55:36.416Z</time></trkpt><trkpt lat="30.9395067" lon="-6.977"><ele>1155.0</ele><time>2026-04-25T08:55:37.416Z</time></trkpt><trkpt lat="30.9395217" lon="-6.9771383"><ele>1155.0</ele><time>2026-04-25T08:55:38.416Z</time></trkpt><trkpt lat="30.9395333" lon="-6.9772667"><ele>1155.0</ele><time>2026-04-25T08:55:39.416Z</time></trkpt><trkpt lat="30.93955" lon="-6.97738"><ele>1155.0</ele><time>2026-04-25T08:55:40.416Z</time></trkpt><trkpt lat="30.939565" lon="-6.9774883"><ele>1155.0</ele><time>2026-04-25T08:55:41.416Z</time></trkpt><trkpt lat="30.9395817" lon="-6.9775967"><ele>1155.0</ele><time>2026-04-25T08:55:42.416Z</time></trkpt><trkpt lat="30.939595" lon="-6.9777067"><ele>1155.1666666666667</ele><time>2026-04-25T08:55:43.416Z</time></trkpt><trkpt lat="30.939605" lon="-6.977815"><ele>1155.3333333333333</ele><time>2026-04-25T08:55:44.416Z</time></trkpt><trkpt lat="30.93961" lon="-6.9779167"><ele>1155.5</ele><time>2026-04-25T08:55:45.416Z</time></trkpt><trkpt lat="30.9396033" lon="-6.9780083"><ele>1155.6666666666665</ele><time>2026-04-25T08:55:46.416Z</time></trkpt><trkpt lat="30.9395833" lon="-6.9780933"><ele>1155.8333333333333</ele><time>2026-04-25T08:55:47.417Z</time></trkpt><trkpt lat="30.9395533" lon="-6.9781583"><ele>1156.0</ele><time>2026-04-25T08:55:48.416Z</time></trkpt><trkpt lat="30.93947" lon="-6.9782367"><ele>1156.0</ele><time>2026-04-25T08:55:50.416Z</time></trkpt><trkpt lat="30.9393817" lon="-6.97827"><ele>1156.0</ele><time>2026-04-25T08:55:52.416Z</time></trkpt><trkpt lat="30.939305" lon="-6.9783017"><ele>1156.0</ele><time>2026-04-25T08:55:54.416Z</time></trkpt><trkpt lat="30.9392967" lon="-6.9783917"><ele>1156.0</ele><time>2026-04-25T08:55:58.416Z</time></trkpt><trkpt lat="30.9393167" lon="-6.9784967"><ele>1156.0</ele><time>2026-04-25T09:01:35.416Z</time></trkpt><trkpt lat="30.9393783" lon="-6.9785267"><ele>1156.0</ele><time>2026-04-25T09:03:23.416Z</time></trkpt><trkpt lat="30.9393833" lon="-6.9784333"><ele>1156.0</ele><time>2026-04-25T09:03:27.415Z</time></trkpt><trkpt lat="30.9393467" lon="-6.9783717"><ele>1156.0</ele><time>2026-04-25T09:03:30.415Z</time></trkpt><trkpt lat="30.9393117" lon="-6.9782967"><ele>1156.0</ele><time>2026-04-25T09:03:34.415Z</time></trkpt><trkpt lat="30.9394233" lon="-6.9782133"><ele>1156.0</ele><time>2026-04-25T09:05:37.415Z</time></trkpt><trkpt lat="30.939495" lon="-6.9781917"><ele>1156.0</ele><time>2026-04-25T09:05:39.415Z</time></trkpt><trkpt lat="30.939585" lon="-6.97818"><ele>1156.0</ele><time>2026-04-25T09:05:42.415Z</time></trkpt><trkpt lat="30.939645" lon="-6.978235"><ele>1156.0</ele><time>2026-04-25T09:05:44.415Z</time></trkpt><trkpt lat="30.9396833" lon="-6.978355"><ele>1156.0</ele><time>2026-04-25T09:05:46.415Z</time></trkpt><trkpt lat="30.939695" lon="-6.9784367"><ele>1156.0</ele><time>2026-04-25T09:05:47.415Z</time></trkpt><trkpt lat="30.9397083" lon="-6.97853"><ele>1156.0</ele><time>2026-04-25T09:05:48.416Z</time></trkpt><trkpt lat="30.9397233" lon="-6.9786267"><ele>1156.0</ele><time>2026-04-25T09:05:49.415Z</time></trkpt><trkpt lat="30.9397417" lon="-6.9787333"><ele>1156.0</ele><time>2026-04-25T09:05:50.415Z</time></trkpt><trkpt lat="30.9397567" lon="-6.978845"><ele>1156.0</ele><time>2026-04-25T09:05:51.415Z</time></trkpt><trkpt lat="30.9397733" lon="-6.9789617"><ele>1156.0</ele><time>2026-04-25T09:05:52.415Z</time></trkpt><trkpt lat="30.9397933" lon="-6.9790917"><ele>1156.0</ele><time>2026-04-25T09:05:53.415Z</time></trkpt><trkpt lat="30.9398117" lon="-6.979225"><ele>1156.0</ele><time>2026-04-25T09:05:54.415Z</time></trkpt><trkpt lat="30.9398283" lon="-6.9793683"><ele>1156.0</ele><time>2026-04-25T09:05:55.415Z</time></trkpt><trkpt lat="30.9398433" lon="-6.9795083"><ele>1156.0</ele><time>2026-04-25T09:05:56.415Z</time></trkpt><trkpt lat="30.93986" lon="-6.9796517"><ele>1156.0</ele><time>2026-04-25T09:05:57.415Z</time></trkpt><trkpt lat="30.939875" lon="-6.9798017"><ele>1156.0</ele><time>2026-04-25T09:05:58.415Z</time></trkpt><trkpt lat="30.9398917" lon="-6.979955"><ele>1157.0</ele><time>2026-04-25T09:05:59.415Z</time></trkpt><trkpt lat="30.9399133" lon="-6.9801133"><ele>1158.0</ele><time>2026-04-25T09:06:00.415Z</time></trkpt><trkpt lat="30.939935" lon="-6.98027"><ele>1159.0</ele><time>2026-04-25T09:06:01.415Z</time></trkpt><trkpt lat="30.9399567" lon="-6.980435"><ele>1160.0</ele><time>2026-04-25T09:06:02.415Z</time></trkpt><trkpt lat="30.9399767" lon="-6.9806"><ele>1160.0</ele><time>2026-04-25T09:06:03.415Z</time></trkpt><trkpt lat="30.9399917" lon="-6.9807683"><ele>1160.0</ele><time>2026-04-25T09:06:04.415Z</time></trkpt><trkpt lat="30.94001" lon="-6.9809383"><ele>1160.0</ele><time>2026-04-25T09:06:05.415Z</time></trkpt><trkpt lat="30.94003" lon="-6.9811117"><ele>1160.0</ele><time>2026-04-25T09:06:06.415Z</time></trkpt><trkpt lat="30.9400517" lon="-6.98129"><ele>1160.0</ele><time>2026-04-25T09:06:07.415Z</time></trkpt><trkpt lat="30.9400733" lon="-6.98147"><ele>1160.0</ele><time>2026-04-25T09:06:08.415Z</time></trkpt><trkpt lat="30.9400917" lon="-6.9816433"><ele>1160.0</ele><time>2026-04-25T09:06:09.415Z</time></trkpt><trkpt lat="30.9401083" lon="-6.9818167"><ele>1160.5</ele><time>2026-04-25T09:06:10.415Z</time></trkpt><trkpt lat="30.9401267" lon="-6.981985"><ele>1161.0</ele><time>2026-04-25T09:06:11.415Z</time></trkpt><trkpt lat="30.94015" lon="-6.9821567"><ele>1161.5</ele><time>2026-04-25T09:06:12.415Z</time></trkpt><trkpt lat="30.9401733" lon="-6.982335"><ele>1162.0</ele><time>2026-04-25T09:06:13.415Z</time></trkpt><trkpt lat="30.9401967" lon="-6.98251"><ele>1161.3333333333333</ele><time>2026-04-25T09:06:14.415Z</time></trkpt><trkpt lat="30.940215" lon="-6.9826917"><ele>1160.6666666666667</ele><time>2026-04-25T09:06:15.415Z</time></trkpt><trkpt lat="30.9402333" lon="-6.9828683"><ele>1160.0</ele><time>2026-04-25T09:06:16.415Z</time></trkpt><trkpt lat="30.9402567" lon="-6.983035"><ele>1160.0</ele><time>2026-04-25T09:06:17.415Z</time></trkpt><trkpt lat="30.940275" lon="-6.9831983"><ele>1160.0</ele><time>2026-04-25T09:06:18.415Z</time></trkpt><trkpt lat="30.9402983" lon="-6.983355"><ele>1160.0</ele><time>2026-04-25T09:06:19.415Z</time></trkpt><trkpt lat="30.9403217" lon="-6.9835117"><ele>1160.0</ele><time>2026-04-25T09:06:20.415Z</time></trkpt><trkpt lat="30.9403367" lon="-6.9836667"><ele>1159.75</ele><time>2026-04-25T09:06:21.415Z</time></trkpt><trkpt lat="30.940355" lon="-6.9838217"><ele>1159.5</ele><time>2026-04-25T09:06:22.415Z</time></trkpt><trkpt lat="30.9403733" lon="-6.9839733"><ele>1159.25</ele><time>2026-04-25T09:06:23.415Z</time></trkpt><trkpt lat="30.940395" lon="-6.984125"><ele>1159.0</ele><time>2026-04-25T09:06:24.415Z</time></trkpt><trkpt lat="30.94041" lon="-6.9842733"><ele>1159.0</ele><time>2026-04-25T09:06:25.415Z</time></trkpt><trkpt lat="30.940425" lon="-6.98442"><ele>1159.0</ele><time>2026-04-25T09:06:26.415Z</time></trkpt><trkpt lat="30.940445" lon="-6.9845667"><ele>1159.0</ele><time>2026-04-25T09:06:27.415Z</time></trkpt><trkpt lat="30.9404633" lon="-6.98471"><ele>1159.0</ele><time>2026-04-25T09:06:28.416Z</time></trkpt><trkpt lat="30.94048" lon="-6.9848433"><ele>1159.0</ele><time>2026-04-25T09:06:29.415Z</time></trkpt><trkpt lat="30.9404917" lon="-6.984975"><ele>1159.0</ele><time>2026-04-25T09:06:30.415Z</time></trkpt><trkpt lat="30.9405117" lon="-6.985095"><ele>1159.0</ele><time>2026-04-25T09:06:31.415Z</time></trkpt><trkpt lat="30.940535" lon="-6.98521"><ele>1159.0</ele><time>2026-04-25T09:06:32.415Z</time></trkpt><trkpt lat="30.9405733" lon="-6.9853167"><ele>1159.0</ele><time>2026-04-25T09:06:33.415Z</time></trkpt><trkpt lat="30.9406217" lon="-6.985415"><ele>1159.1666666666665</ele><time>2026-04-25T09:06:34.415Z</time></trkpt><trkpt lat="30.9406467" lon="-6.985505"><ele>1159.3333333333333</ele><time>2026-04-25T09:06:35.415Z</time></trkpt><trkpt lat="30.94066" lon="-6.9856067"><ele>1159.5</ele><time>2026-04-25T09:06:36.415Z</time></trkpt><trkpt lat="30.9406467" lon="-6.985705"><ele>1159.6666666666667</ele><time>2026-04-25T09:06:37.415Z</time></trkpt><trkpt lat="30.9406283" lon="-6.9858"><ele>1159.8333333333335</ele><time>2026-04-25T09:06:38.415Z</time></trkpt><trkpt lat="30.9406133" lon="-6.9858817"><ele>1160.0</ele><time>2026-04-25T09:06:39.415Z</time></trkpt><trkpt lat="30.9406" lon="-6.98601"><ele>1160.0</ele><time>2026-04-25T09:06:41.415Z</time></trkpt><trkpt lat="30.9405983" lon="-6.986115"><ele>1160.0</ele><time>2026-04-25T09:06:43.415Z</time></trkpt><trkpt lat="30.940605" lon="-6.986215"><ele>1160.0</ele><time>2026-04-25T09:06:45.415Z</time></trkpt><trkpt lat="30.9406183" lon="-6.98632"><ele>1160.0</ele><time>2026-04-25T09:06:47.415Z</time></trkpt><trkpt lat="30.9406317" lon="-6.9864417"><ele>1160.0</ele><time>2026-04-25T09:06:49.415Z</time></trkpt><trkpt lat="30.94065" lon="-6.98655"><ele>1160.0</ele><time>2026-04-25T09:06:51.416Z</time></trkpt><trkpt lat="30.94066" lon="-6.9866683"><ele>1160.0</ele><time>2026-04-25T09:06:53.415Z</time></trkpt><trkpt lat="30.9406717" lon="-6.986795"><ele>1160.0</ele><time>2026-04-25T09:06:55.415Z</time></trkpt><trkpt lat="30.9406917" lon="-6.9869333"><ele>1160.0</ele><time>2026-04-25T09:06:57.415Z</time></trkpt><trkpt lat="30.9407017" lon="-6.9870117"><ele>1160.0</ele><time>2026-04-25T09:06:58.415Z</time></trkpt><trkpt lat="30.94071" lon="-6.98709"><ele>1160.0</ele><time>2026-04-25T09:06:59.415Z</time></trkpt><trkpt lat="30.94072" lon="-6.9871733"><ele>1160.0</ele><time>2026-04-25T09:07:00.415Z</time></trkpt><trkpt lat="30.9407233" lon="-6.98725"><ele>1160.0</ele><time>2026-04-25T09:07:01.415Z</time></trkpt><trkpt lat="30.9407283" lon="-6.987335"><ele>1160.0</ele><time>2026-04-25T09:07:02.415Z</time></trkpt><trkpt lat="30.9407367" lon="-6.9874217"><ele>1160.0</ele><time>2026-04-25T09:07:03.415Z</time></trkpt><trkpt lat="30.9407433" lon="-6.987515"><ele>1160.0</ele><time>2026-04-25T09:07:04.415Z</time></trkpt><trkpt lat="30.940755" lon="-6.9876117"><ele>1160.4</ele><time>2026-04-25T09:07:05.415Z</time></trkpt><trkpt lat="30.94077" lon="-6.98771"><ele>1160.8</ele><time>2026-04-25T09:07:06.415Z</time></trkpt><trkpt lat="30.94078" lon="-6.987815"><ele>1161.2</ele><time>2026-04-25T09:07:07.415Z</time></trkpt><trkpt lat="30.9407933" lon="-6.987935"><ele>1161.6</ele><time>2026-04-25T09:07:08.415Z</time></trkpt><trkpt lat="30.94081" lon="-6.9880617"><ele>1162.0</ele><time>2026-04-25T09:07:09.415Z</time></trkpt><trkpt lat="30.9408217" lon="-6.9881933"><ele>1162.0</ele><time>2026-04-25T09:07:10.415Z</time></trkpt><trkpt lat="30.9408417" lon="-6.9883383"><ele>1162.0</ele><time>2026-04-25T09:07:11.415Z</time></trkpt><trkpt lat="30.940865" lon="-6.9884867"><ele>1162.0</ele><time>2026-04-25T09:07:12.415Z</time></trkpt><trkpt lat="30.940895" lon="-6.9886333"><ele>1162.0</ele><time>2026-04-25T09:07:13.415Z</time></trkpt><trkpt lat="30.9409383" lon="-6.9887717"><ele>1162.2</ele><time>2026-04-25T09:07:14.415Z</time></trkpt><trkpt lat="30.9409833" lon="-6.9888833"><ele>1162.4</ele><time>2026-04-25T09:07:15.415Z</time></trkpt><trkpt lat="30.9410383" lon="-6.9889867"><ele>1162.6</ele><time>2026-04-25T09:07:16.415Z</time></trkpt><trkpt lat="30.9410967" lon="-6.9890667"><ele>1162.8</ele><time>2026-04-25T09:07:17.415Z</time></trkpt><trkpt lat="30.9411517" lon="-6.98914"><ele>1163.0</ele><time>2026-04-25T09:07:18.415Z</time></trkpt><trkpt lat="30.9412167" lon="-6.9892017"><ele>1162.0</ele><time>2026-04-25T09:07:19.415Z</time></trkpt><trkpt lat="30.9412817" lon="-6.9892567"><ele>1161.0</ele><time>2026-04-25T09:07:20.415Z</time></trkpt><trkpt lat="30.9413433" lon="-6.989305"><ele>1160.0</ele><time>2026-04-25T09:07:21.415Z</time></trkpt><trkpt lat="30.9414117" lon="-6.9893533"><ele>1159.0</ele><time>2026-04-25T09:07:22.415Z</time></trkpt><trkpt lat="30.9414867" lon="-6.9893967"><ele>1158.0</ele><time>2026-04-25T09:07:23.415Z</time></trkpt><trkpt lat="30.941565" lon="-6.9894417"><ele>1157.0</ele><time>2026-04-25T09:07:24.415Z</time></trkpt><trkpt lat="30.9416517" lon="-6.9894933"><ele>1157.6</ele><time>2026-04-25T09:07:25.415Z</time></trkpt><trkpt lat="30.9417433" lon="-6.9895467"><ele>1158.2</ele><time>2026-04-25T09:07:26.415Z</time></trkpt><trkpt lat="30.9418433" lon="-6.9895967"><ele>1158.8</ele><time>2026-04-25T09:07:27.415Z</time></trkpt><trkpt lat="30.9419483" lon="-6.9896533"><ele>1159.4</ele><time>2026-04-25T09:07:28.415Z</time></trkpt><trkpt lat="30.9420467" lon="-6.9897167"><ele>1160.0</ele><time>2026-04-25T09:07:29.416Z</time></trkpt><trkpt lat="30.94215" lon="-6.9897817"><ele>1160.0</ele><time>2026-04-25T09:07:30.415Z</time></trkpt><trkpt lat="30.9422517" lon="-6.9898517"><ele>1160.0</ele><time>2026-04-25T09:07:31.415Z</time></trkpt><trkpt lat="30.9423467" lon="-6.9899217"><ele>1160.0</ele><time>2026-04-25T09:07:32.415Z</time></trkpt><trkpt lat="30.9424367" lon="-6.9900017"><ele>1160.0</ele><time>2026-04-25T09:07:33.415Z</time></trkpt><trkpt lat="30.9425217" lon="-6.99009"><ele>1158.8</ele><time>2026-04-25T09:07:34.415Z</time></trkpt><trkpt lat="30.942595" lon="-6.9901833"><ele>1157.6</ele><time>2026-04-25T09:07:35.415Z</time></trkpt><trkpt lat="30.94266" lon="-6.9902817"><ele>1156.4</ele><time>2026-04-25T09:07:36.415Z</time></trkpt><trkpt lat="30.9427217" lon="-6.9903833"><ele>1155.2</ele><time>2026-04-25T09:07:37.416Z</time></trkpt><trkpt lat="30.94277" lon="-6.9904783"><ele>1154.0</ele><time>2026-04-25T09:07:38.415Z</time></trkpt><trkpt lat="30.9428167" lon="-6.9905667"><ele>1154.0</ele><time>2026-04-25T09:07:39.415Z</time></trkpt><trkpt lat="30.942855" lon="-6.9906583"><ele>1154.0</ele><time>2026-04-25T09:07:40.415Z</time></trkpt><trkpt lat="30.942885" lon="-6.990745"><ele>1154.0</ele><time>2026-04-25T09:07:41.415Z</time></trkpt><trkpt lat="30.9429133" lon="-6.9908367"><ele>1154.0</ele><time>2026-04-25T09:07:42.415Z</time></trkpt><trkpt lat="30.9429383" lon="-6.9909283"><ele>1154.0</ele><time>2026-04-25T09:07:43.415Z</time></trkpt><trkpt lat="30.942965" lon="-6.9910367"><ele>1154.0</ele><time>2026-04-25T09:07:44.415Z</time></trkpt><trkpt lat="30.9429867" lon="-6.9911633"><ele>1153.75</ele><time>2026-04-25T09:07:45.415Z</time></trkpt><trkpt lat="30.9430133" lon="-6.9913"><ele>1153.5</ele><time>2026-04-25T09:07:46.415Z</time></trkpt><trkpt lat="30.9430383" lon="-6.9914467"><ele>1153.25</ele><time>2026-04-25T09:07:47.415Z</time></trkpt><trkpt lat="30.94306" lon="-6.9916017"><ele>1153.0</ele><time>2026-04-25T09:07:48.415Z</time></trkpt><trkpt lat="30.9430833" lon="-6.9917667"><ele>1153.0</ele><time>2026-04-25T09:07:49.415Z</time></trkpt><trkpt lat="30.9431033" lon="-6.9919417"><ele>1153.0</ele><time>2026-04-25T09:07:50.415Z</time></trkpt><trkpt lat="30.943125" lon="-6.9921217"><ele>1153.0</ele><time>2026-04-25T09:07:51.415Z</time></trkpt><trkpt lat="30.9431517" lon="-6.99231"><ele>1153.0</ele><time>2026-04-25T09:07:52.415Z</time></trkpt><trkpt lat="30.9431767" lon="-6.9925017"><ele>1153.0</ele><time>2026-04-25T09:07:53.415Z</time></trkpt><trkpt lat="30.9431983" lon="-6.9926883"><ele>1153.0</ele><time>2026-04-25T09:07:54.415Z</time></trkpt><trkpt lat="30.9432167" lon="-6.99286"><ele>1152.5</ele><time>2026-04-25T09:07:55.415Z</time></trkpt><trkpt lat="30.9432367" lon="-6.99303"><ele>1152.0</ele><time>2026-04-25T09:07:56.415Z</time></trkpt><trkpt lat="30.9432583" lon="-6.9931967"><ele>1151.5</ele><time>2026-04-25T09:07:57.415Z</time></trkpt><trkpt lat="30.9432817" lon="-6.9933683"><ele>1151.0</ele><time>2026-04-25T09:07:58.415Z</time></trkpt><trkpt lat="30.9433033" lon="-6.99354"><ele>1150.3333333333335</ele><time>2026-04-25T09:07:59.415Z</time></trkpt><trkpt lat="30.9433233" lon="-6.9937167"><ele>1149.6666666666667</ele><time>2026-04-25T09:08:00.415Z</time></trkpt><trkpt lat="30.9433483" lon="-6.9938967"><ele>1149.0</ele><time>2026-04-25T09:08:01.415Z</time></trkpt><trkpt lat="30.9433683" lon="-6.9940767"><ele>1149.0</ele><time>2026-04-25T09:08:02.415Z</time></trkpt><trkpt lat="30.9433883" lon="-6.99426"><ele>1149.0</ele><time>2026-04-25T09:08:03.415Z</time></trkpt><trkpt lat="30.943415" lon="-6.9944433"><ele>1149.0</ele><time>2026-04-25T09:08:04.415Z</time></trkpt><trkpt lat="30.9434417" lon="-6.99463"><ele>1149.0</ele><time>2026-04-25T09:08:05.415Z</time></trkpt><trkpt lat="30.9434667" lon="-6.9948217"><ele>1149.0</ele><time>2026-04-25T09:08:06.415Z</time></trkpt><trkpt lat="30.9434967" lon="-6.9950183"><ele>1149.0</ele><time>2026-04-25T09:08:07.415Z</time></trkpt><trkpt lat="30.943515" lon="-6.9952133"><ele>1149.3333333333333</ele><time>2026-04-25T09:08:08.415Z</time></trkpt><trkpt lat="30.9435417" lon="-6.9954117"><ele>1149.6666666666665</ele><time>2026-04-25T09:08:09.415Z</time></trkpt><trkpt lat="30.9435683" lon="-6.9956083"><ele>1150.0</ele><time>2026-04-25T09:08:10.415Z</time></trkpt><trkpt lat="30.9435917" lon="-6.9958033"><ele>1152.0</ele><time>2026-04-25T09:08:11.415Z</time></trkpt><trkpt lat="30.943615" lon="-6.9960033"><ele>1154.0</ele><time>2026-04-25T09:08:12.415Z</time></trkpt><trkpt lat="30.9436383" lon="-6.996205"><ele>1156.0</ele><time>2026-04-25T09:08:13.415Z</time></trkpt><trkpt lat="30.94366" lon="-6.9964017"><ele>1156.0</ele><time>2026-04-25T09:08:14.415Z</time></trkpt><trkpt lat="30.9436767" lon="-6.9965933"><ele>1156.0</ele><time>2026-04-25T09:08:15.415Z</time></trkpt><trkpt lat="30.9436967" lon="-6.9967917"><ele>1156.0</ele><time>2026-04-25T09:08:16.415Z</time></trkpt><trkpt lat="30.94371" lon="-6.99698"><ele>1157.0</ele><time>2026-04-25T09:08:17.415Z</time></trkpt><trkpt lat="30.9437233" lon="-6.9971633"><ele>1158.0</ele><time>2026-04-25T09:08:18.415Z</time></trkpt><trkpt lat="30.9437317" lon="-6.997345"><ele>1159.0</ele><time>2026-04-25T09:08:19.415Z</time></trkpt><trkpt lat="30.9437433" lon="-6.9975233"><ele>1159.6666666666665</ele><time>2026-04-25T09:08:20.415Z</time></trkpt><trkpt lat="30.9437517" lon="-6.9977033"><ele>1160.3333333333333</ele><time>2026-04-25T09:08:21.415Z</time></trkpt><trkpt lat="30.9437617" lon="-6.99789"><ele>1161.0</ele><time>2026-04-25T09:08:22.415Z</time></trkpt><trkpt lat="30.9437733" lon="-6.9980667"><ele>1161.0</ele><time>2026-04-25T09:08:23.415Z</time></trkpt><trkpt lat="30.94378" lon="-6.998245"><ele>1161.0</ele><time>2026-04-25T09:08:24.415Z</time></trkpt><trkpt lat="30.94379" lon="-6.9984267"><ele>1161.0</ele><time>2026-04-25T09:08:25.415Z</time></trkpt><trkpt lat="30.943795" lon="-6.9986117"><ele>1162.0</ele><time>2026-04-25T09:08:26.415Z</time></trkpt><trkpt lat="30.943805" lon="-6.9988"><ele>1163.0</ele><time>2026-04-25T09:08:27.415Z</time></trkpt><trkpt lat="30.943815" lon="-6.9989867"><ele>1164.0</ele><time>2026-04-25T09:08:28.415Z</time></trkpt><trkpt lat="30.9438233" lon="-6.9991733"><ele>1164.3333333333333</ele><time>2026-04-25T09:08:29.415Z</time></trkpt><trkpt lat="30.9438383" lon="-6.999365"><ele>1164.6666666666665</ele><time>2026-04-25T09:08:30.415Z</time></trkpt><trkpt lat="30.943845" lon="-6.9995567"><ele>1165.0</ele><time>2026-04-25T09:08:31.415Z</time></trkpt><trkpt lat="30.9438517" lon="-6.99975"><ele>1165.0</ele><time>2026-04-25T09:08:32.415Z</time></trkpt><trkpt lat="30.9438583" lon="-6.99995"><ele>1165.0</ele><time>2026-04-25T09:08:33.415Z</time></trkpt><trkpt lat="30.94387" lon="-7.0001533"><ele>1165.0</ele><time>2026-04-25T09:08:34.415Z</time></trkpt><trkpt lat="30.943875" lon="-7.0003567"><ele>1165.0</ele><time>2026-04-25T09:08:35.415Z</time></trkpt><trkpt lat="30.94388" lon="-7.000565"><ele>1165.0</ele><time>2026-04-25T09:08:36.415Z</time></trkpt><trkpt lat="30.943885" lon="-7.0007717"><ele>1165.0</ele><time>2026-04-25T09:08:37.415Z</time></trkpt><trkpt lat="30.9438933" lon="-7.000975"><ele>1164.6666666666665</ele><time>2026-04-25T09:08:38.415Z</time></trkpt><trkpt lat="30.9439067" lon="-7.0011767"><ele>1164.3333333333333</ele><time>2026-04-25T09:08:39.415Z</time></trkpt><trkpt lat="30.9439217" lon="-7.0013767"><ele>1164.0</ele><time>2026-04-25T09:08:40.415Z</time></trkpt><trkpt lat="30.9439283" lon="-7.001585"><ele>1163.6666666666667</ele><time>2026-04-25T09:08:41.415Z</time></trkpt><trkpt lat="30.9439467" lon="-7.0017917"><ele>1163.3333333333335</ele><time>2026-04-25T09:08:42.415Z</time></trkpt><trkpt lat="30.9439533" lon="-7.0019933"><ele>1163.0</ele><time>2026-04-25T09:08:43.415Z</time></trkpt><trkpt lat="30.9439617" lon="-7.0021883"><ele>1163.0</ele><time>2026-04-25T09:08:44.416Z</time></trkpt><trkpt lat="30.94397" lon="-7.0023817"><ele>1163.0</ele><time>2026-04-25T09:08:45.415Z</time></trkpt><trkpt lat="30.9439833" lon="-7.0025783"><ele>1163.0</ele><time>2026-04-25T09:08:46.415Z</time></trkpt><trkpt lat="30.944005" lon="-7.0027767"><ele>1162.6666666666667</ele><time>2026-04-25T09:08:47.415Z</time></trkpt><trkpt lat="30.9440317" lon="-7.0029733"><ele>1162.3333333333333</ele><time>2026-04-25T09:08:48.415Z</time></trkpt><trkpt lat="30.9440617" lon="-7.0031683"><ele>1162.0</ele><time>2026-04-25T09:08:49.415Z</time></trkpt><trkpt lat="30.94409" lon="-7.0033633"><ele>1161.3333333333333</ele><time>2026-04-25T09:08:50.415Z</time></trkpt><trkpt lat="30.9441283" lon="-7.0035567"><ele>1160.6666666666667</ele><time>2026-04-25T09:08:51.415Z</time></trkpt><trkpt lat="30.9441767" lon="-7.0037567"><ele>1160.0</ele><time>2026-04-25T09:08:52.415Z</time></trkpt><trkpt lat="30.94423" lon="-7.00395"><ele>1162.0</ele><time>2026-04-25T09:08:53.415Z</time></trkpt><trkpt lat="30.9442817" lon="-7.0041333"><ele>1164.0</ele><time>2026-04-25T09:08:54.415Z</time></trkpt><trkpt lat="30.9443383" lon="-7.0043217"><ele>1166.0</ele><time>2026-04-25T09:08:55.415Z</time></trkpt><trkpt lat="30.9444017" lon="-7.0045067"><ele>1166.3333333333335</ele><time>2026-04-25T09:08:56.415Z</time></trkpt><trkpt lat="30.9444667" lon="-7.00469"><ele>1166.6666666666667</ele><time>2026-04-25T09:08:57.415Z</time></trkpt><trkpt lat="30.9445283" lon="-7.0048717"><ele>1167.0</ele><time>2026-04-25T09:08:58.415Z</time></trkpt><trkpt lat="30.9445917" lon="-7.005045"><ele>1165.6666666666667</ele><time>2026-04-25T09:08:59.415Z</time></trkpt><trkpt lat="30.9446533" lon="-7.0052233"><ele>1164.3333333333335</ele><time>2026-04-25T09:09:00.415Z</time></trkpt><trkpt lat="30.9447217" lon="-7.0054067"><ele>1163.0</ele><time>2026-04-25T09:09:01.415Z</time></trkpt><trkpt lat="30.9447867" lon="-7.005585"><ele>1163.0</ele><time>2026-04-25T09:09:02.415Z</time></trkpt><trkpt lat="30.944855" lon="-7.0057717"><ele>1163.0</ele><time>2026-04-25T09:09:03.415Z</time></trkpt><trkpt lat="30.9449167" lon="-7.00596"><ele>1163.0</ele><time>2026-04-25T09:09:04.415Z</time></trkpt><trkpt lat="30.944985" lon="-7.00615"><ele>1162.6666666666667</ele><time>2026-04-25T09:09:05.415Z</time></trkpt><trkpt lat="30.9450517" lon="-7.0063317"><ele>1162.3333333333333</ele><time>2026-04-25T09:09:06.416Z</time></trkpt><trkpt lat="30.94512" lon="-7.006525"><ele>1162.0</ele><time>2026-04-25T09:09:07.415Z</time></trkpt><trkpt lat="30.9451867" lon="-7.006725"><ele>1162.0</ele><time>2026-04-25T09:09:08.415Z</time></trkpt><trkpt lat="30.9452517" lon="-7.006925"><ele>1162.0</ele><time>2026-04-25T09:09:09.415Z</time></trkpt><trkpt lat="30.9453167" lon="-7.00713"><ele>1162.0</ele><time>2026-04-25T09:09:10.415Z</time></trkpt><trkpt lat="30.94539" lon="-7.0073367"><ele>1162.0</ele><time>2026-04-25T09:09:11.415Z</time></trkpt><trkpt lat="30.9454617" lon="-7.0075483"><ele>1162.0</ele><time>2026-04-25T09:09:12.415Z</time></trkpt><trkpt lat="30.9455417" lon="-7.0077633"><ele>1162.0</ele><time>2026-04-25T09:09:13.415Z</time></trkpt><trkpt lat="30.945615" lon="-7.0079783"><ele>1162.0</ele><time>2026-04-25T09:09:14.415Z</time></trkpt><trkpt lat="30.9456967" lon="-7.0082017"><ele>1162.0</ele><time>2026-04-25T09:09:15.415Z</time></trkpt><trkpt lat="30.9457717" lon="-7.0084317"><ele>1162.0</ele><time>2026-04-25T09:09:16.415Z</time></trkpt><trkpt lat="30.9458517" lon="-7.0086533"><ele>1162.6666666666665</ele><time>2026-04-25T09:09:17.415Z</time></trkpt><trkpt lat="30.945925" lon="-7.00887"><ele>1163.3333333333333</ele><time>2026-04-25T09:09:18.415Z</time></trkpt><trkpt lat="30.9459983" lon="-7.0090783"><ele>1164.0</ele><time>2026-04-25T09:09:19.415Z</time></trkpt><trkpt lat="30.9460733" lon="-7.0092967"><ele>1164.0</ele><time>2026-04-25T09:09:20.415Z</time></trkpt><trkpt lat="30.94615" lon="-7.0095133"><ele>1164.0</ele><time>2026-04-25T09:09:21.415Z</time></trkpt><trkpt lat="30.946225" lon="-7.0097333"><ele>1164.0</ele><time>2026-04-25T09:09:22.415Z</time></trkpt><trkpt lat="30.9463067" lon="-7.0099567"><ele>1164.6666666666667</ele><time>2026-04-25T09:09:23.415Z</time></trkpt><trkpt lat="30.9463817" lon="-7.0101767"><ele>1165.3333333333335</ele><time>2026-04-25T09:09:24.415Z</time></trkpt><trkpt lat="30.9464467" lon="-7.0103983"><ele>1166.0</ele><time>2026-04-25T09:09:25.415Z</time></trkpt><trkpt lat="30.946505" lon="-7.010625"><ele>1166.3333333333335</ele><time>2026-04-25T09:09:26.415Z</time></trkpt><trkpt lat="30.9465517" lon="-7.0108583"><ele>1166.6666666666667</ele><time>2026-04-25T09:09:27.415Z</time></trkpt><trkpt lat="30.9465883" lon="-7.0110933"><ele>1167.0</ele><time>2026-04-25T09:09:28.415Z</time></trkpt><trkpt lat="30.946615" lon="-7.0113367"><ele>1167.0</ele><time>2026-04-25T09:09:29.415Z</time></trkpt><trkpt lat="30.9466333" lon="-7.0115917"><ele>1167.0</ele><time>2026-04-25T09:09:30.415Z</time></trkpt><trkpt lat="30.9466383" lon="-7.01185"><ele>1167.0</ele><time>2026-04-25T09:09:31.415Z</time></trkpt><trkpt lat="30.9466567" lon="-7.0121083"><ele>1168.3333333333333</ele><time>2026-04-25T09:09:32.415Z</time></trkpt><trkpt lat="30.9466817" lon="-7.0123683"><ele>1169.6666666666665</ele><time>2026-04-25T09:09:33.415Z</time></trkpt><trkpt lat="30.9467117" lon="-7.012615"><ele>1171.0</ele><time>2026-04-25T09:09:34.415Z</time></trkpt><trkpt lat="30.946735" lon="-7.012845"><ele>1171.3333333333333</ele><time>2026-04-25T09:09:35.415Z</time></trkpt><trkpt lat="30.9467417" lon="-7.0130717"><ele>1171.6666666666667</ele><time>2026-04-25T09:09:36.415Z</time></trkpt><trkpt lat="30.946745" lon="-7.0132917"><ele>1172.0</ele><time>2026-04-25T09:09:37.416Z</time></trkpt><trkpt lat="30.946755" lon="-7.0135083"><ele>1173.3333333333335</ele><time>2026-04-25T09:09:38.415Z</time></trkpt><trkpt lat="30.9467717" lon="-7.013715"><ele>1174.6666666666667</ele><time>2026-04-25T09:09:39.415Z</time></trkpt><trkpt lat="30.9467833" lon="-7.0139017"><ele>1176.0</ele><time>2026-04-25T09:09:40.415Z</time></trkpt><trkpt lat="30.9467967" lon="-7.0140667"><ele>1176.8</ele><time>2026-04-25T09:09:41.415Z</time></trkpt><trkpt lat="30.94681" lon="-7.0142117"><ele>1177.6</ele><time>2026-04-25T09:09:42.416Z</time></trkpt><trkpt lat="30.9468217" lon="-7.0143367"><ele>1178.4</ele><time>2026-04-25T09:09:43.415Z</time></trkpt><trkpt lat="30.94683" lon="-7.0144517"><ele>1179.2</ele><time>2026-04-25T09:09:44.415Z</time></trkpt><trkpt lat="30.94683" lon="-7.0145583"><ele>1180.0</ele><time>2026-04-25T09:09:45.415Z</time></trkpt><trkpt lat="30.946835" lon="-7.0146683"><ele>1180.0</ele><time>2026-04-25T09:09:46.415Z</time></trkpt><trkpt lat="30.94684" lon="-7.0147817"><ele>1180.0</ele><time>2026-04-25T09:09:47.415Z</time></trkpt><trkpt lat="30.946845" lon="-7.0149"><ele>1180.0</ele><time>2026-04-25T09:09:48.415Z</time></trkpt><trkpt lat="30.9468583" lon="-7.01503"><ele>1180.0</ele><time>2026-04-25T09:09:49.415Z</time></trkpt><trkpt lat="30.946865" lon="-7.0151717"><ele>1180.0</ele><time>2026-04-25T09:09:50.415Z</time></trkpt><trkpt lat="30.946875" lon="-7.0153233"><ele>1180.3333333333333</ele><time>2026-04-25T09:09:51.415Z</time></trkpt><trkpt lat="30.9468833" lon="-7.01549"><ele>1180.6666666666667</ele><time>2026-04-25T09:09:52.415Z</time></trkpt><trkpt lat="30.94689" lon="-7.0156767"><ele>1181.0</ele><time>2026-04-25T09:09:53.415Z</time></trkpt><trkpt lat="30.9468983" lon="-7.0158833"><ele>1181.0</ele><time>2026-04-25T09:09:54.415Z</time></trkpt><trkpt lat="30.9469133" lon="-7.0161083"><ele>1181.0</ele><time>2026-04-25T09:09:55.416Z</time></trkpt><trkpt lat="30.9469333" lon="-7.016355"><ele>1181.0</ele><time>2026-04-25T09:09:56.415Z</time></trkpt><trkpt lat="30.9469483" lon="-7.016615"><ele>1182.5</ele><time>2026-04-25T09:09:57.415Z</time></trkpt><trkpt lat="30.9469683" lon="-7.0168867"><ele>1184.0</ele><time>2026-04-25T09:09:58.415Z</time></trkpt><trkpt lat="30.9469867" lon="-7.0171833"><ele>1184.5</ele><time>2026-04-25T09:09:59.415Z</time></trkpt><trkpt lat="30.9470067" lon="-7.0175033"><ele>1185.0</ele><time>2026-04-25T09:10:00.415Z</time></trkpt><trkpt lat="30.9470217" lon="-7.0178133"><ele>1185.0</ele><time>2026-04-25T09:10:01.415Z</time></trkpt><trkpt lat="30.947045" lon="-7.0181133"><ele>1185.0</ele><time>2026-04-25T09:10:02.415Z</time></trkpt><trkpt lat="30.9470667" lon="-7.018405"><ele>1185.5</ele><time>2026-04-25T09:10:03.415Z</time></trkpt><trkpt lat="30.947095" lon="-7.0186983"><ele>1186.0</ele><time>2026-04-25T09:10:04.415Z</time></trkpt><trkpt lat="30.9471217" lon="-7.0189917"><ele>1186.5</ele><time>2026-04-25T09:10:05.415Z</time></trkpt><trkpt lat="30.947145" lon="-7.0192817"><ele>1187.0</ele><time>2026-04-25T09:10:06.415Z</time></trkpt><trkpt lat="30.9471633" lon="-7.0195783"><ele>1187.0</ele><time>2026-04-25T09:10:07.415Z</time></trkpt><trkpt lat="30.94718" lon="-7.0198733"><ele>1187.0</ele><time>2026-04-25T09:10:08.415Z</time></trkpt><trkpt lat="30.9471967" lon="-7.0201717"><ele>1188.0</ele><time>2026-04-25T09:10:09.415Z</time></trkpt><trkpt lat="30.9472133" lon="-7.020475"><ele>1189.0</ele><time>2026-04-25T09:10:10.415Z</time></trkpt><trkpt lat="30.947235" lon="-7.02078"><ele>1189.0</ele><time>2026-04-25T09:10:11.415Z</time></trkpt><trkpt lat="30.9472567" lon="-7.0210883"><ele>1189.0</ele><time>2026-04-25T09:10:12.415Z</time></trkpt><trkpt lat="30.9472817" lon="-7.0214"><ele>1189.5</ele><time>2026-04-25T09:10:13.415Z</time></trkpt><trkpt lat="30.9472983" lon="-7.0217117"><ele>1190.0</ele><time>2026-04-25T09:10:14.415Z</time></trkpt><trkpt lat="30.947315" lon="-7.0220267"><ele>1190.0</ele><time>2026-04-25T09:10:15.415Z</time></trkpt><trkpt lat="30.9473317" lon="-7.022345"><ele>1190.0</ele><time>2026-04-25T09:10:16.415Z</time></trkpt><trkpt lat="30.947355" lon="-7.02266"><ele>1189.5</ele><time>2026-04-25T09:10:17.415Z</time></trkpt><trkpt lat="30.947375" lon="-7.0229767"><ele>1189.0</ele><time>2026-04-25T09:10:18.415Z</time></trkpt><trkpt lat="30.9473967" lon="-7.023295"><ele>1189.5</ele><time>2026-04-25T09:10:19.415Z</time></trkpt><trkpt lat="30.9474167" lon="-7.0236133"><ele>1190.0</ele><time>2026-04-25T09:10:20.415Z</time></trkpt><trkpt lat="30.9474367" lon="-7.0239367"><ele>1190.0</ele><time>2026-04-25T09:10:21.415Z</time></trkpt><trkpt lat="30.9474567" lon="-7.0242667"><ele>1190.0</ele><time>2026-04-25T09:10:22.415Z</time></trkpt><trkpt lat="30.94748" lon="-7.024595"><ele>1190.0</ele><time>2026-04-25T09:10:23.415Z</time></trkpt><trkpt lat="30.9475033" lon="-7.0249183"><ele>1190.0</ele><time>2026-04-25T09:10:24.415Z</time></trkpt><trkpt lat="30.9475283" lon="-7.0252467"><ele>1190.5</ele><time>2026-04-25T09:10:25.415Z</time></trkpt><trkpt lat="30.94755" lon="-7.0255633"><ele>1191.0</ele><time>2026-04-25T09:10:26.415Z</time></trkpt><trkpt lat="30.9475717" lon="-7.02587"><ele>1191.0</ele><time>2026-04-25T09:10:27.415Z</time></trkpt><trkpt lat="30.9475917" lon="-7.02617"><ele>1191.0</ele><time>2026-04-25T09:10:28.415Z</time></trkpt><trkpt lat="30.9476117" lon="-7.0264717"><ele>1193.5</ele><time>2026-04-25T09:10:29.415Z</time></trkpt><trkpt lat="30.9476267" lon="-7.026765"><ele>1196.0</ele><time>2026-04-25T09:10:30.415Z</time></trkpt><trkpt lat="30.9476467" lon="-7.027055"><ele>1196.0</ele><time>2026-04-25T09:10:31.415Z</time></trkpt><trkpt lat="30.9476667" lon="-7.02735"><ele>1196.0</ele><time>2026-04-25T09:10:32.415Z</time></trkpt><trkpt lat="30.947685" lon="-7.0276417"><ele>1197.5</ele><time>2026-04-25T09:10:33.415Z</time></trkpt><trkpt lat="30.9477067" lon="-7.0279383"><ele>1199.0</ele><time>2026-04-25T09:10:34.415Z</time></trkpt><trkpt lat="30.9477217" lon="-7.02824"><ele>1199.5</ele><time>2026-04-25T09:10:35.415Z</time></trkpt><trkpt lat="30.94774" lon="-7.028545"><ele>1200.0</ele><time>2026-04-25T09:10:36.415Z</time></trkpt><trkpt lat="30.9477567" lon="-7.028855"><ele>1198.0</ele><time>2026-04-25T09:10:37.415Z</time></trkpt><trkpt lat="30.9477767" lon="-7.0291667"><ele>1196.0</ele><time>2026-04-25T09:10:38.415Z</time></trkpt><trkpt lat="30.9477967" lon="-7.0294717"><ele>1196.0</ele><time>2026-04-25T09:10:39.415Z</time></trkpt><trkpt lat="30.9478167" lon="-7.0297867"><ele>1196.0</ele><time>2026-04-25T09:10:40.416Z</time></trkpt><trkpt lat="30.94784" lon="-7.0300983"><ele>1196.0</ele><time>2026-04-25T09:10:41.416Z</time></trkpt><trkpt lat="30.9478617" lon="-7.0304067"><ele>1196.0</ele><time>2026-04-25T09:10:42.415Z</time></trkpt><trkpt lat="30.947885" lon="-7.0307117"><ele>1197.0</ele><time>2026-04-25T09:10:43.415Z</time></trkpt><trkpt lat="30.94791" lon="-7.031015"><ele>1198.0</ele><time>2026-04-25T09:10:44.415Z</time></trkpt><trkpt lat="30.9479267" lon="-7.031315"><ele>1198.0</ele><time>2026-04-25T09:10:45.416Z</time></trkpt><trkpt lat="30.9479467" lon="-7.0315983"><ele>1198.0</ele><time>2026-04-25T09:10:46.415Z</time></trkpt><trkpt lat="30.9479633" lon="-7.0318567"><ele>1198.6666666666665</ele><time>2026-04-25T09:10:47.415Z</time></trkpt><trkpt lat="30.9479783" lon="-7.0321017"><ele>1199.3333333333333</ele><time>2026-04-25T09:10:48.415Z</time></trkpt><trkpt lat="30.94799" lon="-7.032335"><ele>1200.0</ele><time>2026-04-25T09:10:49.415Z</time></trkpt><trkpt lat="30.948" lon="-7.032565"><ele>1200.3333333333333</ele><time>2026-04-25T09:10:50.415Z</time></trkpt><trkpt lat="30.948015" lon="-7.0327867"><ele>1200.6666666666665</ele><time>2026-04-25T09:10:51.415Z</time></trkpt><trkpt lat="30.94803" lon="-7.0330083"><ele>1201.0</ele><time>2026-04-25T09:10:52.415Z</time></trkpt><trkpt lat="30.9480417" lon="-7.0332267"><ele>1202.0</ele><time>2026-04-25T09:10:53.415Z</time></trkpt><trkpt lat="30.948055" lon="-7.0334417"><ele>1203.0</ele><time>2026-04-25T09:10:54.415Z</time></trkpt><trkpt lat="30.94807" lon="-7.03365"><ele>1204.0</ele><time>2026-04-25T09:10:55.415Z</time></trkpt><trkpt lat="30.94809" lon="-7.0338483"><ele>1204.0</ele><time>2026-04-25T09:10:56.415Z</time></trkpt><trkpt lat="30.9481167" lon="-7.0340367"><ele>1204.0</ele><time>2026-04-25T09:10:57.415Z</time></trkpt><trkpt lat="30.9481483" lon="-7.03423"><ele>1204.0</ele><time>2026-04-25T09:10:58.415Z</time></trkpt><trkpt lat="30.9481833" lon="-7.0344217"><ele>1204.6666666666665</ele><time>2026-04-25T09:10:59.415Z</time></trkpt><trkpt lat="30.948225" lon="-7.0346017"><ele>1205.3333333333333</ele><time>2026-04-25T09:11:00.415Z</time></trkpt><trkpt lat="30.94827" lon="-7.03478"><ele>1206.0</ele><time>2026-04-25T09:11:01.415Z</time></trkpt><trkpt lat="30.9483233" lon="-7.034955"><ele>1207.0</ele><time>2026-04-25T09:11:02.415Z</time></trkpt><trkpt lat="30.94839" lon="-7.035125"><ele>1208.0</ele><time>2026-04-25T09:11:03.415Z</time></trkpt><trkpt lat="30.948455" lon="-7.0352817"><ele>1209.0</ele><time>2026-04-25T09:11:04.415Z</time></trkpt><trkpt lat="30.94852" lon="-7.0354383"><ele>1209.0</ele><time>2026-04-25T09:11:05.415Z</time></trkpt><trkpt lat="30.9485917" lon="-7.0355917"><ele>1209.0</ele><time>2026-04-25T09:11:06.416Z</time></trkpt><trkpt lat="30.9486733" lon="-7.0357517"><ele>1209.0</ele><time>2026-04-25T09:11:07.415Z</time></trkpt><trkpt lat="30.9487567" lon="-7.035925"><ele>1208.6666666666667</ele><time>2026-04-25T09:11:08.415Z</time></trkpt><trkpt lat="30.9488367" lon="-7.0361117"><ele>1208.3333333333335</ele><time>2026-04-25T09:11:09.415Z</time></trkpt><trkpt lat="30.9489233" lon="-7.0363067"><ele>1208.0</ele><time>2026-04-25T09:11:10.415Z</time></trkpt><trkpt lat="30.9490217" lon="-7.0365133"><ele>1208.6666666666667</ele><time>2026-04-25T09:11:11.415Z</time></trkpt><trkpt lat="30.9491217" lon="-7.0367283"><ele>1209.3333333333333</ele><time>2026-04-25T09:11:12.415Z</time></trkpt><trkpt lat="30.9492433" lon="-7.0369467"><ele>1210.0</ele><time>2026-04-25T09:11:13.415Z</time></trkpt><trkpt lat="30.9493717" lon="-7.0371567"><ele>1210.0</ele><time>2026-04-25T09:11:14.415Z</time></trkpt><trkpt lat="30.9494917" lon="-7.037355"><ele>1210.0</ele><time>2026-04-25T09:11:15.415Z</time></trkpt><trkpt lat="30.9496067" lon="-7.037545"><ele>1210.0</ele><time>2026-04-25T09:11:16.415Z</time></trkpt><trkpt lat="30.9497217" lon="-7.0377233"><ele>1209.3333333333333</ele><time>2026-04-25T09:11:17.415Z</time></trkpt><trkpt lat="30.94984" lon="-7.0379017"><ele>1208.6666666666667</ele><time>2026-04-25T09:11:18.415Z</time></trkpt><trkpt lat="30.9499667" lon="-7.0380833"><ele>1208.0</ele><time>2026-04-25T09:11:19.415Z</time></trkpt><trkpt lat="30.9501083" lon="-7.038265"><ele>1207.0</ele><time>2026-04-25T09:11:20.415Z</time></trkpt><trkpt lat="30.9502583" lon="-7.0384467"><ele>1206.0</ele><time>2026-04-25T09:11:21.415Z</time></trkpt><trkpt lat="30.950415" lon="-7.0386333"><ele>1205.0</ele><time>2026-04-25T09:11:22.415Z</time></trkpt><trkpt lat="30.9505833" lon="-7.0388217"><ele>1205.0</ele><time>2026-04-25T09:11:23.415Z</time></trkpt><trkpt lat="30.9507467" lon="-7.0389967"><ele>1205.0</ele><time>2026-04-25T09:11:24.415Z</time></trkpt><trkpt lat="30.9509017" lon="-7.03916"><ele>1205.0</ele><time>2026-04-25T09:11:25.415Z</time></trkpt><trkpt lat="30.9510567" lon="-7.0393233"><ele>1203.6666666666667</ele><time>2026-04-25T09:11:26.415Z</time></trkpt><trkpt lat="30.951205" lon="-7.0394867"><ele>1202.3333333333333</ele><time>2026-04-25T09:11:27.415Z</time></trkpt><trkpt lat="30.9513583" lon="-7.0396517"><ele>1201.0</ele><time>2026-04-25T09:11:28.415Z</time></trkpt><trkpt lat="30.9514933" lon="-7.0398133"><ele>1200.0</ele><time>2026-04-25T09:11:29.415Z</time></trkpt><trkpt lat="30.9516317" lon="-7.0399833"><ele>1199.0</ele><time>2026-04-25T09:11:30.415Z</time></trkpt><trkpt lat="30.9517867" lon="-7.0401583"><ele>1198.0</ele><time>2026-04-25T09:11:31.415Z</time></trkpt><trkpt lat="30.9519367" lon="-7.040335"><ele>1197.6666666666665</ele><time>2026-04-25T09:11:32.415Z</time></trkpt><trkpt lat="30.9520933" lon="-7.0405067"><ele>1197.3333333333333</ele><time>2026-04-25T09:11:33.415Z</time></trkpt><trkpt lat="30.9522483" lon="-7.0406867"><ele>1197.0</ele><time>2026-04-25T09:11:34.416Z</time></trkpt><trkpt lat="30.9524033" lon="-7.0408667"><ele>1198.3333333333333</ele><time>2026-04-25T09:11:35.415Z</time></trkpt><trkpt lat="30.9525583" lon="-7.0410417"><ele>1199.6666666666665</ele><time>2026-04-25T09:11:36.415Z</time></trkpt><trkpt lat="30.952715" lon="-7.041215"><ele>1201.0</ele><time>2026-04-25T09:11:37.415Z</time></trkpt><trkpt lat="30.9528667" lon="-7.0413817"><ele>1201.0</ele><time>2026-04-25T09:11:38.415Z</time></trkpt><trkpt lat="30.95302" lon="-7.0415517"><ele>1201.0</ele><time>2026-04-25T09:11:39.415Z</time></trkpt><trkpt lat="30.95317" lon="-7.0417267"><ele>1201.0</ele><time>2026-04-25T09:11:40.415Z</time></trkpt><trkpt lat="30.95332" lon="-7.0419"><ele>1204.6666666666665</ele><time>2026-04-25T09:11:41.415Z</time></trkpt><trkpt lat="30.95347" lon="-7.0420767"><ele>1208.3333333333333</ele><time>2026-04-25T09:11:42.415Z</time></trkpt><trkpt lat="30.9536167" lon="-7.0422583"><ele>1212.0</ele><time>2026-04-25T09:11:43.415Z</time></trkpt><trkpt lat="30.9537717" lon="-7.0424367"><ele>1211.5</ele><time>2026-04-25T09:11:44.415Z</time></trkpt><trkpt lat="30.953935" lon="-7.0426167"><ele>1211.0</ele><time>2026-04-25T09:11:45.415Z</time></trkpt><trkpt lat="30.9541033" lon="-7.0427933"><ele>1214.5</ele><time>2026-04-25T09:11:46.415Z</time></trkpt><trkpt lat="30.9542817" lon="-7.04296"><ele>1218.0</ele><time>2026-04-25T09:11:47.415Z</time></trkpt><trkpt lat="30.9544717" lon="-7.0431167"><ele>1218.0</ele><time>2026-04-25T09:11:48.415Z</time></trkpt><trkpt lat="30.95467" lon="-7.043265"><ele>1218.0</ele><time>2026-04-25T09:11:49.415Z</time></trkpt><trkpt lat="30.9548683" lon="-7.0434017"><ele>1214.6666666666667</ele><time>2026-04-25T09:11:50.415Z</time></trkpt><trkpt lat="30.9550683" lon="-7.043535"><ele>1211.3333333333335</ele><time>2026-04-25T09:11:51.415Z</time></trkpt><trkpt lat="30.9552583" lon="-7.0436567"><ele>1208.0</ele><time>2026-04-25T09:11:52.415Z</time></trkpt><trkpt lat="30.9554467" lon="-7.04377"><ele>1208.0</ele><time>2026-04-25T09:11:53.415Z</time></trkpt><trkpt lat="30.9556383" lon="-7.0438883"><ele>1208.0</ele><time>2026-04-25T09:11:54.415Z</time></trkpt><trkpt lat="30.9558283" lon="-7.0440167"><ele>1208.0</ele><time>2026-04-25T09:11:55.415Z</time></trkpt><trkpt lat="30.95603" lon="-7.04414"><ele>1207.0</ele><time>2026-04-25T09:11:56.415Z</time></trkpt><trkpt lat="30.9562233" lon="-7.0442733"><ele>1206.0</ele><time>2026-04-25T09:11:57.415Z</time></trkpt><trkpt lat="30.95642" lon="-7.0444017"><ele>1206.0</ele><time>2026-04-25T09:11:58.415Z</time></trkpt><trkpt lat="30.9566183" lon="-7.0445383"><ele>1206.0</ele><time>2026-04-25T09:11:59.415Z</time></trkpt><trkpt lat="30.956815" lon="-7.04467"><ele>1205.6666666666667</ele><time>2026-04-25T09:12:00.415Z</time></trkpt><trkpt lat="30.95701" lon="-7.0447933"><ele>1205.3333333333335</ele><time>2026-04-25T09:12:01.415Z</time></trkpt><trkpt lat="30.95721" lon="-7.0449067"><ele>1205.0</ele><time>2026-04-25T09:12:02.415Z</time></trkpt><trkpt lat="30.9574183" lon="-7.0450083"><ele>1205.6666666666667</ele><time>2026-04-25T09:12:03.415Z</time></trkpt><trkpt lat="30.9576283" lon="-7.0450817"><ele>1206.3333333333333</ele><time>2026-04-25T09:12:04.415Z</time></trkpt><trkpt lat="30.9578383" lon="-7.0451267"><ele>1207.0</ele><time>2026-04-25T09:12:05.415Z</time></trkpt><trkpt lat="30.958045" lon="-7.0451617"><ele>1207.0</ele><time>2026-04-25T09:12:06.415Z</time></trkpt><trkpt lat="30.95826" lon="-7.0451883"><ele>1207.0</ele><time>2026-04-25T09:12:07.415Z</time></trkpt><trkpt lat="30.9584817" lon="-7.0452133"><ele>1207.0</ele><time>2026-04-25T09:12:08.415Z</time></trkpt><trkpt lat="30.958705" lon="-7.045245"><ele>1207.5</ele><time>2026-04-25T09:12:09.415Z</time></trkpt><trkpt lat="30.95893" lon="-7.0452767"><ele>1208.0</ele><time>2026-04-25T09:12:10.415Z</time></trkpt><trkpt lat="30.9591567" lon="-7.0453033"><ele>1208.5</ele><time>2026-04-25T09:12:11.415Z</time></trkpt><trkpt lat="30.95939" lon="-7.0453233"><ele>1209.0</ele><time>2026-04-25T09:12:12.415Z</time></trkpt><trkpt lat="30.9596183" lon="-7.045345"><ele>1209.0</ele><time>2026-04-25T09:12:13.415Z</time></trkpt><trkpt lat="30.95984" lon="-7.0453733"><ele>1209.0</ele><time>2026-04-25T09:12:14.416Z</time></trkpt><trkpt lat="30.9600517" lon="-7.0454117"><ele>1209.0</ele><time>2026-04-25T09:12:15.416Z</time></trkpt><trkpt lat="30.9602567" lon="-7.0454767"><ele>1210.0</ele><time>2026-04-25T09:12:16.415Z</time></trkpt><trkpt lat="30.96046" lon="-7.0455617"><ele>1211.0</ele><time>2026-04-25T09:12:17.415Z</time></trkpt><trkpt lat="30.9606567" lon="-7.0456733"><ele>1212.0</ele><time>2026-04-25T09:12:18.415Z</time></trkpt><trkpt lat="30.9608333" lon="-7.0458133"><ele>1212.3333333333333</ele><time>2026-04-25T09:12:19.415Z</time></trkpt><trkpt lat="30.9610017" lon="-7.045975"><ele>1212.6666666666665</ele><time>2026-04-25T09:12:20.415Z</time></trkpt><trkpt lat="30.9611567" lon="-7.0461533"><ele>1213.0</ele><time>2026-04-25T09:12:21.415Z</time></trkpt><trkpt lat="30.9613133" lon="-7.04633"><ele>1213.0</ele><time>2026-04-25T09:12:22.415Z</time></trkpt><trkpt lat="30.9614633" lon="-7.0464983"><ele>1213.0</ele><time>2026-04-25T09:12:23.416Z</time></trkpt><trkpt lat="30.9616067" lon="-7.0466533"><ele>1213.0</ele><time>2026-04-25T09:12:24.415Z</time></trkpt><trkpt lat="30.9617467" lon="-7.0468017"><ele>1214.3333333333333</ele><time>2026-04-25T09:12:25.415Z</time></trkpt><trkpt lat="30.9618767" lon="-7.0469467"><ele>1215.6666666666667</ele><time>2026-04-25T09:12:26.416Z</time></trkpt><trkpt lat="30.9620017" lon="-7.0470883"><ele>1217.0</ele><time>2026-04-25T09:12:27.415Z</time></trkpt><trkpt lat="30.9621283" lon="-7.0472283"><ele>1217.0</ele><time>2026-04-25T09:12:28.415Z</time></trkpt><trkpt lat="30.9622483" lon="-7.04736"><ele>1217.0</ele><time>2026-04-25T09:12:29.415Z</time></trkpt><trkpt lat="30.962365" lon="-7.0474883"><ele>1217.0</ele><time>2026-04-25T09:12:30.415Z</time></trkpt><trkpt lat="30.962475" lon="-7.0476217"><ele>1218.0</ele><time>2026-04-25T09:12:31.415Z</time></trkpt><trkpt lat="30.9625867" lon="-7.0477567"><ele>1219.0</ele><time>2026-04-25T09:12:32.415Z</time></trkpt><trkpt lat="30.96271" lon="-7.0479017"><ele>1220.0</ele><time>2026-04-25T09:12:33.415Z</time></trkpt><trkpt lat="30.9628367" lon="-7.0480533"><ele>1220.0</ele><time>2026-04-25T09:12:34.415Z</time></trkpt><trkpt lat="30.9629617" lon="-7.04821"><ele>1220.0</ele><time>2026-04-25T09:12:35.415Z</time></trkpt><trkpt lat="30.9630883" lon="-7.0483683"><ele>1220.0</ele><time>2026-04-25T09:12:36.415Z</time></trkpt><trkpt lat="30.9632133" lon="-7.0485267"><ele>1218.6666666666667</ele><time>2026-04-25T09:12:37.415Z</time></trkpt><trkpt lat="30.96333" lon="-7.0486817"><ele>1217.3333333333333</ele><time>2026-04-25T09:12:38.415Z</time></trkpt><trkpt lat="30.96345" lon="-7.0488317"><ele>1216.0</ele><time>2026-04-25T09:12:39.415Z</time></trkpt><trkpt lat="30.963565" lon="-7.0489833"><ele>1216.0</ele><time>2026-04-25T09:12:40.415Z</time></trkpt><trkpt lat="30.9636767" lon="-7.049125"><ele>1216.0</ele><time>2026-04-25T09:12:41.415Z</time></trkpt><trkpt lat="30.9637883" lon="-7.0492667"><ele>1216.0</ele><time>2026-04-25T09:12:42.414Z</time></trkpt><trkpt lat="30.9639033" lon="-7.04941"><ele>1215.6666666666665</ele><time>2026-04-25T09:12:43.414Z</time></trkpt><trkpt lat="30.9640133" lon="-7.049555"><ele>1215.3333333333333</ele><time>2026-04-25T09:12:44.414Z</time></trkpt><trkpt lat="30.96412" lon="-7.0496883"><ele>1215.0</ele><time>2026-04-25T09:12:45.414Z</time></trkpt><trkpt lat="30.9642217" lon="-7.0498217"><ele>1213.3333333333333</ele><time>2026-04-25T09:12:46.414Z</time></trkpt><trkpt lat="30.9643333" lon="-7.0499633"><ele>1211.6666666666665</ele><time>2026-04-25T09:12:47.414Z</time></trkpt><trkpt lat="30.9644483" lon="-7.0501167"><ele>1210.0</ele><time>2026-04-25T09:12:48.414Z</time></trkpt><trkpt lat="30.9645633" lon="-7.050275"><ele>1210.0</ele><time>2026-04-25T09:12:49.414Z</time></trkpt><trkpt lat="30.9646983" lon="-7.0504483"><ele>1210.0</ele><time>2026-04-25T09:12:50.414Z</time></trkpt><trkpt lat="30.9648317" lon="-7.05063"><ele>1210.0</ele><time>2026-04-25T09:12:51.414Z</time></trkpt><trkpt lat="30.9649733" lon="-7.05082"><ele>1207.0</ele><time>2026-04-25T09:12:52.414Z</time></trkpt><trkpt lat="30.9651217" lon="-7.0510233"><ele>1204.0</ele><time>2026-04-25T09:12:53.414Z</time></trkpt><trkpt lat="30.9652833" lon="-7.0512167"><ele>1204.0</ele><time>2026-04-25T09:12:54.414Z</time></trkpt><trkpt lat="30.9654383" lon="-7.0514167"><ele>1204.0</ele><time>2026-04-25T09:12:55.414Z</time></trkpt><trkpt lat="30.96561" lon="-7.0516117"><ele>1204.5</ele><time>2026-04-25T09:12:56.414Z</time></trkpt><trkpt lat="30.96577" lon="-7.0518083"><ele>1205.0</ele><time>2026-04-25T09:12:57.414Z</time></trkpt><trkpt lat="30.9659317" lon="-7.0520083"><ele>1205.0</ele><time>2026-04-25T09:12:58.414Z</time></trkpt><trkpt lat="30.9660883" lon="-7.0522133"><ele>1205.0</ele><time>2026-04-25T09:12:59.414Z</time></trkpt><trkpt lat="30.9662467" lon="-7.0524167"><ele>1206.0</ele><time>2026-04-25T09:13:00.414Z</time></trkpt><trkpt lat="30.9664" lon="-7.0526183"><ele>1207.0</ele><time>2026-04-25T09:13:01.414Z</time></trkpt><trkpt lat="30.9665583" lon="-7.0528217"><ele>1207.0</ele><time>2026-04-25T09:13:02.414Z</time></trkpt><trkpt lat="30.9667083" lon="-7.0530233"><ele>1207.0</ele><time>2026-04-25T09:13:03.414Z</time></trkpt><trkpt lat="30.9668567" lon="-7.0532233"><ele>1208.0</ele><time>2026-04-25T09:13:04.414Z</time></trkpt><trkpt lat="30.9670083" lon="-7.0534217"><ele>1209.0</ele><time>2026-04-25T09:13:05.414Z</time></trkpt><trkpt lat="30.967165" lon="-7.0536183"><ele>1209.0</ele><time>2026-04-25T09:13:06.414Z</time></trkpt><trkpt lat="30.96732" lon="-7.0538117"><ele>1209.0</ele><time>2026-04-25T09:13:07.414Z</time></trkpt><trkpt lat="30.96747" lon="-7.0540133"><ele>1210.5</ele><time>2026-04-25T09:13:08.414Z</time></trkpt><trkpt lat="30.9676233" lon="-7.05421"><ele>1212.0</ele><time>2026-04-25T09:13:09.414Z</time></trkpt><trkpt lat="30.9677767" lon="-7.0544133"><ele>1212.0</ele><time>2026-04-25T09:13:10.414Z</time></trkpt><trkpt lat="30.9679333" lon="-7.0546117"><ele>1212.0</ele><time>2026-04-25T09:13:11.414Z</time></trkpt><trkpt lat="30.9680883" lon="-7.0548067"><ele>1213.0</ele><time>2026-04-25T09:13:12.414Z</time></trkpt><trkpt lat="30.9682467" lon="-7.0550083"><ele>1214.0</ele><time>2026-04-25T09:13:13.414Z</time></trkpt><trkpt lat="30.9684017" lon="-7.0552117"><ele>1215.0</ele><time>2026-04-25T09:13:14.414Z</time></trkpt><trkpt lat="30.9685567" lon="-7.0554083"><ele>1216.0</ele><time>2026-04-25T09:13:15.414Z</time></trkpt><trkpt lat="30.9687083" lon="-7.055605"><ele>1217.0</ele><time>2026-04-25T09:13:16.414Z</time></trkpt><trkpt lat="30.9688633" lon="-7.0558067"><ele>1218.0</ele><time>2026-04-25T09:13:17.414Z</time></trkpt><trkpt lat="30.9690083" lon="-7.0560017"><ele>1218.0</ele><time>2026-04-25T09:13:18.414Z</time></trkpt><trkpt lat="30.9691533" lon="-7.056195"><ele>1218.0</ele><time>2026-04-25T09:13:19.414Z</time></trkpt><trkpt lat="30.969305" lon="-7.0563867"><ele>1218.0</ele><time>2026-04-25T09:13:20.414Z</time></trkpt><trkpt lat="30.969455" lon="-7.05658"><ele>1220.5</ele><time>2026-04-25T09:13:21.415Z</time></trkpt><trkpt lat="30.9696117" lon="-7.0567667"><ele>1223.0</ele><time>2026-04-25T09:13:22.414Z</time></trkpt><trkpt lat="30.9697667" lon="-7.0569583"><ele>1223.0</ele><time>2026-04-25T09:13:23.414Z</time></trkpt><trkpt lat="30.969915" lon="-7.0571533"><ele>1223.0</ele><time>2026-04-25T09:13:24.414Z</time></trkpt><trkpt lat="30.9700617" lon="-7.0573467"><ele>1223.0</ele><time>2026-04-25T09:13:25.414Z</time></trkpt><trkpt lat="30.9702083" lon="-7.0575367"><ele>1223.6666666666667</ele><time>2026-04-25T09:13:26.414Z</time></trkpt><trkpt lat="30.9703467" lon="-7.057715"><ele>1224.3333333333333</ele><time>2026-04-25T09:13:27.414Z</time></trkpt><trkpt lat="30.9704783" lon="-7.05789"><ele>1225.0</ele><time>2026-04-25T09:13:28.414Z</time></trkpt><trkpt lat="30.97061" lon="-7.05806"><ele>1225.0</ele><time>2026-04-25T09:13:29.414Z</time></trkpt><trkpt lat="30.9707383" lon="-7.0582233"><ele>1225.0</ele><time>2026-04-25T09:13:30.414Z</time></trkpt><trkpt lat="30.9708633" lon="-7.0583867"><ele>1225.0</ele><time>2026-04-25T09:13:31.414Z</time></trkpt><trkpt lat="30.970975" lon="-7.05856"><ele>1228.0</ele><time>2026-04-25T09:13:32.414Z</time></trkpt><trkpt lat="30.971065" lon="-7.05875"><ele>1231.0</ele><time>2026-04-25T09:13:33.414Z</time></trkpt><trkpt lat="30.971125" lon="-7.05896"><ele>1234.0</ele><time>2026-04-25T09:13:34.414Z</time></trkpt><trkpt lat="30.971165" lon="-7.059195"><ele>1234.5</ele><time>2026-04-25T09:13:35.414Z</time></trkpt><trkpt lat="30.9711717" lon="-7.059455"><ele>1235.0</ele><time>2026-04-25T09:13:36.414Z</time></trkpt><trkpt lat="30.9711617" lon="-7.059735"><ele>1236.6666666666667</ele><time>2026-04-25T09:13:37.414Z</time></trkpt><trkpt lat="30.9711583" lon="-7.0600033"><ele>1238.3333333333333</ele><time>2026-04-25T09:13:38.415Z</time></trkpt><trkpt lat="30.9711667" lon="-7.060255"><ele>1240.0</ele><time>2026-04-25T09:13:39.415Z</time></trkpt><trkpt lat="30.9711867" lon="-7.06049"><ele>1240.0</ele><time>2026-04-25T09:13:40.414Z</time></trkpt><trkpt lat="30.97124" lon="-7.06071"><ele>1240.0</ele><time>2026-04-25T09:13:41.414Z</time></trkpt><trkpt lat="30.9713217" lon="-7.0608967"><ele>1240.0</ele><time>2026-04-25T09:13:42.414Z</time></trkpt><trkpt lat="30.9714383" lon="-7.06107"><ele>1239.3333333333333</ele><time>2026-04-25T09:13:43.414Z</time></trkpt><trkpt lat="30.971585" lon="-7.0612233"><ele>1238.6666666666667</ele><time>2026-04-25T09:13:44.414Z</time></trkpt><trkpt lat="30.9717467" lon="-7.0613533"><ele>1238.0</ele><time>2026-04-25T09:13:45.414Z</time></trkpt><trkpt lat="30.9719217" lon="-7.061485"><ele>1237.6666666666667</ele><time>2026-04-25T09:13:46.414Z</time></trkpt><trkpt lat="30.972105" lon="-7.0616217"><ele>1237.3333333333333</ele><time>2026-04-25T09:13:47.414Z</time></trkpt><trkpt lat="30.9722867" lon="-7.0617667"><ele>1237.0</ele><time>2026-04-25T09:13:48.414Z</time></trkpt><trkpt lat="30.972475" lon="-7.0619117"><ele>1237.3333333333333</ele><time>2026-04-25T09:13:49.414Z</time></trkpt><trkpt lat="30.9726583" lon="-7.0620467"><ele>1237.6666666666667</ele><time>2026-04-25T09:13:50.414Z</time></trkpt><trkpt lat="30.97283" lon="-7.0621767"><ele>1238.0</ele><time>2026-04-25T09:13:51.414Z</time></trkpt><trkpt lat="30.9730033" lon="-7.0623"><ele>1238.0</ele><time>2026-04-25T09:13:52.414Z</time></trkpt><trkpt lat="30.9731767" lon="-7.0624283"><ele>1238.0</ele><time>2026-04-25T09:13:53.414Z</time></trkpt><trkpt lat="30.9733517" lon="-7.06256"><ele>1238.0</ele><time>2026-04-25T09:13:54.414Z</time></trkpt><trkpt lat="30.9735233" lon="-7.062695"><ele>1236.6666666666667</ele><time>2026-04-25T09:13:55.414Z</time></trkpt><trkpt lat="30.9736967" lon="-7.0628183"><ele>1235.3333333333333</ele><time>2026-04-25T09:13:56.414Z</time></trkpt><trkpt lat="30.97387" lon="-7.0629433"><ele>1234.0</ele><time>2026-04-25T09:13:57.414Z</time></trkpt><trkpt lat="30.9740317" lon="-7.0630683"><ele>1234.0</ele><time>2026-04-25T09:13:58.414Z</time></trkpt><trkpt lat="30.9741867" lon="-7.0631867"><ele>1234.0</ele><time>2026-04-25T09:13:59.414Z</time></trkpt><trkpt lat="30.97434" lon="-7.0633033"><ele>1234.0</ele><time>2026-04-25T09:14:00.415Z</time></trkpt><trkpt lat="30.9745017" lon="-7.063425"><ele>1232.3333333333333</ele><time>2026-04-25T09:14:01.414Z</time></trkpt><trkpt lat="30.9746583" lon="-7.063545"><ele>1230.6666666666667</ele><time>2026-04-25T09:14:02.415Z</time></trkpt><trkpt lat="30.974815" lon="-7.0636683"><ele>1229.0</ele><time>2026-04-25T09:14:03.414Z</time></trkpt><trkpt lat="30.97498" lon="-7.0637933"><ele>1229.6666666666667</ele><time>2026-04-25T09:14:04.414Z</time></trkpt><trkpt lat="30.9751483" lon="-7.06392"><ele>1230.3333333333333</ele><time>2026-04-25T09:14:05.414Z</time></trkpt><trkpt lat="30.9753133" lon="-7.06405"><ele>1231.0</ele><time>2026-04-25T09:14:06.414Z</time></trkpt><trkpt lat="30.9754817" lon="-7.0641783"><ele>1231.3333333333333</ele><time>2026-04-25T09:14:07.414Z</time></trkpt><trkpt lat="30.9756467" lon="-7.0642983"><ele>1231.6666666666667</ele><time>2026-04-25T09:14:08.414Z</time></trkpt><trkpt lat="30.97581" lon="-7.06442"><ele>1232.0</ele><time>2026-04-25T09:14:09.414Z</time></trkpt><trkpt lat="30.9759633" lon="-7.064535"><ele>1232.0</ele><time>2026-04-25T09:14:10.415Z</time></trkpt><trkpt lat="30.976085" lon="-7.064665"><ele>1232.0</ele><time>2026-04-25T09:14:11.414Z</time></trkpt><trkpt lat="30.976185" lon="-7.0648083"><ele>1232.0</ele><time>2026-04-25T09:14:12.414Z</time></trkpt><trkpt lat="30.9762717" lon="-7.0649783"><ele>1232.3333333333335</ele><time>2026-04-25T09:14:13.414Z</time></trkpt><trkpt lat="30.9763367" lon="-7.0651733"><ele>1232.6666666666667</ele><time>2026-04-25T09:14:14.414Z</time></trkpt><trkpt lat="30.9763783" lon="-7.065375"><ele>1233.0</ele><time>2026-04-25T09:14:15.414Z</time></trkpt><trkpt lat="30.976395" lon="-7.065575"><ele>1233.0</ele><time>2026-04-25T09:14:16.414Z</time></trkpt><trkpt lat="30.9763783" lon="-7.065775"><ele>1233.0</ele><time>2026-04-25T09:14:17.414Z</time></trkpt><trkpt lat="30.9763333" lon="-7.0659483"><ele>1233.0</ele><time>2026-04-25T09:14:18.414Z</time></trkpt><trkpt lat="30.9762617" lon="-7.066105"><ele>1233.0</ele><time>2026-04-25T09:14:19.414Z</time></trkpt><trkpt lat="30.9761767" lon="-7.0662517"><ele>1233.0</ele><time>2026-04-25T09:14:20.414Z</time></trkpt><trkpt lat="30.9760817" lon="-7.0663933"><ele>1233.0</ele><time>2026-04-25T09:14:21.414Z</time></trkpt><trkpt lat="30.975975" lon="-7.06652"><ele>1233.0</ele><time>2026-04-25T09:14:22.414Z</time></trkpt><trkpt lat="30.9758683" lon="-7.066645"><ele>1233.0</ele><time>2026-04-25T09:14:23.415Z</time></trkpt><trkpt lat="30.9757567" lon="-7.066775"><ele>1233.0</ele><time>2026-04-25T09:14:24.414Z</time></trkpt><trkpt lat="30.9756467" lon="-7.0669067"><ele>1234.3333333333333</ele><time>2026-04-25T09:14:25.414Z</time></trkpt><trkpt lat="30.9755283" lon="-7.067045"><ele>1235.6666666666665</ele><time>2026-04-25T09:14:26.414Z</time></trkpt><trkpt lat="30.975405" lon="-7.0671867"><ele>1237.0</ele><time>2026-04-25T09:14:27.414Z</time></trkpt><trkpt lat="30.975285" lon="-7.0673333"><ele>1237.0</ele><time>2026-04-25T09:14:28.414Z</time></trkpt><trkpt lat="30.9751617" lon="-7.067485"><ele>1237.0</ele><time>2026-04-25T09:14:29.414Z</time></trkpt><trkpt lat="30.97504" lon="-7.0676333"><ele>1237.0</ele><time>2026-04-25T09:14:30.414Z</time></trkpt><trkpt lat="30.9749233" lon="-7.067765"><ele>1237.0</ele><time>2026-04-25T09:14:31.414Z</time></trkpt><trkpt lat="30.97481" lon="-7.0679017"><ele>1237.0</ele><time>2026-04-25T09:14:32.414Z</time></trkpt><trkpt lat="30.9746983" lon="-7.06804"><ele>1237.0</ele><time>2026-04-25T09:14:33.414Z</time></trkpt><trkpt lat="30.97458" lon="-7.068185"><ele>1237.3333333333333</ele><time>2026-04-25T09:14:34.415Z</time></trkpt><trkpt lat="30.97446" lon="-7.0683283"><ele>1237.6666666666667</ele><time>2026-04-25T09:14:35.415Z</time></trkpt><trkpt lat="30.9743317" lon="-7.06848"><ele>1238.0</ele><time>2026-04-25T09:14:36.414Z</time></trkpt><trkpt lat="30.9741933" lon="-7.0686383"><ele>1238.6666666666667</ele><time>2026-04-25T09:14:37.414Z</time></trkpt><trkpt lat="30.9740483" lon="-7.0688033"><ele>1239.3333333333333</ele><time>2026-04-25T09:14:38.414Z</time></trkpt><trkpt lat="30.9738967" lon="-7.0689833"><ele>1240.0</ele><time>2026-04-25T09:14:39.414Z</time></trkpt><trkpt lat="30.9737433" lon="-7.0691767"><ele>1240.0</ele><time>2026-04-25T09:14:40.414Z</time></trkpt><trkpt lat="30.97359" lon="-7.0693767"><ele>1240.0</ele><time>2026-04-25T09:14:41.414Z</time></trkpt><trkpt lat="30.97343" lon="-7.06958"><ele>1240.5</ele><time>2026-04-25T09:14:42.414Z</time></trkpt><trkpt lat="30.97327" lon="-7.069775"><ele>1241.0</ele><time>2026-04-25T09:14:43.414Z</time></trkpt><trkpt lat="30.9731083" lon="-7.06997"><ele>1242.0</ele><time>2026-04-25T09:14:44.414Z</time></trkpt><trkpt lat="30.9729517" lon="-7.0701583"><ele>1243.0</ele><time>2026-04-25T09:14:45.414Z</time></trkpt><trkpt lat="30.9727917" lon="-7.070345"><ele>1243.0</ele><time>2026-04-25T09:14:46.414Z</time></trkpt><trkpt lat="30.9726383" lon="-7.0705317"><ele>1243.0</ele><time>2026-04-25T09:14:47.414Z</time></trkpt><trkpt lat="30.9724883" lon="-7.0707183"><ele>1243.0</ele><time>2026-04-25T09:14:48.414Z</time></trkpt><trkpt lat="30.97234" lon="-7.0709"><ele>1244.0</ele><time>2026-04-25T09:14:49.414Z</time></trkpt><trkpt lat="30.972195" lon="-7.0710817"><ele>1245.0</ele><time>2026-04-25T09:14:50.414Z</time></trkpt><trkpt lat="30.9720483" lon="-7.071265"><ele>1246.0</ele><time>2026-04-25T09:14:51.414Z</time></trkpt><trkpt lat="30.971905" lon="-7.0714483"><ele>1247.3333333333333</ele><time>2026-04-25T09:14:52.414Z</time></trkpt><trkpt lat="30.9717617" lon="-7.0716333"><ele>1248.6666666666667</ele><time>2026-04-25T09:14:53.415Z</time></trkpt><trkpt lat="30.9716267" lon="-7.0718167"><ele>1250.0</ele><time>2026-04-25T09:14:54.414Z</time></trkpt><trkpt lat="30.971495" lon="-7.07199"><ele>1250.0</ele><time>2026-04-25T09:14:55.414Z</time></trkpt><trkpt lat="30.9713683" lon="-7.0721567"><ele>1250.0</ele><time>2026-04-25T09:14:56.414Z</time></trkpt><trkpt lat="30.9712717" lon="-7.072325"><ele>1250.0</ele><time>2026-04-25T09:14:57.414Z</time></trkpt><trkpt lat="30.9712117" lon="-7.07249"><ele>1251.75</ele><time>2026-04-25T09:14:58.414Z</time></trkpt><trkpt lat="30.9712083" lon="-7.0726533"><ele>1253.5</ele><time>2026-04-25T09:14:59.414Z</time></trkpt><trkpt lat="30.9712317" lon="-7.072795"><ele>1255.25</ele><time>2026-04-25T09:15:00.414Z</time></trkpt><trkpt lat="30.971295" lon="-7.072925"><ele>1257.0</ele><time>2026-04-25T09:15:01.414Z</time></trkpt><trkpt lat="30.9713733" lon="-7.0730683"><ele>1257.0</ele><time>2026-04-25T09:15:02.415Z</time></trkpt><trkpt lat="30.9714683" lon="-7.07321"><ele>1257.0</ele><time>2026-04-25T09:15:03.414Z</time></trkpt><trkpt lat="30.9715617" lon="-7.07336"><ele>1257.0</ele><time>2026-04-25T09:15:04.414Z</time></trkpt><trkpt lat="30.97165" lon="-7.0735133"><ele>1260.0</ele><time>2026-04-25T09:15:05.414Z</time></trkpt><trkpt lat="30.9717283" lon="-7.0736567"><ele>1263.0</ele><time>2026-04-25T09:15:06.414Z</time></trkpt><trkpt lat="30.97177" lon="-7.0737933"><ele>1266.0</ele><time>2026-04-25T09:15:07.414Z</time></trkpt><trkpt lat="30.9717783" lon="-7.07393"><ele>1269.0</ele><time>2026-04-25T09:15:08.414Z</time></trkpt><trkpt lat="30.971755" lon="-7.074065"><ele>1269.0</ele><time>2026-04-25T09:15:09.414Z</time></trkpt><trkpt lat="30.9716983" lon="-7.074175"><ele>1269.0</ele><time>2026-04-25T09:15:10.414Z</time></trkpt><trkpt lat="30.9716133" lon="-7.0742767"><ele>1269.0</ele><time>2026-04-25T09:15:11.414Z</time></trkpt><trkpt lat="30.9715" lon="-7.0743567"><ele>1269.0</ele><time>2026-04-25T09:15:12.414Z</time></trkpt><trkpt lat="30.9713583" lon="-7.07442"><ele>1266.0</ele><time>2026-04-25T09:15:13.414Z</time></trkpt><trkpt lat="30.97121" lon="-7.07449"><ele>1263.0</ele><time>2026-04-25T09:15:14.414Z</time></trkpt><trkpt lat="30.971055" lon="-7.0745683"><ele>1260.0</ele><time>2026-04-25T09:15:15.414Z</time></trkpt><trkpt lat="30.9708933" lon="-7.0746483"><ele>1257.3333333333333</ele><time>2026-04-25T09:15:16.414Z</time></trkpt><trkpt lat="30.97073" lon="-7.0747267"><ele>1254.6666666666665</ele><time>2026-04-25T09:15:17.414Z</time></trkpt><trkpt lat="30.9705583" lon="-7.07481"><ele>1252.0</ele><time>2026-04-25T09:15:18.414Z</time></trkpt><trkpt lat="30.970385" lon="-7.0749017"><ele>1257.0</ele><time>2026-04-25T09:15:19.414Z</time></trkpt><trkpt lat="30.9702067" lon="-7.07499"><ele>1262.0</ele><time>2026-04-25T09:15:20.414Z</time></trkpt><trkpt lat="30.9700217" lon="-7.0750583"><ele>1267.0</ele><time>2026-04-25T09:15:21.414Z</time></trkpt><trkpt lat="30.96984" lon="-7.075095"><ele>1267.0</ele><time>2026-04-25T09:15:22.414Z</time></trkpt><trkpt lat="30.969675" lon="-7.0751117"><ele>1267.0</ele><time>2026-04-25T09:15:23.414Z</time></trkpt><trkpt lat="30.9695167" lon="-7.0751167"><ele>1267.0</ele><time>2026-04-25T09:15:24.414Z</time></trkpt><trkpt lat="30.969365" lon="-7.0751233"><ele>1267.0</ele><time>2026-04-25T09:15:25.414Z</time></trkpt><trkpt lat="30.969225" lon="-7.07515"><ele>1267.0</ele><time>2026-04-25T09:15:26.414Z</time></trkpt><trkpt lat="30.9691017" lon="-7.0752"><ele>1267.0</ele><time>2026-04-25T09:15:27.414Z</time></trkpt><trkpt lat="30.9690017" lon="-7.0752817"><ele>1267.0</ele><time>2026-04-25T09:15:28.414Z</time></trkpt><trkpt lat="30.968925" lon="-7.0754017"><ele>1266.25</ele><time>2026-04-25T09:15:29.414Z</time></trkpt><trkpt lat="30.9688767" lon="-7.07554"><ele>1265.5</ele><time>2026-04-25T09:15:30.414Z</time></trkpt><trkpt lat="30.96887" lon="-7.0756983"><ele>1264.75</ele><time>2026-04-25T09:15:31.414Z</time></trkpt><trkpt lat="30.9689033" lon="-7.0758567"><ele>1264.0</ele><time>2026-04-25T09:15:32.414Z</time></trkpt><trkpt lat="30.9689633" lon="-7.076005"><ele>1266.25</ele><time>2026-04-25T09:15:33.414Z</time></trkpt><trkpt lat="30.9690317" lon="-7.0761333"><ele>1268.5</ele><time>2026-04-25T09:15:34.414Z</time></trkpt><trkpt lat="30.96907" lon="-7.0762617"><ele>1270.75</ele><time>2026-04-25T09:15:35.414Z</time></trkpt><trkpt lat="30.96907" lon="-7.0763933"><ele>1273.0</ele><time>2026-04-25T09:15:36.414Z</time></trkpt><trkpt lat="30.96903" lon="-7.0765217"><ele>1272.5</ele><time>2026-04-25T09:15:37.414Z</time></trkpt><trkpt lat="30.9689483" lon="-7.076625"><ele>1272.0</ele><time>2026-04-25T09:15:38.414Z</time></trkpt><trkpt lat="30.968835" lon="-7.0767"><ele>1271.5</ele><time>2026-04-25T09:15:39.414Z</time></trkpt><trkpt lat="30.9687117" lon="-7.0767633"><ele>1271.0</ele><time>2026-04-25T09:15:40.414Z</time></trkpt><trkpt lat="30.9685967" lon="-7.076835"><ele>1271.0</ele><time>2026-04-25T09:15:41.414Z</time></trkpt><trkpt lat="30.968485" lon="-7.0769217"><ele>1271.0</ele><time>2026-04-25T09:15:42.414Z</time></trkpt><trkpt lat="30.96839" lon="-7.0770367"><ele>1271.0</ele><time>2026-04-25T09:15:43.414Z</time></trkpt><trkpt lat="30.9683117" lon="-7.07717"><ele>1271.0</ele><time>2026-04-25T09:15:44.414Z</time></trkpt><trkpt lat="30.9682567" lon="-7.0773267"><ele>1267.6666666666667</ele><time>2026-04-25T09:15:45.414Z</time></trkpt><trkpt lat="30.9682183" lon="-7.0774983"><ele>1264.3333333333333</ele><time>2026-04-25T09:15:46.414Z</time></trkpt><trkpt lat="30.9681917" lon="-7.0776917"><ele>1261.0</ele><time>2026-04-25T09:15:47.414Z</time></trkpt><trkpt lat="30.96817" lon="-7.0778933"><ele>1261.0</ele><time>2026-04-25T09:15:48.414Z</time></trkpt><trkpt lat="30.96814" lon="-7.07811"><ele>1261.0</ele><time>2026-04-25T09:15:49.414Z</time></trkpt><trkpt lat="30.96811" lon="-7.0783283"><ele>1261.0</ele><time>2026-04-25T09:15:50.414Z</time></trkpt><trkpt lat="30.9680883" lon="-7.0785567"><ele>1259.6666666666665</ele><time>2026-04-25T09:15:51.414Z</time></trkpt><trkpt lat="30.96807" lon="-7.0787867"><ele>1258.3333333333333</ele><time>2026-04-25T09:15:52.414Z</time></trkpt><trkpt lat="30.9680717" lon="-7.079015"><ele>1257.0</ele><time>2026-04-25T09:15:53.414Z</time></trkpt><trkpt lat="30.9680833" lon="-7.0792533"><ele>1257.0</ele><time>2026-04-25T09:15:54.414Z</time></trkpt><trkpt lat="30.96811" lon="-7.0795"><ele>1257.0</ele><time>2026-04-25T09:15:55.414Z</time></trkpt><trkpt lat="30.9681417" lon="-7.0797367"><ele>1257.0</ele><time>2026-04-25T09:15:56.414Z</time></trkpt><trkpt lat="30.9681883" lon="-7.079975"><ele>1259.3333333333333</ele><time>2026-04-25T09:15:57.414Z</time></trkpt><trkpt lat="30.9682317" lon="-7.080225"><ele>1261.6666666666665</ele><time>2026-04-25T09:15:58.414Z</time></trkpt><trkpt lat="30.96826" lon="-7.080475"><ele>1264.0</ele><time>2026-04-25T09:15:59.414Z</time></trkpt><trkpt lat="30.968285" lon="-7.0807267"><ele>1266.0</ele><time>2026-04-25T09:16:00.414Z</time></trkpt><trkpt lat="30.9683017" lon="-7.0809867"><ele>1268.0</ele><time>2026-04-25T09:16:01.414Z</time></trkpt><trkpt lat="30.9683117" lon="-7.0812517"><ele>1268.0</ele><time>2026-04-25T09:16:02.414Z</time></trkpt><trkpt lat="30.9683117" lon="-7.0815033"><ele>1268.0</ele><time>2026-04-25T09:16:03.414Z</time></trkpt><trkpt lat="30.968295" lon="-7.081745"><ele>1268.0</ele><time>2026-04-25T09:16:04.414Z</time></trkpt><trkpt lat="30.9682533" lon="-7.0819817"><ele>1269.6666666666667</ele><time>2026-04-25T09:16:05.414Z</time></trkpt><trkpt lat="30.9681983" lon="-7.0822167"><ele>1271.3333333333333</ele><time>2026-04-25T09:16:06.414Z</time></trkpt><trkpt lat="30.96815" lon="-7.0824517"><ele>1273.0</ele><time>2026-04-25T09:16:07.414Z</time></trkpt><trkpt lat="30.9681417" lon="-7.0826933"><ele>1273.0</ele><time>2026-04-25T09:16:08.414Z</time></trkpt><trkpt lat="30.9681433" lon="-7.082935"><ele>1273.0</ele><time>2026-04-25T09:16:09.414Z</time></trkpt><trkpt lat="30.9681533" lon="-7.0831767"><ele>1273.0</ele><time>2026-04-25T09:16:10.414Z</time></trkpt><trkpt lat="30.9681717" lon="-7.08342"><ele>1273.0</ele><time>2026-04-25T09:16:11.414Z</time></trkpt><trkpt lat="30.9681883" lon="-7.083665"><ele>1273.0</ele><time>2026-04-25T09:16:12.414Z</time></trkpt><trkpt lat="30.96821" lon="-7.0839083"><ele>1273.0</ele><time>2026-04-25T09:16:13.414Z</time></trkpt><trkpt lat="30.9682233" lon="-7.08415"><ele>1273.6666666666665</ele><time>2026-04-25T09:16:14.414Z</time></trkpt><trkpt lat="30.9682383" lon="-7.0843883"><ele>1274.3333333333333</ele><time>2026-04-25T09:16:15.414Z</time></trkpt><trkpt lat="30.9682583" lon="-7.0846333"><ele>1275.0</ele><time>2026-04-25T09:16:16.414Z</time></trkpt><trkpt lat="30.9682783" lon="-7.0848717"><ele>1276.3333333333333</ele><time>2026-04-25T09:16:17.414Z</time></trkpt><trkpt lat="30.968315" lon="-7.08509"><ele>1277.6666666666665</ele><time>2026-04-25T09:16:18.414Z</time></trkpt><trkpt lat="30.96838" lon="-7.085305"><ele>1279.0</ele><time>2026-04-25T09:16:19.414Z</time></trkpt><trkpt lat="30.9684617" lon="-7.08552"><ele>1281.6666666666665</ele><time>2026-04-25T09:16:20.414Z</time></trkpt><trkpt lat="30.96855" lon="-7.0857317"><ele>1284.3333333333333</ele><time>2026-04-25T09:16:21.414Z</time></trkpt><trkpt lat="30.9686483" lon="-7.085945"><ele>1287.0</ele><time>2026-04-25T09:16:22.414Z</time></trkpt><trkpt lat="30.9687417" lon="-7.0861517"><ele>1286.6666666666667</ele><time>2026-04-25T09:16:23.414Z</time></trkpt><trkpt lat="30.96884" lon="-7.08635"><ele>1286.3333333333335</ele><time>2026-04-25T09:16:24.414Z</time></trkpt><trkpt lat="30.9689383" lon="-7.0865333"><ele>1286.0</ele><time>2026-04-25T09:16:25.415Z</time></trkpt><trkpt lat="30.9690267" lon="-7.086715"><ele>1286.0</ele><time>2026-04-25T09:16:26.414Z</time></trkpt><trkpt lat="30.9691117" lon="-7.0869"><ele>1286.0</ele><time>2026-04-25T09:16:27.414Z</time></trkpt><trkpt lat="30.9691767" lon="-7.0870783"><ele>1286.0</ele><time>2026-04-25T09:16:28.414Z</time></trkpt><trkpt lat="30.969245" lon="-7.0872467"><ele>1291.75</ele><time>2026-04-25T09:16:29.414Z</time></trkpt><trkpt lat="30.9693" lon="-7.0873967"><ele>1297.5</ele><time>2026-04-25T09:16:30.414Z</time></trkpt><trkpt lat="30.9693467" lon="-7.08754"><ele>1303.25</ele><time>2026-04-25T09:16:31.414Z</time></trkpt><trkpt lat="30.969395" lon="-7.08768"><ele>1309.0</ele><time>2026-04-25T09:16:32.414Z</time></trkpt><trkpt lat="30.96944" lon="-7.087805"><ele>1309.0</ele><time>2026-04-25T09:16:33.414Z</time></trkpt><trkpt lat="30.9694783" lon="-7.0879217"><ele>1309.0</ele><time>2026-04-25T09:16:34.414Z</time></trkpt><trkpt lat="30.9695" lon="-7.0880217"><ele>1309.0</ele><time>2026-04-25T09:16:35.414Z</time></trkpt><trkpt lat="30.969525" lon="-7.0881167"><ele>1309.0</ele><time>2026-04-25T09:16:36.414Z</time></trkpt><trkpt lat="30.9695533" lon="-7.0882067"><ele>1309.0</ele><time>2026-04-25T09:16:37.414Z</time></trkpt><trkpt lat="30.9695817" lon="-7.0883"><ele>1309.0</ele><time>2026-04-25T09:16:38.414Z</time></trkpt><trkpt lat="30.9696183" lon="-7.0884"><ele>1303.25</ele><time>2026-04-25T09:16:39.414Z</time></trkpt><trkpt lat="30.9696733" lon="-7.0885183"><ele>1297.5</ele><time>2026-04-25T09:16:40.414Z</time></trkpt><trkpt lat="30.9697367" lon="-7.0886567"><ele>1291.75</ele><time>2026-04-25T09:16:41.414Z</time></trkpt><trkpt lat="30.9698" lon="-7.0887983"><ele>1286.0</ele><time>2026-04-25T09:16:42.414Z</time></trkpt><trkpt lat="30.96986" lon="-7.0889383"><ele>1286.0</ele><time>2026-04-25T09:16:43.414Z</time></trkpt><trkpt lat="30.969895" lon="-7.08907"><ele>1286.0</ele><time>2026-04-25T09:16:44.414Z</time></trkpt><trkpt lat="30.9699217" lon="-7.0891833"><ele>1286.0</ele><time>2026-04-25T09:16:45.414Z</time></trkpt><trkpt lat="30.9699417" lon="-7.089285"><ele>1286.0</ele><time>2026-04-25T09:16:46.414Z</time></trkpt><trkpt lat="30.9699683" lon="-7.08938"><ele>1286.0</ele><time>2026-04-25T09:16:47.414Z</time></trkpt><trkpt lat="30.9699917" lon="-7.0894783"><ele>1286.8333333333335</ele><time>2026-04-25T09:16:48.414Z</time></trkpt><trkpt lat="30.970015" lon="-7.0895767"><ele>1287.6666666666667</ele><time>2026-04-25T09:16:49.414Z</time></trkpt><trkpt lat="30.970035" lon="-7.0896617"><ele>1288.5</ele><time>2026-04-25T09:16:50.414Z</time></trkpt><trkpt lat="30.97006" lon="-7.0897433"><ele>1289.3333333333333</ele><time>2026-04-25T09:16:51.414Z</time></trkpt><trkpt lat="30.970085" lon="-7.08982"><ele>1290.1666666666665</ele><time>2026-04-25T09:16:52.414Z</time></trkpt><trkpt lat="30.97011" lon="-7.0899033"><ele>1291.0</ele><time>2026-04-25T09:16:53.414Z</time></trkpt><trkpt lat="30.9701333" lon="-7.08999"><ele>1291.0</ele><time>2026-04-25T09:16:54.414Z</time></trkpt><trkpt lat="30.9701617" lon="-7.0900767"><ele>1291.0</ele><time>2026-04-25T09:16:55.414Z</time></trkpt><trkpt lat="30.9701983" lon="-7.0901667"><ele>1291.0</ele><time>2026-04-25T09:16:56.414Z</time></trkpt><trkpt lat="30.970235" lon="-7.09025"><ele>1291.0</ele><time>2026-04-25T09:16:57.414Z</time></trkpt><trkpt lat="30.9702733" lon="-7.0903317"><ele>1291.0</ele><time>2026-04-25T09:16:58.414Z</time></trkpt><trkpt lat="30.9703133" lon="-7.0904117"><ele>1291.0</ele><time>2026-04-25T09:16:59.414Z</time></trkpt><trkpt lat="30.970355" lon="-7.09049"><ele>1291.0</ele><time>2026-04-25T09:17:00.414Z</time></trkpt><trkpt lat="30.9704017" lon="-7.0905667"><ele>1291.0</ele><time>2026-04-25T09:17:01.414Z</time></trkpt><trkpt lat="30.970445" lon="-7.0906467"><ele>1291.0</ele><time>2026-04-25T09:17:02.414Z</time></trkpt><trkpt lat="30.9704867" lon="-7.0907283"><ele>1291.0</ele><time>2026-04-25T09:17:03.414Z</time></trkpt><trkpt lat="30.970525" lon="-7.0908133"><ele>1291.0</ele><time>2026-04-25T09:17:04.414Z</time></trkpt><trkpt lat="30.970555" lon="-7.0909"><ele>1291.0</ele><time>2026-04-25T09:17:05.414Z</time></trkpt><trkpt lat="30.970575" lon="-7.09099"><ele>1287.5</ele><time>2026-04-25T09:17:06.414Z</time></trkpt><trkpt lat="30.9705883" lon="-7.0910867"><ele>1284.0</ele><time>2026-04-25T09:17:07.414Z</time></trkpt><trkpt lat="30.9705867" lon="-7.091175"><ele>1280.5</ele><time>2026-04-25T09:17:08.414Z</time></trkpt><trkpt lat="30.97059" lon="-7.0912583"><ele>1277.0</ele><time>2026-04-25T09:17:09.414Z</time></trkpt><trkpt lat="30.9705933" lon="-7.09134"><ele>1273.5</ele><time>2026-04-25T09:17:10.414Z</time></trkpt><trkpt lat="30.9706017" lon="-7.0914283"><ele>1270.0</ele><time>2026-04-25T09:17:11.414Z</time></trkpt><trkpt lat="30.9706133" lon="-7.0915217"><ele>1268.3333333333333</ele><time>2026-04-25T09:17:12.414Z</time></trkpt><trkpt lat="30.9706267" lon="-7.09161"><ele>1266.6666666666665</ele><time>2026-04-25T09:17:13.414Z</time></trkpt><trkpt lat="30.9706533" lon="-7.0917"><ele>1265.0</ele><time>2026-04-25T09:17:14.414Z</time></trkpt><trkpt lat="30.97068" lon="-7.091795"><ele>1263.3333333333333</ele><time>2026-04-25T09:17:15.414Z</time></trkpt><trkpt lat="30.9707117" lon="-7.09189"><ele>1261.6666666666667</ele><time>2026-04-25T09:17:16.414Z</time></trkpt><trkpt lat="30.97075" lon="-7.0919817"><ele>1260.0</ele><time>2026-04-25T09:17:17.414Z</time></trkpt><trkpt lat="30.9707933" lon="-7.09206"><ele>1260.0</ele><time>2026-04-25T09:17:18.415Z</time></trkpt><trkpt lat="30.9708483" lon="-7.0921267"><ele>1260.0</ele><time>2026-04-25T09:17:19.414Z</time></trkpt><trkpt lat="30.9709133" lon="-7.0921833"><ele>1260.0</ele><time>2026-04-25T09:17:20.414Z</time></trkpt><trkpt lat="30.970995" lon="-7.092235"><ele>1260.0</ele><time>2026-04-25T09:17:21.414Z</time></trkpt><trkpt lat="30.97109" lon="-7.092265"><ele>1260.0</ele><time>2026-04-25T09:17:22.414Z</time></trkpt><trkpt lat="30.9712" lon="-7.0922817"><ele>1260.75</ele><time>2026-04-25T09:17:23.414Z</time></trkpt><trkpt lat="30.971305" lon="-7.0922783"><ele>1261.5</ele><time>2026-04-25T09:17:24.414Z</time></trkpt><trkpt lat="30.97143" lon="-7.0922583"><ele>1262.25</ele><time>2026-04-25T09:17:25.414Z</time></trkpt><trkpt lat="30.9715783" lon="-7.092225"><ele>1263.0</ele><time>2026-04-25T09:17:26.414Z</time></trkpt><trkpt lat="30.9717467" lon="-7.0922033"><ele>1264.6666666666667</ele><time>2026-04-25T09:17:27.414Z</time></trkpt><trkpt lat="30.9719233" lon="-7.0922217"><ele>1266.3333333333335</ele><time>2026-04-25T09:17:28.415Z</time></trkpt><trkpt lat="30.9721217" lon="-7.0922783"><ele>1268.0</ele><time>2026-04-25T09:17:29.414Z</time></trkpt><trkpt lat="30.9723517" lon="-7.0923733"><ele>1255.0</ele><time>2026-04-25T09:17:30.414Z</time></trkpt><trkpt lat="30.97261" lon="-7.0924833"><ele>1242.0</ele><time>2026-04-25T09:17:31.414Z</time></trkpt><trkpt lat="30.9728617" lon="-7.0925783"><ele>1242.0</ele><time>2026-04-25T09:17:32.414Z</time></trkpt><trkpt lat="30.9730983" lon="-7.0926667"><ele>1242.0</ele><time>2026-04-25T09:17:33.414Z</time></trkpt><trkpt lat="30.9733117" lon="-7.0927433"><ele>1239.6666666666667</ele><time>2026-04-25T09:17:34.414Z</time></trkpt><trkpt lat="30.9735133" lon="-7.0928233"><ele>1237.3333333333335</ele><time>2026-04-25T09:17:35.414Z</time></trkpt><trkpt lat="30.97371" lon="-7.0929"><ele>1235.0</ele><time>2026-04-25T09:17:36.414Z</time></trkpt><trkpt lat="30.9738917" lon="-7.09297"><ele>1235.0</ele><time>2026-04-25T09:17:37.414Z</time></trkpt><trkpt lat="30.9740583" lon="-7.0930417"><ele>1235.0</ele><time>2026-04-25T09:17:38.414Z</time></trkpt><trkpt lat="30.9742283" lon="-7.0931133"><ele>1235.0</ele><time>2026-04-25T09:17:39.414Z</time></trkpt><trkpt lat="30.97439" lon="-7.0931817"><ele>1233.6666666666667</ele><time>2026-04-25T09:17:40.414Z</time></trkpt><trkpt lat="30.9745533" lon="-7.0932467"><ele>1232.3333333333333</ele><time>2026-04-25T09:17:41.414Z</time></trkpt><trkpt lat="30.9747183" lon="-7.0933167"><ele>1231.0</ele><time>2026-04-25T09:17:42.415Z</time></trkpt><trkpt lat="30.9748733" lon="-7.0933833"><ele>1230.0</ele><time>2026-04-25T09:17:43.414Z</time></trkpt><trkpt lat="30.9750233" lon="-7.0934567"><ele>1229.0</ele><time>2026-04-25T09:17:44.414Z</time></trkpt><trkpt lat="30.97516" lon="-7.0935383"><ele>1228.0</ele><time>2026-04-25T09:17:45.414Z</time></trkpt><trkpt lat="30.9752883" lon="-7.0936367"><ele>1228.0</ele><time>2026-04-25T09:17:46.414Z</time></trkpt><trkpt lat="30.9754083" lon="-7.093755"><ele>1228.0</ele><time>2026-04-25T09:17:47.414Z</time></trkpt><trkpt lat="30.9755183" lon="-7.0938983"><ele>1228.0</ele><time>2026-04-25T09:17:48.414Z</time></trkpt><trkpt lat="30.9756167" lon="-7.09407"><ele>1226.6666666666665</ele><time>2026-04-25T09:17:49.414Z</time></trkpt><trkpt lat="30.9756983" lon="-7.0942667"><ele>1225.3333333333333</ele><time>2026-04-25T09:17:50.414Z</time></trkpt><trkpt lat="30.9757567" lon="-7.09448"><ele>1224.0</ele><time>2026-04-25T09:17:51.414Z</time></trkpt><trkpt lat="30.975795" lon="-7.0947083"><ele>1222.6666666666667</ele><time>2026-04-25T09:17:52.414Z</time></trkpt><trkpt lat="30.9758033" lon="-7.09495"><ele>1221.3333333333335</ele><time>2026-04-25T09:17:53.414Z</time></trkpt><trkpt lat="30.9757917" lon="-7.0951933"><ele>1220.0</ele><time>2026-04-25T09:17:54.414Z</time></trkpt><trkpt lat="30.9757633" lon="-7.0954317"><ele>1220.0</ele><time>2026-04-25T09:17:55.414Z</time></trkpt><trkpt lat="30.9757367" lon="-7.0956533"><ele>1220.0</ele><time>2026-04-25T09:17:56.414Z</time></trkpt><trkpt lat="30.9757083" lon="-7.095875"><ele>1220.0</ele><time>2026-04-25T09:17:57.414Z</time></trkpt><trkpt lat="30.9756817" lon="-7.0960967"><ele>1219.0</ele><time>2026-04-25T09:17:58.414Z</time></trkpt><trkpt lat="30.9756633" lon="-7.0963217"><ele>1218.0</ele><time>2026-04-25T09:17:59.414Z</time></trkpt><trkpt lat="30.9756417" lon="-7.096555"><ele>1217.0</ele><time>2026-04-25T09:18:00.414Z</time></trkpt><trkpt lat="30.9756183" lon="-7.0967833"><ele>1216.3333333333335</ele><time>2026-04-25T09:18:01.415Z</time></trkpt><trkpt lat="30.9755967" lon="-7.0970067"><ele>1215.6666666666667</ele><time>2026-04-25T09:18:02.414Z</time></trkpt><trkpt lat="30.9755767" lon="-7.09722"><ele>1215.0</ele><time>2026-04-25T09:18:03.414Z</time></trkpt><trkpt lat="30.9755567" lon="-7.0974383"><ele>1214.6666666666667</ele><time>2026-04-25T09:18:04.415Z</time></trkpt><trkpt lat="30.9755367" lon="-7.0976583"><ele>1214.3333333333335</ele><time>2026-04-25T09:18:05.414Z</time></trkpt><trkpt lat="30.9755117" lon="-7.09788"><ele>1214.0</ele><time>2026-04-25T09:18:06.414Z</time></trkpt><trkpt lat="30.97549" lon="-7.09811"><ele>1211.6666666666667</ele><time>2026-04-25T09:18:07.414Z</time></trkpt><trkpt lat="30.97547" lon="-7.0983433"><ele>1209.3333333333333</ele><time>2026-04-25T09:18:08.414Z</time></trkpt><trkpt lat="30.9754483" lon="-7.0985717"><ele>1207.0</ele><time>2026-04-25T09:18:09.414Z</time></trkpt><trkpt lat="30.975425" lon="-7.0987933"><ele>1207.0</ele><time>2026-04-25T09:18:10.414Z</time></trkpt><trkpt lat="30.9754017" lon="-7.099005"><ele>1207.0</ele><time>2026-04-25T09:18:11.414Z</time></trkpt><trkpt lat="30.97538" lon="-7.09922"><ele>1207.0</ele><time>2026-04-25T09:18:12.414Z</time></trkpt><trkpt lat="30.9753533" lon="-7.09944"><ele>1206.3333333333333</ele><time>2026-04-25T09:18:13.414Z</time></trkpt><trkpt lat="30.9753317" lon="-7.0996617"><ele>1205.6666666666667</ele><time>2026-04-25T09:18:14.414Z</time></trkpt><trkpt lat="30.97531" lon="-7.0998883"><ele>1205.0</ele><time>2026-04-25T09:18:15.414Z</time></trkpt><trkpt lat="30.975285" lon="-7.1001083"><ele>1204.6666666666667</ele><time>2026-04-25T09:18:16.414Z</time></trkpt><trkpt lat="30.975265" lon="-7.10032"><ele>1204.3333333333333</ele><time>2026-04-25T09:18:17.414Z</time></trkpt><trkpt lat="30.9752417" lon="-7.1005217"><ele>1204.0</ele><time>2026-04-25T09:18:18.414Z</time></trkpt><trkpt lat="30.97522" lon="-7.1007167"><ele>1204.3333333333333</ele><time>2026-04-25T09:18:19.414Z</time></trkpt><trkpt lat="30.9751967" lon="-7.1009117"><ele>1204.6666666666667</ele><time>2026-04-25T09:18:20.414Z</time></trkpt><trkpt lat="30.9751733" lon="-7.1011017"><ele>1205.0</ele><time>2026-04-25T09:18:21.414Z</time></trkpt><trkpt lat="30.975155" lon="-7.101275"><ele>1205.0</ele><time>2026-04-25T09:18:22.414Z</time></trkpt><trkpt lat="30.975135" lon="-7.1014233"><ele>1205.0</ele><time>2026-04-25T09:18:23.414Z</time></trkpt><trkpt lat="30.9751217" lon="-7.101545"><ele>1205.0</ele><time>2026-04-25T09:18:24.414Z</time></trkpt><trkpt lat="30.9751083" lon="-7.1016517"><ele>1205.0</ele><time>2026-04-25T09:18:25.414Z</time></trkpt><trkpt lat="30.9750967" lon="-7.1017467"><ele>1205.0</ele><time>2026-04-25T09:18:26.414Z</time></trkpt><trkpt lat="30.97509" lon="-7.1018333"><ele>1205.5714285714287</ele><time>2026-04-25T09:18:27.414Z</time></trkpt><trkpt lat="30.97508" lon="-7.1019167"><ele>1206.142857142857</ele><time>2026-04-25T09:18:28.414Z</time></trkpt><trkpt lat="30.9750733" lon="-7.1019933"><ele>1206.7142857142858</ele><time>2026-04-25T09:18:29.414Z</time></trkpt><trkpt lat="30.9750633" lon="-7.10207"><ele>1207.2857142857142</ele><time>2026-04-25T09:18:30.414Z</time></trkpt><trkpt lat="30.9750533" lon="-7.1021567"><ele>1207.857142857143</ele><time>2026-04-25T09:18:31.414Z</time></trkpt><trkpt lat="30.975045" lon="-7.1022467"><ele>1208.4285714285713</ele><time>2026-04-25T09:18:32.414Z</time></trkpt><trkpt lat="30.975035" lon="-7.102345"><ele>1209.0</ele><time>2026-04-25T09:18:33.414Z</time></trkpt><trkpt lat="30.9750267" lon="-7.1024517"><ele>1209.8</ele><time>2026-04-25T09:18:34.414Z</time></trkpt><trkpt lat="30.9750183" lon="-7.1025633"><ele>1210.6000000000001</ele><time>2026-04-25T09:18:35.414Z</time></trkpt><trkpt lat="30.97501" lon="-7.1026733"><ele>1211.4</ele><time>2026-04-25T09:18:36.414Z</time></trkpt><trkpt lat="30.9749983" lon="-7.10279"><ele>1212.2</ele><time>2026-04-25T09:18:37.414Z</time></trkpt><trkpt lat="30.974985" lon="-7.102905"><ele>1213.0</ele><time>2026-04-25T09:18:38.414Z</time></trkpt><trkpt lat="30.97497" lon="-7.10302"><ele>1213.0</ele><time>2026-04-25T09:18:39.414Z</time></trkpt><trkpt lat="30.974955" lon="-7.1031417"><ele>1213.0</ele><time>2026-04-25T09:18:40.414Z</time></trkpt><trkpt lat="30.9749383" lon="-7.1032583"><ele>1213.0</ele><time>2026-04-25T09:18:41.414Z</time></trkpt><trkpt lat="30.9749283" lon="-7.1033867"><ele>1213.0</ele><time>2026-04-25T09:18:42.414Z</time></trkpt><trkpt lat="30.97492" lon="-7.1035067"><ele>1213.0</ele><time>2026-04-25T09:18:43.414Z</time></trkpt><trkpt lat="30.97491" lon="-7.10362"><ele>1212.5</ele><time>2026-04-25T09:18:44.414Z</time></trkpt><trkpt lat="30.9749017" lon="-7.10372"><ele>1212.0</ele><time>2026-04-25T09:18:45.414Z</time></trkpt><trkpt lat="30.9748917" lon="-7.1038167"><ele>1211.5</ele><time>2026-04-25T09:18:46.414Z</time></trkpt><trkpt lat="30.9748817" lon="-7.10391"><ele>1211.0</ele><time>2026-04-25T09:18:47.415Z</time></trkpt><trkpt lat="30.9748733" lon="-7.1039967"><ele>1210.5</ele><time>2026-04-25T09:18:48.414Z</time></trkpt><trkpt lat="30.9748633" lon="-7.1040833"><ele>1210.0</ele><time>2026-04-25T09:18:49.414Z</time></trkpt><trkpt lat="30.974855" lon="-7.1041633"><ele>1210.0</ele><time>2026-04-25T09:18:50.414Z</time></trkpt><trkpt lat="30.9748517" lon="-7.10424"><ele>1210.0</ele><time>2026-04-25T09:18:51.414Z</time></trkpt><trkpt lat="30.9748433" lon="-7.1043783"><ele>1210.0</ele><time>2026-04-25T09:18:53.414Z</time></trkpt><trkpt lat="30.9748233" lon="-7.1045117"><ele>1210.0</ele><time>2026-04-25T09:18:55.415Z</time></trkpt><trkpt lat="30.9748133" lon="-7.104595"><ele>1210.0</ele><time>2026-04-25T09:18:56.414Z</time></trkpt><trkpt lat="30.9748033" lon="-7.1046733"><ele>1210.0</ele><time>2026-04-25T09:18:57.414Z</time></trkpt><trkpt lat="30.9747967" lon="-7.1047533"><ele>1210.0</ele><time>2026-04-25T09:18:58.414Z</time></trkpt><trkpt lat="30.9747933" lon="-7.10484"><ele>1210.0</ele><time>2026-04-25T09:18:59.414Z</time></trkpt><trkpt lat="30.97479" lon="-7.1049233"><ele>1210.0</ele><time>2026-04-25T09:19:00.414Z</time></trkpt><trkpt lat="30.9747783" lon="-7.1050117"><ele>1210.0</ele><time>2026-04-25T09:19:01.414Z</time></trkpt><trkpt lat="30.97477" lon="-7.1050967"><ele>1210.0</ele><time>2026-04-25T09:19:02.414Z</time></trkpt><trkpt lat="30.974765" lon="-7.1051783"><ele>1210.0</ele><time>2026-04-25T09:19:03.414Z</time></trkpt><trkpt lat="30.9747567" lon="-7.1052583"><ele>1210.0</ele><time>2026-04-25T09:19:04.414Z</time></trkpt><trkpt lat="30.97475" lon="-7.1053467"><ele>1210.0</ele><time>2026-04-25T09:19:05.414Z</time></trkpt><trkpt lat="30.9747417" lon="-7.105435"><ele>1210.0</ele><time>2026-04-25T09:19:06.414Z</time></trkpt><trkpt lat="30.9747383" lon="-7.1055333"><ele>1210.0</ele><time>2026-04-25T09:19:07.414Z</time></trkpt><trkpt lat="30.9747283" lon="-7.1056317"><ele>1210.0</ele><time>2026-04-25T09:19:08.415Z</time></trkpt><trkpt lat="30.9747167" lon="-7.10573"><ele>1210.0</ele><time>2026-04-25T09:19:09.414Z</time></trkpt><trkpt lat="30.974705" lon="-7.1058217"><ele>1210.0</ele><time>2026-04-25T09:19:10.414Z</time></trkpt><trkpt lat="30.974695" lon="-7.1059033"><ele>1209.6666666666665</ele><time>2026-04-25T09:19:11.414Z</time></trkpt><trkpt lat="30.9746867" lon="-7.1059833"><ele>1209.3333333333333</ele><time>2026-04-25T09:19:12.414Z</time></trkpt><trkpt lat="30.9746767" lon="-7.1060633"><ele>1209.0</ele><time>2026-04-25T09:19:13.414Z</time></trkpt><trkpt lat="30.97467" lon="-7.10614"><ele>1208.6666666666667</ele><time>2026-04-25T09:19:14.414Z</time></trkpt><trkpt lat="30.974665" lon="-7.1062883"><ele>1208.3333333333335</ele><time>2026-04-25T09:19:16.414Z</time></trkpt><trkpt lat="30.9746617" lon="-7.106365"><ele>1208.0</ele><time>2026-04-25T09:19:17.414Z</time></trkpt><trkpt lat="30.9746533" lon="-7.106445"><ele>1208.0000000000002</ele><time>2026-04-25T09:19:18.414Z</time></trkpt><trkpt lat="30.9746433" lon="-7.1065267"><ele>1208.0</ele><time>2026-04-25T09:19:19.414Z</time></trkpt><trkpt lat="30.9746317" lon="-7.1066117"><ele>1208.0</ele><time>2026-04-25T09:19:20.414Z</time></trkpt><trkpt lat="30.9746183" lon="-7.106695"><ele>1208.0</ele><time>2026-04-25T09:19:21.415Z</time></trkpt><trkpt lat="30.974605" lon="-7.1067817"><ele>1208.0</ele><time>2026-04-25T09:19:22.414Z</time></trkpt><trkpt lat="30.9745933" lon="-7.1068717"><ele>1208.0000000000002</ele><time>2026-04-25T09:19:23.414Z</time></trkpt><trkpt lat="30.974585" lon="-7.106955"><ele>1208.0</ele><time>2026-04-25T09:19:24.414Z</time></trkpt><trkpt lat="30.9745817" lon="-7.1070317"><ele>1208.4</ele><time>2026-04-25T09:19:25.415Z</time></trkpt><trkpt lat="30.974585" lon="-7.1071733"><ele>1208.8</ele><time>2026-04-25T09:19:27.414Z</time></trkpt><trkpt lat="30.9745683" lon="-7.1072967"><ele>1209.2</ele><time>2026-04-25T09:19:29.415Z</time></trkpt><trkpt lat="30.9745567" lon="-7.1073933"><ele>1209.6</ele><time>2026-04-25T09:19:31.414Z</time></trkpt><trkpt lat="30.9745467" lon="-7.107475"><ele>1210.0</ele><time>2026-04-25T09:19:33.414Z</time></trkpt><trkpt lat="30.97454" lon="-7.1075567"><ele>1210.0</ele><time>2026-04-25T09:19:35.414Z</time></trkpt><trkpt lat="30.9745333" lon="-7.107635"><ele>1210.0</ele><time>2026-04-25T09:19:37.414Z</time></trkpt><trkpt lat="30.97453" lon="-7.1077283"><ele>1210.0</ele><time>2026-04-25T09:19:40.414Z</time></trkpt><trkpt lat="30.974515" lon="-7.1078217"><ele>1210.0</ele><time>2026-04-25T09:19:43.414Z</time></trkpt><trkpt lat="30.974505" lon="-7.107905"><ele>1210.0</ele><time>2026-04-25T09:19:45.414Z</time></trkpt><trkpt lat="30.9744983" lon="-7.1079783"><ele>1210.0</ele><time>2026-04-25T09:19:46.414Z</time></trkpt><trkpt lat="30.9744867" lon="-7.10806"><ele>1210.0</ele><time>2026-04-25T09:19:47.414Z</time></trkpt><trkpt lat="30.9744717" lon="-7.1081517"><ele>1211.4</ele><time>2026-04-25T09:19:48.415Z</time></trkpt><trkpt lat="30.97446" lon="-7.1082583"><ele>1212.8</ele><time>2026-04-25T09:19:49.415Z</time></trkpt><trkpt lat="30.9744467" lon="-7.108375"><ele>1214.2</ele><time>2026-04-25T09:19:50.414Z</time></trkpt><trkpt lat="30.9744317" lon="-7.1084983"><ele>1215.6</ele><time>2026-04-25T09:19:51.414Z</time></trkpt><trkpt lat="30.9744133" lon="-7.1086183"><ele>1217.0</ele><time>2026-04-25T09:19:52.414Z</time></trkpt><trkpt lat="30.9744033" lon="-7.1087533"><ele>1217.0</ele><time>2026-04-25T09:19:53.414Z</time></trkpt><trkpt lat="30.974395" lon="-7.1088933"><ele>1217.0</ele><time>2026-04-25T09:19:54.414Z</time></trkpt><trkpt lat="30.974395" lon="-7.10904"><ele>1217.0</ele><time>2026-04-25T09:19:55.414Z</time></trkpt><trkpt lat="30.974405" lon="-7.109195"><ele>1217.0</ele><time>2026-04-25T09:19:56.414Z</time></trkpt><trkpt lat="30.9744117" lon="-7.109345"><ele>1217.75</ele><time>2026-04-25T09:19:57.414Z</time></trkpt><trkpt lat="30.9744267" lon="-7.10949"><ele>1218.5</ele><time>2026-04-25T09:19:58.414Z</time></trkpt><trkpt lat="30.9744533" lon="-7.109635"><ele>1219.25</ele><time>2026-04-25T09:19:59.414Z</time></trkpt><trkpt lat="30.9744883" lon="-7.1097767"><ele>1220.0</ele><time>2026-04-25T09:20:00.414Z</time></trkpt><trkpt lat="30.9745183" lon="-7.10992"><ele>1218.0</ele><time>2026-04-25T09:20:01.414Z</time></trkpt><trkpt lat="30.97455" lon="-7.1100633"><ele>1216.0</ele><time>2026-04-25T09:20:02.414Z</time></trkpt><trkpt lat="30.974595" lon="-7.1102117"><ele>1214.0</ele><time>2026-04-25T09:20:03.415Z</time></trkpt><trkpt lat="30.9746483" lon="-7.11036"><ele>1212.0</ele><time>2026-04-25T09:20:04.414Z</time></trkpt><trkpt lat="30.974705" lon="-7.1105083"><ele>1212.0</ele><time>2026-04-25T09:20:05.414Z</time></trkpt><trkpt lat="30.9747683" lon="-7.1106483"><ele>1212.0</ele><time>2026-04-25T09:20:06.414Z</time></trkpt><trkpt lat="30.9748367" lon="-7.1107917"><ele>1212.0</ele><time>2026-04-25T09:20:07.414Z</time></trkpt><trkpt lat="30.97491" lon="-7.11093"><ele>1212.0</ele><time>2026-04-25T09:20:08.414Z</time></trkpt><trkpt lat="30.974975" lon="-7.11106"><ele>1211.5</ele><time>2026-04-25T09:20:09.414Z</time></trkpt><trkpt lat="30.97504" lon="-7.11119"><ele>1211.0</ele><time>2026-04-25T09:20:10.414Z</time></trkpt><trkpt lat="30.97511" lon="-7.111315"><ele>1210.5</ele><time>2026-04-25T09:20:11.414Z</time></trkpt><trkpt lat="30.9751833" lon="-7.11144"><ele>1210.0</ele><time>2026-04-25T09:20:12.414Z</time></trkpt><trkpt lat="30.97526" lon="-7.1115667"><ele>1209.0</ele><time>2026-04-25T09:20:13.414Z</time></trkpt><trkpt lat="30.97533" lon="-7.1116967"><ele>1208.0</ele><time>2026-04-25T09:20:14.414Z</time></trkpt><trkpt lat="30.9754017" lon="-7.1118317"><ele>1207.0</ele><time>2026-04-25T09:20:15.414Z</time></trkpt><trkpt lat="30.9754767" lon="-7.1119617"><ele>1206.0</ele><time>2026-04-25T09:20:16.414Z</time></trkpt><trkpt lat="30.9755533" lon="-7.112095"><ele>1206.0</ele><time>2026-04-25T09:20:17.414Z</time></trkpt><trkpt lat="30.97563" lon="-7.1122317"><ele>1206.0</ele><time>2026-04-25T09:20:18.414Z</time></trkpt><trkpt lat="30.9757083" lon="-7.1123683"><ele>1206.0</ele><time>2026-04-25T09:20:19.414Z</time></trkpt><trkpt lat="30.9757817" lon="-7.112505"><ele>1206.0</ele><time>2026-04-25T09:20:20.414Z</time></trkpt><trkpt lat="30.975855" lon="-7.11265"><ele>1206.75</ele><time>2026-04-25T09:20:21.414Z</time></trkpt><trkpt lat="30.9759333" lon="-7.1127967"><ele>1207.5</ele><time>2026-04-25T09:20:22.414Z</time></trkpt><trkpt lat="30.976015" lon="-7.1129433"><ele>1208.25</ele><time>2026-04-25T09:20:23.414Z</time></trkpt><trkpt lat="30.9760967" lon="-7.1130867"><ele>1209.0</ele><time>2026-04-25T09:20:24.414Z</time></trkpt><trkpt lat="30.9761767" lon="-7.113235"><ele>1209.0</ele><time>2026-04-25T09:20:25.414Z</time></trkpt><trkpt lat="30.9762583" lon="-7.1133717"><ele>1209.0</ele><time>2026-04-25T09:20:26.414Z</time></trkpt><trkpt lat="30.976335" lon="-7.1135083"><ele>1209.0</ele><time>2026-04-25T09:20:27.414Z</time></trkpt><trkpt lat="30.976405" lon="-7.11363"><ele>1209.0</ele><time>2026-04-25T09:20:28.414Z</time></trkpt><trkpt lat="30.97647" lon="-7.1137517"><ele>1209.0</ele><time>2026-04-25T09:20:29.414Z</time></trkpt><trkpt lat="30.97654" lon="-7.11388"><ele>1209.0</ele><time>2026-04-25T09:20:30.414Z</time></trkpt><trkpt lat="30.9766083" lon="-7.113995"><ele>1209.0</ele><time>2026-04-25T09:20:31.414Z</time></trkpt><trkpt lat="30.9766767" lon="-7.1141167"><ele>1209.0</ele><time>2026-04-25T09:20:32.415Z</time></trkpt><trkpt lat="30.9767417" lon="-7.1142417"><ele>1209.5</ele><time>2026-04-25T09:20:33.414Z</time></trkpt><trkpt lat="30.976805" lon="-7.1143633"><ele>1210.0</ele><time>2026-04-25T09:20:34.414Z</time></trkpt><trkpt lat="30.97687" lon="-7.1144917"><ele>1210.5</ele><time>2026-04-25T09:20:35.414Z</time></trkpt><trkpt lat="30.976945" lon="-7.1146183"><ele>1211.0</ele><time>2026-04-25T09:20:36.414Z</time></trkpt><trkpt lat="30.977015" lon="-7.11475"><ele>1211.0</ele><time>2026-04-25T09:20:37.414Z</time></trkpt><trkpt lat="30.9770833" lon="-7.11488"><ele>1211.0</ele><time>2026-04-25T09:20:38.414Z</time></trkpt><trkpt lat="30.9771517" lon="-7.1150083"><ele>1211.0</ele><time>2026-04-25T09:20:39.414Z</time></trkpt><trkpt lat="30.9772217" lon="-7.1151367"><ele>1211.0</ele><time>2026-04-25T09:20:40.414Z</time></trkpt><trkpt lat="30.977295" lon="-7.115265"><ele>1211.0</ele><time>2026-04-25T09:20:41.414Z</time></trkpt><trkpt lat="30.9773683" lon="-7.1153917"><ele>1211.0</ele><time>2026-04-25T09:20:42.414Z</time></trkpt><trkpt lat="30.97744" lon="-7.11552"><ele>1211.0</ele><time>2026-04-25T09:20:43.414Z</time></trkpt><trkpt lat="30.9775083" lon="-7.11565"><ele>1211.0</ele><time>2026-04-25T09:20:44.414Z</time></trkpt><trkpt lat="30.9775783" lon="-7.115785"><ele>1211.5</ele><time>2026-04-25T09:20:45.414Z</time></trkpt><trkpt lat="30.9776483" lon="-7.1159167"><ele>1212.0</ele><time>2026-04-25T09:20:46.414Z</time></trkpt><trkpt lat="30.9777233" lon="-7.1160517"><ele>1212.5</ele><time>2026-04-25T09:20:47.414Z</time></trkpt><trkpt lat="30.9777933" lon="-7.11618"><ele>1213.0</ele><time>2026-04-25T09:20:48.414Z</time></trkpt><trkpt lat="30.977865" lon="-7.1163083"><ele>1213.0</ele><time>2026-04-25T09:20:49.414Z</time></trkpt><trkpt lat="30.9779367" lon="-7.116445"><ele>1213.0</ele><time>2026-04-25T09:20:50.414Z</time></trkpt><trkpt lat="30.9780067" lon="-7.1165717"><ele>1213.0</ele><time>2026-04-25T09:20:51.414Z</time></trkpt><trkpt lat="30.9780767" lon="-7.1167017"><ele>1213.0</ele><time>2026-04-25T09:20:52.415Z</time></trkpt><trkpt lat="30.9781433" lon="-7.1168233"><ele>1213.0</ele><time>2026-04-25T09:20:53.414Z</time></trkpt><trkpt lat="30.97821" lon="-7.1169433"><ele>1213.0</ele><time>2026-04-25T09:20:54.414Z</time></trkpt><trkpt lat="30.9782767" lon="-7.1170617"><ele>1213.0</ele><time>2026-04-25T09:20:55.414Z</time></trkpt><trkpt lat="30.9783483" lon="-7.117185"><ele>1213.0</ele><time>2026-04-25T09:20:56.414Z</time></trkpt><trkpt lat="30.9784183" lon="-7.1173117"><ele>1213.25</ele><time>2026-04-25T09:20:57.414Z</time></trkpt><trkpt lat="30.97849" lon="-7.1174367"><ele>1213.5</ele><time>2026-04-25T09:20:58.414Z</time></trkpt><trkpt lat="30.978555" lon="-7.1175683"><ele>1213.75</ele><time>2026-04-25T09:20:59.415Z</time></trkpt><trkpt lat="30.9786267" lon="-7.1176967"><ele>1214.0</ele><time>2026-04-25T09:21:00.414Z</time></trkpt><trkpt lat="30.9786983" lon="-7.1178217"><ele>1214.0</ele><time>2026-04-25T09:21:01.415Z</time></trkpt><trkpt lat="30.978765" lon="-7.1179533"><ele>1214.0</ele><time>2026-04-25T09:21:02.414Z</time></trkpt><trkpt lat="30.9788333" lon="-7.1180817"><ele>1214.0</ele><time>2026-04-25T09:21:03.414Z</time></trkpt><trkpt lat="30.9789" lon="-7.1182083"><ele>1214.0</ele><time>2026-04-25T09:21:04.415Z</time></trkpt><trkpt lat="30.9789633" lon="-7.11833"><ele>1214.0</ele><time>2026-04-25T09:21:05.415Z</time></trkpt><trkpt lat="30.97903" lon="-7.1184467"><ele>1214.0</ele><time>2026-04-25T09:21:06.414Z</time></trkpt><trkpt lat="30.9790917" lon="-7.1185533"><ele>1214.0</ele><time>2026-04-25T09:21:07.414Z</time></trkpt><trkpt lat="30.9791517" lon="-7.1186567"><ele>1214.0</ele><time>2026-04-25T09:21:08.414Z</time></trkpt><trkpt lat="30.9791983" lon="-7.11875"><ele>1214.0</ele><time>2026-04-25T09:21:09.414Z</time></trkpt><trkpt lat="30.9792367" lon="-7.1188233"><ele>1214.0</ele><time>2026-04-25T09:21:10.414Z</time></trkpt><trkpt lat="30.9792867" lon="-7.118895"><ele>1214.0</ele><time>2026-04-25T09:21:32.414Z</time></trkpt><trkpt lat="30.9793383" lon="-7.11898"><ele>1214.0</ele><time>2026-04-25T09:21:35.414Z</time></trkpt><trkpt lat="30.979375" lon="-7.1190517"><ele>1214.0</ele><time>2026-04-25T09:21:37.413Z</time></trkpt><trkpt lat="30.9794233" lon="-7.1191367"><ele>1214.0</ele><time>2026-04-25T09:21:40.413Z</time></trkpt><trkpt lat="30.9794967" lon="-7.119235"><ele>1214.0</ele><time>2026-04-25T09:22:04.413Z</time></trkpt><trkpt lat="30.9795417" lon="-7.1192983"><ele>1214.0</ele><time>2026-04-25T09:22:06.413Z</time></trkpt><trkpt lat="30.97961" lon="-7.11942"><ele>1214.0</ele><time>2026-04-25T09:22:41.413Z</time></trkpt><trkpt lat="30.9796933" lon="-7.1195383"><ele>1214.0</ele><time>2026-04-25T09:22:43.413Z</time></trkpt><trkpt lat="30.9797383" lon="-7.119615"><ele>1214.0</ele><time>2026-04-25T09:22:44.413Z</time></trkpt><trkpt lat="30.97978" lon="-7.1196933"><ele>1214.0</ele><time>2026-04-25T09:22:45.413Z</time></trkpt><trkpt lat="30.9798233" lon="-7.11977"><ele>1214.0</ele><time>2026-04-25T09:22:46.413Z</time></trkpt><trkpt lat="30.9798633" lon="-7.1198383"><ele>1214.0</ele><time>2026-04-25T09:22:47.413Z</time></trkpt><trkpt lat="30.9799033" lon="-7.11991"><ele>1214.0</ele><time>2026-04-25T09:22:48.413Z</time></trkpt><trkpt lat="30.979945" lon="-7.1199833"><ele>1214.0</ele><time>2026-04-25T09:22:49.413Z</time></trkpt><trkpt lat="30.97999" lon="-7.1200583"><ele>1214.0</ele><time>2026-04-25T09:22:50.413Z</time></trkpt><trkpt lat="30.98003" lon="-7.1201367"><ele>1214.0</ele><time>2026-04-25T09:22:51.413Z</time></trkpt><trkpt lat="30.9800717" lon="-7.1202167"><ele>1213.8571428571427</ele><time>2026-04-25T09:22:52.413Z</time></trkpt><trkpt lat="30.98011" lon="-7.1202917"><ele>1213.7142857142858</ele><time>2026-04-25T09:22:53.413Z</time></trkpt><trkpt lat="30.9801467" lon="-7.120355"><ele>1213.5714285714284</ele><time>2026-04-25T09:22:54.413Z</time></trkpt><trkpt lat="30.98018" lon="-7.12042"><ele>1213.4285714285713</ele><time>2026-04-25T09:22:55.413Z</time></trkpt><trkpt lat="30.980215" lon="-7.12049"><ele>1213.2857142857142</ele><time>2026-04-25T09:22:56.413Z</time></trkpt><trkpt lat="30.980255" lon="-7.120565"><ele>1213.142857142857</ele><time>2026-04-25T09:22:57.413Z</time></trkpt><trkpt lat="30.98029" lon="-7.1206383"><ele>1213.0</ele><time>2026-04-25T09:22:58.414Z</time></trkpt><trkpt lat="30.9803283" lon="-7.1207033"><ele>1213.3333333333333</ele><time>2026-04-25T09:22:59.413Z</time></trkpt><trkpt lat="30.9803683" lon="-7.1207717"><ele>1213.6666666666665</ele><time>2026-04-25T09:23:00.413Z</time></trkpt><trkpt lat="30.9804033" lon="-7.1208417"><ele>1214.0</ele><time>2026-04-25T09:23:01.413Z</time></trkpt><trkpt lat="30.9804367" lon="-7.12091"><ele>1214.3333333333333</ele><time>2026-04-25T09:23:02.413Z</time></trkpt><trkpt lat="30.98047" lon="-7.1209733"><ele>1214.6666666666667</ele><time>2026-04-25T09:23:03.413Z</time></trkpt><trkpt lat="30.980505" lon="-7.1210367"><ele>1215.0</ele><time>2026-04-25T09:23:04.413Z</time></trkpt><trkpt lat="30.9805633" lon="-7.121155"><ele>1215.0</ele><time>2026-04-25T09:23:06.413Z</time></trkpt><trkpt lat="30.9806167" lon="-7.1212583"><ele>1215.0</ele><time>2026-04-25T09:23:08.413Z</time></trkpt><trkpt lat="30.9806717" lon="-7.12135"><ele>1215.0</ele><time>2026-04-25T09:23:10.413Z</time></trkpt><trkpt lat="30.98072" lon="-7.121435"><ele>1215.0</ele><time>2026-04-25T09:23:12.413Z</time></trkpt><trkpt lat="30.9807583" lon="-7.1215217"><ele>1215.0</ele><time>2026-04-25T09:23:14.413Z</time></trkpt><trkpt lat="30.9808017" lon="-7.121645"><ele>1215.0</ele><time>2026-04-25T09:23:16.413Z</time></trkpt><trkpt lat="30.98084" lon="-7.121725"><ele>1215.0</ele><time>2026-04-25T09:23:17.413Z</time></trkpt><trkpt lat="30.9808833" lon="-7.12182"><ele>1215.0</ele><time>2026-04-25T09:23:18.413Z</time></trkpt><trkpt lat="30.98093" lon="-7.12191"><ele>1215.0</ele><time>2026-04-25T09:23:19.413Z</time></trkpt><trkpt lat="30.980975" lon="-7.1219983"><ele>1215.0</ele><time>2026-04-25T09:23:20.413Z</time></trkpt><trkpt lat="30.9810183" lon="-7.12208"><ele>1215.0</ele><time>2026-04-25T09:23:21.413Z</time></trkpt><trkpt lat="30.981065" lon="-7.122165"><ele>1215.0</ele><time>2026-04-25T09:23:22.413Z</time></trkpt><trkpt lat="30.981115" lon="-7.12226"><ele>1215.0</ele><time>2026-04-25T09:23:23.413Z</time></trkpt><trkpt lat="30.9811617" lon="-7.1223633"><ele>1215.0</ele><time>2026-04-25T09:23:24.413Z</time></trkpt><trkpt lat="30.9812133" lon="-7.1224567"><ele>1215.0</ele><time>2026-04-25T09:23:25.413Z</time></trkpt><trkpt lat="30.981265" lon="-7.12255"><ele>1215.0</ele><time>2026-04-25T09:23:26.413Z</time></trkpt><trkpt lat="30.9813117" lon="-7.1226367"><ele>1215.0</ele><time>2026-04-25T09:23:27.413Z</time></trkpt><trkpt lat="30.9813533" lon="-7.1227283"><ele>1215.0</ele><time>2026-04-25T09:23:28.413Z</time></trkpt><trkpt lat="30.9814" lon="-7.12283"><ele>1215.0</ele><time>2026-04-25T09:23:29.413Z</time></trkpt><trkpt lat="30.9814583" lon="-7.1229417"><ele>1215.0</ele><time>2026-04-25T09:23:30.413Z</time></trkpt><trkpt lat="30.9815317" lon="-7.123065"><ele>1215.0</ele><time>2026-04-25T09:23:31.413Z</time></trkpt><trkpt lat="30.9816067" lon="-7.1231967"><ele>1214.6666666666667</ele><time>2026-04-25T09:23:32.413Z</time></trkpt><trkpt lat="30.9816833" lon="-7.1233417"><ele>1214.3333333333335</ele><time>2026-04-25T09:23:33.413Z</time></trkpt><trkpt lat="30.98177" lon="-7.123495"><ele>1214.0</ele><time>2026-04-25T09:23:34.413Z</time></trkpt><trkpt lat="30.9818617" lon="-7.123655"><ele>1214.0</ele><time>2026-04-25T09:23:35.413Z</time></trkpt><trkpt lat="30.9819567" lon="-7.1238233"><ele>1214.0</ele><time>2026-04-25T09:23:36.414Z</time></trkpt><trkpt lat="30.982055" lon="-7.1239967"><ele>1214.0</ele><time>2026-04-25T09:23:37.413Z</time></trkpt><trkpt lat="30.98216" lon="-7.1241817"><ele>1214.3333333333335</ele><time>2026-04-25T09:23:38.413Z</time></trkpt><trkpt lat="30.9822617" lon="-7.1243683"><ele>1214.6666666666667</ele><time>2026-04-25T09:23:39.413Z</time></trkpt><trkpt lat="30.98237" lon="-7.1245617"><ele>1215.0</ele><time>2026-04-25T09:23:40.413Z</time></trkpt><trkpt lat="30.982475" lon="-7.124755"><ele>1215.3333333333333</ele><time>2026-04-25T09:23:41.414Z</time></trkpt><trkpt lat="30.982575" lon="-7.12494"><ele>1215.6666666666665</ele><time>2026-04-25T09:23:42.413Z</time></trkpt><trkpt lat="30.9826767" lon="-7.12512"><ele>1216.0</ele><time>2026-04-25T09:23:43.413Z</time></trkpt><trkpt lat="30.9827767" lon="-7.1253017"><ele>1216.0</ele><time>2026-04-25T09:23:44.413Z</time></trkpt><trkpt lat="30.982875" lon="-7.12549"><ele>1216.0</ele><time>2026-04-25T09:23:45.413Z</time></trkpt><trkpt lat="30.9829767" lon="-7.1256733"><ele>1216.0</ele><time>2026-04-25T09:23:46.413Z</time></trkpt><trkpt lat="30.9830717" lon="-7.12586"><ele>1216.0</ele><time>2026-04-25T09:23:47.413Z</time></trkpt><trkpt lat="30.9831717" lon="-7.1260483"><ele>1216.0</ele><time>2026-04-25T09:23:48.413Z</time></trkpt><trkpt lat="30.9832733" lon="-7.1262333"><ele>1216.0</ele><time>2026-04-25T09:23:49.413Z</time></trkpt><trkpt lat="30.98337" lon="-7.1264133"><ele>1215.6666666666665</ele><time>2026-04-25T09:23:50.413Z</time></trkpt><trkpt lat="30.9834683" lon="-7.1265883"><ele>1215.3333333333333</ele><time>2026-04-25T09:23:51.413Z</time></trkpt><trkpt lat="30.9835633" lon="-7.1267633"><ele>1215.0</ele><time>2026-04-25T09:23:52.414Z</time></trkpt><trkpt lat="30.9836633" lon="-7.1269383"><ele>1215.0</ele><time>2026-04-25T09:23:53.413Z</time></trkpt><trkpt lat="30.983755" lon="-7.1271133"><ele>1215.0</ele><time>2026-04-25T09:23:54.413Z</time></trkpt><trkpt lat="30.9838467" lon="-7.1272833"><ele>1215.0</ele><time>2026-04-25T09:23:55.413Z</time></trkpt><trkpt lat="30.9839417" lon="-7.12746"><ele>1215.3333333333333</ele><time>2026-04-25T09:23:56.413Z</time></trkpt><trkpt lat="30.984035" lon="-7.12763"><ele>1215.6666666666665</ele><time>2026-04-25T09:23:57.413Z</time></trkpt><trkpt lat="30.98413" lon="-7.1277967"><ele>1216.0</ele><time>2026-04-25T09:23:58.413Z</time></trkpt><trkpt lat="30.9842217" lon="-7.1279633"><ele>1217.0</ele><time>2026-04-25T09:23:59.413Z</time></trkpt><trkpt lat="30.98431" lon="-7.1281317"><ele>1218.0</ele><time>2026-04-25T09:24:00.413Z</time></trkpt><trkpt lat="30.984405" lon="-7.1283033"><ele>1219.0</ele><time>2026-04-25T09:24:01.413Z</time></trkpt><trkpt lat="30.9844983" lon="-7.1284733"><ele>1220.0</ele><time>2026-04-25T09:24:02.413Z</time></trkpt><trkpt lat="30.984595" lon="-7.1286417"><ele>1221.0</ele><time>2026-04-25T09:24:03.413Z</time></trkpt><trkpt lat="30.9846883" lon="-7.1288117"><ele>1222.0</ele><time>2026-04-25T09:24:04.413Z</time></trkpt><trkpt lat="30.9847817" lon="-7.12898"><ele>1222.0</ele><time>2026-04-25T09:24:05.413Z</time></trkpt><trkpt lat="30.9848717" lon="-7.1291483"><ele>1222.0</ele><time>2026-04-25T09:24:06.413Z</time></trkpt><trkpt lat="30.9849667" lon="-7.1293133"><ele>1222.0</ele><time>2026-04-25T09:24:07.413Z</time></trkpt><trkpt lat="30.9850567" lon="-7.129485"><ele>1222.0</ele><time>2026-04-25T09:24:08.413Z</time></trkpt><trkpt lat="30.98514" lon="-7.1296533"><ele>1222.0</ele><time>2026-04-25T09:24:09.413Z</time></trkpt><trkpt lat="30.98523" lon="-7.129815"><ele>1222.0</ele><time>2026-04-25T09:24:10.413Z</time></trkpt><trkpt lat="30.9853167" lon="-7.129975"><ele>1222.3333333333333</ele><time>2026-04-25T09:24:11.413Z</time></trkpt><trkpt lat="30.9854067" lon="-7.130135"><ele>1222.6666666666667</ele><time>2026-04-25T09:24:12.413Z</time></trkpt><trkpt lat="30.9854933" lon="-7.1302967"><ele>1223.0</ele><time>2026-04-25T09:24:13.414Z</time></trkpt><trkpt lat="30.9855767" lon="-7.1304617"><ele>1223.0</ele><time>2026-04-25T09:24:14.413Z</time></trkpt><trkpt lat="30.985665" lon="-7.1306133"><ele>1223.0</ele><time>2026-04-25T09:24:15.413Z</time></trkpt><trkpt lat="30.98575" lon="-7.130765"><ele>1223.0</ele><time>2026-04-25T09:24:16.413Z</time></trkpt><trkpt lat="30.9858333" lon="-7.1309233"><ele>1223.6666666666667</ele><time>2026-04-25T09:24:17.414Z</time></trkpt><trkpt lat="30.9859167" lon="-7.1310767"><ele>1224.3333333333333</ele><time>2026-04-25T09:24:18.413Z</time></trkpt><trkpt lat="30.98601" lon="-7.13124"><ele>1225.0</ele><time>2026-04-25T09:24:19.413Z</time></trkpt><trkpt lat="30.9861" lon="-7.131405"><ele>1225.0</ele><time>2026-04-25T09:24:20.413Z</time></trkpt><trkpt lat="30.9861867" lon="-7.1315667"><ele>1225.0</ele><time>2026-04-25T09:24:21.413Z</time></trkpt><trkpt lat="30.98627" lon="-7.1317317"><ele>1225.0</ele><time>2026-04-25T09:24:22.413Z</time></trkpt><trkpt lat="30.9863533" lon="-7.1318883"><ele>1225.0</ele><time>2026-04-25T09:24:23.413Z</time></trkpt><trkpt lat="30.9864433" lon="-7.1320433"><ele>1225.0</ele><time>2026-04-25T09:24:24.413Z</time></trkpt><trkpt lat="30.9865317" lon="-7.1321983"><ele>1225.0</ele><time>2026-04-25T09:24:25.413Z</time></trkpt><trkpt lat="30.9866183" lon="-7.1323483"><ele>1225.75</ele><time>2026-04-25T09:24:26.413Z</time></trkpt><trkpt lat="30.9866967" lon="-7.1324933"><ele>1226.5</ele><time>2026-04-25T09:24:27.413Z</time></trkpt><trkpt lat="30.9867783" lon="-7.132635"><ele>1227.25</ele><time>2026-04-25T09:24:28.413Z</time></trkpt><trkpt lat="30.9868567" lon="-7.1327767"><ele>1228.0</ele><time>2026-04-25T09:24:29.413Z</time></trkpt><trkpt lat="30.9869317" lon="-7.132915"><ele>1228.0</ele><time>2026-04-25T09:24:30.413Z</time></trkpt><trkpt lat="30.9869983" lon="-7.1330467"><ele>1228.0</ele><time>2026-04-25T09:24:31.413Z</time></trkpt><trkpt lat="30.9870633" lon="-7.13317"><ele>1228.0</ele><time>2026-04-25T09:24:32.413Z</time></trkpt><trkpt lat="30.9871317" lon="-7.13329"><ele>1228.0</ele><time>2026-04-25T09:24:33.413Z</time></trkpt><trkpt lat="30.9872" lon="-7.1334033"><ele>1227.2</ele><time>2026-04-25T09:24:34.413Z</time></trkpt><trkpt lat="30.9872667" lon="-7.1335117"><ele>1226.4</ele><time>2026-04-25T09:24:35.414Z</time></trkpt><trkpt lat="30.9873283" lon="-7.1336133"><ele>1225.6000000000001</ele><time>2026-04-25T09:24:36.413Z</time></trkpt><trkpt lat="30.98738" lon="-7.133705"><ele>1224.8</ele><time>2026-04-25T09:24:37.413Z</time></trkpt><trkpt lat="30.9874267" lon="-7.1337917"><ele>1224.0</ele><time>2026-04-25T09:24:38.413Z</time></trkpt><trkpt lat="30.9874717" lon="-7.13387"><ele>1224.0</ele><time>2026-04-25T09:24:39.413Z</time></trkpt><trkpt lat="30.98751" lon="-7.1339417"><ele>1224.0</ele><time>2026-04-25T09:24:40.413Z</time></trkpt><trkpt lat="30.987545" lon="-7.1340033"><ele>1224.0</ele><time>2026-04-25T09:24:41.413Z</time></trkpt><trkpt lat="30.9876067" lon="-7.1341117"><ele>1224.0</ele><time>2026-04-25T09:24:43.413Z</time></trkpt><trkpt lat="30.9876483" lon="-7.1341867"><ele>1224.0</ele><time>2026-04-25T09:24:45.413Z</time></trkpt><trkpt lat="30.98759" lon="-7.1342533"><ele>1224.0</ele><time>2026-04-25T09:27:40.416Z</time></trkpt><trkpt lat="30.9875317" lon="-7.13418"><ele>1224.0</ele><time>2026-04-25T09:27:42.416Z</time></trkpt><trkpt lat="30.9874667" lon="-7.1340433"><ele>1224.0</ele><time>2026-04-25T09:27:44.416Z</time></trkpt><trkpt lat="30.9874233" lon="-7.1339617"><ele>1224.0</ele><time>2026-04-25T09:27:45.416Z</time></trkpt><trkpt lat="30.9873733" lon="-7.13387"><ele>1224.0</ele><time>2026-04-25T09:27:46.417Z</time></trkpt><trkpt lat="30.987325" lon="-7.13377"><ele>1224.0</ele><time>2026-04-25T09:27:47.416Z</time></trkpt><trkpt lat="30.9872717" lon="-7.1336683"><ele>1224.0</ele><time>2026-04-25T09:27:48.416Z</time></trkpt><trkpt lat="30.9872117" lon="-7.1335583"><ele>1224.0</ele><time>2026-04-25T09:27:49.416Z</time></trkpt><trkpt lat="30.98715" lon="-7.1334433"><ele>1224.0</ele><time>2026-04-25T09:27:50.416Z</time></trkpt><trkpt lat="30.9870833" lon="-7.13333"><ele>1224.0</ele><time>2026-04-25T09:27:51.416Z</time></trkpt><trkpt lat="30.9870233" lon="-7.1332217"><ele>1225.0</ele><time>2026-04-25T09:27:52.416Z</time></trkpt><trkpt lat="30.9869617" lon="-7.13311"><ele>1226.0</ele><time>2026-04-25T09:27:53.416Z</time></trkpt><trkpt lat="30.9868983" lon="-7.132995"><ele>1227.0</ele><time>2026-04-25T09:27:54.416Z</time></trkpt><trkpt lat="30.9868317" lon="-7.1328783"><ele>1228.0</ele><time>2026-04-25T09:27:55.417Z</time></trkpt><trkpt lat="30.986775" lon="-7.1327667"><ele>1228.0</ele><time>2026-04-25T09:27:56.416Z</time></trkpt><trkpt lat="30.986715" lon="-7.1326367"><ele>1228.0</ele><time>2026-04-25T09:27:57.416Z</time></trkpt><trkpt lat="30.9866467" lon="-7.1325083"><ele>1228.0</ele><time>2026-04-25T09:27:58.416Z</time></trkpt><trkpt lat="30.9865717" lon="-7.1323767"><ele>1228.0</ele><time>2026-04-25T09:27:59.416Z</time></trkpt><trkpt lat="30.9865" lon="-7.1322417"><ele>1227.25</ele><time>2026-04-25T09:28:00.416Z</time></trkpt><trkpt lat="30.9864217" lon="-7.132105"><ele>1226.5</ele><time>2026-04-25T09:28:01.416Z</time></trkpt><trkpt lat="30.9863433" lon="-7.1319667"><ele>1225.75</ele><time>2026-04-25T09:28:02.417Z</time></trkpt><trkpt lat="30.9862633" lon="-7.1318217"><ele>1225.0</ele><time>2026-04-25T09:28:03.416Z</time></trkpt><trkpt lat="30.9861833" lon="-7.1316733"><ele>1225.0</ele><time>2026-04-25T09:28:04.416Z</time></trkpt><trkpt lat="30.9861033" lon="-7.1315167"><ele>1225.0</ele><time>2026-04-25T09:28:05.416Z</time></trkpt><trkpt lat="30.9860233" lon="-7.1313633"><ele>1225.0</ele><time>2026-04-25T09:28:06.416Z</time></trkpt><trkpt lat="30.98594" lon="-7.1312067"><ele>1225.0</ele><time>2026-04-25T09:28:07.416Z</time></trkpt><trkpt lat="30.985855" lon="-7.1310533"><ele>1225.0</ele><time>2026-04-25T09:28:08.416Z</time></trkpt><trkpt lat="30.9857717" lon="-7.130885"><ele>1225.0</ele><time>2026-04-25T09:28:09.416Z</time></trkpt><trkpt lat="30.9856833" lon="-7.130725"><ele>1224.3333333333333</ele><time>2026-04-25T09:28:10.416Z</time></trkpt><trkpt lat="30.9855917" lon="-7.1305583"><ele>1223.6666666666667</ele><time>2026-04-25T09:28:11.416Z</time></trkpt><trkpt lat="30.9854983" lon="-7.1303883"><ele>1223.0</ele><time>2026-04-25T09:28:12.416Z</time></trkpt><trkpt lat="30.9854033" lon="-7.1302117"><ele>1223.0</ele><time>2026-04-25T09:28:13.416Z</time></trkpt><trkpt lat="30.9853" lon="-7.1300383"><ele>1223.0</ele><time>2026-04-25T09:28:14.416Z</time></trkpt><trkpt lat="30.9852" lon="-7.1298567"><ele>1223.0</ele><time>2026-04-25T09:28:15.416Z</time></trkpt><trkpt lat="30.9851033" lon="-7.1296783"><ele>1223.0</ele><time>2026-04-25T09:28:16.416Z</time></trkpt><trkpt lat="30.9850083" lon="-7.1294967"><ele>1223.0</ele><time>2026-04-25T09:28:17.416Z</time></trkpt><trkpt lat="30.9849117" lon="-7.1293217"><ele>1223.0</ele><time>2026-04-25T09:28:18.416Z</time></trkpt><trkpt lat="30.9848183" lon="-7.1291517"><ele>1222.6666666666667</ele><time>2026-04-25T09:28:19.416Z</time></trkpt><trkpt lat="30.9847267" lon="-7.1289867"><ele>1222.3333333333333</ele><time>2026-04-25T09:28:20.416Z</time></trkpt><trkpt lat="30.98464" lon="-7.12882"><ele>1222.0</ele><time>2026-04-25T09:28:21.416Z</time></trkpt><trkpt lat="30.9845467" lon="-7.1286583"><ele>1222.0</ele><time>2026-04-25T09:28:22.416Z</time></trkpt><trkpt lat="30.98446" lon="-7.1284967"><ele>1222.0</ele><time>2026-04-25T09:28:23.416Z</time></trkpt><trkpt lat="30.9843683" lon="-7.1283317"><ele>1222.0</ele><time>2026-04-25T09:28:24.416Z</time></trkpt><trkpt lat="30.9842683" lon="-7.1281633"><ele>1220.0</ele><time>2026-04-25T09:28:25.416Z</time></trkpt><trkpt lat="30.9841767" lon="-7.1279917"><ele>1218.0</ele><time>2026-04-25T09:28:26.417Z</time></trkpt><trkpt lat="30.984085" lon="-7.1278217"><ele>1216.0</ele><time>2026-04-25T09:28:27.416Z</time></trkpt><trkpt lat="30.9839933" lon="-7.1276533"><ele>1216.0</ele><time>2026-04-25T09:28:28.416Z</time></trkpt><trkpt lat="30.9839017" lon="-7.127485"><ele>1216.0</ele><time>2026-04-25T09:28:29.417Z</time></trkpt><trkpt lat="30.9838067" lon="-7.12731"><ele>1216.0</ele><time>2026-04-25T09:28:30.416Z</time></trkpt><trkpt lat="30.9837117" lon="-7.127135"><ele>1215.6666666666665</ele><time>2026-04-25T09:28:31.416Z</time></trkpt><trkpt lat="30.983625" lon="-7.1269683"><ele>1215.3333333333333</ele><time>2026-04-25T09:28:32.416Z</time></trkpt><trkpt lat="30.9835283" lon="-7.126795"><ele>1215.0</ele><time>2026-04-25T09:28:33.417Z</time></trkpt><trkpt lat="30.9834317" lon="-7.12662"><ele>1215.6666666666667</ele><time>2026-04-25T09:28:34.416Z</time></trkpt><trkpt lat="30.9833367" lon="-7.1264417"><ele>1216.3333333333335</ele><time>2026-04-25T09:28:35.416Z</time></trkpt><trkpt lat="30.9832417" lon="-7.1262633"><ele>1217.0</ele><time>2026-04-25T09:28:36.416Z</time></trkpt><trkpt lat="30.9831433" lon="-7.126085"><ele>1217.0</ele><time>2026-04-25T09:28:37.416Z</time></trkpt><trkpt lat="30.983045" lon="-7.1259117"><ele>1217.0</ele><time>2026-04-25T09:28:38.416Z</time></trkpt><trkpt lat="30.98295" lon="-7.1257433"><ele>1217.0</ele><time>2026-04-25T09:28:39.416Z</time></trkpt><trkpt lat="30.9828517" lon="-7.1255633"><ele>1216.6666666666667</ele><time>2026-04-25T09:28:40.416Z</time></trkpt><trkpt lat="30.9827483" lon="-7.125385"><ele>1216.3333333333333</ele><time>2026-04-25T09:28:41.416Z</time></trkpt><trkpt lat="30.9826467" lon="-7.1252067"><ele>1216.0</ele><time>2026-04-25T09:28:42.416Z</time></trkpt><trkpt lat="30.9825467" lon="-7.1250217"><ele>1215.6666666666665</ele><time>2026-04-25T09:28:43.416Z</time></trkpt><trkpt lat="30.9824483" lon="-7.1248367"><ele>1215.3333333333333</ele><time>2026-04-25T09:28:44.416Z</time></trkpt><trkpt lat="30.9823483" lon="-7.1246483"><ele>1215.0</ele><time>2026-04-25T09:28:45.416Z</time></trkpt><trkpt lat="30.9822483" lon="-7.12446"><ele>1215.0</ele><time>2026-04-25T09:28:46.415Z</time></trkpt><trkpt lat="30.98215" lon="-7.124285"><ele>1215.0</ele><time>2026-04-25T09:28:47.415Z</time></trkpt><trkpt lat="30.98205" lon="-7.124095"><ele>1215.0</ele><time>2026-04-25T09:28:48.415Z</time></trkpt><trkpt lat="30.9819483" lon="-7.1239067"><ele>1215.0</ele><time>2026-04-25T09:28:49.415Z</time></trkpt><trkpt lat="30.981845" lon="-7.1237183"><ele>1215.0</ele><time>2026-04-25T09:28:50.415Z</time></trkpt><trkpt lat="30.9817417" lon="-7.1235283"><ele>1215.0</ele><time>2026-04-25T09:28:51.415Z</time></trkpt><trkpt lat="30.981635" lon="-7.1233383"><ele>1215.0</ele><time>2026-04-25T09:28:52.415Z</time></trkpt><trkpt lat="30.98153" lon="-7.1231483"><ele>1215.0</ele><time>2026-04-25T09:28:53.415Z</time></trkpt><trkpt lat="30.98143" lon="-7.12296"><ele>1215.0</ele><time>2026-04-25T09:28:54.415Z</time></trkpt><trkpt lat="30.9813233" lon="-7.12277"><ele>1215.0</ele><time>2026-04-25T09:28:55.415Z</time></trkpt><trkpt lat="30.9812167" lon="-7.1225817"><ele>1215.0</ele><time>2026-04-25T09:28:56.415Z</time></trkpt><trkpt lat="30.9811117" lon="-7.1223933"><ele>1215.0</ele><time>2026-04-25T09:28:57.415Z</time></trkpt><trkpt lat="30.9810067" lon="-7.1222083"><ele>1215.0</ele><time>2026-04-25T09:28:58.415Z</time></trkpt><trkpt lat="30.9809067" lon="-7.122015"><ele>1215.0</ele><time>2026-04-25T09:28:59.415Z</time></trkpt><trkpt lat="30.980805" lon="-7.121825"><ele>1215.0</ele><time>2026-04-25T09:29:00.415Z</time></trkpt><trkpt lat="30.98071" lon="-7.1216433"><ele>1215.0</ele><time>2026-04-25T09:29:01.415Z</time></trkpt><trkpt lat="30.9806117" lon="-7.1214633"><ele>1215.0</ele><time>2026-04-25T09:29:02.415Z</time></trkpt><trkpt lat="30.9805117" lon="-7.1212867"><ele>1215.0</ele><time>2026-04-25T09:29:03.415Z</time></trkpt><trkpt lat="30.9804083" lon="-7.12111"><ele>1215.0</ele><time>2026-04-25T09:29:04.415Z</time></trkpt><trkpt lat="30.9803133" lon="-7.1209367"><ele>1215.0</ele><time>2026-04-25T09:29:05.415Z</time></trkpt><trkpt lat="30.98022" lon="-7.1207633"><ele>1215.0</ele><time>2026-04-25T09:29:06.415Z</time></trkpt><trkpt lat="30.9801283" lon="-7.1205867"><ele>1214.3333333333333</ele><time>2026-04-25T09:29:07.415Z</time></trkpt><trkpt lat="30.9800317" lon="-7.1204117"><ele>1213.6666666666665</ele><time>2026-04-25T09:29:08.415Z</time></trkpt><trkpt lat="30.9799383" lon="-7.1202333"><ele>1213.0</ele><time>2026-04-25T09:29:09.415Z</time></trkpt><trkpt lat="30.979845" lon="-7.1200583"><ele>1213.3333333333333</ele><time>2026-04-25T09:29:10.415Z</time></trkpt><trkpt lat="30.9797517" lon="-7.1198883"><ele>1213.6666666666667</ele><time>2026-04-25T09:29:11.415Z</time></trkpt><trkpt lat="30.979655" lon="-7.1197167"><ele>1214.0</ele><time>2026-04-25T09:29:12.415Z</time></trkpt><trkpt lat="30.97956" lon="-7.1195433"><ele>1214.0</ele><time>2026-04-25T09:29:13.415Z</time></trkpt><trkpt lat="30.979465" lon="-7.1193667"><ele>1214.0</ele><time>2026-04-25T09:29:14.415Z</time></trkpt><trkpt lat="30.97937" lon="-7.1191967"><ele>1214.0</ele><time>2026-04-25T09:29:15.415Z</time></trkpt><trkpt lat="30.979275" lon="-7.11903"><ele>1214.0</ele><time>2026-04-25T09:29:16.415Z</time></trkpt><trkpt lat="30.9791883" lon="-7.1188667"><ele>1214.0</ele><time>2026-04-25T09:29:17.415Z</time></trkpt><trkpt lat="30.979105" lon="-7.1187083"><ele>1214.0</ele><time>2026-04-25T09:29:18.416Z</time></trkpt><trkpt lat="30.9790283" lon="-7.11856"><ele>1214.0</ele><time>2026-04-25T09:29:19.415Z</time></trkpt><trkpt lat="30.97895" lon="-7.1184167"><ele>1214.0</ele><time>2026-04-25T09:29:20.415Z</time></trkpt><trkpt lat="30.978865" lon="-7.1182733"><ele>1214.0</ele><time>2026-04-25T09:29:21.415Z</time></trkpt><trkpt lat="30.978785" lon="-7.1181283"><ele>1214.0</ele><time>2026-04-25T09:29:22.415Z</time></trkpt><trkpt lat="30.9787083" lon="-7.11798"><ele>1214.0</ele><time>2026-04-25T09:29:23.415Z</time></trkpt><trkpt lat="30.9786283" lon="-7.1178383"><ele>1214.0</ele><time>2026-04-25T09:29:24.415Z</time></trkpt><trkpt lat="30.9785483" lon="-7.1176967"><ele>1214.0</ele><time>2026-04-25T09:29:25.415Z</time></trkpt><trkpt lat="30.97847" lon="-7.117555"><ele>1214.0</ele><time>2026-04-25T09:29:26.415Z</time></trkpt><trkpt lat="30.97839" lon="-7.1174017"><ele>1213.25</ele><time>2026-04-25T09:29:27.415Z</time></trkpt><trkpt lat="30.9783167" lon="-7.1172683"><ele>1212.5</ele><time>2026-04-25T09:29:28.415Z</time></trkpt><trkpt lat="30.9782467" lon="-7.1171433"><ele>1211.75</ele><time>2026-04-25T09:29:29.415Z</time></trkpt><trkpt lat="30.9781867" lon="-7.1170467"><ele>1211.0</ele><time>2026-04-25T09:29:30.415Z</time></trkpt><trkpt lat="30.9781283" lon="-7.1169483"><ele>1211.0</ele><time>2026-04-25T09:29:31.415Z</time></trkpt><trkpt lat="30.9780767" lon="-7.116855"><ele>1211.0</ele><time>2026-04-25T09:29:32.415Z</time></trkpt><trkpt lat="30.9780283" lon="-7.11677"><ele>1211.0</ele><time>2026-04-25T09:29:33.415Z</time></trkpt><trkpt lat="30.9779833" lon="-7.1166917"><ele>1211.0</ele><time>2026-04-25T09:29:34.415Z</time></trkpt><trkpt lat="30.977935" lon="-7.1166133"><ele>1211.0</ele><time>2026-04-25T09:29:35.415Z</time></trkpt><trkpt lat="30.9778917" lon="-7.1165367"><ele>1211.0</ele><time>2026-04-25T09:29:36.415Z</time></trkpt><trkpt lat="30.9778467" lon="-7.1164517"><ele>1211.3999999999999</ele><time>2026-04-25T09:29:37.415Z</time></trkpt><trkpt lat="30.9778017" lon="-7.116365"><ele>1211.8</ele><time>2026-04-25T09:29:38.415Z</time></trkpt><trkpt lat="30.9777533" lon="-7.11628"><ele>1212.1999999999998</ele><time>2026-04-25T09:29:39.415Z</time></trkpt><trkpt lat="30.977705" lon="-7.116185"><ele>1212.6</ele><time>2026-04-25T09:29:40.415Z</time></trkpt><trkpt lat="30.97765" lon="-7.1160883"><ele>1213.0</ele><time>2026-04-25T09:29:41.415Z</time></trkpt><trkpt lat="30.9775983" lon="-7.11599"><ele>1213.0</ele><time>2026-04-25T09:29:42.415Z</time></trkpt><trkpt lat="30.9775383" lon="-7.1158967"><ele>1213.0</ele><time>2026-04-25T09:29:43.415Z</time></trkpt><trkpt lat="30.9774833" lon="-7.115795"><ele>1213.0</ele><time>2026-04-25T09:29:44.415Z</time></trkpt><trkpt lat="30.97743" lon="-7.1156867"><ele>1213.0</ele><time>2026-04-25T09:29:45.415Z</time></trkpt><trkpt lat="30.9773717" lon="-7.1155733"><ele>1213.0</ele><time>2026-04-25T09:29:46.415Z</time></trkpt><trkpt lat="30.977305" lon="-7.1154483"><ele>1212.5</ele><time>2026-04-25T09:29:47.415Z</time></trkpt><trkpt lat="30.9772317" lon="-7.1153117"><ele>1212.0</ele><time>2026-04-25T09:29:48.415Z</time></trkpt><trkpt lat="30.9771517" lon="-7.11516"><ele>1211.5</ele><time>2026-04-25T09:29:49.415Z</time></trkpt><trkpt lat="30.9770683" lon="-7.115005"><ele>1211.0</ele><time>2026-04-25T09:29:50.415Z</time></trkpt><trkpt lat="30.97698" lon="-7.1148533"><ele>1211.0</ele><time>2026-04-25T09:29:51.415Z</time></trkpt><trkpt lat="30.9768867" lon="-7.1146883"><ele>1211.0</ele><time>2026-04-25T09:29:52.415Z</time></trkpt><trkpt lat="30.9767933" lon="-7.1145167"><ele>1211.0</ele><time>2026-04-25T09:29:53.415Z</time></trkpt><trkpt lat="30.9766967" lon="-7.1143433"><ele>1211.0</ele><time>2026-04-25T09:29:54.415Z</time></trkpt><trkpt lat="30.9766033" lon="-7.1141683"><ele>1211.0</ele><time>2026-04-25T09:29:55.415Z</time></trkpt><trkpt lat="30.97651" lon="-7.1139983"><ele>1211.0</ele><time>2026-04-25T09:29:56.415Z</time></trkpt><trkpt lat="30.9764217" lon="-7.1138317"><ele>1210.3333333333335</ele><time>2026-04-25T09:29:57.415Z</time></trkpt><trkpt lat="30.9763267" lon="-7.1136567"><ele>1209.6666666666667</ele><time>2026-04-25T09:29:58.415Z</time></trkpt><trkpt lat="30.9762267" lon="-7.1134817"><ele>1209.0</ele><time>2026-04-25T09:29:59.415Z</time></trkpt><trkpt lat="30.9761283" lon="-7.113305"><ele>1209.0</ele><time>2026-04-25T09:30:00.415Z</time></trkpt><trkpt lat="30.9760217" lon="-7.1131217"><ele>1209.0</ele><time>2026-04-25T09:30:01.415Z</time></trkpt><trkpt lat="30.9759233" lon="-7.1129383"><ele>1209.0</ele><time>2026-04-25T09:30:02.415Z</time></trkpt><trkpt lat="30.9758283" lon="-7.1127567"><ele>1208.6666666666667</ele><time>2026-04-25T09:30:03.415Z</time></trkpt><trkpt lat="30.9757317" lon="-7.1125767"><ele>1208.3333333333335</ele><time>2026-04-25T09:30:04.415Z</time></trkpt><trkpt lat="30.9756367" lon="-7.1123967"><ele>1208.0</ele><time>2026-04-25T09:30:05.415Z</time></trkpt><trkpt lat="30.975535" lon="-7.11221"><ele>1207.3333333333335</ele><time>2026-04-25T09:30:06.415Z</time></trkpt><trkpt lat="30.9754333" lon="-7.1120217"><ele>1206.6666666666667</ele><time>2026-04-25T09:30:07.415Z</time></trkpt><trkpt lat="30.97533" lon="-7.111835"><ele>1206.0</ele><time>2026-04-25T09:30:08.415Z</time></trkpt><trkpt lat="30.9752233" lon="-7.1116433"><ele>1207.0</ele><time>2026-04-25T09:30:09.415Z</time></trkpt><trkpt lat="30.9751183" lon="-7.111455"><ele>1208.0</ele><time>2026-04-25T09:30:10.416Z</time></trkpt><trkpt lat="30.975015" lon="-7.11125"><ele>1209.0</ele><time>2026-04-25T09:30:11.415Z</time></trkpt><trkpt lat="30.9749167" lon="-7.11106"><ele>1209.0</ele><time>2026-04-25T09:30:12.415Z</time></trkpt><trkpt lat="30.9748233" lon="-7.110865"><ele>1209.0</ele><time>2026-04-25T09:30:13.415Z</time></trkpt><trkpt lat="30.974725" lon="-7.1106683"><ele>1209.0</ele><time>2026-04-25T09:30:14.415Z</time></trkpt><trkpt lat="30.9746333" lon="-7.1104717"><ele>1210.0</ele><time>2026-04-25T09:30:15.415Z</time></trkpt><trkpt lat="30.9745517" lon="-7.110265"><ele>1211.0</ele><time>2026-04-25T09:30:16.415Z</time></trkpt><trkpt lat="30.97449" lon="-7.1100567"><ele>1212.0</ele><time>2026-04-25T09:30:17.415Z</time></trkpt><trkpt lat="30.97444" lon="-7.1098467"><ele>1214.6666666666667</ele><time>2026-04-25T09:30:18.415Z</time></trkpt><trkpt lat="30.9744033" lon="-7.1096317"><ele>1217.3333333333335</ele><time>2026-04-25T09:30:19.415Z</time></trkpt><trkpt lat="30.97438" lon="-7.1094067"><ele>1220.0</ele><time>2026-04-25T09:30:20.416Z</time></trkpt><trkpt lat="30.9743667" lon="-7.10919"><ele>1219.0</ele><time>2026-04-25T09:30:21.415Z</time></trkpt><trkpt lat="30.9743683" lon="-7.1089733"><ele>1218.0</ele><time>2026-04-25T09:30:22.415Z</time></trkpt><trkpt lat="30.97437" lon="-7.1087483"><ele>1217.0</ele><time>2026-04-25T09:30:23.415Z</time></trkpt><trkpt lat="30.9743883" lon="-7.10852"><ele>1217.0</ele><time>2026-04-25T09:30:24.415Z</time></trkpt><trkpt lat="30.9744067" lon="-7.1082917"><ele>1217.0</ele><time>2026-04-25T09:30:25.415Z</time></trkpt><trkpt lat="30.9744267" lon="-7.1080783"><ele>1217.0</ele><time>2026-04-25T09:30:26.415Z</time></trkpt><trkpt lat="30.9744467" lon="-7.1078667"><ele>1214.6666666666667</ele><time>2026-04-25T09:30:27.415Z</time></trkpt><trkpt lat="30.9744667" lon="-7.1076617"><ele>1212.3333333333333</ele><time>2026-04-25T09:30:28.415Z</time></trkpt><trkpt lat="30.9744883" lon="-7.1074617"><ele>1210.0</ele><time>2026-04-25T09:30:29.415Z</time></trkpt><trkpt lat="30.9745117" lon="-7.1072633"><ele>1210.0</ele><time>2026-04-25T09:30:30.415Z</time></trkpt><trkpt lat="30.9745333" lon="-7.1070683"><ele>1210.0</ele><time>2026-04-25T09:30:31.415Z</time></trkpt><trkpt lat="30.974555" lon="-7.106885"><ele>1210.0</ele><time>2026-04-25T09:30:32.415Z</time></trkpt><trkpt lat="30.9745717" lon="-7.106705"><ele>1209.5</ele><time>2026-04-25T09:30:33.415Z</time></trkpt><trkpt lat="30.974585" lon="-7.1065317"><ele>1209.0</ele><time>2026-04-25T09:30:34.415Z</time></trkpt><trkpt lat="30.9746083" lon="-7.106365"><ele>1208.5</ele><time>2026-04-25T09:30:35.415Z</time></trkpt><trkpt lat="30.97463" lon="-7.1062017"><ele>1208.0</ele><time>2026-04-25T09:30:36.415Z</time></trkpt><trkpt lat="30.9746467" lon="-7.1060333"><ele>1208.0</ele><time>2026-04-25T09:30:37.415Z</time></trkpt><trkpt lat="30.9746667" lon="-7.1058717"><ele>1208.0</ele><time>2026-04-25T09:30:38.416Z</time></trkpt><trkpt lat="30.9746867" lon="-7.10572"><ele>1208.0</ele><time>2026-04-25T09:30:39.415Z</time></trkpt><trkpt lat="30.9747" lon="-7.1055667"><ele>1208.0</ele><time>2026-04-25T09:30:40.415Z</time></trkpt><trkpt lat="30.97471" lon="-7.10542"><ele>1208.5</ele><time>2026-04-25T09:30:41.415Z</time></trkpt><trkpt lat="30.9747217" lon="-7.10528"><ele>1209.0</ele><time>2026-04-25T09:30:42.415Z</time></trkpt><trkpt lat="30.9747317" lon="-7.1051467"><ele>1209.5</ele><time>2026-04-25T09:30:43.415Z</time></trkpt><trkpt lat="30.9747417" lon="-7.1050117"><ele>1210.0</ele><time>2026-04-25T09:30:44.415Z</time></trkpt><trkpt lat="30.9747567" lon="-7.1048817"><ele>1210.0</ele><time>2026-04-25T09:30:45.415Z</time></trkpt><trkpt lat="30.9747683" lon="-7.1047583"><ele>1210.0</ele><time>2026-04-25T09:30:46.415Z</time></trkpt><trkpt lat="30.9747883" lon="-7.1046433"><ele>1210.0</ele><time>2026-04-25T09:30:47.415Z</time></trkpt><trkpt lat="30.97481" lon="-7.1045333"><ele>1210.0</ele><time>2026-04-25T09:30:48.415Z</time></trkpt><trkpt lat="30.9748417" lon="-7.10445"><ele>1210.0</ele><time>2026-04-25T09:30:49.415Z</time></trkpt><trkpt lat="30.9748717" lon="-7.1043783"><ele>1210.0</ele><time>2026-04-25T09:30:50.415Z</time></trkpt><trkpt lat="30.9749083" lon="-7.1043183"><ele>1210.0</ele><time>2026-04-25T09:30:51.415Z</time></trkpt><trkpt lat="30.97503" lon="-7.104285"><ele>1210.0</ele><time>2026-04-25T09:30:53.415Z</time></trkpt><trkpt lat="30.97511" lon="-7.1043083"><ele>1210.0</ele><time>2026-04-25T09:30:54.415Z</time></trkpt><trkpt lat="30.9751967" lon="-7.1043367"><ele>1210.0</ele><time>2026-04-25T09:30:55.415Z</time></trkpt><trkpt lat="30.9752817" lon="-7.104355"><ele>1210.0</ele><time>2026-04-25T09:30:56.415Z</time></trkpt><trkpt lat="30.9753667" lon="-7.10436"><ele>1210.2</ele><time>2026-04-25T09:30:57.415Z</time></trkpt><trkpt lat="30.9754517" lon="-7.1043483"><ele>1210.4</ele><time>2026-04-25T09:30:58.415Z</time></trkpt><trkpt lat="30.975545" lon="-7.1043367"><ele>1210.6</ele><time>2026-04-25T09:30:59.415Z</time></trkpt><trkpt lat="30.9756333" lon="-7.1043217"><ele>1210.8</ele><time>2026-04-25T09:31:00.415Z</time></trkpt><trkpt lat="30.9757283" lon="-7.1043133"><ele>1211.0</ele><time>2026-04-25T09:31:01.415Z</time></trkpt><trkpt lat="30.9758217" lon="-7.1043033"><ele>1211.2</ele><time>2026-04-25T09:31:02.416Z</time></trkpt><trkpt lat="30.9759167" lon="-7.1042917"><ele>1211.3999999999999</ele><time>2026-04-25T09:31:03.415Z</time></trkpt><trkpt lat="30.9760133" lon="-7.1042717"><ele>1211.6</ele><time>2026-04-25T09:31:04.415Z</time></trkpt><trkpt lat="30.9761217" lon="-7.10425"><ele>1211.8</ele><time>2026-04-25T09:31:05.415Z</time></trkpt><trkpt lat="30.976235" lon="-7.1042317"><ele>1212.0</ele><time>2026-04-25T09:31:06.415Z</time></trkpt><trkpt lat="30.9763467" lon="-7.1042167"><ele>1212.0</ele><time>2026-04-25T09:31:07.415Z</time></trkpt><trkpt lat="30.97646" lon="-7.1042033"><ele>1212.0</ele><time>2026-04-25T09:31:08.415Z</time></trkpt><trkpt lat="30.97658" lon="-7.1041917"><ele>1212.0</ele><time>2026-04-25T09:31:09.416Z</time></trkpt><trkpt lat="30.9767017" lon="-7.10418"><ele>1212.0</ele><time>2026-04-25T09:31:10.415Z</time></trkpt><trkpt lat="30.97682" lon="-7.1041583"><ele>1212.5</ele><time>2026-04-25T09:31:11.415Z</time></trkpt><trkpt lat="30.9769483" lon="-7.104145"><ele>1213.0</ele><time>2026-04-25T09:31:12.415Z</time></trkpt><trkpt lat="30.9770767" lon="-7.1041283"><ele>1213.5</ele><time>2026-04-25T09:31:13.415Z</time></trkpt><trkpt lat="30.97721" lon="-7.1041033"><ele>1214.0</ele><time>2026-04-25T09:31:14.415Z</time></trkpt><trkpt lat="30.9773433" lon="-7.1040883"><ele>1214.25</ele><time>2026-04-25T09:31:15.415Z</time></trkpt><trkpt lat="30.9774733" lon="-7.1040567"><ele>1214.5</ele><time>2026-04-25T09:31:16.415Z</time></trkpt><trkpt lat="30.97761" lon="-7.1040283"><ele>1214.75</ele><time>2026-04-25T09:31:17.415Z</time></trkpt><trkpt lat="30.9777433" lon="-7.104"><ele>1215.0</ele><time>2026-04-25T09:31:18.415Z</time></trkpt><trkpt lat="30.9778717" lon="-7.1039717"><ele>1215.0</ele><time>2026-04-25T09:31:19.415Z</time></trkpt><trkpt lat="30.9780017" lon="-7.1039417"><ele>1215.0</ele><time>2026-04-25T09:31:20.415Z</time></trkpt><trkpt lat="30.9781233" lon="-7.1038967"><ele>1215.0</ele><time>2026-04-25T09:31:21.415Z</time></trkpt><trkpt lat="30.9782517" lon="-7.1038533"><ele>1215.0</ele><time>2026-04-25T09:31:22.415Z</time></trkpt><trkpt lat="30.9783767" lon="-7.1038033"><ele>1215.5</ele><time>2026-04-25T09:31:23.415Z</time></trkpt><trkpt lat="30.978505" lon="-7.1037533"><ele>1216.0</ele><time>2026-04-25T09:31:24.416Z</time></trkpt><trkpt lat="30.9786317" lon="-7.1036967"><ele>1216.5</ele><time>2026-04-25T09:31:25.415Z</time></trkpt><trkpt lat="30.9787633" lon="-7.1036417"><ele>1217.0</ele><time>2026-04-25T09:31:26.415Z</time></trkpt><trkpt lat="30.9789" lon="-7.1035933"><ele>1217.0</ele><time>2026-04-25T09:31:27.415Z</time></trkpt><trkpt lat="30.9790467" lon="-7.1035517"><ele>1217.0</ele><time>2026-04-25T09:31:28.415Z</time></trkpt><trkpt lat="30.9791983" lon="-7.1035217"><ele>1217.0</ele><time>2026-04-25T09:31:29.415Z</time></trkpt><trkpt lat="30.979355" lon="-7.1035133"><ele>1216.0</ele><time>2026-04-25T09:31:30.415Z</time></trkpt><trkpt lat="30.9795067" lon="-7.1035217"><ele>1215.0</ele><time>2026-04-25T09:31:31.415Z</time></trkpt><trkpt lat="30.97966" lon="-7.1035533"><ele>1214.0</ele><time>2026-04-25T09:31:32.415Z</time></trkpt><trkpt lat="30.979805" lon="-7.1036033"><ele>1214.0</ele><time>2026-04-25T09:31:33.416Z</time></trkpt><trkpt lat="30.97994" lon="-7.103685"><ele>1214.0</ele><time>2026-04-25T09:31:34.415Z</time></trkpt><trkpt lat="30.98006" lon="-7.1037867"><ele>1214.0</ele><time>2026-04-25T09:31:35.415Z</time></trkpt><trkpt lat="30.9801783" lon="-7.1038983"><ele>1213.6666666666667</ele><time>2026-04-25T09:31:36.415Z</time></trkpt><trkpt lat="30.9802933" lon="-7.104015"><ele>1213.3333333333333</ele><time>2026-04-25T09:31:37.415Z</time></trkpt><trkpt lat="30.9804133" lon="-7.1041367"><ele>1213.0</ele><time>2026-04-25T09:31:38.415Z</time></trkpt><trkpt lat="30.98054" lon="-7.1042683"><ele>1213.0</ele><time>2026-04-25T09:31:39.415Z</time></trkpt><trkpt lat="30.9806667" lon="-7.1044"><ele>1213.0</ele><time>2026-04-25T09:31:40.415Z</time></trkpt><trkpt lat="30.9807933" lon="-7.1045317"><ele>1213.0</ele><time>2026-04-25T09:31:41.415Z</time></trkpt><trkpt lat="30.9809267" lon="-7.10467"><ele>1212.3333333333333</ele><time>2026-04-25T09:31:42.415Z</time></trkpt><trkpt lat="30.9810667" lon="-7.1048033"><ele>1211.6666666666667</ele><time>2026-04-25T09:31:43.415Z</time></trkpt><trkpt lat="30.9812083" lon="-7.1049383"><ele>1211.0</ele><time>2026-04-25T09:31:44.415Z</time></trkpt><trkpt lat="30.981355" lon="-7.10507"><ele>1211.6666666666667</ele><time>2026-04-25T09:31:45.415Z</time></trkpt><trkpt lat="30.9815033" lon="-7.1051983"><ele>1212.3333333333333</ele><time>2026-04-25T09:31:46.415Z</time></trkpt><trkpt lat="30.981655" lon="-7.105325"><ele>1213.0</ele><time>2026-04-25T09:31:47.415Z</time></trkpt><trkpt lat="30.9818067" lon="-7.10545"><ele>1213.0</ele><time>2026-04-25T09:31:48.415Z</time></trkpt><trkpt lat="30.981965" lon="-7.1055617"><ele>1213.0</ele><time>2026-04-25T09:31:49.415Z</time></trkpt><trkpt lat="30.982135" lon="-7.1056533"><ele>1213.0</ele><time>2026-04-25T09:31:50.415Z</time></trkpt><trkpt lat="30.98231" lon="-7.105735"><ele>1213.6666666666665</ele><time>2026-04-25T09:31:51.415Z</time></trkpt><trkpt lat="30.9825" lon="-7.1057933"><ele>1214.3333333333333</ele><time>2026-04-25T09:31:52.415Z</time></trkpt><trkpt lat="30.982685" lon="-7.1058467"><ele>1215.0</ele><time>2026-04-25T09:31:53.415Z</time></trkpt><trkpt lat="30.9828733" lon="-7.1058967"><ele>1215.0</ele><time>2026-04-25T09:31:54.415Z</time></trkpt><trkpt lat="30.9830667" lon="-7.1059467"><ele>1215.0</ele><time>2026-04-25T09:31:55.415Z</time></trkpt><trkpt lat="30.9832583" lon="-7.1059967"><ele>1215.0</ele><time>2026-04-25T09:31:56.415Z</time></trkpt><trkpt lat="30.98345" lon="-7.10605"><ele>1215.3333333333333</ele><time>2026-04-25T09:31:57.415Z</time></trkpt><trkpt lat="30.9836433" lon="-7.1060967"><ele>1215.6666666666665</ele><time>2026-04-25T09:31:58.415Z</time></trkpt><trkpt lat="30.983835" lon="-7.106135"><ele>1216.0</ele><time>2026-04-25T09:31:59.415Z</time></trkpt><trkpt lat="30.9840233" lon="-7.10618"><ele>1217.0</ele><time>2026-04-25T09:32:00.415Z</time></trkpt><trkpt lat="30.9842117" lon="-7.1062133"><ele>1218.0</ele><time>2026-04-25T09:32:01.415Z</time></trkpt><trkpt lat="30.984405" lon="-7.1062317"><ele>1219.0</ele><time>2026-04-25T09:32:02.415Z</time></trkpt><trkpt lat="30.984595" lon="-7.1062383"><ele>1219.0</ele><time>2026-04-25T09:32:03.415Z</time></trkpt><trkpt lat="30.9847883" lon="-7.1062133"><ele>1219.0</ele><time>2026-04-25T09:32:04.415Z</time></trkpt><trkpt lat="30.9849833" lon="-7.106175"><ele>1219.0</ele><time>2026-04-25T09:32:05.415Z</time></trkpt><trkpt lat="30.9851767" lon="-7.106125"><ele>1218.0</ele><time>2026-04-25T09:32:06.415Z</time></trkpt><trkpt lat="30.9853683" lon="-7.10607"><ele>1217.0</ele><time>2026-04-25T09:32:07.415Z</time></trkpt><trkpt lat="30.9855567" lon="-7.1060167"><ele>1216.0</ele><time>2026-04-25T09:32:08.416Z</time></trkpt><trkpt lat="30.98574" lon="-7.105965"><ele>1218.6666666666665</ele><time>2026-04-25T09:32:09.415Z</time></trkpt><trkpt lat="30.9859133" lon="-7.105915"><ele>1221.3333333333333</ele><time>2026-04-25T09:32:10.415Z</time></trkpt><trkpt lat="30.98609" lon="-7.105865"><ele>1224.0</ele><time>2026-04-25T09:32:11.416Z</time></trkpt><trkpt lat="30.9862683" lon="-7.105815"><ele>1224.0</ele><time>2026-04-25T09:32:12.415Z</time></trkpt><trkpt lat="30.986445" lon="-7.105765"><ele>1224.0</ele><time>2026-04-25T09:32:13.415Z</time></trkpt><trkpt lat="30.986625" lon="-7.1057083"><ele>1224.0</ele><time>2026-04-25T09:32:14.415Z</time></trkpt><trkpt lat="30.9868" lon="-7.1056433"><ele>1223.3333333333333</ele><time>2026-04-25T09:32:15.415Z</time></trkpt><trkpt lat="30.9869667" lon="-7.105575"><ele>1222.6666666666665</ele><time>2026-04-25T09:32:16.415Z</time></trkpt><trkpt lat="30.9871283" lon="-7.1054967"><ele>1222.0</ele><time>2026-04-25T09:32:17.415Z</time></trkpt><trkpt lat="30.9872733" lon="-7.1054033"><ele>1222.0</ele><time>2026-04-25T09:32:18.415Z</time></trkpt><trkpt lat="30.987415" lon="-7.1052867"><ele>1222.0</ele><time>2026-04-25T09:32:19.415Z</time></trkpt><trkpt lat="30.9875517" lon="-7.105165"><ele>1222.0</ele><time>2026-04-25T09:32:20.416Z</time></trkpt><trkpt lat="30.98768" lon="-7.105035"><ele>1219.3333333333333</ele><time>2026-04-25T09:32:21.415Z</time></trkpt><trkpt lat="30.987805" lon="-7.104925"><ele>1216.6666666666667</ele><time>2026-04-25T09:32:22.415Z</time></trkpt><trkpt lat="30.9879367" lon="-7.1048267"><ele>1214.0</ele><time>2026-04-25T09:32:23.415Z</time></trkpt><trkpt lat="30.9880833" lon="-7.1047583"><ele>1214.0</ele><time>2026-04-25T09:32:24.415Z</time></trkpt><trkpt lat="30.9882367" lon="-7.10472"><ele>1214.0</ele><time>2026-04-25T09:32:25.415Z</time></trkpt><trkpt lat="30.9884" lon="-7.10471"><ele>1214.0</ele><time>2026-04-25T09:32:26.415Z</time></trkpt><trkpt lat="30.9885617" lon="-7.1047333"><ele>1214.3333333333335</ele><time>2026-04-25T09:32:27.415Z</time></trkpt><trkpt lat="30.9887317" lon="-7.1047733"><ele>1214.6666666666667</ele><time>2026-04-25T09:32:28.415Z</time></trkpt><trkpt lat="30.9889033" lon="-7.1048217"><ele>1215.0</ele><time>2026-04-25T09:32:29.415Z</time></trkpt><trkpt lat="30.9890717" lon="-7.1048733"><ele>1217.3333333333333</ele><time>2026-04-25T09:32:30.415Z</time></trkpt><trkpt lat="30.9892417" lon="-7.10492"><ele>1219.6666666666665</ele><time>2026-04-25T09:32:31.415Z</time></trkpt><trkpt lat="30.9894067" lon="-7.10497"><ele>1222.0</ele><time>2026-04-25T09:32:32.415Z</time></trkpt><trkpt lat="30.989575" lon="-7.1050233"><ele>1222.0</ele><time>2026-04-25T09:32:33.415Z</time></trkpt><trkpt lat="30.9897433" lon="-7.10508"><ele>1222.0</ele><time>2026-04-25T09:32:34.415Z</time></trkpt><trkpt lat="30.9899117" lon="-7.10514"><ele>1222.0</ele><time>2026-04-25T09:32:35.415Z</time></trkpt><trkpt lat="30.99008" lon="-7.105205"><ele>1220.6666666666665</ele><time>2026-04-25T09:32:36.415Z</time></trkpt><trkpt lat="30.990245" lon="-7.10527"><ele>1219.3333333333333</ele><time>2026-04-25T09:32:37.415Z</time></trkpt><trkpt lat="30.990405" lon="-7.1053367"><ele>1218.0</ele><time>2026-04-25T09:32:38.415Z</time></trkpt><trkpt lat="30.99056" lon="-7.105415"><ele>1218.0</ele><time>2026-04-25T09:32:39.415Z</time></trkpt><trkpt lat="30.9907117" lon="-7.1055067"><ele>1218.0</ele><time>2026-04-25T09:32:40.415Z</time></trkpt><trkpt lat="30.9908583" lon="-7.10561"><ele>1218.0</ele><time>2026-04-25T09:32:41.415Z</time></trkpt><trkpt lat="30.9910067" lon="-7.1057217"><ele>1219.6666666666667</ele><time>2026-04-25T09:32:42.415Z</time></trkpt><trkpt lat="30.991145" lon="-7.10584"><ele>1221.3333333333335</ele><time>2026-04-25T09:32:43.415Z</time></trkpt><trkpt lat="30.9912817" lon="-7.1059683"><ele>1223.0</ele><time>2026-04-25T09:32:44.415Z</time></trkpt><trkpt lat="30.9914133" lon="-7.1060967"><ele>1223.0</ele><time>2026-04-25T09:32:45.415Z</time></trkpt><trkpt lat="30.9915533" lon="-7.106225"><ele>1223.0</ele><time>2026-04-25T09:32:46.416Z</time></trkpt><trkpt lat="30.9916917" lon="-7.1063483"><ele>1223.0</ele><time>2026-04-25T09:32:47.415Z</time></trkpt><trkpt lat="30.9918267" lon="-7.1064767"><ele>1224.3333333333335</ele><time>2026-04-25T09:32:48.415Z</time></trkpt><trkpt lat="30.9919683" lon="-7.1066017"><ele>1225.6666666666667</ele><time>2026-04-25T09:32:49.415Z</time></trkpt><trkpt lat="30.992115" lon="-7.1067233"><ele>1227.0</ele><time>2026-04-25T09:32:50.415Z</time></trkpt><trkpt lat="30.9922583" lon="-7.1068317"><ele>1227.0</ele><time>2026-04-25T09:32:51.416Z</time></trkpt><trkpt lat="30.9924117" lon="-7.10693"><ele>1227.0</ele><time>2026-04-25T09:32:52.415Z</time></trkpt><trkpt lat="30.9925733" lon="-7.1070133"><ele>1227.0</ele><time>2026-04-25T09:32:53.415Z</time></trkpt><trkpt lat="30.992745" lon="-7.107075"><ele>1226.6666666666667</ele><time>2026-04-25T09:32:54.415Z</time></trkpt><trkpt lat="30.99292" lon="-7.107115"><ele>1226.3333333333335</ele><time>2026-04-25T09:32:55.415Z</time></trkpt><trkpt lat="30.9930967" lon="-7.1071383"><ele>1226.0</ele><time>2026-04-25T09:32:56.416Z</time></trkpt><trkpt lat="30.99327" lon="-7.1071483"><ele>1226.0</ele><time>2026-04-25T09:32:57.415Z</time></trkpt><trkpt lat="30.9934517" lon="-7.1071533"><ele>1226.0</ele><time>2026-04-25T09:32:58.415Z</time></trkpt><trkpt lat="30.9936267" lon="-7.10715"><ele>1226.0</ele><time>2026-04-25T09:32:59.415Z</time></trkpt><trkpt lat="30.9938017" lon="-7.1071567"><ele>1226.0</ele><time>2026-04-25T09:33:00.416Z</time></trkpt><trkpt lat="30.9939817" lon="-7.1071567"><ele>1226.0</ele><time>2026-04-25T09:33:01.415Z</time></trkpt><trkpt lat="30.9941683" lon="-7.10716"><ele>1226.0</ele><time>2026-04-25T09:33:02.415Z</time></trkpt><trkpt lat="30.9943467" lon="-7.10716"><ele>1226.3333333333335</ele><time>2026-04-25T09:33:03.415Z</time></trkpt><trkpt lat="30.9945283" lon="-7.1071567"><ele>1226.6666666666667</ele><time>2026-04-25T09:33:04.415Z</time></trkpt><trkpt lat="30.9947083" lon="-7.1071517"><ele>1227.0</ele><time>2026-04-25T09:33:05.415Z</time></trkpt><trkpt lat="30.9948883" lon="-7.1071517"><ele>1227.0</ele><time>2026-04-25T09:33:06.415Z</time></trkpt><trkpt lat="30.9950683" lon="-7.1071483"><ele>1227.0</ele><time>2026-04-25T09:33:07.415Z</time></trkpt><trkpt lat="30.9952467" lon="-7.1071433"><ele>1227.0</ele><time>2026-04-25T09:33:08.415Z</time></trkpt><trkpt lat="30.9954233" lon="-7.1071433"><ele>1227.0</ele><time>2026-04-25T09:33:09.415Z</time></trkpt><trkpt lat="30.995605" lon="-7.1071433"><ele>1227.0</ele><time>2026-04-25T09:33:10.415Z</time></trkpt><trkpt lat="30.9957833" lon="-7.1071467"><ele>1227.0</ele><time>2026-04-25T09:33:11.415Z</time></trkpt><trkpt lat="30.9959583" lon="-7.10715"><ele>1227.0</ele><time>2026-04-25T09:33:12.416Z</time></trkpt><trkpt lat="30.9961417" lon="-7.1071517"><ele>1227.0</ele><time>2026-04-25T09:33:13.415Z</time></trkpt><trkpt lat="30.9963217" lon="-7.10715"><ele>1227.0</ele><time>2026-04-25T09:33:14.415Z</time></trkpt><trkpt lat="30.996505" lon="-7.1071467"><ele>1226.3333333333333</ele><time>2026-04-25T09:33:15.415Z</time></trkpt><trkpt lat="30.9966867" lon="-7.107145"><ele>1225.6666666666665</ele><time>2026-04-25T09:33:16.415Z</time></trkpt><trkpt lat="30.99687" lon="-7.1071417"><ele>1225.0</ele><time>2026-04-25T09:33:17.415Z</time></trkpt><trkpt lat="30.9970617" lon="-7.1071333"><ele>1225.0</ele><time>2026-04-25T09:33:18.415Z</time></trkpt><trkpt lat="30.9972517" lon="-7.1071167"><ele>1225.0</ele><time>2026-04-25T09:33:19.415Z</time></trkpt><trkpt lat="30.9974367" lon="-7.107095"><ele>1225.0</ele><time>2026-04-25T09:33:20.415Z</time></trkpt><trkpt lat="30.9976233" lon="-7.1070583"><ele>1226.0</ele><time>2026-04-25T09:33:21.415Z</time></trkpt><trkpt lat="30.9978067" lon="-7.1070133"><ele>1227.0</ele><time>2026-04-25T09:33:22.415Z</time></trkpt><trkpt lat="30.997985" lon="-7.1069517"><ele>1228.0</ele><time>2026-04-25T09:33:23.415Z</time></trkpt><trkpt lat="30.9981567" lon="-7.10688"><ele>1228.0</ele><time>2026-04-25T09:33:24.415Z</time></trkpt><trkpt lat="30.9983217" lon="-7.1068033"><ele>1228.0</ele><time>2026-04-25T09:33:25.415Z</time></trkpt><trkpt lat="30.9984817" lon="-7.106705"><ele>1228.0</ele><time>2026-04-25T09:33:26.415Z</time></trkpt><trkpt lat="30.9986383" lon="-7.10659"><ele>1227.0</ele><time>2026-04-25T09:33:27.415Z</time></trkpt><trkpt lat="30.99879" lon="-7.1064633"><ele>1226.0</ele><time>2026-04-25T09:33:28.415Z</time></trkpt><trkpt lat="30.9989367" lon="-7.106335"><ele>1225.0</ele><time>2026-04-25T09:33:29.415Z</time></trkpt><trkpt lat="30.9990817" lon="-7.1062"><ele>1225.6666666666665</ele><time>2026-04-25T09:33:30.415Z</time></trkpt><trkpt lat="30.9992183" lon="-7.10606"><ele>1226.3333333333333</ele><time>2026-04-25T09:33:31.415Z</time></trkpt><trkpt lat="30.9993533" lon="-7.10592"><ele>1227.0</ele><time>2026-04-25T09:33:32.415Z</time></trkpt><trkpt lat="30.9994933" lon="-7.1057867"><ele>1228.0</ele><time>2026-04-25T09:33:33.415Z</time></trkpt><trkpt lat="30.9996317" lon="-7.10565"><ele>1229.0</ele><time>2026-04-25T09:33:34.415Z</time></trkpt><trkpt lat="30.9997733" lon="-7.1055233"><ele>1230.0</ele><time>2026-04-25T09:33:35.415Z</time></trkpt><trkpt lat="30.9999183" lon="-7.105395"><ele>1230.0</ele><time>2026-04-25T09:33:36.415Z</time></trkpt><trkpt lat="31.0000667" lon="-7.1052683"><ele>1230.0</ele><time>2026-04-25T09:33:37.415Z</time></trkpt><trkpt lat="31.0002183" lon="-7.105155"><ele>1230.0</ele><time>2026-04-25T09:33:38.415Z</time></trkpt><trkpt lat="31.0003733" lon="-7.1050483"><ele>1230.0</ele><time>2026-04-25T09:33:39.415Z</time></trkpt><trkpt lat="31.0005367" lon="-7.104955"><ele>1230.0</ele><time>2026-04-25T09:33:40.415Z</time></trkpt><trkpt lat="31.0007017" lon="-7.1048683"><ele>1230.0</ele><time>2026-04-25T09:33:41.415Z</time></trkpt><trkpt lat="31.00087" lon="-7.1047917"><ele>1229.0</ele><time>2026-04-25T09:33:42.415Z</time></trkpt><trkpt lat="31.001045" lon="-7.10473"><ele>1228.0</ele><time>2026-04-25T09:33:43.415Z</time></trkpt><trkpt lat="31.00122" lon="-7.10467"><ele>1227.0</ele><time>2026-04-25T09:33:44.415Z</time></trkpt><trkpt lat="31.0013983" lon="-7.1046233"><ele>1227.0</ele><time>2026-04-25T09:33:45.415Z</time></trkpt><trkpt lat="31.00158" lon="-7.10459"><ele>1227.0</ele><time>2026-04-25T09:33:46.415Z</time></trkpt><trkpt lat="31.0017633" lon="-7.1045617"><ele>1227.0</ele><time>2026-04-25T09:33:47.415Z</time></trkpt><trkpt lat="31.001945" lon="-7.1045483"><ele>1227.0</ele><time>2026-04-25T09:33:48.415Z</time></trkpt><trkpt lat="31.00213" lon="-7.1045383"><ele>1227.0</ele><time>2026-04-25T09:33:49.415Z</time></trkpt><trkpt lat="31.0023133" lon="-7.1045367"><ele>1227.0</ele><time>2026-04-25T09:33:50.415Z</time></trkpt><trkpt lat="31.0024983" lon="-7.104535"><ele>1227.0</ele><time>2026-04-25T09:33:51.415Z</time></trkpt><trkpt lat="31.0026833" lon="-7.104535"><ele>1227.0</ele><time>2026-04-25T09:33:52.415Z</time></trkpt><trkpt lat="31.00287" lon="-7.104535"><ele>1227.0</ele><time>2026-04-25T09:33:53.416Z</time></trkpt><trkpt lat="31.003055" lon="-7.1045367"><ele>1227.0</ele><time>2026-04-25T09:33:54.415Z</time></trkpt><trkpt lat="31.0032383" lon="-7.1045367"><ele>1227.0</ele><time>2026-04-25T09:33:55.415Z</time></trkpt><trkpt lat="31.0034217" lon="-7.1045383"><ele>1227.0</ele><time>2026-04-25T09:33:56.415Z</time></trkpt><trkpt lat="31.0036067" lon="-7.1045367"><ele>1227.0</ele><time>2026-04-25T09:33:57.415Z</time></trkpt><trkpt lat="31.0037967" lon="-7.10453"><ele>1227.0</ele><time>2026-04-25T09:33:58.415Z</time></trkpt><trkpt lat="31.0039867" lon="-7.1045167"><ele>1227.0</ele><time>2026-04-25T09:33:59.415Z</time></trkpt><trkpt lat="31.0041767" lon="-7.1044883"><ele>1228.6666666666667</ele><time>2026-04-25T09:34:00.415Z</time></trkpt><trkpt lat="31.0043667" lon="-7.104455"><ele>1230.3333333333335</ele><time>2026-04-25T09:34:01.415Z</time></trkpt><trkpt lat="31.0045567" lon="-7.1044133"><ele>1232.0</ele><time>2026-04-25T09:34:02.415Z</time></trkpt><trkpt lat="31.0047433" lon="-7.1043733"><ele>1232.0</ele><time>2026-04-25T09:34:03.415Z</time></trkpt><trkpt lat="31.0049233" lon="-7.1043167"><ele>1232.0</ele><time>2026-04-25T09:34:04.415Z</time></trkpt><trkpt lat="31.005105" lon="-7.1042517"><ele>1232.0</ele><time>2026-04-25T09:34:05.415Z</time></trkpt><trkpt lat="31.00528" lon="-7.10419"><ele>1233.0</ele><time>2026-04-25T09:34:06.415Z</time></trkpt><trkpt lat="31.005455" lon="-7.10411"><ele>1234.0</ele><time>2026-04-25T09:34:07.415Z</time></trkpt><trkpt lat="31.005625" lon="-7.1040283"><ele>1235.0</ele><time>2026-04-25T09:34:08.415Z</time></trkpt><trkpt lat="31.0058" lon="-7.10394"><ele>1233.0</ele><time>2026-04-25T09:34:09.415Z</time></trkpt><trkpt lat="31.0059683" lon="-7.103855"><ele>1231.0</ele><time>2026-04-25T09:34:10.416Z</time></trkpt><trkpt lat="31.0061383" lon="-7.10377"><ele>1229.0</ele><time>2026-04-25T09:34:11.415Z</time></trkpt><trkpt lat="31.0063067" lon="-7.1036883"><ele>1229.0</ele><time>2026-04-25T09:34:12.415Z</time></trkpt><trkpt lat="31.0064733" lon="-7.1036033"><ele>1229.0</ele><time>2026-04-25T09:34:13.415Z</time></trkpt><trkpt lat="31.0066367" lon="-7.1035183"><ele>1229.0</ele><time>2026-04-25T09:34:14.415Z</time></trkpt><trkpt lat="31.0068017" lon="-7.10344"><ele>1230.3333333333335</ele><time>2026-04-25T09:34:15.415Z</time></trkpt><trkpt lat="31.0069683" lon="-7.1033533"><ele>1231.6666666666667</ele><time>2026-04-25T09:34:16.415Z</time></trkpt><trkpt lat="31.0071417" lon="-7.1032717"><ele>1233.0</ele><time>2026-04-25T09:34:17.415Z</time></trkpt><trkpt lat="31.0073133" lon="-7.10319"><ele>1233.0</ele><time>2026-04-25T09:34:18.415Z</time></trkpt><trkpt lat="31.0074833" lon="-7.1031017"><ele>1233.0</ele><time>2026-04-25T09:34:19.415Z</time></trkpt><trkpt lat="31.00765" lon="-7.103015"><ele>1233.0</ele><time>2026-04-25T09:34:20.415Z</time></trkpt><trkpt lat="31.0078217" lon="-7.1029283"><ele>1234.0</ele><time>2026-04-25T09:34:21.415Z</time></trkpt><trkpt lat="31.00799" lon="-7.1028517"><ele>1235.0</ele><time>2026-04-25T09:34:22.415Z</time></trkpt><trkpt lat="31.0081583" lon="-7.1027717"><ele>1236.0</ele><time>2026-04-25T09:34:23.415Z</time></trkpt><trkpt lat="31.00833" lon="-7.102685"><ele>1237.6666666666667</ele><time>2026-04-25T09:34:24.415Z</time></trkpt><trkpt lat="31.00849" lon="-7.1026017"><ele>1239.3333333333335</ele><time>2026-04-25T09:34:25.415Z</time></trkpt><trkpt lat="31.0086467" lon="-7.10252"><ele>1241.0</ele><time>2026-04-25T09:34:26.415Z</time></trkpt><trkpt lat="31.0088017" lon="-7.102445"><ele>1240.0</ele><time>2026-04-25T09:34:27.415Z</time></trkpt><trkpt lat="31.00895" lon="-7.1023767"><ele>1239.0</ele><time>2026-04-25T09:34:28.415Z</time></trkpt><trkpt lat="31.0091067" lon="-7.102315"><ele>1238.0</ele><time>2026-04-25T09:34:29.415Z</time></trkpt><trkpt lat="31.009265" lon="-7.1022583"><ele>1238.0</ele><time>2026-04-25T09:34:30.415Z</time></trkpt><trkpt lat="31.00944" lon="-7.1022083"><ele>1238.0</ele><time>2026-04-25T09:34:31.415Z</time></trkpt><trkpt lat="31.0096217" lon="-7.1021667"><ele>1238.0</ele><time>2026-04-25T09:34:32.415Z</time></trkpt><trkpt lat="31.0098033" lon="-7.1021333"><ele>1238.0</ele><time>2026-04-25T09:34:33.416Z</time></trkpt><trkpt lat="31.00999" lon="-7.1021133"><ele>1238.0</ele><time>2026-04-25T09:34:34.415Z</time></trkpt><trkpt lat="31.01018" lon="-7.1020983"><ele>1238.0</ele><time>2026-04-25T09:34:35.415Z</time></trkpt><trkpt lat="31.01037" lon="-7.10209"><ele>1240.6666666666667</ele><time>2026-04-25T09:34:36.415Z</time></trkpt><trkpt lat="31.0105567" lon="-7.102095"><ele>1243.3333333333333</ele><time>2026-04-25T09:34:37.415Z</time></trkpt><trkpt lat="31.01075" lon="-7.102105"><ele>1246.0</ele><time>2026-04-25T09:34:38.415Z</time></trkpt><trkpt lat="31.01094" lon="-7.1021233"><ele>1247.6666666666665</ele><time>2026-04-25T09:34:39.415Z</time></trkpt><trkpt lat="31.01113" lon="-7.1021467"><ele>1249.3333333333333</ele><time>2026-04-25T09:34:40.415Z</time></trkpt><trkpt lat="31.0113167" lon="-7.1021883"><ele>1251.0</ele><time>2026-04-25T09:34:41.415Z</time></trkpt><trkpt lat="31.0115017" lon="-7.1022417"><ele>1251.0</ele><time>2026-04-25T09:34:42.415Z</time></trkpt><trkpt lat="31.011685" lon="-7.1023033"><ele>1251.0</ele><time>2026-04-25T09:34:43.416Z</time></trkpt><trkpt lat="31.0118633" lon="-7.102375"><ele>1251.0</ele><time>2026-04-25T09:34:44.415Z</time></trkpt><trkpt lat="31.012045" lon="-7.102455"><ele>1251.0</ele><time>2026-04-25T09:34:45.415Z</time></trkpt><trkpt lat="31.0122233" lon="-7.10254"><ele>1251.0</ele><time>2026-04-25T09:34:46.415Z</time></trkpt><trkpt lat="31.012385" lon="-7.1026367"><ele>1251.0</ele><time>2026-04-25T09:34:47.415Z</time></trkpt><trkpt lat="31.01254" lon="-7.1027367"><ele>1251.3333333333333</ele><time>2026-04-25T09:34:48.415Z</time></trkpt><trkpt lat="31.0127" lon="-7.1028417"><ele>1251.6666666666665</ele><time>2026-04-25T09:34:49.415Z</time></trkpt><trkpt lat="31.0128567" lon="-7.10295"><ele>1252.0</ele><time>2026-04-25T09:34:50.415Z</time></trkpt><trkpt lat="31.0130083" lon="-7.1030733"><ele>1252.0</ele><time>2026-04-25T09:34:51.415Z</time></trkpt><trkpt lat="31.0131533" lon="-7.1032067"><ele>1252.0</ele><time>2026-04-25T09:34:52.415Z</time></trkpt><trkpt lat="31.0132933" lon="-7.10335"><ele>1252.0</ele><time>2026-04-25T09:34:53.415Z</time></trkpt><trkpt lat="31.01343" lon="-7.1034967"><ele>1251.0</ele><time>2026-04-25T09:34:54.415Z</time></trkpt><trkpt lat="31.01357" lon="-7.1036317"><ele>1250.0</ele><time>2026-04-25T09:34:55.415Z</time></trkpt><trkpt lat="31.0137117" lon="-7.1037717"><ele>1249.0</ele><time>2026-04-25T09:34:56.415Z</time></trkpt><trkpt lat="31.0138533" lon="-7.103915"><ele>1249.0</ele><time>2026-04-25T09:34:57.415Z</time></trkpt><trkpt lat="31.0139967" lon="-7.1040567"><ele>1249.0</ele><time>2026-04-25T09:34:58.415Z</time></trkpt><trkpt lat="31.0141417" lon="-7.104195"><ele>1249.0</ele><time>2026-04-25T09:34:59.415Z</time></trkpt><trkpt lat="31.014285" lon="-7.104335"><ele>1249.6666666666665</ele><time>2026-04-25T09:35:00.415Z</time></trkpt><trkpt lat="31.0144267" lon="-7.1044767"><ele>1250.3333333333333</ele><time>2026-04-25T09:35:01.415Z</time></trkpt><trkpt lat="31.014575" lon="-7.10462"><ele>1251.0</ele><time>2026-04-25T09:35:02.415Z</time></trkpt><trkpt lat="31.01472" lon="-7.10476"><ele>1251.0</ele><time>2026-04-25T09:35:03.415Z</time></trkpt><trkpt lat="31.014865" lon="-7.1049083"><ele>1251.0</ele><time>2026-04-25T09:35:04.415Z</time></trkpt><trkpt lat="31.0149967" lon="-7.10506"><ele>1251.0</ele><time>2026-04-25T09:35:05.415Z</time></trkpt><trkpt lat="31.015125" lon="-7.10521"><ele>1251.3333333333333</ele><time>2026-04-25T09:35:06.415Z</time></trkpt><trkpt lat="31.0152533" lon="-7.1053667"><ele>1251.6666666666665</ele><time>2026-04-25T09:35:07.415Z</time></trkpt><trkpt lat="31.0153783" lon="-7.1055317"><ele>1252.0</ele><time>2026-04-25T09:35:08.415Z</time></trkpt><trkpt lat="31.01549" lon="-7.1057017"><ele>1252.6666666666665</ele><time>2026-04-25T09:35:09.415Z</time></trkpt><trkpt lat="31.0155933" lon="-7.10588"><ele>1253.3333333333333</ele><time>2026-04-25T09:35:10.415Z</time></trkpt><trkpt lat="31.0156933" lon="-7.1060583"><ele>1254.0</ele><time>2026-04-25T09:35:11.415Z</time></trkpt><trkpt lat="31.0157833" lon="-7.1062433"><ele>1254.0</ele><time>2026-04-25T09:35:12.415Z</time></trkpt><trkpt lat="31.0158617" lon="-7.1064383"><ele>1254.0</ele><time>2026-04-25T09:35:13.415Z</time></trkpt><trkpt lat="31.015935" lon="-7.106635"><ele>1254.0</ele><time>2026-04-25T09:35:14.416Z</time></trkpt><trkpt lat="31.0160083" lon="-7.1068283"><ele>1254.0</ele><time>2026-04-25T09:35:15.415Z</time></trkpt><trkpt lat="31.0160783" lon="-7.1070267"><ele>1254.0</ele><time>2026-04-25T09:35:16.415Z</time></trkpt><trkpt lat="31.01615" lon="-7.1072233"><ele>1254.0</ele><time>2026-04-25T09:35:17.415Z</time></trkpt><trkpt lat="31.01622" lon="-7.1074183"><ele>1254.0</ele><time>2026-04-25T09:35:18.415Z</time></trkpt><trkpt lat="31.01629" lon="-7.1076183"><ele>1254.0</ele><time>2026-04-25T09:35:19.415Z</time></trkpt><trkpt lat="31.0163633" lon="-7.1078117"><ele>1254.0</ele><time>2026-04-25T09:35:20.415Z</time></trkpt><trkpt lat="31.0164417" lon="-7.1080083"><ele>1254.0</ele><time>2026-04-25T09:35:21.415Z</time></trkpt><trkpt lat="31.0165217" lon="-7.1082033"><ele>1254.0</ele><time>2026-04-25T09:35:22.415Z</time></trkpt><trkpt lat="31.016605" lon="-7.108395"><ele>1254.0</ele><time>2026-04-25T09:35:23.415Z</time></trkpt><trkpt lat="31.0167" lon="-7.1085783"><ele>1254.0</ele><time>2026-04-25T09:35:24.415Z</time></trkpt><trkpt lat="31.0168033" lon="-7.1087633"><ele>1254.0</ele><time>2026-04-25T09:35:25.415Z</time></trkpt><trkpt lat="31.0169083" lon="-7.1089367"><ele>1254.0</ele><time>2026-04-25T09:35:26.415Z</time></trkpt><trkpt lat="31.01702" lon="-7.1091083"><ele>1254.0</ele><time>2026-04-25T09:35:27.415Z</time></trkpt><trkpt lat="31.017135" lon="-7.1092767"><ele>1254.0</ele><time>2026-04-25T09:35:28.415Z</time></trkpt><trkpt lat="31.0172567" lon="-7.10944"><ele>1254.0</ele><time>2026-04-25T09:35:29.415Z</time></trkpt><trkpt lat="31.0173783" lon="-7.1095983"><ele>1254.0</ele><time>2026-04-25T09:35:30.415Z</time></trkpt><trkpt lat="31.017505" lon="-7.10975"><ele>1254.0</ele><time>2026-04-25T09:35:31.416Z</time></trkpt><trkpt lat="31.017635" lon="-7.1099017"><ele>1254.0</ele><time>2026-04-25T09:35:32.415Z</time></trkpt><trkpt lat="31.0177717" lon="-7.1100517"><ele>1254.3333333333333</ele><time>2026-04-25T09:35:33.415Z</time></trkpt><trkpt lat="31.0179067" lon="-7.1102033"><ele>1254.6666666666665</ele><time>2026-04-25T09:35:34.416Z</time></trkpt><trkpt lat="31.0180417" lon="-7.1103517"><ele>1255.0</ele><time>2026-04-25T09:35:35.415Z</time></trkpt><trkpt lat="31.0181783" lon="-7.1105"><ele>1255.0</ele><time>2026-04-25T09:35:36.415Z</time></trkpt><trkpt lat="31.0183117" lon="-7.110645"><ele>1255.0</ele><time>2026-04-25T09:35:37.415Z</time></trkpt><trkpt lat="31.0184417" lon="-7.1107883"><ele>1255.0</ele><time>2026-04-25T09:35:38.415Z</time></trkpt><trkpt lat="31.018575" lon="-7.1109367"><ele>1254.6666666666665</ele><time>2026-04-25T09:35:39.415Z</time></trkpt><trkpt lat="31.0187017" lon="-7.1110883"><ele>1254.3333333333333</ele><time>2026-04-25T09:35:40.415Z</time></trkpt><trkpt lat="31.0188333" lon="-7.1112317"><ele>1254.0</ele><time>2026-04-25T09:35:41.415Z</time></trkpt><trkpt lat="31.0189633" lon="-7.1113833"><ele>1254.0</ele><time>2026-04-25T09:35:42.416Z</time></trkpt><trkpt lat="31.0190933" lon="-7.1115367"><ele>1254.0</ele><time>2026-04-25T09:35:43.415Z</time></trkpt><trkpt lat="31.0192267" lon="-7.1116833"><ele>1254.0</ele><time>2026-04-25T09:35:44.415Z</time></trkpt><trkpt lat="31.0193567" lon="-7.1118283"><ele>1254.6666666666667</ele><time>2026-04-25T09:35:45.415Z</time></trkpt><trkpt lat="31.0194867" lon="-7.1119717"><ele>1255.3333333333335</ele><time>2026-04-25T09:35:46.415Z</time></trkpt><trkpt lat="31.0196217" lon="-7.112115"><ele>1256.0</ele><time>2026-04-25T09:35:47.415Z</time></trkpt><trkpt lat="31.01976" lon="-7.112255"><ele>1256.0</ele><time>2026-04-25T09:35:48.415Z</time></trkpt><trkpt lat="31.0199033" lon="-7.1123917"><ele>1256.0</ele><time>2026-04-25T09:35:49.415Z</time></trkpt><trkpt lat="31.0200517" lon="-7.1125217"><ele>1256.0</ele><time>2026-04-25T09:35:50.415Z</time></trkpt><trkpt lat="31.0201983" lon="-7.1126517"><ele>1256.0</ele><time>2026-04-25T09:35:51.415Z</time></trkpt><trkpt lat="31.02035" lon="-7.1127833"><ele>1256.0</ele><time>2026-04-25T09:35:52.415Z</time></trkpt><trkpt lat="31.0205017" lon="-7.1129067"><ele>1256.0</ele><time>2026-04-25T09:35:53.415Z</time></trkpt><trkpt lat="31.0206517" lon="-7.1130283"><ele>1256.0</ele><time>2026-04-25T09:35:54.415Z</time></trkpt><trkpt lat="31.0208067" lon="-7.1131483"><ele>1256.0</ele><time>2026-04-25T09:35:55.415Z</time></trkpt><trkpt lat="31.0209633" lon="-7.1132617"><ele>1256.0</ele><time>2026-04-25T09:35:56.415Z</time></trkpt><trkpt lat="31.021125" lon="-7.11337"><ele>1256.3333333333335</ele><time>2026-04-25T09:35:57.415Z</time></trkpt><trkpt lat="31.0212917" lon="-7.1134767"><ele>1256.6666666666667</ele><time>2026-04-25T09:35:58.415Z</time></trkpt><trkpt lat="31.02146" lon="-7.113585"><ele>1257.0</ele><time>2026-04-25T09:35:59.415Z</time></trkpt><trkpt lat="31.021625" lon="-7.11369"><ele>1257.0</ele><time>2026-04-25T09:36:00.415Z</time></trkpt><trkpt lat="31.0217933" lon="-7.113795"><ele>1257.0</ele><time>2026-04-25T09:36:01.415Z</time></trkpt><trkpt lat="31.0219617" lon="-7.1139017"><ele>1257.0</ele><time>2026-04-25T09:36:02.415Z</time></trkpt><trkpt lat="31.0221317" lon="-7.1140033"><ele>1257.6666666666667</ele><time>2026-04-25T09:36:03.415Z</time></trkpt><trkpt lat="31.0223" lon="-7.1141017"><ele>1258.3333333333335</ele><time>2026-04-25T09:36:04.415Z</time></trkpt><trkpt lat="31.0224717" lon="-7.1141967"><ele>1259.0</ele><time>2026-04-25T09:36:05.415Z</time></trkpt><trkpt lat="31.0226433" lon="-7.1142983"><ele>1259.3333333333335</ele><time>2026-04-25T09:36:06.415Z</time></trkpt><trkpt lat="31.02281" lon="-7.1144033"><ele>1259.6666666666667</ele><time>2026-04-25T09:36:07.415Z</time></trkpt><trkpt lat="31.0229783" lon="-7.1145067"><ele>1260.0</ele><time>2026-04-25T09:36:08.415Z</time></trkpt><trkpt lat="31.023145" lon="-7.11461"><ele>1260.0</ele><time>2026-04-25T09:36:09.415Z</time></trkpt><trkpt lat="31.0233117" lon="-7.11471"><ele>1260.0</ele><time>2026-04-25T09:36:10.415Z</time></trkpt><trkpt lat="31.023485" lon="-7.1148017"><ele>1260.0</ele><time>2026-04-25T09:36:11.415Z</time></trkpt><trkpt lat="31.0236583" lon="-7.1149033"><ele>1260.0</ele><time>2026-04-25T09:36:12.415Z</time></trkpt><trkpt lat="31.0238267" lon="-7.1149983"><ele>1260.0</ele><time>2026-04-25T09:36:13.415Z</time></trkpt><trkpt lat="31.0239933" lon="-7.1151067"><ele>1260.0</ele><time>2026-04-25T09:36:14.415Z</time></trkpt><trkpt lat="31.0241667" lon="-7.1152067"><ele>1260.6666666666667</ele><time>2026-04-25T09:36:15.415Z</time></trkpt><trkpt lat="31.02434" lon="-7.115315"><ele>1261.3333333333335</ele><time>2026-04-25T09:36:16.415Z</time></trkpt><trkpt lat="31.0245167" lon="-7.115425"><ele>1262.0</ele><time>2026-04-25T09:36:17.415Z</time></trkpt><trkpt lat="31.024695" lon="-7.1155467"><ele>1262.0</ele><time>2026-04-25T09:36:18.415Z</time></trkpt><trkpt lat="31.02487" lon="-7.1156683"><ele>1262.0</ele><time>2026-04-25T09:36:19.415Z</time></trkpt><trkpt lat="31.0250417" lon="-7.1157983"><ele>1262.0</ele><time>2026-04-25T09:36:20.415Z</time></trkpt><trkpt lat="31.0252117" lon="-7.1159333"><ele>1262.6666666666667</ele><time>2026-04-25T09:36:21.415Z</time></trkpt><trkpt lat="31.0253817" lon="-7.1160733"><ele>1263.3333333333333</ele><time>2026-04-25T09:36:22.415Z</time></trkpt><trkpt lat="31.0255467" lon="-7.1162167"><ele>1264.0</ele><time>2026-04-25T09:36:23.415Z</time></trkpt><trkpt lat="31.0257067" lon="-7.11636"><ele>1264.3333333333333</ele><time>2026-04-25T09:36:24.416Z</time></trkpt><trkpt lat="31.02586" lon="-7.1165083"><ele>1264.6666666666667</ele><time>2026-04-25T09:36:25.415Z</time></trkpt><trkpt lat="31.026015" lon="-7.1166583"><ele>1265.0</ele><time>2026-04-25T09:36:26.415Z</time></trkpt><trkpt lat="31.026165" lon="-7.116815"><ele>1265.0</ele><time>2026-04-25T09:36:27.415Z</time></trkpt><trkpt lat="31.0263167" lon="-7.1169717"><ele>1265.0</ele><time>2026-04-25T09:36:28.415Z</time></trkpt><trkpt lat="31.026455" lon="-7.1171433"><ele>1265.0</ele><time>2026-04-25T09:36:29.415Z</time></trkpt><trkpt lat="31.0265917" lon="-7.1173167"><ele>1264.6666666666667</ele><time>2026-04-25T09:36:30.415Z</time></trkpt><trkpt lat="31.0267333" lon="-7.11749"><ele>1264.3333333333333</ele><time>2026-04-25T09:36:31.415Z</time></trkpt><trkpt lat="31.0268683" lon="-7.1176667"><ele>1264.0</ele><time>2026-04-25T09:36:32.415Z</time></trkpt><trkpt lat="31.027" lon="-7.11785"><ele>1264.0</ele><time>2026-04-25T09:36:33.416Z</time></trkpt><trkpt lat="31.0271333" lon="-7.11803"><ele>1264.0</ele><time>2026-04-25T09:36:34.415Z</time></trkpt><trkpt lat="31.0272567" lon="-7.1182183"><ele>1264.0</ele><time>2026-04-25T09:36:35.415Z</time></trkpt><trkpt lat="31.0273733" lon="-7.1184017"><ele>1264.6666666666665</ele><time>2026-04-25T09:36:36.415Z</time></trkpt><trkpt lat="31.0274967" lon="-7.1185867"><ele>1265.3333333333333</ele><time>2026-04-25T09:36:37.415Z</time></trkpt><trkpt lat="31.027615" lon="-7.1187817"><ele>1266.0</ele><time>2026-04-25T09:36:38.415Z</time></trkpt><trkpt lat="31.0277333" lon="-7.1189783"><ele>1266.0</ele><time>2026-04-25T09:36:39.415Z</time></trkpt><trkpt lat="31.0278483" lon="-7.119175"><ele>1266.0</ele><time>2026-04-25T09:36:40.416Z</time></trkpt><trkpt lat="31.0279633" lon="-7.1193767"><ele>1266.0</ele><time>2026-04-25T09:36:41.415Z</time></trkpt><trkpt lat="31.0280817" lon="-7.1195683"><ele>1266.0</ele><time>2026-04-25T09:36:42.415Z</time></trkpt><trkpt lat="31.028195" lon="-7.1197617"><ele>1266.0</ele><time>2026-04-25T09:36:43.415Z</time></trkpt><trkpt lat="31.0283133" lon="-7.1199533"><ele>1266.0</ele><time>2026-04-25T09:36:44.415Z</time></trkpt><trkpt lat="31.0284333" lon="-7.1201417"><ele>1267.0</ele><time>2026-04-25T09:36:45.415Z</time></trkpt><trkpt lat="31.0285617" lon="-7.1203217"><ele>1268.0</ele><time>2026-04-25T09:36:46.415Z</time></trkpt><trkpt lat="31.028695" lon="-7.120495"><ele>1269.0</ele><time>2026-04-25T09:36:47.415Z</time></trkpt><trkpt lat="31.0288367" lon="-7.12066"><ele>1268.6666666666667</ele><time>2026-04-25T09:36:48.415Z</time></trkpt><trkpt lat="31.028985" lon="-7.12082"><ele>1268.3333333333335</ele><time>2026-04-25T09:36:49.415Z</time></trkpt><trkpt lat="31.029145" lon="-7.1209733"><ele>1268.0</ele><time>2026-04-25T09:36:50.415Z</time></trkpt><trkpt lat="31.0293133" lon="-7.1211183"><ele>1268.6666666666667</ele><time>2026-04-25T09:36:51.415Z</time></trkpt><trkpt lat="31.029485" lon="-7.1212533"><ele>1269.3333333333333</ele><time>2026-04-25T09:36:52.415Z</time></trkpt><trkpt lat="31.0296617" lon="-7.121385"><ele>1270.0</ele><time>2026-04-25T09:36:53.415Z</time></trkpt><trkpt lat="31.0298367" lon="-7.1214983"><ele>1270.0</ele><time>2026-04-25T09:36:54.415Z</time></trkpt><trkpt lat="31.03001" lon="-7.121605"><ele>1270.0</ele><time>2026-04-25T09:36:55.415Z</time></trkpt><trkpt lat="31.0301883" lon="-7.1216967"><ele>1270.0</ele><time>2026-04-25T09:36:56.415Z</time></trkpt><trkpt lat="31.0303717" lon="-7.1217767"><ele>1270.0</ele><time>2026-04-25T09:36:57.415Z</time></trkpt><trkpt lat="31.0305583" lon="-7.1218567"><ele>1270.0</ele><time>2026-04-25T09:36:58.415Z</time></trkpt><trkpt lat="31.0307433" lon="-7.1219217"><ele>1270.0</ele><time>2026-04-25T09:36:59.416Z</time></trkpt><trkpt lat="31.030935" lon="-7.12198"><ele>1270.6666666666665</ele><time>2026-04-25T09:37:00.415Z</time></trkpt><trkpt lat="31.0311283" lon="-7.1220333"><ele>1271.3333333333333</ele><time>2026-04-25T09:37:01.415Z</time></trkpt><trkpt lat="31.03133" lon="-7.122085"><ele>1272.0</ele><time>2026-04-25T09:37:02.415Z</time></trkpt><trkpt lat="31.0315233" lon="-7.122125"><ele>1271.3333333333333</ele><time>2026-04-25T09:37:03.415Z</time></trkpt><trkpt lat="31.0317233" lon="-7.1221767"><ele>1270.6666666666665</ele><time>2026-04-25T09:37:04.415Z</time></trkpt><trkpt lat="31.0319183" lon="-7.1222267"><ele>1270.0</ele><time>2026-04-25T09:37:05.415Z</time></trkpt><trkpt lat="31.0321133" lon="-7.12228"><ele>1270.0</ele><time>2026-04-25T09:37:06.415Z</time></trkpt><trkpt lat="31.0323083" lon="-7.1223267"><ele>1270.0</ele><time>2026-04-25T09:37:07.415Z</time></trkpt><trkpt lat="31.0325067" lon="-7.122375"><ele>1270.0</ele><time>2026-04-25T09:37:08.415Z</time></trkpt><trkpt lat="31.032705" lon="-7.12243"><ele>1268.6666666666665</ele><time>2026-04-25T09:37:09.415Z</time></trkpt><trkpt lat="31.0329" lon="-7.12248"><ele>1267.3333333333333</ele><time>2026-04-25T09:37:10.415Z</time></trkpt><trkpt lat="31.03309" lon="-7.1225317"><ele>1266.0</ele><time>2026-04-25T09:37:11.415Z</time></trkpt><trkpt lat="31.0332783" lon="-7.12258"><ele>1266.3333333333333</ele><time>2026-04-25T09:37:12.415Z</time></trkpt><trkpt lat="31.0334567" lon="-7.1226267"><ele>1266.6666666666665</ele><time>2026-04-25T09:37:13.415Z</time></trkpt><trkpt lat="31.0336367" lon="-7.1226733"><ele>1267.0</ele><time>2026-04-25T09:37:14.415Z</time></trkpt><trkpt lat="31.0338117" lon="-7.1227267"><ele>1267.0</ele><time>2026-04-25T09:37:15.415Z</time></trkpt><trkpt lat="31.033985" lon="-7.1227817"><ele>1267.0</ele><time>2026-04-25T09:37:16.415Z</time></trkpt><trkpt lat="31.0341633" lon="-7.1228383"><ele>1267.0</ele><time>2026-04-25T09:37:17.415Z</time></trkpt><trkpt lat="31.03434" lon="-7.1229017"><ele>1267.3333333333333</ele><time>2026-04-25T09:37:18.415Z</time></trkpt><trkpt lat="31.034515" lon="-7.1229717"><ele>1267.6666666666667</ele><time>2026-04-25T09:37:19.415Z</time></trkpt><trkpt lat="31.0346917" lon="-7.12305"><ele>1268.0</ele><time>2026-04-25T09:37:20.415Z</time></trkpt><trkpt lat="31.0348667" lon="-7.12313"><ele>1268.3333333333335</ele><time>2026-04-25T09:37:21.415Z</time></trkpt><trkpt lat="31.0350417" lon="-7.12321"><ele>1268.6666666666667</ele><time>2026-04-25T09:37:22.415Z</time></trkpt><trkpt lat="31.0352217" lon="-7.123295"><ele>1269.0</ele><time>2026-04-25T09:37:23.415Z</time></trkpt><trkpt lat="31.0354" lon="-7.1233833"><ele>1269.3333333333333</ele><time>2026-04-25T09:37:24.415Z</time></trkpt><trkpt lat="31.03558" lon="-7.123475"><ele>1269.6666666666665</ele><time>2026-04-25T09:37:25.415Z</time></trkpt><trkpt lat="31.0357583" lon="-7.1235667"><ele>1270.0</ele><time>2026-04-25T09:37:26.415Z</time></trkpt><trkpt lat="31.03594" lon="-7.12366"><ele>1270.3333333333333</ele><time>2026-04-25T09:37:27.415Z</time></trkpt><trkpt lat="31.0361183" lon="-7.1237467"><ele>1270.6666666666667</ele><time>2026-04-25T09:37:28.415Z</time></trkpt><trkpt lat="31.0362933" lon="-7.1238383"><ele>1271.0</ele><time>2026-04-25T09:37:29.415Z</time></trkpt><trkpt lat="31.0364717" lon="-7.1239283"><ele>1271.0</ele><time>2026-04-25T09:37:30.415Z</time></trkpt><trkpt lat="31.0366483" lon="-7.1240183"><ele>1271.0</ele><time>2026-04-25T09:37:31.415Z</time></trkpt><trkpt lat="31.0368283" lon="-7.12411"><ele>1271.0</ele><time>2026-04-25T09:37:32.415Z</time></trkpt><trkpt lat="31.0370067" lon="-7.1241983"><ele>1270.6666666666667</ele><time>2026-04-25T09:37:33.415Z</time></trkpt><trkpt lat="31.03718" lon="-7.1242833"><ele>1270.3333333333333</ele><time>2026-04-25T09:37:34.415Z</time></trkpt><trkpt lat="31.03734" lon="-7.12437"><ele>1270.0</ele><time>2026-04-25T09:37:35.415Z</time></trkpt><trkpt lat="31.0375017" lon="-7.1244483"><ele>1271.0</ele><time>2026-04-25T09:37:36.415Z</time></trkpt><trkpt lat="31.0376533" lon="-7.1245267"><ele>1272.0</ele><time>2026-04-25T09:37:37.415Z</time></trkpt><trkpt lat="31.0377917" lon="-7.1246"><ele>1273.0</ele><time>2026-04-25T09:37:38.415Z</time></trkpt><trkpt lat="31.0379233" lon="-7.124665"><ele>1273.0</ele><time>2026-04-25T09:37:39.415Z</time></trkpt><trkpt lat="31.0380533" lon="-7.1247317"><ele>1273.0</ele><time>2026-04-25T09:37:40.415Z</time></trkpt><trkpt lat="31.0381817" lon="-7.1247967"><ele>1273.0</ele><time>2026-04-25T09:37:41.415Z</time></trkpt><trkpt lat="31.0383017" lon="-7.124865"><ele>1273.0</ele><time>2026-04-25T09:37:42.415Z</time></trkpt><trkpt lat="31.0384133" lon="-7.12493"><ele>1273.75</ele><time>2026-04-25T09:37:43.415Z</time></trkpt><trkpt lat="31.0385183" lon="-7.125"><ele>1274.5</ele><time>2026-04-25T09:37:44.415Z</time></trkpt><trkpt lat="31.0386183" lon="-7.12507"><ele>1275.25</ele><time>2026-04-25T09:37:45.415Z</time></trkpt><trkpt lat="31.0387183" lon="-7.1251383"><ele>1276.0</ele><time>2026-04-25T09:37:46.415Z</time></trkpt><trkpt lat="31.0388183" lon="-7.125215"><ele>1276.0</ele><time>2026-04-25T09:37:47.415Z</time></trkpt><trkpt lat="31.038905" lon="-7.1252917"><ele>1276.0</ele><time>2026-04-25T09:37:48.415Z</time></trkpt><trkpt lat="31.0389867" lon="-7.1253667"><ele>1276.0</ele><time>2026-04-25T09:37:49.415Z</time></trkpt><trkpt lat="31.0390617" lon="-7.12544"><ele>1276.0</ele><time>2026-04-25T09:37:50.414Z</time></trkpt><trkpt lat="31.039125" lon="-7.125515"><ele>1276.0</ele><time>2026-04-25T09:37:51.414Z</time></trkpt><trkpt lat="31.039175" lon="-7.125575"><ele>1276.3999999999999</ele><time>2026-04-25T09:37:52.414Z</time></trkpt><trkpt lat="31.03922" lon="-7.1256333"><ele>1276.8</ele><time>2026-04-25T09:37:53.414Z</time></trkpt><trkpt lat="31.0392933" lon="-7.1257317"><ele>1277.1999999999998</ele><time>2026-04-25T09:37:55.414Z</time></trkpt><trkpt lat="31.0393517" lon="-7.1258133"><ele>1277.6</ele><time>2026-04-25T09:37:57.414Z</time></trkpt><trkpt lat="31.0394083" lon="-7.1258933"><ele>1278.0</ele><time>2026-04-25T09:37:59.414Z</time></trkpt><trkpt lat="31.0394733" lon="-7.1259933"><ele>1278.8</ele><time>2026-04-25T09:38:01.414Z</time></trkpt><trkpt lat="31.0395417" lon="-7.1261017"><ele>1279.6</ele><time>2026-04-25T09:38:03.414Z</time></trkpt><trkpt lat="31.0395917" lon="-7.1261733"><ele>1280.3999999999999</ele><time>2026-04-25T09:38:04.415Z</time></trkpt><trkpt lat="31.039655" lon="-7.126265"><ele>1281.1999999999998</ele><time>2026-04-25T09:38:05.414Z</time></trkpt><trkpt lat="31.0397217" lon="-7.12637"><ele>1282.0</ele><time>2026-04-25T09:38:06.414Z</time></trkpt><trkpt lat="31.0398" lon="-7.1264967"><ele>1283.25</ele><time>2026-04-25T09:38:07.414Z</time></trkpt><trkpt lat="31.03988" lon="-7.1266283"><ele>1284.5</ele><time>2026-04-25T09:38:08.414Z</time></trkpt><trkpt lat="31.0399533" lon="-7.126765"><ele>1285.75</ele><time>2026-04-25T09:38:09.414Z</time></trkpt><trkpt lat="31.0400333" lon="-7.1268917"><ele>1287.0</ele><time>2026-04-25T09:38:10.414Z</time></trkpt><trkpt lat="31.0401083" lon="-7.12702"><ele>1287.0</ele><time>2026-04-25T09:38:11.414Z</time></trkpt><trkpt lat="31.0401883" lon="-7.1271583"><ele>1287.0</ele><time>2026-04-25T09:38:12.414Z</time></trkpt><trkpt lat="31.0402683" lon="-7.1272983"><ele>1287.0</ele><time>2026-04-25T09:38:13.414Z</time></trkpt><trkpt lat="31.0403567" lon="-7.127445"><ele>1287.0</ele><time>2026-04-25T09:38:14.414Z</time></trkpt><trkpt lat="31.0404467" lon="-7.1275833"><ele>1289.25</ele><time>2026-04-25T09:38:15.414Z</time></trkpt><trkpt lat="31.0405367" lon="-7.1277183"><ele>1291.5</ele><time>2026-04-25T09:38:16.414Z</time></trkpt><trkpt lat="31.040625" lon="-7.1278417"><ele>1293.75</ele><time>2026-04-25T09:38:17.414Z</time></trkpt><trkpt lat="31.0407117" lon="-7.127965"><ele>1296.0</ele><time>2026-04-25T09:38:18.414Z</time></trkpt><trkpt lat="31.040795" lon="-7.128085"><ele>1291.5</ele><time>2026-04-25T09:38:19.414Z</time></trkpt><trkpt lat="31.0408833" lon="-7.1282"><ele>1287.0</ele><time>2026-04-25T09:38:20.414Z</time></trkpt><trkpt lat="31.04097" lon="-7.1283067"><ele>1282.5</ele><time>2026-04-25T09:38:21.414Z</time></trkpt><trkpt lat="31.0410567" lon="-7.1284133"><ele>1278.0</ele><time>2026-04-25T09:38:22.414Z</time></trkpt><trkpt lat="31.04114" lon="-7.1285267"><ele>1278.0</ele><time>2026-04-25T09:38:23.414Z</time></trkpt><trkpt lat="31.0412233" lon="-7.128635"><ele>1278.0</ele><time>2026-04-25T09:38:24.414Z</time></trkpt><trkpt lat="31.0413033" lon="-7.1287383"><ele>1278.0</ele><time>2026-04-25T09:38:25.414Z</time></trkpt><trkpt lat="31.0413883" lon="-7.1288383"><ele>1278.0</ele><time>2026-04-25T09:38:26.414Z</time></trkpt><trkpt lat="31.0414717" lon="-7.1289283"><ele>1278.0</ele><time>2026-04-25T09:38:27.414Z</time></trkpt><trkpt lat="31.0415483" lon="-7.1290133"><ele>1278.0</ele><time>2026-04-25T09:38:28.414Z</time></trkpt><trkpt lat="31.0416167" lon="-7.129095"><ele>1278.0</ele><time>2026-04-25T09:38:29.414Z</time></trkpt><trkpt lat="31.0416883" lon="-7.1291767"><ele>1278.0</ele><time>2026-04-25T09:38:30.414Z</time></trkpt><trkpt lat="31.0417517" lon="-7.1292617"><ele>1278.0</ele><time>2026-04-25T09:38:31.414Z</time></trkpt><trkpt lat="31.0418183" lon="-7.1293383"><ele>1277.6</ele><time>2026-04-25T09:38:32.414Z</time></trkpt><trkpt lat="31.0418833" lon="-7.1294133"><ele>1277.1999999999998</ele><time>2026-04-25T09:38:33.414Z</time></trkpt><trkpt lat="31.04195" lon="-7.129495"><ele>1276.8</ele><time>2026-04-25T09:38:34.414Z</time></trkpt><trkpt lat="31.04202" lon="-7.12957"><ele>1276.3999999999999</ele><time>2026-04-25T09:38:35.414Z</time></trkpt><trkpt lat="31.0420867" lon="-7.1296517"><ele>1276.0</ele><time>2026-04-25T09:38:36.414Z</time></trkpt><trkpt lat="31.0421517" lon="-7.1297367"><ele>1276.0</ele><time>2026-04-25T09:38:37.414Z</time></trkpt><trkpt lat="31.0422133" lon="-7.12982"><ele>1276.0</ele><time>2026-04-25T09:38:38.414Z</time></trkpt><trkpt lat="31.042275" lon="-7.1299017"><ele>1276.0</ele><time>2026-04-25T09:38:39.414Z</time></trkpt><trkpt lat="31.04234" lon="-7.1299783"><ele>1276.0</ele><time>2026-04-25T09:38:40.414Z</time></trkpt><trkpt lat="31.0423983" lon="-7.1300483"><ele>1276.0</ele><time>2026-04-25T09:38:41.414Z</time></trkpt><trkpt lat="31.042455" lon="-7.1301217"><ele>1276.0</ele><time>2026-04-25T09:38:42.414Z</time></trkpt><trkpt lat="31.0425167" lon="-7.1301967"><ele>1276.6</ele><time>2026-04-25T09:38:43.414Z</time></trkpt><trkpt lat="31.04258" lon="-7.1302783"><ele>1277.1999999999998</ele><time>2026-04-25T09:38:44.414Z</time></trkpt><trkpt lat="31.0426433" lon="-7.1303617"><ele>1277.8000000000002</ele><time>2026-04-25T09:38:45.414Z</time></trkpt><trkpt lat="31.0427117" lon="-7.1304467"><ele>1278.4</ele><time>2026-04-25T09:38:46.414Z</time></trkpt><trkpt lat="31.042785" lon="-7.1305317"><ele>1279.0</ele><time>2026-04-25T09:38:47.414Z</time></trkpt><trkpt lat="31.04286" lon="-7.1306133"><ele>1279.0</ele><time>2026-04-25T09:38:48.414Z</time></trkpt><trkpt lat="31.0429367" lon="-7.130695"><ele>1279.0</ele><time>2026-04-25T09:38:49.414Z</time></trkpt><trkpt lat="31.0430133" lon="-7.13078"><ele>1279.0</ele><time>2026-04-25T09:38:50.414Z</time></trkpt><trkpt lat="31.0430917" lon="-7.1308633"><ele>1279.0</ele><time>2026-04-25T09:38:51.414Z</time></trkpt><trkpt lat="31.0431667" lon="-7.130955"><ele>1279.0</ele><time>2026-04-25T09:38:52.414Z</time></trkpt><trkpt lat="31.0432467" lon="-7.1310433"><ele>1279.4</ele><time>2026-04-25T09:38:53.414Z</time></trkpt><trkpt lat="31.0433267" lon="-7.1311317"><ele>1279.8000000000002</ele><time>2026-04-25T09:38:54.414Z</time></trkpt><trkpt lat="31.043405" lon="-7.131215"><ele>1280.1999999999998</ele><time>2026-04-25T09:38:55.414Z</time></trkpt><trkpt lat="31.0434833" lon="-7.1313017"><ele>1280.6</ele><time>2026-04-25T09:38:56.414Z</time></trkpt><trkpt lat="31.0435617" lon="-7.1313833"><ele>1281.0</ele><time>2026-04-25T09:38:57.414Z</time></trkpt><trkpt lat="31.0436333" lon="-7.1314567"><ele>1281.0</ele><time>2026-04-25T09:38:58.414Z</time></trkpt><trkpt lat="31.0437083" lon="-7.1315367"><ele>1281.0</ele><time>2026-04-25T09:38:59.414Z</time></trkpt><trkpt lat="31.0437817" lon="-7.1316167"><ele>1281.0</ele><time>2026-04-25T09:39:00.414Z</time></trkpt><trkpt lat="31.043855" lon="-7.13169"><ele>1281.0</ele><time>2026-04-25T09:39:01.414Z</time></trkpt><trkpt lat="31.0439283" lon="-7.131765"><ele>1281.0</ele><time>2026-04-25T09:39:02.414Z</time></trkpt><trkpt lat="31.0439933" lon="-7.131835"><ele>1281.1666666666667</ele><time>2026-04-25T09:39:03.414Z</time></trkpt><trkpt lat="31.0440567" lon="-7.1319033"><ele>1281.3333333333333</ele><time>2026-04-25T09:39:04.414Z</time></trkpt><trkpt lat="31.0441183" lon="-7.1319683"><ele>1281.5</ele><time>2026-04-25T09:39:05.414Z</time></trkpt><trkpt lat="31.0441833" lon="-7.132035"><ele>1281.6666666666665</ele><time>2026-04-25T09:39:06.414Z</time></trkpt><trkpt lat="31.0442483" lon="-7.1321017"><ele>1281.8333333333333</ele><time>2026-04-25T09:39:07.414Z</time></trkpt><trkpt lat="31.0443133" lon="-7.1321683"><ele>1282.0</ele><time>2026-04-25T09:39:08.414Z</time></trkpt><trkpt lat="31.0443783" lon="-7.1322317"><ele>1281.5</ele><time>2026-04-25T09:39:09.414Z</time></trkpt><trkpt lat="31.0444417" lon="-7.1322967"><ele>1281.0</ele><time>2026-04-25T09:39:10.414Z</time></trkpt><trkpt lat="31.044505" lon="-7.1323667"><ele>1280.5</ele><time>2026-04-25T09:39:11.414Z</time></trkpt><trkpt lat="31.04457" lon="-7.1324333"><ele>1280.0</ele><time>2026-04-25T09:39:12.414Z</time></trkpt><trkpt lat="31.04464" lon="-7.132495"><ele>1279.5</ele><time>2026-04-25T09:39:13.414Z</time></trkpt><trkpt lat="31.0447067" lon="-7.1325533"><ele>1279.0</ele><time>2026-04-25T09:39:14.414Z</time></trkpt><trkpt lat="31.0447767" lon="-7.13261"><ele>1279.0</ele><time>2026-04-25T09:39:15.414Z</time></trkpt><trkpt lat="31.0448433" lon="-7.1326733"><ele>1279.0</ele><time>2026-04-25T09:39:16.414Z</time></trkpt><trkpt lat="31.0449133" lon="-7.1327367"><ele>1279.0</ele><time>2026-04-25T09:39:17.414Z</time></trkpt><trkpt lat="31.0449817" lon="-7.1328"><ele>1279.0</ele><time>2026-04-25T09:39:18.414Z</time></trkpt><trkpt lat="31.0450433" lon="-7.132865"><ele>1279.0</ele><time>2026-04-25T09:39:19.414Z</time></trkpt><trkpt lat="31.045105" lon="-7.1329333"><ele>1279.0</ele><time>2026-04-25T09:39:20.414Z</time></trkpt><trkpt lat="31.0451783" lon="-7.133"><ele>1279.0</ele><time>2026-04-25T09:39:21.414Z</time></trkpt><trkpt lat="31.0452483" lon="-7.1330633"><ele>1279.0</ele><time>2026-04-25T09:39:22.414Z</time></trkpt><trkpt lat="31.0453133" lon="-7.13313"><ele>1279.0</ele><time>2026-04-25T09:39:23.414Z</time></trkpt><trkpt lat="31.0453767" lon="-7.133205"><ele>1279.0</ele><time>2026-04-25T09:39:24.414Z</time></trkpt><trkpt lat="31.0454433" lon="-7.1332767"><ele>1279.0</ele><time>2026-04-25T09:39:25.415Z</time></trkpt><trkpt lat="31.04551" lon="-7.133345"><ele>1279.0</ele><time>2026-04-25T09:39:26.414Z</time></trkpt><trkpt lat="31.0455767" lon="-7.1334167"><ele>1279.0</ele><time>2026-04-25T09:39:27.414Z</time></trkpt><trkpt lat="31.0456483" lon="-7.13349"><ele>1279.0</ele><time>2026-04-25T09:39:28.414Z</time></trkpt><trkpt lat="31.0457183" lon="-7.1335667"><ele>1279.0</ele><time>2026-04-25T09:39:29.414Z</time></trkpt><trkpt lat="31.0457833" lon="-7.133645"><ele>1279.0</ele><time>2026-04-25T09:39:30.414Z</time></trkpt><trkpt lat="31.0458483" lon="-7.13372"><ele>1279.0</ele><time>2026-04-25T09:39:31.414Z</time></trkpt><trkpt lat="31.0459133" lon="-7.1337967"><ele>1279.0</ele><time>2026-04-25T09:39:32.414Z</time></trkpt><trkpt lat="31.0459833" lon="-7.1338767"><ele>1279.0</ele><time>2026-04-25T09:39:33.414Z</time></trkpt><trkpt lat="31.0460517" lon="-7.1339583"><ele>1279.0</ele><time>2026-04-25T09:39:34.414Z</time></trkpt><trkpt lat="31.0461167" lon="-7.1340417"><ele>1279.0</ele><time>2026-04-25T09:39:35.415Z</time></trkpt><trkpt lat="31.0461867" lon="-7.1341217"><ele>1279.0</ele><time>2026-04-25T09:39:36.414Z</time></trkpt><trkpt lat="31.0462583" lon="-7.1342033"><ele>1279.0</ele><time>2026-04-25T09:39:37.414Z</time></trkpt><trkpt lat="31.0463283" lon="-7.1342817"><ele>1279.0</ele><time>2026-04-25T09:39:38.414Z</time></trkpt><trkpt lat="31.0463967" lon="-7.1343583"><ele>1279.0</ele><time>2026-04-25T09:39:39.414Z</time></trkpt><trkpt lat="31.046465" lon="-7.134445"><ele>1279.0</ele><time>2026-04-25T09:39:40.414Z</time></trkpt><trkpt lat="31.0465317" lon="-7.134535"><ele>1279.0</ele><time>2026-04-25T09:39:41.414Z</time></trkpt><trkpt lat="31.0466017" lon="-7.1346217"><ele>1279.0</ele><time>2026-04-25T09:39:42.414Z</time></trkpt><trkpt lat="31.04667" lon="-7.1347117"><ele>1279.0</ele><time>2026-04-25T09:39:43.414Z</time></trkpt><trkpt lat="31.04674" lon="-7.1348117"><ele>1279.0</ele><time>2026-04-25T09:39:44.414Z</time></trkpt><trkpt lat="31.04681" lon="-7.1349133"><ele>1279.0</ele><time>2026-04-25T09:39:45.414Z</time></trkpt><trkpt lat="31.0468867" lon="-7.1350217"><ele>1279.0</ele><time>2026-04-25T09:39:46.414Z</time></trkpt><trkpt lat="31.0469733" lon="-7.13513"><ele>1279.0</ele><time>2026-04-25T09:39:47.414Z</time></trkpt><trkpt lat="31.0470683" lon="-7.1352583"><ele>1279.0</ele><time>2026-04-25T09:39:48.414Z</time></trkpt><trkpt lat="31.0471683" lon="-7.1353933"><ele>1279.0</ele><time>2026-04-25T09:39:49.414Z</time></trkpt><trkpt lat="31.0472733" lon="-7.1355317"><ele>1279.0</ele><time>2026-04-25T09:39:50.414Z</time></trkpt><trkpt lat="31.04738" lon="-7.1356683"><ele>1279.0</ele><time>2026-04-25T09:39:51.414Z</time></trkpt><trkpt lat="31.04749" lon="-7.1358133"><ele>1279.0</ele><time>2026-04-25T09:39:52.414Z</time></trkpt><trkpt lat="31.047605" lon="-7.135965"><ele>1279.6666666666665</ele><time>2026-04-25T09:39:53.414Z</time></trkpt><trkpt lat="31.0477133" lon="-7.1361267"><ele>1280.3333333333333</ele><time>2026-04-25T09:39:54.414Z</time></trkpt><trkpt lat="31.047815" lon="-7.1363033"><ele>1281.0</ele><time>2026-04-25T09:39:55.414Z</time></trkpt><trkpt lat="31.047895" lon="-7.136495"><ele>1283.3333333333333</ele><time>2026-04-25T09:39:56.414Z</time></trkpt><trkpt lat="31.0479617" lon="-7.1367017"><ele>1285.6666666666665</ele><time>2026-04-25T09:39:57.414Z</time></trkpt><trkpt lat="31.0480217" lon="-7.1369183"><ele>1288.0</ele><time>2026-04-25T09:39:58.414Z</time></trkpt><trkpt lat="31.048085" lon="-7.1371367"><ele>1288.0</ele><time>2026-04-25T09:39:59.414Z</time></trkpt><trkpt lat="31.0481467" lon="-7.1373567"><ele>1288.0</ele><time>2026-04-25T09:40:00.414Z</time></trkpt><trkpt lat="31.0482183" lon="-7.1375767"><ele>1288.0</ele><time>2026-04-25T09:40:01.414Z</time></trkpt><trkpt lat="31.0482933" lon="-7.1377983"><ele>1287.3333333333333</ele><time>2026-04-25T09:40:02.414Z</time></trkpt><trkpt lat="31.0483767" lon="-7.1380217"><ele>1286.6666666666667</ele><time>2026-04-25T09:40:03.414Z</time></trkpt><trkpt lat="31.048465" lon="-7.1382517"><ele>1286.0</ele><time>2026-04-25T09:40:04.414Z</time></trkpt><trkpt lat="31.0485567" lon="-7.138485"><ele>1286.0</ele><time>2026-04-25T09:40:05.414Z</time></trkpt><trkpt lat="31.0486533" lon="-7.1387183"><ele>1286.0</ele><time>2026-04-25T09:40:06.414Z</time></trkpt><trkpt lat="31.048755" lon="-7.1389483"><ele>1286.0</ele><time>2026-04-25T09:40:07.414Z</time></trkpt><trkpt lat="31.0488533" lon="-7.1391617"><ele>1285.3333333333335</ele><time>2026-04-25T09:40:08.414Z</time></trkpt><trkpt lat="31.048955" lon="-7.139365"><ele>1284.6666666666667</ele><time>2026-04-25T09:40:09.414Z</time></trkpt><trkpt lat="31.049075" lon="-7.1395567"><ele>1284.0</ele><time>2026-04-25T09:40:10.414Z</time></trkpt><trkpt lat="31.049205" lon="-7.1397383"><ele>1284.6666666666667</ele><time>2026-04-25T09:40:11.414Z</time></trkpt><trkpt lat="31.0493483" lon="-7.1399067"><ele>1285.3333333333335</ele><time>2026-04-25T09:40:12.414Z</time></trkpt><trkpt lat="31.0495033" lon="-7.14005"><ele>1286.0</ele><time>2026-04-25T09:40:13.415Z</time></trkpt><trkpt lat="31.0496683" lon="-7.1401733"><ele>1286.0</ele><time>2026-04-25T09:40:14.414Z</time></trkpt><trkpt lat="31.0498467" lon="-7.14026"><ele>1286.0</ele><time>2026-04-25T09:40:15.414Z</time></trkpt><trkpt lat="31.050035" lon="-7.1403317"><ele>1286.0</ele><time>2026-04-25T09:40:16.415Z</time></trkpt><trkpt lat="31.0502267" lon="-7.1403867"><ele>1287.3333333333335</ele><time>2026-04-25T09:40:17.414Z</time></trkpt><trkpt lat="31.050415" lon="-7.140445"><ele>1288.6666666666667</ele><time>2026-04-25T09:40:18.414Z</time></trkpt><trkpt lat="31.050605" lon="-7.1404983"><ele>1290.0</ele><time>2026-04-25T09:40:19.414Z</time></trkpt><trkpt lat="31.0507883" lon="-7.1405633"><ele>1290.3333333333333</ele><time>2026-04-25T09:40:20.414Z</time></trkpt><trkpt lat="31.05097" lon="-7.1406433"><ele>1290.6666666666665</ele><time>2026-04-25T09:40:21.414Z</time></trkpt><trkpt lat="31.0511467" lon="-7.1407283"><ele>1291.0</ele><time>2026-04-25T09:40:22.414Z</time></trkpt><trkpt lat="31.0513267" lon="-7.1408267"><ele>1291.3333333333333</ele><time>2026-04-25T09:40:23.414Z</time></trkpt><trkpt lat="31.051505" lon="-7.1409333"><ele>1291.6666666666667</ele><time>2026-04-25T09:40:24.414Z</time></trkpt><trkpt lat="31.051685" lon="-7.14104"><ele>1292.0</ele><time>2026-04-25T09:40:25.414Z</time></trkpt><trkpt lat="31.0518567" lon="-7.14115"><ele>1291.3333333333335</ele><time>2026-04-25T09:40:26.414Z</time></trkpt><trkpt lat="31.0520267" lon="-7.1412567"><ele>1290.6666666666667</ele><time>2026-04-25T09:40:27.414Z</time></trkpt><trkpt lat="31.0521933" lon="-7.1413667"><ele>1290.0</ele><time>2026-04-25T09:40:28.414Z</time></trkpt><trkpt lat="31.052365" lon="-7.141475"><ele>1291.6666666666667</ele><time>2026-04-25T09:40:29.414Z</time></trkpt><trkpt lat="31.052535" lon="-7.1415833"><ele>1293.3333333333335</ele><time>2026-04-25T09:40:30.415Z</time></trkpt><trkpt lat="31.0527083" lon="-7.1416917"><ele>1295.0</ele><time>2026-04-25T09:40:31.414Z</time></trkpt><trkpt lat="31.0528833" lon="-7.1417983"><ele>1295.0</ele><time>2026-04-25T09:40:32.414Z</time></trkpt><trkpt lat="31.0530567" lon="-7.141905"><ele>1295.0</ele><time>2026-04-25T09:40:33.414Z</time></trkpt><trkpt lat="31.0532283" lon="-7.1420033"><ele>1295.0</ele><time>2026-04-25T09:40:34.414Z</time></trkpt><trkpt lat="31.0533933" lon="-7.1421017"><ele>1294.3333333333335</ele><time>2026-04-25T09:40:35.415Z</time></trkpt><trkpt lat="31.0535467" lon="-7.1421867"><ele>1293.6666666666667</ele><time>2026-04-25T09:40:36.414Z</time></trkpt><trkpt lat="31.053695" lon="-7.1422583"><ele>1293.0</ele><time>2026-04-25T09:40:37.414Z</time></trkpt><trkpt lat="31.05383" lon="-7.1423183"><ele>1293.0</ele><time>2026-04-25T09:40:38.414Z</time></trkpt><trkpt lat="31.0539583" lon="-7.1423667"><ele>1293.0</ele><time>2026-04-25T09:40:39.414Z</time></trkpt><trkpt lat="31.0540767" lon="-7.1424067"><ele>1293.0</ele><time>2026-04-25T09:40:40.414Z</time></trkpt><trkpt lat="31.05418" lon="-7.1424433"><ele>1293.0</ele><time>2026-04-25T09:40:41.414Z</time></trkpt><trkpt lat="31.0542733" lon="-7.1424817"><ele>1293.0</ele><time>2026-04-25T09:40:42.414Z</time></trkpt><trkpt lat="31.05435" lon="-7.1425183"><ele>1293.0</ele><time>2026-04-25T09:40:43.414Z</time></trkpt><trkpt lat="31.0544167" lon="-7.1425533"><ele>1293.0</ele><time>2026-04-25T09:40:44.414Z</time></trkpt><trkpt lat="31.0545183" lon="-7.1426133"><ele>1293.0</ele><time>2026-04-25T09:40:46.414Z</time></trkpt><trkpt lat="31.05459" lon="-7.1426633"><ele>1293.0</ele><time>2026-04-25T09:40:48.414Z</time></trkpt><trkpt lat="31.0546567" lon="-7.142705"><ele>1293.0</ele><time>2026-04-25T09:40:50.414Z</time></trkpt><trkpt lat="31.0547433" lon="-7.1427683"><ele>1293.0</ele><time>2026-04-25T09:40:52.414Z</time></trkpt><trkpt lat="31.0548" lon="-7.1428083"><ele>1293.0</ele><time>2026-04-25T09:40:53.414Z</time></trkpt><trkpt lat="31.054865" lon="-7.1428617"><ele>1293.0</ele><time>2026-04-25T09:40:54.414Z</time></trkpt><trkpt lat="31.0549417" lon="-7.1429217"><ele>1293.0</ele><time>2026-04-25T09:40:55.414Z</time></trkpt><trkpt lat="31.0550217" lon="-7.14299"><ele>1293.0</ele><time>2026-04-25T09:40:56.414Z</time></trkpt><trkpt lat="31.0551083" lon="-7.143065"><ele>1293.0</ele><time>2026-04-25T09:40:57.414Z</time></trkpt><trkpt lat="31.0552033" lon="-7.143145"><ele>1295.25</ele><time>2026-04-25T09:40:58.414Z</time></trkpt><trkpt lat="31.0553083" lon="-7.1432233"><ele>1297.5</ele><time>2026-04-25T09:40:59.414Z</time></trkpt><trkpt lat="31.05542" lon="-7.1433033"><ele>1299.75</ele><time>2026-04-25T09:41:00.414Z</time></trkpt><trkpt lat="31.0555383" lon="-7.1433833"><ele>1302.0</ele><time>2026-04-25T09:41:01.414Z</time></trkpt><trkpt lat="31.0556667" lon="-7.1434583"><ele>1300.0</ele><time>2026-04-25T09:41:02.414Z</time></trkpt><trkpt lat="31.0558067" lon="-7.14353"><ele>1298.0</ele><time>2026-04-25T09:41:03.414Z</time></trkpt><trkpt lat="31.05595" lon="-7.1435983"><ele>1296.0</ele><time>2026-04-25T09:41:04.414Z</time></trkpt><trkpt lat="31.056105" lon="-7.143655"><ele>1296.0</ele><time>2026-04-25T09:41:05.414Z</time></trkpt><trkpt lat="31.0562667" lon="-7.1437"><ele>1296.0</ele><time>2026-04-25T09:41:06.414Z</time></trkpt><trkpt lat="31.0564367" lon="-7.14374"><ele>1296.0</ele><time>2026-04-25T09:41:07.414Z</time></trkpt><trkpt lat="31.0566083" lon="-7.1437683"><ele>1295.6666666666667</ele><time>2026-04-25T09:41:08.414Z</time></trkpt><trkpt lat="31.056785" lon="-7.1437867"><ele>1295.3333333333335</ele><time>2026-04-25T09:41:09.414Z</time></trkpt><trkpt lat="31.05697" lon="-7.1438"><ele>1295.0</ele><time>2026-04-25T09:41:10.414Z</time></trkpt><trkpt lat="31.0571583" lon="-7.1438083"><ele>1295.0</ele><time>2026-04-25T09:41:11.414Z</time></trkpt><trkpt lat="31.0573417" lon="-7.1438117"><ele>1295.0</ele><time>2026-04-25T09:41:12.414Z</time></trkpt><trkpt lat="31.05752" lon="-7.1438317"><ele>1295.0</ele><time>2026-04-25T09:41:13.414Z</time></trkpt><trkpt lat="31.0576917" lon="-7.14386"><ele>1295.6666666666667</ele><time>2026-04-25T09:41:14.414Z</time></trkpt><trkpt lat="31.057865" lon="-7.1439117"><ele>1296.3333333333333</ele><time>2026-04-25T09:41:15.414Z</time></trkpt><trkpt lat="31.05804" lon="-7.14399"><ele>1297.0</ele><time>2026-04-25T09:41:16.414Z</time></trkpt><trkpt lat="31.0582133" lon="-7.144085"><ele>1298.3333333333333</ele><time>2026-04-25T09:41:17.414Z</time></trkpt><trkpt lat="31.0583833" lon="-7.144195"><ele>1299.6666666666667</ele><time>2026-04-25T09:41:18.414Z</time></trkpt><trkpt lat="31.0585517" lon="-7.1443133"><ele>1301.0</ele><time>2026-04-25T09:41:19.414Z</time></trkpt><trkpt lat="31.05872" lon="-7.1444467"><ele>1301.0</ele><time>2026-04-25T09:41:20.414Z</time></trkpt><trkpt lat="31.0588917" lon="-7.14458"><ele>1301.0</ele><time>2026-04-25T09:41:21.414Z</time></trkpt><trkpt lat="31.0590567" lon="-7.1447167"><ele>1301.0</ele><time>2026-04-25T09:41:22.414Z</time></trkpt><trkpt lat="31.0592167" lon="-7.1448367"><ele>1302.0</ele><time>2026-04-25T09:41:23.414Z</time></trkpt><trkpt lat="31.0593783" lon="-7.144945"><ele>1303.0</ele><time>2026-04-25T09:41:24.414Z</time></trkpt><trkpt lat="31.0595467" lon="-7.145045"><ele>1304.0</ele><time>2026-04-25T09:41:25.414Z</time></trkpt><trkpt lat="31.0597183" lon="-7.14513"><ele>1304.0</ele><time>2026-04-25T09:41:26.415Z</time></trkpt><trkpt lat="31.0599017" lon="-7.1452033"><ele>1304.0</ele><time>2026-04-25T09:41:27.414Z</time></trkpt><trkpt lat="31.0600867" lon="-7.14527"><ele>1304.0</ele><time>2026-04-25T09:41:28.414Z</time></trkpt><trkpt lat="31.0602733" lon="-7.1453333"><ele>1303.6666666666667</ele><time>2026-04-25T09:41:29.414Z</time></trkpt><trkpt lat="31.0604617" lon="-7.1453867"><ele>1303.3333333333333</ele><time>2026-04-25T09:41:30.414Z</time></trkpt><trkpt lat="31.0606533" lon="-7.14543"><ele>1303.0</ele><time>2026-04-25T09:41:31.414Z</time></trkpt><trkpt lat="31.0608483" lon="-7.1454567"><ele>1304.0</ele><time>2026-04-25T09:41:32.414Z</time></trkpt><trkpt lat="31.0610433" lon="-7.1454717"><ele>1305.0</ele><time>2026-04-25T09:41:33.415Z</time></trkpt><trkpt lat="31.0612467" lon="-7.14547"><ele>1306.0</ele><time>2026-04-25T09:41:34.414Z</time></trkpt><trkpt lat="31.06145" lon="-7.1454533"><ele>1306.0</ele><time>2026-04-25T09:41:35.414Z</time></trkpt><trkpt lat="31.0616583" lon="-7.1454283"><ele>1306.0</ele><time>2026-04-25T09:41:36.414Z</time></trkpt><trkpt lat="31.0618617" lon="-7.1453983"><ele>1306.0</ele><time>2026-04-25T09:41:37.414Z</time></trkpt><trkpt lat="31.0620683" lon="-7.14536"><ele>1306.0</ele><time>2026-04-25T09:41:38.414Z</time></trkpt><trkpt lat="31.0622733" lon="-7.1453117"><ele>1306.0</ele><time>2026-04-25T09:41:39.414Z</time></trkpt><trkpt lat="31.0624767" lon="-7.1452667"><ele>1306.0</ele><time>2026-04-25T09:41:40.414Z</time></trkpt><trkpt lat="31.0626733" lon="-7.1452267"><ele>1304.6666666666665</ele><time>2026-04-25T09:41:41.414Z</time></trkpt><trkpt lat="31.0628633" lon="-7.1451883"><ele>1303.3333333333333</ele><time>2026-04-25T09:41:42.414Z</time></trkpt><trkpt lat="31.0630467" lon="-7.1451483"><ele>1302.0</ele><time>2026-04-25T09:41:43.414Z</time></trkpt><trkpt lat="31.0632283" lon="-7.1451083"><ele>1301.3333333333333</ele><time>2026-04-25T09:41:44.414Z</time></trkpt><trkpt lat="31.0634067" lon="-7.14507"><ele>1300.6666666666665</ele><time>2026-04-25T09:41:45.414Z</time></trkpt><trkpt lat="31.0635867" lon="-7.1450317"><ele>1300.0</ele><time>2026-04-25T09:41:46.414Z</time></trkpt><trkpt lat="31.063765" lon="-7.144995"><ele>1300.0</ele><time>2026-04-25T09:41:47.414Z</time></trkpt><trkpt lat="31.063945" lon="-7.14496"><ele>1300.0</ele><time>2026-04-25T09:41:48.414Z</time></trkpt><trkpt lat="31.0641217" lon="-7.144925"><ele>1300.0</ele><time>2026-04-25T09:41:49.414Z</time></trkpt><trkpt lat="31.0642967" lon="-7.144895"><ele>1299.0</ele><time>2026-04-25T09:41:50.414Z</time></trkpt><trkpt lat="31.0644733" lon="-7.1448617"><ele>1298.0</ele><time>2026-04-25T09:41:51.414Z</time></trkpt><trkpt lat="31.0646483" lon="-7.1448267"><ele>1297.0</ele><time>2026-04-25T09:41:52.414Z</time></trkpt><trkpt lat="31.0648217" lon="-7.1447983"><ele>1298.0</ele><time>2026-04-25T09:41:53.414Z</time></trkpt><trkpt lat="31.0649967" lon="-7.144765"><ele>1299.0</ele><time>2026-04-25T09:41:54.414Z</time></trkpt><trkpt lat="31.0651683" lon="-7.1447317"><ele>1300.0</ele><time>2026-04-25T09:41:55.414Z</time></trkpt><trkpt lat="31.0653333" lon="-7.1447033"><ele>1300.0</ele><time>2026-04-25T09:41:56.414Z</time></trkpt><trkpt lat="31.0654967" lon="-7.144665"><ele>1300.0</ele><time>2026-04-25T09:41:57.414Z</time></trkpt><trkpt lat="31.0656567" lon="-7.144625"><ele>1300.0</ele><time>2026-04-25T09:41:58.414Z</time></trkpt><trkpt lat="31.0658067" lon="-7.144585"><ele>1301.0</ele><time>2026-04-25T09:41:59.414Z</time></trkpt><trkpt lat="31.06596" lon="-7.14454"><ele>1302.0</ele><time>2026-04-25T09:42:00.414Z</time></trkpt><trkpt lat="31.0661033" lon="-7.14448"><ele>1303.0</ele><time>2026-04-25T09:42:01.414Z</time></trkpt><trkpt lat="31.0662433" lon="-7.1444117"><ele>1303.0</ele><time>2026-04-25T09:42:02.414Z</time></trkpt><trkpt lat="31.0663867" lon="-7.1443283"><ele>1303.0</ele><time>2026-04-25T09:42:03.414Z</time></trkpt><trkpt lat="31.06652" lon="-7.1442333"><ele>1303.0</ele><time>2026-04-25T09:42:04.414Z</time></trkpt><trkpt lat="31.0666433" lon="-7.1441233"><ele>1302.6666666666665</ele><time>2026-04-25T09:42:05.415Z</time></trkpt><trkpt lat="31.0667533" lon="-7.1439967"><ele>1302.3333333333333</ele><time>2026-04-25T09:42:06.414Z</time></trkpt><trkpt lat="31.06686" lon="-7.143855"><ele>1302.0</ele><time>2026-04-25T09:42:07.414Z</time></trkpt><trkpt lat="31.0669517" lon="-7.1436967"><ele>1302.0</ele><time>2026-04-25T09:42:08.414Z</time></trkpt><trkpt lat="31.0670367" lon="-7.1435283"><ele>1302.0</ele><time>2026-04-25T09:42:09.414Z</time></trkpt><trkpt lat="31.0671117" lon="-7.1433533"><ele>1302.0</ele><time>2026-04-25T09:42:10.414Z</time></trkpt><trkpt lat="31.067175" lon="-7.1431817"><ele>1301.3333333333333</ele><time>2026-04-25T09:42:11.414Z</time></trkpt><trkpt lat="31.06724" lon="-7.1430067"><ele>1300.6666666666665</ele><time>2026-04-25T09:42:12.414Z</time></trkpt><trkpt lat="31.0673" lon="-7.14283"><ele>1300.0</ele><time>2026-04-25T09:42:13.414Z</time></trkpt><trkpt lat="31.0673567" lon="-7.1426683"><ele>1300.0</ele><time>2026-04-25T09:42:14.414Z</time></trkpt><trkpt lat="31.06741" lon="-7.1425117"><ele>1300.0</ele><time>2026-04-25T09:42:15.414Z</time></trkpt><trkpt lat="31.067465" lon="-7.142355"><ele>1300.0</ele><time>2026-04-25T09:42:16.414Z</time></trkpt><trkpt lat="31.0675267" lon="-7.1422067"><ele>1300.0</ele><time>2026-04-25T09:42:17.414Z</time></trkpt><trkpt lat="31.0676033" lon="-7.1420667"><ele>1299.25</ele><time>2026-04-25T09:42:18.414Z</time></trkpt><trkpt lat="31.0677017" lon="-7.1419517"><ele>1298.5</ele><time>2026-04-25T09:42:19.414Z</time></trkpt><trkpt lat="31.0678217" lon="-7.1418483"><ele>1297.75</ele><time>2026-04-25T09:42:20.414Z</time></trkpt><trkpt lat="31.0679517" lon="-7.1417517"><ele>1297.0</ele><time>2026-04-25T09:42:21.414Z</time></trkpt><trkpt lat="31.0680917" lon="-7.14167"><ele>1297.0</ele><time>2026-04-25T09:42:22.414Z</time></trkpt><trkpt lat="31.068235" lon="-7.141605"><ele>1297.0</ele><time>2026-04-25T09:42:23.414Z</time></trkpt><trkpt lat="31.0683833" lon="-7.1415467"><ele>1297.0</ele><time>2026-04-25T09:42:24.414Z</time></trkpt><trkpt lat="31.06853" lon="-7.1415"><ele>1296.6666666666665</ele><time>2026-04-25T09:42:25.414Z</time></trkpt><trkpt lat="31.0686867" lon="-7.141455"><ele>1296.3333333333333</ele><time>2026-04-25T09:42:26.414Z</time></trkpt><trkpt lat="31.068845" lon="-7.14142"><ele>1296.0</ele><time>2026-04-25T09:42:27.414Z</time></trkpt><trkpt lat="31.0690117" lon="-7.1413883"><ele>1296.0</ele><time>2026-04-25T09:42:28.414Z</time></trkpt><trkpt lat="31.0691767" lon="-7.1413767"><ele>1296.0</ele><time>2026-04-25T09:42:29.414Z</time></trkpt><trkpt lat="31.069345" lon="-7.1413767"><ele>1296.0</ele><time>2026-04-25T09:42:30.414Z</time></trkpt><trkpt lat="31.0695133" lon="-7.141385"><ele>1296.0</ele><time>2026-04-25T09:42:31.414Z</time></trkpt><trkpt lat="31.069675" lon="-7.1414133"><ele>1296.0</ele><time>2026-04-25T09:42:32.414Z</time></trkpt><trkpt lat="31.0698483" lon="-7.1414517"><ele>1296.0</ele><time>2026-04-25T09:42:33.414Z</time></trkpt><trkpt lat="31.0700217" lon="-7.1415"><ele>1298.3333333333333</ele><time>2026-04-25T09:42:34.414Z</time></trkpt><trkpt lat="31.0701917" lon="-7.1415533"><ele>1300.6666666666665</ele><time>2026-04-25T09:42:35.414Z</time></trkpt><trkpt lat="31.0703567" lon="-7.1415983"><ele>1303.0</ele><time>2026-04-25T09:42:36.414Z</time></trkpt><trkpt lat="31.0705183" lon="-7.14163"><ele>1303.0</ele><time>2026-04-25T09:42:37.414Z</time></trkpt><trkpt lat="31.070675" lon="-7.1416533"><ele>1303.0</ele><time>2026-04-25T09:42:38.414Z</time></trkpt><trkpt lat="31.0708267" lon="-7.1416783"><ele>1303.0</ele><time>2026-04-25T09:42:39.414Z</time></trkpt><trkpt lat="31.0709767" lon="-7.141695"><ele>1301.6666666666665</ele><time>2026-04-25T09:42:40.414Z</time></trkpt><trkpt lat="31.0711267" lon="-7.14171"><ele>1300.3333333333333</ele><time>2026-04-25T09:42:41.415Z</time></trkpt><trkpt lat="31.0712833" lon="-7.14173"><ele>1299.0</ele><time>2026-04-25T09:42:42.414Z</time></trkpt><trkpt lat="31.07144" lon="-7.1417433"><ele>1299.0</ele><time>2026-04-25T09:42:43.414Z</time></trkpt><trkpt lat="31.0715933" lon="-7.1417667"><ele>1299.0</ele><time>2026-04-25T09:42:44.414Z</time></trkpt><trkpt lat="31.0717517" lon="-7.141785"><ele>1299.0</ele><time>2026-04-25T09:42:45.414Z</time></trkpt><trkpt lat="31.07191" lon="-7.1418067"><ele>1296.6666666666667</ele><time>2026-04-25T09:42:46.414Z</time></trkpt><trkpt lat="31.07207" lon="-7.1418217"><ele>1294.3333333333335</ele><time>2026-04-25T09:42:47.414Z</time></trkpt><trkpt lat="31.0722317" lon="-7.1418383"><ele>1292.0</ele><time>2026-04-25T09:42:48.414Z</time></trkpt><trkpt lat="31.0723917" lon="-7.1418517"><ele>1290.6666666666667</ele><time>2026-04-25T09:42:49.414Z</time></trkpt><trkpt lat="31.072555" lon="-7.1418683"><ele>1289.3333333333333</ele><time>2026-04-25T09:42:50.414Z</time></trkpt><trkpt lat="31.072715" lon="-7.1418817"><ele>1288.0</ele><time>2026-04-25T09:42:51.414Z</time></trkpt><trkpt lat="31.0728783" lon="-7.1418917"><ele>1288.0</ele><time>2026-04-25T09:42:52.414Z</time></trkpt><trkpt lat="31.0730417" lon="-7.1419067"><ele>1288.0</ele><time>2026-04-25T09:42:53.414Z</time></trkpt><trkpt lat="31.07321" lon="-7.1419433"><ele>1288.0</ele><time>2026-04-25T09:42:54.414Z</time></trkpt><trkpt lat="31.0733733" lon="-7.1419917"><ele>1290.0</ele><time>2026-04-25T09:42:55.414Z</time></trkpt><trkpt lat="31.073535" lon="-7.142055"><ele>1292.0</ele><time>2026-04-25T09:42:56.414Z</time></trkpt><trkpt lat="31.0737" lon="-7.1421217"><ele>1294.0</ele><time>2026-04-25T09:42:57.414Z</time></trkpt><trkpt lat="31.0738617" lon="-7.1421933"><ele>1294.0</ele><time>2026-04-25T09:42:58.414Z</time></trkpt><trkpt lat="31.0740267" lon="-7.142265"><ele>1294.0</ele><time>2026-04-25T09:42:59.414Z</time></trkpt><trkpt lat="31.07419" lon="-7.14233"><ele>1294.0</ele><time>2026-04-25T09:43:00.414Z</time></trkpt><trkpt lat="31.0743517" lon="-7.1423817"><ele>1295.3333333333333</ele><time>2026-04-25T09:43:01.414Z</time></trkpt><trkpt lat="31.0745217" lon="-7.1424217"><ele>1296.6666666666667</ele><time>2026-04-25T09:43:02.414Z</time></trkpt><trkpt lat="31.074695" lon="-7.1424483"><ele>1298.0</ele><time>2026-04-25T09:43:03.414Z</time></trkpt><trkpt lat="31.074865" lon="-7.142455"><ele>1298.3333333333335</ele><time>2026-04-25T09:43:04.414Z</time></trkpt><trkpt lat="31.0750383" lon="-7.14243"><ele>1298.6666666666667</ele><time>2026-04-25T09:43:05.414Z</time></trkpt><trkpt lat="31.0752133" lon="-7.1423917"><ele>1299.0</ele><time>2026-04-25T09:43:06.414Z</time></trkpt><trkpt lat="31.0753833" lon="-7.1423467"><ele>1299.0</ele><time>2026-04-25T09:43:07.414Z</time></trkpt><trkpt lat="31.0755567" lon="-7.1422983"><ele>1299.0</ele><time>2026-04-25T09:43:08.414Z</time></trkpt><trkpt lat="31.0757283" lon="-7.1422433"><ele>1299.0</ele><time>2026-04-25T09:43:09.414Z</time></trkpt><trkpt lat="31.0759" lon="-7.1421867"><ele>1300.0</ele><time>2026-04-25T09:43:10.414Z</time></trkpt><trkpt lat="31.0760733" lon="-7.1421283"><ele>1301.0</ele><time>2026-04-25T09:43:11.414Z</time></trkpt><trkpt lat="31.0762417" lon="-7.1420717"><ele>1302.0</ele><time>2026-04-25T09:43:12.414Z</time></trkpt><trkpt lat="31.0764117" lon="-7.1420167"><ele>1302.0</ele><time>2026-04-25T09:43:13.415Z</time></trkpt><trkpt lat="31.0765817" lon="-7.1419617"><ele>1302.0</ele><time>2026-04-25T09:43:14.414Z</time></trkpt><trkpt lat="31.076755" lon="-7.141905"><ele>1302.0</ele><time>2026-04-25T09:43:15.414Z</time></trkpt><trkpt lat="31.0769233" lon="-7.1418483"><ele>1304.0</ele><time>2026-04-25T09:43:16.414Z</time></trkpt><trkpt lat="31.0770967" lon="-7.141785"><ele>1306.0</ele><time>2026-04-25T09:43:17.414Z</time></trkpt><trkpt lat="31.0772717" lon="-7.1417333"><ele>1308.0</ele><time>2026-04-25T09:43:18.414Z</time></trkpt><trkpt lat="31.0774533" lon="-7.141675"><ele>1310.3333333333333</ele><time>2026-04-25T09:43:19.414Z</time></trkpt><trkpt lat="31.0776267" lon="-7.14162"><ele>1312.6666666666665</ele><time>2026-04-25T09:43:20.415Z</time></trkpt><trkpt lat="31.0778017" lon="-7.1415667"><ele>1315.0</ele><time>2026-04-25T09:43:21.414Z</time></trkpt><trkpt lat="31.07798" lon="-7.1415217"><ele>1317.3333333333333</ele><time>2026-04-25T09:43:22.414Z</time></trkpt><trkpt lat="31.0781583" lon="-7.141475"><ele>1319.6666666666667</ele><time>2026-04-25T09:43:23.414Z</time></trkpt><trkpt lat="31.0783367" lon="-7.1414417"><ele>1322.0</ele><time>2026-04-25T09:43:24.414Z</time></trkpt><trkpt lat="31.0785133" lon="-7.1414283"><ele>1323.0</ele><time>2026-04-25T09:43:25.414Z</time></trkpt><trkpt lat="31.07869" lon="-7.1414417"><ele>1324.0</ele><time>2026-04-25T09:43:26.414Z</time></trkpt><trkpt lat="31.0788633" lon="-7.1414917"><ele>1325.0</ele><time>2026-04-25T09:43:27.414Z</time></trkpt><trkpt lat="31.079035" lon="-7.1415667"><ele>1324.3333333333335</ele><time>2026-04-25T09:43:28.414Z</time></trkpt><trkpt lat="31.07921" lon="-7.1416533"><ele>1323.6666666666667</ele><time>2026-04-25T09:43:29.414Z</time></trkpt><trkpt lat="31.0793833" lon="-7.1417533"><ele>1323.0</ele><time>2026-04-25T09:43:30.414Z</time></trkpt><trkpt lat="31.0795417" lon="-7.1418717"><ele>1323.0</ele><time>2026-04-25T09:43:31.414Z</time></trkpt><trkpt lat="31.0796933" lon="-7.14201"><ele>1323.0</ele><time>2026-04-25T09:43:32.414Z</time></trkpt><trkpt lat="31.0798383" lon="-7.14216"><ele>1323.0</ele><time>2026-04-25T09:43:33.414Z</time></trkpt><trkpt lat="31.0799783" lon="-7.14231"><ele>1324.6666666666667</ele><time>2026-04-25T09:43:34.414Z</time></trkpt><trkpt lat="31.080115" lon="-7.1424667"><ele>1326.3333333333335</ele><time>2026-04-25T09:43:35.415Z</time></trkpt><trkpt lat="31.08025" lon="-7.142625"><ele>1328.0</ele><time>2026-04-25T09:43:36.414Z</time></trkpt><trkpt lat="31.0803867" lon="-7.1427733"><ele>1328.0</ele><time>2026-04-25T09:43:37.414Z</time></trkpt><trkpt lat="31.0805183" lon="-7.1429167"><ele>1328.0</ele><time>2026-04-25T09:43:38.414Z</time></trkpt><trkpt lat="31.080655" lon="-7.143045"><ele>1328.0</ele><time>2026-04-25T09:43:39.414Z</time></trkpt><trkpt lat="31.080805" lon="-7.1431583"><ele>1323.6666666666667</ele><time>2026-04-25T09:43:40.414Z</time></trkpt><trkpt lat="31.0809533" lon="-7.1432317"><ele>1319.3333333333333</ele><time>2026-04-25T09:43:41.414Z</time></trkpt><trkpt lat="31.0811067" lon="-7.14327"><ele>1315.0</ele><time>2026-04-25T09:43:42.414Z</time></trkpt><trkpt lat="31.0812683" lon="-7.1432767"><ele>1315.0</ele><time>2026-04-25T09:43:43.414Z</time></trkpt><trkpt lat="31.0814267" lon="-7.14327"><ele>1315.0</ele><time>2026-04-25T09:43:44.414Z</time></trkpt><trkpt lat="31.081585" lon="-7.1432683"><ele>1315.0</ele><time>2026-04-25T09:43:45.414Z</time></trkpt><trkpt lat="31.0817417" lon="-7.143265"><ele>1316.5</ele><time>2026-04-25T09:43:46.414Z</time></trkpt><trkpt lat="31.0818983" lon="-7.143265"><ele>1318.0</ele><time>2026-04-25T09:43:47.414Z</time></trkpt><trkpt lat="31.0820433" lon="-7.1432833"><ele>1319.5</ele><time>2026-04-25T09:43:48.414Z</time></trkpt><trkpt lat="31.082185" lon="-7.1433167"><ele>1321.0</ele><time>2026-04-25T09:43:49.414Z</time></trkpt><trkpt lat="31.082325" lon="-7.14336"><ele>1321.75</ele><time>2026-04-25T09:43:50.414Z</time></trkpt><trkpt lat="31.0824583" lon="-7.1434183"><ele>1322.5</ele><time>2026-04-25T09:43:51.414Z</time></trkpt><trkpt lat="31.082595" lon="-7.1434767"><ele>1323.25</ele><time>2026-04-25T09:43:52.414Z</time></trkpt><trkpt lat="31.0827283" lon="-7.1435383"><ele>1324.0</ele><time>2026-04-25T09:43:53.414Z</time></trkpt><trkpt lat="31.0828617" lon="-7.143595"><ele>1324.0</ele><time>2026-04-25T09:43:54.414Z</time></trkpt><trkpt lat="31.0830033" lon="-7.1436517"><ele>1324.0</ele><time>2026-04-25T09:43:55.414Z</time></trkpt><trkpt lat="31.08314" lon="-7.1437117"><ele>1324.0</ele><time>2026-04-25T09:43:56.414Z</time></trkpt><trkpt lat="31.08328" lon="-7.1437767"><ele>1324.0</ele><time>2026-04-25T09:43:57.414Z</time></trkpt><trkpt lat="31.0834283" lon="-7.1438333"><ele>1326.0</ele><time>2026-04-25T09:43:58.414Z</time></trkpt><trkpt lat="31.08358" lon="-7.143885"><ele>1328.0</ele><time>2026-04-25T09:43:59.414Z</time></trkpt><trkpt lat="31.0837333" lon="-7.1439283"><ele>1330.0</ele><time>2026-04-25T09:44:00.414Z</time></trkpt><trkpt lat="31.0838833" lon="-7.14396"><ele>1330.0</ele><time>2026-04-25T09:44:01.414Z</time></trkpt><trkpt lat="31.08404" lon="-7.1439933"><ele>1330.0</ele><time>2026-04-25T09:44:02.414Z</time></trkpt><trkpt lat="31.0842" lon="-7.1440183"><ele>1330.0</ele><time>2026-04-25T09:44:03.414Z</time></trkpt><trkpt lat="31.0843633" lon="-7.14405"><ele>1328.3333333333333</ele><time>2026-04-25T09:44:04.414Z</time></trkpt><trkpt lat="31.0845267" lon="-7.1440817"><ele>1326.6666666666667</ele><time>2026-04-25T09:44:05.414Z</time></trkpt><trkpt lat="31.0846917" lon="-7.144115"><ele>1325.0</ele><time>2026-04-25T09:44:06.414Z</time></trkpt><trkpt lat="31.0848583" lon="-7.1441583"><ele>1323.3333333333335</ele><time>2026-04-25T09:44:07.414Z</time></trkpt><trkpt lat="31.0850167" lon="-7.1442117"><ele>1321.6666666666667</ele><time>2026-04-25T09:44:08.414Z</time></trkpt><trkpt lat="31.0851733" lon="-7.144265"><ele>1320.0</ele><time>2026-04-25T09:44:09.414Z</time></trkpt><trkpt lat="31.0853217" lon="-7.14433"><ele>1320.0</ele><time>2026-04-25T09:44:10.414Z</time></trkpt><trkpt lat="31.08547" lon="-7.1443983"><ele>1320.0</ele><time>2026-04-25T09:44:11.414Z</time></trkpt><trkpt lat="31.0856133" lon="-7.1444683"><ele>1320.0</ele><time>2026-04-25T09:44:12.414Z</time></trkpt><trkpt lat="31.0857533" lon="-7.14453"><ele>1321.25</ele><time>2026-04-25T09:44:13.414Z</time></trkpt><trkpt lat="31.0858883" lon="-7.1445883"><ele>1322.5</ele><time>2026-04-25T09:44:14.414Z</time></trkpt><trkpt lat="31.08602" lon="-7.1446267"><ele>1323.75</ele><time>2026-04-25T09:44:15.414Z</time></trkpt><trkpt lat="31.086145" lon="-7.1446417"><ele>1325.0</ele><time>2026-04-25T09:44:16.414Z</time></trkpt><trkpt lat="31.086265" lon="-7.1446283"><ele>1325.0</ele><time>2026-04-25T09:44:17.414Z</time></trkpt><trkpt lat="31.086385" lon="-7.14459"><ele>1325.0</ele><time>2026-04-25T09:44:18.414Z</time></trkpt><trkpt lat="31.0865017" lon="-7.1445333"><ele>1325.0</ele><time>2026-04-25T09:44:19.414Z</time></trkpt><trkpt lat="31.0866217" lon="-7.14447"><ele>1325.0</ele><time>2026-04-25T09:44:20.414Z</time></trkpt><trkpt lat="31.08674" lon="-7.14439"><ele>1325.5</ele><time>2026-04-25T09:44:21.414Z</time></trkpt><trkpt lat="31.086855" lon="-7.1443033"><ele>1326.0</ele><time>2026-04-25T09:44:22.414Z</time></trkpt><trkpt lat="31.08697" lon="-7.1442083"><ele>1326.5</ele><time>2026-04-25T09:44:23.414Z</time></trkpt><trkpt lat="31.087085" lon="-7.1441117"><ele>1327.0</ele><time>2026-04-25T09:44:24.414Z</time></trkpt><trkpt lat="31.0871967" lon="-7.1440117"><ele>1327.0</ele><time>2026-04-25T09:44:25.414Z</time></trkpt><trkpt lat="31.08731" lon="-7.1439033"><ele>1327.0</ele><time>2026-04-25T09:44:26.414Z</time></trkpt><trkpt lat="31.087425" lon="-7.1438017"><ele>1327.0</ele><time>2026-04-25T09:44:27.414Z</time></trkpt><trkpt lat="31.08754" lon="-7.143695"><ele>1327.0</ele><time>2026-04-25T09:44:28.414Z</time></trkpt><trkpt lat="31.0876517" lon="-7.143585"><ele>1328.0</ele><time>2026-04-25T09:44:29.414Z</time></trkpt><trkpt lat="31.0877617" lon="-7.1434733"><ele>1329.0</ele><time>2026-04-25T09:44:30.414Z</time></trkpt><trkpt lat="31.0878717" lon="-7.1433633"><ele>1330.0</ele><time>2026-04-25T09:44:31.414Z</time></trkpt><trkpt lat="31.0879817" lon="-7.1432533"><ele>1331.0</ele><time>2026-04-25T09:44:32.414Z</time></trkpt><trkpt lat="31.08809" lon="-7.143145"><ele>1331.5</ele><time>2026-04-25T09:44:33.415Z</time></trkpt><trkpt lat="31.0881933" lon="-7.1430317"><ele>1332.0</ele><time>2026-04-25T09:44:34.414Z</time></trkpt><trkpt lat="31.0883" lon="-7.142925"><ele>1332.5</ele><time>2026-04-25T09:44:35.414Z</time></trkpt><trkpt lat="31.0884033" lon="-7.1428167"><ele>1333.0</ele><time>2026-04-25T09:44:36.415Z</time></trkpt><trkpt lat="31.0885067" lon="-7.1427083"><ele>1333.25</ele><time>2026-04-25T09:44:37.415Z</time></trkpt><trkpt lat="31.0886117" lon="-7.1426"><ele>1333.5</ele><time>2026-04-25T09:44:38.414Z</time></trkpt><trkpt lat="31.0887217" lon="-7.1424967"><ele>1333.75</ele><time>2026-04-25T09:44:39.414Z</time></trkpt><trkpt lat="31.0888383" lon="-7.14239"><ele>1334.0</ele><time>2026-04-25T09:44:40.414Z</time></trkpt><trkpt lat="31.08896" lon="-7.1422817"><ele>1334.3333333333335</ele><time>2026-04-25T09:44:41.414Z</time></trkpt><trkpt lat="31.089085" lon="-7.1421733"><ele>1334.6666666666667</ele><time>2026-04-25T09:44:42.414Z</time></trkpt><trkpt lat="31.0892167" lon="-7.1420833"><ele>1335.0</ele><time>2026-04-25T09:44:43.414Z</time></trkpt><trkpt lat="31.089355" lon="-7.1420067"><ele>1334.3333333333333</ele><time>2026-04-25T09:44:44.414Z</time></trkpt><trkpt lat="31.0894983" lon="-7.1419367"><ele>1333.6666666666665</ele><time>2026-04-25T09:44:45.414Z</time></trkpt><trkpt lat="31.0896483" lon="-7.1418717"><ele>1333.0</ele><time>2026-04-25T09:44:46.414Z</time></trkpt><trkpt lat="31.0898" lon="-7.1418083"><ele>1334.3333333333333</ele><time>2026-04-25T09:44:47.415Z</time></trkpt><trkpt lat="31.0899483" lon="-7.1417467"><ele>1335.6666666666667</ele><time>2026-04-25T09:44:48.414Z</time></trkpt><trkpt lat="31.0900917" lon="-7.14168"><ele>1337.0</ele><time>2026-04-25T09:44:49.414Z</time></trkpt><trkpt lat="31.09023" lon="-7.141615"><ele>1337.0</ele><time>2026-04-25T09:44:50.414Z</time></trkpt><trkpt lat="31.0903667" lon="-7.1415483"><ele>1337.0</ele><time>2026-04-25T09:44:51.414Z</time></trkpt><trkpt lat="31.0905017" lon="-7.1414833"><ele>1337.0</ele><time>2026-04-25T09:44:52.414Z</time></trkpt><trkpt lat="31.0906433" lon="-7.1414367"><ele>1337.0</ele><time>2026-04-25T09:44:53.414Z</time></trkpt><trkpt lat="31.090785" lon="-7.1414067"><ele>1338.25</ele><time>2026-04-25T09:44:54.414Z</time></trkpt><trkpt lat="31.0909333" lon="-7.1413867"><ele>1339.5</ele><time>2026-04-25T09:44:55.414Z</time></trkpt><trkpt lat="31.0910817" lon="-7.1413717"><ele>1340.75</ele><time>2026-04-25T09:44:56.414Z</time></trkpt><trkpt lat="31.0912283" lon="-7.141365"><ele>1342.0</ele><time>2026-04-25T09:44:57.414Z</time></trkpt><trkpt lat="31.0913733" lon="-7.14135"><ele>1342.0</ele><time>2026-04-25T09:44:58.414Z</time></trkpt><trkpt lat="31.0915183" lon="-7.141325"><ele>1342.0</ele><time>2026-04-25T09:44:59.414Z</time></trkpt><trkpt lat="31.0916583" lon="-7.1413117"><ele>1342.0</ele><time>2026-04-25T09:45:00.415Z</time></trkpt><trkpt lat="31.0918" lon="-7.1412983"><ele>1342.0</ele><time>2026-04-25T09:45:01.414Z</time></trkpt><trkpt lat="31.0919417" lon="-7.1412867"><ele>1342.75</ele><time>2026-04-25T09:45:02.414Z</time></trkpt><trkpt lat="31.09208" lon="-7.141275"><ele>1343.5</ele><time>2026-04-25T09:45:03.414Z</time></trkpt><trkpt lat="31.0922167" lon="-7.1412617"><ele>1344.25</ele><time>2026-04-25T09:45:04.414Z</time></trkpt><trkpt lat="31.0923583" lon="-7.14125"><ele>1345.0</ele><time>2026-04-25T09:45:05.414Z</time></trkpt><trkpt lat="31.0924933" lon="-7.1412333"><ele>1343.0</ele><time>2026-04-25T09:45:06.414Z</time></trkpt><trkpt lat="31.0926283" lon="-7.14119"><ele>1341.0</ele><time>2026-04-25T09:45:07.415Z</time></trkpt><trkpt lat="31.092755" lon="-7.1411233"><ele>1339.0</ele><time>2026-04-25T09:45:08.414Z</time></trkpt><trkpt lat="31.09286" lon="-7.1410333"><ele>1337.0</ele><time>2026-04-25T09:45:09.414Z</time></trkpt><trkpt lat="31.0929833" lon="-7.14092"><ele>1337.0</ele><time>2026-04-25T09:45:10.414Z</time></trkpt><trkpt lat="31.0931033" lon="-7.1407933"><ele>1337.0</ele><time>2026-04-25T09:45:11.414Z</time></trkpt><trkpt lat="31.0932283" lon="-7.1406783"><ele>1337.0</ele><time>2026-04-25T09:45:12.414Z</time></trkpt><trkpt lat="31.09336" lon="-7.140575"><ele>1338.0</ele><time>2026-04-25T09:45:13.414Z</time></trkpt><trkpt lat="31.0934883" lon="-7.140485"><ele>1339.0</ele><time>2026-04-25T09:45:14.414Z</time></trkpt><trkpt lat="31.0936233" lon="-7.140405"><ele>1340.0</ele><time>2026-04-25T09:45:15.414Z</time></trkpt><trkpt lat="31.0937617" lon="-7.14037"><ele>1341.0</ele><time>2026-04-25T09:45:16.414Z</time></trkpt><trkpt lat="31.0939167" lon="-7.1403617"><ele>1341.0</ele><time>2026-04-25T09:45:17.414Z</time></trkpt><trkpt lat="31.0940667" lon="-7.1403683"><ele>1341.0</ele><time>2026-04-25T09:45:18.414Z</time></trkpt><trkpt lat="31.0942267" lon="-7.14036"><ele>1341.0</ele><time>2026-04-25T09:45:19.414Z</time></trkpt><trkpt lat="31.0943767" lon="-7.1403617"><ele>1345.0</ele><time>2026-04-25T09:45:20.414Z</time></trkpt><trkpt lat="31.094515" lon="-7.140375"><ele>1349.0</ele><time>2026-04-25T09:45:21.414Z</time></trkpt><trkpt lat="31.094655" lon="-7.140395"><ele>1353.0</ele><time>2026-04-25T09:45:22.414Z</time></trkpt><trkpt lat="31.0947867" lon="-7.140415"><ele>1357.0</ele><time>2026-04-25T09:45:23.415Z</time></trkpt><trkpt lat="31.094915" lon="-7.1404183"><ele>1354.75</ele><time>2026-04-25T09:45:24.414Z</time></trkpt><trkpt lat="31.095035" lon="-7.1404"><ele>1352.5</ele><time>2026-04-25T09:45:25.414Z</time></trkpt><trkpt lat="31.0951433" lon="-7.14035"><ele>1350.25</ele><time>2026-04-25T09:45:26.414Z</time></trkpt><trkpt lat="31.0952233" lon="-7.1402767"><ele>1348.0</ele><time>2026-04-25T09:45:27.414Z</time></trkpt><trkpt lat="31.0952883" lon="-7.1401683"><ele>1348.0</ele><time>2026-04-25T09:45:28.414Z</time></trkpt><trkpt lat="31.09535" lon="-7.140055"><ele>1348.0</ele><time>2026-04-25T09:45:29.414Z</time></trkpt><trkpt lat="31.09542" lon="-7.139955"><ele>1348.0</ele><time>2026-04-25T09:45:30.414Z</time></trkpt><trkpt lat="31.0955167" lon="-7.13989"><ele>1348.0</ele><time>2026-04-25T09:45:31.414Z</time></trkpt><trkpt lat="31.09562" lon="-7.1398633"><ele>1348.0</ele><time>2026-04-25T09:45:32.414Z</time></trkpt><trkpt lat="31.0957233" lon="-7.13987"><ele>1347.3333333333333</ele><time>2026-04-25T09:45:33.414Z</time></trkpt><trkpt lat="31.0958217" lon="-7.1399167"><ele>1346.6666666666665</ele><time>2026-04-25T09:45:34.414Z</time></trkpt><trkpt lat="31.0959083" lon="-7.1399767"><ele>1346.0</ele><time>2026-04-25T09:45:35.414Z</time></trkpt><trkpt lat="31.0959833" lon="-7.140025"><ele>1345.3333333333333</ele><time>2026-04-25T09:45:36.414Z</time></trkpt><trkpt lat="31.09606" lon="-7.1400433"><ele>1344.6666666666667</ele><time>2026-04-25T09:45:37.414Z</time></trkpt><trkpt lat="31.0961183" lon="-7.140015"><ele>1344.0</ele><time>2026-04-25T09:45:38.414Z</time></trkpt><trkpt lat="31.0961583" lon="-7.13987"><ele>1345.8333333333333</ele><time>2026-04-25T09:45:40.414Z</time></trkpt><trkpt lat="31.0961333" lon="-7.1397833"><ele>1347.6666666666667</ele><time>2026-04-25T09:45:41.414Z</time></trkpt><trkpt lat="31.0960867" lon="-7.13968"><ele>1349.5</ele><time>2026-04-25T09:45:42.414Z</time></trkpt><trkpt lat="31.0960483" lon="-7.1395767"><ele>1351.3333333333335</ele><time>2026-04-25T09:45:43.415Z</time></trkpt><trkpt lat="31.09604" lon="-7.13948"><ele>1353.1666666666667</ele><time>2026-04-25T09:45:44.414Z</time></trkpt><trkpt lat="31.096065" lon="-7.1394033"><ele>1355.0</ele><time>2026-04-25T09:45:45.414Z</time></trkpt><trkpt lat="31.0961183" lon="-7.1393583"><ele>1355.0</ele><time>2026-04-25T09:45:46.414Z</time></trkpt><trkpt lat="31.0961983" lon="-7.1393633"><ele>1355.0</ele><time>2026-04-25T09:45:47.414Z</time></trkpt><trkpt lat="31.0963017" lon="-7.1393933"><ele>1355.0</ele><time>2026-04-25T09:45:48.414Z</time></trkpt><trkpt lat="31.096425" lon="-7.13944"><ele>1355.0</ele><time>2026-04-25T09:45:49.414Z</time></trkpt><trkpt lat="31.096555" lon="-7.1395017"><ele>1358.75</ele><time>2026-04-25T09:45:50.414Z</time></trkpt><trkpt lat="31.0966733" lon="-7.139575"><ele>1362.5</ele><time>2026-04-25T09:45:51.414Z</time></trkpt><trkpt lat="31.0967733" lon="-7.13966"><ele>1366.25</ele><time>2026-04-25T09:45:52.414Z</time></trkpt><trkpt lat="31.096865" lon="-7.139745"><ele>1370.0</ele><time>2026-04-25T09:45:53.414Z</time></trkpt><trkpt lat="31.0969633" lon="-7.1398167"><ele>1370.0</ele><time>2026-04-25T09:45:54.414Z</time></trkpt><trkpt lat="31.09707" lon="-7.139865"><ele>1370.0</ele><time>2026-04-25T09:45:55.414Z</time></trkpt><trkpt lat="31.097195" lon="-7.13988"><ele>1370.0</ele><time>2026-04-25T09:45:56.414Z</time></trkpt><trkpt lat="31.0973267" lon="-7.139855"><ele>1370.0</ele><time>2026-04-25T09:45:57.414Z</time></trkpt><trkpt lat="31.0974583" lon="-7.1397967"><ele>1371.0</ele><time>2026-04-25T09:45:58.414Z</time></trkpt><trkpt lat="31.0975883" lon="-7.1397167"><ele>1372.0</ele><time>2026-04-25T09:45:59.414Z</time></trkpt><trkpt lat="31.0977267" lon="-7.139665"><ele>1373.0</ele><time>2026-04-25T09:46:00.414Z</time></trkpt><trkpt lat="31.097875" lon="-7.13966"><ele>1374.0</ele><time>2026-04-25T09:46:01.414Z</time></trkpt><trkpt lat="31.0980233" lon="-7.1396967"><ele>1374.0</ele><time>2026-04-25T09:46:02.414Z</time></trkpt><trkpt lat="31.09817" lon="-7.139725"><ele>1374.0</ele><time>2026-04-25T09:46:03.414Z</time></trkpt><trkpt lat="31.0983233" lon="-7.13971"><ele>1374.0</ele><time>2026-04-25T09:46:04.414Z</time></trkpt><trkpt lat="31.0984783" lon="-7.1396667"><ele>1372.5</ele><time>2026-04-25T09:46:05.414Z</time></trkpt><trkpt lat="31.0986283" lon="-7.1396"><ele>1371.0</ele><time>2026-04-25T09:46:06.414Z</time></trkpt><trkpt lat="31.0987517" lon="-7.13951"><ele>1369.5</ele><time>2026-04-25T09:46:07.414Z</time></trkpt><trkpt lat="31.0988517" lon="-7.1394033"><ele>1368.0</ele><time>2026-04-25T09:46:08.414Z</time></trkpt><trkpt lat="31.0989467" lon="-7.1393217"><ele>1368.0</ele><time>2026-04-25T09:46:09.414Z</time></trkpt><trkpt lat="31.0990467" lon="-7.1392933"><ele>1368.0</ele><time>2026-04-25T09:46:10.415Z</time></trkpt><trkpt lat="31.0991517" lon="-7.1393317"><ele>1368.0</ele><time>2026-04-25T09:46:11.414Z</time></trkpt><trkpt lat="31.0992433" lon="-7.13942"><ele>1368.0</ele><time>2026-04-25T09:46:12.414Z</time></trkpt><trkpt lat="31.0993417" lon="-7.1395233"><ele>1366.5</ele><time>2026-04-25T09:46:13.414Z</time></trkpt><trkpt lat="31.099445" lon="-7.13962"><ele>1365.0</ele><time>2026-04-25T09:46:14.414Z</time></trkpt><trkpt lat="31.09954" lon="-7.1397133"><ele>1363.5</ele><time>2026-04-25T09:46:15.415Z</time></trkpt><trkpt lat="31.09963" lon="-7.1398183"><ele>1362.0</ele><time>2026-04-25T09:46:16.414Z</time></trkpt><trkpt lat="31.0997067" lon="-7.1399417"><ele>1361.5</ele><time>2026-04-25T09:46:17.414Z</time></trkpt><trkpt lat="31.09977" lon="-7.14008"><ele>1361.0</ele><time>2026-04-25T09:46:18.414Z</time></trkpt><trkpt lat="31.0998283" lon="-7.140225"><ele>1360.5</ele><time>2026-04-25T09:46:19.414Z</time></trkpt><trkpt lat="31.0998783" lon="-7.140365"><ele>1360.0</ele><time>2026-04-25T09:46:20.414Z</time></trkpt><trkpt lat="31.0999317" lon="-7.1405017"><ele>1360.0</ele><time>2026-04-25T09:46:21.414Z</time></trkpt><trkpt lat="31.0999917" lon="-7.14063"><ele>1360.0</ele><time>2026-04-25T09:46:22.414Z</time></trkpt><trkpt lat="31.10006" lon="-7.1407483"><ele>1360.0</ele><time>2026-04-25T09:46:23.414Z</time></trkpt><trkpt lat="31.1001333" lon="-7.1408367"><ele>1360.0</ele><time>2026-04-25T09:46:24.414Z</time></trkpt><trkpt lat="31.1002267" lon="-7.1409017"><ele>1358.0</ele><time>2026-04-25T09:46:25.414Z</time></trkpt><trkpt lat="31.1003233" lon="-7.1409383"><ele>1356.0</ele><time>2026-04-25T09:46:26.414Z</time></trkpt><trkpt lat="31.1004183" lon="-7.14094"><ele>1354.0</ele><time>2026-04-25T09:46:27.414Z</time></trkpt><trkpt lat="31.1005117" lon="-7.1409117"><ele>1352.0</ele><time>2026-04-25T09:46:28.414Z</time></trkpt><trkpt lat="31.1006117" lon="-7.1408883"><ele>1350.0</ele><time>2026-04-25T09:46:29.414Z</time></trkpt><trkpt lat="31.1007083" lon="-7.1408717"><ele>1350.5</ele><time>2026-04-25T09:46:30.414Z</time></trkpt><trkpt lat="31.100795" lon="-7.1408617"><ele>1351.0</ele><time>2026-04-25T09:46:31.414Z</time></trkpt><trkpt lat="31.100875" lon="-7.1408583"><ele>1351.5</ele><time>2026-04-25T09:46:32.415Z</time></trkpt><trkpt lat="31.10095" lon="-7.140865"><ele>1352.0</ele><time>2026-04-25T09:46:33.414Z</time></trkpt><trkpt lat="31.10102" lon="-7.14088"><ele>1352.5</ele><time>2026-04-25T09:46:34.414Z</time></trkpt><trkpt lat="31.1010867" lon="-7.1408917"><ele>1353.0</ele><time>2026-04-25T09:46:35.414Z</time></trkpt><trkpt lat="31.1011933" lon="-7.14092"><ele>1353.0</ele><time>2026-04-25T09:46:37.414Z</time></trkpt><trkpt lat="31.1012717" lon="-7.1409433"><ele>1353.0</ele><time>2026-04-25T09:46:39.414Z</time></trkpt><trkpt lat="31.1013567" lon="-7.140975"><ele>1353.0</ele><time>2026-04-25T09:46:49.414Z</time></trkpt><trkpt lat="31.10143" lon="-7.14102"><ele>1353.0</ele><time>2026-04-25T09:46:51.414Z</time></trkpt><trkpt lat="31.1015583" lon="-7.1410733"><ele>1353.0</ele><time>2026-04-25T09:46:53.415Z</time></trkpt><trkpt lat="31.1016483" lon="-7.14108"><ele>1353.25</ele><time>2026-04-25T09:46:54.414Z</time></trkpt><trkpt lat="31.1017533" lon="-7.141075"><ele>1353.5</ele><time>2026-04-25T09:46:55.413Z</time></trkpt><trkpt lat="31.1018817" lon="-7.14105"><ele>1353.75</ele><time>2026-04-25T09:46:56.413Z</time></trkpt><trkpt lat="31.10202" lon="-7.1409983"><ele>1354.0</ele><time>2026-04-25T09:46:57.413Z</time></trkpt><trkpt lat="31.1021583" lon="-7.140935"><ele>1354.0</ele><time>2026-04-25T09:46:58.413Z</time></trkpt><trkpt lat="31.1022933" lon="-7.1408717"><ele>1354.0</ele><time>2026-04-25T09:46:59.413Z</time></trkpt><trkpt lat="31.10243" lon="-7.1408483"><ele>1354.0</ele><time>2026-04-25T09:47:00.413Z</time></trkpt><trkpt lat="31.1025633" lon="-7.140855"><ele>1354.0</ele><time>2026-04-25T09:47:01.413Z</time></trkpt><trkpt lat="31.1026933" lon="-7.14086"><ele>1353.25</ele><time>2026-04-25T09:47:02.413Z</time></trkpt><trkpt lat="31.10283" lon="-7.140845"><ele>1352.5</ele><time>2026-04-25T09:47:03.413Z</time></trkpt><trkpt lat="31.1029583" lon="-7.1408117"><ele>1351.75</ele><time>2026-04-25T09:47:04.413Z</time></trkpt><trkpt lat="31.103085" lon="-7.14075"><ele>1351.0</ele><time>2026-04-25T09:47:05.413Z</time></trkpt><trkpt lat="31.1031967" lon="-7.14067"><ele>1354.5</ele><time>2026-04-25T09:47:06.414Z</time></trkpt><trkpt lat="31.1032967" lon="-7.1405683"><ele>1358.0</ele><time>2026-04-25T09:47:07.413Z</time></trkpt><trkpt lat="31.1034033" lon="-7.14047"><ele>1361.5</ele><time>2026-04-25T09:47:08.413Z</time></trkpt><trkpt lat="31.103525" lon="-7.1403967"><ele>1365.0</ele><time>2026-04-25T09:47:09.413Z</time></trkpt><trkpt lat="31.1036583" lon="-7.1403583"><ele>1365.0</ele><time>2026-04-25T09:47:10.413Z</time></trkpt><trkpt lat="31.103805" lon="-7.1403617"><ele>1365.0</ele><time>2026-04-25T09:47:11.413Z</time></trkpt><trkpt lat="31.10396" lon="-7.1403667"><ele>1365.0</ele><time>2026-04-25T09:47:12.413Z</time></trkpt><trkpt lat="31.1041117" lon="-7.1403333"><ele>1363.5</ele><time>2026-04-25T09:47:13.413Z</time></trkpt><trkpt lat="31.1042567" lon="-7.1402733"><ele>1362.0</ele><time>2026-04-25T09:47:14.413Z</time></trkpt><trkpt lat="31.1043917" lon="-7.14021"><ele>1360.5</ele><time>2026-04-25T09:47:15.413Z</time></trkpt><trkpt lat="31.1045167" lon="-7.1401417"><ele>1359.0</ele><time>2026-04-25T09:47:16.413Z</time></trkpt><trkpt lat="31.1046333" lon="-7.1400733"><ele>1359.0</ele><time>2026-04-25T09:47:17.413Z</time></trkpt><trkpt lat="31.1047533" lon="-7.1399933"><ele>1359.0</ele><time>2026-04-25T09:47:18.413Z</time></trkpt><trkpt lat="31.1048567" lon="-7.139885"><ele>1359.0</ele><time>2026-04-25T09:47:19.413Z</time></trkpt><trkpt lat="31.10495" lon="-7.139775"><ele>1359.0</ele><time>2026-04-25T09:47:20.413Z</time></trkpt><trkpt lat="31.1050617" lon="-7.1396783"><ele>1363.0</ele><time>2026-04-25T09:47:21.413Z</time></trkpt><trkpt lat="31.10519" lon="-7.1396133"><ele>1367.0</ele><time>2026-04-25T09:47:22.413Z</time></trkpt><trkpt lat="31.1053233" lon="-7.13955"><ele>1371.0</ele><time>2026-04-25T09:47:23.413Z</time></trkpt><trkpt lat="31.1054583" lon="-7.139475"><ele>1375.0</ele><time>2026-04-25T09:47:24.413Z</time></trkpt><trkpt lat="31.1055967" lon="-7.139395"><ele>1375.0</ele><time>2026-04-25T09:47:25.413Z</time></trkpt><trkpt lat="31.1057333" lon="-7.1393083"><ele>1375.0</ele><time>2026-04-25T09:47:26.413Z</time></trkpt><trkpt lat="31.1058617" lon="-7.1392083"><ele>1375.0</ele><time>2026-04-25T09:47:27.413Z</time></trkpt><trkpt lat="31.105975" lon="-7.1391"><ele>1377.0</ele><time>2026-04-25T09:47:28.413Z</time></trkpt><trkpt lat="31.1060883" lon="-7.1390067"><ele>1379.0</ele><time>2026-04-25T09:47:29.413Z</time></trkpt><trkpt lat="31.1062033" lon="-7.1389183"><ele>1381.0</ele><time>2026-04-25T09:47:30.413Z</time></trkpt><trkpt lat="31.10631" lon="-7.13881"><ele>1383.0</ele><time>2026-04-25T09:47:31.413Z</time></trkpt><trkpt lat="31.1064133" lon="-7.1386933"><ele>1383.0</ele><time>2026-04-25T09:47:32.413Z</time></trkpt><trkpt lat="31.1065167" lon="-7.1385817"><ele>1383.0</ele><time>2026-04-25T09:47:33.413Z</time></trkpt><trkpt lat="31.1066267" lon="-7.1384683"><ele>1383.0</ele><time>2026-04-25T09:47:34.413Z</time></trkpt><trkpt lat="31.10673" lon="-7.138345"><ele>1383.0</ele><time>2026-04-25T09:47:35.413Z</time></trkpt><trkpt lat="31.106835" lon="-7.13823"><ele>1385.6666666666667</ele><time>2026-04-25T09:47:36.413Z</time></trkpt><trkpt lat="31.1069567" lon="-7.1381333"><ele>1388.3333333333335</ele><time>2026-04-25T09:47:37.413Z</time></trkpt><trkpt lat="31.1070983" lon="-7.1380567"><ele>1391.0</ele><time>2026-04-25T09:47:38.414Z</time></trkpt><trkpt lat="31.1072367" lon="-7.13799"><ele>1391.0</ele><time>2026-04-25T09:47:39.414Z</time></trkpt><trkpt lat="31.1073667" lon="-7.1379033"><ele>1391.0</ele><time>2026-04-25T09:47:40.413Z</time></trkpt><trkpt lat="31.1074883" lon="-7.1378117"><ele>1391.0</ele><time>2026-04-25T09:47:41.413Z</time></trkpt><trkpt lat="31.107625" lon="-7.13772"><ele>1382.3333333333335</ele><time>2026-04-25T09:47:42.413Z</time></trkpt><trkpt lat="31.1077617" lon="-7.137625"><ele>1373.6666666666667</ele><time>2026-04-25T09:47:43.413Z</time></trkpt><trkpt lat="31.107895" lon="-7.1375333"><ele>1365.0</ele><time>2026-04-25T09:47:44.413Z</time></trkpt><trkpt lat="31.1080183" lon="-7.13745"><ele>1371.5</ele><time>2026-04-25T09:47:45.413Z</time></trkpt><trkpt lat="31.1081417" lon="-7.13737"><ele>1378.0</ele><time>2026-04-25T09:47:46.413Z</time></trkpt><trkpt lat="31.108265" lon="-7.1372917"><ele>1384.5</ele><time>2026-04-25T09:47:47.413Z</time></trkpt><trkpt lat="31.10838" lon="-7.1372217"><ele>1391.0</ele><time>2026-04-25T09:47:48.413Z</time></trkpt><trkpt lat="31.1084867" lon="-7.13715"><ele>1391.0</ele><time>2026-04-25T09:47:49.413Z</time></trkpt><trkpt lat="31.1085917" lon="-7.137085"><ele>1391.0</ele><time>2026-04-25T09:47:50.413Z</time></trkpt><trkpt lat="31.1086933" lon="-7.1370133"><ele>1391.0</ele><time>2026-04-25T09:47:51.413Z</time></trkpt><trkpt lat="31.1088" lon="-7.1369483"><ele>1391.0</ele><time>2026-04-25T09:47:52.413Z</time></trkpt><trkpt lat="31.10891" lon="-7.13689"><ele>1391.0</ele><time>2026-04-25T09:47:53.413Z</time></trkpt><trkpt lat="31.1090183" lon="-7.1368317"><ele>1391.0</ele><time>2026-04-25T09:47:54.413Z</time></trkpt><trkpt lat="31.1091267" lon="-7.1367833"><ele>1391.0</ele><time>2026-04-25T09:47:55.413Z</time></trkpt><trkpt lat="31.10924" lon="-7.1367617"><ele>1391.0</ele><time>2026-04-25T09:47:56.413Z</time></trkpt><trkpt lat="31.1093533" lon="-7.1367633"><ele>1386.25</ele><time>2026-04-25T09:47:57.413Z</time></trkpt><trkpt lat="31.109465" lon="-7.13677"><ele>1381.5</ele><time>2026-04-25T09:47:58.413Z</time></trkpt><trkpt lat="31.1095883" lon="-7.1367833"><ele>1376.75</ele><time>2026-04-25T09:47:59.413Z</time></trkpt><trkpt lat="31.1097167" lon="-7.1368033"><ele>1372.0</ele><time>2026-04-25T09:48:00.413Z</time></trkpt><trkpt lat="31.1098533" lon="-7.13683"><ele>1371.3333333333333</ele><time>2026-04-25T09:48:01.413Z</time></trkpt><trkpt lat="31.11" lon="-7.13686"><ele>1370.6666666666667</ele><time>2026-04-25T09:48:02.413Z</time></trkpt><trkpt lat="31.1101533" lon="-7.1368917"><ele>1370.0</ele><time>2026-04-25T09:48:03.413Z</time></trkpt><trkpt lat="31.110305" lon="-7.1369317"><ele>1370.0</ele><time>2026-04-25T09:48:04.413Z</time></trkpt><trkpt lat="31.1104533" lon="-7.1369667"><ele>1370.0</ele><time>2026-04-25T09:48:05.413Z</time></trkpt><trkpt lat="31.1105967" lon="-7.1370067"><ele>1370.0</ele><time>2026-04-25T09:48:06.414Z</time></trkpt><trkpt lat="31.1107467" lon="-7.1370417"><ele>1371.5</ele><time>2026-04-25T09:48:07.413Z</time></trkpt><trkpt lat="31.1108883" lon="-7.1370717"><ele>1373.0</ele><time>2026-04-25T09:48:08.413Z</time></trkpt><trkpt lat="31.1110267" lon="-7.1370783"><ele>1374.5</ele><time>2026-04-25T09:48:09.413Z</time></trkpt><trkpt lat="31.11116" lon="-7.1370583"><ele>1376.0</ele><time>2026-04-25T09:48:10.413Z</time></trkpt><trkpt lat="31.1112933" lon="-7.1370133"><ele>1376.0</ele><time>2026-04-25T09:48:11.413Z</time></trkpt><trkpt lat="31.11141" lon="-7.1369417"><ele>1376.0</ele><time>2026-04-25T09:48:12.413Z</time></trkpt><trkpt lat="31.1115167" lon="-7.13686"><ele>1376.0</ele><time>2026-04-25T09:48:13.413Z</time></trkpt><trkpt lat="31.111635" lon="-7.1367967"><ele>1376.0</ele><time>2026-04-25T09:48:14.413Z</time></trkpt><trkpt lat="31.1117617" lon="-7.1367633"><ele>1371.0</ele><time>2026-04-25T09:48:15.413Z</time></trkpt><trkpt lat="31.1118883" lon="-7.1367583"><ele>1366.0</ele><time>2026-04-25T09:48:16.413Z</time></trkpt><trkpt lat="31.11202" lon="-7.1367883"><ele>1361.0</ele><time>2026-04-25T09:48:17.413Z</time></trkpt><trkpt lat="31.1121567" lon="-7.136845"><ele>1356.0</ele><time>2026-04-25T09:48:18.414Z</time></trkpt><trkpt lat="31.1122983" lon="-7.1368983"><ele>1354.0</ele><time>2026-04-25T09:48:19.413Z</time></trkpt><trkpt lat="31.1124267" lon="-7.1369417"><ele>1352.0</ele><time>2026-04-25T09:48:20.413Z</time></trkpt><trkpt lat="31.1125533" lon="-7.1369767"><ele>1350.0</ele><time>2026-04-25T09:48:21.413Z</time></trkpt><trkpt lat="31.1126733" lon="-7.137005"><ele>1348.0</ele><time>2026-04-25T09:48:22.413Z</time></trkpt><trkpt lat="31.1127933" lon="-7.137025"><ele>1348.0</ele><time>2026-04-25T09:48:23.413Z</time></trkpt><trkpt lat="31.1129017" lon="-7.1370217"><ele>1348.0</ele><time>2026-04-25T09:48:24.413Z</time></trkpt><trkpt lat="31.113005" lon="-7.1370117"><ele>1348.0</ele><time>2026-04-25T09:48:25.413Z</time></trkpt><trkpt lat="31.113095" lon="-7.1369817"><ele>1348.0</ele><time>2026-04-25T09:48:26.413Z</time></trkpt><trkpt lat="31.113175" lon="-7.1369233"><ele>1348.0</ele><time>2026-04-25T09:48:27.413Z</time></trkpt><trkpt lat="31.1132383" lon="-7.1368533"><ele>1350.0</ele><time>2026-04-25T09:48:28.413Z</time></trkpt><trkpt lat="31.1132983" lon="-7.13677"><ele>1352.0</ele><time>2026-04-25T09:48:29.413Z</time></trkpt><trkpt lat="31.1133267" lon="-7.1366583"><ele>1354.0</ele><time>2026-04-25T09:48:30.413Z</time></trkpt><trkpt lat="31.1133383" lon="-7.1365267"><ele>1356.0</ele><time>2026-04-25T09:48:31.413Z</time></trkpt><trkpt lat="31.1133433" lon="-7.1363917"><ele>1358.0</ele><time>2026-04-25T09:48:32.413Z</time></trkpt><trkpt lat="31.11335" lon="-7.1362617"><ele>1358.0</ele><time>2026-04-25T09:48:33.413Z</time></trkpt><trkpt lat="31.1133583" lon="-7.1361417"><ele>1358.0</ele><time>2026-04-25T09:48:34.413Z</time></trkpt><trkpt lat="31.113385" lon="-7.136035"><ele>1358.0</ele><time>2026-04-25T09:48:35.413Z</time></trkpt><trkpt lat="31.11343" lon="-7.13595"><ele>1358.0</ele><time>2026-04-25T09:48:36.413Z</time></trkpt><trkpt lat="31.11351" lon="-7.135875"><ele>1358.0</ele><time>2026-04-25T09:48:37.413Z</time></trkpt><trkpt lat="31.113615" lon="-7.1358033"><ele>1358.0</ele><time>2026-04-25T09:48:38.413Z</time></trkpt><trkpt lat="31.1137317" lon="-7.1357533"><ele>1358.0</ele><time>2026-04-25T09:48:39.413Z</time></trkpt><trkpt lat="31.1138633" lon="-7.1357067"><ele>1358.0</ele><time>2026-04-25T09:48:40.413Z</time></trkpt><trkpt lat="31.1140033" lon="-7.1356583"><ele>1358.0</ele><time>2026-04-25T09:48:41.413Z</time></trkpt><trkpt lat="31.1141433" lon="-7.1356083"><ele>1358.25</ele><time>2026-04-25T09:48:42.413Z</time></trkpt><trkpt lat="31.11428" lon="-7.1355433"><ele>1358.5</ele><time>2026-04-25T09:48:43.413Z</time></trkpt><trkpt lat="31.1144083" lon="-7.1354767"><ele>1358.75</ele><time>2026-04-25T09:48:44.413Z</time></trkpt><trkpt lat="31.1145267" lon="-7.1354083"><ele>1359.0</ele><time>2026-04-25T09:48:45.413Z</time></trkpt><trkpt lat="31.1146433" lon="-7.135315"><ele>1359.0</ele><time>2026-04-25T09:48:46.413Z</time></trkpt><trkpt lat="31.1147567" lon="-7.1352217"><ele>1359.0</ele><time>2026-04-25T09:48:47.413Z</time></trkpt><trkpt lat="31.1148733" lon="-7.1351333"><ele>1359.0</ele><time>2026-04-25T09:48:48.413Z</time></trkpt><trkpt lat="31.1149917" lon="-7.1350467"><ele>1359.0</ele><time>2026-04-25T09:48:49.413Z</time></trkpt><trkpt lat="31.1151117" lon="-7.1349583"><ele>1358.25</ele><time>2026-04-25T09:48:50.413Z</time></trkpt><trkpt lat="31.1152317" lon="-7.1348717"><ele>1357.5</ele><time>2026-04-25T09:48:51.413Z</time></trkpt><trkpt lat="31.1153417" lon="-7.1347917"><ele>1356.75</ele><time>2026-04-25T09:48:52.413Z</time></trkpt><trkpt lat="31.1154667" lon="-7.13472"><ele>1356.0</ele><time>2026-04-25T09:48:53.413Z</time></trkpt><trkpt lat="31.1156033" lon="-7.1346783"><ele>1360.75</ele><time>2026-04-25T09:48:54.413Z</time></trkpt><trkpt lat="31.1157517" lon="-7.1346467"><ele>1365.5</ele><time>2026-04-25T09:48:55.413Z</time></trkpt><trkpt lat="31.1158983" lon="-7.1346067"><ele>1370.25</ele><time>2026-04-25T09:48:56.413Z</time></trkpt><trkpt lat="31.116025" lon="-7.13454"><ele>1375.0</ele><time>2026-04-25T09:48:57.413Z</time></trkpt><trkpt lat="31.1161233" lon="-7.1344517"><ele>1375.0</ele><time>2026-04-25T09:48:58.413Z</time></trkpt><trkpt lat="31.11621" lon="-7.13434"><ele>1375.0</ele><time>2026-04-25T09:48:59.413Z</time></trkpt><trkpt lat="31.11628" lon="-7.134205"><ele>1375.0</ele><time>2026-04-25T09:49:00.413Z</time></trkpt><trkpt lat="31.1163533" lon="-7.134075"><ele>1375.0</ele><time>2026-04-25T09:49:01.413Z</time></trkpt><trkpt lat="31.1164317" lon="-7.133965"><ele>1374.75</ele><time>2026-04-25T09:49:02.414Z</time></trkpt><trkpt lat="31.1165217" lon="-7.1338683"><ele>1374.5</ele><time>2026-04-25T09:49:03.413Z</time></trkpt><trkpt lat="31.116615" lon="-7.13378"><ele>1374.25</ele><time>2026-04-25T09:49:04.413Z</time></trkpt><trkpt lat="31.1167067" lon="-7.1337067"><ele>1374.0</ele><time>2026-04-25T09:49:05.413Z</time></trkpt><trkpt lat="31.1167967" lon="-7.1336433"><ele>1376.4</ele><time>2026-04-25T09:49:06.413Z</time></trkpt><trkpt lat="31.1168883" lon="-7.133605"><ele>1378.8000000000002</ele><time>2026-04-25T09:49:07.413Z</time></trkpt><trkpt lat="31.1169867" lon="-7.1335917"><ele>1381.1999999999998</ele><time>2026-04-25T09:49:08.413Z</time></trkpt><trkpt lat="31.1170933" lon="-7.133585"><ele>1383.6</ele><time>2026-04-25T09:49:09.413Z</time></trkpt><trkpt lat="31.1172067" lon="-7.1335733"><ele>1386.0</ele><time>2026-04-25T09:49:10.413Z</time></trkpt><trkpt lat="31.1173283" lon="-7.1335583"><ele>1385.75</ele><time>2026-04-25T09:49:11.413Z</time></trkpt><trkpt lat="31.11745" lon="-7.13355"><ele>1385.5</ele><time>2026-04-25T09:49:12.413Z</time></trkpt><trkpt lat="31.117565" lon="-7.1335467"><ele>1385.25</ele><time>2026-04-25T09:49:13.414Z</time></trkpt><trkpt lat="31.1176783" lon="-7.13355"><ele>1385.0</ele><time>2026-04-25T09:49:14.413Z</time></trkpt><trkpt lat="31.11779" lon="-7.1335417"><ele>1385.0</ele><time>2026-04-25T09:49:15.413Z</time></trkpt><trkpt lat="31.1178967" lon="-7.1335317"><ele>1385.0</ele><time>2026-04-25T09:49:16.413Z</time></trkpt><trkpt lat="31.118" lon="-7.13352"><ele>1385.0</ele><time>2026-04-25T09:49:17.414Z</time></trkpt><trkpt lat="31.1181017" lon="-7.1335133"><ele>1385.0</ele><time>2026-04-25T09:49:18.413Z</time></trkpt><trkpt lat="31.1182083" lon="-7.1335083"><ele>1385.0</ele><time>2026-04-25T09:49:19.413Z</time></trkpt><trkpt lat="31.11832" lon="-7.133515"><ele>1383.25</ele><time>2026-04-25T09:49:20.413Z</time></trkpt><trkpt lat="31.11843" lon="-7.1335317"><ele>1381.5</ele><time>2026-04-25T09:49:21.413Z</time></trkpt><trkpt lat="31.11854" lon="-7.1335633"><ele>1379.75</ele><time>2026-04-25T09:49:22.413Z</time></trkpt><trkpt lat="31.1186317" lon="-7.133635"><ele>1378.0</ele><time>2026-04-25T09:49:23.413Z</time></trkpt><trkpt lat="31.11872" lon="-7.1337333"><ele>1378.0</ele><time>2026-04-25T09:49:24.414Z</time></trkpt><trkpt lat="31.11881" lon="-7.13384"><ele>1378.0</ele><time>2026-04-25T09:49:25.413Z</time></trkpt><trkpt lat="31.1188983" lon="-7.1339533"><ele>1378.0</ele><time>2026-04-25T09:49:26.413Z</time></trkpt><trkpt lat="31.1189867" lon="-7.1340717"><ele>1378.0</ele><time>2026-04-25T09:49:27.413Z</time></trkpt><trkpt lat="31.1190767" lon="-7.1341917"><ele>1377.75</ele><time>2026-04-25T09:49:28.413Z</time></trkpt><trkpt lat="31.1191683" lon="-7.1343167"><ele>1377.5</ele><time>2026-04-25T09:49:29.413Z</time></trkpt><trkpt lat="31.1192617" lon="-7.1344467"><ele>1377.25</ele><time>2026-04-25T09:49:30.413Z</time></trkpt><trkpt lat="31.1193617" lon="-7.1345833"><ele>1377.0</ele><time>2026-04-25T09:49:31.413Z</time></trkpt><trkpt lat="31.1194467" lon="-7.1347183"><ele>1377.0</ele><time>2026-04-25T09:49:32.413Z</time></trkpt><trkpt lat="31.1195217" lon="-7.1348483"><ele>1377.0</ele><time>2026-04-25T09:49:33.413Z</time></trkpt><trkpt lat="31.1196017" lon="-7.1349583"><ele>1377.0</ele><time>2026-04-25T09:49:34.413Z</time></trkpt><trkpt lat="31.1196967" lon="-7.1350517"><ele>1377.0</ele><time>2026-04-25T09:49:35.413Z</time></trkpt><trkpt lat="31.1198067" lon="-7.135125"><ele>1378.5</ele><time>2026-04-25T09:49:36.413Z</time></trkpt><trkpt lat="31.1199383" lon="-7.13517"><ele>1380.0</ele><time>2026-04-25T09:49:37.413Z</time></trkpt><trkpt lat="31.12007" lon="-7.1352017"><ele>1381.5</ele><time>2026-04-25T09:49:38.413Z</time></trkpt><trkpt lat="31.1202033" lon="-7.1352367"><ele>1383.0</ele><time>2026-04-25T09:49:39.413Z</time></trkpt><trkpt lat="31.1203433" lon="-7.1352767"><ele>1383.0</ele><time>2026-04-25T09:49:40.413Z</time></trkpt><trkpt lat="31.120485" lon="-7.1353167"><ele>1383.0</ele><time>2026-04-25T09:49:41.413Z</time></trkpt><trkpt lat="31.12063" lon="-7.135355"><ele>1383.0</ele><time>2026-04-25T09:49:42.413Z</time></trkpt><trkpt lat="31.1207833" lon="-7.1354017"><ele>1380.3333333333333</ele><time>2026-04-25T09:49:43.413Z</time></trkpt><trkpt lat="31.120935" lon="-7.1354533"><ele>1377.6666666666665</ele><time>2026-04-25T09:49:44.413Z</time></trkpt><trkpt lat="31.1210767" lon="-7.1355067"><ele>1375.0</ele><time>2026-04-25T09:49:45.413Z</time></trkpt><trkpt lat="31.1212133" lon="-7.13557"><ele>1375.0</ele><time>2026-04-25T09:49:46.413Z</time></trkpt><trkpt lat="31.1213483" lon="-7.1356167"><ele>1375.0</ele><time>2026-04-25T09:49:47.413Z</time></trkpt><trkpt lat="31.1214817" lon="-7.135645"><ele>1375.0</ele><time>2026-04-25T09:49:48.413Z</time></trkpt><trkpt lat="31.1216117" lon="-7.1356633"><ele>1375.0</ele><time>2026-04-25T09:49:49.413Z</time></trkpt><trkpt lat="31.121745" lon="-7.1356717"><ele>1373.0</ele><time>2026-04-25T09:49:50.413Z</time></trkpt><trkpt lat="31.1218917" lon="-7.1356717"><ele>1371.0</ele><time>2026-04-25T09:49:51.413Z</time></trkpt><trkpt lat="31.12203" lon="-7.135695"><ele>1369.0</ele><time>2026-04-25T09:49:52.413Z</time></trkpt><trkpt lat="31.12217" lon="-7.1357317"><ele>1367.0</ele><time>2026-04-25T09:49:53.413Z</time></trkpt><trkpt lat="31.1223167" lon="-7.135755"><ele>1372.6666666666667</ele><time>2026-04-25T09:49:54.413Z</time></trkpt><trkpt lat="31.122465" lon="-7.1357883"><ele>1378.3333333333333</ele><time>2026-04-25T09:49:55.413Z</time></trkpt><trkpt lat="31.12262" lon="-7.13583"><ele>1384.0</ele><time>2026-04-25T09:49:56.414Z</time></trkpt><trkpt lat="31.1227733" lon="-7.1358767"><ele>1384.0</ele><time>2026-04-25T09:49:57.413Z</time></trkpt><trkpt lat="31.1229267" lon="-7.1359233"><ele>1384.0</ele><time>2026-04-25T09:49:58.413Z</time></trkpt><trkpt lat="31.12307" lon="-7.13597"><ele>1384.0</ele><time>2026-04-25T09:49:59.413Z</time></trkpt><trkpt lat="31.12321" lon="-7.136015"><ele>1382.5</ele><time>2026-04-25T09:50:00.413Z</time></trkpt><trkpt lat="31.1233483" lon="-7.1360533"><ele>1381.0</ele><time>2026-04-25T09:50:01.413Z</time></trkpt><trkpt lat="31.12348" lon="-7.136095"><ele>1379.5</ele><time>2026-04-25T09:50:02.413Z</time></trkpt><trkpt lat="31.1236117" lon="-7.1361383"><ele>1378.0</ele><time>2026-04-25T09:50:03.413Z</time></trkpt><trkpt lat="31.12374" lon="-7.13618"><ele>1378.0</ele><time>2026-04-25T09:50:04.413Z</time></trkpt><trkpt lat="31.1238633" lon="-7.136215"><ele>1378.0</ele><time>2026-04-25T09:50:05.413Z</time></trkpt><trkpt lat="31.1239833" lon="-7.136225"><ele>1378.0</ele><time>2026-04-25T09:50:06.413Z</time></trkpt><trkpt lat="31.1241083" lon="-7.1361967"><ele>1378.0</ele><time>2026-04-25T09:50:07.414Z</time></trkpt><trkpt lat="31.1242283" lon="-7.136135"><ele>1377.75</ele><time>2026-04-25T09:50:08.413Z</time></trkpt><trkpt lat="31.1243233" lon="-7.136035"><ele>1377.5</ele><time>2026-04-25T09:50:09.414Z</time></trkpt><trkpt lat="31.1243983" lon="-7.1359083"><ele>1377.25</ele><time>2026-04-25T09:50:10.413Z</time></trkpt><trkpt lat="31.1244633" lon="-7.13576"><ele>1377.0</ele><time>2026-04-25T09:50:11.413Z</time></trkpt><trkpt lat="31.124515" lon="-7.1356033"><ele>1376.3333333333333</ele><time>2026-04-25T09:50:12.413Z</time></trkpt><trkpt lat="31.124565" lon="-7.13544"><ele>1375.6666666666665</ele><time>2026-04-25T09:50:13.413Z</time></trkpt><trkpt lat="31.1246183" lon="-7.1352717"><ele>1375.0</ele><time>2026-04-25T09:50:14.413Z</time></trkpt><trkpt lat="31.1246683" lon="-7.1350917"><ele>1375.0</ele><time>2026-04-25T09:50:15.413Z</time></trkpt><trkpt lat="31.12471" lon="-7.1349117"><ele>1375.0</ele><time>2026-04-25T09:50:16.413Z</time></trkpt><trkpt lat="31.1247483" lon="-7.1347317"><ele>1375.0</ele><time>2026-04-25T09:50:17.413Z</time></trkpt><trkpt lat="31.1247783" lon="-7.1345517"><ele>1374.75</ele><time>2026-04-25T09:50:18.413Z</time></trkpt><trkpt lat="31.12481" lon="-7.1343767"><ele>1374.5</ele><time>2026-04-25T09:50:19.413Z</time></trkpt><trkpt lat="31.1248383" lon="-7.13421"><ele>1374.25</ele><time>2026-04-25T09:50:20.413Z</time></trkpt><trkpt lat="31.1248783" lon="-7.1340583"><ele>1374.0</ele><time>2026-04-25T09:50:21.413Z</time></trkpt><trkpt lat="31.1249583" lon="-7.133925"><ele>1374.0</ele><time>2026-04-25T09:50:22.413Z</time></trkpt><trkpt lat="31.12505" lon="-7.133805"><ele>1374.0</ele><time>2026-04-25T09:50:23.413Z</time></trkpt><trkpt lat="31.1251617" lon="-7.1337"><ele>1374.0</ele><time>2026-04-25T09:50:24.413Z</time></trkpt><trkpt lat="31.1252883" lon="-7.1336283"><ele>1374.0</ele><time>2026-04-25T09:50:25.413Z</time></trkpt><trkpt lat="31.1254267" lon="-7.133585"><ele>1374.0</ele><time>2026-04-25T09:50:26.413Z</time></trkpt><trkpt lat="31.1255767" lon="-7.133565"><ele>1374.0</ele><time>2026-04-25T09:50:27.413Z</time></trkpt><trkpt lat="31.1257367" lon="-7.1335533"><ele>1374.0</ele><time>2026-04-25T09:50:28.413Z</time></trkpt><trkpt lat="31.1259017" lon="-7.1335217"><ele>1375.3333333333333</ele><time>2026-04-25T09:50:29.413Z</time></trkpt><trkpt lat="31.12606" lon="-7.1334733"><ele>1376.6666666666665</ele><time>2026-04-25T09:50:30.413Z</time></trkpt><trkpt lat="31.1262017" lon="-7.13339"><ele>1378.0</ele><time>2026-04-25T09:50:31.413Z</time></trkpt><trkpt lat="31.126335" lon="-7.1332933"><ele>1377.25</ele><time>2026-04-25T09:50:32.413Z</time></trkpt><trkpt lat="31.1264583" lon="-7.1331967"><ele>1376.5</ele><time>2026-04-25T09:50:33.413Z</time></trkpt><trkpt lat="31.12657" lon="-7.1331"><ele>1375.75</ele><time>2026-04-25T09:50:34.414Z</time></trkpt><trkpt lat="31.126675" lon="-7.1330033"><ele>1375.0</ele><time>2026-04-25T09:50:35.413Z</time></trkpt><trkpt lat="31.1267833" lon="-7.1329183"><ele>1375.0</ele><time>2026-04-25T09:50:36.413Z</time></trkpt><trkpt lat="31.1269033" lon="-7.1328433"><ele>1375.0</ele><time>2026-04-25T09:50:37.413Z</time></trkpt><trkpt lat="31.1270317" lon="-7.132775"><ele>1375.0</ele><time>2026-04-25T09:50:38.413Z</time></trkpt><trkpt lat="31.1271667" lon="-7.132725"><ele>1375.0</ele><time>2026-04-25T09:50:39.413Z</time></trkpt><trkpt lat="31.1273033" lon="-7.1327117"><ele>1377.25</ele><time>2026-04-25T09:50:40.413Z</time></trkpt><trkpt lat="31.1274367" lon="-7.132735"><ele>1379.5</ele><time>2026-04-25T09:50:41.413Z</time></trkpt><trkpt lat="31.12757" lon="-7.132775"><ele>1381.75</ele><time>2026-04-25T09:50:42.414Z</time></trkpt><trkpt lat="31.1277083" lon="-7.132785"><ele>1384.0</ele><time>2026-04-25T09:50:43.413Z</time></trkpt><trkpt lat="31.12785" lon="-7.132765"><ele>1384.0</ele><time>2026-04-25T09:50:44.413Z</time></trkpt><trkpt lat="31.1279933" lon="-7.1326967"><ele>1384.0</ele><time>2026-04-25T09:50:45.413Z</time></trkpt><trkpt lat="31.1281333" lon="-7.1326167"><ele>1384.0</ele><time>2026-04-25T09:50:46.413Z</time></trkpt><trkpt lat="31.1282583" lon="-7.1325267"><ele>1382.5</ele><time>2026-04-25T09:50:47.413Z</time></trkpt><trkpt lat="31.1283767" lon="-7.1324417"><ele>1381.0</ele><time>2026-04-25T09:50:48.413Z</time></trkpt><trkpt lat="31.1284867" lon="-7.1323617"><ele>1379.5</ele><time>2026-04-25T09:50:49.413Z</time></trkpt><trkpt lat="31.128605" lon="-7.1322933"><ele>1378.0</ele><time>2026-04-25T09:50:50.413Z</time></trkpt><trkpt lat="31.1287267" lon="-7.1322317"><ele>1378.0</ele><time>2026-04-25T09:50:51.413Z</time></trkpt><trkpt lat="31.1288533" lon="-7.1321833"><ele>1378.0</ele><time>2026-04-25T09:50:52.413Z</time></trkpt><trkpt lat="31.128985" lon="-7.13215"><ele>1378.0</ele><time>2026-04-25T09:50:53.413Z</time></trkpt><trkpt lat="31.129125" lon="-7.1321333"><ele>1378.0</ele><time>2026-04-25T09:50:54.413Z</time></trkpt><trkpt lat="31.1292733" lon="-7.132115"><ele>1379.5</ele><time>2026-04-25T09:50:55.413Z</time></trkpt><trkpt lat="31.1294167" lon="-7.1320833"><ele>1381.0</ele><time>2026-04-25T09:50:56.413Z</time></trkpt><trkpt lat="31.1295533" lon="-7.13204"><ele>1382.5</ele><time>2026-04-25T09:50:57.413Z</time></trkpt><trkpt lat="31.1296917" lon="-7.13198"><ele>1384.0</ele><time>2026-04-25T09:50:58.414Z</time></trkpt><trkpt lat="31.1298383" lon="-7.1319333"><ele>1385.3333333333333</ele><time>2026-04-25T09:50:59.413Z</time></trkpt><trkpt lat="31.1299883" lon="-7.1319017"><ele>1386.6666666666667</ele><time>2026-04-25T09:51:00.413Z</time></trkpt><trkpt lat="31.130145" lon="-7.1318767"><ele>1388.0</ele><time>2026-04-25T09:51:01.413Z</time></trkpt><trkpt lat="31.1303033" lon="-7.13185"><ele>1388.0</ele><time>2026-04-25T09:51:02.413Z</time></trkpt><trkpt lat="31.1304567" lon="-7.1318283"><ele>1388.0</ele><time>2026-04-25T09:51:03.413Z</time></trkpt><trkpt lat="31.1306117" lon="-7.1318117"><ele>1388.0</ele><time>2026-04-25T09:51:04.413Z</time></trkpt><trkpt lat="31.1307583" lon="-7.1318017"><ele>1390.0</ele><time>2026-04-25T09:51:05.413Z</time></trkpt><trkpt lat="31.1308917" lon="-7.13179"><ele>1392.0</ele><time>2026-04-25T09:51:06.413Z</time></trkpt><trkpt lat="31.1310283" lon="-7.1317867"><ele>1394.0</ele><time>2026-04-25T09:51:07.414Z</time></trkpt><trkpt lat="31.1311667" lon="-7.1317767"><ele>1396.0</ele><time>2026-04-25T09:51:08.413Z</time></trkpt><trkpt lat="31.1313" lon="-7.1317467"><ele>1396.0</ele><time>2026-04-25T09:51:09.413Z</time></trkpt><trkpt lat="31.1314317" lon="-7.1317033"><ele>1396.0</ele><time>2026-04-25T09:51:10.413Z</time></trkpt><trkpt lat="31.1315617" lon="-7.1316533"><ele>1396.0</ele><time>2026-04-25T09:51:11.413Z</time></trkpt><trkpt lat="31.1316983" lon="-7.1316217"><ele>1396.0</ele><time>2026-04-25T09:51:12.413Z</time></trkpt><trkpt lat="31.1318433" lon="-7.13161"><ele>1398.3333333333333</ele><time>2026-04-25T09:51:13.413Z</time></trkpt><trkpt lat="31.13199" lon="-7.1316083"><ele>1400.6666666666667</ele><time>2026-04-25T09:51:14.413Z</time></trkpt><trkpt lat="31.13214" lon="-7.1316217"><ele>1403.0</ele><time>2026-04-25T09:51:15.413Z</time></trkpt><trkpt lat="31.1322933" lon="-7.1316317"><ele>1403.75</ele><time>2026-04-25T09:51:16.413Z</time></trkpt><trkpt lat="31.1324367" lon="-7.13164"><ele>1404.5</ele><time>2026-04-25T09:51:17.413Z</time></trkpt><trkpt lat="31.1325867" lon="-7.1316483"><ele>1405.25</ele><time>2026-04-25T09:51:18.413Z</time></trkpt><trkpt lat="31.1327383" lon="-7.1316267"><ele>1406.0</ele><time>2026-04-25T09:51:19.413Z</time></trkpt><trkpt lat="31.1328883" lon="-7.131595"><ele>1405.0</ele><time>2026-04-25T09:51:20.413Z</time></trkpt><trkpt lat="31.1330317" lon="-7.1315533"><ele>1404.0</ele><time>2026-04-25T09:51:21.413Z</time></trkpt><trkpt lat="31.13317" lon="-7.1315083"><ele>1403.0</ele><time>2026-04-25T09:51:22.413Z</time></trkpt><trkpt lat="31.1332933" lon="-7.13146"><ele>1402.0</ele><time>2026-04-25T09:51:23.413Z</time></trkpt><trkpt lat="31.13341" lon="-7.1314083"><ele>1402.0</ele><time>2026-04-25T09:51:24.413Z</time></trkpt><trkpt lat="31.133515" lon="-7.1313433"><ele>1402.0</ele><time>2026-04-25T09:51:25.413Z</time></trkpt><trkpt lat="31.133605" lon="-7.13126"><ele>1402.0</ele><time>2026-04-25T09:51:26.413Z</time></trkpt><trkpt lat="31.1336767" lon="-7.13114"><ele>1402.0</ele><time>2026-04-25T09:51:27.413Z</time></trkpt><trkpt lat="31.13374" lon="-7.131"><ele>1402.0</ele><time>2026-04-25T09:51:28.413Z</time></trkpt><trkpt lat="31.1337967" lon="-7.1308467"><ele>1402.0</ele><time>2026-04-25T09:51:29.413Z</time></trkpt><trkpt lat="31.13387" lon="-7.1306983"><ele>1402.0</ele><time>2026-04-25T09:51:30.413Z</time></trkpt><trkpt lat="31.1339633" lon="-7.1305717"><ele>1402.0</ele><time>2026-04-25T09:51:31.413Z</time></trkpt><trkpt lat="31.13407" lon="-7.13046"><ele>1403.75</ele><time>2026-04-25T09:51:32.413Z</time></trkpt><trkpt lat="31.134175" lon="-7.1303567"><ele>1405.5</ele><time>2026-04-25T09:51:33.413Z</time></trkpt><trkpt lat="31.13426" lon="-7.1302417"><ele>1407.25</ele><time>2026-04-25T09:51:34.413Z</time></trkpt><trkpt lat="31.1343133" lon="-7.1301033"><ele>1409.0</ele><time>2026-04-25T09:51:35.413Z</time></trkpt><trkpt lat="31.1343283" lon="-7.12997"><ele>1408.8000000000002</ele><time>2026-04-25T09:51:36.413Z</time></trkpt><trkpt lat="31.1343217" lon="-7.12985"><ele>1408.6000000000001</ele><time>2026-04-25T09:51:37.413Z</time></trkpt><trkpt lat="31.1343067" lon="-7.129745"><ele>1408.4</ele><time>2026-04-25T09:51:38.413Z</time></trkpt><trkpt lat="31.1342867" lon="-7.1296383"><ele>1408.2</ele><time>2026-04-25T09:51:39.413Z</time></trkpt><trkpt lat="31.1342817" lon="-7.12953"><ele>1408.0</ele><time>2026-04-25T09:51:40.413Z</time></trkpt><trkpt lat="31.134295" lon="-7.1294217"><ele>1408.0</ele><time>2026-04-25T09:51:41.413Z</time></trkpt><trkpt lat="31.13432" lon="-7.129305"><ele>1408.0</ele><time>2026-04-25T09:51:42.414Z</time></trkpt><trkpt lat="31.1343633" lon="-7.12919"><ele>1408.0</ele><time>2026-04-25T09:51:43.413Z</time></trkpt><trkpt lat="31.1344183" lon="-7.129075"><ele>1408.0</ele><time>2026-04-25T09:51:44.413Z</time></trkpt><trkpt lat="31.1344833" lon="-7.1289717"><ele>1408.0</ele><time>2026-04-25T09:51:45.413Z</time></trkpt><trkpt lat="31.134555" lon="-7.1288817"><ele>1407.0</ele><time>2026-04-25T09:51:46.413Z</time></trkpt><trkpt lat="31.1346183" lon="-7.12879"><ele>1406.0</ele><time>2026-04-25T09:51:47.413Z</time></trkpt><trkpt lat="31.1346683" lon="-7.1286867"><ele>1405.0</ele><time>2026-04-25T09:51:48.413Z</time></trkpt><trkpt lat="31.1347" lon="-7.1285733"><ele>1404.0</ele><time>2026-04-25T09:51:49.413Z</time></trkpt><trkpt lat="31.1347233" lon="-7.1284567"><ele>1403.0</ele><time>2026-04-25T09:51:50.413Z</time></trkpt><trkpt lat="31.1347367" lon="-7.1283417"><ele>1402.0</ele><time>2026-04-25T09:51:51.413Z</time></trkpt><trkpt lat="31.1347517" lon="-7.1282167"><ele>1401.0</ele><time>2026-04-25T09:51:52.413Z</time></trkpt><trkpt lat="31.1347667" lon="-7.1280883"><ele>1400.0</ele><time>2026-04-25T09:51:53.413Z</time></trkpt><trkpt lat="31.1347933" lon="-7.1279567"><ele>1399.0</ele><time>2026-04-25T09:51:54.413Z</time></trkpt><trkpt lat="31.1348217" lon="-7.12782"><ele>1399.0</ele><time>2026-04-25T09:51:55.413Z</time></trkpt><trkpt lat="31.134845" lon="-7.1276783"><ele>1399.0</ele><time>2026-04-25T09:51:56.413Z</time></trkpt><trkpt lat="31.1348617" lon="-7.12753"><ele>1399.0</ele><time>2026-04-25T09:51:57.413Z</time></trkpt><trkpt lat="31.1348667" lon="-7.1273767"><ele>1399.0</ele><time>2026-04-25T09:51:58.413Z</time></trkpt><trkpt lat="31.1348633" lon="-7.1272417"><ele>1400.2</ele><time>2026-04-25T09:51:59.413Z</time></trkpt><trkpt lat="31.1348517" lon="-7.1271133"><ele>1401.4</ele><time>2026-04-25T09:52:00.413Z</time></trkpt><trkpt lat="31.1348417" lon="-7.126985"><ele>1402.6</ele><time>2026-04-25T09:52:01.413Z</time></trkpt><trkpt lat="31.1348483" lon="-7.126875"><ele>1403.8</ele><time>2026-04-25T09:52:02.413Z</time></trkpt><trkpt lat="31.1348867" lon="-7.126775"><ele>1405.0</ele><time>2026-04-25T09:52:03.413Z</time></trkpt><trkpt lat="31.13496" lon="-7.1267067"><ele>1405.0</ele><time>2026-04-25T09:52:04.413Z</time></trkpt><trkpt lat="31.13505" lon="-7.1266633"><ele>1405.0</ele><time>2026-04-25T09:52:05.413Z</time></trkpt><trkpt lat="31.1351517" lon="-7.1266717"><ele>1405.0</ele><time>2026-04-25T09:52:06.414Z</time></trkpt><trkpt lat="31.1352667" lon="-7.1267033"><ele>1405.0</ele><time>2026-04-25T09:52:07.413Z</time></trkpt><trkpt lat="31.1353883" lon="-7.1267433"><ele>1405.0</ele><time>2026-04-25T09:52:08.413Z</time></trkpt><trkpt lat="31.1355" lon="-7.1267867"><ele>1405.0</ele><time>2026-04-25T09:52:09.413Z</time></trkpt><trkpt lat="31.1356117" lon="-7.1268383"><ele>1405.0</ele><time>2026-04-25T09:52:10.413Z</time></trkpt><trkpt lat="31.1357217" lon="-7.126895"><ele>1405.0</ele><time>2026-04-25T09:52:11.413Z</time></trkpt><trkpt lat="31.1358217" lon="-7.126965"><ele>1405.0</ele><time>2026-04-25T09:52:12.413Z</time></trkpt><trkpt lat="31.1359267" lon="-7.12704"><ele>1405.5</ele><time>2026-04-25T09:52:13.413Z</time></trkpt><trkpt lat="31.1360283" lon="-7.1271267"><ele>1406.0</ele><time>2026-04-25T09:52:14.414Z</time></trkpt><trkpt lat="31.1361267" lon="-7.1272317"><ele>1406.5</ele><time>2026-04-25T09:52:15.413Z</time></trkpt><trkpt lat="31.1362233" lon="-7.1273383"><ele>1407.0</ele><time>2026-04-25T09:52:16.413Z</time></trkpt><trkpt lat="31.1363233" lon="-7.1274483"><ele>1408.5</ele><time>2026-04-25T09:52:17.413Z</time></trkpt><trkpt lat="31.1364133" lon="-7.12757"><ele>1410.0</ele><time>2026-04-25T09:52:18.413Z</time></trkpt><trkpt lat="31.1364983" lon="-7.1277017"><ele>1411.5</ele><time>2026-04-25T09:52:19.413Z</time></trkpt><trkpt lat="31.1365767" lon="-7.1278433"><ele>1413.0</ele><time>2026-04-25T09:52:20.413Z</time></trkpt><trkpt lat="31.1366517" lon="-7.12798"><ele>1413.0</ele><time>2026-04-25T09:52:21.413Z</time></trkpt><trkpt lat="31.1367217" lon="-7.1281067"><ele>1413.0</ele><time>2026-04-25T09:52:22.413Z</time></trkpt><trkpt lat="31.13679" lon="-7.1282283"><ele>1413.0</ele><time>2026-04-25T09:52:23.413Z</time></trkpt><trkpt lat="31.1368633" lon="-7.12834"><ele>1413.0</ele><time>2026-04-25T09:52:24.413Z</time></trkpt><trkpt lat="31.1369333" lon="-7.128445"><ele>1419.75</ele><time>2026-04-25T09:52:25.413Z</time></trkpt><trkpt lat="31.1370033" lon="-7.12855"><ele>1426.5</ele><time>2026-04-25T09:52:26.413Z</time></trkpt><trkpt lat="31.1370733" lon="-7.1286583"><ele>1433.25</ele><time>2026-04-25T09:52:27.414Z</time></trkpt><trkpt lat="31.137145" lon="-7.1287733"><ele>1440.0</ele><time>2026-04-25T09:52:28.413Z</time></trkpt><trkpt lat="31.1372217" lon="-7.1288867"><ele>1440.0</ele><time>2026-04-25T09:52:29.413Z</time></trkpt><trkpt lat="31.137305" lon="-7.129"><ele>1440.0</ele><time>2026-04-25T09:52:30.413Z</time></trkpt><trkpt lat="31.1373933" lon="-7.129115"><ele>1440.0</ele><time>2026-04-25T09:52:31.413Z</time></trkpt><trkpt lat="31.1374817" lon="-7.12924"><ele>1440.0</ele><time>2026-04-25T09:52:32.413Z</time></trkpt><trkpt lat="31.13758" lon="-7.1293683"><ele>1436.6666666666667</ele><time>2026-04-25T09:52:33.413Z</time></trkpt><trkpt lat="31.1376833" lon="-7.1295"><ele>1433.3333333333335</ele><time>2026-04-25T09:52:34.413Z</time></trkpt><trkpt lat="31.1378033" lon="-7.1296217"><ele>1430.0</ele><time>2026-04-25T09:52:35.413Z</time></trkpt><trkpt lat="31.1379333" lon="-7.129745"><ele>1430.0</ele><time>2026-04-25T09:52:36.413Z</time></trkpt><trkpt lat="31.1380567" lon="-7.1298517"><ele>1430.0</ele><time>2026-04-25T09:52:37.413Z</time></trkpt><trkpt lat="31.13818" lon="-7.1299433"><ele>1430.0</ele><time>2026-04-25T09:52:38.413Z</time></trkpt><trkpt lat="31.138295" lon="-7.1300233"><ele>1430.0</ele><time>2026-04-25T09:52:39.413Z</time></trkpt><trkpt lat="31.138405" lon="-7.13009"><ele>1432.2</ele><time>2026-04-25T09:52:40.413Z</time></trkpt><trkpt lat="31.1385133" lon="-7.1301367"><ele>1434.4</ele><time>2026-04-25T09:52:41.413Z</time></trkpt><trkpt lat="31.1386067" lon="-7.13016"><ele>1436.6</ele><time>2026-04-25T09:52:42.413Z</time></trkpt><trkpt lat="31.138685" lon="-7.1301583"><ele>1438.8</ele><time>2026-04-25T09:52:43.413Z</time></trkpt><trkpt lat="31.1387483" lon="-7.1301417"><ele>1441.0</ele><time>2026-04-25T09:52:44.413Z</time></trkpt><trkpt lat="31.13884" lon="-7.1300983"><ele>1441.0</ele><time>2026-04-25T09:52:46.413Z</time></trkpt><trkpt lat="31.1389017" lon="-7.1300683"><ele>1441.0</ele><time>2026-04-25T09:52:49.413Z</time></trkpt><trkpt lat="31.1389833" lon="-7.1300817"><ele>1441.0</ele><time>2026-04-25T09:53:35.413Z</time></trkpt><trkpt lat="31.1390333" lon="-7.1301283"><ele>1441.0</ele><time>2026-04-25T09:53:37.413Z</time></trkpt><trkpt lat="31.1390967" lon="-7.1301983"><ele>1441.0</ele><time>2026-04-25T09:53:39.413Z</time></trkpt><trkpt lat="31.139175" lon="-7.1303133"><ele>1441.0</ele><time>2026-04-25T09:53:41.413Z</time></trkpt><trkpt lat="31.13922" lon="-7.1303833"><ele>1441.6666666666665</ele><time>2026-04-25T09:53:42.413Z</time></trkpt><trkpt lat="31.13927" lon="-7.1304467"><ele>1442.3333333333333</ele><time>2026-04-25T09:53:43.413Z</time></trkpt><trkpt lat="31.1393233" lon="-7.1305167"><ele>1443.0</ele><time>2026-04-25T09:53:44.413Z</time></trkpt><trkpt lat="31.1393733" lon="-7.1305817"><ele>1443.6666666666667</ele><time>2026-04-25T09:53:45.413Z</time></trkpt><trkpt lat="31.13942" lon="-7.1306417"><ele>1444.3333333333335</ele><time>2026-04-25T09:53:46.413Z</time></trkpt><trkpt lat="31.1394633" lon="-7.1307"><ele>1445.0</ele><time>2026-04-25T09:53:47.413Z</time></trkpt><trkpt lat="31.13954" lon="-7.1307983"><ele>1445.0</ele><time>2026-04-25T09:53:49.413Z</time></trkpt><trkpt lat="31.1396267" lon="-7.13088"><ele>1445.0</ele><time>2026-04-25T09:53:51.413Z</time></trkpt><trkpt lat="31.1397467" lon="-7.1309233"><ele>1445.0</ele><time>2026-04-25T09:53:53.413Z</time></trkpt><trkpt lat="31.1398133" lon="-7.1309217"><ele>1445.0</ele><time>2026-04-25T09:53:54.413Z</time></trkpt><trkpt lat="31.1398833" lon="-7.1309067"><ele>1445.0</ele><time>2026-04-25T09:53:55.413Z</time></trkpt><trkpt lat="31.13995" lon="-7.1308733"><ele>1445.0</ele><time>2026-04-25T09:53:56.413Z</time></trkpt><trkpt lat="31.14001" lon="-7.1308317"><ele>1442.5714285714284</ele><time>2026-04-25T09:53:57.413Z</time></trkpt><trkpt lat="31.14007" lon="-7.13079"><ele>1440.142857142857</ele><time>2026-04-25T09:53:58.413Z</time></trkpt><trkpt lat="31.1401267" lon="-7.130745"><ele>1437.7142857142858</ele><time>2026-04-25T09:53:59.413Z</time></trkpt><trkpt lat="31.1401833" lon="-7.1306917"><ele>1435.2857142857142</ele><time>2026-04-25T09:54:00.413Z</time></trkpt><trkpt lat="31.1402433" lon="-7.1306483"><ele>1432.857142857143</ele><time>2026-04-25T09:54:01.413Z</time></trkpt><trkpt lat="31.1403167" lon="-7.1306233"><ele>1430.4285714285713</ele><time>2026-04-25T09:54:02.413Z</time></trkpt><trkpt lat="31.1404017" lon="-7.1306217"><ele>1428.0</ele><time>2026-04-25T09:54:03.414Z</time></trkpt><trkpt lat="31.1404783" lon="-7.1306367"><ele>1428.0</ele><time>2026-04-25T09:54:04.413Z</time></trkpt><trkpt lat="31.1405583" lon="-7.130675"><ele>1428.0</ele><time>2026-04-25T09:54:05.413Z</time></trkpt><trkpt lat="31.1406383" lon="-7.130725"><ele>1428.0</ele><time>2026-04-25T09:54:06.413Z</time></trkpt><trkpt lat="31.140715" lon="-7.1307733"><ele>1428.0</ele><time>2026-04-25T09:54:07.413Z</time></trkpt><trkpt lat="31.14079" lon="-7.13082"><ele>1428.0</ele><time>2026-04-25T09:54:08.413Z</time></trkpt><trkpt lat="31.140855" lon="-7.1308633"><ele>1428.0</ele><time>2026-04-25T09:54:09.413Z</time></trkpt><trkpt lat="31.14091" lon="-7.1309017"><ele>1426.0</ele><time>2026-04-25T09:54:10.413Z</time></trkpt><trkpt lat="31.1409967" lon="-7.130965"><ele>1424.0</ele><time>2026-04-25T09:54:12.413Z</time></trkpt><trkpt lat="31.1410567" lon="-7.1310183"><ele>1422.0</ele><time>2026-04-25T09:54:15.414Z</time></trkpt><trkpt lat="31.1410917" lon="-7.1311033"><ele>1420.0</ele><time>2026-04-25T09:54:39.413Z</time></trkpt><trkpt lat="31.14112" lon="-7.1311767"><ele>1418.0</ele><time>2026-04-25T09:54:40.413Z</time></trkpt><trkpt lat="31.1411517" lon="-7.13127"><ele>1416.0</ele><time>2026-04-25T09:54:41.413Z</time></trkpt><trkpt lat="31.1411817" lon="-7.1313733"><ele>1416.0</ele><time>2026-04-25T09:54:42.413Z</time></trkpt><trkpt lat="31.1412083" lon="-7.131485"><ele>1416.0</ele><time>2026-04-25T09:54:43.413Z</time></trkpt><trkpt lat="31.1412417" lon="-7.1315917"><ele>1416.0</ele><time>2026-04-25T09:54:44.413Z</time></trkpt><trkpt lat="31.14129" lon="-7.1316967"><ele>1416.0</ele><time>2026-04-25T09:54:45.413Z</time></trkpt><trkpt lat="31.14134" lon="-7.131795"><ele>1416.0</ele><time>2026-04-25T09:54:46.413Z</time></trkpt><trkpt lat="31.141405" lon="-7.1318883"><ele>1415.4</ele><time>2026-04-25T09:54:47.413Z</time></trkpt><trkpt lat="31.1414617" lon="-7.13198"><ele>1414.8</ele><time>2026-04-25T09:54:48.413Z</time></trkpt><trkpt lat="31.1415133" lon="-7.1320767"><ele>1414.2</ele><time>2026-04-25T09:54:49.413Z</time></trkpt><trkpt lat="31.141555" lon="-7.1321867"><ele>1413.6000000000001</ele><time>2026-04-25T09:54:50.413Z</time></trkpt><trkpt lat="31.1415817" lon="-7.1323033"><ele>1413.0</ele><time>2026-04-25T09:54:51.413Z</time></trkpt><trkpt lat="31.1415933" lon="-7.1324267"><ele>1413.0</ele><time>2026-04-25T09:54:52.413Z</time></trkpt><trkpt lat="31.1415833" lon="-7.1325367"><ele>1413.0</ele><time>2026-04-25T09:54:53.414Z</time></trkpt><trkpt lat="31.1415533" lon="-7.1326483"><ele>1413.0</ele><time>2026-04-25T09:54:54.413Z</time></trkpt><trkpt lat="31.1415217" lon="-7.1327517"><ele>1413.0</ele><time>2026-04-25T09:54:55.413Z</time></trkpt><trkpt lat="31.1414983" lon="-7.1328583"><ele>1413.0</ele><time>2026-04-25T09:54:56.413Z</time></trkpt><trkpt lat="31.1414883" lon="-7.1329717"><ele>1412.0</ele><time>2026-04-25T09:54:57.413Z</time></trkpt><trkpt lat="31.1414983" lon="-7.133085"><ele>1411.0</ele><time>2026-04-25T09:54:58.413Z</time></trkpt><trkpt lat="31.1415333" lon="-7.1332067"><ele>1410.0</ele><time>2026-04-25T09:54:59.413Z</time></trkpt><trkpt lat="31.141575" lon="-7.13333"><ele>1409.0</ele><time>2026-04-25T09:55:00.413Z</time></trkpt><trkpt lat="31.14161" lon="-7.1334617"><ele>1408.0</ele><time>2026-04-25T09:55:01.413Z</time></trkpt><trkpt lat="31.1416283" lon="-7.1336"><ele>1408.0</ele><time>2026-04-25T09:55:02.413Z</time></trkpt><trkpt lat="31.141615" lon="-7.1337317"><ele>1408.0</ele><time>2026-04-25T09:55:03.413Z</time></trkpt><trkpt lat="31.1415883" lon="-7.1338683"><ele>1408.0</ele><time>2026-04-25T09:55:04.413Z</time></trkpt><trkpt lat="31.1415467" lon="-7.1340133"><ele>1408.0</ele><time>2026-04-25T09:55:05.413Z</time></trkpt><trkpt lat="31.1415017" lon="-7.1341683"><ele>1417.25</ele><time>2026-04-25T09:55:06.413Z</time></trkpt><trkpt lat="31.1414583" lon="-7.1343217"><ele>1426.5</ele><time>2026-04-25T09:55:07.413Z</time></trkpt><trkpt lat="31.14142" lon="-7.13448"><ele>1435.75</ele><time>2026-04-25T09:55:08.413Z</time></trkpt><trkpt lat="31.1413833" lon="-7.134635"><ele>1445.0</ele><time>2026-04-25T09:55:09.413Z</time></trkpt><trkpt lat="31.141365" lon="-7.1347867"><ele>1445.75</ele><time>2026-04-25T09:55:10.413Z</time></trkpt><trkpt lat="31.1413767" lon="-7.134945"><ele>1446.5</ele><time>2026-04-25T09:55:11.413Z</time></trkpt><trkpt lat="31.1414183" lon="-7.1351033"><ele>1447.25</ele><time>2026-04-25T09:55:12.413Z</time></trkpt><trkpt lat="31.1414633" lon="-7.1352583"><ele>1448.0</ele><time>2026-04-25T09:55:13.413Z</time></trkpt><trkpt lat="31.1415033" lon="-7.135425"><ele>1448.0</ele><time>2026-04-25T09:55:14.413Z</time></trkpt><trkpt lat="31.1415333" lon="-7.1355967"><ele>1448.0</ele><time>2026-04-25T09:55:15.413Z</time></trkpt><trkpt lat="31.1415533" lon="-7.1357617"><ele>1448.0</ele><time>2026-04-25T09:55:16.413Z</time></trkpt><trkpt lat="31.1415617" lon="-7.1359217"><ele>1448.0</ele><time>2026-04-25T09:55:17.414Z</time></trkpt><trkpt lat="31.141555" lon="-7.1360883"><ele>1448.0</ele><time>2026-04-25T09:55:18.413Z</time></trkpt><trkpt lat="31.1415367" lon="-7.136265"><ele>1448.0</ele><time>2026-04-25T09:55:19.413Z</time></trkpt><trkpt lat="31.1414967" lon="-7.1364417"><ele>1448.0</ele><time>2026-04-25T09:55:20.413Z</time></trkpt><trkpt lat="31.1414417" lon="-7.1366083"><ele>1448.0</ele><time>2026-04-25T09:55:21.413Z</time></trkpt><trkpt lat="31.141385" lon="-7.1367617"><ele>1448.0</ele><time>2026-04-25T09:55:22.413Z</time></trkpt><trkpt lat="31.141325" lon="-7.1369117"><ele>1448.0</ele><time>2026-04-25T09:55:23.413Z</time></trkpt><trkpt lat="31.141265" lon="-7.1370617"><ele>1448.0</ele><time>2026-04-25T09:55:24.413Z</time></trkpt><trkpt lat="31.141215" lon="-7.1372083"><ele>1448.0</ele><time>2026-04-25T09:55:25.413Z</time></trkpt><trkpt lat="31.141175" lon="-7.1373667"><ele>1448.0</ele><time>2026-04-25T09:55:26.413Z</time></trkpt><trkpt lat="31.14114" lon="-7.1375233"><ele>1448.0</ele><time>2026-04-25T09:55:27.413Z</time></trkpt><trkpt lat="31.1411133" lon="-7.1376833"><ele>1448.0</ele><time>2026-04-25T09:55:28.413Z</time></trkpt><trkpt lat="31.141105" lon="-7.1378367"><ele>1445.75</ele><time>2026-04-25T09:55:29.413Z</time></trkpt><trkpt lat="31.141115" lon="-7.1379967"><ele>1443.5</ele><time>2026-04-25T09:55:30.413Z</time></trkpt><trkpt lat="31.14115" lon="-7.138155"><ele>1441.25</ele><time>2026-04-25T09:55:31.413Z</time></trkpt><trkpt lat="31.1412017" lon="-7.1383083"><ele>1439.0</ele><time>2026-04-25T09:55:32.414Z</time></trkpt><trkpt lat="31.1412567" lon="-7.1384583"><ele>1439.0</ele><time>2026-04-25T09:55:33.413Z</time></trkpt><trkpt lat="31.1413133" lon="-7.1386017"><ele>1439.0</ele><time>2026-04-25T09:55:34.413Z</time></trkpt><trkpt lat="31.1413717" lon="-7.1387483"><ele>1439.0</ele><time>2026-04-25T09:55:35.413Z</time></trkpt><trkpt lat="31.14144" lon="-7.1388983"><ele>1439.0</ele><time>2026-04-25T09:55:36.413Z</time></trkpt><trkpt lat="31.1415117" lon="-7.1390483"><ele>1433.0</ele><time>2026-04-25T09:55:37.413Z</time></trkpt><trkpt lat="31.1415867" lon="-7.139195"><ele>1427.0</ele><time>2026-04-25T09:55:38.413Z</time></trkpt><trkpt lat="31.141675" lon="-7.1393367"><ele>1421.0</ele><time>2026-04-25T09:55:39.413Z</time></trkpt><trkpt lat="31.14177" lon="-7.1394717"><ele>1415.0</ele><time>2026-04-25T09:55:40.413Z</time></trkpt><trkpt lat="31.141875" lon="-7.1396033"><ele>1415.0</ele><time>2026-04-25T09:55:41.413Z</time></trkpt><trkpt lat="31.1419967" lon="-7.1397317"><ele>1415.0</ele><time>2026-04-25T09:55:42.413Z</time></trkpt><trkpt lat="31.1421217" lon="-7.1398533"><ele>1415.0</ele><time>2026-04-25T09:55:43.413Z</time></trkpt><trkpt lat="31.1422483" lon="-7.13996"><ele>1415.25</ele><time>2026-04-25T09:55:44.413Z</time></trkpt><trkpt lat="31.1423667" lon="-7.1400617"><ele>1415.5</ele><time>2026-04-25T09:55:45.413Z</time></trkpt><trkpt lat="31.1424767" lon="-7.1401667"><ele>1415.75</ele><time>2026-04-25T09:55:46.413Z</time></trkpt><trkpt lat="31.14259" lon="-7.14027"><ele>1416.0</ele><time>2026-04-25T09:55:47.413Z</time></trkpt><trkpt lat="31.14271" lon="-7.140355"><ele>1416.0</ele><time>2026-04-25T09:55:48.413Z</time></trkpt><trkpt lat="31.142835" lon="-7.1404383"><ele>1416.0</ele><time>2026-04-25T09:55:49.413Z</time></trkpt><trkpt lat="31.1429683" lon="-7.1405117"><ele>1416.0</ele><time>2026-04-25T09:55:50.413Z</time></trkpt><trkpt lat="31.1430967" lon="-7.1405967"><ele>1416.0</ele><time>2026-04-25T09:55:51.413Z</time></trkpt><trkpt lat="31.1432217" lon="-7.1406767"><ele>1417.25</ele><time>2026-04-25T09:55:52.414Z</time></trkpt><trkpt lat="31.1433467" lon="-7.1407583"><ele>1418.5</ele><time>2026-04-25T09:55:53.413Z</time></trkpt><trkpt lat="31.1434617" lon="-7.1408467"><ele>1419.75</ele><time>2026-04-25T09:55:54.413Z</time></trkpt><trkpt lat="31.1435733" lon="-7.1409417"><ele>1421.0</ele><time>2026-04-25T09:55:55.413Z</time></trkpt><trkpt lat="31.143685" lon="-7.1410233"><ele>1421.0</ele><time>2026-04-25T09:55:56.413Z</time></trkpt><trkpt lat="31.143805" lon="-7.1410883"><ele>1421.0</ele><time>2026-04-25T09:55:57.413Z</time></trkpt><trkpt lat="31.143925" lon="-7.1411417"><ele>1421.0</ele><time>2026-04-25T09:55:58.413Z</time></trkpt><trkpt lat="31.1440533" lon="-7.141175"><ele>1421.0</ele><time>2026-04-25T09:55:59.413Z</time></trkpt><trkpt lat="31.144195" lon="-7.141195"><ele>1419.0</ele><time>2026-04-25T09:56:00.413Z</time></trkpt><trkpt lat="31.14434" lon="-7.141215"><ele>1417.0</ele><time>2026-04-25T09:56:01.413Z</time></trkpt><trkpt lat="31.1444833" lon="-7.1412433"><ele>1415.0</ele><time>2026-04-25T09:56:02.413Z</time></trkpt><trkpt lat="31.144615" lon="-7.141285"><ele>1413.0</ele><time>2026-04-25T09:56:03.413Z</time></trkpt><trkpt lat="31.1447333" lon="-7.1413517"><ele>1413.0</ele><time>2026-04-25T09:56:04.413Z</time></trkpt><trkpt lat="31.144845" lon="-7.14143"><ele>1413.0</ele><time>2026-04-25T09:56:05.413Z</time></trkpt><trkpt lat="31.1449583" lon="-7.141495"><ele>1413.0</ele><time>2026-04-25T09:56:06.413Z</time></trkpt><trkpt lat="31.1450633" lon="-7.1415217"><ele>1413.0</ele><time>2026-04-25T09:56:07.413Z</time></trkpt><trkpt lat="31.1451667" lon="-7.14151"><ele>1412.0</ele><time>2026-04-25T09:56:08.413Z</time></trkpt><trkpt lat="31.1452733" lon="-7.14147"><ele>1411.0</ele><time>2026-04-25T09:56:09.413Z</time></trkpt><trkpt lat="31.14538" lon="-7.141405"><ele>1410.0</ele><time>2026-04-25T09:56:10.413Z</time></trkpt><trkpt lat="31.1454883" lon="-7.1413317"><ele>1409.0</ele><time>2026-04-25T09:56:11.413Z</time></trkpt><trkpt lat="31.1455983" lon="-7.1412583"><ele>1409.75</ele><time>2026-04-25T09:56:12.413Z</time></trkpt><trkpt lat="31.145715" lon="-7.1411917"><ele>1410.5</ele><time>2026-04-25T09:56:13.414Z</time></trkpt><trkpt lat="31.1458317" lon="-7.1411333"><ele>1411.25</ele><time>2026-04-25T09:56:14.413Z</time></trkpt><trkpt lat="31.1459367" lon="-7.1410783"><ele>1412.0</ele><time>2026-04-25T09:56:15.414Z</time></trkpt><trkpt lat="31.14603" lon="-7.1410283"><ele>1412.0</ele><time>2026-04-25T09:56:16.413Z</time></trkpt><trkpt lat="31.1461267" lon="-7.140985"><ele>1412.0</ele><time>2026-04-25T09:56:17.413Z</time></trkpt><trkpt lat="31.1462217" lon="-7.1409417"><ele>1412.0</ele><time>2026-04-25T09:56:18.413Z</time></trkpt><trkpt lat="31.146315" lon="-7.140895"><ele>1412.0</ele><time>2026-04-25T09:56:19.412Z</time></trkpt><trkpt lat="31.1464083" lon="-7.1408417"><ele>1412.0</ele><time>2026-04-25T09:56:20.412Z</time></trkpt><trkpt lat="31.14649" lon="-7.1407833"><ele>1416.3999999999999</ele><time>2026-04-25T09:56:21.412Z</time></trkpt><trkpt lat="31.1465667" lon="-7.1407033"><ele>1420.8</ele><time>2026-04-25T09:56:22.412Z</time></trkpt><trkpt lat="31.1466367" lon="-7.1406167"><ele>1425.2</ele><time>2026-04-25T09:56:23.412Z</time></trkpt><trkpt lat="31.146715" lon="-7.1405317"><ele>1429.6</ele><time>2026-04-25T09:56:24.412Z</time></trkpt><trkpt lat="31.1467917" lon="-7.1404567"><ele>1434.0</ele><time>2026-04-25T09:56:25.412Z</time></trkpt><trkpt lat="31.1468617" lon="-7.1403883"><ele>1434.0</ele><time>2026-04-25T09:56:26.413Z</time></trkpt><trkpt lat="31.1469417" lon="-7.1403267"><ele>1434.0</ele><time>2026-04-25T09:56:27.412Z</time></trkpt><trkpt lat="31.1470217" lon="-7.14027"><ele>1434.0</ele><time>2026-04-25T09:56:28.412Z</time></trkpt><trkpt lat="31.1470917" lon="-7.1402333"><ele>1434.0</ele><time>2026-04-25T09:56:29.412Z</time></trkpt><trkpt lat="31.1471733" lon="-7.1402133"><ele>1434.0</ele><time>2026-04-25T09:56:30.412Z</time></trkpt><trkpt lat="31.14725" lon="-7.1401933"><ele>1434.0</ele><time>2026-04-25T09:56:31.412Z</time></trkpt><trkpt lat="31.1473183" lon="-7.140155"><ele>1432.8000000000002</ele><time>2026-04-25T09:56:32.412Z</time></trkpt><trkpt lat="31.147385" lon="-7.1400867"><ele>1431.6000000000001</ele><time>2026-04-25T09:56:33.412Z</time></trkpt><trkpt lat="31.1474467" lon="-7.1400033"><ele>1430.4</ele><time>2026-04-25T09:56:34.413Z</time></trkpt><trkpt lat="31.1474983" lon="-7.1399117"><ele>1429.2</ele><time>2026-04-25T09:56:35.412Z</time></trkpt><trkpt lat="31.1475567" lon="-7.1398067"><ele>1428.0</ele><time>2026-04-25T09:56:36.412Z</time></trkpt><trkpt lat="31.1476117" lon="-7.1397067"><ele>1430.8000000000002</ele><time>2026-04-25T09:56:37.412Z</time></trkpt><trkpt lat="31.147655" lon="-7.1396017"><ele>1433.6</ele><time>2026-04-25T09:56:38.412Z</time></trkpt><trkpt lat="31.1476883" lon="-7.1395017"><ele>1436.4</ele><time>2026-04-25T09:56:39.413Z</time></trkpt><trkpt lat="31.1477083" lon="-7.1393833"><ele>1439.1999999999998</ele><time>2026-04-25T09:56:40.412Z</time></trkpt><trkpt lat="31.1477267" lon="-7.13926"><ele>1442.0</ele><time>2026-04-25T09:56:41.412Z</time></trkpt><trkpt lat="31.1477433" lon="-7.13913"><ele>1444.0</ele><time>2026-04-25T09:56:42.412Z</time></trkpt><trkpt lat="31.1477467" lon="-7.1389917"><ele>1446.0</ele><time>2026-04-25T09:56:43.412Z</time></trkpt><trkpt lat="31.1477433" lon="-7.1388567"><ele>1448.0</ele><time>2026-04-25T09:56:44.412Z</time></trkpt><trkpt lat="31.1477383" lon="-7.13873"><ele>1450.0</ele><time>2026-04-25T09:56:45.412Z</time></trkpt><trkpt lat="31.1477317" lon="-7.1386017"><ele>1450.0</ele><time>2026-04-25T09:56:46.412Z</time></trkpt><trkpt lat="31.1477167" lon="-7.1384717"><ele>1450.0</ele><time>2026-04-25T09:56:47.412Z</time></trkpt><trkpt lat="31.1477067" lon="-7.1383417"><ele>1450.0</ele><time>2026-04-25T09:56:48.412Z</time></trkpt><trkpt lat="31.1476933" lon="-7.1382133"><ele>1450.0</ele><time>2026-04-25T09:56:49.412Z</time></trkpt><trkpt lat="31.1476867" lon="-7.13809"><ele>1450.0</ele><time>2026-04-25T09:56:50.412Z</time></trkpt><trkpt lat="31.1476917" lon="-7.1379617"><ele>1452.4</ele><time>2026-04-25T09:56:51.412Z</time></trkpt><trkpt lat="31.1477033" lon="-7.1378367"><ele>1454.8</ele><time>2026-04-25T09:56:52.412Z</time></trkpt><trkpt lat="31.1477183" lon="-7.1377083"><ele>1457.1999999999998</ele><time>2026-04-25T09:56:53.412Z</time></trkpt><trkpt lat="31.1477333" lon="-7.1375833"><ele>1459.6</ele><time>2026-04-25T09:56:54.412Z</time></trkpt><trkpt lat="31.147755" lon="-7.1374633"><ele>1462.0</ele><time>2026-04-25T09:56:55.412Z</time></trkpt><trkpt lat="31.14779" lon="-7.1373367"><ele>1465.3999999999999</ele><time>2026-04-25T09:56:56.412Z</time></trkpt><trkpt lat="31.14782" lon="-7.137215"><ele>1468.8</ele><time>2026-04-25T09:56:57.412Z</time></trkpt><trkpt lat="31.1478583" lon="-7.1371017"><ele>1472.2</ele><time>2026-04-25T09:56:58.412Z</time></trkpt><trkpt lat="31.1478883" lon="-7.13698"><ele>1475.6</ele><time>2026-04-25T09:56:59.412Z</time></trkpt><trkpt lat="31.1479167" lon="-7.136855"><ele>1479.0</ele><time>2026-04-25T09:57:00.412Z</time></trkpt><trkpt lat="31.14795" lon="-7.1367333"><ele>1479.0</ele><time>2026-04-25T09:57:01.412Z</time></trkpt><trkpt lat="31.147995" lon="-7.1366117"><ele>1479.0</ele><time>2026-04-25T09:57:02.412Z</time></trkpt><trkpt lat="31.1480483" lon="-7.1364967"><ele>1479.0</ele><time>2026-04-25T09:57:03.412Z</time></trkpt><trkpt lat="31.148105" lon="-7.136385"><ele>1479.0</ele><time>2026-04-25T09:57:04.412Z</time></trkpt><trkpt lat="31.1481583" lon="-7.136285"><ele>1479.0</ele><time>2026-04-25T09:57:05.412Z</time></trkpt><trkpt lat="31.148185" lon="-7.1361933"><ele>1472.6</ele><time>2026-04-25T09:57:06.412Z</time></trkpt><trkpt lat="31.148235" lon="-7.1360867"><ele>1466.2</ele><time>2026-04-25T09:57:07.412Z</time></trkpt><trkpt lat="31.1482883" lon="-7.1359817"><ele>1459.8</ele><time>2026-04-25T09:57:08.412Z</time></trkpt><trkpt lat="31.1483417" lon="-7.135875"><ele>1453.3999999999999</ele><time>2026-04-25T09:57:09.412Z</time></trkpt><trkpt lat="31.1483733" lon="-7.1357667"><ele>1447.0</ele><time>2026-04-25T09:57:10.412Z</time></trkpt><trkpt lat="31.148405" lon="-7.1356517"><ele>1447.0</ele><time>2026-04-25T09:57:11.412Z</time></trkpt><trkpt lat="31.1484317" lon="-7.1355367"><ele>1447.0</ele><time>2026-04-25T09:57:12.412Z</time></trkpt><trkpt lat="31.148465" lon="-7.1354183"><ele>1447.0</ele><time>2026-04-25T09:57:13.412Z</time></trkpt><trkpt lat="31.1485017" lon="-7.135305"><ele>1447.0</ele><time>2026-04-25T09:57:14.412Z</time></trkpt><trkpt lat="31.1485367" lon="-7.1351867"><ele>1447.0</ele><time>2026-04-25T09:57:15.413Z</time></trkpt><trkpt lat="31.1485683" lon="-7.13507"><ele>1447.0</ele><time>2026-04-25T09:57:16.412Z</time></trkpt><trkpt lat="31.1485933" lon="-7.13495"><ele>1447.0</ele><time>2026-04-25T09:57:17.412Z</time></trkpt><trkpt lat="31.1486117" lon="-7.134825"><ele>1447.0</ele><time>2026-04-25T09:57:18.412Z</time></trkpt><trkpt lat="31.1486133" lon="-7.134695"><ele>1447.0</ele><time>2026-04-25T09:57:19.413Z</time></trkpt><trkpt lat="31.148605" lon="-7.1345783"><ele>1447.0</ele><time>2026-04-25T09:57:20.412Z</time></trkpt><trkpt lat="31.1485767" lon="-7.1344717"><ele>1447.6</ele><time>2026-04-25T09:57:21.412Z</time></trkpt><trkpt lat="31.148525" lon="-7.13436"><ele>1448.1999999999998</ele><time>2026-04-25T09:57:22.412Z</time></trkpt><trkpt lat="31.1484733" lon="-7.13425"><ele>1448.8</ele><time>2026-04-25T09:57:23.412Z</time></trkpt><trkpt lat="31.1484233" lon="-7.13414"><ele>1449.4</ele><time>2026-04-25T09:57:24.412Z</time></trkpt><trkpt lat="31.1483783" lon="-7.13402"><ele>1450.0</ele><time>2026-04-25T09:57:25.412Z</time></trkpt><trkpt lat="31.1483367" lon="-7.1339033"><ele>1450.0</ele><time>2026-04-25T09:57:26.412Z</time></trkpt><trkpt lat="31.148295" lon="-7.13378"><ele>1450.0</ele><time>2026-04-25T09:57:27.413Z</time></trkpt><trkpt lat="31.1482567" lon="-7.1336517"><ele>1450.0</ele><time>2026-04-25T09:57:28.412Z</time></trkpt><trkpt lat="31.1482233" lon="-7.1335133"><ele>1450.0</ele><time>2026-04-25T09:57:29.412Z</time></trkpt><trkpt lat="31.1482017" lon="-7.1333617"><ele>1459.0</ele><time>2026-04-25T09:57:30.412Z</time></trkpt><trkpt lat="31.1481733" lon="-7.1332067"><ele>1468.0</ele><time>2026-04-25T09:57:31.412Z</time></trkpt><trkpt lat="31.1481433" lon="-7.1330567"><ele>1477.0</ele><time>2026-04-25T09:57:32.412Z</time></trkpt><trkpt lat="31.1481183" lon="-7.132915"><ele>1486.0</ele><time>2026-04-25T09:57:33.412Z</time></trkpt><trkpt lat="31.1480917" lon="-7.1327767"><ele>1486.0</ele><time>2026-04-25T09:57:34.413Z</time></trkpt><trkpt lat="31.1480717" lon="-7.1326433"><ele>1486.0</ele><time>2026-04-25T09:57:35.412Z</time></trkpt><trkpt lat="31.1480717" lon="-7.1325067"><ele>1486.0</ele><time>2026-04-25T09:57:36.412Z</time></trkpt><trkpt lat="31.1481083" lon="-7.1323817"><ele>1486.0</ele><time>2026-04-25T09:57:37.412Z</time></trkpt><trkpt lat="31.1481667" lon="-7.1322667"><ele>1477.6</ele><time>2026-04-25T09:57:38.412Z</time></trkpt><trkpt lat="31.1482133" lon="-7.132145"><ele>1469.1999999999998</ele><time>2026-04-25T09:57:39.412Z</time></trkpt><trkpt lat="31.1482417" lon="-7.1320217"><ele>1460.8000000000002</ele><time>2026-04-25T09:57:40.412Z</time></trkpt><trkpt lat="31.1482433" lon="-7.1318917"><ele>1452.4</ele><time>2026-04-25T09:57:41.412Z</time></trkpt><trkpt lat="31.1482317" lon="-7.1317633"><ele>1444.0</ele><time>2026-04-25T09:57:42.412Z</time></trkpt><trkpt lat="31.14821" lon="-7.1316433"><ele>1444.6</ele><time>2026-04-25T09:57:43.413Z</time></trkpt><trkpt lat="31.1482083" lon="-7.1315183"><ele>1445.2</ele><time>2026-04-25T09:57:44.412Z</time></trkpt><trkpt lat="31.1482317" lon="-7.1314017"><ele>1445.8</ele><time>2026-04-25T09:57:45.412Z</time></trkpt><trkpt lat="31.148265" lon="-7.1312833"><ele>1446.3999999999999</ele><time>2026-04-25T09:57:46.412Z</time></trkpt><trkpt lat="31.1482933" lon="-7.1311683"><ele>1447.0</ele><time>2026-04-25T09:57:47.412Z</time></trkpt><trkpt lat="31.148325" lon="-7.1310633"><ele>1447.0</ele><time>2026-04-25T09:57:48.412Z</time></trkpt><trkpt lat="31.1483683" lon="-7.1309683"><ele>1447.0</ele><time>2026-04-25T09:57:49.412Z</time></trkpt><trkpt lat="31.14843" lon="-7.13091"><ele>1447.0</ele><time>2026-04-25T09:57:50.413Z</time></trkpt><trkpt lat="31.1485117" lon="-7.1308967"><ele>1447.0</ele><time>2026-04-25T09:57:51.412Z</time></trkpt><trkpt lat="31.1486" lon="-7.1309233"><ele>1447.0</ele><time>2026-04-25T09:57:52.412Z</time></trkpt><trkpt lat="31.14868" lon="-7.1310033"><ele>1447.0</ele><time>2026-04-25T09:57:53.413Z</time></trkpt><trkpt lat="31.1487433" lon="-7.1311183"><ele>1447.0</ele><time>2026-04-25T09:57:54.412Z</time></trkpt><trkpt lat="31.1487717" lon="-7.131255"><ele>1447.0</ele><time>2026-04-25T09:57:55.412Z</time></trkpt><trkpt lat="31.148775" lon="-7.1313883"><ele>1447.0</ele><time>2026-04-25T09:57:56.412Z</time></trkpt><trkpt lat="31.148785" lon="-7.1315233"><ele>1446.3999999999999</ele><time>2026-04-25T09:57:57.412Z</time></trkpt><trkpt lat="31.1488067" lon="-7.1316567"><ele>1445.8</ele><time>2026-04-25T09:57:58.412Z</time></trkpt><trkpt lat="31.14883" lon="-7.1317867"><ele>1445.2</ele><time>2026-04-25T09:57:59.412Z</time></trkpt><trkpt lat="31.148855" lon="-7.1319117"><ele>1444.6</ele><time>2026-04-25T09:58:00.412Z</time></trkpt><trkpt lat="31.1488833" lon="-7.13202"><ele>1444.0</ele><time>2026-04-25T09:58:01.412Z</time></trkpt><trkpt lat="31.148905" lon="-7.1321367"><ele>1444.0</ele><time>2026-04-25T09:58:02.412Z</time></trkpt><trkpt lat="31.14893" lon="-7.1322467"><ele>1444.0</ele><time>2026-04-25T09:58:03.412Z</time></trkpt><trkpt lat="31.14897" lon="-7.132355"><ele>1444.0</ele><time>2026-04-25T09:58:04.412Z</time></trkpt><trkpt lat="31.14902" lon="-7.132455"><ele>1444.0</ele><time>2026-04-25T09:58:05.412Z</time></trkpt><trkpt lat="31.1490783" lon="-7.1325333"><ele>1444.0</ele><time>2026-04-25T09:58:06.412Z</time></trkpt><trkpt lat="31.1491433" lon="-7.1326067"><ele>1444.8333333333333</ele><time>2026-04-25T09:58:07.412Z</time></trkpt><trkpt lat="31.1492117" lon="-7.13266"><ele>1445.6666666666665</ele><time>2026-04-25T09:58:08.412Z</time></trkpt><trkpt lat="31.1492833" lon="-7.13272"><ele>1446.5</ele><time>2026-04-25T09:58:09.412Z</time></trkpt><trkpt lat="31.14935" lon="-7.1328"><ele>1447.3333333333333</ele><time>2026-04-25T09:58:10.412Z</time></trkpt><trkpt lat="31.149395" lon="-7.13288"><ele>1448.1666666666667</ele><time>2026-04-25T09:58:11.412Z</time></trkpt><trkpt lat="31.1494167" lon="-7.1329617"><ele>1449.0</ele><time>2026-04-25T09:58:12.412Z</time></trkpt><trkpt lat="31.1494067" lon="-7.1330383"><ele>1449.0</ele><time>2026-04-25T09:58:13.412Z</time></trkpt><trkpt lat="31.1493917" lon="-7.1331233"><ele>1449.0</ele><time>2026-04-25T09:58:14.412Z</time></trkpt><trkpt lat="31.1493783" lon="-7.1332017"><ele>1449.0</ele><time>2026-04-25T09:58:15.412Z</time></trkpt><trkpt lat="31.1493683" lon="-7.1332917"><ele>1449.0</ele><time>2026-04-25T09:58:16.412Z</time></trkpt><trkpt lat="31.149375" lon="-7.1333833"><ele>1449.0</ele><time>2026-04-25T09:58:17.412Z</time></trkpt><trkpt lat="31.1494" lon="-7.13349"><ele>1449.0</ele><time>2026-04-25T09:58:18.412Z</time></trkpt><trkpt lat="31.1494333" lon="-7.1335933"><ele>1447.2</ele><time>2026-04-25T09:58:19.412Z</time></trkpt><trkpt lat="31.1494867" lon="-7.1336933"><ele>1445.4</ele><time>2026-04-25T09:58:20.412Z</time></trkpt><trkpt lat="31.1495617" lon="-7.1337767"><ele>1443.6</ele><time>2026-04-25T09:58:21.412Z</time></trkpt><trkpt lat="31.14963" lon="-7.1338467"><ele>1441.8</ele><time>2026-04-25T09:58:22.413Z</time></trkpt><trkpt lat="31.1496867" lon="-7.1339283"><ele>1440.0</ele><time>2026-04-25T09:58:23.412Z</time></trkpt><trkpt lat="31.14974" lon="-7.1340167"><ele>1439.0</ele><time>2026-04-25T09:58:24.413Z</time></trkpt><trkpt lat="31.1497833" lon="-7.1341067"><ele>1438.0</ele><time>2026-04-25T09:58:25.412Z</time></trkpt><trkpt lat="31.1498283" lon="-7.134205"><ele>1437.0</ele><time>2026-04-25T09:58:26.412Z</time></trkpt><trkpt lat="31.1498667" lon="-7.134305"><ele>1436.0</ele><time>2026-04-25T09:58:27.412Z</time></trkpt><trkpt lat="31.1498983" lon="-7.13441"><ele>1435.0</ele><time>2026-04-25T09:58:28.412Z</time></trkpt><trkpt lat="31.149925" lon="-7.1345083"><ele>1435.7142857142858</ele><time>2026-04-25T09:58:29.412Z</time></trkpt><trkpt lat="31.1499567" lon="-7.13459"><ele>1436.4285714285716</ele><time>2026-04-25T09:58:30.412Z</time></trkpt><trkpt lat="31.1499867" lon="-7.1346633"><ele>1437.142857142857</ele><time>2026-04-25T09:58:31.412Z</time></trkpt><trkpt lat="31.1500217" lon="-7.13473"><ele>1437.857142857143</ele><time>2026-04-25T09:58:32.412Z</time></trkpt><trkpt lat="31.1500683" lon="-7.1347933"><ele>1438.5714285714287</ele><time>2026-04-25T09:58:33.412Z</time></trkpt><trkpt lat="31.150125" lon="-7.1348483"><ele>1439.2857142857142</ele><time>2026-04-25T09:58:34.412Z</time></trkpt><trkpt lat="31.1501967" lon="-7.1348817"><ele>1440.0</ele><time>2026-04-25T09:58:35.412Z</time></trkpt><trkpt lat="31.150285" lon="-7.1349033"><ele>1440.0</ele><time>2026-04-25T09:58:36.412Z</time></trkpt><trkpt lat="31.150375" lon="-7.1349283"><ele>1440.0</ele><time>2026-04-25T09:58:37.412Z</time></trkpt><trkpt lat="31.1504583" lon="-7.1349617"><ele>1440.0</ele><time>2026-04-25T09:58:38.412Z</time></trkpt><trkpt lat="31.1505383" lon="-7.1349917"><ele>1440.0</ele><time>2026-04-25T09:58:39.412Z</time></trkpt><trkpt lat="31.1506167" lon="-7.13502"><ele>1440.0</ele><time>2026-04-25T09:58:40.412Z</time></trkpt><trkpt lat="31.1506817" lon="-7.1350567"><ele>1440.0</ele><time>2026-04-25T09:58:41.412Z</time></trkpt><trkpt lat="31.150745" lon="-7.1350933"><ele>1441.6666666666667</ele><time>2026-04-25T09:58:42.412Z</time></trkpt><trkpt lat="31.1508083" lon="-7.135125"><ele>1443.3333333333333</ele><time>2026-04-25T09:58:43.412Z</time></trkpt><trkpt lat="31.150875" lon="-7.135135"><ele>1445.0</ele><time>2026-04-25T09:58:44.412Z</time></trkpt><trkpt lat="31.1509467" lon="-7.135125"><ele>1446.6666666666665</ele><time>2026-04-25T09:58:45.412Z</time></trkpt><trkpt lat="31.15101" lon="-7.1350883"><ele>1448.3333333333333</ele><time>2026-04-25T09:58:46.412Z</time></trkpt><trkpt lat="31.15108" lon="-7.135015"><ele>1450.0</ele><time>2026-04-25T09:58:47.412Z</time></trkpt><trkpt lat="31.151155" lon="-7.13493"><ele>1458.25</ele><time>2026-04-25T09:58:48.412Z</time></trkpt><trkpt lat="31.1512383" lon="-7.1348433"><ele>1466.5</ele><time>2026-04-25T09:58:49.412Z</time></trkpt><trkpt lat="31.1513283" lon="-7.1347533"><ele>1474.75</ele><time>2026-04-25T09:58:50.412Z</time></trkpt><trkpt lat="31.1514283" lon="-7.13466"><ele>1483.0</ele><time>2026-04-25T09:58:51.412Z</time></trkpt><trkpt lat="31.1515383" lon="-7.1345617"><ele>1479.6666666666665</ele><time>2026-04-25T09:58:52.412Z</time></trkpt><trkpt lat="31.1516633" lon="-7.1344583"><ele>1476.3333333333333</ele><time>2026-04-25T09:58:53.412Z</time></trkpt><trkpt lat="31.1517983" lon="-7.134355"><ele>1473.0</ele><time>2026-04-25T09:58:54.412Z</time></trkpt><trkpt lat="31.1519467" lon="-7.1342433"><ele>1473.0</ele><time>2026-04-25T09:58:55.412Z</time></trkpt><trkpt lat="31.1520883" lon="-7.1341133"><ele>1473.0</ele><time>2026-04-25T09:58:56.412Z</time></trkpt><trkpt lat="31.152235" lon="-7.1339833"><ele>1473.0</ele><time>2026-04-25T09:58:57.412Z</time></trkpt><trkpt lat="31.1523717" lon="-7.1338583"><ele>1472.0</ele><time>2026-04-25T09:58:58.412Z</time></trkpt><trkpt lat="31.1525133" lon="-7.133745"><ele>1471.0</ele><time>2026-04-25T09:58:59.412Z</time></trkpt><trkpt lat="31.1526533" lon="-7.13364"><ele>1470.0</ele><time>2026-04-25T09:59:00.412Z</time></trkpt><trkpt lat="31.152785" lon="-7.1335367"><ele>1470.0</ele><time>2026-04-25T09:59:01.412Z</time></trkpt><trkpt lat="31.1529217" lon="-7.133445"><ele>1470.0</ele><time>2026-04-25T09:59:02.412Z</time></trkpt><trkpt lat="31.153055" lon="-7.1333567"><ele>1470.0</ele><time>2026-04-25T09:59:03.412Z</time></trkpt><trkpt lat="31.1531817" lon="-7.1332783"><ele>1473.75</ele><time>2026-04-25T09:59:04.412Z</time></trkpt><trkpt lat="31.1532983" lon="-7.1332017"><ele>1477.5</ele><time>2026-04-25T09:59:05.412Z</time></trkpt><trkpt lat="31.1534083" lon="-7.133125"><ele>1481.25</ele><time>2026-04-25T09:59:06.412Z</time></trkpt><trkpt lat="31.1535217" lon="-7.1330583"><ele>1485.0</ele><time>2026-04-25T09:59:07.412Z</time></trkpt><trkpt lat="31.1536317" lon="-7.132995"><ele>1485.0</ele><time>2026-04-25T09:59:08.412Z</time></trkpt><trkpt lat="31.15374" lon="-7.132935"><ele>1485.0</ele><time>2026-04-25T09:59:09.412Z</time></trkpt><trkpt lat="31.1538467" lon="-7.13287"><ele>1485.0</ele><time>2026-04-25T09:59:10.412Z</time></trkpt><trkpt lat="31.1539467" lon="-7.1328017"><ele>1485.0</ele><time>2026-04-25T09:59:11.412Z</time></trkpt><trkpt lat="31.1540433" lon="-7.1327333"><ele>1477.25</ele><time>2026-04-25T09:59:12.413Z</time></trkpt><trkpt lat="31.15415" lon="-7.1326617"><ele>1469.5</ele><time>2026-04-25T09:59:13.412Z</time></trkpt><trkpt lat="31.1542567" lon="-7.1325883"><ele>1461.75</ele><time>2026-04-25T09:59:14.412Z</time></trkpt><trkpt lat="31.1543683" lon="-7.1325083"><ele>1454.0</ele><time>2026-04-25T09:59:15.412Z</time></trkpt><trkpt lat="31.1544833" lon="-7.1324267"><ele>1458.25</ele><time>2026-04-25T09:59:16.412Z</time></trkpt><trkpt lat="31.1545933" lon="-7.1323467"><ele>1462.5</ele><time>2026-04-25T09:59:17.412Z</time></trkpt><trkpt lat="31.1547083" lon="-7.1322883"><ele>1466.75</ele><time>2026-04-25T09:59:18.412Z</time></trkpt><trkpt lat="31.154825" lon="-7.1322633"><ele>1471.0</ele><time>2026-04-25T09:59:19.412Z</time></trkpt><trkpt lat="31.15495" lon="-7.132275"><ele>1471.0</ele><time>2026-04-25T09:59:20.412Z</time></trkpt><trkpt lat="31.1550617" lon="-7.1323183"><ele>1471.0</ele><time>2026-04-25T09:59:21.412Z</time></trkpt><trkpt lat="31.1551667" lon="-7.13236"><ele>1471.0</ele><time>2026-04-25T09:59:22.412Z</time></trkpt><trkpt lat="31.1552733" lon="-7.1323733"><ele>1471.0</ele><time>2026-04-25T09:59:23.412Z</time></trkpt><trkpt lat="31.1553867" lon="-7.1323617"><ele>1471.0</ele><time>2026-04-25T09:59:24.412Z</time></trkpt><trkpt lat="31.15552" lon="-7.1323183"><ele>1471.0</ele><time>2026-04-25T09:59:25.412Z</time></trkpt><trkpt lat="31.1556667" lon="-7.13225"><ele>1471.0</ele><time>2026-04-25T09:59:26.412Z</time></trkpt><trkpt lat="31.1558117" lon="-7.1321483"><ele>1471.3333333333333</ele><time>2026-04-25T09:59:27.412Z</time></trkpt><trkpt lat="31.1559467" lon="-7.1320383"><ele>1471.6666666666667</ele><time>2026-04-25T09:59:28.412Z</time></trkpt><trkpt lat="31.156065" lon="-7.13192"><ele>1472.0</ele><time>2026-04-25T09:59:29.412Z</time></trkpt><trkpt lat="31.1561867" lon="-7.1318117"><ele>1472.0</ele><time>2026-04-25T09:59:30.412Z</time></trkpt><trkpt lat="31.1563083" lon="-7.1317233"><ele>1472.0</ele><time>2026-04-25T09:59:31.412Z</time></trkpt><trkpt lat="31.1564333" lon="-7.13164"><ele>1472.0</ele><time>2026-04-25T09:59:32.412Z</time></trkpt><trkpt lat="31.156565" lon="-7.1315583"><ele>1472.0</ele><time>2026-04-25T09:59:33.412Z</time></trkpt><trkpt lat="31.156695" lon="-7.1314683"><ele>1478.0</ele><time>2026-04-25T09:59:34.412Z</time></trkpt><trkpt lat="31.15683" lon="-7.1313767"><ele>1484.0</ele><time>2026-04-25T09:59:35.412Z</time></trkpt><trkpt lat="31.1569617" lon="-7.1312833"><ele>1490.0</ele><time>2026-04-25T09:59:36.413Z</time></trkpt><trkpt lat="31.15709" lon="-7.1312033"><ele>1490.0</ele><time>2026-04-25T09:59:37.412Z</time></trkpt><trkpt lat="31.1572233" lon="-7.1311417"><ele>1490.0</ele><time>2026-04-25T09:59:38.412Z</time></trkpt><trkpt lat="31.1573433" lon="-7.1310883"><ele>1490.0</ele><time>2026-04-25T09:59:39.412Z</time></trkpt><trkpt lat="31.15745" lon="-7.13103"><ele>1490.0</ele><time>2026-04-25T09:59:40.412Z</time></trkpt><trkpt lat="31.1575533" lon="-7.1309683"><ele>1489.75</ele><time>2026-04-25T09:59:41.412Z</time></trkpt><trkpt lat="31.1576467" lon="-7.1308967"><ele>1489.5</ele><time>2026-04-25T09:59:42.412Z</time></trkpt><trkpt lat="31.1577417" lon="-7.13082"><ele>1489.25</ele><time>2026-04-25T09:59:43.412Z</time></trkpt><trkpt lat="31.157835" lon="-7.130735"><ele>1489.0</ele><time>2026-04-25T09:59:44.413Z</time></trkpt><trkpt lat="31.1579083" lon="-7.130635"><ele>1489.0</ele><time>2026-04-25T09:59:45.412Z</time></trkpt><trkpt lat="31.157975" lon="-7.13052"><ele>1489.0</ele><time>2026-04-25T09:59:46.412Z</time></trkpt><trkpt lat="31.158035" lon="-7.1304033"><ele>1489.0</ele><time>2026-04-25T09:59:47.412Z</time></trkpt><trkpt lat="31.1580867" lon="-7.13028"><ele>1489.0</ele><time>2026-04-25T09:59:48.412Z</time></trkpt><trkpt lat="31.1581383" lon="-7.1301483"><ele>1489.0</ele><time>2026-04-25T09:59:49.412Z</time></trkpt><trkpt lat="31.1581833" lon="-7.1300167"><ele>1489.0</ele><time>2026-04-25T09:59:50.412Z</time></trkpt><trkpt lat="31.158235" lon="-7.1298867"><ele>1489.0</ele><time>2026-04-25T09:59:51.413Z</time></trkpt><trkpt lat="31.1582833" lon="-7.129765"><ele>1489.0</ele><time>2026-04-25T09:59:52.412Z</time></trkpt><trkpt lat="31.15833" lon="-7.129645"><ele>1483.5</ele><time>2026-04-25T09:59:53.412Z</time></trkpt><trkpt lat="31.1583767" lon="-7.1295183"><ele>1478.0</ele><time>2026-04-25T09:59:54.412Z</time></trkpt><trkpt lat="31.1584217" lon="-7.1294"><ele>1472.5</ele><time>2026-04-25T09:59:55.412Z</time></trkpt><trkpt lat="31.1584633" lon="-7.1292733"><ele>1467.0</ele><time>2026-04-25T09:59:56.412Z</time></trkpt><trkpt lat="31.1585033" lon="-7.1291483"><ele>1471.8</ele><time>2026-04-25T09:59:57.412Z</time></trkpt><trkpt lat="31.15855" lon="-7.1290283"><ele>1476.6</ele><time>2026-04-25T09:59:58.412Z</time></trkpt><trkpt lat="31.1585967" lon="-7.12891"><ele>1481.3999999999999</ele><time>2026-04-25T09:59:59.412Z</time></trkpt><trkpt lat="31.158645" lon="-7.1287967"><ele>1486.1999999999998</ele><time>2026-04-25T10:00:00.412Z</time></trkpt><trkpt lat="31.1587017" lon="-7.128695"><ele>1491.0</ele><time>2026-04-25T10:00:01.412Z</time></trkpt><trkpt lat="31.1587667" lon="-7.128605"><ele>1491.0</ele><time>2026-04-25T10:00:02.412Z</time></trkpt><trkpt lat="31.158835" lon="-7.1285217"><ele>1491.0</ele><time>2026-04-25T10:00:03.412Z</time></trkpt><trkpt lat="31.1589083" lon="-7.12844"><ele>1491.0</ele><time>2026-04-25T10:00:04.412Z</time></trkpt><trkpt lat="31.1589883" lon="-7.12836"><ele>1491.0</ele><time>2026-04-25T10:00:05.413Z</time></trkpt><trkpt lat="31.159075" lon="-7.1282933"><ele>1491.0</ele><time>2026-04-25T10:00:06.412Z</time></trkpt><trkpt lat="31.1591767" lon="-7.128225"><ele>1488.75</ele><time>2026-04-25T10:00:07.412Z</time></trkpt><trkpt lat="31.15928" lon="-7.1281633"><ele>1486.5</ele><time>2026-04-25T10:00:08.412Z</time></trkpt><trkpt lat="31.1593833" lon="-7.1281083"><ele>1484.25</ele><time>2026-04-25T10:00:09.413Z</time></trkpt><trkpt lat="31.1594867" lon="-7.1280483"><ele>1482.0</ele><time>2026-04-25T10:00:10.412Z</time></trkpt><trkpt lat="31.1595917" lon="-7.127975"><ele>1482.0</ele><time>2026-04-25T10:00:11.412Z</time></trkpt><trkpt lat="31.1596967" lon="-7.1278983"><ele>1482.0</ele><time>2026-04-25T10:00:12.412Z</time></trkpt><trkpt lat="31.1598133" lon="-7.1278483"><ele>1482.0</ele><time>2026-04-25T10:00:13.412Z</time></trkpt><trkpt lat="31.1599317" lon="-7.12782"><ele>1482.0</ele><time>2026-04-25T10:00:14.412Z</time></trkpt><trkpt lat="31.1600467" lon="-7.1277967"><ele>1478.5</ele><time>2026-04-25T10:00:15.412Z</time></trkpt><trkpt lat="31.1601667" lon="-7.12777"><ele>1475.0</ele><time>2026-04-25T10:00:16.412Z</time></trkpt><trkpt lat="31.16028" lon="-7.127725"><ele>1471.5</ele><time>2026-04-25T10:00:17.412Z</time></trkpt><trkpt lat="31.1603933" lon="-7.1276567"><ele>1468.0</ele><time>2026-04-25T10:00:18.412Z</time></trkpt><trkpt lat="31.160515" lon="-7.12761"><ele>1468.0</ele><time>2026-04-25T10:00:19.412Z</time></trkpt><trkpt lat="31.16064" lon="-7.127585"><ele>1468.0</ele><time>2026-04-25T10:00:20.412Z</time></trkpt><trkpt lat="31.160765" lon="-7.12757"><ele>1468.0</ele><time>2026-04-25T10:00:21.412Z</time></trkpt><trkpt lat="31.160895" lon="-7.1275533"><ele>1468.0</ele><time>2026-04-25T10:00:22.412Z</time></trkpt><trkpt lat="31.1610267" lon="-7.1275433"><ele>1468.25</ele><time>2026-04-25T10:00:23.412Z</time></trkpt><trkpt lat="31.1611617" lon="-7.1275367"><ele>1468.5</ele><time>2026-04-25T10:00:24.412Z</time></trkpt><trkpt lat="31.161295" lon="-7.127535"><ele>1468.75</ele><time>2026-04-25T10:00:25.412Z</time></trkpt><trkpt lat="31.16143" lon="-7.1275267"><ele>1469.0</ele><time>2026-04-25T10:00:26.412Z</time></trkpt><trkpt lat="31.1615667" lon="-7.12752"><ele>1470.75</ele><time>2026-04-25T10:00:27.412Z</time></trkpt><trkpt lat="31.1617" lon="-7.12752"><ele>1472.5</ele><time>2026-04-25T10:00:28.412Z</time></trkpt><trkpt lat="31.16182" lon="-7.1275217"><ele>1474.25</ele><time>2026-04-25T10:00:29.412Z</time></trkpt><trkpt lat="31.1619383" lon="-7.1275417"><ele>1476.0</ele><time>2026-04-25T10:00:30.412Z</time></trkpt><trkpt lat="31.1620633" lon="-7.127565"><ele>1476.0</ele><time>2026-04-25T10:00:31.412Z</time></trkpt><trkpt lat="31.1621833" lon="-7.1276"><ele>1476.0</ele><time>2026-04-25T10:00:32.412Z</time></trkpt><trkpt lat="31.162295" lon="-7.1276567"><ele>1476.0</ele><time>2026-04-25T10:00:33.412Z</time></trkpt><trkpt lat="31.1624067" lon="-7.12773"><ele>1476.0</ele><time>2026-04-25T10:00:34.412Z</time></trkpt><trkpt lat="31.1625033" lon="-7.1278017"><ele>1478.0</ele><time>2026-04-25T10:00:35.412Z</time></trkpt><trkpt lat="31.1625933" lon="-7.1278533"><ele>1480.0</ele><time>2026-04-25T10:00:36.412Z</time></trkpt><trkpt lat="31.1626833" lon="-7.127895"><ele>1482.0</ele><time>2026-04-25T10:00:37.412Z</time></trkpt><trkpt lat="31.1627783" lon="-7.1279267"><ele>1484.0</ele><time>2026-04-25T10:00:38.412Z</time></trkpt><trkpt lat="31.16287" lon="-7.127965"><ele>1486.0</ele><time>2026-04-25T10:00:39.412Z</time></trkpt><trkpt lat="31.1629667" lon="-7.1279933"><ele>1486.0</ele><time>2026-04-25T10:00:40.412Z</time></trkpt><trkpt lat="31.1630633" lon="-7.12803"><ele>1486.0</ele><time>2026-04-25T10:00:41.412Z</time></trkpt><trkpt lat="31.16316" lon="-7.1280583"><ele>1486.0</ele><time>2026-04-25T10:00:42.412Z</time></trkpt><trkpt lat="31.16326" lon="-7.128075"><ele>1486.0</ele><time>2026-04-25T10:00:43.412Z</time></trkpt><trkpt lat="31.1633617" lon="-7.1280767"><ele>1486.0</ele><time>2026-04-25T10:00:44.412Z</time></trkpt><trkpt lat="31.1634667" lon="-7.1280667"><ele>1488.5</ele><time>2026-04-25T10:00:45.412Z</time></trkpt><trkpt lat="31.163575" lon="-7.1280367"><ele>1491.0</ele><time>2026-04-25T10:00:46.412Z</time></trkpt><trkpt lat="31.1636817" lon="-7.1280167"><ele>1493.5</ele><time>2026-04-25T10:00:47.412Z</time></trkpt><trkpt lat="31.1638033" lon="-7.1280133"><ele>1496.0</ele><time>2026-04-25T10:00:48.412Z</time></trkpt><trkpt lat="31.163925" lon="-7.1280217"><ele>1498.6</ele><time>2026-04-25T10:00:49.412Z</time></trkpt><trkpt lat="31.1640383" lon="-7.12805"><ele>1501.1999999999998</ele><time>2026-04-25T10:00:50.412Z</time></trkpt><trkpt lat="31.164145" lon="-7.1280733"><ele>1503.8000000000002</ele><time>2026-04-25T10:00:51.412Z</time></trkpt><trkpt lat="31.1642467" lon="-7.12809"><ele>1506.4</ele><time>2026-04-25T10:00:52.412Z</time></trkpt><trkpt lat="31.1643383" lon="-7.1281017"><ele>1509.0</ele><time>2026-04-25T10:00:53.412Z</time></trkpt><trkpt lat="31.1644367" lon="-7.128105"><ele>1509.0</ele><time>2026-04-25T10:00:54.412Z</time></trkpt><trkpt lat="31.164525" lon="-7.12811"><ele>1509.0</ele><time>2026-04-25T10:00:55.412Z</time></trkpt><trkpt lat="31.16461" lon="-7.1281217"><ele>1509.0</ele><time>2026-04-25T10:00:56.413Z</time></trkpt><trkpt lat="31.1646933" lon="-7.12814"><ele>1509.0</ele><time>2026-04-25T10:00:57.412Z</time></trkpt><trkpt lat="31.16476" lon="-7.12817"><ele>1509.0</ele><time>2026-04-25T10:00:58.412Z</time></trkpt><trkpt lat="31.164845" lon="-7.1282117"><ele>1509.0</ele><time>2026-04-25T10:01:00.412Z</time></trkpt><trkpt lat="31.1649067" lon="-7.1282267"><ele>1506.8000000000002</ele><time>2026-04-25T10:01:04.412Z</time></trkpt><trkpt lat="31.1649583" lon="-7.128295"><ele>1504.6000000000001</ele><time>2026-04-25T10:02:06.412Z</time></trkpt><trkpt lat="31.1650317" lon="-7.1283417"><ele>1502.4</ele><time>2026-04-25T10:02:08.412Z</time></trkpt><trkpt lat="31.165135" lon="-7.1283933"><ele>1500.2</ele><time>2026-04-25T10:02:10.412Z</time></trkpt><trkpt lat="31.1652483" lon="-7.1284517"><ele>1498.0</ele><time>2026-04-25T10:02:12.412Z</time></trkpt><trkpt lat="31.1653083" lon="-7.1284833"><ele>1498.0</ele><time>2026-04-25T10:02:13.412Z</time></trkpt><trkpt lat="31.1653683" lon="-7.1285167"><ele>1498.0</ele><time>2026-04-25T10:02:14.412Z</time></trkpt><trkpt lat="31.1654283" lon="-7.12855"><ele>1498.0</ele><time>2026-04-25T10:02:15.412Z</time></trkpt><trkpt lat="31.165485" lon="-7.1285867"><ele>1498.0</ele><time>2026-04-25T10:02:16.412Z</time></trkpt><trkpt lat="31.1655483" lon="-7.1286167"><ele>1498.0</ele><time>2026-04-25T10:02:17.412Z</time></trkpt><trkpt lat="31.1656133" lon="-7.1286467"><ele>1498.0</ele><time>2026-04-25T10:02:18.412Z</time></trkpt><trkpt lat="31.1656833" lon="-7.1286783"><ele>1498.0</ele><time>2026-04-25T10:02:19.412Z</time></trkpt><trkpt lat="31.1657583" lon="-7.1287083"><ele>1499.1666666666665</ele><time>2026-04-25T10:02:20.412Z</time></trkpt><trkpt lat="31.165835" lon="-7.1287383"><ele>1500.3333333333333</ele><time>2026-04-25T10:02:21.412Z</time></trkpt><trkpt lat="31.16591" lon="-7.128765"><ele>1501.5</ele><time>2026-04-25T10:02:22.412Z</time></trkpt><trkpt lat="31.16599" lon="-7.12879"><ele>1502.6666666666667</ele><time>2026-04-25T10:02:23.412Z</time></trkpt><trkpt lat="31.166065" lon="-7.128815"><ele>1503.8333333333335</ele><time>2026-04-25T10:02:24.412Z</time></trkpt><trkpt lat="31.1661467" lon="-7.1288383"><ele>1505.0</ele><time>2026-04-25T10:02:25.412Z</time></trkpt><trkpt lat="31.166225" lon="-7.1288617"><ele>1505.0</ele><time>2026-04-25T10:02:26.412Z</time></trkpt><trkpt lat="31.1662983" lon="-7.1288867"><ele>1505.0</ele><time>2026-04-25T10:02:27.412Z</time></trkpt><trkpt lat="31.16637" lon="-7.1289133"><ele>1505.0</ele><time>2026-04-25T10:02:28.412Z</time></trkpt><trkpt lat="31.1664367" lon="-7.128935"><ele>1505.0</ele><time>2026-04-25T10:02:29.412Z</time></trkpt><trkpt lat="31.1665017" lon="-7.128955"><ele>1505.0</ele><time>2026-04-25T10:02:30.412Z</time></trkpt><trkpt lat="31.1665717" lon="-7.1289767"><ele>1505.0</ele><time>2026-04-25T10:02:31.412Z</time></trkpt><trkpt lat="31.1666467" lon="-7.1289883"><ele>1505.0</ele><time>2026-04-25T10:02:32.412Z</time></trkpt><trkpt lat="31.1667267" lon="-7.1289883"><ele>1505.6</ele><time>2026-04-25T10:02:33.412Z</time></trkpt><trkpt lat="31.166825" lon="-7.1289667"><ele>1506.2</ele><time>2026-04-25T10:02:34.412Z</time></trkpt><trkpt lat="31.1669267" lon="-7.12893"><ele>1506.8000000000002</ele><time>2026-04-25T10:02:35.412Z</time></trkpt><trkpt lat="31.16704" lon="-7.12889"><ele>1507.4</ele><time>2026-04-25T10:02:36.412Z</time></trkpt><trkpt lat="31.1671617" lon="-7.128865"><ele>1508.0</ele><time>2026-04-25T10:02:37.412Z</time></trkpt><trkpt lat="31.1673" lon="-7.1288533"><ele>1507.0</ele><time>2026-04-25T10:02:38.413Z</time></trkpt><trkpt lat="31.1674417" lon="-7.1288433"><ele>1506.0</ele><time>2026-04-25T10:02:39.412Z</time></trkpt><trkpt lat="31.1675817" lon="-7.1288317"><ele>1505.0</ele><time>2026-04-25T10:02:40.412Z</time></trkpt><trkpt lat="31.167715" lon="-7.12881"><ele>1504.0</ele><time>2026-04-25T10:02:41.412Z</time></trkpt><trkpt lat="31.1678417" lon="-7.1287833"><ele>1504.0</ele><time>2026-04-25T10:02:42.412Z</time></trkpt><trkpt lat="31.1679633" lon="-7.1287667"><ele>1504.0</ele><time>2026-04-25T10:02:43.412Z</time></trkpt><trkpt lat="31.1680867" lon="-7.1287517"><ele>1504.0</ele><time>2026-04-25T10:02:44.412Z</time></trkpt><trkpt lat="31.1682167" lon="-7.128745"><ele>1504.0</ele><time>2026-04-25T10:02:45.413Z</time></trkpt><trkpt lat="31.1683533" lon="-7.1287583"><ele>1504.5</ele><time>2026-04-25T10:02:46.412Z</time></trkpt><trkpt lat="31.1685017" lon="-7.128775"><ele>1505.0</ele><time>2026-04-25T10:02:47.412Z</time></trkpt><trkpt lat="31.168655" lon="-7.1288"><ele>1505.5</ele><time>2026-04-25T10:02:48.413Z</time></trkpt><trkpt lat="31.1688" lon="-7.1288133"><ele>1506.0</ele><time>2026-04-25T10:02:49.412Z</time></trkpt><trkpt lat="31.1689417" lon="-7.1288133"><ele>1506.0</ele><time>2026-04-25T10:02:50.412Z</time></trkpt><trkpt lat="31.1690783" lon="-7.1288117"><ele>1506.0</ele><time>2026-04-25T10:02:51.412Z</time></trkpt><trkpt lat="31.1692183" lon="-7.1288117"><ele>1506.0</ele><time>2026-04-25T10:02:52.412Z</time></trkpt><trkpt lat="31.1693583" lon="-7.128815"><ele>1506.0</ele><time>2026-04-25T10:02:53.412Z</time></trkpt><trkpt lat="31.169495" lon="-7.1288167"><ele>1506.0</ele><time>2026-04-25T10:02:54.412Z</time></trkpt><trkpt lat="31.1696367" lon="-7.1288233"><ele>1506.0</ele><time>2026-04-25T10:02:55.413Z</time></trkpt><trkpt lat="31.1697783" lon="-7.12883"><ele>1506.0</ele><time>2026-04-25T10:02:56.412Z</time></trkpt><trkpt lat="31.16992" lon="-7.1288433"><ele>1506.0</ele><time>2026-04-25T10:02:57.412Z</time></trkpt><trkpt lat="31.1700617" lon="-7.1288517"><ele>1506.5</ele><time>2026-04-25T10:02:58.412Z</time></trkpt><trkpt lat="31.1701983" lon="-7.1288583"><ele>1507.0</ele><time>2026-04-25T10:02:59.412Z</time></trkpt><trkpt lat="31.1703367" lon="-7.1288617"><ele>1507.5</ele><time>2026-04-25T10:03:00.412Z</time></trkpt><trkpt lat="31.170475" lon="-7.1288633"><ele>1508.0</ele><time>2026-04-25T10:03:01.412Z</time></trkpt><trkpt lat="31.1705967" lon="-7.128865"><ele>1509.0</ele><time>2026-04-25T10:03:02.412Z</time></trkpt><trkpt lat="31.1707183" lon="-7.1288633"><ele>1510.0</ele><time>2026-04-25T10:03:03.412Z</time></trkpt><trkpt lat="31.17084" lon="-7.1288633"><ele>1511.0</ele><time>2026-04-25T10:03:04.412Z</time></trkpt><trkpt lat="31.1709617" lon="-7.1288667"><ele>1512.0</ele><time>2026-04-25T10:03:05.412Z</time></trkpt><trkpt lat="31.1710733" lon="-7.128875"><ele>1512.0</ele><time>2026-04-25T10:03:06.412Z</time></trkpt><trkpt lat="31.17118" lon="-7.1288833"><ele>1512.0</ele><time>2026-04-25T10:03:07.412Z</time></trkpt><trkpt lat="31.171285" lon="-7.1288883"><ele>1512.0</ele><time>2026-04-25T10:03:08.412Z</time></trkpt><trkpt lat="31.171395" lon="-7.1288933"><ele>1512.0</ele><time>2026-04-25T10:03:09.412Z</time></trkpt><trkpt lat="31.1715133" lon="-7.12891"><ele>1512.0</ele><time>2026-04-25T10:03:10.412Z</time></trkpt><trkpt lat="31.1716367" lon="-7.1289283"><ele>1511.1999999999998</ele><time>2026-04-25T10:03:11.412Z</time></trkpt><trkpt lat="31.1717567" lon="-7.1289283"><ele>1510.4</ele><time>2026-04-25T10:03:12.412Z</time></trkpt><trkpt lat="31.1718483" lon="-7.128905"><ele>1509.6</ele><time>2026-04-25T10:03:13.412Z</time></trkpt><trkpt lat="31.1719217" lon="-7.1288317"><ele>1508.8000000000002</ele><time>2026-04-25T10:03:14.412Z</time></trkpt><trkpt lat="31.171995" lon="-7.1287483"><ele>1508.0</ele><time>2026-04-25T10:03:15.412Z</time></trkpt><trkpt lat="31.1720667" lon="-7.1286633"><ele>1508.0</ele><time>2026-04-25T10:03:16.412Z</time></trkpt><trkpt lat="31.1721267" lon="-7.12859"><ele>1508.0</ele><time>2026-04-25T10:03:17.412Z</time></trkpt><trkpt lat="31.172205" lon="-7.1285333"><ele>1508.0</ele><time>2026-04-25T10:03:18.412Z</time></trkpt><trkpt lat="31.1722883" lon="-7.1284867"><ele>1508.0</ele><time>2026-04-25T10:03:19.412Z</time></trkpt><trkpt lat="31.172385" lon="-7.128435"><ele>1508.0</ele><time>2026-04-25T10:03:20.412Z</time></trkpt><trkpt lat="31.17248" lon="-7.1283633"><ele>1508.25</ele><time>2026-04-25T10:03:21.412Z</time></trkpt><trkpt lat="31.172585" lon="-7.1282733"><ele>1508.5</ele><time>2026-04-25T10:03:22.413Z</time></trkpt><trkpt lat="31.1727033" lon="-7.1281817"><ele>1508.75</ele><time>2026-04-25T10:03:23.412Z</time></trkpt><trkpt lat="31.1728317" lon="-7.1280833"><ele>1509.0</ele><time>2026-04-25T10:03:24.412Z</time></trkpt><trkpt lat="31.17296" lon="-7.12798"><ele>1511.3333333333333</ele><time>2026-04-25T10:03:25.412Z</time></trkpt><trkpt lat="31.173095" lon="-7.127885"><ele>1513.6666666666665</ele><time>2026-04-25T10:03:26.412Z</time></trkpt><trkpt lat="31.1732283" lon="-7.1277917"><ele>1516.0</ele><time>2026-04-25T10:03:27.412Z</time></trkpt><trkpt lat="31.17336" lon="-7.1277067"><ele>1516.0</ele><time>2026-04-25T10:03:28.412Z</time></trkpt><trkpt lat="31.1734917" lon="-7.1276233"><ele>1516.0</ele><time>2026-04-25T10:03:29.412Z</time></trkpt><trkpt lat="31.173615" lon="-7.1275367"><ele>1516.0</ele><time>2026-04-25T10:03:30.413Z</time></trkpt><trkpt lat="31.1737333" lon="-7.1274383"><ele>1516.0</ele><time>2026-04-25T10:03:31.412Z</time></trkpt><trkpt lat="31.173835" lon="-7.1273117"><ele>1516.6666666666665</ele><time>2026-04-25T10:03:32.412Z</time></trkpt><trkpt lat="31.1739233" lon="-7.1271667"><ele>1517.3333333333333</ele><time>2026-04-25T10:03:33.412Z</time></trkpt><trkpt lat="31.1740183" lon="-7.1270183"><ele>1518.0</ele><time>2026-04-25T10:03:34.412Z</time></trkpt><trkpt lat="31.174115" lon="-7.1268683"><ele>1518.0</ele><time>2026-04-25T10:03:35.412Z</time></trkpt><trkpt lat="31.1742133" lon="-7.1267217"><ele>1518.0</ele><time>2026-04-25T10:03:36.412Z</time></trkpt><trkpt lat="31.1743133" lon="-7.1265867"><ele>1518.0</ele><time>2026-04-25T10:03:37.412Z</time></trkpt><trkpt lat="31.1744033" lon="-7.12647"><ele>1518.0</ele><time>2026-04-25T10:03:38.412Z</time></trkpt><trkpt lat="31.1744883" lon="-7.1263683"><ele>1518.75</ele><time>2026-04-25T10:03:39.412Z</time></trkpt><trkpt lat="31.1745883" lon="-7.126285"><ele>1519.5</ele><time>2026-04-25T10:03:40.412Z</time></trkpt><trkpt lat="31.1747133" lon="-7.1262317"><ele>1520.25</ele><time>2026-04-25T10:03:41.412Z</time></trkpt><trkpt lat="31.1748267" lon="-7.1262017"><ele>1521.0</ele><time>2026-04-25T10:03:42.412Z</time></trkpt><trkpt lat="31.17493" lon="-7.1261567"><ele>1521.0</ele><time>2026-04-25T10:03:43.412Z</time></trkpt><trkpt lat="31.1750117" lon="-7.126095"><ele>1521.0</ele><time>2026-04-25T10:03:44.412Z</time></trkpt><trkpt lat="31.17507" lon="-7.1260083"><ele>1521.0</ele><time>2026-04-25T10:03:45.412Z</time></trkpt><trkpt lat="31.175115" lon="-7.1259"><ele>1521.0</ele><time>2026-04-25T10:03:46.412Z</time></trkpt><trkpt lat="31.1751533" lon="-7.1257933"><ele>1521.0</ele><time>2026-04-25T10:03:47.412Z</time></trkpt><trkpt lat="31.1752133" lon="-7.1257083"><ele>1524.6</ele><time>2026-04-25T10:03:48.412Z</time></trkpt><trkpt lat="31.1753067" lon="-7.1256367"><ele>1528.1999999999998</ele><time>2026-04-25T10:03:49.412Z</time></trkpt><trkpt lat="31.1754067" lon="-7.1256"><ele>1531.8000000000002</ele><time>2026-04-25T10:03:50.412Z</time></trkpt><trkpt lat="31.1755133" lon="-7.125595"><ele>1535.4</ele><time>2026-04-25T10:03:51.412Z</time></trkpt><trkpt lat="31.175605" lon="-7.1256183"><ele>1539.0</ele><time>2026-04-25T10:03:52.412Z</time></trkpt><trkpt lat="31.1756733" lon="-7.1256817"><ele>1537.0</ele><time>2026-04-25T10:03:53.412Z</time></trkpt><trkpt lat="31.1757217" lon="-7.12576"><ele>1535.0</ele><time>2026-04-25T10:03:54.412Z</time></trkpt><trkpt lat="31.1757383" lon="-7.125855"><ele>1533.0</ele><time>2026-04-25T10:03:55.412Z</time></trkpt><trkpt lat="31.17574" lon="-7.1259683"><ele>1531.0</ele><time>2026-04-25T10:03:56.412Z</time></trkpt><trkpt lat="31.1757167" lon="-7.1260933"><ele>1529.0</ele><time>2026-04-25T10:03:57.412Z</time></trkpt><trkpt lat="31.1756633" lon="-7.1262367"><ele>1527.0</ele><time>2026-04-25T10:03:58.412Z</time></trkpt><trkpt lat="31.1756117" lon="-7.12638"><ele>1525.0</ele><time>2026-04-25T10:03:59.412Z</time></trkpt><trkpt lat="31.1755583" lon="-7.1265333"><ele>1523.0</ele><time>2026-04-25T10:04:00.413Z</time></trkpt><trkpt lat="31.1755017" lon="-7.126685"><ele>1521.0</ele><time>2026-04-25T10:04:01.411Z</time></trkpt><trkpt lat="31.175435" lon="-7.1268433"><ele>1517.6666666666667</ele><time>2026-04-25T10:04:02.411Z</time></trkpt><trkpt lat="31.1753883" lon="-7.1270133"><ele>1514.3333333333335</ele><time>2026-04-25T10:04:03.411Z</time></trkpt><trkpt lat="31.17534" lon="-7.1271783"><ele>1511.0</ele><time>2026-04-25T10:04:04.411Z</time></trkpt><trkpt lat="31.1752883" lon="-7.12734"><ele>1514.3333333333335</ele><time>2026-04-25T10:04:05.411Z</time></trkpt><trkpt lat="31.1752367" lon="-7.1275067"><ele>1517.6666666666667</ele><time>2026-04-25T10:04:06.411Z</time></trkpt><trkpt lat="31.1751833" lon="-7.1276833"><ele>1521.0</ele><time>2026-04-25T10:04:07.411Z</time></trkpt><trkpt lat="31.1751217" lon="-7.12786"><ele>1521.0</ele><time>2026-04-25T10:04:08.411Z</time></trkpt><trkpt lat="31.175045" lon="-7.12804"><ele>1521.0</ele><time>2026-04-25T10:04:09.411Z</time></trkpt><trkpt lat="31.1749667" lon="-7.1282233"><ele>1521.0</ele><time>2026-04-25T10:04:10.411Z</time></trkpt><trkpt lat="31.17488" lon="-7.1283917"><ele>1519.0</ele><time>2026-04-25T10:04:11.411Z</time></trkpt><trkpt lat="31.1748033" lon="-7.1285383"><ele>1517.0</ele><time>2026-04-25T10:04:12.411Z</time></trkpt><trkpt lat="31.17474" lon="-7.128675"><ele>1515.0</ele><time>2026-04-25T10:04:13.411Z</time></trkpt><trkpt lat="31.1746767" lon="-7.128795"><ele>1513.0</ele><time>2026-04-25T10:04:14.411Z</time></trkpt><trkpt lat="31.174625" lon="-7.1289117"><ele>1513.0</ele><time>2026-04-25T10:04:15.411Z</time></trkpt><trkpt lat="31.1745783" lon="-7.1290183"><ele>1513.0</ele><time>2026-04-25T10:04:16.412Z</time></trkpt><trkpt lat="31.1745333" lon="-7.1291183"><ele>1513.0</ele><time>2026-04-25T10:04:17.411Z</time></trkpt><trkpt lat="31.1744883" lon="-7.1292217"><ele>1513.0</ele><time>2026-04-25T10:04:18.411Z</time></trkpt><trkpt lat="31.174445" lon="-7.129325"><ele>1513.0</ele><time>2026-04-25T10:04:19.411Z</time></trkpt><trkpt lat="31.1744083" lon="-7.1294367"><ele>1517.25</ele><time>2026-04-25T10:04:20.411Z</time></trkpt><trkpt lat="31.1743683" lon="-7.1295617"><ele>1521.5</ele><time>2026-04-25T10:04:21.411Z</time></trkpt><trkpt lat="31.1743267" lon="-7.1297117"><ele>1525.75</ele><time>2026-04-25T10:04:22.411Z</time></trkpt><trkpt lat="31.174275" lon="-7.12988"><ele>1530.0</ele><time>2026-04-25T10:04:23.411Z</time></trkpt><trkpt lat="31.1742217" lon="-7.1300583"><ele>1534.0</ele><time>2026-04-25T10:04:24.411Z</time></trkpt><trkpt lat="31.174175" lon="-7.1302317"><ele>1538.0</ele><time>2026-04-25T10:04:25.411Z</time></trkpt><trkpt lat="31.1741483" lon="-7.130375"><ele>1542.0</ele><time>2026-04-25T10:04:26.411Z</time></trkpt><trkpt lat="31.174145" lon="-7.13047"><ele>1546.0</ele><time>2026-04-25T10:04:27.411Z</time></trkpt><trkpt lat="31.1741583" lon="-7.130545"><ele>1550.0</ele><time>2026-04-25T10:04:28.411Z</time></trkpt><trkpt lat="31.1742217" lon="-7.130595"><ele>1550.0</ele><time>2026-04-25T10:04:30.412Z</time></trkpt><trkpt lat="31.1743117" lon="-7.1305267"><ele>1550.0</ele><time>2026-04-25T10:04:32.411Z</time></trkpt><trkpt lat="31.1743633" lon="-7.130445"><ele>1550.0</ele><time>2026-04-25T10:04:33.412Z</time></trkpt><trkpt lat="31.1744117" lon="-7.130345"><ele>1550.0</ele><time>2026-04-25T10:04:34.411Z</time></trkpt><trkpt lat="31.174455" lon="-7.1302283"><ele>1550.0</ele><time>2026-04-25T10:04:35.411Z</time></trkpt><trkpt lat="31.1745" lon="-7.1300867"><ele>1550.0</ele><time>2026-04-25T10:04:36.411Z</time></trkpt><trkpt lat="31.1745467" lon="-7.12995"><ele>1550.0</ele><time>2026-04-25T10:04:37.411Z</time></trkpt><trkpt lat="31.174595" lon="-7.1298317"><ele>1550.0</ele><time>2026-04-25T10:04:38.411Z</time></trkpt><trkpt lat="31.1746533" lon="-7.1297267"><ele>1550.0</ele><time>2026-04-25T10:04:39.411Z</time></trkpt><trkpt lat="31.1747283" lon="-7.1296067"><ele>1546.0</ele><time>2026-04-25T10:04:40.411Z</time></trkpt><trkpt lat="31.17481" lon="-7.1294817"><ele>1542.0</ele><time>2026-04-25T10:04:41.411Z</time></trkpt><trkpt lat="31.1748833" lon="-7.1293667"><ele>1538.0</ele><time>2026-04-25T10:04:42.411Z</time></trkpt><trkpt lat="31.174945" lon="-7.12927"><ele>1534.0</ele><time>2026-04-25T10:04:43.411Z</time></trkpt><trkpt lat="31.17499" lon="-7.129195"><ele>1530.0</ele><time>2026-04-25T10:04:44.411Z</time></trkpt><trkpt lat="31.175035" lon="-7.12909"><ele>1532.6666666666667</ele><time>2026-04-25T10:04:46.411Z</time></trkpt><trkpt lat="31.1750617" lon="-7.1290217"><ele>1535.3333333333335</ele><time>2026-04-25T10:04:48.411Z</time></trkpt><trkpt lat="31.175105" lon="-7.1289533"><ele>1538.0</ele><time>2026-04-25T10:04:51.411Z</time></trkpt><trkpt lat="31.1751767" lon="-7.128835"><ele>1540.6666666666667</ele><time>2026-04-25T10:14:33.41Z</time></trkpt><trkpt lat="31.175245" lon="-7.1287733"><ele>1543.3333333333335</ele><time>2026-04-25T10:14:35.41Z</time></trkpt><trkpt lat="31.1753" lon="-7.1287167"><ele>1546.0</ele><time>2026-04-25T10:14:36.41Z</time></trkpt><trkpt lat="31.1753583" lon="-7.1286367"><ele>1546.0</ele><time>2026-04-25T10:14:37.41Z</time></trkpt><trkpt lat="31.17542" lon="-7.1285417"><ele>1546.0</ele><time>2026-04-25T10:14:38.41Z</time></trkpt><trkpt lat="31.1754817" lon="-7.1284383"><ele>1546.0</ele><time>2026-04-25T10:14:39.41Z</time></trkpt><trkpt lat="31.17555" lon="-7.1283317"><ele>1546.0</ele><time>2026-04-25T10:14:40.41Z</time></trkpt><trkpt lat="31.1756217" lon="-7.12822"><ele>1546.0</ele><time>2026-04-25T10:14:41.41Z</time></trkpt><trkpt lat="31.1756917" lon="-7.1281033"><ele>1551.0</ele><time>2026-04-25T10:14:42.41Z</time></trkpt><trkpt lat="31.1757667" lon="-7.1279767"><ele>1556.0</ele><time>2026-04-25T10:14:43.41Z</time></trkpt><trkpt lat="31.1758367" lon="-7.12784"><ele>1561.0</ele><time>2026-04-25T10:14:44.411Z</time></trkpt><trkpt lat="31.1759017" lon="-7.1277017"><ele>1566.0</ele><time>2026-04-25T10:14:45.41Z</time></trkpt><trkpt lat="31.1759617" lon="-7.1275717"><ele>1566.0</ele><time>2026-04-25T10:14:46.41Z</time></trkpt><trkpt lat="31.1760167" lon="-7.1274433"><ele>1566.0</ele><time>2026-04-25T10:14:47.41Z</time></trkpt><trkpt lat="31.17607" lon="-7.1273283"><ele>1566.0</ele><time>2026-04-25T10:14:48.41Z</time></trkpt><trkpt lat="31.17612" lon="-7.127225"><ele>1566.0</ele><time>2026-04-25T10:14:49.41Z</time></trkpt><trkpt lat="31.176165" lon="-7.12714"><ele>1566.0</ele><time>2026-04-25T10:14:50.41Z</time></trkpt><trkpt lat="31.1762067" lon="-7.12707"><ele>1566.0</ele><time>2026-04-25T10:14:51.41Z</time></trkpt><trkpt lat="31.1762533" lon="-7.1270183"><ele>1566.0</ele><time>2026-04-25T10:14:52.41Z</time></trkpt><trkpt lat="31.1763517" lon="-7.127005"><ele>1566.0</ele><time>2026-04-25T10:14:54.41Z</time></trkpt><trkpt lat="31.176395" lon="-7.1271183"><ele>1566.0</ele><time>2026-04-25T10:14:56.41Z</time></trkpt><trkpt lat="31.1763833" lon="-7.1272"><ele>1566.0</ele><time>2026-04-25T10:14:57.41Z</time></trkpt><trkpt lat="31.176345" lon="-7.1273017"><ele>1566.0</ele><time>2026-04-25T10:14:58.41Z</time></trkpt><trkpt lat="31.1762983" lon="-7.127415"><ele>1566.0</ele><time>2026-04-25T10:14:59.41Z</time></trkpt><trkpt lat="31.1762467" lon="-7.1275333"><ele>1566.0</ele><time>2026-04-25T10:15:00.41Z</time></trkpt><trkpt lat="31.1761917" lon="-7.127655"><ele>1566.0</ele><time>2026-04-25T10:15:01.41Z</time></trkpt><trkpt lat="31.1761383" lon="-7.127785"><ele>1566.0</ele><time>2026-04-25T10:15:02.41Z</time></trkpt><trkpt lat="31.1760783" lon="-7.1279133"><ele>1566.0</ele><time>2026-04-25T10:15:03.41Z</time></trkpt><trkpt lat="31.176015" lon="-7.1280433"><ele>1566.0</ele><time>2026-04-25T10:15:04.41Z</time></trkpt><trkpt lat="31.1759567" lon="-7.1281767"><ele>1566.0</ele><time>2026-04-25T10:15:05.41Z</time></trkpt><trkpt lat="31.1759067" lon="-7.1282933"><ele>1566.0</ele><time>2026-04-25T10:15:06.411Z</time></trkpt><trkpt lat="31.17586" lon="-7.1283883"><ele>1569.8333333333333</ele><time>2026-04-25T10:15:07.41Z</time></trkpt><trkpt lat="31.1758183" lon="-7.1284683"><ele>1573.6666666666665</ele><time>2026-04-25T10:15:08.41Z</time></trkpt><trkpt lat="31.1757817" lon="-7.12854"><ele>1577.5</ele><time>2026-04-25T10:15:09.41Z</time></trkpt><trkpt lat="31.1757517" lon="-7.1286133"><ele>1581.3333333333333</ele><time>2026-04-25T10:15:10.41Z</time></trkpt><trkpt lat="31.1757433" lon="-7.1286867"><ele>1585.1666666666665</ele><time>2026-04-25T10:15:11.411Z</time></trkpt><trkpt lat="31.17578" lon="-7.1287933"><ele>1589.0</ele><time>2026-04-25T10:15:13.41Z</time></trkpt><trkpt lat="31.1758583" lon="-7.1288283"><ele>1589.0</ele><time>2026-04-25T10:15:15.41Z</time></trkpt><trkpt lat="31.1759433" lon="-7.1287733"><ele>1589.0</ele><time>2026-04-25T10:15:17.41Z</time></trkpt><trkpt lat="31.175985" lon="-7.128695"><ele>1589.0</ele><time>2026-04-25T10:15:18.41Z</time></trkpt><trkpt lat="31.1760267" lon="-7.1285967"><ele>1589.0</ele><time>2026-04-25T10:15:19.41Z</time></trkpt><trkpt lat="31.1760783" lon="-7.12849"><ele>1589.0</ele><time>2026-04-25T10:15:20.41Z</time></trkpt><trkpt lat="31.1761383" lon="-7.1283783"><ele>1589.0</ele><time>2026-04-25T10:15:21.41Z</time></trkpt><trkpt lat="31.1762" lon="-7.1282583"><ele>1589.0</ele><time>2026-04-25T10:15:22.41Z</time></trkpt><trkpt lat="31.176265" lon="-7.128125"><ele>1589.0</ele><time>2026-04-25T10:15:23.41Z</time></trkpt><trkpt lat="31.1763383" lon="-7.127985"><ele>1589.0</ele><time>2026-04-25T10:15:24.41Z</time></trkpt><trkpt lat="31.1764183" lon="-7.1278433"><ele>1590.0</ele><time>2026-04-25T10:15:25.41Z</time></trkpt><trkpt lat="31.1764817" lon="-7.12772"><ele>1591.0</ele><time>2026-04-25T10:15:26.41Z</time></trkpt><trkpt lat="31.176535" lon="-7.12761"><ele>1592.0</ele><time>2026-04-25T10:15:27.41Z</time></trkpt><trkpt lat="31.1765867" lon="-7.1275033"><ele>1593.0</ele><time>2026-04-25T10:15:28.41Z</time></trkpt><trkpt lat="31.176635" lon="-7.1273933"><ele>1594.0</ele><time>2026-04-25T10:15:29.41Z</time></trkpt><trkpt lat="31.176685" lon="-7.127285"><ele>1594.0</ele><time>2026-04-25T10:15:30.41Z</time></trkpt><trkpt lat="31.17673" lon="-7.12717"><ele>1594.0</ele><time>2026-04-25T10:15:31.41Z</time></trkpt><trkpt lat="31.1767783" lon="-7.127055"><ele>1594.0</ele><time>2026-04-25T10:15:32.41Z</time></trkpt><trkpt lat="31.1768267" lon="-7.1269517"><ele>1594.0</ele><time>2026-04-25T10:15:33.41Z</time></trkpt><trkpt lat="31.1768783" lon="-7.1268617"><ele>1594.0</ele><time>2026-04-25T10:15:34.41Z</time></trkpt><trkpt lat="31.176935" lon="-7.1267883"><ele>1594.0000000000002</ele><time>2026-04-25T10:15:35.41Z</time></trkpt><trkpt lat="31.1769983" lon="-7.126725"><ele>1594.0</ele><time>2026-04-25T10:15:36.41Z</time></trkpt><trkpt lat="31.17707" lon="-7.1266633"><ele>1594.0</ele><time>2026-04-25T10:15:37.411Z</time></trkpt><trkpt lat="31.1771517" lon="-7.1266283"><ele>1594.0</ele><time>2026-04-25T10:15:38.41Z</time></trkpt><trkpt lat="31.1772417" lon="-7.1266183"><ele>1594.0000000000002</ele><time>2026-04-25T10:15:39.41Z</time></trkpt><trkpt lat="31.1773267" lon="-7.1266433"><ele>1594.0</ele><time>2026-04-25T10:15:40.41Z</time></trkpt><trkpt lat="31.1774117" lon="-7.126695"><ele>1601.0</ele><time>2026-04-25T10:15:41.41Z</time></trkpt><trkpt lat="31.17749" lon="-7.1267683"><ele>1608.0</ele><time>2026-04-25T10:15:42.41Z</time></trkpt><trkpt lat="31.1775633" lon="-7.126855"><ele>1615.0</ele><time>2026-04-25T10:15:43.41Z</time></trkpt><trkpt lat="31.1776267" lon="-7.1269517"><ele>1622.0</ele><time>2026-04-25T10:15:44.41Z</time></trkpt><trkpt lat="31.17767" lon="-7.1270633"><ele>1629.0</ele><time>2026-04-25T10:15:45.41Z</time></trkpt><trkpt lat="31.1776883" lon="-7.1271767"><ele>1629.0</ele><time>2026-04-25T10:15:46.411Z</time></trkpt><trkpt lat="31.177685" lon="-7.1272717"><ele>1629.0</ele><time>2026-04-25T10:15:47.41Z</time></trkpt><trkpt lat="31.1776717" lon="-7.12735"><ele>1629.0</ele><time>2026-04-25T10:15:48.41Z</time></trkpt><trkpt lat="31.177655" lon="-7.127425"><ele>1629.0</ele><time>2026-04-25T10:15:49.41Z</time></trkpt><trkpt lat="31.1776417" lon="-7.1275"><ele>1629.0</ele><time>2026-04-25T10:15:50.41Z</time></trkpt><trkpt lat="31.1776233" lon="-7.1275883"><ele>1629.0</ele><time>2026-04-25T10:15:51.41Z</time></trkpt><trkpt lat="31.1775983" lon="-7.12769"><ele>1630.8000000000002</ele><time>2026-04-25T10:15:52.41Z</time></trkpt><trkpt lat="31.1775717" lon="-7.1278"><ele>1632.6000000000001</ele><time>2026-04-25T10:15:53.41Z</time></trkpt><trkpt lat="31.1775333" lon="-7.1279033"><ele>1634.4</ele><time>2026-04-25T10:15:54.41Z</time></trkpt><trkpt lat="31.177495" lon="-7.1280183"><ele>1636.2</ele><time>2026-04-25T10:15:55.41Z</time></trkpt><trkpt lat="31.1774467" lon="-7.1281417"><ele>1638.0</ele><time>2026-04-25T10:15:56.41Z</time></trkpt><trkpt lat="31.1773967" lon="-7.1282767"><ele>1635.0</ele><time>2026-04-25T10:15:57.41Z</time></trkpt><trkpt lat="31.177345" lon="-7.128425"><ele>1632.0</ele><time>2026-04-25T10:15:58.41Z</time></trkpt><trkpt lat="31.1773033" lon="-7.1285717"><ele>1629.0</ele><time>2026-04-25T10:15:59.41Z</time></trkpt><trkpt lat="31.1772683" lon="-7.1287083"><ele>1626.0</ele><time>2026-04-25T10:16:00.41Z</time></trkpt><trkpt lat="31.1772517" lon="-7.1288417"><ele>1626.0</ele><time>2026-04-25T10:16:01.41Z</time></trkpt><trkpt lat="31.1772483" lon="-7.1289733"><ele>1626.0</ele><time>2026-04-25T10:16:02.41Z</time></trkpt><trkpt lat="31.1772533" lon="-7.1291033"><ele>1626.0</ele><time>2026-04-25T10:16:03.41Z</time></trkpt><trkpt lat="31.177275" lon="-7.1292317"><ele>1626.0</ele><time>2026-04-25T10:16:04.41Z</time></trkpt><trkpt lat="31.1773133" lon="-7.1293533"><ele>1626.0</ele><time>2026-04-25T10:16:05.41Z</time></trkpt><trkpt lat="31.1773767" lon="-7.129465"><ele>1630.1999999999998</ele><time>2026-04-25T10:16:06.41Z</time></trkpt><trkpt lat="31.1774633" lon="-7.1295517"><ele>1634.3999999999999</ele><time>2026-04-25T10:16:07.41Z</time></trkpt><trkpt lat="31.1775533" lon="-7.1296183"><ele>1638.6</ele><time>2026-04-25T10:16:08.41Z</time></trkpt><trkpt lat="31.1776467" lon="-7.1296933"><ele>1642.8</ele><time>2026-04-25T10:16:09.41Z</time></trkpt><trkpt lat="31.17774" lon="-7.1297717"><ele>1647.0</ele><time>2026-04-25T10:16:10.41Z</time></trkpt><trkpt lat="31.1778317" lon="-7.1298517"><ele>1646.3999999999999</ele><time>2026-04-25T10:16:11.41Z</time></trkpt><trkpt lat="31.1779183" lon="-7.1299333"><ele>1645.8</ele><time>2026-04-25T10:16:12.41Z</time></trkpt><trkpt lat="31.178" lon="-7.1300117"><ele>1645.2</ele><time>2026-04-25T10:16:13.41Z</time></trkpt><trkpt lat="31.17808" lon="-7.1300867"><ele>1644.6</ele><time>2026-04-25T10:16:14.41Z</time></trkpt><trkpt lat="31.1781567" lon="-7.1301583"><ele>1644.0</ele><time>2026-04-25T10:16:15.41Z</time></trkpt><trkpt lat="31.1782383" lon="-7.1302233"><ele>1646.2</ele><time>2026-04-25T10:16:16.41Z</time></trkpt><trkpt lat="31.17832" lon="-7.13028"><ele>1648.4</ele><time>2026-04-25T10:16:17.41Z</time></trkpt><trkpt lat="31.1784083" lon="-7.1303167"><ele>1650.6</ele><time>2026-04-25T10:16:18.41Z</time></trkpt><trkpt lat="31.178505" lon="-7.1303517"><ele>1652.8</ele><time>2026-04-25T10:16:19.41Z</time></trkpt><trkpt lat="31.1786033" lon="-7.1303767"><ele>1655.0</ele><time>2026-04-25T10:16:20.41Z</time></trkpt><trkpt lat="31.17871" lon="-7.1303933"><ele>1655.0</ele><time>2026-04-25T10:16:21.41Z</time></trkpt><trkpt lat="31.1788217" lon="-7.1303983"><ele>1655.0</ele><time>2026-04-25T10:16:22.41Z</time></trkpt><trkpt lat="31.17893" lon="-7.13038"><ele>1655.0</ele><time>2026-04-25T10:16:23.41Z</time></trkpt><trkpt lat="31.1790467" lon="-7.1303433"><ele>1655.0</ele><time>2026-04-25T10:16:24.41Z</time></trkpt><trkpt lat="31.1791567" lon="-7.1303067"><ele>1655.0</ele><time>2026-04-25T10:16:25.41Z</time></trkpt><trkpt lat="31.1792683" lon="-7.1302817"><ele>1655.0</ele><time>2026-04-25T10:16:26.41Z</time></trkpt><trkpt lat="31.1793867" lon="-7.13027"><ele>1655.0</ele><time>2026-04-25T10:16:27.41Z</time></trkpt><trkpt lat="31.1795167" lon="-7.1302683"><ele>1655.0</ele><time>2026-04-25T10:16:28.41Z</time></trkpt><trkpt lat="31.1796467" lon="-7.1302867"><ele>1655.0</ele><time>2026-04-25T10:16:29.41Z</time></trkpt><trkpt lat="31.1797633" lon="-7.130325"><ele>1655.0</ele><time>2026-04-25T10:16:30.41Z</time></trkpt><trkpt lat="31.1798767" lon="-7.1303767"><ele>1655.0</ele><time>2026-04-25T10:16:31.41Z</time></trkpt><trkpt lat="31.179985" lon="-7.1304183"><ele>1655.0</ele><time>2026-04-25T10:16:32.41Z</time></trkpt><trkpt lat="31.180095" lon="-7.1304417"><ele>1654.25</ele><time>2026-04-25T10:16:33.41Z</time></trkpt><trkpt lat="31.1802117" lon="-7.1304583"><ele>1653.5</ele><time>2026-04-25T10:16:34.41Z</time></trkpt><trkpt lat="31.1803383" lon="-7.1304733"><ele>1652.75</ele><time>2026-04-25T10:16:35.41Z</time></trkpt><trkpt lat="31.1804717" lon="-7.1304833"><ele>1652.0</ele><time>2026-04-25T10:16:36.41Z</time></trkpt><trkpt lat="31.1805983" lon="-7.1304717"><ele>1650.25</ele><time>2026-04-25T10:16:37.41Z</time></trkpt><trkpt lat="31.180725" lon="-7.13044"><ele>1648.5</ele><time>2026-04-25T10:16:38.411Z</time></trkpt><trkpt lat="31.1808417" lon="-7.1303967"><ele>1646.75</ele><time>2026-04-25T10:16:39.41Z</time></trkpt><trkpt lat="31.1809533" lon="-7.1303533"><ele>1645.0</ele><time>2026-04-25T10:16:40.41Z</time></trkpt><trkpt lat="31.181065" lon="-7.1303233"><ele>1645.0</ele><time>2026-04-25T10:16:41.41Z</time></trkpt><trkpt lat="31.1811633" lon="-7.1303017"><ele>1645.0</ele><time>2026-04-25T10:16:42.41Z</time></trkpt><trkpt lat="31.1812633" lon="-7.1302933"><ele>1645.0</ele><time>2026-04-25T10:16:43.41Z</time></trkpt><trkpt lat="31.1813567" lon="-7.1302883"><ele>1645.0</ele><time>2026-04-25T10:16:44.41Z</time></trkpt><trkpt lat="31.1814483" lon="-7.1302917"><ele>1645.0</ele><time>2026-04-25T10:16:45.41Z</time></trkpt><trkpt lat="31.18155" lon="-7.1302967"><ele>1645.2</ele><time>2026-04-25T10:16:46.41Z</time></trkpt><trkpt lat="31.181635" lon="-7.13032"><ele>1645.4</ele><time>2026-04-25T10:16:47.41Z</time></trkpt><trkpt lat="31.1817167" lon="-7.1303717"><ele>1645.6</ele><time>2026-04-25T10:16:48.41Z</time></trkpt><trkpt lat="31.1818017" lon="-7.1304433"><ele>1645.8</ele><time>2026-04-25T10:16:49.41Z</time></trkpt><trkpt lat="31.181885" lon="-7.1305183"><ele>1646.0</ele><time>2026-04-25T10:16:50.41Z</time></trkpt><trkpt lat="31.1819717" lon="-7.130585"><ele>1646.0</ele><time>2026-04-25T10:16:51.41Z</time></trkpt><trkpt lat="31.1820567" lon="-7.130645"><ele>1646.0</ele><time>2026-04-25T10:16:52.41Z</time></trkpt><trkpt lat="31.1821467" lon="-7.1306883"><ele>1646.0</ele><time>2026-04-25T10:16:53.41Z</time></trkpt><trkpt lat="31.1822417" lon="-7.130715"><ele>1646.0</ele><time>2026-04-25T10:16:54.41Z</time></trkpt><trkpt lat="31.1823517" lon="-7.130725"><ele>1646.0</ele><time>2026-04-25T10:16:55.41Z</time></trkpt><trkpt lat="31.1824633" lon="-7.1307317"><ele>1647.75</ele><time>2026-04-25T10:16:56.41Z</time></trkpt><trkpt lat="31.1825717" lon="-7.1307233"><ele>1649.5</ele><time>2026-04-25T10:16:57.41Z</time></trkpt><trkpt lat="31.18268" lon="-7.1306883"><ele>1651.25</ele><time>2026-04-25T10:16:58.41Z</time></trkpt><trkpt lat="31.1827883" lon="-7.130635"><ele>1653.0</ele><time>2026-04-25T10:16:59.41Z</time></trkpt><trkpt lat="31.1829017" lon="-7.13061"><ele>1653.0</ele><time>2026-04-25T10:17:00.41Z</time></trkpt><trkpt lat="31.18302" lon="-7.130625"><ele>1653.0</ele><time>2026-04-25T10:17:01.41Z</time></trkpt><trkpt lat="31.1831333" lon="-7.13068"><ele>1653.0</ele><time>2026-04-25T10:17:02.41Z</time></trkpt><trkpt lat="31.1832467" lon="-7.1307583"><ele>1653.0</ele><time>2026-04-25T10:17:03.41Z</time></trkpt><trkpt lat="31.183345" lon="-7.1308367"><ele>1649.8000000000002</ele><time>2026-04-25T10:17:04.41Z</time></trkpt><trkpt lat="31.1834367" lon="-7.130915"><ele>1646.6</ele><time>2026-04-25T10:17:05.41Z</time></trkpt><trkpt lat="31.183525" lon="-7.1309917"><ele>1643.4</ele><time>2026-04-25T10:17:06.41Z</time></trkpt><trkpt lat="31.1836183" lon="-7.1310633"><ele>1640.1999999999998</ele><time>2026-04-25T10:17:07.41Z</time></trkpt><trkpt lat="31.18371" lon="-7.1311367"><ele>1637.0</ele><time>2026-04-25T10:17:08.41Z</time></trkpt><trkpt lat="31.1838017" lon="-7.13121"><ele>1637.0</ele><time>2026-04-25T10:17:09.41Z</time></trkpt><trkpt lat="31.183885" lon="-7.131275"><ele>1637.0</ele><time>2026-04-25T10:17:10.41Z</time></trkpt><trkpt lat="31.1839717" lon="-7.1313433"><ele>1637.0</ele><time>2026-04-25T10:17:11.41Z</time></trkpt><trkpt lat="31.1840683" lon="-7.1314067"><ele>1637.0</ele><time>2026-04-25T10:17:12.41Z</time></trkpt><trkpt lat="31.1841583" lon="-7.1314633"><ele>1637.0</ele><time>2026-04-25T10:17:13.41Z</time></trkpt><trkpt lat="31.1842467" lon="-7.1315067"><ele>1637.9999999999998</ele><time>2026-04-25T10:17:14.41Z</time></trkpt><trkpt lat="31.1843383" lon="-7.1315217"><ele>1639.0</ele><time>2026-04-25T10:17:15.41Z</time></trkpt><trkpt lat="31.1844167" lon="-7.13152"><ele>1640.0</ele><time>2026-04-25T10:17:16.41Z</time></trkpt><trkpt lat="31.184485" lon="-7.1314767"><ele>1641.0</ele><time>2026-04-25T10:17:17.41Z</time></trkpt><trkpt lat="31.1845283" lon="-7.1314083"><ele>1641.9999999999998</ele><time>2026-04-25T10:17:18.41Z</time></trkpt><trkpt lat="31.1845533" lon="-7.1313117"><ele>1643.0</ele><time>2026-04-25T10:17:19.41Z</time></trkpt><trkpt lat="31.18456" lon="-7.1311917"><ele>1643.0</ele><time>2026-04-25T10:17:20.41Z</time></trkpt><trkpt lat="31.1845567" lon="-7.13106"><ele>1643.0</ele><time>2026-04-25T10:17:21.41Z</time></trkpt><trkpt lat="31.1845533" lon="-7.1309317"><ele>1643.0</ele><time>2026-04-25T10:17:22.41Z</time></trkpt><trkpt lat="31.1845633" lon="-7.1308117"><ele>1643.0</ele><time>2026-04-25T10:17:23.41Z</time></trkpt><trkpt lat="31.1845883" lon="-7.1307083"><ele>1643.0</ele><time>2026-04-25T10:17:24.41Z</time></trkpt><trkpt lat="31.1846467" lon="-7.13062"><ele>1644.2</ele><time>2026-04-25T10:17:25.41Z</time></trkpt><trkpt lat="31.1847267" lon="-7.1305633"><ele>1645.4</ele><time>2026-04-25T10:17:26.41Z</time></trkpt><trkpt lat="31.1848217" lon="-7.130555"><ele>1646.6000000000001</ele><time>2026-04-25T10:17:27.41Z</time></trkpt><trkpt lat="31.18492" lon="-7.1305933"><ele>1647.8000000000002</ele><time>2026-04-25T10:17:28.41Z</time></trkpt><trkpt lat="31.1850233" lon="-7.13066"><ele>1649.0</ele><time>2026-04-25T10:17:29.41Z</time></trkpt><trkpt lat="31.1851283" lon="-7.1307383"><ele>1643.75</ele><time>2026-04-25T10:17:30.41Z</time></trkpt><trkpt lat="31.1852283" lon="-7.13081"><ele>1638.5</ele><time>2026-04-25T10:17:31.41Z</time></trkpt><trkpt lat="31.1853333" lon="-7.130875"><ele>1633.25</ele><time>2026-04-25T10:17:32.41Z</time></trkpt><trkpt lat="31.1854383" lon="-7.1309217"><ele>1628.0</ele><time>2026-04-25T10:17:33.41Z</time></trkpt><trkpt lat="31.1855517" lon="-7.1309583"><ele>1628.0</ele><time>2026-04-25T10:17:34.41Z</time></trkpt><trkpt lat="31.1856733" lon="-7.1309883"><ele>1628.0</ele><time>2026-04-25T10:17:35.41Z</time></trkpt><trkpt lat="31.1857967" lon="-7.130985"><ele>1628.0</ele><time>2026-04-25T10:17:36.41Z</time></trkpt><trkpt lat="31.1859217" lon="-7.1309567"><ele>1628.0</ele><time>2026-04-25T10:17:37.41Z</time></trkpt><trkpt lat="31.1860533" lon="-7.13095"><ele>1629.0</ele><time>2026-04-25T10:17:38.41Z</time></trkpt><trkpt lat="31.1861883" lon="-7.1309683"><ele>1630.0</ele><time>2026-04-25T10:17:39.41Z</time></trkpt><trkpt lat="31.18631" lon="-7.13102"><ele>1631.0</ele><time>2026-04-25T10:17:40.41Z</time></trkpt><trkpt lat="31.1864233" lon="-7.131085"><ele>1632.0</ele><time>2026-04-25T10:17:41.41Z</time></trkpt><trkpt lat="31.186535" lon="-7.1311433"><ele>1632.25</ele><time>2026-04-25T10:17:42.41Z</time></trkpt><trkpt lat="31.1866483" lon="-7.1311867"><ele>1632.5</ele><time>2026-04-25T10:17:43.41Z</time></trkpt><trkpt lat="31.1867717" lon="-7.131215"><ele>1632.75</ele><time>2026-04-25T10:17:44.41Z</time></trkpt><trkpt lat="31.186895" lon="-7.131215"><ele>1633.0</ele><time>2026-04-25T10:17:45.41Z</time></trkpt><trkpt lat="31.187015" lon="-7.131185"><ele>1633.0</ele><time>2026-04-25T10:17:46.41Z</time></trkpt><trkpt lat="31.187135" lon="-7.1311167"><ele>1633.0</ele><time>2026-04-25T10:17:47.41Z</time></trkpt><trkpt lat="31.1872283" lon="-7.1310283"><ele>1633.0</ele><time>2026-04-25T10:17:48.41Z</time></trkpt><trkpt lat="31.1872933" lon="-7.1309067"><ele>1633.0</ele><time>2026-04-25T10:17:49.41Z</time></trkpt><trkpt lat="31.1873333" lon="-7.1307733"><ele>1632.25</ele><time>2026-04-25T10:17:50.41Z</time></trkpt><trkpt lat="31.187365" lon="-7.1306383"><ele>1631.5</ele><time>2026-04-25T10:17:51.41Z</time></trkpt><trkpt lat="31.1874117" lon="-7.130515"><ele>1630.75</ele><time>2026-04-25T10:17:52.41Z</time></trkpt><trkpt lat="31.1874967" lon="-7.13041"><ele>1630.0</ele><time>2026-04-25T10:17:53.411Z</time></trkpt><trkpt lat="31.1876083" lon="-7.130305"><ele>1630.0</ele><time>2026-04-25T10:17:54.41Z</time></trkpt><trkpt lat="31.1877033" lon="-7.130205"><ele>1630.0</ele><time>2026-04-25T10:17:55.41Z</time></trkpt><trkpt lat="31.1877983" lon="-7.1301083"><ele>1630.0</ele><time>2026-04-25T10:17:56.41Z</time></trkpt><trkpt lat="31.1878933" lon="-7.1300167"><ele>1630.0</ele><time>2026-04-25T10:17:57.41Z</time></trkpt><trkpt lat="31.18799" lon="-7.129925"><ele>1629.4</ele><time>2026-04-25T10:17:58.41Z</time></trkpt><trkpt lat="31.18808" lon="-7.129845"><ele>1628.8</ele><time>2026-04-25T10:17:59.41Z</time></trkpt><trkpt lat="31.1881583" lon="-7.1297583"><ele>1628.1999999999998</ele><time>2026-04-25T10:18:00.411Z</time></trkpt><trkpt lat="31.1882333" lon="-7.1296767"><ele>1627.6</ele><time>2026-04-25T10:18:01.41Z</time></trkpt><trkpt lat="31.188305" lon="-7.129595"><ele>1627.0</ele><time>2026-04-25T10:18:02.41Z</time></trkpt><trkpt lat="31.1883733" lon="-7.129515"><ele>1627.0000000000002</ele><time>2026-04-25T10:18:03.41Z</time></trkpt><trkpt lat="31.1884417" lon="-7.1294467"><ele>1627.0</ele><time>2026-04-25T10:18:04.41Z</time></trkpt><trkpt lat="31.1885233" lon="-7.1294033"><ele>1627.0</ele><time>2026-04-25T10:18:05.41Z</time></trkpt><trkpt lat="31.18861" lon="-7.12939"><ele>1627.0</ele><time>2026-04-25T10:18:06.41Z</time></trkpt><trkpt lat="31.1887" lon="-7.1294167"><ele>1627.0000000000002</ele><time>2026-04-25T10:18:07.41Z</time></trkpt><trkpt lat="31.1887683" lon="-7.1294833"><ele>1627.0</ele><time>2026-04-25T10:18:08.41Z</time></trkpt><trkpt lat="31.18881" lon="-7.1295933"><ele>1627.0</ele><time>2026-04-25T10:18:09.41Z</time></trkpt><trkpt lat="31.18883" lon="-7.129715"><ele>1627.0</ele><time>2026-04-25T10:18:10.41Z</time></trkpt><trkpt lat="31.1888383" lon="-7.12985"><ele>1627.0</ele><time>2026-04-25T10:18:11.41Z</time></trkpt><trkpt lat="31.1888433" lon="-7.1299917"><ele>1627.0</ele><time>2026-04-25T10:18:12.41Z</time></trkpt><trkpt lat="31.188855" lon="-7.130135"><ele>1628.75</ele><time>2026-04-25T10:18:13.41Z</time></trkpt><trkpt lat="31.1888733" lon="-7.130285"><ele>1630.5</ele><time>2026-04-25T10:18:14.41Z</time></trkpt><trkpt lat="31.188915" lon="-7.1304367"><ele>1632.25</ele><time>2026-04-25T10:18:15.41Z</time></trkpt><trkpt lat="31.1889917" lon="-7.13058"><ele>1634.0</ele><time>2026-04-25T10:18:16.41Z</time></trkpt><trkpt lat="31.1890833" lon="-7.1307183"><ele>1632.75</ele><time>2026-04-25T10:18:17.411Z</time></trkpt><trkpt lat="31.189175" lon="-7.130845"><ele>1631.5</ele><time>2026-04-25T10:18:18.41Z</time></trkpt><trkpt lat="31.18926" lon="-7.1309583"><ele>1630.25</ele><time>2026-04-25T10:18:19.41Z</time></trkpt><trkpt lat="31.1893417" lon="-7.131065"><ele>1629.0</ele><time>2026-04-25T10:18:20.41Z</time></trkpt><trkpt lat="31.1894183" lon="-7.13116"><ele>1629.0</ele><time>2026-04-25T10:18:21.41Z</time></trkpt><trkpt lat="31.1895" lon="-7.1312517"><ele>1629.0</ele><time>2026-04-25T10:18:22.41Z</time></trkpt><trkpt lat="31.1895783" lon="-7.1313383"><ele>1629.0</ele><time>2026-04-25T10:18:23.411Z</time></trkpt><trkpt lat="31.189665" lon="-7.1314133"><ele>1629.0</ele><time>2026-04-25T10:18:24.411Z</time></trkpt><trkpt lat="31.18975" lon="-7.13147"><ele>1629.0</ele><time>2026-04-25T10:18:25.41Z</time></trkpt><trkpt lat="31.1898567" lon="-7.1315017"><ele>1633.75</ele><time>2026-04-25T10:18:26.41Z</time></trkpt><trkpt lat="31.1899667" lon="-7.1315067"><ele>1638.5</ele><time>2026-04-25T10:18:27.41Z</time></trkpt><trkpt lat="31.1900867" lon="-7.1314917"><ele>1643.25</ele><time>2026-04-25T10:18:28.41Z</time></trkpt><trkpt lat="31.1902067" lon="-7.131475"><ele>1648.0</ele><time>2026-04-25T10:18:29.411Z</time></trkpt><trkpt lat="31.1903333" lon="-7.13147"><ele>1648.0</ele><time>2026-04-25T10:18:30.411Z</time></trkpt><trkpt lat="31.1904583" lon="-7.1314933"><ele>1648.0</ele><time>2026-04-25T10:18:31.41Z</time></trkpt><trkpt lat="31.1905817" lon="-7.13155"><ele>1648.0</ele><time>2026-04-25T10:18:32.41Z</time></trkpt><trkpt lat="31.190715" lon="-7.1316067"><ele>1648.0</ele><time>2026-04-25T10:18:33.41Z</time></trkpt><trkpt lat="31.1908533" lon="-7.13163"><ele>1646.25</ele><time>2026-04-25T10:18:34.411Z</time></trkpt><trkpt lat="31.1909917" lon="-7.13162"><ele>1644.5</ele><time>2026-04-25T10:18:35.41Z</time></trkpt><trkpt lat="31.1911333" lon="-7.1315917"><ele>1642.75</ele><time>2026-04-25T10:18:36.41Z</time></trkpt><trkpt lat="31.19128" lon="-7.1315867"><ele>1641.0</ele><time>2026-04-25T10:18:37.41Z</time></trkpt><trkpt lat="31.1914183" lon="-7.1316167"><ele>1642.5</ele><time>2026-04-25T10:18:38.41Z</time></trkpt><trkpt lat="31.1915417" lon="-7.1316667"><ele>1644.0</ele><time>2026-04-25T10:18:39.41Z</time></trkpt><trkpt lat="31.1916517" lon="-7.1317233"><ele>1645.5</ele><time>2026-04-25T10:18:40.41Z</time></trkpt><trkpt lat="31.1917583" lon="-7.1317733"><ele>1647.0</ele><time>2026-04-25T10:18:41.41Z</time></trkpt><trkpt lat="31.1918667" lon="-7.131805"><ele>1647.0</ele><time>2026-04-25T10:18:42.41Z</time></trkpt><trkpt lat="31.191975" lon="-7.1318083"><ele>1647.0</ele><time>2026-04-25T10:18:43.41Z</time></trkpt><trkpt lat="31.1920833" lon="-7.1317783"><ele>1647.0</ele><time>2026-04-25T10:18:44.41Z</time></trkpt><trkpt lat="31.1921883" lon="-7.1317167"><ele>1647.0</ele><time>2026-04-25T10:18:45.41Z</time></trkpt><trkpt lat="31.1922883" lon="-7.1316283"><ele>1647.3999999999999</ele><time>2026-04-25T10:18:46.41Z</time></trkpt><trkpt lat="31.19237" lon="-7.1315233"><ele>1647.8</ele><time>2026-04-25T10:18:47.41Z</time></trkpt><trkpt lat="31.1924283" lon="-7.1314067"><ele>1648.2</ele><time>2026-04-25T10:18:48.41Z</time></trkpt><trkpt lat="31.19247" lon="-7.1312933"><ele>1648.6</ele><time>2026-04-25T10:18:49.41Z</time></trkpt><trkpt lat="31.1925167" lon="-7.131185"><ele>1649.0</ele><time>2026-04-25T10:18:50.411Z</time></trkpt><trkpt lat="31.19257" lon="-7.131075"><ele>1649.0</ele><time>2026-04-25T10:18:51.41Z</time></trkpt><trkpt lat="31.1926167" lon="-7.1309667"><ele>1649.0</ele><time>2026-04-25T10:18:52.41Z</time></trkpt><trkpt lat="31.1926567" lon="-7.1308483"><ele>1649.0</ele><time>2026-04-25T10:18:53.41Z</time></trkpt><trkpt lat="31.1926967" lon="-7.13073"><ele>1649.0</ele><time>2026-04-25T10:18:54.41Z</time></trkpt><trkpt lat="31.19274" lon="-7.1306183"><ele>1649.0</ele><time>2026-04-25T10:18:55.41Z</time></trkpt><trkpt lat="31.1927983" lon="-7.1305183"><ele>1648.6</ele><time>2026-04-25T10:18:56.41Z</time></trkpt><trkpt lat="31.19287" lon="-7.13044"><ele>1648.2</ele><time>2026-04-25T10:18:57.41Z</time></trkpt><trkpt lat="31.1929583" lon="-7.1304"><ele>1647.8</ele><time>2026-04-25T10:18:58.41Z</time></trkpt><trkpt lat="31.19305" lon="-7.130395"><ele>1647.3999999999999</ele><time>2026-04-25T10:18:59.41Z</time></trkpt><trkpt lat="31.1931383" lon="-7.1304367"><ele>1647.0</ele><time>2026-04-25T10:19:00.41Z</time></trkpt><trkpt lat="31.193215" lon="-7.1305167"><ele>1647.0</ele><time>2026-04-25T10:19:01.41Z</time></trkpt><trkpt lat="31.1932733" lon="-7.1306317"><ele>1647.0</ele><time>2026-04-25T10:19:02.41Z</time></trkpt><trkpt lat="31.1933167" lon="-7.1307567"><ele>1647.0</ele><time>2026-04-25T10:19:03.41Z</time></trkpt><trkpt lat="31.1933767" lon="-7.1308783"><ele>1647.0</ele><time>2026-04-25T10:19:04.41Z</time></trkpt><trkpt lat="31.1934433" lon="-7.1309917"><ele>1647.0</ele><time>2026-04-25T10:19:05.41Z</time></trkpt><trkpt lat="31.1935133" lon="-7.131105"><ele>1647.0</ele><time>2026-04-25T10:19:06.41Z</time></trkpt><trkpt lat="31.19358" lon="-7.131215"><ele>1647.0</ele><time>2026-04-25T10:19:07.411Z</time></trkpt><trkpt lat="31.1936517" lon="-7.131315"><ele>1647.0</ele><time>2026-04-25T10:19:08.41Z</time></trkpt><trkpt lat="31.1937317" lon="-7.1313967"><ele>1647.0</ele><time>2026-04-25T10:19:09.41Z</time></trkpt><trkpt lat="31.193815" lon="-7.1314667"><ele>1647.0</ele><time>2026-04-25T10:19:10.41Z</time></trkpt><trkpt lat="31.19391" lon="-7.13152"><ele>1647.0</ele><time>2026-04-25T10:19:11.41Z</time></trkpt><trkpt lat="31.19401" lon="-7.1315517"><ele>1647.0</ele><time>2026-04-25T10:19:12.41Z</time></trkpt><trkpt lat="31.1941083" lon="-7.1315633"><ele>1647.0</ele><time>2026-04-25T10:19:13.41Z</time></trkpt><trkpt lat="31.1942083" lon="-7.1315683"><ele>1648.25</ele><time>2026-04-25T10:19:14.41Z</time></trkpt><trkpt lat="31.19432" lon="-7.1315683"><ele>1649.5</ele><time>2026-04-25T10:19:15.41Z</time></trkpt><trkpt lat="31.1944317" lon="-7.1315583"><ele>1650.75</ele><time>2026-04-25T10:19:16.41Z</time></trkpt><trkpt lat="31.1945483" lon="-7.1315433"><ele>1652.0</ele><time>2026-04-25T10:19:17.41Z</time></trkpt><trkpt lat="31.19466" lon="-7.1315167"><ele>1653.8</ele><time>2026-04-25T10:19:18.41Z</time></trkpt><trkpt lat="31.1947567" lon="-7.1314683"><ele>1655.6</ele><time>2026-04-25T10:19:19.41Z</time></trkpt><trkpt lat="31.19484" lon="-7.1314067"><ele>1657.3999999999999</ele><time>2026-04-25T10:19:20.41Z</time></trkpt><trkpt lat="31.1949217" lon="-7.131335"><ele>1659.1999999999998</ele><time>2026-04-25T10:19:21.41Z</time></trkpt><trkpt lat="31.195005" lon="-7.1312583"><ele>1661.0</ele><time>2026-04-25T10:19:22.41Z</time></trkpt><trkpt lat="31.1950933" lon="-7.1311733"><ele>1661.0</ele><time>2026-04-25T10:19:23.41Z</time></trkpt><trkpt lat="31.1951817" lon="-7.131085"><ele>1661.0</ele><time>2026-04-25T10:19:24.41Z</time></trkpt><trkpt lat="31.195265" lon="-7.1309933"><ele>1661.0</ele><time>2026-04-25T10:19:25.41Z</time></trkpt><trkpt lat="31.195345" lon="-7.1308933"><ele>1661.0</ele><time>2026-04-25T10:19:26.41Z</time></trkpt><trkpt lat="31.19542" lon="-7.130785"><ele>1660.0</ele><time>2026-04-25T10:19:27.41Z</time></trkpt><trkpt lat="31.1954917" lon="-7.1306817"><ele>1659.0</ele><time>2026-04-25T10:19:28.41Z</time></trkpt><trkpt lat="31.1955617" lon="-7.1305867"><ele>1658.0</ele><time>2026-04-25T10:19:29.41Z</time></trkpt><trkpt lat="31.1956383" lon="-7.13051"><ele>1657.0</ele><time>2026-04-25T10:19:30.41Z</time></trkpt><trkpt lat="31.1957167" lon="-7.1304783"><ele>1656.0</ele><time>2026-04-25T10:19:31.41Z</time></trkpt><trkpt lat="31.1958" lon="-7.1304867"><ele>1656.0</ele><time>2026-04-25T10:19:32.41Z</time></trkpt><trkpt lat="31.19586" lon="-7.13054"><ele>1656.0</ele><time>2026-04-25T10:19:33.41Z</time></trkpt><trkpt lat="31.1959" lon="-7.13063"><ele>1656.0</ele><time>2026-04-25T10:19:34.41Z</time></trkpt><trkpt lat="31.1959233" lon="-7.1307483"><ele>1656.0</ele><time>2026-04-25T10:19:35.41Z</time></trkpt><trkpt lat="31.19595" lon="-7.1308817"><ele>1656.0</ele><time>2026-04-25T10:19:36.41Z</time></trkpt><trkpt lat="31.1959867" lon="-7.131015"><ele>1655.0</ele><time>2026-04-25T10:19:37.41Z</time></trkpt><trkpt lat="31.1960483" lon="-7.1311383"><ele>1654.0</ele><time>2026-04-25T10:19:38.41Z</time></trkpt><trkpt lat="31.1961417" lon="-7.13123"><ele>1653.0</ele><time>2026-04-25T10:19:39.411Z</time></trkpt><trkpt lat="31.1962617" lon="-7.1312983"><ele>1652.0</ele><time>2026-04-25T10:19:40.41Z</time></trkpt><trkpt lat="31.19639" lon="-7.1313217"><ele>1654.0</ele><time>2026-04-25T10:19:41.41Z</time></trkpt><trkpt lat="31.19651" lon="-7.1313333"><ele>1656.0</ele><time>2026-04-25T10:19:42.41Z</time></trkpt><trkpt lat="31.1966267" lon="-7.1313317"><ele>1658.0</ele><time>2026-04-25T10:19:43.411Z</time></trkpt><trkpt lat="31.19673" lon="-7.13132"><ele>1660.0</ele><time>2026-04-25T10:19:44.41Z</time></trkpt><trkpt lat="31.19682" lon="-7.1313133"><ele>1662.0</ele><time>2026-04-25T10:19:45.41Z</time></trkpt><trkpt lat="31.196905" lon="-7.1313117"><ele>1662.0</ele><time>2026-04-25T10:19:46.41Z</time></trkpt><trkpt lat="31.1969917" lon="-7.131305"><ele>1662.0</ele><time>2026-04-25T10:19:47.41Z</time></trkpt><trkpt lat="31.1970767" lon="-7.1312917"><ele>1662.0</ele><time>2026-04-25T10:19:48.41Z</time></trkpt><trkpt lat="31.1971667" lon="-7.13128"><ele>1662.0</ele><time>2026-04-25T10:19:49.41Z</time></trkpt><trkpt lat="31.1972617" lon="-7.1312667"><ele>1662.0</ele><time>2026-04-25T10:19:50.41Z</time></trkpt><trkpt lat="31.1973567" lon="-7.1312433"><ele>1662.3999999999999</ele><time>2026-04-25T10:19:51.41Z</time></trkpt><trkpt lat="31.1974517" lon="-7.131215"><ele>1662.8</ele><time>2026-04-25T10:19:52.41Z</time></trkpt><trkpt lat="31.197545" lon="-7.131185"><ele>1663.2</ele><time>2026-04-25T10:19:53.41Z</time></trkpt><trkpt lat="31.1976367" lon="-7.131155"><ele>1663.6</ele><time>2026-04-25T10:19:54.41Z</time></trkpt><trkpt lat="31.19772" lon="-7.13113"><ele>1664.0</ele><time>2026-04-25T10:19:55.409Z</time></trkpt><trkpt lat="31.1978" lon="-7.1311117"><ele>1663.9999999999998</ele><time>2026-04-25T10:19:56.409Z</time></trkpt><trkpt lat="31.1978667" lon="-7.1310933"><ele>1664.0</ele><time>2026-04-25T10:19:57.409Z</time></trkpt><trkpt lat="31.19796" lon="-7.1310667"><ele>1664.0</ele><time>2026-04-25T10:19:59.409Z</time></trkpt><trkpt lat="31.19803" lon="-7.1310333"><ele>1664.0</ele><time>2026-04-25T10:20:02.409Z</time></trkpt><trkpt lat="31.19811" lon="-7.1310183"><ele>1663.9999999999998</ele><time>2026-04-25T10:20:39.409Z</time></trkpt><trkpt lat="31.1981833" lon="-7.130985"><ele>1664.0</ele><time>2026-04-25T10:20:42.409Z</time></trkpt><trkpt lat="31.1982683" lon="-7.130955"><ele>1664.8333333333333</ele><time>2026-04-25T10:20:45.409Z</time></trkpt><trkpt lat="31.19834" lon="-7.1309467"><ele>1665.6666666666665</ele><time>2026-04-25T10:20:48.409Z</time></trkpt><trkpt lat="31.198415" lon="-7.1309217"><ele>1666.5</ele><time>2026-04-25T10:20:51.409Z</time></trkpt><trkpt lat="31.1984767" lon="-7.1308733"><ele>1667.3333333333335</ele><time>2026-04-25T10:20:54.409Z</time></trkpt><trkpt lat="31.1985283" lon="-7.1307767"><ele>1668.1666666666667</ele><time>2026-04-25T10:20:57.409Z</time></trkpt><trkpt lat="31.198555" lon="-7.1306883"><ele>1669.0</ele><time>2026-04-25T10:20:59.409Z</time></trkpt><trkpt lat="31.1985967" lon="-7.1306017"><ele>1669.0</ele><time>2026-04-25T10:21:01.409Z</time></trkpt><trkpt lat="31.1986583" lon="-7.13054"><ele>1669.0</ele><time>2026-04-25T10:21:03.409Z</time></trkpt><trkpt lat="31.19874" lon="-7.1304983"><ele>1669.0</ele><time>2026-04-25T10:21:05.409Z</time></trkpt><trkpt lat="31.1988367" lon="-7.1304933"><ele>1669.0</ele><time>2026-04-25T10:21:07.409Z</time></trkpt><trkpt lat="31.198955" lon="-7.1305083"><ele>1669.0</ele><time>2026-04-25T10:21:09.409Z</time></trkpt><trkpt lat="31.19903" lon="-7.1305333"><ele>1669.4</ele><time>2026-04-25T10:21:10.409Z</time></trkpt><trkpt lat="31.1991067" lon="-7.1305717"><ele>1669.8000000000002</ele><time>2026-04-25T10:21:11.409Z</time></trkpt><trkpt lat="31.1991867" lon="-7.130615"><ele>1670.1999999999998</ele><time>2026-04-25T10:21:12.409Z</time></trkpt><trkpt lat="31.199275" lon="-7.1306567"><ele>1670.6</ele><time>2026-04-25T10:21:13.409Z</time></trkpt><trkpt lat="31.1993633" lon="-7.1307067"><ele>1671.0</ele><time>2026-04-25T10:21:14.409Z</time></trkpt><trkpt lat="31.199455" lon="-7.1307567"><ele>1668.0</ele><time>2026-04-25T10:21:15.409Z</time></trkpt><trkpt lat="31.1995367" lon="-7.1308017"><ele>1665.0</ele><time>2026-04-25T10:21:16.409Z</time></trkpt><trkpt lat="31.19961" lon="-7.130845"><ele>1662.0</ele><time>2026-04-25T10:21:17.409Z</time></trkpt><trkpt lat="31.1996817" lon="-7.130885"><ele>1659.0</ele><time>2026-04-25T10:21:18.409Z</time></trkpt><trkpt lat="31.1997533" lon="-7.1309217"><ele>1656.0</ele><time>2026-04-25T10:21:19.409Z</time></trkpt><trkpt lat="31.1998267" lon="-7.1309383"><ele>1653.0</ele><time>2026-04-25T10:21:20.409Z</time></trkpt><trkpt lat="31.1999083" lon="-7.1309517"><ele>1653.0</ele><time>2026-04-25T10:21:21.409Z</time></trkpt><trkpt lat="31.1999983" lon="-7.1309533"><ele>1653.0</ele><time>2026-04-25T10:21:22.409Z</time></trkpt><trkpt lat="31.2000983" lon="-7.1309467"><ele>1653.0</ele><time>2026-04-25T10:21:23.409Z</time></trkpt><trkpt lat="31.2002017" lon="-7.130925"><ele>1653.0</ele><time>2026-04-25T10:21:24.409Z</time></trkpt><trkpt lat="31.2003117" lon="-7.1308983"><ele>1653.0</ele><time>2026-04-25T10:21:25.409Z</time></trkpt><trkpt lat="31.2004267" lon="-7.1308833"><ele>1653.0</ele><time>2026-04-25T10:21:26.409Z</time></trkpt><trkpt lat="31.2005517" lon="-7.13088"><ele>1653.0</ele><time>2026-04-25T10:21:27.409Z</time></trkpt><trkpt lat="31.2006783" lon="-7.13088"><ele>1653.0</ele><time>2026-04-25T10:21:28.409Z</time></trkpt><trkpt lat="31.2008" lon="-7.1308783"><ele>1653.0</ele><time>2026-04-25T10:21:29.409Z</time></trkpt><trkpt lat="31.2009217" lon="-7.1308867"><ele>1652.25</ele><time>2026-04-25T10:21:30.409Z</time></trkpt><trkpt lat="31.20104" lon="-7.1309133"><ele>1651.5</ele><time>2026-04-25T10:21:31.409Z</time></trkpt><trkpt lat="31.20115" lon="-7.1309733"><ele>1650.75</ele><time>2026-04-25T10:21:32.409Z</time></trkpt><trkpt lat="31.2012417" lon="-7.1310583"><ele>1650.0</ele><time>2026-04-25T10:21:33.409Z</time></trkpt><trkpt lat="31.2013183" lon="-7.1311517"><ele>1650.0</ele><time>2026-04-25T10:21:34.409Z</time></trkpt><trkpt lat="31.2013883" lon="-7.1312383"><ele>1650.0</ele><time>2026-04-25T10:21:35.409Z</time></trkpt><trkpt lat="31.20146" lon="-7.13131"><ele>1650.0</ele><time>2026-04-25T10:21:36.409Z</time></trkpt><trkpt lat="31.20154" lon="-7.1313683"><ele>1650.0</ele><time>2026-04-25T10:21:37.409Z</time></trkpt><trkpt lat="31.2016233" lon="-7.1314"><ele>1650.0</ele><time>2026-04-25T10:21:38.409Z</time></trkpt><trkpt lat="31.2017167" lon="-7.1314117"><ele>1651.8</ele><time>2026-04-25T10:21:39.409Z</time></trkpt><trkpt lat="31.2018233" lon="-7.1314167"><ele>1653.6</ele><time>2026-04-25T10:21:40.409Z</time></trkpt><trkpt lat="31.2019333" lon="-7.1314283"><ele>1655.4</ele><time>2026-04-25T10:21:41.409Z</time></trkpt><trkpt lat="31.2020383" lon="-7.1314383"><ele>1657.2</ele><time>2026-04-25T10:21:42.409Z</time></trkpt><trkpt lat="31.2021333" lon="-7.13145"><ele>1659.0</ele><time>2026-04-25T10:21:43.409Z</time></trkpt><trkpt lat="31.2022233" lon="-7.13146"><ele>1659.0</ele><time>2026-04-25T10:21:44.409Z</time></trkpt><trkpt lat="31.202305" lon="-7.1314633"><ele>1659.0</ele><time>2026-04-25T10:21:45.409Z</time></trkpt><trkpt lat="31.202385" lon="-7.131465"><ele>1659.0</ele><time>2026-04-25T10:21:46.409Z</time></trkpt><trkpt lat="31.20246" lon="-7.1314583"><ele>1659.0</ele><time>2026-04-25T10:21:47.409Z</time></trkpt><trkpt lat="31.2025683" lon="-7.1314517"><ele>1659.0</ele><time>2026-04-25T10:21:49.409Z</time></trkpt><trkpt lat="31.20264" lon="-7.131435"><ele>1659.0</ele><time>2026-04-25T10:21:51.41Z</time></trkpt><trkpt lat="31.2027233" lon="-7.1313933"><ele>1659.2</ele><time>2026-04-25T10:22:42.409Z</time></trkpt><trkpt lat="31.2027633" lon="-7.1313267"><ele>1659.4</ele><time>2026-04-25T10:22:45.409Z</time></trkpt><trkpt lat="31.202825" lon="-7.1312383"><ele>1659.6</ele><time>2026-04-25T10:22:48.409Z</time></trkpt><trkpt lat="31.20289" lon="-7.1311583"><ele>1659.8</ele><time>2026-04-25T10:22:50.409Z</time></trkpt><trkpt lat="31.20299" lon="-7.1310733"><ele>1660.0</ele><time>2026-04-25T10:22:52.409Z</time></trkpt><trkpt lat="31.2030533" lon="-7.1310383"><ele>1660.0000000000002</ele><time>2026-04-25T10:22:53.41Z</time></trkpt><trkpt lat="31.2031333" lon="-7.1310183"><ele>1660.0</ele><time>2026-04-25T10:22:54.409Z</time></trkpt><trkpt lat="31.2032217" lon="-7.131005"><ele>1660.0</ele><time>2026-04-25T10:22:55.409Z</time></trkpt><trkpt lat="31.203305" lon="-7.13101"><ele>1660.0</ele><time>2026-04-25T10:22:56.409Z</time></trkpt><trkpt lat="31.20338" lon="-7.1310233"><ele>1660.0000000000002</ele><time>2026-04-25T10:22:57.409Z</time></trkpt><trkpt lat="31.2034467" lon="-7.131045"><ele>1660.0</ele><time>2026-04-25T10:22:58.409Z</time></trkpt><trkpt lat="31.203515" lon="-7.1310633"><ele>1659.0000000000002</ele><time>2026-04-25T10:22:59.409Z</time></trkpt><trkpt lat="31.2035817" lon="-7.1310783"><ele>1658.0</ele><time>2026-04-25T10:23:00.409Z</time></trkpt><trkpt lat="31.2036483" lon="-7.1310833"><ele>1657.0</ele><time>2026-04-25T10:23:01.409Z</time></trkpt><trkpt lat="31.2037183" lon="-7.131095"><ele>1656.0</ele><time>2026-04-25T10:23:02.41Z</time></trkpt><trkpt lat="31.20379" lon="-7.13112"><ele>1655.0000000000002</ele><time>2026-04-25T10:23:03.409Z</time></trkpt><trkpt lat="31.203875" lon="-7.1311333"><ele>1654.0</ele><time>2026-04-25T10:23:04.409Z</time></trkpt><trkpt lat="31.2039633" lon="-7.1311483"><ele>1653.5000000000002</ele><time>2026-04-25T10:23:05.409Z</time></trkpt><trkpt lat="31.2040483" lon="-7.1311583"><ele>1653.0</ele><time>2026-04-25T10:23:06.409Z</time></trkpt><trkpt lat="31.2041283" lon="-7.1311617"><ele>1652.5</ele><time>2026-04-25T10:23:07.409Z</time></trkpt><trkpt lat="31.2042117" lon="-7.131155"><ele>1652.0</ele><time>2026-04-25T10:23:08.409Z</time></trkpt><trkpt lat="31.2042933" lon="-7.13115"><ele>1651.5000000000002</ele><time>2026-04-25T10:23:09.409Z</time></trkpt><trkpt lat="31.2043783" lon="-7.131155"><ele>1651.0</ele><time>2026-04-25T10:23:10.41Z</time></trkpt><trkpt lat="31.2044617" lon="-7.131185"><ele>1651.0</ele><time>2026-04-25T10:23:11.409Z</time></trkpt><trkpt lat="31.2045483" lon="-7.1312383"><ele>1651.0</ele><time>2026-04-25T10:23:12.409Z</time></trkpt><trkpt lat="31.2046333" lon="-7.1313033"><ele>1651.0</ele><time>2026-04-25T10:23:13.41Z</time></trkpt><trkpt lat="31.20472" lon="-7.1313733"><ele>1651.0</ele><time>2026-04-25T10:23:14.409Z</time></trkpt><trkpt lat="31.2048083" lon="-7.13145"><ele>1651.0</ele><time>2026-04-25T10:23:15.409Z</time></trkpt><trkpt lat="31.2049033" lon="-7.1315333"><ele>1647.25</ele><time>2026-04-25T10:23:16.409Z</time></trkpt><trkpt lat="31.2050067" lon="-7.131615"><ele>1643.5</ele><time>2026-04-25T10:23:17.41Z</time></trkpt><trkpt lat="31.205125" lon="-7.13169"><ele>1639.75</ele><time>2026-04-25T10:23:18.409Z</time></trkpt><trkpt lat="31.205245" lon="-7.131775"><ele>1636.0</ele><time>2026-04-25T10:23:19.41Z</time></trkpt><trkpt lat="31.20536" lon="-7.1318783"><ele>1636.0</ele><time>2026-04-25T10:23:20.409Z</time></trkpt><trkpt lat="31.205475" lon="-7.131995"><ele>1636.0</ele><time>2026-04-25T10:23:21.409Z</time></trkpt><trkpt lat="31.205585" lon="-7.13211"><ele>1636.0</ele><time>2026-04-25T10:23:22.409Z</time></trkpt><trkpt lat="31.2056917" lon="-7.1322217"><ele>1636.0</ele><time>2026-04-25T10:23:23.409Z</time></trkpt><trkpt lat="31.2057783" lon="-7.1323317"><ele>1635.0</ele><time>2026-04-25T10:23:24.409Z</time></trkpt><trkpt lat="31.2058583" lon="-7.1324383"><ele>1634.0</ele><time>2026-04-25T10:23:25.409Z</time></trkpt><trkpt lat="31.20594" lon="-7.132535"><ele>1633.0</ele><time>2026-04-25T10:23:26.409Z</time></trkpt><trkpt lat="31.2060117" lon="-7.13263"><ele>1632.0</ele><time>2026-04-25T10:23:27.409Z</time></trkpt><trkpt lat="31.2060833" lon="-7.132715"><ele>1631.0</ele><time>2026-04-25T10:23:28.41Z</time></trkpt><trkpt lat="31.20615" lon="-7.1327917"><ele>1630.9999999999998</ele><time>2026-04-25T10:23:29.409Z</time></trkpt><trkpt lat="31.20622" lon="-7.13286"><ele>1631.0</ele><time>2026-04-25T10:23:30.409Z</time></trkpt><trkpt lat="31.2062817" lon="-7.13293"><ele>1631.0</ele><time>2026-04-25T10:23:31.409Z</time></trkpt><trkpt lat="31.20633" lon="-7.1330133"><ele>1631.0</ele><time>2026-04-25T10:23:32.409Z</time></trkpt><trkpt lat="31.206375" lon="-7.1331017"><ele>1630.9999999999998</ele><time>2026-04-25T10:23:33.409Z</time></trkpt><trkpt lat="31.20641" lon="-7.1331883"><ele>1631.0</ele><time>2026-04-25T10:23:34.409Z</time></trkpt><trkpt lat="31.2064583" lon="-7.1332617"><ele>1630.9999999999998</ele><time>2026-04-25T10:23:35.409Z</time></trkpt><trkpt lat="31.20652" lon="-7.1333117"><ele>1631.0</ele><time>2026-04-25T10:23:36.409Z</time></trkpt><trkpt lat="31.2065933" lon="-7.13334"><ele>1631.0</ele><time>2026-04-25T10:23:37.41Z</time></trkpt><trkpt lat="31.2066617" lon="-7.1333233"><ele>1631.0</ele><time>2026-04-25T10:23:38.409Z</time></trkpt><trkpt lat="31.2067233" lon="-7.1332783"><ele>1630.9999999999998</ele><time>2026-04-25T10:23:39.409Z</time></trkpt><trkpt lat="31.2067433" lon="-7.133185"><ele>1631.0</ele><time>2026-04-25T10:23:40.409Z</time></trkpt><trkpt lat="31.2067417" lon="-7.1330933"><ele>1632.9999999999998</ele><time>2026-04-25T10:23:41.409Z</time></trkpt><trkpt lat="31.20674" lon="-7.1329933"><ele>1635.0</ele><time>2026-04-25T10:23:42.409Z</time></trkpt><trkpt lat="31.20673" lon="-7.132895"><ele>1637.0</ele><time>2026-04-25T10:23:43.409Z</time></trkpt><trkpt lat="31.2067267" lon="-7.1327917"><ele>1639.0</ele><time>2026-04-25T10:23:44.409Z</time></trkpt><trkpt lat="31.206725" lon="-7.132695"><ele>1640.9999999999998</ele><time>2026-04-25T10:23:45.409Z</time></trkpt><trkpt lat="31.2067283" lon="-7.13261"><ele>1643.0</ele><time>2026-04-25T10:23:46.409Z</time></trkpt><trkpt lat="31.2067367" lon="-7.1325333"><ele>1643.0</ele><time>2026-04-25T10:23:47.409Z</time></trkpt><trkpt lat="31.2067783" lon="-7.132405"><ele>1643.0</ele><time>2026-04-25T10:23:49.409Z</time></trkpt><trkpt lat="31.2068783" lon="-7.132335"><ele>1643.0</ele><time>2026-04-25T10:23:51.409Z</time></trkpt><trkpt lat="31.2069783" lon="-7.1323867"><ele>1643.0</ele><time>2026-04-25T10:23:53.409Z</time></trkpt><trkpt lat="31.207045" lon="-7.1325133"><ele>1643.0</ele><time>2026-04-25T10:23:55.409Z</time></trkpt><trkpt lat="31.2070717" lon="-7.1325867"><ele>1643.0</ele><time>2026-04-25T10:23:56.409Z</time></trkpt><trkpt lat="31.207105" lon="-7.132665"><ele>1643.0</ele><time>2026-04-25T10:23:57.409Z</time></trkpt><trkpt lat="31.207135" lon="-7.1327433"><ele>1643.0</ele><time>2026-04-25T10:23:58.409Z</time></trkpt><trkpt lat="31.2071633" lon="-7.13282"><ele>1643.0</ele><time>2026-04-25T10:23:59.409Z</time></trkpt><trkpt lat="31.2072033" lon="-7.1328967"><ele>1643.0</ele><time>2026-04-25T10:24:00.409Z</time></trkpt><trkpt lat="31.2072433" lon="-7.13297"><ele>1643.0</ele><time>2026-04-25T10:24:01.409Z</time></trkpt><trkpt lat="31.207295" lon="-7.13303"><ele>1642.9999999999998</ele><time>2026-04-25T10:24:02.409Z</time></trkpt><trkpt lat="31.207355" lon="-7.1330983"><ele>1643.0</ele><time>2026-04-25T10:24:03.409Z</time></trkpt><trkpt lat="31.20741" lon="-7.1331583"><ele>1643.0</ele><time>2026-04-25T10:24:04.409Z</time></trkpt><trkpt lat="31.2074567" lon="-7.1332233"><ele>1643.0</ele><time>2026-04-25T10:24:05.409Z</time></trkpt><trkpt lat="31.2075083" lon="-7.133275"><ele>1642.9999999999998</ele><time>2026-04-25T10:24:06.409Z</time></trkpt><trkpt lat="31.2076017" lon="-7.1333667"><ele>1643.0</ele><time>2026-04-25T10:24:08.409Z</time></trkpt><trkpt lat="31.20771" lon="-7.1334283"><ele>1641.2857142857142</ele><time>2026-04-25T10:24:10.409Z</time></trkpt><trkpt lat="31.2077683" lon="-7.1334617"><ele>1639.5714285714287</ele><time>2026-04-25T10:24:11.409Z</time></trkpt><trkpt lat="31.2078317" lon="-7.1334967"><ele>1637.857142857143</ele><time>2026-04-25T10:24:12.409Z</time></trkpt><trkpt lat="31.2078967" lon="-7.1335333"><ele>1636.142857142857</ele><time>2026-04-25T10:24:13.409Z</time></trkpt><trkpt lat="31.2079583" lon="-7.133565"><ele>1634.4285714285716</ele><time>2026-04-25T10:24:14.409Z</time></trkpt><trkpt lat="31.2080217" lon="-7.1336017"><ele>1632.7142857142858</ele><time>2026-04-25T10:24:15.409Z</time></trkpt><trkpt lat="31.208085" lon="-7.13363"><ele>1631.0</ele><time>2026-04-25T10:24:16.41Z</time></trkpt><trkpt lat="31.2081433" lon="-7.13366"><ele>1631.9999999999998</ele><time>2026-04-25T10:24:17.409Z</time></trkpt><trkpt lat="31.2081983" lon="-7.1336983"><ele>1633.0</ele><time>2026-04-25T10:24:18.409Z</time></trkpt><trkpt lat="31.2083" lon="-7.13375"><ele>1634.0</ele><time>2026-04-25T10:24:20.409Z</time></trkpt><trkpt lat="31.2083833" lon="-7.1337833"><ele>1635.0</ele><time>2026-04-25T10:24:22.409Z</time></trkpt><trkpt lat="31.2084567" lon="-7.1338083"><ele>1635.9999999999998</ele><time>2026-04-25T10:24:24.41Z</time></trkpt><trkpt lat="31.2085183" lon="-7.1338283"><ele>1637.0</ele><time>2026-04-25T10:24:26.409Z</time></trkpt><trkpt lat="31.208585" lon="-7.1338367"><ele>1636.9999999999998</ele><time>2026-04-25T10:25:00.409Z</time></trkpt><trkpt lat="31.2086967" lon="-7.13385"><ele>1637.0</ele><time>2026-04-25T10:25:02.409Z</time></trkpt><trkpt lat="31.2087833" lon="-7.13384"><ele>1637.0</ele><time>2026-04-25T10:25:03.409Z</time></trkpt><trkpt lat="31.2088667" lon="-7.1338283"><ele>1637.0</ele><time>2026-04-25T10:25:04.409Z</time></trkpt><trkpt lat="31.2089433" lon="-7.1338167"><ele>1636.9999999999998</ele><time>2026-04-25T10:25:05.409Z</time></trkpt><trkpt lat="31.2090067" lon="-7.1338033"><ele>1637.0</ele><time>2026-04-25T10:25:06.409Z</time></trkpt><trkpt lat="31.2091133" lon="-7.1337783"><ele>1638.0</ele><time>2026-04-25T10:25:08.409Z</time></trkpt><trkpt lat="31.2092117" lon="-7.1337833"><ele>1639.0</ele><time>2026-04-25T10:25:10.409Z</time></trkpt><trkpt lat="31.209285" lon="-7.1337467"><ele>1640.0</ele><time>2026-04-25T10:29:30.408Z</time></trkpt><trkpt lat="31.209335" lon="-7.1336733"><ele>1641.0</ele><time>2026-04-25T10:29:32.408Z</time></trkpt><trkpt lat="31.20943" lon="-7.1335883"><ele>1642.0</ele><time>2026-04-25T10:29:34.408Z</time></trkpt><trkpt lat="31.2094717" lon="-7.1335167"><ele>1642.0</ele><time>2026-04-25T10:29:35.408Z</time></trkpt><trkpt lat="31.2095067" lon="-7.1334283"><ele>1642.0</ele><time>2026-04-25T10:29:36.409Z</time></trkpt><trkpt lat="31.2095433" lon="-7.1333167"><ele>1642.0</ele><time>2026-04-25T10:29:37.408Z</time></trkpt><trkpt lat="31.2095817" lon="-7.1331883"><ele>1642.0</ele><time>2026-04-25T10:29:38.408Z</time></trkpt><trkpt lat="31.20963" lon="-7.1330633"><ele>1642.0</ele><time>2026-04-25T10:29:39.409Z</time></trkpt><trkpt lat="31.2096767" lon="-7.13295"><ele>1641.0</ele><time>2026-04-25T10:29:40.408Z</time></trkpt><trkpt lat="31.209725" lon="-7.1328433"><ele>1640.0</ele><time>2026-04-25T10:29:41.408Z</time></trkpt><trkpt lat="31.2097717" lon="-7.1327267"><ele>1639.0</ele><time>2026-04-25T10:29:42.408Z</time></trkpt><trkpt lat="31.2098233" lon="-7.1326083"><ele>1638.0</ele><time>2026-04-25T10:29:43.409Z</time></trkpt><trkpt lat="31.209875" lon="-7.132485"><ele>1637.0</ele><time>2026-04-25T10:29:44.408Z</time></trkpt><trkpt lat="31.20993" lon="-7.1323567"><ele>1637.0</ele><time>2026-04-25T10:29:45.408Z</time></trkpt><trkpt lat="31.2099883" lon="-7.1322233"><ele>1637.0</ele><time>2026-04-25T10:29:46.408Z</time></trkpt><trkpt lat="31.2100517" lon="-7.13209"><ele>1637.0</ele><time>2026-04-25T10:29:47.408Z</time></trkpt><trkpt lat="31.2101167" lon="-7.13196"><ele>1637.0</ele><time>2026-04-25T10:29:48.408Z</time></trkpt><trkpt lat="31.210185" lon="-7.1318267"><ele>1637.0</ele><time>2026-04-25T10:29:49.408Z</time></trkpt><trkpt lat="31.2102517" lon="-7.1316933"><ele>1637.0</ele><time>2026-04-25T10:29:50.408Z</time></trkpt><trkpt lat="31.2103033" lon="-7.131565"><ele>1637.0</ele><time>2026-04-25T10:29:51.408Z</time></trkpt><trkpt lat="31.2103717" lon="-7.1314383"><ele>1637.0</ele><time>2026-04-25T10:29:52.408Z</time></trkpt><trkpt lat="31.210435" lon="-7.1313183"><ele>1638.25</ele><time>2026-04-25T10:29:53.408Z</time></trkpt><trkpt lat="31.210495" lon="-7.1311983"><ele>1639.5</ele><time>2026-04-25T10:29:54.408Z</time></trkpt><trkpt lat="31.2105517" lon="-7.13108"><ele>1640.75</ele><time>2026-04-25T10:29:55.408Z</time></trkpt><trkpt lat="31.21061" lon="-7.1309583"><ele>1642.0</ele><time>2026-04-25T10:29:56.409Z</time></trkpt><trkpt lat="31.210665" lon="-7.13084"><ele>1638.75</ele><time>2026-04-25T10:29:57.408Z</time></trkpt><trkpt lat="31.2107167" lon="-7.130715"><ele>1635.5</ele><time>2026-04-25T10:29:58.408Z</time></trkpt><trkpt lat="31.21076" lon="-7.1305917"><ele>1632.25</ele><time>2026-04-25T10:29:59.408Z</time></trkpt><trkpt lat="31.2108083" lon="-7.1304617"><ele>1629.0</ele><time>2026-04-25T10:30:00.408Z</time></trkpt><trkpt lat="31.2108567" lon="-7.1303417"><ele>1629.0</ele><time>2026-04-25T10:30:01.408Z</time></trkpt><trkpt lat="31.2109033" lon="-7.1302217"><ele>1629.0</ele><time>2026-04-25T10:30:02.408Z</time></trkpt><trkpt lat="31.21095" lon="-7.1301183"><ele>1629.0</ele><time>2026-04-25T10:30:03.408Z</time></trkpt><trkpt lat="31.21101" lon="-7.1300317"><ele>1629.0</ele><time>2026-04-25T10:30:04.408Z</time></trkpt><trkpt lat="31.211075" lon="-7.1299833"><ele>1629.0</ele><time>2026-04-25T10:30:05.408Z</time></trkpt><trkpt lat="31.2111533" lon="-7.1299717"><ele>1629.0</ele><time>2026-04-25T10:30:06.408Z</time></trkpt><trkpt lat="31.2112283" lon="-7.129995"><ele>1629.0</ele><time>2026-04-25T10:30:07.408Z</time></trkpt><trkpt lat="31.2113067" lon="-7.1300567"><ele>1629.0</ele><time>2026-04-25T10:30:08.408Z</time></trkpt><trkpt lat="31.2113733" lon="-7.1301367"><ele>1629.0</ele><time>2026-04-25T10:30:09.408Z</time></trkpt><trkpt lat="31.2114383" lon="-7.130235"><ele>1629.0</ele><time>2026-04-25T10:30:10.408Z</time></trkpt><trkpt lat="31.2114983" lon="-7.1303517"><ele>1629.5</ele><time>2026-04-25T10:30:11.408Z</time></trkpt><trkpt lat="31.211545" lon="-7.130475"><ele>1630.0</ele><time>2026-04-25T10:30:12.408Z</time></trkpt><trkpt lat="31.21158" lon="-7.13061"><ele>1630.5</ele><time>2026-04-25T10:30:13.408Z</time></trkpt><trkpt lat="31.2116033" lon="-7.1307433"><ele>1631.0</ele><time>2026-04-25T10:30:14.408Z</time></trkpt><trkpt lat="31.21164" lon="-7.13088"><ele>1631.5</ele><time>2026-04-25T10:30:15.408Z</time></trkpt><trkpt lat="31.2116817" lon="-7.13102"><ele>1632.0</ele><time>2026-04-25T10:30:16.408Z</time></trkpt><trkpt lat="31.211725" lon="-7.1311667"><ele>1632.5</ele><time>2026-04-25T10:30:17.408Z</time></trkpt><trkpt lat="31.2117683" lon="-7.1313117"><ele>1633.0</ele><time>2026-04-25T10:30:18.408Z</time></trkpt><trkpt lat="31.2118" lon="-7.1314617"><ele>1633.0</ele><time>2026-04-25T10:30:19.408Z</time></trkpt><trkpt lat="31.2118133" lon="-7.1316133"><ele>1633.0</ele><time>2026-04-25T10:30:20.408Z</time></trkpt><trkpt lat="31.21182" lon="-7.1317533"><ele>1633.0</ele><time>2026-04-25T10:30:21.408Z</time></trkpt><trkpt lat="31.21182" lon="-7.1318833"><ele>1633.0</ele><time>2026-04-25T10:30:22.408Z</time></trkpt><trkpt lat="31.21182" lon="-7.1320133"><ele>1633.0</ele><time>2026-04-25T10:30:23.408Z</time></trkpt><trkpt lat="31.2118267" lon="-7.132145"><ele>1633.0</ele><time>2026-04-25T10:30:24.408Z</time></trkpt><trkpt lat="31.211845" lon="-7.1322733"><ele>1633.0</ele><time>2026-04-25T10:30:25.408Z</time></trkpt><trkpt lat="31.21186" lon="-7.1323967"><ele>1633.0</ele><time>2026-04-25T10:30:26.408Z</time></trkpt><trkpt lat="31.21188" lon="-7.1325033"><ele>1633.0</ele><time>2026-04-25T10:30:27.408Z</time></trkpt><trkpt lat="31.2118933" lon="-7.1325933"><ele>1632.8000000000002</ele><time>2026-04-25T10:30:28.408Z</time></trkpt><trkpt lat="31.21189" lon="-7.1326867"><ele>1632.6</ele><time>2026-04-25T10:30:29.409Z</time></trkpt><trkpt lat="31.2118567" lon="-7.132795"><ele>1632.4</ele><time>2026-04-25T10:30:30.408Z</time></trkpt><trkpt lat="31.2118083" lon="-7.1329117"><ele>1632.1999999999998</ele><time>2026-04-25T10:30:31.408Z</time></trkpt><trkpt lat="31.2117733" lon="-7.1330183"><ele>1632.0</ele><time>2026-04-25T10:30:32.408Z</time></trkpt><trkpt lat="31.2117633" lon="-7.1331167"><ele>1632.0</ele><time>2026-04-25T10:30:33.408Z</time></trkpt><trkpt lat="31.2117783" lon="-7.1332033"><ele>1632.0</ele><time>2026-04-25T10:30:34.408Z</time></trkpt><trkpt lat="31.2118133" lon="-7.1332683"><ele>1632.0</ele><time>2026-04-25T10:30:35.408Z</time></trkpt><trkpt lat="31.21188" lon="-7.13331"><ele>1632.0</ele><time>2026-04-25T10:30:36.408Z</time></trkpt><trkpt lat="31.2119633" lon="-7.133335"><ele>1632.0</ele><time>2026-04-25T10:30:37.408Z</time></trkpt><trkpt lat="31.21206" lon="-7.133335"><ele>1632.0</ele><time>2026-04-25T10:30:38.408Z</time></trkpt><trkpt lat="31.212165" lon="-7.13333"><ele>1631.1999999999998</ele><time>2026-04-25T10:30:39.408Z</time></trkpt><trkpt lat="31.212265" lon="-7.1333333"><ele>1630.4</ele><time>2026-04-25T10:30:40.408Z</time></trkpt><trkpt lat="31.2123583" lon="-7.1333433"><ele>1629.6</ele><time>2026-04-25T10:30:41.408Z</time></trkpt><trkpt lat="31.21245" lon="-7.1333583"><ele>1628.8000000000002</ele><time>2026-04-25T10:30:42.408Z</time></trkpt><trkpt lat="31.212545" lon="-7.133375"><ele>1628.0</ele><time>2026-04-25T10:30:43.408Z</time></trkpt><trkpt lat="31.2126317" lon="-7.13339"><ele>1630.6666666666665</ele><time>2026-04-25T10:30:44.408Z</time></trkpt><trkpt lat="31.2127183" lon="-7.1334117"><ele>1633.3333333333333</ele><time>2026-04-25T10:30:45.408Z</time></trkpt><trkpt lat="31.2127983" lon="-7.13344"><ele>1636.0</ele><time>2026-04-25T10:30:46.408Z</time></trkpt><trkpt lat="31.2128867" lon="-7.1334667"><ele>1638.6666666666665</ele><time>2026-04-25T10:30:47.408Z</time></trkpt><trkpt lat="31.2129717" lon="-7.1335067"><ele>1641.3333333333333</ele><time>2026-04-25T10:30:48.408Z</time></trkpt><trkpt lat="31.2130417" lon="-7.1335633"><ele>1644.0</ele><time>2026-04-25T10:30:49.408Z</time></trkpt><trkpt lat="31.2131167" lon="-7.133625"><ele>1646.8000000000002</ele><time>2026-04-25T10:30:50.408Z</time></trkpt><trkpt lat="31.21319" lon="-7.1337"><ele>1649.6000000000001</ele><time>2026-04-25T10:30:51.408Z</time></trkpt><trkpt lat="31.2132733" lon="-7.1337833"><ele>1652.4</ele><time>2026-04-25T10:30:52.408Z</time></trkpt><trkpt lat="31.2133717" lon="-7.1338567"><ele>1655.2</ele><time>2026-04-25T10:30:53.408Z</time></trkpt><trkpt lat="31.213465" lon="-7.1339233"><ele>1658.0</ele><time>2026-04-25T10:30:54.408Z</time></trkpt><trkpt lat="31.2135567" lon="-7.1339583"><ele>1657.9999999999998</ele><time>2026-04-25T10:30:55.408Z</time></trkpt><trkpt lat="31.2136433" lon="-7.133985"><ele>1658.0</ele><time>2026-04-25T10:30:56.408Z</time></trkpt><trkpt lat="31.2137283" lon="-7.1340117"><ele>1658.0</ele><time>2026-04-25T10:30:57.408Z</time></trkpt><trkpt lat="31.2138" lon="-7.13405"><ele>1658.0</ele><time>2026-04-25T10:30:58.408Z</time></trkpt><trkpt lat="31.21387" lon="-7.1340917"><ele>1657.9999999999998</ele><time>2026-04-25T10:30:59.408Z</time></trkpt><trkpt lat="31.2139367" lon="-7.1341417"><ele>1658.0</ele><time>2026-04-25T10:31:00.408Z</time></trkpt><trkpt lat="31.2140033" lon="-7.13419"><ele>1657.1666666666665</ele><time>2026-04-25T10:31:01.408Z</time></trkpt><trkpt lat="31.2140633" lon="-7.1342467"><ele>1656.3333333333333</ele><time>2026-04-25T10:31:02.408Z</time></trkpt><trkpt lat="31.2141233" lon="-7.134305"><ele>1655.5</ele><time>2026-04-25T10:31:03.408Z</time></trkpt><trkpt lat="31.21418" lon="-7.13436"><ele>1654.6666666666665</ele><time>2026-04-25T10:31:04.408Z</time></trkpt><trkpt lat="31.2142367" lon="-7.1344183"><ele>1653.8333333333333</ele><time>2026-04-25T10:31:05.408Z</time></trkpt><trkpt lat="31.2142933" lon="-7.1344767"><ele>1653.0</ele><time>2026-04-25T10:31:06.408Z</time></trkpt><trkpt lat="31.21436" lon="-7.13452"><ele>1653.0</ele><time>2026-04-25T10:31:07.408Z</time></trkpt><trkpt lat="31.2144217" lon="-7.1345683"><ele>1653.0</ele><time>2026-04-25T10:31:08.408Z</time></trkpt><trkpt lat="31.2144733" lon="-7.1346133"><ele>1653.0</ele><time>2026-04-25T10:31:09.408Z</time></trkpt><trkpt lat="31.2145233" lon="-7.13466"><ele>1653.0</ele><time>2026-04-25T10:31:10.408Z</time></trkpt><trkpt lat="31.2146233" lon="-7.13474"><ele>1653.0</ele><time>2026-04-25T10:31:12.408Z</time></trkpt><trkpt lat="31.2147117" lon="-7.1347967"><ele>1653.0</ele><time>2026-04-25T10:31:14.409Z</time></trkpt><trkpt lat="31.2147933" lon="-7.134785"><ele>1654.2</ele><time>2026-04-25T10:31:16.408Z</time></trkpt><trkpt lat="31.2148783" lon="-7.1347533"><ele>1655.4</ele><time>2026-04-25T10:31:18.408Z</time></trkpt><trkpt lat="31.2149383" lon="-7.13468"><ele>1656.6000000000001</ele><time>2026-04-25T10:31:20.408Z</time></trkpt><trkpt lat="31.21499" lon="-7.1345833"><ele>1657.8000000000002</ele><time>2026-04-25T10:31:22.408Z</time></trkpt><trkpt lat="31.215055" lon="-7.1344883"><ele>1659.0</ele><time>2026-04-25T10:31:24.408Z</time></trkpt><trkpt lat="31.2151183" lon="-7.1344083"><ele>1659.0</ele><time>2026-04-25T10:31:26.408Z</time></trkpt><trkpt lat="31.21518" lon="-7.1343333"><ele>1659.0</ele><time>2026-04-25T10:31:28.408Z</time></trkpt><trkpt lat="31.21524" lon="-7.13426"><ele>1659.0</ele><time>2026-04-25T10:31:30.408Z</time></trkpt><trkpt lat="31.2153083" lon="-7.134195"><ele>1659.0</ele><time>2026-04-25T10:31:32.408Z</time></trkpt><trkpt lat="31.2154" lon="-7.134165"><ele>1659.0</ele><time>2026-04-25T10:31:34.408Z</time></trkpt><trkpt lat="31.2154867" lon="-7.1341467"><ele>1659.0</ele><time>2026-04-25T10:31:36.408Z</time></trkpt><trkpt lat="31.2155767" lon="-7.1341533"><ele>1656.8000000000002</ele><time>2026-04-25T10:31:38.408Z</time></trkpt><trkpt lat="31.21567" lon="-7.1341733"><ele>1654.6000000000001</ele><time>2026-04-25T10:31:40.408Z</time></trkpt><trkpt lat="31.215765" lon="-7.1341817"><ele>1652.4</ele><time>2026-04-25T10:31:42.408Z</time></trkpt><trkpt lat="31.2158467" lon="-7.1342067"><ele>1650.2</ele><time>2026-04-25T10:31:44.408Z</time></trkpt><trkpt lat="31.2159367" lon="-7.134225"><ele>1648.0</ele><time>2026-04-25T10:31:46.408Z</time></trkpt><trkpt lat="31.216025" lon="-7.1342283"><ele>1648.0</ele><time>2026-04-25T10:31:48.408Z</time></trkpt><trkpt lat="31.2161167" lon="-7.1342517"><ele>1648.0</ele><time>2026-04-25T10:31:50.408Z</time></trkpt><trkpt lat="31.2161867" lon="-7.1343233"><ele>1648.0</ele><time>2026-04-25T10:31:52.409Z</time></trkpt><trkpt lat="31.21621" lon="-7.1344283"><ele>1648.0</ele><time>2026-04-25T10:31:54.408Z</time></trkpt><trkpt lat="31.216185" lon="-7.1345383"><ele>1648.0</ele><time>2026-04-25T10:31:56.408Z</time></trkpt><trkpt lat="31.216135" lon="-7.134655"><ele>1648.0</ele><time>2026-04-25T10:31:58.408Z</time></trkpt><trkpt lat="31.2160817" lon="-7.1348"><ele>1648.0</ele><time>2026-04-25T10:32:00.408Z</time></trkpt><trkpt lat="31.21606" lon="-7.13489"><ele>1648.0</ele><time>2026-04-25T10:32:01.408Z</time></trkpt><trkpt lat="31.2160517" lon="-7.135005"><ele>1648.0</ele><time>2026-04-25T10:32:02.408Z</time></trkpt><trkpt lat="31.2160517" lon="-7.1351267"><ele>1648.0</ele><time>2026-04-25T10:32:03.408Z</time></trkpt><trkpt lat="31.2160367" lon="-7.135235"><ele>1648.6666666666667</ele><time>2026-04-25T10:32:04.408Z</time></trkpt><trkpt lat="31.2160167" lon="-7.135325"><ele>1649.3333333333335</ele><time>2026-04-25T10:32:05.408Z</time></trkpt><trkpt lat="31.2159917" lon="-7.13542"><ele>1650.0</ele><time>2026-04-25T10:32:06.408Z</time></trkpt><trkpt lat="31.2159733" lon="-7.135515"><ele>1650.6666666666665</ele><time>2026-04-25T10:32:07.408Z</time></trkpt><trkpt lat="31.215975" lon="-7.1356017"><ele>1651.3333333333333</ele><time>2026-04-25T10:32:08.408Z</time></trkpt><trkpt lat="31.2159867" lon="-7.1356883"><ele>1652.0</ele><time>2026-04-25T10:32:09.408Z</time></trkpt><trkpt lat="31.2160017" lon="-7.1357717"><ele>1651.9999999999998</ele><time>2026-04-25T10:32:10.408Z</time></trkpt><trkpt lat="31.2160217" lon="-7.1358617"><ele>1652.0</ele><time>2026-04-25T10:32:11.408Z</time></trkpt><trkpt lat="31.216045" lon="-7.1359583"><ele>1652.0</ele><time>2026-04-25T10:32:12.408Z</time></trkpt><trkpt lat="31.216065" lon="-7.1360517"><ele>1652.0</ele><time>2026-04-25T10:32:13.408Z</time></trkpt><trkpt lat="31.2160783" lon="-7.1361483"><ele>1651.9999999999998</ele><time>2026-04-25T10:32:14.408Z</time></trkpt><trkpt lat="31.2160883" lon="-7.136245"><ele>1652.0</ele><time>2026-04-25T10:32:15.408Z</time></trkpt><trkpt lat="31.2161117" lon="-7.1363433"><ele>1652.0</ele><time>2026-04-25T10:32:16.408Z</time></trkpt><trkpt lat="31.21615" lon="-7.13644"><ele>1652.0</ele><time>2026-04-25T10:32:17.408Z</time></trkpt><trkpt lat="31.2162067" lon="-7.1365333"><ele>1652.0</ele><time>2026-04-25T10:32:18.409Z</time></trkpt><trkpt lat="31.21628" lon="-7.13662"><ele>1652.0</ele><time>2026-04-25T10:32:19.409Z</time></trkpt><trkpt lat="31.216355" lon="-7.1367067"><ele>1652.0</ele><time>2026-04-25T10:32:20.408Z</time></trkpt><trkpt lat="31.216435" lon="-7.1367967"><ele>1656.75</ele><time>2026-04-25T10:32:21.408Z</time></trkpt><trkpt lat="31.2165117" lon="-7.136895"><ele>1661.5</ele><time>2026-04-25T10:32:22.409Z</time></trkpt><trkpt lat="31.216595" lon="-7.1369967"><ele>1666.25</ele><time>2026-04-25T10:32:23.408Z</time></trkpt><trkpt lat="31.21668" lon="-7.13709"><ele>1671.0</ele><time>2026-04-25T10:32:24.408Z</time></trkpt><trkpt lat="31.2167617" lon="-7.1371833"><ele>1671.0</ele><time>2026-04-25T10:32:25.408Z</time></trkpt><trkpt lat="31.216845" lon="-7.13728"><ele>1671.0</ele><time>2026-04-25T10:32:26.408Z</time></trkpt><trkpt lat="31.2169267" lon="-7.1373767"><ele>1671.0</ele><time>2026-04-25T10:32:27.408Z</time></trkpt><trkpt lat="31.2170133" lon="-7.137465"><ele>1671.0</ele><time>2026-04-25T10:32:28.408Z</time></trkpt><trkpt lat="31.217115" lon="-7.1375483"><ele>1669.75</ele><time>2026-04-25T10:32:29.408Z</time></trkpt><trkpt lat="31.2172283" lon="-7.1376217"><ele>1668.5</ele><time>2026-04-25T10:32:30.408Z</time></trkpt><trkpt lat="31.2173467" lon="-7.1376883"><ele>1667.25</ele><time>2026-04-25T10:32:31.408Z</time></trkpt><trkpt lat="31.2174633" lon="-7.137745"><ele>1666.0</ele><time>2026-04-25T10:32:32.408Z</time></trkpt><trkpt lat="31.2175883" lon="-7.1377717"><ele>1666.0</ele><time>2026-04-25T10:32:33.408Z</time></trkpt><trkpt lat="31.2177017" lon="-7.1377767"><ele>1666.0</ele><time>2026-04-25T10:32:34.408Z</time></trkpt><trkpt lat="31.2178217" lon="-7.137755"><ele>1666.0</ele><time>2026-04-25T10:32:35.408Z</time></trkpt><trkpt lat="31.2179233" lon="-7.13774"><ele>1666.0</ele><time>2026-04-25T10:32:36.408Z</time></trkpt><trkpt lat="31.2180217" lon="-7.1377533"><ele>1666.0</ele><time>2026-04-25T10:32:37.408Z</time></trkpt><trkpt lat="31.2181033" lon="-7.1378133"><ele>1666.6</ele><time>2026-04-25T10:32:38.408Z</time></trkpt><trkpt lat="31.218175" lon="-7.1378917"><ele>1667.1999999999998</ele><time>2026-04-25T10:32:39.408Z</time></trkpt><trkpt lat="31.2182433" lon="-7.1379817"><ele>1667.8000000000002</ele><time>2026-04-25T10:32:40.408Z</time></trkpt><trkpt lat="31.2183083" lon="-7.138075"><ele>1668.4</ele><time>2026-04-25T10:32:41.408Z</time></trkpt><trkpt lat="31.2183683" lon="-7.1381833"><ele>1669.0</ele><time>2026-04-25T10:32:42.408Z</time></trkpt><trkpt lat="31.2184317" lon="-7.1382967"><ele>1665.4</ele><time>2026-04-25T10:32:43.408Z</time></trkpt><trkpt lat="31.2184783" lon="-7.1384217"><ele>1661.8000000000002</ele><time>2026-04-25T10:32:44.408Z</time></trkpt><trkpt lat="31.21851" lon="-7.1385417"><ele>1658.1999999999998</ele><time>2026-04-25T10:32:45.408Z</time></trkpt><trkpt lat="31.2185267" lon="-7.1386633"><ele>1654.6</ele><time>2026-04-25T10:32:46.408Z</time></trkpt><trkpt lat="31.218535" lon="-7.1387783"><ele>1651.0</ele><time>2026-04-25T10:32:47.408Z</time></trkpt><trkpt lat="31.2185367" lon="-7.1388933"><ele>1651.0</ele><time>2026-04-25T10:32:48.408Z</time></trkpt><trkpt lat="31.2185367" lon="-7.139005"><ele>1651.0</ele><time>2026-04-25T10:32:49.409Z</time></trkpt><trkpt lat="31.21854" lon="-7.139115"><ele>1651.0</ele><time>2026-04-25T10:32:50.408Z</time></trkpt><trkpt lat="31.2185533" lon="-7.13922"><ele>1651.0</ele><time>2026-04-25T10:32:51.408Z</time></trkpt><trkpt lat="31.2185883" lon="-7.13932"><ele>1651.0</ele><time>2026-04-25T10:32:52.408Z</time></trkpt><trkpt lat="31.2186367" lon="-7.1394167"><ele>1650.4</ele><time>2026-04-25T10:32:53.409Z</time></trkpt><trkpt lat="31.2186983" lon="-7.1395083"><ele>1649.8</ele><time>2026-04-25T10:32:54.408Z</time></trkpt><trkpt lat="31.21877" lon="-7.1395967"><ele>1649.2</ele><time>2026-04-25T10:32:55.408Z</time></trkpt><trkpt lat="31.2188567" lon="-7.1396667"><ele>1648.6000000000001</ele><time>2026-04-25T10:32:56.408Z</time></trkpt><trkpt lat="31.2189633" lon="-7.13972"><ele>1648.0</ele><time>2026-04-25T10:32:57.408Z</time></trkpt><trkpt lat="31.2190683" lon="-7.1397683"><ele>1648.2</ele><time>2026-04-25T10:32:58.408Z</time></trkpt><trkpt lat="31.2191583" lon="-7.139825"><ele>1648.4</ele><time>2026-04-25T10:32:59.408Z</time></trkpt><trkpt lat="31.21923" lon="-7.1398933"><ele>1648.6000000000001</ele><time>2026-04-25T10:33:00.408Z</time></trkpt><trkpt lat="31.2192733" lon="-7.14"><ele>1648.8000000000002</ele><time>2026-04-25T10:33:01.408Z</time></trkpt><trkpt lat="31.2192983" lon="-7.1401117"><ele>1649.0</ele><time>2026-04-25T10:33:02.408Z</time></trkpt><trkpt lat="31.2193117" lon="-7.1402367"><ele>1649.0</ele><time>2026-04-25T10:33:03.408Z</time></trkpt><trkpt lat="31.219335" lon="-7.14036"><ele>1649.0</ele><time>2026-04-25T10:33:04.408Z</time></trkpt><trkpt lat="31.2193667" lon="-7.14047"><ele>1649.0</ele><time>2026-04-25T10:33:05.408Z</time></trkpt><trkpt lat="31.2194" lon="-7.1405767"><ele>1649.0</ele><time>2026-04-25T10:33:06.408Z</time></trkpt><trkpt lat="31.21943" lon="-7.1406717"><ele>1649.0</ele><time>2026-04-25T10:33:07.408Z</time></trkpt><trkpt lat="31.2194567" lon="-7.140765"><ele>1645.8333333333333</ele><time>2026-04-25T10:33:08.408Z</time></trkpt><trkpt lat="31.219475" lon="-7.1408567"><ele>1642.6666666666665</ele><time>2026-04-25T10:33:09.408Z</time></trkpt><trkpt lat="31.2195067" lon="-7.1409367"><ele>1639.5</ele><time>2026-04-25T10:33:10.408Z</time></trkpt><trkpt lat="31.2195433" lon="-7.1410133"><ele>1636.3333333333335</ele><time>2026-04-25T10:33:11.408Z</time></trkpt><trkpt lat="31.2195867" lon="-7.1410767"><ele>1633.1666666666667</ele><time>2026-04-25T10:33:12.408Z</time></trkpt><trkpt lat="31.2196583" lon="-7.1411083"><ele>1630.0</ele><time>2026-04-25T10:33:13.408Z</time></trkpt><trkpt lat="31.2197483" lon="-7.1411167"><ele>1634.4</ele><time>2026-04-25T10:33:14.408Z</time></trkpt><trkpt lat="31.2198417" lon="-7.14113"><ele>1638.8</ele><time>2026-04-25T10:33:15.408Z</time></trkpt><trkpt lat="31.2199467" lon="-7.1411433"><ele>1643.1999999999998</ele><time>2026-04-25T10:33:16.408Z</time></trkpt><trkpt lat="31.2200483" lon="-7.1411717"><ele>1647.6</ele><time>2026-04-25T10:33:17.408Z</time></trkpt><trkpt lat="31.220155" lon="-7.1411983"><ele>1652.0</ele><time>2026-04-25T10:33:18.408Z</time></trkpt><trkpt lat="31.2202683" lon="-7.1412317"><ele>1652.0</ele><time>2026-04-25T10:33:19.408Z</time></trkpt><trkpt lat="31.2203783" lon="-7.14127"><ele>1652.0</ele><time>2026-04-25T10:33:20.408Z</time></trkpt><trkpt lat="31.2204883" lon="-7.1413"><ele>1652.0</ele><time>2026-04-25T10:33:21.408Z</time></trkpt><trkpt lat="31.2206017" lon="-7.1413233"><ele>1652.0</ele><time>2026-04-25T10:33:22.408Z</time></trkpt><trkpt lat="31.22071" lon="-7.1413533"><ele>1656.75</ele><time>2026-04-25T10:33:23.408Z</time></trkpt><trkpt lat="31.220815" lon="-7.1413883"><ele>1661.5</ele><time>2026-04-25T10:33:24.408Z</time></trkpt><trkpt lat="31.2209233" lon="-7.14142"><ele>1666.25</ele><time>2026-04-25T10:33:25.408Z</time></trkpt><trkpt lat="31.2210367" lon="-7.141455"><ele>1671.0</ele><time>2026-04-25T10:33:26.408Z</time></trkpt><trkpt lat="31.2211467" lon="-7.1414867"><ele>1671.0</ele><time>2026-04-25T10:33:27.408Z</time></trkpt><trkpt lat="31.2212533" lon="-7.1415283"><ele>1671.0</ele><time>2026-04-25T10:33:28.408Z</time></trkpt><trkpt lat="31.2213533" lon="-7.1415883"><ele>1671.0</ele><time>2026-04-25T10:33:29.408Z</time></trkpt><trkpt lat="31.221445" lon="-7.14167"><ele>1671.0</ele><time>2026-04-25T10:33:30.408Z</time></trkpt><trkpt lat="31.22153" lon="-7.1417483"><ele>1671.0</ele><time>2026-04-25T10:33:31.409Z</time></trkpt><trkpt lat="31.2216017" lon="-7.14184"><ele>1670.4</ele><time>2026-04-25T10:33:32.408Z</time></trkpt><trkpt lat="31.22167" lon="-7.1419283"><ele>1669.8</ele><time>2026-04-25T10:33:33.408Z</time></trkpt><trkpt lat="31.2217217" lon="-7.1420233"><ele>1669.2</ele><time>2026-04-25T10:33:34.409Z</time></trkpt><trkpt lat="31.2217567" lon="-7.1421267"><ele>1668.6000000000001</ele><time>2026-04-25T10:33:35.408Z</time></trkpt><trkpt lat="31.2217783" lon="-7.1422483"><ele>1668.0</ele><time>2026-04-25T10:33:36.408Z</time></trkpt><trkpt lat="31.221795" lon="-7.142375"><ele>1666.8000000000002</ele><time>2026-04-25T10:33:37.407Z</time></trkpt><trkpt lat="31.221795" lon="-7.142485"><ele>1665.6</ele><time>2026-04-25T10:33:38.407Z</time></trkpt><trkpt lat="31.221765" lon="-7.1425733"><ele>1664.4</ele><time>2026-04-25T10:33:39.407Z</time></trkpt><trkpt lat="31.221715" lon="-7.1426467"><ele>1663.1999999999998</ele><time>2026-04-25T10:33:40.407Z</time></trkpt><trkpt lat="31.2216417" lon="-7.142695"><ele>1662.0</ele><time>2026-04-25T10:33:41.407Z</time></trkpt><trkpt lat="31.2215567" lon="-7.1428133"><ele>1662.0</ele><time>2026-04-25T10:33:43.407Z</time></trkpt><trkpt lat="31.221545" lon="-7.1429067"><ele>1662.0</ele><time>2026-04-25T10:33:44.407Z</time></trkpt><trkpt lat="31.22155" lon="-7.1430117"><ele>1662.0</ele><time>2026-04-25T10:33:45.407Z</time></trkpt><trkpt lat="31.2215717" lon="-7.14314"><ele>1662.0</ele><time>2026-04-25T10:33:46.407Z</time></trkpt><trkpt lat="31.2215867" lon="-7.1432567"><ele>1662.0</ele><time>2026-04-25T10:33:47.407Z</time></trkpt><trkpt lat="31.221615" lon="-7.1433433"><ele>1660.0</ele><time>2026-04-25T10:33:48.407Z</time></trkpt><trkpt lat="31.22165" lon="-7.1434067"><ele>1658.0</ele><time>2026-04-25T10:33:49.407Z</time></trkpt><trkpt lat="31.2217117" lon="-7.1434533"><ele>1656.0</ele><time>2026-04-25T10:33:50.407Z</time></trkpt><trkpt lat="31.221795" lon="-7.1434783"><ele>1654.0</ele><time>2026-04-25T10:33:51.407Z</time></trkpt><trkpt lat="31.2219033" lon="-7.143465"><ele>1652.0</ele><time>2026-04-25T10:33:52.407Z</time></trkpt><trkpt lat="31.2220283" lon="-7.1434433"><ele>1652.0</ele><time>2026-04-25T10:33:53.408Z</time></trkpt><trkpt lat="31.2221633" lon="-7.1434383"><ele>1652.0</ele><time>2026-04-25T10:33:54.407Z</time></trkpt><trkpt lat="31.2223067" lon="-7.1434617"><ele>1652.0</ele><time>2026-04-25T10:33:55.407Z</time></trkpt><trkpt lat="31.2224533" lon="-7.1434983"><ele>1652.0</ele><time>2026-04-25T10:33:56.407Z</time></trkpt><trkpt lat="31.2225983" lon="-7.143535"><ele>1658.75</ele><time>2026-04-25T10:33:57.407Z</time></trkpt><trkpt lat="31.2227267" lon="-7.14356"><ele>1665.5</ele><time>2026-04-25T10:33:58.407Z</time></trkpt><trkpt lat="31.2228517" lon="-7.1436033"><ele>1672.25</ele><time>2026-04-25T10:33:59.407Z</time></trkpt><trkpt lat="31.2229767" lon="-7.143645"><ele>1679.0</ele><time>2026-04-25T10:34:00.407Z</time></trkpt><trkpt lat="31.2230933" lon="-7.1436783"><ele>1677.75</ele><time>2026-04-25T10:34:01.407Z</time></trkpt><trkpt lat="31.2232083" lon="-7.1437"><ele>1676.5</ele><time>2026-04-25T10:34:02.407Z</time></trkpt><trkpt lat="31.2233233" lon="-7.1437333"><ele>1675.25</ele><time>2026-04-25T10:34:03.407Z</time></trkpt><trkpt lat="31.2234317" lon="-7.143755"><ele>1674.0</ele><time>2026-04-25T10:34:04.407Z</time></trkpt><trkpt lat="31.2235383" lon="-7.1437667"><ele>1674.0</ele><time>2026-04-25T10:34:05.408Z</time></trkpt><trkpt lat="31.22364" lon="-7.1437667"><ele>1674.0</ele><time>2026-04-25T10:34:06.407Z</time></trkpt><trkpt lat="31.2237483" lon="-7.1437617"><ele>1674.0</ele><time>2026-04-25T10:34:07.407Z</time></trkpt><trkpt lat="31.2238633" lon="-7.14376"><ele>1674.0</ele><time>2026-04-25T10:34:08.407Z</time></trkpt><trkpt lat="31.2239833" lon="-7.1437683"><ele>1674.0</ele><time>2026-04-25T10:34:09.407Z</time></trkpt><trkpt lat="31.2241033" lon="-7.1437933"><ele>1677.75</ele><time>2026-04-25T10:34:10.407Z</time></trkpt><trkpt lat="31.2242283" lon="-7.1438317"><ele>1681.5</ele><time>2026-04-25T10:34:11.407Z</time></trkpt><trkpt lat="31.2243583" lon="-7.1438867"><ele>1685.25</ele><time>2026-04-25T10:34:12.407Z</time></trkpt><trkpt lat="31.22448" lon="-7.1439667"><ele>1689.0</ele><time>2026-04-25T10:34:13.407Z</time></trkpt><trkpt lat="31.2246083" lon="-7.14405"><ele>1684.25</ele><time>2026-04-25T10:34:14.407Z</time></trkpt><trkpt lat="31.2247317" lon="-7.1441283"><ele>1679.5</ele><time>2026-04-25T10:34:15.407Z</time></trkpt><trkpt lat="31.22486" lon="-7.1442017"><ele>1674.75</ele><time>2026-04-25T10:34:16.407Z</time></trkpt><trkpt lat="31.2249817" lon="-7.1442833"><ele>1670.0</ele><time>2026-04-25T10:34:17.407Z</time></trkpt><trkpt lat="31.225095" lon="-7.1443733"><ele>1670.0</ele><time>2026-04-25T10:34:18.407Z</time></trkpt><trkpt lat="31.2252067" lon="-7.1444667"><ele>1670.0</ele><time>2026-04-25T10:34:19.407Z</time></trkpt><trkpt lat="31.2253267" lon="-7.1445617"><ele>1670.0</ele><time>2026-04-25T10:34:20.407Z</time></trkpt><trkpt lat="31.22545" lon="-7.14465"><ele>1670.0</ele><time>2026-04-25T10:34:21.407Z</time></trkpt><trkpt lat="31.225575" lon="-7.1447333"><ele>1666.75</ele><time>2026-04-25T10:34:22.407Z</time></trkpt><trkpt lat="31.22569" lon="-7.144815"><ele>1663.5</ele><time>2026-04-25T10:34:23.407Z</time></trkpt><trkpt lat="31.2258017" lon="-7.1448867"><ele>1660.25</ele><time>2026-04-25T10:34:24.407Z</time></trkpt><trkpt lat="31.22592" lon="-7.14494"><ele>1657.0</ele><time>2026-04-25T10:34:25.407Z</time></trkpt><trkpt lat="31.226045" lon="-7.1449867"><ele>1657.0</ele><time>2026-04-25T10:34:26.407Z</time></trkpt><trkpt lat="31.22618" lon="-7.1450267"><ele>1657.0</ele><time>2026-04-25T10:34:27.407Z</time></trkpt><trkpt lat="31.2263167" lon="-7.145065"><ele>1657.0</ele><time>2026-04-25T10:34:28.407Z</time></trkpt><trkpt lat="31.22644" lon="-7.1451017"><ele>1657.0</ele><time>2026-04-25T10:34:29.407Z</time></trkpt><trkpt lat="31.2265567" lon="-7.1451367"><ele>1661.25</ele><time>2026-04-25T10:34:30.407Z</time></trkpt><trkpt lat="31.22668" lon="-7.1451817"><ele>1665.5</ele><time>2026-04-25T10:34:31.407Z</time></trkpt><trkpt lat="31.226805" lon="-7.1452183"><ele>1669.75</ele><time>2026-04-25T10:34:32.407Z</time></trkpt><trkpt lat="31.2269317" lon="-7.1452617"><ele>1674.0</ele><time>2026-04-25T10:34:33.407Z</time></trkpt><trkpt lat="31.2270567" lon="-7.145305"><ele>1674.0</ele><time>2026-04-25T10:34:34.407Z</time></trkpt><trkpt lat="31.227185" lon="-7.14535"><ele>1674.0</ele><time>2026-04-25T10:34:35.407Z</time></trkpt><trkpt lat="31.22731" lon="-7.1453883"><ele>1674.0</ele><time>2026-04-25T10:34:36.407Z</time></trkpt><trkpt lat="31.22744" lon="-7.145425"><ele>1674.0</ele><time>2026-04-25T10:34:37.407Z</time></trkpt><trkpt lat="31.2275667" lon="-7.1454617"><ele>1680.25</ele><time>2026-04-25T10:34:38.407Z</time></trkpt><trkpt lat="31.2276967" lon="-7.1455017"><ele>1686.5</ele><time>2026-04-25T10:34:39.407Z</time></trkpt><trkpt lat="31.2278217" lon="-7.1455417"><ele>1692.75</ele><time>2026-04-25T10:34:40.407Z</time></trkpt><trkpt lat="31.2279483" lon="-7.1455683"><ele>1699.0</ele><time>2026-04-25T10:34:41.407Z</time></trkpt><trkpt lat="31.22808" lon="-7.145575"><ele>1702.25</ele><time>2026-04-25T10:34:42.407Z</time></trkpt><trkpt lat="31.2282083" lon="-7.14557"><ele>1705.5</ele><time>2026-04-25T10:34:43.408Z</time></trkpt><trkpt lat="31.2283417" lon="-7.145555"><ele>1708.75</ele><time>2026-04-25T10:34:44.407Z</time></trkpt><trkpt lat="31.2284817" lon="-7.145545"><ele>1712.0</ele><time>2026-04-25T10:34:45.407Z</time></trkpt><trkpt lat="31.2286217" lon="-7.1455467"><ele>1712.0</ele><time>2026-04-25T10:34:46.407Z</time></trkpt><trkpt lat="31.2287517" lon="-7.145555"><ele>1712.0</ele><time>2026-04-25T10:34:47.407Z</time></trkpt><trkpt lat="31.2288717" lon="-7.14556"><ele>1712.0</ele><time>2026-04-25T10:34:48.407Z</time></trkpt><trkpt lat="31.2289867" lon="-7.14556"><ele>1712.0</ele><time>2026-04-25T10:34:49.407Z</time></trkpt><trkpt lat="31.2291017" lon="-7.145555"><ele>1712.6</ele><time>2026-04-25T10:34:50.407Z</time></trkpt><trkpt lat="31.2292083" lon="-7.1455583"><ele>1713.1999999999998</ele><time>2026-04-25T10:34:51.407Z</time></trkpt><trkpt lat="31.229315" lon="-7.1455783"><ele>1713.8</ele><time>2026-04-25T10:34:52.407Z</time></trkpt><trkpt lat="31.2294067" lon="-7.145625"><ele>1714.4</ele><time>2026-04-25T10:34:53.407Z</time></trkpt><trkpt lat="31.22949" lon="-7.145705"><ele>1715.0</ele><time>2026-04-25T10:34:54.407Z</time></trkpt><trkpt lat="31.2295617" lon="-7.1458067"><ele>1712.6</ele><time>2026-04-25T10:34:55.407Z</time></trkpt><trkpt lat="31.2296267" lon="-7.145925"><ele>1710.2</ele><time>2026-04-25T10:34:56.407Z</time></trkpt><trkpt lat="31.2296833" lon="-7.1460433"><ele>1707.8000000000002</ele><time>2026-04-25T10:34:57.408Z</time></trkpt><trkpt lat="31.2297283" lon="-7.1461383"><ele>1705.4</ele><time>2026-04-25T10:34:58.407Z</time></trkpt><trkpt lat="31.2297783" lon="-7.146225"><ele>1703.0</ele><time>2026-04-25T10:34:59.407Z</time></trkpt><trkpt lat="31.2298267" lon="-7.1462967"><ele>1702.9999999999998</ele><time>2026-04-25T10:35:00.407Z</time></trkpt><trkpt lat="31.2298783" lon="-7.14636"><ele>1703.0</ele><time>2026-04-25T10:35:01.407Z</time></trkpt><trkpt lat="31.229935" lon="-7.1464083"><ele>1703.0</ele><time>2026-04-25T10:35:02.407Z</time></trkpt><trkpt lat="31.2300017" lon="-7.146455"><ele>1703.0</ele><time>2026-04-25T10:35:03.407Z</time></trkpt><trkpt lat="31.2300767" lon="-7.1465083"><ele>1702.9999999999998</ele><time>2026-04-25T10:35:04.407Z</time></trkpt><trkpt lat="31.2301567" lon="-7.146585"><ele>1703.0</ele><time>2026-04-25T10:35:05.407Z</time></trkpt><trkpt lat="31.2302417" lon="-7.14667"><ele>1697.2</ele><time>2026-04-25T10:35:06.407Z</time></trkpt><trkpt lat="31.2303217" lon="-7.1467467"><ele>1691.4</ele><time>2026-04-25T10:35:07.407Z</time></trkpt><trkpt lat="31.2304" lon="-7.14682"><ele>1685.6000000000001</ele><time>2026-04-25T10:35:08.407Z</time></trkpt><trkpt lat="31.2304767" lon="-7.1469"><ele>1679.8000000000002</ele><time>2026-04-25T10:35:09.407Z</time></trkpt><trkpt lat="31.23055" lon="-7.1469783"><ele>1674.0</ele><time>2026-04-25T10:35:10.407Z</time></trkpt><trkpt lat="31.23062" lon="-7.1470633"><ele>1671.0</ele><time>2026-04-25T10:35:11.407Z</time></trkpt><trkpt lat="31.230695" lon="-7.147145"><ele>1668.0</ele><time>2026-04-25T10:35:12.407Z</time></trkpt><trkpt lat="31.23077" lon="-7.1472233"><ele>1665.0</ele><time>2026-04-25T10:35:13.407Z</time></trkpt><trkpt lat="31.2308417" lon="-7.1473033"><ele>1662.0</ele><time>2026-04-25T10:35:14.407Z</time></trkpt><trkpt lat="31.2309117" lon="-7.1473817"><ele>1659.0</ele><time>2026-04-25T10:35:15.407Z</time></trkpt><trkpt lat="31.230985" lon="-7.1474583"><ele>1659.0</ele><time>2026-04-25T10:35:16.407Z</time></trkpt><trkpt lat="31.2310583" lon="-7.1475417"><ele>1659.0</ele><time>2026-04-25T10:35:17.407Z</time></trkpt><trkpt lat="31.2311383" lon="-7.1476283"><ele>1659.0</ele><time>2026-04-25T10:35:18.407Z</time></trkpt><trkpt lat="31.2312267" lon="-7.147715"><ele>1659.0</ele><time>2026-04-25T10:35:19.407Z</time></trkpt><trkpt lat="31.2312983" lon="-7.1477933"><ele>1659.0</ele><time>2026-04-25T10:35:20.407Z</time></trkpt><trkpt lat="31.2313667" lon="-7.1478667"><ele>1659.0</ele><time>2026-04-25T10:35:21.407Z</time></trkpt><trkpt lat="31.2314367" lon="-7.1479367"><ele>1659.0</ele><time>2026-04-25T10:35:22.407Z</time></trkpt><trkpt lat="31.2315133" lon="-7.14801"><ele>1659.0</ele><time>2026-04-25T10:35:23.407Z</time></trkpt><trkpt lat="31.2315983" lon="-7.1480883"><ele>1659.0</ele><time>2026-04-25T10:35:24.407Z</time></trkpt><trkpt lat="31.2316883" lon="-7.14816"><ele>1659.0</ele><time>2026-04-25T10:35:25.407Z</time></trkpt><trkpt lat="31.23179" lon="-7.1482283"><ele>1657.5</ele><time>2026-04-25T10:35:26.407Z</time></trkpt><trkpt lat="31.2319033" lon="-7.14829"><ele>1656.0</ele><time>2026-04-25T10:35:27.407Z</time></trkpt><trkpt lat="31.23201" lon="-7.1483417"><ele>1654.5</ele><time>2026-04-25T10:35:28.407Z</time></trkpt><trkpt lat="31.2321217" lon="-7.1483833"><ele>1653.0</ele><time>2026-04-25T10:35:29.408Z</time></trkpt><trkpt lat="31.2322367" lon="-7.1484067"><ele>1656.0</ele><time>2026-04-25T10:35:30.407Z</time></trkpt><trkpt lat="31.2323583" lon="-7.148415"><ele>1659.0</ele><time>2026-04-25T10:35:31.407Z</time></trkpt><trkpt lat="31.232475" lon="-7.1484183"><ele>1662.0</ele><time>2026-04-25T10:35:32.407Z</time></trkpt><trkpt lat="31.2326117" lon="-7.14841"><ele>1665.0</ele><time>2026-04-25T10:35:33.407Z</time></trkpt><trkpt lat="31.2327567" lon="-7.1484217"><ele>1665.0</ele><time>2026-04-25T10:35:34.407Z</time></trkpt><trkpt lat="31.2328883" lon="-7.1484517"><ele>1665.0</ele><time>2026-04-25T10:35:35.407Z</time></trkpt><trkpt lat="31.2330067" lon="-7.1484917"><ele>1665.0</ele><time>2026-04-25T10:35:36.407Z</time></trkpt><trkpt lat="31.2331217" lon="-7.1485417"><ele>1665.0</ele><time>2026-04-25T10:35:37.407Z</time></trkpt><trkpt lat="31.23324" lon="-7.14859"><ele>1668.0</ele><time>2026-04-25T10:35:38.407Z</time></trkpt><trkpt lat="31.2333567" lon="-7.1486317"><ele>1671.0</ele><time>2026-04-25T10:35:39.407Z</time></trkpt><trkpt lat="31.233465" lon="-7.1486667"><ele>1674.0</ele><time>2026-04-25T10:35:40.407Z</time></trkpt><trkpt lat="31.2335833" lon="-7.1486933"><ele>1677.0</ele><time>2026-04-25T10:35:41.407Z</time></trkpt><trkpt lat="31.2337067" lon="-7.1487183"><ele>1677.0</ele><time>2026-04-25T10:35:42.407Z</time></trkpt><trkpt lat="31.2338267" lon="-7.1487417"><ele>1677.0</ele><time>2026-04-25T10:35:43.407Z</time></trkpt><trkpt lat="31.233955" lon="-7.14877"><ele>1677.0</ele><time>2026-04-25T10:35:44.407Z</time></trkpt><trkpt lat="31.234085" lon="-7.14881"><ele>1677.0</ele><time>2026-04-25T10:35:45.408Z</time></trkpt><trkpt lat="31.2342167" lon="-7.1488567"><ele>1680.5</ele><time>2026-04-25T10:35:46.407Z</time></trkpt><trkpt lat="31.2343283" lon="-7.14892"><ele>1684.0</ele><time>2026-04-25T10:35:47.407Z</time></trkpt><trkpt lat="31.2344267" lon="-7.149"><ele>1687.5</ele><time>2026-04-25T10:35:48.407Z</time></trkpt><trkpt lat="31.234525" lon="-7.149085"><ele>1691.0</ele><time>2026-04-25T10:35:49.407Z</time></trkpt><trkpt lat="31.2346317" lon="-7.14917"><ele>1688.25</ele><time>2026-04-25T10:35:50.407Z</time></trkpt><trkpt lat="31.2347467" lon="-7.1492433"><ele>1685.5</ele><time>2026-04-25T10:35:51.407Z</time></trkpt><trkpt lat="31.2348783" lon="-7.1493167"><ele>1682.75</ele><time>2026-04-25T10:35:52.407Z</time></trkpt><trkpt lat="31.2350133" lon="-7.1493833"><ele>1680.0</ele><time>2026-04-25T10:35:53.407Z</time></trkpt><trkpt lat="31.235155" lon="-7.1494533"><ele>1680.0</ele><time>2026-04-25T10:35:54.407Z</time></trkpt><trkpt lat="31.23529" lon="-7.1495283"><ele>1680.0</ele><time>2026-04-25T10:35:55.407Z</time></trkpt><trkpt lat="31.235415" lon="-7.14961"><ele>1680.0</ele><time>2026-04-25T10:35:56.407Z</time></trkpt><trkpt lat="31.2355233" lon="-7.1497"><ele>1680.0</ele><time>2026-04-25T10:35:57.407Z</time></trkpt><trkpt lat="31.2356283" lon="-7.1498083"><ele>1678.5</ele><time>2026-04-25T10:35:58.407Z</time></trkpt><trkpt lat="31.2357317" lon="-7.1499217"><ele>1677.0</ele><time>2026-04-25T10:35:59.407Z</time></trkpt><trkpt lat="31.23584" lon="-7.1500367"><ele>1675.5</ele><time>2026-04-25T10:36:00.407Z</time></trkpt><trkpt lat="31.23594" lon="-7.1501617"><ele>1674.0</ele><time>2026-04-25T10:36:01.407Z</time></trkpt><trkpt lat="31.23605" lon="-7.1502817"><ele>1674.0</ele><time>2026-04-25T10:36:02.407Z</time></trkpt><trkpt lat="31.2361567" lon="-7.1504067"><ele>1674.0</ele><time>2026-04-25T10:36:03.407Z</time></trkpt><trkpt lat="31.2362467" lon="-7.1505267"><ele>1674.0</ele><time>2026-04-25T10:36:04.407Z</time></trkpt><trkpt lat="31.2363283" lon="-7.150645"><ele>1674.0</ele><time>2026-04-25T10:36:05.407Z</time></trkpt><trkpt lat="31.2363917" lon="-7.1507667"><ele>1677.0</ele><time>2026-04-25T10:36:06.407Z</time></trkpt><trkpt lat="31.2364483" lon="-7.1508917"><ele>1680.0</ele><time>2026-04-25T10:36:07.407Z</time></trkpt><trkpt lat="31.2365017" lon="-7.151015"><ele>1683.0</ele><time>2026-04-25T10:36:08.407Z</time></trkpt><trkpt lat="31.2365767" lon="-7.15114"><ele>1686.0</ele><time>2026-04-25T10:36:09.407Z</time></trkpt><trkpt lat="31.2366617" lon="-7.1512533"><ele>1686.0</ele><time>2026-04-25T10:36:10.407Z</time></trkpt><trkpt lat="31.2367467" lon="-7.1513433"><ele>1686.0</ele><time>2026-04-25T10:36:11.408Z</time></trkpt><trkpt lat="31.2368383" lon="-7.1513983"><ele>1686.0</ele><time>2026-04-25T10:36:12.407Z</time></trkpt><trkpt lat="31.2369433" lon="-7.1514217"><ele>1686.0</ele><time>2026-04-25T10:36:13.407Z</time></trkpt><trkpt lat="31.2370467" lon="-7.1514117"><ele>1686.0</ele><time>2026-04-25T10:36:14.407Z</time></trkpt><trkpt lat="31.23716" lon="-7.151395"><ele>1686.0</ele><time>2026-04-25T10:36:15.407Z</time></trkpt><trkpt lat="31.2372767" lon="-7.1513933"><ele>1686.0</ele><time>2026-04-25T10:36:16.407Z</time></trkpt><trkpt lat="31.2373917" lon="-7.151425"><ele>1686.0</ele><time>2026-04-25T10:36:17.407Z</time></trkpt><trkpt lat="31.2375017" lon="-7.1515"><ele>1686.0</ele><time>2026-04-25T10:36:18.407Z</time></trkpt><trkpt lat="31.237585" lon="-7.15161"><ele>1682.75</ele><time>2026-04-25T10:36:19.407Z</time></trkpt><trkpt lat="31.2376533" lon="-7.151735"><ele>1679.5</ele><time>2026-04-25T10:36:20.407Z</time></trkpt><trkpt lat="31.2377267" lon="-7.1518383"><ele>1676.25</ele><time>2026-04-25T10:36:21.407Z</time></trkpt><trkpt lat="31.2378083" lon="-7.1519167"><ele>1673.0</ele><time>2026-04-25T10:36:22.407Z</time></trkpt><trkpt lat="31.237905" lon="-7.1519633"><ele>1673.0</ele><time>2026-04-25T10:36:23.407Z</time></trkpt><trkpt lat="31.2380233" lon="-7.151985"><ele>1673.0</ele><time>2026-04-25T10:36:24.407Z</time></trkpt><trkpt lat="31.2381467" lon="-7.1519767"><ele>1673.0</ele><time>2026-04-25T10:36:25.407Z</time></trkpt><trkpt lat="31.2382783" lon="-7.1519683"><ele>1673.0</ele><time>2026-04-25T10:36:26.407Z</time></trkpt><trkpt lat="31.2384133" lon="-7.151955"><ele>1675.75</ele><time>2026-04-25T10:36:27.407Z</time></trkpt><trkpt lat="31.2385517" lon="-7.15194"><ele>1678.5</ele><time>2026-04-25T10:36:28.407Z</time></trkpt><trkpt lat="31.2386833" lon="-7.1519333"><ele>1681.25</ele><time>2026-04-25T10:36:29.407Z</time></trkpt><trkpt lat="31.238805" lon="-7.1519333"><ele>1684.0</ele><time>2026-04-25T10:36:30.407Z</time></trkpt><trkpt lat="31.2389217" lon="-7.1519367"><ele>1682.5</ele><time>2026-04-25T10:36:31.407Z</time></trkpt><trkpt lat="31.2390433" lon="-7.1519417"><ele>1681.0</ele><time>2026-04-25T10:36:32.407Z</time></trkpt><trkpt lat="31.2391633" lon="-7.15194"><ele>1679.5</ele><time>2026-04-25T10:36:33.407Z</time></trkpt><trkpt lat="31.2392883" lon="-7.151935"><ele>1678.0</ele><time>2026-04-25T10:36:34.408Z</time></trkpt><trkpt lat="31.2394117" lon="-7.1519317"><ele>1678.0</ele><time>2026-04-25T10:36:35.407Z</time></trkpt><trkpt lat="31.2395367" lon="-7.1519183"><ele>1678.0</ele><time>2026-04-25T10:36:36.407Z</time></trkpt><trkpt lat="31.2396633" lon="-7.1518883"><ele>1678.0</ele><time>2026-04-25T10:36:37.407Z</time></trkpt><trkpt lat="31.2397733" lon="-7.151845"><ele>1678.0</ele><time>2026-04-25T10:36:38.407Z</time></trkpt><trkpt lat="31.239875" lon="-7.1518133"><ele>1681.8000000000002</ele><time>2026-04-25T10:36:39.407Z</time></trkpt><trkpt lat="31.2399517" lon="-7.1518017"><ele>1685.6</ele><time>2026-04-25T10:36:40.407Z</time></trkpt><trkpt lat="31.2400317" lon="-7.151835"><ele>1689.4</ele><time>2026-04-25T10:36:41.407Z</time></trkpt><trkpt lat="31.2401083" lon="-7.1519033"><ele>1693.1999999999998</ele><time>2026-04-25T10:36:42.407Z</time></trkpt><trkpt lat="31.2401817" lon="-7.1520017"><ele>1697.0</ele><time>2026-04-25T10:36:43.407Z</time></trkpt><trkpt lat="31.2402483" lon="-7.15211"><ele>1697.0</ele><time>2026-04-25T10:36:44.407Z</time></trkpt><trkpt lat="31.2403267" lon="-7.152215"><ele>1697.0</ele><time>2026-04-25T10:36:45.407Z</time></trkpt><trkpt lat="31.2404183" lon="-7.1523117"><ele>1697.0</ele><time>2026-04-25T10:36:46.407Z</time></trkpt><trkpt lat="31.2405217" lon="-7.1524"><ele>1697.0</ele><time>2026-04-25T10:36:47.407Z</time></trkpt><trkpt lat="31.24063" lon="-7.1524883"><ele>1698.25</ele><time>2026-04-25T10:36:48.407Z</time></trkpt><trkpt lat="31.2407517" lon="-7.152575"><ele>1699.5</ele><time>2026-04-25T10:36:49.407Z</time></trkpt><trkpt lat="31.2408767" lon="-7.15267"><ele>1700.75</ele><time>2026-04-25T10:36:50.407Z</time></trkpt><trkpt lat="31.2409983" lon="-7.1527667"><ele>1702.0</ele><time>2026-04-25T10:36:51.408Z</time></trkpt><trkpt lat="31.24112" lon="-7.1528633"><ele>1702.0</ele><time>2026-04-25T10:36:52.408Z</time></trkpt><trkpt lat="31.2412433" lon="-7.1529617"><ele>1702.0</ele><time>2026-04-25T10:36:53.407Z</time></trkpt><trkpt lat="31.2413633" lon="-7.1530683"><ele>1702.0</ele><time>2026-04-25T10:36:54.407Z</time></trkpt><trkpt lat="31.2414867" lon="-7.15318"><ele>1705.3333333333335</ele><time>2026-04-25T10:36:55.407Z</time></trkpt><trkpt lat="31.241615" lon="-7.153295"><ele>1708.6666666666665</ele><time>2026-04-25T10:36:56.407Z</time></trkpt><trkpt lat="31.2417483" lon="-7.1534083"><ele>1712.0</ele><time>2026-04-25T10:36:57.407Z</time></trkpt><trkpt lat="31.241885" lon="-7.1535117"><ele>1712.0</ele><time>2026-04-25T10:36:58.407Z</time></trkpt><trkpt lat="31.242005" lon="-7.1536217"><ele>1712.0</ele><time>2026-04-25T10:36:59.407Z</time></trkpt><trkpt lat="31.2421083" lon="-7.153715"><ele>1712.0</ele><time>2026-04-25T10:37:00.407Z</time></trkpt><trkpt lat="31.242205" lon="-7.1537967"><ele>1712.0</ele><time>2026-04-25T10:37:01.407Z</time></trkpt><trkpt lat="31.24229" lon="-7.153865"><ele>1720.0</ele><time>2026-04-25T10:37:02.407Z</time></trkpt><trkpt lat="31.242385" lon="-7.15392"><ele>1728.0</ele><time>2026-04-25T10:37:03.407Z</time></trkpt><trkpt lat="31.2424917" lon="-7.1539533"><ele>1736.0</ele><time>2026-04-25T10:37:04.407Z</time></trkpt><trkpt lat="31.2426117" lon="-7.1539783"><ele>1744.0</ele><time>2026-04-25T10:37:05.407Z</time></trkpt><trkpt lat="31.2427467" lon="-7.1539983"><ele>1744.0</ele><time>2026-04-25T10:37:06.407Z</time></trkpt><trkpt lat="31.242895" lon="-7.1540117"><ele>1744.0</ele><time>2026-04-25T10:37:07.407Z</time></trkpt><trkpt lat="31.2430417" lon="-7.154015"><ele>1744.0</ele><time>2026-04-25T10:37:08.407Z</time></trkpt><trkpt lat="31.2431767" lon="-7.15401"><ele>1744.0</ele><time>2026-04-25T10:37:09.407Z</time></trkpt><trkpt lat="31.2433083" lon="-7.154"><ele>1747.5</ele><time>2026-04-25T10:37:10.407Z</time></trkpt><trkpt lat="31.2434433" lon="-7.1539967"><ele>1751.0</ele><time>2026-04-25T10:37:11.407Z</time></trkpt><trkpt lat="31.2435783" lon="-7.153995"><ele>1754.5</ele><time>2026-04-25T10:37:12.407Z</time></trkpt><trkpt lat="31.243715" lon="-7.1539967"><ele>1758.0</ele><time>2026-04-25T10:37:13.407Z</time></trkpt><trkpt lat="31.24385" lon="-7.1540033"><ele>1762.75</ele><time>2026-04-25T10:37:14.407Z</time></trkpt><trkpt lat="31.2439733" lon="-7.1540067"><ele>1767.5</ele><time>2026-04-25T10:37:15.407Z</time></trkpt><trkpt lat="31.2440917" lon="-7.1540267"><ele>1772.25</ele><time>2026-04-25T10:37:16.407Z</time></trkpt><trkpt lat="31.2441917" lon="-7.154085"><ele>1777.0</ele><time>2026-04-25T10:37:17.407Z</time></trkpt><trkpt lat="31.24428" lon="-7.1541783"><ele>1764.75</ele><time>2026-04-25T10:37:18.407Z</time></trkpt><trkpt lat="31.24437" lon="-7.154275"><ele>1752.5</ele><time>2026-04-25T10:37:19.408Z</time></trkpt><trkpt lat="31.24447" lon="-7.1543517"><ele>1740.25</ele><time>2026-04-25T10:37:20.407Z</time></trkpt><trkpt lat="31.24459" lon="-7.1544117"><ele>1728.0</ele><time>2026-04-25T10:37:21.407Z</time></trkpt><trkpt lat="31.24472" lon="-7.1544467"><ele>1730.0</ele><time>2026-04-25T10:37:22.407Z</time></trkpt><trkpt lat="31.24483" lon="-7.1544983"><ele>1732.0</ele><time>2026-04-25T10:37:23.407Z</time></trkpt><trkpt lat="31.2449217" lon="-7.1545717"><ele>1734.0</ele><time>2026-04-25T10:37:24.408Z</time></trkpt><trkpt lat="31.24501" lon="-7.1546683"><ele>1736.0</ele><time>2026-04-25T10:37:25.407Z</time></trkpt><trkpt lat="31.2450917" lon="-7.154775"><ele>1735.9999999999998</ele><time>2026-04-25T10:37:26.407Z</time></trkpt><trkpt lat="31.245175" lon="-7.154855"><ele>1736.0</ele><time>2026-04-25T10:37:27.407Z</time></trkpt><trkpt lat="31.2452483" lon="-7.1549083"><ele>1736.0</ele><time>2026-04-25T10:37:28.407Z</time></trkpt><trkpt lat="31.2453167" lon="-7.1549317"><ele>1736.0</ele><time>2026-04-25T10:37:29.407Z</time></trkpt><trkpt lat="31.2453933" lon="-7.1549083"><ele>1735.9999999999998</ele><time>2026-04-25T10:37:30.407Z</time></trkpt><trkpt lat="31.2454633" lon="-7.15485"><ele>1736.0</ele><time>2026-04-25T10:37:31.407Z</time></trkpt><trkpt lat="31.2455367" lon="-7.1547717"><ele>1736.0</ele><time>2026-04-25T10:37:32.407Z</time></trkpt><trkpt lat="31.24562" lon="-7.1546833"><ele>1736.0</ele><time>2026-04-25T10:37:33.407Z</time></trkpt><trkpt lat="31.2457217" lon="-7.1546017"><ele>1736.0</ele><time>2026-04-25T10:37:34.407Z</time></trkpt><trkpt lat="31.2458267" lon="-7.1545167"><ele>1736.0</ele><time>2026-04-25T10:37:35.407Z</time></trkpt><trkpt lat="31.2459417" lon="-7.15444"><ele>1734.5</ele><time>2026-04-25T10:37:36.407Z</time></trkpt><trkpt lat="31.2460583" lon="-7.1543717"><ele>1733.0</ele><time>2026-04-25T10:37:37.407Z</time></trkpt><trkpt lat="31.2461767" lon="-7.1543067"><ele>1731.5</ele><time>2026-04-25T10:37:38.407Z</time></trkpt><trkpt lat="31.2462933" lon="-7.1542417"><ele>1730.0</ele><time>2026-04-25T10:37:39.407Z</time></trkpt><trkpt lat="31.2464083" lon="-7.154175"><ele>1723.75</ele><time>2026-04-25T10:37:40.407Z</time></trkpt><trkpt lat="31.246525" lon="-7.1541167"><ele>1717.5</ele><time>2026-04-25T10:37:41.407Z</time></trkpt><trkpt lat="31.246635" lon="-7.1540367"><ele>1711.25</ele><time>2026-04-25T10:37:42.407Z</time></trkpt><trkpt lat="31.246745" lon="-7.1539717"><ele>1705.0</ele><time>2026-04-25T10:37:43.407Z</time></trkpt><trkpt lat="31.24687" lon="-7.1539117"><ele>1710.5</ele><time>2026-04-25T10:37:44.407Z</time></trkpt><trkpt lat="31.2469917" lon="-7.15386"><ele>1716.0</ele><time>2026-04-25T10:37:45.407Z</time></trkpt><trkpt lat="31.2471117" lon="-7.1538017"><ele>1721.5</ele><time>2026-04-25T10:37:46.407Z</time></trkpt><trkpt lat="31.2472233" lon="-7.1537517"><ele>1727.0</ele><time>2026-04-25T10:37:47.407Z</time></trkpt><trkpt lat="31.2473333" lon="-7.1536983"><ele>1727.0</ele><time>2026-04-25T10:37:48.407Z</time></trkpt><trkpt lat="31.2474267" lon="-7.1536517"><ele>1726.9999999999998</ele><time>2026-04-25T10:37:49.407Z</time></trkpt><trkpt lat="31.2475233" lon="-7.1536117"><ele>1726.9999999999998</ele><time>2026-04-25T10:37:50.407Z</time></trkpt><trkpt lat="31.2476267" lon="-7.15356"><ele>1727.0</ele><time>2026-04-25T10:37:51.407Z</time></trkpt><trkpt lat="31.2477417" lon="-7.153495"><ele>1727.0</ele><time>2026-04-25T10:37:52.407Z</time></trkpt><trkpt lat="31.24785" lon="-7.1534217"><ele>1727.0</ele><time>2026-04-25T10:37:53.407Z</time></trkpt><trkpt lat="31.247955" lon="-7.1533367"><ele>1727.0</ele><time>2026-04-25T10:37:54.408Z</time></trkpt><trkpt lat="31.2480583" lon="-7.1532467"><ele>1727.0</ele><time>2026-04-25T10:37:55.407Z</time></trkpt><trkpt lat="31.248155" lon="-7.1531567"><ele>1727.0</ele><time>2026-04-25T10:37:56.407Z</time></trkpt><trkpt lat="31.2482617" lon="-7.1530733"><ele>1727.0</ele><time>2026-04-25T10:37:57.407Z</time></trkpt><trkpt lat="31.2483783" lon="-7.1529933"><ele>1727.0</ele><time>2026-04-25T10:37:58.407Z</time></trkpt><trkpt lat="31.2485167" lon="-7.1529183"><ele>1727.0</ele><time>2026-04-25T10:37:59.407Z</time></trkpt><trkpt lat="31.24869" lon="-7.1528617"><ele>1727.0</ele><time>2026-04-25T10:38:00.407Z</time></trkpt><trkpt lat="31.2488783" lon="-7.1528"><ele>1727.0</ele><time>2026-04-25T10:38:01.407Z</time></trkpt><trkpt lat="31.2490633" lon="-7.1527267"><ele>1727.0</ele><time>2026-04-25T10:38:02.407Z</time></trkpt><trkpt lat="31.2492317" lon="-7.152645"><ele>1722.0</ele><time>2026-04-25T10:38:03.407Z</time></trkpt><trkpt lat="31.2494083" lon="-7.1525667"><ele>1717.0</ele><time>2026-04-25T10:38:04.407Z</time></trkpt><trkpt lat="31.24958" lon="-7.1525067"><ele>1712.0</ele><time>2026-04-25T10:38:05.408Z</time></trkpt><trkpt lat="31.249745" lon="-7.1524567"><ele>1715.6666666666665</ele><time>2026-04-25T10:38:06.407Z</time></trkpt><trkpt lat="31.249905" lon="-7.1524067"><ele>1719.3333333333335</ele><time>2026-04-25T10:38:07.407Z</time></trkpt><trkpt lat="31.25005" lon="-7.1523583"><ele>1723.0</ele><time>2026-04-25T10:38:08.407Z</time></trkpt><trkpt lat="31.2501883" lon="-7.152305"><ele>1723.0</ele><time>2026-04-25T10:38:09.407Z</time></trkpt><trkpt lat="31.25033" lon="-7.1522617"><ele>1723.0</ele><time>2026-04-25T10:38:10.407Z</time></trkpt><trkpt lat="31.2504817" lon="-7.1522233"><ele>1723.0</ele><time>2026-04-25T10:38:11.407Z</time></trkpt><trkpt lat="31.25064" lon="-7.1521883"><ele>1724.3333333333335</ele><time>2026-04-25T10:38:12.407Z</time></trkpt><trkpt lat="31.25081" lon="-7.1521583"><ele>1725.6666666666665</ele><time>2026-04-25T10:38:13.407Z</time></trkpt><trkpt lat="31.2509933" lon="-7.1521333"><ele>1727.0</ele><time>2026-04-25T10:38:14.407Z</time></trkpt><trkpt lat="31.2511667" lon="-7.1520917"><ele>1727.0</ele><time>2026-04-25T10:38:15.407Z</time></trkpt><trkpt lat="31.251335" lon="-7.152045"><ele>1727.0</ele><time>2026-04-25T10:38:16.407Z</time></trkpt><trkpt lat="31.251525" lon="-7.1519983"><ele>1727.0</ele><time>2026-04-25T10:38:17.407Z</time></trkpt><trkpt lat="31.2517333" lon="-7.1519433"><ele>1725.3333333333333</ele><time>2026-04-25T10:38:18.407Z</time></trkpt><trkpt lat="31.2519383" lon="-7.1518833"><ele>1723.6666666666665</ele><time>2026-04-25T10:38:19.407Z</time></trkpt><trkpt lat="31.252125" lon="-7.1518217"><ele>1722.0</ele><time>2026-04-25T10:38:20.407Z</time></trkpt><trkpt lat="31.2523" lon="-7.1517683"><ele>1718.6666666666665</ele><time>2026-04-25T10:38:21.407Z</time></trkpt><trkpt lat="31.252465" lon="-7.151725"><ele>1715.3333333333333</ele><time>2026-04-25T10:38:22.407Z</time></trkpt><trkpt lat="31.2526183" lon="-7.1516933"><ele>1712.0</ele><time>2026-04-25T10:38:23.407Z</time></trkpt><trkpt lat="31.2527667" lon="-7.1516633"><ele>1712.0</ele><time>2026-04-25T10:38:24.407Z</time></trkpt><trkpt lat="31.2529067" lon="-7.151635"><ele>1712.0</ele><time>2026-04-25T10:38:25.407Z</time></trkpt><trkpt lat="31.2530433" lon="-7.1516117"><ele>1712.0</ele><time>2026-04-25T10:38:26.407Z</time></trkpt><trkpt lat="31.25318" lon="-7.1515867"><ele>1712.0</ele><time>2026-04-25T10:38:27.407Z</time></trkpt><trkpt lat="31.2533167" lon="-7.1515667"><ele>1711.5</ele><time>2026-04-25T10:38:28.407Z</time></trkpt><trkpt lat="31.2534583" lon="-7.1515567"><ele>1711.0</ele><time>2026-04-25T10:38:29.408Z</time></trkpt><trkpt lat="31.2535933" lon="-7.1515467"><ele>1710.5</ele><time>2026-04-25T10:38:30.407Z</time></trkpt><trkpt lat="31.253725" lon="-7.1515467"><ele>1710.0</ele><time>2026-04-25T10:38:31.407Z</time></trkpt><trkpt lat="31.2538667" lon="-7.1515467"><ele>1709.0</ele><time>2026-04-25T10:38:32.407Z</time></trkpt><trkpt lat="31.25401" lon="-7.15155"><ele>1708.0</ele><time>2026-04-25T10:38:33.407Z</time></trkpt><trkpt lat="31.2541517" lon="-7.1515567"><ele>1707.0</ele><time>2026-04-25T10:38:34.407Z</time></trkpt><trkpt lat="31.25429" lon="-7.1515667"><ele>1706.0</ele><time>2026-04-25T10:38:35.407Z</time></trkpt><trkpt lat="31.2544383" lon="-7.15157"><ele>1706.0</ele><time>2026-04-25T10:38:36.408Z</time></trkpt><trkpt lat="31.2545833" lon="-7.15158"><ele>1706.0</ele><time>2026-04-25T10:38:37.407Z</time></trkpt><trkpt lat="31.25473" lon="-7.1515833"><ele>1706.0</ele><time>2026-04-25T10:38:38.407Z</time></trkpt><trkpt lat="31.2548667" lon="-7.1516067"><ele>1706.0</ele><time>2026-04-25T10:38:39.407Z</time></trkpt><trkpt lat="31.255" lon="-7.1516417"><ele>1707.5</ele><time>2026-04-25T10:38:40.407Z</time></trkpt><trkpt lat="31.2551333" lon="-7.1516867"><ele>1709.0</ele><time>2026-04-25T10:38:41.407Z</time></trkpt><trkpt lat="31.25527" lon="-7.1517317"><ele>1710.5</ele><time>2026-04-25T10:38:42.407Z</time></trkpt><trkpt lat="31.2554033" lon="-7.1517817"><ele>1712.0</ele><time>2026-04-25T10:38:43.407Z</time></trkpt><trkpt lat="31.2555317" lon="-7.151835"><ele>1715.0</ele><time>2026-04-25T10:38:44.407Z</time></trkpt><trkpt lat="31.2556533" lon="-7.1519133"><ele>1718.0</ele><time>2026-04-25T10:38:45.407Z</time></trkpt><trkpt lat="31.255755" lon="-7.152015"><ele>1721.0</ele><time>2026-04-25T10:38:46.407Z</time></trkpt><trkpt lat="31.2558417" lon="-7.1521517"><ele>1724.0</ele><time>2026-04-25T10:38:47.407Z</time></trkpt><trkpt lat="31.2559183" lon="-7.1522967"><ele>1720.25</ele><time>2026-04-25T10:38:48.408Z</time></trkpt><trkpt lat="31.2559867" lon="-7.1524383"><ele>1716.5</ele><time>2026-04-25T10:38:49.407Z</time></trkpt><trkpt lat="31.2560483" lon="-7.15257"><ele>1712.75</ele><time>2026-04-25T10:38:50.407Z</time></trkpt><trkpt lat="31.2561133" lon="-7.1526917"><ele>1709.0</ele><time>2026-04-25T10:38:51.407Z</time></trkpt><trkpt lat="31.2561833" lon="-7.1527833"><ele>1709.0</ele><time>2026-04-25T10:38:52.407Z</time></trkpt><trkpt lat="31.2562617" lon="-7.1528517"><ele>1709.0</ele><time>2026-04-25T10:38:53.407Z</time></trkpt><trkpt lat="31.2563467" lon="-7.1528917"><ele>1709.0</ele><time>2026-04-25T10:38:54.407Z</time></trkpt><trkpt lat="31.2564383" lon="-7.1529067"><ele>1709.0</ele><time>2026-04-25T10:38:55.407Z</time></trkpt><trkpt lat="31.25653" lon="-7.15291"><ele>1709.0</ele><time>2026-04-25T10:38:56.407Z</time></trkpt><trkpt lat="31.2566183" lon="-7.152905"><ele>1711.2</ele><time>2026-04-25T10:38:57.407Z</time></trkpt><trkpt lat="31.256705" lon="-7.1529033"><ele>1713.4</ele><time>2026-04-25T10:38:58.407Z</time></trkpt><trkpt lat="31.2567983" lon="-7.1529033"><ele>1715.6</ele><time>2026-04-25T10:38:59.407Z</time></trkpt><trkpt lat="31.2568933" lon="-7.1529033"><ele>1717.8</ele><time>2026-04-25T10:39:00.407Z</time></trkpt><trkpt lat="31.2569883" lon="-7.1529117"><ele>1720.0</ele><time>2026-04-25T10:39:01.407Z</time></trkpt><trkpt lat="31.2570867" lon="-7.1529233"><ele>1720.0</ele><time>2026-04-25T10:39:02.407Z</time></trkpt><trkpt lat="31.25719" lon="-7.1529333"><ele>1720.0</ele><time>2026-04-25T10:39:03.407Z</time></trkpt><trkpt lat="31.2573033" lon="-7.152945"><ele>1720.0</ele><time>2026-04-25T10:39:04.407Z</time></trkpt><trkpt lat="31.2574167" lon="-7.15295"><ele>1720.0</ele><time>2026-04-25T10:39:05.407Z</time></trkpt><trkpt lat="31.2575367" lon="-7.152945"><ele>1724.5</ele><time>2026-04-25T10:39:06.407Z</time></trkpt><trkpt lat="31.2576517" lon="-7.1529367"><ele>1729.0</ele><time>2026-04-25T10:39:07.407Z</time></trkpt><trkpt lat="31.25777" lon="-7.1529217"><ele>1733.5</ele><time>2026-04-25T10:39:08.407Z</time></trkpt><trkpt lat="31.2578783" lon="-7.1529067"><ele>1738.0</ele><time>2026-04-25T10:39:09.407Z</time></trkpt><trkpt lat="31.257985" lon="-7.1528933"><ele>1738.0</ele><time>2026-04-25T10:39:10.407Z</time></trkpt><trkpt lat="31.2580883" lon="-7.1528833"><ele>1738.0000000000002</ele><time>2026-04-25T10:39:11.407Z</time></trkpt><trkpt lat="31.2581867" lon="-7.152875"><ele>1738.0000000000002</ele><time>2026-04-25T10:39:12.407Z</time></trkpt><trkpt lat="31.2582867" lon="-7.15287"><ele>1738.0</ele><time>2026-04-25T10:39:13.407Z</time></trkpt><trkpt lat="31.2583883" lon="-7.15286"><ele>1738.0</ele><time>2026-04-25T10:39:14.407Z</time></trkpt><trkpt lat="31.25849" lon="-7.1528533"><ele>1735.8000000000002</ele><time>2026-04-25T10:39:15.407Z</time></trkpt><trkpt lat="31.2585867" lon="-7.1528433"><ele>1733.6000000000001</ele><time>2026-04-25T10:39:16.407Z</time></trkpt><trkpt lat="31.2586883" lon="-7.1528267"><ele>1731.3999999999999</ele><time>2026-04-25T10:39:17.407Z</time></trkpt><trkpt lat="31.2587883" lon="-7.152815"><ele>1729.1999999999998</ele><time>2026-04-25T10:39:18.407Z</time></trkpt><trkpt lat="31.2588867" lon="-7.1528067"><ele>1727.0</ele><time>2026-04-25T10:39:19.407Z</time></trkpt><trkpt lat="31.25898" lon="-7.15279"><ele>1726.3999999999999</ele><time>2026-04-25T10:39:20.407Z</time></trkpt><trkpt lat="31.2590767" lon="-7.1527817"><ele>1725.7999999999997</ele><time>2026-04-25T10:39:21.407Z</time></trkpt><trkpt lat="31.259175" lon="-7.15279"><ele>1725.2</ele><time>2026-04-25T10:39:22.407Z</time></trkpt><trkpt lat="31.25926" lon="-7.1528217"><ele>1724.6</ele><time>2026-04-25T10:39:23.407Z</time></trkpt><trkpt lat="31.2593333" lon="-7.1528917"><ele>1724.0</ele><time>2026-04-25T10:39:24.407Z</time></trkpt><trkpt lat="31.2593867" lon="-7.1529883"><ele>1724.0</ele><time>2026-04-25T10:39:25.407Z</time></trkpt><trkpt lat="31.2594383" lon="-7.1530933"><ele>1724.0</ele><time>2026-04-25T10:39:26.407Z</time></trkpt><trkpt lat="31.2594883" lon="-7.1532017"><ele>1724.0</ele><time>2026-04-25T10:39:27.407Z</time></trkpt><trkpt lat="31.25955" lon="-7.1533017"><ele>1724.0</ele><time>2026-04-25T10:39:28.407Z</time></trkpt><trkpt lat="31.2596233" lon="-7.153395"><ele>1724.0</ele><time>2026-04-25T10:39:29.407Z</time></trkpt><trkpt lat="31.259695" lon="-7.1534817"><ele>1722.4</ele><time>2026-04-25T10:39:30.407Z</time></trkpt><trkpt lat="31.2597767" lon="-7.1535583"><ele>1720.8000000000002</ele><time>2026-04-25T10:39:31.407Z</time></trkpt><trkpt lat="31.259865" lon="-7.1536367"><ele>1719.1999999999998</ele><time>2026-04-25T10:39:32.407Z</time></trkpt><trkpt lat="31.2599533" lon="-7.1537167"><ele>1717.6</ele><time>2026-04-25T10:39:33.407Z</time></trkpt><trkpt lat="31.26005" lon="-7.1537867"><ele>1716.0</ele><time>2026-04-25T10:39:34.407Z</time></trkpt><trkpt lat="31.2601483" lon="-7.1538533"><ele>1715.75</ele><time>2026-04-25T10:39:35.406Z</time></trkpt><trkpt lat="31.2602533" lon="-7.1539267"><ele>1715.5</ele><time>2026-04-25T10:39:36.406Z</time></trkpt><trkpt lat="31.2603667" lon="-7.1539967"><ele>1715.25</ele><time>2026-04-25T10:39:37.406Z</time></trkpt><trkpt lat="31.2604867" lon="-7.1540683"><ele>1715.0</ele><time>2026-04-25T10:39:38.406Z</time></trkpt><trkpt lat="31.26061" lon="-7.1541383"><ele>1717.0</ele><time>2026-04-25T10:39:39.406Z</time></trkpt><trkpt lat="31.26074" lon="-7.1542083"><ele>1719.0</ele><time>2026-04-25T10:39:40.406Z</time></trkpt><trkpt lat="31.260875" lon="-7.1542767"><ele>1721.0</ele><time>2026-04-25T10:39:41.406Z</time></trkpt><trkpt lat="31.2610183" lon="-7.15434"><ele>1723.0</ele><time>2026-04-25T10:39:42.406Z</time></trkpt><trkpt lat="31.2611683" lon="-7.154395"><ele>1723.0</ele><time>2026-04-25T10:39:43.406Z</time></trkpt><trkpt lat="31.261325" lon="-7.1544483"><ele>1723.0</ele><time>2026-04-25T10:39:44.406Z</time></trkpt><trkpt lat="31.2614917" lon="-7.1544933"><ele>1723.0</ele><time>2026-04-25T10:39:45.406Z</time></trkpt><trkpt lat="31.26166" lon="-7.1545383"><ele>1721.6666666666667</ele><time>2026-04-25T10:39:46.406Z</time></trkpt><trkpt lat="31.2618267" lon="-7.1545783"><ele>1720.3333333333335</ele><time>2026-04-25T10:39:47.407Z</time></trkpt><trkpt lat="31.2619967" lon="-7.1546"><ele>1719.0</ele><time>2026-04-25T10:39:48.406Z</time></trkpt><trkpt lat="31.2621733" lon="-7.15462"><ele>1719.0</ele><time>2026-04-25T10:39:49.406Z</time></trkpt><trkpt lat="31.26235" lon="-7.1546483"><ele>1719.0</ele><time>2026-04-25T10:39:50.406Z</time></trkpt><trkpt lat="31.2625117" lon="-7.154695"><ele>1719.0</ele><time>2026-04-25T10:39:51.406Z</time></trkpt><trkpt lat="31.2626633" lon="-7.1547517"><ele>1719.0</ele><time>2026-04-25T10:39:52.406Z</time></trkpt><trkpt lat="31.26279" lon="-7.1548067"><ele>1719.0</ele><time>2026-04-25T10:39:53.406Z</time></trkpt><trkpt lat="31.262905" lon="-7.1548433"><ele>1719.0</ele><time>2026-04-25T10:39:54.406Z</time></trkpt><trkpt lat="31.2630017" lon="-7.15485"><ele>1719.0</ele><time>2026-04-25T10:39:55.406Z</time></trkpt><trkpt lat="31.2631183" lon="-7.1548283"><ele>1719.0</ele><time>2026-04-25T10:39:56.406Z</time></trkpt><trkpt lat="31.263235" lon="-7.1547767"><ele>1719.0</ele><time>2026-04-25T10:39:57.406Z</time></trkpt><trkpt lat="31.263355" lon="-7.1546967"><ele>1719.0</ele><time>2026-04-25T10:39:58.406Z</time></trkpt><trkpt lat="31.263475" lon="-7.1545933"><ele>1719.0</ele><time>2026-04-25T10:39:59.406Z</time></trkpt><trkpt lat="31.2636017" lon="-7.1544783"><ele>1719.0</ele><time>2026-04-25T10:40:00.406Z</time></trkpt><trkpt lat="31.2637283" lon="-7.1543667"><ele>1719.0</ele><time>2026-04-25T10:40:01.406Z</time></trkpt><trkpt lat="31.2638517" lon="-7.1542567"><ele>1719.0</ele><time>2026-04-25T10:40:02.406Z</time></trkpt><trkpt lat="31.2639733" lon="-7.1541383"><ele>1719.0</ele><time>2026-04-25T10:40:03.406Z</time></trkpt><trkpt lat="31.264095" lon="-7.15401"><ele>1719.0</ele><time>2026-04-25T10:40:04.406Z</time></trkpt><trkpt lat="31.2642233" lon="-7.153885"><ele>1719.0</ele><time>2026-04-25T10:40:05.406Z</time></trkpt><trkpt lat="31.2643517" lon="-7.15376"><ele>1719.0</ele><time>2026-04-25T10:40:06.406Z</time></trkpt><trkpt lat="31.2644817" lon="-7.15363"><ele>1719.0</ele><time>2026-04-25T10:40:07.406Z</time></trkpt><trkpt lat="31.2646117" lon="-7.1535017"><ele>1719.0</ele><time>2026-04-25T10:40:08.406Z</time></trkpt><trkpt lat="31.264735" lon="-7.1533867"><ele>1719.75</ele><time>2026-04-25T10:40:09.406Z</time></trkpt><trkpt lat="31.2648533" lon="-7.1532833"><ele>1720.5</ele><time>2026-04-25T10:40:10.406Z</time></trkpt><trkpt lat="31.26498" lon="-7.1531967"><ele>1721.25</ele><time>2026-04-25T10:40:11.406Z</time></trkpt><trkpt lat="31.265105" lon="-7.1531117"><ele>1722.0</ele><time>2026-04-25T10:40:12.406Z</time></trkpt><trkpt lat="31.265235" lon="-7.1530217"><ele>1722.0</ele><time>2026-04-25T10:40:13.406Z</time></trkpt><trkpt lat="31.265365" lon="-7.1529267"><ele>1722.0</ele><time>2026-04-25T10:40:14.407Z</time></trkpt><trkpt lat="31.265495" lon="-7.1528283"><ele>1722.0</ele><time>2026-04-25T10:40:15.407Z</time></trkpt><trkpt lat="31.265625" lon="-7.15272"><ele>1729.3333333333335</ele><time>2026-04-25T10:40:16.406Z</time></trkpt><trkpt lat="31.2657467" lon="-7.152605"><ele>1736.6666666666667</ele><time>2026-04-25T10:40:17.406Z</time></trkpt><trkpt lat="31.2658767" lon="-7.1524933"><ele>1744.0</ele><time>2026-04-25T10:40:18.406Z</time></trkpt><trkpt lat="31.2660133" lon="-7.1523783"><ele>1737.6666666666667</ele><time>2026-04-25T10:40:19.406Z</time></trkpt><trkpt lat="31.2661517" lon="-7.1522683"><ele>1731.3333333333335</ele><time>2026-04-25T10:40:20.406Z</time></trkpt><trkpt lat="31.2662883" lon="-7.1521533"><ele>1725.0</ele><time>2026-04-25T10:40:21.406Z</time></trkpt><trkpt lat="31.2664317" lon="-7.15205"><ele>1729.3333333333335</ele><time>2026-04-25T10:40:22.406Z</time></trkpt><trkpt lat="31.2665783" lon="-7.1519633"><ele>1733.6666666666667</ele><time>2026-04-25T10:40:23.406Z</time></trkpt><trkpt lat="31.266715" lon="-7.1518983"><ele>1738.0</ele><time>2026-04-25T10:40:24.406Z</time></trkpt><trkpt lat="31.2668567" lon="-7.151855"><ele>1738.0</ele><time>2026-04-25T10:40:25.406Z</time></trkpt><trkpt lat="31.2670117" lon="-7.1518383"><ele>1738.0</ele><time>2026-04-25T10:40:26.406Z</time></trkpt><trkpt lat="31.26717" lon="-7.151835"><ele>1738.0</ele><time>2026-04-25T10:40:27.406Z</time></trkpt><trkpt lat="31.267335" lon="-7.1518417"><ele>1740.3333333333335</ele><time>2026-04-25T10:40:28.406Z</time></trkpt><trkpt lat="31.2675117" lon="-7.1518567"><ele>1742.6666666666665</ele><time>2026-04-25T10:40:29.406Z</time></trkpt><trkpt lat="31.26769" lon="-7.15188"><ele>1745.0</ele><time>2026-04-25T10:40:30.406Z</time></trkpt><trkpt lat="31.2678667" lon="-7.1519017"><ele>1745.0</ele><time>2026-04-25T10:40:31.406Z</time></trkpt><trkpt lat="31.2680317" lon="-7.1519133"><ele>1745.0</ele><time>2026-04-25T10:40:32.406Z</time></trkpt><trkpt lat="31.26819" lon="-7.1519133"><ele>1745.0</ele><time>2026-04-25T10:40:33.406Z</time></trkpt><trkpt lat="31.2683217" lon="-7.15192"><ele>1745.75</ele><time>2026-04-25T10:40:34.406Z</time></trkpt><trkpt lat="31.2684567" lon="-7.15193"><ele>1746.5</ele><time>2026-04-25T10:40:35.406Z</time></trkpt><trkpt lat="31.2685817" lon="-7.1519767"><ele>1747.25</ele><time>2026-04-25T10:40:36.406Z</time></trkpt><trkpt lat="31.2687" lon="-7.1520333"><ele>1748.0</ele><time>2026-04-25T10:40:37.406Z</time></trkpt><trkpt lat="31.26882" lon="-7.15208"><ele>1748.0</ele><time>2026-04-25T10:40:38.406Z</time></trkpt><trkpt lat="31.2689333" lon="-7.152095"><ele>1748.0000000000002</ele><time>2026-04-25T10:40:39.406Z</time></trkpt><trkpt lat="31.2690383" lon="-7.1520717"><ele>1748.0000000000002</ele><time>2026-04-25T10:40:40.406Z</time></trkpt><trkpt lat="31.269125" lon="-7.1520217"><ele>1748.0</ele><time>2026-04-25T10:40:41.406Z</time></trkpt><trkpt lat="31.2692083" lon="-7.15194"><ele>1748.0</ele><time>2026-04-25T10:40:42.406Z</time></trkpt><trkpt lat="31.269295" lon="-7.1518717"><ele>1748.5</ele><time>2026-04-25T10:40:43.406Z</time></trkpt><trkpt lat="31.2693983" lon="-7.1518433"><ele>1749.0</ele><time>2026-04-25T10:40:44.406Z</time></trkpt><trkpt lat="31.26952" lon="-7.1518367"><ele>1749.5</ele><time>2026-04-25T10:40:45.406Z</time></trkpt><trkpt lat="31.2696517" lon="-7.1518583"><ele>1750.0</ele><time>2026-04-25T10:40:46.406Z</time></trkpt><trkpt lat="31.2697683" lon="-7.1518817"><ele>1751.0</ele><time>2026-04-25T10:40:47.406Z</time></trkpt><trkpt lat="31.2698783" lon="-7.151905"><ele>1752.0</ele><time>2026-04-25T10:40:48.406Z</time></trkpt><trkpt lat="31.26998" lon="-7.15192"><ele>1753.0</ele><time>2026-04-25T10:40:49.406Z</time></trkpt><trkpt lat="31.2700917" lon="-7.151935"><ele>1754.0</ele><time>2026-04-25T10:40:50.406Z</time></trkpt><trkpt lat="31.2701983" lon="-7.151945"><ele>1755.0</ele><time>2026-04-25T10:40:51.406Z</time></trkpt><trkpt lat="31.2702967" lon="-7.1519467"><ele>1755.0</ele><time>2026-04-25T10:40:52.406Z</time></trkpt><trkpt lat="31.2703717" lon="-7.151945"><ele>1755.0</ele><time>2026-04-25T10:40:53.406Z</time></trkpt><trkpt lat="31.2704367" lon="-7.151935"><ele>1755.0</ele><time>2026-04-25T10:40:54.406Z</time></trkpt><trkpt lat="31.2705183" lon="-7.1519233"><ele>1755.0</ele><time>2026-04-25T10:40:56.406Z</time></trkpt><trkpt lat="31.2705933" lon="-7.15191"><ele>1755.0</ele><time>2026-04-25T10:40:59.406Z</time></trkpt><trkpt lat="31.27065" lon="-7.1519683"><ele>1755.0</ele><time>2026-04-25T10:41:36.406Z</time></trkpt><trkpt lat="31.270685" lon="-7.15203"><ele>1755.0</ele><time>2026-04-25T10:41:38.406Z</time></trkpt><trkpt lat="31.2707283" lon="-7.152135"><ele>1754.6666666666667</ele><time>2026-04-25T10:41:40.406Z</time></trkpt><trkpt lat="31.27076" lon="-7.1522033"><ele>1754.3333333333335</ele><time>2026-04-25T10:41:41.406Z</time></trkpt><trkpt lat="31.2708083" lon="-7.1522817"><ele>1754.0</ele><time>2026-04-25T10:41:42.406Z</time></trkpt><trkpt lat="31.2708633" lon="-7.15233"><ele>1753.6666666666667</ele><time>2026-04-25T10:41:43.406Z</time></trkpt><trkpt lat="31.2709333" lon="-7.1523567"><ele>1753.3333333333335</ele><time>2026-04-25T10:41:44.407Z</time></trkpt><trkpt lat="31.2710117" lon="-7.152365"><ele>1753.0</ele><time>2026-04-25T10:41:45.406Z</time></trkpt><trkpt lat="31.2711033" lon="-7.1523617"><ele>1753.0</ele><time>2026-04-25T10:41:46.406Z</time></trkpt><trkpt lat="31.271205" lon="-7.152365"><ele>1753.0000000000002</ele><time>2026-04-25T10:41:47.406Z</time></trkpt><trkpt lat="31.2713133" lon="-7.1523617"><ele>1753.0000000000002</ele><time>2026-04-25T10:41:48.406Z</time></trkpt><trkpt lat="31.271415" lon="-7.1523633"><ele>1753.0</ele><time>2026-04-25T10:41:49.406Z</time></trkpt><trkpt lat="31.271515" lon="-7.152365"><ele>1753.0</ele><time>2026-04-25T10:41:50.406Z</time></trkpt><trkpt lat="31.2716117" lon="-7.15237"><ele>1754.8333333333335</ele><time>2026-04-25T10:41:51.406Z</time></trkpt><trkpt lat="31.2717" lon="-7.1523933"><ele>1756.6666666666667</ele><time>2026-04-25T10:41:52.406Z</time></trkpt><trkpt lat="31.2717833" lon="-7.1524317"><ele>1758.5</ele><time>2026-04-25T10:41:53.406Z</time></trkpt><trkpt lat="31.27185" lon="-7.1524917"><ele>1760.3333333333335</ele><time>2026-04-25T10:41:54.406Z</time></trkpt><trkpt lat="31.2719217" lon="-7.1525617"><ele>1762.1666666666667</ele><time>2026-04-25T10:41:55.406Z</time></trkpt><trkpt lat="31.27199" lon="-7.1526183"><ele>1764.0</ele><time>2026-04-25T10:41:56.406Z</time></trkpt><trkpt lat="31.2720617" lon="-7.1526533"><ele>1764.0</ele><time>2026-04-25T10:41:57.406Z</time></trkpt><trkpt lat="31.2721383" lon="-7.1526767"><ele>1764.0</ele><time>2026-04-25T10:41:58.406Z</time></trkpt><trkpt lat="31.2722183" lon="-7.15269"><ele>1764.0</ele><time>2026-04-25T10:41:59.406Z</time></trkpt><trkpt lat="31.2722967" lon="-7.152665"><ele>1764.0</ele><time>2026-04-25T10:42:00.406Z</time></trkpt><trkpt lat="31.2723717" lon="-7.1526133"><ele>1764.0</ele><time>2026-04-25T10:42:01.406Z</time></trkpt><trkpt lat="31.27244" lon="-7.15255"><ele>1764.0</ele><time>2026-04-25T10:42:02.406Z</time></trkpt><trkpt lat="31.2725183" lon="-7.1524983"><ele>1763.8000000000002</ele><time>2026-04-25T10:42:03.406Z</time></trkpt><trkpt lat="31.2726067" lon="-7.1524667"><ele>1763.6000000000001</ele><time>2026-04-25T10:42:04.406Z</time></trkpt><trkpt lat="31.2727033" lon="-7.1524467"><ele>1763.4</ele><time>2026-04-25T10:42:05.406Z</time></trkpt><trkpt lat="31.2728033" lon="-7.1524483"><ele>1763.2</ele><time>2026-04-25T10:42:06.406Z</time></trkpt><trkpt lat="31.2728967" lon="-7.1524467"><ele>1763.0</ele><time>2026-04-25T10:42:07.406Z</time></trkpt><trkpt lat="31.2729883" lon="-7.152445"><ele>1763.0</ele><time>2026-04-25T10:42:08.406Z</time></trkpt><trkpt lat="31.27307" lon="-7.15245"><ele>1763.0000000000002</ele><time>2026-04-25T10:42:09.406Z</time></trkpt><trkpt lat="31.2731583" lon="-7.1524483"><ele>1763.0000000000002</ele><time>2026-04-25T10:42:10.406Z</time></trkpt><trkpt lat="31.2732517" lon="-7.1524133"><ele>1763.0</ele><time>2026-04-25T10:42:11.406Z</time></trkpt><trkpt lat="31.2733333" lon="-7.1523567"><ele>1763.0</ele><time>2026-04-25T10:42:12.406Z</time></trkpt><trkpt lat="31.2734067" lon="-7.1522783"><ele>1761.4</ele><time>2026-04-25T10:42:13.406Z</time></trkpt><trkpt lat="31.2734783" lon="-7.1522017"><ele>1759.8000000000002</ele><time>2026-04-25T10:42:14.406Z</time></trkpt><trkpt lat="31.27355" lon="-7.1521467"><ele>1758.2</ele><time>2026-04-25T10:42:15.406Z</time></trkpt><trkpt lat="31.2736383" lon="-7.1521233"><ele>1756.6</ele><time>2026-04-25T10:42:16.407Z</time></trkpt><trkpt lat="31.2737333" lon="-7.1521183"><ele>1755.0</ele><time>2026-04-25T10:42:17.406Z</time></trkpt><trkpt lat="31.2738333" lon="-7.1521233"><ele>1755.0</ele><time>2026-04-25T10:42:18.406Z</time></trkpt><trkpt lat="31.27393" lon="-7.1521267"><ele>1755.0</ele><time>2026-04-25T10:42:19.406Z</time></trkpt><trkpt lat="31.2740283" lon="-7.15211"><ele>1755.0</ele><time>2026-04-25T10:42:20.406Z</time></trkpt><trkpt lat="31.2741133" lon="-7.1520817"><ele>1755.0</ele><time>2026-04-25T10:42:21.406Z</time></trkpt><trkpt lat="31.2741817" lon="-7.152055"><ele>1755.0</ele><time>2026-04-25T10:42:22.406Z</time></trkpt><trkpt lat="31.2742583" lon="-7.1520183"><ele>1755.0</ele><time>2026-04-25T10:42:24.406Z</time></trkpt><trkpt lat="31.274335" lon="-7.1519983"><ele>1756.1666666666667</ele><time>2026-04-25T10:42:27.406Z</time></trkpt><trkpt lat="31.2744317" lon="-7.1519933"><ele>1757.3333333333335</ele><time>2026-04-25T10:42:30.406Z</time></trkpt><trkpt lat="31.2745033" lon="-7.1519933"><ele>1758.5</ele><time>2026-04-25T10:42:32.406Z</time></trkpt><trkpt lat="31.2745883" lon="-7.15202"><ele>1759.6666666666667</ele><time>2026-04-25T10:42:35.406Z</time></trkpt><trkpt lat="31.2746667" lon="-7.1520467"><ele>1760.8333333333335</ele><time>2026-04-25T10:42:38.406Z</time></trkpt><trkpt lat="31.27473" lon="-7.1520517"><ele>1762.0</ele><time>2026-04-25T10:42:40.406Z</time></trkpt><trkpt lat="31.2748" lon="-7.1520417"><ele>1764.0</ele><time>2026-04-25T10:42:42.406Z</time></trkpt><trkpt lat="31.2748867" lon="-7.15202"><ele>1765.9999999999998</ele><time>2026-04-25T10:42:44.406Z</time></trkpt><trkpt lat="31.2749783" lon="-7.15198"><ele>1767.9999999999998</ele><time>2026-04-25T10:42:46.406Z</time></trkpt><trkpt lat="31.275075" lon="-7.15192"><ele>1770.0</ele><time>2026-04-25T10:42:48.406Z</time></trkpt><trkpt lat="31.27516" lon="-7.1518683"><ele>1772.0</ele><time>2026-04-25T10:42:50.406Z</time></trkpt><trkpt lat="31.2752517" lon="-7.1518417"><ele>1772.0</ele><time>2026-04-25T10:42:52.407Z</time></trkpt><trkpt lat="31.2753467" lon="-7.1518283"><ele>1771.9999999999998</ele><time>2026-04-25T10:42:54.406Z</time></trkpt><trkpt lat="31.2754567" lon="-7.1518383"><ele>1771.9999999999998</ele><time>2026-04-25T10:42:56.406Z</time></trkpt><trkpt lat="31.2755733" lon="-7.1518483"><ele>1772.0</ele><time>2026-04-25T10:42:58.406Z</time></trkpt><trkpt lat="31.275695" lon="-7.1518583"><ele>1772.0</ele><time>2026-04-25T10:43:00.406Z</time></trkpt><trkpt lat="31.27576" lon="-7.1518617"><ele>1773.2857142857142</ele><time>2026-04-25T10:43:01.406Z</time></trkpt><trkpt lat="31.2758333" lon="-7.1518583"><ele>1774.5714285714287</ele><time>2026-04-25T10:43:02.406Z</time></trkpt><trkpt lat="31.2759033" lon="-7.151865"><ele>1775.8571428571427</ele><time>2026-04-25T10:43:03.406Z</time></trkpt><trkpt lat="31.2759717" lon="-7.1518683"><ele>1777.142857142857</ele><time>2026-04-25T10:43:04.406Z</time></trkpt><trkpt lat="31.2760433" lon="-7.151875"><ele>1778.4285714285713</ele><time>2026-04-25T10:43:05.406Z</time></trkpt><trkpt lat="31.2761083" lon="-7.1518883"><ele>1779.7142857142856</ele><time>2026-04-25T10:43:06.406Z</time></trkpt><trkpt lat="31.2761817" lon="-7.1518983"><ele>1781.0</ele><time>2026-04-25T10:43:07.406Z</time></trkpt><trkpt lat="31.2762517" lon="-7.1519133"><ele>1780.9999999999998</ele><time>2026-04-25T10:43:08.406Z</time></trkpt><trkpt lat="31.2763183" lon="-7.1519317"><ele>1781.0</ele><time>2026-04-25T10:43:09.407Z</time></trkpt><trkpt lat="31.276385" lon="-7.1519583"><ele>1781.0</ele><time>2026-04-25T10:43:10.406Z</time></trkpt><trkpt lat="31.2764517" lon="-7.1519867"><ele>1781.0</ele><time>2026-04-25T10:43:11.406Z</time></trkpt><trkpt lat="31.276525" lon="-7.1520133"><ele>1780.9999999999998</ele><time>2026-04-25T10:43:12.406Z</time></trkpt><trkpt lat="31.2766033" lon="-7.1520417"><ele>1781.0</ele><time>2026-04-25T10:43:13.406Z</time></trkpt><trkpt lat="31.2766817" lon="-7.152075"><ele>1781.4</ele><time>2026-04-25T10:43:14.406Z</time></trkpt><trkpt lat="31.2767633" lon="-7.15212"><ele>1781.8</ele><time>2026-04-25T10:43:15.406Z</time></trkpt><trkpt lat="31.2768383" lon="-7.1521867"><ele>1782.2000000000003</ele><time>2026-04-25T10:43:16.406Z</time></trkpt><trkpt lat="31.276915" lon="-7.152275"><ele>1782.6000000000001</ele><time>2026-04-25T10:43:17.406Z</time></trkpt><trkpt lat="31.2769833" lon="-7.152375"><ele>1783.0</ele><time>2026-04-25T10:43:18.406Z</time></trkpt><trkpt lat="31.2770467" lon="-7.152485"><ele>1783.0000000000002</ele><time>2026-04-25T10:43:19.406Z</time></trkpt><trkpt lat="31.2771067" lon="-7.1525733"><ele>1783.0</ele><time>2026-04-25T10:43:20.406Z</time></trkpt><trkpt lat="31.27717" lon="-7.1526367"><ele>1783.0</ele><time>2026-04-25T10:43:21.406Z</time></trkpt><trkpt lat="31.2772417" lon="-7.1526633"><ele>1783.0</ele><time>2026-04-25T10:43:22.406Z</time></trkpt><trkpt lat="31.27731" lon="-7.1526567"><ele>1783.0000000000002</ele><time>2026-04-25T10:43:23.406Z</time></trkpt><trkpt lat="31.2773683" lon="-7.152625"><ele>1783.0</ele><time>2026-04-25T10:43:24.406Z</time></trkpt><trkpt lat="31.2774033" lon="-7.1525633"><ele>1781.3333333333335</ele><time>2026-04-25T10:43:25.407Z</time></trkpt><trkpt lat="31.2774267" lon="-7.1524933"><ele>1779.6666666666667</ele><time>2026-04-25T10:43:26.406Z</time></trkpt><trkpt lat="31.277445" lon="-7.1523783"><ele>1778.0</ele><time>2026-04-25T10:43:28.406Z</time></trkpt><trkpt lat="31.277465" lon="-7.1523033"><ele>1776.3333333333335</ele><time>2026-04-25T10:43:30.406Z</time></trkpt><trkpt lat="31.2774933" lon="-7.1522117"><ele>1774.6666666666667</ele><time>2026-04-25T10:43:53.406Z</time></trkpt><trkpt lat="31.2775567" lon="-7.1521033"><ele>1773.0</ele><time>2026-04-25T10:43:56.406Z</time></trkpt><trkpt lat="31.2775867" lon="-7.1520333"><ele>1772.8333333333333</ele><time>2026-04-25T10:43:57.406Z</time></trkpt><trkpt lat="31.27761" lon="-7.1519483"><ele>1772.6666666666665</ele><time>2026-04-25T10:43:58.406Z</time></trkpt><trkpt lat="31.27763" lon="-7.1518433"><ele>1772.5</ele><time>2026-04-25T10:43:59.406Z</time></trkpt><trkpt lat="31.2776433" lon="-7.1517317"><ele>1772.3333333333333</ele><time>2026-04-25T10:44:00.406Z</time></trkpt><trkpt lat="31.27765" lon="-7.1516283"><ele>1772.1666666666665</ele><time>2026-04-25T10:44:01.406Z</time></trkpt><trkpt lat="31.2776583" lon="-7.1515283"><ele>1772.0</ele><time>2026-04-25T10:44:02.406Z</time></trkpt><trkpt lat="31.2776617" lon="-7.1514267"><ele>1771.1666666666665</ele><time>2026-04-25T10:44:03.406Z</time></trkpt><trkpt lat="31.2776633" lon="-7.1513233"><ele>1770.3333333333333</ele><time>2026-04-25T10:44:04.406Z</time></trkpt><trkpt lat="31.2776617" lon="-7.1512333"><ele>1769.5</ele><time>2026-04-25T10:44:05.406Z</time></trkpt><trkpt lat="31.277685" lon="-7.15115"><ele>1768.6666666666665</ele><time>2026-04-25T10:44:06.406Z</time></trkpt><trkpt lat="31.2777267" lon="-7.15107"><ele>1767.8333333333333</ele><time>2026-04-25T10:44:07.406Z</time></trkpt><trkpt lat="31.2777767" lon="-7.150995"><ele>1767.0</ele><time>2026-04-25T10:44:08.406Z</time></trkpt><trkpt lat="31.27783" lon="-7.15092"><ele>1767.0</ele><time>2026-04-25T10:44:09.406Z</time></trkpt><trkpt lat="31.27789" lon="-7.1508483"><ele>1767.0</ele><time>2026-04-25T10:44:10.406Z</time></trkpt><trkpt lat="31.2779433" lon="-7.1507867"><ele>1767.0</ele><time>2026-04-25T10:44:11.406Z</time></trkpt><trkpt lat="31.278" lon="-7.1507367"><ele>1767.0</ele><time>2026-04-25T10:44:12.406Z</time></trkpt><trkpt lat="31.2780533" lon="-7.1506917"><ele>1767.0</ele><time>2026-04-25T10:44:13.406Z</time></trkpt><trkpt lat="31.2781583" lon="-7.1506233"><ele>1767.0</ele><time>2026-04-25T10:44:15.406Z</time></trkpt><trkpt lat="31.2782633" lon="-7.1505783"><ele>1765.1666666666667</ele><time>2026-04-25T10:44:17.407Z</time></trkpt><trkpt lat="31.2783317" lon="-7.1505783"><ele>1763.3333333333335</ele><time>2026-04-25T10:44:18.406Z</time></trkpt><trkpt lat="31.27841" lon="-7.1505983"><ele>1761.5</ele><time>2026-04-25T10:44:19.406Z</time></trkpt><trkpt lat="31.2784917" lon="-7.1506283"><ele>1759.6666666666667</ele><time>2026-04-25T10:44:20.406Z</time></trkpt><trkpt lat="31.2785767" lon="-7.1506517"><ele>1757.8333333333335</ele><time>2026-04-25T10:44:21.406Z</time></trkpt><trkpt lat="31.27867" lon="-7.1506567"><ele>1756.0</ele><time>2026-04-25T10:44:22.406Z</time></trkpt><trkpt lat="31.2787733" lon="-7.150645"><ele>1756.0</ele><time>2026-04-25T10:44:23.406Z</time></trkpt><trkpt lat="31.2788817" lon="-7.1506217"><ele>1756.0</ele><time>2026-04-25T10:44:24.406Z</time></trkpt><trkpt lat="31.27899" lon="-7.150605"><ele>1756.0</ele><time>2026-04-25T10:44:25.406Z</time></trkpt><trkpt lat="31.279085" lon="-7.1505983"><ele>1756.0</ele><time>2026-04-25T10:44:26.406Z</time></trkpt><trkpt lat="31.2791883" lon="-7.150595"><ele>1756.0</ele><time>2026-04-25T10:44:27.406Z</time></trkpt><trkpt lat="31.2792867" lon="-7.15058"><ele>1755.8</ele><time>2026-04-25T10:44:28.406Z</time></trkpt><trkpt lat="31.2793867" lon="-7.15058"><ele>1755.6</ele><time>2026-04-25T10:44:29.407Z</time></trkpt><trkpt lat="31.2794817" lon="-7.150585"><ele>1755.4</ele><time>2026-04-25T10:44:30.406Z</time></trkpt><trkpt lat="31.2795817" lon="-7.1505833"><ele>1755.2</ele><time>2026-04-25T10:44:31.406Z</time></trkpt><trkpt lat="31.2796833" lon="-7.15058"><ele>1755.0</ele><time>2026-04-25T10:44:32.406Z</time></trkpt><trkpt lat="31.279785" lon="-7.150575"><ele>1755.4</ele><time>2026-04-25T10:44:33.406Z</time></trkpt><trkpt lat="31.279895" lon="-7.1505783"><ele>1755.8</ele><time>2026-04-25T10:44:34.406Z</time></trkpt><trkpt lat="31.2799983" lon="-7.1505767"><ele>1756.1999999999998</ele><time>2026-04-25T10:44:35.406Z</time></trkpt><trkpt lat="31.2801" lon="-7.1505833"><ele>1756.6</ele><time>2026-04-25T10:44:36.406Z</time></trkpt><trkpt lat="31.2801983" lon="-7.1505817"><ele>1757.0</ele><time>2026-04-25T10:44:37.406Z</time></trkpt><trkpt lat="31.2803033" lon="-7.1505783"><ele>1757.0</ele><time>2026-04-25T10:44:38.406Z</time></trkpt><trkpt lat="31.28041" lon="-7.150575"><ele>1756.9999999999998</ele><time>2026-04-25T10:44:39.406Z</time></trkpt><trkpt lat="31.280515" lon="-7.150565"><ele>1756.9999999999998</ele><time>2026-04-25T10:44:40.406Z</time></trkpt><trkpt lat="31.2806233" lon="-7.1505633"><ele>1757.0</ele><time>2026-04-25T10:44:41.406Z</time></trkpt><trkpt lat="31.2807283" lon="-7.150565"><ele>1757.0</ele><time>2026-04-25T10:44:42.406Z</time></trkpt><trkpt lat="31.2808367" lon="-7.150565"><ele>1756.6</ele><time>2026-04-25T10:44:43.406Z</time></trkpt><trkpt lat="31.2809417" lon="-7.1505633"><ele>1756.1999999999998</ele><time>2026-04-25T10:44:44.406Z</time></trkpt><trkpt lat="31.281045" lon="-7.1505633"><ele>1755.8</ele><time>2026-04-25T10:44:45.406Z</time></trkpt><trkpt lat="31.2811467" lon="-7.1505633"><ele>1755.4</ele><time>2026-04-25T10:44:46.406Z</time></trkpt><trkpt lat="31.2812333" lon="-7.1505633"><ele>1755.0</ele><time>2026-04-25T10:44:47.406Z</time></trkpt><trkpt lat="31.2812967" lon="-7.150565"><ele>1755.0</ele><time>2026-04-25T10:44:48.406Z</time></trkpt><trkpt lat="31.2813783" lon="-7.1505733"><ele>1755.0</ele><time>2026-04-25T10:44:50.406Z</time></trkpt><trkpt lat="31.2814433" lon="-7.1505767"><ele>1755.0</ele><time>2026-04-25T10:44:52.406Z</time></trkpt><trkpt lat="31.281515" lon="-7.150585"><ele>1755.0</ele><time>2026-04-25T10:44:54.406Z</time></trkpt><trkpt lat="31.281595" lon="-7.1505917"><ele>1755.0</ele><time>2026-04-25T10:44:57.406Z</time></trkpt><trkpt lat="31.281685" lon="-7.1505767"><ele>1755.0</ele><time>2026-04-25T10:45:00.406Z</time></trkpt><trkpt lat="31.2817733" lon="-7.1505617"><ele>1755.1666666666667</ele><time>2026-04-25T10:45:03.406Z</time></trkpt><trkpt lat="31.28186" lon="-7.1505467"><ele>1755.3333333333335</ele><time>2026-04-25T10:45:06.406Z</time></trkpt><trkpt lat="31.2819467" lon="-7.1505367"><ele>1755.5</ele><time>2026-04-25T10:45:09.406Z</time></trkpt><trkpt lat="31.282025" lon="-7.15054"><ele>1755.6666666666667</ele><time>2026-04-25T10:45:12.406Z</time></trkpt><trkpt lat="31.2820983" lon="-7.1505483"><ele>1755.8333333333335</ele><time>2026-04-25T10:45:15.406Z</time></trkpt><trkpt lat="31.282165" lon="-7.1505517"><ele>1756.0</ele><time>2026-04-25T10:45:18.406Z</time></trkpt><trkpt lat="31.2822467" lon="-7.1505633"><ele>1756.1666666666667</ele><time>2026-04-25T10:45:22.406Z</time></trkpt><trkpt lat="31.28232" lon="-7.1505783"><ele>1756.3333333333335</ele><time>2026-04-25T10:45:26.406Z</time></trkpt><trkpt lat="31.2823967" lon="-7.1505967"><ele>1756.5</ele><time>2026-04-25T10:45:29.406Z</time></trkpt><trkpt lat="31.28248" lon="-7.1505983"><ele>1756.6666666666665</ele><time>2026-04-25T10:45:31.406Z</time></trkpt><trkpt lat="31.2826033" lon="-7.1505917"><ele>1756.8333333333333</ele><time>2026-04-25T10:45:33.406Z</time></trkpt><trkpt lat="31.282675" lon="-7.15059"><ele>1757.0</ele><time>2026-04-25T10:45:34.406Z</time></trkpt><trkpt lat="31.2827517" lon="-7.1505883"><ele>1757.0</ele><time>2026-04-25T10:45:35.406Z</time></trkpt><trkpt lat="31.282835" lon="-7.1505833"><ele>1756.9999999999998</ele><time>2026-04-25T10:45:36.406Z</time></trkpt><trkpt lat="31.2829167" lon="-7.1505833"><ele>1756.9999999999998</ele><time>2026-04-25T10:45:37.407Z</time></trkpt><trkpt lat="31.28301" lon="-7.150585"><ele>1757.0</ele><time>2026-04-25T10:45:38.406Z</time></trkpt><trkpt lat="31.2831067" lon="-7.150585"><ele>1757.0</ele><time>2026-04-25T10:45:39.406Z</time></trkpt><trkpt lat="31.2832083" lon="-7.1505883"><ele>1757.8</ele><time>2026-04-25T10:45:40.406Z</time></trkpt><trkpt lat="31.2833033" lon="-7.15062"><ele>1758.6</ele><time>2026-04-25T10:45:41.406Z</time></trkpt><trkpt lat="31.2833967" lon="-7.1506767"><ele>1759.3999999999999</ele><time>2026-04-25T10:45:42.406Z</time></trkpt><trkpt lat="31.283495" lon="-7.15075"><ele>1760.1999999999998</ele><time>2026-04-25T10:45:43.406Z</time></trkpt><trkpt lat="31.2835967" lon="-7.15082"><ele>1761.0</ele><time>2026-04-25T10:45:44.406Z</time></trkpt><trkpt lat="31.28369" lon="-7.1508783"><ele>1762.0</ele><time>2026-04-25T10:45:45.406Z</time></trkpt><trkpt lat="31.2837733" lon="-7.150925"><ele>1763.0</ele><time>2026-04-25T10:45:46.406Z</time></trkpt><trkpt lat="31.2838533" lon="-7.1509533"><ele>1764.0</ele><time>2026-04-25T10:45:47.406Z</time></trkpt><trkpt lat="31.28393" lon="-7.1509783"><ele>1765.0</ele><time>2026-04-25T10:45:48.406Z</time></trkpt><trkpt lat="31.2840167" lon="-7.1509717"><ele>1766.0</ele><time>2026-04-25T10:45:49.406Z</time></trkpt><trkpt lat="31.2841067" lon="-7.1509317"><ele>1767.0</ele><time>2026-04-25T10:45:50.406Z</time></trkpt><trkpt lat="31.2841983" lon="-7.1508617"><ele>1767.0</ele><time>2026-04-25T10:45:51.406Z</time></trkpt><trkpt lat="31.284285" lon="-7.15079"><ele>1767.0</ele><time>2026-04-25T10:45:52.406Z</time></trkpt><trkpt lat="31.2843767" lon="-7.1507067"><ele>1767.0</ele><time>2026-04-25T10:45:53.406Z</time></trkpt><trkpt lat="31.2844717" lon="-7.150615"><ele>1767.0</ele><time>2026-04-25T10:45:54.406Z</time></trkpt><trkpt lat="31.2845567" lon="-7.1505183"><ele>1767.0</ele><time>2026-04-25T10:45:55.406Z</time></trkpt><trkpt lat="31.2846417" lon="-7.1504267"><ele>1766.9999999999998</ele><time>2026-04-25T10:45:56.406Z</time></trkpt><trkpt lat="31.284715" lon="-7.1503367"><ele>1766.9999999999998</ele><time>2026-04-25T10:45:57.406Z</time></trkpt><trkpt lat="31.2847833" lon="-7.1502483"><ele>1767.0</ele><time>2026-04-25T10:45:58.406Z</time></trkpt><trkpt lat="31.2848417" lon="-7.150155"><ele>1767.0</ele><time>2026-04-25T10:45:59.406Z</time></trkpt><trkpt lat="31.2848867" lon="-7.1500583"><ele>1767.0</ele><time>2026-04-25T10:46:00.406Z</time></trkpt><trkpt lat="31.2849233" lon="-7.1499583"><ele>1766.9999999999998</ele><time>2026-04-25T10:46:01.406Z</time></trkpt><trkpt lat="31.2849617" lon="-7.1498583"><ele>1766.9999999999998</ele><time>2026-04-25T10:46:02.406Z</time></trkpt><trkpt lat="31.2850133" lon="-7.1497633"><ele>1767.0</ele><time>2026-04-25T10:46:03.406Z</time></trkpt><trkpt lat="31.28508" lon="-7.1496867"><ele>1767.0</ele><time>2026-04-25T10:46:04.406Z</time></trkpt><trkpt lat="31.2851583" lon="-7.1496317"><ele>1766.5</ele><time>2026-04-25T10:46:05.406Z</time></trkpt><trkpt lat="31.2852367" lon="-7.14959"><ele>1766.0</ele><time>2026-04-25T10:46:06.407Z</time></trkpt><trkpt lat="31.28532" lon="-7.14956"><ele>1765.5</ele><time>2026-04-25T10:46:07.406Z</time></trkpt><trkpt lat="31.2853983" lon="-7.1495283"><ele>1765.0</ele><time>2026-04-25T10:46:08.406Z</time></trkpt><trkpt lat="31.28548" lon="-7.1495117"><ele>1764.5</ele><time>2026-04-25T10:46:09.406Z</time></trkpt><trkpt lat="31.2855467" lon="-7.1494867"><ele>1764.0</ele><time>2026-04-25T10:46:10.406Z</time></trkpt><trkpt lat="31.2856167" lon="-7.1494633"><ele>1764.0</ele><time>2026-04-25T10:46:11.405Z</time></trkpt><trkpt lat="31.285685" lon="-7.1494383"><ele>1764.0</ele><time>2026-04-25T10:46:12.405Z</time></trkpt><trkpt lat="31.2857583" lon="-7.14941"><ele>1764.0</ele><time>2026-04-25T10:46:13.405Z</time></trkpt><trkpt lat="31.2858333" lon="-7.1493817"><ele>1764.0</ele><time>2026-04-25T10:46:14.405Z</time></trkpt><trkpt lat="31.2859133" lon="-7.1493617"><ele>1764.0</ele><time>2026-04-25T10:46:15.405Z</time></trkpt><trkpt lat="31.2859983" lon="-7.1493433"><ele>1764.0</ele><time>2026-04-25T10:46:16.405Z</time></trkpt><trkpt lat="31.2860883" lon="-7.1493233"><ele>1764.0</ele><time>2026-04-25T10:46:17.405Z</time></trkpt><trkpt lat="31.2861833" lon="-7.1493117"><ele>1764.0</ele><time>2026-04-25T10:46:18.405Z</time></trkpt><trkpt lat="31.2862817" lon="-7.1493083"><ele>1764.0</ele><time>2026-04-25T10:46:19.405Z</time></trkpt><trkpt lat="31.2863867" lon="-7.149315"><ele>1764.0</ele><time>2026-04-25T10:46:20.405Z</time></trkpt><trkpt lat="31.2864883" lon="-7.1493383"><ele>1764.0</ele><time>2026-04-25T10:46:21.405Z</time></trkpt><trkpt lat="31.2865883" lon="-7.1493767"><ele>1764.8000000000002</ele><time>2026-04-25T10:46:22.405Z</time></trkpt><trkpt lat="31.286685" lon="-7.1494233"><ele>1765.6000000000001</ele><time>2026-04-25T10:46:23.405Z</time></trkpt><trkpt lat="31.2867717" lon="-7.1494783"><ele>1766.4</ele><time>2026-04-25T10:46:24.405Z</time></trkpt><trkpt lat="31.2868583" lon="-7.1495433"><ele>1767.2</ele><time>2026-04-25T10:46:25.405Z</time></trkpt><trkpt lat="31.2869367" lon="-7.14962"><ele>1768.0</ele><time>2026-04-25T10:46:26.405Z</time></trkpt><trkpt lat="31.2870167" lon="-7.149725"><ele>1768.0</ele><time>2026-04-25T10:46:27.405Z</time></trkpt><trkpt lat="31.2870783" lon="-7.1498533"><ele>1768.0</ele><time>2026-04-25T10:46:28.405Z</time></trkpt><trkpt lat="31.2871267" lon="-7.15"><ele>1768.0</ele><time>2026-04-25T10:46:29.405Z</time></trkpt><trkpt lat="31.28716" lon="-7.1501583"><ele>1768.0</ele><time>2026-04-25T10:46:30.405Z</time></trkpt><trkpt lat="31.2871717" lon="-7.15034"><ele>1772.3333333333335</ele><time>2026-04-25T10:46:31.405Z</time></trkpt><trkpt lat="31.2871733" lon="-7.1505317"><ele>1776.6666666666665</ele><time>2026-04-25T10:46:32.405Z</time></trkpt><trkpt lat="31.2871767" lon="-7.1507333"><ele>1781.0</ele><time>2026-04-25T10:46:33.405Z</time></trkpt><trkpt lat="31.2871817" lon="-7.1509417"><ele>1787.3333333333333</ele><time>2026-04-25T10:46:34.405Z</time></trkpt><trkpt lat="31.2871717" lon="-7.1511583"><ele>1793.6666666666665</ele><time>2026-04-25T10:46:35.405Z</time></trkpt><trkpt lat="31.2871533" lon="-7.1513883"><ele>1800.0</ele><time>2026-04-25T10:46:36.405Z</time></trkpt><trkpt lat="31.2871267" lon="-7.151625"><ele>1801.6666666666665</ele><time>2026-04-25T10:46:37.406Z</time></trkpt><trkpt lat="31.2871033" lon="-7.1518733"><ele>1803.3333333333333</ele><time>2026-04-25T10:46:38.405Z</time></trkpt><trkpt lat="31.2870733" lon="-7.1521267"><ele>1805.0</ele><time>2026-04-25T10:46:39.405Z</time></trkpt><trkpt lat="31.2870417" lon="-7.15237"><ele>1805.3333333333333</ele><time>2026-04-25T10:46:40.405Z</time></trkpt><trkpt lat="31.2870083" lon="-7.1526"><ele>1805.6666666666665</ele><time>2026-04-25T10:46:41.405Z</time></trkpt><trkpt lat="31.2869767" lon="-7.1528133"><ele>1806.0</ele><time>2026-04-25T10:46:42.405Z</time></trkpt><trkpt lat="31.2869517" lon="-7.15301"><ele>1806.0</ele><time>2026-04-25T10:46:43.406Z</time></trkpt><trkpt lat="31.2869383" lon="-7.1531983"><ele>1806.0</ele><time>2026-04-25T10:46:44.406Z</time></trkpt><trkpt lat="31.2869433" lon="-7.1533733"><ele>1806.0</ele><time>2026-04-25T10:46:45.405Z</time></trkpt><trkpt lat="31.2869783" lon="-7.15355"><ele>1805.6666666666665</ele><time>2026-04-25T10:46:46.405Z</time></trkpt><trkpt lat="31.2870517" lon="-7.153725"><ele>1805.3333333333333</ele><time>2026-04-25T10:46:47.405Z</time></trkpt><trkpt lat="31.2871433" lon="-7.1538833"><ele>1805.0</ele><time>2026-04-25T10:46:48.405Z</time></trkpt><trkpt lat="31.287265" lon="-7.1540133"><ele>1800.6666666666665</ele><time>2026-04-25T10:46:49.405Z</time></trkpt><trkpt lat="31.28741" lon="-7.1541167"><ele>1796.3333333333335</ele><time>2026-04-25T10:46:50.405Z</time></trkpt><trkpt lat="31.2875533" lon="-7.1542033"><ele>1792.0</ele><time>2026-04-25T10:46:51.406Z</time></trkpt><trkpt lat="31.2876883" lon="-7.1542883"><ele>1792.0</ele><time>2026-04-25T10:46:52.405Z</time></trkpt><trkpt lat="31.28781" lon="-7.1543817"><ele>1792.0</ele><time>2026-04-25T10:46:53.405Z</time></trkpt><trkpt lat="31.2879117" lon="-7.154485"><ele>1792.0</ele><time>2026-04-25T10:46:54.406Z</time></trkpt><trkpt lat="31.2880017" lon="-7.1545983"><ele>1792.0</ele><time>2026-04-25T10:46:55.405Z</time></trkpt><trkpt lat="31.2880767" lon="-7.154715"><ele>1791.0</ele><time>2026-04-25T10:46:56.405Z</time></trkpt><trkpt lat="31.2881583" lon="-7.1548383"><ele>1790.0</ele><time>2026-04-25T10:46:57.405Z</time></trkpt><trkpt lat="31.2882333" lon="-7.154975"><ele>1789.0</ele><time>2026-04-25T10:46:58.405Z</time></trkpt><trkpt lat="31.2883117" lon="-7.1551117"><ele>1788.0</ele><time>2026-04-25T10:46:59.405Z</time></trkpt><trkpt lat="31.288385" lon="-7.1552417"><ele>1788.0</ele><time>2026-04-25T10:47:00.405Z</time></trkpt><trkpt lat="31.288455" lon="-7.1553633"><ele>1788.0000000000002</ele><time>2026-04-25T10:47:01.405Z</time></trkpt><trkpt lat="31.2885217" lon="-7.1554783"><ele>1788.0000000000002</ele><time>2026-04-25T10:47:02.405Z</time></trkpt><trkpt lat="31.2885783" lon="-7.15558"><ele>1788.0</ele><time>2026-04-25T10:47:03.405Z</time></trkpt><trkpt lat="31.288625" lon="-7.1556633"><ele>1788.0</ele><time>2026-04-25T10:47:04.405Z</time></trkpt><trkpt lat="31.28867" lon="-7.155735"><ele>1790.3333333333333</ele><time>2026-04-25T10:47:05.405Z</time></trkpt><trkpt lat="31.2887083" lon="-7.1558"><ele>1792.6666666666665</ele><time>2026-04-25T10:47:06.405Z</time></trkpt><trkpt lat="31.288765" lon="-7.1559167"><ele>1795.0</ele><time>2026-04-25T10:47:08.405Z</time></trkpt><trkpt lat="31.28881" lon="-7.1560167"><ele>1797.3333333333333</ele><time>2026-04-25T10:47:10.405Z</time></trkpt><trkpt lat="31.28884" lon="-7.1560933"><ele>1799.6666666666665</ele><time>2026-04-25T10:47:12.405Z</time></trkpt><trkpt lat="31.2888717" lon="-7.1561817"><ele>1802.0</ele><time>2026-04-25T10:47:15.405Z</time></trkpt><trkpt lat="31.28891" lon="-7.156305"><ele>1799.9999999999998</ele><time>2026-04-25T10:47:18.405Z</time></trkpt><trkpt lat="31.2889317" lon="-7.1563867"><ele>1798.0</ele><time>2026-04-25T10:47:19.405Z</time></trkpt><trkpt lat="31.288955" lon="-7.15648"><ele>1796.0</ele><time>2026-04-25T10:47:20.405Z</time></trkpt><trkpt lat="31.2889783" lon="-7.1565783"><ele>1794.0</ele><time>2026-04-25T10:47:21.405Z</time></trkpt><trkpt lat="31.28899" lon="-7.1566817"><ele>1791.9999999999998</ele><time>2026-04-25T10:47:22.405Z</time></trkpt><trkpt lat="31.288995" lon="-7.1567917"><ele>1790.0</ele><time>2026-04-25T10:47:23.405Z</time></trkpt><trkpt lat="31.2889933" lon="-7.1569083"><ele>1790.0</ele><time>2026-04-25T10:47:24.406Z</time></trkpt><trkpt lat="31.2889967" lon="-7.15703"><ele>1790.0</ele><time>2026-04-25T10:47:25.405Z</time></trkpt><trkpt lat="31.289" lon="-7.157155"><ele>1790.0</ele><time>2026-04-25T10:47:26.405Z</time></trkpt><trkpt lat="31.28901" lon="-7.1572833"><ele>1790.0</ele><time>2026-04-25T10:47:27.405Z</time></trkpt><trkpt lat="31.289015" lon="-7.15742"><ele>1790.0</ele><time>2026-04-25T10:47:28.405Z</time></trkpt><trkpt lat="31.289025" lon="-7.1575567"><ele>1790.25</ele><time>2026-04-25T10:47:29.405Z</time></trkpt><trkpt lat="31.2890467" lon="-7.1576983"><ele>1790.5</ele><time>2026-04-25T10:47:30.405Z</time></trkpt><trkpt lat="31.2890733" lon="-7.1578383"><ele>1790.75</ele><time>2026-04-25T10:47:31.405Z</time></trkpt><trkpt lat="31.2891117" lon="-7.1579783"><ele>1791.0</ele><time>2026-04-25T10:47:32.405Z</time></trkpt><trkpt lat="31.2891433" lon="-7.1581167"><ele>1792.0</ele><time>2026-04-25T10:47:33.405Z</time></trkpt><trkpt lat="31.2891533" lon="-7.1582583"><ele>1793.0</ele><time>2026-04-25T10:47:34.405Z</time></trkpt><trkpt lat="31.289145" lon="-7.1584067"><ele>1794.0</ele><time>2026-04-25T10:47:35.406Z</time></trkpt><trkpt lat="31.289125" lon="-7.1585683"><ele>1795.0</ele><time>2026-04-25T10:47:36.405Z</time></trkpt><trkpt lat="31.2891017" lon="-7.1587367"><ele>1795.0</ele><time>2026-04-25T10:47:37.405Z</time></trkpt><trkpt lat="31.289075" lon="-7.1589017"><ele>1795.0</ele><time>2026-04-25T10:47:38.405Z</time></trkpt><trkpt lat="31.2890433" lon="-7.1590433"><ele>1795.0</ele><time>2026-04-25T10:47:39.405Z</time></trkpt><trkpt lat="31.2890033" lon="-7.1591733"><ele>1795.0</ele><time>2026-04-25T10:47:40.405Z</time></trkpt><trkpt lat="31.2889567" lon="-7.1592933"><ele>1798.6</ele><time>2026-04-25T10:47:41.405Z</time></trkpt><trkpt lat="31.288895" lon="-7.1593967"><ele>1802.2</ele><time>2026-04-25T10:47:42.406Z</time></trkpt><trkpt lat="31.2888233" lon="-7.159495"><ele>1805.8000000000002</ele><time>2026-04-25T10:47:43.405Z</time></trkpt><trkpt lat="31.288745" lon="-7.15958"><ele>1809.4</ele><time>2026-04-25T10:47:44.405Z</time></trkpt><trkpt lat="31.2886633" lon="-7.1596683"><ele>1813.0</ele><time>2026-04-25T10:47:45.405Z</time></trkpt><trkpt lat="31.2885733" lon="-7.1597567"><ele>1813.0</ele><time>2026-04-25T10:47:46.406Z</time></trkpt><trkpt lat="31.2884883" lon="-7.15985"><ele>1813.0</ele><time>2026-04-25T10:47:47.406Z</time></trkpt><trkpt lat="31.2884083" lon="-7.1599517"><ele>1813.0</ele><time>2026-04-25T10:47:48.405Z</time></trkpt><trkpt lat="31.288325" lon="-7.1600633"><ele>1813.0</ele><time>2026-04-25T10:47:49.405Z</time></trkpt><trkpt lat="31.2882567" lon="-7.1601933"><ele>1810.75</ele><time>2026-04-25T10:47:50.405Z</time></trkpt><trkpt lat="31.28822" lon="-7.1603433"><ele>1808.5</ele><time>2026-04-25T10:47:51.405Z</time></trkpt><trkpt lat="31.2881867" lon="-7.160505"><ele>1806.25</ele><time>2026-04-25T10:47:52.405Z</time></trkpt><trkpt lat="31.28816" lon="-7.1606783"><ele>1804.0</ele><time>2026-04-25T10:47:53.405Z</time></trkpt><trkpt lat="31.2881367" lon="-7.160855"><ele>1803.6666666666667</ele><time>2026-04-25T10:47:54.405Z</time></trkpt><trkpt lat="31.288105" lon="-7.1610383"><ele>1803.3333333333335</ele><time>2026-04-25T10:47:55.405Z</time></trkpt><trkpt lat="31.2880817" lon="-7.1612333"><ele>1803.0</ele><time>2026-04-25T10:47:56.405Z</time></trkpt><trkpt lat="31.2880517" lon="-7.161435"><ele>1811.6666666666665</ele><time>2026-04-25T10:47:57.405Z</time></trkpt><trkpt lat="31.28802" lon="-7.16164"><ele>1820.3333333333333</ele><time>2026-04-25T10:47:58.405Z</time></trkpt><trkpt lat="31.2879817" lon="-7.1618467"><ele>1829.0</ele><time>2026-04-25T10:47:59.405Z</time></trkpt><trkpt lat="31.2879417" lon="-7.1620733"><ele>1829.0</ele><time>2026-04-25T10:48:00.405Z</time></trkpt><trkpt lat="31.287895" lon="-7.16232"><ele>1829.0</ele><time>2026-04-25T10:48:01.405Z</time></trkpt><trkpt lat="31.2878383" lon="-7.1625717"><ele>1829.0</ele><time>2026-04-25T10:48:02.405Z</time></trkpt><trkpt lat="31.2877933" lon="-7.1628383"><ele>1830.0</ele><time>2026-04-25T10:48:03.405Z</time></trkpt><trkpt lat="31.2877633" lon="-7.1631183"><ele>1831.0</ele><time>2026-04-25T10:48:04.405Z</time></trkpt><trkpt lat="31.2877683" lon="-7.1634017"><ele>1823.5</ele><time>2026-04-25T10:48:05.405Z</time></trkpt><trkpt lat="31.287795" lon="-7.1636867"><ele>1816.0</ele><time>2026-04-25T10:48:06.405Z</time></trkpt><trkpt lat="31.2878417" lon="-7.1639767"><ele>1819.5</ele><time>2026-04-25T10:48:07.405Z</time></trkpt><trkpt lat="31.2878917" lon="-7.1642467"><ele>1823.0</ele><time>2026-04-25T10:48:08.405Z</time></trkpt><trkpt lat="31.2879333" lon="-7.1644933"><ele>1823.0</ele><time>2026-04-25T10:48:09.405Z</time></trkpt><trkpt lat="31.2879683" lon="-7.1647233"><ele>1823.0</ele><time>2026-04-25T10:48:10.405Z</time></trkpt><trkpt lat="31.2879917" lon="-7.16494"><ele>1823.0</ele><time>2026-04-25T10:48:11.406Z</time></trkpt><trkpt lat="31.2880117" lon="-7.165145"><ele>1824.0</ele><time>2026-04-25T10:48:12.405Z</time></trkpt><trkpt lat="31.28803" lon="-7.165345"><ele>1825.0</ele><time>2026-04-25T10:48:13.405Z</time></trkpt><trkpt lat="31.288045" lon="-7.16554"><ele>1826.0</ele><time>2026-04-25T10:48:14.405Z</time></trkpt><trkpt lat="31.288055" lon="-7.1657333"><ele>1826.0</ele><time>2026-04-25T10:48:15.405Z</time></trkpt><trkpt lat="31.28806" lon="-7.1659267"><ele>1826.0</ele><time>2026-04-25T10:48:16.405Z</time></trkpt><trkpt lat="31.288065" lon="-7.1661183"><ele>1826.0</ele><time>2026-04-25T10:48:17.406Z</time></trkpt><trkpt lat="31.2880667" lon="-7.1663083"><ele>1826.0</ele><time>2026-04-25T10:48:18.405Z</time></trkpt><trkpt lat="31.28807" lon="-7.1665017"><ele>1826.0</ele><time>2026-04-25T10:48:19.405Z</time></trkpt><trkpt lat="31.2880733" lon="-7.16669"><ele>1826.0</ele><time>2026-04-25T10:48:20.405Z</time></trkpt><trkpt lat="31.2880783" lon="-7.16688"><ele>1825.3333333333333</ele><time>2026-04-25T10:48:21.405Z</time></trkpt><trkpt lat="31.288085" lon="-7.167065"><ele>1824.6666666666665</ele><time>2026-04-25T10:48:22.405Z</time></trkpt><trkpt lat="31.2881017" lon="-7.1672483"><ele>1824.0</ele><time>2026-04-25T10:48:23.405Z</time></trkpt><trkpt lat="31.2881333" lon="-7.1674267"><ele>1824.0</ele><time>2026-04-25T10:48:24.405Z</time></trkpt><trkpt lat="31.28818" lon="-7.1676067"><ele>1824.0</ele><time>2026-04-25T10:48:25.405Z</time></trkpt><trkpt lat="31.2882267" lon="-7.1677717"><ele>1824.0</ele><time>2026-04-25T10:48:26.405Z</time></trkpt><trkpt lat="31.2882733" lon="-7.1679317"><ele>1824.0</ele><time>2026-04-25T10:48:27.405Z</time></trkpt><trkpt lat="31.2883217" lon="-7.1680917"><ele>1824.0</ele><time>2026-04-25T10:48:28.405Z</time></trkpt><trkpt lat="31.2883517" lon="-7.1682617"><ele>1824.0</ele><time>2026-04-25T10:48:29.405Z</time></trkpt><trkpt lat="31.2883583" lon="-7.1684267"><ele>1824.0</ele><time>2026-04-25T10:48:30.405Z</time></trkpt><trkpt lat="31.2883483" lon="-7.168595"><ele>1824.25</ele><time>2026-04-25T10:48:31.405Z</time></trkpt><trkpt lat="31.2883217" lon="-7.1687683"><ele>1824.5</ele><time>2026-04-25T10:48:32.405Z</time></trkpt><trkpt lat="31.288275" lon="-7.16893"><ele>1824.75</ele><time>2026-04-25T10:48:33.405Z</time></trkpt><trkpt lat="31.2882267" lon="-7.1690967"><ele>1825.0</ele><time>2026-04-25T10:48:34.405Z</time></trkpt><trkpt lat="31.2882017" lon="-7.1692783"><ele>1827.3333333333335</ele><time>2026-04-25T10:48:35.405Z</time></trkpt><trkpt lat="31.28821" lon="-7.1694683"><ele>1829.6666666666665</ele><time>2026-04-25T10:48:36.405Z</time></trkpt><trkpt lat="31.28824" lon="-7.1696467"><ele>1832.0</ele><time>2026-04-25T10:48:37.405Z</time></trkpt><trkpt lat="31.288295" lon="-7.1698233"><ele>1834.0</ele><time>2026-04-25T10:48:38.405Z</time></trkpt><trkpt lat="31.2883667" lon="-7.1699967"><ele>1836.0</ele><time>2026-04-25T10:48:39.405Z</time></trkpt><trkpt lat="31.28843" lon="-7.1701817"><ele>1838.0</ele><time>2026-04-25T10:48:40.405Z</time></trkpt><trkpt lat="31.2884767" lon="-7.1703717"><ele>1838.0</ele><time>2026-04-25T10:48:41.405Z</time></trkpt><trkpt lat="31.2884967" lon="-7.1705683"><ele>1838.0</ele><time>2026-04-25T10:48:42.405Z</time></trkpt><trkpt lat="31.2884983" lon="-7.17077"><ele>1838.0</ele><time>2026-04-25T10:48:43.405Z</time></trkpt><trkpt lat="31.2884967" lon="-7.170975"><ele>1839.6666666666665</ele><time>2026-04-25T10:48:44.405Z</time></trkpt><trkpt lat="31.288495" lon="-7.1711783"><ele>1841.3333333333335</ele><time>2026-04-25T10:48:45.405Z</time></trkpt><trkpt lat="31.2885017" lon="-7.1713717"><ele>1843.0</ele><time>2026-04-25T10:48:46.405Z</time></trkpt><trkpt lat="31.2885183" lon="-7.1715517"><ele>1844.0</ele><time>2026-04-25T10:48:47.405Z</time></trkpt><trkpt lat="31.2885417" lon="-7.1717167"><ele>1845.0</ele><time>2026-04-25T10:48:48.405Z</time></trkpt><trkpt lat="31.2885583" lon="-7.1718733"><ele>1846.0</ele><time>2026-04-25T10:48:49.406Z</time></trkpt><trkpt lat="31.28857" lon="-7.172025"><ele>1847.0</ele><time>2026-04-25T10:48:50.405Z</time></trkpt><trkpt lat="31.288585" lon="-7.17217"><ele>1847.0</ele><time>2026-04-25T10:48:51.405Z</time></trkpt><trkpt lat="31.2886117" lon="-7.1723217"><ele>1847.0</ele><time>2026-04-25T10:48:52.405Z</time></trkpt><trkpt lat="31.28865" lon="-7.1724767"><ele>1847.0</ele><time>2026-04-25T10:48:53.405Z</time></trkpt><trkpt lat="31.288685" lon="-7.17263"><ele>1847.0</ele><time>2026-04-25T10:48:54.405Z</time></trkpt><trkpt lat="31.28872" lon="-7.1727817"><ele>1849.75</ele><time>2026-04-25T10:48:55.405Z</time></trkpt><trkpt lat="31.2887483" lon="-7.172945"><ele>1852.5</ele><time>2026-04-25T10:48:56.405Z</time></trkpt><trkpt lat="31.288765" lon="-7.1731083"><ele>1855.25</ele><time>2026-04-25T10:48:57.405Z</time></trkpt><trkpt lat="31.2887583" lon="-7.1732817"><ele>1858.0</ele><time>2026-04-25T10:48:58.405Z</time></trkpt><trkpt lat="31.2887483" lon="-7.1734633"><ele>1859.0</ele><time>2026-04-25T10:48:59.405Z</time></trkpt><trkpt lat="31.2887417" lon="-7.1736333"><ele>1860.0</ele><time>2026-04-25T10:49:00.405Z</time></trkpt><trkpt lat="31.2887567" lon="-7.1737967"><ele>1861.0</ele><time>2026-04-25T10:49:01.405Z</time></trkpt><trkpt lat="31.288795" lon="-7.1739683"><ele>1862.0</ele><time>2026-04-25T10:49:02.405Z</time></trkpt><trkpt lat="31.288845" lon="-7.1741333"><ele>1865.25</ele><time>2026-04-25T10:49:03.405Z</time></trkpt><trkpt lat="31.2889" lon="-7.1742883"><ele>1868.5</ele><time>2026-04-25T10:49:04.405Z</time></trkpt><trkpt lat="31.2889533" lon="-7.174435"><ele>1871.75</ele><time>2026-04-25T10:49:05.405Z</time></trkpt><trkpt lat="31.2889983" lon="-7.1745733"><ele>1875.0</ele><time>2026-04-25T10:49:06.405Z</time></trkpt><trkpt lat="31.2890367" lon="-7.174715"><ele>1868.75</ele><time>2026-04-25T10:49:07.405Z</time></trkpt><trkpt lat="31.28906" lon="-7.1748583"><ele>1862.5</ele><time>2026-04-25T10:49:08.405Z</time></trkpt><trkpt lat="31.2890633" lon="-7.1750083"><ele>1856.25</ele><time>2026-04-25T10:49:09.405Z</time></trkpt><trkpt lat="31.2890467" lon="-7.1751617"><ele>1850.0</ele><time>2026-04-25T10:49:10.405Z</time></trkpt><trkpt lat="31.2890183" lon="-7.175325"><ele>1850.0</ele><time>2026-04-25T10:49:11.405Z</time></trkpt><trkpt lat="31.2889983" lon="-7.1754933"><ele>1850.0</ele><time>2026-04-25T10:49:12.405Z</time></trkpt><trkpt lat="31.2889767" lon="-7.1756667"><ele>1850.0</ele><time>2026-04-25T10:49:13.405Z</time></trkpt><trkpt lat="31.2889733" lon="-7.1758317"><ele>1850.0</ele><time>2026-04-25T10:49:14.405Z</time></trkpt><trkpt lat="31.2889817" lon="-7.1759983"><ele>1851.0</ele><time>2026-04-25T10:49:15.406Z</time></trkpt><trkpt lat="31.2889867" lon="-7.1761667"><ele>1852.0</ele><time>2026-04-25T10:49:16.405Z</time></trkpt><trkpt lat="31.2889733" lon="-7.17633"><ele>1853.0</ele><time>2026-04-25T10:49:17.405Z</time></trkpt><trkpt lat="31.28894" lon="-7.1764817"><ele>1854.0</ele><time>2026-04-25T10:49:18.405Z</time></trkpt><trkpt lat="31.2888667" lon="-7.1766317"><ele>1859.0</ele><time>2026-04-25T10:49:19.405Z</time></trkpt><trkpt lat="31.2887683" lon="-7.17676"><ele>1864.0</ele><time>2026-04-25T10:49:20.405Z</time></trkpt><trkpt lat="31.2886583" lon="-7.1768933"><ele>1869.0</ele><time>2026-04-25T10:49:21.405Z</time></trkpt><trkpt lat="31.28854" lon="-7.1770383"><ele>1869.0</ele><time>2026-04-25T10:49:22.405Z</time></trkpt><trkpt lat="31.2884433" lon="-7.1772167"><ele>1869.0</ele><time>2026-04-25T10:49:23.405Z</time></trkpt><trkpt lat="31.2883717" lon="-7.17741"><ele>1869.0</ele><time>2026-04-25T10:49:24.405Z</time></trkpt><trkpt lat="31.2883283" lon="-7.1776033"><ele>1868.5</ele><time>2026-04-25T10:49:25.405Z</time></trkpt><trkpt lat="31.2883033" lon="-7.1777817"><ele>1868.0</ele><time>2026-04-25T10:49:26.406Z</time></trkpt><trkpt lat="31.2882767" lon="-7.177945"><ele>1867.5</ele><time>2026-04-25T10:49:27.405Z</time></trkpt><trkpt lat="31.28824" lon="-7.1780933"><ele>1867.0</ele><time>2026-04-25T10:49:28.405Z</time></trkpt><trkpt lat="31.2882017" lon="-7.1782283"><ele>1867.0</ele><time>2026-04-25T10:49:29.405Z</time></trkpt><trkpt lat="31.2881633" lon="-7.178345"><ele>1866.9999999999998</ele><time>2026-04-25T10:49:30.405Z</time></trkpt><trkpt lat="31.2881283" lon="-7.1784617"><ele>1866.9999999999998</ele><time>2026-04-25T10:49:31.405Z</time></trkpt><trkpt lat="31.288075" lon="-7.17857"><ele>1867.0</ele><time>2026-04-25T10:49:32.405Z</time></trkpt><trkpt lat="31.2880217" lon="-7.1786817"><ele>1867.0</ele><time>2026-04-25T10:49:33.405Z</time></trkpt><trkpt lat="31.287965" lon="-7.178785"><ele>1868.1999999999998</ele><time>2026-04-25T10:49:34.405Z</time></trkpt><trkpt lat="31.2878967" lon="-7.17889"><ele>1869.3999999999999</ele><time>2026-04-25T10:49:35.405Z</time></trkpt><trkpt lat="31.28783" lon="-7.1789883"><ele>1870.6000000000001</ele><time>2026-04-25T10:49:36.405Z</time></trkpt><trkpt lat="31.2877783" lon="-7.179085"><ele>1871.8000000000002</ele><time>2026-04-25T10:49:37.405Z</time></trkpt><trkpt lat="31.2877133" lon="-7.17916"><ele>1873.0</ele><time>2026-04-25T10:49:38.405Z</time></trkpt><trkpt lat="31.2876583" lon="-7.179235"><ele>1873.0000000000002</ele><time>2026-04-25T10:49:39.405Z</time></trkpt><trkpt lat="31.287605" lon="-7.1793033"><ele>1873.0</ele><time>2026-04-25T10:49:40.405Z</time></trkpt><trkpt lat="31.2875533" lon="-7.1793767"><ele>1873.0</ele><time>2026-04-25T10:49:41.405Z</time></trkpt><trkpt lat="31.2875017" lon="-7.17944"><ele>1873.0</ele><time>2026-04-25T10:49:42.405Z</time></trkpt><trkpt lat="31.2874583" lon="-7.1795"><ele>1873.0000000000002</ele><time>2026-04-25T10:49:43.405Z</time></trkpt><trkpt lat="31.2873933" lon="-7.1796117"><ele>1873.0</ele><time>2026-04-25T10:49:45.405Z</time></trkpt><trkpt lat="31.287345" lon="-7.179715"><ele>1873.0000000000002</ele><time>2026-04-25T10:49:47.405Z</time></trkpt><trkpt lat="31.287315" lon="-7.1797983"><ele>1873.0</ele><time>2026-04-25T10:49:49.405Z</time></trkpt><trkpt lat="31.28728" lon="-7.1799117"><ele>1873.0</ele><time>2026-04-25T10:49:51.405Z</time></trkpt><trkpt lat="31.28726" lon="-7.1800233"><ele>1873.0</ele><time>2026-04-25T10:49:53.405Z</time></trkpt><trkpt lat="31.2872333" lon="-7.1801083"><ele>1873.0000000000002</ele><time>2026-04-25T10:49:55.405Z</time></trkpt><trkpt lat="31.2871667" lon="-7.1801817"><ele>1873.0</ele><time>2026-04-25T10:50:20.405Z</time></trkpt><trkpt lat="31.2871683" lon="-7.1800833"><ele>1873.0</ele><time>2026-04-25T10:50:25.405Z</time></trkpt><trkpt lat="31.2872017" lon="-7.1799717"><ele>1873.0000000000002</ele><time>2026-04-25T10:50:27.405Z</time></trkpt><trkpt lat="31.287245" lon="-7.17985"><ele>1873.0000000000002</ele><time>2026-04-25T10:50:29.405Z</time></trkpt><trkpt lat="31.28727" lon="-7.1797817"><ele>1873.0</ele><time>2026-04-25T10:50:30.405Z</time></trkpt><trkpt lat="31.28731" lon="-7.1797017"><ele>1873.0</ele><time>2026-04-25T10:50:31.405Z</time></trkpt><trkpt lat="31.2873633" lon="-7.1796067"><ele>1873.0</ele><time>2026-04-25T10:50:32.405Z</time></trkpt><trkpt lat="31.287425" lon="-7.1794967"><ele>1873.0000000000002</ele><time>2026-04-25T10:50:33.405Z</time></trkpt><trkpt lat="31.2874917" lon="-7.1793883"><ele>1873.0000000000002</ele><time>2026-04-25T10:50:34.405Z</time></trkpt><trkpt lat="31.2875633" lon="-7.179295"><ele>1873.0</ele><time>2026-04-25T10:50:35.405Z</time></trkpt><trkpt lat="31.287635" lon="-7.1792"><ele>1873.0</ele><time>2026-04-25T10:50:36.405Z</time></trkpt><trkpt lat="31.2877017" lon="-7.1791067"><ele>1875.6000000000001</ele><time>2026-04-25T10:50:37.405Z</time></trkpt><trkpt lat="31.2877683" lon="-7.1790167"><ele>1878.2000000000003</ele><time>2026-04-25T10:50:38.405Z</time></trkpt><trkpt lat="31.2878283" lon="-7.1789317"><ele>1880.8</ele><time>2026-04-25T10:50:39.405Z</time></trkpt><trkpt lat="31.2878833" lon="-7.1788483"><ele>1883.4</ele><time>2026-04-25T10:50:40.405Z</time></trkpt><trkpt lat="31.28793" lon="-7.17877"><ele>1886.0</ele><time>2026-04-25T10:50:41.405Z</time></trkpt><trkpt lat="31.2879717" lon="-7.1786867"><ele>1885.9999999999998</ele><time>2026-04-25T10:50:42.405Z</time></trkpt><trkpt lat="31.288015" lon="-7.1786083"><ele>1886.0</ele><time>2026-04-25T10:50:43.406Z</time></trkpt><trkpt lat="31.28805" lon="-7.17853"><ele>1886.0</ele><time>2026-04-25T10:50:44.405Z</time></trkpt><trkpt lat="31.288085" lon="-7.1784533"><ele>1886.0</ele><time>2026-04-25T10:50:45.405Z</time></trkpt><trkpt lat="31.2881183" lon="-7.1783783"><ele>1885.9999999999998</ele><time>2026-04-25T10:50:46.405Z</time></trkpt><trkpt lat="31.288145" lon="-7.178305"><ele>1886.0</ele><time>2026-04-25T10:50:47.406Z</time></trkpt><trkpt lat="31.288195" lon="-7.1782083"><ele>1882.8333333333333</ele><time>2026-04-25T10:50:49.405Z</time></trkpt><trkpt lat="31.2882567" lon="-7.17824"><ele>1879.6666666666665</ele><time>2026-04-25T10:50:52.405Z</time></trkpt><trkpt lat="31.2882617" lon="-7.17832"><ele>1876.5</ele><time>2026-04-25T10:50:54.405Z</time></trkpt><trkpt lat="31.28825" lon="-7.1784167"><ele>1873.3333333333335</ele><time>2026-04-25T10:50:56.405Z</time></trkpt><trkpt lat="31.28822" lon="-7.178525"><ele>1870.1666666666667</ele><time>2026-04-25T10:50:58.405Z</time></trkpt><trkpt lat="31.2881733" lon="-7.1786383"><ele>1867.0</ele><time>2026-04-25T10:51:00.405Z</time></trkpt><trkpt lat="31.288125" lon="-7.1787567"><ele>1868.0000000000002</ele><time>2026-04-25T10:51:02.405Z</time></trkpt><trkpt lat="31.2880883" lon="-7.1788267"><ele>1869.0</ele><time>2026-04-25T10:51:03.405Z</time></trkpt><trkpt lat="31.2880433" lon="-7.1789067"><ele>1870.0</ele><time>2026-04-25T10:51:04.405Z</time></trkpt><trkpt lat="31.287995" lon="-7.1790017"><ele>1871.0</ele><time>2026-04-25T10:51:05.405Z</time></trkpt><trkpt lat="31.2879467" lon="-7.179095"><ele>1872.0000000000002</ele><time>2026-04-25T10:51:06.405Z</time></trkpt><trkpt lat="31.2879067" lon="-7.1791767"><ele>1873.0</ele><time>2026-04-25T10:51:07.405Z</time></trkpt><trkpt lat="31.2878667" lon="-7.1792417"><ele>1873.0</ele><time>2026-04-25T10:51:08.405Z</time></trkpt><trkpt lat="31.2878317" lon="-7.179305"><ele>1873.0000000000002</ele><time>2026-04-25T10:51:09.405Z</time></trkpt><trkpt lat="31.2877783" lon="-7.17942"><ele>1873.0000000000002</ele><time>2026-04-25T10:51:11.405Z</time></trkpt><trkpt lat="31.2877983" lon="-7.179545"><ele>1873.0</ele><time>2026-04-25T10:51:13.405Z</time></trkpt><trkpt lat="31.28788" lon="-7.1796467"><ele>1873.0</ele><time>2026-04-25T10:51:15.405Z</time></trkpt><trkpt lat="31.28794" lon="-7.17968"><ele>1873.0</ele><time>2026-04-25T10:51:16.405Z</time></trkpt><trkpt lat="31.2880733" lon="-7.1796867"><ele>1873.0000000000002</ele><time>2026-04-25T10:51:18.405Z</time></trkpt><trkpt lat="31.2881467" lon="-7.1796833"><ele>1873.0000000000002</ele><time>2026-04-25T10:51:19.405Z</time></trkpt><trkpt lat="31.2882267" lon="-7.17969"><ele>1873.0</ele><time>2026-04-25T10:51:20.405Z</time></trkpt><trkpt lat="31.2883067" lon="-7.1797133"><ele>1873.0</ele><time>2026-04-25T10:51:21.405Z</time></trkpt><trkpt lat="31.288385" lon="-7.1797517"><ele>1873.2</ele><time>2026-04-25T10:51:22.405Z</time></trkpt><trkpt lat="31.2884683" lon="-7.179805"><ele>1873.4</ele><time>2026-04-25T10:51:23.405Z</time></trkpt><trkpt lat="31.2885483" lon="-7.1798717"><ele>1873.6000000000001</ele><time>2026-04-25T10:51:24.405Z</time></trkpt><trkpt lat="31.2886267" lon="-7.179935"><ele>1873.8000000000002</ele><time>2026-04-25T10:51:25.405Z</time></trkpt><trkpt lat="31.2886933" lon="-7.1800067"><ele>1874.0</ele><time>2026-04-25T10:51:26.405Z</time></trkpt><trkpt lat="31.2887533" lon="-7.1800783"><ele>1873.9999999999998</ele><time>2026-04-25T10:51:27.405Z</time></trkpt><trkpt lat="31.28881" lon="-7.1801483"><ele>1874.0</ele><time>2026-04-25T10:51:28.405Z</time></trkpt><trkpt lat="31.288865" lon="-7.1802083"><ele>1874.0</ele><time>2026-04-25T10:51:29.405Z</time></trkpt><trkpt lat="31.28891" lon="-7.1802633"><ele>1874.0</ele><time>2026-04-25T10:51:30.405Z</time></trkpt><trkpt lat="31.2889733" lon="-7.18038"><ele>1873.9999999999998</ele><time>2026-04-25T10:51:32.405Z</time></trkpt><trkpt lat="31.289005" lon="-7.180445"><ele>1874.0</ele><time>2026-04-25T10:51:33.405Z</time></trkpt><trkpt lat="31.28906" lon="-7.1805533"><ele>1874.6666666666665</ele><time>2026-04-25T10:51:35.405Z</time></trkpt><trkpt lat="31.2890783" lon="-7.1806433"><ele>1875.3333333333333</ele><time>2026-04-25T10:51:37.405Z</time></trkpt><trkpt lat="31.2890433" lon="-7.180745"><ele>1876.0</ele><time>2026-04-25T10:51:39.405Z</time></trkpt><trkpt lat="31.2890133" lon="-7.18081"><ele>1876.6666666666665</ele><time>2026-04-25T10:51:40.405Z</time></trkpt><trkpt lat="31.2889783" lon="-7.18089"><ele>1877.3333333333333</ele><time>2026-04-25T10:51:41.405Z</time></trkpt><trkpt lat="31.2889517" lon="-7.1809717"><ele>1878.0</ele><time>2026-04-25T10:51:42.405Z</time></trkpt><trkpt lat="31.288925" lon="-7.181045"><ele>1878.3333333333333</ele><time>2026-04-25T10:51:43.405Z</time></trkpt><trkpt lat="31.2889083" lon="-7.18112"><ele>1878.6666666666665</ele><time>2026-04-25T10:51:44.405Z</time></trkpt><trkpt lat="31.2888983" lon="-7.181195"><ele>1879.0</ele><time>2026-04-25T10:51:45.405Z</time></trkpt><trkpt lat="31.2888933" lon="-7.18128"><ele>1879.3333333333333</ele><time>2026-04-25T10:51:46.405Z</time></trkpt><trkpt lat="31.288895" lon="-7.1813733"><ele>1879.6666666666665</ele><time>2026-04-25T10:51:47.406Z</time></trkpt><trkpt lat="31.2889" lon="-7.1814583"><ele>1880.0</ele><time>2026-04-25T10:51:48.405Z</time></trkpt><trkpt lat="31.288935" lon="-7.181585"><ele>1880.0</ele><time>2026-04-25T10:51:50.405Z</time></trkpt><trkpt lat="31.28899" lon="-7.181685"><ele>1880.0</ele><time>2026-04-25T10:51:52.405Z</time></trkpt><trkpt lat="31.289055" lon="-7.1817583"><ele>1880.0</ele><time>2026-04-25T10:51:54.405Z</time></trkpt><trkpt lat="31.2891217" lon="-7.1818283"><ele>1880.0</ele><time>2026-04-25T10:51:56.405Z</time></trkpt><trkpt lat="31.289195" lon="-7.1819"><ele>1880.0</ele><time>2026-04-25T10:51:58.405Z</time></trkpt><trkpt lat="31.289275" lon="-7.1819367"><ele>1880.0</ele><time>2026-04-25T10:52:00.405Z</time></trkpt><trkpt lat="31.2893667" lon="-7.181955"><ele>1880.0</ele><time>2026-04-25T10:52:02.405Z</time></trkpt><trkpt lat="31.2894833" lon="-7.1819733"><ele>1880.0</ele><time>2026-04-25T10:52:04.405Z</time></trkpt><trkpt lat="31.2896067" lon="-7.18198"><ele>1880.0</ele><time>2026-04-25T10:52:06.405Z</time></trkpt><trkpt lat="31.2897183" lon="-7.1820217"><ele>1879.8</ele><time>2026-04-25T10:52:08.405Z</time></trkpt><trkpt lat="31.289815" lon="-7.1820967"><ele>1879.6</ele><time>2026-04-25T10:52:10.405Z</time></trkpt><trkpt lat="31.2898967" lon="-7.1821633"><ele>1879.4</ele><time>2026-04-25T10:52:12.405Z</time></trkpt><trkpt lat="31.28997" lon="-7.1822367"><ele>1879.2</ele><time>2026-04-25T10:52:14.405Z</time></trkpt><trkpt lat="31.29004" lon="-7.1823117"><ele>1879.0</ele><time>2026-04-25T10:52:16.405Z</time></trkpt><trkpt lat="31.2900833" lon="-7.18239"><ele>1879.0000000000002</ele><time>2026-04-25T10:52:18.405Z</time></trkpt><trkpt lat="31.2901283" lon="-7.1824533"><ele>1879.0</ele><time>2026-04-25T10:52:20.405Z</time></trkpt><trkpt lat="31.2901767" lon="-7.1825383"><ele>1879.0</ele><time>2026-04-25T10:52:23.405Z</time></trkpt><trkpt lat="31.290235" lon="-7.1826267"><ele>1879.0</ele><time>2026-04-25T10:52:25.405Z</time></trkpt><trkpt lat="31.2902883" lon="-7.1827033"><ele>1879.0000000000002</ele><time>2026-04-25T10:52:27.405Z</time></trkpt><trkpt lat="31.2903467" lon="-7.1827767"><ele>1879.0</ele><time>2026-04-25T10:52:29.405Z</time></trkpt><trkpt lat="31.2904083" lon="-7.18286"><ele>1879.0</ele><time>2026-04-25T10:52:31.405Z</time></trkpt><trkpt lat="31.2904667" lon="-7.1829517"><ele>1879.0</ele><time>2026-04-25T10:52:33.405Z</time></trkpt><trkpt lat="31.2905267" lon="-7.183055"><ele>1879.0</ele><time>2026-04-25T10:52:35.405Z</time></trkpt><trkpt lat="31.290595" lon="-7.1831733"><ele>1879.0</ele><time>2026-04-25T10:52:37.404Z</time></trkpt><trkpt lat="31.2906317" lon="-7.1832367"><ele>1879.0</ele><time>2026-04-25T10:52:38.404Z</time></trkpt><trkpt lat="31.2906967" lon="-7.18334"><ele>1879.4</ele><time>2026-04-25T10:52:40.404Z</time></trkpt><trkpt lat="31.2907633" lon="-7.18343"><ele>1879.8000000000002</ele><time>2026-04-25T10:52:42.404Z</time></trkpt><trkpt lat="31.2908433" lon="-7.183545"><ele>1880.1999999999998</ele><time>2026-04-25T10:52:44.404Z</time></trkpt><trkpt lat="31.29089" lon="-7.1836217"><ele>1880.6</ele><time>2026-04-25T10:52:45.404Z</time></trkpt><trkpt lat="31.290945" lon="-7.183705"><ele>1881.0</ele><time>2026-04-25T10:52:46.404Z</time></trkpt><trkpt lat="31.2909967" lon="-7.1837883"><ele>1881.0</ele><time>2026-04-25T10:52:47.404Z</time></trkpt><trkpt lat="31.2910483" lon="-7.1838583"><ele>1881.0</ele><time>2026-04-25T10:52:48.404Z</time></trkpt><trkpt lat="31.2911033" lon="-7.1839217"><ele>1881.0</ele><time>2026-04-25T10:52:49.404Z</time></trkpt><trkpt lat="31.2911517" lon="-7.1839717"><ele>1881.0</ele><time>2026-04-25T10:52:50.404Z</time></trkpt><trkpt lat="31.2912367" lon="-7.184065"><ele>1881.0</ele><time>2026-04-25T10:52:52.404Z</time></trkpt><trkpt lat="31.291315" lon="-7.18413"><ele>1881.0</ele><time>2026-04-25T10:52:54.404Z</time></trkpt><trkpt lat="31.2914267" lon="-7.1841583"><ele>1881.6666666666667</ele><time>2026-04-25T10:52:56.404Z</time></trkpt><trkpt lat="31.291495" lon="-7.18418"><ele>1882.3333333333335</ele><time>2026-04-25T10:52:57.404Z</time></trkpt><trkpt lat="31.29158" lon="-7.1842433"><ele>1883.0</ele><time>2026-04-25T10:52:59.404Z</time></trkpt><trkpt lat="31.2916333" lon="-7.1843"><ele>1883.6666666666667</ele><time>2026-04-25T10:53:01.404Z</time></trkpt><trkpt lat="31.2916917" lon="-7.1843517"><ele>1884.3333333333335</ele><time>2026-04-25T10:53:03.404Z</time></trkpt><trkpt lat="31.2917483" lon="-7.1844033"><ele>1885.0</ele><time>2026-04-25T10:53:06.404Z</time></trkpt><trkpt lat="31.29169" lon="-7.18447"><ele>1885.0</ele><time>2026-04-25T10:53:19.404Z</time></trkpt><trkpt lat="31.2916433" lon="-7.1844017"><ele>1885.0</ele><time>2026-04-25T10:53:22.405Z</time></trkpt><trkpt lat="31.29163" lon="-7.184295"><ele>1885.0</ele><time>2026-04-25T10:53:39.404Z</time></trkpt><trkpt lat="31.2915583" lon="-7.18421"><ele>1885.0</ele><time>2026-04-25T10:53:42.404Z</time></trkpt><trkpt lat="31.2914633" lon="-7.1841617"><ele>1885.0</ele><time>2026-04-25T10:53:44.404Z</time></trkpt><trkpt lat="31.2913433" lon="-7.1841167"><ele>1884.5000000000002</ele><time>2026-04-25T10:53:46.404Z</time></trkpt><trkpt lat="31.291285" lon="-7.1840867"><ele>1884.0</ele><time>2026-04-25T10:53:47.404Z</time></trkpt><trkpt lat="31.291215" lon="-7.1840217"><ele>1883.5</ele><time>2026-04-25T10:53:49.404Z</time></trkpt><trkpt lat="31.2911567" lon="-7.1839467"><ele>1883.0</ele><time>2026-04-25T10:53:52.404Z</time></trkpt><trkpt lat="31.2910817" lon="-7.1838867"><ele>1882.5000000000002</ele><time>2026-04-25T10:53:55.404Z</time></trkpt><trkpt lat="31.2910317" lon="-7.1838317"><ele>1882.0</ele><time>2026-04-25T10:53:58.404Z</time></trkpt><trkpt lat="31.2909883" lon="-7.1837567"><ele>1881.8333333333335</ele><time>2026-04-25T10:54:02.404Z</time></trkpt><trkpt lat="31.2909483" lon="-7.1836433"><ele>1881.6666666666667</ele><time>2026-04-25T10:55:01.404Z</time></trkpt><trkpt lat="31.29102" lon="-7.18366"><ele>1881.5</ele><time>2026-04-25T10:55:05.404Z</time></trkpt><trkpt lat="31.291055" lon="-7.1837367"><ele>1881.3333333333335</ele><time>2026-04-25T10:55:08.404Z</time></trkpt><trkpt lat="31.2910533" lon="-7.1838233"><ele>1881.1666666666667</ele><time>2026-04-25T10:55:11.404Z</time></trkpt><trkpt lat="31.2910817" lon="-7.1838917"><ele>1881.0</ele><time>2026-04-25T10:55:13.404Z</time></trkpt><trkpt lat="31.2911483" lon="-7.1839733"><ele>1881.142857142857</ele><time>2026-04-25T10:55:15.404Z</time></trkpt><trkpt lat="31.291205" lon="-7.1840317"><ele>1881.2857142857142</ele><time>2026-04-25T10:55:16.404Z</time></trkpt><trkpt lat="31.2912633" lon="-7.184085"><ele>1881.4285714285713</ele><time>2026-04-25T10:55:17.404Z</time></trkpt><trkpt lat="31.2913133" lon="-7.18413"><ele>1881.5714285714284</ele><time>2026-04-25T10:55:18.404Z</time></trkpt><trkpt lat="31.291375" lon="-7.1841483"><ele>1881.7142857142858</ele><time>2026-04-25T10:55:19.404Z</time></trkpt><trkpt lat="31.2914417" lon="-7.1841633"><ele>1881.8571428571427</ele><time>2026-04-25T10:55:20.404Z</time></trkpt><trkpt lat="31.2915017" lon="-7.18419"><ele>1881.9999999999998</ele><time>2026-04-25T10:55:21.404Z</time></trkpt><trkpt lat="31.2915783" lon="-7.1842467"><ele>1882.5000000000002</ele><time>2026-04-25T10:55:23.404Z</time></trkpt><trkpt lat="31.2916567" lon="-7.1843067"><ele>1883.0</ele><time>2026-04-25T10:55:26.404Z</time></trkpt><trkpt lat="31.2916683" lon="-7.1843833"><ele>1883.5</ele><time>2026-04-25T10:55:29.404Z</time></trkpt><trkpt lat="31.2916133" lon="-7.1843417"><ele>1884.0</ele><time>2026-04-25T10:55:34.404Z</time></trkpt><trkpt lat="31.2916067" lon="-7.1842667"><ele>1884.5000000000002</ele><time>2026-04-25T11:11:11.402Z</time></trkpt><trkpt lat="31.291545" lon="-7.1842"><ele>1885.0</ele><time>2026-04-25T11:11:14.402Z</time></trkpt><trkpt lat="31.2914733" lon="-7.1841717"><ele>1884.4</ele><time>2026-04-25T11:11:16.402Z</time></trkpt><trkpt lat="31.291385" lon="-7.1841383"><ele>1883.8</ele><time>2026-04-25T11:11:18.402Z</time></trkpt><trkpt lat="31.29128" lon="-7.184105"><ele>1883.1999999999998</ele><time>2026-04-25T11:11:20.402Z</time></trkpt><trkpt lat="31.291195" lon="-7.184015"><ele>1882.6</ele><time>2026-04-25T11:11:22.402Z</time></trkpt><trkpt lat="31.291125" lon="-7.1839283"><ele>1882.0</ele><time>2026-04-25T11:11:24.402Z</time></trkpt><trkpt lat="31.2910567" lon="-7.183865"><ele>1881.8</ele><time>2026-04-25T11:11:26.402Z</time></trkpt><trkpt lat="31.290985" lon="-7.1837667"><ele>1881.6</ele><time>2026-04-25T11:11:28.403Z</time></trkpt><trkpt lat="31.290945" lon="-7.183705"><ele>1881.3999999999999</ele><time>2026-04-25T11:11:29.402Z</time></trkpt><trkpt lat="31.2909" lon="-7.1836383"><ele>1881.1999999999998</ele><time>2026-04-25T11:11:30.402Z</time></trkpt><trkpt lat="31.2908267" lon="-7.1835217"><ele>1881.0</ele><time>2026-04-25T11:11:32.402Z</time></trkpt><trkpt lat="31.290755" lon="-7.1834117"><ele>1881.0</ele><time>2026-04-25T11:11:34.402Z</time></trkpt><trkpt lat="31.2906767" lon="-7.1832933"><ele>1881.0</ele><time>2026-04-25T11:11:36.402Z</time></trkpt><trkpt lat="31.290635" lon="-7.183235"><ele>1881.0</ele><time>2026-04-25T11:11:37.402Z</time></trkpt><trkpt lat="31.29056" lon="-7.18313"><ele>1881.0</ele><time>2026-04-25T11:11:39.402Z</time></trkpt><trkpt lat="31.2905017" lon="-7.1830383"><ele>1881.0</ele><time>2026-04-25T11:11:41.402Z</time></trkpt><trkpt lat="31.29045" lon="-7.182945"><ele>1880.6</ele><time>2026-04-25T11:11:43.402Z</time></trkpt><trkpt lat="31.29039" lon="-7.1828383"><ele>1880.1999999999998</ele><time>2026-04-25T11:11:45.402Z</time></trkpt><trkpt lat="31.290315" lon="-7.1827367"><ele>1879.8000000000002</ele><time>2026-04-25T11:11:47.402Z</time></trkpt><trkpt lat="31.2902383" lon="-7.1826433"><ele>1879.4</ele><time>2026-04-25T11:11:49.402Z</time></trkpt><trkpt lat="31.2901817" lon="-7.182535"><ele>1879.0</ele><time>2026-04-25T11:11:51.402Z</time></trkpt><trkpt lat="31.290125" lon="-7.1824233"><ele>1879.8000000000002</ele><time>2026-04-25T11:11:53.402Z</time></trkpt><trkpt lat="31.290055" lon="-7.1823183"><ele>1880.6000000000001</ele><time>2026-04-25T11:11:55.402Z</time></trkpt><trkpt lat="31.2899867" lon="-7.18224"><ele>1881.4</ele><time>2026-04-25T11:11:57.402Z</time></trkpt><trkpt lat="31.2899167" lon="-7.1821817"><ele>1882.2</ele><time>2026-04-25T11:11:59.402Z</time></trkpt><trkpt lat="31.2898483" lon="-7.1821283"><ele>1883.0</ele><time>2026-04-25T11:12:01.402Z</time></trkpt><trkpt lat="31.28978" lon="-7.18207"><ele>1882.4999999999998</ele><time>2026-04-25T11:12:03.403Z</time></trkpt><trkpt lat="31.2897133" lon="-7.1820283"><ele>1882.0</ele><time>2026-04-25T11:12:05.402Z</time></trkpt><trkpt lat="31.2896383" lon="-7.1820017"><ele>1881.5</ele><time>2026-04-25T11:12:07.402Z</time></trkpt><trkpt lat="31.28957" lon="-7.1819933"><ele>1881.0</ele><time>2026-04-25T11:12:09.402Z</time></trkpt><trkpt lat="31.289505" lon="-7.1819883"><ele>1880.4999999999998</ele><time>2026-04-25T11:12:11.402Z</time></trkpt><trkpt lat="31.2894133" lon="-7.1819667"><ele>1880.0</ele><time>2026-04-25T11:12:14.402Z</time></trkpt><trkpt lat="31.289335" lon="-7.1819333"><ele>1879.9999999999998</ele><time>2026-04-25T11:12:17.402Z</time></trkpt><trkpt lat="31.28927" lon="-7.1819167"><ele>1880.0</ele><time>2026-04-25T11:12:19.402Z</time></trkpt><trkpt lat="31.2892033" lon="-7.181885"><ele>1880.0</ele><time>2026-04-25T11:12:21.402Z</time></trkpt><trkpt lat="31.28913" lon="-7.1818233"><ele>1880.0</ele><time>2026-04-25T11:12:23.402Z</time></trkpt><trkpt lat="31.2890667" lon="-7.181755"><ele>1879.9999999999998</ele><time>2026-04-25T11:12:25.402Z</time></trkpt><trkpt lat="31.2890283" lon="-7.1816867"><ele>1880.0</ele><time>2026-04-25T11:12:27.402Z</time></trkpt><trkpt lat="31.2889917" lon="-7.1816183"><ele>1879.9999999999998</ele><time>2026-04-25T11:12:29.402Z</time></trkpt><trkpt lat="31.2889467" lon="-7.1815583"><ele>1880.0</ele><time>2026-04-25T11:12:31.402Z</time></trkpt><trkpt lat="31.2889117" lon="-7.1814817"><ele>1880.0</ele><time>2026-04-25T11:12:33.402Z</time></trkpt><trkpt lat="31.2888933" lon="-7.1813817"><ele>1880.0</ele><time>2026-04-25T11:12:35.403Z</time></trkpt><trkpt lat="31.2888917" lon="-7.1812767"><ele>1879.9999999999998</ele><time>2026-04-25T11:12:37.402Z</time></trkpt><trkpt lat="31.2888933" lon="-7.1811567"><ele>1880.0</ele><time>2026-04-25T11:12:39.402Z</time></trkpt><trkpt lat="31.2889083" lon="-7.1810583"><ele>1879.6666666666665</ele><time>2026-04-25T11:12:41.402Z</time></trkpt><trkpt lat="31.2889283" lon="-7.1809767"><ele>1879.3333333333333</ele><time>2026-04-25T11:12:43.402Z</time></trkpt><trkpt lat="31.288965" lon="-7.1808883"><ele>1879.0</ele><time>2026-04-25T11:12:45.402Z</time></trkpt><trkpt lat="31.2890067" lon="-7.180785"><ele>1878.6666666666665</ele><time>2026-04-25T11:12:47.402Z</time></trkpt><trkpt lat="31.28905" lon="-7.18069"><ele>1878.3333333333333</ele><time>2026-04-25T11:12:49.402Z</time></trkpt><trkpt lat="31.2890733" lon="-7.1806"><ele>1878.0</ele><time>2026-04-25T11:12:51.402Z</time></trkpt><trkpt lat="31.28906" lon="-7.1805117"><ele>1878.6666666666667</ele><time>2026-04-25T11:12:53.402Z</time></trkpt><trkpt lat="31.2890117" lon="-7.18045"><ele>1879.3333333333335</ele><time>2026-04-25T11:12:56.402Z</time></trkpt><trkpt lat="31.28896" lon="-7.1803617"><ele>1880.0</ele><time>2026-04-25T11:13:54.403Z</time></trkpt><trkpt lat="31.288925" lon="-7.1802617"><ele>1880.6666666666667</ele><time>2026-04-25T11:13:56.402Z</time></trkpt><trkpt lat="31.288845" lon="-7.1801817"><ele>1881.3333333333335</ele><time>2026-04-25T11:13:58.402Z</time></trkpt><trkpt lat="31.2887767" lon="-7.1801283"><ele>1882.0</ele><time>2026-04-25T11:13:59.402Z</time></trkpt><trkpt lat="31.2887067" lon="-7.1800633"><ele>1880.8571428571427</ele><time>2026-04-25T11:14:00.402Z</time></trkpt><trkpt lat="31.2886467" lon="-7.1799983"><ele>1879.7142857142858</ele><time>2026-04-25T11:14:01.402Z</time></trkpt><trkpt lat="31.288585" lon="-7.1799383"><ele>1878.5714285714284</ele><time>2026-04-25T11:14:02.402Z</time></trkpt><trkpt lat="31.28853" lon="-7.17988"><ele>1877.4285714285713</ele><time>2026-04-25T11:14:03.402Z</time></trkpt><trkpt lat="31.2884867" lon="-7.17982"><ele>1876.2857142857142</ele><time>2026-04-25T11:14:04.402Z</time></trkpt><trkpt lat="31.2884333" lon="-7.1797667"><ele>1875.142857142857</ele><time>2026-04-25T11:14:05.402Z</time></trkpt><trkpt lat="31.2883683" lon="-7.179735"><ele>1874.0</ele><time>2026-04-25T11:14:06.402Z</time></trkpt><trkpt lat="31.2883017" lon="-7.1797033"><ele>1873.8333333333333</ele><time>2026-04-25T11:14:07.402Z</time></trkpt><trkpt lat="31.2882367" lon="-7.1796817"><ele>1873.6666666666665</ele><time>2026-04-25T11:14:08.402Z</time></trkpt><trkpt lat="31.2881717" lon="-7.1796733"><ele>1873.5</ele><time>2026-04-25T11:14:09.402Z</time></trkpt><trkpt lat="31.2880617" lon="-7.1796767"><ele>1873.3333333333335</ele><time>2026-04-25T11:14:11.402Z</time></trkpt><trkpt lat="31.28796" lon="-7.179675"><ele>1873.1666666666667</ele><time>2026-04-25T11:14:13.402Z</time></trkpt><trkpt lat="31.2878783" lon="-7.1796417"><ele>1873.0</ele><time>2026-04-25T11:14:15.402Z</time></trkpt><trkpt lat="31.2878067" lon="-7.1795517"><ele>1873.0</ele><time>2026-04-25T11:14:17.402Z</time></trkpt><trkpt lat="31.2877817" lon="-7.1794117"><ele>1873.0000000000002</ele><time>2026-04-25T11:14:19.402Z</time></trkpt><trkpt lat="31.2878033" lon="-7.1793367"><ele>1873.0000000000002</ele><time>2026-04-25T11:14:20.402Z</time></trkpt><trkpt lat="31.287845" lon="-7.179255"><ele>1873.0</ele><time>2026-04-25T11:14:21.402Z</time></trkpt><trkpt lat="31.2879017" lon="-7.17916"><ele>1873.0</ele><time>2026-04-25T11:14:22.402Z</time></trkpt><trkpt lat="31.2879667" lon="-7.1790617"><ele>1871.8000000000002</ele><time>2026-04-25T11:14:23.402Z</time></trkpt><trkpt lat="31.2880167" lon="-7.17895"><ele>1870.6000000000001</ele><time>2026-04-25T11:14:24.402Z</time></trkpt><trkpt lat="31.2880667" lon="-7.1788333"><ele>1869.3999999999999</ele><time>2026-04-25T11:14:25.402Z</time></trkpt><trkpt lat="31.2881117" lon="-7.1787283"><ele>1868.1999999999998</ele><time>2026-04-25T11:14:26.402Z</time></trkpt><trkpt lat="31.2881517" lon="-7.1786367"><ele>1867.0</ele><time>2026-04-25T11:14:27.402Z</time></trkpt><trkpt lat="31.2881833" lon="-7.1785517"><ele>1867.0000000000002</ele><time>2026-04-25T11:14:28.402Z</time></trkpt><trkpt lat="31.288215" lon="-7.17848"><ele>1867.0</ele><time>2026-04-25T11:14:29.402Z</time></trkpt><trkpt lat="31.2882333" lon="-7.1784083"><ele>1867.0</ele><time>2026-04-25T11:14:30.401Z</time></trkpt><trkpt lat="31.2882617" lon="-7.1782967"><ele>1867.0</ele><time>2026-04-25T11:14:32.401Z</time></trkpt><trkpt lat="31.2882383" lon="-7.1782067"><ele>1867.0000000000002</ele><time>2026-04-25T11:14:35.401Z</time></trkpt><trkpt lat="31.2881633" lon="-7.1782283"><ele>1867.0</ele><time>2026-04-25T11:14:38.401Z</time></trkpt><trkpt lat="31.2881017" lon="-7.1783567"><ele>1871.75</ele><time>2026-04-25T11:14:40.401Z</time></trkpt><trkpt lat="31.2880633" lon="-7.1784583"><ele>1876.5</ele><time>2026-04-25T11:14:41.401Z</time></trkpt><trkpt lat="31.2880067" lon="-7.178585"><ele>1881.25</ele><time>2026-04-25T11:14:42.401Z</time></trkpt><trkpt lat="31.2879317" lon="-7.1787317"><ele>1886.0</ele><time>2026-04-25T11:14:43.401Z</time></trkpt><trkpt lat="31.2878517" lon="-7.17889"><ele>1882.75</ele><time>2026-04-25T11:14:44.401Z</time></trkpt><trkpt lat="31.287775" lon="-7.179025"><ele>1879.5</ele><time>2026-04-25T11:14:45.401Z</time></trkpt><trkpt lat="31.2876967" lon="-7.1791433"><ele>1876.25</ele><time>2026-04-25T11:14:46.401Z</time></trkpt><trkpt lat="31.28762" lon="-7.1792617"><ele>1873.0</ele><time>2026-04-25T11:14:47.401Z</time></trkpt><trkpt lat="31.2875383" lon="-7.1793833"><ele>1873.0</ele><time>2026-04-25T11:14:48.401Z</time></trkpt><trkpt lat="31.2874467" lon="-7.1795133"><ele>1873.0</ele><time>2026-04-25T11:14:49.401Z</time></trkpt><trkpt lat="31.2873717" lon="-7.1796583"><ele>1873.0</ele><time>2026-04-25T11:14:50.401Z</time></trkpt><trkpt lat="31.2873" lon="-7.1798083"><ele>1873.0</ele><time>2026-04-25T11:14:51.401Z</time></trkpt><trkpt lat="31.2872467" lon="-7.17995"><ele>1878.75</ele><time>2026-04-25T11:14:52.401Z</time></trkpt><trkpt lat="31.2872" lon="-7.1801"><ele>1884.5</ele><time>2026-04-25T11:14:53.401Z</time></trkpt><trkpt lat="31.2871533" lon="-7.18026"><ele>1890.25</ele><time>2026-04-25T11:14:54.402Z</time></trkpt><trkpt lat="31.2871067" lon="-7.1804267"><ele>1896.0</ele><time>2026-04-25T11:14:55.401Z</time></trkpt><trkpt lat="31.2870617" lon="-7.1805833"><ele>1891.75</ele><time>2026-04-25T11:14:56.401Z</time></trkpt><trkpt lat="31.2870117" lon="-7.1807383"><ele>1887.5</ele><time>2026-04-25T11:14:57.401Z</time></trkpt><trkpt lat="31.286965" lon="-7.1809017"><ele>1883.25</ele><time>2026-04-25T11:14:58.401Z</time></trkpt><trkpt lat="31.2869167" lon="-7.1810617"><ele>1879.0</ele><time>2026-04-25T11:14:59.401Z</time></trkpt><trkpt lat="31.286865" lon="-7.1812233"><ele>1879.0</ele><time>2026-04-25T11:15:00.401Z</time></trkpt><trkpt lat="31.2867983" lon="-7.1813767"><ele>1879.0</ele><time>2026-04-25T11:15:01.401Z</time></trkpt><trkpt lat="31.2867217" lon="-7.18152"><ele>1879.0</ele><time>2026-04-25T11:15:02.401Z</time></trkpt><trkpt lat="31.2866567" lon="-7.18166"><ele>1879.0</ele><time>2026-04-25T11:15:03.401Z</time></trkpt><trkpt lat="31.2866017" lon="-7.1817933"><ele>1879.5</ele><time>2026-04-25T11:15:04.401Z</time></trkpt><trkpt lat="31.2865517" lon="-7.1819267"><ele>1880.0</ele><time>2026-04-25T11:15:05.401Z</time></trkpt><trkpt lat="31.2865067" lon="-7.18206"><ele>1880.5</ele><time>2026-04-25T11:15:06.401Z</time></trkpt><trkpt lat="31.286475" lon="-7.1822033"><ele>1881.0</ele><time>2026-04-25T11:15:07.401Z</time></trkpt><trkpt lat="31.2864633" lon="-7.1823533"><ele>1881.0</ele><time>2026-04-25T11:15:08.401Z</time></trkpt><trkpt lat="31.2864683" lon="-7.1825133"><ele>1881.0</ele><time>2026-04-25T11:15:09.401Z</time></trkpt><trkpt lat="31.28648" lon="-7.1826667"><ele>1881.0</ele><time>2026-04-25T11:15:10.401Z</time></trkpt><trkpt lat="31.2864917" lon="-7.18282"><ele>1881.0</ele><time>2026-04-25T11:15:11.401Z</time></trkpt><trkpt lat="31.286505" lon="-7.1829767"><ele>1881.0</ele><time>2026-04-25T11:15:12.401Z</time></trkpt><trkpt lat="31.286515" lon="-7.183135"><ele>1881.0</ele><time>2026-04-25T11:15:13.401Z</time></trkpt><trkpt lat="31.286525" lon="-7.1833"><ele>1881.0</ele><time>2026-04-25T11:15:14.401Z</time></trkpt><trkpt lat="31.2865267" lon="-7.1834717"><ele>1881.0</ele><time>2026-04-25T11:15:15.401Z</time></trkpt><trkpt lat="31.28652" lon="-7.18364"><ele>1882.75</ele><time>2026-04-25T11:15:16.401Z</time></trkpt><trkpt lat="31.2865" lon="-7.1838083"><ele>1884.5</ele><time>2026-04-25T11:15:17.401Z</time></trkpt><trkpt lat="31.2864733" lon="-7.1839717"><ele>1886.25</ele><time>2026-04-25T11:15:18.401Z</time></trkpt><trkpt lat="31.28644" lon="-7.1841267"><ele>1888.0</ele><time>2026-04-25T11:15:19.401Z</time></trkpt><trkpt lat="31.286415" lon="-7.1842667"><ele>1891.0</ele><time>2026-04-25T11:15:20.401Z</time></trkpt><trkpt lat="31.2863983" lon="-7.1844017"><ele>1894.0</ele><time>2026-04-25T11:15:21.401Z</time></trkpt><trkpt lat="31.28638" lon="-7.1845417"><ele>1897.0</ele><time>2026-04-25T11:15:22.401Z</time></trkpt><trkpt lat="31.2863667" lon="-7.1846883"><ele>1900.0</ele><time>2026-04-25T11:15:23.401Z</time></trkpt><trkpt lat="31.28637" lon="-7.1848367"><ele>1901.5</ele><time>2026-04-25T11:15:24.401Z</time></trkpt><trkpt lat="31.286385" lon="-7.18499"><ele>1903.0</ele><time>2026-04-25T11:15:25.401Z</time></trkpt><trkpt lat="31.2864117" lon="-7.1851367"><ele>1904.5</ele><time>2026-04-25T11:15:26.401Z</time></trkpt><trkpt lat="31.2864417" lon="-7.185285"><ele>1906.0</ele><time>2026-04-25T11:15:27.402Z</time></trkpt><trkpt lat="31.28648" lon="-7.1854367"><ele>1906.25</ele><time>2026-04-25T11:15:28.401Z</time></trkpt><trkpt lat="31.2865133" lon="-7.1855883"><ele>1906.5</ele><time>2026-04-25T11:15:29.401Z</time></trkpt><trkpt lat="31.28655" lon="-7.1857417"><ele>1906.75</ele><time>2026-04-25T11:15:30.401Z</time></trkpt><trkpt lat="31.2865883" lon="-7.18589"><ele>1907.0</ele><time>2026-04-25T11:15:31.401Z</time></trkpt><trkpt lat="31.2866283" lon="-7.1860317"><ele>1908.25</ele><time>2026-04-25T11:15:32.401Z</time></trkpt><trkpt lat="31.2866617" lon="-7.186165"><ele>1909.5</ele><time>2026-04-25T11:15:33.401Z</time></trkpt><trkpt lat="31.2866967" lon="-7.1862983"><ele>1910.75</ele><time>2026-04-25T11:15:34.401Z</time></trkpt><trkpt lat="31.2867117" lon="-7.1864383"><ele>1912.0</ele><time>2026-04-25T11:15:35.401Z</time></trkpt><trkpt lat="31.28671" lon="-7.1865867"><ele>1912.25</ele><time>2026-04-25T11:15:36.402Z</time></trkpt><trkpt lat="31.28671" lon="-7.1867367"><ele>1912.5</ele><time>2026-04-25T11:15:37.401Z</time></trkpt><trkpt lat="31.2867017" lon="-7.1868783"><ele>1912.75</ele><time>2026-04-25T11:15:38.401Z</time></trkpt><trkpt lat="31.2866817" lon="-7.187015"><ele>1913.0</ele><time>2026-04-25T11:15:39.401Z</time></trkpt><trkpt lat="31.2866583" lon="-7.18715"><ele>1913.0</ele><time>2026-04-25T11:15:40.401Z</time></trkpt><trkpt lat="31.28664" lon="-7.187295"><ele>1913.0</ele><time>2026-04-25T11:15:41.401Z</time></trkpt><trkpt lat="31.286625" lon="-7.187445"><ele>1913.0</ele><time>2026-04-25T11:15:42.401Z</time></trkpt><trkpt lat="31.2866" lon="-7.18759"><ele>1913.0</ele><time>2026-04-25T11:15:43.401Z</time></trkpt><trkpt lat="31.286585" lon="-7.1877383"><ele>1913.25</ele><time>2026-04-25T11:15:44.401Z</time></trkpt><trkpt lat="31.2865717" lon="-7.187885"><ele>1913.5</ele><time>2026-04-25T11:15:45.401Z</time></trkpt><trkpt lat="31.2865583" lon="-7.1880283"><ele>1913.75</ele><time>2026-04-25T11:15:46.401Z</time></trkpt><trkpt lat="31.2865467" lon="-7.188175"><ele>1914.0</ele><time>2026-04-25T11:15:47.401Z</time></trkpt><trkpt lat="31.2865467" lon="-7.188325"><ele>1913.5</ele><time>2026-04-25T11:15:48.401Z</time></trkpt><trkpt lat="31.28655" lon="-7.188485"><ele>1913.0</ele><time>2026-04-25T11:15:49.401Z</time></trkpt><trkpt lat="31.2865533" lon="-7.1886633"><ele>1912.5</ele><time>2026-04-25T11:15:50.401Z</time></trkpt><trkpt lat="31.2865583" lon="-7.188845"><ele>1912.0</ele><time>2026-04-25T11:15:51.401Z</time></trkpt><trkpt lat="31.2865667" lon="-7.189035"><ele>1912.0</ele><time>2026-04-25T11:15:52.401Z</time></trkpt><trkpt lat="31.2865733" lon="-7.1892183"><ele>1912.0</ele><time>2026-04-25T11:15:53.401Z</time></trkpt><trkpt lat="31.286585" lon="-7.1893983"><ele>1912.0</ele><time>2026-04-25T11:15:54.401Z</time></trkpt><trkpt lat="31.2865983" lon="-7.1895833"><ele>1912.0</ele><time>2026-04-25T11:15:55.401Z</time></trkpt><trkpt lat="31.286605" lon="-7.1897783"><ele>1912.0</ele><time>2026-04-25T11:15:56.401Z</time></trkpt><trkpt lat="31.28661" lon="-7.1899867"><ele>1912.0</ele><time>2026-04-25T11:15:57.401Z</time></trkpt><trkpt lat="31.2866133" lon="-7.190195"><ele>1911.0</ele><time>2026-04-25T11:15:58.401Z</time></trkpt><trkpt lat="31.2866183" lon="-7.190395"><ele>1910.0</ele><time>2026-04-25T11:15:59.401Z</time></trkpt><trkpt lat="31.286615" lon="-7.1905833"><ele>1909.0</ele><time>2026-04-25T11:16:00.401Z</time></trkpt><trkpt lat="31.2866183" lon="-7.1907633"><ele>1907.25</ele><time>2026-04-25T11:16:01.401Z</time></trkpt><trkpt lat="31.2866167" lon="-7.19094"><ele>1905.5</ele><time>2026-04-25T11:16:02.401Z</time></trkpt><trkpt lat="31.2866117" lon="-7.1911117"><ele>1903.75</ele><time>2026-04-25T11:16:03.401Z</time></trkpt><trkpt lat="31.28661" lon="-7.191285"><ele>1902.0</ele><time>2026-04-25T11:16:04.401Z</time></trkpt><trkpt lat="31.2866133" lon="-7.1914633"><ele>1900.3333333333335</ele><time>2026-04-25T11:16:05.401Z</time></trkpt><trkpt lat="31.2866183" lon="-7.191645"><ele>1898.6666666666667</ele><time>2026-04-25T11:16:06.401Z</time></trkpt><trkpt lat="31.2866233" lon="-7.1918233"><ele>1897.0</ele><time>2026-04-25T11:16:07.401Z</time></trkpt><trkpt lat="31.2866217" lon="-7.1920033"><ele>1897.0</ele><time>2026-04-25T11:16:08.401Z</time></trkpt><trkpt lat="31.2866233" lon="-7.1921783"><ele>1897.0</ele><time>2026-04-25T11:16:09.401Z</time></trkpt><trkpt lat="31.2866233" lon="-7.1923483"><ele>1897.0</ele><time>2026-04-25T11:16:10.401Z</time></trkpt><trkpt lat="31.286625" lon="-7.1925133"><ele>1897.0</ele><time>2026-04-25T11:16:11.401Z</time></trkpt><trkpt lat="31.286635" lon="-7.192685"><ele>1896.0</ele><time>2026-04-25T11:16:12.402Z</time></trkpt><trkpt lat="31.2866483" lon="-7.19286"><ele>1895.0</ele><time>2026-04-25T11:16:13.401Z</time></trkpt><trkpt lat="31.2866617" lon="-7.1930383"><ele>1894.0</ele><time>2026-04-25T11:16:14.401Z</time></trkpt><trkpt lat="31.2866883" lon="-7.193225"><ele>1892.3333333333335</ele><time>2026-04-25T11:16:15.401Z</time></trkpt><trkpt lat="31.2867117" lon="-7.19341"><ele>1890.6666666666665</ele><time>2026-04-25T11:16:16.401Z</time></trkpt><trkpt lat="31.286735" lon="-7.193595"><ele>1889.0</ele><time>2026-04-25T11:16:17.401Z</time></trkpt><trkpt lat="31.2867617" lon="-7.1937833"><ele>1889.0</ele><time>2026-04-25T11:16:18.401Z</time></trkpt><trkpt lat="31.28678" lon="-7.1939733"><ele>1889.0</ele><time>2026-04-25T11:16:19.402Z</time></trkpt><trkpt lat="31.2867983" lon="-7.1941683"><ele>1889.0</ele><time>2026-04-25T11:16:20.401Z</time></trkpt><trkpt lat="31.286815" lon="-7.1943667"><ele>1887.6666666666665</ele><time>2026-04-25T11:16:21.401Z</time></trkpt><trkpt lat="31.28683" lon="-7.1945583"><ele>1886.3333333333335</ele><time>2026-04-25T11:16:22.401Z</time></trkpt><trkpt lat="31.2868567" lon="-7.19474"><ele>1885.0</ele><time>2026-04-25T11:16:23.401Z</time></trkpt><trkpt lat="31.2868883" lon="-7.1949117"><ele>1885.0</ele><time>2026-04-25T11:16:24.401Z</time></trkpt><trkpt lat="31.28694" lon="-7.195085"><ele>1885.0</ele><time>2026-04-25T11:16:25.401Z</time></trkpt><trkpt lat="31.2870067" lon="-7.195255"><ele>1885.0</ele><time>2026-04-25T11:16:26.401Z</time></trkpt><trkpt lat="31.2871" lon="-7.1954233"><ele>1885.0</ele><time>2026-04-25T11:16:27.401Z</time></trkpt><trkpt lat="31.2871917" lon="-7.1955883"><ele>1885.0</ele><time>2026-04-25T11:16:28.401Z</time></trkpt><trkpt lat="31.2872883" lon="-7.19575"><ele>1885.0</ele><time>2026-04-25T11:16:29.401Z</time></trkpt><trkpt lat="31.28738" lon="-7.1959133"><ele>1884.0</ele><time>2026-04-25T11:16:30.401Z</time></trkpt><trkpt lat="31.287465" lon="-7.1960733"><ele>1883.0</ele><time>2026-04-25T11:16:31.401Z</time></trkpt><trkpt lat="31.287545" lon="-7.19623"><ele>1882.0</ele><time>2026-04-25T11:16:32.401Z</time></trkpt><trkpt lat="31.2876233" lon="-7.196385"><ele>1878.3333333333335</ele><time>2026-04-25T11:16:33.402Z</time></trkpt><trkpt lat="31.2877033" lon="-7.19653"><ele>1874.6666666666665</ele><time>2026-04-25T11:16:34.401Z</time></trkpt><trkpt lat="31.2878067" lon="-7.1966717"><ele>1871.0</ele><time>2026-04-25T11:16:35.401Z</time></trkpt><trkpt lat="31.2879283" lon="-7.1968033"><ele>1871.0</ele><time>2026-04-25T11:16:36.401Z</time></trkpt><trkpt lat="31.2880667" lon="-7.1969317"><ele>1871.0</ele><time>2026-04-25T11:16:37.401Z</time></trkpt><trkpt lat="31.2882183" lon="-7.1970467"><ele>1871.0</ele><time>2026-04-25T11:16:38.401Z</time></trkpt><trkpt lat="31.288385" lon="-7.19715"><ele>1871.0</ele><time>2026-04-25T11:16:39.401Z</time></trkpt><trkpt lat="31.2885633" lon="-7.1972283"><ele>1871.0</ele><time>2026-04-25T11:16:40.401Z</time></trkpt><trkpt lat="31.2887383" lon="-7.1972883"><ele>1871.0</ele><time>2026-04-25T11:16:41.401Z</time></trkpt><trkpt lat="31.2888967" lon="-7.1973433"><ele>1870.3333333333333</ele><time>2026-04-25T11:16:42.402Z</time></trkpt><trkpt lat="31.2890483" lon="-7.1973967"><ele>1869.6666666666665</ele><time>2026-04-25T11:16:43.401Z</time></trkpt><trkpt lat="31.2891917" lon="-7.1974467"><ele>1869.0</ele><time>2026-04-25T11:16:44.401Z</time></trkpt><trkpt lat="31.28933" lon="-7.197495"><ele>1869.0</ele><time>2026-04-25T11:16:45.401Z</time></trkpt><trkpt lat="31.2894683" lon="-7.19755"><ele>1869.0</ele><time>2026-04-25T11:16:46.401Z</time></trkpt><trkpt lat="31.2896033" lon="-7.1976167"><ele>1869.0</ele><time>2026-04-25T11:16:47.401Z</time></trkpt><trkpt lat="31.2897433" lon="-7.1976917"><ele>1869.0</ele><time>2026-04-25T11:16:48.401Z</time></trkpt><trkpt lat="31.289885" lon="-7.1977733"><ele>1868.3333333333335</ele><time>2026-04-25T11:16:49.401Z</time></trkpt><trkpt lat="31.2900133" lon="-7.1978833"><ele>1867.6666666666667</ele><time>2026-04-25T11:16:50.401Z</time></trkpt><trkpt lat="31.2901367" lon="-7.198015"><ele>1867.0</ele><time>2026-04-25T11:16:51.401Z</time></trkpt><trkpt lat="31.2902533" lon="-7.1981683"><ele>1865.6666666666667</ele><time>2026-04-25T11:16:52.401Z</time></trkpt><trkpt lat="31.2903667" lon="-7.1983267"><ele>1864.3333333333335</ele><time>2026-04-25T11:16:53.401Z</time></trkpt><trkpt lat="31.2904717" lon="-7.1984767"><ele>1863.0</ele><time>2026-04-25T11:16:54.401Z</time></trkpt><trkpt lat="31.2905733" lon="-7.1986317"><ele>1862.0</ele><time>2026-04-25T11:16:55.401Z</time></trkpt><trkpt lat="31.2906767" lon="-7.198785"><ele>1861.0</ele><time>2026-04-25T11:16:56.401Z</time></trkpt><trkpt lat="31.2907667" lon="-7.1989483"><ele>1860.0</ele><time>2026-04-25T11:16:57.401Z</time></trkpt><trkpt lat="31.2908467" lon="-7.1991317"><ele>1858.3333333333335</ele><time>2026-04-25T11:16:58.401Z</time></trkpt><trkpt lat="31.2909167" lon="-7.1993217"><ele>1856.6666666666667</ele><time>2026-04-25T11:16:59.401Z</time></trkpt><trkpt lat="31.2909833" lon="-7.1995117"><ele>1855.0</ele><time>2026-04-25T11:17:00.401Z</time></trkpt><trkpt lat="31.2910533" lon="-7.199705"><ele>1856.0</ele><time>2026-04-25T11:17:01.401Z</time></trkpt><trkpt lat="31.2911283" lon="-7.1998833"><ele>1857.0</ele><time>2026-04-25T11:17:02.401Z</time></trkpt><trkpt lat="31.2912067" lon="-7.2000483"><ele>1858.0</ele><time>2026-04-25T11:17:03.401Z</time></trkpt><trkpt lat="31.29129" lon="-7.2002033"><ele>1858.0</ele><time>2026-04-25T11:17:04.402Z</time></trkpt><trkpt lat="31.2913833" lon="-7.2003433"><ele>1858.0</ele><time>2026-04-25T11:17:05.401Z</time></trkpt><trkpt lat="31.2914867" lon="-7.20048"><ele>1858.0</ele><time>2026-04-25T11:17:06.401Z</time></trkpt><trkpt lat="31.29159" lon="-7.2006117"><ele>1855.3333333333335</ele><time>2026-04-25T11:17:07.402Z</time></trkpt><trkpt lat="31.2917017" lon="-7.2007517"><ele>1852.6666666666665</ele><time>2026-04-25T11:17:08.401Z</time></trkpt><trkpt lat="31.2918217" lon="-7.2008933"><ele>1850.0</ele><time>2026-04-25T11:17:09.401Z</time></trkpt><trkpt lat="31.29193" lon="-7.2010317"><ele>1850.0</ele><time>2026-04-25T11:17:10.401Z</time></trkpt><trkpt lat="31.2920417" lon="-7.201175"><ele>1850.0</ele><time>2026-04-25T11:17:11.401Z</time></trkpt><trkpt lat="31.2921383" lon="-7.201325"><ele>1850.0</ele><time>2026-04-25T11:17:12.401Z</time></trkpt><trkpt lat="31.292215" lon="-7.20149"><ele>1848.6666666666665</ele><time>2026-04-25T11:17:13.401Z</time></trkpt><trkpt lat="31.2922683" lon="-7.201665"><ele>1847.3333333333335</ele><time>2026-04-25T11:17:14.401Z</time></trkpt><trkpt lat="31.2923017" lon="-7.2018583"><ele>1846.0</ele><time>2026-04-25T11:17:15.401Z</time></trkpt><trkpt lat="31.29233" lon="-7.2020683"><ele>1846.0</ele><time>2026-04-25T11:17:16.401Z</time></trkpt><trkpt lat="31.2923533" lon="-7.202275"><ele>1846.0</ele><time>2026-04-25T11:17:17.401Z</time></trkpt><trkpt lat="31.2923683" lon="-7.2024733"><ele>1846.0</ele><time>2026-04-25T11:17:18.401Z</time></trkpt><trkpt lat="31.2923833" lon="-7.2026683"><ele>1845.6666666666667</ele><time>2026-04-25T11:17:19.401Z</time></trkpt><trkpt lat="31.2924017" lon="-7.20287"><ele>1845.3333333333335</ele><time>2026-04-25T11:17:20.401Z</time></trkpt><trkpt lat="31.2924183" lon="-7.203075"><ele>1845.0</ele><time>2026-04-25T11:17:21.401Z</time></trkpt><trkpt lat="31.2924317" lon="-7.2032783"><ele>1844.6666666666665</ele><time>2026-04-25T11:17:22.401Z</time></trkpt><trkpt lat="31.29246" lon="-7.20347"><ele>1844.3333333333333</ele><time>2026-04-25T11:17:23.401Z</time></trkpt><trkpt lat="31.2924917" lon="-7.2036583"><ele>1844.0</ele><time>2026-04-25T11:17:24.401Z</time></trkpt><trkpt lat="31.2925233" lon="-7.2038517"><ele>1843.6666666666665</ele><time>2026-04-25T11:17:25.401Z</time></trkpt><trkpt lat="31.2925617" lon="-7.2040467"><ele>1843.3333333333335</ele><time>2026-04-25T11:17:26.401Z</time></trkpt><trkpt lat="31.2926017" lon="-7.204245"><ele>1843.0</ele><time>2026-04-25T11:17:27.401Z</time></trkpt><trkpt lat="31.2926433" lon="-7.20445"><ele>1843.0</ele><time>2026-04-25T11:17:28.401Z</time></trkpt><trkpt lat="31.29268" lon="-7.2046517"><ele>1843.0</ele><time>2026-04-25T11:17:29.401Z</time></trkpt><trkpt lat="31.2927233" lon="-7.2048617"><ele>1843.0</ele><time>2026-04-25T11:17:30.401Z</time></trkpt><trkpt lat="31.2927617" lon="-7.2050733"><ele>1842.3333333333335</ele><time>2026-04-25T11:17:31.401Z</time></trkpt><trkpt lat="31.2927983" lon="-7.2052683"><ele>1841.6666666666665</ele><time>2026-04-25T11:17:32.401Z</time></trkpt><trkpt lat="31.2928317" lon="-7.205455"><ele>1841.0</ele><time>2026-04-25T11:17:33.401Z</time></trkpt><trkpt lat="31.29286" lon="-7.20565"><ele>1840.3333333333333</ele><time>2026-04-25T11:17:34.401Z</time></trkpt><trkpt lat="31.2928967" lon="-7.2058533"><ele>1839.6666666666665</ele><time>2026-04-25T11:17:35.401Z</time></trkpt><trkpt lat="31.2929267" lon="-7.2060633"><ele>1839.0</ele><time>2026-04-25T11:17:36.401Z</time></trkpt><trkpt lat="31.2929467" lon="-7.2062567"><ele>1839.0</ele><time>2026-04-25T11:17:37.401Z</time></trkpt><trkpt lat="31.2929617" lon="-7.206445"><ele>1839.0</ele><time>2026-04-25T11:17:38.401Z</time></trkpt><trkpt lat="31.2929767" lon="-7.2066283"><ele>1839.0</ele><time>2026-04-25T11:17:39.401Z</time></trkpt><trkpt lat="31.2930033" lon="-7.2068017"><ele>1838.3333333333335</ele><time>2026-04-25T11:17:40.401Z</time></trkpt><trkpt lat="31.2930467" lon="-7.2069883"><ele>1837.6666666666667</ele><time>2026-04-25T11:17:41.401Z</time></trkpt><trkpt lat="31.2931233" lon="-7.2071733"><ele>1837.0</ele><time>2026-04-25T11:17:42.401Z</time></trkpt><trkpt lat="31.2932233" lon="-7.2073517"><ele>1837.0</ele><time>2026-04-25T11:17:43.402Z</time></trkpt><trkpt lat="31.2933483" lon="-7.2075133"><ele>1837.0</ele><time>2026-04-25T11:17:44.402Z</time></trkpt><trkpt lat="31.293495" lon="-7.207675"><ele>1837.0</ele><time>2026-04-25T11:17:45.401Z</time></trkpt><trkpt lat="31.29364" lon="-7.2078133"><ele>1837.0</ele><time>2026-04-25T11:17:46.401Z</time></trkpt><trkpt lat="31.2937933" lon="-7.20793"><ele>1837.0</ele><time>2026-04-25T11:17:47.401Z</time></trkpt><trkpt lat="31.29396" lon="-7.20803"><ele>1837.0</ele><time>2026-04-25T11:17:48.401Z</time></trkpt><trkpt lat="31.2941283" lon="-7.2081317"><ele>1834.6666666666667</ele><time>2026-04-25T11:17:49.401Z</time></trkpt><trkpt lat="31.29428" lon="-7.2082417"><ele>1832.3333333333335</ele><time>2026-04-25T11:17:50.401Z</time></trkpt><trkpt lat="31.2944267" lon="-7.2083467"><ele>1830.0</ele><time>2026-04-25T11:17:51.401Z</time></trkpt><trkpt lat="31.2945717" lon="-7.20845"><ele>1830.0</ele><time>2026-04-25T11:17:52.401Z</time></trkpt><trkpt lat="31.2947033" lon="-7.2085517"><ele>1830.0</ele><time>2026-04-25T11:17:53.401Z</time></trkpt><trkpt lat="31.2948267" lon="-7.2086683"><ele>1830.0</ele><time>2026-04-25T11:17:54.401Z</time></trkpt><trkpt lat="31.2949517" lon="-7.208785"><ele>1830.3333333333335</ele><time>2026-04-25T11:17:55.401Z</time></trkpt><trkpt lat="31.29507" lon="-7.2089117"><ele>1830.6666666666667</ele><time>2026-04-25T11:17:56.401Z</time></trkpt><trkpt lat="31.29518" lon="-7.2090633"><ele>1831.0</ele><time>2026-04-25T11:17:57.401Z</time></trkpt><trkpt lat="31.2952733" lon="-7.209245"><ele>1831.0</ele><time>2026-04-25T11:17:58.401Z</time></trkpt><trkpt lat="31.295345" lon="-7.2094283"><ele>1831.0</ele><time>2026-04-25T11:17:59.401Z</time></trkpt><trkpt lat="31.2953967" lon="-7.2096133"><ele>1831.0</ele><time>2026-04-25T11:18:00.401Z</time></trkpt><trkpt lat="31.295435" lon="-7.2097967"><ele>1829.6666666666667</ele><time>2026-04-25T11:18:01.402Z</time></trkpt><trkpt lat="31.2954683" lon="-7.2099733"><ele>1828.3333333333335</ele><time>2026-04-25T11:18:02.401Z</time></trkpt><trkpt lat="31.2955083" lon="-7.210165"><ele>1827.0</ele><time>2026-04-25T11:18:03.401Z</time></trkpt><trkpt lat="31.2955667" lon="-7.2103667"><ele>1826.6666666666665</ele><time>2026-04-25T11:18:04.401Z</time></trkpt><trkpt lat="31.2956317" lon="-7.210575"><ele>1826.3333333333333</ele><time>2026-04-25T11:18:05.401Z</time></trkpt><trkpt lat="31.2957083" lon="-7.2107933"><ele>1826.0</ele><time>2026-04-25T11:18:06.401Z</time></trkpt><trkpt lat="31.2957783" lon="-7.2110217"><ele>1826.0</ele><time>2026-04-25T11:18:07.401Z</time></trkpt><trkpt lat="31.295855" lon="-7.2112567"><ele>1826.0</ele><time>2026-04-25T11:18:08.401Z</time></trkpt><trkpt lat="31.29595" lon="-7.2114867"><ele>1826.0</ele><time>2026-04-25T11:18:09.401Z</time></trkpt><trkpt lat="31.2960417" lon="-7.2117033"><ele>1825.6666666666665</ele><time>2026-04-25T11:18:10.401Z</time></trkpt><trkpt lat="31.2961317" lon="-7.211905"><ele>1825.3333333333335</ele><time>2026-04-25T11:18:11.401Z</time></trkpt><trkpt lat="31.29623" lon="-7.2121017"><ele>1825.0</ele><time>2026-04-25T11:18:12.402Z</time></trkpt><trkpt lat="31.2963167" lon="-7.2122967"><ele>1825.0</ele><time>2026-04-25T11:18:13.401Z</time></trkpt><trkpt lat="31.2963967" lon="-7.212485"><ele>1825.0</ele><time>2026-04-25T11:18:14.401Z</time></trkpt><trkpt lat="31.296475" lon="-7.212665"><ele>1825.0</ele><time>2026-04-25T11:18:15.401Z</time></trkpt><trkpt lat="31.29655" lon="-7.2128383"><ele>1825.0</ele><time>2026-04-25T11:18:16.401Z</time></trkpt><trkpt lat="31.2966233" lon="-7.2130167"><ele>1825.0</ele><time>2026-04-25T11:18:17.401Z</time></trkpt><trkpt lat="31.2966983" lon="-7.21319"><ele>1825.0</ele><time>2026-04-25T11:18:18.401Z</time></trkpt><trkpt lat="31.296765" lon="-7.213375"><ele>1823.3333333333335</ele><time>2026-04-25T11:18:19.401Z</time></trkpt><trkpt lat="31.2968267" lon="-7.2135633"><ele>1821.6666666666665</ele><time>2026-04-25T11:18:20.401Z</time></trkpt><trkpt lat="31.2968733" lon="-7.2137533"><ele>1820.0</ele><time>2026-04-25T11:18:21.401Z</time></trkpt><trkpt lat="31.2969067" lon="-7.2139567"><ele>1819.6666666666665</ele><time>2026-04-25T11:18:22.401Z</time></trkpt><trkpt lat="31.296935" lon="-7.2141633"><ele>1819.3333333333335</ele><time>2026-04-25T11:18:23.401Z</time></trkpt><trkpt lat="31.2969517" lon="-7.2143717"><ele>1819.0</ele><time>2026-04-25T11:18:24.401Z</time></trkpt><trkpt lat="31.2969767" lon="-7.2145883"><ele>1819.0</ele><time>2026-04-25T11:18:25.401Z</time></trkpt><trkpt lat="31.2970017" lon="-7.2148017"><ele>1819.0</ele><time>2026-04-25T11:18:26.401Z</time></trkpt><trkpt lat="31.29703" lon="-7.2150067"><ele>1819.0</ele><time>2026-04-25T11:18:27.401Z</time></trkpt><trkpt lat="31.29706" lon="-7.2152033"><ele>1819.0</ele><time>2026-04-25T11:18:28.401Z</time></trkpt><trkpt lat="31.2970933" lon="-7.2154"><ele>1819.0</ele><time>2026-04-25T11:18:29.401Z</time></trkpt><trkpt lat="31.2971383" lon="-7.215595"><ele>1819.0</ele><time>2026-04-25T11:18:30.401Z</time></trkpt><trkpt lat="31.2972" lon="-7.2157933"><ele>1820.6666666666667</ele><time>2026-04-25T11:18:31.401Z</time></trkpt><trkpt lat="31.2972767" lon="-7.2159833"><ele>1822.3333333333335</ele><time>2026-04-25T11:18:32.401Z</time></trkpt><trkpt lat="31.297375" lon="-7.21617"><ele>1824.0</ele><time>2026-04-25T11:18:33.401Z</time></trkpt><trkpt lat="31.2974867" lon="-7.21633"><ele>1824.0</ele><time>2026-04-25T11:18:34.401Z</time></trkpt><trkpt lat="31.2976083" lon="-7.2164833"><ele>1824.0</ele><time>2026-04-25T11:18:35.401Z</time></trkpt><trkpt lat="31.2977433" lon="-7.2166133"><ele>1824.0</ele><time>2026-04-25T11:18:36.401Z</time></trkpt><trkpt lat="31.2978717" lon="-7.2167167"><ele>1827.6666666666665</ele><time>2026-04-25T11:18:37.401Z</time></trkpt><trkpt lat="31.2979967" lon="-7.2168183"><ele>1831.3333333333333</ele><time>2026-04-25T11:18:38.401Z</time></trkpt><trkpt lat="31.298115" lon="-7.2169217"><ele>1835.0</ele><time>2026-04-25T11:18:39.401Z</time></trkpt><trkpt lat="31.2982333" lon="-7.2170317"><ele>1836.0</ele><time>2026-04-25T11:18:40.401Z</time></trkpt><trkpt lat="31.298355" lon="-7.2171417"><ele>1837.0</ele><time>2026-04-25T11:18:41.401Z</time></trkpt><trkpt lat="31.2984733" lon="-7.2172483"><ele>1838.0</ele><time>2026-04-25T11:18:42.401Z</time></trkpt><trkpt lat="31.2985917" lon="-7.21736"><ele>1843.0</ele><time>2026-04-25T11:18:43.401Z</time></trkpt><trkpt lat="31.2987133" lon="-7.21748"><ele>1848.0</ele><time>2026-04-25T11:18:44.401Z</time></trkpt><trkpt lat="31.2988267" lon="-7.21761"><ele>1853.0</ele><time>2026-04-25T11:18:45.401Z</time></trkpt><trkpt lat="31.2989317" lon="-7.217745"><ele>1855.25</ele><time>2026-04-25T11:18:46.401Z</time></trkpt><trkpt lat="31.2990133" lon="-7.21789"><ele>1857.5</ele><time>2026-04-25T11:18:47.401Z</time></trkpt><trkpt lat="31.2990883" lon="-7.2180417"><ele>1859.75</ele><time>2026-04-25T11:18:48.401Z</time></trkpt><trkpt lat="31.29915" lon="-7.2181983"><ele>1862.0</ele><time>2026-04-25T11:18:49.401Z</time></trkpt><trkpt lat="31.2991983" lon="-7.21837"><ele>1863.3333333333333</ele><time>2026-04-25T11:18:50.401Z</time></trkpt><trkpt lat="31.2992367" lon="-7.2185467"><ele>1864.6666666666665</ele><time>2026-04-25T11:18:51.401Z</time></trkpt><trkpt lat="31.29926" lon="-7.2187367"><ele>1866.0</ele><time>2026-04-25T11:18:52.401Z</time></trkpt><trkpt lat="31.2992767" lon="-7.21894"><ele>1865.3333333333335</ele><time>2026-04-25T11:18:53.401Z</time></trkpt><trkpt lat="31.2992867" lon="-7.219155"><ele>1864.6666666666667</ele><time>2026-04-25T11:18:54.401Z</time></trkpt><trkpt lat="31.2992917" lon="-7.2193817"><ele>1864.0</ele><time>2026-04-25T11:18:55.401Z</time></trkpt><trkpt lat="31.2992917" lon="-7.2195933"><ele>1864.0</ele><time>2026-04-25T11:18:56.401Z</time></trkpt><trkpt lat="31.299295" lon="-7.219795"><ele>1864.0</ele><time>2026-04-25T11:18:57.401Z</time></trkpt><trkpt lat="31.29929" lon="-7.2199867"><ele>1864.0</ele><time>2026-04-25T11:18:58.401Z</time></trkpt><trkpt lat="31.29929" lon="-7.2201867"><ele>1863.6666666666667</ele><time>2026-04-25T11:18:59.401Z</time></trkpt><trkpt lat="31.2992917" lon="-7.2203917"><ele>1863.3333333333335</ele><time>2026-04-25T11:19:00.401Z</time></trkpt><trkpt lat="31.29929" lon="-7.2206033"><ele>1863.0</ele><time>2026-04-25T11:19:01.401Z</time></trkpt><trkpt lat="31.299295" lon="-7.2208233"><ele>1862.6666666666665</ele><time>2026-04-25T11:19:02.401Z</time></trkpt><trkpt lat="31.2992983" lon="-7.2210583"><ele>1862.3333333333333</ele><time>2026-04-25T11:19:03.402Z</time></trkpt><trkpt lat="31.2993033" lon="-7.2213"><ele>1862.0</ele><time>2026-04-25T11:19:04.401Z</time></trkpt><trkpt lat="31.2993067" lon="-7.2215367"><ele>1861.0</ele><time>2026-04-25T11:19:05.401Z</time></trkpt><trkpt lat="31.2993167" lon="-7.2217683"><ele>1860.0</ele><time>2026-04-25T11:19:06.401Z</time></trkpt><trkpt lat="31.2993267" lon="-7.2219983"><ele>1859.0</ele><time>2026-04-25T11:19:07.401Z</time></trkpt><trkpt lat="31.2993283" lon="-7.2222317"><ele>1857.0</ele><time>2026-04-25T11:19:08.401Z</time></trkpt><trkpt lat="31.2993233" lon="-7.2224667"><ele>1855.0</ele><time>2026-04-25T11:19:09.401Z</time></trkpt><trkpt lat="31.2993183" lon="-7.222705"><ele>1853.0</ele><time>2026-04-25T11:19:10.401Z</time></trkpt><trkpt lat="31.2993183" lon="-7.222945"><ele>1852.0</ele><time>2026-04-25T11:19:11.401Z</time></trkpt><trkpt lat="31.2993267" lon="-7.223185"><ele>1851.0</ele><time>2026-04-25T11:19:12.401Z</time></trkpt><trkpt lat="31.2993367" lon="-7.2234317"><ele>1850.0</ele><time>2026-04-25T11:19:13.401Z</time></trkpt><trkpt lat="31.2993433" lon="-7.2236783"><ele>1850.0</ele><time>2026-04-25T11:19:14.401Z</time></trkpt><trkpt lat="31.2993533" lon="-7.2239267"><ele>1850.0</ele><time>2026-04-25T11:19:15.401Z</time></trkpt><trkpt lat="31.2993583" lon="-7.2241733"><ele>1850.0</ele><time>2026-04-25T11:19:16.401Z</time></trkpt><trkpt lat="31.2993617" lon="-7.2244167"><ele>1848.6666666666665</ele><time>2026-04-25T11:19:17.401Z</time></trkpt><trkpt lat="31.299365" lon="-7.22466"><ele>1847.3333333333335</ele><time>2026-04-25T11:19:18.401Z</time></trkpt><trkpt lat="31.2993683" lon="-7.224905"><ele>1846.0</ele><time>2026-04-25T11:19:19.401Z</time></trkpt><trkpt lat="31.2993733" lon="-7.2251517"><ele>1845.3333333333335</ele><time>2026-04-25T11:19:20.401Z</time></trkpt><trkpt lat="31.299375" lon="-7.2254"><ele>1844.6666666666665</ele><time>2026-04-25T11:19:21.401Z</time></trkpt><trkpt lat="31.299365" lon="-7.2256467"><ele>1844.0</ele><time>2026-04-25T11:19:22.401Z</time></trkpt><trkpt lat="31.2993467" lon="-7.2258933"><ele>1843.3333333333333</ele><time>2026-04-25T11:19:23.401Z</time></trkpt><trkpt lat="31.2993183" lon="-7.2261383"><ele>1842.6666666666665</ele><time>2026-04-25T11:19:24.401Z</time></trkpt><trkpt lat="31.2992817" lon="-7.2263817"><ele>1842.0</ele><time>2026-04-25T11:19:25.401Z</time></trkpt><trkpt lat="31.2992367" lon="-7.2266217"><ele>1842.0</ele><time>2026-04-25T11:19:26.401Z</time></trkpt><trkpt lat="31.299185" lon="-7.2268567"><ele>1842.0</ele><time>2026-04-25T11:19:27.401Z</time></trkpt><trkpt lat="31.299125" lon="-7.2270917"><ele>1842.0</ele><time>2026-04-25T11:19:28.401Z</time></trkpt><trkpt lat="31.2990533" lon="-7.227325"><ele>1842.3333333333335</ele><time>2026-04-25T11:19:29.402Z</time></trkpt><trkpt lat="31.2989683" lon="-7.2275533"><ele>1842.6666666666667</ele><time>2026-04-25T11:19:30.401Z</time></trkpt><trkpt lat="31.298875" lon="-7.227775"><ele>1843.0</ele><time>2026-04-25T11:19:31.401Z</time></trkpt><trkpt lat="31.2987783" lon="-7.2279933"><ele>1842.6666666666667</ele><time>2026-04-25T11:19:32.401Z</time></trkpt><trkpt lat="31.2986767" lon="-7.228205"><ele>1842.3333333333335</ele><time>2026-04-25T11:19:33.402Z</time></trkpt><trkpt lat="31.2985633" lon="-7.2284033"><ele>1842.0</ele><time>2026-04-25T11:19:34.401Z</time></trkpt><trkpt lat="31.298435" lon="-7.2285917"><ele>1842.0</ele><time>2026-04-25T11:19:35.401Z</time></trkpt><trkpt lat="31.2983017" lon="-7.2287667"><ele>1842.0</ele><time>2026-04-25T11:19:36.401Z</time></trkpt><trkpt lat="31.2981717" lon="-7.2289483"><ele>1842.0</ele><time>2026-04-25T11:19:37.402Z</time></trkpt><trkpt lat="31.29803" lon="-7.229115"><ele>1841.0</ele><time>2026-04-25T11:19:38.401Z</time></trkpt><trkpt lat="31.29789" lon="-7.2292717"><ele>1840.0</ele><time>2026-04-25T11:19:39.401Z</time></trkpt><trkpt lat="31.2977433" lon="-7.2294183"><ele>1839.0</ele><time>2026-04-25T11:19:40.401Z</time></trkpt><trkpt lat="31.2975983" lon="-7.2295517"><ele>1839.0</ele><time>2026-04-25T11:19:41.401Z</time></trkpt><trkpt lat="31.2974517" lon="-7.22968"><ele>1839.0</ele><time>2026-04-25T11:19:42.401Z</time></trkpt><trkpt lat="31.29729" lon="-7.2297967"><ele>1839.0</ele><time>2026-04-25T11:19:43.401Z</time></trkpt><trkpt lat="31.2971283" lon="-7.2299117"><ele>1839.6666666666665</ele><time>2026-04-25T11:19:44.401Z</time></trkpt><trkpt lat="31.2969567" lon="-7.2300283"><ele>1840.3333333333333</ele><time>2026-04-25T11:19:45.401Z</time></trkpt><trkpt lat="31.2967833" lon="-7.23014"><ele>1841.0</ele><time>2026-04-25T11:19:46.401Z</time></trkpt><trkpt lat="31.2966067" lon="-7.23025"><ele>1841.0</ele><time>2026-04-25T11:19:47.401Z</time></trkpt><trkpt lat="31.296435" lon="-7.2303583"><ele>1841.0</ele><time>2026-04-25T11:19:48.402Z</time></trkpt><trkpt lat="31.2962667" lon="-7.2304717"><ele>1841.0</ele><time>2026-04-25T11:19:49.401Z</time></trkpt><trkpt lat="31.2961133" lon="-7.2305833"><ele>1841.6666666666665</ele><time>2026-04-25T11:19:50.401Z</time></trkpt><trkpt lat="31.29595" lon="-7.2306917"><ele>1842.3333333333335</ele><time>2026-04-25T11:19:51.401Z</time></trkpt><trkpt lat="31.2957883" lon="-7.2308033"><ele>1843.0</ele><time>2026-04-25T11:19:52.401Z</time></trkpt><trkpt lat="31.2956267" lon="-7.2309133"><ele>1842.0</ele><time>2026-04-25T11:19:53.401Z</time></trkpt><trkpt lat="31.29547" lon="-7.2310233"><ele>1841.0</ele><time>2026-04-25T11:19:54.401Z</time></trkpt><trkpt lat="31.2953217" lon="-7.2311383"><ele>1840.0</ele><time>2026-04-25T11:19:55.401Z</time></trkpt><trkpt lat="31.29517" lon="-7.2312583"><ele>1840.0</ele><time>2026-04-25T11:19:56.401Z</time></trkpt><trkpt lat="31.2950117" lon="-7.231385"><ele>1840.0</ele><time>2026-04-25T11:19:57.401Z</time></trkpt><trkpt lat="31.2948533" lon="-7.2315133"><ele>1840.0</ele><time>2026-04-25T11:19:58.401Z</time></trkpt><trkpt lat="31.2946933" lon="-7.231645"><ele>1839.6666666666667</ele><time>2026-04-25T11:19:59.401Z</time></trkpt><trkpt lat="31.2945433" lon="-7.2317767"><ele>1839.3333333333335</ele><time>2026-04-25T11:20:00.401Z</time></trkpt><trkpt lat="31.2943917" lon="-7.2319"><ele>1839.0</ele><time>2026-04-25T11:20:01.401Z</time></trkpt><trkpt lat="31.2942317" lon="-7.2320217"><ele>1839.0</ele><time>2026-04-25T11:20:02.401Z</time></trkpt><trkpt lat="31.2940717" lon="-7.2321433"><ele>1839.0</ele><time>2026-04-25T11:20:03.401Z</time></trkpt><trkpt lat="31.2939117" lon="-7.2322667"><ele>1839.0</ele><time>2026-04-25T11:20:04.401Z</time></trkpt><trkpt lat="31.2937483" lon="-7.232385"><ele>1837.0</ele><time>2026-04-25T11:20:05.401Z</time></trkpt><trkpt lat="31.2935817" lon="-7.2325133"><ele>1835.0</ele><time>2026-04-25T11:20:06.401Z</time></trkpt><trkpt lat="31.2934183" lon="-7.23265"><ele>1833.0</ele><time>2026-04-25T11:20:07.401Z</time></trkpt><trkpt lat="31.2932583" lon="-7.2327767"><ele>1833.0</ele><time>2026-04-25T11:20:08.401Z</time></trkpt><trkpt lat="31.2931067" lon="-7.2329017"><ele>1833.0</ele><time>2026-04-25T11:20:09.401Z</time></trkpt><trkpt lat="31.29296" lon="-7.2330267"><ele>1833.0</ele><time>2026-04-25T11:20:10.401Z</time></trkpt><trkpt lat="31.29281" lon="-7.2331517"><ele>1830.6666666666665</ele><time>2026-04-25T11:20:11.401Z</time></trkpt><trkpt lat="31.2926567" lon="-7.2332717"><ele>1828.3333333333333</ele><time>2026-04-25T11:20:12.401Z</time></trkpt><trkpt lat="31.2925067" lon="-7.2333917"><ele>1826.0</ele><time>2026-04-25T11:20:13.401Z</time></trkpt><trkpt lat="31.2923517" lon="-7.2335017"><ele>1823.3333333333333</ele><time>2026-04-25T11:20:14.401Z</time></trkpt><trkpt lat="31.2922017" lon="-7.233615"><ele>1820.6666666666665</ele><time>2026-04-25T11:20:15.401Z</time></trkpt><trkpt lat="31.2920567" lon="-7.233735"><ele>1818.0</ele><time>2026-04-25T11:20:16.401Z</time></trkpt><trkpt lat="31.2919167" lon="-7.2338633"><ele>1818.6666666666665</ele><time>2026-04-25T11:20:17.401Z</time></trkpt><trkpt lat="31.2917833" lon="-7.2339917"><ele>1819.3333333333333</ele><time>2026-04-25T11:20:18.401Z</time></trkpt><trkpt lat="31.29164" lon="-7.234115"><ele>1820.0</ele><time>2026-04-25T11:20:19.401Z</time></trkpt><trkpt lat="31.2914983" lon="-7.2342467"><ele>1817.0</ele><time>2026-04-25T11:20:20.401Z</time></trkpt><trkpt lat="31.291365" lon="-7.2343767"><ele>1814.0</ele><time>2026-04-25T11:20:21.401Z</time></trkpt><trkpt lat="31.2912317" lon="-7.2344967"><ele>1811.0</ele><time>2026-04-25T11:20:22.401Z</time></trkpt><trkpt lat="31.291105" lon="-7.23462"><ele>1811.0</ele><time>2026-04-25T11:20:23.401Z</time></trkpt><trkpt lat="31.2909817" lon="-7.2347433"><ele>1811.0</ele><time>2026-04-25T11:20:24.401Z</time></trkpt><trkpt lat="31.290865" lon="-7.2348633"><ele>1811.0</ele><time>2026-04-25T11:20:25.401Z</time></trkpt><trkpt lat="31.290745" lon="-7.23498"><ele>1810.25</ele><time>2026-04-25T11:20:26.401Z</time></trkpt><trkpt lat="31.2906317" lon="-7.2350933"><ele>1809.5</ele><time>2026-04-25T11:20:27.401Z</time></trkpt><trkpt lat="31.2905267" lon="-7.23521"><ele>1808.75</ele><time>2026-04-25T11:20:28.402Z</time></trkpt><trkpt lat="31.290415" lon="-7.23532"><ele>1808.0</ele><time>2026-04-25T11:20:29.401Z</time></trkpt><trkpt lat="31.29031" lon="-7.2354183"><ele>1807.0</ele><time>2026-04-25T11:20:30.401Z</time></trkpt><trkpt lat="31.29021" lon="-7.23552"><ele>1806.0</ele><time>2026-04-25T11:20:31.401Z</time></trkpt><trkpt lat="31.290125" lon="-7.235625"><ele>1805.0</ele><time>2026-04-25T11:20:32.401Z</time></trkpt><trkpt lat="31.2900583" lon="-7.2357433"><ele>1804.0</ele><time>2026-04-25T11:20:33.401Z</time></trkpt><trkpt lat="31.29001" lon="-7.2358667"><ele>1803.4</ele><time>2026-04-25T11:20:34.401Z</time></trkpt><trkpt lat="31.2899717" lon="-7.2359967"><ele>1802.8000000000002</ele><time>2026-04-25T11:20:35.401Z</time></trkpt><trkpt lat="31.2899467" lon="-7.2361233"><ele>1802.1999999999998</ele><time>2026-04-25T11:20:36.401Z</time></trkpt><trkpt lat="31.28993" lon="-7.2362467"><ele>1801.6</ele><time>2026-04-25T11:20:37.401Z</time></trkpt><trkpt lat="31.2899267" lon="-7.2363533"><ele>1801.0</ele><time>2026-04-25T11:20:38.401Z</time></trkpt><trkpt lat="31.28994" lon="-7.2364583"><ele>1800.5000000000002</ele><time>2026-04-25T11:20:39.401Z</time></trkpt><trkpt lat="31.289965" lon="-7.23654"><ele>1800.0</ele><time>2026-04-25T11:20:40.401Z</time></trkpt><trkpt lat="31.2900033" lon="-7.2366083"><ele>1799.5</ele><time>2026-04-25T11:20:41.401Z</time></trkpt><trkpt lat="31.290115" lon="-7.2366883"><ele>1799.0</ele><time>2026-04-25T11:20:43.401Z</time></trkpt><trkpt lat="31.2901967" lon="-7.2367033"><ele>1798.5000000000002</ele><time>2026-04-25T11:20:44.401Z</time></trkpt><trkpt lat="31.2902867" lon="-7.2367033"><ele>1798.0</ele><time>2026-04-25T11:20:45.401Z</time></trkpt><trkpt lat="31.2903667" lon="-7.2366983"><ele>1798.0000000000002</ele><time>2026-04-25T11:20:46.401Z</time></trkpt><trkpt lat="31.290445" lon="-7.23669"><ele>1798.0</ele><time>2026-04-25T11:20:47.401Z</time></trkpt><trkpt lat="31.29051" lon="-7.2366867"><ele>1798.0</ele><time>2026-04-25T11:20:48.401Z</time></trkpt><trkpt lat="31.2905767" lon="-7.23669"><ele>1798.0</ele><time>2026-04-25T11:20:49.401Z</time></trkpt><trkpt lat="31.2906933" lon="-7.2367017"><ele>1798.0000000000002</ele><time>2026-04-25T11:20:51.401Z</time></trkpt><trkpt lat="31.2908067" lon="-7.23673"><ele>1798.0</ele><time>2026-04-25T11:20:53.401Z</time></trkpt><trkpt lat="31.2909317" lon="-7.236765"><ele>1797.8000000000002</ele><time>2026-04-25T11:20:55.401Z</time></trkpt><trkpt lat="31.291015" lon="-7.2367833"><ele>1797.6000000000001</ele><time>2026-04-25T11:20:56.401Z</time></trkpt><trkpt lat="31.2911133" lon="-7.23681"><ele>1797.3999999999999</ele><time>2026-04-25T11:20:57.401Z</time></trkpt><trkpt lat="31.2912183" lon="-7.2368333"><ele>1797.1999999999998</ele><time>2026-04-25T11:20:58.401Z</time></trkpt><trkpt lat="31.2913183" lon="-7.2368717"><ele>1797.0</ele><time>2026-04-25T11:20:59.401Z</time></trkpt><trkpt lat="31.2914133" lon="-7.2369233"><ele>1796.3999999999999</ele><time>2026-04-25T11:21:00.401Z</time></trkpt><trkpt lat="31.291495" lon="-7.23699"><ele>1795.7999999999997</ele><time>2026-04-25T11:21:01.401Z</time></trkpt><trkpt lat="31.2915783" lon="-7.2370683"><ele>1795.2</ele><time>2026-04-25T11:21:02.401Z</time></trkpt><trkpt lat="31.2916433" lon="-7.2371633"><ele>1794.6</ele><time>2026-04-25T11:21:03.401Z</time></trkpt><trkpt lat="31.2917" lon="-7.2372867"><ele>1794.0</ele><time>2026-04-25T11:21:04.401Z</time></trkpt><trkpt lat="31.29175" lon="-7.2374183"><ele>1793.0</ele><time>2026-04-25T11:21:05.401Z</time></trkpt><trkpt lat="31.2917717" lon="-7.2375533"><ele>1792.0</ele><time>2026-04-25T11:21:06.401Z</time></trkpt><trkpt lat="31.2917683" lon="-7.2376817"><ele>1791.0</ele><time>2026-04-25T11:21:07.401Z</time></trkpt><trkpt lat="31.291735" lon="-7.2377983"><ele>1790.0</ele><time>2026-04-25T11:21:08.401Z</time></trkpt><trkpt lat="31.29167" lon="-7.2379117"><ele>1789.0</ele><time>2026-04-25T11:21:09.401Z</time></trkpt><trkpt lat="31.2915717" lon="-7.238"><ele>1789.0</ele><time>2026-04-25T11:21:10.401Z</time></trkpt><trkpt lat="31.2914667" lon="-7.2380833"><ele>1789.0</ele><time>2026-04-25T11:21:11.401Z</time></trkpt><trkpt lat="31.29136" lon="-7.2381417"><ele>1789.0</ele><time>2026-04-25T11:21:12.401Z</time></trkpt><trkpt lat="31.2912533" lon="-7.2381933"><ele>1789.0</ele><time>2026-04-25T11:21:13.401Z</time></trkpt><trkpt lat="31.2911517" lon="-7.238255"><ele>1788.75</ele><time>2026-04-25T11:21:14.402Z</time></trkpt><trkpt lat="31.2910683" lon="-7.23834"><ele>1788.5</ele><time>2026-04-25T11:21:15.401Z</time></trkpt><trkpt lat="31.2910033" lon="-7.2384617"><ele>1788.25</ele><time>2026-04-25T11:21:16.401Z</time></trkpt><trkpt lat="31.2909567" lon="-7.2386017"><ele>1788.0</ele><time>2026-04-25T11:21:17.401Z</time></trkpt><trkpt lat="31.290935" lon="-7.2387383"><ele>1788.0</ele><time>2026-04-25T11:21:18.401Z</time></trkpt><trkpt lat="31.2909233" lon="-7.2388767"><ele>1788.0</ele><time>2026-04-25T11:21:19.401Z</time></trkpt><trkpt lat="31.2909167" lon="-7.239015"><ele>1788.0</ele><time>2026-04-25T11:21:20.402Z</time></trkpt><trkpt lat="31.2909217" lon="-7.23917"><ele>1788.0</ele><time>2026-04-25T11:21:21.401Z</time></trkpt><trkpt lat="31.29092" lon="-7.2393117"><ele>1788.6000000000001</ele><time>2026-04-25T11:21:22.401Z</time></trkpt><trkpt lat="31.2909017" lon="-7.2394417"><ele>1789.2000000000003</ele><time>2026-04-25T11:21:23.401Z</time></trkpt><trkpt lat="31.2908833" lon="-7.2395633"><ele>1789.8</ele><time>2026-04-25T11:21:24.401Z</time></trkpt><trkpt lat="31.2908583" lon="-7.2396817"><ele>1790.4</ele><time>2026-04-25T11:21:25.401Z</time></trkpt><trkpt lat="31.29083" lon="-7.2397867"><ele>1791.0</ele><time>2026-04-25T11:21:26.401Z</time></trkpt><trkpt lat="31.2908" lon="-7.2398867"><ele>1791.0</ele><time>2026-04-25T11:21:27.401Z</time></trkpt><trkpt lat="31.290765" lon="-7.23998"><ele>1791.0</ele><time>2026-04-25T11:21:28.401Z</time></trkpt><trkpt lat="31.2907317" lon="-7.2400633"><ele>1791.0</ele><time>2026-04-25T11:21:29.401Z</time></trkpt><trkpt lat="31.2906917" lon="-7.2401433"><ele>1791.0</ele><time>2026-04-25T11:21:30.401Z</time></trkpt><trkpt lat="31.2906617" lon="-7.2402083"><ele>1791.0</ele><time>2026-04-25T11:21:31.401Z</time></trkpt><trkpt lat="31.2906183" lon="-7.24032"><ele>1791.0</ele><time>2026-04-25T11:21:33.401Z</time></trkpt><trkpt lat="31.2905783" lon="-7.2404333"><ele>1791.0</ele><time>2026-04-25T11:21:35.401Z</time></trkpt><trkpt lat="31.290535" lon="-7.2405233"><ele>1791.0</ele><time>2026-04-25T11:21:37.401Z</time></trkpt><trkpt lat="31.2904967" lon="-7.2406117"><ele>1791.0</ele><time>2026-04-25T11:21:39.401Z</time></trkpt><trkpt lat="31.2904683" lon="-7.2407017"><ele>1791.0</ele><time>2026-04-25T11:21:41.401Z</time></trkpt><trkpt lat="31.29043" lon="-7.2407683"><ele>1791.0</ele><time>2026-04-25T11:21:43.401Z</time></trkpt><trkpt lat="31.2903933" lon="-7.2408617"><ele>1791.0</ele><time>2026-04-25T11:21:45.401Z</time></trkpt><trkpt lat="31.290355" lon="-7.2409533"><ele>1791.5</ele><time>2026-04-25T11:21:47.401Z</time></trkpt><trkpt lat="31.2903183" lon="-7.2410383"><ele>1792.0</ele><time>2026-04-25T11:21:49.401Z</time></trkpt><trkpt lat="31.29029" lon="-7.2411167"><ele>1792.5</ele><time>2026-04-25T11:21:51.401Z</time></trkpt><trkpt lat="31.29027" lon="-7.2411933"><ele>1793.0</ele><time>2026-04-25T11:21:53.401Z</time></trkpt><trkpt lat="31.2902367" lon="-7.241275"><ele>1793.5</ele><time>2026-04-25T11:21:56.401Z</time></trkpt><trkpt lat="31.2901933" lon="-7.241365"><ele>1794.0</ele><time>2026-04-25T11:22:30.401Z</time></trkpt><trkpt lat="31.2901383" lon="-7.2414533"><ele>1793.2</ele><time>2026-04-25T11:22:32.401Z</time></trkpt><trkpt lat="31.2900433" lon="-7.2415333"><ele>1792.4</ele><time>2026-04-25T11:22:34.401Z</time></trkpt><trkpt lat="31.2899367" lon="-7.2415883"><ele>1791.6</ele><time>2026-04-25T11:22:36.401Z</time></trkpt><trkpt lat="31.2898183" lon="-7.2416367"><ele>1790.8</ele><time>2026-04-25T11:22:38.401Z</time></trkpt><trkpt lat="31.2897533" lon="-7.24166"><ele>1790.0</ele><time>2026-04-25T11:22:39.401Z</time></trkpt><trkpt lat="31.2896817" lon="-7.241685"><ele>1789.4999999999998</ele><time>2026-04-25T11:22:40.401Z</time></trkpt><trkpt lat="31.2896067" lon="-7.2417117"><ele>1789.0</ele><time>2026-04-25T11:22:41.401Z</time></trkpt><trkpt lat="31.289525" lon="-7.2417333"><ele>1788.5</ele><time>2026-04-25T11:22:42.401Z</time></trkpt><trkpt lat="31.2894483" lon="-7.2417633"><ele>1788.0</ele><time>2026-04-25T11:22:43.401Z</time></trkpt><trkpt lat="31.2893683" lon="-7.241805"><ele>1787.4999999999998</ele><time>2026-04-25T11:22:44.401Z</time></trkpt><trkpt lat="31.28928" lon="-7.24185"><ele>1787.0</ele><time>2026-04-25T11:22:45.401Z</time></trkpt><trkpt lat="31.2891967" lon="-7.2418917"><ele>1787.0</ele><time>2026-04-25T11:22:46.4Z</time></trkpt><trkpt lat="31.289115" lon="-7.24193"><ele>1786.9999999999998</ele><time>2026-04-25T11:22:47.4Z</time></trkpt><trkpt lat="31.28903" lon="-7.2419717"><ele>1786.9999999999998</ele><time>2026-04-25T11:22:48.401Z</time></trkpt><trkpt lat="31.2889433" lon="-7.2420133"><ele>1787.0</ele><time>2026-04-25T11:22:49.4Z</time></trkpt><trkpt lat="31.288865" lon="-7.2420567"><ele>1787.0</ele><time>2026-04-25T11:22:50.4Z</time></trkpt><trkpt lat="31.2887867" lon="-7.2421067"><ele>1786.6</ele><time>2026-04-25T11:22:51.4Z</time></trkpt><trkpt lat="31.2887083" lon="-7.24215"><ele>1786.1999999999998</ele><time>2026-04-25T11:22:52.4Z</time></trkpt><trkpt lat="31.2886317" lon="-7.242185"><ele>1785.8</ele><time>2026-04-25T11:22:53.4Z</time></trkpt><trkpt lat="31.2885517" lon="-7.242215"><ele>1785.4</ele><time>2026-04-25T11:22:54.4Z</time></trkpt><trkpt lat="31.2884617" lon="-7.2422367"><ele>1785.0</ele><time>2026-04-25T11:22:55.4Z</time></trkpt><trkpt lat="31.288355" lon="-7.2422533"><ele>1785.0</ele><time>2026-04-25T11:22:56.4Z</time></trkpt><trkpt lat="31.288235" lon="-7.2422567"><ele>1785.0</ele><time>2026-04-25T11:22:57.4Z</time></trkpt><trkpt lat="31.28811" lon="-7.2422517"><ele>1785.0</ele><time>2026-04-25T11:22:58.4Z</time></trkpt><trkpt lat="31.2879867" lon="-7.2422367"><ele>1785.0</ele><time>2026-04-25T11:22:59.401Z</time></trkpt><trkpt lat="31.2878667" lon="-7.2422233"><ele>1784.25</ele><time>2026-04-25T11:23:00.4Z</time></trkpt><trkpt lat="31.2877483" lon="-7.2422117"><ele>1783.5</ele><time>2026-04-25T11:23:01.4Z</time></trkpt><trkpt lat="31.28763" lon="-7.2422083"><ele>1782.75</ele><time>2026-04-25T11:23:02.4Z</time></trkpt><trkpt lat="31.28752" lon="-7.2422267"><ele>1782.0</ele><time>2026-04-25T11:23:03.4Z</time></trkpt><trkpt lat="31.2874133" lon="-7.2422767"><ele>1780.0</ele><time>2026-04-25T11:23:04.4Z</time></trkpt><trkpt lat="31.28731" lon="-7.2423417"><ele>1778.0</ele><time>2026-04-25T11:23:05.4Z</time></trkpt><trkpt lat="31.2871983" lon="-7.2424167"><ele>1776.0</ele><time>2026-04-25T11:23:06.4Z</time></trkpt><trkpt lat="31.2870883" lon="-7.2425"><ele>1774.0</ele><time>2026-04-25T11:23:07.4Z</time></trkpt><trkpt lat="31.286985" lon="-7.2425817"><ele>1773.5</ele><time>2026-04-25T11:23:08.4Z</time></trkpt><trkpt lat="31.2868717" lon="-7.2426567"><ele>1773.0</ele><time>2026-04-25T11:23:09.4Z</time></trkpt><trkpt lat="31.2867567" lon="-7.2427133"><ele>1772.5</ele><time>2026-04-25T11:23:10.4Z</time></trkpt><trkpt lat="31.286635" lon="-7.2427483"><ele>1772.0</ele><time>2026-04-25T11:23:11.4Z</time></trkpt><trkpt lat="31.28651" lon="-7.2427383"><ele>1770.0</ele><time>2026-04-25T11:23:12.4Z</time></trkpt><trkpt lat="31.2863833" lon="-7.2426933"><ele>1768.0</ele><time>2026-04-25T11:23:13.4Z</time></trkpt><trkpt lat="31.2862583" lon="-7.2426167"><ele>1766.0</ele><time>2026-04-25T11:23:14.4Z</time></trkpt><trkpt lat="31.2861333" lon="-7.2425333"><ele>1764.0</ele><time>2026-04-25T11:23:15.4Z</time></trkpt><trkpt lat="31.2860083" lon="-7.2424533"><ele>1764.0</ele><time>2026-04-25T11:23:16.4Z</time></trkpt><trkpt lat="31.28588" lon="-7.24239"><ele>1764.0</ele><time>2026-04-25T11:23:17.4Z</time></trkpt><trkpt lat="31.2857367" lon="-7.2423533"><ele>1764.0</ele><time>2026-04-25T11:23:18.4Z</time></trkpt><trkpt lat="31.2855867" lon="-7.2423233"><ele>1764.0</ele><time>2026-04-25T11:23:19.401Z</time></trkpt><trkpt lat="31.2854333" lon="-7.2423117"><ele>1763.6666666666665</ele><time>2026-04-25T11:23:20.4Z</time></trkpt><trkpt lat="31.2852817" lon="-7.2423233"><ele>1763.3333333333333</ele><time>2026-04-25T11:23:21.4Z</time></trkpt><trkpt lat="31.28513" lon="-7.2423617"><ele>1763.0</ele><time>2026-04-25T11:23:22.4Z</time></trkpt><trkpt lat="31.28497" lon="-7.2424283"><ele>1763.0</ele><time>2026-04-25T11:23:23.4Z</time></trkpt><trkpt lat="31.2848183" lon="-7.242515"><ele>1763.0</ele><time>2026-04-25T11:23:24.4Z</time></trkpt><trkpt lat="31.284685" lon="-7.24263"><ele>1763.0</ele><time>2026-04-25T11:23:25.4Z</time></trkpt><trkpt lat="31.284585" lon="-7.242765"><ele>1764.3333333333333</ele><time>2026-04-25T11:23:26.4Z</time></trkpt><trkpt lat="31.284505" lon="-7.2429217"><ele>1765.6666666666665</ele><time>2026-04-25T11:23:27.4Z</time></trkpt><trkpt lat="31.2844183" lon="-7.2430833"><ele>1767.0</ele><time>2026-04-25T11:23:28.4Z</time></trkpt><trkpt lat="31.2843117" lon="-7.243245"><ele>1764.3333333333335</ele><time>2026-04-25T11:23:29.4Z</time></trkpt><trkpt lat="31.2841983" lon="-7.24339"><ele>1761.6666666666667</ele><time>2026-04-25T11:23:30.4Z</time></trkpt><trkpt lat="31.2840683" lon="-7.2435167"><ele>1759.0</ele><time>2026-04-25T11:23:31.4Z</time></trkpt><trkpt lat="31.2839267" lon="-7.24364"><ele>1759.0</ele><time>2026-04-25T11:23:32.4Z</time></trkpt><trkpt lat="31.2837783" lon="-7.24376"><ele>1759.0</ele><time>2026-04-25T11:23:33.4Z</time></trkpt><trkpt lat="31.28363" lon="-7.2438817"><ele>1759.0</ele><time>2026-04-25T11:23:34.4Z</time></trkpt><trkpt lat="31.2834783" lon="-7.2440033"><ele>1756.3333333333335</ele><time>2026-04-25T11:23:35.4Z</time></trkpt><trkpt lat="31.2833267" lon="-7.24413"><ele>1753.6666666666665</ele><time>2026-04-25T11:23:36.4Z</time></trkpt><trkpt lat="31.28318" lon="-7.24426"><ele>1751.0</ele><time>2026-04-25T11:23:37.4Z</time></trkpt><trkpt lat="31.283035" lon="-7.2443917"><ele>1749.3333333333333</ele><time>2026-04-25T11:23:38.4Z</time></trkpt><trkpt lat="31.2828917" lon="-7.2445383"><ele>1747.6666666666665</ele><time>2026-04-25T11:23:39.4Z</time></trkpt><trkpt lat="31.28275" lon="-7.244685"><ele>1746.0</ele><time>2026-04-25T11:23:40.4Z</time></trkpt><trkpt lat="31.2826133" lon="-7.2448333"><ele>1745.0</ele><time>2026-04-25T11:23:41.4Z</time></trkpt><trkpt lat="31.2824817" lon="-7.2449767"><ele>1744.0</ele><time>2026-04-25T11:23:42.4Z</time></trkpt><trkpt lat="31.282365" lon="-7.24511"><ele>1743.0</ele><time>2026-04-25T11:23:43.4Z</time></trkpt><trkpt lat="31.2822483" lon="-7.2452383"><ele>1742.3333333333335</ele><time>2026-04-25T11:23:44.4Z</time></trkpt><trkpt lat="31.2821333" lon="-7.2453683"><ele>1741.6666666666667</ele><time>2026-04-25T11:23:45.4Z</time></trkpt><trkpt lat="31.2820133" lon="-7.24549"><ele>1741.0</ele><time>2026-04-25T11:23:46.4Z</time></trkpt><trkpt lat="31.2818967" lon="-7.2456167"><ele>1741.6666666666667</ele><time>2026-04-25T11:23:47.4Z</time></trkpt><trkpt lat="31.2817833" lon="-7.2457483"><ele>1742.3333333333335</ele><time>2026-04-25T11:23:48.401Z</time></trkpt><trkpt lat="31.2816833" lon="-7.2458833"><ele>1743.0</ele><time>2026-04-25T11:23:49.4Z</time></trkpt><trkpt lat="31.2815933" lon="-7.2460283"><ele>1743.0</ele><time>2026-04-25T11:23:50.4Z</time></trkpt><trkpt lat="31.2814933" lon="-7.24617"><ele>1743.0</ele><time>2026-04-25T11:23:51.4Z</time></trkpt><trkpt lat="31.2813933" lon="-7.2463167"><ele>1743.0</ele><time>2026-04-25T11:23:52.4Z</time></trkpt><trkpt lat="31.281295" lon="-7.2464617"><ele>1741.3333333333335</ele><time>2026-04-25T11:23:53.4Z</time></trkpt><trkpt lat="31.2811917" lon="-7.2466033"><ele>1739.6666666666667</ele><time>2026-04-25T11:23:54.4Z</time></trkpt><trkpt lat="31.2810867" lon="-7.2467433"><ele>1738.0</ele><time>2026-04-25T11:23:55.4Z</time></trkpt><trkpt lat="31.28099" lon="-7.2468817"><ele>1738.0</ele><time>2026-04-25T11:23:56.401Z</time></trkpt><trkpt lat="31.2808883" lon="-7.2470183"><ele>1738.0</ele><time>2026-04-25T11:23:57.4Z</time></trkpt><trkpt lat="31.28078" lon="-7.24715"><ele>1738.0</ele><time>2026-04-25T11:23:58.4Z</time></trkpt><trkpt lat="31.28066" lon="-7.247265"><ele>1739.0</ele><time>2026-04-25T11:23:59.4Z</time></trkpt><trkpt lat="31.280525" lon="-7.2473533"><ele>1740.0</ele><time>2026-04-25T11:24:00.4Z</time></trkpt><trkpt lat="31.280385" lon="-7.2474217"><ele>1741.0</ele><time>2026-04-25T11:24:01.4Z</time></trkpt><trkpt lat="31.2802467" lon="-7.2474683"><ele>1741.0</ele><time>2026-04-25T11:24:02.4Z</time></trkpt><trkpt lat="31.280095" lon="-7.247505"><ele>1741.0</ele><time>2026-04-25T11:24:03.4Z</time></trkpt><trkpt lat="31.2799467" lon="-7.2475417"><ele>1741.0</ele><time>2026-04-25T11:24:04.4Z</time></trkpt><trkpt lat="31.2797933" lon="-7.2475717"><ele>1741.0</ele><time>2026-04-25T11:24:05.4Z</time></trkpt><trkpt lat="31.2796383" lon="-7.2476"><ele>1741.0</ele><time>2026-04-25T11:24:06.4Z</time></trkpt><trkpt lat="31.27948" lon="-7.2476333"><ele>1741.0</ele><time>2026-04-25T11:24:07.4Z</time></trkpt><trkpt lat="31.2793233" lon="-7.2476617"><ele>1741.0</ele><time>2026-04-25T11:24:08.4Z</time></trkpt><trkpt lat="31.2791617" lon="-7.24769"><ele>1741.0</ele><time>2026-04-25T11:24:09.4Z</time></trkpt><trkpt lat="31.2789983" lon="-7.2477217"><ele>1741.0</ele><time>2026-04-25T11:24:10.4Z</time></trkpt><trkpt lat="31.2788383" lon="-7.2477567"><ele>1740.0</ele><time>2026-04-25T11:24:11.4Z</time></trkpt><trkpt lat="31.2786833" lon="-7.2477967"><ele>1739.0</ele><time>2026-04-25T11:24:12.4Z</time></trkpt><trkpt lat="31.2785283" lon="-7.2478533"><ele>1738.0</ele><time>2026-04-25T11:24:13.4Z</time></trkpt><trkpt lat="31.2783783" lon="-7.2479283"><ele>1738.0</ele><time>2026-04-25T11:24:14.4Z</time></trkpt><trkpt lat="31.278235" lon="-7.2480233"><ele>1738.0</ele><time>2026-04-25T11:24:15.4Z</time></trkpt><trkpt lat="31.2781017" lon="-7.2481467"><ele>1738.0</ele><time>2026-04-25T11:24:16.4Z</time></trkpt><trkpt lat="31.2779767" lon="-7.2482817"><ele>1736.6666666666667</ele><time>2026-04-25T11:24:17.401Z</time></trkpt><trkpt lat="31.2778567" lon="-7.2484283"><ele>1735.3333333333335</ele><time>2026-04-25T11:24:18.4Z</time></trkpt><trkpt lat="31.277745" lon="-7.248585"><ele>1734.0</ele><time>2026-04-25T11:24:19.4Z</time></trkpt><trkpt lat="31.2776183" lon="-7.2487417"><ele>1734.0</ele><time>2026-04-25T11:24:20.4Z</time></trkpt><trkpt lat="31.2774933" lon="-7.2489017"><ele>1734.0</ele><time>2026-04-25T11:24:21.4Z</time></trkpt><trkpt lat="31.2773717" lon="-7.2490683"><ele>1734.0</ele><time>2026-04-25T11:24:22.4Z</time></trkpt><trkpt lat="31.2772567" lon="-7.2492417"><ele>1731.6666666666665</ele><time>2026-04-25T11:24:23.4Z</time></trkpt><trkpt lat="31.2771417" lon="-7.2494217"><ele>1729.3333333333333</ele><time>2026-04-25T11:24:24.4Z</time></trkpt><trkpt lat="31.2770167" lon="-7.2495967"><ele>1727.0</ele><time>2026-04-25T11:24:25.4Z</time></trkpt><trkpt lat="31.2768867" lon="-7.24977"><ele>1727.0</ele><time>2026-04-25T11:24:26.4Z</time></trkpt><trkpt lat="31.2767517" lon="-7.2499233"><ele>1727.0</ele><time>2026-04-25T11:24:27.4Z</time></trkpt><trkpt lat="31.2766067" lon="-7.2500517"><ele>1727.0</ele><time>2026-04-25T11:24:28.4Z</time></trkpt><trkpt lat="31.2764483" lon="-7.250165"><ele>1726.3333333333333</ele><time>2026-04-25T11:24:29.4Z</time></trkpt><trkpt lat="31.2762867" lon="-7.25026"><ele>1725.6666666666665</ele><time>2026-04-25T11:24:30.4Z</time></trkpt><trkpt lat="31.27612" lon="-7.2503417"><ele>1725.0</ele><time>2026-04-25T11:24:31.4Z</time></trkpt><trkpt lat="31.275955" lon="-7.2504267"><ele>1725.0</ele><time>2026-04-25T11:24:32.4Z</time></trkpt><trkpt lat="31.275785" lon="-7.2505133"><ele>1725.0</ele><time>2026-04-25T11:24:33.4Z</time></trkpt><trkpt lat="31.2756217" lon="-7.2506017"><ele>1725.0</ele><time>2026-04-25T11:24:34.4Z</time></trkpt><trkpt lat="31.2754583" lon="-7.25069"><ele>1724.3333333333335</ele><time>2026-04-25T11:24:35.4Z</time></trkpt><trkpt lat="31.2752967" lon="-7.250785"><ele>1723.6666666666667</ele><time>2026-04-25T11:24:36.4Z</time></trkpt><trkpt lat="31.2751333" lon="-7.25088"><ele>1723.0</ele><time>2026-04-25T11:24:37.4Z</time></trkpt><trkpt lat="31.2749717" lon="-7.2509717"><ele>1723.0</ele><time>2026-04-25T11:24:38.4Z</time></trkpt><trkpt lat="31.2748117" lon="-7.25106"><ele>1723.0</ele><time>2026-04-25T11:24:39.4Z</time></trkpt><trkpt lat="31.27465" lon="-7.251145"><ele>1723.0</ele><time>2026-04-25T11:24:40.4Z</time></trkpt><trkpt lat="31.27449" lon="-7.2512317"><ele>1722.6666666666667</ele><time>2026-04-25T11:24:41.4Z</time></trkpt><trkpt lat="31.2743333" lon="-7.2513183"><ele>1722.3333333333335</ele><time>2026-04-25T11:24:42.4Z</time></trkpt><trkpt lat="31.2741733" lon="-7.2514033"><ele>1722.0</ele><time>2026-04-25T11:24:43.4Z</time></trkpt><trkpt lat="31.2740133" lon="-7.2514867"><ele>1721.6666666666665</ele><time>2026-04-25T11:24:44.4Z</time></trkpt><trkpt lat="31.273855" lon="-7.2515717"><ele>1721.3333333333333</ele><time>2026-04-25T11:24:45.4Z</time></trkpt><trkpt lat="31.2736967" lon="-7.2516583"><ele>1721.0</ele><time>2026-04-25T11:24:46.4Z</time></trkpt><trkpt lat="31.27354" lon="-7.2517433"><ele>1721.0</ele><time>2026-04-25T11:24:47.4Z</time></trkpt><trkpt lat="31.2733783" lon="-7.2518217"><ele>1721.0</ele><time>2026-04-25T11:24:48.4Z</time></trkpt><trkpt lat="31.2732167" lon="-7.2518933"><ele>1721.0</ele><time>2026-04-25T11:24:49.4Z</time></trkpt><trkpt lat="31.27305" lon="-7.25195"><ele>1720.3333333333333</ele><time>2026-04-25T11:24:50.4Z</time></trkpt><trkpt lat="31.2728783" lon="-7.2519867"><ele>1719.6666666666665</ele><time>2026-04-25T11:24:51.4Z</time></trkpt><trkpt lat="31.2727017" lon="-7.2520083"><ele>1719.0</ele><time>2026-04-25T11:24:52.4Z</time></trkpt><trkpt lat="31.2725267" lon="-7.2520217"><ele>1719.0</ele><time>2026-04-25T11:24:53.4Z</time></trkpt><trkpt lat="31.2723517" lon="-7.2520267"><ele>1719.0</ele><time>2026-04-25T11:24:54.4Z</time></trkpt><trkpt lat="31.2721783" lon="-7.25203"><ele>1719.0</ele><time>2026-04-25T11:24:55.4Z</time></trkpt><trkpt lat="31.27201" lon="-7.2520283"><ele>1718.6666666666665</ele><time>2026-04-25T11:24:56.4Z</time></trkpt><trkpt lat="31.2718483" lon="-7.2520483"><ele>1718.3333333333333</ele><time>2026-04-25T11:24:57.4Z</time></trkpt><trkpt lat="31.2716883" lon="-7.2521033"><ele>1718.0</ele><time>2026-04-25T11:24:58.4Z</time></trkpt><trkpt lat="31.271535" lon="-7.252185"><ele>1718.0</ele><time>2026-04-25T11:24:59.4Z</time></trkpt><trkpt lat="31.27139" lon="-7.2522767"><ele>1718.0</ele><time>2026-04-25T11:25:00.4Z</time></trkpt><trkpt lat="31.2712417" lon="-7.252375"><ele>1718.0</ele><time>2026-04-25T11:25:01.4Z</time></trkpt><trkpt lat="31.2710917" lon="-7.252465"><ele>1719.3333333333333</ele><time>2026-04-25T11:25:02.4Z</time></trkpt><trkpt lat="31.2709333" lon="-7.2525467"><ele>1720.6666666666665</ele><time>2026-04-25T11:25:03.4Z</time></trkpt><trkpt lat="31.2707717" lon="-7.2526067"><ele>1722.0</ele><time>2026-04-25T11:25:04.4Z</time></trkpt><trkpt lat="31.2706083" lon="-7.2526567"><ele>1719.6666666666665</ele><time>2026-04-25T11:25:05.4Z</time></trkpt><trkpt lat="31.2704383" lon="-7.2526967"><ele>1717.3333333333333</ele><time>2026-04-25T11:25:06.4Z</time></trkpt><trkpt lat="31.270265" lon="-7.2527317"><ele>1715.0</ele><time>2026-04-25T11:25:07.4Z</time></trkpt><trkpt lat="31.270095" lon="-7.2527667"><ele>1715.0</ele><time>2026-04-25T11:25:08.4Z</time></trkpt><trkpt lat="31.2699283" lon="-7.25279"><ele>1715.0</ele><time>2026-04-25T11:25:09.4Z</time></trkpt><trkpt lat="31.26977" lon="-7.252825"><ele>1715.0</ele><time>2026-04-25T11:25:10.4Z</time></trkpt><trkpt lat="31.2696167" lon="-7.25288"><ele>1715.25</ele><time>2026-04-25T11:25:11.4Z</time></trkpt><trkpt lat="31.2694883" lon="-7.2529583"><ele>1715.5</ele><time>2026-04-25T11:25:12.4Z</time></trkpt><trkpt lat="31.269375" lon="-7.2530617"><ele>1715.75</ele><time>2026-04-25T11:25:13.4Z</time></trkpt><trkpt lat="31.2692667" lon="-7.2531833"><ele>1716.0</ele><time>2026-04-25T11:25:14.4Z</time></trkpt><trkpt lat="31.269165" lon="-7.253315"><ele>1716.6666666666665</ele><time>2026-04-25T11:25:15.4Z</time></trkpt><trkpt lat="31.2690733" lon="-7.253455"><ele>1717.3333333333333</ele><time>2026-04-25T11:25:16.4Z</time></trkpt><trkpt lat="31.268975" lon="-7.2536"><ele>1718.0</ele><time>2026-04-25T11:25:17.4Z</time></trkpt><trkpt lat="31.2688733" lon="-7.2537383"><ele>1718.0</ele><time>2026-04-25T11:25:18.4Z</time></trkpt><trkpt lat="31.2687633" lon="-7.2538717"><ele>1718.0</ele><time>2026-04-25T11:25:19.4Z</time></trkpt><trkpt lat="31.2686583" lon="-7.254015"><ele>1718.0</ele><time>2026-04-25T11:25:20.4Z</time></trkpt><trkpt lat="31.2685683" lon="-7.2541617"><ele>1719.0</ele><time>2026-04-25T11:25:21.4Z</time></trkpt><trkpt lat="31.2684983" lon="-7.2543317"><ele>1720.0</ele><time>2026-04-25T11:25:22.4Z</time></trkpt><trkpt lat="31.2684483" lon="-7.25451"><ele>1721.0</ele><time>2026-04-25T11:25:23.4Z</time></trkpt><trkpt lat="31.2684" lon="-7.2546933"><ele>1721.6666666666665</ele><time>2026-04-25T11:25:24.4Z</time></trkpt><trkpt lat="31.2683533" lon="-7.2548833"><ele>1722.3333333333335</ele><time>2026-04-25T11:25:25.4Z</time></trkpt><trkpt lat="31.2683" lon="-7.2550733"><ele>1723.0</ele><time>2026-04-25T11:25:26.4Z</time></trkpt><trkpt lat="31.2682417" lon="-7.2552633"><ele>1723.0</ele><time>2026-04-25T11:25:27.401Z</time></trkpt><trkpt lat="31.2681617" lon="-7.2554567"><ele>1723.0</ele><time>2026-04-25T11:25:28.4Z</time></trkpt><trkpt lat="31.2680633" lon="-7.2556383"><ele>1723.0</ele><time>2026-04-25T11:25:29.4Z</time></trkpt><trkpt lat="31.2679567" lon="-7.255815"><ele>1722.0</ele><time>2026-04-25T11:25:30.4Z</time></trkpt><trkpt lat="31.2678533" lon="-7.2559883"><ele>1721.0</ele><time>2026-04-25T11:25:31.4Z</time></trkpt><trkpt lat="31.2677433" lon="-7.256155"><ele>1720.0</ele><time>2026-04-25T11:25:32.4Z</time></trkpt><trkpt lat="31.2676283" lon="-7.2563167"><ele>1721.0</ele><time>2026-04-25T11:25:33.4Z</time></trkpt><trkpt lat="31.2675167" lon="-7.2564733"><ele>1722.0</ele><time>2026-04-25T11:25:34.4Z</time></trkpt><trkpt lat="31.2674183" lon="-7.2566333"><ele>1723.0</ele><time>2026-04-25T11:25:35.4Z</time></trkpt><trkpt lat="31.2673217" lon="-7.256805"><ele>1718.6666666666667</ele><time>2026-04-25T11:25:36.4Z</time></trkpt><trkpt lat="31.267225" lon="-7.2569783"><ele>1714.3333333333335</ele><time>2026-04-25T11:25:37.4Z</time></trkpt><trkpt lat="31.2671333" lon="-7.2571533"><ele>1710.0</ele><time>2026-04-25T11:25:38.4Z</time></trkpt><trkpt lat="31.267065" lon="-7.2573333"><ele>1710.0</ele><time>2026-04-25T11:25:39.4Z</time></trkpt><trkpt lat="31.2670283" lon="-7.2575283"><ele>1710.0</ele><time>2026-04-25T11:25:40.4Z</time></trkpt><trkpt lat="31.26701" lon="-7.2577433"><ele>1710.0</ele><time>2026-04-25T11:25:41.4Z</time></trkpt><trkpt lat="31.2670267" lon="-7.2579617"><ele>1711.0</ele><time>2026-04-25T11:25:42.4Z</time></trkpt><trkpt lat="31.2670333" lon="-7.2581867"><ele>1712.0</ele><time>2026-04-25T11:25:43.4Z</time></trkpt><trkpt lat="31.26705" lon="-7.25842"><ele>1713.0</ele><time>2026-04-25T11:25:44.4Z</time></trkpt><trkpt lat="31.2670633" lon="-7.2586583"><ele>1713.0</ele><time>2026-04-25T11:25:45.4Z</time></trkpt><trkpt lat="31.2670783" lon="-7.2589017"><ele>1713.0</ele><time>2026-04-25T11:25:46.4Z</time></trkpt><trkpt lat="31.2670883" lon="-7.2591517"><ele>1713.0</ele><time>2026-04-25T11:25:47.4Z</time></trkpt><trkpt lat="31.2671" lon="-7.2593983"><ele>1713.6666666666665</ele><time>2026-04-25T11:25:48.4Z</time></trkpt><trkpt lat="31.2671067" lon="-7.25964"><ele>1714.3333333333333</ele><time>2026-04-25T11:25:49.4Z</time></trkpt><trkpt lat="31.267125" lon="-7.2598633"><ele>1715.0</ele><time>2026-04-25T11:25:50.4Z</time></trkpt><trkpt lat="31.2671517" lon="-7.2600883"><ele>1713.6666666666665</ele><time>2026-04-25T11:25:51.4Z</time></trkpt><trkpt lat="31.267185" lon="-7.2603083"><ele>1712.3333333333335</ele><time>2026-04-25T11:25:52.4Z</time></trkpt><trkpt lat="31.2672217" lon="-7.2605283"><ele>1711.0</ele><time>2026-04-25T11:25:53.4Z</time></trkpt><trkpt lat="31.267265" lon="-7.260745"><ele>1713.0</ele><time>2026-04-25T11:25:54.4Z</time></trkpt><trkpt lat="31.2673033" lon="-7.26097"><ele>1715.0</ele><time>2026-04-25T11:25:55.4Z</time></trkpt><trkpt lat="31.26735" lon="-7.2611933"><ele>1717.0</ele><time>2026-04-25T11:25:56.4Z</time></trkpt><trkpt lat="31.2673917" lon="-7.2614067"><ele>1716.0</ele><time>2026-04-25T11:25:57.4Z</time></trkpt><trkpt lat="31.2674317" lon="-7.2616183"><ele>1715.0</ele><time>2026-04-25T11:25:58.4Z</time></trkpt><trkpt lat="31.267475" lon="-7.2618317"><ele>1714.0</ele><time>2026-04-25T11:25:59.4Z</time></trkpt><trkpt lat="31.2675267" lon="-7.26204"><ele>1714.0</ele><time>2026-04-25T11:26:00.4Z</time></trkpt><trkpt lat="31.267575" lon="-7.2622467"><ele>1714.0</ele><time>2026-04-25T11:26:01.4Z</time></trkpt><trkpt lat="31.26762" lon="-7.2624533"><ele>1714.0</ele><time>2026-04-25T11:26:02.4Z</time></trkpt><trkpt lat="31.26766" lon="-7.2626633"><ele>1714.0</ele><time>2026-04-25T11:26:03.4Z</time></trkpt><trkpt lat="31.2676967" lon="-7.2628817"><ele>1714.0</ele><time>2026-04-25T11:26:04.4Z</time></trkpt><trkpt lat="31.2677283" lon="-7.2631033"><ele>1714.0</ele><time>2026-04-25T11:26:05.4Z</time></trkpt><trkpt lat="31.2677383" lon="-7.2633267"><ele>1715.3333333333335</ele><time>2026-04-25T11:26:06.4Z</time></trkpt><trkpt lat="31.26774" lon="-7.2635517"><ele>1716.6666666666665</ele><time>2026-04-25T11:26:07.4Z</time></trkpt><trkpt lat="31.26773" lon="-7.2637733"><ele>1718.0</ele><time>2026-04-25T11:26:08.4Z</time></trkpt><trkpt lat="31.2676983" lon="-7.263995"><ele>1720.6666666666665</ele><time>2026-04-25T11:26:09.4Z</time></trkpt><trkpt lat="31.2676567" lon="-7.2642167"><ele>1723.3333333333335</ele><time>2026-04-25T11:26:10.4Z</time></trkpt><trkpt lat="31.26762" lon="-7.2644433"><ele>1726.0</ele><time>2026-04-25T11:26:11.4Z</time></trkpt><trkpt lat="31.2675717" lon="-7.2646617"><ele>1728.0</ele><time>2026-04-25T11:26:12.4Z</time></trkpt><trkpt lat="31.26752" lon="-7.2648833"><ele>1730.0</ele><time>2026-04-25T11:26:13.4Z</time></trkpt><trkpt lat="31.2674683" lon="-7.2651017"><ele>1732.0</ele><time>2026-04-25T11:26:14.4Z</time></trkpt><trkpt lat="31.267425" lon="-7.26533"><ele>1732.0</ele><time>2026-04-25T11:26:15.4Z</time></trkpt><trkpt lat="31.26738" lon="-7.265545"><ele>1732.0</ele><time>2026-04-25T11:26:16.4Z</time></trkpt><trkpt lat="31.2673283" lon="-7.2657667"><ele>1732.0</ele><time>2026-04-25T11:26:17.4Z</time></trkpt><trkpt lat="31.2672817" lon="-7.2659833"><ele>1731.0</ele><time>2026-04-25T11:26:18.4Z</time></trkpt><trkpt lat="31.2672417" lon="-7.266205"><ele>1730.0</ele><time>2026-04-25T11:26:19.4Z</time></trkpt><trkpt lat="31.2672" lon="-7.2664267"><ele>1729.0</ele><time>2026-04-25T11:26:20.4Z</time></trkpt><trkpt lat="31.267165" lon="-7.26665"><ele>1728.6666666666667</ele><time>2026-04-25T11:26:21.4Z</time></trkpt><trkpt lat="31.2671433" lon="-7.2668783"><ele>1728.3333333333335</ele><time>2026-04-25T11:26:22.401Z</time></trkpt><trkpt lat="31.26712" lon="-7.2671117"><ele>1728.0</ele><time>2026-04-25T11:26:23.4Z</time></trkpt><trkpt lat="31.2670967" lon="-7.267345"><ele>1730.0</ele><time>2026-04-25T11:26:24.4Z</time></trkpt><trkpt lat="31.2670767" lon="-7.267575"><ele>1732.0</ele><time>2026-04-25T11:26:25.4Z</time></trkpt><trkpt lat="31.2670583" lon="-7.2678083"><ele>1734.0</ele><time>2026-04-25T11:26:26.4Z</time></trkpt><trkpt lat="31.2670417" lon="-7.2680467"><ele>1733.3333333333335</ele><time>2026-04-25T11:26:27.4Z</time></trkpt><trkpt lat="31.2670217" lon="-7.2682933"><ele>1732.6666666666667</ele><time>2026-04-25T11:26:28.4Z</time></trkpt><trkpt lat="31.2670017" lon="-7.2685317"><ele>1732.0</ele><time>2026-04-25T11:26:29.4Z</time></trkpt><trkpt lat="31.2669817" lon="-7.2687667"><ele>1730.0</ele><time>2026-04-25T11:26:30.4Z</time></trkpt><trkpt lat="31.2669567" lon="-7.2689883"><ele>1728.0</ele><time>2026-04-25T11:26:31.4Z</time></trkpt><trkpt lat="31.266935" lon="-7.2692033"><ele>1726.0</ele><time>2026-04-25T11:26:32.4Z</time></trkpt><trkpt lat="31.2669217" lon="-7.2694233"><ele>1726.0</ele><time>2026-04-25T11:26:33.4Z</time></trkpt><trkpt lat="31.2669017" lon="-7.269645"><ele>1726.0</ele><time>2026-04-25T11:26:34.4Z</time></trkpt><trkpt lat="31.266895" lon="-7.26987"><ele>1726.0</ele><time>2026-04-25T11:26:35.401Z</time></trkpt><trkpt lat="31.266895" lon="-7.2701"><ele>1726.0</ele><time>2026-04-25T11:26:36.4Z</time></trkpt><trkpt lat="31.2669" lon="-7.2703233"><ele>1726.0</ele><time>2026-04-25T11:26:37.4Z</time></trkpt><trkpt lat="31.2669" lon="-7.27054"><ele>1726.0</ele><time>2026-04-25T11:26:38.4Z</time></trkpt><trkpt lat="31.2668933" lon="-7.2707517"><ele>1725.0</ele><time>2026-04-25T11:26:39.4Z</time></trkpt><trkpt lat="31.2668933" lon="-7.2709583"><ele>1724.0</ele><time>2026-04-25T11:26:40.4Z</time></trkpt><trkpt lat="31.266895" lon="-7.2711667"><ele>1723.0</ele><time>2026-04-25T11:26:41.4Z</time></trkpt><trkpt lat="31.2668917" lon="-7.271375"><ele>1721.3333333333335</ele><time>2026-04-25T11:26:42.4Z</time></trkpt><trkpt lat="31.2668917" lon="-7.2715883"><ele>1719.6666666666665</ele><time>2026-04-25T11:26:43.401Z</time></trkpt><trkpt lat="31.2668933" lon="-7.2718017"><ele>1718.0</ele><time>2026-04-25T11:26:44.4Z</time></trkpt><trkpt lat="31.2668983" lon="-7.272015"><ele>1718.0</ele><time>2026-04-25T11:26:45.4Z</time></trkpt><trkpt lat="31.2669083" lon="-7.2722317"><ele>1718.0</ele><time>2026-04-25T11:26:46.4Z</time></trkpt><trkpt lat="31.266915" lon="-7.272445"><ele>1718.0</ele><time>2026-04-25T11:26:47.4Z</time></trkpt><trkpt lat="31.2669233" lon="-7.2726583"><ele>1718.0</ele><time>2026-04-25T11:26:48.4Z</time></trkpt><trkpt lat="31.2669283" lon="-7.2728683"><ele>1718.0</ele><time>2026-04-25T11:26:49.4Z</time></trkpt><trkpt lat="31.2669367" lon="-7.2730867"><ele>1718.0</ele><time>2026-04-25T11:26:50.4Z</time></trkpt><trkpt lat="31.2669417" lon="-7.2733067"><ele>1718.0</ele><time>2026-04-25T11:26:51.4Z</time></trkpt><trkpt lat="31.26695" lon="-7.2735267"><ele>1718.0</ele><time>2026-04-25T11:26:52.4Z</time></trkpt><trkpt lat="31.2669583" lon="-7.2737467"><ele>1718.0</ele><time>2026-04-25T11:26:53.4Z</time></trkpt><trkpt lat="31.2669683" lon="-7.2739717"><ele>1718.0</ele><time>2026-04-25T11:26:54.4Z</time></trkpt><trkpt lat="31.26698" lon="-7.2741933"><ele>1718.0</ele><time>2026-04-25T11:26:55.4Z</time></trkpt><trkpt lat="31.2669883" lon="-7.2744117"><ele>1718.0</ele><time>2026-04-25T11:26:56.4Z</time></trkpt><trkpt lat="31.2669983" lon="-7.274635"><ele>1717.3333333333333</ele><time>2026-04-25T11:26:57.4Z</time></trkpt><trkpt lat="31.267005" lon="-7.2748583"><ele>1716.6666666666665</ele><time>2026-04-25T11:26:58.4Z</time></trkpt><trkpt lat="31.2670117" lon="-7.2750817"><ele>1716.0</ele><time>2026-04-25T11:26:59.4Z</time></trkpt><trkpt lat="31.26702" lon="-7.2753083"><ele>1716.0</ele><time>2026-04-25T11:27:00.4Z</time></trkpt><trkpt lat="31.26703" lon="-7.275535"><ele>1716.0</ele><time>2026-04-25T11:27:01.4Z</time></trkpt><trkpt lat="31.267035" lon="-7.27576"><ele>1716.0</ele><time>2026-04-25T11:27:02.4Z</time></trkpt><trkpt lat="31.2670417" lon="-7.2759867"><ele>1714.6666666666665</ele><time>2026-04-25T11:27:03.4Z</time></trkpt><trkpt lat="31.2670467" lon="-7.276205"><ele>1713.3333333333333</ele><time>2026-04-25T11:27:04.4Z</time></trkpt><trkpt lat="31.2670467" lon="-7.2764167"><ele>1712.0</ele><time>2026-04-25T11:27:05.4Z</time></trkpt><trkpt lat="31.26704" lon="-7.276625"><ele>1712.0</ele><time>2026-04-25T11:27:06.4Z</time></trkpt><trkpt lat="31.2670217" lon="-7.276835"><ele>1712.0</ele><time>2026-04-25T11:27:07.4Z</time></trkpt><trkpt lat="31.2669967" lon="-7.2770467"><ele>1712.0</ele><time>2026-04-25T11:27:08.4Z</time></trkpt><trkpt lat="31.266965" lon="-7.277255"><ele>1712.3333333333333</ele><time>2026-04-25T11:27:09.4Z</time></trkpt><trkpt lat="31.2669233" lon="-7.277465"><ele>1712.6666666666665</ele><time>2026-04-25T11:27:10.4Z</time></trkpt><trkpt lat="31.2668717" lon="-7.2776767"><ele>1713.0</ele><time>2026-04-25T11:27:11.4Z</time></trkpt><trkpt lat="31.2668133" lon="-7.2778833"><ele>1713.0</ele><time>2026-04-25T11:27:12.4Z</time></trkpt><trkpt lat="31.2667383" lon="-7.2780933"><ele>1713.0</ele><time>2026-04-25T11:27:13.4Z</time></trkpt><trkpt lat="31.2666533" lon="-7.278305"><ele>1713.0</ele><time>2026-04-25T11:27:14.4Z</time></trkpt><trkpt lat="31.266565" lon="-7.2785217"><ele>1713.6666666666665</ele><time>2026-04-25T11:27:15.4Z</time></trkpt><trkpt lat="31.26648" lon="-7.27874"><ele>1714.3333333333333</ele><time>2026-04-25T11:27:16.4Z</time></trkpt><trkpt lat="31.2663833" lon="-7.2789517"><ele>1715.0</ele><time>2026-04-25T11:27:17.4Z</time></trkpt><trkpt lat="31.26629" lon="-7.2791533"><ele>1712.0</ele><time>2026-04-25T11:27:18.4Z</time></trkpt><trkpt lat="31.266195" lon="-7.2793517"><ele>1709.0</ele><time>2026-04-25T11:27:19.4Z</time></trkpt><trkpt lat="31.2660867" lon="-7.2795283"><ele>1706.0</ele><time>2026-04-25T11:27:20.4Z</time></trkpt><trkpt lat="31.2659733" lon="-7.2797067"><ele>1708.0</ele><time>2026-04-25T11:27:21.4Z</time></trkpt><trkpt lat="31.2658667" lon="-7.2798833"><ele>1710.0</ele><time>2026-04-25T11:27:22.401Z</time></trkpt><trkpt lat="31.2657667" lon="-7.280055"><ele>1712.0</ele><time>2026-04-25T11:27:23.4Z</time></trkpt><trkpt lat="31.2656683" lon="-7.2802317"><ele>1712.0</ele><time>2026-04-25T11:27:24.4Z</time></trkpt><trkpt lat="31.2655717" lon="-7.2804067"><ele>1712.0</ele><time>2026-04-25T11:27:25.401Z</time></trkpt><trkpt lat="31.26547" lon="-7.2805767"><ele>1712.0</ele><time>2026-04-25T11:27:26.4Z</time></trkpt><trkpt lat="31.2653833" lon="-7.2807583"><ele>1712.0</ele><time>2026-04-25T11:27:27.4Z</time></trkpt><trkpt lat="31.2653083" lon="-7.2809383"><ele>1712.0</ele><time>2026-04-25T11:27:28.4Z</time></trkpt><trkpt lat="31.2652533" lon="-7.281135"><ele>1712.0</ele><time>2026-04-25T11:27:29.4Z</time></trkpt><trkpt lat="31.2652117" lon="-7.2813467"><ele>1713.0</ele><time>2026-04-25T11:27:30.4Z</time></trkpt><trkpt lat="31.2651767" lon="-7.2815667"><ele>1714.0</ele><time>2026-04-25T11:27:31.4Z</time></trkpt><trkpt lat="31.265155" lon="-7.2817933"><ele>1715.0</ele><time>2026-04-25T11:27:32.4Z</time></trkpt><trkpt lat="31.2651417" lon="-7.2820333"><ele>1714.6666666666665</ele><time>2026-04-25T11:27:33.401Z</time></trkpt><trkpt lat="31.2651367" lon="-7.28227"><ele>1714.3333333333335</ele><time>2026-04-25T11:27:34.4Z</time></trkpt><trkpt lat="31.26514" lon="-7.2825"><ele>1714.0</ele><time>2026-04-25T11:27:35.4Z</time></trkpt><trkpt lat="31.2651533" lon="-7.2827217"><ele>1714.0</ele><time>2026-04-25T11:27:36.4Z</time></trkpt><trkpt lat="31.2651833" lon="-7.2829367"><ele>1714.0</ele><time>2026-04-25T11:27:37.4Z</time></trkpt><trkpt lat="31.26521" lon="-7.2831567"><ele>1714.0</ele><time>2026-04-25T11:27:38.4Z</time></trkpt><trkpt lat="31.26524" lon="-7.283375"><ele>1714.0</ele><time>2026-04-25T11:27:39.4Z</time></trkpt><trkpt lat="31.2652733" lon="-7.2835867"><ele>1714.0</ele><time>2026-04-25T11:27:40.4Z</time></trkpt><trkpt lat="31.2653017" lon="-7.2838017"><ele>1714.0</ele><time>2026-04-25T11:27:41.4Z</time></trkpt><trkpt lat="31.2653317" lon="-7.284015"><ele>1715.3333333333335</ele><time>2026-04-25T11:27:42.4Z</time></trkpt><trkpt lat="31.2653617" lon="-7.2842233"><ele>1716.6666666666665</ele><time>2026-04-25T11:27:43.4Z</time></trkpt><trkpt lat="31.26539" lon="-7.284435"><ele>1718.0</ele><time>2026-04-25T11:27:44.4Z</time></trkpt><trkpt lat="31.26542" lon="-7.2846433"><ele>1717.6666666666665</ele><time>2026-04-25T11:27:45.4Z</time></trkpt><trkpt lat="31.26545" lon="-7.28485"><ele>1717.3333333333335</ele><time>2026-04-25T11:27:46.4Z</time></trkpt><trkpt lat="31.2654783" lon="-7.28506"><ele>1717.0</ele><time>2026-04-25T11:27:47.4Z</time></trkpt><trkpt lat="31.2655017" lon="-7.28527"><ele>1717.0</ele><time>2026-04-25T11:27:48.4Z</time></trkpt><trkpt lat="31.2655183" lon="-7.2854783"><ele>1717.0</ele><time>2026-04-25T11:27:49.4Z</time></trkpt><trkpt lat="31.26552" lon="-7.2856867"><ele>1717.0</ele><time>2026-04-25T11:27:50.4Z</time></trkpt><trkpt lat="31.2655067" lon="-7.285885"><ele>1718.6666666666667</ele><time>2026-04-25T11:27:51.4Z</time></trkpt><trkpt lat="31.2654733" lon="-7.2860767"><ele>1720.3333333333335</ele><time>2026-04-25T11:27:52.4Z</time></trkpt><trkpt lat="31.26542" lon="-7.2862567"><ele>1722.0</ele><time>2026-04-25T11:27:53.4Z</time></trkpt><trkpt lat="31.265355" lon="-7.286435"><ele>1724.6666666666665</ele><time>2026-04-25T11:27:54.4Z</time></trkpt><trkpt lat="31.2652933" lon="-7.2866117"><ele>1727.3333333333333</ele><time>2026-04-25T11:27:55.4Z</time></trkpt><trkpt lat="31.26524" lon="-7.2867883"><ele>1730.0</ele><time>2026-04-25T11:27:56.4Z</time></trkpt><trkpt lat="31.2652033" lon="-7.2869633"><ele>1730.0</ele><time>2026-04-25T11:27:57.4Z</time></trkpt><trkpt lat="31.2651817" lon="-7.2871367"><ele>1730.0</ele><time>2026-04-25T11:27:58.4Z</time></trkpt><trkpt lat="31.2651667" lon="-7.2873067"><ele>1730.0</ele><time>2026-04-25T11:27:59.4Z</time></trkpt><trkpt lat="31.2651733" lon="-7.2874667"><ele>1730.0</ele><time>2026-04-25T11:28:00.4Z</time></trkpt><trkpt lat="31.2652067" lon="-7.2876217"><ele>1730.75</ele><time>2026-04-25T11:28:01.4Z</time></trkpt><trkpt lat="31.2652667" lon="-7.2877683"><ele>1731.5</ele><time>2026-04-25T11:28:02.4Z</time></trkpt><trkpt lat="31.2653417" lon="-7.2879033"><ele>1732.25</ele><time>2026-04-25T11:28:03.4Z</time></trkpt><trkpt lat="31.2654317" lon="-7.2880283"><ele>1733.0</ele><time>2026-04-25T11:28:04.4Z</time></trkpt><trkpt lat="31.265535" lon="-7.2881433"><ele>1736.25</ele><time>2026-04-25T11:28:05.4Z</time></trkpt><trkpt lat="31.2656367" lon="-7.2882433"><ele>1739.5</ele><time>2026-04-25T11:28:06.4Z</time></trkpt><trkpt lat="31.2657533" lon="-7.288335"><ele>1742.75</ele><time>2026-04-25T11:28:07.4Z</time></trkpt><trkpt lat="31.265885" lon="-7.28843"><ele>1746.0</ele><time>2026-04-25T11:28:08.4Z</time></trkpt><trkpt lat="31.26602" lon="-7.2885417"><ele>1746.0</ele><time>2026-04-25T11:28:09.4Z</time></trkpt><trkpt lat="31.2661433" lon="-7.2886717"><ele>1746.0</ele><time>2026-04-25T11:28:10.4Z</time></trkpt><trkpt lat="31.2662533" lon="-7.2888267"><ele>1746.0</ele><time>2026-04-25T11:28:11.4Z</time></trkpt><trkpt lat="31.2663483" lon="-7.289005"><ele>1744.3333333333335</ele><time>2026-04-25T11:28:12.4Z</time></trkpt><trkpt lat="31.2664367" lon="-7.2891917"><ele>1742.6666666666667</ele><time>2026-04-25T11:28:13.4Z</time></trkpt><trkpt lat="31.2665117" lon="-7.2893683"><ele>1741.0</ele><time>2026-04-25T11:28:14.4Z</time></trkpt><trkpt lat="31.2665817" lon="-7.28955"><ele>1742.6666666666667</ele><time>2026-04-25T11:28:15.4Z</time></trkpt><trkpt lat="31.2666417" lon="-7.2897433"><ele>1744.3333333333335</ele><time>2026-04-25T11:28:16.4Z</time></trkpt><trkpt lat="31.2666933" lon="-7.28994"><ele>1746.0</ele><time>2026-04-25T11:28:17.4Z</time></trkpt><trkpt lat="31.2667317" lon="-7.2901467"><ele>1746.0</ele><time>2026-04-25T11:28:18.4Z</time></trkpt><trkpt lat="31.2667567" lon="-7.290355"><ele>1746.0</ele><time>2026-04-25T11:28:19.4Z</time></trkpt><trkpt lat="31.2667817" lon="-7.2905567"><ele>1746.0</ele><time>2026-04-25T11:28:20.4Z</time></trkpt><trkpt lat="31.2668133" lon="-7.2907317"><ele>1745.75</ele><time>2026-04-25T11:28:21.4Z</time></trkpt><trkpt lat="31.2668733" lon="-7.29089"><ele>1745.5</ele><time>2026-04-25T11:28:22.4Z</time></trkpt><trkpt lat="31.266955" lon="-7.29103"><ele>1745.25</ele><time>2026-04-25T11:28:23.4Z</time></trkpt><trkpt lat="31.26706" lon="-7.2911633"><ele>1745.0</ele><time>2026-04-25T11:28:24.4Z</time></trkpt><trkpt lat="31.2671783" lon="-7.291295"><ele>1747.0</ele><time>2026-04-25T11:28:25.4Z</time></trkpt><trkpt lat="31.2672817" lon="-7.291435"><ele>1749.0</ele><time>2026-04-25T11:28:26.4Z</time></trkpt><trkpt lat="31.267375" lon="-7.2916017"><ele>1751.0</ele><time>2026-04-25T11:28:27.4Z</time></trkpt><trkpt lat="31.2674283" lon="-7.29179"><ele>1751.0</ele><time>2026-04-25T11:28:28.4Z</time></trkpt><trkpt lat="31.2674917" lon="-7.2919817"><ele>1751.0</ele><time>2026-04-25T11:28:29.4Z</time></trkpt><trkpt lat="31.2675683" lon="-7.2921533"><ele>1751.0</ele><time>2026-04-25T11:28:30.4Z</time></trkpt><trkpt lat="31.26767" lon="-7.29229"><ele>1750.0</ele><time>2026-04-25T11:28:31.4Z</time></trkpt><trkpt lat="31.26779" lon="-7.29241"><ele>1749.0</ele><time>2026-04-25T11:28:32.4Z</time></trkpt><trkpt lat="31.2679333" lon="-7.2924967"><ele>1748.0</ele><time>2026-04-25T11:28:33.4Z</time></trkpt><trkpt lat="31.2680767" lon="-7.29259"><ele>1750.6666666666665</ele><time>2026-04-25T11:28:34.4Z</time></trkpt><trkpt lat="31.2682" lon="-7.2927133"><ele>1753.3333333333335</ele><time>2026-04-25T11:28:35.4Z</time></trkpt><trkpt lat="31.268305" lon="-7.2928733"><ele>1756.0</ele><time>2026-04-25T11:28:36.401Z</time></trkpt><trkpt lat="31.2683933" lon="-7.2930517"><ele>1754.6666666666667</ele><time>2026-04-25T11:28:37.4Z</time></trkpt><trkpt lat="31.2684833" lon="-7.2932283"><ele>1753.3333333333335</ele><time>2026-04-25T11:28:38.4Z</time></trkpt><trkpt lat="31.2685767" lon="-7.2934033"><ele>1752.0</ele><time>2026-04-25T11:28:39.4Z</time></trkpt><trkpt lat="31.268675" lon="-7.293565"><ele>1752.0</ele><time>2026-04-25T11:28:40.4Z</time></trkpt><trkpt lat="31.2687833" lon="-7.29371"><ele>1752.0</ele><time>2026-04-25T11:28:41.4Z</time></trkpt><trkpt lat="31.26891" lon="-7.293835"><ele>1752.0</ele><time>2026-04-25T11:28:42.4Z</time></trkpt><trkpt lat="31.26906" lon="-7.2939383"><ele>1755.6666666666665</ele><time>2026-04-25T11:28:43.4Z</time></trkpt><trkpt lat="31.269235" lon="-7.29402"><ele>1759.3333333333333</ele><time>2026-04-25T11:28:44.4Z</time></trkpt><trkpt lat="31.2694067" lon="-7.29408"><ele>1763.0</ele><time>2026-04-25T11:28:45.4Z</time></trkpt><trkpt lat="31.2695767" lon="-7.29412"><ele>1763.0</ele><time>2026-04-25T11:28:46.4Z</time></trkpt><trkpt lat="31.2697367" lon="-7.294175"><ele>1763.0</ele><time>2026-04-25T11:28:47.4Z</time></trkpt><trkpt lat="31.2698667" lon="-7.2942633"><ele>1763.0</ele><time>2026-04-25T11:28:48.4Z</time></trkpt><trkpt lat="31.2699717" lon="-7.29439"><ele>1764.6666666666665</ele><time>2026-04-25T11:28:49.4Z</time></trkpt><trkpt lat="31.2700583" lon="-7.2945533"><ele>1766.3333333333335</ele><time>2026-04-25T11:28:50.4Z</time></trkpt><trkpt lat="31.2701217" lon="-7.2947283"><ele>1768.0</ele><time>2026-04-25T11:28:51.4Z</time></trkpt><trkpt lat="31.2701667" lon="-7.2949217"><ele>1768.3333333333335</ele><time>2026-04-25T11:28:52.4Z</time></trkpt><trkpt lat="31.2701933" lon="-7.2951133"><ele>1768.6666666666665</ele><time>2026-04-25T11:28:53.4Z</time></trkpt><trkpt lat="31.2702117" lon="-7.29532"><ele>1769.0</ele><time>2026-04-25T11:28:54.4Z</time></trkpt><trkpt lat="31.2702383" lon="-7.2955267"><ele>1770.6666666666665</ele><time>2026-04-25T11:28:55.4Z</time></trkpt><trkpt lat="31.2702667" lon="-7.295735"><ele>1772.3333333333335</ele><time>2026-04-25T11:28:56.4Z</time></trkpt><trkpt lat="31.2702967" lon="-7.295945"><ele>1774.0</ele><time>2026-04-25T11:28:57.4Z</time></trkpt><trkpt lat="31.2703267" lon="-7.296165"><ele>1774.0</ele><time>2026-04-25T11:28:58.4Z</time></trkpt><trkpt lat="31.270355" lon="-7.2963917"><ele>1774.0</ele><time>2026-04-25T11:28:59.4Z</time></trkpt><trkpt lat="31.2703717" lon="-7.2966117"><ele>1774.0</ele><time>2026-04-25T11:29:00.4Z</time></trkpt><trkpt lat="31.2703583" lon="-7.29681"><ele>1775.0</ele><time>2026-04-25T11:29:01.4Z</time></trkpt><trkpt lat="31.270335" lon="-7.2969933"><ele>1776.0</ele><time>2026-04-25T11:29:02.4Z</time></trkpt><trkpt lat="31.2702983" lon="-7.29717"><ele>1777.0</ele><time>2026-04-25T11:29:03.4Z</time></trkpt><trkpt lat="31.270255" lon="-7.2973467"><ele>1779.0</ele><time>2026-04-25T11:29:04.4Z</time></trkpt><trkpt lat="31.270195" lon="-7.2975233"><ele>1781.0</ele><time>2026-04-25T11:29:05.4Z</time></trkpt><trkpt lat="31.2701233" lon="-7.2976917"><ele>1783.0</ele><time>2026-04-25T11:29:06.4Z</time></trkpt><trkpt lat="31.270025" lon="-7.29785"><ele>1783.0</ele><time>2026-04-25T11:29:07.4Z</time></trkpt><trkpt lat="31.269895" lon="-7.29799"><ele>1783.0</ele><time>2026-04-25T11:29:08.4Z</time></trkpt><trkpt lat="31.26976" lon="-7.2981133"><ele>1783.0</ele><time>2026-04-25T11:29:09.4Z</time></trkpt><trkpt lat="31.2696383" lon="-7.298235"><ele>1785.6666666666667</ele><time>2026-04-25T11:29:10.4Z</time></trkpt><trkpt lat="31.2695183" lon="-7.2983567"><ele>1788.3333333333335</ele><time>2026-04-25T11:29:11.401Z</time></trkpt><trkpt lat="31.269415" lon="-7.2984967"><ele>1791.0</ele><time>2026-04-25T11:29:12.4Z</time></trkpt><trkpt lat="31.26932" lon="-7.2986483"><ele>1791.0</ele><time>2026-04-25T11:29:13.4Z</time></trkpt><trkpt lat="31.269245" lon="-7.2988283"><ele>1791.0</ele><time>2026-04-25T11:29:14.4Z</time></trkpt><trkpt lat="31.269185" lon="-7.29903"><ele>1791.0</ele><time>2026-04-25T11:29:15.4Z</time></trkpt><trkpt lat="31.2691317" lon="-7.29924"><ele>1791.0</ele><time>2026-04-25T11:29:16.4Z</time></trkpt><trkpt lat="31.26908" lon="-7.2994517"><ele>1791.0</ele><time>2026-04-25T11:29:17.4Z</time></trkpt><trkpt lat="31.2690367" lon="-7.2996617"><ele>1791.0</ele><time>2026-04-25T11:29:18.401Z</time></trkpt><trkpt lat="31.26899" lon="-7.29987"><ele>1792.0</ele><time>2026-04-25T11:29:19.4Z</time></trkpt><trkpt lat="31.2689483" lon="-7.3000767"><ele>1793.0</ele><time>2026-04-25T11:29:20.401Z</time></trkpt><trkpt lat="31.2689033" lon="-7.3002833"><ele>1794.0</ele><time>2026-04-25T11:29:21.401Z</time></trkpt><trkpt lat="31.2688583" lon="-7.3004883"><ele>1797.3333333333335</ele><time>2026-04-25T11:29:22.4Z</time></trkpt><trkpt lat="31.2688183" lon="-7.3006967"><ele>1800.6666666666667</ele><time>2026-04-25T11:29:23.4Z</time></trkpt><trkpt lat="31.2687717" lon="-7.3009033"><ele>1804.0</ele><time>2026-04-25T11:29:24.4Z</time></trkpt><trkpt lat="31.2687283" lon="-7.3011067"><ele>1804.0</ele><time>2026-04-25T11:29:25.4Z</time></trkpt><trkpt lat="31.268685" lon="-7.3013067"><ele>1804.0</ele><time>2026-04-25T11:29:26.4Z</time></trkpt><trkpt lat="31.2686433" lon="-7.3015067"><ele>1804.0</ele><time>2026-04-25T11:29:27.4Z</time></trkpt><trkpt lat="31.2686083" lon="-7.3017017"><ele>1806.6666666666667</ele><time>2026-04-25T11:29:28.4Z</time></trkpt><trkpt lat="31.268565" lon="-7.301885"><ele>1809.3333333333335</ele><time>2026-04-25T11:29:29.4Z</time></trkpt><trkpt lat="31.2685283" lon="-7.3020683"><ele>1812.0</ele><time>2026-04-25T11:29:30.4Z</time></trkpt><trkpt lat="31.2684917" lon="-7.30225"><ele>1812.3333333333335</ele><time>2026-04-25T11:29:31.4Z</time></trkpt><trkpt lat="31.2684617" lon="-7.30243"><ele>1812.6666666666667</ele><time>2026-04-25T11:29:32.4Z</time></trkpt><trkpt lat="31.2684317" lon="-7.3026167"><ele>1813.0</ele><time>2026-04-25T11:29:33.4Z</time></trkpt><trkpt lat="31.2684117" lon="-7.3028167"><ele>1813.0</ele><time>2026-04-25T11:29:34.4Z</time></trkpt><trkpt lat="31.2684017" lon="-7.3030217"><ele>1813.0</ele><time>2026-04-25T11:29:35.4Z</time></trkpt><trkpt lat="31.268395" lon="-7.30323"><ele>1813.0</ele><time>2026-04-25T11:29:36.4Z</time></trkpt><trkpt lat="31.268395" lon="-7.3034433"><ele>1814.3333333333335</ele><time>2026-04-25T11:29:37.4Z</time></trkpt><trkpt lat="31.2684017" lon="-7.3036533"><ele>1815.6666666666665</ele><time>2026-04-25T11:29:38.4Z</time></trkpt><trkpt lat="31.2684133" lon="-7.3038733"><ele>1817.0</ele><time>2026-04-25T11:29:39.4Z</time></trkpt><trkpt lat="31.2684317" lon="-7.3040983"><ele>1819.6666666666665</ele><time>2026-04-25T11:29:40.4Z</time></trkpt><trkpt lat="31.2684533" lon="-7.3043267"><ele>1822.3333333333335</ele><time>2026-04-25T11:29:41.4Z</time></trkpt><trkpt lat="31.2684717" lon="-7.3045567"><ele>1825.0</ele><time>2026-04-25T11:29:42.4Z</time></trkpt><trkpt lat="31.2684883" lon="-7.30479"><ele>1826.3333333333335</ele><time>2026-04-25T11:29:43.4Z</time></trkpt><trkpt lat="31.2685" lon="-7.3050317"><ele>1827.6666666666665</ele><time>2026-04-25T11:29:44.4Z</time></trkpt><trkpt lat="31.2685133" lon="-7.3052717"><ele>1829.0</ele><time>2026-04-25T11:29:45.4Z</time></trkpt><trkpt lat="31.2685167" lon="-7.3055117"><ele>1831.6666666666665</ele><time>2026-04-25T11:29:46.401Z</time></trkpt><trkpt lat="31.2685233" lon="-7.3057483"><ele>1834.3333333333335</ele><time>2026-04-25T11:29:47.4Z</time></trkpt><trkpt lat="31.26851" lon="-7.3059833"><ele>1837.0</ele><time>2026-04-25T11:29:48.4Z</time></trkpt><trkpt lat="31.2684667" lon="-7.3062167"><ele>1838.6666666666667</ele><time>2026-04-25T11:29:49.4Z</time></trkpt><trkpt lat="31.268395" lon="-7.306445"><ele>1840.3333333333335</ele><time>2026-04-25T11:29:50.4Z</time></trkpt><trkpt lat="31.2683083" lon="-7.306665"><ele>1842.0</ele><time>2026-04-25T11:29:51.4Z</time></trkpt><trkpt lat="31.26821" lon="-7.3068833"><ele>1842.0</ele><time>2026-04-25T11:29:52.4Z</time></trkpt><trkpt lat="31.2681133" lon="-7.3070983"><ele>1842.0</ele><time>2026-04-25T11:29:53.4Z</time></trkpt><trkpt lat="31.2680217" lon="-7.3073133"><ele>1842.0</ele><time>2026-04-25T11:29:54.4Z</time></trkpt><trkpt lat="31.2679367" lon="-7.3075283"><ele>1846.3333333333335</ele><time>2026-04-25T11:29:55.4Z</time></trkpt><trkpt lat="31.26785" lon="-7.3077433"><ele>1850.6666666666667</ele><time>2026-04-25T11:29:56.4Z</time></trkpt><trkpt lat="31.2677583" lon="-7.307955"><ele>1855.0</ele><time>2026-04-25T11:29:57.4Z</time></trkpt><trkpt lat="31.2676583" lon="-7.3081633"><ele>1855.0</ele><time>2026-04-25T11:29:58.4Z</time></trkpt><trkpt lat="31.26755" lon="-7.3083467"><ele>1855.0</ele><time>2026-04-25T11:29:59.4Z</time></trkpt><trkpt lat="31.26744" lon="-7.3085033"><ele>1855.0</ele><time>2026-04-25T11:30:00.4Z</time></trkpt><trkpt lat="31.26733" lon="-7.3086383"><ele>1852.3333333333335</ele><time>2026-04-25T11:30:01.401Z</time></trkpt><trkpt lat="31.2672033" lon="-7.30875"><ele>1849.6666666666665</ele><time>2026-04-25T11:30:02.4Z</time></trkpt><trkpt lat="31.26706" lon="-7.308835"><ele>1847.0</ele><time>2026-04-25T11:30:03.401Z</time></trkpt><trkpt lat="31.26691" lon="-7.3088967"><ele>1849.3333333333333</ele><time>2026-04-25T11:30:04.4Z</time></trkpt><trkpt lat="31.26675" lon="-7.3089483"><ele>1851.6666666666665</ele><time>2026-04-25T11:30:05.4Z</time></trkpt><trkpt lat="31.2665833" lon="-7.3089983"><ele>1854.0</ele><time>2026-04-25T11:30:06.4Z</time></trkpt><trkpt lat="31.2664217" lon="-7.309055"><ele>1854.0</ele><time>2026-04-25T11:30:07.4Z</time></trkpt><trkpt lat="31.2662833" lon="-7.309135"><ele>1854.0</ele><time>2026-04-25T11:30:08.4Z</time></trkpt><trkpt lat="31.2661533" lon="-7.309235"><ele>1854.0</ele><time>2026-04-25T11:30:09.4Z</time></trkpt><trkpt lat="31.26605" lon="-7.3093767"><ele>1854.0</ele><time>2026-04-25T11:30:10.4Z</time></trkpt><trkpt lat="31.2659833" lon="-7.30955"><ele>1854.0</ele><time>2026-04-25T11:30:11.4Z</time></trkpt><trkpt lat="31.2659533" lon="-7.3097483"><ele>1854.0</ele><time>2026-04-25T11:30:12.4Z</time></trkpt><trkpt lat="31.2659317" lon="-7.309955"><ele>1857.0</ele><time>2026-04-25T11:30:13.4Z</time></trkpt><trkpt lat="31.265905" lon="-7.3101733"><ele>1860.0</ele><time>2026-04-25T11:30:14.401Z</time></trkpt><trkpt lat="31.2658767" lon="-7.310385"><ele>1863.0</ele><time>2026-04-25T11:30:15.4Z</time></trkpt><trkpt lat="31.2658333" lon="-7.31058"><ele>1867.0</ele><time>2026-04-25T11:30:16.4Z</time></trkpt><trkpt lat="31.2657833" lon="-7.3107733"><ele>1871.0</ele><time>2026-04-25T11:30:17.4Z</time></trkpt><trkpt lat="31.26572" lon="-7.3109667"><ele>1875.0</ele><time>2026-04-25T11:30:18.4Z</time></trkpt><trkpt lat="31.26566" lon="-7.31116"><ele>1875.0</ele><time>2026-04-25T11:30:19.4Z</time></trkpt><trkpt lat="31.26562" lon="-7.3113483"><ele>1875.0</ele><time>2026-04-25T11:30:20.4Z</time></trkpt><trkpt lat="31.265585" lon="-7.3115267"><ele>1875.0</ele><time>2026-04-25T11:30:21.4Z</time></trkpt><trkpt lat="31.2655367" lon="-7.3116917"><ele>1872.75</ele><time>2026-04-25T11:30:22.4Z</time></trkpt><trkpt lat="31.2654767" lon="-7.3118383"><ele>1870.5</ele><time>2026-04-25T11:30:23.4Z</time></trkpt><trkpt lat="31.2653967" lon="-7.311965"><ele>1868.25</ele><time>2026-04-25T11:30:24.4Z</time></trkpt><trkpt lat="31.2652983" lon="-7.3120567"><ele>1866.0</ele><time>2026-04-25T11:30:25.4Z</time></trkpt><trkpt lat="31.2651783" lon="-7.312115"><ele>1866.0</ele><time>2026-04-25T11:30:26.4Z</time></trkpt><trkpt lat="31.2650633" lon="-7.3121233"><ele>1866.0</ele><time>2026-04-25T11:30:27.4Z</time></trkpt><trkpt lat="31.264945" lon="-7.3120783"><ele>1866.0</ele><time>2026-04-25T11:30:28.4Z</time></trkpt><trkpt lat="31.264835" lon="-7.3119917"><ele>1866.0</ele><time>2026-04-25T11:30:29.4Z</time></trkpt><trkpt lat="31.26473" lon="-7.311875"><ele>1865.75</ele><time>2026-04-25T11:30:30.4Z</time></trkpt><trkpt lat="31.2646367" lon="-7.3117383"><ele>1865.5</ele><time>2026-04-25T11:30:31.4Z</time></trkpt><trkpt lat="31.26456" lon="-7.3115983"><ele>1865.25</ele><time>2026-04-25T11:30:32.4Z</time></trkpt><trkpt lat="31.2644983" lon="-7.3114583"><ele>1865.0</ele><time>2026-04-25T11:30:33.4Z</time></trkpt><trkpt lat="31.2644317" lon="-7.3113283"><ele>1862.0</ele><time>2026-04-25T11:30:34.4Z</time></trkpt><trkpt lat="31.2643333" lon="-7.3112383"><ele>1859.0</ele><time>2026-04-25T11:30:35.4Z</time></trkpt><trkpt lat="31.2642267" lon="-7.3111883"><ele>1856.0</ele><time>2026-04-25T11:30:36.4Z</time></trkpt><trkpt lat="31.264135" lon="-7.3111883"><ele>1853.0</ele><time>2026-04-25T11:30:37.4Z</time></trkpt><trkpt lat="31.2640483" lon="-7.3112267"><ele>1850.0</ele><time>2026-04-25T11:30:38.4Z</time></trkpt><trkpt lat="31.2639767" lon="-7.311305"><ele>1846.25</ele><time>2026-04-25T11:30:39.4Z</time></trkpt><trkpt lat="31.2639417" lon="-7.3114183"><ele>1842.5</ele><time>2026-04-25T11:30:40.4Z</time></trkpt><trkpt lat="31.26393" lon="-7.3115633"><ele>1838.75</ele><time>2026-04-25T11:30:41.4Z</time></trkpt><trkpt lat="31.2639167" lon="-7.3117267"><ele>1835.0</ele><time>2026-04-25T11:30:42.4Z</time></trkpt><trkpt lat="31.2639017" lon="-7.3119117"><ele>1835.0</ele><time>2026-04-25T11:30:43.4Z</time></trkpt><trkpt lat="31.2638867" lon="-7.3120983"><ele>1835.0</ele><time>2026-04-25T11:30:44.4Z</time></trkpt><trkpt lat="31.263875" lon="-7.3122767"><ele>1835.0</ele><time>2026-04-25T11:30:45.4Z</time></trkpt><trkpt lat="31.26386" lon="-7.31245"><ele>1836.5</ele><time>2026-04-25T11:30:46.4Z</time></trkpt><trkpt lat="31.26383" lon="-7.3126183"><ele>1838.0</ele><time>2026-04-25T11:30:47.4Z</time></trkpt><trkpt lat="31.2637817" lon="-7.3127767"><ele>1839.5</ele><time>2026-04-25T11:30:48.4Z</time></trkpt><trkpt lat="31.263715" lon="-7.3129117"><ele>1841.0</ele><time>2026-04-25T11:30:49.4Z</time></trkpt><trkpt lat="31.2636417" lon="-7.3130167"><ele>1841.0</ele><time>2026-04-25T11:30:50.4Z</time></trkpt><trkpt lat="31.2635467" lon="-7.3130933"><ele>1841.0</ele><time>2026-04-25T11:30:51.4Z</time></trkpt><trkpt lat="31.263445" lon="-7.3131267"><ele>1841.0</ele><time>2026-04-25T11:30:52.4Z</time></trkpt><trkpt lat="31.26335" lon="-7.3131233"><ele>1841.0</ele><time>2026-04-25T11:30:53.4Z</time></trkpt><trkpt lat="31.263255" lon="-7.3130767"><ele>1841.0</ele><time>2026-04-25T11:30:54.4Z</time></trkpt><trkpt lat="31.2631567" lon="-7.313"><ele>1838.0</ele><time>2026-04-25T11:30:55.4Z</time></trkpt><trkpt lat="31.2630467" lon="-7.3129383"><ele>1835.0</ele><time>2026-04-25T11:30:56.4Z</time></trkpt><trkpt lat="31.26292" lon="-7.31291"><ele>1832.0</ele><time>2026-04-25T11:30:57.401Z</time></trkpt><trkpt lat="31.2627883" lon="-7.3129433"><ele>1829.0</ele><time>2026-04-25T11:30:58.401Z</time></trkpt><trkpt lat="31.26267" lon="-7.31302"><ele>1831.5</ele><time>2026-04-25T11:30:59.4Z</time></trkpt><trkpt lat="31.2625783" lon="-7.3131267"><ele>1834.0</ele><time>2026-04-25T11:31:00.4Z</time></trkpt><trkpt lat="31.2625333" lon="-7.3132717"><ele>1836.5</ele><time>2026-04-25T11:31:01.4Z</time></trkpt><trkpt lat="31.262525" lon="-7.3134233"><ele>1839.0</ele><time>2026-04-25T11:31:02.4Z</time></trkpt><trkpt lat="31.2625433" lon="-7.31356"><ele>1839.0</ele><time>2026-04-25T11:31:03.4Z</time></trkpt><trkpt lat="31.26256" lon="-7.3136933"><ele>1839.0</ele><time>2026-04-25T11:31:04.4Z</time></trkpt><trkpt lat="31.2625417" lon="-7.31382"><ele>1839.0</ele><time>2026-04-25T11:31:05.4Z</time></trkpt><trkpt lat="31.2624917" lon="-7.313945"><ele>1839.0</ele><time>2026-04-25T11:31:06.4Z</time></trkpt><trkpt lat="31.2624017" lon="-7.314045"><ele>1841.25</ele><time>2026-04-25T11:31:07.4Z</time></trkpt><trkpt lat="31.2622883" lon="-7.3141167"><ele>1843.5</ele><time>2026-04-25T11:31:08.4Z</time></trkpt><trkpt lat="31.2621633" lon="-7.3141683"><ele>1845.75</ele><time>2026-04-25T11:31:09.4Z</time></trkpt><trkpt lat="31.2620217" lon="-7.3142067"><ele>1848.0</ele><time>2026-04-25T11:31:10.4Z</time></trkpt><trkpt lat="31.261865" lon="-7.3142433"><ele>1842.0</ele><time>2026-04-25T11:31:11.4Z</time></trkpt><trkpt lat="31.2617017" lon="-7.3142967"><ele>1836.0</ele><time>2026-04-25T11:31:12.4Z</time></trkpt><trkpt lat="31.2615317" lon="-7.3143717"><ele>1830.0</ele><time>2026-04-25T11:31:13.4Z</time></trkpt><trkpt lat="31.2613717" lon="-7.314455"><ele>1830.6666666666665</ele><time>2026-04-25T11:31:14.4Z</time></trkpt><trkpt lat="31.261215" lon="-7.3145483"><ele>1831.3333333333333</ele><time>2026-04-25T11:31:15.4Z</time></trkpt><trkpt lat="31.2610633" lon="-7.3146467"><ele>1832.0</ele><time>2026-04-25T11:31:16.4Z</time></trkpt><trkpt lat="31.26092" lon="-7.3147533"><ele>1832.0</ele><time>2026-04-25T11:31:17.4Z</time></trkpt><trkpt lat="31.2607817" lon="-7.31486"><ele>1832.0</ele><time>2026-04-25T11:31:18.4Z</time></trkpt><trkpt lat="31.2606583" lon="-7.3149783"><ele>1832.0</ele><time>2026-04-25T11:31:19.4Z</time></trkpt><trkpt lat="31.2605617" lon="-7.3151183"><ele>1827.5</ele><time>2026-04-25T11:31:20.4Z</time></trkpt><trkpt lat="31.2604717" lon="-7.3152467"><ele>1823.0</ele><time>2026-04-25T11:31:21.4Z</time></trkpt><trkpt lat="31.2603783" lon="-7.315355"><ele>1818.5</ele><time>2026-04-25T11:31:22.4Z</time></trkpt><trkpt lat="31.26028" lon="-7.3154267"><ele>1814.0</ele><time>2026-04-25T11:31:23.4Z</time></trkpt><trkpt lat="31.260165" lon="-7.3154617"><ele>1814.0</ele><time>2026-04-25T11:31:24.4Z</time></trkpt><trkpt lat="31.26005" lon="-7.3154533"><ele>1814.0</ele><time>2026-04-25T11:31:25.4Z</time></trkpt><trkpt lat="31.25993" lon="-7.3154033"><ele>1814.0</ele><time>2026-04-25T11:31:26.4Z</time></trkpt><trkpt lat="31.2598033" lon="-7.3153483"><ele>1814.0</ele><time>2026-04-25T11:31:27.4Z</time></trkpt><trkpt lat="31.2596683" lon="-7.31532"><ele>1810.3333333333333</ele><time>2026-04-25T11:31:28.401Z</time></trkpt><trkpt lat="31.25952" lon="-7.3153333"><ele>1806.6666666666665</ele><time>2026-04-25T11:31:29.4Z</time></trkpt><trkpt lat="31.2593717" lon="-7.315375"><ele>1803.0</ele><time>2026-04-25T11:31:30.4Z</time></trkpt><trkpt lat="31.2592333" lon="-7.3154383"><ele>1803.0</ele><time>2026-04-25T11:31:31.4Z</time></trkpt><trkpt lat="31.2591" lon="-7.315505"><ele>1803.0</ele><time>2026-04-25T11:31:32.4Z</time></trkpt><trkpt lat="31.2589767" lon="-7.3155817"><ele>1803.0</ele><time>2026-04-25T11:31:33.4Z</time></trkpt><trkpt lat="31.2588583" lon="-7.315665"><ele>1803.0</ele><time>2026-04-25T11:31:34.4Z</time></trkpt><trkpt lat="31.2587533" lon="-7.3157583"><ele>1802.75</ele><time>2026-04-25T11:31:35.4Z</time></trkpt><trkpt lat="31.2586417" lon="-7.3158483"><ele>1802.5</ele><time>2026-04-25T11:31:36.4Z</time></trkpt><trkpt lat="31.25853" lon="-7.3159367"><ele>1802.25</ele><time>2026-04-25T11:31:37.4Z</time></trkpt><trkpt lat="31.2584333" lon="-7.3160367"><ele>1802.0</ele><time>2026-04-25T11:31:38.4Z</time></trkpt><trkpt lat="31.2583433" lon="-7.3161533"><ele>1802.0</ele><time>2026-04-25T11:31:39.4Z</time></trkpt><trkpt lat="31.25828" lon="-7.3162883"><ele>1802.0</ele><time>2026-04-25T11:31:40.4Z</time></trkpt><trkpt lat="31.2582583" lon="-7.3164417"><ele>1802.0</ele><time>2026-04-25T11:31:41.4Z</time></trkpt><trkpt lat="31.2582833" lon="-7.316585"><ele>1802.0</ele><time>2026-04-25T11:31:42.401Z</time></trkpt><trkpt lat="31.2583417" lon="-7.3167067"><ele>1802.25</ele><time>2026-04-25T11:31:43.401Z</time></trkpt><trkpt lat="31.258435" lon="-7.3168067"><ele>1802.5</ele><time>2026-04-25T11:31:44.4Z</time></trkpt><trkpt lat="31.2585417" lon="-7.31687"><ele>1802.75</ele><time>2026-04-25T11:31:45.4Z</time></trkpt><trkpt lat="31.2586633" lon="-7.3169383"><ele>1803.0</ele><time>2026-04-25T11:31:46.4Z</time></trkpt><trkpt lat="31.258785" lon="-7.3170217"><ele>1803.0</ele><time>2026-04-25T11:31:47.4Z</time></trkpt><trkpt lat="31.258905" lon="-7.3171183"><ele>1803.0</ele><time>2026-04-25T11:31:48.4Z</time></trkpt><trkpt lat="31.25902" lon="-7.3172267"><ele>1803.0</ele><time>2026-04-25T11:31:49.4Z</time></trkpt><trkpt lat="31.2591317" lon="-7.3173383"><ele>1803.0</ele><time>2026-04-25T11:31:50.4Z</time></trkpt><trkpt lat="31.2592467" lon="-7.3174433"><ele>1799.75</ele><time>2026-04-25T11:31:51.4Z</time></trkpt><trkpt lat="31.25938" lon="-7.3175233"><ele>1796.5</ele><time>2026-04-25T11:31:52.4Z</time></trkpt><trkpt lat="31.2595133" lon="-7.317585"><ele>1793.25</ele><time>2026-04-25T11:31:53.4Z</time></trkpt><trkpt lat="31.2596517" lon="-7.317635"><ele>1790.0</ele><time>2026-04-25T11:31:54.4Z</time></trkpt><trkpt lat="31.2597883" lon="-7.3176867"><ele>1790.0</ele><time>2026-04-25T11:31:55.4Z</time></trkpt><trkpt lat="31.2599217" lon="-7.317735"><ele>1790.0</ele><time>2026-04-25T11:31:56.4Z</time></trkpt><trkpt lat="31.26005" lon="-7.3177783"><ele>1790.0</ele><time>2026-04-25T11:31:57.4Z</time></trkpt><trkpt lat="31.2601617" lon="-7.31783"><ele>1790.0</ele><time>2026-04-25T11:31:58.4Z</time></trkpt><trkpt lat="31.2602517" lon="-7.3179"><ele>1790.0</ele><time>2026-04-25T11:31:59.4Z</time></trkpt><trkpt lat="31.2603083" lon="-7.3179917"><ele>1790.0</ele><time>2026-04-25T11:32:00.4Z</time></trkpt><trkpt lat="31.260325" lon="-7.318095"><ele>1790.0</ele><time>2026-04-25T11:32:01.4Z</time></trkpt><trkpt lat="31.2603017" lon="-7.3182033"><ele>1790.0</ele><time>2026-04-25T11:32:02.4Z</time></trkpt><trkpt lat="31.2602433" lon="-7.318305"><ele>1790.0</ele><time>2026-04-25T11:32:03.4Z</time></trkpt><trkpt lat="31.2601667" lon="-7.3184033"><ele>1789.0</ele><time>2026-04-25T11:32:04.4Z</time></trkpt><trkpt lat="31.260095" lon="-7.3185233"><ele>1788.0</ele><time>2026-04-25T11:32:05.4Z</time></trkpt><trkpt lat="31.2600233" lon="-7.31866"><ele>1787.0</ele><time>2026-04-25T11:32:06.4Z</time></trkpt><trkpt lat="31.2599567" lon="-7.318805"><ele>1786.0</ele><time>2026-04-25T11:32:07.4Z</time></trkpt><trkpt lat="31.259895" lon="-7.318955"><ele>1786.0</ele><time>2026-04-25T11:32:08.4Z</time></trkpt><trkpt lat="31.2598417" lon="-7.3190983"><ele>1786.0</ele><time>2026-04-25T11:32:09.4Z</time></trkpt><trkpt lat="31.2597933" lon="-7.3192417"><ele>1786.0</ele><time>2026-04-25T11:32:10.4Z</time></trkpt><trkpt lat="31.2597467" lon="-7.31938"><ele>1786.0</ele><time>2026-04-25T11:32:11.4Z</time></trkpt><trkpt lat="31.25968" lon="-7.3195"><ele>1783.75</ele><time>2026-04-25T11:32:12.4Z</time></trkpt><trkpt lat="31.2595867" lon="-7.3196017"><ele>1781.5</ele><time>2026-04-25T11:32:13.4Z</time></trkpt><trkpt lat="31.25947" lon="-7.3196717"><ele>1779.25</ele><time>2026-04-25T11:32:14.4Z</time></trkpt><trkpt lat="31.25937" lon="-7.3197433"><ele>1777.0</ele><time>2026-04-25T11:32:15.4Z</time></trkpt><trkpt lat="31.25928" lon="-7.3198117"><ele>1777.0</ele><time>2026-04-25T11:32:16.4Z</time></trkpt><trkpt lat="31.2592183" lon="-7.3199033"><ele>1776.9999999999998</ele><time>2026-04-25T11:32:17.4Z</time></trkpt><trkpt lat="31.2591933" lon="-7.3200117"><ele>1776.9999999999998</ele><time>2026-04-25T11:32:18.4Z</time></trkpt><trkpt lat="31.2592167" lon="-7.32013"><ele>1777.0</ele><time>2026-04-25T11:32:19.4Z</time></trkpt><trkpt lat="31.2592633" lon="-7.3202317"><ele>1777.0</ele><time>2026-04-25T11:32:20.4Z</time></trkpt><trkpt lat="31.259325" lon="-7.3203317"><ele>1777.0</ele><time>2026-04-25T11:32:21.4Z</time></trkpt><trkpt lat="31.2593983" lon="-7.3204267"><ele>1777.0</ele><time>2026-04-25T11:32:22.4Z</time></trkpt><trkpt lat="31.2594733" lon="-7.3205383"><ele>1777.0</ele><time>2026-04-25T11:32:23.4Z</time></trkpt><trkpt lat="31.259525" lon="-7.32067"><ele>1777.0</ele><time>2026-04-25T11:32:24.4Z</time></trkpt><trkpt lat="31.259535" lon="-7.32081"><ele>1776.0</ele><time>2026-04-25T11:32:25.4Z</time></trkpt><trkpt lat="31.2595217" lon="-7.3209533"><ele>1775.0</ele><time>2026-04-25T11:32:26.4Z</time></trkpt><trkpt lat="31.2594767" lon="-7.3211"><ele>1774.0</ele><time>2026-04-25T11:32:27.4Z</time></trkpt><trkpt lat="31.25942" lon="-7.32124"><ele>1773.0</ele><time>2026-04-25T11:32:28.4Z</time></trkpt><trkpt lat="31.2593667" lon="-7.3213817"><ele>1773.75</ele><time>2026-04-25T11:32:29.4Z</time></trkpt><trkpt lat="31.2593183" lon="-7.321535"><ele>1774.5</ele><time>2026-04-25T11:32:30.4Z</time></trkpt><trkpt lat="31.2592717" lon="-7.3216933"><ele>1775.25</ele><time>2026-04-25T11:32:31.4Z</time></trkpt><trkpt lat="31.2592217" lon="-7.3218517"><ele>1776.0</ele><time>2026-04-25T11:32:32.4Z</time></trkpt><trkpt lat="31.259185" lon="-7.32201"><ele>1776.0</ele><time>2026-04-25T11:32:33.4Z</time></trkpt><trkpt lat="31.25915" lon="-7.3221517"><ele>1776.0</ele><time>2026-04-25T11:32:34.4Z</time></trkpt><trkpt lat="31.2590917" lon="-7.3222967"><ele>1776.0</ele><time>2026-04-25T11:32:35.4Z</time></trkpt><trkpt lat="31.2590167" lon="-7.322435"><ele>1776.0</ele><time>2026-04-25T11:32:36.4Z</time></trkpt><trkpt lat="31.2589267" lon="-7.3225733"><ele>1775.5</ele><time>2026-04-25T11:32:37.4Z</time></trkpt><trkpt lat="31.2588367" lon="-7.3227033"><ele>1775.0</ele><time>2026-04-25T11:32:38.4Z</time></trkpt><trkpt lat="31.2587467" lon="-7.3228433"><ele>1774.5</ele><time>2026-04-25T11:32:39.4Z</time></trkpt><trkpt lat="31.2586667" lon="-7.322985"><ele>1774.0</ele><time>2026-04-25T11:32:40.4Z</time></trkpt><trkpt lat="31.2586033" lon="-7.3231333"><ele>1774.0</ele><time>2026-04-25T11:32:41.4Z</time></trkpt><trkpt lat="31.2585433" lon="-7.32329"><ele>1774.0</ele><time>2026-04-25T11:32:42.4Z</time></trkpt><trkpt lat="31.25851" lon="-7.3234533"><ele>1774.0</ele><time>2026-04-25T11:32:43.4Z</time></trkpt><trkpt lat="31.258495" lon="-7.3236283"><ele>1774.0</ele><time>2026-04-25T11:32:44.4Z</time></trkpt><trkpt lat="31.2584817" lon="-7.3238083"><ele>1775.0</ele><time>2026-04-25T11:32:45.4Z</time></trkpt><trkpt lat="31.258475" lon="-7.3239917"><ele>1776.0</ele><time>2026-04-25T11:32:46.4Z</time></trkpt><trkpt lat="31.2584667" lon="-7.3241767"><ele>1777.0</ele><time>2026-04-25T11:32:47.4Z</time></trkpt><trkpt lat="31.258475" lon="-7.3243633"><ele>1777.0</ele><time>2026-04-25T11:32:48.4Z</time></trkpt><trkpt lat="31.2584667" lon="-7.3245467"><ele>1777.0</ele><time>2026-04-25T11:32:49.4Z</time></trkpt><trkpt lat="31.2584567" lon="-7.3247367"><ele>1777.0</ele><time>2026-04-25T11:32:50.4Z</time></trkpt><trkpt lat="31.2584417" lon="-7.3249233"><ele>1779.0</ele><time>2026-04-25T11:32:51.4Z</time></trkpt><trkpt lat="31.2584067" lon="-7.3251133"><ele>1781.0</ele><time>2026-04-25T11:32:52.4Z</time></trkpt><trkpt lat="31.2583617" lon="-7.325305"><ele>1783.0</ele><time>2026-04-25T11:32:53.4Z</time></trkpt><trkpt lat="31.2583233" lon="-7.3254867"><ele>1784.0</ele><time>2026-04-25T11:32:54.4Z</time></trkpt><trkpt lat="31.25828" lon="-7.325665"><ele>1785.0</ele><time>2026-04-25T11:32:55.4Z</time></trkpt><trkpt lat="31.2582433" lon="-7.3258367"><ele>1786.0</ele><time>2026-04-25T11:32:56.399Z</time></trkpt><trkpt lat="31.2582117" lon="-7.3260033"><ele>1786.0</ele><time>2026-04-25T11:32:57.399Z</time></trkpt><trkpt lat="31.2581833" lon="-7.3261683"><ele>1786.0</ele><time>2026-04-25T11:32:58.4Z</time></trkpt><trkpt lat="31.25816" lon="-7.3263433"><ele>1786.0</ele><time>2026-04-25T11:32:59.399Z</time></trkpt><trkpt lat="31.2581517" lon="-7.3265083"><ele>1786.0</ele><time>2026-04-25T11:33:00.399Z</time></trkpt><trkpt lat="31.2581533" lon="-7.3266833"><ele>1786.25</ele><time>2026-04-25T11:33:01.399Z</time></trkpt><trkpt lat="31.2581817" lon="-7.3268517"><ele>1786.5</ele><time>2026-04-25T11:33:02.399Z</time></trkpt><trkpt lat="31.2582333" lon="-7.327005"><ele>1786.75</ele><time>2026-04-25T11:33:03.399Z</time></trkpt><trkpt lat="31.25829" lon="-7.32716"><ele>1787.0</ele><time>2026-04-25T11:33:04.4Z</time></trkpt><trkpt lat="31.2583517" lon="-7.32731"><ele>1786.0</ele><time>2026-04-25T11:33:05.399Z</time></trkpt><trkpt lat="31.25841" lon="-7.32746"><ele>1785.0</ele><time>2026-04-25T11:33:06.399Z</time></trkpt><trkpt lat="31.258465" lon="-7.3276083"><ele>1784.0</ele><time>2026-04-25T11:33:07.399Z</time></trkpt><trkpt lat="31.258525" lon="-7.3277583"><ele>1783.0</ele><time>2026-04-25T11:33:08.399Z</time></trkpt><trkpt lat="31.2585833" lon="-7.3279117"><ele>1783.0</ele><time>2026-04-25T11:33:09.399Z</time></trkpt><trkpt lat="31.2586417" lon="-7.328055"><ele>1783.0</ele><time>2026-04-25T11:33:10.399Z</time></trkpt><trkpt lat="31.2586967" lon="-7.328195"><ele>1783.0</ele><time>2026-04-25T11:33:11.399Z</time></trkpt><trkpt lat="31.2587483" lon="-7.328325"><ele>1783.0</ele><time>2026-04-25T11:33:12.399Z</time></trkpt><trkpt lat="31.25879" lon="-7.3284483"><ele>1782.4</ele><time>2026-04-25T11:33:13.399Z</time></trkpt><trkpt lat="31.2588167" lon="-7.3285683"><ele>1781.8000000000002</ele><time>2026-04-25T11:33:14.399Z</time></trkpt><trkpt lat="31.2588267" lon="-7.3286917"><ele>1781.2</ele><time>2026-04-25T11:33:15.399Z</time></trkpt><trkpt lat="31.2588133" lon="-7.3288167"><ele>1780.6</ele><time>2026-04-25T11:33:16.399Z</time></trkpt><trkpt lat="31.2587717" lon="-7.3289367"><ele>1780.0</ele><time>2026-04-25T11:33:17.399Z</time></trkpt><trkpt lat="31.25873" lon="-7.3290633"><ele>1780.0</ele><time>2026-04-25T11:33:18.399Z</time></trkpt><trkpt lat="31.25869" lon="-7.3292"><ele>1780.0</ele><time>2026-04-25T11:33:19.399Z</time></trkpt><trkpt lat="31.2586633" lon="-7.32936"><ele>1780.0</ele><time>2026-04-25T11:33:20.399Z</time></trkpt><trkpt lat="31.258645" lon="-7.3295367"><ele>1780.0</ele><time>2026-04-25T11:33:21.399Z</time></trkpt><trkpt lat="31.2586217" lon="-7.3297117"><ele>1780.75</ele><time>2026-04-25T11:33:22.399Z</time></trkpt><trkpt lat="31.2586017" lon="-7.329875"><ele>1781.5</ele><time>2026-04-25T11:33:23.399Z</time></trkpt><trkpt lat="31.258585" lon="-7.3300367"><ele>1782.25</ele><time>2026-04-25T11:33:24.399Z</time></trkpt><trkpt lat="31.2585833" lon="-7.3302033"><ele>1783.0</ele><time>2026-04-25T11:33:25.399Z</time></trkpt><trkpt lat="31.2586083" lon="-7.33038"><ele>1782.3333333333335</ele><time>2026-04-25T11:33:26.399Z</time></trkpt><trkpt lat="31.2586433" lon="-7.3305617"><ele>1781.6666666666665</ele><time>2026-04-25T11:33:27.399Z</time></trkpt><trkpt lat="31.2586883" lon="-7.33075"><ele>1781.0</ele><time>2026-04-25T11:33:28.399Z</time></trkpt><trkpt lat="31.2587283" lon="-7.3309367"><ele>1781.0</ele><time>2026-04-25T11:33:29.399Z</time></trkpt><trkpt lat="31.25877" lon="-7.331135"><ele>1781.0</ele><time>2026-04-25T11:33:30.399Z</time></trkpt><trkpt lat="31.258815" lon="-7.3313417"><ele>1781.0</ele><time>2026-04-25T11:33:31.399Z</time></trkpt><trkpt lat="31.2588533" lon="-7.33156"><ele>1782.0</ele><time>2026-04-25T11:33:32.399Z</time></trkpt><trkpt lat="31.2588817" lon="-7.3317783"><ele>1783.0</ele><time>2026-04-25T11:33:33.399Z</time></trkpt><trkpt lat="31.25889" lon="-7.3320067"><ele>1784.0</ele><time>2026-04-25T11:33:34.399Z</time></trkpt><trkpt lat="31.2588967" lon="-7.3322467"><ele>1785.0</ele><time>2026-04-25T11:33:35.399Z</time></trkpt><trkpt lat="31.2589" lon="-7.3324817"><ele>1786.0</ele><time>2026-04-25T11:33:36.399Z</time></trkpt><trkpt lat="31.2589033" lon="-7.332715"><ele>1787.0</ele><time>2026-04-25T11:33:37.399Z</time></trkpt><trkpt lat="31.258915" lon="-7.3329583"><ele>1786.6666666666665</ele><time>2026-04-25T11:33:38.399Z</time></trkpt><trkpt lat="31.2589217" lon="-7.3331933"><ele>1786.3333333333335</ele><time>2026-04-25T11:33:39.399Z</time></trkpt><trkpt lat="31.2589183" lon="-7.3334083"><ele>1786.0</ele><time>2026-04-25T11:33:40.399Z</time></trkpt><trkpt lat="31.2589183" lon="-7.3336233"><ele>1786.0</ele><time>2026-04-25T11:33:41.399Z</time></trkpt><trkpt lat="31.258905" lon="-7.333835"><ele>1786.0</ele><time>2026-04-25T11:33:42.399Z</time></trkpt><trkpt lat="31.258885" lon="-7.33405"><ele>1786.0</ele><time>2026-04-25T11:33:43.399Z</time></trkpt><trkpt lat="31.258845" lon="-7.3342583"><ele>1786.3333333333335</ele><time>2026-04-25T11:33:44.399Z</time></trkpt><trkpt lat="31.2587783" lon="-7.3344617"><ele>1786.6666666666665</ele><time>2026-04-25T11:33:45.399Z</time></trkpt><trkpt lat="31.2587117" lon="-7.3346617"><ele>1787.0</ele><time>2026-04-25T11:33:46.399Z</time></trkpt><trkpt lat="31.2586533" lon="-7.3348617"><ele>1789.0</ele><time>2026-04-25T11:33:47.399Z</time></trkpt><trkpt lat="31.25861" lon="-7.33506"><ele>1791.0</ele><time>2026-04-25T11:33:48.399Z</time></trkpt><trkpt lat="31.2585883" lon="-7.3352633"><ele>1793.0</ele><time>2026-04-25T11:33:49.399Z</time></trkpt><trkpt lat="31.25859" lon="-7.3354833"><ele>1792.6666666666665</ele><time>2026-04-25T11:33:50.399Z</time></trkpt><trkpt lat="31.2586217" lon="-7.3357"><ele>1792.3333333333335</ele><time>2026-04-25T11:33:51.399Z</time></trkpt><trkpt lat="31.258685" lon="-7.335905"><ele>1792.0</ele><time>2026-04-25T11:33:52.399Z</time></trkpt><trkpt lat="31.2587733" lon="-7.33609"><ele>1792.0</ele><time>2026-04-25T11:33:53.4Z</time></trkpt><trkpt lat="31.2588833" lon="-7.3362717"><ele>1792.0</ele><time>2026-04-25T11:33:54.399Z</time></trkpt><trkpt lat="31.258985" lon="-7.3364417"><ele>1792.0</ele><time>2026-04-25T11:33:55.4Z</time></trkpt><trkpt lat="31.2590933" lon="-7.3365917"><ele>1796.6666666666667</ele><time>2026-04-25T11:33:56.399Z</time></trkpt><trkpt lat="31.2591933" lon="-7.336745"><ele>1801.3333333333335</ele><time>2026-04-25T11:33:57.399Z</time></trkpt><trkpt lat="31.2592783" lon="-7.3369117"><ele>1806.0</ele><time>2026-04-25T11:33:58.399Z</time></trkpt><trkpt lat="31.259345" lon="-7.3371067"><ele>1804.6666666666665</ele><time>2026-04-25T11:33:59.399Z</time></trkpt><trkpt lat="31.2593983" lon="-7.33731"><ele>1803.3333333333333</ele><time>2026-04-25T11:34:00.399Z</time></trkpt><trkpt lat="31.2594483" lon="-7.337525"><ele>1802.0</ele><time>2026-04-25T11:34:01.399Z</time></trkpt><trkpt lat="31.2594983" lon="-7.33774"><ele>1802.0</ele><time>2026-04-25T11:34:02.399Z</time></trkpt><trkpt lat="31.2595383" lon="-7.337955"><ele>1802.0</ele><time>2026-04-25T11:34:03.399Z</time></trkpt><trkpt lat="31.259565" lon="-7.338155"><ele>1802.0</ele><time>2026-04-25T11:34:04.399Z</time></trkpt><trkpt lat="31.259565" lon="-7.3383417"><ele>1802.6666666666665</ele><time>2026-04-25T11:34:05.399Z</time></trkpt><trkpt lat="31.25955" lon="-7.3385233"><ele>1803.3333333333335</ele><time>2026-04-25T11:34:06.399Z</time></trkpt><trkpt lat="31.2595167" lon="-7.3386983"><ele>1804.0</ele><time>2026-04-25T11:34:07.399Z</time></trkpt><trkpt lat="31.2594667" lon="-7.3388633"><ele>1805.3333333333335</ele><time>2026-04-25T11:34:08.399Z</time></trkpt><trkpt lat="31.2594217" lon="-7.3390333"><ele>1806.6666666666665</ele><time>2026-04-25T11:34:09.399Z</time></trkpt><trkpt lat="31.2593717" lon="-7.3392083"><ele>1808.0</ele><time>2026-04-25T11:34:10.399Z</time></trkpt><trkpt lat="31.2593183" lon="-7.3394"><ele>1808.0</ele><time>2026-04-25T11:34:11.399Z</time></trkpt><trkpt lat="31.25927" lon="-7.3395983"><ele>1808.0</ele><time>2026-04-25T11:34:12.399Z</time></trkpt><trkpt lat="31.25922" lon="-7.3398083"><ele>1808.0</ele><time>2026-04-25T11:34:13.399Z</time></trkpt><trkpt lat="31.2591717" lon="-7.3400083"><ele>1808.6666666666665</ele><time>2026-04-25T11:34:14.399Z</time></trkpt><trkpt lat="31.2591217" lon="-7.3402"><ele>1809.3333333333335</ele><time>2026-04-25T11:34:15.399Z</time></trkpt><trkpt lat="31.2590967" lon="-7.3403883"><ele>1810.0</ele><time>2026-04-25T11:34:16.4Z</time></trkpt><trkpt lat="31.259115" lon="-7.3405567"><ele>1811.3333333333335</ele><time>2026-04-25T11:34:17.399Z</time></trkpt><trkpt lat="31.2591583" lon="-7.3407333"><ele>1812.6666666666665</ele><time>2026-04-25T11:34:18.399Z</time></trkpt><trkpt lat="31.2592167" lon="-7.3409183"><ele>1814.0</ele><time>2026-04-25T11:34:19.399Z</time></trkpt><trkpt lat="31.2592567" lon="-7.3411217"><ele>1814.0</ele><time>2026-04-25T11:34:20.4Z</time></trkpt><trkpt lat="31.2592633" lon="-7.3413383"><ele>1814.0</ele><time>2026-04-25T11:34:21.399Z</time></trkpt><trkpt lat="31.2592467" lon="-7.34154"><ele>1814.0</ele><time>2026-04-25T11:34:22.399Z</time></trkpt><trkpt lat="31.259225" lon="-7.341735"><ele>1814.3333333333333</ele><time>2026-04-25T11:34:23.399Z</time></trkpt><trkpt lat="31.2592083" lon="-7.341935"><ele>1814.6666666666665</ele><time>2026-04-25T11:34:24.399Z</time></trkpt><trkpt lat="31.25921" lon="-7.3421317"><ele>1815.0</ele><time>2026-04-25T11:34:25.399Z</time></trkpt><trkpt lat="31.2592317" lon="-7.342325"><ele>1814.3333333333335</ele><time>2026-04-25T11:34:26.399Z</time></trkpt><trkpt lat="31.2592483" lon="-7.34252"><ele>1813.6666666666667</ele><time>2026-04-25T11:34:27.399Z</time></trkpt><trkpt lat="31.2592683" lon="-7.3427017"><ele>1813.0</ele><time>2026-04-25T11:34:28.399Z</time></trkpt><trkpt lat="31.2593017" lon="-7.3428733"><ele>1813.0</ele><time>2026-04-25T11:34:29.399Z</time></trkpt><trkpt lat="31.2593433" lon="-7.34303"><ele>1813.0</ele><time>2026-04-25T11:34:30.399Z</time></trkpt><trkpt lat="31.2593967" lon="-7.343155"><ele>1813.0</ele><time>2026-04-25T11:34:31.399Z</time></trkpt><trkpt lat="31.25947" lon="-7.3432467"><ele>1813.0</ele><time>2026-04-25T11:34:32.399Z</time></trkpt><trkpt lat="31.259565" lon="-7.343305"><ele>1813.25</ele><time>2026-04-25T11:34:33.399Z</time></trkpt><trkpt lat="31.259675" lon="-7.3433267"><ele>1813.5</ele><time>2026-04-25T11:34:34.399Z</time></trkpt><trkpt lat="31.25979" lon="-7.343335"><ele>1813.75</ele><time>2026-04-25T11:34:35.399Z</time></trkpt><trkpt lat="31.2599133" lon="-7.3433533"><ele>1814.0</ele><time>2026-04-25T11:34:36.399Z</time></trkpt><trkpt lat="31.2600317" lon="-7.3433733"><ele>1815.5</ele><time>2026-04-25T11:34:37.399Z</time></trkpt><trkpt lat="31.2601433" lon="-7.3433983"><ele>1817.0</ele><time>2026-04-25T11:34:38.399Z</time></trkpt><trkpt lat="31.26026" lon="-7.3434267"><ele>1818.5</ele><time>2026-04-25T11:34:39.399Z</time></trkpt><trkpt lat="31.2603817" lon="-7.3434683"><ele>1820.0</ele><time>2026-04-25T11:34:40.399Z</time></trkpt><trkpt lat="31.2605083" lon="-7.34352"><ele>1820.5</ele><time>2026-04-25T11:34:41.399Z</time></trkpt><trkpt lat="31.2606383" lon="-7.3435883"><ele>1821.0</ele><time>2026-04-25T11:34:42.4Z</time></trkpt><trkpt lat="31.26076" lon="-7.3436783"><ele>1821.5</ele><time>2026-04-25T11:34:43.399Z</time></trkpt><trkpt lat="31.260875" lon="-7.3437967"><ele>1822.0</ele><time>2026-04-25T11:34:44.399Z</time></trkpt><trkpt lat="31.26098" lon="-7.3439333"><ele>1822.0</ele><time>2026-04-25T11:34:45.399Z</time></trkpt><trkpt lat="31.2610667" lon="-7.3440767"><ele>1822.0</ele><time>2026-04-25T11:34:46.399Z</time></trkpt><trkpt lat="31.2611383" lon="-7.34423"><ele>1822.0</ele><time>2026-04-25T11:34:47.399Z</time></trkpt><trkpt lat="31.2612083" lon="-7.3443883"><ele>1822.0</ele><time>2026-04-25T11:34:48.399Z</time></trkpt><trkpt lat="31.26128" lon="-7.3445483"><ele>1822.0</ele><time>2026-04-25T11:34:49.399Z</time></trkpt><trkpt lat="31.2613483" lon="-7.3447167"><ele>1822.0</ele><time>2026-04-25T11:34:50.399Z</time></trkpt><trkpt lat="31.2614133" lon="-7.3448883"><ele>1826.3333333333335</ele><time>2026-04-25T11:34:51.399Z</time></trkpt><trkpt lat="31.26147" lon="-7.345075"><ele>1830.6666666666665</ele><time>2026-04-25T11:34:52.399Z</time></trkpt><trkpt lat="31.2615283" lon="-7.3452667"><ele>1835.0</ele><time>2026-04-25T11:34:53.399Z</time></trkpt><trkpt lat="31.2615767" lon="-7.3454683"><ele>1835.3333333333333</ele><time>2026-04-25T11:34:54.4Z</time></trkpt><trkpt lat="31.2616133" lon="-7.3456767"><ele>1835.6666666666665</ele><time>2026-04-25T11:34:55.399Z</time></trkpt><trkpt lat="31.261655" lon="-7.345885"><ele>1836.0</ele><time>2026-04-25T11:34:56.399Z</time></trkpt><trkpt lat="31.2617" lon="-7.3460783"><ele>1836.0</ele><time>2026-04-25T11:34:57.399Z</time></trkpt><trkpt lat="31.2617467" lon="-7.3462567"><ele>1836.0</ele><time>2026-04-25T11:34:58.399Z</time></trkpt><trkpt lat="31.2617983" lon="-7.3464317"><ele>1836.0</ele><time>2026-04-25T11:34:59.399Z</time></trkpt><trkpt lat="31.2618583" lon="-7.3465967"><ele>1836.6666666666665</ele><time>2026-04-25T11:35:00.399Z</time></trkpt><trkpt lat="31.26194" lon="-7.34674"><ele>1837.3333333333333</ele><time>2026-04-25T11:35:01.399Z</time></trkpt><trkpt lat="31.26204" lon="-7.3468783"><ele>1838.0</ele><time>2026-04-25T11:35:02.399Z</time></trkpt><trkpt lat="31.262145" lon="-7.3470167"><ele>1838.0</ele><time>2026-04-25T11:35:03.399Z</time></trkpt><trkpt lat="31.262225" lon="-7.34716"><ele>1838.0</ele><time>2026-04-25T11:35:04.399Z</time></trkpt><trkpt lat="31.2622817" lon="-7.3473333"><ele>1838.0</ele><time>2026-04-25T11:35:05.399Z</time></trkpt><trkpt lat="31.26231" lon="-7.347515"><ele>1840.3333333333333</ele><time>2026-04-25T11:35:06.399Z</time></trkpt><trkpt lat="31.2623417" lon="-7.3477083"><ele>1842.6666666666665</ele><time>2026-04-25T11:35:07.399Z</time></trkpt><trkpt lat="31.2623733" lon="-7.3479067"><ele>1845.0</ele><time>2026-04-25T11:35:08.399Z</time></trkpt><trkpt lat="31.262395" lon="-7.3481067"><ele>1845.0</ele><time>2026-04-25T11:35:09.399Z</time></trkpt><trkpt lat="31.26244" lon="-7.3483133"><ele>1845.0</ele><time>2026-04-25T11:35:10.399Z</time></trkpt><trkpt lat="31.2624933" lon="-7.3485083"><ele>1845.0</ele><time>2026-04-25T11:35:11.399Z</time></trkpt><trkpt lat="31.2625717" lon="-7.3487"><ele>1843.3333333333335</ele><time>2026-04-25T11:35:12.399Z</time></trkpt><trkpt lat="31.2626567" lon="-7.3488867"><ele>1841.6666666666667</ele><time>2026-04-25T11:35:13.399Z</time></trkpt><trkpt lat="31.262755" lon="-7.3490617"><ele>1840.0</ele><time>2026-04-25T11:35:14.399Z</time></trkpt><trkpt lat="31.26285" lon="-7.349215"><ele>1840.0</ele><time>2026-04-25T11:35:15.399Z</time></trkpt><trkpt lat="31.2629317" lon="-7.349375"><ele>1840.0</ele><time>2026-04-25T11:35:16.399Z</time></trkpt><trkpt lat="31.2629933" lon="-7.3495667"><ele>1840.0</ele><time>2026-04-25T11:35:17.399Z</time></trkpt><trkpt lat="31.263035" lon="-7.349775"><ele>1839.0</ele><time>2026-04-25T11:35:18.399Z</time></trkpt><trkpt lat="31.26308" lon="-7.3499817"><ele>1838.0</ele><time>2026-04-25T11:35:19.399Z</time></trkpt><trkpt lat="31.2631283" lon="-7.35018"><ele>1837.0</ele><time>2026-04-25T11:35:20.399Z</time></trkpt><trkpt lat="31.2631667" lon="-7.350365"><ele>1840.6666666666667</ele><time>2026-04-25T11:35:21.399Z</time></trkpt><trkpt lat="31.2632" lon="-7.3505483"><ele>1844.3333333333335</ele><time>2026-04-25T11:35:22.399Z</time></trkpt><trkpt lat="31.263235" lon="-7.350725"><ele>1848.0</ele><time>2026-04-25T11:35:23.399Z</time></trkpt><trkpt lat="31.263265" lon="-7.3508917"><ele>1848.0</ele><time>2026-04-25T11:35:24.399Z</time></trkpt><trkpt lat="31.2633" lon="-7.351065"><ele>1848.0</ele><time>2026-04-25T11:35:25.399Z</time></trkpt><trkpt lat="31.2633317" lon="-7.3512367"><ele>1848.0</ele><time>2026-04-25T11:35:26.399Z</time></trkpt><trkpt lat="31.2633683" lon="-7.3514133"><ele>1848.3333333333335</ele><time>2026-04-25T11:35:27.399Z</time></trkpt><trkpt lat="31.2634067" lon="-7.3516017"><ele>1848.6666666666667</ele><time>2026-04-25T11:35:28.399Z</time></trkpt><trkpt lat="31.26344" lon="-7.3518017"><ele>1849.0</ele><time>2026-04-25T11:35:29.399Z</time></trkpt><trkpt lat="31.2634833" lon="-7.3520117"><ele>1847.3333333333335</ele><time>2026-04-25T11:35:30.399Z</time></trkpt><trkpt lat="31.26354" lon="-7.3522267"><ele>1845.6666666666665</ele><time>2026-04-25T11:35:31.399Z</time></trkpt><trkpt lat="31.263595" lon="-7.3524383"><ele>1844.0</ele><time>2026-04-25T11:35:32.399Z</time></trkpt><trkpt lat="31.2636533" lon="-7.35264"><ele>1844.0</ele><time>2026-04-25T11:35:33.399Z</time></trkpt><trkpt lat="31.2637067" lon="-7.3528317"><ele>1844.0</ele><time>2026-04-25T11:35:34.399Z</time></trkpt><trkpt lat="31.2637417" lon="-7.3530233"><ele>1844.0</ele><time>2026-04-25T11:35:35.399Z</time></trkpt><trkpt lat="31.26377" lon="-7.3532117"><ele>1843.25</ele><time>2026-04-25T11:35:36.399Z</time></trkpt><trkpt lat="31.26378" lon="-7.3533917"><ele>1842.5</ele><time>2026-04-25T11:35:37.399Z</time></trkpt><trkpt lat="31.26377" lon="-7.3535567"><ele>1841.75</ele><time>2026-04-25T11:35:38.399Z</time></trkpt><trkpt lat="31.2637267" lon="-7.3537167"><ele>1841.0</ele><time>2026-04-25T11:35:39.399Z</time></trkpt><trkpt lat="31.26366" lon="-7.3538633"><ele>1841.6666666666665</ele><time>2026-04-25T11:35:40.399Z</time></trkpt><trkpt lat="31.263555" lon="-7.3540017"><ele>1842.3333333333335</ele><time>2026-04-25T11:35:41.399Z</time></trkpt><trkpt lat="31.2634333" lon="-7.35413"><ele>1843.0</ele><time>2026-04-25T11:35:42.399Z</time></trkpt><trkpt lat="31.263285" lon="-7.3542383"><ele>1843.0</ele><time>2026-04-25T11:35:43.399Z</time></trkpt><trkpt lat="31.263135" lon="-7.35436"><ele>1843.0</ele><time>2026-04-25T11:35:44.399Z</time></trkpt><trkpt lat="31.2630017" lon="-7.354485"><ele>1843.0</ele><time>2026-04-25T11:35:45.399Z</time></trkpt><trkpt lat="31.2628733" lon="-7.35463"><ele>1847.6666666666667</ele><time>2026-04-25T11:35:46.399Z</time></trkpt><trkpt lat="31.26275" lon="-7.3548"><ele>1852.3333333333335</ele><time>2026-04-25T11:35:47.399Z</time></trkpt><trkpt lat="31.262645" lon="-7.3549917"><ele>1857.0</ele><time>2026-04-25T11:35:48.399Z</time></trkpt><trkpt lat="31.2625433" lon="-7.3551817"><ele>1857.0</ele><time>2026-04-25T11:35:49.399Z</time></trkpt><trkpt lat="31.2624517" lon="-7.3553617"><ele>1857.0</ele><time>2026-04-25T11:35:50.399Z</time></trkpt><trkpt lat="31.262375" lon="-7.355535"><ele>1857.0</ele><time>2026-04-25T11:35:51.399Z</time></trkpt><trkpt lat="31.2622933" lon="-7.3556883"><ele>1860.0</ele><time>2026-04-25T11:35:52.399Z</time></trkpt><trkpt lat="31.2622233" lon="-7.355835"><ele>1863.0</ele><time>2026-04-25T11:35:53.399Z</time></trkpt><trkpt lat="31.2621633" lon="-7.3559767"><ele>1866.0</ele><time>2026-04-25T11:35:54.399Z</time></trkpt><trkpt lat="31.2621167" lon="-7.35611"><ele>1869.0</ele><time>2026-04-25T11:35:55.399Z</time></trkpt><trkpt lat="31.26209" lon="-7.3562533"><ele>1870.5</ele><time>2026-04-25T11:35:56.399Z</time></trkpt><trkpt lat="31.2620917" lon="-7.35642"><ele>1872.0</ele><time>2026-04-25T11:35:57.399Z</time></trkpt><trkpt lat="31.26212" lon="-7.3565867"><ele>1873.5</ele><time>2026-04-25T11:35:58.399Z</time></trkpt><trkpt lat="31.26218" lon="-7.3567533"><ele>1875.0</ele><time>2026-04-25T11:35:59.399Z</time></trkpt><trkpt lat="31.2622617" lon="-7.356915"><ele>1874.6666666666665</ele><time>2026-04-25T11:36:00.399Z</time></trkpt><trkpt lat="31.2623617" lon="-7.3570817"><ele>1874.3333333333333</ele><time>2026-04-25T11:36:01.399Z</time></trkpt><trkpt lat="31.2624767" lon="-7.3572467"><ele>1874.0</ele><time>2026-04-25T11:36:02.399Z</time></trkpt><trkpt lat="31.2626233" lon="-7.3574067"><ele>1874.0</ele><time>2026-04-25T11:36:03.399Z</time></trkpt><trkpt lat="31.2627567" lon="-7.3575517"><ele>1874.0</ele><time>2026-04-25T11:36:04.399Z</time></trkpt><trkpt lat="31.26288" lon="-7.3576767"><ele>1874.0</ele><time>2026-04-25T11:36:05.399Z</time></trkpt><trkpt lat="31.2629767" lon="-7.357815"><ele>1874.0</ele><time>2026-04-25T11:36:06.399Z</time></trkpt><trkpt lat="31.2630467" lon="-7.3579633"><ele>1874.0</ele><time>2026-04-25T11:36:07.4Z</time></trkpt><trkpt lat="31.2630967" lon="-7.3581233"><ele>1874.0</ele><time>2026-04-25T11:36:08.399Z</time></trkpt><trkpt lat="31.2631233" lon="-7.3583"><ele>1874.0</ele><time>2026-04-25T11:36:09.399Z</time></trkpt><trkpt lat="31.2631317" lon="-7.358485"><ele>1877.0</ele><time>2026-04-25T11:36:10.399Z</time></trkpt><trkpt lat="31.263105" lon="-7.3586733"><ele>1880.0</ele><time>2026-04-25T11:36:11.399Z</time></trkpt><trkpt lat="31.263055" lon="-7.358875"><ele>1883.0</ele><time>2026-04-25T11:36:12.399Z</time></trkpt><trkpt lat="31.2630017" lon="-7.3590817"><ele>1885.3333333333333</ele><time>2026-04-25T11:36:13.399Z</time></trkpt><trkpt lat="31.2629467" lon="-7.3592817"><ele>1887.6666666666665</ele><time>2026-04-25T11:36:14.399Z</time></trkpt><trkpt lat="31.2628783" lon="-7.3594583"><ele>1890.0</ele><time>2026-04-25T11:36:15.399Z</time></trkpt><trkpt lat="31.26279" lon="-7.3596233"><ele>1887.6666666666665</ele><time>2026-04-25T11:36:16.399Z</time></trkpt><trkpt lat="31.2626767" lon="-7.359775"><ele>1885.3333333333333</ele><time>2026-04-25T11:36:17.4Z</time></trkpt><trkpt lat="31.2625333" lon="-7.35989"><ele>1883.0</ele><time>2026-04-25T11:36:18.399Z</time></trkpt><trkpt lat="31.2623867" lon="-7.35998"><ele>1890.3333333333333</ele><time>2026-04-25T11:36:19.399Z</time></trkpt><trkpt lat="31.26223" lon="-7.3600683"><ele>1897.6666666666665</ele><time>2026-04-25T11:36:20.399Z</time></trkpt><trkpt lat="31.262095" lon="-7.3601883"><ele>1905.0</ele><time>2026-04-25T11:36:21.399Z</time></trkpt><trkpt lat="31.2619733" lon="-7.3603333"><ele>1905.0</ele><time>2026-04-25T11:36:22.399Z</time></trkpt><trkpt lat="31.2618517" lon="-7.360495"><ele>1905.0</ele><time>2026-04-25T11:36:23.4Z</time></trkpt><trkpt lat="31.26172" lon="-7.360655"><ele>1905.0</ele><time>2026-04-25T11:36:24.399Z</time></trkpt><trkpt lat="31.2616033" lon="-7.36083"><ele>1906.0</ele><time>2026-04-25T11:36:25.399Z</time></trkpt><trkpt lat="31.261505" lon="-7.3610067"><ele>1907.0</ele><time>2026-04-25T11:36:26.399Z</time></trkpt><trkpt lat="31.2614233" lon="-7.3611733"><ele>1908.0</ele><time>2026-04-25T11:36:27.399Z</time></trkpt><trkpt lat="31.2613717" lon="-7.3613367"><ele>1906.5</ele><time>2026-04-25T11:36:28.399Z</time></trkpt><trkpt lat="31.2613517" lon="-7.3615067"><ele>1905.0</ele><time>2026-04-25T11:36:29.399Z</time></trkpt><trkpt lat="31.26137" lon="-7.361675"><ele>1903.5</ele><time>2026-04-25T11:36:30.399Z</time></trkpt><trkpt lat="31.2614183" lon="-7.361845"><ele>1902.0</ele><time>2026-04-25T11:36:31.399Z</time></trkpt><trkpt lat="31.2614867" lon="-7.3620183"><ele>1902.0</ele><time>2026-04-25T11:36:32.399Z</time></trkpt><trkpt lat="31.2615517" lon="-7.362195"><ele>1902.0</ele><time>2026-04-25T11:36:33.399Z</time></trkpt><trkpt lat="31.2616167" lon="-7.36237"><ele>1902.0</ele><time>2026-04-25T11:36:34.399Z</time></trkpt><trkpt lat="31.2616683" lon="-7.3625617"><ele>1902.0</ele><time>2026-04-25T11:36:35.399Z</time></trkpt><trkpt lat="31.26171" lon="-7.3627733"><ele>1902.0</ele><time>2026-04-25T11:36:36.399Z</time></trkpt><trkpt lat="31.2617317" lon="-7.3629983"><ele>1902.0</ele><time>2026-04-25T11:36:37.399Z</time></trkpt><trkpt lat="31.2617417" lon="-7.363235"><ele>1903.6666666666665</ele><time>2026-04-25T11:36:38.399Z</time></trkpt><trkpt lat="31.2617567" lon="-7.3634767"><ele>1905.3333333333333</ele><time>2026-04-25T11:36:39.399Z</time></trkpt><trkpt lat="31.2617817" lon="-7.3637283"><ele>1907.0</ele><time>2026-04-25T11:36:40.399Z</time></trkpt><trkpt lat="31.2618033" lon="-7.3639817"><ele>1909.6666666666665</ele><time>2026-04-25T11:36:41.399Z</time></trkpt><trkpt lat="31.2618267" lon="-7.364215"><ele>1912.3333333333335</ele><time>2026-04-25T11:36:42.399Z</time></trkpt><trkpt lat="31.2618633" lon="-7.3644283"><ele>1915.0</ele><time>2026-04-25T11:36:43.399Z</time></trkpt><trkpt lat="31.2619133" lon="-7.3646367"><ele>1918.6666666666667</ele><time>2026-04-25T11:36:44.399Z</time></trkpt><trkpt lat="31.2619733" lon="-7.3648317"><ele>1922.3333333333335</ele><time>2026-04-25T11:36:45.399Z</time></trkpt><trkpt lat="31.2620433" lon="-7.365015"><ele>1926.0</ele><time>2026-04-25T11:36:46.399Z</time></trkpt><trkpt lat="31.2620917" lon="-7.3651917"><ele>1926.0</ele><time>2026-04-25T11:36:47.399Z</time></trkpt><trkpt lat="31.26213" lon="-7.3653733"><ele>1926.0</ele><time>2026-04-25T11:36:48.399Z</time></trkpt><trkpt lat="31.2621533" lon="-7.3655533"><ele>1926.0</ele><time>2026-04-25T11:36:49.399Z</time></trkpt><trkpt lat="31.262145" lon="-7.36574"><ele>1926.0</ele><time>2026-04-25T11:36:50.399Z</time></trkpt><trkpt lat="31.262125" lon="-7.3659433"><ele>1926.0</ele><time>2026-04-25T11:36:51.399Z</time></trkpt><trkpt lat="31.262095" lon="-7.366155"><ele>1926.0</ele><time>2026-04-25T11:36:52.399Z</time></trkpt><trkpt lat="31.2620783" lon="-7.3663833"><ele>1926.0</ele><time>2026-04-25T11:36:53.399Z</time></trkpt><trkpt lat="31.2620683" lon="-7.3666233"><ele>1926.0</ele><time>2026-04-25T11:36:54.4Z</time></trkpt><trkpt lat="31.2620633" lon="-7.3668717"><ele>1926.0</ele><time>2026-04-25T11:36:55.399Z</time></trkpt><trkpt lat="31.2620667" lon="-7.367105"><ele>1926.3333333333335</ele><time>2026-04-25T11:36:56.399Z</time></trkpt><trkpt lat="31.26208" lon="-7.36733"><ele>1926.6666666666667</ele><time>2026-04-25T11:36:57.399Z</time></trkpt><trkpt lat="31.2620733" lon="-7.3675483"><ele>1927.0</ele><time>2026-04-25T11:36:58.399Z</time></trkpt><trkpt lat="31.2620467" lon="-7.36776"><ele>1927.0</ele><time>2026-04-25T11:36:59.399Z</time></trkpt><trkpt lat="31.26199" lon="-7.3679533"><ele>1927.0</ele><time>2026-04-25T11:37:00.399Z</time></trkpt><trkpt lat="31.2619017" lon="-7.3681333"><ele>1927.0</ele><time>2026-04-25T11:37:01.4Z</time></trkpt><trkpt lat="31.2617783" lon="-7.3683167"><ele>1925.3333333333335</ele><time>2026-04-25T11:37:02.399Z</time></trkpt><trkpt lat="31.261655" lon="-7.368505"><ele>1923.6666666666665</ele><time>2026-04-25T11:37:03.399Z</time></trkpt><trkpt lat="31.2615267" lon="-7.3687133"><ele>1922.0</ele><time>2026-04-25T11:37:04.399Z</time></trkpt><trkpt lat="31.2614083" lon="-7.36894"><ele>1930.0</ele><time>2026-04-25T11:37:05.399Z</time></trkpt><trkpt lat="31.2613017" lon="-7.369155"><ele>1938.0</ele><time>2026-04-25T11:37:06.399Z</time></trkpt><trkpt lat="31.2612183" lon="-7.3693633"><ele>1946.0</ele><time>2026-04-25T11:37:07.399Z</time></trkpt><trkpt lat="31.2611517" lon="-7.3695583"><ele>1943.0</ele><time>2026-04-25T11:37:08.399Z</time></trkpt><trkpt lat="31.2610867" lon="-7.3697483"><ele>1940.0</ele><time>2026-04-25T11:37:09.399Z</time></trkpt><trkpt lat="31.2610317" lon="-7.3699467"><ele>1937.0</ele><time>2026-04-25T11:37:10.399Z</time></trkpt><trkpt lat="31.2609667" lon="-7.3701417"><ele>1937.0</ele><time>2026-04-25T11:37:11.399Z</time></trkpt><trkpt lat="31.2609117" lon="-7.370345"><ele>1937.0</ele><time>2026-04-25T11:37:12.399Z</time></trkpt><trkpt lat="31.2608667" lon="-7.3705467"><ele>1937.0</ele><time>2026-04-25T11:37:13.399Z</time></trkpt><trkpt lat="31.260835" lon="-7.370735"><ele>1937.0</ele><time>2026-04-25T11:37:14.399Z</time></trkpt><trkpt lat="31.260815" lon="-7.370915"><ele>1937.0</ele><time>2026-04-25T11:37:15.399Z</time></trkpt><trkpt lat="31.2608" lon="-7.37109"><ele>1937.0</ele><time>2026-04-25T11:37:16.399Z</time></trkpt><trkpt lat="31.260785" lon="-7.3712567"><ele>1937.0</ele><time>2026-04-25T11:37:17.399Z</time></trkpt><trkpt lat="31.2607667" lon="-7.3714133"><ele>1937.0</ele><time>2026-04-25T11:37:18.399Z</time></trkpt><trkpt lat="31.260755" lon="-7.3715717"><ele>1937.0</ele><time>2026-04-25T11:37:19.399Z</time></trkpt><trkpt lat="31.26074" lon="-7.371735"><ele>1937.0</ele><time>2026-04-25T11:37:20.399Z</time></trkpt><trkpt lat="31.2607283" lon="-7.37189"><ele>1937.0</ele><time>2026-04-25T11:37:21.399Z</time></trkpt><trkpt lat="31.2607133" lon="-7.3720483"><ele>1939.25</ele><time>2026-04-25T11:37:22.399Z</time></trkpt><trkpt lat="31.2606983" lon="-7.3722083"><ele>1941.5</ele><time>2026-04-25T11:37:23.4Z</time></trkpt><trkpt lat="31.2606817" lon="-7.3723667"><ele>1943.75</ele><time>2026-04-25T11:37:24.399Z</time></trkpt><trkpt lat="31.2606567" lon="-7.372525"><ele>1946.0</ele><time>2026-04-25T11:37:25.399Z</time></trkpt><trkpt lat="31.26063" lon="-7.3726833"><ele>1945.25</ele><time>2026-04-25T11:37:26.4Z</time></trkpt><trkpt lat="31.26059" lon="-7.3728367"><ele>1944.5</ele><time>2026-04-25T11:37:27.399Z</time></trkpt><trkpt lat="31.2605433" lon="-7.3729933"><ele>1943.75</ele><time>2026-04-25T11:37:28.399Z</time></trkpt><trkpt lat="31.260495" lon="-7.3731533"><ele>1943.0</ele><time>2026-04-25T11:37:29.399Z</time></trkpt><trkpt lat="31.260455" lon="-7.3733317"><ele>1945.3333333333333</ele><time>2026-04-25T11:37:30.399Z</time></trkpt><trkpt lat="31.2604233" lon="-7.37353"><ele>1947.6666666666665</ele><time>2026-04-25T11:37:31.399Z</time></trkpt><trkpt lat="31.2604017" lon="-7.37375"><ele>1950.0</ele><time>2026-04-25T11:37:32.399Z</time></trkpt><trkpt lat="31.2603783" lon="-7.3739833"><ele>1951.0</ele><time>2026-04-25T11:37:33.399Z</time></trkpt><trkpt lat="31.26036" lon="-7.3742267"><ele>1952.0</ele><time>2026-04-25T11:37:34.399Z</time></trkpt><trkpt lat="31.26033" lon="-7.37446"><ele>1953.0</ele><time>2026-04-25T11:37:35.399Z</time></trkpt><trkpt lat="31.2603" lon="-7.3746733"><ele>1953.3333333333335</ele><time>2026-04-25T11:37:36.399Z</time></trkpt><trkpt lat="31.2602733" lon="-7.3748767"><ele>1953.6666666666667</ele><time>2026-04-25T11:37:37.399Z</time></trkpt><trkpt lat="31.2602483" lon="-7.3750917"><ele>1954.0</ele><time>2026-04-25T11:37:38.399Z</time></trkpt><trkpt lat="31.260225" lon="-7.375305"><ele>1955.0</ele><time>2026-04-25T11:37:39.399Z</time></trkpt><trkpt lat="31.2602167" lon="-7.3755267"><ele>1956.0</ele><time>2026-04-25T11:37:40.399Z</time></trkpt><trkpt lat="31.26023" lon="-7.3757483"><ele>1957.0</ele><time>2026-04-25T11:37:41.399Z</time></trkpt><trkpt lat="31.26026" lon="-7.3759683"><ele>1957.0</ele><time>2026-04-25T11:37:42.399Z</time></trkpt><trkpt lat="31.2602983" lon="-7.3761833"><ele>1957.0</ele><time>2026-04-25T11:37:43.399Z</time></trkpt><trkpt lat="31.26032" lon="-7.376385"><ele>1957.0</ele><time>2026-04-25T11:37:44.399Z</time></trkpt><trkpt lat="31.2603067" lon="-7.3765717"><ele>1958.0</ele><time>2026-04-25T11:37:45.399Z</time></trkpt><trkpt lat="31.260265" lon="-7.3767483"><ele>1959.0</ele><time>2026-04-25T11:37:46.399Z</time></trkpt><trkpt lat="31.2601933" lon="-7.3769167"><ele>1960.0</ele><time>2026-04-25T11:37:47.399Z</time></trkpt><trkpt lat="31.2601067" lon="-7.3770933"><ele>1963.0</ele><time>2026-04-25T11:37:48.399Z</time></trkpt><trkpt lat="31.2600217" lon="-7.3772817"><ele>1966.0</ele><time>2026-04-25T11:37:49.399Z</time></trkpt><trkpt lat="31.2599417" lon="-7.3774767"><ele>1969.0</ele><time>2026-04-25T11:37:50.399Z</time></trkpt><trkpt lat="31.2598583" lon="-7.3776783"><ele>1969.0</ele><time>2026-04-25T11:37:51.399Z</time></trkpt><trkpt lat="31.2597717" lon="-7.3778733"><ele>1969.0</ele><time>2026-04-25T11:37:52.399Z</time></trkpt><trkpt lat="31.2596733" lon="-7.3780683"><ele>1969.0</ele><time>2026-04-25T11:37:53.399Z</time></trkpt><trkpt lat="31.2595667" lon="-7.3782617"><ele>1969.0</ele><time>2026-04-25T11:37:54.399Z</time></trkpt><trkpt lat="31.2594567" lon="-7.3784567"><ele>1969.0</ele><time>2026-04-25T11:37:55.399Z</time></trkpt><trkpt lat="31.259335" lon="-7.3786467"><ele>1969.0</ele><time>2026-04-25T11:37:56.399Z</time></trkpt><trkpt lat="31.259215" lon="-7.3788267"><ele>1970.6666666666667</ele><time>2026-04-25T11:37:57.399Z</time></trkpt><trkpt lat="31.2590767" lon="-7.37899"><ele>1972.3333333333335</ele><time>2026-04-25T11:37:58.399Z</time></trkpt><trkpt lat="31.258915" lon="-7.37914"><ele>1974.0</ele><time>2026-04-25T11:37:59.399Z</time></trkpt><trkpt lat="31.25875" lon="-7.379285"><ele>1974.0</ele><time>2026-04-25T11:38:00.399Z</time></trkpt><trkpt lat="31.2585733" lon="-7.37942"><ele>1974.0</ele><time>2026-04-25T11:38:01.399Z</time></trkpt><trkpt lat="31.2584" lon="-7.3795583"><ele>1974.0</ele><time>2026-04-25T11:38:02.399Z</time></trkpt><trkpt lat="31.258215" lon="-7.3796917"><ele>1977.3333333333335</ele><time>2026-04-25T11:38:03.4Z</time></trkpt><trkpt lat="31.2580317" lon="-7.379825"><ele>1980.6666666666667</ele><time>2026-04-25T11:38:04.399Z</time></trkpt><trkpt lat="31.2578383" lon="-7.3799467"><ele>1984.0</ele><time>2026-04-25T11:38:05.399Z</time></trkpt><trkpt lat="31.2576483" lon="-7.3800417"><ele>1984.0</ele><time>2026-04-25T11:38:06.399Z</time></trkpt><trkpt lat="31.2574683" lon="-7.3801133"><ele>1984.0</ele><time>2026-04-25T11:38:07.399Z</time></trkpt><trkpt lat="31.257295" lon="-7.3801567"><ele>1984.0</ele><time>2026-04-25T11:38:08.399Z</time></trkpt><trkpt lat="31.2571383" lon="-7.380185"><ele>1986.0</ele><time>2026-04-25T11:38:09.399Z</time></trkpt><trkpt lat="31.25698" lon="-7.380205"><ele>1988.0</ele><time>2026-04-25T11:38:10.399Z</time></trkpt><trkpt lat="31.2568317" lon="-7.38023"><ele>1990.0</ele><time>2026-04-25T11:38:11.399Z</time></trkpt><trkpt lat="31.2567017" lon="-7.3802533"><ele>1992.0</ele><time>2026-04-25T11:38:12.399Z</time></trkpt><trkpt lat="31.25661" lon="-7.3802767"><ele>1992.0</ele><time>2026-04-25T11:38:13.399Z</time></trkpt><trkpt lat="31.2565483" lon="-7.380315"><ele>1991.9999999999998</ele><time>2026-04-25T11:38:14.399Z</time></trkpt><trkpt lat="31.256535" lon="-7.38044"><ele>1991.9999999999998</ele><time>2026-04-25T11:38:16.399Z</time></trkpt><trkpt lat="31.2566317" lon="-7.3805383"><ele>1992.0</ele><time>2026-04-25T11:38:18.399Z</time></trkpt><trkpt lat="31.2567167" lon="-7.3805467"><ele>1992.0</ele><time>2026-04-25T11:38:19.399Z</time></trkpt><trkpt lat="31.2568217" lon="-7.3805333"><ele>1994.75</ele><time>2026-04-25T11:38:20.399Z</time></trkpt><trkpt lat="31.2569517" lon="-7.3805217"><ele>1997.5</ele><time>2026-04-25T11:38:21.4Z</time></trkpt><trkpt lat="31.2570967" lon="-7.3805317"><ele>2000.25</ele><time>2026-04-25T11:38:22.399Z</time></trkpt><trkpt lat="31.2572383" lon="-7.3805733"><ele>2003.0</ele><time>2026-04-25T11:38:23.399Z</time></trkpt><trkpt lat="31.2573533" lon="-7.3806467"><ele>2003.0</ele><time>2026-04-25T11:38:24.399Z</time></trkpt><trkpt lat="31.2574567" lon="-7.3807583"><ele>2003.0</ele><time>2026-04-25T11:38:25.399Z</time></trkpt><trkpt lat="31.257545" lon="-7.3808933"><ele>2003.0</ele><time>2026-04-25T11:38:26.399Z</time></trkpt><trkpt lat="31.2576183" lon="-7.3810517"><ele>2003.0</ele><time>2026-04-25T11:38:27.399Z</time></trkpt><trkpt lat="31.2576867" lon="-7.381225"><ele>2010.6666666666665</ele><time>2026-04-25T11:38:28.399Z</time></trkpt><trkpt lat="31.25774" lon="-7.381415"><ele>2018.3333333333335</ele><time>2026-04-25T11:38:29.399Z</time></trkpt><trkpt lat="31.2577733" lon="-7.3816"><ele>2026.0</ele><time>2026-04-25T11:38:30.399Z</time></trkpt><trkpt lat="31.257825" lon="-7.3817783"><ele>2026.0</ele><time>2026-04-25T11:38:31.399Z</time></trkpt><trkpt lat="31.2579117" lon="-7.3819367"><ele>2026.0</ele><time>2026-04-25T11:38:32.399Z</time></trkpt><trkpt lat="31.2580133" lon="-7.38208"><ele>2026.0</ele><time>2026-04-25T11:38:33.399Z</time></trkpt><trkpt lat="31.2580883" lon="-7.3822333"><ele>2022.75</ele><time>2026-04-25T11:38:34.399Z</time></trkpt><trkpt lat="31.2581217" lon="-7.3823967"><ele>2019.5</ele><time>2026-04-25T11:38:35.399Z</time></trkpt><trkpt lat="31.2581317" lon="-7.3825567"><ele>2016.25</ele><time>2026-04-25T11:38:36.399Z</time></trkpt><trkpt lat="31.25815" lon="-7.3827233"><ele>2013.0</ele><time>2026-04-25T11:38:37.399Z</time></trkpt><trkpt lat="31.2581883" lon="-7.3828833"><ele>2016.6666666666665</ele><time>2026-04-25T11:38:38.399Z</time></trkpt><trkpt lat="31.258255" lon="-7.3830533"><ele>2020.3333333333333</ele><time>2026-04-25T11:38:39.399Z</time></trkpt><trkpt lat="31.2583217" lon="-7.3832317"><ele>2024.0</ele><time>2026-04-25T11:38:40.399Z</time></trkpt><trkpt lat="31.2583833" lon="-7.3834233"><ele>2024.0</ele><time>2026-04-25T11:38:41.399Z</time></trkpt><trkpt lat="31.2584317" lon="-7.3836067"><ele>2024.0</ele><time>2026-04-25T11:38:42.399Z</time></trkpt><trkpt lat="31.2584767" lon="-7.383775"><ele>2024.0</ele><time>2026-04-25T11:38:43.399Z</time></trkpt><trkpt lat="31.2585217" lon="-7.3839383"><ele>2027.3333333333333</ele><time>2026-04-25T11:38:44.399Z</time></trkpt><trkpt lat="31.25857" lon="-7.3841033"><ele>2030.6666666666665</ele><time>2026-04-25T11:38:45.4Z</time></trkpt><trkpt lat="31.2586283" lon="-7.3842867"><ele>2034.0</ele><time>2026-04-25T11:38:46.399Z</time></trkpt><trkpt lat="31.258695" lon="-7.38448"><ele>2034.0</ele><time>2026-04-25T11:38:47.399Z</time></trkpt><trkpt lat="31.258755" lon="-7.3846717"><ele>2034.0</ele><time>2026-04-25T11:38:48.399Z</time></trkpt><trkpt lat="31.2587917" lon="-7.38486"><ele>2034.0</ele><time>2026-04-25T11:38:49.399Z</time></trkpt><trkpt lat="31.2588333" lon="-7.3850233"><ele>2034.25</ele><time>2026-04-25T11:38:50.399Z</time></trkpt><trkpt lat="31.2588983" lon="-7.38515"><ele>2034.5</ele><time>2026-04-25T11:38:51.4Z</time></trkpt><trkpt lat="31.2589983" lon="-7.3852467"><ele>2034.75</ele><time>2026-04-25T11:38:52.399Z</time></trkpt><trkpt lat="31.2591083" lon="-7.385325"><ele>2035.0</ele><time>2026-04-25T11:38:53.399Z</time></trkpt><trkpt lat="31.259215" lon="-7.3854117"><ele>2035.0</ele><time>2026-04-25T11:38:54.399Z</time></trkpt><trkpt lat="31.2593" lon="-7.3855117"><ele>2035.0</ele><time>2026-04-25T11:38:55.399Z</time></trkpt><trkpt lat="31.259355" lon="-7.3856383"><ele>2035.0</ele><time>2026-04-25T11:38:56.399Z</time></trkpt><trkpt lat="31.2593867" lon="-7.3858017"><ele>2035.0</ele><time>2026-04-25T11:38:57.399Z</time></trkpt><trkpt lat="31.25939" lon="-7.385975"><ele>2038.6666666666667</ele><time>2026-04-25T11:38:58.399Z</time></trkpt><trkpt lat="31.2593667" lon="-7.3861383"><ele>2042.3333333333335</ele><time>2026-04-25T11:38:59.399Z</time></trkpt><trkpt lat="31.25931" lon="-7.3863083"><ele>2046.0</ele><time>2026-04-25T11:39:00.399Z</time></trkpt><trkpt lat="31.2592317" lon="-7.3864817"><ele>2047.6666666666665</ele><time>2026-04-25T11:39:01.399Z</time></trkpt><trkpt lat="31.2591667" lon="-7.38668"><ele>2049.333333333333</ele><time>2026-04-25T11:39:02.399Z</time></trkpt><trkpt lat="31.259135" lon="-7.3868983"><ele>2051.0</ele><time>2026-04-25T11:39:03.399Z</time></trkpt><trkpt lat="31.2591033" lon="-7.38714"><ele>2053.0</ele><time>2026-04-25T11:39:04.399Z</time></trkpt><trkpt lat="31.2590917" lon="-7.3873933"><ele>2055.0</ele><time>2026-04-25T11:39:05.399Z</time></trkpt><trkpt lat="31.2590767" lon="-7.3876133"><ele>2057.0</ele><time>2026-04-25T11:39:06.399Z</time></trkpt><trkpt lat="31.2590817" lon="-7.3878183"><ele>2057.0</ele><time>2026-04-25T11:39:07.399Z</time></trkpt><trkpt lat="31.2591133" lon="-7.387995"><ele>2057.0</ele><time>2026-04-25T11:39:08.399Z</time></trkpt><trkpt lat="31.259185" lon="-7.3881533"><ele>2057.0</ele><time>2026-04-25T11:39:09.399Z</time></trkpt><trkpt lat="31.2592817" lon="-7.3883233"><ele>2061.333333333333</ele><time>2026-04-25T11:39:10.399Z</time></trkpt><trkpt lat="31.2593683" lon="-7.38851"><ele>2065.6666666666665</ele><time>2026-04-25T11:39:11.399Z</time></trkpt><trkpt lat="31.2594233" lon="-7.3887"><ele>2070.0</ele><time>2026-04-25T11:39:12.399Z</time></trkpt><trkpt lat="31.2594733" lon="-7.388865"><ele>2071.25</ele><time>2026-04-25T11:39:13.399Z</time></trkpt><trkpt lat="31.2595533" lon="-7.388985"><ele>2072.5</ele><time>2026-04-25T11:39:14.399Z</time></trkpt><trkpt lat="31.25966" lon="-7.3890983"><ele>2073.75</ele><time>2026-04-25T11:39:15.4Z</time></trkpt><trkpt lat="31.2597667" lon="-7.389215"><ele>2075.0</ele><time>2026-04-25T11:39:16.399Z</time></trkpt><trkpt lat="31.259855" lon="-7.389345"><ele>2075.0</ele><time>2026-04-25T11:39:17.399Z</time></trkpt><trkpt lat="31.2599" lon="-7.3894783"><ele>2075.0</ele><time>2026-04-25T11:39:18.4Z</time></trkpt><trkpt lat="31.2599467" lon="-7.3895967"><ele>2075.0</ele><time>2026-04-25T11:39:19.399Z</time></trkpt><trkpt lat="31.260005" lon="-7.3896667"><ele>2075.0</ele><time>2026-04-25T11:39:20.399Z</time></trkpt><trkpt lat="31.2600817" lon="-7.3896933"><ele>2075.0</ele><time>2026-04-25T11:39:21.399Z</time></trkpt><trkpt lat="31.2601617" lon="-7.3896767"><ele>2075.0</ele><time>2026-04-25T11:39:22.399Z</time></trkpt><trkpt lat="31.26023" lon="-7.3896283"><ele>2075.0</ele><time>2026-04-25T11:39:23.399Z</time></trkpt><trkpt lat="31.26027" lon="-7.3895333"><ele>2075.0</ele><time>2026-04-25T11:39:24.399Z</time></trkpt><trkpt lat="31.260285" lon="-7.3894117"><ele>2075.0</ele><time>2026-04-25T11:39:25.399Z</time></trkpt><trkpt lat="31.2602667" lon="-7.3892567"><ele>2075.0</ele><time>2026-04-25T11:39:26.399Z</time></trkpt><trkpt lat="31.2602133" lon="-7.3890667"><ele>2075.0</ele><time>2026-04-25T11:39:27.399Z</time></trkpt><trkpt lat="31.2601383" lon="-7.3888633"><ele>2075.0</ele><time>2026-04-25T11:39:28.399Z</time></trkpt><trkpt lat="31.26009" lon="-7.3886733"><ele>2075.0</ele><time>2026-04-25T11:39:29.399Z</time></trkpt><trkpt lat="31.2600717" lon="-7.3885017"><ele>2075.0</ele><time>2026-04-25T11:39:30.399Z</time></trkpt><trkpt lat="31.2600917" lon="-7.3883317"><ele>2075.0</ele><time>2026-04-25T11:39:31.399Z</time></trkpt><trkpt lat="31.26015" lon="-7.388155"><ele>2075.0</ele><time>2026-04-25T11:39:32.399Z</time></trkpt><trkpt lat="31.2602383" lon="-7.38797"><ele>2071.5</ele><time>2026-04-25T11:39:33.4Z</time></trkpt><trkpt lat="31.2603617" lon="-7.387755"><ele>2068.0</ele><time>2026-04-25T11:39:34.399Z</time></trkpt><trkpt lat="31.2604817" lon="-7.3875183"><ele>2068.0</ele><time>2026-04-25T11:39:35.399Z</time></trkpt><trkpt lat="31.26058" lon="-7.3872867"><ele>2068.0</ele><time>2026-04-25T11:39:36.399Z</time></trkpt><trkpt lat="31.2606467" lon="-7.3870717"><ele>2068.0</ele><time>2026-04-25T11:39:37.399Z</time></trkpt><trkpt lat="31.2606967" lon="-7.3868717"><ele>2074.0</ele><time>2026-04-25T11:39:38.399Z</time></trkpt><trkpt lat="31.2607267" lon="-7.3866517"><ele>2080.0</ele><time>2026-04-25T11:39:39.399Z</time></trkpt><trkpt lat="31.2607533" lon="-7.3864267"><ele>2086.0</ele><time>2026-04-25T11:39:40.399Z</time></trkpt><trkpt lat="31.260795" lon="-7.3861967"><ele>2086.0</ele><time>2026-04-25T11:39:41.399Z</time></trkpt><trkpt lat="31.2608583" lon="-7.38599"><ele>2086.0</ele><time>2026-04-25T11:39:42.399Z</time></trkpt><trkpt lat="31.2609317" lon="-7.3858067"><ele>2086.0</ele><time>2026-04-25T11:39:43.399Z</time></trkpt><trkpt lat="31.2610083" lon="-7.38565"><ele>2086.0</ele><time>2026-04-25T11:39:44.399Z</time></trkpt><trkpt lat="31.2610917" lon="-7.3855183"><ele>2086.0</ele><time>2026-04-25T11:39:45.399Z</time></trkpt><trkpt lat="31.2611783" lon="-7.3854017"><ele>2086.0</ele><time>2026-04-25T11:39:46.399Z</time></trkpt><trkpt lat="31.26127" lon="-7.385305"><ele>2086.0</ele><time>2026-04-25T11:39:47.399Z</time></trkpt><trkpt lat="31.2613617" lon="-7.385225"><ele>2089.25</ele><time>2026-04-25T11:39:48.399Z</time></trkpt><trkpt lat="31.2614567" lon="-7.3851417"><ele>2092.5</ele><time>2026-04-25T11:39:49.399Z</time></trkpt><trkpt lat="31.2615533" lon="-7.3850567"><ele>2095.75</ele><time>2026-04-25T11:39:50.399Z</time></trkpt><trkpt lat="31.2616483" lon="-7.3849667"><ele>2099.0</ele><time>2026-04-25T11:39:51.399Z</time></trkpt><trkpt lat="31.261735" lon="-7.3848667"><ele>2099.0</ele><time>2026-04-25T11:39:52.399Z</time></trkpt><trkpt lat="31.26181" lon="-7.3847567"><ele>2099.0</ele><time>2026-04-25T11:39:53.399Z</time></trkpt><trkpt lat="31.2618717" lon="-7.3846467"><ele>2099.0</ele><time>2026-04-25T11:39:54.399Z</time></trkpt><trkpt lat="31.2619217" lon="-7.3845417"><ele>2099.0</ele><time>2026-04-25T11:39:55.399Z</time></trkpt><trkpt lat="31.2619633" lon="-7.3844433"><ele>2099.0</ele><time>2026-04-25T11:39:56.399Z</time></trkpt><trkpt lat="31.2620033" lon="-7.3843683"><ele>2097.833333333333</ele><time>2026-04-25T11:39:57.399Z</time></trkpt><trkpt lat="31.2620433" lon="-7.3843033"><ele>2096.6666666666665</ele><time>2026-04-25T11:39:58.399Z</time></trkpt><trkpt lat="31.262115" lon="-7.3841983"><ele>2095.5</ele><time>2026-04-25T11:40:00.399Z</time></trkpt><trkpt lat="31.26217" lon="-7.384115"><ele>2094.3333333333335</ele><time>2026-04-25T11:40:02.399Z</time></trkpt><trkpt lat="31.26224" lon="-7.3840383"><ele>2093.166666666667</ele><time>2026-04-25T11:40:04.399Z</time></trkpt><trkpt lat="31.2622983" lon="-7.3840033"><ele>2092.0</ele><time>2026-04-25T11:40:06.399Z</time></trkpt><trkpt lat="31.26237" lon="-7.3840317"><ele>2095.2</ele><time>2026-04-25T11:40:36.399Z</time></trkpt><trkpt lat="31.2624333" lon="-7.3840317"><ele>2098.3999999999996</ele><time>2026-04-25T11:40:38.399Z</time></trkpt><trkpt lat="31.2625133" lon="-7.3840367"><ele>2101.6000000000004</ele><time>2026-04-25T11:40:42.399Z</time></trkpt><trkpt lat="31.26264" lon="-7.384025"><ele>2104.8</ele><time>2026-04-25T11:40:44.399Z</time></trkpt><trkpt lat="31.2627183" lon="-7.3839783"><ele>2108.0</ele><time>2026-04-25T11:40:45.399Z</time></trkpt><trkpt lat="31.2628067" lon="-7.38393"><ele>2108.0</ele><time>2026-04-25T11:40:46.399Z</time></trkpt><trkpt lat="31.2629117" lon="-7.383885"><ele>2108.0</ele><time>2026-04-25T11:40:47.399Z</time></trkpt><trkpt lat="31.2630317" lon="-7.3838517"><ele>2108.0</ele><time>2026-04-25T11:40:48.399Z</time></trkpt><trkpt lat="31.263165" lon="-7.383825"><ele>2108.0</ele><time>2026-04-25T11:40:49.399Z</time></trkpt><trkpt lat="31.2633167" lon="-7.3838017"><ele>2102.0</ele><time>2026-04-25T11:40:50.399Z</time></trkpt><trkpt lat="31.2634783" lon="-7.38378"><ele>2096.0</ele><time>2026-04-25T11:40:51.399Z</time></trkpt><trkpt lat="31.2636483" lon="-7.3837617"><ele>2090.0</ele><time>2026-04-25T11:40:52.399Z</time></trkpt><trkpt lat="31.26381" lon="-7.3837483"><ele>2094.5</ele><time>2026-04-25T11:40:53.399Z</time></trkpt><trkpt lat="31.263955" lon="-7.3837233"><ele>2099.0</ele><time>2026-04-25T11:40:54.399Z</time></trkpt><trkpt lat="31.2641" lon="-7.3837017"><ele>2103.5</ele><time>2026-04-25T11:40:55.399Z</time></trkpt><trkpt lat="31.26424" lon="-7.3836683"><ele>2108.0</ele><time>2026-04-25T11:40:56.399Z</time></trkpt><trkpt lat="31.2643833" lon="-7.383635"><ele>2108.0</ele><time>2026-04-25T11:40:57.399Z</time></trkpt><trkpt lat="31.2645283" lon="-7.3836017"><ele>2108.0</ele><time>2026-04-25T11:40:58.399Z</time></trkpt><trkpt lat="31.26469" lon="-7.3835833"><ele>2108.0</ele><time>2026-04-25T11:40:59.399Z</time></trkpt><trkpt lat="31.2648533" lon="-7.3835717"><ele>2110.6666666666665</ele><time>2026-04-25T11:41:00.399Z</time></trkpt><trkpt lat="31.2650183" lon="-7.3835633"><ele>2113.3333333333335</ele><time>2026-04-25T11:41:01.399Z</time></trkpt><trkpt lat="31.2651867" lon="-7.3835833"><ele>2116.0</ele><time>2026-04-25T11:41:02.399Z</time></trkpt><trkpt lat="31.2653667" lon="-7.3836517"><ele>2116.0</ele><time>2026-04-25T11:41:03.399Z</time></trkpt><trkpt lat="31.2655517" lon="-7.383755"><ele>2116.0</ele><time>2026-04-25T11:41:04.399Z</time></trkpt><trkpt lat="31.2657367" lon="-7.383865"><ele>2116.0</ele><time>2026-04-25T11:41:05.399Z</time></trkpt><trkpt lat="31.2659283" lon="-7.3839817"><ele>2125.3333333333335</ele><time>2026-04-25T11:41:06.399Z</time></trkpt><trkpt lat="31.2661017" lon="-7.3840817"><ele>2134.6666666666665</ele><time>2026-04-25T11:41:07.399Z</time></trkpt><trkpt lat="31.2662667" lon="-7.3841833"><ele>2144.0</ele><time>2026-04-25T11:41:08.4Z</time></trkpt><trkpt lat="31.266425" lon="-7.3842533"><ele>2138.0</ele><time>2026-04-25T11:41:09.399Z</time></trkpt><trkpt lat="31.2665967" lon="-7.384295"><ele>2132.0</ele><time>2026-04-25T11:41:10.399Z</time></trkpt><trkpt lat="31.266775" lon="-7.38428"><ele>2126.0</ele><time>2026-04-25T11:41:11.399Z</time></trkpt><trkpt lat="31.266965" lon="-7.384275"><ele>2126.0</ele><time>2026-04-25T11:41:12.399Z</time></trkpt><trkpt lat="31.2671317" lon="-7.3842567"><ele>2126.0</ele><time>2026-04-25T11:41:13.399Z</time></trkpt><trkpt lat="31.2672883" lon="-7.3842283"><ele>2126.0</ele><time>2026-04-25T11:41:14.399Z</time></trkpt><trkpt lat="31.267435" lon="-7.38418"><ele>2125.6666666666665</ele><time>2026-04-25T11:41:15.399Z</time></trkpt><trkpt lat="31.26757" lon="-7.3841"><ele>2125.3333333333335</ele><time>2026-04-25T11:41:16.399Z</time></trkpt><trkpt lat="31.2676817" lon="-7.3839833"><ele>2125.0</ele><time>2026-04-25T11:41:17.399Z</time></trkpt><trkpt lat="31.26777" lon="-7.383835"><ele>2125.0</ele><time>2026-04-25T11:41:18.4Z</time></trkpt><trkpt lat="31.2678217" lon="-7.3836583"><ele>2125.0</ele><time>2026-04-25T11:41:19.399Z</time></trkpt><trkpt lat="31.2678367" lon="-7.3834617"><ele>2125.0</ele><time>2026-04-25T11:41:20.399Z</time></trkpt><trkpt lat="31.2678183" lon="-7.3832583"><ele>2125.0</ele><time>2026-04-25T11:41:21.399Z</time></trkpt><trkpt lat="31.267775" lon="-7.3830467"><ele>2125.0</ele><time>2026-04-25T11:41:22.399Z</time></trkpt><trkpt lat="31.2677183" lon="-7.3828267"><ele>2125.0</ele><time>2026-04-25T11:41:23.399Z</time></trkpt><trkpt lat="31.2676767" lon="-7.3826217"><ele>2127.3333333333335</ele><time>2026-04-25T11:41:24.399Z</time></trkpt><trkpt lat="31.2676417" lon="-7.3824317"><ele>2129.6666666666665</ele><time>2026-04-25T11:41:25.399Z</time></trkpt><trkpt lat="31.267615" lon="-7.38225"><ele>2132.0</ele><time>2026-04-25T11:41:26.399Z</time></trkpt><trkpt lat="31.2676083" lon="-7.382065"><ele>2132.0</ele><time>2026-04-25T11:41:27.399Z</time></trkpt><trkpt lat="31.2676417" lon="-7.3818783"><ele>2132.0</ele><time>2026-04-25T11:41:28.399Z</time></trkpt><trkpt lat="31.2677067" lon="-7.3817"><ele>2132.0</ele><time>2026-04-25T11:41:29.399Z</time></trkpt><trkpt lat="31.2678133" lon="-7.3815333"><ele>2132.0</ele><time>2026-04-25T11:41:30.399Z</time></trkpt><trkpt lat="31.2679433" lon="-7.38136"><ele>2132.0</ele><time>2026-04-25T11:41:31.399Z</time></trkpt><trkpt lat="31.2680867" lon="-7.38119"><ele>2132.0</ele><time>2026-04-25T11:41:32.399Z</time></trkpt><trkpt lat="31.26822" lon="-7.3810233"><ele>2136.333333333333</ele><time>2026-04-25T11:41:33.399Z</time></trkpt><trkpt lat="31.268335" lon="-7.380865"><ele>2140.6666666666665</ele><time>2026-04-25T11:41:34.399Z</time></trkpt><trkpt lat="31.2684533" lon="-7.380725"><ele>2145.0</ele><time>2026-04-25T11:41:35.399Z</time></trkpt><trkpt lat="31.2685783" lon="-7.380605"><ele>2145.0</ele><time>2026-04-25T11:41:36.399Z</time></trkpt><trkpt lat="31.2687217" lon="-7.38052"><ele>2145.0</ele><time>2026-04-25T11:41:37.399Z</time></trkpt><trkpt lat="31.268895" lon="-7.3804733"><ele>2145.0</ele><time>2026-04-25T11:41:38.399Z</time></trkpt><trkpt lat="31.2690783" lon="-7.38047"><ele>2150.3333333333335</ele><time>2026-04-25T11:41:39.399Z</time></trkpt><trkpt lat="31.2692617" lon="-7.38052"><ele>2155.666666666667</ele><time>2026-04-25T11:41:40.399Z</time></trkpt><trkpt lat="31.2694467" lon="-7.3806017"><ele>2161.0</ele><time>2026-04-25T11:41:41.399Z</time></trkpt><trkpt lat="31.269645" lon="-7.3806833"><ele>2160.0</ele><time>2026-04-25T11:41:42.399Z</time></trkpt><trkpt lat="31.2698533" lon="-7.38076"><ele>2159.0</ele><time>2026-04-25T11:41:43.399Z</time></trkpt><trkpt lat="31.270065" lon="-7.380835"><ele>2158.0</ele><time>2026-04-25T11:41:44.399Z</time></trkpt><trkpt lat="31.27027" lon="-7.3809133"><ele>2158.0</ele><time>2026-04-25T11:41:45.399Z</time></trkpt><trkpt lat="31.2704633" lon="-7.3809817"><ele>2158.0</ele><time>2026-04-25T11:41:46.399Z</time></trkpt><trkpt lat="31.2706583" lon="-7.381025"><ele>2158.0</ele><time>2026-04-25T11:41:47.399Z</time></trkpt><trkpt lat="31.2708583" lon="-7.3810283"><ele>2159.3333333333335</ele><time>2026-04-25T11:41:48.399Z</time></trkpt><trkpt lat="31.271065" lon="-7.3809817"><ele>2160.6666666666665</ele><time>2026-04-25T11:41:49.399Z</time></trkpt><trkpt lat="31.2712683" lon="-7.3808817"><ele>2162.0</ele><time>2026-04-25T11:41:50.399Z</time></trkpt><trkpt lat="31.27145" lon="-7.380735"><ele>2164.5</ele><time>2026-04-25T11:41:51.399Z</time></trkpt><trkpt lat="31.2716033" lon="-7.3805433"><ele>2167.0</ele><time>2026-04-25T11:41:52.4Z</time></trkpt><trkpt lat="31.27173" lon="-7.3803217"><ele>2167.0</ele><time>2026-04-25T11:41:53.399Z</time></trkpt><trkpt lat="31.27185" lon="-7.3800767"><ele>2167.0</ele><time>2026-04-25T11:41:54.4Z</time></trkpt><trkpt lat="31.27197" lon="-7.37985"><ele>2164.3333333333335</ele><time>2026-04-25T11:41:55.399Z</time></trkpt><trkpt lat="31.2720933" lon="-7.379665"><ele>2161.6666666666665</ele><time>2026-04-25T11:41:56.4Z</time></trkpt><trkpt lat="31.2722233" lon="-7.3795083"><ele>2159.0</ele><time>2026-04-25T11:41:57.399Z</time></trkpt><trkpt lat="31.272375" lon="-7.37938"><ele>2167.0</ele><time>2026-04-25T11:41:58.399Z</time></trkpt><trkpt lat="31.2725483" lon="-7.3792933"><ele>2175.0</ele><time>2026-04-25T11:41:59.399Z</time></trkpt><trkpt lat="31.27274" lon="-7.379245"><ele>2183.0</ele><time>2026-04-25T11:42:00.399Z</time></trkpt><trkpt lat="31.27294" lon="-7.3792167"><ele>2186.0</ele><time>2026-04-25T11:42:01.399Z</time></trkpt><trkpt lat="31.2731317" lon="-7.379195"><ele>2189.0</ele><time>2026-04-25T11:42:02.399Z</time></trkpt><trkpt lat="31.2733133" lon="-7.37916"><ele>2192.0</ele><time>2026-04-25T11:42:03.399Z</time></trkpt><trkpt lat="31.2734833" lon="-7.379085"><ele>2192.0</ele><time>2026-04-25T11:42:04.399Z</time></trkpt><trkpt lat="31.27364" lon="-7.378955"><ele>2192.0</ele><time>2026-04-25T11:42:05.399Z</time></trkpt><trkpt lat="31.2737783" lon="-7.3787733"><ele>2192.0</ele><time>2026-04-25T11:42:06.399Z</time></trkpt><trkpt lat="31.273905" lon="-7.3785567"><ele>2193.5</ele><time>2026-04-25T11:42:07.399Z</time></trkpt><trkpt lat="31.2740217" lon="-7.37832"><ele>2195.0</ele><time>2026-04-25T11:42:08.399Z</time></trkpt><trkpt lat="31.2741583" lon="-7.3780583"><ele>2188.5</ele><time>2026-04-25T11:42:09.399Z</time></trkpt><trkpt lat="31.2743" lon="-7.3777883"><ele>2182.0</ele><time>2026-04-25T11:42:10.399Z</time></trkpt><trkpt lat="31.2744417" lon="-7.3775267"><ele>2182.0</ele><time>2026-04-25T11:42:11.399Z</time></trkpt><trkpt lat="31.2745733" lon="-7.37728"><ele>2182.0</ele><time>2026-04-25T11:42:12.399Z</time></trkpt><trkpt lat="31.27471" lon="-7.37705"><ele>2188.5</ele><time>2026-04-25T11:42:13.399Z</time></trkpt><trkpt lat="31.2748633" lon="-7.3768333"><ele>2195.0</ele><time>2026-04-25T11:42:14.399Z</time></trkpt><trkpt lat="31.2750267" lon="-7.3766333"><ele>2195.0</ele><time>2026-04-25T11:42:15.399Z</time></trkpt><trkpt lat="31.27521" lon="-7.3764633"><ele>2195.0</ele><time>2026-04-25T11:42:16.399Z</time></trkpt><trkpt lat="31.2754133" lon="-7.3763217"><ele>2193.5</ele><time>2026-04-25T11:42:17.399Z</time></trkpt><trkpt lat="31.2756283" lon="-7.376205"><ele>2192.0</ele><time>2026-04-25T11:42:18.399Z</time></trkpt><trkpt lat="31.2758317" lon="-7.3761"><ele>2192.0</ele><time>2026-04-25T11:42:19.399Z</time></trkpt><trkpt lat="31.276015" lon="-7.376005"><ele>2192.0</ele><time>2026-04-25T11:42:20.399Z</time></trkpt><trkpt lat="31.276185" lon="-7.3759383"><ele>2192.0</ele><time>2026-04-25T11:42:21.399Z</time></trkpt><trkpt lat="31.2763683" lon="-7.375895"><ele>2196.6666666666665</ele><time>2026-04-25T11:42:22.399Z</time></trkpt><trkpt lat="31.2765467" lon="-7.3758933"><ele>2201.3333333333335</ele><time>2026-04-25T11:42:23.399Z</time></trkpt><trkpt lat="31.27671" lon="-7.3759317"><ele>2206.0</ele><time>2026-04-25T11:42:24.399Z</time></trkpt><trkpt lat="31.276865" lon="-7.37601"><ele>2206.0</ele><time>2026-04-25T11:42:25.399Z</time></trkpt><trkpt lat="31.277" lon="-7.3761067"><ele>2206.0</ele><time>2026-04-25T11:42:26.399Z</time></trkpt><trkpt lat="31.2771283" lon="-7.3762017"><ele>2206.0</ele><time>2026-04-25T11:42:27.399Z</time></trkpt><trkpt lat="31.2772383" lon="-7.3762817"><ele>2206.0</ele><time>2026-04-25T11:42:28.399Z</time></trkpt><trkpt lat="31.27734" lon="-7.3763517"><ele>2209.166666666667</ele><time>2026-04-25T11:42:29.399Z</time></trkpt><trkpt lat="31.2774217" lon="-7.3764067"><ele>2212.3333333333335</ele><time>2026-04-25T11:42:30.399Z</time></trkpt><trkpt lat="31.277505" lon="-7.3764467"><ele>2215.5</ele><time>2026-04-25T11:42:31.399Z</time></trkpt><trkpt lat="31.2775867" lon="-7.3764733"><ele>2218.6666666666665</ele><time>2026-04-25T11:42:32.399Z</time></trkpt><trkpt lat="31.2776717" lon="-7.37649"><ele>2221.833333333333</ele><time>2026-04-25T11:42:33.399Z</time></trkpt><trkpt lat="31.277755" lon="-7.3765017"><ele>2225.0</ele><time>2026-04-25T11:42:34.399Z</time></trkpt><trkpt lat="31.2778333" lon="-7.3765117"><ele>2225.0</ele><time>2026-04-25T11:42:35.399Z</time></trkpt><trkpt lat="31.2779017" lon="-7.3765217"><ele>2225.0</ele><time>2026-04-25T11:42:36.399Z</time></trkpt><trkpt lat="31.27797" lon="-7.376545"><ele>2225.0</ele><time>2026-04-25T11:42:37.399Z</time></trkpt><trkpt lat="31.2780467" lon="-7.3765917"><ele>2225.0</ele><time>2026-04-25T11:42:38.399Z</time></trkpt><trkpt lat="31.278135" lon="-7.3766683"><ele>2225.0</ele><time>2026-04-25T11:42:39.399Z</time></trkpt><trkpt lat="31.2782283" lon="-7.37676"><ele>2220.25</ele><time>2026-04-25T11:42:40.399Z</time></trkpt><trkpt lat="31.27833" lon="-7.376855"><ele>2215.5</ele><time>2026-04-25T11:42:41.399Z</time></trkpt><trkpt lat="31.27844" lon="-7.376955"><ele>2210.75</ele><time>2026-04-25T11:42:42.399Z</time></trkpt><trkpt lat="31.2785417" lon="-7.3770567"><ele>2206.0</ele><time>2026-04-25T11:42:43.399Z</time></trkpt><trkpt lat="31.2786417" lon="-7.3771483"><ele>2202.0</ele><time>2026-04-25T11:42:44.399Z</time></trkpt><trkpt lat="31.2787433" lon="-7.3772467"><ele>2198.0</ele><time>2026-04-25T11:42:45.399Z</time></trkpt><trkpt lat="31.2788383" lon="-7.3773583"><ele>2194.0</ele><time>2026-04-25T11:42:46.399Z</time></trkpt><trkpt lat="31.2789217" lon="-7.37747"><ele>2190.0</ele><time>2026-04-25T11:42:47.399Z</time></trkpt><trkpt lat="31.27899" lon="-7.3775783"><ele>2190.0</ele><time>2026-04-25T11:42:48.399Z</time></trkpt><trkpt lat="31.27905" lon="-7.3776883"><ele>2190.0</ele><time>2026-04-25T11:42:49.399Z</time></trkpt><trkpt lat="31.27909" lon="-7.3777933"><ele>2190.0</ele><time>2026-04-25T11:42:50.399Z</time></trkpt><trkpt lat="31.2791267" lon="-7.3779033"><ele>2190.0</ele><time>2026-04-25T11:42:51.399Z</time></trkpt><trkpt lat="31.279165" lon="-7.3780183"><ele>2190.0</ele><time>2026-04-25T11:42:52.399Z</time></trkpt><trkpt lat="31.2792167" lon="-7.3781283"><ele>2194.2</ele><time>2026-04-25T11:42:53.399Z</time></trkpt><trkpt lat="31.2792833" lon="-7.3782283"><ele>2198.4</ele><time>2026-04-25T11:42:54.399Z</time></trkpt><trkpt lat="31.2793567" lon="-7.37832"><ele>2202.6</ele><time>2026-04-25T11:42:55.399Z</time></trkpt><trkpt lat="31.27943" lon="-7.378395"><ele>2206.8</ele><time>2026-04-25T11:42:56.399Z</time></trkpt><trkpt lat="31.27951" lon="-7.37845"><ele>2211.0</ele><time>2026-04-25T11:42:57.4Z</time></trkpt><trkpt lat="31.2795983" lon="-7.3785"><ele>2211.0</ele><time>2026-04-25T11:42:58.399Z</time></trkpt><trkpt lat="31.279705" lon="-7.37852"><ele>2211.0</ele><time>2026-04-25T11:42:59.399Z</time></trkpt><trkpt lat="31.27981" lon="-7.3785083"><ele>2211.0</ele><time>2026-04-25T11:43:00.399Z</time></trkpt><trkpt lat="31.27992" lon="-7.3784867"><ele>2211.0</ele><time>2026-04-25T11:43:01.399Z</time></trkpt><trkpt lat="31.2800367" lon="-7.3784583"><ele>2211.0</ele><time>2026-04-25T11:43:02.399Z</time></trkpt><trkpt lat="31.280155" lon="-7.3784383"><ele>2207.75</ele><time>2026-04-25T11:43:03.399Z</time></trkpt><trkpt lat="31.2802633" lon="-7.3784317"><ele>2204.5</ele><time>2026-04-25T11:43:04.398Z</time></trkpt><trkpt lat="31.28037" lon="-7.3784333"><ele>2201.25</ele><time>2026-04-25T11:43:05.398Z</time></trkpt><trkpt lat="31.280485" lon="-7.3784833"><ele>2198.0</ele><time>2026-04-25T11:43:06.398Z</time></trkpt><trkpt lat="31.2806133" lon="-7.3785567"><ele>2197.333333333333</ele><time>2026-04-25T11:43:07.398Z</time></trkpt><trkpt lat="31.2807533" lon="-7.3786367"><ele>2196.6666666666665</ele><time>2026-04-25T11:43:08.399Z</time></trkpt><trkpt lat="31.2809083" lon="-7.3787133"><ele>2196.0</ele><time>2026-04-25T11:43:09.398Z</time></trkpt><trkpt lat="31.2810633" lon="-7.37879"><ele>2195.75</ele><time>2026-04-25T11:43:10.399Z</time></trkpt><trkpt lat="31.2812083" lon="-7.3788833"><ele>2195.5</ele><time>2026-04-25T11:43:11.398Z</time></trkpt><trkpt lat="31.2813217" lon="-7.37899"><ele>2195.25</ele><time>2026-04-25T11:43:12.398Z</time></trkpt><trkpt lat="31.28141" lon="-7.37911"><ele>2195.0</ele><time>2026-04-25T11:43:13.398Z</time></trkpt><trkpt lat="31.281455" lon="-7.379245"><ele>2195.0</ele><time>2026-04-25T11:43:14.398Z</time></trkpt><trkpt lat="31.2814767" lon="-7.3793833"><ele>2195.0</ele><time>2026-04-25T11:43:15.398Z</time></trkpt><trkpt lat="31.2815017" lon="-7.3795167"><ele>2195.0</ele><time>2026-04-25T11:43:16.398Z</time></trkpt><trkpt lat="31.2815267" lon="-7.3796383"><ele>2195.0</ele><time>2026-04-25T11:43:17.398Z</time></trkpt><trkpt lat="31.2815583" lon="-7.37975"><ele>2195.0</ele><time>2026-04-25T11:43:18.398Z</time></trkpt><trkpt lat="31.2816067" lon="-7.3798283"><ele>2201.0</ele><time>2026-04-25T11:43:19.398Z</time></trkpt><trkpt lat="31.281675" lon="-7.379895"><ele>2207.0</ele><time>2026-04-25T11:43:20.398Z</time></trkpt><trkpt lat="31.28179" lon="-7.37997"><ele>2213.0</ele><time>2026-04-25T11:43:21.398Z</time></trkpt><trkpt lat="31.281925" lon="-7.3800667"><ele>2219.0</ele><time>2026-04-25T11:43:22.398Z</time></trkpt><trkpt lat="31.28207" lon="-7.38019"><ele>2219.0</ele><time>2026-04-25T11:43:23.398Z</time></trkpt><trkpt lat="31.2822067" lon="-7.3803067"><ele>2219.0</ele><time>2026-04-25T11:43:24.398Z</time></trkpt><trkpt lat="31.28233" lon="-7.3804367"><ele>2219.0</ele><time>2026-04-25T11:43:25.398Z</time></trkpt><trkpt lat="31.2824383" lon="-7.3805883"><ele>2213.6666666666665</ele><time>2026-04-25T11:43:26.398Z</time></trkpt><trkpt lat="31.2825167" lon="-7.380785"><ele>2208.3333333333335</ele><time>2026-04-25T11:43:27.398Z</time></trkpt><trkpt lat="31.2825683" lon="-7.38102"><ele>2203.0</ele><time>2026-04-25T11:43:28.398Z</time></trkpt><trkpt lat="31.2825967" lon="-7.3812717"><ele>2204.3333333333335</ele><time>2026-04-25T11:43:29.398Z</time></trkpt><trkpt lat="31.28259" lon="-7.381535"><ele>2205.6666666666665</ele><time>2026-04-25T11:43:30.398Z</time></trkpt><trkpt lat="31.28257" lon="-7.3817917"><ele>2207.0</ele><time>2026-04-25T11:43:31.398Z</time></trkpt><trkpt lat="31.28256" lon="-7.3820233"><ele>2205.333333333333</ele><time>2026-04-25T11:43:32.398Z</time></trkpt><trkpt lat="31.28257" lon="-7.3822467"><ele>2203.6666666666665</ele><time>2026-04-25T11:43:33.398Z</time></trkpt><trkpt lat="31.282615" lon="-7.382455"><ele>2202.0</ele><time>2026-04-25T11:43:34.398Z</time></trkpt><trkpt lat="31.282665" lon="-7.38263"><ele>2202.0</ele><time>2026-04-25T11:43:35.398Z</time></trkpt><trkpt lat="31.2827567" lon="-7.3827683"><ele>2202.0</ele><time>2026-04-25T11:43:36.398Z</time></trkpt><trkpt lat="31.28287" lon="-7.382885"><ele>2202.0</ele><time>2026-04-25T11:43:37.398Z</time></trkpt><trkpt lat="31.2829917" lon="-7.3829683"><ele>2202.0</ele><time>2026-04-25T11:43:38.398Z</time></trkpt><trkpt lat="31.283135" lon="-7.3830167"><ele>2205.0</ele><time>2026-04-25T11:43:39.398Z</time></trkpt><trkpt lat="31.2832917" lon="-7.3830217"><ele>2208.0</ele><time>2026-04-25T11:43:40.398Z</time></trkpt><trkpt lat="31.2834617" lon="-7.3829783"><ele>2211.0</ele><time>2026-04-25T11:43:41.398Z</time></trkpt><trkpt lat="31.2836317" lon="-7.3829"><ele>2209.3333333333335</ele><time>2026-04-25T11:43:42.398Z</time></trkpt><trkpt lat="31.28379" lon="-7.3827583"><ele>2207.666666666667</ele><time>2026-04-25T11:43:43.398Z</time></trkpt><trkpt lat="31.2839433" lon="-7.3825783"><ele>2206.0</ele><time>2026-04-25T11:43:44.398Z</time></trkpt><trkpt lat="31.2841017" lon="-7.3823517"><ele>2198.0</ele><time>2026-04-25T11:43:45.398Z</time></trkpt><trkpt lat="31.2842633" lon="-7.3821283"><ele>2190.0</ele><time>2026-04-25T11:43:46.399Z</time></trkpt><trkpt lat="31.2844217" lon="-7.3819367"><ele>2190.0</ele><time>2026-04-25T11:43:47.398Z</time></trkpt><trkpt lat="31.284575" lon="-7.3817667"><ele>2190.0</ele><time>2026-04-25T11:43:48.398Z</time></trkpt><trkpt lat="31.28472" lon="-7.3816183"><ele>2190.0</ele><time>2026-04-25T11:43:49.398Z</time></trkpt><trkpt lat="31.2848617" lon="-7.3815017"><ele>2189.0</ele><time>2026-04-25T11:43:50.398Z</time></trkpt><trkpt lat="31.2850067" lon="-7.3814133"><ele>2188.0</ele><time>2026-04-25T11:43:51.398Z</time></trkpt><trkpt lat="31.2851417" lon="-7.38134"><ele>2187.0</ele><time>2026-04-25T11:43:52.398Z</time></trkpt><trkpt lat="31.2852667" lon="-7.3812833"><ele>2186.0</ele><time>2026-04-25T11:43:53.398Z</time></trkpt><trkpt lat="31.2853783" lon="-7.381245"><ele>2186.0</ele><time>2026-04-25T11:43:54.398Z</time></trkpt><trkpt lat="31.2854767" lon="-7.3812133"><ele>2186.0</ele><time>2026-04-25T11:43:55.398Z</time></trkpt><trkpt lat="31.28556" lon="-7.381185"><ele>2186.0</ele><time>2026-04-25T11:43:56.398Z</time></trkpt><trkpt lat="31.2856383" lon="-7.3811633"><ele>2186.0</ele><time>2026-04-25T11:43:57.398Z</time></trkpt><trkpt lat="31.2857067" lon="-7.3811433"><ele>2186.0</ele><time>2026-04-25T11:43:58.399Z</time></trkpt><trkpt lat="31.2857683" lon="-7.3811233"><ele>2186.0</ele><time>2026-04-25T11:43:59.398Z</time></trkpt><trkpt lat="31.2858683" lon="-7.3810817"><ele>2188.833333333333</ele><time>2026-04-25T11:44:01.398Z</time></trkpt><trkpt lat="31.28595" lon="-7.3810617"><ele>2191.6666666666665</ele><time>2026-04-25T11:44:03.399Z</time></trkpt><trkpt lat="31.286025" lon="-7.3810383"><ele>2194.5</ele><time>2026-04-25T11:44:05.398Z</time></trkpt><trkpt lat="31.2860917" lon="-7.38101"><ele>2197.3333333333335</ele><time>2026-04-25T11:44:08.398Z</time></trkpt><trkpt lat="31.2861567" lon="-7.381025"><ele>2200.166666666667</ele><time>2026-04-25T11:44:12.398Z</time></trkpt><trkpt lat="31.28626" lon="-7.3810783"><ele>2203.0</ele><time>2026-04-25T11:44:53.398Z</time></trkpt><trkpt lat="31.28621" lon="-7.381145"><ele>2203.0</ele><time>2026-04-25T11:44:56.398Z</time></trkpt><trkpt lat="31.2861283" lon="-7.381115"><ele>2203.0</ele><time>2026-04-25T11:44:58.398Z</time></trkpt><trkpt lat="31.286065" lon="-7.3810683"><ele>2203.0</ele><time>2026-04-25T11:45:01.398Z</time></trkpt><trkpt lat="31.286055" lon="-7.3809883"><ele>2203.0</ele><time>2026-04-25T11:45:05.398Z</time></trkpt><trkpt lat="31.285995" lon="-7.38095"><ele>2203.0</ele><time>2026-04-25T11:45:09.398Z</time></trkpt><trkpt lat="31.2859183" lon="-7.3809533"><ele>2203.0</ele><time>2026-04-25T11:45:13.398Z</time></trkpt><trkpt lat="31.2859133" lon="-7.38106"><ele>2203.0</ele><time>2026-04-25T11:51:42.397Z</time></trkpt><trkpt lat="31.2859767" lon="-7.3810517"><ele>2203.0</ele><time>2026-04-25T11:51:45.397Z</time></trkpt><trkpt lat="31.286055" lon="-7.3810217"><ele>2203.0</ele><time>2026-04-25T11:51:48.397Z</time></trkpt><trkpt lat="31.28613" lon="-7.3810133"><ele>2203.0</ele><time>2026-04-25T11:51:51.398Z</time></trkpt><trkpt lat="31.2861983" lon="-7.3810283"><ele>2203.0</ele><time>2026-04-25T11:51:54.398Z</time></trkpt><trkpt lat="31.2862667" lon="-7.38108"><ele>2203.0</ele><time>2026-04-25T11:51:58.397Z</time></trkpt><trkpt lat="31.2863267" lon="-7.381135"><ele>2203.0</ele><time>2026-04-25T11:52:01.397Z</time></trkpt><trkpt lat="31.2863967" lon="-7.3811867"><ele>2203.166666666667</ele><time>2026-04-25T11:52:04.397Z</time></trkpt><trkpt lat="31.2864683" lon="-7.3812567"><ele>2203.3333333333335</ele><time>2026-04-25T11:52:07.397Z</time></trkpt><trkpt lat="31.2865117" lon="-7.3813183"><ele>2203.5</ele><time>2026-04-25T11:52:09.397Z</time></trkpt><trkpt lat="31.28656" lon="-7.3813967"><ele>2203.6666666666665</ele><time>2026-04-25T11:52:12.397Z</time></trkpt><trkpt lat="31.2865833" lon="-7.3814833"><ele>2203.833333333333</ele><time>2026-04-25T11:52:15.397Z</time></trkpt><trkpt lat="31.2865983" lon="-7.3815833"><ele>2204.0</ele><time>2026-04-25T11:52:18.398Z</time></trkpt><trkpt lat="31.2865883" lon="-7.38168"><ele>2206.0</ele><time>2026-04-25T11:52:21.397Z</time></trkpt><trkpt lat="31.2865567" lon="-7.38178"><ele>2208.0</ele><time>2026-04-25T11:52:24.397Z</time></trkpt><trkpt lat="31.28652" lon="-7.3818517"><ele>2210.0</ele><time>2026-04-25T11:52:27.397Z</time></trkpt><trkpt lat="31.2864783" lon="-7.38193"><ele>2212.0</ele><time>2026-04-25T11:52:31.397Z</time></trkpt><trkpt lat="31.2864133" lon="-7.3819817"><ele>2214.0</ele><time>2026-04-25T11:53:54.397Z</time></trkpt><trkpt lat="31.286365" lon="-7.3820317"><ele>2216.0</ele><time>2026-04-25T11:53:55.397Z</time></trkpt><trkpt lat="31.2863033" lon="-7.3821"><ele>2213.0</ele><time>2026-04-25T11:53:56.397Z</time></trkpt><trkpt lat="31.286235" lon="-7.3821883"><ele>2210.0</ele><time>2026-04-25T11:53:57.397Z</time></trkpt><trkpt lat="31.286155" lon="-7.3822867"><ele>2207.0</ele><time>2026-04-25T11:53:58.397Z</time></trkpt><trkpt lat="31.2860717" lon="-7.382385"><ele>2204.0</ele><time>2026-04-25T11:53:59.398Z</time></trkpt><trkpt lat="31.2859833" lon="-7.3824917"><ele>2204.0</ele><time>2026-04-25T11:54:00.397Z</time></trkpt><trkpt lat="31.28589" lon="-7.3825983"><ele>2204.0</ele><time>2026-04-25T11:54:01.397Z</time></trkpt><trkpt lat="31.285795" lon="-7.3827133"><ele>2204.0</ele><time>2026-04-25T11:54:02.397Z</time></trkpt><trkpt lat="31.285695" lon="-7.3828367"><ele>2204.0</ele><time>2026-04-25T11:54:03.397Z</time></trkpt><trkpt lat="31.2856" lon="-7.3829633"><ele>2205.6666666666665</ele><time>2026-04-25T11:54:04.397Z</time></trkpt><trkpt lat="31.2855133" lon="-7.38311"><ele>2207.3333333333335</ele><time>2026-04-25T11:54:05.397Z</time></trkpt><trkpt lat="31.2854383" lon="-7.38327"><ele>2209.0</ele><time>2026-04-25T11:54:06.397Z</time></trkpt><trkpt lat="31.2853683" lon="-7.3834383"><ele>2209.0</ele><time>2026-04-25T11:54:07.397Z</time></trkpt><trkpt lat="31.28531" lon="-7.3836"><ele>2209.0</ele><time>2026-04-25T11:54:08.397Z</time></trkpt><trkpt lat="31.28526" lon="-7.38374"><ele>2209.0</ele><time>2026-04-25T11:54:09.397Z</time></trkpt><trkpt lat="31.2852383" lon="-7.3838733"><ele>2209.0</ele><time>2026-04-25T11:54:10.397Z</time></trkpt><trkpt lat="31.28524" lon="-7.3839867"><ele>2208.4</ele><time>2026-04-25T11:54:11.397Z</time></trkpt><trkpt lat="31.2852683" lon="-7.38409"><ele>2207.8</ele><time>2026-04-25T11:54:12.398Z</time></trkpt><trkpt lat="31.2853333" lon="-7.3841733"><ele>2207.2</ele><time>2026-04-25T11:54:13.397Z</time></trkpt><trkpt lat="31.2854183" lon="-7.3842283"><ele>2206.6</ele><time>2026-04-25T11:54:14.397Z</time></trkpt><trkpt lat="31.2855217" lon="-7.3842367"><ele>2206.0</ele><time>2026-04-25T11:54:15.397Z</time></trkpt><trkpt lat="31.2856317" lon="-7.3842"><ele>2203.75</ele><time>2026-04-25T11:54:16.397Z</time></trkpt><trkpt lat="31.2857333" lon="-7.384105"><ele>2201.5</ele><time>2026-04-25T11:54:17.397Z</time></trkpt><trkpt lat="31.285825" lon="-7.383975"><ele>2199.25</ele><time>2026-04-25T11:54:18.397Z</time></trkpt><trkpt lat="31.2859183" lon="-7.3838317"><ele>2197.0</ele><time>2026-04-25T11:54:19.397Z</time></trkpt><trkpt lat="31.2860133" lon="-7.383685"><ele>2193.3333333333335</ele><time>2026-04-25T11:54:20.397Z</time></trkpt><trkpt lat="31.2861117" lon="-7.3835517"><ele>2189.6666666666665</ele><time>2026-04-25T11:54:21.397Z</time></trkpt><trkpt lat="31.286215" lon="-7.3834167"><ele>2186.0</ele><time>2026-04-25T11:54:22.397Z</time></trkpt><trkpt lat="31.286325" lon="-7.3832917"><ele>2184.0</ele><time>2026-04-25T11:54:23.397Z</time></trkpt><trkpt lat="31.28646" lon="-7.38317"><ele>2182.0</ele><time>2026-04-25T11:54:24.398Z</time></trkpt><trkpt lat="31.2866167" lon="-7.3830717"><ele>2180.0</ele><time>2026-04-25T11:54:25.397Z</time></trkpt><trkpt lat="31.2867833" lon="-7.3829917"><ele>2180.0</ele><time>2026-04-25T11:54:26.397Z</time></trkpt><trkpt lat="31.2869583" lon="-7.382925"><ele>2180.0</ele><time>2026-04-25T11:54:27.397Z</time></trkpt><trkpt lat="31.2871317" lon="-7.38286"><ele>2180.0</ele><time>2026-04-25T11:54:28.397Z</time></trkpt><trkpt lat="31.2873067" lon="-7.3827933"><ele>2176.333333333333</ele><time>2026-04-25T11:54:29.397Z</time></trkpt><trkpt lat="31.2874733" lon="-7.3827183"><ele>2172.6666666666665</ele><time>2026-04-25T11:54:30.397Z</time></trkpt><trkpt lat="31.2876317" lon="-7.38263"><ele>2169.0</ele><time>2026-04-25T11:54:31.397Z</time></trkpt><trkpt lat="31.28779" lon="-7.3825333"><ele>2169.0</ele><time>2026-04-25T11:54:32.397Z</time></trkpt><trkpt lat="31.2879383" lon="-7.3824333"><ele>2169.0</ele><time>2026-04-25T11:54:33.397Z</time></trkpt><trkpt lat="31.2880867" lon="-7.38234"><ele>2169.0</ele><time>2026-04-25T11:54:34.397Z</time></trkpt><trkpt lat="31.2882367" lon="-7.382255"><ele>2169.3333333333335</ele><time>2026-04-25T11:54:35.397Z</time></trkpt><trkpt lat="31.2883867" lon="-7.3821917"><ele>2169.666666666667</ele><time>2026-04-25T11:54:36.397Z</time></trkpt><trkpt lat="31.288535" lon="-7.3821533"><ele>2170.0</ele><time>2026-04-25T11:54:37.397Z</time></trkpt><trkpt lat="31.2886883" lon="-7.38216"><ele>2170.0</ele><time>2026-04-25T11:54:38.397Z</time></trkpt><trkpt lat="31.2888483" lon="-7.3822133"><ele>2170.0</ele><time>2026-04-25T11:54:39.397Z</time></trkpt><trkpt lat="31.2890117" lon="-7.38231"><ele>2170.0</ele><time>2026-04-25T11:54:40.397Z</time></trkpt><trkpt lat="31.2891633" lon="-7.3824183"><ele>2168.0</ele><time>2026-04-25T11:54:41.397Z</time></trkpt><trkpt lat="31.28931" lon="-7.3825483"><ele>2166.0</ele><time>2026-04-25T11:54:42.397Z</time></trkpt><trkpt lat="31.28945" lon="-7.3826733"><ele>2164.0</ele><time>2026-04-25T11:54:43.397Z</time></trkpt><trkpt lat="31.2895767" lon="-7.3827767"><ele>2164.0</ele><time>2026-04-25T11:54:44.397Z</time></trkpt><trkpt lat="31.2896933" lon="-7.382845"><ele>2164.0</ele><time>2026-04-25T11:54:45.397Z</time></trkpt><trkpt lat="31.2898133" lon="-7.38287"><ele>2164.0</ele><time>2026-04-25T11:54:46.397Z</time></trkpt><trkpt lat="31.2899317" lon="-7.38286"><ele>2164.0</ele><time>2026-04-25T11:54:47.397Z</time></trkpt><trkpt lat="31.2900417" lon="-7.3828117"><ele>2160.25</ele><time>2026-04-25T11:54:48.397Z</time></trkpt><trkpt lat="31.290135" lon="-7.3827117"><ele>2156.5</ele><time>2026-04-25T11:54:49.397Z</time></trkpt><trkpt lat="31.290215" lon="-7.3825833"><ele>2152.75</ele><time>2026-04-25T11:54:50.397Z</time></trkpt><trkpt lat="31.290295" lon="-7.3824383"><ele>2149.0</ele><time>2026-04-25T11:54:51.397Z</time></trkpt><trkpt lat="31.2903867" lon="-7.3822883"><ele>2147.666666666667</ele><time>2026-04-25T11:54:52.397Z</time></trkpt><trkpt lat="31.290485" lon="-7.3821367"><ele>2146.3333333333335</ele><time>2026-04-25T11:54:53.397Z</time></trkpt><trkpt lat="31.2905933" lon="-7.3819783"><ele>2145.0</ele><time>2026-04-25T11:54:54.397Z</time></trkpt><trkpt lat="31.2906983" lon="-7.381825"><ele>2145.0</ele><time>2026-04-25T11:54:55.397Z</time></trkpt><trkpt lat="31.2907817" lon="-7.3816717"><ele>2145.0</ele><time>2026-04-25T11:54:56.397Z</time></trkpt><trkpt lat="31.2908917" lon="-7.38152"><ele>2145.0</ele><time>2026-04-25T11:54:57.397Z</time></trkpt><trkpt lat="31.2910017" lon="-7.381365"><ele>2144.3333333333335</ele><time>2026-04-25T11:54:58.397Z</time></trkpt><trkpt lat="31.2910983" lon="-7.38122"><ele>2143.666666666667</ele><time>2026-04-25T11:54:59.397Z</time></trkpt><trkpt lat="31.2912067" lon="-7.3810733"><ele>2143.0</ele><time>2026-04-25T11:55:00.397Z</time></trkpt><trkpt lat="31.29131" lon="-7.3809283"><ele>2143.0</ele><time>2026-04-25T11:55:01.397Z</time></trkpt><trkpt lat="31.2914117" lon="-7.3807783"><ele>2143.0</ele><time>2026-04-25T11:55:02.397Z</time></trkpt><trkpt lat="31.2915117" lon="-7.380625"><ele>2143.0</ele><time>2026-04-25T11:55:03.397Z</time></trkpt><trkpt lat="31.2916167" lon="-7.38047"><ele>2141.0</ele><time>2026-04-25T11:55:04.397Z</time></trkpt><trkpt lat="31.2917133" lon="-7.3803183"><ele>2139.0</ele><time>2026-04-25T11:55:05.397Z</time></trkpt><trkpt lat="31.2918117" lon="-7.3801733"><ele>2137.0</ele><time>2026-04-25T11:55:06.397Z</time></trkpt><trkpt lat="31.29191" lon="-7.38003"><ele>2137.0</ele><time>2026-04-25T11:55:07.397Z</time></trkpt><trkpt lat="31.2920117" lon="-7.3798867"><ele>2137.0</ele><time>2026-04-25T11:55:08.397Z</time></trkpt><trkpt lat="31.2921117" lon="-7.3797417"><ele>2137.0</ele><time>2026-04-25T11:55:09.397Z</time></trkpt><trkpt lat="31.2922183" lon="-7.3795917"><ele>2135.3333333333335</ele><time>2026-04-25T11:55:10.397Z</time></trkpt><trkpt lat="31.2923217" lon="-7.37944"><ele>2133.6666666666665</ele><time>2026-04-25T11:55:11.397Z</time></trkpt><trkpt lat="31.292425" lon="-7.379285"><ele>2132.0</ele><time>2026-04-25T11:55:12.397Z</time></trkpt><trkpt lat="31.2925283" lon="-7.3791333"><ele>2132.0</ele><time>2026-04-25T11:55:13.397Z</time></trkpt><trkpt lat="31.292635" lon="-7.3789783"><ele>2132.0</ele><time>2026-04-25T11:55:14.397Z</time></trkpt><trkpt lat="31.29274" lon="-7.37883"><ele>2132.0</ele><time>2026-04-25T11:55:15.397Z</time></trkpt><trkpt lat="31.2928417" lon="-7.3786767"><ele>2130.0</ele><time>2026-04-25T11:55:16.397Z</time></trkpt><trkpt lat="31.29294" lon="-7.3785267"><ele>2128.0</ele><time>2026-04-25T11:55:17.397Z</time></trkpt><trkpt lat="31.29304" lon="-7.3783767"><ele>2126.0</ele><time>2026-04-25T11:55:18.398Z</time></trkpt><trkpt lat="31.2931367" lon="-7.3782267"><ele>2126.0</ele><time>2026-04-25T11:55:19.397Z</time></trkpt><trkpt lat="31.293235" lon="-7.3780817"><ele>2126.0</ele><time>2026-04-25T11:55:20.397Z</time></trkpt><trkpt lat="31.293335" lon="-7.377935"><ele>2126.0</ele><time>2026-04-25T11:55:21.397Z</time></trkpt><trkpt lat="31.2934417" lon="-7.3778017"><ele>2123.0</ele><time>2026-04-25T11:55:22.397Z</time></trkpt><trkpt lat="31.2935583" lon="-7.37767"><ele>2120.0</ele><time>2026-04-25T11:55:23.397Z</time></trkpt><trkpt lat="31.2936767" lon="-7.3775567"><ele>2117.0</ele><time>2026-04-25T11:55:24.397Z</time></trkpt><trkpt lat="31.2938067" lon="-7.3774567"><ele>2117.333333333333</ele><time>2026-04-25T11:55:25.397Z</time></trkpt><trkpt lat="31.2939367" lon="-7.3773567"><ele>2117.6666666666665</ele><time>2026-04-25T11:55:26.397Z</time></trkpt><trkpt lat="31.2940683" lon="-7.3772633"><ele>2118.0</ele><time>2026-04-25T11:55:27.397Z</time></trkpt><trkpt lat="31.2941933" lon="-7.3771617"><ele>2118.0</ele><time>2026-04-25T11:55:28.397Z</time></trkpt><trkpt lat="31.2943233" lon="-7.3770667"><ele>2118.0</ele><time>2026-04-25T11:55:29.397Z</time></trkpt><trkpt lat="31.2944517" lon="-7.376965"><ele>2118.0</ele><time>2026-04-25T11:55:30.397Z</time></trkpt><trkpt lat="31.29458" lon="-7.3768667"><ele>2118.0</ele><time>2026-04-25T11:55:31.397Z</time></trkpt><trkpt lat="31.294705" lon="-7.3767717"><ele>2118.0</ele><time>2026-04-25T11:55:32.397Z</time></trkpt><trkpt lat="31.2948267" lon="-7.3766733"><ele>2118.0</ele><time>2026-04-25T11:55:33.397Z</time></trkpt><trkpt lat="31.2949517" lon="-7.376575"><ele>2118.0</ele><time>2026-04-25T11:55:34.397Z</time></trkpt><trkpt lat="31.29508" lon="-7.37648"><ele>2118.0</ele><time>2026-04-25T11:55:35.397Z</time></trkpt><trkpt lat="31.295205" lon="-7.3763817"><ele>2118.0</ele><time>2026-04-25T11:55:36.397Z</time></trkpt><trkpt lat="31.2953317" lon="-7.376285"><ele>2118.0</ele><time>2026-04-25T11:55:37.397Z</time></trkpt><trkpt lat="31.2954583" lon="-7.37619"><ele>2118.25</ele><time>2026-04-25T11:55:38.398Z</time></trkpt><trkpt lat="31.2955833" lon="-7.3760933"><ele>2118.5</ele><time>2026-04-25T11:55:39.397Z</time></trkpt><trkpt lat="31.295705" lon="-7.3760017"><ele>2118.75</ele><time>2026-04-25T11:55:40.397Z</time></trkpt><trkpt lat="31.2958283" lon="-7.3759033"><ele>2119.0</ele><time>2026-04-25T11:55:41.397Z</time></trkpt><trkpt lat="31.2959467" lon="-7.3757933"><ele>2118.3333333333335</ele><time>2026-04-25T11:55:42.397Z</time></trkpt><trkpt lat="31.2960683" lon="-7.37566"><ele>2117.6666666666665</ele><time>2026-04-25T11:55:43.397Z</time></trkpt><trkpt lat="31.2961867" lon="-7.3755017"><ele>2117.0</ele><time>2026-04-25T11:55:44.397Z</time></trkpt><trkpt lat="31.2963" lon="-7.375325"><ele>2117.0</ele><time>2026-04-25T11:55:45.397Z</time></trkpt><trkpt lat="31.2963967" lon="-7.375155"><ele>2117.0</ele><time>2026-04-25T11:55:46.397Z</time></trkpt><trkpt lat="31.2964767" lon="-7.374975"><ele>2117.0</ele><time>2026-04-25T11:55:47.397Z</time></trkpt><trkpt lat="31.2965467" lon="-7.3747883"><ele>2113.0</ele><time>2026-04-25T11:55:48.397Z</time></trkpt><trkpt lat="31.296615" lon="-7.3746017"><ele>2109.0</ele><time>2026-04-25T11:55:49.397Z</time></trkpt><trkpt lat="31.2966867" lon="-7.3744183"><ele>2105.0</ele><time>2026-04-25T11:55:50.397Z</time></trkpt><trkpt lat="31.29676" lon="-7.3742467"><ele>2105.0</ele><time>2026-04-25T11:55:51.398Z</time></trkpt><trkpt lat="31.29684" lon="-7.374075"><ele>2105.0</ele><time>2026-04-25T11:55:52.397Z</time></trkpt><trkpt lat="31.29692" lon="-7.3739"><ele>2105.0</ele><time>2026-04-25T11:55:53.397Z</time></trkpt><trkpt lat="31.2969933" lon="-7.3737283"><ele>2104.333333333333</ele><time>2026-04-25T11:55:54.397Z</time></trkpt><trkpt lat="31.2970683" lon="-7.3735583"><ele>2103.6666666666665</ele><time>2026-04-25T11:55:55.397Z</time></trkpt><trkpt lat="31.2971417" lon="-7.3733917"><ele>2103.0</ele><time>2026-04-25T11:55:56.397Z</time></trkpt><trkpt lat="31.2972183" lon="-7.3732267"><ele>2103.0</ele><time>2026-04-25T11:55:57.397Z</time></trkpt><trkpt lat="31.2972867" lon="-7.37306"><ele>2103.0</ele><time>2026-04-25T11:55:58.397Z</time></trkpt><trkpt lat="31.2973567" lon="-7.3729033"><ele>2103.0</ele><time>2026-04-25T11:55:59.398Z</time></trkpt><trkpt lat="31.2974317" lon="-7.3727467"><ele>2103.0</ele><time>2026-04-25T11:56:00.397Z</time></trkpt><trkpt lat="31.2975117" lon="-7.3725883"><ele>2103.0</ele><time>2026-04-25T11:56:01.397Z</time></trkpt><trkpt lat="31.29761" lon="-7.3724383"><ele>2103.0</ele><time>2026-04-25T11:56:02.397Z</time></trkpt><trkpt lat="31.297725" lon="-7.37231"><ele>2103.0</ele><time>2026-04-25T11:56:03.397Z</time></trkpt><trkpt lat="31.2978517" lon="-7.3722017"><ele>2103.0</ele><time>2026-04-25T11:56:04.398Z</time></trkpt><trkpt lat="31.29798" lon="-7.372105"><ele>2103.0</ele><time>2026-04-25T11:56:05.397Z</time></trkpt><trkpt lat="31.298115" lon="-7.3720183"><ele>2102.0</ele><time>2026-04-25T11:56:06.397Z</time></trkpt><trkpt lat="31.2982483" lon="-7.37193"><ele>2101.0</ele><time>2026-04-25T11:56:07.397Z</time></trkpt><trkpt lat="31.298385" lon="-7.3718433"><ele>2100.0</ele><time>2026-04-25T11:56:08.397Z</time></trkpt><trkpt lat="31.2985233" lon="-7.37176"><ele>2100.0</ele><time>2026-04-25T11:56:09.397Z</time></trkpt><trkpt lat="31.2986583" lon="-7.371675"><ele>2100.0</ele><time>2026-04-25T11:56:10.397Z</time></trkpt><trkpt lat="31.2987933" lon="-7.37159"><ele>2100.0</ele><time>2026-04-25T11:56:11.397Z</time></trkpt><trkpt lat="31.2989233" lon="-7.37151"><ele>2100.5</ele><time>2026-04-25T11:56:12.397Z</time></trkpt><trkpt lat="31.299055" lon="-7.3714383"><ele>2101.0</ele><time>2026-04-25T11:56:13.397Z</time></trkpt><trkpt lat="31.2991883" lon="-7.3713767"><ele>2101.5</ele><time>2026-04-25T11:56:14.397Z</time></trkpt><trkpt lat="31.29932" lon="-7.3713333"><ele>2102.0</ele><time>2026-04-25T11:56:15.397Z</time></trkpt><trkpt lat="31.29946" lon="-7.3713033"><ele>2099.5</ele><time>2026-04-25T11:56:16.397Z</time></trkpt><trkpt lat="31.2995967" lon="-7.3712883"><ele>2097.0</ele><time>2026-04-25T11:56:17.397Z</time></trkpt><trkpt lat="31.299735" lon="-7.3712683"><ele>2094.5</ele><time>2026-04-25T11:56:18.397Z</time></trkpt><trkpt lat="31.299875" lon="-7.37125"><ele>2092.0</ele><time>2026-04-25T11:56:19.398Z</time></trkpt><trkpt lat="31.3000133" lon="-7.3712367"><ele>2091.5</ele><time>2026-04-25T11:56:20.397Z</time></trkpt><trkpt lat="31.3001517" lon="-7.3712233"><ele>2091.0</ele><time>2026-04-25T11:56:21.397Z</time></trkpt><trkpt lat="31.3002967" lon="-7.3712117"><ele>2090.5</ele><time>2026-04-25T11:56:22.397Z</time></trkpt><trkpt lat="31.3004383" lon="-7.3711917"><ele>2090.0</ele><time>2026-04-25T11:56:23.397Z</time></trkpt><trkpt lat="31.30058" lon="-7.3711733"><ele>2090.25</ele><time>2026-04-25T11:56:24.397Z</time></trkpt><trkpt lat="31.3007233" lon="-7.3711533"><ele>2090.5</ele><time>2026-04-25T11:56:25.397Z</time></trkpt><trkpt lat="31.300865" lon="-7.3711467"><ele>2090.75</ele><time>2026-04-25T11:56:26.397Z</time></trkpt><trkpt lat="31.3010067" lon="-7.3711333"><ele>2091.0</ele><time>2026-04-25T11:56:27.397Z</time></trkpt><trkpt lat="31.3011483" lon="-7.3711167"><ele>2091.0</ele><time>2026-04-25T11:56:28.397Z</time></trkpt><trkpt lat="31.3012917" lon="-7.3711117"><ele>2091.0</ele><time>2026-04-25T11:56:29.397Z</time></trkpt><trkpt lat="31.301435" lon="-7.37112"><ele>2091.0</ele><time>2026-04-25T11:56:30.397Z</time></trkpt><trkpt lat="31.3015667" lon="-7.3711567"><ele>2091.0</ele><time>2026-04-25T11:56:31.397Z</time></trkpt><trkpt lat="31.3016967" lon="-7.3712283"><ele>2090.25</ele><time>2026-04-25T11:56:32.397Z</time></trkpt><trkpt lat="31.301815" lon="-7.37132"><ele>2089.5</ele><time>2026-04-25T11:56:33.397Z</time></trkpt><trkpt lat="31.3019333" lon="-7.37142"><ele>2088.75</ele><time>2026-04-25T11:56:34.397Z</time></trkpt><trkpt lat="31.302045" lon="-7.3715233"><ele>2088.0</ele><time>2026-04-25T11:56:35.397Z</time></trkpt><trkpt lat="31.3021567" lon="-7.371625"><ele>2087.0</ele><time>2026-04-25T11:56:36.397Z</time></trkpt><trkpt lat="31.3022683" lon="-7.3717233"><ele>2086.0</ele><time>2026-04-25T11:56:37.398Z</time></trkpt><trkpt lat="31.3023833" lon="-7.3718183"><ele>2085.0</ele><time>2026-04-25T11:56:38.397Z</time></trkpt><trkpt lat="31.3024983" lon="-7.371905"><ele>2084.0</ele><time>2026-04-25T11:56:39.397Z</time></trkpt><trkpt lat="31.3026183" lon="-7.3719817"><ele>2084.0</ele><time>2026-04-25T11:56:40.397Z</time></trkpt><trkpt lat="31.3027467" lon="-7.372035"><ele>2084.0</ele><time>2026-04-25T11:56:41.397Z</time></trkpt><trkpt lat="31.3028733" lon="-7.3720633"><ele>2084.0</ele><time>2026-04-25T11:56:42.397Z</time></trkpt><trkpt lat="31.3030017" lon="-7.3720783"><ele>2084.0</ele><time>2026-04-25T11:56:43.397Z</time></trkpt><trkpt lat="31.3031333" lon="-7.3720817"><ele>2083.2</ele><time>2026-04-25T11:56:44.397Z</time></trkpt><trkpt lat="31.303255" lon="-7.37209"><ele>2082.4</ele><time>2026-04-25T11:56:45.397Z</time></trkpt><trkpt lat="31.3033717" lon="-7.3720967"><ele>2081.6</ele><time>2026-04-25T11:56:46.397Z</time></trkpt><trkpt lat="31.3034717" lon="-7.3721067"><ele>2080.8</ele><time>2026-04-25T11:56:47.397Z</time></trkpt><trkpt lat="31.3035567" lon="-7.3721183"><ele>2080.0</ele><time>2026-04-25T11:56:48.397Z</time></trkpt><trkpt lat="31.303635" lon="-7.3721283"><ele>2080.0</ele><time>2026-04-25T11:56:49.397Z</time></trkpt><trkpt lat="31.3036983" lon="-7.3721367"><ele>2080.0</ele><time>2026-04-25T11:56:50.397Z</time></trkpt><trkpt lat="31.303785" lon="-7.3721367"><ele>2080.0</ele><time>2026-04-25T11:56:52.397Z</time></trkpt><trkpt lat="31.3038483" lon="-7.37215"><ele>2080.0</ele><time>2026-04-25T11:56:54.397Z</time></trkpt><trkpt lat="31.3039217" lon="-7.372175"><ele>2080.0</ele><time>2026-04-25T11:57:52.397Z</time></trkpt><trkpt lat="31.30404" lon="-7.3722283"><ele>2080.0</ele><time>2026-04-25T11:57:54.397Z</time></trkpt><trkpt lat="31.3041283" lon="-7.3722667"><ele>2080.0</ele><time>2026-04-25T11:57:55.397Z</time></trkpt><trkpt lat="31.3042217" lon="-7.37232"><ele>2080.0</ele><time>2026-04-25T11:57:56.397Z</time></trkpt><trkpt lat="31.3043267" lon="-7.372375"><ele>2080.0</ele><time>2026-04-25T11:57:57.397Z</time></trkpt><trkpt lat="31.30443" lon="-7.37244"><ele>2080.0</ele><time>2026-04-25T11:57:58.397Z</time></trkpt><trkpt lat="31.3045383" lon="-7.3725"><ele>2080.0</ele><time>2026-04-25T11:57:59.397Z</time></trkpt><trkpt lat="31.30465" lon="-7.372565"><ele>2080.0</ele><time>2026-04-25T11:58:00.397Z</time></trkpt><trkpt lat="31.3047633" lon="-7.3726283"><ele>2080.0</ele><time>2026-04-25T11:58:01.397Z</time></trkpt><trkpt lat="31.3048833" lon="-7.3726917"><ele>2080.0</ele><time>2026-04-25T11:58:02.396Z</time></trkpt><trkpt lat="31.3050083" lon="-7.372755"><ele>2080.5</ele><time>2026-04-25T11:58:03.396Z</time></trkpt><trkpt lat="31.3051367" lon="-7.372825"><ele>2081.0</ele><time>2026-04-25T11:58:04.396Z</time></trkpt><trkpt lat="31.3052667" lon="-7.3728967"><ele>2081.5</ele><time>2026-04-25T11:58:05.396Z</time></trkpt><trkpt lat="31.3053933" lon="-7.3729683"><ele>2082.0</ele><time>2026-04-25T11:58:06.396Z</time></trkpt><trkpt lat="31.3055283" lon="-7.3730417"><ele>2080.5</ele><time>2026-04-25T11:58:07.396Z</time></trkpt><trkpt lat="31.30566" lon="-7.3731133"><ele>2079.0</ele><time>2026-04-25T11:58:08.396Z</time></trkpt><trkpt lat="31.3057983" lon="-7.37318"><ele>2077.5</ele><time>2026-04-25T11:58:09.396Z</time></trkpt><trkpt lat="31.3059433" lon="-7.3732383"><ele>2076.0</ele><time>2026-04-25T11:58:10.397Z</time></trkpt><trkpt lat="31.3060867" lon="-7.3732933"><ele>2076.0</ele><time>2026-04-25T11:58:11.396Z</time></trkpt><trkpt lat="31.3062317" lon="-7.3733533"><ele>2076.0</ele><time>2026-04-25T11:58:12.396Z</time></trkpt><trkpt lat="31.306375" lon="-7.3734167"><ele>2076.0</ele><time>2026-04-25T11:58:13.396Z</time></trkpt><trkpt lat="31.3065033" lon="-7.3734733"><ele>2076.0</ele><time>2026-04-25T11:58:14.396Z</time></trkpt><trkpt lat="31.3066417" lon="-7.3735333"><ele>2077.5</ele><time>2026-04-25T11:58:15.396Z</time></trkpt><trkpt lat="31.3067783" lon="-7.37358"><ele>2079.0</ele><time>2026-04-25T11:58:16.396Z</time></trkpt><trkpt lat="31.3069183" lon="-7.373625"><ele>2080.5</ele><time>2026-04-25T11:58:17.396Z</time></trkpt><trkpt lat="31.3070617" lon="-7.373645"><ele>2082.0</ele><time>2026-04-25T11:58:18.397Z</time></trkpt><trkpt lat="31.3072033" lon="-7.3736383"><ele>2080.75</ele><time>2026-04-25T11:58:19.396Z</time></trkpt><trkpt lat="31.3073417" lon="-7.3736017"><ele>2079.5</ele><time>2026-04-25T11:58:20.396Z</time></trkpt><trkpt lat="31.3074783" lon="-7.3735333"><ele>2078.25</ele><time>2026-04-25T11:58:21.396Z</time></trkpt><trkpt lat="31.3076083" lon="-7.373445"><ele>2077.0</ele><time>2026-04-25T11:58:22.396Z</time></trkpt><trkpt lat="31.3077383" lon="-7.37335"><ele>2077.0</ele><time>2026-04-25T11:58:23.396Z</time></trkpt><trkpt lat="31.3078717" lon="-7.3732567"><ele>2077.0</ele><time>2026-04-25T11:58:24.396Z</time></trkpt><trkpt lat="31.3080167" lon="-7.3731717"><ele>2077.0</ele><time>2026-04-25T11:58:25.396Z</time></trkpt><trkpt lat="31.3081567" lon="-7.3730833"><ele>2078.3333333333335</ele><time>2026-04-25T11:58:26.396Z</time></trkpt><trkpt lat="31.308295" lon="-7.3729967"><ele>2079.6666666666665</ele><time>2026-04-25T11:58:27.397Z</time></trkpt><trkpt lat="31.3084333" lon="-7.372925"><ele>2081.0</ele><time>2026-04-25T11:58:28.396Z</time></trkpt><trkpt lat="31.3085683" lon="-7.3728633"><ele>2081.0</ele><time>2026-04-25T11:58:29.396Z</time></trkpt><trkpt lat="31.3087083" lon="-7.3728367"><ele>2081.0</ele><time>2026-04-25T11:58:30.396Z</time></trkpt><trkpt lat="31.3088467" lon="-7.3728367"><ele>2081.0</ele><time>2026-04-25T11:58:31.397Z</time></trkpt><trkpt lat="31.3089833" lon="-7.372865"><ele>2081.0</ele><time>2026-04-25T11:58:32.396Z</time></trkpt><trkpt lat="31.30912" lon="-7.3729183"><ele>2083.0</ele><time>2026-04-25T11:58:33.396Z</time></trkpt><trkpt lat="31.30926" lon="-7.3729783"><ele>2085.0</ele><time>2026-04-25T11:58:34.396Z</time></trkpt><trkpt lat="31.3093967" lon="-7.3730333"><ele>2087.0</ele><time>2026-04-25T11:58:35.396Z</time></trkpt><trkpt lat="31.3095267" lon="-7.373065"><ele>2089.0</ele><time>2026-04-25T11:58:36.396Z</time></trkpt><trkpt lat="31.3096583" lon="-7.373065"><ele>2089.25</ele><time>2026-04-25T11:58:37.396Z</time></trkpt><trkpt lat="31.30977" lon="-7.3730267"><ele>2089.5</ele><time>2026-04-25T11:58:38.397Z</time></trkpt><trkpt lat="31.309865" lon="-7.372935"><ele>2089.75</ele><time>2026-04-25T11:58:39.396Z</time></trkpt><trkpt lat="31.309955" lon="-7.37283"><ele>2090.0</ele><time>2026-04-25T11:58:40.396Z</time></trkpt><trkpt lat="31.3100433" lon="-7.3727083"><ele>2090.0</ele><time>2026-04-25T11:58:41.396Z</time></trkpt><trkpt lat="31.3101383" lon="-7.372585"><ele>2090.0</ele><time>2026-04-25T11:58:42.396Z</time></trkpt><trkpt lat="31.3102333" lon="-7.3724567"><ele>2090.0</ele><time>2026-04-25T11:58:43.397Z</time></trkpt><trkpt lat="31.3103433" lon="-7.3723217"><ele>2090.0</ele><time>2026-04-25T11:58:44.397Z</time></trkpt><trkpt lat="31.310455" lon="-7.37219"><ele>2088.6666666666665</ele><time>2026-04-25T11:58:45.396Z</time></trkpt><trkpt lat="31.310565" lon="-7.3720583"><ele>2087.3333333333335</ele><time>2026-04-25T11:58:46.396Z</time></trkpt><trkpt lat="31.3106733" lon="-7.3719333"><ele>2086.0</ele><time>2026-04-25T11:58:47.396Z</time></trkpt><trkpt lat="31.310785" lon="-7.3718117"><ele>2086.0</ele><time>2026-04-25T11:58:48.396Z</time></trkpt><trkpt lat="31.310895" lon="-7.371685"><ele>2086.0</ele><time>2026-04-25T11:58:49.396Z</time></trkpt><trkpt lat="31.3109983" lon="-7.37155"><ele>2086.0</ele><time>2026-04-25T11:58:50.396Z</time></trkpt><trkpt lat="31.3111033" lon="-7.37142"><ele>2083.0</ele><time>2026-04-25T11:58:51.396Z</time></trkpt><trkpt lat="31.311215" lon="-7.3712833"><ele>2080.0</ele><time>2026-04-25T11:58:52.396Z</time></trkpt><trkpt lat="31.31132" lon="-7.37115"><ele>2077.0</ele><time>2026-04-25T11:58:53.396Z</time></trkpt><trkpt lat="31.31142" lon="-7.3710183"><ele>2077.0</ele><time>2026-04-25T11:58:54.396Z</time></trkpt><trkpt lat="31.3115217" lon="-7.3708867"><ele>2077.0</ele><time>2026-04-25T11:58:55.396Z</time></trkpt><trkpt lat="31.311625" lon="-7.3707567"><ele>2077.0</ele><time>2026-04-25T11:58:56.396Z</time></trkpt><trkpt lat="31.311725" lon="-7.3706267"><ele>2080.75</ele><time>2026-04-25T11:58:57.396Z</time></trkpt><trkpt lat="31.311825" lon="-7.370495"><ele>2084.5</ele><time>2026-04-25T11:58:58.397Z</time></trkpt><trkpt lat="31.3119317" lon="-7.3703933"><ele>2088.25</ele><time>2026-04-25T11:58:59.396Z</time></trkpt><trkpt lat="31.3120333" lon="-7.3703183"><ele>2092.0</ele><time>2026-04-25T11:59:00.396Z</time></trkpt><trkpt lat="31.3121383" lon="-7.37027"><ele>2090.6</ele><time>2026-04-25T11:59:01.396Z</time></trkpt><trkpt lat="31.31224" lon="-7.3702667"><ele>2089.2</ele><time>2026-04-25T11:59:02.396Z</time></trkpt><trkpt lat="31.3123383" lon="-7.3703083"><ele>2087.8</ele><time>2026-04-25T11:59:03.396Z</time></trkpt><trkpt lat="31.3124267" lon="-7.3703783"><ele>2086.4</ele><time>2026-04-25T11:59:04.396Z</time></trkpt><trkpt lat="31.3125133" lon="-7.3704733"><ele>2085.0</ele><time>2026-04-25T11:59:05.396Z</time></trkpt><trkpt lat="31.3126033" lon="-7.3705817"><ele>2081.5</ele><time>2026-04-25T11:59:06.396Z</time></trkpt><trkpt lat="31.3126967" lon="-7.3706917"><ele>2078.0</ele><time>2026-04-25T11:59:07.396Z</time></trkpt><trkpt lat="31.31279" lon="-7.37081"><ele>2074.5</ele><time>2026-04-25T11:59:08.396Z</time></trkpt><trkpt lat="31.31288" lon="-7.3709333"><ele>2071.0</ele><time>2026-04-25T11:59:09.396Z</time></trkpt><trkpt lat="31.3129617" lon="-7.37107"><ele>2071.0</ele><time>2026-04-25T11:59:10.396Z</time></trkpt><trkpt lat="31.3130317" lon="-7.371215"><ele>2071.0</ele><time>2026-04-25T11:59:11.396Z</time></trkpt><trkpt lat="31.3130933" lon="-7.371365"><ele>2071.0</ele><time>2026-04-25T11:59:12.396Z</time></trkpt><trkpt lat="31.3131533" lon="-7.37152"><ele>2071.0</ele><time>2026-04-25T11:59:13.396Z</time></trkpt><trkpt lat="31.31322" lon="-7.3716717"><ele>2070.5</ele><time>2026-04-25T11:59:14.396Z</time></trkpt><trkpt lat="31.3132883" lon="-7.371825"><ele>2070.0</ele><time>2026-04-25T11:59:15.396Z</time></trkpt><trkpt lat="31.31335" lon="-7.371975"><ele>2069.5</ele><time>2026-04-25T11:59:16.396Z</time></trkpt><trkpt lat="31.3134083" lon="-7.372125"><ele>2069.0</ele><time>2026-04-25T11:59:17.396Z</time></trkpt><trkpt lat="31.313475" lon="-7.37228"><ele>2065.75</ele><time>2026-04-25T11:59:18.396Z</time></trkpt><trkpt lat="31.3135283" lon="-7.3724333"><ele>2062.5</ele><time>2026-04-25T11:59:19.396Z</time></trkpt><trkpt lat="31.3135733" lon="-7.3725917"><ele>2059.25</ele><time>2026-04-25T11:59:20.396Z</time></trkpt><trkpt lat="31.3136033" lon="-7.372755"><ele>2056.0</ele><time>2026-04-25T11:59:21.396Z</time></trkpt><trkpt lat="31.3135983" lon="-7.3729"><ele>2055.8</ele><time>2026-04-25T11:59:22.396Z</time></trkpt><trkpt lat="31.3135783" lon="-7.3730267"><ele>2055.6</ele><time>2026-04-25T11:59:23.396Z</time></trkpt><trkpt lat="31.3135583" lon="-7.3731467"><ele>2055.4</ele><time>2026-04-25T11:59:24.396Z</time></trkpt><trkpt lat="31.3135417" lon="-7.3732483"><ele>2055.2</ele><time>2026-04-25T11:59:25.396Z</time></trkpt><trkpt lat="31.31353" lon="-7.3733467"><ele>2055.0</ele><time>2026-04-25T11:59:26.396Z</time></trkpt><trkpt lat="31.3135117" lon="-7.3734417"><ele>2055.0</ele><time>2026-04-25T11:59:27.396Z</time></trkpt><trkpt lat="31.313495" lon="-7.3735367"><ele>2055.0</ele><time>2026-04-25T11:59:28.396Z</time></trkpt><trkpt lat="31.3134883" lon="-7.373635"><ele>2055.0</ele><time>2026-04-25T11:59:29.396Z</time></trkpt><trkpt lat="31.3134867" lon="-7.373725"><ele>2055.0</ele><time>2026-04-25T11:59:30.397Z</time></trkpt><trkpt lat="31.3135067" lon="-7.373815"><ele>2055.0</ele><time>2026-04-25T11:59:31.396Z</time></trkpt><trkpt lat="31.313555" lon="-7.3739017"><ele>2055.0</ele><time>2026-04-25T11:59:32.396Z</time></trkpt><trkpt lat="31.3136117" lon="-7.3739683"><ele>2057.75</ele><time>2026-04-25T11:59:33.396Z</time></trkpt><trkpt lat="31.3136917" lon="-7.37403"><ele>2060.5</ele><time>2026-04-25T11:59:34.396Z</time></trkpt><trkpt lat="31.3137983" lon="-7.37409"><ele>2063.25</ele><time>2026-04-25T11:59:35.396Z</time></trkpt><trkpt lat="31.3139133" lon="-7.37415"><ele>2066.0</ele><time>2026-04-25T11:59:36.396Z</time></trkpt><trkpt lat="31.3140367" lon="-7.37422"><ele>2066.0</ele><time>2026-04-25T11:59:37.396Z</time></trkpt><trkpt lat="31.314165" lon="-7.374295"><ele>2066.0</ele><time>2026-04-25T11:59:38.396Z</time></trkpt><trkpt lat="31.3143017" lon="-7.374375"><ele>2066.0</ele><time>2026-04-25T11:59:39.396Z</time></trkpt><trkpt lat="31.31443" lon="-7.3744583"><ele>2066.0</ele><time>2026-04-25T11:59:40.397Z</time></trkpt><trkpt lat="31.31455" lon="-7.3745367"><ele>2066.0</ele><time>2026-04-25T11:59:41.397Z</time></trkpt><trkpt lat="31.3146767" lon="-7.37462"><ele>2066.0</ele><time>2026-04-25T11:59:42.396Z</time></trkpt><trkpt lat="31.31481" lon="-7.3747033"><ele>2066.0</ele><time>2026-04-25T11:59:43.396Z</time></trkpt><trkpt lat="31.3149433" lon="-7.3747867"><ele>2066.0</ele><time>2026-04-25T11:59:44.396Z</time></trkpt><trkpt lat="31.3150783" lon="-7.3748667"><ele>2063.25</ele><time>2026-04-25T11:59:45.396Z</time></trkpt><trkpt lat="31.31521" lon="-7.3749517"><ele>2060.5</ele><time>2026-04-25T11:59:46.396Z</time></trkpt><trkpt lat="31.3153333" lon="-7.37503"><ele>2057.75</ele><time>2026-04-25T11:59:47.396Z</time></trkpt><trkpt lat="31.31545" lon="-7.37511"><ele>2055.0</ele><time>2026-04-25T11:59:48.396Z</time></trkpt><trkpt lat="31.3155533" lon="-7.3751967"><ele>2057.0</ele><time>2026-04-25T11:59:49.396Z</time></trkpt><trkpt lat="31.3156283" lon="-7.37531"><ele>2059.0</ele><time>2026-04-25T11:59:50.396Z</time></trkpt><trkpt lat="31.315675" lon="-7.3754467"><ele>2061.0</ele><time>2026-04-25T11:59:51.396Z</time></trkpt><trkpt lat="31.3156967" lon="-7.375595"><ele>2063.0</ele><time>2026-04-25T11:59:52.396Z</time></trkpt><trkpt lat="31.3156867" lon="-7.375745"><ele>2063.0</ele><time>2026-04-25T11:59:53.396Z</time></trkpt><trkpt lat="31.31563" lon="-7.375885"><ele>2063.0</ele><time>2026-04-25T11:59:54.396Z</time></trkpt><trkpt lat="31.3155567" lon="-7.376005"><ele>2063.0</ele><time>2026-04-25T11:59:55.396Z</time></trkpt><trkpt lat="31.3154783" lon="-7.37611"><ele>2063.0</ele><time>2026-04-25T11:59:56.396Z</time></trkpt><trkpt lat="31.3153983" lon="-7.3762133"><ele>2058.0</ele><time>2026-04-25T11:59:57.396Z</time></trkpt><trkpt lat="31.3153217" lon="-7.3763183"><ele>2053.0</ele><time>2026-04-25T11:59:58.396Z</time></trkpt><trkpt lat="31.3152467" lon="-7.3764233"><ele>2048.0</ele><time>2026-04-25T11:59:59.396Z</time></trkpt><trkpt lat="31.3151717" lon="-7.3765267"><ele>2043.0</ele><time>2026-04-25T12:00:00.396Z</time></trkpt><trkpt lat="31.3151017" lon="-7.37663"><ele>2043.0</ele><time>2026-04-25T12:00:01.396Z</time></trkpt><trkpt lat="31.3150433" lon="-7.37674"><ele>2043.0000000000002</ele><time>2026-04-25T12:00:02.396Z</time></trkpt><trkpt lat="31.3150083" lon="-7.3768567"><ele>2043.0000000000002</ele><time>2026-04-25T12:00:03.396Z</time></trkpt><trkpt lat="31.3150217" lon="-7.3769833"><ele>2043.0</ele><time>2026-04-25T12:00:04.396Z</time></trkpt><trkpt lat="31.3150717" lon="-7.377095"><ele>2043.0</ele><time>2026-04-25T12:00:05.396Z</time></trkpt><trkpt lat="31.3151483" lon="-7.3771733"><ele>2045.6000000000001</ele><time>2026-04-25T12:00:06.396Z</time></trkpt><trkpt lat="31.315245" lon="-7.3772317"><ele>2048.2000000000003</ele><time>2026-04-25T12:00:07.396Z</time></trkpt><trkpt lat="31.31534" lon="-7.37728"><ele>2050.8</ele><time>2026-04-25T12:00:08.396Z</time></trkpt><trkpt lat="31.3154267" lon="-7.37733"><ele>2053.4</ele><time>2026-04-25T12:00:09.396Z</time></trkpt><trkpt lat="31.3155167" lon="-7.3773767"><ele>2056.0</ele><time>2026-04-25T12:00:10.396Z</time></trkpt><trkpt lat="31.3156083" lon="-7.377425"><ele>2056.0</ele><time>2026-04-25T12:00:11.396Z</time></trkpt><trkpt lat="31.3156933" lon="-7.37748"><ele>2056.0</ele><time>2026-04-25T12:00:12.396Z</time></trkpt><trkpt lat="31.3157767" lon="-7.3775333"><ele>2056.0</ele><time>2026-04-25T12:00:13.396Z</time></trkpt><trkpt lat="31.31584" lon="-7.3776067"><ele>2056.0</ele><time>2026-04-25T12:00:14.396Z</time></trkpt><trkpt lat="31.3158817" lon="-7.3777083"><ele>2056.0</ele><time>2026-04-25T12:00:15.396Z</time></trkpt><trkpt lat="31.3159217" lon="-7.3778217"><ele>2056.0</ele><time>2026-04-25T12:00:16.396Z</time></trkpt><trkpt lat="31.3159383" lon="-7.3779317"><ele>2056.0</ele><time>2026-04-25T12:00:17.396Z</time></trkpt><trkpt lat="31.3159833" lon="-7.3780717"><ele>2056.0</ele><time>2026-04-25T12:00:18.396Z</time></trkpt><trkpt lat="31.3160283" lon="-7.3782117"><ele>2056.0</ele><time>2026-04-25T12:00:19.396Z</time></trkpt><trkpt lat="31.316065" lon="-7.3783667"><ele>2048.5</ele><time>2026-04-25T12:00:20.396Z</time></trkpt><trkpt lat="31.3161033" lon="-7.3785217"><ele>2041.0</ele><time>2026-04-25T12:00:21.396Z</time></trkpt><trkpt lat="31.3161433" lon="-7.378665"><ele>2033.5</ele><time>2026-04-25T12:00:22.396Z</time></trkpt><trkpt lat="31.3161917" lon="-7.3788017"><ele>2026.0</ele><time>2026-04-25T12:00:23.396Z</time></trkpt><trkpt lat="31.3162633" lon="-7.3789317"><ele>2027.25</ele><time>2026-04-25T12:00:24.396Z</time></trkpt><trkpt lat="31.31635" lon="-7.3790317"><ele>2028.5</ele><time>2026-04-25T12:00:25.396Z</time></trkpt><trkpt lat="31.3164717" lon="-7.3790967"><ele>2029.75</ele><time>2026-04-25T12:00:26.396Z</time></trkpt><trkpt lat="31.3165983" lon="-7.3791267"><ele>2031.0</ele><time>2026-04-25T12:00:27.396Z</time></trkpt><trkpt lat="31.31672" lon="-7.3791317"><ele>2031.0</ele><time>2026-04-25T12:00:28.396Z</time></trkpt><trkpt lat="31.3168483" lon="-7.379135"><ele>2031.0</ele><time>2026-04-25T12:00:29.396Z</time></trkpt><trkpt lat="31.3169767" lon="-7.3791383"><ele>2031.0</ele><time>2026-04-25T12:00:30.396Z</time></trkpt><trkpt lat="31.317095" lon="-7.37914"><ele>2031.0</ele><time>2026-04-25T12:00:31.396Z</time></trkpt><trkpt lat="31.3171967" lon="-7.37914"><ele>2029.8333333333333</ele><time>2026-04-25T12:00:32.396Z</time></trkpt><trkpt lat="31.3172917" lon="-7.3791533"><ele>2028.6666666666665</ele><time>2026-04-25T12:00:33.396Z</time></trkpt><trkpt lat="31.3173683" lon="-7.3791667"><ele>2027.5</ele><time>2026-04-25T12:00:34.396Z</time></trkpt><trkpt lat="31.3174317" lon="-7.37917"><ele>2026.3333333333333</ele><time>2026-04-25T12:00:35.396Z</time></trkpt><trkpt lat="31.3175117" lon="-7.3791483"><ele>2025.1666666666665</ele><time>2026-04-25T12:00:38.396Z</time></trkpt><trkpt lat="31.3175733" lon="-7.379125"><ele>2024.0</ele><time>2026-04-25T12:00:42.396Z</time></trkpt><trkpt lat="31.3176567" lon="-7.3791167"><ele>2024.0000000000002</ele><time>2026-04-25T12:01:04.396Z</time></trkpt><trkpt lat="31.317695" lon="-7.3791933"><ele>2024.0</ele><time>2026-04-25T12:01:16.396Z</time></trkpt><trkpt lat="31.317615" lon="-7.37918"><ele>2024.0000000000002</ele><time>2026-04-25T12:01:19.396Z</time></trkpt><trkpt lat="31.3175533" lon="-7.3791333"><ele>2024.0000000000002</ele><time>2026-04-25T12:01:22.396Z</time></trkpt><trkpt lat="31.3174867" lon="-7.3791367"><ele>2024.0</ele><time>2026-04-25T12:01:26.396Z</time></trkpt><trkpt lat="31.3174533" lon="-7.3792"><ele>2024.0000000000002</ele><time>2026-04-25T12:30:40.391Z</time></trkpt><trkpt lat="31.3175183" lon="-7.3792067"><ele>2024.0000000000002</ele><time>2026-04-25T12:30:43.391Z</time></trkpt><trkpt lat="31.3175967" lon="-7.37918"><ele>2023.9999999999998</ele><time>2026-04-25T12:30:45.391Z</time></trkpt><trkpt lat="31.3176967" lon="-7.3791817"><ele>2024.0</ele><time>2026-04-25T12:31:10.391Z</time></trkpt><trkpt lat="31.3177767" lon="-7.3791733"><ele>2024.0</ele><time>2026-04-25T12:31:13.391Z</time></trkpt><trkpt lat="31.3178367" lon="-7.3791467"><ele>2024.0</ele><time>2026-04-25T12:31:16.391Z</time></trkpt><trkpt lat="31.3179067" lon="-7.379115"><ele>2023.9999999999998</ele><time>2026-04-25T12:31:20.391Z</time></trkpt><trkpt lat="31.317975" lon="-7.3790783"><ele>2024.0</ele><time>2026-04-25T12:31:24.391Z</time></trkpt><trkpt lat="31.31805" lon="-7.3790533"><ele>2022.4999999999998</ele><time>2026-04-25T12:31:28.392Z</time></trkpt><trkpt lat="31.318115" lon="-7.3790417"><ele>2021.0</ele><time>2026-04-25T12:31:32.391Z</time></trkpt><trkpt lat="31.3181767" lon="-7.379"><ele>2019.5</ele><time>2026-04-25T12:31:35.391Z</time></trkpt><trkpt lat="31.3182433" lon="-7.3789683"><ele>2018.0</ele><time>2026-04-25T12:31:38.391Z</time></trkpt><trkpt lat="31.3183017" lon="-7.3789383"><ele>2016.4999999999998</ele><time>2026-04-25T12:31:41.391Z</time></trkpt><trkpt lat="31.3184033" lon="-7.378915"><ele>2015.0</ele><time>2026-04-25T12:31:48.391Z</time></trkpt><trkpt lat="31.318515" lon="-7.3789183"><ele>2015.0</ele><time>2026-04-25T12:31:50.391Z</time></trkpt><trkpt lat="31.31863" lon="-7.3789783"><ele>2015.0</ele><time>2026-04-25T12:31:52.391Z</time></trkpt><trkpt lat="31.3187367" lon="-7.3790517"><ele>2015.0</ele><time>2026-04-25T12:31:54.391Z</time></trkpt><trkpt lat="31.3188433" lon="-7.3791017"><ele>2015.0</ele><time>2026-04-25T12:31:56.391Z</time></trkpt><trkpt lat="31.3189733" lon="-7.3790883"><ele>2012.8</ele><time>2026-04-25T12:31:58.391Z</time></trkpt><trkpt lat="31.31905" lon="-7.3790533"><ele>2010.6</ele><time>2026-04-25T12:31:59.391Z</time></trkpt><trkpt lat="31.3191283" lon="-7.37901"><ele>2008.4</ele><time>2026-04-25T12:32:00.391Z</time></trkpt><trkpt lat="31.3192133" lon="-7.3789633"><ele>2006.2</ele><time>2026-04-25T12:32:01.391Z</time></trkpt><trkpt lat="31.3193033" lon="-7.37891"><ele>2004.0</ele><time>2026-04-25T12:32:02.391Z</time></trkpt><trkpt lat="31.319395" lon="-7.3788583"><ele>2005.0</ele><time>2026-04-25T12:32:03.391Z</time></trkpt><trkpt lat="31.319485" lon="-7.3788067"><ele>2006.0</ele><time>2026-04-25T12:32:04.391Z</time></trkpt><trkpt lat="31.3195767" lon="-7.3787517"><ele>2007.0</ele><time>2026-04-25T12:32:05.392Z</time></trkpt><trkpt lat="31.31965" lon="-7.3786833"><ele>2008.0</ele><time>2026-04-25T12:32:06.391Z</time></trkpt><trkpt lat="31.319705" lon="-7.378615"><ele>2009.0</ele><time>2026-04-25T12:32:07.391Z</time></trkpt><trkpt lat="31.31973" lon="-7.3785433"><ele>2010.0</ele><time>2026-04-25T12:32:08.391Z</time></trkpt><trkpt lat="31.3196767" lon="-7.3784167"><ele>2010.0</ele><time>2026-04-25T12:32:10.391Z</time></trkpt><trkpt lat="31.3195983" lon="-7.3783867"><ele>2010.0</ele><time>2026-04-25T12:32:11.391Z</time></trkpt><trkpt lat="31.31951" lon="-7.3783883"><ele>2010.0</ele><time>2026-04-25T12:32:12.391Z</time></trkpt><trkpt lat="31.3193933" lon="-7.3784117"><ele>2010.0</ele><time>2026-04-25T12:32:13.391Z</time></trkpt><trkpt lat="31.31925" lon="-7.3784467"><ele>2010.0</ele><time>2026-04-25T12:32:14.391Z</time></trkpt><trkpt lat="31.3191017" lon="-7.3784717"><ele>2010.0</ele><time>2026-04-25T12:32:15.391Z</time></trkpt><trkpt lat="31.3189667" lon="-7.3785033"><ele>2010.0</ele><time>2026-04-25T12:32:16.391Z</time></trkpt><trkpt lat="31.3188433" lon="-7.3785367"><ele>2010.0</ele><time>2026-04-25T12:32:17.391Z</time></trkpt><trkpt lat="31.3187283" lon="-7.3785633"><ele>2010.0</ele><time>2026-04-25T12:32:18.391Z</time></trkpt><trkpt lat="31.318615" lon="-7.37858"><ele>2010.8</ele><time>2026-04-25T12:32:19.391Z</time></trkpt><trkpt lat="31.318515" lon="-7.37857"><ele>2011.6</ele><time>2026-04-25T12:32:20.391Z</time></trkpt><trkpt lat="31.3184333" lon="-7.3785167"><ele>2012.4</ele><time>2026-04-25T12:32:21.391Z</time></trkpt><trkpt lat="31.3183833" lon="-7.3784333"><ele>2013.2</ele><time>2026-04-25T12:32:22.391Z</time></trkpt><trkpt lat="31.318365" lon="-7.3783433"><ele>2014.0</ele><time>2026-04-25T12:32:23.391Z</time></trkpt><trkpt lat="31.3183933" lon="-7.3782433"><ele>2014.0</ele><time>2026-04-25T12:32:24.391Z</time></trkpt><trkpt lat="31.3184733" lon="-7.3781667"><ele>2014.0</ele><time>2026-04-25T12:32:25.391Z</time></trkpt><trkpt lat="31.318585" lon="-7.3781267"><ele>2014.0</ele><time>2026-04-25T12:32:26.391Z</time></trkpt><trkpt lat="31.3187133" lon="-7.3781117"><ele>2014.0</ele><time>2026-04-25T12:32:27.392Z</time></trkpt><trkpt lat="31.3188417" lon="-7.3781067"><ele>2013.75</ele><time>2026-04-25T12:32:28.391Z</time></trkpt><trkpt lat="31.318975" lon="-7.378085"><ele>2013.5</ele><time>2026-04-25T12:32:29.391Z</time></trkpt><trkpt lat="31.3191067" lon="-7.3780283"><ele>2013.25</ele><time>2026-04-25T12:32:30.391Z</time></trkpt><trkpt lat="31.319235" lon="-7.3779333"><ele>2013.0</ele><time>2026-04-25T12:32:31.391Z</time></trkpt><trkpt lat="31.3193533" lon="-7.377825"><ele>2013.0</ele><time>2026-04-25T12:32:32.391Z</time></trkpt><trkpt lat="31.31945" lon="-7.3777067"><ele>2013.0</ele><time>2026-04-25T12:32:33.391Z</time></trkpt><trkpt lat="31.3195267" lon="-7.377575"><ele>2013.0</ele><time>2026-04-25T12:32:34.391Z</time></trkpt><trkpt lat="31.319555" lon="-7.3774267"><ele>2013.0</ele><time>2026-04-25T12:32:35.391Z</time></trkpt><trkpt lat="31.3195517" lon="-7.3772567"><ele>2007.3333333333335</ele><time>2026-04-25T12:32:36.392Z</time></trkpt><trkpt lat="31.3195167" lon="-7.3770883"><ele>2001.6666666666667</ele><time>2026-04-25T12:32:37.391Z</time></trkpt><trkpt lat="31.3194567" lon="-7.3769283"><ele>1996.0</ele><time>2026-04-25T12:32:38.391Z</time></trkpt><trkpt lat="31.31936" lon="-7.376775"><ele>1996.0</ele><time>2026-04-25T12:32:39.391Z</time></trkpt><trkpt lat="31.319235" lon="-7.3766367"><ele>1996.0</ele><time>2026-04-25T12:32:40.391Z</time></trkpt><trkpt lat="31.3191067" lon="-7.3765117"><ele>1996.0</ele><time>2026-04-25T12:32:41.391Z</time></trkpt><trkpt lat="31.31899" lon="-7.376395"><ele>2003.5</ele><time>2026-04-25T12:32:42.391Z</time></trkpt><trkpt lat="31.3188783" lon="-7.3762833"><ele>2011.0</ele><time>2026-04-25T12:32:43.391Z</time></trkpt><trkpt lat="31.3187817" lon="-7.3761783"><ele>2018.5</ele><time>2026-04-25T12:32:44.391Z</time></trkpt><trkpt lat="31.3187117" lon="-7.3760717"><ele>2026.0</ele><time>2026-04-25T12:32:45.391Z</time></trkpt><trkpt lat="31.3186717" lon="-7.3759683"><ele>2026.0000000000002</ele><time>2026-04-25T12:32:46.391Z</time></trkpt><trkpt lat="31.318655" lon="-7.3758667"><ele>2026.0</ele><time>2026-04-25T12:32:47.392Z</time></trkpt><trkpt lat="31.3186733" lon="-7.3757717"><ele>2026.0</ele><time>2026-04-25T12:32:48.392Z</time></trkpt><trkpt lat="31.31872" lon="-7.375705"><ele>2026.0</ele><time>2026-04-25T12:32:49.391Z</time></trkpt><trkpt lat="31.31879" lon="-7.3756733"><ele>2026.0000000000002</ele><time>2026-04-25T12:32:50.391Z</time></trkpt><trkpt lat="31.3188717" lon="-7.3756783"><ele>2026.0</ele><time>2026-04-25T12:32:51.391Z</time></trkpt><trkpt lat="31.31895" lon="-7.3757233"><ele>2013.5</ele><time>2026-04-25T12:32:52.391Z</time></trkpt><trkpt lat="31.319025" lon="-7.375805"><ele>2001.0</ele><time>2026-04-25T12:32:53.391Z</time></trkpt><trkpt lat="31.319095" lon="-7.3759167"><ele>1988.5</ele><time>2026-04-25T12:32:54.391Z</time></trkpt><trkpt lat="31.31917" lon="-7.37604"><ele>1976.0</ele><time>2026-04-25T12:32:55.391Z</time></trkpt><trkpt lat="31.3192683" lon="-7.3761717"><ele>1976.0</ele><time>2026-04-25T12:32:56.391Z</time></trkpt><trkpt lat="31.3193833" lon="-7.3763033"><ele>1976.0</ele><time>2026-04-25T12:32:57.391Z</time></trkpt><trkpt lat="31.3195067" lon="-7.3764217"><ele>1976.0</ele><time>2026-04-25T12:32:58.391Z</time></trkpt><trkpt lat="31.319635" lon="-7.37653"><ele>1973.0</ele><time>2026-04-25T12:32:59.391Z</time></trkpt><trkpt lat="31.3197433" lon="-7.3766433"><ele>1970.0</ele><time>2026-04-25T12:33:00.391Z</time></trkpt><trkpt lat="31.3198367" lon="-7.3767733"><ele>1967.0</ele><time>2026-04-25T12:33:01.391Z</time></trkpt><trkpt lat="31.3199083" lon="-7.37691"><ele>1964.0</ele><time>2026-04-25T12:33:02.391Z</time></trkpt><trkpt lat="31.3199717" lon="-7.3770517"><ele>1964.0</ele><time>2026-04-25T12:33:03.391Z</time></trkpt><trkpt lat="31.3200283" lon="-7.377185"><ele>1964.0</ele><time>2026-04-25T12:33:04.391Z</time></trkpt><trkpt lat="31.3200917" lon="-7.3773217"><ele>1964.0</ele><time>2026-04-25T12:33:05.391Z</time></trkpt><trkpt lat="31.3201867" lon="-7.3774533"><ele>1964.0</ele><time>2026-04-25T12:33:06.391Z</time></trkpt><trkpt lat="31.3203133" lon="-7.377565"><ele>1962.3333333333333</ele><time>2026-04-25T12:33:07.391Z</time></trkpt><trkpt lat="31.32046" lon="-7.3776533"><ele>1960.6666666666665</ele><time>2026-04-25T12:33:08.391Z</time></trkpt><trkpt lat="31.32064" lon="-7.3777067"><ele>1959.0</ele><time>2026-04-25T12:33:09.391Z</time></trkpt><trkpt lat="31.3208267" lon="-7.3777283"><ele>1959.0</ele><time>2026-04-25T12:33:10.391Z</time></trkpt><trkpt lat="31.3210067" lon="-7.3777383"><ele>1959.0</ele><time>2026-04-25T12:33:11.391Z</time></trkpt><trkpt lat="31.3211667" lon="-7.3777533"><ele>1959.0</ele><time>2026-04-25T12:33:12.391Z</time></trkpt><trkpt lat="31.3213283" lon="-7.3777683"><ele>1959.0</ele><time>2026-04-25T12:33:13.391Z</time></trkpt><trkpt lat="31.3214817" lon="-7.37778"><ele>1959.0</ele><time>2026-04-25T12:33:14.391Z</time></trkpt><trkpt lat="31.321635" lon="-7.3777783"><ele>1959.0</ele><time>2026-04-25T12:33:15.392Z</time></trkpt><trkpt lat="31.3217933" lon="-7.3777617"><ele>1959.0</ele><time>2026-04-25T12:33:16.391Z</time></trkpt><trkpt lat="31.32197" lon="-7.3777067"><ele>1959.0</ele><time>2026-04-25T12:33:17.391Z</time></trkpt><trkpt lat="31.322145" lon="-7.3776367"><ele>1959.0</ele><time>2026-04-25T12:33:18.391Z</time></trkpt><trkpt lat="31.3223183" lon="-7.37759"><ele>1956.5</ele><time>2026-04-25T12:33:19.391Z</time></trkpt><trkpt lat="31.32248" lon="-7.377565"><ele>1954.0</ele><time>2026-04-25T12:33:20.391Z</time></trkpt><trkpt lat="31.3226233" lon="-7.377535"><ele>1951.5</ele><time>2026-04-25T12:33:21.391Z</time></trkpt><trkpt lat="31.32275" lon="-7.37747"><ele>1949.0</ele><time>2026-04-25T12:33:22.391Z</time></trkpt><trkpt lat="31.3228717" lon="-7.3773883"><ele>1949.0</ele><time>2026-04-25T12:33:23.391Z</time></trkpt><trkpt lat="31.3229717" lon="-7.3772967"><ele>1949.0</ele><time>2026-04-25T12:33:24.391Z</time></trkpt><trkpt lat="31.3230333" lon="-7.3772067"><ele>1949.0</ele><time>2026-04-25T12:33:25.391Z</time></trkpt><trkpt lat="31.3230533" lon="-7.3771083"><ele>1949.0</ele><time>2026-04-25T12:33:26.391Z</time></trkpt><trkpt lat="31.3230483" lon="-7.3770033"><ele>1949.0</ele><time>2026-04-25T12:33:27.391Z</time></trkpt><trkpt lat="31.3230067" lon="-7.3769233"><ele>1947.5</ele><time>2026-04-25T12:33:28.391Z</time></trkpt><trkpt lat="31.3229" lon="-7.3768617"><ele>1946.0</ele><time>2026-04-25T12:33:29.391Z</time></trkpt><trkpt lat="31.3227583" lon="-7.3768217"><ele>1944.5</ele><time>2026-04-25T12:33:30.392Z</time></trkpt><trkpt lat="31.3225783" lon="-7.37678"><ele>1943.0</ele><time>2026-04-25T12:33:31.391Z</time></trkpt><trkpt lat="31.322365" lon="-7.3767433"><ele>1941.6666666666665</ele><time>2026-04-25T12:33:32.391Z</time></trkpt><trkpt lat="31.3221417" lon="-7.376725"><ele>1940.3333333333335</ele><time>2026-04-25T12:33:33.391Z</time></trkpt><trkpt lat="31.3219267" lon="-7.3767117"><ele>1939.0</ele><time>2026-04-25T12:33:34.391Z</time></trkpt><trkpt lat="31.321725" lon="-7.3767233"><ele>1939.0</ele><time>2026-04-25T12:33:35.391Z</time></trkpt><trkpt lat="31.3215317" lon="-7.37673"><ele>1939.0</ele><time>2026-04-25T12:33:36.392Z</time></trkpt><trkpt lat="31.3213533" lon="-7.3767317"><ele>1939.0</ele><time>2026-04-25T12:33:37.391Z</time></trkpt><trkpt lat="31.3211783" lon="-7.37673"><ele>1939.0</ele><time>2026-04-25T12:33:38.391Z</time></trkpt><trkpt lat="31.321025" lon="-7.3767217"><ele>1939.0</ele><time>2026-04-25T12:33:39.391Z</time></trkpt><trkpt lat="31.320895" lon="-7.376695"><ele>1939.0</ele><time>2026-04-25T12:33:40.391Z</time></trkpt><trkpt lat="31.3207883" lon="-7.376645"><ele>1939.0</ele><time>2026-04-25T12:33:41.391Z</time></trkpt><trkpt lat="31.3207117" lon="-7.376565"><ele>1939.0</ele><time>2026-04-25T12:33:42.391Z</time></trkpt><trkpt lat="31.3206667" lon="-7.376455"><ele>1939.0</ele><time>2026-04-25T12:33:43.391Z</time></trkpt><trkpt lat="31.3206617" lon="-7.3763367"><ele>1939.0</ele><time>2026-04-25T12:33:44.391Z</time></trkpt><trkpt lat="31.3206967" lon="-7.3762133"><ele>1939.0</ele><time>2026-04-25T12:33:45.391Z</time></trkpt><trkpt lat="31.3207633" lon="-7.3761267"><ele>1939.0</ele><time>2026-04-25T12:33:46.391Z</time></trkpt><trkpt lat="31.3208667" lon="-7.3760683"><ele>1934.75</ele><time>2026-04-25T12:33:47.391Z</time></trkpt><trkpt lat="31.3209867" lon="-7.3760467"><ele>1930.5</ele><time>2026-04-25T12:33:48.391Z</time></trkpt><trkpt lat="31.32113" lon="-7.376055"><ele>1926.25</ele><time>2026-04-25T12:33:49.392Z</time></trkpt><trkpt lat="31.321305" lon="-7.376085"><ele>1922.0</ele><time>2026-04-25T12:33:50.391Z</time></trkpt><trkpt lat="31.3214983" lon="-7.3761217"><ele>1920.0</ele><time>2026-04-25T12:33:51.391Z</time></trkpt><trkpt lat="31.3216917" lon="-7.3761517"><ele>1918.0</ele><time>2026-04-25T12:33:52.391Z</time></trkpt><trkpt lat="31.3218733" lon="-7.3761733"><ele>1916.0</ele><time>2026-04-25T12:33:53.391Z</time></trkpt><trkpt lat="31.3220617" lon="-7.3761917"><ele>1914.3333333333333</ele><time>2026-04-25T12:33:54.391Z</time></trkpt><trkpt lat="31.3222633" lon="-7.37621"><ele>1912.6666666666665</ele><time>2026-04-25T12:33:55.391Z</time></trkpt><trkpt lat="31.3224767" lon="-7.3762367"><ele>1911.0</ele><time>2026-04-25T12:33:56.391Z</time></trkpt><trkpt lat="31.32269" lon="-7.376265"><ele>1911.0</ele><time>2026-04-25T12:33:57.391Z</time></trkpt><trkpt lat="31.322885" lon="-7.37629"><ele>1911.0</ele><time>2026-04-25T12:33:58.391Z</time></trkpt><trkpt lat="31.323075" lon="-7.37631"><ele>1911.0</ele><time>2026-04-25T12:33:59.391Z</time></trkpt><trkpt lat="31.3232583" lon="-7.3763233"><ele>1908.3333333333335</ele><time>2026-04-25T12:34:00.391Z</time></trkpt><trkpt lat="31.323435" lon="-7.3763117"><ele>1905.6666666666667</ele><time>2026-04-25T12:34:01.391Z</time></trkpt><trkpt lat="31.3235933" lon="-7.3762617"><ele>1903.0</ele><time>2026-04-25T12:34:02.392Z</time></trkpt><trkpt lat="31.3237283" lon="-7.376215"><ele>1903.0</ele><time>2026-04-25T12:34:03.391Z</time></trkpt><trkpt lat="31.3238367" lon="-7.3762083"><ele>1903.0000000000002</ele><time>2026-04-25T12:34:04.391Z</time></trkpt><trkpt lat="31.3239267" lon="-7.376245"><ele>1903.0000000000002</ele><time>2026-04-25T12:34:05.391Z</time></trkpt><trkpt lat="31.3239983" lon="-7.3763167"><ele>1903.0</ele><time>2026-04-25T12:34:06.391Z</time></trkpt><trkpt lat="31.3240417" lon="-7.37641"><ele>1903.0</ele><time>2026-04-25T12:34:07.392Z</time></trkpt><trkpt lat="31.324045" lon="-7.37652"><ele>1902.25</ele><time>2026-04-25T12:34:08.391Z</time></trkpt><trkpt lat="31.32401" lon="-7.3766417"><ele>1901.5</ele><time>2026-04-25T12:34:09.391Z</time></trkpt><trkpt lat="31.32394" lon="-7.3767633"><ele>1900.75</ele><time>2026-04-25T12:34:10.391Z</time></trkpt><trkpt lat="31.3238533" lon="-7.376895"><ele>1900.0</ele><time>2026-04-25T12:34:11.391Z</time></trkpt><trkpt lat="31.32377" lon="-7.377045"><ele>1905.5</ele><time>2026-04-25T12:34:12.391Z</time></trkpt><trkpt lat="31.32372" lon="-7.3772083"><ele>1911.0</ele><time>2026-04-25T12:34:13.391Z</time></trkpt><trkpt lat="31.323685" lon="-7.377365"><ele>1916.5</ele><time>2026-04-25T12:34:14.392Z</time></trkpt><trkpt lat="31.3236417" lon="-7.3775183"><ele>1922.0</ele><time>2026-04-25T12:34:15.391Z</time></trkpt><trkpt lat="31.32358" lon="-7.3776567"><ele>1922.0</ele><time>2026-04-25T12:34:16.391Z</time></trkpt><trkpt lat="31.3234867" lon="-7.3778033"><ele>1922.0</ele><time>2026-04-25T12:34:17.391Z</time></trkpt><trkpt lat="31.3233667" lon="-7.3779433"><ele>1922.0</ele><time>2026-04-25T12:34:18.391Z</time></trkpt><trkpt lat="31.3232367" lon="-7.3780783"><ele>1918.0</ele><time>2026-04-25T12:34:19.391Z</time></trkpt><trkpt lat="31.3231117" lon="-7.3782117"><ele>1914.0</ele><time>2026-04-25T12:34:20.391Z</time></trkpt><trkpt lat="31.32298" lon="-7.378325"><ele>1910.0</ele><time>2026-04-25T12:34:21.391Z</time></trkpt><trkpt lat="31.32284" lon="-7.3784117"><ele>1910.0</ele><time>2026-04-25T12:34:22.391Z</time></trkpt><trkpt lat="31.3226883" lon="-7.37846"><ele>1910.0</ele><time>2026-04-25T12:34:23.391Z</time></trkpt><trkpt lat="31.3225267" lon="-7.37849"><ele>1910.0</ele><time>2026-04-25T12:34:24.391Z</time></trkpt><trkpt lat="31.3223733" lon="-7.37853"><ele>1910.0</ele><time>2026-04-25T12:34:25.391Z</time></trkpt><trkpt lat="31.3222317" lon="-7.3786067"><ele>1910.0</ele><time>2026-04-25T12:34:26.391Z</time></trkpt><trkpt lat="31.322105" lon="-7.3787133"><ele>1910.0</ele><time>2026-04-25T12:34:27.391Z</time></trkpt><trkpt lat="31.3219833" lon="-7.378805"><ele>1904.5</ele><time>2026-04-25T12:34:28.391Z</time></trkpt><trkpt lat="31.3218533" lon="-7.3788817"><ele>1899.0</ele><time>2026-04-25T12:34:29.391Z</time></trkpt><trkpt lat="31.3217133" lon="-7.378935"><ele>1893.5</ele><time>2026-04-25T12:34:30.391Z</time></trkpt><trkpt lat="31.3215817" lon="-7.37898"><ele>1888.0</ele><time>2026-04-25T12:34:31.391Z</time></trkpt><trkpt lat="31.3214617" lon="-7.3790367"><ele>1901.5</ele><time>2026-04-25T12:34:32.391Z</time></trkpt><trkpt lat="31.3213683" lon="-7.37912"><ele>1915.0</ele><time>2026-04-25T12:34:33.391Z</time></trkpt><trkpt lat="31.3213067" lon="-7.37923"><ele>1928.5</ele><time>2026-04-25T12:34:34.391Z</time></trkpt><trkpt lat="31.3212917" lon="-7.379375"><ele>1942.0</ele><time>2026-04-25T12:34:35.391Z</time></trkpt><trkpt lat="31.3213183" lon="-7.3795417"><ele>1931.0</ele><time>2026-04-25T12:34:36.391Z</time></trkpt><trkpt lat="31.32135" lon="-7.3797333"><ele>1920.0</ele><time>2026-04-25T12:34:37.391Z</time></trkpt><trkpt lat="31.3213817" lon="-7.3799133"><ele>1909.0</ele><time>2026-04-25T12:34:38.391Z</time></trkpt><trkpt lat="31.3214083" lon="-7.3800817"><ele>1898.75</ele><time>2026-04-25T12:34:39.391Z</time></trkpt><trkpt lat="31.3214617" lon="-7.3802383"><ele>1888.5</ele><time>2026-04-25T12:34:40.391Z</time></trkpt><trkpt lat="31.3215517" lon="-7.3803717"><ele>1878.25</ele><time>2026-04-25T12:34:41.391Z</time></trkpt><trkpt lat="31.3216767" lon="-7.3804867"><ele>1868.0</ele><time>2026-04-25T12:34:42.391Z</time></trkpt><trkpt lat="31.3218567" lon="-7.380585"><ele>1862.0</ele><time>2026-04-25T12:34:43.391Z</time></trkpt><trkpt lat="31.3220717" lon="-7.3806683"><ele>1856.0</ele><time>2026-04-25T12:34:44.391Z</time></trkpt><trkpt lat="31.322305" lon="-7.38076"><ele>1856.0</ele><time>2026-04-25T12:34:45.392Z</time></trkpt><trkpt lat="31.322515" lon="-7.3808567"><ele>1856.0</ele><time>2026-04-25T12:34:46.391Z</time></trkpt><trkpt lat="31.3227217" lon="-7.3809267"><ele>1856.0</ele><time>2026-04-25T12:34:47.391Z</time></trkpt><trkpt lat="31.32293" lon="-7.38096"><ele>1851.5</ele><time>2026-04-25T12:34:48.391Z</time></trkpt><trkpt lat="31.3231567" lon="-7.3809567"><ele>1847.0</ele><time>2026-04-25T12:34:49.391Z</time></trkpt><trkpt lat="31.3234083" lon="-7.3809283"><ele>1847.0</ele><time>2026-04-25T12:34:50.391Z</time></trkpt><trkpt lat="31.3236733" lon="-7.3808933"><ele>1847.0</ele><time>2026-04-25T12:34:51.391Z</time></trkpt><trkpt lat="31.323935" lon="-7.3808667"><ele>1843.5</ele><time>2026-04-25T12:34:52.391Z</time></trkpt><trkpt lat="31.3241833" lon="-7.380845"><ele>1840.0</ele><time>2026-04-25T12:34:53.391Z</time></trkpt><trkpt lat="31.3244133" lon="-7.3808233"><ele>1840.0</ele><time>2026-04-25T12:34:54.391Z</time></trkpt><trkpt lat="31.3246233" lon="-7.3808233"><ele>1840.0</ele><time>2026-04-25T12:34:55.391Z</time></trkpt><trkpt lat="31.3248267" lon="-7.3808667"><ele>1840.0</ele><time>2026-04-25T12:34:56.391Z</time></trkpt><trkpt lat="31.3250317" lon="-7.3809467"><ele>1840.0</ele><time>2026-04-25T12:34:57.391Z</time></trkpt><trkpt lat="31.3252467" lon="-7.3810367"><ele>1840.0</ele><time>2026-04-25T12:34:58.391Z</time></trkpt><trkpt lat="31.3254667" lon="-7.3811217"><ele>1841.3333333333335</ele><time>2026-04-25T12:34:59.391Z</time></trkpt><trkpt lat="31.32568" lon="-7.3812017"><ele>1842.6666666666665</ele><time>2026-04-25T12:35:00.391Z</time></trkpt><trkpt lat="31.325885" lon="-7.381285"><ele>1844.0</ele><time>2026-04-25T12:35:01.391Z</time></trkpt><trkpt lat="31.32608" lon="-7.3813583"><ele>1844.0</ele><time>2026-04-25T12:35:02.391Z</time></trkpt><trkpt lat="31.3262733" lon="-7.3814317"><ele>1844.0</ele><time>2026-04-25T12:35:03.391Z</time></trkpt><trkpt lat="31.32646" lon="-7.381495"><ele>1844.0</ele><time>2026-04-25T12:35:04.392Z</time></trkpt><trkpt lat="31.326645" lon="-7.3815383"><ele>1844.3333333333333</ele><time>2026-04-25T12:35:05.391Z</time></trkpt><trkpt lat="31.3268317" lon="-7.3815733"><ele>1844.6666666666665</ele><time>2026-04-25T12:35:06.391Z</time></trkpt><trkpt lat="31.327015" lon="-7.3815983"><ele>1845.0</ele><time>2026-04-25T12:35:07.391Z</time></trkpt><trkpt lat="31.3271967" lon="-7.381615"><ele>1839.3333333333335</ele><time>2026-04-25T12:35:08.391Z</time></trkpt><trkpt lat="31.32737" lon="-7.3816283"><ele>1833.6666666666667</ele><time>2026-04-25T12:35:09.391Z</time></trkpt><trkpt lat="31.3275417" lon="-7.3816417"><ele>1828.0</ele><time>2026-04-25T12:35:10.392Z</time></trkpt><trkpt lat="31.3277033" lon="-7.38166"><ele>1828.0</ele><time>2026-04-25T12:35:11.391Z</time></trkpt><trkpt lat="31.3278517" lon="-7.3816733"><ele>1828.0</ele><time>2026-04-25T12:35:12.391Z</time></trkpt><trkpt lat="31.327985" lon="-7.3816833"><ele>1828.0</ele><time>2026-04-25T12:35:13.391Z</time></trkpt><trkpt lat="31.32811" lon="-7.3816833"><ele>1828.0</ele><time>2026-04-25T12:35:14.391Z</time></trkpt><trkpt lat="31.3282267" lon="-7.381675"><ele>1825.8000000000002</ele><time>2026-04-25T12:35:15.391Z</time></trkpt><trkpt lat="31.3283267" lon="-7.3816467"><ele>1823.6000000000001</ele><time>2026-04-25T12:35:16.391Z</time></trkpt><trkpt lat="31.32842" lon="-7.3816033"><ele>1821.3999999999999</ele><time>2026-04-25T12:35:17.391Z</time></trkpt><trkpt lat="31.3285083" lon="-7.3815317"><ele>1819.1999999999998</ele><time>2026-04-25T12:35:18.391Z</time></trkpt><trkpt lat="31.32859" lon="-7.3814333"><ele>1817.0</ele><time>2026-04-25T12:35:19.391Z</time></trkpt><trkpt lat="31.3286667" lon="-7.3813117"><ele>1814.25</ele><time>2026-04-25T12:35:20.39Z</time></trkpt><trkpt lat="31.3287433" lon="-7.38119"><ele>1811.5</ele><time>2026-04-25T12:35:21.39Z</time></trkpt><trkpt lat="31.328825" lon="-7.3810933"><ele>1808.75</ele><time>2026-04-25T12:35:22.39Z</time></trkpt><trkpt lat="31.3289333" lon="-7.38103"><ele>1806.0</ele><time>2026-04-25T12:35:23.39Z</time></trkpt><trkpt lat="31.3290617" lon="-7.381005"><ele>1806.0</ele><time>2026-04-25T12:35:24.39Z</time></trkpt><trkpt lat="31.3292067" lon="-7.38101"><ele>1806.0</ele><time>2026-04-25T12:35:25.39Z</time></trkpt><trkpt lat="31.3293483" lon="-7.38105"><ele>1806.0</ele><time>2026-04-25T12:35:26.39Z</time></trkpt><trkpt lat="31.3294833" lon="-7.3811283"><ele>1806.0</ele><time>2026-04-25T12:35:27.39Z</time></trkpt><trkpt lat="31.329625" lon="-7.3812467"><ele>1809.0</ele><time>2026-04-25T12:35:28.39Z</time></trkpt><trkpt lat="31.3297717" lon="-7.3813967"><ele>1812.0</ele><time>2026-04-25T12:35:29.39Z</time></trkpt><trkpt lat="31.32993" lon="-7.38156"><ele>1815.0</ele><time>2026-04-25T12:35:30.391Z</time></trkpt><trkpt lat="31.3301017" lon="-7.3817317"><ele>1815.0</ele><time>2026-04-25T12:35:31.39Z</time></trkpt><trkpt lat="31.330285" lon="-7.381905"><ele>1815.0</ele><time>2026-04-25T12:35:32.39Z</time></trkpt><trkpt lat="31.330465" lon="-7.38208"><ele>1811.0</ele><time>2026-04-25T12:35:33.39Z</time></trkpt><trkpt lat="31.3306367" lon="-7.3822533"><ele>1807.0</ele><time>2026-04-25T12:35:34.39Z</time></trkpt><trkpt lat="31.3307967" lon="-7.3824283"><ele>1803.0</ele><time>2026-04-25T12:35:35.39Z</time></trkpt><trkpt lat="31.3309367" lon="-7.3826033"><ele>1803.0</ele><time>2026-04-25T12:35:36.39Z</time></trkpt><trkpt lat="31.3310467" lon="-7.3827867"><ele>1803.0</ele><time>2026-04-25T12:35:37.39Z</time></trkpt><trkpt lat="31.331125" lon="-7.3829833"><ele>1803.0</ele><time>2026-04-25T12:35:38.39Z</time></trkpt><trkpt lat="31.331185" lon="-7.38318"><ele>1803.0</ele><time>2026-04-25T12:35:39.39Z</time></trkpt><trkpt lat="31.3312217" lon="-7.3833717"><ele>1803.0</ele><time>2026-04-25T12:35:40.39Z</time></trkpt><trkpt lat="31.3312467" lon="-7.38355"><ele>1803.0</ele><time>2026-04-25T12:35:41.39Z</time></trkpt><trkpt lat="31.3312733" lon="-7.3836983"><ele>1803.0</ele><time>2026-04-25T12:35:42.39Z</time></trkpt><trkpt lat="31.3313283" lon="-7.3838133"><ele>1803.0</ele><time>2026-04-25T12:35:43.39Z</time></trkpt><trkpt lat="31.33139" lon="-7.3838817"><ele>1803.0</ele><time>2026-04-25T12:35:44.39Z</time></trkpt><trkpt lat="31.331455" lon="-7.3839117"><ele>1803.0</ele><time>2026-04-25T12:35:45.39Z</time></trkpt><trkpt lat="31.331525" lon="-7.38389"><ele>1803.0</ele><time>2026-04-25T12:35:46.391Z</time></trkpt><trkpt lat="31.33157" lon="-7.383815"><ele>1803.0</ele><time>2026-04-25T12:35:47.39Z</time></trkpt><trkpt lat="31.33159" lon="-7.3836983"><ele>1796.3333333333335</ele><time>2026-04-25T12:35:48.39Z</time></trkpt><trkpt lat="31.33158" lon="-7.3835433"><ele>1789.6666666666667</ele><time>2026-04-25T12:35:49.39Z</time></trkpt><trkpt lat="31.331545" lon="-7.383365"><ele>1783.0</ele><time>2026-04-25T12:35:50.39Z</time></trkpt><trkpt lat="31.33149" lon="-7.3831617"><ele>1779.6666666666667</ele><time>2026-04-25T12:35:51.39Z</time></trkpt><trkpt lat="31.3314133" lon="-7.3829283"><ele>1776.3333333333335</ele><time>2026-04-25T12:35:52.39Z</time></trkpt><trkpt lat="31.33132" lon="-7.3826767"><ele>1773.0</ele><time>2026-04-25T12:35:53.39Z</time></trkpt><trkpt lat="31.3312233" lon="-7.3824183"><ele>1780.0</ele><time>2026-04-25T12:35:54.39Z</time></trkpt><trkpt lat="31.3311383" lon="-7.3821717"><ele>1787.0</ele><time>2026-04-25T12:35:55.39Z</time></trkpt><trkpt lat="31.331075" lon="-7.381925"><ele>1794.0</ele><time>2026-04-25T12:35:56.39Z</time></trkpt><trkpt lat="31.33102" lon="-7.3816967"><ele>1794.0</ele><time>2026-04-25T12:35:57.39Z</time></trkpt><trkpt lat="31.3309567" lon="-7.3814867"><ele>1794.0</ele><time>2026-04-25T12:35:58.39Z</time></trkpt><trkpt lat="31.330865" lon="-7.381295"><ele>1794.0</ele><time>2026-04-25T12:35:59.39Z</time></trkpt><trkpt lat="31.33073" lon="-7.3811"><ele>1793.3333333333335</ele><time>2026-04-25T12:36:00.39Z</time></trkpt><trkpt lat="31.330575" lon="-7.3809117"><ele>1792.6666666666667</ele><time>2026-04-25T12:36:01.39Z</time></trkpt><trkpt lat="31.3304283" lon="-7.3807433"><ele>1792.0</ele><time>2026-04-25T12:36:02.39Z</time></trkpt><trkpt lat="31.3302917" lon="-7.380605"><ele>1780.3333333333335</ele><time>2026-04-25T12:36:03.39Z</time></trkpt><trkpt lat="31.3301683" lon="-7.3805"><ele>1768.6666666666665</ele><time>2026-04-25T12:36:04.39Z</time></trkpt><trkpt lat="31.33003" lon="-7.380445"><ele>1757.0</ele><time>2026-04-25T12:36:05.39Z</time></trkpt><trkpt lat="31.3298683" lon="-7.3804217"><ele>1757.3333333333333</ele><time>2026-04-25T12:36:06.39Z</time></trkpt><trkpt lat="31.3296767" lon="-7.380425"><ele>1757.6666666666665</ele><time>2026-04-25T12:36:07.391Z</time></trkpt><trkpt lat="31.3294667" lon="-7.3804283"><ele>1758.0</ele><time>2026-04-25T12:36:08.39Z</time></trkpt><trkpt lat="31.329265" lon="-7.3804067"><ele>1758.0</ele><time>2026-04-25T12:36:09.39Z</time></trkpt><trkpt lat="31.3290633" lon="-7.3803483"><ele>1758.0</ele><time>2026-04-25T12:36:10.39Z</time></trkpt><trkpt lat="31.3288867" lon="-7.3802783"><ele>1758.0</ele><time>2026-04-25T12:36:11.39Z</time></trkpt><trkpt lat="31.3287333" lon="-7.3802333"><ele>1757.25</ele><time>2026-04-25T12:36:12.39Z</time></trkpt><trkpt lat="31.3285967" lon="-7.3802133"><ele>1756.5</ele><time>2026-04-25T12:36:13.39Z</time></trkpt><trkpt lat="31.3285" lon="-7.380265"><ele>1755.75</ele><time>2026-04-25T12:36:14.39Z</time></trkpt><trkpt lat="31.3284217" lon="-7.3803533"><ele>1755.0</ele><time>2026-04-25T12:36:15.39Z</time></trkpt><trkpt lat="31.32836" lon="-7.38048"><ele>1763.2</ele><time>2026-04-25T12:36:16.39Z</time></trkpt><trkpt lat="31.328285" lon="-7.380595"><ele>1771.4</ele><time>2026-04-25T12:36:17.39Z</time></trkpt><trkpt lat="31.3281883" lon="-7.3806717"><ele>1779.6</ele><time>2026-04-25T12:36:18.39Z</time></trkpt><trkpt lat="31.32809" lon="-7.3806933"><ele>1787.8</ele><time>2026-04-25T12:36:19.39Z</time></trkpt><trkpt lat="31.3279883" lon="-7.3806633"><ele>1796.0</ele><time>2026-04-25T12:36:20.39Z</time></trkpt><trkpt lat="31.3278817" lon="-7.3805733"><ele>1784.3333333333333</ele><time>2026-04-25T12:36:21.39Z</time></trkpt><trkpt lat="31.327775" lon="-7.3804367"><ele>1772.6666666666665</ele><time>2026-04-25T12:36:22.39Z</time></trkpt><trkpt lat="31.3276517" lon="-7.3802733"><ele>1761.0</ele><time>2026-04-25T12:36:23.39Z</time></trkpt><trkpt lat="31.3275133" lon="-7.3801317"><ele>1761.0</ele><time>2026-04-25T12:36:24.39Z</time></trkpt><trkpt lat="31.3272917" lon="-7.3800583"><ele>1761.0</ele><time>2026-04-25T12:36:25.39Z</time></trkpt><trkpt lat="31.3270983" lon="-7.3799583"><ele>1761.0</ele><time>2026-04-25T12:36:26.39Z</time></trkpt><trkpt lat="31.3268967" lon="-7.3798967"><ele>1765.3333333333335</ele><time>2026-04-25T12:36:27.39Z</time></trkpt><trkpt lat="31.3267217" lon="-7.37981"><ele>1769.6666666666667</ele><time>2026-04-25T12:36:28.391Z</time></trkpt><trkpt lat="31.3265517" lon="-7.379745"><ele>1774.0</ele><time>2026-04-25T12:36:29.39Z</time></trkpt><trkpt lat="31.3264017" lon="-7.3796983"><ele>1773.5</ele><time>2026-04-25T12:36:30.39Z</time></trkpt><trkpt lat="31.3262717" lon="-7.3796567"><ele>1773.0</ele><time>2026-04-25T12:36:31.39Z</time></trkpt><trkpt lat="31.3261683" lon="-7.3795783"><ele>1772.5</ele><time>2026-04-25T12:36:32.39Z</time></trkpt><trkpt lat="31.3261083" lon="-7.3794833"><ele>1772.0</ele><time>2026-04-25T12:36:33.39Z</time></trkpt><trkpt lat="31.3260917" lon="-7.3793767"><ele>1772.0</ele><time>2026-04-25T12:36:34.39Z</time></trkpt><trkpt lat="31.326115" lon="-7.37927"><ele>1771.9999999999998</ele><time>2026-04-25T12:36:35.39Z</time></trkpt><trkpt lat="31.326175" lon="-7.37918"><ele>1771.9999999999998</ele><time>2026-04-25T12:36:36.39Z</time></trkpt><trkpt lat="31.3262733" lon="-7.3791183"><ele>1772.0</ele><time>2026-04-25T12:36:37.39Z</time></trkpt><trkpt lat="31.3264033" lon="-7.3790817"><ele>1772.0</ele><time>2026-04-25T12:36:38.39Z</time></trkpt><trkpt lat="31.326565" lon="-7.37908"><ele>1767.6666666666665</ele><time>2026-04-25T12:36:39.39Z</time></trkpt><trkpt lat="31.3267483" lon="-7.3791017"><ele>1763.3333333333335</ele><time>2026-04-25T12:36:40.39Z</time></trkpt><trkpt lat="31.3269467" lon="-7.3791133"><ele>1759.0</ele><time>2026-04-25T12:36:41.39Z</time></trkpt><trkpt lat="31.3271383" lon="-7.3791167"><ele>1756.3333333333335</ele><time>2026-04-25T12:36:42.39Z</time></trkpt><trkpt lat="31.32732" lon="-7.3791367"><ele>1753.6666666666665</ele><time>2026-04-25T12:36:43.39Z</time></trkpt><trkpt lat="31.3274917" lon="-7.3791317"><ele>1751.0</ele><time>2026-04-25T12:36:44.39Z</time></trkpt><trkpt lat="31.3276533" lon="-7.379095"><ele>1751.0</ele><time>2026-04-25T12:36:45.39Z</time></trkpt><trkpt lat="31.3278067" lon="-7.3790217"><ele>1751.0</ele><time>2026-04-25T12:36:46.39Z</time></trkpt><trkpt lat="31.3279683" lon="-7.3788717"><ele>1751.0</ele><time>2026-04-25T12:36:47.39Z</time></trkpt><trkpt lat="31.3281517" lon="-7.3787233"><ele>1748.0</ele><time>2026-04-25T12:36:48.39Z</time></trkpt><trkpt lat="31.3283267" lon="-7.3785917"><ele>1745.0</ele><time>2026-04-25T12:36:49.39Z</time></trkpt><trkpt lat="31.3284667" lon="-7.3784733"><ele>1742.0</ele><time>2026-04-25T12:36:50.391Z</time></trkpt><trkpt lat="31.3285533" lon="-7.378355"><ele>1742.0</ele><time>2026-04-25T12:36:51.39Z</time></trkpt><trkpt lat="31.3286033" lon="-7.3782617"><ele>1741.9999999999998</ele><time>2026-04-25T12:36:52.39Z</time></trkpt><trkpt lat="31.3286217" lon="-7.3781617"><ele>1741.9999999999998</ele><time>2026-04-25T12:36:53.39Z</time></trkpt><trkpt lat="31.3285867" lon="-7.3780617"><ele>1742.0</ele><time>2026-04-25T12:36:54.39Z</time></trkpt><trkpt lat="31.3285233" lon="-7.3779667"><ele>1742.0</ele><time>2026-04-25T12:36:55.39Z</time></trkpt><trkpt lat="31.3283917" lon="-7.3778717"><ele>1740.25</ele><time>2026-04-25T12:36:56.39Z</time></trkpt><trkpt lat="31.3282633" lon="-7.377775"><ele>1738.5</ele><time>2026-04-25T12:36:57.39Z</time></trkpt><trkpt lat="31.3281583" lon="-7.377665"><ele>1736.75</ele><time>2026-04-25T12:36:58.39Z</time></trkpt><trkpt lat="31.3280933" lon="-7.3775417"><ele>1735.0</ele><time>2026-04-25T12:36:59.39Z</time></trkpt><trkpt lat="31.32805" lon="-7.3774033"><ele>1734.6</ele><time>2026-04-25T12:37:00.39Z</time></trkpt><trkpt lat="31.328045" lon="-7.3772617"><ele>1734.2</ele><time>2026-04-25T12:37:01.39Z</time></trkpt><trkpt lat="31.32808" lon="-7.3771383"><ele>1733.8000000000002</ele><time>2026-04-25T12:37:02.39Z</time></trkpt><trkpt lat="31.32814" lon="-7.3770433"><ele>1733.4</ele><time>2026-04-25T12:37:03.39Z</time></trkpt><trkpt lat="31.3282333" lon="-7.376975"><ele>1733.0</ele><time>2026-04-25T12:37:04.39Z</time></trkpt><trkpt lat="31.3283483" lon="-7.3769333"><ele>1733.0</ele><time>2026-04-25T12:37:05.39Z</time></trkpt><trkpt lat="31.3284617" lon="-7.3769333"><ele>1733.0</ele><time>2026-04-25T12:37:06.39Z</time></trkpt><trkpt lat="31.3285667" lon="-7.376955"><ele>1733.0</ele><time>2026-04-25T12:37:07.39Z</time></trkpt><trkpt lat="31.3286717" lon="-7.3770083"><ele>1733.0</ele><time>2026-04-25T12:37:08.39Z</time></trkpt><trkpt lat="31.3287917" lon="-7.3770717"><ele>1731.75</ele><time>2026-04-25T12:37:09.39Z</time></trkpt><trkpt lat="31.328925" lon="-7.37713"><ele>1730.5</ele><time>2026-04-25T12:37:10.39Z</time></trkpt><trkpt lat="31.32906" lon="-7.3771833"><ele>1729.25</ele><time>2026-04-25T12:37:11.391Z</time></trkpt><trkpt lat="31.329185" lon="-7.3772383"><ele>1728.0</ele><time>2026-04-25T12:37:12.39Z</time></trkpt><trkpt lat="31.32931" lon="-7.3773083"><ele>1728.0</ele><time>2026-04-25T12:37:13.39Z</time></trkpt><trkpt lat="31.3294333" lon="-7.3774017"><ele>1728.0</ele><time>2026-04-25T12:37:14.39Z</time></trkpt><trkpt lat="31.3295383" lon="-7.3775283"><ele>1728.0</ele><time>2026-04-25T12:37:15.39Z</time></trkpt><trkpt lat="31.3296067" lon="-7.3776783"><ele>1728.0</ele><time>2026-04-25T12:37:16.39Z</time></trkpt><trkpt lat="31.3296383" lon="-7.3778567"><ele>1726.0</ele><time>2026-04-25T12:37:17.39Z</time></trkpt><trkpt lat="31.32963" lon="-7.37805"><ele>1724.0</ele><time>2026-04-25T12:37:18.39Z</time></trkpt><trkpt lat="31.329605" lon="-7.3782433"><ele>1722.0</ele><time>2026-04-25T12:37:19.39Z</time></trkpt><trkpt lat="31.3295767" lon="-7.3784117"><ele>1722.0</ele><time>2026-04-25T12:37:20.39Z</time></trkpt><trkpt lat="31.3295933" lon="-7.37856"><ele>1722.0</ele><time>2026-04-25T12:37:21.39Z</time></trkpt><trkpt lat="31.3296417" lon="-7.3786883"><ele>1722.0</ele><time>2026-04-25T12:37:22.39Z</time></trkpt><trkpt lat="31.329715" lon="-7.3787883"><ele>1722.0</ele><time>2026-04-25T12:37:23.39Z</time></trkpt><trkpt lat="31.329825" lon="-7.3788417"><ele>1724.3333333333335</ele><time>2026-04-25T12:37:24.39Z</time></trkpt><trkpt lat="31.3299917" lon="-7.3788467"><ele>1726.6666666666667</ele><time>2026-04-25T12:37:25.39Z</time></trkpt><trkpt lat="31.3301983" lon="-7.378815"><ele>1729.0</ele><time>2026-04-25T12:37:26.39Z</time></trkpt><trkpt lat="31.3304267" lon="-7.3787967"><ele>1728.0</ele><time>2026-04-25T12:37:27.39Z</time></trkpt><trkpt lat="31.33069" lon="-7.37881"><ele>1727.0</ele><time>2026-04-25T12:37:28.39Z</time></trkpt><trkpt lat="31.33097" lon="-7.37885"><ele>1721.5</ele><time>2026-04-25T12:37:29.39Z</time></trkpt><trkpt lat="31.331245" lon="-7.37889"><ele>1716.0</ele><time>2026-04-25T12:37:30.39Z</time></trkpt><trkpt lat="31.3315033" lon="-7.3789217"><ele>1712.5</ele><time>2026-04-25T12:37:31.39Z</time></trkpt><trkpt lat="31.331745" lon="-7.3789483"><ele>1709.0</ele><time>2026-04-25T12:37:32.39Z</time></trkpt><trkpt lat="31.33197" lon="-7.3789683"><ele>1709.0</ele><time>2026-04-25T12:37:33.39Z</time></trkpt><trkpt lat="31.3321783" lon="-7.3790017"><ele>1709.0</ele><time>2026-04-25T12:37:34.39Z</time></trkpt><trkpt lat="31.3323667" lon="-7.3790433"><ele>1709.0</ele><time>2026-04-25T12:37:35.39Z</time></trkpt><trkpt lat="31.33254" lon="-7.3791183"><ele>1709.3333333333333</ele><time>2026-04-25T12:37:36.391Z</time></trkpt><trkpt lat="31.332695" lon="-7.3792333"><ele>1709.6666666666665</ele><time>2026-04-25T12:37:37.39Z</time></trkpt><trkpt lat="31.3328333" lon="-7.3793917"><ele>1710.0</ele><time>2026-04-25T12:37:38.39Z</time></trkpt><trkpt lat="31.332945" lon="-7.3795933"><ele>1712.0</ele><time>2026-04-25T12:37:39.39Z</time></trkpt><trkpt lat="31.33303" lon="-7.3798417"><ele>1714.0</ele><time>2026-04-25T12:37:40.391Z</time></trkpt><trkpt lat="31.3331117" lon="-7.3800983"><ele>1714.0</ele><time>2026-04-25T12:37:41.39Z</time></trkpt><trkpt lat="31.3331883" lon="-7.3803567"><ele>1714.0</ele><time>2026-04-25T12:37:42.39Z</time></trkpt><trkpt lat="31.3332667" lon="-7.3806033"><ele>1709.6666666666667</ele><time>2026-04-25T12:37:43.39Z</time></trkpt><trkpt lat="31.3333467" lon="-7.3808367"><ele>1705.3333333333335</ele><time>2026-04-25T12:37:44.39Z</time></trkpt><trkpt lat="31.3334117" lon="-7.3810583"><ele>1701.0</ele><time>2026-04-25T12:37:45.39Z</time></trkpt><trkpt lat="31.3334867" lon="-7.3812717"><ele>1699.3333333333335</ele><time>2026-04-25T12:37:46.39Z</time></trkpt><trkpt lat="31.3335817" lon="-7.38145"><ele>1697.6666666666667</ele><time>2026-04-25T12:37:47.39Z</time></trkpt><trkpt lat="31.3336933" lon="-7.38158"><ele>1696.0</ele><time>2026-04-25T12:37:48.39Z</time></trkpt><trkpt lat="31.3338133" lon="-7.38167"><ele>1695.25</ele><time>2026-04-25T12:37:49.39Z</time></trkpt><trkpt lat="31.33395" lon="-7.3816967"><ele>1694.5</ele><time>2026-04-25T12:37:50.39Z</time></trkpt><trkpt lat="31.3340883" lon="-7.381685"><ele>1693.75</ele><time>2026-04-25T12:37:51.39Z</time></trkpt><trkpt lat="31.334245" lon="-7.38162"><ele>1693.0</ele><time>2026-04-25T12:37:52.39Z</time></trkpt><trkpt lat="31.3344233" lon="-7.3815633"><ele>1693.0</ele><time>2026-04-25T12:37:53.39Z</time></trkpt><trkpt lat="31.3346083" lon="-7.381535"><ele>1693.0</ele><time>2026-04-25T12:37:54.39Z</time></trkpt><trkpt lat="31.3347817" lon="-7.3815383"><ele>1693.0</ele><time>2026-04-25T12:37:55.39Z</time></trkpt><trkpt lat="31.33495" lon="-7.3816033"><ele>1692.3333333333335</ele><time>2026-04-25T12:37:56.39Z</time></trkpt><trkpt lat="31.3351183" lon="-7.3817133"><ele>1691.6666666666665</ele><time>2026-04-25T12:37:57.39Z</time></trkpt><trkpt lat="31.3352867" lon="-7.381885"><ele>1691.0</ele><time>2026-04-25T12:37:58.39Z</time></trkpt><trkpt lat="31.3354433" lon="-7.3820717"><ele>1692.3333333333333</ele><time>2026-04-25T12:37:59.39Z</time></trkpt><trkpt lat="31.3355767" lon="-7.3822583"><ele>1693.6666666666665</ele><time>2026-04-25T12:38:00.39Z</time></trkpt><trkpt lat="31.335675" lon="-7.382465"><ele>1695.0</ele><time>2026-04-25T12:38:01.39Z</time></trkpt><trkpt lat="31.335745" lon="-7.3827133"><ele>1695.0</ele><time>2026-04-25T12:38:02.39Z</time></trkpt><trkpt lat="31.3357833" lon="-7.3829783"><ele>1695.0</ele><time>2026-04-25T12:38:03.39Z</time></trkpt><trkpt lat="31.33582" lon="-7.38323"><ele>1695.0</ele><time>2026-04-25T12:38:04.39Z</time></trkpt><trkpt lat="31.33587" lon="-7.383425"><ele>1692.0</ele><time>2026-04-25T12:38:05.39Z</time></trkpt><trkpt lat="31.33594" lon="-7.38358"><ele>1689.0</ele><time>2026-04-25T12:38:06.39Z</time></trkpt><trkpt lat="31.336045" lon="-7.3837017"><ele>1686.0</ele><time>2026-04-25T12:38:07.39Z</time></trkpt><trkpt lat="31.33619" lon="-7.3837933"><ele>1684.3333333333335</ele><time>2026-04-25T12:38:08.39Z</time></trkpt><trkpt lat="31.336375" lon="-7.3838633"><ele>1682.6666666666667</ele><time>2026-04-25T12:38:09.39Z</time></trkpt><trkpt lat="31.336555" lon="-7.383955"><ele>1681.0</ele><time>2026-04-25T12:38:10.39Z</time></trkpt><trkpt lat="31.3367217" lon="-7.3840517"><ele>1680.3333333333335</ele><time>2026-04-25T12:38:11.39Z</time></trkpt><trkpt lat="31.336865" lon="-7.38419"><ele>1679.6666666666665</ele><time>2026-04-25T12:38:12.39Z</time></trkpt><trkpt lat="31.33699" lon="-7.38437"><ele>1679.0</ele><time>2026-04-25T12:38:13.391Z</time></trkpt><trkpt lat="31.3370883" lon="-7.3845967"><ele>1677.5</ele><time>2026-04-25T12:38:14.39Z</time></trkpt><trkpt lat="31.3371717" lon="-7.384865"><ele>1676.0</ele><time>2026-04-25T12:38:15.39Z</time></trkpt><trkpt lat="31.337245" lon="-7.3851533"><ele>1679.0</ele><time>2026-04-25T12:38:16.39Z</time></trkpt><trkpt lat="31.3373233" lon="-7.38543"><ele>1682.0</ele><time>2026-04-25T12:38:17.39Z</time></trkpt><trkpt lat="31.337405" lon="-7.3856833"><ele>1682.0</ele><time>2026-04-25T12:38:18.39Z</time></trkpt><trkpt lat="31.3374817" lon="-7.3859133"><ele>1682.0</ele><time>2026-04-25T12:38:19.39Z</time></trkpt><trkpt lat="31.3375483" lon="-7.3861117"><ele>1682.0</ele><time>2026-04-25T12:38:20.39Z</time></trkpt><trkpt lat="31.3375783" lon="-7.3862933"><ele>1682.0</ele><time>2026-04-25T12:38:21.39Z</time></trkpt><trkpt lat="31.33758" lon="-7.3864683"><ele>1682.0</ele><time>2026-04-25T12:38:22.39Z</time></trkpt><trkpt lat="31.3375367" lon="-7.3866383"><ele>1682.0</ele><time>2026-04-25T12:38:23.39Z</time></trkpt><trkpt lat="31.337455" lon="-7.3868083"><ele>1682.0</ele><time>2026-04-25T12:38:24.39Z</time></trkpt><trkpt lat="31.3373217" lon="-7.3869733"><ele>1682.0</ele><time>2026-04-25T12:38:25.39Z</time></trkpt><trkpt lat="31.3371583" lon="-7.3871317"><ele>1682.0</ele><time>2026-04-25T12:38:26.39Z</time></trkpt><trkpt lat="31.3370117" lon="-7.38732"><ele>1677.0</ele><time>2026-04-25T12:38:27.39Z</time></trkpt><trkpt lat="31.3369033" lon="-7.3875"><ele>1672.0</ele><time>2026-04-25T12:38:28.39Z</time></trkpt><trkpt lat="31.336845" lon="-7.3876683"><ele>1667.0</ele><time>2026-04-25T12:38:29.39Z</time></trkpt><trkpt lat="31.336815" lon="-7.38783"><ele>1667.0</ele><time>2026-04-25T12:38:30.39Z</time></trkpt><trkpt lat="31.3368433" lon="-7.3879733"><ele>1667.0</ele><time>2026-04-25T12:38:31.391Z</time></trkpt><trkpt lat="31.3369017" lon="-7.388095"><ele>1667.0</ele><time>2026-04-25T12:38:32.39Z</time></trkpt><trkpt lat="31.337005" lon="-7.3882083"><ele>1667.0</ele><time>2026-04-25T12:38:33.39Z</time></trkpt><trkpt lat="31.33715" lon="-7.3883183"><ele>1665.0</ele><time>2026-04-25T12:38:34.39Z</time></trkpt><trkpt lat="31.3373083" lon="-7.388465"><ele>1663.0</ele><time>2026-04-25T12:38:35.39Z</time></trkpt><trkpt lat="31.33746" lon="-7.3886567"><ele>1661.0</ele><time>2026-04-25T12:38:36.39Z</time></trkpt><trkpt lat="31.3375833" lon="-7.3888767"><ele>1661.0</ele><time>2026-04-25T12:38:37.39Z</time></trkpt><trkpt lat="31.3376833" lon="-7.38912"><ele>1661.0</ele><time>2026-04-25T12:38:38.39Z</time></trkpt><trkpt lat="31.3378083" lon="-7.3893633"><ele>1661.0</ele><time>2026-04-25T12:38:39.39Z</time></trkpt><trkpt lat="31.33794" lon="-7.3895817"><ele>1661.0</ele><time>2026-04-25T12:38:40.39Z</time></trkpt><trkpt lat="31.3381083" lon="-7.3897867"><ele>1663.0</ele><time>2026-04-25T12:38:41.391Z</time></trkpt><trkpt lat="31.3382917" lon="-7.3899617"><ele>1665.0</ele><time>2026-04-25T12:38:42.39Z</time></trkpt><trkpt lat="31.3384617" lon="-7.39013"><ele>1665.0</ele><time>2026-04-25T12:38:43.39Z</time></trkpt><trkpt lat="31.3386133" lon="-7.3903083"><ele>1665.0</ele><time>2026-04-25T12:38:44.39Z</time></trkpt><trkpt lat="31.33877" lon="-7.3904583"><ele>1665.0</ele><time>2026-04-25T12:38:45.39Z</time></trkpt><trkpt lat="31.3389167" lon="-7.390595"><ele>1661.6666666666665</ele><time>2026-04-25T12:38:46.39Z</time></trkpt><trkpt lat="31.3390783" lon="-7.3907017"><ele>1658.3333333333333</ele><time>2026-04-25T12:38:47.39Z</time></trkpt><trkpt lat="31.3392717" lon="-7.3907817"><ele>1655.0</ele><time>2026-04-25T12:38:48.39Z</time></trkpt><trkpt lat="31.3394633" lon="-7.390835"><ele>1655.0</ele><time>2026-04-25T12:38:49.39Z</time></trkpt><trkpt lat="31.3396533" lon="-7.3908733"><ele>1655.0</ele><time>2026-04-25T12:38:50.39Z</time></trkpt><trkpt lat="31.33985" lon="-7.39093"><ele>1655.0</ele><time>2026-04-25T12:38:51.39Z</time></trkpt><trkpt lat="31.3400567" lon="-7.3910483"><ele>1656.0</ele><time>2026-04-25T12:38:52.39Z</time></trkpt><trkpt lat="31.3402833" lon="-7.3912033"><ele>1657.0</ele><time>2026-04-25T12:38:53.39Z</time></trkpt><trkpt lat="31.3404933" lon="-7.3913767"><ele>1652.0</ele><time>2026-04-25T12:38:54.39Z</time></trkpt><trkpt lat="31.3406983" lon="-7.3915333"><ele>1647.0</ele><time>2026-04-25T12:38:55.39Z</time></trkpt><trkpt lat="31.3408767" lon="-7.39169"><ele>1647.0</ele><time>2026-04-25T12:38:56.39Z</time></trkpt><trkpt lat="31.341055" lon="-7.3918333"><ele>1647.0</ele><time>2026-04-25T12:38:57.39Z</time></trkpt><trkpt lat="31.3412433" lon="-7.3919983"><ele>1644.0</ele><time>2026-04-25T12:38:58.39Z</time></trkpt><trkpt lat="31.341435" lon="-7.392185"><ele>1641.0</ele><time>2026-04-25T12:38:59.39Z</time></trkpt><trkpt lat="31.3416117" lon="-7.3923783"><ele>1641.0</ele><time>2026-04-25T12:39:00.39Z</time></trkpt><trkpt lat="31.341775" lon="-7.3925633"><ele>1641.0</ele><time>2026-04-25T12:39:01.39Z</time></trkpt><trkpt lat="31.3419183" lon="-7.3927533"><ele>1641.0</ele><time>2026-04-25T12:39:02.391Z</time></trkpt><trkpt lat="31.3420567" lon="-7.3929233"><ele>1636.6666666666665</ele><time>2026-04-25T12:39:03.39Z</time></trkpt><trkpt lat="31.3421967" lon="-7.3930633"><ele>1632.3333333333333</ele><time>2026-04-25T12:39:04.39Z</time></trkpt><trkpt lat="31.3423317" lon="-7.3931867"><ele>1628.0</ele><time>2026-04-25T12:39:05.39Z</time></trkpt><trkpt lat="31.3424717" lon="-7.3932783"><ele>1628.0</ele><time>2026-04-25T12:39:06.39Z</time></trkpt><trkpt lat="31.3426167" lon="-7.393335"><ele>1628.0</ele><time>2026-04-25T12:39:07.39Z</time></trkpt><trkpt lat="31.342755" lon="-7.39337"><ele>1628.0</ele><time>2026-04-25T12:39:08.39Z</time></trkpt><trkpt lat="31.3428933" lon="-7.3933883"><ele>1628.0</ele><time>2026-04-25T12:39:09.39Z</time></trkpt><trkpt lat="31.3430233" lon="-7.3934"><ele>1628.0</ele><time>2026-04-25T12:39:10.39Z</time></trkpt><trkpt lat="31.343145" lon="-7.393415"><ele>1628.0</ele><time>2026-04-25T12:39:11.39Z</time></trkpt><trkpt lat="31.34326" lon="-7.3934133"><ele>1628.0</ele><time>2026-04-25T12:39:12.39Z</time></trkpt><trkpt lat="31.3433667" lon="-7.393385"><ele>1628.0</ele><time>2026-04-25T12:39:13.39Z</time></trkpt><trkpt lat="31.3434633" lon="-7.39334"><ele>1627.9999999999998</ele><time>2026-04-25T12:39:14.39Z</time></trkpt><trkpt lat="31.3435517" lon="-7.3932883"><ele>1628.0</ele><time>2026-04-25T12:39:15.39Z</time></trkpt><trkpt lat="31.343635" lon="-7.3932367"><ele>1628.0</ele><time>2026-04-25T12:39:16.39Z</time></trkpt><trkpt lat="31.3437033" lon="-7.3931817"><ele>1628.0</ele><time>2026-04-25T12:39:17.39Z</time></trkpt><trkpt lat="31.343755" lon="-7.393135"><ele>1627.9999999999998</ele><time>2026-04-25T12:39:18.39Z</time></trkpt><trkpt lat="31.3438283" lon="-7.3930517"><ele>1628.0</ele><time>2026-04-25T12:39:20.39Z</time></trkpt><trkpt lat="31.3438917" lon="-7.3929733"><ele>1628.0000000000002</ele><time>2026-04-25T12:39:22.39Z</time></trkpt><trkpt lat="31.34394" lon="-7.3928967"><ele>1628.0</ele><time>2026-04-25T12:39:24.39Z</time></trkpt><trkpt lat="31.3439783" lon="-7.39282"><ele>1628.0</ele><time>2026-04-25T12:39:26.39Z</time></trkpt><trkpt lat="31.3440117" lon="-7.39275"><ele>1628.0</ele><time>2026-04-25T12:39:28.39Z</time></trkpt><trkpt lat="31.3440283" lon="-7.3926733"><ele>1628.0</ele><time>2026-04-25T12:39:30.39Z</time></trkpt><trkpt lat="31.34406" lon="-7.3926083"><ele>1628.0000000000002</ele><time>2026-04-25T12:39:32.39Z</time></trkpt><trkpt lat="31.3441017" lon="-7.392515"><ele>1628.0</ele><time>2026-04-25T12:39:35.39Z</time></trkpt><trkpt lat="31.3441417" lon="-7.3924433"><ele>1627.9999999999998</ele><time>2026-04-25T12:39:37.39Z</time></trkpt><trkpt lat="31.344185" lon="-7.3923783"><ele>1628.0</ele><time>2026-04-25T12:39:39.39Z</time></trkpt><trkpt lat="31.3442317" lon="-7.39229"><ele>1628.0</ele><time>2026-04-25T12:39:42.39Z</time></trkpt><trkpt lat="31.3442917" lon="-7.3922567"><ele>1628.0</ele><time>2026-04-25T12:39:45.39Z</time></trkpt><trkpt lat="31.3442683" lon="-7.3921633"><ele>1627.9999999999998</ele><time>2026-04-25T13:34:41.38Z</time></trkpt><trkpt lat="31.3442933" lon="-7.392085"><ele>1628.0</ele><time>2026-04-25T13:34:43.38Z</time></trkpt><trkpt lat="31.3443233" lon="-7.392005"><ele>1627.4</ele><time>2026-04-25T13:34:46.38Z</time></trkpt><trkpt lat="31.3443767" lon="-7.3919533"><ele>1626.8000000000002</ele><time>2026-04-25T13:37:12.38Z</time></trkpt><trkpt lat="31.34446" lon="-7.3919017"><ele>1626.2</ele><time>2026-04-25T13:37:15.379Z</time></trkpt><trkpt lat="31.34454" lon="-7.3918017"><ele>1625.6</ele><time>2026-04-25T13:37:17.379Z</time></trkpt><trkpt lat="31.3446067" lon="-7.3916917"><ele>1625.0</ele><time>2026-04-25T13:37:19.379Z</time></trkpt><trkpt lat="31.344685" lon="-7.3915883"><ele>1625.6</ele><time>2026-04-25T13:37:21.379Z</time></trkpt><trkpt lat="31.3447817" lon="-7.391485"><ele>1626.2</ele><time>2026-04-25T13:37:23.379Z</time></trkpt><trkpt lat="31.3448467" lon="-7.39143"><ele>1626.8000000000002</ele><time>2026-04-25T13:37:24.379Z</time></trkpt><trkpt lat="31.3449217" lon="-7.391375"><ele>1627.4</ele><time>2026-04-25T13:37:25.38Z</time></trkpt><trkpt lat="31.3450067" lon="-7.39132"><ele>1628.0</ele><time>2026-04-25T13:37:26.379Z</time></trkpt><trkpt lat="31.3450917" lon="-7.3912617"><ele>1626.2</ele><time>2026-04-25T13:37:27.379Z</time></trkpt><trkpt lat="31.3451833" lon="-7.3912117"><ele>1624.4</ele><time>2026-04-25T13:37:28.379Z</time></trkpt><trkpt lat="31.345275" lon="-7.391165"><ele>1622.6000000000001</ele><time>2026-04-25T13:37:29.379Z</time></trkpt><trkpt lat="31.345365" lon="-7.391105"><ele>1620.8000000000002</ele><time>2026-04-25T13:37:30.379Z</time></trkpt><trkpt lat="31.3454533" lon="-7.391055"><ele>1619.0</ele><time>2026-04-25T13:37:31.379Z</time></trkpt><trkpt lat="31.3455433" lon="-7.3910033"><ele>1619.2</ele><time>2026-04-25T13:37:32.379Z</time></trkpt><trkpt lat="31.3456233" lon="-7.3909433"><ele>1619.4</ele><time>2026-04-25T13:37:33.379Z</time></trkpt><trkpt lat="31.3457067" lon="-7.3908883"><ele>1619.6</ele><time>2026-04-25T13:37:34.379Z</time></trkpt><trkpt lat="31.3457833" lon="-7.3908333"><ele>1619.8</ele><time>2026-04-25T13:37:35.379Z</time></trkpt><trkpt lat="31.3458633" lon="-7.3907883"><ele>1620.0</ele><time>2026-04-25T13:37:36.379Z</time></trkpt><trkpt lat="31.345945" lon="-7.3907433"><ele>1620.0</ele><time>2026-04-25T13:37:37.379Z</time></trkpt><trkpt lat="31.3460317" lon="-7.3907033"><ele>1620.0</ele><time>2026-04-25T13:37:38.379Z</time></trkpt><trkpt lat="31.3461133" lon="-7.39067"><ele>1620.0</ele><time>2026-04-25T13:37:39.379Z</time></trkpt><trkpt lat="31.346195" lon="-7.3906483"><ele>1620.0</ele><time>2026-04-25T13:37:40.379Z</time></trkpt><trkpt lat="31.34628" lon="-7.3906433"><ele>1620.0</ele><time>2026-04-25T13:37:41.379Z</time></trkpt><trkpt lat="31.3463733" lon="-7.3906533"><ele>1620.0</ele><time>2026-04-25T13:37:42.379Z</time></trkpt><trkpt lat="31.3464717" lon="-7.39068"><ele>1622.0</ele><time>2026-04-25T13:37:43.379Z</time></trkpt><trkpt lat="31.3465733" lon="-7.39072"><ele>1624.0</ele><time>2026-04-25T13:37:44.379Z</time></trkpt><trkpt lat="31.34669" lon="-7.3907683"><ele>1626.0</ele><time>2026-04-25T13:37:45.379Z</time></trkpt><trkpt lat="31.346815" lon="-7.3908183"><ele>1628.0</ele><time>2026-04-25T13:37:46.379Z</time></trkpt><trkpt lat="31.3469467" lon="-7.3908717"><ele>1628.0</ele><time>2026-04-25T13:37:47.38Z</time></trkpt><trkpt lat="31.3470767" lon="-7.390925"><ele>1628.0</ele><time>2026-04-25T13:37:48.379Z</time></trkpt><trkpt lat="31.3472" lon="-7.3909817"><ele>1628.0</ele><time>2026-04-25T13:37:49.379Z</time></trkpt><trkpt lat="31.3473233" lon="-7.39103"><ele>1628.0</ele><time>2026-04-25T13:37:50.379Z</time></trkpt><trkpt lat="31.3474483" lon="-7.3910833"><ele>1625.0</ele><time>2026-04-25T13:37:51.379Z</time></trkpt><trkpt lat="31.34757" lon="-7.39113"><ele>1622.0</ele><time>2026-04-25T13:37:52.379Z</time></trkpt><trkpt lat="31.3476883" lon="-7.3911817"><ele>1619.0</ele><time>2026-04-25T13:37:53.379Z</time></trkpt><trkpt lat="31.3478133" lon="-7.3912383"><ele>1616.0</ele><time>2026-04-25T13:37:54.379Z</time></trkpt><trkpt lat="31.3479483" lon="-7.3913017"><ele>1622.3333333333333</ele><time>2026-04-25T13:37:55.379Z</time></trkpt><trkpt lat="31.348095" lon="-7.3913567"><ele>1628.6666666666665</ele><time>2026-04-25T13:37:56.379Z</time></trkpt><trkpt lat="31.3482467" lon="-7.3914"><ele>1635.0</ele><time>2026-04-25T13:37:57.379Z</time></trkpt><trkpt lat="31.348405" lon="-7.3914267"><ele>1635.0</ele><time>2026-04-25T13:37:58.379Z</time></trkpt><trkpt lat="31.348575" lon="-7.391455"><ele>1635.0</ele><time>2026-04-25T13:37:59.379Z</time></trkpt><trkpt lat="31.34875" lon="-7.3914717"><ele>1635.0</ele><time>2026-04-25T13:38:00.379Z</time></trkpt><trkpt lat="31.3489383" lon="-7.391475"><ele>1633.6666666666665</ele><time>2026-04-25T13:38:01.379Z</time></trkpt><trkpt lat="31.3491317" lon="-7.39147"><ele>1632.3333333333333</ele><time>2026-04-25T13:38:02.379Z</time></trkpt><trkpt lat="31.3493117" lon="-7.3914517"><ele>1631.0</ele><time>2026-04-25T13:38:03.379Z</time></trkpt><trkpt lat="31.3494933" lon="-7.3914333"><ele>1631.0</ele><time>2026-04-25T13:38:04.379Z</time></trkpt><trkpt lat="31.34968" lon="-7.391415"><ele>1631.0</ele><time>2026-04-25T13:38:05.379Z</time></trkpt><trkpt lat="31.3498667" lon="-7.391385"><ele>1631.0</ele><time>2026-04-25T13:38:06.379Z</time></trkpt><trkpt lat="31.3500533" lon="-7.39137"><ele>1631.0</ele><time>2026-04-25T13:38:07.379Z</time></trkpt><trkpt lat="31.3502417" lon="-7.3913483"><ele>1631.0</ele><time>2026-04-25T13:38:08.379Z</time></trkpt><trkpt lat="31.3504083" lon="-7.3913267"><ele>1631.0</ele><time>2026-04-25T13:38:09.379Z</time></trkpt><trkpt lat="31.3505617" lon="-7.3913033"><ele>1624.75</ele><time>2026-04-25T13:38:10.379Z</time></trkpt><trkpt lat="31.3507017" lon="-7.3912883"><ele>1618.5</ele><time>2026-04-25T13:38:11.379Z</time></trkpt><trkpt lat="31.35082" lon="-7.3912733"><ele>1612.25</ele><time>2026-04-25T13:38:12.379Z</time></trkpt><trkpt lat="31.35093" lon="-7.3912633"><ele>1606.0</ele><time>2026-04-25T13:38:13.379Z</time></trkpt><trkpt lat="31.3510317" lon="-7.3912617"><ele>1606.0000000000002</ele><time>2026-04-25T13:38:14.379Z</time></trkpt><trkpt lat="31.3511217" lon="-7.3912733"><ele>1606.0</ele><time>2026-04-25T13:38:15.379Z</time></trkpt><trkpt lat="31.3512083" lon="-7.3913"><ele>1606.0</ele><time>2026-04-25T13:38:16.38Z</time></trkpt><trkpt lat="31.351285" lon="-7.391325"><ele>1606.0</ele><time>2026-04-25T13:38:17.379Z</time></trkpt><trkpt lat="31.3513583" lon="-7.3913583"><ele>1606.0000000000002</ele><time>2026-04-25T13:38:18.379Z</time></trkpt><trkpt lat="31.3514217" lon="-7.391395"><ele>1606.0</ele><time>2026-04-25T13:38:19.379Z</time></trkpt><trkpt lat="31.351485" lon="-7.3914367"><ele>1604.0000000000002</ele><time>2026-04-25T13:38:20.379Z</time></trkpt><trkpt lat="31.3515383" lon="-7.3914767"><ele>1602.0</ele><time>2026-04-25T13:38:21.379Z</time></trkpt><trkpt lat="31.35163" lon="-7.3915567"><ele>1600.0</ele><time>2026-04-25T13:38:23.379Z</time></trkpt><trkpt lat="31.3516983" lon="-7.3916183"><ele>1598.0</ele><time>2026-04-25T13:38:25.379Z</time></trkpt><trkpt lat="31.35177" lon="-7.3916833"><ele>1596.0000000000002</ele><time>2026-04-25T13:38:28.379Z</time></trkpt><trkpt lat="31.35184" lon="-7.3917433"><ele>1594.0</ele><time>2026-04-25T13:38:31.379Z</time></trkpt><trkpt lat="31.3519017" lon="-7.3917883"><ele>1594.0</ele><time>2026-04-25T13:38:34.379Z</time></trkpt><trkpt lat="31.351965" lon="-7.3918117"><ele>1594.0</ele><time>2026-04-25T13:39:03.379Z</time></trkpt><trkpt lat="31.3521" lon="-7.3918767"><ele>1594.0</ele><time>2026-04-25T13:39:05.379Z</time></trkpt><trkpt lat="31.3521917" lon="-7.3919017"><ele>1594.0</ele><time>2026-04-25T13:39:06.379Z</time></trkpt><trkpt lat="31.3523017" lon="-7.3919283"><ele>1594.0</ele><time>2026-04-25T13:39:07.379Z</time></trkpt><trkpt lat="31.35243" lon="-7.3919583"><ele>1593.6666666666667</ele><time>2026-04-25T13:39:08.379Z</time></trkpt><trkpt lat="31.35257" lon="-7.3920033"><ele>1593.3333333333335</ele><time>2026-04-25T13:39:09.379Z</time></trkpt><trkpt lat="31.352725" lon="-7.392045"><ele>1593.0</ele><time>2026-04-25T13:39:10.379Z</time></trkpt><trkpt lat="31.352895" lon="-7.392095"><ele>1591.3333333333335</ele><time>2026-04-25T13:39:11.379Z</time></trkpt><trkpt lat="31.3530783" lon="-7.39212"><ele>1589.6666666666667</ele><time>2026-04-25T13:39:12.379Z</time></trkpt><trkpt lat="31.353275" lon="-7.3921367"><ele>1588.0</ele><time>2026-04-25T13:39:13.379Z</time></trkpt><trkpt lat="31.3534817" lon="-7.3921383"><ele>1588.0</ele><time>2026-04-25T13:39:14.379Z</time></trkpt><trkpt lat="31.3536983" lon="-7.392135"><ele>1588.0</ele><time>2026-04-25T13:39:15.379Z</time></trkpt><trkpt lat="31.3539217" lon="-7.392135"><ele>1588.0</ele><time>2026-04-25T13:39:16.379Z</time></trkpt><trkpt lat="31.3541367" lon="-7.3921133"><ele>1587.6666666666667</ele><time>2026-04-25T13:39:17.379Z</time></trkpt><trkpt lat="31.35433" lon="-7.3920667"><ele>1587.3333333333335</ele><time>2026-04-25T13:39:18.379Z</time></trkpt><trkpt lat="31.35451" lon="-7.3919967"><ele>1587.0</ele><time>2026-04-25T13:39:19.379Z</time></trkpt><trkpt lat="31.3546767" lon="-7.39191"><ele>1591.3333333333335</ele><time>2026-04-25T13:39:20.379Z</time></trkpt><trkpt lat="31.3548233" lon="-7.3918033"><ele>1595.6666666666667</ele><time>2026-04-25T13:39:21.379Z</time></trkpt><trkpt lat="31.3549533" lon="-7.3916767"><ele>1600.0</ele><time>2026-04-25T13:39:22.379Z</time></trkpt><trkpt lat="31.3550567" lon="-7.3915383"><ele>1600.0</ele><time>2026-04-25T13:39:23.379Z</time></trkpt><trkpt lat="31.3551417" lon="-7.3913933"><ele>1600.0</ele><time>2026-04-25T13:39:24.379Z</time></trkpt><trkpt lat="31.3552517" lon="-7.39129"><ele>1600.0</ele><time>2026-04-25T13:39:25.379Z</time></trkpt><trkpt lat="31.35538" lon="-7.391235"><ele>1600.0</ele><time>2026-04-25T13:39:26.379Z</time></trkpt><trkpt lat="31.3555117" lon="-7.3912083"><ele>1597.25</ele><time>2026-04-25T13:39:27.379Z</time></trkpt><trkpt lat="31.35565" lon="-7.3912017"><ele>1594.5</ele><time>2026-04-25T13:39:28.379Z</time></trkpt><trkpt lat="31.3557917" lon="-7.391185"><ele>1591.75</ele><time>2026-04-25T13:39:29.379Z</time></trkpt><trkpt lat="31.3559317" lon="-7.391185"><ele>1589.0</ele><time>2026-04-25T13:39:30.379Z</time></trkpt><trkpt lat="31.3560583" lon="-7.3912017"><ele>1589.0</ele><time>2026-04-25T13:39:31.379Z</time></trkpt><trkpt lat="31.3561767" lon="-7.39123"><ele>1589.0</ele><time>2026-04-25T13:39:32.379Z</time></trkpt><trkpt lat="31.3562867" lon="-7.3912633"><ele>1589.0</ele><time>2026-04-25T13:39:33.379Z</time></trkpt><trkpt lat="31.3563917" lon="-7.3913117"><ele>1589.0</ele><time>2026-04-25T13:39:34.379Z</time></trkpt><trkpt lat="31.3564983" lon="-7.3913667"><ele>1590.25</ele><time>2026-04-25T13:39:35.379Z</time></trkpt><trkpt lat="31.356605" lon="-7.3914217"><ele>1591.5</ele><time>2026-04-25T13:39:36.379Z</time></trkpt><trkpt lat="31.3567167" lon="-7.3914733"><ele>1592.75</ele><time>2026-04-25T13:39:37.379Z</time></trkpt><trkpt lat="31.3568233" lon="-7.3915233"><ele>1594.0</ele><time>2026-04-25T13:39:38.379Z</time></trkpt><trkpt lat="31.3569417" lon="-7.39157"><ele>1594.0</ele><time>2026-04-25T13:39:39.379Z</time></trkpt><trkpt lat="31.35707" lon="-7.3916083"><ele>1594.0</ele><time>2026-04-25T13:39:40.379Z</time></trkpt><trkpt lat="31.3572067" lon="-7.3916333"><ele>1594.0</ele><time>2026-04-25T13:39:41.379Z</time></trkpt><trkpt lat="31.35734" lon="-7.3916367"><ele>1594.0</ele><time>2026-04-25T13:39:42.38Z</time></trkpt><trkpt lat="31.357475" lon="-7.3916283"><ele>1593.25</ele><time>2026-04-25T13:39:43.379Z</time></trkpt><trkpt lat="31.3576133" lon="-7.3916133"><ele>1592.5</ele><time>2026-04-25T13:39:44.379Z</time></trkpt><trkpt lat="31.35775" lon="-7.3915933"><ele>1591.75</ele><time>2026-04-25T13:39:45.38Z</time></trkpt><trkpt lat="31.3578817" lon="-7.3915667"><ele>1591.0</ele><time>2026-04-25T13:39:46.379Z</time></trkpt><trkpt lat="31.3580117" lon="-7.391545"><ele>1591.5</ele><time>2026-04-25T13:39:47.379Z</time></trkpt><trkpt lat="31.3581367" lon="-7.3915283"><ele>1592.0</ele><time>2026-04-25T13:39:48.379Z</time></trkpt><trkpt lat="31.35825" lon="-7.3914967"><ele>1592.5</ele><time>2026-04-25T13:39:49.38Z</time></trkpt><trkpt lat="31.3583617" lon="-7.391475"><ele>1593.0</ele><time>2026-04-25T13:39:50.379Z</time></trkpt><trkpt lat="31.35848" lon="-7.3914433"><ele>1593.0</ele><time>2026-04-25T13:39:51.379Z</time></trkpt><trkpt lat="31.3585883" lon="-7.39141"><ele>1593.0</ele><time>2026-04-25T13:39:52.379Z</time></trkpt><trkpt lat="31.3586967" lon="-7.3913667"><ele>1593.0</ele><time>2026-04-25T13:39:53.379Z</time></trkpt><trkpt lat="31.3588033" lon="-7.3912933"><ele>1593.0</ele><time>2026-04-25T13:39:54.379Z</time></trkpt><trkpt lat="31.35891" lon="-7.3912183"><ele>1590.5</ele><time>2026-04-25T13:39:55.379Z</time></trkpt><trkpt lat="31.3590183" lon="-7.3911533"><ele>1588.0</ele><time>2026-04-25T13:39:56.379Z</time></trkpt><trkpt lat="31.359125" lon="-7.391085"><ele>1585.5</ele><time>2026-04-25T13:39:57.379Z</time></trkpt><trkpt lat="31.3592317" lon="-7.391015"><ele>1583.0</ele><time>2026-04-25T13:39:58.379Z</time></trkpt><trkpt lat="31.3593417" lon="-7.3909433"><ele>1583.0</ele><time>2026-04-25T13:39:59.379Z</time></trkpt><trkpt lat="31.359465" lon="-7.3908667"><ele>1583.0</ele><time>2026-04-25T13:40:00.379Z</time></trkpt><trkpt lat="31.3595917" lon="-7.3907733"><ele>1583.0</ele><time>2026-04-25T13:40:01.379Z</time></trkpt><trkpt lat="31.359715" lon="-7.3906767"><ele>1583.0</ele><time>2026-04-25T13:40:02.379Z</time></trkpt><trkpt lat="31.3598133" lon="-7.39055"><ele>1580.75</ele><time>2026-04-25T13:40:03.379Z</time></trkpt><trkpt lat="31.3599017" lon="-7.390415"><ele>1578.5</ele><time>2026-04-25T13:40:04.379Z</time></trkpt><trkpt lat="31.359995" lon="-7.3902817"><ele>1576.25</ele><time>2026-04-25T13:40:05.379Z</time></trkpt><trkpt lat="31.3601017" lon="-7.3901717"><ele>1574.0</ele><time>2026-04-25T13:40:06.379Z</time></trkpt><trkpt lat="31.36022" lon="-7.3900783"><ele>1574.0</ele><time>2026-04-25T13:40:07.379Z</time></trkpt><trkpt lat="31.3603483" lon="-7.3900083"><ele>1574.0</ele><time>2026-04-25T13:40:08.379Z</time></trkpt><trkpt lat="31.360485" lon="-7.38996"><ele>1574.0</ele><time>2026-04-25T13:40:09.379Z</time></trkpt><trkpt lat="31.3606333" lon="-7.3899367"><ele>1574.0</ele><time>2026-04-25T13:40:10.379Z</time></trkpt><trkpt lat="31.3607983" lon="-7.389935"><ele>1576.25</ele><time>2026-04-25T13:40:11.379Z</time></trkpt><trkpt lat="31.3609583" lon="-7.3899633"><ele>1578.5</ele><time>2026-04-25T13:40:12.38Z</time></trkpt><trkpt lat="31.3611" lon="-7.39"><ele>1580.75</ele><time>2026-04-25T13:40:13.379Z</time></trkpt><trkpt lat="31.3612217" lon="-7.390055"><ele>1583.0</ele><time>2026-04-25T13:40:14.379Z</time></trkpt><trkpt lat="31.3613417" lon="-7.390135"><ele>1581.0</ele><time>2026-04-25T13:40:15.38Z</time></trkpt><trkpt lat="31.36146" lon="-7.3902567"><ele>1579.0</ele><time>2026-04-25T13:40:16.38Z</time></trkpt><trkpt lat="31.3615733" lon="-7.3904233"><ele>1577.0</ele><time>2026-04-25T13:40:17.379Z</time></trkpt><trkpt lat="31.3616933" lon="-7.3906167"><ele>1577.0</ele><time>2026-04-25T13:40:18.379Z</time></trkpt><trkpt lat="31.36182" lon="-7.390825"><ele>1577.0</ele><time>2026-04-25T13:40:19.379Z</time></trkpt><trkpt lat="31.3619617" lon="-7.39104"><ele>1577.0</ele><time>2026-04-25T13:40:20.379Z</time></trkpt><trkpt lat="31.3620867" lon="-7.39125"><ele>1577.0</ele><time>2026-04-25T13:40:21.379Z</time></trkpt><trkpt lat="31.3622" lon="-7.3914467"><ele>1577.0</ele><time>2026-04-25T13:40:22.379Z</time></trkpt><trkpt lat="31.362325" lon="-7.39161"><ele>1579.3333333333333</ele><time>2026-04-25T13:40:23.379Z</time></trkpt><trkpt lat="31.362475" lon="-7.3917167"><ele>1581.6666666666665</ele><time>2026-04-25T13:40:24.38Z</time></trkpt><trkpt lat="31.362625" lon="-7.3917767"><ele>1584.0</ele><time>2026-04-25T13:40:25.379Z</time></trkpt><trkpt lat="31.3627833" lon="-7.3917983"><ele>1584.0</ele><time>2026-04-25T13:40:26.379Z</time></trkpt><trkpt lat="31.3629683" lon="-7.39177"><ele>1584.0</ele><time>2026-04-25T13:40:27.379Z</time></trkpt><trkpt lat="31.3631683" lon="-7.3917"><ele>1584.0</ele><time>2026-04-25T13:40:28.379Z</time></trkpt><trkpt lat="31.3633733" lon="-7.3916417"><ele>1583.3333333333335</ele><time>2026-04-25T13:40:29.379Z</time></trkpt><trkpt lat="31.3635683" lon="-7.3915833"><ele>1582.6666666666667</ele><time>2026-04-25T13:40:30.379Z</time></trkpt><trkpt lat="31.3637633" lon="-7.3915317"><ele>1582.0</ele><time>2026-04-25T13:40:31.379Z</time></trkpt><trkpt lat="31.3639467" lon="-7.39151"><ele>1584.3333333333335</ele><time>2026-04-25T13:40:32.379Z</time></trkpt><trkpt lat="31.364115" lon="-7.3915333"><ele>1586.6666666666665</ele><time>2026-04-25T13:40:33.379Z</time></trkpt><trkpt lat="31.3642783" lon="-7.3916083"><ele>1589.0</ele><time>2026-04-25T13:40:34.379Z</time></trkpt><trkpt lat="31.36444" lon="-7.3917283"><ele>1589.0</ele><time>2026-04-25T13:40:35.379Z</time></trkpt><trkpt lat="31.36459" lon="-7.3918667"><ele>1589.0</ele><time>2026-04-25T13:40:36.379Z</time></trkpt><trkpt lat="31.3647483" lon="-7.3920167"><ele>1589.0</ele><time>2026-04-25T13:40:37.38Z</time></trkpt><trkpt lat="31.36493" lon="-7.3921383"><ele>1586.3333333333333</ele><time>2026-04-25T13:40:38.379Z</time></trkpt><trkpt lat="31.365135" lon="-7.3922117"><ele>1583.6666666666665</ele><time>2026-04-25T13:40:39.379Z</time></trkpt><trkpt lat="31.365355" lon="-7.39227"><ele>1581.0</ele><time>2026-04-25T13:40:40.379Z</time></trkpt><trkpt lat="31.3655717" lon="-7.3923117"><ele>1575.3333333333335</ele><time>2026-04-25T13:40:41.379Z</time></trkpt><trkpt lat="31.3657783" lon="-7.39235"><ele>1569.6666666666667</ele><time>2026-04-25T13:40:42.379Z</time></trkpt><trkpt lat="31.3659833" lon="-7.3923717"><ele>1564.0</ele><time>2026-04-25T13:40:43.379Z</time></trkpt><trkpt lat="31.3661817" lon="-7.3923817"><ele>1564.3333333333335</ele><time>2026-04-25T13:40:44.379Z</time></trkpt><trkpt lat="31.36637" lon="-7.3923733"><ele>1564.6666666666665</ele><time>2026-04-25T13:40:45.379Z</time></trkpt><trkpt lat="31.3665517" lon="-7.3923533"><ele>1565.0</ele><time>2026-04-25T13:40:46.379Z</time></trkpt><trkpt lat="31.3667183" lon="-7.39233"><ele>1565.0</ele><time>2026-04-25T13:40:47.379Z</time></trkpt><trkpt lat="31.366875" lon="-7.3923083"><ele>1565.0</ele><time>2026-04-25T13:40:48.379Z</time></trkpt><trkpt lat="31.3670267" lon="-7.3922733"><ele>1565.0</ele><time>2026-04-25T13:40:49.379Z</time></trkpt><trkpt lat="31.3671683" lon="-7.3922033"><ele>1567.0</ele><time>2026-04-25T13:40:50.379Z</time></trkpt><trkpt lat="31.3672883" lon="-7.39211"><ele>1569.0</ele><time>2026-04-25T13:40:51.379Z</time></trkpt><trkpt lat="31.367395" lon="-7.3919883"><ele>1571.0</ele><time>2026-04-25T13:40:52.38Z</time></trkpt><trkpt lat="31.3674867" lon="-7.391825"><ele>1571.0</ele><time>2026-04-25T13:40:53.379Z</time></trkpt><trkpt lat="31.3675417" lon="-7.391635"><ele>1571.0</ele><time>2026-04-25T13:40:54.379Z</time></trkpt><trkpt lat="31.36757" lon="-7.3914183"><ele>1571.0</ele><time>2026-04-25T13:40:55.379Z</time></trkpt><trkpt lat="31.3675933" lon="-7.3911933"><ele>1568.3333333333333</ele><time>2026-04-25T13:40:56.379Z</time></trkpt><trkpt lat="31.3676117" lon="-7.3909733"><ele>1565.6666666666665</ele><time>2026-04-25T13:40:57.379Z</time></trkpt><trkpt lat="31.3676383" lon="-7.3907567"><ele>1563.0</ele><time>2026-04-25T13:40:58.379Z</time></trkpt><trkpt lat="31.3676683" lon="-7.3905533"><ele>1560.0</ele><time>2026-04-25T13:40:59.379Z</time></trkpt><trkpt lat="31.3676917" lon="-7.3903517"><ele>1557.0</ele><time>2026-04-25T13:41:00.379Z</time></trkpt><trkpt lat="31.367715" lon="-7.39015"><ele>1554.0</ele><time>2026-04-25T13:41:01.379Z</time></trkpt><trkpt lat="31.367745" lon="-7.3899433"><ele>1554.0</ele><time>2026-04-25T13:41:02.379Z</time></trkpt><trkpt lat="31.36777" lon="-7.3897333"><ele>1554.0</ele><time>2026-04-25T13:41:03.379Z</time></trkpt><trkpt lat="31.367795" lon="-7.3895317"><ele>1554.0</ele><time>2026-04-25T13:41:04.379Z</time></trkpt><trkpt lat="31.3678183" lon="-7.3893267"><ele>1552.3333333333335</ele><time>2026-04-25T13:41:05.379Z</time></trkpt><trkpt lat="31.36785" lon="-7.3891333"><ele>1550.6666666666667</ele><time>2026-04-25T13:41:06.379Z</time></trkpt><trkpt lat="31.3678983" lon="-7.38895"><ele>1549.0</ele><time>2026-04-25T13:41:07.38Z</time></trkpt><trkpt lat="31.3679767" lon="-7.388785"><ele>1552.3333333333335</ele><time>2026-04-25T13:41:08.379Z</time></trkpt><trkpt lat="31.3680883" lon="-7.3886317"><ele>1555.6666666666665</ele><time>2026-04-25T13:41:09.379Z</time></trkpt><trkpt lat="31.3682267" lon="-7.3885017"><ele>1559.0</ele><time>2026-04-25T13:41:10.38Z</time></trkpt><trkpt lat="31.3683667" lon="-7.3883833"><ele>1559.0</ele><time>2026-04-25T13:41:11.379Z</time></trkpt><trkpt lat="31.3684967" lon="-7.3882667"><ele>1559.0</ele><time>2026-04-25T13:41:12.379Z</time></trkpt><trkpt lat="31.36862" lon="-7.3881633"><ele>1559.0</ele><time>2026-04-25T13:41:13.379Z</time></trkpt><trkpt lat="31.36875" lon="-7.3880767"><ele>1556.75</ele><time>2026-04-25T13:41:14.379Z</time></trkpt><trkpt lat="31.3688817" lon="-7.3880167"><ele>1554.5</ele><time>2026-04-25T13:41:15.379Z</time></trkpt><trkpt lat="31.3690117" lon="-7.387975"><ele>1552.25</ele><time>2026-04-25T13:41:16.379Z</time></trkpt><trkpt lat="31.3691517" lon="-7.387975"><ele>1550.0</ele><time>2026-04-25T13:41:17.38Z</time></trkpt><trkpt lat="31.3692917" lon="-7.388005"><ele>1560.3333333333333</ele><time>2026-04-25T13:41:18.379Z</time></trkpt><trkpt lat="31.369425" lon="-7.3880817"><ele>1570.6666666666665</ele><time>2026-04-25T13:41:19.379Z</time></trkpt><trkpt lat="31.36955" lon="-7.3881983"><ele>1581.0</ele><time>2026-04-25T13:41:20.379Z</time></trkpt><trkpt lat="31.36965" lon="-7.3883433"><ele>1573.6666666666665</ele><time>2026-04-25T13:41:21.379Z</time></trkpt><trkpt lat="31.3697367" lon="-7.3885167"><ele>1566.3333333333333</ele><time>2026-04-25T13:41:22.38Z</time></trkpt><trkpt lat="31.3698133" lon="-7.3887333"><ele>1559.0</ele><time>2026-04-25T13:41:23.379Z</time></trkpt><trkpt lat="31.36987" lon="-7.3890033"><ele>1556.5</ele><time>2026-04-25T13:41:24.379Z</time></trkpt><trkpt lat="31.36993" lon="-7.3893067"><ele>1554.0</ele><time>2026-04-25T13:41:25.379Z</time></trkpt><trkpt lat="31.3700183" lon="-7.3896233"><ele>1566.5</ele><time>2026-04-25T13:41:26.379Z</time></trkpt><trkpt lat="31.3701233" lon="-7.3899267"><ele>1579.0</ele><time>2026-04-25T13:41:27.379Z</time></trkpt><trkpt lat="31.3702433" lon="-7.3902117"><ele>1579.0</ele><time>2026-04-25T13:41:28.378Z</time></trkpt><trkpt lat="31.3703633" lon="-7.3904717"><ele>1579.0</ele><time>2026-04-25T13:41:29.378Z</time></trkpt><trkpt lat="31.3704717" lon="-7.390715"><ele>1563.3333333333335</ele><time>2026-04-25T13:41:30.378Z</time></trkpt><trkpt lat="31.370565" lon="-7.3909417"><ele>1547.6666666666667</ele><time>2026-04-25T13:41:31.378Z</time></trkpt><trkpt lat="31.37064" lon="-7.391145"><ele>1532.0</ele><time>2026-04-25T13:41:32.378Z</time></trkpt><trkpt lat="31.3706867" lon="-7.3913333"><ele>1531.25</ele><time>2026-04-25T13:41:33.378Z</time></trkpt><trkpt lat="31.3707117" lon="-7.3915083"><ele>1530.5</ele><time>2026-04-25T13:41:34.378Z</time></trkpt><trkpt lat="31.37069" lon="-7.3916667"><ele>1529.75</ele><time>2026-04-25T13:41:35.378Z</time></trkpt><trkpt lat="31.3706367" lon="-7.391815"><ele>1529.0</ele><time>2026-04-25T13:41:36.378Z</time></trkpt><trkpt lat="31.37055" lon="-7.3919517"><ele>1530.3333333333335</ele><time>2026-04-25T13:41:37.378Z</time></trkpt><trkpt lat="31.370425" lon="-7.3920933"><ele>1531.6666666666667</ele><time>2026-04-25T13:41:38.378Z</time></trkpt><trkpt lat="31.3702567" lon="-7.392225"><ele>1533.0</ele><time>2026-04-25T13:41:39.378Z</time></trkpt><trkpt lat="31.3700733" lon="-7.3923583"><ele>1533.0</ele><time>2026-04-25T13:41:40.378Z</time></trkpt><trkpt lat="31.3698933" lon="-7.3924783"><ele>1533.0</ele><time>2026-04-25T13:41:41.378Z</time></trkpt><trkpt lat="31.3697317" lon="-7.3926167"><ele>1533.0</ele><time>2026-04-25T13:41:42.378Z</time></trkpt><trkpt lat="31.36959" lon="-7.3927533"><ele>1537.6666666666665</ele><time>2026-04-25T13:41:43.378Z</time></trkpt><trkpt lat="31.36947" lon="-7.39292"><ele>1542.3333333333333</ele><time>2026-04-25T13:41:44.378Z</time></trkpt><trkpt lat="31.36938" lon="-7.3931083"><ele>1547.0</ele><time>2026-04-25T13:41:45.378Z</time></trkpt><trkpt lat="31.36933" lon="-7.3933133"><ele>1547.0</ele><time>2026-04-25T13:41:46.378Z</time></trkpt><trkpt lat="31.3693183" lon="-7.393525"><ele>1547.0</ele><time>2026-04-25T13:41:47.378Z</time></trkpt><trkpt lat="31.3693667" lon="-7.3937283"><ele>1547.0</ele><time>2026-04-25T13:41:48.378Z</time></trkpt><trkpt lat="31.36944" lon="-7.3939283"><ele>1551.6666666666665</ele><time>2026-04-25T13:41:49.378Z</time></trkpt><trkpt lat="31.369545" lon="-7.39411"><ele>1556.3333333333335</ele><time>2026-04-25T13:41:50.378Z</time></trkpt><trkpt lat="31.3697033" lon="-7.3942567"><ele>1561.0</ele><time>2026-04-25T13:41:51.378Z</time></trkpt><trkpt lat="31.3698983" lon="-7.394395"><ele>1551.0</ele><time>2026-04-25T13:41:52.378Z</time></trkpt><trkpt lat="31.3701167" lon="-7.39454"><ele>1541.0</ele><time>2026-04-25T13:41:53.378Z</time></trkpt><trkpt lat="31.370335" lon="-7.3947"><ele>1527.0</ele><time>2026-04-25T13:41:54.378Z</time></trkpt><trkpt lat="31.37055" lon="-7.3948533"><ele>1513.0</ele><time>2026-04-25T13:41:55.378Z</time></trkpt><trkpt lat="31.3707517" lon="-7.3950033"><ele>1513.0</ele><time>2026-04-25T13:41:56.378Z</time></trkpt><trkpt lat="31.3709183" lon="-7.3951617"><ele>1513.0</ele><time>2026-04-25T13:41:57.378Z</time></trkpt><trkpt lat="31.371045" lon="-7.3953317"><ele>1513.0</ele><time>2026-04-25T13:41:58.378Z</time></trkpt><trkpt lat="31.3711233" lon="-7.3955217"><ele>1517.0</ele><time>2026-04-25T13:41:59.378Z</time></trkpt><trkpt lat="31.3711433" lon="-7.3957217"><ele>1521.0</ele><time>2026-04-25T13:42:00.378Z</time></trkpt><trkpt lat="31.3710983" lon="-7.3959183"><ele>1525.0</ele><time>2026-04-25T13:42:01.378Z</time></trkpt><trkpt lat="31.3710167" lon="-7.3960967"><ele>1525.0</ele><time>2026-04-25T13:42:02.378Z</time></trkpt><trkpt lat="31.370895" lon="-7.396275"><ele>1525.0</ele><time>2026-04-25T13:42:03.378Z</time></trkpt><trkpt lat="31.3707567" lon="-7.3964383"><ele>1525.0</ele><time>2026-04-25T13:42:04.379Z</time></trkpt><trkpt lat="31.3705833" lon="-7.3966017"><ele>1528.3333333333333</ele><time>2026-04-25T13:42:05.378Z</time></trkpt><trkpt lat="31.3704383" lon="-7.3967583"><ele>1531.6666666666667</ele><time>2026-04-25T13:42:06.378Z</time></trkpt><trkpt lat="31.3703217" lon="-7.3969267"><ele>1535.0</ele><time>2026-04-25T13:42:07.378Z</time></trkpt><trkpt lat="31.3702383" lon="-7.3971017"><ele>1529.3333333333335</ele><time>2026-04-25T13:42:08.378Z</time></trkpt><trkpt lat="31.3701883" lon="-7.3972933"><ele>1523.6666666666667</ele><time>2026-04-25T13:42:09.378Z</time></trkpt><trkpt lat="31.37019" lon="-7.3974867"><ele>1518.0</ele><time>2026-04-25T13:42:10.378Z</time></trkpt><trkpt lat="31.3702383" lon="-7.3976717"><ele>1518.0</ele><time>2026-04-25T13:42:11.378Z</time></trkpt><trkpt lat="31.3703167" lon="-7.3978533"><ele>1518.0</ele><time>2026-04-25T13:42:12.378Z</time></trkpt><trkpt lat="31.3704417" lon="-7.3980183"><ele>1518.0</ele><time>2026-04-25T13:42:13.378Z</time></trkpt><trkpt lat="31.37059" lon="-7.3981567"><ele>1518.0</ele><time>2026-04-25T13:42:14.378Z</time></trkpt><trkpt lat="31.3707767" lon="-7.3982683"><ele>1518.0</ele><time>2026-04-25T13:42:15.378Z</time></trkpt><trkpt lat="31.3709817" lon="-7.3983667"><ele>1518.0</ele><time>2026-04-25T13:42:16.378Z</time></trkpt><trkpt lat="31.3711683" lon="-7.3984917"><ele>1518.0</ele><time>2026-04-25T13:42:17.378Z</time></trkpt><trkpt lat="31.3713317" lon="-7.3986283"><ele>1518.0</ele><time>2026-04-25T13:42:18.378Z</time></trkpt><trkpt lat="31.3714567" lon="-7.398765"><ele>1518.0</ele><time>2026-04-25T13:42:19.378Z</time></trkpt><trkpt lat="31.37154" lon="-7.3989167"><ele>1512.6666666666667</ele><time>2026-04-25T13:42:20.378Z</time></trkpt><trkpt lat="31.37159" lon="-7.3990733"><ele>1507.3333333333335</ele><time>2026-04-25T13:42:21.378Z</time></trkpt><trkpt lat="31.3716117" lon="-7.3992483"><ele>1502.0</ele><time>2026-04-25T13:42:22.378Z</time></trkpt><trkpt lat="31.3716317" lon="-7.3994383"><ele>1502.0</ele><time>2026-04-25T13:42:23.378Z</time></trkpt><trkpt lat="31.3716733" lon="-7.39964"><ele>1502.0</ele><time>2026-04-25T13:42:24.378Z</time></trkpt><trkpt lat="31.3717317" lon="-7.3998583"><ele>1502.0</ele><time>2026-04-25T13:42:25.378Z</time></trkpt><trkpt lat="31.3717983" lon="-7.4000917"><ele>1508.5</ele><time>2026-04-25T13:42:26.378Z</time></trkpt><trkpt lat="31.3718833" lon="-7.40034"><ele>1515.0</ele><time>2026-04-25T13:42:27.378Z</time></trkpt><trkpt lat="31.371985" lon="-7.4006067"><ele>1524.0</ele><time>2026-04-25T13:42:28.378Z</time></trkpt><trkpt lat="31.3720883" lon="-7.4008783"><ele>1533.0</ele><time>2026-04-25T13:42:29.378Z</time></trkpt><trkpt lat="31.37218" lon="-7.4011383"><ele>1523.6666666666667</ele><time>2026-04-25T13:42:30.378Z</time></trkpt><trkpt lat="31.3722717" lon="-7.40138"><ele>1514.3333333333335</ele><time>2026-04-25T13:42:31.378Z</time></trkpt><trkpt lat="31.3723567" lon="-7.40161"><ele>1505.0</ele><time>2026-04-25T13:42:32.378Z</time></trkpt><trkpt lat="31.37243" lon="-7.4018283"><ele>1505.0</ele><time>2026-04-25T13:42:33.378Z</time></trkpt><trkpt lat="31.3724933" lon="-7.402035"><ele>1505.0</ele><time>2026-04-25T13:42:34.378Z</time></trkpt><trkpt lat="31.3725283" lon="-7.40224"><ele>1505.0</ele><time>2026-04-25T13:42:35.378Z</time></trkpt><trkpt lat="31.3725233" lon="-7.4024483"><ele>1507.6666666666667</ele><time>2026-04-25T13:42:36.378Z</time></trkpt><trkpt lat="31.37249" lon="-7.4026367"><ele>1510.3333333333333</ele><time>2026-04-25T13:42:37.378Z</time></trkpt><trkpt lat="31.3724067" lon="-7.4027983"><ele>1513.0</ele><time>2026-04-25T13:42:38.378Z</time></trkpt><trkpt lat="31.372285" lon="-7.4029433"><ele>1509.6666666666665</ele><time>2026-04-25T13:42:39.378Z</time></trkpt><trkpt lat="31.372125" lon="-7.4030633"><ele>1506.3333333333333</ele><time>2026-04-25T13:42:40.378Z</time></trkpt><trkpt lat="31.37193" lon="-7.40316"><ele>1503.0</ele><time>2026-04-25T13:42:41.378Z</time></trkpt><trkpt lat="31.3717467" lon="-7.4032833"><ele>1503.0</ele><time>2026-04-25T13:42:42.378Z</time></trkpt><trkpt lat="31.37159" lon="-7.4034483"><ele>1503.0</ele><time>2026-04-25T13:42:43.378Z</time></trkpt><trkpt lat="31.3714617" lon="-7.40367"><ele>1503.0</ele><time>2026-04-25T13:42:44.378Z</time></trkpt><trkpt lat="31.3713517" lon="-7.4039267"><ele>1516.0</ele><time>2026-04-25T13:42:45.378Z</time></trkpt><trkpt lat="31.3712383" lon="-7.404175"><ele>1529.0</ele><time>2026-04-25T13:42:46.378Z</time></trkpt><trkpt lat="31.37114" lon="-7.4044"><ele>1529.0</ele><time>2026-04-25T13:42:47.378Z</time></trkpt><trkpt lat="31.3710517" lon="-7.404615"><ele>1529.0</ele><time>2026-04-25T13:42:48.379Z</time></trkpt><trkpt lat="31.371" lon="-7.4048433"><ele>1529.0</ele><time>2026-04-25T13:42:49.378Z</time></trkpt><trkpt lat="31.371" lon="-7.405075"><ele>1523.6666666666667</ele><time>2026-04-25T13:42:50.378Z</time></trkpt><trkpt lat="31.3710517" lon="-7.4052917"><ele>1518.3333333333333</ele><time>2026-04-25T13:42:51.378Z</time></trkpt><trkpt lat="31.371145" lon="-7.4055233"><ele>1513.0</ele><time>2026-04-25T13:42:52.379Z</time></trkpt><trkpt lat="31.371255" lon="-7.4057733"><ele>1512.3333333333333</ele><time>2026-04-25T13:42:53.378Z</time></trkpt><trkpt lat="31.3713467" lon="-7.40602"><ele>1511.6666666666667</ele><time>2026-04-25T13:42:54.378Z</time></trkpt><trkpt lat="31.37142" lon="-7.406255"><ele>1511.0</ele><time>2026-04-25T13:42:55.378Z</time></trkpt><trkpt lat="31.3714667" lon="-7.4064783"><ele>1499.6666666666667</ele><time>2026-04-25T13:42:56.378Z</time></trkpt><trkpt lat="31.3714767" lon="-7.4066867"><ele>1488.3333333333333</ele><time>2026-04-25T13:42:57.378Z</time></trkpt><trkpt lat="31.371445" lon="-7.4068867"><ele>1477.0</ele><time>2026-04-25T13:42:58.378Z</time></trkpt><trkpt lat="31.3713633" lon="-7.407085"><ele>1481.3333333333333</ele><time>2026-04-25T13:42:59.378Z</time></trkpt><trkpt lat="31.3712533" lon="-7.4072933"><ele>1485.6666666666667</ele><time>2026-04-25T13:43:00.378Z</time></trkpt><trkpt lat="31.37116" lon="-7.4075017"><ele>1490.0</ele><time>2026-04-25T13:43:01.378Z</time></trkpt><trkpt lat="31.3711183" lon="-7.4077283"><ele>1490.0</ele><time>2026-04-25T13:43:02.378Z</time></trkpt><trkpt lat="31.3711283" lon="-7.4079783"><ele>1490.0</ele><time>2026-04-25T13:43:03.378Z</time></trkpt><trkpt lat="31.3711767" lon="-7.4082417"><ele>1490.0</ele><time>2026-04-25T13:43:04.378Z</time></trkpt><trkpt lat="31.3712417" lon="-7.4085067"><ele>1488.3333333333335</ele><time>2026-04-25T13:43:05.378Z</time></trkpt><trkpt lat="31.3713067" lon="-7.4087567"><ele>1486.6666666666667</ele><time>2026-04-25T13:43:06.378Z</time></trkpt><trkpt lat="31.371375" lon="-7.4089733"><ele>1485.0</ele><time>2026-04-25T13:43:07.378Z</time></trkpt><trkpt lat="31.3714683" lon="-7.40916"><ele>1481.0</ele><time>2026-04-25T13:43:08.378Z</time></trkpt><trkpt lat="31.3716083" lon="-7.4093117"><ele>1477.0</ele><time>2026-04-25T13:43:09.378Z</time></trkpt><trkpt lat="31.371775" lon="-7.40944"><ele>1473.0</ele><time>2026-04-25T13:43:10.378Z</time></trkpt><trkpt lat="31.3719667" lon="-7.40953"><ele>1473.0</ele><time>2026-04-25T13:43:11.378Z</time></trkpt><trkpt lat="31.372145" lon="-7.4095983"><ele>1473.0</ele><time>2026-04-25T13:43:12.379Z</time></trkpt><trkpt lat="31.3723017" lon="-7.4097017"><ele>1473.0</ele><time>2026-04-25T13:43:13.379Z</time></trkpt><trkpt lat="31.372425" lon="-7.4098467"><ele>1472.6666666666667</ele><time>2026-04-25T13:43:14.378Z</time></trkpt><trkpt lat="31.3725183" lon="-7.4100267"><ele>1472.3333333333335</ele><time>2026-04-25T13:43:15.378Z</time></trkpt><trkpt lat="31.3725817" lon="-7.4102267"><ele>1472.0</ele><time>2026-04-25T13:43:16.378Z</time></trkpt><trkpt lat="31.372605" lon="-7.4104717"><ele>1471.6666666666667</ele><time>2026-04-25T13:43:17.378Z</time></trkpt><trkpt lat="31.3726083" lon="-7.4107317"><ele>1471.3333333333333</ele><time>2026-04-25T13:43:18.378Z</time></trkpt><trkpt lat="31.37261" lon="-7.4109767"><ele>1471.0</ele><time>2026-04-25T13:43:19.378Z</time></trkpt><trkpt lat="31.37262" lon="-7.4112067"><ele>1470.3333333333333</ele><time>2026-04-25T13:43:20.378Z</time></trkpt><trkpt lat="31.372645" lon="-7.4114133"><ele>1469.6666666666667</ele><time>2026-04-25T13:43:21.378Z</time></trkpt><trkpt lat="31.3727" lon="-7.4115983"><ele>1469.0</ele><time>2026-04-25T13:43:22.378Z</time></trkpt><trkpt lat="31.37279" lon="-7.41176"><ele>1469.0</ele><time>2026-04-25T13:43:23.378Z</time></trkpt><trkpt lat="31.3729083" lon="-7.4119"><ele>1469.0</ele><time>2026-04-25T13:43:24.378Z</time></trkpt><trkpt lat="31.3730617" lon="-7.4119933"><ele>1469.0</ele><time>2026-04-25T13:43:25.378Z</time></trkpt><trkpt lat="31.3732533" lon="-7.4120567"><ele>1468.0</ele><time>2026-04-25T13:43:26.378Z</time></trkpt><trkpt lat="31.37348" lon="-7.412105"><ele>1467.0</ele><time>2026-04-25T13:43:27.378Z</time></trkpt><trkpt lat="31.3737033" lon="-7.4121617"><ele>1474.6666666666667</ele><time>2026-04-25T13:43:28.378Z</time></trkpt><trkpt lat="31.3739067" lon="-7.4122133"><ele>1482.3333333333335</ele><time>2026-04-25T13:43:29.378Z</time></trkpt><trkpt lat="31.3740983" lon="-7.412265"><ele>1490.0</ele><time>2026-04-25T13:43:30.378Z</time></trkpt><trkpt lat="31.37428" lon="-7.4123067"><ele>1490.0</ele><time>2026-04-25T13:43:31.378Z</time></trkpt><trkpt lat="31.37446" lon="-7.412335"><ele>1490.0</ele><time>2026-04-25T13:43:32.378Z</time></trkpt><trkpt lat="31.3746417" lon="-7.4123383"><ele>1490.0</ele><time>2026-04-25T13:43:33.378Z</time></trkpt><trkpt lat="31.3748283" lon="-7.4122867"><ele>1493.3333333333335</ele><time>2026-04-25T13:43:34.378Z</time></trkpt><trkpt lat="31.3750033" lon="-7.412185"><ele>1496.6666666666667</ele><time>2026-04-25T13:43:35.378Z</time></trkpt><trkpt lat="31.3751583" lon="-7.41202"><ele>1500.0</ele><time>2026-04-25T13:43:36.378Z</time></trkpt><trkpt lat="31.375305" lon="-7.41181"><ele>1493.5</ele><time>2026-04-25T13:43:37.378Z</time></trkpt><trkpt lat="31.3754467" lon="-7.4115767"><ele>1487.0</ele><time>2026-04-25T13:43:38.378Z</time></trkpt><trkpt lat="31.3755833" lon="-7.41134"><ele>1474.5</ele><time>2026-04-25T13:43:39.378Z</time></trkpt><trkpt lat="31.3757267" lon="-7.4111117"><ele>1462.0</ele><time>2026-04-25T13:43:40.378Z</time></trkpt><trkpt lat="31.3758767" lon="-7.4108783"><ele>1462.0</ele><time>2026-04-25T13:43:41.378Z</time></trkpt><trkpt lat="31.3760367" lon="-7.410635"><ele>1462.0</ele><time>2026-04-25T13:43:42.378Z</time></trkpt><trkpt lat="31.376205" lon="-7.410385"><ele>1466.0</ele><time>2026-04-25T13:43:43.378Z</time></trkpt><trkpt lat="31.376385" lon="-7.4101333"><ele>1470.0</ele><time>2026-04-25T13:43:44.378Z</time></trkpt><trkpt lat="31.37657" lon="-7.4098783"><ele>1463.0</ele><time>2026-04-25T13:43:45.378Z</time></trkpt><trkpt lat="31.3767517" lon="-7.40963"><ele>1456.0</ele><time>2026-04-25T13:43:46.378Z</time></trkpt><trkpt lat="31.3769233" lon="-7.4094"><ele>1456.0</ele><time>2026-04-25T13:43:47.378Z</time></trkpt><trkpt lat="31.377085" lon="-7.4091833"><ele>1456.0</ele><time>2026-04-25T13:43:48.378Z</time></trkpt><trkpt lat="31.3772467" lon="-7.4089917"><ele>1457.5</ele><time>2026-04-25T13:43:49.378Z</time></trkpt><trkpt lat="31.3774267" lon="-7.4088217"><ele>1459.0</ele><time>2026-04-25T13:43:50.378Z</time></trkpt><trkpt lat="31.37763" lon="-7.4086667"><ele>1459.0</ele><time>2026-04-25T13:43:51.378Z</time></trkpt><trkpt lat="31.3778517" lon="-7.4085433"><ele>1459.0</ele><time>2026-04-25T13:43:52.378Z</time></trkpt><trkpt lat="31.3781" lon="-7.40844"><ele>1458.5</ele><time>2026-04-25T13:43:53.378Z</time></trkpt><trkpt lat="31.3783567" lon="-7.4083467"><ele>1458.0</ele><time>2026-04-25T13:43:54.378Z</time></trkpt><trkpt lat="31.3786017" lon="-7.40826"><ele>1458.0</ele><time>2026-04-25T13:43:55.378Z</time></trkpt><trkpt lat="31.378835" lon="-7.4081733"><ele>1458.0</ele><time>2026-04-25T13:43:56.378Z</time></trkpt><trkpt lat="31.379055" lon="-7.40808"><ele>1456.3333333333333</ele><time>2026-04-25T13:43:57.378Z</time></trkpt><trkpt lat="31.3792633" lon="-7.4079917"><ele>1454.6666666666665</ele><time>2026-04-25T13:43:58.378Z</time></trkpt><trkpt lat="31.3794767" lon="-7.40793"><ele>1453.0</ele><time>2026-04-25T13:43:59.378Z</time></trkpt><trkpt lat="31.3796767" lon="-7.4079117"><ele>1453.0</ele><time>2026-04-25T13:44:00.378Z</time></trkpt><trkpt lat="31.37987" lon="-7.407955"><ele>1453.0</ele><time>2026-04-25T13:44:01.378Z</time></trkpt><trkpt lat="31.3800717" lon="-7.4080483"><ele>1453.0</ele><time>2026-04-25T13:44:02.378Z</time></trkpt><trkpt lat="31.38029" lon="-7.4081767"><ele>1455.0</ele><time>2026-04-25T13:44:03.378Z</time></trkpt><trkpt lat="31.3805217" lon="-7.4082983"><ele>1457.0</ele><time>2026-04-25T13:44:04.378Z</time></trkpt><trkpt lat="31.3807583" lon="-7.4084"><ele>1457.0</ele><time>2026-04-25T13:44:05.379Z</time></trkpt><trkpt lat="31.3809983" lon="-7.4084733"><ele>1457.0</ele><time>2026-04-25T13:44:06.379Z</time></trkpt><trkpt lat="31.3812233" lon="-7.4085133"><ele>1455.0</ele><time>2026-04-25T13:44:07.378Z</time></trkpt><trkpt lat="31.3814233" lon="-7.40854"><ele>1453.0</ele><time>2026-04-25T13:44:08.378Z</time></trkpt><trkpt lat="31.3815917" lon="-7.4085633"><ele>1451.0</ele><time>2026-04-25T13:44:09.378Z</time></trkpt><trkpt lat="31.3817267" lon="-7.40859"><ele>1451.0</ele><time>2026-04-25T13:44:10.378Z</time></trkpt><trkpt lat="31.38185" lon="-7.408625"><ele>1451.0</ele><time>2026-04-25T13:44:11.378Z</time></trkpt><trkpt lat="31.381975" lon="-7.4086667"><ele>1451.0</ele><time>2026-04-25T13:44:12.378Z</time></trkpt><trkpt lat="31.3821067" lon="-7.4087483"><ele>1451.0</ele><time>2026-04-25T13:44:13.378Z</time></trkpt><trkpt lat="31.3822483" lon="-7.4088733"><ele>1452.3333333333335</ele><time>2026-04-25T13:44:14.378Z</time></trkpt><trkpt lat="31.3823867" lon="-7.409025"><ele>1453.6666666666667</ele><time>2026-04-25T13:44:15.378Z</time></trkpt><trkpt lat="31.382535" lon="-7.409215"><ele>1455.0</ele><time>2026-04-25T13:44:16.378Z</time></trkpt><trkpt lat="31.3826983" lon="-7.409355"><ele>1455.0</ele><time>2026-04-25T13:44:17.378Z</time></trkpt><trkpt lat="31.38288" lon="-7.40947"><ele>1455.0</ele><time>2026-04-25T13:44:18.378Z</time></trkpt><trkpt lat="31.3830733" lon="-7.4095367"><ele>1455.0</ele><time>2026-04-25T13:44:19.378Z</time></trkpt><trkpt lat="31.383285" lon="-7.4095733"><ele>1447.5</ele><time>2026-04-25T13:44:20.378Z</time></trkpt><trkpt lat="31.3835117" lon="-7.409575"><ele>1440.0</ele><time>2026-04-25T13:44:21.378Z</time></trkpt><trkpt lat="31.3837417" lon="-7.4095283"><ele>1438.5</ele><time>2026-04-25T13:44:22.378Z</time></trkpt><trkpt lat="31.38397" lon="-7.4094317"><ele>1437.0</ele><time>2026-04-25T13:44:23.378Z</time></trkpt><trkpt lat="31.384185" lon="-7.40931"><ele>1437.0</ele><time>2026-04-25T13:44:24.378Z</time></trkpt><trkpt lat="31.3843833" lon="-7.4091967"><ele>1437.0</ele><time>2026-04-25T13:44:25.378Z</time></trkpt><trkpt lat="31.38458" lon="-7.4090867"><ele>1437.0</ele><time>2026-04-25T13:44:26.378Z</time></trkpt><trkpt lat="31.3847733" lon="-7.4090017"><ele>1440.3333333333333</ele><time>2026-04-25T13:44:27.378Z</time></trkpt><trkpt lat="31.3849583" lon="-7.40895"><ele>1443.6666666666665</ele><time>2026-04-25T13:44:28.378Z</time></trkpt><trkpt lat="31.3851417" lon="-7.4089383"><ele>1447.0</ele><time>2026-04-25T13:44:29.378Z</time></trkpt><trkpt lat="31.38533" lon="-7.4089833"><ele>1441.0</ele><time>2026-04-25T13:44:30.378Z</time></trkpt><trkpt lat="31.38552" lon="-7.40908"><ele>1435.0</ele><time>2026-04-25T13:44:31.378Z</time></trkpt><trkpt lat="31.3857167" lon="-7.4091983"><ele>1429.0</ele><time>2026-04-25T13:44:32.378Z</time></trkpt><trkpt lat="31.3859067" lon="-7.4093017"><ele>1429.0</ele><time>2026-04-25T13:44:33.378Z</time></trkpt><trkpt lat="31.3860983" lon="-7.4093733"><ele>1429.0</ele><time>2026-04-25T13:44:34.378Z</time></trkpt><trkpt lat="31.3862917" lon="-7.4094"><ele>1429.0</ele><time>2026-04-25T13:44:35.378Z</time></trkpt><trkpt lat="31.3864717" lon="-7.4093817"><ele>1430.6666666666665</ele><time>2026-04-25T13:44:36.378Z</time></trkpt><trkpt lat="31.3866483" lon="-7.4093"><ele>1432.3333333333333</ele><time>2026-04-25T13:44:37.378Z</time></trkpt><trkpt lat="31.3868133" lon="-7.4091783"><ele>1434.0</ele><time>2026-04-25T13:44:38.378Z</time></trkpt><trkpt lat="31.3869633" lon="-7.4090317"><ele>1434.0</ele><time>2026-04-25T13:44:39.378Z</time></trkpt><trkpt lat="31.3871183" lon="-7.4089"><ele>1434.0</ele><time>2026-04-25T13:44:40.378Z</time></trkpt><trkpt lat="31.3872867" lon="-7.4088067"><ele>1434.0</ele><time>2026-04-25T13:44:41.378Z</time></trkpt><trkpt lat="31.3874517" lon="-7.4087367"><ele>1431.3333333333333</ele><time>2026-04-25T13:44:42.378Z</time></trkpt><trkpt lat="31.38762" lon="-7.4087383"><ele>1428.6666666666665</ele><time>2026-04-25T13:44:43.378Z</time></trkpt><trkpt lat="31.387775" lon="-7.408805"><ele>1426.0</ele><time>2026-04-25T13:44:44.379Z</time></trkpt><trkpt lat="31.3879217" lon="-7.4089283"><ele>1426.6666666666665</ele><time>2026-04-25T13:44:45.378Z</time></trkpt><trkpt lat="31.3880517" lon="-7.4090783"><ele>1427.3333333333333</ele><time>2026-04-25T13:44:46.378Z</time></trkpt><trkpt lat="31.3881867" lon="-7.409225"><ele>1428.0</ele><time>2026-04-25T13:44:47.378Z</time></trkpt><trkpt lat="31.3883283" lon="-7.409355"><ele>1428.0</ele><time>2026-04-25T13:44:48.378Z</time></trkpt><trkpt lat="31.3884733" lon="-7.40944"><ele>1428.0</ele><time>2026-04-25T13:44:49.379Z</time></trkpt><trkpt lat="31.38863" lon="-7.4094783"><ele>1428.0</ele><time>2026-04-25T13:44:50.378Z</time></trkpt><trkpt lat="31.3888017" lon="-7.409475"><ele>1427.0</ele><time>2026-04-25T13:44:51.378Z</time></trkpt><trkpt lat="31.3889717" lon="-7.409425"><ele>1426.0</ele><time>2026-04-25T13:44:52.378Z</time></trkpt><trkpt lat="31.3891217" lon="-7.4093217"><ele>1425.0</ele><time>2026-04-25T13:44:53.378Z</time></trkpt><trkpt lat="31.3892567" lon="-7.4091783"><ele>1425.0</ele><time>2026-04-25T13:44:54.378Z</time></trkpt><trkpt lat="31.389375" lon="-7.4089933"><ele>1425.0</ele><time>2026-04-25T13:44:55.378Z</time></trkpt><trkpt lat="31.3894883" lon="-7.408785"><ele>1425.0</ele><time>2026-04-25T13:44:56.378Z</time></trkpt><trkpt lat="31.3896183" lon="-7.40856"><ele>1424.5</ele><time>2026-04-25T13:44:57.378Z</time></trkpt><trkpt lat="31.389785" lon="-7.4083633"><ele>1424.0</ele><time>2026-04-25T13:44:58.378Z</time></trkpt><trkpt lat="31.389965" lon="-7.4081983"><ele>1424.0</ele><time>2026-04-25T13:44:59.378Z</time></trkpt><trkpt lat="31.390135" lon="-7.4080517"><ele>1424.0</ele><time>2026-04-25T13:45:00.378Z</time></trkpt><trkpt lat="31.3903033" lon="-7.40789"><ele>1424.0</ele><time>2026-04-25T13:45:01.378Z</time></trkpt><trkpt lat="31.3904433" lon="-7.40767"><ele>1431.0</ele><time>2026-04-25T13:45:02.378Z</time></trkpt><trkpt lat="31.3905717" lon="-7.40743"><ele>1438.0</ele><time>2026-04-25T13:45:03.378Z</time></trkpt><trkpt lat="31.3906867" lon="-7.4071733"><ele>1437.5</ele><time>2026-04-25T13:45:04.378Z</time></trkpt><trkpt lat="31.3907817" lon="-7.40691"><ele>1437.0</ele><time>2026-04-25T13:45:05.378Z</time></trkpt><trkpt lat="31.3908733" lon="-7.406665"><ele>1437.0</ele><time>2026-04-25T13:45:06.378Z</time></trkpt><trkpt lat="31.390955" lon="-7.4064317"><ele>1437.0</ele><time>2026-04-25T13:45:07.378Z</time></trkpt><trkpt lat="31.39104" lon="-7.4062233"><ele>1437.0</ele><time>2026-04-25T13:45:08.378Z</time></trkpt><trkpt lat="31.3911233" lon="-7.4060317"><ele>1429.6666666666667</ele><time>2026-04-25T13:45:09.378Z</time></trkpt><trkpt lat="31.3911867" lon="-7.40586"><ele>1422.3333333333335</ele><time>2026-04-25T13:45:10.378Z</time></trkpt><trkpt lat="31.3912167" lon="-7.4056917"><ele>1415.0</ele><time>2026-04-25T13:45:11.378Z</time></trkpt><trkpt lat="31.391225" lon="-7.4055217"><ele>1413.3333333333335</ele><time>2026-04-25T13:45:12.379Z</time></trkpt><trkpt lat="31.3912367" lon="-7.4053517"><ele>1411.6666666666667</ele><time>2026-04-25T13:45:13.378Z</time></trkpt><trkpt lat="31.3912617" lon="-7.4051817"><ele>1410.0</ele><time>2026-04-25T13:45:14.378Z</time></trkpt><trkpt lat="31.3913017" lon="-7.4050033"><ele>1410.0</ele><time>2026-04-25T13:45:15.378Z</time></trkpt><trkpt lat="31.39134" lon="-7.4048383"><ele>1410.0</ele><time>2026-04-25T13:45:16.378Z</time></trkpt><trkpt lat="31.3913833" lon="-7.4047067"><ele>1410.0</ele><time>2026-04-25T13:45:17.378Z</time></trkpt><trkpt lat="31.391445" lon="-7.4046167"><ele>1410.0</ele><time>2026-04-25T13:45:18.378Z</time></trkpt><trkpt lat="31.391525" lon="-7.4045683"><ele>1409.4</ele><time>2026-04-25T13:45:19.378Z</time></trkpt><trkpt lat="31.3916083" lon="-7.404555"><ele>1408.8</ele><time>2026-04-25T13:45:20.378Z</time></trkpt><trkpt lat="31.3916983" lon="-7.4045833"><ele>1408.1999999999998</ele><time>2026-04-25T13:45:21.378Z</time></trkpt><trkpt lat="31.3917933" lon="-7.4046417"><ele>1407.6</ele><time>2026-04-25T13:45:22.378Z</time></trkpt><trkpt lat="31.3919083" lon="-7.4046883"><ele>1407.0</ele><time>2026-04-25T13:45:23.378Z</time></trkpt><trkpt lat="31.392035" lon="-7.4047083"><ele>1407.0</ele><time>2026-04-25T13:45:24.378Z</time></trkpt><trkpt lat="31.3921617" lon="-7.4047033"><ele>1407.0</ele><time>2026-04-25T13:45:25.378Z</time></trkpt><trkpt lat="31.3922883" lon="-7.40469"><ele>1407.0</ele><time>2026-04-25T13:45:26.378Z</time></trkpt><trkpt lat="31.3924067" lon="-7.4046633"><ele>1407.0</ele><time>2026-04-25T13:45:27.378Z</time></trkpt><trkpt lat="31.39253" lon="-7.4045967"><ele>1407.0</ele><time>2026-04-25T13:45:28.378Z</time></trkpt><trkpt lat="31.3926567" lon="-7.4045"><ele>1407.0</ele><time>2026-04-25T13:45:29.378Z</time></trkpt><trkpt lat="31.3927767" lon="-7.4043833"><ele>1407.0</ele><time>2026-04-25T13:45:30.378Z</time></trkpt><trkpt lat="31.3928767" lon="-7.4042367"><ele>1407.0</ele><time>2026-04-25T13:45:31.378Z</time></trkpt><trkpt lat="31.3929483" lon="-7.4040633"><ele>1407.0</ele><time>2026-04-25T13:45:32.378Z</time></trkpt><trkpt lat="31.392985" lon="-7.4038567"><ele>1407.0</ele><time>2026-04-25T13:45:33.379Z</time></trkpt><trkpt lat="31.3929767" lon="-7.4036283"><ele>1405.6666666666667</ele><time>2026-04-25T13:45:34.378Z</time></trkpt><trkpt lat="31.3929333" lon="-7.4033917"><ele>1404.3333333333335</ele><time>2026-04-25T13:45:35.378Z</time></trkpt><trkpt lat="31.39287" lon="-7.4031333"><ele>1403.0</ele><time>2026-04-25T13:45:36.378Z</time></trkpt><trkpt lat="31.3927967" lon="-7.402895"><ele>1402.0</ele><time>2026-04-25T13:45:37.378Z</time></trkpt><trkpt lat="31.3927333" lon="-7.4026583"><ele>1401.0</ele><time>2026-04-25T13:45:38.378Z</time></trkpt><trkpt lat="31.3926783" lon="-7.4024367"><ele>1400.0</ele><time>2026-04-25T13:45:39.378Z</time></trkpt><trkpt lat="31.3926483" lon="-7.402235"><ele>1400.0</ele><time>2026-04-25T13:45:40.378Z</time></trkpt><trkpt lat="31.3926483" lon="-7.4020467"><ele>1400.0</ele><time>2026-04-25T13:45:41.378Z</time></trkpt><trkpt lat="31.392695" lon="-7.40185"><ele>1400.0</ele><time>2026-04-25T13:45:42.378Z</time></trkpt><trkpt lat="31.392775" lon="-7.401675"><ele>1400.0</ele><time>2026-04-25T13:45:43.378Z</time></trkpt><trkpt lat="31.3928933" lon="-7.4015183"><ele>1400.0</ele><time>2026-04-25T13:45:44.378Z</time></trkpt><trkpt lat="31.39305" lon="-7.4013767"><ele>1400.0</ele><time>2026-04-25T13:45:45.378Z</time></trkpt><trkpt lat="31.393245" lon="-7.4012667"><ele>1399.0</ele><time>2026-04-25T13:45:46.378Z</time></trkpt><trkpt lat="31.3934617" lon="-7.4011417"><ele>1398.0</ele><time>2026-04-25T13:45:47.378Z</time></trkpt><trkpt lat="31.3936817" lon="-7.401005"><ele>1406.5</ele><time>2026-04-25T13:45:48.378Z</time></trkpt><trkpt lat="31.3938767" lon="-7.4008467"><ele>1415.0</ele><time>2026-04-25T13:45:49.378Z</time></trkpt><trkpt lat="31.3940467" lon="-7.4006767"><ele>1415.0</ele><time>2026-04-25T13:45:50.378Z</time></trkpt><trkpt lat="31.3942033" lon="-7.4005233"><ele>1415.0</ele><time>2026-04-25T13:45:51.378Z</time></trkpt><trkpt lat="31.3943633" lon="-7.4003767"><ele>1415.0</ele><time>2026-04-25T13:45:52.378Z</time></trkpt><trkpt lat="31.3945517" lon="-7.4002733"><ele>1411.0</ele><time>2026-04-25T13:45:53.378Z</time></trkpt><trkpt lat="31.3947583" lon="-7.400205"><ele>1407.0</ele><time>2026-04-25T13:45:54.378Z</time></trkpt><trkpt lat="31.3949633" lon="-7.4001467"><ele>1403.0</ele><time>2026-04-25T13:45:55.378Z</time></trkpt><trkpt lat="31.3951483" lon="-7.400055"><ele>1403.0</ele><time>2026-04-25T13:45:56.378Z</time></trkpt><trkpt lat="31.39533" lon="-7.3999133"><ele>1403.0</ele><time>2026-04-25T13:45:57.379Z</time></trkpt><trkpt lat="31.3954883" lon="-7.399745"><ele>1403.0</ele><time>2026-04-25T13:45:58.378Z</time></trkpt><trkpt lat="31.3956233" lon="-7.39956"><ele>1402.3333333333335</ele><time>2026-04-25T13:45:59.378Z</time></trkpt><trkpt lat="31.39574" lon="-7.3993583"><ele>1401.6666666666667</ele><time>2026-04-25T13:46:00.378Z</time></trkpt><trkpt lat="31.3958567" lon="-7.399135"><ele>1401.0</ele><time>2026-04-25T13:46:01.378Z</time></trkpt><trkpt lat="31.3959533" lon="-7.3988883"><ele>1398.6666666666667</ele><time>2026-04-25T13:46:02.378Z</time></trkpt><trkpt lat="31.39604" lon="-7.39866"><ele>1396.3333333333335</ele><time>2026-04-25T13:46:03.379Z</time></trkpt><trkpt lat="31.39614" lon="-7.39847"><ele>1394.0</ele><time>2026-04-25T13:46:04.378Z</time></trkpt><trkpt lat="31.3962717" lon="-7.39831"><ele>1400.0</ele><time>2026-04-25T13:46:05.378Z</time></trkpt><trkpt lat="31.396445" lon="-7.3982017"><ele>1406.0</ele><time>2026-04-25T13:46:06.378Z</time></trkpt><trkpt lat="31.39665" lon="-7.398115"><ele>1412.0</ele><time>2026-04-25T13:46:07.378Z</time></trkpt><trkpt lat="31.3968617" lon="-7.3980383"><ele>1405.0</ele><time>2026-04-25T13:46:08.378Z</time></trkpt><trkpt lat="31.3970617" lon="-7.3979733"><ele>1398.0</ele><time>2026-04-25T13:46:09.378Z</time></trkpt><trkpt lat="31.3972533" lon="-7.3979367"><ele>1391.0</ele><time>2026-04-25T13:46:10.378Z</time></trkpt><trkpt lat="31.3974583" lon="-7.397945"><ele>1390.0</ele><time>2026-04-25T13:46:11.378Z</time></trkpt><trkpt lat="31.3976683" lon="-7.397975"><ele>1389.0</ele><time>2026-04-25T13:46:12.378Z</time></trkpt><trkpt lat="31.3978683" lon="-7.3979867"><ele>1388.0</ele><time>2026-04-25T13:46:13.378Z</time></trkpt><trkpt lat="31.3980667" lon="-7.3979517"><ele>1393.0</ele><time>2026-04-25T13:46:14.378Z</time></trkpt><trkpt lat="31.39827" lon="-7.3978617"><ele>1398.0</ele><time>2026-04-25T13:46:15.378Z</time></trkpt><trkpt lat="31.3984683" lon="-7.39772"><ele>1398.0</ele><time>2026-04-25T13:46:16.378Z</time></trkpt><trkpt lat="31.3986533" lon="-7.3975233"><ele>1398.0</ele><time>2026-04-25T13:46:17.378Z</time></trkpt><trkpt lat="31.39884" lon="-7.397305"><ele>1400.0</ele><time>2026-04-25T13:46:18.378Z</time></trkpt><trkpt lat="31.3990317" lon="-7.3970817"><ele>1402.0</ele><time>2026-04-25T13:46:19.378Z</time></trkpt><trkpt lat="31.39922" lon="-7.3968733"><ele>1402.0</ele><time>2026-04-25T13:46:20.378Z</time></trkpt><trkpt lat="31.399405" lon="-7.396665"><ele>1402.0</ele><time>2026-04-25T13:46:21.378Z</time></trkpt><trkpt lat="31.3995967" lon="-7.39645"><ele>1399.0</ele><time>2026-04-25T13:46:22.378Z</time></trkpt><trkpt lat="31.399785" lon="-7.3962367"><ele>1396.0</ele><time>2026-04-25T13:46:23.378Z</time></trkpt><trkpt lat="31.3999633" lon="-7.3960333"><ele>1396.0</ele><time>2026-04-25T13:46:24.378Z</time></trkpt><trkpt lat="31.400135" lon="-7.395835"><ele>1396.0</ele><time>2026-04-25T13:46:25.378Z</time></trkpt><trkpt lat="31.4002917" lon="-7.3956483"><ele>1392.3333333333333</ele><time>2026-04-25T13:46:26.378Z</time></trkpt><trkpt lat="31.4004417" lon="-7.3954733"><ele>1388.6666666666667</ele><time>2026-04-25T13:46:27.378Z</time></trkpt><trkpt lat="31.4005933" lon="-7.3953317"><ele>1385.0</ele><time>2026-04-25T13:46:28.378Z</time></trkpt><trkpt lat="31.4007567" lon="-7.3952383"><ele>1385.0</ele><time>2026-04-25T13:46:29.378Z</time></trkpt><trkpt lat="31.4009233" lon="-7.39519"><ele>1385.0</ele><time>2026-04-25T13:46:30.378Z</time></trkpt><trkpt lat="31.4011" lon="-7.3951983"><ele>1385.0</ele><time>2026-04-25T13:46:31.378Z</time></trkpt><trkpt lat="31.40128" lon="-7.3952667"><ele>1387.0</ele><time>2026-04-25T13:46:32.378Z</time></trkpt><trkpt lat="31.40148" lon="-7.39538"><ele>1389.0</ele><time>2026-04-25T13:46:33.378Z</time></trkpt><trkpt lat="31.4017017" lon="-7.39551"><ele>1389.0</ele><time>2026-04-25T13:46:34.378Z</time></trkpt><trkpt lat="31.4019367" lon="-7.3956383"><ele>1389.0</ele><time>2026-04-25T13:46:35.378Z</time></trkpt><trkpt lat="31.4021633" lon="-7.395765"><ele>1381.0</ele><time>2026-04-25T13:46:36.378Z</time></trkpt><trkpt lat="31.40237" lon="-7.3958917"><ele>1373.0</ele><time>2026-04-25T13:46:37.378Z</time></trkpt><trkpt lat="31.4025733" lon="-7.3960117"><ele>1373.0</ele><time>2026-04-25T13:46:38.378Z</time></trkpt><trkpt lat="31.40276" lon="-7.3961033"><ele>1373.0</ele><time>2026-04-25T13:46:39.378Z</time></trkpt><trkpt lat="31.4029417" lon="-7.3961583"><ele>1373.0</ele><time>2026-04-25T13:46:40.378Z</time></trkpt><trkpt lat="31.4031233" lon="-7.396175"><ele>1373.3333333333335</ele><time>2026-04-25T13:46:41.378Z</time></trkpt><trkpt lat="31.4032883" lon="-7.3961433"><ele>1373.6666666666667</ele><time>2026-04-25T13:46:42.378Z</time></trkpt><trkpt lat="31.4034483" lon="-7.3960517"><ele>1374.0</ele><time>2026-04-25T13:46:43.378Z</time></trkpt><trkpt lat="31.4035917" lon="-7.3959167"><ele>1374.0</ele><time>2026-04-25T13:46:44.378Z</time></trkpt><trkpt lat="31.40372" lon="-7.3957633"><ele>1374.0</ele><time>2026-04-25T13:46:45.378Z</time></trkpt><trkpt lat="31.40385" lon="-7.39562"><ele>1374.0</ele><time>2026-04-25T13:46:46.378Z</time></trkpt><trkpt lat="31.4039883" lon="-7.3955083"><ele>1373.0</ele><time>2026-04-25T13:46:47.378Z</time></trkpt><trkpt lat="31.4041333" lon="-7.3954233"><ele>1372.0</ele><time>2026-04-25T13:46:48.378Z</time></trkpt><trkpt lat="31.4042733" lon="-7.3953783"><ele>1371.0</ele><time>2026-04-25T13:46:49.378Z</time></trkpt><trkpt lat="31.404415" lon="-7.3953833"><ele>1370.0</ele><time>2026-04-25T13:46:50.378Z</time></trkpt><trkpt lat="31.40455" lon="-7.3954283"><ele>1372.6666666666667</ele><time>2026-04-25T13:46:51.378Z</time></trkpt><trkpt lat="31.4046917" lon="-7.3955167"><ele>1375.3333333333333</ele><time>2026-04-25T13:46:52.378Z</time></trkpt><trkpt lat="31.4048467" lon="-7.39563"><ele>1378.0</ele><time>2026-04-25T13:46:53.378Z</time></trkpt><trkpt lat="31.405" lon="-7.395745"><ele>1378.0</ele><time>2026-04-25T13:46:54.378Z</time></trkpt><trkpt lat="31.405135" lon="-7.3958483"><ele>1378.0</ele><time>2026-04-25T13:46:55.378Z</time></trkpt><trkpt lat="31.4052617" lon="-7.39595"><ele>1378.0</ele><time>2026-04-25T13:46:56.378Z</time></trkpt><trkpt lat="31.405385" lon="-7.39604"><ele>1374.0</ele><time>2026-04-25T13:46:57.378Z</time></trkpt><trkpt lat="31.405505" lon="-7.3961233"><ele>1370.0</ele><time>2026-04-25T13:46:58.379Z</time></trkpt><trkpt lat="31.4056217" lon="-7.3961983"><ele>1366.0</ele><time>2026-04-25T13:46:59.378Z</time></trkpt><trkpt lat="31.4057383" lon="-7.3962683"><ele>1362.0</ele><time>2026-04-25T13:47:00.378Z</time></trkpt><trkpt lat="31.405845" lon="-7.3963283"><ele>1362.0</ele><time>2026-04-25T13:47:01.378Z</time></trkpt><trkpt lat="31.4059617" lon="-7.396355"><ele>1362.0</ele><time>2026-04-25T13:47:02.378Z</time></trkpt><trkpt lat="31.4060767" lon="-7.39636"><ele>1362.0</ele><time>2026-04-25T13:47:03.378Z</time></trkpt><trkpt lat="31.4061867" lon="-7.3963533"><ele>1362.0</ele><time>2026-04-25T13:47:04.378Z</time></trkpt><trkpt lat="31.4062833" lon="-7.3963267"><ele>1362.0</ele><time>2026-04-25T13:47:05.378Z</time></trkpt><trkpt lat="31.4063817" lon="-7.3962783"><ele>1366.6</ele><time>2026-04-25T13:47:06.378Z</time></trkpt><trkpt lat="31.4064767" lon="-7.39621"><ele>1371.1999999999998</ele><time>2026-04-25T13:47:07.378Z</time></trkpt><trkpt lat="31.4065617" lon="-7.3961267"><ele>1375.8</ele><time>2026-04-25T13:47:08.378Z</time></trkpt><trkpt lat="31.4066283" lon="-7.396035"><ele>1380.4</ele><time>2026-04-25T13:47:09.378Z</time></trkpt><trkpt lat="31.4066933" lon="-7.3959267"><ele>1385.0</ele><time>2026-04-25T13:47:10.378Z</time></trkpt><trkpt lat="31.40675" lon="-7.3958"><ele>1385.0</ele><time>2026-04-25T13:47:11.378Z</time></trkpt><trkpt lat="31.4068" lon="-7.39565"><ele>1385.0</ele><time>2026-04-25T13:47:12.377Z</time></trkpt><trkpt lat="31.4068233" lon="-7.3954983"><ele>1385.0</ele><time>2026-04-25T13:47:13.377Z</time></trkpt><trkpt lat="31.40682" lon="-7.3953483"><ele>1385.0</ele><time>2026-04-25T13:47:14.377Z</time></trkpt><trkpt lat="31.406795" lon="-7.395205"><ele>1383.5</ele><time>2026-04-25T13:47:15.377Z</time></trkpt><trkpt lat="31.4067433" lon="-7.3950567"><ele>1382.0</ele><time>2026-04-25T13:47:16.377Z</time></trkpt><trkpt lat="31.406695" lon="-7.394905"><ele>1380.5</ele><time>2026-04-25T13:47:17.377Z</time></trkpt><trkpt lat="31.40665" lon="-7.394755"><ele>1379.0</ele><time>2026-04-25T13:47:18.377Z</time></trkpt><trkpt lat="31.4066067" lon="-7.394605"><ele>1378.5</ele><time>2026-04-25T13:47:19.377Z</time></trkpt><trkpt lat="31.4065633" lon="-7.3944567"><ele>1378.0</ele><time>2026-04-25T13:47:20.377Z</time></trkpt><trkpt lat="31.406525" lon="-7.394315"><ele>1377.5</ele><time>2026-04-25T13:47:21.377Z</time></trkpt><trkpt lat="31.4065033" lon="-7.39417"><ele>1377.0</ele><time>2026-04-25T13:47:22.377Z</time></trkpt><trkpt lat="31.4065" lon="-7.3940267"><ele>1377.0</ele><time>2026-04-25T13:47:23.377Z</time></trkpt><trkpt lat="31.4065233" lon="-7.3938817"><ele>1377.0</ele><time>2026-04-25T13:47:24.377Z</time></trkpt><trkpt lat="31.4065867" lon="-7.3937283"><ele>1377.0</ele><time>2026-04-25T13:47:25.377Z</time></trkpt><trkpt lat="31.4066917" lon="-7.3935567"><ele>1374.0</ele><time>2026-04-25T13:47:26.377Z</time></trkpt><trkpt lat="31.4068283" lon="-7.3933517"><ele>1371.0</ele><time>2026-04-25T13:47:27.377Z</time></trkpt><trkpt lat="31.4069467" lon="-7.393125"><ele>1368.0</ele><time>2026-04-25T13:47:28.377Z</time></trkpt><trkpt lat="31.4070867" lon="-7.3929333"><ele>1371.5</ele><time>2026-04-25T13:47:29.377Z</time></trkpt><trkpt lat="31.4072683" lon="-7.3927467"><ele>1375.0</ele><time>2026-04-25T13:47:30.377Z</time></trkpt><trkpt lat="31.407475" lon="-7.3925567"><ele>1375.0</ele><time>2026-04-25T13:47:31.378Z</time></trkpt><trkpt lat="31.4076833" lon="-7.3923933"><ele>1375.0</ele><time>2026-04-25T13:47:32.377Z</time></trkpt><trkpt lat="31.4078867" lon="-7.3922433"><ele>1372.0</ele><time>2026-04-25T13:47:33.377Z</time></trkpt><trkpt lat="31.4080867" lon="-7.3921"><ele>1369.0</ele><time>2026-04-25T13:47:34.377Z</time></trkpt><trkpt lat="31.40828" lon="-7.3919717"><ele>1369.0</ele><time>2026-04-25T13:47:35.377Z</time></trkpt><trkpt lat="31.4084533" lon="-7.3918567"><ele>1369.0</ele><time>2026-04-25T13:47:36.377Z</time></trkpt><trkpt lat="31.40861" lon="-7.391755"><ele>1369.0</ele><time>2026-04-25T13:47:37.377Z</time></trkpt><trkpt lat="31.408765" lon="-7.3916833"><ele>1372.3333333333333</ele><time>2026-04-25T13:47:38.377Z</time></trkpt><trkpt lat="31.4089417" lon="-7.3916517"><ele>1375.6666666666667</ele><time>2026-04-25T13:47:39.378Z</time></trkpt><trkpt lat="31.40912" lon="-7.3916583"><ele>1379.0</ele><time>2026-04-25T13:47:40.377Z</time></trkpt><trkpt lat="31.409285" lon="-7.39172"><ele>1379.0</ele><time>2026-04-25T13:47:41.377Z</time></trkpt><trkpt lat="31.4094567" lon="-7.3918133"><ele>1379.0</ele><time>2026-04-25T13:47:42.377Z</time></trkpt><trkpt lat="31.4096417" lon="-7.391935"><ele>1379.0</ele><time>2026-04-25T13:47:43.377Z</time></trkpt><trkpt lat="31.4098183" lon="-7.39203"><ele>1373.3333333333335</ele><time>2026-04-25T13:47:44.377Z</time></trkpt><trkpt lat="31.4099833" lon="-7.3921033"><ele>1367.6666666666667</ele><time>2026-04-25T13:47:45.377Z</time></trkpt><trkpt lat="31.4101517" lon="-7.3921417"><ele>1362.0</ele><time>2026-04-25T13:47:46.377Z</time></trkpt><trkpt lat="31.410335" lon="-7.39212"><ele>1364.6666666666667</ele><time>2026-04-25T13:47:47.377Z</time></trkpt><trkpt lat="31.4105333" lon="-7.3920383"><ele>1367.3333333333335</ele><time>2026-04-25T13:47:48.377Z</time></trkpt><trkpt lat="31.4107433" lon="-7.3919167"><ele>1370.0</ele><time>2026-04-25T13:47:49.377Z</time></trkpt><trkpt lat="31.4109683" lon="-7.39178"><ele>1370.0</ele><time>2026-04-25T13:47:50.377Z</time></trkpt><trkpt lat="31.411215" lon="-7.3916467"><ele>1370.0</ele><time>2026-04-25T13:47:51.377Z</time></trkpt><trkpt lat="31.411465" lon="-7.3915133"><ele>1371.0</ele><time>2026-04-25T13:47:52.377Z</time></trkpt><trkpt lat="31.4117017" lon="-7.39138"><ele>1372.0</ele><time>2026-04-25T13:47:53.377Z</time></trkpt><trkpt lat="31.4119217" lon="-7.3912467"><ele>1372.0</ele><time>2026-04-25T13:47:54.377Z</time></trkpt><trkpt lat="31.4121167" lon="-7.39113"><ele>1372.0</ele><time>2026-04-25T13:47:55.377Z</time></trkpt><trkpt lat="31.4122933" lon="-7.3910567"><ele>1372.0</ele><time>2026-04-25T13:47:56.377Z</time></trkpt><trkpt lat="31.412455" lon="-7.39102"><ele>1370.6666666666665</ele><time>2026-04-25T13:47:57.377Z</time></trkpt><trkpt lat="31.4126067" lon="-7.3910317"><ele>1369.3333333333333</ele><time>2026-04-25T13:47:58.377Z</time></trkpt><trkpt lat="31.4127783" lon="-7.3910933"><ele>1368.0</ele><time>2026-04-25T13:47:59.377Z</time></trkpt><trkpt lat="31.41295" lon="-7.3911817"><ele>1373.0</ele><time>2026-04-25T13:48:00.377Z</time></trkpt><trkpt lat="31.4131183" lon="-7.391265"><ele>1378.0</ele><time>2026-04-25T13:48:01.377Z</time></trkpt><trkpt lat="31.4132767" lon="-7.391345"><ele>1383.0</ele><time>2026-04-25T13:48:02.377Z</time></trkpt><trkpt lat="31.4134383" lon="-7.3914233"><ele>1383.0</ele><time>2026-04-25T13:48:03.377Z</time></trkpt><trkpt lat="31.41361" lon="-7.3914883"><ele>1383.0</ele><time>2026-04-25T13:48:04.377Z</time></trkpt><trkpt lat="31.4138067" lon="-7.3915367"><ele>1383.0</ele><time>2026-04-25T13:48:05.377Z</time></trkpt><trkpt lat="31.4140383" lon="-7.391555"><ele>1378.0</ele><time>2026-04-25T13:48:06.377Z</time></trkpt><trkpt lat="31.4142867" lon="-7.3915583"><ele>1373.0</ele><time>2026-04-25T13:48:07.377Z</time></trkpt><trkpt lat="31.414545" lon="-7.3915233"><ele>1370.0</ele><time>2026-04-25T13:48:08.377Z</time></trkpt><trkpt lat="31.4147883" lon="-7.39147"><ele>1367.0</ele><time>2026-04-25T13:48:09.377Z</time></trkpt><trkpt lat="31.4149983" lon="-7.3914583"><ele>1367.0</ele><time>2026-04-25T13:48:10.377Z</time></trkpt><trkpt lat="31.4151867" lon="-7.3914783"><ele>1367.0</ele><time>2026-04-25T13:48:11.377Z</time></trkpt><trkpt lat="31.4153567" lon="-7.3915433"><ele>1367.0</ele><time>2026-04-25T13:48:12.377Z</time></trkpt><trkpt lat="31.4155133" lon="-7.3916583"><ele>1356.3333333333335</ele><time>2026-04-25T13:48:13.377Z</time></trkpt><trkpt lat="31.4156233" lon="-7.391795"><ele>1345.6666666666667</ele><time>2026-04-25T13:48:14.377Z</time></trkpt><trkpt lat="31.4157067" lon="-7.39196"><ele>1335.0</ele><time>2026-04-25T13:48:15.377Z</time></trkpt><trkpt lat="31.415755" lon="-7.3921467"><ele>1335.0</ele><time>2026-04-25T13:48:16.377Z</time></trkpt><trkpt lat="31.4157683" lon="-7.392345"><ele>1335.0</ele><time>2026-04-25T13:48:17.378Z</time></trkpt><trkpt lat="31.4157433" lon="-7.392545"><ele>1335.0</ele><time>2026-04-25T13:48:18.377Z</time></trkpt><trkpt lat="31.4156767" lon="-7.3927417"><ele>1335.0</ele><time>2026-04-25T13:48:19.377Z</time></trkpt><trkpt lat="31.4155667" lon="-7.3929383"><ele>1335.0</ele><time>2026-04-25T13:48:20.377Z</time></trkpt><trkpt lat="31.415415" lon="-7.3931533"><ele>1335.0</ele><time>2026-04-25T13:48:21.378Z</time></trkpt><trkpt lat="31.41523" lon="-7.3933733"><ele>1346.5</ele><time>2026-04-25T13:48:22.377Z</time></trkpt><trkpt lat="31.4150567" lon="-7.393595"><ele>1358.0</ele><time>2026-04-25T13:48:23.377Z</time></trkpt><trkpt lat="31.4149083" lon="-7.3938167"><ele>1341.5</ele><time>2026-04-25T13:48:24.377Z</time></trkpt><trkpt lat="31.414795" lon="-7.39406"><ele>1325.0</ele><time>2026-04-25T13:48:25.378Z</time></trkpt><trkpt lat="31.41473" lon="-7.3943133"><ele>1325.0</ele><time>2026-04-25T13:48:26.377Z</time></trkpt><trkpt lat="31.414695" lon="-7.3945517"><ele>1325.0</ele><time>2026-04-25T13:48:27.377Z</time></trkpt><trkpt lat="31.4146617" lon="-7.3947717"><ele>1325.0</ele><time>2026-04-25T13:48:28.377Z</time></trkpt><trkpt lat="31.4146067" lon="-7.3949717"><ele>1332.3333333333335</ele><time>2026-04-25T13:48:29.377Z</time></trkpt><trkpt lat="31.4145117" lon="-7.3951483"><ele>1339.6666666666667</ele><time>2026-04-25T13:48:30.377Z</time></trkpt><trkpt lat="31.4143617" lon="-7.395305"><ele>1347.0</ele><time>2026-04-25T13:48:31.377Z</time></trkpt><trkpt lat="31.41418" lon="-7.395435"><ele>1348.3333333333333</ele><time>2026-04-25T13:48:32.377Z</time></trkpt><trkpt lat="31.4139767" lon="-7.395555"><ele>1349.6666666666665</ele><time>2026-04-25T13:48:33.377Z</time></trkpt><trkpt lat="31.413805" lon="-7.3956967"><ele>1351.0</ele><time>2026-04-25T13:48:34.377Z</time></trkpt><trkpt lat="31.4136533" lon="-7.3958633"><ele>1351.0</ele><time>2026-04-25T13:48:35.377Z</time></trkpt><trkpt lat="31.4135233" lon="-7.39606"><ele>1351.0</ele><time>2026-04-25T13:48:36.377Z</time></trkpt><trkpt lat="31.4134267" lon="-7.3962917"><ele>1351.0</ele><time>2026-04-25T13:48:37.378Z</time></trkpt><trkpt lat="31.41337" lon="-7.3965367"><ele>1338.5</ele><time>2026-04-25T13:48:38.377Z</time></trkpt><trkpt lat="31.4133683" lon="-7.3968"><ele>1326.0</ele><time>2026-04-25T13:48:39.377Z</time></trkpt><trkpt lat="31.4134167" lon="-7.397075"><ele>1328.5</ele><time>2026-04-25T13:48:40.377Z</time></trkpt><trkpt lat="31.413505" lon="-7.3973733"><ele>1331.0</ele><time>2026-04-25T13:48:41.377Z</time></trkpt><trkpt lat="31.41361" lon="-7.3976783"><ele>1331.0</ele><time>2026-04-25T13:48:42.377Z</time></trkpt><trkpt lat="31.4137033" lon="-7.39798"><ele>1331.0</ele><time>2026-04-25T13:48:43.377Z</time></trkpt><trkpt lat="31.4137833" lon="-7.398265"><ele>1330.0</ele><time>2026-04-25T13:48:44.377Z</time></trkpt><trkpt lat="31.41387" lon="-7.3985183"><ele>1329.0</ele><time>2026-04-25T13:48:45.377Z</time></trkpt><trkpt lat="31.4139633" lon="-7.398735"><ele>1328.0</ele><time>2026-04-25T13:48:46.377Z</time></trkpt><trkpt lat="31.41409" lon="-7.39892"><ele>1328.0</ele><time>2026-04-25T13:48:47.377Z</time></trkpt><trkpt lat="31.414245" lon="-7.399075"><ele>1328.0</ele><time>2026-04-25T13:48:48.377Z</time></trkpt><trkpt lat="31.4143933" lon="-7.3992283"><ele>1328.0</ele><time>2026-04-25T13:48:49.377Z</time></trkpt><trkpt lat="31.4145117" lon="-7.3993967"><ele>1328.0</ele><time>2026-04-25T13:48:50.377Z</time></trkpt><trkpt lat="31.4145933" lon="-7.3995767"><ele>1328.0</ele><time>2026-04-25T13:48:51.378Z</time></trkpt><trkpt lat="31.4146333" lon="-7.3997783"><ele>1328.0</ele><time>2026-04-25T13:48:52.377Z</time></trkpt><trkpt lat="31.4146367" lon="-7.4"><ele>1341.0</ele><time>2026-04-25T13:48:53.377Z</time></trkpt><trkpt lat="31.4146083" lon="-7.4002583"><ele>1354.0</ele><time>2026-04-25T13:48:54.377Z</time></trkpt><trkpt lat="31.4145867" lon="-7.40053"><ele>1354.0</ele><time>2026-04-25T13:48:55.377Z</time></trkpt><trkpt lat="31.41461" lon="-7.400775"><ele>1354.0</ele><time>2026-04-25T13:48:56.378Z</time></trkpt><trkpt lat="31.4147" lon="-7.4009967"><ele>1354.0</ele><time>2026-04-25T13:48:57.377Z</time></trkpt><trkpt lat="31.4148417" lon="-7.4012217"><ele>1338.0</ele><time>2026-04-25T13:48:58.377Z</time></trkpt><trkpt lat="31.4150183" lon="-7.40145"><ele>1322.0</ele><time>2026-04-25T13:48:59.377Z</time></trkpt><trkpt lat="31.4152183" lon="-7.4017033"><ele>1322.0</ele><time>2026-04-25T13:49:00.378Z</time></trkpt><trkpt lat="31.4154133" lon="-7.4019817"><ele>1322.0</ele><time>2026-04-25T13:49:01.377Z</time></trkpt><trkpt lat="31.41559" lon="-7.4022617"><ele>1312.0</ele><time>2026-04-25T13:49:02.377Z</time></trkpt><trkpt lat="31.41576" lon="-7.40252"><ele>1302.0</ele><time>2026-04-25T13:49:03.377Z</time></trkpt><trkpt lat="31.41592" lon="-7.4027633"><ele>1302.0</ele><time>2026-04-25T13:49:04.377Z</time></trkpt><trkpt lat="31.4160867" lon="-7.4029817"><ele>1302.0</ele><time>2026-04-25T13:49:05.377Z</time></trkpt><trkpt lat="31.4162567" lon="-7.4031583"><ele>1304.6666666666667</ele><time>2026-04-25T13:49:06.377Z</time></trkpt><trkpt lat="31.41644" lon="-7.40329"><ele>1307.3333333333335</ele><time>2026-04-25T13:49:07.378Z</time></trkpt><trkpt lat="31.416645" lon="-7.4033733"><ele>1310.0</ele><time>2026-04-25T13:49:08.377Z</time></trkpt><trkpt lat="31.4168517" lon="-7.40343"><ele>1310.0</ele><time>2026-04-25T13:49:09.377Z</time></trkpt><trkpt lat="31.4170383" lon="-7.4034833"><ele>1310.0</ele><time>2026-04-25T13:49:10.377Z</time></trkpt><trkpt lat="31.4172167" lon="-7.403535"><ele>1310.0</ele><time>2026-04-25T13:49:11.377Z</time></trkpt><trkpt lat="31.4173717" lon="-7.4036117"><ele>1308.0</ele><time>2026-04-25T13:49:12.377Z</time></trkpt><trkpt lat="31.4175233" lon="-7.403725"><ele>1306.0</ele><time>2026-04-25T13:49:13.377Z</time></trkpt><trkpt lat="31.4176367" lon="-7.40387"><ele>1304.0</ele><time>2026-04-25T13:49:14.377Z</time></trkpt><trkpt lat="31.4177217" lon="-7.4040383"><ele>1311.0</ele><time>2026-04-25T13:49:15.377Z</time></trkpt><trkpt lat="31.41776" lon="-7.4042267"><ele>1318.0</ele><time>2026-04-25T13:49:16.377Z</time></trkpt><trkpt lat="31.4177583" lon="-7.4044483"><ele>1325.0</ele><time>2026-04-25T13:49:17.377Z</time></trkpt><trkpt lat="31.4177533" lon="-7.4046733"><ele>1325.0</ele><time>2026-04-25T13:49:18.377Z</time></trkpt><trkpt lat="31.41774" lon="-7.40489"><ele>1325.0</ele><time>2026-04-25T13:49:19.377Z</time></trkpt><trkpt lat="31.4177517" lon="-7.4050817"><ele>1325.0</ele><time>2026-04-25T13:49:20.377Z</time></trkpt><trkpt lat="31.4177583" lon="-7.40525"><ele>1325.0</ele><time>2026-04-25T13:49:21.377Z</time></trkpt><trkpt lat="31.4177717" lon="-7.405395"><ele>1325.0</ele><time>2026-04-25T13:49:22.377Z</time></trkpt><trkpt lat="31.4177983" lon="-7.4055283"><ele>1325.0</ele><time>2026-04-25T13:49:23.377Z</time></trkpt><trkpt lat="31.41784" lon="-7.4056483"><ele>1325.0</ele><time>2026-04-25T13:49:24.377Z</time></trkpt><trkpt lat="31.417905" lon="-7.40577"><ele>1328.75</ele><time>2026-04-25T13:49:25.377Z</time></trkpt><trkpt lat="31.4179817" lon="-7.40588"><ele>1332.5</ele><time>2026-04-25T13:49:26.377Z</time></trkpt><trkpt lat="31.4180867" lon="-7.4059733"><ele>1336.25</ele><time>2026-04-25T13:49:27.377Z</time></trkpt><trkpt lat="31.4182217" lon="-7.4060467"><ele>1340.0</ele><time>2026-04-25T13:49:28.377Z</time></trkpt><trkpt lat="31.418385" lon="-7.4061167"><ele>1333.3333333333335</ele><time>2026-04-25T13:49:29.377Z</time></trkpt><trkpt lat="31.4185683" lon="-7.4061883"><ele>1326.6666666666667</ele><time>2026-04-25T13:49:30.377Z</time></trkpt><trkpt lat="31.418785" lon="-7.4062583"><ele>1320.0</ele><time>2026-04-25T13:49:31.377Z</time></trkpt><trkpt lat="31.419" lon="-7.4063283"><ele>1320.0</ele><time>2026-04-25T13:49:32.377Z</time></trkpt><trkpt lat="31.4192083" lon="-7.406395"><ele>1320.0</ele><time>2026-04-25T13:49:33.377Z</time></trkpt><trkpt lat="31.41941" lon="-7.4064333"><ele>1320.0</ele><time>2026-04-25T13:49:34.377Z</time></trkpt><trkpt lat="31.4196067" lon="-7.4064233"><ele>1321.6666666666667</ele><time>2026-04-25T13:49:35.377Z</time></trkpt><trkpt lat="31.4198167" lon="-7.4063583"><ele>1323.3333333333335</ele><time>2026-04-25T13:49:36.377Z</time></trkpt><trkpt lat="31.4200133" lon="-7.4062717"><ele>1325.0</ele><time>2026-04-25T13:49:37.377Z</time></trkpt><trkpt lat="31.4202033" lon="-7.4061917"><ele>1316.0</ele><time>2026-04-25T13:49:38.377Z</time></trkpt><trkpt lat="31.420385" lon="-7.406145"><ele>1307.0</ele><time>2026-04-25T13:49:39.378Z</time></trkpt><trkpt lat="31.420555" lon="-7.40613"><ele>1298.0</ele><time>2026-04-25T13:49:40.377Z</time></trkpt><trkpt lat="31.4207217" lon="-7.4061767"><ele>1298.0</ele><time>2026-04-25T13:49:41.377Z</time></trkpt><trkpt lat="31.420875" lon="-7.40628"><ele>1298.0</ele><time>2026-04-25T13:49:42.377Z</time></trkpt><trkpt lat="31.421" lon="-7.4064233"><ele>1298.0</ele><time>2026-04-25T13:49:43.378Z</time></trkpt><trkpt lat="31.4211033" lon="-7.4065983"><ele>1299.0</ele><time>2026-04-25T13:49:44.377Z</time></trkpt><trkpt lat="31.4211717" lon="-7.406805"><ele>1300.0</ele><time>2026-04-25T13:49:45.377Z</time></trkpt><trkpt lat="31.4212367" lon="-7.4070233"><ele>1301.0</ele><time>2026-04-25T13:49:46.377Z</time></trkpt><trkpt lat="31.4212767" lon="-7.4072633"><ele>1297.0</ele><time>2026-04-25T13:49:47.377Z</time></trkpt><trkpt lat="31.421365" lon="-7.4074517"><ele>1293.0</ele><time>2026-04-25T13:49:48.377Z</time></trkpt><trkpt lat="31.421485" lon="-7.4076017"><ele>1289.0</ele><time>2026-04-25T13:49:49.377Z</time></trkpt><trkpt lat="31.4216433" lon="-7.4077083"><ele>1289.0</ele><time>2026-04-25T13:49:50.377Z</time></trkpt><trkpt lat="31.42182" lon="-7.407775"><ele>1289.0</ele><time>2026-04-25T13:49:51.377Z</time></trkpt><trkpt lat="31.4219983" lon="-7.4077983"><ele>1289.0</ele><time>2026-04-25T13:49:52.377Z</time></trkpt><trkpt lat="31.42218" lon="-7.4078217"><ele>1288.0</ele><time>2026-04-25T13:49:53.377Z</time></trkpt><trkpt lat="31.4223717" lon="-7.407845"><ele>1287.0</ele><time>2026-04-25T13:49:54.378Z</time></trkpt><trkpt lat="31.4225567" lon="-7.4078733"><ele>1286.0</ele><time>2026-04-25T13:49:55.377Z</time></trkpt><trkpt lat="31.4227383" lon="-7.4079367"><ele>1291.5</ele><time>2026-04-25T13:49:56.377Z</time></trkpt><trkpt lat="31.4229533" lon="-7.408035"><ele>1297.0</ele><time>2026-04-25T13:49:57.377Z</time></trkpt><trkpt lat="31.4232117" lon="-7.4081717"><ele>1297.0</ele><time>2026-04-25T13:49:58.377Z</time></trkpt><trkpt lat="31.4235017" lon="-7.4083333"><ele>1297.0</ele><time>2026-04-25T13:49:59.377Z</time></trkpt><trkpt lat="31.423785" lon="-7.4084833"><ele>1289.5</ele><time>2026-04-25T13:50:00.377Z</time></trkpt><trkpt lat="31.42405" lon="-7.4086017"><ele>1282.0</ele><time>2026-04-25T13:50:01.377Z</time></trkpt><trkpt lat="31.4242933" lon="-7.4087133"><ele>1282.5</ele><time>2026-04-25T13:50:02.377Z</time></trkpt><trkpt lat="31.4245267" lon="-7.4088333"><ele>1283.0</ele><time>2026-04-25T13:50:03.377Z</time></trkpt><trkpt lat="31.4247417" lon="-7.4089467"><ele>1283.0</ele><time>2026-04-25T13:50:04.377Z</time></trkpt><trkpt lat="31.4249317" lon="-7.4090483"><ele>1283.0</ele><time>2026-04-25T13:50:05.377Z</time></trkpt><trkpt lat="31.4251017" lon="-7.4091717"><ele>1283.0</ele><time>2026-04-25T13:50:06.377Z</time></trkpt><trkpt lat="31.425235" lon="-7.4093067"><ele>1283.0</ele><time>2026-04-25T13:50:07.377Z</time></trkpt><trkpt lat="31.425335" lon="-7.4094583"><ele>1283.0</ele><time>2026-04-25T13:50:08.377Z</time></trkpt><trkpt lat="31.4253933" lon="-7.40963"><ele>1283.0</ele><time>2026-04-25T13:50:09.377Z</time></trkpt><trkpt lat="31.42541" lon="-7.4098217"><ele>1287.3333333333335</ele><time>2026-04-25T13:50:10.378Z</time></trkpt><trkpt lat="31.4253883" lon="-7.410015"><ele>1291.6666666666667</ele><time>2026-04-25T13:50:11.377Z</time></trkpt><trkpt lat="31.4253567" lon="-7.4102"><ele>1296.0</ele><time>2026-04-25T13:50:12.377Z</time></trkpt><trkpt lat="31.4253383" lon="-7.4103783"><ele>1299.5</ele><time>2026-04-25T13:50:13.377Z</time></trkpt><trkpt lat="31.4253317" lon="-7.4105467"><ele>1303.0</ele><time>2026-04-25T13:50:14.377Z</time></trkpt><trkpt lat="31.4253417" lon="-7.4106967"><ele>1306.5</ele><time>2026-04-25T13:50:15.377Z</time></trkpt><trkpt lat="31.4253883" lon="-7.41084"><ele>1310.0</ele><time>2026-04-25T13:50:16.377Z</time></trkpt><trkpt lat="31.425475" lon="-7.410955"><ele>1302.75</ele><time>2026-04-25T13:50:17.377Z</time></trkpt><trkpt lat="31.4255867" lon="-7.4110267"><ele>1295.5</ele><time>2026-04-25T13:50:18.377Z</time></trkpt><trkpt lat="31.4257183" lon="-7.41107"><ele>1288.25</ele><time>2026-04-25T13:50:19.377Z</time></trkpt><trkpt lat="31.4258483" lon="-7.4110733"><ele>1281.0</ele><time>2026-04-25T13:50:20.377Z</time></trkpt><trkpt lat="31.4259933" lon="-7.4110517"><ele>1281.0</ele><time>2026-04-25T13:50:21.377Z</time></trkpt><trkpt lat="31.4261383" lon="-7.411015"><ele>1281.0</ele><time>2026-04-25T13:50:22.377Z</time></trkpt><trkpt lat="31.4262717" lon="-7.4109783"><ele>1281.0</ele><time>2026-04-25T13:50:23.378Z</time></trkpt><trkpt lat="31.426405" lon="-7.41094"><ele>1281.0</ele><time>2026-04-25T13:50:24.377Z</time></trkpt><trkpt lat="31.4265433" lon="-7.4108917"><ele>1281.0</ele><time>2026-04-25T13:50:25.377Z</time></trkpt><trkpt lat="31.4266883" lon="-7.41082"><ele>1281.0</ele><time>2026-04-25T13:50:26.377Z</time></trkpt><trkpt lat="31.4268333" lon="-7.410725"><ele>1281.0</ele><time>2026-04-25T13:50:27.377Z</time></trkpt><trkpt lat="31.426985" lon="-7.410605"><ele>1281.6666666666667</ele><time>2026-04-25T13:50:28.377Z</time></trkpt><trkpt lat="31.4271267" lon="-7.4104633"><ele>1282.3333333333335</ele><time>2026-04-25T13:50:29.377Z</time></trkpt><trkpt lat="31.4272683" lon="-7.410305"><ele>1283.0</ele><time>2026-04-25T13:50:30.377Z</time></trkpt><trkpt lat="31.427395" lon="-7.410135"><ele>1279.6666666666667</ele><time>2026-04-25T13:50:31.377Z</time></trkpt><trkpt lat="31.4274983" lon="-7.4099717"><ele>1276.3333333333333</ele><time>2026-04-25T13:50:32.377Z</time></trkpt><trkpt lat="31.4275883" lon="-7.4098067"><ele>1273.0</ele><time>2026-04-25T13:50:33.377Z</time></trkpt><trkpt lat="31.427675" lon="-7.40964"><ele>1272.0</ele><time>2026-04-25T13:50:34.377Z</time></trkpt><trkpt lat="31.4277567" lon="-7.4094817"><ele>1271.0</ele><time>2026-04-25T13:50:35.377Z</time></trkpt><trkpt lat="31.4278433" lon="-7.4093067"><ele>1270.0</ele><time>2026-04-25T13:50:36.377Z</time></trkpt><trkpt lat="31.427935" lon="-7.4091433"><ele>1271.25</ele><time>2026-04-25T13:50:37.377Z</time></trkpt><trkpt lat="31.4280183" lon="-7.4089883"><ele>1272.5</ele><time>2026-04-25T13:50:38.377Z</time></trkpt><trkpt lat="31.4280933" lon="-7.4088517"><ele>1273.75</ele><time>2026-04-25T13:50:39.377Z</time></trkpt><trkpt lat="31.4281733" lon="-7.40875"><ele>1275.0</ele><time>2026-04-25T13:50:40.377Z</time></trkpt><trkpt lat="31.4282767" lon="-7.4086933"><ele>1269.3333333333333</ele><time>2026-04-25T13:50:41.377Z</time></trkpt><trkpt lat="31.42841" lon="-7.408665"><ele>1263.6666666666665</ele><time>2026-04-25T13:50:42.377Z</time></trkpt><trkpt lat="31.4285583" lon="-7.4086817"><ele>1258.0</ele><time>2026-04-25T13:50:43.377Z</time></trkpt><trkpt lat="31.4287217" lon="-7.4087567"><ele>1266.5</ele><time>2026-04-25T13:50:44.377Z</time></trkpt><trkpt lat="31.4289283" lon="-7.40888"><ele>1275.0</ele><time>2026-04-25T13:50:45.377Z</time></trkpt><trkpt lat="31.4291683" lon="-7.4090233"><ele>1275.0</ele><time>2026-04-25T13:50:46.377Z</time></trkpt><trkpt lat="31.4294033" lon="-7.4091633"><ele>1275.0</ele><time>2026-04-25T13:50:47.377Z</time></trkpt><trkpt lat="31.42962" lon="-7.409315"><ele>1275.0</ele><time>2026-04-25T13:50:48.377Z</time></trkpt><trkpt lat="31.4298267" lon="-7.4094933"><ele>1275.0</ele><time>2026-04-25T13:50:49.377Z</time></trkpt><trkpt lat="31.4300333" lon="-7.4097233"><ele>1275.0</ele><time>2026-04-25T13:50:50.377Z</time></trkpt><trkpt lat="31.4302467" lon="-7.4099783"><ele>1275.0</ele><time>2026-04-25T13:50:51.377Z</time></trkpt><trkpt lat="31.4304633" lon="-7.410205"><ele>1267.5</ele><time>2026-04-25T13:50:52.377Z</time></trkpt><trkpt lat="31.4306767" lon="-7.4104083"><ele>1260.0</ele><time>2026-04-25T13:50:53.377Z</time></trkpt><trkpt lat="31.43088" lon="-7.4105933"><ele>1260.0</ele><time>2026-04-25T13:50:54.377Z</time></trkpt><trkpt lat="31.4310783" lon="-7.4107683"><ele>1260.0</ele><time>2026-04-25T13:50:55.377Z</time></trkpt><trkpt lat="31.4312683" lon="-7.4109333"><ele>1255.3333333333333</ele><time>2026-04-25T13:50:56.377Z</time></trkpt><trkpt lat="31.4314517" lon="-7.4110617"><ele>1250.6666666666665</ele><time>2026-04-25T13:50:57.377Z</time></trkpt><trkpt lat="31.43164" lon="-7.411145"><ele>1246.0</ele><time>2026-04-25T13:50:58.377Z</time></trkpt><trkpt lat="31.4318283" lon="-7.4111883"><ele>1246.0</ele><time>2026-04-25T13:50:59.377Z</time></trkpt><trkpt lat="31.4319983" lon="-7.4112067"><ele>1246.0</ele><time>2026-04-25T13:51:00.377Z</time></trkpt><trkpt lat="31.4321483" lon="-7.4111867"><ele>1246.0</ele><time>2026-04-25T13:51:01.377Z</time></trkpt><trkpt lat="31.432285" lon="-7.4111267"><ele>1250.75</ele><time>2026-04-25T13:51:02.377Z</time></trkpt><trkpt lat="31.432395" lon="-7.411035"><ele>1255.5</ele><time>2026-04-25T13:51:03.377Z</time></trkpt><trkpt lat="31.432475" lon="-7.4108983"><ele>1260.25</ele><time>2026-04-25T13:51:04.377Z</time></trkpt><trkpt lat="31.43251" lon="-7.410745"><ele>1265.0</ele><time>2026-04-25T13:51:05.377Z</time></trkpt><trkpt lat="31.43251" lon="-7.4105783"><ele>1260.75</ele><time>2026-04-25T13:51:06.377Z</time></trkpt><trkpt lat="31.4325033" lon="-7.4104133"><ele>1256.5</ele><time>2026-04-25T13:51:07.377Z</time></trkpt><trkpt lat="31.4324967" lon="-7.410245"><ele>1252.25</ele><time>2026-04-25T13:51:08.377Z</time></trkpt><trkpt lat="31.4325133" lon="-7.41007"><ele>1248.0</ele><time>2026-04-25T13:51:09.377Z</time></trkpt><trkpt lat="31.4325583" lon="-7.409905"><ele>1248.0</ele><time>2026-04-25T13:51:10.377Z</time></trkpt><trkpt lat="31.4326333" lon="-7.4097633"><ele>1248.0</ele><time>2026-04-25T13:51:11.377Z</time></trkpt><trkpt lat="31.4327367" lon="-7.4096367"><ele>1248.0</ele><time>2026-04-25T13:51:12.377Z</time></trkpt><trkpt lat="31.4328817" lon="-7.4095033"><ele>1250.0</ele><time>2026-04-25T13:51:13.378Z</time></trkpt><trkpt lat="31.4330717" lon="-7.4093617"><ele>1252.0</ele><time>2026-04-25T13:51:14.377Z</time></trkpt><trkpt lat="31.4332717" lon="-7.4091867"><ele>1252.0</ele><time>2026-04-25T13:51:15.377Z</time></trkpt><trkpt lat="31.4334683" lon="-7.4089883"><ele>1252.0</ele><time>2026-04-25T13:51:16.377Z</time></trkpt><trkpt lat="31.4336283" lon="-7.40879"><ele>1249.3333333333333</ele><time>2026-04-25T13:51:17.378Z</time></trkpt><trkpt lat="31.43378" lon="-7.408615"><ele>1246.6666666666667</ele><time>2026-04-25T13:51:18.378Z</time></trkpt><trkpt lat="31.4339333" lon="-7.4084583"><ele>1244.0</ele><time>2026-04-25T13:51:19.378Z</time></trkpt><trkpt lat="31.434115" lon="-7.408335"><ele>1244.0</ele><time>2026-04-25T13:51:20.377Z</time></trkpt><trkpt lat="31.434335" lon="-7.408245"><ele>1244.0</ele><time>2026-04-25T13:51:21.377Z</time></trkpt><trkpt lat="31.4345783" lon="-7.4081733"><ele>1249.0</ele><time>2026-04-25T13:51:22.377Z</time></trkpt><trkpt lat="31.4348133" lon="-7.4081067"><ele>1254.0</ele><time>2026-04-25T13:51:23.377Z</time></trkpt><trkpt lat="31.4350283" lon="-7.408075"><ele>1254.0</ele><time>2026-04-25T13:51:24.377Z</time></trkpt><trkpt lat="31.4352267" lon="-7.40807"><ele>1254.0</ele><time>2026-04-25T13:51:25.377Z</time></trkpt><trkpt lat="31.4354133" lon="-7.4080567"><ele>1254.0</ele><time>2026-04-25T13:51:26.377Z</time></trkpt><trkpt lat="31.4355783" lon="-7.408025"><ele>1252.6666666666667</ele><time>2026-04-25T13:51:27.377Z</time></trkpt><trkpt lat="31.43573" lon="-7.4079467"><ele>1251.3333333333335</ele><time>2026-04-25T13:51:28.377Z</time></trkpt><trkpt lat="31.43586" lon="-7.407835"><ele>1250.0</ele><time>2026-04-25T13:51:29.377Z</time></trkpt><trkpt lat="31.4359667" lon="-7.4076683"><ele>1250.0</ele><time>2026-04-25T13:51:30.377Z</time></trkpt><trkpt lat="31.4360517" lon="-7.407455"><ele>1250.0</ele><time>2026-04-25T13:51:31.377Z</time></trkpt><trkpt lat="31.436115" lon="-7.4072033"><ele>1250.0</ele><time>2026-04-25T13:51:32.377Z</time></trkpt><trkpt lat="31.4361567" lon="-7.4069533"><ele>1246.0</ele><time>2026-04-25T13:51:33.377Z</time></trkpt><trkpt lat="31.436165" lon="-7.4067217"><ele>1242.0</ele><time>2026-04-25T13:51:34.377Z</time></trkpt><trkpt lat="31.436155" lon="-7.40651"><ele>1238.0</ele><time>2026-04-25T13:51:35.377Z</time></trkpt><trkpt lat="31.436145" lon="-7.4063033"><ele>1234.6666666666667</ele><time>2026-04-25T13:51:36.377Z</time></trkpt><trkpt lat="31.436145" lon="-7.40611"><ele>1231.3333333333333</ele><time>2026-04-25T13:51:37.377Z</time></trkpt><trkpt lat="31.4361717" lon="-7.40593"><ele>1228.0</ele><time>2026-04-25T13:51:38.377Z</time></trkpt><trkpt lat="31.4362333" lon="-7.4057817"><ele>1234.0</ele><time>2026-04-25T13:51:39.377Z</time></trkpt><trkpt lat="31.4363283" lon="-7.40568"><ele>1240.0</ele><time>2026-04-25T13:51:40.377Z</time></trkpt><trkpt lat="31.4364567" lon="-7.4056233"><ele>1246.0</ele><time>2026-04-25T13:51:41.377Z</time></trkpt><trkpt lat="31.4366167" lon="-7.4055983"><ele>1252.0</ele><time>2026-04-25T13:51:42.377Z</time></trkpt><trkpt lat="31.4368183" lon="-7.4056017"><ele>1252.0</ele><time>2026-04-25T13:51:43.377Z</time></trkpt><trkpt lat="31.4370483" lon="-7.40561"><ele>1252.0</ele><time>2026-04-25T13:51:44.377Z</time></trkpt><trkpt lat="31.4372733" lon="-7.4056167"><ele>1253.0</ele><time>2026-04-25T13:51:45.377Z</time></trkpt><trkpt lat="31.437465" lon="-7.4056383"><ele>1254.0</ele><time>2026-04-25T13:51:46.377Z</time></trkpt><trkpt lat="31.4376117" lon="-7.4057017"><ele>1255.0</ele><time>2026-04-25T13:51:47.377Z</time></trkpt><trkpt lat="31.43772" lon="-7.4058017"><ele>1255.0</ele><time>2026-04-25T13:51:48.377Z</time></trkpt><trkpt lat="31.4378117" lon="-7.4059483"><ele>1255.0</ele><time>2026-04-25T13:51:49.377Z</time></trkpt><trkpt lat="31.4378817" lon="-7.4061483"><ele>1255.0</ele><time>2026-04-25T13:51:50.377Z</time></trkpt><trkpt lat="31.437945" lon="-7.406335"><ele>1258.0</ele><time>2026-04-25T13:51:51.377Z</time></trkpt><trkpt lat="31.4380167" lon="-7.4064733"><ele>1261.0</ele><time>2026-04-25T13:51:52.377Z</time></trkpt><trkpt lat="31.4381083" lon="-7.406565"><ele>1264.0</ele><time>2026-04-25T13:51:53.377Z</time></trkpt><trkpt lat="31.4382" lon="-7.406585"><ele>1267.0</ele><time>2026-04-25T13:51:54.377Z</time></trkpt><trkpt lat="31.4383" lon="-7.40656"><ele>1267.0</ele><time>2026-04-25T13:51:55.377Z</time></trkpt><trkpt lat="31.438385" lon="-7.40648"><ele>1267.0</ele><time>2026-04-25T13:51:56.377Z</time></trkpt><trkpt lat="31.4384467" lon="-7.4063517"><ele>1267.0</ele><time>2026-04-25T13:51:57.377Z</time></trkpt><trkpt lat="31.4384917" lon="-7.4061767"><ele>1267.0</ele><time>2026-04-25T13:51:58.377Z</time></trkpt><trkpt lat="31.4385067" lon="-7.405945"><ele>1261.6666666666665</ele><time>2026-04-25T13:51:59.377Z</time></trkpt><trkpt lat="31.4385117" lon="-7.40573"><ele>1256.3333333333333</ele><time>2026-04-25T13:52:00.377Z</time></trkpt><trkpt lat="31.43854" lon="-7.4055333"><ele>1251.0</ele><time>2026-04-25T13:52:01.377Z</time></trkpt><trkpt lat="31.4386067" lon="-7.4053917"><ele>1251.0</ele><time>2026-04-25T13:52:02.377Z</time></trkpt><trkpt lat="31.4387117" lon="-7.4052867"><ele>1251.0</ele><time>2026-04-25T13:52:03.377Z</time></trkpt><trkpt lat="31.438855" lon="-7.4052"><ele>1251.0</ele><time>2026-04-25T13:52:04.377Z</time></trkpt><trkpt lat="31.439045" lon="-7.4051333"><ele>1251.0</ele><time>2026-04-25T13:52:05.377Z</time></trkpt><trkpt lat="31.4392633" lon="-7.4050633"><ele>1251.0</ele><time>2026-04-25T13:52:06.377Z</time></trkpt><trkpt lat="31.439465" lon="-7.4049867"><ele>1251.0</ele><time>2026-04-25T13:52:07.377Z</time></trkpt><trkpt lat="31.439635" lon="-7.404905"><ele>1252.75</ele><time>2026-04-25T13:52:08.377Z</time></trkpt><trkpt lat="31.43977" lon="-7.4048117"><ele>1254.5</ele><time>2026-04-25T13:52:09.377Z</time></trkpt><trkpt lat="31.43988" lon="-7.4047033"><ele>1256.25</ele><time>2026-04-25T13:52:10.377Z</time></trkpt><trkpt lat="31.439955" lon="-7.4045667"><ele>1258.0</ele><time>2026-04-25T13:52:11.377Z</time></trkpt><trkpt lat="31.4399917" lon="-7.4044033"><ele>1258.0</ele><time>2026-04-25T13:52:12.377Z</time></trkpt><trkpt lat="31.440005" lon="-7.40425"><ele>1258.0</ele><time>2026-04-25T13:52:13.377Z</time></trkpt><trkpt lat="31.4400233" lon="-7.4041"><ele>1258.0</ele><time>2026-04-25T13:52:14.377Z</time></trkpt><trkpt lat="31.4400483" lon="-7.4039517"><ele>1258.0</ele><time>2026-04-25T13:52:15.378Z</time></trkpt><trkpt lat="31.4400833" lon="-7.403815"><ele>1256.2</ele><time>2026-04-25T13:52:16.377Z</time></trkpt><trkpt lat="31.4401167" lon="-7.40369"><ele>1254.4</ele><time>2026-04-25T13:52:17.377Z</time></trkpt><trkpt lat="31.44015" lon="-7.4035733"><ele>1252.6000000000001</ele><time>2026-04-25T13:52:18.377Z</time></trkpt><trkpt lat="31.4402" lon="-7.4034617"><ele>1250.8</ele><time>2026-04-25T13:52:19.377Z</time></trkpt><trkpt lat="31.440265" lon="-7.4033733"><ele>1249.0</ele><time>2026-04-25T13:52:20.377Z</time></trkpt><trkpt lat="31.4403367" lon="-7.4033"><ele>1249.0</ele><time>2026-04-25T13:52:21.377Z</time></trkpt><trkpt lat="31.4404167" lon="-7.4032433"><ele>1249.0</ele><time>2026-04-25T13:52:22.377Z</time></trkpt><trkpt lat="31.4405133" lon="-7.4031933"><ele>1249.0</ele><time>2026-04-25T13:52:23.377Z</time></trkpt><trkpt lat="31.440615" lon="-7.40314"><ele>1249.0</ele><time>2026-04-25T13:52:24.377Z</time></trkpt><trkpt lat="31.4407267" lon="-7.4030883"><ele>1249.0</ele><time>2026-04-25T13:52:25.377Z</time></trkpt><trkpt lat="31.4408317" lon="-7.4030317"><ele>1246.6000000000001</ele><time>2026-04-25T13:52:26.377Z</time></trkpt><trkpt lat="31.440925" lon="-7.402975"><ele>1244.2</ele><time>2026-04-25T13:52:27.377Z</time></trkpt><trkpt lat="31.4410167" lon="-7.402925"><ele>1241.8000000000002</ele><time>2026-04-25T13:52:28.377Z</time></trkpt><trkpt lat="31.4411017" lon="-7.4028733"><ele>1239.4</ele><time>2026-04-25T13:52:29.377Z</time></trkpt><trkpt lat="31.4411817" lon="-7.4028017"><ele>1237.0</ele><time>2026-04-25T13:52:30.377Z</time></trkpt><trkpt lat="31.441255" lon="-7.4027033"><ele>1237.25</ele><time>2026-04-25T13:52:31.377Z</time></trkpt><trkpt lat="31.441305" lon="-7.40257"><ele>1237.5</ele><time>2026-04-25T13:52:32.377Z</time></trkpt><trkpt lat="31.44132" lon="-7.4024"><ele>1237.75</ele><time>2026-04-25T13:52:33.377Z</time></trkpt><trkpt lat="31.4413417" lon="-7.4022267"><ele>1238.0</ele><time>2026-04-25T13:52:34.377Z</time></trkpt><trkpt lat="31.4413867" lon="-7.402065"><ele>1238.0</ele><time>2026-04-25T13:52:35.377Z</time></trkpt><trkpt lat="31.441475" lon="-7.4019317"><ele>1238.0</ele><time>2026-04-25T13:52:36.377Z</time></trkpt><trkpt lat="31.4415917" lon="-7.40184"><ele>1238.0</ele><time>2026-04-25T13:52:37.377Z</time></trkpt><trkpt lat="31.4417383" lon="-7.4017883"><ele>1238.0</ele><time>2026-04-25T13:52:38.377Z</time></trkpt><trkpt lat="31.4419017" lon="-7.401765"><ele>1238.0</ele><time>2026-04-25T13:52:39.377Z</time></trkpt><trkpt lat="31.4420667" lon="-7.40175"><ele>1238.0</ele><time>2026-04-25T13:52:40.377Z</time></trkpt><trkpt lat="31.4422133" lon="-7.4016833"><ele>1238.0</ele><time>2026-04-25T13:52:41.377Z</time></trkpt><trkpt lat="31.442345" lon="-7.4015667"><ele>1236.6666666666667</ele><time>2026-04-25T13:52:42.377Z</time></trkpt><trkpt lat="31.4424533" lon="-7.4013883"><ele>1235.3333333333333</ele><time>2026-04-25T13:52:43.377Z</time></trkpt><trkpt lat="31.4425483" lon="-7.4011667"><ele>1234.0</ele><time>2026-04-25T13:52:44.377Z</time></trkpt><trkpt lat="31.4426733" lon="-7.400935"><ele>1234.0</ele><time>2026-04-25T13:52:45.377Z</time></trkpt><trkpt lat="31.4428433" lon="-7.4007217"><ele>1234.0</ele><time>2026-04-25T13:52:46.377Z</time></trkpt><trkpt lat="31.443045" lon="-7.400535"><ele>1237.5</ele><time>2026-04-25T13:52:47.377Z</time></trkpt><trkpt lat="31.4432383" lon="-7.4003733"><ele>1241.0</ele><time>2026-04-25T13:52:48.377Z</time></trkpt><trkpt lat="31.4434167" lon="-7.400205"><ele>1241.0</ele><time>2026-04-25T13:52:49.377Z</time></trkpt><trkpt lat="31.4435833" lon="-7.4000083"><ele>1241.0</ele><time>2026-04-25T13:52:50.377Z</time></trkpt><trkpt lat="31.4437117" lon="-7.3997767"><ele>1246.3333333333335</ele><time>2026-04-25T13:52:51.377Z</time></trkpt><trkpt lat="31.4437983" lon="-7.399535"><ele>1251.6666666666667</ele><time>2026-04-25T13:52:52.377Z</time></trkpt><trkpt lat="31.4438567" lon="-7.3992933"><ele>1257.0</ele><time>2026-04-25T13:52:53.377Z</time></trkpt><trkpt lat="31.4439233" lon="-7.3990783"><ele>1257.0</ele><time>2026-04-25T13:52:54.377Z</time></trkpt><trkpt lat="31.4440217" lon="-7.3988917"><ele>1257.0</ele><time>2026-04-25T13:52:55.377Z</time></trkpt><trkpt lat="31.4441467" lon="-7.39873"><ele>1257.0</ele><time>2026-04-25T13:52:56.377Z</time></trkpt><trkpt lat="31.4443033" lon="-7.3985883"><ele>1257.0</ele><time>2026-04-25T13:52:57.377Z</time></trkpt><trkpt lat="31.4444833" lon="-7.3984717"><ele>1257.0</ele><time>2026-04-25T13:52:58.377Z</time></trkpt><trkpt lat="31.4446883" lon="-7.3983633"><ele>1257.0</ele><time>2026-04-25T13:52:59.377Z</time></trkpt><trkpt lat="31.44491" lon="-7.3982383"><ele>1257.0</ele><time>2026-04-25T13:53:00.377Z</time></trkpt><trkpt lat="31.4451283" lon="-7.398095"><ele>1257.0</ele><time>2026-04-25T13:53:01.377Z</time></trkpt><trkpt lat="31.4453433" lon="-7.3979783"><ele>1253.0</ele><time>2026-04-25T13:53:02.377Z</time></trkpt><trkpt lat="31.4455533" lon="-7.3979017"><ele>1249.0</ele><time>2026-04-25T13:53:03.377Z</time></trkpt><trkpt lat="31.4457517" lon="-7.3978267"><ele>1245.0</ele><time>2026-04-25T13:53:04.377Z</time></trkpt><trkpt lat="31.44592" lon="-7.39773"><ele>1245.0</ele><time>2026-04-25T13:53:05.377Z</time></trkpt><trkpt lat="31.44606" lon="-7.397605"><ele>1245.0</ele><time>2026-04-25T13:53:06.377Z</time></trkpt><trkpt lat="31.446165" lon="-7.3974533"><ele>1245.0</ele><time>2026-04-25T13:53:07.378Z</time></trkpt><trkpt lat="31.4462283" lon="-7.3972633"><ele>1240.3333333333333</ele><time>2026-04-25T13:53:08.377Z</time></trkpt><trkpt lat="31.44625" lon="-7.3970383"><ele>1235.6666666666665</ele><time>2026-04-25T13:53:09.377Z</time></trkpt><trkpt lat="31.44627" lon="-7.3968033"><ele>1231.0</ele><time>2026-04-25T13:53:10.377Z</time></trkpt><trkpt lat="31.4463017" lon="-7.396585"><ele>1235.3333333333333</ele><time>2026-04-25T13:53:11.377Z</time></trkpt><trkpt lat="31.4463567" lon="-7.396395"><ele>1239.6666666666667</ele><time>2026-04-25T13:53:12.377Z</time></trkpt><trkpt lat="31.4464467" lon="-7.396235"><ele>1244.0</ele><time>2026-04-25T13:53:13.377Z</time></trkpt><trkpt lat="31.4465683" lon="-7.3960967"><ele>1244.0</ele><time>2026-04-25T13:53:14.377Z</time></trkpt><trkpt lat="31.4467217" lon="-7.3959867"><ele>1244.0</ele><time>2026-04-25T13:53:15.377Z</time></trkpt><trkpt lat="31.4469117" lon="-7.3959033"><ele>1244.0</ele><time>2026-04-25T13:53:16.377Z</time></trkpt><trkpt lat="31.4471267" lon="-7.3958317"><ele>1257.0</ele><time>2026-04-25T13:53:17.377Z</time></trkpt><trkpt lat="31.4473417" lon="-7.3957333"><ele>1270.0</ele><time>2026-04-25T13:53:18.377Z</time></trkpt><trkpt lat="31.4475383" lon="-7.3955917"><ele>1257.0</ele><time>2026-04-25T13:53:19.377Z</time></trkpt><trkpt lat="31.4477333" lon="-7.3953933"><ele>1244.0</ele><time>2026-04-25T13:53:20.377Z</time></trkpt><trkpt lat="31.4479033" lon="-7.3951883"><ele>1253.3333333333335</ele><time>2026-04-25T13:53:21.377Z</time></trkpt><trkpt lat="31.4480733" lon="-7.3950117"><ele>1262.6666666666667</ele><time>2026-04-25T13:53:22.377Z</time></trkpt><trkpt lat="31.44824" lon="-7.39486"><ele>1272.0</ele><time>2026-04-25T13:53:23.377Z</time></trkpt><trkpt lat="31.4483967" lon="-7.394725"><ele>1263.3333333333333</ele><time>2026-04-25T13:53:24.377Z</time></trkpt><trkpt lat="31.4485383" lon="-7.3946"><ele>1254.6666666666665</ele><time>2026-04-25T13:53:25.377Z</time></trkpt><trkpt lat="31.4486633" lon="-7.3944917"><ele>1246.0</ele><time>2026-04-25T13:53:26.377Z</time></trkpt><trkpt lat="31.4487817" lon="-7.39439"><ele>1251.75</ele><time>2026-04-25T13:53:27.377Z</time></trkpt><trkpt lat="31.4488983" lon="-7.3943017"><ele>1257.5</ele><time>2026-04-25T13:53:28.377Z</time></trkpt><trkpt lat="31.4490117" lon="-7.394235"><ele>1263.25</ele><time>2026-04-25T13:53:29.377Z</time></trkpt><trkpt lat="31.4491267" lon="-7.3941867"><ele>1269.0</ele><time>2026-04-25T13:53:30.377Z</time></trkpt><trkpt lat="31.4492483" lon="-7.3941533"><ele>1269.0</ele><time>2026-04-25T13:53:31.377Z</time></trkpt><trkpt lat="31.4493783" lon="-7.3941417"><ele>1269.0</ele><time>2026-04-25T13:53:32.377Z</time></trkpt><trkpt lat="31.4495283" lon="-7.39416"><ele>1269.0</ele><time>2026-04-25T13:53:33.377Z</time></trkpt><trkpt lat="31.4496983" lon="-7.3941967"><ele>1270.0</ele><time>2026-04-25T13:53:34.377Z</time></trkpt><trkpt lat="31.4498733" lon="-7.39424"><ele>1271.0</ele><time>2026-04-25T13:53:35.377Z</time></trkpt><trkpt lat="31.45006" lon="-7.3943"><ele>1272.0</ele><time>2026-04-25T13:53:36.377Z</time></trkpt><trkpt lat="31.4502517" lon="-7.3943767"><ele>1272.0</ele><time>2026-04-25T13:53:37.377Z</time></trkpt><trkpt lat="31.4504567" lon="-7.394455"><ele>1272.0</ele><time>2026-04-25T13:53:38.377Z</time></trkpt><trkpt lat="31.4506583" lon="-7.3945283"><ele>1272.0</ele><time>2026-04-25T13:53:39.378Z</time></trkpt><trkpt lat="31.4508417" lon="-7.3945917"><ele>1271.6666666666667</ele><time>2026-04-25T13:53:40.377Z</time></trkpt><trkpt lat="31.4510083" lon="-7.3946683"><ele>1271.3333333333335</ele><time>2026-04-25T13:53:41.377Z</time></trkpt><trkpt lat="31.451175" lon="-7.39477"><ele>1271.0</ele><time>2026-04-25T13:53:42.377Z</time></trkpt><trkpt lat="31.451305" lon="-7.3949067"><ele>1273.6666666666667</ele><time>2026-04-25T13:53:43.377Z</time></trkpt><trkpt lat="31.4513983" lon="-7.39508"><ele>1276.3333333333333</ele><time>2026-04-25T13:53:44.377Z</time></trkpt><trkpt lat="31.4514633" lon="-7.3952767"><ele>1279.0</ele><time>2026-04-25T13:53:45.377Z</time></trkpt><trkpt lat="31.45148" lon="-7.3954867"><ele>1282.5</ele><time>2026-04-25T13:53:46.377Z</time></trkpt><trkpt lat="31.4514667" lon="-7.39574"><ele>1286.0</ele><time>2026-04-25T13:53:47.377Z</time></trkpt><trkpt lat="31.4514417" lon="-7.396025"><ele>1286.0</ele><time>2026-04-25T13:53:48.377Z</time></trkpt><trkpt lat="31.4514333" lon="-7.3963117"><ele>1286.0</ele><time>2026-04-25T13:53:49.377Z</time></trkpt><trkpt lat="31.451455" lon="-7.39657"><ele>1287.3333333333335</ele><time>2026-04-25T13:53:50.378Z</time></trkpt><trkpt lat="31.4515" lon="-7.39679"><ele>1288.6666666666667</ele><time>2026-04-25T13:53:51.377Z</time></trkpt><trkpt lat="31.4515783" lon="-7.3969583"><ele>1290.0</ele><time>2026-04-25T13:53:52.377Z</time></trkpt><trkpt lat="31.45169" lon="-7.3971017"><ele>1293.6666666666667</ele><time>2026-04-25T13:53:53.377Z</time></trkpt><trkpt lat="31.4518467" lon="-7.3972117"><ele>1297.3333333333335</ele><time>2026-04-25T13:53:54.377Z</time></trkpt><trkpt lat="31.4520383" lon="-7.3973017"><ele>1301.0</ele><time>2026-04-25T13:53:55.377Z</time></trkpt><trkpt lat="31.45228" lon="-7.3973733"><ele>1301.0</ele><time>2026-04-25T13:53:56.377Z</time></trkpt><trkpt lat="31.45253" lon="-7.397425"><ele>1301.0</ele><time>2026-04-25T13:53:57.377Z</time></trkpt><trkpt lat="31.4527617" lon="-7.397435"><ele>1305.0</ele><time>2026-04-25T13:53:58.377Z</time></trkpt><trkpt lat="31.4529733" lon="-7.397405"><ele>1309.0</ele><time>2026-04-25T13:53:59.377Z</time></trkpt><trkpt lat="31.4531817" lon="-7.397335"><ele>1313.0</ele><time>2026-04-25T13:54:00.377Z</time></trkpt><trkpt lat="31.4533883" lon="-7.3972517"><ele>1313.0</ele><time>2026-04-25T13:54:01.377Z</time></trkpt><trkpt lat="31.4535817" lon="-7.3971817"><ele>1313.0</ele><time>2026-04-25T13:54:02.377Z</time></trkpt><trkpt lat="31.4537567" lon="-7.3971467"><ele>1313.0</ele><time>2026-04-25T13:54:03.377Z</time></trkpt><trkpt lat="31.4539217" lon="-7.3971617"><ele>1312.6666666666667</ele><time>2026-04-25T13:54:04.377Z</time></trkpt><trkpt lat="31.4540833" lon="-7.3972183"><ele>1312.3333333333333</ele><time>2026-04-25T13:54:05.377Z</time></trkpt><trkpt lat="31.4542267" lon="-7.3973133"><ele>1312.0</ele><time>2026-04-25T13:54:06.377Z</time></trkpt><trkpt lat="31.4543517" lon="-7.39745"><ele>1312.0</ele><time>2026-04-25T13:54:07.377Z</time></trkpt><trkpt lat="31.45444" lon="-7.39762"><ele>1312.0</ele><time>2026-04-25T13:54:08.377Z</time></trkpt><trkpt lat="31.4544983" lon="-7.3978267"><ele>1312.0</ele><time>2026-04-25T13:54:09.377Z</time></trkpt><trkpt lat="31.4545283" lon="-7.3980683"><ele>1316.0</ele><time>2026-04-25T13:54:10.377Z</time></trkpt><trkpt lat="31.4545383" lon="-7.3983533"><ele>1320.0</ele><time>2026-04-25T13:54:11.377Z</time></trkpt><trkpt lat="31.4545433" lon="-7.3986817"><ele>1326.5</ele><time>2026-04-25T13:54:12.377Z</time></trkpt><trkpt lat="31.454565" lon="-7.3990383"><ele>1333.0</ele><time>2026-04-25T13:54:13.377Z</time></trkpt><trkpt lat="31.45461" lon="-7.3994167"><ele>1325.5</ele><time>2026-04-25T13:54:14.377Z</time></trkpt><trkpt lat="31.454675" lon="-7.3997933"><ele>1318.0</ele><time>2026-04-25T13:54:15.377Z</time></trkpt><trkpt lat="31.45475" lon="-7.4001417"><ele>1318.0</ele><time>2026-04-25T13:54:16.377Z</time></trkpt><trkpt lat="31.4548133" lon="-7.400455"><ele>1318.0</ele><time>2026-04-25T13:54:17.377Z</time></trkpt><trkpt lat="31.4548667" lon="-7.400745"><ele>1323.0</ele><time>2026-04-25T13:54:18.378Z</time></trkpt><trkpt lat="31.4549167" lon="-7.401"><ele>1328.0</ele><time>2026-04-25T13:54:19.377Z</time></trkpt><trkpt lat="31.45498" lon="-7.40123"><ele>1333.0</ele><time>2026-04-25T13:54:20.377Z</time></trkpt><trkpt lat="31.4550767" lon="-7.40144"><ele>1331.6666666666665</ele><time>2026-04-25T13:54:21.377Z</time></trkpt><trkpt lat="31.4552017" lon="-7.4016167"><ele>1330.3333333333333</ele><time>2026-04-25T13:54:22.377Z</time></trkpt><trkpt lat="31.4553533" lon="-7.401745"><ele>1329.0</ele><time>2026-04-25T13:54:23.377Z</time></trkpt><trkpt lat="31.455545" lon="-7.4018317"><ele>1329.0</ele><time>2026-04-25T13:54:24.377Z</time></trkpt><trkpt lat="31.4557817" lon="-7.4019"><ele>1329.0</ele><time>2026-04-25T13:54:25.377Z</time></trkpt><trkpt lat="31.45602" lon="-7.4019617"><ele>1329.0</ele><time>2026-04-25T13:54:26.377Z</time></trkpt><trkpt lat="31.45624" lon="-7.40203"><ele>1329.0</ele><time>2026-04-25T13:54:27.377Z</time></trkpt><trkpt lat="31.4564333" lon="-7.4021"><ele>1329.0</ele><time>2026-04-25T13:54:28.378Z</time></trkpt><trkpt lat="31.45661" lon="-7.4021817"><ele>1336.0</ele><time>2026-04-25T13:54:29.377Z</time></trkpt><trkpt lat="31.4567717" lon="-7.40229"><ele>1343.0</ele><time>2026-04-25T13:54:30.377Z</time></trkpt><trkpt lat="31.456915" lon="-7.4024333"><ele>1350.0</ele><time>2026-04-25T13:54:31.377Z</time></trkpt><trkpt lat="31.45702" lon="-7.4026067"><ele>1350.0</ele><time>2026-04-25T13:54:32.378Z</time></trkpt><trkpt lat="31.4570933" lon="-7.4028217"><ele>1350.0</ele><time>2026-04-25T13:54:33.377Z</time></trkpt><trkpt lat="31.45713" lon="-7.4030617"><ele>1350.0</ele><time>2026-04-25T13:54:34.377Z</time></trkpt><trkpt lat="31.4571467" lon="-7.4033417"><ele>1350.5</ele><time>2026-04-25T13:54:35.377Z</time></trkpt><trkpt lat="31.4571483" lon="-7.4036417"><ele>1351.0</ele><time>2026-04-25T13:54:36.376Z</time></trkpt><trkpt lat="31.4571533" lon="-7.4039667"><ele>1355.5</ele><time>2026-04-25T13:54:37.376Z</time></trkpt><trkpt lat="31.4571733" lon="-7.4043067"><ele>1360.0</ele><time>2026-04-25T13:54:38.376Z</time></trkpt><trkpt lat="31.4571867" lon="-7.404645"><ele>1361.0</ele><time>2026-04-25T13:54:39.376Z</time></trkpt><trkpt lat="31.4571967" lon="-7.4049633"><ele>1362.0</ele><time>2026-04-25T13:54:40.376Z</time></trkpt><trkpt lat="31.4572233" lon="-7.4052483"><ele>1362.0</ele><time>2026-04-25T13:54:41.376Z</time></trkpt><trkpt lat="31.4572783" lon="-7.4054883"><ele>1362.0</ele><time>2026-04-25T13:54:42.376Z</time></trkpt><trkpt lat="31.4573733" lon="-7.4056917"><ele>1362.0</ele><time>2026-04-25T13:54:43.376Z</time></trkpt><trkpt lat="31.457515" lon="-7.40588"><ele>1371.0</ele><time>2026-04-25T13:54:44.376Z</time></trkpt><trkpt lat="31.4576917" lon="-7.4060667"><ele>1380.0</ele><time>2026-04-25T13:54:45.376Z</time></trkpt><trkpt lat="31.457875" lon="-7.4062467"><ele>1383.6666666666667</ele><time>2026-04-25T13:54:46.376Z</time></trkpt><trkpt lat="31.4580583" lon="-7.4063833"><ele>1387.3333333333335</ele><time>2026-04-25T13:54:47.376Z</time></trkpt><trkpt lat="31.45823" lon="-7.4064483"><ele>1391.0</ele><time>2026-04-25T13:54:48.376Z</time></trkpt><trkpt lat="31.4584033" lon="-7.4064667"><ele>1391.0</ele><time>2026-04-25T13:54:49.376Z</time></trkpt><trkpt lat="31.4585983" lon="-7.406415"><ele>1391.0</ele><time>2026-04-25T13:54:50.376Z</time></trkpt><trkpt lat="31.4588117" lon="-7.4063167"><ele>1391.0</ele><time>2026-04-25T13:54:51.376Z</time></trkpt><trkpt lat="31.4590217" lon="-7.40619"><ele>1387.0</ele><time>2026-04-25T13:54:52.376Z</time></trkpt><trkpt lat="31.4592233" lon="-7.4060717"><ele>1383.0</ele><time>2026-04-25T13:54:53.376Z</time></trkpt><trkpt lat="31.4594233" lon="-7.405995"><ele>1379.0</ele><time>2026-04-25T13:54:54.376Z</time></trkpt><trkpt lat="31.459615" lon="-7.40597"><ele>1382.3333333333335</ele><time>2026-04-25T13:54:55.376Z</time></trkpt><trkpt lat="31.4597983" lon="-7.405995"><ele>1385.6666666666667</ele><time>2026-04-25T13:54:56.376Z</time></trkpt><trkpt lat="31.4599683" lon="-7.4060683"><ele>1389.0</ele><time>2026-04-25T13:54:57.376Z</time></trkpt><trkpt lat="31.460125" lon="-7.4061967"><ele>1390.0</ele><time>2026-04-25T13:54:58.376Z</time></trkpt><trkpt lat="31.4602683" lon="-7.4063767"><ele>1391.0</ele><time>2026-04-25T13:54:59.376Z</time></trkpt><trkpt lat="31.4603983" lon="-7.406605"><ele>1392.0</ele><time>2026-04-25T13:55:00.376Z</time></trkpt><trkpt lat="31.4605217" lon="-7.40682"><ele>1392.0</ele><time>2026-04-25T13:55:01.376Z</time></trkpt><trkpt lat="31.4606533" lon="-7.406995"><ele>1392.0</ele><time>2026-04-25T13:55:02.376Z</time></trkpt><trkpt lat="31.4608133" lon="-7.4071117"><ele>1392.0</ele><time>2026-04-25T13:55:03.376Z</time></trkpt><trkpt lat="31.4609783" lon="-7.407175"><ele>1395.0</ele><time>2026-04-25T13:55:04.376Z</time></trkpt><trkpt lat="31.4611617" lon="-7.4071733"><ele>1398.0</ele><time>2026-04-25T13:55:05.376Z</time></trkpt><trkpt lat="31.461355" lon="-7.40711"><ele>1401.0</ele><time>2026-04-25T13:55:06.376Z</time></trkpt><trkpt lat="31.4615617" lon="-7.40699"><ele>1401.0</ele><time>2026-04-25T13:55:07.376Z</time></trkpt><trkpt lat="31.461775" lon="-7.4068383"><ele>1401.0</ele><time>2026-04-25T13:55:08.376Z</time></trkpt><trkpt lat="31.4620083" lon="-7.4066633"><ele>1400.5</ele><time>2026-04-25T13:55:09.376Z</time></trkpt><trkpt lat="31.4622567" lon="-7.406455"><ele>1400.0</ele><time>2026-04-25T13:55:10.376Z</time></trkpt><trkpt lat="31.4625" lon="-7.4062283"><ele>1400.0</ele><time>2026-04-25T13:55:11.376Z</time></trkpt><trkpt lat="31.4627183" lon="-7.406"><ele>1400.0</ele><time>2026-04-25T13:55:12.376Z</time></trkpt><trkpt lat="31.4629" lon="-7.40576"><ele>1406.0</ele><time>2026-04-25T13:55:13.376Z</time></trkpt><trkpt lat="31.4630583" lon="-7.405535"><ele>1412.0</ele><time>2026-04-25T13:55:14.376Z</time></trkpt><trkpt lat="31.46322" lon="-7.4053267"><ele>1412.0</ele><time>2026-04-25T13:55:15.376Z</time></trkpt><trkpt lat="31.46338" lon="-7.4051283"><ele>1412.0</ele><time>2026-04-25T13:55:16.376Z</time></trkpt><trkpt lat="31.4635317" lon="-7.40494"><ele>1412.0</ele><time>2026-04-25T13:55:17.376Z</time></trkpt><trkpt lat="31.4636733" lon="-7.404775"><ele>1412.0</ele><time>2026-04-25T13:55:18.376Z</time></trkpt><trkpt lat="31.4638083" lon="-7.4046167"><ele>1412.0</ele><time>2026-04-25T13:55:19.376Z</time></trkpt><trkpt lat="31.46395" lon="-7.4044633"><ele>1416.0</ele><time>2026-04-25T13:55:20.376Z</time></trkpt><trkpt lat="31.464095" lon="-7.404315"><ele>1420.0</ele><time>2026-04-25T13:55:21.376Z</time></trkpt><trkpt lat="31.4642467" lon="-7.40417"><ele>1424.0</ele><time>2026-04-25T13:55:22.376Z</time></trkpt><trkpt lat="31.4644033" lon="-7.4040283"><ele>1424.0</ele><time>2026-04-25T13:55:23.376Z</time></trkpt><trkpt lat="31.4645667" lon="-7.40388"><ele>1424.0</ele><time>2026-04-25T13:55:24.376Z</time></trkpt><trkpt lat="31.4647383" lon="-7.403735"><ele>1424.0</ele><time>2026-04-25T13:55:25.376Z</time></trkpt><trkpt lat="31.464905" lon="-7.4035883"><ele>1425.0</ele><time>2026-04-25T13:55:26.376Z</time></trkpt><trkpt lat="31.4650733" lon="-7.403445"><ele>1426.0</ele><time>2026-04-25T13:55:27.376Z</time></trkpt><trkpt lat="31.4652567" lon="-7.403285"><ele>1427.0</ele><time>2026-04-25T13:55:28.376Z</time></trkpt><trkpt lat="31.4654483" lon="-7.4031267"><ele>1429.0</ele><time>2026-04-25T13:55:29.376Z</time></trkpt><trkpt lat="31.4656467" lon="-7.4029567"><ele>1431.0</ele><time>2026-04-25T13:55:30.376Z</time></trkpt><trkpt lat="31.4658617" lon="-7.4027783"><ele>1431.0</ele><time>2026-04-25T13:55:31.376Z</time></trkpt><trkpt lat="31.4660783" lon="-7.4025933"><ele>1431.0</ele><time>2026-04-25T13:55:32.376Z</time></trkpt><trkpt lat="31.46629" lon="-7.4023917"><ele>1434.5</ele><time>2026-04-25T13:55:33.376Z</time></trkpt><trkpt lat="31.4665083" lon="-7.4021717"><ele>1438.0</ele><time>2026-04-25T13:55:34.376Z</time></trkpt><trkpt lat="31.4667283" lon="-7.4019383"><ele>1438.0</ele><time>2026-04-25T13:55:35.376Z</time></trkpt><trkpt lat="31.46696" lon="-7.401695"><ele>1438.0</ele><time>2026-04-25T13:55:36.376Z</time></trkpt><trkpt lat="31.4672017" lon="-7.40144"><ele>1448.0</ele><time>2026-04-25T13:55:37.376Z</time></trkpt><trkpt lat="31.4674533" lon="-7.4011733"><ele>1458.0</ele><time>2026-04-25T13:55:38.376Z</time></trkpt><trkpt lat="31.4676883" lon="-7.4009117"><ele>1458.0</ele><time>2026-04-25T13:55:39.376Z</time></trkpt><trkpt lat="31.4679183" lon="-7.4006733"><ele>1458.0</ele><time>2026-04-25T13:55:40.376Z</time></trkpt><trkpt lat="31.4681433" lon="-7.400435"><ele>1457.5</ele><time>2026-04-25T13:55:41.376Z</time></trkpt><trkpt lat="31.468355" lon="-7.4002033"><ele>1457.0</ele><time>2026-04-25T13:55:42.376Z</time></trkpt><trkpt lat="31.4685517" lon="-7.39998"><ele>1457.0</ele><time>2026-04-25T13:55:43.376Z</time></trkpt><trkpt lat="31.46873" lon="-7.3997583"><ele>1457.0</ele><time>2026-04-25T13:55:44.376Z</time></trkpt><trkpt lat="31.46889" lon="-7.3995467"><ele>1457.6666666666667</ele><time>2026-04-25T13:55:45.376Z</time></trkpt><trkpt lat="31.4690333" lon="-7.3993583"><ele>1458.3333333333333</ele><time>2026-04-25T13:55:46.376Z</time></trkpt><trkpt lat="31.4691733" lon="-7.399165"><ele>1459.0</ele><time>2026-04-25T13:55:47.376Z</time></trkpt><trkpt lat="31.469295" lon="-7.3989767"><ele>1465.6666666666665</ele><time>2026-04-25T13:55:48.377Z</time></trkpt><trkpt lat="31.4694217" lon="-7.3988033"><ele>1472.3333333333333</ele><time>2026-04-25T13:55:49.376Z</time></trkpt><trkpt lat="31.46955" lon="-7.3986433"><ele>1479.0</ele><time>2026-04-25T13:55:50.376Z</time></trkpt><trkpt lat="31.4696733" lon="-7.3985033"><ele>1479.0</ele><time>2026-04-25T13:55:51.376Z</time></trkpt><trkpt lat="31.4698167" lon="-7.3983967"><ele>1479.0</ele><time>2026-04-25T13:55:52.376Z</time></trkpt><trkpt lat="31.4699783" lon="-7.3983333"><ele>1479.0</ele><time>2026-04-25T13:55:53.376Z</time></trkpt><trkpt lat="31.4701483" lon="-7.3983167"><ele>1479.0</ele><time>2026-04-25T13:55:54.376Z</time></trkpt><trkpt lat="31.47032" lon="-7.3983417"><ele>1479.0</ele><time>2026-04-25T13:55:55.376Z</time></trkpt><trkpt lat="31.4704883" lon="-7.3984217"><ele>1479.0</ele><time>2026-04-25T13:55:56.376Z</time></trkpt><trkpt lat="31.4706283" lon="-7.3985467"><ele>1476.0</ele><time>2026-04-25T13:55:57.377Z</time></trkpt><trkpt lat="31.4707283" lon="-7.39871"><ele>1473.0</ele><time>2026-04-25T13:55:58.376Z</time></trkpt><trkpt lat="31.4708117" lon="-7.39891"><ele>1470.0</ele><time>2026-04-25T13:55:59.376Z</time></trkpt><trkpt lat="31.4708883" lon="-7.399155"><ele>1470.0</ele><time>2026-04-25T13:56:00.376Z</time></trkpt><trkpt lat="31.4709633" lon="-7.39943"><ele>1470.0</ele><time>2026-04-25T13:56:01.376Z</time></trkpt><trkpt lat="31.4710467" lon="-7.3997317"><ele>1476.0</ele><time>2026-04-25T13:56:02.376Z</time></trkpt><trkpt lat="31.47114" lon="-7.4000633"><ele>1482.0</ele><time>2026-04-25T13:56:03.376Z</time></trkpt><trkpt lat="31.4712367" lon="-7.40042"><ele>1469.0</ele><time>2026-04-25T13:56:04.377Z</time></trkpt><trkpt lat="31.471335" lon="-7.40078"><ele>1456.0</ele><time>2026-04-25T13:56:05.376Z</time></trkpt><trkpt lat="31.4714317" lon="-7.40112"><ele>1461.5</ele><time>2026-04-25T13:56:06.376Z</time></trkpt><trkpt lat="31.47152" lon="-7.4014317"><ele>1467.0</ele><time>2026-04-25T13:56:07.376Z</time></trkpt><trkpt lat="31.4715917" lon="-7.4017167"><ele>1467.0</ele><time>2026-04-25T13:56:08.376Z</time></trkpt><trkpt lat="31.4716467" lon="-7.4020033"><ele>1467.0</ele><time>2026-04-25T13:56:09.376Z</time></trkpt><trkpt lat="31.4716617" lon="-7.4023083"><ele>1469.5</ele><time>2026-04-25T13:56:10.376Z</time></trkpt><trkpt lat="31.4716467" lon="-7.4026383"><ele>1472.0</ele><time>2026-04-25T13:56:11.376Z</time></trkpt><trkpt lat="31.4716233" lon="-7.4030033"><ele>1472.0</ele><time>2026-04-25T13:56:12.376Z</time></trkpt><trkpt lat="31.47161" lon="-7.403385"><ele>1472.0</ele><time>2026-04-25T13:56:13.376Z</time></trkpt><trkpt lat="31.4716" lon="-7.4037667"><ele>1476.0</ele><time>2026-04-25T13:56:14.376Z</time></trkpt><trkpt lat="31.47158" lon="-7.404125"><ele>1480.0</ele><time>2026-04-25T13:56:15.376Z</time></trkpt><trkpt lat="31.4715617" lon="-7.4044517"><ele>1482.5</ele><time>2026-04-25T13:56:16.376Z</time></trkpt><trkpt lat="31.47155" lon="-7.4047633"><ele>1485.0</ele><time>2026-04-25T13:56:17.376Z</time></trkpt><trkpt lat="31.47154" lon="-7.4050567"><ele>1485.0</ele><time>2026-04-25T13:56:18.376Z</time></trkpt><trkpt lat="31.4715333" lon="-7.405355"><ele>1485.0</ele><time>2026-04-25T13:56:19.376Z</time></trkpt><trkpt lat="31.471545" lon="-7.4056633"><ele>1489.5</ele><time>2026-04-25T13:56:20.376Z</time></trkpt><trkpt lat="31.4715817" lon="-7.4059767"><ele>1494.0</ele><time>2026-04-25T13:56:21.376Z</time></trkpt><trkpt lat="31.4716583" lon="-7.4062567"><ele>1501.5</ele><time>2026-04-25T13:56:22.376Z</time></trkpt><trkpt lat="31.47177" lon="-7.406515"><ele>1509.0</ele><time>2026-04-25T13:56:23.376Z</time></trkpt><trkpt lat="31.4718817" lon="-7.4067667"><ele>1509.0</ele><time>2026-04-25T13:56:24.376Z</time></trkpt><trkpt lat="31.4719583" lon="-7.4070283"><ele>1509.0</ele><time>2026-04-25T13:56:25.376Z</time></trkpt><trkpt lat="31.4720067" lon="-7.4073083"><ele>1517.5</ele><time>2026-04-25T13:56:26.376Z</time></trkpt><trkpt lat="31.4720217" lon="-7.407615"><ele>1526.0</ele><time>2026-04-25T13:56:27.376Z</time></trkpt><trkpt lat="31.471995" lon="-7.4079317"><ele>1529.0</ele><time>2026-04-25T13:56:28.376Z</time></trkpt><trkpt lat="31.471985" lon="-7.408245"><ele>1532.0</ele><time>2026-04-25T13:56:29.376Z</time></trkpt><trkpt lat="31.471985" lon="-7.408565"><ele>1531.5</ele><time>2026-04-25T13:56:30.376Z</time></trkpt><trkpt lat="31.4720133" lon="-7.40889"><ele>1531.0</ele><time>2026-04-25T13:56:31.376Z</time></trkpt><trkpt lat="31.472075" lon="-7.40923"><ele>1514.5</ele><time>2026-04-25T13:56:32.376Z</time></trkpt><trkpt lat="31.472165" lon="-7.4095867"><ele>1498.0</ele><time>2026-04-25T13:56:33.376Z</time></trkpt><trkpt lat="31.4722683" lon="-7.409955"><ele>1498.0</ele><time>2026-04-25T13:56:34.376Z</time></trkpt><trkpt lat="31.472375" lon="-7.4103217"><ele>1498.0</ele><time>2026-04-25T13:56:35.376Z</time></trkpt><trkpt lat="31.472475" lon="-7.4106717"><ele>1505.5</ele><time>2026-04-25T13:56:36.376Z</time></trkpt><trkpt lat="31.4725733" lon="-7.4109933"><ele>1513.0</ele><time>2026-04-25T13:56:37.377Z</time></trkpt><trkpt lat="31.47266" lon="-7.4113033"><ele>1519.5</ele><time>2026-04-25T13:56:38.376Z</time></trkpt><trkpt lat="31.4727483" lon="-7.4116083"><ele>1526.0</ele><time>2026-04-25T13:56:39.376Z</time></trkpt><trkpt lat="31.472835" lon="-7.4119033"><ele>1531.0</ele><time>2026-04-25T13:56:40.376Z</time></trkpt><trkpt lat="31.4729167" lon="-7.4121983"><ele>1536.0</ele><time>2026-04-25T13:56:41.376Z</time></trkpt><trkpt lat="31.473" lon="-7.412485"><ele>1514.0</ele><time>2026-04-25T13:56:42.376Z</time></trkpt><trkpt lat="31.4730783" lon="-7.4127717"><ele>1492.0</ele><time>2026-04-25T13:56:43.376Z</time></trkpt><trkpt lat="31.473145" lon="-7.4130817"><ele>1492.0</ele><time>2026-04-25T13:56:44.376Z</time></trkpt><trkpt lat="31.4731917" lon="-7.4134167"><ele>1492.0</ele><time>2026-04-25T13:56:45.376Z</time></trkpt><trkpt lat="31.4732267" lon="-7.41378"><ele>1495.5</ele><time>2026-04-25T13:56:46.376Z</time></trkpt><trkpt lat="31.4732717" lon="-7.41416"><ele>1499.0</ele><time>2026-04-25T13:56:47.377Z</time></trkpt><trkpt lat="31.4733333" lon="-7.4145533"><ele>1503.0</ele><time>2026-04-25T13:56:48.376Z</time></trkpt><trkpt lat="31.4734033" lon="-7.4149383"><ele>1507.0</ele><time>2026-04-25T13:56:49.376Z</time></trkpt><trkpt lat="31.4734733" lon="-7.4153017"><ele>1510.0</ele><time>2026-04-25T13:56:50.376Z</time></trkpt><trkpt lat="31.4735517" lon="-7.4156433"><ele>1513.0</ele><time>2026-04-25T13:56:51.376Z</time></trkpt><trkpt lat="31.473625" lon="-7.4159683"><ele>1513.0</ele><time>2026-04-25T13:56:52.376Z</time></trkpt><trkpt lat="31.4736917" lon="-7.416275"><ele>1513.0</ele><time>2026-04-25T13:56:53.376Z</time></trkpt><trkpt lat="31.4737633" lon="-7.41656"><ele>1497.5</ele><time>2026-04-25T13:56:54.376Z</time></trkpt><trkpt lat="31.473845" lon="-7.4168267"><ele>1482.0</ele><time>2026-04-25T13:56:55.376Z</time></trkpt><trkpt lat="31.4739317" lon="-7.41707"><ele>1489.0</ele><time>2026-04-25T13:56:56.376Z</time></trkpt><trkpt lat="31.4740267" lon="-7.4172917"><ele>1496.0</ele><time>2026-04-25T13:56:57.376Z</time></trkpt><trkpt lat="31.4741367" lon="-7.4175083"><ele>1503.0</ele><time>2026-04-25T13:56:58.376Z</time></trkpt><trkpt lat="31.4742717" lon="-7.41774"><ele>1514.0</ele><time>2026-04-25T13:56:59.376Z</time></trkpt><trkpt lat="31.4744167" lon="-7.41799"><ele>1525.0</ele><time>2026-04-25T13:57:00.376Z</time></trkpt><trkpt lat="31.4745617" lon="-7.4182233"><ele>1506.5</ele><time>2026-04-25T13:57:01.376Z</time></trkpt><trkpt lat="31.4747033" lon="-7.4184583"><ele>1488.0</ele><time>2026-04-25T13:57:02.376Z</time></trkpt><trkpt lat="31.474825" lon="-7.418715"><ele>1494.0</ele><time>2026-04-25T13:57:03.376Z</time></trkpt><trkpt lat="31.4749167" lon="-7.4190117"><ele>1500.0</ele><time>2026-04-25T13:57:04.376Z</time></trkpt><trkpt lat="31.4749833" lon="-7.4193433"><ele>1502.0</ele><time>2026-04-25T13:57:05.376Z</time></trkpt><trkpt lat="31.4750333" lon="-7.419695"><ele>1504.0</ele><time>2026-04-25T13:57:06.376Z</time></trkpt><trkpt lat="31.475065" lon="-7.4200467"><ele>1504.0</ele><time>2026-04-25T13:57:07.376Z</time></trkpt><trkpt lat="31.47507" lon="-7.42038"><ele>1504.0</ele><time>2026-04-25T13:57:08.376Z</time></trkpt><trkpt lat="31.4750483" lon="-7.4207117"><ele>1505.0</ele><time>2026-04-25T13:57:09.376Z</time></trkpt><trkpt lat="31.475015" lon="-7.4210567"><ele>1506.0</ele><time>2026-04-25T13:57:10.376Z</time></trkpt><trkpt lat="31.474995" lon="-7.4213933"><ele>1506.0</ele><time>2026-04-25T13:57:11.376Z</time></trkpt><trkpt lat="31.474995" lon="-7.4217367"><ele>1506.0</ele><time>2026-04-25T13:57:12.376Z</time></trkpt><trkpt lat="31.475015" lon="-7.4220867"><ele>1508.5</ele><time>2026-04-25T13:57:13.376Z</time></trkpt><trkpt lat="31.475065" lon="-7.4224483"><ele>1511.0</ele><time>2026-04-25T13:57:14.376Z</time></trkpt><trkpt lat="31.4751533" lon="-7.42279"><ele>1507.5</ele><time>2026-04-25T13:57:15.376Z</time></trkpt><trkpt lat="31.4752483" lon="-7.42311"><ele>1504.0</ele><time>2026-04-25T13:57:16.376Z</time></trkpt><trkpt lat="31.475345" lon="-7.42341"><ele>1504.0</ele><time>2026-04-25T13:57:17.376Z</time></trkpt><trkpt lat="31.4754183" lon="-7.4237033"><ele>1504.0</ele><time>2026-04-25T13:57:18.376Z</time></trkpt><trkpt lat="31.4754667" lon="-7.42401"><ele>1491.0</ele><time>2026-04-25T13:57:19.376Z</time></trkpt><trkpt lat="31.4754983" lon="-7.42434"><ele>1478.0</ele><time>2026-04-25T13:57:20.376Z</time></trkpt><trkpt lat="31.47551" lon="-7.4246883"><ele>1473.5</ele><time>2026-04-25T13:57:21.376Z</time></trkpt><trkpt lat="31.475495" lon="-7.4250567"><ele>1469.0</ele><time>2026-04-25T13:57:22.376Z</time></trkpt><trkpt lat="31.475465" lon="-7.4254167"><ele>1486.0</ele><time>2026-04-25T13:57:23.376Z</time></trkpt><trkpt lat="31.4754283" lon="-7.42577"><ele>1503.0</ele><time>2026-04-25T13:57:24.377Z</time></trkpt><trkpt lat="31.4753983" lon="-7.426115"><ele>1503.5</ele><time>2026-04-25T13:57:25.376Z</time></trkpt><trkpt lat="31.4753817" lon="-7.4264433"><ele>1504.0</ele><time>2026-04-25T13:57:26.376Z</time></trkpt><trkpt lat="31.4753783" lon="-7.42677"><ele>1504.0</ele><time>2026-04-25T13:57:27.376Z</time></trkpt><trkpt lat="31.4753817" lon="-7.4271033"><ele>1504.0</ele><time>2026-04-25T13:57:28.376Z</time></trkpt><trkpt lat="31.4753917" lon="-7.4274217"><ele>1497.0</ele><time>2026-04-25T13:57:29.376Z</time></trkpt><trkpt lat="31.4754" lon="-7.4277317"><ele>1490.0</ele><time>2026-04-25T13:57:30.376Z</time></trkpt><trkpt lat="31.47539" lon="-7.42803"><ele>1485.5</ele><time>2026-04-25T13:57:31.376Z</time></trkpt><trkpt lat="31.47534" lon="-7.4283417"><ele>1481.0</ele><time>2026-04-25T13:57:32.376Z</time></trkpt><trkpt lat="31.4752533" lon="-7.4286717"><ele>1470.0</ele><time>2026-04-25T13:57:33.376Z</time></trkpt><trkpt lat="31.4751267" lon="-7.42902"><ele>1459.0</ele><time>2026-04-25T13:57:34.376Z</time></trkpt><trkpt lat="31.4749733" lon="-7.4293717"><ele>1448.0</ele><time>2026-04-25T13:57:35.376Z</time></trkpt><trkpt lat="31.4748133" lon="-7.4297117"><ele>1437.0</ele><time>2026-04-25T13:57:36.377Z</time></trkpt><trkpt lat="31.4746483" lon="-7.43002"><ele>1443.0</ele><time>2026-04-25T13:57:37.376Z</time></trkpt><trkpt lat="31.4744717" lon="-7.430305"><ele>1449.0</ele><time>2026-04-25T13:57:38.376Z</time></trkpt><trkpt lat="31.4742917" lon="-7.4305783"><ele>1449.0</ele><time>2026-04-25T13:57:39.376Z</time></trkpt><trkpt lat="31.4741167" lon="-7.430825"><ele>1449.0</ele><time>2026-04-25T13:57:40.376Z</time></trkpt><trkpt lat="31.4739583" lon="-7.43106"><ele>1449.0</ele><time>2026-04-25T13:57:41.376Z</time></trkpt><trkpt lat="31.47382" lon="-7.4312967"><ele>1449.0</ele><time>2026-04-25T13:57:42.377Z</time></trkpt><trkpt lat="31.47371" lon="-7.4315483"><ele>1456.0</ele><time>2026-04-25T13:57:43.376Z</time></trkpt><trkpt lat="31.47363" lon="-7.4318033"><ele>1463.0</ele><time>2026-04-25T13:57:44.377Z</time></trkpt><trkpt lat="31.473585" lon="-7.4320717"><ele>1456.0</ele><time>2026-04-25T13:57:45.376Z</time></trkpt><trkpt lat="31.4735833" lon="-7.43235"><ele>1449.0</ele><time>2026-04-25T13:57:46.377Z</time></trkpt><trkpt lat="31.4736183" lon="-7.4326217"><ele>1449.0</ele><time>2026-04-25T13:57:47.376Z</time></trkpt><trkpt lat="31.473685" lon="-7.4328917"><ele>1449.0</ele><time>2026-04-25T13:57:48.376Z</time></trkpt><trkpt lat="31.4737917" lon="-7.4331367"><ele>1444.5</ele><time>2026-04-25T13:57:49.376Z</time></trkpt><trkpt lat="31.4739317" lon="-7.4333667"><ele>1440.0</ele><time>2026-04-25T13:57:50.376Z</time></trkpt><trkpt lat="31.4741017" lon="-7.4335817"><ele>1440.0</ele><time>2026-04-25T13:57:51.376Z</time></trkpt><trkpt lat="31.474295" lon="-7.4337583"><ele>1440.0</ele><time>2026-04-25T13:57:52.377Z</time></trkpt><trkpt lat="31.4744983" lon="-7.4338933"><ele>1436.5</ele><time>2026-04-25T13:57:53.376Z</time></trkpt><trkpt lat="31.4747183" lon="-7.4339783"><ele>1433.0</ele><time>2026-04-25T13:57:54.376Z</time></trkpt><trkpt lat="31.4749383" lon="-7.43403"><ele>1433.0</ele><time>2026-04-25T13:57:55.376Z</time></trkpt><trkpt lat="31.475175" lon="-7.4340383"><ele>1433.0</ele><time>2026-04-25T13:57:56.376Z</time></trkpt><trkpt lat="31.4754333" lon="-7.4340283"><ele>1434.0</ele><time>2026-04-25T13:57:57.376Z</time></trkpt><trkpt lat="31.475705" lon="-7.434015"><ele>1435.0</ele><time>2026-04-25T13:57:58.376Z</time></trkpt><trkpt lat="31.4759917" lon="-7.433995"><ele>1438.5</ele><time>2026-04-25T13:57:59.376Z</time></trkpt><trkpt lat="31.4762867" lon="-7.43398"><ele>1442.0</ele><time>2026-04-25T13:58:00.376Z</time></trkpt><trkpt lat="31.4765883" lon="-7.4339617"><ele>1442.0</ele><time>2026-04-25T13:58:01.376Z</time></trkpt><trkpt lat="31.47689" lon="-7.4339383"><ele>1442.0</ele><time>2026-04-25T13:58:02.376Z</time></trkpt><trkpt lat="31.4771767" lon="-7.433915"><ele>1443.0</ele><time>2026-04-25T13:58:03.376Z</time></trkpt><trkpt lat="31.4774433" lon="-7.4338917"><ele>1444.0</ele><time>2026-04-25T13:58:04.376Z</time></trkpt><trkpt lat="31.477695" lon="-7.4338767"><ele>1444.0</ele><time>2026-04-25T13:58:05.376Z</time></trkpt><trkpt lat="31.47791" lon="-7.4338617"><ele>1444.0</ele><time>2026-04-25T13:58:06.376Z</time></trkpt><trkpt lat="31.4780917" lon="-7.4338917"><ele>1444.0</ele><time>2026-04-25T13:58:07.376Z</time></trkpt><trkpt lat="31.4782483" lon="-7.43396"><ele>1441.0</ele><time>2026-04-25T13:58:08.376Z</time></trkpt><trkpt lat="31.478405" lon="-7.4340783"><ele>1438.0</ele><time>2026-04-25T13:58:09.376Z</time></trkpt><trkpt lat="31.4785583" lon="-7.4342233"><ele>1435.0</ele><time>2026-04-25T13:58:10.376Z</time></trkpt><trkpt lat="31.478685" lon="-7.4343467"><ele>1433.6</ele><time>2026-04-25T13:58:11.376Z</time></trkpt><trkpt lat="31.4787833" lon="-7.43444"><ele>1432.2</ele><time>2026-04-25T13:58:12.376Z</time></trkpt><trkpt lat="31.47886" lon="-7.434505"><ele>1430.8000000000002</ele><time>2026-04-25T13:58:13.376Z</time></trkpt><trkpt lat="31.4789217" lon="-7.4345467"><ele>1429.4</ele><time>2026-04-25T13:58:14.376Z</time></trkpt><trkpt lat="31.478985" lon="-7.434585"><ele>1428.0</ele><time>2026-04-25T13:58:15.376Z</time></trkpt><trkpt lat="31.4790633" lon="-7.4346317"><ele>1428.0</ele><time>2026-04-25T13:58:16.376Z</time></trkpt><trkpt lat="31.4791567" lon="-7.4346633"><ele>1428.0</ele><time>2026-04-25T13:58:17.376Z</time></trkpt><trkpt lat="31.47927" lon="-7.4346667"><ele>1428.0</ele><time>2026-04-25T13:58:18.376Z</time></trkpt><trkpt lat="31.4794033" lon="-7.434625"><ele>1428.0</ele><time>2026-04-25T13:58:19.376Z</time></trkpt><trkpt lat="31.47954" lon="-7.4345267"><ele>1432.6666666666667</ele><time>2026-04-25T13:58:20.376Z</time></trkpt><trkpt lat="31.4796817" lon="-7.43437"><ele>1437.3333333333335</ele><time>2026-04-25T13:58:21.376Z</time></trkpt><trkpt lat="31.4798233" lon="-7.4341733"><ele>1442.0</ele><time>2026-04-25T13:58:22.376Z</time></trkpt><trkpt lat="31.479965" lon="-7.433965"><ele>1432.6666666666667</ele><time>2026-04-25T13:58:23.376Z</time></trkpt><trkpt lat="31.4801" lon="-7.4337767"><ele>1423.3333333333333</ele><time>2026-04-25T13:58:24.376Z</time></trkpt><trkpt lat="31.4802267" lon="-7.4336"><ele>1414.0</ele><time>2026-04-25T13:58:25.377Z</time></trkpt><trkpt lat="31.480355" lon="-7.43344"><ele>1421.0</ele><time>2026-04-25T13:58:26.376Z</time></trkpt><trkpt lat="31.4804933" lon="-7.4333083"><ele>1428.0</ele><time>2026-04-25T13:58:27.376Z</time></trkpt><trkpt lat="31.4806633" lon="-7.4331983"><ele>1435.0</ele><time>2026-04-25T13:58:28.376Z</time></trkpt><trkpt lat="31.480865" lon="-7.4331083"><ele>1435.0</ele><time>2026-04-25T13:58:29.376Z</time></trkpt><trkpt lat="31.4810933" lon="-7.4330217"><ele>1435.0</ele><time>2026-04-25T13:58:30.377Z</time></trkpt><trkpt lat="31.4813333" lon="-7.4329283"><ele>1427.0</ele><time>2026-04-25T13:58:31.376Z</time></trkpt><trkpt lat="31.4815617" lon="-7.4328317"><ele>1419.0</ele><time>2026-04-25T13:58:32.376Z</time></trkpt><trkpt lat="31.4817817" lon="-7.4327283"><ele>1419.0</ele><time>2026-04-25T13:58:33.376Z</time></trkpt><trkpt lat="31.4819717" lon="-7.4326083"><ele>1419.0</ele><time>2026-04-25T13:58:34.376Z</time></trkpt><trkpt lat="31.4821367" lon="-7.4324617"><ele>1419.0</ele><time>2026-04-25T13:58:35.376Z</time></trkpt><trkpt lat="31.4822733" lon="-7.4322783"><ele>1415.3333333333333</ele><time>2026-04-25T13:58:36.376Z</time></trkpt><trkpt lat="31.4823717" lon="-7.4320767"><ele>1411.6666666666665</ele><time>2026-04-25T13:58:37.376Z</time></trkpt><trkpt lat="31.4824733" lon="-7.431885"><ele>1408.0</ele><time>2026-04-25T13:58:38.376Z</time></trkpt><trkpt lat="31.4825867" lon="-7.43173"><ele>1408.0</ele><time>2026-04-25T13:58:39.376Z</time></trkpt><trkpt lat="31.4827333" lon="-7.431615"><ele>1408.0</ele><time>2026-04-25T13:58:40.376Z</time></trkpt><trkpt lat="31.4829083" lon="-7.43153"><ele>1408.0</ele><time>2026-04-25T13:58:41.376Z</time></trkpt><trkpt lat="31.4831017" lon="-7.4314783"><ele>1412.0</ele><time>2026-04-25T13:58:42.376Z</time></trkpt><trkpt lat="31.4832917" lon="-7.4314667"><ele>1416.0</ele><time>2026-04-25T13:58:43.376Z</time></trkpt><trkpt lat="31.4834867" lon="-7.4314917"><ele>1420.0</ele><time>2026-04-25T13:58:44.376Z</time></trkpt><trkpt lat="31.4836967" lon="-7.4315533"><ele>1419.5</ele><time>2026-04-25T13:58:45.376Z</time></trkpt><trkpt lat="31.4839217" lon="-7.4316433"><ele>1419.0</ele><time>2026-04-25T13:58:46.376Z</time></trkpt><trkpt lat="31.4841483" lon="-7.4317017"><ele>1419.0</ele><time>2026-04-25T13:58:47.376Z</time></trkpt><trkpt lat="31.4843733" lon="-7.4317183"><ele>1419.0</ele><time>2026-04-25T13:58:48.376Z</time></trkpt><trkpt lat="31.4845933" lon="-7.4317267"><ele>1419.0</ele><time>2026-04-25T13:58:49.377Z</time></trkpt><trkpt lat="31.484815" lon="-7.4317333"><ele>1419.0</ele><time>2026-04-25T13:58:50.376Z</time></trkpt><trkpt lat="31.4850267" lon="-7.431745"><ele>1419.0</ele><time>2026-04-25T13:58:51.376Z</time></trkpt><trkpt lat="31.4852283" lon="-7.4317583"><ele>1419.0</ele><time>2026-04-25T13:58:52.376Z</time></trkpt><trkpt lat="31.48542" lon="-7.4317733"><ele>1415.3333333333333</ele><time>2026-04-25T13:58:53.376Z</time></trkpt><trkpt lat="31.485595" lon="-7.4318017"><ele>1411.6666666666665</ele><time>2026-04-25T13:58:54.376Z</time></trkpt><trkpt lat="31.4857617" lon="-7.4318383"><ele>1408.0</ele><time>2026-04-25T13:58:55.376Z</time></trkpt><trkpt lat="31.4859233" lon="-7.431855"><ele>1408.0</ele><time>2026-04-25T13:58:56.376Z</time></trkpt><trkpt lat="31.4860933" lon="-7.4318667"><ele>1408.0</ele><time>2026-04-25T13:58:57.376Z</time></trkpt><trkpt lat="31.4862567" lon="-7.431875"><ele>1408.0</ele><time>2026-04-25T13:58:58.376Z</time></trkpt><trkpt lat="31.4863967" lon="-7.4318917"><ele>1410.4</ele><time>2026-04-25T13:58:59.376Z</time></trkpt><trkpt lat="31.4865117" lon="-7.4319183"><ele>1412.8000000000002</ele><time>2026-04-25T13:59:00.376Z</time></trkpt><trkpt lat="31.486605" lon="-7.4319683"><ele>1415.2</ele><time>2026-04-25T13:59:01.376Z</time></trkpt><trkpt lat="31.486665" lon="-7.4320633"><ele>1417.6</ele><time>2026-04-25T13:59:02.376Z</time></trkpt><trkpt lat="31.4867167" lon="-7.43219"><ele>1420.0</ele><time>2026-04-25T13:59:03.376Z</time></trkpt><trkpt lat="31.4867683" lon="-7.4323333"><ele>1420.0</ele><time>2026-04-25T13:59:04.377Z</time></trkpt><trkpt lat="31.48682" lon="-7.4325017"><ele>1420.0</ele><time>2026-04-25T13:59:05.376Z</time></trkpt><trkpt lat="31.4868667" lon="-7.4326717"><ele>1420.0</ele><time>2026-04-25T13:59:06.376Z</time></trkpt><trkpt lat="31.4869017" lon="-7.4328267"><ele>1420.0</ele><time>2026-04-25T13:59:07.376Z</time></trkpt><trkpt lat="31.4869233" lon="-7.4329533"><ele>1424.3333333333333</ele><time>2026-04-25T13:59:08.376Z</time></trkpt><trkpt lat="31.4869417" lon="-7.4330517"><ele>1428.6666666666665</ele><time>2026-04-25T13:59:09.376Z</time></trkpt><trkpt lat="31.4869533" lon="-7.4331617"><ele>1433.0</ele><time>2026-04-25T13:59:11.376Z</time></trkpt><trkpt lat="31.4869633" lon="-7.4332617"><ele>1437.3333333333333</ele><time>2026-04-25T13:59:13.376Z</time></trkpt><trkpt lat="31.4869683" lon="-7.4333383"><ele>1441.6666666666667</ele><time>2026-04-25T13:59:14.376Z</time></trkpt><trkpt lat="31.4869883" lon="-7.4334367"><ele>1446.0</ele><time>2026-04-25T13:59:15.376Z</time></trkpt><trkpt lat="31.487035" lon="-7.433555"><ele>1444.0</ele><time>2026-04-25T13:59:16.376Z</time></trkpt><trkpt lat="31.4871217" lon="-7.4337067"><ele>1442.0</ele><time>2026-04-25T13:59:17.376Z</time></trkpt><trkpt lat="31.48723" lon="-7.43388"><ele>1440.0</ele><time>2026-04-25T13:59:18.376Z</time></trkpt><trkpt lat="31.4873467" lon="-7.4340817"><ele>1440.0</ele><time>2026-04-25T13:59:19.376Z</time></trkpt><trkpt lat="31.4874733" lon="-7.4342967"><ele>1440.0</ele><time>2026-04-25T13:59:20.376Z</time></trkpt><trkpt lat="31.487605" lon="-7.4345317"><ele>1456.5</ele><time>2026-04-25T13:59:21.376Z</time></trkpt><trkpt lat="31.48775" lon="-7.4347683"><ele>1473.0</ele><time>2026-04-25T13:59:22.376Z</time></trkpt><trkpt lat="31.487885" lon="-7.43499"><ele>1465.6666666666667</ele><time>2026-04-25T13:59:23.376Z</time></trkpt><trkpt lat="31.4879967" lon="-7.4352"><ele>1458.3333333333335</ele><time>2026-04-25T13:59:24.376Z</time></trkpt><trkpt lat="31.4881033" lon="-7.4354033"><ele>1451.0</ele><time>2026-04-25T13:59:25.376Z</time></trkpt><trkpt lat="31.4882183" lon="-7.435615"><ele>1451.0</ele><time>2026-04-25T13:59:26.376Z</time></trkpt><trkpt lat="31.4883483" lon="-7.43584"><ele>1451.0</ele><time>2026-04-25T13:59:27.376Z</time></trkpt><trkpt lat="31.4885" lon="-7.436065"><ele>1451.0</ele><time>2026-04-25T13:59:28.376Z</time></trkpt><trkpt lat="31.4886783" lon="-7.4362967"><ele>1451.0</ele><time>2026-04-25T13:59:29.376Z</time></trkpt><trkpt lat="31.48885" lon="-7.436525"><ele>1444.0</ele><time>2026-04-25T13:59:30.376Z</time></trkpt><trkpt lat="31.4889967" lon="-7.4367383"><ele>1437.0</ele><time>2026-04-25T13:59:31.376Z</time></trkpt><trkpt lat="31.48913" lon="-7.43694"><ele>1448.3333333333333</ele><time>2026-04-25T13:59:32.376Z</time></trkpt><trkpt lat="31.48926" lon="-7.4371417"><ele>1459.6666666666665</ele><time>2026-04-25T13:59:33.376Z</time></trkpt><trkpt lat="31.489385" lon="-7.4373367"><ele>1471.0</ele><time>2026-04-25T13:59:34.376Z</time></trkpt><trkpt lat="31.4894883" lon="-7.4375267"><ele>1471.0</ele><time>2026-04-25T13:59:35.376Z</time></trkpt><trkpt lat="31.48958" lon="-7.4377267"><ele>1471.0</ele><time>2026-04-25T13:59:36.376Z</time></trkpt><trkpt lat="31.4896467" lon="-7.4379383"><ele>1471.0</ele><time>2026-04-25T13:59:37.376Z</time></trkpt><trkpt lat="31.489695" lon="-7.4381717"><ele>1462.6666666666665</ele><time>2026-04-25T13:59:38.376Z</time></trkpt><trkpt lat="31.489725" lon="-7.4384267"><ele>1454.3333333333333</ele><time>2026-04-25T13:59:39.376Z</time></trkpt><trkpt lat="31.4897267" lon="-7.43868"><ele>1446.0</ele><time>2026-04-25T13:59:40.376Z</time></trkpt><trkpt lat="31.4896967" lon="-7.43892"><ele>1446.0</ele><time>2026-04-25T13:59:41.376Z</time></trkpt><trkpt lat="31.48964" lon="-7.4391633"><ele>1446.0</ele><time>2026-04-25T13:59:42.376Z</time></trkpt><trkpt lat="31.4895567" lon="-7.4393933"><ele>1446.0</ele><time>2026-04-25T13:59:43.376Z</time></trkpt><trkpt lat="31.4894433" lon="-7.4396167"><ele>1447.5</ele><time>2026-04-25T13:59:44.376Z</time></trkpt><trkpt lat="31.4892983" lon="-7.439825"><ele>1449.0</ele><time>2026-04-25T13:59:45.376Z</time></trkpt><trkpt lat="31.489135" lon="-7.440035"><ele>1449.0</ele><time>2026-04-25T13:59:46.376Z</time></trkpt><trkpt lat="31.4889633" lon="-7.4402417"><ele>1449.0</ele><time>2026-04-25T13:59:47.376Z</time></trkpt><trkpt lat="31.4887917" lon="-7.4404533"><ele>1448.5</ele><time>2026-04-25T13:59:48.376Z</time></trkpt><trkpt lat="31.4886267" lon="-7.44066"><ele>1448.0</ele><time>2026-04-25T13:59:49.376Z</time></trkpt><trkpt lat="31.4884767" lon="-7.4408783"><ele>1448.0</ele><time>2026-04-25T13:59:50.376Z</time></trkpt><trkpt lat="31.488355" lon="-7.4411167"><ele>1448.0</ele><time>2026-04-25T13:59:51.376Z</time></trkpt><trkpt lat="31.488255" lon="-7.4413867"><ele>1447.0</ele><time>2026-04-25T13:59:52.376Z</time></trkpt><trkpt lat="31.48819" lon="-7.44168"><ele>1446.0</ele><time>2026-04-25T13:59:53.376Z</time></trkpt><trkpt lat="31.4881583" lon="-7.44199"><ele>1443.5</ele><time>2026-04-25T13:59:54.376Z</time></trkpt><trkpt lat="31.4881567" lon="-7.4422867"><ele>1441.0</ele><time>2026-04-25T13:59:55.376Z</time></trkpt><trkpt lat="31.4881783" lon="-7.442565"><ele>1441.0</ele><time>2026-04-25T13:59:56.376Z</time></trkpt><trkpt lat="31.4881967" lon="-7.4428333"><ele>1441.0</ele><time>2026-04-25T13:59:57.376Z</time></trkpt><trkpt lat="31.48821" lon="-7.44309"><ele>1441.0</ele><time>2026-04-25T13:59:58.376Z</time></trkpt><trkpt lat="31.4882183" lon="-7.44333"><ele>1437.3333333333333</ele><time>2026-04-25T13:59:59.376Z</time></trkpt><trkpt lat="31.4882183" lon="-7.4435483"><ele>1433.6666666666667</ele><time>2026-04-25T14:00:00.376Z</time></trkpt><trkpt lat="31.4882" lon="-7.4437583"><ele>1430.0</ele><time>2026-04-25T14:00:01.376Z</time></trkpt><trkpt lat="31.4881783" lon="-7.4439683"><ele>1424.3333333333335</ele><time>2026-04-25T14:00:02.376Z</time></trkpt><trkpt lat="31.4881333" lon="-7.4441733"><ele>1418.6666666666667</ele><time>2026-04-25T14:00:03.376Z</time></trkpt><trkpt lat="31.4880567" lon="-7.4443967"><ele>1413.0</ele><time>2026-04-25T14:00:04.376Z</time></trkpt><trkpt lat="31.4879517" lon="-7.444635"><ele>1416.5</ele><time>2026-04-25T14:00:05.376Z</time></trkpt><trkpt lat="31.4878333" lon="-7.4449"><ele>1420.0</ele><time>2026-04-25T14:00:06.376Z</time></trkpt><trkpt lat="31.4877033" lon="-7.445195"><ele>1409.5</ele><time>2026-04-25T14:00:07.376Z</time></trkpt><trkpt lat="31.4875733" lon="-7.4454967"><ele>1399.0</ele><time>2026-04-25T14:00:08.376Z</time></trkpt><trkpt lat="31.4874517" lon="-7.4457833"><ele>1399.0</ele><time>2026-04-25T14:00:09.376Z</time></trkpt><trkpt lat="31.4873367" lon="-7.4460583"><ele>1399.0</ele><time>2026-04-25T14:00:10.376Z</time></trkpt><trkpt lat="31.4872133" lon="-7.446315"><ele>1397.5</ele><time>2026-04-25T14:00:11.376Z</time></trkpt><trkpt lat="31.4870833" lon="-7.446555"><ele>1396.0</ele><time>2026-04-25T14:00:12.376Z</time></trkpt><trkpt lat="31.4869433" lon="-7.4467733"><ele>1396.0</ele><time>2026-04-25T14:00:13.376Z</time></trkpt><trkpt lat="31.4867883" lon="-7.4469617"><ele>1396.0</ele><time>2026-04-25T14:00:14.376Z</time></trkpt><trkpt lat="31.486625" lon="-7.4471283"><ele>1396.0</ele><time>2026-04-25T14:00:15.376Z</time></trkpt><trkpt lat="31.4864633" lon="-7.4472933"><ele>1396.0</ele><time>2026-04-25T14:00:16.376Z</time></trkpt><trkpt lat="31.486315" lon="-7.44747"><ele>1396.0</ele><time>2026-04-25T14:00:17.376Z</time></trkpt><trkpt lat="31.4862067" lon="-7.4476517"><ele>1396.0</ele><time>2026-04-25T14:00:18.376Z</time></trkpt><trkpt lat="31.486125" lon="-7.4478767"><ele>1391.3333333333333</ele><time>2026-04-25T14:00:19.376Z</time></trkpt><trkpt lat="31.4860783" lon="-7.4481233"><ele>1386.6666666666667</ele><time>2026-04-25T14:00:20.376Z</time></trkpt><trkpt lat="31.4860233" lon="-7.4483617"><ele>1382.0</ele><time>2026-04-25T14:00:21.376Z</time></trkpt><trkpt lat="31.4859567" lon="-7.4485967"><ele>1378.0</ele><time>2026-04-25T14:00:22.376Z</time></trkpt><trkpt lat="31.4858467" lon="-7.4488133"><ele>1374.0</ele><time>2026-04-25T14:00:23.376Z</time></trkpt><trkpt lat="31.4857017" lon="-7.4490083"><ele>1370.0</ele><time>2026-04-25T14:00:24.376Z</time></trkpt><trkpt lat="31.485525" lon="-7.4491883"><ele>1375.0</ele><time>2026-04-25T14:00:25.376Z</time></trkpt><trkpt lat="31.4853133" lon="-7.449355"><ele>1380.0</ele><time>2026-04-25T14:00:26.376Z</time></trkpt><trkpt lat="31.4850733" lon="-7.4494967"><ele>1380.0</ele><time>2026-04-25T14:00:27.376Z</time></trkpt><trkpt lat="31.4848283" lon="-7.4496233"><ele>1380.0</ele><time>2026-04-25T14:00:28.376Z</time></trkpt><trkpt lat="31.484595" lon="-7.4497333"><ele>1377.6666666666667</ele><time>2026-04-25T14:00:29.376Z</time></trkpt><trkpt lat="31.48438" lon="-7.4498533"><ele>1375.3333333333335</ele><time>2026-04-25T14:00:30.376Z</time></trkpt><trkpt lat="31.4842" lon="-7.44998"><ele>1373.0</ele><time>2026-04-25T14:00:31.376Z</time></trkpt><trkpt lat="31.48407" lon="-7.4501233"><ele>1373.0</ele><time>2026-04-25T14:00:32.376Z</time></trkpt><trkpt lat="31.4839817" lon="-7.4502933"><ele>1373.0</ele><time>2026-04-25T14:00:33.376Z</time></trkpt><trkpt lat="31.4839233" lon="-7.4504783"><ele>1373.0</ele><time>2026-04-25T14:00:34.376Z</time></trkpt><trkpt lat="31.4839083" lon="-7.4506833"><ele>1370.6666666666667</ele><time>2026-04-25T14:00:35.376Z</time></trkpt><trkpt lat="31.4839233" lon="-7.4508767"><ele>1368.3333333333333</ele><time>2026-04-25T14:00:36.377Z</time></trkpt><trkpt lat="31.4839817" lon="-7.4510617"><ele>1366.0</ele><time>2026-04-25T14:00:37.376Z</time></trkpt><trkpt lat="31.484075" lon="-7.4512067"><ele>1369.3333333333333</ele><time>2026-04-25T14:00:38.376Z</time></trkpt><trkpt lat="31.4842017" lon="-7.4513167"><ele>1372.6666666666667</ele><time>2026-04-25T14:00:39.376Z</time></trkpt><trkpt lat="31.48436" lon="-7.4513833"><ele>1376.0</ele><time>2026-04-25T14:00:40.376Z</time></trkpt><trkpt lat="31.4845433" lon="-7.4514117"><ele>1374.3333333333335</ele><time>2026-04-25T14:00:41.376Z</time></trkpt><trkpt lat="31.4847383" lon="-7.4513883"><ele>1372.6666666666667</ele><time>2026-04-25T14:00:42.376Z</time></trkpt><trkpt lat="31.484955" lon="-7.451315"><ele>1371.0</ele><time>2026-04-25T14:00:43.376Z</time></trkpt><trkpt lat="31.48519" lon="-7.4511983"><ele>1364.0</ele><time>2026-04-25T14:00:44.376Z</time></trkpt><trkpt lat="31.4854283" lon="-7.4510567"><ele>1357.0</ele><time>2026-04-25T14:00:45.377Z</time></trkpt><trkpt lat="31.4856717" lon="-7.4509417"><ele>1356.0</ele><time>2026-04-25T14:00:46.377Z</time></trkpt><trkpt lat="31.4859167" lon="-7.45087"><ele>1355.0</ele><time>2026-04-25T14:00:47.376Z</time></trkpt><trkpt lat="31.4861833" lon="-7.45083"><ele>1350.5</ele><time>2026-04-25T14:00:48.376Z</time></trkpt><trkpt lat="31.48648" lon="-7.4508383"><ele>1346.0</ele><time>2026-04-25T14:00:49.376Z</time></trkpt><trkpt lat="31.4867917" lon="-7.4508783"><ele>1346.0</ele><time>2026-04-25T14:00:50.376Z</time></trkpt><trkpt lat="31.4870883" lon="-7.4509383"><ele>1346.0</ele><time>2026-04-25T14:00:51.376Z</time></trkpt><trkpt lat="31.4873733" lon="-7.4509817"><ele>1341.5</ele><time>2026-04-25T14:00:52.376Z</time></trkpt><trkpt lat="31.48765" lon="-7.4510233"><ele>1337.0</ele><time>2026-04-25T14:00:53.376Z</time></trkpt><trkpt lat="31.4879183" lon="-7.4510683"><ele>1332.5</ele><time>2026-04-25T14:00:54.376Z</time></trkpt><trkpt lat="31.4881833" lon="-7.451095"><ele>1328.0</ele><time>2026-04-25T14:00:55.376Z</time></trkpt><trkpt lat="31.4884333" lon="-7.4511017"><ele>1328.0</ele><time>2026-04-25T14:00:56.376Z</time></trkpt><trkpt lat="31.4886733" lon="-7.4510667"><ele>1328.0</ele><time>2026-04-25T14:00:57.376Z</time></trkpt><trkpt lat="31.4888967" lon="-7.451"><ele>1324.6666666666667</ele><time>2026-04-25T14:00:58.376Z</time></trkpt><trkpt lat="31.4891133" lon="-7.4509517"><ele>1321.3333333333333</ele><time>2026-04-25T14:00:59.376Z</time></trkpt><trkpt lat="31.4893283" lon="-7.450945"><ele>1318.0</ele><time>2026-04-25T14:01:00.376Z</time></trkpt><trkpt lat="31.48953" lon="-7.450975"><ele>1316.3333333333333</ele><time>2026-04-25T14:01:01.376Z</time></trkpt><trkpt lat="31.4897267" lon="-7.451035"><ele>1314.6666666666667</ele><time>2026-04-25T14:01:02.376Z</time></trkpt><trkpt lat="31.4899167" lon="-7.451085"><ele>1313.0</ele><time>2026-04-25T14:01:03.376Z</time></trkpt><trkpt lat="31.4901033" lon="-7.4511233"><ele>1313.0</ele><time>2026-04-25T14:01:04.376Z</time></trkpt><trkpt lat="31.4902883" lon="-7.4511583"><ele>1313.0</ele><time>2026-04-25T14:01:05.376Z</time></trkpt><trkpt lat="31.4904683" lon="-7.451195"><ele>1313.0</ele><time>2026-04-25T14:01:06.376Z</time></trkpt><trkpt lat="31.49064" lon="-7.4512317"><ele>1313.6666666666667</ele><time>2026-04-25T14:01:07.376Z</time></trkpt><trkpt lat="31.490815" lon="-7.4512683"><ele>1314.3333333333333</ele><time>2026-04-25T14:01:08.376Z</time></trkpt><trkpt lat="31.4909817" lon="-7.4513183"><ele>1315.0</ele><time>2026-04-25T14:01:09.376Z</time></trkpt><trkpt lat="31.4911483" lon="-7.4513867"><ele>1311.3333333333333</ele><time>2026-04-25T14:01:10.376Z</time></trkpt><trkpt lat="31.491305" lon="-7.4514917"><ele>1307.6666666666667</ele><time>2026-04-25T14:01:11.376Z</time></trkpt><trkpt lat="31.4914567" lon="-7.4516167"><ele>1304.0</ele><time>2026-04-25T14:01:12.376Z</time></trkpt><trkpt lat="31.4916117" lon="-7.45175"><ele>1304.0</ele><time>2026-04-25T14:01:13.376Z</time></trkpt><trkpt lat="31.49178" lon="-7.4518667"><ele>1304.0</ele><time>2026-04-25T14:01:14.376Z</time></trkpt><trkpt lat="31.49196" lon="-7.45197"><ele>1304.0</ele><time>2026-04-25T14:01:15.376Z</time></trkpt><trkpt lat="31.4921367" lon="-7.4520583"><ele>1304.3333333333335</ele><time>2026-04-25T14:01:16.376Z</time></trkpt><trkpt lat="31.492315" lon="-7.452135"><ele>1304.6666666666667</ele><time>2026-04-25T14:01:17.376Z</time></trkpt><trkpt lat="31.492505" lon="-7.4522117"><ele>1305.0</ele><time>2026-04-25T14:01:18.376Z</time></trkpt><trkpt lat="31.4927" lon="-7.4523083"><ele>1305.0</ele><time>2026-04-25T14:01:19.376Z</time></trkpt><trkpt lat="31.4929017" lon="-7.4524233"><ele>1305.0</ele><time>2026-04-25T14:01:20.376Z</time></trkpt><trkpt lat="31.4931083" lon="-7.4525633"><ele>1297.5</ele><time>2026-04-25T14:01:21.376Z</time></trkpt><trkpt lat="31.4933217" lon="-7.4527283"><ele>1290.0</ele><time>2026-04-25T14:01:22.376Z</time></trkpt><trkpt lat="31.4935367" lon="-7.4529183"><ele>1286.0</ele><time>2026-04-25T14:01:23.376Z</time></trkpt><trkpt lat="31.49374" lon="-7.4531183"><ele>1282.0</ele><time>2026-04-25T14:01:24.376Z</time></trkpt><trkpt lat="31.4939367" lon="-7.4533383"><ele>1282.0</ele><time>2026-04-25T14:01:25.376Z</time></trkpt><trkpt lat="31.4941317" lon="-7.4535867"><ele>1282.0</ele><time>2026-04-25T14:01:26.376Z</time></trkpt><trkpt lat="31.4943167" lon="-7.45386"><ele>1287.5</ele><time>2026-04-25T14:01:27.376Z</time></trkpt><trkpt lat="31.494495" lon="-7.4541583"><ele>1293.0</ele><time>2026-04-25T14:01:28.376Z</time></trkpt><trkpt lat="31.49467" lon="-7.454475"><ele>1281.0</ele><time>2026-04-25T14:01:29.377Z</time></trkpt><trkpt lat="31.4948383" lon="-7.4547933"><ele>1269.0</ele><time>2026-04-25T14:01:30.376Z</time></trkpt><trkpt lat="31.495" lon="-7.4551167"><ele>1276.0</ele><time>2026-04-25T14:01:31.376Z</time></trkpt><trkpt lat="31.495155" lon="-7.4554617"><ele>1283.0</ele><time>2026-04-25T14:01:32.376Z</time></trkpt><trkpt lat="31.4952917" lon="-7.4558183"><ele>1283.0</ele><time>2026-04-25T14:01:33.376Z</time></trkpt><trkpt lat="31.4954033" lon="-7.456175"><ele>1283.0</ele><time>2026-04-25T14:01:34.376Z</time></trkpt><trkpt lat="31.495505" lon="-7.4565167"><ele>1270.5</ele><time>2026-04-25T14:01:35.376Z</time></trkpt><trkpt lat="31.4956033" lon="-7.456845"><ele>1258.0</ele><time>2026-04-25T14:01:36.376Z</time></trkpt><trkpt lat="31.4957" lon="-7.4571583"><ele>1258.0</ele><time>2026-04-25T14:01:37.376Z</time></trkpt><trkpt lat="31.4957917" lon="-7.4574633"><ele>1258.0</ele><time>2026-04-25T14:01:38.376Z</time></trkpt><trkpt lat="31.4958833" lon="-7.4577533"><ele>1261.0</ele><time>2026-04-25T14:01:39.376Z</time></trkpt><trkpt lat="31.4959633" lon="-7.4580317"><ele>1264.0</ele><time>2026-04-25T14:01:40.376Z</time></trkpt><trkpt lat="31.49605" lon="-7.458295"><ele>1264.0</ele><time>2026-04-25T14:01:41.376Z</time></trkpt><trkpt lat="31.4961233" lon="-7.4585483"><ele>1264.0</ele><time>2026-04-25T14:01:42.376Z</time></trkpt><trkpt lat="31.4961933" lon="-7.4587917"><ele>1264.0</ele><time>2026-04-25T14:01:43.376Z</time></trkpt><trkpt lat="31.4962417" lon="-7.4590317"><ele>1257.0</ele><time>2026-04-25T14:01:44.376Z</time></trkpt><trkpt lat="31.49627" lon="-7.459275"><ele>1250.0</ele><time>2026-04-25T14:01:45.376Z</time></trkpt><trkpt lat="31.4962717" lon="-7.45953"><ele>1243.0</ele><time>2026-04-25T14:01:46.376Z</time></trkpt><trkpt lat="31.4962717" lon="-7.4598067"><ele>1243.0</ele><time>2026-04-25T14:01:47.376Z</time></trkpt><trkpt lat="31.49626" lon="-7.4600833"><ele>1243.0</ele><time>2026-04-25T14:01:48.377Z</time></trkpt><trkpt lat="31.4962383" lon="-7.4603567"><ele>1246.0</ele><time>2026-04-25T14:01:49.376Z</time></trkpt><trkpt lat="31.4962133" lon="-7.4606233"><ele>1249.0</ele><time>2026-04-25T14:01:50.376Z</time></trkpt><trkpt lat="31.4962017" lon="-7.4608983"><ele>1249.0</ele><time>2026-04-25T14:01:51.376Z</time></trkpt><trkpt lat="31.496215" lon="-7.46118"><ele>1249.0</ele><time>2026-04-25T14:01:52.376Z</time></trkpt><trkpt lat="31.4962583" lon="-7.4614667"><ele>1241.0</ele><time>2026-04-25T14:01:53.376Z</time></trkpt><trkpt lat="31.496335" lon="-7.4617417"><ele>1233.0</ele><time>2026-04-25T14:01:54.376Z</time></trkpt><trkpt lat="31.4964533" lon="-7.461985"><ele>1240.0</ele><time>2026-04-25T14:01:55.376Z</time></trkpt><trkpt lat="31.496595" lon="-7.4622117"><ele>1247.0</ele><time>2026-04-25T14:01:56.377Z</time></trkpt><trkpt lat="31.4967617" lon="-7.4624133"><ele>1247.0</ele><time>2026-04-25T14:01:57.376Z</time></trkpt><trkpt lat="31.4969367" lon="-7.4625967"><ele>1247.0</ele><time>2026-04-25T14:01:58.376Z</time></trkpt><trkpt lat="31.4971067" lon="-7.462755"><ele>1245.0</ele><time>2026-04-25T14:01:59.376Z</time></trkpt><trkpt lat="31.497275" lon="-7.4629"><ele>1243.0</ele><time>2026-04-25T14:02:00.376Z</time></trkpt><trkpt lat="31.4974383" lon="-7.4630383"><ele>1241.0</ele><time>2026-04-25T14:02:01.376Z</time></trkpt><trkpt lat="31.4975967" lon="-7.46316"><ele>1241.0</ele><time>2026-04-25T14:02:02.376Z</time></trkpt><trkpt lat="31.49775" lon="-7.4632767"><ele>1241.0</ele><time>2026-04-25T14:02:03.376Z</time></trkpt><trkpt lat="31.49791" lon="-7.463375"><ele>1241.0</ele><time>2026-04-25T14:02:04.376Z</time></trkpt><trkpt lat="31.498075" lon="-7.4634567"><ele>1237.3333333333335</ele><time>2026-04-25T14:02:05.376Z</time></trkpt><trkpt lat="31.49825" lon="-7.4635283"><ele>1233.6666666666667</ele><time>2026-04-25T14:02:06.376Z</time></trkpt><trkpt lat="31.4984267" lon="-7.4635983"><ele>1230.0</ele><time>2026-04-25T14:02:07.376Z</time></trkpt><trkpt lat="31.4986" lon="-7.4636583"><ele>1229.6666666666667</ele><time>2026-04-25T14:02:08.376Z</time></trkpt><trkpt lat="31.4987833" lon="-7.4636967"><ele>1229.3333333333335</ele><time>2026-04-25T14:02:09.376Z</time></trkpt><trkpt lat="31.4989733" lon="-7.4637367"><ele>1229.0</ele><time>2026-04-25T14:02:10.376Z</time></trkpt><trkpt lat="31.4991683" lon="-7.4637883"><ele>1229.0</ele><time>2026-04-25T14:02:11.376Z</time></trkpt><trkpt lat="31.499375" lon="-7.4638383"><ele>1229.0</ele><time>2026-04-25T14:02:12.376Z</time></trkpt><trkpt lat="31.499595" lon="-7.4639067"><ele>1229.0</ele><time>2026-04-25T14:02:13.376Z</time></trkpt><trkpt lat="31.4998333" lon="-7.46398"><ele>1227.0</ele><time>2026-04-25T14:02:14.376Z</time></trkpt><trkpt lat="31.5000917" lon="-7.4640483"><ele>1225.0</ele><time>2026-04-25T14:02:15.376Z</time></trkpt><trkpt lat="31.5003767" lon="-7.46411"><ele>1220.5</ele><time>2026-04-25T14:02:16.376Z</time></trkpt><trkpt lat="31.50067" lon="-7.464175"><ele>1216.0</ele><time>2026-04-25T14:02:17.377Z</time></trkpt><trkpt lat="31.5009617" lon="-7.46425"><ele>1216.0</ele><time>2026-04-25T14:02:18.376Z</time></trkpt><trkpt lat="31.5012433" lon="-7.4643183"><ele>1216.0</ele><time>2026-04-25T14:02:19.376Z</time></trkpt><trkpt lat="31.5015217" lon="-7.4643517"><ele>1211.5</ele><time>2026-04-25T14:02:20.376Z</time></trkpt><trkpt lat="31.5018117" lon="-7.4643433"><ele>1207.0</ele><time>2026-04-25T14:02:21.376Z</time></trkpt><trkpt lat="31.5021117" lon="-7.4642833"><ele>1204.5</ele><time>2026-04-25T14:02:22.377Z</time></trkpt><trkpt lat="31.5024017" lon="-7.4641917"><ele>1202.0</ele><time>2026-04-25T14:02:23.376Z</time></trkpt><trkpt lat="31.5026617" lon="-7.464075"><ele>1202.0</ele><time>2026-04-25T14:02:24.376Z</time></trkpt><trkpt lat="31.5029117" lon="-7.4639633"><ele>1202.0</ele><time>2026-04-25T14:02:25.376Z</time></trkpt><trkpt lat="31.5031617" lon="-7.4638717"><ele>1200.5</ele><time>2026-04-25T14:02:26.376Z</time></trkpt><trkpt lat="31.5034017" lon="-7.4638083"><ele>1199.0</ele><time>2026-04-25T14:02:27.376Z</time></trkpt><trkpt lat="31.5036433" lon="-7.4637917"><ele>1196.5</ele><time>2026-04-25T14:02:28.376Z</time></trkpt><trkpt lat="31.5038783" lon="-7.46382"><ele>1194.0</ele><time>2026-04-25T14:02:29.376Z</time></trkpt><trkpt lat="31.5041" lon="-7.463895"><ele>1194.0</ele><time>2026-04-25T14:02:30.376Z</time></trkpt><trkpt lat="31.5043117" lon="-7.4640033"><ele>1194.0</ele><time>2026-04-25T14:02:31.376Z</time></trkpt><trkpt lat="31.5045067" lon="-7.4641467"><ele>1190.6666666666667</ele><time>2026-04-25T14:02:32.376Z</time></trkpt><trkpt lat="31.504685" lon="-7.4643017"><ele>1187.3333333333335</ele><time>2026-04-25T14:02:33.377Z</time></trkpt><trkpt lat="31.5048483" lon="-7.464475"><ele>1184.0</ele><time>2026-04-25T14:02:34.376Z</time></trkpt><trkpt lat="31.505" lon="-7.464655"><ele>1184.0</ele><time>2026-04-25T14:02:35.376Z</time></trkpt><trkpt lat="31.50514" lon="-7.4648333"><ele>1184.0</ele><time>2026-04-25T14:02:36.376Z</time></trkpt><trkpt lat="31.50527" lon="-7.4650017"><ele>1184.0</ele><time>2026-04-25T14:02:37.376Z</time></trkpt><trkpt lat="31.50538" lon="-7.465155"><ele>1182.2</ele><time>2026-04-25T14:02:38.376Z</time></trkpt><trkpt lat="31.5054567" lon="-7.4652767"><ele>1180.4</ele><time>2026-04-25T14:02:39.376Z</time></trkpt><trkpt lat="31.5055067" lon="-7.46537"><ele>1178.6</ele><time>2026-04-25T14:02:40.376Z</time></trkpt><trkpt lat="31.5055367" lon="-7.4654467"><ele>1176.8</ele><time>2026-04-25T14:02:41.376Z</time></trkpt><trkpt lat="31.5055867" lon="-7.4655617"><ele>1175.0</ele><time>2026-04-25T14:02:43.376Z</time></trkpt><trkpt lat="31.5056583" lon="-7.4656233"><ele>1175.0</ele><time>2026-04-25T14:02:45.377Z</time></trkpt><trkpt lat="31.5057383" lon="-7.4656433"><ele>1175.0</ele><time>2026-04-25T14:02:48.376Z</time></trkpt><trkpt lat="31.5058617" lon="-7.4656217"><ele>1175.0</ele><time>2026-04-25T14:20:12.374Z</time></trkpt><trkpt lat="31.505975" lon="-7.46562"><ele>1175.0</ele><time>2026-04-25T14:20:14.374Z</time></trkpt><trkpt lat="31.5060383" lon="-7.4656317"><ele>1175.0</ele><time>2026-04-25T14:20:15.374Z</time></trkpt><trkpt lat="31.5061033" lon="-7.46565"><ele>1175.0</ele><time>2026-04-25T14:20:16.374Z</time></trkpt><trkpt lat="31.5061767" lon="-7.4656717"><ele>1175.0</ele><time>2026-04-25T14:20:17.374Z</time></trkpt><trkpt lat="31.5062533" lon="-7.4656983"><ele>1175.0</ele><time>2026-04-25T14:20:18.373Z</time></trkpt><trkpt lat="31.5063383" lon="-7.4657283"><ele>1175.0</ele><time>2026-04-25T14:20:19.373Z</time></trkpt><trkpt lat="31.5064317" lon="-7.4657617"><ele>1175.0</ele><time>2026-04-25T14:20:20.373Z</time></trkpt><trkpt lat="31.5065267" lon="-7.4657983"><ele>1175.0</ele><time>2026-04-25T14:20:21.373Z</time></trkpt><trkpt lat="31.50662" lon="-7.46583"><ele>1173.4</ele><time>2026-04-25T14:20:22.373Z</time></trkpt><trkpt lat="31.506715" lon="-7.465865"><ele>1171.8</ele><time>2026-04-25T14:20:23.373Z</time></trkpt><trkpt lat="31.5068133" lon="-7.4659017"><ele>1170.2</ele><time>2026-04-25T14:20:24.373Z</time></trkpt><trkpt lat="31.5069133" lon="-7.4659333"><ele>1168.6</ele><time>2026-04-25T14:20:25.373Z</time></trkpt><trkpt lat="31.5070133" lon="-7.465965"><ele>1167.0</ele><time>2026-04-25T14:20:26.373Z</time></trkpt><trkpt lat="31.5071067" lon="-7.4659933"><ele>1164.8</ele><time>2026-04-25T14:20:27.373Z</time></trkpt><trkpt lat="31.5072" lon="-7.4660233"><ele>1162.6</ele><time>2026-04-25T14:20:28.373Z</time></trkpt><trkpt lat="31.507295" lon="-7.466055"><ele>1160.3999999999999</ele><time>2026-04-25T14:20:29.374Z</time></trkpt><trkpt lat="31.507385" lon="-7.466085"><ele>1158.2</ele><time>2026-04-25T14:20:30.374Z</time></trkpt><trkpt lat="31.5074717" lon="-7.4661183"><ele>1156.0</ele><time>2026-04-25T14:20:31.373Z</time></trkpt><trkpt lat="31.5075567" lon="-7.4661517"><ele>1156.0</ele><time>2026-04-25T14:20:32.373Z</time></trkpt><trkpt lat="31.50764" lon="-7.4661817"><ele>1156.0</ele><time>2026-04-25T14:20:33.373Z</time></trkpt><trkpt lat="31.5077267" lon="-7.46621"><ele>1156.0</ele><time>2026-04-25T14:20:34.373Z</time></trkpt><trkpt lat="31.5078117" lon="-7.4662483"><ele>1156.0</ele><time>2026-04-25T14:20:35.373Z</time></trkpt><trkpt lat="31.507895" lon="-7.4662883"><ele>1156.0</ele><time>2026-04-25T14:20:36.373Z</time></trkpt><trkpt lat="31.5079783" lon="-7.4663183"><ele>1156.0</ele><time>2026-04-25T14:20:37.373Z</time></trkpt><trkpt lat="31.5080633" lon="-7.4663467"><ele>1155.8</ele><time>2026-04-25T14:20:38.373Z</time></trkpt><trkpt lat="31.5081467" lon="-7.46638"><ele>1155.6</ele><time>2026-04-25T14:20:39.373Z</time></trkpt><trkpt lat="31.5082333" lon="-7.4664083"><ele>1155.4</ele><time>2026-04-25T14:20:40.373Z</time></trkpt><trkpt lat="31.508325" lon="-7.4664333"><ele>1155.2</ele><time>2026-04-25T14:20:41.373Z</time></trkpt><trkpt lat="31.508415" lon="-7.4664633"><ele>1155.0</ele><time>2026-04-25T14:20:42.373Z</time></trkpt><trkpt lat="31.50851" lon="-7.4664967"><ele>1155.0</ele><time>2026-04-25T14:20:43.373Z</time></trkpt><trkpt lat="31.50861" lon="-7.4665317"><ele>1155.0</ele><time>2026-04-25T14:20:44.373Z</time></trkpt><trkpt lat="31.5087117" lon="-7.4665683"><ele>1155.0</ele><time>2026-04-25T14:20:45.373Z</time></trkpt><trkpt lat="31.5088183" lon="-7.46661"><ele>1155.0</ele><time>2026-04-25T14:20:46.373Z</time></trkpt><trkpt lat="31.5089217" lon="-7.466655"><ele>1155.0</ele><time>2026-04-25T14:20:47.373Z</time></trkpt><trkpt lat="31.509025" lon="-7.4667033"><ele>1152.5</ele><time>2026-04-25T14:20:48.373Z</time></trkpt><trkpt lat="31.5091283" lon="-7.4667583"><ele>1150.0</ele><time>2026-04-25T14:20:49.373Z</time></trkpt><trkpt lat="31.5092333" lon="-7.4668217"><ele>1147.5</ele><time>2026-04-25T14:20:50.373Z</time></trkpt><trkpt lat="31.5093417" lon="-7.4668933"><ele>1145.0</ele><time>2026-04-25T14:20:51.373Z</time></trkpt><trkpt lat="31.509455" lon="-7.4669817"><ele>1145.0</ele><time>2026-04-25T14:20:52.373Z</time></trkpt><trkpt lat="31.509575" lon="-7.4670783"><ele>1145.0</ele><time>2026-04-25T14:20:53.373Z</time></trkpt><trkpt lat="31.5096917" lon="-7.467185"><ele>1145.0</ele><time>2026-04-25T14:20:54.373Z</time></trkpt><trkpt lat="31.5098017" lon="-7.4673033"><ele>1145.0</ele><time>2026-04-25T14:20:55.373Z</time></trkpt><trkpt lat="31.5099067" lon="-7.4674317"><ele>1144.75</ele><time>2026-04-25T14:20:56.373Z</time></trkpt><trkpt lat="31.5100033" lon="-7.4675567"><ele>1144.5</ele><time>2026-04-25T14:20:57.373Z</time></trkpt><trkpt lat="31.510095" lon="-7.4676817"><ele>1144.25</ele><time>2026-04-25T14:20:58.373Z</time></trkpt><trkpt lat="31.5101783" lon="-7.467805"><ele>1144.0</ele><time>2026-04-25T14:20:59.373Z</time></trkpt><trkpt lat="31.5102583" lon="-7.4679233"><ele>1142.25</ele><time>2026-04-25T14:21:00.373Z</time></trkpt><trkpt lat="31.5103467" lon="-7.4680367"><ele>1140.5</ele><time>2026-04-25T14:21:01.373Z</time></trkpt><trkpt lat="31.510435" lon="-7.4681483"><ele>1138.75</ele><time>2026-04-25T14:21:02.373Z</time></trkpt><trkpt lat="31.5105267" lon="-7.468255"><ele>1137.0</ele><time>2026-04-25T14:21:03.373Z</time></trkpt><trkpt lat="31.510625" lon="-7.468355"><ele>1135.75</ele><time>2026-04-25T14:21:04.373Z</time></trkpt><trkpt lat="31.5107267" lon="-7.4684417"><ele>1134.5</ele><time>2026-04-25T14:21:05.373Z</time></trkpt><trkpt lat="31.5108333" lon="-7.468515"><ele>1133.25</ele><time>2026-04-25T14:21:06.373Z</time></trkpt><trkpt lat="31.5109467" lon="-7.4685783"><ele>1132.0</ele><time>2026-04-25T14:21:07.374Z</time></trkpt><trkpt lat="31.511075" lon="-7.4686233"><ele>1132.0</ele><time>2026-04-25T14:21:08.373Z</time></trkpt><trkpt lat="31.5112067" lon="-7.4686517"><ele>1132.0</ele><time>2026-04-25T14:21:09.373Z</time></trkpt><trkpt lat="31.5113417" lon="-7.4686683"><ele>1132.0</ele><time>2026-04-25T14:21:10.373Z</time></trkpt><trkpt lat="31.51148" lon="-7.4686833"><ele>1132.0</ele><time>2026-04-25T14:21:11.373Z</time></trkpt><trkpt lat="31.5116217" lon="-7.4686967"><ele>1131.25</ele><time>2026-04-25T14:21:12.373Z</time></trkpt><trkpt lat="31.5117583" lon="-7.4687167"><ele>1130.5</ele><time>2026-04-25T14:21:13.373Z</time></trkpt><trkpt lat="31.5118983" lon="-7.4687383"><ele>1129.75</ele><time>2026-04-25T14:21:14.373Z</time></trkpt><trkpt lat="31.5120417" lon="-7.468755"><ele>1129.0</ele><time>2026-04-25T14:21:15.373Z</time></trkpt><trkpt lat="31.5121833" lon="-7.468775"><ele>1128.25</ele><time>2026-04-25T14:21:16.373Z</time></trkpt><trkpt lat="31.5123267" lon="-7.4688"><ele>1127.5</ele><time>2026-04-25T14:21:17.373Z</time></trkpt><trkpt lat="31.5124567" lon="-7.4688383"><ele>1126.75</ele><time>2026-04-25T14:21:18.373Z</time></trkpt><trkpt lat="31.5125867" lon="-7.4688967"><ele>1126.0</ele><time>2026-04-25T14:21:19.373Z</time></trkpt><trkpt lat="31.5126917" lon="-7.4689867"><ele>1126.0</ele><time>2026-04-25T14:21:20.373Z</time></trkpt><trkpt lat="31.512785" lon="-7.469105"><ele>1126.0</ele><time>2026-04-25T14:21:21.373Z</time></trkpt><trkpt lat="31.5128533" lon="-7.469245"><ele>1126.0</ele><time>2026-04-25T14:21:22.373Z</time></trkpt><trkpt lat="31.5128983" lon="-7.46941"><ele>1126.0</ele><time>2026-04-25T14:21:23.373Z</time></trkpt><trkpt lat="31.5129217" lon="-7.46958"><ele>1122.75</ele><time>2026-04-25T14:21:24.373Z</time></trkpt><trkpt lat="31.51292" lon="-7.469745"><ele>1119.5</ele><time>2026-04-25T14:21:25.373Z</time></trkpt><trkpt lat="31.5128783" lon="-7.46991"><ele>1116.25</ele><time>2026-04-25T14:21:26.373Z</time></trkpt><trkpt lat="31.512805" lon="-7.47006"><ele>1113.0</ele><time>2026-04-25T14:21:27.373Z</time></trkpt><trkpt lat="31.512695" lon="-7.470185"><ele>1113.0</ele><time>2026-04-25T14:21:28.373Z</time></trkpt><trkpt lat="31.5125633" lon="-7.4702883"><ele>1113.0</ele><time>2026-04-25T14:21:29.373Z</time></trkpt><trkpt lat="31.512415" lon="-7.4703533"><ele>1113.0</ele><time>2026-04-25T14:21:30.373Z</time></trkpt><trkpt lat="31.51225" lon="-7.4703967"><ele>1113.0</ele><time>2026-04-25T14:21:31.373Z</time></trkpt><trkpt lat="31.5120817" lon="-7.4704317"><ele>1113.0</ele><time>2026-04-25T14:21:32.374Z</time></trkpt><trkpt lat="31.5119133" lon="-7.4704717"><ele>1113.0</ele><time>2026-04-25T14:21:33.373Z</time></trkpt><trkpt lat="31.51175" lon="-7.4705067"><ele>1109.0</ele><time>2026-04-25T14:21:34.373Z</time></trkpt><trkpt lat="31.5115967" lon="-7.47056"><ele>1105.0</ele><time>2026-04-25T14:21:35.373Z</time></trkpt><trkpt lat="31.51146" lon="-7.4706167"><ele>1101.0</ele><time>2026-04-25T14:21:36.373Z</time></trkpt><trkpt lat="31.511335" lon="-7.4707067"><ele>1103.3333333333333</ele><time>2026-04-25T14:21:37.373Z</time></trkpt><trkpt lat="31.5112283" lon="-7.470825"><ele>1105.6666666666665</ele><time>2026-04-25T14:21:38.373Z</time></trkpt><trkpt lat="31.5111483" lon="-7.4709733"><ele>1108.0</ele><time>2026-04-25T14:21:39.373Z</time></trkpt><trkpt lat="31.5110967" lon="-7.4711517"><ele>1108.6666666666665</ele><time>2026-04-25T14:21:40.373Z</time></trkpt><trkpt lat="31.51107" lon="-7.4713333"><ele>1109.3333333333333</ele><time>2026-04-25T14:21:41.373Z</time></trkpt><trkpt lat="31.51108" lon="-7.4715183"><ele>1110.0</ele><time>2026-04-25T14:21:42.374Z</time></trkpt><trkpt lat="31.5111383" lon="-7.4716967"><ele>1110.0</ele><time>2026-04-25T14:21:43.373Z</time></trkpt><trkpt lat="31.51123" lon="-7.4718417"><ele>1110.0</ele><time>2026-04-25T14:21:44.373Z</time></trkpt><trkpt lat="31.5113567" lon="-7.4719517"><ele>1110.0</ele><time>2026-04-25T14:21:45.373Z</time></trkpt><trkpt lat="31.5115033" lon="-7.4720367"><ele>1108.3333333333333</ele><time>2026-04-25T14:21:46.373Z</time></trkpt><trkpt lat="31.5116617" lon="-7.4720917"><ele>1106.6666666666665</ele><time>2026-04-25T14:21:47.373Z</time></trkpt><trkpt lat="31.5118267" lon="-7.4721167"><ele>1105.0</ele><time>2026-04-25T14:21:48.373Z</time></trkpt><trkpt lat="31.5119883" lon="-7.4721567"><ele>1101.6666666666665</ele><time>2026-04-25T14:21:49.373Z</time></trkpt><trkpt lat="31.5121533" lon="-7.4722017"><ele>1098.3333333333333</ele><time>2026-04-25T14:21:50.373Z</time></trkpt><trkpt lat="31.5123167" lon="-7.4722483"><ele>1095.0</ele><time>2026-04-25T14:21:51.373Z</time></trkpt><trkpt lat="31.5124833" lon="-7.472295"><ele>1095.0</ele><time>2026-04-25T14:21:52.373Z</time></trkpt><trkpt lat="31.5126567" lon="-7.4723483"><ele>1095.0</ele><time>2026-04-25T14:21:53.373Z</time></trkpt><trkpt lat="31.5128333" lon="-7.4724017"><ele>1095.0</ele><time>2026-04-25T14:21:54.374Z</time></trkpt><trkpt lat="31.5130117" lon="-7.472455"><ele>1092.0</ele><time>2026-04-25T14:21:55.373Z</time></trkpt><trkpt lat="31.5131883" lon="-7.4725067"><ele>1089.0</ele><time>2026-04-25T14:21:56.373Z</time></trkpt><trkpt lat="31.5133733" lon="-7.472555"><ele>1086.0</ele><time>2026-04-25T14:21:57.373Z</time></trkpt><trkpt lat="31.5135533" lon="-7.4726067"><ele>1086.0</ele><time>2026-04-25T14:21:58.374Z</time></trkpt><trkpt lat="31.513735" lon="-7.4726567"><ele>1086.0</ele><time>2026-04-25T14:21:59.373Z</time></trkpt><trkpt lat="31.5139067" lon="-7.4727067"><ele>1086.0</ele><time>2026-04-25T14:22:00.373Z</time></trkpt><trkpt lat="31.51408" lon="-7.4727583"><ele>1084.0</ele><time>2026-04-25T14:22:01.373Z</time></trkpt><trkpt lat="31.514245" lon="-7.4728117"><ele>1082.0</ele><time>2026-04-25T14:22:02.373Z</time></trkpt><trkpt lat="31.5144117" lon="-7.4728533"><ele>1080.0</ele><time>2026-04-25T14:22:03.373Z</time></trkpt><trkpt lat="31.51458" lon="-7.4728733"><ele>1079.0</ele><time>2026-04-25T14:22:04.373Z</time></trkpt><trkpt lat="31.5147567" lon="-7.4728533"><ele>1078.0</ele><time>2026-04-25T14:22:05.373Z</time></trkpt><trkpt lat="31.5149333" lon="-7.4727967"><ele>1077.0</ele><time>2026-04-25T14:22:06.373Z</time></trkpt><trkpt lat="31.5151" lon="-7.472705"><ele>1077.0</ele><time>2026-04-25T14:22:07.373Z</time></trkpt><trkpt lat="31.5152517" lon="-7.472585"><ele>1077.0</ele><time>2026-04-25T14:22:08.373Z</time></trkpt><trkpt lat="31.5154067" lon="-7.4724783"><ele>1077.0</ele><time>2026-04-25T14:22:09.373Z</time></trkpt><trkpt lat="31.51556" lon="-7.4723833"><ele>1077.6666666666667</ele><time>2026-04-25T14:22:10.373Z</time></trkpt><trkpt lat="31.5157283" lon="-7.4723033"><ele>1078.3333333333335</ele><time>2026-04-25T14:22:11.373Z</time></trkpt><trkpt lat="31.5159017" lon="-7.4722383"><ele>1079.0</ele><time>2026-04-25T14:22:12.373Z</time></trkpt><trkpt lat="31.5160833" lon="-7.4721983"><ele>1078.6666666666667</ele><time>2026-04-25T14:22:13.373Z</time></trkpt><trkpt lat="31.5162717" lon="-7.472185"><ele>1078.3333333333333</ele><time>2026-04-25T14:22:14.373Z</time></trkpt><trkpt lat="31.5164633" lon="-7.4722033"><ele>1078.0</ele><time>2026-04-25T14:22:15.373Z</time></trkpt><trkpt lat="31.5166467" lon="-7.4722483"><ele>1078.0</ele><time>2026-04-25T14:22:16.373Z</time></trkpt><trkpt lat="31.516835" lon="-7.4723083"><ele>1078.0</ele><time>2026-04-25T14:22:17.373Z</time></trkpt><trkpt lat="31.5170267" lon="-7.4723683"><ele>1078.0</ele><time>2026-04-25T14:22:18.373Z</time></trkpt><trkpt lat="31.5172133" lon="-7.4724383"><ele>1074.3333333333333</ele><time>2026-04-25T14:22:19.374Z</time></trkpt><trkpt lat="31.5173833" lon="-7.4725267"><ele>1070.6666666666667</ele><time>2026-04-25T14:22:20.373Z</time></trkpt><trkpt lat="31.5175433" lon="-7.4726283"><ele>1067.0</ele><time>2026-04-25T14:22:21.373Z</time></trkpt><trkpt lat="31.5177083" lon="-7.4727283"><ele>1067.0</ele><time>2026-04-25T14:22:22.373Z</time></trkpt><trkpt lat="31.5178817" lon="-7.47281"><ele>1067.0</ele><time>2026-04-25T14:22:23.373Z</time></trkpt><trkpt lat="31.51807" lon="-7.4728667"><ele>1067.0</ele><time>2026-04-25T14:22:24.373Z</time></trkpt><trkpt lat="31.5182717" lon="-7.4728817"><ele>1065.0</ele><time>2026-04-25T14:22:25.373Z</time></trkpt><trkpt lat="31.5184783" lon="-7.472875"><ele>1063.0</ele><time>2026-04-25T14:22:26.373Z</time></trkpt><trkpt lat="31.518685" lon="-7.4728533"><ele>1061.0</ele><time>2026-04-25T14:22:27.373Z</time></trkpt><trkpt lat="31.518885" lon="-7.4728317"><ele>1059.0</ele><time>2026-04-25T14:22:28.373Z</time></trkpt><trkpt lat="31.51908" lon="-7.4728117"><ele>1057.0</ele><time>2026-04-25T14:22:29.373Z</time></trkpt><trkpt lat="31.51928" lon="-7.4727983"><ele>1055.0</ele><time>2026-04-25T14:22:30.373Z</time></trkpt><trkpt lat="31.5194733" lon="-7.4727833"><ele>1053.3333333333335</ele><time>2026-04-25T14:22:31.373Z</time></trkpt><trkpt lat="31.519665" lon="-7.472775"><ele>1051.6666666666667</ele><time>2026-04-25T14:22:32.373Z</time></trkpt><trkpt lat="31.5198633" lon="-7.472765"><ele>1050.0</ele><time>2026-04-25T14:22:33.373Z</time></trkpt><trkpt lat="31.52006" lon="-7.472755"><ele>1050.0</ele><time>2026-04-25T14:22:34.373Z</time></trkpt><trkpt lat="31.5202567" lon="-7.47274"><ele>1050.0</ele><time>2026-04-25T14:22:35.373Z</time></trkpt><trkpt lat="31.5204533" lon="-7.4727233"><ele>1050.0</ele><time>2026-04-25T14:22:36.373Z</time></trkpt><trkpt lat="31.520645" lon="-7.47271"><ele>1048.3333333333333</ele><time>2026-04-25T14:22:37.373Z</time></trkpt><trkpt lat="31.5208333" lon="-7.4726967"><ele>1046.6666666666665</ele><time>2026-04-25T14:22:38.373Z</time></trkpt><trkpt lat="31.5210167" lon="-7.472685"><ele>1045.0</ele><time>2026-04-25T14:22:39.373Z</time></trkpt><trkpt lat="31.5212017" lon="-7.4726983"><ele>1044.0</ele><time>2026-04-25T14:22:40.373Z</time></trkpt><trkpt lat="31.5213883" lon="-7.4727167"><ele>1043.0</ele><time>2026-04-25T14:22:41.373Z</time></trkpt><trkpt lat="31.5215767" lon="-7.4727533"><ele>1042.0</ele><time>2026-04-25T14:22:42.373Z</time></trkpt><trkpt lat="31.5217683" lon="-7.472795"><ele>1042.0</ele><time>2026-04-25T14:22:43.373Z</time></trkpt><trkpt lat="31.52196" lon="-7.4728383"><ele>1042.0</ele><time>2026-04-25T14:22:44.373Z</time></trkpt><trkpt lat="31.522155" lon="-7.4728917"><ele>1042.0</ele><time>2026-04-25T14:22:45.373Z</time></trkpt><trkpt lat="31.5223517" lon="-7.472945"><ele>1040.6666666666665</ele><time>2026-04-25T14:22:46.373Z</time></trkpt><trkpt lat="31.522545" lon="-7.473"><ele>1039.3333333333333</ele><time>2026-04-25T14:22:47.373Z</time></trkpt><trkpt lat="31.52273" lon="-7.4730567"><ele>1038.0</ele><time>2026-04-25T14:22:48.373Z</time></trkpt><trkpt lat="31.5229183" lon="-7.473115"><ele>1038.0</ele><time>2026-04-25T14:22:49.373Z</time></trkpt><trkpt lat="31.5230933" lon="-7.4731833"><ele>1038.0</ele><time>2026-04-25T14:22:50.373Z</time></trkpt><trkpt lat="31.5232683" lon="-7.4732683"><ele>1038.0</ele><time>2026-04-25T14:22:51.373Z</time></trkpt><trkpt lat="31.5234383" lon="-7.4733667"><ele>1038.0</ele><time>2026-04-25T14:22:52.373Z</time></trkpt><trkpt lat="31.5236067" lon="-7.473475"><ele>1038.0</ele><time>2026-04-25T14:22:53.373Z</time></trkpt><trkpt lat="31.5237617" lon="-7.473615"><ele>1038.0</ele><time>2026-04-25T14:22:54.373Z</time></trkpt><trkpt lat="31.52391" lon="-7.473775"><ele>1035.6666666666667</ele><time>2026-04-25T14:22:55.373Z</time></trkpt><trkpt lat="31.5240467" lon="-7.4739517"><ele>1033.3333333333335</ele><time>2026-04-25T14:22:56.373Z</time></trkpt><trkpt lat="31.5241717" lon="-7.47414"><ele>1031.0</ele><time>2026-04-25T14:22:57.373Z</time></trkpt><trkpt lat="31.5242817" lon="-7.4743367"><ele>1031.0</ele><time>2026-04-25T14:22:58.373Z</time></trkpt><trkpt lat="31.524395" lon="-7.4745433"><ele>1031.0</ele><time>2026-04-25T14:22:59.373Z</time></trkpt><trkpt lat="31.5245" lon="-7.4747533"><ele>1031.0</ele><time>2026-04-25T14:23:00.373Z</time></trkpt><trkpt lat="31.5246133" lon="-7.4749617"><ele>1028.6666666666667</ele><time>2026-04-25T14:23:01.373Z</time></trkpt><trkpt lat="31.5247267" lon="-7.4751717"><ele>1026.3333333333333</ele><time>2026-04-25T14:23:02.373Z</time></trkpt><trkpt lat="31.5248417" lon="-7.47538"><ele>1024.0</ele><time>2026-04-25T14:23:03.373Z</time></trkpt><trkpt lat="31.5249633" lon="-7.475595"><ele>1024.0</ele><time>2026-04-25T14:23:04.373Z</time></trkpt><trkpt lat="31.5250817" lon="-7.4758117"><ele>1024.0</ele><time>2026-04-25T14:23:05.373Z</time></trkpt><trkpt lat="31.5252" lon="-7.4760267"><ele>1024.0</ele><time>2026-04-25T14:23:06.373Z</time></trkpt><trkpt lat="31.5253117" lon="-7.4762433"><ele>1022.6666666666666</ele><time>2026-04-25T14:23:07.374Z</time></trkpt><trkpt lat="31.525425" lon="-7.4764617"><ele>1021.3333333333333</ele><time>2026-04-25T14:23:08.374Z</time></trkpt><trkpt lat="31.5255417" lon="-7.4766767"><ele>1020.0</ele><time>2026-04-25T14:23:09.373Z</time></trkpt><trkpt lat="31.5256583" lon="-7.4768917"><ele>1020.0</ele><time>2026-04-25T14:23:10.373Z</time></trkpt><trkpt lat="31.5257733" lon="-7.4770967"><ele>1020.0</ele><time>2026-04-25T14:23:11.373Z</time></trkpt><trkpt lat="31.52588" lon="-7.4773017"><ele>1020.0</ele><time>2026-04-25T14:23:12.373Z</time></trkpt><trkpt lat="31.5259883" lon="-7.4775117"><ele>1019.3333333333333</ele><time>2026-04-25T14:23:13.373Z</time></trkpt><trkpt lat="31.526105" lon="-7.47772"><ele>1018.6666666666666</ele><time>2026-04-25T14:23:14.374Z</time></trkpt><trkpt lat="31.5262267" lon="-7.4779233"><ele>1018.0</ele><time>2026-04-25T14:23:15.373Z</time></trkpt><trkpt lat="31.5263433" lon="-7.4781317"><ele>1017.0</ele><time>2026-04-25T14:23:16.373Z</time></trkpt><trkpt lat="31.5264817" lon="-7.4783317"><ele>1016.0</ele><time>2026-04-25T14:23:17.373Z</time></trkpt><trkpt lat="31.52662" lon="-7.4785217"><ele>1015.0</ele><time>2026-04-25T14:23:18.373Z</time></trkpt><trkpt lat="31.526755" lon="-7.4787033"><ele>1013.3333333333333</ele><time>2026-04-25T14:23:19.373Z</time></trkpt><trkpt lat="31.5268883" lon="-7.47888"><ele>1011.6666666666667</ele><time>2026-04-25T14:23:20.373Z</time></trkpt><trkpt lat="31.5270217" lon="-7.4790467"><ele>1010.0</ele><time>2026-04-25T14:23:21.373Z</time></trkpt><trkpt lat="31.5271633" lon="-7.4792033"><ele>1009.6666666666667</ele><time>2026-04-25T14:23:22.373Z</time></trkpt><trkpt lat="31.527305" lon="-7.479355"><ele>1009.3333333333333</ele><time>2026-04-25T14:23:23.373Z</time></trkpt><trkpt lat="31.5274517" lon="-7.4795"><ele>1009.0</ele><time>2026-04-25T14:23:24.373Z</time></trkpt><trkpt lat="31.5276" lon="-7.4796383"><ele>1008.6666666666666</ele><time>2026-04-25T14:23:25.373Z</time></trkpt><trkpt lat="31.5277533" lon="-7.4797767"><ele>1008.3333333333333</ele><time>2026-04-25T14:23:26.373Z</time></trkpt><trkpt lat="31.52791" lon="-7.4799283"><ele>1008.0</ele><time>2026-04-25T14:23:27.373Z</time></trkpt><trkpt lat="31.52806" lon="-7.4800917"><ele>1006.6666666666667</ele><time>2026-04-25T14:23:28.373Z</time></trkpt><trkpt lat="31.5282" lon="-7.4802633"><ele>1005.3333333333334</ele><time>2026-04-25T14:23:29.373Z</time></trkpt><trkpt lat="31.5283217" lon="-7.4804533"><ele>1004.0</ele><time>2026-04-25T14:23:30.373Z</time></trkpt><trkpt lat="31.5284267" lon="-7.4806533"><ele>1003.3333333333334</ele><time>2026-04-25T14:23:31.373Z</time></trkpt><trkpt lat="31.5285167" lon="-7.4808667"><ele>1002.6666666666667</ele><time>2026-04-25T14:23:32.373Z</time></trkpt><trkpt lat="31.5285967" lon="-7.481085"><ele>1002.0</ele><time>2026-04-25T14:23:33.373Z</time></trkpt><trkpt lat="31.5286567" lon="-7.481305"><ele>1001.6666666666667</ele><time>2026-04-25T14:23:34.373Z</time></trkpt><trkpt lat="31.5287033" lon="-7.481525"><ele>1001.3333333333334</ele><time>2026-04-25T14:23:35.373Z</time></trkpt><trkpt lat="31.5287533" lon="-7.4817417"><ele>1001.0</ele><time>2026-04-25T14:23:36.373Z</time></trkpt><trkpt lat="31.5287983" lon="-7.4819533"><ele>997.6666666666667</ele><time>2026-04-25T14:23:37.373Z</time></trkpt><trkpt lat="31.5288467" lon="-7.48217"><ele>994.3333333333333</ele><time>2026-04-25T14:23:38.373Z</time></trkpt><trkpt lat="31.5288983" lon="-7.482395"><ele>991.0</ele><time>2026-04-25T14:23:39.373Z</time></trkpt><trkpt lat="31.528945" lon="-7.482615"><ele>991.0</ele><time>2026-04-25T14:23:40.373Z</time></trkpt><trkpt lat="31.528995" lon="-7.4828333"><ele>991.0</ele><time>2026-04-25T14:23:41.373Z</time></trkpt><trkpt lat="31.5290517" lon="-7.4830417"><ele>991.0</ele><time>2026-04-25T14:23:42.373Z</time></trkpt><trkpt lat="31.5291283" lon="-7.4832417"><ele>990.0</ele><time>2026-04-25T14:23:43.373Z</time></trkpt><trkpt lat="31.5292117" lon="-7.4834383"><ele>989.0</ele><time>2026-04-25T14:23:44.373Z</time></trkpt><trkpt lat="31.5293067" lon="-7.4836317"><ele>988.0</ele><time>2026-04-25T14:23:45.373Z</time></trkpt><trkpt lat="31.5294067" lon="-7.4838"><ele>987.6666666666666</ele><time>2026-04-25T14:23:46.373Z</time></trkpt><trkpt lat="31.5295167" lon="-7.48396"><ele>987.3333333333333</ele><time>2026-04-25T14:23:47.373Z</time></trkpt><trkpt lat="31.5296333" lon="-7.4841167"><ele>987.0</ele><time>2026-04-25T14:23:48.373Z</time></trkpt><trkpt lat="31.5297533" lon="-7.4842683"><ele>984.3333333333333</ele><time>2026-04-25T14:23:49.373Z</time></trkpt><trkpt lat="31.5298683" lon="-7.484425"><ele>981.6666666666666</ele><time>2026-04-25T14:23:50.373Z</time></trkpt><trkpt lat="31.5299817" lon="-7.48458"><ele>979.0</ele><time>2026-04-25T14:23:51.373Z</time></trkpt><trkpt lat="31.5300917" lon="-7.484735"><ele>978.0</ele><time>2026-04-25T14:23:52.373Z</time></trkpt><trkpt lat="31.5302017" lon="-7.48488"><ele>977.0</ele><time>2026-04-25T14:23:53.373Z</time></trkpt><trkpt lat="31.53031" lon="-7.4850283"><ele>976.0</ele><time>2026-04-25T14:23:54.373Z</time></trkpt><trkpt lat="31.5304183" lon="-7.48517"><ele>974.0</ele><time>2026-04-25T14:23:55.373Z</time></trkpt><trkpt lat="31.5305233" lon="-7.485315"><ele>972.0</ele><time>2026-04-25T14:23:56.373Z</time></trkpt><trkpt lat="31.5306267" lon="-7.4854567"><ele>970.0</ele><time>2026-04-25T14:23:57.373Z</time></trkpt><trkpt lat="31.530725" lon="-7.4855933"><ele>970.0</ele><time>2026-04-25T14:23:58.373Z</time></trkpt><trkpt lat="31.5308233" lon="-7.4857317"><ele>970.0</ele><time>2026-04-25T14:23:59.373Z</time></trkpt><trkpt lat="31.530915" lon="-7.4858617"><ele>970.0</ele><time>2026-04-25T14:24:00.373Z</time></trkpt><trkpt lat="31.53102" lon="-7.48598"><ele>970.0</ele><time>2026-04-25T14:24:01.373Z</time></trkpt><trkpt lat="31.53114" lon="-7.4860833"><ele>969.5</ele><time>2026-04-25T14:24:02.373Z</time></trkpt><trkpt lat="31.5312533" lon="-7.48619"><ele>969.0</ele><time>2026-04-25T14:24:03.373Z</time></trkpt><trkpt lat="31.531375" lon="-7.48628"><ele>968.5</ele><time>2026-04-25T14:24:04.373Z</time></trkpt><trkpt lat="31.5315" lon="-7.4863533"><ele>968.0</ele><time>2026-04-25T14:24:05.373Z</time></trkpt><trkpt lat="31.5316233" lon="-7.4864167"><ele>967.25</ele><time>2026-04-25T14:24:06.373Z</time></trkpt><trkpt lat="31.5317533" lon="-7.4864817"><ele>966.5</ele><time>2026-04-25T14:24:07.373Z</time></trkpt><trkpt lat="31.53189" lon="-7.48653"><ele>965.75</ele><time>2026-04-25T14:24:08.373Z</time></trkpt><trkpt lat="31.5320233" lon="-7.4865933"><ele>965.0</ele><time>2026-04-25T14:24:09.373Z</time></trkpt><trkpt lat="31.5321517" lon="-7.4866483"><ele>964.0</ele><time>2026-04-25T14:24:10.373Z</time></trkpt><trkpt lat="31.5322733" lon="-7.4867033"><ele>963.0</ele><time>2026-04-25T14:24:11.373Z</time></trkpt><trkpt lat="31.53239" lon="-7.4867517"><ele>962.0</ele><time>2026-04-25T14:24:12.373Z</time></trkpt><trkpt lat="31.5324933" lon="-7.4867967"><ele>961.0</ele><time>2026-04-25T14:24:13.373Z</time></trkpt><trkpt lat="31.5325917" lon="-7.486845"><ele>961.0</ele><time>2026-04-25T14:24:14.373Z</time></trkpt><trkpt lat="31.5326883" lon="-7.4868867"><ele>960.9999999999999</ele><time>2026-04-25T14:24:15.373Z</time></trkpt><trkpt lat="31.5327783" lon="-7.4869267"><ele>960.9999999999999</ele><time>2026-04-25T14:24:16.373Z</time></trkpt><trkpt lat="31.53287" lon="-7.48697"><ele>961.0</ele><time>2026-04-25T14:24:17.373Z</time></trkpt><trkpt lat="31.5329567" lon="-7.48701"><ele>961.0</ele><time>2026-04-25T14:24:18.373Z</time></trkpt><trkpt lat="31.5330417" lon="-7.4870483"><ele>960.5999999999999</ele><time>2026-04-25T14:24:19.373Z</time></trkpt><trkpt lat="31.5331217" lon="-7.4870833"><ele>960.1999999999999</ele><time>2026-04-25T14:24:20.373Z</time></trkpt><trkpt lat="31.533205" lon="-7.4871233"><ele>959.8000000000001</ele><time>2026-04-25T14:24:21.373Z</time></trkpt><trkpt lat="31.53329" lon="-7.487165"><ele>959.4000000000001</ele><time>2026-04-25T14:24:22.373Z</time></trkpt><trkpt lat="31.5333733" lon="-7.487215"><ele>959.0</ele><time>2026-04-25T14:24:23.373Z</time></trkpt><trkpt lat="31.5334567" lon="-7.4872633"><ele>958.4000000000001</ele><time>2026-04-25T14:24:24.373Z</time></trkpt><trkpt lat="31.533535" lon="-7.4873217"><ele>957.8000000000001</ele><time>2026-04-25T14:24:25.373Z</time></trkpt><trkpt lat="31.53361" lon="-7.4873817"><ele>957.1999999999999</ele><time>2026-04-25T14:24:26.373Z</time></trkpt><trkpt lat="31.5336783" lon="-7.4874583"><ele>956.5999999999999</ele><time>2026-04-25T14:24:27.373Z</time></trkpt><trkpt lat="31.5337383" lon="-7.4875417"><ele>956.0</ele><time>2026-04-25T14:24:28.373Z</time></trkpt><trkpt lat="31.5337933" lon="-7.48763"><ele>957.5999999999999</ele><time>2026-04-25T14:24:29.373Z</time></trkpt><trkpt lat="31.5338367" lon="-7.4877183"><ele>959.1999999999999</ele><time>2026-04-25T14:24:30.373Z</time></trkpt><trkpt lat="31.5338817" lon="-7.4878133"><ele>960.8000000000001</ele><time>2026-04-25T14:24:31.373Z</time></trkpt><trkpt lat="31.5339133" lon="-7.4879133"><ele>962.4000000000001</ele><time>2026-04-25T14:24:32.373Z</time></trkpt><trkpt lat="31.53393" lon="-7.48802"><ele>964.0</ele><time>2026-04-25T14:24:33.373Z</time></trkpt><trkpt lat="31.5339433" lon="-7.4881283"><ele>964.0</ele><time>2026-04-25T14:24:34.373Z</time></trkpt><trkpt lat="31.5339433" lon="-7.4882433"><ele>964.0000000000001</ele><time>2026-04-25T14:24:35.373Z</time></trkpt><trkpt lat="31.5339483" lon="-7.4883533"><ele>964.0000000000001</ele><time>2026-04-25T14:24:36.373Z</time></trkpt><trkpt lat="31.53394" lon="-7.4884733"><ele>964.0</ele><time>2026-04-25T14:24:37.373Z</time></trkpt><trkpt lat="31.533935" lon="-7.4886017"><ele>964.0</ele><time>2026-04-25T14:24:38.373Z</time></trkpt><trkpt lat="31.53393" lon="-7.4887317"><ele>963.75</ele><time>2026-04-25T14:24:39.373Z</time></trkpt><trkpt lat="31.5339233" lon="-7.4888667"><ele>963.5</ele><time>2026-04-25T14:24:40.373Z</time></trkpt><trkpt lat="31.5339167" lon="-7.4890117"><ele>963.25</ele><time>2026-04-25T14:24:41.373Z</time></trkpt><trkpt lat="31.533905" lon="-7.4891633"><ele>963.0</ele><time>2026-04-25T14:24:42.373Z</time></trkpt><trkpt lat="31.533895" lon="-7.4893333"><ele>963.0</ele><time>2026-04-25T14:24:43.373Z</time></trkpt><trkpt lat="31.5338833" lon="-7.489525"><ele>963.0</ele><time>2026-04-25T14:24:44.373Z</time></trkpt><trkpt lat="31.533875" lon="-7.48974"><ele>963.0</ele><time>2026-04-25T14:24:45.373Z</time></trkpt><trkpt lat="31.5338717" lon="-7.4899617"><ele>961.3333333333333</ele><time>2026-04-25T14:24:46.373Z</time></trkpt><trkpt lat="31.5338617" lon="-7.4901867"><ele>959.6666666666666</ele><time>2026-04-25T14:24:47.373Z</time></trkpt><trkpt lat="31.5338633" lon="-7.4904067"><ele>958.0</ele><time>2026-04-25T14:24:48.373Z</time></trkpt><trkpt lat="31.533865" lon="-7.4906133"><ele>956.6666666666666</ele><time>2026-04-25T14:24:49.373Z</time></trkpt><trkpt lat="31.533865" lon="-7.490815"><ele>955.3333333333333</ele><time>2026-04-25T14:24:50.373Z</time></trkpt><trkpt lat="31.533865" lon="-7.4910133"><ele>954.0</ele><time>2026-04-25T14:24:51.373Z</time></trkpt><trkpt lat="31.533865" lon="-7.4912033"><ele>952.6666666666667</ele><time>2026-04-25T14:24:52.373Z</time></trkpt><trkpt lat="31.53387" lon="-7.4913867"><ele>951.3333333333334</ele><time>2026-04-25T14:24:53.374Z</time></trkpt><trkpt lat="31.5338867" lon="-7.4915683"><ele>950.0</ele><time>2026-04-25T14:24:54.373Z</time></trkpt><trkpt lat="31.53394" lon="-7.4917417"><ele>950.0</ele><time>2026-04-25T14:24:55.373Z</time></trkpt><trkpt lat="31.53402" lon="-7.4919133"><ele>950.0</ele><time>2026-04-25T14:24:56.373Z</time></trkpt><trkpt lat="31.5341217" lon="-7.4920667"><ele>950.0</ele><time>2026-04-25T14:24:57.373Z</time></trkpt><trkpt lat="31.5342433" lon="-7.4922017"><ele>950.0</ele><time>2026-04-25T14:24:58.373Z</time></trkpt><trkpt lat="31.534395" lon="-7.4923133"><ele>950.0</ele><time>2026-04-25T14:24:59.373Z</time></trkpt><trkpt lat="31.534545" lon="-7.49242"><ele>950.0</ele><time>2026-04-25T14:25:00.373Z</time></trkpt><trkpt lat="31.5346933" lon="-7.4925333"><ele>950.0</ele><time>2026-04-25T14:25:01.373Z</time></trkpt><trkpt lat="31.5348367" lon="-7.4926383"><ele>950.0</ele><time>2026-04-25T14:25:02.373Z</time></trkpt><trkpt lat="31.534975" lon="-7.4927467"><ele>950.0</ele><time>2026-04-25T14:25:03.373Z</time></trkpt><trkpt lat="31.5351117" lon="-7.4928583"><ele>950.6666666666667</ele><time>2026-04-25T14:25:04.373Z</time></trkpt><trkpt lat="31.5352317" lon="-7.4929917"><ele>951.3333333333333</ele><time>2026-04-25T14:25:05.373Z</time></trkpt><trkpt lat="31.5353417" lon="-7.4931417"><ele>952.0</ele><time>2026-04-25T14:25:06.373Z</time></trkpt><trkpt lat="31.5354233" lon="-7.4933033"><ele>952.0</ele><time>2026-04-25T14:25:07.373Z</time></trkpt><trkpt lat="31.53548" lon="-7.4934783"><ele>952.0</ele><time>2026-04-25T14:25:08.373Z</time></trkpt><trkpt lat="31.53552" lon="-7.4936633"><ele>952.0</ele><time>2026-04-25T14:25:09.373Z</time></trkpt><trkpt lat="31.5355483" lon="-7.493855"><ele>949.3333333333333</ele><time>2026-04-25T14:25:10.373Z</time></trkpt><trkpt lat="31.5355783" lon="-7.4940483"><ele>946.6666666666667</ele><time>2026-04-25T14:25:11.373Z</time></trkpt><trkpt lat="31.5356017" lon="-7.4942583"><ele>944.0</ele><time>2026-04-25T14:25:12.373Z</time></trkpt><trkpt lat="31.5356283" lon="-7.4944717"><ele>942.3333333333334</ele><time>2026-04-25T14:25:13.373Z</time></trkpt><trkpt lat="31.5356517" lon="-7.4946767"><ele>940.6666666666667</ele><time>2026-04-25T14:25:14.373Z</time></trkpt><trkpt lat="31.535675" lon="-7.4948817"><ele>939.0</ele><time>2026-04-25T14:25:15.373Z</time></trkpt><trkpt lat="31.535695" lon="-7.49508"><ele>939.0</ele><time>2026-04-25T14:25:16.373Z</time></trkpt><trkpt lat="31.53572" lon="-7.495275"><ele>939.0</ele><time>2026-04-25T14:25:17.373Z</time></trkpt><trkpt lat="31.535745" lon="-7.4954667"><ele>939.0</ele><time>2026-04-25T14:25:18.373Z</time></trkpt><trkpt lat="31.53578" lon="-7.4956583"><ele>937.6666666666667</ele><time>2026-04-25T14:25:19.373Z</time></trkpt><trkpt lat="31.5358383" lon="-7.4958483"><ele>936.3333333333334</ele><time>2026-04-25T14:25:20.373Z</time></trkpt><trkpt lat="31.5359183" lon="-7.4960317"><ele>935.0</ele><time>2026-04-25T14:25:21.373Z</time></trkpt><trkpt lat="31.5360133" lon="-7.4961917"><ele>933.3333333333334</ele><time>2026-04-25T14:25:22.373Z</time></trkpt><trkpt lat="31.536145" lon="-7.496335"><ele>931.6666666666667</ele><time>2026-04-25T14:25:23.373Z</time></trkpt><trkpt lat="31.53628" lon="-7.4964717"><ele>930.0</ele><time>2026-04-25T14:25:24.373Z</time></trkpt><trkpt lat="31.5364117" lon="-7.4965933"><ele>930.0</ele><time>2026-04-25T14:25:25.373Z</time></trkpt><trkpt lat="31.53654" lon="-7.4967167"><ele>930.0</ele><time>2026-04-25T14:25:26.373Z</time></trkpt><trkpt lat="31.536645" lon="-7.4968567"><ele>930.0</ele><time>2026-04-25T14:25:27.373Z</time></trkpt><trkpt lat="31.53673" lon="-7.4970067"><ele>929.75</ele><time>2026-04-25T14:25:28.373Z</time></trkpt><trkpt lat="31.5368017" lon="-7.4971667"><ele>929.5</ele><time>2026-04-25T14:25:29.373Z</time></trkpt><trkpt lat="31.53685" lon="-7.4973217"><ele>929.25</ele><time>2026-04-25T14:25:30.373Z</time></trkpt><trkpt lat="31.53687" lon="-7.49746"><ele>929.0</ele><time>2026-04-25T14:25:31.373Z</time></trkpt><trkpt lat="31.5368717" lon="-7.4976017"><ele>929.0</ele><time>2026-04-25T14:25:32.373Z</time></trkpt><trkpt lat="31.5368583" lon="-7.497755"><ele>929.0</ele><time>2026-04-25T14:25:33.373Z</time></trkpt><trkpt lat="31.5368317" lon="-7.497915"><ele>929.0</ele><time>2026-04-25T14:25:34.372Z</time></trkpt><trkpt lat="31.5367967" lon="-7.498085"><ele>929.0</ele><time>2026-04-25T14:25:35.372Z</time></trkpt><trkpt lat="31.5367467" lon="-7.4982633"><ele>928.6666666666667</ele><time>2026-04-25T14:25:36.372Z</time></trkpt><trkpt lat="31.53668" lon="-7.4984483"><ele>928.3333333333333</ele><time>2026-04-25T14:25:37.372Z</time></trkpt><trkpt lat="31.5366" lon="-7.4986333"><ele>928.0</ele><time>2026-04-25T14:25:38.372Z</time></trkpt><trkpt lat="31.53653" lon="-7.4988233"><ele>928.0</ele><time>2026-04-25T14:25:39.372Z</time></trkpt><trkpt lat="31.5364533" lon="-7.4990183"><ele>928.0</ele><time>2026-04-25T14:25:40.372Z</time></trkpt><trkpt lat="31.5363817" lon="-7.4992183"><ele>928.0</ele><time>2026-04-25T14:25:41.372Z</time></trkpt><trkpt lat="31.53631" lon="-7.499405"><ele>928.6666666666666</ele><time>2026-04-25T14:25:42.372Z</time></trkpt><trkpt lat="31.5362467" lon="-7.499595"><ele>929.3333333333333</ele><time>2026-04-25T14:25:43.372Z</time></trkpt><trkpt lat="31.5362017" lon="-7.4997983"><ele>930.0</ele><time>2026-04-25T14:25:44.372Z</time></trkpt><trkpt lat="31.53618" lon="-7.50001"><ele>928.6666666666667</ele><time>2026-04-25T14:25:45.372Z</time></trkpt><trkpt lat="31.5361817" lon="-7.5002217"><ele>927.3333333333334</ele><time>2026-04-25T14:25:46.372Z</time></trkpt><trkpt lat="31.5362217" lon="-7.5004417"><ele>926.0</ele><time>2026-04-25T14:25:47.372Z</time></trkpt><trkpt lat="31.536295" lon="-7.5006517"><ele>926.0</ele><time>2026-04-25T14:25:48.372Z</time></trkpt><trkpt lat="31.5363867" lon="-7.5008533"><ele>926.0</ele><time>2026-04-25T14:25:49.372Z</time></trkpt><trkpt lat="31.5364883" lon="-7.501055"><ele>926.0</ele><time>2026-04-25T14:25:50.372Z</time></trkpt><trkpt lat="31.5365883" lon="-7.5012533"><ele>924.0</ele><time>2026-04-25T14:25:51.372Z</time></trkpt><trkpt lat="31.5366817" lon="-7.501445"><ele>922.0</ele><time>2026-04-25T14:25:52.372Z</time></trkpt><trkpt lat="31.5367567" lon="-7.5016433"><ele>920.0</ele><time>2026-04-25T14:25:53.372Z</time></trkpt><trkpt lat="31.536805" lon="-7.5018517"><ele>920.0</ele><time>2026-04-25T14:25:54.372Z</time></trkpt><trkpt lat="31.5368317" lon="-7.5020667"><ele>920.0</ele><time>2026-04-25T14:25:55.372Z</time></trkpt><trkpt lat="31.5368367" lon="-7.502285"><ele>920.0</ele><time>2026-04-25T14:25:56.372Z</time></trkpt><trkpt lat="31.5368233" lon="-7.50251"><ele>919.3333333333334</ele><time>2026-04-25T14:25:57.372Z</time></trkpt><trkpt lat="31.5367883" lon="-7.502735"><ele>918.6666666666667</ele><time>2026-04-25T14:25:58.372Z</time></trkpt><trkpt lat="31.53673" lon="-7.50296"><ele>918.0</ele><time>2026-04-25T14:25:59.372Z</time></trkpt><trkpt lat="31.536645" lon="-7.5031783"><ele>920.3333333333333</ele><time>2026-04-25T14:26:00.372Z</time></trkpt><trkpt lat="31.53655" lon="-7.50339"><ele>922.6666666666666</ele><time>2026-04-25T14:26:01.372Z</time></trkpt><trkpt lat="31.53645" lon="-7.5035883"><ele>925.0</ele><time>2026-04-25T14:26:02.372Z</time></trkpt><trkpt lat="31.53635" lon="-7.50379"><ele>923.6666666666666</ele><time>2026-04-25T14:26:03.372Z</time></trkpt><trkpt lat="31.53626" lon="-7.503985"><ele>922.3333333333333</ele><time>2026-04-25T14:26:04.372Z</time></trkpt><trkpt lat="31.536195" lon="-7.5041933"><ele>921.0</ele><time>2026-04-25T14:26:05.372Z</time></trkpt><trkpt lat="31.5361517" lon="-7.5044083"><ele>921.3333333333333</ele><time>2026-04-25T14:26:06.372Z</time></trkpt><trkpt lat="31.5361333" lon="-7.504635"><ele>921.6666666666666</ele><time>2026-04-25T14:26:07.372Z</time></trkpt><trkpt lat="31.5361283" lon="-7.5048717"><ele>922.0</ele><time>2026-04-25T14:26:08.372Z</time></trkpt><trkpt lat="31.5361417" lon="-7.5051117"><ele>922.0</ele><time>2026-04-25T14:26:09.372Z</time></trkpt><trkpt lat="31.5361833" lon="-7.505355"><ele>922.0</ele><time>2026-04-25T14:26:10.372Z</time></trkpt><trkpt lat="31.5362417" lon="-7.5056033"><ele>922.0</ele><time>2026-04-25T14:26:11.372Z</time></trkpt><trkpt lat="31.5363017" lon="-7.5058517"><ele>919.3333333333333</ele><time>2026-04-25T14:26:12.372Z</time></trkpt><trkpt lat="31.5363617" lon="-7.5060967"><ele>916.6666666666667</ele><time>2026-04-25T14:26:13.372Z</time></trkpt><trkpt lat="31.5363967" lon="-7.5063367"><ele>914.0</ele><time>2026-04-25T14:26:14.372Z</time></trkpt><trkpt lat="31.5364183" lon="-7.506575"><ele>914.0</ele><time>2026-04-25T14:26:15.372Z</time></trkpt><trkpt lat="31.53643" lon="-7.50681"><ele>914.0</ele><time>2026-04-25T14:26:16.372Z</time></trkpt><trkpt lat="31.5364283" lon="-7.5070367"><ele>914.0</ele><time>2026-04-25T14:26:17.372Z</time></trkpt><trkpt lat="31.5364183" lon="-7.5072533"><ele>911.0</ele><time>2026-04-25T14:26:18.372Z</time></trkpt><trkpt lat="31.5364" lon="-7.5074667"><ele>908.0</ele><time>2026-04-25T14:26:19.372Z</time></trkpt><trkpt lat="31.53638" lon="-7.5076717"><ele>905.0</ele><time>2026-04-25T14:26:20.372Z</time></trkpt><trkpt lat="31.5363733" lon="-7.507865"><ele>903.6666666666667</ele><time>2026-04-25T14:26:21.372Z</time></trkpt><trkpt lat="31.5363617" lon="-7.5080533"><ele>902.3333333333333</ele><time>2026-04-25T14:26:22.372Z</time></trkpt><trkpt lat="31.536355" lon="-7.5082333"><ele>901.0</ele><time>2026-04-25T14:26:23.372Z</time></trkpt><trkpt lat="31.5363467" lon="-7.5084217"><ele>901.0</ele><time>2026-04-25T14:26:24.372Z</time></trkpt><trkpt lat="31.5363367" lon="-7.5086217"><ele>901.0</ele><time>2026-04-25T14:26:25.372Z</time></trkpt><trkpt lat="31.5363383" lon="-7.5088383"><ele>901.0</ele><time>2026-04-25T14:26:26.372Z</time></trkpt><trkpt lat="31.53635" lon="-7.5090583"><ele>900.3333333333333</ele><time>2026-04-25T14:26:27.372Z</time></trkpt><trkpt lat="31.5363683" lon="-7.5092783"><ele>899.6666666666667</ele><time>2026-04-25T14:26:28.372Z</time></trkpt><trkpt lat="31.5364017" lon="-7.509495"><ele>899.0</ele><time>2026-04-25T14:26:29.372Z</time></trkpt><trkpt lat="31.5364583" lon="-7.5097067"><ele>900.6666666666667</ele><time>2026-04-25T14:26:30.372Z</time></trkpt><trkpt lat="31.5365333" lon="-7.5099167"><ele>902.3333333333333</ele><time>2026-04-25T14:26:31.372Z</time></trkpt><trkpt lat="31.5366317" lon="-7.510125"><ele>904.0</ele><time>2026-04-25T14:26:32.372Z</time></trkpt><trkpt lat="31.536755" lon="-7.5103233"><ele>906.3333333333333</ele><time>2026-04-25T14:26:33.372Z</time></trkpt><trkpt lat="31.5368967" lon="-7.51051"><ele>908.6666666666667</ele><time>2026-04-25T14:26:34.372Z</time></trkpt><trkpt lat="31.5370517" lon="-7.5106983"><ele>911.0</ele><time>2026-04-25T14:26:35.372Z</time></trkpt><trkpt lat="31.5372167" lon="-7.5108883"><ele>911.0</ele><time>2026-04-25T14:26:36.372Z</time></trkpt><trkpt lat="31.5373767" lon="-7.5110817"><ele>911.0</ele><time>2026-04-25T14:26:37.372Z</time></trkpt><trkpt lat="31.53753" lon="-7.51127"><ele>912.3333333333334</ele><time>2026-04-25T14:26:38.372Z</time></trkpt><trkpt lat="31.53768" lon="-7.5114433"><ele>913.6666666666667</ele><time>2026-04-25T14:26:39.372Z</time></trkpt><trkpt lat="31.5378233" lon="-7.511615"><ele>915.0</ele><time>2026-04-25T14:26:40.372Z</time></trkpt><trkpt lat="31.5379583" lon="-7.511785"><ele>915.0</ele><time>2026-04-25T14:26:41.372Z</time></trkpt><trkpt lat="31.5380767" lon="-7.511965"><ele>915.0</ele><time>2026-04-25T14:26:42.372Z</time></trkpt><trkpt lat="31.538195" lon="-7.5121533"><ele>915.0</ele><time>2026-04-25T14:26:43.373Z</time></trkpt><trkpt lat="31.5383017" lon="-7.512355"><ele>916.3333333333333</ele><time>2026-04-25T14:26:44.372Z</time></trkpt><trkpt lat="31.5384083" lon="-7.512565"><ele>917.6666666666666</ele><time>2026-04-25T14:26:45.372Z</time></trkpt><trkpt lat="31.5385067" lon="-7.5127833"><ele>919.0</ele><time>2026-04-25T14:26:46.372Z</time></trkpt><trkpt lat="31.538605" lon="-7.5130067"><ele>919.6666666666666</ele><time>2026-04-25T14:26:47.372Z</time></trkpt><trkpt lat="31.5387067" lon="-7.5132333"><ele>920.3333333333333</ele><time>2026-04-25T14:26:48.372Z</time></trkpt><trkpt lat="31.5388083" lon="-7.5134583"><ele>921.0</ele><time>2026-04-25T14:26:49.372Z</time></trkpt><trkpt lat="31.53891" lon="-7.513685"><ele>922.0</ele><time>2026-04-25T14:26:50.372Z</time></trkpt><trkpt lat="31.5390117" lon="-7.5139133"><ele>923.0</ele><time>2026-04-25T14:26:51.372Z</time></trkpt><trkpt lat="31.5391083" lon="-7.5141517"><ele>924.0</ele><time>2026-04-25T14:26:52.372Z</time></trkpt><trkpt lat="31.5391967" lon="-7.514395"><ele>924.0</ele><time>2026-04-25T14:26:53.372Z</time></trkpt><trkpt lat="31.53928" lon="-7.5146383"><ele>924.0</ele><time>2026-04-25T14:26:54.372Z</time></trkpt><trkpt lat="31.53936" lon="-7.5148883"><ele>924.0</ele><time>2026-04-25T14:26:55.372Z</time></trkpt><trkpt lat="31.5394533" lon="-7.5151333"><ele>924.0</ele><time>2026-04-25T14:26:56.372Z</time></trkpt><trkpt lat="31.5395433" lon="-7.5153833"><ele>922.0</ele><time>2026-04-25T14:26:57.372Z</time></trkpt><trkpt lat="31.5396383" lon="-7.5156333"><ele>920.0</ele><time>2026-04-25T14:26:58.372Z</time></trkpt><trkpt lat="31.5397333" lon="-7.5158833"><ele>920.0</ele><time>2026-04-25T14:26:59.373Z</time></trkpt><trkpt lat="31.5398267" lon="-7.5161317"><ele>920.0</ele><time>2026-04-25T14:27:00.372Z</time></trkpt><trkpt lat="31.53992" lon="-7.516385"><ele>923.0</ele><time>2026-04-25T14:27:01.372Z</time></trkpt><trkpt lat="31.5400133" lon="-7.516635"><ele>926.0</ele><time>2026-04-25T14:27:02.372Z</time></trkpt><trkpt lat="31.5401067" lon="-7.516885"><ele>927.0</ele><time>2026-04-25T14:27:03.372Z</time></trkpt><trkpt lat="31.5401967" lon="-7.5171317"><ele>928.0</ele><time>2026-04-25T14:27:04.372Z</time></trkpt><trkpt lat="31.5402883" lon="-7.5173783"><ele>928.0</ele><time>2026-04-25T14:27:05.372Z</time></trkpt><trkpt lat="31.5403717" lon="-7.5176233"><ele>928.0</ele><time>2026-04-25T14:27:06.372Z</time></trkpt><trkpt lat="31.54046" lon="-7.5178667"><ele>928.3333333333333</ele><time>2026-04-25T14:27:07.372Z</time></trkpt><trkpt lat="31.5405483" lon="-7.51811"><ele>928.6666666666667</ele><time>2026-04-25T14:27:08.372Z</time></trkpt><trkpt lat="31.5406333" lon="-7.51835"><ele>929.0</ele><time>2026-04-25T14:27:09.372Z</time></trkpt><trkpt lat="31.54072" lon="-7.51859"><ele>931.3333333333334</ele><time>2026-04-25T14:27:10.372Z</time></trkpt><trkpt lat="31.5408017" lon="-7.518825"><ele>933.6666666666667</ele><time>2026-04-25T14:27:11.373Z</time></trkpt><trkpt lat="31.54088" lon="-7.5190633"><ele>936.0</ele><time>2026-04-25T14:27:12.372Z</time></trkpt><trkpt lat="31.5409467" lon="-7.5193017"><ele>936.0</ele><time>2026-04-25T14:27:13.372Z</time></trkpt><trkpt lat="31.5410017" lon="-7.5195417"><ele>936.0</ele><time>2026-04-25T14:27:14.372Z</time></trkpt><trkpt lat="31.5410467" lon="-7.5197833"><ele>936.0</ele><time>2026-04-25T14:27:15.372Z</time></trkpt><trkpt lat="31.5410867" lon="-7.520025"><ele>935.6666666666667</ele><time>2026-04-25T14:27:16.372Z</time></trkpt><trkpt lat="31.5411317" lon="-7.520265"><ele>935.3333333333334</ele><time>2026-04-25T14:27:17.372Z</time></trkpt><trkpt lat="31.54118" lon="-7.5205117"><ele>935.0</ele><time>2026-04-25T14:27:18.372Z</time></trkpt><trkpt lat="31.5412283" lon="-7.5207617"><ele>935.0</ele><time>2026-04-25T14:27:19.372Z</time></trkpt><trkpt lat="31.541275" lon="-7.5210133"><ele>935.0</ele><time>2026-04-25T14:27:20.372Z</time></trkpt><trkpt lat="31.5413217" lon="-7.5212717"><ele>935.0</ele><time>2026-04-25T14:27:21.372Z</time></trkpt><trkpt lat="31.5413683" lon="-7.5215233"><ele>934.3333333333334</ele><time>2026-04-25T14:27:22.372Z</time></trkpt><trkpt lat="31.5414167" lon="-7.5217733"><ele>933.6666666666667</ele><time>2026-04-25T14:27:23.372Z</time></trkpt><trkpt lat="31.541465" lon="-7.5220233"><ele>933.0</ele><time>2026-04-25T14:27:24.372Z</time></trkpt><trkpt lat="31.5415083" lon="-7.52227"><ele>934.3333333333333</ele><time>2026-04-25T14:27:25.372Z</time></trkpt><trkpt lat="31.5415533" lon="-7.5225167"><ele>935.6666666666666</ele><time>2026-04-25T14:27:26.372Z</time></trkpt><trkpt lat="31.5416" lon="-7.5227683"><ele>937.0</ele><time>2026-04-25T14:27:27.372Z</time></trkpt><trkpt lat="31.54165" lon="-7.5230217"><ele>937.6666666666666</ele><time>2026-04-25T14:27:28.372Z</time></trkpt><trkpt lat="31.5416983" lon="-7.523275"><ele>938.3333333333333</ele><time>2026-04-25T14:27:29.372Z</time></trkpt><trkpt lat="31.5417417" lon="-7.52353"><ele>939.0</ele><time>2026-04-25T14:27:30.372Z</time></trkpt><trkpt lat="31.5417833" lon="-7.523785"><ele>940.0</ele><time>2026-04-25T14:27:31.373Z</time></trkpt><trkpt lat="31.54183" lon="-7.524035"><ele>941.0</ele><time>2026-04-25T14:27:32.372Z</time></trkpt><trkpt lat="31.541875" lon="-7.52429"><ele>942.0</ele><time>2026-04-25T14:27:33.372Z</time></trkpt><trkpt lat="31.5419167" lon="-7.5245467"><ele>941.6666666666667</ele><time>2026-04-25T14:27:34.372Z</time></trkpt><trkpt lat="31.5419633" lon="-7.5248017"><ele>941.3333333333334</ele><time>2026-04-25T14:27:35.372Z</time></trkpt><trkpt lat="31.54201" lon="-7.5250533"><ele>941.0</ele><time>2026-04-25T14:27:36.372Z</time></trkpt><trkpt lat="31.5420567" lon="-7.5253017"><ele>941.3333333333334</ele><time>2026-04-25T14:27:37.372Z</time></trkpt><trkpt lat="31.5421033" lon="-7.5255433"><ele>941.6666666666667</ele><time>2026-04-25T14:27:38.372Z</time></trkpt><trkpt lat="31.5421483" lon="-7.5257833"><ele>942.0</ele><time>2026-04-25T14:27:39.372Z</time></trkpt><trkpt lat="31.5421917" lon="-7.5260233"><ele>942.3333333333333</ele><time>2026-04-25T14:27:40.372Z</time></trkpt><trkpt lat="31.5422383" lon="-7.52626"><ele>942.6666666666666</ele><time>2026-04-25T14:27:41.372Z</time></trkpt><trkpt lat="31.5422817" lon="-7.5265017"><ele>943.0</ele><time>2026-04-25T14:27:42.372Z</time></trkpt><trkpt lat="31.5423233" lon="-7.526745"><ele>943.0</ele><time>2026-04-25T14:27:43.373Z</time></trkpt><trkpt lat="31.5423633" lon="-7.5269883"><ele>943.0</ele><time>2026-04-25T14:27:44.372Z</time></trkpt><trkpt lat="31.5424083" lon="-7.5272283"><ele>943.0</ele><time>2026-04-25T14:27:45.372Z</time></trkpt><trkpt lat="31.5424533" lon="-7.5274683"><ele>944.3333333333333</ele><time>2026-04-25T14:27:46.372Z</time></trkpt><trkpt lat="31.5425" lon="-7.52771"><ele>945.6666666666667</ele><time>2026-04-25T14:27:47.372Z</time></trkpt><trkpt lat="31.5425433" lon="-7.5279467"><ele>947.0</ele><time>2026-04-25T14:27:48.372Z</time></trkpt><trkpt lat="31.5425767" lon="-7.5281783"><ele>948.6666666666667</ele><time>2026-04-25T14:27:49.372Z</time></trkpt><trkpt lat="31.5426033" lon="-7.52841"><ele>950.3333333333333</ele><time>2026-04-25T14:27:50.372Z</time></trkpt><trkpt lat="31.5426217" lon="-7.528635"><ele>952.0</ele><time>2026-04-25T14:27:51.372Z</time></trkpt><trkpt lat="31.54263" lon="-7.528865"><ele>952.0</ele><time>2026-04-25T14:27:52.372Z</time></trkpt><trkpt lat="31.5426367" lon="-7.529095"><ele>952.0</ele><time>2026-04-25T14:27:53.372Z</time></trkpt><trkpt lat="31.542645" lon="-7.52933"><ele>952.0</ele><time>2026-04-25T14:27:54.372Z</time></trkpt><trkpt lat="31.5426483" lon="-7.52957"><ele>951.3333333333333</ele><time>2026-04-25T14:27:55.372Z</time></trkpt><trkpt lat="31.54266" lon="-7.5298033"><ele>950.6666666666667</ele><time>2026-04-25T14:27:56.372Z</time></trkpt><trkpt lat="31.542675" lon="-7.5300433"><ele>950.0</ele><time>2026-04-25T14:27:57.372Z</time></trkpt><trkpt lat="31.5426917" lon="-7.530285"><ele>948.6666666666667</ele><time>2026-04-25T14:27:58.373Z</time></trkpt><trkpt lat="31.5427167" lon="-7.5305283"><ele>947.3333333333333</ele><time>2026-04-25T14:27:59.372Z</time></trkpt><trkpt lat="31.54275" lon="-7.5307733"><ele>946.0</ele><time>2026-04-25T14:28:00.372Z</time></trkpt><trkpt lat="31.5427833" lon="-7.53102"><ele>945.3333333333333</ele><time>2026-04-25T14:28:01.372Z</time></trkpt><trkpt lat="31.5428183" lon="-7.531265"><ele>944.6666666666667</ele><time>2026-04-25T14:28:02.373Z</time></trkpt><trkpt lat="31.5428583" lon="-7.53151"><ele>944.0</ele><time>2026-04-25T14:28:03.372Z</time></trkpt><trkpt lat="31.5429" lon="-7.53176"><ele>948.3333333333334</ele><time>2026-04-25T14:28:04.372Z</time></trkpt><trkpt lat="31.5429383" lon="-7.5320117"><ele>952.6666666666667</ele><time>2026-04-25T14:28:05.372Z</time></trkpt><trkpt lat="31.5429783" lon="-7.5322617"><ele>957.0</ele><time>2026-04-25T14:28:06.372Z</time></trkpt><trkpt lat="31.5430183" lon="-7.5325167"><ele>957.0</ele><time>2026-04-25T14:28:07.373Z</time></trkpt><trkpt lat="31.5430633" lon="-7.5327667"><ele>957.0</ele><time>2026-04-25T14:28:08.372Z</time></trkpt><trkpt lat="31.5431067" lon="-7.53302"><ele>957.0</ele><time>2026-04-25T14:28:09.372Z</time></trkpt><trkpt lat="31.5431517" lon="-7.533275"><ele>955.3333333333333</ele><time>2026-04-25T14:28:10.373Z</time></trkpt><trkpt lat="31.5432017" lon="-7.5335217"><ele>953.6666666666666</ele><time>2026-04-25T14:28:11.372Z</time></trkpt><trkpt lat="31.5432533" lon="-7.5337683"><ele>952.0</ele><time>2026-04-25T14:28:12.372Z</time></trkpt><trkpt lat="31.5433033" lon="-7.5340167"><ele>950.3333333333333</ele><time>2026-04-25T14:28:13.372Z</time></trkpt><trkpt lat="31.5433517" lon="-7.5342667"><ele>948.6666666666667</ele><time>2026-04-25T14:28:14.372Z</time></trkpt><trkpt lat="31.5433967" lon="-7.5345183"><ele>947.0</ele><time>2026-04-25T14:28:15.372Z</time></trkpt><trkpt lat="31.543425" lon="-7.53477"><ele>945.6666666666667</ele><time>2026-04-25T14:28:16.372Z</time></trkpt><trkpt lat="31.5434467" lon="-7.5350233"><ele>944.3333333333333</ele><time>2026-04-25T14:28:17.372Z</time></trkpt><trkpt lat="31.54346" lon="-7.5352767"><ele>943.0</ele><time>2026-04-25T14:28:18.372Z</time></trkpt><trkpt lat="31.5434667" lon="-7.535535"><ele>940.6666666666666</ele><time>2026-04-25T14:28:19.372Z</time></trkpt><trkpt lat="31.5434833" lon="-7.5357967"><ele>938.3333333333333</ele><time>2026-04-25T14:28:20.372Z</time></trkpt><trkpt lat="31.5434983" lon="-7.53606"><ele>936.0</ele><time>2026-04-25T14:28:21.372Z</time></trkpt><trkpt lat="31.5435067" lon="-7.536325"><ele>934.5</ele><time>2026-04-25T14:28:22.372Z</time></trkpt><trkpt lat="31.5435217" lon="-7.53659"><ele>933.0</ele><time>2026-04-25T14:28:23.372Z</time></trkpt><trkpt lat="31.543525" lon="-7.5368583"><ele>932.6666666666667</ele><time>2026-04-25T14:28:24.372Z</time></trkpt><trkpt lat="31.54352" lon="-7.5371233"><ele>932.3333333333334</ele><time>2026-04-25T14:28:25.372Z</time></trkpt><trkpt lat="31.5435117" lon="-7.5373833"><ele>932.0</ele><time>2026-04-25T14:28:26.372Z</time></trkpt><trkpt lat="31.5435033" lon="-7.5376383"><ele>931.6666666666667</ele><time>2026-04-25T14:28:27.372Z</time></trkpt><trkpt lat="31.5434933" lon="-7.53789"><ele>931.3333333333333</ele><time>2026-04-25T14:28:28.372Z</time></trkpt><trkpt lat="31.5434817" lon="-7.5381333"><ele>931.0</ele><time>2026-04-25T14:28:29.372Z</time></trkpt><trkpt lat="31.5434683" lon="-7.5383783"><ele>931.0</ele><time>2026-04-25T14:28:30.372Z</time></trkpt><trkpt lat="31.5434617" lon="-7.5386217"><ele>931.0</ele><time>2026-04-25T14:28:31.372Z</time></trkpt><trkpt lat="31.543455" lon="-7.538865"><ele>931.0</ele><time>2026-04-25T14:28:32.372Z</time></trkpt><trkpt lat="31.5434517" lon="-7.5391083"><ele>930.3333333333333</ele><time>2026-04-25T14:28:33.372Z</time></trkpt><trkpt lat="31.5434417" lon="-7.5393483"><ele>929.6666666666667</ele><time>2026-04-25T14:28:34.372Z</time></trkpt><trkpt lat="31.5434333" lon="-7.539595"><ele>929.0</ele><time>2026-04-25T14:28:35.372Z</time></trkpt><trkpt lat="31.54343" lon="-7.5398383"><ele>929.0</ele><time>2026-04-25T14:28:36.372Z</time></trkpt><trkpt lat="31.54344" lon="-7.540085"><ele>929.0</ele><time>2026-04-25T14:28:37.372Z</time></trkpt><trkpt lat="31.5434667" lon="-7.5403283"><ele>929.0</ele><time>2026-04-25T14:28:38.372Z</time></trkpt><trkpt lat="31.54352" lon="-7.5405667"><ele>929.0</ele><time>2026-04-25T14:28:39.372Z</time></trkpt><trkpt lat="31.5435817" lon="-7.540805"><ele>929.0</ele><time>2026-04-25T14:28:40.372Z</time></trkpt><trkpt lat="31.543645" lon="-7.541045"><ele>929.0</ele><time>2026-04-25T14:28:41.372Z</time></trkpt><trkpt lat="31.5436983" lon="-7.5412867"><ele>922.3333333333334</ele><time>2026-04-25T14:28:42.372Z</time></trkpt><trkpt lat="31.5437333" lon="-7.541535"><ele>915.6666666666667</ele><time>2026-04-25T14:28:43.372Z</time></trkpt><trkpt lat="31.5437633" lon="-7.5417883"><ele>909.0</ele><time>2026-04-25T14:28:44.372Z</time></trkpt><trkpt lat="31.5437833" lon="-7.5420433"><ele>907.0</ele><time>2026-04-25T14:28:45.373Z</time></trkpt><trkpt lat="31.5437967" lon="-7.5423"><ele>905.0</ele><time>2026-04-25T14:28:46.372Z</time></trkpt><trkpt lat="31.5438083" lon="-7.5425533"><ele>903.0</ele><time>2026-04-25T14:28:47.373Z</time></trkpt><trkpt lat="31.5438233" lon="-7.5428083"><ele>902.6666666666667</ele><time>2026-04-25T14:28:48.372Z</time></trkpt><trkpt lat="31.54385" lon="-7.5430617"><ele>902.3333333333334</ele><time>2026-04-25T14:28:49.372Z</time></trkpt><trkpt lat="31.5438833" lon="-7.5433133"><ele>902.0</ele><time>2026-04-25T14:28:50.372Z</time></trkpt><trkpt lat="31.5439167" lon="-7.5435667"><ele>901.6666666666667</ele><time>2026-04-25T14:28:51.372Z</time></trkpt><trkpt lat="31.5439483" lon="-7.5438167"><ele>901.3333333333333</ele><time>2026-04-25T14:28:52.372Z</time></trkpt><trkpt lat="31.5439767" lon="-7.5440617"><ele>901.0</ele><time>2026-04-25T14:28:53.372Z</time></trkpt><trkpt lat="31.5439983" lon="-7.5443033"><ele>901.0</ele><time>2026-04-25T14:28:54.372Z</time></trkpt><trkpt lat="31.544015" lon="-7.5445417"><ele>901.0</ele><time>2026-04-25T14:28:55.372Z</time></trkpt><trkpt lat="31.5440183" lon="-7.5447817"><ele>901.0</ele><time>2026-04-25T14:28:56.372Z</time></trkpt><trkpt lat="31.5440083" lon="-7.5450267"><ele>900.0</ele><time>2026-04-25T14:28:57.372Z</time></trkpt><trkpt lat="31.5439817" lon="-7.5452717"><ele>899.0</ele><time>2026-04-25T14:28:58.372Z</time></trkpt><trkpt lat="31.54395" lon="-7.5455183"><ele>898.0</ele><time>2026-04-25T14:28:59.372Z</time></trkpt><trkpt lat="31.5439133" lon="-7.545765"><ele>895.0</ele><time>2026-04-25T14:29:00.372Z</time></trkpt><trkpt lat="31.5438767" lon="-7.5460017"><ele>892.0</ele><time>2026-04-25T14:29:01.373Z</time></trkpt><trkpt lat="31.5438683" lon="-7.5462417"><ele>889.0</ele><time>2026-04-25T14:29:02.372Z</time></trkpt><trkpt lat="31.543865" lon="-7.5464783"><ele>888.6666666666666</ele><time>2026-04-25T14:29:03.372Z</time></trkpt><trkpt lat="31.5438817" lon="-7.5467183"><ele>888.3333333333333</ele><time>2026-04-25T14:29:04.372Z</time></trkpt><trkpt lat="31.5439033" lon="-7.5469567"><ele>888.0</ele><time>2026-04-25T14:29:05.372Z</time></trkpt><trkpt lat="31.5439367" lon="-7.5471867"><ele>888.0</ele><time>2026-04-25T14:29:06.372Z</time></trkpt><trkpt lat="31.54398" lon="-7.54742"><ele>888.0</ele><time>2026-04-25T14:29:07.372Z</time></trkpt><trkpt lat="31.5440167" lon="-7.547655"><ele>888.0</ele><time>2026-04-25T14:29:08.372Z</time></trkpt><trkpt lat="31.54404" lon="-7.5478933"><ele>888.0</ele><time>2026-04-25T14:29:09.372Z</time></trkpt><trkpt lat="31.54406" lon="-7.54814"><ele>888.0</ele><time>2026-04-25T14:29:10.372Z</time></trkpt><trkpt lat="31.5440733" lon="-7.548385"><ele>888.0</ele><time>2026-04-25T14:29:11.372Z</time></trkpt><trkpt lat="31.54408" lon="-7.54864"><ele>886.0</ele><time>2026-04-25T14:29:12.373Z</time></trkpt><trkpt lat="31.5440867" lon="-7.5488983"><ele>884.0</ele><time>2026-04-25T14:29:13.372Z</time></trkpt><trkpt lat="31.5440967" lon="-7.5491633"><ele>882.0</ele><time>2026-04-25T14:29:14.372Z</time></trkpt><trkpt lat="31.5441067" lon="-7.5494267"><ele>877.5</ele><time>2026-04-25T14:29:15.372Z</time></trkpt><trkpt lat="31.54412" lon="-7.549695"><ele>873.0</ele><time>2026-04-25T14:29:16.372Z</time></trkpt><trkpt lat="31.544125" lon="-7.5499667"><ele>873.0</ele><time>2026-04-25T14:29:17.372Z</time></trkpt><trkpt lat="31.544125" lon="-7.5502367"><ele>873.0</ele><time>2026-04-25T14:29:18.372Z</time></trkpt><trkpt lat="31.5441183" lon="-7.5505067"><ele>872.5</ele><time>2026-04-25T14:29:19.372Z</time></trkpt><trkpt lat="31.544115" lon="-7.5507783"><ele>872.0</ele><time>2026-04-25T14:29:20.372Z</time></trkpt><trkpt lat="31.5441117" lon="-7.5510467"><ele>871.3333333333334</ele><time>2026-04-25T14:29:21.372Z</time></trkpt><trkpt lat="31.54411" lon="-7.5513083"><ele>870.6666666666667</ele><time>2026-04-25T14:29:22.372Z</time></trkpt><trkpt lat="31.544105" lon="-7.5515683"><ele>870.0</ele><time>2026-04-25T14:29:23.372Z</time></trkpt><trkpt lat="31.5441" lon="-7.5518233"><ele>869.6666666666667</ele><time>2026-04-25T14:29:24.373Z</time></trkpt><trkpt lat="31.54409" lon="-7.5520817"><ele>869.3333333333334</ele><time>2026-04-25T14:29:25.372Z</time></trkpt><trkpt lat="31.5440917" lon="-7.5523367"><ele>869.0</ele><time>2026-04-25T14:29:26.372Z</time></trkpt><trkpt lat="31.5440933" lon="-7.55259"><ele>869.0</ele><time>2026-04-25T14:29:27.372Z</time></trkpt><trkpt lat="31.5440933" lon="-7.55284"><ele>869.0</ele><time>2026-04-25T14:29:28.372Z</time></trkpt><trkpt lat="31.5440967" lon="-7.5530917"><ele>869.0</ele><time>2026-04-25T14:29:29.372Z</time></trkpt><trkpt lat="31.5441167" lon="-7.5533433"><ele>869.0</ele><time>2026-04-25T14:29:30.372Z</time></trkpt><trkpt lat="31.54415" lon="-7.55359"><ele>869.0</ele><time>2026-04-25T14:29:31.372Z</time></trkpt><trkpt lat="31.5441933" lon="-7.5538333"><ele>869.0</ele><time>2026-04-25T14:29:32.372Z</time></trkpt><trkpt lat="31.5442367" lon="-7.5540817"><ele>868.6666666666667</ele><time>2026-04-25T14:29:33.372Z</time></trkpt><trkpt lat="31.5442817" lon="-7.55432"><ele>868.3333333333333</ele><time>2026-04-25T14:29:34.372Z</time></trkpt><trkpt lat="31.5443217" lon="-7.5545533"><ele>868.0</ele><time>2026-04-25T14:29:35.372Z</time></trkpt><trkpt lat="31.54436" lon="-7.5547667"><ele>868.6666666666666</ele><time>2026-04-25T14:29:36.372Z</time></trkpt><trkpt lat="31.5444" lon="-7.5549767"><ele>869.3333333333333</ele><time>2026-04-25T14:29:37.372Z</time></trkpt><trkpt lat="31.5444317" lon="-7.5551733"><ele>870.0</ele><time>2026-04-25T14:29:38.372Z</time></trkpt><trkpt lat="31.5444667" lon="-7.5553617"><ele>868.6666666666667</ele><time>2026-04-25T14:29:39.372Z</time></trkpt><trkpt lat="31.5445017" lon="-7.5555417"><ele>867.3333333333334</ele><time>2026-04-25T14:29:40.372Z</time></trkpt><trkpt lat="31.5445333" lon="-7.55571"><ele>866.0</ele><time>2026-04-25T14:29:41.372Z</time></trkpt><trkpt lat="31.5445617" lon="-7.5558817"><ele>866.0</ele><time>2026-04-25T14:29:42.372Z</time></trkpt><trkpt lat="31.5445967" lon="-7.556055"><ele>866.0</ele><time>2026-04-25T14:29:43.372Z</time></trkpt><trkpt lat="31.544635" lon="-7.5562267"><ele>866.0</ele><time>2026-04-25T14:29:44.372Z</time></trkpt><trkpt lat="31.5446833" lon="-7.5563967"><ele>864.75</ele><time>2026-04-25T14:29:45.372Z</time></trkpt><trkpt lat="31.54474" lon="-7.5565583"><ele>863.5</ele><time>2026-04-25T14:29:46.373Z</time></trkpt><trkpt lat="31.5447917" lon="-7.5567167"><ele>862.25</ele><time>2026-04-25T14:29:47.372Z</time></trkpt><trkpt lat="31.544845" lon="-7.5568683"><ele>861.0</ele><time>2026-04-25T14:29:48.372Z</time></trkpt><trkpt lat="31.5448983" lon="-7.55702"><ele>859.3333333333333</ele><time>2026-04-25T14:29:49.372Z</time></trkpt><trkpt lat="31.5449633" lon="-7.5571733"><ele>857.6666666666666</ele><time>2026-04-25T14:29:50.372Z</time></trkpt><trkpt lat="31.5450267" lon="-7.5573367"><ele>856.0</ele><time>2026-04-25T14:29:51.372Z</time></trkpt><trkpt lat="31.5450883" lon="-7.5575083"><ele>856.0</ele><time>2026-04-25T14:29:52.372Z</time></trkpt><trkpt lat="31.54515" lon="-7.5576833"><ele>856.0</ele><time>2026-04-25T14:29:53.372Z</time></trkpt><trkpt lat="31.5452217" lon="-7.5578717"><ele>856.0</ele><time>2026-04-25T14:29:54.372Z</time></trkpt><trkpt lat="31.5453033" lon="-7.5580617"><ele>854.3333333333333</ele><time>2026-04-25T14:29:55.372Z</time></trkpt><trkpt lat="31.5453867" lon="-7.55825"><ele>852.6666666666667</ele><time>2026-04-25T14:29:56.372Z</time></trkpt><trkpt lat="31.545465" lon="-7.558435"><ele>851.0</ele><time>2026-04-25T14:29:57.372Z</time></trkpt><trkpt lat="31.5455533" lon="-7.5586067"><ele>850.3333333333334</ele><time>2026-04-25T14:29:58.372Z</time></trkpt><trkpt lat="31.545635" lon="-7.558775"><ele>849.6666666666667</ele><time>2026-04-25T14:29:59.372Z</time></trkpt><trkpt lat="31.54572" lon="-7.5589417"><ele>849.0</ele><time>2026-04-25T14:30:00.372Z</time></trkpt><trkpt lat="31.5458033" lon="-7.5591233"><ele>849.0</ele><time>2026-04-25T14:30:01.372Z</time></trkpt><trkpt lat="31.5458967" lon="-7.5593317"><ele>849.0</ele><time>2026-04-25T14:30:02.372Z</time></trkpt><trkpt lat="31.5460017" lon="-7.5595617"><ele>849.0</ele><time>2026-04-25T14:30:03.372Z</time></trkpt><trkpt lat="31.5461267" lon="-7.5598183"><ele>846.5</ele><time>2026-04-25T14:30:04.372Z</time></trkpt><trkpt lat="31.5462567" lon="-7.5600783"><ele>844.0</ele><time>2026-04-25T14:30:05.372Z</time></trkpt><trkpt lat="31.5463867" lon="-7.560345"><ele>844.5</ele><time>2026-04-25T14:30:06.372Z</time></trkpt><trkpt lat="31.546525" lon="-7.56061"><ele>845.0</ele><time>2026-04-25T14:30:07.372Z</time></trkpt><trkpt lat="31.5466633" lon="-7.560865"><ele>845.0</ele><time>2026-04-25T14:30:08.372Z</time></trkpt><trkpt lat="31.5467883" lon="-7.5611133"><ele>845.0</ele><time>2026-04-25T14:30:09.372Z</time></trkpt><trkpt lat="31.5469083" lon="-7.56136"><ele>844.0</ele><time>2026-04-25T14:30:10.373Z</time></trkpt><trkpt lat="31.547025" lon="-7.5616033"><ele>843.0</ele><time>2026-04-25T14:30:11.372Z</time></trkpt><trkpt lat="31.5471417" lon="-7.5618383"><ele>842.3333333333333</ele><time>2026-04-25T14:30:12.372Z</time></trkpt><trkpt lat="31.547255" lon="-7.5620667"><ele>841.6666666666666</ele><time>2026-04-25T14:30:13.372Z</time></trkpt><trkpt lat="31.5473617" lon="-7.5622867"><ele>841.0</ele><time>2026-04-25T14:30:14.372Z</time></trkpt><trkpt lat="31.5474633" lon="-7.5625067"><ele>841.0</ele><time>2026-04-25T14:30:15.372Z</time></trkpt><trkpt lat="31.547565" lon="-7.562725"><ele>841.0</ele><time>2026-04-25T14:30:16.372Z</time></trkpt><trkpt lat="31.547655" lon="-7.5629517"><ele>841.0</ele><time>2026-04-25T14:30:17.372Z</time></trkpt><trkpt lat="31.5477317" lon="-7.5631883"><ele>839.0</ele><time>2026-04-25T14:30:18.372Z</time></trkpt><trkpt lat="31.5477817" lon="-7.5634317"><ele>837.0</ele><time>2026-04-25T14:30:19.372Z</time></trkpt><trkpt lat="31.5478" lon="-7.5636783"><ele>835.0</ele><time>2026-04-25T14:30:20.372Z</time></trkpt><trkpt lat="31.5477883" lon="-7.563925"><ele>834.0</ele><time>2026-04-25T14:30:21.372Z</time></trkpt><trkpt lat="31.5477583" lon="-7.5641633"><ele>833.0</ele><time>2026-04-25T14:30:22.372Z</time></trkpt><trkpt lat="31.5477" lon="-7.5643983"><ele>832.0</ele><time>2026-04-25T14:30:23.372Z</time></trkpt><trkpt lat="31.5476083" lon="-7.5646267"><ele>832.0</ele><time>2026-04-25T14:30:24.372Z</time></trkpt><trkpt lat="31.5474867" lon="-7.5648433"><ele>832.0</ele><time>2026-04-25T14:30:25.372Z</time></trkpt><trkpt lat="31.5473467" lon="-7.5650383"><ele>832.0</ele><time>2026-04-25T14:30:26.372Z</time></trkpt><trkpt lat="31.5471917" lon="-7.565205"><ele>829.0</ele><time>2026-04-25T14:30:27.373Z</time></trkpt><trkpt lat="31.5470283" lon="-7.56537"><ele>826.0</ele><time>2026-04-25T14:30:28.372Z</time></trkpt><trkpt lat="31.5468583" lon="-7.5655267"><ele>823.0</ele><time>2026-04-25T14:30:29.372Z</time></trkpt><trkpt lat="31.5466917" lon="-7.5656883"><ele>823.0</ele><time>2026-04-25T14:30:30.373Z</time></trkpt><trkpt lat="31.5465283" lon="-7.565845"><ele>823.0</ele><time>2026-04-25T14:30:31.372Z</time></trkpt><trkpt lat="31.5463717" lon="-7.5660017"><ele>823.0</ele><time>2026-04-25T14:30:32.372Z</time></trkpt><trkpt lat="31.54622" lon="-7.5661717"><ele>820.6666666666666</ele><time>2026-04-25T14:30:33.372Z</time></trkpt><trkpt lat="31.5460767" lon="-7.5663683"><ele>818.3333333333333</ele><time>2026-04-25T14:30:34.372Z</time></trkpt><trkpt lat="31.5459517" lon="-7.566585"><ele>816.0</ele><time>2026-04-25T14:30:35.372Z</time></trkpt><trkpt lat="31.5458433" lon="-7.5668083"><ele>818.0</ele><time>2026-04-25T14:30:36.372Z</time></trkpt><trkpt lat="31.5457583" lon="-7.567055"><ele>820.0</ele><time>2026-04-25T14:30:37.372Z</time></trkpt><trkpt lat="31.5456883" lon="-7.5673117"><ele>820.0</ele><time>2026-04-25T14:30:38.372Z</time></trkpt><trkpt lat="31.5456417" lon="-7.56758"><ele>820.0</ele><time>2026-04-25T14:30:39.372Z</time></trkpt><trkpt lat="31.5455967" lon="-7.567835"><ele>820.3333333333333</ele><time>2026-04-25T14:30:40.372Z</time></trkpt><trkpt lat="31.5455583" lon="-7.56809"><ele>820.6666666666667</ele><time>2026-04-25T14:30:41.372Z</time></trkpt><trkpt lat="31.5455217" lon="-7.5683467"><ele>821.0</ele><time>2026-04-25T14:30:42.372Z</time></trkpt><trkpt lat="31.5454883" lon="-7.5686033"><ele>820.0</ele><time>2026-04-25T14:30:43.372Z</time></trkpt><trkpt lat="31.5454667" lon="-7.568855"><ele>819.0</ele><time>2026-04-25T14:30:44.372Z</time></trkpt><trkpt lat="31.54546" lon="-7.5691033"><ele>818.0</ele><time>2026-04-25T14:30:45.372Z</time></trkpt><trkpt lat="31.5454617" lon="-7.569355"><ele>816.3333333333334</ele><time>2026-04-25T14:30:46.372Z</time></trkpt><trkpt lat="31.5454733" lon="-7.569605"><ele>814.6666666666667</ele><time>2026-04-25T14:30:47.372Z</time></trkpt><trkpt lat="31.54548" lon="-7.5698517"><ele>813.0</ele><time>2026-04-25T14:30:48.372Z</time></trkpt><trkpt lat="31.5454883" lon="-7.5700933"><ele>813.0</ele><time>2026-04-25T14:30:49.372Z</time></trkpt><trkpt lat="31.5455017" lon="-7.5703367"><ele>813.0</ele><time>2026-04-25T14:30:50.372Z</time></trkpt><trkpt lat="31.5455133" lon="-7.57057"><ele>813.0</ele><time>2026-04-25T14:30:51.372Z</time></trkpt><trkpt lat="31.5455233" lon="-7.5707933"><ele>812.3333333333333</ele><time>2026-04-25T14:30:52.372Z</time></trkpt><trkpt lat="31.54553" lon="-7.5710167"><ele>811.6666666666666</ele><time>2026-04-25T14:30:53.372Z</time></trkpt><trkpt lat="31.5455483" lon="-7.5712383"><ele>811.0</ele><time>2026-04-25T14:30:54.372Z</time></trkpt><trkpt lat="31.5455783" lon="-7.5714517"><ele>811.0</ele><time>2026-04-25T14:30:55.372Z</time></trkpt><trkpt lat="31.5456183" lon="-7.571665"><ele>811.0</ele><time>2026-04-25T14:30:56.372Z</time></trkpt><trkpt lat="31.5456717" lon="-7.5718733"><ele>811.0</ele><time>2026-04-25T14:30:57.372Z</time></trkpt><trkpt lat="31.5457433" lon="-7.5720767"><ele>810.3333333333333</ele><time>2026-04-25T14:30:58.372Z</time></trkpt><trkpt lat="31.545845" lon="-7.572265"><ele>809.6666666666667</ele><time>2026-04-25T14:30:59.372Z</time></trkpt><trkpt lat="31.54596" lon="-7.57244"><ele>809.0</ele><time>2026-04-25T14:31:00.372Z</time></trkpt><trkpt lat="31.5460817" lon="-7.5726067"><ele>809.0</ele><time>2026-04-25T14:31:01.372Z</time></trkpt><trkpt lat="31.5462117" lon="-7.5727683"><ele>809.0</ele><time>2026-04-25T14:31:02.372Z</time></trkpt><trkpt lat="31.5463367" lon="-7.5729283"><ele>809.0</ele><time>2026-04-25T14:31:03.372Z</time></trkpt><trkpt lat="31.5464667" lon="-7.5730883"><ele>809.0</ele><time>2026-04-25T14:31:04.372Z</time></trkpt><trkpt lat="31.5465917" lon="-7.5732433"><ele>809.0</ele><time>2026-04-25T14:31:05.372Z</time></trkpt><trkpt lat="31.5467133" lon="-7.5733983"><ele>809.0</ele><time>2026-04-25T14:31:06.372Z</time></trkpt><trkpt lat="31.54683" lon="-7.5735483"><ele>808.6666666666667</ele><time>2026-04-25T14:31:07.372Z</time></trkpt><trkpt lat="31.5469533" lon="-7.5736917"><ele>808.3333333333333</ele><time>2026-04-25T14:31:08.373Z</time></trkpt><trkpt lat="31.5470667" lon="-7.5738333"><ele>808.0</ele><time>2026-04-25T14:31:09.372Z</time></trkpt><trkpt lat="31.5471833" lon="-7.57397"><ele>808.0</ele><time>2026-04-25T14:31:10.372Z</time></trkpt><trkpt lat="31.5473" lon="-7.5741083"><ele>808.0</ele><time>2026-04-25T14:31:11.372Z</time></trkpt><trkpt lat="31.5474133" lon="-7.5742467"><ele>808.0</ele><time>2026-04-25T14:31:12.372Z</time></trkpt><trkpt lat="31.5475267" lon="-7.574385"><ele>806.0</ele><time>2026-04-25T14:31:13.372Z</time></trkpt><trkpt lat="31.5476367" lon="-7.5745267"><ele>804.0</ele><time>2026-04-25T14:31:14.372Z</time></trkpt><trkpt lat="31.547755" lon="-7.57467"><ele>802.0</ele><time>2026-04-25T14:31:15.373Z</time></trkpt><trkpt lat="31.5478717" lon="-7.5748183"><ele>803.3333333333333</ele><time>2026-04-25T14:31:16.372Z</time></trkpt><trkpt lat="31.5479883" lon="-7.574965"><ele>804.6666666666667</ele><time>2026-04-25T14:31:17.372Z</time></trkpt><trkpt lat="31.5480983" lon="-7.5751117"><ele>806.0</ele><time>2026-04-25T14:31:18.372Z</time></trkpt><trkpt lat="31.5482133" lon="-7.5752567"><ele>805.3333333333334</ele><time>2026-04-25T14:31:19.372Z</time></trkpt><trkpt lat="31.5483167" lon="-7.575405"><ele>804.6666666666667</ele><time>2026-04-25T14:31:20.372Z</time></trkpt><trkpt lat="31.5484233" lon="-7.5755517"><ele>804.0</ele><time>2026-04-25T14:31:21.372Z</time></trkpt><trkpt lat="31.5485283" lon="-7.5757"><ele>804.0</ele><time>2026-04-25T14:31:22.372Z</time></trkpt><trkpt lat="31.5486317" lon="-7.5758467"><ele>804.0</ele><time>2026-04-25T14:31:23.372Z</time></trkpt><trkpt lat="31.5487317" lon="-7.5759933"><ele>804.0</ele><time>2026-04-25T14:31:24.372Z</time></trkpt><trkpt lat="31.548835" lon="-7.5761383"><ele>804.3333333333333</ele><time>2026-04-25T14:31:25.372Z</time></trkpt><trkpt lat="31.5489417" lon="-7.5762817"><ele>804.6666666666666</ele><time>2026-04-25T14:31:26.372Z</time></trkpt><trkpt lat="31.5490467" lon="-7.5764267"><ele>805.0</ele><time>2026-04-25T14:31:27.372Z</time></trkpt><trkpt lat="31.54915" lon="-7.576575"><ele>805.0</ele><time>2026-04-25T14:31:28.372Z</time></trkpt><trkpt lat="31.54926" lon="-7.5767283"><ele>805.0</ele><time>2026-04-25T14:31:29.372Z</time></trkpt><trkpt lat="31.549365" lon="-7.5768883"><ele>805.0</ele><time>2026-04-25T14:31:30.372Z</time></trkpt><trkpt lat="31.549465" lon="-7.5770533"><ele>806.3333333333333</ele><time>2026-04-25T14:31:31.372Z</time></trkpt><trkpt lat="31.5495533" lon="-7.5772267"><ele>807.6666666666667</ele><time>2026-04-25T14:31:32.372Z</time></trkpt><trkpt lat="31.5496267" lon="-7.577405"><ele>809.0</ele><time>2026-04-25T14:31:33.372Z</time></trkpt><trkpt lat="31.5496933" lon="-7.5775917"><ele>809.0</ele><time>2026-04-25T14:31:34.372Z</time></trkpt><trkpt lat="31.5497583" lon="-7.5777833"><ele>809.0</ele><time>2026-04-25T14:31:35.372Z</time></trkpt><trkpt lat="31.549815" lon="-7.5779767"><ele>809.0</ele><time>2026-04-25T14:31:36.372Z</time></trkpt><trkpt lat="31.5498617" lon="-7.5781817"><ele>808.3333333333334</ele><time>2026-04-25T14:31:37.372Z</time></trkpt><trkpt lat="31.54991" lon="-7.5783883"><ele>807.6666666666667</ele><time>2026-04-25T14:31:38.372Z</time></trkpt><trkpt lat="31.549955" lon="-7.5785967"><ele>807.0</ele><time>2026-04-25T14:31:39.372Z</time></trkpt><trkpt lat="31.5500017" lon="-7.578805"><ele>805.6666666666667</ele><time>2026-04-25T14:31:40.372Z</time></trkpt><trkpt lat="31.5500483" lon="-7.5790233"><ele>804.3333333333334</ele><time>2026-04-25T14:31:41.372Z</time></trkpt><trkpt lat="31.5500967" lon="-7.5792367"><ele>803.0</ele><time>2026-04-25T14:31:42.372Z</time></trkpt><trkpt lat="31.55014" lon="-7.5794467"><ele>802.0</ele><time>2026-04-25T14:31:43.372Z</time></trkpt><trkpt lat="31.55018" lon="-7.5796467"><ele>801.0</ele><time>2026-04-25T14:31:44.372Z</time></trkpt><trkpt lat="31.5502217" lon="-7.5798483"><ele>800.0</ele><time>2026-04-25T14:31:45.373Z</time></trkpt><trkpt lat="31.5502617" lon="-7.5800567"><ele>800.0</ele><time>2026-04-25T14:31:46.372Z</time></trkpt><trkpt lat="31.550295" lon="-7.580265"><ele>800.0</ele><time>2026-04-25T14:31:47.372Z</time></trkpt><trkpt lat="31.5503333" lon="-7.5804633"><ele>800.0</ele><time>2026-04-25T14:31:48.372Z</time></trkpt><trkpt lat="31.550375" lon="-7.58065"><ele>805.3333333333334</ele><time>2026-04-25T14:31:49.373Z</time></trkpt><trkpt lat="31.5504133" lon="-7.5808333"><ele>810.6666666666667</ele><time>2026-04-25T14:31:50.372Z</time></trkpt><trkpt lat="31.55045" lon="-7.5810083"><ele>816.0</ele><time>2026-04-25T14:31:51.372Z</time></trkpt><trkpt lat="31.5504883" lon="-7.5811733"><ele>813.5</ele><time>2026-04-25T14:31:52.372Z</time></trkpt><trkpt lat="31.550525" lon="-7.5813383"><ele>811.0</ele><time>2026-04-25T14:31:53.372Z</time></trkpt><trkpt lat="31.5505583" lon="-7.5815"><ele>808.5</ele><time>2026-04-25T14:31:54.372Z</time></trkpt><trkpt lat="31.5505917" lon="-7.5816617"><ele>806.0</ele><time>2026-04-25T14:31:55.372Z</time></trkpt><trkpt lat="31.55062" lon="-7.5818333"><ele>805.3333333333334</ele><time>2026-04-25T14:31:56.372Z</time></trkpt><trkpt lat="31.5506533" lon="-7.5820267"><ele>804.6666666666667</ele><time>2026-04-25T14:31:57.372Z</time></trkpt><trkpt lat="31.5506983" lon="-7.5822283"><ele>804.0</ele><time>2026-04-25T14:31:58.372Z</time></trkpt><trkpt lat="31.5507367" lon="-7.5824383"><ele>804.0</ele><time>2026-04-25T14:31:59.372Z</time></trkpt><trkpt lat="31.5507883" lon="-7.5826467"><ele>804.0</ele><time>2026-04-25T14:32:00.372Z</time></trkpt><trkpt lat="31.55084" lon="-7.5828583"><ele>804.0</ele><time>2026-04-25T14:32:01.372Z</time></trkpt><trkpt lat="31.5508933" lon="-7.5830733"><ele>803.6666666666667</ele><time>2026-04-25T14:32:02.372Z</time></trkpt><trkpt lat="31.55094" lon="-7.5832933"><ele>803.3333333333334</ele><time>2026-04-25T14:32:03.372Z</time></trkpt><trkpt lat="31.5509833" lon="-7.58351"><ele>803.0</ele><time>2026-04-25T14:32:04.372Z</time></trkpt><trkpt lat="31.5510233" lon="-7.5837317"><ele>802.0</ele><time>2026-04-25T14:32:05.372Z</time></trkpt><trkpt lat="31.5510667" lon="-7.5839483"><ele>801.0</ele><time>2026-04-25T14:32:06.372Z</time></trkpt><trkpt lat="31.5511183" lon="-7.5841633"><ele>800.0</ele><time>2026-04-25T14:32:07.372Z</time></trkpt><trkpt lat="31.55117" lon="-7.584375"><ele>801.6666666666667</ele><time>2026-04-25T14:32:08.373Z</time></trkpt><trkpt lat="31.5512167" lon="-7.58459"><ele>803.3333333333333</ele><time>2026-04-25T14:32:09.372Z</time></trkpt><trkpt lat="31.5512633" lon="-7.5848017"><ele>805.0</ele><time>2026-04-25T14:32:10.372Z</time></trkpt><trkpt lat="31.551325" lon="-7.5850117"><ele>805.0</ele><time>2026-04-25T14:32:11.372Z</time></trkpt><trkpt lat="31.5513883" lon="-7.5852167"><ele>805.0</ele><time>2026-04-25T14:32:12.372Z</time></trkpt><trkpt lat="31.5514667" lon="-7.5854183"><ele>805.0</ele><time>2026-04-25T14:32:13.372Z</time></trkpt><trkpt lat="31.5515517" lon="-7.5856167"><ele>803.6666666666666</ele><time>2026-04-25T14:32:14.372Z</time></trkpt><trkpt lat="31.551645" lon="-7.58581"><ele>802.3333333333333</ele><time>2026-04-25T14:32:15.372Z</time></trkpt><trkpt lat="31.55174" lon="-7.586"><ele>801.0</ele><time>2026-04-25T14:32:16.372Z</time></trkpt><trkpt lat="31.5518317" lon="-7.58619"><ele>800.3333333333333</ele><time>2026-04-25T14:32:17.372Z</time></trkpt><trkpt lat="31.5519283" lon="-7.5863767"><ele>799.6666666666666</ele><time>2026-04-25T14:32:18.372Z</time></trkpt><trkpt lat="31.5520167" lon="-7.586565"><ele>799.0</ele><time>2026-04-25T14:32:19.372Z</time></trkpt><trkpt lat="31.5520867" lon="-7.5867583"><ele>798.0</ele><time>2026-04-25T14:32:20.372Z</time></trkpt><trkpt lat="31.5521317" lon="-7.5869567"><ele>797.0</ele><time>2026-04-25T14:32:21.372Z</time></trkpt><trkpt lat="31.55217" lon="-7.5871667"><ele>796.0</ele><time>2026-04-25T14:32:22.372Z</time></trkpt><trkpt lat="31.5521967" lon="-7.5873867"><ele>795.3333333333333</ele><time>2026-04-25T14:32:23.372Z</time></trkpt><trkpt lat="31.5522017" lon="-7.5876217"><ele>794.6666666666667</ele><time>2026-04-25T14:32:24.373Z</time></trkpt><trkpt lat="31.5521867" lon="-7.587855"><ele>794.0</ele><time>2026-04-25T14:32:25.372Z</time></trkpt><trkpt lat="31.55215" lon="-7.5881"><ele>794.3333333333334</ele><time>2026-04-25T14:32:26.372Z</time></trkpt><trkpt lat="31.5520983" lon="-7.5883433"><ele>794.6666666666667</ele><time>2026-04-25T14:32:27.372Z</time></trkpt><trkpt lat="31.5520367" lon="-7.5885883"><ele>795.0</ele><time>2026-04-25T14:32:28.372Z</time></trkpt><trkpt lat="31.5519683" lon="-7.5888383"><ele>794.3333333333333</ele><time>2026-04-25T14:32:29.372Z</time></trkpt><trkpt lat="31.5518967" lon="-7.58909"><ele>793.6666666666666</ele><time>2026-04-25T14:32:30.372Z</time></trkpt><trkpt lat="31.551835" lon="-7.589335"><ele>793.0</ele><time>2026-04-25T14:32:31.372Z</time></trkpt><trkpt lat="31.5517683" lon="-7.5895833"><ele>791.6666666666666</ele><time>2026-04-25T14:32:32.373Z</time></trkpt><trkpt lat="31.5517083" lon="-7.5898317"><ele>790.3333333333333</ele><time>2026-04-25T14:32:33.372Z</time></trkpt><trkpt lat="31.551635" lon="-7.5900767"><ele>789.0</ele><time>2026-04-25T14:32:34.372Z</time></trkpt><trkpt lat="31.55157" lon="-7.59032"><ele>788.0</ele><time>2026-04-25T14:32:35.372Z</time></trkpt><trkpt lat="31.5514967" lon="-7.59056"><ele>787.0</ele><time>2026-04-25T14:32:36.372Z</time></trkpt><trkpt lat="31.5514333" lon="-7.5908"><ele>786.0</ele><time>2026-04-25T14:32:37.372Z</time></trkpt><trkpt lat="31.5513683" lon="-7.5910433"><ele>785.0</ele><time>2026-04-25T14:32:38.372Z</time></trkpt><trkpt lat="31.55131" lon="-7.5912917"><ele>784.0</ele><time>2026-04-25T14:32:39.372Z</time></trkpt><trkpt lat="31.55126" lon="-7.59154"><ele>783.0</ele><time>2026-04-25T14:32:40.372Z</time></trkpt><trkpt lat="31.5512117" lon="-7.5917917"><ele>783.6666666666667</ele><time>2026-04-25T14:32:41.372Z</time></trkpt><trkpt lat="31.5511683" lon="-7.592045"><ele>784.3333333333334</ele><time>2026-04-25T14:32:42.372Z</time></trkpt><trkpt lat="31.55113" lon="-7.592295"><ele>785.0</ele><time>2026-04-25T14:32:43.372Z</time></trkpt><trkpt lat="31.551095" lon="-7.592545"><ele>785.0</ele><time>2026-04-25T14:32:44.372Z</time></trkpt><trkpt lat="31.551055" lon="-7.5927967"><ele>785.0</ele><time>2026-04-25T14:32:45.372Z</time></trkpt><trkpt lat="31.5510217" lon="-7.593045"><ele>785.0</ele><time>2026-04-25T14:32:46.372Z</time></trkpt><trkpt lat="31.5509833" lon="-7.593295"><ele>784.3333333333334</ele><time>2026-04-25T14:32:47.372Z</time></trkpt><trkpt lat="31.5509433" lon="-7.5935417"><ele>783.6666666666667</ele><time>2026-04-25T14:32:48.372Z</time></trkpt><trkpt lat="31.5508917" lon="-7.5937883"><ele>783.0</ele><time>2026-04-25T14:32:49.372Z</time></trkpt><trkpt lat="31.5508233" lon="-7.5940317"><ele>782.0</ele><time>2026-04-25T14:32:50.372Z</time></trkpt><trkpt lat="31.550735" lon="-7.59426"><ele>781.0</ele><time>2026-04-25T14:32:51.372Z</time></trkpt><trkpt lat="31.5506283" lon="-7.5944717"><ele>780.0</ele><time>2026-04-25T14:32:52.372Z</time></trkpt><trkpt lat="31.5504967" lon="-7.59467"><ele>779.0</ele><time>2026-04-25T14:32:53.372Z</time></trkpt><trkpt lat="31.5503417" lon="-7.5948367"><ele>778.0</ele><time>2026-04-25T14:32:54.372Z</time></trkpt><trkpt lat="31.5501783" lon="-7.59499"><ele>777.0</ele><time>2026-04-25T14:32:55.372Z</time></trkpt><trkpt lat="31.550005" lon="-7.5951433"><ele>777.0</ele><time>2026-04-25T14:32:56.372Z</time></trkpt><trkpt lat="31.5498333" lon="-7.595285"><ele>777.0</ele><time>2026-04-25T14:32:57.372Z</time></trkpt><trkpt lat="31.5496683" lon="-7.5954133"><ele>777.0</ele><time>2026-04-25T14:32:58.372Z</time></trkpt><trkpt lat="31.5495117" lon="-7.59555"><ele>775.6666666666667</ele><time>2026-04-25T14:32:59.372Z</time></trkpt><trkpt lat="31.5493633" lon="-7.5956917"><ele>774.3333333333334</ele><time>2026-04-25T14:33:00.372Z</time></trkpt><trkpt lat="31.549225" lon="-7.595845"><ele>773.0</ele><time>2026-04-25T14:33:01.372Z</time></trkpt><trkpt lat="31.5491083" lon="-7.5960133"><ele>771.6666666666667</ele><time>2026-04-25T14:33:02.372Z</time></trkpt><trkpt lat="31.54901" lon="-7.5961933"><ele>770.3333333333333</ele><time>2026-04-25T14:33:03.372Z</time></trkpt><trkpt lat="31.5489333" lon="-7.59639"><ele>769.0</ele><time>2026-04-25T14:33:04.372Z</time></trkpt><trkpt lat="31.54887" lon="-7.59661"><ele>769.0</ele><time>2026-04-25T14:33:05.372Z</time></trkpt><trkpt lat="31.5488267" lon="-7.59684"><ele>769.0</ele><time>2026-04-25T14:33:06.372Z</time></trkpt><trkpt lat="31.5487967" lon="-7.59707"><ele>769.0</ele><time>2026-04-25T14:33:07.372Z</time></trkpt><trkpt lat="31.5487883" lon="-7.5972983"><ele>768.6666666666666</ele><time>2026-04-25T14:33:08.372Z</time></trkpt><trkpt lat="31.5487967" lon="-7.59752"><ele>768.3333333333333</ele><time>2026-04-25T14:33:09.372Z</time></trkpt><trkpt lat="31.5488067" lon="-7.5977417"><ele>768.0</ele><time>2026-04-25T14:33:10.372Z</time></trkpt><trkpt lat="31.548805" lon="-7.5979617"><ele>768.0</ele><time>2026-04-25T14:33:11.372Z</time></trkpt><trkpt lat="31.548795" lon="-7.5981683"><ele>768.0</ele><time>2026-04-25T14:33:12.372Z</time></trkpt><trkpt lat="31.548805" lon="-7.5983733"><ele>768.0</ele><time>2026-04-25T14:33:13.372Z</time></trkpt><trkpt lat="31.54881" lon="-7.5985683"><ele>767.0</ele><time>2026-04-25T14:33:14.372Z</time></trkpt><trkpt lat="31.5488117" lon="-7.5987683"><ele>766.0</ele><time>2026-04-25T14:33:15.372Z</time></trkpt><trkpt lat="31.5488033" lon="-7.5989783"><ele>765.0</ele><time>2026-04-25T14:33:16.372Z</time></trkpt><trkpt lat="31.5487917" lon="-7.5992083"><ele>765.0</ele><time>2026-04-25T14:33:17.372Z</time></trkpt><trkpt lat="31.5487767" lon="-7.59947"><ele>765.0</ele><time>2026-04-25T14:33:18.372Z</time></trkpt><trkpt lat="31.5487483" lon="-7.599735"><ele>764.0</ele><time>2026-04-25T14:33:19.372Z</time></trkpt><trkpt lat="31.5487217" lon="-7.60001"><ele>763.0</ele><time>2026-04-25T14:33:20.373Z</time></trkpt><trkpt lat="31.5486867" lon="-7.6002933"><ele>762.0</ele><time>2026-04-25T14:33:21.372Z</time></trkpt><trkpt lat="31.54866" lon="-7.6005667"><ele>761.0</ele><time>2026-04-25T14:33:22.372Z</time></trkpt><trkpt lat="31.54863" lon="-7.6008217"><ele>761.0</ele><time>2026-04-25T14:33:23.372Z</time></trkpt><trkpt lat="31.5486" lon="-7.60106"><ele>761.0</ele><time>2026-04-25T14:33:24.372Z</time></trkpt><trkpt lat="31.548565" lon="-7.60129"><ele>761.0</ele><time>2026-04-25T14:33:25.372Z</time></trkpt><trkpt lat="31.548535" lon="-7.601525"><ele>762.0</ele><time>2026-04-25T14:33:26.373Z</time></trkpt><trkpt lat="31.5485067" lon="-7.6017633"><ele>763.0</ele><time>2026-04-25T14:33:27.372Z</time></trkpt><trkpt lat="31.54849" lon="-7.6020067"><ele>764.0</ele><time>2026-04-25T14:33:28.372Z</time></trkpt><trkpt lat="31.5484817" lon="-7.6022533"><ele>764.0</ele><time>2026-04-25T14:33:29.372Z</time></trkpt><trkpt lat="31.5484783" lon="-7.6025017"><ele>764.0</ele><time>2026-04-25T14:33:30.372Z</time></trkpt><trkpt lat="31.54849" lon="-7.6027567"><ele>764.0</ele><time>2026-04-25T14:33:31.372Z</time></trkpt><trkpt lat="31.5485083" lon="-7.6030167"><ele>763.0</ele><time>2026-04-25T14:33:32.372Z</time></trkpt><trkpt lat="31.548535" lon="-7.60328"><ele>762.0</ele><time>2026-04-25T14:33:33.372Z</time></trkpt><trkpt lat="31.5485667" lon="-7.6035433"><ele>762.5</ele><time>2026-04-25T14:33:34.372Z</time></trkpt><trkpt lat="31.5486017" lon="-7.6038067"><ele>763.0</ele><time>2026-04-25T14:33:35.372Z</time></trkpt><trkpt lat="31.5486383" lon="-7.604065"><ele>763.0</ele><time>2026-04-25T14:33:36.372Z</time></trkpt><trkpt lat="31.54867" lon="-7.60431"><ele>763.0</ele><time>2026-04-25T14:33:37.372Z</time></trkpt><trkpt lat="31.5486983" lon="-7.6045467"><ele>763.0</ele><time>2026-04-25T14:33:38.372Z</time></trkpt><trkpt lat="31.5487217" lon="-7.60478"><ele>764.3333333333334</ele><time>2026-04-25T14:33:39.372Z</time></trkpt><trkpt lat="31.548745" lon="-7.6050083"><ele>765.6666666666666</ele><time>2026-04-25T14:33:40.372Z</time></trkpt><trkpt lat="31.5487717" lon="-7.6052283"><ele>767.0</ele><time>2026-04-25T14:33:41.372Z</time></trkpt><trkpt lat="31.5487983" lon="-7.6054433"><ele>767.0</ele><time>2026-04-25T14:33:42.372Z</time></trkpt><trkpt lat="31.5488217" lon="-7.605645"><ele>767.0</ele><time>2026-04-25T14:33:43.372Z</time></trkpt><trkpt lat="31.54884" lon="-7.60584"><ele>767.0</ele><time>2026-04-25T14:33:44.372Z</time></trkpt><trkpt lat="31.5488667" lon="-7.60603"><ele>767.3333333333333</ele><time>2026-04-25T14:33:45.372Z</time></trkpt><trkpt lat="31.54889" lon="-7.6062183"><ele>767.6666666666666</ele><time>2026-04-25T14:33:46.372Z</time></trkpt><trkpt lat="31.5489083" lon="-7.6064033"><ele>768.0</ele><time>2026-04-25T14:33:47.372Z</time></trkpt><trkpt lat="31.548925" lon="-7.6065867"><ele>768.0</ele><time>2026-04-25T14:33:48.372Z</time></trkpt><trkpt lat="31.548925" lon="-7.6067717"><ele>768.0</ele><time>2026-04-25T14:33:49.372Z</time></trkpt><trkpt lat="31.548905" lon="-7.60695"><ele>768.0</ele><time>2026-04-25T14:33:50.372Z</time></trkpt><trkpt lat="31.5488617" lon="-7.6071133"><ele>767.75</ele><time>2026-04-25T14:33:51.372Z</time></trkpt><trkpt lat="31.548805" lon="-7.607275"><ele>767.5</ele><time>2026-04-25T14:33:52.372Z</time></trkpt><trkpt lat="31.5487417" lon="-7.6074333"><ele>767.25</ele><time>2026-04-25T14:33:53.372Z</time></trkpt><trkpt lat="31.5486767" lon="-7.607585"><ele>767.0</ele><time>2026-04-25T14:33:54.372Z</time></trkpt><trkpt lat="31.5486267" lon="-7.60775"><ele>764.0</ele><time>2026-04-25T14:33:55.373Z</time></trkpt><trkpt lat="31.5486033" lon="-7.6079283"><ele>761.0</ele><time>2026-04-25T14:33:56.372Z</time></trkpt><trkpt lat="31.5485817" lon="-7.6081033"><ele>758.0</ele><time>2026-04-25T14:33:57.372Z</time></trkpt><trkpt lat="31.5485667" lon="-7.6082767"><ele>758.0</ele><time>2026-04-25T14:33:58.372Z</time></trkpt><trkpt lat="31.5485533" lon="-7.6084583"><ele>758.0</ele><time>2026-04-25T14:33:59.372Z</time></trkpt><trkpt lat="31.5485383" lon="-7.6086483"><ele>758.0</ele><time>2026-04-25T14:34:00.372Z</time></trkpt><trkpt lat="31.5485283" lon="-7.6088417"><ele>759.0</ele><time>2026-04-25T14:34:01.372Z</time></trkpt><trkpt lat="31.5485183" lon="-7.60903"><ele>760.0</ele><time>2026-04-25T14:34:02.372Z</time></trkpt><trkpt lat="31.5485067" lon="-7.6092233"><ele>761.0</ele><time>2026-04-25T14:34:03.372Z</time></trkpt><trkpt lat="31.5484917" lon="-7.609415"><ele>762.0</ele><time>2026-04-25T14:34:04.372Z</time></trkpt><trkpt lat="31.54847" lon="-7.60961"><ele>763.0</ele><time>2026-04-25T14:34:05.372Z</time></trkpt><trkpt lat="31.548445" lon="-7.6098117"><ele>764.0</ele><time>2026-04-25T14:34:06.372Z</time></trkpt><trkpt lat="31.54841" lon="-7.6100167"><ele>764.0</ele><time>2026-04-25T14:34:07.372Z</time></trkpt><trkpt lat="31.5483583" lon="-7.6102167"><ele>764.0</ele><time>2026-04-25T14:34:08.372Z</time></trkpt><trkpt lat="31.5483033" lon="-7.610435"><ele>764.0</ele><time>2026-04-25T14:34:09.372Z</time></trkpt><trkpt lat="31.5482417" lon="-7.610655"><ele>765.6666666666666</ele><time>2026-04-25T14:34:10.372Z</time></trkpt><trkpt lat="31.5481783" lon="-7.6108817"><ele>767.3333333333333</ele><time>2026-04-25T14:34:11.372Z</time></trkpt><trkpt lat="31.5481217" lon="-7.611095"><ele>769.0</ele><time>2026-04-25T14:34:12.372Z</time></trkpt><trkpt lat="31.54806" lon="-7.6112933"><ele>772.6666666666666</ele><time>2026-04-25T14:34:13.372Z</time></trkpt><trkpt lat="31.5480017" lon="-7.61149"><ele>776.3333333333333</ele><time>2026-04-25T14:34:14.372Z</time></trkpt><trkpt lat="31.5479417" lon="-7.6116883"><ele>780.0</ele><time>2026-04-25T14:34:15.372Z</time></trkpt><trkpt lat="31.5478733" lon="-7.6118867"><ele>771.0</ele><time>2026-04-25T14:34:16.372Z</time></trkpt><trkpt lat="31.547805" lon="-7.612095"><ele>762.0</ele><time>2026-04-25T14:34:17.372Z</time></trkpt><trkpt lat="31.5477383" lon="-7.6123083"><ele>753.0</ele><time>2026-04-25T14:34:18.372Z</time></trkpt><trkpt lat="31.5476717" lon="-7.612525"><ele>753.0</ele><time>2026-04-25T14:34:19.372Z</time></trkpt><trkpt lat="31.5476017" lon="-7.6127483"><ele>753.0</ele><time>2026-04-25T14:34:20.372Z</time></trkpt><trkpt lat="31.5475267" lon="-7.61297"><ele>753.0</ele><time>2026-04-25T14:34:21.372Z</time></trkpt><trkpt lat="31.5474533" lon="-7.6132017"><ele>755.3333333333334</ele><time>2026-04-25T14:34:22.372Z</time></trkpt><trkpt lat="31.5473733" lon="-7.6134367"><ele>757.6666666666667</ele><time>2026-04-25T14:34:23.372Z</time></trkpt><trkpt lat="31.5472917" lon="-7.6136817"><ele>760.0</ele><time>2026-04-25T14:34:24.372Z</time></trkpt><trkpt lat="31.5472117" lon="-7.6139383"><ele>767.5</ele><time>2026-04-25T14:34:25.372Z</time></trkpt><trkpt lat="31.5471367" lon="-7.614195"><ele>775.0</ele><time>2026-04-25T14:34:26.372Z</time></trkpt><trkpt lat="31.547065" lon="-7.614445"><ele>767.3333333333333</ele><time>2026-04-25T14:34:27.372Z</time></trkpt><trkpt lat="31.5469983" lon="-7.6146883"><ele>759.6666666666666</ele><time>2026-04-25T14:34:28.371Z</time></trkpt><trkpt lat="31.5469317" lon="-7.6149283"><ele>752.0</ele><time>2026-04-25T14:34:29.371Z</time></trkpt><trkpt lat="31.5468633" lon="-7.61515"><ele>754.6666666666666</ele><time>2026-04-25T14:34:30.371Z</time></trkpt><trkpt lat="31.5467983" lon="-7.6153767"><ele>757.3333333333334</ele><time>2026-04-25T14:34:31.371Z</time></trkpt><trkpt lat="31.5467267" lon="-7.6156067"><ele>760.0</ele><time>2026-04-25T14:34:32.371Z</time></trkpt><trkpt lat="31.5466533" lon="-7.6158217"><ele>760.0</ele><time>2026-04-25T14:34:33.371Z</time></trkpt><trkpt lat="31.54659" lon="-7.616035"><ele>760.0</ele><time>2026-04-25T14:34:34.371Z</time></trkpt><trkpt lat="31.546525" lon="-7.6162433"><ele>760.0</ele><time>2026-04-25T14:34:35.371Z</time></trkpt><trkpt lat="31.5464567" lon="-7.6164467"><ele>762.3333333333334</ele><time>2026-04-25T14:34:36.371Z</time></trkpt><trkpt lat="31.5463933" lon="-7.6166517"><ele>764.6666666666666</ele><time>2026-04-25T14:34:37.371Z</time></trkpt><trkpt lat="31.546325" lon="-7.61685"><ele>767.0</ele><time>2026-04-25T14:34:38.371Z</time></trkpt><trkpt lat="31.54626" lon="-7.6170483"><ele>761.0</ele><time>2026-04-25T14:34:39.371Z</time></trkpt><trkpt lat="31.5461983" lon="-7.6172467"><ele>755.0</ele><time>2026-04-25T14:34:40.371Z</time></trkpt><trkpt lat="31.5461383" lon="-7.6174317"><ele>749.0</ele><time>2026-04-25T14:34:41.371Z</time></trkpt><trkpt lat="31.54607" lon="-7.6176067"><ele>749.0</ele><time>2026-04-25T14:34:42.371Z</time></trkpt><trkpt lat="31.5459883" lon="-7.6177617"><ele>749.0</ele><time>2026-04-25T14:34:43.371Z</time></trkpt><trkpt lat="31.545895" lon="-7.61791"><ele>749.0</ele><time>2026-04-25T14:34:44.371Z</time></trkpt><trkpt lat="31.5457833" lon="-7.61804"><ele>747.6666666666666</ele><time>2026-04-25T14:34:45.371Z</time></trkpt><trkpt lat="31.5456617" lon="-7.6181617"><ele>746.3333333333334</ele><time>2026-04-25T14:34:46.371Z</time></trkpt><trkpt lat="31.5455233" lon="-7.6182767"><ele>745.0</ele><time>2026-04-25T14:34:47.371Z</time></trkpt><trkpt lat="31.5453767" lon="-7.6183783"><ele>745.0</ele><time>2026-04-25T14:34:48.371Z</time></trkpt><trkpt lat="31.5452233" lon="-7.618465"><ele>745.0</ele><time>2026-04-25T14:34:49.371Z</time></trkpt><trkpt lat="31.5450667" lon="-7.6185467"><ele>745.0</ele><time>2026-04-25T14:34:50.371Z</time></trkpt><trkpt lat="31.54491" lon="-7.6186383"><ele>745.6666666666667</ele><time>2026-04-25T14:34:51.371Z</time></trkpt><trkpt lat="31.5447417" lon="-7.61874"><ele>746.3333333333334</ele><time>2026-04-25T14:34:52.371Z</time></trkpt><trkpt lat="31.5445717" lon="-7.618855"><ele>747.0</ele><time>2026-04-25T14:34:53.371Z</time></trkpt><trkpt lat="31.544405" lon="-7.6189833"><ele>747.0</ele><time>2026-04-25T14:34:54.371Z</time></trkpt><trkpt lat="31.5442417" lon="-7.61913"><ele>747.0</ele><time>2026-04-25T14:34:55.371Z</time></trkpt><trkpt lat="31.54409" lon="-7.61929"><ele>747.0</ele><time>2026-04-25T14:34:56.371Z</time></trkpt><trkpt lat="31.5439483" lon="-7.6194567"><ele>745.3333333333334</ele><time>2026-04-25T14:34:57.371Z</time></trkpt><trkpt lat="31.5438233" lon="-7.6196333"><ele>743.6666666666667</ele><time>2026-04-25T14:34:58.371Z</time></trkpt><trkpt lat="31.543715" lon="-7.6198117"><ele>742.0</ele><time>2026-04-25T14:34:59.371Z</time></trkpt><trkpt lat="31.543615" lon="-7.6199867"><ele>742.0</ele><time>2026-04-25T14:35:00.371Z</time></trkpt><trkpt lat="31.5435283" lon="-7.6201633"><ele>742.0</ele><time>2026-04-25T14:35:01.371Z</time></trkpt><trkpt lat="31.5434483" lon="-7.6203467"><ele>742.0</ele><time>2026-04-25T14:35:02.371Z</time></trkpt><trkpt lat="31.5433733" lon="-7.62052"><ele>746.3333333333334</ele><time>2026-04-25T14:35:03.371Z</time></trkpt><trkpt lat="31.5433017" lon="-7.6206817"><ele>750.6666666666666</ele><time>2026-04-25T14:35:04.371Z</time></trkpt><trkpt lat="31.5432417" lon="-7.6208367"><ele>755.0</ele><time>2026-04-25T14:35:05.371Z</time></trkpt><trkpt lat="31.54318" lon="-7.6209983"><ele>757.3333333333333</ele><time>2026-04-25T14:35:06.371Z</time></trkpt><trkpt lat="31.5431267" lon="-7.6211833"><ele>759.6666666666666</ele><time>2026-04-25T14:35:07.371Z</time></trkpt><trkpt lat="31.5430883" lon="-7.62139"><ele>762.0</ele><time>2026-04-25T14:35:08.372Z</time></trkpt><trkpt lat="31.54307" lon="-7.6216"><ele>762.0</ele><time>2026-04-25T14:35:09.371Z</time></trkpt><trkpt lat="31.54307" lon="-7.62182"><ele>762.0</ele><time>2026-04-25T14:35:10.371Z</time></trkpt><trkpt lat="31.543085" lon="-7.6220383"><ele>762.0</ele><time>2026-04-25T14:35:11.371Z</time></trkpt><trkpt lat="31.5431217" lon="-7.6222517"><ele>759.6666666666666</ele><time>2026-04-25T14:35:12.372Z</time></trkpt><trkpt lat="31.5431833" lon="-7.6224517"><ele>757.3333333333333</ele><time>2026-04-25T14:35:13.371Z</time></trkpt><trkpt lat="31.543255" lon="-7.6226417"><ele>755.0</ele><time>2026-04-25T14:35:14.371Z</time></trkpt><trkpt lat="31.5433383" lon="-7.6228233"><ele>752.6666666666666</ele><time>2026-04-25T14:35:15.371Z</time></trkpt><trkpt lat="31.5434267" lon="-7.623"><ele>750.3333333333334</ele><time>2026-04-25T14:35:16.371Z</time></trkpt><trkpt lat="31.54351" lon="-7.623185"><ele>748.0</ele><time>2026-04-25T14:35:17.371Z</time></trkpt><trkpt lat="31.5435783" lon="-7.6233733"><ele>748.0</ele><time>2026-04-25T14:35:18.371Z</time></trkpt><trkpt lat="31.5436383" lon="-7.6235733"><ele>748.0</ele><time>2026-04-25T14:35:19.371Z</time></trkpt><trkpt lat="31.5436783" lon="-7.623775"><ele>748.0</ele><time>2026-04-25T14:35:20.371Z</time></trkpt><trkpt lat="31.5437" lon="-7.623985"><ele>746.0</ele><time>2026-04-25T14:35:21.371Z</time></trkpt><trkpt lat="31.54371" lon="-7.6242017"><ele>744.0</ele><time>2026-04-25T14:35:22.371Z</time></trkpt><trkpt lat="31.5437083" lon="-7.6244217"><ele>742.0</ele><time>2026-04-25T14:35:23.371Z</time></trkpt><trkpt lat="31.5436917" lon="-7.62464"><ele>742.0</ele><time>2026-04-25T14:35:24.371Z</time></trkpt><trkpt lat="31.543675" lon="-7.624855"><ele>742.0</ele><time>2026-04-25T14:35:25.371Z</time></trkpt><trkpt lat="31.5436633" lon="-7.62506"><ele>742.0</ele><time>2026-04-25T14:35:26.372Z</time></trkpt><trkpt lat="31.5436667" lon="-7.62525"><ele>740.6666666666667</ele><time>2026-04-25T14:35:27.371Z</time></trkpt><trkpt lat="31.543685" lon="-7.6254367"><ele>739.3333333333334</ele><time>2026-04-25T14:35:28.371Z</time></trkpt><trkpt lat="31.5437217" lon="-7.6256117"><ele>738.0</ele><time>2026-04-25T14:35:29.371Z</time></trkpt><trkpt lat="31.5437633" lon="-7.6257867"><ele>740.6666666666666</ele><time>2026-04-25T14:35:30.371Z</time></trkpt><trkpt lat="31.5438117" lon="-7.625965"><ele>743.3333333333333</ele><time>2026-04-25T14:35:31.371Z</time></trkpt><trkpt lat="31.5438483" lon="-7.6261433"><ele>746.0</ele><time>2026-04-25T14:35:32.371Z</time></trkpt><trkpt lat="31.5438783" lon="-7.6263283"><ele>746.0</ele><time>2026-04-25T14:35:33.371Z</time></trkpt><trkpt lat="31.5438883" lon="-7.6265217"><ele>746.0</ele><time>2026-04-25T14:35:34.371Z</time></trkpt><trkpt lat="31.5438817" lon="-7.6267117"><ele>746.0</ele><time>2026-04-25T14:35:35.371Z</time></trkpt><trkpt lat="31.5438467" lon="-7.6268933"><ele>747.0</ele><time>2026-04-25T14:35:36.371Z</time></trkpt><trkpt lat="31.5437867" lon="-7.6270767"><ele>748.0</ele><time>2026-04-25T14:35:37.371Z</time></trkpt><trkpt lat="31.5437183" lon="-7.62724"><ele>749.0</ele><time>2026-04-25T14:35:38.371Z</time></trkpt><trkpt lat="31.543635" lon="-7.6274017"><ele>747.3333333333333</ele><time>2026-04-25T14:35:39.371Z</time></trkpt><trkpt lat="31.5435533" lon="-7.627555"><ele>745.6666666666666</ele><time>2026-04-25T14:35:40.371Z</time></trkpt><trkpt lat="31.5434733" lon="-7.627715"><ele>744.0</ele><time>2026-04-25T14:35:41.371Z</time></trkpt><trkpt lat="31.5433983" lon="-7.6278867"><ele>744.0</ele><time>2026-04-25T14:35:42.371Z</time></trkpt><trkpt lat="31.543325" lon="-7.6280617"><ele>744.0</ele><time>2026-04-25T14:35:43.371Z</time></trkpt><trkpt lat="31.5432667" lon="-7.6282433"><ele>744.0</ele><time>2026-04-25T14:35:44.371Z</time></trkpt><trkpt lat="31.5432367" lon="-7.628425"><ele>744.0</ele><time>2026-04-25T14:35:45.371Z</time></trkpt><trkpt lat="31.5432283" lon="-7.6286"><ele>744.0</ele><time>2026-04-25T14:35:46.371Z</time></trkpt><trkpt lat="31.5432367" lon="-7.6287817"><ele>744.0</ele><time>2026-04-25T14:35:47.371Z</time></trkpt><trkpt lat="31.5432717" lon="-7.6289483"><ele>743.75</ele><time>2026-04-25T14:35:48.371Z</time></trkpt><trkpt lat="31.5433283" lon="-7.62911"><ele>743.5</ele><time>2026-04-25T14:35:49.371Z</time></trkpt><trkpt lat="31.5434067" lon="-7.629255"><ele>743.25</ele><time>2026-04-25T14:35:50.371Z</time></trkpt><trkpt lat="31.5434967" lon="-7.6293933"><ele>743.0</ele><time>2026-04-25T14:35:51.371Z</time></trkpt><trkpt lat="31.5435833" lon="-7.6295133"><ele>742.0</ele><time>2026-04-25T14:35:52.371Z</time></trkpt><trkpt lat="31.543695" lon="-7.6296233"><ele>741.0</ele><time>2026-04-25T14:35:53.371Z</time></trkpt><trkpt lat="31.5438083" lon="-7.6297317"><ele>740.0</ele><time>2026-04-25T14:35:54.371Z</time></trkpt><trkpt lat="31.5439217" lon="-7.6298317"><ele>739.0</ele><time>2026-04-25T14:35:55.371Z</time></trkpt><trkpt lat="31.5440417" lon="-7.6299367"><ele>739.0</ele><time>2026-04-25T14:35:56.371Z</time></trkpt><trkpt lat="31.544155" lon="-7.63005"><ele>739.0</ele><time>2026-04-25T14:35:57.371Z</time></trkpt><trkpt lat="31.54426" lon="-7.63018"><ele>739.0</ele><time>2026-04-25T14:35:58.371Z</time></trkpt><trkpt lat="31.5443483" lon="-7.630315"><ele>739.0</ele><time>2026-04-25T14:35:59.371Z</time></trkpt><trkpt lat="31.5444283" lon="-7.6304617"><ele>738.6666666666667</ele><time>2026-04-25T14:36:00.371Z</time></trkpt><trkpt lat="31.5445" lon="-7.63062"><ele>738.3333333333334</ele><time>2026-04-25T14:36:01.372Z</time></trkpt><trkpt lat="31.5445583" lon="-7.630785"><ele>738.0</ele><time>2026-04-25T14:36:02.371Z</time></trkpt><trkpt lat="31.54461" lon="-7.6309567"><ele>738.0</ele><time>2026-04-25T14:36:03.371Z</time></trkpt><trkpt lat="31.544655" lon="-7.63113"><ele>738.0</ele><time>2026-04-25T14:36:04.371Z</time></trkpt><trkpt lat="31.5446983" lon="-7.6313133"><ele>738.0</ele><time>2026-04-25T14:36:05.371Z</time></trkpt><trkpt lat="31.5447367" lon="-7.6314967"><ele>737.25</ele><time>2026-04-25T14:36:06.371Z</time></trkpt><trkpt lat="31.54478" lon="-7.63167"><ele>736.5</ele><time>2026-04-25T14:36:07.371Z</time></trkpt><trkpt lat="31.5448167" lon="-7.63184"><ele>735.75</ele><time>2026-04-25T14:36:08.372Z</time></trkpt><trkpt lat="31.5448517" lon="-7.6320017"><ele>735.0</ele><time>2026-04-25T14:36:09.371Z</time></trkpt><trkpt lat="31.5448833" lon="-7.6321633"><ele>734.5</ele><time>2026-04-25T14:36:10.371Z</time></trkpt><trkpt lat="31.54492" lon="-7.632325"><ele>734.0</ele><time>2026-04-25T14:36:11.371Z</time></trkpt><trkpt lat="31.54496" lon="-7.6324833"><ele>733.5</ele><time>2026-04-25T14:36:12.371Z</time></trkpt><trkpt lat="31.545005" lon="-7.632635"><ele>733.0</ele><time>2026-04-25T14:36:13.371Z</time></trkpt><trkpt lat="31.54504" lon="-7.6327817"><ele>733.0</ele><time>2026-04-25T14:36:14.371Z</time></trkpt><trkpt lat="31.545075" lon="-7.6329183"><ele>733.0</ele><time>2026-04-25T14:36:15.371Z</time></trkpt><trkpt lat="31.5451017" lon="-7.6330533"><ele>733.0</ele><time>2026-04-25T14:36:16.371Z</time></trkpt><trkpt lat="31.5451333" lon="-7.6331867"><ele>733.0</ele><time>2026-04-25T14:36:17.371Z</time></trkpt><trkpt lat="31.5451683" lon="-7.6333233"><ele>733.0</ele><time>2026-04-25T14:36:18.371Z</time></trkpt><trkpt lat="31.5452017" lon="-7.6334567"><ele>733.0</ele><time>2026-04-25T14:36:19.371Z</time></trkpt><trkpt lat="31.5452317" lon="-7.63359"><ele>733.0</ele><time>2026-04-25T14:36:20.371Z</time></trkpt><trkpt lat="31.5452583" lon="-7.63372"><ele>733.0</ele><time>2026-04-25T14:36:21.371Z</time></trkpt><trkpt lat="31.54529" lon="-7.63385"><ele>733.0</ele><time>2026-04-25T14:36:22.371Z</time></trkpt><trkpt lat="31.545335" lon="-7.6339783"><ele>733.0</ele><time>2026-04-25T14:36:23.371Z</time></trkpt><trkpt lat="31.5453933" lon="-7.6341067"><ele>733.0</ele><time>2026-04-25T14:36:24.371Z</time></trkpt><trkpt lat="31.54545" lon="-7.6342333"><ele>733.0</ele><time>2026-04-25T14:36:25.371Z</time></trkpt><trkpt lat="31.5455133" lon="-7.63435"><ele>732.75</ele><time>2026-04-25T14:36:26.371Z</time></trkpt><trkpt lat="31.54559" lon="-7.6344533"><ele>732.5</ele><time>2026-04-25T14:36:27.371Z</time></trkpt><trkpt lat="31.5456767" lon="-7.6345467"><ele>732.25</ele><time>2026-04-25T14:36:28.371Z</time></trkpt><trkpt lat="31.545755" lon="-7.6346417"><ele>732.0</ele><time>2026-04-25T14:36:29.371Z</time></trkpt><trkpt lat="31.5458383" lon="-7.6347283"><ele>732.0</ele><time>2026-04-25T14:36:30.371Z</time></trkpt><trkpt lat="31.545925" lon="-7.6348217"><ele>732.0</ele><time>2026-04-25T14:36:31.371Z</time></trkpt><trkpt lat="31.5460117" lon="-7.6349217"><ele>732.0</ele><time>2026-04-25T14:36:32.371Z</time></trkpt><trkpt lat="31.5461" lon="-7.6350133"><ele>732.0</ele><time>2026-04-25T14:36:33.371Z</time></trkpt><trkpt lat="31.546185" lon="-7.635105"><ele>731.75</ele><time>2026-04-25T14:36:34.371Z</time></trkpt><trkpt lat="31.5462683" lon="-7.6351967"><ele>731.5</ele><time>2026-04-25T14:36:35.371Z</time></trkpt><trkpt lat="31.5463567" lon="-7.6352867"><ele>731.25</ele><time>2026-04-25T14:36:36.371Z</time></trkpt><trkpt lat="31.546445" lon="-7.6353783"><ele>731.0</ele><time>2026-04-25T14:36:37.371Z</time></trkpt><trkpt lat="31.5465333" lon="-7.6354717"><ele>730.5</ele><time>2026-04-25T14:36:38.371Z</time></trkpt><trkpt lat="31.5466217" lon="-7.63557"><ele>730.0</ele><time>2026-04-25T14:36:39.371Z</time></trkpt><trkpt lat="31.5467117" lon="-7.6356683"><ele>729.5</ele><time>2026-04-25T14:36:40.371Z</time></trkpt><trkpt lat="31.5468" lon="-7.6357667"><ele>729.0</ele><time>2026-04-25T14:36:41.371Z</time></trkpt><trkpt lat="31.5468867" lon="-7.6358667"><ele>729.0</ele><time>2026-04-25T14:36:42.372Z</time></trkpt><trkpt lat="31.5469683" lon="-7.6359717"><ele>729.0</ele><time>2026-04-25T14:36:43.371Z</time></trkpt><trkpt lat="31.54706" lon="-7.6360717"><ele>729.0</ele><time>2026-04-25T14:36:44.371Z</time></trkpt><trkpt lat="31.5471517" lon="-7.6361767"><ele>729.0</ele><time>2026-04-25T14:36:45.371Z</time></trkpt><trkpt lat="31.5472383" lon="-7.636275"><ele>728.5</ele><time>2026-04-25T14:36:46.371Z</time></trkpt><trkpt lat="31.5473283" lon="-7.6363617"><ele>728.0</ele><time>2026-04-25T14:36:47.371Z</time></trkpt><trkpt lat="31.5474183" lon="-7.63646"><ele>727.5</ele><time>2026-04-25T14:36:48.371Z</time></trkpt><trkpt lat="31.5475017" lon="-7.6365683"><ele>727.0</ele><time>2026-04-25T14:36:49.371Z</time></trkpt><trkpt lat="31.547595" lon="-7.63667"><ele>727.0</ele><time>2026-04-25T14:36:50.371Z</time></trkpt><trkpt lat="31.5476883" lon="-7.636775"><ele>727.0</ele><time>2026-04-25T14:36:51.371Z</time></trkpt><trkpt lat="31.547785" lon="-7.6368833"><ele>727.0</ele><time>2026-04-25T14:36:52.371Z</time></trkpt><trkpt lat="31.5478767" lon="-7.6369833"><ele>727.0</ele><time>2026-04-25T14:36:53.371Z</time></trkpt><trkpt lat="31.5479667" lon="-7.6370833"><ele>726.6</ele><time>2026-04-25T14:36:54.371Z</time></trkpt><trkpt lat="31.5480467" lon="-7.6371783"><ele>726.2</ele><time>2026-04-25T14:36:55.372Z</time></trkpt><trkpt lat="31.54813" lon="-7.6372733"><ele>725.8</ele><time>2026-04-25T14:36:56.371Z</time></trkpt><trkpt lat="31.5482117" lon="-7.6373633"><ele>725.4</ele><time>2026-04-25T14:36:57.371Z</time></trkpt><trkpt lat="31.548285" lon="-7.6374483"><ele>725.0</ele><time>2026-04-25T14:36:58.371Z</time></trkpt><trkpt lat="31.5483533" lon="-7.6375283"><ele>725.0</ele><time>2026-04-25T14:36:59.371Z</time></trkpt><trkpt lat="31.5484167" lon="-7.6376017"><ele>725.0</ele><time>2026-04-25T14:37:00.371Z</time></trkpt><trkpt lat="31.548475" lon="-7.6376683"><ele>725.0</ele><time>2026-04-25T14:37:01.371Z</time></trkpt><trkpt lat="31.5485233" lon="-7.6377233"><ele>725.0</ele><time>2026-04-25T14:37:02.371Z</time></trkpt><trkpt lat="31.5485917" lon="-7.6377917"><ele>725.0</ele><time>2026-04-25T14:37:04.372Z</time></trkpt><trkpt lat="31.5486483" lon="-7.637845"><ele>725.0</ele><time>2026-04-25T14:37:10.372Z</time></trkpt><trkpt lat="31.54876" lon="-7.637905"><ele>724.1666666666666</ele><time>2026-04-25T14:37:12.372Z</time></trkpt><trkpt lat="31.54882" lon="-7.6379483"><ele>723.3333333333333</ele><time>2026-04-25T14:37:13.371Z</time></trkpt><trkpt lat="31.5488633" lon="-7.6380067"><ele>722.5</ele><time>2026-04-25T14:37:14.371Z</time></trkpt><trkpt lat="31.5488833" lon="-7.63808"><ele>721.6666666666666</ele><time>2026-04-25T14:37:15.371Z</time></trkpt><trkpt lat="31.54888" lon="-7.6381567"><ele>720.8333333333334</ele><time>2026-04-25T14:37:16.371Z</time></trkpt><trkpt lat="31.5488167" lon="-7.638285"><ele>720.0</ele><time>2026-04-25T14:37:18.371Z</time></trkpt><trkpt lat="31.54875" lon="-7.6383283"><ele>720.2</ele><time>2026-04-25T14:37:19.371Z</time></trkpt><trkpt lat="31.5486733" lon="-7.63837"><ele>720.4</ele><time>2026-04-25T14:37:20.371Z</time></trkpt><trkpt lat="31.548595" lon="-7.6384283"><ele>720.5999999999999</ele><time>2026-04-25T14:37:21.371Z</time></trkpt><trkpt lat="31.54853" lon="-7.63851"><ele>720.8</ele><time>2026-04-25T14:37:22.371Z</time></trkpt><trkpt lat="31.5484883" lon="-7.6386283"><ele>721.0</ele><time>2026-04-25T14:37:23.371Z</time></trkpt><trkpt lat="31.54845" lon="-7.6387583"><ele>720.25</ele><time>2026-04-25T14:37:24.371Z</time></trkpt><trkpt lat="31.5484183" lon="-7.63891"><ele>719.5</ele><time>2026-04-25T14:37:25.371Z</time></trkpt><trkpt lat="31.5483817" lon="-7.6390717"><ele>718.75</ele><time>2026-04-25T14:37:26.371Z</time></trkpt><trkpt lat="31.5483417" lon="-7.6392417"><ele>718.0</ele><time>2026-04-25T14:37:27.371Z</time></trkpt><trkpt lat="31.5482917" lon="-7.6394183"><ele>717.3333333333334</ele><time>2026-04-25T14:37:28.371Z</time></trkpt><trkpt lat="31.548245" lon="-7.6396"><ele>716.6666666666666</ele><time>2026-04-25T14:37:29.371Z</time></trkpt><trkpt lat="31.5482017" lon="-7.6397767"><ele>716.0</ele><time>2026-04-25T14:37:30.371Z</time></trkpt><trkpt lat="31.5481667" lon="-7.639955"><ele>716.0</ele><time>2026-04-25T14:37:31.371Z</time></trkpt><trkpt lat="31.5481267" lon="-7.640135"><ele>716.0</ele><time>2026-04-25T14:37:32.371Z</time></trkpt><trkpt lat="31.5480833" lon="-7.6403083"><ele>716.0</ele><time>2026-04-25T14:37:33.371Z</time></trkpt><trkpt lat="31.5480433" lon="-7.640485"><ele>715.75</ele><time>2026-04-25T14:37:34.371Z</time></trkpt><trkpt lat="31.5480033" lon="-7.6406533"><ele>715.5</ele><time>2026-04-25T14:37:35.371Z</time></trkpt><trkpt lat="31.54796" lon="-7.6408167"><ele>715.25</ele><time>2026-04-25T14:37:36.371Z</time></trkpt><trkpt lat="31.5479167" lon="-7.640975"><ele>715.0</ele><time>2026-04-25T14:37:37.371Z</time></trkpt><trkpt lat="31.5478767" lon="-7.641125"><ele>714.25</ele><time>2026-04-25T14:37:38.371Z</time></trkpt><trkpt lat="31.5478467" lon="-7.64128"><ele>713.5</ele><time>2026-04-25T14:37:39.371Z</time></trkpt><trkpt lat="31.5478117" lon="-7.6414383"><ele>712.75</ele><time>2026-04-25T14:37:40.371Z</time></trkpt><trkpt lat="31.547775" lon="-7.641595"><ele>712.0</ele><time>2026-04-25T14:37:41.371Z</time></trkpt><trkpt lat="31.547735" lon="-7.6417533"><ele>712.0</ele><time>2026-04-25T14:37:42.371Z</time></trkpt><trkpt lat="31.5476933" lon="-7.6419067"><ele>712.0</ele><time>2026-04-25T14:37:43.371Z</time></trkpt><trkpt lat="31.547655" lon="-7.6420683"><ele>712.0</ele><time>2026-04-25T14:37:44.371Z</time></trkpt><trkpt lat="31.547615" lon="-7.6422333"><ele>712.0</ele><time>2026-04-25T14:37:45.371Z</time></trkpt><trkpt lat="31.54758" lon="-7.6423983"><ele>712.0</ele><time>2026-04-25T14:37:46.371Z</time></trkpt><trkpt lat="31.5475367" lon="-7.6425633"><ele>712.0</ele><time>2026-04-25T14:37:47.371Z</time></trkpt><trkpt lat="31.5474967" lon="-7.6427333"><ele>712.0</ele><time>2026-04-25T14:37:48.371Z</time></trkpt><trkpt lat="31.5474633" lon="-7.64291"><ele>711.3333333333334</ele><time>2026-04-25T14:37:49.371Z</time></trkpt><trkpt lat="31.5474367" lon="-7.6430917"><ele>710.6666666666666</ele><time>2026-04-25T14:37:50.371Z</time></trkpt><trkpt lat="31.547415" lon="-7.6432767"><ele>710.0</ele><time>2026-04-25T14:37:51.371Z</time></trkpt><trkpt lat="31.5473967" lon="-7.643465"><ele>709.3333333333333</ele><time>2026-04-25T14:37:52.371Z</time></trkpt><trkpt lat="31.5473783" lon="-7.6436517"><ele>708.6666666666666</ele><time>2026-04-25T14:37:53.371Z</time></trkpt><trkpt lat="31.54736" lon="-7.6438267"><ele>708.0</ele><time>2026-04-25T14:37:54.371Z</time></trkpt><trkpt lat="31.5473417" lon="-7.643995"><ele>708.0</ele><time>2026-04-25T14:37:55.371Z</time></trkpt><trkpt lat="31.54733" lon="-7.6441583"><ele>708.0</ele><time>2026-04-25T14:37:56.371Z</time></trkpt><trkpt lat="31.5473217" lon="-7.6443233"><ele>708.0</ele><time>2026-04-25T14:37:57.371Z</time></trkpt><trkpt lat="31.54731" lon="-7.6444783"><ele>708.0</ele><time>2026-04-25T14:37:58.372Z</time></trkpt><trkpt lat="31.5472917" lon="-7.64463"><ele>708.0</ele><time>2026-04-25T14:37:59.371Z</time></trkpt><trkpt lat="31.5472817" lon="-7.6447933"><ele>708.0</ele><time>2026-04-25T14:38:00.371Z</time></trkpt><trkpt lat="31.5472667" lon="-7.6449567"><ele>708.0</ele><time>2026-04-25T14:38:01.371Z</time></trkpt><trkpt lat="31.54725" lon="-7.6451183"><ele>708.0</ele><time>2026-04-25T14:38:02.371Z</time></trkpt><trkpt lat="31.54723" lon="-7.6452783"><ele>708.0</ele><time>2026-04-25T14:38:03.371Z</time></trkpt><trkpt lat="31.5472133" lon="-7.645435"><ele>708.0</ele><time>2026-04-25T14:38:04.371Z</time></trkpt><trkpt lat="31.5471983" lon="-7.64559"><ele>708.0</ele><time>2026-04-25T14:38:05.371Z</time></trkpt><trkpt lat="31.5471817" lon="-7.6457383"><ele>708.0</ele><time>2026-04-25T14:38:06.371Z</time></trkpt><trkpt lat="31.5471633" lon="-7.645885"><ele>708.0</ele><time>2026-04-25T14:38:07.371Z</time></trkpt><trkpt lat="31.5471383" lon="-7.6460217"><ele>708.0</ele><time>2026-04-25T14:38:08.371Z</time></trkpt><trkpt lat="31.5470967" lon="-7.6461633"><ele>708.0</ele><time>2026-04-25T14:38:09.371Z</time></trkpt><trkpt lat="31.5470417" lon="-7.6463067"><ele>708.0</ele><time>2026-04-25T14:38:10.371Z</time></trkpt><trkpt lat="31.5469717" lon="-7.6464367"><ele>706.5</ele><time>2026-04-25T14:38:11.371Z</time></trkpt><trkpt lat="31.5468867" lon="-7.6465517"><ele>705.0</ele><time>2026-04-25T14:38:12.372Z</time></trkpt><trkpt lat="31.5467783" lon="-7.6466483"><ele>703.5</ele><time>2026-04-25T14:38:13.371Z</time></trkpt><trkpt lat="31.5466583" lon="-7.64673"><ele>702.0</ele><time>2026-04-25T14:38:14.372Z</time></trkpt><trkpt lat="31.5465383" lon="-7.64679"><ele>702.0</ele><time>2026-04-25T14:38:15.371Z</time></trkpt><trkpt lat="31.5464133" lon="-7.6468267"><ele>702.0</ele><time>2026-04-25T14:38:16.371Z</time></trkpt><trkpt lat="31.5462933" lon="-7.646865"><ele>702.0</ele><time>2026-04-25T14:38:17.371Z</time></trkpt><trkpt lat="31.5461817" lon="-7.6468983"><ele>702.0</ele><time>2026-04-25T14:38:18.372Z</time></trkpt><trkpt lat="31.5460717" lon="-7.6469317"><ele>700.8</ele><time>2026-04-25T14:38:19.371Z</time></trkpt><trkpt lat="31.54597" lon="-7.6469617"><ele>699.6</ele><time>2026-04-25T14:38:20.371Z</time></trkpt><trkpt lat="31.5458717" lon="-7.64699"><ele>698.4</ele><time>2026-04-25T14:38:21.371Z</time></trkpt><trkpt lat="31.54577" lon="-7.6470183"><ele>697.1999999999999</ele><time>2026-04-25T14:38:22.371Z</time></trkpt><trkpt lat="31.545665" lon="-7.647045"><ele>696.0</ele><time>2026-04-25T14:38:23.371Z</time></trkpt><trkpt lat="31.5455617" lon="-7.6470733"><ele>696.0</ele><time>2026-04-25T14:38:24.371Z</time></trkpt><trkpt lat="31.5454567" lon="-7.6471017"><ele>696.0</ele><time>2026-04-25T14:38:25.371Z</time></trkpt><trkpt lat="31.5453433" lon="-7.6471283"><ele>696.0</ele><time>2026-04-25T14:38:26.371Z</time></trkpt><trkpt lat="31.5452333" lon="-7.647155"><ele>696.0</ele><time>2026-04-25T14:38:27.371Z</time></trkpt><trkpt lat="31.5451283" lon="-7.6471883"><ele>696.0</ele><time>2026-04-25T14:38:28.371Z</time></trkpt><trkpt lat="31.5450217" lon="-7.6472267"><ele>696.5</ele><time>2026-04-25T14:38:29.371Z</time></trkpt><trkpt lat="31.5449167" lon="-7.6472633"><ele>697.0</ele><time>2026-04-25T14:38:30.371Z</time></trkpt><trkpt lat="31.5448033" lon="-7.6472933"><ele>697.5</ele><time>2026-04-25T14:38:31.371Z</time></trkpt><trkpt lat="31.54469" lon="-7.64733"><ele>698.0</ele><time>2026-04-25T14:38:32.371Z</time></trkpt><trkpt lat="31.5445683" lon="-7.647365"><ele>698.75</ele><time>2026-04-25T14:38:33.371Z</time></trkpt><trkpt lat="31.5444383" lon="-7.6474"><ele>699.5</ele><time>2026-04-25T14:38:34.371Z</time></trkpt><trkpt lat="31.5443083" lon="-7.6474333"><ele>700.25</ele><time>2026-04-25T14:38:35.371Z</time></trkpt><trkpt lat="31.5441783" lon="-7.64747"><ele>701.0</ele><time>2026-04-25T14:38:36.371Z</time></trkpt><trkpt lat="31.5440517" lon="-7.6475117"><ele>701.0</ele><time>2026-04-25T14:38:37.371Z</time></trkpt><trkpt lat="31.5439233" lon="-7.6475667"><ele>701.0</ele><time>2026-04-25T14:38:38.371Z</time></trkpt><trkpt lat="31.5437967" lon="-7.6476283"><ele>701.0</ele><time>2026-04-25T14:38:39.371Z</time></trkpt><trkpt lat="31.543675" lon="-7.6477083"><ele>701.0</ele><time>2026-04-25T14:38:40.371Z</time></trkpt><trkpt lat="31.543555" lon="-7.6477883"><ele>700.25</ele><time>2026-04-25T14:38:41.371Z</time></trkpt><trkpt lat="31.5434367" lon="-7.647885"><ele>699.5</ele><time>2026-04-25T14:38:42.371Z</time></trkpt><trkpt lat="31.5433217" lon="-7.64799"><ele>698.75</ele><time>2026-04-25T14:38:43.371Z</time></trkpt><trkpt lat="31.5432067" lon="-7.6480983"><ele>698.0</ele><time>2026-04-25T14:38:44.371Z</time></trkpt><trkpt lat="31.5431067" lon="-7.6482133"><ele>698.0</ele><time>2026-04-25T14:38:45.371Z</time></trkpt><trkpt lat="31.5430167" lon="-7.648335"><ele>698.0</ele><time>2026-04-25T14:38:46.371Z</time></trkpt><trkpt lat="31.5429383" lon="-7.6484633"><ele>698.0</ele><time>2026-04-25T14:38:47.371Z</time></trkpt><trkpt lat="31.5428733" lon="-7.6485983"><ele>698.0</ele><time>2026-04-25T14:38:48.371Z</time></trkpt><trkpt lat="31.5428183" lon="-7.6487383"><ele>698.0</ele><time>2026-04-25T14:38:49.371Z</time></trkpt><trkpt lat="31.542775" lon="-7.64888"><ele>698.0</ele><time>2026-04-25T14:38:50.371Z</time></trkpt><trkpt lat="31.54274" lon="-7.6490283"><ele>698.0</ele><time>2026-04-25T14:38:51.371Z</time></trkpt><trkpt lat="31.542725" lon="-7.6491783"><ele>698.0</ele><time>2026-04-25T14:38:52.371Z</time></trkpt><trkpt lat="31.5427233" lon="-7.6493417"><ele>697.75</ele><time>2026-04-25T14:38:53.371Z</time></trkpt><trkpt lat="31.54273" lon="-7.6495067"><ele>697.5</ele><time>2026-04-25T14:38:54.371Z</time></trkpt><trkpt lat="31.5427383" lon="-7.6496683"><ele>697.25</ele><time>2026-04-25T14:38:55.371Z</time></trkpt><trkpt lat="31.5427533" lon="-7.6498233"><ele>697.0</ele><time>2026-04-25T14:38:56.371Z</time></trkpt><trkpt lat="31.5427633" lon="-7.6499783"><ele>697.0</ele><time>2026-04-25T14:38:57.371Z</time></trkpt><trkpt lat="31.542775" lon="-7.6501317"><ele>697.0</ele><time>2026-04-25T14:38:58.371Z</time></trkpt><trkpt lat="31.542785" lon="-7.6502783"><ele>697.0</ele><time>2026-04-25T14:38:59.371Z</time></trkpt><trkpt lat="31.5427983" lon="-7.6504233"><ele>697.0</ele><time>2026-04-25T14:39:00.372Z</time></trkpt><trkpt lat="31.54281" lon="-7.65057"><ele>696.75</ele><time>2026-04-25T14:39:01.371Z</time></trkpt><trkpt lat="31.5428217" lon="-7.6507183"><ele>696.5</ele><time>2026-04-25T14:39:02.371Z</time></trkpt><trkpt lat="31.542835" lon="-7.650865"><ele>696.25</ele><time>2026-04-25T14:39:03.371Z</time></trkpt><trkpt lat="31.5428467" lon="-7.6510117"><ele>696.0</ele><time>2026-04-25T14:39:04.371Z</time></trkpt><trkpt lat="31.5428583" lon="-7.651165"><ele>696.0</ele><time>2026-04-25T14:39:05.371Z</time></trkpt><trkpt lat="31.5428683" lon="-7.6513183"><ele>696.0</ele><time>2026-04-25T14:39:06.371Z</time></trkpt><trkpt lat="31.5428817" lon="-7.65147"><ele>696.0</ele><time>2026-04-25T14:39:07.371Z</time></trkpt><trkpt lat="31.5428983" lon="-7.651625"><ele>696.0</ele><time>2026-04-25T14:39:08.371Z</time></trkpt><trkpt lat="31.54292" lon="-7.6517817"><ele>696.0</ele><time>2026-04-25T14:39:09.371Z</time></trkpt><trkpt lat="31.5429417" lon="-7.6519267"><ele>696.0</ele><time>2026-04-25T14:39:10.371Z</time></trkpt><trkpt lat="31.5429633" lon="-7.6520683"><ele>696.0</ele><time>2026-04-25T14:39:11.371Z</time></trkpt><trkpt lat="31.5429933" lon="-7.6522067"><ele>696.0</ele><time>2026-04-25T14:39:12.371Z</time></trkpt><trkpt lat="31.5430317" lon="-7.6523317"><ele>695.75</ele><time>2026-04-25T14:39:13.371Z</time></trkpt><trkpt lat="31.5430767" lon="-7.6524617"><ele>695.5</ele><time>2026-04-25T14:39:14.371Z</time></trkpt><trkpt lat="31.5431283" lon="-7.6525917"><ele>695.25</ele><time>2026-04-25T14:39:15.371Z</time></trkpt><trkpt lat="31.54318" lon="-7.6527283"><ele>695.0</ele><time>2026-04-25T14:39:16.371Z</time></trkpt><trkpt lat="31.5432383" lon="-7.6528617"><ele>695.0</ele><time>2026-04-25T14:39:17.371Z</time></trkpt><trkpt lat="31.5433" lon="-7.6529867"><ele>695.0</ele><time>2026-04-25T14:39:18.371Z</time></trkpt><trkpt lat="31.5433583" lon="-7.6531067"><ele>695.0</ele><time>2026-04-25T14:39:19.371Z</time></trkpt><trkpt lat="31.5434133" lon="-7.6532417"><ele>695.0</ele><time>2026-04-25T14:39:20.371Z</time></trkpt><trkpt lat="31.543465" lon="-7.6533767"><ele>695.0</ele><time>2026-04-25T14:39:21.371Z</time></trkpt><trkpt lat="31.5435217" lon="-7.6535083"><ele>695.0</ele><time>2026-04-25T14:39:22.371Z</time></trkpt><trkpt lat="31.5435733" lon="-7.6536367"><ele>695.0</ele><time>2026-04-25T14:39:23.371Z</time></trkpt><trkpt lat="31.543625" lon="-7.6537667"><ele>695.0</ele><time>2026-04-25T14:39:24.371Z</time></trkpt><trkpt lat="31.543675" lon="-7.6538967"><ele>694.0</ele><time>2026-04-25T14:39:25.371Z</time></trkpt><trkpt lat="31.5437283" lon="-7.6540283"><ele>693.0</ele><time>2026-04-25T14:39:26.371Z</time></trkpt><trkpt lat="31.54378" lon="-7.6541617"><ele>692.0</ele><time>2026-04-25T14:39:27.371Z</time></trkpt><trkpt lat="31.5438367" lon="-7.6542933"><ele>691.0</ele><time>2026-04-25T14:39:28.371Z</time></trkpt><trkpt lat="31.5439" lon="-7.65443"><ele>692.5</ele><time>2026-04-25T14:39:29.371Z</time></trkpt><trkpt lat="31.5439667" lon="-7.65457"><ele>694.0</ele><time>2026-04-25T14:39:30.371Z</time></trkpt><trkpt lat="31.5440367" lon="-7.6547083"><ele>695.5</ele><time>2026-04-25T14:39:31.371Z</time></trkpt><trkpt lat="31.54411" lon="-7.654845"><ele>697.0</ele><time>2026-04-25T14:39:32.371Z</time></trkpt><trkpt lat="31.5441917" lon="-7.6549767"><ele>697.0</ele><time>2026-04-25T14:39:33.372Z</time></trkpt><trkpt lat="31.54429" lon="-7.6551067"><ele>697.0</ele><time>2026-04-25T14:39:34.371Z</time></trkpt><trkpt lat="31.5443867" lon="-7.655235"><ele>697.0</ele><time>2026-04-25T14:39:35.371Z</time></trkpt><trkpt lat="31.5444933" lon="-7.65536"><ele>697.0</ele><time>2026-04-25T14:39:36.371Z</time></trkpt><trkpt lat="31.5446" lon="-7.655475"><ele>695.5</ele><time>2026-04-25T14:39:37.371Z</time></trkpt><trkpt lat="31.5447117" lon="-7.6555817"><ele>694.0</ele><time>2026-04-25T14:39:38.371Z</time></trkpt><trkpt lat="31.5448217" lon="-7.6556883"><ele>692.5</ele><time>2026-04-25T14:39:39.371Z</time></trkpt><trkpt lat="31.5449267" lon="-7.6558017"><ele>691.0</ele><time>2026-04-25T14:39:40.371Z</time></trkpt><trkpt lat="31.545045" lon="-7.6559333"><ele>691.0</ele><time>2026-04-25T14:39:41.371Z</time></trkpt><trkpt lat="31.5451933" lon="-7.656085"><ele>691.0</ele><time>2026-04-25T14:39:42.371Z</time></trkpt><trkpt lat="31.5453517" lon="-7.6562433"><ele>691.0</ele><time>2026-04-25T14:39:43.371Z</time></trkpt><trkpt lat="31.5455133" lon="-7.6563983"><ele>689.6666666666667</ele><time>2026-04-25T14:39:44.371Z</time></trkpt><trkpt lat="31.54567" lon="-7.6565383"><ele>688.3333333333334</ele><time>2026-04-25T14:39:45.371Z</time></trkpt><trkpt lat="31.545825" lon="-7.6566817"><ele>687.0</ele><time>2026-04-25T14:39:46.371Z</time></trkpt><trkpt lat="31.545975" lon="-7.6568317"><ele>688.0</ele><time>2026-04-25T14:39:47.371Z</time></trkpt><trkpt lat="31.5461183" lon="-7.6569867"><ele>689.0</ele><time>2026-04-25T14:39:48.371Z</time></trkpt><trkpt lat="31.5462633" lon="-7.657135"><ele>690.0</ele><time>2026-04-25T14:39:49.371Z</time></trkpt><trkpt lat="31.5464133" lon="-7.65728"><ele>687.6666666666666</ele><time>2026-04-25T14:39:50.371Z</time></trkpt><trkpt lat="31.5465667" lon="-7.6574317"><ele>685.3333333333333</ele><time>2026-04-25T14:39:51.371Z</time></trkpt><trkpt lat="31.5467183" lon="-7.6575867"><ele>683.0</ele><time>2026-04-25T14:39:52.371Z</time></trkpt><trkpt lat="31.54687" lon="-7.65774"><ele>683.0</ele><time>2026-04-25T14:39:53.371Z</time></trkpt><trkpt lat="31.5470233" lon="-7.6578967"><ele>683.0</ele><time>2026-04-25T14:39:54.371Z</time></trkpt><trkpt lat="31.5471717" lon="-7.6580467"><ele>683.0</ele><time>2026-04-25T14:39:55.371Z</time></trkpt><trkpt lat="31.54732" lon="-7.6581933"><ele>683.3333333333333</ele><time>2026-04-25T14:39:56.371Z</time></trkpt><trkpt lat="31.5474667" lon="-7.6583433"><ele>683.6666666666666</ele><time>2026-04-25T14:39:57.371Z</time></trkpt><trkpt lat="31.5476117" lon="-7.6584933"><ele>684.0</ele><time>2026-04-25T14:39:58.371Z</time></trkpt><trkpt lat="31.5477583" lon="-7.65864"><ele>683.3333333333334</ele><time>2026-04-25T14:39:59.371Z</time></trkpt><trkpt lat="31.5478967" lon="-7.6587917"><ele>682.6666666666667</ele><time>2026-04-25T14:40:00.372Z</time></trkpt><trkpt lat="31.548045" lon="-7.6589483"><ele>682.0</ele><time>2026-04-25T14:40:01.371Z</time></trkpt><trkpt lat="31.5481933" lon="-7.6591067"><ele>682.0</ele><time>2026-04-25T14:40:02.371Z</time></trkpt><trkpt lat="31.54834" lon="-7.6592633"><ele>682.0</ele><time>2026-04-25T14:40:03.371Z</time></trkpt><trkpt lat="31.5484867" lon="-7.65942"><ele>682.0</ele><time>2026-04-25T14:40:04.371Z</time></trkpt><trkpt lat="31.548645" lon="-7.6595767"><ele>681.6666666666667</ele><time>2026-04-25T14:40:05.371Z</time></trkpt><trkpt lat="31.5488017" lon="-7.6597417"><ele>681.3333333333334</ele><time>2026-04-25T14:40:06.371Z</time></trkpt><trkpt lat="31.548955" lon="-7.6599183"><ele>681.0</ele><time>2026-04-25T14:40:07.371Z</time></trkpt><trkpt lat="31.5490967" lon="-7.6601017"><ele>683.3333333333334</ele><time>2026-04-25T14:40:08.371Z</time></trkpt><trkpt lat="31.5492283" lon="-7.6602867"><ele>685.6666666666667</ele><time>2026-04-25T14:40:09.371Z</time></trkpt><trkpt lat="31.5493517" lon="-7.66047"><ele>688.0</ele><time>2026-04-25T14:40:10.371Z</time></trkpt><trkpt lat="31.5494717" lon="-7.66065"><ele>684.6666666666667</ele><time>2026-04-25T14:40:11.371Z</time></trkpt><trkpt lat="31.5495833" lon="-7.6608217"><ele>681.3333333333334</ele><time>2026-04-25T14:40:12.371Z</time></trkpt><trkpt lat="31.5496967" lon="-7.66099"><ele>678.0</ele><time>2026-04-25T14:40:13.371Z</time></trkpt><trkpt lat="31.5498067" lon="-7.661155"><ele>677.6666666666666</ele><time>2026-04-25T14:40:14.371Z</time></trkpt><trkpt lat="31.54992" lon="-7.6613233"><ele>677.3333333333333</ele><time>2026-04-25T14:40:15.371Z</time></trkpt><trkpt lat="31.5500333" lon="-7.6614917"><ele>677.0</ele><time>2026-04-25T14:40:16.371Z</time></trkpt><trkpt lat="31.5501467" lon="-7.6616617"><ele>677.0</ele><time>2026-04-25T14:40:17.371Z</time></trkpt><trkpt lat="31.5502583" lon="-7.6618333"><ele>677.0</ele><time>2026-04-25T14:40:18.371Z</time></trkpt><trkpt lat="31.55037" lon="-7.6620083"><ele>677.0</ele><time>2026-04-25T14:40:19.371Z</time></trkpt><trkpt lat="31.5504917" lon="-7.6621833"><ele>676.6666666666666</ele><time>2026-04-25T14:40:20.371Z</time></trkpt><trkpt lat="31.5506067" lon="-7.66235"><ele>676.3333333333334</ele><time>2026-04-25T14:40:21.371Z</time></trkpt><trkpt lat="31.5507167" lon="-7.6625117"><ele>676.0</ele><time>2026-04-25T14:40:22.371Z</time></trkpt><trkpt lat="31.550825" lon="-7.6626717"><ele>676.3333333333334</ele><time>2026-04-25T14:40:23.371Z</time></trkpt><trkpt lat="31.5509317" lon="-7.6628267"><ele>676.6666666666666</ele><time>2026-04-25T14:40:24.371Z</time></trkpt><trkpt lat="31.55103" lon="-7.662985"><ele>677.0</ele><time>2026-04-25T14:40:25.371Z</time></trkpt><trkpt lat="31.551135" lon="-7.6631383"><ele>677.0</ele><time>2026-04-25T14:40:26.371Z</time></trkpt><trkpt lat="31.55124" lon="-7.6632917"><ele>677.0</ele><time>2026-04-25T14:40:27.371Z</time></trkpt><trkpt lat="31.5513433" lon="-7.6634383"><ele>677.0</ele><time>2026-04-25T14:40:28.371Z</time></trkpt><trkpt lat="31.551445" lon="-7.66359"><ele>676.6666666666666</ele><time>2026-04-25T14:40:29.371Z</time></trkpt><trkpt lat="31.551545" lon="-7.6637433"><ele>676.3333333333334</ele><time>2026-04-25T14:40:30.371Z</time></trkpt><trkpt lat="31.5516417" lon="-7.6638967"><ele>676.0</ele><time>2026-04-25T14:40:31.371Z</time></trkpt><trkpt lat="31.55174" lon="-7.664055"><ele>676.0</ele><time>2026-04-25T14:40:32.371Z</time></trkpt><trkpt lat="31.5518317" lon="-7.6642133"><ele>676.0</ele><time>2026-04-25T14:40:33.371Z</time></trkpt><trkpt lat="31.5519217" lon="-7.6643817"><ele>676.0</ele><time>2026-04-25T14:40:34.371Z</time></trkpt><trkpt lat="31.552" lon="-7.6645533"><ele>674.3333333333334</ele><time>2026-04-25T14:40:35.371Z</time></trkpt><trkpt lat="31.5520683" lon="-7.6647317"><ele>672.6666666666666</ele><time>2026-04-25T14:40:36.371Z</time></trkpt><trkpt lat="31.5521317" lon="-7.66491"><ele>671.0</ele><time>2026-04-25T14:40:37.371Z</time></trkpt><trkpt lat="31.5521867" lon="-7.6650883"><ele>671.0</ele><time>2026-04-25T14:40:38.371Z</time></trkpt><trkpt lat="31.55223" lon="-7.6652783"><ele>671.0</ele><time>2026-04-25T14:40:39.371Z</time></trkpt><trkpt lat="31.5522683" lon="-7.66547"><ele>671.0</ele><time>2026-04-25T14:40:40.371Z</time></trkpt><trkpt lat="31.5523083" lon="-7.6656633"><ele>671.0</ele><time>2026-04-25T14:40:41.371Z</time></trkpt><trkpt lat="31.5523483" lon="-7.6658567"><ele>671.0</ele><time>2026-04-25T14:40:42.371Z</time></trkpt><trkpt lat="31.5523917" lon="-7.6660467"><ele>671.0</ele><time>2026-04-25T14:40:43.371Z</time></trkpt><trkpt lat="31.552435" lon="-7.6662367"><ele>671.0</ele><time>2026-04-25T14:40:44.371Z</time></trkpt><trkpt lat="31.5524817" lon="-7.6664333"><ele>671.0</ele><time>2026-04-25T14:40:45.371Z</time></trkpt><trkpt lat="31.5525217" lon="-7.6666233"><ele>671.0</ele><time>2026-04-25T14:40:46.371Z</time></trkpt><trkpt lat="31.55256" lon="-7.6668083"><ele>670.3333333333333</ele><time>2026-04-25T14:40:47.371Z</time></trkpt><trkpt lat="31.5525983" lon="-7.6669817"><ele>669.6666666666666</ele><time>2026-04-25T14:40:48.371Z</time></trkpt><trkpt lat="31.5526333" lon="-7.66716"><ele>669.0</ele><time>2026-04-25T14:40:49.371Z</time></trkpt><trkpt lat="31.5526683" lon="-7.66733"><ele>669.0</ele><time>2026-04-25T14:40:50.371Z</time></trkpt><trkpt lat="31.5527033" lon="-7.6674967"><ele>669.0</ele><time>2026-04-25T14:40:51.371Z</time></trkpt><trkpt lat="31.55274" lon="-7.6676583"><ele>669.0</ele><time>2026-04-25T14:40:52.371Z</time></trkpt><trkpt lat="31.5527783" lon="-7.66782"><ele>669.0</ele><time>2026-04-25T14:40:53.372Z</time></trkpt><trkpt lat="31.5528133" lon="-7.6679817"><ele>669.0</ele><time>2026-04-25T14:40:54.371Z</time></trkpt><trkpt lat="31.552845" lon="-7.66814"><ele>669.0</ele><time>2026-04-25T14:40:55.371Z</time></trkpt><trkpt lat="31.5528767" lon="-7.668295"><ele>669.0</ele><time>2026-04-25T14:40:56.371Z</time></trkpt><trkpt lat="31.5529083" lon="-7.6684483"><ele>669.0</ele><time>2026-04-25T14:40:57.371Z</time></trkpt><trkpt lat="31.5529383" lon="-7.6686017"><ele>669.2</ele><time>2026-04-25T14:40:58.371Z</time></trkpt><trkpt lat="31.5529617" lon="-7.6687433"><ele>669.4000000000001</ele><time>2026-04-25T14:40:59.371Z</time></trkpt><trkpt lat="31.5529883" lon="-7.6688733"><ele>669.6</ele><time>2026-04-25T14:41:00.371Z</time></trkpt><trkpt lat="31.553005" lon="-7.6689783"><ele>669.8</ele><time>2026-04-25T14:41:01.371Z</time></trkpt><trkpt lat="31.5530183" lon="-7.66907"><ele>670.0</ele><time>2026-04-25T14:41:02.371Z</time></trkpt><trkpt lat="31.5530283" lon="-7.6691483"><ele>669.9999999999999</ele><time>2026-04-25T14:41:03.371Z</time></trkpt><trkpt lat="31.5530417" lon="-7.6692233"><ele>670.0</ele><time>2026-04-25T14:41:04.371Z</time></trkpt><trkpt lat="31.5530517" lon="-7.669305"><ele>670.0</ele><time>2026-04-25T14:41:05.371Z</time></trkpt><trkpt lat="31.55306" lon="-7.6693867"><ele>670.0</ele><time>2026-04-25T14:41:06.371Z</time></trkpt><trkpt lat="31.5530667" lon="-7.669465"><ele>670.0</ele><time>2026-04-25T14:41:07.371Z</time></trkpt><trkpt lat="31.5530767" lon="-7.6695517"><ele>669.9999999999999</ele><time>2026-04-25T14:41:08.371Z</time></trkpt><trkpt lat="31.5530883" lon="-7.6696433"><ele>670.0</ele><time>2026-04-25T14:41:09.371Z</time></trkpt><trkpt lat="31.5531017" lon="-7.6697333"><ele>669.6</ele><time>2026-04-25T14:41:10.371Z</time></trkpt><trkpt lat="31.5531167" lon="-7.669825"><ele>669.2</ele><time>2026-04-25T14:41:11.371Z</time></trkpt><trkpt lat="31.5531333" lon="-7.669925"><ele>668.8</ele><time>2026-04-25T14:41:12.371Z</time></trkpt><trkpt lat="31.5531483" lon="-7.6700317"><ele>668.4</ele><time>2026-04-25T14:41:13.371Z</time></trkpt><trkpt lat="31.553165" lon="-7.67015"><ele>668.0</ele><time>2026-04-25T14:41:14.371Z</time></trkpt><trkpt lat="31.5531767" lon="-7.6702783"><ele>667.5999999999999</ele><time>2026-04-25T14:41:15.371Z</time></trkpt><trkpt lat="31.5531917" lon="-7.6703983"><ele>667.1999999999999</ele><time>2026-04-25T14:41:16.371Z</time></trkpt><trkpt lat="31.5532133" lon="-7.6705117"><ele>666.8</ele><time>2026-04-25T14:41:17.371Z</time></trkpt><trkpt lat="31.55323" lon="-7.6706217"><ele>666.4</ele><time>2026-04-25T14:41:18.371Z</time></trkpt><trkpt lat="31.5532467" lon="-7.6707433"><ele>666.0</ele><time>2026-04-25T14:41:19.372Z</time></trkpt><trkpt lat="31.5532617" lon="-7.6708717"><ele>666.0</ele><time>2026-04-25T14:41:20.371Z</time></trkpt><trkpt lat="31.5532783" lon="-7.6709983"><ele>666.0</ele><time>2026-04-25T14:41:21.371Z</time></trkpt><trkpt lat="31.55329" lon="-7.6711183"><ele>666.0</ele><time>2026-04-25T14:41:22.371Z</time></trkpt><trkpt lat="31.5533067" lon="-7.6712517"><ele>666.0</ele><time>2026-04-25T14:41:23.371Z</time></trkpt><trkpt lat="31.553325" lon="-7.6713933"><ele>666.0</ele><time>2026-04-25T14:41:24.371Z</time></trkpt><trkpt lat="31.5533467" lon="-7.6715283"><ele>665.75</ele><time>2026-04-25T14:41:25.371Z</time></trkpt><trkpt lat="31.55337" lon="-7.671655"><ele>665.5</ele><time>2026-04-25T14:41:26.371Z</time></trkpt><trkpt lat="31.5533967" lon="-7.6717917"><ele>665.25</ele><time>2026-04-25T14:41:27.371Z</time></trkpt><trkpt lat="31.5534183" lon="-7.671935"><ele>665.0</ele><time>2026-04-25T14:41:28.371Z</time></trkpt><trkpt lat="31.553445" lon="-7.6720917"><ele>664.75</ele><time>2026-04-25T14:41:29.371Z</time></trkpt><trkpt lat="31.5534683" lon="-7.6722517"><ele>664.5</ele><time>2026-04-25T14:41:30.371Z</time></trkpt><trkpt lat="31.5534967" lon="-7.6724267"><ele>664.25</ele><time>2026-04-25T14:41:31.371Z</time></trkpt><trkpt lat="31.5535217" lon="-7.672605"><ele>664.0</ele><time>2026-04-25T14:41:32.371Z</time></trkpt><trkpt lat="31.5535467" lon="-7.6727833"><ele>663.75</ele><time>2026-04-25T14:41:33.371Z</time></trkpt><trkpt lat="31.5535767" lon="-7.672955"><ele>663.5</ele><time>2026-04-25T14:41:34.371Z</time></trkpt><trkpt lat="31.553605" lon="-7.673125"><ele>663.25</ele><time>2026-04-25T14:41:35.371Z</time></trkpt><trkpt lat="31.5536233" lon="-7.6732983"><ele>663.0</ele><time>2026-04-25T14:41:36.371Z</time></trkpt><trkpt lat="31.55365" lon="-7.6734717"><ele>663.0</ele><time>2026-04-25T14:41:37.371Z</time></trkpt><trkpt lat="31.5536733" lon="-7.6736483"><ele>663.0</ele><time>2026-04-25T14:41:38.371Z</time></trkpt><trkpt lat="31.5537" lon="-7.673825"><ele>663.0</ele><time>2026-04-25T14:41:39.371Z</time></trkpt><trkpt lat="31.553725" lon="-7.6740033"><ele>662.6666666666666</ele><time>2026-04-25T14:41:40.371Z</time></trkpt><trkpt lat="31.5537433" lon="-7.6741783"><ele>662.3333333333333</ele><time>2026-04-25T14:41:41.371Z</time></trkpt><trkpt lat="31.553765" lon="-7.6743567"><ele>662.0</ele><time>2026-04-25T14:41:42.372Z</time></trkpt><trkpt lat="31.55379" lon="-7.6745283"><ele>661.75</ele><time>2026-04-25T14:41:43.371Z</time></trkpt><trkpt lat="31.5538117" lon="-7.6747033"><ele>661.5</ele><time>2026-04-25T14:41:44.372Z</time></trkpt><trkpt lat="31.55383" lon="-7.6748717"><ele>661.25</ele><time>2026-04-25T14:41:45.371Z</time></trkpt><trkpt lat="31.5538567" lon="-7.67504"><ele>661.0</ele><time>2026-04-25T14:41:46.371Z</time></trkpt><trkpt lat="31.5538883" lon="-7.6752"><ele>661.0</ele><time>2026-04-25T14:41:47.371Z</time></trkpt><trkpt lat="31.55391" lon="-7.6753617"><ele>661.0</ele><time>2026-04-25T14:41:48.371Z</time></trkpt><trkpt lat="31.5539317" lon="-7.6755283"><ele>661.0</ele><time>2026-04-25T14:41:49.371Z</time></trkpt><trkpt lat="31.553955" lon="-7.6756917"><ele>661.0</ele><time>2026-04-25T14:41:50.371Z</time></trkpt><trkpt lat="31.553975" lon="-7.67586"><ele>661.0</ele><time>2026-04-25T14:41:51.371Z</time></trkpt><trkpt lat="31.554" lon="-7.676025"><ele>661.0</ele><time>2026-04-25T14:41:52.371Z</time></trkpt><trkpt lat="31.5540283" lon="-7.67619"><ele>661.0</ele><time>2026-04-25T14:41:53.371Z</time></trkpt><trkpt lat="31.55405" lon="-7.676355"><ele>661.0</ele><time>2026-04-25T14:41:54.371Z</time></trkpt><trkpt lat="31.5540717" lon="-7.6765267"><ele>661.0</ele><time>2026-04-25T14:41:55.371Z</time></trkpt><trkpt lat="31.5541" lon="-7.6767017"><ele>661.0</ele><time>2026-04-25T14:41:56.371Z</time></trkpt><trkpt lat="31.554125" lon="-7.6768833"><ele>661.0</ele><time>2026-04-25T14:41:57.371Z</time></trkpt><trkpt lat="31.554145" lon="-7.6770667"><ele>660.6666666666667</ele><time>2026-04-25T14:41:58.371Z</time></trkpt><trkpt lat="31.5541717" lon="-7.6772533"><ele>660.3333333333334</ele><time>2026-04-25T14:41:59.371Z</time></trkpt><trkpt lat="31.5541983" lon="-7.6774483"><ele>660.0</ele><time>2026-04-25T14:42:00.371Z</time></trkpt><trkpt lat="31.5542233" lon="-7.6776417"><ele>659.6666666666666</ele><time>2026-04-25T14:42:01.371Z</time></trkpt><trkpt lat="31.554255" lon="-7.6778417"><ele>659.3333333333333</ele><time>2026-04-25T14:42:02.371Z</time></trkpt><trkpt lat="31.554285" lon="-7.67804"><ele>659.0</ele><time>2026-04-25T14:42:03.371Z</time></trkpt><trkpt lat="31.554315" lon="-7.6782467"><ele>659.0</ele><time>2026-04-25T14:42:04.371Z</time></trkpt><trkpt lat="31.5543417" lon="-7.67844"><ele>659.0</ele><time>2026-04-25T14:42:05.371Z</time></trkpt><trkpt lat="31.5543667" lon="-7.6786233"><ele>659.0</ele><time>2026-04-25T14:42:06.371Z</time></trkpt><trkpt lat="31.5543933" lon="-7.6788033"><ele>659.0</ele><time>2026-04-25T14:42:07.371Z</time></trkpt><trkpt lat="31.55442" lon="-7.6789833"><ele>659.0</ele><time>2026-04-25T14:42:08.371Z</time></trkpt><trkpt lat="31.554445" lon="-7.6791583"><ele>659.0</ele><time>2026-04-25T14:42:09.371Z</time></trkpt><trkpt lat="31.5544733" lon="-7.679345"><ele>658.6666666666666</ele><time>2026-04-25T14:42:10.371Z</time></trkpt><trkpt lat="31.554505" lon="-7.6795283"><ele>658.3333333333334</ele><time>2026-04-25T14:42:11.371Z</time></trkpt><trkpt lat="31.554535" lon="-7.6797083"><ele>658.0</ele><time>2026-04-25T14:42:12.372Z</time></trkpt><trkpt lat="31.5545567" lon="-7.67988"><ele>657.5</ele><time>2026-04-25T14:42:13.371Z</time></trkpt><trkpt lat="31.5545767" lon="-7.68005"><ele>657.0</ele><time>2026-04-25T14:42:14.371Z</time></trkpt><trkpt lat="31.5545967" lon="-7.68021"><ele>656.5</ele><time>2026-04-25T14:42:15.371Z</time></trkpt><trkpt lat="31.55462" lon="-7.6803667"><ele>656.0</ele><time>2026-04-25T14:42:16.372Z</time></trkpt><trkpt lat="31.55466" lon="-7.6805117"><ele>655.5</ele><time>2026-04-25T14:42:17.371Z</time></trkpt><trkpt lat="31.5547117" lon="-7.68064"><ele>655.0</ele><time>2026-04-25T14:42:18.371Z</time></trkpt><trkpt lat="31.55475" lon="-7.6807767"><ele>654.5</ele><time>2026-04-25T14:42:19.371Z</time></trkpt><trkpt lat="31.554765" lon="-7.6809167"><ele>654.0</ele><time>2026-04-25T14:42:20.371Z</time></trkpt><trkpt lat="31.55476" lon="-7.68106"><ele>654.5</ele><time>2026-04-25T14:42:21.371Z</time></trkpt><trkpt lat="31.5547617" lon="-7.681215"><ele>655.0</ele><time>2026-04-25T14:42:22.371Z</time></trkpt><trkpt lat="31.5547783" lon="-7.681375"><ele>655.5</ele><time>2026-04-25T14:42:23.371Z</time></trkpt><trkpt lat="31.5548067" lon="-7.6815333"><ele>656.0</ele><time>2026-04-25T14:42:24.371Z</time></trkpt><trkpt lat="31.5548283" lon="-7.681685"><ele>656.0</ele><time>2026-04-25T14:42:25.371Z</time></trkpt><trkpt lat="31.5548467" lon="-7.6818383"><ele>656.0</ele><time>2026-04-25T14:42:26.371Z</time></trkpt><trkpt lat="31.5548667" lon="-7.6819967"><ele>656.0</ele><time>2026-04-25T14:42:27.371Z</time></trkpt><trkpt lat="31.5548883" lon="-7.6821567"><ele>656.0</ele><time>2026-04-25T14:42:28.371Z</time></trkpt><trkpt lat="31.55491" lon="-7.6823233"><ele>655.25</ele><time>2026-04-25T14:42:29.372Z</time></trkpt><trkpt lat="31.5549333" lon="-7.682495"><ele>654.5</ele><time>2026-04-25T14:42:30.371Z</time></trkpt><trkpt lat="31.5549567" lon="-7.68267"><ele>653.75</ele><time>2026-04-25T14:42:31.371Z</time></trkpt><trkpt lat="31.5549783" lon="-7.6828333"><ele>653.0</ele><time>2026-04-25T14:42:32.371Z</time></trkpt><trkpt lat="31.5550067" lon="-7.6829967"><ele>653.0</ele><time>2026-04-25T14:42:33.371Z</time></trkpt><trkpt lat="31.555035" lon="-7.6831617"><ele>653.0</ele><time>2026-04-25T14:42:34.371Z</time></trkpt><trkpt lat="31.5550783" lon="-7.683325"><ele>653.0</ele><time>2026-04-25T14:42:35.371Z</time></trkpt><trkpt lat="31.555125" lon="-7.68348"><ele>653.0</ele><time>2026-04-25T14:42:36.371Z</time></trkpt><trkpt lat="31.5551867" lon="-7.6836383"><ele>652.75</ele><time>2026-04-25T14:42:37.371Z</time></trkpt><trkpt lat="31.5552567" lon="-7.683795"><ele>652.5</ele><time>2026-04-25T14:42:38.371Z</time></trkpt><trkpt lat="31.5553367" lon="-7.6839467"><ele>652.25</ele><time>2026-04-25T14:42:39.371Z</time></trkpt><trkpt lat="31.5554167" lon="-7.6840867"><ele>652.0</ele><time>2026-04-25T14:42:40.371Z</time></trkpt><trkpt lat="31.55549" lon="-7.68422"><ele>651.5</ele><time>2026-04-25T14:42:41.371Z</time></trkpt><trkpt lat="31.555555" lon="-7.6843583"><ele>651.0</ele><time>2026-04-25T14:42:42.371Z</time></trkpt><trkpt lat="31.555615" lon="-7.6844767"><ele>650.5</ele><time>2026-04-25T14:42:43.371Z</time></trkpt><trkpt lat="31.5556717" lon="-7.6845917"><ele>650.0</ele><time>2026-04-25T14:42:44.372Z</time></trkpt><trkpt lat="31.5557217" lon="-7.6846883"><ele>650.0</ele><time>2026-04-25T14:42:45.371Z</time></trkpt><trkpt lat="31.55577" lon="-7.6847783"><ele>650.0</ele><time>2026-04-25T14:42:46.371Z</time></trkpt><trkpt lat="31.5558183" lon="-7.68485"><ele>650.0</ele><time>2026-04-25T14:42:47.371Z</time></trkpt><trkpt lat="31.5558667" lon="-7.6848983"><ele>650.0</ele><time>2026-04-25T14:42:48.371Z</time></trkpt><trkpt lat="31.55597" lon="-7.6849217"><ele>650.0</ele><time>2026-04-25T14:43:04.37Z</time></trkpt><trkpt lat="31.5560717" lon="-7.6849917"><ele>650.0</ele><time>2026-04-25T14:43:06.371Z</time></trkpt><trkpt lat="31.55612" lon="-7.6850533"><ele>650.0</ele><time>2026-04-25T14:43:07.37Z</time></trkpt><trkpt lat="31.5561533" lon="-7.6851233"><ele>650.0</ele><time>2026-04-25T14:43:08.37Z</time></trkpt><trkpt lat="31.556175" lon="-7.6852133"><ele>650.0</ele><time>2026-04-25T14:43:09.37Z</time></trkpt><trkpt lat="31.5561917" lon="-7.6853133"><ele>650.0</ele><time>2026-04-25T14:43:10.37Z</time></trkpt><trkpt lat="31.556215" lon="-7.685425"><ele>650.0</ele><time>2026-04-25T14:43:11.37Z</time></trkpt><trkpt lat="31.5562433" lon="-7.6855433"><ele>650.0</ele><time>2026-04-25T14:43:12.37Z</time></trkpt><trkpt lat="31.5562783" lon="-7.6856667"><ele>650.0</ele><time>2026-04-25T14:43:13.37Z</time></trkpt><trkpt lat="31.55633" lon="-7.685795"><ele>650.0</ele><time>2026-04-25T14:43:14.37Z</time></trkpt><trkpt lat="31.5563967" lon="-7.6859283"><ele>650.0</ele><time>2026-04-25T14:43:15.37Z</time></trkpt><trkpt lat="31.5564667" lon="-7.6860633"><ele>650.0</ele><time>2026-04-25T14:43:16.37Z</time></trkpt><trkpt lat="31.5565383" lon="-7.68619"><ele>650.0</ele><time>2026-04-25T14:43:17.37Z</time></trkpt><trkpt lat="31.5566133" lon="-7.68632"><ele>650.0</ele><time>2026-04-25T14:43:18.37Z</time></trkpt><trkpt lat="31.5566817" lon="-7.6864567"><ele>650.0</ele><time>2026-04-25T14:43:19.37Z</time></trkpt><trkpt lat="31.5567633" lon="-7.68659"><ele>650.0</ele><time>2026-04-25T14:43:20.37Z</time></trkpt><trkpt lat="31.5568467" lon="-7.6867267"><ele>650.0</ele><time>2026-04-25T14:43:21.37Z</time></trkpt><trkpt lat="31.5569283" lon="-7.6868567"><ele>650.0</ele><time>2026-04-25T14:43:22.37Z</time></trkpt><trkpt lat="31.557005" lon="-7.6869867"><ele>650.0</ele><time>2026-04-25T14:43:23.37Z</time></trkpt><trkpt lat="31.5570783" lon="-7.6871233"><ele>649.0</ele><time>2026-04-25T14:43:24.37Z</time></trkpt><trkpt lat="31.5571567" lon="-7.6872467"><ele>648.0</ele><time>2026-04-25T14:43:25.37Z</time></trkpt><trkpt lat="31.55724" lon="-7.6873683"><ele>647.0</ele><time>2026-04-25T14:43:26.37Z</time></trkpt><trkpt lat="31.55732" lon="-7.6874817"><ele>646.0</ele><time>2026-04-25T14:43:27.37Z</time></trkpt><trkpt lat="31.5574" lon="-7.6875817"><ele>646.0</ele><time>2026-04-25T14:43:28.37Z</time></trkpt><trkpt lat="31.5574783" lon="-7.6876817"><ele>646.0</ele><time>2026-04-25T14:43:29.37Z</time></trkpt><trkpt lat="31.55755" lon="-7.6877767"><ele>646.0</ele><time>2026-04-25T14:43:30.371Z</time></trkpt><trkpt lat="31.5576233" lon="-7.68787"><ele>646.0</ele><time>2026-04-25T14:43:31.37Z</time></trkpt><trkpt lat="31.5576917" lon="-7.6879583"><ele>646.0</ele><time>2026-04-25T14:43:32.37Z</time></trkpt><trkpt lat="31.55776" lon="-7.6880467"><ele>646.0</ele><time>2026-04-25T14:43:33.37Z</time></trkpt><trkpt lat="31.5578283" lon="-7.688135"><ele>646.0</ele><time>2026-04-25T14:43:34.371Z</time></trkpt><trkpt lat="31.5578983" lon="-7.6882267"><ele>646.0</ele><time>2026-04-25T14:43:35.37Z</time></trkpt><trkpt lat="31.5579717" lon="-7.6883217"><ele>646.0</ele><time>2026-04-25T14:43:36.37Z</time></trkpt><trkpt lat="31.55805" lon="-7.6884217"><ele>646.0</ele><time>2026-04-25T14:43:37.37Z</time></trkpt><trkpt lat="31.5581317" lon="-7.6885217"><ele>645.5</ele><time>2026-04-25T14:43:38.37Z</time></trkpt><trkpt lat="31.55821" lon="-7.6886367"><ele>645.0</ele><time>2026-04-25T14:43:39.37Z</time></trkpt><trkpt lat="31.5582933" lon="-7.6887533"><ele>644.5</ele><time>2026-04-25T14:43:40.37Z</time></trkpt><trkpt lat="31.5583717" lon="-7.688875"><ele>644.0</ele><time>2026-04-25T14:43:41.37Z</time></trkpt><trkpt lat="31.5584483" lon="-7.6890017"><ele>644.0</ele><time>2026-04-25T14:43:42.37Z</time></trkpt><trkpt lat="31.5585267" lon="-7.6891317"><ele>644.0</ele><time>2026-04-25T14:43:43.37Z</time></trkpt><trkpt lat="31.5586017" lon="-7.68926"><ele>644.0</ele><time>2026-04-25T14:43:44.37Z</time></trkpt><trkpt lat="31.5586783" lon="-7.6893917"><ele>644.0</ele><time>2026-04-25T14:43:45.37Z</time></trkpt><trkpt lat="31.558755" lon="-7.68953"><ele>644.0</ele><time>2026-04-25T14:43:46.37Z</time></trkpt><trkpt lat="31.5588367" lon="-7.6896683"><ele>644.0</ele><time>2026-04-25T14:43:47.371Z</time></trkpt><trkpt lat="31.5589233" lon="-7.6897983"><ele>644.0</ele><time>2026-04-25T14:43:48.37Z</time></trkpt><trkpt lat="31.5590083" lon="-7.6899317"><ele>644.0</ele><time>2026-04-25T14:43:49.37Z</time></trkpt><trkpt lat="31.55909" lon="-7.69007"><ele>644.0</ele><time>2026-04-25T14:43:50.37Z</time></trkpt><trkpt lat="31.55918" lon="-7.6902"><ele>644.0</ele><time>2026-04-25T14:43:51.37Z</time></trkpt><trkpt lat="31.5592683" lon="-7.690335"><ele>644.0</ele><time>2026-04-25T14:43:52.37Z</time></trkpt><trkpt lat="31.5593467" lon="-7.69047"><ele>644.0</ele><time>2026-04-25T14:43:53.37Z</time></trkpt><trkpt lat="31.5594267" lon="-7.6906033"><ele>643.5</ele><time>2026-04-25T14:43:54.37Z</time></trkpt><trkpt lat="31.559505" lon="-7.69074"><ele>643.0</ele><time>2026-04-25T14:43:55.37Z</time></trkpt><trkpt lat="31.5595817" lon="-7.6908833"><ele>642.5</ele><time>2026-04-25T14:43:56.37Z</time></trkpt><trkpt lat="31.5596633" lon="-7.69103"><ele>642.0</ele><time>2026-04-25T14:43:57.37Z</time></trkpt><trkpt lat="31.559735" lon="-7.69118"><ele>641.0</ele><time>2026-04-25T14:43:58.37Z</time></trkpt><trkpt lat="31.5598017" lon="-7.6913333"><ele>640.0</ele><time>2026-04-25T14:43:59.37Z</time></trkpt><trkpt lat="31.55987" lon="-7.6914933"><ele>639.0</ele><time>2026-04-25T14:44:00.37Z</time></trkpt><trkpt lat="31.559935" lon="-7.6916617"><ele>639.0</ele><time>2026-04-25T14:44:01.37Z</time></trkpt><trkpt lat="31.5599967" lon="-7.6918267"><ele>639.0</ele><time>2026-04-25T14:44:02.37Z</time></trkpt><trkpt lat="31.5600567" lon="-7.6919933"><ele>639.0</ele><time>2026-04-25T14:44:03.37Z</time></trkpt><trkpt lat="31.5601117" lon="-7.6921667"><ele>639.0</ele><time>2026-04-25T14:44:04.371Z</time></trkpt><trkpt lat="31.5601667" lon="-7.6923467"><ele>639.0</ele><time>2026-04-25T14:44:05.371Z</time></trkpt><trkpt lat="31.56022" lon="-7.69252"><ele>639.0</ele><time>2026-04-25T14:44:06.37Z</time></trkpt><trkpt lat="31.56027" lon="-7.6926967"><ele>638.6666666666666</ele><time>2026-04-25T14:44:07.37Z</time></trkpt><trkpt lat="31.5603167" lon="-7.6928783"><ele>638.3333333333333</ele><time>2026-04-25T14:44:08.37Z</time></trkpt><trkpt lat="31.5603517" lon="-7.6930583"><ele>638.0</ele><time>2026-04-25T14:44:09.37Z</time></trkpt><trkpt lat="31.5603783" lon="-7.6932333"><ele>637.0</ele><time>2026-04-25T14:44:10.37Z</time></trkpt><trkpt lat="31.5604017" lon="-7.693405"><ele>636.0</ele><time>2026-04-25T14:44:11.37Z</time></trkpt><trkpt lat="31.5604333" lon="-7.6935817"><ele>635.0</ele><time>2026-04-25T14:44:12.37Z</time></trkpt><trkpt lat="31.56046" lon="-7.6937567"><ele>634.6666666666666</ele><time>2026-04-25T14:44:13.37Z</time></trkpt><trkpt lat="31.56049" lon="-7.6939317"><ele>634.3333333333334</ele><time>2026-04-25T14:44:14.37Z</time></trkpt><trkpt lat="31.56052" lon="-7.6941083"><ele>634.0</ele><time>2026-04-25T14:44:15.37Z</time></trkpt><trkpt lat="31.560545" lon="-7.694285"><ele>634.3333333333334</ele><time>2026-04-25T14:44:16.37Z</time></trkpt><trkpt lat="31.56058" lon="-7.694465"><ele>634.6666666666666</ele><time>2026-04-25T14:44:17.37Z</time></trkpt><trkpt lat="31.5606117" lon="-7.6946417"><ele>635.0</ele><time>2026-04-25T14:44:18.37Z</time></trkpt><trkpt lat="31.5606483" lon="-7.6948183"><ele>635.0</ele><time>2026-04-25T14:44:19.37Z</time></trkpt><trkpt lat="31.5606867" lon="-7.6949917"><ele>635.0</ele><time>2026-04-25T14:44:20.37Z</time></trkpt><trkpt lat="31.5607317" lon="-7.69516"><ele>635.0</ele><time>2026-04-25T14:44:21.37Z</time></trkpt><trkpt lat="31.5607717" lon="-7.6953267"><ele>634.6666666666666</ele><time>2026-04-25T14:44:22.37Z</time></trkpt><trkpt lat="31.5608033" lon="-7.695495"><ele>634.3333333333334</ele><time>2026-04-25T14:44:23.37Z</time></trkpt><trkpt lat="31.560825" lon="-7.69567"><ele>634.0</ele><time>2026-04-25T14:44:24.37Z</time></trkpt><trkpt lat="31.5608467" lon="-7.6958483"><ele>634.0</ele><time>2026-04-25T14:44:25.37Z</time></trkpt><trkpt lat="31.5608633" lon="-7.69603"><ele>634.0</ele><time>2026-04-25T14:44:26.37Z</time></trkpt><trkpt lat="31.5608867" lon="-7.6962133"><ele>634.0</ele><time>2026-04-25T14:44:27.37Z</time></trkpt><trkpt lat="31.5609117" lon="-7.6963967"><ele>634.0</ele><time>2026-04-25T14:44:28.37Z</time></trkpt><trkpt lat="31.5609433" lon="-7.6965867"><ele>634.0</ele><time>2026-04-25T14:44:29.37Z</time></trkpt><trkpt lat="31.5609783" lon="-7.6967783"><ele>634.0</ele><time>2026-04-25T14:44:30.37Z</time></trkpt><trkpt lat="31.561015" lon="-7.6969783"><ele>633.6666666666667</ele><time>2026-04-25T14:44:31.37Z</time></trkpt><trkpt lat="31.5610467" lon="-7.6971867"><ele>633.3333333333334</ele><time>2026-04-25T14:44:32.37Z</time></trkpt><trkpt lat="31.5610867" lon="-7.6974"><ele>633.0</ele><time>2026-04-25T14:44:33.37Z</time></trkpt><trkpt lat="31.5611217" lon="-7.697615"><ele>632.3333333333334</ele><time>2026-04-25T14:44:34.37Z</time></trkpt><trkpt lat="31.5611567" lon="-7.6978333"><ele>631.6666666666667</ele><time>2026-04-25T14:44:35.37Z</time></trkpt><trkpt lat="31.561195" lon="-7.6980583"><ele>631.0</ele><time>2026-04-25T14:44:36.37Z</time></trkpt><trkpt lat="31.5612317" lon="-7.698285"><ele>630.6666666666667</ele><time>2026-04-25T14:44:37.37Z</time></trkpt><trkpt lat="31.56127" lon="-7.6985167"><ele>630.3333333333334</ele><time>2026-04-25T14:44:38.37Z</time></trkpt><trkpt lat="31.56131" lon="-7.6987517"><ele>630.0</ele><time>2026-04-25T14:44:39.37Z</time></trkpt><trkpt lat="31.561345" lon="-7.698985"><ele>630.0</ele><time>2026-04-25T14:44:40.37Z</time></trkpt><trkpt lat="31.5613817" lon="-7.6992217"><ele>630.0</ele><time>2026-04-25T14:44:41.37Z</time></trkpt><trkpt lat="31.5614217" lon="-7.69946"><ele>630.0</ele><time>2026-04-25T14:44:42.37Z</time></trkpt><trkpt lat="31.5614617" lon="-7.6996983"><ele>629.3333333333334</ele><time>2026-04-25T14:44:43.37Z</time></trkpt><trkpt lat="31.5614983" lon="-7.6999367"><ele>628.6666666666667</ele><time>2026-04-25T14:44:44.37Z</time></trkpt><trkpt lat="31.5615367" lon="-7.7001733"><ele>628.0</ele><time>2026-04-25T14:44:45.37Z</time></trkpt><trkpt lat="31.561575" lon="-7.700415"><ele>628.0</ele><time>2026-04-25T14:44:46.37Z</time></trkpt><trkpt lat="31.5616133" lon="-7.7006567"><ele>628.0</ele><time>2026-04-25T14:44:47.37Z</time></trkpt><trkpt lat="31.561655" lon="-7.7009017"><ele>628.0</ele><time>2026-04-25T14:44:48.371Z</time></trkpt><trkpt lat="31.5617" lon="-7.7011467"><ele>628.0</ele><time>2026-04-25T14:44:49.37Z</time></trkpt><trkpt lat="31.5617417" lon="-7.70139"><ele>628.0</ele><time>2026-04-25T14:44:50.37Z</time></trkpt><trkpt lat="31.5617783" lon="-7.7016267"><ele>628.0</ele><time>2026-04-25T14:44:51.37Z</time></trkpt><trkpt lat="31.5618167" lon="-7.7018633"><ele>628.0</ele><time>2026-04-25T14:44:52.37Z</time></trkpt><trkpt lat="31.56185" lon="-7.7021017"><ele>628.0</ele><time>2026-04-25T14:44:53.37Z</time></trkpt><trkpt lat="31.561885" lon="-7.7023417"><ele>628.0</ele><time>2026-04-25T14:44:54.37Z</time></trkpt><trkpt lat="31.5619217" lon="-7.7025783"><ele>628.0</ele><time>2026-04-25T14:44:55.37Z</time></trkpt><trkpt lat="31.5619617" lon="-7.702815"><ele>628.0</ele><time>2026-04-25T14:44:56.37Z</time></trkpt><trkpt lat="31.5620017" lon="-7.70305"><ele>628.0</ele><time>2026-04-25T14:44:57.37Z</time></trkpt><trkpt lat="31.562045" lon="-7.7032883"><ele>627.6666666666667</ele><time>2026-04-25T14:44:58.37Z</time></trkpt><trkpt lat="31.56209" lon="-7.7035267"><ele>627.3333333333334</ele><time>2026-04-25T14:44:59.37Z</time></trkpt><trkpt lat="31.5621367" lon="-7.703765"><ele>627.0</ele><time>2026-04-25T14:45:00.37Z</time></trkpt><trkpt lat="31.56218" lon="-7.7040033"><ele>626.3333333333334</ele><time>2026-04-25T14:45:01.37Z</time></trkpt><trkpt lat="31.5622217" lon="-7.70424"><ele>625.6666666666667</ele><time>2026-04-25T14:45:02.37Z</time></trkpt><trkpt lat="31.5622633" lon="-7.7044767"><ele>625.0</ele><time>2026-04-25T14:45:03.37Z</time></trkpt><trkpt lat="31.5623133" lon="-7.7047133"><ele>624.3333333333334</ele><time>2026-04-25T14:45:04.37Z</time></trkpt><trkpt lat="31.5623583" lon="-7.7049467"><ele>623.6666666666666</ele><time>2026-04-25T14:45:05.37Z</time></trkpt><trkpt lat="31.562405" lon="-7.70518"><ele>623.0</ele><time>2026-04-25T14:45:06.37Z</time></trkpt><trkpt lat="31.5624517" lon="-7.705415"><ele>623.0</ele><time>2026-04-25T14:45:07.37Z</time></trkpt><trkpt lat="31.5625017" lon="-7.705655"><ele>623.0</ele><time>2026-04-25T14:45:08.37Z</time></trkpt><trkpt lat="31.5625433" lon="-7.7058933"><ele>623.0</ele><time>2026-04-25T14:45:09.37Z</time></trkpt><trkpt lat="31.562585" lon="-7.706125"><ele>623.0</ele><time>2026-04-25T14:45:10.37Z</time></trkpt><trkpt lat="31.5626233" lon="-7.7063467"><ele>623.0</ele><time>2026-04-25T14:45:11.37Z</time></trkpt><trkpt lat="31.5626667" lon="-7.70656"><ele>623.0</ele><time>2026-04-25T14:45:12.37Z</time></trkpt><trkpt lat="31.56271" lon="-7.70676"><ele>623.0</ele><time>2026-04-25T14:45:13.37Z</time></trkpt><trkpt lat="31.5627567" lon="-7.70696"><ele>623.0</ele><time>2026-04-25T14:45:14.37Z</time></trkpt><trkpt lat="31.5627983" lon="-7.7071583"><ele>623.0</ele><time>2026-04-25T14:45:15.37Z</time></trkpt><trkpt lat="31.5628367" lon="-7.7073717"><ele>622.6666666666666</ele><time>2026-04-25T14:45:16.37Z</time></trkpt><trkpt lat="31.5628767" lon="-7.7075867"><ele>622.3333333333334</ele><time>2026-04-25T14:45:17.37Z</time></trkpt><trkpt lat="31.5629117" lon="-7.70781"><ele>622.0</ele><time>2026-04-25T14:45:18.37Z</time></trkpt><trkpt lat="31.56295" lon="-7.7080333"><ele>621.0</ele><time>2026-04-25T14:45:19.37Z</time></trkpt><trkpt lat="31.5629917" lon="-7.7082567"><ele>620.0</ele><time>2026-04-25T14:45:20.37Z</time></trkpt><trkpt lat="31.5630333" lon="-7.7084833"><ele>619.0</ele><time>2026-04-25T14:45:21.37Z</time></trkpt><trkpt lat="31.563075" lon="-7.708715"><ele>618.6666666666667</ele><time>2026-04-25T14:45:22.37Z</time></trkpt><trkpt lat="31.5631167" lon="-7.7089417"><ele>618.3333333333334</ele><time>2026-04-25T14:45:23.37Z</time></trkpt><trkpt lat="31.56316" lon="-7.7091717"><ele>618.0</ele><time>2026-04-25T14:45:24.37Z</time></trkpt><trkpt lat="31.5632" lon="-7.7094"><ele>617.6666666666666</ele><time>2026-04-25T14:45:25.37Z</time></trkpt><trkpt lat="31.563245" lon="-7.709635"><ele>617.3333333333333</ele><time>2026-04-25T14:45:26.371Z</time></trkpt><trkpt lat="31.5632917" lon="-7.7098733"><ele>617.0</ele><time>2026-04-25T14:45:27.37Z</time></trkpt><trkpt lat="31.5633383" lon="-7.7101117"><ele>617.0</ele><time>2026-04-25T14:45:28.37Z</time></trkpt><trkpt lat="31.563385" lon="-7.7103467"><ele>617.0</ele><time>2026-04-25T14:45:29.37Z</time></trkpt><trkpt lat="31.5634317" lon="-7.7105833"><ele>617.0</ele><time>2026-04-25T14:45:30.37Z</time></trkpt><trkpt lat="31.5634783" lon="-7.7108233"><ele>617.0</ele><time>2026-04-25T14:45:31.37Z</time></trkpt><trkpt lat="31.5635217" lon="-7.7110633"><ele>617.0</ele><time>2026-04-25T14:45:32.37Z</time></trkpt><trkpt lat="31.563565" lon="-7.7113067"><ele>617.0</ele><time>2026-04-25T14:45:33.37Z</time></trkpt><trkpt lat="31.56361" lon="-7.71155"><ele>616.6666666666666</ele><time>2026-04-25T14:45:34.37Z</time></trkpt><trkpt lat="31.5636533" lon="-7.7117933"><ele>616.3333333333334</ele><time>2026-04-25T14:45:35.37Z</time></trkpt><trkpt lat="31.5637" lon="-7.7120383"><ele>616.0</ele><time>2026-04-25T14:45:36.37Z</time></trkpt><trkpt lat="31.56375" lon="-7.7122717"><ele>615.0</ele><time>2026-04-25T14:45:37.37Z</time></trkpt><trkpt lat="31.5637917" lon="-7.7125033"><ele>614.0</ele><time>2026-04-25T14:45:38.37Z</time></trkpt><trkpt lat="31.56384" lon="-7.71273"><ele>613.0</ele><time>2026-04-25T14:45:39.37Z</time></trkpt><trkpt lat="31.5638867" lon="-7.7129533"><ele>612.6666666666667</ele><time>2026-04-25T14:45:40.37Z</time></trkpt><trkpt lat="31.5639283" lon="-7.713175"><ele>612.3333333333334</ele><time>2026-04-25T14:45:41.37Z</time></trkpt><trkpt lat="31.5639717" lon="-7.7133983"><ele>612.0</ele><time>2026-04-25T14:45:42.37Z</time></trkpt><trkpt lat="31.564015" lon="-7.7136233"><ele>612.0</ele><time>2026-04-25T14:45:43.37Z</time></trkpt><trkpt lat="31.5640567" lon="-7.7138483"><ele>612.0</ele><time>2026-04-25T14:45:44.37Z</time></trkpt><trkpt lat="31.564095" lon="-7.714075"><ele>612.0</ele><time>2026-04-25T14:45:45.37Z</time></trkpt><trkpt lat="31.5641333" lon="-7.7142967"><ele>612.0</ele><time>2026-04-25T14:45:46.37Z</time></trkpt><trkpt lat="31.5641767" lon="-7.7145217"><ele>612.0</ele><time>2026-04-25T14:45:47.37Z</time></trkpt><trkpt lat="31.5642167" lon="-7.7147483"><ele>612.0</ele><time>2026-04-25T14:45:48.37Z</time></trkpt><trkpt lat="31.5642617" lon="-7.7149767"><ele>612.0</ele><time>2026-04-25T14:45:49.37Z</time></trkpt><trkpt lat="31.564305" lon="-7.715205"><ele>612.0</ele><time>2026-04-25T14:45:50.37Z</time></trkpt><trkpt lat="31.5643483" lon="-7.7154283"><ele>612.0</ele><time>2026-04-25T14:45:51.371Z</time></trkpt><trkpt lat="31.5643917" lon="-7.7156583"><ele>611.6666666666666</ele><time>2026-04-25T14:45:52.37Z</time></trkpt><trkpt lat="31.5644383" lon="-7.7158883"><ele>611.3333333333333</ele><time>2026-04-25T14:45:53.37Z</time></trkpt><trkpt lat="31.5644833" lon="-7.71612"><ele>611.0</ele><time>2026-04-25T14:45:54.37Z</time></trkpt><trkpt lat="31.5645267" lon="-7.71635"><ele>610.3333333333333</ele><time>2026-04-25T14:45:55.37Z</time></trkpt><trkpt lat="31.56457" lon="-7.71658"><ele>609.6666666666666</ele><time>2026-04-25T14:45:56.37Z</time></trkpt><trkpt lat="31.5646167" lon="-7.7168117"><ele>609.0</ele><time>2026-04-25T14:45:57.37Z</time></trkpt><trkpt lat="31.56466" lon="-7.717045"><ele>609.0</ele><time>2026-04-25T14:45:58.37Z</time></trkpt><trkpt lat="31.5647067" lon="-7.7172833"><ele>609.0</ele><time>2026-04-25T14:45:59.37Z</time></trkpt><trkpt lat="31.5647483" lon="-7.7175217"><ele>609.0</ele><time>2026-04-25T14:46:00.37Z</time></trkpt><trkpt lat="31.5647917" lon="-7.7177583"><ele>609.0</ele><time>2026-04-25T14:46:01.37Z</time></trkpt><trkpt lat="31.5648367" lon="-7.7179933"><ele>609.0</ele><time>2026-04-25T14:46:02.37Z</time></trkpt><trkpt lat="31.5648883" lon="-7.71823"><ele>609.0</ele><time>2026-04-25T14:46:03.37Z</time></trkpt><trkpt lat="31.56493" lon="-7.7184667"><ele>608.6666666666666</ele><time>2026-04-25T14:46:04.37Z</time></trkpt><trkpt lat="31.564975" lon="-7.7187017"><ele>608.3333333333333</ele><time>2026-04-25T14:46:05.37Z</time></trkpt><trkpt lat="31.5650233" lon="-7.7189383"><ele>608.0</ele><time>2026-04-25T14:46:06.37Z</time></trkpt><trkpt lat="31.5650733" lon="-7.7191783"><ele>607.6666666666666</ele><time>2026-04-25T14:46:07.37Z</time></trkpt><trkpt lat="31.5651183" lon="-7.7194217"><ele>607.3333333333334</ele><time>2026-04-25T14:46:08.37Z</time></trkpt><trkpt lat="31.5651583" lon="-7.719665"><ele>607.0</ele><time>2026-04-25T14:46:09.37Z</time></trkpt><trkpt lat="31.5652017" lon="-7.7199067"><ele>607.0</ele><time>2026-04-25T14:46:10.37Z</time></trkpt><trkpt lat="31.565245" lon="-7.7201467"><ele>607.0</ele><time>2026-04-25T14:46:11.37Z</time></trkpt><trkpt lat="31.5652967" lon="-7.720385"><ele>607.0</ele><time>2026-04-25T14:46:12.371Z</time></trkpt><trkpt lat="31.5653417" lon="-7.720625"><ele>606.6666666666667</ele><time>2026-04-25T14:46:13.37Z</time></trkpt><trkpt lat="31.5653833" lon="-7.72086"><ele>606.3333333333334</ele><time>2026-04-25T14:46:14.37Z</time></trkpt><trkpt lat="31.5654183" lon="-7.7210883"><ele>606.0</ele><time>2026-04-25T14:46:15.37Z</time></trkpt><trkpt lat="31.5654567" lon="-7.721305"><ele>606.0</ele><time>2026-04-25T14:46:16.37Z</time></trkpt><trkpt lat="31.565495" lon="-7.72152"><ele>606.0</ele><time>2026-04-25T14:46:17.37Z</time></trkpt><trkpt lat="31.5655317" lon="-7.7217417"><ele>606.0</ele><time>2026-04-25T14:46:18.37Z</time></trkpt><trkpt lat="31.5655667" lon="-7.72196"><ele>605.0</ele><time>2026-04-25T14:46:19.37Z</time></trkpt><trkpt lat="31.5656033" lon="-7.7221783"><ele>604.0</ele><time>2026-04-25T14:46:20.37Z</time></trkpt><trkpt lat="31.5656417" lon="-7.7223933"><ele>603.0</ele><time>2026-04-25T14:46:21.37Z</time></trkpt><trkpt lat="31.5656833" lon="-7.72261"><ele>602.6666666666666</ele><time>2026-04-25T14:46:22.37Z</time></trkpt><trkpt lat="31.5657217" lon="-7.722825"><ele>602.3333333333333</ele><time>2026-04-25T14:46:23.37Z</time></trkpt><trkpt lat="31.5657633" lon="-7.7230383"><ele>602.0</ele><time>2026-04-25T14:46:24.37Z</time></trkpt><trkpt lat="31.5658033" lon="-7.7232533"><ele>602.0</ele><time>2026-04-25T14:46:25.37Z</time></trkpt><trkpt lat="31.5658467" lon="-7.72347"><ele>602.0</ele><time>2026-04-25T14:46:26.37Z</time></trkpt><trkpt lat="31.5658933" lon="-7.7236867"><ele>602.0</ele><time>2026-04-25T14:46:27.37Z</time></trkpt><trkpt lat="31.5659317" lon="-7.7239067"><ele>601.6666666666666</ele><time>2026-04-25T14:46:28.37Z</time></trkpt><trkpt lat="31.5659717" lon="-7.72412"><ele>601.3333333333334</ele><time>2026-04-25T14:46:29.37Z</time></trkpt><trkpt lat="31.5660067" lon="-7.724335"><ele>601.0</ele><time>2026-04-25T14:46:30.37Z</time></trkpt><trkpt lat="31.5660433" lon="-7.7245467"><ele>600.6666666666667</ele><time>2026-04-25T14:46:31.37Z</time></trkpt><trkpt lat="31.56608" lon="-7.7247633"><ele>600.3333333333334</ele><time>2026-04-25T14:46:32.37Z</time></trkpt><trkpt lat="31.566115" lon="-7.7249767"><ele>600.0</ele><time>2026-04-25T14:46:33.371Z</time></trkpt><trkpt lat="31.56615" lon="-7.725195"><ele>599.6666666666666</ele><time>2026-04-25T14:46:34.37Z</time></trkpt><trkpt lat="31.566185" lon="-7.72541"><ele>599.3333333333333</ele><time>2026-04-25T14:46:35.37Z</time></trkpt><trkpt lat="31.566215" lon="-7.7256233"><ele>599.0</ele><time>2026-04-25T14:46:36.37Z</time></trkpt><trkpt lat="31.5662433" lon="-7.72583"><ele>599.0</ele><time>2026-04-25T14:46:37.37Z</time></trkpt><trkpt lat="31.5662667" lon="-7.7260233"><ele>599.0</ele><time>2026-04-25T14:46:38.37Z</time></trkpt><trkpt lat="31.5663017" lon="-7.7262267"><ele>599.0</ele><time>2026-04-25T14:46:39.37Z</time></trkpt><trkpt lat="31.5663367" lon="-7.726415"><ele>598.0</ele><time>2026-04-25T14:46:40.37Z</time></trkpt><trkpt lat="31.5663683" lon="-7.7266033"><ele>597.0</ele><time>2026-04-25T14:46:41.37Z</time></trkpt><trkpt lat="31.5663983" lon="-7.72679"><ele>596.0</ele><time>2026-04-25T14:46:42.37Z</time></trkpt><trkpt lat="31.566435" lon="-7.72698"><ele>596.0</ele><time>2026-04-25T14:46:43.37Z</time></trkpt><trkpt lat="31.56647" lon="-7.727165"><ele>596.0</ele><time>2026-04-25T14:46:44.37Z</time></trkpt><trkpt lat="31.566505" lon="-7.72734"><ele>596.0</ele><time>2026-04-25T14:46:45.37Z</time></trkpt><trkpt lat="31.5665433" lon="-7.7275083"><ele>596.0</ele><time>2026-04-25T14:46:46.371Z</time></trkpt><trkpt lat="31.5665817" lon="-7.7276683"><ele>596.0</ele><time>2026-04-25T14:46:47.37Z</time></trkpt><trkpt lat="31.56662" lon="-7.7278317"><ele>596.0</ele><time>2026-04-25T14:46:48.37Z</time></trkpt><trkpt lat="31.566645" lon="-7.7280017"><ele>596.0</ele><time>2026-04-25T14:46:49.37Z</time></trkpt><trkpt lat="31.566665" lon="-7.728175"><ele>596.3333333333333</ele><time>2026-04-25T14:46:50.371Z</time></trkpt><trkpt lat="31.5666817" lon="-7.72835"><ele>596.6666666666666</ele><time>2026-04-25T14:46:51.37Z</time></trkpt><trkpt lat="31.5667067" lon="-7.7285217"><ele>597.0</ele><time>2026-04-25T14:46:52.37Z</time></trkpt><trkpt lat="31.5667317" lon="-7.7287033"><ele>596.3333333333334</ele><time>2026-04-25T14:46:53.37Z</time></trkpt><trkpt lat="31.5667567" lon="-7.7288867"><ele>595.6666666666667</ele><time>2026-04-25T14:46:54.37Z</time></trkpt><trkpt lat="31.56678" lon="-7.7290717"><ele>595.0</ele><time>2026-04-25T14:46:55.37Z</time></trkpt><trkpt lat="31.5668033" lon="-7.7292667"><ele>595.0</ele><time>2026-04-25T14:46:56.37Z</time></trkpt><trkpt lat="31.566825" lon="-7.729465"><ele>595.0</ele><time>2026-04-25T14:46:57.37Z</time></trkpt><trkpt lat="31.5668533" lon="-7.7296683"><ele>595.0</ele><time>2026-04-25T14:46:58.371Z</time></trkpt><trkpt lat="31.5668817" lon="-7.729875"><ele>595.0</ele><time>2026-04-25T14:46:59.37Z</time></trkpt><trkpt lat="31.566915" lon="-7.7300833"><ele>595.0</ele><time>2026-04-25T14:47:00.37Z</time></trkpt><trkpt lat="31.56695" lon="-7.7302917"><ele>595.0</ele><time>2026-04-25T14:47:01.37Z</time></trkpt><trkpt lat="31.5669833" lon="-7.7305067"><ele>594.6666666666667</ele><time>2026-04-25T14:47:02.37Z</time></trkpt><trkpt lat="31.5670183" lon="-7.7307183"><ele>594.3333333333334</ele><time>2026-04-25T14:47:03.37Z</time></trkpt><trkpt lat="31.56706" lon="-7.7309317"><ele>594.0</ele><time>2026-04-25T14:47:04.37Z</time></trkpt><trkpt lat="31.5670917" lon="-7.7311417"><ele>593.6666666666666</ele><time>2026-04-25T14:47:05.37Z</time></trkpt><trkpt lat="31.56712" lon="-7.7313467"><ele>593.3333333333333</ele><time>2026-04-25T14:47:06.37Z</time></trkpt><trkpt lat="31.5671467" lon="-7.7315583"><ele>593.0</ele><time>2026-04-25T14:47:07.37Z</time></trkpt><trkpt lat="31.5671767" lon="-7.7317717"><ele>592.6666666666666</ele><time>2026-04-25T14:47:08.37Z</time></trkpt><trkpt lat="31.5672067" lon="-7.7319817"><ele>592.3333333333334</ele><time>2026-04-25T14:47:09.37Z</time></trkpt><trkpt lat="31.5672333" lon="-7.7321967"><ele>592.0</ele><time>2026-04-25T14:47:10.37Z</time></trkpt><trkpt lat="31.5672617" lon="-7.7324117"><ele>592.0</ele><time>2026-04-25T14:47:11.371Z</time></trkpt><trkpt lat="31.5672917" lon="-7.73263"><ele>592.0</ele><time>2026-04-25T14:47:12.37Z</time></trkpt><trkpt lat="31.5673217" lon="-7.7328483"><ele>592.0</ele><time>2026-04-25T14:47:13.37Z</time></trkpt><trkpt lat="31.56735" lon="-7.7330717"><ele>592.3333333333334</ele><time>2026-04-25T14:47:14.37Z</time></trkpt><trkpt lat="31.5673817" lon="-7.7333"><ele>592.6666666666666</ele><time>2026-04-25T14:47:15.37Z</time></trkpt><trkpt lat="31.5674133" lon="-7.733525"><ele>593.0</ele><time>2026-04-25T14:47:16.37Z</time></trkpt><trkpt lat="31.567445" lon="-7.733735"><ele>591.6666666666666</ele><time>2026-04-25T14:47:17.37Z</time></trkpt><trkpt lat="31.5674783" lon="-7.73394"><ele>590.3333333333334</ele><time>2026-04-25T14:47:18.37Z</time></trkpt><trkpt lat="31.5675067" lon="-7.73415"><ele>589.0</ele><time>2026-04-25T14:47:19.37Z</time></trkpt><trkpt lat="31.5675333" lon="-7.7343633"><ele>589.0</ele><time>2026-04-25T14:47:20.37Z</time></trkpt><trkpt lat="31.5675567" lon="-7.73457"><ele>589.0</ele><time>2026-04-25T14:47:21.37Z</time></trkpt><trkpt lat="31.56759" lon="-7.7347833"><ele>589.0</ele><time>2026-04-25T14:47:22.37Z</time></trkpt><trkpt lat="31.5676217" lon="-7.7349933"><ele>589.0</ele><time>2026-04-25T14:47:23.371Z</time></trkpt><trkpt lat="31.567655" lon="-7.7351983"><ele>589.0</ele><time>2026-04-25T14:47:24.37Z</time></trkpt><trkpt lat="31.5676833" lon="-7.7354117"><ele>589.0</ele><time>2026-04-25T14:47:25.37Z</time></trkpt><trkpt lat="31.5677133" lon="-7.7356233"><ele>589.0</ele><time>2026-04-25T14:47:26.37Z</time></trkpt><trkpt lat="31.56774" lon="-7.73583"><ele>589.0</ele><time>2026-04-25T14:47:27.37Z</time></trkpt><trkpt lat="31.5677733" lon="-7.7360367"><ele>589.0</ele><time>2026-04-25T14:47:28.37Z</time></trkpt><trkpt lat="31.567805" lon="-7.7362367"><ele>588.6666666666667</ele><time>2026-04-25T14:47:29.37Z</time></trkpt><trkpt lat="31.5678333" lon="-7.736445"><ele>588.3333333333334</ele><time>2026-04-25T14:47:30.37Z</time></trkpt><trkpt lat="31.5678667" lon="-7.7366433"><ele>588.0</ele><time>2026-04-25T14:47:31.37Z</time></trkpt><trkpt lat="31.5678967" lon="-7.73685"><ele>587.3333333333334</ele><time>2026-04-25T14:47:32.37Z</time></trkpt><trkpt lat="31.5679283" lon="-7.73705"><ele>586.6666666666667</ele><time>2026-04-25T14:47:33.37Z</time></trkpt><trkpt lat="31.56796" lon="-7.737255"><ele>586.0</ele><time>2026-04-25T14:47:34.37Z</time></trkpt><trkpt lat="31.5679883" lon="-7.7374567"><ele>586.0</ele><time>2026-04-25T14:47:35.37Z</time></trkpt><trkpt lat="31.5680133" lon="-7.73766"><ele>586.0</ele><time>2026-04-25T14:47:36.37Z</time></trkpt><trkpt lat="31.5680433" lon="-7.737865"><ele>586.0</ele><time>2026-04-25T14:47:37.37Z</time></trkpt><trkpt lat="31.568075" lon="-7.7380683"><ele>585.3333333333334</ele><time>2026-04-25T14:47:38.37Z</time></trkpt><trkpt lat="31.568105" lon="-7.7382767"><ele>584.6666666666666</ele><time>2026-04-25T14:47:39.37Z</time></trkpt><trkpt lat="31.5681333" lon="-7.7384767"><ele>584.0</ele><time>2026-04-25T14:47:40.37Z</time></trkpt><trkpt lat="31.5681567" lon="-7.7386817"><ele>583.6666666666666</ele><time>2026-04-25T14:47:41.37Z</time></trkpt><trkpt lat="31.5681883" lon="-7.738885"><ele>583.3333333333334</ele><time>2026-04-25T14:47:42.37Z</time></trkpt><trkpt lat="31.56822" lon="-7.7390883"><ele>583.0</ele><time>2026-04-25T14:47:43.37Z</time></trkpt><trkpt lat="31.5682567" lon="-7.7392933"><ele>582.6666666666667</ele><time>2026-04-25T14:47:44.37Z</time></trkpt><trkpt lat="31.5682917" lon="-7.7395"><ele>582.3333333333334</ele><time>2026-04-25T14:47:45.37Z</time></trkpt><trkpt lat="31.56833" lon="-7.7397083"><ele>582.0</ele><time>2026-04-25T14:47:46.37Z</time></trkpt><trkpt lat="31.568365" lon="-7.7399133"><ele>582.0</ele><time>2026-04-25T14:47:47.37Z</time></trkpt><trkpt lat="31.5683967" lon="-7.7401233"><ele>582.0</ele><time>2026-04-25T14:47:48.37Z</time></trkpt><trkpt lat="31.5684267" lon="-7.74033"><ele>582.0</ele><time>2026-04-25T14:47:49.37Z</time></trkpt><trkpt lat="31.5684617" lon="-7.7405383"><ele>581.6666666666666</ele><time>2026-04-25T14:47:50.37Z</time></trkpt><trkpt lat="31.5684967" lon="-7.7407483"><ele>581.3333333333333</ele><time>2026-04-25T14:47:51.37Z</time></trkpt><trkpt lat="31.568525" lon="-7.7409617"><ele>581.0</ele><time>2026-04-25T14:47:52.37Z</time></trkpt><trkpt lat="31.5685583" lon="-7.7411733"><ele>581.0</ele><time>2026-04-25T14:47:53.37Z</time></trkpt><trkpt lat="31.568595" lon="-7.7413833"><ele>581.0</ele><time>2026-04-25T14:47:54.37Z</time></trkpt><trkpt lat="31.56863" lon="-7.741595"><ele>581.0</ele><time>2026-04-25T14:47:55.37Z</time></trkpt><trkpt lat="31.568665" lon="-7.7418083"><ele>580.3333333333333</ele><time>2026-04-25T14:47:56.37Z</time></trkpt><trkpt lat="31.5686983" lon="-7.742025"><ele>579.6666666666666</ele><time>2026-04-25T14:47:57.37Z</time></trkpt><trkpt lat="31.568735" lon="-7.7422417"><ele>579.0</ele><time>2026-04-25T14:47:58.37Z</time></trkpt><trkpt lat="31.5687717" lon="-7.7424567"><ele>579.0</ele><time>2026-04-25T14:47:59.37Z</time></trkpt><trkpt lat="31.568805" lon="-7.74267"><ele>579.0</ele><time>2026-04-25T14:48:00.37Z</time></trkpt><trkpt lat="31.5688417" lon="-7.742885"><ele>579.0</ele><time>2026-04-25T14:48:01.37Z</time></trkpt><trkpt lat="31.5688783" lon="-7.7430967"><ele>579.0</ele><time>2026-04-25T14:48:02.37Z</time></trkpt><trkpt lat="31.5689133" lon="-7.7433117"><ele>579.0</ele><time>2026-04-25T14:48:03.37Z</time></trkpt><trkpt lat="31.5689467" lon="-7.7435317"><ele>579.0</ele><time>2026-04-25T14:48:04.37Z</time></trkpt><trkpt lat="31.5689817" lon="-7.7437467"><ele>579.0</ele><time>2026-04-25T14:48:05.37Z</time></trkpt><trkpt lat="31.56902" lon="-7.743965"><ele>579.0</ele><time>2026-04-25T14:48:06.37Z</time></trkpt><trkpt lat="31.5690583" lon="-7.7441817"><ele>579.0</ele><time>2026-04-25T14:48:07.37Z</time></trkpt><trkpt lat="31.569095" lon="-7.7444017"><ele>578.0</ele><time>2026-04-25T14:48:08.37Z</time></trkpt><trkpt lat="31.5691333" lon="-7.74462"><ele>577.0</ele><time>2026-04-25T14:48:09.37Z</time></trkpt><trkpt lat="31.5691717" lon="-7.7448367"><ele>576.0</ele><time>2026-04-25T14:48:10.37Z</time></trkpt><trkpt lat="31.5692067" lon="-7.7450517"><ele>576.0</ele><time>2026-04-25T14:48:11.37Z</time></trkpt><trkpt lat="31.569245" lon="-7.7452717"><ele>576.0</ele><time>2026-04-25T14:48:12.37Z</time></trkpt><trkpt lat="31.5692833" lon="-7.7454883"><ele>576.0</ele><time>2026-04-25T14:48:13.371Z</time></trkpt><trkpt lat="31.56932" lon="-7.745705"><ele>576.0</ele><time>2026-04-25T14:48:14.37Z</time></trkpt><trkpt lat="31.569355" lon="-7.7459233"><ele>576.0</ele><time>2026-04-25T14:48:15.37Z</time></trkpt><trkpt lat="31.5693933" lon="-7.74614"><ele>576.0</ele><time>2026-04-25T14:48:16.37Z</time></trkpt><trkpt lat="31.5694317" lon="-7.7463583"><ele>575.3333333333334</ele><time>2026-04-25T14:48:17.371Z</time></trkpt><trkpt lat="31.5694667" lon="-7.7465767"><ele>574.6666666666667</ele><time>2026-04-25T14:48:18.37Z</time></trkpt><trkpt lat="31.5695067" lon="-7.7467867"><ele>574.0</ele><time>2026-04-25T14:48:19.37Z</time></trkpt><trkpt lat="31.5695533" lon="-7.7469867"><ele>574.0</ele><time>2026-04-25T14:48:20.37Z</time></trkpt><trkpt lat="31.5695933" lon="-7.747185"><ele>574.0</ele><time>2026-04-25T14:48:21.371Z</time></trkpt><trkpt lat="31.56963" lon="-7.7473817"><ele>574.0</ele><time>2026-04-25T14:48:22.37Z</time></trkpt><trkpt lat="31.5696633" lon="-7.747575"><ele>573.6666666666667</ele><time>2026-04-25T14:48:23.37Z</time></trkpt><trkpt lat="31.5696967" lon="-7.747775"><ele>573.3333333333334</ele><time>2026-04-25T14:48:24.37Z</time></trkpt><trkpt lat="31.56973" lon="-7.7479717"><ele>573.0</ele><time>2026-04-25T14:48:25.37Z</time></trkpt><trkpt lat="31.5697667" lon="-7.7481667"><ele>573.0</ele><time>2026-04-25T14:48:26.37Z</time></trkpt><trkpt lat="31.5698017" lon="-7.7483667"><ele>573.0</ele><time>2026-04-25T14:48:27.37Z</time></trkpt><trkpt lat="31.5698333" lon="-7.7485583"><ele>573.0</ele><time>2026-04-25T14:48:28.37Z</time></trkpt><trkpt lat="31.5698633" lon="-7.7487417"><ele>572.75</ele><time>2026-04-25T14:48:29.37Z</time></trkpt><trkpt lat="31.569895" lon="-7.7489183"><ele>572.5</ele><time>2026-04-25T14:48:30.37Z</time></trkpt><trkpt lat="31.5699267" lon="-7.74909"><ele>572.25</ele><time>2026-04-25T14:48:31.37Z</time></trkpt><trkpt lat="31.5699567" lon="-7.7492567"><ele>572.0</ele><time>2026-04-25T14:48:32.37Z</time></trkpt><trkpt lat="31.56999" lon="-7.749415"><ele>571.8000000000001</ele><time>2026-04-25T14:48:33.37Z</time></trkpt><trkpt lat="31.5700267" lon="-7.7495567"><ele>571.6</ele><time>2026-04-25T14:48:34.37Z</time></trkpt><trkpt lat="31.5700617" lon="-7.7496683"><ele>571.4000000000001</ele><time>2026-04-25T14:48:35.37Z</time></trkpt><trkpt lat="31.5700883" lon="-7.7497567"><ele>571.2</ele><time>2026-04-25T14:48:36.37Z</time></trkpt><trkpt lat="31.5701217" lon="-7.7498517"><ele>571.0</ele><time>2026-04-25T14:48:37.37Z</time></trkpt><trkpt lat="31.5701517" lon="-7.7499617"><ele>571.0</ele><time>2026-04-25T14:48:38.37Z</time></trkpt><trkpt lat="31.57017" lon="-7.75009"><ele>571.0</ele><time>2026-04-25T14:48:39.37Z</time></trkpt><trkpt lat="31.570185" lon="-7.75023"><ele>571.0</ele><time>2026-04-25T14:48:40.37Z</time></trkpt><trkpt lat="31.5702017" lon="-7.7503833"><ele>571.0</ele><time>2026-04-25T14:48:41.37Z</time></trkpt><trkpt lat="31.5702267" lon="-7.750545"><ele>570.6666666666667</ele><time>2026-04-25T14:48:42.37Z</time></trkpt><trkpt lat="31.570255" lon="-7.750715"><ele>570.3333333333334</ele><time>2026-04-25T14:48:43.37Z</time></trkpt><trkpt lat="31.5702867" lon="-7.75089"><ele>570.0</ele><time>2026-04-25T14:48:44.37Z</time></trkpt><trkpt lat="31.5703283" lon="-7.7510717"><ele>570.0</ele><time>2026-04-25T14:48:45.37Z</time></trkpt><trkpt lat="31.570365" lon="-7.75126"><ele>570.0</ele><time>2026-04-25T14:48:46.37Z</time></trkpt><trkpt lat="31.570405" lon="-7.7514517"><ele>570.0</ele><time>2026-04-25T14:48:47.37Z</time></trkpt><trkpt lat="31.5704433" lon="-7.7516483"><ele>570.0</ele><time>2026-04-25T14:48:48.37Z</time></trkpt><trkpt lat="31.5704783" lon="-7.7518383"><ele>570.0</ele><time>2026-04-25T14:48:49.37Z</time></trkpt><trkpt lat="31.5705133" lon="-7.7520267"><ele>570.0</ele><time>2026-04-25T14:48:50.37Z</time></trkpt><trkpt lat="31.5705483" lon="-7.7522117"><ele>570.0</ele><time>2026-04-25T14:48:51.371Z</time></trkpt><trkpt lat="31.570585" lon="-7.7523983"><ele>570.0</ele><time>2026-04-25T14:48:52.37Z</time></trkpt><trkpt lat="31.5706233" lon="-7.7525833"><ele>570.0</ele><time>2026-04-25T14:48:53.37Z</time></trkpt><trkpt lat="31.5706533" lon="-7.7527683"><ele>569.3333333333334</ele><time>2026-04-25T14:48:54.37Z</time></trkpt><trkpt lat="31.5706883" lon="-7.752955"><ele>568.6666666666667</ele><time>2026-04-25T14:48:55.37Z</time></trkpt><trkpt lat="31.5707217" lon="-7.75314"><ele>568.0</ele><time>2026-04-25T14:48:56.37Z</time></trkpt><trkpt lat="31.5707567" lon="-7.75333"><ele>568.0</ele><time>2026-04-25T14:48:57.37Z</time></trkpt><trkpt lat="31.5707983" lon="-7.753525"><ele>568.0</ele><time>2026-04-25T14:48:58.37Z</time></trkpt><trkpt lat="31.570835" lon="-7.7537167"><ele>568.0</ele><time>2026-04-25T14:48:59.37Z</time></trkpt><trkpt lat="31.570875" lon="-7.7539117"><ele>567.3333333333334</ele><time>2026-04-25T14:49:00.37Z</time></trkpt><trkpt lat="31.5709183" lon="-7.754105"><ele>566.6666666666666</ele><time>2026-04-25T14:49:01.37Z</time></trkpt><trkpt lat="31.5709617" lon="-7.7542983"><ele>566.0</ele><time>2026-04-25T14:49:02.37Z</time></trkpt><trkpt lat="31.5710033" lon="-7.7544917"><ele>566.0</ele><time>2026-04-25T14:49:03.37Z</time></trkpt><trkpt lat="31.5710417" lon="-7.7546883"><ele>566.0</ele><time>2026-04-25T14:49:04.37Z</time></trkpt><trkpt lat="31.571085" lon="-7.7548883"><ele>566.0</ele><time>2026-04-25T14:49:05.37Z</time></trkpt><trkpt lat="31.5711217" lon="-7.7550833"><ele>566.0</ele><time>2026-04-25T14:49:06.37Z</time></trkpt><trkpt lat="31.5711583" lon="-7.7552817"><ele>566.0</ele><time>2026-04-25T14:49:07.37Z</time></trkpt><trkpt lat="31.57119" lon="-7.75548"><ele>566.0</ele><time>2026-04-25T14:49:08.37Z</time></trkpt><trkpt lat="31.5712217" lon="-7.7556767"><ele>565.6666666666666</ele><time>2026-04-25T14:49:09.37Z</time></trkpt><trkpt lat="31.57126" lon="-7.7558733"><ele>565.3333333333334</ele><time>2026-04-25T14:49:10.37Z</time></trkpt><trkpt lat="31.5713017" lon="-7.7560717"><ele>565.0</ele><time>2026-04-25T14:49:11.37Z</time></trkpt><trkpt lat="31.571345" lon="-7.7562667"><ele>564.6666666666667</ele><time>2026-04-25T14:49:12.37Z</time></trkpt><trkpt lat="31.5713867" lon="-7.756465"><ele>564.3333333333334</ele><time>2026-04-25T14:49:13.37Z</time></trkpt><trkpt lat="31.5714283" lon="-7.756665"><ele>564.0</ele><time>2026-04-25T14:49:14.37Z</time></trkpt><trkpt lat="31.5714683" lon="-7.7568633"><ele>563.6666666666666</ele><time>2026-04-25T14:49:15.37Z</time></trkpt><trkpt lat="31.5715067" lon="-7.7570633"><ele>563.3333333333333</ele><time>2026-04-25T14:49:16.37Z</time></trkpt><trkpt lat="31.5715433" lon="-7.7572617"><ele>563.0</ele><time>2026-04-25T14:49:17.37Z</time></trkpt><trkpt lat="31.57158" lon="-7.7574617"><ele>563.0</ele><time>2026-04-25T14:49:18.37Z</time></trkpt><trkpt lat="31.5716133" lon="-7.7576617"><ele>563.0</ele><time>2026-04-25T14:49:19.37Z</time></trkpt><trkpt lat="31.57165" lon="-7.7578617"><ele>563.0</ele><time>2026-04-25T14:49:20.37Z</time></trkpt><trkpt lat="31.57169" lon="-7.75806"><ele>562.6666666666666</ele><time>2026-04-25T14:49:21.37Z</time></trkpt><trkpt lat="31.5717283" lon="-7.7582583"><ele>562.3333333333334</ele><time>2026-04-25T14:49:22.37Z</time></trkpt><trkpt lat="31.5717717" lon="-7.7584583"><ele>562.0</ele><time>2026-04-25T14:49:23.37Z</time></trkpt><trkpt lat="31.5718167" lon="-7.7586567"><ele>561.3333333333334</ele><time>2026-04-25T14:49:24.37Z</time></trkpt><trkpt lat="31.5718617" lon="-7.7588517"><ele>560.6666666666666</ele><time>2026-04-25T14:49:25.37Z</time></trkpt><trkpt lat="31.5719067" lon="-7.7590533"><ele>560.0</ele><time>2026-04-25T14:49:26.371Z</time></trkpt><trkpt lat="31.57195" lon="-7.7592567"><ele>560.0</ele><time>2026-04-25T14:49:27.37Z</time></trkpt><trkpt lat="31.571995" lon="-7.7594617"><ele>560.0</ele><time>2026-04-25T14:49:28.37Z</time></trkpt><trkpt lat="31.5720383" lon="-7.7596667"><ele>560.0</ele><time>2026-04-25T14:49:29.37Z</time></trkpt><trkpt lat="31.5720867" lon="-7.759875"><ele>559.6666666666666</ele><time>2026-04-25T14:49:30.37Z</time></trkpt><trkpt lat="31.5721283" lon="-7.7600833"><ele>559.3333333333334</ele><time>2026-04-25T14:49:31.37Z</time></trkpt><trkpt lat="31.57217" lon="-7.7602917"><ele>559.0</ele><time>2026-04-25T14:49:32.37Z</time></trkpt><trkpt lat="31.5722133" lon="-7.7605017"><ele>559.0</ele><time>2026-04-25T14:49:33.37Z</time></trkpt><trkpt lat="31.572255" lon="-7.7607167"><ele>559.0</ele><time>2026-04-25T14:49:34.37Z</time></trkpt><trkpt lat="31.5722983" lon="-7.76093"><ele>559.0</ele><time>2026-04-25T14:49:35.37Z</time></trkpt><trkpt lat="31.57234" lon="-7.76114"><ele>558.6666666666667</ele><time>2026-04-25T14:49:36.37Z</time></trkpt><trkpt lat="31.5723833" lon="-7.7613517"><ele>558.3333333333334</ele><time>2026-04-25T14:49:37.37Z</time></trkpt><trkpt lat="31.5724317" lon="-7.7615667"><ele>558.0</ele><time>2026-04-25T14:49:38.37Z</time></trkpt><trkpt lat="31.5724833" lon="-7.7617867"><ele>557.6666666666666</ele><time>2026-04-25T14:49:39.37Z</time></trkpt><trkpt lat="31.57253" lon="-7.7620067"><ele>557.3333333333333</ele><time>2026-04-25T14:49:40.37Z</time></trkpt><trkpt lat="31.572575" lon="-7.76223"><ele>557.0</ele><time>2026-04-25T14:49:41.37Z</time></trkpt><trkpt lat="31.5726233" lon="-7.7624533"><ele>557.0</ele><time>2026-04-25T14:49:42.37Z</time></trkpt><trkpt lat="31.57267" lon="-7.7626767"><ele>557.0</ele><time>2026-04-25T14:49:43.37Z</time></trkpt><trkpt lat="31.5727183" lon="-7.7629017"><ele>557.0</ele><time>2026-04-25T14:49:44.37Z</time></trkpt><trkpt lat="31.572765" lon="-7.7631183"><ele>556.6666666666666</ele><time>2026-04-25T14:49:45.37Z</time></trkpt><trkpt lat="31.5728167" lon="-7.7633367"><ele>556.3333333333334</ele><time>2026-04-25T14:49:46.37Z</time></trkpt><trkpt lat="31.5728567" lon="-7.7635483"><ele>556.0</ele><time>2026-04-25T14:49:47.37Z</time></trkpt><trkpt lat="31.5728983" lon="-7.763755"><ele>555.6666666666667</ele><time>2026-04-25T14:49:48.37Z</time></trkpt><trkpt lat="31.572935" lon="-7.7639583"><ele>555.3333333333334</ele><time>2026-04-25T14:49:49.37Z</time></trkpt><trkpt lat="31.572975" lon="-7.7641617"><ele>555.0</ele><time>2026-04-25T14:49:50.37Z</time></trkpt><trkpt lat="31.573015" lon="-7.764365"><ele>554.3333333333334</ele><time>2026-04-25T14:49:51.37Z</time></trkpt><trkpt lat="31.5730567" lon="-7.7645633"><ele>553.6666666666667</ele><time>2026-04-25T14:49:52.37Z</time></trkpt><trkpt lat="31.5730917" lon="-7.764765"><ele>553.0</ele><time>2026-04-25T14:49:53.37Z</time></trkpt><trkpt lat="31.5731317" lon="-7.7649683"><ele>553.0</ele><time>2026-04-25T14:49:54.37Z</time></trkpt><trkpt lat="31.57317" lon="-7.76517"><ele>553.0</ele><time>2026-04-25T14:49:55.37Z</time></trkpt><trkpt lat="31.57321" lon="-7.7653717"><ele>553.0</ele><time>2026-04-25T14:49:56.37Z</time></trkpt><trkpt lat="31.5732517" lon="-7.76557"><ele>553.3333333333334</ele><time>2026-04-25T14:49:57.37Z</time></trkpt><trkpt lat="31.5732933" lon="-7.7657667"><ele>553.6666666666666</ele><time>2026-04-25T14:49:58.37Z</time></trkpt><trkpt lat="31.5733383" lon="-7.7659683"><ele>554.0</ele><time>2026-04-25T14:49:59.37Z</time></trkpt><trkpt lat="31.5733833" lon="-7.766165"><ele>554.0</ele><time>2026-04-25T14:50:00.37Z</time></trkpt><trkpt lat="31.573425" lon="-7.7663667"><ele>554.0</ele><time>2026-04-25T14:50:01.37Z</time></trkpt><trkpt lat="31.5734717" lon="-7.7665667"><ele>554.0</ele><time>2026-04-25T14:50:02.37Z</time></trkpt><trkpt lat="31.5735183" lon="-7.7667683"><ele>553.3333333333333</ele><time>2026-04-25T14:50:03.37Z</time></trkpt><trkpt lat="31.57356" lon="-7.7669733"><ele>552.6666666666666</ele><time>2026-04-25T14:50:04.37Z</time></trkpt><trkpt lat="31.57361" lon="-7.7671867"><ele>552.0</ele><time>2026-04-25T14:50:05.371Z</time></trkpt><trkpt lat="31.57366" lon="-7.7674017"><ele>552.0</ele><time>2026-04-25T14:50:06.37Z</time></trkpt><trkpt lat="31.57371" lon="-7.7676183"><ele>552.0</ele><time>2026-04-25T14:50:07.37Z</time></trkpt><trkpt lat="31.5737617" lon="-7.7678383"><ele>552.0</ele><time>2026-04-25T14:50:08.37Z</time></trkpt><trkpt lat="31.57381" lon="-7.76805"><ele>551.3333333333334</ele><time>2026-04-25T14:50:09.37Z</time></trkpt><trkpt lat="31.5738567" lon="-7.7682533"><ele>550.6666666666667</ele><time>2026-04-25T14:50:10.37Z</time></trkpt><trkpt lat="31.5739017" lon="-7.7684517"><ele>550.0</ele><time>2026-04-25T14:50:11.37Z</time></trkpt><trkpt lat="31.5739517" lon="-7.7686433"><ele>550.0</ele><time>2026-04-25T14:50:12.37Z</time></trkpt><trkpt lat="31.5739917" lon="-7.768825"><ele>550.0</ele><time>2026-04-25T14:50:13.371Z</time></trkpt><trkpt lat="31.5740317" lon="-7.7690033"><ele>550.0</ele><time>2026-04-25T14:50:14.37Z</time></trkpt><trkpt lat="31.5740733" lon="-7.7691733"><ele>550.0</ele><time>2026-04-25T14:50:15.37Z</time></trkpt><trkpt lat="31.5741267" lon="-7.7693383"><ele>550.0</ele><time>2026-04-25T14:50:16.37Z</time></trkpt><trkpt lat="31.5741683" lon="-7.7695017"><ele>550.0</ele><time>2026-04-25T14:50:17.37Z</time></trkpt><trkpt lat="31.5742183" lon="-7.76966"><ele>550.0</ele><time>2026-04-25T14:50:18.37Z</time></trkpt><trkpt lat="31.5742633" lon="-7.7698117"><ele>550.25</ele><time>2026-04-25T14:50:19.37Z</time></trkpt><trkpt lat="31.5743033" lon="-7.7699617"><ele>550.5</ele><time>2026-04-25T14:50:20.37Z</time></trkpt><trkpt lat="31.5743383" lon="-7.7701217"><ele>550.75</ele><time>2026-04-25T14:50:21.37Z</time></trkpt><trkpt lat="31.5743667" lon="-7.770295"><ele>551.0</ele><time>2026-04-25T14:50:22.37Z</time></trkpt><trkpt lat="31.574395" lon="-7.7704683"><ele>550.0</ele><time>2026-04-25T14:50:23.37Z</time></trkpt><trkpt lat="31.57443" lon="-7.7706483"><ele>549.0</ele><time>2026-04-25T14:50:24.37Z</time></trkpt><trkpt lat="31.5744683" lon="-7.77083"><ele>548.0</ele><time>2026-04-25T14:50:25.37Z</time></trkpt><trkpt lat="31.5745067" lon="-7.7710167"><ele>548.6666666666666</ele><time>2026-04-25T14:50:26.371Z</time></trkpt><trkpt lat="31.5745483" lon="-7.771205"><ele>549.3333333333334</ele><time>2026-04-25T14:50:27.37Z</time></trkpt><trkpt lat="31.5745867" lon="-7.7713917"><ele>550.0</ele><time>2026-04-25T14:50:28.37Z</time></trkpt><trkpt lat="31.5746283" lon="-7.7715833"><ele>550.0</ele><time>2026-04-25T14:50:29.37Z</time></trkpt><trkpt lat="31.57467" lon="-7.7717767"><ele>550.0</ele><time>2026-04-25T14:50:30.37Z</time></trkpt><trkpt lat="31.57471" lon="-7.77197"><ele>550.0</ele><time>2026-04-25T14:50:31.369Z</time></trkpt><trkpt lat="31.57476" lon="-7.7721683"><ele>549.3333333333334</ele><time>2026-04-25T14:50:32.369Z</time></trkpt><trkpt lat="31.5748067" lon="-7.7723667"><ele>548.6666666666666</ele><time>2026-04-25T14:50:33.369Z</time></trkpt><trkpt lat="31.5748533" lon="-7.7725683"><ele>548.0</ele><time>2026-04-25T14:50:34.37Z</time></trkpt><trkpt lat="31.5749033" lon="-7.7727733"><ele>547.6666666666666</ele><time>2026-04-25T14:50:35.369Z</time></trkpt><trkpt lat="31.5749517" lon="-7.772985"><ele>547.3333333333334</ele><time>2026-04-25T14:50:36.369Z</time></trkpt><trkpt lat="31.5749967" lon="-7.7731967"><ele>547.0</ele><time>2026-04-25T14:50:37.369Z</time></trkpt><trkpt lat="31.5750483" lon="-7.7734083"><ele>547.0</ele><time>2026-04-25T14:50:38.369Z</time></trkpt><trkpt lat="31.575095" lon="-7.77362"><ele>547.0</ele><time>2026-04-25T14:50:39.369Z</time></trkpt><trkpt lat="31.5751433" lon="-7.7738333"><ele>547.0</ele><time>2026-04-25T14:50:40.369Z</time></trkpt><trkpt lat="31.5751867" lon="-7.7740483"><ele>547.0</ele><time>2026-04-25T14:50:41.369Z</time></trkpt><trkpt lat="31.5752417" lon="-7.7742683"><ele>547.0</ele><time>2026-04-25T14:50:42.369Z</time></trkpt><trkpt lat="31.575285" lon="-7.7744833"><ele>547.0</ele><time>2026-04-25T14:50:43.369Z</time></trkpt><trkpt lat="31.57533" lon="-7.7747017"><ele>546.3333333333334</ele><time>2026-04-25T14:50:44.369Z</time></trkpt><trkpt lat="31.5753733" lon="-7.7749183"><ele>545.6666666666666</ele><time>2026-04-25T14:50:45.369Z</time></trkpt><trkpt lat="31.575425" lon="-7.7751417"><ele>545.0</ele><time>2026-04-25T14:50:46.369Z</time></trkpt><trkpt lat="31.5754717" lon="-7.77536"><ele>544.3333333333333</ele><time>2026-04-25T14:50:47.369Z</time></trkpt><trkpt lat="31.5755183" lon="-7.77558"><ele>543.6666666666666</ele><time>2026-04-25T14:50:48.369Z</time></trkpt><trkpt lat="31.5755617" lon="-7.7758"><ele>543.0</ele><time>2026-04-25T14:50:49.369Z</time></trkpt><trkpt lat="31.5756083" lon="-7.7760233"><ele>542.6666666666666</ele><time>2026-04-25T14:50:50.369Z</time></trkpt><trkpt lat="31.5756567" lon="-7.77625"><ele>542.3333333333333</ele><time>2026-04-25T14:50:51.369Z</time></trkpt><trkpt lat="31.575705" lon="-7.776475"><ele>542.0</ele><time>2026-04-25T14:50:52.37Z</time></trkpt><trkpt lat="31.5757517" lon="-7.7766983"><ele>542.0</ele><time>2026-04-25T14:50:53.369Z</time></trkpt><trkpt lat="31.575805" lon="-7.7769117"><ele>542.0</ele><time>2026-04-25T14:50:54.369Z</time></trkpt><trkpt lat="31.5758567" lon="-7.7771217"><ele>542.0</ele><time>2026-04-25T14:50:55.369Z</time></trkpt><trkpt lat="31.575905" lon="-7.777335"><ele>542.0</ele><time>2026-04-25T14:50:56.369Z</time></trkpt><trkpt lat="31.57595" lon="-7.7775583"><ele>542.0</ele><time>2026-04-25T14:50:57.369Z</time></trkpt><trkpt lat="31.5759983" lon="-7.7777817"><ele>542.0</ele><time>2026-04-25T14:50:58.369Z</time></trkpt><trkpt lat="31.5760433" lon="-7.77801"><ele>542.0</ele><time>2026-04-25T14:50:59.369Z</time></trkpt><trkpt lat="31.5760867" lon="-7.778235"><ele>542.0</ele><time>2026-04-25T14:51:00.37Z</time></trkpt><trkpt lat="31.57613" lon="-7.7784617"><ele>542.0</ele><time>2026-04-25T14:51:01.369Z</time></trkpt><trkpt lat="31.576185" lon="-7.7786883"><ele>541.6666666666666</ele><time>2026-04-25T14:51:02.369Z</time></trkpt><trkpt lat="31.5762433" lon="-7.778915"><ele>541.3333333333334</ele><time>2026-04-25T14:51:03.369Z</time></trkpt><trkpt lat="31.5762967" lon="-7.7791383"><ele>541.0</ele><time>2026-04-25T14:51:04.369Z</time></trkpt><trkpt lat="31.5763533" lon="-7.779355"><ele>541.0</ele><time>2026-04-25T14:51:05.369Z</time></trkpt><trkpt lat="31.5764083" lon="-7.7795633"><ele>541.0</ele><time>2026-04-25T14:51:06.369Z</time></trkpt><trkpt lat="31.5764583" lon="-7.77977"><ele>541.0</ele><time>2026-04-25T14:51:07.369Z</time></trkpt><trkpt lat="31.5764983" lon="-7.7799717"><ele>541.0</ele><time>2026-04-25T14:51:08.369Z</time></trkpt><trkpt lat="31.576545" lon="-7.7801767"><ele>541.0</ele><time>2026-04-25T14:51:09.369Z</time></trkpt><trkpt lat="31.57659" lon="-7.780375"><ele>541.0</ele><time>2026-04-25T14:51:10.369Z</time></trkpt><trkpt lat="31.576635" lon="-7.78057"><ele>540.6666666666667</ele><time>2026-04-25T14:51:11.369Z</time></trkpt><trkpt lat="31.5766783" lon="-7.780765"><ele>540.3333333333334</ele><time>2026-04-25T14:51:12.369Z</time></trkpt><trkpt lat="31.576725" lon="-7.78096"><ele>540.0</ele><time>2026-04-25T14:51:13.369Z</time></trkpt><trkpt lat="31.5767667" lon="-7.7811517"><ele>539.3333333333334</ele><time>2026-04-25T14:51:14.369Z</time></trkpt><trkpt lat="31.5768067" lon="-7.781345"><ele>538.6666666666667</ele><time>2026-04-25T14:51:15.369Z</time></trkpt><trkpt lat="31.5768467" lon="-7.7815283"><ele>538.0</ele><time>2026-04-25T14:51:16.369Z</time></trkpt><trkpt lat="31.576885" lon="-7.7817067"><ele>537.6666666666667</ele><time>2026-04-25T14:51:17.369Z</time></trkpt><trkpt lat="31.5769217" lon="-7.7818817"><ele>537.3333333333334</ele><time>2026-04-25T14:51:18.369Z</time></trkpt><trkpt lat="31.5769617" lon="-7.7820567"><ele>537.0</ele><time>2026-04-25T14:51:19.369Z</time></trkpt><trkpt lat="31.5770033" lon="-7.782235"><ele>536.6666666666666</ele><time>2026-04-25T14:51:20.37Z</time></trkpt><trkpt lat="31.577045" lon="-7.7824167"><ele>536.3333333333333</ele><time>2026-04-25T14:51:21.369Z</time></trkpt><trkpt lat="31.5770817" lon="-7.7826083"><ele>536.0</ele><time>2026-04-25T14:51:22.369Z</time></trkpt><trkpt lat="31.5771183" lon="-7.7828"><ele>536.0</ele><time>2026-04-25T14:51:23.37Z</time></trkpt><trkpt lat="31.5771533" lon="-7.7829967"><ele>536.0</ele><time>2026-04-25T14:51:24.369Z</time></trkpt><trkpt lat="31.577195" lon="-7.7831933"><ele>536.0</ele><time>2026-04-25T14:51:25.369Z</time></trkpt><trkpt lat="31.577235" lon="-7.7833917"><ele>536.3333333333333</ele><time>2026-04-25T14:51:26.37Z</time></trkpt><trkpt lat="31.57728" lon="-7.783595"><ele>536.6666666666666</ele><time>2026-04-25T14:51:27.369Z</time></trkpt><trkpt lat="31.5773233" lon="-7.7838033"><ele>537.0</ele><time>2026-04-25T14:51:28.369Z</time></trkpt><trkpt lat="31.577365" lon="-7.7840133"><ele>537.0</ele><time>2026-04-25T14:51:29.369Z</time></trkpt><trkpt lat="31.5774117" lon="-7.7842267"><ele>537.0</ele><time>2026-04-25T14:51:30.369Z</time></trkpt><trkpt lat="31.5774583" lon="-7.7844417"><ele>537.0</ele><time>2026-04-25T14:51:31.369Z</time></trkpt><trkpt lat="31.577505" lon="-7.7846583"><ele>536.6666666666666</ele><time>2026-04-25T14:51:32.369Z</time></trkpt><trkpt lat="31.5775517" lon="-7.784875"><ele>536.3333333333333</ele><time>2026-04-25T14:51:33.369Z</time></trkpt><trkpt lat="31.5775983" lon="-7.7850917"><ele>536.0</ele><time>2026-04-25T14:51:34.369Z</time></trkpt><trkpt lat="31.577645" lon="-7.7853133"><ele>535.6666666666666</ele><time>2026-04-25T14:51:35.369Z</time></trkpt><trkpt lat="31.5776917" lon="-7.7855333"><ele>535.3333333333334</ele><time>2026-04-25T14:51:36.369Z</time></trkpt><trkpt lat="31.5777333" lon="-7.7857483"><ele>535.0</ele><time>2026-04-25T14:51:37.369Z</time></trkpt><trkpt lat="31.5777733" lon="-7.78596"><ele>534.6666666666667</ele><time>2026-04-25T14:51:38.369Z</time></trkpt><trkpt lat="31.57782" lon="-7.7861717"><ele>534.3333333333334</ele><time>2026-04-25T14:51:39.369Z</time></trkpt><trkpt lat="31.5778633" lon="-7.78638"><ele>534.0</ele><time>2026-04-25T14:51:40.369Z</time></trkpt><trkpt lat="31.57791" lon="-7.7865867"><ele>534.0</ele><time>2026-04-25T14:51:41.369Z</time></trkpt><trkpt lat="31.57796" lon="-7.7867883"><ele>534.0</ele><time>2026-04-25T14:51:42.369Z</time></trkpt><trkpt lat="31.5780067" lon="-7.78699"><ele>534.0</ele><time>2026-04-25T14:51:43.369Z</time></trkpt><trkpt lat="31.5780533" lon="-7.787195"><ele>534.0</ele><time>2026-04-25T14:51:44.369Z</time></trkpt><trkpt lat="31.5781" lon="-7.787405"><ele>534.0</ele><time>2026-04-25T14:51:45.369Z</time></trkpt><trkpt lat="31.5781467" lon="-7.78761"><ele>534.0</ele><time>2026-04-25T14:51:46.369Z</time></trkpt><trkpt lat="31.5781933" lon="-7.7878167"><ele>533.3333333333334</ele><time>2026-04-25T14:51:47.369Z</time></trkpt><trkpt lat="31.5782433" lon="-7.78802"><ele>532.6666666666667</ele><time>2026-04-25T14:51:48.369Z</time></trkpt><trkpt lat="31.5783" lon="-7.78822"><ele>532.0</ele><time>2026-04-25T14:51:49.369Z</time></trkpt><trkpt lat="31.5783633" lon="-7.7884167"><ele>531.6666666666667</ele><time>2026-04-25T14:51:50.369Z</time></trkpt><trkpt lat="31.5784333" lon="-7.7886117"><ele>531.3333333333334</ele><time>2026-04-25T14:51:51.369Z</time></trkpt><trkpt lat="31.57851" lon="-7.7888033"><ele>531.0</ele><time>2026-04-25T14:51:52.369Z</time></trkpt><trkpt lat="31.57859" lon="-7.7889933"><ele>531.0</ele><time>2026-04-25T14:51:53.369Z</time></trkpt><trkpt lat="31.5786717" lon="-7.78918"><ele>531.0</ele><time>2026-04-25T14:51:54.369Z</time></trkpt><trkpt lat="31.578765" lon="-7.7893683"><ele>531.0</ele><time>2026-04-25T14:51:55.369Z</time></trkpt><trkpt lat="31.5788633" lon="-7.7895433"><ele>531.3333333333334</ele><time>2026-04-25T14:51:56.369Z</time></trkpt><trkpt lat="31.5789683" lon="-7.7897183"><ele>531.6666666666667</ele><time>2026-04-25T14:51:57.369Z</time></trkpt><trkpt lat="31.5790733" lon="-7.78989"><ele>532.0</ele><time>2026-04-25T14:51:58.369Z</time></trkpt><trkpt lat="31.57919" lon="-7.7900583"><ele>531.6666666666667</ele><time>2026-04-25T14:51:59.369Z</time></trkpt><trkpt lat="31.579305" lon="-7.7902217"><ele>531.3333333333334</ele><time>2026-04-25T14:52:00.369Z</time></trkpt><trkpt lat="31.57942" lon="-7.7903883"><ele>531.0</ele><time>2026-04-25T14:52:01.369Z</time></trkpt><trkpt lat="31.5795367" lon="-7.7905517"><ele>530.6666666666666</ele><time>2026-04-25T14:52:02.369Z</time></trkpt><trkpt lat="31.579655" lon="-7.7907133"><ele>530.3333333333333</ele><time>2026-04-25T14:52:03.369Z</time></trkpt><trkpt lat="31.5797717" lon="-7.7908767"><ele>530.0</ele><time>2026-04-25T14:52:04.369Z</time></trkpt><trkpt lat="31.57989" lon="-7.7910417"><ele>530.0</ele><time>2026-04-25T14:52:05.369Z</time></trkpt><trkpt lat="31.580005" lon="-7.7912067"><ele>530.0</ele><time>2026-04-25T14:52:06.369Z</time></trkpt><trkpt lat="31.58012" lon="-7.7913717"><ele>530.0</ele><time>2026-04-25T14:52:07.369Z</time></trkpt><trkpt lat="31.5802367" lon="-7.7915333"><ele>529.6666666666666</ele><time>2026-04-25T14:52:08.369Z</time></trkpt><trkpt lat="31.5803517" lon="-7.7917"><ele>529.3333333333334</ele><time>2026-04-25T14:52:09.369Z</time></trkpt><trkpt lat="31.5804683" lon="-7.791865"><ele>529.0</ele><time>2026-04-25T14:52:10.369Z</time></trkpt><trkpt lat="31.5805833" lon="-7.7920283"><ele>528.6666666666667</ele><time>2026-04-25T14:52:11.369Z</time></trkpt><trkpt lat="31.5806983" lon="-7.79219"><ele>528.3333333333334</ele><time>2026-04-25T14:52:12.369Z</time></trkpt><trkpt lat="31.5808133" lon="-7.792355"><ele>528.0</ele><time>2026-04-25T14:52:13.369Z</time></trkpt><trkpt lat="31.5809267" lon="-7.79252"><ele>527.6666666666666</ele><time>2026-04-25T14:52:14.369Z</time></trkpt><trkpt lat="31.581035" lon="-7.7926833"><ele>527.3333333333333</ele><time>2026-04-25T14:52:15.37Z</time></trkpt><trkpt lat="31.5811417" lon="-7.79285"><ele>527.0</ele><time>2026-04-25T14:52:16.369Z</time></trkpt><trkpt lat="31.5812567" lon="-7.7930133"><ele>526.6666666666666</ele><time>2026-04-25T14:52:17.369Z</time></trkpt><trkpt lat="31.5813667" lon="-7.79317"><ele>526.3333333333334</ele><time>2026-04-25T14:52:18.369Z</time></trkpt><trkpt lat="31.5814767" lon="-7.79332"><ele>526.0</ele><time>2026-04-25T14:52:19.369Z</time></trkpt><trkpt lat="31.5815783" lon="-7.7934667"><ele>526.25</ele><time>2026-04-25T14:52:20.369Z</time></trkpt><trkpt lat="31.5816817" lon="-7.79361"><ele>526.5</ele><time>2026-04-25T14:52:21.369Z</time></trkpt><trkpt lat="31.58177" lon="-7.7937517"><ele>526.75</ele><time>2026-04-25T14:52:22.369Z</time></trkpt><trkpt lat="31.5818483" lon="-7.79388"><ele>527.0</ele><time>2026-04-25T14:52:23.369Z</time></trkpt><trkpt lat="31.58192" lon="-7.7939967"><ele>527.0</ele><time>2026-04-25T14:52:24.37Z</time></trkpt><trkpt lat="31.5819767" lon="-7.794095"><ele>527.0</ele><time>2026-04-25T14:52:25.369Z</time></trkpt><trkpt lat="31.5820267" lon="-7.7941867"><ele>527.0</ele><time>2026-04-25T14:52:26.369Z</time></trkpt><trkpt lat="31.58207" lon="-7.79428"><ele>527.0</ele><time>2026-04-25T14:52:27.369Z</time></trkpt><trkpt lat="31.5820917" lon="-7.7943817"><ele>527.0</ele><time>2026-04-25T14:52:28.37Z</time></trkpt><trkpt lat="31.582105" lon="-7.7945017"><ele>526.75</ele><time>2026-04-25T14:52:29.369Z</time></trkpt><trkpt lat="31.5821133" lon="-7.7946317"><ele>526.5</ele><time>2026-04-25T14:52:30.369Z</time></trkpt><trkpt lat="31.582115" lon="-7.794775"><ele>526.25</ele><time>2026-04-25T14:52:31.369Z</time></trkpt><trkpt lat="31.5821017" lon="-7.794925"><ele>526.0</ele><time>2026-04-25T14:52:32.369Z</time></trkpt><trkpt lat="31.58208" lon="-7.7950883"><ele>526.0</ele><time>2026-04-25T14:52:33.369Z</time></trkpt><trkpt lat="31.5820533" lon="-7.7952617"><ele>526.0</ele><time>2026-04-25T14:52:34.369Z</time></trkpt><trkpt lat="31.5820133" lon="-7.7954433"><ele>526.0</ele><time>2026-04-25T14:52:35.369Z</time></trkpt><trkpt lat="31.5819667" lon="-7.7956333"><ele>526.0</ele><time>2026-04-25T14:52:36.369Z</time></trkpt><trkpt lat="31.581895" lon="-7.7958133"><ele>526.0</ele><time>2026-04-25T14:52:37.369Z</time></trkpt><trkpt lat="31.5818117" lon="-7.79599"><ele>526.0</ele><time>2026-04-25T14:52:38.369Z</time></trkpt><trkpt lat="31.5817233" lon="-7.79616"><ele>525.0</ele><time>2026-04-25T14:52:39.369Z</time></trkpt><trkpt lat="31.5816317" lon="-7.796315"><ele>524.0</ele><time>2026-04-25T14:52:40.369Z</time></trkpt><trkpt lat="31.5815333" lon="-7.7964517"><ele>523.0</ele><time>2026-04-25T14:52:41.369Z</time></trkpt><trkpt lat="31.5814333" lon="-7.7965833"><ele>523.0</ele><time>2026-04-25T14:52:42.369Z</time></trkpt><trkpt lat="31.5813317" lon="-7.7967167"><ele>523.0</ele><time>2026-04-25T14:52:43.369Z</time></trkpt><trkpt lat="31.5812267" lon="-7.7968567"><ele>523.0</ele><time>2026-04-25T14:52:44.369Z</time></trkpt><trkpt lat="31.58112" lon="-7.7969933"><ele>522.6666666666667</ele><time>2026-04-25T14:52:45.369Z</time></trkpt><trkpt lat="31.5810083" lon="-7.7971333"><ele>522.3333333333334</ele><time>2026-04-25T14:52:46.369Z</time></trkpt><trkpt lat="31.5808983" lon="-7.797275"><ele>522.0</ele><time>2026-04-25T14:52:47.369Z</time></trkpt><trkpt lat="31.5807833" lon="-7.7974167"><ele>522.0</ele><time>2026-04-25T14:52:48.369Z</time></trkpt><trkpt lat="31.5806617" lon="-7.7975633"><ele>522.0</ele><time>2026-04-25T14:52:49.369Z</time></trkpt><trkpt lat="31.58054" lon="-7.7977117"><ele>522.0</ele><time>2026-04-25T14:52:50.369Z</time></trkpt><trkpt lat="31.58041" lon="-7.7978667"><ele>523.0</ele><time>2026-04-25T14:52:51.369Z</time></trkpt><trkpt lat="31.5802783" lon="-7.7980167"><ele>524.0</ele><time>2026-04-25T14:52:52.369Z</time></trkpt><trkpt lat="31.5801483" lon="-7.7981767"><ele>525.0</ele><time>2026-04-25T14:52:53.369Z</time></trkpt><trkpt lat="31.5800167" lon="-7.7983333"><ele>525.0</ele><time>2026-04-25T14:52:54.369Z</time></trkpt><trkpt lat="31.5798833" lon="-7.798495"><ele>525.0</ele><time>2026-04-25T14:52:55.369Z</time></trkpt><trkpt lat="31.5797517" lon="-7.798655"><ele>525.0</ele><time>2026-04-25T14:52:56.369Z</time></trkpt><trkpt lat="31.5796217" lon="-7.7988183"><ele>525.3333333333334</ele><time>2026-04-25T14:52:57.369Z</time></trkpt><trkpt lat="31.5795033" lon="-7.798975"><ele>525.6666666666667</ele><time>2026-04-25T14:52:58.369Z</time></trkpt><trkpt lat="31.5793933" lon="-7.7991333"><ele>526.0</ele><time>2026-04-25T14:52:59.369Z</time></trkpt><trkpt lat="31.5792917" lon="-7.7992917"><ele>525.3333333333334</ele><time>2026-04-25T14:53:00.369Z</time></trkpt><trkpt lat="31.5792033" lon="-7.799455"><ele>524.6666666666666</ele><time>2026-04-25T14:53:01.369Z</time></trkpt><trkpt lat="31.5791233" lon="-7.79961"><ele>524.0</ele><time>2026-04-25T14:53:02.369Z</time></trkpt><trkpt lat="31.5790533" lon="-7.79976"><ele>524.0</ele><time>2026-04-25T14:53:03.369Z</time></trkpt><trkpt lat="31.5789883" lon="-7.79991"><ele>524.0</ele><time>2026-04-25T14:53:04.369Z</time></trkpt><trkpt lat="31.5789333" lon="-7.8000617"><ele>524.0</ele><time>2026-04-25T14:53:05.369Z</time></trkpt><trkpt lat="31.5788867" lon="-7.8002067"><ele>524.0</ele><time>2026-04-25T14:53:06.369Z</time></trkpt><trkpt lat="31.5788433" lon="-7.80035"><ele>524.0</ele><time>2026-04-25T14:53:07.369Z</time></trkpt><trkpt lat="31.5788067" lon="-7.8004867"><ele>524.0</ele><time>2026-04-25T14:53:08.369Z</time></trkpt><trkpt lat="31.578775" lon="-7.8006233"><ele>524.0</ele><time>2026-04-25T14:53:09.369Z</time></trkpt><trkpt lat="31.5787483" lon="-7.80075"><ele>524.0</ele><time>2026-04-25T14:53:10.369Z</time></trkpt><trkpt lat="31.5787267" lon="-7.8008633"><ele>524.0</ele><time>2026-04-25T14:53:11.369Z</time></trkpt><trkpt lat="31.5787167" lon="-7.80097"><ele>524.0</ele><time>2026-04-25T14:53:12.369Z</time></trkpt><trkpt lat="31.5787033" lon="-7.8010567"><ele>524.0</ele><time>2026-04-25T14:53:13.369Z</time></trkpt><trkpt lat="31.5786867" lon="-7.80116"><ele>524.0</ele><time>2026-04-25T14:53:15.369Z</time></trkpt><trkpt lat="31.5786733" lon="-7.8012717"><ele>524.0</ele><time>2026-04-25T14:53:17.369Z</time></trkpt><trkpt lat="31.5786633" lon="-7.8013533"><ele>524.0</ele><time>2026-04-25T14:53:18.369Z</time></trkpt><trkpt lat="31.5786533" lon="-7.80145"><ele>525.0</ele><time>2026-04-25T14:53:19.369Z</time></trkpt><trkpt lat="31.5786433" lon="-7.8015633"><ele>526.0</ele><time>2026-04-25T14:53:20.369Z</time></trkpt><trkpt lat="31.5786367" lon="-7.8016917"><ele>527.0</ele><time>2026-04-25T14:53:21.369Z</time></trkpt><trkpt lat="31.578635" lon="-7.801835"><ele>528.0</ele><time>2026-04-25T14:53:22.369Z</time></trkpt><trkpt lat="31.5786383" lon="-7.8019933"><ele>528.0</ele><time>2026-04-25T14:53:23.369Z</time></trkpt><trkpt lat="31.578635" lon="-7.8021567"><ele>528.0</ele><time>2026-04-25T14:53:24.369Z</time></trkpt><trkpt lat="31.5786367" lon="-7.8023283"><ele>528.0</ele><time>2026-04-25T14:53:25.369Z</time></trkpt><trkpt lat="31.5786467" lon="-7.80251"><ele>528.0</ele><time>2026-04-25T14:53:26.369Z</time></trkpt><trkpt lat="31.57866" lon="-7.8027"><ele>527.6666666666666</ele><time>2026-04-25T14:53:27.369Z</time></trkpt><trkpt lat="31.5786633" lon="-7.8029"><ele>527.3333333333333</ele><time>2026-04-25T14:53:28.369Z</time></trkpt><trkpt lat="31.5786583" lon="-7.8031"><ele>527.0</ele><time>2026-04-25T14:53:29.369Z</time></trkpt><trkpt lat="31.5786583" lon="-7.8032933"><ele>527.0</ele><time>2026-04-25T14:53:30.369Z</time></trkpt><trkpt lat="31.5786567" lon="-7.8034783"><ele>527.0</ele><time>2026-04-25T14:53:31.369Z</time></trkpt><trkpt lat="31.578655" lon="-7.8036567"><ele>527.0</ele><time>2026-04-25T14:53:32.369Z</time></trkpt><trkpt lat="31.5786533" lon="-7.8038433"><ele>527.3333333333333</ele><time>2026-04-25T14:53:33.369Z</time></trkpt><trkpt lat="31.578655" lon="-7.804035"><ele>527.6666666666666</ele><time>2026-04-25T14:53:34.369Z</time></trkpt><trkpt lat="31.5786417" lon="-7.8042233"><ele>528.0</ele><time>2026-04-25T14:53:35.369Z</time></trkpt><trkpt lat="31.5786317" lon="-7.804405"><ele>528.0</ele><time>2026-04-25T14:53:36.369Z</time></trkpt><trkpt lat="31.5786217" lon="-7.80458"><ele>528.0</ele><time>2026-04-25T14:53:37.37Z</time></trkpt><trkpt lat="31.578615" lon="-7.8047483"><ele>528.0</ele><time>2026-04-25T14:53:38.369Z</time></trkpt><trkpt lat="31.578615" lon="-7.8049267"><ele>528.0</ele><time>2026-04-25T14:53:39.369Z</time></trkpt><trkpt lat="31.5786217" lon="-7.8050967"><ele>528.0</ele><time>2026-04-25T14:53:40.369Z</time></trkpt><trkpt lat="31.5786267" lon="-7.80526"><ele>528.0</ele><time>2026-04-25T14:53:41.369Z</time></trkpt><trkpt lat="31.5786283" lon="-7.80542"><ele>528.0</ele><time>2026-04-25T14:53:42.369Z</time></trkpt><trkpt lat="31.5786383" lon="-7.8055783"><ele>528.0</ele><time>2026-04-25T14:53:43.369Z</time></trkpt><trkpt lat="31.57865" lon="-7.8057283"><ele>528.0</ele><time>2026-04-25T14:53:44.369Z</time></trkpt><trkpt lat="31.5786467" lon="-7.8058717"><ele>528.0</ele><time>2026-04-25T14:53:45.369Z</time></trkpt><trkpt lat="31.5786267" lon="-7.806015"><ele>528.0</ele><time>2026-04-25T14:53:46.369Z</time></trkpt><trkpt lat="31.5786" lon="-7.8061667"><ele>528.0</ele><time>2026-04-25T14:53:47.369Z</time></trkpt><trkpt lat="31.5785633" lon="-7.80632"><ele>527.75</ele><time>2026-04-25T14:53:48.369Z</time></trkpt><trkpt lat="31.57853" lon="-7.80648"><ele>527.5</ele><time>2026-04-25T14:53:49.369Z</time></trkpt><trkpt lat="31.5784967" lon="-7.806645"><ele>527.25</ele><time>2026-04-25T14:53:50.369Z</time></trkpt><trkpt lat="31.578465" lon="-7.8068183"><ele>527.0</ele><time>2026-04-25T14:53:51.369Z</time></trkpt><trkpt lat="31.578435" lon="-7.8070017"><ele>527.0</ele><time>2026-04-25T14:53:52.369Z</time></trkpt><trkpt lat="31.5783967" lon="-7.80717"><ele>527.0</ele><time>2026-04-25T14:53:53.369Z</time></trkpt><trkpt lat="31.5783583" lon="-7.8073333"><ele>527.0</ele><time>2026-04-25T14:53:54.369Z</time></trkpt><trkpt lat="31.57832" lon="-7.8074983"><ele>527.0</ele><time>2026-04-25T14:53:55.369Z</time></trkpt><trkpt lat="31.57827" lon="-7.8076617"><ele>526.75</ele><time>2026-04-25T14:53:56.369Z</time></trkpt><trkpt lat="31.5782133" lon="-7.8078233"><ele>526.5</ele><time>2026-04-25T14:53:57.369Z</time></trkpt><trkpt lat="31.578155" lon="-7.8079817"><ele>526.25</ele><time>2026-04-25T14:53:58.369Z</time></trkpt><trkpt lat="31.5780933" lon="-7.808145"><ele>526.0</ele><time>2026-04-25T14:53:59.369Z</time></trkpt><trkpt lat="31.5780317" lon="-7.8083117"><ele>526.0</ele><time>2026-04-25T14:54:00.369Z</time></trkpt><trkpt lat="31.57797" lon="-7.8084833"><ele>526.0</ele><time>2026-04-25T14:54:01.369Z</time></trkpt><trkpt lat="31.5779083" lon="-7.8086567"><ele>526.0</ele><time>2026-04-25T14:54:02.369Z</time></trkpt><trkpt lat="31.5778517" lon="-7.80884"><ele>526.3333333333334</ele><time>2026-04-25T14:54:03.369Z</time></trkpt><trkpt lat="31.5777983" lon="-7.8090117"><ele>526.6666666666666</ele><time>2026-04-25T14:54:04.369Z</time></trkpt><trkpt lat="31.57775" lon="-7.8091867"><ele>527.0</ele><time>2026-04-25T14:54:05.369Z</time></trkpt><trkpt lat="31.5777167" lon="-7.8093617"><ele>527.0</ele><time>2026-04-25T14:54:06.369Z</time></trkpt><trkpt lat="31.57768" lon="-7.8095317"><ele>527.0</ele><time>2026-04-25T14:54:07.369Z</time></trkpt><trkpt lat="31.5776417" lon="-7.809705"><ele>527.0</ele><time>2026-04-25T14:54:08.369Z</time></trkpt><trkpt lat="31.5776033" lon="-7.809885"><ele>527.0</ele><time>2026-04-25T14:54:09.369Z</time></trkpt><trkpt lat="31.5775667" lon="-7.8100567"><ele>527.0</ele><time>2026-04-25T14:54:10.369Z</time></trkpt><trkpt lat="31.5775317" lon="-7.810225"><ele>527.0</ele><time>2026-04-25T14:54:11.369Z</time></trkpt><trkpt lat="31.577495" lon="-7.8103917"><ele>527.0</ele><time>2026-04-25T14:54:12.369Z</time></trkpt><trkpt lat="31.5774617" lon="-7.810565"><ele>527.0</ele><time>2026-04-25T14:54:13.369Z</time></trkpt><trkpt lat="31.577425" lon="-7.8107333"><ele>527.0</ele><time>2026-04-25T14:54:14.369Z</time></trkpt><trkpt lat="31.57739" lon="-7.8109017"><ele>527.0</ele><time>2026-04-25T14:54:15.37Z</time></trkpt><trkpt lat="31.5773533" lon="-7.811075"><ele>527.0</ele><time>2026-04-25T14:54:16.369Z</time></trkpt><trkpt lat="31.5773167" lon="-7.8112483"><ele>526.75</ele><time>2026-04-25T14:54:17.369Z</time></trkpt><trkpt lat="31.5772733" lon="-7.8114033"><ele>526.5</ele><time>2026-04-25T14:54:18.369Z</time></trkpt><trkpt lat="31.5772217" lon="-7.8115517"><ele>526.25</ele><time>2026-04-25T14:54:19.37Z</time></trkpt><trkpt lat="31.5771717" lon="-7.81169"><ele>526.0</ele><time>2026-04-25T14:54:20.369Z</time></trkpt><trkpt lat="31.5771217" lon="-7.811825"><ele>526.0</ele><time>2026-04-25T14:54:21.369Z</time></trkpt><trkpt lat="31.5770767" lon="-7.81196"><ele>526.0</ele><time>2026-04-25T14:54:22.369Z</time></trkpt><trkpt lat="31.57703" lon="-7.8120767"><ele>526.0</ele><time>2026-04-25T14:54:23.369Z</time></trkpt><trkpt lat="31.5769883" lon="-7.8121833"><ele>526.0</ele><time>2026-04-25T14:54:24.369Z</time></trkpt><trkpt lat="31.57695" lon="-7.8122783"><ele>526.0</ele><time>2026-04-25T14:54:25.369Z</time></trkpt><trkpt lat="31.5769167" lon="-7.8123683"><ele>526.0</ele><time>2026-04-25T14:54:26.369Z</time></trkpt><trkpt lat="31.5768883" lon="-7.8124567"><ele>526.0</ele><time>2026-04-25T14:54:27.369Z</time></trkpt><trkpt lat="31.5768633" lon="-7.8125333"><ele>526.0</ele><time>2026-04-25T14:54:28.369Z</time></trkpt><trkpt lat="31.5768133" lon="-7.8126383"><ele>526.0</ele><time>2026-04-25T14:54:30.369Z</time></trkpt><trkpt lat="31.5767583" lon="-7.812745"><ele>526.0</ele><time>2026-04-25T14:54:32.369Z</time></trkpt><trkpt lat="31.57673" lon="-7.8128133"><ele>526.0</ele><time>2026-04-25T14:54:33.369Z</time></trkpt><trkpt lat="31.576695" lon="-7.8128833"><ele>526.0</ele><time>2026-04-25T14:54:34.369Z</time></trkpt><trkpt lat="31.576665" lon="-7.812955"><ele>526.0</ele><time>2026-04-25T14:54:35.369Z</time></trkpt><trkpt lat="31.5766367" lon="-7.8130317"><ele>526.0</ele><time>2026-04-25T14:54:36.369Z</time></trkpt><trkpt lat="31.5766067" lon="-7.81311"><ele>526.0</ele><time>2026-04-25T14:54:37.369Z</time></trkpt><trkpt lat="31.57658" lon="-7.8131933"><ele>526.0</ele><time>2026-04-25T14:54:38.369Z</time></trkpt><trkpt lat="31.5765517" lon="-7.8132683"><ele>526.0</ele><time>2026-04-25T14:54:39.369Z</time></trkpt><trkpt lat="31.5765317" lon="-7.813345"><ele>526.0</ele><time>2026-04-25T14:54:40.369Z</time></trkpt><trkpt lat="31.576515" lon="-7.8134783"><ele>525.75</ele><time>2026-04-25T14:54:42.369Z</time></trkpt><trkpt lat="31.5765067" lon="-7.8136183"><ele>525.5</ele><time>2026-04-25T14:54:44.369Z</time></trkpt><trkpt lat="31.5765167" lon="-7.8137533"><ele>525.25</ele><time>2026-04-25T14:54:46.369Z</time></trkpt><trkpt lat="31.5764983" lon="-7.81389"><ele>525.0</ele><time>2026-04-25T14:54:48.369Z</time></trkpt><trkpt lat="31.5764433" lon="-7.8140167"><ele>525.0</ele><time>2026-04-25T14:54:50.369Z</time></trkpt><trkpt lat="31.5764167" lon="-7.8140867"><ele>525.0</ele><time>2026-04-25T14:54:51.369Z</time></trkpt><trkpt lat="31.5763867" lon="-7.814235"><ele>525.0</ele><time>2026-04-25T14:54:53.369Z</time></trkpt><trkpt lat="31.5763767" lon="-7.8143217"><ele>525.0</ele><time>2026-04-25T14:54:54.369Z</time></trkpt><trkpt lat="31.5763783" lon="-7.814425"><ele>525.0</ele><time>2026-04-25T14:54:55.369Z</time></trkpt><trkpt lat="31.576395" lon="-7.8145383"><ele>525.0</ele><time>2026-04-25T14:54:56.369Z</time></trkpt><trkpt lat="31.5764083" lon="-7.8146667"><ele>525.0</ele><time>2026-04-25T14:54:57.369Z</time></trkpt><trkpt lat="31.576425" lon="-7.8148117"><ele>525.0</ele><time>2026-04-25T14:54:58.37Z</time></trkpt><trkpt lat="31.5764433" lon="-7.814965"><ele>525.0</ele><time>2026-04-25T14:54:59.369Z</time></trkpt><trkpt lat="31.5764683" lon="-7.8151317"><ele>525.0</ele><time>2026-04-25T14:55:00.369Z</time></trkpt><trkpt lat="31.5764833" lon="-7.81531"><ele>525.0</ele><time>2026-04-25T14:55:01.369Z</time></trkpt><trkpt lat="31.5765017" lon="-7.8154933"><ele>525.0</ele><time>2026-04-25T14:55:02.369Z</time></trkpt><trkpt lat="31.5765283" lon="-7.8156783"><ele>525.0</ele><time>2026-04-25T14:55:03.369Z</time></trkpt><trkpt lat="31.5765617" lon="-7.8158717"><ele>525.0</ele><time>2026-04-25T14:55:04.369Z</time></trkpt><trkpt lat="31.576605" lon="-7.81607"><ele>525.0</ele><time>2026-04-25T14:55:05.369Z</time></trkpt><trkpt lat="31.576655" lon="-7.816275"><ele>525.0</ele><time>2026-04-25T14:55:06.369Z</time></trkpt><trkpt lat="31.5767117" lon="-7.81648"><ele>525.0</ele><time>2026-04-25T14:55:07.369Z</time></trkpt><trkpt lat="31.57677" lon="-7.8166833"><ele>525.0</ele><time>2026-04-25T14:55:08.369Z</time></trkpt><trkpt lat="31.5768383" lon="-7.8168917"><ele>525.0</ele><time>2026-04-25T14:55:09.369Z</time></trkpt><trkpt lat="31.5769017" lon="-7.817095"><ele>525.0</ele><time>2026-04-25T14:55:10.369Z</time></trkpt><trkpt lat="31.576955" lon="-7.8172867"><ele>525.0</ele><time>2026-04-25T14:55:11.369Z</time></trkpt><trkpt lat="31.5770067" lon="-7.8174817"><ele>525.0</ele><time>2026-04-25T14:55:12.369Z</time></trkpt><trkpt lat="31.577055" lon="-7.8176767"><ele>525.0</ele><time>2026-04-25T14:55:13.369Z</time></trkpt><trkpt lat="31.577095" lon="-7.8178767"><ele>525.0</ele><time>2026-04-25T14:55:14.369Z</time></trkpt><trkpt lat="31.577135" lon="-7.81807"><ele>525.0</ele><time>2026-04-25T14:55:15.369Z</time></trkpt><trkpt lat="31.5771733" lon="-7.81826"><ele>525.0</ele><time>2026-04-25T14:55:16.369Z</time></trkpt><trkpt lat="31.57722" lon="-7.8184417"><ele>525.0</ele><time>2026-04-25T14:55:17.369Z</time></trkpt><trkpt lat="31.5772633" lon="-7.8186167"><ele>525.0</ele><time>2026-04-25T14:55:18.369Z</time></trkpt><trkpt lat="31.5773" lon="-7.818785"><ele>525.0</ele><time>2026-04-25T14:55:19.369Z</time></trkpt><trkpt lat="31.5773333" lon="-7.8189483"><ele>525.0</ele><time>2026-04-25T14:55:20.369Z</time></trkpt><trkpt lat="31.5773583" lon="-7.8191017"><ele>525.0</ele><time>2026-04-25T14:55:21.369Z</time></trkpt><trkpt lat="31.5773867" lon="-7.8192467"><ele>524.75</ele><time>2026-04-25T14:55:22.369Z</time></trkpt><trkpt lat="31.5774233" lon="-7.8193917"><ele>524.5</ele><time>2026-04-25T14:55:23.369Z</time></trkpt><trkpt lat="31.5774583" lon="-7.8195333"><ele>524.25</ele><time>2026-04-25T14:55:24.369Z</time></trkpt><trkpt lat="31.5774967" lon="-7.8196783"><ele>524.0</ele><time>2026-04-25T14:55:25.369Z</time></trkpt><trkpt lat="31.57753" lon="-7.8198467"><ele>524.0</ele><time>2026-04-25T14:55:26.369Z</time></trkpt><trkpt lat="31.577565" lon="-7.8200183"><ele>524.0</ele><time>2026-04-25T14:55:27.369Z</time></trkpt><trkpt lat="31.5775883" lon="-7.8202017"><ele>524.0</ele><time>2026-04-25T14:55:28.369Z</time></trkpt><trkpt lat="31.577605" lon="-7.8203917"><ele>524.3333333333333</ele><time>2026-04-25T14:55:29.369Z</time></trkpt><trkpt lat="31.5776083" lon="-7.820585"><ele>524.6666666666666</ele><time>2026-04-25T14:55:30.369Z</time></trkpt><trkpt lat="31.5776083" lon="-7.8207933"><ele>525.0</ele><time>2026-04-25T14:55:31.369Z</time></trkpt><trkpt lat="31.5775983" lon="-7.821"><ele>524.0</ele><time>2026-04-25T14:55:32.369Z</time></trkpt><trkpt lat="31.57759" lon="-7.8212067"><ele>523.0</ele><time>2026-04-25T14:55:33.369Z</time></trkpt><trkpt lat="31.57758" lon="-7.8214083"><ele>522.0</ele><time>2026-04-25T14:55:34.369Z</time></trkpt><trkpt lat="31.57757" lon="-7.8215983"><ele>522.0</ele><time>2026-04-25T14:55:35.369Z</time></trkpt><trkpt lat="31.5775567" lon="-7.8217833"><ele>522.0</ele><time>2026-04-25T14:55:36.369Z</time></trkpt><trkpt lat="31.5775467" lon="-7.8219583"><ele>522.0</ele><time>2026-04-25T14:55:37.369Z</time></trkpt><trkpt lat="31.577535" lon="-7.8221317"><ele>522.0</ele><time>2026-04-25T14:55:38.369Z</time></trkpt><trkpt lat="31.5775283" lon="-7.8223017"><ele>522.0</ele><time>2026-04-25T14:55:39.37Z</time></trkpt><trkpt lat="31.5775183" lon="-7.8224733"><ele>522.0</ele><time>2026-04-25T14:55:40.369Z</time></trkpt><trkpt lat="31.577505" lon="-7.822645"><ele>522.0</ele><time>2026-04-25T14:55:41.369Z</time></trkpt><trkpt lat="31.5774967" lon="-7.8228233"><ele>522.0</ele><time>2026-04-25T14:55:42.369Z</time></trkpt><trkpt lat="31.5774833" lon="-7.8229983"><ele>522.0</ele><time>2026-04-25T14:55:43.369Z</time></trkpt><trkpt lat="31.5774717" lon="-7.8231767"><ele>522.0</ele><time>2026-04-25T14:55:44.369Z</time></trkpt><trkpt lat="31.5774617" lon="-7.8233533"><ele>522.0</ele><time>2026-04-25T14:55:45.369Z</time></trkpt><trkpt lat="31.57745" lon="-7.8235333"><ele>522.0</ele><time>2026-04-25T14:55:46.369Z</time></trkpt><trkpt lat="31.57744" lon="-7.8237167"><ele>522.0</ele><time>2026-04-25T14:55:47.369Z</time></trkpt><trkpt lat="31.57743" lon="-7.8239017"><ele>522.0</ele><time>2026-04-25T14:55:48.369Z</time></trkpt><trkpt lat="31.5774167" lon="-7.82408"><ele>522.0</ele><time>2026-04-25T14:55:49.369Z</time></trkpt><trkpt lat="31.5774" lon="-7.8242567"><ele>522.0</ele><time>2026-04-25T14:55:50.369Z</time></trkpt><trkpt lat="31.577395" lon="-7.8244383"><ele>521.6666666666666</ele><time>2026-04-25T14:55:51.369Z</time></trkpt><trkpt lat="31.57739" lon="-7.8246217"><ele>521.3333333333333</ele><time>2026-04-25T14:55:52.369Z</time></trkpt><trkpt lat="31.5773817" lon="-7.8248017"><ele>521.0</ele><time>2026-04-25T14:55:53.37Z</time></trkpt><trkpt lat="31.5773733" lon="-7.82498"><ele>521.3333333333333</ele><time>2026-04-25T14:55:54.369Z</time></trkpt><trkpt lat="31.5773667" lon="-7.8251583"><ele>521.6666666666666</ele><time>2026-04-25T14:55:55.369Z</time></trkpt><trkpt lat="31.5773617" lon="-7.8253367"><ele>522.0</ele><time>2026-04-25T14:55:56.369Z</time></trkpt><trkpt lat="31.5773617" lon="-7.8255167"><ele>522.0</ele><time>2026-04-25T14:55:57.369Z</time></trkpt><trkpt lat="31.5773583" lon="-7.825695"><ele>522.0</ele><time>2026-04-25T14:55:58.369Z</time></trkpt><trkpt lat="31.5773517" lon="-7.8258733"><ele>522.0</ele><time>2026-04-25T14:55:59.369Z</time></trkpt><trkpt lat="31.5773433" lon="-7.8260483"><ele>522.0</ele><time>2026-04-25T14:56:00.37Z</time></trkpt><trkpt lat="31.5773417" lon="-7.826235"><ele>522.0</ele><time>2026-04-25T14:56:01.369Z</time></trkpt><trkpt lat="31.5773383" lon="-7.8264167"><ele>522.0</ele><time>2026-04-25T14:56:02.369Z</time></trkpt><trkpt lat="31.5773383" lon="-7.8265983"><ele>522.0</ele><time>2026-04-25T14:56:03.369Z</time></trkpt><trkpt lat="31.5773417" lon="-7.826785"><ele>522.0</ele><time>2026-04-25T14:56:04.37Z</time></trkpt><trkpt lat="31.5773367" lon="-7.8269733"><ele>522.0</ele><time>2026-04-25T14:56:05.369Z</time></trkpt><trkpt lat="31.5773383" lon="-7.8271667"><ele>522.0</ele><time>2026-04-25T14:56:06.369Z</time></trkpt><trkpt lat="31.577335" lon="-7.8273617"><ele>522.0</ele><time>2026-04-25T14:56:07.369Z</time></trkpt><trkpt lat="31.5773333" lon="-7.8275567"><ele>522.0</ele><time>2026-04-25T14:56:08.369Z</time></trkpt><trkpt lat="31.5773267" lon="-7.8277483"><ele>521.3333333333334</ele><time>2026-04-25T14:56:09.369Z</time></trkpt><trkpt lat="31.5773183" lon="-7.82794"><ele>520.6666666666667</ele><time>2026-04-25T14:56:10.369Z</time></trkpt><trkpt lat="31.5773133" lon="-7.8281317"><ele>520.0</ele><time>2026-04-25T14:56:11.369Z</time></trkpt><trkpt lat="31.5773017" lon="-7.828325"><ele>520.0</ele><time>2026-04-25T14:56:12.369Z</time></trkpt><trkpt lat="31.5772933" lon="-7.82852"><ele>520.0</ele><time>2026-04-25T14:56:13.369Z</time></trkpt><trkpt lat="31.5772867" lon="-7.828715"><ele>520.0</ele><time>2026-04-25T14:56:14.369Z</time></trkpt><trkpt lat="31.5772833" lon="-7.8289033"><ele>520.0</ele><time>2026-04-25T14:56:15.369Z</time></trkpt><trkpt lat="31.57728" lon="-7.8290867"><ele>520.0</ele><time>2026-04-25T14:56:16.369Z</time></trkpt><trkpt lat="31.5772733" lon="-7.8292717"><ele>520.0</ele><time>2026-04-25T14:56:17.369Z</time></trkpt><trkpt lat="31.5772733" lon="-7.8294633"><ele>520.0</ele><time>2026-04-25T14:56:18.369Z</time></trkpt><trkpt lat="31.5772733" lon="-7.82966"><ele>520.0</ele><time>2026-04-25T14:56:19.369Z</time></trkpt><trkpt lat="31.57727" lon="-7.829855"><ele>520.0</ele><time>2026-04-25T14:56:20.369Z</time></trkpt><trkpt lat="31.57726" lon="-7.830055"><ele>520.6666666666667</ele><time>2026-04-25T14:56:21.369Z</time></trkpt><trkpt lat="31.5772533" lon="-7.830255"><ele>521.3333333333334</ele><time>2026-04-25T14:56:22.369Z</time></trkpt><trkpt lat="31.5772467" lon="-7.83046"><ele>522.0</ele><time>2026-04-25T14:56:23.37Z</time></trkpt><trkpt lat="31.5772367" lon="-7.8306667"><ele>522.0</ele><time>2026-04-25T14:56:24.369Z</time></trkpt><trkpt lat="31.57723" lon="-7.830875"><ele>522.0</ele><time>2026-04-25T14:56:25.369Z</time></trkpt><trkpt lat="31.577225" lon="-7.831085"><ele>522.0</ele><time>2026-04-25T14:56:26.369Z</time></trkpt><trkpt lat="31.577215" lon="-7.8312967"><ele>521.6666666666666</ele><time>2026-04-25T14:56:27.369Z</time></trkpt><trkpt lat="31.577205" lon="-7.831515"><ele>521.3333333333333</ele><time>2026-04-25T14:56:28.369Z</time></trkpt><trkpt lat="31.57719" lon="-7.83173"><ele>521.0</ele><time>2026-04-25T14:56:29.369Z</time></trkpt><trkpt lat="31.5771767" lon="-7.8319533"><ele>520.3333333333333</ele><time>2026-04-25T14:56:30.369Z</time></trkpt><trkpt lat="31.5771517" lon="-7.8321717"><ele>519.6666666666666</ele><time>2026-04-25T14:56:31.37Z</time></trkpt><trkpt lat="31.5771283" lon="-7.8323933"><ele>519.0</ele><time>2026-04-25T14:56:32.369Z</time></trkpt><trkpt lat="31.5770967" lon="-7.8326133"><ele>519.0</ele><time>2026-04-25T14:56:33.37Z</time></trkpt><trkpt lat="31.5770617" lon="-7.8328383"><ele>519.0</ele><time>2026-04-25T14:56:34.369Z</time></trkpt><trkpt lat="31.5770283" lon="-7.833065"><ele>519.0</ele><time>2026-04-25T14:56:35.369Z</time></trkpt><trkpt lat="31.5769933" lon="-7.8332883"><ele>519.0</ele><time>2026-04-25T14:56:36.369Z</time></trkpt><trkpt lat="31.5769533" lon="-7.8335067"><ele>519.0</ele><time>2026-04-25T14:56:37.369Z</time></trkpt><trkpt lat="31.5769133" lon="-7.83372"><ele>519.0</ele><time>2026-04-25T14:56:38.369Z</time></trkpt><trkpt lat="31.57688" lon="-7.8339333"><ele>519.0</ele><time>2026-04-25T14:56:39.369Z</time></trkpt><trkpt lat="31.57684" lon="-7.834135"><ele>519.0</ele><time>2026-04-25T14:56:40.369Z</time></trkpt><trkpt lat="31.5768033" lon="-7.8343433"><ele>519.0</ele><time>2026-04-25T14:56:41.37Z</time></trkpt><trkpt lat="31.576775" lon="-7.83455"><ele>519.3333333333334</ele><time>2026-04-25T14:56:42.369Z</time></trkpt><trkpt lat="31.5767383" lon="-7.8347567"><ele>519.6666666666667</ele><time>2026-04-25T14:56:43.369Z</time></trkpt><trkpt lat="31.5767083" lon="-7.8349517"><ele>520.0</ele><time>2026-04-25T14:56:44.369Z</time></trkpt><trkpt lat="31.5766717" lon="-7.83514"><ele>520.0</ele><time>2026-04-25T14:56:45.369Z</time></trkpt><trkpt lat="31.5766317" lon="-7.8353217"><ele>520.0</ele><time>2026-04-25T14:56:46.369Z</time></trkpt><trkpt lat="31.5765967" lon="-7.8355067"><ele>520.0</ele><time>2026-04-25T14:56:47.369Z</time></trkpt><trkpt lat="31.5765567" lon="-7.83569"><ele>520.0</ele><time>2026-04-25T14:56:48.369Z</time></trkpt><trkpt lat="31.5765217" lon="-7.83588"><ele>520.0</ele><time>2026-04-25T14:56:49.37Z</time></trkpt><trkpt lat="31.5764867" lon="-7.8360717"><ele>520.0</ele><time>2026-04-25T14:56:50.369Z</time></trkpt><trkpt lat="31.5764567" lon="-7.8362683"><ele>519.6666666666667</ele><time>2026-04-25T14:56:51.369Z</time></trkpt><trkpt lat="31.5764217" lon="-7.8364667"><ele>519.3333333333334</ele><time>2026-04-25T14:56:52.369Z</time></trkpt><trkpt lat="31.5763833" lon="-7.8366633"><ele>519.0</ele><time>2026-04-25T14:56:53.369Z</time></trkpt><trkpt lat="31.5763583" lon="-7.8368667"><ele>519.0</ele><time>2026-04-25T14:56:54.369Z</time></trkpt><trkpt lat="31.5763233" lon="-7.8370683"><ele>519.0</ele><time>2026-04-25T14:56:55.369Z</time></trkpt><trkpt lat="31.5762867" lon="-7.83727"><ele>519.0</ele><time>2026-04-25T14:56:56.369Z</time></trkpt><trkpt lat="31.576255" lon="-7.8374683"><ele>519.0</ele><time>2026-04-25T14:56:57.369Z</time></trkpt><trkpt lat="31.5762267" lon="-7.837675"><ele>519.0</ele><time>2026-04-25T14:56:58.369Z</time></trkpt><trkpt lat="31.5761933" lon="-7.8378817"><ele>519.0</ele><time>2026-04-25T14:56:59.369Z</time></trkpt><trkpt lat="31.5761583" lon="-7.8380867"><ele>519.3333333333334</ele><time>2026-04-25T14:57:00.369Z</time></trkpt><trkpt lat="31.5761217" lon="-7.8382917"><ele>519.6666666666667</ele><time>2026-04-25T14:57:01.369Z</time></trkpt><trkpt lat="31.5760817" lon="-7.8384967"><ele>520.0</ele><time>2026-04-25T14:57:02.369Z</time></trkpt><trkpt lat="31.5760417" lon="-7.8387017"><ele>520.3333333333334</ele><time>2026-04-25T14:57:03.369Z</time></trkpt><trkpt lat="31.5760067" lon="-7.8389083"><ele>520.6666666666666</ele><time>2026-04-25T14:57:04.369Z</time></trkpt><trkpt lat="31.5759717" lon="-7.8391183"><ele>521.0</ele><time>2026-04-25T14:57:05.369Z</time></trkpt><trkpt lat="31.575935" lon="-7.8393367"><ele>521.0</ele><time>2026-04-25T14:57:06.369Z</time></trkpt><trkpt lat="31.5758933" lon="-7.839545"><ele>521.0</ele><time>2026-04-25T14:57:07.369Z</time></trkpt><trkpt lat="31.57585" lon="-7.83975"><ele>521.0</ele><time>2026-04-25T14:57:08.369Z</time></trkpt><trkpt lat="31.575815" lon="-7.83996"><ele>521.0</ele><time>2026-04-25T14:57:09.369Z</time></trkpt><trkpt lat="31.575775" lon="-7.8401683"><ele>521.0</ele><time>2026-04-25T14:57:10.369Z</time></trkpt><trkpt lat="31.575735" lon="-7.8403733"><ele>521.0</ele><time>2026-04-25T14:57:11.369Z</time></trkpt><trkpt lat="31.5757" lon="-7.8405783"><ele>521.0</ele><time>2026-04-25T14:57:12.369Z</time></trkpt><trkpt lat="31.5756633" lon="-7.8407817"><ele>521.0</ele><time>2026-04-25T14:57:13.369Z</time></trkpt><trkpt lat="31.575625" lon="-7.8409833"><ele>521.0</ele><time>2026-04-25T14:57:14.37Z</time></trkpt><trkpt lat="31.5755917" lon="-7.84119"><ele>520.3333333333333</ele><time>2026-04-25T14:57:15.369Z</time></trkpt><trkpt lat="31.575555" lon="-7.8413967"><ele>519.6666666666666</ele><time>2026-04-25T14:57:16.369Z</time></trkpt><trkpt lat="31.5755183" lon="-7.8416017"><ele>519.0</ele><time>2026-04-25T14:57:17.369Z</time></trkpt><trkpt lat="31.5754767" lon="-7.8418017"><ele>519.0</ele><time>2026-04-25T14:57:18.369Z</time></trkpt><trkpt lat="31.5754367" lon="-7.8420033"><ele>519.0</ele><time>2026-04-25T14:57:19.369Z</time></trkpt><trkpt lat="31.5754033" lon="-7.8422067"><ele>519.0</ele><time>2026-04-25T14:57:20.369Z</time></trkpt><trkpt lat="31.57537" lon="-7.8424067"><ele>519.3333333333334</ele><time>2026-04-25T14:57:21.369Z</time></trkpt><trkpt lat="31.5753333" lon="-7.8426133"><ele>519.6666666666667</ele><time>2026-04-25T14:57:22.369Z</time></trkpt><trkpt lat="31.5752983" lon="-7.8428183"><ele>520.0</ele><time>2026-04-25T14:57:23.37Z</time></trkpt><trkpt lat="31.5752633" lon="-7.8430267"><ele>520.0</ele><time>2026-04-25T14:57:24.369Z</time></trkpt><trkpt lat="31.575225" lon="-7.8432317"><ele>520.0</ele><time>2026-04-25T14:57:25.369Z</time></trkpt><trkpt lat="31.57518" lon="-7.843435"><ele>520.0</ele><time>2026-04-25T14:57:26.369Z</time></trkpt><trkpt lat="31.5751433" lon="-7.8436417"><ele>520.0</ele><time>2026-04-25T14:57:27.369Z</time></trkpt><trkpt lat="31.5751167" lon="-7.84385"><ele>520.0</ele><time>2026-04-25T14:57:28.369Z</time></trkpt><trkpt lat="31.575085" lon="-7.84406"><ele>520.0</ele><time>2026-04-25T14:57:29.369Z</time></trkpt><trkpt lat="31.5750583" lon="-7.84427"><ele>520.0</ele><time>2026-04-25T14:57:30.369Z</time></trkpt><trkpt lat="31.5750383" lon="-7.8444833"><ele>520.0</ele><time>2026-04-25T14:57:31.369Z</time></trkpt><trkpt lat="31.5750267" lon="-7.8447"><ele>520.0</ele><time>2026-04-25T14:57:32.369Z</time></trkpt><trkpt lat="31.575025" lon="-7.8449167"><ele>520.0</ele><time>2026-04-25T14:57:33.369Z</time></trkpt><trkpt lat="31.5750317" lon="-7.8451333"><ele>520.0</ele><time>2026-04-25T14:57:34.369Z</time></trkpt><trkpt lat="31.5750483" lon="-7.8453467"><ele>520.0</ele><time>2026-04-25T14:57:35.369Z</time></trkpt><trkpt lat="31.5750767" lon="-7.84556"><ele>520.0</ele><time>2026-04-25T14:57:36.369Z</time></trkpt><trkpt lat="31.575115" lon="-7.8457717"><ele>520.0</ele><time>2026-04-25T14:57:37.369Z</time></trkpt><trkpt lat="31.5751633" lon="-7.8459817"><ele>520.0</ele><time>2026-04-25T14:57:38.37Z</time></trkpt><trkpt lat="31.5752167" lon="-7.8461883"><ele>519.3333333333334</ele><time>2026-04-25T14:57:39.369Z</time></trkpt><trkpt lat="31.57528" lon="-7.8463917"><ele>518.6666666666666</ele><time>2026-04-25T14:57:40.369Z</time></trkpt><trkpt lat="31.575355" lon="-7.8465967"><ele>518.0</ele><time>2026-04-25T14:57:41.369Z</time></trkpt><trkpt lat="31.575425" lon="-7.8467967"><ele>518.0</ele><time>2026-04-25T14:57:42.369Z</time></trkpt><trkpt lat="31.575495" lon="-7.846995"><ele>518.0</ele><time>2026-04-25T14:57:43.369Z</time></trkpt><trkpt lat="31.5755717" lon="-7.8471917"><ele>518.0</ele><time>2026-04-25T14:57:44.369Z</time></trkpt><trkpt lat="31.5756533" lon="-7.8473883"><ele>518.0</ele><time>2026-04-25T14:57:45.369Z</time></trkpt><trkpt lat="31.5757317" lon="-7.8475867"><ele>518.0</ele><time>2026-04-25T14:57:46.369Z</time></trkpt><trkpt lat="31.5758067" lon="-7.847785"><ele>518.0</ele><time>2026-04-25T14:57:47.37Z</time></trkpt><trkpt lat="31.5758817" lon="-7.8479867"><ele>518.0</ele><time>2026-04-25T14:57:48.369Z</time></trkpt><trkpt lat="31.5759517" lon="-7.8481867"><ele>518.0</ele><time>2026-04-25T14:57:49.369Z</time></trkpt><trkpt lat="31.5760283" lon="-7.8483883"><ele>518.0</ele><time>2026-04-25T14:57:50.369Z</time></trkpt><trkpt lat="31.5761017" lon="-7.8485883"><ele>518.0</ele><time>2026-04-25T14:57:51.369Z</time></trkpt><trkpt lat="31.5761833" lon="-7.8487867"><ele>518.0</ele><time>2026-04-25T14:57:52.369Z</time></trkpt><trkpt lat="31.5762583" lon="-7.8489883"><ele>518.0</ele><time>2026-04-25T14:57:53.369Z</time></trkpt><trkpt lat="31.5763333" lon="-7.8491883"><ele>518.3333333333333</ele><time>2026-04-25T14:57:54.369Z</time></trkpt><trkpt lat="31.5764067" lon="-7.8493867"><ele>518.6666666666666</ele><time>2026-04-25T14:57:55.369Z</time></trkpt><trkpt lat="31.5764783" lon="-7.8495833"><ele>519.0</ele><time>2026-04-25T14:57:56.369Z</time></trkpt><trkpt lat="31.5765433" lon="-7.84977"><ele>519.0</ele><time>2026-04-25T14:57:57.369Z</time></trkpt><trkpt lat="31.576605" lon="-7.84996"><ele>519.0</ele><time>2026-04-25T14:57:58.369Z</time></trkpt><trkpt lat="31.5766683" lon="-7.8501433"><ele>519.0</ele><time>2026-04-25T14:57:59.369Z</time></trkpt><trkpt lat="31.5767183" lon="-7.8503167"><ele>519.0</ele><time>2026-04-25T14:58:00.369Z</time></trkpt><trkpt lat="31.5767633" lon="-7.8504883"><ele>519.0</ele><time>2026-04-25T14:58:01.37Z</time></trkpt><trkpt lat="31.5768067" lon="-7.85065"><ele>519.0</ele><time>2026-04-25T14:58:02.369Z</time></trkpt><trkpt lat="31.5768517" lon="-7.8508033"><ele>519.0</ele><time>2026-04-25T14:58:03.369Z</time></trkpt><trkpt lat="31.5768933" lon="-7.850945"><ele>518.75</ele><time>2026-04-25T14:58:04.368Z</time></trkpt><trkpt lat="31.5769433" lon="-7.851075"><ele>518.5</ele><time>2026-04-25T14:58:05.368Z</time></trkpt><trkpt lat="31.5769933" lon="-7.8512017"><ele>518.25</ele><time>2026-04-25T14:58:06.368Z</time></trkpt><trkpt lat="31.5770167" lon="-7.8513417"><ele>518.0</ele><time>2026-04-25T14:58:07.368Z</time></trkpt><trkpt lat="31.577025" lon="-7.8514867"><ele>517.75</ele><time>2026-04-25T14:58:08.368Z</time></trkpt><trkpt lat="31.577055" lon="-7.8516467"><ele>517.5</ele><time>2026-04-25T14:58:09.368Z</time></trkpt><trkpt lat="31.5771017" lon="-7.851815"><ele>517.25</ele><time>2026-04-25T14:58:10.368Z</time></trkpt><trkpt lat="31.57715" lon="-7.85199"><ele>517.0</ele><time>2026-04-25T14:58:11.368Z</time></trkpt><trkpt lat="31.577195" lon="-7.85219"><ele>517.0</ele><time>2026-04-25T14:58:12.368Z</time></trkpt><trkpt lat="31.5772333" lon="-7.852395"><ele>517.0</ele><time>2026-04-25T14:58:13.368Z</time></trkpt><trkpt lat="31.5772667" lon="-7.8526117"><ele>517.0</ele><time>2026-04-25T14:58:14.368Z</time></trkpt><trkpt lat="31.5772933" lon="-7.85283"><ele>517.3333333333334</ele><time>2026-04-25T14:58:15.368Z</time></trkpt><trkpt lat="31.5773133" lon="-7.853045"><ele>517.6666666666666</ele><time>2026-04-25T14:58:16.368Z</time></trkpt><trkpt lat="31.57733" lon="-7.8532517"><ele>518.0</ele><time>2026-04-25T14:58:17.368Z</time></trkpt><trkpt lat="31.5773467" lon="-7.8534483"><ele>518.3333333333333</ele><time>2026-04-25T14:58:18.368Z</time></trkpt><trkpt lat="31.5773617" lon="-7.853645"><ele>518.6666666666666</ele><time>2026-04-25T14:58:19.368Z</time></trkpt><trkpt lat="31.5773767" lon="-7.8538333"><ele>519.0</ele><time>2026-04-25T14:58:20.368Z</time></trkpt><trkpt lat="31.577395" lon="-7.85402"><ele>519.0</ele><time>2026-04-25T14:58:21.368Z</time></trkpt><trkpt lat="31.5774183" lon="-7.8542083"><ele>519.0</ele><time>2026-04-25T14:58:22.368Z</time></trkpt><trkpt lat="31.5774433" lon="-7.8544017"><ele>519.0</ele><time>2026-04-25T14:58:23.368Z</time></trkpt><trkpt lat="31.5774717" lon="-7.8545967"><ele>519.3333333333334</ele><time>2026-04-25T14:58:24.368Z</time></trkpt><trkpt lat="31.577495" lon="-7.8547917"><ele>519.6666666666667</ele><time>2026-04-25T14:58:25.368Z</time></trkpt><trkpt lat="31.5775217" lon="-7.8549867"><ele>520.0</ele><time>2026-04-25T14:58:26.368Z</time></trkpt><trkpt lat="31.5775333" lon="-7.8551867"><ele>520.0</ele><time>2026-04-25T14:58:27.368Z</time></trkpt><trkpt lat="31.5775433" lon="-7.855385"><ele>520.0</ele><time>2026-04-25T14:58:28.368Z</time></trkpt><trkpt lat="31.577565" lon="-7.8555883"><ele>520.0</ele><time>2026-04-25T14:58:29.368Z</time></trkpt><trkpt lat="31.57759" lon="-7.8557967"><ele>519.3333333333334</ele><time>2026-04-25T14:58:30.368Z</time></trkpt><trkpt lat="31.5776167" lon="-7.8560083"><ele>518.6666666666666</ele><time>2026-04-25T14:58:31.368Z</time></trkpt><trkpt lat="31.5776433" lon="-7.8562167"><ele>518.0</ele><time>2026-04-25T14:58:32.368Z</time></trkpt><trkpt lat="31.5776633" lon="-7.8564317"><ele>518.0</ele><time>2026-04-25T14:58:33.368Z</time></trkpt><trkpt lat="31.5776783" lon="-7.8566467"><ele>518.0</ele><time>2026-04-25T14:58:34.368Z</time></trkpt><trkpt lat="31.5776933" lon="-7.856865"><ele>518.0</ele><time>2026-04-25T14:58:35.368Z</time></trkpt><trkpt lat="31.5777117" lon="-7.8570817"><ele>518.3333333333333</ele><time>2026-04-25T14:58:36.368Z</time></trkpt><trkpt lat="31.5777317" lon="-7.8572983"><ele>518.6666666666666</ele><time>2026-04-25T14:58:37.368Z</time></trkpt><trkpt lat="31.5777517" lon="-7.8575183"><ele>519.0</ele><time>2026-04-25T14:58:38.368Z</time></trkpt><trkpt lat="31.577775" lon="-7.8577383"><ele>519.0</ele><time>2026-04-25T14:58:39.368Z</time></trkpt><trkpt lat="31.577795" lon="-7.857965"><ele>519.0</ele><time>2026-04-25T14:58:40.368Z</time></trkpt><trkpt lat="31.577815" lon="-7.8581933"><ele>519.0</ele><time>2026-04-25T14:58:41.369Z</time></trkpt><trkpt lat="31.5778317" lon="-7.85842"><ele>519.0</ele><time>2026-04-25T14:58:42.368Z</time></trkpt><trkpt lat="31.5778483" lon="-7.8586467"><ele>519.0</ele><time>2026-04-25T14:58:43.368Z</time></trkpt><trkpt lat="31.57787" lon="-7.8588767"><ele>519.0</ele><time>2026-04-25T14:58:44.368Z</time></trkpt><trkpt lat="31.5778917" lon="-7.8591067"><ele>518.6666666666666</ele><time>2026-04-25T14:58:45.368Z</time></trkpt><trkpt lat="31.57791" lon="-7.859335"><ele>518.3333333333333</ele><time>2026-04-25T14:58:46.368Z</time></trkpt><trkpt lat="31.5779317" lon="-7.859565"><ele>518.0</ele><time>2026-04-25T14:58:47.368Z</time></trkpt><trkpt lat="31.5779533" lon="-7.8597967"><ele>518.0</ele><time>2026-04-25T14:58:48.368Z</time></trkpt><trkpt lat="31.5779767" lon="-7.860035"><ele>518.0</ele><time>2026-04-25T14:58:49.369Z</time></trkpt><trkpt lat="31.577995" lon="-7.8602683"><ele>518.0</ele><time>2026-04-25T14:58:50.368Z</time></trkpt><trkpt lat="31.5780117" lon="-7.8605017"><ele>517.6666666666666</ele><time>2026-04-25T14:58:51.368Z</time></trkpt><trkpt lat="31.5780283" lon="-7.860735"><ele>517.3333333333334</ele><time>2026-04-25T14:58:52.368Z</time></trkpt><trkpt lat="31.5780467" lon="-7.86097"><ele>517.0</ele><time>2026-04-25T14:58:53.368Z</time></trkpt><trkpt lat="31.57806" lon="-7.861205"><ele>517.0</ele><time>2026-04-25T14:58:54.368Z</time></trkpt><trkpt lat="31.57808" lon="-7.8614417"><ele>517.0</ele><time>2026-04-25T14:58:55.368Z</time></trkpt><trkpt lat="31.5780983" lon="-7.86168"><ele>517.0</ele><time>2026-04-25T14:58:56.368Z</time></trkpt><trkpt lat="31.5781167" lon="-7.8619167"><ele>517.0</ele><time>2026-04-25T14:58:57.368Z</time></trkpt><trkpt lat="31.5781333" lon="-7.86215"><ele>517.0</ele><time>2026-04-25T14:58:58.368Z</time></trkpt><trkpt lat="31.5781483" lon="-7.8623883"><ele>517.0</ele><time>2026-04-25T14:58:59.368Z</time></trkpt><trkpt lat="31.5781683" lon="-7.8626267"><ele>517.0</ele><time>2026-04-25T14:59:00.368Z</time></trkpt><trkpt lat="31.5781933" lon="-7.8628617"><ele>517.0</ele><time>2026-04-25T14:59:01.368Z</time></trkpt><trkpt lat="31.5782233" lon="-7.8630983"><ele>517.0</ele><time>2026-04-25T14:59:02.368Z</time></trkpt><trkpt lat="31.5782583" lon="-7.863335"><ele>517.3333333333334</ele><time>2026-04-25T14:59:03.368Z</time></trkpt><trkpt lat="31.5783033" lon="-7.8635667"><ele>517.6666666666666</ele><time>2026-04-25T14:59:04.368Z</time></trkpt><trkpt lat="31.5783533" lon="-7.8637867"><ele>518.0</ele><time>2026-04-25T14:59:05.368Z</time></trkpt><trkpt lat="31.57842" lon="-7.8640033"><ele>518.0</ele><time>2026-04-25T14:59:06.368Z</time></trkpt><trkpt lat="31.57849" lon="-7.864215"><ele>518.0</ele><time>2026-04-25T14:59:07.369Z</time></trkpt><trkpt lat="31.5785717" lon="-7.864415"><ele>518.0</ele><time>2026-04-25T14:59:08.368Z</time></trkpt><trkpt lat="31.5786583" lon="-7.8646117"><ele>517.6666666666666</ele><time>2026-04-25T14:59:09.368Z</time></trkpt><trkpt lat="31.5787383" lon="-7.8648033"><ele>517.3333333333334</ele><time>2026-04-25T14:59:10.368Z</time></trkpt><trkpt lat="31.5788217" lon="-7.864995"><ele>517.0</ele><time>2026-04-25T14:59:11.368Z</time></trkpt><trkpt lat="31.5788983" lon="-7.8651833"><ele>517.0</ele><time>2026-04-25T14:59:12.368Z</time></trkpt><trkpt lat="31.5789783" lon="-7.865375"><ele>517.0</ele><time>2026-04-25T14:59:13.368Z</time></trkpt><trkpt lat="31.579065" lon="-7.86556"><ele>517.0</ele><time>2026-04-25T14:59:14.368Z</time></trkpt><trkpt lat="31.5791533" lon="-7.8657483"><ele>517.0</ele><time>2026-04-25T14:59:15.368Z</time></trkpt><trkpt lat="31.5792417" lon="-7.8659417"><ele>517.0</ele><time>2026-04-25T14:59:16.368Z</time></trkpt><trkpt lat="31.579335" lon="-7.866135"><ele>517.0</ele><time>2026-04-25T14:59:17.368Z</time></trkpt><trkpt lat="31.5794233" lon="-7.8663283"><ele>517.0</ele><time>2026-04-25T14:59:18.368Z</time></trkpt><trkpt lat="31.5795083" lon="-7.8665267"><ele>517.0</ele><time>2026-04-25T14:59:19.368Z</time></trkpt><trkpt lat="31.5795917" lon="-7.8667217"><ele>517.0</ele><time>2026-04-25T14:59:20.368Z</time></trkpt><trkpt lat="31.5796783" lon="-7.8669233"><ele>517.0</ele><time>2026-04-25T14:59:21.368Z</time></trkpt><trkpt lat="31.5797667" lon="-7.8671233"><ele>517.0</ele><time>2026-04-25T14:59:22.368Z</time></trkpt><trkpt lat="31.5798517" lon="-7.8673283"><ele>517.0</ele><time>2026-04-25T14:59:23.368Z</time></trkpt><trkpt lat="31.5799367" lon="-7.8675333"><ele>517.3333333333334</ele><time>2026-04-25T14:59:24.368Z</time></trkpt><trkpt lat="31.5800233" lon="-7.8677367"><ele>517.6666666666666</ele><time>2026-04-25T14:59:25.368Z</time></trkpt><trkpt lat="31.580105" lon="-7.8679383"><ele>518.0</ele><time>2026-04-25T14:59:26.368Z</time></trkpt><trkpt lat="31.58019" lon="-7.8681433"><ele>518.0</ele><time>2026-04-25T14:59:27.368Z</time></trkpt><trkpt lat="31.5802733" lon="-7.8683433"><ele>518.0</ele><time>2026-04-25T14:59:28.368Z</time></trkpt><trkpt lat="31.5803617" lon="-7.868535"><ele>518.0</ele><time>2026-04-25T14:59:29.368Z</time></trkpt><trkpt lat="31.5804433" lon="-7.8687233"><ele>517.0</ele><time>2026-04-25T14:59:30.368Z</time></trkpt><trkpt lat="31.580525" lon="-7.8689117"><ele>516.0</ele><time>2026-04-25T14:59:31.368Z</time></trkpt><trkpt lat="31.5806083" lon="-7.8690983"><ele>515.0</ele><time>2026-04-25T14:59:32.368Z</time></trkpt><trkpt lat="31.5806883" lon="-7.8692817"><ele>515.0</ele><time>2026-04-25T14:59:33.368Z</time></trkpt><trkpt lat="31.580775" lon="-7.8694667"><ele>515.0</ele><time>2026-04-25T14:59:34.368Z</time></trkpt><trkpt lat="31.5808617" lon="-7.869655"><ele>515.0</ele><time>2026-04-25T14:59:35.368Z</time></trkpt><trkpt lat="31.5809517" lon="-7.86984"><ele>515.0</ele><time>2026-04-25T14:59:36.368Z</time></trkpt><trkpt lat="31.58104" lon="-7.8700317"><ele>515.0</ele><time>2026-04-25T14:59:37.368Z</time></trkpt><trkpt lat="31.58113" lon="-7.8702283"><ele>515.0</ele><time>2026-04-25T14:59:38.368Z</time></trkpt><trkpt lat="31.581215" lon="-7.870425"><ele>515.3333333333333</ele><time>2026-04-25T14:59:39.368Z</time></trkpt><trkpt lat="31.5813017" lon="-7.8706233"><ele>515.6666666666666</ele><time>2026-04-25T14:59:40.368Z</time></trkpt><trkpt lat="31.581395" lon="-7.87082"><ele>516.0</ele><time>2026-04-25T14:59:41.368Z</time></trkpt><trkpt lat="31.5814917" lon="-7.87102"><ele>516.0</ele><time>2026-04-25T14:59:42.368Z</time></trkpt><trkpt lat="31.5815917" lon="-7.87122"><ele>516.0</ele><time>2026-04-25T14:59:43.368Z</time></trkpt><trkpt lat="31.581695" lon="-7.8714133"><ele>516.0</ele><time>2026-04-25T14:59:44.368Z</time></trkpt><trkpt lat="31.5817917" lon="-7.8716167"><ele>516.0</ele><time>2026-04-25T14:59:45.368Z</time></trkpt><trkpt lat="31.5818883" lon="-7.8718167"><ele>516.0</ele><time>2026-04-25T14:59:46.368Z</time></trkpt><trkpt lat="31.5819817" lon="-7.87202"><ele>516.0</ele><time>2026-04-25T14:59:47.368Z</time></trkpt><trkpt lat="31.582075" lon="-7.8722217"><ele>515.6666666666666</ele><time>2026-04-25T14:59:48.368Z</time></trkpt><trkpt lat="31.5821717" lon="-7.8724083"><ele>515.3333333333333</ele><time>2026-04-25T14:59:49.368Z</time></trkpt><trkpt lat="31.5822633" lon="-7.8725933"><ele>515.0</ele><time>2026-04-25T14:59:50.368Z</time></trkpt><trkpt lat="31.5823517" lon="-7.8727783"><ele>515.0</ele><time>2026-04-25T14:59:51.368Z</time></trkpt><trkpt lat="31.5824383" lon="-7.8729617"><ele>515.0</ele><time>2026-04-25T14:59:52.368Z</time></trkpt><trkpt lat="31.5825233" lon="-7.8731433"><ele>515.0</ele><time>2026-04-25T14:59:53.368Z</time></trkpt><trkpt lat="31.5826117" lon="-7.8733217"><ele>515.0</ele><time>2026-04-25T14:59:54.368Z</time></trkpt><trkpt lat="31.5827033" lon="-7.8734983"><ele>515.0</ele><time>2026-04-25T14:59:55.368Z</time></trkpt><trkpt lat="31.5827917" lon="-7.8736817"><ele>515.0</ele><time>2026-04-25T14:59:56.368Z</time></trkpt><trkpt lat="31.582875" lon="-7.8738667"><ele>515.0</ele><time>2026-04-25T14:59:57.368Z</time></trkpt><trkpt lat="31.5829517" lon="-7.8740567"><ele>515.0</ele><time>2026-04-25T14:59:58.368Z</time></trkpt><trkpt lat="31.5830183" lon="-7.8742567"><ele>515.0</ele><time>2026-04-25T14:59:59.368Z</time></trkpt><trkpt lat="31.5830717" lon="-7.8744567"><ele>514.6666666666666</ele><time>2026-04-25T15:00:00.368Z</time></trkpt><trkpt lat="31.583115" lon="-7.87466"><ele>514.3333333333334</ele><time>2026-04-25T15:00:01.369Z</time></trkpt><trkpt lat="31.5831583" lon="-7.8748667"><ele>514.0</ele><time>2026-04-25T15:00:02.368Z</time></trkpt><trkpt lat="31.5832017" lon="-7.8750733"><ele>514.0</ele><time>2026-04-25T15:00:03.368Z</time></trkpt><trkpt lat="31.5832383" lon="-7.8752817"><ele>514.0</ele><time>2026-04-25T15:00:04.368Z</time></trkpt><trkpt lat="31.58327" lon="-7.8754917"><ele>514.0</ele><time>2026-04-25T15:00:05.368Z</time></trkpt><trkpt lat="31.5833" lon="-7.8757"><ele>514.0</ele><time>2026-04-25T15:00:06.368Z</time></trkpt><trkpt lat="31.58333" lon="-7.87591"><ele>514.0</ele><time>2026-04-25T15:00:07.368Z</time></trkpt><trkpt lat="31.583355" lon="-7.87612"><ele>514.0</ele><time>2026-04-25T15:00:08.368Z</time></trkpt><trkpt lat="31.583385" lon="-7.87633"><ele>514.0</ele><time>2026-04-25T15:00:09.368Z</time></trkpt><trkpt lat="31.5834217" lon="-7.8765383"><ele>514.0</ele><time>2026-04-25T15:00:10.368Z</time></trkpt><trkpt lat="31.5834567" lon="-7.8767467"><ele>514.0</ele><time>2026-04-25T15:00:11.368Z</time></trkpt><trkpt lat="31.583485" lon="-7.8769567"><ele>513.6666666666667</ele><time>2026-04-25T15:00:12.368Z</time></trkpt><trkpt lat="31.5835233" lon="-7.8771633"><ele>513.3333333333334</ele><time>2026-04-25T15:00:13.368Z</time></trkpt><trkpt lat="31.5835583" lon="-7.8773683"><ele>513.0</ele><time>2026-04-25T15:00:14.368Z</time></trkpt><trkpt lat="31.5835933" lon="-7.87758"><ele>513.0</ele><time>2026-04-25T15:00:15.368Z</time></trkpt><trkpt lat="31.58363" lon="-7.8777867"><ele>513.0</ele><time>2026-04-25T15:00:16.368Z</time></trkpt><trkpt lat="31.583675" lon="-7.8779867"><ele>513.0</ele><time>2026-04-25T15:00:17.368Z</time></trkpt><trkpt lat="31.5837217" lon="-7.878185"><ele>512.6666666666666</ele><time>2026-04-25T15:00:18.368Z</time></trkpt><trkpt lat="31.5837783" lon="-7.8783933"><ele>512.3333333333333</ele><time>2026-04-25T15:00:19.368Z</time></trkpt><trkpt lat="31.5838233" lon="-7.878595"><ele>512.0</ele><time>2026-04-25T15:00:20.368Z</time></trkpt><trkpt lat="31.5838667" lon="-7.878795"><ele>512.6666666666666</ele><time>2026-04-25T15:00:21.368Z</time></trkpt><trkpt lat="31.5839133" lon="-7.8790033"><ele>513.3333333333334</ele><time>2026-04-25T15:00:22.368Z</time></trkpt><trkpt lat="31.5839683" lon="-7.879215"><ele>514.0</ele><time>2026-04-25T15:00:23.368Z</time></trkpt><trkpt lat="31.58402" lon="-7.87943"><ele>514.0</ele><time>2026-04-25T15:00:24.368Z</time></trkpt><trkpt lat="31.58407" lon="-7.8796467"><ele>514.0</ele><time>2026-04-25T15:00:25.368Z</time></trkpt><trkpt lat="31.584125" lon="-7.879865"><ele>514.0</ele><time>2026-04-25T15:00:26.368Z</time></trkpt><trkpt lat="31.5841767" lon="-7.8800817"><ele>514.0</ele><time>2026-04-25T15:00:27.369Z</time></trkpt><trkpt lat="31.5842333" lon="-7.8803017"><ele>514.0</ele><time>2026-04-25T15:00:28.368Z</time></trkpt><trkpt lat="31.5842883" lon="-7.8805283"><ele>514.0</ele><time>2026-04-25T15:00:29.368Z</time></trkpt><trkpt lat="31.5843433" lon="-7.8807533"><ele>514.0</ele><time>2026-04-25T15:00:30.368Z</time></trkpt><trkpt lat="31.584405" lon="-7.8809767"><ele>514.0</ele><time>2026-04-25T15:00:31.368Z</time></trkpt><trkpt lat="31.584475" lon="-7.8812"><ele>514.0</ele><time>2026-04-25T15:00:32.369Z</time></trkpt><trkpt lat="31.5845417" lon="-7.881415"><ele>513.3333333333334</ele><time>2026-04-25T15:00:33.368Z</time></trkpt><trkpt lat="31.5846183" lon="-7.88163"><ele>512.6666666666666</ele><time>2026-04-25T15:00:34.368Z</time></trkpt><trkpt lat="31.5846933" lon="-7.8818433"><ele>512.0</ele><time>2026-04-25T15:00:35.369Z</time></trkpt><trkpt lat="31.5847683" lon="-7.8820533"><ele>512.0</ele><time>2026-04-25T15:00:36.368Z</time></trkpt><trkpt lat="31.58485" lon="-7.8822617"><ele>512.0</ele><time>2026-04-25T15:00:37.368Z</time></trkpt><trkpt lat="31.5849283" lon="-7.8824683"><ele>512.0</ele><time>2026-04-25T15:00:38.368Z</time></trkpt><trkpt lat="31.5850017" lon="-7.8826783"><ele>512.0</ele><time>2026-04-25T15:00:39.368Z</time></trkpt><trkpt lat="31.5850733" lon="-7.8828867"><ele>512.0</ele><time>2026-04-25T15:00:40.368Z</time></trkpt><trkpt lat="31.5851433" lon="-7.8830917"><ele>512.0</ele><time>2026-04-25T15:00:41.368Z</time></trkpt><trkpt lat="31.5852167" lon="-7.8832967"><ele>512.3333333333333</ele><time>2026-04-25T15:00:42.368Z</time></trkpt><trkpt lat="31.58529" lon="-7.8835017"><ele>512.6666666666666</ele><time>2026-04-25T15:00:43.368Z</time></trkpt><trkpt lat="31.5853667" lon="-7.8837083"><ele>513.0</ele><time>2026-04-25T15:00:44.368Z</time></trkpt><trkpt lat="31.5854433" lon="-7.8839167"><ele>512.6666666666666</ele><time>2026-04-25T15:00:45.368Z</time></trkpt><trkpt lat="31.58552" lon="-7.8841233"><ele>512.3333333333333</ele><time>2026-04-25T15:00:46.368Z</time></trkpt><trkpt lat="31.5855967" lon="-7.8843267"><ele>512.0</ele><time>2026-04-25T15:00:47.368Z</time></trkpt><trkpt lat="31.5856783" lon="-7.8845283"><ele>512.0</ele><time>2026-04-25T15:00:48.368Z</time></trkpt><trkpt lat="31.5857583" lon="-7.8847283"><ele>512.0</ele><time>2026-04-25T15:00:49.368Z</time></trkpt><trkpt lat="31.5858367" lon="-7.8849317"><ele>512.0</ele><time>2026-04-25T15:00:50.368Z</time></trkpt><trkpt lat="31.58591" lon="-7.885135"><ele>511.66666666666663</ele><time>2026-04-25T15:00:51.368Z</time></trkpt><trkpt lat="31.5859933" lon="-7.8853317"><ele>511.33333333333337</ele><time>2026-04-25T15:00:52.368Z</time></trkpt><trkpt lat="31.586065" lon="-7.8855233"><ele>511.0</ele><time>2026-04-25T15:00:53.368Z</time></trkpt><trkpt lat="31.5861317" lon="-7.8857033"><ele>511.0</ele><time>2026-04-25T15:00:54.368Z</time></trkpt><trkpt lat="31.5862033" lon="-7.88588"><ele>511.0</ele><time>2026-04-25T15:00:55.368Z</time></trkpt><trkpt lat="31.5862683" lon="-7.8860517"><ele>511.0</ele><time>2026-04-25T15:00:56.368Z</time></trkpt><trkpt lat="31.5863317" lon="-7.8862183"><ele>510.75</ele><time>2026-04-25T15:00:57.368Z</time></trkpt><trkpt lat="31.5863967" lon="-7.8863767"><ele>510.5</ele><time>2026-04-25T15:00:58.368Z</time></trkpt><trkpt lat="31.5864517" lon="-7.886525"><ele>510.25</ele><time>2026-04-25T15:00:59.368Z</time></trkpt><trkpt lat="31.58651" lon="-7.8866733"><ele>510.0</ele><time>2026-04-25T15:01:00.368Z</time></trkpt><trkpt lat="31.58656" lon="-7.8868067"><ele>510.0</ele><time>2026-04-25T15:01:01.368Z</time></trkpt><trkpt lat="31.5866" lon="-7.8869217"><ele>510.0</ele><time>2026-04-25T15:01:02.368Z</time></trkpt><trkpt lat="31.5866433" lon="-7.8870283"><ele>510.0</ele><time>2026-04-25T15:01:03.369Z</time></trkpt><trkpt lat="31.5866817" lon="-7.887125"><ele>510.0</ele><time>2026-04-25T15:01:04.368Z</time></trkpt><trkpt lat="31.586715" lon="-7.8872083"><ele>510.0</ele><time>2026-04-25T15:01:05.368Z</time></trkpt><trkpt lat="31.58675" lon="-7.887285"><ele>510.0</ele><time>2026-04-25T15:01:06.369Z</time></trkpt><trkpt lat="31.5867833" lon="-7.8873633"><ele>510.00000000000006</ele><time>2026-04-25T15:01:07.368Z</time></trkpt><trkpt lat="31.5868167" lon="-7.8874417"><ele>510.0</ele><time>2026-04-25T15:01:08.368Z</time></trkpt><trkpt lat="31.5868467" lon="-7.8875183"><ele>510.0</ele><time>2026-04-25T15:01:09.368Z</time></trkpt><trkpt lat="31.58688" lon="-7.8875917"><ele>510.00000000000006</ele><time>2026-04-25T15:01:10.368Z</time></trkpt><trkpt lat="31.5869133" lon="-7.8876667"><ele>510.0</ele><time>2026-04-25T15:01:11.368Z</time></trkpt><trkpt lat="31.5869483" lon="-7.887745"><ele>510.0</ele><time>2026-04-25T15:01:12.368Z</time></trkpt><trkpt lat="31.5869817" lon="-7.8878233"><ele>509.8333333333333</ele><time>2026-04-25T15:01:13.368Z</time></trkpt><trkpt lat="31.5870183" lon="-7.8879"><ele>509.66666666666663</ele><time>2026-04-25T15:01:14.368Z</time></trkpt><trkpt lat="31.587055" lon="-7.8879733"><ele>509.5</ele><time>2026-04-25T15:01:15.369Z</time></trkpt><trkpt lat="31.587095" lon="-7.8880467"><ele>509.3333333333333</ele><time>2026-04-25T15:01:16.368Z</time></trkpt><trkpt lat="31.587145" lon="-7.888115"><ele>509.16666666666663</ele><time>2026-04-25T15:01:17.368Z</time></trkpt><trkpt lat="31.5872" lon="-7.888175"><ele>509.0</ele><time>2026-04-25T15:01:18.368Z</time></trkpt><trkpt lat="31.5872567" lon="-7.8882383"><ele>508.99999999999994</ele><time>2026-04-25T15:01:19.369Z</time></trkpt><trkpt lat="31.5873133" lon="-7.8883083"><ele>509.0</ele><time>2026-04-25T15:01:20.368Z</time></trkpt><trkpt lat="31.5873667" lon="-7.888385"><ele>509.0</ele><time>2026-04-25T15:01:21.368Z</time></trkpt><trkpt lat="31.5874017" lon="-7.8884733"><ele>509.0</ele><time>2026-04-25T15:01:22.368Z</time></trkpt><trkpt lat="31.5874283" lon="-7.8885633"><ele>508.99999999999994</ele><time>2026-04-25T15:01:23.368Z</time></trkpt><trkpt lat="31.5874533" lon="-7.88865"><ele>509.0</ele><time>2026-04-25T15:01:24.368Z</time></trkpt><trkpt lat="31.5874967" lon="-7.88874"><ele>509.0</ele><time>2026-04-25T15:01:25.368Z</time></trkpt><trkpt lat="31.5875633" lon="-7.8888367"><ele>509.0</ele><time>2026-04-25T15:01:26.368Z</time></trkpt><trkpt lat="31.5876517" lon="-7.8889433"><ele>509.0</ele><time>2026-04-25T15:01:27.368Z</time></trkpt><trkpt lat="31.587745" lon="-7.889055"><ele>509.0</ele><time>2026-04-25T15:01:28.368Z</time></trkpt><trkpt lat="31.5878517" lon="-7.88917"><ele>508.66666666666663</ele><time>2026-04-25T15:01:29.368Z</time></trkpt><trkpt lat="31.5879633" lon="-7.88929"><ele>508.33333333333337</ele><time>2026-04-25T15:01:30.368Z</time></trkpt><trkpt lat="31.5880883" lon="-7.8894117"><ele>508.0</ele><time>2026-04-25T15:01:31.368Z</time></trkpt><trkpt lat="31.5882267" lon="-7.8895383"><ele>508.0</ele><time>2026-04-25T15:01:32.368Z</time></trkpt><trkpt lat="31.588385" lon="-7.889665"><ele>508.0</ele><time>2026-04-25T15:01:33.368Z</time></trkpt><trkpt lat="31.5885467" lon="-7.889795"><ele>508.0</ele><time>2026-04-25T15:01:34.368Z</time></trkpt><trkpt lat="31.5887233" lon="-7.889915"><ele>508.0</ele><time>2026-04-25T15:01:35.368Z</time></trkpt><trkpt lat="31.588915" lon="-7.890025"><ele>508.0</ele><time>2026-04-25T15:01:36.368Z</time></trkpt><trkpt lat="31.5891083" lon="-7.8901383"><ele>508.0</ele><time>2026-04-25T15:01:37.368Z</time></trkpt><trkpt lat="31.5893017" lon="-7.8902683"><ele>508.0</ele><time>2026-04-25T15:01:38.368Z</time></trkpt><trkpt lat="31.5894983" lon="-7.8904033"><ele>508.0</ele><time>2026-04-25T15:01:39.368Z</time></trkpt><trkpt lat="31.589705" lon="-7.890535"><ele>508.0</ele><time>2026-04-25T15:01:40.368Z</time></trkpt><trkpt lat="31.5899117" lon="-7.89068"><ele>508.0</ele><time>2026-04-25T15:01:41.368Z</time></trkpt><trkpt lat="31.5901167" lon="-7.8908267"><ele>508.0</ele><time>2026-04-25T15:01:42.368Z</time></trkpt><trkpt lat="31.590325" lon="-7.890975"><ele>508.0</ele><time>2026-04-25T15:01:43.369Z</time></trkpt><trkpt lat="31.5905333" lon="-7.891115"><ele>507.0</ele><time>2026-04-25T15:01:44.368Z</time></trkpt><trkpt lat="31.5907383" lon="-7.8912567"><ele>506.0</ele><time>2026-04-25T15:01:45.368Z</time></trkpt><trkpt lat="31.5909383" lon="-7.8913983"><ele>506.0</ele><time>2026-04-25T15:01:46.368Z</time></trkpt><trkpt lat="31.5911417" lon="-7.89154"><ele>506.0</ele><time>2026-04-25T15:01:47.368Z</time></trkpt><trkpt lat="31.5913467" lon="-7.8916833"><ele>505.5</ele><time>2026-04-25T15:01:48.369Z</time></trkpt><trkpt lat="31.591555" lon="-7.8918233"><ele>505.0</ele><time>2026-04-25T15:01:49.368Z</time></trkpt><trkpt lat="31.59176" lon="-7.891965"><ele>505.0</ele><time>2026-04-25T15:01:50.369Z</time></trkpt><trkpt lat="31.591965" lon="-7.8921067"><ele>505.0</ele><time>2026-04-25T15:01:51.368Z</time></trkpt><trkpt lat="31.5921717" lon="-7.89225"><ele>504.5</ele><time>2026-04-25T15:01:52.368Z</time></trkpt><trkpt lat="31.59238" lon="-7.89239"><ele>504.0</ele><time>2026-04-25T15:01:53.368Z</time></trkpt><trkpt lat="31.5925883" lon="-7.8925283"><ele>504.0</ele><time>2026-04-25T15:01:54.368Z</time></trkpt><trkpt lat="31.592795" lon="-7.89267"><ele>504.0</ele><time>2026-04-25T15:01:55.368Z</time></trkpt><trkpt lat="31.5930067" lon="-7.8928083"><ele>504.0</ele><time>2026-04-25T15:01:56.368Z</time></trkpt><trkpt lat="31.5932217" lon="-7.89295"><ele>504.0</ele><time>2026-04-25T15:01:57.368Z</time></trkpt><trkpt lat="31.593435" lon="-7.893095"><ele>504.0</ele><time>2026-04-25T15:01:58.368Z</time></trkpt><trkpt lat="31.5936483" lon="-7.8932433"><ele>504.0</ele><time>2026-04-25T15:01:59.368Z</time></trkpt><trkpt lat="31.59385" lon="-7.8933833"><ele>503.66666666666663</ele><time>2026-04-25T15:02:00.368Z</time></trkpt><trkpt lat="31.59404" lon="-7.8935183"><ele>503.3333333333333</ele><time>2026-04-25T15:02:01.368Z</time></trkpt><trkpt lat="31.5942267" lon="-7.893645"><ele>503.0</ele><time>2026-04-25T15:02:02.369Z</time></trkpt><trkpt lat="31.5944117" lon="-7.8937633"><ele>502.66666666666663</ele><time>2026-04-25T15:02:03.368Z</time></trkpt><trkpt lat="31.594595" lon="-7.893885"><ele>502.33333333333337</ele><time>2026-04-25T15:02:04.368Z</time></trkpt><trkpt lat="31.59479" lon="-7.89401"><ele>502.0</ele><time>2026-04-25T15:02:05.368Z</time></trkpt><trkpt lat="31.5949867" lon="-7.8941467"><ele>502.0</ele><time>2026-04-25T15:02:06.368Z</time></trkpt><trkpt lat="31.595185" lon="-7.8942883"><ele>502.0</ele><time>2026-04-25T15:02:07.368Z</time></trkpt><trkpt lat="31.5953917" lon="-7.8944267"><ele>502.0</ele><time>2026-04-25T15:02:08.369Z</time></trkpt><trkpt lat="31.5955983" lon="-7.894565"><ele>502.0</ele><time>2026-04-25T15:02:09.368Z</time></trkpt><trkpt lat="31.595805" lon="-7.8947117"><ele>502.0</ele><time>2026-04-25T15:02:10.368Z</time></trkpt><trkpt lat="31.5960183" lon="-7.8948517"><ele>502.0</ele><time>2026-04-25T15:02:11.368Z</time></trkpt><trkpt lat="31.5962283" lon="-7.8949883"><ele>501.5</ele><time>2026-04-25T15:02:12.368Z</time></trkpt><trkpt lat="31.59643" lon="-7.8951317"><ele>501.0</ele><time>2026-04-25T15:02:13.368Z</time></trkpt><trkpt lat="31.5966317" lon="-7.895275"><ele>501.0</ele><time>2026-04-25T15:02:14.368Z</time></trkpt><trkpt lat="31.5968317" lon="-7.8954133"><ele>501.0</ele><time>2026-04-25T15:02:15.368Z</time></trkpt><trkpt lat="31.5970333" lon="-7.8955517"><ele>501.5</ele><time>2026-04-25T15:02:16.368Z</time></trkpt><trkpt lat="31.5972317" lon="-7.8956917"><ele>502.0</ele><time>2026-04-25T15:02:17.368Z</time></trkpt><trkpt lat="31.5974333" lon="-7.8958267"><ele>502.5</ele><time>2026-04-25T15:02:18.368Z</time></trkpt><trkpt lat="31.5976283" lon="-7.8959633"><ele>503.0</ele><time>2026-04-25T15:02:19.368Z</time></trkpt><trkpt lat="31.5978317" lon="-7.8960983"><ele>506.0</ele><time>2026-04-25T15:02:20.368Z</time></trkpt><trkpt lat="31.5911417" lon="-7.89154"><ele>506.0</ele><time>2026-04-25T15:01:47.368Z</time></trkpt><trkpt lat="31.5913467" lon="-7.8916833"><ele>506.0</ele><time>2026-04-25T15:01:48.369Z</time></trkpt><trkpt lat="31.591555" lon="-7.8918233"><ele>505.5</ele><time>2026-04-25T15:01:49.368Z</time></trkpt><trkpt lat="31.59176" lon="-7.891965"><ele>505.0</ele><time>2026-04-25T15:01:50.369Z</time></trkpt><trkpt lat="31.591965" lon="-7.8921067"><ele>504.5</ele><time>2026-04-25T15:01:51.368Z</time></trkpt><trkpt lat="31.5921717" lon="-7.89225"><ele>504.0</ele><time>2026-04-25T15:01:52.368Z</time></trkpt><trkpt lat="31.59238" lon="-7.89239"><ele>504.0</ele><time>2026-04-25T15:01:53.368Z</time></trkpt><trkpt lat="31.5925883" lon="-7.8925283"><ele>504.0</ele><time>2026-04-25T15:01:54.368Z</time></trkpt><trkpt lat="31.592795" lon="-7.89267"><ele>504.0</ele><time>2026-04-25T15:01:55.368Z</time></trkpt><trkpt lat="31.5930067" lon="-7.8928083"><ele>504.0</ele><time>2026-04-25T15:01:56.368Z</time></trkpt><trkpt lat="31.5932217" lon="-7.89295"><ele>504.0</ele><time>2026-04-25T15:01:57.368Z</time></trkpt><trkpt lat="31.593435" lon="-7.893095"><ele>504.0</ele><time>2026-04-25T15:01:58.368Z</time></trkpt><trkpt lat="31.5936483" lon="-7.8932433"><ele>503.5</ele><time>2026-04-25T15:01:59.368Z</time></trkpt><trkpt lat="31.59385" lon="-7.8933833"><ele>503.0</ele><time>2026-04-25T15:02:00.368Z</time></trkpt><trkpt lat="31.59404" lon="-7.8935183"><ele>503.0</ele><time>2026-04-25T15:02:01.368Z</time></trkpt><trkpt lat="31.5942267" lon="-7.893645"><ele>503.0</ele><time>2026-04-25T15:02:02.369Z</time></trkpt><trkpt lat="31.5944117" lon="-7.8937633"><ele>503.0</ele><time>2026-04-25T15:02:03.368Z</time></trkpt><trkpt lat="31.594595" lon="-7.893885"><ele>502.5</ele><time>2026-04-25T15:02:04.368Z</time></trkpt><trkpt lat="31.59479" lon="-7.89401"><ele>502.0</ele><time>2026-04-25T15:02:05.368Z</time></trkpt><trkpt lat="31.5949867" lon="-7.8941467"><ele>502.0</ele><time>2026-04-25T15:02:06.368Z</time></trkpt><trkpt lat="31.595185" lon="-7.8942883"><ele>502.0</ele><time>2026-04-25T15:02:07.368Z</time></trkpt><trkpt lat="31.5953917" lon="-7.8944267"><ele>502.0</ele><time>2026-04-25T15:02:08.369Z</time></trkpt><trkpt lat="31.5955983" lon="-7.894565"><ele>502.0</ele><time>2026-04-25T15:02:09.368Z</time></trkpt><trkpt lat="31.595805" lon="-7.8947117"><ele>502.0</ele><time>2026-04-25T15:02:10.368Z</time></trkpt><trkpt lat="31.5960183" lon="-7.8948517"><ele>502.0</ele><time>2026-04-25T15:02:11.368Z</time></trkpt><trkpt lat="31.5962283" lon="-7.8949883"><ele>501.5</ele><time>2026-04-25T15:02:12.368Z</time></trkpt><trkpt lat="31.59643" lon="-7.8951317"><ele>501.0</ele><time>2026-04-25T15:02:13.368Z</time></trkpt><trkpt lat="31.5966317" lon="-7.895275"><ele>501.0</ele><time>2026-04-25T15:02:14.368Z</time></trkpt><trkpt lat="31.5968317" lon="-7.8954133"><ele>501.0</ele><time>2026-04-25T15:02:15.368Z</time></trkpt><trkpt lat="31.5970333" lon="-7.8955517"><ele>501.5</ele><time>2026-04-25T15:02:16.368Z</time></trkpt><trkpt lat="31.5972317" lon="-7.8956917"><ele>502.0</ele><time>2026-04-25T15:02:17.368Z</time></trkpt><trkpt lat="31.5974333" lon="-7.8958267"><ele>502.5</ele><time>2026-04-25T15:02:18.368Z</time></trkpt><trkpt lat="31.5976283" lon="-7.8959633"><ele>503.0</ele><time>2026-04-25T15:02:19.368Z</time></trkpt><trkpt lat="31.5978317" lon="-7.8960983"><ele>502.0</ele><time>2026-04-25T15:02:20.368Z</time></trkpt><trkpt lat="31.59803" lon="-7.8962367"><ele>501.0</ele><time>2026-04-25T15:02:21.368Z</time></trkpt><trkpt lat="31.5982333" lon="-7.89637"><ele>501.0</ele><time>2026-04-25T15:02:22.368Z</time></trkpt><trkpt lat="31.5984283" lon="-7.896505"><ele>501.0</ele><time>2026-04-25T15:02:23.368Z</time></trkpt><trkpt lat="31.59863" lon="-7.8966333"><ele>499.5</ele><time>2026-04-25T15:02:24.368Z</time></trkpt><trkpt lat="31.5988283" lon="-7.8967667"><ele>498.0</ele><time>2026-04-25T15:02:25.368Z</time></trkpt><trkpt lat="31.599025" lon="-7.8969"><ele>498.0</ele><time>2026-04-25T15:02:26.368Z</time></trkpt><trkpt lat="31.5992233" lon="-7.89704"><ele>498.0</ele><time>2026-04-25T15:02:27.368Z</time></trkpt><trkpt lat="31.5994183" lon="-7.8971767"><ele>498.33333333333337</ele><time>2026-04-25T15:02:28.368Z</time></trkpt><trkpt lat="31.5996117" lon="-7.897305"><ele>498.6666666666667</ele><time>2026-04-25T15:02:29.368Z</time></trkpt><trkpt lat="31.59981" lon="-7.897435"><ele>499.0</ele><time>2026-04-25T15:02:30.368Z</time></trkpt><trkpt lat="31.6000067" lon="-7.8975733"><ele>499.0</ele><time>2026-04-25T15:02:31.368Z</time></trkpt><trkpt lat="31.6002033" lon="-7.8977117"><ele>499.0</ele><time>2026-04-25T15:02:32.368Z</time></trkpt><trkpt lat="31.6004" lon="-7.897845"><ele>499.0</ele><time>2026-04-25T15:02:33.368Z</time></trkpt><trkpt lat="31.600595" lon="-7.897975"><ele>499.0</ele><time>2026-04-25T15:02:34.368Z</time></trkpt><trkpt lat="31.6007917" lon="-7.8981083"><ele>499.0</ele><time>2026-04-25T15:02:35.368Z</time></trkpt><trkpt lat="31.600985" lon="-7.8982383"><ele>499.0</ele><time>2026-04-25T15:02:36.368Z</time></trkpt><trkpt lat="31.60118" lon="-7.8983683"><ele>499.0</ele><time>2026-04-25T15:02:37.368Z</time></trkpt><trkpt lat="31.6013733" lon="-7.8985"><ele>498.33333333333337</ele><time>2026-04-25T15:02:38.368Z</time></trkpt><trkpt lat="31.601565" lon="-7.8986317"><ele>497.66666666666663</ele><time>2026-04-25T15:02:39.368Z</time></trkpt><trkpt lat="31.6017617" lon="-7.8987617"><ele>497.0</ele><time>2026-04-25T15:02:40.368Z</time></trkpt><trkpt lat="31.6019583" lon="-7.898895"><ele>496.5</ele><time>2026-04-25T15:02:41.369Z</time></trkpt><trkpt lat="31.602155" lon="-7.8990267"><ele>496.0</ele><time>2026-04-25T15:02:42.368Z</time></trkpt><trkpt lat="31.60235" lon="-7.89916"><ele>495.5</ele><time>2026-04-25T15:02:43.368Z</time></trkpt><trkpt lat="31.602545" lon="-7.8992917"><ele>495.0</ele><time>2026-04-25T15:02:44.368Z</time></trkpt><trkpt lat="31.6027417" lon="-7.8994317"><ele>494.5</ele><time>2026-04-25T15:02:45.368Z</time></trkpt><trkpt lat="31.602935" lon="-7.8995717"><ele>494.0</ele><time>2026-04-25T15:02:46.368Z</time></trkpt><trkpt lat="31.6031317" lon="-7.8997117"><ele>494.0</ele><time>2026-04-25T15:02:47.368Z</time></trkpt><trkpt lat="31.60333" lon="-7.8998417"><ele>494.0</ele><time>2026-04-25T15:02:48.368Z</time></trkpt><trkpt lat="31.603525" lon="-7.8999733"><ele>494.5</ele><time>2026-04-25T15:02:49.368Z</time></trkpt><trkpt lat="31.6037217" lon="-7.9001067"><ele>495.0</ele><time>2026-04-25T15:02:50.368Z</time></trkpt><trkpt lat="31.6039167" lon="-7.9002417"><ele>495.0</ele><time>2026-04-25T15:02:51.368Z</time></trkpt><trkpt lat="31.604115" lon="-7.9003717"><ele>495.0</ele><time>2026-04-25T15:02:52.368Z</time></trkpt><trkpt lat="31.60431" lon="-7.900505"><ele>494.0</ele><time>2026-04-25T15:02:53.368Z</time></trkpt><trkpt lat="31.6045067" lon="-7.9006367"><ele>493.0</ele><time>2026-04-25T15:02:54.368Z</time></trkpt><trkpt lat="31.604705" lon="-7.9007717"><ele>493.0</ele><time>2026-04-25T15:02:55.368Z</time></trkpt><trkpt lat="31.6048967" lon="-7.9009117"><ele>493.0</ele><time>2026-04-25T15:02:56.369Z</time></trkpt><trkpt lat="31.6050883" lon="-7.90105"><ele>493.0</ele><time>2026-04-25T15:02:57.368Z</time></trkpt><trkpt lat="31.6052817" lon="-7.9011867"><ele>493.0</ele><time>2026-04-25T15:02:58.368Z</time></trkpt><trkpt lat="31.6054783" lon="-7.9013217"><ele>493.0</ele><time>2026-04-25T15:02:59.368Z</time></trkpt><trkpt lat="31.6056733" lon="-7.9014567"><ele>493.0</ele><time>2026-04-25T15:03:00.368Z</time></trkpt><trkpt lat="31.6058733" lon="-7.90159"><ele>493.0</ele><time>2026-04-25T15:03:01.368Z</time></trkpt><trkpt lat="31.6060633" lon="-7.9017233"><ele>493.0</ele><time>2026-04-25T15:03:02.369Z</time></trkpt><trkpt lat="31.6062583" lon="-7.901855"><ele>493.0</ele><time>2026-04-25T15:03:03.368Z</time></trkpt><trkpt lat="31.6064533" lon="-7.9019883"><ele>493.0</ele><time>2026-04-25T15:03:04.368Z</time></trkpt><trkpt lat="31.60665" lon="-7.9021217"><ele>493.0</ele><time>2026-04-25T15:03:05.368Z</time></trkpt><trkpt lat="31.6068433" lon="-7.9022533"><ele>493.0</ele><time>2026-04-25T15:03:06.368Z</time></trkpt><trkpt lat="31.6070317" lon="-7.9023817"><ele>493.0</ele><time>2026-04-25T15:03:07.368Z</time></trkpt><trkpt lat="31.6072267" lon="-7.9025067"><ele>493.0</ele><time>2026-04-25T15:03:08.368Z</time></trkpt><trkpt lat="31.607415" lon="-7.9026367"><ele>493.0</ele><time>2026-04-25T15:03:09.368Z</time></trkpt><trkpt lat="31.6076" lon="-7.9027683"><ele>493.0</ele><time>2026-04-25T15:03:10.368Z</time></trkpt><trkpt lat="31.6077833" lon="-7.9028967"><ele>493.0</ele><time>2026-04-25T15:03:11.368Z</time></trkpt><trkpt lat="31.6079683" lon="-7.9030267"><ele>492.6666666666667</ele><time>2026-04-25T15:03:12.369Z</time></trkpt><trkpt lat="31.608155" lon="-7.9031517"><ele>492.33333333333337</ele><time>2026-04-25T15:03:13.368Z</time></trkpt><trkpt lat="31.6083483" lon="-7.9032733"><ele>492.0</ele><time>2026-04-25T15:03:14.368Z</time></trkpt><trkpt lat="31.6085317" lon="-7.9034017"><ele>491.66666666666663</ele><time>2026-04-25T15:03:15.368Z</time></trkpt><trkpt lat="31.608715" lon="-7.90353"><ele>491.3333333333333</ele><time>2026-04-25T15:03:16.368Z</time></trkpt><trkpt lat="31.608905" lon="-7.9036583"><ele>491.0</ele><time>2026-04-25T15:03:17.368Z</time></trkpt><trkpt lat="31.6090967" lon="-7.90378"><ele>491.0</ele><time>2026-04-25T15:03:18.368Z</time></trkpt><trkpt lat="31.609285" lon="-7.903905"><ele>491.0</ele><time>2026-04-25T15:03:19.368Z</time></trkpt><trkpt lat="31.6094667" lon="-7.9040367"><ele>491.0</ele><time>2026-04-25T15:03:20.368Z</time></trkpt><trkpt lat="31.6096467" lon="-7.9041617"><ele>490.66666666666663</ele><time>2026-04-25T15:03:21.368Z</time></trkpt><trkpt lat="31.609825" lon="-7.9042817"><ele>490.33333333333337</ele><time>2026-04-25T15:03:22.368Z</time></trkpt><trkpt lat="31.6099917" lon="-7.9043983"><ele>490.0</ele><time>2026-04-25T15:03:23.368Z</time></trkpt><trkpt lat="31.6101517" lon="-7.904505"><ele>490.0</ele><time>2026-04-25T15:03:24.368Z</time></trkpt><trkpt lat="31.6103067" lon="-7.90461"><ele>490.0</ele><time>2026-04-25T15:03:25.368Z</time></trkpt><trkpt lat="31.6104583" lon="-7.90471"><ele>490.0</ele><time>2026-04-25T15:03:26.368Z</time></trkpt><trkpt lat="31.6106017" lon="-7.9047917"><ele>489.75</ele><time>2026-04-25T15:03:27.368Z</time></trkpt><trkpt lat="31.6107283" lon="-7.9048567"><ele>489.5</ele><time>2026-04-25T15:03:28.368Z</time></trkpt><trkpt lat="31.61085" lon="-7.9048967"><ele>489.25</ele><time>2026-04-25T15:03:29.368Z</time></trkpt><trkpt lat="31.610965" lon="-7.9049433"><ele>489.0</ele><time>2026-04-25T15:03:30.368Z</time></trkpt><trkpt lat="31.6110617" lon="-7.9050183"><ele>489.0</ele><time>2026-04-25T15:03:31.368Z</time></trkpt><trkpt lat="31.61114" lon="-7.90512"><ele>489.0</ele><time>2026-04-25T15:03:32.368Z</time></trkpt><trkpt lat="31.6112233" lon="-7.9052317"><ele>489.0</ele><time>2026-04-25T15:03:33.368Z</time></trkpt><trkpt lat="31.6113333" lon="-7.9053283"><ele>489.0</ele><time>2026-04-25T15:03:34.368Z</time></trkpt><trkpt lat="31.6114717" lon="-7.9054167"><ele>489.33333333333337</ele><time>2026-04-25T15:03:35.368Z</time></trkpt><trkpt lat="31.61162" lon="-7.905505"><ele>489.6666666666667</ele><time>2026-04-25T15:03:36.368Z</time></trkpt><trkpt lat="31.6117717" lon="-7.9056017"><ele>490.0</ele><time>2026-04-25T15:03:37.368Z</time></trkpt><trkpt lat="31.6119233" lon="-7.9057083"><ele>490.33333333333337</ele><time>2026-04-25T15:03:38.368Z</time></trkpt><trkpt lat="31.6120817" lon="-7.9058217"><ele>490.66666666666663</ele><time>2026-04-25T15:03:39.368Z</time></trkpt><trkpt lat="31.6122467" lon="-7.9059367"><ele>491.0</ele><time>2026-04-25T15:03:40.368Z</time></trkpt><trkpt lat="31.61242" lon="-7.9060533"><ele>491.0</ele><time>2026-04-25T15:03:41.368Z</time></trkpt><trkpt lat="31.6125967" lon="-7.9061783"><ele>491.0</ele><time>2026-04-25T15:03:42.368Z</time></trkpt><trkpt lat="31.61278" lon="-7.9063"><ele>491.0</ele><time>2026-04-25T15:03:43.368Z</time></trkpt><trkpt lat="31.6129717" lon="-7.9064233"><ele>490.0</ele><time>2026-04-25T15:03:44.368Z</time></trkpt><trkpt lat="31.61316" lon="-7.906555"><ele>489.0</ele><time>2026-04-25T15:03:45.368Z</time></trkpt><trkpt lat="31.613355" lon="-7.90669"><ele>488.0</ele><time>2026-04-25T15:03:46.368Z</time></trkpt><trkpt lat="31.6135517" lon="-7.9068167"><ele>487.0</ele><time>2026-04-25T15:03:47.368Z</time></trkpt><trkpt lat="31.61375" lon="-7.9069533"><ele>486.0</ele><time>2026-04-25T15:03:48.368Z</time></trkpt><trkpt lat="31.6139483" lon="-7.907095"><ele>486.0</ele><time>2026-04-25T15:03:49.368Z</time></trkpt><trkpt lat="31.6141483" lon="-7.907235"><ele>486.0</ele><time>2026-04-25T15:03:50.368Z</time></trkpt><trkpt lat="31.614355" lon="-7.90737"><ele>486.0</ele><time>2026-04-25T15:03:51.368Z</time></trkpt><trkpt lat="31.614565" lon="-7.907515"><ele>486.0</ele><time>2026-04-25T15:03:52.368Z</time></trkpt><trkpt lat="31.6147717" lon="-7.9076617"><ele>486.0</ele><time>2026-04-25T15:03:53.368Z</time></trkpt><trkpt lat="31.6149833" lon="-7.907805"><ele>486.0</ele><time>2026-04-25T15:03:54.368Z</time></trkpt><trkpt lat="31.615195" lon="-7.9079483"><ele>486.5</ele><time>2026-04-25T15:03:55.369Z</time></trkpt><trkpt lat="31.61541" lon="-7.9080917"><ele>487.0</ele><time>2026-04-25T15:03:56.368Z</time></trkpt><trkpt lat="31.6156217" lon="-7.908235"><ele>487.0</ele><time>2026-04-25T15:03:57.368Z</time></trkpt><trkpt lat="31.6158367" lon="-7.9083867"><ele>487.0</ele><time>2026-04-25T15:03:58.368Z</time></trkpt><trkpt lat="31.6160467" lon="-7.9085333"><ele>486.0</ele><time>2026-04-25T15:03:59.368Z</time></trkpt><trkpt lat="31.6162517" lon="-7.90867"><ele>485.0</ele><time>2026-04-25T15:04:00.368Z</time></trkpt><trkpt lat="31.61645" lon="-7.9088033"><ele>485.0</ele><time>2026-04-25T15:04:01.368Z</time></trkpt><trkpt lat="31.616645" lon="-7.90894"><ele>485.0</ele><time>2026-04-25T15:04:02.368Z</time></trkpt><trkpt lat="31.61684" lon="-7.909075"><ele>485.0</ele><time>2026-04-25T15:04:03.368Z</time></trkpt><trkpt lat="31.61704" lon="-7.9092117"><ele>485.0</ele><time>2026-04-25T15:04:04.369Z</time></trkpt><trkpt lat="31.6172417" lon="-7.90935"><ele>484.5</ele><time>2026-04-25T15:04:05.368Z</time></trkpt><trkpt lat="31.6174517" lon="-7.9094917"><ele>484.0</ele><time>2026-04-25T15:04:06.368Z</time></trkpt><trkpt lat="31.6176617" lon="-7.9096383"><ele>484.0</ele><time>2026-04-25T15:04:07.368Z</time></trkpt><trkpt lat="31.6178767" lon="-7.9097833"><ele>484.0</ele><time>2026-04-25T15:04:08.368Z</time></trkpt><trkpt lat="31.6180933" lon="-7.90993"><ele>484.0</ele><time>2026-04-25T15:04:09.368Z</time></trkpt><trkpt lat="31.6183133" lon="-7.9100733"><ele>484.0</ele><time>2026-04-25T15:04:10.368Z</time></trkpt><trkpt lat="31.6185333" lon="-7.9102217"><ele>483.5</ele><time>2026-04-25T15:04:11.368Z</time></trkpt><trkpt lat="31.6187517" lon="-7.910375"><ele>483.0</ele><time>2026-04-25T15:04:12.368Z</time></trkpt><trkpt lat="31.6189583" lon="-7.9105183"><ele>483.0</ele><time>2026-04-25T15:04:13.368Z</time></trkpt><trkpt lat="31.619155" lon="-7.9106533"><ele>483.0</ele><time>2026-04-25T15:04:14.368Z</time></trkpt><trkpt lat="31.6193467" lon="-7.9107817"><ele>483.0</ele><time>2026-04-25T15:04:15.368Z</time></trkpt><trkpt lat="31.6195417" lon="-7.9109117"><ele>481.5</ele><time>2026-04-25T15:04:16.368Z</time></trkpt><trkpt lat="31.619735" lon="-7.9110483"><ele>480.0</ele><time>2026-04-25T15:04:17.368Z</time></trkpt><trkpt lat="31.6199333" lon="-7.9111833"><ele>480.0</ele><time>2026-04-25T15:04:18.368Z</time></trkpt><trkpt lat="31.6201317" lon="-7.9113217"><ele>480.0</ele><time>2026-04-25T15:04:19.368Z</time></trkpt><trkpt lat="31.6203267" lon="-7.9114533"><ele>480.0</ele><time>2026-04-25T15:04:20.368Z</time></trkpt><trkpt lat="31.6205117" lon="-7.9115833"><ele>480.0</ele><time>2026-04-25T15:04:21.368Z</time></trkpt><trkpt lat="31.6206933" lon="-7.9117067"><ele>480.0</ele><time>2026-04-25T15:04:22.368Z</time></trkpt><trkpt lat="31.620875" lon="-7.9118267"><ele>480.33333333333337</ele><time>2026-04-25T15:04:23.368Z</time></trkpt><trkpt lat="31.6210567" lon="-7.9119533"><ele>480.6666666666667</ele><time>2026-04-25T15:04:24.368Z</time></trkpt><trkpt lat="31.6212383" lon="-7.91208"><ele>481.0</ele><time>2026-04-25T15:04:25.368Z</time></trkpt><trkpt lat="31.62142" lon="-7.9122017"><ele>481.0</ele><time>2026-04-25T15:04:26.368Z</time></trkpt><trkpt lat="31.6216017" lon="-7.9123283"><ele>481.0</ele><time>2026-04-25T15:04:27.368Z</time></trkpt><trkpt lat="31.621785" lon="-7.9124567"><ele>481.0</ele><time>2026-04-25T15:04:28.368Z</time></trkpt><trkpt lat="31.6219733" lon="-7.9125867"><ele>480.33333333333337</ele><time>2026-04-25T15:04:29.368Z</time></trkpt><trkpt lat="31.622165" lon="-7.91272"><ele>479.66666666666663</ele><time>2026-04-25T15:04:30.368Z</time></trkpt><trkpt lat="31.622355" lon="-7.9128517"><ele>479.0</ele><time>2026-04-25T15:04:31.368Z</time></trkpt><trkpt lat="31.622545" lon="-7.9129833"><ele>479.0</ele><time>2026-04-25T15:04:32.368Z</time></trkpt><trkpt lat="31.6227367" lon="-7.9131133"><ele>479.0</ele><time>2026-04-25T15:04:33.368Z</time></trkpt><trkpt lat="31.62293" lon="-7.9132417"><ele>479.0</ele><time>2026-04-25T15:04:34.368Z</time></trkpt><trkpt lat="31.6231233" lon="-7.9133733"><ele>479.3333333333333</ele><time>2026-04-25T15:04:35.368Z</time></trkpt><trkpt lat="31.623315" lon="-7.9135067"><ele>479.66666666666663</ele><time>2026-04-25T15:04:36.368Z</time></trkpt><trkpt lat="31.62351" lon="-7.91364"><ele>480.0</ele><time>2026-04-25T15:04:37.368Z</time></trkpt><trkpt lat="31.6237033" lon="-7.9137717"><ele>480.0</ele><time>2026-04-25T15:04:38.368Z</time></trkpt><trkpt lat="31.6239" lon="-7.913905"><ele>480.0</ele><time>2026-04-25T15:04:39.368Z</time></trkpt><trkpt lat="31.6240917" lon="-7.9140417"><ele>480.0</ele><time>2026-04-25T15:04:40.368Z</time></trkpt><trkpt lat="31.62428" lon="-7.9141717"><ele>480.0</ele><time>2026-04-25T15:04:41.368Z</time></trkpt><trkpt lat="31.624465" lon="-7.9142983"><ele>480.0</ele><time>2026-04-25T15:04:42.368Z</time></trkpt><trkpt lat="31.6246483" lon="-7.91443"><ele>480.0</ele><time>2026-04-25T15:04:43.369Z</time></trkpt><trkpt lat="31.6248333" lon="-7.9145617"><ele>480.0</ele><time>2026-04-25T15:04:44.368Z</time></trkpt><trkpt lat="31.6250217" lon="-7.91469"><ele>480.0</ele><time>2026-04-25T15:04:45.368Z</time></trkpt><trkpt lat="31.625205" lon="-7.91482"><ele>479.33333333333337</ele><time>2026-04-25T15:04:46.368Z</time></trkpt><trkpt lat="31.6253933" lon="-7.914945"><ele>478.6666666666667</ele><time>2026-04-25T15:04:47.368Z</time></trkpt><trkpt lat="31.6255733" lon="-7.9150633"><ele>478.0</ele><time>2026-04-25T15:04:48.369Z</time></trkpt><trkpt lat="31.625745" lon="-7.9151883"><ele>478.0</ele><time>2026-04-25T15:04:49.369Z</time></trkpt><trkpt lat="31.625905" lon="-7.9153017"><ele>478.0</ele><time>2026-04-25T15:04:50.368Z</time></trkpt><trkpt lat="31.6260567" lon="-7.9154067"><ele>478.0</ele><time>2026-04-25T15:04:51.368Z</time></trkpt><trkpt lat="31.6261933" lon="-7.9155"><ele>477.75</ele><time>2026-04-25T15:04:52.368Z</time></trkpt><trkpt lat="31.6263183" lon="-7.9155867"><ele>477.5</ele><time>2026-04-25T15:04:53.368Z</time></trkpt><trkpt lat="31.626425" lon="-7.9156583"><ele>477.25</ele><time>2026-04-25T15:04:54.368Z</time></trkpt><trkpt lat="31.62652" lon="-7.91572"><ele>477.0</ele><time>2026-04-25T15:04:55.368Z</time></trkpt><trkpt lat="31.6265967" lon="-7.9157733"><ele>477.0</ele><time>2026-04-25T15:04:56.368Z</time></trkpt><trkpt lat="31.6266633" lon="-7.9158217"><ele>477.00000000000006</ele><time>2026-04-25T15:04:57.368Z</time></trkpt><trkpt lat="31.6267217" lon="-7.91586"><ele>477.00000000000006</ele><time>2026-04-25T15:04:58.368Z</time></trkpt><trkpt lat="31.62683" lon="-7.9159167"><ele>477.0</ele><time>2026-04-25T15:05:00.368Z</time></trkpt><trkpt lat="31.6269217" lon="-7.91596"><ele>477.0</ele><time>2026-04-25T15:05:02.368Z</time></trkpt><trkpt lat="31.6270183" lon="-7.9159883"><ele>477.20000000000005</ele><time>2026-04-25T15:05:05.367Z</time></trkpt><trkpt lat="31.6271083" lon="-7.9160017"><ele>477.40000000000003</ele><time>2026-04-25T15:05:07.367Z</time></trkpt><trkpt lat="31.6272117" lon="-7.9160333"><ele>477.59999999999997</ele><time>2026-04-25T15:05:09.368Z</time></trkpt><trkpt lat="31.6273033" lon="-7.9161433"><ele>477.79999999999995</ele><time>2026-04-25T15:05:11.367Z</time></trkpt><trkpt lat="31.6273467" lon="-7.9162133"><ele>478.0</ele><time>2026-04-25T15:05:12.367Z</time></trkpt><trkpt lat="31.6274" lon="-7.9162867"><ele>478.0</ele><time>2026-04-25T15:05:13.367Z</time></trkpt><trkpt lat="31.6274683" lon="-7.9163617"><ele>477.99999999999994</ele><time>2026-04-25T15:05:14.368Z</time></trkpt><trkpt lat="31.627555" lon="-7.9164333"><ele>477.99999999999994</ele><time>2026-04-25T15:05:15.367Z</time></trkpt><trkpt lat="31.62765" lon="-7.9164983"><ele>478.0</ele><time>2026-04-25T15:05:16.367Z</time></trkpt><trkpt lat="31.6277533" lon="-7.916565"><ele>478.0</ele><time>2026-04-25T15:05:17.368Z</time></trkpt><trkpt lat="31.6278567" lon="-7.9166317"><ele>477.5</ele><time>2026-04-25T15:05:18.367Z</time></trkpt><trkpt lat="31.62796" lon="-7.9166967"><ele>477.0</ele><time>2026-04-25T15:05:19.367Z</time></trkpt><trkpt lat="31.6280617" lon="-7.9167733"><ele>476.5</ele><time>2026-04-25T15:05:20.367Z</time></trkpt><trkpt lat="31.6281733" lon="-7.9168517"><ele>476.0</ele><time>2026-04-25T15:05:21.367Z</time></trkpt><trkpt lat="31.62829" lon="-7.91693"><ele>476.0</ele><time>2026-04-25T15:05:22.367Z</time></trkpt><trkpt lat="31.6284167" lon="-7.91701"><ele>476.0</ele><time>2026-04-25T15:05:23.367Z</time></trkpt><trkpt lat="31.6285433" lon="-7.9170967"><ele>476.0</ele><time>2026-04-25T15:05:24.367Z</time></trkpt><trkpt lat="31.6286717" lon="-7.9171783"><ele>476.0</ele><time>2026-04-25T15:05:25.367Z</time></trkpt><trkpt lat="31.6287933" lon="-7.9172633"><ele>475.75</ele><time>2026-04-25T15:05:26.367Z</time></trkpt><trkpt lat="31.6289167" lon="-7.91735"><ele>475.5</ele><time>2026-04-25T15:05:27.367Z</time></trkpt><trkpt lat="31.6290433" lon="-7.9174383"><ele>475.25</ele><time>2026-04-25T15:05:28.367Z</time></trkpt><trkpt lat="31.6291667" lon="-7.9175283"><ele>475.0</ele><time>2026-04-25T15:05:29.367Z</time></trkpt><trkpt lat="31.6292983" lon="-7.91761"><ele>474.33333333333337</ele><time>2026-04-25T15:05:30.367Z</time></trkpt><trkpt lat="31.6294283" lon="-7.9177"><ele>473.66666666666663</ele><time>2026-04-25T15:05:31.367Z</time></trkpt><trkpt lat="31.6295633" lon="-7.9177933"><ele>473.0</ele><time>2026-04-25T15:05:32.367Z</time></trkpt><trkpt lat="31.6297017" lon="-7.917885"><ele>473.0</ele><time>2026-04-25T15:05:33.367Z</time></trkpt><trkpt lat="31.6298417" lon="-7.9179733"><ele>473.0</ele><time>2026-04-25T15:05:34.367Z</time></trkpt><trkpt lat="31.629985" lon="-7.91806"><ele>473.0</ele><time>2026-04-25T15:05:35.367Z</time></trkpt><trkpt lat="31.6301317" lon="-7.918155"><ele>473.0</ele><time>2026-04-25T15:05:36.367Z</time></trkpt><trkpt lat="31.6302833" lon="-7.9182567"><ele>473.0</ele><time>2026-04-25T15:05:37.367Z</time></trkpt><trkpt lat="31.6304417" lon="-7.918365"><ele>473.0</ele><time>2026-04-25T15:05:38.368Z</time></trkpt><trkpt lat="31.630605" lon="-7.9184733"><ele>473.3333333333333</ele><time>2026-04-25T15:05:39.367Z</time></trkpt><trkpt lat="31.630775" lon="-7.9185867"><ele>473.66666666666663</ele><time>2026-04-25T15:05:40.368Z</time></trkpt><trkpt lat="31.6309467" lon="-7.9187"><ele>474.0</ele><time>2026-04-25T15:05:41.367Z</time></trkpt><trkpt lat="31.6311167" lon="-7.918825"><ele>474.33333333333337</ele><time>2026-04-25T15:05:42.367Z</time></trkpt><trkpt lat="31.6312933" lon="-7.9189533"><ele>474.6666666666667</ele><time>2026-04-25T15:05:43.367Z</time></trkpt><trkpt lat="31.6314717" lon="-7.919085"><ele>475.0</ele><time>2026-04-25T15:05:44.367Z</time></trkpt><trkpt lat="31.63165" lon="-7.9192183"><ele>475.0</ele><time>2026-04-25T15:05:45.367Z</time></trkpt><trkpt lat="31.63183" lon="-7.9193433"><ele>475.0</ele><time>2026-04-25T15:05:46.367Z</time></trkpt><trkpt lat="31.632" lon="-7.9194633"><ele>475.0</ele><time>2026-04-25T15:05:47.367Z</time></trkpt><trkpt lat="31.632165" lon="-7.9195817"><ele>474.0</ele><time>2026-04-25T15:05:48.367Z</time></trkpt><trkpt lat="31.6323233" lon="-7.91969"><ele>473.0</ele><time>2026-04-25T15:05:49.367Z</time></trkpt><trkpt lat="31.63248" lon="-7.9197917"><ele>472.0</ele><time>2026-04-25T15:05:50.368Z</time></trkpt><trkpt lat="31.63263" lon="-7.9198933"><ele>472.0</ele><time>2026-04-25T15:05:51.367Z</time></trkpt><trkpt lat="31.6327717" lon="-7.91999"><ele>472.0</ele><time>2026-04-25T15:05:52.367Z</time></trkpt><trkpt lat="31.6329133" lon="-7.92008"><ele>472.0</ele><time>2026-04-25T15:05:53.367Z</time></trkpt><trkpt lat="31.6330517" lon="-7.920175"><ele>471.75</ele><time>2026-04-25T15:05:54.367Z</time></trkpt><trkpt lat="31.633185" lon="-7.9202633"><ele>471.5</ele><time>2026-04-25T15:05:55.367Z</time></trkpt><trkpt lat="31.6333117" lon="-7.92035"><ele>471.25</ele><time>2026-04-25T15:05:56.367Z</time></trkpt><trkpt lat="31.6334317" lon="-7.9204317"><ele>471.0</ele><time>2026-04-25T15:05:57.367Z</time></trkpt><trkpt lat="31.6335417" lon="-7.9205033"><ele>471.0</ele><time>2026-04-25T15:05:58.367Z</time></trkpt><trkpt lat="31.6336367" lon="-7.920555"><ele>471.0</ele><time>2026-04-25T15:05:59.367Z</time></trkpt><trkpt lat="31.6337183" lon="-7.92059"><ele>471.0</ele><time>2026-04-25T15:06:00.367Z</time></trkpt><trkpt lat="31.6338017" lon="-7.92061"><ele>471.0</ele><time>2026-04-25T15:06:01.367Z</time></trkpt><trkpt lat="31.633875" lon="-7.92063"><ele>471.0</ele><time>2026-04-25T15:06:02.367Z</time></trkpt><trkpt lat="31.633945" lon="-7.9206667"><ele>471.0</ele><time>2026-04-25T15:06:03.367Z</time></trkpt><trkpt lat="31.6340033" lon="-7.9207233"><ele>471.0</ele><time>2026-04-25T15:06:04.367Z</time></trkpt><trkpt lat="31.6340667" lon="-7.9208083"><ele>471.0</ele><time>2026-04-25T15:06:05.367Z</time></trkpt><trkpt lat="31.6341417" lon="-7.9209017"><ele>471.0</ele><time>2026-04-25T15:06:06.367Z</time></trkpt><trkpt lat="31.634245" lon="-7.9209933"><ele>471.0</ele><time>2026-04-25T15:06:07.367Z</time></trkpt><trkpt lat="31.6343667" lon="-7.9210833"><ele>471.0</ele><time>2026-04-25T15:06:08.367Z</time></trkpt><trkpt lat="31.6345067" lon="-7.921175"><ele>471.0</ele><time>2026-04-25T15:06:09.367Z</time></trkpt><trkpt lat="31.6346567" lon="-7.9212683"><ele>471.0</ele><time>2026-04-25T15:06:10.367Z</time></trkpt><trkpt lat="31.6348167" lon="-7.921365"><ele>471.0</ele><time>2026-04-25T15:06:11.367Z</time></trkpt><trkpt lat="31.6349817" lon="-7.9214733"><ele>471.0</ele><time>2026-04-25T15:06:12.367Z</time></trkpt><trkpt lat="31.6351533" lon="-7.9215867"><ele>471.0</ele><time>2026-04-25T15:06:13.367Z</time></trkpt><trkpt lat="31.63533" lon="-7.9217067"><ele>471.0</ele><time>2026-04-25T15:06:14.367Z</time></trkpt><trkpt lat="31.63551" lon="-7.9218317"><ele>471.0</ele><time>2026-04-25T15:06:15.367Z</time></trkpt><trkpt lat="31.6356967" lon="-7.92196"><ele>471.0</ele><time>2026-04-25T15:06:16.368Z</time></trkpt><trkpt lat="31.6358833" lon="-7.9220883"><ele>471.0</ele><time>2026-04-25T15:06:17.368Z</time></trkpt><trkpt lat="31.6360667" lon="-7.922215"><ele>471.0</ele><time>2026-04-25T15:06:18.368Z</time></trkpt><trkpt lat="31.6362517" lon="-7.9223383"><ele>471.0</ele><time>2026-04-25T15:06:19.367Z</time></trkpt><trkpt lat="31.6364333" lon="-7.922465"><ele>471.0</ele><time>2026-04-25T15:06:20.367Z</time></trkpt><trkpt lat="31.6366183" lon="-7.92259"><ele>471.0</ele><time>2026-04-25T15:06:21.367Z</time></trkpt><trkpt lat="31.6368" lon="-7.9227133"><ele>471.0</ele><time>2026-04-25T15:06:22.367Z</time></trkpt><trkpt lat="31.63698" lon="-7.922835"><ele>470.33333333333337</ele><time>2026-04-25T15:06:23.367Z</time></trkpt><trkpt lat="31.63716" lon="-7.9229583"><ele>469.6666666666667</ele><time>2026-04-25T15:06:24.367Z</time></trkpt><trkpt lat="31.6373417" lon="-7.92308"><ele>469.0</ele><time>2026-04-25T15:06:25.367Z</time></trkpt><trkpt lat="31.637525" lon="-7.9232"><ele>469.0</ele><time>2026-04-25T15:06:26.367Z</time></trkpt><trkpt lat="31.6377067" lon="-7.9233233"><ele>469.0</ele><time>2026-04-25T15:06:27.367Z</time></trkpt><trkpt lat="31.6378883" lon="-7.92345"><ele>469.0</ele><time>2026-04-25T15:06:28.367Z</time></trkpt><trkpt lat="31.6380717" lon="-7.9235733"><ele>469.6666666666667</ele><time>2026-04-25T15:06:29.367Z</time></trkpt><trkpt lat="31.63825" lon="-7.9236983"><ele>470.33333333333337</ele><time>2026-04-25T15:06:30.367Z</time></trkpt><trkpt lat="31.6384367" lon="-7.923825"><ele>471.0</ele><time>2026-04-25T15:06:31.367Z</time></trkpt><trkpt lat="31.63862" lon="-7.9239533"><ele>471.0</ele><time>2026-04-25T15:06:32.368Z</time></trkpt><trkpt lat="31.638805" lon="-7.9240817"><ele>471.0</ele><time>2026-04-25T15:06:33.367Z</time></trkpt><trkpt lat="31.638995" lon="-7.9242133"><ele>471.0</ele><time>2026-04-25T15:06:34.367Z</time></trkpt><trkpt lat="31.639185" lon="-7.9243433"><ele>471.0</ele><time>2026-04-25T15:06:35.367Z</time></trkpt><trkpt lat="31.6393733" lon="-7.92447"><ele>471.0</ele><time>2026-04-25T15:06:36.367Z</time></trkpt><trkpt lat="31.639565" lon="-7.9245983"><ele>471.0</ele><time>2026-04-25T15:06:37.367Z</time></trkpt><trkpt lat="31.639755" lon="-7.9247267"><ele>471.0</ele><time>2026-04-25T15:06:38.368Z</time></trkpt><trkpt lat="31.63994" lon="-7.9248533"><ele>471.0</ele><time>2026-04-25T15:06:39.367Z</time></trkpt><trkpt lat="31.6401217" lon="-7.9249783"><ele>471.0</ele><time>2026-04-25T15:06:40.367Z</time></trkpt><trkpt lat="31.6403083" lon="-7.9251033"><ele>471.0</ele><time>2026-04-25T15:06:41.367Z</time></trkpt><trkpt lat="31.6404917" lon="-7.9252317"><ele>471.0</ele><time>2026-04-25T15:06:42.368Z</time></trkpt><trkpt lat="31.6406767" lon="-7.9253567"><ele>471.0</ele><time>2026-04-25T15:06:43.367Z</time></trkpt><trkpt lat="31.6408633" lon="-7.9254817"><ele>471.0</ele><time>2026-04-25T15:06:44.367Z</time></trkpt><trkpt lat="31.6410467" lon="-7.9256133"><ele>471.0</ele><time>2026-04-25T15:06:45.367Z</time></trkpt><trkpt lat="31.6412283" lon="-7.9257433"><ele>471.0</ele><time>2026-04-25T15:06:46.367Z</time></trkpt><trkpt lat="31.6414117" lon="-7.9258717"><ele>470.66666666666663</ele><time>2026-04-25T15:06:47.367Z</time></trkpt><trkpt lat="31.6415983" lon="-7.9260017"><ele>470.3333333333333</ele><time>2026-04-25T15:06:48.367Z</time></trkpt><trkpt lat="31.6417833" lon="-7.92613"><ele>470.0</ele><time>2026-04-25T15:06:49.367Z</time></trkpt><trkpt lat="31.6419683" lon="-7.9262533"><ele>470.0</ele><time>2026-04-25T15:06:50.367Z</time></trkpt><trkpt lat="31.6421567" lon="-7.9263783"><ele>470.0</ele><time>2026-04-25T15:06:51.367Z</time></trkpt><trkpt lat="31.6423433" lon="-7.9265067"><ele>470.0</ele><time>2026-04-25T15:06:52.367Z</time></trkpt><trkpt lat="31.6425267" lon="-7.926635"><ele>469.3333333333333</ele><time>2026-04-25T15:06:53.367Z</time></trkpt><trkpt lat="31.6427067" lon="-7.9267633"><ele>468.66666666666663</ele><time>2026-04-25T15:06:54.367Z</time></trkpt><trkpt lat="31.6428917" lon="-7.9268867"><ele>468.0</ele><time>2026-04-25T15:06:55.367Z</time></trkpt><trkpt lat="31.643075" lon="-7.92701"><ele>468.0</ele><time>2026-04-25T15:06:56.367Z</time></trkpt><trkpt lat="31.6432583" lon="-7.9271333"><ele>468.0</ele><time>2026-04-25T15:06:57.367Z</time></trkpt><trkpt lat="31.6434417" lon="-7.9272617"><ele>468.0</ele><time>2026-04-25T15:06:58.367Z</time></trkpt><trkpt lat="31.6436267" lon="-7.9273917"><ele>468.0</ele><time>2026-04-25T15:06:59.367Z</time></trkpt><trkpt lat="31.6438067" lon="-7.92752"><ele>468.0</ele><time>2026-04-25T15:07:00.367Z</time></trkpt><trkpt lat="31.6439867" lon="-7.9276417"><ele>468.0</ele><time>2026-04-25T15:07:01.367Z</time></trkpt><trkpt lat="31.6441533" lon="-7.9277583"><ele>468.0</ele><time>2026-04-25T15:07:02.367Z</time></trkpt><trkpt lat="31.64432" lon="-7.9278617"><ele>468.0</ele><time>2026-04-25T15:07:03.367Z</time></trkpt><trkpt lat="31.6444767" lon="-7.9279667"><ele>468.0</ele><time>2026-04-25T15:07:04.367Z</time></trkpt><trkpt lat="31.6446317" lon="-7.9280733"><ele>468.33333333333337</ele><time>2026-04-25T15:07:05.367Z</time></trkpt><trkpt lat="31.644785" lon="-7.928175"><ele>468.6666666666667</ele><time>2026-04-25T15:07:06.367Z</time></trkpt><trkpt lat="31.6449333" lon="-7.9282783"><ele>469.0</ele><time>2026-04-25T15:07:07.367Z</time></trkpt><trkpt lat="31.64508" lon="-7.9283817"><ele>468.33333333333337</ele><time>2026-04-25T15:07:08.367Z</time></trkpt><trkpt lat="31.6452233" lon="-7.9284833"><ele>467.66666666666663</ele><time>2026-04-25T15:07:09.367Z</time></trkpt><trkpt lat="31.6453633" lon="-7.92858"><ele>467.0</ele><time>2026-04-25T15:07:10.368Z</time></trkpt><trkpt lat="31.6454967" lon="-7.9286733"><ele>466.3333333333333</ele><time>2026-04-25T15:07:11.367Z</time></trkpt><trkpt lat="31.6456317" lon="-7.9287667"><ele>465.66666666666663</ele><time>2026-04-25T15:07:12.367Z</time></trkpt><trkpt lat="31.6457733" lon="-7.928855"><ele>465.0</ele><time>2026-04-25T15:07:13.368Z</time></trkpt><trkpt lat="31.6459183" lon="-7.9289433"><ele>465.0</ele><time>2026-04-25T15:07:14.368Z</time></trkpt><trkpt lat="31.6460717" lon="-7.9290183"><ele>465.0</ele><time>2026-04-25T15:07:15.367Z</time></trkpt><trkpt lat="31.64623" lon="-7.9290867"><ele>465.0</ele><time>2026-04-25T15:07:16.367Z</time></trkpt><trkpt lat="31.6463867" lon="-7.929145"><ele>465.0</ele><time>2026-04-25T15:07:17.368Z</time></trkpt><trkpt lat="31.6465333" lon="-7.9291983"><ele>465.0</ele><time>2026-04-25T15:07:18.367Z</time></trkpt><trkpt lat="31.6466783" lon="-7.9292483"><ele>465.0</ele><time>2026-04-25T15:07:19.367Z</time></trkpt><trkpt lat="31.64682" lon="-7.9292917"><ele>465.0</ele><time>2026-04-25T15:07:20.367Z</time></trkpt><trkpt lat="31.6469533" lon="-7.9293317"><ele>465.0</ele><time>2026-04-25T15:07:21.368Z</time></trkpt><trkpt lat="31.647085" lon="-7.9293683"><ele>465.0</ele><time>2026-04-25T15:07:22.367Z</time></trkpt><trkpt lat="31.6472133" lon="-7.9294067"><ele>465.0</ele><time>2026-04-25T15:07:23.367Z</time></trkpt><trkpt lat="31.6473333" lon="-7.92944"><ele>465.0</ele><time>2026-04-25T15:07:24.367Z</time></trkpt><trkpt lat="31.647445" lon="-7.929465"><ele>465.0</ele><time>2026-04-25T15:07:25.368Z</time></trkpt><trkpt lat="31.647535" lon="-7.9294867"><ele>465.0</ele><time>2026-04-25T15:07:26.367Z</time></trkpt><trkpt lat="31.6476" lon="-7.9295"><ele>465.0</ele><time>2026-04-25T15:07:27.367Z</time></trkpt><trkpt lat="31.6476817" lon="-7.929505"><ele>465.0</ele><time>2026-04-25T15:07:29.367Z</time></trkpt><trkpt lat="31.6477667" lon="-7.92949"><ele>465.0</ele><time>2026-04-25T15:07:41.367Z</time></trkpt><trkpt lat="31.6478283" lon="-7.9294733"><ele>465.0</ele><time>2026-04-25T15:07:42.367Z</time></trkpt><trkpt lat="31.647905" lon="-7.9294667"><ele>465.0</ele><time>2026-04-25T15:07:43.367Z</time></trkpt><trkpt lat="31.6480067" lon="-7.9295133"><ele>465.0</ele><time>2026-04-25T15:07:45.367Z</time></trkpt><trkpt lat="31.648045" lon="-7.9296283"><ele>465.0</ele><time>2026-04-25T15:07:48.367Z</time></trkpt><trkpt lat="31.6480117" lon="-7.92976"><ele>465.0</ele><time>2026-04-25T15:07:50.367Z</time></trkpt><trkpt lat="31.647985" lon="-7.929835"><ele>465.0</ele><time>2026-04-25T15:07:51.367Z</time></trkpt><trkpt lat="31.64796" lon="-7.92992"><ele>465.0</ele><time>2026-04-25T15:07:52.367Z</time></trkpt><trkpt lat="31.6479433" lon="-7.9300183"><ele>465.0</ele><time>2026-04-25T15:07:53.367Z</time></trkpt><trkpt lat="31.6479283" lon="-7.9301283"><ele>465.0</ele><time>2026-04-25T15:07:54.367Z</time></trkpt><trkpt lat="31.6479233" lon="-7.9302483"><ele>465.0</ele><time>2026-04-25T15:07:55.367Z</time></trkpt><trkpt lat="31.64792" lon="-7.9303783"><ele>464.8333333333333</ele><time>2026-04-25T15:07:56.367Z</time></trkpt><trkpt lat="31.64792" lon="-7.9305083"><ele>464.66666666666663</ele><time>2026-04-25T15:07:57.367Z</time></trkpt><trkpt lat="31.6479217" lon="-7.9306267"><ele>464.5</ele><time>2026-04-25T15:07:58.367Z</time></trkpt><trkpt lat="31.6479267" lon="-7.9307217"><ele>464.3333333333333</ele><time>2026-04-25T15:07:59.367Z</time></trkpt><trkpt lat="31.647925" lon="-7.9308133"><ele>464.16666666666663</ele><time>2026-04-25T15:08:00.367Z</time></trkpt><trkpt lat="31.647925" lon="-7.9308983"><ele>464.0</ele><time>2026-04-25T15:08:01.367Z</time></trkpt><trkpt lat="31.6479267" lon="-7.9309817"><ele>463.8571428571429</ele><time>2026-04-25T15:08:02.367Z</time></trkpt><trkpt lat="31.6479317" lon="-7.9310567"><ele>463.7142857142857</ele><time>2026-04-25T15:08:03.367Z</time></trkpt><trkpt lat="31.647935" lon="-7.9311317"><ele>463.57142857142856</ele><time>2026-04-25T15:08:04.367Z</time></trkpt><trkpt lat="31.6479367" lon="-7.9312067"><ele>463.42857142857144</ele><time>2026-04-25T15:08:05.367Z</time></trkpt><trkpt lat="31.64794" lon="-7.9312833"><ele>463.2857142857142</ele><time>2026-04-25T15:08:06.367Z</time></trkpt><trkpt lat="31.647945" lon="-7.9313617"><ele>463.1428571428571</ele><time>2026-04-25T15:08:07.367Z</time></trkpt><trkpt lat="31.6479483" lon="-7.93145"><ele>463.0</ele><time>2026-04-25T15:08:08.367Z</time></trkpt><trkpt lat="31.64795" lon="-7.93155"><ele>463.0</ele><time>2026-04-25T15:08:09.367Z</time></trkpt><trkpt lat="31.647955" lon="-7.931665"><ele>463.0</ele><time>2026-04-25T15:08:10.368Z</time></trkpt><trkpt lat="31.6479533" lon="-7.9317983"><ele>463.0</ele><time>2026-04-25T15:08:11.367Z</time></trkpt><trkpt lat="31.6479517" lon="-7.9319433"><ele>463.0</ele><time>2026-04-25T15:08:12.367Z</time></trkpt><trkpt lat="31.6479467" lon="-7.9320967"><ele>463.0</ele><time>2026-04-25T15:08:13.367Z</time></trkpt><trkpt lat="31.64795" lon="-7.93225"><ele>463.0</ele><time>2026-04-25T15:08:14.367Z</time></trkpt><trkpt lat="31.647955" lon="-7.9324017"><ele>463.0</ele><time>2026-04-25T15:08:15.367Z</time></trkpt><trkpt lat="31.647955" lon="-7.93255"><ele>463.0</ele><time>2026-04-25T15:08:16.367Z</time></trkpt><trkpt lat="31.6479583" lon="-7.9327017"><ele>463.0</ele><time>2026-04-25T15:08:17.367Z</time></trkpt><trkpt lat="31.6479617" lon="-7.93286"><ele>463.0</ele><time>2026-04-25T15:08:18.367Z</time></trkpt><trkpt lat="31.6479617" lon="-7.933025"><ele>463.0</ele><time>2026-04-25T15:08:19.367Z</time></trkpt><trkpt lat="31.6479667" lon="-7.9331917"><ele>463.0</ele><time>2026-04-25T15:08:20.367Z</time></trkpt><trkpt lat="31.6479717" lon="-7.9333633"><ele>462.6666666666667</ele><time>2026-04-25T15:08:21.367Z</time></trkpt><trkpt lat="31.6479767" lon="-7.9335367"><ele>462.33333333333337</ele><time>2026-04-25T15:08:22.367Z</time></trkpt><trkpt lat="31.6479767" lon="-7.93371"><ele>462.0</ele><time>2026-04-25T15:08:23.367Z</time></trkpt><trkpt lat="31.6479767" lon="-7.9338917"><ele>462.0</ele><time>2026-04-25T15:08:24.367Z</time></trkpt><trkpt lat="31.64798" lon="-7.9340667"><ele>462.0</ele><time>2026-04-25T15:08:25.367Z</time></trkpt><trkpt lat="31.6479817" lon="-7.9342367"><ele>462.0</ele><time>2026-04-25T15:08:26.367Z</time></trkpt><trkpt lat="31.647985" lon="-7.9344067"><ele>462.0</ele><time>2026-04-25T15:08:27.367Z</time></trkpt><trkpt lat="31.6479933" lon="-7.9345783"><ele>462.0</ele><time>2026-04-25T15:08:28.367Z</time></trkpt><trkpt lat="31.6479933" lon="-7.9347417"><ele>462.0</ele><time>2026-04-25T15:08:29.367Z</time></trkpt><trkpt lat="31.648" lon="-7.934895"><ele>462.0</ele><time>2026-04-25T15:08:30.367Z</time></trkpt><trkpt lat="31.6480083" lon="-7.9350533"><ele>462.0</ele><time>2026-04-25T15:08:31.367Z</time></trkpt><trkpt lat="31.6480133" lon="-7.93521"><ele>462.25</ele><time>2026-04-25T15:08:32.367Z</time></trkpt><trkpt lat="31.6480117" lon="-7.935365"><ele>462.5</ele><time>2026-04-25T15:08:33.367Z</time></trkpt><trkpt lat="31.6480133" lon="-7.9355233"><ele>462.75</ele><time>2026-04-25T15:08:34.367Z</time></trkpt><trkpt lat="31.6480133" lon="-7.9356883"><ele>463.0</ele><time>2026-04-25T15:08:35.368Z</time></trkpt><trkpt lat="31.6480167" lon="-7.9358583"><ele>463.0</ele><time>2026-04-25T15:08:36.367Z</time></trkpt><trkpt lat="31.6480217" lon="-7.9360333"><ele>463.0</ele><time>2026-04-25T15:08:37.367Z</time></trkpt><trkpt lat="31.6480233" lon="-7.9362167"><ele>463.0</ele><time>2026-04-25T15:08:38.367Z</time></trkpt><trkpt lat="31.6480283" lon="-7.936395"><ele>463.0</ele><time>2026-04-25T15:08:39.367Z</time></trkpt><trkpt lat="31.6480333" lon="-7.9365783"><ele>463.0</ele><time>2026-04-25T15:08:40.367Z</time></trkpt><trkpt lat="31.6480383" lon="-7.9367517"><ele>463.0</ele><time>2026-04-25T15:08:41.367Z</time></trkpt><trkpt lat="31.6480383" lon="-7.93692"><ele>463.0</ele><time>2026-04-25T15:08:42.367Z</time></trkpt><trkpt lat="31.6480417" lon="-7.9370917"><ele>462.75</ele><time>2026-04-25T15:08:43.367Z</time></trkpt><trkpt lat="31.6480467" lon="-7.93726"><ele>462.5</ele><time>2026-04-25T15:08:44.367Z</time></trkpt><trkpt lat="31.6480483" lon="-7.937425"><ele>462.25</ele><time>2026-04-25T15:08:45.367Z</time></trkpt><trkpt lat="31.64805" lon="-7.9375883"><ele>462.0</ele><time>2026-04-25T15:08:46.367Z</time></trkpt><trkpt lat="31.6480533" lon="-7.9377567"><ele>462.0</ele><time>2026-04-25T15:08:47.367Z</time></trkpt><trkpt lat="31.6480567" lon="-7.9379233"><ele>462.0</ele><time>2026-04-25T15:08:48.367Z</time></trkpt><trkpt lat="31.6480583" lon="-7.9380967"><ele>462.0</ele><time>2026-04-25T15:08:49.367Z</time></trkpt><trkpt lat="31.6480583" lon="-7.93827"><ele>462.0</ele><time>2026-04-25T15:08:50.367Z</time></trkpt><trkpt lat="31.6480583" lon="-7.938445"><ele>462.66666666666663</ele><time>2026-04-25T15:08:51.367Z</time></trkpt><trkpt lat="31.6480583" lon="-7.938625"><ele>463.3333333333333</ele><time>2026-04-25T15:08:52.367Z</time></trkpt><trkpt lat="31.6480533" lon="-7.9388083"><ele>464.0</ele><time>2026-04-25T15:08:53.367Z</time></trkpt><trkpt lat="31.6480533" lon="-7.938985"><ele>464.0</ele><time>2026-04-25T15:08:54.367Z</time></trkpt><trkpt lat="31.648055" lon="-7.9391583"><ele>464.0</ele><time>2026-04-25T15:08:55.367Z</time></trkpt><trkpt lat="31.6480617" lon="-7.9393217"><ele>464.0</ele><time>2026-04-25T15:08:56.367Z</time></trkpt><trkpt lat="31.6480633" lon="-7.939475"><ele>464.0</ele><time>2026-04-25T15:08:57.367Z</time></trkpt><trkpt lat="31.6480667" lon="-7.939625"><ele>464.0</ele><time>2026-04-25T15:08:58.367Z</time></trkpt><trkpt lat="31.6480683" lon="-7.93977"><ele>464.0</ele><time>2026-04-25T15:08:59.367Z</time></trkpt><trkpt lat="31.64807" lon="-7.9399083"><ele>464.0</ele><time>2026-04-25T15:09:00.367Z</time></trkpt><trkpt lat="31.6480767" lon="-7.94004"><ele>464.0</ele><time>2026-04-25T15:09:01.368Z</time></trkpt><trkpt lat="31.64808" lon="-7.94017"><ele>464.5</ele><time>2026-04-25T15:09:02.367Z</time></trkpt><trkpt lat="31.648085" lon="-7.9403017"><ele>465.0</ele><time>2026-04-25T15:09:03.367Z</time></trkpt><trkpt lat="31.6480867" lon="-7.9404367"><ele>465.5</ele><time>2026-04-25T15:09:04.367Z</time></trkpt><trkpt lat="31.6480867" lon="-7.940575"><ele>466.0</ele><time>2026-04-25T15:09:05.367Z</time></trkpt><trkpt lat="31.6480917" lon="-7.9407217"><ele>466.0</ele><time>2026-04-25T15:09:06.367Z</time></trkpt><trkpt lat="31.6480933" lon="-7.94087"><ele>466.0</ele><time>2026-04-25T15:09:07.367Z</time></trkpt><trkpt lat="31.6480967" lon="-7.9410167"><ele>466.0</ele><time>2026-04-25T15:09:08.367Z</time></trkpt><trkpt lat="31.6481067" lon="-7.941155"><ele>466.0</ele><time>2026-04-25T15:09:09.367Z</time></trkpt><trkpt lat="31.648105" lon="-7.94129"><ele>465.8</ele><time>2026-04-25T15:09:10.367Z</time></trkpt><trkpt lat="31.6481083" lon="-7.9414167"><ele>465.6</ele><time>2026-04-25T15:09:11.367Z</time></trkpt><trkpt lat="31.64811" lon="-7.9415417"><ele>465.4</ele><time>2026-04-25T15:09:12.367Z</time></trkpt><trkpt lat="31.648115" lon="-7.9416583"><ele>465.2</ele><time>2026-04-25T15:09:13.367Z</time></trkpt><trkpt lat="31.64812" lon="-7.9417733"><ele>465.0</ele><time>2026-04-25T15:09:14.367Z</time></trkpt><trkpt lat="31.6481233" lon="-7.941895"><ele>465.0</ele><time>2026-04-25T15:09:15.367Z</time></trkpt><trkpt lat="31.6481267" lon="-7.9420233"><ele>465.0</ele><time>2026-04-25T15:09:16.367Z</time></trkpt><trkpt lat="31.6481317" lon="-7.9421533"><ele>465.0</ele><time>2026-04-25T15:09:17.367Z</time></trkpt><trkpt lat="31.6481317" lon="-7.9422933"><ele>465.0</ele><time>2026-04-25T15:09:18.367Z</time></trkpt><trkpt lat="31.6481367" lon="-7.9424383"><ele>464.75</ele><time>2026-04-25T15:09:19.367Z</time></trkpt><trkpt lat="31.64814" lon="-7.9425833"><ele>464.5</ele><time>2026-04-25T15:09:20.367Z</time></trkpt><trkpt lat="31.6481433" lon="-7.942735"><ele>464.25</ele><time>2026-04-25T15:09:21.367Z</time></trkpt><trkpt lat="31.648145" lon="-7.9428867"><ele>464.0</ele><time>2026-04-25T15:09:22.367Z</time></trkpt><trkpt lat="31.648145" lon="-7.94304"><ele>464.0</ele><time>2026-04-25T15:09:23.367Z</time></trkpt><trkpt lat="31.6481433" lon="-7.9431983"><ele>464.0</ele><time>2026-04-25T15:09:24.367Z</time></trkpt><trkpt lat="31.64814" lon="-7.9433567"><ele>464.0</ele><time>2026-04-25T15:09:25.367Z</time></trkpt><trkpt lat="31.64814" lon="-7.9435067"><ele>464.0</ele><time>2026-04-25T15:09:26.367Z</time></trkpt><trkpt lat="31.6481433" lon="-7.9436433"><ele>464.0</ele><time>2026-04-25T15:09:27.367Z</time></trkpt><trkpt lat="31.6481483" lon="-7.9437683"><ele>464.0</ele><time>2026-04-25T15:09:28.367Z</time></trkpt><trkpt lat="31.648155" lon="-7.94388"><ele>464.0</ele><time>2026-04-25T15:09:29.367Z</time></trkpt><trkpt lat="31.6481583" lon="-7.9439867"><ele>464.0</ele><time>2026-04-25T15:09:30.367Z</time></trkpt><trkpt lat="31.6481617" lon="-7.9440933"><ele>464.0</ele><time>2026-04-25T15:09:31.367Z</time></trkpt><trkpt lat="31.6481633" lon="-7.944205"><ele>464.0</ele><time>2026-04-25T15:09:32.367Z</time></trkpt><trkpt lat="31.648165" lon="-7.9443283"><ele>464.0</ele><time>2026-04-25T15:09:33.367Z</time></trkpt><trkpt lat="31.6481683" lon="-7.9444517"><ele>464.0</ele><time>2026-04-25T15:09:34.367Z</time></trkpt><trkpt lat="31.6481733" lon="-7.9445767"><ele>464.0</ele><time>2026-04-25T15:09:35.367Z</time></trkpt><trkpt lat="31.6481733" lon="-7.9447133"><ele>464.0</ele><time>2026-04-25T15:09:36.367Z</time></trkpt><trkpt lat="31.6481767" lon="-7.944855"><ele>464.0</ele><time>2026-04-25T15:09:37.367Z</time></trkpt><trkpt lat="31.6481783" lon="-7.9450033"><ele>464.0</ele><time>2026-04-25T15:09:38.368Z</time></trkpt><trkpt lat="31.6481767" lon="-7.9451633"><ele>464.0</ele><time>2026-04-25T15:09:39.367Z</time></trkpt><trkpt lat="31.64818" lon="-7.9453233"><ele>464.0</ele><time>2026-04-25T15:09:40.367Z</time></trkpt><trkpt lat="31.6481817" lon="-7.945485"><ele>464.0</ele><time>2026-04-25T15:09:41.367Z</time></trkpt><trkpt lat="31.6481833" lon="-7.9456233"><ele>464.0</ele><time>2026-04-25T15:09:42.367Z</time></trkpt><trkpt lat="31.6481883" lon="-7.9457433"><ele>464.0</ele><time>2026-04-25T15:09:43.367Z</time></trkpt><trkpt lat="31.6481867" lon="-7.9458467"><ele>464.0</ele><time>2026-04-25T15:09:44.367Z</time></trkpt><trkpt lat="31.6481867" lon="-7.9459267"><ele>464.0</ele><time>2026-04-25T15:09:45.367Z</time></trkpt><trkpt lat="31.6481833" lon="-7.9460383"><ele>463.99999999999994</ele><time>2026-04-25T15:09:47.368Z</time></trkpt><trkpt lat="31.6481783" lon="-7.9461167"><ele>464.0</ele><time>2026-04-25T15:09:50.367Z</time></trkpt><trkpt lat="31.6481883" lon="-7.9462267"><ele>464.0</ele><time>2026-04-25T15:10:08.367Z</time></trkpt><trkpt lat="31.6481933" lon="-7.9463717"><ele>464.0</ele><time>2026-04-25T15:10:10.367Z</time></trkpt><trkpt lat="31.6481983" lon="-7.94646"><ele>463.99999999999994</ele><time>2026-04-25T15:10:11.367Z</time></trkpt><trkpt lat="31.6482017" lon="-7.9465617"><ele>464.0</ele><time>2026-04-25T15:10:12.367Z</time></trkpt><trkpt lat="31.6482083" lon="-7.9466783"><ele>463.25</ele><time>2026-04-25T15:10:13.367Z</time></trkpt><trkpt lat="31.648215" lon="-7.9468067"><ele>462.5</ele><time>2026-04-25T15:10:14.367Z</time></trkpt><trkpt lat="31.64822" lon="-7.9469383"><ele>461.75</ele><time>2026-04-25T15:10:15.367Z</time></trkpt><trkpt lat="31.6482267" lon="-7.947075"><ele>461.0</ele><time>2026-04-25T15:10:16.368Z</time></trkpt><trkpt lat="31.6482283" lon="-7.9472167"><ele>461.0</ele><time>2026-04-25T15:10:17.367Z</time></trkpt><trkpt lat="31.6482267" lon="-7.9473517"><ele>461.0</ele><time>2026-04-25T15:10:18.367Z</time></trkpt><trkpt lat="31.648235" lon="-7.9474833"><ele>461.0</ele><time>2026-04-25T15:10:19.367Z</time></trkpt><trkpt lat="31.6482383" lon="-7.9476183"><ele>461.0</ele><time>2026-04-25T15:10:20.367Z</time></trkpt><trkpt lat="31.6482417" lon="-7.947755"><ele>461.0</ele><time>2026-04-25T15:10:21.367Z</time></trkpt><trkpt lat="31.64825" lon="-7.9478867"><ele>461.0</ele><time>2026-04-25T15:10:22.367Z</time></trkpt><trkpt lat="31.648255" lon="-7.9480083"><ele>461.0</ele><time>2026-04-25T15:10:23.367Z</time></trkpt><trkpt lat="31.6482483" lon="-7.948125"><ele>461.0</ele><time>2026-04-25T15:10:24.367Z</time></trkpt><trkpt lat="31.648255" lon="-7.948235"><ele>461.0</ele><time>2026-04-25T15:10:25.367Z</time></trkpt><trkpt lat="31.6482533" lon="-7.948345"><ele>461.0</ele><time>2026-04-25T15:10:26.367Z</time></trkpt><trkpt lat="31.6482517" lon="-7.9484583"><ele>461.0</ele><time>2026-04-25T15:10:27.367Z</time></trkpt><trkpt lat="31.6482533" lon="-7.948575"><ele>461.0</ele><time>2026-04-25T15:10:28.367Z</time></trkpt><trkpt lat="31.648255" lon="-7.948695"><ele>461.0</ele><time>2026-04-25T15:10:29.367Z</time></trkpt><trkpt lat="31.6482533" lon="-7.94882"><ele>461.0</ele><time>2026-04-25T15:10:30.367Z</time></trkpt><trkpt lat="31.648255" lon="-7.9489517"><ele>461.0</ele><time>2026-04-25T15:10:31.367Z</time></trkpt><trkpt lat="31.6482583" lon="-7.9490967"><ele>461.0</ele><time>2026-04-25T15:10:32.367Z</time></trkpt><trkpt lat="31.6482633" lon="-7.9492433"><ele>461.0</ele><time>2026-04-25T15:10:33.367Z</time></trkpt><trkpt lat="31.6482733" lon="-7.9493983"><ele>461.0</ele><time>2026-04-25T15:10:34.367Z</time></trkpt><trkpt lat="31.6482717" lon="-7.949555"><ele>461.0</ele><time>2026-04-25T15:10:35.367Z</time></trkpt><trkpt lat="31.6482717" lon="-7.9497167"><ele>461.0</ele><time>2026-04-25T15:10:36.367Z</time></trkpt><trkpt lat="31.6482717" lon="-7.9498783"><ele>461.0</ele><time>2026-04-25T15:10:37.368Z</time></trkpt><trkpt lat="31.648275" lon="-7.9500483"><ele>461.0</ele><time>2026-04-25T15:10:38.367Z</time></trkpt><trkpt lat="31.6482783" lon="-7.95022"><ele>461.0</ele><time>2026-04-25T15:10:39.367Z</time></trkpt><trkpt lat="31.648285" lon="-7.9503917"><ele>461.0</ele><time>2026-04-25T15:10:40.367Z</time></trkpt><trkpt lat="31.6482883" lon="-7.9505767"><ele>461.0</ele><time>2026-04-25T15:10:41.367Z</time></trkpt><trkpt lat="31.648295" lon="-7.95076"><ele>461.25</ele><time>2026-04-25T15:10:42.367Z</time></trkpt><trkpt lat="31.6482933" lon="-7.9509383"><ele>461.5</ele><time>2026-04-25T15:10:43.367Z</time></trkpt><trkpt lat="31.6482933" lon="-7.9511033"><ele>461.75</ele><time>2026-04-25T15:10:44.367Z</time></trkpt><trkpt lat="31.6482983" lon="-7.951255"><ele>462.0</ele><time>2026-04-25T15:10:45.367Z</time></trkpt><trkpt lat="31.6482983" lon="-7.9513933"><ele>462.0</ele><time>2026-04-25T15:10:46.367Z</time></trkpt><trkpt lat="31.6483033" lon="-7.95152"><ele>462.0</ele><time>2026-04-25T15:10:47.367Z</time></trkpt><trkpt lat="31.64831" lon="-7.95162"><ele>462.0</ele><time>2026-04-25T15:10:48.367Z</time></trkpt><trkpt lat="31.64832" lon="-7.9517117"><ele>462.0</ele><time>2026-04-25T15:10:49.367Z</time></trkpt><trkpt lat="31.6483367" lon="-7.951795"><ele>462.0</ele><time>2026-04-25T15:10:50.367Z</time></trkpt><trkpt lat="31.6483567" lon="-7.9518733"><ele>462.0</ele><time>2026-04-25T15:10:51.367Z</time></trkpt><trkpt lat="31.648385" lon="-7.951955"><ele>461.8333333333333</ele><time>2026-04-25T15:10:52.367Z</time></trkpt><trkpt lat="31.6484067" lon="-7.9520433"><ele>461.66666666666663</ele><time>2026-04-25T15:10:53.367Z</time></trkpt><trkpt lat="31.6484167" lon="-7.9521333"><ele>461.5</ele><time>2026-04-25T15:10:54.367Z</time></trkpt><trkpt lat="31.6484067" lon="-7.9522183"><ele>461.3333333333333</ele><time>2026-04-25T15:10:55.367Z</time></trkpt><trkpt lat="31.6483833" lon="-7.9523117"><ele>461.16666666666663</ele><time>2026-04-25T15:10:56.367Z</time></trkpt><trkpt lat="31.6483517" lon="-7.9524083"><ele>461.0</ele><time>2026-04-25T15:10:57.367Z</time></trkpt><trkpt lat="31.6483267" lon="-7.9525183"><ele>460.8</ele><time>2026-04-25T15:10:58.367Z</time></trkpt><trkpt lat="31.6483117" lon="-7.9526417"><ele>460.6</ele><time>2026-04-25T15:10:59.367Z</time></trkpt><trkpt lat="31.6483117" lon="-7.9527683"><ele>460.4</ele><time>2026-04-25T15:11:00.367Z</time></trkpt><trkpt lat="31.648325" lon="-7.9528967"><ele>460.2</ele><time>2026-04-25T15:11:01.367Z</time></trkpt><trkpt lat="31.648335" lon="-7.953035"><ele>460.0</ele><time>2026-04-25T15:11:02.366Z</time></trkpt><trkpt lat="31.6483433" lon="-7.9531883"><ele>460.0</ele><time>2026-04-25T15:11:03.366Z</time></trkpt><trkpt lat="31.648345" lon="-7.9533333"><ele>460.0</ele><time>2026-04-25T15:11:04.367Z</time></trkpt><trkpt lat="31.6483433" lon="-7.9534917"><ele>460.0</ele><time>2026-04-25T15:11:05.366Z</time></trkpt><trkpt lat="31.6483433" lon="-7.953655"><ele>460.0</ele><time>2026-04-25T15:11:06.366Z</time></trkpt><trkpt lat="31.6483467" lon="-7.9538167"><ele>459.75</ele><time>2026-04-25T15:11:07.366Z</time></trkpt><trkpt lat="31.6483483" lon="-7.9539767"><ele>459.5</ele><time>2026-04-25T15:11:08.366Z</time></trkpt><trkpt lat="31.6483467" lon="-7.9541367"><ele>459.25</ele><time>2026-04-25T15:11:09.366Z</time></trkpt><trkpt lat="31.6483483" lon="-7.954295"><ele>459.0</ele><time>2026-04-25T15:11:10.366Z</time></trkpt><trkpt lat="31.6483467" lon="-7.9544567"><ele>459.0</ele><time>2026-04-25T15:11:11.366Z</time></trkpt><trkpt lat="31.6483483" lon="-7.9546233"><ele>459.0</ele><time>2026-04-25T15:11:12.366Z</time></trkpt><trkpt lat="31.6483517" lon="-7.9547933"><ele>459.0</ele><time>2026-04-25T15:11:13.366Z</time></trkpt><trkpt lat="31.6483517" lon="-7.954955"><ele>459.0</ele><time>2026-04-25T15:11:14.366Z</time></trkpt><trkpt lat="31.6483533" lon="-7.9551233"><ele>458.75</ele><time>2026-04-25T15:11:15.366Z</time></trkpt><trkpt lat="31.6483617" lon="-7.95529"><ele>458.5</ele><time>2026-04-25T15:11:16.366Z</time></trkpt><trkpt lat="31.648365" lon="-7.9554567"><ele>458.25</ele><time>2026-04-25T15:11:17.366Z</time></trkpt><trkpt lat="31.648365" lon="-7.9556283"><ele>458.0</ele><time>2026-04-25T15:11:18.366Z</time></trkpt><trkpt lat="31.648365" lon="-7.9557967"><ele>458.0</ele><time>2026-04-25T15:11:19.366Z</time></trkpt><trkpt lat="31.6483633" lon="-7.9559633"><ele>458.0</ele><time>2026-04-25T15:11:20.366Z</time></trkpt><trkpt lat="31.6483617" lon="-7.9561317"><ele>458.0</ele><time>2026-04-25T15:11:21.367Z</time></trkpt><trkpt lat="31.6483617" lon="-7.9563033"><ele>458.0</ele><time>2026-04-25T15:11:22.366Z</time></trkpt><trkpt lat="31.6483567" lon="-7.9564783"><ele>458.0</ele><time>2026-04-25T15:11:23.366Z</time></trkpt><trkpt lat="31.64836" lon="-7.9566517"><ele>458.0</ele><time>2026-04-25T15:11:24.366Z</time></trkpt><trkpt lat="31.6483633" lon="-7.95683"><ele>458.0</ele><time>2026-04-25T15:11:25.366Z</time></trkpt><trkpt lat="31.648365" lon="-7.9570083"><ele>457.66666666666663</ele><time>2026-04-25T15:11:26.366Z</time></trkpt><trkpt lat="31.648365" lon="-7.9571817"><ele>457.33333333333337</ele><time>2026-04-25T15:11:27.366Z</time></trkpt><trkpt lat="31.6483733" lon="-7.95736"><ele>457.0</ele><time>2026-04-25T15:11:28.366Z</time></trkpt><trkpt lat="31.648375" lon="-7.9575367"><ele>456.6666666666667</ele><time>2026-04-25T15:11:29.366Z</time></trkpt><trkpt lat="31.6483783" lon="-7.9577133"><ele>456.33333333333337</ele><time>2026-04-25T15:11:30.366Z</time></trkpt><trkpt lat="31.648385" lon="-7.9578933"><ele>456.0</ele><time>2026-04-25T15:11:31.366Z</time></trkpt><trkpt lat="31.64839" lon="-7.9580717"><ele>456.0</ele><time>2026-04-25T15:11:32.366Z</time></trkpt><trkpt lat="31.6483983" lon="-7.9582467"><ele>456.0</ele><time>2026-04-25T15:11:33.366Z</time></trkpt><trkpt lat="31.6483983" lon="-7.95843"><ele>456.0</ele><time>2026-04-25T15:11:34.366Z</time></trkpt><trkpt lat="31.6484" lon="-7.958615"><ele>455.66666666666663</ele><time>2026-04-25T15:11:35.366Z</time></trkpt><trkpt lat="31.6484067" lon="-7.9587983"><ele>455.3333333333333</ele><time>2026-04-25T15:11:36.366Z</time></trkpt><trkpt lat="31.6484117" lon="-7.95898"><ele>455.0</ele><time>2026-04-25T15:11:37.366Z</time></trkpt><trkpt lat="31.6484133" lon="-7.9591683"><ele>455.3333333333333</ele><time>2026-04-25T15:11:38.366Z</time></trkpt><trkpt lat="31.6484217" lon="-7.9593567"><ele>455.66666666666663</ele><time>2026-04-25T15:11:39.366Z</time></trkpt><trkpt lat="31.64843" lon="-7.959545"><ele>456.0</ele><time>2026-04-25T15:11:40.366Z</time></trkpt><trkpt lat="31.64843" lon="-7.9597317"><ele>456.0</ele><time>2026-04-25T15:11:41.366Z</time></trkpt><trkpt lat="31.6484367" lon="-7.9599183"><ele>456.0</ele><time>2026-04-25T15:11:42.366Z</time></trkpt><trkpt lat="31.64844" lon="-7.9601033"><ele>456.0</ele><time>2026-04-25T15:11:43.366Z</time></trkpt><trkpt lat="31.648445" lon="-7.9602883"><ele>456.0</ele><time>2026-04-25T15:11:44.366Z</time></trkpt><trkpt lat="31.64845" lon="-7.9604767"><ele>456.0</ele><time>2026-04-25T15:11:45.366Z</time></trkpt><trkpt lat="31.6484517" lon="-7.96066"><ele>456.0</ele><time>2026-04-25T15:11:46.366Z</time></trkpt><trkpt lat="31.648455" lon="-7.960835"><ele>456.0</ele><time>2026-04-25T15:11:47.366Z</time></trkpt><trkpt lat="31.648455" lon="-7.9610017"><ele>456.0</ele><time>2026-04-25T15:11:48.366Z</time></trkpt><trkpt lat="31.648455" lon="-7.9611683"><ele>456.0</ele><time>2026-04-25T15:11:49.366Z</time></trkpt><trkpt lat="31.64846" lon="-7.9613333"><ele>456.0</ele><time>2026-04-25T15:11:50.366Z</time></trkpt><trkpt lat="31.6484583" lon="-7.96149"><ele>456.0</ele><time>2026-04-25T15:11:51.366Z</time></trkpt><trkpt lat="31.6484617" lon="-7.96165"><ele>456.0</ele><time>2026-04-25T15:11:52.366Z</time></trkpt><trkpt lat="31.6484633" lon="-7.9618033"><ele>456.0</ele><time>2026-04-25T15:11:53.366Z</time></trkpt><trkpt lat="31.6484683" lon="-7.96195"><ele>456.0</ele><time>2026-04-25T15:11:54.366Z</time></trkpt><trkpt lat="31.6484683" lon="-7.9620883"><ele>455.6</ele><time>2026-04-25T15:11:55.366Z</time></trkpt><trkpt lat="31.6484683" lon="-7.9622217"><ele>455.20000000000005</ele><time>2026-04-25T15:11:56.366Z</time></trkpt><trkpt lat="31.6484667" lon="-7.9623483"><ele>454.79999999999995</ele><time>2026-04-25T15:11:57.366Z</time></trkpt><trkpt lat="31.6484667" lon="-7.9624683"><ele>454.4</ele><time>2026-04-25T15:11:58.366Z</time></trkpt><trkpt lat="31.6484617" lon="-7.9625767"><ele>454.0</ele><time>2026-04-25T15:11:59.366Z</time></trkpt><trkpt lat="31.6484567" lon="-7.9626717"><ele>454.0</ele><time>2026-04-25T15:12:00.366Z</time></trkpt><trkpt lat="31.6484533" lon="-7.962795"><ele>454.0</ele><time>2026-04-25T15:12:02.366Z</time></trkpt><trkpt lat="31.6484533" lon="-7.9628883"><ele>454.0</ele><time>2026-04-25T15:12:06.366Z</time></trkpt><trkpt lat="31.6484433" lon="-7.9630117"><ele>454.0</ele><time>2026-04-25T15:12:08.366Z</time></trkpt><trkpt lat="31.6484333" lon="-7.9631117"><ele>454.0</ele><time>2026-04-25T15:12:09.366Z</time></trkpt><trkpt lat="31.64841" lon="-7.9632233"><ele>454.0</ele><time>2026-04-25T15:12:10.366Z</time></trkpt><trkpt lat="31.64839" lon="-7.9633417"><ele>454.0</ele><time>2026-04-25T15:12:11.366Z</time></trkpt><trkpt lat="31.648365" lon="-7.9634783"><ele>454.0</ele><time>2026-04-25T15:12:12.366Z</time></trkpt><trkpt lat="31.64834" lon="-7.963625"><ele>454.0</ele><time>2026-04-25T15:12:13.366Z</time></trkpt><trkpt lat="31.6483133" lon="-7.9637867"><ele>454.0</ele><time>2026-04-25T15:12:14.366Z</time></trkpt><trkpt lat="31.6482883" lon="-7.9639617"><ele>454.0</ele><time>2026-04-25T15:12:15.366Z</time></trkpt><trkpt lat="31.6482567" lon="-7.9641333"><ele>454.0</ele><time>2026-04-25T15:12:16.366Z</time></trkpt><trkpt lat="31.6482233" lon="-7.964315"><ele>454.6666666666667</ele><time>2026-04-25T15:12:17.366Z</time></trkpt><trkpt lat="31.6481933" lon="-7.9645"><ele>455.33333333333337</ele><time>2026-04-25T15:12:18.366Z</time></trkpt><trkpt lat="31.6481633" lon="-7.9646917"><ele>456.0</ele><time>2026-04-25T15:12:19.366Z</time></trkpt><trkpt lat="31.6481283" lon="-7.9648833"><ele>456.0</ele><time>2026-04-25T15:12:20.366Z</time></trkpt><trkpt lat="31.6481017" lon="-7.96508"><ele>456.0</ele><time>2026-04-25T15:12:21.366Z</time></trkpt><trkpt lat="31.648065" lon="-7.9652733"><ele>456.0</ele><time>2026-04-25T15:12:22.366Z</time></trkpt><trkpt lat="31.6480317" lon="-7.96547"><ele>456.0</ele><time>2026-04-25T15:12:23.366Z</time></trkpt><trkpt lat="31.6479983" lon="-7.9656633"><ele>456.0</ele><time>2026-04-25T15:12:24.366Z</time></trkpt><trkpt lat="31.6479683" lon="-7.9658617"><ele>456.0</ele><time>2026-04-25T15:12:25.366Z</time></trkpt><trkpt lat="31.6479383" lon="-7.9660633"><ele>455.66666666666663</ele><time>2026-04-25T15:12:26.366Z</time></trkpt><trkpt lat="31.6479067" lon="-7.9662683"><ele>455.3333333333333</ele><time>2026-04-25T15:12:27.366Z</time></trkpt><trkpt lat="31.6478783" lon="-7.9664783"><ele>455.0</ele><time>2026-04-25T15:12:28.366Z</time></trkpt><trkpt lat="31.64785" lon="-7.9666817"><ele>455.3333333333333</ele><time>2026-04-25T15:12:29.366Z</time></trkpt><trkpt lat="31.6478217" lon="-7.966885"><ele>455.66666666666663</ele><time>2026-04-25T15:12:30.366Z</time></trkpt><trkpt lat="31.64779" lon="-7.9670917"><ele>456.0</ele><time>2026-04-25T15:12:31.367Z</time></trkpt><trkpt lat="31.6477583" lon="-7.9672983"><ele>455.33333333333337</ele><time>2026-04-25T15:12:32.366Z</time></trkpt><trkpt lat="31.6477233" lon="-7.9675083"><ele>454.6666666666667</ele><time>2026-04-25T15:12:33.366Z</time></trkpt><trkpt lat="31.647695" lon="-7.9677167"><ele>454.0</ele><time>2026-04-25T15:12:34.366Z</time></trkpt><trkpt lat="31.647665" lon="-7.9679283"><ele>454.0</ele><time>2026-04-25T15:12:35.366Z</time></trkpt><trkpt lat="31.64763" lon="-7.96814"><ele>454.0</ele><time>2026-04-25T15:12:36.366Z</time></trkpt><trkpt lat="31.647595" lon="-7.9683517"><ele>454.0</ele><time>2026-04-25T15:12:37.367Z</time></trkpt><trkpt lat="31.647555" lon="-7.9685633"><ele>453.6666666666667</ele><time>2026-04-25T15:12:38.366Z</time></trkpt><trkpt lat="31.64752" lon="-7.9687767"><ele>453.33333333333337</ele><time>2026-04-25T15:12:39.366Z</time></trkpt><trkpt lat="31.6474867" lon="-7.9689917"><ele>453.0</ele><time>2026-04-25T15:12:40.366Z</time></trkpt><trkpt lat="31.6474533" lon="-7.9692083"><ele>453.66666666666663</ele><time>2026-04-25T15:12:41.366Z</time></trkpt><trkpt lat="31.6474167" lon="-7.9694233"><ele>454.3333333333333</ele><time>2026-04-25T15:12:42.366Z</time></trkpt><trkpt lat="31.6473817" lon="-7.9696367"><ele>455.0</ele><time>2026-04-25T15:12:43.366Z</time></trkpt><trkpt lat="31.6473467" lon="-7.9698517"><ele>455.3333333333333</ele><time>2026-04-25T15:12:44.366Z</time></trkpt><trkpt lat="31.6473133" lon="-7.9700667"><ele>455.66666666666663</ele><time>2026-04-25T15:12:45.366Z</time></trkpt><trkpt lat="31.6472767" lon="-7.970285"><ele>456.0</ele><time>2026-04-25T15:12:46.366Z</time></trkpt><trkpt lat="31.6472383" lon="-7.970505"><ele>456.0</ele><time>2026-04-25T15:12:47.366Z</time></trkpt><trkpt lat="31.6472017" lon="-7.9707217"><ele>456.0</ele><time>2026-04-25T15:12:48.366Z</time></trkpt><trkpt lat="31.6471683" lon="-7.9709317"><ele>456.0</ele><time>2026-04-25T15:12:49.367Z</time></trkpt><trkpt lat="31.647135" lon="-7.971125"><ele>455.33333333333337</ele><time>2026-04-25T15:12:50.366Z</time></trkpt><trkpt lat="31.6471067" lon="-7.97131"><ele>454.6666666666667</ele><time>2026-04-25T15:12:51.366Z</time></trkpt><trkpt lat="31.6470783" lon="-7.9714933"><ele>454.0</ele><time>2026-04-25T15:12:52.366Z</time></trkpt><trkpt lat="31.6470483" lon="-7.971675"><ele>454.0</ele><time>2026-04-25T15:12:53.366Z</time></trkpt><trkpt lat="31.6470217" lon="-7.971855"><ele>454.0</ele><time>2026-04-25T15:12:54.367Z</time></trkpt><trkpt lat="31.6469967" lon="-7.9720267"><ele>454.0</ele><time>2026-04-25T15:12:55.366Z</time></trkpt><trkpt lat="31.6469767" lon="-7.9721883"><ele>454.0</ele><time>2026-04-25T15:12:56.366Z</time></trkpt><trkpt lat="31.6469533" lon="-7.9723233"><ele>454.0</ele><time>2026-04-25T15:12:57.366Z</time></trkpt><trkpt lat="31.6469383" lon="-7.9724317"><ele>454.0</ele><time>2026-04-25T15:12:58.366Z</time></trkpt><trkpt lat="31.6469283" lon="-7.9725233"><ele>454.0</ele><time>2026-04-25T15:12:59.366Z</time></trkpt><trkpt lat="31.64691" lon="-7.97265"><ele>454.0</ele><time>2026-04-25T15:13:01.366Z</time></trkpt><trkpt lat="31.64687" lon="-7.9728383"><ele>454.0</ele><time>2026-04-25T15:13:23.366Z</time></trkpt><trkpt lat="31.6468483" lon="-7.9729533"><ele>454.0</ele><time>2026-04-25T15:13:24.366Z</time></trkpt><trkpt lat="31.6468267" lon="-7.9730733"><ele>454.0</ele><time>2026-04-25T15:13:25.366Z</time></trkpt><trkpt lat="31.6467983" lon="-7.97321"><ele>454.0</ele><time>2026-04-25T15:13:26.366Z</time></trkpt><trkpt lat="31.6467817" lon="-7.9733533"><ele>454.0</ele><time>2026-04-25T15:13:27.366Z</time></trkpt><trkpt lat="31.6467467" lon="-7.9735017"><ele>454.0</ele><time>2026-04-25T15:13:28.366Z</time></trkpt><trkpt lat="31.6467183" lon="-7.9736667"><ele>454.0</ele><time>2026-04-25T15:13:29.366Z</time></trkpt><trkpt lat="31.6466867" lon="-7.9738367"><ele>454.0</ele><time>2026-04-25T15:13:30.366Z</time></trkpt><trkpt lat="31.64665" lon="-7.9740117"><ele>454.0</ele><time>2026-04-25T15:13:31.366Z</time></trkpt><trkpt lat="31.64661" lon="-7.9741883"><ele>454.0</ele><time>2026-04-25T15:13:32.366Z</time></trkpt><trkpt lat="31.6465817" lon="-7.9743767"><ele>454.0</ele><time>2026-04-25T15:13:33.366Z</time></trkpt><trkpt lat="31.6465517" lon="-7.9745733"><ele>454.0</ele><time>2026-04-25T15:13:34.366Z</time></trkpt><trkpt lat="31.6465183" lon="-7.9747717"><ele>454.0</ele><time>2026-04-25T15:13:35.367Z</time></trkpt><trkpt lat="31.64649" lon="-7.9749767"><ele>454.0</ele><time>2026-04-25T15:13:36.366Z</time></trkpt><trkpt lat="31.64646" lon="-7.975175"><ele>454.0</ele><time>2026-04-25T15:13:37.366Z</time></trkpt><trkpt lat="31.6464317" lon="-7.9753717"><ele>453.6666666666667</ele><time>2026-04-25T15:13:38.366Z</time></trkpt><trkpt lat="31.646405" lon="-7.9755617"><ele>453.33333333333337</ele><time>2026-04-25T15:13:39.366Z</time></trkpt><trkpt lat="31.6463733" lon="-7.9757533"><ele>453.0</ele><time>2026-04-25T15:13:40.366Z</time></trkpt><trkpt lat="31.6463417" lon="-7.9759433"><ele>453.0</ele><time>2026-04-25T15:13:41.366Z</time></trkpt><trkpt lat="31.64631" lon="-7.9761283"><ele>453.0</ele><time>2026-04-25T15:13:42.366Z</time></trkpt><trkpt lat="31.6462883" lon="-7.97631"><ele>453.0</ele><time>2026-04-25T15:13:43.366Z</time></trkpt><trkpt lat="31.6462583" lon="-7.9764883"><ele>453.0</ele><time>2026-04-25T15:13:44.366Z</time></trkpt><trkpt lat="31.6462317" lon="-7.9766633"><ele>453.0</ele><time>2026-04-25T15:13:45.366Z</time></trkpt><trkpt lat="31.646205" lon="-7.9768383"><ele>453.0</ele><time>2026-04-25T15:13:46.366Z</time></trkpt><trkpt lat="31.6461767" lon="-7.9770083"><ele>452.66666666666663</ele><time>2026-04-25T15:13:47.366Z</time></trkpt><trkpt lat="31.6461483" lon="-7.9771783"><ele>452.3333333333333</ele><time>2026-04-25T15:13:48.366Z</time></trkpt><trkpt lat="31.64612" lon="-7.9773517"><ele>452.0</ele><time>2026-04-25T15:13:49.366Z</time></trkpt><trkpt lat="31.646095" lon="-7.9775283"><ele>452.0</ele><time>2026-04-25T15:13:50.366Z</time></trkpt><trkpt lat="31.6460717" lon="-7.9776983"><ele>452.00000000000006</ele><time>2026-04-25T15:13:51.366Z</time></trkpt><trkpt lat="31.6460533" lon="-7.9778517"><ele>452.00000000000006</ele><time>2026-04-25T15:13:52.366Z</time></trkpt><trkpt lat="31.6460367" lon="-7.9779633"><ele>452.0</ele><time>2026-04-25T15:13:53.366Z</time></trkpt><trkpt lat="31.6460233" lon="-7.97804"><ele>452.0</ele><time>2026-04-25T15:13:54.366Z</time></trkpt><trkpt lat="31.6460067" lon="-7.9781183"><ele>452.0</ele><time>2026-04-25T15:13:56.366Z</time></trkpt><trkpt lat="31.6459867" lon="-7.978205"><ele>452.00000000000006</ele><time>2026-04-25T15:14:21.366Z</time></trkpt><trkpt lat="31.6459717" lon="-7.9782883"><ele>452.00000000000006</ele><time>2026-04-25T15:14:22.366Z</time></trkpt><trkpt lat="31.64596" lon="-7.9784033"><ele>452.0</ele><time>2026-04-25T15:14:23.366Z</time></trkpt><trkpt lat="31.6459483" lon="-7.97852"><ele>452.0</ele><time>2026-04-25T15:14:24.366Z</time></trkpt><trkpt lat="31.6459317" lon="-7.9786517"><ele>452.75</ele><time>2026-04-25T15:14:25.366Z</time></trkpt><trkpt lat="31.6459133" lon="-7.9787817"><ele>453.5</ele><time>2026-04-25T15:14:26.366Z</time></trkpt><trkpt lat="31.6458917" lon="-7.978915"><ele>454.25</ele><time>2026-04-25T15:14:27.366Z</time></trkpt><trkpt lat="31.64587" lon="-7.97905"><ele>455.0</ele><time>2026-04-25T15:14:28.366Z</time></trkpt><trkpt lat="31.6458467" lon="-7.9791867"><ele>455.25</ele><time>2026-04-25T15:14:29.366Z</time></trkpt><trkpt lat="31.6458217" lon="-7.9793267"><ele>455.5</ele><time>2026-04-25T15:14:30.366Z</time></trkpt><trkpt lat="31.6458033" lon="-7.979475"><ele>455.75</ele><time>2026-04-25T15:14:31.366Z</time></trkpt><trkpt lat="31.6457833" lon="-7.979625"><ele>456.0</ele><time>2026-04-25T15:14:32.366Z</time></trkpt><trkpt lat="31.6457617" lon="-7.9797683"><ele>456.0</ele><time>2026-04-25T15:14:33.367Z</time></trkpt><trkpt lat="31.6457433" lon="-7.979905"><ele>456.0</ele><time>2026-04-25T15:14:34.366Z</time></trkpt><trkpt lat="31.6457217" lon="-7.9800367"><ele>456.0</ele><time>2026-04-25T15:14:35.366Z</time></trkpt><trkpt lat="31.645695" lon="-7.9801683"><ele>456.0</ele><time>2026-04-25T15:14:36.366Z</time></trkpt><trkpt lat="31.6456717" lon="-7.980295"><ele>455.4</ele><time>2026-04-25T15:14:37.366Z</time></trkpt><trkpt lat="31.6456533" lon="-7.98042"><ele>454.8</ele><time>2026-04-25T15:14:38.366Z</time></trkpt><trkpt lat="31.6456333" lon="-7.980535"><ele>454.19999999999993</ele><time>2026-04-25T15:14:39.366Z</time></trkpt><trkpt lat="31.6456167" lon="-7.9806383"><ele>453.59999999999997</ele><time>2026-04-25T15:14:40.366Z</time></trkpt><trkpt lat="31.6456" lon="-7.9807383"><ele>453.0</ele><time>2026-04-25T15:14:41.366Z</time></trkpt><trkpt lat="31.6455833" lon="-7.9808367"><ele>452.99999999999994</ele><time>2026-04-25T15:14:42.366Z</time></trkpt><trkpt lat="31.6455633" lon="-7.9809317"><ele>453.0</ele><time>2026-04-25T15:14:43.366Z</time></trkpt><trkpt lat="31.6455483" lon="-7.9810217"><ele>452.99999999999994</ele><time>2026-04-25T15:14:44.366Z</time></trkpt><trkpt lat="31.6455383" lon="-7.9811067"><ele>452.99999999999994</ele><time>2026-04-25T15:14:45.366Z</time></trkpt><trkpt lat="31.6455233" lon="-7.9811867"><ele>453.0</ele><time>2026-04-25T15:14:46.366Z</time></trkpt><trkpt lat="31.6455133" lon="-7.9812667"><ele>452.99999999999994</ele><time>2026-04-25T15:14:47.367Z</time></trkpt><trkpt lat="31.645505" lon="-7.981355"><ele>452.99999999999994</ele><time>2026-04-25T15:14:48.366Z</time></trkpt><trkpt lat="31.6454933" lon="-7.9814567"><ele>453.0</ele><time>2026-04-25T15:14:49.366Z</time></trkpt><trkpt lat="31.6454817" lon="-7.981565"><ele>453.0</ele><time>2026-04-25T15:14:50.366Z</time></trkpt><trkpt lat="31.6454717" lon="-7.9816717"><ele>453.0</ele><time>2026-04-25T15:14:51.366Z</time></trkpt><trkpt lat="31.6454667" lon="-7.9817733"><ele>453.0</ele><time>2026-04-25T15:14:52.366Z</time></trkpt><trkpt lat="31.645455" lon="-7.9818683"><ele>453.0</ele><time>2026-04-25T15:14:53.367Z</time></trkpt><trkpt lat="31.6454417" lon="-7.98196"><ele>453.0</ele><time>2026-04-25T15:14:54.366Z</time></trkpt><trkpt lat="31.6454317" lon="-7.9820533"><ele>453.2</ele><time>2026-04-25T15:14:55.366Z</time></trkpt><trkpt lat="31.64542" lon="-7.9821483"><ele>453.4</ele><time>2026-04-25T15:14:56.366Z</time></trkpt><trkpt lat="31.6453983" lon="-7.98225"><ele>453.59999999999997</ele><time>2026-04-25T15:14:57.366Z</time></trkpt><trkpt lat="31.6453783" lon="-7.982355"><ele>453.79999999999995</ele><time>2026-04-25T15:14:58.366Z</time></trkpt><trkpt lat="31.6453583" lon="-7.9824783"><ele>454.0</ele><time>2026-04-25T15:14:59.366Z</time></trkpt><trkpt lat="31.645335" lon="-7.9826067"><ele>454.0</ele><time>2026-04-25T15:15:00.366Z</time></trkpt><trkpt lat="31.645305" lon="-7.9827367"><ele>454.0</ele><time>2026-04-25T15:15:01.366Z</time></trkpt><trkpt lat="31.645275" lon="-7.98287"><ele>454.0</ele><time>2026-04-25T15:15:02.366Z</time></trkpt><trkpt lat="31.6452583" lon="-7.9830183"><ele>454.0</ele><time>2026-04-25T15:15:03.366Z</time></trkpt><trkpt lat="31.6452367" lon="-7.983165"><ele>454.0</ele><time>2026-04-25T15:15:04.366Z</time></trkpt><trkpt lat="31.6452117" lon="-7.9833083"><ele>454.0</ele><time>2026-04-25T15:15:05.366Z</time></trkpt><trkpt lat="31.6451933" lon="-7.9834333"><ele>454.0</ele><time>2026-04-25T15:15:06.366Z</time></trkpt><trkpt lat="31.6451733" lon="-7.9835517"><ele>454.0</ele><time>2026-04-25T15:15:07.366Z</time></trkpt><trkpt lat="31.6451617" lon="-7.9836767"><ele>454.0</ele><time>2026-04-25T15:15:08.366Z</time></trkpt><trkpt lat="31.645145" lon="-7.9838067"><ele>453.75</ele><time>2026-04-25T15:15:09.366Z</time></trkpt><trkpt lat="31.64514" lon="-7.9839467"><ele>453.5</ele><time>2026-04-25T15:15:10.366Z</time></trkpt><trkpt lat="31.6451267" lon="-7.9840767"><ele>453.25</ele><time>2026-04-25T15:15:11.366Z</time></trkpt><trkpt lat="31.6451017" lon="-7.984205"><ele>453.0</ele><time>2026-04-25T15:15:12.366Z</time></trkpt><trkpt lat="31.6450867" lon="-7.9843333"><ele>453.0</ele><time>2026-04-25T15:15:13.366Z</time></trkpt><trkpt lat="31.6450767" lon="-7.98445"><ele>453.0</ele><time>2026-04-25T15:15:14.366Z</time></trkpt><trkpt lat="31.6450633" lon="-7.9845633"><ele>453.0</ele><time>2026-04-25T15:15:15.366Z</time></trkpt><trkpt lat="31.6450533" lon="-7.9846683"><ele>453.0</ele><time>2026-04-25T15:15:16.366Z</time></trkpt><trkpt lat="31.64504" lon="-7.9847667"><ele>453.0</ele><time>2026-04-25T15:15:17.366Z</time></trkpt><trkpt lat="31.6450367" lon="-7.9848533"><ele>453.0</ele><time>2026-04-25T15:15:18.366Z</time></trkpt><trkpt lat="31.6450417" lon="-7.984985"><ele>452.2</ele><time>2026-04-25T15:15:20.366Z</time></trkpt><trkpt lat="31.64503" lon="-7.9851283"><ele>451.4</ele><time>2026-04-25T15:15:22.367Z</time></trkpt><trkpt lat="31.6450217" lon="-7.9852117"><ele>450.59999999999997</ele><time>2026-04-25T15:15:23.366Z</time></trkpt><trkpt lat="31.6450033" lon="-7.9853083"><ele>449.79999999999995</ele><time>2026-04-25T15:15:24.366Z</time></trkpt><trkpt lat="31.6450017" lon="-7.9854133"><ele>449.0</ele><time>2026-04-25T15:15:25.366Z</time></trkpt><trkpt lat="31.6449967" lon="-7.9855383"><ele>449.0</ele><time>2026-04-25T15:15:26.366Z</time></trkpt><trkpt lat="31.6449867" lon="-7.9856617"><ele>449.0</ele><time>2026-04-25T15:15:27.366Z</time></trkpt><trkpt lat="31.64497" lon="-7.9857767"><ele>449.0</ele><time>2026-04-25T15:15:28.366Z</time></trkpt><trkpt lat="31.6449583" lon="-7.9858933"><ele>449.0</ele><time>2026-04-25T15:15:29.366Z</time></trkpt><trkpt lat="31.6449467" lon="-7.9860067"><ele>449.0</ele><time>2026-04-25T15:15:30.366Z</time></trkpt><trkpt lat="31.64493" lon="-7.9861167"><ele>449.3333333333333</ele><time>2026-04-25T15:15:31.366Z</time></trkpt><trkpt lat="31.6449133" lon="-7.9862283"><ele>449.66666666666663</ele><time>2026-04-25T15:15:32.366Z</time></trkpt><trkpt lat="31.6449083" lon="-7.9863283"><ele>450.0</ele><time>2026-04-25T15:15:33.366Z</time></trkpt><trkpt lat="31.6449" lon="-7.9864283"><ele>450.33333333333337</ele><time>2026-04-25T15:15:34.366Z</time></trkpt><trkpt lat="31.6448933" lon="-7.9865217"><ele>450.6666666666667</ele><time>2026-04-25T15:15:35.366Z</time></trkpt><trkpt lat="31.644885" lon="-7.9866067"><ele>451.0</ele><time>2026-04-25T15:15:36.366Z</time></trkpt><trkpt lat="31.644875" lon="-7.9866917"><ele>451.00000000000006</ele><time>2026-04-25T15:15:37.366Z</time></trkpt><trkpt lat="31.6448683" lon="-7.9867717"><ele>451.0</ele><time>2026-04-25T15:15:38.366Z</time></trkpt><trkpt lat="31.6448683" lon="-7.9868467"><ele>451.0</ele><time>2026-04-25T15:15:39.366Z</time></trkpt><trkpt lat="31.6448683" lon="-7.986925"><ele>451.0</ele><time>2026-04-25T15:15:40.366Z</time></trkpt><trkpt lat="31.6448717" lon="-7.9870033"><ele>451.00000000000006</ele><time>2026-04-25T15:15:41.366Z</time></trkpt><trkpt lat="31.64488" lon="-7.9871433"><ele>451.0</ele><time>2026-04-25T15:15:43.366Z</time></trkpt><trkpt lat="31.6449233" lon="-7.987275"><ele>451.00000000000006</ele><time>2026-04-25T15:15:45.366Z</time></trkpt><trkpt lat="31.6449583" lon="-7.9874117"><ele>451.0</ele><time>2026-04-25T15:15:47.366Z</time></trkpt><trkpt lat="31.64496" lon="-7.987495"><ele>451.0</ele><time>2026-04-25T15:15:48.366Z</time></trkpt><trkpt lat="31.64495" lon="-7.9875883"><ele>451.0</ele><time>2026-04-25T15:15:49.366Z</time></trkpt><trkpt lat="31.64493" lon="-7.9876833"><ele>451.00000000000006</ele><time>2026-04-25T15:15:50.366Z</time></trkpt><trkpt lat="31.6449" lon="-7.9877833"><ele>451.0</ele><time>2026-04-25T15:15:51.366Z</time></trkpt><trkpt lat="31.6448717" lon="-7.9878867"><ele>451.0</ele><time>2026-04-25T15:15:52.366Z</time></trkpt><trkpt lat="31.6448383" lon="-7.9879883"><ele>451.0</ele><time>2026-04-25T15:15:53.366Z</time></trkpt><trkpt lat="31.6448133" lon="-7.988085"><ele>451.0</ele><time>2026-04-25T15:15:54.366Z</time></trkpt><trkpt lat="31.6447967" lon="-7.9881833"><ele>451.0</ele><time>2026-04-25T15:15:55.366Z</time></trkpt><trkpt lat="31.6447833" lon="-7.98829"><ele>451.0</ele><time>2026-04-25T15:15:56.366Z</time></trkpt><trkpt lat="31.6447767" lon="-7.988405"><ele>451.20000000000005</ele><time>2026-04-25T15:15:57.366Z</time></trkpt><trkpt lat="31.6447617" lon="-7.9885233"><ele>451.40000000000003</ele><time>2026-04-25T15:15:58.366Z</time></trkpt><trkpt lat="31.6447483" lon="-7.9886483"><ele>451.6</ele><time>2026-04-25T15:15:59.366Z</time></trkpt><trkpt lat="31.644735" lon="-7.98877"><ele>451.8</ele><time>2026-04-25T15:16:00.366Z</time></trkpt><trkpt lat="31.6447217" lon="-7.9889067"><ele>452.0</ele><time>2026-04-25T15:16:01.366Z</time></trkpt><trkpt lat="31.6447183" lon="-7.9890483"><ele>451.5</ele><time>2026-04-25T15:16:02.366Z</time></trkpt><trkpt lat="31.6447083" lon="-7.9891883"><ele>451.0</ele><time>2026-04-25T15:16:03.366Z</time></trkpt><trkpt lat="31.6446967" lon="-7.9893333"><ele>450.5</ele><time>2026-04-25T15:16:04.366Z</time></trkpt><trkpt lat="31.64469" lon="-7.98948"><ele>450.0</ele><time>2026-04-25T15:16:05.366Z</time></trkpt><trkpt lat="31.644685" lon="-7.989625"><ele>450.0</ele><time>2026-04-25T15:16:06.367Z</time></trkpt><trkpt lat="31.64467" lon="-7.9897583"><ele>450.0</ele><time>2026-04-25T15:16:07.367Z</time></trkpt><trkpt lat="31.644665" lon="-7.9898917"><ele>450.0</ele><time>2026-04-25T15:16:08.366Z</time></trkpt><trkpt lat="31.6446583" lon="-7.990025"><ele>450.0</ele><time>2026-04-25T15:16:09.366Z</time></trkpt><trkpt lat="31.6446533" lon="-7.99016"><ele>450.0</ele><time>2026-04-25T15:16:10.366Z</time></trkpt><trkpt lat="31.6446417" lon="-7.9902883"><ele>450.0</ele><time>2026-04-25T15:16:11.366Z</time></trkpt><trkpt lat="31.6446367" lon="-7.9904183"><ele>450.0</ele><time>2026-04-25T15:16:12.366Z</time></trkpt><trkpt lat="31.6446267" lon="-7.9905433"><ele>450.0</ele><time>2026-04-25T15:16:13.366Z</time></trkpt><trkpt lat="31.644615" lon="-7.99067"><ele>450.0</ele><time>2026-04-25T15:16:14.367Z</time></trkpt><trkpt lat="31.64461" lon="-7.9907917"><ele>450.0</ele><time>2026-04-25T15:16:15.366Z</time></trkpt><trkpt lat="31.6446" lon="-7.99091"><ele>450.0</ele><time>2026-04-25T15:16:16.366Z</time></trkpt><trkpt lat="31.6445917" lon="-7.9910183"><ele>450.0</ele><time>2026-04-25T15:16:17.366Z</time></trkpt><trkpt lat="31.6445833" lon="-7.9911233"><ele>450.0</ele><time>2026-04-25T15:16:18.366Z</time></trkpt><trkpt lat="31.6445833" lon="-7.9912267"><ele>450.0</ele><time>2026-04-25T15:16:19.366Z</time></trkpt><trkpt lat="31.64458" lon="-7.9913167"><ele>450.0</ele><time>2026-04-25T15:16:20.366Z</time></trkpt><trkpt lat="31.6445683" lon="-7.9914367"><ele>450.0</ele><time>2026-04-25T15:16:22.366Z</time></trkpt><trkpt lat="31.6445583" lon="-7.991515"><ele>450.0</ele><time>2026-04-25T15:16:25.366Z</time></trkpt><trkpt lat="31.6445533" lon="-7.991615"><ele>450.0</ele><time>2026-04-25T15:16:49.366Z</time></trkpt><trkpt lat="31.6445517" lon="-7.9917"><ele>450.0</ele><time>2026-04-25T15:16:51.365Z</time></trkpt><trkpt lat="31.6445483" lon="-7.9917817"><ele>450.0</ele><time>2026-04-25T15:16:52.366Z</time></trkpt><trkpt lat="31.6445367" lon="-7.9918967"><ele>450.0</ele><time>2026-04-25T15:16:53.365Z</time></trkpt><trkpt lat="31.6445233" lon="-7.9920583"><ele>450.0</ele><time>2026-04-25T15:16:54.365Z</time></trkpt><trkpt lat="31.6444967" lon="-7.9922183"><ele>450.0</ele><time>2026-04-25T15:16:55.365Z</time></trkpt><trkpt lat="31.644475" lon="-7.9923683"><ele>450.0</ele><time>2026-04-25T15:16:56.365Z</time></trkpt><trkpt lat="31.644455" lon="-7.9925133"><ele>450.0</ele><time>2026-04-25T15:16:57.365Z</time></trkpt><trkpt lat="31.64443" lon="-7.9926533"><ele>450.0</ele><time>2026-04-25T15:16:58.365Z</time></trkpt><trkpt lat="31.6444017" lon="-7.9927883"><ele>450.0</ele><time>2026-04-25T15:16:59.365Z</time></trkpt><trkpt lat="31.6443733" lon="-7.9929233"><ele>450.0</ele><time>2026-04-25T15:17:00.365Z</time></trkpt><trkpt lat="31.64434" lon="-7.9930583"><ele>450.0</ele><time>2026-04-25T15:17:01.365Z</time></trkpt><trkpt lat="31.6442933" lon="-7.9931917"><ele>450.0</ele><time>2026-04-25T15:17:02.365Z</time></trkpt><trkpt lat="31.6442383" lon="-7.9933317"><ele>450.0</ele><time>2026-04-25T15:17:03.365Z</time></trkpt><trkpt lat="31.6441833" lon="-7.9934717"><ele>450.0</ele><time>2026-04-25T15:17:04.365Z</time></trkpt><trkpt lat="31.64412" lon="-7.99361"><ele>450.0</ele><time>2026-04-25T15:17:05.365Z</time></trkpt><trkpt lat="31.64405" lon="-7.993745"><ele>450.25</ele><time>2026-04-25T15:17:06.365Z</time></trkpt><trkpt lat="31.6439817" lon="-7.993885"><ele>450.5</ele><time>2026-04-25T15:17:07.365Z</time></trkpt><trkpt lat="31.6439083" lon="-7.994015"><ele>450.75</ele><time>2026-04-25T15:17:08.365Z</time></trkpt><trkpt lat="31.6438283" lon="-7.9941417"><ele>451.0</ele><time>2026-04-25T15:17:09.365Z</time></trkpt><trkpt lat="31.64375" lon="-7.9942617"><ele>451.25</ele><time>2026-04-25T15:17:10.365Z</time></trkpt><trkpt lat="31.64366" lon="-7.9943767"><ele>451.5</ele><time>2026-04-25T15:17:11.365Z</time></trkpt><trkpt lat="31.64357" lon="-7.99449"><ele>451.75</ele><time>2026-04-25T15:17:12.365Z</time></trkpt><trkpt lat="31.643475" lon="-7.994605"><ele>452.0</ele><time>2026-04-25T15:17:13.365Z</time></trkpt><trkpt lat="31.6433767" lon="-7.9947133"><ele>452.0</ele><time>2026-04-25T15:17:14.366Z</time></trkpt><trkpt lat="31.643275" lon="-7.9948133"><ele>452.0</ele><time>2026-04-25T15:17:15.365Z</time></trkpt><trkpt lat="31.6431683" lon="-7.9949183"><ele>452.0</ele><time>2026-04-25T15:17:16.365Z</time></trkpt><trkpt lat="31.6430517" lon="-7.9950133"><ele>452.0</ele><time>2026-04-25T15:17:17.365Z</time></trkpt><trkpt lat="31.642945" lon="-7.9951117"><ele>452.0</ele><time>2026-04-25T15:17:18.365Z</time></trkpt><trkpt lat="31.642835" lon="-7.9951933"><ele>452.0</ele><time>2026-04-25T15:17:19.365Z</time></trkpt><trkpt lat="31.642735" lon="-7.995275"><ele>452.0</ele><time>2026-04-25T15:17:20.365Z</time></trkpt><trkpt lat="31.642635" lon="-7.9953517"><ele>452.0</ele><time>2026-04-25T15:17:21.365Z</time></trkpt><trkpt lat="31.6425367" lon="-7.9954217"><ele>452.0</ele><time>2026-04-25T15:17:22.365Z</time></trkpt><trkpt lat="31.6424433" lon="-7.9954967"><ele>452.00000000000006</ele><time>2026-04-25T15:17:23.365Z</time></trkpt><trkpt lat="31.642355" lon="-7.995555"><ele>452.00000000000006</ele><time>2026-04-25T15:17:24.365Z</time></trkpt><trkpt lat="31.6422717" lon="-7.99561"><ele>452.0</ele><time>2026-04-25T15:17:25.365Z</time></trkpt><trkpt lat="31.642195" lon="-7.9956683"><ele>452.0</ele><time>2026-04-25T15:17:26.365Z</time></trkpt><trkpt lat="31.6421317" lon="-7.9957133"><ele>452.0</ele><time>2026-04-25T15:17:27.365Z</time></trkpt><trkpt lat="31.6420567" lon="-7.995765"><ele>452.00000000000006</ele><time>2026-04-25T15:17:29.365Z</time></trkpt><trkpt lat="31.64198" lon="-7.9958183"><ele>452.00000000000006</ele><time>2026-04-25T15:17:46.365Z</time></trkpt><trkpt lat="31.6418867" lon="-7.9958867"><ele>452.0</ele><time>2026-04-25T15:17:48.365Z</time></trkpt><trkpt lat="31.6418267" lon="-7.9959367"><ele>452.0</ele><time>2026-04-25T15:17:49.365Z</time></trkpt><trkpt lat="31.64175" lon="-7.9959967"><ele>452.25</ele><time>2026-04-25T15:17:50.365Z</time></trkpt><trkpt lat="31.6416633" lon="-7.9960667"><ele>452.5</ele><time>2026-04-25T15:17:51.365Z</time></trkpt><trkpt lat="31.6415717" lon="-7.9961433"><ele>452.75</ele><time>2026-04-25T15:17:52.365Z</time></trkpt><trkpt lat="31.6414767" lon="-7.9962267"><ele>453.0</ele><time>2026-04-25T15:17:53.365Z</time></trkpt><trkpt lat="31.6413717" lon="-7.9963117"><ele>453.0</ele><time>2026-04-25T15:17:54.365Z</time></trkpt><trkpt lat="31.6412583" lon="-7.9963983"><ele>453.0</ele><time>2026-04-25T15:17:55.365Z</time></trkpt><trkpt lat="31.6411467" lon="-7.9964817"><ele>453.0</ele><time>2026-04-25T15:17:56.365Z</time></trkpt><trkpt lat="31.6410467" lon="-7.9965567"><ele>453.0</ele><time>2026-04-25T15:17:57.365Z</time></trkpt><trkpt lat="31.6409383" lon="-7.9966367"><ele>453.25</ele><time>2026-04-25T15:17:58.365Z</time></trkpt><trkpt lat="31.64083" lon="-7.9967217"><ele>453.5</ele><time>2026-04-25T15:17:59.365Z</time></trkpt><trkpt lat="31.6407183" lon="-7.9968217"><ele>453.75</ele><time>2026-04-25T15:18:00.365Z</time></trkpt><trkpt lat="31.6405983" lon="-7.9969217"><ele>454.0</ele><time>2026-04-25T15:18:01.365Z</time></trkpt><trkpt lat="31.64047" lon="-7.9970283"><ele>454.0</ele><time>2026-04-25T15:18:02.365Z</time></trkpt><trkpt lat="31.640335" lon="-7.9971367"><ele>454.0</ele><time>2026-04-25T15:18:03.365Z</time></trkpt><trkpt lat="31.6402" lon="-7.9972533"><ele>454.0</ele><time>2026-04-25T15:18:04.365Z</time></trkpt><trkpt lat="31.64007" lon="-7.9973533"><ele>454.25</ele><time>2026-04-25T15:18:05.365Z</time></trkpt><trkpt lat="31.6399483" lon="-7.9974533"><ele>454.5</ele><time>2026-04-25T15:18:06.365Z</time></trkpt><trkpt lat="31.6398317" lon="-7.997565"><ele>454.75</ele><time>2026-04-25T15:18:07.365Z</time></trkpt><trkpt lat="31.63971" lon="-7.9976683"><ele>455.0</ele><time>2026-04-25T15:18:08.365Z</time></trkpt><trkpt lat="31.6395917" lon="-7.9977517"><ele>455.0</ele><time>2026-04-25T15:18:09.365Z</time></trkpt><trkpt lat="31.6394817" lon="-7.997845"><ele>455.0</ele><time>2026-04-25T15:18:10.365Z</time></trkpt><trkpt lat="31.6393567" lon="-7.9979283"><ele>455.0</ele><time>2026-04-25T15:18:11.365Z</time></trkpt><trkpt lat="31.6392533" lon="-7.9980217"><ele>455.0</ele><time>2026-04-25T15:18:12.365Z</time></trkpt><trkpt lat="31.63915" lon="-7.9981117"><ele>455.25</ele><time>2026-04-25T15:18:13.365Z</time></trkpt><trkpt lat="31.63905" lon="-7.9982017"><ele>455.5</ele><time>2026-04-25T15:18:14.365Z</time></trkpt><trkpt lat="31.6389483" lon="-7.998285"><ele>455.75</ele><time>2026-04-25T15:18:15.365Z</time></trkpt><trkpt lat="31.638835" lon="-7.99835"><ele>456.0</ele><time>2026-04-25T15:18:16.365Z</time></trkpt><trkpt lat="31.6387283" lon="-7.9984167"><ele>455.8</ele><time>2026-04-25T15:18:17.365Z</time></trkpt><trkpt lat="31.6386317" lon="-7.9984833"><ele>455.6</ele><time>2026-04-25T15:18:18.365Z</time></trkpt><trkpt lat="31.6385417" lon="-7.9985617"><ele>455.4</ele><time>2026-04-25T15:18:19.365Z</time></trkpt><trkpt lat="31.6384517" lon="-7.99863"><ele>455.2</ele><time>2026-04-25T15:18:20.365Z</time></trkpt><trkpt lat="31.6383583" lon="-7.9987067"><ele>455.0</ele><time>2026-04-25T15:18:21.365Z</time></trkpt><trkpt lat="31.63827" lon="-7.998775"><ele>454.99999999999994</ele><time>2026-04-25T15:18:22.365Z</time></trkpt><trkpt lat="31.63819" lon="-7.9988383"><ele>455.0</ele><time>2026-04-25T15:18:23.366Z</time></trkpt><trkpt lat="31.6381183" lon="-7.9989083"><ele>455.0</ele><time>2026-04-25T15:18:24.365Z</time></trkpt><trkpt lat="31.638045" lon="-7.9989633"><ele>455.0</ele><time>2026-04-25T15:18:25.365Z</time></trkpt><trkpt lat="31.6379717" lon="-7.999015"><ele>454.99999999999994</ele><time>2026-04-25T15:18:26.365Z</time></trkpt><trkpt lat="31.6378983" lon="-7.9990667"><ele>455.0</ele><time>2026-04-25T15:18:27.365Z</time></trkpt><trkpt lat="31.6378233" lon="-7.9991217"><ele>455.16666666666663</ele><time>2026-04-25T15:18:28.365Z</time></trkpt><trkpt lat="31.6377617" lon="-7.999185"><ele>455.3333333333333</ele><time>2026-04-25T15:18:29.365Z</time></trkpt><trkpt lat="31.6376983" lon="-7.9992533"><ele>455.5</ele><time>2026-04-25T15:18:30.365Z</time></trkpt><trkpt lat="31.6376433" lon="-7.9993083"><ele>455.66666666666663</ele><time>2026-04-25T15:18:31.365Z</time></trkpt><trkpt lat="31.6375817" lon="-7.999345"><ele>455.8333333333333</ele><time>2026-04-25T15:18:32.365Z</time></trkpt><trkpt lat="31.6375033" lon="-7.9994117"><ele>456.0</ele><time>2026-04-25T15:18:34.365Z</time></trkpt><trkpt lat="31.6374467" lon="-7.9994567"><ele>456.0</ele><time>2026-04-25T15:18:36.365Z</time></trkpt><trkpt lat="31.6373833" lon="-7.9994967"><ele>456.0</ele><time>2026-04-25T15:18:39.365Z</time></trkpt><trkpt lat="31.63731" lon="-7.99953"><ele>456.0</ele><time>2026-04-25T15:18:42.365Z</time></trkpt><trkpt lat="31.63723" lon="-7.9995567"><ele>456.0</ele><time>2026-04-25T15:18:44.365Z</time></trkpt><trkpt lat="31.63712" lon="-7.99961"><ele>456.0</ele><time>2026-04-25T15:18:46.365Z</time></trkpt><trkpt lat="31.6370633" lon="-7.9996467"><ele>456.0</ele><time>2026-04-25T15:18:47.365Z</time></trkpt><trkpt lat="31.6369567" lon="-7.99971"><ele>455.8333333333333</ele><time>2026-04-25T15:18:49.365Z</time></trkpt><trkpt lat="31.63685" lon="-7.9997833"><ele>455.66666666666663</ele><time>2026-04-25T15:18:51.365Z</time></trkpt><trkpt lat="31.6367883" lon="-7.999825"><ele>455.5</ele><time>2026-04-25T15:18:52.366Z</time></trkpt><trkpt lat="31.6367333" lon="-7.9998733"><ele>455.3333333333333</ele><time>2026-04-25T15:18:53.365Z</time></trkpt><trkpt lat="31.6366767" lon="-7.9999283"><ele>455.16666666666663</ele><time>2026-04-25T15:18:54.365Z</time></trkpt><trkpt lat="31.63661" lon="-7.9999733"><ele>455.0</ele><time>2026-04-25T15:18:55.365Z</time></trkpt><trkpt lat="31.6365433" lon="-8.000025"><ele>454.99999999999994</ele><time>2026-04-25T15:18:56.365Z</time></trkpt><trkpt lat="31.636485" lon="-8.0000783"><ele>455.0</ele><time>2026-04-25T15:18:57.365Z</time></trkpt><trkpt lat="31.6364333" lon="-8.0001217"><ele>455.0</ele><time>2026-04-25T15:18:58.365Z</time></trkpt><trkpt lat="31.6363367" lon="-8.0001917"><ele>455.0</ele><time>2026-04-25T15:19:00.365Z</time></trkpt><trkpt lat="31.6362667" lon="-8.00024"><ele>454.99999999999994</ele><time>2026-04-25T15:19:02.365Z</time></trkpt><trkpt lat="31.6362033" lon="-8.0002767"><ele>455.0</ele><time>2026-04-25T15:19:05.365Z</time></trkpt><trkpt lat="31.6361267" lon="-8.0003517"><ele>455.4</ele><time>2026-04-25T15:19:20.365Z</time></trkpt><trkpt lat="31.6360383" lon="-8.0004"><ele>455.8</ele><time>2026-04-25T15:19:22.365Z</time></trkpt><trkpt lat="31.6359433" lon="-8.0004583"><ele>456.20000000000005</ele><time>2026-04-25T15:19:24.365Z</time></trkpt><trkpt lat="31.63583" lon="-8.000535"><ele>456.6</ele><time>2026-04-25T15:19:26.365Z</time></trkpt><trkpt lat="31.6357717" lon="-8.0005783"><ele>457.0</ele><time>2026-04-25T15:19:27.365Z</time></trkpt><trkpt lat="31.635715" lon="-8.0006183"><ele>457.00000000000006</ele><time>2026-04-25T15:19:28.365Z</time></trkpt><trkpt lat="31.6356583" lon="-8.0006567"><ele>457.0</ele><time>2026-04-25T15:19:29.365Z</time></trkpt><trkpt lat="31.6356017" lon="-8.0006917"><ele>457.00000000000006</ele><time>2026-04-25T15:19:30.365Z</time></trkpt><trkpt lat="31.6355417" lon="-8.0007233"><ele>457.00000000000006</ele><time>2026-04-25T15:19:31.365Z</time></trkpt><trkpt lat="31.6354833" lon="-8.0007517"><ele>457.0</ele><time>2026-04-25T15:19:32.365Z</time></trkpt><trkpt lat="31.635425" lon="-8.0007817"><ele>457.00000000000006</ele><time>2026-04-25T15:19:33.365Z</time></trkpt><trkpt lat="31.6353133" lon="-8.00084"><ele>457.00000000000006</ele><time>2026-04-25T15:19:35.365Z</time></trkpt><trkpt lat="31.635195" lon="-8.0009067"><ele>457.1428571428572</ele><time>2026-04-25T15:19:37.365Z</time></trkpt><trkpt lat="31.63513" lon="-8.0009467"><ele>457.28571428571433</ele><time>2026-04-25T15:19:38.365Z</time></trkpt><trkpt lat="31.63506" lon="-8.0009917"><ele>457.42857142857144</ele><time>2026-04-25T15:19:39.365Z</time></trkpt><trkpt lat="31.6349917" lon="-8.001035"><ele>457.5714285714286</ele><time>2026-04-25T15:19:40.365Z</time></trkpt><trkpt lat="31.6349283" lon="-8.0010817"><ele>457.7142857142858</ele><time>2026-04-25T15:19:41.365Z</time></trkpt><trkpt lat="31.6348683" lon="-8.001125"><ele>457.85714285714283</ele><time>2026-04-25T15:19:42.366Z</time></trkpt><trkpt lat="31.6348083" lon="-8.0011717"><ele>458.0</ele><time>2026-04-25T15:19:43.365Z</time></trkpt><trkpt lat="31.63475" lon="-8.001215"><ele>457.99999999999994</ele><time>2026-04-25T15:19:44.365Z</time></trkpt><trkpt lat="31.6346933" lon="-8.0012567"><ele>458.0</ele><time>2026-04-25T15:19:45.365Z</time></trkpt><trkpt lat="31.63464" lon="-8.0013"><ele>458.0</ele><time>2026-04-25T15:19:46.365Z</time></trkpt><trkpt lat="31.634545" lon="-8.0013767"><ele>458.0</ele><time>2026-04-25T15:19:48.365Z</time></trkpt><trkpt lat="31.6344733" lon="-8.00144"><ele>457.99999999999994</ele><time>2026-04-25T15:19:50.365Z</time></trkpt><trkpt lat="31.6344067" lon="-8.0015017"><ele>458.0</ele><time>2026-04-25T15:19:52.365Z</time></trkpt><trkpt lat="31.634335" lon="-8.00155"><ele>457.79999999999995</ele><time>2026-04-25T15:19:54.365Z</time></trkpt><trkpt lat="31.634255" lon="-8.0016"><ele>457.59999999999997</ele><time>2026-04-25T15:19:56.365Z</time></trkpt><trkpt lat="31.6341617" lon="-8.0016633"><ele>457.40000000000003</ele><time>2026-04-25T15:19:58.365Z</time></trkpt><trkpt lat="31.6340583" lon="-8.00174"><ele>457.20000000000005</ele><time>2026-04-25T15:20:00.365Z</time></trkpt><trkpt lat="31.6339833" lon="-8.0017933"><ele>457.0</ele><time>2026-04-25T15:20:02.365Z</time></trkpt><trkpt lat="31.6339283" lon="-8.0018817"><ele>456.6</ele><time>2026-04-25T15:20:11.365Z</time></trkpt><trkpt lat="31.6339183" lon="-8.0019733"><ele>456.20000000000005</ele><time>2026-04-25T15:20:20.365Z</time></trkpt><trkpt lat="31.63392" lon="-8.002075"><ele>455.8</ele><time>2026-04-25T15:20:53.365Z</time></trkpt><trkpt lat="31.6339" lon="-8.0022417"><ele>455.4</ele><time>2026-04-25T15:21:00.365Z</time></trkpt><trkpt lat="31.63388" lon="-8.0023583"><ele>455.0</ele><time>2026-04-25T15:21:02.365Z</time></trkpt><trkpt lat="31.6338683" lon="-8.0024583"><ele>454.8571428571429</ele><time>2026-04-25T15:21:04.365Z</time></trkpt><trkpt lat="31.63385" lon="-8.0025383"><ele>454.7142857142857</ele><time>2026-04-25T15:21:06.366Z</time></trkpt><trkpt lat="31.633835" lon="-8.0026233"><ele>454.57142857142856</ele><time>2026-04-25T15:21:08.365Z</time></trkpt><trkpt lat="31.633815" lon="-8.002705"><ele>454.42857142857144</ele><time>2026-04-25T15:21:10.365Z</time></trkpt><trkpt lat="31.633795" lon="-8.0027817"><ele>454.28571428571433</ele><time>2026-04-25T15:21:12.366Z</time></trkpt><trkpt lat="31.6337417" lon="-8.0028567"><ele>454.14285714285717</ele><time>2026-04-25T15:21:15.365Z</time></trkpt><trkpt lat="31.63372" lon="-8.0027783"><ele>454.0</ele><time>2026-04-25T15:21:19.366Z</time></trkpt><trkpt lat="31.6337567" lon="-8.0026067"><ele>454.2</ele><time>2026-04-25T15:21:21.365Z</time></trkpt><trkpt lat="31.6337767" lon="-8.0024833"><ele>454.4</ele><time>2026-04-25T15:21:22.365Z</time></trkpt><trkpt lat="31.6338017" lon="-8.0023517"><ele>454.6</ele><time>2026-04-25T15:21:23.365Z</time></trkpt><trkpt lat="31.63382" lon="-8.0022183"><ele>454.8</ele><time>2026-04-25T15:21:24.365Z</time></trkpt><trkpt lat="31.633835" lon="-8.0020883"><ele>455.0</ele><time>2026-04-25T15:21:25.365Z</time></trkpt><trkpt lat="31.6338433" lon="-8.00198"><ele>454.99999999999994</ele><time>2026-04-25T15:21:26.365Z</time></trkpt><trkpt lat="31.6338483" lon="-8.00188"><ele>455.0</ele><time>2026-04-25T15:21:27.365Z</time></trkpt><trkpt lat="31.633855" lon="-8.0017917"><ele>455.0</ele><time>2026-04-25T15:21:28.365Z</time></trkpt><trkpt lat="31.6338567" lon="-8.0017033"><ele>455.0</ele><time>2026-04-25T15:21:29.365Z</time></trkpt><trkpt lat="31.6338567" lon="-8.0016267"><ele>454.99999999999994</ele><time>2026-04-25T15:21:30.365Z</time></trkpt><trkpt lat="31.633845" lon="-8.0015217"><ele>455.0</ele><time>2026-04-25T15:21:32.365Z</time></trkpt><trkpt lat="31.6338467" lon="-8.0014317"><ele>455.3333333333333</ele><time>2026-04-25T15:21:34.365Z</time></trkpt><trkpt lat="31.6338467" lon="-8.001335"><ele>455.66666666666663</ele><time>2026-04-25T15:21:36.365Z</time></trkpt><trkpt lat="31.6338517" lon="-8.0012267"><ele>456.0</ele><time>2026-04-25T15:21:38.365Z</time></trkpt><trkpt lat="31.6338617" lon="-8.001115"><ele>456.33333333333337</ele><time>2026-04-25T15:21:40.365Z</time></trkpt><trkpt lat="31.6338633" lon="-8.00101"><ele>456.6666666666667</ele><time>2026-04-25T15:21:42.365Z</time></trkpt><trkpt lat="31.6338617" lon="-8.0009167"><ele>457.0</ele><time>2026-04-25T15:21:44.365Z</time></trkpt><trkpt lat="31.63386" lon="-8.00082"><ele>457.00000000000006</ele><time>2026-04-25T15:21:46.365Z</time></trkpt><trkpt lat="31.6338633" lon="-8.0007167"><ele>457.0</ele><time>2026-04-25T15:51:18.358Z</time></trkpt><trkpt lat="31.63383" lon="-8.0006133"><ele>457.0</ele><time>2026-04-25T15:55:39.417Z</time></trkpt><trkpt lat="31.6338467" lon="-8.0005333"><ele>457.0</ele><time>2026-04-25T15:55:48.417Z</time></trkpt><trkpt lat="31.6338633" lon="-8.0004533"><ele>457.00000000000006</ele><time>2026-04-25T15:55:49.417Z</time></trkpt><trkpt lat="31.6338833" lon="-8.0003183"><ele>457.0</ele><time>2026-04-25T15:55:50.417Z</time></trkpt><trkpt lat="31.6339133" lon="-8.000155"><ele>457.0</ele><time>2026-04-25T15:55:51.417Z</time></trkpt><trkpt lat="31.6339533" lon="-8.0000267"><ele>457.00000000000006</ele><time>2026-04-25T15:55:52.417Z</time></trkpt><trkpt lat="31.6339883" lon="-7.9999367"><ele>457.00000000000006</ele><time>2026-04-25T15:55:53.417Z</time></trkpt><trkpt lat="31.634025" lon="-7.9998667"><ele>457.0</ele><time>2026-04-25T15:55:54.417Z</time></trkpt><trkpt lat="31.6340717" lon="-7.9998117"><ele>457.0</ele><time>2026-04-25T15:55:55.417Z</time></trkpt><trkpt lat="31.63417" lon="-7.99974"><ele>457.00000000000006</ele><time>2026-04-25T15:55:57.417Z</time></trkpt><trkpt lat="31.6342617" lon="-7.99969"><ele>457.0</ele><time>2026-04-25T15:55:59.417Z</time></trkpt><trkpt lat="31.6343667" lon="-7.9996383"><ele>457.0</ele><time>2026-04-25T15:56:01.418Z</time></trkpt><trkpt lat="31.6344317" lon="-7.9996117"><ele>457.0</ele><time>2026-04-25T15:56:02.417Z</time></trkpt><trkpt lat="31.6344967" lon="-7.9996"><ele>457.00000000000006</ele><time>2026-04-25T15:56:03.417Z</time></trkpt><trkpt lat="31.6345733" lon="-7.9995967"><ele>457.0</ele><time>2026-04-25T15:56:04.417Z</time></trkpt><trkpt lat="31.6346417" lon="-7.99961"><ele>457.33333333333337</ele><time>2026-04-25T15:56:05.417Z</time></trkpt><trkpt lat="31.6347633" lon="-7.9996633"><ele>457.6666666666667</ele><time>2026-04-25T15:56:07.417Z</time></trkpt><trkpt lat="31.63483" lon="-7.9997083"><ele>458.0</ele><time>2026-04-25T15:56:08.417Z</time></trkpt><trkpt lat="31.634895" lon="-7.9997567"><ele>458.33333333333337</ele><time>2026-04-25T15:56:09.417Z</time></trkpt><trkpt lat="31.6349633" lon="-7.9998083"><ele>458.6666666666667</ele><time>2026-04-25T15:56:10.417Z</time></trkpt><trkpt lat="31.6350217" lon="-7.9998617"><ele>459.0</ele><time>2026-04-25T15:56:11.417Z</time></trkpt><trkpt lat="31.6351133" lon="-7.9999433"><ele>459.0</ele><time>2026-04-25T15:56:13.418Z</time></trkpt><trkpt lat="31.6351717" lon="-8.0"><ele>459.0</ele><time>2026-04-25T15:56:15.417Z</time></trkpt><trkpt lat="31.635255" lon="-8.0000667"><ele>459.0</ele><time>2026-04-25T15:56:17.417Z</time></trkpt><trkpt lat="31.6353083" lon="-8.0001083"><ele>459.0</ele><time>2026-04-25T15:56:18.417Z</time></trkpt><trkpt lat="31.635375" lon="-8.0001583"><ele>459.0</ele><time>2026-04-25T15:56:19.417Z</time></trkpt><trkpt lat="31.6354433" lon="-8.000225"><ele>459.0</ele><time>2026-04-25T15:56:20.417Z</time></trkpt><trkpt lat="31.6355017" lon="-8.0003033"><ele>458.6666666666667</ele><time>2026-04-25T15:56:21.417Z</time></trkpt><trkpt lat="31.6355333" lon="-8.0003833"><ele>458.33333333333337</ele><time>2026-04-25T15:56:22.417Z</time></trkpt><trkpt lat="31.63553" lon="-8.00046"><ele>458.0</ele><time>2026-04-25T15:56:23.417Z</time></trkpt><trkpt lat="31.6355133" lon="-8.000535"><ele>457.6666666666667</ele><time>2026-04-25T15:56:24.417Z</time></trkpt><trkpt lat="31.635465" lon="-8.0006117"><ele>457.33333333333337</ele><time>2026-04-25T15:56:25.417Z</time></trkpt><trkpt lat="31.6353983" lon="-8.0006883"><ele>457.0</ele><time>2026-04-25T15:56:26.417Z</time></trkpt><trkpt lat="31.63531" lon="-8.00076"><ele>457.20000000000005</ele><time>2026-04-25T15:56:27.418Z</time></trkpt><trkpt lat="31.635215" lon="-8.000835"><ele>457.40000000000003</ele><time>2026-04-25T15:56:28.417Z</time></trkpt><trkpt lat="31.6351317" lon="-8.0009033"><ele>457.59999999999997</ele><time>2026-04-25T15:56:29.418Z</time></trkpt><trkpt lat="31.6350583" lon="-8.0009633"><ele>457.79999999999995</ele><time>2026-04-25T15:56:30.417Z</time></trkpt><trkpt lat="31.6349883" lon="-8.0010183"><ele>458.0</ele><time>2026-04-25T15:56:31.417Z</time></trkpt><trkpt lat="31.6349217" lon="-8.0010683"><ele>458.0</ele><time>2026-04-25T15:56:32.417Z</time></trkpt><trkpt lat="31.6348683" lon="-8.0011117"><ele>457.99999999999994</ele><time>2026-04-25T15:56:33.417Z</time></trkpt><trkpt lat="31.6347733" lon="-8.0012"><ele>457.99999999999994</ele><time>2026-04-25T15:56:35.417Z</time></trkpt><trkpt lat="31.6346833" lon="-8.001275"><ele>458.0</ele><time>2026-04-25T15:56:37.417Z</time></trkpt><trkpt lat="31.6346083" lon="-8.0013333"><ele>458.0</ele><time>2026-04-25T15:56:39.417Z</time></trkpt><trkpt lat="31.63453" lon="-8.001395"><ele>457.79999999999995</ele><time>2026-04-25T15:56:41.417Z</time></trkpt><trkpt lat="31.6344367" lon="-8.00146"><ele>457.59999999999997</ele><time>2026-04-25T15:56:43.417Z</time></trkpt><trkpt lat="31.634345" lon="-8.0015333"><ele>457.40000000000003</ele><time>2026-04-25T15:56:45.417Z</time></trkpt><trkpt lat="31.6342567" lon="-8.001605"><ele>457.20000000000005</ele><time>2026-04-25T15:56:47.417Z</time></trkpt><trkpt lat="31.6341617" lon="-8.00168"><ele>457.0</ele><time>2026-04-25T15:56:49.417Z</time></trkpt><trkpt lat="31.634085" lon="-8.00174"><ele>456.6</ele><time>2026-04-25T15:56:51.417Z</time></trkpt><trkpt lat="31.634005" lon="-8.0018033"><ele>456.20000000000005</ele><time>2026-04-25T15:56:53.417Z</time></trkpt><trkpt lat="31.6339483" lon="-8.0018917"><ele>455.8</ele><time>2026-04-25T15:56:55.417Z</time></trkpt><trkpt lat="31.6339117" lon="-8.0019833"><ele>455.4</ele><time>2026-04-25T15:56:57.417Z</time></trkpt><trkpt lat="31.6338967" lon="-8.0020683"><ele>455.0</ele><time>2026-04-25T15:56:59.417Z</time></trkpt><trkpt lat="31.6338833" lon="-8.00219"><ele>454.99999999999994</ele><time>2026-04-25T15:57:01.417Z</time></trkpt><trkpt lat="31.6338667" lon="-8.0023033"><ele>455.0</ele><time>2026-04-25T15:57:03.417Z</time></trkpt><trkpt lat="31.633865" lon="-8.0023933"><ele>455.0</ele><time>2026-04-25T15:57:05.417Z</time></trkpt><trkpt lat="31.6338483" lon="-8.0024683"><ele>455.0</ele><time>2026-04-25T15:57:07.417Z</time></trkpt><trkpt lat="31.6338133" lon="-8.0025967"><ele>454.99999999999994</ele><time>2026-04-25T15:57:09.417Z</time></trkpt><trkpt lat="31.6337867" lon="-8.0026883"><ele>455.0</ele><time>2026-04-25T15:57:10.417Z</time></trkpt><trkpt lat="31.6337567" lon="-8.0028183"><ele>454.75</ele><time>2026-04-25T15:57:11.418Z</time></trkpt><trkpt lat="31.6337233" lon="-8.0029683"><ele>454.5</ele><time>2026-04-25T15:57:12.417Z</time></trkpt><trkpt lat="31.6336833" lon="-8.003115"><ele>454.25</ele><time>2026-04-25T15:57:13.417Z</time></trkpt><trkpt lat="31.6336533" lon="-8.0032383"><ele>454.0</ele><time>2026-04-25T15:57:14.417Z</time></trkpt><trkpt lat="31.6336283" lon="-8.0033333"><ele>454.79999999999995</ele><time>2026-04-25T15:57:15.417Z</time></trkpt><trkpt lat="31.6336083" lon="-8.0034133"><ele>455.59999999999997</ele><time>2026-04-25T15:57:16.417Z</time></trkpt><trkpt lat="31.6335967" lon="-8.0035217"><ele>456.4</ele><time>2026-04-25T15:57:18.417Z</time></trkpt><trkpt lat="31.6335883" lon="-8.0036417"><ele>457.2</ele><time>2026-04-25T15:57:21.417Z</time></trkpt><trkpt lat="31.63357" lon="-8.0037433"><ele>458.0</ele><time>2026-04-25T15:57:23.417Z</time></trkpt><trkpt lat="31.6335383" lon="-8.0038667"><ele>458.0</ele><time>2026-04-25T15:57:25.417Z</time></trkpt><trkpt lat="31.63351" lon="-8.00396"><ele>457.99999999999994</ele><time>2026-04-25T15:57:26.418Z</time></trkpt><trkpt lat="31.6334783" lon="-8.0040717"><ele>457.99999999999994</ele><time>2026-04-25T15:57:27.417Z</time></trkpt><trkpt lat="31.63345" lon="-8.0041917"><ele>458.0</ele><time>2026-04-25T15:57:28.418Z</time></trkpt><trkpt lat="31.6334133" lon="-8.004315"><ele>458.0</ele><time>2026-04-25T15:57:29.417Z</time></trkpt><trkpt lat="31.6333783" lon="-8.0044467"><ele>458.0</ele><time>2026-04-25T15:57:30.417Z</time></trkpt><trkpt lat="31.6333417" lon="-8.0045917"><ele>458.0</ele><time>2026-04-25T15:57:31.417Z</time></trkpt><trkpt lat="31.633305" lon="-8.004735"><ele>458.0</ele><time>2026-04-25T15:57:32.417Z</time></trkpt><trkpt lat="31.6332633" lon="-8.004875"><ele>458.0</ele><time>2026-04-25T15:57:33.417Z</time></trkpt><trkpt lat="31.63323" lon="-8.0050067"><ele>458.0</ele><time>2026-04-25T15:57:34.417Z</time></trkpt><trkpt lat="31.6331933" lon="-8.00513"><ele>457.99999999999994</ele><time>2026-04-25T15:57:35.417Z</time></trkpt><trkpt lat="31.6331567" lon="-8.0052433"><ele>457.99999999999994</ele><time>2026-04-25T15:57:36.417Z</time></trkpt><trkpt lat="31.6331317" lon="-8.00537"><ele>458.0</ele><time>2026-04-25T15:57:37.417Z</time></trkpt><trkpt lat="31.6330983" lon="-8.0055033"><ele>458.0</ele><time>2026-04-25T15:57:38.417Z</time></trkpt><trkpt lat="31.6330633" lon="-8.0056483"><ele>458.0</ele><time>2026-04-25T15:57:39.417Z</time></trkpt><trkpt lat="31.63303" lon="-8.0057983"><ele>458.0</ele><time>2026-04-25T15:57:40.417Z</time></trkpt><trkpt lat="31.63299" lon="-8.00595"><ele>458.0</ele><time>2026-04-25T15:57:41.417Z</time></trkpt><trkpt lat="31.6329533" lon="-8.0061067"><ele>458.0</ele><time>2026-04-25T15:57:42.417Z</time></trkpt><trkpt lat="31.6329233" lon="-8.0062533"><ele>458.0</ele><time>2026-04-25T15:57:43.417Z</time></trkpt><trkpt lat="31.6328867" lon="-8.006395"><ele>458.0</ele><time>2026-04-25T15:57:44.417Z</time></trkpt><trkpt lat="31.6328567" lon="-8.0065417"><ele>458.0</ele><time>2026-04-25T15:57:45.417Z</time></trkpt><trkpt lat="31.632825" lon="-8.006695"><ele>458.0</ele><time>2026-04-25T15:57:46.417Z</time></trkpt><trkpt lat="31.6327917" lon="-8.00684"><ele>458.0</ele><time>2026-04-25T15:57:47.417Z</time></trkpt><trkpt lat="31.63276" lon="-8.0069767"><ele>458.0</ele><time>2026-04-25T15:57:48.417Z</time></trkpt><trkpt lat="31.6327267" lon="-8.00711"><ele>458.0</ele><time>2026-04-25T15:57:49.417Z</time></trkpt><trkpt lat="31.6326967" lon="-8.007235"><ele>458.0</ele><time>2026-04-25T15:57:50.417Z</time></trkpt><trkpt lat="31.6326667" lon="-8.00735"><ele>457.99999999999994</ele><time>2026-04-25T15:57:51.417Z</time></trkpt><trkpt lat="31.6326417" lon="-8.0074567"><ele>458.0</ele><time>2026-04-25T15:57:52.417Z</time></trkpt><trkpt lat="31.6326183" lon="-8.007555"><ele>458.0</ele><time>2026-04-25T15:57:53.417Z</time></trkpt><trkpt lat="31.6325967" lon="-8.0076483"><ele>458.0</ele><time>2026-04-25T15:57:54.418Z</time></trkpt><trkpt lat="31.632575" lon="-8.00774"><ele>457.99999999999994</ele><time>2026-04-25T15:57:55.417Z</time></trkpt><trkpt lat="31.6325483" lon="-8.0078517"><ele>458.0</ele><time>2026-04-25T15:57:57.417Z</time></trkpt><trkpt lat="31.6325233" lon="-8.00792"><ele>457.99999999999994</ele><time>2026-04-25T15:58:30.417Z</time></trkpt><trkpt lat="31.6324917" lon="-8.00803"><ele>458.0</ele><time>2026-04-25T15:58:32.417Z</time></trkpt><trkpt lat="31.6324783" lon="-8.0081183"><ele>458.0</ele><time>2026-04-25T15:58:33.417Z</time></trkpt><trkpt lat="31.63247" lon="-8.00822"><ele>458.0</ele><time>2026-04-25T15:58:34.417Z</time></trkpt><trkpt lat="31.63246" lon="-8.008325"><ele>457.99999999999994</ele><time>2026-04-25T15:58:35.417Z</time></trkpt><trkpt lat="31.6324333" lon="-8.00843"><ele>458.0</ele><time>2026-04-25T15:58:36.418Z</time></trkpt><trkpt lat="31.6324017" lon="-8.0085333"><ele>457.79999999999995</ele><time>2026-04-25T15:58:37.417Z</time></trkpt><trkpt lat="31.6323767" lon="-8.0086283"><ele>457.59999999999997</ele><time>2026-04-25T15:58:38.417Z</time></trkpt><trkpt lat="31.63235" lon="-8.008725"><ele>457.40000000000003</ele><time>2026-04-25T15:58:39.417Z</time></trkpt><trkpt lat="31.63233" lon="-8.0088317"><ele>457.20000000000005</ele><time>2026-04-25T15:58:40.417Z</time></trkpt><trkpt lat="31.632305" lon="-8.008935"><ele>457.0</ele><time>2026-04-25T15:58:41.417Z</time></trkpt><trkpt lat="31.6322733" lon="-8.00904"><ele>457.0</ele><time>2026-04-25T15:58:42.417Z</time></trkpt><trkpt lat="31.6322417" lon="-8.009155"><ele>457.00000000000006</ele><time>2026-04-25T15:58:43.417Z</time></trkpt><trkpt lat="31.6322033" lon="-8.009275"><ele>457.00000000000006</ele><time>2026-04-25T15:58:44.417Z</time></trkpt><trkpt lat="31.632165" lon="-8.0093933"><ele>457.0</ele><time>2026-04-25T15:58:45.417Z</time></trkpt><trkpt lat="31.63213" lon="-8.0095083"><ele>457.0</ele><time>2026-04-25T15:58:46.417Z</time></trkpt><trkpt lat="31.632095" lon="-8.0096117"><ele>457.20000000000005</ele><time>2026-04-25T15:58:47.417Z</time></trkpt><trkpt lat="31.632065" lon="-8.0097133"><ele>457.40000000000003</ele><time>2026-04-25T15:58:48.417Z</time></trkpt><trkpt lat="31.6320317" lon="-8.0098083"><ele>457.59999999999997</ele><time>2026-04-25T15:58:49.417Z</time></trkpt><trkpt lat="31.6320033" lon="-8.0099017"><ele>457.79999999999995</ele><time>2026-04-25T15:58:50.417Z</time></trkpt><trkpt lat="31.6319733" lon="-8.0100017"><ele>458.0</ele><time>2026-04-25T15:58:51.417Z</time></trkpt><trkpt lat="31.631935" lon="-8.0101067"><ele>458.25</ele><time>2026-04-25T15:58:52.417Z</time></trkpt><trkpt lat="31.6318933" lon="-8.01023"><ele>458.5</ele><time>2026-04-25T15:58:53.417Z</time></trkpt><trkpt lat="31.6318567" lon="-8.0103667"><ele>458.75</ele><time>2026-04-25T15:58:54.417Z</time></trkpt><trkpt lat="31.6318167" lon="-8.0104983"><ele>459.0</ele><time>2026-04-25T15:58:55.417Z</time></trkpt><trkpt lat="31.6317817" lon="-8.0106217"><ele>459.0</ele><time>2026-04-25T15:58:56.417Z</time></trkpt><trkpt lat="31.6317417" lon="-8.0107433"><ele>459.0</ele><time>2026-04-25T15:58:57.417Z</time></trkpt><trkpt lat="31.6317" lon="-8.0108733"><ele>459.0</ele><time>2026-04-25T15:58:58.417Z</time></trkpt><trkpt lat="31.63166" lon="-8.011005"><ele>459.0</ele><time>2026-04-25T15:58:59.417Z</time></trkpt><trkpt lat="31.6316233" lon="-8.0111367"><ele>459.1666666666667</ele><time>2026-04-25T15:59:00.417Z</time></trkpt><trkpt lat="31.631585" lon="-8.0112533"><ele>459.33333333333337</ele><time>2026-04-25T15:59:01.417Z</time></trkpt><trkpt lat="31.6315517" lon="-8.01136"><ele>459.5</ele><time>2026-04-25T15:59:02.417Z</time></trkpt><trkpt lat="31.6315233" lon="-8.011445"><ele>459.6666666666667</ele><time>2026-04-25T15:59:03.417Z</time></trkpt><trkpt lat="31.6314933" lon="-8.0115417"><ele>459.83333333333337</ele><time>2026-04-25T15:59:05.416Z</time></trkpt><trkpt lat="31.6314833" lon="-8.0116183"><ele>460.0</ele><time>2026-04-25T15:59:07.417Z</time></trkpt><trkpt lat="31.63146" lon="-8.0117283"><ele>459.6666666666667</ele><time>2026-04-25T15:59:09.417Z</time></trkpt><trkpt lat="31.6314283" lon="-8.0118667"><ele>459.33333333333337</ele><time>2026-04-25T15:59:11.416Z</time></trkpt><trkpt lat="31.6314117" lon="-8.01194"><ele>459.0</ele><time>2026-04-25T15:59:12.416Z</time></trkpt><trkpt lat="31.6313917" lon="-8.0120133"><ele>458.66666666666663</ele><time>2026-04-25T15:59:13.416Z</time></trkpt><trkpt lat="31.6313683" lon="-8.0120917"><ele>458.3333333333333</ele><time>2026-04-25T15:59:14.417Z</time></trkpt><trkpt lat="31.6313367" lon="-8.0121733"><ele>458.0</ele><time>2026-04-25T15:59:15.416Z</time></trkpt><trkpt lat="31.6313083" lon="-8.0122633"><ele>457.99999999999994</ele><time>2026-04-25T15:59:16.416Z</time></trkpt><trkpt lat="31.63128" lon="-8.0123517"><ele>458.0</ele><time>2026-04-25T15:59:17.416Z</time></trkpt><trkpt lat="31.6312533" lon="-8.01244"><ele>458.0</ele><time>2026-04-25T15:59:18.416Z</time></trkpt><trkpt lat="31.6312283" lon="-8.0125283"><ele>458.0</ele><time>2026-04-25T15:59:19.416Z</time></trkpt><trkpt lat="31.6312033" lon="-8.0126117"><ele>457.99999999999994</ele><time>2026-04-25T15:59:20.416Z</time></trkpt><trkpt lat="31.6311733" lon="-8.0126933"><ele>458.0</ele><time>2026-04-25T15:59:21.416Z</time></trkpt><trkpt lat="31.6311417" lon="-8.0127833"><ele>457.79999999999995</ele><time>2026-04-25T15:59:22.416Z</time></trkpt><trkpt lat="31.63111" lon="-8.0128883"><ele>457.59999999999997</ele><time>2026-04-25T15:59:23.416Z</time></trkpt><trkpt lat="31.631075" lon="-8.0130017"><ele>457.40000000000003</ele><time>2026-04-25T15:59:24.416Z</time></trkpt><trkpt lat="31.63104" lon="-8.0131183"><ele>457.20000000000005</ele><time>2026-04-25T15:59:25.416Z</time></trkpt><trkpt lat="31.6310083" lon="-8.0132283"><ele>457.0</ele><time>2026-04-25T15:59:26.416Z</time></trkpt><trkpt lat="31.63098" lon="-8.0133317"><ele>457.6</ele><time>2026-04-25T15:59:27.416Z</time></trkpt><trkpt lat="31.6309517" lon="-8.0134283"><ele>458.20000000000005</ele><time>2026-04-25T15:59:28.417Z</time></trkpt><trkpt lat="31.630925" lon="-8.013525"><ele>458.8</ele><time>2026-04-25T15:59:29.416Z</time></trkpt><trkpt lat="31.6308983" lon="-8.013625"><ele>459.4</ele><time>2026-04-25T15:59:30.416Z</time></trkpt><trkpt lat="31.6308717" lon="-8.0137283"><ele>460.0</ele><time>2026-04-25T15:59:31.416Z</time></trkpt><trkpt lat="31.6308433" lon="-8.0138367"><ele>460.0</ele><time>2026-04-25T15:59:32.416Z</time></trkpt><trkpt lat="31.6308167" lon="-8.0139483"><ele>460.0</ele><time>2026-04-25T15:59:33.416Z</time></trkpt><trkpt lat="31.63079" lon="-8.0140633"><ele>460.0</ele><time>2026-04-25T15:59:34.416Z</time></trkpt><trkpt lat="31.6307583" lon="-8.0141733"><ele>460.0</ele><time>2026-04-25T15:59:35.416Z</time></trkpt><trkpt lat="31.630725" lon="-8.0142817"><ele>460.0</ele><time>2026-04-25T15:59:36.416Z</time></trkpt><trkpt lat="31.6306883" lon="-8.0143917"><ele>459.8</ele><time>2026-04-25T15:59:37.416Z</time></trkpt><trkpt lat="31.63065" lon="-8.0145"><ele>459.6</ele><time>2026-04-25T15:59:38.416Z</time></trkpt><trkpt lat="31.6306167" lon="-8.0146083"><ele>459.4</ele><time>2026-04-25T15:59:39.416Z</time></trkpt><trkpt lat="31.6305833" lon="-8.0147067"><ele>459.2</ele><time>2026-04-25T15:59:40.416Z</time></trkpt><trkpt lat="31.6305583" lon="-8.014805"><ele>459.0</ele><time>2026-04-25T15:59:41.416Z</time></trkpt><trkpt lat="31.6305383" lon="-8.0148983"><ele>459.0</ele><time>2026-04-25T15:59:42.416Z</time></trkpt><trkpt lat="31.63052" lon="-8.0149817"><ele>459.0</ele><time>2026-04-25T15:59:43.416Z</time></trkpt><trkpt lat="31.630495" lon="-8.0150567"><ele>459.0</ele><time>2026-04-25T15:59:44.417Z</time></trkpt><trkpt lat="31.6304383" lon="-8.0151683"><ele>459.0</ele><time>2026-04-25T15:59:46.416Z</time></trkpt><trkpt lat="31.63041" lon="-8.01527"><ele>459.0</ele><time>2026-04-25T15:59:48.416Z</time></trkpt><trkpt lat="31.6303833" lon="-8.0153483"><ele>459.0</ele><time>2026-04-25T15:59:50.416Z</time></trkpt><trkpt lat="31.63036" lon="-8.015425"><ele>458.79999999999995</ele><time>2026-04-25T15:59:53.416Z</time></trkpt><trkpt lat="31.63036" lon="-8.0155433"><ele>458.59999999999997</ele><time>2026-04-25T16:00:38.417Z</time></trkpt><trkpt lat="31.6303183" lon="-8.0156683"><ele>458.4</ele><time>2026-04-25T16:00:40.416Z</time></trkpt><trkpt lat="31.6302867" lon="-8.015765"><ele>458.2</ele><time>2026-04-25T16:00:42.416Z</time></trkpt><trkpt lat="31.63026" lon="-8.015885"><ele>458.0</ele><time>2026-04-25T16:00:44.416Z</time></trkpt><trkpt lat="31.63025" lon="-8.0160033"><ele>457.49999999999994</ele><time>2026-04-25T16:00:46.416Z</time></trkpt><trkpt lat="31.6302167" lon="-8.0161333"><ele>457.0</ele><time>2026-04-25T16:00:48.416Z</time></trkpt><trkpt lat="31.630185" lon="-8.0162083"><ele>456.5</ele><time>2026-04-25T16:00:49.416Z</time></trkpt><trkpt lat="31.63015" lon="-8.016285"><ele>456.0</ele><time>2026-04-25T16:00:50.416Z</time></trkpt><trkpt lat="31.63012" lon="-8.0163633"><ele>455.49999999999994</ele><time>2026-04-25T16:00:51.416Z</time></trkpt><trkpt lat="31.63009" lon="-8.0164533"><ele>455.0</ele><time>2026-04-25T16:00:52.416Z</time></trkpt><trkpt lat="31.6300583" lon="-8.0165517"><ele>455.0</ele><time>2026-04-25T16:00:53.416Z</time></trkpt><trkpt lat="31.630025" lon="-8.016655"><ele>455.0</ele><time>2026-04-25T16:00:54.416Z</time></trkpt><trkpt lat="31.6299933" lon="-8.01676"><ele>455.0</ele><time>2026-04-25T16:00:55.416Z</time></trkpt><trkpt lat="31.6299567" lon="-8.016855"><ele>455.0</ele><time>2026-04-25T16:00:56.416Z</time></trkpt><trkpt lat="31.629925" lon="-8.0169583"><ele>455.0</ele><time>2026-04-25T16:00:57.416Z</time></trkpt><trkpt lat="31.62989" lon="-8.0170667"><ele>454.99999999999994</ele><time>2026-04-25T16:00:58.416Z</time></trkpt><trkpt lat="31.629855" lon="-8.0171767"><ele>455.0</ele><time>2026-04-25T16:00:59.416Z</time></trkpt><trkpt lat="31.6298267" lon="-8.0172783"><ele>455.0</ele><time>2026-04-25T16:01:00.416Z</time></trkpt><trkpt lat="31.6298033" lon="-8.0173733"><ele>455.0</ele><time>2026-04-25T16:01:01.417Z</time></trkpt><trkpt lat="31.6297783" lon="-8.0174617"><ele>454.99999999999994</ele><time>2026-04-25T16:01:02.416Z</time></trkpt><trkpt lat="31.6297567" lon="-8.01755"><ele>455.0</ele><time>2026-04-25T16:01:03.416Z</time></trkpt><trkpt lat="31.6297317" lon="-8.0176467"><ele>454.99999999999994</ele><time>2026-04-25T16:01:04.416Z</time></trkpt><trkpt lat="31.6297" lon="-8.0177467"><ele>455.0</ele><time>2026-04-25T16:01:05.416Z</time></trkpt><trkpt lat="31.6296667" lon="-8.0178467"><ele>455.0</ele><time>2026-04-25T16:01:06.416Z</time></trkpt><trkpt lat="31.629635" lon="-8.01794"><ele>455.0</ele><time>2026-04-25T16:01:07.416Z</time></trkpt><trkpt lat="31.629605" lon="-8.0180267"><ele>454.99999999999994</ele><time>2026-04-25T16:01:08.416Z</time></trkpt><trkpt lat="31.6295767" lon="-8.0181133"><ele>455.0</ele><time>2026-04-25T16:01:09.416Z</time></trkpt><trkpt lat="31.6295483" lon="-8.0182017"><ele>455.0</ele><time>2026-04-25T16:01:10.416Z</time></trkpt><trkpt lat="31.6295167" lon="-8.01829"><ele>455.0</ele><time>2026-04-25T16:01:11.416Z</time></trkpt><trkpt lat="31.6294883" lon="-8.01839"><ele>455.0</ele><time>2026-04-25T16:01:12.416Z</time></trkpt><trkpt lat="31.6294633" lon="-8.0184983"><ele>455.0</ele><time>2026-04-25T16:01:13.416Z</time></trkpt><trkpt lat="31.629435" lon="-8.0186117"><ele>455.0</ele><time>2026-04-25T16:01:14.416Z</time></trkpt><trkpt lat="31.6294017" lon="-8.0187333"><ele>455.0</ele><time>2026-04-25T16:01:15.416Z</time></trkpt><trkpt lat="31.6293683" lon="-8.0188633"><ele>455.0</ele><time>2026-04-25T16:01:16.416Z</time></trkpt><trkpt lat="31.62933" lon="-8.0189983"><ele>455.0</ele><time>2026-04-25T16:01:17.416Z</time></trkpt><trkpt lat="31.62929" lon="-8.0191367"><ele>455.0</ele><time>2026-04-25T16:01:18.416Z</time></trkpt><trkpt lat="31.62925" lon="-8.0192717"><ele>455.0</ele><time>2026-04-25T16:01:19.416Z</time></trkpt><trkpt lat="31.629205" lon="-8.0194167"><ele>455.0</ele><time>2026-04-25T16:01:20.416Z</time></trkpt><trkpt lat="31.62916" lon="-8.019565"><ele>455.0</ele><time>2026-04-25T16:01:21.416Z</time></trkpt><trkpt lat="31.6291133" lon="-8.019715"><ele>455.0</ele><time>2026-04-25T16:01:22.417Z</time></trkpt><trkpt lat="31.62906" lon="-8.01986"><ele>454.75</ele><time>2026-04-25T16:01:23.416Z</time></trkpt><trkpt lat="31.6290117" lon="-8.0200017"><ele>454.5</ele><time>2026-04-25T16:01:24.416Z</time></trkpt><trkpt lat="31.628965" lon="-8.020155"><ele>454.25</ele><time>2026-04-25T16:01:25.416Z</time></trkpt><trkpt lat="31.628925" lon="-8.0203017"><ele>454.0</ele><time>2026-04-25T16:01:26.416Z</time></trkpt><trkpt lat="31.62889" lon="-8.02046"><ele>454.0</ele><time>2026-04-25T16:01:27.416Z</time></trkpt><trkpt lat="31.628855" lon="-8.0206217"><ele>454.0</ele><time>2026-04-25T16:01:28.416Z</time></trkpt><trkpt lat="31.6288217" lon="-8.0207767"><ele>454.0</ele><time>2026-04-25T16:01:29.416Z</time></trkpt><trkpt lat="31.628785" lon="-8.0209233"><ele>454.0</ele><time>2026-04-25T16:01:30.416Z</time></trkpt><trkpt lat="31.628745" lon="-8.0210683"><ele>454.0</ele><time>2026-04-25T16:01:31.416Z</time></trkpt><trkpt lat="31.6287017" lon="-8.021215"><ele>454.0</ele><time>2026-04-25T16:01:32.416Z</time></trkpt><trkpt lat="31.62866" lon="-8.0213633"><ele>454.0</ele><time>2026-04-25T16:01:33.416Z</time></trkpt><trkpt lat="31.62862" lon="-8.0215067"><ele>454.0</ele><time>2026-04-25T16:01:34.416Z</time></trkpt><trkpt lat="31.6285767" lon="-8.0216517"><ele>454.5</ele><time>2026-04-25T16:01:35.416Z</time></trkpt><trkpt lat="31.628535" lon="-8.0217983"><ele>455.0</ele><time>2026-04-25T16:01:36.416Z</time></trkpt><trkpt lat="31.628495" lon="-8.021935"><ele>455.5</ele><time>2026-04-25T16:01:37.416Z</time></trkpt><trkpt lat="31.62845" lon="-8.0220717"><ele>456.0</ele><time>2026-04-25T16:01:38.416Z</time></trkpt><trkpt lat="31.62841" lon="-8.0222167"><ele>456.0</ele><time>2026-04-25T16:01:39.416Z</time></trkpt><trkpt lat="31.6283683" lon="-8.0223667"><ele>456.0</ele><time>2026-04-25T16:01:40.416Z</time></trkpt><trkpt lat="31.6283317" lon="-8.0225167"><ele>456.0</ele><time>2026-04-25T16:01:41.416Z</time></trkpt><trkpt lat="31.628295" lon="-8.0226617"><ele>456.0</ele><time>2026-04-25T16:01:42.416Z</time></trkpt><trkpt lat="31.6282517" lon="-8.0228033"><ele>455.75</ele><time>2026-04-25T16:01:43.416Z</time></trkpt><trkpt lat="31.6282067" lon="-8.0229483"><ele>455.5</ele><time>2026-04-25T16:01:44.416Z</time></trkpt><trkpt lat="31.6281633" lon="-8.0230983"><ele>455.25</ele><time>2026-04-25T16:01:45.416Z</time></trkpt><trkpt lat="31.6281217" lon="-8.0232417"><ele>455.0</ele><time>2026-04-25T16:01:46.416Z</time></trkpt><trkpt lat="31.6280833" lon="-8.02338"><ele>455.0</ele><time>2026-04-25T16:01:47.416Z</time></trkpt><trkpt lat="31.6280433" lon="-8.0235167"><ele>455.0</ele><time>2026-04-25T16:01:48.416Z</time></trkpt><trkpt lat="31.6279983" lon="-8.0236567"><ele>455.0</ele><time>2026-04-25T16:01:49.416Z</time></trkpt><trkpt lat="31.6279617" lon="-8.0238"><ele>455.0</ele><time>2026-04-25T16:01:50.416Z</time></trkpt><trkpt lat="31.6279217" lon="-8.0239383"><ele>455.0</ele><time>2026-04-25T16:01:51.416Z</time></trkpt><trkpt lat="31.6278817" lon="-8.0240817"><ele>455.0</ele><time>2026-04-25T16:01:52.416Z</time></trkpt><trkpt lat="31.6278433" lon="-8.0242317"><ele>455.0</ele><time>2026-04-25T16:01:53.416Z</time></trkpt><trkpt lat="31.6278017" lon="-8.0243617"><ele>455.0</ele><time>2026-04-25T16:01:54.416Z</time></trkpt><trkpt lat="31.6277583" lon="-8.0244867"><ele>454.99999999999994</ele><time>2026-04-25T16:01:55.417Z</time></trkpt><trkpt lat="31.6277217" lon="-8.02461"><ele>455.0</ele><time>2026-04-25T16:01:56.416Z</time></trkpt><trkpt lat="31.6276883" lon="-8.0247217"><ele>455.0</ele><time>2026-04-25T16:01:57.416Z</time></trkpt><trkpt lat="31.62766" lon="-8.0248233"><ele>455.0</ele><time>2026-04-25T16:01:58.416Z</time></trkpt><trkpt lat="31.6276367" lon="-8.0248983"><ele>454.99999999999994</ele><time>2026-04-25T16:01:59.416Z</time></trkpt><trkpt lat="31.62761" lon="-8.024985"><ele>455.0</ele><time>2026-04-25T16:02:01.416Z</time></trkpt><trkpt lat="31.6275967" lon="-8.02506"><ele>454.8333333333333</ele><time>2026-04-25T16:02:51.416Z</time></trkpt><trkpt lat="31.6275767" lon="-8.0251467"><ele>454.66666666666663</ele><time>2026-04-25T16:02:53.416Z</time></trkpt><trkpt lat="31.62754" lon="-8.025285"><ele>454.5</ele><time>2026-04-25T16:02:55.416Z</time></trkpt><trkpt lat="31.6275233" lon="-8.0253667"><ele>454.33333333333337</ele><time>2026-04-25T16:02:56.417Z</time></trkpt><trkpt lat="31.6274983" lon="-8.0254583"><ele>454.1666666666667</ele><time>2026-04-25T16:02:57.416Z</time></trkpt><trkpt lat="31.6274717" lon="-8.0255633"><ele>454.0</ele><time>2026-04-25T16:02:58.416Z</time></trkpt><trkpt lat="31.62744" lon="-8.02567"><ele>454.0</ele><time>2026-04-25T16:02:59.416Z</time></trkpt><trkpt lat="31.6274033" lon="-8.0257767"><ele>454.0</ele><time>2026-04-25T16:03:00.416Z</time></trkpt><trkpt lat="31.6273717" lon="-8.0258767"><ele>454.0</ele><time>2026-04-25T16:03:01.416Z</time></trkpt><trkpt lat="31.6273433" lon="-8.0259783"><ele>454.0</ele><time>2026-04-25T16:03:02.416Z</time></trkpt><trkpt lat="31.6273133" lon="-8.026085"><ele>454.0</ele><time>2026-04-25T16:03:03.416Z</time></trkpt><trkpt lat="31.62728" lon="-8.02619"><ele>453.83333333333337</ele><time>2026-04-25T16:03:04.416Z</time></trkpt><trkpt lat="31.6272467" lon="-8.0263083"><ele>453.6666666666667</ele><time>2026-04-25T16:03:05.416Z</time></trkpt><trkpt lat="31.6272167" lon="-8.0264183"><ele>453.5</ele><time>2026-04-25T16:03:06.416Z</time></trkpt><trkpt lat="31.6271867" lon="-8.02652"><ele>453.33333333333337</ele><time>2026-04-25T16:03:07.416Z</time></trkpt><trkpt lat="31.6271617" lon="-8.026605"><ele>453.1666666666667</ele><time>2026-04-25T16:03:08.416Z</time></trkpt><trkpt lat="31.62714" lon="-8.0266833"><ele>453.0</ele><time>2026-04-25T16:03:09.416Z</time></trkpt><trkpt lat="31.6271117" lon="-8.0267817"><ele>453.0</ele><time>2026-04-25T16:03:11.416Z</time></trkpt><trkpt lat="31.627085" lon="-8.02687"><ele>453.0</ele><time>2026-04-25T16:03:15.416Z</time></trkpt><trkpt lat="31.6270617" lon="-8.026945"><ele>453.0</ele><time>2026-04-25T16:03:17.415Z</time></trkpt><trkpt lat="31.62704" lon="-8.027045"><ele>453.0</ele><time>2026-04-25T16:03:19.415Z</time></trkpt><trkpt lat="31.627005" lon="-8.027165"><ele>453.0</ele><time>2026-04-25T16:03:21.415Z</time></trkpt><trkpt lat="31.6269867" lon="-8.0272417"><ele>453.0</ele><time>2026-04-25T16:03:22.415Z</time></trkpt><trkpt lat="31.62697" lon="-8.027325"><ele>453.0</ele><time>2026-04-25T16:03:23.415Z</time></trkpt><trkpt lat="31.6269533" lon="-8.0274117"><ele>452.99999999999994</ele><time>2026-04-25T16:03:24.415Z</time></trkpt><trkpt lat="31.6269367" lon="-8.02751"><ele>452.99999999999994</ele><time>2026-04-25T16:03:25.415Z</time></trkpt><trkpt lat="31.6269117" lon="-8.0276133"><ele>453.0</ele><time>2026-04-25T16:03:26.415Z</time></trkpt><trkpt lat="31.6268917" lon="-8.0277317"><ele>453.0</ele><time>2026-04-25T16:03:27.415Z</time></trkpt><trkpt lat="31.6268733" lon="-8.0278717"><ele>453.0</ele><time>2026-04-25T16:03:28.415Z</time></trkpt><trkpt lat="31.62686" lon="-8.028025"><ele>453.0</ele><time>2026-04-25T16:03:29.415Z</time></trkpt><trkpt lat="31.6268517" lon="-8.0281817"><ele>453.0</ele><time>2026-04-25T16:03:30.416Z</time></trkpt><trkpt lat="31.62684" lon="-8.02833"><ele>453.0</ele><time>2026-04-25T16:03:31.416Z</time></trkpt><trkpt lat="31.62683" lon="-8.0284883"><ele>453.0</ele><time>2026-04-25T16:03:32.415Z</time></trkpt><trkpt lat="31.62683" lon="-8.0286483"><ele>453.0</ele><time>2026-04-25T16:03:33.415Z</time></trkpt><trkpt lat="31.626835" lon="-8.0288067"><ele>453.0</ele><time>2026-04-25T16:03:34.415Z</time></trkpt><trkpt lat="31.626845" lon="-8.0289633"><ele>453.0</ele><time>2026-04-25T16:03:35.415Z</time></trkpt><trkpt lat="31.626855" lon="-8.0291183"><ele>453.0</ele><time>2026-04-25T16:03:36.415Z</time></trkpt><trkpt lat="31.6268683" lon="-8.0292667"><ele>453.0</ele><time>2026-04-25T16:03:37.415Z</time></trkpt><trkpt lat="31.6268883" lon="-8.0294117"><ele>453.0</ele><time>2026-04-25T16:03:38.416Z</time></trkpt><trkpt lat="31.6269017" lon="-8.0295583"><ele>453.0</ele><time>2026-04-25T16:03:39.415Z</time></trkpt><trkpt lat="31.62692" lon="-8.0297"><ele>453.0</ele><time>2026-04-25T16:03:40.415Z</time></trkpt><trkpt lat="31.6269317" lon="-8.02984"><ele>453.0</ele><time>2026-04-25T16:03:41.415Z</time></trkpt><trkpt lat="31.626945" lon="-8.0299733"><ele>453.0</ele><time>2026-04-25T16:03:42.415Z</time></trkpt><trkpt lat="31.6269667" lon="-8.0301083"><ele>453.0</ele><time>2026-04-25T16:03:43.415Z</time></trkpt><trkpt lat="31.6269917" lon="-8.0302433"><ele>452.6666666666667</ele><time>2026-04-25T16:03:44.415Z</time></trkpt><trkpt lat="31.6270067" lon="-8.0303683"><ele>452.33333333333337</ele><time>2026-04-25T16:03:45.415Z</time></trkpt><trkpt lat="31.6270183" lon="-8.0304833"><ele>452.0</ele><time>2026-04-25T16:03:46.415Z</time></trkpt><trkpt lat="31.6270267" lon="-8.0305817"><ele>451.6666666666667</ele><time>2026-04-25T16:03:47.415Z</time></trkpt><trkpt lat="31.627035" lon="-8.0306667"><ele>451.33333333333337</ele><time>2026-04-25T16:03:48.415Z</time></trkpt><trkpt lat="31.6270417" lon="-8.0307467"><ele>451.0</ele><time>2026-04-25T16:03:49.415Z</time></trkpt><trkpt lat="31.627055" lon="-8.0308367"><ele>451.0</ele><time>2026-04-25T16:03:50.415Z</time></trkpt><trkpt lat="31.6270667" lon="-8.0309333"><ele>451.0</ele><time>2026-04-25T16:03:51.415Z</time></trkpt><trkpt lat="31.6270767" lon="-8.0310433"><ele>451.0</ele><time>2026-04-25T16:03:52.415Z</time></trkpt><trkpt lat="31.6270883" lon="-8.03116"><ele>451.0</ele><time>2026-04-25T16:03:53.415Z</time></trkpt><trkpt lat="31.6271033" lon="-8.03128"><ele>451.0</ele><time>2026-04-25T16:03:54.415Z</time></trkpt><trkpt lat="31.6271117" lon="-8.031405"><ele>451.0</ele><time>2026-04-25T16:03:55.415Z</time></trkpt><trkpt lat="31.627115" lon="-8.0315367"><ele>451.0</ele><time>2026-04-25T16:03:56.415Z</time></trkpt><trkpt lat="31.627105" lon="-8.0316817"><ele>451.0</ele><time>2026-04-25T16:03:57.415Z</time></trkpt><trkpt lat="31.6271017" lon="-8.0318183"><ele>451.0</ele><time>2026-04-25T16:03:58.415Z</time></trkpt><trkpt lat="31.6270933" lon="-8.0319433"><ele>451.20000000000005</ele><time>2026-04-25T16:03:59.415Z</time></trkpt><trkpt lat="31.6271033" lon="-8.032055"><ele>451.40000000000003</ele><time>2026-04-25T16:04:00.415Z</time></trkpt><trkpt lat="31.62711" lon="-8.0321567"><ele>451.6</ele><time>2026-04-25T16:04:01.415Z</time></trkpt><trkpt lat="31.62712" lon="-8.03226"><ele>451.8</ele><time>2026-04-25T16:04:02.415Z</time></trkpt><trkpt lat="31.6271233" lon="-8.0323733"><ele>452.0</ele><time>2026-04-25T16:04:03.415Z</time></trkpt><trkpt lat="31.6271267" lon="-8.0324917"><ele>451.40000000000003</ele><time>2026-04-25T16:04:04.415Z</time></trkpt><trkpt lat="31.6271283" lon="-8.032615"><ele>450.80000000000007</ele><time>2026-04-25T16:04:05.415Z</time></trkpt><trkpt lat="31.62713" lon="-8.0327467"><ele>450.2</ele><time>2026-04-25T16:04:06.415Z</time></trkpt><trkpt lat="31.6271333" lon="-8.0328717"><ele>449.6</ele><time>2026-04-25T16:04:07.415Z</time></trkpt><trkpt lat="31.6271367" lon="-8.0330017"><ele>449.0</ele><time>2026-04-25T16:04:08.415Z</time></trkpt><trkpt lat="31.6271467" lon="-8.033135"><ele>449.0</ele><time>2026-04-25T16:04:09.415Z</time></trkpt><trkpt lat="31.6271567" lon="-8.03326"><ele>449.0</ele><time>2026-04-25T16:04:10.415Z</time></trkpt><trkpt lat="31.6271667" lon="-8.03338"><ele>449.0</ele><time>2026-04-25T16:04:11.415Z</time></trkpt><trkpt lat="31.62717" lon="-8.0335017"><ele>449.0</ele><time>2026-04-25T16:04:12.415Z</time></trkpt><trkpt lat="31.627175" lon="-8.03363"><ele>449.0</ele><time>2026-04-25T16:04:13.415Z</time></trkpt><trkpt lat="31.62718" lon="-8.03377"><ele>449.0</ele><time>2026-04-25T16:04:14.415Z</time></trkpt><trkpt lat="31.62719" lon="-8.0339167"><ele>449.0</ele><time>2026-04-25T16:04:15.415Z</time></trkpt><trkpt lat="31.6271967" lon="-8.034055"><ele>449.0</ele><time>2026-04-25T16:04:16.415Z</time></trkpt><trkpt lat="31.6272033" lon="-8.03419"><ele>449.0</ele><time>2026-04-25T16:04:17.416Z</time></trkpt><trkpt lat="31.6272117" lon="-8.03433"><ele>449.0</ele><time>2026-04-25T16:04:18.415Z</time></trkpt><trkpt lat="31.6272217" lon="-8.0344633"><ele>449.0</ele><time>2026-04-25T16:04:19.415Z</time></trkpt><trkpt lat="31.6272283" lon="-8.0345967"><ele>449.0</ele><time>2026-04-25T16:04:20.415Z</time></trkpt><trkpt lat="31.6272333" lon="-8.0347317"><ele>449.0</ele><time>2026-04-25T16:04:21.415Z</time></trkpt><trkpt lat="31.6272417" lon="-8.0348733"><ele>449.0</ele><time>2026-04-25T16:04:22.415Z</time></trkpt><trkpt lat="31.627255" lon="-8.035015"><ele>449.0</ele><time>2026-04-25T16:04:23.415Z</time></trkpt><trkpt lat="31.62727" lon="-8.035165"><ele>449.0</ele><time>2026-04-25T16:04:24.416Z</time></trkpt><trkpt lat="31.6272817" lon="-8.0353133"><ele>449.0</ele><time>2026-04-25T16:04:25.415Z</time></trkpt><trkpt lat="31.6272967" lon="-8.0354567"><ele>449.0</ele><time>2026-04-25T16:04:26.415Z</time></trkpt><trkpt lat="31.6273067" lon="-8.0355983"><ele>449.0</ele><time>2026-04-25T16:04:27.415Z</time></trkpt><trkpt lat="31.6273283" lon="-8.0357417"><ele>449.0</ele><time>2026-04-25T16:04:28.415Z</time></trkpt><trkpt lat="31.6273433" lon="-8.0358767"><ele>449.0</ele><time>2026-04-25T16:04:29.415Z</time></trkpt><trkpt lat="31.6273517" lon="-8.0359967"><ele>449.16666666666663</ele><time>2026-04-25T16:04:30.415Z</time></trkpt><trkpt lat="31.6273633" lon="-8.0361083"><ele>449.3333333333333</ele><time>2026-04-25T16:04:31.415Z</time></trkpt><trkpt lat="31.6273817" lon="-8.0362083"><ele>449.5</ele><time>2026-04-25T16:04:32.415Z</time></trkpt><trkpt lat="31.6273983" lon="-8.0363033"><ele>449.66666666666663</ele><time>2026-04-25T16:04:33.415Z</time></trkpt><trkpt lat="31.6274033" lon="-8.0363883"><ele>449.8333333333333</ele><time>2026-04-25T16:04:34.415Z</time></trkpt><trkpt lat="31.62741" lon="-8.0365167"><ele>450.0</ele><time>2026-04-25T16:04:36.415Z</time></trkpt><trkpt lat="31.6274183" lon="-8.0366633"><ele>450.0</ele><time>2026-04-25T16:04:38.415Z</time></trkpt><trkpt lat="31.6274283" lon="-8.036745"><ele>450.0</ele><time>2026-04-25T16:04:39.415Z</time></trkpt><trkpt lat="31.6274333" lon="-8.0368383"><ele>450.0</ele><time>2026-04-25T16:04:40.415Z</time></trkpt><trkpt lat="31.62744" lon="-8.03694"><ele>450.0</ele><time>2026-04-25T16:04:41.415Z</time></trkpt><trkpt lat="31.627445" lon="-8.0370333"><ele>450.0</ele><time>2026-04-25T16:04:42.415Z</time></trkpt><trkpt lat="31.6274533" lon="-8.03712"><ele>450.0</ele><time>2026-04-25T16:04:43.416Z</time></trkpt><trkpt lat="31.6274533" lon="-8.037205"><ele>450.0</ele><time>2026-04-25T16:04:44.415Z</time></trkpt><trkpt lat="31.62746" lon="-8.037295"><ele>450.0</ele><time>2026-04-25T16:04:45.415Z</time></trkpt><trkpt lat="31.6274667" lon="-8.0373967"><ele>450.0</ele><time>2026-04-25T16:04:46.415Z</time></trkpt><trkpt lat="31.62747" lon="-8.0375"><ele>450.0</ele><time>2026-04-25T16:04:47.415Z</time></trkpt><trkpt lat="31.6274683" lon="-8.0376067"><ele>450.0</ele><time>2026-04-25T16:04:48.415Z</time></trkpt><trkpt lat="31.62747" lon="-8.0377317"><ele>450.0</ele><time>2026-04-25T16:04:49.415Z</time></trkpt><trkpt lat="31.627465" lon="-8.0378533"><ele>450.0</ele><time>2026-04-25T16:04:50.415Z</time></trkpt><trkpt lat="31.627465" lon="-8.0379683"><ele>450.0</ele><time>2026-04-25T16:04:51.415Z</time></trkpt><trkpt lat="31.6274667" lon="-8.0380867"><ele>450.0</ele><time>2026-04-25T16:04:52.415Z</time></trkpt><trkpt lat="31.6274733" lon="-8.0382117"><ele>450.0</ele><time>2026-04-25T16:04:53.415Z</time></trkpt><trkpt lat="31.6274767" lon="-8.0383317"><ele>450.0</ele><time>2026-04-25T16:04:54.415Z</time></trkpt><trkpt lat="31.6274833" lon="-8.0384467"><ele>449.4</ele><time>2026-04-25T16:04:55.415Z</time></trkpt><trkpt lat="31.6274883" lon="-8.038555"><ele>448.8</ele><time>2026-04-25T16:04:56.415Z</time></trkpt><trkpt lat="31.6274917" lon="-8.0386533"><ele>448.20000000000005</ele><time>2026-04-25T16:04:57.415Z</time></trkpt><trkpt lat="31.6274917" lon="-8.038755"><ele>447.6</ele><time>2026-04-25T16:04:58.416Z</time></trkpt><trkpt lat="31.6274933" lon="-8.0388733"><ele>447.0</ele><time>2026-04-25T16:04:59.415Z</time></trkpt><trkpt lat="31.6274917" lon="-8.0390017"><ele>447.0</ele><time>2026-04-25T16:05:00.415Z</time></trkpt><trkpt lat="31.62749" lon="-8.0391317"><ele>447.0</ele><time>2026-04-25T16:05:01.415Z</time></trkpt><trkpt lat="31.627495" lon="-8.0392583"><ele>447.0</ele><time>2026-04-25T16:05:02.415Z</time></trkpt><trkpt lat="31.6275" lon="-8.0393933"><ele>447.0</ele><time>2026-04-25T16:05:03.415Z</time></trkpt><trkpt lat="31.6275067" lon="-8.03954"><ele>447.5</ele><time>2026-04-25T16:05:04.415Z</time></trkpt><trkpt lat="31.627515" lon="-8.0397"><ele>448.0</ele><time>2026-04-25T16:05:05.415Z</time></trkpt><trkpt lat="31.62752" lon="-8.039875"><ele>448.5</ele><time>2026-04-25T16:05:06.415Z</time></trkpt><trkpt lat="31.627515" lon="-8.04005"><ele>449.0</ele><time>2026-04-25T16:05:07.415Z</time></trkpt><trkpt lat="31.62752" lon="-8.0402167"><ele>449.0</ele><time>2026-04-25T16:05:08.415Z</time></trkpt><trkpt lat="31.627525" lon="-8.04037"><ele>449.0</ele><time>2026-04-25T16:05:09.415Z</time></trkpt><trkpt lat="31.627525" lon="-8.0405217"><ele>449.0</ele><time>2026-04-25T16:05:10.415Z</time></trkpt><trkpt lat="31.6275267" lon="-8.0406733"><ele>449.0</ele><time>2026-04-25T16:05:11.415Z</time></trkpt><trkpt lat="31.6275317" lon="-8.040815"><ele>449.0</ele><time>2026-04-25T16:05:12.415Z</time></trkpt><trkpt lat="31.6275367" lon="-8.0409617"><ele>449.0</ele><time>2026-04-25T16:05:13.415Z</time></trkpt><trkpt lat="31.6275383" lon="-8.0411067"><ele>449.0</ele><time>2026-04-25T16:05:14.415Z</time></trkpt><trkpt lat="31.6275467" lon="-8.0412517"><ele>449.0</ele><time>2026-04-25T16:05:15.415Z</time></trkpt><trkpt lat="31.6275533" lon="-8.0413867"><ele>449.0</ele><time>2026-04-25T16:05:16.415Z</time></trkpt><trkpt lat="31.62756" lon="-8.0415133"><ele>449.0</ele><time>2026-04-25T16:05:17.415Z</time></trkpt><trkpt lat="31.6275633" lon="-8.0416317"><ele>449.0</ele><time>2026-04-25T16:05:18.415Z</time></trkpt><trkpt lat="31.6275717" lon="-8.0417433"><ele>449.0</ele><time>2026-04-25T16:05:19.415Z</time></trkpt><trkpt lat="31.6275817" lon="-8.0418483"><ele>449.0</ele><time>2026-04-25T16:05:20.415Z</time></trkpt><trkpt lat="31.6275883" lon="-8.0419483"><ele>449.16666666666663</ele><time>2026-04-25T16:05:21.415Z</time></trkpt><trkpt lat="31.6275967" lon="-8.0420467"><ele>449.3333333333333</ele><time>2026-04-25T16:05:22.415Z</time></trkpt><trkpt lat="31.627605" lon="-8.0421483"><ele>449.5</ele><time>2026-04-25T16:05:23.415Z</time></trkpt><trkpt lat="31.6276183" lon="-8.042255"><ele>449.66666666666663</ele><time>2026-04-25T16:05:24.415Z</time></trkpt><trkpt lat="31.62763" lon="-8.0423417"><ele>449.8333333333333</ele><time>2026-04-25T16:05:25.415Z</time></trkpt><trkpt lat="31.6276333" lon="-8.0424183"><ele>450.0</ele><time>2026-04-25T16:05:26.415Z</time></trkpt><trkpt lat="31.627635" lon="-8.0425017"><ele>450.25</ele><time>2026-04-25T16:05:27.415Z</time></trkpt><trkpt lat="31.6276317" lon="-8.0426017"><ele>450.5</ele><time>2026-04-25T16:05:28.415Z</time></trkpt><trkpt lat="31.6276333" lon="-8.042715"><ele>450.75</ele><time>2026-04-25T16:05:29.415Z</time></trkpt><trkpt lat="31.6276333" lon="-8.04287"><ele>451.0</ele><time>2026-04-25T16:05:30.415Z</time></trkpt><trkpt lat="31.62762" lon="-8.0430667"><ele>451.0</ele><time>2026-04-25T16:05:31.415Z</time></trkpt><trkpt lat="31.6276033" lon="-8.0432917"><ele>451.0</ele><time>2026-04-25T16:05:32.415Z</time></trkpt><trkpt lat="31.6275917" lon="-8.0435083"><ele>451.0</ele><time>2026-04-25T16:05:33.415Z</time></trkpt><trkpt lat="31.627585" lon="-8.0437083"><ele>450.33333333333337</ele><time>2026-04-25T16:05:34.415Z</time></trkpt><trkpt lat="31.6275883" lon="-8.0438967"><ele>449.66666666666663</ele><time>2026-04-25T16:05:35.415Z</time></trkpt><trkpt lat="31.627595" lon="-8.0440683"><ele>449.0</ele><time>2026-04-25T16:05:36.415Z</time></trkpt><trkpt lat="31.6275983" lon="-8.0442383"><ele>449.0</ele><time>2026-04-25T16:05:37.415Z</time></trkpt><trkpt lat="31.6276017" lon="-8.0444033"><ele>449.0</ele><time>2026-04-25T16:05:38.415Z</time></trkpt><trkpt lat="31.6276033" lon="-8.0445767"><ele>449.0</ele><time>2026-04-25T16:05:39.415Z</time></trkpt><trkpt lat="31.6276067" lon="-8.04475"><ele>449.0</ele><time>2026-04-25T16:05:40.415Z</time></trkpt><trkpt lat="31.6276083" lon="-8.0449233"><ele>449.25</ele><time>2026-04-25T16:05:41.415Z</time></trkpt><trkpt lat="31.6276083" lon="-8.0450917"><ele>449.5</ele><time>2026-04-25T16:05:42.415Z</time></trkpt><trkpt lat="31.62761" lon="-8.0452433"><ele>449.75</ele><time>2026-04-25T16:05:43.415Z</time></trkpt><trkpt lat="31.627615" lon="-8.045385"><ele>450.0</ele><time>2026-04-25T16:05:44.415Z</time></trkpt><trkpt lat="31.6276183" lon="-8.0455217"><ele>450.0</ele><time>2026-04-25T16:05:45.415Z</time></trkpt><trkpt lat="31.6276233" lon="-8.0456467"><ele>450.0</ele><time>2026-04-25T16:05:46.415Z</time></trkpt><trkpt lat="31.6276317" lon="-8.0457633"><ele>450.0</ele><time>2026-04-25T16:05:47.415Z</time></trkpt><trkpt lat="31.6276367" lon="-8.04586"><ele>450.0</ele><time>2026-04-25T16:05:48.415Z</time></trkpt><trkpt lat="31.62764" lon="-8.04594"><ele>450.0</ele><time>2026-04-25T16:05:49.415Z</time></trkpt><trkpt lat="31.6276533" lon="-8.046035"><ele>450.0</ele><time>2026-04-25T16:05:51.415Z</time></trkpt><trkpt lat="31.6276683" lon="-8.0461433"><ele>449.8333333333333</ele><time>2026-04-25T16:06:00.415Z</time></trkpt><trkpt lat="31.6276733" lon="-8.04625"><ele>449.66666666666663</ele><time>2026-04-25T16:06:02.415Z</time></trkpt><trkpt lat="31.6276783" lon="-8.046335"><ele>449.5</ele><time>2026-04-25T16:06:03.415Z</time></trkpt><trkpt lat="31.6276783" lon="-8.0464183"><ele>449.3333333333333</ele><time>2026-04-25T16:06:04.415Z</time></trkpt><trkpt lat="31.6276767" lon="-8.0465"><ele>449.16666666666663</ele><time>2026-04-25T16:06:05.415Z</time></trkpt><trkpt lat="31.62768" lon="-8.04665"><ele>449.0</ele><time>2026-04-25T16:06:07.416Z</time></trkpt><trkpt lat="31.6276733" lon="-8.0467333"><ele>448.66666666666663</ele><time>2026-04-25T16:06:08.415Z</time></trkpt><trkpt lat="31.62767" lon="-8.0468217"><ele>448.3333333333333</ele><time>2026-04-25T16:06:09.415Z</time></trkpt><trkpt lat="31.6276617" lon="-8.046905"><ele>448.0</ele><time>2026-04-25T16:06:10.415Z</time></trkpt><trkpt lat="31.6276583" lon="-8.0469917"><ele>447.66666666666663</ele><time>2026-04-25T16:06:11.415Z</time></trkpt><trkpt lat="31.6276633" lon="-8.0470817"><ele>447.3333333333333</ele><time>2026-04-25T16:06:12.415Z</time></trkpt><trkpt lat="31.6276717" lon="-8.0471783"><ele>447.0</ele><time>2026-04-25T16:06:13.415Z</time></trkpt><trkpt lat="31.627675" lon="-8.0472933"><ele>447.0</ele><time>2026-04-25T16:06:14.415Z</time></trkpt><trkpt lat="31.6276767" lon="-8.0474317"><ele>447.0</ele><time>2026-04-25T16:06:15.415Z</time></trkpt><trkpt lat="31.6276717" lon="-8.0475817"><ele>447.0</ele><time>2026-04-25T16:06:16.415Z</time></trkpt><trkpt lat="31.62767" lon="-8.047755"><ele>447.0</ele><time>2026-04-25T16:06:17.415Z</time></trkpt><trkpt lat="31.6276717" lon="-8.047935"><ele>447.0</ele><time>2026-04-25T16:06:18.415Z</time></trkpt><trkpt lat="31.62768" lon="-8.0481133"><ele>447.0</ele><time>2026-04-25T16:06:19.415Z</time></trkpt><trkpt lat="31.627675" lon="-8.04828"><ele>447.0</ele><time>2026-04-25T16:06:20.415Z</time></trkpt><trkpt lat="31.627675" lon="-8.04844"><ele>447.0</ele><time>2026-04-25T16:06:21.415Z</time></trkpt><trkpt lat="31.627675" lon="-8.048615"><ele>447.0</ele><time>2026-04-25T16:06:22.415Z</time></trkpt><trkpt lat="31.627675" lon="-8.0487933"><ele>447.0</ele><time>2026-04-25T16:06:23.415Z</time></trkpt><trkpt lat="31.62768" lon="-8.0489667"><ele>447.0</ele><time>2026-04-25T16:06:24.415Z</time></trkpt><trkpt lat="31.6276867" lon="-8.0491483"><ele>447.0</ele><time>2026-04-25T16:06:25.415Z</time></trkpt><trkpt lat="31.6276917" lon="-8.04933"><ele>447.0</ele><time>2026-04-25T16:06:26.415Z</time></trkpt><trkpt lat="31.6276933" lon="-8.0495167"><ele>447.0</ele><time>2026-04-25T16:06:27.415Z</time></trkpt><trkpt lat="31.6276967" lon="-8.049715"><ele>447.0</ele><time>2026-04-25T16:06:28.415Z</time></trkpt><trkpt lat="31.627705" lon="-8.0499017"><ele>447.0</ele><time>2026-04-25T16:06:29.415Z</time></trkpt><trkpt lat="31.6277133" lon="-8.0500917"><ele>447.0</ele><time>2026-04-25T16:06:30.415Z</time></trkpt><trkpt lat="31.62772" lon="-8.0502833"><ele>447.0</ele><time>2026-04-25T16:06:31.415Z</time></trkpt><trkpt lat="31.627725" lon="-8.050465"><ele>447.0</ele><time>2026-04-25T16:06:32.415Z</time></trkpt><trkpt lat="31.62773" lon="-8.0506367"><ele>447.0</ele><time>2026-04-25T16:06:33.415Z</time></trkpt><trkpt lat="31.627735" lon="-8.0507983"><ele>447.0</ele><time>2026-04-25T16:06:34.415Z</time></trkpt><trkpt lat="31.6277383" lon="-8.0509583"><ele>446.5</ele><time>2026-04-25T16:06:35.415Z</time></trkpt><trkpt lat="31.6277383" lon="-8.0511167"><ele>446.0</ele><time>2026-04-25T16:06:36.416Z</time></trkpt><trkpt lat="31.6277383" lon="-8.0512683"><ele>445.5</ele><time>2026-04-25T16:06:37.415Z</time></trkpt><trkpt lat="31.62775" lon="-8.0514217"><ele>445.0</ele><time>2026-04-25T16:06:38.415Z</time></trkpt><trkpt lat="31.6277567" lon="-8.05157"><ele>445.5</ele><time>2026-04-25T16:06:39.415Z</time></trkpt><trkpt lat="31.6277633" lon="-8.0517067"><ele>446.0</ele><time>2026-04-25T16:06:40.415Z</time></trkpt><trkpt lat="31.627765" lon="-8.0518433"><ele>446.5</ele><time>2026-04-25T16:06:41.415Z</time></trkpt><trkpt lat="31.62777" lon="-8.0519883"><ele>447.0</ele><time>2026-04-25T16:06:42.415Z</time></trkpt><trkpt lat="31.6277767" lon="-8.052135"><ele>447.0</ele><time>2026-04-25T16:06:43.415Z</time></trkpt><trkpt lat="31.6277767" lon="-8.052285"><ele>447.0</ele><time>2026-04-25T16:06:44.415Z</time></trkpt><trkpt lat="31.6277733" lon="-8.0524417"><ele>447.0</ele><time>2026-04-25T16:06:45.415Z</time></trkpt><trkpt lat="31.6277733" lon="-8.0525933"><ele>447.0</ele><time>2026-04-25T16:06:46.415Z</time></trkpt><trkpt lat="31.6277717" lon="-8.05275"><ele>446.5</ele><time>2026-04-25T16:06:47.415Z</time></trkpt><trkpt lat="31.6277667" lon="-8.0529183"><ele>446.0</ele><time>2026-04-25T16:06:48.415Z</time></trkpt><trkpt lat="31.6277733" lon="-8.0530833"><ele>445.5</ele><time>2026-04-25T16:06:49.415Z</time></trkpt><trkpt lat="31.62778" lon="-8.053255"><ele>445.0</ele><time>2026-04-25T16:06:50.415Z</time></trkpt><trkpt lat="31.627785" lon="-8.0534267"><ele>445.0</ele><time>2026-04-25T16:06:51.415Z</time></trkpt><trkpt lat="31.6277867" lon="-8.05359"><ele>445.0</ele><time>2026-04-25T16:06:52.415Z</time></trkpt><trkpt lat="31.6277867" lon="-8.0537417"><ele>445.0</ele><time>2026-04-25T16:06:53.415Z</time></trkpt><trkpt lat="31.627785" lon="-8.0539"><ele>445.0</ele><time>2026-04-25T16:06:54.415Z</time></trkpt><trkpt lat="31.62779" lon="-8.0540633"><ele>444.75</ele><time>2026-04-25T16:06:55.415Z</time></trkpt><trkpt lat="31.6277967" lon="-8.0542317"><ele>444.5</ele><time>2026-04-25T16:06:56.415Z</time></trkpt><trkpt lat="31.6277933" lon="-8.0544033"><ele>444.25</ele><time>2026-04-25T16:06:57.415Z</time></trkpt><trkpt lat="31.6277883" lon="-8.05457"><ele>444.0</ele><time>2026-04-25T16:06:58.415Z</time></trkpt><trkpt lat="31.6277833" lon="-8.0547233"><ele>444.0</ele><time>2026-04-25T16:06:59.415Z</time></trkpt><trkpt lat="31.6277833" lon="-8.05487"><ele>444.0</ele><time>2026-04-25T16:07:00.415Z</time></trkpt><trkpt lat="31.6277833" lon="-8.0550233"><ele>444.0</ele><time>2026-04-25T16:07:01.415Z</time></trkpt><trkpt lat="31.6277867" lon="-8.0551867"><ele>444.0</ele><time>2026-04-25T16:07:02.416Z</time></trkpt><trkpt lat="31.6277917" lon="-8.0553533"><ele>443.66666666666663</ele><time>2026-04-25T16:07:03.415Z</time></trkpt><trkpt lat="31.6277967" lon="-8.055525"><ele>443.3333333333333</ele><time>2026-04-25T16:07:04.415Z</time></trkpt><trkpt lat="31.6278083" lon="-8.05571"><ele>443.0</ele><time>2026-04-25T16:07:05.415Z</time></trkpt><trkpt lat="31.6278083" lon="-8.0558883"><ele>442.75</ele><time>2026-04-25T16:07:06.415Z</time></trkpt><trkpt lat="31.6278117" lon="-8.056065"><ele>442.5</ele><time>2026-04-25T16:07:07.416Z</time></trkpt><trkpt lat="31.6278117" lon="-8.0562317"><ele>442.25</ele><time>2026-04-25T16:07:08.415Z</time></trkpt><trkpt lat="31.627815" lon="-8.0563867"><ele>442.0</ele><time>2026-04-25T16:07:09.415Z</time></trkpt><trkpt lat="31.6278267" lon="-8.056535"><ele>442.20000000000005</ele><time>2026-04-25T16:07:10.415Z</time></trkpt><trkpt lat="31.6278333" lon="-8.056675"><ele>442.40000000000003</ele><time>2026-04-25T16:07:11.416Z</time></trkpt><trkpt lat="31.62783" lon="-8.0568067"><ele>442.59999999999997</ele><time>2026-04-25T16:07:12.415Z</time></trkpt><trkpt lat="31.627835" lon="-8.05693"><ele>442.79999999999995</ele><time>2026-04-25T16:07:13.415Z</time></trkpt><trkpt lat="31.6278383" lon="-8.0570467"><ele>443.0</ele><time>2026-04-25T16:07:14.415Z</time></trkpt><trkpt lat="31.62784" lon="-8.05716"><ele>442.99999999999994</ele><time>2026-04-25T16:07:15.415Z</time></trkpt><trkpt lat="31.6278367" lon="-8.0572683"><ele>443.0</ele><time>2026-04-25T16:07:16.415Z</time></trkpt><trkpt lat="31.6278417" lon="-8.0573767"><ele>443.0</ele><time>2026-04-25T16:07:17.416Z</time></trkpt><trkpt lat="31.6278417" lon="-8.0574783"><ele>443.0</ele><time>2026-04-25T16:07:18.415Z</time></trkpt><trkpt lat="31.6278467" lon="-8.0575817"><ele>442.99999999999994</ele><time>2026-04-25T16:07:19.415Z</time></trkpt><trkpt lat="31.6278567" lon="-8.0576733"><ele>443.0</ele><time>2026-04-25T16:07:20.415Z</time></trkpt><trkpt lat="31.627865" lon="-8.0577633"><ele>442.66666666666663</ele><time>2026-04-25T16:07:21.415Z</time></trkpt><trkpt lat="31.6278717" lon="-8.0578567"><ele>442.3333333333333</ele><time>2026-04-25T16:07:22.415Z</time></trkpt><trkpt lat="31.62788" lon="-8.0579517"><ele>442.0</ele><time>2026-04-25T16:07:23.415Z</time></trkpt><trkpt lat="31.6278933" lon="-8.0580417"><ele>441.66666666666663</ele><time>2026-04-25T16:07:24.415Z</time></trkpt><trkpt lat="31.62791" lon="-8.05812"><ele>441.3333333333333</ele><time>2026-04-25T16:07:25.414Z</time></trkpt><trkpt lat="31.6279383" lon="-8.0581867"><ele>441.0</ele><time>2026-04-25T16:07:26.414Z</time></trkpt><trkpt lat="31.6280067" lon="-8.0582983"><ele>441.0</ele><time>2026-04-25T16:07:28.414Z</time></trkpt><trkpt lat="31.6280483" lon="-8.0584133"><ele>441.0</ele><time>2026-04-25T16:07:30.414Z</time></trkpt><trkpt lat="31.6280367" lon="-8.05855"><ele>441.0</ele><time>2026-04-25T16:07:32.414Z</time></trkpt><trkpt lat="31.6279817" lon="-8.0586817"><ele>441.0</ele><time>2026-04-25T16:07:34.414Z</time></trkpt><trkpt lat="31.6279383" lon="-8.0587617"><ele>441.0</ele><time>2026-04-25T16:07:35.414Z</time></trkpt><trkpt lat="31.6279017" lon="-8.0588617"><ele>441.0</ele><time>2026-04-25T16:07:36.414Z</time></trkpt><trkpt lat="31.6278767" lon="-8.0589783"><ele>441.0</ele><time>2026-04-25T16:07:37.414Z</time></trkpt><trkpt lat="31.6278683" lon="-8.0591383"><ele>441.0</ele><time>2026-04-25T16:07:38.414Z</time></trkpt><trkpt lat="31.6278717" lon="-8.059315"><ele>441.0</ele><time>2026-04-25T16:07:39.414Z</time></trkpt><trkpt lat="31.6278733" lon="-8.0594933"><ele>441.75</ele><time>2026-04-25T16:07:40.414Z</time></trkpt><trkpt lat="31.62787" lon="-8.059655"><ele>442.5</ele><time>2026-04-25T16:07:41.414Z</time></trkpt><trkpt lat="31.6278683" lon="-8.059815"><ele>443.25</ele><time>2026-04-25T16:07:42.414Z</time></trkpt><trkpt lat="31.627865" lon="-8.0599667"><ele>444.0</ele><time>2026-04-25T16:07:43.414Z</time></trkpt><trkpt lat="31.627865" lon="-8.060115"><ele>444.0</ele><time>2026-04-25T16:07:44.414Z</time></trkpt><trkpt lat="31.627865" lon="-8.060275"><ele>444.0</ele><time>2026-04-25T16:07:45.414Z</time></trkpt><trkpt lat="31.62787" lon="-8.060435"><ele>444.0</ele><time>2026-04-25T16:07:46.414Z</time></trkpt><trkpt lat="31.62787" lon="-8.060595"><ele>444.0</ele><time>2026-04-25T16:07:47.414Z</time></trkpt><trkpt lat="31.62787" lon="-8.0607383"><ele>443.75</ele><time>2026-04-25T16:07:48.414Z</time></trkpt><trkpt lat="31.6278733" lon="-8.0608817"><ele>443.5</ele><time>2026-04-25T16:07:49.414Z</time></trkpt><trkpt lat="31.6278767" lon="-8.06102"><ele>443.25</ele><time>2026-04-25T16:07:50.414Z</time></trkpt><trkpt lat="31.6278817" lon="-8.0611567"><ele>443.0</ele><time>2026-04-25T16:07:51.414Z</time></trkpt><trkpt lat="31.6278933" lon="-8.0612933"><ele>443.0</ele><time>2026-04-25T16:07:52.414Z</time></trkpt><trkpt lat="31.6278983" lon="-8.0614267"><ele>442.99999999999994</ele><time>2026-04-25T16:07:53.414Z</time></trkpt><trkpt lat="31.6279017" lon="-8.0615533"><ele>442.99999999999994</ele><time>2026-04-25T16:07:54.414Z</time></trkpt><trkpt lat="31.6279067" lon="-8.0616783"><ele>443.0</ele><time>2026-04-25T16:07:55.414Z</time></trkpt><trkpt lat="31.62791" lon="-8.0618017"><ele>443.0</ele><time>2026-04-25T16:07:56.414Z</time></trkpt><trkpt lat="31.6279133" lon="-8.0619217"><ele>443.0</ele><time>2026-04-25T16:07:57.414Z</time></trkpt><trkpt lat="31.627915" lon="-8.0620317"><ele>442.99999999999994</ele><time>2026-04-25T16:07:58.414Z</time></trkpt><trkpt lat="31.62792" lon="-8.0621417"><ele>442.99999999999994</ele><time>2026-04-25T16:07:59.414Z</time></trkpt><trkpt lat="31.6279267" lon="-8.0622567"><ele>443.0</ele><time>2026-04-25T16:08:00.414Z</time></trkpt><trkpt lat="31.6279317" lon="-8.0623783"><ele>443.0</ele><time>2026-04-25T16:08:01.414Z</time></trkpt><trkpt lat="31.6279333" lon="-8.0625083"><ele>443.0</ele><time>2026-04-25T16:08:02.414Z</time></trkpt><trkpt lat="31.6279367" lon="-8.062645"><ele>443.0</ele><time>2026-04-25T16:08:03.414Z</time></trkpt><trkpt lat="31.62794" lon="-8.0627867"><ele>443.0</ele><time>2026-04-25T16:08:04.414Z</time></trkpt><trkpt lat="31.6279417" lon="-8.062925"><ele>443.0</ele><time>2026-04-25T16:08:05.414Z</time></trkpt><trkpt lat="31.6279433" lon="-8.0630617"><ele>443.0</ele><time>2026-04-25T16:08:06.414Z</time></trkpt><trkpt lat="31.6279333" lon="-8.0631967"><ele>443.0</ele><time>2026-04-25T16:08:07.414Z</time></trkpt><trkpt lat="31.62793" lon="-8.0633317"><ele>443.0</ele><time>2026-04-25T16:08:08.415Z</time></trkpt><trkpt lat="31.6279283" lon="-8.063465"><ele>443.0</ele><time>2026-04-25T16:08:09.414Z</time></trkpt><trkpt lat="31.6279267" lon="-8.06359"><ele>443.2</ele><time>2026-04-25T16:08:10.414Z</time></trkpt><trkpt lat="31.6279267" lon="-8.06371"><ele>443.4</ele><time>2026-04-25T16:08:11.414Z</time></trkpt><trkpt lat="31.6279283" lon="-8.063825"><ele>443.59999999999997</ele><time>2026-04-25T16:08:12.414Z</time></trkpt><trkpt lat="31.6279317" lon="-8.0639417"><ele>443.79999999999995</ele><time>2026-04-25T16:08:13.414Z</time></trkpt><trkpt lat="31.627935" lon="-8.0640583"><ele>444.0</ele><time>2026-04-25T16:08:14.414Z</time></trkpt><trkpt lat="31.6279383" lon="-8.06418"><ele>444.25</ele><time>2026-04-25T16:08:15.414Z</time></trkpt><trkpt lat="31.62794" lon="-8.064305"><ele>444.5</ele><time>2026-04-25T16:08:16.414Z</time></trkpt><trkpt lat="31.6279417" lon="-8.0644367"><ele>444.75</ele><time>2026-04-25T16:08:17.414Z</time></trkpt><trkpt lat="31.627945" lon="-8.0645733"><ele>445.0</ele><time>2026-04-25T16:08:18.414Z</time></trkpt><trkpt lat="31.6279483" lon="-8.06471"><ele>445.0</ele><time>2026-04-25T16:08:19.414Z</time></trkpt><trkpt lat="31.6279517" lon="-8.0648367"><ele>445.0</ele><time>2026-04-25T16:08:20.414Z</time></trkpt><trkpt lat="31.6279533" lon="-8.0649583"><ele>445.0</ele><time>2026-04-25T16:08:21.414Z</time></trkpt><trkpt lat="31.627955" lon="-8.0650817"><ele>445.0</ele><time>2026-04-25T16:08:22.414Z</time></trkpt><trkpt lat="31.627955" lon="-8.0652183"><ele>445.0</ele><time>2026-04-25T16:08:23.414Z</time></trkpt><trkpt lat="31.6279567" lon="-8.06536"><ele>445.25</ele><time>2026-04-25T16:08:24.414Z</time></trkpt><trkpt lat="31.6279617" lon="-8.0655017"><ele>445.5</ele><time>2026-04-25T16:08:25.414Z</time></trkpt><trkpt lat="31.6279683" lon="-8.0656483"><ele>445.75</ele><time>2026-04-25T16:08:26.414Z</time></trkpt><trkpt lat="31.6279667" lon="-8.0657933"><ele>446.0</ele><time>2026-04-25T16:08:27.414Z</time></trkpt><trkpt lat="31.6279683" lon="-8.065935"><ele>446.25</ele><time>2026-04-25T16:08:28.414Z</time></trkpt><trkpt lat="31.6279683" lon="-8.0660683"><ele>446.5</ele><time>2026-04-25T16:08:29.414Z</time></trkpt><trkpt lat="31.627975" lon="-8.0662017"><ele>446.75</ele><time>2026-04-25T16:08:30.414Z</time></trkpt><trkpt lat="31.627975" lon="-8.0663383"><ele>447.0</ele><time>2026-04-25T16:08:31.414Z</time></trkpt><trkpt lat="31.6279783" lon="-8.06648"><ele>446.25</ele><time>2026-04-25T16:08:32.414Z</time></trkpt><trkpt lat="31.627985" lon="-8.0666183"><ele>445.5</ele><time>2026-04-25T16:08:33.414Z</time></trkpt><trkpt lat="31.62799" lon="-8.0667567"><ele>444.75</ele><time>2026-04-25T16:08:34.414Z</time></trkpt><trkpt lat="31.6279883" lon="-8.06689"><ele>444.0</ele><time>2026-04-25T16:08:35.414Z</time></trkpt><trkpt lat="31.6279933" lon="-8.0670183"><ele>444.0</ele><time>2026-04-25T16:08:36.414Z</time></trkpt><trkpt lat="31.6279967" lon="-8.0671467"><ele>444.0</ele><time>2026-04-25T16:08:37.414Z</time></trkpt><trkpt lat="31.628" lon="-8.0672767"><ele>444.0</ele><time>2026-04-25T16:08:38.414Z</time></trkpt><trkpt lat="31.6280017" lon="-8.067405"><ele>444.0</ele><time>2026-04-25T16:08:39.414Z</time></trkpt><trkpt lat="31.6280033" lon="-8.067525"><ele>444.0</ele><time>2026-04-25T16:08:40.414Z</time></trkpt><trkpt lat="31.6280067" lon="-8.0676417"><ele>442.0</ele><time>2026-04-25T16:08:41.414Z</time></trkpt><trkpt lat="31.6280067" lon="-8.0677567"><ele>442.0</ele><time>2026-04-25T16:08:42.414Z</time></trkpt><trkpt lat="31.628005" lon="-8.0678717"><ele>442.0</ele><time>2026-04-25T16:08:43.414Z</time></trkpt></trkseg><trkseg><trkpt lat="31.6281117" lon="-8.07221"><ele>438.0</ele><time>2026-04-25T16:09:30.915Z</time></trkpt><trkpt lat="31.628105" lon="-8.0724033"><ele>438.0</ele><time>2026-04-25T16:09:32.415Z</time></trkpt><trkpt lat="31.6281117" lon="-8.0725467"><ele>438.0</ele><time>2026-04-25T16:09:33.415Z</time></trkpt><trkpt lat="31.628115" lon="-8.0726933"><ele>438.0</ele><time>2026-04-25T16:09:34.415Z</time></trkpt><trkpt lat="31.628115" lon="-8.07285"><ele>438.25</ele><time>2026-04-25T16:09:35.415Z</time></trkpt><trkpt lat="31.6281167" lon="-8.07299"><ele>438.5</ele><time>2026-04-25T16:09:36.416Z</time></trkpt><trkpt lat="31.6281183" lon="-8.0731333"><ele>438.75</ele><time>2026-04-25T16:09:37.415Z</time></trkpt><trkpt lat="31.6281233" lon="-8.0732817"><ele>439.0</ele><time>2026-04-25T16:09:38.416Z</time></trkpt><trkpt lat="31.6281283" lon="-8.073435"><ele>439.0</ele><time>2026-04-25T16:09:39.415Z</time></trkpt><trkpt lat="31.6281383" lon="-8.0736"><ele>439.0</ele><time>2026-04-25T16:09:40.415Z</time></trkpt><trkpt lat="31.6281417" lon="-8.07378"><ele>439.0</ele><time>2026-04-25T16:09:41.415Z</time></trkpt><trkpt lat="31.62815" lon="-8.0739617"><ele>439.0</ele><time>2026-04-25T16:09:42.415Z</time></trkpt><trkpt lat="31.6281517" lon="-8.074135"><ele>439.25</ele><time>2026-04-25T16:09:43.415Z</time></trkpt><trkpt lat="31.62815" lon="-8.0742967"><ele>439.5</ele><time>2026-04-25T16:09:44.415Z</time></trkpt><trkpt lat="31.6281567" lon="-8.0744567"><ele>439.75</ele><time>2026-04-25T16:09:45.415Z</time></trkpt><trkpt lat="31.6281683" lon="-8.0746167"><ele>440.0</ele><time>2026-04-25T16:09:46.415Z</time></trkpt><trkpt lat="31.6281683" lon="-8.07477"><ele>440.0</ele><time>2026-04-25T16:09:47.416Z</time></trkpt><trkpt lat="31.6281683" lon="-8.07492"><ele>440.0</ele><time>2026-04-25T16:09:48.415Z</time></trkpt><trkpt lat="31.6281733" lon="-8.0750717"><ele>440.0</ele><time>2026-04-25T16:09:49.415Z</time></trkpt><trkpt lat="31.6281783" lon="-8.0752217"><ele>440.0</ele><time>2026-04-25T16:09:50.416Z</time></trkpt><trkpt lat="31.6281833" lon="-8.0753617"><ele>439.25</ele><time>2026-04-25T16:09:51.415Z</time></trkpt><trkpt lat="31.6281817" lon="-8.0754983"><ele>438.5</ele><time>2026-04-25T16:09:52.415Z</time></trkpt><trkpt lat="31.6281867" lon="-8.07564"><ele>437.75</ele><time>2026-04-25T16:09:53.415Z</time></trkpt><trkpt lat="31.62819" lon="-8.0757767"><ele>437.0</ele><time>2026-04-25T16:09:54.416Z</time></trkpt><trkpt lat="31.6281917" lon="-8.07591"><ele>437.0</ele><time>2026-04-25T16:09:55.415Z</time></trkpt><trkpt lat="31.6281967" lon="-8.0760417"><ele>437.00000000000006</ele><time>2026-04-25T16:09:56.415Z</time></trkpt><trkpt lat="31.6281983" lon="-8.076165"><ele>437.00000000000006</ele><time>2026-04-25T16:09:57.416Z</time></trkpt><trkpt lat="31.6281983" lon="-8.076275"><ele>437.0</ele><time>2026-04-25T16:09:58.415Z</time></trkpt><trkpt lat="31.6281933" lon="-8.0763667"><ele>437.0</ele><time>2026-04-25T16:09:59.415Z</time></trkpt><trkpt lat="31.62818" lon="-8.0764783"><ele>437.3333333333333</ele><time>2026-04-25T16:10:01.415Z</time></trkpt><trkpt lat="31.6282133" lon="-8.0766983"><ele>437.66666666666663</ele><time>2026-04-25T16:10:19.415Z</time></trkpt><trkpt lat="31.62822" lon="-8.0768617"><ele>438.0</ele><time>2026-04-25T16:10:20.415Z</time></trkpt><trkpt lat="31.6282217" lon="-8.077035"><ele>438.0</ele><time>2026-04-25T16:10:21.415Z</time></trkpt><trkpt lat="31.62821" lon="-8.0772417"><ele>438.0</ele><time>2026-04-25T16:10:22.416Z</time></trkpt><trkpt lat="31.6281933" lon="-8.0774483"><ele>438.0</ele><time>2026-04-25T16:10:23.415Z</time></trkpt><trkpt lat="31.628185" lon="-8.0776383"><ele>438.33333333333337</ele><time>2026-04-25T16:10:24.415Z</time></trkpt><trkpt lat="31.62818" lon="-8.077825"><ele>438.6666666666667</ele><time>2026-04-25T16:10:25.415Z</time></trkpt><trkpt lat="31.628185" lon="-8.0780067"><ele>439.0</ele><time>2026-04-25T16:10:26.415Z</time></trkpt><trkpt lat="31.6281883" lon="-8.0781783"><ele>438.75</ele><time>2026-04-25T16:10:27.415Z</time></trkpt><trkpt lat="31.6281933" lon="-8.0783417"><ele>438.5</ele><time>2026-04-25T16:10:28.415Z</time></trkpt><trkpt lat="31.6281983" lon="-8.0784983"><ele>438.25</ele><time>2026-04-25T16:10:29.415Z</time></trkpt><trkpt lat="31.6282017" lon="-8.0786583"><ele>438.0</ele><time>2026-04-25T16:10:30.415Z</time></trkpt><trkpt lat="31.6282067" lon="-8.0788233"><ele>438.0</ele><time>2026-04-25T16:10:31.415Z</time></trkpt><trkpt lat="31.6282067" lon="-8.078985"><ele>438.0</ele><time>2026-04-25T16:10:32.415Z</time></trkpt><trkpt lat="31.6282033" lon="-8.07915"><ele>438.0</ele><time>2026-04-25T16:10:33.415Z</time></trkpt><trkpt lat="31.6282017" lon="-8.07931"><ele>438.0</ele><time>2026-04-25T16:10:34.415Z</time></trkpt><trkpt lat="31.6282033" lon="-8.0794667"><ele>438.0</ele><time>2026-04-25T16:10:35.415Z</time></trkpt><trkpt lat="31.62821" lon="-8.0796233"><ele>438.0</ele><time>2026-04-25T16:10:36.415Z</time></trkpt><trkpt lat="31.6282133" lon="-8.0797783"><ele>438.0</ele><time>2026-04-25T16:10:37.415Z</time></trkpt><trkpt lat="31.6282183" lon="-8.079935"><ele>438.0</ele><time>2026-04-25T16:10:38.415Z</time></trkpt><trkpt lat="31.62822" lon="-8.0800883"><ele>438.25</ele><time>2026-04-25T16:10:39.415Z</time></trkpt><trkpt lat="31.6282283" lon="-8.080245"><ele>438.5</ele><time>2026-04-25T16:10:40.415Z</time></trkpt><trkpt lat="31.628235" lon="-8.0804017"><ele>438.75</ele><time>2026-04-25T16:10:41.415Z</time></trkpt><trkpt lat="31.6282417" lon="-8.08056"><ele>439.0</ele><time>2026-04-25T16:10:42.416Z</time></trkpt><trkpt lat="31.6282433" lon="-8.0807067"><ele>438.75</ele><time>2026-04-25T16:10:43.415Z</time></trkpt><trkpt lat="31.6282467" lon="-8.0808533"><ele>438.5</ele><time>2026-04-25T16:10:44.415Z</time></trkpt><trkpt lat="31.6282533" lon="-8.0809933"><ele>438.25</ele><time>2026-04-25T16:10:45.415Z</time></trkpt><trkpt lat="31.6282567" lon="-8.0811317"><ele>438.0</ele><time>2026-04-25T16:10:46.415Z</time></trkpt><trkpt lat="31.628265" lon="-8.0812783"><ele>438.0</ele><time>2026-04-25T16:10:47.415Z</time></trkpt><trkpt lat="31.6282667" lon="-8.0814217"><ele>438.0</ele><time>2026-04-25T16:10:48.415Z</time></trkpt><trkpt lat="31.6282683" lon="-8.0815683"><ele>438.0</ele><time>2026-04-25T16:10:49.416Z</time></trkpt><trkpt lat="31.62827" lon="-8.0817167"><ele>438.0</ele><time>2026-04-25T16:10:50.415Z</time></trkpt><trkpt lat="31.62827" lon="-8.0818683"><ele>438.0</ele><time>2026-04-25T16:10:51.415Z</time></trkpt><trkpt lat="31.6282717" lon="-8.0820167"><ele>438.0</ele><time>2026-04-25T16:10:52.416Z</time></trkpt><trkpt lat="31.6282833" lon="-8.0821633"><ele>438.0</ele><time>2026-04-25T16:10:53.415Z</time></trkpt><trkpt lat="31.6282967" lon="-8.0822967"><ele>438.0</ele><time>2026-04-25T16:10:54.415Z</time></trkpt><trkpt lat="31.6283083" lon="-8.0824217"><ele>438.0</ele><time>2026-04-25T16:10:55.415Z</time></trkpt><trkpt lat="31.6283133" lon="-8.0825383"><ele>438.0</ele><time>2026-04-25T16:10:56.415Z</time></trkpt><trkpt lat="31.62831" lon="-8.0826467"><ele>438.0</ele><time>2026-04-25T16:10:57.415Z</time></trkpt><trkpt lat="31.6283083" lon="-8.08275"><ele>438.0</ele><time>2026-04-25T16:10:58.415Z</time></trkpt><trkpt lat="31.6283083" lon="-8.0828417"><ele>438.0</ele><time>2026-04-25T16:10:59.415Z</time></trkpt><trkpt lat="31.6283083" lon="-8.0829267"><ele>438.0</ele><time>2026-04-25T16:11:00.415Z</time></trkpt><trkpt lat="31.6283133" lon="-8.0830733"><ele>438.0</ele><time>2026-04-25T16:11:02.415Z</time></trkpt><trkpt lat="31.6283167" lon="-8.0831483"><ele>438.0</ele><time>2026-04-25T16:11:03.415Z</time></trkpt><trkpt lat="31.62832" lon="-8.0832233"><ele>438.0</ele><time>2026-04-25T16:11:04.415Z</time></trkpt><trkpt lat="31.6283167" lon="-8.0833017"><ele>438.0</ele><time>2026-04-25T16:11:05.415Z</time></trkpt><trkpt lat="31.6283183" lon="-8.0833817"><ele>438.0</ele><time>2026-04-25T16:11:06.415Z</time></trkpt><trkpt lat="31.6283183" lon="-8.0834633"><ele>438.0</ele><time>2026-04-25T16:11:07.415Z</time></trkpt><trkpt lat="31.628315" lon="-8.0835433"><ele>438.0</ele><time>2026-04-25T16:11:08.415Z</time></trkpt><trkpt lat="31.62832" lon="-8.083625"><ele>437.79999999999995</ele><time>2026-04-25T16:11:09.415Z</time></trkpt><trkpt lat="31.6283167" lon="-8.0837067"><ele>437.59999999999997</ele><time>2026-04-25T16:11:10.415Z</time></trkpt><trkpt lat="31.6283167" lon="-8.083805"><ele>437.40000000000003</ele><time>2026-04-25T16:11:11.415Z</time></trkpt><trkpt lat="31.6283217" lon="-8.0839233"><ele>437.20000000000005</ele><time>2026-04-25T16:11:12.415Z</time></trkpt><trkpt lat="31.62832" lon="-8.084045"><ele>437.0</ele><time>2026-04-25T16:11:13.415Z</time></trkpt><trkpt lat="31.62832" lon="-8.0841717"><ele>437.0</ele><time>2026-04-25T16:11:14.415Z</time></trkpt><trkpt lat="31.6283233" lon="-8.0842967"><ele>437.00000000000006</ele><time>2026-04-25T16:11:15.415Z</time></trkpt><trkpt lat="31.628325" lon="-8.0844233"><ele>437.00000000000006</ele><time>2026-04-25T16:11:16.416Z</time></trkpt><trkpt lat="31.6283267" lon="-8.0845467"><ele>437.0</ele><time>2026-04-25T16:11:17.415Z</time></trkpt><trkpt lat="31.6283233" lon="-8.0846717"><ele>437.0</ele><time>2026-04-25T16:11:18.415Z</time></trkpt><trkpt lat="31.628325" lon="-8.08482"><ele>437.66666666666663</ele><time>2026-04-25T16:11:19.416Z</time></trkpt><trkpt lat="31.6283233" lon="-8.084995"><ele>438.33333333333337</ele><time>2026-04-25T16:11:20.415Z</time></trkpt><trkpt lat="31.6283233" lon="-8.085215"><ele>439.0</ele><time>2026-04-25T16:11:21.415Z</time></trkpt><trkpt lat="31.628325" lon="-8.0854933"><ele>438.0</ele><time>2026-04-25T16:11:22.415Z</time></trkpt><trkpt lat="31.6283183" lon="-8.0857783"><ele>437.0</ele><time>2026-04-25T16:11:23.415Z</time></trkpt><trkpt lat="31.6283233" lon="-8.086035"><ele>437.0</ele><time>2026-04-25T16:11:24.415Z</time></trkpt><trkpt lat="31.6283267" lon="-8.0862733"><ele>437.0</ele><time>2026-04-25T16:11:25.415Z</time></trkpt><trkpt lat="31.6283267" lon="-8.0865067"><ele>437.0</ele><time>2026-04-25T16:11:26.415Z</time></trkpt><trkpt lat="31.6283317" lon="-8.0867283"><ele>436.66666666666663</ele><time>2026-04-25T16:11:27.415Z</time></trkpt><trkpt lat="31.6283383" lon="-8.0869583"><ele>436.33333333333337</ele><time>2026-04-25T16:11:28.415Z</time></trkpt><trkpt lat="31.6283483" lon="-8.087185"><ele>436.0</ele><time>2026-04-25T16:11:29.415Z</time></trkpt><trkpt lat="31.628355" lon="-8.0873967"><ele>436.0</ele><time>2026-04-25T16:11:30.415Z</time></trkpt><trkpt lat="31.62836" lon="-8.0875967"><ele>436.0</ele><time>2026-04-25T16:11:31.415Z</time></trkpt><trkpt lat="31.6283583" lon="-8.0877983"><ele>436.0</ele><time>2026-04-25T16:11:32.416Z</time></trkpt><trkpt lat="31.62836" lon="-8.087985"><ele>436.0</ele><time>2026-04-25T16:11:33.415Z</time></trkpt><trkpt lat="31.628365" lon="-8.08816"><ele>436.0</ele><time>2026-04-25T16:11:34.415Z</time></trkpt><trkpt lat="31.6283683" lon="-8.0883267"><ele>436.0</ele><time>2026-04-25T16:11:35.415Z</time></trkpt><trkpt lat="31.62837" lon="-8.088485"><ele>436.0</ele><time>2026-04-25T16:11:36.415Z</time></trkpt><trkpt lat="31.628375" lon="-8.0886483"><ele>435.75</ele><time>2026-04-25T16:11:37.415Z</time></trkpt><trkpt lat="31.62838" lon="-8.0888217"><ele>435.5</ele><time>2026-04-25T16:11:38.415Z</time></trkpt><trkpt lat="31.6283833" lon="-8.089"><ele>435.25</ele><time>2026-04-25T16:11:39.415Z</time></trkpt><trkpt lat="31.628385" lon="-8.089175"><ele>435.0</ele><time>2026-04-25T16:11:40.415Z</time></trkpt><trkpt lat="31.6283917" lon="-8.0893417"><ele>435.0</ele><time>2026-04-25T16:11:41.415Z</time></trkpt><trkpt lat="31.6283917" lon="-8.0895067"><ele>435.0</ele><time>2026-04-25T16:11:42.415Z</time></trkpt><trkpt lat="31.6283983" lon="-8.0896617"><ele>435.0</ele><time>2026-04-25T16:11:43.415Z</time></trkpt><trkpt lat="31.628395" lon="-8.0898183"><ele>435.0</ele><time>2026-04-25T16:11:44.415Z</time></trkpt><trkpt lat="31.6283983" lon="-8.08998"><ele>435.25</ele><time>2026-04-25T16:11:45.415Z</time></trkpt><trkpt lat="31.6284033" lon="-8.0901383"><ele>435.5</ele><time>2026-04-25T16:11:46.415Z</time></trkpt><trkpt lat="31.6284033" lon="-8.0903017"><ele>435.75</ele><time>2026-04-25T16:11:47.415Z</time></trkpt><trkpt lat="31.62841" lon="-8.0904733"><ele>436.0</ele><time>2026-04-25T16:11:48.415Z</time></trkpt><trkpt lat="31.6284183" lon="-8.0906733"><ele>435.6666666666667</ele><time>2026-04-25T16:11:49.415Z</time></trkpt><trkpt lat="31.6284283" lon="-8.0909167"><ele>435.33333333333337</ele><time>2026-04-25T16:11:50.414Z</time></trkpt><trkpt lat="31.6284317" lon="-8.0911417"><ele>435.0</ele><time>2026-04-25T16:11:51.414Z</time></trkpt><trkpt lat="31.628435" lon="-8.091365"><ele>435.0</ele><time>2026-04-25T16:11:52.414Z</time></trkpt><trkpt lat="31.62844" lon="-8.0915983"><ele>435.0</ele><time>2026-04-25T16:11:53.414Z</time></trkpt><trkpt lat="31.628445" lon="-8.0918317"><ele>435.0</ele><time>2026-04-25T16:11:54.414Z</time></trkpt><trkpt lat="31.6284517" lon="-8.0920533"><ele>435.0</ele><time>2026-04-25T16:11:55.414Z</time></trkpt><trkpt lat="31.6284567" lon="-8.09226"><ele>435.0</ele><time>2026-04-25T16:11:56.414Z</time></trkpt><trkpt lat="31.6284633" lon="-8.0924533"><ele>435.0</ele><time>2026-04-25T16:11:57.414Z</time></trkpt><trkpt lat="31.628465" lon="-8.0926433"><ele>434.66666666666663</ele><time>2026-04-25T16:11:58.414Z</time></trkpt><trkpt lat="31.6284633" lon="-8.092825"><ele>434.3333333333333</ele><time>2026-04-25T16:11:59.414Z</time></trkpt><trkpt lat="31.628465" lon="-8.093"><ele>434.0</ele><time>2026-04-25T16:12:00.414Z</time></trkpt><trkpt lat="31.6284633" lon="-8.0931783"><ele>433.5</ele><time>2026-04-25T16:12:01.414Z</time></trkpt><trkpt lat="31.6284583" lon="-8.093355"><ele>433.0</ele><time>2026-04-25T16:12:02.414Z</time></trkpt><trkpt lat="31.6284583" lon="-8.09353"><ele>432.5</ele><time>2026-04-25T16:12:03.414Z</time></trkpt><trkpt lat="31.6284567" lon="-8.0936983"><ele>432.0</ele><time>2026-04-25T16:12:04.414Z</time></trkpt><trkpt lat="31.6284617" lon="-8.09386"><ele>432.0</ele><time>2026-04-25T16:12:05.414Z</time></trkpt><trkpt lat="31.628465" lon="-8.094015"><ele>432.0</ele><time>2026-04-25T16:12:06.414Z</time></trkpt><trkpt lat="31.62847" lon="-8.0941617"><ele>432.0</ele><time>2026-04-25T16:12:07.414Z</time></trkpt><trkpt lat="31.628475" lon="-8.0943017"><ele>432.0</ele><time>2026-04-25T16:12:08.414Z</time></trkpt><trkpt lat="31.6284733" lon="-8.0944483"><ele>432.0</ele><time>2026-04-25T16:12:09.414Z</time></trkpt><trkpt lat="31.6284683" lon="-8.094605"><ele>432.0</ele><time>2026-04-25T16:12:10.414Z</time></trkpt><trkpt lat="31.628475" lon="-8.0947733"><ele>432.0</ele><time>2026-04-25T16:12:11.414Z</time></trkpt><trkpt lat="31.62848" lon="-8.09497"><ele>432.0</ele><time>2026-04-25T16:12:12.414Z</time></trkpt><trkpt lat="31.6284883" lon="-8.0952033"><ele>433.0</ele><time>2026-04-25T16:12:13.414Z</time></trkpt><trkpt lat="31.6284967" lon="-8.0954633"><ele>434.0</ele><time>2026-04-25T16:12:14.414Z</time></trkpt><trkpt lat="31.6285033" lon="-8.0957517"><ele>433.5</ele><time>2026-04-25T16:12:15.414Z</time></trkpt><trkpt lat="31.628515" lon="-8.0960533"><ele>433.0</ele><time>2026-04-25T16:12:16.414Z</time></trkpt><trkpt lat="31.6285267" lon="-8.0963767"><ele>433.0</ele><time>2026-04-25T16:12:17.414Z</time></trkpt><trkpt lat="31.62854" lon="-8.0967117"><ele>433.0</ele><time>2026-04-25T16:12:18.414Z</time></trkpt><trkpt lat="31.6285517" lon="-8.097035"><ele>433.0</ele><time>2026-04-25T16:12:19.414Z</time></trkpt><trkpt lat="31.6285583" lon="-8.0973333"><ele>433.0</ele><time>2026-04-25T16:12:20.414Z</time></trkpt><trkpt lat="31.62856" lon="-8.0976233"><ele>433.0</ele><time>2026-04-25T16:12:21.414Z</time></trkpt><trkpt lat="31.6285583" lon="-8.0979017"><ele>433.0</ele><time>2026-04-25T16:12:22.414Z</time></trkpt><trkpt lat="31.62856" lon="-8.0981767"><ele>432.5</ele><time>2026-04-25T16:12:23.414Z</time></trkpt><trkpt lat="31.6285633" lon="-8.0984467"><ele>432.0</ele><time>2026-04-25T16:12:24.414Z</time></trkpt><trkpt lat="31.6285667" lon="-8.0987083"><ele>432.0</ele><time>2026-04-25T16:12:25.414Z</time></trkpt><trkpt lat="31.6285767" lon="-8.098965"><ele>432.0</ele><time>2026-04-25T16:12:26.414Z</time></trkpt><trkpt lat="31.6285833" lon="-8.0992067"><ele>432.0</ele><time>2026-04-25T16:12:27.414Z</time></trkpt><trkpt lat="31.6285967" lon="-8.099445"><ele>432.0</ele><time>2026-04-25T16:12:28.414Z</time></trkpt><trkpt lat="31.62861" lon="-8.099685"><ele>432.0</ele><time>2026-04-25T16:12:29.414Z</time></trkpt><trkpt lat="31.62862" lon="-8.0999283"><ele>432.0</ele><time>2026-04-25T16:12:30.414Z</time></trkpt><trkpt lat="31.6286283" lon="-8.1001733"><ele>432.0</ele><time>2026-04-25T16:12:31.414Z</time></trkpt><trkpt lat="31.6286367" lon="-8.1004167"><ele>432.0</ele><time>2026-04-25T16:12:32.414Z</time></trkpt><trkpt lat="31.6286383" lon="-8.100655"><ele>432.0</ele><time>2026-04-25T16:12:33.414Z</time></trkpt><trkpt lat="31.6286467" lon="-8.1008883"><ele>432.0</ele><time>2026-04-25T16:12:34.414Z</time></trkpt><trkpt lat="31.628655" lon="-8.1011183"><ele>432.0</ele><time>2026-04-25T16:12:35.414Z</time></trkpt><trkpt lat="31.62866" lon="-8.1013383"><ele>432.0</ele><time>2026-04-25T16:12:36.414Z</time></trkpt><trkpt lat="31.6286667" lon="-8.1015417"><ele>432.33333333333337</ele><time>2026-04-25T16:12:37.414Z</time></trkpt><trkpt lat="31.6286683" lon="-8.101735"><ele>432.6666666666667</ele><time>2026-04-25T16:12:38.414Z</time></trkpt><trkpt lat="31.628675" lon="-8.1019117"><ele>433.0</ele><time>2026-04-25T16:12:39.414Z</time></trkpt><trkpt lat="31.6286833" lon="-8.10208"><ele>433.0</ele><time>2026-04-25T16:12:40.414Z</time></trkpt><trkpt lat="31.628685" lon="-8.1022333"><ele>433.0</ele><time>2026-04-25T16:12:41.414Z</time></trkpt><trkpt lat="31.628685" lon="-8.1023767"><ele>433.0</ele><time>2026-04-25T16:12:42.414Z</time></trkpt><trkpt lat="31.6286867" lon="-8.1025067"><ele>433.0</ele><time>2026-04-25T16:12:43.414Z</time></trkpt><trkpt lat="31.6286883" lon="-8.102635"><ele>432.75</ele><time>2026-04-25T16:12:44.414Z</time></trkpt><trkpt lat="31.6286917" lon="-8.1027583"><ele>432.5</ele><time>2026-04-25T16:12:45.414Z</time></trkpt><trkpt lat="31.6286917" lon="-8.1028967"><ele>432.25</ele><time>2026-04-25T16:12:46.414Z</time></trkpt><trkpt lat="31.6286967" lon="-8.1030433"><ele>432.0</ele><time>2026-04-25T16:12:47.415Z</time></trkpt><trkpt lat="31.6286917" lon="-8.1032017"><ele>432.33333333333337</ele><time>2026-04-25T16:12:48.415Z</time></trkpt><trkpt lat="31.6286883" lon="-8.103375"><ele>432.6666666666667</ele><time>2026-04-25T16:12:49.414Z</time></trkpt><trkpt lat="31.6286783" lon="-8.1035717"><ele>433.0</ele><time>2026-04-25T16:12:50.414Z</time></trkpt><trkpt lat="31.6286783" lon="-8.1037733"><ele>433.0</ele><time>2026-04-25T16:12:51.414Z</time></trkpt><trkpt lat="31.6286733" lon="-8.1039767"><ele>433.0</ele><time>2026-04-25T16:12:52.414Z</time></trkpt><trkpt lat="31.628675" lon="-8.1041683"><ele>433.0</ele><time>2026-04-25T16:12:53.414Z</time></trkpt><trkpt lat="31.6286767" lon="-8.1043467"><ele>432.5</ele><time>2026-04-25T16:12:54.414Z</time></trkpt><trkpt lat="31.62868" lon="-8.1045233"><ele>432.0</ele><time>2026-04-25T16:12:55.414Z</time></trkpt><trkpt lat="31.62867" lon="-8.1046783"><ele>431.5</ele><time>2026-04-25T16:12:56.414Z</time></trkpt><trkpt lat="31.62867" lon="-8.10482"><ele>431.0</ele><time>2026-04-25T16:12:57.414Z</time></trkpt><trkpt lat="31.6286733" lon="-8.104955"><ele>430.5</ele><time>2026-04-25T16:12:58.414Z</time></trkpt><trkpt lat="31.6286783" lon="-8.10509"><ele>430.0</ele><time>2026-04-25T16:12:59.414Z</time></trkpt><trkpt lat="31.6286817" lon="-8.1052417"><ele>429.5</ele><time>2026-04-25T16:13:00.414Z</time></trkpt><trkpt lat="31.62869" lon="-8.1054217"><ele>429.0</ele><time>2026-04-25T16:13:01.414Z</time></trkpt><trkpt lat="31.6286933" lon="-8.1056133"><ele>428.66666666666663</ele><time>2026-04-25T16:13:02.414Z</time></trkpt><trkpt lat="31.6286967" lon="-8.1058233"><ele>428.3333333333333</ele><time>2026-04-25T16:13:03.414Z</time></trkpt><trkpt lat="31.6287017" lon="-8.1060167"><ele>428.0</ele><time>2026-04-25T16:13:04.415Z</time></trkpt><trkpt lat="31.628705" lon="-8.106215"><ele>428.0</ele><time>2026-04-25T16:13:05.414Z</time></trkpt><trkpt lat="31.62871" lon="-8.1064067"><ele>428.0</ele><time>2026-04-25T16:13:06.414Z</time></trkpt><trkpt lat="31.6287133" lon="-8.1065883"><ele>428.0</ele><time>2026-04-25T16:13:07.414Z</time></trkpt><trkpt lat="31.6287167" lon="-8.1067517"><ele>427.75</ele><time>2026-04-25T16:13:08.414Z</time></trkpt><trkpt lat="31.628715" lon="-8.1068917"><ele>427.5</ele><time>2026-04-25T16:13:09.414Z</time></trkpt><trkpt lat="31.6287183" lon="-8.1070233"><ele>427.25</ele><time>2026-04-25T16:13:10.414Z</time></trkpt><trkpt lat="31.6287217" lon="-8.1071567"><ele>427.0</ele><time>2026-04-25T16:13:11.414Z</time></trkpt><trkpt lat="31.62873" lon="-8.1072933"><ele>426.25</ele><time>2026-04-25T16:13:12.414Z</time></trkpt><trkpt lat="31.6287367" lon="-8.1074467"><ele>425.5</ele><time>2026-04-25T16:13:13.414Z</time></trkpt><trkpt lat="31.6287367" lon="-8.1076017"><ele>424.75</ele><time>2026-04-25T16:13:14.414Z</time></trkpt><trkpt lat="31.62874" lon="-8.1077567"><ele>424.0</ele><time>2026-04-25T16:13:15.414Z</time></trkpt><trkpt lat="31.6287467" lon="-8.1079117"><ele>424.0</ele><time>2026-04-25T16:13:16.415Z</time></trkpt><trkpt lat="31.62875" lon="-8.1080567"><ele>424.0</ele><time>2026-04-25T16:13:17.414Z</time></trkpt><trkpt lat="31.6287517" lon="-8.108195"><ele>424.0</ele><time>2026-04-25T16:13:18.414Z</time></trkpt><trkpt lat="31.6287517" lon="-8.1083283"><ele>424.0</ele><time>2026-04-25T16:13:19.414Z</time></trkpt><trkpt lat="31.62876" lon="-8.1084733"><ele>424.25</ele><time>2026-04-25T16:13:20.414Z</time></trkpt><trkpt lat="31.6287567" lon="-8.1086267"><ele>424.5</ele><time>2026-04-25T16:13:21.414Z</time></trkpt><trkpt lat="31.62876" lon="-8.1087883"><ele>424.75</ele><time>2026-04-25T16:13:22.414Z</time></trkpt><trkpt lat="31.6287617" lon="-8.1089567"><ele>425.0</ele><time>2026-04-25T16:13:23.414Z</time></trkpt><trkpt lat="31.6287633" lon="-8.1091333"><ele>425.66666666666663</ele><time>2026-04-25T16:13:24.414Z</time></trkpt><trkpt lat="31.6287733" lon="-8.10932"><ele>426.33333333333337</ele><time>2026-04-25T16:13:25.414Z</time></trkpt><trkpt lat="31.628775" lon="-8.10952"><ele>427.0</ele><time>2026-04-25T16:13:26.414Z</time></trkpt><trkpt lat="31.628775" lon="-8.1097167"><ele>427.33333333333337</ele><time>2026-04-25T16:13:27.414Z</time></trkpt><trkpt lat="31.6287733" lon="-8.1099133"><ele>427.66666666666663</ele><time>2026-04-25T16:13:28.414Z</time></trkpt><trkpt lat="31.6287767" lon="-8.1101217"><ele>428.0</ele><time>2026-04-25T16:13:29.414Z</time></trkpt><trkpt lat="31.6287767" lon="-8.11034"><ele>428.0</ele><time>2026-04-25T16:13:30.415Z</time></trkpt><trkpt lat="31.62878" lon="-8.1105633"><ele>428.0</ele><time>2026-04-25T16:13:31.414Z</time></trkpt><trkpt lat="31.6287867" lon="-8.1107717"><ele>428.0</ele><time>2026-04-25T16:13:32.414Z</time></trkpt><trkpt lat="31.628795" lon="-8.110965"><ele>428.0</ele><time>2026-04-25T16:13:33.414Z</time></trkpt><trkpt lat="31.6287967" lon="-8.1111583"><ele>428.0</ele><time>2026-04-25T16:13:34.414Z</time></trkpt><trkpt lat="31.6287967" lon="-8.11137"><ele>428.0</ele><time>2026-04-25T16:13:35.414Z</time></trkpt><trkpt lat="31.6288017" lon="-8.1115917"><ele>428.0</ele><time>2026-04-25T16:13:36.414Z</time></trkpt><trkpt lat="31.6288133" lon="-8.1118267"><ele>428.0</ele><time>2026-04-25T16:13:37.414Z</time></trkpt><trkpt lat="31.62882" lon="-8.112065"><ele>428.0</ele><time>2026-04-25T16:13:38.414Z</time></trkpt><trkpt lat="31.6288317" lon="-8.1122933"><ele>428.3333333333333</ele><time>2026-04-25T16:13:39.414Z</time></trkpt><trkpt lat="31.628835" lon="-8.1125117"><ele>428.66666666666663</ele><time>2026-04-25T16:13:40.414Z</time></trkpt><trkpt lat="31.628835" lon="-8.112735"><ele>429.0</ele><time>2026-04-25T16:13:41.414Z</time></trkpt><trkpt lat="31.6288333" lon="-8.1129583"><ele>429.0</ele><time>2026-04-25T16:13:42.414Z</time></trkpt><trkpt lat="31.6288383" lon="-8.113195"><ele>429.0</ele><time>2026-04-25T16:13:43.414Z</time></trkpt><trkpt lat="31.6288417" lon="-8.1134333"><ele>429.0</ele><time>2026-04-25T16:13:44.414Z</time></trkpt><trkpt lat="31.6288433" lon="-8.1136733"><ele>429.0</ele><time>2026-04-25T16:13:45.414Z</time></trkpt><trkpt lat="31.6288483" lon="-8.1139117"><ele>429.0</ele><time>2026-04-25T16:13:46.414Z</time></trkpt><trkpt lat="31.628855" lon="-8.1141417"><ele>429.0</ele><time>2026-04-25T16:13:47.414Z</time></trkpt><trkpt lat="31.6288533" lon="-8.1143583"><ele>429.0</ele><time>2026-04-25T16:13:48.414Z</time></trkpt><trkpt lat="31.6288583" lon="-8.1145717"><ele>429.0</ele><time>2026-04-25T16:13:49.414Z</time></trkpt><trkpt lat="31.628865" lon="-8.1147833"><ele>429.0</ele><time>2026-04-25T16:13:50.414Z</time></trkpt><trkpt lat="31.628875" lon="-8.115005"><ele>428.66666666666663</ele><time>2026-04-25T16:13:51.414Z</time></trkpt><trkpt lat="31.6288833" lon="-8.11523"><ele>428.3333333333333</ele><time>2026-04-25T16:13:52.414Z</time></trkpt><trkpt lat="31.6288833" lon="-8.11546"><ele>428.0</ele><time>2026-04-25T16:13:53.414Z</time></trkpt><trkpt lat="31.6288833" lon="-8.11569"><ele>428.66666666666663</ele><time>2026-04-25T16:13:54.414Z</time></trkpt><trkpt lat="31.628885" lon="-8.1159317"><ele>429.33333333333337</ele><time>2026-04-25T16:13:55.414Z</time></trkpt><trkpt lat="31.62889" lon="-8.1161733"><ele>430.0</ele><time>2026-04-25T16:13:56.414Z</time></trkpt><trkpt lat="31.6288983" lon="-8.116415"><ele>429.33333333333337</ele><time>2026-04-25T16:13:57.414Z</time></trkpt><trkpt lat="31.6289067" lon="-8.1166467"><ele>428.66666666666663</ele><time>2026-04-25T16:13:58.414Z</time></trkpt><trkpt lat="31.628915" lon="-8.116885"><ele>428.0</ele><time>2026-04-25T16:13:59.414Z</time></trkpt><trkpt lat="31.6289233" lon="-8.1171467"><ele>428.0</ele><time>2026-04-25T16:14:00.414Z</time></trkpt><trkpt lat="31.628925" lon="-8.1174"><ele>428.0</ele><time>2026-04-25T16:14:01.414Z</time></trkpt><trkpt lat="31.6289267" lon="-8.1176433"><ele>428.0</ele><time>2026-04-25T16:14:02.414Z</time></trkpt><trkpt lat="31.62893" lon="-8.1178767"><ele>427.3333333333333</ele><time>2026-04-25T16:14:03.414Z</time></trkpt><trkpt lat="31.6289283" lon="-8.1181133"><ele>426.66666666666663</ele><time>2026-04-25T16:14:04.414Z</time></trkpt><trkpt lat="31.6289367" lon="-8.11835"><ele>426.0</ele><time>2026-04-25T16:14:05.414Z</time></trkpt><trkpt lat="31.6289433" lon="-8.118585"><ele>425.66666666666663</ele><time>2026-04-25T16:14:06.414Z</time></trkpt><trkpt lat="31.6289533" lon="-8.1188267"><ele>425.3333333333333</ele><time>2026-04-25T16:14:07.414Z</time></trkpt><trkpt lat="31.62896" lon="-8.1190633"><ele>425.0</ele><time>2026-04-25T16:14:08.414Z</time></trkpt><trkpt lat="31.6289633" lon="-8.119285"><ele>425.66666666666663</ele><time>2026-04-25T16:14:09.414Z</time></trkpt><trkpt lat="31.6289667" lon="-8.1194983"><ele>426.33333333333337</ele><time>2026-04-25T16:14:10.414Z</time></trkpt><trkpt lat="31.628965" lon="-8.1196967"><ele>427.0</ele><time>2026-04-25T16:14:11.414Z</time></trkpt><trkpt lat="31.6289667" lon="-8.11989"><ele>427.0</ele><time>2026-04-25T16:14:12.414Z</time></trkpt><trkpt lat="31.6289717" lon="-8.12007"><ele>427.0</ele><time>2026-04-25T16:14:13.414Z</time></trkpt><trkpt lat="31.62898" lon="-8.1202583"><ele>427.0</ele><time>2026-04-25T16:14:14.414Z</time></trkpt><trkpt lat="31.62898" lon="-8.1204333"><ele>427.0</ele><time>2026-04-25T16:14:15.414Z</time></trkpt><trkpt lat="31.6289817" lon="-8.1206083"><ele>427.0</ele><time>2026-04-25T16:14:16.414Z</time></trkpt><trkpt lat="31.628985" lon="-8.1207917"><ele>427.0</ele><time>2026-04-25T16:14:17.414Z</time></trkpt><trkpt lat="31.6289867" lon="-8.1209733"><ele>426.75</ele><time>2026-04-25T16:14:18.414Z</time></trkpt><trkpt lat="31.6289967" lon="-8.1211533"><ele>426.5</ele><time>2026-04-25T16:14:19.414Z</time></trkpt><trkpt lat="31.6290033" lon="-8.121325"><ele>426.25</ele><time>2026-04-25T16:14:20.414Z</time></trkpt><trkpt lat="31.629005" lon="-8.121495"><ele>426.0</ele><time>2026-04-25T16:14:21.414Z</time></trkpt><trkpt lat="31.6290067" lon="-8.1216667"><ele>425.66666666666663</ele><time>2026-04-25T16:14:22.414Z</time></trkpt><trkpt lat="31.629005" lon="-8.1218467"><ele>425.3333333333333</ele><time>2026-04-25T16:14:23.414Z</time></trkpt><trkpt lat="31.6290133" lon="-8.1220233"><ele>425.0</ele><time>2026-04-25T16:14:24.414Z</time></trkpt><trkpt lat="31.629015" lon="-8.1222083"><ele>425.0</ele><time>2026-04-25T16:14:25.414Z</time></trkpt><trkpt lat="31.6290167" lon="-8.1223933"><ele>425.0</ele><time>2026-04-25T16:14:26.414Z</time></trkpt><trkpt lat="31.6290233" lon="-8.1225733"><ele>425.0</ele><time>2026-04-25T16:14:27.414Z</time></trkpt><trkpt lat="31.62903" lon="-8.1227517"><ele>425.25</ele><time>2026-04-25T16:14:28.414Z</time></trkpt><trkpt lat="31.6290367" lon="-8.1229267"><ele>425.5</ele><time>2026-04-25T16:14:29.414Z</time></trkpt><trkpt lat="31.6290417" lon="-8.1230933"><ele>425.75</ele><time>2026-04-25T16:14:30.414Z</time></trkpt><trkpt lat="31.629045" lon="-8.1232633"><ele>426.0</ele><time>2026-04-25T16:14:31.414Z</time></trkpt><trkpt lat="31.6290467" lon="-8.1234367"><ele>426.0</ele><time>2026-04-25T16:14:32.414Z</time></trkpt><trkpt lat="31.6290467" lon="-8.1236033"><ele>426.0</ele><time>2026-04-25T16:14:33.414Z</time></trkpt><trkpt lat="31.6290433" lon="-8.1237583"><ele>426.0</ele><time>2026-04-25T16:14:34.414Z</time></trkpt><trkpt lat="31.6290433" lon="-8.1239117"><ele>426.0</ele><time>2026-04-25T16:14:35.415Z</time></trkpt><trkpt lat="31.6290483" lon="-8.1240633"><ele>426.0</ele><time>2026-04-25T16:14:36.414Z</time></trkpt><trkpt lat="31.6290517" lon="-8.1242267"><ele>426.0</ele><time>2026-04-25T16:14:37.414Z</time></trkpt><trkpt lat="31.62906" lon="-8.1243917"><ele>426.0</ele><time>2026-04-25T16:14:38.414Z</time></trkpt><trkpt lat="31.629065" lon="-8.1245583"><ele>426.0</ele><time>2026-04-25T16:14:39.414Z</time></trkpt><trkpt lat="31.6290667" lon="-8.1247233"><ele>426.0</ele><time>2026-04-25T16:14:40.414Z</time></trkpt><trkpt lat="31.629065" lon="-8.124895"><ele>426.0</ele><time>2026-04-25T16:14:41.414Z</time></trkpt><trkpt lat="31.6290683" lon="-8.12508"><ele>426.0</ele><time>2026-04-25T16:14:42.414Z</time></trkpt><trkpt lat="31.6290717" lon="-8.1252767"><ele>426.0</ele><time>2026-04-25T16:14:43.414Z</time></trkpt><trkpt lat="31.6290783" lon="-8.125485"><ele>426.0</ele><time>2026-04-25T16:14:44.414Z</time></trkpt><trkpt lat="31.62908" lon="-8.1256933"><ele>426.0</ele><time>2026-04-25T16:14:45.414Z</time></trkpt><trkpt lat="31.6290817" lon="-8.1258983"><ele>426.0</ele><time>2026-04-25T16:14:46.414Z</time></trkpt><trkpt lat="31.629085" lon="-8.12609"><ele>426.0</ele><time>2026-04-25T16:14:47.414Z</time></trkpt><trkpt lat="31.6290867" lon="-8.12627"><ele>426.0</ele><time>2026-04-25T16:14:48.414Z</time></trkpt><trkpt lat="31.629095" lon="-8.12645"><ele>426.0</ele><time>2026-04-25T16:14:49.414Z</time></trkpt><trkpt lat="31.6290967" lon="-8.12662"><ele>426.0</ele><time>2026-04-25T16:14:50.415Z</time></trkpt><trkpt lat="31.6291" lon="-8.1267933"><ele>426.0</ele><time>2026-04-25T16:14:51.414Z</time></trkpt><trkpt lat="31.6291083" lon="-8.126975"><ele>426.0</ele><time>2026-04-25T16:14:52.414Z</time></trkpt><trkpt lat="31.6291167" lon="-8.1271617"><ele>426.0</ele><time>2026-04-25T16:14:53.414Z</time></trkpt><trkpt lat="31.62912" lon="-8.1273567"><ele>426.0</ele><time>2026-04-25T16:14:54.414Z</time></trkpt><trkpt lat="31.6291233" lon="-8.127575"><ele>426.0</ele><time>2026-04-25T16:14:55.414Z</time></trkpt><trkpt lat="31.62913" lon="-8.12782"><ele>426.33333333333337</ele><time>2026-04-25T16:14:56.414Z</time></trkpt><trkpt lat="31.629135" lon="-8.12807"><ele>426.6666666666667</ele><time>2026-04-25T16:14:57.414Z</time></trkpt><trkpt lat="31.6291517" lon="-8.1283017"><ele>427.0</ele><time>2026-04-25T16:14:58.414Z</time></trkpt><trkpt lat="31.6291717" lon="-8.1285117"><ele>427.33333333333337</ele><time>2026-04-25T16:14:59.414Z</time></trkpt><trkpt lat="31.6291867" lon="-8.12871"><ele>427.66666666666663</ele><time>2026-04-25T16:15:00.414Z</time></trkpt><trkpt lat="31.62919" lon="-8.1288917"><ele>428.0</ele><time>2026-04-25T16:15:01.414Z</time></trkpt><trkpt lat="31.6291967" lon="-8.1290767"><ele>427.0</ele><time>2026-04-25T16:15:02.414Z</time></trkpt><trkpt lat="31.6292" lon="-8.1292817"><ele>426.0</ele><time>2026-04-25T16:15:03.414Z</time></trkpt><trkpt lat="31.6292083" lon="-8.1295217"><ele>425.0</ele><time>2026-04-25T16:15:04.414Z</time></trkpt><trkpt lat="31.6292317" lon="-8.1297933"><ele>424.5</ele><time>2026-04-25T16:15:05.414Z</time></trkpt><trkpt lat="31.6292567" lon="-8.1300983"><ele>424.0</ele><time>2026-04-25T16:15:06.414Z</time></trkpt><trkpt lat="31.629275" lon="-8.1303983"><ele>424.0</ele><time>2026-04-25T16:15:07.414Z</time></trkpt><trkpt lat="31.6292883" lon="-8.1306967"><ele>424.0</ele><time>2026-04-25T16:15:08.414Z</time></trkpt><trkpt lat="31.6293" lon="-8.1309833"><ele>424.0</ele><time>2026-04-25T16:15:09.414Z</time></trkpt><trkpt lat="31.629305" lon="-8.1312617"><ele>424.0</ele><time>2026-04-25T16:15:10.414Z</time></trkpt><trkpt lat="31.6293217" lon="-8.131545"><ele>423.5</ele><time>2026-04-25T16:15:11.414Z</time></trkpt><trkpt lat="31.6293383" lon="-8.13183"><ele>423.0</ele><time>2026-04-25T16:15:12.414Z</time></trkpt><trkpt lat="31.6293517" lon="-8.1321167"><ele>422.5</ele><time>2026-04-25T16:15:13.414Z</time></trkpt><trkpt lat="31.62936" lon="-8.1324033"><ele>422.0</ele><time>2026-04-25T16:15:14.414Z</time></trkpt><trkpt lat="31.629375" lon="-8.13269"><ele>422.0</ele><time>2026-04-25T16:15:15.414Z</time></trkpt><trkpt lat="31.629385" lon="-8.1329767"><ele>422.0</ele><time>2026-04-25T16:15:16.414Z</time></trkpt><trkpt lat="31.6293983" lon="-8.1332683"><ele>422.5</ele><time>2026-04-25T16:15:17.414Z</time></trkpt><trkpt lat="31.62941" lon="-8.13356"><ele>423.0</ele><time>2026-04-25T16:15:18.414Z</time></trkpt><trkpt lat="31.62942" lon="-8.1338467"><ele>422.5</ele><time>2026-04-25T16:15:19.415Z</time></trkpt><trkpt lat="31.6294383" lon="-8.1341367"><ele>422.0</ele><time>2026-04-25T16:15:20.414Z</time></trkpt><trkpt lat="31.6294533" lon="-8.134435"><ele>422.0</ele><time>2026-04-25T16:15:21.414Z</time></trkpt><trkpt lat="31.6294667" lon="-8.13473"><ele>422.0</ele><time>2026-04-25T16:15:22.415Z</time></trkpt><trkpt lat="31.62948" lon="-8.1350217"><ele>421.5</ele><time>2026-04-25T16:15:23.414Z</time></trkpt><trkpt lat="31.6294917" lon="-8.1353133"><ele>421.0</ele><time>2026-04-25T16:15:24.414Z</time></trkpt><trkpt lat="31.6295" lon="-8.135605"><ele>421.0</ele><time>2026-04-25T16:15:25.414Z</time></trkpt><trkpt lat="31.6295167" lon="-8.135895"><ele>421.0</ele><time>2026-04-25T16:15:26.414Z</time></trkpt><trkpt lat="31.6295317" lon="-8.1361783"><ele>421.0</ele><time>2026-04-25T16:15:27.414Z</time></trkpt><trkpt lat="31.629545" lon="-8.136455"><ele>421.0</ele><time>2026-04-25T16:15:28.414Z</time></trkpt><trkpt lat="31.6295583" lon="-8.136725"><ele>422.5</ele><time>2026-04-25T16:15:29.414Z</time></trkpt><trkpt lat="31.6295717" lon="-8.137"><ele>424.0</ele><time>2026-04-25T16:15:30.414Z</time></trkpt><trkpt lat="31.62959" lon="-8.1372767"><ele>423.0</ele><time>2026-04-25T16:15:31.414Z</time></trkpt><trkpt lat="31.6296017" lon="-8.1375533"><ele>422.0</ele><time>2026-04-25T16:15:32.414Z</time></trkpt><trkpt lat="31.6296117" lon="-8.1378317"><ele>422.0</ele><time>2026-04-25T16:15:33.414Z</time></trkpt><trkpt lat="31.6296217" lon="-8.1381133"><ele>422.0</ele><time>2026-04-25T16:15:34.415Z</time></trkpt><trkpt lat="31.6296267" lon="-8.138395"><ele>421.5</ele><time>2026-04-25T16:15:35.414Z</time></trkpt><trkpt lat="31.6296383" lon="-8.13868"><ele>421.0</ele><time>2026-04-25T16:15:36.414Z</time></trkpt><trkpt lat="31.6296483" lon="-8.1389617"><ele>420.5</ele><time>2026-04-25T16:15:37.414Z</time></trkpt><trkpt lat="31.6296633" lon="-8.1392383"><ele>420.0</ele><time>2026-04-25T16:15:38.414Z</time></trkpt><trkpt lat="31.629675" lon="-8.1394933"><ele>420.0</ele><time>2026-04-25T16:15:39.414Z</time></trkpt><trkpt lat="31.62968" lon="-8.1397383"><ele>420.0</ele><time>2026-04-25T16:15:40.414Z</time></trkpt><trkpt lat="31.6296883" lon="-8.139985"><ele>420.0</ele><time>2026-04-25T16:15:41.414Z</time></trkpt><trkpt lat="31.6296933" lon="-8.140215"><ele>420.0</ele><time>2026-04-25T16:15:42.414Z</time></trkpt><trkpt lat="31.6297017" lon="-8.14043"><ele>420.0</ele><time>2026-04-25T16:15:43.414Z</time></trkpt><trkpt lat="31.629715" lon="-8.1406417"><ele>420.0</ele><time>2026-04-25T16:15:44.414Z</time></trkpt><trkpt lat="31.6297283" lon="-8.1408467"><ele>420.0</ele><time>2026-04-25T16:15:45.414Z</time></trkpt><trkpt lat="31.629735" lon="-8.14104"><ele>420.0</ele><time>2026-04-25T16:15:46.414Z</time></trkpt><trkpt lat="31.629745" lon="-8.141225"><ele>420.0</ele><time>2026-04-25T16:15:47.414Z</time></trkpt><trkpt lat="31.6297583" lon="-8.1414133"><ele>419.66666666666663</ele><time>2026-04-25T16:15:48.414Z</time></trkpt><trkpt lat="31.6297683" lon="-8.14161"><ele>419.3333333333333</ele><time>2026-04-25T16:15:49.414Z</time></trkpt><trkpt lat="31.6297817" lon="-8.1418067"><ele>419.0</ele><time>2026-04-25T16:15:50.414Z</time></trkpt><trkpt lat="31.62979" lon="-8.1420033"><ele>419.0</ele><time>2026-04-25T16:15:51.414Z</time></trkpt><trkpt lat="31.6297967" lon="-8.1422067"><ele>419.0</ele><time>2026-04-25T16:15:52.414Z</time></trkpt><trkpt lat="31.629805" lon="-8.1424083"><ele>419.0</ele><time>2026-04-25T16:15:53.414Z</time></trkpt><trkpt lat="31.62981" lon="-8.1426083"><ele>419.0</ele><time>2026-04-25T16:15:54.414Z</time></trkpt><trkpt lat="31.629815" lon="-8.1428183"><ele>419.0</ele><time>2026-04-25T16:15:55.414Z</time></trkpt><trkpt lat="31.6298167" lon="-8.1430133"><ele>419.0</ele><time>2026-04-25T16:15:56.414Z</time></trkpt><trkpt lat="31.629825" lon="-8.1431933"><ele>419.25</ele><time>2026-04-25T16:15:57.414Z</time></trkpt><trkpt lat="31.6298333" lon="-8.1433733"><ele>419.5</ele><time>2026-04-25T16:15:58.414Z</time></trkpt><trkpt lat="31.62984" lon="-8.143535"><ele>419.75</ele><time>2026-04-25T16:15:59.414Z</time></trkpt><trkpt lat="31.629845" lon="-8.1436933"><ele>420.0</ele><time>2026-04-25T16:16:00.414Z</time></trkpt><trkpt lat="31.6298517" lon="-8.1438433"><ele>420.0</ele><time>2026-04-25T16:16:01.414Z</time></trkpt><trkpt lat="31.62986" lon="-8.1439833"><ele>420.0</ele><time>2026-04-25T16:16:02.414Z</time></trkpt><trkpt lat="31.6298667" lon="-8.144115"><ele>420.0</ele><time>2026-04-25T16:16:03.414Z</time></trkpt><trkpt lat="31.629875" lon="-8.1442533"><ele>420.0</ele><time>2026-04-25T16:16:04.414Z</time></trkpt><trkpt lat="31.62988" lon="-8.1444017"><ele>420.25</ele><time>2026-04-25T16:16:05.414Z</time></trkpt><trkpt lat="31.62989" lon="-8.1445683"><ele>420.5</ele><time>2026-04-25T16:16:06.414Z</time></trkpt><trkpt lat="31.6298967" lon="-8.14474"><ele>420.75</ele><time>2026-04-25T16:16:07.414Z</time></trkpt><trkpt lat="31.6299067" lon="-8.14491"><ele>421.0</ele><time>2026-04-25T16:16:08.414Z</time></trkpt><trkpt lat="31.6299133" lon="-8.145075"><ele>421.0</ele><time>2026-04-25T16:16:09.414Z</time></trkpt><trkpt lat="31.6299217" lon="-8.1452483"><ele>421.0</ele><time>2026-04-25T16:16:10.414Z</time></trkpt><trkpt lat="31.6299283" lon="-8.1454317"><ele>421.0</ele><time>2026-04-25T16:16:11.414Z</time></trkpt><trkpt lat="31.6299367" lon="-8.1456183"><ele>420.6666666666667</ele><time>2026-04-25T16:16:12.414Z</time></trkpt><trkpt lat="31.6299433" lon="-8.1458017"><ele>420.33333333333337</ele><time>2026-04-25T16:16:13.414Z</time></trkpt><trkpt lat="31.62995" lon="-8.1459783"><ele>420.0</ele><time>2026-04-25T16:16:14.414Z</time></trkpt><trkpt lat="31.6299583" lon="-8.146155"><ele>420.0</ele><time>2026-04-25T16:16:15.414Z</time></trkpt><trkpt lat="31.6299733" lon="-8.14634"><ele>420.0</ele><time>2026-04-25T16:16:16.414Z</time></trkpt><trkpt lat="31.6299783" lon="-8.146515"><ele>420.0</ele><time>2026-04-25T16:16:17.414Z</time></trkpt><trkpt lat="31.6299867" lon="-8.146695"><ele>420.0</ele><time>2026-04-25T16:16:18.414Z</time></trkpt><trkpt lat="31.6299967" lon="-8.1468867"><ele>420.0</ele><time>2026-04-25T16:16:19.415Z</time></trkpt><trkpt lat="31.63" lon="-8.1470867"><ele>420.0</ele><time>2026-04-25T16:16:20.414Z</time></trkpt><trkpt lat="31.6299967" lon="-8.1473017"><ele>419.0</ele><time>2026-04-25T16:16:21.414Z</time></trkpt><trkpt lat="31.6299983" lon="-8.1475283"><ele>418.0</ele><time>2026-04-25T16:16:22.414Z</time></trkpt><trkpt lat="31.6300083" lon="-8.1477667"><ele>417.0</ele><time>2026-04-25T16:16:23.414Z</time></trkpt><trkpt lat="31.6300367" lon="-8.1480283"><ele>417.0</ele><time>2026-04-25T16:16:24.414Z</time></trkpt><trkpt lat="31.6300617" lon="-8.1483083"><ele>417.0</ele><time>2026-04-25T16:16:25.414Z</time></trkpt><trkpt lat="31.6300817" lon="-8.14859"><ele>417.0</ele><time>2026-04-25T16:16:26.414Z</time></trkpt><trkpt lat="31.6300983" lon="-8.1488617"><ele>417.0</ele><time>2026-04-25T16:16:27.414Z</time></trkpt><trkpt lat="31.63011" lon="-8.1491167"><ele>417.0</ele><time>2026-04-25T16:16:28.414Z</time></trkpt><trkpt lat="31.630115" lon="-8.149375"><ele>417.0</ele><time>2026-04-25T16:16:29.414Z</time></trkpt><trkpt lat="31.6301233" lon="-8.1496067"><ele>417.0</ele><time>2026-04-25T16:16:30.414Z</time></trkpt><trkpt lat="31.630135" lon="-8.1498317"><ele>417.0</ele><time>2026-04-25T16:16:31.414Z</time></trkpt><trkpt lat="31.6301467" lon="-8.1500517"><ele>417.0</ele><time>2026-04-25T16:16:32.414Z</time></trkpt><trkpt lat="31.6301583" lon="-8.1502633"><ele>417.0</ele><time>2026-04-25T16:16:33.414Z</time></trkpt><trkpt lat="31.6301733" lon="-8.150465"><ele>417.0</ele><time>2026-04-25T16:16:34.414Z</time></trkpt><trkpt lat="31.630185" lon="-8.150665"><ele>417.0</ele><time>2026-04-25T16:16:35.414Z</time></trkpt><trkpt lat="31.6301917" lon="-8.15085"><ele>417.0</ele><time>2026-04-25T16:16:36.414Z</time></trkpt><trkpt lat="31.6302017" lon="-8.151035"><ele>417.0</ele><time>2026-04-25T16:16:37.414Z</time></trkpt><trkpt lat="31.6302083" lon="-8.1512183"><ele>417.0</ele><time>2026-04-25T16:16:38.414Z</time></trkpt><trkpt lat="31.630215" lon="-8.1514083"><ele>417.0</ele><time>2026-04-25T16:16:39.414Z</time></trkpt><trkpt lat="31.6302217" lon="-8.1516033"><ele>417.0</ele><time>2026-04-25T16:16:40.414Z</time></trkpt><trkpt lat="31.6302283" lon="-8.1517983"><ele>416.66666666666663</ele><time>2026-04-25T16:16:41.414Z</time></trkpt><trkpt lat="31.6302433" lon="-8.151995"><ele>416.3333333333333</ele><time>2026-04-25T16:16:42.414Z</time></trkpt><trkpt lat="31.630255" lon="-8.1522"><ele>416.0</ele><time>2026-04-25T16:16:43.414Z</time></trkpt><trkpt lat="31.6302667" lon="-8.15241"><ele>416.0</ele><time>2026-04-25T16:16:44.414Z</time></trkpt><trkpt lat="31.6302783" lon="-8.1526217"><ele>416.0</ele><time>2026-04-25T16:16:45.414Z</time></trkpt><trkpt lat="31.6302867" lon="-8.1528317"><ele>416.0</ele><time>2026-04-25T16:16:46.414Z</time></trkpt><trkpt lat="31.6302933" lon="-8.1530433"><ele>415.66666666666663</ele><time>2026-04-25T16:16:47.414Z</time></trkpt><trkpt lat="31.6303017" lon="-8.15326"><ele>415.33333333333337</ele><time>2026-04-25T16:16:48.414Z</time></trkpt><trkpt lat="31.6303083" lon="-8.1534783"><ele>415.0</ele><time>2026-04-25T16:16:49.414Z</time></trkpt><trkpt lat="31.630315" lon="-8.15369"><ele>415.0</ele><time>2026-04-25T16:16:50.414Z</time></trkpt><trkpt lat="31.6303267" lon="-8.1538967"><ele>415.0</ele><time>2026-04-25T16:16:51.414Z</time></trkpt><trkpt lat="31.63034" lon="-8.1540917"><ele>415.0</ele><time>2026-04-25T16:16:52.414Z</time></trkpt><trkpt lat="31.630355" lon="-8.154275"><ele>415.0</ele><time>2026-04-25T16:16:53.414Z</time></trkpt><trkpt lat="31.6303667" lon="-8.1544483"><ele>415.0</ele><time>2026-04-25T16:16:54.414Z</time></trkpt><trkpt lat="31.6303783" lon="-8.1546233"><ele>415.0</ele><time>2026-04-25T16:16:55.414Z</time></trkpt><trkpt lat="31.63039" lon="-8.1548067"><ele>414.33333333333337</ele><time>2026-04-25T16:16:56.414Z</time></trkpt><trkpt lat="31.6303967" lon="-8.155"><ele>413.66666666666663</ele><time>2026-04-25T16:16:57.414Z</time></trkpt><trkpt lat="31.6304017" lon="-8.155205"><ele>413.0</ele><time>2026-04-25T16:16:58.414Z</time></trkpt><trkpt lat="31.6304167" lon="-8.155415"><ele>413.0</ele><time>2026-04-25T16:16:59.414Z</time></trkpt><trkpt lat="31.630425" lon="-8.1556317"><ele>413.0</ele><time>2026-04-25T16:17:00.414Z</time></trkpt><trkpt lat="31.6304267" lon="-8.155845"><ele>413.0</ele><time>2026-04-25T16:17:01.414Z</time></trkpt><trkpt lat="31.6304333" lon="-8.15607"><ele>413.3333333333333</ele><time>2026-04-25T16:17:02.414Z</time></trkpt><trkpt lat="31.6304433" lon="-8.1563067"><ele>413.66666666666663</ele><time>2026-04-25T16:17:03.414Z</time></trkpt><trkpt lat="31.6304483" lon="-8.1565583"><ele>414.0</ele><time>2026-04-25T16:17:04.414Z</time></trkpt><trkpt lat="31.6304517" lon="-8.156815"><ele>414.0</ele><time>2026-04-25T16:17:05.414Z</time></trkpt><trkpt lat="31.6304533" lon="-8.157075"><ele>414.0</ele><time>2026-04-25T16:17:06.414Z</time></trkpt><trkpt lat="31.6304583" lon="-8.1573283"><ele>414.0</ele><time>2026-04-25T16:17:07.414Z</time></trkpt><trkpt lat="31.630465" lon="-8.1575667"><ele>414.0</ele><time>2026-04-25T16:17:08.414Z</time></trkpt><trkpt lat="31.630475" lon="-8.1578033"><ele>414.0</ele><time>2026-04-25T16:17:09.414Z</time></trkpt><trkpt lat="31.63048" lon="-8.1580333"><ele>414.0</ele><time>2026-04-25T16:17:10.414Z</time></trkpt><trkpt lat="31.6304883" lon="-8.1582517"><ele>414.0</ele><time>2026-04-25T16:17:11.414Z</time></trkpt><trkpt lat="31.630505" lon="-8.1584717"><ele>414.0</ele><time>2026-04-25T16:17:12.414Z</time></trkpt><trkpt lat="31.6305283" lon="-8.1586983"><ele>414.0</ele><time>2026-04-25T16:17:13.414Z</time></trkpt><trkpt lat="31.630545" lon="-8.1589217"><ele>413.66666666666663</ele><time>2026-04-25T16:17:14.414Z</time></trkpt><trkpt lat="31.6305517" lon="-8.159145"><ele>413.3333333333333</ele><time>2026-04-25T16:17:15.414Z</time></trkpt><trkpt lat="31.630565" lon="-8.15937"><ele>413.0</ele><time>2026-04-25T16:17:16.414Z</time></trkpt><trkpt lat="31.6305783" lon="-8.1595917"><ele>413.0</ele><time>2026-04-25T16:17:17.414Z</time></trkpt><trkpt lat="31.6305867" lon="-8.159805"><ele>413.0</ele><time>2026-04-25T16:17:18.414Z</time></trkpt><trkpt lat="31.6305967" lon="-8.1600183"><ele>413.0</ele><time>2026-04-25T16:17:19.414Z</time></trkpt><trkpt lat="31.6306067" lon="-8.160225"><ele>413.0</ele><time>2026-04-25T16:17:20.414Z</time></trkpt><trkpt lat="31.63062" lon="-8.1604233"><ele>413.0</ele><time>2026-04-25T16:17:21.414Z</time></trkpt><trkpt lat="31.63063" lon="-8.160615"><ele>413.0</ele><time>2026-04-25T16:17:22.414Z</time></trkpt><trkpt lat="31.6306367" lon="-8.1607967"><ele>413.0</ele><time>2026-04-25T16:17:23.414Z</time></trkpt><trkpt lat="31.6306467" lon="-8.16097"><ele>413.0</ele><time>2026-04-25T16:17:24.414Z</time></trkpt><trkpt lat="31.6306567" lon="-8.1611433"><ele>413.0</ele><time>2026-04-25T16:17:25.414Z</time></trkpt><trkpt lat="31.6306617" lon="-8.1613067"><ele>413.0</ele><time>2026-04-25T16:17:26.414Z</time></trkpt><trkpt lat="31.630665" lon="-8.1614717"><ele>412.25</ele><time>2026-04-25T16:17:27.414Z</time></trkpt><trkpt lat="31.6306733" lon="-8.161635"><ele>411.5</ele><time>2026-04-25T16:17:28.414Z</time></trkpt><trkpt lat="31.63068" lon="-8.1618"><ele>410.75</ele><time>2026-04-25T16:17:29.414Z</time></trkpt><trkpt lat="31.6306917" lon="-8.1619617"><ele>410.0</ele><time>2026-04-25T16:17:30.414Z</time></trkpt><trkpt lat="31.6306983" lon="-8.1621333"><ele>410.0</ele><time>2026-04-25T16:17:31.414Z</time></trkpt><trkpt lat="31.63071" lon="-8.1623"><ele>410.0</ele><time>2026-04-25T16:17:32.414Z</time></trkpt><trkpt lat="31.6307183" lon="-8.1624633"><ele>410.0</ele><time>2026-04-25T16:17:33.413Z</time></trkpt><trkpt lat="31.6307283" lon="-8.162615"><ele>410.0</ele><time>2026-04-25T16:17:34.413Z</time></trkpt><trkpt lat="31.63074" lon="-8.1627583"><ele>410.4</ele><time>2026-04-25T16:17:35.413Z</time></trkpt><trkpt lat="31.6307417" lon="-8.1628967"><ele>410.8</ele><time>2026-04-25T16:17:36.413Z</time></trkpt><trkpt lat="31.630745" lon="-8.1630333"><ele>411.20000000000005</ele><time>2026-04-25T16:17:37.413Z</time></trkpt><trkpt lat="31.6307467" lon="-8.1631633"><ele>411.6</ele><time>2026-04-25T16:17:38.413Z</time></trkpt><trkpt lat="31.6307533" lon="-8.1632833"><ele>412.0</ele><time>2026-04-25T16:17:39.413Z</time></trkpt><trkpt lat="31.6307667" lon="-8.1634017"><ele>412.0</ele><time>2026-04-25T16:17:40.413Z</time></trkpt><trkpt lat="31.63079" lon="-8.1635183"><ele>412.0</ele><time>2026-04-25T16:17:41.413Z</time></trkpt><trkpt lat="31.6308183" lon="-8.1636317"><ele>412.0</ele><time>2026-04-25T16:17:42.414Z</time></trkpt><trkpt lat="31.6308467" lon="-8.16374"><ele>412.0</ele><time>2026-04-25T16:17:43.413Z</time></trkpt><trkpt lat="31.6308667" lon="-8.163845"><ele>412.0</ele><time>2026-04-25T16:17:44.413Z</time></trkpt><trkpt lat="31.6308717" lon="-8.1639317"><ele>412.0</ele><time>2026-04-25T16:17:45.413Z</time></trkpt><trkpt lat="31.630865" lon="-8.1640183"><ele>412.0</ele><time>2026-04-25T16:17:46.413Z</time></trkpt><trkpt lat="31.630845" lon="-8.16411"><ele>412.0</ele><time>2026-04-25T16:17:47.413Z</time></trkpt><trkpt lat="31.6308233" lon="-8.16421"><ele>412.0</ele><time>2026-04-25T16:17:48.413Z</time></trkpt><trkpt lat="31.6308167" lon="-8.16433"><ele>412.0</ele><time>2026-04-25T16:17:49.413Z</time></trkpt><trkpt lat="31.6308117" lon="-8.1644567"><ele>411.75</ele><time>2026-04-25T16:17:50.414Z</time></trkpt><trkpt lat="31.630815" lon="-8.1646033"><ele>411.5</ele><time>2026-04-25T16:17:51.413Z</time></trkpt><trkpt lat="31.63082" lon="-8.1647583"><ele>411.25</ele><time>2026-04-25T16:17:52.413Z</time></trkpt><trkpt lat="31.63083" lon="-8.1649283"><ele>411.0</ele><time>2026-04-25T16:17:53.413Z</time></trkpt><trkpt lat="31.6308367" lon="-8.1651133"><ele>410.33333333333337</ele><time>2026-04-25T16:17:54.413Z</time></trkpt><trkpt lat="31.6308383" lon="-8.16532"><ele>409.6666666666667</ele><time>2026-04-25T16:17:55.413Z</time></trkpt><trkpt lat="31.6308383" lon="-8.1655533"><ele>409.0</ele><time>2026-04-25T16:17:56.413Z</time></trkpt><trkpt lat="31.6308433" lon="-8.165795"><ele>409.0</ele><time>2026-04-25T16:17:57.413Z</time></trkpt><trkpt lat="31.63085" lon="-8.16604"><ele>409.0</ele><time>2026-04-25T16:17:58.413Z</time></trkpt><trkpt lat="31.630865" lon="-8.1662783"><ele>409.0</ele><time>2026-04-25T16:17:59.413Z</time></trkpt><trkpt lat="31.630875" lon="-8.1665283"><ele>409.0</ele><time>2026-04-25T16:18:00.413Z</time></trkpt><trkpt lat="31.63089" lon="-8.1667917"><ele>409.0</ele><time>2026-04-25T16:18:01.413Z</time></trkpt><trkpt lat="31.6309033" lon="-8.167055"><ele>409.0</ele><time>2026-04-25T16:18:02.413Z</time></trkpt><trkpt lat="31.63092" lon="-8.1673133"><ele>408.6666666666667</ele><time>2026-04-25T16:18:03.413Z</time></trkpt><trkpt lat="31.6309333" lon="-8.1675717"><ele>408.33333333333337</ele><time>2026-04-25T16:18:04.413Z</time></trkpt><trkpt lat="31.6309433" lon="-8.16784"><ele>408.0</ele><time>2026-04-25T16:18:05.413Z</time></trkpt><trkpt lat="31.6309583" lon="-8.16812"><ele>408.5</ele><time>2026-04-25T16:18:06.413Z</time></trkpt><trkpt lat="31.63097" lon="-8.1684"><ele>409.0</ele><time>2026-04-25T16:18:07.413Z</time></trkpt><trkpt lat="31.6309817" lon="-8.1686867"><ele>409.0</ele><time>2026-04-25T16:18:08.413Z</time></trkpt><trkpt lat="31.6309967" lon="-8.16897"><ele>409.0</ele><time>2026-04-25T16:18:09.413Z</time></trkpt><trkpt lat="31.6310033" lon="-8.169255"><ele>408.0</ele><time>2026-04-25T16:18:10.413Z</time></trkpt><trkpt lat="31.6310183" lon="-8.16955"><ele>407.0</ele><time>2026-04-25T16:18:11.413Z</time></trkpt><trkpt lat="31.6310317" lon="-8.1698433"><ele>408.5</ele><time>2026-04-25T16:18:12.413Z</time></trkpt><trkpt lat="31.6310417" lon="-8.170145"><ele>410.0</ele><time>2026-04-25T16:18:13.413Z</time></trkpt><trkpt lat="31.6310517" lon="-8.1704567"><ele>411.0</ele><time>2026-04-25T16:18:14.413Z</time></trkpt><trkpt lat="31.6310617" lon="-8.17076"><ele>412.0</ele><time>2026-04-25T16:18:15.413Z</time></trkpt><trkpt lat="31.6310733" lon="-8.1710583"><ele>412.0</ele><time>2026-04-25T16:18:16.414Z</time></trkpt><trkpt lat="31.631085" lon="-8.1713567"><ele>412.0</ele><time>2026-04-25T16:18:17.413Z</time></trkpt><trkpt lat="31.63109" lon="-8.1716517"><ele>410.5</ele><time>2026-04-25T16:18:18.413Z</time></trkpt><trkpt lat="31.6310967" lon="-8.171935"><ele>409.0</ele><time>2026-04-25T16:18:19.413Z</time></trkpt><trkpt lat="31.6311117" lon="-8.1722167"><ele>409.0</ele><time>2026-04-25T16:18:20.413Z</time></trkpt><trkpt lat="31.6311283" lon="-8.172495"><ele>409.0</ele><time>2026-04-25T16:18:21.413Z</time></trkpt><trkpt lat="31.6311467" lon="-8.17276"><ele>409.6666666666667</ele><time>2026-04-25T16:18:22.413Z</time></trkpt><trkpt lat="31.6311633" lon="-8.1730183"><ele>410.33333333333337</ele><time>2026-04-25T16:18:23.413Z</time></trkpt><trkpt lat="31.6311767" lon="-8.1732817"><ele>411.0</ele><time>2026-04-25T16:18:24.413Z</time></trkpt><trkpt lat="31.63119" lon="-8.1735467"><ele>411.0</ele><time>2026-04-25T16:18:25.413Z</time></trkpt><trkpt lat="31.6312017" lon="-8.1738117"><ele>411.0</ele><time>2026-04-25T16:18:26.413Z</time></trkpt><trkpt lat="31.6312133" lon="-8.1740767"><ele>411.0</ele><time>2026-04-25T16:18:27.413Z</time></trkpt><trkpt lat="31.631225" lon="-8.1743383"><ele>411.0</ele><time>2026-04-25T16:18:28.413Z</time></trkpt><trkpt lat="31.6312367" lon="-8.1745917"><ele>411.0</ele><time>2026-04-25T16:18:29.413Z</time></trkpt><trkpt lat="31.6312467" lon="-8.174835"><ele>410.0</ele><time>2026-04-25T16:18:30.413Z</time></trkpt><trkpt lat="31.6312533" lon="-8.1750783"><ele>409.0</ele><time>2026-04-25T16:18:31.413Z</time></trkpt><trkpt lat="31.6312633" lon="-8.175325"><ele>408.0</ele><time>2026-04-25T16:18:32.413Z</time></trkpt><trkpt lat="31.6312783" lon="-8.1755667"><ele>408.0</ele><time>2026-04-25T16:18:33.413Z</time></trkpt><trkpt lat="31.6312933" lon="-8.1758017"><ele>408.0</ele><time>2026-04-25T16:18:34.413Z</time></trkpt><trkpt lat="31.6313017" lon="-8.1760367"><ele>408.0</ele><time>2026-04-25T16:18:35.413Z</time></trkpt><trkpt lat="31.63131" lon="-8.1762783"><ele>408.0</ele><time>2026-04-25T16:18:36.413Z</time></trkpt><trkpt lat="31.6313183" lon="-8.1765183"><ele>408.0</ele><time>2026-04-25T16:18:37.413Z</time></trkpt><trkpt lat="31.63132" lon="-8.1767617"><ele>408.0</ele><time>2026-04-25T16:18:38.413Z</time></trkpt><trkpt lat="31.6313233" lon="-8.1770033"><ele>407.66666666666663</ele><time>2026-04-25T16:18:39.413Z</time></trkpt><trkpt lat="31.6313283" lon="-8.1772383"><ele>407.3333333333333</ele><time>2026-04-25T16:18:40.413Z</time></trkpt><trkpt lat="31.6313317" lon="-8.17747"><ele>407.0</ele><time>2026-04-25T16:18:41.413Z</time></trkpt><trkpt lat="31.6313467" lon="-8.1777017"><ele>407.3333333333333</ele><time>2026-04-25T16:18:42.413Z</time></trkpt><trkpt lat="31.6313717" lon="-8.17793"><ele>407.66666666666663</ele><time>2026-04-25T16:18:43.414Z</time></trkpt><trkpt lat="31.6313917" lon="-8.178155"><ele>408.0</ele><time>2026-04-25T16:18:44.413Z</time></trkpt><trkpt lat="31.6314083" lon="-8.17838"><ele>408.0</ele><time>2026-04-25T16:18:45.413Z</time></trkpt><trkpt lat="31.6314167" lon="-8.1786"><ele>408.0</ele><time>2026-04-25T16:18:46.413Z</time></trkpt><trkpt lat="31.6314267" lon="-8.1788267"><ele>408.0</ele><time>2026-04-25T16:18:47.413Z</time></trkpt><trkpt lat="31.63143" lon="-8.1790383"><ele>408.66666666666663</ele><time>2026-04-25T16:18:48.413Z</time></trkpt><trkpt lat="31.63144" lon="-8.179255"><ele>409.3333333333333</ele><time>2026-04-25T16:18:49.414Z</time></trkpt><trkpt lat="31.63145" lon="-8.1794733"><ele>410.0</ele><time>2026-04-25T16:18:50.413Z</time></trkpt><trkpt lat="31.6314683" lon="-8.17969"><ele>409.66666666666663</ele><time>2026-04-25T16:18:51.413Z</time></trkpt><trkpt lat="31.6314783" lon="-8.1799133"><ele>409.33333333333337</ele><time>2026-04-25T16:18:52.413Z</time></trkpt><trkpt lat="31.6314867" lon="-8.18014"><ele>409.0</ele><time>2026-04-25T16:18:53.413Z</time></trkpt><trkpt lat="31.6314967" lon="-8.1803733"><ele>409.0</ele><time>2026-04-25T16:18:54.413Z</time></trkpt><trkpt lat="31.631505" lon="-8.1806033"><ele>409.0</ele><time>2026-04-25T16:18:55.413Z</time></trkpt><trkpt lat="31.631515" lon="-8.18082"><ele>409.0</ele><time>2026-04-25T16:18:56.413Z</time></trkpt><trkpt lat="31.6315233" lon="-8.1810367"><ele>408.6666666666667</ele><time>2026-04-25T16:18:57.413Z</time></trkpt><trkpt lat="31.63153" lon="-8.181255"><ele>408.33333333333337</ele><time>2026-04-25T16:18:58.413Z</time></trkpt><trkpt lat="31.6315367" lon="-8.1814733"><ele>408.0</ele><time>2026-04-25T16:18:59.413Z</time></trkpt><trkpt lat="31.63155" lon="-8.1816883"><ele>407.33333333333337</ele><time>2026-04-25T16:19:00.413Z</time></trkpt><trkpt lat="31.631565" lon="-8.1819083"><ele>406.6666666666667</ele><time>2026-04-25T16:19:01.413Z</time></trkpt><trkpt lat="31.631575" lon="-8.1821317"><ele>406.0</ele><time>2026-04-25T16:19:02.413Z</time></trkpt><trkpt lat="31.6315867" lon="-8.1823483"><ele>406.0</ele><time>2026-04-25T16:19:03.413Z</time></trkpt><trkpt lat="31.6316" lon="-8.1825733"><ele>406.0</ele><time>2026-04-25T16:19:04.413Z</time></trkpt><trkpt lat="31.631605" lon="-8.1828033"><ele>406.0</ele><time>2026-04-25T16:19:05.413Z</time></trkpt><trkpt lat="31.63161" lon="-8.1830367"><ele>405.6666666666667</ele><time>2026-04-25T16:19:06.413Z</time></trkpt><trkpt lat="31.6316167" lon="-8.1832767"><ele>405.33333333333337</ele><time>2026-04-25T16:19:07.413Z</time></trkpt><trkpt lat="31.63162" lon="-8.183515"><ele>405.0</ele><time>2026-04-25T16:19:08.413Z</time></trkpt><trkpt lat="31.63163" lon="-8.18374"><ele>405.0</ele><time>2026-04-25T16:19:09.413Z</time></trkpt><trkpt lat="31.6316417" lon="-8.1839733"><ele>405.0</ele><time>2026-04-25T16:19:10.413Z</time></trkpt><trkpt lat="31.6316583" lon="-8.1842033"><ele>405.0</ele><time>2026-04-25T16:19:11.413Z</time></trkpt><trkpt lat="31.6316733" lon="-8.18443"><ele>405.0</ele><time>2026-04-25T16:19:12.413Z</time></trkpt><trkpt lat="31.63168" lon="-8.18465"><ele>405.0</ele><time>2026-04-25T16:19:13.413Z</time></trkpt><trkpt lat="31.6316867" lon="-8.184875"><ele>405.0</ele><time>2026-04-25T16:19:14.414Z</time></trkpt><trkpt lat="31.6316983" lon="-8.1851067"><ele>405.0</ele><time>2026-04-25T16:19:15.413Z</time></trkpt><trkpt lat="31.63171" lon="-8.18534"><ele>405.0</ele><time>2026-04-25T16:19:16.413Z</time></trkpt><trkpt lat="31.631725" lon="-8.1855617"><ele>405.0</ele><time>2026-04-25T16:19:17.413Z</time></trkpt><trkpt lat="31.6317383" lon="-8.185775"><ele>404.33333333333337</ele><time>2026-04-25T16:19:18.413Z</time></trkpt><trkpt lat="31.63175" lon="-8.1859783"><ele>403.6666666666667</ele><time>2026-04-25T16:19:19.413Z</time></trkpt><trkpt lat="31.63176" lon="-8.1861833"><ele>403.0</ele><time>2026-04-25T16:19:20.413Z</time></trkpt><trkpt lat="31.631765" lon="-8.18639"><ele>403.0</ele><time>2026-04-25T16:19:21.413Z</time></trkpt><trkpt lat="31.63177" lon="-8.1865967"><ele>403.0</ele><time>2026-04-25T16:19:22.413Z</time></trkpt><trkpt lat="31.6317783" lon="-8.1868083"><ele>403.0</ele><time>2026-04-25T16:19:23.413Z</time></trkpt><trkpt lat="31.63179" lon="-8.1870183"><ele>403.0</ele><time>2026-04-25T16:19:24.413Z</time></trkpt><trkpt lat="31.6317917" lon="-8.187225"><ele>403.0</ele><time>2026-04-25T16:19:25.413Z</time></trkpt><trkpt lat="31.6317983" lon="-8.1874383"><ele>403.0</ele><time>2026-04-25T16:19:26.413Z</time></trkpt><trkpt lat="31.6318067" lon="-8.1876517"><ele>403.33333333333337</ele><time>2026-04-25T16:19:27.413Z</time></trkpt><trkpt lat="31.63182" lon="-8.18787"><ele>403.66666666666663</ele><time>2026-04-25T16:19:28.413Z</time></trkpt><trkpt lat="31.63184" lon="-8.1880967"><ele>404.0</ele><time>2026-04-25T16:19:29.413Z</time></trkpt><trkpt lat="31.6318583" lon="-8.188325"><ele>404.0</ele><time>2026-04-25T16:19:30.413Z</time></trkpt><trkpt lat="31.631865" lon="-8.188555"><ele>404.0</ele><time>2026-04-25T16:19:31.413Z</time></trkpt><trkpt lat="31.6318767" lon="-8.1887883"><ele>404.0</ele><time>2026-04-25T16:19:32.413Z</time></trkpt><trkpt lat="31.6318883" lon="-8.189025"><ele>403.66666666666663</ele><time>2026-04-25T16:19:33.413Z</time></trkpt><trkpt lat="31.631895" lon="-8.189255"><ele>403.33333333333337</ele><time>2026-04-25T16:19:34.413Z</time></trkpt><trkpt lat="31.6318983" lon="-8.1894783"><ele>403.0</ele><time>2026-04-25T16:19:35.413Z</time></trkpt><trkpt lat="31.6319017" lon="-8.1897067"><ele>403.0</ele><time>2026-04-25T16:19:36.413Z</time></trkpt><trkpt lat="31.631905" lon="-8.1899467"><ele>403.0</ele><time>2026-04-25T16:19:37.413Z</time></trkpt><trkpt lat="31.63191" lon="-8.1901967"><ele>403.0</ele><time>2026-04-25T16:19:38.413Z</time></trkpt><trkpt lat="31.6319217" lon="-8.1904617"><ele>403.5</ele><time>2026-04-25T16:19:39.413Z</time></trkpt><trkpt lat="31.631935" lon="-8.190735"><ele>404.0</ele><time>2026-04-25T16:19:40.413Z</time></trkpt><trkpt lat="31.6319483" lon="-8.1910083"><ele>404.0</ele><time>2026-04-25T16:19:41.413Z</time></trkpt><trkpt lat="31.6319617" lon="-8.19128"><ele>404.0</ele><time>2026-04-25T16:19:42.413Z</time></trkpt><trkpt lat="31.631975" lon="-8.1915483"><ele>403.0</ele><time>2026-04-25T16:19:43.413Z</time></trkpt><trkpt lat="31.63199" lon="-8.191815"><ele>402.0</ele><time>2026-04-25T16:19:44.413Z</time></trkpt><trkpt lat="31.6319967" lon="-8.1920867"><ele>402.0</ele><time>2026-04-25T16:19:45.413Z</time></trkpt><trkpt lat="31.6319983" lon="-8.1923783"><ele>402.0</ele><time>2026-04-25T16:19:46.413Z</time></trkpt><trkpt lat="31.6320167" lon="-8.192675"><ele>402.0</ele><time>2026-04-25T16:19:47.413Z</time></trkpt><trkpt lat="31.632035" lon="-8.1929683"><ele>402.0</ele><time>2026-04-25T16:19:48.413Z</time></trkpt><trkpt lat="31.6320583" lon="-8.1932617"><ele>402.0</ele><time>2026-04-25T16:19:49.413Z</time></trkpt><trkpt lat="31.6320717" lon="-8.1935517"><ele>402.0</ele><time>2026-04-25T16:19:50.413Z</time></trkpt><trkpt lat="31.6320883" lon="-8.1938333"><ele>401.5</ele><time>2026-04-25T16:19:51.413Z</time></trkpt><trkpt lat="31.6321033" lon="-8.1941"><ele>401.0</ele><time>2026-04-25T16:19:52.413Z</time></trkpt><trkpt lat="31.632115" lon="-8.1943633"><ele>401.0</ele><time>2026-04-25T16:19:53.413Z</time></trkpt><trkpt lat="31.63212" lon="-8.19462"><ele>401.0</ele><time>2026-04-25T16:19:54.413Z</time></trkpt><trkpt lat="31.6321333" lon="-8.194885"><ele>401.0</ele><time>2026-04-25T16:19:55.413Z</time></trkpt><trkpt lat="31.63214" lon="-8.19515"><ele>401.3333333333333</ele><time>2026-04-25T16:19:56.413Z</time></trkpt><trkpt lat="31.6321567" lon="-8.1954133"><ele>401.66666666666663</ele><time>2026-04-25T16:19:57.413Z</time></trkpt><trkpt lat="31.6321667" lon="-8.1956683"><ele>402.0</ele><time>2026-04-25T16:19:58.413Z</time></trkpt><trkpt lat="31.6321783" lon="-8.1959217"><ele>402.0</ele><time>2026-04-25T16:19:59.414Z</time></trkpt><trkpt lat="31.6321867" lon="-8.1961783"><ele>402.0</ele><time>2026-04-25T16:20:00.413Z</time></trkpt><trkpt lat="31.6322017" lon="-8.19644"><ele>402.0</ele><time>2026-04-25T16:20:01.413Z</time></trkpt><trkpt lat="31.6322167" lon="-8.1967033"><ele>401.5</ele><time>2026-04-25T16:20:02.413Z</time></trkpt><trkpt lat="31.63223" lon="-8.1969683"><ele>401.0</ele><time>2026-04-25T16:20:03.413Z</time></trkpt><trkpt lat="31.632235" lon="-8.197235"><ele>400.66666666666663</ele><time>2026-04-25T16:20:04.413Z</time></trkpt><trkpt lat="31.632245" lon="-8.1975"><ele>400.33333333333337</ele><time>2026-04-25T16:20:05.413Z</time></trkpt><trkpt lat="31.6322583" lon="-8.1977533"><ele>400.0</ele><time>2026-04-25T16:20:06.413Z</time></trkpt><trkpt lat="31.6322683" lon="-8.1979983"><ele>400.33333333333337</ele><time>2026-04-25T16:20:07.413Z</time></trkpt><trkpt lat="31.6322817" lon="-8.1982533"><ele>400.66666666666663</ele><time>2026-04-25T16:20:08.413Z</time></trkpt><trkpt lat="31.6322967" lon="-8.1985183"><ele>401.0</ele><time>2026-04-25T16:20:09.413Z</time></trkpt><trkpt lat="31.6323083" lon="-8.1988017"><ele>400.5</ele><time>2026-04-25T16:20:10.413Z</time></trkpt><trkpt lat="31.6323083" lon="-8.199095"><ele>400.0</ele><time>2026-04-25T16:20:11.413Z</time></trkpt><trkpt lat="31.6323183" lon="-8.1993867"><ele>400.0</ele><time>2026-04-25T16:20:12.413Z</time></trkpt><trkpt lat="31.6323383" lon="-8.1996667"><ele>400.0</ele><time>2026-04-25T16:20:13.413Z</time></trkpt><trkpt lat="31.632345" lon="-8.1999517"><ele>399.5</ele><time>2026-04-25T16:20:14.413Z</time></trkpt><trkpt lat="31.6323483" lon="-8.20026"><ele>399.0</ele><time>2026-04-25T16:20:15.413Z</time></trkpt><trkpt lat="31.6323583" lon="-8.2005833"><ele>399.5</ele><time>2026-04-25T16:20:16.413Z</time></trkpt><trkpt lat="31.6323667" lon="-8.200925"><ele>400.0</ele><time>2026-04-25T16:20:17.413Z</time></trkpt><trkpt lat="31.6323867" lon="-8.2012617"><ele>399.5</ele><time>2026-04-25T16:20:18.413Z</time></trkpt><trkpt lat="31.6324033" lon="-8.2015667"><ele>399.0</ele><time>2026-04-25T16:20:19.413Z</time></trkpt><trkpt lat="31.6324233" lon="-8.2018467"><ele>399.0</ele><time>2026-04-25T16:20:20.413Z</time></trkpt><trkpt lat="31.6324367" lon="-8.2021167"><ele>399.0</ele><time>2026-04-25T16:20:21.413Z</time></trkpt><trkpt lat="31.6324433" lon="-8.202375"><ele>398.5</ele><time>2026-04-25T16:20:22.413Z</time></trkpt><trkpt lat="31.6324533" lon="-8.2026333"><ele>398.0</ele><time>2026-04-25T16:20:23.413Z</time></trkpt><trkpt lat="31.6324567" lon="-8.2029033"><ele>399.5</ele><time>2026-04-25T16:20:24.413Z</time></trkpt><trkpt lat="31.6324733" lon="-8.20321"><ele>401.0</ele><time>2026-04-25T16:20:25.413Z</time></trkpt><trkpt lat="31.6324967" lon="-8.2035067"><ele>401.0</ele><time>2026-04-25T16:20:26.413Z</time></trkpt><trkpt lat="31.6325217" lon="-8.2037917"><ele>401.0</ele><time>2026-04-25T16:20:27.413Z</time></trkpt><trkpt lat="31.63254" lon="-8.2040683"><ele>400.0</ele><time>2026-04-25T16:20:28.413Z</time></trkpt><trkpt lat="31.6325517" lon="-8.204355"><ele>399.0</ele><time>2026-04-25T16:20:29.413Z</time></trkpt><trkpt lat="31.6325567" lon="-8.2046467"><ele>399.0</ele><time>2026-04-25T16:20:30.413Z</time></trkpt><trkpt lat="31.63257" lon="-8.2049267"><ele>399.0</ele><time>2026-04-25T16:20:31.413Z</time></trkpt><trkpt lat="31.6325767" lon="-8.2051867"><ele>399.0</ele><time>2026-04-25T16:20:32.413Z</time></trkpt><trkpt lat="31.6325883" lon="-8.205425"><ele>399.0</ele><time>2026-04-25T16:20:33.413Z</time></trkpt><trkpt lat="31.6326017" lon="-8.2056483"><ele>399.0</ele><time>2026-04-25T16:20:34.413Z</time></trkpt><trkpt lat="31.6326133" lon="-8.205855"><ele>399.0</ele><time>2026-04-25T16:20:35.413Z</time></trkpt><trkpt lat="31.6326233" lon="-8.2060533"><ele>399.0</ele><time>2026-04-25T16:20:36.413Z</time></trkpt><trkpt lat="31.63263" lon="-8.2062367"><ele>399.0</ele><time>2026-04-25T16:20:37.413Z</time></trkpt><trkpt lat="31.6326367" lon="-8.2064133"><ele>398.5</ele><time>2026-04-25T16:20:38.413Z</time></trkpt><trkpt lat="31.63264" lon="-8.20659"><ele>398.0</ele><time>2026-04-25T16:20:39.413Z</time></trkpt><trkpt lat="31.6326433" lon="-8.2067617"><ele>397.5</ele><time>2026-04-25T16:20:40.414Z</time></trkpt><trkpt lat="31.6326567" lon="-8.2069283"><ele>397.0</ele><time>2026-04-25T16:20:41.413Z</time></trkpt><trkpt lat="31.6326617" lon="-8.2070983"><ele>397.0</ele><time>2026-04-25T16:20:42.413Z</time></trkpt><trkpt lat="31.6326717" lon="-8.2072767"><ele>397.0</ele><time>2026-04-25T16:20:43.413Z</time></trkpt><trkpt lat="31.6326783" lon="-8.207445"><ele>397.0</ele><time>2026-04-25T16:20:44.413Z</time></trkpt><trkpt lat="31.6326817" lon="-8.207615"><ele>397.0</ele><time>2026-04-25T16:20:45.413Z</time></trkpt><trkpt lat="31.632685" lon="-8.207785"><ele>397.5</ele><time>2026-04-25T16:20:46.413Z</time></trkpt><trkpt lat="31.6326933" lon="-8.2079533"><ele>398.0</ele><time>2026-04-25T16:20:47.413Z</time></trkpt><trkpt lat="31.6326983" lon="-8.2081283"><ele>398.5</ele><time>2026-04-25T16:20:48.413Z</time></trkpt><trkpt lat="31.632705" lon="-8.208305"><ele>399.0</ele><time>2026-04-25T16:20:49.413Z</time></trkpt><trkpt lat="31.6327117" lon="-8.20849"><ele>399.0</ele><time>2026-04-25T16:20:50.413Z</time></trkpt><trkpt lat="31.632715" lon="-8.2086683"><ele>399.0</ele><time>2026-04-25T16:20:51.413Z</time></trkpt><trkpt lat="31.632725" lon="-8.2088317"><ele>399.0</ele><time>2026-04-25T16:20:52.413Z</time></trkpt><trkpt lat="31.6327317" lon="-8.2089967"><ele>399.0</ele><time>2026-04-25T16:20:53.413Z</time></trkpt><trkpt lat="31.632745" lon="-8.2091583"><ele>398.5</ele><time>2026-04-25T16:20:54.413Z</time></trkpt><trkpt lat="31.632755" lon="-8.2093217"><ele>398.0</ele><time>2026-04-25T16:20:55.413Z</time></trkpt><trkpt lat="31.6327633" lon="-8.20948"><ele>397.5</ele><time>2026-04-25T16:20:56.413Z</time></trkpt><trkpt lat="31.6327733" lon="-8.209635"><ele>397.0</ele><time>2026-04-25T16:20:57.413Z</time></trkpt><trkpt lat="31.632785" lon="-8.2097767"><ele>397.20000000000005</ele><time>2026-04-25T16:20:58.413Z</time></trkpt><trkpt lat="31.6327933" lon="-8.20991"><ele>397.4</ele><time>2026-04-25T16:20:59.413Z</time></trkpt><trkpt lat="31.6328" lon="-8.21004"><ele>397.6</ele><time>2026-04-25T16:21:00.413Z</time></trkpt><trkpt lat="31.6328033" lon="-8.21017"><ele>397.79999999999995</ele><time>2026-04-25T16:21:01.413Z</time></trkpt><trkpt lat="31.6328117" lon="-8.210295"><ele>398.0</ele><time>2026-04-25T16:21:02.413Z</time></trkpt><trkpt lat="31.632815" lon="-8.21041"><ele>397.99999999999994</ele><time>2026-04-25T16:21:03.413Z</time></trkpt><trkpt lat="31.6328183" lon="-8.2105183"><ele>398.0</ele><time>2026-04-25T16:21:04.413Z</time></trkpt><trkpt lat="31.63282" lon="-8.210615"><ele>398.0</ele><time>2026-04-25T16:21:05.413Z</time></trkpt><trkpt lat="31.6328267" lon="-8.2107033"><ele>398.0</ele><time>2026-04-25T16:21:06.413Z</time></trkpt><trkpt lat="31.63283" lon="-8.21079"><ele>397.99999999999994</ele><time>2026-04-25T16:21:07.413Z</time></trkpt><trkpt lat="31.632835" lon="-8.2108733"><ele>398.0</ele><time>2026-04-25T16:21:08.413Z</time></trkpt><trkpt lat="31.63284" lon="-8.2109567"><ele>397.79999999999995</ele><time>2026-04-25T16:21:09.413Z</time></trkpt><trkpt lat="31.63284" lon="-8.211035"><ele>397.6</ele><time>2026-04-25T16:21:10.414Z</time></trkpt><trkpt lat="31.6328517" lon="-8.2111783"><ele>397.4</ele><time>2026-04-25T16:21:12.413Z</time></trkpt><trkpt lat="31.6328617" lon="-8.2113217"><ele>397.20000000000005</ele><time>2026-04-25T16:21:14.413Z</time></trkpt><trkpt lat="31.63287" lon="-8.2114683"><ele>397.0</ele><time>2026-04-25T16:21:16.413Z</time></trkpt><trkpt lat="31.6328667" lon="-8.21162"><ele>396.83333333333337</ele><time>2026-04-25T16:21:18.413Z</time></trkpt><trkpt lat="31.6328683" lon="-8.211705"><ele>396.6666666666667</ele><time>2026-04-25T16:21:19.413Z</time></trkpt><trkpt lat="31.6328717" lon="-8.211795"><ele>396.5</ele><time>2026-04-25T16:21:20.414Z</time></trkpt><trkpt lat="31.632875" lon="-8.2118967"><ele>396.33333333333337</ele><time>2026-04-25T16:21:21.413Z</time></trkpt><trkpt lat="31.6328733" lon="-8.2119917"><ele>396.1666666666667</ele><time>2026-04-25T16:21:22.413Z</time></trkpt><trkpt lat="31.632875" lon="-8.2120883"><ele>396.0</ele><time>2026-04-25T16:21:23.413Z</time></trkpt><trkpt lat="31.6328817" lon="-8.21219"><ele>396.0</ele><time>2026-04-25T16:21:24.413Z</time></trkpt><trkpt lat="31.632885" lon="-8.2123017"><ele>396.0</ele><time>2026-04-25T16:21:25.413Z</time></trkpt><trkpt lat="31.6328867" lon="-8.2124117"><ele>396.0</ele><time>2026-04-25T16:21:26.413Z</time></trkpt><trkpt lat="31.6328833" lon="-8.2125167"><ele>396.0</ele><time>2026-04-25T16:21:27.413Z</time></trkpt><trkpt lat="31.6328933" lon="-8.2126267"><ele>396.0</ele><time>2026-04-25T16:21:28.413Z</time></trkpt><trkpt lat="31.6328967" lon="-8.21274"><ele>395.75</ele><time>2026-04-25T16:21:29.413Z</time></trkpt><trkpt lat="31.6328983" lon="-8.212865"><ele>395.5</ele><time>2026-04-25T16:21:30.413Z</time></trkpt><trkpt lat="31.6328983" lon="-8.2129967"><ele>395.25</ele><time>2026-04-25T16:21:31.413Z</time></trkpt><trkpt lat="31.6329017" lon="-8.213135"><ele>395.0</ele><time>2026-04-25T16:21:32.413Z</time></trkpt><trkpt lat="31.632905" lon="-8.2132783"><ele>394.75</ele><time>2026-04-25T16:21:33.413Z</time></trkpt><trkpt lat="31.6329117" lon="-8.21343"><ele>394.5</ele><time>2026-04-25T16:21:34.413Z</time></trkpt><trkpt lat="31.6329233" lon="-8.2135867"><ele>394.25</ele><time>2026-04-25T16:21:35.413Z</time></trkpt><trkpt lat="31.6329333" lon="-8.213745"><ele>394.0</ele><time>2026-04-25T16:21:36.414Z</time></trkpt><trkpt lat="31.6329433" lon="-8.2139167"><ele>394.33333333333337</ele><time>2026-04-25T16:21:37.413Z</time></trkpt><trkpt lat="31.6329533" lon="-8.2141"><ele>394.66666666666663</ele><time>2026-04-25T16:21:38.413Z</time></trkpt><trkpt lat="31.6329617" lon="-8.2142817"><ele>395.0</ele><time>2026-04-25T16:21:39.413Z</time></trkpt><trkpt lat="31.6329667" lon="-8.21445"><ele>395.0</ele><time>2026-04-25T16:21:40.413Z</time></trkpt><trkpt lat="31.6329783" lon="-8.2146267"><ele>395.0</ele><time>2026-04-25T16:21:41.413Z</time></trkpt><trkpt lat="31.632985" lon="-8.2148"><ele>395.0</ele><time>2026-04-25T16:21:42.413Z</time></trkpt><trkpt lat="31.6329917" lon="-8.2149733"><ele>395.0</ele><time>2026-04-25T16:21:43.413Z</time></trkpt><trkpt lat="31.6330017" lon="-8.21515"><ele>395.0</ele><time>2026-04-25T16:21:44.413Z</time></trkpt><trkpt lat="31.6330083" lon="-8.215325"><ele>395.0</ele><time>2026-04-25T16:21:45.413Z</time></trkpt><trkpt lat="31.6330233" lon="-8.2155017"><ele>395.0</ele><time>2026-04-25T16:21:46.413Z</time></trkpt><trkpt lat="31.6330383" lon="-8.2156817"><ele>395.66666666666663</ele><time>2026-04-25T16:21:47.413Z</time></trkpt><trkpt lat="31.6330417" lon="-8.2158717"><ele>396.33333333333337</ele><time>2026-04-25T16:21:48.413Z</time></trkpt><trkpt lat="31.6330483" lon="-8.2160583"><ele>397.0</ele><time>2026-04-25T16:21:49.413Z</time></trkpt><trkpt lat="31.6330583" lon="-8.2162583"><ele>397.0</ele><time>2026-04-25T16:21:50.413Z</time></trkpt><trkpt lat="31.6330667" lon="-8.21646"><ele>397.0</ele><time>2026-04-25T16:21:51.413Z</time></trkpt><trkpt lat="31.633075" lon="-8.2166733"><ele>397.0</ele><time>2026-04-25T16:21:52.413Z</time></trkpt><trkpt lat="31.6330833" lon="-8.216885"><ele>396.6666666666667</ele><time>2026-04-25T16:21:53.414Z</time></trkpt><trkpt lat="31.6330917" lon="-8.217095"><ele>396.33333333333337</ele><time>2026-04-25T16:21:54.413Z</time></trkpt><trkpt lat="31.6331" lon="-8.2173067"><ele>396.0</ele><time>2026-04-25T16:21:55.413Z</time></trkpt><trkpt lat="31.6331083" lon="-8.2175167"><ele>395.33333333333337</ele><time>2026-04-25T16:21:56.413Z</time></trkpt><trkpt lat="31.633115" lon="-8.2177267"><ele>394.6666666666667</ele><time>2026-04-25T16:21:57.413Z</time></trkpt><trkpt lat="31.6331283" lon="-8.21794"><ele>394.0</ele><time>2026-04-25T16:21:58.413Z</time></trkpt><trkpt lat="31.6331333" lon="-8.2181517"><ele>394.0</ele><time>2026-04-25T16:21:59.413Z</time></trkpt><trkpt lat="31.6331417" lon="-8.2183717"><ele>394.0</ele><time>2026-04-25T16:22:00.413Z</time></trkpt><trkpt lat="31.6331467" lon="-8.2185967"><ele>394.0</ele><time>2026-04-25T16:22:01.413Z</time></trkpt><trkpt lat="31.6331567" lon="-8.2188267"><ele>394.6666666666667</ele><time>2026-04-25T16:22:02.413Z</time></trkpt><trkpt lat="31.6331683" lon="-8.2190583"><ele>395.33333333333337</ele><time>2026-04-25T16:22:03.413Z</time></trkpt><trkpt lat="31.6331767" lon="-8.2192967"><ele>396.0</ele><time>2026-04-25T16:22:04.414Z</time></trkpt><trkpt lat="31.633185" lon="-8.2195317"><ele>396.0</ele><time>2026-04-25T16:22:05.413Z</time></trkpt><trkpt lat="31.6332" lon="-8.2197683"><ele>396.0</ele><time>2026-04-25T16:22:06.413Z</time></trkpt><trkpt lat="31.6332117" lon="-8.2199967"><ele>396.0</ele><time>2026-04-25T16:22:07.413Z</time></trkpt><trkpt lat="31.6332217" lon="-8.2202217"><ele>395.66666666666663</ele><time>2026-04-25T16:22:08.413Z</time></trkpt><trkpt lat="31.63323" lon="-8.2204333"><ele>395.3333333333333</ele><time>2026-04-25T16:22:09.414Z</time></trkpt><trkpt lat="31.63324" lon="-8.2206417"><ele>395.0</ele><time>2026-04-25T16:22:10.413Z</time></trkpt><trkpt lat="31.6332517" lon="-8.22085"><ele>394.66666666666663</ele><time>2026-04-25T16:22:11.414Z</time></trkpt><trkpt lat="31.6332667" lon="-8.2210583"><ele>394.33333333333337</ele><time>2026-04-25T16:22:12.413Z</time></trkpt><trkpt lat="31.63328" lon="-8.22127"><ele>394.0</ele><time>2026-04-25T16:22:13.414Z</time></trkpt><trkpt lat="31.6332917" lon="-8.221485"><ele>393.6666666666667</ele><time>2026-04-25T16:22:14.413Z</time></trkpt><trkpt lat="31.6333017" lon="-8.2217167"><ele>393.33333333333337</ele><time>2026-04-25T16:22:15.413Z</time></trkpt><trkpt lat="31.6333067" lon="-8.22195"><ele>393.0</ele><time>2026-04-25T16:22:16.413Z</time></trkpt><trkpt lat="31.6333133" lon="-8.222185"><ele>393.0</ele><time>2026-04-25T16:22:17.413Z</time></trkpt><trkpt lat="31.63332" lon="-8.2224083"><ele>393.0</ele><time>2026-04-25T16:22:18.413Z</time></trkpt><trkpt lat="31.6333317" lon="-8.2226233"><ele>393.0</ele><time>2026-04-25T16:22:19.413Z</time></trkpt><trkpt lat="31.6333433" lon="-8.2228433"><ele>393.0</ele><time>2026-04-25T16:22:20.413Z</time></trkpt><trkpt lat="31.6333517" lon="-8.22306"><ele>393.0</ele><time>2026-04-25T16:22:21.413Z</time></trkpt><trkpt lat="31.6333583" lon="-8.2232767"><ele>393.0</ele><time>2026-04-25T16:22:22.413Z</time></trkpt><trkpt lat="31.63337" lon="-8.22349"><ele>393.0</ele><time>2026-04-25T16:22:23.413Z</time></trkpt><trkpt lat="31.6333733" lon="-8.223705"><ele>393.0</ele><time>2026-04-25T16:22:24.413Z</time></trkpt><trkpt lat="31.6333833" lon="-8.2239283"><ele>393.0</ele><time>2026-04-25T16:22:25.413Z</time></trkpt><trkpt lat="31.6333917" lon="-8.2241483"><ele>392.33333333333337</ele><time>2026-04-25T16:22:26.413Z</time></trkpt><trkpt lat="31.633405" lon="-8.2243667"><ele>391.6666666666667</ele><time>2026-04-25T16:22:27.413Z</time></trkpt><trkpt lat="31.6334217" lon="-8.2245883"><ele>391.0</ele><time>2026-04-25T16:22:28.413Z</time></trkpt><trkpt lat="31.633435" lon="-8.2248167"><ele>391.0</ele><time>2026-04-25T16:22:29.413Z</time></trkpt><trkpt lat="31.633435" lon="-8.2250567"><ele>391.0</ele><time>2026-04-25T16:22:30.413Z</time></trkpt><trkpt lat="31.63344" lon="-8.225305"><ele>391.0</ele><time>2026-04-25T16:22:31.413Z</time></trkpt><trkpt lat="31.6334483" lon="-8.2255483"><ele>391.6666666666667</ele><time>2026-04-25T16:22:32.413Z</time></trkpt><trkpt lat="31.633455" lon="-8.2257783"><ele>392.33333333333337</ele><time>2026-04-25T16:22:33.413Z</time></trkpt><trkpt lat="31.63347" lon="-8.2259917"><ele>393.0</ele><time>2026-04-25T16:22:34.413Z</time></trkpt><trkpt lat="31.6334833" lon="-8.2262117"><ele>393.0</ele><time>2026-04-25T16:22:35.413Z</time></trkpt><trkpt lat="31.6334917" lon="-8.22644"><ele>393.0</ele><time>2026-04-25T16:22:36.413Z</time></trkpt><trkpt lat="31.6334967" lon="-8.2266833"><ele>393.0</ele><time>2026-04-25T16:22:37.413Z</time></trkpt><trkpt lat="31.6334983" lon="-8.226945"><ele>392.5</ele><time>2026-04-25T16:22:38.413Z</time></trkpt><trkpt lat="31.6335067" lon="-8.2272167"><ele>392.0</ele><time>2026-04-25T16:22:39.413Z</time></trkpt><trkpt lat="31.6335233" lon="-8.2274917"><ele>391.5</ele><time>2026-04-25T16:22:40.413Z</time></trkpt><trkpt lat="31.6335433" lon="-8.2277867"><ele>391.0</ele><time>2026-04-25T16:22:41.413Z</time></trkpt><trkpt lat="31.63356" lon="-8.2280817"><ele>391.0</ele><time>2026-04-25T16:22:42.413Z</time></trkpt><trkpt lat="31.63358" lon="-8.2283733"><ele>391.0</ele><time>2026-04-25T16:22:43.413Z</time></trkpt><trkpt lat="31.6335933" lon="-8.2286533"><ele>391.0</ele><time>2026-04-25T16:22:44.413Z</time></trkpt><trkpt lat="31.6336067" lon="-8.22894"><ele>391.0</ele><time>2026-04-25T16:22:45.413Z</time></trkpt><trkpt lat="31.6336183" lon="-8.2292333"><ele>391.0</ele><time>2026-04-25T16:22:46.413Z</time></trkpt><trkpt lat="31.6336333" lon="-8.2295317"><ele>391.0</ele><time>2026-04-25T16:22:47.413Z</time></trkpt><trkpt lat="31.6336467" lon="-8.229835"><ele>391.0</ele><time>2026-04-25T16:22:48.413Z</time></trkpt><trkpt lat="31.6336567" lon="-8.2301433"><ele>391.0</ele><time>2026-04-25T16:22:49.413Z</time></trkpt><trkpt lat="31.63367" lon="-8.230455"><ele>391.0</ele><time>2026-04-25T16:22:50.413Z</time></trkpt><trkpt lat="31.6336867" lon="-8.230755"><ele>391.0</ele><time>2026-04-25T16:22:51.413Z</time></trkpt><trkpt lat="31.633705" lon="-8.231035"><ele>391.0</ele><time>2026-04-25T16:22:52.413Z</time></trkpt><trkpt lat="31.63372" lon="-8.231315"><ele>391.0</ele><time>2026-04-25T16:22:53.413Z</time></trkpt><trkpt lat="31.633735" lon="-8.2316"><ele>390.5</ele><time>2026-04-25T16:22:54.413Z</time></trkpt><trkpt lat="31.6337433" lon="-8.23189"><ele>390.0</ele><time>2026-04-25T16:22:55.414Z</time></trkpt><trkpt lat="31.6337533" lon="-8.2321833"><ele>390.0</ele><time>2026-04-25T16:22:56.413Z</time></trkpt><trkpt lat="31.6337633" lon="-8.2324767"><ele>390.0</ele><time>2026-04-25T16:22:57.413Z</time></trkpt><trkpt lat="31.63378" lon="-8.2327717"><ele>390.0</ele><time>2026-04-25T16:22:58.413Z</time></trkpt><trkpt lat="31.6337967" lon="-8.2330467"><ele>390.0</ele><time>2026-04-25T16:22:59.413Z</time></trkpt><trkpt lat="31.6338083" lon="-8.2333083"><ele>390.0</ele><time>2026-04-25T16:23:00.413Z</time></trkpt><trkpt lat="31.63382" lon="-8.2335617"><ele>390.0</ele><time>2026-04-25T16:23:01.413Z</time></trkpt><trkpt lat="31.6338267" lon="-8.2338033"><ele>390.0</ele><time>2026-04-25T16:23:02.413Z</time></trkpt><trkpt lat="31.6338367" lon="-8.2340483"><ele>389.33333333333337</ele><time>2026-04-25T16:23:03.413Z</time></trkpt><trkpt lat="31.6338467" lon="-8.2342933"><ele>388.6666666666667</ele><time>2026-04-25T16:23:04.413Z</time></trkpt><trkpt lat="31.633855" lon="-8.2345417"><ele>388.0</ele><time>2026-04-25T16:23:05.413Z</time></trkpt><trkpt lat="31.633865" lon="-8.2347983"><ele>387.6666666666667</ele><time>2026-04-25T16:23:06.413Z</time></trkpt><trkpt lat="31.63387" lon="-8.2350483"><ele>387.33333333333337</ele><time>2026-04-25T16:23:07.413Z</time></trkpt><trkpt lat="31.6338767" lon="-8.2353"><ele>387.0</ele><time>2026-04-25T16:23:08.413Z</time></trkpt><trkpt lat="31.6338833" lon="-8.2355433"><ele>387.33333333333337</ele><time>2026-04-25T16:23:09.413Z</time></trkpt><trkpt lat="31.6338983" lon="-8.2357867"><ele>387.6666666666667</ele><time>2026-04-25T16:23:10.413Z</time></trkpt><trkpt lat="31.6339133" lon="-8.23604"><ele>388.0</ele><time>2026-04-25T16:23:11.413Z</time></trkpt><trkpt lat="31.6339233" lon="-8.2363067"><ele>387.5</ele><time>2026-04-25T16:23:12.413Z</time></trkpt><trkpt lat="31.6339233" lon="-8.23658"><ele>387.0</ele><time>2026-04-25T16:23:13.413Z</time></trkpt><trkpt lat="31.6339333" lon="-8.2368583"><ele>387.0</ele><time>2026-04-25T16:23:14.413Z</time></trkpt><trkpt lat="31.6339517" lon="-8.23714"><ele>387.0</ele><time>2026-04-25T16:23:15.414Z</time></trkpt><trkpt lat="31.6339733" lon="-8.2374167"><ele>387.0</ele><time>2026-04-25T16:23:16.413Z</time></trkpt><trkpt lat="31.6339883" lon="-8.23768"><ele>387.0</ele><time>2026-04-25T16:23:17.414Z</time></trkpt><trkpt lat="31.6340017" lon="-8.23793"><ele>387.0</ele><time>2026-04-25T16:23:18.413Z</time></trkpt><trkpt lat="31.63401" lon="-8.2381733"><ele>387.0</ele><time>2026-04-25T16:23:19.413Z</time></trkpt><trkpt lat="31.6340233" lon="-8.2384167"><ele>387.0</ele><time>2026-04-25T16:23:20.413Z</time></trkpt><trkpt lat="31.6340367" lon="-8.23866"><ele>387.0</ele><time>2026-04-25T16:23:21.413Z</time></trkpt><trkpt lat="31.634045" lon="-8.2389067"><ele>387.0</ele><time>2026-04-25T16:23:22.413Z</time></trkpt><trkpt lat="31.6340567" lon="-8.2391533"><ele>387.0</ele><time>2026-04-25T16:23:23.413Z</time></trkpt><trkpt lat="31.6340667" lon="-8.2394017"><ele>387.0</ele><time>2026-04-25T16:23:24.413Z</time></trkpt><trkpt lat="31.6340783" lon="-8.2396417"><ele>386.66666666666663</ele><time>2026-04-25T16:23:25.413Z</time></trkpt><trkpt lat="31.6340917" lon="-8.23987"><ele>386.3333333333333</ele><time>2026-04-25T16:23:26.413Z</time></trkpt><trkpt lat="31.6341" lon="-8.24009"><ele>386.0</ele><time>2026-04-25T16:23:27.413Z</time></trkpt><trkpt lat="31.6341083" lon="-8.2403"><ele>386.0</ele><time>2026-04-25T16:23:28.413Z</time></trkpt><trkpt lat="31.63412" lon="-8.2405017"><ele>386.0</ele><time>2026-04-25T16:23:29.413Z</time></trkpt><trkpt lat="31.6341317" lon="-8.24069"><ele>386.0</ele><time>2026-04-25T16:23:30.413Z</time></trkpt><trkpt lat="31.63414" lon="-8.2408633"><ele>385.75</ele><time>2026-04-25T16:23:31.413Z</time></trkpt><trkpt lat="31.634145" lon="-8.2410317"><ele>385.5</ele><time>2026-04-25T16:23:32.413Z</time></trkpt><trkpt lat="31.63415" lon="-8.24119"><ele>385.25</ele><time>2026-04-25T16:23:33.413Z</time></trkpt><trkpt lat="31.634155" lon="-8.2413383"><ele>385.0</ele><time>2026-04-25T16:23:34.413Z</time></trkpt><trkpt lat="31.6341633" lon="-8.2414717"><ele>385.0</ele><time>2026-04-25T16:23:35.413Z</time></trkpt><trkpt lat="31.63417" lon="-8.2416"><ele>385.0</ele><time>2026-04-25T16:23:36.413Z</time></trkpt><trkpt lat="31.6341783" lon="-8.241735"><ele>385.0</ele><time>2026-04-25T16:23:37.413Z</time></trkpt><trkpt lat="31.63419" lon="-8.2418783"><ele>385.0</ele><time>2026-04-25T16:23:38.413Z</time></trkpt><trkpt lat="31.6342" lon="-8.242015"><ele>385.0</ele><time>2026-04-25T16:23:39.414Z</time></trkpt><trkpt lat="31.634205" lon="-8.2421417"><ele>385.0</ele><time>2026-04-25T16:23:40.413Z</time></trkpt><trkpt lat="31.6342133" lon="-8.242275"><ele>385.0</ele><time>2026-04-25T16:23:41.413Z</time></trkpt><trkpt lat="31.6342167" lon="-8.2424133"><ele>385.0</ele><time>2026-04-25T16:23:42.413Z</time></trkpt><trkpt lat="31.6342217" lon="-8.2425467"><ele>384.8</ele><time>2026-04-25T16:23:43.413Z</time></trkpt><trkpt lat="31.6342217" lon="-8.2426717"><ele>384.6</ele><time>2026-04-25T16:23:44.413Z</time></trkpt><trkpt lat="31.6342217" lon="-8.2427917"><ele>384.4</ele><time>2026-04-25T16:23:45.413Z</time></trkpt><trkpt lat="31.6342283" lon="-8.2429083"><ele>384.2</ele><time>2026-04-25T16:23:46.413Z</time></trkpt><trkpt lat="31.6342317" lon="-8.243025"><ele>384.0</ele><time>2026-04-25T16:23:47.413Z</time></trkpt><trkpt lat="31.6342367" lon="-8.2431467"><ele>383.2</ele><time>2026-04-25T16:23:48.413Z</time></trkpt><trkpt lat="31.63424" lon="-8.2432717"><ele>382.4</ele><time>2026-04-25T16:23:49.413Z</time></trkpt><trkpt lat="31.634245" lon="-8.243395"><ele>381.6</ele><time>2026-04-25T16:23:50.413Z</time></trkpt><trkpt lat="31.63425" lon="-8.2435133"><ele>380.8</ele><time>2026-04-25T16:23:51.413Z</time></trkpt><trkpt lat="31.634255" lon="-8.24363"><ele>380.0</ele><time>2026-04-25T16:23:52.413Z</time></trkpt><trkpt lat="31.6342583" lon="-8.2437467"><ele>380.0</ele><time>2026-04-25T16:23:53.413Z</time></trkpt><trkpt lat="31.6342633" lon="-8.2438683"><ele>380.0</ele><time>2026-04-25T16:23:54.413Z</time></trkpt><trkpt lat="31.6342733" lon="-8.2439817"><ele>380.0</ele><time>2026-04-25T16:23:55.413Z</time></trkpt><trkpt lat="31.6342817" lon="-8.2440883"><ele>380.0</ele><time>2026-04-25T16:23:56.413Z</time></trkpt><trkpt lat="31.63429" lon="-8.244195"><ele>380.0</ele><time>2026-04-25T16:23:57.413Z</time></trkpt><trkpt lat="31.6342967" lon="-8.2443"><ele>380.5</ele><time>2026-04-25T16:23:58.413Z</time></trkpt><trkpt lat="31.6343033" lon="-8.244395"><ele>381.0</ele><time>2026-04-25T16:23:59.413Z</time></trkpt><trkpt lat="31.6343033" lon="-8.244495"><ele>381.5</ele><time>2026-04-25T16:24:00.413Z</time></trkpt><trkpt lat="31.634305" lon="-8.2445983"><ele>382.0</ele><time>2026-04-25T16:24:01.413Z</time></trkpt><trkpt lat="31.634305" lon="-8.244705"><ele>382.5</ele><time>2026-04-25T16:24:02.413Z</time></trkpt><trkpt lat="31.63431" lon="-8.2448133"><ele>383.0</ele><time>2026-04-25T16:24:03.413Z</time></trkpt><trkpt lat="31.6343183" lon="-8.24492"><ele>383.4</ele><time>2026-04-25T16:24:04.413Z</time></trkpt><trkpt lat="31.634325" lon="-8.2450283"><ele>383.79999999999995</ele><time>2026-04-25T16:24:05.413Z</time></trkpt><trkpt lat="31.6343317" lon="-8.24514"><ele>384.2</ele><time>2026-04-25T16:24:06.413Z</time></trkpt><trkpt lat="31.634335" lon="-8.24526"><ele>384.6</ele><time>2026-04-25T16:24:07.413Z</time></trkpt><trkpt lat="31.6343383" lon="-8.2453783"><ele>385.0</ele><time>2026-04-25T16:24:08.412Z</time></trkpt><trkpt lat="31.63435" lon="-8.2455017"><ele>385.0</ele><time>2026-04-25T16:24:09.412Z</time></trkpt><trkpt lat="31.6343583" lon="-8.245615"><ele>385.0</ele><time>2026-04-25T16:24:10.412Z</time></trkpt><trkpt lat="31.63436" lon="-8.2457233"><ele>385.0</ele><time>2026-04-25T16:24:11.412Z</time></trkpt><trkpt lat="31.63436" lon="-8.2458267"><ele>385.0</ele><time>2026-04-25T16:24:12.413Z</time></trkpt><trkpt lat="31.6343667" lon="-8.2459333"><ele>385.0</ele><time>2026-04-25T16:24:13.412Z</time></trkpt><trkpt lat="31.6343733" lon="-8.2460483"><ele>385.0</ele><time>2026-04-25T16:24:14.412Z</time></trkpt><trkpt lat="31.6343783" lon="-8.2461617"><ele>385.0</ele><time>2026-04-25T16:24:15.412Z</time></trkpt><trkpt lat="31.634385" lon="-8.2462683"><ele>385.0</ele><time>2026-04-25T16:24:16.412Z</time></trkpt><trkpt lat="31.63439" lon="-8.2463733"><ele>385.0</ele><time>2026-04-25T16:24:17.412Z</time></trkpt><trkpt lat="31.6343967" lon="-8.2464817"><ele>385.0</ele><time>2026-04-25T16:24:18.412Z</time></trkpt><trkpt lat="31.6343967" lon="-8.2465917"><ele>385.00000000000006</ele><time>2026-04-25T16:24:19.412Z</time></trkpt><trkpt lat="31.6343967" lon="-8.2466967"><ele>385.0</ele><time>2026-04-25T16:24:20.412Z</time></trkpt><trkpt lat="31.6344" lon="-8.246805"><ele>385.0</ele><time>2026-04-25T16:24:21.412Z</time></trkpt><trkpt lat="31.6344017" lon="-8.24691"><ele>385.0</ele><time>2026-04-25T16:24:22.412Z</time></trkpt><trkpt lat="31.6344" lon="-8.2470167"><ele>385.00000000000006</ele><time>2026-04-25T16:24:23.412Z</time></trkpt><trkpt lat="31.6344067" lon="-8.247105"><ele>385.0</ele><time>2026-04-25T16:24:24.412Z</time></trkpt><trkpt lat="31.6344167" lon="-8.2472367"><ele>384.83333333333337</ele><time>2026-04-25T16:24:26.412Z</time></trkpt><trkpt lat="31.63442" lon="-8.2473367"><ele>384.6666666666667</ele><time>2026-04-25T16:24:28.413Z</time></trkpt><trkpt lat="31.6344183" lon="-8.24742"><ele>384.5</ele><time>2026-04-25T16:24:30.412Z</time></trkpt><trkpt lat="31.6344217" lon="-8.2475683"><ele>384.33333333333337</ele><time>2026-04-25T16:24:32.412Z</time></trkpt><trkpt lat="31.6344283" lon="-8.247665"><ele>384.1666666666667</ele><time>2026-04-25T16:24:33.412Z</time></trkpt><trkpt lat="31.6344383" lon="-8.2477617"><ele>384.0</ele><time>2026-04-25T16:24:34.412Z</time></trkpt><trkpt lat="31.634445" lon="-8.2478567"><ele>384.0</ele><time>2026-04-25T16:24:35.412Z</time></trkpt><trkpt lat="31.6344533" lon="-8.2479533"><ele>384.0</ele><time>2026-04-25T16:24:36.413Z</time></trkpt><trkpt lat="31.6344517" lon="-8.2480483"><ele>384.0</ele><time>2026-04-25T16:24:37.412Z</time></trkpt><trkpt lat="31.6344467" lon="-8.2481483"><ele>384.0</ele><time>2026-04-25T16:24:38.412Z</time></trkpt><trkpt lat="31.6344367" lon="-8.2482533"><ele>384.0</ele><time>2026-04-25T16:24:39.412Z</time></trkpt><trkpt lat="31.634435" lon="-8.2483667"><ele>384.0</ele><time>2026-04-25T16:24:40.412Z</time></trkpt><trkpt lat="31.6344367" lon="-8.2484633"><ele>383.8333333333333</ele><time>2026-04-25T16:24:41.412Z</time></trkpt><trkpt lat="31.63443" lon="-8.2485383"><ele>383.6666666666667</ele><time>2026-04-25T16:24:42.412Z</time></trkpt><trkpt lat="31.6344183" lon="-8.24868"><ele>383.5</ele><time>2026-04-25T16:24:44.412Z</time></trkpt><trkpt lat="31.63441" lon="-8.24876"><ele>383.33333333333337</ele><time>2026-04-25T16:24:45.412Z</time></trkpt><trkpt lat="31.6344033" lon="-8.2488483"><ele>383.1666666666667</ele><time>2026-04-25T16:24:46.412Z</time></trkpt><trkpt lat="31.634385" lon="-8.2489367"><ele>383.0</ele><time>2026-04-25T16:24:47.412Z</time></trkpt><trkpt lat="31.6343683" lon="-8.2490333"><ele>382.75</ele><time>2026-04-25T16:24:48.412Z</time></trkpt><trkpt lat="31.634345" lon="-8.2491467"><ele>382.5</ele><time>2026-04-25T16:24:49.412Z</time></trkpt><trkpt lat="31.6343167" lon="-8.2492733"><ele>382.25</ele><time>2026-04-25T16:24:50.412Z</time></trkpt><trkpt lat="31.634285" lon="-8.2494067"><ele>382.0</ele><time>2026-04-25T16:24:51.413Z</time></trkpt><trkpt lat="31.6342517" lon="-8.2495433"><ele>382.0</ele><time>2026-04-25T16:24:52.412Z</time></trkpt><trkpt lat="31.6342133" lon="-8.24967"><ele>382.0</ele><time>2026-04-25T16:24:53.412Z</time></trkpt><trkpt lat="31.6341783" lon="-8.2497967"><ele>382.0</ele><time>2026-04-25T16:24:54.412Z</time></trkpt><trkpt lat="31.634135" lon="-8.2499167"><ele>382.0</ele><time>2026-04-25T16:24:55.412Z</time></trkpt><trkpt lat="31.6340883" lon="-8.25004"><ele>381.75</ele><time>2026-04-25T16:24:56.412Z</time></trkpt><trkpt lat="31.6340383" lon="-8.2501683"><ele>381.5</ele><time>2026-04-25T16:24:57.412Z</time></trkpt><trkpt lat="31.6339767" lon="-8.2502917"><ele>381.25</ele><time>2026-04-25T16:24:58.412Z</time></trkpt><trkpt lat="31.6339117" lon="-8.2504067"><ele>381.0</ele><time>2026-04-25T16:24:59.412Z</time></trkpt><trkpt lat="31.6338433" lon="-8.2505183"><ele>380.5</ele><time>2026-04-25T16:25:00.412Z</time></trkpt><trkpt lat="31.63377" lon="-8.250635"><ele>380.0</ele><time>2026-04-25T16:25:01.412Z</time></trkpt><trkpt lat="31.6336917" lon="-8.2507467"><ele>379.5</ele><time>2026-04-25T16:25:02.412Z</time></trkpt><trkpt lat="31.6336083" lon="-8.2508667"><ele>379.0</ele><time>2026-04-25T16:25:03.412Z</time></trkpt><trkpt lat="31.6335133" lon="-8.2509983"><ele>378.75</ele><time>2026-04-25T16:25:04.412Z</time></trkpt><trkpt lat="31.6334217" lon="-8.2511233"><ele>378.5</ele><time>2026-04-25T16:25:05.412Z</time></trkpt><trkpt lat="31.6333317" lon="-8.25125"><ele>378.25</ele><time>2026-04-25T16:25:06.412Z</time></trkpt><trkpt lat="31.6332383" lon="-8.2513733"><ele>378.0</ele><time>2026-04-25T16:25:07.412Z</time></trkpt><trkpt lat="31.633145" lon="-8.2514983"><ele>377.0</ele><time>2026-04-25T16:25:08.412Z</time></trkpt><trkpt lat="31.63305" lon="-8.2516267"><ele>376.0</ele><time>2026-04-25T16:25:09.412Z</time></trkpt><trkpt lat="31.6329567" lon="-8.2517517"><ele>375.0</ele><time>2026-04-25T16:25:10.412Z</time></trkpt><trkpt lat="31.632865" lon="-8.2518767"><ele>374.0</ele><time>2026-04-25T16:25:11.412Z</time></trkpt><trkpt lat="31.632775" lon="-8.2520033"><ele>374.0</ele><time>2026-04-25T16:25:12.412Z</time></trkpt><trkpt lat="31.6326817" lon="-8.2521333"><ele>374.0</ele><time>2026-04-25T16:25:13.412Z</time></trkpt><trkpt lat="31.632585" lon="-8.25227"><ele>374.0</ele><time>2026-04-25T16:25:14.412Z</time></trkpt><trkpt lat="31.6324817" lon="-8.2524167"><ele>374.0</ele><time>2026-04-25T16:25:15.412Z</time></trkpt><trkpt lat="31.632375" lon="-8.2525617"><ele>374.0</ele><time>2026-04-25T16:25:16.412Z</time></trkpt><trkpt lat="31.6322667" lon="-8.252715"><ele>374.0</ele><time>2026-04-25T16:25:17.412Z</time></trkpt><trkpt lat="31.6321533" lon="-8.2528683"><ele>374.0</ele><time>2026-04-25T16:25:18.412Z</time></trkpt><trkpt lat="31.6320367" lon="-8.25302"><ele>374.0</ele><time>2026-04-25T16:25:19.412Z</time></trkpt><trkpt lat="31.6319333" lon="-8.25316"><ele>374.0</ele><time>2026-04-25T16:25:20.412Z</time></trkpt><trkpt lat="31.63184" lon="-8.253305"><ele>375.0</ele><time>2026-04-25T16:25:21.412Z</time></trkpt><trkpt lat="31.6317517" lon="-8.2534433"><ele>376.0</ele><time>2026-04-25T16:25:22.412Z</time></trkpt><trkpt lat="31.631665" lon="-8.2535933"><ele>377.0</ele><time>2026-04-25T16:25:23.412Z</time></trkpt><trkpt lat="31.63159" lon="-8.2537433"><ele>377.0</ele><time>2026-04-25T16:25:24.412Z</time></trkpt><trkpt lat="31.6315217" lon="-8.253885"><ele>377.0</ele><time>2026-04-25T16:25:25.413Z</time></trkpt><trkpt lat="31.6314667" lon="-8.2540217"><ele>377.0</ele><time>2026-04-25T16:25:26.412Z</time></trkpt><trkpt lat="31.6314217" lon="-8.2541467"><ele>377.0</ele><time>2026-04-25T16:25:27.412Z</time></trkpt><trkpt lat="31.6313817" lon="-8.2542633"><ele>377.1666666666667</ele><time>2026-04-25T16:25:28.412Z</time></trkpt><trkpt lat="31.6313433" lon="-8.2543633"><ele>377.33333333333337</ele><time>2026-04-25T16:25:29.412Z</time></trkpt><trkpt lat="31.63131" lon="-8.2544483"><ele>377.5</ele><time>2026-04-25T16:25:30.412Z</time></trkpt><trkpt lat="31.631285" lon="-8.2545333"><ele>377.6666666666667</ele><time>2026-04-25T16:25:31.412Z</time></trkpt><trkpt lat="31.6312633" lon="-8.2546167"><ele>377.8333333333333</ele><time>2026-04-25T16:25:32.412Z</time></trkpt><trkpt lat="31.6312383" lon="-8.2547067"><ele>378.0</ele><time>2026-04-25T16:25:33.412Z</time></trkpt><trkpt lat="31.6312167" lon="-8.2547967"><ele>378.0</ele><time>2026-04-25T16:25:34.412Z</time></trkpt><trkpt lat="31.631195" lon="-8.2548933"><ele>378.0</ele><time>2026-04-25T16:25:35.412Z</time></trkpt><trkpt lat="31.6311717" lon="-8.2549883"><ele>378.0</ele><time>2026-04-25T16:25:36.412Z</time></trkpt><trkpt lat="31.63115" lon="-8.2550917"><ele>378.0</ele><time>2026-04-25T16:25:37.412Z</time></trkpt><trkpt lat="31.6311267" lon="-8.2552"><ele>378.0</ele><time>2026-04-25T16:25:38.413Z</time></trkpt><trkpt lat="31.6311" lon="-8.255315"><ele>378.75</ele><time>2026-04-25T16:25:39.412Z</time></trkpt><trkpt lat="31.6310667" lon="-8.255435"><ele>379.5</ele><time>2026-04-25T16:25:40.412Z</time></trkpt><trkpt lat="31.6310317" lon="-8.255565"><ele>380.25</ele><time>2026-04-25T16:25:41.412Z</time></trkpt><trkpt lat="31.630995" lon="-8.2556983"><ele>381.0</ele><time>2026-04-25T16:25:42.412Z</time></trkpt><trkpt lat="31.6309633" lon="-8.2558317"><ele>381.0</ele><time>2026-04-25T16:25:43.412Z</time></trkpt><trkpt lat="31.6309317" lon="-8.2559733"><ele>381.0</ele><time>2026-04-25T16:25:44.412Z</time></trkpt><trkpt lat="31.6309" lon="-8.256125"><ele>381.0</ele><time>2026-04-25T16:25:45.412Z</time></trkpt><trkpt lat="31.63087" lon="-8.25628"><ele>381.0</ele><time>2026-04-25T16:25:46.412Z</time></trkpt><trkpt lat="31.6308417" lon="-8.256445"><ele>380.5</ele><time>2026-04-25T16:25:47.412Z</time></trkpt><trkpt lat="31.630805" lon="-8.2566083"><ele>380.0</ele><time>2026-04-25T16:25:48.412Z</time></trkpt><trkpt lat="31.6307733" lon="-8.2567667"><ele>379.5</ele><time>2026-04-25T16:25:49.412Z</time></trkpt><trkpt lat="31.6307333" lon="-8.2569167"><ele>379.0</ele><time>2026-04-25T16:25:50.412Z</time></trkpt><trkpt lat="31.6307017" lon="-8.2570583"><ele>379.0</ele><time>2026-04-25T16:25:51.413Z</time></trkpt><trkpt lat="31.6306717" lon="-8.257195"><ele>379.0</ele><time>2026-04-25T16:25:52.412Z</time></trkpt><trkpt lat="31.630645" lon="-8.25733"><ele>379.0</ele><time>2026-04-25T16:25:53.412Z</time></trkpt><trkpt lat="31.6306117" lon="-8.2574683"><ele>379.0</ele><time>2026-04-25T16:25:54.413Z</time></trkpt><trkpt lat="31.6305833" lon="-8.2576167"><ele>379.0</ele><time>2026-04-25T16:25:55.412Z</time></trkpt><trkpt lat="31.6305567" lon="-8.2577733"><ele>379.0</ele><time>2026-04-25T16:25:56.412Z</time></trkpt><trkpt lat="31.63052" lon="-8.2579317"><ele>379.0</ele><time>2026-04-25T16:25:57.412Z</time></trkpt><trkpt lat="31.6304783" lon="-8.2581033"><ele>379.0</ele><time>2026-04-25T16:25:58.412Z</time></trkpt><trkpt lat="31.6304317" lon="-8.2582867"><ele>379.3333333333333</ele><time>2026-04-25T16:25:59.412Z</time></trkpt><trkpt lat="31.6303917" lon="-8.258475"><ele>379.6666666666667</ele><time>2026-04-25T16:26:00.412Z</time></trkpt><trkpt lat="31.6303483" lon="-8.2586733"><ele>380.0</ele><time>2026-04-25T16:26:01.412Z</time></trkpt><trkpt lat="31.6302983" lon="-8.258875"><ele>380.6666666666667</ele><time>2026-04-25T16:26:02.412Z</time></trkpt><trkpt lat="31.6302517" lon="-8.25906"><ele>381.3333333333333</ele><time>2026-04-25T16:26:03.412Z</time></trkpt><trkpt lat="31.6302067" lon="-8.25924"><ele>382.0</ele><time>2026-04-25T16:26:04.412Z</time></trkpt><trkpt lat="31.63017" lon="-8.259415"><ele>382.0</ele><time>2026-04-25T16:26:05.412Z</time></trkpt><trkpt lat="31.6301383" lon="-8.2595817"><ele>382.0</ele><time>2026-04-25T16:26:06.412Z</time></trkpt><trkpt lat="31.6301" lon="-8.259745"><ele>382.0</ele><time>2026-04-25T16:26:07.412Z</time></trkpt><trkpt lat="31.63006" lon="-8.2599117"><ele>382.0</ele><time>2026-04-25T16:26:08.412Z</time></trkpt><trkpt lat="31.6300217" lon="-8.2600783"><ele>381.3333333333333</ele><time>2026-04-25T16:26:09.412Z</time></trkpt><trkpt lat="31.6299833" lon="-8.2602483"><ele>380.6666666666667</ele><time>2026-04-25T16:26:10.412Z</time></trkpt><trkpt lat="31.6299483" lon="-8.26042"><ele>380.0</ele><time>2026-04-25T16:26:11.413Z</time></trkpt><trkpt lat="31.6299033" lon="-8.2605983"><ele>379.6666666666667</ele><time>2026-04-25T16:26:12.412Z</time></trkpt><trkpt lat="31.6298617" lon="-8.260775"><ele>379.3333333333333</ele><time>2026-04-25T16:26:13.412Z</time></trkpt><trkpt lat="31.62982" lon="-8.26095"><ele>379.0</ele><time>2026-04-25T16:26:14.412Z</time></trkpt><trkpt lat="31.629785" lon="-8.26113"><ele>379.0</ele><time>2026-04-25T16:26:15.412Z</time></trkpt><trkpt lat="31.6297517" lon="-8.261315"><ele>379.0</ele><time>2026-04-25T16:26:16.412Z</time></trkpt><trkpt lat="31.6297133" lon="-8.2614983"><ele>379.0</ele><time>2026-04-25T16:26:17.412Z</time></trkpt><trkpt lat="31.6296717" lon="-8.2616833"><ele>379.0</ele><time>2026-04-25T16:26:18.412Z</time></trkpt><trkpt lat="31.6296383" lon="-8.2618683"><ele>379.0</ele><time>2026-04-25T16:26:19.412Z</time></trkpt><trkpt lat="31.6295967" lon="-8.2620617"><ele>379.0</ele><time>2026-04-25T16:26:20.412Z</time></trkpt><trkpt lat="31.6295483" lon="-8.2622617"><ele>379.0</ele><time>2026-04-25T16:26:21.412Z</time></trkpt><trkpt lat="31.6295" lon="-8.262455"><ele>379.0</ele><time>2026-04-25T16:26:22.412Z</time></trkpt><trkpt lat="31.6294617" lon="-8.2626417"><ele>379.0</ele><time>2026-04-25T16:26:23.412Z</time></trkpt><trkpt lat="31.6294183" lon="-8.2628267"><ele>379.0</ele><time>2026-04-25T16:26:24.413Z</time></trkpt><trkpt lat="31.629375" lon="-8.2630083"><ele>379.0</ele><time>2026-04-25T16:26:25.412Z</time></trkpt><trkpt lat="31.6293317" lon="-8.263195"><ele>379.0</ele><time>2026-04-25T16:26:26.412Z</time></trkpt><trkpt lat="31.6292883" lon="-8.263385"><ele>379.0</ele><time>2026-04-25T16:26:27.412Z</time></trkpt><trkpt lat="31.62925" lon="-8.2635733"><ele>379.0</ele><time>2026-04-25T16:26:28.412Z</time></trkpt><trkpt lat="31.6292067" lon="-8.2637517"><ele>379.0</ele><time>2026-04-25T16:26:29.412Z</time></trkpt><trkpt lat="31.6291667" lon="-8.263925"><ele>379.0</ele><time>2026-04-25T16:26:30.412Z</time></trkpt><trkpt lat="31.6291333" lon="-8.2640917"><ele>379.0</ele><time>2026-04-25T16:26:31.412Z</time></trkpt><trkpt lat="31.629095" lon="-8.2642533"><ele>379.0</ele><time>2026-04-25T16:26:32.412Z</time></trkpt><trkpt lat="31.6290633" lon="-8.2644133"><ele>379.0</ele><time>2026-04-25T16:26:33.412Z</time></trkpt><trkpt lat="31.62903" lon="-8.2645717"><ele>379.0</ele><time>2026-04-25T16:26:34.412Z</time></trkpt><trkpt lat="31.6289967" lon="-8.2647267"><ele>379.0</ele><time>2026-04-25T16:26:35.412Z</time></trkpt><trkpt lat="31.62896" lon="-8.2648867"><ele>379.0</ele><time>2026-04-25T16:26:36.412Z</time></trkpt><trkpt lat="31.6289267" lon="-8.26505"><ele>379.0</ele><time>2026-04-25T16:26:37.413Z</time></trkpt><trkpt lat="31.6288867" lon="-8.265215"><ele>379.0</ele><time>2026-04-25T16:26:38.412Z</time></trkpt><trkpt lat="31.6288483" lon="-8.2653783"><ele>379.0</ele><time>2026-04-25T16:26:39.412Z</time></trkpt><trkpt lat="31.62881" lon="-8.2655517"><ele>379.0</ele><time>2026-04-25T16:26:40.413Z</time></trkpt><trkpt lat="31.6287717" lon="-8.2657267"><ele>378.3333333333333</ele><time>2026-04-25T16:26:41.412Z</time></trkpt><trkpt lat="31.6287367" lon="-8.2659067"><ele>377.6666666666667</ele><time>2026-04-25T16:26:42.412Z</time></trkpt><trkpt lat="31.6286967" lon="-8.2660883"><ele>377.0</ele><time>2026-04-25T16:26:43.412Z</time></trkpt><trkpt lat="31.6286567" lon="-8.2662767"><ele>377.33333333333337</ele><time>2026-04-25T16:26:44.412Z</time></trkpt><trkpt lat="31.6286167" lon="-8.2664633"><ele>377.6666666666667</ele><time>2026-04-25T16:26:45.412Z</time></trkpt><trkpt lat="31.628575" lon="-8.2666583"><ele>378.0</ele><time>2026-04-25T16:26:46.412Z</time></trkpt><trkpt lat="31.62853" lon="-8.26685"><ele>378.0</ele><time>2026-04-25T16:26:47.412Z</time></trkpt><trkpt lat="31.6284883" lon="-8.2670383"><ele>378.0</ele><time>2026-04-25T16:26:48.412Z</time></trkpt><trkpt lat="31.6284467" lon="-8.26723"><ele>378.0</ele><time>2026-04-25T16:26:49.413Z</time></trkpt><trkpt lat="31.6284083" lon="-8.2674067"><ele>378.0</ele><time>2026-04-25T16:26:50.412Z</time></trkpt><trkpt lat="31.6283667" lon="-8.2675783"><ele>378.0</ele><time>2026-04-25T16:26:51.412Z</time></trkpt><trkpt lat="31.6283267" lon="-8.2677417"><ele>378.0</ele><time>2026-04-25T16:26:52.412Z</time></trkpt><trkpt lat="31.6282933" lon="-8.267895"><ele>378.0</ele><time>2026-04-25T16:26:53.412Z</time></trkpt><trkpt lat="31.6282583" lon="-8.2680467"><ele>378.0</ele><time>2026-04-25T16:26:54.412Z</time></trkpt><trkpt lat="31.6282233" lon="-8.2681983"><ele>378.0</ele><time>2026-04-25T16:26:55.412Z</time></trkpt><trkpt lat="31.6281933" lon="-8.2683467"><ele>378.0</ele><time>2026-04-25T16:26:56.412Z</time></trkpt><trkpt lat="31.6281567" lon="-8.2685067"><ele>378.0</ele><time>2026-04-25T16:26:57.412Z</time></trkpt><trkpt lat="31.628115" lon="-8.268665"><ele>378.0</ele><time>2026-04-25T16:26:58.412Z</time></trkpt><trkpt lat="31.6280733" lon="-8.2688233"><ele>378.0</ele><time>2026-04-25T16:26:59.412Z</time></trkpt><trkpt lat="31.628035" lon="-8.2689833"><ele>378.0</ele><time>2026-04-25T16:27:00.412Z</time></trkpt><trkpt lat="31.6279933" lon="-8.2691517"><ele>378.0</ele><time>2026-04-25T16:27:01.412Z</time></trkpt><trkpt lat="31.6279517" lon="-8.2693267"><ele>378.0</ele><time>2026-04-25T16:27:02.412Z</time></trkpt><trkpt lat="31.6279" lon="-8.2695183"><ele>378.0</ele><time>2026-04-25T16:27:03.412Z</time></trkpt><trkpt lat="31.6278517" lon="-8.26973"><ele>378.0</ele><time>2026-04-25T16:27:04.412Z</time></trkpt><trkpt lat="31.6277983" lon="-8.2699633"><ele>378.0</ele><time>2026-04-25T16:27:05.412Z</time></trkpt><trkpt lat="31.627745" lon="-8.2702083"><ele>378.0</ele><time>2026-04-25T16:27:06.412Z</time></trkpt><trkpt lat="31.6276933" lon="-8.27046"><ele>378.0</ele><time>2026-04-25T16:27:07.412Z</time></trkpt><trkpt lat="31.62765" lon="-8.2706917"><ele>378.0</ele><time>2026-04-25T16:27:08.412Z</time></trkpt><trkpt lat="31.6275983" lon="-8.2709217"><ele>378.0</ele><time>2026-04-25T16:27:09.412Z</time></trkpt><trkpt lat="31.6275483" lon="-8.27115"><ele>378.0</ele><time>2026-04-25T16:27:10.412Z</time></trkpt><trkpt lat="31.627495" lon="-8.2713933"><ele>378.0</ele><time>2026-04-25T16:27:11.412Z</time></trkpt><trkpt lat="31.6274433" lon="-8.2716367"><ele>378.0</ele><time>2026-04-25T16:27:12.412Z</time></trkpt><trkpt lat="31.6273917" lon="-8.27188"><ele>378.0</ele><time>2026-04-25T16:27:13.412Z</time></trkpt><trkpt lat="31.6273383" lon="-8.272125"><ele>378.6666666666667</ele><time>2026-04-25T16:27:14.412Z</time></trkpt><trkpt lat="31.6272817" lon="-8.2723733"><ele>379.33333333333337</ele><time>2026-04-25T16:27:15.413Z</time></trkpt><trkpt lat="31.6272283" lon="-8.27262"><ele>380.0</ele><time>2026-04-25T16:27:16.412Z</time></trkpt><trkpt lat="31.6271733" lon="-8.27287"><ele>379.33333333333337</ele><time>2026-04-25T16:27:17.413Z</time></trkpt><trkpt lat="31.6271217" lon="-8.2731167"><ele>378.6666666666667</ele><time>2026-04-25T16:27:18.412Z</time></trkpt><trkpt lat="31.6270683" lon="-8.27337"><ele>378.0</ele><time>2026-04-25T16:27:19.412Z</time></trkpt><trkpt lat="31.6270133" lon="-8.27362"><ele>377.6666666666667</ele><time>2026-04-25T16:27:20.413Z</time></trkpt><trkpt lat="31.6269567" lon="-8.2738717"><ele>377.33333333333337</ele><time>2026-04-25T16:27:21.412Z</time></trkpt><trkpt lat="31.6268983" lon="-8.274125"><ele>377.0</ele><time>2026-04-25T16:27:22.412Z</time></trkpt><trkpt lat="31.62684" lon="-8.27438"><ele>377.0</ele><time>2026-04-25T16:27:23.412Z</time></trkpt><trkpt lat="31.626785" lon="-8.274635"><ele>377.0</ele><time>2026-04-25T16:27:24.412Z</time></trkpt><trkpt lat="31.6267283" lon="-8.2748967"><ele>378.0</ele><time>2026-04-25T16:27:25.412Z</time></trkpt><trkpt lat="31.6266683" lon="-8.2751533"><ele>379.0</ele><time>2026-04-25T16:27:26.412Z</time></trkpt><trkpt lat="31.6266067" lon="-8.275405"><ele>378.5</ele><time>2026-04-25T16:27:27.412Z</time></trkpt><trkpt lat="31.6265483" lon="-8.2756617"><ele>378.0</ele><time>2026-04-25T16:27:28.412Z</time></trkpt><trkpt lat="31.62649" lon="-8.2759183"><ele>378.0</ele><time>2026-04-25T16:27:29.412Z</time></trkpt><trkpt lat="31.6264333" lon="-8.276175"><ele>378.0</ele><time>2026-04-25T16:27:30.412Z</time></trkpt><trkpt lat="31.626375" lon="-8.2764283"><ele>378.0</ele><time>2026-04-25T16:27:31.412Z</time></trkpt><trkpt lat="31.62632" lon="-8.2766717"><ele>377.6666666666667</ele><time>2026-04-25T16:27:32.412Z</time></trkpt><trkpt lat="31.6262683" lon="-8.2769083"><ele>377.33333333333337</ele><time>2026-04-25T16:27:33.412Z</time></trkpt><trkpt lat="31.6262117" lon="-8.27715"><ele>377.0</ele><time>2026-04-25T16:27:34.412Z</time></trkpt><trkpt lat="31.6261517" lon="-8.2774017"><ele>376.6666666666667</ele><time>2026-04-25T16:27:35.412Z</time></trkpt><trkpt lat="31.6260983" lon="-8.2776467"><ele>376.3333333333333</ele><time>2026-04-25T16:27:36.412Z</time></trkpt><trkpt lat="31.6260383" lon="-8.2779033"><ele>376.0</ele><time>2026-04-25T16:27:37.412Z</time></trkpt><trkpt lat="31.6259833" lon="-8.2781617"><ele>376.0</ele><time>2026-04-25T16:27:38.412Z</time></trkpt><trkpt lat="31.6259283" lon="-8.278425"><ele>376.0</ele><time>2026-04-25T16:27:39.412Z</time></trkpt><trkpt lat="31.6258783" lon="-8.2786933"><ele>377.0</ele><time>2026-04-25T16:27:40.412Z</time></trkpt><trkpt lat="31.6258217" lon="-8.2789583"><ele>378.0</ele><time>2026-04-25T16:27:41.412Z</time></trkpt><trkpt lat="31.6257567" lon="-8.2792217"><ele>378.0</ele><time>2026-04-25T16:27:42.412Z</time></trkpt><trkpt lat="31.6257017" lon="-8.27947"><ele>378.0</ele><time>2026-04-25T16:27:43.412Z</time></trkpt><trkpt lat="31.625645" lon="-8.2797117"><ele>378.0</ele><time>2026-04-25T16:27:44.412Z</time></trkpt><trkpt lat="31.6255983" lon="-8.27995"><ele>378.0</ele><time>2026-04-25T16:27:45.412Z</time></trkpt><trkpt lat="31.62554" lon="-8.2801983"><ele>378.0</ele><time>2026-04-25T16:27:46.412Z</time></trkpt><trkpt lat="31.6254783" lon="-8.2804533"><ele>378.0</ele><time>2026-04-25T16:27:47.413Z</time></trkpt><trkpt lat="31.6254167" lon="-8.2807083"><ele>377.3333333333333</ele><time>2026-04-25T16:27:48.412Z</time></trkpt><trkpt lat="31.6253617" lon="-8.2809633"><ele>376.66666666666663</ele><time>2026-04-25T16:27:49.412Z</time></trkpt><trkpt lat="31.6253017" lon="-8.2812183"><ele>376.0</ele><time>2026-04-25T16:27:50.412Z</time></trkpt><trkpt lat="31.625245" lon="-8.281465"><ele>375.3333333333333</ele><time>2026-04-25T16:27:51.412Z</time></trkpt><trkpt lat="31.6251983" lon="-8.2816983"><ele>374.6666666666667</ele><time>2026-04-25T16:27:52.412Z</time></trkpt><trkpt lat="31.6251467" lon="-8.28193"><ele>374.0</ele><time>2026-04-25T16:27:53.412Z</time></trkpt><trkpt lat="31.6250933" lon="-8.2821683"><ele>374.33333333333337</ele><time>2026-04-25T16:27:54.412Z</time></trkpt><trkpt lat="31.6250367" lon="-8.2824117"><ele>374.6666666666667</ele><time>2026-04-25T16:27:55.412Z</time></trkpt><trkpt lat="31.6249833" lon="-8.282655"><ele>375.0</ele><time>2026-04-25T16:27:56.412Z</time></trkpt><trkpt lat="31.6249333" lon="-8.2828883"><ele>375.6666666666667</ele><time>2026-04-25T16:27:57.412Z</time></trkpt><trkpt lat="31.6248783" lon="-8.2831217"><ele>376.33333333333337</ele><time>2026-04-25T16:27:58.412Z</time></trkpt><trkpt lat="31.6248267" lon="-8.2833517"><ele>377.0</ele><time>2026-04-25T16:27:59.412Z</time></trkpt><trkpt lat="31.6247733" lon="-8.2835867"><ele>377.0</ele><time>2026-04-25T16:28:00.412Z</time></trkpt><trkpt lat="31.6247233" lon="-8.283825"><ele>377.0</ele><time>2026-04-25T16:28:01.412Z</time></trkpt><trkpt lat="31.62467" lon="-8.2840517"><ele>377.0</ele><time>2026-04-25T16:28:02.412Z</time></trkpt><trkpt lat="31.62462" lon="-8.28427"><ele>377.0</ele><time>2026-04-25T16:28:03.412Z</time></trkpt><trkpt lat="31.624575" lon="-8.2844667"><ele>377.0</ele><time>2026-04-25T16:28:04.412Z</time></trkpt><trkpt lat="31.62453" lon="-8.2846533"><ele>377.0</ele><time>2026-04-25T16:28:05.412Z</time></trkpt><trkpt lat="31.6244917" lon="-8.28483"><ele>377.33333333333337</ele><time>2026-04-25T16:28:06.412Z</time></trkpt><trkpt lat="31.6244467" lon="-8.28501"><ele>377.6666666666667</ele><time>2026-04-25T16:28:07.412Z</time></trkpt><trkpt lat="31.6244067" lon="-8.2851933"><ele>378.0</ele><time>2026-04-25T16:28:08.412Z</time></trkpt><trkpt lat="31.6243717" lon="-8.2853867"><ele>378.0</ele><time>2026-04-25T16:28:09.412Z</time></trkpt><trkpt lat="31.6243317" lon="-8.28558"><ele>378.0</ele><time>2026-04-25T16:28:10.412Z</time></trkpt><trkpt lat="31.624285" lon="-8.2857783"><ele>378.0</ele><time>2026-04-25T16:28:11.412Z</time></trkpt><trkpt lat="31.624235" lon="-8.285985"><ele>378.3333333333333</ele><time>2026-04-25T16:28:12.412Z</time></trkpt><trkpt lat="31.6241883" lon="-8.28619"><ele>378.66666666666663</ele><time>2026-04-25T16:28:13.412Z</time></trkpt><trkpt lat="31.6241433" lon="-8.2863967"><ele>379.0</ele><time>2026-04-25T16:28:14.412Z</time></trkpt><trkpt lat="31.624095" lon="-8.28661"><ele>379.0</ele><time>2026-04-25T16:28:15.412Z</time></trkpt><trkpt lat="31.6240467" lon="-8.2868267"><ele>379.0</ele><time>2026-04-25T16:28:16.412Z</time></trkpt><trkpt lat="31.624005" lon="-8.2870467"><ele>379.0</ele><time>2026-04-25T16:28:17.412Z</time></trkpt><trkpt lat="31.6239583" lon="-8.2872633"><ele>378.3333333333333</ele><time>2026-04-25T16:28:18.412Z</time></trkpt><trkpt lat="31.62391" lon="-8.2874767"><ele>377.6666666666667</ele><time>2026-04-25T16:28:19.412Z</time></trkpt><trkpt lat="31.62386" lon="-8.2876933"><ele>377.0</ele><time>2026-04-25T16:28:20.412Z</time></trkpt><trkpt lat="31.62381" lon="-8.287915"><ele>377.33333333333337</ele><time>2026-04-25T16:28:21.412Z</time></trkpt><trkpt lat="31.6237633" lon="-8.288145"><ele>377.6666666666667</ele><time>2026-04-25T16:28:22.412Z</time></trkpt><trkpt lat="31.6237117" lon="-8.2883833"><ele>378.0</ele><time>2026-04-25T16:28:23.413Z</time></trkpt><trkpt lat="31.623655" lon="-8.28863"><ele>378.5</ele><time>2026-04-25T16:28:24.412Z</time></trkpt><trkpt lat="31.6235967" lon="-8.288885"><ele>379.0</ele><time>2026-04-25T16:28:25.412Z</time></trkpt><trkpt lat="31.6235333" lon="-8.2891467"><ele>379.0</ele><time>2026-04-25T16:28:26.412Z</time></trkpt><trkpt lat="31.6234683" lon="-8.289415"><ele>379.0</ele><time>2026-04-25T16:28:27.412Z</time></trkpt><trkpt lat="31.62341" lon="-8.28969"><ele>379.0</ele><time>2026-04-25T16:28:28.412Z</time></trkpt><trkpt lat="31.6233483" lon="-8.2899633"><ele>379.0</ele><time>2026-04-25T16:28:29.412Z</time></trkpt><trkpt lat="31.623285" lon="-8.29024"><ele>379.0</ele><time>2026-04-25T16:28:30.412Z</time></trkpt><trkpt lat="31.6232183" lon="-8.290525"><ele>379.0</ele><time>2026-04-25T16:28:31.412Z</time></trkpt><trkpt lat="31.62315" lon="-8.29081"><ele>379.0</ele><time>2026-04-25T16:28:32.412Z</time></trkpt><trkpt lat="31.623085" lon="-8.2910967"><ele>379.0</ele><time>2026-04-25T16:28:33.412Z</time></trkpt><trkpt lat="31.6230233" lon="-8.2913883"><ele>379.0</ele><time>2026-04-25T16:28:34.412Z</time></trkpt><trkpt lat="31.622955" lon="-8.2916717"><ele>379.0</ele><time>2026-04-25T16:28:35.412Z</time></trkpt><trkpt lat="31.622895" lon="-8.2919417"><ele>379.0</ele><time>2026-04-25T16:28:36.412Z</time></trkpt><trkpt lat="31.6228367" lon="-8.2922083"><ele>379.0</ele><time>2026-04-25T16:28:37.412Z</time></trkpt><trkpt lat="31.6227783" lon="-8.2924733"><ele>380.5</ele><time>2026-04-25T16:28:38.412Z</time></trkpt><trkpt lat="31.6227217" lon="-8.2927383"><ele>382.0</ele><time>2026-04-25T16:28:39.412Z</time></trkpt><trkpt lat="31.62266" lon="-8.293"><ele>381.5</ele><time>2026-04-25T16:28:40.412Z</time></trkpt><trkpt lat="31.6225983" lon="-8.29326"><ele>381.0</ele><time>2026-04-25T16:28:41.412Z</time></trkpt><trkpt lat="31.6225383" lon="-8.293525"><ele>381.0</ele><time>2026-04-25T16:28:42.412Z</time></trkpt><trkpt lat="31.6224833" lon="-8.2937917"><ele>381.0</ele><time>2026-04-25T16:28:43.412Z</time></trkpt><trkpt lat="31.6224333" lon="-8.2940633"><ele>380.5</ele><time>2026-04-25T16:28:44.413Z</time></trkpt><trkpt lat="31.6223817" lon="-8.2943267"><ele>380.0</ele><time>2026-04-25T16:28:45.412Z</time></trkpt><trkpt lat="31.6223283" lon="-8.2945817"><ele>379.6666666666667</ele><time>2026-04-25T16:28:46.412Z</time></trkpt><trkpt lat="31.6222733" lon="-8.2948283"><ele>379.3333333333333</ele><time>2026-04-25T16:28:47.412Z</time></trkpt><trkpt lat="31.622215" lon="-8.2950783"><ele>379.0</ele><time>2026-04-25T16:28:48.412Z</time></trkpt><trkpt lat="31.6221583" lon="-8.2953267"><ele>379.0</ele><time>2026-04-25T16:28:49.412Z</time></trkpt><trkpt lat="31.6221067" lon="-8.2955717"><ele>379.0</ele><time>2026-04-25T16:28:50.412Z</time></trkpt><trkpt lat="31.62205" lon="-8.29582"><ele>379.0</ele><time>2026-04-25T16:28:51.413Z</time></trkpt><trkpt lat="31.6219967" lon="-8.2960583"><ele>379.0</ele><time>2026-04-25T16:28:52.412Z</time></trkpt><trkpt lat="31.62194" lon="-8.296305"><ele>379.0</ele><time>2026-04-25T16:28:53.412Z</time></trkpt><trkpt lat="31.621885" lon="-8.29655"><ele>379.0</ele><time>2026-04-25T16:28:54.412Z</time></trkpt><trkpt lat="31.62184" lon="-8.2967817"><ele>379.0</ele><time>2026-04-25T16:28:55.412Z</time></trkpt><trkpt lat="31.6217883" lon="-8.297005"><ele>379.0</ele><time>2026-04-25T16:28:56.412Z</time></trkpt><trkpt lat="31.621745" lon="-8.297225"><ele>379.0</ele><time>2026-04-25T16:28:57.412Z</time></trkpt><trkpt lat="31.6216967" lon="-8.29743"><ele>379.0</ele><time>2026-04-25T16:28:58.413Z</time></trkpt><trkpt lat="31.6216433" lon="-8.2976383"><ele>379.0</ele><time>2026-04-25T16:28:59.412Z</time></trkpt><trkpt lat="31.6215983" lon="-8.2978383"><ele>379.0</ele><time>2026-04-25T16:29:00.412Z</time></trkpt><trkpt lat="31.6215517" lon="-8.2980367"><ele>379.0</ele><time>2026-04-25T16:29:01.412Z</time></trkpt><trkpt lat="31.6215067" lon="-8.298235"><ele>379.0</ele><time>2026-04-25T16:29:02.412Z</time></trkpt><trkpt lat="31.6214683" lon="-8.2984267"><ele>379.0</ele><time>2026-04-25T16:29:03.412Z</time></trkpt><trkpt lat="31.62143" lon="-8.2986217"><ele>379.0</ele><time>2026-04-25T16:29:04.412Z</time></trkpt><trkpt lat="31.6213917" lon="-8.2988167"><ele>379.0</ele><time>2026-04-25T16:29:05.412Z</time></trkpt><trkpt lat="31.6213483" lon="-8.299005"><ele>379.0</ele><time>2026-04-25T16:29:06.412Z</time></trkpt><trkpt lat="31.6213017" lon="-8.2991933"><ele>379.3333333333333</ele><time>2026-04-25T16:29:07.412Z</time></trkpt><trkpt lat="31.621255" lon="-8.2993883"><ele>379.6666666666667</ele><time>2026-04-25T16:29:08.412Z</time></trkpt><trkpt lat="31.621205" lon="-8.2995817"><ele>380.0</ele><time>2026-04-25T16:29:09.412Z</time></trkpt><trkpt lat="31.6211633" lon="-8.299785"><ele>380.33333333333337</ele><time>2026-04-25T16:29:10.412Z</time></trkpt><trkpt lat="31.62112" lon="-8.29998"><ele>380.6666666666667</ele><time>2026-04-25T16:29:11.412Z</time></trkpt><trkpt lat="31.6210767" lon="-8.3001883"><ele>381.0</ele><time>2026-04-25T16:29:12.412Z</time></trkpt><trkpt lat="31.6210267" lon="-8.3003983"><ele>381.0</ele><time>2026-04-25T16:29:13.412Z</time></trkpt><trkpt lat="31.6209767" lon="-8.300615"><ele>381.0</ele><time>2026-04-25T16:29:14.412Z</time></trkpt><trkpt lat="31.6209283" lon="-8.30083"><ele>381.0</ele><time>2026-04-25T16:29:15.412Z</time></trkpt><trkpt lat="31.6208767" lon="-8.3010467"><ele>381.0</ele><time>2026-04-25T16:29:16.412Z</time></trkpt><trkpt lat="31.6208267" lon="-8.3012567"><ele>381.0</ele><time>2026-04-25T16:29:17.412Z</time></trkpt><trkpt lat="31.6207733" lon="-8.3014833"><ele>381.0</ele><time>2026-04-25T16:29:18.412Z</time></trkpt><trkpt lat="31.6207133" lon="-8.30172"><ele>381.0</ele><time>2026-04-25T16:29:19.412Z</time></trkpt><trkpt lat="31.6206583" lon="-8.3019583"><ele>381.0</ele><time>2026-04-25T16:29:20.412Z</time></trkpt><trkpt lat="31.6206117" lon="-8.3021917"><ele>381.0</ele><time>2026-04-25T16:29:21.413Z</time></trkpt><trkpt lat="31.6205683" lon="-8.3024083"><ele>380.6666666666667</ele><time>2026-04-25T16:29:22.412Z</time></trkpt><trkpt lat="31.62052" lon="-8.3026217"><ele>380.33333333333337</ele><time>2026-04-25T16:29:23.412Z</time></trkpt><trkpt lat="31.6204733" lon="-8.3028367"><ele>380.0</ele><time>2026-04-25T16:29:24.412Z</time></trkpt><trkpt lat="31.6204233" lon="-8.3030483"><ele>380.6666666666667</ele><time>2026-04-25T16:29:25.412Z</time></trkpt><trkpt lat="31.620375" lon="-8.303265"><ele>381.3333333333333</ele><time>2026-04-25T16:29:26.412Z</time></trkpt><trkpt lat="31.6203283" lon="-8.30348"><ele>382.0</ele><time>2026-04-25T16:29:27.412Z</time></trkpt><trkpt lat="31.6202817" lon="-8.303695"><ele>381.66666666666663</ele><time>2026-04-25T16:29:28.412Z</time></trkpt><trkpt lat="31.6202333" lon="-8.303915"><ele>381.3333333333333</ele><time>2026-04-25T16:29:29.412Z</time></trkpt><trkpt lat="31.6201867" lon="-8.30413"><ele>381.0</ele><time>2026-04-25T16:29:30.412Z</time></trkpt><trkpt lat="31.6201383" lon="-8.3043517"><ele>381.0</ele><time>2026-04-25T16:29:31.412Z</time></trkpt><trkpt lat="31.620075" lon="-8.3046"><ele>381.0</ele><time>2026-04-25T16:29:32.412Z</time></trkpt><trkpt lat="31.6200033" lon="-8.3048817"><ele>381.5</ele><time>2026-04-25T16:29:33.412Z</time></trkpt><trkpt lat="31.6199367" lon="-8.305175"><ele>382.0</ele><time>2026-04-25T16:29:34.412Z</time></trkpt><trkpt lat="31.6198733" lon="-8.3054867"><ele>382.5</ele><time>2026-04-25T16:29:35.412Z</time></trkpt><trkpt lat="31.6198117" lon="-8.30581"><ele>383.0</ele><time>2026-04-25T16:29:36.412Z</time></trkpt><trkpt lat="31.6197467" lon="-8.30613"><ele>382.0</ele><time>2026-04-25T16:29:37.412Z</time></trkpt><trkpt lat="31.619675" lon="-8.306435"><ele>381.0</ele><time>2026-04-25T16:29:38.412Z</time></trkpt><trkpt lat="31.6196033" lon="-8.306735"><ele>381.0</ele><time>2026-04-25T16:29:39.412Z</time></trkpt><trkpt lat="31.6195333" lon="-8.3070417"><ele>381.0</ele><time>2026-04-25T16:29:40.412Z</time></trkpt><trkpt lat="31.6194617" lon="-8.3073617"><ele>382.5</ele><time>2026-04-25T16:29:41.412Z</time></trkpt><trkpt lat="31.6193967" lon="-8.3076833"><ele>384.0</ele><time>2026-04-25T16:29:42.412Z</time></trkpt><trkpt lat="31.6193333" lon="-8.30801"><ele>384.0</ele><time>2026-04-25T16:29:43.412Z</time></trkpt><trkpt lat="31.6192617" lon="-8.3083417"><ele>384.0</ele><time>2026-04-25T16:29:44.412Z</time></trkpt><trkpt lat="31.6191917" lon="-8.3086633"><ele>384.5</ele><time>2026-04-25T16:29:45.412Z</time></trkpt><trkpt lat="31.6191217" lon="-8.3089683"><ele>385.0</ele><time>2026-04-25T16:29:46.412Z</time></trkpt><trkpt lat="31.6190567" lon="-8.3092533"><ele>385.0</ele><time>2026-04-25T16:29:47.412Z</time></trkpt><trkpt lat="31.619" lon="-8.309515"><ele>385.0</ele><time>2026-04-25T16:29:48.412Z</time></trkpt><trkpt lat="31.618945" lon="-8.3097617"><ele>385.0</ele><time>2026-04-25T16:29:49.412Z</time></trkpt><trkpt lat="31.6188933" lon="-8.30999"><ele>385.0</ele><time>2026-04-25T16:29:50.412Z</time></trkpt><trkpt lat="31.618845" lon="-8.3102067"><ele>385.0</ele><time>2026-04-25T16:29:51.412Z</time></trkpt><trkpt lat="31.6188017" lon="-8.3104133"><ele>385.0</ele><time>2026-04-25T16:29:52.412Z</time></trkpt><trkpt lat="31.6187583" lon="-8.310605"><ele>385.33333333333337</ele><time>2026-04-25T16:29:53.412Z</time></trkpt><trkpt lat="31.6187167" lon="-8.3107867"><ele>385.66666666666663</ele><time>2026-04-25T16:29:54.412Z</time></trkpt><trkpt lat="31.6186783" lon="-8.3109667"><ele>386.0</ele><time>2026-04-25T16:29:55.412Z</time></trkpt><trkpt lat="31.6186417" lon="-8.3111333"><ele>386.0</ele><time>2026-04-25T16:29:56.412Z</time></trkpt><trkpt lat="31.6186067" lon="-8.3113067"><ele>386.0</ele><time>2026-04-25T16:29:57.412Z</time></trkpt><trkpt lat="31.618565" lon="-8.3114783"><ele>386.0</ele><time>2026-04-25T16:29:58.412Z</time></trkpt><trkpt lat="31.61852" lon="-8.3116567"><ele>386.0</ele><time>2026-04-25T16:29:59.412Z</time></trkpt><trkpt lat="31.6184833" lon="-8.311825"><ele>386.0</ele><time>2026-04-25T16:30:00.412Z</time></trkpt><trkpt lat="31.6184517" lon="-8.311985"><ele>386.0</ele><time>2026-04-25T16:30:01.412Z</time></trkpt><trkpt lat="31.6184133" lon="-8.3121467"><ele>386.0</ele><time>2026-04-25T16:30:02.412Z</time></trkpt><trkpt lat="31.6183783" lon="-8.31231"><ele>385.66666666666663</ele><time>2026-04-25T16:30:03.412Z</time></trkpt><trkpt lat="31.6183383" lon="-8.3124817"><ele>385.33333333333337</ele><time>2026-04-25T16:30:04.412Z</time></trkpt><trkpt lat="31.618295" lon="-8.3126617"><ele>385.0</ele><time>2026-04-25T16:30:05.412Z</time></trkpt><trkpt lat="31.6182467" lon="-8.312865"><ele>385.0</ele><time>2026-04-25T16:30:06.412Z</time></trkpt><trkpt lat="31.618195" lon="-8.313105"><ele>385.0</ele><time>2026-04-25T16:30:07.412Z</time></trkpt><trkpt lat="31.6181383" lon="-8.3133733"><ele>385.0</ele><time>2026-04-25T16:30:08.412Z</time></trkpt><trkpt lat="31.61809" lon="-8.3136617"><ele>383.5</ele><time>2026-04-25T16:30:09.412Z</time></trkpt><trkpt lat="31.61802" lon="-8.3139683"><ele>382.0</ele><time>2026-04-25T16:30:10.412Z</time></trkpt><trkpt lat="31.6179483" lon="-8.31427"><ele>382.0</ele><time>2026-04-25T16:30:11.412Z</time></trkpt><trkpt lat="31.6178833" lon="-8.3145533"><ele>382.0</ele><time>2026-04-25T16:30:12.413Z</time></trkpt><trkpt lat="31.617825" lon="-8.3148233"><ele>382.66666666666663</ele><time>2026-04-25T16:30:13.412Z</time></trkpt><trkpt lat="31.6177717" lon="-8.3150783"><ele>383.3333333333333</ele><time>2026-04-25T16:30:14.412Z</time></trkpt><trkpt lat="31.6177133" lon="-8.3153267"><ele>384.0</ele><time>2026-04-25T16:30:15.412Z</time></trkpt><trkpt lat="31.6176617" lon="-8.3155733"><ele>384.0</ele><time>2026-04-25T16:30:16.412Z</time></trkpt><trkpt lat="31.6176017" lon="-8.31583"><ele>384.0</ele><time>2026-04-25T16:30:17.412Z</time></trkpt><trkpt lat="31.6175417" lon="-8.31609"><ele>384.0</ele><time>2026-04-25T16:30:18.412Z</time></trkpt><trkpt lat="31.6174817" lon="-8.3163583"><ele>384.0</ele><time>2026-04-25T16:30:19.412Z</time></trkpt><trkpt lat="31.6174233" lon="-8.316625"><ele>384.5</ele><time>2026-04-25T16:30:20.412Z</time></trkpt><trkpt lat="31.6173683" lon="-8.3169017"><ele>385.0</ele><time>2026-04-25T16:30:21.412Z</time></trkpt><trkpt lat="31.61731" lon="-8.3171733"><ele>385.0</ele><time>2026-04-25T16:30:22.412Z</time></trkpt><trkpt lat="31.6172583" lon="-8.31743"><ele>385.0</ele><time>2026-04-25T16:30:23.412Z</time></trkpt><trkpt lat="31.6172033" lon="-8.3176767"><ele>385.0</ele><time>2026-04-25T16:30:24.412Z</time></trkpt><trkpt lat="31.617145" lon="-8.317925"><ele>385.0</ele><time>2026-04-25T16:30:25.412Z</time></trkpt><trkpt lat="31.6170833" lon="-8.318175"><ele>385.0</ele><time>2026-04-25T16:30:26.412Z</time></trkpt><trkpt lat="31.61702" lon="-8.3184333"><ele>385.0</ele><time>2026-04-25T16:30:27.412Z</time></trkpt><trkpt lat="31.6169517" lon="-8.3187"><ele>385.0</ele><time>2026-04-25T16:30:28.412Z</time></trkpt><trkpt lat="31.61688" lon="-8.3189817"><ele>385.0</ele><time>2026-04-25T16:30:29.413Z</time></trkpt><trkpt lat="31.6168267" lon="-8.31927"><ele>385.0</ele><time>2026-04-25T16:30:30.412Z</time></trkpt><trkpt lat="31.61677" lon="-8.3195717"><ele>385.5</ele><time>2026-04-25T16:30:31.412Z</time></trkpt><trkpt lat="31.61671" lon="-8.3198767"><ele>386.0</ele><time>2026-04-25T16:30:32.412Z</time></trkpt><trkpt lat="31.6166417" lon="-8.3201733"><ele>386.0</ele><time>2026-04-25T16:30:33.412Z</time></trkpt><trkpt lat="31.616575" lon="-8.32046"><ele>386.0</ele><time>2026-04-25T16:30:34.412Z</time></trkpt><trkpt lat="31.6165083" lon="-8.320735"><ele>386.0</ele><time>2026-04-25T16:30:35.412Z</time></trkpt><trkpt lat="31.616445" lon="-8.321015"><ele>386.0</ele><time>2026-04-25T16:30:36.412Z</time></trkpt><trkpt lat="31.6163817" lon="-8.32129"><ele>385.5</ele><time>2026-04-25T16:30:37.412Z</time></trkpt><trkpt lat="31.6163217" lon="-8.3215633"><ele>385.0</ele><time>2026-04-25T16:30:38.412Z</time></trkpt><trkpt lat="31.6162617" lon="-8.3218383"><ele>385.0</ele><time>2026-04-25T16:30:39.412Z</time></trkpt><trkpt lat="31.616205" lon="-8.3221167"><ele>385.0</ele><time>2026-04-25T16:30:40.412Z</time></trkpt><trkpt lat="31.6161433" lon="-8.322395"><ele>385.5</ele><time>2026-04-25T16:30:41.412Z</time></trkpt><trkpt lat="31.6160867" lon="-8.3226683"><ele>386.0</ele><time>2026-04-25T16:30:42.412Z</time></trkpt><trkpt lat="31.616025" lon="-8.322935"><ele>386.0</ele><time>2026-04-25T16:30:43.412Z</time></trkpt><trkpt lat="31.6159617" lon="-8.3232033"><ele>386.0</ele><time>2026-04-25T16:30:44.412Z</time></trkpt><trkpt lat="31.6159033" lon="-8.3234717"><ele>386.0</ele><time>2026-04-25T16:30:45.412Z</time></trkpt><trkpt lat="31.6158417" lon="-8.3237417"><ele>386.0</ele><time>2026-04-25T16:30:46.412Z</time></trkpt><trkpt lat="31.6157833" lon="-8.32401"><ele>386.0</ele><time>2026-04-25T16:30:47.412Z</time></trkpt><trkpt lat="31.6157233" lon="-8.3242817"><ele>386.0</ele><time>2026-04-25T16:30:48.412Z</time></trkpt><trkpt lat="31.615665" lon="-8.3245533"><ele>386.0</ele><time>2026-04-25T16:30:49.412Z</time></trkpt><trkpt lat="31.615605" lon="-8.324825"><ele>386.0</ele><time>2026-04-25T16:30:50.412Z</time></trkpt><trkpt lat="31.615545" lon="-8.3251033"><ele>386.0</ele><time>2026-04-25T16:30:51.412Z</time></trkpt><trkpt lat="31.6154867" lon="-8.3253767"><ele>386.0</ele><time>2026-04-25T16:30:52.412Z</time></trkpt><trkpt lat="31.61543" lon="-8.3256533"><ele>385.5</ele><time>2026-04-25T16:30:53.412Z</time></trkpt><trkpt lat="31.6153717" lon="-8.3259333"><ele>385.0</ele><time>2026-04-25T16:30:54.412Z</time></trkpt><trkpt lat="31.61531" lon="-8.3262033"><ele>386.5</ele><time>2026-04-25T16:30:55.412Z</time></trkpt><trkpt lat="31.6152467" lon="-8.3264717"><ele>388.0</ele><time>2026-04-25T16:30:56.412Z</time></trkpt><trkpt lat="31.6151883" lon="-8.32674"><ele>388.0</ele><time>2026-04-25T16:30:57.412Z</time></trkpt><trkpt lat="31.6151283" lon="-8.3270083"><ele>388.0</ele><time>2026-04-25T16:30:58.412Z</time></trkpt><trkpt lat="31.61507" lon="-8.327275"><ele>388.5</ele><time>2026-04-25T16:30:59.412Z</time></trkpt><trkpt lat="31.6150117" lon="-8.32754"><ele>389.0</ele><time>2026-04-25T16:31:00.412Z</time></trkpt><trkpt lat="31.614955" lon="-8.3278067"><ele>390.0</ele><time>2026-04-25T16:31:01.412Z</time></trkpt><trkpt lat="31.6148967" lon="-8.3280767"><ele>391.0</ele><time>2026-04-25T16:31:02.412Z</time></trkpt><trkpt lat="31.614835" lon="-8.328345"><ele>391.0</ele><time>2026-04-25T16:31:03.412Z</time></trkpt><trkpt lat="31.6147717" lon="-8.3286117"><ele>391.0</ele><time>2026-04-25T16:31:04.412Z</time></trkpt><trkpt lat="31.61471" lon="-8.32888"><ele>391.0</ele><time>2026-04-25T16:31:05.412Z</time></trkpt><trkpt lat="31.6146483" lon="-8.3291517"><ele>391.0</ele><time>2026-04-25T16:31:06.412Z</time></trkpt><trkpt lat="31.6145867" lon="-8.329425"><ele>391.0</ele><time>2026-04-25T16:31:07.412Z</time></trkpt><trkpt lat="31.6145283" lon="-8.3297"><ele>391.0</ele><time>2026-04-25T16:31:08.412Z</time></trkpt><trkpt lat="31.6144633" lon="-8.3299767"><ele>390.0</ele><time>2026-04-25T16:31:09.412Z</time></trkpt><trkpt lat="31.6143967" lon="-8.3302617"><ele>389.0</ele><time>2026-04-25T16:31:10.412Z</time></trkpt><trkpt lat="31.614335" lon="-8.330545"><ele>390.5</ele><time>2026-04-25T16:31:11.412Z</time></trkpt><trkpt lat="31.614275" lon="-8.3308217"><ele>392.0</ele><time>2026-04-25T16:31:12.412Z</time></trkpt><trkpt lat="31.614215" lon="-8.3310983"><ele>392.0</ele><time>2026-04-25T16:31:13.412Z</time></trkpt><trkpt lat="31.61415" lon="-8.331375"><ele>392.0</ele><time>2026-04-25T16:31:14.412Z</time></trkpt><trkpt lat="31.6140933" lon="-8.3316517"><ele>391.5</ele><time>2026-04-25T16:31:15.412Z</time></trkpt><trkpt lat="31.614035" lon="-8.3319217"><ele>391.0</ele><time>2026-04-25T16:31:16.412Z</time></trkpt><trkpt lat="31.6139733" lon="-8.3321817"><ele>391.0</ele><time>2026-04-25T16:31:17.413Z</time></trkpt><trkpt lat="31.613915" lon="-8.3324417"><ele>391.0</ele><time>2026-04-25T16:31:18.412Z</time></trkpt><trkpt lat="31.61386" lon="-8.3326983"><ele>391.0</ele><time>2026-04-25T16:31:19.412Z</time></trkpt><trkpt lat="31.6138033" lon="-8.3329533"><ele>391.0</ele><time>2026-04-25T16:31:20.412Z</time></trkpt><trkpt lat="31.6137533" lon="-8.33321"><ele>391.0</ele><time>2026-04-25T16:31:21.411Z</time></trkpt><trkpt lat="31.6137" lon="-8.3334617"><ele>391.33333333333337</ele><time>2026-04-25T16:31:22.411Z</time></trkpt><trkpt lat="31.6136417" lon="-8.333715"><ele>391.66666666666663</ele><time>2026-04-25T16:31:23.411Z</time></trkpt><trkpt lat="31.613585" lon="-8.3339667"><ele>392.0</ele><time>2026-04-25T16:31:24.411Z</time></trkpt><trkpt lat="31.613525" lon="-8.3342233"><ele>392.0</ele><time>2026-04-25T16:31:25.411Z</time></trkpt><trkpt lat="31.6134633" lon="-8.33448"><ele>392.0</ele><time>2026-04-25T16:31:26.411Z</time></trkpt><trkpt lat="31.6134117" lon="-8.3347433"><ele>392.5</ele><time>2026-04-25T16:31:27.411Z</time></trkpt><trkpt lat="31.6133533" lon="-8.3350033"><ele>393.0</ele><time>2026-04-25T16:31:28.411Z</time></trkpt><trkpt lat="31.6132917" lon="-8.3352717"><ele>393.0</ele><time>2026-04-25T16:31:29.411Z</time></trkpt><trkpt lat="31.6132267" lon="-8.3355317"><ele>393.0</ele><time>2026-04-25T16:31:30.411Z</time></trkpt><trkpt lat="31.6131683" lon="-8.3357967"><ele>392.5</ele><time>2026-04-25T16:31:31.411Z</time></trkpt><trkpt lat="31.6131033" lon="-8.3360683"><ele>392.0</ele><time>2026-04-25T16:31:32.412Z</time></trkpt><trkpt lat="31.6130417" lon="-8.3363367"><ele>392.0</ele><time>2026-04-25T16:31:33.411Z</time></trkpt><trkpt lat="31.6129783" lon="-8.3366033"><ele>392.0</ele><time>2026-04-25T16:31:34.411Z</time></trkpt><trkpt lat="31.6129183" lon="-8.336875"><ele>392.0</ele><time>2026-04-25T16:31:35.411Z</time></trkpt><trkpt lat="31.6128533" lon="-8.337145"><ele>392.0</ele><time>2026-04-25T16:31:36.412Z</time></trkpt><trkpt lat="31.6127917" lon="-8.337415"><ele>394.0</ele><time>2026-04-25T16:31:37.411Z</time></trkpt><trkpt lat="31.612725" lon="-8.3376867"><ele>396.0</ele><time>2026-04-25T16:31:38.411Z</time></trkpt><trkpt lat="31.6126617" lon="-8.3379583"><ele>396.0</ele><time>2026-04-25T16:31:39.411Z</time></trkpt><trkpt lat="31.6125983" lon="-8.33823"><ele>396.0</ele><time>2026-04-25T16:31:40.411Z</time></trkpt><trkpt lat="31.61254" lon="-8.3385033"><ele>396.0</ele><time>2026-04-25T16:31:41.411Z</time></trkpt><trkpt lat="31.6124817" lon="-8.3387833"><ele>396.0</ele><time>2026-04-25T16:31:42.411Z</time></trkpt><trkpt lat="31.612425" lon="-8.3390617"><ele>395.0</ele><time>2026-04-25T16:31:43.411Z</time></trkpt><trkpt lat="31.61236" lon="-8.3393417"><ele>394.0</ele><time>2026-04-25T16:31:44.411Z</time></trkpt><trkpt lat="31.612295" lon="-8.3396267"><ele>393.5</ele><time>2026-04-25T16:31:45.411Z</time></trkpt><trkpt lat="31.61224" lon="-8.3399067"><ele>393.0</ele><time>2026-04-25T16:31:46.411Z</time></trkpt><trkpt lat="31.61218" lon="-8.3401917"><ele>393.0</ele><time>2026-04-25T16:31:47.412Z</time></trkpt><trkpt lat="31.6121217" lon="-8.3404767"><ele>393.0</ele><time>2026-04-25T16:31:48.411Z</time></trkpt><trkpt lat="31.6120583" lon="-8.3407633"><ele>393.0</ele><time>2026-04-25T16:31:49.411Z</time></trkpt><trkpt lat="31.6119933" lon="-8.3410533"><ele>393.0</ele><time>2026-04-25T16:31:50.411Z</time></trkpt><trkpt lat="31.6119317" lon="-8.3413417"><ele>393.0</ele><time>2026-04-25T16:31:51.411Z</time></trkpt><trkpt lat="31.61187" lon="-8.34163"><ele>393.0</ele><time>2026-04-25T16:31:52.411Z</time></trkpt><trkpt lat="31.61181" lon="-8.3419183"><ele>393.0</ele><time>2026-04-25T16:31:53.411Z</time></trkpt><trkpt lat="31.611745" lon="-8.3422117"><ele>393.0</ele><time>2026-04-25T16:31:54.411Z</time></trkpt><trkpt lat="31.6116733" lon="-8.342505"><ele>392.0</ele><time>2026-04-25T16:31:55.411Z</time></trkpt><trkpt lat="31.6116067" lon="-8.3427967"><ele>391.0</ele><time>2026-04-25T16:31:56.411Z</time></trkpt><trkpt lat="31.6115417" lon="-8.34309"><ele>391.0</ele><time>2026-04-25T16:31:57.411Z</time></trkpt><trkpt lat="31.611475" lon="-8.34338"><ele>391.0</ele><time>2026-04-25T16:31:58.411Z</time></trkpt><trkpt lat="31.6114133" lon="-8.3436633"><ele>390.5</ele><time>2026-04-25T16:31:59.411Z</time></trkpt><trkpt lat="31.6113467" lon="-8.3439367"><ele>390.0</ele><time>2026-04-25T16:32:00.411Z</time></trkpt><trkpt lat="31.6112883" lon="-8.34421"><ele>390.0</ele><time>2026-04-25T16:32:01.411Z</time></trkpt><trkpt lat="31.6112317" lon="-8.3444767"><ele>390.0</ele><time>2026-04-25T16:32:02.411Z</time></trkpt><trkpt lat="31.6111717" lon="-8.3447417"><ele>390.5</ele><time>2026-04-25T16:32:03.411Z</time></trkpt><trkpt lat="31.6111133" lon="-8.3450083"><ele>391.0</ele><time>2026-04-25T16:32:04.411Z</time></trkpt><trkpt lat="31.6110533" lon="-8.345275"><ele>391.0</ele><time>2026-04-25T16:32:05.411Z</time></trkpt><trkpt lat="31.6109933" lon="-8.3455417"><ele>391.0</ele><time>2026-04-25T16:32:06.411Z</time></trkpt><trkpt lat="31.610935" lon="-8.3458067"><ele>392.0</ele><time>2026-04-25T16:32:07.411Z</time></trkpt><trkpt lat="31.61088" lon="-8.3460767"><ele>393.0</ele><time>2026-04-25T16:32:08.411Z</time></trkpt><trkpt lat="31.6108233" lon="-8.3463417"><ele>392.5</ele><time>2026-04-25T16:32:09.411Z</time></trkpt><trkpt lat="31.6107617" lon="-8.3466117"><ele>392.0</ele><time>2026-04-25T16:32:10.411Z</time></trkpt><trkpt lat="31.610705" lon="-8.3468867"><ele>392.0</ele><time>2026-04-25T16:32:11.411Z</time></trkpt><trkpt lat="31.6106433" lon="-8.3471633"><ele>392.0</ele><time>2026-04-25T16:32:12.411Z</time></trkpt><trkpt lat="31.6105833" lon="-8.3474417"><ele>392.5</ele><time>2026-04-25T16:32:13.411Z</time></trkpt><trkpt lat="31.6105233" lon="-8.347725"><ele>393.0</ele><time>2026-04-25T16:32:14.411Z</time></trkpt><trkpt lat="31.610455" lon="-8.3480117"><ele>391.5</ele><time>2026-04-25T16:32:15.411Z</time></trkpt><trkpt lat="31.6103933" lon="-8.348295"><ele>390.0</ele><time>2026-04-25T16:32:16.411Z</time></trkpt><trkpt lat="31.610335" lon="-8.3485817"><ele>390.5</ele><time>2026-04-25T16:32:17.411Z</time></trkpt><trkpt lat="31.6102683" lon="-8.3488717"><ele>391.0</ele><time>2026-04-25T16:32:18.411Z</time></trkpt><trkpt lat="31.6102" lon="-8.3491667"><ele>391.5</ele><time>2026-04-25T16:32:19.411Z</time></trkpt><trkpt lat="31.6101367" lon="-8.3494533"><ele>392.0</ele><time>2026-04-25T16:32:20.411Z</time></trkpt><trkpt lat="31.610075" lon="-8.3497333"><ele>392.0</ele><time>2026-04-25T16:32:21.412Z</time></trkpt><trkpt lat="31.6100167" lon="-8.3500083"><ele>392.0</ele><time>2026-04-25T16:32:22.411Z</time></trkpt><trkpt lat="31.6099567" lon="-8.35028"><ele>392.5</ele><time>2026-04-25T16:32:23.411Z</time></trkpt><trkpt lat="31.6098983" lon="-8.3505467"><ele>393.0</ele><time>2026-04-25T16:32:24.411Z</time></trkpt><trkpt lat="31.6098383" lon="-8.350815"><ele>393.0</ele><time>2026-04-25T16:32:25.411Z</time></trkpt><trkpt lat="31.6097783" lon="-8.3510833"><ele>393.0</ele><time>2026-04-25T16:32:26.411Z</time></trkpt><trkpt lat="31.609715" lon="-8.3513433"><ele>392.0</ele><time>2026-04-25T16:32:27.411Z</time></trkpt><trkpt lat="31.60966" lon="-8.35161"><ele>391.0</ele><time>2026-04-25T16:32:28.411Z</time></trkpt><trkpt lat="31.6096017" lon="-8.3518783"><ele>391.0</ele><time>2026-04-25T16:32:29.411Z</time></trkpt><trkpt lat="31.60954" lon="-8.352155"><ele>391.0</ele><time>2026-04-25T16:32:30.411Z</time></trkpt><trkpt lat="31.6094783" lon="-8.352435"><ele>392.5</ele><time>2026-04-25T16:32:31.411Z</time></trkpt><trkpt lat="31.6094183" lon="-8.3527117"><ele>394.0</ele><time>2026-04-25T16:32:32.411Z</time></trkpt><trkpt lat="31.6093583" lon="-8.3529883"><ele>393.5</ele><time>2026-04-25T16:32:33.411Z</time></trkpt><trkpt lat="31.6092983" lon="-8.3532667"><ele>393.0</ele><time>2026-04-25T16:32:34.411Z</time></trkpt><trkpt lat="31.6092383" lon="-8.353545"><ele>393.0</ele><time>2026-04-25T16:32:35.411Z</time></trkpt><trkpt lat="31.6091767" lon="-8.3538217"><ele>393.0</ele><time>2026-04-25T16:32:36.411Z</time></trkpt><trkpt lat="31.6091117" lon="-8.3541033"><ele>393.0</ele><time>2026-04-25T16:32:37.411Z</time></trkpt><trkpt lat="31.6090483" lon="-8.35438"><ele>393.0</ele><time>2026-04-25T16:32:38.411Z</time></trkpt><trkpt lat="31.608985" lon="-8.3546533"><ele>393.5</ele><time>2026-04-25T16:32:39.411Z</time></trkpt><trkpt lat="31.6089233" lon="-8.3549217"><ele>394.0</ele><time>2026-04-25T16:32:40.411Z</time></trkpt><trkpt lat="31.6088633" lon="-8.3551867"><ele>394.0</ele><time>2026-04-25T16:32:41.411Z</time></trkpt><trkpt lat="31.6088067" lon="-8.35545"><ele>394.0</ele><time>2026-04-25T16:32:42.411Z</time></trkpt><trkpt lat="31.6087533" lon="-8.3557133"><ele>393.5</ele><time>2026-04-25T16:32:43.411Z</time></trkpt><trkpt lat="31.6086933" lon="-8.3559733"><ele>393.0</ele><time>2026-04-25T16:32:44.411Z</time></trkpt><trkpt lat="31.608635" lon="-8.356235"><ele>393.0</ele><time>2026-04-25T16:32:45.411Z</time></trkpt><trkpt lat="31.608575" lon="-8.3564933"><ele>393.0</ele><time>2026-04-25T16:32:46.411Z</time></trkpt><trkpt lat="31.6085167" lon="-8.356755"><ele>393.0</ele><time>2026-04-25T16:32:47.412Z</time></trkpt><trkpt lat="31.6084583" lon="-8.35702"><ele>393.0</ele><time>2026-04-25T16:32:48.411Z</time></trkpt><trkpt lat="31.6084017" lon="-8.3572833"><ele>392.5</ele><time>2026-04-25T16:32:49.411Z</time></trkpt><trkpt lat="31.6083433" lon="-8.3575433"><ele>392.0</ele><time>2026-04-25T16:32:50.411Z</time></trkpt><trkpt lat="31.6082867" lon="-8.3578083"><ele>392.5</ele><time>2026-04-25T16:32:51.411Z</time></trkpt><trkpt lat="31.60823" lon="-8.3580683"><ele>393.0</ele><time>2026-04-25T16:32:52.411Z</time></trkpt><trkpt lat="31.6081717" lon="-8.35833"><ele>393.0</ele><time>2026-04-25T16:32:53.411Z</time></trkpt><trkpt lat="31.6081183" lon="-8.3585917"><ele>393.0</ele><time>2026-04-25T16:32:54.411Z</time></trkpt><trkpt lat="31.6080617" lon="-8.3588517"><ele>392.5</ele><time>2026-04-25T16:32:55.411Z</time></trkpt><trkpt lat="31.6080033" lon="-8.3591117"><ele>392.0</ele><time>2026-04-25T16:32:56.411Z</time></trkpt><trkpt lat="31.607945" lon="-8.3593767"><ele>392.0</ele><time>2026-04-25T16:32:57.411Z</time></trkpt><trkpt lat="31.6078867" lon="-8.3596367"><ele>392.0</ele><time>2026-04-25T16:32:58.411Z</time></trkpt><trkpt lat="31.6078283" lon="-8.3598983"><ele>392.0</ele><time>2026-04-25T16:32:59.411Z</time></trkpt><trkpt lat="31.6077717" lon="-8.3601567"><ele>392.0</ele><time>2026-04-25T16:33:00.411Z</time></trkpt><trkpt lat="31.6077167" lon="-8.3604167"><ele>393.0</ele><time>2026-04-25T16:33:01.411Z</time></trkpt><trkpt lat="31.6076533" lon="-8.3606767"><ele>394.0</ele><time>2026-04-25T16:33:02.411Z</time></trkpt><trkpt lat="31.6075933" lon="-8.36094"><ele>394.0</ele><time>2026-04-25T16:33:03.411Z</time></trkpt><trkpt lat="31.6075333" lon="-8.3612017"><ele>394.0</ele><time>2026-04-25T16:33:04.411Z</time></trkpt><trkpt lat="31.607475" lon="-8.3614667"><ele>393.5</ele><time>2026-04-25T16:33:05.411Z</time></trkpt><trkpt lat="31.607415" lon="-8.3617333"><ele>393.0</ele><time>2026-04-25T16:33:06.411Z</time></trkpt><trkpt lat="31.6073517" lon="-8.3620017"><ele>392.0</ele><time>2026-04-25T16:33:07.411Z</time></trkpt><trkpt lat="31.6072933" lon="-8.3622767"><ele>391.0</ele><time>2026-04-25T16:33:08.411Z</time></trkpt><trkpt lat="31.6072317" lon="-8.3625483"><ele>391.0</ele><time>2026-04-25T16:33:09.411Z</time></trkpt><trkpt lat="31.60717" lon="-8.3628233"><ele>391.0</ele><time>2026-04-25T16:33:10.411Z</time></trkpt><trkpt lat="31.607105" lon="-8.3631017"><ele>390.5</ele><time>2026-04-25T16:33:11.411Z</time></trkpt><trkpt lat="31.6070433" lon="-8.36338"><ele>390.0</ele><time>2026-04-25T16:33:12.411Z</time></trkpt><trkpt lat="31.60698" lon="-8.3636583"><ele>391.5</ele><time>2026-04-25T16:33:13.411Z</time></trkpt><trkpt lat="31.60692" lon="-8.36394"><ele>393.0</ele><time>2026-04-25T16:33:14.411Z</time></trkpt><trkpt lat="31.6068583" lon="-8.3642233"><ele>393.0</ele><time>2026-04-25T16:33:15.411Z</time></trkpt><trkpt lat="31.60679" lon="-8.3645117"><ele>393.0</ele><time>2026-04-25T16:33:16.411Z</time></trkpt><trkpt lat="31.6067233" lon="-8.3648017"><ele>392.0</ele><time>2026-04-25T16:33:17.411Z</time></trkpt><trkpt lat="31.6066617" lon="-8.365095"><ele>391.0</ele><time>2026-04-25T16:33:18.411Z</time></trkpt><trkpt lat="31.6065983" lon="-8.3653883"><ele>391.5</ele><time>2026-04-25T16:33:19.411Z</time></trkpt><trkpt lat="31.606535" lon="-8.3656817"><ele>392.0</ele><time>2026-04-25T16:33:20.411Z</time></trkpt><trkpt lat="31.6064717" lon="-8.3659733"><ele>392.0</ele><time>2026-04-25T16:33:21.411Z</time></trkpt><trkpt lat="31.6064133" lon="-8.3662667"><ele>392.0</ele><time>2026-04-25T16:33:22.411Z</time></trkpt><trkpt lat="31.60635" lon="-8.3665533"><ele>393.0</ele><time>2026-04-25T16:33:23.411Z</time></trkpt><trkpt lat="31.6062917" lon="-8.366825"><ele>394.0</ele><time>2026-04-25T16:33:24.411Z</time></trkpt><trkpt lat="31.6062283" lon="-8.367095"><ele>394.0</ele><time>2026-04-25T16:33:25.411Z</time></trkpt><trkpt lat="31.6061667" lon="-8.3673633"><ele>394.0</ele><time>2026-04-25T16:33:26.411Z</time></trkpt><trkpt lat="31.6061067" lon="-8.3676283"><ele>394.5</ele><time>2026-04-25T16:33:27.411Z</time></trkpt><trkpt lat="31.6060467" lon="-8.3678933"><ele>395.0</ele><time>2026-04-25T16:33:28.411Z</time></trkpt><trkpt lat="31.6059883" lon="-8.36816"><ele>395.5</ele><time>2026-04-25T16:33:29.411Z</time></trkpt><trkpt lat="31.60593" lon="-8.3684317"><ele>396.0</ele><time>2026-04-25T16:33:30.411Z</time></trkpt><trkpt lat="31.6058717" lon="-8.3686983"><ele>395.0</ele><time>2026-04-25T16:33:31.411Z</time></trkpt><trkpt lat="31.6058117" lon="-8.36897"><ele>394.0</ele><time>2026-04-25T16:33:32.411Z</time></trkpt><trkpt lat="31.6057467" lon="-8.3692467"><ele>394.0</ele><time>2026-04-25T16:33:33.411Z</time></trkpt><trkpt lat="31.6056833" lon="-8.3695233"><ele>394.0</ele><time>2026-04-25T16:33:34.411Z</time></trkpt><trkpt lat="31.6056183" lon="-8.369805"><ele>393.5</ele><time>2026-04-25T16:33:35.411Z</time></trkpt><trkpt lat="31.6055567" lon="-8.3700867"><ele>393.0</ele><time>2026-04-25T16:33:36.411Z</time></trkpt><trkpt lat="31.6054983" lon="-8.3703683"><ele>392.5</ele><time>2026-04-25T16:33:37.411Z</time></trkpt><trkpt lat="31.605435" lon="-8.3706533"><ele>392.0</ele><time>2026-04-25T16:33:38.411Z</time></trkpt><trkpt lat="31.605375" lon="-8.37094"><ele>391.5</ele><time>2026-04-25T16:33:39.411Z</time></trkpt><trkpt lat="31.60531" lon="-8.3712317"><ele>391.0</ele><time>2026-04-25T16:33:40.411Z</time></trkpt><trkpt lat="31.6052483" lon="-8.3715217"><ele>392.0</ele><time>2026-04-25T16:33:41.411Z</time></trkpt><trkpt lat="31.6051883" lon="-8.3718133"><ele>393.0</ele><time>2026-04-25T16:33:42.411Z</time></trkpt><trkpt lat="31.605125" lon="-8.372105"><ele>393.0</ele><time>2026-04-25T16:33:43.411Z</time></trkpt><trkpt lat="31.6050633" lon="-8.3724017"><ele>393.0</ele><time>2026-04-25T16:33:44.411Z</time></trkpt><trkpt lat="31.6049917" lon="-8.3727017"><ele>393.0</ele><time>2026-04-25T16:33:45.411Z</time></trkpt><trkpt lat="31.604925" lon="-8.3729967"><ele>393.0</ele><time>2026-04-25T16:33:46.411Z</time></trkpt><trkpt lat="31.6048617" lon="-8.37329"><ele>392.0</ele><time>2026-04-25T16:33:47.411Z</time></trkpt><trkpt lat="31.6048017" lon="-8.3735667"><ele>391.0</ele><time>2026-04-25T16:33:48.411Z</time></trkpt><trkpt lat="31.604745" lon="-8.37383"><ele>390.5</ele><time>2026-04-25T16:33:49.411Z</time></trkpt><trkpt lat="31.604685" lon="-8.37409"><ele>390.0</ele><time>2026-04-25T16:33:50.411Z</time></trkpt><trkpt lat="31.6046233" lon="-8.3743533"><ele>390.0</ele><time>2026-04-25T16:33:51.411Z</time></trkpt><trkpt lat="31.6045633" lon="-8.3746167"><ele>390.0</ele><time>2026-04-25T16:33:52.412Z</time></trkpt><trkpt lat="31.6045017" lon="-8.374865"><ele>390.66666666666663</ele><time>2026-04-25T16:33:53.411Z</time></trkpt><trkpt lat="31.6044433" lon="-8.375105"><ele>391.3333333333333</ele><time>2026-04-25T16:33:54.411Z</time></trkpt><trkpt lat="31.604385" lon="-8.3753467"><ele>392.0</ele><time>2026-04-25T16:33:55.411Z</time></trkpt><trkpt lat="31.6043317" lon="-8.3756017"><ele>392.3333333333333</ele><time>2026-04-25T16:33:56.411Z</time></trkpt><trkpt lat="31.60428" lon="-8.3758567"><ele>392.66666666666663</ele><time>2026-04-25T16:33:57.411Z</time></trkpt><trkpt lat="31.604235" lon="-8.3761117"><ele>393.0</ele><time>2026-04-25T16:33:58.411Z</time></trkpt><trkpt lat="31.6041883" lon="-8.3763533"><ele>393.33333333333337</ele><time>2026-04-25T16:33:59.411Z</time></trkpt><trkpt lat="31.6041433" lon="-8.376585"><ele>393.6666666666667</ele><time>2026-04-25T16:34:00.411Z</time></trkpt><trkpt lat="31.6041" lon="-8.3768067"><ele>394.0</ele><time>2026-04-25T16:34:01.411Z</time></trkpt><trkpt lat="31.6040483" lon="-8.3770267"><ele>393.6666666666667</ele><time>2026-04-25T16:34:02.411Z</time></trkpt><trkpt lat="31.604" lon="-8.3772433"><ele>393.33333333333337</ele><time>2026-04-25T16:34:03.411Z</time></trkpt><trkpt lat="31.6039483" lon="-8.3774617"><ele>393.0</ele><time>2026-04-25T16:34:04.411Z</time></trkpt><trkpt lat="31.6038967" lon="-8.3776767"><ele>393.0</ele><time>2026-04-25T16:34:05.411Z</time></trkpt><trkpt lat="31.603855" lon="-8.3778833"><ele>393.0</ele><time>2026-04-25T16:34:06.411Z</time></trkpt><trkpt lat="31.6038133" lon="-8.3780817"><ele>393.0</ele><time>2026-04-25T16:34:07.411Z</time></trkpt><trkpt lat="31.6037717" lon="-8.378275"><ele>393.0</ele><time>2026-04-25T16:34:08.411Z</time></trkpt><trkpt lat="31.6037317" lon="-8.3784617"><ele>393.0</ele><time>2026-04-25T16:34:09.411Z</time></trkpt><trkpt lat="31.603695" lon="-8.378645"><ele>393.0</ele><time>2026-04-25T16:34:10.411Z</time></trkpt><trkpt lat="31.60365" lon="-8.3788317"><ele>393.0</ele><time>2026-04-25T16:34:11.412Z</time></trkpt><trkpt lat="31.603605" lon="-8.3790083"><ele>393.0</ele><time>2026-04-25T16:34:12.411Z</time></trkpt><trkpt lat="31.603565" lon="-8.3791883"><ele>393.0</ele><time>2026-04-25T16:34:13.411Z</time></trkpt><trkpt lat="31.6035267" lon="-8.379375"><ele>393.0</ele><time>2026-04-25T16:34:14.411Z</time></trkpt><trkpt lat="31.60349" lon="-8.3795567"><ele>393.0</ele><time>2026-04-25T16:34:15.411Z</time></trkpt><trkpt lat="31.6034483" lon="-8.37975"><ele>393.0</ele><time>2026-04-25T16:34:16.411Z</time></trkpt><trkpt lat="31.6034067" lon="-8.3799433"><ele>393.0</ele><time>2026-04-25T16:34:17.411Z</time></trkpt><trkpt lat="31.6033717" lon="-8.3801317"><ele>393.0</ele><time>2026-04-25T16:34:18.411Z</time></trkpt><trkpt lat="31.6033267" lon="-8.3803167"><ele>393.0</ele><time>2026-04-25T16:34:19.411Z</time></trkpt><trkpt lat="31.6032817" lon="-8.3805017"><ele>393.33333333333337</ele><time>2026-04-25T16:34:20.411Z</time></trkpt><trkpt lat="31.6032467" lon="-8.3806783"><ele>393.6666666666667</ele><time>2026-04-25T16:34:21.411Z</time></trkpt><trkpt lat="31.60321" lon="-8.38085"><ele>394.0</ele><time>2026-04-25T16:34:22.411Z</time></trkpt><trkpt lat="31.6031767" lon="-8.3810217"><ele>394.0</ele><time>2026-04-25T16:34:23.411Z</time></trkpt><trkpt lat="31.6031383" lon="-8.38121"><ele>394.0</ele><time>2026-04-25T16:34:24.411Z</time></trkpt><trkpt lat="31.6030967" lon="-8.3813933"><ele>394.0</ele><time>2026-04-25T16:34:25.411Z</time></trkpt><trkpt lat="31.6030617" lon="-8.3815783"><ele>393.33333333333337</ele><time>2026-04-25T16:34:26.411Z</time></trkpt><trkpt lat="31.603025" lon="-8.38177"><ele>392.66666666666663</ele><time>2026-04-25T16:34:27.411Z</time></trkpt><trkpt lat="31.6029783" lon="-8.3819617"><ele>392.0</ele><time>2026-04-25T16:34:28.411Z</time></trkpt><trkpt lat="31.602935" lon="-8.382155"><ele>392.0</ele><time>2026-04-25T16:34:29.411Z</time></trkpt><trkpt lat="31.60289" lon="-8.38236"><ele>392.0</ele><time>2026-04-25T16:34:30.411Z</time></trkpt><trkpt lat="31.6028483" lon="-8.382565"><ele>392.0</ele><time>2026-04-25T16:34:31.411Z</time></trkpt><trkpt lat="31.602805" lon="-8.382775"><ele>392.0</ele><time>2026-04-25T16:34:32.411Z</time></trkpt><trkpt lat="31.602755" lon="-8.3829933"><ele>392.0</ele><time>2026-04-25T16:34:33.411Z</time></trkpt><trkpt lat="31.6027067" lon="-8.3832083"><ele>392.0</ele><time>2026-04-25T16:34:34.411Z</time></trkpt><trkpt lat="31.60266" lon="-8.383425"><ele>392.0</ele><time>2026-04-25T16:34:35.411Z</time></trkpt><trkpt lat="31.6026183" lon="-8.3836533"><ele>392.0</ele><time>2026-04-25T16:34:36.411Z</time></trkpt><trkpt lat="31.6025717" lon="-8.3838817"><ele>392.0</ele><time>2026-04-25T16:34:37.412Z</time></trkpt><trkpt lat="31.60252" lon="-8.3841133"><ele>392.0</ele><time>2026-04-25T16:34:38.411Z</time></trkpt><trkpt lat="31.6024683" lon="-8.38434"><ele>392.0</ele><time>2026-04-25T16:34:39.411Z</time></trkpt><trkpt lat="31.6024183" lon="-8.384555"><ele>392.0</ele><time>2026-04-25T16:34:40.411Z</time></trkpt><trkpt lat="31.60237" lon="-8.3847717"><ele>392.0</ele><time>2026-04-25T16:34:41.412Z</time></trkpt><trkpt lat="31.6023233" lon="-8.3849867"><ele>392.0</ele><time>2026-04-25T16:34:42.411Z</time></trkpt><trkpt lat="31.6022833" lon="-8.3851933"><ele>392.0</ele><time>2026-04-25T16:34:43.412Z</time></trkpt><trkpt lat="31.6022367" lon="-8.3853967"><ele>391.66666666666663</ele><time>2026-04-25T16:34:44.411Z</time></trkpt><trkpt lat="31.6021983" lon="-8.3856"><ele>391.33333333333337</ele><time>2026-04-25T16:34:45.411Z</time></trkpt><trkpt lat="31.6021533" lon="-8.3858017"><ele>391.0</ele><time>2026-04-25T16:34:46.411Z</time></trkpt><trkpt lat="31.6021167" lon="-8.385995"><ele>391.0</ele><time>2026-04-25T16:34:47.411Z</time></trkpt><trkpt lat="31.6020733" lon="-8.3861833"><ele>391.0</ele><time>2026-04-25T16:34:48.411Z</time></trkpt><trkpt lat="31.6020283" lon="-8.3863733"><ele>391.0</ele><time>2026-04-25T16:34:49.412Z</time></trkpt><trkpt lat="31.601985" lon="-8.3865517"><ele>391.33333333333337</ele><time>2026-04-25T16:34:50.411Z</time></trkpt><trkpt lat="31.601945" lon="-8.3867333"><ele>391.66666666666663</ele><time>2026-04-25T16:34:51.411Z</time></trkpt><trkpt lat="31.6019" lon="-8.38691"><ele>392.0</ele><time>2026-04-25T16:34:52.411Z</time></trkpt><trkpt lat="31.6018617" lon="-8.3870917"><ele>391.66666666666663</ele><time>2026-04-25T16:34:53.411Z</time></trkpt><trkpt lat="31.601815" lon="-8.3872783"><ele>391.33333333333337</ele><time>2026-04-25T16:34:54.411Z</time></trkpt><trkpt lat="31.6017683" lon="-8.3874733"><ele>391.0</ele><time>2026-04-25T16:34:55.411Z</time></trkpt><trkpt lat="31.6017183" lon="-8.387685"><ele>391.0</ele><time>2026-04-25T16:34:56.411Z</time></trkpt><trkpt lat="31.6016667" lon="-8.3879167"><ele>391.0</ele><time>2026-04-25T16:34:57.411Z</time></trkpt><trkpt lat="31.60161" lon="-8.3881633"><ele>391.0</ele><time>2026-04-25T16:34:58.411Z</time></trkpt><trkpt lat="31.60154" lon="-8.3884133"><ele>391.0</ele><time>2026-04-25T16:34:59.411Z</time></trkpt><trkpt lat="31.601485" lon="-8.3886833"><ele>391.0</ele><time>2026-04-25T16:35:00.411Z</time></trkpt><trkpt lat="31.6014333" lon="-8.3889583"><ele>392.0</ele><time>2026-04-25T16:35:01.411Z</time></trkpt><trkpt lat="31.60138" lon="-8.389235"><ele>393.0</ele><time>2026-04-25T16:35:02.411Z</time></trkpt><trkpt lat="31.6013267" lon="-8.3895183"><ele>392.5</ele><time>2026-04-25T16:35:03.411Z</time></trkpt><trkpt lat="31.6012767" lon="-8.38979"><ele>392.0</ele><time>2026-04-25T16:35:04.412Z</time></trkpt><trkpt lat="31.6012333" lon="-8.3900483"><ele>392.0</ele><time>2026-04-25T16:35:05.411Z</time></trkpt><trkpt lat="31.60118" lon="-8.3903083"><ele>392.0</ele><time>2026-04-25T16:35:06.411Z</time></trkpt><trkpt lat="31.601125" lon="-8.3905667"><ele>392.0</ele><time>2026-04-25T16:35:07.411Z</time></trkpt><trkpt lat="31.6010667" lon="-8.3908267"><ele>392.0</ele><time>2026-04-25T16:35:08.412Z</time></trkpt><trkpt lat="31.60101" lon="-8.3910883"><ele>391.66666666666663</ele><time>2026-04-25T16:35:09.411Z</time></trkpt><trkpt lat="31.60095" lon="-8.3913433"><ele>391.33333333333337</ele><time>2026-04-25T16:35:10.411Z</time></trkpt><trkpt lat="31.6008933" lon="-8.391595"><ele>391.0</ele><time>2026-04-25T16:35:11.411Z</time></trkpt><trkpt lat="31.60084" lon="-8.3918433"><ele>391.0</ele><time>2026-04-25T16:35:12.411Z</time></trkpt><trkpt lat="31.6007867" lon="-8.3920783"><ele>391.0</ele><time>2026-04-25T16:35:13.411Z</time></trkpt><trkpt lat="31.6007383" lon="-8.392315"><ele>391.0</ele><time>2026-04-25T16:35:14.412Z</time></trkpt><trkpt lat="31.6006833" lon="-8.3925583"><ele>391.0</ele><time>2026-04-25T16:35:15.411Z</time></trkpt><trkpt lat="31.6006333" lon="-8.3928033"><ele>391.0</ele><time>2026-04-25T16:35:16.411Z</time></trkpt><trkpt lat="31.6005833" lon="-8.3930483"><ele>391.0</ele><time>2026-04-25T16:35:17.411Z</time></trkpt><trkpt lat="31.60053" lon="-8.393295"><ele>391.0</ele><time>2026-04-25T16:35:18.411Z</time></trkpt><trkpt lat="31.60048" lon="-8.3935433"><ele>391.0</ele><time>2026-04-25T16:35:19.411Z</time></trkpt><trkpt lat="31.6004233" lon="-8.3937933"><ele>391.0</ele><time>2026-04-25T16:35:20.411Z</time></trkpt><trkpt lat="31.600365" lon="-8.394045"><ele>391.0</ele><time>2026-04-25T16:35:21.411Z</time></trkpt><trkpt lat="31.6003083" lon="-8.394295"><ele>391.0</ele><time>2026-04-25T16:35:22.411Z</time></trkpt><trkpt lat="31.6002533" lon="-8.3945467"><ele>391.0</ele><time>2026-04-25T16:35:23.411Z</time></trkpt><trkpt lat="31.6001967" lon="-8.3948"><ele>391.0</ele><time>2026-04-25T16:35:24.411Z</time></trkpt><trkpt lat="31.60014" lon="-8.3950583"><ele>391.0</ele><time>2026-04-25T16:35:25.411Z</time></trkpt><trkpt lat="31.6000833" lon="-8.3953283"><ele>390.0</ele><time>2026-04-25T16:35:26.411Z</time></trkpt><trkpt lat="31.600035" lon="-8.3955917"><ele>389.0</ele><time>2026-04-25T16:35:27.411Z</time></trkpt><trkpt lat="31.59997" lon="-8.3958483"><ele>389.0</ele><time>2026-04-25T16:35:28.411Z</time></trkpt><trkpt lat="31.5999167" lon="-8.396115"><ele>389.0</ele><time>2026-04-25T16:35:29.411Z</time></trkpt><trkpt lat="31.5998617" lon="-8.3963833"><ele>388.5</ele><time>2026-04-25T16:35:30.411Z</time></trkpt><trkpt lat="31.5998033" lon="-8.3966483"><ele>388.0</ele><time>2026-04-25T16:35:31.411Z</time></trkpt><trkpt lat="31.599745" lon="-8.3969183"><ele>388.0</ele><time>2026-04-25T16:35:32.411Z</time></trkpt><trkpt lat="31.5996883" lon="-8.3971867"><ele>388.0</ele><time>2026-04-25T16:35:33.411Z</time></trkpt><trkpt lat="31.5996283" lon="-8.3974583"><ele>388.0</ele><time>2026-04-25T16:35:34.411Z</time></trkpt><trkpt lat="31.59957" lon="-8.397735"><ele>388.0</ele><time>2026-04-25T16:35:35.411Z</time></trkpt><trkpt lat="31.5995133" lon="-8.3980083"><ele>389.5</ele><time>2026-04-25T16:35:36.411Z</time></trkpt><trkpt lat="31.59946" lon="-8.3982733"><ele>391.0</ele><time>2026-04-25T16:35:37.411Z</time></trkpt><trkpt lat="31.5994067" lon="-8.3985283"><ele>391.0</ele><time>2026-04-25T16:35:38.411Z</time></trkpt><trkpt lat="31.5993567" lon="-8.3987667"><ele>391.0</ele><time>2026-04-25T16:35:39.411Z</time></trkpt><trkpt lat="31.5993133" lon="-8.3989967"><ele>391.0</ele><time>2026-04-25T16:35:40.411Z</time></trkpt><trkpt lat="31.5992717" lon="-8.3992117"><ele>391.33333333333337</ele><time>2026-04-25T16:35:41.411Z</time></trkpt><trkpt lat="31.599235" lon="-8.3994083"><ele>391.66666666666663</ele><time>2026-04-25T16:35:42.411Z</time></trkpt><trkpt lat="31.5992017" lon="-8.39959"><ele>392.0</ele><time>2026-04-25T16:35:43.411Z</time></trkpt><trkpt lat="31.5991683" lon="-8.39975"><ele>391.40000000000003</ele><time>2026-04-25T16:35:44.411Z</time></trkpt><trkpt lat="31.5991383" lon="-8.3998917"><ele>390.8</ele><time>2026-04-25T16:35:45.411Z</time></trkpt><trkpt lat="31.5991183" lon="-8.4000183"><ele>390.2</ele><time>2026-04-25T16:35:46.411Z</time></trkpt><trkpt lat="31.5991067" lon="-8.4001417"><ele>389.6</ele><time>2026-04-25T16:35:47.411Z</time></trkpt><trkpt lat="31.599115" lon="-8.4002533"><ele>389.0</ele><time>2026-04-25T16:35:48.411Z</time></trkpt><trkpt lat="31.5991217" lon="-8.400365"><ele>389.0</ele><time>2026-04-25T16:35:49.411Z</time></trkpt><trkpt lat="31.5991217" lon="-8.400485"><ele>389.0</ele><time>2026-04-25T16:35:50.411Z</time></trkpt><trkpt lat="31.5991033" lon="-8.4006033"><ele>389.0</ele><time>2026-04-25T16:35:51.411Z</time></trkpt><trkpt lat="31.59905" lon="-8.40071"><ele>389.0</ele><time>2026-04-25T16:35:52.411Z</time></trkpt><trkpt lat="31.5989867" lon="-8.4008233"><ele>389.0</ele><time>2026-04-25T16:35:53.411Z</time></trkpt><trkpt lat="31.5989233" lon="-8.4009433"><ele>389.0</ele><time>2026-04-25T16:35:54.411Z</time></trkpt><trkpt lat="31.5988783" lon="-8.4011"><ele>389.0</ele><time>2026-04-25T16:35:55.411Z</time></trkpt><trkpt lat="31.598835" lon="-8.4012833"><ele>389.0</ele><time>2026-04-25T16:35:56.411Z</time></trkpt><trkpt lat="31.59879" lon="-8.4014733"><ele>389.0</ele><time>2026-04-25T16:35:57.411Z</time></trkpt><trkpt lat="31.5987483" lon="-8.4016683"><ele>389.0</ele><time>2026-04-25T16:35:58.411Z</time></trkpt><trkpt lat="31.598705" lon="-8.40185"><ele>389.0</ele><time>2026-04-25T16:35:59.411Z</time></trkpt><trkpt lat="31.5986583" lon="-8.4020267"><ele>389.0</ele><time>2026-04-25T16:36:00.411Z</time></trkpt><trkpt lat="31.5986133" lon="-8.4022067"><ele>389.0</ele><time>2026-04-25T16:36:01.411Z</time></trkpt><trkpt lat="31.59857" lon="-8.4023867"><ele>389.0</ele><time>2026-04-25T16:36:02.411Z</time></trkpt><trkpt lat="31.59852" lon="-8.4025733"><ele>389.0</ele><time>2026-04-25T16:36:03.411Z</time></trkpt><trkpt lat="31.598475" lon="-8.4027633"><ele>389.0</ele><time>2026-04-25T16:36:04.411Z</time></trkpt><trkpt lat="31.598435" lon="-8.4029433"><ele>389.0</ele><time>2026-04-25T16:36:05.411Z</time></trkpt><trkpt lat="31.5983967" lon="-8.403115"><ele>389.25</ele><time>2026-04-25T16:36:06.411Z</time></trkpt><trkpt lat="31.5983633" lon="-8.4032783"><ele>389.5</ele><time>2026-04-25T16:36:07.411Z</time></trkpt><trkpt lat="31.598335" lon="-8.4034417"><ele>389.75</ele><time>2026-04-25T16:36:08.411Z</time></trkpt><trkpt lat="31.5983017" lon="-8.403605"><ele>390.0</ele><time>2026-04-25T16:36:09.411Z</time></trkpt><trkpt lat="31.598265" lon="-8.40377"><ele>389.25</ele><time>2026-04-25T16:36:10.411Z</time></trkpt><trkpt lat="31.5982283" lon="-8.4039283"><ele>388.5</ele><time>2026-04-25T16:36:11.411Z</time></trkpt><trkpt lat="31.59819" lon="-8.4040933"><ele>387.75</ele><time>2026-04-25T16:36:12.411Z</time></trkpt><trkpt lat="31.5981517" lon="-8.4042633"><ele>387.0</ele><time>2026-04-25T16:36:13.411Z</time></trkpt><trkpt lat="31.598115" lon="-8.4044333"><ele>387.0</ele><time>2026-04-25T16:36:14.411Z</time></trkpt><trkpt lat="31.59808" lon="-8.4046033"><ele>387.0</ele><time>2026-04-25T16:36:15.411Z</time></trkpt><trkpt lat="31.5980467" lon="-8.4047717"><ele>387.0</ele><time>2026-04-25T16:36:16.411Z</time></trkpt><trkpt lat="31.5980117" lon="-8.4049417"><ele>387.0</ele><time>2026-04-25T16:36:17.411Z</time></trkpt><trkpt lat="31.5979817" lon="-8.4051183"><ele>387.0</ele><time>2026-04-25T16:36:18.411Z</time></trkpt><trkpt lat="31.5979467" lon="-8.4053"><ele>387.0</ele><time>2026-04-25T16:36:19.411Z</time></trkpt><trkpt lat="31.597905" lon="-8.4054817"><ele>387.0</ele><time>2026-04-25T16:36:20.411Z</time></trkpt><trkpt lat="31.59787" lon="-8.4056567"><ele>386.66666666666663</ele><time>2026-04-25T16:36:21.411Z</time></trkpt><trkpt lat="31.5978283" lon="-8.40583"><ele>386.3333333333333</ele><time>2026-04-25T16:36:22.411Z</time></trkpt><trkpt lat="31.597785" lon="-8.40601"><ele>386.0</ele><time>2026-04-25T16:36:23.411Z</time></trkpt><trkpt lat="31.5977383" lon="-8.406195"><ele>386.0</ele><time>2026-04-25T16:36:24.411Z</time></trkpt><trkpt lat="31.5976867" lon="-8.4063933"><ele>386.0</ele><time>2026-04-25T16:36:25.411Z</time></trkpt><trkpt lat="31.5976383" lon="-8.4066033"><ele>386.0</ele><time>2026-04-25T16:36:26.411Z</time></trkpt><trkpt lat="31.5975833" lon="-8.4068217"><ele>386.0</ele><time>2026-04-25T16:36:27.411Z</time></trkpt><trkpt lat="31.597515" lon="-8.4070533"><ele>386.0</ele><time>2026-04-25T16:36:28.411Z</time></trkpt><trkpt lat="31.5974567" lon="-8.4073067"><ele>386.0</ele><time>2026-04-25T16:36:29.411Z</time></trkpt><trkpt lat="31.5974083" lon="-8.4075767"><ele>385.5</ele><time>2026-04-25T16:36:30.411Z</time></trkpt><trkpt lat="31.5973617" lon="-8.4078517"><ele>385.0</ele><time>2026-04-25T16:36:31.411Z</time></trkpt><trkpt lat="31.5973067" lon="-8.408135"><ele>386.5</ele><time>2026-04-25T16:36:32.411Z</time></trkpt><trkpt lat="31.59725" lon="-8.4084283"><ele>388.0</ele><time>2026-04-25T16:36:33.411Z</time></trkpt><trkpt lat="31.5971867" lon="-8.4087317"><ele>388.5</ele><time>2026-04-25T16:36:34.411Z</time></trkpt><trkpt lat="31.5971267" lon="-8.409025"><ele>389.0</ele><time>2026-04-25T16:36:35.412Z</time></trkpt><trkpt lat="31.5970633" lon="-8.4093017"><ele>389.0</ele><time>2026-04-25T16:36:36.412Z</time></trkpt><trkpt lat="31.5970067" lon="-8.409575"><ele>389.0</ele><time>2026-04-25T16:36:37.411Z</time></trkpt><trkpt lat="31.5969483" lon="-8.409845"><ele>388.5</ele><time>2026-04-25T16:36:38.411Z</time></trkpt><trkpt lat="31.59689" lon="-8.410115"><ele>388.0</ele><time>2026-04-25T16:36:39.411Z</time></trkpt><trkpt lat="31.5968333" lon="-8.4103867"><ele>387.5</ele><time>2026-04-25T16:36:40.411Z</time></trkpt><trkpt lat="31.5967717" lon="-8.410665"><ele>387.0</ele><time>2026-04-25T16:36:41.411Z</time></trkpt><trkpt lat="31.5967133" lon="-8.4109383"><ele>387.0</ele><time>2026-04-25T16:36:42.411Z</time></trkpt><trkpt lat="31.5966533" lon="-8.411215"><ele>387.0</ele><time>2026-04-25T16:36:43.411Z</time></trkpt><trkpt lat="31.596595" lon="-8.4114883"><ele>388.0</ele><time>2026-04-25T16:36:44.411Z</time></trkpt><trkpt lat="31.596535" lon="-8.4117633"><ele>389.0</ele><time>2026-04-25T16:36:45.411Z</time></trkpt><trkpt lat="31.5964733" lon="-8.4120367"><ele>390.0</ele><time>2026-04-25T16:36:46.411Z</time></trkpt><trkpt lat="31.59641" lon="-8.41231"><ele>391.0</ele><time>2026-04-25T16:36:47.411Z</time></trkpt><trkpt lat="31.5963467" lon="-8.4125817"><ele>391.0</ele><time>2026-04-25T16:36:48.411Z</time></trkpt><trkpt lat="31.59629" lon="-8.41285"><ele>391.0</ele><time>2026-04-25T16:36:49.411Z</time></trkpt><trkpt lat="31.5962333" lon="-8.413125"><ele>391.5</ele><time>2026-04-25T16:36:50.411Z</time></trkpt><trkpt lat="31.5961717" lon="-8.4133967"><ele>392.0</ele><time>2026-04-25T16:36:51.411Z</time></trkpt><trkpt lat="31.596115" lon="-8.4136683"><ele>390.0</ele><time>2026-04-25T16:36:52.411Z</time></trkpt><trkpt lat="31.5960517" lon="-8.4139417"><ele>388.0</ele><time>2026-04-25T16:36:53.411Z</time></trkpt><trkpt lat="31.595995" lon="-8.4142167"><ele>388.0</ele><time>2026-04-25T16:36:54.411Z</time></trkpt><trkpt lat="31.5959417" lon="-8.41449"><ele>388.0</ele><time>2026-04-25T16:36:55.411Z</time></trkpt><trkpt lat="31.595875" lon="-8.4147633"><ele>388.5</ele><time>2026-04-25T16:36:56.411Z</time></trkpt><trkpt lat="31.595815" lon="-8.4150333"><ele>389.0</ele><time>2026-04-25T16:36:57.411Z</time></trkpt><trkpt lat="31.5957517" lon="-8.4153067"><ele>389.5</ele><time>2026-04-25T16:36:58.411Z</time></trkpt><trkpt lat="31.595695" lon="-8.41557"><ele>390.0</ele><time>2026-04-25T16:36:59.411Z</time></trkpt><trkpt lat="31.5956367" lon="-8.4158333"><ele>390.0</ele><time>2026-04-25T16:37:00.411Z</time></trkpt><trkpt lat="31.5955833" lon="-8.4160883"><ele>390.0</ele><time>2026-04-25T16:37:01.411Z</time></trkpt><trkpt lat="31.5955317" lon="-8.4163383"><ele>390.0</ele><time>2026-04-25T16:37:02.411Z</time></trkpt><trkpt lat="31.5954783" lon="-8.416585"><ele>389.0</ele><time>2026-04-25T16:37:03.411Z</time></trkpt><trkpt lat="31.5954267" lon="-8.416835"><ele>388.0</ele><time>2026-04-25T16:37:04.411Z</time></trkpt><trkpt lat="31.5953733" lon="-8.4170883"><ele>387.0</ele><time>2026-04-25T16:37:05.411Z</time></trkpt><trkpt lat="31.59532" lon="-8.41734"><ele>387.0</ele><time>2026-04-25T16:37:06.411Z</time></trkpt><trkpt lat="31.5952633" lon="-8.417595"><ele>387.0</ele><time>2026-04-25T16:37:07.411Z</time></trkpt><trkpt lat="31.5952033" lon="-8.4178533"><ele>387.5</ele><time>2026-04-25T16:37:08.411Z</time></trkpt><trkpt lat="31.5951467" lon="-8.4181117"><ele>388.0</ele><time>2026-04-25T16:37:09.411Z</time></trkpt><trkpt lat="31.595085" lon="-8.4183733"><ele>388.0</ele><time>2026-04-25T16:37:10.411Z</time></trkpt><trkpt lat="31.5950217" lon="-8.418635"><ele>388.0</ele><time>2026-04-25T16:37:11.412Z</time></trkpt><trkpt lat="31.5949617" lon="-8.4189033"><ele>386.5</ele><time>2026-04-25T16:37:12.411Z</time></trkpt><trkpt lat="31.5949" lon="-8.4191733"><ele>385.0</ele><time>2026-04-25T16:37:13.411Z</time></trkpt><trkpt lat="31.594845" lon="-8.4194433"><ele>385.0</ele><time>2026-04-25T16:37:14.411Z</time></trkpt><trkpt lat="31.59479" lon="-8.41971"><ele>385.0</ele><time>2026-04-25T16:37:15.411Z</time></trkpt><trkpt lat="31.5947367" lon="-8.4199683"><ele>385.0</ele><time>2026-04-25T16:37:16.411Z</time></trkpt><trkpt lat="31.5946767" lon="-8.42023"><ele>385.0</ele><time>2026-04-25T16:37:17.411Z</time></trkpt><trkpt lat="31.5946217" lon="-8.42049"><ele>385.5</ele><time>2026-04-25T16:37:18.412Z</time></trkpt><trkpt lat="31.5945667" lon="-8.42075"><ele>386.0</ele><time>2026-04-25T16:37:19.411Z</time></trkpt><trkpt lat="31.5945133" lon="-8.42101"><ele>387.0</ele><time>2026-04-25T16:37:20.411Z</time></trkpt><trkpt lat="31.594455" lon="-8.4212717"><ele>388.0</ele><time>2026-04-25T16:37:21.411Z</time></trkpt><trkpt lat="31.5944" lon="-8.421535"><ele>388.0</ele><time>2026-04-25T16:37:22.411Z</time></trkpt><trkpt lat="31.5943383" lon="-8.421805"><ele>388.0</ele><time>2026-04-25T16:37:23.411Z</time></trkpt><trkpt lat="31.594275" lon="-8.4220733"><ele>387.5</ele><time>2026-04-25T16:37:24.411Z</time></trkpt><trkpt lat="31.5942133" lon="-8.4223467"><ele>387.0</ele><time>2026-04-25T16:37:25.411Z</time></trkpt><trkpt lat="31.5941533" lon="-8.4226217"><ele>387.0</ele><time>2026-04-25T16:37:26.411Z</time></trkpt><trkpt lat="31.5940917" lon="-8.422895"><ele>387.0</ele><time>2026-04-25T16:37:27.411Z</time></trkpt><trkpt lat="31.5940317" lon="-8.4231717"><ele>387.5</ele><time>2026-04-25T16:37:28.411Z</time></trkpt><trkpt lat="31.5939717" lon="-8.4234467"><ele>388.0</ele><time>2026-04-25T16:37:29.411Z</time></trkpt><trkpt lat="31.59391" lon="-8.4237233"><ele>388.5</ele><time>2026-04-25T16:37:30.411Z</time></trkpt><trkpt lat="31.59385" lon="-8.424005"><ele>389.0</ele><time>2026-04-25T16:37:31.411Z</time></trkpt><trkpt lat="31.5937933" lon="-8.4242867"><ele>389.0</ele><time>2026-04-25T16:37:32.411Z</time></trkpt><trkpt lat="31.593735" lon="-8.4245683"><ele>389.0</ele><time>2026-04-25T16:37:33.411Z</time></trkpt><trkpt lat="31.5936783" lon="-8.4248517"><ele>388.0</ele><time>2026-04-25T16:37:34.411Z</time></trkpt><trkpt lat="31.5936167" lon="-8.4251333"><ele>387.0</ele><time>2026-04-25T16:37:35.411Z</time></trkpt><trkpt lat="31.5935517" lon="-8.4254217"><ele>386.5</ele><time>2026-04-25T16:37:36.411Z</time></trkpt><trkpt lat="31.5934883" lon="-8.4257067"><ele>386.0</ele><time>2026-04-25T16:37:37.411Z</time></trkpt><trkpt lat="31.5934233" lon="-8.4259917"><ele>386.0</ele><time>2026-04-25T16:37:38.411Z</time></trkpt><trkpt lat="31.5933583" lon="-8.42628"><ele>386.0</ele><time>2026-04-25T16:37:39.411Z</time></trkpt><trkpt lat="31.5933" lon="-8.4265583"><ele>386.5</ele><time>2026-04-25T16:37:40.412Z</time></trkpt><trkpt lat="31.5932417" lon="-8.4268267"><ele>387.0</ele><time>2026-04-25T16:37:41.412Z</time></trkpt><trkpt lat="31.59318" lon="-8.4270917"><ele>387.0</ele><time>2026-04-25T16:37:42.411Z</time></trkpt><trkpt lat="31.5931217" lon="-8.4273567"><ele>387.0</ele><time>2026-04-25T16:37:43.411Z</time></trkpt><trkpt lat="31.593065" lon="-8.4276183"><ele>387.0</ele><time>2026-04-25T16:37:44.411Z</time></trkpt><trkpt lat="31.5930067" lon="-8.4278783"><ele>387.0</ele><time>2026-04-25T16:37:45.411Z</time></trkpt><trkpt lat="31.5929533" lon="-8.4281417"><ele>386.5</ele><time>2026-04-25T16:37:46.411Z</time></trkpt><trkpt lat="31.592895" lon="-8.428405"><ele>386.0</ele><time>2026-04-25T16:37:47.411Z</time></trkpt><trkpt lat="31.5928367" lon="-8.4286683"><ele>387.5</ele><time>2026-04-25T16:37:48.411Z</time></trkpt><trkpt lat="31.5927817" lon="-8.4289367"><ele>389.0</ele><time>2026-04-25T16:37:49.411Z</time></trkpt><trkpt lat="31.592725" lon="-8.4292033"><ele>389.0</ele><time>2026-04-25T16:37:50.411Z</time></trkpt><trkpt lat="31.5926683" lon="-8.429475"><ele>389.0</ele><time>2026-04-25T16:37:51.411Z</time></trkpt><trkpt lat="31.5926083" lon="-8.4297433"><ele>388.5</ele><time>2026-04-25T16:37:52.411Z</time></trkpt><trkpt lat="31.5925533" lon="-8.43001"><ele>388.0</ele><time>2026-04-25T16:37:53.411Z</time></trkpt><trkpt lat="31.592495" lon="-8.43028"><ele>389.5</ele><time>2026-04-25T16:37:54.411Z</time></trkpt><trkpt lat="31.5924383" lon="-8.43055"><ele>391.0</ele><time>2026-04-25T16:37:55.411Z</time></trkpt><trkpt lat="31.59238" lon="-8.4308233"><ele>391.0</ele><time>2026-04-25T16:37:56.411Z</time></trkpt><trkpt lat="31.5923217" lon="-8.4310967"><ele>391.0</ele><time>2026-04-25T16:37:57.411Z</time></trkpt><trkpt lat="31.59226" lon="-8.4313717"><ele>391.0</ele><time>2026-04-25T16:37:58.411Z</time></trkpt><trkpt lat="31.5922033" lon="-8.4316467"><ele>391.0</ele><time>2026-04-25T16:37:59.411Z</time></trkpt><trkpt lat="31.592145" lon="-8.4319267"><ele>389.5</ele><time>2026-04-25T16:38:00.411Z</time></trkpt><trkpt lat="31.592085" lon="-8.4322017"><ele>388.0</ele><time>2026-04-25T16:38:01.412Z</time></trkpt><trkpt lat="31.5920233" lon="-8.4324783"><ele>388.5</ele><time>2026-04-25T16:38:02.411Z</time></trkpt><trkpt lat="31.5919633" lon="-8.4327567"><ele>389.0</ele><time>2026-04-25T16:38:03.411Z</time></trkpt><trkpt lat="31.5918967" lon="-8.4330333"><ele>389.0</ele><time>2026-04-25T16:38:04.411Z</time></trkpt><trkpt lat="31.5918367" lon="-8.4333117"><ele>389.0</ele><time>2026-04-25T16:38:05.411Z</time></trkpt><trkpt lat="31.591775" lon="-8.4335917"><ele>388.5</ele><time>2026-04-25T16:38:06.411Z</time></trkpt><trkpt lat="31.5917117" lon="-8.4338733"><ele>388.0</ele><time>2026-04-25T16:38:07.411Z</time></trkpt><trkpt lat="31.5916533" lon="-8.4341517"><ele>388.0</ele><time>2026-04-25T16:38:08.411Z</time></trkpt><trkpt lat="31.5915967" lon="-8.4344333"><ele>388.0</ele><time>2026-04-25T16:38:09.411Z</time></trkpt><trkpt lat="31.5915367" lon="-8.434715"><ele>387.5</ele><time>2026-04-25T16:38:10.411Z</time></trkpt><trkpt lat="31.5914733" lon="-8.434995"><ele>387.0</ele><time>2026-04-25T16:38:11.411Z</time></trkpt><trkpt lat="31.5914133" lon="-8.4352767"><ele>387.0</ele><time>2026-04-25T16:38:12.411Z</time></trkpt><trkpt lat="31.5913517" lon="-8.43556"><ele>387.0</ele><time>2026-04-25T16:38:13.411Z</time></trkpt><trkpt lat="31.5912933" lon="-8.43584"><ele>387.0</ele><time>2026-04-25T16:38:14.411Z</time></trkpt><trkpt lat="31.591235" lon="-8.43612"><ele>387.0</ele><time>2026-04-25T16:38:15.411Z</time></trkpt><trkpt lat="31.59117" lon="-8.436405"><ele>388.0</ele><time>2026-04-25T16:38:16.411Z</time></trkpt><trkpt lat="31.5911083" lon="-8.4366883"><ele>389.0</ele><time>2026-04-25T16:38:17.411Z</time></trkpt><trkpt lat="31.591045" lon="-8.4369767"><ele>389.0</ele><time>2026-04-25T16:38:18.411Z</time></trkpt><trkpt lat="31.59099" lon="-8.437265"><ele>389.0</ele><time>2026-04-25T16:38:19.411Z</time></trkpt><trkpt lat="31.5909333" lon="-8.4375533"><ele>389.0</ele><time>2026-04-25T16:38:20.411Z</time></trkpt><trkpt lat="31.5908767" lon="-8.4378433"><ele>389.0</ele><time>2026-04-25T16:38:21.411Z</time></trkpt><trkpt lat="31.590825" lon="-8.438135"><ele>389.0</ele><time>2026-04-25T16:38:22.412Z</time></trkpt><trkpt lat="31.5907733" lon="-8.4384317"><ele>389.0</ele><time>2026-04-25T16:38:23.411Z</time></trkpt><trkpt lat="31.5907233" lon="-8.4387233"><ele>388.0</ele><time>2026-04-25T16:38:24.411Z</time></trkpt><trkpt lat="31.5906767" lon="-8.4390083"><ele>387.0</ele><time>2026-04-25T16:38:25.411Z</time></trkpt><trkpt lat="31.5906267" lon="-8.4392883"><ele>387.0</ele><time>2026-04-25T16:38:26.411Z</time></trkpt><trkpt lat="31.5905767" lon="-8.43956"><ele>387.0</ele><time>2026-04-25T16:38:27.411Z</time></trkpt><trkpt lat="31.5905267" lon="-8.4398283"><ele>387.0</ele><time>2026-04-25T16:38:28.411Z</time></trkpt><trkpt lat="31.590485" lon="-8.4400967"><ele>387.0</ele><time>2026-04-25T16:38:29.411Z</time></trkpt><trkpt lat="31.5904367" lon="-8.4403717"><ele>386.5</ele><time>2026-04-25T16:38:30.411Z</time></trkpt><trkpt lat="31.5903883" lon="-8.4406467"><ele>386.0</ele><time>2026-04-25T16:38:31.411Z</time></trkpt><trkpt lat="31.59034" lon="-8.4409233"><ele>386.0</ele><time>2026-04-25T16:38:32.411Z</time></trkpt><trkpt lat="31.5902933" lon="-8.4411983"><ele>386.0</ele><time>2026-04-25T16:38:33.411Z</time></trkpt><trkpt lat="31.5902433" lon="-8.44148"><ele>385.5</ele><time>2026-04-25T16:38:34.411Z</time></trkpt><trkpt lat="31.5901933" lon="-8.4417633"><ele>385.0</ele><time>2026-04-25T16:38:35.411Z</time></trkpt><trkpt lat="31.5901417" lon="-8.442045"><ele>384.5</ele><time>2026-04-25T16:38:36.411Z</time></trkpt><trkpt lat="31.5900917" lon="-8.4423283"><ele>384.0</ele><time>2026-04-25T16:38:37.411Z</time></trkpt><trkpt lat="31.5900417" lon="-8.44261"><ele>384.0</ele><time>2026-04-25T16:38:38.411Z</time></trkpt><trkpt lat="31.5899967" lon="-8.4428767"><ele>384.0</ele><time>2026-04-25T16:38:39.411Z</time></trkpt><trkpt lat="31.58995" lon="-8.443135"><ele>384.0</ele><time>2026-04-25T16:38:40.411Z</time></trkpt><trkpt lat="31.5899083" lon="-8.4433867"><ele>384.0</ele><time>2026-04-25T16:38:41.411Z</time></trkpt><trkpt lat="31.5898683" lon="-8.4436333"><ele>384.0</ele><time>2026-04-25T16:38:42.411Z</time></trkpt><trkpt lat="31.58982" lon="-8.4438817"><ele>384.0</ele><time>2026-04-25T16:38:43.411Z</time></trkpt><trkpt lat="31.589775" lon="-8.4441267"><ele>384.0</ele><time>2026-04-25T16:38:44.411Z</time></trkpt><trkpt lat="31.5897333" lon="-8.4443667"><ele>384.0</ele><time>2026-04-25T16:38:45.411Z</time></trkpt><trkpt lat="31.58969" lon="-8.4446017"><ele>384.33333333333337</ele><time>2026-04-25T16:38:46.411Z</time></trkpt><trkpt lat="31.5896483" lon="-8.444825"><ele>384.6666666666667</ele><time>2026-04-25T16:38:47.411Z</time></trkpt><trkpt lat="31.589605" lon="-8.4450683"><ele>385.0</ele><time>2026-04-25T16:38:48.411Z</time></trkpt><trkpt lat="31.58956" lon="-8.4453233"><ele>385.5</ele><time>2026-04-25T16:38:49.411Z</time></trkpt><trkpt lat="31.5895067" lon="-8.4455967"><ele>386.0</ele><time>2026-04-25T16:38:50.411Z</time></trkpt><trkpt lat="31.5894533" lon="-8.44589"><ele>386.0</ele><time>2026-04-25T16:38:51.412Z</time></trkpt><trkpt lat="31.5894" lon="-8.4461883"><ele>386.0</ele><time>2026-04-25T16:38:52.411Z</time></trkpt><trkpt lat="31.5893533" lon="-8.4464717"><ele>386.5</ele><time>2026-04-25T16:38:53.411Z</time></trkpt><trkpt lat="31.589305" lon="-8.446745"><ele>387.0</ele><time>2026-04-25T16:38:54.411Z</time></trkpt><trkpt lat="31.58926" lon="-8.4470083"><ele>387.5</ele><time>2026-04-25T16:38:55.411Z</time></trkpt><trkpt lat="31.5892133" lon="-8.4472733"><ele>388.0</ele><time>2026-04-25T16:38:56.411Z</time></trkpt><trkpt lat="31.58916" lon="-8.4475483"><ele>388.0</ele><time>2026-04-25T16:38:57.411Z</time></trkpt><trkpt lat="31.589105" lon="-8.447835"><ele>388.0</ele><time>2026-04-25T16:38:58.412Z</time></trkpt><trkpt lat="31.589055" lon="-8.4481233"><ele>387.0</ele><time>2026-04-25T16:38:59.411Z</time></trkpt><trkpt lat="31.589" lon="-8.4484133"><ele>386.0</ele><time>2026-04-25T16:39:00.411Z</time></trkpt><trkpt lat="31.58895" lon="-8.4487133"><ele>385.5</ele><time>2026-04-25T16:39:01.411Z</time></trkpt><trkpt lat="31.588905" lon="-8.44902"><ele>385.0</ele><time>2026-04-25T16:39:02.411Z</time></trkpt><trkpt lat="31.5888617" lon="-8.4493283"><ele>386.0</ele><time>2026-04-25T16:39:03.411Z</time></trkpt><trkpt lat="31.5888083" lon="-8.44964"><ele>387.0</ele><time>2026-04-25T16:39:04.411Z</time></trkpt><trkpt lat="31.588755" lon="-8.4499567"><ele>387.0</ele><time>2026-04-25T16:39:05.412Z</time></trkpt><trkpt lat="31.5886967" lon="-8.4502817"><ele>387.0</ele><time>2026-04-25T16:39:06.412Z</time></trkpt><trkpt lat="31.5886383" lon="-8.450605"><ele>387.0</ele><time>2026-04-25T16:39:07.411Z</time></trkpt><trkpt lat="31.5885833" lon="-8.4509167"><ele>387.0</ele><time>2026-04-25T16:39:08.411Z</time></trkpt><trkpt lat="31.5885283" lon="-8.451225"><ele>387.0</ele><time>2026-04-25T16:39:09.411Z</time></trkpt><trkpt lat="31.588475" lon="-8.45153"><ele>387.0</ele><time>2026-04-25T16:39:10.411Z</time></trkpt><trkpt lat="31.5884233" lon="-8.4518317"><ele>385.5</ele><time>2026-04-25T16:39:11.411Z</time></trkpt><trkpt lat="31.5883717" lon="-8.4521317"><ele>384.0</ele><time>2026-04-25T16:39:12.411Z</time></trkpt><trkpt lat="31.5883167" lon="-8.4524333"><ele>384.0</ele><time>2026-04-25T16:39:13.411Z</time></trkpt><trkpt lat="31.5882683" lon="-8.452725"><ele>384.0</ele><time>2026-04-25T16:39:14.412Z</time></trkpt><trkpt lat="31.5882167" lon="-8.4530167"><ele>383.5</ele><time>2026-04-25T16:39:15.412Z</time></trkpt><trkpt lat="31.58817" lon="-8.4533067"><ele>383.0</ele><time>2026-04-25T16:39:16.411Z</time></trkpt><trkpt lat="31.5881233" lon="-8.4535967"><ele>384.5</ele><time>2026-04-25T16:39:17.411Z</time></trkpt><trkpt lat="31.5880767" lon="-8.4538883"><ele>386.0</ele><time>2026-04-25T16:39:18.411Z</time></trkpt><trkpt lat="31.58803" lon="-8.4541717"><ele>386.0</ele><time>2026-04-25T16:39:19.411Z</time></trkpt><trkpt lat="31.58798" lon="-8.4544567"><ele>386.0</ele><time>2026-04-25T16:39:20.411Z</time></trkpt><trkpt lat="31.5879317" lon="-8.4547483"><ele>384.5</ele><time>2026-04-25T16:39:21.411Z</time></trkpt><trkpt lat="31.5878767" lon="-8.4550417"><ele>383.0</ele><time>2026-04-25T16:39:22.411Z</time></trkpt><trkpt lat="31.5878233" lon="-8.4553367"><ele>383.0</ele><time>2026-04-25T16:39:23.411Z</time></trkpt><trkpt lat="31.5877717" lon="-8.4556283"><ele>383.0</ele><time>2026-04-25T16:39:24.411Z</time></trkpt><trkpt lat="31.5877233" lon="-8.4559283"><ele>383.0</ele><time>2026-04-25T16:39:25.411Z</time></trkpt><trkpt lat="31.58767" lon="-8.4562283"><ele>383.0</ele><time>2026-04-25T16:39:26.411Z</time></trkpt><trkpt lat="31.5876167" lon="-8.4565267"><ele>384.0</ele><time>2026-04-25T16:39:27.411Z</time></trkpt><trkpt lat="31.5875567" lon="-8.45683"><ele>385.0</ele><time>2026-04-25T16:39:28.411Z</time></trkpt><trkpt lat="31.5874983" lon="-8.457135"><ele>385.0</ele><time>2026-04-25T16:39:29.411Z</time></trkpt><trkpt lat="31.5874433" lon="-8.4574383"><ele>385.0</ele><time>2026-04-25T16:39:30.411Z</time></trkpt><trkpt lat="31.5873917" lon="-8.4577483"><ele>383.5</ele><time>2026-04-25T16:39:31.411Z</time></trkpt><trkpt lat="31.5873333" lon="-8.4580567"><ele>382.0</ele><time>2026-04-25T16:39:32.411Z</time></trkpt><trkpt lat="31.5872817" lon="-8.4583683"><ele>382.0</ele><time>2026-04-25T16:39:33.411Z</time></trkpt><trkpt lat="31.5872267" lon="-8.4586783"><ele>382.0</ele><time>2026-04-25T16:39:34.411Z</time></trkpt><trkpt lat="31.5871733" lon="-8.45898"><ele>383.5</ele><time>2026-04-25T16:39:35.411Z</time></trkpt><trkpt lat="31.587125" lon="-8.459275"><ele>385.0</ele><time>2026-04-25T16:39:36.411Z</time></trkpt><trkpt lat="31.58707" lon="-8.45957"><ele>385.0</ele><time>2026-04-25T16:39:37.411Z</time></trkpt><trkpt lat="31.5870183" lon="-8.4598617"><ele>385.0</ele><time>2026-04-25T16:39:38.411Z</time></trkpt><trkpt lat="31.5869683" lon="-8.4601483"><ele>385.0</ele><time>2026-04-25T16:39:39.411Z</time></trkpt><trkpt lat="31.5869233" lon="-8.4604267"><ele>385.0</ele><time>2026-04-25T16:39:40.411Z</time></trkpt><trkpt lat="31.5868733" lon="-8.4606983"><ele>384.5</ele><time>2026-04-25T16:39:41.412Z</time></trkpt><trkpt lat="31.586825" lon="-8.46097"><ele>384.0</ele><time>2026-04-25T16:39:42.411Z</time></trkpt><trkpt lat="31.5867767" lon="-8.4612417"><ele>383.5</ele><time>2026-04-25T16:39:43.411Z</time></trkpt><trkpt lat="31.586725" lon="-8.461515"><ele>383.0</ele><time>2026-04-25T16:39:44.411Z</time></trkpt><trkpt lat="31.5866767" lon="-8.461795"><ele>383.0</ele><time>2026-04-25T16:39:45.411Z</time></trkpt><trkpt lat="31.5866333" lon="-8.4620717"><ele>383.0</ele><time>2026-04-25T16:39:46.411Z</time></trkpt><trkpt lat="31.586595" lon="-8.4623483"><ele>383.0</ele><time>2026-04-25T16:39:47.411Z</time></trkpt><trkpt lat="31.586545" lon="-8.4626283"><ele>383.0</ele><time>2026-04-25T16:39:48.411Z</time></trkpt><trkpt lat="31.5864983" lon="-8.4628983"><ele>383.0</ele><time>2026-04-25T16:39:49.411Z</time></trkpt><trkpt lat="31.5864433" lon="-8.4631667"><ele>383.0</ele><time>2026-04-25T16:39:50.411Z</time></trkpt><trkpt lat="31.5863933" lon="-8.463435"><ele>383.0</ele><time>2026-04-25T16:39:51.411Z</time></trkpt><trkpt lat="31.5863467" lon="-8.4637067"><ele>383.0</ele><time>2026-04-25T16:39:52.411Z</time></trkpt><trkpt lat="31.5862983" lon="-8.463985"><ele>384.0</ele><time>2026-04-25T16:39:53.411Z</time></trkpt><trkpt lat="31.5862517" lon="-8.464265"><ele>385.0</ele><time>2026-04-25T16:39:54.411Z</time></trkpt><trkpt lat="31.5862033" lon="-8.4645367"><ele>384.0</ele><time>2026-04-25T16:39:55.411Z</time></trkpt><trkpt lat="31.5861533" lon="-8.46482"><ele>383.0</ele><time>2026-04-25T16:39:56.411Z</time></trkpt><trkpt lat="31.5861033" lon="-8.4650983"><ele>383.0</ele><time>2026-04-25T16:39:57.411Z</time></trkpt><trkpt lat="31.586055" lon="-8.4653783"><ele>383.0</ele><time>2026-04-25T16:39:58.41Z</time></trkpt><trkpt lat="31.586005" lon="-8.4656517"><ele>383.5</ele><time>2026-04-25T16:39:59.41Z</time></trkpt><trkpt lat="31.5859483" lon="-8.4659383"><ele>384.0</ele><time>2026-04-25T16:40:00.41Z</time></trkpt><trkpt lat="31.5858967" lon="-8.4662283"><ele>384.5</ele><time>2026-04-25T16:40:01.411Z</time></trkpt><trkpt lat="31.58585" lon="-8.46651"><ele>385.0</ele><time>2026-04-25T16:40:02.41Z</time></trkpt><trkpt lat="31.5858067" lon="-8.4667917"><ele>385.0</ele><time>2026-04-25T16:40:03.41Z</time></trkpt><trkpt lat="31.5857583" lon="-8.4670733"><ele>385.0</ele><time>2026-04-25T16:40:04.41Z</time></trkpt><trkpt lat="31.58571" lon="-8.467365"><ele>385.0</ele><time>2026-04-25T16:40:05.41Z</time></trkpt><trkpt lat="31.5856617" lon="-8.4676517"><ele>385.0</ele><time>2026-04-25T16:40:06.41Z</time></trkpt><trkpt lat="31.5856133" lon="-8.4679433"><ele>383.0</ele><time>2026-04-25T16:40:07.41Z</time></trkpt><trkpt lat="31.5855667" lon="-8.4682333"><ele>381.0</ele><time>2026-04-25T16:40:08.41Z</time></trkpt><trkpt lat="31.5855183" lon="-8.4685233"><ele>381.5</ele><time>2026-04-25T16:40:09.41Z</time></trkpt><trkpt lat="31.5854667" lon="-8.46881"><ele>382.0</ele><time>2026-04-25T16:40:10.41Z</time></trkpt><trkpt lat="31.585415" lon="-8.4691017"><ele>382.0</ele><time>2026-04-25T16:40:11.41Z</time></trkpt><trkpt lat="31.5853617" lon="-8.4694"><ele>382.0</ele><time>2026-04-25T16:40:12.41Z</time></trkpt><trkpt lat="31.5853117" lon="-8.4696917"><ele>383.0</ele><time>2026-04-25T16:40:13.41Z</time></trkpt><trkpt lat="31.5852617" lon="-8.46998"><ele>384.0</ele><time>2026-04-25T16:40:14.41Z</time></trkpt><trkpt lat="31.585215" lon="-8.47027"><ele>383.5</ele><time>2026-04-25T16:40:15.41Z</time></trkpt><trkpt lat="31.5851667" lon="-8.4705567"><ele>383.0</ele><time>2026-04-25T16:40:16.41Z</time></trkpt><trkpt lat="31.5851167" lon="-8.470845"><ele>383.0</ele><time>2026-04-25T16:40:17.41Z</time></trkpt><trkpt lat="31.585065" lon="-8.4711217"><ele>383.0</ele><time>2026-04-25T16:40:18.41Z</time></trkpt><trkpt lat="31.585005" lon="-8.471405"><ele>383.0</ele><time>2026-04-25T16:40:19.41Z</time></trkpt><trkpt lat="31.5849533" lon="-8.4716967"><ele>383.0</ele><time>2026-04-25T16:40:20.41Z</time></trkpt><trkpt lat="31.5849" lon="-8.4719867"><ele>382.5</ele><time>2026-04-25T16:40:21.41Z</time></trkpt><trkpt lat="31.5848533" lon="-8.4722767"><ele>382.0</ele><time>2026-04-25T16:40:22.41Z</time></trkpt><trkpt lat="31.5848067" lon="-8.4725667"><ele>382.0</ele><time>2026-04-25T16:40:23.41Z</time></trkpt><trkpt lat="31.5847567" lon="-8.4728533"><ele>382.0</ele><time>2026-04-25T16:40:24.41Z</time></trkpt><trkpt lat="31.5847067" lon="-8.473145"><ele>381.5</ele><time>2026-04-25T16:40:25.41Z</time></trkpt><trkpt lat="31.584655" lon="-8.4734367"><ele>381.0</ele><time>2026-04-25T16:40:26.41Z</time></trkpt><trkpt lat="31.5845983" lon="-8.4737267"><ele>381.5</ele><time>2026-04-25T16:40:27.41Z</time></trkpt><trkpt lat="31.5845483" lon="-8.474015"><ele>382.0</ele><time>2026-04-25T16:40:28.41Z</time></trkpt><trkpt lat="31.5844967" lon="-8.47431"><ele>381.0</ele><time>2026-04-25T16:40:29.41Z</time></trkpt><trkpt lat="31.5844483" lon="-8.474605"><ele>380.0</ele><time>2026-04-25T16:40:30.41Z</time></trkpt><trkpt lat="31.5843983" lon="-8.474895"><ele>380.0</ele><time>2026-04-25T16:40:31.41Z</time></trkpt><trkpt lat="31.5843433" lon="-8.4751867"><ele>380.0</ele><time>2026-04-25T16:40:32.41Z</time></trkpt><trkpt lat="31.5842933" lon="-8.475475"><ele>380.5</ele><time>2026-04-25T16:40:33.41Z</time></trkpt><trkpt lat="31.5842433" lon="-8.4757617"><ele>381.0</ele><time>2026-04-25T16:40:34.41Z</time></trkpt><trkpt lat="31.58419" lon="-8.4760517"><ele>380.5</ele><time>2026-04-25T16:40:35.41Z</time></trkpt><trkpt lat="31.58414" lon="-8.47634"><ele>380.0</ele><time>2026-04-25T16:40:36.41Z</time></trkpt><trkpt lat="31.5840867" lon="-8.4766333"><ele>380.0</ele><time>2026-04-25T16:40:37.41Z</time></trkpt><trkpt lat="31.5840383" lon="-8.4769233"><ele>380.0</ele><time>2026-04-25T16:40:38.41Z</time></trkpt><trkpt lat="31.5839817" lon="-8.4772067"><ele>380.0</ele><time>2026-04-25T16:40:39.41Z</time></trkpt><trkpt lat="31.58393" lon="-8.4774883"><ele>380.0</ele><time>2026-04-25T16:40:40.41Z</time></trkpt><trkpt lat="31.5838817" lon="-8.477775"><ele>381.0</ele><time>2026-04-25T16:40:41.41Z</time></trkpt><trkpt lat="31.5838333" lon="-8.478045"><ele>382.0</ele><time>2026-04-25T16:40:42.41Z</time></trkpt><trkpt lat="31.58379" lon="-8.4783"><ele>382.0</ele><time>2026-04-25T16:40:43.41Z</time></trkpt><trkpt lat="31.5837417" lon="-8.4785583"><ele>382.0</ele><time>2026-04-25T16:40:44.41Z</time></trkpt><trkpt lat="31.5837" lon="-8.4788083"><ele>382.0</ele><time>2026-04-25T16:40:45.41Z</time></trkpt><trkpt lat="31.5836533" lon="-8.4790583"><ele>381.66666666666663</ele><time>2026-04-25T16:40:46.41Z</time></trkpt><trkpt lat="31.5836133" lon="-8.47931"><ele>381.3333333333333</ele><time>2026-04-25T16:40:47.41Z</time></trkpt><trkpt lat="31.58357" lon="-8.4795533"><ele>381.0</ele><time>2026-04-25T16:40:48.41Z</time></trkpt><trkpt lat="31.583525" lon="-8.4797983"><ele>380.6666666666667</ele><time>2026-04-25T16:40:49.41Z</time></trkpt><trkpt lat="31.583485" lon="-8.4800467"><ele>380.33333333333337</ele><time>2026-04-25T16:40:50.41Z</time></trkpt><trkpt lat="31.5834433" lon="-8.4802883"><ele>380.0</ele><time>2026-04-25T16:40:51.41Z</time></trkpt><trkpt lat="31.5834017" lon="-8.4805283"><ele>380.0</ele><time>2026-04-25T16:40:52.41Z</time></trkpt><trkpt lat="31.5833567" lon="-8.4807767"><ele>380.0</ele><time>2026-04-25T16:40:53.41Z</time></trkpt><trkpt lat="31.5833083" lon="-8.4810317"><ele>380.0</ele><time>2026-04-25T16:40:54.41Z</time></trkpt><trkpt lat="31.58326" lon="-8.4812917"><ele>379.5</ele><time>2026-04-25T16:40:55.41Z</time></trkpt><trkpt lat="31.5832167" lon="-8.48156"><ele>379.0</ele><time>2026-04-25T16:40:56.41Z</time></trkpt><trkpt lat="31.58317" lon="-8.4818267"><ele>379.0</ele><time>2026-04-25T16:40:57.41Z</time></trkpt><trkpt lat="31.5831233" lon="-8.4820867"><ele>379.0</ele><time>2026-04-25T16:40:58.41Z</time></trkpt><trkpt lat="31.5830867" lon="-8.4823483"><ele>379.3333333333333</ele><time>2026-04-25T16:40:59.41Z</time></trkpt><trkpt lat="31.5830417" lon="-8.4826033"><ele>379.6666666666667</ele><time>2026-04-25T16:41:00.41Z</time></trkpt><trkpt lat="31.583" lon="-8.482855"><ele>380.0</ele><time>2026-04-25T16:41:01.41Z</time></trkpt><trkpt lat="31.5829517" lon="-8.48311"><ele>380.0</ele><time>2026-04-25T16:41:02.41Z</time></trkpt><trkpt lat="31.582905" lon="-8.4833717"><ele>380.0</ele><time>2026-04-25T16:41:03.41Z</time></trkpt><trkpt lat="31.5828583" lon="-8.4836333"><ele>382.0</ele><time>2026-04-25T16:41:04.411Z</time></trkpt><trkpt lat="31.5828083" lon="-8.4839"><ele>384.0</ele><time>2026-04-25T16:41:05.41Z</time></trkpt><trkpt lat="31.5827617" lon="-8.4841667"><ele>384.0</ele><time>2026-04-25T16:41:06.41Z</time></trkpt><trkpt lat="31.5827217" lon="-8.4844367"><ele>384.0</ele><time>2026-04-25T16:41:07.41Z</time></trkpt><trkpt lat="31.58268" lon="-8.4847033"><ele>384.0</ele><time>2026-04-25T16:41:08.41Z</time></trkpt><trkpt lat="31.5826333" lon="-8.4849733"><ele>384.0</ele><time>2026-04-25T16:41:09.41Z</time></trkpt><trkpt lat="31.5825817" lon="-8.4852417"><ele>383.0</ele><time>2026-04-25T16:41:10.41Z</time></trkpt><trkpt lat="31.5825333" lon="-8.4855017"><ele>382.0</ele><time>2026-04-25T16:41:11.41Z</time></trkpt><trkpt lat="31.582485" lon="-8.4857617"><ele>382.0</ele><time>2026-04-25T16:41:12.41Z</time></trkpt><trkpt lat="31.58244" lon="-8.486025"><ele>382.0</ele><time>2026-04-25T16:41:13.41Z</time></trkpt><trkpt lat="31.582395" lon="-8.4862867"><ele>383.0</ele><time>2026-04-25T16:41:14.41Z</time></trkpt><trkpt lat="31.58235" lon="-8.4865533"><ele>384.0</ele><time>2026-04-25T16:41:15.41Z</time></trkpt><trkpt lat="31.5823017" lon="-8.48681"><ele>384.0</ele><time>2026-04-25T16:41:16.41Z</time></trkpt><trkpt lat="31.5822533" lon="-8.487065"><ele>384.0</ele><time>2026-04-25T16:41:17.411Z</time></trkpt><trkpt lat="31.5822083" lon="-8.4873083"><ele>384.0</ele><time>2026-04-25T16:41:18.41Z</time></trkpt><trkpt lat="31.582165" lon="-8.4875483"><ele>383.3333333333333</ele><time>2026-04-25T16:41:19.41Z</time></trkpt><trkpt lat="31.5821233" lon="-8.4877883"><ele>382.66666666666663</ele><time>2026-04-25T16:41:20.41Z</time></trkpt><trkpt lat="31.582085" lon="-8.4880233"><ele>382.0</ele><time>2026-04-25T16:41:21.41Z</time></trkpt><trkpt lat="31.582045" lon="-8.48825"><ele>382.0</ele><time>2026-04-25T16:41:22.41Z</time></trkpt><trkpt lat="31.5820067" lon="-8.4884667"><ele>382.0</ele><time>2026-04-25T16:41:23.41Z</time></trkpt><trkpt lat="31.581965" lon="-8.4886817"><ele>382.0</ele><time>2026-04-25T16:41:24.41Z</time></trkpt><trkpt lat="31.5819317" lon="-8.488885"><ele>382.66666666666663</ele><time>2026-04-25T16:41:25.41Z</time></trkpt><trkpt lat="31.5818983" lon="-8.4890767"><ele>383.3333333333333</ele><time>2026-04-25T16:41:26.41Z</time></trkpt><trkpt lat="31.5818667" lon="-8.4892533"><ele>384.0</ele><time>2026-04-25T16:41:27.41Z</time></trkpt><trkpt lat="31.58184" lon="-8.4894183"><ele>384.0</ele><time>2026-04-25T16:41:28.41Z</time></trkpt><trkpt lat="31.581815" lon="-8.4895717"><ele>384.0</ele><time>2026-04-25T16:41:29.41Z</time></trkpt><trkpt lat="31.58179" lon="-8.489715"><ele>384.0</ele><time>2026-04-25T16:41:30.41Z</time></trkpt><trkpt lat="31.5817683" lon="-8.489855"><ele>384.0</ele><time>2026-04-25T16:41:31.41Z</time></trkpt><trkpt lat="31.581745" lon="-8.4899883"><ele>383.6</ele><time>2026-04-25T16:41:32.41Z</time></trkpt><trkpt lat="31.5817183" lon="-8.4901183"><ele>383.2</ele><time>2026-04-25T16:41:33.41Z</time></trkpt><trkpt lat="31.5817017" lon="-8.49024"><ele>382.8</ele><time>2026-04-25T16:41:34.41Z</time></trkpt><trkpt lat="31.5816783" lon="-8.490365"><ele>382.40000000000003</ele><time>2026-04-25T16:41:35.41Z</time></trkpt><trkpt lat="31.5816583" lon="-8.4904933"><ele>382.0</ele><time>2026-04-25T16:41:36.41Z</time></trkpt><trkpt lat="31.5816383" lon="-8.4906233"><ele>382.0</ele><time>2026-04-25T16:41:37.41Z</time></trkpt><trkpt lat="31.5816133" lon="-8.4907517"><ele>382.0</ele><time>2026-04-25T16:41:38.41Z</time></trkpt><trkpt lat="31.581595" lon="-8.4908717"><ele>382.0</ele><time>2026-04-25T16:41:39.41Z</time></trkpt><trkpt lat="31.581575" lon="-8.4909917"><ele>382.0</ele><time>2026-04-25T16:41:40.41Z</time></trkpt><trkpt lat="31.58155" lon="-8.491115"><ele>382.0</ele><time>2026-04-25T16:41:41.41Z</time></trkpt><trkpt lat="31.5815267" lon="-8.4912417"><ele>382.5</ele><time>2026-04-25T16:41:42.41Z</time></trkpt><trkpt lat="31.5815067" lon="-8.4913733"><ele>383.0</ele><time>2026-04-25T16:41:43.411Z</time></trkpt><trkpt lat="31.5814767" lon="-8.4915083"><ele>383.5</ele><time>2026-04-25T16:41:44.41Z</time></trkpt><trkpt lat="31.5814533" lon="-8.491645"><ele>384.0</ele><time>2026-04-25T16:41:45.411Z</time></trkpt><trkpt lat="31.5814283" lon="-8.4917833"><ele>384.0</ele><time>2026-04-25T16:41:46.41Z</time></trkpt><trkpt lat="31.5814" lon="-8.4919217"><ele>384.0</ele><time>2026-04-25T16:41:47.41Z</time></trkpt><trkpt lat="31.5813733" lon="-8.49206"><ele>384.0</ele><time>2026-04-25T16:41:48.41Z</time></trkpt><trkpt lat="31.58135" lon="-8.4921983"><ele>384.0</ele><time>2026-04-25T16:41:49.411Z</time></trkpt><trkpt lat="31.5813267" lon="-8.4923417"><ele>384.25</ele><time>2026-04-25T16:41:50.41Z</time></trkpt><trkpt lat="31.581305" lon="-8.492485"><ele>384.5</ele><time>2026-04-25T16:41:51.41Z</time></trkpt><trkpt lat="31.581285" lon="-8.4926183"><ele>384.75</ele><time>2026-04-25T16:41:52.41Z</time></trkpt><trkpt lat="31.581265" lon="-8.4927467"><ele>385.0</ele><time>2026-04-25T16:41:53.41Z</time></trkpt><trkpt lat="31.5812483" lon="-8.492875"><ele>385.25</ele><time>2026-04-25T16:41:54.41Z</time></trkpt><trkpt lat="31.5812267" lon="-8.4930033"><ele>385.5</ele><time>2026-04-25T16:41:55.41Z</time></trkpt><trkpt lat="31.5812017" lon="-8.4931433"><ele>385.75</ele><time>2026-04-25T16:41:56.41Z</time></trkpt><trkpt lat="31.5811817" lon="-8.4932933"><ele>386.0</ele><time>2026-04-25T16:41:57.41Z</time></trkpt><trkpt lat="31.5811533" lon="-8.4934633"><ele>386.0</ele><time>2026-04-25T16:41:58.41Z</time></trkpt><trkpt lat="31.5811283" lon="-8.493645"><ele>386.0</ele><time>2026-04-25T16:41:59.41Z</time></trkpt><trkpt lat="31.5811067" lon="-8.4938467"><ele>386.0</ele><time>2026-04-25T16:42:00.41Z</time></trkpt><trkpt lat="31.5810817" lon="-8.4940667"><ele>386.0</ele><time>2026-04-25T16:42:01.41Z</time></trkpt><trkpt lat="31.5810683" lon="-8.4943033"><ele>386.0</ele><time>2026-04-25T16:42:02.41Z</time></trkpt><trkpt lat="31.5810533" lon="-8.4945467"><ele>386.0</ele><time>2026-04-25T16:42:03.41Z</time></trkpt><trkpt lat="31.5810417" lon="-8.4947883"><ele>384.66666666666663</ele><time>2026-04-25T16:42:04.41Z</time></trkpt><trkpt lat="31.58103" lon="-8.4950283"><ele>383.3333333333333</ele><time>2026-04-25T16:42:05.41Z</time></trkpt><trkpt lat="31.5810133" lon="-8.4952583"><ele>382.0</ele><time>2026-04-25T16:42:06.41Z</time></trkpt><trkpt lat="31.581" lon="-8.4954967"><ele>381.3333333333333</ele><time>2026-04-25T16:42:07.41Z</time></trkpt><trkpt lat="31.5809917" lon="-8.49575"><ele>380.6666666666667</ele><time>2026-04-25T16:42:08.41Z</time></trkpt><trkpt lat="31.5809867" lon="-8.4960083"><ele>380.0</ele><time>2026-04-25T16:42:09.41Z</time></trkpt><trkpt lat="31.5809783" lon="-8.4962783"><ele>380.0</ele><time>2026-04-25T16:42:10.411Z</time></trkpt><trkpt lat="31.58097" lon="-8.4965567"><ele>380.0</ele><time>2026-04-25T16:42:11.41Z</time></trkpt><trkpt lat="31.5809617" lon="-8.49684"><ele>380.5</ele><time>2026-04-25T16:42:12.41Z</time></trkpt><trkpt lat="31.580955" lon="-8.497135"><ele>381.0</ele><time>2026-04-25T16:42:13.41Z</time></trkpt><trkpt lat="31.5809467" lon="-8.4974317"><ele>381.0</ele><time>2026-04-25T16:42:14.41Z</time></trkpt><trkpt lat="31.58094" lon="-8.4977317"><ele>381.0</ele><time>2026-04-25T16:42:15.41Z</time></trkpt><trkpt lat="31.5809333" lon="-8.4980333"><ele>380.5</ele><time>2026-04-25T16:42:16.41Z</time></trkpt><trkpt lat="31.5809217" lon="-8.4983417"><ele>380.0</ele><time>2026-04-25T16:42:17.41Z</time></trkpt><trkpt lat="31.5809133" lon="-8.4986483"><ele>379.5</ele><time>2026-04-25T16:42:18.41Z</time></trkpt><trkpt lat="31.5809067" lon="-8.498945"><ele>379.0</ele><time>2026-04-25T16:42:19.41Z</time></trkpt><trkpt lat="31.5808983" lon="-8.4992267"><ele>379.0</ele><time>2026-04-25T16:42:20.41Z</time></trkpt><trkpt lat="31.5808933" lon="-8.499505"><ele>379.0</ele><time>2026-04-25T16:42:21.41Z</time></trkpt><trkpt lat="31.58089" lon="-8.4997867"><ele>380.0</ele><time>2026-04-25T16:42:22.41Z</time></trkpt><trkpt lat="31.5808817" lon="-8.5000717"><ele>381.0</ele><time>2026-04-25T16:42:23.41Z</time></trkpt><trkpt lat="31.5808717" lon="-8.50036"><ele>381.0</ele><time>2026-04-25T16:42:24.41Z</time></trkpt><trkpt lat="31.5808617" lon="-8.500655"><ele>381.0</ele><time>2026-04-25T16:42:25.41Z</time></trkpt><trkpt lat="31.5808517" lon="-8.5009567"><ele>379.5</ele><time>2026-04-25T16:42:26.411Z</time></trkpt><trkpt lat="31.580845" lon="-8.5012567"><ele>378.0</ele><time>2026-04-25T16:42:27.41Z</time></trkpt><trkpt lat="31.5808367" lon="-8.5015583"><ele>378.0</ele><time>2026-04-25T16:42:28.41Z</time></trkpt><trkpt lat="31.58083" lon="-8.5018533"><ele>378.0</ele><time>2026-04-25T16:42:29.41Z</time></trkpt><trkpt lat="31.5808217" lon="-8.5021483"><ele>376.5</ele><time>2026-04-25T16:42:30.41Z</time></trkpt><trkpt lat="31.580815" lon="-8.5024467"><ele>375.0</ele><time>2026-04-25T16:42:31.41Z</time></trkpt><trkpt lat="31.580805" lon="-8.5027483"><ele>376.5</ele><time>2026-04-25T16:42:32.41Z</time></trkpt><trkpt lat="31.5808" lon="-8.5030533"><ele>378.0</ele><time>2026-04-25T16:42:33.411Z</time></trkpt><trkpt lat="31.5807917" lon="-8.503355"><ele>378.0</ele><time>2026-04-25T16:42:34.41Z</time></trkpt><trkpt lat="31.58078" lon="-8.50366"><ele>378.0</ele><time>2026-04-25T16:42:35.41Z</time></trkpt><trkpt lat="31.5807683" lon="-8.503965"><ele>377.5</ele><time>2026-04-25T16:42:36.41Z</time></trkpt><trkpt lat="31.5807617" lon="-8.50427"><ele>377.0</ele><time>2026-04-25T16:42:37.41Z</time></trkpt><trkpt lat="31.58076" lon="-8.5045833"><ele>377.0</ele><time>2026-04-25T16:42:38.41Z</time></trkpt><trkpt lat="31.5807517" lon="-8.5048933"><ele>377.0</ele><time>2026-04-25T16:42:39.41Z</time></trkpt><trkpt lat="31.5807433" lon="-8.5052067"><ele>377.0</ele><time>2026-04-25T16:42:40.41Z</time></trkpt><trkpt lat="31.58073" lon="-8.5055217"><ele>377.0</ele><time>2026-04-25T16:42:41.41Z</time></trkpt><trkpt lat="31.58072" lon="-8.5058233"><ele>377.0</ele><time>2026-04-25T16:42:42.41Z</time></trkpt><trkpt lat="31.5807167" lon="-8.5061217"><ele>377.0</ele><time>2026-04-25T16:42:43.41Z</time></trkpt><trkpt lat="31.5807067" lon="-8.5064167"><ele>377.5</ele><time>2026-04-25T16:42:44.41Z</time></trkpt><trkpt lat="31.5806983" lon="-8.5067067"><ele>378.0</ele><time>2026-04-25T16:42:45.41Z</time></trkpt><trkpt lat="31.58069" lon="-8.507"><ele>376.5</ele><time>2026-04-25T16:42:46.41Z</time></trkpt><trkpt lat="31.58068" lon="-8.507295"><ele>375.0</ele><time>2026-04-25T16:42:47.41Z</time></trkpt><trkpt lat="31.5806717" lon="-8.507585"><ele>375.0</ele><time>2026-04-25T16:42:48.41Z</time></trkpt><trkpt lat="31.5806633" lon="-8.50788"><ele>375.0</ele><time>2026-04-25T16:42:49.41Z</time></trkpt><trkpt lat="31.580655" lon="-8.50818"><ele>376.5</ele><time>2026-04-25T16:42:50.41Z</time></trkpt><trkpt lat="31.5806483" lon="-8.5084783"><ele>378.0</ele><time>2026-04-25T16:42:51.41Z</time></trkpt><trkpt lat="31.5806433" lon="-8.5087767"><ele>378.0</ele><time>2026-04-25T16:42:52.41Z</time></trkpt><trkpt lat="31.5806367" lon="-8.50908"><ele>378.0</ele><time>2026-04-25T16:42:53.41Z</time></trkpt><trkpt lat="31.580625" lon="-8.5093783"><ele>377.5</ele><time>2026-04-25T16:42:54.41Z</time></trkpt><trkpt lat="31.5806117" lon="-8.5096783"><ele>377.0</ele><time>2026-04-25T16:42:55.41Z</time></trkpt><trkpt lat="31.580605" lon="-8.50998"><ele>377.0</ele><time>2026-04-25T16:42:56.41Z</time></trkpt><trkpt lat="31.5805983" lon="-8.5102783"><ele>377.0</ele><time>2026-04-25T16:42:57.41Z</time></trkpt><trkpt lat="31.5805917" lon="-8.51057"><ele>376.5</ele><time>2026-04-25T16:42:58.41Z</time></trkpt><trkpt lat="31.58058" lon="-8.5108667"><ele>376.0</ele><time>2026-04-25T16:42:59.41Z</time></trkpt><trkpt lat="31.5805733" lon="-8.5111633"><ele>375.5</ele><time>2026-04-25T16:43:00.41Z</time></trkpt><trkpt lat="31.5805683" lon="-8.511465"><ele>375.0</ele><time>2026-04-25T16:43:01.411Z</time></trkpt><trkpt lat="31.5805567" lon="-8.5117633"><ele>375.0</ele><time>2026-04-25T16:43:02.41Z</time></trkpt><trkpt lat="31.5805517" lon="-8.5120583"><ele>375.0</ele><time>2026-04-25T16:43:03.41Z</time></trkpt><trkpt lat="31.5805483" lon="-8.5123433"><ele>376.0</ele><time>2026-04-25T16:43:04.411Z</time></trkpt><trkpt lat="31.5805383" lon="-8.512625"><ele>377.0</ele><time>2026-04-25T16:43:05.41Z</time></trkpt><trkpt lat="31.5805333" lon="-8.5129083"><ele>377.0</ele><time>2026-04-25T16:43:06.41Z</time></trkpt><trkpt lat="31.5805283" lon="-8.5131867"><ele>377.0</ele><time>2026-04-25T16:43:07.41Z</time></trkpt><trkpt lat="31.5805183" lon="-8.5134733"><ele>376.5</ele><time>2026-04-25T16:43:08.41Z</time></trkpt><trkpt lat="31.5805117" lon="-8.5137617"><ele>376.0</ele><time>2026-04-25T16:43:09.41Z</time></trkpt><trkpt lat="31.5805017" lon="-8.51405"><ele>376.0</ele><time>2026-04-25T16:43:10.41Z</time></trkpt><trkpt lat="31.580495" lon="-8.5143417"><ele>376.0</ele><time>2026-04-25T16:43:11.41Z</time></trkpt><trkpt lat="31.58049" lon="-8.514635"><ele>375.5</ele><time>2026-04-25T16:43:12.41Z</time></trkpt><trkpt lat="31.5804817" lon="-8.5149333"><ele>375.0</ele><time>2026-04-25T16:43:13.41Z</time></trkpt><trkpt lat="31.5804733" lon="-8.5152283"><ele>374.5</ele><time>2026-04-25T16:43:14.41Z</time></trkpt><trkpt lat="31.5804633" lon="-8.51553"><ele>374.0</ele><time>2026-04-25T16:43:15.41Z</time></trkpt><trkpt lat="31.5804567" lon="-8.515825"><ele>374.0</ele><time>2026-04-25T16:43:16.41Z</time></trkpt><trkpt lat="31.5804483" lon="-8.5161133"><ele>374.0</ele><time>2026-04-25T16:43:17.41Z</time></trkpt><trkpt lat="31.58044" lon="-8.5164117"><ele>373.5</ele><time>2026-04-25T16:43:18.41Z</time></trkpt><trkpt lat="31.5804317" lon="-8.51671"><ele>373.0</ele><time>2026-04-25T16:43:19.41Z</time></trkpt><trkpt lat="31.5804233" lon="-8.5170067"><ele>372.5</ele><time>2026-04-25T16:43:20.41Z</time></trkpt><trkpt lat="31.5804167" lon="-8.517305"><ele>372.0</ele><time>2026-04-25T16:43:21.41Z</time></trkpt><trkpt lat="31.58041" lon="-8.51761"><ele>371.5</ele><time>2026-04-25T16:43:22.41Z</time></trkpt><trkpt lat="31.5803967" lon="-8.51791"><ele>371.0</ele><time>2026-04-25T16:43:23.41Z</time></trkpt><trkpt lat="31.580385" lon="-8.5182117"><ele>371.0</ele><time>2026-04-25T16:43:24.41Z</time></trkpt><trkpt lat="31.580375" lon="-8.518515"><ele>371.0</ele><time>2026-04-25T16:43:25.41Z</time></trkpt><trkpt lat="31.5803683" lon="-8.5188183"><ele>371.0</ele><time>2026-04-25T16:43:26.41Z</time></trkpt><trkpt lat="31.58036" lon="-8.5191217"><ele>371.0</ele><time>2026-04-25T16:43:27.41Z</time></trkpt><trkpt lat="31.580355" lon="-8.5194217"><ele>372.0</ele><time>2026-04-25T16:43:28.41Z</time></trkpt><trkpt lat="31.5803483" lon="-8.5197233"><ele>373.0</ele><time>2026-04-25T16:43:29.41Z</time></trkpt><trkpt lat="31.5803433" lon="-8.5200267"><ele>373.0</ele><time>2026-04-25T16:43:30.41Z</time></trkpt><trkpt lat="31.5803367" lon="-8.5203267"><ele>373.0</ele><time>2026-04-25T16:43:31.41Z</time></trkpt><trkpt lat="31.5803317" lon="-8.52063"><ele>374.0</ele><time>2026-04-25T16:43:32.41Z</time></trkpt><trkpt lat="31.5803217" lon="-8.5209317"><ele>375.0</ele><time>2026-04-25T16:43:33.41Z</time></trkpt><trkpt lat="31.580315" lon="-8.52123"><ele>374.5</ele><time>2026-04-25T16:43:34.41Z</time></trkpt><trkpt lat="31.58031" lon="-8.521525"><ele>374.0</ele><time>2026-04-25T16:43:35.41Z</time></trkpt><trkpt lat="31.5803" lon="-8.5218267"><ele>374.0</ele><time>2026-04-25T16:43:36.41Z</time></trkpt><trkpt lat="31.5802867" lon="-8.5221283"><ele>374.0</ele><time>2026-04-25T16:43:37.41Z</time></trkpt><trkpt lat="31.5802783" lon="-8.5224233"><ele>374.0</ele><time>2026-04-25T16:43:38.41Z</time></trkpt><trkpt lat="31.58027" lon="-8.5227167"><ele>374.0</ele><time>2026-04-25T16:43:39.41Z</time></trkpt><trkpt lat="31.5802583" lon="-8.5230083"><ele>374.0</ele><time>2026-04-25T16:43:40.41Z</time></trkpt><trkpt lat="31.5802483" lon="-8.5232983"><ele>374.0</ele><time>2026-04-25T16:43:41.411Z</time></trkpt><trkpt lat="31.58024" lon="-8.5235833"><ele>373.5</ele><time>2026-04-25T16:43:42.41Z</time></trkpt><trkpt lat="31.5802333" lon="-8.5238717"><ele>373.0</ele><time>2026-04-25T16:43:43.41Z</time></trkpt><trkpt lat="31.58023" lon="-8.5241567"><ele>373.0</ele><time>2026-04-25T16:43:44.41Z</time></trkpt><trkpt lat="31.580225" lon="-8.5244433"><ele>373.0</ele><time>2026-04-25T16:43:45.41Z</time></trkpt><trkpt lat="31.58022" lon="-8.52473"><ele>373.0</ele><time>2026-04-25T16:43:46.411Z</time></trkpt><trkpt lat="31.580215" lon="-8.525015"><ele>373.0</ele><time>2026-04-25T16:43:47.41Z</time></trkpt><trkpt lat="31.58021" lon="-8.525305"><ele>373.5</ele><time>2026-04-25T16:43:48.41Z</time></trkpt><trkpt lat="31.580205" lon="-8.5255933"><ele>374.0</ele><time>2026-04-25T16:43:49.41Z</time></trkpt><trkpt lat="31.5801983" lon="-8.52589"><ele>374.0</ele><time>2026-04-25T16:43:50.41Z</time></trkpt><trkpt lat="31.580195" lon="-8.5261933"><ele>374.0</ele><time>2026-04-25T16:43:51.41Z</time></trkpt><trkpt lat="31.5801867" lon="-8.5264933"><ele>374.0</ele><time>2026-04-25T16:43:52.41Z</time></trkpt><trkpt lat="31.5801767" lon="-8.526795"><ele>374.0</ele><time>2026-04-25T16:43:53.41Z</time></trkpt><trkpt lat="31.5801667" lon="-8.5271033"><ele>374.0</ele><time>2026-04-25T16:43:54.411Z</time></trkpt><trkpt lat="31.5801617" lon="-8.527415"><ele>374.0</ele><time>2026-04-25T16:43:55.41Z</time></trkpt><trkpt lat="31.5801633" lon="-8.52773"><ele>373.5</ele><time>2026-04-25T16:43:56.41Z</time></trkpt><trkpt lat="31.580165" lon="-8.5280417"><ele>373.0</ele><time>2026-04-25T16:43:57.41Z</time></trkpt><trkpt lat="31.58018" lon="-8.5283533"><ele>373.0</ele><time>2026-04-25T16:43:58.41Z</time></trkpt><trkpt lat="31.5802" lon="-8.5286667"><ele>373.0</ele><time>2026-04-25T16:43:59.41Z</time></trkpt><trkpt lat="31.5802317" lon="-8.52898"><ele>373.0</ele><time>2026-04-25T16:44:00.41Z</time></trkpt><trkpt lat="31.5802617" lon="-8.5292917"><ele>373.0</ele><time>2026-04-25T16:44:01.41Z</time></trkpt><trkpt lat="31.5802933" lon="-8.529605"><ele>374.0</ele><time>2026-04-25T16:44:02.41Z</time></trkpt><trkpt lat="31.5803283" lon="-8.52992"><ele>375.0</ele><time>2026-04-25T16:44:03.41Z</time></trkpt><trkpt lat="31.5803667" lon="-8.5302383"><ele>374.5</ele><time>2026-04-25T16:44:04.41Z</time></trkpt><trkpt lat="31.5804017" lon="-8.5305533"><ele>374.0</ele><time>2026-04-25T16:44:05.41Z</time></trkpt><trkpt lat="31.5804383" lon="-8.5308717"><ele>374.0</ele><time>2026-04-25T16:44:06.41Z</time></trkpt><trkpt lat="31.580475" lon="-8.53119"><ele>374.0</ele><time>2026-04-25T16:44:07.41Z</time></trkpt><trkpt lat="31.5805167" lon="-8.5315117"><ele>373.0</ele><time>2026-04-25T16:44:08.41Z</time></trkpt><trkpt lat="31.58055" lon="-8.531835"><ele>372.0</ele><time>2026-04-25T16:44:09.41Z</time></trkpt><trkpt lat="31.58059" lon="-8.5321617"><ele>372.0</ele><time>2026-04-25T16:44:10.41Z</time></trkpt><trkpt lat="31.5806217" lon="-8.5324883"><ele>372.0</ele><time>2026-04-25T16:44:11.41Z</time></trkpt><trkpt lat="31.5806517" lon="-8.532815"><ele>371.0</ele><time>2026-04-25T16:44:12.41Z</time></trkpt><trkpt lat="31.5806833" lon="-8.5331483"><ele>370.0</ele><time>2026-04-25T16:44:13.41Z</time></trkpt><trkpt lat="31.5807217" lon="-8.5334783"><ele>370.5</ele><time>2026-04-25T16:44:14.41Z</time></trkpt><trkpt lat="31.58076" lon="-8.5337933"><ele>371.0</ele><time>2026-04-25T16:44:15.41Z</time></trkpt><trkpt lat="31.5807917" lon="-8.5340983"><ele>371.0</ele><time>2026-04-25T16:44:16.41Z</time></trkpt><trkpt lat="31.5808267" lon="-8.5344"><ele>371.0</ele><time>2026-04-25T16:44:17.41Z</time></trkpt><trkpt lat="31.5808583" lon="-8.5346983"><ele>370.0</ele><time>2026-04-25T16:44:18.41Z</time></trkpt><trkpt lat="31.5808917" lon="-8.535"><ele>369.0</ele><time>2026-04-25T16:44:19.411Z</time></trkpt><trkpt lat="31.5809233" lon="-8.5353017"><ele>369.5</ele><time>2026-04-25T16:44:20.41Z</time></trkpt><trkpt lat="31.5809583" lon="-8.53561"><ele>370.0</ele><time>2026-04-25T16:44:21.41Z</time></trkpt><trkpt lat="31.580985" lon="-8.5359167"><ele>369.5</ele><time>2026-04-25T16:44:22.41Z</time></trkpt><trkpt lat="31.5810083" lon="-8.53623"><ele>369.0</ele><time>2026-04-25T16:44:23.41Z</time></trkpt><trkpt lat="31.581035" lon="-8.5365483"><ele>369.0</ele><time>2026-04-25T16:44:24.41Z</time></trkpt><trkpt lat="31.581065" lon="-8.5368667"><ele>369.0</ele><time>2026-04-25T16:44:25.41Z</time></trkpt><trkpt lat="31.5811" lon="-8.5371867"><ele>369.0</ele><time>2026-04-25T16:44:26.41Z</time></trkpt><trkpt lat="31.5811317" lon="-8.5375117"><ele>369.0</ele><time>2026-04-25T16:44:27.41Z</time></trkpt><trkpt lat="31.5811767" lon="-8.5378417"><ele>369.0</ele><time>2026-04-25T16:44:28.41Z</time></trkpt><trkpt lat="31.581215" lon="-8.53817"><ele>369.0</ele><time>2026-04-25T16:44:29.411Z</time></trkpt><trkpt lat="31.5812583" lon="-8.5385033"><ele>368.5</ele><time>2026-04-25T16:44:30.41Z</time></trkpt><trkpt lat="31.5813" lon="-8.53884"><ele>368.0</ele><time>2026-04-25T16:44:31.41Z</time></trkpt><trkpt lat="31.58134" lon="-8.5391733"><ele>368.0</ele><time>2026-04-25T16:44:32.41Z</time></trkpt><trkpt lat="31.5813767" lon="-8.5395133"><ele>368.0</ele><time>2026-04-25T16:44:33.41Z</time></trkpt><trkpt lat="31.58142" lon="-8.539855"><ele>367.5</ele><time>2026-04-25T16:44:34.41Z</time></trkpt><trkpt lat="31.5814583" lon="-8.540205"><ele>367.0</ele><time>2026-04-25T16:44:35.41Z</time></trkpt><trkpt lat="31.5814917" lon="-8.5405583"><ele>367.0</ele><time>2026-04-25T16:44:36.41Z</time></trkpt><trkpt lat="31.5815267" lon="-8.5408817"><ele>367.0</ele><time>2026-04-25T16:44:37.41Z</time></trkpt><trkpt lat="31.5815733" lon="-8.5411883"><ele>367.5</ele><time>2026-04-25T16:44:38.41Z</time></trkpt><trkpt lat="31.581605" lon="-8.5415117"><ele>368.0</ele><time>2026-04-25T16:44:39.41Z</time></trkpt><trkpt lat="31.5816383" lon="-8.5418417"><ele>368.0</ele><time>2026-04-25T16:44:40.41Z</time></trkpt><trkpt lat="31.5816683" lon="-8.542175"><ele>368.0</ele><time>2026-04-25T16:44:41.41Z</time></trkpt><trkpt lat="31.5817017" lon="-8.542505"><ele>368.0</ele><time>2026-04-25T16:44:42.41Z</time></trkpt><trkpt lat="31.5817367" lon="-8.5428383"><ele>368.0</ele><time>2026-04-25T16:44:43.41Z</time></trkpt><trkpt lat="31.5817733" lon="-8.543165"><ele>368.0</ele><time>2026-04-25T16:44:44.41Z</time></trkpt><trkpt lat="31.581805" lon="-8.5434767"><ele>368.0</ele><time>2026-04-25T16:44:45.41Z</time></trkpt><trkpt lat="31.58184" lon="-8.5437867"><ele>368.0</ele><time>2026-04-25T16:44:46.41Z</time></trkpt><trkpt lat="31.581875" lon="-8.5441017"><ele>368.0</ele><time>2026-04-25T16:44:47.41Z</time></trkpt><trkpt lat="31.58191" lon="-8.54442"><ele>367.0</ele><time>2026-04-25T16:44:48.41Z</time></trkpt><trkpt lat="31.5819433" lon="-8.5447317"><ele>366.0</ele><time>2026-04-25T16:44:49.41Z</time></trkpt><trkpt lat="31.5819733" lon="-8.54503"><ele>366.0</ele><time>2026-04-25T16:44:50.41Z</time></trkpt><trkpt lat="31.582005" lon="-8.5453267"><ele>366.0</ele><time>2026-04-25T16:44:51.41Z</time></trkpt><trkpt lat="31.5820417" lon="-8.5456217"><ele>364.0</ele><time>2026-04-25T16:44:52.41Z</time></trkpt><trkpt lat="31.5820783" lon="-8.5459133"><ele>362.0</ele><time>2026-04-25T16:44:53.411Z</time></trkpt><trkpt lat="31.5821067" lon="-8.5461917"><ele>362.5</ele><time>2026-04-25T16:44:54.41Z</time></trkpt><trkpt lat="31.5821367" lon="-8.5464667"><ele>363.0</ele><time>2026-04-25T16:44:55.41Z</time></trkpt><trkpt lat="31.582165" lon="-8.546745"><ele>363.0</ele><time>2026-04-25T16:44:56.41Z</time></trkpt><trkpt lat="31.5821983" lon="-8.54702"><ele>363.0</ele><time>2026-04-25T16:44:57.41Z</time></trkpt><trkpt lat="31.5822333" lon="-8.5472917"><ele>362.0</ele><time>2026-04-25T16:44:58.41Z</time></trkpt><trkpt lat="31.5822633" lon="-8.5475567"><ele>361.0</ele><time>2026-04-25T16:44:59.41Z</time></trkpt><trkpt lat="31.5822917" lon="-8.5478183"><ele>360.3333333333333</ele><time>2026-04-25T16:45:00.41Z</time></trkpt><trkpt lat="31.582315" lon="-8.5480783"><ele>359.6666666666667</ele><time>2026-04-25T16:45:01.41Z</time></trkpt><trkpt lat="31.5823433" lon="-8.5483417"><ele>359.0</ele><time>2026-04-25T16:45:02.41Z</time></trkpt><trkpt lat="31.58237" lon="-8.5486083"><ele>359.6666666666667</ele><time>2026-04-25T16:45:03.41Z</time></trkpt><trkpt lat="31.5823983" lon="-8.5488683"><ele>360.3333333333333</ele><time>2026-04-25T16:45:04.41Z</time></trkpt><trkpt lat="31.5824183" lon="-8.5491183"><ele>361.0</ele><time>2026-04-25T16:45:05.41Z</time></trkpt><trkpt lat="31.582445" lon="-8.5493633"><ele>361.66666666666663</ele><time>2026-04-25T16:45:06.41Z</time></trkpt><trkpt lat="31.58247" lon="-8.54961"><ele>362.3333333333333</ele><time>2026-04-25T16:45:07.41Z</time></trkpt><trkpt lat="31.582495" lon="-8.5498517"><ele>363.0</ele><time>2026-04-25T16:45:08.41Z</time></trkpt><trkpt lat="31.5825167" lon="-8.550095"><ele>363.0</ele><time>2026-04-25T16:45:09.41Z</time></trkpt><trkpt lat="31.582545" lon="-8.5503383"><ele>363.0</ele><time>2026-04-25T16:45:10.41Z</time></trkpt><trkpt lat="31.5825717" lon="-8.5505833"><ele>363.0</ele><time>2026-04-25T16:45:11.41Z</time></trkpt><trkpt lat="31.5826033" lon="-8.55083"><ele>362.3333333333333</ele><time>2026-04-25T16:45:12.41Z</time></trkpt><trkpt lat="31.5826333" lon="-8.5510783"><ele>361.66666666666663</ele><time>2026-04-25T16:45:13.41Z</time></trkpt><trkpt lat="31.5826567" lon="-8.5513217"><ele>361.0</ele><time>2026-04-25T16:45:14.41Z</time></trkpt><trkpt lat="31.5826833" lon="-8.5515717"><ele>361.0</ele><time>2026-04-25T16:45:15.41Z</time></trkpt><trkpt lat="31.5827133" lon="-8.551815"><ele>361.0</ele><time>2026-04-25T16:45:16.41Z</time></trkpt><trkpt lat="31.5827367" lon="-8.5520567"><ele>361.0</ele><time>2026-04-25T16:45:17.41Z</time></trkpt><trkpt lat="31.5827683" lon="-8.5523017"><ele>362.0</ele><time>2026-04-25T16:45:18.41Z</time></trkpt><trkpt lat="31.5827967" lon="-8.5525483"><ele>363.0</ele><time>2026-04-25T16:45:19.41Z</time></trkpt><trkpt lat="31.582825" lon="-8.5528"><ele>364.0</ele><time>2026-04-25T16:45:20.41Z</time></trkpt><trkpt lat="31.58285" lon="-8.5530517"><ele>364.0</ele><time>2026-04-25T16:45:21.41Z</time></trkpt><trkpt lat="31.5828767" lon="-8.5533133"><ele>364.0</ele><time>2026-04-25T16:45:22.41Z</time></trkpt><trkpt lat="31.5829017" lon="-8.55357"><ele>364.0</ele><time>2026-04-25T16:45:23.41Z</time></trkpt><trkpt lat="31.5829267" lon="-8.553815"><ele>364.3333333333333</ele><time>2026-04-25T16:45:24.41Z</time></trkpt><trkpt lat="31.582955" lon="-8.5540567"><ele>364.6666666666667</ele><time>2026-04-25T16:45:25.41Z</time></trkpt><trkpt lat="31.58298" lon="-8.55429"><ele>365.0</ele><time>2026-04-25T16:45:26.41Z</time></trkpt><trkpt lat="31.5830067" lon="-8.5545183"><ele>364.6666666666667</ele><time>2026-04-25T16:45:27.41Z</time></trkpt><trkpt lat="31.5830267" lon="-8.5547433"><ele>364.3333333333333</ele><time>2026-04-25T16:45:28.41Z</time></trkpt><trkpt lat="31.5830483" lon="-8.5549783"><ele>364.0</ele><time>2026-04-25T16:45:29.41Z</time></trkpt><trkpt lat="31.5830767" lon="-8.55522"><ele>364.0</ele><time>2026-04-25T16:45:30.41Z</time></trkpt><trkpt lat="31.5831083" lon="-8.555455"><ele>364.0</ele><time>2026-04-25T16:45:31.41Z</time></trkpt><trkpt lat="31.5831383" lon="-8.5556783"><ele>364.0</ele><time>2026-04-25T16:45:32.411Z</time></trkpt><trkpt lat="31.5831667" lon="-8.5558983"><ele>364.0</ele><time>2026-04-25T16:45:33.41Z</time></trkpt><trkpt lat="31.5831933" lon="-8.5561083"><ele>364.0</ele><time>2026-04-25T16:45:34.41Z</time></trkpt><trkpt lat="31.5832117" lon="-8.556315"><ele>364.0</ele><time>2026-04-25T16:45:35.41Z</time></trkpt><trkpt lat="31.583225" lon="-8.5565167"><ele>364.0</ele><time>2026-04-25T16:45:36.41Z</time></trkpt><trkpt lat="31.583245" lon="-8.5567283"><ele>364.0</ele><time>2026-04-25T16:45:37.41Z</time></trkpt><trkpt lat="31.583265" lon="-8.5569717"><ele>364.0</ele><time>2026-04-25T16:45:38.41Z</time></trkpt><trkpt lat="31.5832883" lon="-8.5572383"><ele>364.0</ele><time>2026-04-25T16:45:39.41Z</time></trkpt><trkpt lat="31.5833317" lon="-8.557545"><ele>364.0</ele><time>2026-04-25T16:45:40.41Z</time></trkpt><trkpt lat="31.5833683" lon="-8.5578667"><ele>364.5</ele><time>2026-04-25T16:45:41.41Z</time></trkpt><trkpt lat="31.583405" lon="-8.558215"><ele>365.0</ele><time>2026-04-25T16:45:42.41Z</time></trkpt><trkpt lat="31.5834433" lon="-8.5585783"><ele>364.5</ele><time>2026-04-25T16:45:43.41Z</time></trkpt><trkpt lat="31.58348" lon="-8.558945"><ele>364.0</ele><time>2026-04-25T16:45:44.41Z</time></trkpt><trkpt lat="31.58352" lon="-8.559305"><ele>364.0</ele><time>2026-04-25T16:45:45.41Z</time></trkpt><trkpt lat="31.5835583" lon="-8.5596633"><ele>364.0</ele><time>2026-04-25T16:45:46.41Z</time></trkpt><trkpt lat="31.5836017" lon="-8.5600217"><ele>364.0</ele><time>2026-04-25T16:45:47.411Z</time></trkpt><trkpt lat="31.583645" lon="-8.560365"><ele>364.0</ele><time>2026-04-25T16:45:48.41Z</time></trkpt><trkpt lat="31.5836817" lon="-8.560695"><ele>364.0</ele><time>2026-04-25T16:45:49.41Z</time></trkpt><trkpt lat="31.5837117" lon="-8.5610083"><ele>364.0</ele><time>2026-04-25T16:45:50.41Z</time></trkpt><trkpt lat="31.583745" lon="-8.5613017"><ele>365.0</ele><time>2026-04-25T16:45:51.41Z</time></trkpt><trkpt lat="31.5837767" lon="-8.5615883"><ele>366.0</ele><time>2026-04-25T16:45:52.41Z</time></trkpt><trkpt lat="31.5838083" lon="-8.5618783"><ele>365.5</ele><time>2026-04-25T16:45:53.41Z</time></trkpt><trkpt lat="31.5838383" lon="-8.5621667"><ele>365.0</ele><time>2026-04-25T16:45:54.41Z</time></trkpt><trkpt lat="31.583865" lon="-8.5624533"><ele>365.0</ele><time>2026-04-25T16:45:55.41Z</time></trkpt><trkpt lat="31.583895" lon="-8.56274"><ele>365.0</ele><time>2026-04-25T16:45:56.41Z</time></trkpt><trkpt lat="31.58393" lon="-8.5630267"><ele>363.5</ele><time>2026-04-25T16:45:57.41Z</time></trkpt><trkpt lat="31.5839667" lon="-8.563315"><ele>362.0</ele><time>2026-04-25T16:45:58.411Z</time></trkpt><trkpt lat="31.5840017" lon="-8.5636033"><ele>362.5</ele><time>2026-04-25T16:45:59.41Z</time></trkpt><trkpt lat="31.584035" lon="-8.563895"><ele>363.0</ele><time>2026-04-25T16:46:00.411Z</time></trkpt><trkpt lat="31.58407" lon="-8.5641883"><ele>363.0</ele><time>2026-04-25T16:46:01.41Z</time></trkpt><trkpt lat="31.5840983" lon="-8.5644767"><ele>363.0</ele><time>2026-04-25T16:46:02.41Z</time></trkpt><trkpt lat="31.5841317" lon="-8.5647667"><ele>364.0</ele><time>2026-04-25T16:46:03.41Z</time></trkpt><trkpt lat="31.584165" lon="-8.5650533"><ele>365.0</ele><time>2026-04-25T16:46:04.41Z</time></trkpt><trkpt lat="31.5841917" lon="-8.565345"><ele>364.5</ele><time>2026-04-25T16:46:05.41Z</time></trkpt><trkpt lat="31.584215" lon="-8.5656367"><ele>364.0</ele><time>2026-04-25T16:46:06.41Z</time></trkpt><trkpt lat="31.5842417" lon="-8.5659317"><ele>364.0</ele><time>2026-04-25T16:46:07.41Z</time></trkpt><trkpt lat="31.5842733" lon="-8.5662267"><ele>364.0</ele><time>2026-04-25T16:46:08.41Z</time></trkpt><trkpt lat="31.584305" lon="-8.5665217"><ele>364.0</ele><time>2026-04-25T16:46:09.41Z</time></trkpt><trkpt lat="31.5843383" lon="-8.5668217"><ele>364.0</ele><time>2026-04-25T16:46:10.41Z</time></trkpt><trkpt lat="31.5843683" lon="-8.5671217"><ele>364.5</ele><time>2026-04-25T16:46:11.41Z</time></trkpt><trkpt lat="31.5843967" lon="-8.567425"><ele>365.0</ele><time>2026-04-25T16:46:12.41Z</time></trkpt><trkpt lat="31.5844283" lon="-8.56773"><ele>365.0</ele><time>2026-04-25T16:46:13.41Z</time></trkpt><trkpt lat="31.5844517" lon="-8.5680317"><ele>365.0</ele><time>2026-04-25T16:46:14.41Z</time></trkpt><trkpt lat="31.5844683" lon="-8.5683267"><ele>365.0</ele><time>2026-04-25T16:46:15.41Z</time></trkpt><trkpt lat="31.5844767" lon="-8.5686217"><ele>365.0</ele><time>2026-04-25T16:46:16.41Z</time></trkpt><trkpt lat="31.5844817" lon="-8.56892"><ele>364.5</ele><time>2026-04-25T16:46:17.41Z</time></trkpt><trkpt lat="31.584485" lon="-8.5692167"><ele>364.0</ele><time>2026-04-25T16:46:18.41Z</time></trkpt><trkpt lat="31.5844883" lon="-8.5695217"><ele>364.5</ele><time>2026-04-25T16:46:19.41Z</time></trkpt><trkpt lat="31.584495" lon="-8.569825"><ele>365.0</ele><time>2026-04-25T16:46:20.41Z</time></trkpt><trkpt lat="31.5845" lon="-8.57013"><ele>365.0</ele><time>2026-04-25T16:46:21.41Z</time></trkpt><trkpt lat="31.5845033" lon="-8.570435"><ele>365.0</ele><time>2026-04-25T16:46:22.41Z</time></trkpt><trkpt lat="31.584505" lon="-8.5707417"><ele>365.0</ele><time>2026-04-25T16:46:23.41Z</time></trkpt><trkpt lat="31.5845083" lon="-8.5710483"><ele>365.0</ele><time>2026-04-25T16:46:24.41Z</time></trkpt><trkpt lat="31.5845083" lon="-8.5713517"><ele>365.5</ele><time>2026-04-25T16:46:25.41Z</time></trkpt><trkpt lat="31.58451" lon="-8.5716517"><ele>366.0</ele><time>2026-04-25T16:46:26.41Z</time></trkpt><trkpt lat="31.5845117" lon="-8.571955"><ele>364.0</ele><time>2026-04-25T16:46:27.41Z</time></trkpt><trkpt lat="31.58452" lon="-8.5722583"><ele>362.0</ele><time>2026-04-25T16:46:28.41Z</time></trkpt><trkpt lat="31.58453" lon="-8.5725667"><ele>363.0</ele><time>2026-04-25T16:46:29.41Z</time></trkpt><trkpt lat="31.5845383" lon="-8.5728683"><ele>364.0</ele><time>2026-04-25T16:46:30.41Z</time></trkpt><trkpt lat="31.5845383" lon="-8.5731733"><ele>364.0</ele><time>2026-04-25T16:46:31.41Z</time></trkpt><trkpt lat="31.58454" lon="-8.5734717"><ele>364.0</ele><time>2026-04-25T16:46:32.41Z</time></trkpt><trkpt lat="31.5845483" lon="-8.5737617"><ele>362.5</ele><time>2026-04-25T16:46:33.41Z</time></trkpt><trkpt lat="31.5845517" lon="-8.5740583"><ele>361.0</ele><time>2026-04-25T16:46:34.41Z</time></trkpt><trkpt lat="31.5845567" lon="-8.5743567"><ele>362.0</ele><time>2026-04-25T16:46:35.41Z</time></trkpt><trkpt lat="31.5845617" lon="-8.574655"><ele>363.0</ele><time>2026-04-25T16:46:36.41Z</time></trkpt><trkpt lat="31.58457" lon="-8.5749533"><ele>363.0</ele><time>2026-04-25T16:46:37.41Z</time></trkpt><trkpt lat="31.5845767" lon="-8.575255"><ele>363.0</ele><time>2026-04-25T16:46:38.41Z</time></trkpt><trkpt lat="31.58458" lon="-8.575555"><ele>362.5</ele><time>2026-04-25T16:46:39.41Z</time></trkpt><trkpt lat="31.584585" lon="-8.575855"><ele>362.0</ele><time>2026-04-25T16:46:40.411Z</time></trkpt><trkpt lat="31.584585" lon="-8.57616"><ele>361.5</ele><time>2026-04-25T16:46:41.41Z</time></trkpt><trkpt lat="31.5845867" lon="-8.576465"><ele>361.0</ele><time>2026-04-25T16:46:42.41Z</time></trkpt><trkpt lat="31.5845933" lon="-8.5767717"><ele>361.0</ele><time>2026-04-25T16:46:43.41Z</time></trkpt><trkpt lat="31.5846" lon="-8.5770767"><ele>361.0</ele><time>2026-04-25T16:46:44.41Z</time></trkpt><trkpt lat="31.5846067" lon="-8.5773833"><ele>361.0</ele><time>2026-04-25T16:46:45.41Z</time></trkpt><trkpt lat="31.5846117" lon="-8.5776933"><ele>361.0</ele><time>2026-04-25T16:46:46.41Z</time></trkpt><trkpt lat="31.5846117" lon="-8.5780033"><ele>361.0</ele><time>2026-04-25T16:46:47.411Z</time></trkpt><trkpt lat="31.584615" lon="-8.5783167"><ele>361.0</ele><time>2026-04-25T16:46:48.411Z</time></trkpt><trkpt lat="31.5846217" lon="-8.5786333"><ele>360.5</ele><time>2026-04-25T16:46:49.41Z</time></trkpt><trkpt lat="31.5846267" lon="-8.5789483"><ele>360.0</ele><time>2026-04-25T16:46:50.41Z</time></trkpt><trkpt lat="31.584625" lon="-8.57925"><ele>360.0</ele><time>2026-04-25T16:46:51.41Z</time></trkpt><trkpt lat="31.5846283" lon="-8.5795433"><ele>360.0</ele><time>2026-04-25T16:46:52.41Z</time></trkpt><trkpt lat="31.5846383" lon="-8.57984"><ele>360.0</ele><time>2026-04-25T16:46:53.41Z</time></trkpt><trkpt lat="31.5846383" lon="-8.580145"><ele>360.0</ele><time>2026-04-25T16:46:54.41Z</time></trkpt><trkpt lat="31.5846467" lon="-8.5804583"><ele>359.5</ele><time>2026-04-25T16:46:55.41Z</time></trkpt><trkpt lat="31.5846483" lon="-8.58078"><ele>359.0</ele><time>2026-04-25T16:46:56.41Z</time></trkpt><trkpt lat="31.5846567" lon="-8.5811"><ele>359.0</ele><time>2026-04-25T16:46:57.41Z</time></trkpt><trkpt lat="31.5846617" lon="-8.581425"><ele>359.0</ele><time>2026-04-25T16:46:58.41Z</time></trkpt><trkpt lat="31.5846667" lon="-8.5817517"><ele>359.0</ele><time>2026-04-25T16:46:59.411Z</time></trkpt><trkpt lat="31.5846733" lon="-8.5820733"><ele>359.0</ele><time>2026-04-25T16:47:00.41Z</time></trkpt><trkpt lat="31.5846833" lon="-8.58239"><ele>359.0</ele><time>2026-04-25T16:47:01.41Z</time></trkpt><trkpt lat="31.5846883" lon="-8.5826967"><ele>359.0</ele><time>2026-04-25T16:47:02.41Z</time></trkpt><trkpt lat="31.584695" lon="-8.5830033"><ele>359.0</ele><time>2026-04-25T16:47:03.41Z</time></trkpt><trkpt lat="31.5846967" lon="-8.5833117"><ele>359.0</ele><time>2026-04-25T16:47:04.41Z</time></trkpt><trkpt lat="31.5847017" lon="-8.5836233"><ele>358.5</ele><time>2026-04-25T16:47:05.41Z</time></trkpt><trkpt lat="31.5847067" lon="-8.5839367"><ele>358.0</ele><time>2026-04-25T16:47:06.41Z</time></trkpt><trkpt lat="31.58471" lon="-8.5842517"><ele>358.0</ele><time>2026-04-25T16:47:07.41Z</time></trkpt><trkpt lat="31.5847167" lon="-8.584575"><ele>358.0</ele><time>2026-04-25T16:47:08.41Z</time></trkpt><trkpt lat="31.58472" lon="-8.5848967"><ele>358.0</ele><time>2026-04-25T16:47:09.41Z</time></trkpt><trkpt lat="31.5847283" lon="-8.5852067"><ele>358.0</ele><time>2026-04-25T16:47:10.41Z</time></trkpt><trkpt lat="31.58473" lon="-8.585505"><ele>358.0</ele><time>2026-04-25T16:47:11.41Z</time></trkpt><trkpt lat="31.58474" lon="-8.585805"><ele>358.0</ele><time>2026-04-25T16:47:12.41Z</time></trkpt><trkpt lat="31.5847467" lon="-8.586105"><ele>357.5</ele><time>2026-04-25T16:47:13.41Z</time></trkpt><trkpt lat="31.5847533" lon="-8.5864033"><ele>357.0</ele><time>2026-04-25T16:47:14.41Z</time></trkpt><trkpt lat="31.5847583" lon="-8.58671"><ele>357.0</ele><time>2026-04-25T16:47:15.41Z</time></trkpt><trkpt lat="31.5847583" lon="-8.5870233"><ele>357.0</ele><time>2026-04-25T16:47:16.41Z</time></trkpt><trkpt lat="31.58476" lon="-8.5873383"><ele>357.0</ele><time>2026-04-25T16:47:17.41Z</time></trkpt><trkpt lat="31.584765" lon="-8.5876517"><ele>357.0</ele><time>2026-04-25T16:47:18.41Z</time></trkpt><trkpt lat="31.5847683" lon="-8.58797"><ele>357.0</ele><time>2026-04-25T16:47:19.41Z</time></trkpt><trkpt lat="31.584775" lon="-8.5882917"><ele>357.0</ele><time>2026-04-25T16:47:20.411Z</time></trkpt><trkpt lat="31.5847833" lon="-8.58861"><ele>356.0</ele><time>2026-04-25T16:47:21.41Z</time></trkpt><trkpt lat="31.58479" lon="-8.5889117"><ele>355.0</ele><time>2026-04-25T16:47:22.41Z</time></trkpt><trkpt lat="31.5847967" lon="-8.5892233"><ele>354.5</ele><time>2026-04-25T16:47:23.41Z</time></trkpt><trkpt lat="31.5848033" lon="-8.5895333"><ele>354.0</ele><time>2026-04-25T16:47:24.41Z</time></trkpt><trkpt lat="31.5848033" lon="-8.5898483"><ele>354.0</ele><time>2026-04-25T16:47:25.41Z</time></trkpt><trkpt lat="31.5848083" lon="-8.5901667"><ele>354.0</ele><time>2026-04-25T16:47:26.41Z</time></trkpt><trkpt lat="31.5848083" lon="-8.590485"><ele>354.5</ele><time>2026-04-25T16:47:27.41Z</time></trkpt><trkpt lat="31.58481" lon="-8.5908083"><ele>355.0</ele><time>2026-04-25T16:47:28.41Z</time></trkpt><trkpt lat="31.5848083" lon="-8.59113"><ele>355.5</ele><time>2026-04-25T16:47:29.41Z</time></trkpt><trkpt lat="31.5848083" lon="-8.5914483"><ele>356.0</ele><time>2026-04-25T16:47:30.41Z</time></trkpt><trkpt lat="31.584815" lon="-8.5917717"><ele>356.0</ele><time>2026-04-25T16:47:31.41Z</time></trkpt><trkpt lat="31.584825" lon="-8.592095"><ele>356.0</ele><time>2026-04-25T16:47:32.41Z</time></trkpt><trkpt lat="31.5848317" lon="-8.592425"><ele>356.0</ele><time>2026-04-25T16:47:33.41Z</time></trkpt><trkpt lat="31.5848417" lon="-8.5927517"><ele>356.0</ele><time>2026-04-25T16:47:34.41Z</time></trkpt><trkpt lat="31.5848533" lon="-8.5930783"><ele>356.5</ele><time>2026-04-25T16:47:35.41Z</time></trkpt><trkpt lat="31.5848633" lon="-8.5934067"><ele>357.0</ele><time>2026-04-25T16:47:36.41Z</time></trkpt><trkpt lat="31.5848683" lon="-8.5937367"><ele>357.5</ele><time>2026-04-25T16:47:37.41Z</time></trkpt><trkpt lat="31.5848683" lon="-8.59406"><ele>358.0</ele><time>2026-04-25T16:47:38.41Z</time></trkpt><trkpt lat="31.5848717" lon="-8.5943717"><ele>359.0</ele><time>2026-04-25T16:47:39.41Z</time></trkpt><trkpt lat="31.584875" lon="-8.5946717"><ele>360.0</ele><time>2026-04-25T16:47:40.41Z</time></trkpt><trkpt lat="31.5848783" lon="-8.5949733"><ele>360.0</ele><time>2026-04-25T16:47:41.41Z</time></trkpt><trkpt lat="31.584885" lon="-8.59527"><ele>360.0</ele><time>2026-04-25T16:47:42.41Z</time></trkpt><trkpt lat="31.5848883" lon="-8.5955717"><ele>360.5</ele><time>2026-04-25T16:47:43.41Z</time></trkpt><trkpt lat="31.5848917" lon="-8.5958783"><ele>361.0</ele><time>2026-04-25T16:47:44.41Z</time></trkpt><trkpt lat="31.5848933" lon="-8.5961867"><ele>361.5</ele><time>2026-04-25T16:47:45.41Z</time></trkpt><trkpt lat="31.5848983" lon="-8.5964917"><ele>362.0</ele><time>2026-04-25T16:47:46.41Z</time></trkpt><trkpt lat="31.5849033" lon="-8.5968"><ele>362.5</ele><time>2026-04-25T16:47:47.41Z</time></trkpt><trkpt lat="31.5849117" lon="-8.597115"><ele>363.0</ele><time>2026-04-25T16:47:48.41Z</time></trkpt><trkpt lat="31.5849217" lon="-8.5974333"><ele>363.0</ele><time>2026-04-25T16:47:49.41Z</time></trkpt><trkpt lat="31.5849267" lon="-8.59775"><ele>363.0</ele><time>2026-04-25T16:47:50.41Z</time></trkpt><trkpt lat="31.58493" lon="-8.59807"><ele>362.5</ele><time>2026-04-25T16:47:51.41Z</time></trkpt><trkpt lat="31.5849317" lon="-8.5983867"><ele>362.0</ele><time>2026-04-25T16:47:52.41Z</time></trkpt><trkpt lat="31.5849333" lon="-8.5987117"><ele>363.5</ele><time>2026-04-25T16:47:53.41Z</time></trkpt><trkpt lat="31.58494" lon="-8.59904"><ele>365.0</ele><time>2026-04-25T16:47:54.41Z</time></trkpt><trkpt lat="31.584945" lon="-8.599375"><ele>364.5</ele><time>2026-04-25T16:47:55.41Z</time></trkpt><trkpt lat="31.5849533" lon="-8.5997083"><ele>364.0</ele><time>2026-04-25T16:47:56.41Z</time></trkpt><trkpt lat="31.5849617" lon="-8.60004"><ele>363.0</ele><time>2026-04-25T16:47:57.41Z</time></trkpt><trkpt lat="31.58497" lon="-8.600375"><ele>362.0</ele><time>2026-04-25T16:47:58.41Z</time></trkpt><trkpt lat="31.5849783" lon="-8.6007033"><ele>362.0</ele><time>2026-04-25T16:47:59.41Z</time></trkpt><trkpt lat="31.5849817" lon="-8.601035"><ele>362.0</ele><time>2026-04-25T16:48:00.41Z</time></trkpt><trkpt lat="31.5849883" lon="-8.601365"><ele>362.0</ele><time>2026-04-25T16:48:01.41Z</time></trkpt><trkpt lat="31.584995" lon="-8.6017033"><ele>362.0</ele><time>2026-04-25T16:48:02.41Z</time></trkpt><trkpt lat="31.5849983" lon="-8.602035"><ele>360.5</ele><time>2026-04-25T16:48:03.41Z</time></trkpt><trkpt lat="31.5850067" lon="-8.6023633"><ele>359.0</ele><time>2026-04-25T16:48:04.41Z</time></trkpt><trkpt lat="31.5850133" lon="-8.6026783"><ele>359.5</ele><time>2026-04-25T16:48:05.41Z</time></trkpt><trkpt lat="31.5850167" lon="-8.603"><ele>360.0</ele><time>2026-04-25T16:48:06.41Z</time></trkpt><trkpt lat="31.5850167" lon="-8.60332"><ele>360.0</ele><time>2026-04-25T16:48:07.41Z</time></trkpt><trkpt lat="31.5850183" lon="-8.6036383"><ele>360.0</ele><time>2026-04-25T16:48:08.411Z</time></trkpt><trkpt lat="31.585015" lon="-8.60395"><ele>359.5</ele><time>2026-04-25T16:48:09.41Z</time></trkpt><trkpt lat="31.585015" lon="-8.6042617"><ele>359.0</ele><time>2026-04-25T16:48:10.41Z</time></trkpt><trkpt lat="31.5850067" lon="-8.6045717"><ele>358.0</ele><time>2026-04-25T16:48:11.41Z</time></trkpt><trkpt lat="31.5849967" lon="-8.6048817"><ele>357.0</ele><time>2026-04-25T16:48:12.41Z</time></trkpt><trkpt lat="31.58499" lon="-8.60518"><ele>356.5</ele><time>2026-04-25T16:48:13.41Z</time></trkpt><trkpt lat="31.5849833" lon="-8.6054783"><ele>356.0</ele><time>2026-04-25T16:48:14.41Z</time></trkpt><trkpt lat="31.58498" lon="-8.60578"><ele>356.0</ele><time>2026-04-25T16:48:15.41Z</time></trkpt><trkpt lat="31.5849767" lon="-8.606075"><ele>356.0</ele><time>2026-04-25T16:48:16.41Z</time></trkpt><trkpt lat="31.58497" lon="-8.6063683"><ele>356.5</ele><time>2026-04-25T16:48:17.411Z</time></trkpt><trkpt lat="31.5849667" lon="-8.606665"><ele>357.0</ele><time>2026-04-25T16:48:18.41Z</time></trkpt><trkpt lat="31.5849633" lon="-8.6069667"><ele>356.5</ele><time>2026-04-25T16:48:19.41Z</time></trkpt><trkpt lat="31.5849567" lon="-8.6072633"><ele>356.0</ele><time>2026-04-25T16:48:20.41Z</time></trkpt><trkpt lat="31.58495" lon="-8.607565"><ele>356.5</ele><time>2026-04-25T16:48:21.41Z</time></trkpt><trkpt lat="31.584945" lon="-8.6078667"><ele>357.0</ele><time>2026-04-25T16:48:22.41Z</time></trkpt><trkpt lat="31.584935" lon="-8.60817"><ele>357.0</ele><time>2026-04-25T16:48:23.41Z</time></trkpt><trkpt lat="31.584925" lon="-8.6084717"><ele>357.0</ele><time>2026-04-25T16:48:24.41Z</time></trkpt><trkpt lat="31.584915" lon="-8.6087767"><ele>356.0</ele><time>2026-04-25T16:48:25.41Z</time></trkpt><trkpt lat="31.5849067" lon="-8.6090717"><ele>355.0</ele><time>2026-04-25T16:48:26.411Z</time></trkpt><trkpt lat="31.5848983" lon="-8.6093567"><ele>356.0</ele><time>2026-04-25T16:48:27.41Z</time></trkpt><trkpt lat="31.5848917" lon="-8.60964"><ele>357.0</ele><time>2026-04-25T16:48:28.41Z</time></trkpt><trkpt lat="31.5848867" lon="-8.6099217"><ele>357.0</ele><time>2026-04-25T16:48:29.411Z</time></trkpt><trkpt lat="31.58488" lon="-8.6102017"><ele>357.0</ele><time>2026-04-25T16:48:30.41Z</time></trkpt><trkpt lat="31.584875" lon="-8.610485"><ele>356.5</ele><time>2026-04-25T16:48:31.41Z</time></trkpt><trkpt lat="31.5848683" lon="-8.6107717"><ele>356.0</ele><time>2026-04-25T16:48:32.41Z</time></trkpt><trkpt lat="31.584855" lon="-8.6110567"><ele>355.0</ele><time>2026-04-25T16:48:33.41Z</time></trkpt><trkpt lat="31.584845" lon="-8.611355"><ele>354.0</ele><time>2026-04-25T16:48:34.41Z</time></trkpt><trkpt lat="31.5848383" lon="-8.61165"><ele>354.0</ele><time>2026-04-25T16:48:35.41Z</time></trkpt><trkpt lat="31.5848283" lon="-8.6119467"><ele>354.0</ele><time>2026-04-25T16:48:36.41Z</time></trkpt><trkpt lat="31.5848217" lon="-8.6122367"><ele>354.0</ele><time>2026-04-25T16:48:37.41Z</time></trkpt><trkpt lat="31.5848183" lon="-8.6125267"><ele>354.0</ele><time>2026-04-25T16:48:38.41Z</time></trkpt><trkpt lat="31.58481" lon="-8.6128167"><ele>354.0</ele><time>2026-04-25T16:48:39.41Z</time></trkpt><trkpt lat="31.5848033" lon="-8.6131083"><ele>354.0</ele><time>2026-04-25T16:48:40.41Z</time></trkpt><trkpt lat="31.5847983" lon="-8.613405"><ele>354.0</ele><time>2026-04-25T16:48:41.41Z</time></trkpt><trkpt lat="31.584795" lon="-8.613695"><ele>354.0</ele><time>2026-04-25T16:48:42.41Z</time></trkpt><trkpt lat="31.584785" lon="-8.6139867"><ele>354.0</ele><time>2026-04-25T16:48:43.41Z</time></trkpt><trkpt lat="31.5847817" lon="-8.6142817"><ele>354.0</ele><time>2026-04-25T16:48:44.41Z</time></trkpt><trkpt lat="31.5847767" lon="-8.6145767"><ele>354.0</ele><time>2026-04-25T16:48:45.41Z</time></trkpt><trkpt lat="31.58477" lon="-8.61488"><ele>354.0</ele><time>2026-04-25T16:48:46.41Z</time></trkpt><trkpt lat="31.5847667" lon="-8.6151717"><ele>353.0</ele><time>2026-04-25T16:48:47.41Z</time></trkpt><trkpt lat="31.5847567" lon="-8.615465"><ele>352.0</ele><time>2026-04-25T16:48:48.41Z</time></trkpt><trkpt lat="31.5847467" lon="-8.6157617"><ele>352.0</ele><time>2026-04-25T16:48:49.41Z</time></trkpt><trkpt lat="31.5847383" lon="-8.61606"><ele>352.0</ele><time>2026-04-25T16:48:50.41Z</time></trkpt><trkpt lat="31.58473" lon="-8.6163583"><ele>352.5</ele><time>2026-04-25T16:48:51.41Z</time></trkpt><trkpt lat="31.5847217" lon="-8.6166533"><ele>353.0</ele><time>2026-04-25T16:48:52.41Z</time></trkpt><trkpt lat="31.584715" lon="-8.61695"><ele>353.5</ele><time>2026-04-25T16:48:53.41Z</time></trkpt><trkpt lat="31.5847083" lon="-8.617245"><ele>354.0</ele><time>2026-04-25T16:48:54.41Z</time></trkpt><trkpt lat="31.5847017" lon="-8.6175417"><ele>354.0</ele><time>2026-04-25T16:48:55.41Z</time></trkpt><trkpt lat="31.584695" lon="-8.6178417"><ele>354.0</ele><time>2026-04-25T16:48:56.41Z</time></trkpt><trkpt lat="31.5846867" lon="-8.6181383"><ele>354.0</ele><time>2026-04-25T16:48:57.41Z</time></trkpt><trkpt lat="31.584675" lon="-8.6184383"><ele>354.0</ele><time>2026-04-25T16:48:58.41Z</time></trkpt><trkpt lat="31.5846667" lon="-8.6187367"><ele>354.0</ele><time>2026-04-25T16:48:59.41Z</time></trkpt><trkpt lat="31.5846633" lon="-8.6190367"><ele>354.0</ele><time>2026-04-25T16:49:00.41Z</time></trkpt><trkpt lat="31.5846533" lon="-8.6193367"><ele>354.5</ele><time>2026-04-25T16:49:01.41Z</time></trkpt><trkpt lat="31.5846483" lon="-8.6196433"><ele>355.0</ele><time>2026-04-25T16:49:02.411Z</time></trkpt><trkpt lat="31.5846417" lon="-8.6199467"><ele>355.0</ele><time>2026-04-25T16:49:03.41Z</time></trkpt><trkpt lat="31.5846333" lon="-8.6202383"><ele>355.0</ele><time>2026-04-25T16:49:04.41Z</time></trkpt><trkpt lat="31.584625" lon="-8.6205183"><ele>355.0</ele><time>2026-04-25T16:49:05.41Z</time></trkpt><trkpt lat="31.5846167" lon="-8.6208"><ele>355.0</ele><time>2026-04-25T16:49:06.41Z</time></trkpt><trkpt lat="31.5846117" lon="-8.6210817"><ele>354.0</ele><time>2026-04-25T16:49:07.409Z</time></trkpt><trkpt lat="31.5846067" lon="-8.6213667"><ele>353.0</ele><time>2026-04-25T16:49:08.409Z</time></trkpt><trkpt lat="31.584605" lon="-8.6216617"><ele>353.0</ele><time>2026-04-25T16:49:09.409Z</time></trkpt><trkpt lat="31.5845983" lon="-8.6219567"><ele>353.0</ele><time>2026-04-25T16:49:10.409Z</time></trkpt><trkpt lat="31.5845917" lon="-8.6222517"><ele>353.0</ele><time>2026-04-25T16:49:11.409Z</time></trkpt><trkpt lat="31.5845883" lon="-8.6225567"><ele>353.0</ele><time>2026-04-25T16:49:12.409Z</time></trkpt><trkpt lat="31.5845767" lon="-8.622865"><ele>353.5</ele><time>2026-04-25T16:49:13.409Z</time></trkpt><trkpt lat="31.5845667" lon="-8.62317"><ele>354.0</ele><time>2026-04-25T16:49:14.409Z</time></trkpt><trkpt lat="31.58455" lon="-8.62348"><ele>352.5</ele><time>2026-04-25T16:49:15.409Z</time></trkpt><trkpt lat="31.5845383" lon="-8.623795"><ele>351.0</ele><time>2026-04-25T16:49:16.409Z</time></trkpt><trkpt lat="31.584535" lon="-8.6241133"><ele>351.0</ele><time>2026-04-25T16:49:17.409Z</time></trkpt><trkpt lat="31.5845367" lon="-8.6244333"><ele>351.0</ele><time>2026-04-25T16:49:18.409Z</time></trkpt><trkpt lat="31.5845367" lon="-8.6247417"><ele>351.0</ele><time>2026-04-25T16:49:19.409Z</time></trkpt><trkpt lat="31.5845283" lon="-8.6250367"><ele>351.0</ele><time>2026-04-25T16:49:20.409Z</time></trkpt><trkpt lat="31.5845183" lon="-8.6253267"><ele>351.0</ele><time>2026-04-25T16:49:21.409Z</time></trkpt><trkpt lat="31.584505" lon="-8.6256217"><ele>351.0</ele><time>2026-04-25T16:49:22.409Z</time></trkpt><trkpt lat="31.5845" lon="-8.6259133"><ele>350.0</ele><time>2026-04-25T16:49:23.409Z</time></trkpt><trkpt lat="31.5844967" lon="-8.6262083"><ele>349.0</ele><time>2026-04-25T16:49:24.41Z</time></trkpt><trkpt lat="31.5844933" lon="-8.6265017"><ele>349.0</ele><time>2026-04-25T16:49:25.409Z</time></trkpt><trkpt lat="31.5844867" lon="-8.6267983"><ele>349.0</ele><time>2026-04-25T16:49:26.409Z</time></trkpt><trkpt lat="31.58448" lon="-8.6270983"><ele>349.0</ele><time>2026-04-25T16:49:27.409Z</time></trkpt><trkpt lat="31.584475" lon="-8.627395"><ele>349.0</ele><time>2026-04-25T16:49:28.409Z</time></trkpt><trkpt lat="31.5844683" lon="-8.6276967"><ele>349.0</ele><time>2026-04-25T16:49:29.409Z</time></trkpt><trkpt lat="31.5844617" lon="-8.628"><ele>349.0</ele><time>2026-04-25T16:49:30.409Z</time></trkpt><trkpt lat="31.58445" lon="-8.6283017"><ele>349.0</ele><time>2026-04-25T16:49:31.409Z</time></trkpt><trkpt lat="31.58444" lon="-8.6286033"><ele>349.0</ele><time>2026-04-25T16:49:32.409Z</time></trkpt><trkpt lat="31.5844317" lon="-8.62891"><ele>349.0</ele><time>2026-04-25T16:49:33.409Z</time></trkpt><trkpt lat="31.584425" lon="-8.6292183"><ele>349.0</ele><time>2026-04-25T16:49:34.41Z</time></trkpt><trkpt lat="31.5844167" lon="-8.6295167"><ele>348.5</ele><time>2026-04-25T16:49:35.409Z</time></trkpt><trkpt lat="31.58441" lon="-8.6297983"><ele>348.0</ele><time>2026-04-25T16:49:36.409Z</time></trkpt><trkpt lat="31.5844033" lon="-8.6300817"><ele>346.5</ele><time>2026-04-25T16:49:37.409Z</time></trkpt><trkpt lat="31.5843917" lon="-8.630365"><ele>345.0</ele><time>2026-04-25T16:49:38.409Z</time></trkpt><trkpt lat="31.5843817" lon="-8.6306483"><ele>345.0</ele><time>2026-04-25T16:49:39.409Z</time></trkpt><trkpt lat="31.5843683" lon="-8.630935"><ele>345.0</ele><time>2026-04-25T16:49:40.409Z</time></trkpt><trkpt lat="31.5843483" lon="-8.6312267"><ele>346.0</ele><time>2026-04-25T16:49:41.409Z</time></trkpt><trkpt lat="31.584325" lon="-8.63151"><ele>347.0</ele><time>2026-04-25T16:49:42.409Z</time></trkpt><trkpt lat="31.5843" lon="-8.63179"><ele>347.0</ele><time>2026-04-25T16:49:43.409Z</time></trkpt><trkpt lat="31.5842717" lon="-8.6320717"><ele>347.0</ele><time>2026-04-25T16:49:44.409Z</time></trkpt><trkpt lat="31.584245" lon="-8.6323617"><ele>347.0</ele><time>2026-04-25T16:49:45.409Z</time></trkpt><trkpt lat="31.5842167" lon="-8.6326567"><ele>347.0</ele><time>2026-04-25T16:49:46.409Z</time></trkpt><trkpt lat="31.584175" lon="-8.6329517"><ele>346.5</ele><time>2026-04-25T16:49:47.409Z</time></trkpt><trkpt lat="31.5841317" lon="-8.63325"><ele>346.0</ele><time>2026-04-25T16:49:48.409Z</time></trkpt><trkpt lat="31.584085" lon="-8.633555"><ele>345.5</ele><time>2026-04-25T16:49:49.409Z</time></trkpt><trkpt lat="31.5840367" lon="-8.6338567"><ele>345.0</ele><time>2026-04-25T16:49:50.409Z</time></trkpt><trkpt lat="31.5839833" lon="-8.634165"><ele>344.5</ele><time>2026-04-25T16:49:51.41Z</time></trkpt><trkpt lat="31.5839333" lon="-8.6344767"><ele>344.0</ele><time>2026-04-25T16:49:52.409Z</time></trkpt><trkpt lat="31.5838733" lon="-8.6347867"><ele>344.0</ele><time>2026-04-25T16:49:53.409Z</time></trkpt><trkpt lat="31.5838117" lon="-8.635095"><ele>344.0</ele><time>2026-04-25T16:49:54.409Z</time></trkpt><trkpt lat="31.5837567" lon="-8.6354117"><ele>344.0</ele><time>2026-04-25T16:49:55.409Z</time></trkpt><trkpt lat="31.583695" lon="-8.63573"><ele>344.0</ele><time>2026-04-25T16:49:56.409Z</time></trkpt><trkpt lat="31.5836317" lon="-8.6360417"><ele>345.0</ele><time>2026-04-25T16:49:57.409Z</time></trkpt><trkpt lat="31.5835667" lon="-8.6363533"><ele>346.0</ele><time>2026-04-25T16:49:58.409Z</time></trkpt><trkpt lat="31.5835067" lon="-8.6366633"><ele>346.0</ele><time>2026-04-25T16:49:59.409Z</time></trkpt><trkpt lat="31.5834517" lon="-8.636965"><ele>346.0</ele><time>2026-04-25T16:50:00.409Z</time></trkpt><trkpt lat="31.5833967" lon="-8.6372667"><ele>345.5</ele><time>2026-04-25T16:50:01.409Z</time></trkpt><trkpt lat="31.58334" lon="-8.6375633"><ele>345.0</ele><time>2026-04-25T16:50:02.41Z</time></trkpt><trkpt lat="31.583285" lon="-8.6378583"><ele>343.5</ele><time>2026-04-25T16:50:03.409Z</time></trkpt><trkpt lat="31.5832317" lon="-8.6381483"><ele>342.0</ele><time>2026-04-25T16:50:04.409Z</time></trkpt><trkpt lat="31.5831733" lon="-8.638445"><ele>343.0</ele><time>2026-04-25T16:50:05.409Z</time></trkpt><trkpt lat="31.5831133" lon="-8.638745"><ele>344.0</ele><time>2026-04-25T16:50:06.409Z</time></trkpt><trkpt lat="31.5830583" lon="-8.6390433"><ele>344.0</ele><time>2026-04-25T16:50:07.409Z</time></trkpt><trkpt lat="31.583" lon="-8.6393417"><ele>344.0</ele><time>2026-04-25T16:50:08.409Z</time></trkpt><trkpt lat="31.5829417" lon="-8.63964"><ele>345.0</ele><time>2026-04-25T16:50:09.409Z</time></trkpt><trkpt lat="31.582885" lon="-8.6399417"><ele>346.0</ele><time>2026-04-25T16:50:10.409Z</time></trkpt><trkpt lat="31.582825" lon="-8.6402467"><ele>346.0</ele><time>2026-04-25T16:50:11.409Z</time></trkpt><trkpt lat="31.58277" lon="-8.6405517"><ele>346.0</ele><time>2026-04-25T16:50:12.409Z</time></trkpt><trkpt lat="31.5827133" lon="-8.6408617"><ele>345.0</ele><time>2026-04-25T16:50:13.409Z</time></trkpt><trkpt lat="31.5826567" lon="-8.6411683"><ele>344.0</ele><time>2026-04-25T16:50:14.409Z</time></trkpt><trkpt lat="31.5826017" lon="-8.6414767"><ele>344.0</ele><time>2026-04-25T16:50:15.409Z</time></trkpt><trkpt lat="31.5825417" lon="-8.6417867"><ele>344.0</ele><time>2026-04-25T16:50:16.409Z</time></trkpt><trkpt lat="31.5824833" lon="-8.6420967"><ele>344.0</ele><time>2026-04-25T16:50:17.409Z</time></trkpt><trkpt lat="31.582425" lon="-8.6424083"><ele>344.0</ele><time>2026-04-25T16:50:18.409Z</time></trkpt><trkpt lat="31.5823717" lon="-8.6427083"><ele>344.5</ele><time>2026-04-25T16:50:19.409Z</time></trkpt><trkpt lat="31.5823183" lon="-8.6429933"><ele>345.0</ele><time>2026-04-25T16:50:20.409Z</time></trkpt><trkpt lat="31.5822617" lon="-8.643265"><ele>345.0</ele><time>2026-04-25T16:50:21.409Z</time></trkpt><trkpt lat="31.5822083" lon="-8.6435383"><ele>345.0</ele><time>2026-04-25T16:50:22.409Z</time></trkpt><trkpt lat="31.5821533" lon="-8.6438117"><ele>345.5</ele><time>2026-04-25T16:50:23.409Z</time></trkpt><trkpt lat="31.5821017" lon="-8.6440867"><ele>346.0</ele><time>2026-04-25T16:50:24.409Z</time></trkpt><trkpt lat="31.5820517" lon="-8.6443617"><ele>344.0</ele><time>2026-04-25T16:50:25.409Z</time></trkpt><trkpt lat="31.582" lon="-8.6446317"><ele>342.0</ele><time>2026-04-25T16:50:26.409Z</time></trkpt><trkpt lat="31.581945" lon="-8.6449067"><ele>342.0</ele><time>2026-04-25T16:50:27.409Z</time></trkpt><trkpt lat="31.58189" lon="-8.64518"><ele>342.0</ele><time>2026-04-25T16:50:28.409Z</time></trkpt><trkpt lat="31.5818383" lon="-8.6454517"><ele>342.5</ele><time>2026-04-25T16:50:29.409Z</time></trkpt><trkpt lat="31.5817883" lon="-8.6457217"><ele>343.0</ele><time>2026-04-25T16:50:30.409Z</time></trkpt><trkpt lat="31.5817383" lon="-8.6459817"><ele>342.66666666666663</ele><time>2026-04-25T16:50:31.409Z</time></trkpt><trkpt lat="31.5816917" lon="-8.646235"><ele>342.3333333333333</ele><time>2026-04-25T16:50:32.409Z</time></trkpt><trkpt lat="31.5816417" lon="-8.646495"><ele>342.0</ele><time>2026-04-25T16:50:33.409Z</time></trkpt><trkpt lat="31.581595" lon="-8.646755"><ele>341.0</ele><time>2026-04-25T16:50:34.409Z</time></trkpt><trkpt lat="31.5815433" lon="-8.64702"><ele>340.0</ele><time>2026-04-25T16:50:35.409Z</time></trkpt><trkpt lat="31.5814917" lon="-8.6472817"><ele>340.0</ele><time>2026-04-25T16:50:36.409Z</time></trkpt><trkpt lat="31.5814433" lon="-8.647545"><ele>340.0</ele><time>2026-04-25T16:50:37.409Z</time></trkpt><trkpt lat="31.5813933" lon="-8.6478133"><ele>340.5</ele><time>2026-04-25T16:50:38.409Z</time></trkpt><trkpt lat="31.5813383" lon="-8.64808"><ele>341.0</ele><time>2026-04-25T16:50:39.409Z</time></trkpt><trkpt lat="31.581285" lon="-8.6483533"><ele>340.5</ele><time>2026-04-25T16:50:40.409Z</time></trkpt><trkpt lat="31.5812283" lon="-8.64863"><ele>340.0</ele><time>2026-04-25T16:50:41.409Z</time></trkpt><trkpt lat="31.581175" lon="-8.6489033"><ele>340.0</ele><time>2026-04-25T16:50:42.409Z</time></trkpt><trkpt lat="31.5811217" lon="-8.6491817"><ele>340.0</ele><time>2026-04-25T16:50:43.409Z</time></trkpt><trkpt lat="31.581065" lon="-8.6494617"><ele>340.0</ele><time>2026-04-25T16:50:44.409Z</time></trkpt><trkpt lat="31.581015" lon="-8.64974"><ele>340.0</ele><time>2026-04-25T16:50:45.409Z</time></trkpt><trkpt lat="31.580965" lon="-8.650015"><ele>340.0</ele><time>2026-04-25T16:50:46.409Z</time></trkpt><trkpt lat="31.580915" lon="-8.6502733"><ele>340.0</ele><time>2026-04-25T16:50:47.409Z</time></trkpt><trkpt lat="31.5808667" lon="-8.6505283"><ele>340.0</ele><time>2026-04-25T16:50:48.409Z</time></trkpt><trkpt lat="31.5808217" lon="-8.6507867"><ele>339.0</ele><time>2026-04-25T16:50:49.409Z</time></trkpt><trkpt lat="31.580775" lon="-8.6510433"><ele>338.0</ele><time>2026-04-25T16:50:50.409Z</time></trkpt><trkpt lat="31.5807283" lon="-8.651305"><ele>338.0</ele><time>2026-04-25T16:50:51.409Z</time></trkpt><trkpt lat="31.5806767" lon="-8.6515633"><ele>338.0</ele><time>2026-04-25T16:50:52.409Z</time></trkpt><trkpt lat="31.5806317" lon="-8.6518167"><ele>338.0</ele><time>2026-04-25T16:50:53.409Z</time></trkpt><trkpt lat="31.5805817" lon="-8.65207"><ele>337.5</ele><time>2026-04-25T16:50:54.409Z</time></trkpt><trkpt lat="31.5805283" lon="-8.652335"><ele>337.0</ele><time>2026-04-25T16:50:55.409Z</time></trkpt><trkpt lat="31.5804783" lon="-8.6526033"><ele>338.0</ele><time>2026-04-25T16:50:56.409Z</time></trkpt><trkpt lat="31.5804233" lon="-8.65288"><ele>339.0</ele><time>2026-04-25T16:50:57.409Z</time></trkpt><trkpt lat="31.5803717" lon="-8.6531583"><ele>339.0</ele><time>2026-04-25T16:50:58.409Z</time></trkpt><trkpt lat="31.5803133" lon="-8.6534433"><ele>339.0</ele><time>2026-04-25T16:50:59.409Z</time></trkpt><trkpt lat="31.5802617" lon="-8.6537233"><ele>339.5</ele><time>2026-04-25T16:51:00.409Z</time></trkpt><trkpt lat="31.5802067" lon="-8.6540017"><ele>340.0</ele><time>2026-04-25T16:51:01.409Z</time></trkpt><trkpt lat="31.580155" lon="-8.654275"><ele>339.5</ele><time>2026-04-25T16:51:02.409Z</time></trkpt><trkpt lat="31.5800983" lon="-8.6545517"><ele>339.0</ele><time>2026-04-25T16:51:03.409Z</time></trkpt><trkpt lat="31.5800467" lon="-8.654825"><ele>339.0</ele><time>2026-04-25T16:51:04.41Z</time></trkpt><trkpt lat="31.579995" lon="-8.6550967"><ele>339.0</ele><time>2026-04-25T16:51:05.409Z</time></trkpt><trkpt lat="31.5799417" lon="-8.65537"><ele>338.0</ele><time>2026-04-25T16:51:06.41Z</time></trkpt><trkpt lat="31.57989" lon="-8.6556483"><ele>337.0</ele><time>2026-04-25T16:51:07.409Z</time></trkpt><trkpt lat="31.57984" lon="-8.6559217"><ele>336.0</ele><time>2026-04-25T16:51:08.409Z</time></trkpt><trkpt lat="31.5797867" lon="-8.6561933"><ele>335.0</ele><time>2026-04-25T16:51:09.409Z</time></trkpt><trkpt lat="31.5797367" lon="-8.656475"><ele>335.0</ele><time>2026-04-25T16:51:10.409Z</time></trkpt><trkpt lat="31.5796833" lon="-8.656755"><ele>335.0</ele><time>2026-04-25T16:51:11.409Z</time></trkpt><trkpt lat="31.57963" lon="-8.65703"><ele>335.0</ele><time>2026-04-25T16:51:12.409Z</time></trkpt><trkpt lat="31.579575" lon="-8.65731"><ele>335.0</ele><time>2026-04-25T16:51:13.409Z</time></trkpt><trkpt lat="31.5795183" lon="-8.6575867"><ele>336.5</ele><time>2026-04-25T16:51:14.409Z</time></trkpt><trkpt lat="31.579465" lon="-8.6578567"><ele>338.0</ele><time>2026-04-25T16:51:15.409Z</time></trkpt><trkpt lat="31.5794133" lon="-8.65812"><ele>338.0</ele><time>2026-04-25T16:51:16.409Z</time></trkpt><trkpt lat="31.5793683" lon="-8.65839"><ele>338.0</ele><time>2026-04-25T16:51:17.409Z</time></trkpt><trkpt lat="31.579315" lon="-8.6586617"><ele>337.5</ele><time>2026-04-25T16:51:18.409Z</time></trkpt><trkpt lat="31.57926" lon="-8.6589333"><ele>337.0</ele><time>2026-04-25T16:51:19.409Z</time></trkpt><trkpt lat="31.5792083" lon="-8.6592067"><ele>337.0</ele><time>2026-04-25T16:51:20.41Z</time></trkpt><trkpt lat="31.5791567" lon="-8.659485"><ele>337.0</ele><time>2026-04-25T16:51:21.41Z</time></trkpt><trkpt lat="31.5791017" lon="-8.65976"><ele>337.0</ele><time>2026-04-25T16:51:22.409Z</time></trkpt><trkpt lat="31.5790467" lon="-8.660045"><ele>337.0</ele><time>2026-04-25T16:51:23.41Z</time></trkpt><trkpt lat="31.5789933" lon="-8.660325"><ele>336.5</ele><time>2026-04-25T16:51:24.409Z</time></trkpt><trkpt lat="31.57894" lon="-8.6605983"><ele>336.0</ele><time>2026-04-25T16:51:25.409Z</time></trkpt><trkpt lat="31.57889" lon="-8.6608617"><ele>336.5</ele><time>2026-04-25T16:51:26.409Z</time></trkpt><trkpt lat="31.5788417" lon="-8.661125"><ele>337.0</ele><time>2026-04-25T16:51:27.409Z</time></trkpt><trkpt lat="31.578795" lon="-8.6613833"><ele>337.0</ele><time>2026-04-25T16:51:28.409Z</time></trkpt><trkpt lat="31.5787433" lon="-8.6616433"><ele>337.0</ele><time>2026-04-25T16:51:29.409Z</time></trkpt><trkpt lat="31.578695" lon="-8.6619067"><ele>338.0</ele><time>2026-04-25T16:51:30.409Z</time></trkpt><trkpt lat="31.5786467" lon="-8.66217"><ele>339.0</ele><time>2026-04-25T16:51:31.409Z</time></trkpt><trkpt lat="31.5785967" lon="-8.6624367"><ele>339.0</ele><time>2026-04-25T16:51:32.409Z</time></trkpt><trkpt lat="31.5785417" lon="-8.6627083"><ele>339.0</ele><time>2026-04-25T16:51:33.409Z</time></trkpt><trkpt lat="31.5784867" lon="-8.66298"><ele>339.5</ele><time>2026-04-25T16:51:34.409Z</time></trkpt><trkpt lat="31.578435" lon="-8.6632467"><ele>340.0</ele><time>2026-04-25T16:51:35.409Z</time></trkpt><trkpt lat="31.5783817" lon="-8.6635133"><ele>337.5</ele><time>2026-04-25T16:51:36.409Z</time></trkpt><trkpt lat="31.5783317" lon="-8.6637783"><ele>335.0</ele><time>2026-04-25T16:51:37.409Z</time></trkpt><trkpt lat="31.5782767" lon="-8.6640417"><ele>335.0</ele><time>2026-04-25T16:51:38.409Z</time></trkpt><trkpt lat="31.578225" lon="-8.6643133"><ele>335.0</ele><time>2026-04-25T16:51:39.41Z</time></trkpt><trkpt lat="31.5781733" lon="-8.6645833"><ele>335.0</ele><time>2026-04-25T16:51:40.409Z</time></trkpt><trkpt lat="31.5781183" lon="-8.66486"><ele>335.0</ele><time>2026-04-25T16:51:41.409Z</time></trkpt><trkpt lat="31.5780617" lon="-8.6651383"><ele>335.0</ele><time>2026-04-25T16:51:42.409Z</time></trkpt><trkpt lat="31.5780083" lon="-8.6654233"><ele>335.0</ele><time>2026-04-25T16:51:43.409Z</time></trkpt><trkpt lat="31.5779483" lon="-8.6656967"><ele>335.0</ele><time>2026-04-25T16:51:44.409Z</time></trkpt><trkpt lat="31.5778917" lon="-8.6659667"><ele>335.0</ele><time>2026-04-25T16:51:45.409Z</time></trkpt><trkpt lat="31.57784" lon="-8.6662467"><ele>334.5</ele><time>2026-04-25T16:51:46.409Z</time></trkpt><trkpt lat="31.5777833" lon="-8.6665283"><ele>334.0</ele><time>2026-04-25T16:51:47.409Z</time></trkpt><trkpt lat="31.5777267" lon="-8.6668117"><ele>333.0</ele><time>2026-04-25T16:51:48.409Z</time></trkpt><trkpt lat="31.5776767" lon="-8.6670867"><ele>332.0</ele><time>2026-04-25T16:51:49.409Z</time></trkpt><trkpt lat="31.5776267" lon="-8.6673533"><ele>332.0</ele><time>2026-04-25T16:51:50.409Z</time></trkpt><trkpt lat="31.5775767" lon="-8.6676133"><ele>332.0</ele><time>2026-04-25T16:51:51.409Z</time></trkpt><trkpt lat="31.5775233" lon="-8.6678717"><ele>332.5</ele><time>2026-04-25T16:51:52.409Z</time></trkpt><trkpt lat="31.577475" lon="-8.668135"><ele>333.0</ele><time>2026-04-25T16:51:53.409Z</time></trkpt><trkpt lat="31.5774233" lon="-8.6684"><ele>332.5</ele><time>2026-04-25T16:51:54.409Z</time></trkpt><trkpt lat="31.57737" lon="-8.668665"><ele>332.0</ele><time>2026-04-25T16:51:55.409Z</time></trkpt><trkpt lat="31.5773183" lon="-8.668935"><ele>332.0</ele><time>2026-04-25T16:51:56.409Z</time></trkpt><trkpt lat="31.5772633" lon="-8.66921"><ele>332.0</ele><time>2026-04-25T16:51:57.409Z</time></trkpt><trkpt lat="31.5772117" lon="-8.66949"><ele>332.0</ele><time>2026-04-25T16:51:58.409Z</time></trkpt><trkpt lat="31.5771583" lon="-8.6697717"><ele>332.0</ele><time>2026-04-25T16:51:59.409Z</time></trkpt><trkpt lat="31.5771067" lon="-8.6700433"><ele>331.5</ele><time>2026-04-25T16:52:00.41Z</time></trkpt><trkpt lat="31.5770517" lon="-8.6703083"><ele>331.0</ele><time>2026-04-25T16:52:01.409Z</time></trkpt><trkpt lat="31.5769967" lon="-8.6705733"><ele>330.5</ele><time>2026-04-25T16:52:02.409Z</time></trkpt><trkpt lat="31.5769483" lon="-8.67084"><ele>330.0</ele><time>2026-04-25T16:52:03.409Z</time></trkpt><trkpt lat="31.5768933" lon="-8.671105"><ele>330.5</ele><time>2026-04-25T16:52:04.409Z</time></trkpt><trkpt lat="31.57684" lon="-8.67138"><ele>331.0</ele><time>2026-04-25T16:52:05.409Z</time></trkpt><trkpt lat="31.5767917" lon="-8.67165"><ele>331.0</ele><time>2026-04-25T16:52:06.409Z</time></trkpt><trkpt lat="31.5767367" lon="-8.6719233"><ele>331.0</ele><time>2026-04-25T16:52:07.409Z</time></trkpt><trkpt lat="31.576685" lon="-8.6722"><ele>330.0</ele><time>2026-04-25T16:52:08.409Z</time></trkpt><trkpt lat="31.576635" lon="-8.67247"><ele>329.0</ele><time>2026-04-25T16:52:09.409Z</time></trkpt><trkpt lat="31.5765817" lon="-8.6727317"><ele>330.0</ele><time>2026-04-25T16:52:10.409Z</time></trkpt><trkpt lat="31.5765317" lon="-8.673"><ele>331.0</ele><time>2026-04-25T16:52:11.409Z</time></trkpt><trkpt lat="31.5764767" lon="-8.6732633"><ele>331.0</ele><time>2026-04-25T16:52:12.409Z</time></trkpt><trkpt lat="31.576425" lon="-8.673535"><ele>331.0</ele><time>2026-04-25T16:52:13.409Z</time></trkpt><trkpt lat="31.5763717" lon="-8.6738017"><ele>331.5</ele><time>2026-04-25T16:52:14.409Z</time></trkpt><trkpt lat="31.5763167" lon="-8.674075"><ele>332.0</ele><time>2026-04-25T16:52:15.409Z</time></trkpt><trkpt lat="31.5762667" lon="-8.67434"><ele>332.5</ele><time>2026-04-25T16:52:16.409Z</time></trkpt><trkpt lat="31.5762133" lon="-8.6746117"><ele>333.0</ele><time>2026-04-25T16:52:17.409Z</time></trkpt><trkpt lat="31.5761567" lon="-8.6748817"><ele>334.0</ele><time>2026-04-25T16:52:18.409Z</time></trkpt><trkpt lat="31.5761033" lon="-8.6751533"><ele>335.0</ele><time>2026-04-25T16:52:19.409Z</time></trkpt><trkpt lat="31.5760483" lon="-8.6754217"><ele>335.5</ele><time>2026-04-25T16:52:20.409Z</time></trkpt><trkpt lat="31.5759967" lon="-8.6756917"><ele>336.0</ele><time>2026-04-25T16:52:21.409Z</time></trkpt><trkpt lat="31.5759417" lon="-8.67596"><ele>338.0</ele><time>2026-04-25T16:52:22.409Z</time></trkpt><trkpt lat="31.5758867" lon="-8.676235"><ele>340.0</ele><time>2026-04-25T16:52:23.409Z</time></trkpt><trkpt lat="31.575835" lon="-8.6765083"><ele>340.0</ele><time>2026-04-25T16:52:24.409Z</time></trkpt><trkpt lat="31.5757833" lon="-8.67678"><ele>340.0</ele><time>2026-04-25T16:52:25.409Z</time></trkpt><trkpt lat="31.5757317" lon="-8.6770433"><ele>339.5</ele><time>2026-04-25T16:52:26.409Z</time></trkpt><trkpt lat="31.575675" lon="-8.6773017"><ele>339.0</ele><time>2026-04-25T16:52:27.409Z</time></trkpt><trkpt lat="31.575625" lon="-8.67756"><ele>338.0</ele><time>2026-04-25T16:52:28.409Z</time></trkpt><trkpt lat="31.57557" lon="-8.677825"><ele>337.0</ele><time>2026-04-25T16:52:29.409Z</time></trkpt><trkpt lat="31.5755167" lon="-8.678095"><ele>337.0</ele><time>2026-04-25T16:52:30.409Z</time></trkpt><trkpt lat="31.5754633" lon="-8.678365"><ele>337.0</ele><time>2026-04-25T16:52:31.41Z</time></trkpt><trkpt lat="31.57541" lon="-8.6786467"><ele>339.5</ele><time>2026-04-25T16:52:32.409Z</time></trkpt><trkpt lat="31.5753483" lon="-8.678925"><ele>342.0</ele><time>2026-04-25T16:52:33.409Z</time></trkpt><trkpt lat="31.575295" lon="-8.679205"><ele>341.5</ele><time>2026-04-25T16:52:34.409Z</time></trkpt><trkpt lat="31.5752433" lon="-8.6794767"><ele>341.0</ele><time>2026-04-25T16:52:35.409Z</time></trkpt><trkpt lat="31.5751883" lon="-8.6797333"><ele>341.0</ele><time>2026-04-25T16:52:36.409Z</time></trkpt><trkpt lat="31.575135" lon="-8.6799933"><ele>341.0</ele><time>2026-04-25T16:52:37.409Z</time></trkpt><trkpt lat="31.5750817" lon="-8.68025"><ele>341.0</ele><time>2026-04-25T16:52:38.409Z</time></trkpt><trkpt lat="31.5750267" lon="-8.68051"><ele>341.0</ele><time>2026-04-25T16:52:39.409Z</time></trkpt><trkpt lat="31.574975" lon="-8.6807617"><ele>341.0</ele><time>2026-04-25T16:52:40.41Z</time></trkpt><trkpt lat="31.57492" lon="-8.6810183"><ele>340.5</ele><time>2026-04-25T16:52:41.409Z</time></trkpt><trkpt lat="31.574865" lon="-8.6812767"><ele>340.0</ele><time>2026-04-25T16:52:42.409Z</time></trkpt><trkpt lat="31.574805" lon="-8.6815433"><ele>340.0</ele><time>2026-04-25T16:52:43.409Z</time></trkpt><trkpt lat="31.574745" lon="-8.6818083"><ele>340.0</ele><time>2026-04-25T16:52:44.409Z</time></trkpt><trkpt lat="31.5746833" lon="-8.6820833"><ele>339.0</ele><time>2026-04-25T16:52:45.409Z</time></trkpt><trkpt lat="31.5746133" lon="-8.6823567"><ele>338.0</ele><time>2026-04-25T16:52:46.409Z</time></trkpt><trkpt lat="31.5745533" lon="-8.6826367"><ele>339.0</ele><time>2026-04-25T16:52:47.409Z</time></trkpt><trkpt lat="31.5744933" lon="-8.6829183"><ele>340.0</ele><time>2026-04-25T16:52:48.409Z</time></trkpt><trkpt lat="31.57443" lon="-8.6831983"><ele>340.0</ele><time>2026-04-25T16:52:49.409Z</time></trkpt><trkpt lat="31.574365" lon="-8.68348"><ele>340.0</ele><time>2026-04-25T16:52:50.409Z</time></trkpt><trkpt lat="31.5743" lon="-8.68377"><ele>338.0</ele><time>2026-04-25T16:52:51.409Z</time></trkpt><trkpt lat="31.5742383" lon="-8.684055"><ele>336.0</ele><time>2026-04-25T16:52:52.409Z</time></trkpt><trkpt lat="31.574175" lon="-8.684345"><ele>335.5</ele><time>2026-04-25T16:52:53.409Z</time></trkpt><trkpt lat="31.5741083" lon="-8.6846367"><ele>335.0</ele><time>2026-04-25T16:52:54.409Z</time></trkpt><trkpt lat="31.5740417" lon="-8.684925"><ele>335.0</ele><time>2026-04-25T16:52:55.409Z</time></trkpt><trkpt lat="31.57398" lon="-8.6852"><ele>335.0</ele><time>2026-04-25T16:52:56.409Z</time></trkpt><trkpt lat="31.5739167" lon="-8.6854683"><ele>334.0</ele><time>2026-04-25T16:52:57.409Z</time></trkpt><trkpt lat="31.573855" lon="-8.6857433"><ele>333.0</ele><time>2026-04-25T16:52:58.409Z</time></trkpt><trkpt lat="31.573795" lon="-8.6860183"><ele>332.5</ele><time>2026-04-25T16:52:59.409Z</time></trkpt><trkpt lat="31.573735" lon="-8.68629"><ele>332.0</ele><time>2026-04-25T16:53:00.409Z</time></trkpt><trkpt lat="31.573675" lon="-8.6865633"><ele>333.0</ele><time>2026-04-25T16:53:01.409Z</time></trkpt><trkpt lat="31.5736133" lon="-8.6868433"><ele>334.0</ele><time>2026-04-25T16:53:02.409Z</time></trkpt><trkpt lat="31.573545" lon="-8.6871183"><ele>334.0</ele><time>2026-04-25T16:53:03.409Z</time></trkpt><trkpt lat="31.5734783" lon="-8.687395"><ele>334.0</ele><time>2026-04-25T16:53:04.409Z</time></trkpt><trkpt lat="31.5734133" lon="-8.6876733"><ele>333.5</ele><time>2026-04-25T16:53:05.409Z</time></trkpt><trkpt lat="31.5733483" lon="-8.6879533"><ele>333.0</ele><time>2026-04-25T16:53:06.409Z</time></trkpt><trkpt lat="31.573285" lon="-8.6882283"><ele>333.0</ele><time>2026-04-25T16:53:07.409Z</time></trkpt><trkpt lat="31.5732283" lon="-8.688495"><ele>333.0</ele><time>2026-04-25T16:53:08.409Z</time></trkpt><trkpt lat="31.57317" lon="-8.6887617"><ele>333.5</ele><time>2026-04-25T16:53:09.409Z</time></trkpt><trkpt lat="31.5731083" lon="-8.689025"><ele>334.0</ele><time>2026-04-25T16:53:10.409Z</time></trkpt><trkpt lat="31.5730433" lon="-8.6892883"><ele>334.5</ele><time>2026-04-25T16:53:11.409Z</time></trkpt><trkpt lat="31.572985" lon="-8.68955"><ele>335.0</ele><time>2026-04-25T16:53:12.409Z</time></trkpt><trkpt lat="31.5729333" lon="-8.68982"><ele>335.0</ele><time>2026-04-25T16:53:13.409Z</time></trkpt><trkpt lat="31.5728717" lon="-8.6900883"><ele>335.0</ele><time>2026-04-25T16:53:14.409Z</time></trkpt><trkpt lat="31.5728117" lon="-8.6903633"><ele>336.5</ele><time>2026-04-25T16:53:15.409Z</time></trkpt><trkpt lat="31.5727483" lon="-8.6906333"><ele>338.0</ele><time>2026-04-25T16:53:16.409Z</time></trkpt><trkpt lat="31.5726817" lon="-8.6909133"><ele>337.5</ele><time>2026-04-25T16:53:17.41Z</time></trkpt><trkpt lat="31.57262" lon="-8.691185"><ele>337.0</ele><time>2026-04-25T16:53:18.409Z</time></trkpt><trkpt lat="31.5725567" lon="-8.69146"><ele>337.0</ele><time>2026-04-25T16:53:19.409Z</time></trkpt><trkpt lat="31.5724967" lon="-8.6917333"><ele>337.0</ele><time>2026-04-25T16:53:20.409Z</time></trkpt><trkpt lat="31.5724367" lon="-8.69201"><ele>336.5</ele><time>2026-04-25T16:53:21.409Z</time></trkpt><trkpt lat="31.57238" lon="-8.6922917"><ele>336.0</ele><time>2026-04-25T16:53:22.409Z</time></trkpt><trkpt lat="31.57232" lon="-8.69257"><ele>335.0</ele><time>2026-04-25T16:53:23.409Z</time></trkpt><trkpt lat="31.572255" lon="-8.6928483"><ele>334.0</ele><time>2026-04-25T16:53:24.409Z</time></trkpt><trkpt lat="31.5721883" lon="-8.69313"><ele>334.0</ele><time>2026-04-25T16:53:25.409Z</time></trkpt><trkpt lat="31.57212" lon="-8.6934067"><ele>334.0</ele><time>2026-04-25T16:53:26.409Z</time></trkpt><trkpt lat="31.572055" lon="-8.6936833"><ele>332.0</ele><time>2026-04-25T16:53:27.409Z</time></trkpt><trkpt lat="31.572" lon="-8.6939433"><ele>330.0</ele><time>2026-04-25T16:53:28.409Z</time></trkpt><trkpt lat="31.57194" lon="-8.694205"><ele>331.5</ele><time>2026-04-25T16:53:29.409Z</time></trkpt><trkpt lat="31.5718883" lon="-8.6944683"><ele>333.0</ele><time>2026-04-25T16:53:30.409Z</time></trkpt><trkpt lat="31.571835" lon="-8.6947367"><ele>333.0</ele><time>2026-04-25T16:53:31.409Z</time></trkpt><trkpt lat="31.571775" lon="-8.6950017"><ele>333.0</ele><time>2026-04-25T16:53:32.409Z</time></trkpt><trkpt lat="31.5717217" lon="-8.6952417"><ele>333.0</ele><time>2026-04-25T16:53:33.409Z</time></trkpt><trkpt lat="31.5716667" lon="-8.695485"><ele>334.3333333333333</ele><time>2026-04-25T16:53:34.409Z</time></trkpt><trkpt lat="31.57161" lon="-8.69573"><ele>335.66666666666663</ele><time>2026-04-25T16:53:35.409Z</time></trkpt><trkpt lat="31.5715533" lon="-8.6959783"><ele>337.0</ele><time>2026-04-25T16:53:36.409Z</time></trkpt><trkpt lat="31.571495" lon="-8.6962267"><ele>337.0</ele><time>2026-04-25T16:53:37.409Z</time></trkpt><trkpt lat="31.5714283" lon="-8.6964817"><ele>337.0</ele><time>2026-04-25T16:53:38.409Z</time></trkpt><trkpt lat="31.57136" lon="-8.6967317"><ele>337.0</ele><time>2026-04-25T16:53:39.409Z</time></trkpt><trkpt lat="31.57129" lon="-8.69699"><ele>337.0</ele><time>2026-04-25T16:53:40.409Z</time></trkpt><trkpt lat="31.571215" lon="-8.6972467"><ele>337.5</ele><time>2026-04-25T16:53:41.409Z</time></trkpt><trkpt lat="31.5711367" lon="-8.697505"><ele>338.0</ele><time>2026-04-25T16:53:42.409Z</time></trkpt><trkpt lat="31.571045" lon="-8.69776"><ele>338.0</ele><time>2026-04-25T16:53:43.409Z</time></trkpt><trkpt lat="31.5709583" lon="-8.6980133"><ele>338.0</ele><time>2026-04-25T16:53:44.409Z</time></trkpt><trkpt lat="31.57087" lon="-8.6982683"><ele>338.0</ele><time>2026-04-25T16:53:45.409Z</time></trkpt><trkpt lat="31.5707767" lon="-8.698525"><ele>338.0</ele><time>2026-04-25T16:53:46.409Z</time></trkpt><trkpt lat="31.570675" lon="-8.69879"><ele>336.5</ele><time>2026-04-25T16:53:47.409Z</time></trkpt><trkpt lat="31.5705717" lon="-8.6990567"><ele>335.0</ele><time>2026-04-25T16:53:48.409Z</time></trkpt><trkpt lat="31.570475" lon="-8.69931"><ele>334.5</ele><time>2026-04-25T16:53:49.409Z</time></trkpt><trkpt lat="31.5703767" lon="-8.6995533"><ele>334.0</ele><time>2026-04-25T16:53:50.41Z</time></trkpt><trkpt lat="31.5702767" lon="-8.6997917"><ele>334.0</ele><time>2026-04-25T16:53:51.41Z</time></trkpt><trkpt lat="31.57017" lon="-8.700015"><ele>334.0</ele><time>2026-04-25T16:53:52.409Z</time></trkpt><trkpt lat="31.57006" lon="-8.7002367"><ele>334.0</ele><time>2026-04-25T16:53:53.409Z</time></trkpt><trkpt lat="31.5699517" lon="-8.70046"><ele>334.0</ele><time>2026-04-25T16:53:54.409Z</time></trkpt><trkpt lat="31.5698467" lon="-8.7006867"><ele>334.0</ele><time>2026-04-25T16:53:55.409Z</time></trkpt><trkpt lat="31.5697417" lon="-8.7009067"><ele>334.0</ele><time>2026-04-25T16:53:56.409Z</time></trkpt><trkpt lat="31.5696367" lon="-8.7011217"><ele>334.0</ele><time>2026-04-25T16:53:57.409Z</time></trkpt><trkpt lat="31.5695317" lon="-8.7013317"><ele>334.0</ele><time>2026-04-25T16:53:58.409Z</time></trkpt><trkpt lat="31.5694233" lon="-8.7015467"><ele>334.0</ele><time>2026-04-25T16:53:59.409Z</time></trkpt><trkpt lat="31.5693183" lon="-8.7017617"><ele>333.66666666666663</ele><time>2026-04-25T16:54:00.409Z</time></trkpt><trkpt lat="31.5692117" lon="-8.70197"><ele>333.3333333333333</ele><time>2026-04-25T16:54:01.409Z</time></trkpt><trkpt lat="31.5691067" lon="-8.7021817"><ele>333.0</ele><time>2026-04-25T16:54:02.409Z</time></trkpt><trkpt lat="31.5689983" lon="-8.7024017"><ele>333.0</ele><time>2026-04-25T16:54:03.409Z</time></trkpt><trkpt lat="31.56889" lon="-8.70263"><ele>333.0</ele><time>2026-04-25T16:54:04.409Z</time></trkpt><trkpt lat="31.5687817" lon="-8.7028567"><ele>333.0</ele><time>2026-04-25T16:54:05.41Z</time></trkpt><trkpt lat="31.5686683" lon="-8.7030917"><ele>332.5</ele><time>2026-04-25T16:54:06.409Z</time></trkpt><trkpt lat="31.5685517" lon="-8.7033283"><ele>332.0</ele><time>2026-04-25T16:54:07.409Z</time></trkpt><trkpt lat="31.5684383" lon="-8.7035617"><ele>330.5</ele><time>2026-04-25T16:54:08.409Z</time></trkpt><trkpt lat="31.5683267" lon="-8.7037983"><ele>329.0</ele><time>2026-04-25T16:54:09.409Z</time></trkpt><trkpt lat="31.568215" lon="-8.7040317"><ele>329.0</ele><time>2026-04-25T16:54:10.409Z</time></trkpt><trkpt lat="31.5681" lon="-8.70427"><ele>329.0</ele><time>2026-04-25T16:54:11.409Z</time></trkpt><trkpt lat="31.5679833" lon="-8.70451"><ele>329.0</ele><time>2026-04-25T16:54:12.409Z</time></trkpt><trkpt lat="31.56786" lon="-8.70476"><ele>329.0</ele><time>2026-04-25T16:54:13.409Z</time></trkpt><trkpt lat="31.56774" lon="-8.7049983"><ele>329.0</ele><time>2026-04-25T16:54:14.409Z</time></trkpt><trkpt lat="31.5676217" lon="-8.70524"><ele>329.0</ele><time>2026-04-25T16:54:15.41Z</time></trkpt><trkpt lat="31.5675033" lon="-8.70548"><ele>329.5</ele><time>2026-04-25T16:54:16.409Z</time></trkpt><trkpt lat="31.5673817" lon="-8.7057267"><ele>330.0</ele><time>2026-04-25T16:54:17.41Z</time></trkpt><trkpt lat="31.5672633" lon="-8.70597"><ele>330.5</ele><time>2026-04-25T16:54:18.409Z</time></trkpt><trkpt lat="31.56714" lon="-8.70622"><ele>331.0</ele><time>2026-04-25T16:54:19.409Z</time></trkpt><trkpt lat="31.5670183" lon="-8.7064733"><ele>331.0</ele><time>2026-04-25T16:54:20.409Z</time></trkpt><trkpt lat="31.5668917" lon="-8.7067267"><ele>331.0</ele><time>2026-04-25T16:54:21.41Z</time></trkpt><trkpt lat="31.5667617" lon="-8.70698"><ele>332.0</ele><time>2026-04-25T16:54:22.409Z</time></trkpt><trkpt lat="31.56664" lon="-8.70723"><ele>333.0</ele><time>2026-04-25T16:54:23.409Z</time></trkpt><trkpt lat="31.5665183" lon="-8.70747"><ele>333.0</ele><time>2026-04-25T16:54:24.409Z</time></trkpt><trkpt lat="31.5664017" lon="-8.70771"><ele>333.0</ele><time>2026-04-25T16:54:25.409Z</time></trkpt><trkpt lat="31.5662817" lon="-8.7079383"><ele>334.0</ele><time>2026-04-25T16:54:26.409Z</time></trkpt><trkpt lat="31.5661683" lon="-8.7081733"><ele>335.0</ele><time>2026-04-25T16:54:27.409Z</time></trkpt><trkpt lat="31.5660583" lon="-8.7084133"><ele>335.5</ele><time>2026-04-25T16:54:28.409Z</time></trkpt><trkpt lat="31.565945" lon="-8.7086517"><ele>336.0</ele><time>2026-04-25T16:54:29.409Z</time></trkpt><trkpt lat="31.56583" lon="-8.7088883"><ele>336.0</ele><time>2026-04-25T16:54:30.409Z</time></trkpt><trkpt lat="31.5657133" lon="-8.7091283"><ele>336.0</ele><time>2026-04-25T16:54:31.409Z</time></trkpt><trkpt lat="31.565595" lon="-8.7093683"><ele>335.0</ele><time>2026-04-25T16:54:32.409Z</time></trkpt><trkpt lat="31.5654833" lon="-8.7096033"><ele>334.0</ele><time>2026-04-25T16:54:33.409Z</time></trkpt><trkpt lat="31.5653717" lon="-8.7098267"><ele>333.66666666666663</ele><time>2026-04-25T16:54:34.409Z</time></trkpt><trkpt lat="31.5652583" lon="-8.7100517"><ele>333.3333333333333</ele><time>2026-04-25T16:54:35.409Z</time></trkpt><trkpt lat="31.5651467" lon="-8.710275"><ele>333.0</ele><time>2026-04-25T16:54:36.409Z</time></trkpt><trkpt lat="31.5650433" lon="-8.71049"><ele>333.0</ele><time>2026-04-25T16:54:37.409Z</time></trkpt><trkpt lat="31.5649367" lon="-8.7106917"><ele>333.0</ele><time>2026-04-25T16:54:38.409Z</time></trkpt><trkpt lat="31.564825" lon="-8.7109067"><ele>333.0</ele><time>2026-04-25T16:54:39.409Z</time></trkpt><trkpt lat="31.564715" lon="-8.7111283"><ele>333.5</ele><time>2026-04-25T16:54:40.41Z</time></trkpt><trkpt lat="31.5646033" lon="-8.71136"><ele>334.0</ele><time>2026-04-25T16:54:41.409Z</time></trkpt><trkpt lat="31.564485" lon="-8.7116033"><ele>334.0</ele><time>2026-04-25T16:54:42.409Z</time></trkpt><trkpt lat="31.564365" lon="-8.7118533"><ele>334.0</ele><time>2026-04-25T16:54:43.409Z</time></trkpt><trkpt lat="31.5642467" lon="-8.7121017"><ele>334.0</ele><time>2026-04-25T16:54:44.409Z</time></trkpt><trkpt lat="31.5641267" lon="-8.7123417"><ele>334.0</ele><time>2026-04-25T16:54:45.409Z</time></trkpt><trkpt lat="31.5640117" lon="-8.7125733"><ele>333.66666666666663</ele><time>2026-04-25T16:54:46.409Z</time></trkpt><trkpt lat="31.5639033" lon="-8.7127917"><ele>333.3333333333333</ele><time>2026-04-25T16:54:47.409Z</time></trkpt><trkpt lat="31.5638" lon="-8.7130083"><ele>333.0</ele><time>2026-04-25T16:54:48.409Z</time></trkpt><trkpt lat="31.5636967" lon="-8.71321"><ele>333.6666666666667</ele><time>2026-04-25T16:54:49.409Z</time></trkpt><trkpt lat="31.5635983" lon="-8.7134067"><ele>334.33333333333337</ele><time>2026-04-25T16:54:50.409Z</time></trkpt><trkpt lat="31.5634967" lon="-8.7136"><ele>335.0</ele><time>2026-04-25T16:54:51.409Z</time></trkpt><trkpt lat="31.5634" lon="-8.713795"><ele>335.6666666666667</ele><time>2026-04-25T16:54:52.409Z</time></trkpt><trkpt lat="31.5633033" lon="-8.7139933"><ele>336.3333333333333</ele><time>2026-04-25T16:54:53.409Z</time></trkpt><trkpt lat="31.5631983" lon="-8.7141933"><ele>337.0</ele><time>2026-04-25T16:54:54.409Z</time></trkpt><trkpt lat="31.5631033" lon="-8.71439"><ele>336.66666666666663</ele><time>2026-04-25T16:54:55.409Z</time></trkpt><trkpt lat="31.5630067" lon="-8.71459"><ele>336.3333333333333</ele><time>2026-04-25T16:54:56.409Z</time></trkpt><trkpt lat="31.562905" lon="-8.7147933"><ele>336.0</ele><time>2026-04-25T16:54:57.409Z</time></trkpt><trkpt lat="31.5628083" lon="-8.715"><ele>336.6666666666667</ele><time>2026-04-25T16:54:58.409Z</time></trkpt><trkpt lat="31.5627" lon="-8.7152133"><ele>337.33333333333337</ele><time>2026-04-25T16:54:59.409Z</time></trkpt><trkpt lat="31.5625933" lon="-8.7154283"><ele>338.0</ele><time>2026-04-25T16:55:00.409Z</time></trkpt><trkpt lat="31.562485" lon="-8.7156483"><ele>338.33333333333337</ele><time>2026-04-25T16:55:01.409Z</time></trkpt><trkpt lat="31.56237" lon="-8.71587"><ele>338.6666666666667</ele><time>2026-04-25T16:55:02.409Z</time></trkpt><trkpt lat="31.5622583" lon="-8.7160967"><ele>339.0</ele><time>2026-04-25T16:55:03.409Z</time></trkpt><trkpt lat="31.5621467" lon="-8.716325"><ele>337.5</ele><time>2026-04-25T16:55:04.409Z</time></trkpt><trkpt lat="31.5620317" lon="-8.716555"><ele>336.0</ele><time>2026-04-25T16:55:05.409Z</time></trkpt><trkpt lat="31.5619167" lon="-8.7167917"><ele>335.0</ele><time>2026-04-25T16:55:06.409Z</time></trkpt><trkpt lat="31.5617967" lon="-8.7170333"><ele>334.0</ele><time>2026-04-25T16:55:07.409Z</time></trkpt><trkpt lat="31.5616667" lon="-8.717285"><ele>334.0</ele><time>2026-04-25T16:55:08.409Z</time></trkpt><trkpt lat="31.5615333" lon="-8.71754"><ele>334.0</ele><time>2026-04-25T16:55:09.409Z</time></trkpt><trkpt lat="31.5614" lon="-8.7178017"><ele>334.0</ele><time>2026-04-25T16:55:10.409Z</time></trkpt><trkpt lat="31.5612683" lon="-8.7180667"><ele>334.0</ele><time>2026-04-25T16:55:11.409Z</time></trkpt><trkpt lat="31.5611367" lon="-8.71833"><ele>334.0</ele><time>2026-04-25T16:55:12.409Z</time></trkpt><trkpt lat="31.56101" lon="-8.7185833"><ele>334.0</ele><time>2026-04-25T16:55:13.409Z</time></trkpt><trkpt lat="31.560885" lon="-8.7188267"><ele>334.0</ele><time>2026-04-25T16:55:14.41Z</time></trkpt><trkpt lat="31.5607583" lon="-8.7190733"><ele>334.0</ele><time>2026-04-25T16:55:15.409Z</time></trkpt><trkpt lat="31.5606367" lon="-8.7193233"><ele>334.0</ele><time>2026-04-25T16:55:16.409Z</time></trkpt><trkpt lat="31.5605133" lon="-8.71957"><ele>334.0</ele><time>2026-04-25T16:55:17.409Z</time></trkpt><trkpt lat="31.5603933" lon="-8.71981"><ele>334.5</ele><time>2026-04-25T16:55:18.409Z</time></trkpt><trkpt lat="31.56028" lon="-8.7200467"><ele>335.0</ele><time>2026-04-25T16:55:19.409Z</time></trkpt><trkpt lat="31.5601617" lon="-8.7202817"><ele>335.0</ele><time>2026-04-25T16:55:20.409Z</time></trkpt><trkpt lat="31.5600417" lon="-8.7205233"><ele>335.0</ele><time>2026-04-25T16:55:21.409Z</time></trkpt><trkpt lat="31.5599233" lon="-8.720765"><ele>335.0</ele><time>2026-04-25T16:55:22.409Z</time></trkpt><trkpt lat="31.5597983" lon="-8.72101"><ele>335.0</ele><time>2026-04-25T16:55:23.409Z</time></trkpt><trkpt lat="31.5596767" lon="-8.7212517"><ele>335.0</ele><time>2026-04-25T16:55:24.409Z</time></trkpt><trkpt lat="31.5595583" lon="-8.7214867"><ele>335.0</ele><time>2026-04-25T16:55:25.409Z</time></trkpt><trkpt lat="31.559445" lon="-8.72172"><ele>335.0</ele><time>2026-04-25T16:55:26.409Z</time></trkpt><trkpt lat="31.5593317" lon="-8.7219533"><ele>335.0</ele><time>2026-04-25T16:55:27.409Z</time></trkpt><trkpt lat="31.559215" lon="-8.7221817"><ele>335.0</ele><time>2026-04-25T16:55:28.409Z</time></trkpt><trkpt lat="31.5591" lon="-8.7224117"><ele>335.0</ele><time>2026-04-25T16:55:29.409Z</time></trkpt><trkpt lat="31.5589867" lon="-8.7226417"><ele>335.0</ele><time>2026-04-25T16:55:30.409Z</time></trkpt><trkpt lat="31.5588767" lon="-8.7228667"><ele>335.0</ele><time>2026-04-25T16:55:31.409Z</time></trkpt><trkpt lat="31.55877" lon="-8.7230917"><ele>335.0</ele><time>2026-04-25T16:55:32.409Z</time></trkpt><trkpt lat="31.5586617" lon="-8.7233133"><ele>336.0</ele><time>2026-04-25T16:55:33.409Z</time></trkpt><trkpt lat="31.5585483" lon="-8.7235333"><ele>337.0</ele><time>2026-04-25T16:55:34.409Z</time></trkpt><trkpt lat="31.5584417" lon="-8.7237483"><ele>338.0</ele><time>2026-04-25T16:55:35.409Z</time></trkpt><trkpt lat="31.5583283" lon="-8.7239617"><ele>338.0</ele><time>2026-04-25T16:55:36.409Z</time></trkpt><trkpt lat="31.558215" lon="-8.7241767"><ele>338.0</ele><time>2026-04-25T16:55:37.409Z</time></trkpt><trkpt lat="31.5581" lon="-8.7244"><ele>338.0</ele><time>2026-04-25T16:55:38.409Z</time></trkpt><trkpt lat="31.5579817" lon="-8.72463"><ele>337.0</ele><time>2026-04-25T16:55:39.409Z</time></trkpt><trkpt lat="31.5578617" lon="-8.7248567"><ele>336.0</ele><time>2026-04-25T16:55:40.409Z</time></trkpt><trkpt lat="31.5577483" lon="-8.7250883"><ele>337.5</ele><time>2026-04-25T16:55:41.409Z</time></trkpt><trkpt lat="31.5576383" lon="-8.7253217"><ele>339.0</ele><time>2026-04-25T16:55:42.409Z</time></trkpt><trkpt lat="31.5575217" lon="-8.7255567"><ele>339.0</ele><time>2026-04-25T16:55:43.409Z</time></trkpt><trkpt lat="31.5574033" lon="-8.7257967"><ele>339.0</ele><time>2026-04-25T16:55:44.409Z</time></trkpt><trkpt lat="31.55728" lon="-8.7260383"><ele>339.5</ele><time>2026-04-25T16:55:45.409Z</time></trkpt><trkpt lat="31.5571567" lon="-8.7262783"><ele>340.0</ele><time>2026-04-25T16:55:46.409Z</time></trkpt><trkpt lat="31.5570333" lon="-8.7265217"><ele>340.5</ele><time>2026-04-25T16:55:47.409Z</time></trkpt><trkpt lat="31.55691" lon="-8.7267683"><ele>341.0</ele><time>2026-04-25T16:55:48.409Z</time></trkpt><trkpt lat="31.55679" lon="-8.7270167"><ele>342.0</ele><time>2026-04-25T16:55:49.409Z</time></trkpt><trkpt lat="31.5566683" lon="-8.7272633"><ele>343.0</ele><time>2026-04-25T16:55:50.409Z</time></trkpt><trkpt lat="31.5565517" lon="-8.7275033"><ele>342.5</ele><time>2026-04-25T16:55:51.409Z</time></trkpt><trkpt lat="31.5564367" lon="-8.7277333"><ele>342.0</ele><time>2026-04-25T16:55:52.409Z</time></trkpt><trkpt lat="31.5563183" lon="-8.7279583"><ele>342.0</ele><time>2026-04-25T16:55:53.409Z</time></trkpt><trkpt lat="31.5562" lon="-8.728185"><ele>342.0</ele><time>2026-04-25T16:55:54.409Z</time></trkpt><trkpt lat="31.5560883" lon="-8.72842"><ele>341.5</ele><time>2026-04-25T16:55:55.409Z</time></trkpt><trkpt lat="31.555975" lon="-8.7286517"><ele>341.0</ele><time>2026-04-25T16:55:56.409Z</time></trkpt><trkpt lat="31.5558533" lon="-8.7288917"><ele>341.0</ele><time>2026-04-25T16:55:57.409Z</time></trkpt><trkpt lat="31.5557367" lon="-8.7291283"><ele>341.0</ele><time>2026-04-25T16:55:58.409Z</time></trkpt><trkpt lat="31.555615" lon="-8.7293683"><ele>341.5</ele><time>2026-04-25T16:55:59.409Z</time></trkpt><trkpt lat="31.55549" lon="-8.7296133"><ele>342.0</ele><time>2026-04-25T16:56:00.409Z</time></trkpt><trkpt lat="31.5553717" lon="-8.7298517"><ele>342.0</ele><time>2026-04-25T16:56:01.409Z</time></trkpt><trkpt lat="31.55525" lon="-8.73008"><ele>342.0</ele><time>2026-04-25T16:56:02.409Z</time></trkpt><trkpt lat="31.555135" lon="-8.7303017"><ele>341.3333333333333</ele><time>2026-04-25T16:56:03.409Z</time></trkpt><trkpt lat="31.5550333" lon="-8.7305117"><ele>340.66666666666663</ele><time>2026-04-25T16:56:04.409Z</time></trkpt><trkpt lat="31.5549333" lon="-8.7307133"><ele>340.0</ele><time>2026-04-25T16:56:05.409Z</time></trkpt><trkpt lat="31.5548433" lon="-8.7309"><ele>340.0</ele><time>2026-04-25T16:56:06.409Z</time></trkpt><trkpt lat="31.554765" lon="-8.731065"><ele>340.0</ele><time>2026-04-25T16:56:07.409Z</time></trkpt><trkpt lat="31.5546967" lon="-8.7312067"><ele>340.0</ele><time>2026-04-25T16:56:08.409Z</time></trkpt><trkpt lat="31.5546417" lon="-8.731335"><ele>340.0</ele><time>2026-04-25T16:56:09.409Z</time></trkpt><trkpt lat="31.5545833" lon="-8.73145"><ele>341.0</ele><time>2026-04-25T16:56:10.409Z</time></trkpt><trkpt lat="31.5545267" lon="-8.7315667"><ele>342.0</ele><time>2026-04-25T16:56:11.409Z</time></trkpt><trkpt lat="31.5544717" lon="-8.7316833"><ele>343.0</ele><time>2026-04-25T16:56:12.409Z</time></trkpt><trkpt lat="31.5544117" lon="-8.7317967"><ele>344.0</ele><time>2026-04-25T16:56:13.409Z</time></trkpt><trkpt lat="31.5543517" lon="-8.7319083"><ele>344.0</ele><time>2026-04-25T16:56:14.409Z</time></trkpt><trkpt lat="31.5542917" lon="-8.7320217"><ele>344.0</ele><time>2026-04-25T16:56:15.409Z</time></trkpt><trkpt lat="31.5542267" lon="-8.7321317"><ele>344.0</ele><time>2026-04-25T16:56:16.409Z</time></trkpt><trkpt lat="31.5541583" lon="-8.732245"><ele>344.0</ele><time>2026-04-25T16:56:17.409Z</time></trkpt><trkpt lat="31.5540933" lon="-8.73236"><ele>344.0</ele><time>2026-04-25T16:56:18.409Z</time></trkpt><trkpt lat="31.5540383" lon="-8.73248"><ele>344.0</ele><time>2026-04-25T16:56:19.409Z</time></trkpt><trkpt lat="31.55398" lon="-8.7326033"><ele>344.0</ele><time>2026-04-25T16:56:20.41Z</time></trkpt><trkpt lat="31.553925" lon="-8.7327233"><ele>344.0</ele><time>2026-04-25T16:56:21.409Z</time></trkpt><trkpt lat="31.5538667" lon="-8.7328383"><ele>343.75</ele><time>2026-04-25T16:56:22.409Z</time></trkpt><trkpt lat="31.5538067" lon="-8.73296"><ele>343.5</ele><time>2026-04-25T16:56:23.409Z</time></trkpt><trkpt lat="31.55375" lon="-8.7330867"><ele>343.25</ele><time>2026-04-25T16:56:24.409Z</time></trkpt><trkpt lat="31.55369" lon="-8.73321"><ele>343.0</ele><time>2026-04-25T16:56:25.409Z</time></trkpt><trkpt lat="31.5536283" lon="-8.7333317"><ele>343.0</ele><time>2026-04-25T16:56:26.409Z</time></trkpt><trkpt lat="31.5535667" lon="-8.7334517"><ele>343.0</ele><time>2026-04-25T16:56:27.409Z</time></trkpt><trkpt lat="31.5535033" lon="-8.7335717"><ele>343.0</ele><time>2026-04-25T16:56:28.41Z</time></trkpt><trkpt lat="31.5534383" lon="-8.73369"><ele>343.0</ele><time>2026-04-25T16:56:29.409Z</time></trkpt><trkpt lat="31.5533783" lon="-8.7338083"><ele>343.0</ele><time>2026-04-25T16:56:30.409Z</time></trkpt><trkpt lat="31.5533183" lon="-8.73394"><ele>343.0</ele><time>2026-04-25T16:56:31.409Z</time></trkpt><trkpt lat="31.5532533" lon="-8.7340583"><ele>343.0</ele><time>2026-04-25T16:56:32.409Z</time></trkpt><trkpt lat="31.55319" lon="-8.7341833"><ele>343.0</ele><time>2026-04-25T16:56:33.409Z</time></trkpt><trkpt lat="31.553125" lon="-8.7343133"><ele>343.25</ele><time>2026-04-25T16:56:34.409Z</time></trkpt><trkpt lat="31.5530583" lon="-8.7344417"><ele>343.5</ele><time>2026-04-25T16:56:35.409Z</time></trkpt><trkpt lat="31.5529933" lon="-8.73457"><ele>343.75</ele><time>2026-04-25T16:56:36.409Z</time></trkpt><trkpt lat="31.55293" lon="-8.7347033"><ele>344.0</ele><time>2026-04-25T16:56:37.409Z</time></trkpt><trkpt lat="31.5528617" lon="-8.7348367"><ele>344.25</ele><time>2026-04-25T16:56:38.409Z</time></trkpt><trkpt lat="31.552795" lon="-8.7349733"><ele>344.5</ele><time>2026-04-25T16:56:39.409Z</time></trkpt><trkpt lat="31.55273" lon="-8.7351033"><ele>344.75</ele><time>2026-04-25T16:56:40.409Z</time></trkpt><trkpt lat="31.552665" lon="-8.7352333"><ele>345.0</ele><time>2026-04-25T16:56:41.409Z</time></trkpt><trkpt lat="31.5526017" lon="-8.73536"><ele>345.0</ele><time>2026-04-25T16:56:42.409Z</time></trkpt><trkpt lat="31.5525333" lon="-8.7354883"><ele>345.0</ele><time>2026-04-25T16:56:43.409Z</time></trkpt><trkpt lat="31.55247" lon="-8.7356233"><ele>345.0</ele><time>2026-04-25T16:56:44.409Z</time></trkpt><trkpt lat="31.5524083" lon="-8.7357533"><ele>345.0</ele><time>2026-04-25T16:56:45.409Z</time></trkpt><trkpt lat="31.5523433" lon="-8.7358867"><ele>345.0</ele><time>2026-04-25T16:56:46.41Z</time></trkpt><trkpt lat="31.5522767" lon="-8.7360167"><ele>345.0</ele><time>2026-04-25T16:56:47.409Z</time></trkpt><trkpt lat="31.5522133" lon="-8.7361417"><ele>345.0</ele><time>2026-04-25T16:56:48.409Z</time></trkpt><trkpt lat="31.5521483" lon="-8.7362667"><ele>345.0</ele><time>2026-04-25T16:56:49.409Z</time></trkpt><trkpt lat="31.552085" lon="-8.73639"><ele>344.75</ele><time>2026-04-25T16:56:50.409Z</time></trkpt><trkpt lat="31.552025" lon="-8.7365117"><ele>344.5</ele><time>2026-04-25T16:56:51.41Z</time></trkpt><trkpt lat="31.55196" lon="-8.736635"><ele>344.25</ele><time>2026-04-25T16:56:52.409Z</time></trkpt><trkpt lat="31.551895" lon="-8.7367617"><ele>344.0</ele><time>2026-04-25T16:56:53.409Z</time></trkpt><trkpt lat="31.5518233" lon="-8.7368967"><ele>344.0</ele><time>2026-04-25T16:56:54.409Z</time></trkpt><trkpt lat="31.551755" lon="-8.7370317"><ele>344.0</ele><time>2026-04-25T16:56:55.409Z</time></trkpt><trkpt lat="31.5516833" lon="-8.737175"><ele>344.0</ele><time>2026-04-25T16:56:56.41Z</time></trkpt><trkpt lat="31.5516117" lon="-8.7373067"><ele>344.0</ele><time>2026-04-25T16:56:57.409Z</time></trkpt><trkpt lat="31.5515483" lon="-8.73744"><ele>344.0</ele><time>2026-04-25T16:56:58.409Z</time></trkpt><trkpt lat="31.5514867" lon="-8.7375717"><ele>344.0</ele><time>2026-04-25T16:56:59.409Z</time></trkpt><trkpt lat="31.5514167" lon="-8.7376983"><ele>344.0</ele><time>2026-04-25T16:57:00.409Z</time></trkpt><trkpt lat="31.5513517" lon="-8.73783"><ele>344.0</ele><time>2026-04-25T16:57:01.409Z</time></trkpt><trkpt lat="31.551285" lon="-8.7379633"><ele>344.25</ele><time>2026-04-25T16:57:02.409Z</time></trkpt><trkpt lat="31.5512283" lon="-8.738095"><ele>344.5</ele><time>2026-04-25T16:57:03.409Z</time></trkpt><trkpt lat="31.55117" lon="-8.738225"><ele>344.75</ele><time>2026-04-25T16:57:04.409Z</time></trkpt><trkpt lat="31.5511183" lon="-8.7383533"><ele>345.0</ele><time>2026-04-25T16:57:05.409Z</time></trkpt><trkpt lat="31.5510883" lon="-8.7384867"><ele>344.6</ele><time>2026-04-25T16:57:06.409Z</time></trkpt><trkpt lat="31.551065" lon="-8.73862"><ele>344.2</ele><time>2026-04-25T16:57:07.409Z</time></trkpt><trkpt lat="31.5510517" lon="-8.738745"><ele>343.79999999999995</ele><time>2026-04-25T16:57:08.409Z</time></trkpt><trkpt lat="31.5510267" lon="-8.7388517"><ele>343.4</ele><time>2026-04-25T16:57:09.409Z</time></trkpt><trkpt lat="31.5509783" lon="-8.7389433"><ele>343.0</ele><time>2026-04-25T16:57:10.41Z</time></trkpt><trkpt lat="31.5509217" lon="-8.7390317"><ele>343.0</ele><time>2026-04-25T16:57:11.409Z</time></trkpt><trkpt lat="31.5508683" lon="-8.73913"><ele>343.0</ele><time>2026-04-25T16:57:12.409Z</time></trkpt><trkpt lat="31.550825" lon="-8.739235"><ele>343.0</ele><time>2026-04-25T16:57:13.409Z</time></trkpt><trkpt lat="31.55078" lon="-8.7393433"><ele>343.0</ele><time>2026-04-25T16:57:14.409Z</time></trkpt><trkpt lat="31.5507367" lon="-8.73946"><ele>343.0</ele><time>2026-04-25T16:57:15.409Z</time></trkpt><trkpt lat="31.5507017" lon="-8.7395883"><ele>342.25</ele><time>2026-04-25T16:57:16.409Z</time></trkpt><trkpt lat="31.55067" lon="-8.7397183"><ele>341.5</ele><time>2026-04-25T16:57:17.409Z</time></trkpt><trkpt lat="31.5506417" lon="-8.7398567"><ele>340.75</ele><time>2026-04-25T16:57:18.409Z</time></trkpt><trkpt lat="31.5506133" lon="-8.7399933"><ele>340.0</ele><time>2026-04-25T16:57:19.409Z</time></trkpt><trkpt lat="31.550585" lon="-8.7401283"><ele>340.2</ele><time>2026-04-25T16:57:20.409Z</time></trkpt><trkpt lat="31.550565" lon="-8.7402517"><ele>340.4</ele><time>2026-04-25T16:57:21.409Z</time></trkpt><trkpt lat="31.55054" lon="-8.7403717"><ele>340.6</ele><time>2026-04-25T16:57:22.409Z</time></trkpt><trkpt lat="31.550515" lon="-8.74049"><ele>340.8</ele><time>2026-04-25T16:57:23.409Z</time></trkpt><trkpt lat="31.5504867" lon="-8.74061"><ele>341.0</ele><time>2026-04-25T16:57:24.41Z</time></trkpt><trkpt lat="31.55046" lon="-8.74073"><ele>341.0</ele><time>2026-04-25T16:57:25.409Z</time></trkpt><trkpt lat="31.5504333" lon="-8.7408583"><ele>341.0</ele><time>2026-04-25T16:57:26.409Z</time></trkpt><trkpt lat="31.5504083" lon="-8.740985"><ele>341.0</ele><time>2026-04-25T16:57:27.409Z</time></trkpt><trkpt lat="31.5503767" lon="-8.7411133"><ele>341.0</ele><time>2026-04-25T16:57:28.409Z</time></trkpt><trkpt lat="31.5503417" lon="-8.7412467"><ele>341.0</ele><time>2026-04-25T16:57:29.409Z</time></trkpt><trkpt lat="31.5503083" lon="-8.74138"><ele>341.0</ele><time>2026-04-25T16:57:30.41Z</time></trkpt><trkpt lat="31.5502733" lon="-8.74152"><ele>341.0</ele><time>2026-04-25T16:57:31.409Z</time></trkpt><trkpt lat="31.5502383" lon="-8.741655"><ele>341.0</ele><time>2026-04-25T16:57:32.41Z</time></trkpt><trkpt lat="31.5502033" lon="-8.7417983"><ele>342.25</ele><time>2026-04-25T16:57:33.409Z</time></trkpt><trkpt lat="31.5501733" lon="-8.74194"><ele>343.5</ele><time>2026-04-25T16:57:34.409Z</time></trkpt><trkpt lat="31.55014" lon="-8.7420783"><ele>344.75</ele><time>2026-04-25T16:57:35.409Z</time></trkpt><trkpt lat="31.55011" lon="-8.742215"><ele>346.0</ele><time>2026-04-25T16:57:36.409Z</time></trkpt><trkpt lat="31.55008" lon="-8.742355"><ele>346.0</ele><time>2026-04-25T16:57:37.409Z</time></trkpt><trkpt lat="31.5500517" lon="-8.7424833"><ele>346.0</ele><time>2026-04-25T16:57:38.409Z</time></trkpt><trkpt lat="31.55002" lon="-8.7426083"><ele>346.0</ele><time>2026-04-25T16:57:39.409Z</time></trkpt><trkpt lat="31.5499817" lon="-8.7427367"><ele>346.0</ele><time>2026-04-25T16:57:40.409Z</time></trkpt><trkpt lat="31.54995" lon="-8.7428733"><ele>346.0</ele><time>2026-04-25T16:57:41.409Z</time></trkpt><trkpt lat="31.5499133" lon="-8.74301"><ele>346.0</ele><time>2026-04-25T16:57:42.409Z</time></trkpt><trkpt lat="31.5498817" lon="-8.7431417"><ele>346.0</ele><time>2026-04-25T16:57:43.409Z</time></trkpt><trkpt lat="31.549855" lon="-8.7432717"><ele>346.0</ele><time>2026-04-25T16:57:44.409Z</time></trkpt><trkpt lat="31.5498217" lon="-8.7434083"><ele>346.0</ele><time>2026-04-25T16:57:45.409Z</time></trkpt><trkpt lat="31.54979" lon="-8.7435467"><ele>346.0</ele><time>2026-04-25T16:57:46.409Z</time></trkpt><trkpt lat="31.5497533" lon="-8.7436917"><ele>346.0</ele><time>2026-04-25T16:57:47.409Z</time></trkpt><trkpt lat="31.54972" lon="-8.7438417"><ele>346.0</ele><time>2026-04-25T16:57:48.409Z</time></trkpt><trkpt lat="31.5496933" lon="-8.7439983"><ele>346.5</ele><time>2026-04-25T16:57:49.409Z</time></trkpt><trkpt lat="31.5496617" lon="-8.7441583"><ele>347.0</ele><time>2026-04-25T16:57:50.409Z</time></trkpt><trkpt lat="31.5496283" lon="-8.7443183"><ele>347.5</ele><time>2026-04-25T16:57:51.409Z</time></trkpt><trkpt lat="31.5495933" lon="-8.7444833"><ele>348.0</ele><time>2026-04-25T16:57:52.409Z</time></trkpt><trkpt lat="31.5495583" lon="-8.7446367"><ele>348.0</ele><time>2026-04-25T16:57:53.409Z</time></trkpt><trkpt lat="31.5495217" lon="-8.7447833"><ele>348.0</ele><time>2026-04-25T16:57:54.409Z</time></trkpt><trkpt lat="31.5494883" lon="-8.7449283"><ele>348.0</ele><time>2026-04-25T16:57:55.409Z</time></trkpt><trkpt lat="31.5494567" lon="-8.7450683"><ele>348.0</ele><time>2026-04-25T16:57:56.409Z</time></trkpt><trkpt lat="31.549425" lon="-8.745215"><ele>348.0</ele><time>2026-04-25T16:57:57.409Z</time></trkpt><trkpt lat="31.5493867" lon="-8.7453617"><ele>348.0</ele><time>2026-04-25T16:57:58.409Z</time></trkpt><trkpt lat="31.5493517" lon="-8.7455017"><ele>348.0</ele><time>2026-04-25T16:57:59.409Z</time></trkpt><trkpt lat="31.5493133" lon="-8.745635"><ele>348.0</ele><time>2026-04-25T16:58:00.409Z</time></trkpt><trkpt lat="31.5492817" lon="-8.7457617"><ele>348.0</ele><time>2026-04-25T16:58:01.409Z</time></trkpt><trkpt lat="31.5492567" lon="-8.74588"><ele>348.0</ele><time>2026-04-25T16:58:02.409Z</time></trkpt><trkpt lat="31.5492267" lon="-8.7459983"><ele>348.0</ele><time>2026-04-25T16:58:03.409Z</time></trkpt><trkpt lat="31.5492033" lon="-8.7461"><ele>348.0</ele><time>2026-04-25T16:58:04.409Z</time></trkpt><trkpt lat="31.549185" lon="-8.74619"><ele>348.0</ele><time>2026-04-25T16:58:05.41Z</time></trkpt><trkpt lat="31.54916" lon="-8.7462633"><ele>348.0</ele><time>2026-04-25T16:58:06.409Z</time></trkpt><trkpt lat="31.5491" lon="-8.746355"><ele>347.57142857142856</ele><time>2026-04-25T16:58:08.409Z</time></trkpt><trkpt lat="31.54903" lon="-8.7463967"><ele>347.14285714285717</ele><time>2026-04-25T16:58:11.409Z</time></trkpt><trkpt lat="31.5489683" lon="-8.7464233"><ele>346.7142857142857</ele><time>2026-04-25T16:58:15.409Z</time></trkpt><trkpt lat="31.5488933" lon="-8.7464383"><ele>346.2857142857143</ele><time>2026-04-25T16:58:24.409Z</time></trkpt><trkpt lat="31.5488517" lon="-8.7465"><ele>345.85714285714283</ele><time>2026-04-25T16:58:28.409Z</time></trkpt><trkpt lat="31.5487933" lon="-8.7465733"><ele>345.42857142857144</ele><time>2026-04-25T17:05:39.408Z</time></trkpt><trkpt lat="31.5488583" lon="-8.746615"><ele>345.0</ele><time>2026-04-25T17:05:43.408Z</time></trkpt><trkpt lat="31.5489333" lon="-8.7466133"><ele>345.0</ele><time>2026-04-25T17:05:50.408Z</time></trkpt><trkpt lat="31.5490083" lon="-8.746655"><ele>345.0</ele><time>2026-04-25T17:06:15.408Z</time></trkpt><trkpt lat="31.54907" lon="-8.7467267"><ele>345.0</ele><time>2026-04-25T17:06:20.407Z</time></trkpt><trkpt lat="31.5490583" lon="-8.746875"><ele>345.0</ele><time>2026-04-25T17:06:22.407Z</time></trkpt><trkpt lat="31.5490333" lon="-8.7469717"><ele>345.0</ele><time>2026-04-25T17:06:23.407Z</time></trkpt><trkpt lat="31.5490017" lon="-8.7470817"><ele>344.75</ele><time>2026-04-25T17:06:24.407Z</time></trkpt><trkpt lat="31.5489683" lon="-8.747195"><ele>344.5</ele><time>2026-04-25T17:06:25.407Z</time></trkpt><trkpt lat="31.5489317" lon="-8.7473183"><ele>344.25</ele><time>2026-04-25T17:06:26.407Z</time></trkpt><trkpt lat="31.5488917" lon="-8.7474483"><ele>344.0</ele><time>2026-04-25T17:06:27.407Z</time></trkpt><trkpt lat="31.5488567" lon="-8.747585"><ele>343.25</ele><time>2026-04-25T17:06:28.407Z</time></trkpt><trkpt lat="31.5488233" lon="-8.7477283"><ele>342.5</ele><time>2026-04-25T17:06:29.407Z</time></trkpt><trkpt lat="31.5487867" lon="-8.7478767"><ele>341.75</ele><time>2026-04-25T17:06:30.407Z</time></trkpt><trkpt lat="31.54875" lon="-8.748035"><ele>341.0</ele><time>2026-04-25T17:06:31.407Z</time></trkpt><trkpt lat="31.5487117" lon="-8.7482067"><ele>342.0</ele><time>2026-04-25T17:06:32.407Z</time></trkpt><trkpt lat="31.548675" lon="-8.748375"><ele>343.0</ele><time>2026-04-25T17:06:33.407Z</time></trkpt><trkpt lat="31.5486433" lon="-8.7485517"><ele>344.0</ele><time>2026-04-25T17:06:34.408Z</time></trkpt><trkpt lat="31.5486083" lon="-8.7487217"><ele>344.0</ele><time>2026-04-25T17:06:35.407Z</time></trkpt><trkpt lat="31.548565" lon="-8.74889"><ele>344.0</ele><time>2026-04-25T17:06:36.407Z</time></trkpt><trkpt lat="31.548525" lon="-8.749045"><ele>344.0</ele><time>2026-04-25T17:06:37.407Z</time></trkpt><trkpt lat="31.5484933" lon="-8.7491933"><ele>344.0</ele><time>2026-04-25T17:06:38.407Z</time></trkpt><trkpt lat="31.548465" lon="-8.7493467"><ele>344.0</ele><time>2026-04-25T17:06:39.407Z</time></trkpt><trkpt lat="31.5484333" lon="-8.7494933"><ele>344.0</ele><time>2026-04-25T17:06:40.407Z</time></trkpt><trkpt lat="31.5483967" lon="-8.74965"><ele>344.0</ele><time>2026-04-25T17:06:41.407Z</time></trkpt><trkpt lat="31.54836" lon="-8.7498133"><ele>344.0</ele><time>2026-04-25T17:06:42.407Z</time></trkpt><trkpt lat="31.5483217" lon="-8.7499633"><ele>344.0</ele><time>2026-04-25T17:06:43.407Z</time></trkpt><trkpt lat="31.548285" lon="-8.7501133"><ele>344.0</ele><time>2026-04-25T17:06:44.407Z</time></trkpt><trkpt lat="31.548255" lon="-8.7502517"><ele>344.0</ele><time>2026-04-25T17:06:45.407Z</time></trkpt><trkpt lat="31.5482267" lon="-8.7503867"><ele>344.0</ele><time>2026-04-25T17:06:46.407Z</time></trkpt><trkpt lat="31.5481917" lon="-8.7505267"><ele>343.75</ele><time>2026-04-25T17:06:47.407Z</time></trkpt><trkpt lat="31.5481733" lon="-8.7506733"><ele>343.5</ele><time>2026-04-25T17:06:48.407Z</time></trkpt><trkpt lat="31.5481533" lon="-8.7508267"><ele>343.25</ele><time>2026-04-25T17:06:49.407Z</time></trkpt><trkpt lat="31.54814" lon="-8.750985"><ele>343.0</ele><time>2026-04-25T17:06:50.407Z</time></trkpt><trkpt lat="31.5481367" lon="-8.7511483"><ele>343.0</ele><time>2026-04-25T17:06:51.407Z</time></trkpt><trkpt lat="31.54815" lon="-8.7512983"><ele>343.0</ele><time>2026-04-25T17:06:52.407Z</time></trkpt><trkpt lat="31.5481767" lon="-8.7514317"><ele>343.0</ele><time>2026-04-25T17:06:53.407Z</time></trkpt><trkpt lat="31.54821" lon="-8.7515667"><ele>343.0</ele><time>2026-04-25T17:06:54.407Z</time></trkpt><trkpt lat="31.5482467" lon="-8.751695"><ele>343.0</ele><time>2026-04-25T17:06:55.407Z</time></trkpt><trkpt lat="31.54829" lon="-8.7518333"><ele>343.0</ele><time>2026-04-25T17:06:56.407Z</time></trkpt><trkpt lat="31.548335" lon="-8.751975"><ele>343.0</ele><time>2026-04-25T17:06:57.407Z</time></trkpt><trkpt lat="31.5483817" lon="-8.7521167"><ele>343.0</ele><time>2026-04-25T17:06:58.407Z</time></trkpt><trkpt lat="31.5484367" lon="-8.7522617"><ele>343.25</ele><time>2026-04-25T17:06:59.407Z</time></trkpt><trkpt lat="31.548485" lon="-8.7524017"><ele>343.5</ele><time>2026-04-25T17:07:00.407Z</time></trkpt><trkpt lat="31.5485333" lon="-8.75254"><ele>343.75</ele><time>2026-04-25T17:07:01.407Z</time></trkpt><trkpt lat="31.54859" lon="-8.7526883"><ele>344.0</ele><time>2026-04-25T17:07:02.407Z</time></trkpt><trkpt lat="31.5486417" lon="-8.7528417"><ele>344.0</ele><time>2026-04-25T17:07:03.407Z</time></trkpt><trkpt lat="31.5486933" lon="-8.7529983"><ele>344.0</ele><time>2026-04-25T17:07:04.407Z</time></trkpt><trkpt lat="31.5487467" lon="-8.7531683"><ele>344.0</ele><time>2026-04-25T17:07:05.407Z</time></trkpt><trkpt lat="31.5487933" lon="-8.7533433"><ele>344.0</ele><time>2026-04-25T17:07:06.407Z</time></trkpt><trkpt lat="31.54884" lon="-8.7535117"><ele>344.0</ele><time>2026-04-25T17:07:07.407Z</time></trkpt><trkpt lat="31.54889" lon="-8.7536733"><ele>344.0</ele><time>2026-04-25T17:07:08.407Z</time></trkpt><trkpt lat="31.548935" lon="-8.753835"><ele>344.0</ele><time>2026-04-25T17:07:09.408Z</time></trkpt><trkpt lat="31.5489683" lon="-8.7539967"><ele>344.0</ele><time>2026-04-25T17:07:10.407Z</time></trkpt><trkpt lat="31.5489883" lon="-8.75416"><ele>344.0</ele><time>2026-04-25T17:07:11.407Z</time></trkpt><trkpt lat="31.5489967" lon="-8.7543183"><ele>344.0</ele><time>2026-04-25T17:07:12.407Z</time></trkpt><trkpt lat="31.5489983" lon="-8.75447"><ele>344.0</ele><time>2026-04-25T17:07:13.407Z</time></trkpt><trkpt lat="31.5489917" lon="-8.7546183"><ele>344.25</ele><time>2026-04-25T17:07:14.407Z</time></trkpt><trkpt lat="31.5489783" lon="-8.7547617"><ele>344.5</ele><time>2026-04-25T17:07:15.407Z</time></trkpt><trkpt lat="31.5489617" lon="-8.754895"><ele>344.75</ele><time>2026-04-25T17:07:16.407Z</time></trkpt><trkpt lat="31.5489333" lon="-8.755015"><ele>345.0</ele><time>2026-04-25T17:07:17.407Z</time></trkpt><trkpt lat="31.5489067" lon="-8.755135"><ele>345.6666666666667</ele><time>2026-04-25T17:07:18.407Z</time></trkpt><trkpt lat="31.5488717" lon="-8.7552433"><ele>346.3333333333333</ele><time>2026-04-25T17:07:19.407Z</time></trkpt><trkpt lat="31.5488417" lon="-8.7553383"><ele>347.0</ele><time>2026-04-25T17:07:20.407Z</time></trkpt><trkpt lat="31.548815" lon="-8.7554217"><ele>347.66666666666663</ele><time>2026-04-25T17:07:21.407Z</time></trkpt><trkpt lat="31.54879" lon="-8.7554983"><ele>348.3333333333333</ele><time>2026-04-25T17:07:22.408Z</time></trkpt><trkpt lat="31.5487733" lon="-8.7555717"><ele>349.0</ele><time>2026-04-25T17:07:23.407Z</time></trkpt><trkpt lat="31.548735" lon="-8.755705"><ele>349.2</ele><time>2026-04-25T17:07:25.408Z</time></trkpt><trkpt lat="31.5487" lon="-8.7558317"><ele>349.4</ele><time>2026-04-25T17:07:27.407Z</time></trkpt><trkpt lat="31.5486617" lon="-8.75597"><ele>349.6</ele><time>2026-04-25T17:07:29.407Z</time></trkpt><trkpt lat="31.548645" lon="-8.7560533"><ele>349.8</ele><time>2026-04-25T17:07:30.407Z</time></trkpt><trkpt lat="31.5486233" lon="-8.75615"><ele>350.0</ele><time>2026-04-25T17:07:31.407Z</time></trkpt><trkpt lat="31.5485967" lon="-8.756255"><ele>350.0</ele><time>2026-04-25T17:07:32.407Z</time></trkpt><trkpt lat="31.5485767" lon="-8.7563533"><ele>350.0</ele><time>2026-04-25T17:07:33.407Z</time></trkpt><trkpt lat="31.5485417" lon="-8.7564717"><ele>350.0</ele><time>2026-04-25T17:07:34.407Z</time></trkpt><trkpt lat="31.54851" lon="-8.7565933"><ele>350.0</ele><time>2026-04-25T17:07:35.407Z</time></trkpt><trkpt lat="31.548475" lon="-8.756715"><ele>350.0</ele><time>2026-04-25T17:07:36.407Z</time></trkpt><trkpt lat="31.5484383" lon="-8.7568417"><ele>350.2</ele><time>2026-04-25T17:07:37.408Z</time></trkpt><trkpt lat="31.5483967" lon="-8.75697"><ele>350.4</ele><time>2026-04-25T17:07:38.407Z</time></trkpt><trkpt lat="31.5483583" lon="-8.7570933"><ele>350.6</ele><time>2026-04-25T17:07:39.408Z</time></trkpt><trkpt lat="31.54832" lon="-8.7572117"><ele>350.8</ele><time>2026-04-25T17:07:40.407Z</time></trkpt><trkpt lat="31.5482883" lon="-8.7573117"><ele>351.0</ele><time>2026-04-25T17:07:41.407Z</time></trkpt><trkpt lat="31.5482583" lon="-8.7574133"><ele>351.0</ele><time>2026-04-25T17:07:42.407Z</time></trkpt><trkpt lat="31.5482283" lon="-8.757515"><ele>351.0</ele><time>2026-04-25T17:07:43.407Z</time></trkpt><trkpt lat="31.5481983" lon="-8.757615"><ele>351.0</ele><time>2026-04-25T17:07:44.407Z</time></trkpt><trkpt lat="31.5481733" lon="-8.7577083"><ele>351.0</ele><time>2026-04-25T17:07:45.407Z</time></trkpt><trkpt lat="31.5481517" lon="-8.7577917"><ele>351.0</ele><time>2026-04-25T17:07:46.407Z</time></trkpt><trkpt lat="31.5481333" lon="-8.7578867"><ele>351.0</ele><time>2026-04-25T17:07:48.407Z</time></trkpt><trkpt lat="31.5481383" lon="-8.75797"><ele>350.8333333333333</ele><time>2026-04-25T17:07:51.407Z</time></trkpt><trkpt lat="31.5481433" lon="-8.758115"><ele>350.6666666666667</ele><time>2026-04-25T17:07:53.407Z</time></trkpt><trkpt lat="31.5481383" lon="-8.7581967"><ele>350.5</ele><time>2026-04-25T17:07:54.407Z</time></trkpt><trkpt lat="31.5481183" lon="-8.75827"><ele>350.33333333333337</ele><time>2026-04-25T17:07:55.407Z</time></trkpt><trkpt lat="31.548085" lon="-8.7583333"><ele>350.1666666666667</ele><time>2026-04-25T17:07:56.407Z</time></trkpt><trkpt lat="31.5480417" lon="-8.7583967"><ele>350.0</ele><time>2026-04-25T17:07:57.407Z</time></trkpt><trkpt lat="31.548" lon="-8.75848"><ele>349.5</ele><time>2026-04-25T17:07:58.407Z</time></trkpt><trkpt lat="31.5479483" lon="-8.7586117"><ele>349.0</ele><time>2026-04-25T17:07:59.407Z</time></trkpt><trkpt lat="31.5479017" lon="-8.7587517"><ele>348.5</ele><time>2026-04-25T17:08:00.407Z</time></trkpt><trkpt lat="31.5478617" lon="-8.75889"><ele>348.0</ele><time>2026-04-25T17:08:01.407Z</time></trkpt><trkpt lat="31.5478283" lon="-8.7590217"><ele>349.0</ele><time>2026-04-25T17:08:02.408Z</time></trkpt><trkpt lat="31.5477983" lon="-8.7591483"><ele>350.0</ele><time>2026-04-25T17:08:03.407Z</time></trkpt><trkpt lat="31.5477683" lon="-8.7592717"><ele>351.0</ele><time>2026-04-25T17:08:04.407Z</time></trkpt><trkpt lat="31.547735" lon="-8.7593933"><ele>352.0</ele><time>2026-04-25T17:08:05.407Z</time></trkpt><trkpt lat="31.5477067" lon="-8.7595233"><ele>353.0</ele><time>2026-04-25T17:08:06.407Z</time></trkpt><trkpt lat="31.5476733" lon="-8.7596567"><ele>353.0</ele><time>2026-04-25T17:08:07.407Z</time></trkpt><trkpt lat="31.547645" lon="-8.7597883"><ele>353.0</ele><time>2026-04-25T17:08:08.407Z</time></trkpt><trkpt lat="31.5476133" lon="-8.7599233"><ele>353.0</ele><time>2026-04-25T17:08:09.407Z</time></trkpt><trkpt lat="31.547585" lon="-8.7600617"><ele>353.0</ele><time>2026-04-25T17:08:10.407Z</time></trkpt><trkpt lat="31.5475517" lon="-8.7602067"><ele>352.75</ele><time>2026-04-25T17:08:11.408Z</time></trkpt><trkpt lat="31.5475167" lon="-8.7603483"><ele>352.5</ele><time>2026-04-25T17:08:12.407Z</time></trkpt><trkpt lat="31.54748" lon="-8.7604933"><ele>352.25</ele><time>2026-04-25T17:08:13.408Z</time></trkpt><trkpt lat="31.5474383" lon="-8.76064"><ele>352.0</ele><time>2026-04-25T17:08:14.407Z</time></trkpt><trkpt lat="31.5473967" lon="-8.76079"><ele>352.0</ele><time>2026-04-25T17:08:15.407Z</time></trkpt><trkpt lat="31.5473533" lon="-8.760935"><ele>352.0</ele><time>2026-04-25T17:08:16.407Z</time></trkpt><trkpt lat="31.5473083" lon="-8.761075"><ele>352.0</ele><time>2026-04-25T17:08:17.407Z</time></trkpt><trkpt lat="31.5472633" lon="-8.7612183"><ele>352.0</ele><time>2026-04-25T17:08:18.407Z</time></trkpt><trkpt lat="31.5472283" lon="-8.7613683"><ele>351.25</ele><time>2026-04-25T17:08:19.407Z</time></trkpt><trkpt lat="31.5471917" lon="-8.7615167"><ele>350.5</ele><time>2026-04-25T17:08:20.407Z</time></trkpt><trkpt lat="31.5471533" lon="-8.761665"><ele>349.75</ele><time>2026-04-25T17:08:21.407Z</time></trkpt><trkpt lat="31.5471133" lon="-8.761805"><ele>349.0</ele><time>2026-04-25T17:08:22.407Z</time></trkpt><trkpt lat="31.5470783" lon="-8.7619417"><ele>349.0</ele><time>2026-04-25T17:08:23.407Z</time></trkpt><trkpt lat="31.5470417" lon="-8.7620717"><ele>349.0</ele><time>2026-04-25T17:08:24.407Z</time></trkpt><trkpt lat="31.5470083" lon="-8.7622033"><ele>349.0</ele><time>2026-04-25T17:08:25.407Z</time></trkpt><trkpt lat="31.54697" lon="-8.76234"><ele>349.0</ele><time>2026-04-25T17:08:26.407Z</time></trkpt><trkpt lat="31.54693" lon="-8.762475"><ele>349.0</ele><time>2026-04-25T17:08:27.407Z</time></trkpt><trkpt lat="31.54689" lon="-8.762615"><ele>349.0</ele><time>2026-04-25T17:08:28.407Z</time></trkpt><trkpt lat="31.5468517" lon="-8.762745"><ele>349.0</ele><time>2026-04-25T17:08:29.407Z</time></trkpt><trkpt lat="31.5468183" lon="-8.7628683"><ele>349.0</ele><time>2026-04-25T17:08:30.407Z</time></trkpt><trkpt lat="31.5467817" lon="-8.7629867"><ele>349.2</ele><time>2026-04-25T17:08:31.407Z</time></trkpt><trkpt lat="31.5467433" lon="-8.7631033"><ele>349.4</ele><time>2026-04-25T17:08:32.407Z</time></trkpt><trkpt lat="31.5467117" lon="-8.763225"><ele>349.6</ele><time>2026-04-25T17:08:33.407Z</time></trkpt><trkpt lat="31.5466833" lon="-8.7633533"><ele>349.8</ele><time>2026-04-25T17:08:34.407Z</time></trkpt><trkpt lat="31.5466617" lon="-8.76348"><ele>350.0</ele><time>2026-04-25T17:08:35.407Z</time></trkpt><trkpt lat="31.5466333" lon="-8.7636"><ele>350.2</ele><time>2026-04-25T17:08:36.407Z</time></trkpt><trkpt lat="31.5466067" lon="-8.7637167"><ele>350.4</ele><time>2026-04-25T17:08:37.407Z</time></trkpt><trkpt lat="31.54659" lon="-8.7638433"><ele>350.6</ele><time>2026-04-25T17:08:38.407Z</time></trkpt><trkpt lat="31.5465733" lon="-8.7639683"><ele>350.8</ele><time>2026-04-25T17:08:39.407Z</time></trkpt><trkpt lat="31.5465533" lon="-8.764095"><ele>351.0</ele><time>2026-04-25T17:08:40.407Z</time></trkpt><trkpt lat="31.546535" lon="-8.7642233"><ele>351.0</ele><time>2026-04-25T17:08:41.408Z</time></trkpt><trkpt lat="31.5465183" lon="-8.7643517"><ele>351.0</ele><time>2026-04-25T17:08:42.407Z</time></trkpt><trkpt lat="31.546505" lon="-8.764485"><ele>351.0</ele><time>2026-04-25T17:08:43.407Z</time></trkpt><trkpt lat="31.5465033" lon="-8.7646233"><ele>351.0</ele><time>2026-04-25T17:08:44.407Z</time></trkpt><trkpt lat="31.5464967" lon="-8.7647567"><ele>351.0</ele><time>2026-04-25T17:08:45.407Z</time></trkpt><trkpt lat="31.5465033" lon="-8.7648817"><ele>351.0</ele><time>2026-04-25T17:08:46.407Z</time></trkpt><trkpt lat="31.5465067" lon="-8.7650033"><ele>351.0</ele><time>2026-04-25T17:08:47.407Z</time></trkpt><trkpt lat="31.5465167" lon="-8.76512"><ele>351.0</ele><time>2026-04-25T17:08:48.407Z</time></trkpt><trkpt lat="31.5465267" lon="-8.7652383"><ele>351.0</ele><time>2026-04-25T17:08:49.407Z</time></trkpt><trkpt lat="31.5465367" lon="-8.7653583"><ele>351.25</ele><time>2026-04-25T17:08:50.407Z</time></trkpt><trkpt lat="31.5465517" lon="-8.76548"><ele>351.5</ele><time>2026-04-25T17:08:51.407Z</time></trkpt><trkpt lat="31.54657" lon="-8.76561"><ele>351.75</ele><time>2026-04-25T17:08:52.407Z</time></trkpt><trkpt lat="31.546585" lon="-8.7657533"><ele>352.0</ele><time>2026-04-25T17:08:53.407Z</time></trkpt><trkpt lat="31.5466017" lon="-8.7659217"><ele>352.0</ele><time>2026-04-25T17:08:54.407Z</time></trkpt><trkpt lat="31.5466233" lon="-8.7661033"><ele>352.0</ele><time>2026-04-25T17:08:55.408Z</time></trkpt><trkpt lat="31.5466533" lon="-8.7663017"><ele>352.0</ele><time>2026-04-25T17:08:56.407Z</time></trkpt><trkpt lat="31.5466867" lon="-8.7665067"><ele>352.0</ele><time>2026-04-25T17:08:57.407Z</time></trkpt><trkpt lat="31.5467167" lon="-8.7667083"><ele>352.0</ele><time>2026-04-25T17:08:58.407Z</time></trkpt><trkpt lat="31.5467433" lon="-8.7668933"><ele>352.0</ele><time>2026-04-25T17:08:59.407Z</time></trkpt><trkpt lat="31.5467667" lon="-8.7670683"><ele>351.5</ele><time>2026-04-25T17:09:00.407Z</time></trkpt><trkpt lat="31.5467933" lon="-8.76724"><ele>351.0</ele><time>2026-04-25T17:09:01.407Z</time></trkpt><trkpt lat="31.5468233" lon="-8.767405"><ele>350.5</ele><time>2026-04-25T17:09:02.407Z</time></trkpt><trkpt lat="31.5468467" lon="-8.7675667"><ele>350.0</ele><time>2026-04-25T17:09:03.407Z</time></trkpt><trkpt lat="31.5468733" lon="-8.767725"><ele>349.75</ele><time>2026-04-25T17:09:04.407Z</time></trkpt><trkpt lat="31.5468983" lon="-8.767875"><ele>349.5</ele><time>2026-04-25T17:09:05.407Z</time></trkpt><trkpt lat="31.5469267" lon="-8.7680233"><ele>349.25</ele><time>2026-04-25T17:09:06.408Z</time></trkpt><trkpt lat="31.5469483" lon="-8.76816"><ele>349.0</ele><time>2026-04-25T17:09:07.407Z</time></trkpt><trkpt lat="31.5469733" lon="-8.7683017"><ele>349.0</ele><time>2026-04-25T17:09:08.407Z</time></trkpt><trkpt lat="31.5469933" lon="-8.7684483"><ele>349.0</ele><time>2026-04-25T17:09:09.407Z</time></trkpt><trkpt lat="31.5470067" lon="-8.768595"><ele>349.0</ele><time>2026-04-25T17:09:10.407Z</time></trkpt><trkpt lat="31.5470217" lon="-8.7687383"><ele>349.0</ele><time>2026-04-25T17:09:11.407Z</time></trkpt><trkpt lat="31.5470433" lon="-8.7688917"><ele>349.0</ele><time>2026-04-25T17:09:12.407Z</time></trkpt><trkpt lat="31.5470667" lon="-8.76905"><ele>349.0</ele><time>2026-04-25T17:09:13.407Z</time></trkpt><trkpt lat="31.5470983" lon="-8.7692133"><ele>349.0</ele><time>2026-04-25T17:09:14.407Z</time></trkpt><trkpt lat="31.5471333" lon="-8.769385"><ele>349.0</ele><time>2026-04-25T17:09:15.407Z</time></trkpt><trkpt lat="31.5471683" lon="-8.7695567"><ele>349.3333333333333</ele><time>2026-04-25T17:09:16.407Z</time></trkpt><trkpt lat="31.5472" lon="-8.7697317"><ele>349.6666666666667</ele><time>2026-04-25T17:09:17.407Z</time></trkpt><trkpt lat="31.54723" lon="-8.769905"><ele>350.0</ele><time>2026-04-25T17:09:18.407Z</time></trkpt><trkpt lat="31.5472617" lon="-8.7700733"><ele>349.75</ele><time>2026-04-25T17:09:19.407Z</time></trkpt><trkpt lat="31.54729" lon="-8.77024"><ele>349.5</ele><time>2026-04-25T17:09:20.407Z</time></trkpt><trkpt lat="31.5473217" lon="-8.7704083"><ele>349.25</ele><time>2026-04-25T17:09:21.407Z</time></trkpt><trkpt lat="31.547345" lon="-8.7705767"><ele>349.0</ele><time>2026-04-25T17:09:22.407Z</time></trkpt><trkpt lat="31.5473717" lon="-8.7707383"><ele>349.0</ele><time>2026-04-25T17:09:23.407Z</time></trkpt><trkpt lat="31.5474017" lon="-8.7708933"><ele>349.0</ele><time>2026-04-25T17:09:24.407Z</time></trkpt><trkpt lat="31.5474267" lon="-8.7710417"><ele>349.0</ele><time>2026-04-25T17:09:25.407Z</time></trkpt><trkpt lat="31.5474533" lon="-8.7711967"><ele>349.0</ele><time>2026-04-25T17:09:26.407Z</time></trkpt><trkpt lat="31.5474767" lon="-8.77135"><ele>348.75</ele><time>2026-04-25T17:09:27.407Z</time></trkpt><trkpt lat="31.5475033" lon="-8.7715067"><ele>348.5</ele><time>2026-04-25T17:09:28.407Z</time></trkpt><trkpt lat="31.5475267" lon="-8.77165"><ele>348.25</ele><time>2026-04-25T17:09:29.407Z</time></trkpt><trkpt lat="31.5475467" lon="-8.7717867"><ele>348.0</ele><time>2026-04-25T17:09:30.407Z</time></trkpt><trkpt lat="31.547565" lon="-8.7719133"><ele>348.4</ele><time>2026-04-25T17:09:31.407Z</time></trkpt><trkpt lat="31.5475833" lon="-8.77204"><ele>348.79999999999995</ele><time>2026-04-25T17:09:32.407Z</time></trkpt><trkpt lat="31.5475983" lon="-8.7721583"><ele>349.2</ele><time>2026-04-25T17:09:33.407Z</time></trkpt><trkpt lat="31.5476133" lon="-8.7722717"><ele>349.6</ele><time>2026-04-25T17:09:34.407Z</time></trkpt><trkpt lat="31.5476283" lon="-8.7723883"><ele>350.0</ele><time>2026-04-25T17:09:35.408Z</time></trkpt><trkpt lat="31.5476467" lon="-8.7725217"><ele>350.0</ele><time>2026-04-25T17:09:36.407Z</time></trkpt><trkpt lat="31.5476683" lon="-8.7726683"><ele>350.0</ele><time>2026-04-25T17:09:37.407Z</time></trkpt><trkpt lat="31.5476883" lon="-8.7728283"><ele>350.0</ele><time>2026-04-25T17:09:38.407Z</time></trkpt><trkpt lat="31.5477117" lon="-8.7729983"><ele>350.0</ele><time>2026-04-25T17:09:39.407Z</time></trkpt><trkpt lat="31.547745" lon="-8.7731817"><ele>350.0</ele><time>2026-04-25T17:09:40.407Z</time></trkpt><trkpt lat="31.547775" lon="-8.7733783"><ele>350.0</ele><time>2026-04-25T17:09:41.407Z</time></trkpt><trkpt lat="31.5478017" lon="-8.7735717"><ele>350.0</ele><time>2026-04-25T17:09:42.407Z</time></trkpt><trkpt lat="31.5478317" lon="-8.7737617"><ele>350.33333333333337</ele><time>2026-04-25T17:09:43.407Z</time></trkpt><trkpt lat="31.54786" lon="-8.7739517"><ele>350.6666666666667</ele><time>2026-04-25T17:09:44.407Z</time></trkpt><trkpt lat="31.54789" lon="-8.7741333"><ele>351.0</ele><time>2026-04-25T17:09:45.407Z</time></trkpt><trkpt lat="31.5479133" lon="-8.7743133"><ele>350.6666666666667</ele><time>2026-04-25T17:09:46.407Z</time></trkpt><trkpt lat="31.5479333" lon="-8.7744967"><ele>350.33333333333337</ele><time>2026-04-25T17:09:47.407Z</time></trkpt><trkpt lat="31.5479533" lon="-8.7746933"><ele>350.0</ele><time>2026-04-25T17:09:48.408Z</time></trkpt><trkpt lat="31.5479633" lon="-8.7748917"><ele>350.0</ele><time>2026-04-25T17:09:49.407Z</time></trkpt><trkpt lat="31.5479683" lon="-8.775095"><ele>350.0</ele><time>2026-04-25T17:09:50.407Z</time></trkpt><trkpt lat="31.5479733" lon="-8.7753017"><ele>350.0</ele><time>2026-04-25T17:09:51.407Z</time></trkpt><trkpt lat="31.5479733" lon="-8.775505"><ele>350.0</ele><time>2026-04-25T17:09:52.407Z</time></trkpt><trkpt lat="31.5479733" lon="-8.7756983"><ele>350.0</ele><time>2026-04-25T17:09:53.407Z</time></trkpt><trkpt lat="31.5479733" lon="-8.7758817"><ele>350.0</ele><time>2026-04-25T17:09:54.407Z</time></trkpt><trkpt lat="31.547965" lon="-8.7760717"><ele>349.6666666666667</ele><time>2026-04-25T17:09:55.407Z</time></trkpt><trkpt lat="31.5479583" lon="-8.7762617"><ele>349.3333333333333</ele><time>2026-04-25T17:09:56.407Z</time></trkpt><trkpt lat="31.54794" lon="-8.77645"><ele>349.0</ele><time>2026-04-25T17:09:57.407Z</time></trkpt><trkpt lat="31.5479167" lon="-8.776645"><ele>349.0</ele><time>2026-04-25T17:09:58.407Z</time></trkpt><trkpt lat="31.54789" lon="-8.77684"><ele>349.0</ele><time>2026-04-25T17:09:59.407Z</time></trkpt><trkpt lat="31.5478583" lon="-8.7770333"><ele>349.0</ele><time>2026-04-25T17:10:00.407Z</time></trkpt><trkpt lat="31.54783" lon="-8.7772283"><ele>349.66666666666663</ele><time>2026-04-25T17:10:01.407Z</time></trkpt><trkpt lat="31.5478" lon="-8.777425"><ele>350.3333333333333</ele><time>2026-04-25T17:10:02.407Z</time></trkpt><trkpt lat="31.5477717" lon="-8.7776217"><ele>351.0</ele><time>2026-04-25T17:10:03.408Z</time></trkpt><trkpt lat="31.5477433" lon="-8.77782"><ele>351.0</ele><time>2026-04-25T17:10:04.407Z</time></trkpt><trkpt lat="31.5477133" lon="-8.7780217"><ele>351.0</ele><time>2026-04-25T17:10:05.407Z</time></trkpt><trkpt lat="31.54768" lon="-8.7782217"><ele>351.0</ele><time>2026-04-25T17:10:06.407Z</time></trkpt><trkpt lat="31.54765" lon="-8.7784183"><ele>350.0</ele><time>2026-04-25T17:10:07.407Z</time></trkpt><trkpt lat="31.54762" lon="-8.7786233"><ele>349.0</ele><time>2026-04-25T17:10:08.407Z</time></trkpt><trkpt lat="31.54759" lon="-8.7788167"><ele>348.0</ele><time>2026-04-25T17:10:09.407Z</time></trkpt><trkpt lat="31.5475617" lon="-8.7790017"><ele>348.0</ele><time>2026-04-25T17:10:10.407Z</time></trkpt><trkpt lat="31.54753" lon="-8.7791783"><ele>348.0</ele><time>2026-04-25T17:10:11.407Z</time></trkpt><trkpt lat="31.547505" lon="-8.7793567"><ele>348.0</ele><time>2026-04-25T17:10:12.407Z</time></trkpt><trkpt lat="31.5474783" lon="-8.7795383"><ele>348.0</ele><time>2026-04-25T17:10:13.407Z</time></trkpt><trkpt lat="31.54745" lon="-8.77972"><ele>348.0</ele><time>2026-04-25T17:10:14.407Z</time></trkpt><trkpt lat="31.5474283" lon="-8.7799017"><ele>348.0</ele><time>2026-04-25T17:10:15.407Z</time></trkpt><trkpt lat="31.5474" lon="-8.78009"><ele>349.0</ele><time>2026-04-25T17:10:16.407Z</time></trkpt><trkpt lat="31.5473783" lon="-8.7802767"><ele>350.0</ele><time>2026-04-25T17:10:17.407Z</time></trkpt><trkpt lat="31.5473417" lon="-8.7804733"><ele>351.0</ele><time>2026-04-25T17:10:18.407Z</time></trkpt><trkpt lat="31.5473083" lon="-8.7806633"><ele>351.0</ele><time>2026-04-25T17:10:19.407Z</time></trkpt><trkpt lat="31.5472717" lon="-8.780865"><ele>351.0</ele><time>2026-04-25T17:10:20.407Z</time></trkpt><trkpt lat="31.5472333" lon="-8.7810817"><ele>351.0</ele><time>2026-04-25T17:10:21.407Z</time></trkpt><trkpt lat="31.5472" lon="-8.78129"><ele>351.0</ele><time>2026-04-25T17:10:22.407Z</time></trkpt><trkpt lat="31.5471717" lon="-8.7814983"><ele>351.0</ele><time>2026-04-25T17:10:23.407Z</time></trkpt><trkpt lat="31.5471333" lon="-8.7817033"><ele>351.0</ele><time>2026-04-25T17:10:24.407Z</time></trkpt><trkpt lat="31.547095" lon="-8.7819183"><ele>351.0</ele><time>2026-04-25T17:10:25.407Z</time></trkpt><trkpt lat="31.5470533" lon="-8.782145"><ele>351.0</ele><time>2026-04-25T17:10:26.407Z</time></trkpt><trkpt lat="31.5470133" lon="-8.7823733"><ele>351.0</ele><time>2026-04-25T17:10:27.407Z</time></trkpt><trkpt lat="31.5469733" lon="-8.7826083"><ele>351.3333333333333</ele><time>2026-04-25T17:10:28.407Z</time></trkpt><trkpt lat="31.5469383" lon="-8.7828433"><ele>351.66666666666663</ele><time>2026-04-25T17:10:29.407Z</time></trkpt><trkpt lat="31.5469067" lon="-8.7830883"><ele>352.0</ele><time>2026-04-25T17:10:30.407Z</time></trkpt><trkpt lat="31.5468733" lon="-8.78333"><ele>351.66666666666663</ele><time>2026-04-25T17:10:31.407Z</time></trkpt><trkpt lat="31.5468383" lon="-8.7835683"><ele>351.3333333333333</ele><time>2026-04-25T17:10:32.407Z</time></trkpt><trkpt lat="31.546805" lon="-8.7837917"><ele>351.0</ele><time>2026-04-25T17:10:33.407Z</time></trkpt><trkpt lat="31.546775" lon="-8.7840183"><ele>351.0</ele><time>2026-04-25T17:10:34.407Z</time></trkpt><trkpt lat="31.54674" lon="-8.7842367"><ele>351.0</ele><time>2026-04-25T17:10:35.407Z</time></trkpt><trkpt lat="31.546705" lon="-8.7844533"><ele>351.0</ele><time>2026-04-25T17:10:36.407Z</time></trkpt><trkpt lat="31.54667" lon="-8.784665"><ele>351.3333333333333</ele><time>2026-04-25T17:10:37.407Z</time></trkpt><trkpt lat="31.5466367" lon="-8.7848783"><ele>351.66666666666663</ele><time>2026-04-25T17:10:38.407Z</time></trkpt><trkpt lat="31.546605" lon="-8.7850933"><ele>352.0</ele><time>2026-04-25T17:10:39.407Z</time></trkpt><trkpt lat="31.5465717" lon="-8.7853"><ele>352.3333333333333</ele><time>2026-04-25T17:10:40.407Z</time></trkpt><trkpt lat="31.54654" lon="-8.7855"><ele>352.6666666666667</ele><time>2026-04-25T17:10:41.407Z</time></trkpt><trkpt lat="31.54651" lon="-8.7857083"><ele>353.0</ele><time>2026-04-25T17:10:42.407Z</time></trkpt><trkpt lat="31.5464783" lon="-8.785915"><ele>352.6666666666667</ele><time>2026-04-25T17:10:43.407Z</time></trkpt><trkpt lat="31.54645" lon="-8.7861283"><ele>352.3333333333333</ele><time>2026-04-25T17:10:44.407Z</time></trkpt><trkpt lat="31.5464267" lon="-8.786345"><ele>352.0</ele><time>2026-04-25T17:10:45.407Z</time></trkpt><trkpt lat="31.5464017" lon="-8.7865583"><ele>352.0</ele><time>2026-04-25T17:10:46.407Z</time></trkpt><trkpt lat="31.5463867" lon="-8.7867767"><ele>352.0</ele><time>2026-04-25T17:10:47.407Z</time></trkpt><trkpt lat="31.546365" lon="-8.7870033"><ele>352.0</ele><time>2026-04-25T17:10:48.407Z</time></trkpt><trkpt lat="31.5463483" lon="-8.787235"><ele>353.0</ele><time>2026-04-25T17:10:49.407Z</time></trkpt><trkpt lat="31.5463367" lon="-8.78747"><ele>354.0</ele><time>2026-04-25T17:10:50.407Z</time></trkpt><trkpt lat="31.546325" lon="-8.78771"><ele>355.0</ele><time>2026-04-25T17:10:51.407Z</time></trkpt><trkpt lat="31.5463233" lon="-8.7879533"><ele>355.66666666666663</ele><time>2026-04-25T17:10:52.407Z</time></trkpt><trkpt lat="31.5463383" lon="-8.7881967"><ele>356.3333333333333</ele><time>2026-04-25T17:10:53.407Z</time></trkpt><trkpt lat="31.5463617" lon="-8.7884383"><ele>357.0</ele><time>2026-04-25T17:10:54.407Z</time></trkpt><trkpt lat="31.5463883" lon="-8.7886833"><ele>357.3333333333333</ele><time>2026-04-25T17:10:55.407Z</time></trkpt><trkpt lat="31.5464117" lon="-8.7889333"><ele>357.66666666666663</ele><time>2026-04-25T17:10:56.407Z</time></trkpt><trkpt lat="31.546435" lon="-8.7891667"><ele>358.0</ele><time>2026-04-25T17:10:57.407Z</time></trkpt><trkpt lat="31.5464567" lon="-8.7894"><ele>358.66666666666663</ele><time>2026-04-25T17:10:58.407Z</time></trkpt><trkpt lat="31.5464767" lon="-8.7896167"><ele>359.3333333333333</ele><time>2026-04-25T17:10:59.407Z</time></trkpt><trkpt lat="31.5464967" lon="-8.78983"><ele>360.0</ele><time>2026-04-25T17:11:00.407Z</time></trkpt><trkpt lat="31.5465167" lon="-8.79004"><ele>361.0</ele><time>2026-04-25T17:11:01.407Z</time></trkpt><trkpt lat="31.5465383" lon="-8.79025"><ele>362.0</ele><time>2026-04-25T17:11:02.407Z</time></trkpt><trkpt lat="31.54656" lon="-8.7904583"><ele>363.0</ele><time>2026-04-25T17:11:03.407Z</time></trkpt><trkpt lat="31.5465717" lon="-8.7906683"><ele>363.0</ele><time>2026-04-25T17:11:04.407Z</time></trkpt><trkpt lat="31.5465917" lon="-8.7908833"><ele>363.0</ele><time>2026-04-25T17:11:05.407Z</time></trkpt><trkpt lat="31.5466117" lon="-8.7911"><ele>363.0</ele><time>2026-04-25T17:11:06.407Z</time></trkpt><trkpt lat="31.54663" lon="-8.7913167"><ele>363.3333333333333</ele><time>2026-04-25T17:11:07.407Z</time></trkpt><trkpt lat="31.54665" lon="-8.791535"><ele>363.66666666666663</ele><time>2026-04-25T17:11:08.407Z</time></trkpt><trkpt lat="31.54667" lon="-8.791755"><ele>364.0</ele><time>2026-04-25T17:11:09.407Z</time></trkpt><trkpt lat="31.54669" lon="-8.7919733"><ele>364.0</ele><time>2026-04-25T17:11:10.407Z</time></trkpt><trkpt lat="31.5467183" lon="-8.7922033"><ele>364.0</ele><time>2026-04-25T17:11:11.407Z</time></trkpt><trkpt lat="31.54674" lon="-8.7924283"><ele>364.0</ele><time>2026-04-25T17:11:12.407Z</time></trkpt><trkpt lat="31.546765" lon="-8.79266"><ele>364.0</ele><time>2026-04-25T17:11:13.407Z</time></trkpt><trkpt lat="31.5467883" lon="-8.7928933"><ele>364.0</ele><time>2026-04-25T17:11:14.407Z</time></trkpt><trkpt lat="31.546815" lon="-8.7931333"><ele>364.0</ele><time>2026-04-25T17:11:15.407Z</time></trkpt><trkpt lat="31.5468333" lon="-8.7933633"><ele>364.66666666666663</ele><time>2026-04-25T17:11:16.407Z</time></trkpt><trkpt lat="31.5468517" lon="-8.7935783"><ele>365.3333333333333</ele><time>2026-04-25T17:11:17.407Z</time></trkpt><trkpt lat="31.5468683" lon="-8.793795"><ele>366.0</ele><time>2026-04-25T17:11:18.407Z</time></trkpt><trkpt lat="31.54689" lon="-8.7940017"><ele>366.0</ele><time>2026-04-25T17:11:19.407Z</time></trkpt><trkpt lat="31.5469083" lon="-8.794205"><ele>366.0</ele><time>2026-04-25T17:11:20.407Z</time></trkpt><trkpt lat="31.546925" lon="-8.7944033"><ele>366.0</ele><time>2026-04-25T17:11:21.407Z</time></trkpt><trkpt lat="31.5469417" lon="-8.794605"><ele>367.0</ele><time>2026-04-25T17:11:22.407Z</time></trkpt><trkpt lat="31.5469633" lon="-8.7948117"><ele>368.0</ele><time>2026-04-25T17:11:23.407Z</time></trkpt><trkpt lat="31.5469833" lon="-8.7950183"><ele>369.0</ele><time>2026-04-25T17:11:24.407Z</time></trkpt><trkpt lat="31.5470033" lon="-8.79523"><ele>369.3333333333333</ele><time>2026-04-25T17:11:25.407Z</time></trkpt><trkpt lat="31.5470233" lon="-8.7954417"><ele>369.66666666666663</ele><time>2026-04-25T17:11:26.407Z</time></trkpt><trkpt lat="31.5470467" lon="-8.7956567"><ele>370.0</ele><time>2026-04-25T17:11:27.407Z</time></trkpt><trkpt lat="31.5470717" lon="-8.795875"><ele>370.3333333333333</ele><time>2026-04-25T17:11:28.408Z</time></trkpt><trkpt lat="31.5470917" lon="-8.7960967"><ele>370.6666666666667</ele><time>2026-04-25T17:11:29.407Z</time></trkpt><trkpt lat="31.5471133" lon="-8.796315"><ele>371.0</ele><time>2026-04-25T17:11:30.407Z</time></trkpt><trkpt lat="31.5471367" lon="-8.7965417"><ele>371.0</ele><time>2026-04-25T17:11:31.408Z</time></trkpt><trkpt lat="31.547155" lon="-8.7967717"><ele>371.0</ele><time>2026-04-25T17:11:32.407Z</time></trkpt><trkpt lat="31.5471733" lon="-8.7970083"><ele>371.0</ele><time>2026-04-25T17:11:33.407Z</time></trkpt><trkpt lat="31.547195" lon="-8.7972483"><ele>370.6666666666667</ele><time>2026-04-25T17:11:34.407Z</time></trkpt><trkpt lat="31.547215" lon="-8.79749"><ele>370.3333333333333</ele><time>2026-04-25T17:11:35.407Z</time></trkpt><trkpt lat="31.54724" lon="-8.79774"><ele>370.0</ele><time>2026-04-25T17:11:36.407Z</time></trkpt><trkpt lat="31.54727" lon="-8.798"><ele>370.0</ele><time>2026-04-25T17:11:37.407Z</time></trkpt><trkpt lat="31.5473017" lon="-8.7982667"><ele>370.0</ele><time>2026-04-25T17:11:38.407Z</time></trkpt><trkpt lat="31.5473417" lon="-8.798535"><ele>368.5</ele><time>2026-04-25T17:11:39.407Z</time></trkpt><trkpt lat="31.54739" lon="-8.7988083"><ele>367.0</ele><time>2026-04-25T17:11:40.407Z</time></trkpt><trkpt lat="31.5474467" lon="-8.7990867"><ele>366.5</ele><time>2026-04-25T17:11:41.407Z</time></trkpt><trkpt lat="31.547505" lon="-8.7993633"><ele>366.0</ele><time>2026-04-25T17:11:42.407Z</time></trkpt><trkpt lat="31.5475667" lon="-8.7996483"><ele>366.0</ele><time>2026-04-25T17:11:43.407Z</time></trkpt><trkpt lat="31.547625" lon="-8.79992"><ele>366.0</ele><time>2026-04-25T17:11:44.407Z</time></trkpt><trkpt lat="31.5476767" lon="-8.8001767"><ele>366.5</ele><time>2026-04-25T17:11:45.407Z</time></trkpt><trkpt lat="31.5477267" lon="-8.80044"><ele>367.0</ele><time>2026-04-25T17:11:46.407Z</time></trkpt><trkpt lat="31.5477867" lon="-8.8007017"><ele>367.0</ele><time>2026-04-25T17:11:47.407Z</time></trkpt><trkpt lat="31.547845" lon="-8.8009683"><ele>367.0</ele><time>2026-04-25T17:11:48.407Z</time></trkpt><trkpt lat="31.5479" lon="-8.8012317"><ele>367.0</ele><time>2026-04-25T17:11:49.407Z</time></trkpt><trkpt lat="31.5479583" lon="-8.801495"><ele>367.0</ele><time>2026-04-25T17:11:50.407Z</time></trkpt><trkpt lat="31.5480133" lon="-8.8017667"><ele>368.5</ele><time>2026-04-25T17:11:51.407Z</time></trkpt><trkpt lat="31.5480683" lon="-8.8020383"><ele>370.0</ele><time>2026-04-25T17:11:52.407Z</time></trkpt><trkpt lat="31.5481233" lon="-8.8023133"><ele>370.0</ele><time>2026-04-25T17:11:53.407Z</time></trkpt><trkpt lat="31.5481817" lon="-8.80259"><ele>370.0</ele><time>2026-04-25T17:11:54.407Z</time></trkpt><trkpt lat="31.5482433" lon="-8.8028683"><ele>371.0</ele><time>2026-04-25T17:11:55.407Z</time></trkpt><trkpt lat="31.548305" lon="-8.8031517"><ele>372.0</ele><time>2026-04-25T17:11:56.407Z</time></trkpt><trkpt lat="31.5483733" lon="-8.803425"><ele>372.0</ele><time>2026-04-25T17:11:57.407Z</time></trkpt><trkpt lat="31.5484367" lon="-8.8036883"><ele>372.0</ele><time>2026-04-25T17:11:58.407Z</time></trkpt><trkpt lat="31.548495" lon="-8.80395"><ele>372.0</ele><time>2026-04-25T17:11:59.407Z</time></trkpt><trkpt lat="31.5485483" lon="-8.804205"><ele>372.0</ele><time>2026-04-25T17:12:00.407Z</time></trkpt><trkpt lat="31.5486033" lon="-8.8044633"><ele>372.0</ele><time>2026-04-25T17:12:01.407Z</time></trkpt><trkpt lat="31.54866" lon="-8.8047183"><ele>372.0</ele><time>2026-04-25T17:12:02.408Z</time></trkpt><trkpt lat="31.5487167" lon="-8.8049583"><ele>372.0</ele><time>2026-04-25T17:12:03.407Z</time></trkpt><trkpt lat="31.5487633" lon="-8.8051917"><ele>372.6666666666667</ele><time>2026-04-25T17:12:04.407Z</time></trkpt><trkpt lat="31.54881" lon="-8.805425"><ele>373.33333333333337</ele><time>2026-04-25T17:12:05.407Z</time></trkpt><trkpt lat="31.5488583" lon="-8.8056583"><ele>374.0</ele><time>2026-04-25T17:12:06.407Z</time></trkpt><trkpt lat="31.54891" lon="-8.8058917"><ele>373.6666666666667</ele><time>2026-04-25T17:12:07.407Z</time></trkpt><trkpt lat="31.5489683" lon="-8.80613"><ele>373.3333333333333</ele><time>2026-04-25T17:12:08.407Z</time></trkpt><trkpt lat="31.549025" lon="-8.8063767"><ele>373.0</ele><time>2026-04-25T17:12:09.407Z</time></trkpt><trkpt lat="31.5490767" lon="-8.8066283"><ele>374.0</ele><time>2026-04-25T17:12:10.407Z</time></trkpt><trkpt lat="31.5491333" lon="-8.8068833"><ele>375.0</ele><time>2026-04-25T17:12:11.407Z</time></trkpt><trkpt lat="31.54919" lon="-8.80714"><ele>375.0</ele><time>2026-04-25T17:12:12.407Z</time></trkpt><trkpt lat="31.5492483" lon="-8.8073883"><ele>375.0</ele><time>2026-04-25T17:12:13.407Z</time></trkpt><trkpt lat="31.5492983" lon="-8.8076317"><ele>375.0</ele><time>2026-04-25T17:12:14.407Z</time></trkpt><trkpt lat="31.5493483" lon="-8.8078767"><ele>375.3333333333333</ele><time>2026-04-25T17:12:15.407Z</time></trkpt><trkpt lat="31.5494" lon="-8.8081183"><ele>375.66666666666663</ele><time>2026-04-25T17:12:16.407Z</time></trkpt><trkpt lat="31.54945" lon="-8.8083633"><ele>376.0</ele><time>2026-04-25T17:12:17.407Z</time></trkpt><trkpt lat="31.5495" lon="-8.8086067"><ele>377.0</ele><time>2026-04-25T17:12:18.408Z</time></trkpt><trkpt lat="31.54955" lon="-8.80885"><ele>378.0</ele><time>2026-04-25T17:12:19.407Z</time></trkpt><trkpt lat="31.5496033" lon="-8.8090917"><ele>379.0</ele><time>2026-04-25T17:12:20.407Z</time></trkpt><trkpt lat="31.5496617" lon="-8.8093267"><ele>379.0</ele><time>2026-04-25T17:12:21.407Z</time></trkpt><trkpt lat="31.5497133" lon="-8.8095533"><ele>379.0</ele><time>2026-04-25T17:12:22.407Z</time></trkpt><trkpt lat="31.5497633" lon="-8.8097817"><ele>379.0</ele><time>2026-04-25T17:12:23.407Z</time></trkpt><trkpt lat="31.54981" lon="-8.8100117"><ele>379.0</ele><time>2026-04-25T17:12:24.407Z</time></trkpt><trkpt lat="31.5498667" lon="-8.8102533"><ele>379.0</ele><time>2026-04-25T17:12:25.407Z</time></trkpt><trkpt lat="31.5499233" lon="-8.8105083"><ele>379.0</ele><time>2026-04-25T17:12:26.407Z</time></trkpt><trkpt lat="31.5499783" lon="-8.8107733"><ele>378.5</ele><time>2026-04-25T17:12:27.407Z</time></trkpt><trkpt lat="31.5500367" lon="-8.8110467"><ele>378.0</ele><time>2026-04-25T17:12:28.407Z</time></trkpt><trkpt lat="31.5501017" lon="-8.8113283"><ele>378.0</ele><time>2026-04-25T17:12:29.407Z</time></trkpt><trkpt lat="31.5501583" lon="-8.8116133"><ele>378.0</ele><time>2026-04-25T17:12:30.407Z</time></trkpt><trkpt lat="31.55021" lon="-8.8118817"><ele>379.5</ele><time>2026-04-25T17:12:31.407Z</time></trkpt><trkpt lat="31.550255" lon="-8.8121533"><ele>381.0</ele><time>2026-04-25T17:12:32.407Z</time></trkpt><trkpt lat="31.5503017" lon="-8.8124283"><ele>381.5</ele><time>2026-04-25T17:12:33.407Z</time></trkpt><trkpt lat="31.5503383" lon="-8.8127"><ele>382.0</ele><time>2026-04-25T17:12:34.407Z</time></trkpt><trkpt lat="31.550375" lon="-8.8129633"><ele>382.5</ele><time>2026-04-25T17:12:35.407Z</time></trkpt><trkpt lat="31.550405" lon="-8.8132283"><ele>383.0</ele><time>2026-04-25T17:12:36.407Z</time></trkpt><trkpt lat="31.5504383" lon="-8.8134933"><ele>383.0</ele><time>2026-04-25T17:12:37.407Z</time></trkpt><trkpt lat="31.5504717" lon="-8.8137567"><ele>383.0</ele><time>2026-04-25T17:12:38.407Z</time></trkpt><trkpt lat="31.5504967" lon="-8.814015"><ele>383.0</ele><time>2026-04-25T17:12:39.407Z</time></trkpt><trkpt lat="31.5505167" lon="-8.8142883"><ele>383.0</ele><time>2026-04-25T17:12:40.407Z</time></trkpt><trkpt lat="31.5505383" lon="-8.8145633"><ele>383.0</ele><time>2026-04-25T17:12:41.407Z</time></trkpt><trkpt lat="31.55056" lon="-8.81484"><ele>383.0</ele><time>2026-04-25T17:12:42.407Z</time></trkpt><trkpt lat="31.55059" lon="-8.8151217"><ele>383.0</ele><time>2026-04-25T17:12:43.407Z</time></trkpt><trkpt lat="31.5506283" lon="-8.81539"><ele>383.0</ele><time>2026-04-25T17:12:44.407Z</time></trkpt><trkpt lat="31.5506583" lon="-8.815655"><ele>383.0</ele><time>2026-04-25T17:12:45.407Z</time></trkpt><trkpt lat="31.5506833" lon="-8.8159183"><ele>383.6666666666667</ele><time>2026-04-25T17:12:46.407Z</time></trkpt><trkpt lat="31.5507117" lon="-8.81618"><ele>384.33333333333337</ele><time>2026-04-25T17:12:47.407Z</time></trkpt><trkpt lat="31.5507417" lon="-8.8164383"><ele>385.0</ele><time>2026-04-25T17:12:48.407Z</time></trkpt><trkpt lat="31.5507683" lon="-8.816695"><ele>385.33333333333337</ele><time>2026-04-25T17:12:49.407Z</time></trkpt><trkpt lat="31.55079" lon="-8.8169483"><ele>385.66666666666663</ele><time>2026-04-25T17:12:50.407Z</time></trkpt><trkpt lat="31.55081" lon="-8.8171983"><ele>386.0</ele><time>2026-04-25T17:12:51.407Z</time></trkpt><trkpt lat="31.5508317" lon="-8.8174467"><ele>385.66666666666663</ele><time>2026-04-25T17:12:52.407Z</time></trkpt><trkpt lat="31.5508517" lon="-8.8177017"><ele>385.33333333333337</ele><time>2026-04-25T17:12:53.407Z</time></trkpt><trkpt lat="31.5508817" lon="-8.81796"><ele>385.0</ele><time>2026-04-25T17:12:54.407Z</time></trkpt><trkpt lat="31.55091" lon="-8.8182167"><ele>385.0</ele><time>2026-04-25T17:12:55.407Z</time></trkpt><trkpt lat="31.5509333" lon="-8.8184767"><ele>385.0</ele><time>2026-04-25T17:12:56.408Z</time></trkpt><trkpt lat="31.5509567" lon="-8.818725"><ele>385.0</ele><time>2026-04-25T17:12:57.407Z</time></trkpt><trkpt lat="31.550975" lon="-8.8189683"><ele>385.6666666666667</ele><time>2026-04-25T17:12:58.407Z</time></trkpt><trkpt lat="31.5509967" lon="-8.819205"><ele>386.33333333333337</ele><time>2026-04-25T17:12:59.407Z</time></trkpt><trkpt lat="31.5510217" lon="-8.81944"><ele>387.0</ele><time>2026-04-25T17:13:00.407Z</time></trkpt><trkpt lat="31.5510517" lon="-8.819675"><ele>387.0</ele><time>2026-04-25T17:13:01.407Z</time></trkpt><trkpt lat="31.5510767" lon="-8.81992"><ele>387.0</ele><time>2026-04-25T17:13:02.407Z</time></trkpt><trkpt lat="31.551105" lon="-8.820165"><ele>387.0</ele><time>2026-04-25T17:13:03.407Z</time></trkpt><trkpt lat="31.55114" lon="-8.820415"><ele>387.66666666666663</ele><time>2026-04-25T17:13:04.407Z</time></trkpt><trkpt lat="31.5511767" lon="-8.8206717"><ele>388.3333333333333</ele><time>2026-04-25T17:13:05.407Z</time></trkpt><trkpt lat="31.5512317" lon="-8.8209267"><ele>389.0</ele><time>2026-04-25T17:13:06.407Z</time></trkpt><trkpt lat="31.55129" lon="-8.82118"><ele>390.0</ele><time>2026-04-25T17:13:07.407Z</time></trkpt><trkpt lat="31.5513467" lon="-8.8214333"><ele>391.0</ele><time>2026-04-25T17:13:08.407Z</time></trkpt><trkpt lat="31.551405" lon="-8.821685"><ele>392.0</ele><time>2026-04-25T17:13:09.407Z</time></trkpt><trkpt lat="31.5514617" lon="-8.8219367"><ele>392.0</ele><time>2026-04-25T17:13:10.407Z</time></trkpt><trkpt lat="31.551515" lon="-8.82219"><ele>392.0</ele><time>2026-04-25T17:13:11.408Z</time></trkpt><trkpt lat="31.551575" lon="-8.8224467"><ele>392.0</ele><time>2026-04-25T17:13:12.407Z</time></trkpt><trkpt lat="31.5516383" lon="-8.822705"><ele>392.0</ele><time>2026-04-25T17:13:13.407Z</time></trkpt><trkpt lat="31.5516983" lon="-8.8229667"><ele>392.0</ele><time>2026-04-25T17:13:14.407Z</time></trkpt><trkpt lat="31.5517533" lon="-8.8232233"><ele>392.0</ele><time>2026-04-25T17:13:15.407Z</time></trkpt><trkpt lat="31.55181" lon="-8.82348"><ele>392.0</ele><time>2026-04-25T17:13:16.407Z</time></trkpt><trkpt lat="31.5518633" lon="-8.823735"><ele>392.66666666666663</ele><time>2026-04-25T17:13:17.407Z</time></trkpt><trkpt lat="31.55192" lon="-8.8239867"><ele>393.33333333333337</ele><time>2026-04-25T17:13:18.407Z</time></trkpt><trkpt lat="31.551975" lon="-8.82424"><ele>394.0</ele><time>2026-04-25T17:13:19.407Z</time></trkpt><trkpt lat="31.5520333" lon="-8.8244933"><ele>395.0</ele><time>2026-04-25T17:13:20.407Z</time></trkpt><trkpt lat="31.552095" lon="-8.8247483"><ele>396.0</ele><time>2026-04-25T17:13:21.407Z</time></trkpt><trkpt lat="31.5521533" lon="-8.824995"><ele>397.0</ele><time>2026-04-25T17:13:22.408Z</time></trkpt><trkpt lat="31.5522083" lon="-8.8252433"><ele>398.0</ele><time>2026-04-25T17:13:23.407Z</time></trkpt><trkpt lat="31.55227" lon="-8.8255"><ele>399.0</ele><time>2026-04-25T17:13:24.407Z</time></trkpt><trkpt lat="31.55233" lon="-8.8257533"><ele>399.33333333333337</ele><time>2026-04-25T17:13:25.407Z</time></trkpt><trkpt lat="31.552385" lon="-8.826005"><ele>399.6666666666667</ele><time>2026-04-25T17:13:26.407Z</time></trkpt><trkpt lat="31.5524383" lon="-8.8262567"><ele>400.0</ele><time>2026-04-25T17:13:27.407Z</time></trkpt><trkpt lat="31.5524983" lon="-8.8265067"><ele>400.0</ele><time>2026-04-25T17:13:28.407Z</time></trkpt><trkpt lat="31.5525583" lon="-8.8267617"><ele>400.0</ele><time>2026-04-25T17:13:29.407Z</time></trkpt><trkpt lat="31.55262" lon="-8.8270183"><ele>399.5</ele><time>2026-04-25T17:13:30.407Z</time></trkpt><trkpt lat="31.55268" lon="-8.827275"><ele>399.0</ele><time>2026-04-25T17:13:31.407Z</time></trkpt><trkpt lat="31.552735" lon="-8.82753"><ele>401.0</ele><time>2026-04-25T17:13:32.407Z</time></trkpt><trkpt lat="31.552795" lon="-8.8277883"><ele>403.0</ele><time>2026-04-25T17:13:33.407Z</time></trkpt><trkpt lat="31.552855" lon="-8.8280467"><ele>403.0</ele><time>2026-04-25T17:13:34.407Z</time></trkpt><trkpt lat="31.5529167" lon="-8.8283067"><ele>403.0</ele><time>2026-04-25T17:13:35.407Z</time></trkpt><trkpt lat="31.552975" lon="-8.82857"><ele>404.5</ele><time>2026-04-25T17:13:36.407Z</time></trkpt><trkpt lat="31.5530367" lon="-8.828835"><ele>406.0</ele><time>2026-04-25T17:13:37.407Z</time></trkpt><trkpt lat="31.5530983" lon="-8.829095"><ele>408.0</ele><time>2026-04-25T17:13:38.407Z</time></trkpt><trkpt lat="31.5531583" lon="-8.8293567"><ele>410.0</ele><time>2026-04-25T17:13:39.407Z</time></trkpt><trkpt lat="31.5532183" lon="-8.8296233"><ele>410.0</ele><time>2026-04-25T17:13:40.407Z</time></trkpt><trkpt lat="31.5532783" lon="-8.82989"><ele>410.0</ele><time>2026-04-25T17:13:41.408Z</time></trkpt><trkpt lat="31.55334" lon="-8.830155"><ele>411.5</ele><time>2026-04-25T17:13:42.407Z</time></trkpt><trkpt lat="31.5534017" lon="-8.8304233"><ele>413.0</ele><time>2026-04-25T17:13:43.407Z</time></trkpt><trkpt lat="31.553465" lon="-8.8306983"><ele>413.0</ele><time>2026-04-25T17:13:44.407Z</time></trkpt><trkpt lat="31.553535" lon="-8.83098"><ele>413.0</ele><time>2026-04-25T17:13:45.407Z</time></trkpt><trkpt lat="31.5536067" lon="-8.8312583"><ele>413.0</ele><time>2026-04-25T17:13:46.407Z</time></trkpt><trkpt lat="31.5536783" lon="-8.8315333"><ele>413.0</ele><time>2026-04-25T17:13:47.407Z</time></trkpt><trkpt lat="31.55375" lon="-8.8318117"><ele>414.5</ele><time>2026-04-25T17:13:48.407Z</time></trkpt><trkpt lat="31.5538217" lon="-8.8320983"><ele>416.0</ele><time>2026-04-25T17:13:49.407Z</time></trkpt><trkpt lat="31.553895" lon="-8.83238"><ele>417.0</ele><time>2026-04-25T17:13:50.407Z</time></trkpt><trkpt lat="31.5539767" lon="-8.83266"><ele>418.0</ele><time>2026-04-25T17:13:51.407Z</time></trkpt><trkpt lat="31.5540567" lon="-8.8329433"><ele>418.0</ele><time>2026-04-25T17:13:52.407Z</time></trkpt><trkpt lat="31.554135" lon="-8.8332267"><ele>418.0</ele><time>2026-04-25T17:13:53.407Z</time></trkpt><trkpt lat="31.5542083" lon="-8.83351"><ele>420.0</ele><time>2026-04-25T17:13:54.407Z</time></trkpt><trkpt lat="31.554285" lon="-8.833795"><ele>422.0</ele><time>2026-04-25T17:13:55.407Z</time></trkpt><trkpt lat="31.5543633" lon="-8.8340783"><ele>422.0</ele><time>2026-04-25T17:13:56.407Z</time></trkpt><trkpt lat="31.5544417" lon="-8.83436"><ele>422.0</ele><time>2026-04-25T17:13:57.407Z</time></trkpt><trkpt lat="31.5545233" lon="-8.8346483"><ele>421.5</ele><time>2026-04-25T17:13:58.407Z</time></trkpt><trkpt lat="31.5546017" lon="-8.8349233"><ele>421.0</ele><time>2026-04-25T17:13:59.407Z</time></trkpt><trkpt lat="31.55467" lon="-8.8351883"><ele>420.5</ele><time>2026-04-25T17:14:00.406Z</time></trkpt><trkpt lat="31.5547383" lon="-8.8354533"><ele>420.0</ele><time>2026-04-25T17:14:01.406Z</time></trkpt><trkpt lat="31.5548083" lon="-8.835715"><ele>422.0</ele><time>2026-04-25T17:14:02.406Z</time></trkpt><trkpt lat="31.5548817" lon="-8.8359817"><ele>424.0</ele><time>2026-04-25T17:14:03.406Z</time></trkpt><trkpt lat="31.5549533" lon="-8.83625"><ele>424.0</ele><time>2026-04-25T17:14:04.406Z</time></trkpt><trkpt lat="31.5550267" lon="-8.8365217"><ele>424.0</ele><time>2026-04-25T17:14:05.406Z</time></trkpt><trkpt lat="31.5550933" lon="-8.8367967"><ele>424.5</ele><time>2026-04-25T17:14:06.406Z</time></trkpt><trkpt lat="31.5551583" lon="-8.8370633"><ele>425.0</ele><time>2026-04-25T17:14:07.406Z</time></trkpt><trkpt lat="31.5552233" lon="-8.8373283"><ele>425.0</ele><time>2026-04-25T17:14:08.406Z</time></trkpt><trkpt lat="31.5552833" lon="-8.8375967"><ele>425.0</ele><time>2026-04-25T17:14:09.406Z</time></trkpt><trkpt lat="31.5553417" lon="-8.8378717"><ele>426.5</ele><time>2026-04-25T17:14:10.406Z</time></trkpt><trkpt lat="31.5554" lon="-8.8381517"><ele>428.0</ele><time>2026-04-25T17:14:11.406Z</time></trkpt><trkpt lat="31.5554583" lon="-8.838435"><ele>430.0</ele><time>2026-04-25T17:14:12.406Z</time></trkpt><trkpt lat="31.55552" lon="-8.8387117"><ele>432.0</ele><time>2026-04-25T17:14:13.406Z</time></trkpt><trkpt lat="31.555575" lon="-8.8389883"><ele>432.0</ele><time>2026-04-25T17:14:14.406Z</time></trkpt><trkpt lat="31.5556333" lon="-8.8392667"><ele>432.0</ele><time>2026-04-25T17:14:15.406Z</time></trkpt><trkpt lat="31.55569" lon="-8.8395533"><ele>434.0</ele><time>2026-04-25T17:14:16.406Z</time></trkpt><trkpt lat="31.5557483" lon="-8.8398383"><ele>436.0</ele><time>2026-04-25T17:14:17.406Z</time></trkpt><trkpt lat="31.555805" lon="-8.840125"><ele>438.0</ele><time>2026-04-25T17:14:18.406Z</time></trkpt><trkpt lat="31.5558583" lon="-8.8404183"><ele>440.0</ele><time>2026-04-25T17:14:19.406Z</time></trkpt><trkpt lat="31.55591" lon="-8.8407167"><ele>440.5</ele><time>2026-04-25T17:14:20.406Z</time></trkpt><trkpt lat="31.5559583" lon="-8.84101"><ele>441.0</ele><time>2026-04-25T17:14:21.406Z</time></trkpt><trkpt lat="31.5560117" lon="-8.841305"><ele>441.0</ele><time>2026-04-25T17:14:22.406Z</time></trkpt><trkpt lat="31.5560617" lon="-8.8415967"><ele>441.0</ele><time>2026-04-25T17:14:23.406Z</time></trkpt><trkpt lat="31.5561067" lon="-8.8419"><ele>441.0</ele><time>2026-04-25T17:14:24.406Z</time></trkpt><trkpt lat="31.5561533" lon="-8.8422"><ele>441.0</ele><time>2026-04-25T17:14:25.406Z</time></trkpt><trkpt lat="31.556195" lon="-8.8424983"><ele>444.5</ele><time>2026-04-25T17:14:26.406Z</time></trkpt><trkpt lat="31.5562383" lon="-8.8427967"><ele>448.0</ele><time>2026-04-25T17:14:27.406Z</time></trkpt><trkpt lat="31.5562833" lon="-8.8431"><ele>448.0</ele><time>2026-04-25T17:14:28.406Z</time></trkpt><trkpt lat="31.55633" lon="-8.8434033"><ele>448.0</ele><time>2026-04-25T17:14:29.406Z</time></trkpt><trkpt lat="31.5563733" lon="-8.843705"><ele>448.5</ele><time>2026-04-25T17:14:30.406Z</time></trkpt><trkpt lat="31.556415" lon="-8.8440033"><ele>449.0</ele><time>2026-04-25T17:14:31.406Z</time></trkpt><trkpt lat="31.556445" lon="-8.844295"><ele>452.0</ele><time>2026-04-25T17:14:32.406Z</time></trkpt><trkpt lat="31.5564767" lon="-8.8445817"><ele>455.0</ele><time>2026-04-25T17:14:33.406Z</time></trkpt><trkpt lat="31.556505" lon="-8.844855"><ele>455.0</ele><time>2026-04-25T17:14:34.406Z</time></trkpt><trkpt lat="31.556535" lon="-8.8451167"><ele>455.0</ele><time>2026-04-25T17:14:35.406Z</time></trkpt><trkpt lat="31.5565667" lon="-8.845375"><ele>455.0</ele><time>2026-04-25T17:14:36.406Z</time></trkpt><trkpt lat="31.5565933" lon="-8.84563"><ele>455.66666666666663</ele><time>2026-04-25T17:14:37.406Z</time></trkpt><trkpt lat="31.5566217" lon="-8.8458867"><ele>456.33333333333337</ele><time>2026-04-25T17:14:38.406Z</time></trkpt><trkpt lat="31.5566483" lon="-8.8461483"><ele>457.0</ele><time>2026-04-25T17:14:39.407Z</time></trkpt><trkpt lat="31.5566767" lon="-8.8464183"><ele>454.6666666666667</ele><time>2026-04-25T17:14:40.407Z</time></trkpt><trkpt lat="31.5567033" lon="-8.8466817"><ele>452.33333333333337</ele><time>2026-04-25T17:14:41.406Z</time></trkpt><trkpt lat="31.5567267" lon="-8.8469383"><ele>450.0</ele><time>2026-04-25T17:14:42.406Z</time></trkpt><trkpt lat="31.5567567" lon="-8.8471917"><ele>448.0</ele><time>2026-04-25T17:14:43.407Z</time></trkpt><trkpt lat="31.55679" lon="-8.847445"><ele>446.0</ele><time>2026-04-25T17:14:44.406Z</time></trkpt><trkpt lat="31.5568183" lon="-8.8477"><ele>444.0</ele><time>2026-04-25T17:14:45.406Z</time></trkpt><trkpt lat="31.5568483" lon="-8.8479633"><ele>443.0</ele><time>2026-04-25T17:14:46.406Z</time></trkpt><trkpt lat="31.556875" lon="-8.848225"><ele>442.0</ele><time>2026-04-25T17:14:47.406Z</time></trkpt><trkpt lat="31.5569067" lon="-8.848495"><ele>441.5</ele><time>2026-04-25T17:14:48.406Z</time></trkpt><trkpt lat="31.55694" lon="-8.8487683"><ele>441.0</ele><time>2026-04-25T17:14:49.406Z</time></trkpt><trkpt lat="31.5569733" lon="-8.8490367"><ele>438.5</ele><time>2026-04-25T17:14:50.406Z</time></trkpt><trkpt lat="31.557005" lon="-8.84931"><ele>436.0</ele><time>2026-04-25T17:14:51.407Z</time></trkpt><trkpt lat="31.5570383" lon="-8.849585"><ele>434.0</ele><time>2026-04-25T17:14:52.406Z</time></trkpt><trkpt lat="31.55707" lon="-8.8498633"><ele>432.0</ele><time>2026-04-25T17:14:53.406Z</time></trkpt><trkpt lat="31.5571" lon="-8.8501417"><ele>430.0</ele><time>2026-04-25T17:14:54.406Z</time></trkpt><trkpt lat="31.55713" lon="-8.850415"><ele>428.0</ele><time>2026-04-25T17:14:55.406Z</time></trkpt><trkpt lat="31.5571617" lon="-8.850695"><ele>426.0</ele><time>2026-04-25T17:14:56.406Z</time></trkpt><trkpt lat="31.5571883" lon="-8.8509733"><ele>424.0</ele><time>2026-04-25T17:14:57.406Z</time></trkpt><trkpt lat="31.5572167" lon="-8.8512533"><ele>424.0</ele><time>2026-04-25T17:14:58.406Z</time></trkpt><trkpt lat="31.5572467" lon="-8.85153"><ele>424.0</ele><time>2026-04-25T17:14:59.406Z</time></trkpt><trkpt lat="31.5572767" lon="-8.8518133"><ele>423.0</ele><time>2026-04-25T17:15:00.406Z</time></trkpt><trkpt lat="31.5573033" lon="-8.8520933"><ele>422.0</ele><time>2026-04-25T17:15:01.406Z</time></trkpt><trkpt lat="31.557335" lon="-8.85237"><ele>420.0</ele><time>2026-04-25T17:15:02.406Z</time></trkpt><trkpt lat="31.55737" lon="-8.85265"><ele>418.0</ele><time>2026-04-25T17:15:03.406Z</time></trkpt><trkpt lat="31.5573983" lon="-8.8529283"><ele>418.0</ele><time>2026-04-25T17:15:04.406Z</time></trkpt><trkpt lat="31.55743" lon="-8.8532117"><ele>418.0</ele><time>2026-04-25T17:15:05.406Z</time></trkpt><trkpt lat="31.5574633" lon="-8.853495"><ele>417.5</ele><time>2026-04-25T17:15:06.406Z</time></trkpt><trkpt lat="31.5574917" lon="-8.8537783"><ele>417.0</ele><time>2026-04-25T17:15:07.406Z</time></trkpt><trkpt lat="31.557525" lon="-8.854055"><ele>416.0</ele><time>2026-04-25T17:15:08.406Z</time></trkpt><trkpt lat="31.5575567" lon="-8.8543383"><ele>415.0</ele><time>2026-04-25T17:15:09.406Z</time></trkpt><trkpt lat="31.55759" lon="-8.85462"><ele>415.0</ele><time>2026-04-25T17:15:10.406Z</time></trkpt><trkpt lat="31.557625" lon="-8.8548983"><ele>415.0</ele><time>2026-04-25T17:15:11.406Z</time></trkpt><trkpt lat="31.5576583" lon="-8.855185"><ele>414.0</ele><time>2026-04-25T17:15:12.406Z</time></trkpt><trkpt lat="31.55769" lon="-8.8554683"><ele>413.0</ele><time>2026-04-25T17:15:13.407Z</time></trkpt><trkpt lat="31.5577167" lon="-8.8557583"><ele>411.0</ele><time>2026-04-25T17:15:14.406Z</time></trkpt><trkpt lat="31.557745" lon="-8.8560417"><ele>409.0</ele><time>2026-04-25T17:15:15.406Z</time></trkpt><trkpt lat="31.55778" lon="-8.8563283"><ele>409.0</ele><time>2026-04-25T17:15:16.406Z</time></trkpt><trkpt lat="31.5578133" lon="-8.8566117"><ele>409.0</ele><time>2026-04-25T17:15:17.406Z</time></trkpt><trkpt lat="31.5578467" lon="-8.8569033"><ele>407.0</ele><time>2026-04-25T17:15:18.406Z</time></trkpt><trkpt lat="31.5578733" lon="-8.857195"><ele>405.0</ele><time>2026-04-25T17:15:19.406Z</time></trkpt><trkpt lat="31.557905" lon="-8.85749"><ele>404.5</ele><time>2026-04-25T17:15:20.406Z</time></trkpt><trkpt lat="31.5579367" lon="-8.8577817"><ele>404.0</ele><time>2026-04-25T17:15:21.406Z</time></trkpt><trkpt lat="31.5579683" lon="-8.85807"><ele>404.0</ele><time>2026-04-25T17:15:22.406Z</time></trkpt><trkpt lat="31.558" lon="-8.858365"><ele>404.0</ele><time>2026-04-25T17:15:23.406Z</time></trkpt><trkpt lat="31.5580333" lon="-8.85866"><ele>403.5</ele><time>2026-04-25T17:15:24.406Z</time></trkpt><trkpt lat="31.5580683" lon="-8.8589633"><ele>403.0</ele><time>2026-04-25T17:15:25.406Z</time></trkpt><trkpt lat="31.5581067" lon="-8.8592633"><ele>402.0</ele><time>2026-04-25T17:15:26.406Z</time></trkpt><trkpt lat="31.5581483" lon="-8.85956"><ele>401.0</ele><time>2026-04-25T17:15:27.406Z</time></trkpt><trkpt lat="31.55819" lon="-8.8598567"><ele>400.0</ele><time>2026-04-25T17:15:28.406Z</time></trkpt><trkpt lat="31.55823" lon="-8.86015"><ele>399.0</ele><time>2026-04-25T17:15:29.406Z</time></trkpt><trkpt lat="31.5582617" lon="-8.8604417"><ele>399.0</ele><time>2026-04-25T17:15:30.406Z</time></trkpt><trkpt lat="31.5582933" lon="-8.8607333"><ele>399.0</ele><time>2026-04-25T17:15:31.406Z</time></trkpt><trkpt lat="31.5583283" lon="-8.8610233"><ele>397.5</ele><time>2026-04-25T17:15:32.406Z</time></trkpt><trkpt lat="31.55836" lon="-8.8613133"><ele>396.0</ele><time>2026-04-25T17:15:33.406Z</time></trkpt><trkpt lat="31.55839" lon="-8.8616033"><ele>395.0</ele><time>2026-04-25T17:15:34.406Z</time></trkpt><trkpt lat="31.55842" lon="-8.8619"><ele>394.0</ele><time>2026-04-25T17:15:35.406Z</time></trkpt><trkpt lat="31.5584517" lon="-8.8621983"><ele>394.0</ele><time>2026-04-25T17:15:36.406Z</time></trkpt><trkpt lat="31.5584833" lon="-8.8624917"><ele>394.0</ele><time>2026-04-25T17:15:37.406Z</time></trkpt><trkpt lat="31.5585133" lon="-8.8627783"><ele>393.0</ele><time>2026-04-25T17:15:38.406Z</time></trkpt><trkpt lat="31.5585467" lon="-8.8630667"><ele>392.0</ele><time>2026-04-25T17:15:39.406Z</time></trkpt><trkpt lat="31.5585783" lon="-8.8633567"><ele>392.0</ele><time>2026-04-25T17:15:40.406Z</time></trkpt><trkpt lat="31.5586133" lon="-8.863645"><ele>392.0</ele><time>2026-04-25T17:15:41.406Z</time></trkpt><trkpt lat="31.5586467" lon="-8.8639317"><ele>392.0</ele><time>2026-04-25T17:15:42.406Z</time></trkpt><trkpt lat="31.5586783" lon="-8.8642183"><ele>392.0</ele><time>2026-04-25T17:15:43.406Z</time></trkpt><trkpt lat="31.5587067" lon="-8.8645033"><ele>391.0</ele><time>2026-04-25T17:15:44.406Z</time></trkpt><trkpt lat="31.55874" lon="-8.86479"><ele>390.0</ele><time>2026-04-25T17:15:45.406Z</time></trkpt><trkpt lat="31.5587717" lon="-8.86508"><ele>389.0</ele><time>2026-04-25T17:15:46.406Z</time></trkpt><trkpt lat="31.558805" lon="-8.865365"><ele>388.0</ele><time>2026-04-25T17:15:47.406Z</time></trkpt><trkpt lat="31.5588367" lon="-8.8656533"><ele>388.0</ele><time>2026-04-25T17:15:48.407Z</time></trkpt><trkpt lat="31.5588667" lon="-8.86594"><ele>388.0</ele><time>2026-04-25T17:15:49.406Z</time></trkpt><trkpt lat="31.558895" lon="-8.8662333"><ele>387.5</ele><time>2026-04-25T17:15:50.406Z</time></trkpt><trkpt lat="31.55893" lon="-8.8665283"><ele>387.0</ele><time>2026-04-25T17:15:51.406Z</time></trkpt><trkpt lat="31.5589633" lon="-8.866825"><ele>387.0</ele><time>2026-04-25T17:15:52.406Z</time></trkpt><trkpt lat="31.5589983" lon="-8.86712"><ele>387.0</ele><time>2026-04-25T17:15:53.406Z</time></trkpt><trkpt lat="31.5590333" lon="-8.8674167"><ele>386.5</ele><time>2026-04-25T17:15:54.406Z</time></trkpt><trkpt lat="31.559065" lon="-8.86771"><ele>386.0</ele><time>2026-04-25T17:15:55.406Z</time></trkpt><trkpt lat="31.5590983" lon="-8.868005"><ele>386.0</ele><time>2026-04-25T17:15:56.406Z</time></trkpt><trkpt lat="31.55913" lon="-8.8682967"><ele>386.0</ele><time>2026-04-25T17:15:57.406Z</time></trkpt><trkpt lat="31.559165" lon="-8.8685817"><ele>385.5</ele><time>2026-04-25T17:15:58.406Z</time></trkpt><trkpt lat="31.5591983" lon="-8.8688683"><ele>385.0</ele><time>2026-04-25T17:15:59.407Z</time></trkpt><trkpt lat="31.55923" lon="-8.8691517"><ele>385.0</ele><time>2026-04-25T17:16:00.406Z</time></trkpt><trkpt lat="31.5592633" lon="-8.8694367"><ele>385.0</ele><time>2026-04-25T17:16:01.406Z</time></trkpt><trkpt lat="31.5592983" lon="-8.8697217"><ele>385.0</ele><time>2026-04-25T17:16:02.406Z</time></trkpt><trkpt lat="31.55933" lon="-8.870005"><ele>385.0</ele><time>2026-04-25T17:16:03.406Z</time></trkpt><trkpt lat="31.5593567" lon="-8.8702933"><ele>383.0</ele><time>2026-04-25T17:16:04.406Z</time></trkpt><trkpt lat="31.5593883" lon="-8.8705833"><ele>381.0</ele><time>2026-04-25T17:16:05.406Z</time></trkpt><trkpt lat="31.5594217" lon="-8.87087"><ele>380.5</ele><time>2026-04-25T17:16:06.406Z</time></trkpt><trkpt lat="31.5594517" lon="-8.871165"><ele>380.0</ele><time>2026-04-25T17:16:07.406Z</time></trkpt><trkpt lat="31.559485" lon="-8.8714583"><ele>380.0</ele><time>2026-04-25T17:16:08.407Z</time></trkpt><trkpt lat="31.5595167" lon="-8.8717517"><ele>380.0</ele><time>2026-04-25T17:16:09.406Z</time></trkpt><trkpt lat="31.5595517" lon="-8.8720433"><ele>379.0</ele><time>2026-04-25T17:16:10.406Z</time></trkpt><trkpt lat="31.5595833" lon="-8.8723383"><ele>378.0</ele><time>2026-04-25T17:16:11.406Z</time></trkpt><trkpt lat="31.5596167" lon="-8.8726433"><ele>378.0</ele><time>2026-04-25T17:16:12.406Z</time></trkpt><trkpt lat="31.5596533" lon="-8.872945"><ele>378.0</ele><time>2026-04-25T17:16:13.406Z</time></trkpt><trkpt lat="31.5596883" lon="-8.8732517"><ele>377.0</ele><time>2026-04-25T17:16:14.406Z</time></trkpt><trkpt lat="31.55972" lon="-8.873555"><ele>376.0</ele><time>2026-04-25T17:16:15.406Z</time></trkpt><trkpt lat="31.559755" lon="-8.8738533"><ele>376.0</ele><time>2026-04-25T17:16:16.406Z</time></trkpt><trkpt lat="31.55979" lon="-8.8741583"><ele>376.0</ele><time>2026-04-25T17:16:17.407Z</time></trkpt><trkpt lat="31.5598217" lon="-8.8744633"><ele>374.5</ele><time>2026-04-25T17:16:18.406Z</time></trkpt><trkpt lat="31.559855" lon="-8.87477"><ele>373.0</ele><time>2026-04-25T17:16:19.406Z</time></trkpt><trkpt lat="31.559885" lon="-8.875075"><ele>373.0</ele><time>2026-04-25T17:16:20.406Z</time></trkpt><trkpt lat="31.5599183" lon="-8.8753867"><ele>373.0</ele><time>2026-04-25T17:16:21.406Z</time></trkpt><trkpt lat="31.55995" lon="-8.8756967"><ele>372.5</ele><time>2026-04-25T17:16:22.406Z</time></trkpt><trkpt lat="31.5599817" lon="-8.87601"><ele>372.0</ele><time>2026-04-25T17:16:23.407Z</time></trkpt><trkpt lat="31.5600167" lon="-8.8763217"><ele>372.0</ele><time>2026-04-25T17:16:24.407Z</time></trkpt><trkpt lat="31.5600533" lon="-8.8766333"><ele>372.0</ele><time>2026-04-25T17:16:25.406Z</time></trkpt><trkpt lat="31.5600833" lon="-8.876945"><ele>371.5</ele><time>2026-04-25T17:16:26.406Z</time></trkpt><trkpt lat="31.5601217" lon="-8.8772467"><ele>371.0</ele><time>2026-04-25T17:16:27.406Z</time></trkpt><trkpt lat="31.5601583" lon="-8.8775517"><ele>370.5</ele><time>2026-04-25T17:16:28.406Z</time></trkpt><trkpt lat="31.560195" lon="-8.8778583"><ele>370.0</ele><time>2026-04-25T17:16:29.406Z</time></trkpt><trkpt lat="31.5602317" lon="-8.8781617"><ele>369.0</ele><time>2026-04-25T17:16:30.406Z</time></trkpt><trkpt lat="31.560265" lon="-8.8784617"><ele>368.0</ele><time>2026-04-25T17:16:31.407Z</time></trkpt><trkpt lat="31.5602967" lon="-8.878745"><ele>368.0</ele><time>2026-04-25T17:16:32.406Z</time></trkpt><trkpt lat="31.5603233" lon="-8.8790217"><ele>368.0</ele><time>2026-04-25T17:16:33.406Z</time></trkpt><trkpt lat="31.5603467" lon="-8.8792967"><ele>368.33333333333337</ele><time>2026-04-25T17:16:34.406Z</time></trkpt><trkpt lat="31.5603683" lon="-8.8795617"><ele>368.6666666666667</ele><time>2026-04-25T17:16:35.406Z</time></trkpt><trkpt lat="31.560395" lon="-8.8797933"><ele>369.0</ele><time>2026-04-25T17:16:36.406Z</time></trkpt><trkpt lat="31.5604217" lon="-8.8800033"><ele>368.3333333333333</ele><time>2026-04-25T17:16:37.406Z</time></trkpt><trkpt lat="31.5604383" lon="-8.8801933"><ele>367.66666666666663</ele><time>2026-04-25T17:16:38.406Z</time></trkpt><trkpt lat="31.5604617" lon="-8.8803717"><ele>367.0</ele><time>2026-04-25T17:16:39.406Z</time></trkpt><trkpt lat="31.56048" lon="-8.8805433"><ele>367.0</ele><time>2026-04-25T17:16:40.406Z</time></trkpt><trkpt lat="31.5605017" lon="-8.8807033"><ele>367.0</ele><time>2026-04-25T17:16:41.406Z</time></trkpt><trkpt lat="31.560515" lon="-8.8808633"><ele>367.0</ele><time>2026-04-25T17:16:42.406Z</time></trkpt><trkpt lat="31.5605333" lon="-8.8810267"><ele>367.0</ele><time>2026-04-25T17:16:43.406Z</time></trkpt><trkpt lat="31.5605517" lon="-8.8811933"><ele>367.0</ele><time>2026-04-25T17:16:44.406Z</time></trkpt><trkpt lat="31.560575" lon="-8.8813683"><ele>367.0</ele><time>2026-04-25T17:16:45.406Z</time></trkpt><trkpt lat="31.5605967" lon="-8.8815483"><ele>367.0</ele><time>2026-04-25T17:16:46.406Z</time></trkpt><trkpt lat="31.56062" lon="-8.88174"><ele>367.0</ele><time>2026-04-25T17:16:47.406Z</time></trkpt><trkpt lat="31.5606483" lon="-8.8819383"><ele>367.0</ele><time>2026-04-25T17:16:48.406Z</time></trkpt><trkpt lat="31.56067" lon="-8.8821467"><ele>367.0</ele><time>2026-04-25T17:16:49.406Z</time></trkpt><trkpt lat="31.5606933" lon="-8.8823617"><ele>367.0</ele><time>2026-04-25T17:16:50.406Z</time></trkpt><trkpt lat="31.5607183" lon="-8.882585"><ele>367.0</ele><time>2026-04-25T17:16:51.406Z</time></trkpt><trkpt lat="31.5607483" lon="-8.8828133"><ele>367.0</ele><time>2026-04-25T17:16:52.406Z</time></trkpt><trkpt lat="31.5607783" lon="-8.8830483"><ele>366.66666666666663</ele><time>2026-04-25T17:16:53.406Z</time></trkpt><trkpt lat="31.5608067" lon="-8.8832917"><ele>366.3333333333333</ele><time>2026-04-25T17:16:54.406Z</time></trkpt><trkpt lat="31.560835" lon="-8.88354"><ele>366.0</ele><time>2026-04-25T17:16:55.406Z</time></trkpt><trkpt lat="31.560865" lon="-8.8838"><ele>365.6666666666667</ele><time>2026-04-25T17:16:56.406Z</time></trkpt><trkpt lat="31.5608917" lon="-8.884055"><ele>365.33333333333337</ele><time>2026-04-25T17:16:57.406Z</time></trkpt><trkpt lat="31.5609217" lon="-8.884315"><ele>365.0</ele><time>2026-04-25T17:16:58.406Z</time></trkpt><trkpt lat="31.5609517" lon="-8.8845817"><ele>365.0</ele><time>2026-04-25T17:16:59.406Z</time></trkpt><trkpt lat="31.56098" lon="-8.8848467"><ele>365.0</ele><time>2026-04-25T17:17:00.406Z</time></trkpt><trkpt lat="31.5610017" lon="-8.8851117"><ele>364.0</ele><time>2026-04-25T17:17:01.406Z</time></trkpt><trkpt lat="31.5610317" lon="-8.88538"><ele>363.0</ele><time>2026-04-25T17:17:02.406Z</time></trkpt><trkpt lat="31.5610617" lon="-8.88566"><ele>364.0</ele><time>2026-04-25T17:17:03.406Z</time></trkpt><trkpt lat="31.5610917" lon="-8.8859383"><ele>365.0</ele><time>2026-04-25T17:17:04.406Z</time></trkpt><trkpt lat="31.561125" lon="-8.8862183"><ele>365.0</ele><time>2026-04-25T17:17:05.406Z</time></trkpt><trkpt lat="31.5611567" lon="-8.8865"><ele>365.0</ele><time>2026-04-25T17:17:06.406Z</time></trkpt><trkpt lat="31.5611867" lon="-8.886785"><ele>364.5</ele><time>2026-04-25T17:17:07.407Z</time></trkpt><trkpt lat="31.561215" lon="-8.8870633"><ele>364.0</ele><time>2026-04-25T17:17:08.406Z</time></trkpt><trkpt lat="31.561245" lon="-8.8873433"><ele>364.5</ele><time>2026-04-25T17:17:09.406Z</time></trkpt><trkpt lat="31.5612783" lon="-8.88762"><ele>365.0</ele><time>2026-04-25T17:17:10.406Z</time></trkpt><trkpt lat="31.5613083" lon="-8.8878817"><ele>365.0</ele><time>2026-04-25T17:17:11.406Z</time></trkpt><trkpt lat="31.56134" lon="-8.8881383"><ele>365.0</ele><time>2026-04-25T17:17:12.406Z</time></trkpt><trkpt lat="31.5613667" lon="-8.888385"><ele>365.0</ele><time>2026-04-25T17:17:13.406Z</time></trkpt><trkpt lat="31.5613983" lon="-8.88862"><ele>364.6666666666667</ele><time>2026-04-25T17:17:14.406Z</time></trkpt><trkpt lat="31.561425" lon="-8.88885"><ele>364.3333333333333</ele><time>2026-04-25T17:17:15.406Z</time></trkpt><trkpt lat="31.5614467" lon="-8.88907"><ele>364.0</ele><time>2026-04-25T17:17:16.406Z</time></trkpt><trkpt lat="31.5614683" lon="-8.8892817"><ele>364.0</ele><time>2026-04-25T17:17:17.406Z</time></trkpt><trkpt lat="31.561485" lon="-8.8894833"><ele>364.0</ele><time>2026-04-25T17:17:18.406Z</time></trkpt><trkpt lat="31.5615083" lon="-8.889675"><ele>364.0</ele><time>2026-04-25T17:17:19.406Z</time></trkpt><trkpt lat="31.5615267" lon="-8.889865"><ele>364.0</ele><time>2026-04-25T17:17:20.406Z</time></trkpt><trkpt lat="31.5615467" lon="-8.8900667"><ele>364.0</ele><time>2026-04-25T17:17:21.406Z</time></trkpt><trkpt lat="31.5615717" lon="-8.8902733"><ele>364.0</ele><time>2026-04-25T17:17:22.406Z</time></trkpt><trkpt lat="31.561595" lon="-8.8904833"><ele>364.66666666666663</ele><time>2026-04-25T17:17:23.406Z</time></trkpt><trkpt lat="31.5616167" lon="-8.8907017"><ele>365.3333333333333</ele><time>2026-04-25T17:17:24.406Z</time></trkpt><trkpt lat="31.561645" lon="-8.890925"><ele>366.0</ele><time>2026-04-25T17:17:25.406Z</time></trkpt><trkpt lat="31.5616667" lon="-8.8911517"><ele>366.0</ele><time>2026-04-25T17:17:26.406Z</time></trkpt><trkpt lat="31.5616917" lon="-8.8913867"><ele>366.0</ele><time>2026-04-25T17:17:27.406Z</time></trkpt><trkpt lat="31.5617217" lon="-8.8916233"><ele>366.0</ele><time>2026-04-25T17:17:28.406Z</time></trkpt><trkpt lat="31.56175" lon="-8.8918583"><ele>366.3333333333333</ele><time>2026-04-25T17:17:29.406Z</time></trkpt><trkpt lat="31.5617767" lon="-8.892095"><ele>366.66666666666663</ele><time>2026-04-25T17:17:30.406Z</time></trkpt><trkpt lat="31.5618017" lon="-8.8923283"><ele>367.0</ele><time>2026-04-25T17:17:31.406Z</time></trkpt><trkpt lat="31.5618267" lon="-8.892555"><ele>367.3333333333333</ele><time>2026-04-25T17:17:32.406Z</time></trkpt><trkpt lat="31.5618467" lon="-8.8927817"><ele>367.6666666666667</ele><time>2026-04-25T17:17:33.406Z</time></trkpt><trkpt lat="31.561875" lon="-8.893005"><ele>368.0</ele><time>2026-04-25T17:17:34.406Z</time></trkpt><trkpt lat="31.5619" lon="-8.8932267"><ele>367.33333333333337</ele><time>2026-04-25T17:17:35.406Z</time></trkpt><trkpt lat="31.5619283" lon="-8.8934433"><ele>366.6666666666667</ele><time>2026-04-25T17:17:36.406Z</time></trkpt><trkpt lat="31.5619533" lon="-8.89367"><ele>366.0</ele><time>2026-04-25T17:17:37.406Z</time></trkpt><trkpt lat="31.56198" lon="-8.8938967"><ele>366.0</ele><time>2026-04-25T17:17:38.406Z</time></trkpt><trkpt lat="31.5620083" lon="-8.8941283"><ele>366.0</ele><time>2026-04-25T17:17:39.406Z</time></trkpt><trkpt lat="31.5620333" lon="-8.8943617"><ele>366.0</ele><time>2026-04-25T17:17:40.406Z</time></trkpt><trkpt lat="31.562055" lon="-8.89459"><ele>366.3333333333333</ele><time>2026-04-25T17:17:41.406Z</time></trkpt><trkpt lat="31.5620783" lon="-8.894825"><ele>366.66666666666663</ele><time>2026-04-25T17:17:42.406Z</time></trkpt><trkpt lat="31.5621083" lon="-8.89507"><ele>367.0</ele><time>2026-04-25T17:17:43.406Z</time></trkpt><trkpt lat="31.5621383" lon="-8.8953133"><ele>367.0</ele><time>2026-04-25T17:17:44.406Z</time></trkpt><trkpt lat="31.56216" lon="-8.8955567"><ele>367.0</ele><time>2026-04-25T17:17:45.406Z</time></trkpt><trkpt lat="31.562185" lon="-8.8958033"><ele>367.0</ele><time>2026-04-25T17:17:46.406Z</time></trkpt><trkpt lat="31.5622167" lon="-8.89605"><ele>367.3333333333333</ele><time>2026-04-25T17:17:47.406Z</time></trkpt><trkpt lat="31.5622467" lon="-8.8963017"><ele>367.6666666666667</ele><time>2026-04-25T17:17:48.406Z</time></trkpt><trkpt lat="31.5622767" lon="-8.896555"><ele>368.0</ele><time>2026-04-25T17:17:49.407Z</time></trkpt><trkpt lat="31.562305" lon="-8.89681"><ele>368.6666666666667</ele><time>2026-04-25T17:17:50.406Z</time></trkpt><trkpt lat="31.5623283" lon="-8.8970617"><ele>369.3333333333333</ele><time>2026-04-25T17:17:51.406Z</time></trkpt><trkpt lat="31.5623533" lon="-8.8973117"><ele>370.0</ele><time>2026-04-25T17:17:52.406Z</time></trkpt><trkpt lat="31.5623833" lon="-8.8975667"><ele>370.0</ele><time>2026-04-25T17:17:53.406Z</time></trkpt><trkpt lat="31.5624133" lon="-8.897825"><ele>370.0</ele><time>2026-04-25T17:17:54.406Z</time></trkpt><trkpt lat="31.5624417" lon="-8.8980817"><ele>370.0</ele><time>2026-04-25T17:17:55.406Z</time></trkpt><trkpt lat="31.562475" lon="-8.8983417"><ele>370.0</ele><time>2026-04-25T17:17:56.406Z</time></trkpt><trkpt lat="31.5625017" lon="-8.8986017"><ele>370.0</ele><time>2026-04-25T17:17:57.406Z</time></trkpt><trkpt lat="31.5625317" lon="-8.8988683"><ele>370.0</ele><time>2026-04-25T17:17:58.406Z</time></trkpt><trkpt lat="31.5625567" lon="-8.8991267"><ele>370.0</ele><time>2026-04-25T17:17:59.406Z</time></trkpt><trkpt lat="31.5625833" lon="-8.899385"><ele>370.0</ele><time>2026-04-25T17:18:00.406Z</time></trkpt><trkpt lat="31.56261" lon="-8.8996483"><ele>371.0</ele><time>2026-04-25T17:18:01.406Z</time></trkpt><trkpt lat="31.5626417" lon="-8.8999133"><ele>372.0</ele><time>2026-04-25T17:18:02.406Z</time></trkpt><trkpt lat="31.5626783" lon="-8.90018"><ele>372.5</ele><time>2026-04-25T17:18:03.406Z</time></trkpt><trkpt lat="31.5627083" lon="-8.9004533"><ele>373.0</ele><time>2026-04-25T17:18:04.406Z</time></trkpt><trkpt lat="31.5627383" lon="-8.9007283"><ele>374.0</ele><time>2026-04-25T17:18:05.406Z</time></trkpt><trkpt lat="31.5627717" lon="-8.9010067"><ele>375.0</ele><time>2026-04-25T17:18:06.406Z</time></trkpt><trkpt lat="31.5628017" lon="-8.9012867"><ele>375.0</ele><time>2026-04-25T17:18:07.406Z</time></trkpt><trkpt lat="31.5628383" lon="-8.9015667"><ele>375.0</ele><time>2026-04-25T17:18:08.406Z</time></trkpt><trkpt lat="31.5628767" lon="-8.901845"><ele>374.0</ele><time>2026-04-25T17:18:09.406Z</time></trkpt><trkpt lat="31.56292" lon="-8.9021267"><ele>373.0</ele><time>2026-04-25T17:18:10.407Z</time></trkpt><trkpt lat="31.56296" lon="-8.90241"><ele>373.5</ele><time>2026-04-25T17:18:11.406Z</time></trkpt><trkpt lat="31.5630083" lon="-8.9026933"><ele>374.0</ele><time>2026-04-25T17:18:12.406Z</time></trkpt><trkpt lat="31.5630517" lon="-8.9029767"><ele>374.0</ele><time>2026-04-25T17:18:13.406Z</time></trkpt><trkpt lat="31.563095" lon="-8.9032583"><ele>374.0</ele><time>2026-04-25T17:18:14.406Z</time></trkpt><trkpt lat="31.5631433" lon="-8.9035417"><ele>374.5</ele><time>2026-04-25T17:18:15.406Z</time></trkpt><trkpt lat="31.5631917" lon="-8.9038233"><ele>375.0</ele><time>2026-04-25T17:18:16.406Z</time></trkpt><trkpt lat="31.5632367" lon="-8.9041083"><ele>375.5</ele><time>2026-04-25T17:18:17.406Z</time></trkpt><trkpt lat="31.5632817" lon="-8.9043917"><ele>376.0</ele><time>2026-04-25T17:18:18.406Z</time></trkpt><trkpt lat="31.5633233" lon="-8.9046717"><ele>376.0</ele><time>2026-04-25T17:18:19.406Z</time></trkpt><trkpt lat="31.5633683" lon="-8.90495"><ele>376.0</ele><time>2026-04-25T17:18:20.406Z</time></trkpt><trkpt lat="31.5634067" lon="-8.9052367"><ele>376.0</ele><time>2026-04-25T17:18:21.406Z</time></trkpt><trkpt lat="31.5634533" lon="-8.9055183"><ele>376.0</ele><time>2026-04-25T17:18:22.406Z</time></trkpt><trkpt lat="31.5635033" lon="-8.9057967"><ele>376.5</ele><time>2026-04-25T17:18:23.406Z</time></trkpt><trkpt lat="31.5635517" lon="-8.9060783"><ele>377.0</ele><time>2026-04-25T17:18:24.406Z</time></trkpt><trkpt lat="31.563595" lon="-8.906365"><ele>377.0</ele><time>2026-04-25T17:18:25.406Z</time></trkpt><trkpt lat="31.5636383" lon="-8.90665"><ele>377.0</ele><time>2026-04-25T17:18:26.406Z</time></trkpt><trkpt lat="31.5636833" lon="-8.906935"><ele>376.5</ele><time>2026-04-25T17:18:27.407Z</time></trkpt><trkpt lat="31.56373" lon="-8.9072233"><ele>376.0</ele><time>2026-04-25T17:18:28.406Z</time></trkpt><trkpt lat="31.5637717" lon="-8.90751"><ele>375.5</ele><time>2026-04-25T17:18:29.406Z</time></trkpt><trkpt lat="31.5638167" lon="-8.9077967"><ele>375.0</ele><time>2026-04-25T17:18:30.406Z</time></trkpt><trkpt lat="31.5638667" lon="-8.9080867"><ele>375.0</ele><time>2026-04-25T17:18:31.406Z</time></trkpt><trkpt lat="31.563915" lon="-8.9083767"><ele>375.0</ele><time>2026-04-25T17:18:32.406Z</time></trkpt><trkpt lat="31.5639583" lon="-8.9086683"><ele>375.5</ele><time>2026-04-25T17:18:33.406Z</time></trkpt><trkpt lat="31.5640017" lon="-8.9089567"><ele>376.0</ele><time>2026-04-25T17:18:34.406Z</time></trkpt><trkpt lat="31.564045" lon="-8.9092433"><ele>377.0</ele><time>2026-04-25T17:18:35.406Z</time></trkpt><trkpt lat="31.5640867" lon="-8.90953"><ele>378.0</ele><time>2026-04-25T17:18:36.406Z</time></trkpt><trkpt lat="31.56413" lon="-8.9098117"><ele>378.0</ele><time>2026-04-25T17:18:37.406Z</time></trkpt><trkpt lat="31.5641733" lon="-8.9100967"><ele>378.0</ele><time>2026-04-25T17:18:38.406Z</time></trkpt><trkpt lat="31.5642183" lon="-8.91038"><ele>378.0</ele><time>2026-04-25T17:18:39.406Z</time></trkpt><trkpt lat="31.564265" lon="-8.9106617"><ele>378.0</ele><time>2026-04-25T17:18:40.406Z</time></trkpt><trkpt lat="31.5643133" lon="-8.9109467"><ele>378.0</ele><time>2026-04-25T17:18:41.406Z</time></trkpt><trkpt lat="31.564365" lon="-8.9112317"><ele>378.0</ele><time>2026-04-25T17:18:42.406Z</time></trkpt><trkpt lat="31.564415" lon="-8.9115133"><ele>379.5</ele><time>2026-04-25T17:18:43.406Z</time></trkpt><trkpt lat="31.56446" lon="-8.9117967"><ele>381.0</ele><time>2026-04-25T17:18:44.406Z</time></trkpt><trkpt lat="31.5645" lon="-8.9120783"><ele>380.5</ele><time>2026-04-25T17:18:45.406Z</time></trkpt><trkpt lat="31.5645417" lon="-8.9123617"><ele>380.0</ele><time>2026-04-25T17:18:46.406Z</time></trkpt><trkpt lat="31.5645867" lon="-8.9126433"><ele>380.0</ele><time>2026-04-25T17:18:47.406Z</time></trkpt><trkpt lat="31.5646333" lon="-8.91293"><ele>380.0</ele><time>2026-04-25T17:18:48.406Z</time></trkpt><trkpt lat="31.564685" lon="-8.9132133"><ele>380.0</ele><time>2026-04-25T17:18:49.406Z</time></trkpt><trkpt lat="31.5647317" lon="-8.9134983"><ele>380.0</ele><time>2026-04-25T17:18:50.406Z</time></trkpt><trkpt lat="31.5647733" lon="-8.9137833"><ele>380.0</ele><time>2026-04-25T17:18:51.406Z</time></trkpt><trkpt lat="31.5648183" lon="-8.9140683"><ele>380.0</ele><time>2026-04-25T17:18:52.406Z</time></trkpt><trkpt lat="31.56487" lon="-8.9143483"><ele>380.0</ele><time>2026-04-25T17:18:53.406Z</time></trkpt><trkpt lat="31.5649167" lon="-8.91463"><ele>380.0</ele><time>2026-04-25T17:18:54.406Z</time></trkpt><trkpt lat="31.56496" lon="-8.9149117"><ele>380.5</ele><time>2026-04-25T17:18:55.406Z</time></trkpt><trkpt lat="31.5650017" lon="-8.9151917"><ele>381.0</ele><time>2026-04-25T17:18:56.406Z</time></trkpt><trkpt lat="31.565045" lon="-8.9154717"><ele>381.0</ele><time>2026-04-25T17:18:57.406Z</time></trkpt><trkpt lat="31.5650867" lon="-8.915745"><ele>381.0</ele><time>2026-04-25T17:18:58.406Z</time></trkpt><trkpt lat="31.5651233" lon="-8.916"><ele>381.3333333333333</ele><time>2026-04-25T17:18:59.406Z</time></trkpt><trkpt lat="31.5651633" lon="-8.9162433"><ele>381.66666666666663</ele><time>2026-04-25T17:19:00.406Z</time></trkpt><trkpt lat="31.5652" lon="-8.91648"><ele>382.0</ele><time>2026-04-25T17:19:01.406Z</time></trkpt><trkpt lat="31.565235" lon="-8.9167017"><ele>382.0</ele><time>2026-04-25T17:19:02.406Z</time></trkpt><trkpt lat="31.565265" lon="-8.916915"><ele>382.0</ele><time>2026-04-25T17:19:03.407Z</time></trkpt><trkpt lat="31.5652983" lon="-8.9171233"><ele>382.0</ele><time>2026-04-25T17:19:04.406Z</time></trkpt><trkpt lat="31.56533" lon="-8.9173317"><ele>382.0</ele><time>2026-04-25T17:19:05.406Z</time></trkpt><trkpt lat="31.5653583" lon="-8.9175383"><ele>382.0</ele><time>2026-04-25T17:19:06.407Z</time></trkpt><trkpt lat="31.5653883" lon="-8.9177433"><ele>382.0</ele><time>2026-04-25T17:19:07.407Z</time></trkpt><trkpt lat="31.565425" lon="-8.9179517"><ele>382.0</ele><time>2026-04-25T17:19:08.406Z</time></trkpt><trkpt lat="31.56546" lon="-8.9181533"><ele>382.0</ele><time>2026-04-25T17:19:09.406Z</time></trkpt><trkpt lat="31.5654883" lon="-8.9183583"><ele>382.0</ele><time>2026-04-25T17:19:10.406Z</time></trkpt><trkpt lat="31.5655217" lon="-8.9185633"><ele>382.0</ele><time>2026-04-25T17:19:11.406Z</time></trkpt><trkpt lat="31.5655533" lon="-8.9187683"><ele>382.0</ele><time>2026-04-25T17:19:12.406Z</time></trkpt><trkpt lat="31.565585" lon="-8.9189683"><ele>382.0</ele><time>2026-04-25T17:19:13.406Z</time></trkpt><trkpt lat="31.5656167" lon="-8.919165"><ele>383.3333333333333</ele><time>2026-04-25T17:19:14.406Z</time></trkpt><trkpt lat="31.56565" lon="-8.9193517"><ele>384.66666666666663</ele><time>2026-04-25T17:19:15.406Z</time></trkpt><trkpt lat="31.5656867" lon="-8.9195317"><ele>386.0</ele><time>2026-04-25T17:19:16.406Z</time></trkpt><trkpt lat="31.5657167" lon="-8.91971"><ele>386.0</ele><time>2026-04-25T17:19:17.406Z</time></trkpt><trkpt lat="31.5657467" lon="-8.9198883"><ele>386.0</ele><time>2026-04-25T17:19:18.406Z</time></trkpt><trkpt lat="31.5657733" lon="-8.9200667"><ele>386.0</ele><time>2026-04-25T17:19:19.406Z</time></trkpt><trkpt lat="31.5657983" lon="-8.9202367"><ele>386.0</ele><time>2026-04-25T17:19:20.407Z</time></trkpt><trkpt lat="31.5658267" lon="-8.920405"><ele>386.0</ele><time>2026-04-25T17:19:21.406Z</time></trkpt><trkpt lat="31.56585" lon="-8.92057"><ele>386.0</ele><time>2026-04-25T17:19:22.406Z</time></trkpt><trkpt lat="31.565875" lon="-8.92074"><ele>386.0</ele><time>2026-04-25T17:19:23.406Z</time></trkpt><trkpt lat="31.565905" lon="-8.9209217"><ele>386.0</ele><time>2026-04-25T17:19:24.406Z</time></trkpt><trkpt lat="31.5659333" lon="-8.9211067"><ele>386.0</ele><time>2026-04-25T17:19:25.406Z</time></trkpt><trkpt lat="31.565965" lon="-8.9212917"><ele>386.0</ele><time>2026-04-25T17:19:26.406Z</time></trkpt><trkpt lat="31.565995" lon="-8.9214867"><ele>386.0</ele><time>2026-04-25T17:19:27.406Z</time></trkpt><trkpt lat="31.5660317" lon="-8.92169"><ele>386.0</ele><time>2026-04-25T17:19:28.406Z</time></trkpt><trkpt lat="31.5660667" lon="-8.921905"><ele>386.0</ele><time>2026-04-25T17:19:29.406Z</time></trkpt><trkpt lat="31.5660967" lon="-8.92213"><ele>386.3333333333333</ele><time>2026-04-25T17:19:30.406Z</time></trkpt><trkpt lat="31.5661317" lon="-8.9223583"><ele>386.66666666666663</ele><time>2026-04-25T17:19:31.406Z</time></trkpt><trkpt lat="31.5661683" lon="-8.9225917"><ele>387.0</ele><time>2026-04-25T17:19:32.406Z</time></trkpt><trkpt lat="31.56621" lon="-8.9228317"><ele>386.33333333333337</ele><time>2026-04-25T17:19:33.406Z</time></trkpt><trkpt lat="31.5662483" lon="-8.9230767"><ele>385.6666666666667</ele><time>2026-04-25T17:19:34.406Z</time></trkpt><trkpt lat="31.5662833" lon="-8.923325"><ele>385.0</ele><time>2026-04-25T17:19:35.406Z</time></trkpt><trkpt lat="31.56632" lon="-8.9235767"><ele>385.0</ele><time>2026-04-25T17:19:36.406Z</time></trkpt><trkpt lat="31.5663633" lon="-8.9238333"><ele>385.0</ele><time>2026-04-25T17:19:37.406Z</time></trkpt><trkpt lat="31.5664067" lon="-8.92409"><ele>385.0</ele><time>2026-04-25T17:19:38.406Z</time></trkpt><trkpt lat="31.5664567" lon="-8.9243517"><ele>383.5</ele><time>2026-04-25T17:19:39.406Z</time></trkpt><trkpt lat="31.5665017" lon="-8.9246167"><ele>382.0</ele><time>2026-04-25T17:19:40.406Z</time></trkpt><trkpt lat="31.5665483" lon="-8.9248817"><ele>383.0</ele><time>2026-04-25T17:19:41.406Z</time></trkpt><trkpt lat="31.5665967" lon="-8.9251517"><ele>384.0</ele><time>2026-04-25T17:19:42.406Z</time></trkpt><trkpt lat="31.5666383" lon="-8.9254267"><ele>384.0</ele><time>2026-04-25T17:19:43.406Z</time></trkpt><trkpt lat="31.5666817" lon="-8.9257017"><ele>384.0</ele><time>2026-04-25T17:19:44.406Z</time></trkpt><trkpt lat="31.5667183" lon="-8.9259767"><ele>384.33333333333337</ele><time>2026-04-25T17:19:45.406Z</time></trkpt><trkpt lat="31.566755" lon="-8.9262333"><ele>384.6666666666667</ele><time>2026-04-25T17:19:46.406Z</time></trkpt><trkpt lat="31.566795" lon="-8.926485"><ele>385.0</ele><time>2026-04-25T17:19:47.406Z</time></trkpt><trkpt lat="31.566835" lon="-8.9267317"><ele>386.33333333333337</ele><time>2026-04-25T17:19:48.406Z</time></trkpt><trkpt lat="31.56687" lon="-8.9269733"><ele>387.66666666666663</ele><time>2026-04-25T17:19:49.406Z</time></trkpt><trkpt lat="31.56691" lon="-8.9272"><ele>389.0</ele><time>2026-04-25T17:19:50.406Z</time></trkpt><trkpt lat="31.5669467" lon="-8.92742"><ele>388.66666666666663</ele><time>2026-04-25T17:19:51.406Z</time></trkpt><trkpt lat="31.5669833" lon="-8.9276367"><ele>388.33333333333337</ele><time>2026-04-25T17:19:52.406Z</time></trkpt><trkpt lat="31.5670167" lon="-8.927845"><ele>388.0</ele><time>2026-04-25T17:19:53.406Z</time></trkpt><trkpt lat="31.5670467" lon="-8.928045"><ele>388.0</ele><time>2026-04-25T17:19:54.406Z</time></trkpt><trkpt lat="31.567075" lon="-8.9282367"><ele>388.0</ele><time>2026-04-25T17:19:55.406Z</time></trkpt><trkpt lat="31.5671033" lon="-8.928425"><ele>388.0</ele><time>2026-04-25T17:19:56.406Z</time></trkpt><trkpt lat="31.5671317" lon="-8.9286117"><ele>388.0</ele><time>2026-04-25T17:19:57.406Z</time></trkpt><trkpt lat="31.5671583" lon="-8.9288"><ele>388.0</ele><time>2026-04-25T17:19:58.406Z</time></trkpt><trkpt lat="31.5671883" lon="-8.9289917"><ele>388.0</ele><time>2026-04-25T17:19:59.406Z</time></trkpt><trkpt lat="31.5672167" lon="-8.9291867"><ele>388.33333333333337</ele><time>2026-04-25T17:20:00.406Z</time></trkpt><trkpt lat="31.5672517" lon="-8.92939"><ele>388.66666666666663</ele><time>2026-04-25T17:20:01.406Z</time></trkpt><trkpt lat="31.5672883" lon="-8.9296"><ele>389.0</ele><time>2026-04-25T17:20:02.406Z</time></trkpt><trkpt lat="31.5673317" lon="-8.9298167"><ele>389.0</ele><time>2026-04-25T17:20:03.406Z</time></trkpt><trkpt lat="31.5673733" lon="-8.9300283"><ele>389.0</ele><time>2026-04-25T17:20:04.406Z</time></trkpt><trkpt lat="31.5674133" lon="-8.9302333"><ele>389.0</ele><time>2026-04-25T17:20:05.406Z</time></trkpt><trkpt lat="31.5674567" lon="-8.9304283"><ele>389.3333333333333</ele><time>2026-04-25T17:20:06.406Z</time></trkpt><trkpt lat="31.567495" lon="-8.930615"><ele>389.66666666666663</ele><time>2026-04-25T17:20:07.406Z</time></trkpt><trkpt lat="31.5675333" lon="-8.9308"><ele>390.0</ele><time>2026-04-25T17:20:08.406Z</time></trkpt><trkpt lat="31.567575" lon="-8.93099"><ele>389.0</ele><time>2026-04-25T17:20:09.406Z</time></trkpt><trkpt lat="31.567615" lon="-8.93118"><ele>388.0</ele><time>2026-04-25T17:20:10.406Z</time></trkpt><trkpt lat="31.5676633" lon="-8.931365"><ele>387.0</ele><time>2026-04-25T17:20:11.407Z</time></trkpt><trkpt lat="31.567705" lon="-8.9315533"><ele>386.33333333333337</ele><time>2026-04-25T17:20:12.406Z</time></trkpt><trkpt lat="31.5677483" lon="-8.9317467"><ele>385.6666666666667</ele><time>2026-04-25T17:20:13.406Z</time></trkpt><trkpt lat="31.567795" lon="-8.9319467"><ele>385.0</ele><time>2026-04-25T17:20:14.406Z</time></trkpt><trkpt lat="31.5678367" lon="-8.9321417"><ele>385.33333333333337</ele><time>2026-04-25T17:20:15.406Z</time></trkpt><trkpt lat="31.5678817" lon="-8.9323433"><ele>385.66666666666663</ele><time>2026-04-25T17:20:16.406Z</time></trkpt><trkpt lat="31.5679267" lon="-8.9325483"><ele>386.0</ele><time>2026-04-25T17:20:17.406Z</time></trkpt><trkpt lat="31.56797" lon="-8.93275"><ele>385.0</ele><time>2026-04-25T17:20:18.406Z</time></trkpt><trkpt lat="31.5680167" lon="-8.9329567"><ele>384.0</ele><time>2026-04-25T17:20:19.406Z</time></trkpt><trkpt lat="31.568065" lon="-8.9331683"><ele>383.0</ele><time>2026-04-25T17:20:20.406Z</time></trkpt><trkpt lat="31.5681167" lon="-8.933375"><ele>382.0</ele><time>2026-04-25T17:20:21.406Z</time></trkpt><trkpt lat="31.5681633" lon="-8.93359"><ele>381.0</ele><time>2026-04-25T17:20:22.406Z</time></trkpt><trkpt lat="31.5682083" lon="-8.9337983"><ele>380.0</ele><time>2026-04-25T17:20:23.406Z</time></trkpt><trkpt lat="31.5682567" lon="-8.9340133"><ele>379.6666666666667</ele><time>2026-04-25T17:20:24.406Z</time></trkpt><trkpt lat="31.5683033" lon="-8.934225"><ele>379.3333333333333</ele><time>2026-04-25T17:20:25.406Z</time></trkpt><trkpt lat="31.5683483" lon="-8.9344333"><ele>379.0</ele><time>2026-04-25T17:20:26.406Z</time></trkpt><trkpt lat="31.5684" lon="-8.9346467"><ele>379.0</ele><time>2026-04-25T17:20:27.406Z</time></trkpt><trkpt lat="31.5684483" lon="-8.9348567"><ele>379.0</ele><time>2026-04-25T17:20:28.407Z</time></trkpt><trkpt lat="31.5684917" lon="-8.935065"><ele>379.0</ele><time>2026-04-25T17:20:29.406Z</time></trkpt><trkpt lat="31.56854" lon="-8.9352717"><ele>379.0</ele><time>2026-04-25T17:20:30.406Z</time></trkpt><trkpt lat="31.5685867" lon="-8.9354833"><ele>379.0</ele><time>2026-04-25T17:20:31.406Z</time></trkpt><trkpt lat="31.5686367" lon="-8.9356867"><ele>379.0</ele><time>2026-04-25T17:20:32.406Z</time></trkpt><trkpt lat="31.5686833" lon="-8.93589"><ele>379.66666666666663</ele><time>2026-04-25T17:20:33.406Z</time></trkpt><trkpt lat="31.5687283" lon="-8.9360917"><ele>380.3333333333333</ele><time>2026-04-25T17:20:34.406Z</time></trkpt><trkpt lat="31.5687717" lon="-8.9362783"><ele>381.0</ele><time>2026-04-25T17:20:35.406Z</time></trkpt><trkpt lat="31.5688117" lon="-8.93646"><ele>381.0</ele><time>2026-04-25T17:20:36.407Z</time></trkpt><trkpt lat="31.5688483" lon="-8.93664"><ele>381.0</ele><time>2026-04-25T17:20:37.406Z</time></trkpt><trkpt lat="31.568895" lon="-8.93683"><ele>381.0</ele><time>2026-04-25T17:20:38.406Z</time></trkpt><trkpt lat="31.5689383" lon="-8.9370167"><ele>381.3333333333333</ele><time>2026-04-25T17:20:39.406Z</time></trkpt><trkpt lat="31.5689817" lon="-8.9372"><ele>381.66666666666663</ele><time>2026-04-25T17:20:40.406Z</time></trkpt><trkpt lat="31.5690233" lon="-8.9373833"><ele>382.0</ele><time>2026-04-25T17:20:41.406Z</time></trkpt><trkpt lat="31.5690617" lon="-8.9375683"><ele>382.0</ele><time>2026-04-25T17:20:42.407Z</time></trkpt><trkpt lat="31.569105" lon="-8.9377583"><ele>382.0</ele><time>2026-04-25T17:20:43.406Z</time></trkpt><trkpt lat="31.5691433" lon="-8.9379533"><ele>382.0</ele><time>2026-04-25T17:20:44.406Z</time></trkpt><trkpt lat="31.5691883" lon="-8.9381483"><ele>382.0</ele><time>2026-04-25T17:20:45.406Z</time></trkpt><trkpt lat="31.56923" lon="-8.9383483"><ele>382.0</ele><time>2026-04-25T17:20:46.406Z</time></trkpt><trkpt lat="31.5692767" lon="-8.9385533"><ele>382.0</ele><time>2026-04-25T17:20:47.406Z</time></trkpt><trkpt lat="31.5693233" lon="-8.93875"><ele>382.0</ele><time>2026-04-25T17:20:48.406Z</time></trkpt><trkpt lat="31.5693683" lon="-8.9389383"><ele>382.0</ele><time>2026-04-25T17:20:49.406Z</time></trkpt><trkpt lat="31.569415" lon="-8.9391217"><ele>382.0</ele><time>2026-04-25T17:20:50.406Z</time></trkpt><trkpt lat="31.5694567" lon="-8.9393017"><ele>381.66666666666663</ele><time>2026-04-25T17:20:51.406Z</time></trkpt><trkpt lat="31.5695017" lon="-8.9394867"><ele>381.3333333333333</ele><time>2026-04-25T17:20:52.406Z</time></trkpt><trkpt lat="31.5695433" lon="-8.93967"><ele>381.0</ele><time>2026-04-25T17:20:53.407Z</time></trkpt><trkpt lat="31.5695817" lon="-8.9398517"><ele>380.6666666666667</ele><time>2026-04-25T17:20:54.406Z</time></trkpt><trkpt lat="31.5696217" lon="-8.9400383"><ele>380.33333333333337</ele><time>2026-04-25T17:20:55.406Z</time></trkpt><trkpt lat="31.5696633" lon="-8.9402217"><ele>380.0</ele><time>2026-04-25T17:20:56.406Z</time></trkpt><trkpt lat="31.5697033" lon="-8.9404067"><ele>380.0</ele><time>2026-04-25T17:20:57.406Z</time></trkpt><trkpt lat="31.56974" lon="-8.9405933"><ele>380.0</ele><time>2026-04-25T17:20:58.406Z</time></trkpt><trkpt lat="31.5697817" lon="-8.9407817"><ele>380.0</ele><time>2026-04-25T17:20:59.406Z</time></trkpt><trkpt lat="31.569825" lon="-8.9409667"><ele>380.0</ele><time>2026-04-25T17:21:00.406Z</time></trkpt><trkpt lat="31.569865" lon="-8.94115"><ele>380.0</ele><time>2026-04-25T17:21:01.406Z</time></trkpt><trkpt lat="31.5699133" lon="-8.9413333"><ele>380.0</ele><time>2026-04-25T17:21:02.406Z</time></trkpt><trkpt lat="31.5699567" lon="-8.9415183"><ele>380.0</ele><time>2026-04-25T17:21:03.406Z</time></trkpt><trkpt lat="31.570005" lon="-8.941705"><ele>380.0</ele><time>2026-04-25T17:21:04.406Z</time></trkpt><trkpt lat="31.57005" lon="-8.94189"><ele>380.0</ele><time>2026-04-25T17:21:05.406Z</time></trkpt><trkpt lat="31.5700933" lon="-8.9420783"><ele>380.33333333333337</ele><time>2026-04-25T17:21:06.406Z</time></trkpt><trkpt lat="31.57013" lon="-8.9422717"><ele>380.6666666666667</ele><time>2026-04-25T17:21:07.406Z</time></trkpt><trkpt lat="31.5701683" lon="-8.9424633"><ele>381.0</ele><time>2026-04-25T17:21:08.406Z</time></trkpt><trkpt lat="31.5702067" lon="-8.9426583"><ele>381.0</ele><time>2026-04-25T17:21:09.406Z</time></trkpt><trkpt lat="31.5702517" lon="-8.942855"><ele>381.0</ele><time>2026-04-25T17:21:10.406Z</time></trkpt><trkpt lat="31.5703" lon="-8.9430467"><ele>381.0</ele><time>2026-04-25T17:21:11.406Z</time></trkpt><trkpt lat="31.570345" lon="-8.9432367"><ele>381.6666666666667</ele><time>2026-04-25T17:21:12.406Z</time></trkpt><trkpt lat="31.5703867" lon="-8.9434283"><ele>382.33333333333337</ele><time>2026-04-25T17:21:13.407Z</time></trkpt><trkpt lat="31.5704233" lon="-8.94362"><ele>383.0</ele><time>2026-04-25T17:21:14.406Z</time></trkpt><trkpt lat="31.5704667" lon="-8.9438"><ele>383.0</ele><time>2026-04-25T17:21:15.406Z</time></trkpt><trkpt lat="31.5705067" lon="-8.943985"><ele>383.0</ele><time>2026-04-25T17:21:16.406Z</time></trkpt><trkpt lat="31.570555" lon="-8.9441733"><ele>383.0</ele><time>2026-04-25T17:21:17.406Z</time></trkpt><trkpt lat="31.5705983" lon="-8.9443733"><ele>383.0</ele><time>2026-04-25T17:21:18.406Z</time></trkpt><trkpt lat="31.570645" lon="-8.94459"><ele>383.0</ele><time>2026-04-25T17:21:19.406Z</time></trkpt><trkpt lat="31.5706917" lon="-8.944825"><ele>383.0</ele><time>2026-04-25T17:21:20.406Z</time></trkpt><trkpt lat="31.5707367" lon="-8.9450717"><ele>382.6666666666667</ele><time>2026-04-25T17:21:21.406Z</time></trkpt><trkpt lat="31.5707967" lon="-8.945315"><ele>382.3333333333333</ele><time>2026-04-25T17:21:22.405Z</time></trkpt><trkpt lat="31.5708633" lon="-8.9455583"><ele>382.0</ele><time>2026-04-25T17:21:23.406Z</time></trkpt><trkpt lat="31.5709283" lon="-8.945805"><ele>382.66666666666663</ele><time>2026-04-25T17:21:24.406Z</time></trkpt><trkpt lat="31.570985" lon="-8.94605"><ele>383.3333333333333</ele><time>2026-04-25T17:21:25.406Z</time></trkpt><trkpt lat="31.571035" lon="-8.9462917"><ele>384.0</ele><time>2026-04-25T17:21:26.406Z</time></trkpt><trkpt lat="31.5710867" lon="-8.9465283"><ele>384.33333333333337</ele><time>2026-04-25T17:21:27.406Z</time></trkpt><trkpt lat="31.571135" lon="-8.9467583"><ele>384.6666666666667</ele><time>2026-04-25T17:21:28.406Z</time></trkpt><trkpt lat="31.5711783" lon="-8.9469667"><ele>385.0</ele><time>2026-04-25T17:21:29.406Z</time></trkpt><trkpt lat="31.5712267" lon="-8.9471767"><ele>385.0</ele><time>2026-04-25T17:21:30.406Z</time></trkpt><trkpt lat="31.5712767" lon="-8.947385"><ele>385.0</ele><time>2026-04-25T17:21:31.406Z</time></trkpt><trkpt lat="31.5713267" lon="-8.947595"><ele>385.0</ele><time>2026-04-25T17:21:32.406Z</time></trkpt><trkpt lat="31.5713717" lon="-8.9478067"><ele>385.33333333333337</ele><time>2026-04-25T17:21:33.406Z</time></trkpt><trkpt lat="31.571425" lon="-8.9480117"><ele>385.66666666666663</ele><time>2026-04-25T17:21:34.406Z</time></trkpt><trkpt lat="31.5714733" lon="-8.948215"><ele>386.0</ele><time>2026-04-25T17:21:35.406Z</time></trkpt><trkpt lat="31.5715167" lon="-8.9484267"><ele>386.66666666666663</ele><time>2026-04-25T17:21:36.406Z</time></trkpt><trkpt lat="31.5715633" lon="-8.9486367"><ele>387.33333333333337</ele><time>2026-04-25T17:21:37.406Z</time></trkpt><trkpt lat="31.5716083" lon="-8.9488517"><ele>388.0</ele><time>2026-04-25T17:21:38.406Z</time></trkpt><trkpt lat="31.57166" lon="-8.9490633"><ele>389.33333333333337</ele><time>2026-04-25T17:21:39.406Z</time></trkpt><trkpt lat="31.5717067" lon="-8.9492733"><ele>390.66666666666663</ele><time>2026-04-25T17:21:40.406Z</time></trkpt><trkpt lat="31.57175" lon="-8.9494883"><ele>392.0</ele><time>2026-04-25T17:21:41.406Z</time></trkpt><trkpt lat="31.5717983" lon="-8.9497017"><ele>392.0</ele><time>2026-04-25T17:21:42.406Z</time></trkpt><trkpt lat="31.5718483" lon="-8.9499167"><ele>392.0</ele><time>2026-04-25T17:21:43.406Z</time></trkpt><trkpt lat="31.571895" lon="-8.9501333"><ele>392.0</ele><time>2026-04-25T17:21:44.407Z</time></trkpt><trkpt lat="31.57195" lon="-8.95035"><ele>391.66666666666663</ele><time>2026-04-25T17:21:45.406Z</time></trkpt><trkpt lat="31.572" lon="-8.9505733"><ele>391.33333333333337</ele><time>2026-04-25T17:21:46.406Z</time></trkpt><trkpt lat="31.57205" lon="-8.950795"><ele>391.0</ele><time>2026-04-25T17:21:47.406Z</time></trkpt><trkpt lat="31.5720983" lon="-8.95102"><ele>390.33333333333337</ele><time>2026-04-25T17:21:48.406Z</time></trkpt><trkpt lat="31.57215" lon="-8.9512433"><ele>389.66666666666663</ele><time>2026-04-25T17:21:49.406Z</time></trkpt><trkpt lat="31.5722017" lon="-8.95147"><ele>389.0</ele><time>2026-04-25T17:21:50.406Z</time></trkpt><trkpt lat="31.57225" lon="-8.9516917"><ele>389.3333333333333</ele><time>2026-04-25T17:21:51.407Z</time></trkpt><trkpt lat="31.5723017" lon="-8.95192"><ele>389.66666666666663</ele><time>2026-04-25T17:21:52.406Z</time></trkpt><trkpt lat="31.5723517" lon="-8.95215"><ele>390.0</ele><time>2026-04-25T17:21:53.406Z</time></trkpt><trkpt lat="31.572405" lon="-8.9523817"><ele>390.0</ele><time>2026-04-25T17:21:54.406Z</time></trkpt><trkpt lat="31.5724633" lon="-8.952615"><ele>390.0</ele><time>2026-04-25T17:21:55.406Z</time></trkpt><trkpt lat="31.5725183" lon="-8.95285"><ele>390.0</ele><time>2026-04-25T17:21:56.406Z</time></trkpt><trkpt lat="31.5725683" lon="-8.9530833"><ele>390.0</ele><time>2026-04-25T17:21:57.406Z</time></trkpt><trkpt lat="31.5726267" lon="-8.953315"><ele>390.0</ele><time>2026-04-25T17:21:58.406Z</time></trkpt><trkpt lat="31.5726817" lon="-8.953545"><ele>390.0</ele><time>2026-04-25T17:21:59.406Z</time></trkpt><trkpt lat="31.5727333" lon="-8.953775"><ele>390.0</ele><time>2026-04-25T17:22:00.406Z</time></trkpt><trkpt lat="31.5727833" lon="-8.9540067"><ele>390.0</ele><time>2026-04-25T17:22:01.406Z</time></trkpt><trkpt lat="31.5728367" lon="-8.9542417"><ele>390.0</ele><time>2026-04-25T17:22:02.406Z</time></trkpt><trkpt lat="31.5728967" lon="-8.954475"><ele>390.33333333333337</ele><time>2026-04-25T17:22:03.406Z</time></trkpt><trkpt lat="31.5729483" lon="-8.9547067"><ele>390.6666666666667</ele><time>2026-04-25T17:22:04.406Z</time></trkpt><trkpt lat="31.5730017" lon="-8.95494"><ele>391.0</ele><time>2026-04-25T17:22:05.406Z</time></trkpt><trkpt lat="31.57305" lon="-8.9551717"><ele>391.33333333333337</ele><time>2026-04-25T17:22:06.406Z</time></trkpt><trkpt lat="31.5731" lon="-8.9554067"><ele>391.66666666666663</ele><time>2026-04-25T17:22:07.407Z</time></trkpt><trkpt lat="31.5731517" lon="-8.9556367"><ele>392.0</ele><time>2026-04-25T17:22:08.406Z</time></trkpt><trkpt lat="31.573205" lon="-8.9558667"><ele>392.0</ele><time>2026-04-25T17:22:09.406Z</time></trkpt><trkpt lat="31.5732633" lon="-8.956095"><ele>392.0</ele><time>2026-04-25T17:22:10.406Z</time></trkpt><trkpt lat="31.57332" lon="-8.95633"><ele>392.0</ele><time>2026-04-25T17:22:11.406Z</time></trkpt><trkpt lat="31.573375" lon="-8.95656"><ele>392.0</ele><time>2026-04-25T17:22:12.406Z</time></trkpt><trkpt lat="31.5734267" lon="-8.956795"><ele>392.0</ele><time>2026-04-25T17:22:13.406Z</time></trkpt><trkpt lat="31.5734767" lon="-8.9570283"><ele>392.0</ele><time>2026-04-25T17:22:14.406Z</time></trkpt><trkpt lat="31.5735267" lon="-8.9572617"><ele>392.0</ele><time>2026-04-25T17:22:15.406Z</time></trkpt><trkpt lat="31.57358" lon="-8.957495"><ele>392.0</ele><time>2026-04-25T17:22:16.406Z</time></trkpt><trkpt lat="31.5736317" lon="-8.95773"><ele>392.0</ele><time>2026-04-25T17:22:17.406Z</time></trkpt><trkpt lat="31.573685" lon="-8.9579767"><ele>392.66666666666663</ele><time>2026-04-25T17:22:18.406Z</time></trkpt><trkpt lat="31.5737383" lon="-8.9582267"><ele>393.33333333333337</ele><time>2026-04-25T17:22:19.406Z</time></trkpt><trkpt lat="31.57379" lon="-8.9584783"><ele>394.0</ele><time>2026-04-25T17:22:20.406Z</time></trkpt><trkpt lat="31.5738317" lon="-8.95873"><ele>394.5</ele><time>2026-04-25T17:22:21.406Z</time></trkpt><trkpt lat="31.5738683" lon="-8.95899"><ele>395.0</ele><time>2026-04-25T17:22:22.406Z</time></trkpt><trkpt lat="31.5739117" lon="-8.9592533"><ele>396.0</ele><time>2026-04-25T17:22:23.406Z</time></trkpt><trkpt lat="31.57395" lon="-8.9595267"><ele>397.0</ele><time>2026-04-25T17:22:24.406Z</time></trkpt><trkpt lat="31.57398" lon="-8.9598017"><ele>396.0</ele><time>2026-04-25T17:22:25.406Z</time></trkpt><trkpt lat="31.5740133" lon="-8.9600833"><ele>395.0</ele><time>2026-04-25T17:22:26.406Z</time></trkpt><trkpt lat="31.5740467" lon="-8.96037"><ele>395.0</ele><time>2026-04-25T17:22:27.406Z</time></trkpt><trkpt lat="31.57408" lon="-8.9606567"><ele>395.0</ele><time>2026-04-25T17:22:28.406Z</time></trkpt><trkpt lat="31.57411" lon="-8.96095"><ele>395.0</ele><time>2026-04-25T17:22:29.406Z</time></trkpt><trkpt lat="31.5741433" lon="-8.9612417"><ele>395.0</ele><time>2026-04-25T17:22:30.407Z</time></trkpt><trkpt lat="31.5741767" lon="-8.9615333"><ele>395.5</ele><time>2026-04-25T17:22:31.406Z</time></trkpt><trkpt lat="31.5742117" lon="-8.9618283"><ele>396.0</ele><time>2026-04-25T17:22:32.406Z</time></trkpt><trkpt lat="31.574245" lon="-8.9621317"><ele>396.0</ele><time>2026-04-25T17:22:33.406Z</time></trkpt><trkpt lat="31.5742817" lon="-8.9624283"><ele>396.0</ele><time>2026-04-25T17:22:34.406Z</time></trkpt><trkpt lat="31.5743183" lon="-8.9627283"><ele>396.0</ele><time>2026-04-25T17:22:35.406Z</time></trkpt><trkpt lat="31.5743567" lon="-8.96303"><ele>396.0</ele><time>2026-04-25T17:22:36.406Z</time></trkpt><trkpt lat="31.574395" lon="-8.963335"><ele>396.5</ele><time>2026-04-25T17:22:37.406Z</time></trkpt><trkpt lat="31.57444" lon="-8.96364"><ele>397.0</ele><time>2026-04-25T17:22:38.406Z</time></trkpt><trkpt lat="31.5744833" lon="-8.96395"><ele>396.5</ele><time>2026-04-25T17:22:39.406Z</time></trkpt><trkpt lat="31.57452" lon="-8.9642567"><ele>396.0</ele><time>2026-04-25T17:22:40.406Z</time></trkpt><trkpt lat="31.5745517" lon="-8.9645667"><ele>396.0</ele><time>2026-04-25T17:22:41.406Z</time></trkpt><trkpt lat="31.5745933" lon="-8.9648767"><ele>396.0</ele><time>2026-04-25T17:22:42.406Z</time></trkpt><trkpt lat="31.5746333" lon="-8.9651867"><ele>397.0</ele><time>2026-04-25T17:22:43.406Z</time></trkpt><trkpt lat="31.57467" lon="-8.965505"><ele>398.0</ele><time>2026-04-25T17:22:44.407Z</time></trkpt><trkpt lat="31.5747083" lon="-8.96582"><ele>398.0</ele><time>2026-04-25T17:22:45.406Z</time></trkpt><trkpt lat="31.574745" lon="-8.9661367"><ele>398.0</ele><time>2026-04-25T17:22:46.406Z</time></trkpt><trkpt lat="31.5747817" lon="-8.9664517"><ele>398.0</ele><time>2026-04-25T17:22:47.406Z</time></trkpt><trkpt lat="31.5748167" lon="-8.9667533"><ele>398.0</ele><time>2026-04-25T17:22:48.406Z</time></trkpt><trkpt lat="31.57485" lon="-8.967035"><ele>398.0</ele><time>2026-04-25T17:22:49.406Z</time></trkpt><trkpt lat="31.57488" lon="-8.9673033"><ele>398.0</ele><time>2026-04-25T17:22:50.406Z</time></trkpt><trkpt lat="31.5749117" lon="-8.9675583"><ele>398.3333333333333</ele><time>2026-04-25T17:22:51.406Z</time></trkpt><trkpt lat="31.5749417" lon="-8.9678067"><ele>398.66666666666663</ele><time>2026-04-25T17:22:52.406Z</time></trkpt><trkpt lat="31.57497" lon="-8.968045"><ele>399.0</ele><time>2026-04-25T17:22:53.406Z</time></trkpt><trkpt lat="31.5750017" lon="-8.968285"><ele>399.66666666666663</ele><time>2026-04-25T17:22:54.407Z</time></trkpt><trkpt lat="31.5750267" lon="-8.96852"><ele>400.3333333333333</ele><time>2026-04-25T17:22:55.406Z</time></trkpt><trkpt lat="31.5750583" lon="-8.968755"><ele>401.0</ele><time>2026-04-25T17:22:56.406Z</time></trkpt><trkpt lat="31.57509" lon="-8.9689967"><ele>401.0</ele><time>2026-04-25T17:22:57.406Z</time></trkpt><trkpt lat="31.5751233" lon="-8.9692383"><ele>401.0</ele><time>2026-04-25T17:22:58.406Z</time></trkpt><trkpt lat="31.5751583" lon="-8.969485"><ele>401.0</ele><time>2026-04-25T17:22:59.406Z</time></trkpt><trkpt lat="31.5751867" lon="-8.9697367"><ele>401.0</ele><time>2026-04-25T17:23:00.406Z</time></trkpt><trkpt lat="31.5752167" lon="-8.96999"><ele>401.0</ele><time>2026-04-25T17:23:01.406Z</time></trkpt><trkpt lat="31.5752517" lon="-8.97025"><ele>401.0</ele><time>2026-04-25T17:23:02.406Z</time></trkpt><trkpt lat="31.575285" lon="-8.970515"><ele>399.5</ele><time>2026-04-25T17:23:03.406Z</time></trkpt><trkpt lat="31.5753117" lon="-8.9707817"><ele>398.0</ele><time>2026-04-25T17:23:04.406Z</time></trkpt><trkpt lat="31.57534" lon="-8.9710483"><ele>397.0</ele><time>2026-04-25T17:23:05.406Z</time></trkpt><trkpt lat="31.5753717" lon="-8.9713217"><ele>396.0</ele><time>2026-04-25T17:23:06.406Z</time></trkpt><trkpt lat="31.575405" lon="-8.9715983"><ele>395.0</ele><time>2026-04-25T17:23:07.406Z</time></trkpt><trkpt lat="31.57544" lon="-8.97188"><ele>394.0</ele><time>2026-04-25T17:23:08.406Z</time></trkpt><trkpt lat="31.575475" lon="-8.9721717"><ele>394.0</ele><time>2026-04-25T17:23:09.406Z</time></trkpt><trkpt lat="31.5755083" lon="-8.97246"><ele>394.0</ele><time>2026-04-25T17:23:10.406Z</time></trkpt><trkpt lat="31.5755367" lon="-8.9727467"><ele>394.5</ele><time>2026-04-25T17:23:11.406Z</time></trkpt><trkpt lat="31.5755567" lon="-8.9730383"><ele>395.0</ele><time>2026-04-25T17:23:12.406Z</time></trkpt><trkpt lat="31.5755867" lon="-8.9733317"><ele>393.0</ele><time>2026-04-25T17:23:13.406Z</time></trkpt><trkpt lat="31.57562" lon="-8.9736317"><ele>391.0</ele><time>2026-04-25T17:23:14.406Z</time></trkpt><trkpt lat="31.5756583" lon="-8.9739283"><ele>392.0</ele><time>2026-04-25T17:23:15.406Z</time></trkpt><trkpt lat="31.5756983" lon="-8.9742283"><ele>393.0</ele><time>2026-04-25T17:23:16.406Z</time></trkpt><trkpt lat="31.57574" lon="-8.9745283"><ele>393.0</ele><time>2026-04-25T17:23:17.406Z</time></trkpt><trkpt lat="31.5757867" lon="-8.9748217"><ele>393.0</ele><time>2026-04-25T17:23:18.406Z</time></trkpt><trkpt lat="31.5758267" lon="-8.9751"><ele>393.0</ele><time>2026-04-25T17:23:19.406Z</time></trkpt><trkpt lat="31.575865" lon="-8.975375"><ele>393.0</ele><time>2026-04-25T17:23:20.406Z</time></trkpt><trkpt lat="31.5759" lon="-8.975645"><ele>392.0</ele><time>2026-04-25T17:23:21.406Z</time></trkpt><trkpt lat="31.5759333" lon="-8.97591"><ele>391.0</ele><time>2026-04-25T17:23:22.406Z</time></trkpt><trkpt lat="31.575965" lon="-8.9761733"><ele>391.0</ele><time>2026-04-25T17:23:23.406Z</time></trkpt><trkpt lat="31.5759967" lon="-8.9764333"><ele>391.0</ele><time>2026-04-25T17:23:24.406Z</time></trkpt><trkpt lat="31.576025" lon="-8.9766933"><ele>391.0</ele><time>2026-04-25T17:23:25.406Z</time></trkpt><trkpt lat="31.576055" lon="-8.976955"><ele>391.0</ele><time>2026-04-25T17:23:26.406Z</time></trkpt><trkpt lat="31.5760883" lon="-8.977215"><ele>391.0</ele><time>2026-04-25T17:23:27.406Z</time></trkpt><trkpt lat="31.5761183" lon="-8.9774717"><ele>391.0</ele><time>2026-04-25T17:23:28.406Z</time></trkpt><trkpt lat="31.57615" lon="-8.9777233"><ele>391.0</ele><time>2026-04-25T17:23:29.406Z</time></trkpt><trkpt lat="31.576175" lon="-8.9779683"><ele>391.0</ele><time>2026-04-25T17:23:30.406Z</time></trkpt><trkpt lat="31.576205" lon="-8.9782083"><ele>391.0</ele><time>2026-04-25T17:23:31.406Z</time></trkpt><trkpt lat="31.5762333" lon="-8.97844"><ele>391.33333333333337</ele><time>2026-04-25T17:23:32.406Z</time></trkpt><trkpt lat="31.576265" lon="-8.9786667"><ele>391.66666666666663</ele><time>2026-04-25T17:23:33.406Z</time></trkpt><trkpt lat="31.5762917" lon="-8.9788917"><ele>392.0</ele><time>2026-04-25T17:23:34.406Z</time></trkpt><trkpt lat="31.5763217" lon="-8.97912"><ele>391.66666666666663</ele><time>2026-04-25T17:23:35.406Z</time></trkpt><trkpt lat="31.5763533" lon="-8.97935"><ele>391.33333333333337</ele><time>2026-04-25T17:23:36.406Z</time></trkpt><trkpt lat="31.5763817" lon="-8.97958"><ele>391.0</ele><time>2026-04-25T17:23:37.407Z</time></trkpt><trkpt lat="31.5764133" lon="-8.9798183"><ele>390.6666666666667</ele><time>2026-04-25T17:23:38.406Z</time></trkpt><trkpt lat="31.57644" lon="-8.9800567"><ele>390.33333333333337</ele><time>2026-04-25T17:23:39.406Z</time></trkpt><trkpt lat="31.5764667" lon="-8.9802933"><ele>390.0</ele><time>2026-04-25T17:23:40.406Z</time></trkpt><trkpt lat="31.5764933" lon="-8.9805317"><ele>390.0</ele><time>2026-04-25T17:23:41.406Z</time></trkpt><trkpt lat="31.5765267" lon="-8.98077"><ele>390.0</ele><time>2026-04-25T17:23:42.406Z</time></trkpt><trkpt lat="31.5765567" lon="-8.98101"><ele>390.0</ele><time>2026-04-25T17:23:43.406Z</time></trkpt><trkpt lat="31.576585" lon="-8.9812417"><ele>390.0</ele><time>2026-04-25T17:23:44.406Z</time></trkpt><trkpt lat="31.5766083" lon="-8.9814717"><ele>390.0</ele><time>2026-04-25T17:23:45.406Z</time></trkpt><trkpt lat="31.5766283" lon="-8.9817033"><ele>390.0</ele><time>2026-04-25T17:23:46.406Z</time></trkpt><trkpt lat="31.5766533" lon="-8.98194"><ele>389.66666666666663</ele><time>2026-04-25T17:23:47.406Z</time></trkpt><trkpt lat="31.57668" lon="-8.9821767"><ele>389.3333333333333</ele><time>2026-04-25T17:23:48.406Z</time></trkpt><trkpt lat="31.5767083" lon="-8.9824117"><ele>389.0</ele><time>2026-04-25T17:23:49.406Z</time></trkpt><trkpt lat="31.576735" lon="-8.9826467"><ele>388.66666666666663</ele><time>2026-04-25T17:23:50.406Z</time></trkpt><trkpt lat="31.57677" lon="-8.9828683"><ele>388.33333333333337</ele><time>2026-04-25T17:23:51.406Z</time></trkpt><trkpt lat="31.5767967" lon="-8.9830867"><ele>388.0</ele><time>2026-04-25T17:23:52.406Z</time></trkpt><trkpt lat="31.5768117" lon="-8.9833033"><ele>388.33333333333337</ele><time>2026-04-25T17:23:53.406Z</time></trkpt><trkpt lat="31.5768267" lon="-8.9835233"><ele>388.66666666666663</ele><time>2026-04-25T17:23:54.406Z</time></trkpt><trkpt lat="31.5768517" lon="-8.983745"><ele>389.0</ele><time>2026-04-25T17:23:55.406Z</time></trkpt><trkpt lat="31.5768783" lon="-8.983965"><ele>390.0</ele><time>2026-04-25T17:23:56.406Z</time></trkpt><trkpt lat="31.5769033" lon="-8.98419"><ele>391.0</ele><time>2026-04-25T17:23:57.406Z</time></trkpt><trkpt lat="31.57693" lon="-8.984415"><ele>392.0</ele><time>2026-04-25T17:23:58.407Z</time></trkpt><trkpt lat="31.5769617" lon="-8.984645"><ele>392.0</ele><time>2026-04-25T17:23:59.406Z</time></trkpt><trkpt lat="31.5769933" lon="-8.98488"><ele>392.0</ele><time>2026-04-25T17:24:00.406Z</time></trkpt><trkpt lat="31.5770267" lon="-8.98512"><ele>392.0</ele><time>2026-04-25T17:24:01.406Z</time></trkpt><trkpt lat="31.5770667" lon="-8.98536"><ele>391.3333333333333</ele><time>2026-04-25T17:24:02.406Z</time></trkpt><trkpt lat="31.5770983" lon="-8.9856067"><ele>390.66666666666663</ele><time>2026-04-25T17:24:03.406Z</time></trkpt><trkpt lat="31.5771317" lon="-8.9858533"><ele>390.0</ele><time>2026-04-25T17:24:04.406Z</time></trkpt><trkpt lat="31.5771617" lon="-8.9861"><ele>390.0</ele><time>2026-04-25T17:24:05.406Z</time></trkpt><trkpt lat="31.57719" lon="-8.9863533"><ele>390.0</ele><time>2026-04-25T17:24:06.406Z</time></trkpt><trkpt lat="31.5772167" lon="-8.9866133"><ele>390.0</ele><time>2026-04-25T17:24:07.406Z</time></trkpt><trkpt lat="31.57724" lon="-8.9868717"><ele>390.0</ele><time>2026-04-25T17:24:08.406Z</time></trkpt><trkpt lat="31.5772667" lon="-8.9871283"><ele>390.0</ele><time>2026-04-25T17:24:09.406Z</time></trkpt><trkpt lat="31.5773067" lon="-8.987385"><ele>390.0</ele><time>2026-04-25T17:24:10.406Z</time></trkpt><trkpt lat="31.57734" lon="-8.987645"><ele>389.5</ele><time>2026-04-25T17:24:11.407Z</time></trkpt><trkpt lat="31.5773717" lon="-8.9879117"><ele>389.0</ele><time>2026-04-25T17:24:12.406Z</time></trkpt><trkpt lat="31.5774067" lon="-8.9881767"><ele>388.0</ele><time>2026-04-25T17:24:13.407Z</time></trkpt><trkpt lat="31.5774383" lon="-8.9884383"><ele>387.0</ele><time>2026-04-25T17:24:14.406Z</time></trkpt><trkpt lat="31.5774633" lon="-8.9887067"><ele>387.0</ele><time>2026-04-25T17:24:15.406Z</time></trkpt><trkpt lat="31.57749" lon="-8.9889783"><ele>387.0</ele><time>2026-04-25T17:24:16.406Z</time></trkpt><trkpt lat="31.5775167" lon="-8.989245"><ele>386.0</ele><time>2026-04-25T17:24:17.406Z</time></trkpt><trkpt lat="31.5775433" lon="-8.9895167"><ele>385.0</ele><time>2026-04-25T17:24:18.406Z</time></trkpt><trkpt lat="31.5775633" lon="-8.9897867"><ele>385.0</ele><time>2026-04-25T17:24:19.406Z</time></trkpt><trkpt lat="31.5775917" lon="-8.990065"><ele>385.0</ele><time>2026-04-25T17:24:20.406Z</time></trkpt><trkpt lat="31.57762" lon="-8.9903417"><ele>385.0</ele><time>2026-04-25T17:24:21.406Z</time></trkpt><trkpt lat="31.57765" lon="-8.9906183"><ele>385.0</ele><time>2026-04-25T17:24:22.406Z</time></trkpt><trkpt lat="31.5776783" lon="-8.990895"><ele>386.5</ele><time>2026-04-25T17:24:23.406Z</time></trkpt><trkpt lat="31.577705" lon="-8.9911717"><ele>388.0</ele><time>2026-04-25T17:24:24.406Z</time></trkpt><trkpt lat="31.57773" lon="-8.9914533"><ele>390.0</ele><time>2026-04-25T17:24:25.406Z</time></trkpt><trkpt lat="31.5777533" lon="-8.9917317"><ele>392.0</ele><time>2026-04-25T17:24:26.406Z</time></trkpt><trkpt lat="31.5777817" lon="-8.9920133"><ele>392.0</ele><time>2026-04-25T17:24:27.406Z</time></trkpt><trkpt lat="31.5778133" lon="-8.9922983"><ele>392.0</ele><time>2026-04-25T17:24:28.406Z</time></trkpt><trkpt lat="31.5778383" lon="-8.9925767"><ele>392.5</ele><time>2026-04-25T17:24:29.406Z</time></trkpt><trkpt lat="31.5778633" lon="-8.99286"><ele>393.0</ele><time>2026-04-25T17:24:30.406Z</time></trkpt><trkpt lat="31.5778933" lon="-8.99314"><ele>392.0</ele><time>2026-04-25T17:24:31.406Z</time></trkpt><trkpt lat="31.57792" lon="-8.9934183"><ele>391.0</ele><time>2026-04-25T17:24:32.406Z</time></trkpt><trkpt lat="31.5779467" lon="-8.9936967"><ele>391.0</ele><time>2026-04-25T17:24:33.406Z</time></trkpt><trkpt lat="31.57797" lon="-8.993975"><ele>391.0</ele><time>2026-04-25T17:24:34.406Z</time></trkpt><trkpt lat="31.578005" lon="-8.9942567"><ele>390.5</ele><time>2026-04-25T17:24:35.406Z</time></trkpt><trkpt lat="31.5780333" lon="-8.9945433"><ele>390.0</ele><time>2026-04-25T17:24:36.406Z</time></trkpt><trkpt lat="31.57806" lon="-8.9948283"><ele>390.0</ele><time>2026-04-25T17:24:37.406Z</time></trkpt><trkpt lat="31.5780867" lon="-8.9951117"><ele>390.0</ele><time>2026-04-25T17:24:38.406Z</time></trkpt><trkpt lat="31.5781133" lon="-8.9953883"><ele>390.0</ele><time>2026-04-25T17:24:39.407Z</time></trkpt><trkpt lat="31.5781383" lon="-8.9956483"><ele>390.0</ele><time>2026-04-25T17:24:40.406Z</time></trkpt><trkpt lat="31.5781617" lon="-8.9959033"><ele>390.0</ele><time>2026-04-25T17:24:41.406Z</time></trkpt><trkpt lat="31.57819" lon="-8.9961417"><ele>390.0</ele><time>2026-04-25T17:24:42.406Z</time></trkpt><trkpt lat="31.5782167" lon="-8.9963867"><ele>390.0</ele><time>2026-04-25T17:24:43.406Z</time></trkpt><trkpt lat="31.57824" lon="-8.9966217"><ele>390.0</ele><time>2026-04-25T17:24:44.406Z</time></trkpt><trkpt lat="31.578265" lon="-8.9968533"><ele>390.0</ele><time>2026-04-25T17:24:45.406Z</time></trkpt><trkpt lat="31.5782833" lon="-8.99708"><ele>390.0</ele><time>2026-04-25T17:24:46.406Z</time></trkpt><trkpt lat="31.578305" lon="-8.9973033"><ele>390.0</ele><time>2026-04-25T17:24:47.406Z</time></trkpt><trkpt lat="31.578325" lon="-8.997515"><ele>390.0</ele><time>2026-04-25T17:24:48.406Z</time></trkpt><trkpt lat="31.57834" lon="-8.99772"><ele>390.0</ele><time>2026-04-25T17:24:49.406Z</time></trkpt><trkpt lat="31.5783583" lon="-8.9979167"><ele>390.0</ele><time>2026-04-25T17:24:50.406Z</time></trkpt><trkpt lat="31.57838" lon="-8.9981067"><ele>390.0</ele><time>2026-04-25T17:24:51.406Z</time></trkpt><trkpt lat="31.5784" lon="-8.9982933"><ele>390.0</ele><time>2026-04-25T17:24:52.406Z</time></trkpt><trkpt lat="31.5784183" lon="-8.9984783"><ele>390.0</ele><time>2026-04-25T17:24:53.406Z</time></trkpt><trkpt lat="31.5784383" lon="-8.998665"><ele>389.66666666666663</ele><time>2026-04-25T17:24:54.406Z</time></trkpt><trkpt lat="31.5784583" lon="-8.998845"><ele>389.3333333333333</ele><time>2026-04-25T17:24:55.406Z</time></trkpt><trkpt lat="31.5784767" lon="-8.99903"><ele>389.0</ele><time>2026-04-25T17:24:56.406Z</time></trkpt><trkpt lat="31.578495" lon="-8.9992167"><ele>388.66666666666663</ele><time>2026-04-25T17:24:57.406Z</time></trkpt><trkpt lat="31.57851" lon="-8.9994"><ele>388.33333333333337</ele><time>2026-04-25T17:24:58.406Z</time></trkpt><trkpt lat="31.5785333" lon="-8.9995883"><ele>388.0</ele><time>2026-04-25T17:24:59.406Z</time></trkpt><trkpt lat="31.5785517" lon="-8.9997783"><ele>388.0</ele><time>2026-04-25T17:25:00.406Z</time></trkpt><trkpt lat="31.5785633" lon="-8.9999667"><ele>388.0</ele><time>2026-04-25T17:25:01.406Z</time></trkpt><trkpt lat="31.5785783" lon="-9.0001517"><ele>388.0</ele><time>2026-04-25T17:25:02.406Z</time></trkpt><trkpt lat="31.5785967" lon="-9.00034"><ele>388.0</ele><time>2026-04-25T17:25:03.406Z</time></trkpt><trkpt lat="31.5786133" lon="-9.0005233"><ele>388.0</ele><time>2026-04-25T17:25:04.406Z</time></trkpt><trkpt lat="31.5786333" lon="-9.0007083"><ele>388.0</ele><time>2026-04-25T17:25:05.406Z</time></trkpt><trkpt lat="31.5786517" lon="-9.000895"><ele>387.6666666666667</ele><time>2026-04-25T17:25:06.406Z</time></trkpt><trkpt lat="31.578665" lon="-9.0010817"><ele>387.33333333333337</ele><time>2026-04-25T17:25:07.406Z</time></trkpt><trkpt lat="31.5786867" lon="-9.0012667"><ele>387.0</ele><time>2026-04-25T17:25:08.406Z</time></trkpt><trkpt lat="31.5787033" lon="-9.0014517"><ele>387.66666666666663</ele><time>2026-04-25T17:25:09.406Z</time></trkpt><trkpt lat="31.5787183" lon="-9.0016333"><ele>388.3333333333333</ele><time>2026-04-25T17:25:10.406Z</time></trkpt><trkpt lat="31.578735" lon="-9.0018183"><ele>389.0</ele><time>2026-04-25T17:25:11.406Z</time></trkpt><trkpt lat="31.5787533" lon="-9.0020067"><ele>389.3333333333333</ele><time>2026-04-25T17:25:12.406Z</time></trkpt><trkpt lat="31.5787733" lon="-9.00219"><ele>389.66666666666663</ele><time>2026-04-25T17:25:13.406Z</time></trkpt><trkpt lat="31.578795" lon="-9.0023783"><ele>390.0</ele><time>2026-04-25T17:25:14.406Z</time></trkpt><trkpt lat="31.578815" lon="-9.0025683"><ele>390.0</ele><time>2026-04-25T17:25:15.406Z</time></trkpt><trkpt lat="31.5788267" lon="-9.0027567"><ele>390.0</ele><time>2026-04-25T17:25:16.406Z</time></trkpt><trkpt lat="31.5788483" lon="-9.0029433"><ele>390.0</ele><time>2026-04-25T17:25:17.406Z</time></trkpt><trkpt lat="31.578865" lon="-9.003125"><ele>390.0</ele><time>2026-04-25T17:25:18.406Z</time></trkpt><trkpt lat="31.578885" lon="-9.0033117"><ele>390.0</ele><time>2026-04-25T17:25:19.406Z</time></trkpt><trkpt lat="31.5789" lon="-9.0034933"><ele>390.0</ele><time>2026-04-25T17:25:20.406Z</time></trkpt><trkpt lat="31.5789167" lon="-9.00368"><ele>390.0</ele><time>2026-04-25T17:25:21.406Z</time></trkpt><trkpt lat="31.578935" lon="-9.003865"><ele>390.0</ele><time>2026-04-25T17:25:22.406Z</time></trkpt><trkpt lat="31.5789517" lon="-9.0040483"><ele>390.0</ele><time>2026-04-25T17:25:23.406Z</time></trkpt><trkpt lat="31.5789717" lon="-9.004235"><ele>390.0</ele><time>2026-04-25T17:25:24.406Z</time></trkpt><trkpt lat="31.5789933" lon="-9.004425"><ele>390.0</ele><time>2026-04-25T17:25:25.406Z</time></trkpt><trkpt lat="31.5790083" lon="-9.0046133"><ele>390.0</ele><time>2026-04-25T17:25:26.406Z</time></trkpt><trkpt lat="31.5790217" lon="-9.0047983"><ele>390.0</ele><time>2026-04-25T17:25:27.406Z</time></trkpt><trkpt lat="31.5790383" lon="-9.0049733"><ele>390.0</ele><time>2026-04-25T17:25:28.406Z</time></trkpt><trkpt lat="31.579055" lon="-9.0051433"><ele>390.0</ele><time>2026-04-25T17:25:29.407Z</time></trkpt><trkpt lat="31.5790717" lon="-9.0053067"><ele>390.0</ele><time>2026-04-25T17:25:30.406Z</time></trkpt><trkpt lat="31.5790883" lon="-9.0054683"><ele>389.75</ele><time>2026-04-25T17:25:31.406Z</time></trkpt><trkpt lat="31.5791067" lon="-9.00562"><ele>389.5</ele><time>2026-04-25T17:25:32.406Z</time></trkpt><trkpt lat="31.579125" lon="-9.0057617"><ele>389.25</ele><time>2026-04-25T17:25:33.406Z</time></trkpt><trkpt lat="31.5791483" lon="-9.0058983"><ele>389.0</ele><time>2026-04-25T17:25:34.406Z</time></trkpt><trkpt lat="31.57917" lon="-9.00603"><ele>389.0</ele><time>2026-04-25T17:25:35.406Z</time></trkpt><trkpt lat="31.5791883" lon="-9.00616"><ele>389.0</ele><time>2026-04-25T17:25:36.406Z</time></trkpt><trkpt lat="31.5792033" lon="-9.0062867"><ele>389.0</ele><time>2026-04-25T17:25:37.406Z</time></trkpt><trkpt lat="31.579215" lon="-9.0064117"><ele>389.0</ele><time>2026-04-25T17:25:38.406Z</time></trkpt><trkpt lat="31.5792267" lon="-9.0065333"><ele>389.0</ele><time>2026-04-25T17:25:39.406Z</time></trkpt><trkpt lat="31.57924" lon="-9.0066517"><ele>389.0</ele><time>2026-04-25T17:25:40.406Z</time></trkpt><trkpt lat="31.57925" lon="-9.0067633"><ele>389.0</ele><time>2026-04-25T17:25:41.406Z</time></trkpt><trkpt lat="31.5792567" lon="-9.0068783"><ele>389.0</ele><time>2026-04-25T17:25:42.406Z</time></trkpt><trkpt lat="31.579265" lon="-9.006995"><ele>389.0</ele><time>2026-04-25T17:25:43.406Z</time></trkpt><trkpt lat="31.5792717" lon="-9.0071183"><ele>389.0</ele><time>2026-04-25T17:25:44.406Z</time></trkpt><trkpt lat="31.5792817" lon="-9.0072567"><ele>389.0</ele><time>2026-04-25T17:25:45.406Z</time></trkpt><trkpt lat="31.57929" lon="-9.0074067"><ele>389.0</ele><time>2026-04-25T17:25:46.406Z</time></trkpt><trkpt lat="31.5793017" lon="-9.0075717"><ele>389.0</ele><time>2026-04-25T17:25:47.406Z</time></trkpt><trkpt lat="31.5793233" lon="-9.0077333"><ele>389.0</ele><time>2026-04-25T17:25:48.406Z</time></trkpt><trkpt lat="31.5793433" lon="-9.0078933"><ele>389.0</ele><time>2026-04-25T17:25:49.406Z</time></trkpt><trkpt lat="31.5793617" lon="-9.008055"><ele>389.0</ele><time>2026-04-25T17:25:50.406Z</time></trkpt><trkpt lat="31.5793833" lon="-9.0082217"><ele>389.0</ele><time>2026-04-25T17:25:51.406Z</time></trkpt><trkpt lat="31.5794067" lon="-9.00839"><ele>389.0</ele><time>2026-04-25T17:25:52.406Z</time></trkpt><trkpt lat="31.5794233" lon="-9.00856"><ele>389.0</ele><time>2026-04-25T17:25:53.406Z</time></trkpt><trkpt lat="31.5794417" lon="-9.008735"><ele>389.0</ele><time>2026-04-25T17:25:54.406Z</time></trkpt><trkpt lat="31.579455" lon="-9.0089033"><ele>389.0</ele><time>2026-04-25T17:25:55.406Z</time></trkpt><trkpt lat="31.5794683" lon="-9.0090633"><ele>389.0</ele><time>2026-04-25T17:25:56.406Z</time></trkpt><trkpt lat="31.5794833" lon="-9.009225"><ele>389.0</ele><time>2026-04-25T17:25:57.406Z</time></trkpt><trkpt lat="31.5795" lon="-9.0093883"><ele>389.0</ele><time>2026-04-25T17:25:58.406Z</time></trkpt><trkpt lat="31.579515" lon="-9.0095533"><ele>389.0</ele><time>2026-04-25T17:25:59.406Z</time></trkpt><trkpt lat="31.5795317" lon="-9.0097217"><ele>389.0</ele><time>2026-04-25T17:26:00.406Z</time></trkpt><trkpt lat="31.5795517" lon="-9.00989"><ele>389.0</ele><time>2026-04-25T17:26:01.406Z</time></trkpt><trkpt lat="31.5795617" lon="-9.0100533"><ele>389.0</ele><time>2026-04-25T17:26:02.406Z</time></trkpt><trkpt lat="31.57958" lon="-9.0102233"><ele>389.0</ele><time>2026-04-25T17:26:03.406Z</time></trkpt><trkpt lat="31.5795967" lon="-9.0103867"><ele>389.0</ele><time>2026-04-25T17:26:04.406Z</time></trkpt><trkpt lat="31.579615" lon="-9.010555"><ele>389.0</ele><time>2026-04-25T17:26:05.406Z</time></trkpt><trkpt lat="31.57963" lon="-9.010725"><ele>389.0</ele><time>2026-04-25T17:26:06.406Z</time></trkpt><trkpt lat="31.5796567" lon="-9.0108933"><ele>389.0</ele><time>2026-04-25T17:26:07.406Z</time></trkpt><trkpt lat="31.57968" lon="-9.0110667"><ele>389.0</ele><time>2026-04-25T17:26:08.406Z</time></trkpt><trkpt lat="31.5797033" lon="-9.0112333"><ele>388.5</ele><time>2026-04-25T17:26:09.406Z</time></trkpt><trkpt lat="31.5797183" lon="-9.0113933"><ele>388.0</ele><time>2026-04-25T17:26:10.406Z</time></trkpt><trkpt lat="31.5797383" lon="-9.0115517"><ele>387.5</ele><time>2026-04-25T17:26:11.406Z</time></trkpt><trkpt lat="31.5797483" lon="-9.011715"><ele>387.0</ele><time>2026-04-25T17:26:12.406Z</time></trkpt><trkpt lat="31.5797633" lon="-9.0118783"><ele>386.75</ele><time>2026-04-25T17:26:13.406Z</time></trkpt><trkpt lat="31.57978" lon="-9.012045"><ele>386.5</ele><time>2026-04-25T17:26:14.406Z</time></trkpt><trkpt lat="31.5798017" lon="-9.0122083"><ele>386.25</ele><time>2026-04-25T17:26:15.406Z</time></trkpt><trkpt lat="31.5798267" lon="-9.0123717"><ele>386.0</ele><time>2026-04-25T17:26:16.406Z</time></trkpt><trkpt lat="31.579855" lon="-9.0125283"><ele>386.0</ele><time>2026-04-25T17:26:17.406Z</time></trkpt><trkpt lat="31.5798817" lon="-9.0126817"><ele>386.0</ele><time>2026-04-25T17:26:18.406Z</time></trkpt><trkpt lat="31.5799133" lon="-9.0128333"><ele>386.0</ele><time>2026-04-25T17:26:19.406Z</time></trkpt><trkpt lat="31.5799483" lon="-9.012985"><ele>386.0</ele><time>2026-04-25T17:26:20.406Z</time></trkpt><trkpt lat="31.57999" lon="-9.0131367"><ele>386.0</ele><time>2026-04-25T17:26:21.406Z</time></trkpt><trkpt lat="31.5800317" lon="-9.0132917"><ele>386.0</ele><time>2026-04-25T17:26:22.406Z</time></trkpt><trkpt lat="31.5800683" lon="-9.0134383"><ele>386.0</ele><time>2026-04-25T17:26:23.406Z</time></trkpt><trkpt lat="31.5801133" lon="-9.01357"><ele>386.0</ele><time>2026-04-25T17:26:24.406Z</time></trkpt><trkpt lat="31.580155" lon="-9.0137017"><ele>386.0</ele><time>2026-04-25T17:26:25.406Z</time></trkpt><trkpt lat="31.5801883" lon="-9.013825"><ele>386.0</ele><time>2026-04-25T17:26:26.406Z</time></trkpt><trkpt lat="31.58022" lon="-9.0139483"><ele>386.0</ele><time>2026-04-25T17:26:27.406Z</time></trkpt><trkpt lat="31.5802467" lon="-9.0140767"><ele>386.0</ele><time>2026-04-25T17:26:28.405Z</time></trkpt><trkpt lat="31.580275" lon="-9.0141983"><ele>386.0</ele><time>2026-04-25T17:26:29.405Z</time></trkpt><trkpt lat="31.5803067" lon="-9.01431"><ele>386.4</ele><time>2026-04-25T17:26:30.405Z</time></trkpt><trkpt lat="31.5803417" lon="-9.0144283"><ele>386.8</ele><time>2026-04-25T17:26:31.405Z</time></trkpt><trkpt lat="31.5803717" lon="-9.0145433"><ele>387.2</ele><time>2026-04-25T17:26:32.405Z</time></trkpt><trkpt lat="31.5804017" lon="-9.0146583"><ele>387.59999999999997</ele><time>2026-04-25T17:26:33.405Z</time></trkpt><trkpt lat="31.5804267" lon="-9.01476"><ele>388.0</ele><time>2026-04-25T17:26:34.405Z</time></trkpt><trkpt lat="31.5804533" lon="-9.0148583"><ele>388.0</ele><time>2026-04-25T17:26:35.405Z</time></trkpt><trkpt lat="31.58048" lon="-9.0149633"><ele>388.0</ele><time>2026-04-25T17:26:36.406Z</time></trkpt><trkpt lat="31.58051" lon="-9.0150733"><ele>388.0</ele><time>2026-04-25T17:26:37.405Z</time></trkpt><trkpt lat="31.5805367" lon="-9.0151833"><ele>388.0</ele><time>2026-04-25T17:26:38.405Z</time></trkpt><trkpt lat="31.5805667" lon="-9.0152917"><ele>388.0</ele><time>2026-04-25T17:26:39.405Z</time></trkpt><trkpt lat="31.5806017" lon="-9.0153983"><ele>387.83333333333337</ele><time>2026-04-25T17:26:40.405Z</time></trkpt><trkpt lat="31.5806333" lon="-9.015495"><ele>387.6666666666667</ele><time>2026-04-25T17:26:41.405Z</time></trkpt><trkpt lat="31.58066" lon="-9.0155867"><ele>387.5</ele><time>2026-04-25T17:26:42.405Z</time></trkpt><trkpt lat="31.5806817" lon="-9.01568"><ele>387.33333333333337</ele><time>2026-04-25T17:26:43.405Z</time></trkpt><trkpt lat="31.5807083" lon="-9.0157833"><ele>387.1666666666667</ele><time>2026-04-25T17:26:44.405Z</time></trkpt><trkpt lat="31.5807367" lon="-9.0158917"><ele>387.0</ele><time>2026-04-25T17:26:45.405Z</time></trkpt><trkpt lat="31.58077" lon="-9.015995"><ele>386.8</ele><time>2026-04-25T17:26:46.405Z</time></trkpt><trkpt lat="31.5808" lon="-9.0160983"><ele>386.6</ele><time>2026-04-25T17:26:47.405Z</time></trkpt><trkpt lat="31.5808267" lon="-9.0162033"><ele>386.40000000000003</ele><time>2026-04-25T17:26:48.405Z</time></trkpt><trkpt lat="31.580855" lon="-9.0163067"><ele>386.20000000000005</ele><time>2026-04-25T17:26:49.405Z</time></trkpt><trkpt lat="31.580895" lon="-9.0164033"><ele>386.0</ele><time>2026-04-25T17:26:50.406Z</time></trkpt><trkpt lat="31.5809267" lon="-9.0165017"><ele>386.0</ele><time>2026-04-25T17:26:51.405Z</time></trkpt><trkpt lat="31.5809583" lon="-9.0166033"><ele>386.0</ele><time>2026-04-25T17:26:52.405Z</time></trkpt><trkpt lat="31.5809817" lon="-9.0167033"><ele>386.0</ele><time>2026-04-25T17:26:53.405Z</time></trkpt><trkpt lat="31.5810067" lon="-9.0168067"><ele>386.0</ele><time>2026-04-25T17:26:54.405Z</time></trkpt><trkpt lat="31.5810317" lon="-9.0169117"><ele>386.0</ele><time>2026-04-25T17:26:55.405Z</time></trkpt><trkpt lat="31.58105" lon="-9.017015"><ele>386.20000000000005</ele><time>2026-04-25T17:26:56.405Z</time></trkpt><trkpt lat="31.5810683" lon="-9.017125"><ele>386.40000000000003</ele><time>2026-04-25T17:26:57.405Z</time></trkpt><trkpt lat="31.5810817" lon="-9.0172317"><ele>386.6</ele><time>2026-04-25T17:26:58.405Z</time></trkpt><trkpt lat="31.5810983" lon="-9.0173367"><ele>386.8</ele><time>2026-04-25T17:26:59.405Z</time></trkpt><trkpt lat="31.58112" lon="-9.01745"><ele>387.0</ele><time>2026-04-25T17:27:00.405Z</time></trkpt><trkpt lat="31.5811433" lon="-9.0175633"><ele>387.0</ele><time>2026-04-25T17:27:01.405Z</time></trkpt><trkpt lat="31.58116" lon="-9.0176783"><ele>387.0</ele><time>2026-04-25T17:27:02.405Z</time></trkpt><trkpt lat="31.58118" lon="-9.0177933"><ele>387.0</ele><time>2026-04-25T17:27:03.405Z</time></trkpt><trkpt lat="31.5811983" lon="-9.0179183"><ele>387.0</ele><time>2026-04-25T17:27:04.405Z</time></trkpt><trkpt lat="31.5812183" lon="-9.0180383"><ele>387.0</ele><time>2026-04-25T17:27:05.405Z</time></trkpt><trkpt lat="31.58123" lon="-9.018155"><ele>386.40000000000003</ele><time>2026-04-25T17:27:06.405Z</time></trkpt><trkpt lat="31.5812433" lon="-9.0182717"><ele>385.8</ele><time>2026-04-25T17:27:07.405Z</time></trkpt><trkpt lat="31.581255" lon="-9.0183883"><ele>385.2</ele><time>2026-04-25T17:27:08.405Z</time></trkpt><trkpt lat="31.5812717" lon="-9.0185067"><ele>384.6</ele><time>2026-04-25T17:27:09.405Z</time></trkpt><trkpt lat="31.5812917" lon="-9.0186283"><ele>384.0</ele><time>2026-04-25T17:27:10.405Z</time></trkpt><trkpt lat="31.5813083" lon="-9.018755"><ele>383.75</ele><time>2026-04-25T17:27:11.405Z</time></trkpt><trkpt lat="31.5813267" lon="-9.018885"><ele>383.5</ele><time>2026-04-25T17:27:12.405Z</time></trkpt><trkpt lat="31.581345" lon="-9.0190233"><ele>383.25</ele><time>2026-04-25T17:27:13.405Z</time></trkpt><trkpt lat="31.5813583" lon="-9.0191633"><ele>383.0</ele><time>2026-04-25T17:27:14.405Z</time></trkpt><trkpt lat="31.58137" lon="-9.0193067"><ele>382.5</ele><time>2026-04-25T17:27:15.405Z</time></trkpt><trkpt lat="31.58138" lon="-9.01945"><ele>382.0</ele><time>2026-04-25T17:27:16.405Z</time></trkpt><trkpt lat="31.5813933" lon="-9.0195933"><ele>381.5</ele><time>2026-04-25T17:27:17.405Z</time></trkpt><trkpt lat="31.5814033" lon="-9.0197367"><ele>381.0</ele><time>2026-04-25T17:27:18.405Z</time></trkpt><trkpt lat="31.5814133" lon="-9.0198733"><ele>381.0</ele><time>2026-04-25T17:27:19.405Z</time></trkpt><trkpt lat="31.5814233" lon="-9.0200117"><ele>381.0</ele><time>2026-04-25T17:27:20.405Z</time></trkpt><trkpt lat="31.5814333" lon="-9.0201533"><ele>381.0</ele><time>2026-04-25T17:27:21.405Z</time></trkpt><trkpt lat="31.5814483" lon="-9.0202967"><ele>381.0</ele><time>2026-04-25T17:27:22.405Z</time></trkpt><trkpt lat="31.5814633" lon="-9.0204383"><ele>381.0</ele><time>2026-04-25T17:27:23.405Z</time></trkpt><trkpt lat="31.5814767" lon="-9.020585"><ele>381.0</ele><time>2026-04-25T17:27:24.405Z</time></trkpt><trkpt lat="31.58149" lon="-9.0207383"><ele>381.0</ele><time>2026-04-25T17:27:25.405Z</time></trkpt><trkpt lat="31.5814917" lon="-9.0208883"><ele>381.0</ele><time>2026-04-25T17:27:26.405Z</time></trkpt><trkpt lat="31.5815033" lon="-9.0210383"><ele>381.0</ele><time>2026-04-25T17:27:27.405Z</time></trkpt><trkpt lat="31.5815183" lon="-9.02119"><ele>381.0</ele><time>2026-04-25T17:27:28.405Z</time></trkpt><trkpt lat="31.581535" lon="-9.0213433"><ele>381.0</ele><time>2026-04-25T17:27:29.405Z</time></trkpt><trkpt lat="31.5815483" lon="-9.021495"><ele>381.0</ele><time>2026-04-25T17:27:30.405Z</time></trkpt><trkpt lat="31.58156" lon="-9.0216483"><ele>381.25</ele><time>2026-04-25T17:27:31.405Z</time></trkpt><trkpt lat="31.5815783" lon="-9.021805"><ele>381.5</ele><time>2026-04-25T17:27:32.405Z</time></trkpt><trkpt lat="31.581595" lon="-9.0219617"><ele>381.75</ele><time>2026-04-25T17:27:33.405Z</time></trkpt><trkpt lat="31.5816133" lon="-9.0221283"><ele>382.0</ele><time>2026-04-25T17:27:34.406Z</time></trkpt><trkpt lat="31.58164" lon="-9.0222983"><ele>382.0</ele><time>2026-04-25T17:27:35.405Z</time></trkpt><trkpt lat="31.5816667" lon="-9.022475"><ele>382.0</ele><time>2026-04-25T17:27:36.405Z</time></trkpt><trkpt lat="31.5816883" lon="-9.0226483"><ele>382.0</ele><time>2026-04-25T17:27:37.405Z</time></trkpt><trkpt lat="31.5817033" lon="-9.0228233"><ele>382.66666666666663</ele><time>2026-04-25T17:27:38.405Z</time></trkpt><trkpt lat="31.5817217" lon="-9.0229983"><ele>383.3333333333333</ele><time>2026-04-25T17:27:39.405Z</time></trkpt><trkpt lat="31.581735" lon="-9.0231767"><ele>384.0</ele><time>2026-04-25T17:27:40.405Z</time></trkpt><trkpt lat="31.5817567" lon="-9.0233617"><ele>384.66666666666663</ele><time>2026-04-25T17:27:41.405Z</time></trkpt><trkpt lat="31.5817767" lon="-9.0235417"><ele>385.3333333333333</ele><time>2026-04-25T17:27:42.405Z</time></trkpt><trkpt lat="31.5817967" lon="-9.023725"><ele>386.0</ele><time>2026-04-25T17:27:43.405Z</time></trkpt><trkpt lat="31.581815" lon="-9.0239083"><ele>386.0</ele><time>2026-04-25T17:27:44.405Z</time></trkpt><trkpt lat="31.58183" lon="-9.0240917"><ele>386.0</ele><time>2026-04-25T17:27:45.405Z</time></trkpt><trkpt lat="31.5818467" lon="-9.0242767"><ele>386.0</ele><time>2026-04-25T17:27:46.405Z</time></trkpt><trkpt lat="31.5818633" lon="-9.0244583"><ele>386.0</ele><time>2026-04-25T17:27:47.405Z</time></trkpt><trkpt lat="31.5818783" lon="-9.0246367"><ele>386.0</ele><time>2026-04-25T17:27:48.405Z</time></trkpt><trkpt lat="31.581885" lon="-9.02481"><ele>386.0</ele><time>2026-04-25T17:27:49.406Z</time></trkpt><trkpt lat="31.5818967" lon="-9.024985"><ele>385.25</ele><time>2026-04-25T17:27:50.405Z</time></trkpt><trkpt lat="31.58191" lon="-9.0251533"><ele>384.5</ele><time>2026-04-25T17:27:51.405Z</time></trkpt><trkpt lat="31.581925" lon="-9.025325"><ele>383.75</ele><time>2026-04-25T17:27:52.405Z</time></trkpt><trkpt lat="31.58194" lon="-9.0254917"><ele>383.0</ele><time>2026-04-25T17:27:53.405Z</time></trkpt><trkpt lat="31.58195" lon="-9.0256633"><ele>382.6666666666667</ele><time>2026-04-25T17:27:54.405Z</time></trkpt><trkpt lat="31.58196" lon="-9.0258333"><ele>382.3333333333333</ele><time>2026-04-25T17:27:55.405Z</time></trkpt><trkpt lat="31.5819733" lon="-9.02601"><ele>382.0</ele><time>2026-04-25T17:27:56.405Z</time></trkpt><trkpt lat="31.5819867" lon="-9.02619"><ele>382.0</ele><time>2026-04-25T17:27:57.405Z</time></trkpt><trkpt lat="31.5820083" lon="-9.02637"><ele>382.0</ele><time>2026-04-25T17:27:58.405Z</time></trkpt><trkpt lat="31.5820283" lon="-9.0265483"><ele>382.0</ele><time>2026-04-25T17:27:59.405Z</time></trkpt><trkpt lat="31.58205" lon="-9.0267333"><ele>382.0</ele><time>2026-04-25T17:28:00.405Z</time></trkpt><trkpt lat="31.5820717" lon="-9.0269117"><ele>382.0</ele><time>2026-04-25T17:28:01.405Z</time></trkpt><trkpt lat="31.5820867" lon="-9.027085"><ele>382.0</ele><time>2026-04-25T17:28:02.405Z</time></trkpt><trkpt lat="31.5821" lon="-9.0272717"><ele>382.0</ele><time>2026-04-25T17:28:03.405Z</time></trkpt><trkpt lat="31.5821183" lon="-9.0274667"><ele>382.0</ele><time>2026-04-25T17:28:04.406Z</time></trkpt><trkpt lat="31.5821367" lon="-9.0276633"><ele>382.0</ele><time>2026-04-25T17:28:05.405Z</time></trkpt><trkpt lat="31.5821517" lon="-9.0278483"><ele>382.5</ele><time>2026-04-25T17:28:06.405Z</time></trkpt><trkpt lat="31.5821667" lon="-9.0280333"><ele>383.0</ele><time>2026-04-25T17:28:07.405Z</time></trkpt><trkpt lat="31.5821833" lon="-9.0282083"><ele>383.5</ele><time>2026-04-25T17:28:08.405Z</time></trkpt><trkpt lat="31.5822017" lon="-9.0283717"><ele>384.0</ele><time>2026-04-25T17:28:09.405Z</time></trkpt><trkpt lat="31.5822167" lon="-9.028515"><ele>384.0</ele><time>2026-04-25T17:28:10.405Z</time></trkpt><trkpt lat="31.58223" lon="-9.028645"><ele>384.0</ele><time>2026-04-25T17:28:11.405Z</time></trkpt><trkpt lat="31.5822433" lon="-9.028765"><ele>384.0</ele><time>2026-04-25T17:28:12.405Z</time></trkpt><trkpt lat="31.582255" lon="-9.0288833"><ele>384.0</ele><time>2026-04-25T17:28:13.405Z</time></trkpt><trkpt lat="31.5822683" lon="-9.0289933"><ele>384.0</ele><time>2026-04-25T17:28:14.405Z</time></trkpt><trkpt lat="31.5822783" lon="-9.0291"><ele>383.79999999999995</ele><time>2026-04-25T17:28:15.405Z</time></trkpt><trkpt lat="31.582285" lon="-9.0292117"><ele>383.59999999999997</ele><time>2026-04-25T17:28:16.405Z</time></trkpt><trkpt lat="31.5822967" lon="-9.02933"><ele>383.4</ele><time>2026-04-25T17:28:17.405Z</time></trkpt><trkpt lat="31.5823117" lon="-9.0294583"><ele>383.2</ele><time>2026-04-25T17:28:18.405Z</time></trkpt><trkpt lat="31.5823283" lon="-9.0296017"><ele>383.0</ele><time>2026-04-25T17:28:19.405Z</time></trkpt><trkpt lat="31.5823467" lon="-9.02976"><ele>383.0</ele><time>2026-04-25T17:28:20.405Z</time></trkpt><trkpt lat="31.5823567" lon="-9.0299233"><ele>383.0</ele><time>2026-04-25T17:28:21.405Z</time></trkpt><trkpt lat="31.5823717" lon="-9.0300867"><ele>383.0</ele><time>2026-04-25T17:28:22.405Z</time></trkpt><trkpt lat="31.5823883" lon="-9.030255"><ele>383.0</ele><time>2026-04-25T17:28:23.405Z</time></trkpt><trkpt lat="31.58241" lon="-9.030435"><ele>383.0</ele><time>2026-04-25T17:28:24.405Z</time></trkpt><trkpt lat="31.5824283" lon="-9.0306217"><ele>383.0</ele><time>2026-04-25T17:28:25.405Z</time></trkpt><trkpt lat="31.5824433" lon="-9.0308117"><ele>383.0</ele><time>2026-04-25T17:28:26.405Z</time></trkpt><trkpt lat="31.5824633" lon="-9.0310033"><ele>383.0</ele><time>2026-04-25T17:28:27.405Z</time></trkpt><trkpt lat="31.5824883" lon="-9.0312033"><ele>383.0</ele><time>2026-04-25T17:28:28.405Z</time></trkpt><trkpt lat="31.5825033" lon="-9.03141"><ele>383.0</ele><time>2026-04-25T17:28:29.405Z</time></trkpt><trkpt lat="31.5825233" lon="-9.0316133"><ele>382.6666666666667</ele><time>2026-04-25T17:28:30.405Z</time></trkpt><trkpt lat="31.5825483" lon="-9.0318233"><ele>382.3333333333333</ele><time>2026-04-25T17:28:31.405Z</time></trkpt><trkpt lat="31.58257" lon="-9.0320383"><ele>382.0</ele><time>2026-04-25T17:28:32.405Z</time></trkpt><trkpt lat="31.5825883" lon="-9.0322617"><ele>382.66666666666663</ele><time>2026-04-25T17:28:33.405Z</time></trkpt><trkpt lat="31.5826133" lon="-9.0325067"><ele>383.3333333333333</ele><time>2026-04-25T17:28:34.405Z</time></trkpt><trkpt lat="31.582635" lon="-9.0327417"><ele>384.0</ele><time>2026-04-25T17:28:35.405Z</time></trkpt><trkpt lat="31.5826517" lon="-9.0329617"><ele>384.0</ele><time>2026-04-25T17:28:36.405Z</time></trkpt><trkpt lat="31.5826683" lon="-9.03317"><ele>384.0</ele><time>2026-04-25T17:28:37.405Z</time></trkpt><trkpt lat="31.5826967" lon="-9.03338"><ele>384.0</ele><time>2026-04-25T17:28:38.405Z</time></trkpt><trkpt lat="31.5827267" lon="-9.0335783"><ele>383.3333333333333</ele><time>2026-04-25T17:28:39.405Z</time></trkpt><trkpt lat="31.58275" lon="-9.0337767"><ele>382.66666666666663</ele><time>2026-04-25T17:28:40.405Z</time></trkpt><trkpt lat="31.5827717" lon="-9.033965"><ele>382.0</ele><time>2026-04-25T17:28:41.405Z</time></trkpt><trkpt lat="31.5827933" lon="-9.034145"><ele>381.66666666666663</ele><time>2026-04-25T17:28:42.405Z</time></trkpt><trkpt lat="31.5828" lon="-9.0343217"><ele>381.3333333333333</ele><time>2026-04-25T17:28:43.405Z</time></trkpt><trkpt lat="31.5828167" lon="-9.0345067"><ele>381.0</ele><time>2026-04-25T17:28:44.405Z</time></trkpt><trkpt lat="31.58284" lon="-9.0346967"><ele>381.3333333333333</ele><time>2026-04-25T17:28:45.405Z</time></trkpt><trkpt lat="31.5828583" lon="-9.0348917"><ele>381.66666666666663</ele><time>2026-04-25T17:28:46.405Z</time></trkpt><trkpt lat="31.58288" lon="-9.0350917"><ele>382.0</ele><time>2026-04-25T17:28:47.405Z</time></trkpt><trkpt lat="31.5829" lon="-9.0353017"><ele>382.0</ele><time>2026-04-25T17:28:48.405Z</time></trkpt><trkpt lat="31.5829183" lon="-9.0355167"><ele>382.0</ele><time>2026-04-25T17:28:49.405Z</time></trkpt><trkpt lat="31.5829383" lon="-9.0357417"><ele>382.0</ele><time>2026-04-25T17:28:50.405Z</time></trkpt><trkpt lat="31.5829583" lon="-9.03597"><ele>382.3333333333333</ele><time>2026-04-25T17:28:51.405Z</time></trkpt><trkpt lat="31.5829817" lon="-9.0361967"><ele>382.6666666666667</ele><time>2026-04-25T17:28:52.405Z</time></trkpt><trkpt lat="31.5830033" lon="-9.0364317"><ele>383.0</ele><time>2026-04-25T17:28:53.405Z</time></trkpt><trkpt lat="31.5830233" lon="-9.036665"><ele>383.0</ele><time>2026-04-25T17:28:54.405Z</time></trkpt><trkpt lat="31.5830417" lon="-9.0369017"><ele>383.0</ele><time>2026-04-25T17:28:55.405Z</time></trkpt><trkpt lat="31.583065" lon="-9.0371433"><ele>383.0</ele><time>2026-04-25T17:28:56.405Z</time></trkpt><trkpt lat="31.583095" lon="-9.0373867"><ele>383.0</ele><time>2026-04-25T17:28:57.405Z</time></trkpt><trkpt lat="31.583125" lon="-9.037635"><ele>383.0</ele><time>2026-04-25T17:28:58.405Z</time></trkpt><trkpt lat="31.5831483" lon="-9.0378867"><ele>383.0</ele><time>2026-04-25T17:28:59.405Z</time></trkpt><trkpt lat="31.58317" lon="-9.03814"><ele>382.6666666666667</ele><time>2026-04-25T17:29:00.405Z</time></trkpt><trkpt lat="31.58319" lon="-9.0383967"><ele>382.3333333333333</ele><time>2026-04-25T17:29:01.405Z</time></trkpt><trkpt lat="31.5832117" lon="-9.03866"><ele>382.0</ele><time>2026-04-25T17:29:02.405Z</time></trkpt><trkpt lat="31.5832383" lon="-9.0389233"><ele>382.5</ele><time>2026-04-25T17:29:03.405Z</time></trkpt><trkpt lat="31.58326" lon="-9.039185"><ele>383.0</ele><time>2026-04-25T17:29:04.405Z</time></trkpt><trkpt lat="31.5832817" lon="-9.0394517"><ele>383.0</ele><time>2026-04-25T17:29:05.405Z</time></trkpt><trkpt lat="31.583305" lon="-9.0397217"><ele>383.0</ele><time>2026-04-25T17:29:06.405Z</time></trkpt><trkpt lat="31.5833283" lon="-9.0399933"><ele>383.5</ele><time>2026-04-25T17:29:07.405Z</time></trkpt><trkpt lat="31.5833517" lon="-9.0402667"><ele>384.0</ele><time>2026-04-25T17:29:08.405Z</time></trkpt><trkpt lat="31.5833833" lon="-9.040545"><ele>384.0</ele><time>2026-04-25T17:29:09.405Z</time></trkpt><trkpt lat="31.5834117" lon="-9.0408317"><ele>384.0</ele><time>2026-04-25T17:29:10.405Z</time></trkpt><trkpt lat="31.5834333" lon="-9.04112"><ele>384.0</ele><time>2026-04-25T17:29:11.405Z</time></trkpt><trkpt lat="31.5834567" lon="-9.0414067"><ele>384.0</ele><time>2026-04-25T17:29:12.405Z</time></trkpt><trkpt lat="31.5834833" lon="-9.04169"><ele>382.0</ele><time>2026-04-25T17:29:13.405Z</time></trkpt><trkpt lat="31.583515" lon="-9.041975"><ele>380.0</ele><time>2026-04-25T17:29:14.405Z</time></trkpt><trkpt lat="31.5835467" lon="-9.0422617"><ele>380.0</ele><time>2026-04-25T17:29:15.405Z</time></trkpt><trkpt lat="31.583575" lon="-9.0425567"><ele>380.0</ele><time>2026-04-25T17:29:16.406Z</time></trkpt><trkpt lat="31.5836" lon="-9.0428467"><ele>380.0</ele><time>2026-04-25T17:29:17.405Z</time></trkpt><trkpt lat="31.5836267" lon="-9.043135"><ele>380.0</ele><time>2026-04-25T17:29:18.405Z</time></trkpt><trkpt lat="31.5836583" lon="-9.0434267"><ele>380.5</ele><time>2026-04-25T17:29:19.405Z</time></trkpt><trkpt lat="31.5836867" lon="-9.0437183"><ele>381.0</ele><time>2026-04-25T17:29:20.405Z</time></trkpt><trkpt lat="31.5837167" lon="-9.0440067"><ele>381.5</ele><time>2026-04-25T17:29:21.405Z</time></trkpt><trkpt lat="31.5837433" lon="-9.0443"><ele>382.0</ele><time>2026-04-25T17:29:22.405Z</time></trkpt><trkpt lat="31.5837683" lon="-9.0445917"><ele>382.0</ele><time>2026-04-25T17:29:23.405Z</time></trkpt><trkpt lat="31.5837967" lon="-9.0448817"><ele>382.0</ele><time>2026-04-25T17:29:24.405Z</time></trkpt><trkpt lat="31.583825" lon="-9.0451717"><ele>381.5</ele><time>2026-04-25T17:29:25.405Z</time></trkpt><trkpt lat="31.5838483" lon="-9.0454567"><ele>381.0</ele><time>2026-04-25T17:29:26.405Z</time></trkpt><trkpt lat="31.5838733" lon="-9.0457483"><ele>381.5</ele><time>2026-04-25T17:29:27.405Z</time></trkpt><trkpt lat="31.5839" lon="-9.0460417"><ele>382.0</ele><time>2026-04-25T17:29:28.405Z</time></trkpt><trkpt lat="31.583925" lon="-9.0463283"><ele>382.0</ele><time>2026-04-25T17:29:29.405Z</time></trkpt><trkpt lat="31.5839583" lon="-9.0466167"><ele>382.0</ele><time>2026-04-25T17:29:30.405Z</time></trkpt><trkpt lat="31.5839983" lon="-9.046905"><ele>381.5</ele><time>2026-04-25T17:29:31.405Z</time></trkpt><trkpt lat="31.584035" lon="-9.04719"><ele>381.0</ele><time>2026-04-25T17:29:32.405Z</time></trkpt><trkpt lat="31.58407" lon="-9.0474767"><ele>382.0</ele><time>2026-04-25T17:29:33.406Z</time></trkpt><trkpt lat="31.5841" lon="-9.0477667"><ele>383.0</ele><time>2026-04-25T17:29:34.405Z</time></trkpt><trkpt lat="31.584125" lon="-9.0480683"><ele>382.5</ele><time>2026-04-25T17:29:35.405Z</time></trkpt><trkpt lat="31.5841517" lon="-9.0483767"><ele>382.0</ele><time>2026-04-25T17:29:36.405Z</time></trkpt><trkpt lat="31.5841883" lon="-9.0486883"><ele>382.0</ele><time>2026-04-25T17:29:37.405Z</time></trkpt><trkpt lat="31.5842233" lon="-9.0490033"><ele>382.0</ele><time>2026-04-25T17:29:38.406Z</time></trkpt><trkpt lat="31.5842533" lon="-9.049325"><ele>382.5</ele><time>2026-04-25T17:29:39.405Z</time></trkpt><trkpt lat="31.5842817" lon="-9.0496483"><ele>383.0</ele><time>2026-04-25T17:29:40.405Z</time></trkpt><trkpt lat="31.584315" lon="-9.0499783"><ele>383.0</ele><time>2026-04-25T17:29:41.405Z</time></trkpt><trkpt lat="31.5843467" lon="-9.0503067"><ele>383.0</ele><time>2026-04-25T17:29:42.405Z</time></trkpt><trkpt lat="31.584375" lon="-9.0506383"><ele>382.5</ele><time>2026-04-25T17:29:43.405Z</time></trkpt><trkpt lat="31.584405" lon="-9.0509733"><ele>382.0</ele><time>2026-04-25T17:29:44.405Z</time></trkpt><trkpt lat="31.5844367" lon="-9.05131"><ele>381.5</ele><time>2026-04-25T17:29:45.405Z</time></trkpt><trkpt lat="31.58447" lon="-9.05165"><ele>381.0</ele><time>2026-04-25T17:29:46.405Z</time></trkpt><trkpt lat="31.5844983" lon="-9.0519917"><ele>381.5</ele><time>2026-04-25T17:29:47.405Z</time></trkpt><trkpt lat="31.5845283" lon="-9.0523367"><ele>382.0</ele><time>2026-04-25T17:29:48.405Z</time></trkpt><trkpt lat="31.584565" lon="-9.0526817"><ele>382.5</ele><time>2026-04-25T17:29:49.405Z</time></trkpt><trkpt lat="31.5846017" lon="-9.05303"><ele>383.0</ele><time>2026-04-25T17:29:50.405Z</time></trkpt><trkpt lat="31.5846383" lon="-9.0533783"><ele>383.0</ele><time>2026-04-25T17:29:51.405Z</time></trkpt><trkpt lat="31.5846767" lon="-9.0537183"><ele>383.0</ele><time>2026-04-25T17:29:52.405Z</time></trkpt><trkpt lat="31.5847117" lon="-9.0540483"><ele>382.0</ele><time>2026-04-25T17:29:53.405Z</time></trkpt><trkpt lat="31.5847433" lon="-9.05437"><ele>381.0</ele><time>2026-04-25T17:29:54.405Z</time></trkpt><trkpt lat="31.584765" lon="-9.0546817"><ele>381.5</ele><time>2026-04-25T17:29:55.405Z</time></trkpt><trkpt lat="31.5847933" lon="-9.0549867"><ele>382.0</ele><time>2026-04-25T17:29:56.405Z</time></trkpt><trkpt lat="31.5848267" lon="-9.0552833"><ele>382.0</ele><time>2026-04-25T17:29:57.406Z</time></trkpt><trkpt lat="31.584855" lon="-9.0555767"><ele>382.0</ele><time>2026-04-25T17:29:58.405Z</time></trkpt><trkpt lat="31.5848883" lon="-9.0558667"><ele>383.0</ele><time>2026-04-25T17:29:59.405Z</time></trkpt><trkpt lat="31.58492" lon="-9.056155"><ele>384.0</ele><time>2026-04-25T17:30:00.405Z</time></trkpt><trkpt lat="31.584955" lon="-9.0564383"><ele>382.5</ele><time>2026-04-25T17:30:01.405Z</time></trkpt><trkpt lat="31.58499" lon="-9.0567117"><ele>381.0</ele><time>2026-04-25T17:30:02.405Z</time></trkpt><trkpt lat="31.5850317" lon="-9.0569917"><ele>381.0</ele><time>2026-04-25T17:30:03.405Z</time></trkpt><trkpt lat="31.5850783" lon="-9.0572833"><ele>381.0</ele><time>2026-04-25T17:30:04.405Z</time></trkpt><trkpt lat="31.58513" lon="-9.0575867"><ele>380.5</ele><time>2026-04-25T17:30:05.405Z</time></trkpt><trkpt lat="31.585175" lon="-9.0578917"><ele>380.0</ele><time>2026-04-25T17:30:06.405Z</time></trkpt><trkpt lat="31.58522" lon="-9.0582033"><ele>379.5</ele><time>2026-04-25T17:30:07.405Z</time></trkpt><trkpt lat="31.585265" lon="-9.0585183"><ele>379.0</ele><time>2026-04-25T17:30:08.406Z</time></trkpt><trkpt lat="31.5853167" lon="-9.0588433"><ele>379.5</ele><time>2026-04-25T17:30:09.405Z</time></trkpt><trkpt lat="31.5853617" lon="-9.059165"><ele>380.0</ele><time>2026-04-25T17:30:10.405Z</time></trkpt><trkpt lat="31.5854067" lon="-9.0594983"><ele>380.0</ele><time>2026-04-25T17:30:11.405Z</time></trkpt><trkpt lat="31.5854467" lon="-9.0598317"><ele>380.0</ele><time>2026-04-25T17:30:12.405Z</time></trkpt><trkpt lat="31.5854883" lon="-9.06017"><ele>380.5</ele><time>2026-04-25T17:30:13.405Z</time></trkpt><trkpt lat="31.58553" lon="-9.06051"><ele>381.0</ele><time>2026-04-25T17:30:14.405Z</time></trkpt><trkpt lat="31.5855717" lon="-9.060845"><ele>380.0</ele><time>2026-04-25T17:30:15.405Z</time></trkpt><trkpt lat="31.5856083" lon="-9.0611633"><ele>379.0</ele><time>2026-04-25T17:30:16.405Z</time></trkpt><trkpt lat="31.5856417" lon="-9.0614683"><ele>378.0</ele><time>2026-04-25T17:30:17.405Z</time></trkpt><trkpt lat="31.585675" lon="-9.0617667"><ele>377.0</ele><time>2026-04-25T17:30:18.405Z</time></trkpt><trkpt lat="31.5857067" lon="-9.0620633"><ele>377.0</ele><time>2026-04-25T17:30:19.405Z</time></trkpt><trkpt lat="31.5857383" lon="-9.0623633"><ele>377.0</ele><time>2026-04-25T17:30:20.405Z</time></trkpt><trkpt lat="31.58577" lon="-9.0626633"><ele>376.0</ele><time>2026-04-25T17:30:21.405Z</time></trkpt><trkpt lat="31.5858033" lon="-9.0629633"><ele>375.0</ele><time>2026-04-25T17:30:22.405Z</time></trkpt><trkpt lat="31.58584" lon="-9.063265"><ele>374.0</ele><time>2026-04-25T17:30:23.405Z</time></trkpt><trkpt lat="31.5858733" lon="-9.0635683"><ele>373.0</ele><time>2026-04-25T17:30:24.405Z</time></trkpt><trkpt lat="31.585905" lon="-9.06387"><ele>372.5</ele><time>2026-04-25T17:30:25.405Z</time></trkpt><trkpt lat="31.5859333" lon="-9.064175"><ele>372.0</ele><time>2026-04-25T17:30:26.405Z</time></trkpt><trkpt lat="31.58597" lon="-9.0644767"><ele>372.0</ele><time>2026-04-25T17:30:27.405Z</time></trkpt><trkpt lat="31.5860017" lon="-9.064775"><ele>372.0</ele><time>2026-04-25T17:30:28.405Z</time></trkpt><trkpt lat="31.58604" lon="-9.065085"><ele>372.0</ele><time>2026-04-25T17:30:29.405Z</time></trkpt><trkpt lat="31.5860783" lon="-9.0653917"><ele>372.0</ele><time>2026-04-25T17:30:30.405Z</time></trkpt><trkpt lat="31.5861083" lon="-9.0657033"><ele>371.5</ele><time>2026-04-25T17:30:31.405Z</time></trkpt><trkpt lat="31.5861417" lon="-9.066015"><ele>371.0</ele><time>2026-04-25T17:30:32.406Z</time></trkpt><trkpt lat="31.5861783" lon="-9.06632"><ele>371.0</ele><time>2026-04-25T17:30:33.405Z</time></trkpt><trkpt lat="31.5862167" lon="-9.066625"><ele>371.0</ele><time>2026-04-25T17:30:34.405Z</time></trkpt><trkpt lat="31.5862567" lon="-9.0669367"><ele>371.0</ele><time>2026-04-25T17:30:35.405Z</time></trkpt><trkpt lat="31.5862933" lon="-9.0672533"><ele>371.0</ele><time>2026-04-25T17:30:36.405Z</time></trkpt><trkpt lat="31.5863367" lon="-9.0675717"><ele>371.5</ele><time>2026-04-25T17:30:37.405Z</time></trkpt><trkpt lat="31.5863833" lon="-9.0678967"><ele>372.0</ele><time>2026-04-25T17:30:38.405Z</time></trkpt><trkpt lat="31.5864283" lon="-9.0682217"><ele>372.5</ele><time>2026-04-25T17:30:39.405Z</time></trkpt><trkpt lat="31.586475" lon="-9.0685517"><ele>373.0</ele><time>2026-04-25T17:30:40.405Z</time></trkpt><trkpt lat="31.586515" lon="-9.0688717"><ele>374.0</ele><time>2026-04-25T17:30:41.405Z</time></trkpt><trkpt lat="31.5865517" lon="-9.06918"><ele>375.0</ele><time>2026-04-25T17:30:42.405Z</time></trkpt><trkpt lat="31.5865883" lon="-9.0694817"><ele>375.0</ele><time>2026-04-25T17:30:43.405Z</time></trkpt><trkpt lat="31.5866267" lon="-9.0697783"><ele>375.0</ele><time>2026-04-25T17:30:44.405Z</time></trkpt><trkpt lat="31.5866667" lon="-9.0700683"><ele>375.0</ele><time>2026-04-25T17:30:45.406Z</time></trkpt><trkpt lat="31.586705" lon="-9.0703617"><ele>375.0</ele><time>2026-04-25T17:30:46.405Z</time></trkpt><trkpt lat="31.58674" lon="-9.0706517"><ele>375.0</ele><time>2026-04-25T17:30:47.405Z</time></trkpt><trkpt lat="31.5867733" lon="-9.0709417"><ele>375.0</ele><time>2026-04-25T17:30:48.405Z</time></trkpt><trkpt lat="31.586805" lon="-9.07123"><ele>375.0</ele><time>2026-04-25T17:30:49.405Z</time></trkpt><trkpt lat="31.58684" lon="-9.0715167"><ele>375.0</ele><time>2026-04-25T17:30:50.405Z</time></trkpt><trkpt lat="31.5868767" lon="-9.0717983"><ele>375.5</ele><time>2026-04-25T17:30:51.405Z</time></trkpt><trkpt lat="31.5869133" lon="-9.072085"><ele>376.0</ele><time>2026-04-25T17:30:52.405Z</time></trkpt><trkpt lat="31.5869517" lon="-9.0723733"><ele>376.5</ele><time>2026-04-25T17:30:53.405Z</time></trkpt><trkpt lat="31.58699" lon="-9.0726633"><ele>377.0</ele><time>2026-04-25T17:30:54.405Z</time></trkpt><trkpt lat="31.5870283" lon="-9.0729467"><ele>377.0</ele><time>2026-04-25T17:30:55.406Z</time></trkpt><trkpt lat="31.5870667" lon="-9.0732317"><ele>377.0</ele><time>2026-04-25T17:30:56.405Z</time></trkpt><trkpt lat="31.5871033" lon="-9.0735133"><ele>376.5</ele><time>2026-04-25T17:30:57.405Z</time></trkpt><trkpt lat="31.587135" lon="-9.0738017"><ele>376.0</ele><time>2026-04-25T17:30:58.405Z</time></trkpt><trkpt lat="31.5871717" lon="-9.0740917"><ele>375.5</ele><time>2026-04-25T17:30:59.405Z</time></trkpt><trkpt lat="31.58721" lon="-9.07438"><ele>375.0</ele><time>2026-04-25T17:31:00.405Z</time></trkpt><trkpt lat="31.5872467" lon="-9.0746633"><ele>376.0</ele><time>2026-04-25T17:31:01.405Z</time></trkpt><trkpt lat="31.58728" lon="-9.0749583"><ele>377.0</ele><time>2026-04-25T17:31:02.405Z</time></trkpt><trkpt lat="31.5873083" lon="-9.0752483"><ele>377.0</ele><time>2026-04-25T17:31:03.405Z</time></trkpt><trkpt lat="31.5873383" lon="-9.0755267"><ele>377.0</ele><time>2026-04-25T17:31:04.405Z</time></trkpt><trkpt lat="31.587365" lon="-9.075795"><ele>377.0</ele><time>2026-04-25T17:31:05.405Z</time></trkpt><trkpt lat="31.5873983" lon="-9.0760683"><ele>377.0</ele><time>2026-04-25T17:31:06.406Z</time></trkpt><trkpt lat="31.587435" lon="-9.0763367"><ele>377.5</ele><time>2026-04-25T17:31:07.405Z</time></trkpt><trkpt lat="31.58747" lon="-9.0766083"><ele>378.0</ele><time>2026-04-25T17:31:08.405Z</time></trkpt><trkpt lat="31.5875" lon="-9.07688"><ele>378.0</ele><time>2026-04-25T17:31:09.405Z</time></trkpt><trkpt lat="31.58753" lon="-9.0771533"><ele>378.0</ele><time>2026-04-25T17:31:10.405Z</time></trkpt><trkpt lat="31.587565" lon="-9.0774283"><ele>378.0</ele><time>2026-04-25T17:31:11.405Z</time></trkpt><trkpt lat="31.587595" lon="-9.0777033"><ele>378.0</ele><time>2026-04-25T17:31:12.405Z</time></trkpt><trkpt lat="31.5876317" lon="-9.0779783"><ele>378.0</ele><time>2026-04-25T17:31:13.405Z</time></trkpt><trkpt lat="31.5876667" lon="-9.0782567"><ele>378.0</ele><time>2026-04-25T17:31:14.405Z</time></trkpt><trkpt lat="31.5877083" lon="-9.078535"><ele>378.0</ele><time>2026-04-25T17:31:15.405Z</time></trkpt><trkpt lat="31.5877483" lon="-9.0788133"><ele>378.0</ele><time>2026-04-25T17:31:16.405Z</time></trkpt><trkpt lat="31.5877867" lon="-9.0790917"><ele>378.0</ele><time>2026-04-25T17:31:17.405Z</time></trkpt><trkpt lat="31.5878183" lon="-9.0793683"><ele>378.0</ele><time>2026-04-25T17:31:18.405Z</time></trkpt><trkpt lat="31.58785" lon="-9.0796483"><ele>378.0</ele><time>2026-04-25T17:31:19.405Z</time></trkpt><trkpt lat="31.5878783" lon="-9.0799267"><ele>378.0</ele><time>2026-04-25T17:31:20.405Z</time></trkpt><trkpt lat="31.5879133" lon="-9.0802033"><ele>378.0</ele><time>2026-04-25T17:31:21.405Z</time></trkpt><trkpt lat="31.58795" lon="-9.0804783"><ele>378.0</ele><time>2026-04-25T17:31:22.405Z</time></trkpt><trkpt lat="31.587985" lon="-9.0807533"><ele>377.5</ele><time>2026-04-25T17:31:23.405Z</time></trkpt><trkpt lat="31.5880167" lon="-9.0810283"><ele>377.0</ele><time>2026-04-25T17:31:24.405Z</time></trkpt><trkpt lat="31.5880517" lon="-9.0813083"><ele>377.0</ele><time>2026-04-25T17:31:25.405Z</time></trkpt><trkpt lat="31.5880833" lon="-9.0815883"><ele>377.0</ele><time>2026-04-25T17:31:26.405Z</time></trkpt><trkpt lat="31.58812" lon="-9.081865"><ele>377.0</ele><time>2026-04-25T17:31:27.405Z</time></trkpt><trkpt lat="31.588155" lon="-9.082145"><ele>377.0</ele><time>2026-04-25T17:31:28.406Z</time></trkpt><trkpt lat="31.5881917" lon="-9.0824283"><ele>377.0</ele><time>2026-04-25T17:31:29.405Z</time></trkpt><trkpt lat="31.5882317" lon="-9.0827133"><ele>377.0</ele><time>2026-04-25T17:31:30.405Z</time></trkpt><trkpt lat="31.5882683" lon="-9.0830017"><ele>376.0</ele><time>2026-04-25T17:31:31.405Z</time></trkpt><trkpt lat="31.588305" lon="-9.083285"><ele>375.0</ele><time>2026-04-25T17:31:32.405Z</time></trkpt><trkpt lat="31.588335" lon="-9.0835767"><ele>375.0</ele><time>2026-04-25T17:31:33.405Z</time></trkpt><trkpt lat="31.5883633" lon="-9.0838717"><ele>375.0</ele><time>2026-04-25T17:31:34.405Z</time></trkpt><trkpt lat="31.588395" lon="-9.084155"><ele>375.0</ele><time>2026-04-25T17:31:35.405Z</time></trkpt><trkpt lat="31.5884283" lon="-9.084435"><ele>375.0</ele><time>2026-04-25T17:31:36.405Z</time></trkpt><trkpt lat="31.588465" lon="-9.0847117"><ele>374.5</ele><time>2026-04-25T17:31:37.405Z</time></trkpt><trkpt lat="31.588505" lon="-9.0849917"><ele>374.0</ele><time>2026-04-25T17:31:38.405Z</time></trkpt><trkpt lat="31.5885417" lon="-9.0852717"><ele>374.0</ele><time>2026-04-25T17:31:39.405Z</time></trkpt><trkpt lat="31.5885783" lon="-9.0855567"><ele>374.0</ele><time>2026-04-25T17:31:40.405Z</time></trkpt><trkpt lat="31.588615" lon="-9.0858367"><ele>373.5</ele><time>2026-04-25T17:31:41.405Z</time></trkpt><trkpt lat="31.5886483" lon="-9.0861167"><ele>373.0</ele><time>2026-04-25T17:31:42.405Z</time></trkpt><trkpt lat="31.5886767" lon="-9.0863967"><ele>372.5</ele><time>2026-04-25T17:31:43.405Z</time></trkpt><trkpt lat="31.588705" lon="-9.0866717"><ele>372.0</ele><time>2026-04-25T17:31:44.406Z</time></trkpt><trkpt lat="31.588735" lon="-9.0869467"><ele>372.0</ele><time>2026-04-25T17:31:45.405Z</time></trkpt><trkpt lat="31.5887567" lon="-9.0872167"><ele>372.0</ele><time>2026-04-25T17:31:46.405Z</time></trkpt><trkpt lat="31.588785" lon="-9.08749"><ele>371.5</ele><time>2026-04-25T17:31:47.405Z</time></trkpt><trkpt lat="31.5888183" lon="-9.0877733"><ele>371.0</ele><time>2026-04-25T17:31:48.405Z</time></trkpt><trkpt lat="31.58885" lon="-9.0880583"><ele>371.0</ele><time>2026-04-25T17:31:49.405Z</time></trkpt><trkpt lat="31.5888783" lon="-9.0883417"><ele>371.0</ele><time>2026-04-25T17:31:50.405Z</time></trkpt><trkpt lat="31.5889083" lon="-9.0886367"><ele>371.0</ele><time>2026-04-25T17:31:51.405Z</time></trkpt><trkpt lat="31.5889367" lon="-9.0889333"><ele>371.0</ele><time>2026-04-25T17:31:52.405Z</time></trkpt><trkpt lat="31.5889683" lon="-9.089235"><ele>371.0</ele><time>2026-04-25T17:31:53.405Z</time></trkpt><trkpt lat="31.5890017" lon="-9.0895283"><ele>371.0</ele><time>2026-04-25T17:31:54.405Z</time></trkpt><trkpt lat="31.5890317" lon="-9.08983"><ele>370.0</ele><time>2026-04-25T17:31:55.405Z</time></trkpt><trkpt lat="31.5890583" lon="-9.0901383"><ele>369.0</ele><time>2026-04-25T17:31:56.405Z</time></trkpt><trkpt lat="31.58909" lon="-9.0904517"><ele>368.5</ele><time>2026-04-25T17:31:57.405Z</time></trkpt><trkpt lat="31.5891233" lon="-9.0907667"><ele>368.0</ele><time>2026-04-25T17:31:58.405Z</time></trkpt><trkpt lat="31.5891567" lon="-9.091085"><ele>368.0</ele><time>2026-04-25T17:31:59.405Z</time></trkpt><trkpt lat="31.589185" lon="-9.0914067"><ele>368.0</ele><time>2026-04-25T17:32:00.405Z</time></trkpt><trkpt lat="31.5892183" lon="-9.0917217"><ele>368.5</ele><time>2026-04-25T17:32:01.405Z</time></trkpt><trkpt lat="31.5892467" lon="-9.092025"><ele>369.0</ele><time>2026-04-25T17:32:02.405Z</time></trkpt><trkpt lat="31.5892767" lon="-9.0923133"><ele>368.5</ele><time>2026-04-25T17:32:03.405Z</time></trkpt><trkpt lat="31.5893017" lon="-9.0925817"><ele>368.0</ele><time>2026-04-25T17:32:04.405Z</time></trkpt><trkpt lat="31.5893283" lon="-9.0928467"><ele>368.0</ele><time>2026-04-25T17:32:05.405Z</time></trkpt><trkpt lat="31.5893533" lon="-9.093115"><ele>368.0</ele><time>2026-04-25T17:32:06.405Z</time></trkpt><trkpt lat="31.589375" lon="-9.0933733"><ele>367.6666666666667</ele><time>2026-04-25T17:32:07.405Z</time></trkpt><trkpt lat="31.5894017" lon="-9.0936333"><ele>367.3333333333333</ele><time>2026-04-25T17:32:08.405Z</time></trkpt><trkpt lat="31.589425" lon="-9.0938867"><ele>367.0</ele><time>2026-04-25T17:32:09.405Z</time></trkpt><trkpt lat="31.58945" lon="-9.0941433"><ele>367.0</ele><time>2026-04-25T17:32:10.405Z</time></trkpt><trkpt lat="31.5894783" lon="-9.0943967"><ele>367.0</ele><time>2026-04-25T17:32:11.405Z</time></trkpt><trkpt lat="31.5895067" lon="-9.094655"><ele>367.0</ele><time>2026-04-25T17:32:12.406Z</time></trkpt><trkpt lat="31.589535" lon="-9.0949083"><ele>367.0</ele><time>2026-04-25T17:32:13.405Z</time></trkpt><trkpt lat="31.5895583" lon="-9.095165"><ele>367.0</ele><time>2026-04-25T17:32:14.405Z</time></trkpt><trkpt lat="31.5895783" lon="-9.0954233"><ele>367.0</ele><time>2026-04-25T17:32:15.405Z</time></trkpt><trkpt lat="31.589605" lon="-9.0956783"><ele>366.66666666666663</ele><time>2026-04-25T17:32:16.405Z</time></trkpt><trkpt lat="31.589635" lon="-9.09594"><ele>366.3333333333333</ele><time>2026-04-25T17:32:17.405Z</time></trkpt><trkpt lat="31.5896683" lon="-9.0961967"><ele>366.0</ele><time>2026-04-25T17:32:18.405Z</time></trkpt><trkpt lat="31.5896967" lon="-9.096455"><ele>365.0</ele><time>2026-04-25T17:32:19.405Z</time></trkpt><trkpt lat="31.58973" lon="-9.0967167"><ele>364.0</ele><time>2026-04-25T17:32:20.405Z</time></trkpt><trkpt lat="31.589765" lon="-9.09698"><ele>364.0</ele><time>2026-04-25T17:32:21.405Z</time></trkpt><trkpt lat="31.5897933" lon="-9.0972517"><ele>364.0</ele><time>2026-04-25T17:32:22.405Z</time></trkpt><trkpt lat="31.5898183" lon="-9.0975233"><ele>364.0</ele><time>2026-04-25T17:32:23.405Z</time></trkpt><trkpt lat="31.5898467" lon="-9.0977983"><ele>364.0</ele><time>2026-04-25T17:32:24.405Z</time></trkpt><trkpt lat="31.5898817" lon="-9.0980767"><ele>364.0</ele><time>2026-04-25T17:32:25.405Z</time></trkpt><trkpt lat="31.58991" lon="-9.098365"><ele>364.0</ele><time>2026-04-25T17:32:26.405Z</time></trkpt><trkpt lat="31.5899383" lon="-9.09866"><ele>364.0</ele><time>2026-04-25T17:32:27.405Z</time></trkpt><trkpt lat="31.5899683" lon="-9.0989583"><ele>364.0</ele><time>2026-04-25T17:32:28.405Z</time></trkpt><trkpt lat="31.5899967" lon="-9.0992583"><ele>364.5</ele><time>2026-04-25T17:32:29.405Z</time></trkpt><trkpt lat="31.590025" lon="-9.099565"><ele>365.0</ele><time>2026-04-25T17:32:30.406Z</time></trkpt><trkpt lat="31.5900483" lon="-9.0998733"><ele>365.5</ele><time>2026-04-25T17:32:31.405Z</time></trkpt><trkpt lat="31.59008" lon="-9.1001783"><ele>366.0</ele><time>2026-04-25T17:32:32.405Z</time></trkpt><trkpt lat="31.590105" lon="-9.1004883"><ele>366.5</ele><time>2026-04-25T17:32:33.405Z</time></trkpt><trkpt lat="31.5901333" lon="-9.1007967"><ele>367.0</ele><time>2026-04-25T17:32:34.405Z</time></trkpt><trkpt lat="31.5901633" lon="-9.1011017"><ele>367.0</ele><time>2026-04-25T17:32:35.405Z</time></trkpt><trkpt lat="31.5901933" lon="-9.10141"><ele>367.0</ele><time>2026-04-25T17:32:36.405Z</time></trkpt><trkpt lat="31.590225" lon="-9.10172"><ele>367.5</ele><time>2026-04-25T17:32:37.405Z</time></trkpt><trkpt lat="31.5902567" lon="-9.1020267"><ele>368.0</ele><time>2026-04-25T17:32:38.405Z</time></trkpt><trkpt lat="31.5902917" lon="-9.10233"><ele>367.0</ele><time>2026-04-25T17:32:39.405Z</time></trkpt><trkpt lat="31.5903267" lon="-9.1026333"><ele>366.0</ele><time>2026-04-25T17:32:40.405Z</time></trkpt><trkpt lat="31.5903617" lon="-9.1029283"><ele>366.0</ele><time>2026-04-25T17:32:41.405Z</time></trkpt><trkpt lat="31.5903917" lon="-9.1032233"><ele>366.0</ele><time>2026-04-25T17:32:42.405Z</time></trkpt><trkpt lat="31.5904217" lon="-9.1035133"><ele>366.0</ele><time>2026-04-25T17:32:43.405Z</time></trkpt><trkpt lat="31.59045" lon="-9.1038033"><ele>366.0</ele><time>2026-04-25T17:32:44.405Z</time></trkpt><trkpt lat="31.59048" lon="-9.1040933"><ele>365.5</ele><time>2026-04-25T17:32:45.405Z</time></trkpt><trkpt lat="31.59051" lon="-9.1043867"><ele>365.0</ele><time>2026-04-25T17:32:46.405Z</time></trkpt><trkpt lat="31.5905417" lon="-9.10468"><ele>365.0</ele><time>2026-04-25T17:32:47.405Z</time></trkpt><trkpt lat="31.5905683" lon="-9.104975"><ele>365.0</ele><time>2026-04-25T17:32:48.405Z</time></trkpt><trkpt lat="31.590595" lon="-9.10527"><ele>365.0</ele><time>2026-04-25T17:32:49.406Z</time></trkpt><trkpt lat="31.5906283" lon="-9.105565"><ele>365.0</ele><time>2026-04-25T17:32:50.405Z</time></trkpt><trkpt lat="31.590655" lon="-9.1058633"><ele>365.0</ele><time>2026-04-25T17:32:51.405Z</time></trkpt><trkpt lat="31.5906833" lon="-9.1061667"><ele>365.0</ele><time>2026-04-25T17:32:52.405Z</time></trkpt><trkpt lat="31.5907167" lon="-9.1064683"><ele>366.0</ele><time>2026-04-25T17:32:53.405Z</time></trkpt><trkpt lat="31.59075" lon="-9.10677"><ele>367.0</ele><time>2026-04-25T17:32:54.405Z</time></trkpt><trkpt lat="31.59078" lon="-9.1070733"><ele>367.0</ele><time>2026-04-25T17:32:55.405Z</time></trkpt><trkpt lat="31.5908083" lon="-9.1073767"><ele>367.0</ele><time>2026-04-25T17:32:56.405Z</time></trkpt><trkpt lat="31.5908417" lon="-9.1076783"><ele>367.5</ele><time>2026-04-25T17:32:57.405Z</time></trkpt><trkpt lat="31.590885" lon="-9.1079767"><ele>368.0</ele><time>2026-04-25T17:32:58.405Z</time></trkpt><trkpt lat="31.590925" lon="-9.10828"><ele>368.0</ele><time>2026-04-25T17:32:59.405Z</time></trkpt><trkpt lat="31.590965" lon="-9.1085817"><ele>368.0</ele><time>2026-04-25T17:33:00.405Z</time></trkpt><trkpt lat="31.5910067" lon="-9.1088817"><ele>367.5</ele><time>2026-04-25T17:33:01.405Z</time></trkpt><trkpt lat="31.5910433" lon="-9.109185"><ele>367.0</ele><time>2026-04-25T17:33:02.405Z</time></trkpt><trkpt lat="31.5910817" lon="-9.1094917"><ele>367.0</ele><time>2026-04-25T17:33:03.405Z</time></trkpt><trkpt lat="31.5911133" lon="-9.1097983"><ele>367.0</ele><time>2026-04-25T17:33:04.405Z</time></trkpt><trkpt lat="31.5911417" lon="-9.1101067"><ele>367.0</ele><time>2026-04-25T17:33:05.405Z</time></trkpt><trkpt lat="31.5911717" lon="-9.1104217"><ele>367.0</ele><time>2026-04-25T17:33:06.405Z</time></trkpt><trkpt lat="31.5912017" lon="-9.1107333"><ele>367.5</ele><time>2026-04-25T17:33:07.405Z</time></trkpt><trkpt lat="31.59123" lon="-9.1110433"><ele>368.0</ele><time>2026-04-25T17:33:08.405Z</time></trkpt><trkpt lat="31.59126" lon="-9.1113517"><ele>368.5</ele><time>2026-04-25T17:33:09.405Z</time></trkpt><trkpt lat="31.5912917" lon="-9.111665"><ele>369.0</ele><time>2026-04-25T17:33:10.405Z</time></trkpt><trkpt lat="31.5913233" lon="-9.111975"><ele>369.0</ele><time>2026-04-25T17:33:11.405Z</time></trkpt><trkpt lat="31.5913533" lon="-9.1122883"><ele>369.0</ele><time>2026-04-25T17:33:12.405Z</time></trkpt><trkpt lat="31.5913833" lon="-9.1125983"><ele>368.5</ele><time>2026-04-25T17:33:13.405Z</time></trkpt><trkpt lat="31.59142" lon="-9.112905"><ele>368.0</ele><time>2026-04-25T17:33:14.405Z</time></trkpt><trkpt lat="31.5914517" lon="-9.1132017"><ele>369.0</ele><time>2026-04-25T17:33:15.405Z</time></trkpt><trkpt lat="31.591485" lon="-9.11349"><ele>370.0</ele><time>2026-04-25T17:33:16.405Z</time></trkpt><trkpt lat="31.5915117" lon="-9.1137733"><ele>370.0</ele><time>2026-04-25T17:33:17.405Z</time></trkpt><trkpt lat="31.5915383" lon="-9.1140517"><ele>370.0</ele><time>2026-04-25T17:33:18.405Z</time></trkpt><trkpt lat="31.591565" lon="-9.1143317"><ele>370.5</ele><time>2026-04-25T17:33:19.406Z</time></trkpt><trkpt lat="31.5915917" lon="-9.11461"><ele>371.0</ele><time>2026-04-25T17:33:20.405Z</time></trkpt><trkpt lat="31.59162" lon="-9.1148867"><ele>371.0</ele><time>2026-04-25T17:33:21.405Z</time></trkpt><trkpt lat="31.5916517" lon="-9.1151583"><ele>371.0</ele><time>2026-04-25T17:33:22.405Z</time></trkpt><trkpt lat="31.5916767" lon="-9.1154317"><ele>371.0</ele><time>2026-04-25T17:33:23.405Z</time></trkpt><trkpt lat="31.5917067" lon="-9.1157017"><ele>371.0</ele><time>2026-04-25T17:33:24.405Z</time></trkpt><trkpt lat="31.5917367" lon="-9.1159767"><ele>371.0</ele><time>2026-04-25T17:33:25.405Z</time></trkpt><trkpt lat="31.5917617" lon="-9.1162583"><ele>371.0</ele><time>2026-04-25T17:33:26.405Z</time></trkpt><trkpt lat="31.5917883" lon="-9.1165383"><ele>370.0</ele><time>2026-04-25T17:33:27.405Z</time></trkpt><trkpt lat="31.5918083" lon="-9.11683"><ele>369.0</ele><time>2026-04-25T17:33:28.405Z</time></trkpt><trkpt lat="31.591825" lon="-9.1171217"><ele>370.0</ele><time>2026-04-25T17:33:29.405Z</time></trkpt><trkpt lat="31.5918483" lon="-9.117415"><ele>371.0</ele><time>2026-04-25T17:33:30.405Z</time></trkpt><trkpt lat="31.5918733" lon="-9.1177083"><ele>371.0</ele><time>2026-04-25T17:33:31.405Z</time></trkpt><trkpt lat="31.591905" lon="-9.118005"><ele>371.0</ele><time>2026-04-25T17:33:32.406Z</time></trkpt><trkpt lat="31.59194" lon="-9.1183033"><ele>369.5</ele><time>2026-04-25T17:33:33.405Z</time></trkpt><trkpt lat="31.5919667" lon="-9.1186083"><ele>368.0</ele><time>2026-04-25T17:33:34.405Z</time></trkpt><trkpt lat="31.5919967" lon="-9.1189183"><ele>368.5</ele><time>2026-04-25T17:33:35.405Z</time></trkpt><trkpt lat="31.59203" lon="-9.1192317"><ele>369.0</ele><time>2026-04-25T17:33:36.405Z</time></trkpt><trkpt lat="31.59207" lon="-9.1195383"><ele>369.0</ele><time>2026-04-25T17:33:37.405Z</time></trkpt><trkpt lat="31.5921067" lon="-9.1198483"><ele>369.0</ele><time>2026-04-25T17:33:38.405Z</time></trkpt><trkpt lat="31.5921433" lon="-9.1201533"><ele>369.5</ele><time>2026-04-25T17:33:39.405Z</time></trkpt><trkpt lat="31.5921733" lon="-9.120465"><ele>370.0</ele><time>2026-04-25T17:33:40.405Z</time></trkpt><trkpt lat="31.5922033" lon="-9.1207767"><ele>370.0</ele><time>2026-04-25T17:33:41.405Z</time></trkpt><trkpt lat="31.5922333" lon="-9.1210817"><ele>370.0</ele><time>2026-04-25T17:33:42.405Z</time></trkpt><trkpt lat="31.592265" lon="-9.1213833"><ele>370.0</ele><time>2026-04-25T17:33:43.405Z</time></trkpt><trkpt lat="31.5922967" lon="-9.1216867"><ele>370.0</ele><time>2026-04-25T17:33:44.406Z</time></trkpt><trkpt lat="31.5923267" lon="-9.121985"><ele>370.0</ele><time>2026-04-25T17:33:45.405Z</time></trkpt><trkpt lat="31.5923533" lon="-9.1222883"><ele>370.0</ele><time>2026-04-25T17:33:46.405Z</time></trkpt><trkpt lat="31.5923833" lon="-9.1225933"><ele>369.5</ele><time>2026-04-25T17:33:47.405Z</time></trkpt><trkpt lat="31.5924133" lon="-9.1229"><ele>369.0</ele><time>2026-04-25T17:33:48.405Z</time></trkpt><trkpt lat="31.5924467" lon="-9.1232033"><ele>370.0</ele><time>2026-04-25T17:33:49.405Z</time></trkpt><trkpt lat="31.5924833" lon="-9.1235083"><ele>371.0</ele><time>2026-04-25T17:33:50.405Z</time></trkpt><trkpt lat="31.5925183" lon="-9.1238183"><ele>369.5</ele><time>2026-04-25T17:33:51.405Z</time></trkpt><trkpt lat="31.5925483" lon="-9.1241283"><ele>368.0</ele><time>2026-04-25T17:33:52.405Z</time></trkpt><trkpt lat="31.5925783" lon="-9.1244417"><ele>368.0</ele><time>2026-04-25T17:33:53.405Z</time></trkpt><trkpt lat="31.59261" lon="-9.12476"><ele>368.0</ele><time>2026-04-25T17:33:54.406Z</time></trkpt><trkpt lat="31.5926383" lon="-9.125075"><ele>369.5</ele><time>2026-04-25T17:33:55.405Z</time></trkpt><trkpt lat="31.5926667" lon="-9.1253917"><ele>371.0</ele><time>2026-04-25T17:33:56.405Z</time></trkpt><trkpt lat="31.5926983" lon="-9.1257083"><ele>370.5</ele><time>2026-04-25T17:33:57.405Z</time></trkpt><trkpt lat="31.5927317" lon="-9.126025"><ele>370.0</ele><time>2026-04-25T17:33:58.405Z</time></trkpt><trkpt lat="31.5927633" lon="-9.126345"><ele>370.0</ele><time>2026-04-25T17:33:59.405Z</time></trkpt><trkpt lat="31.592795" lon="-9.1266683"><ele>370.0</ele><time>2026-04-25T17:34:00.405Z</time></trkpt><trkpt lat="31.5928283" lon="-9.12699"><ele>370.5</ele><time>2026-04-25T17:34:01.405Z</time></trkpt><trkpt lat="31.5928633" lon="-9.12731"><ele>371.0</ele><time>2026-04-25T17:34:02.405Z</time></trkpt><trkpt lat="31.5929" lon="-9.1276333"><ele>371.0</ele><time>2026-04-25T17:34:03.405Z</time></trkpt><trkpt lat="31.59294" lon="-9.1279533"><ele>371.0</ele><time>2026-04-25T17:34:04.406Z</time></trkpt><trkpt lat="31.5929783" lon="-9.1282733"><ele>371.5</ele><time>2026-04-25T17:34:05.405Z</time></trkpt><trkpt lat="31.5930133" lon="-9.1285933"><ele>372.0</ele><time>2026-04-25T17:34:06.405Z</time></trkpt><trkpt lat="31.5930417" lon="-9.1289183"><ele>372.5</ele><time>2026-04-25T17:34:07.405Z</time></trkpt><trkpt lat="31.59307" lon="-9.12924"><ele>373.0</ele><time>2026-04-25T17:34:08.405Z</time></trkpt><trkpt lat="31.5930983" lon="-9.1295683"><ele>371.5</ele><time>2026-04-25T17:34:09.405Z</time></trkpt><trkpt lat="31.5931317" lon="-9.1298933"><ele>370.0</ele><time>2026-04-25T17:34:10.405Z</time></trkpt><trkpt lat="31.5931667" lon="-9.130225"><ele>370.0</ele><time>2026-04-25T17:34:11.405Z</time></trkpt><trkpt lat="31.593195" lon="-9.1305517"><ele>370.0</ele><time>2026-04-25T17:34:12.405Z</time></trkpt><trkpt lat="31.5932283" lon="-9.13088"><ele>369.0</ele><time>2026-04-25T17:34:13.405Z</time></trkpt><trkpt lat="31.5932583" lon="-9.1312017"><ele>368.0</ele><time>2026-04-25T17:34:14.405Z</time></trkpt><trkpt lat="31.5932933" lon="-9.1315267"><ele>369.5</ele><time>2026-04-25T17:34:15.405Z</time></trkpt><trkpt lat="31.5933217" lon="-9.1318533"><ele>371.0</ele><time>2026-04-25T17:34:16.405Z</time></trkpt><trkpt lat="31.5933567" lon="-9.13218"><ele>370.5</ele><time>2026-04-25T17:34:17.406Z</time></trkpt><trkpt lat="31.59339" lon="-9.1325033"><ele>370.0</ele><time>2026-04-25T17:34:18.406Z</time></trkpt><trkpt lat="31.593425" lon="-9.1328317"><ele>370.0</ele><time>2026-04-25T17:34:19.405Z</time></trkpt><trkpt lat="31.593455" lon="-9.1331567"><ele>370.0</ele><time>2026-04-25T17:34:20.405Z</time></trkpt><trkpt lat="31.5934867" lon="-9.133485"><ele>370.0</ele><time>2026-04-25T17:34:21.405Z</time></trkpt><trkpt lat="31.5935183" lon="-9.1338133"><ele>370.0</ele><time>2026-04-25T17:34:22.405Z</time></trkpt><trkpt lat="31.5935533" lon="-9.134145"><ele>370.0</ele><time>2026-04-25T17:34:23.405Z</time></trkpt><trkpt lat="31.59359" lon="-9.1344717"><ele>370.0</ele><time>2026-04-25T17:34:24.405Z</time></trkpt><trkpt lat="31.59362" lon="-9.134795"><ele>370.0</ele><time>2026-04-25T17:34:25.405Z</time></trkpt><trkpt lat="31.5936483" lon="-9.1351117"><ele>370.0</ele><time>2026-04-25T17:34:26.405Z</time></trkpt><trkpt lat="31.5936833" lon="-9.1354217"><ele>370.0</ele><time>2026-04-25T17:34:27.405Z</time></trkpt><trkpt lat="31.5937183" lon="-9.1357317"><ele>370.0</ele><time>2026-04-25T17:34:28.405Z</time></trkpt><trkpt lat="31.5937467" lon="-9.1360383"><ele>370.0</ele><time>2026-04-25T17:34:29.405Z</time></trkpt><trkpt lat="31.5937767" lon="-9.1363483"><ele>370.0</ele><time>2026-04-25T17:34:30.405Z</time></trkpt><trkpt lat="31.593805" lon="-9.1366583"><ele>368.5</ele><time>2026-04-25T17:34:31.405Z</time></trkpt><trkpt lat="31.5938333" lon="-9.13697"><ele>367.0</ele><time>2026-04-25T17:34:32.405Z</time></trkpt><trkpt lat="31.5938633" lon="-9.13728"><ele>367.5</ele><time>2026-04-25T17:34:33.405Z</time></trkpt><trkpt lat="31.593895" lon="-9.1375933"><ele>368.0</ele><time>2026-04-25T17:34:34.405Z</time></trkpt><trkpt lat="31.5939267" lon="-9.1379067"><ele>368.0</ele><time>2026-04-25T17:34:35.405Z</time></trkpt><trkpt lat="31.5939583" lon="-9.1382167"><ele>368.0</ele><time>2026-04-25T17:34:36.405Z</time></trkpt><trkpt lat="31.5939933" lon="-9.1385267"><ele>368.0</ele><time>2026-04-25T17:34:37.405Z</time></trkpt><trkpt lat="31.5940233" lon="-9.1388433"><ele>368.0</ele><time>2026-04-25T17:34:38.405Z</time></trkpt><trkpt lat="31.59406" lon="-9.1391583"><ele>368.0</ele><time>2026-04-25T17:34:39.405Z</time></trkpt><trkpt lat="31.5940917" lon="-9.139475"><ele>368.0</ele><time>2026-04-25T17:34:40.405Z</time></trkpt><trkpt lat="31.5941217" lon="-9.1397883"><ele>369.5</ele><time>2026-04-25T17:34:41.405Z</time></trkpt><trkpt lat="31.594155" lon="-9.140085"><ele>371.0</ele><time>2026-04-25T17:34:42.405Z</time></trkpt><trkpt lat="31.5941883" lon="-9.1403767"><ele>371.0</ele><time>2026-04-25T17:34:43.406Z</time></trkpt><trkpt lat="31.5942183" lon="-9.1406717"><ele>371.0</ele><time>2026-04-25T17:34:44.405Z</time></trkpt><trkpt lat="31.5942483" lon="-9.1409617"><ele>370.0</ele><time>2026-04-25T17:34:45.405Z</time></trkpt><trkpt lat="31.5942783" lon="-9.1412483"><ele>369.0</ele><time>2026-04-25T17:34:46.405Z</time></trkpt><trkpt lat="31.5943117" lon="-9.1415283"><ele>370.0</ele><time>2026-04-25T17:34:47.405Z</time></trkpt><trkpt lat="31.5943383" lon="-9.1418083"><ele>371.0</ele><time>2026-04-25T17:34:48.405Z</time></trkpt><trkpt lat="31.5943633" lon="-9.1420933"><ele>371.0</ele><time>2026-04-25T17:34:49.405Z</time></trkpt><trkpt lat="31.59439" lon="-9.1423767"><ele>371.0</ele><time>2026-04-25T17:34:50.405Z</time></trkpt><trkpt lat="31.5944167" lon="-9.1426633"><ele>369.0</ele><time>2026-04-25T17:34:51.405Z</time></trkpt><trkpt lat="31.5944433" lon="-9.1429433"><ele>367.0</ele><time>2026-04-25T17:34:52.405Z</time></trkpt><trkpt lat="31.594475" lon="-9.143225"><ele>366.5</ele><time>2026-04-25T17:34:53.406Z</time></trkpt><trkpt lat="31.594505" lon="-9.1435033"><ele>366.0</ele><time>2026-04-25T17:34:54.405Z</time></trkpt><trkpt lat="31.5945417" lon="-9.1437833"><ele>365.5</ele><time>2026-04-25T17:34:55.405Z</time></trkpt><trkpt lat="31.5945817" lon="-9.1440633"><ele>365.0</ele><time>2026-04-25T17:34:56.405Z</time></trkpt><trkpt lat="31.59464" lon="-9.14434"><ele>365.0</ele><time>2026-04-25T17:34:57.405Z</time></trkpt><trkpt lat="31.5946983" lon="-9.1446167"><ele>365.0</ele><time>2026-04-25T17:34:58.405Z</time></trkpt><trkpt lat="31.59477" lon="-9.1449067"><ele>363.5</ele><time>2026-04-25T17:34:59.405Z</time></trkpt><trkpt lat="31.594855" lon="-9.1451983"><ele>362.0</ele><time>2026-04-25T17:35:00.405Z</time></trkpt><trkpt lat="31.5949483" lon="-9.1454867"><ele>362.5</ele><time>2026-04-25T17:35:01.405Z</time></trkpt><trkpt lat="31.5950483" lon="-9.1457767"><ele>363.0</ele><time>2026-04-25T17:35:02.405Z</time></trkpt><trkpt lat="31.59515" lon="-9.1460733"><ele>363.0</ele><time>2026-04-25T17:35:03.405Z</time></trkpt><trkpt lat="31.595255" lon="-9.1463783"><ele>363.0</ele><time>2026-04-25T17:35:04.405Z</time></trkpt><trkpt lat="31.5953567" lon="-9.1466817"><ele>361.0</ele><time>2026-04-25T17:35:05.405Z</time></trkpt><trkpt lat="31.5954583" lon="-9.146985"><ele>359.0</ele><time>2026-04-25T17:35:06.405Z</time></trkpt><trkpt lat="31.59556" lon="-9.1472933"><ele>359.5</ele><time>2026-04-25T17:35:07.405Z</time></trkpt><trkpt lat="31.5956617" lon="-9.1475967"><ele>360.0</ele><time>2026-04-25T17:35:08.406Z</time></trkpt><trkpt lat="31.5957633" lon="-9.1479067"><ele>361.0</ele><time>2026-04-25T17:35:09.405Z</time></trkpt><trkpt lat="31.5958617" lon="-9.1482183"><ele>362.0</ele><time>2026-04-25T17:35:10.405Z</time></trkpt><trkpt lat="31.5959467" lon="-9.1485267"><ele>362.0</ele><time>2026-04-25T17:35:11.405Z</time></trkpt><trkpt lat="31.5960183" lon="-9.148825"><ele>362.0</ele><time>2026-04-25T17:35:12.405Z</time></trkpt><trkpt lat="31.59608" lon="-9.149125"><ele>362.0</ele><time>2026-04-25T17:35:13.405Z</time></trkpt><trkpt lat="31.5961317" lon="-9.14942"><ele>362.0</ele><time>2026-04-25T17:35:14.405Z</time></trkpt><trkpt lat="31.5961717" lon="-9.1497167"><ele>363.0</ele><time>2026-04-25T17:35:15.405Z</time></trkpt><trkpt lat="31.5962033" lon="-9.1500133"><ele>364.0</ele><time>2026-04-25T17:35:16.405Z</time></trkpt><trkpt lat="31.5962233" lon="-9.1503167"><ele>364.0</ele><time>2026-04-25T17:35:17.405Z</time></trkpt><trkpt lat="31.5962333" lon="-9.1506233"><ele>364.0</ele><time>2026-04-25T17:35:18.405Z</time></trkpt><trkpt lat="31.596235" lon="-9.1509333"><ele>365.5</ele><time>2026-04-25T17:35:19.405Z</time></trkpt><trkpt lat="31.596225" lon="-9.151245"><ele>367.0</ele><time>2026-04-25T17:35:20.405Z</time></trkpt><trkpt lat="31.5962067" lon="-9.15156"><ele>367.5</ele><time>2026-04-25T17:35:21.405Z</time></trkpt><trkpt lat="31.596175" lon="-9.1518767"><ele>368.0</ele><time>2026-04-25T17:35:22.405Z</time></trkpt><trkpt lat="31.59613" lon="-9.1521933"><ele>368.5</ele><time>2026-04-25T17:35:23.405Z</time></trkpt><trkpt lat="31.5960717" lon="-9.1525083"><ele>369.0</ele><time>2026-04-25T17:35:24.405Z</time></trkpt><trkpt lat="31.5960017" lon="-9.1528267"><ele>369.0</ele><time>2026-04-25T17:35:25.405Z</time></trkpt><trkpt lat="31.595935" lon="-9.1531483"><ele>369.0</ele><time>2026-04-25T17:35:26.405Z</time></trkpt><trkpt lat="31.5958667" lon="-9.1534733"><ele>369.5</ele><time>2026-04-25T17:35:27.405Z</time></trkpt><trkpt lat="31.5958033" lon="-9.1538067"><ele>370.0</ele><time>2026-04-25T17:35:28.405Z</time></trkpt><trkpt lat="31.5957433" lon="-9.1541383"><ele>368.5</ele><time>2026-04-25T17:35:29.405Z</time></trkpt><trkpt lat="31.5956917" lon="-9.1544617"><ele>367.0</ele><time>2026-04-25T17:35:30.405Z</time></trkpt><trkpt lat="31.5956383" lon="-9.154775"><ele>367.0</ele><time>2026-04-25T17:35:31.405Z</time></trkpt><trkpt lat="31.5955883" lon="-9.1550933"><ele>367.0</ele><time>2026-04-25T17:35:32.405Z</time></trkpt><trkpt lat="31.5955483" lon="-9.1554167"><ele>368.0</ele><time>2026-04-25T17:35:33.405Z</time></trkpt><trkpt lat="31.5955067" lon="-9.1557417"><ele>369.0</ele><time>2026-04-25T17:35:34.405Z</time></trkpt><trkpt lat="31.59546" lon="-9.1560533"><ele>369.0</ele><time>2026-04-25T17:35:35.405Z</time></trkpt><trkpt lat="31.5954167" lon="-9.15636"><ele>369.0</ele><time>2026-04-25T17:35:36.405Z</time></trkpt><trkpt lat="31.595375" lon="-9.156655"><ele>368.5</ele><time>2026-04-25T17:35:37.406Z</time></trkpt><trkpt lat="31.5953317" lon="-9.1569517"><ele>368.0</ele><time>2026-04-25T17:35:38.405Z</time></trkpt><trkpt lat="31.5952883" lon="-9.1572433"><ele>369.5</ele><time>2026-04-25T17:35:39.405Z</time></trkpt><trkpt lat="31.5952433" lon="-9.1575283"><ele>371.0</ele><time>2026-04-25T17:35:40.405Z</time></trkpt><trkpt lat="31.5952017" lon="-9.157815"><ele>371.0</ele><time>2026-04-25T17:35:41.405Z</time></trkpt><trkpt lat="31.5951567" lon="-9.1580983"><ele>371.0</ele><time>2026-04-25T17:35:42.406Z</time></trkpt><trkpt lat="31.595115" lon="-9.15838"><ele>371.0</ele><time>2026-04-25T17:35:43.405Z</time></trkpt><trkpt lat="31.5950733" lon="-9.1586683"><ele>371.0</ele><time>2026-04-25T17:35:44.405Z</time></trkpt><trkpt lat="31.59503" lon="-9.1589517"><ele>369.5</ele><time>2026-04-25T17:35:45.405Z</time></trkpt><trkpt lat="31.594985" lon="-9.1592367"><ele>368.0</ele><time>2026-04-25T17:35:46.405Z</time></trkpt><trkpt lat="31.59494" lon="-9.1595233"><ele>368.0</ele><time>2026-04-25T17:35:47.405Z</time></trkpt><trkpt lat="31.5948917" lon="-9.159805"><ele>368.0</ele><time>2026-04-25T17:35:48.405Z</time></trkpt><trkpt lat="31.5948483" lon="-9.16009"><ele>368.5</ele><time>2026-04-25T17:35:49.405Z</time></trkpt><trkpt lat="31.5948017" lon="-9.1603717"><ele>369.0</ele><time>2026-04-25T17:35:50.405Z</time></trkpt><trkpt lat="31.594755" lon="-9.1606633"><ele>369.0</ele><time>2026-04-25T17:35:51.406Z</time></trkpt><trkpt lat="31.5947083" lon="-9.1609583"><ele>369.0</ele><time>2026-04-25T17:35:52.405Z</time></trkpt><trkpt lat="31.5946617" lon="-9.1612517"><ele>369.5</ele><time>2026-04-25T17:35:53.405Z</time></trkpt><trkpt lat="31.594615" lon="-9.1615533"><ele>370.0</ele><time>2026-04-25T17:35:54.405Z</time></trkpt><trkpt lat="31.5945767" lon="-9.16186"><ele>370.0</ele><time>2026-04-25T17:35:55.405Z</time></trkpt><trkpt lat="31.5945333" lon="-9.1621617"><ele>370.0</ele><time>2026-04-25T17:35:56.405Z</time></trkpt><trkpt lat="31.594485" lon="-9.1624667"><ele>369.5</ele><time>2026-04-25T17:35:57.405Z</time></trkpt><trkpt lat="31.5944367" lon="-9.162775"><ele>369.0</ele><time>2026-04-25T17:35:58.405Z</time></trkpt><trkpt lat="31.5943967" lon="-9.1630717"><ele>368.5</ele><time>2026-04-25T17:35:59.405Z</time></trkpt><trkpt lat="31.5943533" lon="-9.1633633"><ele>368.0</ele><time>2026-04-25T17:36:00.405Z</time></trkpt><trkpt lat="31.594305" lon="-9.1636567"><ele>368.0</ele><time>2026-04-25T17:36:01.405Z</time></trkpt><trkpt lat="31.5942583" lon="-9.163945"><ele>368.0</ele><time>2026-04-25T17:36:02.405Z</time></trkpt><trkpt lat="31.59421" lon="-9.16423"><ele>366.5</ele><time>2026-04-25T17:36:03.405Z</time></trkpt><trkpt lat="31.5941683" lon="-9.164515"><ele>365.0</ele><time>2026-04-25T17:36:04.405Z</time></trkpt><trkpt lat="31.5941267" lon="-9.1648"><ele>364.5</ele><time>2026-04-25T17:36:05.405Z</time></trkpt><trkpt lat="31.5940783" lon="-9.1650817"><ele>364.0</ele><time>2026-04-25T17:36:06.405Z</time></trkpt><trkpt lat="31.594035" lon="-9.1653683"><ele>364.0</ele><time>2026-04-25T17:36:07.405Z</time></trkpt><trkpt lat="31.59399" lon="-9.165655"><ele>364.0</ele><time>2026-04-25T17:36:08.405Z</time></trkpt><trkpt lat="31.59395" lon="-9.165945"><ele>363.0</ele><time>2026-04-25T17:36:09.405Z</time></trkpt><trkpt lat="31.5939083" lon="-9.16623"><ele>362.0</ele><time>2026-04-25T17:36:10.405Z</time></trkpt><trkpt lat="31.59386" lon="-9.166515"><ele>362.0</ele><time>2026-04-25T17:36:11.405Z</time></trkpt><trkpt lat="31.5938117" lon="-9.1668083"><ele>362.0</ele><time>2026-04-25T17:36:12.405Z</time></trkpt><trkpt lat="31.59377" lon="-9.167105"><ele>362.5</ele><time>2026-04-25T17:36:13.405Z</time></trkpt><trkpt lat="31.593725" lon="-9.1674033"><ele>363.0</ele><time>2026-04-25T17:36:14.405Z</time></trkpt><trkpt lat="31.59368" lon="-9.1677"><ele>363.5</ele><time>2026-04-25T17:36:15.405Z</time></trkpt><trkpt lat="31.593635" lon="-9.1679983"><ele>364.0</ele><time>2026-04-25T17:36:16.405Z</time></trkpt><trkpt lat="31.5935883" lon="-9.1682883"><ele>365.0</ele><time>2026-04-25T17:36:17.405Z</time></trkpt><trkpt lat="31.5935467" lon="-9.1685717"><ele>366.0</ele><time>2026-04-25T17:36:18.405Z</time></trkpt><trkpt lat="31.593505" lon="-9.1688483"><ele>365.5</ele><time>2026-04-25T17:36:19.405Z</time></trkpt><trkpt lat="31.593465" lon="-9.1691267"><ele>365.0</ele><time>2026-04-25T17:36:20.405Z</time></trkpt><trkpt lat="31.5934283" lon="-9.16941"><ele>365.0</ele><time>2026-04-25T17:36:21.405Z</time></trkpt><trkpt lat="31.5933867" lon="-9.1696933"><ele>365.0</ele><time>2026-04-25T17:36:22.405Z</time></trkpt><trkpt lat="31.5933467" lon="-9.1699833"><ele>365.5</ele><time>2026-04-25T17:36:23.405Z</time></trkpt><trkpt lat="31.5933067" lon="-9.170285"><ele>366.0</ele><time>2026-04-25T17:36:24.405Z</time></trkpt><trkpt lat="31.59326" lon="-9.170585"><ele>366.5</ele><time>2026-04-25T17:36:25.405Z</time></trkpt><trkpt lat="31.5932133" lon="-9.1708717"><ele>367.0</ele><time>2026-04-25T17:36:26.405Z</time></trkpt><trkpt lat="31.593165" lon="-9.171155"><ele>367.0</ele><time>2026-04-25T17:36:27.405Z</time></trkpt><trkpt lat="31.5931167" lon="-9.1714367"><ele>367.0</ele><time>2026-04-25T17:36:28.405Z</time></trkpt><trkpt lat="31.5930733" lon="-9.1717183"><ele>367.5</ele><time>2026-04-25T17:36:29.405Z</time></trkpt><trkpt lat="31.59303" lon="-9.1719933"><ele>368.0</ele><time>2026-04-25T17:36:30.405Z</time></trkpt><trkpt lat="31.592985" lon="-9.1722617"><ele>368.5</ele><time>2026-04-25T17:36:31.405Z</time></trkpt><trkpt lat="31.5929383" lon="-9.17253"><ele>369.0</ele><time>2026-04-25T17:36:32.405Z</time></trkpt><trkpt lat="31.5928967" lon="-9.172795"><ele>369.0</ele><time>2026-04-25T17:36:33.405Z</time></trkpt><trkpt lat="31.59286" lon="-9.1730533"><ele>369.0</ele><time>2026-04-25T17:36:34.405Z</time></trkpt><trkpt lat="31.5928183" lon="-9.1733167"><ele>369.0</ele><time>2026-04-25T17:36:35.405Z</time></trkpt><trkpt lat="31.5927817" lon="-9.1735783"><ele>369.0</ele><time>2026-04-25T17:36:36.405Z</time></trkpt><trkpt lat="31.5927383" lon="-9.173835"><ele>369.0</ele><time>2026-04-25T17:36:37.405Z</time></trkpt><trkpt lat="31.5926933" lon="-9.1740917"><ele>368.6666666666667</ele><time>2026-04-25T17:36:38.405Z</time></trkpt><trkpt lat="31.592655" lon="-9.174345"><ele>368.33333333333337</ele><time>2026-04-25T17:36:39.405Z</time></trkpt><trkpt lat="31.592615" lon="-9.1745883"><ele>368.0</ele><time>2026-04-25T17:36:40.405Z</time></trkpt><trkpt lat="31.59258" lon="-9.174835"><ele>369.0</ele><time>2026-04-25T17:36:41.405Z</time></trkpt><trkpt lat="31.592545" lon="-9.175085"><ele>370.0</ele><time>2026-04-25T17:36:42.405Z</time></trkpt><trkpt lat="31.5925083" lon="-9.175335"><ele>371.0</ele><time>2026-04-25T17:36:43.405Z</time></trkpt><trkpt lat="31.5924717" lon="-9.1755833"><ele>371.0</ele><time>2026-04-25T17:36:44.405Z</time></trkpt><trkpt lat="31.5924367" lon="-9.1758333"><ele>371.0</ele><time>2026-04-25T17:36:45.405Z</time></trkpt><trkpt lat="31.5923983" lon="-9.1760867"><ele>371.0</ele><time>2026-04-25T17:36:46.405Z</time></trkpt><trkpt lat="31.5923533" lon="-9.176345"><ele>370.33333333333337</ele><time>2026-04-25T17:36:47.405Z</time></trkpt><trkpt lat="31.5923117" lon="-9.1766033"><ele>369.6666666666667</ele><time>2026-04-25T17:36:48.405Z</time></trkpt><trkpt lat="31.5922717" lon="-9.1768633"><ele>369.0</ele><time>2026-04-25T17:36:49.405Z</time></trkpt><trkpt lat="31.592235" lon="-9.1771217"><ele>369.3333333333333</ele><time>2026-04-25T17:36:50.405Z</time></trkpt><trkpt lat="31.5921967" lon="-9.1773717"><ele>369.66666666666663</ele><time>2026-04-25T17:36:51.405Z</time></trkpt><trkpt lat="31.592155" lon="-9.1776217"><ele>370.0</ele><time>2026-04-25T17:36:52.405Z</time></trkpt><trkpt lat="31.5921133" lon="-9.177875"><ele>370.0</ele><time>2026-04-25T17:36:53.405Z</time></trkpt><trkpt lat="31.5920767" lon="-9.1781283"><ele>370.0</ele><time>2026-04-25T17:36:54.405Z</time></trkpt><trkpt lat="31.5920383" lon="-9.178385"><ele>370.0</ele><time>2026-04-25T17:36:55.405Z</time></trkpt><trkpt lat="31.592005" lon="-9.1786383"><ele>369.66666666666663</ele><time>2026-04-25T17:36:56.405Z</time></trkpt><trkpt lat="31.5919633" lon="-9.1788867"><ele>369.3333333333333</ele><time>2026-04-25T17:36:57.405Z</time></trkpt><trkpt lat="31.5919217" lon="-9.1791417"><ele>369.0</ele><time>2026-04-25T17:36:58.405Z</time></trkpt><trkpt lat="31.5918767" lon="-9.17939"><ele>369.0</ele><time>2026-04-25T17:36:59.405Z</time></trkpt><trkpt lat="31.5918383" lon="-9.17965"><ele>369.0</ele><time>2026-04-25T17:37:00.405Z</time></trkpt><trkpt lat="31.5917983" lon="-9.1799117"><ele>370.0</ele><time>2026-04-25T17:37:01.405Z</time></trkpt><trkpt lat="31.5917583" lon="-9.1801817"><ele>371.0</ele><time>2026-04-25T17:37:02.405Z</time></trkpt><trkpt lat="31.591715" lon="-9.18045"><ele>370.5</ele><time>2026-04-25T17:37:03.405Z</time></trkpt><trkpt lat="31.5916767" lon="-9.1807217"><ele>370.0</ele><time>2026-04-25T17:37:04.405Z</time></trkpt><trkpt lat="31.5916383" lon="-9.1809883"><ele>370.0</ele><time>2026-04-25T17:37:05.405Z</time></trkpt><trkpt lat="31.5916017" lon="-9.1812633"><ele>370.0</ele><time>2026-04-25T17:37:06.405Z</time></trkpt><trkpt lat="31.591565" lon="-9.18154"><ele>370.0</ele><time>2026-04-25T17:37:07.405Z</time></trkpt><trkpt lat="31.5915233" lon="-9.1818167"><ele>370.0</ele><time>2026-04-25T17:37:08.405Z</time></trkpt><trkpt lat="31.59148" lon="-9.18209"><ele>370.0</ele><time>2026-04-25T17:37:09.405Z</time></trkpt><trkpt lat="31.5914367" lon="-9.18237"><ele>370.0</ele><time>2026-04-25T17:37:10.405Z</time></trkpt><trkpt lat="31.591395" lon="-9.18265"><ele>370.0</ele><time>2026-04-25T17:37:11.405Z</time></trkpt><trkpt lat="31.5913533" lon="-9.1829333"><ele>370.0</ele><time>2026-04-25T17:37:12.405Z</time></trkpt><trkpt lat="31.5913117" lon="-9.18322"><ele>371.0</ele><time>2026-04-25T17:37:13.405Z</time></trkpt><trkpt lat="31.5912633" lon="-9.183505"><ele>372.0</ele><time>2026-04-25T17:37:14.405Z</time></trkpt><trkpt lat="31.59122" lon="-9.18379"><ele>372.5</ele><time>2026-04-25T17:37:15.405Z</time></trkpt><trkpt lat="31.591175" lon="-9.1840783"><ele>373.0</ele><time>2026-04-25T17:37:16.405Z</time></trkpt><trkpt lat="31.5911267" lon="-9.184365"><ele>373.0</ele><time>2026-04-25T17:37:17.405Z</time></trkpt><trkpt lat="31.5910817" lon="-9.1846533"><ele>373.0</ele><time>2026-04-25T17:37:18.405Z</time></trkpt><trkpt lat="31.59104" lon="-9.184945"><ele>373.0</ele><time>2026-04-25T17:37:19.405Z</time></trkpt><trkpt lat="31.591" lon="-9.1852367"><ele>373.0</ele><time>2026-04-25T17:37:20.405Z</time></trkpt><trkpt lat="31.5909533" lon="-9.18552"><ele>372.5</ele><time>2026-04-25T17:37:21.405Z</time></trkpt><trkpt lat="31.590905" lon="-9.185805"><ele>372.0</ele><time>2026-04-25T17:37:22.405Z</time></trkpt><trkpt lat="31.5908533" lon="-9.1860833"><ele>372.0</ele><time>2026-04-25T17:37:23.405Z</time></trkpt><trkpt lat="31.5908083" lon="-9.1863667"><ele>372.0</ele><time>2026-04-25T17:37:24.405Z</time></trkpt><trkpt lat="31.590765" lon="-9.1866433"><ele>373.0</ele><time>2026-04-25T17:37:25.405Z</time></trkpt><trkpt lat="31.5907233" lon="-9.1869133"><ele>374.0</ele><time>2026-04-25T17:37:26.405Z</time></trkpt><trkpt lat="31.5906833" lon="-9.18717"><ele>374.0</ele><time>2026-04-25T17:37:27.405Z</time></trkpt><trkpt lat="31.59065" lon="-9.187415"><ele>374.0</ele><time>2026-04-25T17:37:28.405Z</time></trkpt><trkpt lat="31.5906117" lon="-9.1876583"><ele>374.0</ele><time>2026-04-25T17:37:29.406Z</time></trkpt><trkpt lat="31.59057" lon="-9.1879033"><ele>374.0</ele><time>2026-04-25T17:37:30.405Z</time></trkpt><trkpt lat="31.5905317" lon="-9.188155"><ele>374.0</ele><time>2026-04-25T17:37:31.405Z</time></trkpt><trkpt lat="31.5904967" lon="-9.1884117"><ele>374.0</ele><time>2026-04-25T17:37:32.405Z</time></trkpt><trkpt lat="31.5904617" lon="-9.18867"><ele>374.0</ele><time>2026-04-25T17:37:33.405Z</time></trkpt><trkpt lat="31.590425" lon="-9.18893"><ele>374.0</ele><time>2026-04-25T17:37:34.405Z</time></trkpt><trkpt lat="31.5903883" lon="-9.1891967"><ele>374.5</ele><time>2026-04-25T17:37:35.405Z</time></trkpt><trkpt lat="31.59035" lon="-9.1894633"><ele>375.0</ele><time>2026-04-25T17:37:36.405Z</time></trkpt><trkpt lat="31.5903067" lon="-9.18973"><ele>377.0</ele><time>2026-04-25T17:37:37.405Z</time></trkpt><trkpt lat="31.590265" lon="-9.1899967"><ele>379.0</ele><time>2026-04-25T17:37:38.405Z</time></trkpt><trkpt lat="31.5902283" lon="-9.1902617"><ele>379.0</ele><time>2026-04-25T17:37:39.405Z</time></trkpt><trkpt lat="31.590195" lon="-9.1905233"><ele>379.0</ele><time>2026-04-25T17:37:40.405Z</time></trkpt><trkpt lat="31.5901617" lon="-9.1907833"><ele>379.0</ele><time>2026-04-25T17:37:41.405Z</time></trkpt><trkpt lat="31.5901333" lon="-9.191045"><ele>379.0</ele><time>2026-04-25T17:37:42.405Z</time></trkpt><trkpt lat="31.59011" lon="-9.191305"><ele>379.0</ele><time>2026-04-25T17:37:43.405Z</time></trkpt><trkpt lat="31.590085" lon="-9.1915683"><ele>379.0</ele><time>2026-04-25T17:37:44.405Z</time></trkpt><trkpt lat="31.590065" lon="-9.1918317"><ele>378.66666666666663</ele><time>2026-04-25T17:37:45.405Z</time></trkpt><trkpt lat="31.59005" lon="-9.19209"><ele>378.3333333333333</ele><time>2026-04-25T17:37:46.405Z</time></trkpt><trkpt lat="31.5900333" lon="-9.192345"><ele>378.0</ele><time>2026-04-25T17:37:47.405Z</time></trkpt><trkpt lat="31.5900217" lon="-9.1926"><ele>378.0</ele><time>2026-04-25T17:37:48.405Z</time></trkpt><trkpt lat="31.59001" lon="-9.1928567"><ele>378.0</ele><time>2026-04-25T17:37:49.405Z</time></trkpt><trkpt lat="31.589995" lon="-9.1931117"><ele>378.0</ele><time>2026-04-25T17:37:50.405Z</time></trkpt><trkpt lat="31.5899833" lon="-9.1933683"><ele>378.6666666666667</ele><time>2026-04-25T17:37:51.406Z</time></trkpt><trkpt lat="31.5899717" lon="-9.1936283"><ele>379.33333333333337</ele><time>2026-04-25T17:37:52.406Z</time></trkpt><trkpt lat="31.5899617" lon="-9.1938867"><ele>380.0</ele><time>2026-04-25T17:37:53.405Z</time></trkpt><trkpt lat="31.5899483" lon="-9.194145"><ele>380.0</ele><time>2026-04-25T17:37:54.405Z</time></trkpt><trkpt lat="31.589935" lon="-9.1944017"><ele>380.0</ele><time>2026-04-25T17:37:55.405Z</time></trkpt><trkpt lat="31.5899167" lon="-9.194655"><ele>380.0</ele><time>2026-04-25T17:37:56.405Z</time></trkpt><trkpt lat="31.5899" lon="-9.19491"><ele>380.0</ele><time>2026-04-25T17:37:57.405Z</time></trkpt><trkpt lat="31.5898833" lon="-9.1951617"><ele>380.0</ele><time>2026-04-25T17:37:58.405Z</time></trkpt><trkpt lat="31.5898683" lon="-9.1954167"><ele>380.0</ele><time>2026-04-25T17:37:59.405Z</time></trkpt><trkpt lat="31.589855" lon="-9.1956733"><ele>380.33333333333337</ele><time>2026-04-25T17:38:00.405Z</time></trkpt><trkpt lat="31.589845" lon="-9.1959233"><ele>380.6666666666667</ele><time>2026-04-25T17:38:01.405Z</time></trkpt><trkpt lat="31.5898317" lon="-9.1961767"><ele>381.0</ele><time>2026-04-25T17:38:02.405Z</time></trkpt><trkpt lat="31.5898133" lon="-9.1964317"><ele>381.3333333333333</ele><time>2026-04-25T17:38:03.405Z</time></trkpt><trkpt lat="31.5898017" lon="-9.19669"><ele>381.66666666666663</ele><time>2026-04-25T17:38:04.405Z</time></trkpt><trkpt lat="31.589785" lon="-9.1969433"><ele>382.0</ele><time>2026-04-25T17:38:05.405Z</time></trkpt><trkpt lat="31.5897667" lon="-9.1971983"><ele>382.3333333333333</ele><time>2026-04-25T17:38:06.405Z</time></trkpt><trkpt lat="31.5897533" lon="-9.1974567"><ele>382.6666666666667</ele><time>2026-04-25T17:38:07.405Z</time></trkpt><trkpt lat="31.5897383" lon="-9.1977167"><ele>383.0</ele><time>2026-04-25T17:38:08.405Z</time></trkpt><trkpt lat="31.589725" lon="-9.1979833"><ele>383.5</ele><time>2026-04-25T17:38:09.405Z</time></trkpt><trkpt lat="31.589715" lon="-9.19825"><ele>384.0</ele><time>2026-04-25T17:38:10.405Z</time></trkpt><trkpt lat="31.5897033" lon="-9.1985133"><ele>384.0</ele><time>2026-04-25T17:38:11.405Z</time></trkpt><trkpt lat="31.5896917" lon="-9.1987817"><ele>384.0</ele><time>2026-04-25T17:38:12.405Z</time></trkpt><trkpt lat="31.589675" lon="-9.1990483"><ele>384.0</ele><time>2026-04-25T17:38:13.405Z</time></trkpt><trkpt lat="31.58966" lon="-9.1993167"><ele>384.0</ele><time>2026-04-25T17:38:14.405Z</time></trkpt><trkpt lat="31.58964" lon="-9.1995867"><ele>385.5</ele><time>2026-04-25T17:38:15.406Z</time></trkpt><trkpt lat="31.5896183" lon="-9.19986"><ele>387.0</ele><time>2026-04-25T17:38:16.405Z</time></trkpt><trkpt lat="31.5895917" lon="-9.2001317"><ele>387.0</ele><time>2026-04-25T17:38:17.405Z</time></trkpt><trkpt lat="31.589565" lon="-9.2004033"><ele>387.0</ele><time>2026-04-25T17:38:18.405Z</time></trkpt><trkpt lat="31.5895383" lon="-9.2006717"><ele>387.5</ele><time>2026-04-25T17:38:19.405Z</time></trkpt><trkpt lat="31.5895117" lon="-9.2009383"><ele>388.0</ele><time>2026-04-25T17:38:20.406Z</time></trkpt><trkpt lat="31.5894867" lon="-9.201205"><ele>388.0</ele><time>2026-04-25T17:38:21.405Z</time></trkpt><trkpt lat="31.58946" lon="-9.20147"><ele>388.0</ele><time>2026-04-25T17:38:22.405Z</time></trkpt><trkpt lat="31.5894333" lon="-9.2017333"><ele>387.6666666666667</ele><time>2026-04-25T17:38:23.405Z</time></trkpt><trkpt lat="31.5894033" lon="-9.2019933"><ele>387.33333333333337</ele><time>2026-04-25T17:38:24.405Z</time></trkpt><trkpt lat="31.589375" lon="-9.202255"><ele>387.0</ele><time>2026-04-25T17:38:25.405Z</time></trkpt><trkpt lat="31.589355" lon="-9.202515"><ele>389.0</ele><time>2026-04-25T17:38:26.405Z</time></trkpt><trkpt lat="31.58933" lon="-9.2027767"><ele>391.0</ele><time>2026-04-25T17:38:27.405Z</time></trkpt><trkpt lat="31.5893067" lon="-9.2030417"><ele>390.33333333333337</ele><time>2026-04-25T17:38:28.405Z</time></trkpt><trkpt lat="31.5892833" lon="-9.2033017"><ele>389.66666666666663</ele><time>2026-04-25T17:38:29.405Z</time></trkpt><trkpt lat="31.5892567" lon="-9.20356"><ele>389.0</ele><time>2026-04-25T17:38:30.405Z</time></trkpt><trkpt lat="31.5892283" lon="-9.2038183"><ele>389.3333333333333</ele><time>2026-04-25T17:38:31.405Z</time></trkpt><trkpt lat="31.5891983" lon="-9.204075"><ele>389.66666666666663</ele><time>2026-04-25T17:38:32.405Z</time></trkpt><trkpt lat="31.5891733" lon="-9.20433"><ele>390.0</ele><time>2026-04-25T17:38:33.405Z</time></trkpt><trkpt lat="31.5891517" lon="-9.2045883"><ele>391.0</ele><time>2026-04-25T17:38:34.405Z</time></trkpt><trkpt lat="31.5891317" lon="-9.2048467"><ele>392.0</ele><time>2026-04-25T17:38:35.405Z</time></trkpt><trkpt lat="31.5891067" lon="-9.205105"><ele>393.0</ele><time>2026-04-25T17:38:36.405Z</time></trkpt><trkpt lat="31.5890883" lon="-9.2053617"><ele>393.0</ele><time>2026-04-25T17:38:37.405Z</time></trkpt><trkpt lat="31.5890717" lon="-9.2056217"><ele>393.0</ele><time>2026-04-25T17:38:38.405Z</time></trkpt><trkpt lat="31.5890583" lon="-9.2058767"><ele>393.0</ele><time>2026-04-25T17:38:39.405Z</time></trkpt><trkpt lat="31.58905" lon="-9.2061317"><ele>393.0</ele><time>2026-04-25T17:38:40.405Z</time></trkpt><trkpt lat="31.5890433" lon="-9.2063867"><ele>393.0</ele><time>2026-04-25T17:38:41.405Z</time></trkpt><trkpt lat="31.589045" lon="-9.206645"><ele>393.0</ele><time>2026-04-25T17:38:42.405Z</time></trkpt><trkpt lat="31.589055" lon="-9.2069"><ele>393.0</ele><time>2026-04-25T17:38:43.405Z</time></trkpt><trkpt lat="31.589075" lon="-9.2071567"><ele>393.0</ele><time>2026-04-25T17:38:44.405Z</time></trkpt><trkpt lat="31.5891083" lon="-9.2074083"><ele>393.0</ele><time>2026-04-25T17:38:45.405Z</time></trkpt><trkpt lat="31.58915" lon="-9.207665"><ele>393.0</ele><time>2026-04-25T17:38:46.405Z</time></trkpt><trkpt lat="31.5891917" lon="-9.2079217"><ele>393.0</ele><time>2026-04-25T17:38:47.405Z</time></trkpt><trkpt lat="31.589235" lon="-9.2081733"><ele>393.0</ele><time>2026-04-25T17:38:48.405Z</time></trkpt><trkpt lat="31.5892817" lon="-9.2084267"><ele>393.0</ele><time>2026-04-25T17:38:49.405Z</time></trkpt><trkpt lat="31.589325" lon="-9.2086783"><ele>393.0</ele><time>2026-04-25T17:38:50.405Z</time></trkpt><trkpt lat="31.5893733" lon="-9.20893"><ele>393.0</ele><time>2026-04-25T17:38:51.405Z</time></trkpt><trkpt lat="31.589425" lon="-9.209185"><ele>393.66666666666663</ele><time>2026-04-25T17:38:52.405Z</time></trkpt><trkpt lat="31.5894783" lon="-9.20944"><ele>394.3333333333333</ele><time>2026-04-25T17:38:53.405Z</time></trkpt><trkpt lat="31.589525" lon="-9.20969"><ele>395.0</ele><time>2026-04-25T17:38:54.405Z</time></trkpt><trkpt lat="31.5895733" lon="-9.2099433"><ele>395.3333333333333</ele><time>2026-04-25T17:38:55.405Z</time></trkpt><trkpt lat="31.5896217" lon="-9.2101917"><ele>395.66666666666663</ele><time>2026-04-25T17:38:56.405Z</time></trkpt><trkpt lat="31.589665" lon="-9.21044"><ele>396.0</ele><time>2026-04-25T17:38:57.405Z</time></trkpt><trkpt lat="31.5897117" lon="-9.2106867"><ele>396.33333333333337</ele><time>2026-04-25T17:38:58.405Z</time></trkpt><trkpt lat="31.5897633" lon="-9.2109333"><ele>396.6666666666667</ele><time>2026-04-25T17:38:59.405Z</time></trkpt><trkpt lat="31.58981" lon="-9.2111817"><ele>397.0</ele><time>2026-04-25T17:39:00.405Z</time></trkpt><trkpt lat="31.5898533" lon="-9.211435"><ele>398.0</ele><time>2026-04-25T17:39:01.405Z</time></trkpt><trkpt lat="31.5898983" lon="-9.2116783"><ele>399.0</ele><time>2026-04-25T17:39:02.405Z</time></trkpt><trkpt lat="31.58994" lon="-9.2119233"><ele>400.0</ele><time>2026-04-25T17:39:03.405Z</time></trkpt><trkpt lat="31.5899833" lon="-9.2121667"><ele>400.6666666666667</ele><time>2026-04-25T17:39:04.405Z</time></trkpt><trkpt lat="31.59003" lon="-9.2124083"><ele>401.33333333333337</ele><time>2026-04-25T17:39:05.405Z</time></trkpt><trkpt lat="31.5900783" lon="-9.212645"><ele>402.0</ele><time>2026-04-25T17:39:06.405Z</time></trkpt><trkpt lat="31.5901283" lon="-9.2128817"><ele>402.0</ele><time>2026-04-25T17:39:07.405Z</time></trkpt><trkpt lat="31.5901717" lon="-9.2131167"><ele>402.0</ele><time>2026-04-25T17:39:08.405Z</time></trkpt><trkpt lat="31.5902083" lon="-9.213345"><ele>402.0</ele><time>2026-04-25T17:39:09.405Z</time></trkpt><trkpt lat="31.59025" lon="-9.2135767"><ele>402.0</ele><time>2026-04-25T17:39:10.405Z</time></trkpt><trkpt lat="31.5902967" lon="-9.213815"><ele>402.0</ele><time>2026-04-25T17:39:11.405Z</time></trkpt><trkpt lat="31.590345" lon="-9.2140533"><ele>402.0</ele><time>2026-04-25T17:39:12.405Z</time></trkpt><trkpt lat="31.59039" lon="-9.214295"><ele>402.0</ele><time>2026-04-25T17:39:13.405Z</time></trkpt><trkpt lat="31.5904367" lon="-9.2145383"><ele>402.0</ele><time>2026-04-25T17:39:14.405Z</time></trkpt><trkpt lat="31.5904833" lon="-9.21478"><ele>402.0</ele><time>2026-04-25T17:39:15.405Z</time></trkpt><trkpt lat="31.59053" lon="-9.215025"><ele>402.33333333333337</ele><time>2026-04-25T17:39:16.405Z</time></trkpt><trkpt lat="31.590575" lon="-9.215275"><ele>402.6666666666667</ele><time>2026-04-25T17:39:17.405Z</time></trkpt><trkpt lat="31.590625" lon="-9.21552"><ele>403.0</ele><time>2026-04-25T17:39:18.405Z</time></trkpt><trkpt lat="31.5906717" lon="-9.2157667"><ele>403.6666666666667</ele><time>2026-04-25T17:39:19.405Z</time></trkpt><trkpt lat="31.5907233" lon="-9.2160117"><ele>404.33333333333337</ele><time>2026-04-25T17:39:20.405Z</time></trkpt><trkpt lat="31.5907733" lon="-9.216255"><ele>405.0</ele><time>2026-04-25T17:39:21.405Z</time></trkpt><trkpt lat="31.590825" lon="-9.216505"><ele>405.0</ele><time>2026-04-25T17:39:22.405Z</time></trkpt><trkpt lat="31.59087" lon="-9.2167517"><ele>405.0</ele><time>2026-04-25T17:39:23.405Z</time></trkpt><trkpt lat="31.59092" lon="-9.217"><ele>405.0</ele><time>2026-04-25T17:39:24.405Z</time></trkpt><trkpt lat="31.5909683" lon="-9.2172483"><ele>406.0</ele><time>2026-04-25T17:39:25.405Z</time></trkpt><trkpt lat="31.5910133" lon="-9.2175"><ele>407.0</ele><time>2026-04-25T17:39:26.405Z</time></trkpt><trkpt lat="31.59106" lon="-9.21775"><ele>408.0</ele><time>2026-04-25T17:39:27.405Z</time></trkpt><trkpt lat="31.5911083" lon="-9.218"><ele>409.0</ele><time>2026-04-25T17:39:28.406Z</time></trkpt><trkpt lat="31.59116" lon="-9.2182567"><ele>410.0</ele><time>2026-04-25T17:39:29.405Z</time></trkpt><trkpt lat="31.5912117" lon="-9.218515"><ele>410.0</ele><time>2026-04-25T17:39:30.405Z</time></trkpt><trkpt lat="31.59126" lon="-9.2187733"><ele>410.0</ele><time>2026-04-25T17:39:31.405Z</time></trkpt><trkpt lat="31.5913117" lon="-9.2190333"><ele>411.5</ele><time>2026-04-25T17:39:32.405Z</time></trkpt><trkpt lat="31.5913617" lon="-9.2192967"><ele>413.0</ele><time>2026-04-25T17:39:33.405Z</time></trkpt><trkpt lat="31.59141" lon="-9.21957"><ele>413.0</ele><time>2026-04-25T17:39:34.405Z</time></trkpt><trkpt lat="31.5914617" lon="-9.219845"><ele>413.0</ele><time>2026-04-25T17:39:35.405Z</time></trkpt><trkpt lat="31.5915083" lon="-9.220115"><ele>413.0</ele><time>2026-04-25T17:39:36.405Z</time></trkpt><trkpt lat="31.5915567" lon="-9.2203867"><ele>413.0</ele><time>2026-04-25T17:39:37.405Z</time></trkpt><trkpt lat="31.5916083" lon="-9.2206567"><ele>413.0</ele><time>2026-04-25T17:39:38.405Z</time></trkpt><trkpt lat="31.5916567" lon="-9.220925"><ele>413.0</ele><time>2026-04-25T17:39:39.405Z</time></trkpt><trkpt lat="31.59171" lon="-9.22119"><ele>413.0</ele><time>2026-04-25T17:39:40.405Z</time></trkpt><trkpt lat="31.5917617" lon="-9.2214583"><ele>413.0</ele><time>2026-04-25T17:39:41.405Z</time></trkpt><trkpt lat="31.591815" lon="-9.2217317"><ele>414.0</ele><time>2026-04-25T17:39:42.405Z</time></trkpt><trkpt lat="31.5918717" lon="-9.2220033"><ele>415.0</ele><time>2026-04-25T17:39:43.405Z</time></trkpt><trkpt lat="31.5919233" lon="-9.222275"><ele>416.0</ele><time>2026-04-25T17:39:44.406Z</time></trkpt><trkpt lat="31.5919767" lon="-9.22255"><ele>417.0</ele><time>2026-04-25T17:39:45.405Z</time></trkpt><trkpt lat="31.5920317" lon="-9.2228283"><ele>417.5</ele><time>2026-04-25T17:39:46.405Z</time></trkpt><trkpt lat="31.5920867" lon="-9.2231083"><ele>418.0</ele><time>2026-04-25T17:39:47.405Z</time></trkpt><trkpt lat="31.5921367" lon="-9.223385"><ele>418.5</ele><time>2026-04-25T17:39:48.405Z</time></trkpt><trkpt lat="31.592195" lon="-9.2236667"><ele>419.0</ele><time>2026-04-25T17:39:49.405Z</time></trkpt><trkpt lat="31.59225" lon="-9.2239467"><ele>418.0</ele><time>2026-04-25T17:39:50.405Z</time></trkpt><trkpt lat="31.5923033" lon="-9.2242283"><ele>417.0</ele><time>2026-04-25T17:39:51.405Z</time></trkpt><trkpt lat="31.5923583" lon="-9.22451"><ele>417.0</ele><time>2026-04-25T17:39:52.405Z</time></trkpt><trkpt lat="31.5924133" lon="-9.2247883"><ele>417.0</ele><time>2026-04-25T17:39:53.405Z</time></trkpt><trkpt lat="31.5924683" lon="-9.2250717"><ele>417.0</ele><time>2026-04-25T17:39:54.405Z</time></trkpt><trkpt lat="31.59252" lon="-9.22535"><ele>417.0</ele><time>2026-04-25T17:39:55.405Z</time></trkpt><trkpt lat="31.5925717" lon="-9.2256267"><ele>418.5</ele><time>2026-04-25T17:39:56.405Z</time></trkpt><trkpt lat="31.592625" lon="-9.225895"><ele>420.0</ele><time>2026-04-25T17:39:57.405Z</time></trkpt><trkpt lat="31.5926783" lon="-9.2261667"><ele>420.0</ele><time>2026-04-25T17:39:58.405Z</time></trkpt><trkpt lat="31.5927333" lon="-9.2264383"><ele>420.0</ele><time>2026-04-25T17:39:59.405Z</time></trkpt><trkpt lat="31.5927833" lon="-9.2267083"><ele>419.5</ele><time>2026-04-25T17:40:00.406Z</time></trkpt><trkpt lat="31.5928283" lon="-9.22698"><ele>419.0</ele><time>2026-04-25T17:40:01.405Z</time></trkpt><trkpt lat="31.5928767" lon="-9.2272517"><ele>418.0</ele><time>2026-04-25T17:40:02.406Z</time></trkpt><trkpt lat="31.5929317" lon="-9.2275233"><ele>417.0</ele><time>2026-04-25T17:40:03.405Z</time></trkpt><trkpt lat="31.59298" lon="-9.2277967"><ele>417.0</ele><time>2026-04-25T17:40:04.405Z</time></trkpt><trkpt lat="31.5930317" lon="-9.228065"><ele>417.0</ele><time>2026-04-25T17:40:05.405Z</time></trkpt><trkpt lat="31.593085" lon="-9.2283433"><ele>418.0</ele><time>2026-04-25T17:40:06.405Z</time></trkpt><trkpt lat="31.593135" lon="-9.228615"><ele>419.0</ele><time>2026-04-25T17:40:07.405Z</time></trkpt><trkpt lat="31.5931817" lon="-9.22889"><ele>420.0</ele><time>2026-04-25T17:40:08.405Z</time></trkpt><trkpt lat="31.5932267" lon="-9.22917"><ele>421.0</ele><time>2026-04-25T17:40:09.405Z</time></trkpt><trkpt lat="31.5932633" lon="-9.2294433"><ele>421.0</ele><time>2026-04-25T17:40:10.405Z</time></trkpt><trkpt lat="31.593295" lon="-9.2297233"><ele>421.0</ele><time>2026-04-25T17:40:11.405Z</time></trkpt><trkpt lat="31.5933167" lon="-9.2299967"><ele>422.5</ele><time>2026-04-25T17:40:12.405Z</time></trkpt><trkpt lat="31.5933367" lon="-9.2302783"><ele>424.0</ele><time>2026-04-25T17:40:13.405Z</time></trkpt><trkpt lat="31.5933533" lon="-9.2305567"><ele>424.0</ele><time>2026-04-25T17:40:14.405Z</time></trkpt><trkpt lat="31.5933633" lon="-9.2308417"><ele>424.0</ele><time>2026-04-25T17:40:15.405Z</time></trkpt><trkpt lat="31.5933667" lon="-9.231125"><ele>424.0</ele><time>2026-04-25T17:40:16.405Z</time></trkpt><trkpt lat="31.5933667" lon="-9.2314083"><ele>424.0</ele><time>2026-04-25T17:40:17.405Z</time></trkpt><trkpt lat="31.5933583" lon="-9.2316967"><ele>424.0</ele><time>2026-04-25T17:40:18.405Z</time></trkpt><trkpt lat="31.5933417" lon="-9.2319833"><ele>424.0</ele><time>2026-04-25T17:40:19.405Z</time></trkpt><trkpt lat="31.5933217" lon="-9.2322667"><ele>424.0</ele><time>2026-04-25T17:40:20.405Z</time></trkpt><trkpt lat="31.5932983" lon="-9.2325417"><ele>424.0</ele><time>2026-04-25T17:40:21.405Z</time></trkpt><trkpt lat="31.5932683" lon="-9.2327983"><ele>424.0</ele><time>2026-04-25T17:40:22.405Z</time></trkpt><trkpt lat="31.59324" lon="-9.2330483"><ele>424.0</ele><time>2026-04-25T17:40:23.405Z</time></trkpt><trkpt lat="31.5932133" lon="-9.2332933"><ele>424.0</ele><time>2026-04-25T17:40:24.405Z</time></trkpt><trkpt lat="31.59318" lon="-9.2335383"><ele>423.0</ele><time>2026-04-25T17:40:25.405Z</time></trkpt><trkpt lat="31.5931417" lon="-9.2337833"><ele>422.0</ele><time>2026-04-25T17:40:26.405Z</time></trkpt><trkpt lat="31.5931017" lon="-9.2340283"><ele>421.0</ele><time>2026-04-25T17:40:27.405Z</time></trkpt><trkpt lat="31.5930533" lon="-9.23427"><ele>420.0</ele><time>2026-04-25T17:40:28.405Z</time></trkpt><trkpt lat="31.5929983" lon="-9.234515"><ele>419.0</ele><time>2026-04-25T17:40:29.405Z</time></trkpt><trkpt lat="31.5929333" lon="-9.2347583"><ele>418.0</ele><time>2026-04-25T17:40:30.405Z</time></trkpt><trkpt lat="31.5928717" lon="-9.2350033"><ele>418.6666666666667</ele><time>2026-04-25T17:40:31.406Z</time></trkpt><trkpt lat="31.5928" lon="-9.2352483"><ele>419.33333333333337</ele><time>2026-04-25T17:40:32.405Z</time></trkpt><trkpt lat="31.5927333" lon="-9.2354917"><ele>420.0</ele><time>2026-04-25T17:40:33.405Z</time></trkpt><trkpt lat="31.5926583" lon="-9.2357217"><ele>420.0</ele><time>2026-04-25T17:40:34.405Z</time></trkpt><trkpt lat="31.59258" lon="-9.2359483"><ele>420.0</ele><time>2026-04-25T17:40:35.406Z</time></trkpt><trkpt lat="31.592495" lon="-9.2361667"><ele>420.0</ele><time>2026-04-25T17:40:36.405Z</time></trkpt><trkpt lat="31.59241" lon="-9.236385"><ele>419.66666666666663</ele><time>2026-04-25T17:40:37.405Z</time></trkpt><trkpt lat="31.592315" lon="-9.2365967"><ele>419.3333333333333</ele><time>2026-04-25T17:40:38.405Z</time></trkpt><trkpt lat="31.59223" lon="-9.2368183"><ele>419.0</ele><time>2026-04-25T17:40:39.405Z</time></trkpt><trkpt lat="31.59214" lon="-9.23704"><ele>419.0</ele><time>2026-04-25T17:40:40.405Z</time></trkpt><trkpt lat="31.592055" lon="-9.237265"><ele>419.0</ele><time>2026-04-25T17:40:41.405Z</time></trkpt><trkpt lat="31.591965" lon="-9.2374883"><ele>419.0</ele><time>2026-04-25T17:40:42.406Z</time></trkpt><trkpt lat="31.5918733" lon="-9.2377133"><ele>418.66666666666663</ele><time>2026-04-25T17:40:43.405Z</time></trkpt><trkpt lat="31.5917833" lon="-9.23794"><ele>418.33333333333337</ele><time>2026-04-25T17:40:44.405Z</time></trkpt><trkpt lat="31.5916867" lon="-9.2381617"><ele>418.0</ele><time>2026-04-25T17:40:45.405Z</time></trkpt><trkpt lat="31.5915833" lon="-9.2383883"><ele>418.0</ele><time>2026-04-25T17:40:46.405Z</time></trkpt><trkpt lat="31.5914817" lon="-9.2386167"><ele>418.0</ele><time>2026-04-25T17:40:47.405Z</time></trkpt><trkpt lat="31.5913867" lon="-9.2388433"><ele>418.0</ele><time>2026-04-25T17:40:48.405Z</time></trkpt><trkpt lat="31.5912883" lon="-9.2390767"><ele>418.0</ele><time>2026-04-25T17:40:49.405Z</time></trkpt><trkpt lat="31.591195" lon="-9.2393067"><ele>418.0</ele><time>2026-04-25T17:40:50.405Z</time></trkpt><trkpt lat="31.591095" lon="-9.2395317"><ele>418.0</ele><time>2026-04-25T17:40:51.405Z</time></trkpt><trkpt lat="31.5909917" lon="-9.239755"><ele>418.6666666666667</ele><time>2026-04-25T17:40:52.405Z</time></trkpt><trkpt lat="31.5908867" lon="-9.23997"><ele>419.33333333333337</ele><time>2026-04-25T17:40:53.405Z</time></trkpt><trkpt lat="31.590785" lon="-9.2401717"><ele>420.0</ele><time>2026-04-25T17:40:54.405Z</time></trkpt><trkpt lat="31.5906783" lon="-9.2403667"><ele>420.0</ele><time>2026-04-25T17:40:55.405Z</time></trkpt><trkpt lat="31.59057" lon="-9.2405583"><ele>420.0</ele><time>2026-04-25T17:40:56.405Z</time></trkpt><trkpt lat="31.5904683" lon="-9.2407383"><ele>420.0</ele><time>2026-04-25T17:40:57.405Z</time></trkpt><trkpt lat="31.59037" lon="-9.2409167"><ele>421.0</ele><time>2026-04-25T17:40:58.405Z</time></trkpt><trkpt lat="31.5902733" lon="-9.2410783"><ele>422.0</ele><time>2026-04-25T17:40:59.405Z</time></trkpt><trkpt lat="31.590175" lon="-9.2412333"><ele>423.0</ele><time>2026-04-25T17:41:00.405Z</time></trkpt><trkpt lat="31.5900717" lon="-9.2413833"><ele>421.66666666666663</ele><time>2026-04-25T17:41:01.405Z</time></trkpt><trkpt lat="31.589965" lon="-9.24153"><ele>420.3333333333333</ele><time>2026-04-25T17:41:02.405Z</time></trkpt><trkpt lat="31.5898617" lon="-9.2416767"><ele>419.0</ele><time>2026-04-25T17:41:03.405Z</time></trkpt><trkpt lat="31.5897583" lon="-9.2418233"><ele>419.0</ele><time>2026-04-25T17:41:04.405Z</time></trkpt><trkpt lat="31.5896617" lon="-9.241975"><ele>419.0</ele><time>2026-04-25T17:41:05.405Z</time></trkpt><trkpt lat="31.5895717" lon="-9.2421317"><ele>419.0</ele><time>2026-04-25T17:41:06.405Z</time></trkpt><trkpt lat="31.5894717" lon="-9.2422833"><ele>417.66666666666663</ele><time>2026-04-25T17:41:07.405Z</time></trkpt><trkpt lat="31.589375" lon="-9.2424417"><ele>416.33333333333337</ele><time>2026-04-25T17:41:08.405Z</time></trkpt><trkpt lat="31.5892817" lon="-9.242595"><ele>415.0</ele><time>2026-04-25T17:41:09.405Z</time></trkpt><trkpt lat="31.589195" lon="-9.2427433"><ele>415.0</ele><time>2026-04-25T17:41:10.405Z</time></trkpt><trkpt lat="31.58911" lon="-9.2428917"><ele>415.0</ele><time>2026-04-25T17:41:11.405Z</time></trkpt><trkpt lat="31.5890267" lon="-9.24304"><ele>415.0</ele><time>2026-04-25T17:41:12.405Z</time></trkpt><trkpt lat="31.58894" lon="-9.2431883"><ele>415.6666666666667</ele><time>2026-04-25T17:41:13.405Z</time></trkpt><trkpt lat="31.5888567" lon="-9.2433333"><ele>416.33333333333337</ele><time>2026-04-25T17:41:14.405Z</time></trkpt><trkpt lat="31.588765" lon="-9.243475"><ele>417.0</ele><time>2026-04-25T17:41:15.405Z</time></trkpt><trkpt lat="31.58868" lon="-9.24362"><ele>418.0</ele><time>2026-04-25T17:41:16.405Z</time></trkpt><trkpt lat="31.5885883" lon="-9.2437717"><ele>419.0</ele><time>2026-04-25T17:41:17.405Z</time></trkpt><trkpt lat="31.5884983" lon="-9.2439183"><ele>420.0</ele><time>2026-04-25T17:41:18.405Z</time></trkpt><trkpt lat="31.58841" lon="-9.2440717"><ele>420.0</ele><time>2026-04-25T17:41:19.405Z</time></trkpt><trkpt lat="31.5883233" lon="-9.2442233"><ele>420.0</ele><time>2026-04-25T17:41:20.405Z</time></trkpt><trkpt lat="31.588235" lon="-9.244375"><ele>420.0</ele><time>2026-04-25T17:41:21.405Z</time></trkpt><trkpt lat="31.5881433" lon="-9.2445283"><ele>420.0</ele><time>2026-04-25T17:41:22.405Z</time></trkpt><trkpt lat="31.5880533" lon="-9.244685"><ele>420.0</ele><time>2026-04-25T17:41:23.405Z</time></trkpt><trkpt lat="31.5879617" lon="-9.2448367"><ele>420.0</ele><time>2026-04-25T17:41:24.405Z</time></trkpt><trkpt lat="31.5878717" lon="-9.2449867"><ele>419.33333333333337</ele><time>2026-04-25T17:41:25.405Z</time></trkpt><trkpt lat="31.5877767" lon="-9.24514"><ele>418.6666666666667</ele><time>2026-04-25T17:41:26.405Z</time></trkpt><trkpt lat="31.5876783" lon="-9.2452917"><ele>418.0</ele><time>2026-04-25T17:41:27.405Z</time></trkpt><trkpt lat="31.5875783" lon="-9.2454417"><ele>418.0</ele><time>2026-04-25T17:41:28.406Z</time></trkpt><trkpt lat="31.5874817" lon="-9.2455967"><ele>418.0</ele><time>2026-04-25T17:41:29.405Z</time></trkpt><trkpt lat="31.58739" lon="-9.2457483"><ele>418.0</ele><time>2026-04-25T17:41:30.405Z</time></trkpt><trkpt lat="31.587295" lon="-9.2459017"><ele>418.0</ele><time>2026-04-25T17:41:31.405Z</time></trkpt><trkpt lat="31.5871983" lon="-9.2460567"><ele>418.0</ele><time>2026-04-25T17:41:32.405Z</time></trkpt><trkpt lat="31.5871033" lon="-9.24621"><ele>418.0</ele><time>2026-04-25T17:41:33.405Z</time></trkpt><trkpt lat="31.5870067" lon="-9.2463733"><ele>417.33333333333337</ele><time>2026-04-25T17:41:34.405Z</time></trkpt><trkpt lat="31.5869067" lon="-9.2465367"><ele>416.66666666666663</ele><time>2026-04-25T17:41:35.405Z</time></trkpt><trkpt lat="31.5868" lon="-9.2466967"><ele>416.0</ele><time>2026-04-25T17:41:36.405Z</time></trkpt><trkpt lat="31.5867" lon="-9.246855"><ele>416.0</ele><time>2026-04-25T17:41:37.405Z</time></trkpt><trkpt lat="31.5866067" lon="-9.2470083"><ele>416.0</ele><time>2026-04-25T17:41:38.405Z</time></trkpt><trkpt lat="31.5865133" lon="-9.2471567"><ele>416.0</ele><time>2026-04-25T17:41:39.405Z</time></trkpt><trkpt lat="31.5864233" lon="-9.2472983"><ele>415.0</ele><time>2026-04-25T17:41:40.405Z</time></trkpt><trkpt lat="31.586335" lon="-9.2474367"><ele>414.0</ele><time>2026-04-25T17:41:41.405Z</time></trkpt><trkpt lat="31.5862483" lon="-9.2475733"><ele>413.0</ele><time>2026-04-25T17:41:42.405Z</time></trkpt><trkpt lat="31.586155" lon="-9.24771"><ele>412.0</ele><time>2026-04-25T17:41:43.405Z</time></trkpt><trkpt lat="31.5860583" lon="-9.2478417"><ele>412.0</ele><time>2026-04-25T17:41:44.405Z</time></trkpt><trkpt lat="31.5859667" lon="-9.247975"><ele>412.0</ele><time>2026-04-25T17:41:45.405Z</time></trkpt><trkpt lat="31.585875" lon="-9.2481283"><ele>412.0</ele><time>2026-04-25T17:41:46.405Z</time></trkpt><trkpt lat="31.5857833" lon="-9.24828"><ele>411.33333333333337</ele><time>2026-04-25T17:41:47.405Z</time></trkpt><trkpt lat="31.5856867" lon="-9.248435"><ele>410.66666666666663</ele><time>2026-04-25T17:41:48.405Z</time></trkpt><trkpt lat="31.58559" lon="-9.248585"><ele>410.0</ele><time>2026-04-25T17:41:49.405Z</time></trkpt><trkpt lat="31.5855033" lon="-9.24874"><ele>410.0</ele><time>2026-04-25T17:41:50.405Z</time></trkpt><trkpt lat="31.5854233" lon="-9.2488933"><ele>410.0</ele><time>2026-04-25T17:41:51.405Z</time></trkpt><trkpt lat="31.5853433" lon="-9.2490467"><ele>410.0</ele><time>2026-04-25T17:41:52.405Z</time></trkpt><trkpt lat="31.5852617" lon="-9.249205"><ele>411.0</ele><time>2026-04-25T17:41:53.405Z</time></trkpt><trkpt lat="31.58518" lon="-9.2493617"><ele>412.0</ele><time>2026-04-25T17:41:54.405Z</time></trkpt><trkpt lat="31.5851017" lon="-9.2495167"><ele>413.0</ele><time>2026-04-25T17:41:55.405Z</time></trkpt><trkpt lat="31.5850267" lon="-9.2496767"><ele>413.3333333333333</ele><time>2026-04-25T17:41:56.405Z</time></trkpt><trkpt lat="31.58496" lon="-9.2498333"><ele>413.66666666666663</ele><time>2026-04-25T17:41:57.405Z</time></trkpt><trkpt lat="31.5848883" lon="-9.24999"><ele>414.0</ele><time>2026-04-25T17:41:58.405Z</time></trkpt><trkpt lat="31.5848233" lon="-9.2501483"><ele>414.0</ele><time>2026-04-25T17:41:59.405Z</time></trkpt><trkpt lat="31.5847633" lon="-9.2503083"><ele>414.0</ele><time>2026-04-25T17:42:00.405Z</time></trkpt><trkpt lat="31.5846967" lon="-9.2504667"><ele>414.0</ele><time>2026-04-25T17:42:01.405Z</time></trkpt><trkpt lat="31.5846367" lon="-9.250625"><ele>414.0</ele><time>2026-04-25T17:42:02.405Z</time></trkpt><trkpt lat="31.5845767" lon="-9.2507883"><ele>414.0</ele><time>2026-04-25T17:42:03.405Z</time></trkpt><trkpt lat="31.5845217" lon="-9.2509483"><ele>414.0</ele><time>2026-04-25T17:42:04.405Z</time></trkpt><trkpt lat="31.5844683" lon="-9.2511117"><ele>414.0</ele><time>2026-04-25T17:42:05.405Z</time></trkpt><trkpt lat="31.58441" lon="-9.2512733"><ele>414.0</ele><time>2026-04-25T17:42:06.405Z</time></trkpt><trkpt lat="31.5843517" lon="-9.2514383"><ele>414.0</ele><time>2026-04-25T17:42:07.405Z</time></trkpt><trkpt lat="31.5842917" lon="-9.2516017"><ele>414.0</ele><time>2026-04-25T17:42:08.405Z</time></trkpt><trkpt lat="31.584235" lon="-9.2517683"><ele>414.0</ele><time>2026-04-25T17:42:09.405Z</time></trkpt><trkpt lat="31.5841833" lon="-9.2519283"><ele>414.0</ele><time>2026-04-25T17:42:10.405Z</time></trkpt><trkpt lat="31.58413" lon="-9.2520917"><ele>414.0</ele><time>2026-04-25T17:42:11.405Z</time></trkpt><trkpt lat="31.5840733" lon="-9.2522533"><ele>414.0</ele><time>2026-04-25T17:42:12.406Z</time></trkpt><trkpt lat="31.584015" lon="-9.2524183"><ele>414.0</ele><time>2026-04-25T17:42:13.405Z</time></trkpt><trkpt lat="31.5839667" lon="-9.2525817"><ele>414.0</ele><time>2026-04-25T17:42:14.405Z</time></trkpt><trkpt lat="31.58391" lon="-9.252745"><ele>414.0</ele><time>2026-04-25T17:42:15.405Z</time></trkpt><trkpt lat="31.5838517" lon="-9.252905"><ele>414.0</ele><time>2026-04-25T17:42:16.405Z</time></trkpt><trkpt lat="31.5837983" lon="-9.25307"><ele>413.75</ele><time>2026-04-25T17:42:17.405Z</time></trkpt><trkpt lat="31.5837433" lon="-9.2532333"><ele>413.5</ele><time>2026-04-25T17:42:18.405Z</time></trkpt><trkpt lat="31.583685" lon="-9.25339"><ele>413.25</ele><time>2026-04-25T17:42:19.405Z</time></trkpt><trkpt lat="31.58363" lon="-9.253555"><ele>413.0</ele><time>2026-04-25T17:42:20.405Z</time></trkpt><trkpt lat="31.5835733" lon="-9.2537183"><ele>413.0</ele><time>2026-04-25T17:42:21.405Z</time></trkpt><trkpt lat="31.583525" lon="-9.2538767"><ele>413.0</ele><time>2026-04-25T17:42:22.405Z</time></trkpt><trkpt lat="31.583475" lon="-9.2540283"><ele>413.0</ele><time>2026-04-25T17:42:23.405Z</time></trkpt><trkpt lat="31.58343" lon="-9.2541783"><ele>413.0</ele><time>2026-04-25T17:42:24.405Z</time></trkpt><trkpt lat="31.5833883" lon="-9.2543183"><ele>413.0</ele><time>2026-04-25T17:42:25.405Z</time></trkpt><trkpt lat="31.5833467" lon="-9.2544567"><ele>413.0</ele><time>2026-04-25T17:42:26.405Z</time></trkpt><trkpt lat="31.5833" lon="-9.2545967"><ele>413.0</ele><time>2026-04-25T17:42:27.405Z</time></trkpt><trkpt lat="31.583255" lon="-9.254735"><ele>413.0</ele><time>2026-04-25T17:42:28.405Z</time></trkpt><trkpt lat="31.5832083" lon="-9.2548733"><ele>413.5</ele><time>2026-04-25T17:42:29.405Z</time></trkpt><trkpt lat="31.5831617" lon="-9.25501"><ele>414.0</ele><time>2026-04-25T17:42:30.405Z</time></trkpt><trkpt lat="31.5831133" lon="-9.2551567"><ele>414.5</ele><time>2026-04-25T17:42:31.405Z</time></trkpt><trkpt lat="31.583065" lon="-9.25529"><ele>415.0</ele><time>2026-04-25T17:42:32.405Z</time></trkpt><trkpt lat="31.5830067" lon="-9.2554217"><ele>415.0</ele><time>2026-04-25T17:42:33.405Z</time></trkpt><trkpt lat="31.5829417" lon="-9.2555467"><ele>415.0</ele><time>2026-04-25T17:42:34.405Z</time></trkpt><trkpt lat="31.5828767" lon="-9.2556667"><ele>415.0</ele><time>2026-04-25T17:42:35.405Z</time></trkpt><trkpt lat="31.5828133" lon="-9.2557933"><ele>415.0</ele><time>2026-04-25T17:42:36.405Z</time></trkpt><trkpt lat="31.5827517" lon="-9.2559183"><ele>415.25</ele><time>2026-04-25T17:42:37.405Z</time></trkpt><trkpt lat="31.5826867" lon="-9.2560467"><ele>415.5</ele><time>2026-04-25T17:42:38.405Z</time></trkpt><trkpt lat="31.5826217" lon="-9.2561717"><ele>415.75</ele><time>2026-04-25T17:42:39.405Z</time></trkpt><trkpt lat="31.582555" lon="-9.2563033"><ele>416.0</ele><time>2026-04-25T17:42:40.405Z</time></trkpt><trkpt lat="31.5824833" lon="-9.2564317"><ele>417.0</ele><time>2026-04-25T17:42:41.405Z</time></trkpt><trkpt lat="31.5824117" lon="-9.2565583"><ele>418.0</ele><time>2026-04-25T17:42:42.405Z</time></trkpt><trkpt lat="31.58234" lon="-9.2566783"><ele>419.0</ele><time>2026-04-25T17:42:43.405Z</time></trkpt><trkpt lat="31.5822683" lon="-9.2567867"><ele>420.0</ele><time>2026-04-25T17:42:44.405Z</time></trkpt><trkpt lat="31.5822" lon="-9.25689"><ele>420.0</ele><time>2026-04-25T17:42:45.405Z</time></trkpt><trkpt lat="31.5821317" lon="-9.2569883"><ele>420.0</ele><time>2026-04-25T17:42:46.405Z</time></trkpt><trkpt lat="31.5820617" lon="-9.2570933"><ele>420.0</ele><time>2026-04-25T17:42:47.405Z</time></trkpt><trkpt lat="31.581995" lon="-9.2571967"><ele>420.0</ele><time>2026-04-25T17:42:48.405Z</time></trkpt><trkpt lat="31.5819217" lon="-9.257305"><ele>420.0</ele><time>2026-04-25T17:42:49.405Z</time></trkpt><trkpt lat="31.581855" lon="-9.257415"><ele>420.0</ele><time>2026-04-25T17:42:50.405Z</time></trkpt><trkpt lat="31.58178" lon="-9.2575333"><ele>420.0</ele><time>2026-04-25T17:42:51.405Z</time></trkpt><trkpt lat="31.5817017" lon="-9.2576567"><ele>420.0</ele><time>2026-04-25T17:42:52.405Z</time></trkpt><trkpt lat="31.5816283" lon="-9.257775"><ele>420.0</ele><time>2026-04-25T17:42:53.405Z</time></trkpt><trkpt lat="31.5815483" lon="-9.257895"><ele>420.0</ele><time>2026-04-25T17:42:54.405Z</time></trkpt><trkpt lat="31.581465" lon="-9.2580267"><ele>420.0</ele><time>2026-04-25T17:42:55.405Z</time></trkpt><trkpt lat="31.58138" lon="-9.2581583"><ele>420.0</ele><time>2026-04-25T17:42:56.406Z</time></trkpt><trkpt lat="31.5812917" lon="-9.258295"><ele>420.0</ele><time>2026-04-25T17:42:57.405Z</time></trkpt><trkpt lat="31.5812033" lon="-9.2584383"><ele>420.0</ele><time>2026-04-25T17:42:58.405Z</time></trkpt><trkpt lat="31.58112" lon="-9.2585767"><ele>420.0</ele><time>2026-04-25T17:42:59.406Z</time></trkpt><trkpt lat="31.5810267" lon="-9.2587167"><ele>420.0</ele><time>2026-04-25T17:43:00.405Z</time></trkpt><trkpt lat="31.5809333" lon="-9.2588617"><ele>420.66666666666663</ele><time>2026-04-25T17:43:01.405Z</time></trkpt><trkpt lat="31.5808483" lon="-9.2590083"><ele>421.3333333333333</ele><time>2026-04-25T17:43:02.405Z</time></trkpt><trkpt lat="31.5807617" lon="-9.2591517"><ele>422.0</ele><time>2026-04-25T17:43:03.405Z</time></trkpt><trkpt lat="31.580675" lon="-9.259315"><ele>422.0</ele><time>2026-04-25T17:43:04.405Z</time></trkpt><trkpt lat="31.5805883" lon="-9.259485"><ele>422.0</ele><time>2026-04-25T17:43:05.405Z</time></trkpt><trkpt lat="31.5804983" lon="-9.259645"><ele>422.0</ele><time>2026-04-25T17:43:06.405Z</time></trkpt><trkpt lat="31.5804067" lon="-9.2598133"><ele>421.3333333333333</ele><time>2026-04-25T17:43:07.405Z</time></trkpt><trkpt lat="31.5803133" lon="-9.2599883"><ele>420.66666666666663</ele><time>2026-04-25T17:43:08.405Z</time></trkpt><trkpt lat="31.5802167" lon="-9.260165"><ele>420.0</ele><time>2026-04-25T17:43:09.405Z</time></trkpt><trkpt lat="31.58012" lon="-9.2603467"><ele>420.0</ele><time>2026-04-25T17:43:10.405Z</time></trkpt><trkpt lat="31.580035" lon="-9.2605467"><ele>420.0</ele><time>2026-04-25T17:43:11.405Z</time></trkpt><trkpt lat="31.57995" lon="-9.2607483"><ele>420.0</ele><time>2026-04-25T17:43:12.405Z</time></trkpt><trkpt lat="31.5798567" lon="-9.260945"><ele>421.0</ele><time>2026-04-25T17:43:13.405Z</time></trkpt><trkpt lat="31.5797633" lon="-9.2611483"><ele>422.0</ele><time>2026-04-25T17:43:14.405Z</time></trkpt><trkpt lat="31.57967" lon="-9.26135"><ele>423.0</ele><time>2026-04-25T17:43:15.405Z</time></trkpt><trkpt lat="31.5795733" lon="-9.2615517"><ele>423.0</ele><time>2026-04-25T17:43:16.405Z</time></trkpt><trkpt lat="31.5794883" lon="-9.2617533"><ele>423.0</ele><time>2026-04-25T17:43:17.405Z</time></trkpt><trkpt lat="31.579405" lon="-9.2619533"><ele>423.0</ele><time>2026-04-25T17:43:18.405Z</time></trkpt><trkpt lat="31.5793183" lon="-9.262155"><ele>423.0</ele><time>2026-04-25T17:43:19.405Z</time></trkpt><trkpt lat="31.5792333" lon="-9.2623533"><ele>423.0</ele><time>2026-04-25T17:43:20.405Z</time></trkpt><trkpt lat="31.5791467" lon="-9.2625483"><ele>423.0</ele><time>2026-04-25T17:43:21.405Z</time></trkpt><trkpt lat="31.57906" lon="-9.26275"><ele>423.0</ele><time>2026-04-25T17:43:22.405Z</time></trkpt><trkpt lat="31.57897" lon="-9.2629517"><ele>423.0</ele><time>2026-04-25T17:43:23.405Z</time></trkpt><trkpt lat="31.5788833" lon="-9.2631517"><ele>423.0</ele><time>2026-04-25T17:43:24.405Z</time></trkpt><trkpt lat="31.5787967" lon="-9.2633533"><ele>423.0</ele><time>2026-04-25T17:43:25.405Z</time></trkpt><trkpt lat="31.5787133" lon="-9.26356"><ele>423.0</ele><time>2026-04-25T17:43:26.405Z</time></trkpt><trkpt lat="31.5786283" lon="-9.26377"><ele>423.0</ele><time>2026-04-25T17:43:27.405Z</time></trkpt><trkpt lat="31.5785383" lon="-9.2639767"><ele>422.66666666666663</ele><time>2026-04-25T17:43:28.406Z</time></trkpt><trkpt lat="31.5784467" lon="-9.2641783"><ele>422.3333333333333</ele><time>2026-04-25T17:43:29.405Z</time></trkpt><trkpt lat="31.5783567" lon="-9.2643817"><ele>422.0</ele><time>2026-04-25T17:43:30.405Z</time></trkpt><trkpt lat="31.5782667" lon="-9.2645933"><ele>422.3333333333333</ele><time>2026-04-25T17:43:31.405Z</time></trkpt><trkpt lat="31.5781767" lon="-9.2648033"><ele>422.66666666666663</ele><time>2026-04-25T17:43:32.405Z</time></trkpt><trkpt lat="31.57809" lon="-9.2650033"><ele>423.0</ele><time>2026-04-25T17:43:33.405Z</time></trkpt><trkpt lat="31.5780033" lon="-9.2651917"><ele>423.0</ele><time>2026-04-25T17:43:34.406Z</time></trkpt><trkpt lat="31.577925" lon="-9.2653833"><ele>423.0</ele><time>2026-04-25T17:43:35.405Z</time></trkpt><trkpt lat="31.57784" lon="-9.26557"><ele>423.0</ele><time>2026-04-25T17:43:36.405Z</time></trkpt><trkpt lat="31.57776" lon="-9.2657667"><ele>423.33333333333337</ele><time>2026-04-25T17:43:37.405Z</time></trkpt><trkpt lat="31.5776767" lon="-9.2659533"><ele>423.6666666666667</ele><time>2026-04-25T17:43:38.405Z</time></trkpt><trkpt lat="31.5775933" lon="-9.2661467"><ele>424.0</ele><time>2026-04-25T17:43:39.405Z</time></trkpt><trkpt lat="31.5775083" lon="-9.266345"><ele>423.6666666666667</ele><time>2026-04-25T17:43:40.406Z</time></trkpt><trkpt lat="31.5774217" lon="-9.2665417"><ele>423.33333333333337</ele><time>2026-04-25T17:43:41.405Z</time></trkpt><trkpt lat="31.5773333" lon="-9.26674"><ele>423.0</ele><time>2026-04-25T17:43:42.405Z</time></trkpt><trkpt lat="31.5772483" lon="-9.2669467"><ele>423.0</ele><time>2026-04-25T17:43:43.405Z</time></trkpt><trkpt lat="31.5771583" lon="-9.2671517"><ele>423.0</ele><time>2026-04-25T17:43:44.405Z</time></trkpt><trkpt lat="31.577065" lon="-9.2673567"><ele>423.0</ele><time>2026-04-25T17:43:45.405Z</time></trkpt><trkpt lat="31.5769717" lon="-9.26757"><ele>423.0</ele><time>2026-04-25T17:43:46.405Z</time></trkpt><trkpt lat="31.5768717" lon="-9.26778"><ele>423.0</ele><time>2026-04-25T17:43:47.405Z</time></trkpt><trkpt lat="31.5767683" lon="-9.2679933"><ele>423.0</ele><time>2026-04-25T17:43:48.405Z</time></trkpt><trkpt lat="31.576665" lon="-9.2682067"><ele>423.0</ele><time>2026-04-25T17:43:49.405Z</time></trkpt><trkpt lat="31.576555" lon="-9.26842"><ele>423.0</ele><time>2026-04-25T17:43:50.405Z</time></trkpt><trkpt lat="31.5764383" lon="-9.2686317"><ele>423.0</ele><time>2026-04-25T17:43:51.405Z</time></trkpt><trkpt lat="31.5763167" lon="-9.26885"><ele>422.66666666666663</ele><time>2026-04-25T17:43:52.405Z</time></trkpt><trkpt lat="31.5761917" lon="-9.2690667"><ele>422.3333333333333</ele><time>2026-04-25T17:43:53.405Z</time></trkpt><trkpt lat="31.5760667" lon="-9.2692817"><ele>422.0</ele><time>2026-04-25T17:43:54.405Z</time></trkpt><trkpt lat="31.5759417" lon="-9.2694967"><ele>422.0</ele><time>2026-04-25T17:43:55.405Z</time></trkpt><trkpt lat="31.5758133" lon="-9.269715"><ele>422.0</ele><time>2026-04-25T17:43:56.406Z</time></trkpt><trkpt lat="31.57569" lon="-9.26993"><ele>422.0</ele><time>2026-04-25T17:43:57.405Z</time></trkpt><trkpt lat="31.5755617" lon="-9.2701517"><ele>422.5</ele><time>2026-04-25T17:43:58.405Z</time></trkpt><trkpt lat="31.5754317" lon="-9.2703667"><ele>423.0</ele><time>2026-04-25T17:43:59.405Z</time></trkpt><trkpt lat="31.5753017" lon="-9.2705883"><ele>423.5</ele><time>2026-04-25T17:44:00.405Z</time></trkpt><trkpt lat="31.5751733" lon="-9.2708067"><ele>424.0</ele><time>2026-04-25T17:44:01.405Z</time></trkpt><trkpt lat="31.57504" lon="-9.2710283"><ele>424.0</ele><time>2026-04-25T17:44:02.405Z</time></trkpt><trkpt lat="31.5749067" lon="-9.2712483"><ele>424.0</ele><time>2026-04-25T17:44:03.406Z</time></trkpt><trkpt lat="31.5747733" lon="-9.2714733"><ele>424.0</ele><time>2026-04-25T17:44:04.405Z</time></trkpt><trkpt lat="31.57464" lon="-9.271705"><ele>424.0</ele><time>2026-04-25T17:44:05.405Z</time></trkpt><trkpt lat="31.5745083" lon="-9.271935"><ele>424.0</ele><time>2026-04-25T17:44:06.405Z</time></trkpt><trkpt lat="31.5743717" lon="-9.2721667"><ele>424.0</ele><time>2026-04-25T17:44:07.405Z</time></trkpt><trkpt lat="31.574235" lon="-9.2724017"><ele>424.0</ele><time>2026-04-25T17:44:08.405Z</time></trkpt><trkpt lat="31.5741" lon="-9.2726283"><ele>424.0</ele><time>2026-04-25T17:44:09.405Z</time></trkpt><trkpt lat="31.5739617" lon="-9.2728633"><ele>424.0</ele><time>2026-04-25T17:44:10.405Z</time></trkpt><trkpt lat="31.573825" lon="-9.273095"><ele>424.0</ele><time>2026-04-25T17:44:11.405Z</time></trkpt><trkpt lat="31.5736883" lon="-9.2733283"><ele>424.0</ele><time>2026-04-25T17:44:12.405Z</time></trkpt><trkpt lat="31.573545" lon="-9.2735617"><ele>424.0</ele><time>2026-04-25T17:44:13.405Z</time></trkpt><trkpt lat="31.573405" lon="-9.27379"><ele>424.5</ele><time>2026-04-25T17:44:14.405Z</time></trkpt><trkpt lat="31.5732683" lon="-9.2740283"><ele>425.0</ele><time>2026-04-25T17:44:15.405Z</time></trkpt><trkpt lat="31.5731333" lon="-9.27426"><ele>425.0</ele><time>2026-04-25T17:44:16.405Z</time></trkpt><trkpt lat="31.5729983" lon="-9.27448"><ele>425.0</ele><time>2026-04-25T17:44:17.405Z</time></trkpt><trkpt lat="31.5728733" lon="-9.2747"><ele>425.0</ele><time>2026-04-25T17:44:18.405Z</time></trkpt><trkpt lat="31.5727467" lon="-9.2749233"><ele>425.0</ele><time>2026-04-25T17:44:19.405Z</time></trkpt><trkpt lat="31.5726217" lon="-9.2751467"><ele>425.0</ele><time>2026-04-25T17:44:20.405Z</time></trkpt><trkpt lat="31.572495" lon="-9.27537"><ele>425.0</ele><time>2026-04-25T17:44:21.405Z</time></trkpt><trkpt lat="31.5723683" lon="-9.2755983"><ele>424.5</ele><time>2026-04-25T17:44:22.405Z</time></trkpt><trkpt lat="31.5722417" lon="-9.2758283"><ele>424.0</ele><time>2026-04-25T17:44:23.405Z</time></trkpt><trkpt lat="31.572115" lon="-9.27606"><ele>424.0</ele><time>2026-04-25T17:44:24.405Z</time></trkpt><trkpt lat="31.571985" lon="-9.27629"><ele>424.0</ele><time>2026-04-25T17:44:25.405Z</time></trkpt><trkpt lat="31.571855" lon="-9.2765283"><ele>424.0</ele><time>2026-04-25T17:44:26.405Z</time></trkpt><trkpt lat="31.57172" lon="-9.2767633"><ele>424.0</ele><time>2026-04-25T17:44:27.405Z</time></trkpt><trkpt lat="31.5715883" lon="-9.2769967"><ele>424.0</ele><time>2026-04-25T17:44:28.405Z</time></trkpt><trkpt lat="31.5714517" lon="-9.2772333"><ele>424.0</ele><time>2026-04-25T17:44:29.405Z</time></trkpt><trkpt lat="31.571315" lon="-9.2774633"><ele>424.5</ele><time>2026-04-25T17:44:30.405Z</time></trkpt><trkpt lat="31.5711783" lon="-9.2776983"><ele>425.0</ele><time>2026-04-25T17:44:31.405Z</time></trkpt><trkpt lat="31.57104" lon="-9.27794"><ele>424.5</ele><time>2026-04-25T17:44:32.405Z</time></trkpt><trkpt lat="31.5709033" lon="-9.278175"><ele>424.0</ele><time>2026-04-25T17:44:33.405Z</time></trkpt><trkpt lat="31.5707683" lon="-9.2784067"><ele>424.0</ele><time>2026-04-25T17:44:34.405Z</time></trkpt><trkpt lat="31.570635" lon="-9.2786317"><ele>424.0</ele><time>2026-04-25T17:44:35.405Z</time></trkpt><trkpt lat="31.5705017" lon="-9.2788583"><ele>424.0</ele><time>2026-04-25T17:44:36.405Z</time></trkpt><trkpt lat="31.5703717" lon="-9.2790867"><ele>424.0</ele><time>2026-04-25T17:44:37.405Z</time></trkpt><trkpt lat="31.5702367" lon="-9.2793117"><ele>424.0</ele><time>2026-04-25T17:44:38.405Z</time></trkpt><trkpt lat="31.5701033" lon="-9.2795367"><ele>424.0</ele><time>2026-04-25T17:44:39.405Z</time></trkpt><trkpt lat="31.569975" lon="-9.2797617"><ele>425.5</ele><time>2026-04-25T17:44:40.405Z</time></trkpt><trkpt lat="31.5698433" lon="-9.2799883"><ele>427.0</ele><time>2026-04-25T17:44:41.405Z</time></trkpt><trkpt lat="31.569715" lon="-9.2802167"><ele>427.0</ele><time>2026-04-25T17:44:42.405Z</time></trkpt><trkpt lat="31.569585" lon="-9.2804417"><ele>427.0</ele><time>2026-04-25T17:44:43.405Z</time></trkpt><trkpt lat="31.569455" lon="-9.28068"><ele>427.5</ele><time>2026-04-25T17:44:44.406Z</time></trkpt><trkpt lat="31.569315" lon="-9.2809117"><ele>428.0</ele><time>2026-04-25T17:44:45.405Z</time></trkpt><trkpt lat="31.5691783" lon="-9.2811417"><ele>428.0</ele><time>2026-04-25T17:44:46.406Z</time></trkpt><trkpt lat="31.5690467" lon="-9.2813617"><ele>428.0</ele><time>2026-04-25T17:44:47.405Z</time></trkpt><trkpt lat="31.5689133" lon="-9.2815833"><ele>428.0</ele><time>2026-04-25T17:44:48.405Z</time></trkpt><trkpt lat="31.5687767" lon="-9.2818083"><ele>428.0</ele><time>2026-04-25T17:44:49.405Z</time></trkpt><trkpt lat="31.5686417" lon="-9.282035"><ele>427.0</ele><time>2026-04-25T17:44:50.405Z</time></trkpt><trkpt lat="31.56851" lon="-9.2822667"><ele>426.0</ele><time>2026-04-25T17:44:51.405Z</time></trkpt><trkpt lat="31.5683733" lon="-9.2824933"><ele>426.0</ele><time>2026-04-25T17:44:52.405Z</time></trkpt><trkpt lat="31.5682467" lon="-9.2827167"><ele>426.0</ele><time>2026-04-25T17:44:53.405Z</time></trkpt><trkpt lat="31.568115" lon="-9.2829483"><ele>426.5</ele><time>2026-04-25T17:44:54.405Z</time></trkpt><trkpt lat="31.5679783" lon="-9.2831783"><ele>427.0</ele><time>2026-04-25T17:44:55.406Z</time></trkpt><trkpt lat="31.56784" lon="-9.28341"><ele>427.0</ele><time>2026-04-25T17:44:56.405Z</time></trkpt><trkpt lat="31.5677033" lon="-9.2836383"><ele>427.0</ele><time>2026-04-25T17:44:57.405Z</time></trkpt><trkpt lat="31.5675717" lon="-9.2838683"><ele>427.0</ele><time>2026-04-25T17:44:58.405Z</time></trkpt><trkpt lat="31.5674383" lon="-9.2841033"><ele>427.0</ele><time>2026-04-25T17:44:59.405Z</time></trkpt><trkpt lat="31.5673067" lon="-9.2843333"><ele>427.0</ele><time>2026-04-25T17:45:00.405Z</time></trkpt><trkpt lat="31.5671717" lon="-9.2845667"><ele>427.0</ele><time>2026-04-25T17:45:01.406Z</time></trkpt><trkpt lat="31.56703" lon="-9.2847967"><ele>429.0</ele><time>2026-04-25T17:45:02.405Z</time></trkpt><trkpt lat="31.5668933" lon="-9.285025"><ele>431.0</ele><time>2026-04-25T17:45:03.405Z</time></trkpt><trkpt lat="31.566755" lon="-9.28526"><ele>431.0</ele><time>2026-04-25T17:45:04.405Z</time></trkpt><trkpt lat="31.56662" lon="-9.2854917"><ele>431.0</ele><time>2026-04-25T17:45:05.405Z</time></trkpt><trkpt lat="31.5664833" lon="-9.28572"><ele>432.5</ele><time>2026-04-25T17:45:06.405Z</time></trkpt><trkpt lat="31.5663467" lon="-9.2859517"><ele>434.0</ele><time>2026-04-25T17:45:07.405Z</time></trkpt><trkpt lat="31.5662067" lon="-9.2861817"><ele>434.5</ele><time>2026-04-25T17:45:08.405Z</time></trkpt><trkpt lat="31.56607" lon="-9.2864183"><ele>435.0</ele><time>2026-04-25T17:45:09.405Z</time></trkpt><trkpt lat="31.5659333" lon="-9.2866533"><ele>435.5</ele><time>2026-04-25T17:45:10.406Z</time></trkpt><trkpt lat="31.5657983" lon="-9.28689"><ele>436.0</ele><time>2026-04-25T17:45:11.405Z</time></trkpt><trkpt lat="31.5656617" lon="-9.287125"><ele>436.0</ele><time>2026-04-25T17:45:12.405Z</time></trkpt><trkpt lat="31.565525" lon="-9.2873633"><ele>436.0</ele><time>2026-04-25T17:45:13.405Z</time></trkpt><trkpt lat="31.5653883" lon="-9.2876"><ele>436.0</ele><time>2026-04-25T17:45:14.405Z</time></trkpt><trkpt lat="31.56525" lon="-9.2878333"><ele>436.0</ele><time>2026-04-25T17:45:15.405Z</time></trkpt><trkpt lat="31.5651117" lon="-9.2880667"><ele>436.5</ele><time>2026-04-25T17:45:16.405Z</time></trkpt><trkpt lat="31.5649717" lon="-9.2883017"><ele>437.0</ele><time>2026-04-25T17:45:17.405Z</time></trkpt><trkpt lat="31.5648317" lon="-9.2885433"><ele>437.0</ele><time>2026-04-25T17:45:18.405Z</time></trkpt><trkpt lat="31.56469" lon="-9.28878"><ele>437.0</ele><time>2026-04-25T17:45:19.405Z</time></trkpt><trkpt lat="31.5645483" lon="-9.2890183"><ele>437.5</ele><time>2026-04-25T17:45:20.405Z</time></trkpt><trkpt lat="31.564405" lon="-9.2892633"><ele>438.0</ele><time>2026-04-25T17:45:21.405Z</time></trkpt><trkpt lat="31.5642633" lon="-9.2895033"><ele>438.0</ele><time>2026-04-25T17:45:22.405Z</time></trkpt><trkpt lat="31.5641217" lon="-9.289745"><ele>438.0</ele><time>2026-04-25T17:45:23.405Z</time></trkpt><trkpt lat="31.5639817" lon="-9.289985"><ele>438.0</ele><time>2026-04-25T17:45:24.405Z</time></trkpt><trkpt lat="31.5638367" lon="-9.2902283"><ele>438.0</ele><time>2026-04-25T17:45:25.405Z</time></trkpt><trkpt lat="31.5636917" lon="-9.29047"><ele>440.0</ele><time>2026-04-25T17:45:26.405Z</time></trkpt><trkpt lat="31.5635533" lon="-9.2907"><ele>442.0</ele><time>2026-04-25T17:45:27.405Z</time></trkpt><trkpt lat="31.5634233" lon="-9.2909283"><ele>442.0</ele><time>2026-04-25T17:45:28.405Z</time></trkpt><trkpt lat="31.5632917" lon="-9.2911517"><ele>442.0</ele><time>2026-04-25T17:45:29.405Z</time></trkpt><trkpt lat="31.5631567" lon="-9.291375"><ele>440.5</ele><time>2026-04-25T17:45:30.405Z</time></trkpt><trkpt lat="31.5630217" lon="-9.2916067"><ele>439.0</ele><time>2026-04-25T17:45:31.405Z</time></trkpt><trkpt lat="31.5628833" lon="-9.2918433"><ele>437.5</ele><time>2026-04-25T17:45:32.405Z</time></trkpt><trkpt lat="31.5627483" lon="-9.2920733"><ele>436.0</ele><time>2026-04-25T17:45:33.405Z</time></trkpt><trkpt lat="31.5626217" lon="-9.2922967"><ele>436.0</ele><time>2026-04-25T17:45:34.405Z</time></trkpt><trkpt lat="31.562505" lon="-9.2925133"><ele>436.0</ele><time>2026-04-25T17:45:35.405Z</time></trkpt><trkpt lat="31.5623933" lon="-9.2927183"><ele>436.0</ele><time>2026-04-25T17:45:36.405Z</time></trkpt><trkpt lat="31.5622817" lon="-9.2929233"><ele>437.0</ele><time>2026-04-25T17:45:37.405Z</time></trkpt><trkpt lat="31.5621783" lon="-9.2931233"><ele>438.0</ele><time>2026-04-25T17:45:38.405Z</time></trkpt><trkpt lat="31.562085" lon="-9.29332"><ele>439.0</ele><time>2026-04-25T17:45:39.405Z</time></trkpt><trkpt lat="31.561995" lon="-9.29352"><ele>439.0</ele><time>2026-04-25T17:45:40.405Z</time></trkpt><trkpt lat="31.5619117" lon="-9.2937283"><ele>439.0</ele><time>2026-04-25T17:45:41.405Z</time></trkpt><trkpt lat="31.5618317" lon="-9.2939233"><ele>439.0</ele><time>2026-04-25T17:45:42.405Z</time></trkpt><trkpt lat="31.5617633" lon="-9.2941217"><ele>439.33333333333337</ele><time>2026-04-25T17:45:43.405Z</time></trkpt><trkpt lat="31.5616983" lon="-9.2943267"><ele>439.66666666666663</ele><time>2026-04-25T17:45:44.405Z</time></trkpt><trkpt lat="31.5616333" lon="-9.294535"><ele>440.0</ele><time>2026-04-25T17:45:45.405Z</time></trkpt><trkpt lat="31.5615733" lon="-9.29475"><ele>439.66666666666663</ele><time>2026-04-25T17:45:46.405Z</time></trkpt><trkpt lat="31.5615233" lon="-9.2949767"><ele>439.33333333333337</ele><time>2026-04-25T17:45:47.405Z</time></trkpt><trkpt lat="31.5614683" lon="-9.295215"><ele>439.0</ele><time>2026-04-25T17:45:48.405Z</time></trkpt><trkpt lat="31.5614167" lon="-9.295455"><ele>439.0</ele><time>2026-04-25T17:45:49.405Z</time></trkpt><trkpt lat="31.561375" lon="-9.295685"><ele>439.0</ele><time>2026-04-25T17:45:50.405Z</time></trkpt><trkpt lat="31.5613317" lon="-9.29591"><ele>439.0</ele><time>2026-04-25T17:45:51.405Z</time></trkpt><trkpt lat="31.5612933" lon="-9.2961433"><ele>439.0</ele><time>2026-04-25T17:45:52.405Z</time></trkpt><trkpt lat="31.56126" lon="-9.2963867"><ele>439.0</ele><time>2026-04-25T17:45:53.405Z</time></trkpt><trkpt lat="31.5612333" lon="-9.2966367"><ele>439.0</ele><time>2026-04-25T17:45:54.405Z</time></trkpt><trkpt lat="31.5612083" lon="-9.2968983"><ele>439.0</ele><time>2026-04-25T17:45:55.405Z</time></trkpt><trkpt lat="31.5611817" lon="-9.2971633"><ele>439.0</ele><time>2026-04-25T17:45:56.405Z</time></trkpt><trkpt lat="31.5611567" lon="-9.2974367"><ele>439.5</ele><time>2026-04-25T17:45:57.405Z</time></trkpt><trkpt lat="31.5611283" lon="-9.29771"><ele>440.0</ele><time>2026-04-25T17:45:58.405Z</time></trkpt><trkpt lat="31.5611017" lon="-9.2979917"><ele>440.0</ele><time>2026-04-25T17:45:59.405Z</time></trkpt><trkpt lat="31.5610717" lon="-9.29827"><ele>440.0</ele><time>2026-04-25T17:46:00.405Z</time></trkpt><trkpt lat="31.5610433" lon="-9.29855"><ele>440.0</ele><time>2026-04-25T17:46:01.405Z</time></trkpt><trkpt lat="31.5610167" lon="-9.29883"><ele>440.0</ele><time>2026-04-25T17:46:02.405Z</time></trkpt><trkpt lat="31.56099" lon="-9.29912"><ele>442.0</ele><time>2026-04-25T17:46:03.405Z</time></trkpt><trkpt lat="31.5609633" lon="-9.2994067"><ele>444.0</ele><time>2026-04-25T17:46:04.405Z</time></trkpt><trkpt lat="31.5609367" lon="-9.299695"><ele>441.0</ele><time>2026-04-25T17:46:05.405Z</time></trkpt><trkpt lat="31.5609117" lon="-9.299985"><ele>438.0</ele><time>2026-04-25T17:46:06.405Z</time></trkpt><trkpt lat="31.5608867" lon="-9.3002833"><ele>439.5</ele><time>2026-04-25T17:46:07.405Z</time></trkpt><trkpt lat="31.5608583" lon="-9.3005833"><ele>441.0</ele><time>2026-04-25T17:46:08.405Z</time></trkpt><trkpt lat="31.560835" lon="-9.3008883"><ele>441.0</ele><time>2026-04-25T17:46:09.405Z</time></trkpt><trkpt lat="31.560805" lon="-9.3011983"><ele>441.0</ele><time>2026-04-25T17:46:10.405Z</time></trkpt><trkpt lat="31.5607733" lon="-9.3014967"><ele>440.5</ele><time>2026-04-25T17:46:11.405Z</time></trkpt><trkpt lat="31.5607433" lon="-9.301785"><ele>440.0</ele><time>2026-04-25T17:46:12.405Z</time></trkpt><trkpt lat="31.560715" lon="-9.302065"><ele>440.0</ele><time>2026-04-25T17:46:13.405Z</time></trkpt><trkpt lat="31.5606883" lon="-9.3023517"><ele>440.0</ele><time>2026-04-25T17:46:14.405Z</time></trkpt><trkpt lat="31.5606567" lon="-9.3026367"><ele>440.0</ele><time>2026-04-25T17:46:15.405Z</time></trkpt><trkpt lat="31.5606267" lon="-9.3029217"><ele>440.0</ele><time>2026-04-25T17:46:16.405Z</time></trkpt><trkpt lat="31.5606" lon="-9.3032117"><ele>440.0</ele><time>2026-04-25T17:46:17.405Z</time></trkpt><trkpt lat="31.5605733" lon="-9.3035033"><ele>440.0</ele><time>2026-04-25T17:46:18.405Z</time></trkpt><trkpt lat="31.5605467" lon="-9.3037983"><ele>440.0</ele><time>2026-04-25T17:46:19.405Z</time></trkpt><trkpt lat="31.56052" lon="-9.304095"><ele>440.0</ele><time>2026-04-25T17:46:20.405Z</time></trkpt><trkpt lat="31.5604917" lon="-9.3043783"><ele>440.0</ele><time>2026-04-25T17:46:21.405Z</time></trkpt><trkpt lat="31.5604667" lon="-9.3046517"><ele>440.0</ele><time>2026-04-25T17:46:22.406Z</time></trkpt><trkpt lat="31.56044" lon="-9.3049317"><ele>440.5</ele><time>2026-04-25T17:46:23.405Z</time></trkpt><trkpt lat="31.5604133" lon="-9.3052117"><ele>441.0</ele><time>2026-04-25T17:46:24.405Z</time></trkpt><trkpt lat="31.5603883" lon="-9.3054917"><ele>440.0</ele><time>2026-04-25T17:46:25.405Z</time></trkpt><trkpt lat="31.56036" lon="-9.3057733"><ele>439.0</ele><time>2026-04-25T17:46:26.405Z</time></trkpt><trkpt lat="31.560335" lon="-9.30606"><ele>439.0</ele><time>2026-04-25T17:46:27.405Z</time></trkpt><trkpt lat="31.5603067" lon="-9.3063483"><ele>439.0</ele><time>2026-04-25T17:46:28.405Z</time></trkpt><trkpt lat="31.560275" lon="-9.3066433"><ele>438.0</ele><time>2026-04-25T17:46:29.405Z</time></trkpt><trkpt lat="31.5602417" lon="-9.3069417"><ele>437.0</ele><time>2026-04-25T17:46:30.405Z</time></trkpt><trkpt lat="31.5602083" lon="-9.3072417"><ele>437.5</ele><time>2026-04-25T17:46:31.405Z</time></trkpt><trkpt lat="31.5601767" lon="-9.30755"><ele>438.0</ele><time>2026-04-25T17:46:32.405Z</time></trkpt><trkpt lat="31.560145" lon="-9.30786"><ele>438.0</ele><time>2026-04-25T17:46:33.405Z</time></trkpt><trkpt lat="31.56011" lon="-9.3081783"><ele>438.0</ele><time>2026-04-25T17:46:34.405Z</time></trkpt><trkpt lat="31.560075" lon="-9.3084983"><ele>438.0</ele><time>2026-04-25T17:46:35.405Z</time></trkpt><trkpt lat="31.5600433" lon="-9.3088233"><ele>438.0</ele><time>2026-04-25T17:46:36.405Z</time></trkpt><trkpt lat="31.560015" lon="-9.3091533"><ele>438.0</ele><time>2026-04-25T17:46:37.405Z</time></trkpt><trkpt lat="31.5599883" lon="-9.3094867"><ele>438.0</ele><time>2026-04-25T17:46:38.405Z</time></trkpt><trkpt lat="31.5599633" lon="-9.3098133"><ele>439.0</ele><time>2026-04-25T17:46:39.405Z</time></trkpt><trkpt lat="31.5599333" lon="-9.3101317"><ele>440.0</ele><time>2026-04-25T17:46:40.405Z</time></trkpt><trkpt lat="31.5599033" lon="-9.31045"><ele>440.5</ele><time>2026-04-25T17:46:41.405Z</time></trkpt><trkpt lat="31.559875" lon="-9.3107667"><ele>441.0</ele><time>2026-04-25T17:46:42.406Z</time></trkpt><trkpt lat="31.5598467" lon="-9.31107"><ele>441.0</ele><time>2026-04-25T17:46:43.405Z</time></trkpt><trkpt lat="31.559815" lon="-9.3113667"><ele>441.0</ele><time>2026-04-25T17:46:44.405Z</time></trkpt><trkpt lat="31.5597933" lon="-9.31167"><ele>440.5</ele><time>2026-04-25T17:46:45.405Z</time></trkpt><trkpt lat="31.55977" lon="-9.311975"><ele>440.0</ele><time>2026-04-25T17:46:46.405Z</time></trkpt><trkpt lat="31.55974" lon="-9.3122833"><ele>440.0</ele><time>2026-04-25T17:46:47.405Z</time></trkpt><trkpt lat="31.5597117" lon="-9.3125933"><ele>440.0</ele><time>2026-04-25T17:46:48.405Z</time></trkpt><trkpt lat="31.5596817" lon="-9.3129017"><ele>439.0</ele><time>2026-04-25T17:46:49.405Z</time></trkpt><trkpt lat="31.55965" lon="-9.3132083"><ele>438.0</ele><time>2026-04-25T17:46:50.405Z</time></trkpt><trkpt lat="31.55962" lon="-9.3135"><ele>438.0</ele><time>2026-04-25T17:46:51.405Z</time></trkpt><trkpt lat="31.5595867" lon="-9.31378"><ele>438.0</ele><time>2026-04-25T17:46:52.405Z</time></trkpt><trkpt lat="31.5595567" lon="-9.314055"><ele>437.5</ele><time>2026-04-25T17:46:53.405Z</time></trkpt><trkpt lat="31.5595317" lon="-9.31433"><ele>437.0</ele><time>2026-04-25T17:46:54.405Z</time></trkpt><trkpt lat="31.5595067" lon="-9.3146083"><ele>435.5</ele><time>2026-04-25T17:46:55.405Z</time></trkpt><trkpt lat="31.5594783" lon="-9.31489"><ele>434.0</ele><time>2026-04-25T17:46:56.406Z</time></trkpt><trkpt lat="31.5594567" lon="-9.3151667"><ele>434.0</ele><time>2026-04-25T17:46:57.405Z</time></trkpt><trkpt lat="31.5594333" lon="-9.3154433"><ele>434.0</ele><time>2026-04-25T17:46:58.405Z</time></trkpt><trkpt lat="31.559405" lon="-9.3157267"><ele>433.5</ele><time>2026-04-25T17:46:59.405Z</time></trkpt><trkpt lat="31.5593817" lon="-9.3160167"><ele>433.0</ele><time>2026-04-25T17:47:00.405Z</time></trkpt><trkpt lat="31.5593583" lon="-9.316305"><ele>431.5</ele><time>2026-04-25T17:47:01.405Z</time></trkpt><trkpt lat="31.5593333" lon="-9.31659"><ele>430.0</ele><time>2026-04-25T17:47:02.405Z</time></trkpt><trkpt lat="31.55931" lon="-9.3168817"><ele>430.0</ele><time>2026-04-25T17:47:03.405Z</time></trkpt><trkpt lat="31.5592833" lon="-9.31717"><ele>430.0</ele><time>2026-04-25T17:47:04.405Z</time></trkpt><trkpt lat="31.5592567" lon="-9.3174717"><ele>429.5</ele><time>2026-04-25T17:47:05.405Z</time></trkpt><trkpt lat="31.55923" lon="-9.3177717"><ele>429.0</ele><time>2026-04-25T17:47:06.405Z</time></trkpt><trkpt lat="31.5592067" lon="-9.31808"><ele>429.0</ele><time>2026-04-25T17:47:07.405Z</time></trkpt><trkpt lat="31.559185" lon="-9.3183883"><ele>429.0</ele><time>2026-04-25T17:47:08.405Z</time></trkpt><trkpt lat="31.55917" lon="-9.3187067"><ele>427.0</ele><time>2026-04-25T17:47:09.405Z</time></trkpt><trkpt lat="31.55915" lon="-9.319025"><ele>425.0</ele><time>2026-04-25T17:47:10.405Z</time></trkpt><trkpt lat="31.5591367" lon="-9.31934"><ele>425.0</ele><time>2026-04-25T17:47:11.405Z</time></trkpt><trkpt lat="31.5591283" lon="-9.3196433"><ele>425.0</ele><time>2026-04-25T17:47:12.405Z</time></trkpt><trkpt lat="31.559115" lon="-9.31995"><ele>424.5</ele><time>2026-04-25T17:47:13.406Z</time></trkpt><trkpt lat="31.5591017" lon="-9.3202567"><ele>424.0</ele><time>2026-04-25T17:47:14.405Z</time></trkpt><trkpt lat="31.5590817" lon="-9.3205617"><ele>424.0</ele><time>2026-04-25T17:47:15.405Z</time></trkpt><trkpt lat="31.5590633" lon="-9.3208733"><ele>424.0</ele><time>2026-04-25T17:47:16.405Z</time></trkpt><trkpt lat="31.5590483" lon="-9.32119"><ele>422.5</ele><time>2026-04-25T17:47:17.405Z</time></trkpt><trkpt lat="31.5590367" lon="-9.321495"><ele>421.0</ele><time>2026-04-25T17:47:18.405Z</time></trkpt><trkpt lat="31.55903" lon="-9.3218067"><ele>421.0</ele><time>2026-04-25T17:47:19.405Z</time></trkpt><trkpt lat="31.5590183" lon="-9.3221183"><ele>421.0</ele><time>2026-04-25T17:47:20.405Z</time></trkpt><trkpt lat="31.5590083" lon="-9.32242"><ele>421.0</ele><time>2026-04-25T17:47:21.405Z</time></trkpt><trkpt lat="31.5589917" lon="-9.3227083"><ele>421.0</ele><time>2026-04-25T17:47:22.405Z</time></trkpt><trkpt lat="31.5589783" lon="-9.322985"><ele>421.5</ele><time>2026-04-25T17:47:23.405Z</time></trkpt><trkpt lat="31.5589683" lon="-9.3232517"><ele>422.0</ele><time>2026-04-25T17:47:24.405Z</time></trkpt><trkpt lat="31.5589517" lon="-9.3235133"><ele>422.0</ele><time>2026-04-25T17:47:25.405Z</time></trkpt><trkpt lat="31.55893" lon="-9.3237667"><ele>422.0</ele><time>2026-04-25T17:47:26.405Z</time></trkpt><trkpt lat="31.5588967" lon="-9.3240267"><ele>422.0</ele><time>2026-04-25T17:47:27.405Z</time></trkpt><trkpt lat="31.5588567" lon="-9.3243"><ele>422.0</ele><time>2026-04-25T17:47:28.405Z</time></trkpt><trkpt lat="31.558805" lon="-9.3245717"><ele>422.0</ele><time>2026-04-25T17:47:29.405Z</time></trkpt><trkpt lat="31.5587417" lon="-9.324855"><ele>420.0</ele><time>2026-04-25T17:47:30.405Z</time></trkpt><trkpt lat="31.55867" lon="-9.3251467"><ele>418.0</ele><time>2026-04-25T17:47:31.405Z</time></trkpt><trkpt lat="31.5585933" lon="-9.3254517"><ele>419.5</ele><time>2026-04-25T17:47:32.405Z</time></trkpt><trkpt lat="31.5585133" lon="-9.3257567"><ele>421.0</ele><time>2026-04-25T17:47:33.405Z</time></trkpt><trkpt lat="31.5584317" lon="-9.326055"><ele>421.0</ele><time>2026-04-25T17:47:34.405Z</time></trkpt><trkpt lat="31.5583467" lon="-9.3263417"><ele>421.0</ele><time>2026-04-25T17:47:35.405Z</time></trkpt><trkpt lat="31.5582533" lon="-9.326625"><ele>421.0</ele><time>2026-04-25T17:47:36.405Z</time></trkpt><trkpt lat="31.5581567" lon="-9.3269083"><ele>421.0</ele><time>2026-04-25T17:47:37.405Z</time></trkpt><trkpt lat="31.5580583" lon="-9.3271917"><ele>419.0</ele><time>2026-04-25T17:47:38.405Z</time></trkpt><trkpt lat="31.5579533" lon="-9.3274733"><ele>417.0</ele><time>2026-04-25T17:47:39.405Z</time></trkpt><trkpt lat="31.5578483" lon="-9.32774"><ele>417.5</ele><time>2026-04-25T17:47:40.405Z</time></trkpt><trkpt lat="31.5577317" lon="-9.3280067"><ele>418.0</ele><time>2026-04-25T17:47:41.405Z</time></trkpt><trkpt lat="31.5576033" lon="-9.3282683"><ele>418.0</ele><time>2026-04-25T17:47:42.405Z</time></trkpt><trkpt lat="31.5574767" lon="-9.32853"><ele>418.0</ele><time>2026-04-25T17:47:43.405Z</time></trkpt><trkpt lat="31.557345" lon="-9.3287933"><ele>417.5</ele><time>2026-04-25T17:47:44.405Z</time></trkpt><trkpt lat="31.5572183" lon="-9.32905"><ele>417.0</ele><time>2026-04-25T17:47:45.405Z</time></trkpt><trkpt lat="31.5570917" lon="-9.3293067"><ele>417.5</ele><time>2026-04-25T17:47:46.405Z</time></trkpt><trkpt lat="31.55696" lon="-9.3295683"><ele>418.0</ele><time>2026-04-25T17:47:47.405Z</time></trkpt><trkpt lat="31.55683" lon="-9.329825"><ele>415.5</ele><time>2026-04-25T17:47:48.405Z</time></trkpt><trkpt lat="31.5567133" lon="-9.3300783"><ele>413.0</ele><time>2026-04-25T17:47:49.405Z</time></trkpt><trkpt lat="31.5566" lon="-9.33033"><ele>413.0</ele><time>2026-04-25T17:47:50.405Z</time></trkpt><trkpt lat="31.5564783" lon="-9.3305767"><ele>413.0</ele><time>2026-04-25T17:47:51.405Z</time></trkpt><trkpt lat="31.5563567" lon="-9.3308183"><ele>413.0</ele><time>2026-04-25T17:47:52.405Z</time></trkpt><trkpt lat="31.5562283" lon="-9.3310667"><ele>413.0</ele><time>2026-04-25T17:47:53.405Z</time></trkpt><trkpt lat="31.5561017" lon="-9.3313233"><ele>413.5</ele><time>2026-04-25T17:47:54.405Z</time></trkpt><trkpt lat="31.5559783" lon="-9.331585"><ele>414.0</ele><time>2026-04-25T17:47:55.405Z</time></trkpt><trkpt lat="31.5558467" lon="-9.331855"><ele>414.0</ele><time>2026-04-25T17:47:56.405Z</time></trkpt><trkpt lat="31.5557133" lon="-9.3321233"><ele>414.0</ele><time>2026-04-25T17:47:57.405Z</time></trkpt><trkpt lat="31.555575" lon="-9.3323933"><ele>413.5</ele><time>2026-04-25T17:47:58.405Z</time></trkpt><trkpt lat="31.5554467" lon="-9.3326583"><ele>413.0</ele><time>2026-04-25T17:47:59.405Z</time></trkpt><trkpt lat="31.55532" lon="-9.3329117"><ele>410.5</ele><time>2026-04-25T17:48:00.405Z</time></trkpt><trkpt lat="31.5551933" lon="-9.3331767"><ele>408.0</ele><time>2026-04-25T17:48:01.405Z</time></trkpt><trkpt lat="31.5550667" lon="-9.3334417"><ele>408.0</ele><time>2026-04-25T17:48:02.405Z</time></trkpt><trkpt lat="31.5549333" lon="-9.3337067"><ele>408.0</ele><time>2026-04-25T17:48:03.405Z</time></trkpt><trkpt lat="31.5548" lon="-9.3339717"><ele>408.5</ele><time>2026-04-25T17:48:04.405Z</time></trkpt><trkpt lat="31.5546683" lon="-9.3342483"><ele>409.0</ele><time>2026-04-25T17:48:05.405Z</time></trkpt><trkpt lat="31.554535" lon="-9.3345183"><ele>409.5</ele><time>2026-04-25T17:48:06.405Z</time></trkpt><trkpt lat="31.5544067" lon="-9.3347783"><ele>410.0</ele><time>2026-04-25T17:48:07.405Z</time></trkpt><trkpt lat="31.5542783" lon="-9.33504"><ele>410.0</ele><time>2026-04-25T17:48:08.405Z</time></trkpt><trkpt lat="31.5541517" lon="-9.3353033"><ele>410.0</ele><time>2026-04-25T17:48:09.405Z</time></trkpt><trkpt lat="31.5540217" lon="-9.33557"><ele>409.5</ele><time>2026-04-25T17:48:10.405Z</time></trkpt><trkpt lat="31.5538867" lon="-9.3358317"><ele>409.0</ele><time>2026-04-25T17:48:11.405Z</time></trkpt><trkpt lat="31.5537533" lon="-9.3361033"><ele>409.5</ele><time>2026-04-25T17:48:12.405Z</time></trkpt><trkpt lat="31.55362" lon="-9.33637"><ele>410.0</ele><time>2026-04-25T17:48:13.405Z</time></trkpt><trkpt lat="31.5534933" lon="-9.3366283"><ele>408.0</ele><time>2026-04-25T17:48:14.405Z</time></trkpt><trkpt lat="31.553375" lon="-9.3368733"><ele>406.0</ele><time>2026-04-25T17:48:15.405Z</time></trkpt><trkpt lat="31.5532617" lon="-9.3371117"><ele>405.0</ele><time>2026-04-25T17:48:16.406Z</time></trkpt><trkpt lat="31.55314" lon="-9.3373517"><ele>404.0</ele><time>2026-04-25T17:48:17.405Z</time></trkpt><trkpt lat="31.55302" lon="-9.3375967"><ele>404.0</ele><time>2026-04-25T17:48:18.405Z</time></trkpt><trkpt lat="31.5529017" lon="-9.33784"><ele>404.0</ele><time>2026-04-25T17:48:19.405Z</time></trkpt><trkpt lat="31.5527867" lon="-9.3380783"><ele>404.0</ele><time>2026-04-25T17:48:20.405Z</time></trkpt><trkpt lat="31.5526717" lon="-9.3383167"><ele>404.0</ele><time>2026-04-25T17:48:21.405Z</time></trkpt><trkpt lat="31.552555" lon="-9.338555"><ele>404.0</ele><time>2026-04-25T17:48:22.405Z</time></trkpt><trkpt lat="31.5524383" lon="-9.3387883"><ele>404.0</ele><time>2026-04-25T17:48:23.405Z</time></trkpt><trkpt lat="31.5523183" lon="-9.3390067"><ele>403.66666666666663</ele><time>2026-04-25T17:48:24.405Z</time></trkpt><trkpt lat="31.5522033" lon="-9.3392217"><ele>403.33333333333337</ele><time>2026-04-25T17:48:25.405Z</time></trkpt><trkpt lat="31.552095" lon="-9.3394167"><ele>403.0</ele><time>2026-04-25T17:48:26.405Z</time></trkpt><trkpt lat="31.5519933" lon="-9.3395983"><ele>402.33333333333337</ele><time>2026-04-25T17:48:27.405Z</time></trkpt><trkpt lat="31.5519" lon="-9.3397767"><ele>401.66666666666663</ele><time>2026-04-25T17:48:28.405Z</time></trkpt><trkpt lat="31.5518133" lon="-9.3399433"><ele>401.0</ele><time>2026-04-25T17:48:29.405Z</time></trkpt><trkpt lat="31.551725" lon="-9.3401083"><ele>401.0</ele><time>2026-04-25T17:48:30.406Z</time></trkpt><trkpt lat="31.5516467" lon="-9.3402717"><ele>401.0</ele><time>2026-04-25T17:48:31.405Z</time></trkpt><trkpt lat="31.5515667" lon="-9.3404333"><ele>401.0</ele><time>2026-04-25T17:48:32.405Z</time></trkpt><trkpt lat="31.55149" lon="-9.340595"><ele>400.3333333333333</ele><time>2026-04-25T17:48:33.405Z</time></trkpt><trkpt lat="31.5514167" lon="-9.340755"><ele>399.66666666666663</ele><time>2026-04-25T17:48:34.405Z</time></trkpt><trkpt lat="31.55134" lon="-9.3409033"><ele>399.0</ele><time>2026-04-25T17:48:35.405Z</time></trkpt><trkpt lat="31.5512617" lon="-9.3410567"><ele>399.33333333333337</ele><time>2026-04-25T17:48:36.405Z</time></trkpt><trkpt lat="31.5511817" lon="-9.341215"><ele>399.6666666666667</ele><time>2026-04-25T17:48:37.405Z</time></trkpt><trkpt lat="31.5510917" lon="-9.3413783"><ele>400.0</ele><time>2026-04-25T17:48:38.405Z</time></trkpt><trkpt lat="31.55101" lon="-9.3415533"><ele>400.0</ele><time>2026-04-25T17:48:39.405Z</time></trkpt><trkpt lat="31.55092" lon="-9.3417333"><ele>400.0</ele><time>2026-04-25T17:48:40.405Z</time></trkpt><trkpt lat="31.550825" lon="-9.3419117"><ele>400.0</ele><time>2026-04-25T17:48:41.405Z</time></trkpt><trkpt lat="31.5507383" lon="-9.3420917"><ele>400.0</ele><time>2026-04-25T17:48:42.405Z</time></trkpt><trkpt lat="31.5506517" lon="-9.3422633"><ele>400.0</ele><time>2026-04-25T17:48:43.405Z</time></trkpt><trkpt lat="31.5505717" lon="-9.3424367"><ele>400.0</ele><time>2026-04-25T17:48:44.405Z</time></trkpt><trkpt lat="31.5504933" lon="-9.3425983"><ele>400.0</ele><time>2026-04-25T17:48:45.405Z</time></trkpt><trkpt lat="31.5504133" lon="-9.34276"><ele>400.0</ele><time>2026-04-25T17:48:46.405Z</time></trkpt><trkpt lat="31.55034" lon="-9.3429217"><ele>400.0</ele><time>2026-04-25T17:48:47.405Z</time></trkpt><trkpt lat="31.55026" lon="-9.343085"><ele>398.6666666666667</ele><time>2026-04-25T17:48:48.405Z</time></trkpt><trkpt lat="31.5501833" lon="-9.343245"><ele>397.33333333333337</ele><time>2026-04-25T17:48:49.405Z</time></trkpt><trkpt lat="31.5501067" lon="-9.343405"><ele>396.0</ele><time>2026-04-25T17:48:50.405Z</time></trkpt><trkpt lat="31.5500333" lon="-9.3435667"><ele>396.0</ele><time>2026-04-25T17:48:51.405Z</time></trkpt><trkpt lat="31.5499467" lon="-9.3437333"><ele>396.0</ele><time>2026-04-25T17:48:52.405Z</time></trkpt><trkpt lat="31.5498633" lon="-9.3439067"><ele>396.0</ele><time>2026-04-25T17:48:53.405Z</time></trkpt><trkpt lat="31.5497717" lon="-9.344075"><ele>396.0</ele><time>2026-04-25T17:48:54.405Z</time></trkpt><trkpt lat="31.5496883" lon="-9.3442467"><ele>396.0</ele><time>2026-04-25T17:48:55.406Z</time></trkpt><trkpt lat="31.5496067" lon="-9.3444217"><ele>396.0</ele><time>2026-04-25T17:48:56.405Z</time></trkpt><trkpt lat="31.549525" lon="-9.3445967"><ele>395.33333333333337</ele><time>2026-04-25T17:48:57.405Z</time></trkpt><trkpt lat="31.54944" lon="-9.3447733"><ele>394.6666666666667</ele><time>2026-04-25T17:48:58.405Z</time></trkpt><trkpt lat="31.5493583" lon="-9.344945"><ele>394.0</ele><time>2026-04-25T17:48:59.405Z</time></trkpt><trkpt lat="31.549275" lon="-9.34512"><ele>394.0</ele><time>2026-04-25T17:49:00.405Z</time></trkpt><trkpt lat="31.5491883" lon="-9.345295"><ele>394.0</ele><time>2026-04-25T17:49:01.405Z</time></trkpt><trkpt lat="31.5491083" lon="-9.3454833"><ele>394.0</ele><time>2026-04-25T17:49:02.405Z</time></trkpt><trkpt lat="31.5490267" lon="-9.3456717"><ele>394.6666666666667</ele><time>2026-04-25T17:49:03.405Z</time></trkpt><trkpt lat="31.5489367" lon="-9.345865"><ele>395.33333333333337</ele><time>2026-04-25T17:49:04.405Z</time></trkpt><trkpt lat="31.54885" lon="-9.3460683"><ele>396.0</ele><time>2026-04-25T17:49:05.405Z</time></trkpt><trkpt lat="31.54877" lon="-9.3462733"><ele>394.66666666666663</ele><time>2026-04-25T17:49:06.405Z</time></trkpt><trkpt lat="31.5486833" lon="-9.3464833"><ele>393.3333333333333</ele><time>2026-04-25T17:49:07.405Z</time></trkpt><trkpt lat="31.5486" lon="-9.3466983"><ele>392.0</ele><time>2026-04-25T17:49:08.406Z</time></trkpt><trkpt lat="31.5485283" lon="-9.3469233"><ele>392.0</ele><time>2026-04-25T17:49:09.405Z</time></trkpt><trkpt lat="31.548455" lon="-9.34714"><ele>392.0</ele><time>2026-04-25T17:49:10.405Z</time></trkpt><trkpt lat="31.5483867" lon="-9.34737"><ele>392.0</ele><time>2026-04-25T17:49:11.405Z</time></trkpt><trkpt lat="31.54832" lon="-9.3476017"><ele>392.0</ele><time>2026-04-25T17:49:12.405Z</time></trkpt><trkpt lat="31.5482517" lon="-9.347835"><ele>392.0</ele><time>2026-04-25T17:49:13.405Z</time></trkpt><trkpt lat="31.54819" lon="-9.3480767"><ele>392.0</ele><time>2026-04-25T17:49:14.405Z</time></trkpt><trkpt lat="31.5481317" lon="-9.3483317"><ele>392.0</ele><time>2026-04-25T17:49:15.405Z</time></trkpt><trkpt lat="31.54808" lon="-9.34861"><ele>392.0</ele><time>2026-04-25T17:49:16.405Z</time></trkpt><trkpt lat="31.54803" lon="-9.3488867"><ele>392.0</ele><time>2026-04-25T17:49:17.405Z</time></trkpt><trkpt lat="31.5479917" lon="-9.3491633"><ele>392.0</ele><time>2026-04-25T17:49:18.405Z</time></trkpt><trkpt lat="31.547955" lon="-9.3494467"><ele>391.5</ele><time>2026-04-25T17:49:19.405Z</time></trkpt><trkpt lat="31.5479233" lon="-9.3497417"><ele>391.0</ele><time>2026-04-25T17:49:20.405Z</time></trkpt><trkpt lat="31.5479017" lon="-9.35004"><ele>391.0</ele><time>2026-04-25T17:49:21.405Z</time></trkpt><trkpt lat="31.5478833" lon="-9.35034"><ele>391.0</ele><time>2026-04-25T17:49:22.405Z</time></trkpt><trkpt lat="31.54787" lon="-9.3506483"><ele>388.5</ele><time>2026-04-25T17:49:23.405Z</time></trkpt><trkpt lat="31.5478583" lon="-9.350955"><ele>386.0</ele><time>2026-04-25T17:49:24.405Z</time></trkpt><trkpt lat="31.5478517" lon="-9.351265"><ele>386.0</ele><time>2026-04-25T17:49:25.405Z</time></trkpt><trkpt lat="31.5478417" lon="-9.3515783"><ele>386.0</ele><time>2026-04-25T17:49:26.405Z</time></trkpt><trkpt lat="31.5478317" lon="-9.3518933"><ele>386.0</ele><time>2026-04-25T17:49:27.406Z</time></trkpt><trkpt lat="31.54782" lon="-9.3522033"><ele>386.0</ele><time>2026-04-25T17:49:28.405Z</time></trkpt><trkpt lat="31.5478117" lon="-9.3525017"><ele>384.5</ele><time>2026-04-25T17:49:29.405Z</time></trkpt><trkpt lat="31.547805" lon="-9.352795"><ele>383.0</ele><time>2026-04-25T17:49:30.405Z</time></trkpt><trkpt lat="31.5477967" lon="-9.3530883"><ele>382.0</ele><time>2026-04-25T17:49:31.405Z</time></trkpt><trkpt lat="31.54779" lon="-9.3533867"><ele>381.0</ele><time>2026-04-25T17:49:32.405Z</time></trkpt><trkpt lat="31.54778" lon="-9.3536817"><ele>381.0</ele><time>2026-04-25T17:49:33.405Z</time></trkpt><trkpt lat="31.54777" lon="-9.3539817"><ele>381.0</ele><time>2026-04-25T17:49:34.405Z</time></trkpt><trkpt lat="31.54776" lon="-9.3542783"><ele>381.0</ele><time>2026-04-25T17:49:35.405Z</time></trkpt><trkpt lat="31.5477467" lon="-9.3545683"><ele>381.0</ele><time>2026-04-25T17:49:36.405Z</time></trkpt><trkpt lat="31.5477383" lon="-9.354865"><ele>380.5</ele><time>2026-04-25T17:49:37.405Z</time></trkpt><trkpt lat="31.5477283" lon="-9.3551533"><ele>380.0</ele><time>2026-04-25T17:49:38.405Z</time></trkpt><trkpt lat="31.547715" lon="-9.3554383"><ele>379.5</ele><time>2026-04-25T17:49:39.405Z</time></trkpt><trkpt lat="31.547705" lon="-9.3557167"><ele>379.0</ele><time>2026-04-25T17:49:40.405Z</time></trkpt><trkpt lat="31.5476933" lon="-9.3559917"><ele>379.0</ele><time>2026-04-25T17:49:41.405Z</time></trkpt><trkpt lat="31.5476867" lon="-9.3562667"><ele>379.0</ele><time>2026-04-25T17:49:42.405Z</time></trkpt><trkpt lat="31.54768" lon="-9.3565417"><ele>378.5</ele><time>2026-04-25T17:49:43.405Z</time></trkpt><trkpt lat="31.5476683" lon="-9.356815"><ele>378.0</ele><time>2026-04-25T17:49:44.405Z</time></trkpt><trkpt lat="31.54766" lon="-9.3570867"><ele>377.6666666666667</ele><time>2026-04-25T17:49:45.405Z</time></trkpt><trkpt lat="31.5476467" lon="-9.357345"><ele>377.33333333333337</ele><time>2026-04-25T17:49:46.405Z</time></trkpt><trkpt lat="31.5476367" lon="-9.357605"><ele>377.0</ele><time>2026-04-25T17:49:47.405Z</time></trkpt><trkpt lat="31.5476283" lon="-9.3578667"><ele>377.0</ele><time>2026-04-25T17:49:48.405Z</time></trkpt><trkpt lat="31.5476183" lon="-9.3581333"><ele>377.0</ele><time>2026-04-25T17:49:49.405Z</time></trkpt><trkpt lat="31.5476117" lon="-9.3584033"><ele>377.0</ele><time>2026-04-25T17:49:50.405Z</time></trkpt><trkpt lat="31.5476017" lon="-9.3586683"><ele>377.0</ele><time>2026-04-25T17:49:51.405Z</time></trkpt><trkpt lat="31.54759" lon="-9.3589417"><ele>375.5</ele><time>2026-04-25T17:49:52.405Z</time></trkpt><trkpt lat="31.5475783" lon="-9.3592133"><ele>374.0</ele><time>2026-04-25T17:49:53.405Z</time></trkpt><trkpt lat="31.54756" lon="-9.359485"><ele>374.5</ele><time>2026-04-25T17:49:54.405Z</time></trkpt><trkpt lat="31.5475367" lon="-9.3597617"><ele>375.0</ele><time>2026-04-25T17:49:55.405Z</time></trkpt><trkpt lat="31.5475133" lon="-9.3600433"><ele>375.0</ele><time>2026-04-25T17:49:56.405Z</time></trkpt><trkpt lat="31.54749" lon="-9.3603267"><ele>375.0</ele><time>2026-04-25T17:49:57.405Z</time></trkpt><trkpt lat="31.5474667" lon="-9.360615"><ele>374.0</ele><time>2026-04-25T17:49:58.405Z</time></trkpt><trkpt lat="31.547445" lon="-9.3609117"><ele>373.0</ele><time>2026-04-25T17:49:59.405Z</time></trkpt><trkpt lat="31.547425" lon="-9.3612067"><ele>372.0</ele><time>2026-04-25T17:50:00.405Z</time></trkpt><trkpt lat="31.547405" lon="-9.3614983"><ele>371.0</ele><time>2026-04-25T17:50:01.405Z</time></trkpt><trkpt lat="31.5473883" lon="-9.3617933"><ele>371.0</ele><time>2026-04-25T17:50:02.405Z</time></trkpt><trkpt lat="31.547375" lon="-9.3620917"><ele>371.0</ele><time>2026-04-25T17:50:03.405Z</time></trkpt><trkpt lat="31.54736" lon="-9.3623917"><ele>372.5</ele><time>2026-04-25T17:50:04.405Z</time></trkpt><trkpt lat="31.5473433" lon="-9.3626933"><ele>374.0</ele><time>2026-04-25T17:50:05.405Z</time></trkpt><trkpt lat="31.54732" lon="-9.3629867"><ele>373.5</ele><time>2026-04-25T17:50:06.405Z</time></trkpt><trkpt lat="31.5472967" lon="-9.363275"><ele>373.0</ele><time>2026-04-25T17:50:07.405Z</time></trkpt><trkpt lat="31.5472733" lon="-9.3635617"><ele>373.0</ele><time>2026-04-25T17:50:08.405Z</time></trkpt><trkpt lat="31.5472517" lon="-9.363845"><ele>373.0</ele><time>2026-04-25T17:50:09.405Z</time></trkpt><trkpt lat="31.5472317" lon="-9.3641267"><ele>372.5</ele><time>2026-04-25T17:50:10.405Z</time></trkpt><trkpt lat="31.5472083" lon="-9.36441"><ele>372.0</ele><time>2026-04-25T17:50:11.405Z</time></trkpt><trkpt lat="31.5471883" lon="-9.3646967"><ele>372.0</ele><time>2026-04-25T17:50:12.405Z</time></trkpt><trkpt lat="31.54716" lon="-9.3649717"><ele>372.0</ele><time>2026-04-25T17:50:13.405Z</time></trkpt><trkpt lat="31.5471383" lon="-9.36525"><ele>371.0</ele><time>2026-04-25T17:50:14.405Z</time></trkpt><trkpt lat="31.5471183" lon="-9.3655333"><ele>370.0</ele><time>2026-04-25T17:50:15.405Z</time></trkpt><trkpt lat="31.5470983" lon="-9.3658117"><ele>370.0</ele><time>2026-04-25T17:50:16.405Z</time></trkpt><trkpt lat="31.54708" lon="-9.3660917"><ele>370.0</ele><time>2026-04-25T17:50:17.405Z</time></trkpt><trkpt lat="31.5470567" lon="-9.366375"><ele>373.5</ele><time>2026-04-25T17:50:18.405Z</time></trkpt><trkpt lat="31.547035" lon="-9.36666"><ele>377.0</ele><time>2026-04-25T17:50:19.405Z</time></trkpt><trkpt lat="31.5470083" lon="-9.366945"><ele>378.0</ele><time>2026-04-25T17:50:20.405Z</time></trkpt><trkpt lat="31.5469883" lon="-9.367225"><ele>379.0</ele><time>2026-04-25T17:50:21.405Z</time></trkpt><trkpt lat="31.546975" lon="-9.3675083"><ele>379.0</ele><time>2026-04-25T17:50:22.405Z</time></trkpt><trkpt lat="31.54695" lon="-9.367785"><ele>379.0</ele><time>2026-04-25T17:50:23.405Z</time></trkpt><trkpt lat="31.5469283" lon="-9.368065"><ele>378.0</ele><time>2026-04-25T17:50:24.405Z</time></trkpt><trkpt lat="31.5469083" lon="-9.368345"><ele>377.0</ele><time>2026-04-25T17:50:25.405Z</time></trkpt><trkpt lat="31.5468867" lon="-9.3686233"><ele>378.5</ele><time>2026-04-25T17:50:26.405Z</time></trkpt><trkpt lat="31.5468683" lon="-9.3689033"><ele>380.0</ele><time>2026-04-25T17:50:27.405Z</time></trkpt><trkpt lat="31.5468483" lon="-9.3691833"><ele>380.0</ele><time>2026-04-25T17:50:28.405Z</time></trkpt><trkpt lat="31.5468267" lon="-9.369465"><ele>380.0</ele><time>2026-04-25T17:50:29.405Z</time></trkpt><trkpt lat="31.54681" lon="-9.3697483"><ele>381.5</ele><time>2026-04-25T17:50:30.405Z</time></trkpt><trkpt lat="31.5467883" lon="-9.3700317"><ele>383.0</ele><time>2026-04-25T17:50:31.405Z</time></trkpt><trkpt lat="31.5467667" lon="-9.3703167"><ele>380.5</ele><time>2026-04-25T17:50:32.405Z</time></trkpt><trkpt lat="31.5467433" lon="-9.370605"><ele>378.0</ele><time>2026-04-25T17:50:33.405Z</time></trkpt><trkpt lat="31.5467183" lon="-9.3708917"><ele>378.0</ele><time>2026-04-25T17:50:34.405Z</time></trkpt><trkpt lat="31.5466983" lon="-9.3711783"><ele>378.0</ele><time>2026-04-25T17:50:35.405Z</time></trkpt><trkpt lat="31.546695" lon="-9.371465"><ele>376.5</ele><time>2026-04-25T17:50:36.405Z</time></trkpt><trkpt lat="31.5466867" lon="-9.3717617"><ele>375.0</ele><time>2026-04-25T17:50:37.405Z</time></trkpt><trkpt lat="31.54668" lon="-9.37206"><ele>375.0</ele><time>2026-04-25T17:50:38.405Z</time></trkpt><trkpt lat="31.5466783" lon="-9.37236"><ele>375.0</ele><time>2026-04-25T17:50:39.405Z</time></trkpt><trkpt lat="31.5466883" lon="-9.3726683"><ele>375.0</ele><time>2026-04-25T17:50:40.405Z</time></trkpt><trkpt lat="31.54671" lon="-9.3729767"><ele>375.0</ele><time>2026-04-25T17:50:41.405Z</time></trkpt><trkpt lat="31.5467383" lon="-9.373285"><ele>375.0</ele><time>2026-04-25T17:50:42.405Z</time></trkpt><trkpt lat="31.5467767" lon="-9.3735983"><ele>375.0</ele><time>2026-04-25T17:50:43.405Z</time></trkpt><trkpt lat="31.5468167" lon="-9.3739033"><ele>375.5</ele><time>2026-04-25T17:50:44.406Z</time></trkpt><trkpt lat="31.5468517" lon="-9.3741983"><ele>376.0</ele><time>2026-04-25T17:50:45.405Z</time></trkpt><trkpt lat="31.546895" lon="-9.3744883"><ele>374.5</ele><time>2026-04-25T17:50:46.405Z</time></trkpt><trkpt lat="31.546935" lon="-9.3747817"><ele>373.0</ele><time>2026-04-25T17:50:47.405Z</time></trkpt><trkpt lat="31.5469717" lon="-9.3750783"><ele>373.0</ele><time>2026-04-25T17:50:48.405Z</time></trkpt><trkpt lat="31.5470117" lon="-9.3753733"><ele>373.0</ele><time>2026-04-25T17:50:49.405Z</time></trkpt><trkpt lat="31.5470483" lon="-9.3756717"><ele>370.0</ele><time>2026-04-25T17:50:50.405Z</time></trkpt><trkpt lat="31.5470883" lon="-9.3759567"><ele>367.0</ele><time>2026-04-25T17:50:51.405Z</time></trkpt><trkpt lat="31.5471283" lon="-9.3762417"><ele>365.0</ele><time>2026-04-25T17:50:52.406Z</time></trkpt><trkpt lat="31.5471633" lon="-9.37652"><ele>363.0</ele><time>2026-04-25T17:50:53.405Z</time></trkpt><trkpt lat="31.5472017" lon="-9.376795"><ele>363.0</ele><time>2026-04-25T17:50:54.405Z</time></trkpt><trkpt lat="31.5472367" lon="-9.3770617"><ele>363.0</ele><time>2026-04-25T17:50:55.405Z</time></trkpt><trkpt lat="31.5472733" lon="-9.3773283"><ele>363.0</ele><time>2026-04-25T17:50:56.405Z</time></trkpt><trkpt lat="31.5473033" lon="-9.3776067"><ele>363.0</ele><time>2026-04-25T17:50:57.405Z</time></trkpt><trkpt lat="31.5473417" lon="-9.3778917"><ele>363.0</ele><time>2026-04-25T17:50:58.405Z</time></trkpt><trkpt lat="31.54738" lon="-9.3781683"><ele>363.0</ele><time>2026-04-25T17:50:59.405Z</time></trkpt><trkpt lat="31.5474167" lon="-9.378445"><ele>363.0</ele><time>2026-04-25T17:51:00.405Z</time></trkpt><trkpt lat="31.5474567" lon="-9.3787233"><ele>363.0</ele><time>2026-04-25T17:51:01.405Z</time></trkpt><trkpt lat="31.5474917" lon="-9.3790067"><ele>364.5</ele><time>2026-04-25T17:51:02.405Z</time></trkpt><trkpt lat="31.5475217" lon="-9.3792933"><ele>366.0</ele><time>2026-04-25T17:51:03.405Z</time></trkpt><trkpt lat="31.5475483" lon="-9.3795817"><ele>366.5</ele><time>2026-04-25T17:51:04.405Z</time></trkpt><trkpt lat="31.547565" lon="-9.379875"><ele>367.0</ele><time>2026-04-25T17:51:05.405Z</time></trkpt><trkpt lat="31.54757" lon="-9.38017"><ele>367.0</ele><time>2026-04-25T17:51:06.405Z</time></trkpt><trkpt lat="31.5475583" lon="-9.38047"><ele>367.0</ele><time>2026-04-25T17:51:07.406Z</time></trkpt><trkpt lat="31.5475317" lon="-9.380765"><ele>367.0</ele><time>2026-04-25T17:51:08.405Z</time></trkpt><trkpt lat="31.5474867" lon="-9.3810533"><ele>367.0</ele><time>2026-04-25T17:51:09.406Z</time></trkpt><trkpt lat="31.547425" lon="-9.38134"><ele>367.5</ele><time>2026-04-25T17:51:10.405Z</time></trkpt><trkpt lat="31.5473583" lon="-9.3816267"><ele>368.0</ele><time>2026-04-25T17:51:11.405Z</time></trkpt><trkpt lat="31.5472783" lon="-9.381905"><ele>368.5</ele><time>2026-04-25T17:51:12.405Z</time></trkpt><trkpt lat="31.5471883" lon="-9.3821867"><ele>369.0</ele><time>2026-04-25T17:51:13.405Z</time></trkpt><trkpt lat="31.5470817" lon="-9.3824633"><ele>374.0</ele><time>2026-04-25T17:51:14.405Z</time></trkpt><trkpt lat="31.5469617" lon="-9.3827383"><ele>379.0</ele><time>2026-04-25T17:51:15.405Z</time></trkpt><trkpt lat="31.5468317" lon="-9.3830017"><ele>375.0</ele><time>2026-04-25T17:51:16.405Z</time></trkpt><trkpt lat="31.54669" lon="-9.3832467"><ele>371.0</ele><time>2026-04-25T17:51:17.405Z</time></trkpt><trkpt lat="31.546535" lon="-9.383475"><ele>371.0</ele><time>2026-04-25T17:51:18.405Z</time></trkpt><trkpt lat="31.5463683" lon="-9.3837033"><ele>371.0</ele><time>2026-04-25T17:51:19.405Z</time></trkpt><trkpt lat="31.5461917" lon="-9.3839217"><ele>372.5</ele><time>2026-04-25T17:51:20.405Z</time></trkpt><trkpt lat="31.5460067" lon="-9.384135"><ele>374.0</ele><time>2026-04-25T17:51:21.405Z</time></trkpt><trkpt lat="31.545815" lon="-9.3843583"><ele>374.0</ele><time>2026-04-25T17:51:22.405Z</time></trkpt><trkpt lat="31.5456183" lon="-9.3845717"><ele>374.0</ele><time>2026-04-25T17:51:23.405Z</time></trkpt><trkpt lat="31.545425" lon="-9.3847883"><ele>376.5</ele><time>2026-04-25T17:51:24.405Z</time></trkpt><trkpt lat="31.54524" lon="-9.3849983"><ele>379.0</ele><time>2026-04-25T17:51:25.405Z</time></trkpt><trkpt lat="31.545065" lon="-9.3851983"><ele>379.0</ele><time>2026-04-25T17:51:26.406Z</time></trkpt><trkpt lat="31.5448983" lon="-9.3853983"><ele>379.0</ele><time>2026-04-25T17:51:27.406Z</time></trkpt><trkpt lat="31.54474" lon="-9.3856"><ele>380.0</ele><time>2026-04-25T17:51:28.405Z</time></trkpt><trkpt lat="31.5446" lon="-9.3858117"><ele>381.0</ele><time>2026-04-25T17:51:29.405Z</time></trkpt><trkpt lat="31.544455" lon="-9.3860117"><ele>382.5</ele><time>2026-04-25T17:51:30.405Z</time></trkpt><trkpt lat="31.5443183" lon="-9.3862333"><ele>384.0</ele><time>2026-04-25T17:51:31.405Z</time></trkpt><trkpt lat="31.5441867" lon="-9.3864567"><ele>384.0</ele><time>2026-04-25T17:51:32.405Z</time></trkpt><trkpt lat="31.5440583" lon="-9.3866867"><ele>384.0</ele><time>2026-04-25T17:51:33.405Z</time></trkpt><trkpt lat="31.5439367" lon="-9.3869217"><ele>384.0</ele><time>2026-04-25T17:51:34.405Z</time></trkpt><trkpt lat="31.5438183" lon="-9.3871633"><ele>384.0</ele><time>2026-04-25T17:51:35.405Z</time></trkpt><trkpt lat="31.5437" lon="-9.3874017"><ele>384.5</ele><time>2026-04-25T17:51:36.405Z</time></trkpt><trkpt lat="31.5435833" lon="-9.3876467"><ele>385.0</ele><time>2026-04-25T17:51:37.405Z</time></trkpt><trkpt lat="31.543465" lon="-9.387895"><ele>383.0</ele><time>2026-04-25T17:51:38.405Z</time></trkpt><trkpt lat="31.543345" lon="-9.3881417"><ele>381.0</ele><time>2026-04-25T17:51:39.405Z</time></trkpt><trkpt lat="31.5432217" lon="-9.3883967"><ele>381.0</ele><time>2026-04-25T17:51:40.405Z</time></trkpt><trkpt lat="31.5430983" lon="-9.38866"><ele>381.0</ele><time>2026-04-25T17:51:41.405Z</time></trkpt><trkpt lat="31.5429683" lon="-9.388925"><ele>379.0</ele><time>2026-04-25T17:51:42.405Z</time></trkpt><trkpt lat="31.54284" lon="-9.3892017"><ele>377.0</ele><time>2026-04-25T17:51:43.405Z</time></trkpt><trkpt lat="31.542715" lon="-9.38948"><ele>376.5</ele><time>2026-04-25T17:51:44.405Z</time></trkpt><trkpt lat="31.54259" lon="-9.38976"><ele>376.0</ele><time>2026-04-25T17:51:45.405Z</time></trkpt><trkpt lat="31.542465" lon="-9.3900517"><ele>376.0</ele><time>2026-04-25T17:51:46.405Z</time></trkpt><trkpt lat="31.5423483" lon="-9.3903533"><ele>376.0</ele><time>2026-04-25T17:51:47.405Z</time></trkpt><trkpt lat="31.5422367" lon="-9.39066"><ele>376.5</ele><time>2026-04-25T17:51:48.406Z</time></trkpt><trkpt lat="31.54212" lon="-9.3909783"><ele>377.0</ele><time>2026-04-25T17:51:49.405Z</time></trkpt><trkpt lat="31.5420183" lon="-9.3913067"><ele>373.5</ele><time>2026-04-25T17:51:50.405Z</time></trkpt><trkpt lat="31.5419183" lon="-9.391635"><ele>370.0</ele><time>2026-04-25T17:51:51.405Z</time></trkpt><trkpt lat="31.5418183" lon="-9.3919683"><ele>370.5</ele><time>2026-04-25T17:51:52.405Z</time></trkpt><trkpt lat="31.5417367" lon="-9.392295"><ele>371.0</ele><time>2026-04-25T17:51:53.405Z</time></trkpt><trkpt lat="31.541665" lon="-9.3926117"><ele>371.0</ele><time>2026-04-25T17:51:54.405Z</time></trkpt><trkpt lat="31.5415983" lon="-9.3929083"><ele>371.0</ele><time>2026-04-25T17:51:55.405Z</time></trkpt><trkpt lat="31.5415383" lon="-9.393215"><ele>371.0</ele><time>2026-04-25T17:51:56.405Z</time></trkpt><trkpt lat="31.5414767" lon="-9.3935267"><ele>371.0</ele><time>2026-04-25T17:51:57.405Z</time></trkpt><trkpt lat="31.541415" lon="-9.3938483"><ele>371.0</ele><time>2026-04-25T17:51:58.405Z</time></trkpt><trkpt lat="31.541355" lon="-9.3941767"><ele>371.0</ele><time>2026-04-25T17:51:59.405Z</time></trkpt><trkpt lat="31.5413" lon="-9.3945017"><ele>371.5</ele><time>2026-04-25T17:52:00.405Z</time></trkpt><trkpt lat="31.5412467" lon="-9.3948283"><ele>372.0</ele><time>2026-04-25T17:52:01.405Z</time></trkpt><trkpt lat="31.5411933" lon="-9.3951667"><ele>366.0</ele><time>2026-04-25T17:52:02.405Z</time></trkpt><trkpt lat="31.54115" lon="-9.3955083"><ele>360.0</ele><time>2026-04-25T17:52:03.406Z</time></trkpt><trkpt lat="31.5411117" lon="-9.3958333"><ele>360.0</ele><time>2026-04-25T17:52:04.405Z</time></trkpt><trkpt lat="31.5410717" lon="-9.3961433"><ele>360.0</ele><time>2026-04-25T17:52:05.405Z</time></trkpt><trkpt lat="31.54103" lon="-9.3964367"><ele>360.0</ele><time>2026-04-25T17:52:06.405Z</time></trkpt><trkpt lat="31.5409867" lon="-9.39673"><ele>360.0</ele><time>2026-04-25T17:52:07.405Z</time></trkpt><trkpt lat="31.5409417" lon="-9.3970167"><ele>361.0</ele><time>2026-04-25T17:52:08.406Z</time></trkpt><trkpt lat="31.5409017" lon="-9.3972983"><ele>362.0</ele><time>2026-04-25T17:52:09.405Z</time></trkpt><trkpt lat="31.54086" lon="-9.3975733"><ele>362.0</ele><time>2026-04-25T17:52:10.405Z</time></trkpt><trkpt lat="31.5408217" lon="-9.3978533"><ele>362.0</ele><time>2026-04-25T17:52:11.405Z</time></trkpt><trkpt lat="31.5407883" lon="-9.3981383"><ele>360.5</ele><time>2026-04-25T17:52:12.405Z</time></trkpt><trkpt lat="31.5407617" lon="-9.3984283"><ele>359.0</ele><time>2026-04-25T17:52:13.405Z</time></trkpt><trkpt lat="31.5407433" lon="-9.3987267"><ele>357.0</ele><time>2026-04-25T17:52:14.405Z</time></trkpt><trkpt lat="31.54073" lon="-9.39903"><ele>355.0</ele><time>2026-04-25T17:52:15.405Z</time></trkpt><trkpt lat="31.5407217" lon="-9.3993383"><ele>355.0</ele><time>2026-04-25T17:52:16.405Z</time></trkpt><trkpt lat="31.54072" lon="-9.39965"><ele>355.0</ele><time>2026-04-25T17:52:17.405Z</time></trkpt><trkpt lat="31.540725" lon="-9.399965"><ele>352.5</ele><time>2026-04-25T17:52:18.405Z</time></trkpt><trkpt lat="31.5407317" lon="-9.4002833"><ele>350.0</ele><time>2026-04-25T17:52:19.405Z</time></trkpt><trkpt lat="31.5407367" lon="-9.4006"><ele>348.0</ele><time>2026-04-25T17:52:20.405Z</time></trkpt><trkpt lat="31.5407433" lon="-9.400905"><ele>346.0</ele><time>2026-04-25T17:52:21.405Z</time></trkpt><trkpt lat="31.5407517" lon="-9.4012033"><ele>346.5</ele><time>2026-04-25T17:52:22.405Z</time></trkpt><trkpt lat="31.5407567" lon="-9.4015"><ele>347.0</ele><time>2026-04-25T17:52:23.405Z</time></trkpt><trkpt lat="31.540765" lon="-9.4018"><ele>347.0</ele><time>2026-04-25T17:52:24.405Z</time></trkpt><trkpt lat="31.5407767" lon="-9.4020983"><ele>347.0</ele><time>2026-04-25T17:52:25.405Z</time></trkpt><trkpt lat="31.5407867" lon="-9.4024"><ele>348.5</ele><time>2026-04-25T17:52:26.405Z</time></trkpt><trkpt lat="31.540795" lon="-9.4026967"><ele>350.0</ele><time>2026-04-25T17:52:27.405Z</time></trkpt><trkpt lat="31.540805" lon="-9.4029967"><ele>350.5</ele><time>2026-04-25T17:52:28.405Z</time></trkpt><trkpt lat="31.540815" lon="-9.403295"><ele>351.0</ele><time>2026-04-25T17:52:29.405Z</time></trkpt><trkpt lat="31.5408217" lon="-9.4035967"><ele>349.0</ele><time>2026-04-25T17:52:30.405Z</time></trkpt><trkpt lat="31.5408283" lon="-9.4038983"><ele>347.0</ele><time>2026-04-25T17:52:31.405Z</time></trkpt><trkpt lat="31.540835" lon="-9.4042033"><ele>347.0</ele><time>2026-04-25T17:52:32.405Z</time></trkpt><trkpt lat="31.5408433" lon="-9.4045133"><ele>347.0</ele><time>2026-04-25T17:52:33.405Z</time></trkpt><trkpt lat="31.5408483" lon="-9.4048217"><ele>345.5</ele><time>2026-04-25T17:52:34.405Z</time></trkpt><trkpt lat="31.5408483" lon="-9.4051367"><ele>344.0</ele><time>2026-04-25T17:52:35.405Z</time></trkpt><trkpt lat="31.5408567" lon="-9.405455"><ele>343.5</ele><time>2026-04-25T17:52:36.405Z</time></trkpt><trkpt lat="31.540855" lon="-9.4057783"><ele>343.0</ele><time>2026-04-25T17:52:37.405Z</time></trkpt><trkpt lat="31.5408483" lon="-9.406115"><ele>340.0</ele><time>2026-04-25T17:52:38.405Z</time></trkpt><trkpt lat="31.5408383" lon="-9.4064567"><ele>337.0</ele><time>2026-04-25T17:52:39.405Z</time></trkpt><trkpt lat="31.54082" lon="-9.4068017"><ele>337.0</ele><time>2026-04-25T17:52:40.406Z</time></trkpt><trkpt lat="31.5407983" lon="-9.4071533"><ele>337.0</ele><time>2026-04-25T17:52:41.405Z</time></trkpt><trkpt lat="31.5407667" lon="-9.4074983"><ele>334.0</ele><time>2026-04-25T17:52:42.405Z</time></trkpt><trkpt lat="31.5407283" lon="-9.407825"><ele>331.0</ele><time>2026-04-25T17:52:43.405Z</time></trkpt><trkpt lat="31.54068" lon="-9.40813"><ele>330.5</ele><time>2026-04-25T17:52:44.406Z</time></trkpt><trkpt lat="31.5406267" lon="-9.4084183"><ele>330.0</ele><time>2026-04-25T17:52:45.405Z</time></trkpt><trkpt lat="31.540565" lon="-9.4086967"><ele>330.0</ele><time>2026-04-25T17:52:46.405Z</time></trkpt><trkpt lat="31.5404983" lon="-9.4089667"><ele>330.0</ele><time>2026-04-25T17:52:47.405Z</time></trkpt><trkpt lat="31.540425" lon="-9.4092333"><ele>334.5</ele><time>2026-04-25T17:52:48.405Z</time></trkpt><trkpt lat="31.540355" lon="-9.4095017"><ele>339.0</ele><time>2026-04-25T17:52:49.405Z</time></trkpt><trkpt lat="31.5402867" lon="-9.4097517"><ele>339.0</ele><time>2026-04-25T17:52:50.405Z</time></trkpt><trkpt lat="31.5402183" lon="-9.4099883"><ele>339.0</ele><time>2026-04-25T17:52:51.405Z</time></trkpt><trkpt lat="31.540155" lon="-9.4102217"><ele>339.0</ele><time>2026-04-25T17:52:52.405Z</time></trkpt><trkpt lat="31.540095" lon="-9.4104517"><ele>340.0</ele><time>2026-04-25T17:52:53.405Z</time></trkpt><trkpt lat="31.54003" lon="-9.410705"><ele>341.0</ele><time>2026-04-25T17:52:54.405Z</time></trkpt><trkpt lat="31.5399583" lon="-9.4109733"><ele>341.0</ele><time>2026-04-25T17:52:55.405Z</time></trkpt><trkpt lat="31.5398733" lon="-9.411245"><ele>341.0</ele><time>2026-04-25T17:52:56.405Z</time></trkpt><trkpt lat="31.5397983" lon="-9.411515"><ele>344.5</ele><time>2026-04-25T17:52:57.405Z</time></trkpt><trkpt lat="31.5397233" lon="-9.4117733"><ele>348.0</ele><time>2026-04-25T17:52:58.405Z</time></trkpt><trkpt lat="31.5396483" lon="-9.4120283"><ele>349.0</ele><time>2026-04-25T17:52:59.405Z</time></trkpt><trkpt lat="31.5395683" lon="-9.412285"><ele>350.0</ele><time>2026-04-25T17:53:00.405Z</time></trkpt><trkpt lat="31.5394917" lon="-9.412545"><ele>345.5</ele><time>2026-04-25T17:53:01.406Z</time></trkpt><trkpt lat="31.5394033" lon="-9.4127983"><ele>341.0</ele><time>2026-04-25T17:53:02.405Z</time></trkpt><trkpt lat="31.53931" lon="-9.4130567"><ele>341.0</ele><time>2026-04-25T17:53:03.405Z</time></trkpt><trkpt lat="31.5392067" lon="-9.4133033"><ele>341.0</ele><time>2026-04-25T17:53:04.405Z</time></trkpt><trkpt lat="31.53909" lon="-9.41355"><ele>341.0</ele><time>2026-04-25T17:53:05.405Z</time></trkpt><trkpt lat="31.538965" lon="-9.41378"><ele>341.0</ele><time>2026-04-25T17:53:06.405Z</time></trkpt><trkpt lat="31.53883" lon="-9.4140017"><ele>336.5</ele><time>2026-04-25T17:53:07.405Z</time></trkpt><trkpt lat="31.5386833" lon="-9.414215"><ele>332.0</ele><time>2026-04-25T17:53:08.406Z</time></trkpt><trkpt lat="31.538525" lon="-9.41442"><ele>332.0</ele><time>2026-04-25T17:53:09.405Z</time></trkpt><trkpt lat="31.538355" lon="-9.4146233"><ele>332.0</ele><time>2026-04-25T17:53:10.405Z</time></trkpt><trkpt lat="31.538175" lon="-9.4148183"><ele>330.0</ele><time>2026-04-25T17:53:11.405Z</time></trkpt><trkpt lat="31.53799" lon="-9.4150067"><ele>328.0</ele><time>2026-04-25T17:53:12.405Z</time></trkpt><trkpt lat="31.5378017" lon="-9.4151983"><ele>328.0</ele><time>2026-04-25T17:53:13.405Z</time></trkpt><trkpt lat="31.5376133" lon="-9.4153933"><ele>328.0</ele><time>2026-04-25T17:53:14.405Z</time></trkpt><trkpt lat="31.537425" lon="-9.4155867"><ele>326.0</ele><time>2026-04-25T17:53:15.405Z</time></trkpt><trkpt lat="31.5372317" lon="-9.4157817"><ele>324.0</ele><time>2026-04-25T17:53:16.405Z</time></trkpt><trkpt lat="31.53704" lon="-9.4159817"><ele>324.0</ele><time>2026-04-25T17:53:17.405Z</time></trkpt><trkpt lat="31.5368383" lon="-9.4161767"><ele>324.0</ele><time>2026-04-25T17:53:18.405Z</time></trkpt><trkpt lat="31.5366417" lon="-9.41637"><ele>325.5</ele><time>2026-04-25T17:53:19.405Z</time></trkpt><trkpt lat="31.536455" lon="-9.416565"><ele>327.0</ele><time>2026-04-25T17:53:20.405Z</time></trkpt><trkpt lat="31.5362717" lon="-9.4167633"><ele>322.5</ele><time>2026-04-25T17:53:21.405Z</time></trkpt><trkpt lat="31.5360933" lon="-9.4169733"><ele>318.0</ele><time>2026-04-25T17:53:22.405Z</time></trkpt><trkpt lat="31.5359267" lon="-9.41719"><ele>317.5</ele><time>2026-04-25T17:53:23.405Z</time></trkpt><trkpt lat="31.53577" lon="-9.4174117"><ele>317.0</ele><time>2026-04-25T17:53:24.405Z</time></trkpt><trkpt lat="31.5356183" lon="-9.41764"><ele>317.0</ele><time>2026-04-25T17:53:25.405Z</time></trkpt><trkpt lat="31.5354767" lon="-9.4178783"><ele>317.0</ele><time>2026-04-25T17:53:26.405Z</time></trkpt><trkpt lat="31.5353333" lon="-9.41812"><ele>313.5</ele><time>2026-04-25T17:53:27.405Z</time></trkpt><trkpt lat="31.5351917" lon="-9.4183717"><ele>310.0</ele><time>2026-04-25T17:53:28.405Z</time></trkpt><trkpt lat="31.5350467" lon="-9.41862"><ele>310.0</ele><time>2026-04-25T17:53:29.405Z</time></trkpt><trkpt lat="31.5349" lon="-9.4188783"><ele>310.0</ele><time>2026-04-25T17:53:30.405Z</time></trkpt><trkpt lat="31.5347467" lon="-9.419135"><ele>310.0</ele><time>2026-04-25T17:53:31.405Z</time></trkpt><trkpt lat="31.5345967" lon="-9.4193883"><ele>310.0</ele><time>2026-04-25T17:53:32.405Z</time></trkpt><trkpt lat="31.5344517" lon="-9.4196383"><ele>309.5</ele><time>2026-04-25T17:53:33.405Z</time></trkpt><trkpt lat="31.53431" lon="-9.4198867"><ele>309.0</ele><time>2026-04-25T17:53:34.405Z</time></trkpt><trkpt lat="31.5341583" lon="-9.4201333"><ele>309.0</ele><time>2026-04-25T17:53:35.405Z</time></trkpt><trkpt lat="31.53401" lon="-9.4203733"><ele>309.0</ele><time>2026-04-25T17:53:36.405Z</time></trkpt><trkpt lat="31.5338633" lon="-9.4206217"><ele>306.0</ele><time>2026-04-25T17:53:37.405Z</time></trkpt><trkpt lat="31.53372" lon="-9.4208717"><ele>303.0</ele><time>2026-04-25T17:53:38.405Z</time></trkpt><trkpt lat="31.5335817" lon="-9.4211183"><ele>303.0</ele><time>2026-04-25T17:53:39.405Z</time></trkpt><trkpt lat="31.5334483" lon="-9.4213717"><ele>303.0</ele><time>2026-04-25T17:53:40.405Z</time></trkpt><trkpt lat="31.53332" lon="-9.4216267"><ele>303.0</ele><time>2026-04-25T17:53:41.405Z</time></trkpt><trkpt lat="31.5332" lon="-9.42189"><ele>303.0</ele><time>2026-04-25T17:53:42.405Z</time></trkpt><trkpt lat="31.53309" lon="-9.4221567"><ele>302.5</ele><time>2026-04-25T17:53:43.405Z</time></trkpt><trkpt lat="31.5329867" lon="-9.4224317"><ele>302.0</ele><time>2026-04-25T17:53:44.405Z</time></trkpt><trkpt lat="31.532885" lon="-9.4227033"><ele>299.5</ele><time>2026-04-25T17:53:45.405Z</time></trkpt><trkpt lat="31.5327933" lon="-9.4229783"><ele>297.0</ele><time>2026-04-25T17:53:46.405Z</time></trkpt><trkpt lat="31.5326983" lon="-9.4232483"><ele>296.0</ele><time>2026-04-25T17:53:47.405Z</time></trkpt><trkpt lat="31.5326117" lon="-9.4235133"><ele>295.0</ele><time>2026-04-25T17:53:48.405Z</time></trkpt><trkpt lat="31.53253" lon="-9.4237667"><ele>295.0</ele><time>2026-04-25T17:53:49.405Z</time></trkpt><trkpt lat="31.5324517" lon="-9.4240117"><ele>295.0</ele><time>2026-04-25T17:53:50.405Z</time></trkpt><trkpt lat="31.532375" lon="-9.4242517"><ele>295.0</ele><time>2026-04-25T17:53:51.405Z</time></trkpt><trkpt lat="31.5323033" lon="-9.424485"><ele>295.3333333333333</ele><time>2026-04-25T17:53:52.405Z</time></trkpt><trkpt lat="31.5322267" lon="-9.4247083"><ele>295.6666666666667</ele><time>2026-04-25T17:53:53.405Z</time></trkpt><trkpt lat="31.5321517" lon="-9.4249267"><ele>296.0</ele><time>2026-04-25T17:53:54.405Z</time></trkpt><trkpt lat="31.532075" lon="-9.42515"><ele>295.33333333333337</ele><time>2026-04-25T17:53:55.405Z</time></trkpt><trkpt lat="31.532005" lon="-9.4253767"><ele>294.6666666666667</ele><time>2026-04-25T17:53:56.405Z</time></trkpt><trkpt lat="31.5319317" lon="-9.4255983"><ele>294.0</ele><time>2026-04-25T17:53:57.405Z</time></trkpt><trkpt lat="31.5318583" lon="-9.4258183"><ele>293.3333333333333</ele><time>2026-04-25T17:53:58.405Z</time></trkpt><trkpt lat="31.5317867" lon="-9.4260283"><ele>292.66666666666663</ele><time>2026-04-25T17:53:59.405Z</time></trkpt><trkpt lat="31.5317233" lon="-9.4262367"><ele>292.0</ele><time>2026-04-25T17:54:00.405Z</time></trkpt><trkpt lat="31.53166" lon="-9.4264383"><ele>292.0</ele><time>2026-04-25T17:54:01.405Z</time></trkpt><trkpt lat="31.5315983" lon="-9.42664"><ele>292.0</ele><time>2026-04-25T17:54:02.405Z</time></trkpt><trkpt lat="31.5315383" lon="-9.4268317"><ele>292.0</ele><time>2026-04-25T17:54:03.405Z</time></trkpt><trkpt lat="31.5314817" lon="-9.4270183"><ele>292.0</ele><time>2026-04-25T17:54:04.405Z</time></trkpt><trkpt lat="31.531415" lon="-9.4272033"><ele>292.0</ele><time>2026-04-25T17:54:05.405Z</time></trkpt><trkpt lat="31.531355" lon="-9.4273833"><ele>292.0</ele><time>2026-04-25T17:54:06.406Z</time></trkpt><trkpt lat="31.5312967" lon="-9.4275583"><ele>292.0</ele><time>2026-04-25T17:54:07.405Z</time></trkpt><trkpt lat="31.53124" lon="-9.4277267"><ele>292.0</ele><time>2026-04-25T17:54:08.405Z</time></trkpt><trkpt lat="31.5311817" lon="-9.4278967"><ele>292.0</ele><time>2026-04-25T17:54:09.405Z</time></trkpt><trkpt lat="31.5311217" lon="-9.4280683"><ele>290.66666666666663</ele><time>2026-04-25T17:54:10.405Z</time></trkpt><trkpt lat="31.531065" lon="-9.4282383"><ele>289.3333333333333</ele><time>2026-04-25T17:54:11.405Z</time></trkpt><trkpt lat="31.5310067" lon="-9.4284167"><ele>288.0</ele><time>2026-04-25T17:54:12.405Z</time></trkpt><trkpt lat="31.5309483" lon="-9.4286067"><ele>288.0</ele><time>2026-04-25T17:54:13.405Z</time></trkpt><trkpt lat="31.5308833" lon="-9.428795"><ele>288.0</ele><time>2026-04-25T17:54:14.405Z</time></trkpt><trkpt lat="31.5308217" lon="-9.428975"><ele>288.0</ele><time>2026-04-25T17:54:15.405Z</time></trkpt><trkpt lat="31.53076" lon="-9.42915"><ele>287.6666666666667</ele><time>2026-04-25T17:54:16.405Z</time></trkpt><trkpt lat="31.5307033" lon="-9.4293267"><ele>287.33333333333337</ele><time>2026-04-25T17:54:17.405Z</time></trkpt><trkpt lat="31.5306467" lon="-9.4295033"><ele>287.0</ele><time>2026-04-25T17:54:18.405Z</time></trkpt><trkpt lat="31.53059" lon="-9.4296783"><ele>286.33333333333337</ele><time>2026-04-25T17:54:19.405Z</time></trkpt><trkpt lat="31.5305333" lon="-9.4298533"><ele>285.6666666666667</ele><time>2026-04-25T17:54:20.405Z</time></trkpt><trkpt lat="31.530475" lon="-9.430025"><ele>285.0</ele><time>2026-04-25T17:54:21.405Z</time></trkpt><trkpt lat="31.5304183" lon="-9.4302017"><ele>285.0</ele><time>2026-04-25T17:54:22.405Z</time></trkpt><trkpt lat="31.5303617" lon="-9.4303783"><ele>285.0</ele><time>2026-04-25T17:54:23.405Z</time></trkpt><trkpt lat="31.5303067" lon="-9.430555"><ele>285.0</ele><time>2026-04-25T17:54:24.405Z</time></trkpt><trkpt lat="31.5302517" lon="-9.4307367"><ele>285.0</ele><time>2026-04-25T17:54:25.405Z</time></trkpt><trkpt lat="31.5301917" lon="-9.4309217"><ele>285.0</ele><time>2026-04-25T17:54:26.405Z</time></trkpt><trkpt lat="31.53013" lon="-9.4311067"><ele>285.0</ele><time>2026-04-25T17:54:27.405Z</time></trkpt><trkpt lat="31.530065" lon="-9.4313"><ele>285.3333333333333</ele><time>2026-04-25T17:54:28.405Z</time></trkpt><trkpt lat="31.5300017" lon="-9.4314933"><ele>285.66666666666663</ele><time>2026-04-25T17:54:29.405Z</time></trkpt><trkpt lat="31.529935" lon="-9.4316867"><ele>286.0</ele><time>2026-04-25T17:54:30.405Z</time></trkpt><trkpt lat="31.5298767" lon="-9.43188"><ele>286.0</ele><time>2026-04-25T17:54:31.405Z</time></trkpt><trkpt lat="31.5298133" lon="-9.4320683"><ele>286.0</ele><time>2026-04-25T17:54:32.405Z</time></trkpt><trkpt lat="31.52975" lon="-9.4322483"><ele>286.0</ele><time>2026-04-25T17:54:33.405Z</time></trkpt><trkpt lat="31.529695" lon="-9.4324217"><ele>286.0</ele><time>2026-04-25T17:54:34.405Z</time></trkpt><trkpt lat="31.5296417" lon="-9.4325933"><ele>286.0</ele><time>2026-04-25T17:54:35.405Z</time></trkpt><trkpt lat="31.5295867" lon="-9.43276"><ele>286.0</ele><time>2026-04-25T17:54:36.405Z</time></trkpt><trkpt lat="31.529535" lon="-9.432915"><ele>286.0</ele><time>2026-04-25T17:54:37.405Z</time></trkpt><trkpt lat="31.5294817" lon="-9.43307"><ele>286.0</ele><time>2026-04-25T17:54:38.405Z</time></trkpt><trkpt lat="31.52943" lon="-9.4332167"><ele>286.0</ele><time>2026-04-25T17:54:39.405Z</time></trkpt><trkpt lat="31.5293783" lon="-9.4333583"><ele>286.0</ele><time>2026-04-25T17:54:40.405Z</time></trkpt><trkpt lat="31.5293317" lon="-9.433495"><ele>286.0</ele><time>2026-04-25T17:54:41.405Z</time></trkpt><trkpt lat="31.5292867" lon="-9.4336317"><ele>286.0</ele><time>2026-04-25T17:54:42.405Z</time></trkpt><trkpt lat="31.5292483" lon="-9.4337717"><ele>286.0</ele><time>2026-04-25T17:54:43.405Z</time></trkpt><trkpt lat="31.5292017" lon="-9.4339033"><ele>286.0</ele><time>2026-04-25T17:54:44.405Z</time></trkpt><trkpt lat="31.5291567" lon="-9.4340333"><ele>285.8</ele><time>2026-04-25T17:54:45.405Z</time></trkpt><trkpt lat="31.52911" lon="-9.4341567"><ele>285.6</ele><time>2026-04-25T17:54:46.405Z</time></trkpt><trkpt lat="31.5290733" lon="-9.4342817"><ele>285.4</ele><time>2026-04-25T17:54:47.405Z</time></trkpt><trkpt lat="31.5290333" lon="-9.4343967"><ele>285.2</ele><time>2026-04-25T17:54:48.405Z</time></trkpt><trkpt lat="31.5289933" lon="-9.4345067"><ele>285.0</ele><time>2026-04-25T17:54:49.405Z</time></trkpt><trkpt lat="31.528965" lon="-9.4346033"><ele>285.1666666666667</ele><time>2026-04-25T17:54:50.405Z</time></trkpt><trkpt lat="31.5289283" lon="-9.434705"><ele>285.3333333333333</ele><time>2026-04-25T17:54:52.405Z</time></trkpt><trkpt lat="31.5289017" lon="-9.4347883"><ele>285.5</ele><time>2026-04-25T17:54:55.405Z</time></trkpt><trkpt lat="31.5288667" lon="-9.4349133"><ele>285.66666666666663</ele><time>2026-04-25T17:54:58.405Z</time></trkpt><trkpt lat="31.5288417" lon="-9.4349833"><ele>285.8333333333333</ele><time>2026-04-25T17:54:59.405Z</time></trkpt><trkpt lat="31.5288167" lon="-9.43506"><ele>286.0</ele><time>2026-04-25T17:55:00.405Z</time></trkpt><trkpt lat="31.5287883" lon="-9.435145"><ele>286.0</ele><time>2026-04-25T17:55:01.405Z</time></trkpt><trkpt lat="31.528755" lon="-9.435245"><ele>286.0</ele><time>2026-04-25T17:55:02.405Z</time></trkpt><trkpt lat="31.5287217" lon="-9.4353517"><ele>286.0</ele><time>2026-04-25T17:55:03.405Z</time></trkpt><trkpt lat="31.52868" lon="-9.43547"><ele>286.0</ele><time>2026-04-25T17:55:04.405Z</time></trkpt><trkpt lat="31.52864" lon="-9.4355967"><ele>286.0</ele><time>2026-04-25T17:55:05.406Z</time></trkpt><trkpt lat="31.5285967" lon="-9.4357133"><ele>286.5</ele><time>2026-04-25T17:55:06.405Z</time></trkpt><trkpt lat="31.528565" lon="-9.4358333"><ele>287.0</ele><time>2026-04-25T17:55:07.405Z</time></trkpt><trkpt lat="31.5285267" lon="-9.43596"><ele>287.5</ele><time>2026-04-25T17:55:08.405Z</time></trkpt><trkpt lat="31.5284783" lon="-9.4360983"><ele>288.0</ele><time>2026-04-25T17:55:09.405Z</time></trkpt><trkpt lat="31.5284283" lon="-9.4362583"><ele>288.3333333333333</ele><time>2026-04-25T17:55:10.405Z</time></trkpt><trkpt lat="31.5283733" lon="-9.436435"><ele>288.66666666666663</ele><time>2026-04-25T17:55:11.405Z</time></trkpt><trkpt lat="31.5283133" lon="-9.436625"><ele>289.0</ele><time>2026-04-25T17:55:12.405Z</time></trkpt><trkpt lat="31.528255" lon="-9.4368167"><ele>289.0</ele><time>2026-04-25T17:55:13.405Z</time></trkpt><trkpt lat="31.5281883" lon="-9.43702"><ele>289.0</ele><time>2026-04-25T17:55:14.405Z</time></trkpt><trkpt lat="31.5281217" lon="-9.4372167"><ele>289.0</ele><time>2026-04-25T17:55:15.405Z</time></trkpt><trkpt lat="31.5280583" lon="-9.43742"><ele>289.3333333333333</ele><time>2026-04-25T17:55:16.405Z</time></trkpt><trkpt lat="31.52799" lon="-9.4376283"><ele>289.6666666666667</ele><time>2026-04-25T17:55:17.406Z</time></trkpt><trkpt lat="31.52792" lon="-9.4378367"><ele>290.0</ele><time>2026-04-25T17:55:18.405Z</time></trkpt><trkpt lat="31.527855" lon="-9.4380333"><ele>290.33333333333337</ele><time>2026-04-25T17:55:19.406Z</time></trkpt><trkpt lat="31.527795" lon="-9.438225"><ele>290.6666666666667</ele><time>2026-04-25T17:55:20.405Z</time></trkpt><trkpt lat="31.5277333" lon="-9.438405"><ele>291.0</ele><time>2026-04-25T17:55:21.405Z</time></trkpt><trkpt lat="31.5276767" lon="-9.4385733"><ele>291.0</ele><time>2026-04-25T17:55:22.405Z</time></trkpt><trkpt lat="31.5276217" lon="-9.438735"><ele>291.0</ele><time>2026-04-25T17:55:23.405Z</time></trkpt><trkpt lat="31.527565" lon="-9.4388933"><ele>291.0</ele><time>2026-04-25T17:55:24.405Z</time></trkpt><trkpt lat="31.527515" lon="-9.4390583"><ele>291.0</ele><time>2026-04-25T17:55:25.405Z</time></trkpt><trkpt lat="31.5274633" lon="-9.4392317"><ele>291.0</ele><time>2026-04-25T17:55:26.405Z</time></trkpt><trkpt lat="31.52741" lon="-9.4393983"><ele>291.0</ele><time>2026-04-25T17:55:27.405Z</time></trkpt><trkpt lat="31.5273533" lon="-9.43956"><ele>291.0</ele><time>2026-04-25T17:55:28.405Z</time></trkpt><trkpt lat="31.5273" lon="-9.43973"><ele>291.0</ele><time>2026-04-25T17:55:29.405Z</time></trkpt><trkpt lat="31.52724" lon="-9.4399"><ele>291.0</ele><time>2026-04-25T17:55:30.405Z</time></trkpt><trkpt lat="31.5271833" lon="-9.4400767"><ele>291.0</ele><time>2026-04-25T17:55:31.405Z</time></trkpt><trkpt lat="31.527125" lon="-9.4402567"><ele>291.0</ele><time>2026-04-25T17:55:32.405Z</time></trkpt><trkpt lat="31.52707" lon="-9.4404267"><ele>291.0</ele><time>2026-04-25T17:55:33.405Z</time></trkpt><trkpt lat="31.5270117" lon="-9.4406"><ele>291.0</ele><time>2026-04-25T17:55:34.405Z</time></trkpt><trkpt lat="31.5269533" lon="-9.44078"><ele>290.6666666666667</ele><time>2026-04-25T17:55:35.405Z</time></trkpt><trkpt lat="31.5268967" lon="-9.44096"><ele>290.33333333333337</ele><time>2026-04-25T17:55:36.405Z</time></trkpt><trkpt lat="31.526835" lon="-9.4411367"><ele>290.0</ele><time>2026-04-25T17:55:37.406Z</time></trkpt><trkpt lat="31.52678" lon="-9.4413017"><ele>289.6666666666667</ele><time>2026-04-25T17:55:38.405Z</time></trkpt><trkpt lat="31.526725" lon="-9.44149"><ele>289.3333333333333</ele><time>2026-04-25T17:55:39.405Z</time></trkpt><trkpt lat="31.52667" lon="-9.441675"><ele>289.0</ele><time>2026-04-25T17:55:40.405Z</time></trkpt><trkpt lat="31.5266117" lon="-9.4418733"><ele>289.0</ele><time>2026-04-25T17:55:41.405Z</time></trkpt><trkpt lat="31.52655" lon="-9.4420717"><ele>289.0</ele><time>2026-04-25T17:55:42.405Z</time></trkpt><trkpt lat="31.526485" lon="-9.4422767"><ele>289.0</ele><time>2026-04-25T17:55:43.405Z</time></trkpt><trkpt lat="31.5264217" lon="-9.4424783"><ele>288.66666666666663</ele><time>2026-04-25T17:55:44.405Z</time></trkpt><trkpt lat="31.5263667" lon="-9.4426717"><ele>288.3333333333333</ele><time>2026-04-25T17:55:45.405Z</time></trkpt><trkpt lat="31.5263083" lon="-9.442865"><ele>288.0</ele><time>2026-04-25T17:55:46.405Z</time></trkpt><trkpt lat="31.5262533" lon="-9.443055"><ele>289.6666666666667</ele><time>2026-04-25T17:55:47.405Z</time></trkpt><trkpt lat="31.5261917" lon="-9.44324"><ele>291.33333333333337</ele><time>2026-04-25T17:55:48.405Z</time></trkpt><trkpt lat="31.5261233" lon="-9.44343"><ele>293.0</ele><time>2026-04-25T17:55:49.405Z</time></trkpt><trkpt lat="31.5260533" lon="-9.44363"><ele>293.6666666666667</ele><time>2026-04-25T17:55:50.405Z</time></trkpt><trkpt lat="31.52599" lon="-9.4438317"><ele>294.3333333333333</ele><time>2026-04-25T17:55:51.405Z</time></trkpt><trkpt lat="31.5259333" lon="-9.44402"><ele>295.0</ele><time>2026-04-25T17:55:52.405Z</time></trkpt><trkpt lat="31.5258733" lon="-9.444215"><ele>295.0</ele><time>2026-04-25T17:55:53.405Z</time></trkpt><trkpt lat="31.5258067" lon="-9.4444083"><ele>295.0</ele><time>2026-04-25T17:55:54.405Z</time></trkpt><trkpt lat="31.525745" lon="-9.4445983"><ele>295.0</ele><time>2026-04-25T17:55:55.405Z</time></trkpt><trkpt lat="31.5256833" lon="-9.444785"><ele>294.3333333333333</ele><time>2026-04-25T17:55:56.405Z</time></trkpt><trkpt lat="31.5256217" lon="-9.4449667"><ele>293.6666666666667</ele><time>2026-04-25T17:55:57.405Z</time></trkpt><trkpt lat="31.525565" lon="-9.4451367"><ele>293.0</ele><time>2026-04-25T17:55:58.405Z</time></trkpt><trkpt lat="31.5255033" lon="-9.44531"><ele>292.0</ele><time>2026-04-25T17:55:59.406Z</time></trkpt><trkpt lat="31.5254483" lon="-9.4454733"><ele>291.0</ele><time>2026-04-25T17:56:00.405Z</time></trkpt><trkpt lat="31.5253917" lon="-9.4456433"><ele>290.0</ele><time>2026-04-25T17:56:01.405Z</time></trkpt><trkpt lat="31.5253383" lon="-9.44582"><ele>290.0</ele><time>2026-04-25T17:56:02.405Z</time></trkpt><trkpt lat="31.5252867" lon="-9.4459983"><ele>290.0</ele><time>2026-04-25T17:56:03.405Z</time></trkpt><trkpt lat="31.5252433" lon="-9.4461867"><ele>290.0</ele><time>2026-04-25T17:56:04.405Z</time></trkpt><trkpt lat="31.5251933" lon="-9.4463667"><ele>290.33333333333337</ele><time>2026-04-25T17:56:05.405Z</time></trkpt><trkpt lat="31.5251483" lon="-9.4465633"><ele>290.6666666666667</ele><time>2026-04-25T17:56:06.405Z</time></trkpt><trkpt lat="31.5250983" lon="-9.4467733"><ele>291.0</ele><time>2026-04-25T17:56:07.405Z</time></trkpt><trkpt lat="31.5250533" lon="-9.4470017"><ele>291.0</ele><time>2026-04-25T17:56:08.405Z</time></trkpt><trkpt lat="31.5250133" lon="-9.4472417"><ele>291.0</ele><time>2026-04-25T17:56:09.405Z</time></trkpt><trkpt lat="31.52498" lon="-9.4475083"><ele>291.0</ele><time>2026-04-25T17:56:10.405Z</time></trkpt><trkpt lat="31.5249533" lon="-9.447805"><ele>289.0</ele><time>2026-04-25T17:56:11.405Z</time></trkpt><trkpt lat="31.5249317" lon="-9.448115"><ele>287.0</ele><time>2026-04-25T17:56:12.405Z</time></trkpt><trkpt lat="31.5249183" lon="-9.4484183"><ele>287.0</ele><time>2026-04-25T17:56:13.406Z</time></trkpt><trkpt lat="31.524915" lon="-9.4487167"><ele>287.0</ele><time>2026-04-25T17:56:14.405Z</time></trkpt><trkpt lat="31.5249183" lon="-9.449015"><ele>286.0</ele><time>2026-04-25T17:56:15.405Z</time></trkpt><trkpt lat="31.52493" lon="-9.4493217"><ele>285.0</ele><time>2026-04-25T17:56:16.405Z</time></trkpt><trkpt lat="31.524955" lon="-9.4496283"><ele>284.5</ele><time>2026-04-25T17:56:17.405Z</time></trkpt><trkpt lat="31.5249983" lon="-9.4499167"><ele>284.0</ele><time>2026-04-25T17:56:18.405Z</time></trkpt><trkpt lat="31.52505" lon="-9.4501933"><ele>284.0</ele><time>2026-04-25T17:56:19.406Z</time></trkpt><trkpt lat="31.5251017" lon="-9.450445"><ele>284.0</ele><time>2026-04-25T17:56:20.405Z</time></trkpt><trkpt lat="31.525155" lon="-9.45068"><ele>284.0</ele><time>2026-04-25T17:56:21.405Z</time></trkpt><trkpt lat="31.5252083" lon="-9.4509033"><ele>283.6666666666667</ele><time>2026-04-25T17:56:22.405Z</time></trkpt><trkpt lat="31.5252667" lon="-9.451115"><ele>283.3333333333333</ele><time>2026-04-25T17:56:23.405Z</time></trkpt><trkpt lat="31.5253267" lon="-9.4513133"><ele>283.0</ele><time>2026-04-25T17:56:24.405Z</time></trkpt><trkpt lat="31.5253867" lon="-9.4515017"><ele>282.0</ele><time>2026-04-25T17:56:25.405Z</time></trkpt><trkpt lat="31.5254517" lon="-9.4516833"><ele>281.0</ele><time>2026-04-25T17:56:26.405Z</time></trkpt><trkpt lat="31.5255133" lon="-9.4518483"><ele>280.0</ele><time>2026-04-25T17:56:27.405Z</time></trkpt><trkpt lat="31.5255833" lon="-9.4520083"><ele>279.5</ele><time>2026-04-25T17:56:28.405Z</time></trkpt><trkpt lat="31.5256533" lon="-9.4521617"><ele>279.0</ele><time>2026-04-25T17:56:29.405Z</time></trkpt><trkpt lat="31.525715" lon="-9.4522983"><ele>278.5</ele><time>2026-04-25T17:56:30.405Z</time></trkpt><trkpt lat="31.5257667" lon="-9.4524383"><ele>278.0</ele><time>2026-04-25T17:56:31.405Z</time></trkpt><trkpt lat="31.5258" lon="-9.4525933"><ele>278.0</ele><time>2026-04-25T17:56:32.405Z</time></trkpt><trkpt lat="31.525825" lon="-9.4527617"><ele>278.0</ele><time>2026-04-25T17:56:33.405Z</time></trkpt><trkpt lat="31.52586" lon="-9.4529417"><ele>278.0</ele><time>2026-04-25T17:56:34.405Z</time></trkpt><trkpt lat="31.5259" lon="-9.4531433"><ele>277.6666666666667</ele><time>2026-04-25T17:56:35.405Z</time></trkpt><trkpt lat="31.52595" lon="-9.4533633"><ele>277.3333333333333</ele><time>2026-04-25T17:56:36.405Z</time></trkpt><trkpt lat="31.526015" lon="-9.4536017"><ele>277.0</ele><time>2026-04-25T17:56:37.405Z</time></trkpt><trkpt lat="31.52609" lon="-9.4538433"><ele>277.0</ele><time>2026-04-25T17:56:38.405Z</time></trkpt><trkpt lat="31.5261617" lon="-9.45408"><ele>277.0</ele><time>2026-04-25T17:56:39.406Z</time></trkpt><trkpt lat="31.526245" lon="-9.4543317"><ele>277.0</ele><time>2026-04-25T17:56:40.406Z</time></trkpt><trkpt lat="31.5263233" lon="-9.4545917"><ele>277.0</ele><time>2026-04-25T17:56:41.405Z</time></trkpt><trkpt lat="31.5264083" lon="-9.4548617"><ele>277.0</ele><time>2026-04-25T17:56:42.405Z</time></trkpt><trkpt lat="31.5264917" lon="-9.4551383"><ele>277.0</ele><time>2026-04-25T17:56:43.405Z</time></trkpt><trkpt lat="31.5265817" lon="-9.4554233"><ele>277.0</ele><time>2026-04-25T17:56:44.405Z</time></trkpt><trkpt lat="31.5266683" lon="-9.4557183"><ele>276.0</ele><time>2026-04-25T17:56:45.405Z</time></trkpt><trkpt lat="31.52676" lon="-9.4560233"><ele>275.0</ele><time>2026-04-25T17:56:46.405Z</time></trkpt><trkpt lat="31.52685" lon="-9.45632"><ele>274.0</ele><time>2026-04-25T17:56:47.405Z</time></trkpt><trkpt lat="31.526935" lon="-9.456605"><ele>273.0</ele><time>2026-04-25T17:56:48.405Z</time></trkpt><trkpt lat="31.5270233" lon="-9.4568833"><ele>273.0</ele><time>2026-04-25T17:56:49.405Z</time></trkpt><trkpt lat="31.527115" lon="-9.457165"><ele>273.0</ele><time>2026-04-25T17:56:50.406Z</time></trkpt><trkpt lat="31.5272083" lon="-9.4574633"><ele>273.0</ele><time>2026-04-25T17:56:51.406Z</time></trkpt><trkpt lat="31.5273117" lon="-9.4577883"><ele>273.0</ele><time>2026-04-25T17:56:52.405Z</time></trkpt><trkpt lat="31.5274233" lon="-9.45812"><ele>272.5</ele><time>2026-04-25T17:56:53.405Z</time></trkpt><trkpt lat="31.5275367" lon="-9.4584483"><ele>272.0</ele><time>2026-04-25T17:56:54.405Z</time></trkpt><trkpt lat="31.5276467" lon="-9.4587667"><ele>272.0</ele><time>2026-04-25T17:56:55.405Z</time></trkpt><trkpt lat="31.5277533" lon="-9.4590683"><ele>272.0</ele><time>2026-04-25T17:56:56.405Z</time></trkpt><trkpt lat="31.52786" lon="-9.4593617"><ele>271.0</ele><time>2026-04-25T17:56:57.405Z</time></trkpt><trkpt lat="31.527965" lon="-9.4596483"><ele>270.0</ele><time>2026-04-25T17:56:58.405Z</time></trkpt><trkpt lat="31.5280617" lon="-9.4599367"><ele>270.0</ele><time>2026-04-25T17:56:59.406Z</time></trkpt><trkpt lat="31.5281617" lon="-9.4602267"><ele>270.0</ele><time>2026-04-25T17:57:00.405Z</time></trkpt><trkpt lat="31.5282633" lon="-9.4605217"><ele>269.5</ele><time>2026-04-25T17:57:01.405Z</time></trkpt><trkpt lat="31.5283717" lon="-9.46082"><ele>269.0</ele><time>2026-04-25T17:57:02.405Z</time></trkpt><trkpt lat="31.5284817" lon="-9.4611233"><ele>269.0</ele><time>2026-04-25T17:57:03.405Z</time></trkpt><trkpt lat="31.5285983" lon="-9.4614267"><ele>269.0</ele><time>2026-04-25T17:57:04.405Z</time></trkpt><trkpt lat="31.52872" lon="-9.461735"><ele>268.5</ele><time>2026-04-25T17:57:05.405Z</time></trkpt><trkpt lat="31.528835" lon="-9.4620433"><ele>268.0</ele><time>2026-04-25T17:57:06.405Z</time></trkpt><trkpt lat="31.528945" lon="-9.462355"><ele>268.0</ele><time>2026-04-25T17:57:07.405Z</time></trkpt><trkpt lat="31.5290533" lon="-9.462655"><ele>268.0</ele><time>2026-04-25T17:57:08.405Z</time></trkpt><trkpt lat="31.529155" lon="-9.4629483"><ele>268.0</ele><time>2026-04-25T17:57:09.405Z</time></trkpt><trkpt lat="31.5292583" lon="-9.463245"><ele>268.0</ele><time>2026-04-25T17:57:10.406Z</time></trkpt><trkpt lat="31.529365" lon="-9.4635467"><ele>268.5</ele><time>2026-04-25T17:57:11.405Z</time></trkpt><trkpt lat="31.52947" lon="-9.4638417"><ele>269.0</ele><time>2026-04-25T17:57:12.405Z</time></trkpt><trkpt lat="31.52957" lon="-9.4641233"><ele>269.0</ele><time>2026-04-25T17:57:13.405Z</time></trkpt><trkpt lat="31.5296633" lon="-9.464395"><ele>269.0</ele><time>2026-04-25T17:57:14.405Z</time></trkpt><trkpt lat="31.529755" lon="-9.4646633"><ele>269.0</ele><time>2026-04-25T17:57:15.405Z</time></trkpt><trkpt lat="31.529855" lon="-9.4649417"><ele>269.0</ele><time>2026-04-25T17:57:16.405Z</time></trkpt><trkpt lat="31.5299567" lon="-9.465225"><ele>269.0</ele><time>2026-04-25T17:57:17.405Z</time></trkpt><trkpt lat="31.53006" lon="-9.46551"><ele>269.0</ele><time>2026-04-25T17:57:18.405Z</time></trkpt><trkpt lat="31.5301667" lon="-9.4657933"><ele>269.0</ele><time>2026-04-25T17:57:19.405Z</time></trkpt><trkpt lat="31.5302633" lon="-9.46608"><ele>269.0</ele><time>2026-04-25T17:57:20.405Z</time></trkpt><trkpt lat="31.5303683" lon="-9.4663633"><ele>268.0</ele><time>2026-04-25T17:57:21.405Z</time></trkpt><trkpt lat="31.53047" lon="-9.4666467"><ele>267.0</ele><time>2026-04-25T17:57:22.405Z</time></trkpt><trkpt lat="31.5305683" lon="-9.46693"><ele>267.0</ele><time>2026-04-25T17:57:23.405Z</time></trkpt><trkpt lat="31.53067" lon="-9.4672183"><ele>267.0</ele><time>2026-04-25T17:57:24.405Z</time></trkpt><trkpt lat="31.53077" lon="-9.4675117"><ele>267.0</ele><time>2026-04-25T17:57:25.405Z</time></trkpt><trkpt lat="31.530875" lon="-9.467805"><ele>267.0</ele><time>2026-04-25T17:57:26.405Z</time></trkpt><trkpt lat="31.53098" lon="-9.4681033"><ele>267.5</ele><time>2026-04-25T17:57:27.405Z</time></trkpt><trkpt lat="31.531085" lon="-9.4684"><ele>268.0</ele><time>2026-04-25T17:57:28.405Z</time></trkpt><trkpt lat="31.5311917" lon="-9.4686967"><ele>267.5</ele><time>2026-04-25T17:57:29.405Z</time></trkpt><trkpt lat="31.53131" lon="-9.4689967"><ele>267.0</ele><time>2026-04-25T17:57:30.405Z</time></trkpt><trkpt lat="31.5314217" lon="-9.4692967"><ele>267.0</ele><time>2026-04-25T17:57:31.405Z</time></trkpt><trkpt lat="31.531535" lon="-9.4696033"><ele>267.0</ele><time>2026-04-25T17:57:32.405Z</time></trkpt><trkpt lat="31.531655" lon="-9.4699117"><ele>266.5</ele><time>2026-04-25T17:57:33.405Z</time></trkpt><trkpt lat="31.5317817" lon="-9.4702217"><ele>266.0</ele><time>2026-04-25T17:57:34.405Z</time></trkpt><trkpt lat="31.5319133" lon="-9.47053"><ele>267.0</ele><time>2026-04-25T17:57:35.405Z</time></trkpt><trkpt lat="31.5320533" lon="-9.4708383"><ele>268.0</ele><time>2026-04-25T17:57:36.405Z</time></trkpt><trkpt lat="31.532195" lon="-9.47114"><ele>267.0</ele><time>2026-04-25T17:57:37.405Z</time></trkpt><trkpt lat="31.5323317" lon="-9.4714233"><ele>266.0</ele><time>2026-04-25T17:57:38.405Z</time></trkpt><trkpt lat="31.5324617" lon="-9.471685"><ele>266.0</ele><time>2026-04-25T17:57:39.405Z</time></trkpt><trkpt lat="31.532585" lon="-9.471935"><ele>266.0</ele><time>2026-04-25T17:57:40.405Z</time></trkpt><trkpt lat="31.5327067" lon="-9.4721783"><ele>267.0</ele><time>2026-04-25T17:57:41.405Z</time></trkpt><trkpt lat="31.5328267" lon="-9.4724183"><ele>268.0</ele><time>2026-04-25T17:57:42.405Z</time></trkpt><trkpt lat="31.5329433" lon="-9.4726583"><ele>266.5</ele><time>2026-04-25T17:57:43.405Z</time></trkpt><trkpt lat="31.5330617" lon="-9.47289"><ele>265.0</ele><time>2026-04-25T17:57:44.405Z</time></trkpt><trkpt lat="31.53318" lon="-9.4731217"><ele>265.0</ele><time>2026-04-25T17:57:45.405Z</time></trkpt><trkpt lat="31.5333017" lon="-9.4733583"><ele>265.0</ele><time>2026-04-25T17:57:46.405Z</time></trkpt><trkpt lat="31.5334217" lon="-9.4736"><ele>266.0</ele><time>2026-04-25T17:57:47.405Z</time></trkpt><trkpt lat="31.5335433" lon="-9.4738367"><ele>267.0</ele><time>2026-04-25T17:57:48.405Z</time></trkpt><trkpt lat="31.5336633" lon="-9.4740717"><ele>265.5</ele><time>2026-04-25T17:57:49.405Z</time></trkpt><trkpt lat="31.53378" lon="-9.474305"><ele>264.0</ele><time>2026-04-25T17:57:50.405Z</time></trkpt><trkpt lat="31.5339" lon="-9.4745433"><ele>264.5</ele><time>2026-04-25T17:57:51.405Z</time></trkpt><trkpt lat="31.5340183" lon="-9.4747833"><ele>265.0</ele><time>2026-04-25T17:57:52.405Z</time></trkpt><trkpt lat="31.53414" lon="-9.47503"><ele>265.0</ele><time>2026-04-25T17:57:53.405Z</time></trkpt><trkpt lat="31.5342667" lon="-9.4752783"><ele>265.0</ele><time>2026-04-25T17:57:54.405Z</time></trkpt><trkpt lat="31.5343967" lon="-9.4755333"><ele>265.5</ele><time>2026-04-25T17:57:55.405Z</time></trkpt><trkpt lat="31.5345333" lon="-9.475795"><ele>266.0</ele><time>2026-04-25T17:57:56.405Z</time></trkpt><trkpt lat="31.53467" lon="-9.4760667"><ele>265.5</ele><time>2026-04-25T17:57:57.405Z</time></trkpt><trkpt lat="31.5348033" lon="-9.4763367"><ele>265.0</ele><time>2026-04-25T17:57:58.405Z</time></trkpt><trkpt lat="31.5349267" lon="-9.4765967"><ele>265.0</ele><time>2026-04-25T17:57:59.405Z</time></trkpt><trkpt lat="31.5350583" lon="-9.4768583"><ele>265.0</ele><time>2026-04-25T17:58:00.405Z</time></trkpt><trkpt lat="31.5351833" lon="-9.4771067"><ele>265.0</ele><time>2026-04-25T17:58:01.405Z</time></trkpt><trkpt lat="31.5353033" lon="-9.4773367"><ele>265.0</ele><time>2026-04-25T17:58:02.405Z</time></trkpt><trkpt lat="31.5354167" lon="-9.4775733"><ele>265.0</ele><time>2026-04-25T17:58:03.405Z</time></trkpt><trkpt lat="31.5355183" lon="-9.4778017"><ele>265.0</ele><time>2026-04-25T17:58:04.405Z</time></trkpt><trkpt lat="31.53562" lon="-9.4780433"><ele>265.0</ele><time>2026-04-25T17:58:05.405Z</time></trkpt><trkpt lat="31.53572" lon="-9.478295"><ele>265.0</ele><time>2026-04-25T17:58:06.405Z</time></trkpt><trkpt lat="31.5358167" lon="-9.4785633"><ele>265.0</ele><time>2026-04-25T17:58:07.405Z</time></trkpt><trkpt lat="31.53591" lon="-9.4788417"><ele>266.5</ele><time>2026-04-25T17:58:08.405Z</time></trkpt><trkpt lat="31.5359983" lon="-9.4791233"><ele>268.0</ele><time>2026-04-25T17:58:09.406Z</time></trkpt><trkpt lat="31.536095" lon="-9.4794133"><ele>268.5</ele><time>2026-04-25T17:58:10.405Z</time></trkpt><trkpt lat="31.5361883" lon="-9.4797083"><ele>269.0</ele><time>2026-04-25T17:58:11.405Z</time></trkpt><trkpt lat="31.5362867" lon="-9.4799983"><ele>267.0</ele><time>2026-04-25T17:58:12.405Z</time></trkpt><trkpt lat="31.536385" lon="-9.4802933"><ele>265.0</ele><time>2026-04-25T17:58:13.405Z</time></trkpt><trkpt lat="31.5364817" lon="-9.4805917"><ele>265.0</ele><time>2026-04-25T17:58:14.405Z</time></trkpt><trkpt lat="31.53658" lon="-9.4809"><ele>265.0</ele><time>2026-04-25T17:58:15.405Z</time></trkpt><trkpt lat="31.536675" lon="-9.4812033"><ele>266.5</ele><time>2026-04-25T17:58:16.405Z</time></trkpt><trkpt lat="31.53677" lon="-9.4814933"><ele>268.0</ele><time>2026-04-25T17:58:17.405Z</time></trkpt><trkpt lat="31.5368583" lon="-9.4817683"><ele>268.0</ele><time>2026-04-25T17:58:18.405Z</time></trkpt><trkpt lat="31.5369433" lon="-9.482035"><ele>268.0</ele><time>2026-04-25T17:58:19.405Z</time></trkpt><trkpt lat="31.5370283" lon="-9.4823"><ele>267.0</ele><time>2026-04-25T17:58:20.405Z</time></trkpt><trkpt lat="31.5371133" lon="-9.482565"><ele>266.0</ele><time>2026-04-25T17:58:21.405Z</time></trkpt><trkpt lat="31.5371983" lon="-9.482835"><ele>266.5</ele><time>2026-04-25T17:58:22.405Z</time></trkpt><trkpt lat="31.5372817" lon="-9.4831067"><ele>267.0</ele><time>2026-04-25T17:58:23.405Z</time></trkpt><trkpt lat="31.53737" lon="-9.483375"><ele>267.0</ele><time>2026-04-25T17:58:24.405Z</time></trkpt><trkpt lat="31.5374617" lon="-9.4836433"><ele>267.0</ele><time>2026-04-25T17:58:25.405Z</time></trkpt><trkpt lat="31.53755" lon="-9.4839117"><ele>268.5</ele><time>2026-04-25T17:58:26.405Z</time></trkpt><trkpt lat="31.5376333" lon="-9.484175"><ele>270.0</ele><time>2026-04-25T17:58:27.405Z</time></trkpt><trkpt lat="31.5377117" lon="-9.4844333"><ele>269.0</ele><time>2026-04-25T17:58:28.405Z</time></trkpt><trkpt lat="31.5377833" lon="-9.4846917"><ele>268.0</ele><time>2026-04-25T17:58:29.405Z</time></trkpt><trkpt lat="31.537845" lon="-9.4849617"><ele>267.0</ele><time>2026-04-25T17:58:30.405Z</time></trkpt><trkpt lat="31.537895" lon="-9.4852417"><ele>266.0</ele><time>2026-04-25T17:58:31.406Z</time></trkpt><trkpt lat="31.5379333" lon="-9.48552"><ele>265.0</ele><time>2026-04-25T17:58:32.405Z</time></trkpt><trkpt lat="31.53796" lon="-9.485805"><ele>264.0</ele><time>2026-04-25T17:58:33.405Z</time></trkpt><trkpt lat="31.537975" lon="-9.4861"><ele>263.0</ele><time>2026-04-25T17:58:34.405Z</time></trkpt><trkpt lat="31.53798" lon="-9.4863933"><ele>262.0</ele><time>2026-04-25T17:58:35.405Z</time></trkpt><trkpt lat="31.5379617" lon="-9.4866917"><ele>262.0</ele><time>2026-04-25T17:58:36.405Z</time></trkpt><trkpt lat="31.537935" lon="-9.4869933"><ele>262.0</ele><time>2026-04-25T17:58:37.405Z</time></trkpt><trkpt lat="31.537915" lon="-9.4873083"><ele>262.0</ele><time>2026-04-25T17:58:38.405Z</time></trkpt><trkpt lat="31.5378883" lon="-9.4876233"><ele>262.0</ele><time>2026-04-25T17:58:39.405Z</time></trkpt><trkpt lat="31.5378667" lon="-9.4879283"><ele>262.5</ele><time>2026-04-25T17:58:40.406Z</time></trkpt><trkpt lat="31.53784" lon="-9.4882267"><ele>263.0</ele><time>2026-04-25T17:58:41.405Z</time></trkpt><trkpt lat="31.537815" lon="-9.4885133"><ele>262.5</ele><time>2026-04-25T17:58:42.405Z</time></trkpt><trkpt lat="31.537785" lon="-9.488805"><ele>262.0</ele><time>2026-04-25T17:58:43.405Z</time></trkpt><trkpt lat="31.5377533" lon="-9.4890967"><ele>262.0</ele><time>2026-04-25T17:58:44.406Z</time></trkpt><trkpt lat="31.537725" lon="-9.4893983"><ele>262.0</ele><time>2026-04-25T17:58:45.405Z</time></trkpt><trkpt lat="31.537695" lon="-9.48969"><ele>263.5</ele><time>2026-04-25T17:58:46.405Z</time></trkpt><trkpt lat="31.5376733" lon="-9.48999"><ele>265.0</ele><time>2026-04-25T17:58:47.405Z</time></trkpt><trkpt lat="31.5376533" lon="-9.4903"><ele>265.5</ele><time>2026-04-25T17:58:48.405Z</time></trkpt><trkpt lat="31.537635" lon="-9.490605"><ele>266.0</ele><time>2026-04-25T17:58:49.405Z</time></trkpt><trkpt lat="31.5376133" lon="-9.49092"><ele>266.0</ele><time>2026-04-25T17:58:50.406Z</time></trkpt><trkpt lat="31.5375933" lon="-9.4912217"><ele>266.0</ele><time>2026-04-25T17:58:51.405Z</time></trkpt><trkpt lat="31.5375733" lon="-9.4915117"><ele>264.5</ele><time>2026-04-25T17:58:52.405Z</time></trkpt><trkpt lat="31.537555" lon="-9.49181"><ele>263.0</ele><time>2026-04-25T17:58:53.405Z</time></trkpt><trkpt lat="31.5375367" lon="-9.49212"><ele>263.0</ele><time>2026-04-25T17:58:54.405Z</time></trkpt><trkpt lat="31.5375167" lon="-9.492435"><ele>263.0</ele><time>2026-04-25T17:58:55.405Z</time></trkpt><trkpt lat="31.537505" lon="-9.49275"><ele>263.5</ele><time>2026-04-25T17:58:56.405Z</time></trkpt><trkpt lat="31.5374917" lon="-9.493065"><ele>264.0</ele><time>2026-04-25T17:58:57.405Z</time></trkpt><trkpt lat="31.5374983" lon="-9.49339"><ele>264.0</ele><time>2026-04-25T17:58:58.405Z</time></trkpt><trkpt lat="31.5375167" lon="-9.49371"><ele>264.0</ele><time>2026-04-25T17:58:59.405Z</time></trkpt><trkpt lat="31.5375433" lon="-9.4940217"><ele>264.5</ele><time>2026-04-25T17:59:00.405Z</time></trkpt><trkpt lat="31.5375717" lon="-9.49432"><ele>265.0</ele><time>2026-04-25T17:59:01.405Z</time></trkpt><trkpt lat="31.537615" lon="-9.494615"><ele>265.5</ele><time>2026-04-25T17:59:02.405Z</time></trkpt><trkpt lat="31.537655" lon="-9.494905"><ele>266.0</ele><time>2026-04-25T17:59:03.405Z</time></trkpt><trkpt lat="31.5377133" lon="-9.4951933"><ele>267.0</ele><time>2026-04-25T17:59:04.405Z</time></trkpt><trkpt lat="31.5377733" lon="-9.4954883"><ele>268.0</ele><time>2026-04-25T17:59:05.405Z</time></trkpt><trkpt lat="31.5378333" lon="-9.4957867"><ele>268.0</ele><time>2026-04-25T17:59:06.405Z</time></trkpt><trkpt lat="31.5378933" lon="-9.4960867"><ele>268.0</ele><time>2026-04-25T17:59:07.406Z</time></trkpt><trkpt lat="31.5379683" lon="-9.496395"><ele>268.0</ele><time>2026-04-25T17:59:08.405Z</time></trkpt><trkpt lat="31.5380433" lon="-9.4967033"><ele>268.0</ele><time>2026-04-25T17:59:09.405Z</time></trkpt><trkpt lat="31.53812" lon="-9.4970033"><ele>268.0</ele><time>2026-04-25T17:59:10.405Z</time></trkpt><trkpt lat="31.53819" lon="-9.4973017"><ele>268.0</ele><time>2026-04-25T17:59:11.405Z</time></trkpt><trkpt lat="31.5382567" lon="-9.4975883"><ele>268.0</ele><time>2026-04-25T17:59:12.405Z</time></trkpt><trkpt lat="31.5383233" lon="-9.497875"><ele>268.0</ele><time>2026-04-25T17:59:13.405Z</time></trkpt><trkpt lat="31.5383867" lon="-9.4981683"><ele>267.5</ele><time>2026-04-25T17:59:14.405Z</time></trkpt><trkpt lat="31.5384533" lon="-9.4984633"><ele>267.0</ele><time>2026-04-25T17:59:15.405Z</time></trkpt><trkpt lat="31.5385183" lon="-9.498765"><ele>267.0</ele><time>2026-04-25T17:59:16.405Z</time></trkpt><trkpt lat="31.5385867" lon="-9.499065"><ele>267.0</ele><time>2026-04-25T17:59:17.405Z</time></trkpt><trkpt lat="31.5386483" lon="-9.4993567"><ele>267.0</ele><time>2026-04-25T17:59:18.405Z</time></trkpt><trkpt lat="31.5387133" lon="-9.4996483"><ele>267.0</ele><time>2026-04-25T17:59:19.405Z</time></trkpt><trkpt lat="31.5387767" lon="-9.49994"><ele>264.5</ele><time>2026-04-25T17:59:20.405Z</time></trkpt><trkpt lat="31.5388417" lon="-9.5002333"><ele>262.0</ele><time>2026-04-25T17:59:21.405Z</time></trkpt><trkpt lat="31.5389083" lon="-9.5005317"><ele>261.5</ele><time>2026-04-25T17:59:22.405Z</time></trkpt><trkpt lat="31.5389767" lon="-9.50083"><ele>261.0</ele><time>2026-04-25T17:59:23.405Z</time></trkpt><trkpt lat="31.53904" lon="-9.5011083"><ele>262.0</ele><time>2026-04-25T17:59:24.405Z</time></trkpt><trkpt lat="31.5391033" lon="-9.5013867"><ele>263.0</ele><time>2026-04-25T17:59:25.405Z</time></trkpt><trkpt lat="31.539165" lon="-9.5016733"><ele>263.0</ele><time>2026-04-25T17:59:26.405Z</time></trkpt><trkpt lat="31.53923" lon="-9.5019667"><ele>263.0</ele><time>2026-04-25T17:59:27.405Z</time></trkpt><trkpt lat="31.5392983" lon="-9.50226"><ele>263.0</ele><time>2026-04-25T17:59:28.405Z</time></trkpt><trkpt lat="31.5393633" lon="-9.5025667"><ele>263.0</ele><time>2026-04-25T17:59:29.405Z</time></trkpt><trkpt lat="31.539435" lon="-9.5028817"><ele>263.0</ele><time>2026-04-25T17:59:30.405Z</time></trkpt><trkpt lat="31.5395067" lon="-9.5031983"><ele>263.0</ele><time>2026-04-25T17:59:31.405Z</time></trkpt><trkpt lat="31.5395783" lon="-9.50351"><ele>260.5</ele><time>2026-04-25T17:59:32.405Z</time></trkpt><trkpt lat="31.5396483" lon="-9.503815"><ele>258.0</ele><time>2026-04-25T17:59:33.405Z</time></trkpt><trkpt lat="31.5397217" lon="-9.5041267"><ele>258.0</ele><time>2026-04-25T17:59:34.405Z</time></trkpt><trkpt lat="31.53979" lon="-9.5044433"><ele>258.0</ele><time>2026-04-25T17:59:35.405Z</time></trkpt><trkpt lat="31.5398567" lon="-9.5047583"><ele>258.5</ele><time>2026-04-25T17:59:36.405Z</time></trkpt><trkpt lat="31.5399283" lon="-9.505075"><ele>259.0</ele><time>2026-04-25T17:59:37.405Z</time></trkpt><trkpt lat="31.5400033" lon="-9.5053883"><ele>259.0</ele><time>2026-04-25T17:59:38.405Z</time></trkpt><trkpt lat="31.5400733" lon="-9.5056967"><ele>259.0</ele><time>2026-04-25T17:59:39.405Z</time></trkpt><trkpt lat="31.5401333" lon="-9.505995"><ele>257.5</ele><time>2026-04-25T17:59:40.405Z</time></trkpt><trkpt lat="31.5401933" lon="-9.50629"><ele>256.0</ele><time>2026-04-25T17:59:41.405Z</time></trkpt><trkpt lat="31.5402417" lon="-9.5065867"><ele>256.0</ele><time>2026-04-25T17:59:42.405Z</time></trkpt><trkpt lat="31.5402833" lon="-9.50689"><ele>256.0</ele><time>2026-04-25T17:59:43.405Z</time></trkpt><trkpt lat="31.5403117" lon="-9.507195"><ele>256.0</ele><time>2026-04-25T17:59:44.405Z</time></trkpt><trkpt lat="31.5403333" lon="-9.507495"><ele>256.0</ele><time>2026-04-25T17:59:45.405Z</time></trkpt><trkpt lat="31.5403533" lon="-9.507795"><ele>255.0</ele><time>2026-04-25T17:59:46.405Z</time></trkpt><trkpt lat="31.5403717" lon="-9.5081"><ele>254.0</ele><time>2026-04-25T17:59:47.405Z</time></trkpt><trkpt lat="31.5403883" lon="-9.5084117"><ele>252.0</ele><time>2026-04-25T17:59:48.405Z</time></trkpt><trkpt lat="31.540405" lon="-9.5087317"><ele>250.0</ele><time>2026-04-25T17:59:49.405Z</time></trkpt><trkpt lat="31.5404233" lon="-9.509055"><ele>250.0</ele><time>2026-04-25T17:59:50.405Z</time></trkpt><trkpt lat="31.540445" lon="-9.5093783"><ele>250.0</ele><time>2026-04-25T17:59:51.405Z</time></trkpt><trkpt lat="31.5404683" lon="-9.509695"><ele>250.5</ele><time>2026-04-25T17:59:52.406Z</time></trkpt><trkpt lat="31.5405033" lon="-9.5100017"><ele>251.0</ele><time>2026-04-25T17:59:53.405Z</time></trkpt><trkpt lat="31.5405433" lon="-9.5103033"><ele>251.5</ele><time>2026-04-25T17:59:54.405Z</time></trkpt><trkpt lat="31.5405917" lon="-9.5106117"><ele>252.0</ele><time>2026-04-25T17:59:55.405Z</time></trkpt><trkpt lat="31.5406483" lon="-9.51092"><ele>252.0</ele><time>2026-04-25T17:59:56.405Z</time></trkpt><trkpt lat="31.5407133" lon="-9.5112267"><ele>252.0</ele><time>2026-04-25T17:59:57.405Z</time></trkpt><trkpt lat="31.540785" lon="-9.511525"><ele>252.0</ele><time>2026-04-25T17:59:58.405Z</time></trkpt><trkpt lat="31.54086" lon="-9.5118167"><ele>252.0</ele><time>2026-04-25T17:59:59.405Z</time></trkpt><trkpt lat="31.5409433" lon="-9.5121083"><ele>250.5</ele><time>2026-04-25T18:00:00.405Z</time></trkpt><trkpt lat="31.5410267" lon="-9.512395"><ele>249.0</ele><time>2026-04-25T18:00:01.405Z</time></trkpt><trkpt lat="31.5411083" lon="-9.512675"><ele>248.0</ele><time>2026-04-25T18:00:02.405Z</time></trkpt><trkpt lat="31.5411867" lon="-9.5129433"><ele>247.0</ele><time>2026-04-25T18:00:03.405Z</time></trkpt><trkpt lat="31.5412633" lon="-9.5132117"><ele>247.0</ele><time>2026-04-25T18:00:04.405Z</time></trkpt><trkpt lat="31.541345" lon="-9.5134783"><ele>247.0</ele><time>2026-04-25T18:00:05.405Z</time></trkpt><trkpt lat="31.5414217" lon="-9.51375"><ele>246.5</ele><time>2026-04-25T18:00:06.405Z</time></trkpt><trkpt lat="31.5415067" lon="-9.5140317"><ele>246.0</ele><time>2026-04-25T18:00:07.405Z</time></trkpt><trkpt lat="31.5415917" lon="-9.514315"><ele>246.5</ele><time>2026-04-25T18:00:08.405Z</time></trkpt><trkpt lat="31.5416667" lon="-9.5145933"><ele>247.0</ele><time>2026-04-25T18:00:09.405Z</time></trkpt><trkpt lat="31.5417517" lon="-9.51488"><ele>247.0</ele><time>2026-04-25T18:00:10.405Z</time></trkpt><trkpt lat="31.5418333" lon="-9.51516"><ele>247.0</ele><time>2026-04-25T18:00:11.405Z</time></trkpt><trkpt lat="31.5419117" lon="-9.5154317"><ele>248.0</ele><time>2026-04-25T18:00:12.405Z</time></trkpt><trkpt lat="31.5419867" lon="-9.5156983"><ele>249.0</ele><time>2026-04-25T18:00:13.405Z</time></trkpt><trkpt lat="31.5420617" lon="-9.5159567"><ele>246.5</ele><time>2026-04-25T18:00:14.405Z</time></trkpt><trkpt lat="31.5421283" lon="-9.5162117"><ele>244.0</ele><time>2026-04-25T18:00:15.405Z</time></trkpt><trkpt lat="31.54219" lon="-9.516465"><ele>244.0</ele><time>2026-04-25T18:00:16.405Z</time></trkpt><trkpt lat="31.54224" lon="-9.51672"><ele>244.0</ele><time>2026-04-25T18:00:17.405Z</time></trkpt><trkpt lat="31.5422767" lon="-9.516985"><ele>245.5</ele><time>2026-04-25T18:00:18.405Z</time></trkpt><trkpt lat="31.5423083" lon="-9.5172533"><ele>247.0</ele><time>2026-04-25T18:00:19.405Z</time></trkpt><trkpt lat="31.5423317" lon="-9.5175317"><ele>247.0</ele><time>2026-04-25T18:00:20.405Z</time></trkpt><trkpt lat="31.542345" lon="-9.5178167"><ele>247.0</ele><time>2026-04-25T18:00:21.405Z</time></trkpt><trkpt lat="31.54236" lon="-9.5181083"><ele>246.0</ele><time>2026-04-25T18:00:22.405Z</time></trkpt><trkpt lat="31.5423717" lon="-9.51841"><ele>245.0</ele><time>2026-04-25T18:00:23.405Z</time></trkpt><trkpt lat="31.54238" lon="-9.518715"><ele>244.0</ele><time>2026-04-25T18:00:24.406Z</time></trkpt><trkpt lat="31.54239" lon="-9.5190217"><ele>243.0</ele><time>2026-04-25T18:00:25.405Z</time></trkpt><trkpt lat="31.5424033" lon="-9.5193417"><ele>242.0</ele><time>2026-04-25T18:00:26.405Z</time></trkpt><trkpt lat="31.5424083" lon="-9.5196683"><ele>241.0</ele><time>2026-04-25T18:00:27.405Z</time></trkpt><trkpt lat="31.542415" lon="-9.5199983"><ele>241.0</ele><time>2026-04-25T18:00:28.405Z</time></trkpt><trkpt lat="31.5424217" lon="-9.5203367"><ele>241.0</ele><time>2026-04-25T18:00:29.405Z</time></trkpt><trkpt lat="31.5424183" lon="-9.5206683"><ele>240.0</ele><time>2026-04-25T18:00:30.405Z</time></trkpt><trkpt lat="31.5424033" lon="-9.520985"><ele>239.0</ele><time>2026-04-25T18:00:31.405Z</time></trkpt><trkpt lat="31.5423767" lon="-9.5212967"><ele>238.5</ele><time>2026-04-25T18:00:32.406Z</time></trkpt><trkpt lat="31.5423433" lon="-9.5216083"><ele>238.0</ele><time>2026-04-25T18:00:33.405Z</time></trkpt><trkpt lat="31.5423033" lon="-9.52191"><ele>238.0</ele><time>2026-04-25T18:00:34.405Z</time></trkpt><trkpt lat="31.5422467" lon="-9.5222117"><ele>238.0</ele><time>2026-04-25T18:00:35.405Z</time></trkpt><trkpt lat="31.542185" lon="-9.5225267"><ele>238.0</ele><time>2026-04-25T18:00:36.405Z</time></trkpt><trkpt lat="31.5421117" lon="-9.52284"><ele>238.0</ele><time>2026-04-25T18:00:37.406Z</time></trkpt><trkpt lat="31.5420317" lon="-9.5231417"><ele>237.0</ele><time>2026-04-25T18:00:38.405Z</time></trkpt><trkpt lat="31.5419417" lon="-9.5234283"><ele>236.0</ele><time>2026-04-25T18:00:39.405Z</time></trkpt><trkpt lat="31.5418383" lon="-9.5237117"><ele>235.0</ele><time>2026-04-25T18:00:40.405Z</time></trkpt><trkpt lat="31.5417267" lon="-9.5239833"><ele>234.0</ele><time>2026-04-25T18:00:41.405Z</time></trkpt><trkpt lat="31.5416083" lon="-9.52424"><ele>234.0</ele><time>2026-04-25T18:00:42.405Z</time></trkpt><trkpt lat="31.54148" lon="-9.52449"><ele>234.0</ele><time>2026-04-25T18:00:43.405Z</time></trkpt><trkpt lat="31.5413433" lon="-9.5247467"><ele>234.5</ele><time>2026-04-25T18:00:44.405Z</time></trkpt><trkpt lat="31.5412067" lon="-9.5249967"><ele>235.0</ele><time>2026-04-25T18:00:45.405Z</time></trkpt><trkpt lat="31.5410633" lon="-9.52523"><ele>233.5</ele><time>2026-04-25T18:00:46.405Z</time></trkpt><trkpt lat="31.5409133" lon="-9.5254617"><ele>232.0</ele><time>2026-04-25T18:00:47.405Z</time></trkpt><trkpt lat="31.5407667" lon="-9.525695"><ele>232.0</ele><time>2026-04-25T18:00:48.405Z</time></trkpt><trkpt lat="31.5406167" lon="-9.5259133"><ele>232.0</ele><time>2026-04-25T18:00:49.405Z</time></trkpt><trkpt lat="31.5404683" lon="-9.5261267"><ele>231.66666666666666</ele><time>2026-04-25T18:00:50.405Z</time></trkpt><trkpt lat="31.5403267" lon="-9.526325"><ele>231.33333333333331</ele><time>2026-04-25T18:00:51.405Z</time></trkpt><trkpt lat="31.5401933" lon="-9.526525"><ele>231.0</ele><time>2026-04-25T18:00:52.405Z</time></trkpt><trkpt lat="31.540065" lon="-9.5267233"><ele>231.0</ele><time>2026-04-25T18:00:53.405Z</time></trkpt><trkpt lat="31.539935" lon="-9.5269117"><ele>231.0</ele><time>2026-04-25T18:00:54.405Z</time></trkpt><trkpt lat="31.5397983" lon="-9.5271017"><ele>231.0</ele><time>2026-04-25T18:00:55.405Z</time></trkpt><trkpt lat="31.5396617" lon="-9.5272967"><ele>231.33333333333331</ele><time>2026-04-25T18:00:56.405Z</time></trkpt><trkpt lat="31.5395267" lon="-9.5274967"><ele>231.66666666666666</ele><time>2026-04-25T18:00:57.405Z</time></trkpt><trkpt lat="31.5393983" lon="-9.5277133"><ele>232.0</ele><time>2026-04-25T18:00:58.405Z</time></trkpt><trkpt lat="31.5392783" lon="-9.52794"><ele>230.5</ele><time>2026-04-25T18:00:59.405Z</time></trkpt><trkpt lat="31.5391633" lon="-9.5281817"><ele>229.0</ele><time>2026-04-25T18:01:00.405Z</time></trkpt><trkpt lat="31.5390517" lon="-9.5284217"><ele>229.0</ele><time>2026-04-25T18:01:01.405Z</time></trkpt><trkpt lat="31.5389483" lon="-9.5286633"><ele>229.0</ele><time>2026-04-25T18:01:02.405Z</time></trkpt><trkpt lat="31.5388517" lon="-9.528905"><ele>229.33333333333331</ele><time>2026-04-25T18:01:03.405Z</time></trkpt><trkpt lat="31.5387633" lon="-9.5291467"><ele>229.66666666666669</ele><time>2026-04-25T18:01:04.405Z</time></trkpt><trkpt lat="31.5386767" lon="-9.5293867"><ele>230.0</ele><time>2026-04-25T18:01:05.405Z</time></trkpt><trkpt lat="31.53859" lon="-9.5296317"><ele>229.0</ele><time>2026-04-25T18:01:06.405Z</time></trkpt><trkpt lat="31.538505" lon="-9.529875"><ele>228.0</ele><time>2026-04-25T18:01:07.405Z</time></trkpt><trkpt lat="31.5384183" lon="-9.5301283"><ele>228.0</ele><time>2026-04-25T18:01:08.405Z</time></trkpt><trkpt lat="31.5383283" lon="-9.5303833"><ele>228.0</ele><time>2026-04-25T18:01:09.405Z</time></trkpt><trkpt lat="31.5382333" lon="-9.530645"><ele>227.5</ele><time>2026-04-25T18:01:10.405Z</time></trkpt><trkpt lat="31.5381317" lon="-9.5309017"><ele>227.0</ele><time>2026-04-25T18:01:11.405Z</time></trkpt><trkpt lat="31.5380367" lon="-9.531155"><ele>226.5</ele><time>2026-04-25T18:01:12.405Z</time></trkpt><trkpt lat="31.5379483" lon="-9.5314017"><ele>226.0</ele><time>2026-04-25T18:01:13.405Z</time></trkpt><trkpt lat="31.53786" lon="-9.5316417"><ele>226.0</ele><time>2026-04-25T18:01:14.405Z</time></trkpt><trkpt lat="31.537775" lon="-9.531875"><ele>226.0</ele><time>2026-04-25T18:01:15.405Z</time></trkpt><trkpt lat="31.5376883" lon="-9.5321133"><ele>226.0</ele><time>2026-04-25T18:01:16.406Z</time></trkpt><trkpt lat="31.5376033" lon="-9.5323583"><ele>225.5</ele><time>2026-04-25T18:01:17.405Z</time></trkpt><trkpt lat="31.5375133" lon="-9.5326133"><ele>225.0</ele><time>2026-04-25T18:01:18.405Z</time></trkpt><trkpt lat="31.5374283" lon="-9.5328783"><ele>224.0</ele><time>2026-04-25T18:01:19.405Z</time></trkpt><trkpt lat="31.5373383" lon="-9.5331433"><ele>223.0</ele><time>2026-04-25T18:01:20.405Z</time></trkpt><trkpt lat="31.5372483" lon="-9.53342"><ele>223.0</ele><time>2026-04-25T18:01:21.405Z</time></trkpt><trkpt lat="31.5371567" lon="-9.5336967"><ele>223.0</ele><time>2026-04-25T18:01:22.405Z</time></trkpt><trkpt lat="31.53706" lon="-9.5339783"><ele>222.5</ele><time>2026-04-25T18:01:23.405Z</time></trkpt><trkpt lat="31.5369633" lon="-9.5342583"><ele>222.0</ele><time>2026-04-25T18:01:24.405Z</time></trkpt><trkpt lat="31.5368667" lon="-9.5345467"><ele>221.0</ele><time>2026-04-25T18:01:25.405Z</time></trkpt><trkpt lat="31.5367667" lon="-9.5348367"><ele>220.0</ele><time>2026-04-25T18:01:26.405Z</time></trkpt><trkpt lat="31.5366683" lon="-9.5351317"><ele>220.5</ele><time>2026-04-25T18:01:27.405Z</time></trkpt><trkpt lat="31.536565" lon="-9.53543"><ele>221.0</ele><time>2026-04-25T18:01:28.405Z</time></trkpt><trkpt lat="31.5364633" lon="-9.53572"><ele>221.0</ele><time>2026-04-25T18:01:29.405Z</time></trkpt><trkpt lat="31.5363633" lon="-9.5359933"><ele>221.0</ele><time>2026-04-25T18:01:30.405Z</time></trkpt><trkpt lat="31.536265" lon="-9.5362733"><ele>221.5</ele><time>2026-04-25T18:01:31.405Z</time></trkpt><trkpt lat="31.5361683" lon="-9.5365433"><ele>222.0</ele><time>2026-04-25T18:01:32.405Z</time></trkpt><trkpt lat="31.5360733" lon="-9.5368017"><ele>222.5</ele><time>2026-04-25T18:01:33.405Z</time></trkpt><trkpt lat="31.5359817" lon="-9.5370633"><ele>223.0</ele><time>2026-04-25T18:01:34.405Z</time></trkpt><trkpt lat="31.5358883" lon="-9.5373317"><ele>223.0</ele><time>2026-04-25T18:01:35.405Z</time></trkpt><trkpt lat="31.5358017" lon="-9.5376"><ele>223.0</ele><time>2026-04-25T18:01:36.405Z</time></trkpt><trkpt lat="31.535715" lon="-9.537855"><ele>222.0</ele><time>2026-04-25T18:01:37.405Z</time></trkpt><trkpt lat="31.5356267" lon="-9.5381033"><ele>221.0</ele><time>2026-04-25T18:01:38.405Z</time></trkpt><trkpt lat="31.53554" lon="-9.5383433"><ele>221.0</ele><time>2026-04-25T18:01:39.405Z</time></trkpt><trkpt lat="31.5354583" lon="-9.5385717"><ele>221.0</ele><time>2026-04-25T18:01:40.405Z</time></trkpt><trkpt lat="31.5353817" lon="-9.5388"><ele>221.0</ele><time>2026-04-25T18:01:41.405Z</time></trkpt><trkpt lat="31.535305" lon="-9.53902"><ele>221.0</ele><time>2026-04-25T18:01:42.405Z</time></trkpt><trkpt lat="31.5352283" lon="-9.539235"><ele>221.0</ele><time>2026-04-25T18:01:43.405Z</time></trkpt><trkpt lat="31.53515" lon="-9.53945"><ele>221.0</ele><time>2026-04-25T18:01:44.405Z</time></trkpt><trkpt lat="31.5350767" lon="-9.5396683"><ele>220.66666666666669</ele><time>2026-04-25T18:01:45.405Z</time></trkpt><trkpt lat="31.5350033" lon="-9.53989"><ele>220.33333333333331</ele><time>2026-04-25T18:01:46.405Z</time></trkpt><trkpt lat="31.53493" lon="-9.5401067"><ele>220.0</ele><time>2026-04-25T18:01:47.405Z</time></trkpt><trkpt lat="31.5348533" lon="-9.5403233"><ele>220.0</ele><time>2026-04-25T18:01:48.406Z</time></trkpt><trkpt lat="31.5347783" lon="-9.54053"><ele>220.0</ele><time>2026-04-25T18:01:49.405Z</time></trkpt><trkpt lat="31.534705" lon="-9.54074"><ele>220.0</ele><time>2026-04-25T18:01:50.405Z</time></trkpt><trkpt lat="31.5346367" lon="-9.5409517"><ele>220.0</ele><time>2026-04-25T18:01:51.405Z</time></trkpt><trkpt lat="31.534565" lon="-9.5411583"><ele>220.0</ele><time>2026-04-25T18:01:52.405Z</time></trkpt><trkpt lat="31.534495" lon="-9.54136"><ele>220.0</ele><time>2026-04-25T18:01:53.405Z</time></trkpt><trkpt lat="31.5344217" lon="-9.54156"><ele>219.33333333333331</ele><time>2026-04-25T18:01:54.405Z</time></trkpt><trkpt lat="31.534355" lon="-9.54175"><ele>218.66666666666669</ele><time>2026-04-25T18:01:55.405Z</time></trkpt><trkpt lat="31.5342917" lon="-9.5419317"><ele>218.0</ele><time>2026-04-25T18:01:56.405Z</time></trkpt><trkpt lat="31.5342333" lon="-9.5421133"><ele>218.0</ele><time>2026-04-25T18:01:57.405Z</time></trkpt><trkpt lat="31.5341717" lon="-9.5422967"><ele>218.0</ele><time>2026-04-25T18:01:58.405Z</time></trkpt><trkpt lat="31.5341017" lon="-9.5424783"><ele>218.0</ele><time>2026-04-25T18:01:59.405Z</time></trkpt><trkpt lat="31.5340333" lon="-9.5426633"><ele>218.0</ele><time>2026-04-25T18:02:00.406Z</time></trkpt><trkpt lat="31.533965" lon="-9.5428483"><ele>218.0</ele><time>2026-04-25T18:02:01.405Z</time></trkpt><trkpt lat="31.5338883" lon="-9.5430367"><ele>218.0</ele><time>2026-04-25T18:02:02.405Z</time></trkpt><trkpt lat="31.5338183" lon="-9.5432267"><ele>217.66666666666669</ele><time>2026-04-25T18:02:03.405Z</time></trkpt><trkpt lat="31.5337533" lon="-9.543415"><ele>217.33333333333331</ele><time>2026-04-25T18:02:04.405Z</time></trkpt><trkpt lat="31.533695" lon="-9.5436017"><ele>217.0</ele><time>2026-04-25T18:02:05.405Z</time></trkpt><trkpt lat="31.5336433" lon="-9.54379"><ele>218.0</ele><time>2026-04-25T18:02:06.405Z</time></trkpt><trkpt lat="31.53359" lon="-9.54397"><ele>219.0</ele><time>2026-04-25T18:02:07.405Z</time></trkpt><trkpt lat="31.5335417" lon="-9.544145"><ele>220.0</ele><time>2026-04-25T18:02:08.405Z</time></trkpt><trkpt lat="31.5335" lon="-9.5443133"><ele>220.0</ele><time>2026-04-25T18:02:09.405Z</time></trkpt><trkpt lat="31.53346" lon="-9.544485"><ele>220.0</ele><time>2026-04-25T18:02:10.405Z</time></trkpt><trkpt lat="31.53342" lon="-9.5446617"><ele>220.0</ele><time>2026-04-25T18:02:11.405Z</time></trkpt><trkpt lat="31.533375" lon="-9.5448383"><ele>220.66666666666666</ele><time>2026-04-25T18:02:12.405Z</time></trkpt><trkpt lat="31.5333333" lon="-9.5450117"><ele>221.33333333333331</ele><time>2026-04-25T18:02:13.405Z</time></trkpt><trkpt lat="31.533295" lon="-9.5451917"><ele>222.0</ele><time>2026-04-25T18:02:14.405Z</time></trkpt><trkpt lat="31.5332517" lon="-9.5453683"><ele>222.0</ele><time>2026-04-25T18:02:15.405Z</time></trkpt><trkpt lat="31.5332117" lon="-9.5455433"><ele>222.0</ele><time>2026-04-25T18:02:16.405Z</time></trkpt><trkpt lat="31.5331683" lon="-9.5457233"><ele>222.0</ele><time>2026-04-25T18:02:17.405Z</time></trkpt><trkpt lat="31.533135" lon="-9.5458967"><ele>222.0</ele><time>2026-04-25T18:02:18.405Z</time></trkpt><trkpt lat="31.5331" lon="-9.54606"><ele>222.0</ele><time>2026-04-25T18:02:19.405Z</time></trkpt><trkpt lat="31.5330733" lon="-9.546235"><ele>222.0</ele><time>2026-04-25T18:02:20.405Z</time></trkpt><trkpt lat="31.5330433" lon="-9.5464117"><ele>222.0</ele><time>2026-04-25T18:02:21.405Z</time></trkpt><trkpt lat="31.5330217" lon="-9.54659"><ele>221.5</ele><time>2026-04-25T18:02:22.405Z</time></trkpt><trkpt lat="31.533005" lon="-9.5467633"><ele>221.0</ele><time>2026-04-25T18:02:23.405Z</time></trkpt><trkpt lat="31.5329933" lon="-9.5469283"><ele>220.5</ele><time>2026-04-25T18:02:24.405Z</time></trkpt><trkpt lat="31.5329833" lon="-9.5470833"><ele>220.0</ele><time>2026-04-25T18:02:25.405Z</time></trkpt><trkpt lat="31.532975" lon="-9.5472083"><ele>220.0</ele><time>2026-04-25T18:02:26.405Z</time></trkpt><trkpt lat="31.5329717" lon="-9.54732"><ele>220.0</ele><time>2026-04-25T18:02:27.405Z</time></trkpt><trkpt lat="31.532975" lon="-9.54741"><ele>220.0</ele><time>2026-04-25T18:02:28.405Z</time></trkpt><trkpt lat="31.5329817" lon="-9.5474867"><ele>220.0</ele><time>2026-04-25T18:02:29.405Z</time></trkpt><trkpt lat="31.5330067" lon="-9.5476183"><ele>220.0</ele><time>2026-04-25T18:02:31.405Z</time></trkpt><trkpt lat="31.533035" lon="-9.54776"><ele>219.99999999999997</ele><time>2026-04-25T18:02:33.406Z</time></trkpt><trkpt lat="31.5330233" lon="-9.5478367"><ele>220.0</ele><time>2026-04-25T18:02:34.405Z</time></trkpt><trkpt lat="31.532985" lon="-9.5479183"><ele>220.0</ele><time>2026-04-25T18:02:35.405Z</time></trkpt><trkpt lat="31.532935" lon="-9.548005"><ele>220.0</ele><time>2026-04-25T18:02:36.405Z</time></trkpt><trkpt lat="31.5328767" lon="-9.54809"><ele>219.99999999999997</ele><time>2026-04-25T18:02:37.405Z</time></trkpt><trkpt lat="31.532825" lon="-9.54819"><ele>220.0</ele><time>2026-04-25T18:02:38.405Z</time></trkpt><trkpt lat="31.532775" lon="-9.5482933"><ele>220.4</ele><time>2026-04-25T18:02:39.405Z</time></trkpt><trkpt lat="31.532735" lon="-9.5484017"><ele>220.8</ele><time>2026-04-25T18:02:40.405Z</time></trkpt><trkpt lat="31.5327" lon="-9.548505"><ele>221.2</ele><time>2026-04-25T18:02:41.405Z</time></trkpt><trkpt lat="31.5326683" lon="-9.5486017"><ele>221.6</ele><time>2026-04-25T18:02:42.405Z</time></trkpt><trkpt lat="31.5326383" lon="-9.548695"><ele>222.0</ele><time>2026-04-25T18:02:43.405Z</time></trkpt><trkpt lat="31.53261" lon="-9.5487883"><ele>222.2</ele><time>2026-04-25T18:02:44.405Z</time></trkpt><trkpt lat="31.5325833" lon="-9.5488917"><ele>222.39999999999998</ele><time>2026-04-25T18:02:45.405Z</time></trkpt><trkpt lat="31.5325567" lon="-9.5490017"><ele>222.60000000000002</ele><time>2026-04-25T18:02:46.405Z</time></trkpt><trkpt lat="31.53253" lon="-9.549115"><ele>222.8</ele><time>2026-04-25T18:02:47.405Z</time></trkpt><trkpt lat="31.5325033" lon="-9.5492217"><ele>223.0</ele><time>2026-04-25T18:02:48.405Z</time></trkpt><trkpt lat="31.5324767" lon="-9.549325"><ele>223.0</ele><time>2026-04-25T18:02:49.405Z</time></trkpt><trkpt lat="31.53245" lon="-9.5494367"><ele>223.0</ele><time>2026-04-25T18:02:50.405Z</time></trkpt><trkpt lat="31.5324217" lon="-9.5495567"><ele>223.0</ele><time>2026-04-25T18:02:51.405Z</time></trkpt><trkpt lat="31.53239" lon="-9.549675"><ele>223.0</ele><time>2026-04-25T18:02:52.405Z</time></trkpt><trkpt lat="31.532365" lon="-9.549795"><ele>223.0</ele><time>2026-04-25T18:02:53.405Z</time></trkpt><trkpt lat="31.5323317" lon="-9.5499217"><ele>222.75</ele><time>2026-04-25T18:02:54.405Z</time></trkpt><trkpt lat="31.5323" lon="-9.550055"><ele>222.5</ele><time>2026-04-25T18:02:55.405Z</time></trkpt><trkpt lat="31.53227" lon="-9.550195"><ele>222.25</ele><time>2026-04-25T18:02:56.405Z</time></trkpt><trkpt lat="31.5322483" lon="-9.550335"><ele>222.0</ele><time>2026-04-25T18:02:57.405Z</time></trkpt><trkpt lat="31.53222" lon="-9.5504767"><ele>222.0</ele><time>2026-04-25T18:02:58.405Z</time></trkpt><trkpt lat="31.5321933" lon="-9.5506183"><ele>222.0</ele><time>2026-04-25T18:02:59.405Z</time></trkpt><trkpt lat="31.532165" lon="-9.55077"><ele>222.0</ele><time>2026-04-25T18:03:00.405Z</time></trkpt><trkpt lat="31.53213" lon="-9.55093"><ele>222.0</ele><time>2026-04-25T18:03:01.405Z</time></trkpt><trkpt lat="31.5321" lon="-9.551095"><ele>222.0</ele><time>2026-04-25T18:03:02.405Z</time></trkpt><trkpt lat="31.5320733" lon="-9.5512517"><ele>222.0</ele><time>2026-04-25T18:03:03.405Z</time></trkpt><trkpt lat="31.5320467" lon="-9.5513983"><ele>222.0</ele><time>2026-04-25T18:03:04.405Z</time></trkpt><trkpt lat="31.5320133" lon="-9.55153"><ele>222.0</ele><time>2026-04-25T18:03:05.405Z</time></trkpt><trkpt lat="31.5319817" lon="-9.551655"><ele>222.0</ele><time>2026-04-25T18:03:06.405Z</time></trkpt><trkpt lat="31.531955" lon="-9.5517867"><ele>222.0</ele><time>2026-04-25T18:03:07.405Z</time></trkpt><trkpt lat="31.5319283" lon="-9.5519083"><ele>222.0</ele><time>2026-04-25T18:03:08.405Z</time></trkpt><trkpt lat="31.5319033" lon="-9.5520183"><ele>222.0</ele><time>2026-04-25T18:03:09.405Z</time></trkpt><trkpt lat="31.531885" lon="-9.5521217"><ele>222.0</ele><time>2026-04-25T18:03:10.405Z</time></trkpt><trkpt lat="31.5318683" lon="-9.5522167"><ele>221.6</ele><time>2026-04-25T18:03:11.405Z</time></trkpt><trkpt lat="31.5318517" lon="-9.5523"><ele>221.2</ele><time>2026-04-25T18:03:12.406Z</time></trkpt><trkpt lat="31.5318217" lon="-9.552435"><ele>220.8</ele><time>2026-04-25T18:03:14.405Z</time></trkpt><trkpt lat="31.531795" lon="-9.55255"><ele>220.4</ele><time>2026-04-25T18:03:16.405Z</time></trkpt><trkpt lat="31.5317767" lon="-9.5526467"><ele>220.0</ele><time>2026-04-25T18:03:18.405Z</time></trkpt><trkpt lat="31.5317633" lon="-9.552745"><ele>219.99999999999997</ele><time>2026-04-25T18:03:21.405Z</time></trkpt><trkpt lat="31.5317483" lon="-9.55282"><ele>220.0</ele><time>2026-04-25T18:03:23.405Z</time></trkpt><trkpt lat="31.531725" lon="-9.5529317"><ele>220.0</ele><time>2026-04-25T18:03:25.405Z</time></trkpt><trkpt lat="31.5317117" lon="-9.55301"><ele>220.0</ele><time>2026-04-25T18:03:26.405Z</time></trkpt><trkpt lat="31.5316967" lon="-9.5530967"><ele>219.99999999999997</ele><time>2026-04-25T18:03:27.405Z</time></trkpt><trkpt lat="31.5316767" lon="-9.5531917"><ele>220.0</ele><time>2026-04-25T18:03:28.405Z</time></trkpt><trkpt lat="31.53166" lon="-9.5533017"><ele>221.0</ele><time>2026-04-25T18:03:29.405Z</time></trkpt><trkpt lat="31.53164" lon="-9.5534233"><ele>222.0</ele><time>2026-04-25T18:03:30.405Z</time></trkpt><trkpt lat="31.53162" lon="-9.553555"><ele>223.0</ele><time>2026-04-25T18:03:31.406Z</time></trkpt><trkpt lat="31.5315933" lon="-9.55369"><ele>224.0</ele><time>2026-04-25T18:03:32.405Z</time></trkpt><trkpt lat="31.53157" lon="-9.5538367"><ele>225.0</ele><time>2026-04-25T18:03:33.405Z</time></trkpt><trkpt lat="31.53154" lon="-9.5539983"><ele>226.0</ele><time>2026-04-25T18:03:34.405Z</time></trkpt><trkpt lat="31.5315083" lon="-9.5541733"><ele>227.0</ele><time>2026-04-25T18:03:35.405Z</time></trkpt><trkpt lat="31.531475" lon="-9.5543683"><ele>227.66666666666669</ele><time>2026-04-25T18:03:36.405Z</time></trkpt><trkpt lat="31.5314383" lon="-9.5545567"><ele>228.33333333333331</ele><time>2026-04-25T18:03:37.405Z</time></trkpt><trkpt lat="31.5313967" lon="-9.554755"><ele>229.0</ele><time>2026-04-25T18:03:38.405Z</time></trkpt><trkpt lat="31.5313583" lon="-9.554945"><ele>229.0</ele><time>2026-04-25T18:03:39.405Z</time></trkpt><trkpt lat="31.531315" lon="-9.5551317"><ele>229.0</ele><time>2026-04-25T18:03:40.405Z</time></trkpt><trkpt lat="31.5312733" lon="-9.555315"><ele>229.0</ele><time>2026-04-25T18:03:41.405Z</time></trkpt><trkpt lat="31.531235" lon="-9.5555"><ele>229.66666666666666</ele><time>2026-04-25T18:03:42.405Z</time></trkpt><trkpt lat="31.5312017" lon="-9.5556867"><ele>230.33333333333331</ele><time>2026-04-25T18:03:43.405Z</time></trkpt><trkpt lat="31.53117" lon="-9.5558667"><ele>231.0</ele><time>2026-04-25T18:03:44.405Z</time></trkpt><trkpt lat="31.5311383" lon="-9.55605"><ele>232.0</ele><time>2026-04-25T18:03:45.405Z</time></trkpt><trkpt lat="31.5311033" lon="-9.5562267"><ele>233.0</ele><time>2026-04-25T18:03:46.405Z</time></trkpt><trkpt lat="31.5310683" lon="-9.556405"><ele>234.0</ele><time>2026-04-25T18:03:47.405Z</time></trkpt><trkpt lat="31.531035" lon="-9.5565833"><ele>234.0</ele><time>2026-04-25T18:03:48.405Z</time></trkpt><trkpt lat="31.531005" lon="-9.5567667"><ele>234.0</ele><time>2026-04-25T18:03:49.405Z</time></trkpt><trkpt lat="31.5309733" lon="-9.5569517"><ele>234.0</ele><time>2026-04-25T18:03:50.405Z</time></trkpt><trkpt lat="31.5309433" lon="-9.5571267"><ele>235.0</ele><time>2026-04-25T18:03:51.405Z</time></trkpt><trkpt lat="31.5309167" lon="-9.5573133"><ele>236.0</ele><time>2026-04-25T18:03:52.405Z</time></trkpt><trkpt lat="31.53089" lon="-9.5575"><ele>237.0</ele><time>2026-04-25T18:03:53.405Z</time></trkpt><trkpt lat="31.53086" lon="-9.5576867"><ele>239.0</ele><time>2026-04-25T18:03:54.405Z</time></trkpt><trkpt lat="31.5308383" lon="-9.5578733"><ele>241.0</ele><time>2026-04-25T18:03:55.405Z</time></trkpt><trkpt lat="31.5308133" lon="-9.558065"><ele>243.0</ele><time>2026-04-25T18:03:56.405Z</time></trkpt><trkpt lat="31.5307867" lon="-9.5582517"><ele>243.0</ele><time>2026-04-25T18:03:57.405Z</time></trkpt><trkpt lat="31.5307683" lon="-9.55844"><ele>243.0</ele><time>2026-04-25T18:03:58.405Z</time></trkpt><trkpt lat="31.5307467" lon="-9.5586267"><ele>243.0</ele><time>2026-04-25T18:03:59.405Z</time></trkpt><trkpt lat="31.5307283" lon="-9.5588167"><ele>243.66666666666669</ele><time>2026-04-25T18:04:00.405Z</time></trkpt><trkpt lat="31.5307133" lon="-9.5590083"><ele>244.33333333333334</ele><time>2026-04-25T18:04:01.405Z</time></trkpt><trkpt lat="31.5306933" lon="-9.559195"><ele>245.0</ele><time>2026-04-25T18:04:02.406Z</time></trkpt><trkpt lat="31.530675" lon="-9.5593917"><ele>246.33333333333334</ele><time>2026-04-25T18:04:03.405Z</time></trkpt><trkpt lat="31.5306583" lon="-9.5595867"><ele>247.66666666666669</ele><time>2026-04-25T18:04:04.405Z</time></trkpt><trkpt lat="31.53064" lon="-9.559795"><ele>249.0</ele><time>2026-04-25T18:04:05.405Z</time></trkpt><trkpt lat="31.5306183" lon="-9.5600167"><ele>249.0</ele><time>2026-04-25T18:04:06.405Z</time></trkpt><trkpt lat="31.5305967" lon="-9.560235"><ele>249.0</ele><time>2026-04-25T18:04:07.406Z</time></trkpt><trkpt lat="31.5305817" lon="-9.56045"><ele>249.0</ele><time>2026-04-25T18:04:08.405Z</time></trkpt><trkpt lat="31.5305633" lon="-9.5606667"><ele>250.0</ele><time>2026-04-25T18:04:09.405Z</time></trkpt><trkpt lat="31.530555" lon="-9.5608933"><ele>251.0</ele><time>2026-04-25T18:04:10.405Z</time></trkpt><trkpt lat="31.5305467" lon="-9.5611283"><ele>252.0</ele><time>2026-04-25T18:04:11.405Z</time></trkpt><trkpt lat="31.53054" lon="-9.561365"><ele>253.0</ele><time>2026-04-25T18:04:12.405Z</time></trkpt><trkpt lat="31.5305433" lon="-9.5616083"><ele>254.0</ele><time>2026-04-25T18:04:13.405Z</time></trkpt><trkpt lat="31.5305533" lon="-9.5618517"><ele>255.0</ele><time>2026-04-25T18:04:14.405Z</time></trkpt><trkpt lat="31.5305517" lon="-9.56211"><ele>255.66666666666669</ele><time>2026-04-25T18:04:15.405Z</time></trkpt><trkpt lat="31.530555" lon="-9.5623567"><ele>256.33333333333337</ele><time>2026-04-25T18:04:16.405Z</time></trkpt><trkpt lat="31.5305617" lon="-9.562605"><ele>257.0</ele><time>2026-04-25T18:04:17.405Z</time></trkpt><trkpt lat="31.53056" lon="-9.5628517"><ele>258.33333333333337</ele><time>2026-04-25T18:04:18.405Z</time></trkpt><trkpt lat="31.5305583" lon="-9.5630883"><ele>259.6666666666667</ele><time>2026-04-25T18:04:19.405Z</time></trkpt><trkpt lat="31.5305617" lon="-9.5633167"><ele>261.0</ele><time>2026-04-25T18:04:20.405Z</time></trkpt><trkpt lat="31.5305583" lon="-9.5635567"><ele>260.6666666666667</ele><time>2026-04-25T18:04:21.406Z</time></trkpt><trkpt lat="31.5305567" lon="-9.5638017"><ele>260.33333333333337</ele><time>2026-04-25T18:04:22.405Z</time></trkpt><trkpt lat="31.5305483" lon="-9.5640517"><ele>260.0</ele><time>2026-04-25T18:04:23.405Z</time></trkpt><trkpt lat="31.5305317" lon="-9.5643083"><ele>259.0</ele><time>2026-04-25T18:04:24.405Z</time></trkpt><trkpt lat="31.530505" lon="-9.5645633"><ele>258.0</ele><time>2026-04-25T18:04:25.405Z</time></trkpt><trkpt lat="31.5304767" lon="-9.5648233"><ele>257.0</ele><time>2026-04-25T18:04:26.405Z</time></trkpt><trkpt lat="31.5304383" lon="-9.5650783"><ele>257.0</ele><time>2026-04-25T18:04:27.405Z</time></trkpt><trkpt lat="31.5303967" lon="-9.5653383"><ele>257.0</ele><time>2026-04-25T18:04:28.405Z</time></trkpt><trkpt lat="31.53035" lon="-9.5656"><ele>256.0</ele><time>2026-04-25T18:04:29.405Z</time></trkpt><trkpt lat="31.5303017" lon="-9.56586"><ele>255.0</ele><time>2026-04-25T18:04:30.405Z</time></trkpt><trkpt lat="31.5302533" lon="-9.5661233"><ele>257.0</ele><time>2026-04-25T18:04:31.405Z</time></trkpt><trkpt lat="31.5302033" lon="-9.5663867"><ele>259.0</ele><time>2026-04-25T18:04:32.405Z</time></trkpt><trkpt lat="31.5301517" lon="-9.5666483"><ele>259.0</ele><time>2026-04-25T18:04:33.405Z</time></trkpt><trkpt lat="31.530105" lon="-9.5669083"><ele>259.0</ele><time>2026-04-25T18:04:34.405Z</time></trkpt><trkpt lat="31.5300567" lon="-9.5671717"><ele>261.0</ele><time>2026-04-25T18:04:35.405Z</time></trkpt><trkpt lat="31.5300117" lon="-9.567435"><ele>263.0</ele><time>2026-04-25T18:04:36.405Z</time></trkpt><trkpt lat="31.5299583" lon="-9.5677"><ele>265.0</ele><time>2026-04-25T18:04:37.405Z</time></trkpt><trkpt lat="31.5299083" lon="-9.5679683"><ele>267.0</ele><time>2026-04-25T18:04:38.405Z</time></trkpt><trkpt lat="31.5298567" lon="-9.5682383"><ele>267.0</ele><time>2026-04-25T18:04:39.405Z</time></trkpt><trkpt lat="31.5298083" lon="-9.5685083"><ele>267.0</ele><time>2026-04-25T18:04:40.405Z</time></trkpt><trkpt lat="31.5297583" lon="-9.5687833"><ele>269.5</ele><time>2026-04-25T18:04:41.405Z</time></trkpt><trkpt lat="31.52971" lon="-9.5690583"><ele>272.0</ele><time>2026-04-25T18:04:42.405Z</time></trkpt><trkpt lat="31.52967" lon="-9.5693383"><ele>273.0</ele><time>2026-04-25T18:04:43.405Z</time></trkpt><trkpt lat="31.529635" lon="-9.5696133"><ele>274.0</ele><time>2026-04-25T18:04:44.405Z</time></trkpt><trkpt lat="31.5296133" lon="-9.5698733"><ele>274.0</ele><time>2026-04-25T18:04:45.405Z</time></trkpt><trkpt lat="31.5296017" lon="-9.5701367"><ele>274.0</ele><time>2026-04-25T18:04:46.405Z</time></trkpt><trkpt lat="31.5295983" lon="-9.5704083"><ele>275.5</ele><time>2026-04-25T18:04:47.405Z</time></trkpt><trkpt lat="31.5296033" lon="-9.57068"><ele>277.0</ele><time>2026-04-25T18:04:48.405Z</time></trkpt><trkpt lat="31.52962" lon="-9.5709433"><ele>278.0</ele><time>2026-04-25T18:04:49.405Z</time></trkpt><trkpt lat="31.5296483" lon="-9.5712167"><ele>279.0</ele><time>2026-04-25T18:04:50.405Z</time></trkpt><trkpt lat="31.5296767" lon="-9.5714883"><ele>279.0</ele><time>2026-04-25T18:04:51.405Z</time></trkpt><trkpt lat="31.5297117" lon="-9.5717717"><ele>279.0</ele><time>2026-04-25T18:04:52.405Z</time></trkpt><trkpt lat="31.5297433" lon="-9.57207"><ele>278.0</ele><time>2026-04-25T18:04:53.405Z</time></trkpt><trkpt lat="31.5297717" lon="-9.5723833"><ele>277.0</ele><time>2026-04-25T18:04:54.405Z</time></trkpt><trkpt lat="31.5298033" lon="-9.5726933"><ele>277.0</ele><time>2026-04-25T18:04:55.405Z</time></trkpt><trkpt lat="31.5298333" lon="-9.57299"><ele>277.0</ele><time>2026-04-25T18:04:56.405Z</time></trkpt><trkpt lat="31.5298567" lon="-9.573285"><ele>277.0</ele><time>2026-04-25T18:04:57.405Z</time></trkpt><trkpt lat="31.529885" lon="-9.5735867"><ele>277.0</ele><time>2026-04-25T18:04:58.405Z</time></trkpt><trkpt lat="31.52991" lon="-9.5739"><ele>277.0</ele><time>2026-04-25T18:04:59.405Z</time></trkpt><trkpt lat="31.5299383" lon="-9.5742317"><ele>277.0</ele><time>2026-04-25T18:05:00.405Z</time></trkpt><trkpt lat="31.52997" lon="-9.57454"><ele>278.5</ele><time>2026-04-25T18:05:01.405Z</time></trkpt><trkpt lat="31.5300083" lon="-9.57486"><ele>280.0</ele><time>2026-04-25T18:05:02.405Z</time></trkpt><trkpt lat="31.5300483" lon="-9.57519"><ele>280.0</ele><time>2026-04-25T18:05:03.405Z</time></trkpt><trkpt lat="31.53009" lon="-9.57551"><ele>280.0</ele><time>2026-04-25T18:05:04.405Z</time></trkpt><trkpt lat="31.53013" lon="-9.57583"><ele>280.0</ele><time>2026-04-25T18:05:05.405Z</time></trkpt><trkpt lat="31.5301667" lon="-9.5761383"><ele>280.0</ele><time>2026-04-25T18:05:06.405Z</time></trkpt><trkpt lat="31.5302033" lon="-9.576435"><ele>278.5</ele><time>2026-04-25T18:05:07.405Z</time></trkpt><trkpt lat="31.5302417" lon="-9.57674"><ele>277.0</ele><time>2026-04-25T18:05:08.405Z</time></trkpt><trkpt lat="31.5302883" lon="-9.5770483"><ele>276.5</ele><time>2026-04-25T18:05:09.405Z</time></trkpt><trkpt lat="31.5303433" lon="-9.5773583"><ele>276.0</ele><time>2026-04-25T18:05:10.405Z</time></trkpt><trkpt lat="31.530405" lon="-9.5776633"><ele>272.0</ele><time>2026-04-25T18:05:11.405Z</time></trkpt><trkpt lat="31.5304733" lon="-9.5779683"><ele>268.0</ele><time>2026-04-25T18:05:12.405Z</time></trkpt><trkpt lat="31.5305467" lon="-9.5782783"><ele>268.0</ele><time>2026-04-25T18:05:13.405Z</time></trkpt><trkpt lat="31.53062" lon="-9.57859"><ele>268.0</ele><time>2026-04-25T18:05:14.405Z</time></trkpt><trkpt lat="31.5306967" lon="-9.5788983"><ele>267.0</ele><time>2026-04-25T18:05:15.406Z</time></trkpt><trkpt lat="31.5307633" lon="-9.5791917"><ele>266.0</ele><time>2026-04-25T18:05:16.406Z</time></trkpt><trkpt lat="31.5308283" lon="-9.5794733"><ele>266.0</ele><time>2026-04-25T18:05:17.405Z</time></trkpt><trkpt lat="31.5309" lon="-9.5797583"><ele>266.0</ele><time>2026-04-25T18:05:18.405Z</time></trkpt><trkpt lat="31.5309667" lon="-9.5800483"><ele>266.0</ele><time>2026-04-25T18:05:19.405Z</time></trkpt><trkpt lat="31.5310383" lon="-9.5803433"><ele>266.0</ele><time>2026-04-25T18:05:20.405Z</time></trkpt><trkpt lat="31.5311033" lon="-9.5806267"><ele>265.5</ele><time>2026-04-25T18:05:21.405Z</time></trkpt><trkpt lat="31.5311667" lon="-9.58091"><ele>265.0</ele><time>2026-04-25T18:05:22.405Z</time></trkpt><trkpt lat="31.5312233" lon="-9.5812017"><ele>261.0</ele><time>2026-04-25T18:05:23.405Z</time></trkpt><trkpt lat="31.53127" lon="-9.581495"><ele>257.0</ele><time>2026-04-25T18:05:24.405Z</time></trkpt><trkpt lat="31.531305" lon="-9.5817917"><ele>255.0</ele><time>2026-04-25T18:05:25.405Z</time></trkpt><trkpt lat="31.5313217" lon="-9.5820917"><ele>253.0</ele><time>2026-04-25T18:05:26.405Z</time></trkpt><trkpt lat="31.53133" lon="-9.582395"><ele>253.0</ele><time>2026-04-25T18:05:27.405Z</time></trkpt><trkpt lat="31.5313233" lon="-9.582685"><ele>253.0</ele><time>2026-04-25T18:05:28.405Z</time></trkpt><trkpt lat="31.5313117" lon="-9.5829683"><ele>252.0</ele><time>2026-04-25T18:05:29.405Z</time></trkpt><trkpt lat="31.5313033" lon="-9.5832483"><ele>251.0</ele><time>2026-04-25T18:05:30.406Z</time></trkpt><trkpt lat="31.5312917" lon="-9.5835233"><ele>249.0</ele><time>2026-04-25T18:05:31.405Z</time></trkpt><trkpt lat="31.5312917" lon="-9.5837983"><ele>247.0</ele><time>2026-04-25T18:05:32.405Z</time></trkpt><trkpt lat="31.5313117" lon="-9.5840717"><ele>247.0</ele><time>2026-04-25T18:05:33.405Z</time></trkpt><trkpt lat="31.5313433" lon="-9.5843483"><ele>247.0</ele><time>2026-04-25T18:05:34.405Z</time></trkpt><trkpt lat="31.5313817" lon="-9.5846267"><ele>246.5</ele><time>2026-04-25T18:05:35.405Z</time></trkpt><trkpt lat="31.5314183" lon="-9.5849017"><ele>246.0</ele><time>2026-04-25T18:05:36.405Z</time></trkpt><trkpt lat="31.53145" lon="-9.5851767"><ele>244.5</ele><time>2026-04-25T18:05:37.405Z</time></trkpt><trkpt lat="31.5314917" lon="-9.5854617"><ele>243.0</ele><time>2026-04-25T18:05:38.405Z</time></trkpt><trkpt lat="31.5315317" lon="-9.58574"><ele>243.0</ele><time>2026-04-25T18:05:39.405Z</time></trkpt><trkpt lat="31.53156" lon="-9.5860217"><ele>243.0</ele><time>2026-04-25T18:05:40.405Z</time></trkpt><trkpt lat="31.5315867" lon="-9.5863083"><ele>240.5</ele><time>2026-04-25T18:05:41.405Z</time></trkpt><trkpt lat="31.5316083" lon="-9.5865933"><ele>238.0</ele><time>2026-04-25T18:05:42.405Z</time></trkpt><trkpt lat="31.5316333" lon="-9.586875"><ele>235.0</ele><time>2026-04-25T18:05:43.405Z</time></trkpt><trkpt lat="31.5316533" lon="-9.58715"><ele>232.0</ele><time>2026-04-25T18:05:44.405Z</time></trkpt><trkpt lat="31.5316733" lon="-9.5874267"><ele>232.0</ele><time>2026-04-25T18:05:45.405Z</time></trkpt><trkpt lat="31.531695" lon="-9.587695"><ele>232.0</ele><time>2026-04-25T18:05:46.405Z</time></trkpt><trkpt lat="31.531715" lon="-9.5879617"><ele>231.5</ele><time>2026-04-25T18:05:47.405Z</time></trkpt><trkpt lat="31.531735" lon="-9.5882317"><ele>231.0</ele><time>2026-04-25T18:05:48.405Z</time></trkpt><trkpt lat="31.53175" lon="-9.5885"><ele>229.5</ele><time>2026-04-25T18:05:49.405Z</time></trkpt><trkpt lat="31.5317767" lon="-9.58876"><ele>228.0</ele><time>2026-04-25T18:05:50.406Z</time></trkpt><trkpt lat="31.531805" lon="-9.5890333"><ele>228.0</ele><time>2026-04-25T18:05:51.405Z</time></trkpt><trkpt lat="31.5318467" lon="-9.5893017"><ele>228.0</ele><time>2026-04-25T18:05:52.405Z</time></trkpt><trkpt lat="31.5318883" lon="-9.589575"><ele>227.5</ele><time>2026-04-25T18:05:53.405Z</time></trkpt><trkpt lat="31.5319333" lon="-9.5898483"><ele>227.0</ele><time>2026-04-25T18:05:54.405Z</time></trkpt><trkpt lat="31.5319817" lon="-9.5901217"><ele>226.5</ele><time>2026-04-25T18:05:55.405Z</time></trkpt><trkpt lat="31.53204" lon="-9.5904"><ele>226.0</ele><time>2026-04-25T18:05:56.405Z</time></trkpt><trkpt lat="31.5321067" lon="-9.59068"><ele>225.5</ele><time>2026-04-25T18:05:57.405Z</time></trkpt><trkpt lat="31.53217" lon="-9.5909567"><ele>225.0</ele><time>2026-04-25T18:05:58.406Z</time></trkpt><trkpt lat="31.532235" lon="-9.591235"><ele>223.5</ele><time>2026-04-25T18:05:59.405Z</time></trkpt><trkpt lat="31.5322983" lon="-9.5915167"><ele>222.0</ele><time>2026-04-25T18:06:00.405Z</time></trkpt><trkpt lat="31.5323583" lon="-9.5917933"><ele>220.5</ele><time>2026-04-25T18:06:01.405Z</time></trkpt><trkpt lat="31.5324133" lon="-9.592075"><ele>219.0</ele><time>2026-04-25T18:06:02.405Z</time></trkpt><trkpt lat="31.5324533" lon="-9.5923667"><ele>219.0</ele><time>2026-04-25T18:06:03.405Z</time></trkpt><trkpt lat="31.53248" lon="-9.5926633"><ele>219.0</ele><time>2026-04-25T18:06:04.405Z</time></trkpt><trkpt lat="31.53249" lon="-9.59297"><ele>220.0</ele><time>2026-04-25T18:06:05.405Z</time></trkpt><trkpt lat="31.5324783" lon="-9.5932667"><ele>221.0</ele><time>2026-04-25T18:06:06.405Z</time></trkpt><trkpt lat="31.5324567" lon="-9.593555"><ele>218.5</ele><time>2026-04-25T18:06:07.405Z</time></trkpt><trkpt lat="31.53243" lon="-9.5938267"><ele>216.0</ele><time>2026-04-25T18:06:08.405Z</time></trkpt><trkpt lat="31.5324033" lon="-9.5940917"><ele>216.0</ele><time>2026-04-25T18:06:09.405Z</time></trkpt><trkpt lat="31.53238" lon="-9.5943533"><ele>216.0</ele><time>2026-04-25T18:06:10.406Z</time></trkpt><trkpt lat="31.532355" lon="-9.5946083"><ele>216.0</ele><time>2026-04-25T18:06:11.406Z</time></trkpt><trkpt lat="31.5323267" lon="-9.5948567"><ele>216.0</ele><time>2026-04-25T18:06:12.405Z</time></trkpt><trkpt lat="31.5323017" lon="-9.5950983"><ele>216.0</ele><time>2026-04-25T18:06:13.405Z</time></trkpt><trkpt lat="31.5322767" lon="-9.5953317"><ele>216.0</ele><time>2026-04-25T18:06:14.405Z</time></trkpt><trkpt lat="31.5322517" lon="-9.5955583"><ele>216.33333333333331</ele><time>2026-04-25T18:06:15.405Z</time></trkpt><trkpt lat="31.53223" lon="-9.59578"><ele>216.66666666666666</ele><time>2026-04-25T18:06:16.405Z</time></trkpt><trkpt lat="31.5322083" lon="-9.595995"><ele>217.0</ele><time>2026-04-25T18:06:17.405Z</time></trkpt><trkpt lat="31.53219" lon="-9.5962033"><ele>217.0</ele><time>2026-04-25T18:06:18.405Z</time></trkpt><trkpt lat="31.53217" lon="-9.596405"><ele>217.0</ele><time>2026-04-25T18:06:19.405Z</time></trkpt><trkpt lat="31.5321583" lon="-9.596595"><ele>217.0</ele><time>2026-04-25T18:06:20.405Z</time></trkpt><trkpt lat="31.53214" lon="-9.59677"><ele>217.0</ele><time>2026-04-25T18:06:21.405Z</time></trkpt><trkpt lat="31.5321233" lon="-9.5969217"><ele>217.0</ele><time>2026-04-25T18:06:22.405Z</time></trkpt><trkpt lat="31.5321217" lon="-9.5970433"><ele>217.0</ele><time>2026-04-25T18:06:23.405Z</time></trkpt><trkpt lat="31.5321383" lon="-9.5971283"><ele>217.0</ele><time>2026-04-25T18:06:24.405Z</time></trkpt><trkpt lat="31.53218" lon="-9.5972417"><ele>217.0</ele><time>2026-04-25T18:06:26.405Z</time></trkpt><trkpt lat="31.5321983" lon="-9.59735"><ele>217.0</ele><time>2026-04-25T18:06:28.405Z</time></trkpt><trkpt lat="31.532175" lon="-9.5974483"><ele>217.0</ele><time>2026-04-25T18:06:30.405Z</time></trkpt><trkpt lat="31.5321167" lon="-9.5975733"><ele>217.0</ele><time>2026-04-25T18:06:32.405Z</time></trkpt><trkpt lat="31.5320767" lon="-9.5976667"><ele>217.0</ele><time>2026-04-25T18:06:33.405Z</time></trkpt><trkpt lat="31.5320467" lon="-9.597815"><ele>217.0</ele><time>2026-04-25T18:06:34.405Z</time></trkpt><trkpt lat="31.5320217" lon="-9.5980017"><ele>216.33333333333331</ele><time>2026-04-25T18:06:35.405Z</time></trkpt><trkpt lat="31.5319967" lon="-9.59823"><ele>215.66666666666669</ele><time>2026-04-25T18:06:36.405Z</time></trkpt><trkpt lat="31.531965" lon="-9.5984933"><ele>215.0</ele><time>2026-04-25T18:06:37.405Z</time></trkpt><trkpt lat="31.5319283" lon="-9.5987917"><ele>215.0</ele><time>2026-04-25T18:06:38.405Z</time></trkpt><trkpt lat="31.5318917" lon="-9.5991333"><ele>215.0</ele><time>2026-04-25T18:06:39.405Z</time></trkpt><trkpt lat="31.5318583" lon="-9.5995083"><ele>216.5</ele><time>2026-04-25T18:06:40.405Z</time></trkpt><trkpt lat="31.5318283" lon="-9.5999067"><ele>218.0</ele><time>2026-04-25T18:06:41.406Z</time></trkpt><trkpt lat="31.5318" lon="-9.600285"><ele>219.5</ele><time>2026-04-25T18:06:42.405Z</time></trkpt><trkpt lat="31.5317733" lon="-9.6006483"><ele>221.0</ele><time>2026-04-25T18:06:43.406Z</time></trkpt><trkpt lat="31.5317417" lon="-9.601005"><ele>223.0</ele><time>2026-04-25T18:06:44.405Z</time></trkpt><trkpt lat="31.53171" lon="-9.601345"><ele>225.0</ele><time>2026-04-25T18:06:45.406Z</time></trkpt><trkpt lat="31.5316783" lon="-9.6016633"><ele>225.0</ele><time>2026-04-25T18:06:46.405Z</time></trkpt><trkpt lat="31.5316417" lon="-9.60197"><ele>225.0</ele><time>2026-04-25T18:06:47.405Z</time></trkpt><trkpt lat="31.5315917" lon="-9.602265"><ele>226.0</ele><time>2026-04-25T18:06:48.405Z</time></trkpt><trkpt lat="31.5315183" lon="-9.6025617"><ele>227.0</ele><time>2026-04-25T18:06:49.405Z</time></trkpt><trkpt lat="31.5314183" lon="-9.6028717"><ele>227.0</ele><time>2026-04-25T18:06:50.405Z</time></trkpt><trkpt lat="31.53129" lon="-9.6031967"><ele>227.0</ele><time>2026-04-25T18:06:51.405Z</time></trkpt><trkpt lat="31.53114" lon="-9.6035233"><ele>225.5</ele><time>2026-04-25T18:06:52.406Z</time></trkpt><trkpt lat="31.53098" lon="-9.6038433"><ele>224.0</ele><time>2026-04-25T18:06:53.405Z</time></trkpt><trkpt lat="31.53082" lon="-9.604145"><ele>224.0</ele><time>2026-04-25T18:06:54.405Z</time></trkpt><trkpt lat="31.5306667" lon="-9.60442"><ele>224.0</ele><time>2026-04-25T18:06:55.405Z</time></trkpt><trkpt lat="31.530515" lon="-9.6047"><ele>223.5</ele><time>2026-04-25T18:06:56.405Z</time></trkpt><trkpt lat="31.5303617" lon="-9.604985"><ele>223.0</ele><time>2026-04-25T18:06:57.405Z</time></trkpt><trkpt lat="31.5302067" lon="-9.60528"><ele>224.5</ele><time>2026-04-25T18:06:58.405Z</time></trkpt><trkpt lat="31.5300583" lon="-9.605565"><ele>226.0</ele><time>2026-04-25T18:06:59.405Z</time></trkpt><trkpt lat="31.5299117" lon="-9.6058383"><ele>226.0</ele><time>2026-04-25T18:07:00.405Z</time></trkpt><trkpt lat="31.529765" lon="-9.606115"><ele>226.0</ele><time>2026-04-25T18:07:01.405Z</time></trkpt><trkpt lat="31.5296217" lon="-9.606395"><ele>226.0</ele><time>2026-04-25T18:07:02.405Z</time></trkpt><trkpt lat="31.5294767" lon="-9.6066617"><ele>226.0</ele><time>2026-04-25T18:07:03.405Z</time></trkpt><trkpt lat="31.5293383" lon="-9.6069183"><ele>225.5</ele><time>2026-04-25T18:07:04.405Z</time></trkpt><trkpt lat="31.5291983" lon="-9.6071733"><ele>225.0</ele><time>2026-04-25T18:07:05.405Z</time></trkpt><trkpt lat="31.5290617" lon="-9.607435"><ele>225.0</ele><time>2026-04-25T18:07:06.405Z</time></trkpt><trkpt lat="31.528925" lon="-9.6076967"><ele>225.0</ele><time>2026-04-25T18:07:07.405Z</time></trkpt><trkpt lat="31.5287883" lon="-9.6079583"><ele>224.0</ele><time>2026-04-25T18:07:08.405Z</time></trkpt><trkpt lat="31.5286567" lon="-9.6082083"><ele>223.0</ele><time>2026-04-25T18:07:09.405Z</time></trkpt><trkpt lat="31.528525" lon="-9.608455"><ele>223.0</ele><time>2026-04-25T18:07:10.405Z</time></trkpt><trkpt lat="31.52839" lon="-9.6086983"><ele>223.0</ele><time>2026-04-25T18:07:11.405Z</time></trkpt><trkpt lat="31.5282567" lon="-9.6089567"><ele>223.0</ele><time>2026-04-25T18:07:12.405Z</time></trkpt><trkpt lat="31.528115" lon="-9.6092167"><ele>223.0</ele><time>2026-04-25T18:07:13.405Z</time></trkpt><trkpt lat="31.527975" lon="-9.60947"><ele>223.5</ele><time>2026-04-25T18:07:14.405Z</time></trkpt><trkpt lat="31.5278317" lon="-9.6097267"><ele>224.0</ele><time>2026-04-25T18:07:15.405Z</time></trkpt><trkpt lat="31.5276933" lon="-9.6099767"><ele>224.0</ele><time>2026-04-25T18:07:16.405Z</time></trkpt><trkpt lat="31.52756" lon="-9.610225"><ele>224.0</ele><time>2026-04-25T18:07:17.405Z</time></trkpt><trkpt lat="31.5274233" lon="-9.610475"><ele>221.5</ele><time>2026-04-25T18:07:18.405Z</time></trkpt><trkpt lat="31.5272883" lon="-9.6107333"><ele>219.0</ele><time>2026-04-25T18:07:19.405Z</time></trkpt><trkpt lat="31.5271533" lon="-9.6109933"><ele>220.0</ele><time>2026-04-25T18:07:20.406Z</time></trkpt><trkpt lat="31.5270217" lon="-9.61125"><ele>221.0</ele><time>2026-04-25T18:07:21.405Z</time></trkpt><trkpt lat="31.5268917" lon="-9.6115183"><ele>221.0</ele><time>2026-04-25T18:07:22.405Z</time></trkpt><trkpt lat="31.5267617" lon="-9.611775"><ele>221.0</ele><time>2026-04-25T18:07:23.405Z</time></trkpt><trkpt lat="31.52664" lon="-9.6120133"><ele>220.0</ele><time>2026-04-25T18:07:24.405Z</time></trkpt><trkpt lat="31.5265183" lon="-9.6122517"><ele>219.0</ele><time>2026-04-25T18:07:25.405Z</time></trkpt><trkpt lat="31.5264" lon="-9.61249"><ele>219.0</ele><time>2026-04-25T18:07:26.405Z</time></trkpt><trkpt lat="31.5262833" lon="-9.6127133"><ele>219.0</ele><time>2026-04-25T18:07:27.405Z</time></trkpt><trkpt lat="31.52617" lon="-9.6129317"><ele>219.0</ele><time>2026-04-25T18:07:28.405Z</time></trkpt><trkpt lat="31.5260583" lon="-9.6131417"><ele>219.33333333333331</ele><time>2026-04-25T18:07:29.405Z</time></trkpt><trkpt lat="31.525945" lon="-9.6133567"><ele>219.66666666666666</ele><time>2026-04-25T18:07:30.405Z</time></trkpt><trkpt lat="31.52583" lon="-9.6135683"><ele>220.0</ele><time>2026-04-25T18:07:31.405Z</time></trkpt><trkpt lat="31.5257117" lon="-9.6137783"><ele>219.66666666666666</ele><time>2026-04-25T18:07:32.405Z</time></trkpt><trkpt lat="31.5255967" lon="-9.6139883"><ele>219.33333333333331</ele><time>2026-04-25T18:07:33.405Z</time></trkpt><trkpt lat="31.5254817" lon="-9.614215"><ele>219.0</ele><time>2026-04-25T18:07:34.405Z</time></trkpt><trkpt lat="31.52537" lon="-9.61445"><ele>217.5</ele><time>2026-04-25T18:07:35.405Z</time></trkpt><trkpt lat="31.5252667" lon="-9.6146883"><ele>216.0</ele><time>2026-04-25T18:07:36.405Z</time></trkpt><trkpt lat="31.5251817" lon="-9.6149383"><ele>216.0</ele><time>2026-04-25T18:07:37.405Z</time></trkpt><trkpt lat="31.5251133" lon="-9.6152"><ele>216.0</ele><time>2026-04-25T18:07:38.405Z</time></trkpt><trkpt lat="31.525065" lon="-9.6154783"><ele>215.0</ele><time>2026-04-25T18:07:39.405Z</time></trkpt><trkpt lat="31.52502" lon="-9.6157583"><ele>214.0</ele><time>2026-04-25T18:07:40.405Z</time></trkpt><trkpt lat="31.5249817" lon="-9.6160467"><ele>213.0</ele><time>2026-04-25T18:07:41.405Z</time></trkpt><trkpt lat="31.5249433" lon="-9.616335"><ele>212.0</ele><time>2026-04-25T18:07:42.405Z</time></trkpt><trkpt lat="31.5249067" lon="-9.616625"><ele>212.0</ele><time>2026-04-25T18:07:43.405Z</time></trkpt><trkpt lat="31.5248717" lon="-9.61692"><ele>212.0</ele><time>2026-04-25T18:07:44.405Z</time></trkpt><trkpt lat="31.524835" lon="-9.617215"><ele>211.5</ele><time>2026-04-25T18:07:45.405Z</time></trkpt><trkpt lat="31.5248017" lon="-9.61751"><ele>211.0</ele><time>2026-04-25T18:07:46.405Z</time></trkpt><trkpt lat="31.5247683" lon="-9.6177967"><ele>211.0</ele><time>2026-04-25T18:07:47.405Z</time></trkpt><trkpt lat="31.5247367" lon="-9.6180767"><ele>211.0</ele><time>2026-04-25T18:07:48.405Z</time></trkpt><trkpt lat="31.524705" lon="-9.6183517"><ele>211.0</ele><time>2026-04-25T18:07:49.405Z</time></trkpt><trkpt lat="31.5246717" lon="-9.6186233"><ele>211.0</ele><time>2026-04-25T18:07:50.405Z</time></trkpt><trkpt lat="31.52464" lon="-9.6188917"><ele>210.0</ele><time>2026-04-25T18:07:51.405Z</time></trkpt><trkpt lat="31.5246083" lon="-9.61916"><ele>209.0</ele><time>2026-04-25T18:07:52.405Z</time></trkpt><trkpt lat="31.524575" lon="-9.6194267"><ele>206.0</ele><time>2026-04-25T18:07:53.405Z</time></trkpt><trkpt lat="31.5245467" lon="-9.6196917"><ele>203.0</ele><time>2026-04-25T18:07:54.405Z</time></trkpt><trkpt lat="31.5245167" lon="-9.6199517"><ele>203.0</ele><time>2026-04-25T18:07:55.405Z</time></trkpt><trkpt lat="31.5244883" lon="-9.6202067"><ele>203.0</ele><time>2026-04-25T18:07:56.405Z</time></trkpt><trkpt lat="31.524455" lon="-9.620455"><ele>203.0</ele><time>2026-04-25T18:07:57.405Z</time></trkpt><trkpt lat="31.5244183" lon="-9.6207"><ele>202.0</ele><time>2026-04-25T18:07:58.405Z</time></trkpt><trkpt lat="31.5243767" lon="-9.6209383"><ele>201.0</ele><time>2026-04-25T18:07:59.405Z</time></trkpt><trkpt lat="31.5243283" lon="-9.6211717"><ele>200.0</ele><time>2026-04-25T18:08:00.405Z</time></trkpt><trkpt lat="31.524265" lon="-9.6213967"><ele>198.66666666666669</ele><time>2026-04-25T18:08:01.405Z</time></trkpt><trkpt lat="31.5241867" lon="-9.6216233"><ele>197.33333333333331</ele><time>2026-04-25T18:08:02.405Z</time></trkpt><trkpt lat="31.52409" lon="-9.6218483"><ele>196.0</ele><time>2026-04-25T18:08:03.405Z</time></trkpt><trkpt lat="31.5239783" lon="-9.6220717"><ele>194.5</ele><time>2026-04-25T18:08:04.405Z</time></trkpt><trkpt lat="31.5238583" lon="-9.6222967"><ele>193.0</ele><time>2026-04-25T18:08:05.405Z</time></trkpt><trkpt lat="31.523735" lon="-9.6225183"><ele>193.5</ele><time>2026-04-25T18:08:06.405Z</time></trkpt><trkpt lat="31.5236083" lon="-9.6227383"><ele>194.0</ele><time>2026-04-25T18:08:07.405Z</time></trkpt><trkpt lat="31.52348" lon="-9.6229567"><ele>194.5</ele><time>2026-04-25T18:08:08.405Z</time></trkpt><trkpt lat="31.52335" lon="-9.623175"><ele>195.0</ele><time>2026-04-25T18:08:09.405Z</time></trkpt><trkpt lat="31.5232217" lon="-9.62339"><ele>195.0</ele><time>2026-04-25T18:08:10.405Z</time></trkpt><trkpt lat="31.523095" lon="-9.623605"><ele>195.0</ele><time>2026-04-25T18:08:11.405Z</time></trkpt><trkpt lat="31.52297" lon="-9.6238167"><ele>195.0</ele><time>2026-04-25T18:08:12.405Z</time></trkpt><trkpt lat="31.52285" lon="-9.6240217"><ele>196.0</ele><time>2026-04-25T18:08:13.405Z</time></trkpt><trkpt lat="31.5227317" lon="-9.62422"><ele>197.0</ele><time>2026-04-25T18:08:14.405Z</time></trkpt><trkpt lat="31.522615" lon="-9.624415"><ele>198.0</ele><time>2026-04-25T18:08:15.405Z</time></trkpt><trkpt lat="31.5225" lon="-9.6246133"><ele>198.0</ele><time>2026-04-25T18:08:16.405Z</time></trkpt><trkpt lat="31.522385" lon="-9.62481"><ele>198.0</ele><time>2026-04-25T18:08:17.405Z</time></trkpt><trkpt lat="31.5222733" lon="-9.6249983"><ele>198.0</ele><time>2026-04-25T18:08:18.405Z</time></trkpt><trkpt lat="31.5221683" lon="-9.6251783"><ele>198.0</ele><time>2026-04-25T18:08:19.405Z</time></trkpt><trkpt lat="31.5220667" lon="-9.6253517"><ele>198.0</ele><time>2026-04-25T18:08:20.405Z</time></trkpt><trkpt lat="31.521965" lon="-9.6255217"><ele>198.0</ele><time>2026-04-25T18:08:21.406Z</time></trkpt><trkpt lat="31.5218683" lon="-9.6256967"><ele>198.0</ele><time>2026-04-25T18:08:22.405Z</time></trkpt><trkpt lat="31.5217767" lon="-9.625865"><ele>198.0</ele><time>2026-04-25T18:08:23.405Z</time></trkpt><trkpt lat="31.5216867" lon="-9.62603"><ele>198.0</ele><time>2026-04-25T18:08:24.405Z</time></trkpt><trkpt lat="31.5216017" lon="-9.6262067"><ele>198.66666666666669</ele><time>2026-04-25T18:08:25.405Z</time></trkpt><trkpt lat="31.52152" lon="-9.62639"><ele>199.33333333333334</ele><time>2026-04-25T18:08:26.405Z</time></trkpt><trkpt lat="31.5214417" lon="-9.626585"><ele>200.0</ele><time>2026-04-25T18:08:27.405Z</time></trkpt><trkpt lat="31.5213733" lon="-9.6267967"><ele>199.33333333333334</ele><time>2026-04-25T18:08:28.405Z</time></trkpt><trkpt lat="31.5213233" lon="-9.6270233"><ele>198.66666666666669</ele><time>2026-04-25T18:08:29.405Z</time></trkpt><trkpt lat="31.52129" lon="-9.62726"><ele>198.0</ele><time>2026-04-25T18:08:30.405Z</time></trkpt><trkpt lat="31.5212833" lon="-9.62751"><ele>198.0</ele><time>2026-04-25T18:08:31.406Z</time></trkpt><trkpt lat="31.52129" lon="-9.6277617"><ele>198.0</ele><time>2026-04-25T18:08:32.405Z</time></trkpt><trkpt lat="31.521305" lon="-9.628005"><ele>198.0</ele><time>2026-04-25T18:08:33.405Z</time></trkpt><trkpt lat="31.521325" lon="-9.6282433"><ele>197.0</ele><time>2026-04-25T18:08:34.405Z</time></trkpt><trkpt lat="31.5213433" lon="-9.6284717"><ele>196.0</ele><time>2026-04-25T18:08:35.405Z</time></trkpt><trkpt lat="31.5213633" lon="-9.6286917"><ele>195.0</ele><time>2026-04-25T18:08:36.405Z</time></trkpt><trkpt lat="31.521375" lon="-9.6289117"><ele>193.66666666666666</ele><time>2026-04-25T18:08:37.405Z</time></trkpt><trkpt lat="31.5213917" lon="-9.6291283"><ele>192.33333333333331</ele><time>2026-04-25T18:08:38.405Z</time></trkpt><trkpt lat="31.5214033" lon="-9.6293617"><ele>191.0</ele><time>2026-04-25T18:08:39.405Z</time></trkpt><trkpt lat="31.52142" lon="-9.629605"><ele>190.33333333333331</ele><time>2026-04-25T18:08:40.405Z</time></trkpt><trkpt lat="31.5214333" lon="-9.62985"><ele>189.66666666666666</ele><time>2026-04-25T18:08:41.405Z</time></trkpt><trkpt lat="31.5214467" lon="-9.6300933"><ele>189.0</ele><time>2026-04-25T18:08:42.405Z</time></trkpt><trkpt lat="31.5214533" lon="-9.6303417"><ele>189.0</ele><time>2026-04-25T18:08:43.405Z</time></trkpt><trkpt lat="31.52145" lon="-9.6305933"><ele>189.0</ele><time>2026-04-25T18:08:44.405Z</time></trkpt><trkpt lat="31.5214433" lon="-9.6308433"><ele>189.0</ele><time>2026-04-25T18:08:45.405Z</time></trkpt><trkpt lat="31.52143" lon="-9.6310933"><ele>188.0</ele><time>2026-04-25T18:08:46.406Z</time></trkpt><trkpt lat="31.5214067" lon="-9.6313483"><ele>187.0</ele><time>2026-04-25T18:08:47.405Z</time></trkpt><trkpt lat="31.5213683" lon="-9.6316033"><ele>186.0</ele><time>2026-04-25T18:08:48.405Z</time></trkpt><trkpt lat="31.5213183" lon="-9.6318617"><ele>184.5</ele><time>2026-04-25T18:08:49.405Z</time></trkpt><trkpt lat="31.5212617" lon="-9.6321233"><ele>183.0</ele><time>2026-04-25T18:08:50.405Z</time></trkpt><trkpt lat="31.5212017" lon="-9.6323917"><ele>180.5</ele><time>2026-04-25T18:08:51.405Z</time></trkpt><trkpt lat="31.5211433" lon="-9.632665"><ele>178.0</ele><time>2026-04-25T18:08:52.405Z</time></trkpt><trkpt lat="31.52109" lon="-9.6329333"><ele>176.5</ele><time>2026-04-25T18:08:53.405Z</time></trkpt><trkpt lat="31.52104" lon="-9.6331967"><ele>175.0</ele><time>2026-04-25T18:08:54.405Z</time></trkpt><trkpt lat="31.5209883" lon="-9.633455"><ele>174.66666666666669</ele><time>2026-04-25T18:08:55.405Z</time></trkpt><trkpt lat="31.5209367" lon="-9.6337017"><ele>174.33333333333334</ele><time>2026-04-25T18:08:56.405Z</time></trkpt><trkpt lat="31.5208883" lon="-9.6339467"><ele>174.0</ele><time>2026-04-25T18:08:57.405Z</time></trkpt><trkpt lat="31.52084" lon="-9.63418"><ele>174.0</ele><time>2026-04-25T18:08:58.405Z</time></trkpt><trkpt lat="31.5207933" lon="-9.6344133"><ele>174.0</ele><time>2026-04-25T18:08:59.405Z</time></trkpt><trkpt lat="31.5207433" lon="-9.6346417"><ele>174.0</ele><time>2026-04-25T18:09:00.406Z</time></trkpt><trkpt lat="31.520695" lon="-9.6348717"><ele>172.66666666666666</ele><time>2026-04-25T18:09:01.405Z</time></trkpt><trkpt lat="31.520645" lon="-9.6351017"><ele>171.33333333333331</ele><time>2026-04-25T18:09:02.405Z</time></trkpt><trkpt lat="31.5205983" lon="-9.635335"><ele>170.0</ele><time>2026-04-25T18:09:03.405Z</time></trkpt><trkpt lat="31.5205483" lon="-9.6355683"><ele>168.66666666666666</ele><time>2026-04-25T18:09:04.405Z</time></trkpt><trkpt lat="31.5204917" lon="-9.6358067"><ele>167.33333333333334</ele><time>2026-04-25T18:09:05.405Z</time></trkpt><trkpt lat="31.5204317" lon="-9.6360583"><ele>166.0</ele><time>2026-04-25T18:09:06.405Z</time></trkpt><trkpt lat="31.5203683" lon="-9.6363233"><ele>164.5</ele><time>2026-04-25T18:09:07.405Z</time></trkpt><trkpt lat="31.5203083" lon="-9.6366033"><ele>163.0</ele><time>2026-04-25T18:09:08.405Z</time></trkpt><trkpt lat="31.52025" lon="-9.636895"><ele>161.5</ele><time>2026-04-25T18:09:09.405Z</time></trkpt><trkpt lat="31.520195" lon="-9.6371933"><ele>160.0</ele><time>2026-04-25T18:09:10.405Z</time></trkpt><trkpt lat="31.5201417" lon="-9.6375017"><ele>157.5</ele><time>2026-04-25T18:09:11.405Z</time></trkpt><trkpt lat="31.5200833" lon="-9.637815"><ele>155.0</ele><time>2026-04-25T18:09:12.405Z</time></trkpt><trkpt lat="31.52002" lon="-9.63814"><ele>155.0</ele><time>2026-04-25T18:09:13.405Z</time></trkpt><trkpt lat="31.5199517" lon="-9.6384667"><ele>155.0</ele><time>2026-04-25T18:09:14.405Z</time></trkpt><trkpt lat="31.519885" lon="-9.6387867"><ele>153.5</ele><time>2026-04-25T18:09:15.405Z</time></trkpt><trkpt lat="31.51982" lon="-9.6391017"><ele>152.0</ele><time>2026-04-25T18:09:16.406Z</time></trkpt><trkpt lat="31.51976" lon="-9.6394067"><ele>151.0</ele><time>2026-04-25T18:09:17.405Z</time></trkpt><trkpt lat="31.5196967" lon="-9.639705"><ele>150.0</ele><time>2026-04-25T18:09:18.405Z</time></trkpt><trkpt lat="31.5196333" lon="-9.64"><ele>150.0</ele><time>2026-04-25T18:09:19.405Z</time></trkpt><trkpt lat="31.5195717" lon="-9.6402917"><ele>150.0</ele><time>2026-04-25T18:09:20.405Z</time></trkpt><trkpt lat="31.5195083" lon="-9.6405783"><ele>151.0</ele><time>2026-04-25T18:09:21.405Z</time></trkpt><trkpt lat="31.5194483" lon="-9.64086"><ele>152.0</ele><time>2026-04-25T18:09:22.405Z</time></trkpt><trkpt lat="31.5193883" lon="-9.6411333"><ele>152.5</ele><time>2026-04-25T18:09:23.405Z</time></trkpt><trkpt lat="31.5193217" lon="-9.6414033"><ele>153.0</ele><time>2026-04-25T18:09:24.405Z</time></trkpt><trkpt lat="31.5192467" lon="-9.6416767"><ele>153.0</ele><time>2026-04-25T18:09:25.405Z</time></trkpt><trkpt lat="31.519165" lon="-9.641955"><ele>153.0</ele><time>2026-04-25T18:09:26.405Z</time></trkpt><trkpt lat="31.5190783" lon="-9.6422383"><ele>150.5</ele><time>2026-04-25T18:09:27.405Z</time></trkpt><trkpt lat="31.518995" lon="-9.6425217"><ele>148.0</ele><time>2026-04-25T18:09:28.405Z</time></trkpt><trkpt lat="31.518915" lon="-9.6427933"><ele>148.0</ele><time>2026-04-25T18:09:29.405Z</time></trkpt><trkpt lat="31.5188367" lon="-9.64306"><ele>148.0</ele><time>2026-04-25T18:09:30.405Z</time></trkpt><trkpt lat="31.5187567" lon="-9.6433317"><ele>148.0</ele><time>2026-04-25T18:09:31.405Z</time></trkpt><trkpt lat="31.5186767" lon="-9.64361"><ele>148.0</ele><time>2026-04-25T18:09:32.405Z</time></trkpt><trkpt lat="31.5185933" lon="-9.6438933"><ele>148.0</ele><time>2026-04-25T18:09:33.405Z</time></trkpt><trkpt lat="31.5185083" lon="-9.6441717"><ele>148.0</ele><time>2026-04-25T18:09:34.405Z</time></trkpt><trkpt lat="31.51843" lon="-9.6444383"><ele>146.5</ele><time>2026-04-25T18:09:35.405Z</time></trkpt><trkpt lat="31.518355" lon="-9.6446933"><ele>145.0</ele><time>2026-04-25T18:09:36.405Z</time></trkpt><trkpt lat="31.518285" lon="-9.64494"><ele>145.0</ele><time>2026-04-25T18:09:37.405Z</time></trkpt><trkpt lat="31.5182133" lon="-9.6451783"><ele>145.0</ele><time>2026-04-25T18:09:38.405Z</time></trkpt><trkpt lat="31.5181467" lon="-9.6454117"><ele>145.0</ele><time>2026-04-25T18:09:39.406Z</time></trkpt><trkpt lat="31.5180817" lon="-9.6456383"><ele>144.33333333333334</ele><time>2026-04-25T18:09:40.405Z</time></trkpt><trkpt lat="31.5180167" lon="-9.6458617"><ele>143.66666666666666</ele><time>2026-04-25T18:09:41.405Z</time></trkpt><trkpt lat="31.5179533" lon="-9.646085"><ele>143.0</ele><time>2026-04-25T18:09:42.405Z</time></trkpt><trkpt lat="31.51789" lon="-9.6463017"><ele>142.66666666666666</ele><time>2026-04-25T18:09:43.405Z</time></trkpt><trkpt lat="31.51783" lon="-9.6465133"><ele>142.33333333333334</ele><time>2026-04-25T18:09:44.405Z</time></trkpt><trkpt lat="31.517775" lon="-9.6467217"><ele>142.0</ele><time>2026-04-25T18:09:45.405Z</time></trkpt><trkpt lat="31.5177167" lon="-9.6469217"><ele>142.0</ele><time>2026-04-25T18:09:46.405Z</time></trkpt><trkpt lat="31.5176583" lon="-9.64711"><ele>142.0</ele><time>2026-04-25T18:09:47.405Z</time></trkpt><trkpt lat="31.5176017" lon="-9.64729"><ele>142.0</ele><time>2026-04-25T18:09:48.405Z</time></trkpt><trkpt lat="31.5175467" lon="-9.6474667"><ele>142.0</ele><time>2026-04-25T18:09:49.405Z</time></trkpt><trkpt lat="31.5174967" lon="-9.6476467"><ele>142.0</ele><time>2026-04-25T18:09:50.405Z</time></trkpt><trkpt lat="31.5174417" lon="-9.6478333"><ele>142.0</ele><time>2026-04-25T18:09:51.405Z</time></trkpt><trkpt lat="31.51738" lon="-9.6480317"><ele>141.33333333333334</ele><time>2026-04-25T18:09:52.405Z</time></trkpt><trkpt lat="31.517315" lon="-9.6482433"><ele>140.66666666666666</ele><time>2026-04-25T18:09:53.405Z</time></trkpt><trkpt lat="31.5172467" lon="-9.6484683"><ele>140.0</ele><time>2026-04-25T18:09:54.405Z</time></trkpt><trkpt lat="31.5171717" lon="-9.6487017"><ele>139.5</ele><time>2026-04-25T18:09:55.405Z</time></trkpt><trkpt lat="31.51709" lon="-9.648945"><ele>139.0</ele><time>2026-04-25T18:09:56.405Z</time></trkpt><trkpt lat="31.517005" lon="-9.6492"><ele>138.5</ele><time>2026-04-25T18:09:57.406Z</time></trkpt><trkpt lat="31.5169183" lon="-9.649465"><ele>138.0</ele><time>2026-04-25T18:09:58.405Z</time></trkpt><trkpt lat="31.5168283" lon="-9.64974"><ele>138.0</ele><time>2026-04-25T18:09:59.405Z</time></trkpt><trkpt lat="31.51674" lon="-9.6500267"><ele>138.0</ele><time>2026-04-25T18:10:00.405Z</time></trkpt><trkpt lat="31.5166567" lon="-9.6503217"><ele>136.0</ele><time>2026-04-25T18:10:01.405Z</time></trkpt><trkpt lat="31.5165733" lon="-9.6506233"><ele>134.0</ele><time>2026-04-25T18:10:02.405Z</time></trkpt><trkpt lat="31.51649" lon="-9.6509233"><ele>131.5</ele><time>2026-04-25T18:10:03.405Z</time></trkpt><trkpt lat="31.5164067" lon="-9.6512217"><ele>129.0</ele><time>2026-04-25T18:10:04.405Z</time></trkpt><trkpt lat="31.5163167" lon="-9.6515217"><ele>129.0</ele><time>2026-04-25T18:10:05.406Z</time></trkpt><trkpt lat="31.5162267" lon="-9.6518217"><ele>129.0</ele><time>2026-04-25T18:10:06.405Z</time></trkpt><trkpt lat="31.5161417" lon="-9.65211"><ele>129.0</ele><time>2026-04-25T18:10:07.405Z</time></trkpt><trkpt lat="31.5160633" lon="-9.652395"><ele>129.0</ele><time>2026-04-25T18:10:08.405Z</time></trkpt><trkpt lat="31.51598" lon="-9.65267"><ele>129.0</ele><time>2026-04-25T18:10:09.405Z</time></trkpt><trkpt lat="31.5159" lon="-9.6529267"><ele>129.0</ele><time>2026-04-25T18:10:10.405Z</time></trkpt><trkpt lat="31.5158217" lon="-9.6531867"><ele>129.0</ele><time>2026-04-25T18:10:11.405Z</time></trkpt><trkpt lat="31.5157417" lon="-9.65345"><ele>129.0</ele><time>2026-04-25T18:10:12.405Z</time></trkpt><trkpt lat="31.5156617" lon="-9.6537183"><ele>130.0</ele><time>2026-04-25T18:10:13.405Z</time></trkpt><trkpt lat="31.5155867" lon="-9.653995"><ele>131.0</ele><time>2026-04-25T18:10:14.405Z</time></trkpt><trkpt lat="31.515505" lon="-9.6542767"><ele>131.5</ele><time>2026-04-25T18:10:15.405Z</time></trkpt><trkpt lat="31.5154233" lon="-9.6545667"><ele>132.0</ele><time>2026-04-25T18:10:16.405Z</time></trkpt><trkpt lat="31.51534" lon="-9.6548633"><ele>132.0</ele><time>2026-04-25T18:10:17.405Z</time></trkpt><trkpt lat="31.51525" lon="-9.6551617"><ele>132.0</ele><time>2026-04-25T18:10:18.405Z</time></trkpt><trkpt lat="31.51516" lon="-9.65546"><ele>132.5</ele><time>2026-04-25T18:10:19.405Z</time></trkpt><trkpt lat="31.51507" lon="-9.655765"><ele>133.0</ele><time>2026-04-25T18:10:20.406Z</time></trkpt><trkpt lat="31.5149817" lon="-9.6560683"><ele>132.5</ele><time>2026-04-25T18:10:21.405Z</time></trkpt><trkpt lat="31.514895" lon="-9.6563633"><ele>132.0</ele><time>2026-04-25T18:10:22.405Z</time></trkpt><trkpt lat="31.5148083" lon="-9.65664"><ele>132.0</ele><time>2026-04-25T18:10:23.405Z</time></trkpt><trkpt lat="31.514725" lon="-9.6569233"><ele>132.0</ele><time>2026-04-25T18:10:24.405Z</time></trkpt><trkpt lat="31.5146367" lon="-9.65721"><ele>130.5</ele><time>2026-04-25T18:10:25.405Z</time></trkpt><trkpt lat="31.5145467" lon="-9.657495"><ele>129.0</ele><time>2026-04-25T18:10:26.405Z</time></trkpt><trkpt lat="31.5144567" lon="-9.6577883"><ele>129.0</ele><time>2026-04-25T18:10:27.405Z</time></trkpt><trkpt lat="31.5143717" lon="-9.658075"><ele>129.0</ele><time>2026-04-25T18:10:28.405Z</time></trkpt><trkpt lat="31.5142933" lon="-9.6583483"><ele>130.5</ele><time>2026-04-25T18:10:29.405Z</time></trkpt><trkpt lat="31.5142133" lon="-9.6586183"><ele>132.0</ele><time>2026-04-25T18:10:30.405Z</time></trkpt><trkpt lat="31.514135" lon="-9.6588967"><ele>132.0</ele><time>2026-04-25T18:10:31.405Z</time></trkpt><trkpt lat="31.514055" lon="-9.6591733"><ele>132.0</ele><time>2026-04-25T18:10:32.405Z</time></trkpt><trkpt lat="31.5139717" lon="-9.659455"><ele>132.0</ele><time>2026-04-25T18:10:33.405Z</time></trkpt><trkpt lat="31.5138833" lon="-9.659735"><ele>132.0</ele><time>2026-04-25T18:10:34.405Z</time></trkpt><trkpt lat="31.513795" lon="-9.6600233"><ele>132.5</ele><time>2026-04-25T18:10:35.406Z</time></trkpt><trkpt lat="31.513705" lon="-9.6603117"><ele>133.0</ele><time>2026-04-25T18:10:36.405Z</time></trkpt><trkpt lat="31.5136217" lon="-9.6605933"><ele>133.0</ele><time>2026-04-25T18:10:37.405Z</time></trkpt><trkpt lat="31.5135417" lon="-9.6608767"><ele>133.0</ele><time>2026-04-25T18:10:38.405Z</time></trkpt><trkpt lat="31.51346" lon="-9.661165"><ele>133.0</ele><time>2026-04-25T18:10:39.405Z</time></trkpt><trkpt lat="31.5133717" lon="-9.6614517"><ele>133.0</ele><time>2026-04-25T18:10:40.405Z</time></trkpt><trkpt lat="31.5132767" lon="-9.6617467"><ele>131.5</ele><time>2026-04-25T18:10:41.405Z</time></trkpt><trkpt lat="31.5131867" lon="-9.6620467"><ele>130.0</ele><time>2026-04-25T18:10:42.405Z</time></trkpt><trkpt lat="31.5130933" lon="-9.66236"><ele>130.0</ele><time>2026-04-25T18:10:43.405Z</time></trkpt><trkpt lat="31.513" lon="-9.662675"><ele>130.0</ele><time>2026-04-25T18:10:44.406Z</time></trkpt><trkpt lat="31.512905" lon="-9.662995"><ele>130.0</ele><time>2026-04-25T18:10:45.405Z</time></trkpt><trkpt lat="31.512805" lon="-9.6633167"><ele>130.0</ele><time>2026-04-25T18:10:46.405Z</time></trkpt><trkpt lat="31.5127067" lon="-9.6636467"><ele>130.0</ele><time>2026-04-25T18:10:47.405Z</time></trkpt><trkpt lat="31.512605" lon="-9.6639767"><ele>130.0</ele><time>2026-04-25T18:10:48.405Z</time></trkpt><trkpt lat="31.5125017" lon="-9.6643083"><ele>130.5</ele><time>2026-04-25T18:10:49.405Z</time></trkpt><trkpt lat="31.5124033" lon="-9.6646283"><ele>131.0</ele><time>2026-04-25T18:10:50.405Z</time></trkpt><trkpt lat="31.5123117" lon="-9.66494"><ele>131.0</ele><time>2026-04-25T18:10:51.405Z</time></trkpt><trkpt lat="31.5122217" lon="-9.6652583"><ele>131.0</ele><time>2026-04-25T18:10:52.405Z</time></trkpt><trkpt lat="31.5121217" lon="-9.665585"><ele>128.5</ele><time>2026-04-25T18:10:53.405Z</time></trkpt><trkpt lat="31.51202" lon="-9.6659217"><ele>126.0</ele><time>2026-04-25T18:10:54.405Z</time></trkpt><trkpt lat="31.5119117" lon="-9.6662667"><ele>125.5</ele><time>2026-04-25T18:10:55.405Z</time></trkpt><trkpt lat="31.51181" lon="-9.6666017"><ele>125.0</ele><time>2026-04-25T18:10:56.405Z</time></trkpt><trkpt lat="31.5117067" lon="-9.6669267"><ele>124.0</ele><time>2026-04-25T18:10:57.405Z</time></trkpt><trkpt lat="31.5116017" lon="-9.6672517"><ele>123.0</ele><time>2026-04-25T18:10:58.405Z</time></trkpt><trkpt lat="31.5115083" lon="-9.6675783"><ele>122.5</ele><time>2026-04-25T18:10:59.405Z</time></trkpt><trkpt lat="31.511415" lon="-9.6678983"><ele>122.0</ele><time>2026-04-25T18:11:00.405Z</time></trkpt><trkpt lat="31.5113267" lon="-9.6682133"><ele>122.0</ele><time>2026-04-25T18:11:01.405Z</time></trkpt><trkpt lat="31.5112433" lon="-9.6685233"><ele>122.0</ele><time>2026-04-25T18:11:02.405Z</time></trkpt><trkpt lat="31.5111583" lon="-9.6688417"><ele>123.5</ele><time>2026-04-25T18:11:03.405Z</time></trkpt><trkpt lat="31.51107" lon="-9.6691567"><ele>125.0</ele><time>2026-04-25T18:11:04.405Z</time></trkpt><trkpt lat="31.5109833" lon="-9.669465"><ele>127.0</ele><time>2026-04-25T18:11:05.405Z</time></trkpt><trkpt lat="31.5108933" lon="-9.6697667"><ele>129.0</ele><time>2026-04-25T18:11:06.405Z</time></trkpt><trkpt lat="31.510805" lon="-9.6700633"><ele>130.0</ele><time>2026-04-25T18:11:07.405Z</time></trkpt><trkpt lat="31.5107167" lon="-9.6703517"><ele>131.0</ele><time>2026-04-25T18:11:08.406Z</time></trkpt><trkpt lat="31.51063" lon="-9.67064"><ele>131.0</ele><time>2026-04-25T18:11:09.405Z</time></trkpt><trkpt lat="31.5105417" lon="-9.6709317"><ele>131.0</ele><time>2026-04-25T18:11:10.405Z</time></trkpt><trkpt lat="31.5104617" lon="-9.6712233"><ele>131.0</ele><time>2026-04-25T18:11:11.405Z</time></trkpt><trkpt lat="31.5103733" lon="-9.6715117"><ele>131.0</ele><time>2026-04-25T18:11:12.405Z</time></trkpt><trkpt lat="31.5102833" lon="-9.6718"><ele>133.5</ele><time>2026-04-25T18:11:13.405Z</time></trkpt><trkpt lat="31.510195" lon="-9.6720917"><ele>136.0</ele><time>2026-04-25T18:11:14.405Z</time></trkpt><trkpt lat="31.5101133" lon="-9.6723667"><ele>136.0</ele><time>2026-04-25T18:11:15.405Z</time></trkpt><trkpt lat="31.510035" lon="-9.67263"><ele>136.0</ele><time>2026-04-25T18:11:16.405Z</time></trkpt><trkpt lat="31.50996" lon="-9.6728917"><ele>138.0</ele><time>2026-04-25T18:11:17.405Z</time></trkpt><trkpt lat="31.5098817" lon="-9.673155"><ele>140.0</ele><time>2026-04-25T18:11:18.405Z</time></trkpt><trkpt lat="31.5098017" lon="-9.6734217"><ele>140.0</ele><time>2026-04-25T18:11:19.405Z</time></trkpt><trkpt lat="31.5097233" lon="-9.6737"><ele>140.0</ele><time>2026-04-25T18:11:20.405Z</time></trkpt><trkpt lat="31.509635" lon="-9.67398"><ele>140.0</ele><time>2026-04-25T18:11:21.405Z</time></trkpt><trkpt lat="31.5095483" lon="-9.6742617"><ele>140.0</ele><time>2026-04-25T18:11:22.405Z</time></trkpt><trkpt lat="31.5094567" lon="-9.6745483"><ele>138.5</ele><time>2026-04-25T18:11:23.405Z</time></trkpt><trkpt lat="31.5093667" lon="-9.67484"><ele>137.0</ele><time>2026-04-25T18:11:24.405Z</time></trkpt><trkpt lat="31.5092733" lon="-9.6751367"><ele>138.0</ele><time>2026-04-25T18:11:25.405Z</time></trkpt><trkpt lat="31.50918" lon="-9.6754267"><ele>139.0</ele><time>2026-04-25T18:11:26.405Z</time></trkpt><trkpt lat="31.509095" lon="-9.67571"><ele>139.0</ele><time>2026-04-25T18:11:27.405Z</time></trkpt><trkpt lat="31.5090083" lon="-9.6759967"><ele>139.0</ele><time>2026-04-25T18:11:28.405Z</time></trkpt><trkpt lat="31.5089233" lon="-9.6762833"><ele>140.5</ele><time>2026-04-25T18:11:29.405Z</time></trkpt><trkpt lat="31.5088417" lon="-9.6765783"><ele>142.0</ele><time>2026-04-25T18:11:30.405Z</time></trkpt><trkpt lat="31.5087583" lon="-9.6768767"><ele>142.0</ele><time>2026-04-25T18:11:31.405Z</time></trkpt><trkpt lat="31.5086783" lon="-9.6771583"><ele>142.0</ele><time>2026-04-25T18:11:32.405Z</time></trkpt><trkpt lat="31.5086" lon="-9.6774283"><ele>142.0</ele><time>2026-04-25T18:11:33.405Z</time></trkpt><trkpt lat="31.5085233" lon="-9.6776867"><ele>142.0</ele><time>2026-04-25T18:11:34.405Z</time></trkpt><trkpt lat="31.5084467" lon="-9.6779483"><ele>142.5</ele><time>2026-04-25T18:11:35.405Z</time></trkpt><trkpt lat="31.5083617" lon="-9.678205"><ele>143.0</ele><time>2026-04-25T18:11:36.405Z</time></trkpt><trkpt lat="31.508265" lon="-9.6784533"><ele>142.5</ele><time>2026-04-25T18:11:37.405Z</time></trkpt><trkpt lat="31.508165" lon="-9.6786983"><ele>142.0</ele><time>2026-04-25T18:11:38.405Z</time></trkpt><trkpt lat="31.5080583" lon="-9.6789483"><ele>142.0</ele><time>2026-04-25T18:11:39.405Z</time></trkpt><trkpt lat="31.5079517" lon="-9.6792067"><ele>142.0</ele><time>2026-04-25T18:11:40.405Z</time></trkpt><trkpt lat="31.5078367" lon="-9.6794617"><ele>140.5</ele><time>2026-04-25T18:11:41.405Z</time></trkpt><trkpt lat="31.507725" lon="-9.6797267"><ele>139.0</ele><time>2026-04-25T18:11:42.405Z</time></trkpt><trkpt lat="31.5076167" lon="-9.6799983"><ele>138.0</ele><time>2026-04-25T18:11:43.405Z</time></trkpt><trkpt lat="31.507505" lon="-9.6802717"><ele>137.0</ele><time>2026-04-25T18:11:44.405Z</time></trkpt><trkpt lat="31.50739" lon="-9.680545"><ele>137.0</ele><time>2026-04-25T18:11:45.405Z</time></trkpt><trkpt lat="31.5072733" lon="-9.6808183"><ele>137.0</ele><time>2026-04-25T18:11:46.405Z</time></trkpt><trkpt lat="31.507155" lon="-9.681095"><ele>135.5</ele><time>2026-04-25T18:11:47.406Z</time></trkpt><trkpt lat="31.50704" lon="-9.681375"><ele>134.0</ele><time>2026-04-25T18:11:48.405Z</time></trkpt><trkpt lat="31.5069183" lon="-9.6816633"><ele>133.5</ele><time>2026-04-25T18:11:49.405Z</time></trkpt><trkpt lat="31.5067983" lon="-9.68195"><ele>133.0</ele><time>2026-04-25T18:11:50.405Z</time></trkpt><trkpt lat="31.5066783" lon="-9.6822433"><ele>133.0</ele><time>2026-04-25T18:11:51.405Z</time></trkpt><trkpt lat="31.5065533" lon="-9.68254"><ele>133.0</ele><time>2026-04-25T18:11:52.405Z</time></trkpt><trkpt lat="31.5064283" lon="-9.6828367"><ele>132.0</ele><time>2026-04-25T18:11:53.405Z</time></trkpt><trkpt lat="31.5063033" lon="-9.6831317"><ele>131.0</ele><time>2026-04-25T18:11:54.405Z</time></trkpt><trkpt lat="31.5061767" lon="-9.68343"><ele>128.5</ele><time>2026-04-25T18:11:55.405Z</time></trkpt><trkpt lat="31.5060483" lon="-9.6837333"><ele>126.0</ele><time>2026-04-25T18:11:56.405Z</time></trkpt><trkpt lat="31.5059183" lon="-9.6840367"><ele>126.0</ele><time>2026-04-25T18:11:57.405Z</time></trkpt><trkpt lat="31.5057883" lon="-9.6843533"><ele>126.0</ele><time>2026-04-25T18:11:58.405Z</time></trkpt><trkpt lat="31.5056567" lon="-9.6846733"><ele>124.5</ele><time>2026-04-25T18:11:59.405Z</time></trkpt><trkpt lat="31.5055233" lon="-9.6849917"><ele>123.0</ele><time>2026-04-25T18:12:00.405Z</time></trkpt><trkpt lat="31.505395" lon="-9.6852967"><ele>122.5</ele><time>2026-04-25T18:12:01.405Z</time></trkpt><trkpt lat="31.50527" lon="-9.6855917"><ele>122.0</ele><time>2026-04-25T18:12:02.405Z</time></trkpt><trkpt lat="31.5051483" lon="-9.6858833"><ele>121.5</ele><time>2026-04-25T18:12:03.405Z</time></trkpt><trkpt lat="31.5050233" lon="-9.6861733"><ele>121.0</ele><time>2026-04-25T18:12:04.405Z</time></trkpt><trkpt lat="31.5048983" lon="-9.68647"><ele>121.0</ele><time>2026-04-25T18:12:05.405Z</time></trkpt><trkpt lat="31.5047733" lon="-9.686775"><ele>121.0</ele><time>2026-04-25T18:12:06.405Z</time></trkpt><trkpt lat="31.5046467" lon="-9.6870767"><ele>117.5</ele><time>2026-04-25T18:12:07.405Z</time></trkpt><trkpt lat="31.5045217" lon="-9.6873683"><ele>114.0</ele><time>2026-04-25T18:12:08.405Z</time></trkpt><trkpt lat="31.5043983" lon="-9.6876567"><ele>114.5</ele><time>2026-04-25T18:12:09.405Z</time></trkpt><trkpt lat="31.5042767" lon="-9.68795"><ele>115.0</ele><time>2026-04-25T18:12:10.405Z</time></trkpt><trkpt lat="31.504155" lon="-9.6882433"><ele>115.0</ele><time>2026-04-25T18:12:11.405Z</time></trkpt><trkpt lat="31.5040367" lon="-9.6885333"><ele>115.0</ele><time>2026-04-25T18:12:12.405Z</time></trkpt><trkpt lat="31.5039133" lon="-9.68883"><ele>115.0</ele><time>2026-04-25T18:12:13.405Z</time></trkpt><trkpt lat="31.5037817" lon="-9.6891317"><ele>115.0</ele><time>2026-04-25T18:12:14.405Z</time></trkpt><trkpt lat="31.5036533" lon="-9.6894317"><ele>115.0</ele><time>2026-04-25T18:12:15.405Z</time></trkpt><trkpt lat="31.5035217" lon="-9.6897317"><ele>115.0</ele><time>2026-04-25T18:12:16.405Z</time></trkpt><trkpt lat="31.5033967" lon="-9.690035"><ele>115.0</ele><time>2026-04-25T18:12:17.405Z</time></trkpt><trkpt lat="31.5032683" lon="-9.6903383"><ele>115.0</ele><time>2026-04-25T18:12:18.405Z</time></trkpt><trkpt lat="31.5031367" lon="-9.6906467"><ele>115.0</ele><time>2026-04-25T18:12:19.405Z</time></trkpt><trkpt lat="31.5030067" lon="-9.69096"><ele>115.0</ele><time>2026-04-25T18:12:20.405Z</time></trkpt><trkpt lat="31.5028783" lon="-9.6912683"><ele>113.0</ele><time>2026-04-25T18:12:21.405Z</time></trkpt><trkpt lat="31.502745" lon="-9.69158"><ele>111.0</ele><time>2026-04-25T18:12:22.405Z</time></trkpt><trkpt lat="31.5026133" lon="-9.69189"><ele>111.0</ele><time>2026-04-25T18:12:23.405Z</time></trkpt><trkpt lat="31.5024917" lon="-9.692185"><ele>111.0</ele><time>2026-04-25T18:12:24.405Z</time></trkpt><trkpt lat="31.5023717" lon="-9.6924733"><ele>109.5</ele><time>2026-04-25T18:12:25.405Z</time></trkpt><trkpt lat="31.5022483" lon="-9.692765"><ele>108.0</ele><time>2026-04-25T18:12:26.405Z</time></trkpt><trkpt lat="31.5021283" lon="-9.6930567"><ele>107.0</ele><time>2026-04-25T18:12:27.405Z</time></trkpt><trkpt lat="31.5020067" lon="-9.693345"><ele>106.0</ele><time>2026-04-25T18:12:28.405Z</time></trkpt><trkpt lat="31.501895" lon="-9.6936317"><ele>104.5</ele><time>2026-04-25T18:12:29.405Z</time></trkpt><trkpt lat="31.50178" lon="-9.6939033"><ele>103.0</ele><time>2026-04-25T18:12:30.405Z</time></trkpt><trkpt lat="31.5016717" lon="-9.6941683"><ele>101.0</ele><time>2026-04-25T18:12:31.405Z</time></trkpt><trkpt lat="31.5015617" lon="-9.6944283"><ele>99.0</ele><time>2026-04-25T18:12:32.405Z</time></trkpt><trkpt lat="31.5014533" lon="-9.694675"><ele>99.0</ele><time>2026-04-25T18:12:33.406Z</time></trkpt><trkpt lat="31.5013517" lon="-9.69492"><ele>99.0</ele><time>2026-04-25T18:12:34.406Z</time></trkpt><trkpt lat="31.501245" lon="-9.69515"><ele>97.66666666666667</ele><time>2026-04-25T18:12:35.405Z</time></trkpt><trkpt lat="31.5011417" lon="-9.6953717"><ele>96.33333333333334</ele><time>2026-04-25T18:12:36.405Z</time></trkpt><trkpt lat="31.501045" lon="-9.69558"><ele>95.0</ele><time>2026-04-25T18:12:37.405Z</time></trkpt><trkpt lat="31.5009567" lon="-9.6957717"><ele>95.0</ele><time>2026-04-25T18:12:38.405Z</time></trkpt><trkpt lat="31.5008867" lon="-9.6959417"><ele>95.0</ele><time>2026-04-25T18:12:39.405Z</time></trkpt><trkpt lat="31.50083" lon="-9.6960983"><ele>95.0</ele><time>2026-04-25T18:12:40.405Z</time></trkpt><trkpt lat="31.500785" lon="-9.6962483"><ele>95.0</ele><time>2026-04-25T18:12:41.406Z</time></trkpt><trkpt lat="31.5007517" lon="-9.6963933"><ele>95.25</ele><time>2026-04-25T18:12:42.405Z</time></trkpt><trkpt lat="31.500705" lon="-9.6965183"><ele>95.5</ele><time>2026-04-25T18:12:43.405Z</time></trkpt><trkpt lat="31.5006367" lon="-9.69663"><ele>95.75</ele><time>2026-04-25T18:12:44.405Z</time></trkpt><trkpt lat="31.50055" lon="-9.6967383"><ele>96.0</ele><time>2026-04-25T18:12:45.405Z</time></trkpt><trkpt lat="31.5004617" lon="-9.6968783"><ele>94.33333333333333</ele><time>2026-04-25T18:12:46.405Z</time></trkpt><trkpt lat="31.5003783" lon="-9.6970467"><ele>92.66666666666666</ele><time>2026-04-25T18:12:47.405Z</time></trkpt><trkpt lat="31.5002933" lon="-9.6972333"><ele>91.0</ele><time>2026-04-25T18:12:48.405Z</time></trkpt><trkpt lat="31.50021" lon="-9.6974367"><ele>91.0</ele><time>2026-04-25T18:12:49.405Z</time></trkpt><trkpt lat="31.500125" lon="-9.6976467"><ele>91.0</ele><time>2026-04-25T18:12:50.405Z</time></trkpt><trkpt lat="31.5000333" lon="-9.697875"><ele>91.0</ele><time>2026-04-25T18:12:51.405Z</time></trkpt><trkpt lat="31.4999367" lon="-9.698105"><ele>92.0</ele><time>2026-04-25T18:12:52.405Z</time></trkpt><trkpt lat="31.49984" lon="-9.698345"><ele>93.0</ele><time>2026-04-25T18:12:53.405Z</time></trkpt><trkpt lat="31.499745" lon="-9.698595"><ele>94.5</ele><time>2026-04-25T18:12:54.405Z</time></trkpt><trkpt lat="31.499655" lon="-9.6988433"><ele>96.0</ele><time>2026-04-25T18:12:55.405Z</time></trkpt><trkpt lat="31.4995617" lon="-9.6990833"><ele>96.33333333333334</ele><time>2026-04-25T18:12:56.405Z</time></trkpt><trkpt lat="31.4994683" lon="-9.6993183"><ele>96.66666666666667</ele><time>2026-04-25T18:12:57.405Z</time></trkpt><trkpt lat="31.49937" lon="-9.6995567"><ele>97.0</ele><time>2026-04-25T18:12:58.405Z</time></trkpt><trkpt lat="31.49927" lon="-9.699805"><ele>99.0</ele><time>2026-04-25T18:12:59.405Z</time></trkpt><trkpt lat="31.4991583" lon="-9.7000533"><ele>101.0</ele><time>2026-04-25T18:13:00.405Z</time></trkpt><trkpt lat="31.4990333" lon="-9.7003033"><ele>101.0</ele><time>2026-04-25T18:13:01.405Z</time></trkpt><trkpt lat="31.4989067" lon="-9.7005517"><ele>101.0</ele><time>2026-04-25T18:13:02.405Z</time></trkpt><trkpt lat="31.4987817" lon="-9.7007783"><ele>100.33333333333333</ele><time>2026-04-25T18:13:03.405Z</time></trkpt><trkpt lat="31.4986533" lon="-9.701"><ele>99.66666666666666</ele><time>2026-04-25T18:13:04.405Z</time></trkpt><trkpt lat="31.498535" lon="-9.701205"><ele>99.0</ele><time>2026-04-25T18:13:05.405Z</time></trkpt><trkpt lat="31.49842" lon="-9.7014067"><ele>99.0</ele><time>2026-04-25T18:13:06.405Z</time></trkpt><trkpt lat="31.4983083" lon="-9.7016167"><ele>99.0</ele><time>2026-04-25T18:13:07.405Z</time></trkpt><trkpt lat="31.4981967" lon="-9.7018317"><ele>99.0</ele><time>2026-04-25T18:13:08.405Z</time></trkpt><trkpt lat="31.4980767" lon="-9.7020383"><ele>99.33333333333334</ele><time>2026-04-25T18:13:09.405Z</time></trkpt><trkpt lat="31.4979483" lon="-9.702245"><ele>99.66666666666667</ele><time>2026-04-25T18:13:10.405Z</time></trkpt><trkpt lat="31.4978133" lon="-9.702465"><ele>100.0</ele><time>2026-04-25T18:13:11.405Z</time></trkpt><trkpt lat="31.4976833" lon="-9.7026867"><ele>98.33333333333334</ele><time>2026-04-25T18:13:12.405Z</time></trkpt><trkpt lat="31.49756" lon="-9.7029017"><ele>96.66666666666667</ele><time>2026-04-25T18:13:13.405Z</time></trkpt><trkpt lat="31.4974433" lon="-9.7031133"><ele>95.0</ele><time>2026-04-25T18:13:14.405Z</time></trkpt><trkpt lat="31.4973317" lon="-9.7033167"><ele>95.0</ele><time>2026-04-25T18:13:15.405Z</time></trkpt><trkpt lat="31.4972233" lon="-9.7035133"><ele>95.0</ele><time>2026-04-25T18:13:16.406Z</time></trkpt><trkpt lat="31.49712" lon="-9.7037033"><ele>95.0</ele><time>2026-04-25T18:13:17.405Z</time></trkpt><trkpt lat="31.4970217" lon="-9.70389"><ele>94.66666666666667</ele><time>2026-04-25T18:13:18.405Z</time></trkpt><trkpt lat="31.4969267" lon="-9.70407"><ele>94.33333333333333</ele><time>2026-04-25T18:13:19.405Z</time></trkpt><trkpt lat="31.4968367" lon="-9.70425"><ele>94.0</ele><time>2026-04-25T18:13:20.405Z</time></trkpt><trkpt lat="31.49674" lon="-9.704415"><ele>93.33333333333333</ele><time>2026-04-25T18:13:21.405Z</time></trkpt><trkpt lat="31.4966367" lon="-9.7045917"><ele>92.66666666666667</ele><time>2026-04-25T18:13:22.405Z</time></trkpt><trkpt lat="31.49653" lon="-9.704775"><ele>92.0</ele><time>2026-04-25T18:13:23.405Z</time></trkpt><trkpt lat="31.4964217" lon="-9.7049633"><ele>92.0</ele><time>2026-04-25T18:13:24.405Z</time></trkpt><trkpt lat="31.4963117" lon="-9.70516"><ele>92.0</ele><time>2026-04-25T18:13:25.405Z</time></trkpt><trkpt lat="31.4962" lon="-9.705365"><ele>92.0</ele><time>2026-04-25T18:13:26.405Z</time></trkpt><trkpt lat="31.4960883" lon="-9.7055967"><ele>90.5</ele><time>2026-04-25T18:13:27.405Z</time></trkpt><trkpt lat="31.4959733" lon="-9.7058483"><ele>89.0</ele><time>2026-04-25T18:13:28.405Z</time></trkpt><trkpt lat="31.4958617" lon="-9.706125"><ele>89.0</ele><time>2026-04-25T18:13:29.405Z</time></trkpt><trkpt lat="31.4957583" lon="-9.7064167"><ele>89.0</ele><time>2026-04-25T18:13:30.406Z</time></trkpt><trkpt lat="31.4956617" lon="-9.7067033"><ele>88.0</ele><time>2026-04-25T18:13:31.405Z</time></trkpt><trkpt lat="31.4955683" lon="-9.7069917"><ele>87.0</ele><time>2026-04-25T18:13:32.405Z</time></trkpt><trkpt lat="31.4954783" lon="-9.707285"><ele>88.0</ele><time>2026-04-25T18:13:33.405Z</time></trkpt><trkpt lat="31.4953783" lon="-9.70758"><ele>89.0</ele><time>2026-04-25T18:13:34.405Z</time></trkpt><trkpt lat="31.49528" lon="-9.7078683"><ele>90.0</ele><time>2026-04-25T18:13:35.405Z</time></trkpt><trkpt lat="31.4951883" lon="-9.7081467"><ele>91.0</ele><time>2026-04-25T18:13:36.405Z</time></trkpt><trkpt lat="31.4950967" lon="-9.7084233"><ele>90.5</ele><time>2026-04-25T18:13:37.405Z</time></trkpt><trkpt lat="31.49501" lon="-9.7087"><ele>90.0</ele><time>2026-04-25T18:13:38.405Z</time></trkpt><trkpt lat="31.49492" lon="-9.7089767"><ele>90.0</ele><time>2026-04-25T18:13:39.405Z</time></trkpt><trkpt lat="31.49483" lon="-9.7092483"><ele>90.0</ele><time>2026-04-25T18:13:40.405Z</time></trkpt><trkpt lat="31.4947367" lon="-9.70953"><ele>91.5</ele><time>2026-04-25T18:13:41.405Z</time></trkpt><trkpt lat="31.494645" lon="-9.7098217"><ele>93.0</ele><time>2026-04-25T18:13:42.405Z</time></trkpt><trkpt lat="31.4945533" lon="-9.7101183"><ele>93.0</ele><time>2026-04-25T18:13:43.405Z</time></trkpt><trkpt lat="31.4944567" lon="-9.7104283"><ele>93.0</ele><time>2026-04-25T18:13:44.405Z</time></trkpt><trkpt lat="31.4943583" lon="-9.71074"><ele>93.0</ele><time>2026-04-25T18:13:45.405Z</time></trkpt><trkpt lat="31.494265" lon="-9.7110417"><ele>93.0</ele><time>2026-04-25T18:13:46.405Z</time></trkpt><trkpt lat="31.4941683" lon="-9.71134"><ele>92.0</ele><time>2026-04-25T18:13:47.405Z</time></trkpt><trkpt lat="31.4940717" lon="-9.7116333"><ele>91.0</ele><time>2026-04-25T18:13:48.405Z</time></trkpt><trkpt lat="31.4939767" lon="-9.7119283"><ele>91.0</ele><time>2026-04-25T18:13:49.405Z</time></trkpt><trkpt lat="31.493885" lon="-9.7122217"><ele>91.0</ele><time>2026-04-25T18:13:50.405Z</time></trkpt><trkpt lat="31.49379" lon="-9.71252"><ele>89.0</ele><time>2026-04-25T18:13:51.405Z</time></trkpt><trkpt lat="31.4936917" lon="-9.7128167"><ele>87.0</ele><time>2026-04-25T18:13:52.405Z</time></trkpt><trkpt lat="31.49359" lon="-9.7131133"><ele>87.0</ele><time>2026-04-25T18:13:53.405Z</time></trkpt><trkpt lat="31.4934967" lon="-9.7134017"><ele>87.0</ele><time>2026-04-25T18:13:54.405Z</time></trkpt><trkpt lat="31.4934067" lon="-9.713675"><ele>87.5</ele><time>2026-04-25T18:13:55.405Z</time></trkpt><trkpt lat="31.4933167" lon="-9.7139517"><ele>88.0</ele><time>2026-04-25T18:13:56.405Z</time></trkpt><trkpt lat="31.4932267" lon="-9.71423"><ele>89.0</ele><time>2026-04-25T18:13:57.405Z</time></trkpt><trkpt lat="31.4931333" lon="-9.71451"><ele>90.0</ele><time>2026-04-25T18:13:58.405Z</time></trkpt><trkpt lat="31.49304" lon="-9.714795"><ele>90.0</ele><time>2026-04-25T18:13:59.405Z</time></trkpt><trkpt lat="31.4929517" lon="-9.7150767"><ele>90.0</ele><time>2026-04-25T18:14:00.405Z</time></trkpt><trkpt lat="31.4928667" lon="-9.7153517"><ele>89.5</ele><time>2026-04-25T18:14:01.405Z</time></trkpt><trkpt lat="31.4927917" lon="-9.7156283"><ele>89.0</ele><time>2026-04-25T18:14:02.405Z</time></trkpt><trkpt lat="31.4927283" lon="-9.7159117"><ele>88.0</ele><time>2026-04-25T18:14:03.405Z</time></trkpt><trkpt lat="31.49268" lon="-9.71621"><ele>87.0</ele><time>2026-04-25T18:14:04.405Z</time></trkpt><trkpt lat="31.4926417" lon="-9.716515"><ele>87.0</ele><time>2026-04-25T18:14:05.405Z</time></trkpt><trkpt lat="31.4926133" lon="-9.7168267"><ele>87.0</ele><time>2026-04-25T18:14:06.405Z</time></trkpt><trkpt lat="31.4925867" lon="-9.7171433"><ele>86.5</ele><time>2026-04-25T18:14:07.405Z</time></trkpt><trkpt lat="31.4925567" lon="-9.717465"><ele>86.0</ele><time>2026-04-25T18:14:08.405Z</time></trkpt><trkpt lat="31.492525" lon="-9.7177883"><ele>84.5</ele><time>2026-04-25T18:14:09.405Z</time></trkpt><trkpt lat="31.4924983" lon="-9.7181183"><ele>83.0</ele><time>2026-04-25T18:14:10.406Z</time></trkpt><trkpt lat="31.4924783" lon="-9.7184533"><ele>82.0</ele><time>2026-04-25T18:14:11.405Z</time></trkpt><trkpt lat="31.4924783" lon="-9.7187983"><ele>81.0</ele><time>2026-04-25T18:14:12.406Z</time></trkpt><trkpt lat="31.49249" lon="-9.719155"><ele>80.5</ele><time>2026-04-25T18:14:13.405Z</time></trkpt><trkpt lat="31.4925083" lon="-9.7195183"><ele>80.0</ele><time>2026-04-25T18:14:14.405Z</time></trkpt><trkpt lat="31.4925317" lon="-9.7198617"><ele>80.0</ele><time>2026-04-25T18:14:15.405Z</time></trkpt><trkpt lat="31.4925617" lon="-9.7202017"><ele>80.0</ele><time>2026-04-25T18:14:16.405Z</time></trkpt><trkpt lat="31.4925867" lon="-9.7205383"><ele>79.5</ele><time>2026-04-25T18:14:17.405Z</time></trkpt><trkpt lat="31.49261" lon="-9.720865"><ele>79.0</ele><time>2026-04-25T18:14:18.405Z</time></trkpt><trkpt lat="31.4926367" lon="-9.7211967"><ele>79.0</ele><time>2026-04-25T18:14:19.406Z</time></trkpt><trkpt lat="31.49267" lon="-9.7215317"><ele>79.0</ele><time>2026-04-25T18:14:20.405Z</time></trkpt><trkpt lat="31.4927067" lon="-9.7218533"><ele>78.0</ele><time>2026-04-25T18:14:21.405Z</time></trkpt><trkpt lat="31.4927417" lon="-9.7221583"><ele>77.0</ele><time>2026-04-25T18:14:22.405Z</time></trkpt><trkpt lat="31.4927967" lon="-9.7224683"><ele>77.5</ele><time>2026-04-25T18:14:23.405Z</time></trkpt><trkpt lat="31.4928667" lon="-9.722785"><ele>78.0</ele><time>2026-04-25T18:14:24.405Z</time></trkpt><trkpt lat="31.4929633" lon="-9.7231033"><ele>77.0</ele><time>2026-04-25T18:14:25.405Z</time></trkpt><trkpt lat="31.493085" lon="-9.72342"><ele>76.0</ele><time>2026-04-25T18:14:26.406Z</time></trkpt><trkpt lat="31.49322" lon="-9.7237217"><ele>74.5</ele><time>2026-04-25T18:14:27.405Z</time></trkpt><trkpt lat="31.4933533" lon="-9.7240067"><ele>73.0</ele><time>2026-04-25T18:14:28.405Z</time></trkpt><trkpt lat="31.493485" lon="-9.7242733"><ele>73.5</ele><time>2026-04-25T18:14:29.405Z</time></trkpt><trkpt lat="31.4936117" lon="-9.724545"><ele>74.0</ele><time>2026-04-25T18:14:30.405Z</time></trkpt><trkpt lat="31.493745" lon="-9.7248183"><ele>74.5</ele><time>2026-04-25T18:14:31.405Z</time></trkpt><trkpt lat="31.49387" lon="-9.72508"><ele>75.0</ele><time>2026-04-25T18:14:32.405Z</time></trkpt><trkpt lat="31.4939867" lon="-9.7253167"><ele>75.0</ele><time>2026-04-25T18:14:33.405Z</time></trkpt><trkpt lat="31.494105" lon="-9.72555"><ele>75.0</ele><time>2026-04-25T18:14:34.405Z</time></trkpt><trkpt lat="31.494235" lon="-9.7257783"><ele>75.0</ele><time>2026-04-25T18:14:35.405Z</time></trkpt><trkpt lat="31.4943767" lon="-9.7260167"><ele>75.0</ele><time>2026-04-25T18:14:36.405Z</time></trkpt><trkpt lat="31.49453" lon="-9.7262483"><ele>76.0</ele><time>2026-04-25T18:14:37.405Z</time></trkpt><trkpt lat="31.494695" lon="-9.72647"><ele>77.0</ele><time>2026-04-25T18:14:38.405Z</time></trkpt><trkpt lat="31.49486" lon="-9.72669"><ele>78.0</ele><time>2026-04-25T18:14:39.405Z</time></trkpt><trkpt lat="31.4950333" lon="-9.7269083"><ele>79.0</ele><time>2026-04-25T18:14:40.405Z</time></trkpt><trkpt lat="31.49521" lon="-9.72713"><ele>79.0</ele><time>2026-04-25T18:14:41.405Z</time></trkpt><trkpt lat="31.495395" lon="-9.7273617"><ele>79.0</ele><time>2026-04-25T18:14:42.406Z</time></trkpt><trkpt lat="31.4955967" lon="-9.727605"><ele>82.5</ele><time>2026-04-25T18:14:43.405Z</time></trkpt><trkpt lat="31.4957933" lon="-9.72784"><ele>86.0</ele><time>2026-04-25T18:14:44.405Z</time></trkpt><trkpt lat="31.495975" lon="-9.7280583"><ele>86.0</ele><time>2026-04-25T18:14:45.405Z</time></trkpt><trkpt lat="31.4961517" lon="-9.7282667"><ele>86.0</ele><time>2026-04-25T18:14:46.405Z</time></trkpt><trkpt lat="31.49632" lon="-9.7284733"><ele>89.5</ele><time>2026-04-25T18:14:47.405Z</time></trkpt><trkpt lat="31.4964933" lon="-9.7286833"><ele>93.0</ele><time>2026-04-25T18:14:48.406Z</time></trkpt><trkpt lat="31.496665" lon="-9.728895"><ele>93.0</ele><time>2026-04-25T18:14:49.405Z</time></trkpt><trkpt lat="31.4968267" lon="-9.72911"><ele>93.0</ele><time>2026-04-25T18:14:50.405Z</time></trkpt><trkpt lat="31.4969767" lon="-9.7293383"><ele>93.0</ele><time>2026-04-25T18:14:51.405Z</time></trkpt><trkpt lat="31.497115" lon="-9.7295833"><ele>93.0</ele><time>2026-04-25T18:14:52.405Z</time></trkpt><trkpt lat="31.4972267" lon="-9.729825"><ele>93.0</ele><time>2026-04-25T18:14:53.405Z</time></trkpt><trkpt lat="31.497315" lon="-9.7300733"><ele>93.0</ele><time>2026-04-25T18:14:54.405Z</time></trkpt><trkpt lat="31.4973883" lon="-9.73032"><ele>91.33333333333333</ele><time>2026-04-25T18:14:55.405Z</time></trkpt><trkpt lat="31.4974417" lon="-9.7305533"><ele>89.66666666666666</ele><time>2026-04-25T18:14:56.405Z</time></trkpt><trkpt lat="31.49748" lon="-9.7307817"><ele>88.0</ele><time>2026-04-25T18:14:57.405Z</time></trkpt><trkpt lat="31.49751" lon="-9.731005"><ele>87.33333333333333</ele><time>2026-04-25T18:14:58.405Z</time></trkpt><trkpt lat="31.4975183" lon="-9.7312117"><ele>86.66666666666667</ele><time>2026-04-25T18:14:59.405Z</time></trkpt><trkpt lat="31.497515" lon="-9.7314217"><ele>86.0</ele><time>2026-04-25T18:15:00.405Z</time></trkpt><trkpt lat="31.4975" lon="-9.73162"><ele>86.0</ele><time>2026-04-25T18:15:01.405Z</time></trkpt><trkpt lat="31.4974767" lon="-9.7318133"><ele>86.0</ele><time>2026-04-25T18:15:02.405Z</time></trkpt><trkpt lat="31.4974533" lon="-9.7319783"><ele>86.0</ele><time>2026-04-25T18:15:03.405Z</time></trkpt><trkpt lat="31.4974267" lon="-9.7321117"><ele>86.0</ele><time>2026-04-25T18:15:04.405Z</time></trkpt><trkpt lat="31.49741" lon="-9.7322283"><ele>85.57142857142858</ele><time>2026-04-25T18:15:05.405Z</time></trkpt><trkpt lat="31.497395" lon="-9.7323117"><ele>85.14285714285714</ele><time>2026-04-25T18:15:06.405Z</time></trkpt><trkpt lat="31.49738" lon="-9.7323917"><ele>84.71428571428572</ele><time>2026-04-25T18:15:08.405Z</time></trkpt><trkpt lat="31.4973583" lon="-9.7324833"><ele>84.28571428571429</ele><time>2026-04-25T18:15:12.405Z</time></trkpt><trkpt lat="31.49733" lon="-9.7325517"><ele>83.85714285714286</ele><time>2026-04-25T18:15:14.405Z</time></trkpt><trkpt lat="31.4973" lon="-9.7326233"><ele>83.42857142857143</ele><time>2026-04-25T18:15:16.405Z</time></trkpt><trkpt lat="31.4972617" lon="-9.732685"><ele>83.0</ele><time>2026-04-25T18:15:18.405Z</time></trkpt><trkpt lat="31.4971967" lon="-9.7327983"><ele>82.71428571428571</ele><time>2026-04-25T18:16:10.405Z</time></trkpt><trkpt lat="31.4971633" lon="-9.7328783"><ele>82.42857142857143</ele><time>2026-04-25T18:16:13.405Z</time></trkpt><trkpt lat="31.4971233" lon="-9.7329467"><ele>82.14285714285714</ele><time>2026-04-25T18:16:16.405Z</time></trkpt><trkpt lat="31.4970883" lon="-9.7330083"><ele>81.85714285714286</ele><time>2026-04-25T18:16:18.405Z</time></trkpt><trkpt lat="31.4970533" lon="-9.7330733"><ele>81.57142857142857</ele><time>2026-04-25T18:16:20.405Z</time></trkpt><trkpt lat="31.4970133" lon="-9.733145"><ele>81.28571428571429</ele><time>2026-04-25T18:16:22.405Z</time></trkpt><trkpt lat="31.496965" lon="-9.733235"><ele>81.0</ele><time>2026-04-25T18:16:25.405Z</time></trkpt><trkpt lat="31.496895" lon="-9.7333283"><ele>81.0</ele><time>2026-04-25T18:17:00.405Z</time></trkpt><trkpt lat="31.4968433" lon="-9.733395"><ele>81.0</ele><time>2026-04-25T18:17:01.405Z</time></trkpt><trkpt lat="31.4967883" lon="-9.7334583"><ele>81.0</ele><time>2026-04-25T18:17:02.405Z</time></trkpt><trkpt lat="31.4967367" lon="-9.7335183"><ele>81.0</ele><time>2026-04-25T18:17:03.405Z</time></trkpt><trkpt lat="31.4966833" lon="-9.7335817"><ele>81.0</ele><time>2026-04-25T18:17:04.405Z</time></trkpt><trkpt lat="31.49663" lon="-9.7336433"><ele>81.0</ele><time>2026-04-25T18:17:05.405Z</time></trkpt><trkpt lat="31.4965717" lon="-9.7337083"><ele>80.83333333333333</ele><time>2026-04-25T18:17:06.405Z</time></trkpt><trkpt lat="31.4965133" lon="-9.7337733"><ele>80.66666666666667</ele><time>2026-04-25T18:17:07.405Z</time></trkpt><trkpt lat="31.496455" lon="-9.73384"><ele>80.5</ele><time>2026-04-25T18:17:08.405Z</time></trkpt><trkpt lat="31.496395" lon="-9.7339117"><ele>80.33333333333334</ele><time>2026-04-25T18:17:09.405Z</time></trkpt><trkpt lat="31.4963317" lon="-9.733985"><ele>80.16666666666667</ele><time>2026-04-25T18:17:10.405Z</time></trkpt><trkpt lat="31.496265" lon="-9.73406"><ele>80.0</ele><time>2026-04-25T18:17:11.405Z</time></trkpt><trkpt lat="31.4962017" lon="-9.7341467"><ele>80.0</ele><time>2026-04-25T18:17:12.405Z</time></trkpt><trkpt lat="31.4961317" lon="-9.7342233"><ele>80.0</ele><time>2026-04-25T18:17:13.405Z</time></trkpt><trkpt lat="31.496065" lon="-9.7342983"><ele>80.0</ele><time>2026-04-25T18:17:14.405Z</time></trkpt><trkpt lat="31.4959883" lon="-9.7343783"><ele>80.0</ele><time>2026-04-25T18:17:15.405Z</time></trkpt><trkpt lat="31.495915" lon="-9.7344567"><ele>80.0</ele><time>2026-04-25T18:17:16.405Z</time></trkpt><trkpt lat="31.4958433" lon="-9.7345433"><ele>77.8</ele><time>2026-04-25T18:17:17.405Z</time></trkpt><trkpt lat="31.4957667" lon="-9.7346217"><ele>75.6</ele><time>2026-04-25T18:17:18.405Z</time></trkpt><trkpt lat="31.495695" lon="-9.7347067"><ele>73.4</ele><time>2026-04-25T18:17:19.405Z</time></trkpt><trkpt lat="31.4956217" lon="-9.7347933"><ele>71.2</ele><time>2026-04-25T18:17:20.405Z</time></trkpt><trkpt lat="31.4955483" lon="-9.7348717"><ele>69.0</ele><time>2026-04-25T18:17:21.405Z</time></trkpt><trkpt lat="31.495475" lon="-9.7349483"><ele>69.8</ele><time>2026-04-25T18:17:22.405Z</time></trkpt><trkpt lat="31.4954" lon="-9.7350283"><ele>70.60000000000001</ele><time>2026-04-25T18:17:23.405Z</time></trkpt><trkpt lat="31.4953233" lon="-9.73511"><ele>71.4</ele><time>2026-04-25T18:17:24.405Z</time></trkpt><trkpt lat="31.4952483" lon="-9.735185"><ele>72.2</ele><time>2026-04-25T18:17:25.405Z</time></trkpt><trkpt lat="31.4951733" lon="-9.7352733"><ele>73.0</ele><time>2026-04-25T18:17:26.405Z</time></trkpt><trkpt lat="31.495095" lon="-9.7353617"><ele>71.4</ele><time>2026-04-25T18:17:27.405Z</time></trkpt><trkpt lat="31.4950217" lon="-9.7354467"><ele>69.8</ele><time>2026-04-25T18:17:28.405Z</time></trkpt><trkpt lat="31.49494" lon="-9.7355317"><ele>68.2</ele><time>2026-04-25T18:17:29.405Z</time></trkpt><trkpt lat="31.4948617" lon="-9.7356117"><ele>66.6</ele><time>2026-04-25T18:17:30.405Z</time></trkpt><trkpt lat="31.4947817" lon="-9.7357033"><ele>65.0</ele><time>2026-04-25T18:17:31.405Z</time></trkpt><trkpt lat="31.494705" lon="-9.7357883"><ele>65.0</ele><time>2026-04-25T18:17:32.405Z</time></trkpt><trkpt lat="31.49463" lon="-9.7358717"><ele>65.0</ele><time>2026-04-25T18:17:33.405Z</time></trkpt><trkpt lat="31.49456" lon="-9.7359383"><ele>65.0</ele><time>2026-04-25T18:17:34.405Z</time></trkpt><trkpt lat="31.4945033" lon="-9.7359983"><ele>65.0</ele><time>2026-04-25T18:17:35.405Z</time></trkpt><trkpt lat="31.4944533" lon="-9.736055"><ele>65.0</ele><time>2026-04-25T18:17:36.405Z</time></trkpt><trkpt lat="31.4944017" lon="-9.7361033"><ele>65.0</ele><time>2026-04-25T18:17:37.405Z</time></trkpt><trkpt lat="31.49435" lon="-9.736155"><ele>64.2</ele><time>2026-04-25T18:17:38.405Z</time></trkpt><trkpt lat="31.49427" lon="-9.7362433"><ele>63.4</ele><time>2026-04-25T18:17:40.405Z</time></trkpt><trkpt lat="31.4942083" lon="-9.7363233"><ele>62.599999999999994</ele><time>2026-04-25T18:17:42.405Z</time></trkpt><trkpt lat="31.4941517" lon="-9.7363933"><ele>61.8</ele><time>2026-04-25T18:17:44.405Z</time></trkpt><trkpt lat="31.49408" lon="-9.7364783"><ele>61.0</ele><time>2026-04-25T18:19:05.405Z</time></trkpt><trkpt lat="31.493965" lon="-9.7365767"><ele>61.0</ele><time>2026-04-25T18:19:07.406Z</time></trkpt><trkpt lat="31.4938883" lon="-9.73665"><ele>61.0</ele><time>2026-04-25T18:19:08.405Z</time></trkpt><trkpt lat="31.4937883" lon="-9.7367517"><ele>61.0</ele><time>2026-04-25T18:19:09.405Z</time></trkpt><trkpt lat="31.4936767" lon="-9.7368717"><ele>61.0</ele><time>2026-04-25T18:19:10.405Z</time></trkpt><trkpt lat="31.4935383" lon="-9.7370217"><ele>60.0</ele><time>2026-04-25T18:19:11.405Z</time></trkpt><trkpt lat="31.4933783" lon="-9.7371917"><ele>59.0</ele><time>2026-04-25T18:19:12.406Z</time></trkpt><trkpt lat="31.4931817" lon="-9.7374"><ele>59.0</ele><time>2026-04-25T18:19:13.405Z</time></trkpt><trkpt lat="31.49295" lon="-9.737645"><ele>59.0</ele><time>2026-04-25T18:19:14.405Z</time></trkpt><trkpt lat="31.4927117" lon="-9.7379033"><ele>58.5</ele><time>2026-04-25T18:19:15.405Z</time></trkpt><trkpt lat="31.49248" lon="-9.7381567"><ele>58.0</ele><time>2026-04-25T18:19:16.406Z</time></trkpt><trkpt lat="31.4922567" lon="-9.738395"><ele>57.0</ele><time>2026-04-25T18:19:17.405Z</time></trkpt><trkpt lat="31.49205" lon="-9.7386183"><ele>56.0</ele><time>2026-04-25T18:19:18.405Z</time></trkpt><trkpt lat="31.491855" lon="-9.73883"><ele>56.0</ele><time>2026-04-25T18:19:19.405Z</time></trkpt><trkpt lat="31.491675" lon="-9.739025"><ele>56.0</ele><time>2026-04-25T18:19:20.405Z</time></trkpt><trkpt lat="31.491505" lon="-9.739225"><ele>55.5</ele><time>2026-04-25T18:19:21.405Z</time></trkpt><trkpt lat="31.49134" lon="-9.739415"><ele>55.0</ele><time>2026-04-25T18:19:22.405Z</time></trkpt><trkpt lat="31.49118" lon="-9.7395983"><ele>55.0</ele><time>2026-04-25T18:19:23.405Z</time></trkpt><trkpt lat="31.4910333" lon="-9.7397833"><ele>55.0</ele><time>2026-04-25T18:19:24.405Z</time></trkpt><trkpt lat="31.4908983" lon="-9.7399833"><ele>55.0</ele><time>2026-04-25T18:19:25.405Z</time></trkpt><trkpt lat="31.4907717" lon="-9.7402117"><ele>53.0</ele><time>2026-04-25T18:19:26.405Z</time></trkpt><trkpt lat="31.4906567" lon="-9.7404567"><ele>51.0</ele><time>2026-04-25T18:19:27.405Z</time></trkpt><trkpt lat="31.49057" lon="-9.7407167"><ele>51.0</ele><time>2026-04-25T18:19:28.405Z</time></trkpt><trkpt lat="31.4904983" lon="-9.7409983"><ele>51.0</ele><time>2026-04-25T18:19:29.405Z</time></trkpt><trkpt lat="31.4904483" lon="-9.7412917"><ele>48.5</ele><time>2026-04-25T18:19:30.405Z</time></trkpt><trkpt lat="31.4904233" lon="-9.7415817"><ele>46.0</ele><time>2026-04-25T18:19:31.405Z</time></trkpt><trkpt lat="31.49042" lon="-9.7418617"><ele>45.0</ele><time>2026-04-25T18:19:32.405Z</time></trkpt><trkpt lat="31.4904517" lon="-9.74215"><ele>44.0</ele><time>2026-04-25T18:19:33.405Z</time></trkpt><trkpt lat="31.4905083" lon="-9.7424417"><ele>42.0</ele><time>2026-04-25T18:19:34.405Z</time></trkpt><trkpt lat="31.4905983" lon="-9.742735"><ele>40.0</ele><time>2026-04-25T18:19:35.405Z</time></trkpt><trkpt lat="31.4907" lon="-9.7430167"><ele>40.0</ele><time>2026-04-25T18:19:36.406Z</time></trkpt><trkpt lat="31.4908083" lon="-9.7432767"><ele>40.0</ele><time>2026-04-25T18:19:37.405Z</time></trkpt><trkpt lat="31.490915" lon="-9.7435233"><ele>37.0</ele><time>2026-04-25T18:19:38.405Z</time></trkpt><trkpt lat="31.4910167" lon="-9.743765"><ele>34.0</ele><time>2026-04-25T18:19:39.405Z</time></trkpt><trkpt lat="31.491135" lon="-9.7439917"><ele>32.5</ele><time>2026-04-25T18:19:40.405Z</time></trkpt><trkpt lat="31.4912783" lon="-9.7442233"><ele>31.0</ele><time>2026-04-25T18:19:41.405Z</time></trkpt><trkpt lat="31.49145" lon="-9.7444533"><ele>30.0</ele><time>2026-04-25T18:19:42.405Z</time></trkpt><trkpt lat="31.4916317" lon="-9.744675"><ele>29.0</ele><time>2026-04-25T18:19:43.405Z</time></trkpt><trkpt lat="31.4918183" lon="-9.7448733"><ele>29.0</ele><time>2026-04-25T18:19:44.405Z</time></trkpt><trkpt lat="31.4920117" lon="-9.745045"><ele>29.0</ele><time>2026-04-25T18:19:45.405Z</time></trkpt><trkpt lat="31.4921983" lon="-9.74521"><ele>27.5</ele><time>2026-04-25T18:19:46.405Z</time></trkpt><trkpt lat="31.4923867" lon="-9.7453767"><ele>26.0</ele><time>2026-04-25T18:19:47.405Z</time></trkpt><trkpt lat="31.49258" lon="-9.7455367"><ele>26.0</ele><time>2026-04-25T18:19:48.405Z</time></trkpt><trkpt lat="31.492785" lon="-9.7456767"><ele>26.0</ele><time>2026-04-25T18:19:49.405Z</time></trkpt><trkpt lat="31.4929983" lon="-9.7458"><ele>27.0</ele><time>2026-04-25T18:19:50.405Z</time></trkpt><trkpt lat="31.4932233" lon="-9.7459067"><ele>28.0</ele><time>2026-04-25T18:19:51.405Z</time></trkpt><trkpt lat="31.4934583" lon="-9.7459933"><ele>26.0</ele><time>2026-04-25T18:19:52.405Z</time></trkpt><trkpt lat="31.4937017" lon="-9.7460783"><ele>24.0</ele><time>2026-04-25T18:19:53.405Z</time></trkpt><trkpt lat="31.4939533" lon="-9.746165"><ele>23.5</ele><time>2026-04-25T18:19:54.405Z</time></trkpt><trkpt lat="31.4942117" lon="-9.7462333"><ele>23.0</ele><time>2026-04-25T18:19:55.405Z</time></trkpt><trkpt lat="31.4944517" lon="-9.7462983"><ele>23.0</ele><time>2026-04-25T18:19:56.406Z</time></trkpt><trkpt lat="31.4946783" lon="-9.746375"><ele>23.0</ele><time>2026-04-25T18:19:57.405Z</time></trkpt><trkpt lat="31.4948983" lon="-9.7464767"><ele>23.0</ele><time>2026-04-25T18:19:58.405Z</time></trkpt><trkpt lat="31.49512" lon="-9.7466067"><ele>23.0</ele><time>2026-04-25T18:19:59.406Z</time></trkpt><trkpt lat="31.4953383" lon="-9.7467683"><ele>19.5</ele><time>2026-04-25T18:20:00.405Z</time></trkpt><trkpt lat="31.4955517" lon="-9.746955"><ele>16.0</ele><time>2026-04-25T18:20:01.405Z</time></trkpt><trkpt lat="31.495725" lon="-9.74716"><ele>16.0</ele><time>2026-04-25T18:20:02.405Z</time></trkpt><trkpt lat="31.495885" lon="-9.7473733"><ele>16.0</ele><time>2026-04-25T18:20:03.405Z</time></trkpt><trkpt lat="31.4960133" lon="-9.7475967"><ele>14.666666666666666</ele><time>2026-04-25T18:20:04.405Z</time></trkpt><trkpt lat="31.4961267" lon="-9.7478267"><ele>13.333333333333332</ele><time>2026-04-25T18:20:05.405Z</time></trkpt><trkpt lat="31.4962233" lon="-9.7480583"><ele>12.0</ele><time>2026-04-25T18:20:06.405Z</time></trkpt><trkpt lat="31.4963117" lon="-9.7482833"><ele>12.0</ele><time>2026-04-25T18:20:07.405Z</time></trkpt><trkpt lat="31.49639" lon="-9.7485"><ele>12.0</ele><time>2026-04-25T18:20:08.405Z</time></trkpt><trkpt lat="31.4964683" lon="-9.7487117"><ele>12.0</ele><time>2026-04-25T18:20:09.406Z</time></trkpt><trkpt lat="31.496545" lon="-9.74891"><ele>12.0</ele><time>2026-04-25T18:20:10.405Z</time></trkpt><trkpt lat="31.496615" lon="-9.749095"><ele>12.0</ele><time>2026-04-25T18:20:11.405Z</time></trkpt><trkpt lat="31.4966817" lon="-9.74927"><ele>12.0</ele><time>2026-04-25T18:20:12.405Z</time></trkpt><trkpt lat="31.4967467" lon="-9.749435"><ele>12.0</ele><time>2026-04-25T18:20:13.405Z</time></trkpt><trkpt lat="31.4968017" lon="-9.7495917"><ele>12.0</ele><time>2026-04-25T18:20:14.405Z</time></trkpt><trkpt lat="31.4968533" lon="-9.7497367"><ele>12.0</ele><time>2026-04-25T18:20:15.405Z</time></trkpt><trkpt lat="31.4969033" lon="-9.74987"><ele>12.0</ele><time>2026-04-25T18:20:16.405Z</time></trkpt><trkpt lat="31.4969483" lon="-9.7499933"><ele>12.0</ele><time>2026-04-25T18:20:17.405Z</time></trkpt><trkpt lat="31.4969917" lon="-9.7501017"><ele>12.0</ele><time>2026-04-25T18:20:18.405Z</time></trkpt><trkpt lat="31.49703" lon="-9.7502017"><ele>12.0</ele><time>2026-04-25T18:20:19.405Z</time></trkpt><trkpt lat="31.4970667" lon="-9.7502983"><ele>12.0</ele><time>2026-04-25T18:20:20.405Z</time></trkpt><trkpt lat="31.497095" lon="-9.7503833"><ele>12.0</ele><time>2026-04-25T18:20:21.405Z</time></trkpt><trkpt lat="31.49712" lon="-9.75046"><ele>12.0</ele><time>2026-04-25T18:20:22.405Z</time></trkpt><trkpt lat="31.497165" lon="-9.7505733"><ele>11.333333333333334</ele><time>2026-04-25T18:20:24.405Z</time></trkpt><trkpt lat="31.4972033" lon="-9.7506683"><ele>10.666666666666666</ele><time>2026-04-25T18:20:26.405Z</time></trkpt><trkpt lat="31.4972467" lon="-9.750765"><ele>10.0</ele><time>2026-04-25T18:20:28.405Z</time></trkpt><trkpt lat="31.4972917" lon="-9.7508817"><ele>9.333333333333332</ele><time>2026-04-25T18:20:30.405Z</time></trkpt><trkpt lat="31.4973133" lon="-9.7509517"><ele>8.666666666666666</ele><time>2026-04-25T18:20:31.405Z</time></trkpt><trkpt lat="31.49734" lon="-9.75102"><ele>8.0</ele><time>2026-04-25T18:20:32.405Z</time></trkpt><trkpt lat="31.497385" lon="-9.7511517"><ele>7.6000000000000005</ele><time>2026-04-25T18:20:34.405Z</time></trkpt><trkpt lat="31.4974183" lon="-9.7512717"><ele>7.200000000000001</ele><time>2026-04-25T18:20:36.405Z</time></trkpt><trkpt lat="31.497455" lon="-9.751385"><ele>6.8</ele><time>2026-04-25T18:20:38.405Z</time></trkpt><trkpt lat="31.497505" lon="-9.7514767"><ele>6.4</ele><time>2026-04-25T18:20:40.406Z</time></trkpt><trkpt lat="31.49756" lon="-9.7516017"><ele>6.0</ele><time>2026-04-25T18:20:42.405Z</time></trkpt><trkpt lat="31.4975667" lon="-9.7516833"><ele>6.0</ele><time>2026-04-25T18:20:43.405Z</time></trkpt><trkpt lat="31.497565" lon="-9.7517833"><ele>6.0</ele><time>2026-04-25T18:20:44.405Z</time></trkpt><trkpt lat="31.4975583" lon="-9.7519"><ele>6.0</ele><time>2026-04-25T18:20:45.405Z</time></trkpt><trkpt lat="31.49756" lon="-9.75204"><ele>6.0</ele><time>2026-04-25T18:20:46.405Z</time></trkpt><trkpt lat="31.497565" lon="-9.7521917"><ele>6.0</ele><time>2026-04-25T18:20:47.405Z</time></trkpt><trkpt lat="31.4975667" lon="-9.7523533"><ele>6.25</ele><time>2026-04-25T18:20:48.405Z</time></trkpt><trkpt lat="31.49756" lon="-9.75251"><ele>6.5</ele><time>2026-04-25T18:20:49.405Z</time></trkpt><trkpt lat="31.4975517" lon="-9.7526683"><ele>6.75</ele><time>2026-04-25T18:20:50.405Z</time></trkpt><trkpt lat="31.497535" lon="-9.75283"><ele>7.0</ele><time>2026-04-25T18:20:51.405Z</time></trkpt><trkpt lat="31.4975033" lon="-9.752995"><ele>7.0</ele><time>2026-04-25T18:20:52.405Z</time></trkpt><trkpt lat="31.4974683" lon="-9.7531733"><ele>7.0</ele><time>2026-04-25T18:20:53.405Z</time></trkpt><trkpt lat="31.497425" lon="-9.7533567"><ele>7.0</ele><time>2026-04-25T18:20:54.405Z</time></trkpt><trkpt lat="31.497375" lon="-9.7535267"><ele>6.75</ele><time>2026-04-25T18:20:55.405Z</time></trkpt><trkpt lat="31.49732" lon="-9.7536833"><ele>6.5</ele><time>2026-04-25T18:20:56.405Z</time></trkpt><trkpt lat="31.4972683" lon="-9.7538367"><ele>6.25</ele><time>2026-04-25T18:20:57.405Z</time></trkpt><trkpt lat="31.4972117" lon="-9.7539933"><ele>6.0</ele><time>2026-04-25T18:20:58.405Z</time></trkpt><trkpt lat="31.4971483" lon="-9.7541583"><ele>6.0</ele><time>2026-04-25T18:20:59.406Z</time></trkpt><trkpt lat="31.4970867" lon="-9.75432"><ele>6.0</ele><time>2026-04-25T18:21:00.405Z</time></trkpt><trkpt lat="31.4970217" lon="-9.754485"><ele>6.0</ele><time>2026-04-25T18:21:01.405Z</time></trkpt><trkpt lat="31.4969583" lon="-9.7546617"><ele>6.333333333333334</ele><time>2026-04-25T18:21:02.405Z</time></trkpt><trkpt lat="31.4968867" lon="-9.7548317"><ele>6.666666666666667</ele><time>2026-04-25T18:21:03.405Z</time></trkpt><trkpt lat="31.496825" lon="-9.7550067"><ele>7.0</ele><time>2026-04-25T18:21:04.405Z</time></trkpt><trkpt lat="31.49677" lon="-9.7551767"><ele>6.5</ele><time>2026-04-25T18:21:05.405Z</time></trkpt><trkpt lat="31.496715" lon="-9.7553283"><ele>6.0</ele><time>2026-04-25T18:21:06.405Z</time></trkpt><trkpt lat="31.49666" lon="-9.7554733"><ele>5.5</ele><time>2026-04-25T18:21:07.405Z</time></trkpt><trkpt lat="31.4966083" lon="-9.7556083"><ele>5.0</ele><time>2026-04-25T18:21:08.405Z</time></trkpt><trkpt lat="31.49656" lon="-9.7557383"><ele>5.0</ele><time>2026-04-25T18:21:09.405Z</time></trkpt><trkpt lat="31.49652" lon="-9.755865"><ele>5.0</ele><time>2026-04-25T18:21:10.405Z</time></trkpt><trkpt lat="31.4964917" lon="-9.755995"><ele>5.0</ele><time>2026-04-25T18:21:11.405Z</time></trkpt><trkpt lat="31.496475" lon="-9.7561333"><ele>5.0</ele><time>2026-04-25T18:21:12.405Z</time></trkpt><trkpt lat="31.4964633" lon="-9.7562683"><ele>4.8</ele><time>2026-04-25T18:21:13.405Z</time></trkpt><trkpt lat="31.4964617" lon="-9.756395"><ele>4.6</ele><time>2026-04-25T18:21:14.405Z</time></trkpt><trkpt lat="31.4964483" lon="-9.7565117"><ele>4.4</ele><time>2026-04-25T18:21:15.405Z</time></trkpt><trkpt lat="31.4964217" lon="-9.7566167"><ele>4.2</ele><time>2026-04-25T18:21:16.405Z</time></trkpt><trkpt lat="31.49638" lon="-9.7567167"><ele>4.0</ele><time>2026-04-25T18:21:17.405Z</time></trkpt><trkpt lat="31.4963217" lon="-9.7568017"><ele>4.166666666666666</ele><time>2026-04-25T18:21:18.405Z</time></trkpt><trkpt lat="31.4962467" lon="-9.7568767"><ele>4.333333333333333</ele><time>2026-04-25T18:21:19.405Z</time></trkpt><trkpt lat="31.496175" lon="-9.7569517"><ele>4.5</ele><time>2026-04-25T18:21:20.405Z</time></trkpt><trkpt lat="31.49612" lon="-9.7570317"><ele>4.666666666666667</ele><time>2026-04-25T18:21:21.405Z</time></trkpt><trkpt lat="31.496075" lon="-9.7571083"><ele>4.833333333333334</ele><time>2026-04-25T18:21:22.405Z</time></trkpt><trkpt lat="31.4960367" lon="-9.7571833"><ele>5.0</ele><time>2026-04-25T18:21:23.405Z</time></trkpt><trkpt lat="31.4960117" lon="-9.7572683"><ele>5.0</ele><time>2026-04-25T18:21:24.405Z</time></trkpt><trkpt lat="31.4959917" lon="-9.75735"><ele>5.0</ele><time>2026-04-25T18:21:25.405Z</time></trkpt><trkpt lat="31.4959683" lon="-9.7574217"><ele>5.0</ele><time>2026-04-25T18:21:26.405Z</time></trkpt><trkpt lat="31.4959383" lon="-9.7574883"><ele>5.0</ele><time>2026-04-25T18:21:27.405Z</time></trkpt><trkpt lat="31.4959067" lon="-9.75756"><ele>5.0</ele><time>2026-04-25T18:21:28.405Z</time></trkpt><trkpt lat="31.4958667" lon="-9.7576383"><ele>5.0</ele><time>2026-04-25T18:21:29.405Z</time></trkpt><trkpt lat="31.4958267" lon="-9.7577317"><ele>5.0</ele><time>2026-04-25T18:21:30.405Z</time></trkpt><trkpt lat="31.49579" lon="-9.75784"><ele>4.6</ele><time>2026-04-25T18:21:31.405Z</time></trkpt><trkpt lat="31.4957533" lon="-9.757945"><ele>4.2</ele><time>2026-04-25T18:21:32.405Z</time></trkpt><trkpt lat="31.49572" lon="-9.7580467"><ele>3.8</ele><time>2026-04-25T18:21:33.405Z</time></trkpt><trkpt lat="31.4956917" lon="-9.7581483"><ele>3.4</ele><time>2026-04-25T18:21:34.405Z</time></trkpt><trkpt lat="31.495665" lon="-9.7582583"><ele>3.0</ele><time>2026-04-25T18:21:35.405Z</time></trkpt><trkpt lat="31.4956417" lon="-9.7583683"><ele>3.0</ele><time>2026-04-25T18:21:36.405Z</time></trkpt><trkpt lat="31.49562" lon="-9.758475"><ele>3.0</ele><time>2026-04-25T18:21:37.405Z</time></trkpt><trkpt lat="31.4956017" lon="-9.758575"><ele>3.0</ele><time>2026-04-25T18:21:38.406Z</time></trkpt><trkpt lat="31.4955883" lon="-9.7586733"><ele>3.0</ele><time>2026-04-25T18:21:39.405Z</time></trkpt><trkpt lat="31.495575" lon="-9.75877"><ele>3.0</ele><time>2026-04-25T18:21:40.405Z</time></trkpt><trkpt lat="31.4955667" lon="-9.7588633"><ele>3.0</ele><time>2026-04-25T18:21:41.405Z</time></trkpt><trkpt lat="31.4955617" lon="-9.7589517"><ele>3.0</ele><time>2026-04-25T18:21:42.405Z</time></trkpt><trkpt lat="31.4955667" lon="-9.7590367"><ele>3.0</ele><time>2026-04-25T18:21:43.405Z</time></trkpt><trkpt lat="31.4955733" lon="-9.759115"><ele>3.0</ele><time>2026-04-25T18:21:44.405Z</time></trkpt><trkpt lat="31.4955817" lon="-9.759255"><ele>3.0</ele><time>2026-04-25T18:21:46.405Z</time></trkpt><trkpt lat="31.495575" lon="-9.75939"><ele>3.0</ele><time>2026-04-25T18:21:48.405Z</time></trkpt><trkpt lat="31.49557" lon="-9.7594667"><ele>3.0</ele><time>2026-04-25T18:21:49.405Z</time></trkpt><trkpt lat="31.4955733" lon="-9.7595583"><ele>3.0</ele><time>2026-04-25T18:21:50.405Z</time></trkpt><trkpt lat="31.49558" lon="-9.7596683"><ele>3.0</ele><time>2026-04-25T18:21:51.405Z</time></trkpt><trkpt lat="31.4955967" lon="-9.7597967"><ele>3.0</ele><time>2026-04-25T18:21:52.405Z</time></trkpt><trkpt lat="31.49563" lon="-9.7599433"><ele>3.0</ele><time>2026-04-25T18:21:53.405Z</time></trkpt><trkpt lat="31.4956683" lon="-9.7600817"><ele>2.75</ele><time>2026-04-25T18:21:54.405Z</time></trkpt><trkpt lat="31.4957083" lon="-9.7602117"><ele>2.5</ele><time>2026-04-25T18:21:55.405Z</time></trkpt><trkpt lat="31.49575" lon="-9.76035"><ele>2.25</ele><time>2026-04-25T18:21:56.405Z</time></trkpt><trkpt lat="31.4958017" lon="-9.76048"><ele>2.0</ele><time>2026-04-25T18:21:57.405Z</time></trkpt><trkpt lat="31.4958467" lon="-9.760605"><ele>2.0</ele><time>2026-04-25T18:21:58.405Z</time></trkpt><trkpt lat="31.4958933" lon="-9.76072"><ele>2.0</ele><time>2026-04-25T18:21:59.405Z</time></trkpt><trkpt lat="31.4959533" lon="-9.76084"><ele>2.0</ele><time>2026-04-25T18:22:00.405Z</time></trkpt><trkpt lat="31.4960183" lon="-9.7609567"><ele>2.0</ele><time>2026-04-25T18:22:01.405Z</time></trkpt><trkpt lat="31.4960867" lon="-9.7610817"><ele>2.0</ele><time>2026-04-25T18:22:02.405Z</time></trkpt><trkpt lat="31.4961583" lon="-9.7611883"><ele>2.0</ele><time>2026-04-25T18:22:03.405Z</time></trkpt><trkpt lat="31.4962283" lon="-9.7612867"><ele>2.0</ele><time>2026-04-25T18:22:04.405Z</time></trkpt><trkpt lat="31.496305" lon="-9.76137"><ele>2.0</ele><time>2026-04-25T18:22:05.405Z</time></trkpt><trkpt lat="31.496375" lon="-9.761455"><ele>2.0</ele><time>2026-04-25T18:22:06.405Z</time></trkpt><trkpt lat="31.4964433" lon="-9.761535"><ele>1.9999999999999998</ele><time>2026-04-25T18:22:07.405Z</time></trkpt><trkpt lat="31.4965117" lon="-9.7616117"><ele>2.0</ele><time>2026-04-25T18:22:08.405Z</time></trkpt><trkpt lat="31.4965733" lon="-9.7616783"><ele>2.0</ele><time>2026-04-25T18:22:09.405Z</time></trkpt><trkpt lat="31.4966233" lon="-9.7617283"><ele>2.0</ele><time>2026-04-25T18:22:10.405Z</time></trkpt><trkpt lat="31.4966933" lon="-9.7617883"><ele>1.9999999999999998</ele><time>2026-04-25T18:22:12.405Z</time></trkpt><trkpt lat="31.496765" lon="-9.761835"><ele>2.0</ele><time>2026-04-25T18:22:14.405Z</time></trkpt><trkpt lat="31.4968667" lon="-9.7618567"><ele>2.0</ele><time>2026-04-25T18:22:16.405Z</time></trkpt><trkpt lat="31.496985" lon="-9.76185"><ele>2.0</ele><time>2026-04-25T18:22:18.405Z</time></trkpt><trkpt lat="31.497095" lon="-9.76187"><ele>2.0</ele><time>2026-04-25T18:22:20.405Z</time></trkpt><trkpt lat="31.4971933" lon="-9.7619333"><ele>2.0</ele><time>2026-04-25T18:22:22.405Z</time></trkpt><trkpt lat="31.49728" lon="-9.7620417"><ele>1.9999999999999998</ele><time>2026-04-25T18:22:24.405Z</time></trkpt><trkpt lat="31.4973333" lon="-9.7621067"><ele>2.0</ele><time>2026-04-25T18:22:25.405Z</time></trkpt><trkpt lat="31.4974" lon="-9.7621733"><ele>2.0</ele><time>2026-04-25T18:22:26.405Z</time></trkpt><trkpt lat="31.4974733" lon="-9.7622283"><ele>2.0</ele><time>2026-04-25T18:22:27.405Z</time></trkpt><trkpt lat="31.4975367" lon="-9.76226"><ele>1.9999999999999998</ele><time>2026-04-25T18:22:28.405Z</time></trkpt><trkpt lat="31.4975983" lon="-9.76228"><ele>2.0</ele><time>2026-04-25T18:22:29.405Z</time></trkpt><trkpt lat="31.4977067" lon="-9.7622967"><ele>1.9999999999999998</ele><time>2026-04-25T18:22:31.405Z</time></trkpt><trkpt lat="31.4977867" lon="-9.7622483"><ele>2.0</ele><time>2026-04-25T18:22:33.405Z</time></trkpt><trkpt lat="31.49783" lon="-9.76214"><ele>2.0</ele><time>2026-04-25T18:22:35.405Z</time></trkpt><trkpt lat="31.4978717" lon="-9.7620233"><ele>2.0</ele><time>2026-04-25T18:22:37.405Z</time></trkpt><trkpt lat="31.4978983" lon="-9.761935"><ele>1.9999999999999998</ele><time>2026-04-25T18:22:39.405Z</time></trkpt><trkpt lat="31.4979233" lon="-9.7618667"><ele>2.0</ele><time>2026-04-25T18:22:41.405Z</time></trkpt><trkpt lat="31.4979617" lon="-9.7617717"><ele>1.9999999999999998</ele><time>2026-04-25T18:22:44.405Z</time></trkpt><trkpt lat="31.497975" lon="-9.7616983"><ele>2.0</ele><time>2026-04-25T18:22:48.405Z</time></trkpt><trkpt lat="31.4979733" lon="-9.7617917"><ele>2.0</ele><time>2026-04-25T18:28:24.404Z</time></trkpt><trkpt lat="31.4979183" lon="-9.7619117"><ele>2.0</ele><time>2026-04-25T18:28:26.404Z</time></trkpt><trkpt lat="31.4978767" lon="-9.7620033"><ele>1.9999999999999998</ele><time>2026-04-25T18:28:28.404Z</time></trkpt><trkpt lat="31.4978567" lon="-9.762085"><ele>2.0</ele><time>2026-04-25T18:28:32.404Z</time></trkpt><trkpt lat="31.4978283" lon="-9.7621717"><ele>2.0</ele><time>2026-04-25T18:28:45.404Z</time></trkpt><trkpt lat="31.4978267" lon="-9.7622517"><ele>1.9999999999999998</ele><time>2026-04-25T18:28:47.404Z</time></trkpt><trkpt lat="31.497895" lon="-9.762325"><ele>2.0</ele><time>2026-04-25T18:28:49.404Z</time></trkpt><trkpt lat="31.4979617" lon="-9.762355"><ele>2.0</ele><time>2026-04-25T18:28:50.404Z</time></trkpt><trkpt lat="31.498035" lon="-9.7623767"><ele>1.9999999999999998</ele><time>2026-04-25T18:28:51.404Z</time></trkpt><trkpt lat="31.4981033" lon="-9.762395"><ele>2.0</ele><time>2026-04-25T18:28:52.404Z</time></trkpt><trkpt lat="31.4981667" lon="-9.7624017"><ele>2.0</ele><time>2026-04-25T18:28:53.404Z</time></trkpt><trkpt lat="31.498235" lon="-9.76241"><ele>1.8333333333333333</ele><time>2026-04-25T18:28:54.404Z</time></trkpt><trkpt lat="31.4983017" lon="-9.7624217"><ele>1.6666666666666665</ele><time>2026-04-25T18:28:55.404Z</time></trkpt><trkpt lat="31.4984267" lon="-9.76244"><ele>1.5</ele><time>2026-04-25T18:28:57.404Z</time></trkpt><trkpt lat="31.4984933" lon="-9.76245"><ele>1.3333333333333333</ele><time>2026-04-25T18:28:58.404Z</time></trkpt><trkpt lat="31.4985783" lon="-9.7624633"><ele>1.1666666666666665</ele><time>2026-04-25T18:28:59.404Z</time></trkpt><trkpt lat="31.4986567" lon="-9.76247"><ele>1.0</ele><time>2026-04-25T18:29:00.404Z</time></trkpt><trkpt lat="31.498735" lon="-9.7624867"><ele>0.9999999999999999</ele><time>2026-04-25T18:29:01.404Z</time></trkpt><trkpt lat="31.498815" lon="-9.7624983"><ele>1.0</ele><time>2026-04-25T18:29:02.404Z</time></trkpt><trkpt lat="31.4988917" lon="-9.762515"><ele>1.0</ele><time>2026-04-25T18:29:03.404Z</time></trkpt><trkpt lat="31.4989767" lon="-9.7625283"><ele>1.0</ele><time>2026-04-25T18:29:04.404Z</time></trkpt><trkpt lat="31.4990633" lon="-9.7625417"><ele>0.9999999999999999</ele><time>2026-04-25T18:29:05.404Z</time></trkpt><trkpt lat="31.4991483" lon="-9.7625517"><ele>1.0</ele><time>2026-04-25T18:29:06.404Z</time></trkpt><trkpt lat="31.4992367" lon="-9.7625733"><ele>1.0</ele><time>2026-04-25T18:29:07.404Z</time></trkpt><trkpt lat="31.4993283" lon="-9.762595"><ele>1.0</ele><time>2026-04-25T18:29:08.404Z</time></trkpt><trkpt lat="31.49943" lon="-9.7626217"><ele>1.0</ele><time>2026-04-25T18:29:09.404Z</time></trkpt><trkpt lat="31.4995317" lon="-9.762645"><ele>1.0</ele><time>2026-04-25T18:29:10.404Z</time></trkpt><trkpt lat="31.4996383" lon="-9.762675"><ele>1.0</ele><time>2026-04-25T18:29:11.404Z</time></trkpt><trkpt lat="31.49975" lon="-9.7626967"><ele>0.75</ele><time>2026-04-25T18:29:12.404Z</time></trkpt><trkpt lat="31.4998617" lon="-9.7627167"><ele>0.5</ele><time>2026-04-25T18:29:13.404Z</time></trkpt><trkpt lat="31.49998" lon="-9.762735"><ele>0.25</ele><time>2026-04-25T18:29:14.404Z</time></trkpt><trkpt lat="31.500105" lon="-9.7627533"><ele>0.0</ele><time>2026-04-25T18:29:15.404Z</time></trkpt><trkpt lat="31.5002233" lon="-9.7627683"><ele>0.0</ele><time>2026-04-25T18:29:16.404Z</time></trkpt><trkpt lat="31.5003333" lon="-9.76279"><ele>0.0</ele><time>2026-04-25T18:29:17.404Z</time></trkpt><trkpt lat="31.5004417" lon="-9.7628117"><ele>0.0</ele><time>2026-04-25T18:29:18.404Z</time></trkpt><trkpt lat="31.5005617" lon="-9.76284"><ele>0.0</ele><time>2026-04-25T18:29:19.404Z</time></trkpt><trkpt lat="31.5006767" lon="-9.76286"><ele>0.2</ele><time>2026-04-25T18:29:20.404Z</time></trkpt><trkpt lat="31.500785" lon="-9.7628817"><ele>0.4</ele><time>2026-04-25T18:29:21.404Z</time></trkpt><trkpt lat="31.50089" lon="-9.7628983"><ele>0.6000000000000001</ele><time>2026-04-25T18:29:22.404Z</time></trkpt><trkpt lat="31.5009917" lon="-9.7629183"><ele>0.8</ele><time>2026-04-25T18:29:23.404Z</time></trkpt><trkpt lat="31.50109" lon="-9.76294"><ele>1.0</ele><time>2026-04-25T18:29:24.404Z</time></trkpt><trkpt lat="31.5011883" lon="-9.7629617"><ele>1.0</ele><time>2026-04-25T18:29:25.405Z</time></trkpt><trkpt lat="31.5012883" lon="-9.7629817"><ele>1.0</ele><time>2026-04-25T18:29:26.404Z</time></trkpt><trkpt lat="31.50139" lon="-9.7629967"><ele>1.0</ele><time>2026-04-25T18:29:27.404Z</time></trkpt><trkpt lat="31.5014883" lon="-9.7630133"><ele>1.0</ele><time>2026-04-25T18:29:28.404Z</time></trkpt><trkpt lat="31.5015883" lon="-9.7630333"><ele>1.0</ele><time>2026-04-25T18:29:29.405Z</time></trkpt><trkpt lat="31.5016817" lon="-9.763055"><ele>1.0</ele><time>2026-04-25T18:29:30.404Z</time></trkpt><trkpt lat="31.501775" lon="-9.7630767"><ele>1.0</ele><time>2026-04-25T18:29:31.404Z</time></trkpt><trkpt lat="31.501875" lon="-9.7631"><ele>1.0</ele><time>2026-04-25T18:29:32.404Z</time></trkpt><trkpt lat="31.501975" lon="-9.7631217"><ele>1.0</ele><time>2026-04-25T18:29:33.404Z</time></trkpt><trkpt lat="31.5020767" lon="-9.7631417"><ele>1.0</ele><time>2026-04-25T18:29:34.404Z</time></trkpt><trkpt lat="31.5021767" lon="-9.763165"><ele>1.2000000000000002</ele><time>2026-04-25T18:29:35.404Z</time></trkpt><trkpt lat="31.50228" lon="-9.76319"><ele>1.4000000000000001</ele><time>2026-04-25T18:29:36.404Z</time></trkpt><trkpt lat="31.5023833" lon="-9.7632133"><ele>1.6</ele><time>2026-04-25T18:29:37.404Z</time></trkpt><trkpt lat="31.5024833" lon="-9.76324"><ele>1.8</ele><time>2026-04-25T18:29:38.404Z</time></trkpt><trkpt lat="31.502585" lon="-9.7632617"><ele>2.0</ele><time>2026-04-25T18:29:39.404Z</time></trkpt><trkpt lat="31.5026933" lon="-9.7632817"><ele>2.0</ele><time>2026-04-25T18:29:40.404Z</time></trkpt><trkpt lat="31.5028033" lon="-9.7633067"><ele>2.0</ele><time>2026-04-25T18:29:41.404Z</time></trkpt><trkpt lat="31.5029083" lon="-9.7633267"><ele>2.0</ele><time>2026-04-25T18:29:42.404Z</time></trkpt><trkpt lat="31.503005" lon="-9.763345"><ele>2.0</ele><time>2026-04-25T18:29:43.404Z</time></trkpt><trkpt lat="31.50311" lon="-9.76336"><ele>2.0</ele><time>2026-04-25T18:29:44.404Z</time></trkpt><trkpt lat="31.5032217" lon="-9.7633717"><ele>2.0</ele><time>2026-04-25T18:29:45.404Z</time></trkpt><trkpt lat="31.5033317" lon="-9.7633917"><ele>2.0</ele><time>2026-04-25T18:29:46.404Z</time></trkpt><trkpt lat="31.503445" lon="-9.7634117"><ele>2.0</ele><time>2026-04-25T18:29:47.404Z</time></trkpt><trkpt lat="31.5035633" lon="-9.7634367"><ele>2.0</ele><time>2026-04-25T18:29:48.404Z</time></trkpt><trkpt lat="31.5036783" lon="-9.7634633"><ele>1.75</ele><time>2026-04-25T18:29:49.404Z</time></trkpt><trkpt lat="31.5037967" lon="-9.7634867"><ele>1.5</ele><time>2026-04-25T18:29:50.404Z</time></trkpt><trkpt lat="31.503915" lon="-9.763505"><ele>1.25</ele><time>2026-04-25T18:29:51.404Z</time></trkpt><trkpt lat="31.504035" lon="-9.7635167"><ele>1.0</ele><time>2026-04-25T18:29:52.404Z</time></trkpt><trkpt lat="31.5041583" lon="-9.7635317"><ele>1.0</ele><time>2026-04-25T18:29:53.404Z</time></trkpt><trkpt lat="31.5042767" lon="-9.7635517"><ele>1.0</ele><time>2026-04-25T18:29:54.404Z</time></trkpt><trkpt lat="31.5043917" lon="-9.7635683"><ele>1.0</ele><time>2026-04-25T18:29:55.404Z</time></trkpt><trkpt lat="31.5045017" lon="-9.7635867"><ele>1.0</ele><time>2026-04-25T18:29:56.404Z</time></trkpt><trkpt lat="31.5046117" lon="-9.7636"><ele>1.0</ele><time>2026-04-25T18:29:57.404Z</time></trkpt><trkpt lat="31.5047083" lon="-9.76362"><ele>1.0</ele><time>2026-04-25T18:29:58.405Z</time></trkpt><trkpt lat="31.5048017" lon="-9.7636333"><ele>1.0</ele><time>2026-04-25T18:29:59.404Z</time></trkpt><trkpt lat="31.504895" lon="-9.7636517"><ele>1.0</ele><time>2026-04-25T18:30:00.405Z</time></trkpt><trkpt lat="31.5049867" lon="-9.7636617"><ele>1.0</ele><time>2026-04-25T18:30:01.404Z</time></trkpt><trkpt lat="31.5050767" lon="-9.7636733"><ele>1.0</ele><time>2026-04-25T18:30:02.404Z</time></trkpt><trkpt lat="31.50517" lon="-9.7636833"><ele>1.0</ele><time>2026-04-25T18:30:03.404Z</time></trkpt><trkpt lat="31.5052667" lon="-9.7636967"><ele>1.0</ele><time>2026-04-25T18:30:04.404Z</time></trkpt><trkpt lat="31.5053583" lon="-9.7637067"><ele>1.0</ele><time>2026-04-25T18:30:05.404Z</time></trkpt><trkpt lat="31.5054517" lon="-9.763715"><ele>1.0</ele><time>2026-04-25T18:30:06.404Z</time></trkpt><trkpt lat="31.5055433" lon="-9.7637217"><ele>0.8</ele><time>2026-04-25T18:30:07.404Z</time></trkpt><trkpt lat="31.5056367" lon="-9.76373"><ele>0.6000000000000001</ele><time>2026-04-25T18:30:08.404Z</time></trkpt><trkpt lat="31.5057283" lon="-9.76374"><ele>0.4</ele><time>2026-04-25T18:30:09.404Z</time></trkpt><trkpt lat="31.50582" lon="-9.7637533"><ele>0.2</ele><time>2026-04-25T18:30:10.404Z</time></trkpt><trkpt lat="31.50591" lon="-9.7637683"><ele>0.0</ele><time>2026-04-25T18:30:11.404Z</time></trkpt><trkpt lat="31.5059967" lon="-9.7637867"><ele>0.0</ele><time>2026-04-25T18:30:12.404Z</time></trkpt><trkpt lat="31.5060883" lon="-9.7638"><ele>0.0</ele><time>2026-04-25T18:30:13.404Z</time></trkpt><trkpt lat="31.50618" lon="-9.7638133"><ele>0.0</ele><time>2026-04-25T18:30:14.404Z</time></trkpt><trkpt lat="31.5062717" lon="-9.7638267"><ele>0.0</ele><time>2026-04-25T18:30:15.404Z</time></trkpt><trkpt lat="31.5063667" lon="-9.7638333"><ele>0.0</ele><time>2026-04-25T18:30:16.404Z</time></trkpt><trkpt lat="31.506445" lon="-9.7638483"><ele>0.4</ele><time>2026-04-25T18:30:17.405Z</time></trkpt><trkpt lat="31.506505" lon="-9.76388"><ele>0.8</ele><time>2026-04-25T18:30:18.404Z</time></trkpt><trkpt lat="31.506535" lon="-9.7640233"><ele>1.2000000000000002</ele><time>2026-04-25T18:30:20.404Z</time></trkpt><trkpt lat="31.5065883" lon="-9.7641583"><ele>1.6</ele><time>2026-04-25T18:30:22.404Z</time></trkpt><trkpt lat="31.506635" lon="-9.764225"><ele>2.0</ele><time>2026-04-25T18:30:23.404Z</time></trkpt><trkpt lat="31.50669" lon="-9.7642833"><ele>1.9999999999999998</ele><time>2026-04-25T18:30:24.405Z</time></trkpt><trkpt lat="31.5067433" lon="-9.7643433"><ele>2.0</ele><time>2026-04-25T18:30:25.404Z</time></trkpt><trkpt lat="31.5067983" lon="-9.764395"><ele>2.0</ele><time>2026-04-25T18:30:26.404Z</time></trkpt><trkpt lat="31.5068467" lon="-9.764465"><ele>2.0</ele><time>2026-04-25T18:30:27.404Z</time></trkpt><trkpt lat="31.5069033" lon="-9.764535"><ele>1.9999999999999998</ele><time>2026-04-25T18:30:28.404Z</time></trkpt><trkpt lat="31.5069633" lon="-9.7646117"><ele>2.0</ele><time>2026-04-25T18:30:29.405Z</time></trkpt><trkpt lat="31.50703" lon="-9.76468"><ele>1.9999999999999998</ele><time>2026-04-25T18:30:30.404Z</time></trkpt><trkpt lat="31.5070933" lon="-9.7647583"><ele>2.0</ele><time>2026-04-25T18:30:31.404Z</time></trkpt><trkpt lat="31.507155" lon="-9.7648283"><ele>2.0</ele><time>2026-04-25T18:30:32.404Z</time></trkpt><trkpt lat="31.507215" lon="-9.7648967"><ele>2.0</ele><time>2026-04-25T18:30:33.404Z</time></trkpt><trkpt lat="31.507275" lon="-9.7649667"><ele>1.9999999999999998</ele><time>2026-04-25T18:30:34.404Z</time></trkpt><trkpt lat="31.507335" lon="-9.76504"><ele>2.0</ele><time>2026-04-25T18:30:35.404Z</time></trkpt><trkpt lat="31.5073983" lon="-9.7651167"><ele>1.9999999999999998</ele><time>2026-04-25T18:30:36.404Z</time></trkpt><trkpt lat="31.5074633" lon="-9.7651933"><ele>2.0</ele><time>2026-04-25T18:30:37.404Z</time></trkpt><trkpt lat="31.5075217" lon="-9.76526"><ele>2.0</ele><time>2026-04-25T18:30:38.404Z</time></trkpt><trkpt lat="31.5075717" lon="-9.7653183"><ele>2.0</ele><time>2026-04-25T18:30:39.404Z</time></trkpt><trkpt lat="31.5076517" lon="-9.765415"><ele>1.9999999999999998</ele><time>2026-04-25T18:30:41.404Z</time></trkpt><trkpt lat="31.5077133" lon="-9.765485"><ele>2.0</ele><time>2026-04-25T18:30:43.405Z</time></trkpt><trkpt lat="31.50777" lon="-9.765545"><ele>2.2</ele><time>2026-04-25T18:30:45.404Z</time></trkpt><trkpt lat="31.5078333" lon="-9.7656183"><ele>2.4000000000000004</ele><time>2026-04-25T18:30:47.404Z</time></trkpt><trkpt lat="31.507915" lon="-9.7657117"><ele>2.5999999999999996</ele><time>2026-04-25T18:30:49.404Z</time></trkpt><trkpt lat="31.508" lon="-9.765805"><ele>2.8</ele><time>2026-04-25T18:30:51.404Z</time></trkpt><trkpt lat="31.5080833" lon="-9.7658983"><ele>3.0</ele><time>2026-04-25T18:30:53.404Z</time></trkpt><trkpt lat="31.5081767" lon="-9.766015"><ele>3.1666666666666665</ele><time>2026-04-25T18:30:55.404Z</time></trkpt><trkpt lat="31.5082367" lon="-9.7660833"><ele>3.333333333333333</ele><time>2026-04-25T18:30:56.404Z</time></trkpt><trkpt lat="31.5083017" lon="-9.7661567"><ele>3.5</ele><time>2026-04-25T18:30:57.404Z</time></trkpt><trkpt lat="31.5083667" lon="-9.7662317"><ele>3.6666666666666665</ele><time>2026-04-25T18:30:58.404Z</time></trkpt><trkpt lat="31.5084267" lon="-9.7663033"><ele>3.833333333333333</ele><time>2026-04-25T18:30:59.404Z</time></trkpt><trkpt lat="31.508485" lon="-9.766375"><ele>4.0</ele><time>2026-04-25T18:31:00.404Z</time></trkpt><trkpt lat="31.5085417" lon="-9.7664433"><ele>4.0</ele><time>2026-04-25T18:31:01.404Z</time></trkpt><trkpt lat="31.5085967" lon="-9.7665067"><ele>3.9999999999999996</ele><time>2026-04-25T18:31:02.404Z</time></trkpt><trkpt lat="31.50865" lon="-9.76657"><ele>4.0</ele><time>2026-04-25T18:31:03.404Z</time></trkpt><trkpt lat="31.5087017" lon="-9.76663"><ele>4.0</ele><time>2026-04-25T18:31:04.404Z</time></trkpt><trkpt lat="31.5087517" lon="-9.7666833"><ele>3.9999999999999996</ele><time>2026-04-25T18:31:05.404Z</time></trkpt><trkpt lat="31.5088" lon="-9.7667417"><ele>4.0</ele><time>2026-04-25T18:31:06.404Z</time></trkpt><trkpt lat="31.5088517" lon="-9.76681"><ele>4.0</ele><time>2026-04-25T18:31:07.404Z</time></trkpt><trkpt lat="31.50891" lon="-9.76688"><ele>3.714285714285714</ele><time>2026-04-25T18:31:08.404Z</time></trkpt><trkpt lat="31.5089617" lon="-9.7669483"><ele>3.428571428571428</ele><time>2026-04-25T18:31:09.404Z</time></trkpt><trkpt lat="31.5090167" lon="-9.767015"><ele>3.142857142857143</ele><time>2026-04-25T18:31:10.404Z</time></trkpt><trkpt lat="31.50907" lon="-9.7670833"><ele>2.8571428571428568</ele><time>2026-04-25T18:31:11.405Z</time></trkpt><trkpt lat="31.5091183" lon="-9.767145"><ele>2.571428571428571</ele><time>2026-04-25T18:31:12.404Z</time></trkpt><trkpt lat="31.5091667" lon="-9.7672033"><ele>2.2857142857142856</ele><time>2026-04-25T18:31:13.404Z</time></trkpt><trkpt lat="31.509215" lon="-9.76726"><ele>2.0</ele><time>2026-04-25T18:31:14.404Z</time></trkpt><trkpt lat="31.5093033" lon="-9.7673583"><ele>2.0</ele><time>2026-04-25T18:31:16.404Z</time></trkpt><trkpt lat="31.5093817" lon="-9.7674517"><ele>2.0</ele><time>2026-04-25T18:31:18.404Z</time></trkpt><trkpt lat="31.5094733" lon="-9.7675483"><ele>2.0</ele><time>2026-04-25T18:31:20.404Z</time></trkpt><trkpt lat="31.5095217" lon="-9.7675967"><ele>2.0</ele><time>2026-04-25T18:31:21.404Z</time></trkpt><trkpt lat="31.5096183" lon="-9.76769"><ele>2.0</ele><time>2026-04-25T18:31:23.404Z</time></trkpt><trkpt lat="31.509665" lon="-9.76774"><ele>1.4000000000000001</ele><time>2026-04-25T18:31:24.404Z</time></trkpt><trkpt lat="31.509745" lon="-9.7678533"><ele>0.8000000000000002</ele><time>2026-04-25T18:31:26.404Z</time></trkpt><trkpt lat="31.5097883" lon="-9.7679183"><ele>0.19999999999999996</ele><time>2026-04-25T18:31:27.404Z</time></trkpt><trkpt lat="31.5098283" lon="-9.76798"><ele>-0.4</ele><time>2026-04-25T18:31:28.404Z</time></trkpt><trkpt lat="31.5099117" lon="-9.7680783"><ele>-1.0</ele><time>2026-04-25T18:31:30.405Z</time></trkpt><trkpt lat="31.5100017" lon="-9.7681767"><ele>-1.0</ele><time>2026-04-25T18:31:32.404Z</time></trkpt><trkpt lat="31.5100483" lon="-9.76823"><ele>-1.0</ele><time>2026-04-25T18:31:33.404Z</time></trkpt><trkpt lat="31.5101317" lon="-9.7683283"><ele>-1.0</ele><time>2026-04-25T18:31:35.404Z</time></trkpt><trkpt lat="31.51021" lon="-9.7684167"><ele>-1.0</ele><time>2026-04-25T18:31:37.404Z</time></trkpt><trkpt lat="31.510295" lon="-9.7685133"><ele>-1.0</ele><time>2026-04-25T18:31:39.404Z</time></trkpt><trkpt lat="31.5103417" lon="-9.7685717"><ele>-0.6666666666666666</ele><time>2026-04-25T18:31:40.404Z</time></trkpt><trkpt lat="31.51042" lon="-9.768675"><ele>-0.3333333333333333</ele><time>2026-04-25T18:31:42.404Z</time></trkpt><trkpt lat="31.5104967" lon="-9.768775"><ele>0.0</ele><time>2026-04-25T18:31:44.404Z</time></trkpt><trkpt lat="31.5105333" lon="-9.7688417"><ele>0.3333333333333333</ele><time>2026-04-25T18:31:45.404Z</time></trkpt><trkpt lat="31.5105667" lon="-9.768915"><ele>0.6666666666666666</ele><time>2026-04-25T18:31:46.404Z</time></trkpt><trkpt lat="31.5105917" lon="-9.7689867"><ele>1.0</ele><time>2026-04-25T18:31:47.404Z</time></trkpt><trkpt lat="31.5106283" lon="-9.7691"><ele>0.9999999999999999</ele><time>2026-04-25T18:31:49.404Z</time></trkpt><trkpt lat="31.5106317" lon="-9.7691883"><ele>1.0</ele><time>2026-04-25T18:31:51.404Z</time></trkpt><trkpt lat="31.5106233" lon="-9.769265"><ele>1.0</ele><time>2026-04-25T18:31:54.404Z</time></trkpt><trkpt lat="31.51061" lon="-9.769345"><ele>1.0</ele><time>2026-04-25T18:31:57.404Z</time></trkpt><trkpt lat="31.510595" lon="-9.76947"><ele>0.9999999999999999</ele><time>2026-04-25T18:31:59.404Z</time></trkpt><trkpt lat="31.5105867" lon="-9.7695967"><ele>1.0</ele><time>2026-04-25T18:32:01.404Z</time></trkpt><trkpt lat="31.51056" lon="-9.7697183"><ele>1.4</ele><time>2026-04-25T18:32:03.404Z</time></trkpt><trkpt lat="31.5105467" lon="-9.769835"><ele>1.8</ele><time>2026-04-25T18:32:05.404Z</time></trkpt><trkpt lat="31.510535" lon="-9.7699867"><ele>2.1999999999999997</ele><time>2026-04-25T18:32:07.404Z</time></trkpt><trkpt lat="31.5105267" lon="-9.7700617"><ele>2.6</ele><time>2026-04-25T18:32:08.404Z</time></trkpt><trkpt lat="31.5105117" lon="-9.7702067"><ele>3.0</ele><time>2026-04-25T18:32:10.404Z</time></trkpt><trkpt lat="31.5104933" lon="-9.77034"><ele>3.1666666666666665</ele><time>2026-04-25T18:32:12.404Z</time></trkpt><trkpt lat="31.510475" lon="-9.77046"><ele>3.333333333333333</ele><time>2026-04-25T18:32:14.405Z</time></trkpt><trkpt lat="31.5104583" lon="-9.7705567"><ele>3.5</ele><time>2026-04-25T18:32:16.404Z</time></trkpt><trkpt lat="31.510445" lon="-9.77065"><ele>3.6666666666666665</ele><time>2026-04-25T18:32:18.404Z</time></trkpt><trkpt lat="31.5104367" lon="-9.77073"><ele>3.833333333333333</ele><time>2026-04-25T18:32:20.404Z</time></trkpt><trkpt lat="31.5104233" lon="-9.7708383"><ele>4.0</ele><time>2026-04-25T18:32:23.404Z</time></trkpt><trkpt lat="31.5104117" lon="-9.7709233"><ele>3.9999999999999996</ele><time>2026-04-25T18:32:27.404Z</time></trkpt><trkpt lat="31.5104083" lon="-9.7709983"><ele>4.0</ele><time>2026-04-25T18:32:31.404Z</time></trkpt><trkpt lat="31.5104083" lon="-9.7710833"><ele>4.0</ele><time>2026-04-25T18:32:39.404Z</time></trkpt><trkpt lat="31.510425" lon="-9.7711983"><ele>4.0</ele><time>2026-04-25T18:33:01.404Z</time></trkpt><trkpt lat="31.5103583" lon="-9.7712083"><ele>3.9999999999999996</ele><time>2026-04-25T18:33:05.404Z</time></trkpt><trkpt lat="31.5103583" lon="-9.77113"><ele>4.0</ele><time>2026-04-25T18:33:08.404Z</time></trkpt><trkpt lat="31.5103767" lon="-9.771"><ele>4.0</ele><time>2026-04-25T18:33:11.404Z</time></trkpt><trkpt lat="31.510395" lon="-9.7708533"><ele>4.0</ele><time>2026-04-25T18:33:13.404Z</time></trkpt><trkpt lat="31.5104117" lon="-9.7707067"><ele>4.0</ele><time>2026-04-25T18:33:15.404Z</time></trkpt><trkpt lat="31.510425" lon="-9.7705633"><ele>4.0</ele><time>2026-04-25T18:33:17.404Z</time></trkpt><trkpt lat="31.5104467" lon="-9.770425"><ele>4.0</ele><time>2026-04-25T18:33:19.404Z</time></trkpt><trkpt lat="31.510465" lon="-9.770295"><ele>4.0</ele><time>2026-04-25T18:33:21.404Z</time></trkpt><trkpt lat="31.5104817" lon="-9.7701917"><ele>4.0</ele><time>2026-04-25T18:33:23.404Z</time></trkpt><trkpt lat="31.5104917" lon="-9.7700983"><ele>4.0</ele><time>2026-04-25T18:33:26.404Z</time></trkpt><trkpt lat="31.5104967" lon="-9.7699967"><ele>4.0</ele><time>2026-04-25T18:33:29.404Z</time></trkpt><trkpt lat="31.51051" lon="-9.7698917"><ele>3.833333333333333</ele><time>2026-04-25T18:33:31.404Z</time></trkpt><trkpt lat="31.51053" lon="-9.76976"><ele>3.6666666666666665</ele><time>2026-04-25T18:33:33.404Z</time></trkpt><trkpt lat="31.5105433" lon="-9.7696567"><ele>3.5</ele><time>2026-04-25T18:33:35.404Z</time></trkpt><trkpt lat="31.5105467" lon="-9.7695783"><ele>3.333333333333333</ele><time>2026-04-25T18:33:37.404Z</time></trkpt><trkpt lat="31.510525" lon="-9.7695083"><ele>3.1666666666666665</ele><time>2026-04-25T18:33:40.404Z</time></trkpt><trkpt lat="31.51054" lon="-9.7694"><ele>3.0</ele><time>2026-04-25T18:34:19.404Z</time></trkpt><trkpt lat="31.5105867" lon="-9.76932"><ele>2.6</ele><time>2026-04-25T18:34:21.404Z</time></trkpt><trkpt lat="31.5105933" lon="-9.769245"><ele>2.1999999999999997</ele><time>2026-04-25T18:34:22.404Z</time></trkpt><trkpt lat="31.510585" lon="-9.76916"><ele>1.8</ele><time>2026-04-25T18:34:23.404Z</time></trkpt><trkpt lat="31.51055" lon="-9.769045"><ele>1.4</ele><time>2026-04-25T18:34:24.404Z</time></trkpt><trkpt lat="31.5104817" lon="-9.7689117"><ele>1.0</ele><time>2026-04-25T18:34:25.404Z</time></trkpt><trkpt lat="31.5103983" lon="-9.76877"><ele>1.0</ele><time>2026-04-25T18:34:26.404Z</time></trkpt><trkpt lat="31.5103117" lon="-9.7686417"><ele>1.0</ele><time>2026-04-25T18:34:27.404Z</time></trkpt><trkpt lat="31.5102267" lon="-9.768535"><ele>1.0</ele><time>2026-04-25T18:34:28.404Z</time></trkpt><trkpt lat="31.51015" lon="-9.76844"><ele>1.0</ele><time>2026-04-25T18:34:29.404Z</time></trkpt><trkpt lat="31.5100767" lon="-9.76835"><ele>0.6666666666666666</ele><time>2026-04-25T18:34:30.404Z</time></trkpt><trkpt lat="31.5100067" lon="-9.7682667"><ele>0.3333333333333333</ele><time>2026-04-25T18:34:31.404Z</time></trkpt><trkpt lat="31.50995" lon="-9.768185"><ele>0.0</ele><time>2026-04-25T18:34:32.404Z</time></trkpt><trkpt lat="31.5098967" lon="-9.7681117"><ele>-0.3333333333333333</ele><time>2026-04-25T18:34:34.404Z</time></trkpt><trkpt lat="31.50985" lon="-9.76805"><ele>-0.6666666666666666</ele><time>2026-04-25T18:34:37.404Z</time></trkpt><trkpt lat="31.5097883" lon="-9.7679683"><ele>-1.0</ele><time>2026-04-25T18:34:39.404Z</time></trkpt><trkpt lat="31.509775" lon="-9.767865"><ele>-1.0</ele><time>2026-04-25T18:34:41.404Z</time></trkpt><trkpt lat="31.5098433" lon="-9.7677183"><ele>-1.0</ele><time>2026-04-25T18:34:43.404Z</time></trkpt><trkpt lat="31.5099067" lon="-9.7676267"><ele>-1.0</ele><time>2026-04-25T18:34:44.404Z</time></trkpt><trkpt lat="31.50997" lon="-9.7675267"><ele>-1.0</ele><time>2026-04-25T18:34:45.404Z</time></trkpt><trkpt lat="31.51002" lon="-9.76742"><ele>-0.49999999999999994</ele><time>2026-04-25T18:34:46.404Z</time></trkpt><trkpt lat="31.5100633" lon="-9.76732"><ele>0.0</ele><time>2026-04-25T18:34:47.404Z</time></trkpt><trkpt lat="31.5101033" lon="-9.76722"><ele>0.5</ele><time>2026-04-25T18:34:48.405Z</time></trkpt><trkpt lat="31.510135" lon="-9.767135"><ele>1.0</ele><time>2026-04-25T18:34:49.404Z</time></trkpt><trkpt lat="31.5101567" lon="-9.767055"><ele>1.4999999999999998</ele><time>2026-04-25T18:34:50.404Z</time></trkpt><trkpt lat="31.5101617" lon="-9.7669767"><ele>2.0</ele><time>2026-04-25T18:34:51.404Z</time></trkpt><trkpt lat="31.5101367" lon="-9.7669033"><ele>1.9999999999999998</ele><time>2026-04-25T18:34:52.404Z</time></trkpt><trkpt lat="31.5100883" lon="-9.7668217"><ele>2.0</ele><time>2026-04-25T18:34:53.404Z</time></trkpt><trkpt lat="31.5100233" lon="-9.76675"><ele>2.0</ele><time>2026-04-25T18:34:54.404Z</time></trkpt><trkpt lat="31.5099517" lon="-9.7666883"><ele>2.0</ele><time>2026-04-25T18:34:55.404Z</time></trkpt><trkpt lat="31.5098817" lon="-9.7666217"><ele>1.9999999999999998</ele><time>2026-04-25T18:34:56.404Z</time></trkpt><trkpt lat="31.5098117" lon="-9.7665483"><ele>2.0</ele><time>2026-04-25T18:34:57.404Z</time></trkpt><trkpt lat="31.5097383" lon="-9.7664733"><ele>2.0</ele><time>2026-04-25T18:34:58.404Z</time></trkpt><trkpt lat="31.5096683" lon="-9.7663917"><ele>2.0</ele><time>2026-04-25T18:34:59.404Z</time></trkpt><trkpt lat="31.509595" lon="-9.7663117"><ele>2.0</ele><time>2026-04-25T18:35:00.404Z</time></trkpt><trkpt lat="31.5095133" lon="-9.7662333"><ele>2.0</ele><time>2026-04-25T18:35:01.404Z</time></trkpt><trkpt lat="31.5094367" lon="-9.7661533"><ele>2.0</ele><time>2026-04-25T18:35:02.404Z</time></trkpt><trkpt lat="31.5093567" lon="-9.766085"><ele>1.9999999999999998</ele><time>2026-04-25T18:35:03.404Z</time></trkpt><trkpt lat="31.50929" lon="-9.7660167"><ele>2.0</ele><time>2026-04-25T18:35:04.404Z</time></trkpt><trkpt lat="31.5092333" lon="-9.7659433"><ele>2.0</ele><time>2026-04-25T18:35:05.404Z</time></trkpt><trkpt lat="31.509185" lon="-9.7658767"><ele>2.0</ele><time>2026-04-25T18:35:06.404Z</time></trkpt><trkpt lat="31.5091317" lon="-9.7658117"><ele>1.9999999999999998</ele><time>2026-04-25T18:35:07.404Z</time></trkpt><trkpt lat="31.5090767" lon="-9.7657533"><ele>2.0</ele><time>2026-04-25T18:35:08.404Z</time></trkpt><trkpt lat="31.5090167" lon="-9.7656867"><ele>1.9999999999999998</ele><time>2026-04-25T18:35:09.404Z</time></trkpt><trkpt lat="31.5089517" lon="-9.7656083"><ele>2.0</ele><time>2026-04-25T18:35:10.404Z</time></trkpt><trkpt lat="31.5088767" lon="-9.76553"><ele>2.0</ele><time>2026-04-25T18:35:11.404Z</time></trkpt><trkpt lat="31.5088133" lon="-9.7654483"><ele>2.0</ele><time>2026-04-25T18:35:12.404Z</time></trkpt><trkpt lat="31.5087517" lon="-9.76538"><ele>1.9999999999999998</ele><time>2026-04-25T18:35:13.404Z</time></trkpt><trkpt lat="31.5086983" lon="-9.76532"><ele>2.0</ele><time>2026-04-25T18:35:14.404Z</time></trkpt><trkpt lat="31.508665" lon="-9.7652467"><ele>2.0</ele><time>2026-04-25T18:35:16.404Z</time></trkpt><trkpt lat="31.5085917" lon="-9.7651683"><ele>2.0</ele><time>2026-04-25T18:35:19.404Z</time></trkpt><trkpt lat="31.5085233" lon="-9.7651167"><ele>2.0</ele><time>2026-04-25T18:35:20.404Z</time></trkpt><trkpt lat="31.5084383" lon="-9.7650317"><ele>2.0</ele><time>2026-04-25T18:35:21.404Z</time></trkpt><trkpt lat="31.5083517" lon="-9.7649367"><ele>2.0</ele><time>2026-04-25T18:35:22.404Z</time></trkpt><trkpt lat="31.50827" lon="-9.7648383"><ele>2.0</ele><time>2026-04-25T18:35:23.404Z</time></trkpt><trkpt lat="31.5081933" lon="-9.7647467"><ele>2.0</ele><time>2026-04-25T18:35:24.404Z</time></trkpt><trkpt lat="31.50812" lon="-9.764655"><ele>2.0</ele><time>2026-04-25T18:35:25.404Z</time></trkpt><trkpt lat="31.5080417" lon="-9.7645633"><ele>2.0</ele><time>2026-04-25T18:35:26.404Z</time></trkpt><trkpt lat="31.5079583" lon="-9.7644767"><ele>2.0</ele><time>2026-04-25T18:35:27.404Z</time></trkpt><trkpt lat="31.5078783" lon="-9.764375"><ele>1.9999999999999998</ele><time>2026-04-25T18:35:28.404Z</time></trkpt><trkpt lat="31.507815" lon="-9.7642783"><ele>2.0</ele><time>2026-04-25T18:35:29.404Z</time></trkpt><trkpt lat="31.50775" lon="-9.7641917"><ele>2.0</ele><time>2026-04-25T18:35:30.404Z</time></trkpt><trkpt lat="31.5076933" lon="-9.7641267"><ele>2.0</ele><time>2026-04-25T18:35:31.404Z</time></trkpt><trkpt lat="31.5076317" lon="-9.7640667"><ele>1.9999999999999998</ele><time>2026-04-25T18:35:32.404Z</time></trkpt><trkpt lat="31.5075533" lon="-9.7640283"><ele>2.0</ele><time>2026-04-25T18:35:33.404Z</time></trkpt><trkpt lat="31.50748" lon="-9.76401"><ele>1.9999999999999998</ele><time>2026-04-25T18:35:34.404Z</time></trkpt><trkpt lat="31.507405" lon="-9.7640033"><ele>2.0</ele><time>2026-04-25T18:35:35.404Z</time></trkpt><trkpt lat="31.507335" lon="-9.764"><ele>2.0</ele><time>2026-04-25T18:35:36.404Z</time></trkpt><trkpt lat="31.5072583" lon="-9.7639917"><ele>2.0</ele><time>2026-04-25T18:35:37.404Z</time></trkpt><trkpt lat="31.5071683" lon="-9.7639833"><ele>1.9999999999999998</ele><time>2026-04-25T18:35:38.404Z</time></trkpt><trkpt lat="31.5070733" lon="-9.7639683"><ele>2.0</ele><time>2026-04-25T18:35:39.404Z</time></trkpt><trkpt lat="31.5069817" lon="-9.7639617"><ele>1.9999999999999998</ele><time>2026-04-25T18:35:40.404Z</time></trkpt><trkpt lat="31.506905" lon="-9.7639583"><ele>2.0</ele><time>2026-04-25T18:35:41.404Z</time></trkpt><trkpt lat="31.5068333" lon="-9.76394"><ele>2.0</ele><time>2026-04-25T18:35:42.404Z</time></trkpt><trkpt lat="31.5067583" lon="-9.763925"><ele>2.0</ele><time>2026-04-25T18:35:43.404Z</time></trkpt><trkpt lat="31.5066867" lon="-9.76392"><ele>1.9999999999999998</ele><time>2026-04-25T18:35:44.404Z</time></trkpt><trkpt lat="31.50659" lon="-9.7639267"><ele>2.0</ele><time>2026-04-25T18:35:46.404Z</time></trkpt><trkpt lat="31.5065117" lon="-9.7639883"><ele>2.0</ele><time>2026-04-25T18:35:59.404Z</time></trkpt><trkpt lat="31.5065233" lon="-9.764095"><ele>2.0</ele><time>2026-04-25T18:36:01.404Z</time></trkpt><trkpt lat="31.5065833" lon="-9.7641667"><ele>2.0</ele><time>2026-04-25T18:36:02.404Z</time></trkpt><trkpt lat="31.5066533" lon="-9.7642383"><ele>2.0</ele><time>2026-04-25T18:36:03.404Z</time></trkpt><trkpt lat="31.5067233" lon="-9.764315"><ele>2.0</ele><time>2026-04-25T18:36:04.404Z</time></trkpt><trkpt lat="31.50679" lon="-9.7644033"><ele>2.0</ele><time>2026-04-25T18:36:05.405Z</time></trkpt><trkpt lat="31.50686" lon="-9.764485"><ele>2.0</ele><time>2026-04-25T18:36:06.404Z</time></trkpt><trkpt lat="31.506925" lon="-9.76457"><ele>2.0</ele><time>2026-04-25T18:36:07.404Z</time></trkpt><trkpt lat="31.5069967" lon="-9.7646533"><ele>2.0</ele><time>2026-04-25T18:36:08.404Z</time></trkpt><trkpt lat="31.5070733" lon="-9.7647433"><ele>2.0</ele><time>2026-04-25T18:36:09.404Z</time></trkpt><trkpt lat="31.5071517" lon="-9.7648283"><ele>1.9999999999999998</ele><time>2026-04-25T18:36:10.404Z</time></trkpt><trkpt lat="31.5072233" lon="-9.7649067"><ele>2.0</ele><time>2026-04-25T18:36:11.404Z</time></trkpt><trkpt lat="31.5072917" lon="-9.7649817"><ele>2.0</ele><time>2026-04-25T18:36:12.404Z</time></trkpt><trkpt lat="31.5073567" lon="-9.76506"><ele>2.0</ele><time>2026-04-25T18:36:13.404Z</time></trkpt><trkpt lat="31.50741" lon="-9.765125"><ele>1.9999999999999998</ele><time>2026-04-25T18:36:14.405Z</time></trkpt><trkpt lat="31.507465" lon="-9.7651883"><ele>2.0</ele><time>2026-04-25T18:36:15.404Z</time></trkpt><trkpt lat="31.5075217" lon="-9.7652633"><ele>2.1666666666666665</ele><time>2026-04-25T18:36:16.404Z</time></trkpt><trkpt lat="31.5075817" lon="-9.7653317"><ele>2.333333333333333</ele><time>2026-04-25T18:36:17.404Z</time></trkpt><trkpt lat="31.50764" lon="-9.7653967"><ele>2.5</ele><time>2026-04-25T18:36:18.404Z</time></trkpt><trkpt lat="31.5076933" lon="-9.7654667"><ele>2.6666666666666665</ele><time>2026-04-25T18:36:19.404Z</time></trkpt><trkpt lat="31.5077483" lon="-9.7655267"><ele>2.8333333333333335</ele><time>2026-04-25T18:36:20.404Z</time></trkpt><trkpt lat="31.5077967" lon="-9.7655867"><ele>3.0</ele><time>2026-04-25T18:36:21.404Z</time></trkpt><trkpt lat="31.5078467" lon="-9.7656383"><ele>3.0</ele><time>2026-04-25T18:36:22.405Z</time></trkpt><trkpt lat="31.50793" lon="-9.76573"><ele>3.0</ele><time>2026-04-25T18:36:24.404Z</time></trkpt><trkpt lat="31.507995" lon="-9.76581"><ele>3.0</ele><time>2026-04-25T18:36:26.404Z</time></trkpt><trkpt lat="31.5080567" lon="-9.7658633"><ele>3.0</ele><time>2026-04-25T18:36:28.404Z</time></trkpt><trkpt lat="31.5081067" lon="-9.7659233"><ele>3.0</ele><time>2026-04-25T18:36:30.404Z</time></trkpt><trkpt lat="31.5081667" lon="-9.7660017"><ele>3.0</ele><time>2026-04-25T18:36:33.404Z</time></trkpt><trkpt lat="31.508225" lon="-9.7660667"><ele>3.2</ele><time>2026-04-25T18:36:38.404Z</time></trkpt><trkpt lat="31.5082817" lon="-9.7661567"><ele>3.4</ele><time>2026-04-25T18:36:41.404Z</time></trkpt><trkpt lat="31.5083567" lon="-9.7662333"><ele>3.6000000000000005</ele><time>2026-04-25T18:36:43.404Z</time></trkpt><trkpt lat="31.5084467" lon="-9.76633"><ele>3.8000000000000003</ele><time>2026-04-25T18:36:45.404Z</time></trkpt><trkpt lat="31.50849" lon="-9.766385"><ele>4.0</ele><time>2026-04-25T18:36:46.404Z</time></trkpt><trkpt lat="31.5085583" lon="-9.7664517"><ele>4.0</ele><time>2026-04-25T18:36:48.404Z</time></trkpt><trkpt lat="31.5086417" lon="-9.7664917"><ele>4.0</ele><time>2026-04-25T18:36:51.404Z</time></trkpt><trkpt lat="31.5086667" lon="-9.7666183"><ele>4.0</ele><time>2026-04-25T18:40:59.404Z</time></trkpt><trkpt lat="31.50875" lon="-9.7667167"><ele>4.0</ele><time>2026-04-25T18:41:02.404Z</time></trkpt><trkpt lat="31.5088" lon="-9.7667767"><ele>4.0</ele><time>2026-04-25T18:41:03.404Z</time></trkpt><trkpt lat="31.50885" lon="-9.7668283"><ele>3.6666666666666665</ele><time>2026-04-25T18:41:04.404Z</time></trkpt><trkpt lat="31.508895" lon="-9.7668833"><ele>3.333333333333333</ele><time>2026-04-25T18:41:05.404Z</time></trkpt><trkpt lat="31.508945" lon="-9.7669383"><ele>3.0</ele><time>2026-04-25T18:41:06.404Z</time></trkpt><trkpt lat="31.5089917" lon="-9.7669917"><ele>2.6666666666666665</ele><time>2026-04-25T18:41:07.404Z</time></trkpt><trkpt lat="31.509065" lon="-9.7670983"><ele>2.333333333333333</ele><time>2026-04-25T18:41:09.404Z</time></trkpt><trkpt lat="31.5091117" lon="-9.7671683"><ele>2.0</ele><time>2026-04-25T18:41:11.404Z</time></trkpt><trkpt lat="31.5092033" lon="-9.7672433"><ele>2.0</ele><time>2026-04-25T18:41:32.404Z</time></trkpt><trkpt lat="31.5092633" lon="-9.7673133"><ele>2.0</ele><time>2026-04-25T18:41:33.404Z</time></trkpt><trkpt lat="31.509335" lon="-9.7673917"><ele>2.0</ele><time>2026-04-25T18:41:34.404Z</time></trkpt><trkpt lat="31.5094067" lon="-9.7674783"><ele>2.0</ele><time>2026-04-25T18:41:35.404Z</time></trkpt><trkpt lat="31.5094783" lon="-9.7675617"><ele>2.0</ele><time>2026-04-25T18:41:36.404Z</time></trkpt><trkpt lat="31.5095467" lon="-9.7676367"><ele>1.4999999999999998</ele><time>2026-04-25T18:41:37.404Z</time></trkpt><trkpt lat="31.5096083" lon="-9.7677033"><ele>1.0</ele><time>2026-04-25T18:41:38.404Z</time></trkpt><trkpt lat="31.509665" lon="-9.76776"><ele>0.5</ele><time>2026-04-25T18:41:39.404Z</time></trkpt><trkpt lat="31.5097467" lon="-9.76783"><ele>0.0</ele><time>2026-04-25T18:41:41.404Z</time></trkpt><trkpt lat="31.5098067" lon="-9.767915"><ele>-0.49999999999999994</ele><time>2026-04-25T18:41:43.404Z</time></trkpt><trkpt lat="31.5098533" lon="-9.7679667"><ele>-1.0</ele><time>2026-04-25T18:41:44.404Z</time></trkpt><trkpt lat="31.5099083" lon="-9.7680383"><ele>-1.0</ele><time>2026-04-25T18:41:45.404Z</time></trkpt><trkpt lat="31.509975" lon="-9.7681217"><ele>-1.0</ele><time>2026-04-25T18:41:46.404Z</time></trkpt><trkpt lat="31.5100433" lon="-9.7682117"><ele>-1.0</ele><time>2026-04-25T18:41:47.404Z</time></trkpt><trkpt lat="31.5101167" lon="-9.7683"><ele>-1.0</ele><time>2026-04-25T18:41:48.404Z</time></trkpt><trkpt lat="31.5101867" lon="-9.7683867"><ele>-1.0</ele><time>2026-04-25T18:41:49.404Z</time></trkpt><trkpt lat="31.5102617" lon="-9.768475"><ele>-0.6666666666666666</ele><time>2026-04-25T18:41:50.404Z</time></trkpt><trkpt lat="31.5103283" lon="-9.7685567"><ele>-0.3333333333333333</ele><time>2026-04-25T18:41:51.404Z</time></trkpt><trkpt lat="31.51039" lon="-9.7686317"><ele>0.0</ele><time>2026-04-25T18:41:52.404Z</time></trkpt><trkpt lat="31.5104433" lon="-9.7687083"><ele>0.3333333333333333</ele><time>2026-04-25T18:41:53.404Z</time></trkpt><trkpt lat="31.510495" lon="-9.7687767"><ele>0.6666666666666666</ele><time>2026-04-25T18:41:54.404Z</time></trkpt><trkpt lat="31.5105333" lon="-9.76885"><ele>1.0</ele><time>2026-04-25T18:41:55.404Z</time></trkpt><trkpt lat="31.5105633" lon="-9.7689233"><ele>0.9999999999999999</ele><time>2026-04-25T18:41:56.404Z</time></trkpt><trkpt lat="31.51059" lon="-9.7689933"><ele>1.0</ele><time>2026-04-25T18:41:57.404Z</time></trkpt><trkpt lat="31.5106133" lon="-9.7690633"><ele>1.0</ele><time>2026-04-25T18:41:58.404Z</time></trkpt><trkpt lat="31.5106267" lon="-9.7692017"><ele>1.0</ele><time>2026-04-25T18:42:00.404Z</time></trkpt><trkpt lat="31.5106133" lon="-9.7692983"><ele>0.9999999999999999</ele><time>2026-04-25T18:42:02.404Z</time></trkpt><trkpt lat="31.5105883" lon="-9.76937"><ele>1.0</ele><time>2026-04-25T18:42:13.404Z</time></trkpt><trkpt lat="31.5105433" lon="-9.769435"><ele>0.9999999999999999</ele><time>2026-04-25T18:42:15.404Z</time></trkpt><trkpt lat="31.51052" lon="-9.769525"><ele>1.0</ele><time>2026-04-25T18:43:20.404Z</time></trkpt><trkpt lat="31.5104567" lon="-9.7694717"><ele>1.0</ele><time>2026-04-25T18:43:24.404Z</time></trkpt><trkpt lat="31.51051" lon="-9.76942"><ele>1.0</ele><time>2026-04-25T18:43:28.404Z</time></trkpt><trkpt lat="31.5105633" lon="-9.7693133"><ele>0.9999999999999999</ele><time>2026-04-25T18:43:35.404Z</time></trkpt><trkpt lat="31.5105767" lon="-9.7691833"><ele>1.0</ele><time>2026-04-25T18:43:37.404Z</time></trkpt><trkpt lat="31.510555" lon="-9.7690667"><ele>1.0</ele><time>2026-04-25T18:43:39.404Z</time></trkpt><trkpt lat="31.5105133" lon="-9.7689533"><ele>1.0</ele><time>2026-04-25T18:43:41.404Z</time></trkpt><trkpt lat="31.51046" lon="-9.76885"><ele>1.0</ele><time>2026-04-25T18:43:43.405Z</time></trkpt><trkpt lat="31.5103833" lon="-9.76873"><ele>1.0</ele><time>2026-04-25T18:43:45.404Z</time></trkpt><trkpt lat="31.5103367" lon="-9.76867"><ele>1.0</ele><time>2026-04-25T18:43:46.404Z</time></trkpt><trkpt lat="31.5102867" lon="-9.76861"><ele>1.0</ele><time>2026-04-25T18:43:47.404Z</time></trkpt><trkpt lat="31.5102283" lon="-9.7685417"><ele>1.0</ele><time>2026-04-25T18:43:48.405Z</time></trkpt><trkpt lat="31.51017" lon="-9.7684783"><ele>1.0</ele><time>2026-04-25T18:43:49.404Z</time></trkpt><trkpt lat="31.5101233" lon="-9.7684083"><ele>1.0</ele><time>2026-04-25T18:43:50.404Z</time></trkpt><trkpt lat="31.51004" lon="-9.7683067"><ele>1.0</ele><time>2026-04-25T18:43:52.404Z</time></trkpt><trkpt lat="31.5099583" lon="-9.7682133"><ele>0.6666666666666666</ele><time>2026-04-25T18:43:54.404Z</time></trkpt><trkpt lat="31.5098883" lon="-9.7681217"><ele>0.3333333333333333</ele><time>2026-04-25T18:43:56.404Z</time></trkpt><trkpt lat="31.5098383" lon="-9.7680467"><ele>0.0</ele><time>2026-04-25T18:44:00.404Z</time></trkpt><trkpt lat="31.5098" lon="-9.767985"><ele>-0.3333333333333333</ele><time>2026-04-25T18:44:02.404Z</time></trkpt><trkpt lat="31.5098033" lon="-9.7678667"><ele>-0.6666666666666666</ele><time>2026-04-25T18:44:04.404Z</time></trkpt><trkpt lat="31.509825" lon="-9.7677933"><ele>-1.0</ele><time>2026-04-25T18:44:05.404Z</time></trkpt><trkpt lat="31.5098517" lon="-9.7677133"><ele>-0.49999999999999994</ele><time>2026-04-25T18:44:06.404Z</time></trkpt><trkpt lat="31.50989" lon="-9.7676367"><ele>0.0</ele><time>2026-04-25T18:44:07.404Z</time></trkpt><trkpt lat="31.5099217" lon="-9.7675583"><ele>0.5</ele><time>2026-04-25T18:44:08.404Z</time></trkpt><trkpt lat="31.5099533" lon="-9.767475"><ele>1.0</ele><time>2026-04-25T18:44:09.404Z</time></trkpt><trkpt lat="31.5099933" lon="-9.767385"><ele>1.4999999999999998</ele><time>2026-04-25T18:44:10.404Z</time></trkpt><trkpt lat="31.5100367" lon="-9.76731"><ele>2.0</ele><time>2026-04-25T18:44:11.404Z</time></trkpt><trkpt lat="31.5100767" lon="-9.76723"><ele>2.0</ele><time>2026-04-25T18:44:12.404Z</time></trkpt><trkpt lat="31.51011" lon="-9.7671517"><ele>1.9999999999999998</ele><time>2026-04-25T18:44:13.404Z</time></trkpt><trkpt lat="31.5101467" lon="-9.7670733"><ele>2.0</ele><time>2026-04-25T18:44:14.404Z</time></trkpt><trkpt lat="31.51018" lon="-9.7669967"><ele>2.0</ele><time>2026-04-25T18:44:15.404Z</time></trkpt><trkpt lat="31.5102117" lon="-9.76693"><ele>1.9999999999999998</ele><time>2026-04-25T18:44:16.404Z</time></trkpt><trkpt lat="31.5102467" lon="-9.7668617"><ele>2.0</ele><time>2026-04-25T18:44:17.404Z</time></trkpt><trkpt lat="31.5102933" lon="-9.7667817"><ele>2.0</ele><time>2026-04-25T18:44:18.404Z</time></trkpt><trkpt lat="31.5103317" lon="-9.7666817"><ele>2.0</ele><time>2026-04-25T18:44:19.404Z</time></trkpt><trkpt lat="31.5103817" lon="-9.7665767"><ele>2.0</ele><time>2026-04-25T18:44:20.404Z</time></trkpt><trkpt lat="31.5104283" lon="-9.7664733"><ele>2.0</ele><time>2026-04-25T18:44:21.404Z</time></trkpt><trkpt lat="31.5104617" lon="-9.7663683"><ele>2.0</ele><time>2026-04-25T18:44:22.404Z</time></trkpt><trkpt lat="31.5105" lon="-9.7662833"><ele>2.0</ele><time>2026-04-25T18:44:23.404Z</time></trkpt><trkpt lat="31.510545" lon="-9.7662033"><ele>1.8333333333333333</ele><time>2026-04-25T18:44:24.404Z</time></trkpt><trkpt lat="31.5105833" lon="-9.766135"><ele>1.6666666666666665</ele><time>2026-04-25T18:44:25.404Z</time></trkpt><trkpt lat="31.510625" lon="-9.7660667"><ele>1.5</ele><time>2026-04-25T18:44:26.404Z</time></trkpt><trkpt lat="31.510665" lon="-9.7659983"><ele>1.3333333333333333</ele><time>2026-04-25T18:44:27.404Z</time></trkpt><trkpt lat="31.51071" lon="-9.76593"><ele>1.1666666666666665</ele><time>2026-04-25T18:44:28.404Z</time></trkpt><trkpt lat="31.5107483" lon="-9.765865"><ele>1.0</ele><time>2026-04-25T18:44:29.404Z</time></trkpt><trkpt lat="31.510805" lon="-9.7657483"><ele>0.8333333333333333</ele><time>2026-04-25T18:44:31.405Z</time></trkpt><trkpt lat="31.510865" lon="-9.765665"><ele>0.6666666666666666</ele><time>2026-04-25T18:44:33.404Z</time></trkpt><trkpt lat="31.51091" lon="-9.7655917"><ele>0.5</ele><time>2026-04-25T18:44:35.404Z</time></trkpt><trkpt lat="31.510955" lon="-9.7655133"><ele>0.3333333333333333</ele><time>2026-04-25T18:44:38.404Z</time></trkpt><trkpt lat="31.511035" lon="-9.765485"><ele>0.16666666666666666</ele><time>2026-04-25T18:44:45.404Z</time></trkpt><trkpt lat="31.5111183" lon="-9.765435"><ele>0.0</ele><time>2026-04-25T18:44:47.404Z</time></trkpt><trkpt lat="31.5111867" lon="-9.76535"><ele>0.2</ele><time>2026-04-25T18:44:49.405Z</time></trkpt><trkpt lat="31.5112567" lon="-9.76526"><ele>0.4</ele><time>2026-04-25T18:44:51.404Z</time></trkpt><trkpt lat="31.511325" lon="-9.7651783"><ele>0.6000000000000001</ele><time>2026-04-25T18:44:53.404Z</time></trkpt><trkpt lat="31.5114017" lon="-9.7650767"><ele>0.8</ele><time>2026-04-25T18:44:55.404Z</time></trkpt><trkpt lat="31.5114533" lon="-9.7649767"><ele>1.0</ele><time>2026-04-25T18:44:57.404Z</time></trkpt><trkpt lat="31.5115117" lon="-9.7648883"><ele>1.0</ele><time>2026-04-25T18:45:00.404Z</time></trkpt><trkpt lat="31.5115567" lon="-9.7648283"><ele>1.0</ele><time>2026-04-25T18:45:02.404Z</time></trkpt><trkpt lat="31.5115483" lon="-9.7647367"><ele>1.0</ele><time>2026-04-25T18:45:05.404Z</time></trkpt><trkpt lat="31.5114917" lon="-9.7646567"><ele>1.0</ele><time>2026-04-25T18:45:07.404Z</time></trkpt><trkpt lat="31.511395" lon="-9.76455"><ele>1.0</ele><time>2026-04-25T18:45:09.404Z</time></trkpt><trkpt lat="31.5113467" lon="-9.7644567"><ele>1.0</ele><time>2026-04-25T18:45:10.404Z</time></trkpt><trkpt lat="31.5112817" lon="-9.76438"><ele>1.0</ele><time>2026-04-25T18:45:11.404Z</time></trkpt><trkpt lat="31.5112117" lon="-9.7643083"><ele>1.0</ele><time>2026-04-25T18:45:12.404Z</time></trkpt><trkpt lat="31.5111383" lon="-9.76423"><ele>1.0</ele><time>2026-04-25T18:45:13.404Z</time></trkpt><trkpt lat="31.5110767" lon="-9.7641417"><ele>1.0</ele><time>2026-04-25T18:45:14.404Z</time></trkpt><trkpt lat="31.5110133" lon="-9.7640533"><ele>0.9999999999999999</ele><time>2026-04-25T18:45:15.404Z</time></trkpt><trkpt lat="31.5109483" lon="-9.7639733"><ele>1.0</ele><time>2026-04-25T18:45:16.404Z</time></trkpt><trkpt lat="31.5108917" lon="-9.7638933"><ele>1.0</ele><time>2026-04-25T18:45:17.404Z</time></trkpt><trkpt lat="31.510835" lon="-9.7638283"><ele>1.0</ele><time>2026-04-25T18:45:18.404Z</time></trkpt><trkpt lat="31.5107833" lon="-9.7637683"><ele>0.9999999999999999</ele><time>2026-04-25T18:45:19.404Z</time></trkpt><trkpt lat="31.5107367" lon="-9.763705"><ele>1.0</ele><time>2026-04-25T18:45:20.404Z</time></trkpt><trkpt lat="31.5106933" lon="-9.7636467"><ele>0.9999999999999999</ele><time>2026-04-25T18:45:21.404Z</time></trkpt><trkpt lat="31.5106483" lon="-9.763585"><ele>1.0</ele><time>2026-04-25T18:45:22.404Z</time></trkpt><trkpt lat="31.5106" lon="-9.7635183"><ele>1.0</ele><time>2026-04-25T18:45:23.404Z</time></trkpt><trkpt lat="31.51055" lon="-9.763445"><ele>1.0</ele><time>2026-04-25T18:45:24.404Z</time></trkpt><trkpt lat="31.51049" lon="-9.7633683"><ele>0.9999999999999999</ele><time>2026-04-25T18:45:25.404Z</time></trkpt><trkpt lat="31.5104317" lon="-9.76328"><ele>1.0</ele><time>2026-04-25T18:45:26.404Z</time></trkpt><trkpt lat="31.510365" lon="-9.76319"><ele>0.9999999999999999</ele><time>2026-04-25T18:45:27.404Z</time></trkpt><trkpt lat="31.5102917" lon="-9.7631017"><ele>1.0</ele><time>2026-04-25T18:45:28.404Z</time></trkpt><trkpt lat="31.510225" lon="-9.7630233"><ele>1.0</ele><time>2026-04-25T18:45:29.404Z</time></trkpt><trkpt lat="31.510165" lon="-9.76295"><ele>1.0</ele><time>2026-04-25T18:45:30.404Z</time></trkpt><trkpt lat="31.5101117" lon="-9.7628833"><ele>0.9999999999999999</ele><time>2026-04-25T18:45:31.404Z</time></trkpt><trkpt lat="31.5100533" lon="-9.7628183"><ele>1.0</ele><time>2026-04-25T18:45:32.404Z</time></trkpt><trkpt lat="31.5099933" lon="-9.7627533"><ele>1.2000000000000002</ele><time>2026-04-25T18:45:33.404Z</time></trkpt><trkpt lat="31.509935" lon="-9.762685"><ele>1.4000000000000001</ele><time>2026-04-25T18:45:34.404Z</time></trkpt><trkpt lat="31.50987" lon="-9.76261"><ele>1.6</ele><time>2026-04-25T18:45:35.404Z</time></trkpt><trkpt lat="31.5098" lon="-9.762525"><ele>1.8</ele><time>2026-04-25T18:45:36.404Z</time></trkpt><trkpt lat="31.5097317" lon="-9.76245"><ele>2.0</ele><time>2026-04-25T18:45:37.404Z</time></trkpt><trkpt lat="31.5096633" lon="-9.7623583"><ele>2.0</ele><time>2026-04-25T18:45:38.404Z</time></trkpt><trkpt lat="31.5095917" lon="-9.7622567"><ele>2.0</ele><time>2026-04-25T18:45:39.404Z</time></trkpt><trkpt lat="31.5095167" lon="-9.7621533"><ele>2.0</ele><time>2026-04-25T18:45:40.404Z</time></trkpt><trkpt lat="31.5094317" lon="-9.7620433"><ele>2.0</ele><time>2026-04-25T18:45:41.404Z</time></trkpt><trkpt lat="31.5093417" lon="-9.76192"><ele>2.0</ele><time>2026-04-25T18:45:42.404Z</time></trkpt><trkpt lat="31.5092483" lon="-9.7618033"><ele>2.0</ele><time>2026-04-25T18:45:43.404Z</time></trkpt><trkpt lat="31.509165" lon="-9.7616967"><ele>2.0</ele><time>2026-04-25T18:45:44.404Z</time></trkpt><trkpt lat="31.5090833" lon="-9.7615883"><ele>2.0</ele><time>2026-04-25T18:45:45.404Z</time></trkpt><trkpt lat="31.50901" lon="-9.76149"><ele>2.0</ele><time>2026-04-25T18:45:46.404Z</time></trkpt><trkpt lat="31.5089383" lon="-9.7613967"><ele>2.0</ele><time>2026-04-25T18:45:47.404Z</time></trkpt><trkpt lat="31.5088717" lon="-9.7613083"><ele>2.0</ele><time>2026-04-25T18:45:48.404Z</time></trkpt><trkpt lat="31.5088083" lon="-9.7612217"><ele>2.0</ele><time>2026-04-25T18:45:49.404Z</time></trkpt><trkpt lat="31.5087483" lon="-9.76114"><ele>2.0</ele><time>2026-04-25T18:45:50.404Z</time></trkpt><trkpt lat="31.5086983" lon="-9.7610683"><ele>1.9999999999999998</ele><time>2026-04-25T18:45:51.405Z</time></trkpt><trkpt lat="31.5086517" lon="-9.7610117"><ele>2.0</ele><time>2026-04-25T18:45:52.404Z</time></trkpt><trkpt lat="31.5085783" lon="-9.7609167"><ele>2.0</ele><time>2026-04-25T18:45:54.404Z</time></trkpt><trkpt lat="31.50852" lon="-9.7608483"><ele>2.0</ele><time>2026-04-25T18:45:57.404Z</time></trkpt><trkpt lat="31.508465" lon="-9.7608067"><ele>1.9999999999999998</ele><time>2026-04-25T18:46:01.404Z</time></trkpt><trkpt lat="31.508395" lon="-9.7607583"><ele>2.0</ele><time>2026-04-25T18:46:05.404Z</time></trkpt><trkpt lat="31.50832" lon="-9.7607317"><ele>2.0</ele><time>2026-04-25T18:46:07.404Z</time></trkpt><trkpt lat="31.5082317" lon="-9.7607267"><ele>2.0</ele><time>2026-04-25T18:46:09.404Z</time></trkpt><trkpt lat="31.50811" lon="-9.7607517"><ele>2.0</ele><time>2026-04-25T18:46:12.404Z</time></trkpt><trkpt lat="31.5080183" lon="-9.7607833"><ele>2.0</ele><time>2026-04-25T18:46:14.404Z</time></trkpt><trkpt lat="31.5079067" lon="-9.7608117"><ele>2.0</ele><time>2026-04-25T18:46:16.404Z</time></trkpt><trkpt lat="31.5077883" lon="-9.76083"><ele>1.6</ele><time>2026-04-25T18:46:18.405Z</time></trkpt><trkpt lat="31.5076733" lon="-9.760835"><ele>1.2000000000000002</ele><time>2026-04-25T18:46:20.404Z</time></trkpt><trkpt lat="31.507545" lon="-9.7608483"><ele>0.8</ele><time>2026-04-25T18:46:22.404Z</time></trkpt><trkpt lat="31.5074783" lon="-9.760855"><ele>0.4</ele><time>2026-04-25T18:46:23.404Z</time></trkpt><trkpt lat="31.507405" lon="-9.7608667"><ele>0.0</ele><time>2026-04-25T18:46:24.404Z</time></trkpt><trkpt lat="31.50733" lon="-9.7608833"><ele>0.0</ele><time>2026-04-25T18:46:25.404Z</time></trkpt><trkpt lat="31.5072533" lon="-9.7609017"><ele>0.0</ele><time>2026-04-25T18:46:26.404Z</time></trkpt><trkpt lat="31.5071767" lon="-9.7609183"><ele>0.0</ele><time>2026-04-25T18:46:27.404Z</time></trkpt><trkpt lat="31.5070933" lon="-9.7609267"><ele>0.0</ele><time>2026-04-25T18:46:28.404Z</time></trkpt><trkpt lat="31.507005" lon="-9.76093"><ele>0.0</ele><time>2026-04-25T18:46:29.404Z</time></trkpt><trkpt lat="31.5069167" lon="-9.7609317"><ele>0.0</ele><time>2026-04-25T18:46:30.404Z</time></trkpt><trkpt lat="31.5068283" lon="-9.7609267"><ele>0.16666666666666666</ele><time>2026-04-25T18:46:31.404Z</time></trkpt><trkpt lat="31.5067417" lon="-9.7609233"><ele>0.3333333333333333</ele><time>2026-04-25T18:46:32.404Z</time></trkpt><trkpt lat="31.50666" lon="-9.76091"><ele>0.5</ele><time>2026-04-25T18:46:33.404Z</time></trkpt><trkpt lat="31.5065767" lon="-9.7608967"><ele>0.6666666666666666</ele><time>2026-04-25T18:46:34.404Z</time></trkpt><trkpt lat="31.5064917" lon="-9.7608767"><ele>0.8333333333333333</ele><time>2026-04-25T18:46:35.404Z</time></trkpt><trkpt lat="31.506415" lon="-9.760855"><ele>1.0</ele><time>2026-04-25T18:46:36.404Z</time></trkpt><trkpt lat="31.50634" lon="-9.7608367"><ele>0.9999999999999999</ele><time>2026-04-25T18:46:37.404Z</time></trkpt><trkpt lat="31.5062733" lon="-9.7608133"><ele>1.0</ele><time>2026-04-25T18:46:38.404Z</time></trkpt><trkpt lat="31.5062083" lon="-9.7607783"><ele>1.0</ele><time>2026-04-25T18:46:39.404Z</time></trkpt><trkpt lat="31.50613" lon="-9.760755"><ele>1.0</ele><time>2026-04-25T18:46:40.404Z</time></trkpt><trkpt lat="31.506045" lon="-9.7607283"><ele>0.9999999999999999</ele><time>2026-04-25T18:46:41.405Z</time></trkpt><trkpt lat="31.5059517" lon="-9.7606933"><ele>1.0</ele><time>2026-04-25T18:46:42.404Z</time></trkpt><trkpt lat="31.5058633" lon="-9.7606467"><ele>1.0</ele><time>2026-04-25T18:46:43.404Z</time></trkpt><trkpt lat="31.5057733" lon="-9.7606083"><ele>1.0</ele><time>2026-04-25T18:46:44.404Z</time></trkpt><trkpt lat="31.505685" lon="-9.7605683"><ele>1.0</ele><time>2026-04-25T18:46:45.404Z</time></trkpt><trkpt lat="31.5056067" lon="-9.7605167"><ele>1.0</ele><time>2026-04-25T18:46:46.404Z</time></trkpt><trkpt lat="31.5055217" lon="-9.7604817"><ele>1.0</ele><time>2026-04-25T18:46:47.404Z</time></trkpt><trkpt lat="31.50543" lon="-9.7604417"><ele>1.8</ele><time>2026-04-25T18:46:48.405Z</time></trkpt><trkpt lat="31.5053283" lon="-9.7604083"><ele>2.6</ele><time>2026-04-25T18:46:49.404Z</time></trkpt><trkpt lat="31.5052217" lon="-9.7603683"><ele>3.4</ele><time>2026-04-25T18:46:50.404Z</time></trkpt><trkpt lat="31.5051183" lon="-9.7603283"><ele>4.2</ele><time>2026-04-25T18:46:51.404Z</time></trkpt><trkpt lat="31.505005" lon="-9.7602933"><ele>5.0</ele><time>2026-04-25T18:46:52.404Z</time></trkpt><trkpt lat="31.5048883" lon="-9.7602483"><ele>5.0</ele><time>2026-04-25T18:46:53.405Z</time></trkpt><trkpt lat="31.50477" lon="-9.7602"><ele>5.0</ele><time>2026-04-25T18:46:54.404Z</time></trkpt><trkpt lat="31.5046517" lon="-9.760165"><ele>5.0</ele><time>2026-04-25T18:46:55.404Z</time></trkpt><trkpt lat="31.50455" lon="-9.7601317"><ele>5.0</ele><time>2026-04-25T18:46:56.404Z</time></trkpt><trkpt lat="31.5044567" lon="-9.7601033"><ele>5.0</ele><time>2026-04-25T18:46:57.404Z</time></trkpt><trkpt lat="31.5043783" lon="-9.7600667"><ele>4.571428571428571</ele><time>2026-04-25T18:46:58.404Z</time></trkpt><trkpt lat="31.5043067" lon="-9.76004"><ele>4.142857142857143</ele><time>2026-04-25T18:46:59.404Z</time></trkpt><trkpt lat="31.5042433" lon="-9.7600117"><ele>3.7142857142857144</ele><time>2026-04-25T18:47:00.404Z</time></trkpt><trkpt lat="31.5041817" lon="-9.7599933"><ele>3.2857142857142856</ele><time>2026-04-25T18:47:01.404Z</time></trkpt><trkpt lat="31.50412" lon="-9.759975"><ele>2.8571428571428568</ele><time>2026-04-25T18:47:02.404Z</time></trkpt><trkpt lat="31.50405" lon="-9.7599467"><ele>2.4285714285714284</ele><time>2026-04-25T18:47:03.404Z</time></trkpt><trkpt lat="31.5039683" lon="-9.7599033"><ele>2.0</ele><time>2026-04-25T18:47:04.404Z</time></trkpt><trkpt lat="31.5038767" lon="-9.759855"><ele>2.0</ele><time>2026-04-25T18:47:05.404Z</time></trkpt><trkpt lat="31.503775" lon="-9.759805"><ele>2.0</ele><time>2026-04-25T18:47:06.404Z</time></trkpt><trkpt lat="31.503685" lon="-9.7597667"><ele>2.0</ele><time>2026-04-25T18:47:07.404Z</time></trkpt><trkpt lat="31.503595" lon="-9.75973"><ele>2.0</ele><time>2026-04-25T18:47:08.404Z</time></trkpt><trkpt lat="31.5034983" lon="-9.7597"><ele>2.0</ele><time>2026-04-25T18:47:09.404Z</time></trkpt><trkpt lat="31.5033983" lon="-9.7596617"><ele>2.2</ele><time>2026-04-25T18:47:10.404Z</time></trkpt><trkpt lat="31.5033017" lon="-9.75962"><ele>2.4000000000000004</ele><time>2026-04-25T18:47:11.404Z</time></trkpt><trkpt lat="31.5032" lon="-9.7595767"><ele>2.5999999999999996</ele><time>2026-04-25T18:47:12.404Z</time></trkpt><trkpt lat="31.5031017" lon="-9.7595367"><ele>2.8</ele><time>2026-04-25T18:47:13.404Z</time></trkpt><trkpt lat="31.5029983" lon="-9.7595"><ele>3.0</ele><time>2026-04-25T18:47:14.405Z</time></trkpt><trkpt lat="31.5029" lon="-9.75946"><ele>3.2</ele><time>2026-04-25T18:47:15.404Z</time></trkpt><trkpt lat="31.5028" lon="-9.7594233"><ele>3.4</ele><time>2026-04-25T18:47:16.404Z</time></trkpt><trkpt lat="31.5026983" lon="-9.7593917"><ele>3.6000000000000005</ele><time>2026-04-25T18:47:17.404Z</time></trkpt><trkpt lat="31.5025967" lon="-9.7593533"><ele>3.8000000000000003</ele><time>2026-04-25T18:47:18.404Z</time></trkpt><trkpt lat="31.5024917" lon="-9.759315"><ele>4.0</ele><time>2026-04-25T18:47:19.404Z</time></trkpt><trkpt lat="31.5023833" lon="-9.7592767"><ele>4.0</ele><time>2026-04-25T18:47:20.404Z</time></trkpt><trkpt lat="31.50227" lon="-9.7592367"><ele>4.0</ele><time>2026-04-25T18:47:21.404Z</time></trkpt><trkpt lat="31.502165" lon="-9.759195"><ele>4.0</ele><time>2026-04-25T18:47:22.404Z</time></trkpt><trkpt lat="31.502065" lon="-9.759155"><ele>4.0</ele><time>2026-04-25T18:47:23.404Z</time></trkpt><trkpt lat="31.50197" lon="-9.7591183"><ele>4.0</ele><time>2026-04-25T18:47:24.404Z</time></trkpt><trkpt lat="31.50188" lon="-9.7590833"><ele>3.833333333333333</ele><time>2026-04-25T18:47:25.404Z</time></trkpt><trkpt lat="31.5017933" lon="-9.75905"><ele>3.6666666666666665</ele><time>2026-04-25T18:47:26.405Z</time></trkpt><trkpt lat="31.50171" lon="-9.7590167"><ele>3.5</ele><time>2026-04-25T18:47:27.404Z</time></trkpt><trkpt lat="31.5016367" lon="-9.7589867"><ele>3.333333333333333</ele><time>2026-04-25T18:47:28.404Z</time></trkpt><trkpt lat="31.5015717" lon="-9.7589583"><ele>3.1666666666666665</ele><time>2026-04-25T18:47:29.405Z</time></trkpt><trkpt lat="31.5015067" lon="-9.7589333"><ele>3.0</ele><time>2026-04-25T18:47:30.404Z</time></trkpt><trkpt lat="31.5014383" lon="-9.7589133"><ele>2.9999999999999996</ele><time>2026-04-25T18:47:31.404Z</time></trkpt><trkpt lat="31.5013767" lon="-9.758885"><ele>3.0</ele><time>2026-04-25T18:47:32.404Z</time></trkpt><trkpt lat="31.50131" lon="-9.75886"><ele>3.0</ele><time>2026-04-25T18:47:33.404Z</time></trkpt><trkpt lat="31.501245" lon="-9.7588317"><ele>3.0</ele><time>2026-04-25T18:47:34.404Z</time></trkpt><trkpt lat="31.50118" lon="-9.75881"><ele>3.0</ele><time>2026-04-25T18:47:35.404Z</time></trkpt><trkpt lat="31.5011167" lon="-9.7587817"><ele>2.9999999999999996</ele><time>2026-04-25T18:47:36.404Z</time></trkpt><trkpt lat="31.5010583" lon="-9.7587533"><ele>3.0</ele><time>2026-04-25T18:47:37.404Z</time></trkpt><trkpt lat="31.5009417" lon="-9.758705"><ele>3.4</ele><time>2026-04-25T18:47:39.404Z</time></trkpt><trkpt lat="31.5008417" lon="-9.758665"><ele>3.8</ele><time>2026-04-25T18:47:41.404Z</time></trkpt><trkpt lat="31.5007533" lon="-9.7586317"><ele>4.2</ele><time>2026-04-25T18:47:43.404Z</time></trkpt><trkpt lat="31.5006583" lon="-9.7585983"><ele>4.6</ele><time>2026-04-25T18:47:45.404Z</time></trkpt><trkpt lat="31.5005567" lon="-9.7585733"><ele>5.0</ele><time>2026-04-25T18:47:47.404Z</time></trkpt><trkpt lat="31.5004817" lon="-9.75855"><ele>5.0</ele><time>2026-04-25T18:47:48.404Z</time></trkpt><trkpt lat="31.5003867" lon="-9.7585283"><ele>5.0</ele><time>2026-04-25T18:47:49.404Z</time></trkpt><trkpt lat="31.5002767" lon="-9.7585033"><ele>5.0</ele><time>2026-04-25T18:47:50.404Z</time></trkpt><trkpt lat="31.500165" lon="-9.7584717"><ele>5.0</ele><time>2026-04-25T18:47:51.404Z</time></trkpt><trkpt lat="31.5000567" lon="-9.75844"><ele>5.0</ele><time>2026-04-25T18:47:52.404Z</time></trkpt><trkpt lat="31.49996" lon="-9.7583967"><ele>5.0</ele><time>2026-04-25T18:47:53.404Z</time></trkpt><trkpt lat="31.4998583" lon="-9.7583283"><ele>5.0</ele><time>2026-04-25T18:47:54.404Z</time></trkpt><trkpt lat="31.4997483" lon="-9.7582517"><ele>5.0</ele><time>2026-04-25T18:47:55.405Z</time></trkpt><trkpt lat="31.4996317" lon="-9.758185"><ele>5.0</ele><time>2026-04-25T18:47:56.404Z</time></trkpt><trkpt lat="31.4995183" lon="-9.7581267"><ele>4.5</ele><time>2026-04-25T18:47:57.404Z</time></trkpt><trkpt lat="31.49941" lon="-9.75807"><ele>4.0</ele><time>2026-04-25T18:47:58.404Z</time></trkpt><trkpt lat="31.4993" lon="-9.75802"><ele>3.5</ele><time>2026-04-25T18:47:59.404Z</time></trkpt><trkpt lat="31.4991983" lon="-9.757975"><ele>3.0</ele><time>2026-04-25T18:48:00.404Z</time></trkpt><trkpt lat="31.4990983" lon="-9.7579333"><ele>3.0</ele><time>2026-04-25T18:48:01.404Z</time></trkpt><trkpt lat="31.499" lon="-9.757895"><ele>3.0</ele><time>2026-04-25T18:48:02.404Z</time></trkpt><trkpt lat="31.498905" lon="-9.7578583"><ele>3.0</ele><time>2026-04-25T18:48:03.404Z</time></trkpt><trkpt lat="31.49881" lon="-9.7578183"><ele>3.0</ele><time>2026-04-25T18:48:04.404Z</time></trkpt><trkpt lat="31.4987133" lon="-9.757775"><ele>3.0</ele><time>2026-04-25T18:48:05.404Z</time></trkpt><trkpt lat="31.4986233" lon="-9.757735"><ele>3.4</ele><time>2026-04-25T18:48:06.404Z</time></trkpt><trkpt lat="31.498535" lon="-9.7576933"><ele>3.8</ele><time>2026-04-25T18:48:07.405Z</time></trkpt><trkpt lat="31.4984517" lon="-9.7576517"><ele>4.2</ele><time>2026-04-25T18:48:08.405Z</time></trkpt><trkpt lat="31.4983667" lon="-9.75761"><ele>4.6</ele><time>2026-04-25T18:48:09.404Z</time></trkpt><trkpt lat="31.498275" lon="-9.7575667"><ele>5.0</ele><time>2026-04-25T18:48:10.404Z</time></trkpt><trkpt lat="31.4981767" lon="-9.7575217"><ele>5.0</ele><time>2026-04-25T18:48:11.404Z</time></trkpt><trkpt lat="31.4980717" lon="-9.7574717"><ele>5.0</ele><time>2026-04-25T18:48:12.404Z</time></trkpt><trkpt lat="31.4979633" lon="-9.757415"><ele>5.0</ele><time>2026-04-25T18:48:13.404Z</time></trkpt><trkpt lat="31.4978483" lon="-9.75736"><ele>5.0</ele><time>2026-04-25T18:48:14.404Z</time></trkpt><trkpt lat="31.4977333" lon="-9.7573033"><ele>4.25</ele><time>2026-04-25T18:48:15.404Z</time></trkpt><trkpt lat="31.4976167" lon="-9.7572433"><ele>3.5</ele><time>2026-04-25T18:48:16.404Z</time></trkpt><trkpt lat="31.497495" lon="-9.757185"><ele>2.75</ele><time>2026-04-25T18:48:17.404Z</time></trkpt><trkpt lat="31.49737" lon="-9.7571317"><ele>2.0</ele><time>2026-04-25T18:48:18.404Z</time></trkpt><trkpt lat="31.4972467" lon="-9.757075"><ele>2.0</ele><time>2026-04-25T18:48:19.404Z</time></trkpt><trkpt lat="31.497135" lon="-9.7570183"><ele>2.0</ele><time>2026-04-25T18:48:20.404Z</time></trkpt><trkpt lat="31.4970267" lon="-9.7569683"><ele>2.0</ele><time>2026-04-25T18:48:21.404Z</time></trkpt><trkpt lat="31.4969233" lon="-9.7569183"><ele>2.0</ele><time>2026-04-25T18:48:22.404Z</time></trkpt><trkpt lat="31.496825" lon="-9.7568717"><ele>2.333333333333333</ele><time>2026-04-25T18:48:23.404Z</time></trkpt><trkpt lat="31.4967283" lon="-9.75684"><ele>2.6666666666666665</ele><time>2026-04-25T18:48:24.404Z</time></trkpt><trkpt lat="31.4966417" lon="-9.756825"><ele>3.0</ele><time>2026-04-25T18:48:25.404Z</time></trkpt><trkpt lat="31.49656" lon="-9.7568167"><ele>3.333333333333333</ele><time>2026-04-25T18:48:26.404Z</time></trkpt><trkpt lat="31.49648" lon="-9.7568133"><ele>3.6666666666666665</ele><time>2026-04-25T18:48:27.404Z</time></trkpt><trkpt lat="31.4963983" lon="-9.7568083"><ele>4.0</ele><time>2026-04-25T18:48:28.404Z</time></trkpt><trkpt lat="31.4963117" lon="-9.7568033"><ele>4.333333333333333</ele><time>2026-04-25T18:48:29.404Z</time></trkpt><trkpt lat="31.496225" lon="-9.7567867"><ele>4.666666666666666</ele><time>2026-04-25T18:48:30.404Z</time></trkpt><trkpt lat="31.496145" lon="-9.7567533"><ele>5.0</ele><time>2026-04-25T18:48:31.404Z</time></trkpt><trkpt lat="31.496075" lon="-9.756705"><ele>5.333333333333333</ele><time>2026-04-25T18:48:32.404Z</time></trkpt><trkpt lat="31.4960233" lon="-9.7566383"><ele>5.666666666666667</ele><time>2026-04-25T18:48:33.404Z</time></trkpt><trkpt lat="31.4959933" lon="-9.7565683"><ele>6.0</ele><time>2026-04-25T18:48:34.404Z</time></trkpt><trkpt lat="31.495995" lon="-9.7564817"><ele>6.0</ele><time>2026-04-25T18:48:35.404Z</time></trkpt><trkpt lat="31.4960117" lon="-9.7563983"><ele>6.0</ele><time>2026-04-25T18:48:36.404Z</time></trkpt><trkpt lat="31.4960467" lon="-9.7563167"><ele>6.0</ele><time>2026-04-25T18:48:37.404Z</time></trkpt><trkpt lat="31.4960967" lon="-9.756235"><ele>6.0</ele><time>2026-04-25T18:48:38.404Z</time></trkpt><trkpt lat="31.496155" lon="-9.7561517"><ele>6.0</ele><time>2026-04-25T18:48:39.404Z</time></trkpt><trkpt lat="31.496225" lon="-9.756065"><ele>6.0</ele><time>2026-04-25T18:48:40.404Z</time></trkpt><trkpt lat="31.4962933" lon="-9.7559717"><ele>5.8</ele><time>2026-04-25T18:48:41.404Z</time></trkpt><trkpt lat="31.496355" lon="-9.7558683"><ele>5.6</ele><time>2026-04-25T18:48:42.404Z</time></trkpt><trkpt lat="31.4964067" lon="-9.755765"><ele>5.4</ele><time>2026-04-25T18:48:43.404Z</time></trkpt><trkpt lat="31.4964567" lon="-9.7556667"><ele>5.2</ele><time>2026-04-25T18:48:44.404Z</time></trkpt><trkpt lat="31.4965017" lon="-9.7555733"><ele>5.0</ele><time>2026-04-25T18:48:45.404Z</time></trkpt><trkpt lat="31.4965433" lon="-9.755485"><ele>5.0</ele><time>2026-04-25T18:48:46.404Z</time></trkpt><trkpt lat="31.496585" lon="-9.7554"><ele>5.0</ele><time>2026-04-25T18:48:47.404Z</time></trkpt><trkpt lat="31.4966233" lon="-9.7553217"><ele>5.0</ele><time>2026-04-25T18:48:48.404Z</time></trkpt><trkpt lat="31.4966617" lon="-9.75524"><ele>5.0</ele><time>2026-04-25T18:48:49.404Z</time></trkpt><trkpt lat="31.4966967" lon="-9.7551567"><ele>5.0</ele><time>2026-04-25T18:48:50.404Z</time></trkpt><trkpt lat="31.496725" lon="-9.7550783"><ele>5.0</ele><time>2026-04-25T18:48:51.404Z</time></trkpt><trkpt lat="31.49675" lon="-9.755"><ele>5.333333333333334</ele><time>2026-04-25T18:48:52.404Z</time></trkpt><trkpt lat="31.4967767" lon="-9.7549217"><ele>5.666666666666667</ele><time>2026-04-25T18:48:53.404Z</time></trkpt><trkpt lat="31.4968083" lon="-9.7548367"><ele>6.0</ele><time>2026-04-25T18:48:54.404Z</time></trkpt><trkpt lat="31.496845" lon="-9.754745"><ele>6.333333333333334</ele><time>2026-04-25T18:48:55.404Z</time></trkpt><trkpt lat="31.4968833" lon="-9.7546367"><ele>6.666666666666667</ele><time>2026-04-25T18:48:56.404Z</time></trkpt><trkpt lat="31.4969317" lon="-9.7545233"><ele>7.0</ele><time>2026-04-25T18:48:57.404Z</time></trkpt><trkpt lat="31.4969883" lon="-9.7543917"><ele>6.666666666666667</ele><time>2026-04-25T18:48:58.404Z</time></trkpt><trkpt lat="31.4970533" lon="-9.7542467"><ele>6.333333333333334</ele><time>2026-04-25T18:48:59.404Z</time></trkpt><trkpt lat="31.497125" lon="-9.7540867"><ele>6.0</ele><time>2026-04-25T18:49:00.404Z</time></trkpt><trkpt lat="31.49719" lon="-9.7539183"><ele>6.0</ele><time>2026-04-25T18:49:01.404Z</time></trkpt><trkpt lat="31.4972517" lon="-9.7537583"><ele>6.0</ele><time>2026-04-25T18:49:02.404Z</time></trkpt><trkpt lat="31.4973" lon="-9.7536133"><ele>6.0</ele><time>2026-04-25T18:49:03.404Z</time></trkpt><trkpt lat="31.4973467" lon="-9.7534767"><ele>6.0</ele><time>2026-04-25T18:49:04.404Z</time></trkpt><trkpt lat="31.4973867" lon="-9.753345"><ele>6.25</ele><time>2026-04-25T18:49:05.404Z</time></trkpt><trkpt lat="31.4974183" lon="-9.7532183"><ele>6.5</ele><time>2026-04-25T18:49:06.404Z</time></trkpt><trkpt lat="31.4974483" lon="-9.75309"><ele>6.75</ele><time>2026-04-25T18:49:07.404Z</time></trkpt><trkpt lat="31.4974717" lon="-9.7529533"><ele>7.0</ele><time>2026-04-25T18:49:08.404Z</time></trkpt><trkpt lat="31.49749" lon="-9.7528133"><ele>7.0</ele><time>2026-04-25T18:49:09.404Z</time></trkpt><trkpt lat="31.4975067" lon="-9.75267"><ele>7.0</ele><time>2026-04-25T18:49:10.404Z</time></trkpt><trkpt lat="31.4975133" lon="-9.752525"><ele>7.0</ele><time>2026-04-25T18:49:11.404Z</time></trkpt><trkpt lat="31.4975167" lon="-9.75239"><ele>7.0</ele><time>2026-04-25T18:49:12.404Z</time></trkpt><trkpt lat="31.4975217" lon="-9.7522683"><ele>7.000000000000001</ele><time>2026-04-25T18:49:13.404Z</time></trkpt><trkpt lat="31.4975183" lon="-9.752155"><ele>7.0</ele><time>2026-04-25T18:49:14.404Z</time></trkpt><trkpt lat="31.4975033" lon="-9.7520583"><ele>7.0</ele><time>2026-04-25T18:49:15.404Z</time></trkpt><trkpt lat="31.4974883" lon="-9.7519683"><ele>7.0</ele><time>2026-04-25T18:49:16.404Z</time></trkpt><trkpt lat="31.49747" lon="-9.7518883"><ele>7.000000000000001</ele><time>2026-04-25T18:49:17.404Z</time></trkpt><trkpt lat="31.4974433" lon="-9.75182"><ele>7.0</ele><time>2026-04-25T18:49:18.404Z</time></trkpt><trkpt lat="31.4974117" lon="-9.751755"><ele>6.833333333333334</ele><time>2026-04-25T18:49:19.404Z</time></trkpt><trkpt lat="31.4973817" lon="-9.75169"><ele>6.666666666666667</ele><time>2026-04-25T18:49:20.404Z</time></trkpt><trkpt lat="31.49739" lon="-9.7515717"><ele>6.5</ele><time>2026-04-25T18:49:22.404Z</time></trkpt><trkpt lat="31.497465" lon="-9.7515233"><ele>6.333333333333334</ele><time>2026-04-25T18:49:24.404Z</time></trkpt><trkpt lat="31.4975783" lon="-9.7515633"><ele>6.166666666666667</ele><time>2026-04-25T18:49:26.404Z</time></trkpt><trkpt lat="31.4976383" lon="-9.7515967"><ele>6.0</ele><time>2026-04-25T18:49:27.404Z</time></trkpt><trkpt lat="31.4977067" lon="-9.7516283"><ele>6.0</ele><time>2026-04-25T18:49:28.404Z</time></trkpt><trkpt lat="31.4977767" lon="-9.7516617"><ele>6.0</ele><time>2026-04-25T18:49:29.404Z</time></trkpt><trkpt lat="31.497855" lon="-9.7516933"><ele>6.0</ele><time>2026-04-25T18:49:30.404Z</time></trkpt><trkpt lat="31.4979383" lon="-9.7517283"><ele>6.0</ele><time>2026-04-25T18:49:31.404Z</time></trkpt><trkpt lat="31.4980183" lon="-9.7517583"><ele>6.0</ele><time>2026-04-25T18:49:32.405Z</time></trkpt><trkpt lat="31.498085" lon="-9.7517883"><ele>6.0</ele><time>2026-04-25T18:49:33.404Z</time></trkpt><trkpt lat="31.49817" lon="-9.7518217"><ele>5.833333333333333</ele><time>2026-04-25T18:49:35.404Z</time></trkpt><trkpt lat="31.49825" lon="-9.7518483"><ele>5.666666666666667</ele><time>2026-04-25T18:49:39.404Z</time></trkpt><trkpt lat="31.4983183" lon="-9.7518567"><ele>5.5</ele><time>2026-04-25T18:49:42.404Z</time></trkpt><trkpt lat="31.4983933" lon="-9.7518767"><ele>5.333333333333334</ele><time>2026-04-25T18:50:26.404Z</time></trkpt><trkpt lat="31.49847" lon="-9.7519283"><ele>5.166666666666667</ele><time>2026-04-25T18:50:29.404Z</time></trkpt><trkpt lat="31.4983917" lon="-9.7519467"><ele>5.0</ele><time>2026-04-25T18:50:35.404Z</time></trkpt><trkpt lat="31.498315" lon="-9.75191"><ele>5.0</ele><time>2026-04-25T18:50:37.404Z</time></trkpt><trkpt lat="31.49825" lon="-9.7518883"><ele>5.0</ele><time>2026-04-25T18:50:39.404Z</time></trkpt><trkpt lat="31.4981683" lon="-9.7519533"><ele>5.0</ele><time>2026-04-25T18:50:42.404Z</time></trkpt><trkpt lat="31.4981367" lon="-9.7520317"><ele>5.0</ele><time>2026-04-25T18:50:44.404Z</time></trkpt><trkpt lat="31.498115" lon="-9.75211"><ele>5.0</ele><time>2026-04-25T18:50:46.404Z</time></trkpt><trkpt lat="31.4981261" lon="-9.7521833"><ele>5.0</ele><time>2026-04-25T19:06:02.455Z</time></trkpt><trkpt lat="31.498186" lon="-9.7522068"><ele>5.0</ele><time>2026-04-25T19:06:13.51Z</time></trkpt><trkpt lat="31.4982333" lon="-9.7522566"><ele>5.0</ele><time>2026-04-25T19:06:50.418Z</time></trkpt><trkpt lat="31.4982562" lon="-9.7523263"><ele>5.0</ele><time>2026-04-25T19:07:03.481Z</time></trkpt><trkpt lat="31.4983269" lon="-9.7523758"><ele>5.0</ele><time>2026-04-25T19:17:24.513Z</time></trkpt><trkpt lat="31.4983963" lon="-9.7524374"><ele>5.0</ele><time>2026-04-25T19:43:24.455Z</time></trkpt><trkpt lat="31.4983361" lon="-9.7523815"><ele>5.0</ele><time>2026-04-25T19:48:55.431Z</time></trkpt><trkpt lat="31.4982735" lon="-9.7523726"><ele>5.0</ele><time>2026-04-25T19:50:24.469Z</time></trkpt><trkpt lat="31.498226" lon="-9.7524213"><ele>5.0</ele><time>2026-04-25T19:57:11.475Z</time></trkpt><trkpt lat="31.4981752" lon="-9.7524654"><ele>5.0</ele><time>2026-04-25T20:03:12.469Z</time></trkpt><trkpt lat="31.4981595" lon="-9.7525371"><ele>5.0</ele><time>2026-04-25T20:04:24.424Z</time></trkpt><trkpt lat="31.4982093" lon="-9.752585"><ele>5.0</ele><time>2026-04-25T20:07:07.427Z</time></trkpt><trkpt lat="31.4981952" lon="-9.752513"><ele>5.0</ele><time>2026-04-25T20:11:06.502Z</time></trkpt><trkpt lat="31.4981538" lon="-9.7524566"><ele>5.0</ele><time>2026-04-25T20:11:59.463Z</time></trkpt><trkpt lat="31.4982026" lon="-9.7524091"><ele>5.0</ele><time>2026-04-25T20:16:43.458Z</time></trkpt><trkpt lat="31.4982899" lon="-9.7523907"><ele>5.0</ele><time>2026-04-25T20:27:05.509Z</time></trkpt><trkpt lat="31.4982368" lon="-9.7524305"><ele>5.0</ele><time>2026-04-25T20:45:31.426Z</time></trkpt><trkpt lat="31.4983075" lon="-9.752456"><ele>5.0</ele><time>2026-04-25T20:50:42.449Z</time></trkpt><trkpt lat="31.4984114" lon="-9.7524392"><ele>5.0</ele><time>2026-04-25T20:56:30.454Z</time></trkpt><trkpt lat="31.4984601" lon="-9.7524863"><ele>5.0</ele><time>2026-04-25T20:57:33.463Z</time></trkpt><trkpt lat="31.4984028" lon="-9.7524543"><ele>5.0</ele><time>2026-04-25T21:04:30.509Z</time></trkpt><trkpt lat="31.4983538" lon="-9.7524064"><ele>5.0</ele><time>2026-04-25T21:06:13.422Z</time></trkpt><trkpt lat="31.4982975" lon="-9.7524421"><ele>5.0</ele><time>2026-04-25T21:26:59.454Z</time></trkpt><trkpt lat="31.4982778" lon="-9.7523708"><ele>5.0</ele><time>2026-04-25T21:41:35.475Z</time></trkpt><trkpt lat="31.4982261" lon="-9.7523264"><ele>5.0</ele><time>2026-04-25T21:43:20.493Z</time></trkpt><trkpt lat="31.4983049" lon="-9.7523449"><ele>5.0</ele><time>2026-04-25T21:48:55.447Z</time></trkpt><trkpt lat="31.4983318" lon="-9.7524118"><ele>5.0</ele><time>2026-04-25T21:50:36.445Z</time></trkpt><trkpt lat="31.4982701" lon="-9.7524342"><ele>5.0</ele><time>2026-04-25T21:54:53.423Z</time></trkpt><trkpt lat="31.4982983" lon="-9.7523681"><ele>5.0</ele><time>2026-04-25T21:56:17.528Z</time></trkpt><trkpt lat="31.4982418" lon="-9.7523335"><ele>5.0</ele><time>2026-04-25T22:01:09.466Z</time></trkpt></trkseg><trkseg><trkpt lat="31.4981206" lon="-9.752285"><ele>5.0</ele><time>2026-04-26T11:04:10.483Z</time></trkpt><trkpt lat="31.4980679" lon="-9.7523544"><ele>5.0</ele><time>2026-04-26T11:04:13.412Z</time></trkpt><trkpt lat="31.4980284" lon="-9.7524284"><ele>5.0</ele><time>2026-04-26T11:04:16.416Z</time></trkpt><trkpt lat="31.4979567" lon="-9.7524817"><ele>5.0</ele><time>2026-04-26T11:05:38.413Z</time></trkpt><trkpt lat="31.4978967" lon="-9.7525333"><ele>5.0</ele><time>2026-04-26T11:05:41.412Z</time></trkpt><trkpt lat="31.4978517" lon="-9.75247"><ele>5.0</ele><time>2026-04-26T11:05:43.412Z</time></trkpt><trkpt lat="31.4978533" lon="-9.7523933"><ele>5.0</ele><time>2026-04-26T11:05:45.412Z</time></trkpt><trkpt lat="31.4979083" lon="-9.75235"><ele>5.0</ele><time>2026-04-26T11:05:48.412Z</time></trkpt><trkpt lat="31.4979733" lon="-9.7523617"><ele>5.0</ele><time>2026-04-26T11:05:51.412Z</time></trkpt><trkpt lat="31.49803" lon="-9.75229"><ele>5.0</ele><time>2026-04-26T11:05:55.412Z</time></trkpt><trkpt lat="31.4980733" lon="-9.7521833"><ele>5.0</ele><time>2026-04-26T11:05:57.412Z</time></trkpt><trkpt lat="31.4981067" lon="-9.7520933"><ele>5.0</ele><time>2026-04-26T11:05:59.412Z</time></trkpt><trkpt lat="31.49814" lon="-9.7520183"><ele>5.0</ele><time>2026-04-26T11:06:01.412Z</time></trkpt><trkpt lat="31.4981567" lon="-9.7518967"><ele>5.166666666666667</ele><time>2026-04-26T11:06:15.412Z</time></trkpt><trkpt lat="31.4981117" lon="-9.7518283"><ele>5.333333333333334</ele><time>2026-04-26T11:06:17.412Z</time></trkpt><trkpt lat="31.4979933" lon="-9.75178"><ele>5.5</ele><time>2026-04-26T11:06:19.412Z</time></trkpt><trkpt lat="31.4979167" lon="-9.7517683"><ele>5.666666666666667</ele><time>2026-04-26T11:06:20.413Z</time></trkpt><trkpt lat="31.4978483" lon="-9.7517517"><ele>5.833333333333333</ele><time>2026-04-26T11:06:21.412Z</time></trkpt><trkpt lat="31.4977833" lon="-9.751735"><ele>6.0</ele><time>2026-04-26T11:06:22.412Z</time></trkpt><trkpt lat="31.4976933" lon="-9.7517167"><ele>6.0</ele><time>2026-04-26T11:06:24.412Z</time></trkpt><trkpt lat="31.4975733" lon="-9.7517333"><ele>6.0</ele><time>2026-04-26T11:06:39.412Z</time></trkpt><trkpt lat="31.4975017" lon="-9.7517583"><ele>6.0</ele><time>2026-04-26T11:06:41.412Z</time></trkpt><trkpt lat="31.497405" lon="-9.7517417"><ele>6.0</ele><time>2026-04-26T11:06:43.412Z</time></trkpt><trkpt lat="31.4973383" lon="-9.7516383"><ele>6.0</ele><time>2026-04-26T11:06:45.412Z</time></trkpt><trkpt lat="31.4973217" lon="-9.7515633"><ele>6.0</ele><time>2026-04-26T11:06:46.412Z</time></trkpt><trkpt lat="31.497315" lon="-9.751485"><ele>6.0</ele><time>2026-04-26T11:06:47.412Z</time></trkpt><trkpt lat="31.4973067" lon="-9.7513917"><ele>6.0</ele><time>2026-04-26T11:06:48.412Z</time></trkpt><trkpt lat="31.4972867" lon="-9.7512917"><ele>6.0</ele><time>2026-04-26T11:06:49.412Z</time></trkpt><trkpt lat="31.4972517" lon="-9.7511833"><ele>6.0</ele><time>2026-04-26T11:06:50.412Z</time></trkpt><trkpt lat="31.4972183" lon="-9.751065"><ele>6.0</ele><time>2026-04-26T11:06:51.412Z</time></trkpt><trkpt lat="31.4971733" lon="-9.7509383"><ele>6.5</ele><time>2026-04-26T11:06:52.412Z</time></trkpt><trkpt lat="31.497125" lon="-9.7508033"><ele>7.0</ele><time>2026-04-26T11:06:53.412Z</time></trkpt><trkpt lat="31.4970683" lon="-9.7506733"><ele>7.5</ele><time>2026-04-26T11:06:54.412Z</time></trkpt><trkpt lat="31.4970167" lon="-9.7505467"><ele>8.0</ele><time>2026-04-26T11:06:55.412Z</time></trkpt><trkpt lat="31.49697" lon="-9.7504283"><ele>8.600000000000001</ele><time>2026-04-26T11:06:56.412Z</time></trkpt><trkpt lat="31.4969267" lon="-9.7503217"><ele>9.200000000000001</ele><time>2026-04-26T11:06:57.412Z</time></trkpt><trkpt lat="31.496885" lon="-9.7502167"><ele>9.8</ele><time>2026-04-26T11:06:58.412Z</time></trkpt><trkpt lat="31.4968467" lon="-9.75013"><ele>10.4</ele><time>2026-04-26T11:06:59.412Z</time></trkpt><trkpt lat="31.4968033" lon="-9.7500433"><ele>11.0</ele><time>2026-04-26T11:07:01.412Z</time></trkpt><trkpt lat="31.4967383" lon="-9.7499167"><ele>11.0</ele><time>2026-04-26T11:08:58.411Z</time></trkpt><trkpt lat="31.4967083" lon="-9.749815"><ele>11.0</ele><time>2026-04-26T11:08:59.411Z</time></trkpt><trkpt lat="31.4966733" lon="-9.7497"><ele>11.0</ele><time>2026-04-26T11:09:00.411Z</time></trkpt><trkpt lat="31.4966283" lon="-9.7495717"><ele>11.0</ele><time>2026-04-26T11:09:01.411Z</time></trkpt><trkpt lat="31.496585" lon="-9.7494333"><ele>11.0</ele><time>2026-04-26T11:09:02.411Z</time></trkpt><trkpt lat="31.496535" lon="-9.7492883"><ele>11.0</ele><time>2026-04-26T11:09:03.411Z</time></trkpt><trkpt lat="31.4964833" lon="-9.74913"><ele>11.0</ele><time>2026-04-26T11:09:04.411Z</time></trkpt><trkpt lat="31.4964267" lon="-9.74896"><ele>11.0</ele><time>2026-04-26T11:09:05.411Z</time></trkpt><trkpt lat="31.496365" lon="-9.74879"><ele>11.0</ele><time>2026-04-26T11:09:06.411Z</time></trkpt><trkpt lat="31.4963033" lon="-9.7486233"><ele>11.0</ele><time>2026-04-26T11:09:07.411Z</time></trkpt><trkpt lat="31.4962433" lon="-9.7484683"><ele>11.0</ele><time>2026-04-26T11:09:08.411Z</time></trkpt><trkpt lat="31.4961767" lon="-9.7483133"><ele>11.0</ele><time>2026-04-26T11:09:09.411Z</time></trkpt><trkpt lat="31.4961133" lon="-9.7481583"><ele>11.25</ele><time>2026-04-26T11:09:10.411Z</time></trkpt><trkpt lat="31.4960433" lon="-9.7480017"><ele>11.5</ele><time>2026-04-26T11:09:11.411Z</time></trkpt><trkpt lat="31.4959733" lon="-9.747855"><ele>11.75</ele><time>2026-04-26T11:09:12.411Z</time></trkpt><trkpt lat="31.49591" lon="-9.747725"><ele>12.0</ele><time>2026-04-26T11:09:13.411Z</time></trkpt><trkpt lat="31.495855" lon="-9.747615"><ele>12.8</ele><time>2026-04-26T11:09:14.411Z</time></trkpt><trkpt lat="31.4958033" lon="-9.74751"><ele>13.6</ele><time>2026-04-26T11:09:15.411Z</time></trkpt><trkpt lat="31.495745" lon="-9.7474183"><ele>14.400000000000002</ele><time>2026-04-26T11:09:16.411Z</time></trkpt><trkpt lat="31.4956833" lon="-9.747335"><ele>15.200000000000001</ele><time>2026-04-26T11:09:17.411Z</time></trkpt><trkpt lat="31.4956217" lon="-9.74726"><ele>16.0</ele><time>2026-04-26T11:09:18.411Z</time></trkpt><trkpt lat="31.4955617" lon="-9.7471933"><ele>16.0</ele><time>2026-04-26T11:09:19.411Z</time></trkpt><trkpt lat="31.49551" lon="-9.7471317"><ele>15.999999999999998</ele><time>2026-04-26T11:09:20.411Z</time></trkpt><trkpt lat="31.4954633" lon="-9.7470733"><ele>16.0</ele><time>2026-04-26T11:09:21.411Z</time></trkpt><trkpt lat="31.495415" lon="-9.7470233"><ele>16.0</ele><time>2026-04-26T11:09:22.411Z</time></trkpt><trkpt lat="31.495355" lon="-9.746975"><ele>15.999999999999998</ele><time>2026-04-26T11:09:23.411Z</time></trkpt><trkpt lat="31.4952917" lon="-9.74693"><ele>16.0</ele><time>2026-04-26T11:09:24.411Z</time></trkpt><trkpt lat="31.4952267" lon="-9.7468833"><ele>16.0</ele><time>2026-04-26T11:09:25.411Z</time></trkpt><trkpt lat="31.495155" lon="-9.7468283"><ele>17.4</ele><time>2026-04-26T11:09:26.412Z</time></trkpt><trkpt lat="31.4950733" lon="-9.7467733"><ele>18.8</ele><time>2026-04-26T11:09:27.411Z</time></trkpt><trkpt lat="31.4949883" lon="-9.7467133"><ele>20.2</ele><time>2026-04-26T11:09:28.411Z</time></trkpt><trkpt lat="31.4948967" lon="-9.7466533"><ele>21.599999999999998</ele><time>2026-04-26T11:09:29.411Z</time></trkpt><trkpt lat="31.494795" lon="-9.7465967"><ele>23.0</ele><time>2026-04-26T11:09:30.411Z</time></trkpt><trkpt lat="31.494685" lon="-9.7465467"><ele>23.0</ele><time>2026-04-26T11:09:31.411Z</time></trkpt><trkpt lat="31.4945667" lon="-9.7464933"><ele>23.0</ele><time>2026-04-26T11:09:32.411Z</time></trkpt><trkpt lat="31.4944433" lon="-9.746445"><ele>23.0</ele><time>2026-04-26T11:09:33.411Z</time></trkpt><trkpt lat="31.4943167" lon="-9.7464033"><ele>23.0</ele><time>2026-04-26T11:09:34.411Z</time></trkpt><trkpt lat="31.494185" lon="-9.746365"><ele>23.0</ele><time>2026-04-26T11:09:35.411Z</time></trkpt><trkpt lat="31.4940533" lon="-9.7463217"><ele>23.0</ele><time>2026-04-26T11:09:36.411Z</time></trkpt><trkpt lat="31.4939133" lon="-9.7462817"><ele>23.0</ele><time>2026-04-26T11:09:37.411Z</time></trkpt><trkpt lat="31.4937833" lon="-9.7462383"><ele>23.0</ele><time>2026-04-26T11:09:38.411Z</time></trkpt><trkpt lat="31.4936483" lon="-9.746195"><ele>23.25</ele><time>2026-04-26T11:09:39.411Z</time></trkpt><trkpt lat="31.493515" lon="-9.7461567"><ele>23.5</ele><time>2026-04-26T11:09:40.411Z</time></trkpt><trkpt lat="31.4933817" lon="-9.746115"><ele>23.75</ele><time>2026-04-26T11:09:41.411Z</time></trkpt><trkpt lat="31.4932517" lon="-9.7460683"><ele>24.0</ele><time>2026-04-26T11:09:42.411Z</time></trkpt><trkpt lat="31.4931217" lon="-9.7460183"><ele>24.5</ele><time>2026-04-26T11:09:43.411Z</time></trkpt><trkpt lat="31.4929917" lon="-9.7459617"><ele>25.0</ele><time>2026-04-26T11:09:44.411Z</time></trkpt><trkpt lat="31.4928717" lon="-9.7458967"><ele>25.5</ele><time>2026-04-26T11:09:45.411Z</time></trkpt><trkpt lat="31.4927483" lon="-9.74583"><ele>26.0</ele><time>2026-04-26T11:09:46.411Z</time></trkpt><trkpt lat="31.4926267" lon="-9.745755"><ele>26.0</ele><time>2026-04-26T11:09:47.411Z</time></trkpt><trkpt lat="31.492505" lon="-9.7456667"><ele>26.0</ele><time>2026-04-26T11:09:48.411Z</time></trkpt><trkpt lat="31.4923817" lon="-9.7455733"><ele>26.0</ele><time>2026-04-26T11:09:49.411Z</time></trkpt><trkpt lat="31.49226" lon="-9.74547"><ele>26.0</ele><time>2026-04-26T11:09:50.411Z</time></trkpt><trkpt lat="31.4921367" lon="-9.745355"><ele>27.0</ele><time>2026-04-26T11:09:51.411Z</time></trkpt><trkpt lat="31.492015" lon="-9.7452333"><ele>28.0</ele><time>2026-04-26T11:09:52.411Z</time></trkpt><trkpt lat="31.4918917" lon="-9.74511"><ele>29.0</ele><time>2026-04-26T11:09:53.411Z</time></trkpt><trkpt lat="31.4917583" lon="-9.74498"><ele>29.0</ele><time>2026-04-26T11:09:54.411Z</time></trkpt><trkpt lat="31.4916267" lon="-9.744845"><ele>29.0</ele><time>2026-04-26T11:09:55.411Z</time></trkpt><trkpt lat="31.4915033" lon="-9.744705"><ele>29.0</ele><time>2026-04-26T11:09:56.411Z</time></trkpt><trkpt lat="31.4913783" lon="-9.74455"><ele>29.0</ele><time>2026-04-26T11:09:57.411Z</time></trkpt><trkpt lat="31.4912583" lon="-9.744395"><ele>29.0</ele><time>2026-04-26T11:09:58.411Z</time></trkpt><trkpt lat="31.4911483" lon="-9.7442333"><ele>29.0</ele><time>2026-04-26T11:09:59.411Z</time></trkpt><trkpt lat="31.49104" lon="-9.74405"><ele>30.666666666666664</ele><time>2026-04-26T11:10:00.411Z</time></trkpt><trkpt lat="31.4909383" lon="-9.7438583"><ele>32.333333333333336</ele><time>2026-04-26T11:10:01.411Z</time></trkpt><trkpt lat="31.490845" lon="-9.7436533"><ele>34.0</ele><time>2026-04-26T11:10:02.411Z</time></trkpt><trkpt lat="31.4907567" lon="-9.743455"><ele>36.0</ele><time>2026-04-26T11:10:03.411Z</time></trkpt><trkpt lat="31.4906733" lon="-9.7432483"><ele>38.0</ele><time>2026-04-26T11:10:04.411Z</time></trkpt><trkpt lat="31.490595" lon="-9.7430467"><ele>40.0</ele><time>2026-04-26T11:10:05.411Z</time></trkpt><trkpt lat="31.49052" lon="-9.7428383"><ele>41.333333333333336</ele><time>2026-04-26T11:10:06.411Z</time></trkpt><trkpt lat="31.4904567" lon="-9.7426267"><ele>42.666666666666664</ele><time>2026-04-26T11:10:07.412Z</time></trkpt><trkpt lat="31.4904033" lon="-9.74241"><ele>44.0</ele><time>2026-04-26T11:10:08.411Z</time></trkpt><trkpt lat="31.4903683" lon="-9.7421917"><ele>44.0</ele><time>2026-04-26T11:10:09.411Z</time></trkpt><trkpt lat="31.4903467" lon="-9.74197"><ele>44.0</ele><time>2026-04-26T11:10:10.411Z</time></trkpt><trkpt lat="31.490335" lon="-9.7417467"><ele>44.0</ele><time>2026-04-26T11:10:11.411Z</time></trkpt><trkpt lat="31.4903383" lon="-9.7415233"><ele>44.666666666666664</ele><time>2026-04-26T11:10:12.411Z</time></trkpt><trkpt lat="31.49036" lon="-9.741295"><ele>45.333333333333336</ele><time>2026-04-26T11:10:13.411Z</time></trkpt><trkpt lat="31.4903917" lon="-9.741065"><ele>46.0</ele><time>2026-04-26T11:10:14.412Z</time></trkpt><trkpt lat="31.4904417" lon="-9.7408383"><ele>47.66666666666667</ele><time>2026-04-26T11:10:15.411Z</time></trkpt><trkpt lat="31.490505" lon="-9.74062"><ele>49.333333333333336</ele><time>2026-04-26T11:10:16.411Z</time></trkpt><trkpt lat="31.4905717" lon="-9.7404067"><ele>51.0</ele><time>2026-04-26T11:10:17.411Z</time></trkpt><trkpt lat="31.49065" lon="-9.7402083"><ele>52.33333333333333</ele><time>2026-04-26T11:10:18.411Z</time></trkpt><trkpt lat="31.49074" lon="-9.740025"><ele>53.666666666666664</ele><time>2026-04-26T11:10:19.411Z</time></trkpt><trkpt lat="31.4908467" lon="-9.73985"><ele>55.0</ele><time>2026-04-26T11:10:20.411Z</time></trkpt><trkpt lat="31.4909617" lon="-9.739695"><ele>55.0</ele><time>2026-04-26T11:10:21.411Z</time></trkpt><trkpt lat="31.4910833" lon="-9.73955"><ele>55.0</ele><time>2026-04-26T11:10:22.411Z</time></trkpt><trkpt lat="31.4912167" lon="-9.7394"><ele>55.0</ele><time>2026-04-26T11:10:23.411Z</time></trkpt><trkpt lat="31.49135" lon="-9.739245"><ele>55.33333333333333</ele><time>2026-04-26T11:10:24.411Z</time></trkpt><trkpt lat="31.4914817" lon="-9.7390917"><ele>55.66666666666667</ele><time>2026-04-26T11:10:25.412Z</time></trkpt><trkpt lat="31.49161" lon="-9.73894"><ele>56.0</ele><time>2026-04-26T11:10:26.411Z</time></trkpt><trkpt lat="31.491745" lon="-9.7387917"><ele>56.0</ele><time>2026-04-26T11:10:27.411Z</time></trkpt><trkpt lat="31.4918767" lon="-9.7386433"><ele>56.0</ele><time>2026-04-26T11:10:28.411Z</time></trkpt><trkpt lat="31.49201" lon="-9.7384983"><ele>56.0</ele><time>2026-04-26T11:10:29.411Z</time></trkpt><trkpt lat="31.492145" lon="-9.738355"><ele>56.66666666666667</ele><time>2026-04-26T11:10:30.411Z</time></trkpt><trkpt lat="31.4922767" lon="-9.73821"><ele>57.33333333333333</ele><time>2026-04-26T11:10:31.411Z</time></trkpt><trkpt lat="31.4924083" lon="-9.7380683"><ele>58.0</ele><time>2026-04-26T11:10:32.411Z</time></trkpt><trkpt lat="31.4925367" lon="-9.7379217"><ele>58.0</ele><time>2026-04-26T11:10:33.411Z</time></trkpt><trkpt lat="31.49267" lon="-9.7377817"><ele>58.0</ele><time>2026-04-26T11:10:34.411Z</time></trkpt><trkpt lat="31.4928" lon="-9.737635"><ele>58.0</ele><time>2026-04-26T11:10:35.411Z</time></trkpt><trkpt lat="31.492925" lon="-9.7374967"><ele>58.33333333333333</ele><time>2026-04-26T11:10:36.411Z</time></trkpt><trkpt lat="31.4930483" lon="-9.7373567"><ele>58.66666666666667</ele><time>2026-04-26T11:10:37.411Z</time></trkpt><trkpt lat="31.493175" lon="-9.73722"><ele>59.0</ele><time>2026-04-26T11:10:38.411Z</time></trkpt><trkpt lat="31.4933017" lon="-9.7370817"><ele>59.0</ele><time>2026-04-26T11:10:39.411Z</time></trkpt><trkpt lat="31.493425" lon="-9.7369433"><ele>59.0</ele><time>2026-04-26T11:10:40.411Z</time></trkpt><trkpt lat="31.4935517" lon="-9.7368067"><ele>59.0</ele><time>2026-04-26T11:10:41.411Z</time></trkpt><trkpt lat="31.4936767" lon="-9.7366717"><ele>59.66666666666667</ele><time>2026-04-26T11:10:42.411Z</time></trkpt><trkpt lat="31.4938" lon="-9.7365367"><ele>60.33333333333333</ele><time>2026-04-26T11:10:43.411Z</time></trkpt><trkpt lat="31.4939183" lon="-9.7364"><ele>61.0</ele><time>2026-04-26T11:10:44.411Z</time></trkpt><trkpt lat="31.49404" lon="-9.736265"><ele>61.0</ele><time>2026-04-26T11:10:45.411Z</time></trkpt><trkpt lat="31.494165" lon="-9.736125"><ele>61.0</ele><time>2026-04-26T11:10:46.411Z</time></trkpt><trkpt lat="31.4942933" lon="-9.7359917"><ele>61.0</ele><time>2026-04-26T11:10:47.411Z</time></trkpt><trkpt lat="31.4944133" lon="-9.735855"><ele>62.33333333333333</ele><time>2026-04-26T11:10:48.411Z</time></trkpt><trkpt lat="31.4945367" lon="-9.7357183"><ele>63.66666666666667</ele><time>2026-04-26T11:10:49.411Z</time></trkpt><trkpt lat="31.4946583" lon="-9.7355817"><ele>65.0</ele><time>2026-04-26T11:10:50.411Z</time></trkpt><trkpt lat="31.49478" lon="-9.735445"><ele>65.0</ele><time>2026-04-26T11:10:51.411Z</time></trkpt><trkpt lat="31.4949" lon="-9.735305"><ele>65.0</ele><time>2026-04-26T11:10:52.411Z</time></trkpt><trkpt lat="31.4950167" lon="-9.7351683"><ele>65.0</ele><time>2026-04-26T11:10:53.411Z</time></trkpt><trkpt lat="31.4951383" lon="-9.7350367"><ele>66.33333333333334</ele><time>2026-04-26T11:10:54.411Z</time></trkpt><trkpt lat="31.4952617" lon="-9.7349017"><ele>67.66666666666667</ele><time>2026-04-26T11:10:55.411Z</time></trkpt><trkpt lat="31.49538" lon="-9.734765"><ele>69.0</ele><time>2026-04-26T11:10:56.411Z</time></trkpt><trkpt lat="31.4955017" lon="-9.7346317"><ele>69.0</ele><time>2026-04-26T11:10:57.411Z</time></trkpt><trkpt lat="31.4956183" lon="-9.7344983"><ele>69.0</ele><time>2026-04-26T11:10:58.411Z</time></trkpt><trkpt lat="31.495735" lon="-9.7343617"><ele>69.0</ele><time>2026-04-26T11:10:59.411Z</time></trkpt><trkpt lat="31.4958533" lon="-9.73423"><ele>72.66666666666667</ele><time>2026-04-26T11:11:00.411Z</time></trkpt><trkpt lat="31.4959683" lon="-9.7340967"><ele>76.33333333333334</ele><time>2026-04-26T11:11:01.411Z</time></trkpt><trkpt lat="31.49609" lon="-9.73397"><ele>80.0</ele><time>2026-04-26T11:11:02.411Z</time></trkpt><trkpt lat="31.4962117" lon="-9.73384"><ele>80.33333333333334</ele><time>2026-04-26T11:11:03.411Z</time></trkpt><trkpt lat="31.49633" lon="-9.7337117"><ele>80.66666666666667</ele><time>2026-04-26T11:11:04.411Z</time></trkpt><trkpt lat="31.4964467" lon="-9.7335817"><ele>81.0</ele><time>2026-04-26T11:11:05.411Z</time></trkpt><trkpt lat="31.4965633" lon="-9.733445"><ele>81.0</ele><time>2026-04-26T11:11:06.411Z</time></trkpt><trkpt lat="31.4966767" lon="-9.73331"><ele>81.0</ele><time>2026-04-26T11:11:07.411Z</time></trkpt><trkpt lat="31.4967883" lon="-9.7331617"><ele>81.0</ele><time>2026-04-26T11:11:08.412Z</time></trkpt><trkpt lat="31.4968883" lon="-9.7330067"><ele>81.0</ele><time>2026-04-26T11:11:09.411Z</time></trkpt><trkpt lat="31.496975" lon="-9.7328467"><ele>81.0</ele><time>2026-04-26T11:11:10.412Z</time></trkpt><trkpt lat="31.4970533" lon="-9.7326833"><ele>81.0</ele><time>2026-04-26T11:11:11.412Z</time></trkpt><trkpt lat="31.4971267" lon="-9.7325067"><ele>81.66666666666667</ele><time>2026-04-26T11:11:12.411Z</time></trkpt><trkpt lat="31.497195" lon="-9.732325"><ele>82.33333333333334</ele><time>2026-04-26T11:11:13.411Z</time></trkpt><trkpt lat="31.4972517" lon="-9.7321333"><ele>83.0</ele><time>2026-04-26T11:11:14.411Z</time></trkpt><trkpt lat="31.497295" lon="-9.73194"><ele>84.0</ele><time>2026-04-26T11:11:15.411Z</time></trkpt><trkpt lat="31.4973317" lon="-9.731735"><ele>85.0</ele><time>2026-04-26T11:11:16.411Z</time></trkpt><trkpt lat="31.4973517" lon="-9.731525"><ele>86.0</ele><time>2026-04-26T11:11:17.411Z</time></trkpt><trkpt lat="31.4973667" lon="-9.7313067"><ele>86.0</ele><time>2026-04-26T11:11:18.411Z</time></trkpt><trkpt lat="31.4973617" lon="-9.7310867"><ele>86.0</ele><time>2026-04-26T11:11:19.411Z</time></trkpt><trkpt lat="31.4973517" lon="-9.7308667"><ele>86.0</ele><time>2026-04-26T11:11:20.411Z</time></trkpt><trkpt lat="31.4973167" lon="-9.7306517"><ele>86.66666666666667</ele><time>2026-04-26T11:11:21.411Z</time></trkpt><trkpt lat="31.4972733" lon="-9.73044"><ele>87.33333333333333</ele><time>2026-04-26T11:11:22.411Z</time></trkpt><trkpt lat="31.4972167" lon="-9.7302283"><ele>88.0</ele><time>2026-04-26T11:11:23.411Z</time></trkpt><trkpt lat="31.497155" lon="-9.7300233"><ele>89.66666666666666</ele><time>2026-04-26T11:11:24.411Z</time></trkpt><trkpt lat="31.4970767" lon="-9.7298267"><ele>91.33333333333333</ele><time>2026-04-26T11:11:25.411Z</time></trkpt><trkpt lat="31.4969883" lon="-9.7296383"><ele>93.0</ele><time>2026-04-26T11:11:26.411Z</time></trkpt><trkpt lat="31.4968883" lon="-9.7294617"><ele>93.0</ele><time>2026-04-26T11:11:27.411Z</time></trkpt><trkpt lat="31.496775" lon="-9.7292917"><ele>93.0</ele><time>2026-04-26T11:11:28.411Z</time></trkpt><trkpt lat="31.49665" lon="-9.72912"><ele>93.0</ele><time>2026-04-26T11:11:29.411Z</time></trkpt><trkpt lat="31.4965217" lon="-9.7289467"><ele>93.0</ele><time>2026-04-26T11:11:30.412Z</time></trkpt><trkpt lat="31.4963867" lon="-9.7287833"><ele>93.0</ele><time>2026-04-26T11:11:31.411Z</time></trkpt><trkpt lat="31.4962567" lon="-9.72862"><ele>93.0</ele><time>2026-04-26T11:11:32.411Z</time></trkpt><trkpt lat="31.4961217" lon="-9.728455"><ele>90.66666666666667</ele><time>2026-04-26T11:11:33.411Z</time></trkpt><trkpt lat="31.4959817" lon="-9.728285"><ele>88.33333333333334</ele><time>2026-04-26T11:11:34.411Z</time></trkpt><trkpt lat="31.495845" lon="-9.7281033"><ele>86.0</ele><time>2026-04-26T11:11:35.411Z</time></trkpt><trkpt lat="31.4956983" lon="-9.7279233"><ele>86.0</ele><time>2026-04-26T11:11:36.411Z</time></trkpt><trkpt lat="31.4955517" lon="-9.7277417"><ele>86.0</ele><time>2026-04-26T11:11:37.411Z</time></trkpt><trkpt lat="31.49541" lon="-9.72757"><ele>86.0</ele><time>2026-04-26T11:11:38.411Z</time></trkpt><trkpt lat="31.49526" lon="-9.7273933"><ele>83.66666666666667</ele><time>2026-04-26T11:11:39.411Z</time></trkpt><trkpt lat="31.495115" lon="-9.727215"><ele>81.33333333333333</ele><time>2026-04-26T11:11:40.411Z</time></trkpt><trkpt lat="31.4949733" lon="-9.72704"><ele>79.0</ele><time>2026-04-26T11:11:41.412Z</time></trkpt><trkpt lat="31.4948333" lon="-9.7268667"><ele>78.33333333333333</ele><time>2026-04-26T11:11:42.411Z</time></trkpt><trkpt lat="31.4947" lon="-9.72669"><ele>77.66666666666667</ele><time>2026-04-26T11:11:43.411Z</time></trkpt><trkpt lat="31.4945717" lon="-9.7265233"><ele>77.0</ele><time>2026-04-26T11:11:44.411Z</time></trkpt><trkpt lat="31.494435" lon="-9.7263617"><ele>76.66666666666667</ele><time>2026-04-26T11:11:45.411Z</time></trkpt><trkpt lat="31.494305" lon="-9.7261933"><ele>76.33333333333333</ele><time>2026-04-26T11:11:46.411Z</time></trkpt><trkpt lat="31.494185" lon="-9.7260167"><ele>76.0</ele><time>2026-04-26T11:11:47.411Z</time></trkpt><trkpt lat="31.4940733" lon="-9.7258267"><ele>75.66666666666666</ele><time>2026-04-26T11:11:48.411Z</time></trkpt><trkpt lat="31.4939733" lon="-9.72563"><ele>75.33333333333333</ele><time>2026-04-26T11:11:49.411Z</time></trkpt><trkpt lat="31.4938717" lon="-9.72543"><ele>75.0</ele><time>2026-04-26T11:11:50.411Z</time></trkpt><trkpt lat="31.493775" lon="-9.72523"><ele>74.66666666666667</ele><time>2026-04-26T11:11:51.411Z</time></trkpt><trkpt lat="31.4936833" lon="-9.7250317"><ele>74.33333333333334</ele><time>2026-04-26T11:11:52.411Z</time></trkpt><trkpt lat="31.493595" lon="-9.7248333"><ele>74.0</ele><time>2026-04-26T11:11:53.412Z</time></trkpt><trkpt lat="31.4935033" lon="-9.7246383"><ele>74.0</ele><time>2026-04-26T11:11:54.411Z</time></trkpt><trkpt lat="31.4934133" lon="-9.7244433"><ele>74.0</ele><time>2026-04-26T11:11:55.411Z</time></trkpt><trkpt lat="31.4933233" lon="-9.7242467"><ele>74.0</ele><time>2026-04-26T11:11:56.411Z</time></trkpt><trkpt lat="31.4932283" lon="-9.72404"><ele>73.66666666666667</ele><time>2026-04-26T11:11:57.411Z</time></trkpt><trkpt lat="31.49313" lon="-9.72383"><ele>73.33333333333333</ele><time>2026-04-26T11:11:58.411Z</time></trkpt><trkpt lat="31.4930333" lon="-9.7236217"><ele>73.0</ele><time>2026-04-26T11:11:59.412Z</time></trkpt><trkpt lat="31.4929383" lon="-9.72341"><ele>74.66666666666666</ele><time>2026-04-26T11:12:00.411Z</time></trkpt><trkpt lat="31.4928517" lon="-9.7231967"><ele>76.33333333333333</ele><time>2026-04-26T11:12:01.411Z</time></trkpt><trkpt lat="31.49278" lon="-9.72298"><ele>78.0</ele><time>2026-04-26T11:12:02.411Z</time></trkpt><trkpt lat="31.4927167" lon="-9.7227567"><ele>77.66666666666667</ele><time>2026-04-26T11:12:03.411Z</time></trkpt><trkpt lat="31.492665" lon="-9.7225283"><ele>77.33333333333334</ele><time>2026-04-26T11:12:04.411Z</time></trkpt><trkpt lat="31.4926267" lon="-9.7222983"><ele>77.0</ele><time>2026-04-26T11:12:05.411Z</time></trkpt><trkpt lat="31.4925967" lon="-9.7220617"><ele>77.66666666666667</ele><time>2026-04-26T11:12:06.411Z</time></trkpt><trkpt lat="31.4925783" lon="-9.7218233"><ele>78.33333333333333</ele><time>2026-04-26T11:12:07.411Z</time></trkpt><trkpt lat="31.492555" lon="-9.7215883"><ele>79.0</ele><time>2026-04-26T11:12:08.411Z</time></trkpt><trkpt lat="31.4925383" lon="-9.7213533"><ele>79.0</ele><time>2026-04-26T11:12:09.411Z</time></trkpt><trkpt lat="31.4925233" lon="-9.72112"><ele>79.0</ele><time>2026-04-26T11:12:10.411Z</time></trkpt><trkpt lat="31.4925033" lon="-9.72088"><ele>79.0</ele><time>2026-04-26T11:12:11.411Z</time></trkpt><trkpt lat="31.49248" lon="-9.7206383"><ele>78.66666666666666</ele><time>2026-04-26T11:12:12.411Z</time></trkpt><trkpt lat="31.4924583" lon="-9.7204067"><ele>78.33333333333333</ele><time>2026-04-26T11:12:13.411Z</time></trkpt><trkpt lat="31.49244" lon="-9.7201733"><ele>78.0</ele><time>2026-04-26T11:12:14.412Z</time></trkpt><trkpt lat="31.4924183" lon="-9.7199417"><ele>78.66666666666667</ele><time>2026-04-26T11:12:15.412Z</time></trkpt><trkpt lat="31.4924033" lon="-9.71971"><ele>79.33333333333334</ele><time>2026-04-26T11:12:16.411Z</time></trkpt><trkpt lat="31.4923817" lon="-9.7194783"><ele>80.0</ele><time>2026-04-26T11:12:17.412Z</time></trkpt><trkpt lat="31.4923683" lon="-9.7192467"><ele>80.33333333333334</ele><time>2026-04-26T11:12:18.411Z</time></trkpt><trkpt lat="31.492355" lon="-9.7190167"><ele>80.66666666666667</ele><time>2026-04-26T11:12:19.411Z</time></trkpt><trkpt lat="31.4923483" lon="-9.7187833"><ele>81.0</ele><time>2026-04-26T11:12:20.411Z</time></trkpt><trkpt lat="31.4923483" lon="-9.7185483"><ele>81.66666666666667</ele><time>2026-04-26T11:12:21.411Z</time></trkpt><trkpt lat="31.4923633" lon="-9.7183117"><ele>82.33333333333334</ele><time>2026-04-26T11:12:22.411Z</time></trkpt><trkpt lat="31.4923883" lon="-9.7180717"><ele>83.0</ele><time>2026-04-26T11:12:23.411Z</time></trkpt><trkpt lat="31.4924117" lon="-9.7178283"><ele>84.0</ele><time>2026-04-26T11:12:24.411Z</time></trkpt><trkpt lat="31.4924383" lon="-9.7175883"><ele>85.0</ele><time>2026-04-26T11:12:25.411Z</time></trkpt><trkpt lat="31.4924633" lon="-9.7173417"><ele>86.0</ele><time>2026-04-26T11:12:26.411Z</time></trkpt><trkpt lat="31.4924867" lon="-9.7170917"><ele>86.33333333333334</ele><time>2026-04-26T11:12:27.411Z</time></trkpt><trkpt lat="31.492515" lon="-9.7168417"><ele>86.66666666666667</ele><time>2026-04-26T11:12:28.411Z</time></trkpt><trkpt lat="31.49254" lon="-9.7165867"><ele>87.0</ele><time>2026-04-26T11:12:29.411Z</time></trkpt><trkpt lat="31.4925683" lon="-9.7163317"><ele>88.0</ele><time>2026-04-26T11:12:30.411Z</time></trkpt><trkpt lat="31.4926" lon="-9.7160683"><ele>89.0</ele><time>2026-04-26T11:12:31.411Z</time></trkpt><trkpt lat="31.4926483" lon="-9.7158133"><ele>89.0</ele><time>2026-04-26T11:12:32.411Z</time></trkpt><trkpt lat="31.4927083" lon="-9.7155667"><ele>89.0</ele><time>2026-04-26T11:12:33.411Z</time></trkpt><trkpt lat="31.4927717" lon="-9.715315"><ele>89.0</ele><time>2026-04-26T11:12:34.411Z</time></trkpt><trkpt lat="31.4928433" lon="-9.7150667"><ele>89.0</ele><time>2026-04-26T11:12:35.411Z</time></trkpt><trkpt lat="31.492915" lon="-9.7148283"><ele>89.0</ele><time>2026-04-26T11:12:36.411Z</time></trkpt><trkpt lat="31.4929867" lon="-9.71459"><ele>89.0</ele><time>2026-04-26T11:12:37.411Z</time></trkpt><trkpt lat="31.4930567" lon="-9.7143533"><ele>88.66666666666667</ele><time>2026-04-26T11:12:38.411Z</time></trkpt><trkpt lat="31.4931317" lon="-9.7141183"><ele>88.33333333333333</ele><time>2026-04-26T11:12:39.411Z</time></trkpt><trkpt lat="31.4932083" lon="-9.7138833"><ele>88.0</ele><time>2026-04-26T11:12:40.411Z</time></trkpt><trkpt lat="31.4932817" lon="-9.7136517"><ele>87.66666666666666</ele><time>2026-04-26T11:12:41.411Z</time></trkpt><trkpt lat="31.4933567" lon="-9.71342"><ele>87.33333333333333</ele><time>2026-04-26T11:12:42.411Z</time></trkpt><trkpt lat="31.4934317" lon="-9.713195"><ele>87.0</ele><time>2026-04-26T11:12:43.411Z</time></trkpt><trkpt lat="31.493505" lon="-9.7129683"><ele>87.66666666666667</ele><time>2026-04-26T11:12:44.411Z</time></trkpt><trkpt lat="31.4935783" lon="-9.7127367"><ele>88.33333333333334</ele><time>2026-04-26T11:12:45.411Z</time></trkpt><trkpt lat="31.4936533" lon="-9.7125067"><ele>89.0</ele><time>2026-04-26T11:12:46.411Z</time></trkpt><trkpt lat="31.49373" lon="-9.7122717"><ele>89.66666666666667</ele><time>2026-04-26T11:12:47.411Z</time></trkpt><trkpt lat="31.4938067" lon="-9.7120367"><ele>90.33333333333333</ele><time>2026-04-26T11:12:48.411Z</time></trkpt><trkpt lat="31.49388" lon="-9.7118033"><ele>91.0</ele><time>2026-04-26T11:12:49.411Z</time></trkpt><trkpt lat="31.4939533" lon="-9.7115683"><ele>91.0</ele><time>2026-04-26T11:12:50.411Z</time></trkpt><trkpt lat="31.4940267" lon="-9.7113367"><ele>91.0</ele><time>2026-04-26T11:12:51.411Z</time></trkpt><trkpt lat="31.4941033" lon="-9.7111"><ele>91.0</ele><time>2026-04-26T11:12:52.411Z</time></trkpt><trkpt lat="31.4941833" lon="-9.71087"><ele>91.66666666666666</ele><time>2026-04-26T11:12:53.411Z</time></trkpt><trkpt lat="31.494255" lon="-9.7106433"><ele>92.33333333333333</ele><time>2026-04-26T11:12:54.411Z</time></trkpt><trkpt lat="31.49433" lon="-9.71042"><ele>93.0</ele><time>2026-04-26T11:12:55.411Z</time></trkpt><trkpt lat="31.4943983" lon="-9.71019"><ele>93.0</ele><time>2026-04-26T11:12:56.411Z</time></trkpt><trkpt lat="31.4944733" lon="-9.7099667"><ele>93.0</ele><time>2026-04-26T11:12:57.412Z</time></trkpt><trkpt lat="31.494545" lon="-9.7097483"><ele>93.0</ele><time>2026-04-26T11:12:58.411Z</time></trkpt><trkpt lat="31.49462" lon="-9.7095217"><ele>92.0</ele><time>2026-04-26T11:12:59.411Z</time></trkpt><trkpt lat="31.4946883" lon="-9.7092933"><ele>91.0</ele><time>2026-04-26T11:13:00.411Z</time></trkpt><trkpt lat="31.4947583" lon="-9.7090717"><ele>90.0</ele><time>2026-04-26T11:13:01.411Z</time></trkpt><trkpt lat="31.49483" lon="-9.7088467"><ele>90.0</ele><time>2026-04-26T11:13:02.411Z</time></trkpt><trkpt lat="31.4949067" lon="-9.7086167"><ele>90.0</ele><time>2026-04-26T11:13:03.411Z</time></trkpt><trkpt lat="31.4949833" lon="-9.7083817"><ele>90.0</ele><time>2026-04-26T11:13:04.411Z</time></trkpt><trkpt lat="31.495065" lon="-9.70814"><ele>90.5</ele><time>2026-04-26T11:13:05.411Z</time></trkpt><trkpt lat="31.4951467" lon="-9.707895"><ele>91.0</ele><time>2026-04-26T11:13:06.411Z</time></trkpt><trkpt lat="31.49523" lon="-9.707645"><ele>90.33333333333333</ele><time>2026-04-26T11:13:07.411Z</time></trkpt><trkpt lat="31.49531" lon="-9.707405"><ele>89.66666666666667</ele><time>2026-04-26T11:13:08.411Z</time></trkpt><trkpt lat="31.4953883" lon="-9.7071683"><ele>89.0</ele><time>2026-04-26T11:13:09.411Z</time></trkpt><trkpt lat="31.49547" lon="-9.7069283"><ele>89.0</ele><time>2026-04-26T11:13:10.411Z</time></trkpt><trkpt lat="31.495555" lon="-9.706695"><ele>89.0</ele><time>2026-04-26T11:13:11.411Z</time></trkpt><trkpt lat="31.4956367" lon="-9.7064583"><ele>89.0</ele><time>2026-04-26T11:13:12.411Z</time></trkpt><trkpt lat="31.4957183" lon="-9.7062233"><ele>89.0</ele><time>2026-04-26T11:13:13.411Z</time></trkpt><trkpt lat="31.4957983" lon="-9.70599"><ele>89.0</ele><time>2026-04-26T11:13:14.411Z</time></trkpt><trkpt lat="31.49588" lon="-9.70576"><ele>89.0</ele><time>2026-04-26T11:13:15.411Z</time></trkpt><trkpt lat="31.4959717" lon="-9.70554"><ele>89.0</ele><time>2026-04-26T11:13:16.411Z</time></trkpt><trkpt lat="31.4960667" lon="-9.7053317"><ele>89.0</ele><time>2026-04-26T11:13:17.411Z</time></trkpt><trkpt lat="31.49618" lon="-9.70513"><ele>89.0</ele><time>2026-04-26T11:13:18.411Z</time></trkpt><trkpt lat="31.496295" lon="-9.7049283"><ele>90.0</ele><time>2026-04-26T11:13:19.411Z</time></trkpt><trkpt lat="31.4964067" lon="-9.704725"><ele>91.0</ele><time>2026-04-26T11:13:20.411Z</time></trkpt><trkpt lat="31.4965183" lon="-9.70453"><ele>92.0</ele><time>2026-04-26T11:13:21.412Z</time></trkpt><trkpt lat="31.49663" lon="-9.70433"><ele>92.66666666666667</ele><time>2026-04-26T11:13:22.411Z</time></trkpt><trkpt lat="31.49674" lon="-9.704135"><ele>93.33333333333333</ele><time>2026-04-26T11:13:23.411Z</time></trkpt><trkpt lat="31.4968517" lon="-9.70394"><ele>94.0</ele><time>2026-04-26T11:13:24.411Z</time></trkpt><trkpt lat="31.49696" lon="-9.70375"><ele>94.33333333333333</ele><time>2026-04-26T11:13:25.411Z</time></trkpt><trkpt lat="31.497075" lon="-9.70356"><ele>94.66666666666667</ele><time>2026-04-26T11:13:26.411Z</time></trkpt><trkpt lat="31.4971833" lon="-9.7033717"><ele>95.0</ele><time>2026-04-26T11:13:27.411Z</time></trkpt><trkpt lat="31.4972883" lon="-9.70318"><ele>95.0</ele><time>2026-04-26T11:13:28.411Z</time></trkpt><trkpt lat="31.4973933" lon="-9.7029883"><ele>95.0</ele><time>2026-04-26T11:13:29.411Z</time></trkpt><trkpt lat="31.4974983" lon="-9.7028"><ele>95.0</ele><time>2026-04-26T11:13:30.411Z</time></trkpt><trkpt lat="31.4976083" lon="-9.7026117"><ele>95.33333333333334</ele><time>2026-04-26T11:13:31.411Z</time></trkpt><trkpt lat="31.4977133" lon="-9.7024217"><ele>95.66666666666667</ele><time>2026-04-26T11:13:32.411Z</time></trkpt><trkpt lat="31.4978183" lon="-9.7022367"><ele>96.0</ele><time>2026-04-26T11:13:33.411Z</time></trkpt><trkpt lat="31.497925" lon="-9.7020433"><ele>97.0</ele><time>2026-04-26T11:13:34.411Z</time></trkpt><trkpt lat="31.4980317" lon="-9.7018567"><ele>98.0</ele><time>2026-04-26T11:13:35.411Z</time></trkpt><trkpt lat="31.4981317" lon="-9.701665"><ele>99.0</ele><time>2026-04-26T11:13:36.411Z</time></trkpt><trkpt lat="31.4982333" lon="-9.7014833"><ele>99.0</ele><time>2026-04-26T11:13:37.411Z</time></trkpt><trkpt lat="31.498335" lon="-9.7012933"><ele>99.0</ele><time>2026-04-26T11:13:38.411Z</time></trkpt><trkpt lat="31.4984433" lon="-9.70111"><ele>99.0</ele><time>2026-04-26T11:13:39.411Z</time></trkpt><trkpt lat="31.4985517" lon="-9.7009267"><ele>99.0</ele><time>2026-04-26T11:13:40.411Z</time></trkpt><trkpt lat="31.498655" lon="-9.7007317"><ele>99.0</ele><time>2026-04-26T11:13:41.411Z</time></trkpt><trkpt lat="31.4987583" lon="-9.7005317"><ele>99.0</ele><time>2026-04-26T11:13:42.411Z</time></trkpt><trkpt lat="31.4988583" lon="-9.70033"><ele>99.66666666666666</ele><time>2026-04-26T11:13:43.411Z</time></trkpt><trkpt lat="31.4989567" lon="-9.7001283"><ele>100.33333333333333</ele><time>2026-04-26T11:13:44.411Z</time></trkpt><trkpt lat="31.4990467" lon="-9.6999317"><ele>101.0</ele><time>2026-04-26T11:13:45.411Z</time></trkpt><trkpt lat="31.4991317" lon="-9.699745"><ele>101.0</ele><time>2026-04-26T11:13:46.411Z</time></trkpt><trkpt lat="31.4992083" lon="-9.6995467"><ele>101.0</ele><time>2026-04-26T11:13:47.411Z</time></trkpt><trkpt lat="31.4992883" lon="-9.69934"><ele>101.0</ele><time>2026-04-26T11:13:48.412Z</time></trkpt><trkpt lat="31.4993683" lon="-9.6991283"><ele>99.66666666666666</ele><time>2026-04-26T11:13:49.411Z</time></trkpt><trkpt lat="31.4994483" lon="-9.698915"><ele>98.33333333333334</ele><time>2026-04-26T11:13:50.411Z</time></trkpt><trkpt lat="31.4995267" lon="-9.6987117"><ele>97.0</ele><time>2026-04-26T11:13:51.411Z</time></trkpt><trkpt lat="31.4996017" lon="-9.69852"><ele>95.66666666666667</ele><time>2026-04-26T11:13:52.411Z</time></trkpt><trkpt lat="31.499675" lon="-9.6983283"><ele>94.33333333333334</ele><time>2026-04-26T11:13:53.411Z</time></trkpt><trkpt lat="31.4997517" lon="-9.69814"><ele>93.0</ele><time>2026-04-26T11:13:54.411Z</time></trkpt><trkpt lat="31.4998267" lon="-9.6979567"><ele>93.0</ele><time>2026-04-26T11:13:55.411Z</time></trkpt><trkpt lat="31.4999017" lon="-9.6977667"><ele>93.0</ele><time>2026-04-26T11:13:56.411Z</time></trkpt><trkpt lat="31.499975" lon="-9.6975817"><ele>93.0</ele><time>2026-04-26T11:13:57.411Z</time></trkpt><trkpt lat="31.5000483" lon="-9.6974033"><ele>92.66666666666667</ele><time>2026-04-26T11:13:58.411Z</time></trkpt><trkpt lat="31.5001167" lon="-9.6972317"><ele>92.33333333333334</ele><time>2026-04-26T11:13:59.411Z</time></trkpt><trkpt lat="31.5001817" lon="-9.6970717"><ele>92.0</ele><time>2026-04-26T11:14:00.411Z</time></trkpt><trkpt lat="31.500245" lon="-9.6969183"><ele>92.0</ele><time>2026-04-26T11:14:01.411Z</time></trkpt><trkpt lat="31.5003" lon="-9.6967783"><ele>92.0</ele><time>2026-04-26T11:14:02.411Z</time></trkpt><trkpt lat="31.5003483" lon="-9.6966533"><ele>92.0</ele><time>2026-04-26T11:14:03.41Z</time></trkpt><trkpt lat="31.5003867" lon="-9.6965233"><ele>92.0</ele><time>2026-04-26T11:14:04.41Z</time></trkpt><trkpt lat="31.5004167" lon="-9.6964"><ele>92.6</ele><time>2026-04-26T11:14:05.41Z</time></trkpt><trkpt lat="31.50046" lon="-9.69629"><ele>93.19999999999999</ele><time>2026-04-26T11:14:06.41Z</time></trkpt><trkpt lat="31.5005233" lon="-9.6962017"><ele>93.8</ele><time>2026-04-26T11:14:07.41Z</time></trkpt><trkpt lat="31.5006067" lon="-9.6961133"><ele>94.4</ele><time>2026-04-26T11:14:08.41Z</time></trkpt><trkpt lat="31.500685" lon="-9.69601"><ele>95.0</ele><time>2026-04-26T11:14:09.41Z</time></trkpt><trkpt lat="31.500755" lon="-9.6958967"><ele>95.0</ele><time>2026-04-26T11:14:10.41Z</time></trkpt><trkpt lat="31.50082" lon="-9.6957683"><ele>95.0</ele><time>2026-04-26T11:14:11.41Z</time></trkpt><trkpt lat="31.50088" lon="-9.6956283"><ele>95.0</ele><time>2026-04-26T11:14:12.411Z</time></trkpt><trkpt lat="31.5009417" lon="-9.6954883"><ele>95.0</ele><time>2026-04-26T11:14:13.41Z</time></trkpt><trkpt lat="31.5010133" lon="-9.6953333"><ele>96.0</ele><time>2026-04-26T11:14:14.41Z</time></trkpt><trkpt lat="31.5010917" lon="-9.6951817"><ele>97.0</ele><time>2026-04-26T11:14:15.411Z</time></trkpt><trkpt lat="31.501165" lon="-9.6950217"><ele>98.0</ele><time>2026-04-26T11:14:16.41Z</time></trkpt><trkpt lat="31.5012417" lon="-9.6948583"><ele>98.33333333333333</ele><time>2026-04-26T11:14:17.41Z</time></trkpt><trkpt lat="31.50132" lon="-9.6946917"><ele>98.66666666666666</ele><time>2026-04-26T11:14:18.41Z</time></trkpt><trkpt lat="31.5013967" lon="-9.6945183"><ele>99.0</ele><time>2026-04-26T11:14:19.41Z</time></trkpt><trkpt lat="31.5014667" lon="-9.6943383"><ele>100.33333333333334</ele><time>2026-04-26T11:14:20.41Z</time></trkpt><trkpt lat="31.5015483" lon="-9.69416"><ele>101.66666666666667</ele><time>2026-04-26T11:14:21.41Z</time></trkpt><trkpt lat="31.501625" lon="-9.6939683"><ele>103.0</ele><time>2026-04-26T11:14:22.41Z</time></trkpt><trkpt lat="31.5017033" lon="-9.6937717"><ele>104.0</ele><time>2026-04-26T11:14:23.41Z</time></trkpt><trkpt lat="31.501785" lon="-9.6935717"><ele>105.0</ele><time>2026-04-26T11:14:24.41Z</time></trkpt><trkpt lat="31.50187" lon="-9.6933683"><ele>106.0</ele><time>2026-04-26T11:14:25.41Z</time></trkpt><trkpt lat="31.5019583" lon="-9.6931633"><ele>106.0</ele><time>2026-04-26T11:14:26.41Z</time></trkpt><trkpt lat="31.50205" lon="-9.69295"><ele>106.0</ele><time>2026-04-26T11:14:27.41Z</time></trkpt><trkpt lat="31.5021417" lon="-9.6927317"><ele>106.0</ele><time>2026-04-26T11:14:28.411Z</time></trkpt><trkpt lat="31.502235" lon="-9.692505"><ele>107.66666666666667</ele><time>2026-04-26T11:14:29.41Z</time></trkpt><trkpt lat="31.5023283" lon="-9.6922733"><ele>109.33333333333334</ele><time>2026-04-26T11:14:30.41Z</time></trkpt><trkpt lat="31.5024267" lon="-9.69204"><ele>111.0</ele><time>2026-04-26T11:14:31.41Z</time></trkpt><trkpt lat="31.502525" lon="-9.6918"><ele>111.0</ele><time>2026-04-26T11:14:32.41Z</time></trkpt><trkpt lat="31.5026217" lon="-9.6915633"><ele>111.0</ele><time>2026-04-26T11:14:33.41Z</time></trkpt><trkpt lat="31.5027217" lon="-9.691325"><ele>112.5</ele><time>2026-04-26T11:14:34.41Z</time></trkpt><trkpt lat="31.5028233" lon="-9.6910833"><ele>114.0</ele><time>2026-04-26T11:14:35.41Z</time></trkpt><trkpt lat="31.5029283" lon="-9.6908433"><ele>114.5</ele><time>2026-04-26T11:14:36.41Z</time></trkpt><trkpt lat="31.5030333" lon="-9.6905967"><ele>115.0</ele><time>2026-04-26T11:14:37.41Z</time></trkpt><trkpt lat="31.5031383" lon="-9.6903483"><ele>115.0</ele><time>2026-04-26T11:14:38.41Z</time></trkpt><trkpt lat="31.5032417" lon="-9.690095"><ele>115.0</ele><time>2026-04-26T11:14:39.41Z</time></trkpt><trkpt lat="31.5033417" lon="-9.68986"><ele>115.0</ele><time>2026-04-26T11:14:40.41Z</time></trkpt><trkpt lat="31.5034317" lon="-9.689625"><ele>115.0</ele><time>2026-04-26T11:14:41.41Z</time></trkpt><trkpt lat="31.503525" lon="-9.6893967"><ele>115.0</ele><time>2026-04-26T11:14:42.411Z</time></trkpt><trkpt lat="31.5036183" lon="-9.6891683"><ele>115.0</ele><time>2026-04-26T11:14:43.41Z</time></trkpt><trkpt lat="31.5037117" lon="-9.6889383"><ele>115.0</ele><time>2026-04-26T11:14:44.41Z</time></trkpt><trkpt lat="31.503805" lon="-9.6887133"><ele>115.0</ele><time>2026-04-26T11:14:45.41Z</time></trkpt><trkpt lat="31.5039017" lon="-9.688495"><ele>115.0</ele><time>2026-04-26T11:14:46.41Z</time></trkpt><trkpt lat="31.503995" lon="-9.6882717"><ele>115.0</ele><time>2026-04-26T11:14:47.41Z</time></trkpt><trkpt lat="31.5040867" lon="-9.688045"><ele>115.0</ele><time>2026-04-26T11:14:48.411Z</time></trkpt><trkpt lat="31.5041833" lon="-9.68782"><ele>114.66666666666667</ele><time>2026-04-26T11:14:49.41Z</time></trkpt><trkpt lat="31.5042783" lon="-9.6875967"><ele>114.33333333333334</ele><time>2026-04-26T11:14:50.41Z</time></trkpt><trkpt lat="31.50437" lon="-9.687375"><ele>114.0</ele><time>2026-04-26T11:14:51.41Z</time></trkpt><trkpt lat="31.5044633" lon="-9.6871533"><ele>114.0</ele><time>2026-04-26T11:14:52.41Z</time></trkpt><trkpt lat="31.5045583" lon="-9.68693"><ele>114.0</ele><time>2026-04-26T11:14:53.41Z</time></trkpt><trkpt lat="31.5046467" lon="-9.6867067"><ele>114.0</ele><time>2026-04-26T11:14:54.41Z</time></trkpt><trkpt lat="31.5047367" lon="-9.6864883"><ele>116.33333333333334</ele><time>2026-04-26T11:14:55.41Z</time></trkpt><trkpt lat="31.504825" lon="-9.6862633"><ele>118.66666666666667</ele><time>2026-04-26T11:14:56.41Z</time></trkpt><trkpt lat="31.5049167" lon="-9.6860383"><ele>121.0</ele><time>2026-04-26T11:14:57.41Z</time></trkpt><trkpt lat="31.5050083" lon="-9.68581"><ele>121.33333333333334</ele><time>2026-04-26T11:14:58.41Z</time></trkpt><trkpt lat="31.50511" lon="-9.685585"><ele>121.66666666666666</ele><time>2026-04-26T11:14:59.41Z</time></trkpt><trkpt lat="31.5052067" lon="-9.6853567"><ele>122.0</ele><time>2026-04-26T11:15:00.41Z</time></trkpt><trkpt lat="31.5053067" lon="-9.6851233"><ele>122.33333333333333</ele><time>2026-04-26T11:15:01.41Z</time></trkpt><trkpt lat="31.5054033" lon="-9.6848867"><ele>122.66666666666666</ele><time>2026-04-26T11:15:02.41Z</time></trkpt><trkpt lat="31.5055033" lon="-9.6846517"><ele>123.0</ele><time>2026-04-26T11:15:03.41Z</time></trkpt><trkpt lat="31.5056017" lon="-9.6844167"><ele>124.0</ele><time>2026-04-26T11:15:04.41Z</time></trkpt><trkpt lat="31.505695" lon="-9.684185"><ele>125.0</ele><time>2026-04-26T11:15:05.41Z</time></trkpt><trkpt lat="31.5057933" lon="-9.6839583"><ele>126.0</ele><time>2026-04-26T11:15:06.41Z</time></trkpt><trkpt lat="31.50589" lon="-9.6837367"><ele>127.33333333333334</ele><time>2026-04-26T11:15:07.41Z</time></trkpt><trkpt lat="31.50598" lon="-9.683515"><ele>128.66666666666669</ele><time>2026-04-26T11:15:08.41Z</time></trkpt><trkpt lat="31.5060767" lon="-9.6832933"><ele>130.0</ele><time>2026-04-26T11:15:09.41Z</time></trkpt><trkpt lat="31.5061717" lon="-9.6830767"><ele>130.33333333333334</ele><time>2026-04-26T11:15:10.41Z</time></trkpt><trkpt lat="31.50626" lon="-9.6828517"><ele>130.66666666666666</ele><time>2026-04-26T11:15:11.41Z</time></trkpt><trkpt lat="31.50635" lon="-9.68263"><ele>131.0</ele><time>2026-04-26T11:15:12.41Z</time></trkpt><trkpt lat="31.50644" lon="-9.68241"><ele>131.66666666666666</ele><time>2026-04-26T11:15:13.41Z</time></trkpt><trkpt lat="31.5065367" lon="-9.6821917"><ele>132.33333333333334</ele><time>2026-04-26T11:15:14.41Z</time></trkpt><trkpt lat="31.5066283" lon="-9.6819667"><ele>133.0</ele><time>2026-04-26T11:15:15.41Z</time></trkpt><trkpt lat="31.5067217" lon="-9.6817483"><ele>133.33333333333334</ele><time>2026-04-26T11:15:16.41Z</time></trkpt><trkpt lat="31.506815" lon="-9.681525"><ele>133.66666666666666</ele><time>2026-04-26T11:15:17.41Z</time></trkpt><trkpt lat="31.5069083" lon="-9.6813017"><ele>134.0</ele><time>2026-04-26T11:15:18.41Z</time></trkpt><trkpt lat="31.5070017" lon="-9.6810817"><ele>135.0</ele><time>2026-04-26T11:15:19.41Z</time></trkpt><trkpt lat="31.5070933" lon="-9.68086"><ele>136.0</ele><time>2026-04-26T11:15:20.41Z</time></trkpt><trkpt lat="31.5071833" lon="-9.6806417"><ele>137.0</ele><time>2026-04-26T11:15:21.41Z</time></trkpt><trkpt lat="31.507275" lon="-9.6804233"><ele>137.66666666666666</ele><time>2026-04-26T11:15:22.41Z</time></trkpt><trkpt lat="31.5073683" lon="-9.6801983"><ele>138.33333333333334</ele><time>2026-04-26T11:15:23.41Z</time></trkpt><trkpt lat="31.5074567" lon="-9.679975"><ele>139.0</ele><time>2026-04-26T11:15:24.41Z</time></trkpt><trkpt lat="31.5075533" lon="-9.679755"><ele>139.0</ele><time>2026-04-26T11:15:25.41Z</time></trkpt><trkpt lat="31.507645" lon="-9.6795317"><ele>139.0</ele><time>2026-04-26T11:15:26.41Z</time></trkpt><trkpt lat="31.5077433" lon="-9.6793067"><ele>139.0</ele><time>2026-04-26T11:15:27.41Z</time></trkpt><trkpt lat="31.5078383" lon="-9.6790767"><ele>140.0</ele><time>2026-04-26T11:15:28.41Z</time></trkpt><trkpt lat="31.5079333" lon="-9.6788483"><ele>141.0</ele><time>2026-04-26T11:15:29.411Z</time></trkpt><trkpt lat="31.50803" lon="-9.6786183"><ele>142.0</ele><time>2026-04-26T11:15:30.41Z</time></trkpt><trkpt lat="31.5081267" lon="-9.6783867"><ele>142.0</ele><time>2026-04-26T11:15:31.41Z</time></trkpt><trkpt lat="31.508215" lon="-9.678155"><ele>142.0</ele><time>2026-04-26T11:15:32.41Z</time></trkpt><trkpt lat="31.5083" lon="-9.6779133"><ele>142.0</ele><time>2026-04-26T11:15:33.41Z</time></trkpt><trkpt lat="31.5083767" lon="-9.677665"><ele>142.0</ele><time>2026-04-26T11:15:34.41Z</time></trkpt><trkpt lat="31.5084467" lon="-9.6774267"><ele>142.0</ele><time>2026-04-26T11:15:35.41Z</time></trkpt><trkpt lat="31.5085183" lon="-9.6771917"><ele>142.0</ele><time>2026-04-26T11:15:36.41Z</time></trkpt><trkpt lat="31.5085883" lon="-9.6769617"><ele>142.0</ele><time>2026-04-26T11:15:37.41Z</time></trkpt><trkpt lat="31.5086583" lon="-9.67673"><ele>142.0</ele><time>2026-04-26T11:15:38.41Z</time></trkpt><trkpt lat="31.508725" lon="-9.6765"><ele>142.0</ele><time>2026-04-26T11:15:39.41Z</time></trkpt><trkpt lat="31.508795" lon="-9.6762667"><ele>141.0</ele><time>2026-04-26T11:15:40.41Z</time></trkpt><trkpt lat="31.508865" lon="-9.6760383"><ele>140.0</ele><time>2026-04-26T11:15:41.41Z</time></trkpt><trkpt lat="31.5089317" lon="-9.67581"><ele>139.0</ele><time>2026-04-26T11:15:42.41Z</time></trkpt><trkpt lat="31.5089983" lon="-9.67558"><ele>139.0</ele><time>2026-04-26T11:15:43.41Z</time></trkpt><trkpt lat="31.5090683" lon="-9.6753483"><ele>139.0</ele><time>2026-04-26T11:15:44.41Z</time></trkpt><trkpt lat="31.50914" lon="-9.675115"><ele>139.0</ele><time>2026-04-26T11:15:45.41Z</time></trkpt><trkpt lat="31.5092117" lon="-9.6748817"><ele>139.33333333333334</ele><time>2026-04-26T11:15:46.41Z</time></trkpt><trkpt lat="31.50928" lon="-9.6746467"><ele>139.66666666666666</ele><time>2026-04-26T11:15:47.41Z</time></trkpt><trkpt lat="31.5093533" lon="-9.6744083"><ele>140.0</ele><time>2026-04-26T11:15:48.41Z</time></trkpt><trkpt lat="31.5094283" lon="-9.6741667"><ele>140.0</ele><time>2026-04-26T11:15:49.41Z</time></trkpt><trkpt lat="31.5095017" lon="-9.67392"><ele>140.0</ele><time>2026-04-26T11:15:50.41Z</time></trkpt><trkpt lat="31.5095717" lon="-9.67367"><ele>140.0</ele><time>2026-04-26T11:15:51.41Z</time></trkpt><trkpt lat="31.5096433" lon="-9.673425"><ele>140.0</ele><time>2026-04-26T11:15:52.41Z</time></trkpt><trkpt lat="31.509715" lon="-9.6731767"><ele>140.0</ele><time>2026-04-26T11:15:53.41Z</time></trkpt><trkpt lat="31.50979" lon="-9.6729283"><ele>140.0</ele><time>2026-04-26T11:15:54.41Z</time></trkpt><trkpt lat="31.509865" lon="-9.6726783"><ele>138.0</ele><time>2026-04-26T11:15:55.41Z</time></trkpt><trkpt lat="31.50994" lon="-9.6724283"><ele>136.0</ele><time>2026-04-26T11:15:56.41Z</time></trkpt><trkpt lat="31.510015" lon="-9.6721717"><ele>133.5</ele><time>2026-04-26T11:15:57.41Z</time></trkpt><trkpt lat="31.5100933" lon="-9.6719183"><ele>131.0</ele><time>2026-04-26T11:15:58.41Z</time></trkpt><trkpt lat="31.5101683" lon="-9.671665"><ele>131.0</ele><time>2026-04-26T11:15:59.41Z</time></trkpt><trkpt lat="31.5102433" lon="-9.6714067"><ele>131.0</ele><time>2026-04-26T11:16:00.41Z</time></trkpt><trkpt lat="31.5103183" lon="-9.6711517"><ele>131.0</ele><time>2026-04-26T11:16:01.41Z</time></trkpt><trkpt lat="31.5103883" lon="-9.6709033"><ele>131.0</ele><time>2026-04-26T11:16:02.41Z</time></trkpt><trkpt lat="31.510465" lon="-9.6706633"><ele>131.0</ele><time>2026-04-26T11:16:03.41Z</time></trkpt><trkpt lat="31.510535" lon="-9.6704217"><ele>130.33333333333331</ele><time>2026-04-26T11:16:04.41Z</time></trkpt><trkpt lat="31.5106067" lon="-9.670175"><ele>129.66666666666666</ele><time>2026-04-26T11:16:05.41Z</time></trkpt><trkpt lat="31.5106817" lon="-9.6699267"><ele>129.0</ele><time>2026-04-26T11:16:06.41Z</time></trkpt><trkpt lat="31.5107583" lon="-9.6696833"><ele>127.66666666666666</ele><time>2026-04-26T11:16:07.411Z</time></trkpt><trkpt lat="31.5108317" lon="-9.66944"><ele>126.33333333333333</ele><time>2026-04-26T11:16:08.41Z</time></trkpt><trkpt lat="31.510905" lon="-9.6691967"><ele>125.0</ele><time>2026-04-26T11:16:09.41Z</time></trkpt><trkpt lat="31.51098" lon="-9.6689583"><ele>125.0</ele><time>2026-04-26T11:16:10.41Z</time></trkpt><trkpt lat="31.5110533" lon="-9.6687117"><ele>125.0</ele><time>2026-04-26T11:16:11.41Z</time></trkpt><trkpt lat="31.5111267" lon="-9.668465"><ele>125.0</ele><time>2026-04-26T11:16:12.41Z</time></trkpt><trkpt lat="31.5112017" lon="-9.6682183"><ele>124.33333333333333</ele><time>2026-04-26T11:16:13.41Z</time></trkpt><trkpt lat="31.5112733" lon="-9.6679683"><ele>123.66666666666666</ele><time>2026-04-26T11:16:14.41Z</time></trkpt><trkpt lat="31.51135" lon="-9.6677217"><ele>123.0</ele><time>2026-04-26T11:16:15.411Z</time></trkpt><trkpt lat="31.511425" lon="-9.6674783"><ele>123.0</ele><time>2026-04-26T11:16:16.41Z</time></trkpt><trkpt lat="31.5115" lon="-9.6672333"><ele>123.0</ele><time>2026-04-26T11:16:17.41Z</time></trkpt><trkpt lat="31.5115683" lon="-9.6669933"><ele>123.0</ele><time>2026-04-26T11:16:18.41Z</time></trkpt><trkpt lat="31.51164" lon="-9.6667583"><ele>123.66666666666666</ele><time>2026-04-26T11:16:19.41Z</time></trkpt><trkpt lat="31.5117117" lon="-9.6665217"><ele>124.33333333333333</ele><time>2026-04-26T11:16:20.41Z</time></trkpt><trkpt lat="31.5117833" lon="-9.6662817"><ele>125.0</ele><time>2026-04-26T11:16:21.41Z</time></trkpt><trkpt lat="31.5118517" lon="-9.6660433"><ele>125.33333333333333</ele><time>2026-04-26T11:16:22.41Z</time></trkpt><trkpt lat="31.511925" lon="-9.665805"><ele>125.66666666666666</ele><time>2026-04-26T11:16:23.41Z</time></trkpt><trkpt lat="31.512" lon="-9.66556"><ele>126.0</ele><time>2026-04-26T11:16:24.41Z</time></trkpt><trkpt lat="31.5120717" lon="-9.6653167"><ele>127.66666666666666</ele><time>2026-04-26T11:16:25.41Z</time></trkpt><trkpt lat="31.512145" lon="-9.6650767"><ele>129.33333333333331</ele><time>2026-04-26T11:16:26.41Z</time></trkpt><trkpt lat="31.512215" lon="-9.6648333"><ele>131.0</ele><time>2026-04-26T11:16:27.41Z</time></trkpt><trkpt lat="31.5122867" lon="-9.6645983"><ele>130.66666666666666</ele><time>2026-04-26T11:16:28.41Z</time></trkpt><trkpt lat="31.5123567" lon="-9.6643617"><ele>130.33333333333334</ele><time>2026-04-26T11:16:29.411Z</time></trkpt><trkpt lat="31.5124267" lon="-9.664125"><ele>130.0</ele><time>2026-04-26T11:16:30.41Z</time></trkpt><trkpt lat="31.5124967" lon="-9.6638867"><ele>130.0</ele><time>2026-04-26T11:16:31.41Z</time></trkpt><trkpt lat="31.512565" lon="-9.66365"><ele>130.0</ele><time>2026-04-26T11:16:32.41Z</time></trkpt><trkpt lat="31.5126317" lon="-9.663415"><ele>130.0</ele><time>2026-04-26T11:16:33.41Z</time></trkpt><trkpt lat="31.5127017" lon="-9.6631783"><ele>130.0</ele><time>2026-04-26T11:16:34.411Z</time></trkpt><trkpt lat="31.5127733" lon="-9.6629433"><ele>130.0</ele><time>2026-04-26T11:16:35.41Z</time></trkpt><trkpt lat="31.51285" lon="-9.6627083"><ele>130.0</ele><time>2026-04-26T11:16:36.41Z</time></trkpt><trkpt lat="31.512915" lon="-9.662475"><ele>130.0</ele><time>2026-04-26T11:16:37.41Z</time></trkpt><trkpt lat="31.512975" lon="-9.6622433"><ele>130.0</ele><time>2026-04-26T11:16:38.41Z</time></trkpt><trkpt lat="31.513035" lon="-9.662005"><ele>130.0</ele><time>2026-04-26T11:16:39.41Z</time></trkpt><trkpt lat="31.5130967" lon="-9.6617683"><ele>131.0</ele><time>2026-04-26T11:16:40.41Z</time></trkpt><trkpt lat="31.513165" lon="-9.6615317"><ele>132.0</ele><time>2026-04-26T11:16:41.411Z</time></trkpt><trkpt lat="31.513235" lon="-9.6612983"><ele>133.0</ele><time>2026-04-26T11:16:42.41Z</time></trkpt><trkpt lat="31.513305" lon="-9.6610617"><ele>133.0</ele><time>2026-04-26T11:16:43.41Z</time></trkpt><trkpt lat="31.51338" lon="-9.660825"><ele>133.0</ele><time>2026-04-26T11:16:44.41Z</time></trkpt><trkpt lat="31.51345" lon="-9.6605883"><ele>133.0</ele><time>2026-04-26T11:16:45.41Z</time></trkpt><trkpt lat="31.513525" lon="-9.6603467"><ele>132.66666666666669</ele><time>2026-04-26T11:16:46.41Z</time></trkpt><trkpt lat="31.5135983" lon="-9.660105"><ele>132.33333333333334</ele><time>2026-04-26T11:16:47.41Z</time></trkpt><trkpt lat="31.5136733" lon="-9.65986"><ele>132.0</ele><time>2026-04-26T11:16:48.41Z</time></trkpt><trkpt lat="31.5137517" lon="-9.6596333"><ele>132.0</ele><time>2026-04-26T11:16:49.41Z</time></trkpt><trkpt lat="31.5138233" lon="-9.6593917"><ele>132.0</ele><time>2026-04-26T11:16:50.41Z</time></trkpt><trkpt lat="31.5139" lon="-9.65915"><ele>132.0</ele><time>2026-04-26T11:16:51.41Z</time></trkpt><trkpt lat="31.5139783" lon="-9.65891"><ele>132.0</ele><time>2026-04-26T11:16:52.41Z</time></trkpt><trkpt lat="31.5140533" lon="-9.65867"><ele>132.0</ele><time>2026-04-26T11:16:53.41Z</time></trkpt><trkpt lat="31.5141217" lon="-9.6584367"><ele>132.0</ele><time>2026-04-26T11:16:54.41Z</time></trkpt><trkpt lat="31.5141883" lon="-9.6582033"><ele>131.0</ele><time>2026-04-26T11:16:55.41Z</time></trkpt><trkpt lat="31.5142567" lon="-9.6579667"><ele>130.0</ele><time>2026-04-26T11:16:56.41Z</time></trkpt><trkpt lat="31.5143317" lon="-9.65773"><ele>129.0</ele><time>2026-04-26T11:16:57.41Z</time></trkpt><trkpt lat="31.5144033" lon="-9.6574967"><ele>129.0</ele><time>2026-04-26T11:16:58.411Z</time></trkpt><trkpt lat="31.5144717" lon="-9.6572567"><ele>129.0</ele><time>2026-04-26T11:16:59.411Z</time></trkpt><trkpt lat="31.51454" lon="-9.6570183"><ele>129.0</ele><time>2026-04-26T11:17:00.41Z</time></trkpt><trkpt lat="31.51461" lon="-9.65678"><ele>130.0</ele><time>2026-04-26T11:17:01.41Z</time></trkpt><trkpt lat="31.5146783" lon="-9.6565433"><ele>131.0</ele><time>2026-04-26T11:17:02.41Z</time></trkpt><trkpt lat="31.5147517" lon="-9.656305"><ele>132.0</ele><time>2026-04-26T11:17:03.41Z</time></trkpt><trkpt lat="31.514825" lon="-9.6560683"><ele>132.33333333333334</ele><time>2026-04-26T11:17:04.41Z</time></trkpt><trkpt lat="31.5148917" lon="-9.65583"><ele>132.66666666666669</ele><time>2026-04-26T11:17:05.41Z</time></trkpt><trkpt lat="31.5149617" lon="-9.6555917"><ele>133.0</ele><time>2026-04-26T11:17:06.41Z</time></trkpt><trkpt lat="31.5150333" lon="-9.6553567"><ele>132.66666666666669</ele><time>2026-04-26T11:17:07.41Z</time></trkpt><trkpt lat="31.5151067" lon="-9.6551217"><ele>132.33333333333334</ele><time>2026-04-26T11:17:08.41Z</time></trkpt><trkpt lat="31.51518" lon="-9.6548867"><ele>132.0</ele><time>2026-04-26T11:17:09.41Z</time></trkpt><trkpt lat="31.51525" lon="-9.6546467"><ele>132.33333333333334</ele><time>2026-04-26T11:17:10.41Z</time></trkpt><trkpt lat="31.5153217" lon="-9.6544017"><ele>132.66666666666669</ele><time>2026-04-26T11:17:11.41Z</time></trkpt><trkpt lat="31.5153917" lon="-9.6541683"><ele>133.0</ele><time>2026-04-26T11:17:12.41Z</time></trkpt><trkpt lat="31.5154617" lon="-9.653925"><ele>132.33333333333334</ele><time>2026-04-26T11:17:13.41Z</time></trkpt><trkpt lat="31.5155333" lon="-9.653685"><ele>131.66666666666666</ele><time>2026-04-26T11:17:14.41Z</time></trkpt><trkpt lat="31.5156067" lon="-9.6534467"><ele>131.0</ele><time>2026-04-26T11:17:15.41Z</time></trkpt><trkpt lat="31.51568" lon="-9.6532067"><ele>130.33333333333331</ele><time>2026-04-26T11:17:16.41Z</time></trkpt><trkpt lat="31.515755" lon="-9.65297"><ele>129.66666666666666</ele><time>2026-04-26T11:17:17.41Z</time></trkpt><trkpt lat="31.515825" lon="-9.6527367"><ele>129.0</ele><time>2026-04-26T11:17:18.41Z</time></trkpt><trkpt lat="31.5158933" lon="-9.6525"><ele>129.0</ele><time>2026-04-26T11:17:19.41Z</time></trkpt><trkpt lat="31.5159617" lon="-9.6522617"><ele>129.0</ele><time>2026-04-26T11:17:20.41Z</time></trkpt><trkpt lat="31.51603" lon="-9.65203"><ele>129.0</ele><time>2026-04-26T11:17:21.41Z</time></trkpt><trkpt lat="31.5161017" lon="-9.6517917"><ele>129.0</ele><time>2026-04-26T11:17:22.41Z</time></trkpt><trkpt lat="31.5161683" lon="-9.6515567"><ele>129.0</ele><time>2026-04-26T11:17:23.41Z</time></trkpt><trkpt lat="31.5162383" lon="-9.651325"><ele>129.0</ele><time>2026-04-26T11:17:24.41Z</time></trkpt><trkpt lat="31.516305" lon="-9.6510883"><ele>130.66666666666666</ele><time>2026-04-26T11:17:25.41Z</time></trkpt><trkpt lat="31.5163767" lon="-9.6508567"><ele>132.33333333333331</ele><time>2026-04-26T11:17:26.41Z</time></trkpt><trkpt lat="31.5164467" lon="-9.6506217"><ele>134.0</ele><time>2026-04-26T11:17:27.41Z</time></trkpt><trkpt lat="31.516515" lon="-9.6503917"><ele>135.33333333333331</ele><time>2026-04-26T11:17:28.41Z</time></trkpt><trkpt lat="31.5165833" lon="-9.6501583"><ele>136.66666666666666</ele><time>2026-04-26T11:17:29.41Z</time></trkpt><trkpt lat="31.5166533" lon="-9.649925"><ele>138.0</ele><time>2026-04-26T11:17:30.411Z</time></trkpt><trkpt lat="31.51672" lon="-9.64969"><ele>139.0</ele><time>2026-04-26T11:17:31.41Z</time></trkpt><trkpt lat="31.5167917" lon="-9.6494533"><ele>140.0</ele><time>2026-04-26T11:17:32.41Z</time></trkpt><trkpt lat="31.516865" lon="-9.6492183"><ele>141.0</ele><time>2026-04-26T11:17:33.411Z</time></trkpt><trkpt lat="31.5169433" lon="-9.6489767"><ele>141.0</ele><time>2026-04-26T11:17:34.41Z</time></trkpt><trkpt lat="31.5170217" lon="-9.6487367"><ele>141.0</ele><time>2026-04-26T11:17:35.41Z</time></trkpt><trkpt lat="31.5170933" lon="-9.648495"><ele>141.0</ele><time>2026-04-26T11:17:36.41Z</time></trkpt><trkpt lat="31.5171717" lon="-9.6482533"><ele>140.5</ele><time>2026-04-26T11:17:37.41Z</time></trkpt><trkpt lat="31.5172517" lon="-9.6480083"><ele>140.0</ele><time>2026-04-26T11:17:38.41Z</time></trkpt><trkpt lat="31.5173283" lon="-9.6477583"><ele>140.66666666666666</ele><time>2026-04-26T11:17:39.41Z</time></trkpt><trkpt lat="31.5174017" lon="-9.64751"><ele>141.33333333333334</ele><time>2026-04-26T11:17:40.41Z</time></trkpt><trkpt lat="31.5174733" lon="-9.64726"><ele>142.0</ele><time>2026-04-26T11:17:41.41Z</time></trkpt><trkpt lat="31.517545" lon="-9.6470133"><ele>142.0</ele><time>2026-04-26T11:17:42.41Z</time></trkpt><trkpt lat="31.5176133" lon="-9.646775"><ele>142.0</ele><time>2026-04-26T11:17:43.41Z</time></trkpt><trkpt lat="31.51768" lon="-9.6465417"><ele>142.0</ele><time>2026-04-26T11:17:44.41Z</time></trkpt><trkpt lat="31.5177433" lon="-9.6463017"><ele>142.33333333333334</ele><time>2026-04-26T11:17:45.41Z</time></trkpt><trkpt lat="31.5178083" lon="-9.6460733"><ele>142.66666666666666</ele><time>2026-04-26T11:17:46.41Z</time></trkpt><trkpt lat="31.5178733" lon="-9.6458433"><ele>143.0</ele><time>2026-04-26T11:17:47.41Z</time></trkpt><trkpt lat="31.5179383" lon="-9.645615"><ele>143.0</ele><time>2026-04-26T11:17:48.41Z</time></trkpt><trkpt lat="31.518005" lon="-9.6453833"><ele>143.0</ele><time>2026-04-26T11:17:49.41Z</time></trkpt><trkpt lat="31.5180767" lon="-9.645155"><ele>143.0</ele><time>2026-04-26T11:17:50.41Z</time></trkpt><trkpt lat="31.51815" lon="-9.6449283"><ele>143.66666666666666</ele><time>2026-04-26T11:17:51.41Z</time></trkpt><trkpt lat="31.5182217" lon="-9.644695"><ele>144.33333333333334</ele><time>2026-04-26T11:17:52.41Z</time></trkpt><trkpt lat="31.5182917" lon="-9.6444633"><ele>145.0</ele><time>2026-04-26T11:17:53.41Z</time></trkpt><trkpt lat="31.5183567" lon="-9.64423"><ele>146.0</ele><time>2026-04-26T11:17:54.41Z</time></trkpt><trkpt lat="31.5184267" lon="-9.643995"><ele>147.0</ele><time>2026-04-26T11:17:55.41Z</time></trkpt><trkpt lat="31.518495" lon="-9.6437583"><ele>148.0</ele><time>2026-04-26T11:17:56.41Z</time></trkpt><trkpt lat="31.518565" lon="-9.64352"><ele>148.0</ele><time>2026-04-26T11:17:57.41Z</time></trkpt><trkpt lat="31.518635" lon="-9.6432883"><ele>148.0</ele><time>2026-04-26T11:17:58.41Z</time></trkpt><trkpt lat="31.5187033" lon="-9.6430483"><ele>148.0</ele><time>2026-04-26T11:17:59.411Z</time></trkpt><trkpt lat="31.5187717" lon="-9.6428083"><ele>148.0</ele><time>2026-04-26T11:18:00.41Z</time></trkpt><trkpt lat="31.5188433" lon="-9.64257"><ele>148.0</ele><time>2026-04-26T11:18:01.41Z</time></trkpt><trkpt lat="31.5189167" lon="-9.6423317"><ele>148.0</ele><time>2026-04-26T11:18:02.41Z</time></trkpt><trkpt lat="31.518985" lon="-9.6421067"><ele>149.66666666666669</ele><time>2026-04-26T11:18:03.41Z</time></trkpt><trkpt lat="31.519045" lon="-9.6418967"><ele>151.33333333333334</ele><time>2026-04-26T11:18:04.41Z</time></trkpt><trkpt lat="31.519105" lon="-9.6416883"><ele>153.0</ele><time>2026-04-26T11:18:05.41Z</time></trkpt><trkpt lat="31.5191633" lon="-9.641485"><ele>153.0</ele><time>2026-04-26T11:18:06.411Z</time></trkpt><trkpt lat="31.5192167" lon="-9.641285"><ele>153.0</ele><time>2026-04-26T11:18:07.41Z</time></trkpt><trkpt lat="31.5192733" lon="-9.64108"><ele>153.0</ele><time>2026-04-26T11:18:08.41Z</time></trkpt><trkpt lat="31.5193283" lon="-9.640865"><ele>152.66666666666666</ele><time>2026-04-26T11:18:09.41Z</time></trkpt><trkpt lat="31.5193733" lon="-9.6406517"><ele>152.33333333333331</ele><time>2026-04-26T11:18:10.41Z</time></trkpt><trkpt lat="31.519415" lon="-9.6404367"><ele>152.0</ele><time>2026-04-26T11:18:11.41Z</time></trkpt><trkpt lat="31.519455" lon="-9.64022"><ele>152.0</ele><time>2026-04-26T11:18:12.41Z</time></trkpt><trkpt lat="31.5194967" lon="-9.64001"><ele>152.0</ele><time>2026-04-26T11:18:13.41Z</time></trkpt><trkpt lat="31.5195433" lon="-9.6397983"><ele>152.0</ele><time>2026-04-26T11:18:14.41Z</time></trkpt><trkpt lat="31.5195867" lon="-9.6395917"><ele>152.0</ele><time>2026-04-26T11:18:15.41Z</time></trkpt><trkpt lat="31.5196317" lon="-9.6393833"><ele>152.0</ele><time>2026-04-26T11:18:16.41Z</time></trkpt><trkpt lat="31.51968" lon="-9.63918"><ele>152.0</ele><time>2026-04-26T11:18:17.41Z</time></trkpt><trkpt lat="31.5197217" lon="-9.638975"><ele>152.0</ele><time>2026-04-26T11:18:18.41Z</time></trkpt><trkpt lat="31.5197617" lon="-9.6387733"><ele>152.0</ele><time>2026-04-26T11:18:19.41Z</time></trkpt><trkpt lat="31.5198033" lon="-9.6385633"><ele>152.0</ele><time>2026-04-26T11:18:20.41Z</time></trkpt><trkpt lat="31.5198433" lon="-9.6383567"><ele>153.0</ele><time>2026-04-26T11:18:21.41Z</time></trkpt><trkpt lat="31.51988" lon="-9.638145"><ele>154.0</ele><time>2026-04-26T11:18:22.41Z</time></trkpt><trkpt lat="31.5199233" lon="-9.6379317"><ele>155.0</ele><time>2026-04-26T11:18:23.41Z</time></trkpt><trkpt lat="31.5199683" lon="-9.637715"><ele>156.66666666666666</ele><time>2026-04-26T11:18:24.41Z</time></trkpt><trkpt lat="31.5200133" lon="-9.6374983"><ele>158.33333333333334</ele><time>2026-04-26T11:18:25.41Z</time></trkpt><trkpt lat="31.5200617" lon="-9.6372783"><ele>160.0</ele><time>2026-04-26T11:18:26.41Z</time></trkpt><trkpt lat="31.5201117" lon="-9.6370583"><ele>161.0</ele><time>2026-04-26T11:18:27.41Z</time></trkpt><trkpt lat="31.520155" lon="-9.63684"><ele>162.0</ele><time>2026-04-26T11:18:28.41Z</time></trkpt><trkpt lat="31.5202" lon="-9.6366183"><ele>163.0</ele><time>2026-04-26T11:18:29.41Z</time></trkpt><trkpt lat="31.5202433" lon="-9.6363883"><ele>163.0</ele><time>2026-04-26T11:18:30.41Z</time></trkpt><trkpt lat="31.5202883" lon="-9.6361617"><ele>163.0</ele><time>2026-04-26T11:18:31.41Z</time></trkpt><trkpt lat="31.5203267" lon="-9.6359367"><ele>163.0</ele><time>2026-04-26T11:18:32.41Z</time></trkpt><trkpt lat="31.5203683" lon="-9.6357083"><ele>164.0</ele><time>2026-04-26T11:18:33.41Z</time></trkpt><trkpt lat="31.520415" lon="-9.63548"><ele>165.0</ele><time>2026-04-26T11:18:34.41Z</time></trkpt><trkpt lat="31.520465" lon="-9.6352517"><ele>166.0</ele><time>2026-04-26T11:18:35.41Z</time></trkpt><trkpt lat="31.5205133" lon="-9.6350217"><ele>167.33333333333334</ele><time>2026-04-26T11:18:36.41Z</time></trkpt><trkpt lat="31.5205633" lon="-9.6347917"><ele>168.66666666666666</ele><time>2026-04-26T11:18:37.41Z</time></trkpt><trkpt lat="31.5206133" lon="-9.63456"><ele>170.0</ele><time>2026-04-26T11:18:38.41Z</time></trkpt><trkpt lat="31.5206617" lon="-9.6343283"><ele>171.33333333333331</ele><time>2026-04-26T11:18:39.41Z</time></trkpt><trkpt lat="31.52071" lon="-9.634095"><ele>172.66666666666666</ele><time>2026-04-26T11:18:40.41Z</time></trkpt><trkpt lat="31.5207617" lon="-9.6338583"><ele>174.0</ele><time>2026-04-26T11:18:41.41Z</time></trkpt><trkpt lat="31.5208117" lon="-9.63362"><ele>174.33333333333334</ele><time>2026-04-26T11:18:42.41Z</time></trkpt><trkpt lat="31.5208583" lon="-9.633385"><ele>174.66666666666669</ele><time>2026-04-26T11:18:43.41Z</time></trkpt><trkpt lat="31.52091" lon="-9.6331517"><ele>175.0</ele><time>2026-04-26T11:18:44.41Z</time></trkpt><trkpt lat="31.5209583" lon="-9.6329117"><ele>176.0</ele><time>2026-04-26T11:18:45.41Z</time></trkpt><trkpt lat="31.5210067" lon="-9.632675"><ele>177.0</ele><time>2026-04-26T11:18:46.41Z</time></trkpt><trkpt lat="31.521055" lon="-9.632435"><ele>178.0</ele><time>2026-04-26T11:18:47.41Z</time></trkpt><trkpt lat="31.521105" lon="-9.6321983"><ele>179.66666666666669</ele><time>2026-04-26T11:18:48.41Z</time></trkpt><trkpt lat="31.521155" lon="-9.6319567"><ele>181.33333333333334</ele><time>2026-04-26T11:18:49.41Z</time></trkpt><trkpt lat="31.5212033" lon="-9.6317167"><ele>183.0</ele><time>2026-04-26T11:18:50.41Z</time></trkpt><trkpt lat="31.5212483" lon="-9.6314767"><ele>184.0</ele><time>2026-04-26T11:18:51.41Z</time></trkpt><trkpt lat="31.5212833" lon="-9.6312333"><ele>185.0</ele><time>2026-04-26T11:18:52.41Z</time></trkpt><trkpt lat="31.52131" lon="-9.6309833"><ele>186.0</ele><time>2026-04-26T11:18:53.41Z</time></trkpt><trkpt lat="31.521325" lon="-9.630735"><ele>187.0</ele><time>2026-04-26T11:18:54.41Z</time></trkpt><trkpt lat="31.52132" lon="-9.6304933"><ele>188.0</ele><time>2026-04-26T11:18:55.41Z</time></trkpt><trkpt lat="31.521305" lon="-9.6302633"><ele>189.0</ele><time>2026-04-26T11:18:56.41Z</time></trkpt><trkpt lat="31.521295" lon="-9.63003"><ele>189.0</ele><time>2026-04-26T11:18:57.41Z</time></trkpt><trkpt lat="31.5212783" lon="-9.629795"><ele>189.0</ele><time>2026-04-26T11:18:58.41Z</time></trkpt><trkpt lat="31.5212617" lon="-9.6295567"><ele>189.0</ele><time>2026-04-26T11:18:59.41Z</time></trkpt><trkpt lat="31.5212483" lon="-9.6293183"><ele>189.66666666666666</ele><time>2026-04-26T11:19:00.41Z</time></trkpt><trkpt lat="31.52123" lon="-9.6290783"><ele>190.33333333333331</ele><time>2026-04-26T11:19:01.41Z</time></trkpt><trkpt lat="31.521215" lon="-9.628845"><ele>191.0</ele><time>2026-04-26T11:19:02.41Z</time></trkpt><trkpt lat="31.521195" lon="-9.628605"><ele>192.66666666666666</ele><time>2026-04-26T11:19:03.41Z</time></trkpt><trkpt lat="31.52118" lon="-9.6283667"><ele>194.33333333333331</ele><time>2026-04-26T11:19:04.41Z</time></trkpt><trkpt lat="31.5211633" lon="-9.6281283"><ele>196.0</ele><time>2026-04-26T11:19:05.41Z</time></trkpt><trkpt lat="31.5211533" lon="-9.6278883"><ele>196.0</ele><time>2026-04-26T11:19:06.41Z</time></trkpt><trkpt lat="31.5211533" lon="-9.627655"><ele>196.0</ele><time>2026-04-26T11:19:07.41Z</time></trkpt><trkpt lat="31.521155" lon="-9.6274233"><ele>196.0</ele><time>2026-04-26T11:19:08.41Z</time></trkpt><trkpt lat="31.5211717" lon="-9.6271983"><ele>197.0</ele><time>2026-04-26T11:19:09.41Z</time></trkpt><trkpt lat="31.5211983" lon="-9.6269717"><ele>198.0</ele><time>2026-04-26T11:19:10.41Z</time></trkpt><trkpt lat="31.52124" lon="-9.6267467"><ele>199.0</ele><time>2026-04-26T11:19:11.41Z</time></trkpt><trkpt lat="31.521305" lon="-9.6265267"><ele>199.33333333333331</ele><time>2026-04-26T11:19:12.41Z</time></trkpt><trkpt lat="31.5213867" lon="-9.6263033"><ele>199.66666666666669</ele><time>2026-04-26T11:19:13.41Z</time></trkpt><trkpt lat="31.521485" lon="-9.6260933"><ele>200.0</ele><time>2026-04-26T11:19:14.41Z</time></trkpt><trkpt lat="31.5215933" lon="-9.62589"><ele>199.33333333333334</ele><time>2026-04-26T11:19:15.41Z</time></trkpt><trkpt lat="31.521705" lon="-9.6256867"><ele>198.66666666666669</ele><time>2026-04-26T11:19:16.41Z</time></trkpt><trkpt lat="31.5218217" lon="-9.6254817"><ele>198.0</ele><time>2026-04-26T11:19:17.41Z</time></trkpt><trkpt lat="31.52194" lon="-9.6252783"><ele>198.0</ele><time>2026-04-26T11:19:18.411Z</time></trkpt><trkpt lat="31.5220633" lon="-9.6250733"><ele>198.0</ele><time>2026-04-26T11:19:19.411Z</time></trkpt><trkpt lat="31.5221883" lon="-9.624865"><ele>198.0</ele><time>2026-04-26T11:19:20.41Z</time></trkpt><trkpt lat="31.5223133" lon="-9.6246583"><ele>198.0</ele><time>2026-04-26T11:19:21.41Z</time></trkpt><trkpt lat="31.5224367" lon="-9.624455"><ele>198.0</ele><time>2026-04-26T11:19:22.41Z</time></trkpt><trkpt lat="31.5225533" lon="-9.6242583"><ele>198.0</ele><time>2026-04-26T11:19:23.41Z</time></trkpt><trkpt lat="31.5226683" lon="-9.6240683"><ele>198.0</ele><time>2026-04-26T11:19:24.41Z</time></trkpt><trkpt lat="31.5227833" lon="-9.623875"><ele>198.0</ele><time>2026-04-26T11:19:25.41Z</time></trkpt><trkpt lat="31.5229" lon="-9.6236783"><ele>198.0</ele><time>2026-04-26T11:19:26.41Z</time></trkpt><trkpt lat="31.523015" lon="-9.623475"><ele>197.0</ele><time>2026-04-26T11:19:27.41Z</time></trkpt><trkpt lat="31.52313" lon="-9.6232767"><ele>196.0</ele><time>2026-04-26T11:19:28.41Z</time></trkpt><trkpt lat="31.523245" lon="-9.623075"><ele>195.0</ele><time>2026-04-26T11:19:29.41Z</time></trkpt><trkpt lat="31.5233617" lon="-9.622875"><ele>194.66666666666669</ele><time>2026-04-26T11:19:30.411Z</time></trkpt><trkpt lat="31.5234733" lon="-9.6226767"><ele>194.33333333333334</ele><time>2026-04-26T11:19:31.41Z</time></trkpt><trkpt lat="31.5235883" lon="-9.6224783"><ele>194.0</ele><time>2026-04-26T11:19:32.41Z</time></trkpt><trkpt lat="31.5237067" lon="-9.622275"><ele>193.66666666666669</ele><time>2026-04-26T11:19:33.41Z</time></trkpt><trkpt lat="31.5238233" lon="-9.6220733"><ele>193.33333333333331</ele><time>2026-04-26T11:19:34.41Z</time></trkpt><trkpt lat="31.523935" lon="-9.62187"><ele>193.0</ele><time>2026-04-26T11:19:35.41Z</time></trkpt><trkpt lat="31.5240317" lon="-9.6216617"><ele>194.0</ele><time>2026-04-26T11:19:36.41Z</time></trkpt><trkpt lat="31.5241167" lon="-9.6214417"><ele>195.0</ele><time>2026-04-26T11:19:37.41Z</time></trkpt><trkpt lat="31.5241917" lon="-9.6212133"><ele>196.0</ele><time>2026-04-26T11:19:38.41Z</time></trkpt><trkpt lat="31.5242517" lon="-9.6209817"><ele>197.33333333333331</ele><time>2026-04-26T11:19:39.41Z</time></trkpt><trkpt lat="31.5242933" lon="-9.6207433"><ele>198.66666666666669</ele><time>2026-04-26T11:19:40.41Z</time></trkpt><trkpt lat="31.5243233" lon="-9.6205"><ele>200.0</ele><time>2026-04-26T11:19:41.41Z</time></trkpt><trkpt lat="31.5243483" lon="-9.620265"><ele>201.0</ele><time>2026-04-26T11:19:42.41Z</time></trkpt><trkpt lat="31.5243767" lon="-9.620025"><ele>202.0</ele><time>2026-04-26T11:19:43.41Z</time></trkpt><trkpt lat="31.5244" lon="-9.619785"><ele>203.0</ele><time>2026-04-26T11:19:44.41Z</time></trkpt><trkpt lat="31.5244233" lon="-9.6195467"><ele>203.66666666666669</ele><time>2026-04-26T11:19:45.41Z</time></trkpt><trkpt lat="31.52445" lon="-9.6193083"><ele>204.33333333333331</ele><time>2026-04-26T11:19:46.41Z</time></trkpt><trkpt lat="31.524485" lon="-9.6190717"><ele>205.0</ele><time>2026-04-26T11:19:47.41Z</time></trkpt><trkpt lat="31.5245133" lon="-9.6188383"><ele>205.33333333333331</ele><time>2026-04-26T11:19:48.41Z</time></trkpt><trkpt lat="31.52454" lon="-9.6186033"><ele>205.66666666666669</ele><time>2026-04-26T11:19:49.41Z</time></trkpt><trkpt lat="31.5245667" lon="-9.618365"><ele>206.0</ele><time>2026-04-26T11:19:50.41Z</time></trkpt><trkpt lat="31.5245967" lon="-9.618125"><ele>207.66666666666669</ele><time>2026-04-26T11:19:51.41Z</time></trkpt><trkpt lat="31.5246283" lon="-9.61788"><ele>209.33333333333331</ele><time>2026-04-26T11:19:52.41Z</time></trkpt><trkpt lat="31.5246567" lon="-9.61764"><ele>211.0</ele><time>2026-04-26T11:19:53.41Z</time></trkpt><trkpt lat="31.5246867" lon="-9.6173983"><ele>211.0</ele><time>2026-04-26T11:19:54.41Z</time></trkpt><trkpt lat="31.5247183" lon="-9.617155"><ele>211.0</ele><time>2026-04-26T11:19:55.41Z</time></trkpt><trkpt lat="31.5247483" lon="-9.6169167"><ele>211.0</ele><time>2026-04-26T11:19:56.41Z</time></trkpt><trkpt lat="31.52477" lon="-9.616675"><ele>211.33333333333331</ele><time>2026-04-26T11:19:57.41Z</time></trkpt><trkpt lat="31.524795" lon="-9.6164333"><ele>211.66666666666669</ele><time>2026-04-26T11:19:58.41Z</time></trkpt><trkpt lat="31.524825" lon="-9.6161883"><ele>212.0</ele><time>2026-04-26T11:19:59.41Z</time></trkpt><trkpt lat="31.524855" lon="-9.6159483"><ele>212.66666666666669</ele><time>2026-04-26T11:20:00.41Z</time></trkpt><trkpt lat="31.5248883" lon="-9.6157033"><ele>213.33333333333331</ele><time>2026-04-26T11:20:01.41Z</time></trkpt><trkpt lat="31.5249233" lon="-9.6154617"><ele>214.0</ele><time>2026-04-26T11:20:02.41Z</time></trkpt><trkpt lat="31.5249667" lon="-9.6152233"><ele>214.66666666666666</ele><time>2026-04-26T11:20:03.41Z</time></trkpt><trkpt lat="31.525025" lon="-9.6149817"><ele>215.33333333333331</ele><time>2026-04-26T11:20:04.41Z</time></trkpt><trkpt lat="31.5250917" lon="-9.6147467"><ele>216.0</ele><time>2026-04-26T11:20:05.41Z</time></trkpt><trkpt lat="31.5251767" lon="-9.6145167"><ele>216.0</ele><time>2026-04-26T11:20:06.41Z</time></trkpt><trkpt lat="31.5252767" lon="-9.614295"><ele>216.0</ele><time>2026-04-26T11:20:07.41Z</time></trkpt><trkpt lat="31.525385" lon="-9.614085"><ele>216.0</ele><time>2026-04-26T11:20:08.41Z</time></trkpt><trkpt lat="31.5254983" lon="-9.6138717"><ele>216.0</ele><time>2026-04-26T11:20:09.41Z</time></trkpt><trkpt lat="31.525615" lon="-9.6136567"><ele>216.0</ele><time>2026-04-26T11:20:10.41Z</time></trkpt><trkpt lat="31.5257283" lon="-9.6134333"><ele>216.0</ele><time>2026-04-26T11:20:11.41Z</time></trkpt><trkpt lat="31.5258417" lon="-9.6132133"><ele>217.33333333333331</ele><time>2026-04-26T11:20:12.41Z</time></trkpt><trkpt lat="31.5259533" lon="-9.6129967"><ele>218.66666666666666</ele><time>2026-04-26T11:20:13.41Z</time></trkpt><trkpt lat="31.52607" lon="-9.6127783"><ele>220.0</ele><time>2026-04-26T11:20:14.411Z</time></trkpt><trkpt lat="31.5261917" lon="-9.6125533"><ele>219.66666666666666</ele><time>2026-04-26T11:20:15.41Z</time></trkpt><trkpt lat="31.526315" lon="-9.6123317"><ele>219.33333333333331</ele><time>2026-04-26T11:20:16.41Z</time></trkpt><trkpt lat="31.5264333" lon="-9.61211"><ele>219.0</ele><time>2026-04-26T11:20:17.41Z</time></trkpt><trkpt lat="31.5265483" lon="-9.6118917"><ele>219.66666666666669</ele><time>2026-04-26T11:20:18.41Z</time></trkpt><trkpt lat="31.5266633" lon="-9.6116717"><ele>220.33333333333334</ele><time>2026-04-26T11:20:19.41Z</time></trkpt><trkpt lat="31.5267833" lon="-9.6114533"><ele>221.0</ele><time>2026-04-26T11:20:20.41Z</time></trkpt><trkpt lat="31.5269017" lon="-9.6112283"><ele>221.66666666666669</ele><time>2026-04-26T11:20:21.41Z</time></trkpt><trkpt lat="31.52702" lon="-9.611005"><ele>222.33333333333331</ele><time>2026-04-26T11:20:22.41Z</time></trkpt><trkpt lat="31.5271333" lon="-9.6107917"><ele>223.0</ele><time>2026-04-26T11:20:23.41Z</time></trkpt><trkpt lat="31.5272417" lon="-9.6105767"><ele>223.33333333333331</ele><time>2026-04-26T11:20:24.41Z</time></trkpt><trkpt lat="31.5273483" lon="-9.6103733"><ele>223.66666666666669</ele><time>2026-04-26T11:20:25.41Z</time></trkpt><trkpt lat="31.527455" lon="-9.610175"><ele>224.0</ele><time>2026-04-26T11:20:26.41Z</time></trkpt><trkpt lat="31.5275583" lon="-9.60998"><ele>224.0</ele><time>2026-04-26T11:20:27.41Z</time></trkpt><trkpt lat="31.5276633" lon="-9.6097833"><ele>224.0</ele><time>2026-04-26T11:20:28.41Z</time></trkpt><trkpt lat="31.527765" lon="-9.609585"><ele>224.0</ele><time>2026-04-26T11:20:29.41Z</time></trkpt><trkpt lat="31.527865" lon="-9.6093883"><ele>223.66666666666669</ele><time>2026-04-26T11:20:30.41Z</time></trkpt><trkpt lat="31.5279717" lon="-9.609195"><ele>223.33333333333331</ele><time>2026-04-26T11:20:31.41Z</time></trkpt><trkpt lat="31.5280733" lon="-9.6090017"><ele>223.0</ele><time>2026-04-26T11:20:32.41Z</time></trkpt><trkpt lat="31.5281733" lon="-9.6088067"><ele>223.0</ele><time>2026-04-26T11:20:33.41Z</time></trkpt><trkpt lat="31.5282783" lon="-9.6086133"><ele>223.0</ele><time>2026-04-26T11:20:34.41Z</time></trkpt><trkpt lat="31.5283817" lon="-9.60842"><ele>223.0</ele><time>2026-04-26T11:20:35.41Z</time></trkpt><trkpt lat="31.5284833" lon="-9.6082283"><ele>223.0</ele><time>2026-04-26T11:20:36.41Z</time></trkpt><trkpt lat="31.5285917" lon="-9.60803"><ele>223.0</ele><time>2026-04-26T11:20:37.41Z</time></trkpt><trkpt lat="31.5286967" lon="-9.6078283"><ele>223.0</ele><time>2026-04-26T11:20:38.41Z</time></trkpt><trkpt lat="31.5288017" lon="-9.60763"><ele>223.66666666666666</ele><time>2026-04-26T11:20:39.41Z</time></trkpt><trkpt lat="31.5289083" lon="-9.60743"><ele>224.33333333333331</ele><time>2026-04-26T11:20:40.41Z</time></trkpt><trkpt lat="31.529015" lon="-9.60723"><ele>225.0</ele><time>2026-04-26T11:20:41.411Z</time></trkpt><trkpt lat="31.5291183" lon="-9.60703"><ele>225.33333333333331</ele><time>2026-04-26T11:20:42.41Z</time></trkpt><trkpt lat="31.5292233" lon="-9.6068333"><ele>225.66666666666666</ele><time>2026-04-26T11:20:43.41Z</time></trkpt><trkpt lat="31.5293367" lon="-9.6066333"><ele>226.0</ele><time>2026-04-26T11:20:44.41Z</time></trkpt><trkpt lat="31.529455" lon="-9.6064283"><ele>226.0</ele><time>2026-04-26T11:20:45.41Z</time></trkpt><trkpt lat="31.52957" lon="-9.6062183"><ele>226.0</ele><time>2026-04-26T11:20:46.409Z</time></trkpt><trkpt lat="31.52968" lon="-9.606005"><ele>226.0</ele><time>2026-04-26T11:20:47.409Z</time></trkpt><trkpt lat="31.5297917" lon="-9.605795"><ele>226.0</ele><time>2026-04-26T11:20:48.409Z</time></trkpt><trkpt lat="31.5299083" lon="-9.60558"><ele>226.0</ele><time>2026-04-26T11:20:49.409Z</time></trkpt><trkpt lat="31.530025" lon="-9.60537"><ele>226.0</ele><time>2026-04-26T11:20:50.409Z</time></trkpt><trkpt lat="31.53014" lon="-9.6051583"><ele>225.66666666666666</ele><time>2026-04-26T11:20:51.409Z</time></trkpt><trkpt lat="31.5302533" lon="-9.604945"><ele>225.33333333333331</ele><time>2026-04-26T11:20:52.409Z</time></trkpt><trkpt lat="31.5303683" lon="-9.6047333"><ele>225.0</ele><time>2026-04-26T11:20:53.409Z</time></trkpt><trkpt lat="31.5304883" lon="-9.6045233"><ele>224.66666666666669</ele><time>2026-04-26T11:20:54.409Z</time></trkpt><trkpt lat="31.530605" lon="-9.6043017"><ele>224.33333333333334</ele><time>2026-04-26T11:20:55.409Z</time></trkpt><trkpt lat="31.5307183" lon="-9.6040783"><ele>224.0</ele><time>2026-04-26T11:20:56.409Z</time></trkpt><trkpt lat="31.5308333" lon="-9.6038567"><ele>224.0</ele><time>2026-04-26T11:20:57.409Z</time></trkpt><trkpt lat="31.5309483" lon="-9.6036367"><ele>224.0</ele><time>2026-04-26T11:20:58.409Z</time></trkpt><trkpt lat="31.5310667" lon="-9.603415"><ele>224.0</ele><time>2026-04-26T11:20:59.409Z</time></trkpt><trkpt lat="31.531175" lon="-9.6031933"><ele>225.0</ele><time>2026-04-26T11:21:00.409Z</time></trkpt><trkpt lat="31.5312717" lon="-9.602975"><ele>226.0</ele><time>2026-04-26T11:21:01.409Z</time></trkpt><trkpt lat="31.5313583" lon="-9.6027617"><ele>227.0</ele><time>2026-04-26T11:21:02.409Z</time></trkpt><trkpt lat="31.5314333" lon="-9.6025383"><ele>227.66666666666669</ele><time>2026-04-26T11:21:03.409Z</time></trkpt><trkpt lat="31.5314867" lon="-9.6023033"><ele>228.33333333333331</ele><time>2026-04-26T11:21:04.409Z</time></trkpt><trkpt lat="31.5315183" lon="-9.602055"><ele>229.0</ele><time>2026-04-26T11:21:05.409Z</time></trkpt><trkpt lat="31.5315417" lon="-9.6018133"><ele>227.66666666666666</ele><time>2026-04-26T11:21:06.409Z</time></trkpt><trkpt lat="31.5315683" lon="-9.60157"><ele>226.33333333333331</ele><time>2026-04-26T11:21:07.409Z</time></trkpt><trkpt lat="31.5315967" lon="-9.6013267"><ele>225.0</ele><time>2026-04-26T11:21:08.409Z</time></trkpt><trkpt lat="31.5316233" lon="-9.6010833"><ele>223.66666666666669</ele><time>2026-04-26T11:21:09.409Z</time></trkpt><trkpt lat="31.5316467" lon="-9.60084"><ele>222.33333333333334</ele><time>2026-04-26T11:21:10.41Z</time></trkpt><trkpt lat="31.5316683" lon="-9.6005867"><ele>221.0</ele><time>2026-04-26T11:21:11.409Z</time></trkpt><trkpt lat="31.5316933" lon="-9.6003333"><ele>220.0</ele><time>2026-04-26T11:21:12.409Z</time></trkpt><trkpt lat="31.5317167" lon="-9.6000767"><ele>219.0</ele><time>2026-04-26T11:21:13.409Z</time></trkpt><trkpt lat="31.5317367" lon="-9.5998233"><ele>218.0</ele><time>2026-04-26T11:21:14.409Z</time></trkpt><trkpt lat="31.5317583" lon="-9.59958"><ele>217.0</ele><time>2026-04-26T11:21:15.409Z</time></trkpt><trkpt lat="31.531775" lon="-9.59934"><ele>216.0</ele><time>2026-04-26T11:21:16.409Z</time></trkpt><trkpt lat="31.531795" lon="-9.5991117"><ele>215.0</ele><time>2026-04-26T11:21:17.409Z</time></trkpt><trkpt lat="31.53182" lon="-9.598885"><ele>215.0</ele><time>2026-04-26T11:21:18.409Z</time></trkpt><trkpt lat="31.5318433" lon="-9.5986717"><ele>215.0</ele><time>2026-04-26T11:21:19.41Z</time></trkpt><trkpt lat="31.53186" lon="-9.5984583"><ele>215.0</ele><time>2026-04-26T11:21:20.409Z</time></trkpt><trkpt lat="31.531875" lon="-9.59826"><ele>215.0</ele><time>2026-04-26T11:21:21.41Z</time></trkpt><trkpt lat="31.5318883" lon="-9.5980683"><ele>215.0</ele><time>2026-04-26T11:21:22.409Z</time></trkpt><trkpt lat="31.5318967" lon="-9.5978933"><ele>215.0</ele><time>2026-04-26T11:21:23.409Z</time></trkpt><trkpt lat="31.5319033" lon="-9.5977367"><ele>215.0</ele><time>2026-04-26T11:21:24.409Z</time></trkpt><trkpt lat="31.531895" lon="-9.5975983"><ele>215.0</ele><time>2026-04-26T11:21:25.409Z</time></trkpt><trkpt lat="31.5318867" lon="-9.5974683"><ele>215.0</ele><time>2026-04-26T11:21:26.409Z</time></trkpt><trkpt lat="31.5318783" lon="-9.5973517"><ele>215.0</ele><time>2026-04-26T11:21:27.409Z</time></trkpt><trkpt lat="31.5318917" lon="-9.5972467"><ele>215.0</ele><time>2026-04-26T11:21:28.409Z</time></trkpt><trkpt lat="31.5319267" lon="-9.597145"><ele>215.0</ele><time>2026-04-26T11:21:29.409Z</time></trkpt><trkpt lat="31.5319767" lon="-9.5970367"><ele>214.5</ele><time>2026-04-26T11:21:30.409Z</time></trkpt><trkpt lat="31.5320117" lon="-9.5969133"><ele>214.0</ele><time>2026-04-26T11:21:31.409Z</time></trkpt><trkpt lat="31.5320383" lon="-9.5967683"><ele>213.5</ele><time>2026-04-26T11:21:32.409Z</time></trkpt><trkpt lat="31.5320533" lon="-9.59661"><ele>213.0</ele><time>2026-04-26T11:21:33.409Z</time></trkpt><trkpt lat="31.53207" lon="-9.5964417"><ele>214.33333333333331</ele><time>2026-04-26T11:21:34.409Z</time></trkpt><trkpt lat="31.53209" lon="-9.5962633"><ele>215.66666666666666</ele><time>2026-04-26T11:21:35.409Z</time></trkpt><trkpt lat="31.5321117" lon="-9.5960733"><ele>217.0</ele><time>2026-04-26T11:21:36.409Z</time></trkpt><trkpt lat="31.53213" lon="-9.595875"><ele>217.0</ele><time>2026-04-26T11:21:37.409Z</time></trkpt><trkpt lat="31.5321483" lon="-9.595665"><ele>217.0</ele><time>2026-04-26T11:21:38.409Z</time></trkpt><trkpt lat="31.53217" lon="-9.5954483"><ele>217.0</ele><time>2026-04-26T11:21:39.409Z</time></trkpt><trkpt lat="31.5321933" lon="-9.5952233"><ele>216.66666666666666</ele><time>2026-04-26T11:21:40.409Z</time></trkpt><trkpt lat="31.5322083" lon="-9.5949867"><ele>216.33333333333331</ele><time>2026-04-26T11:21:41.409Z</time></trkpt><trkpt lat="31.532225" lon="-9.5947467"><ele>216.0</ele><time>2026-04-26T11:21:42.409Z</time></trkpt><trkpt lat="31.5322433" lon="-9.5945083"><ele>216.0</ele><time>2026-04-26T11:21:43.409Z</time></trkpt><trkpt lat="31.5322683" lon="-9.594265"><ele>216.0</ele><time>2026-04-26T11:21:44.409Z</time></trkpt><trkpt lat="31.5322933" lon="-9.5940167"><ele>216.0</ele><time>2026-04-26T11:21:45.409Z</time></trkpt><trkpt lat="31.53232" lon="-9.593765"><ele>217.66666666666669</ele><time>2026-04-26T11:21:46.409Z</time></trkpt><trkpt lat="31.53234" lon="-9.5935067"><ele>219.33333333333334</ele><time>2026-04-26T11:21:47.409Z</time></trkpt><trkpt lat="31.5323583" lon="-9.5932533"><ele>221.0</ele><time>2026-04-26T11:21:48.409Z</time></trkpt><trkpt lat="31.5323667" lon="-9.59301"><ele>220.33333333333334</ele><time>2026-04-26T11:21:49.409Z</time></trkpt><trkpt lat="31.5323567" lon="-9.5927667"><ele>219.66666666666669</ele><time>2026-04-26T11:21:50.409Z</time></trkpt><trkpt lat="31.532335" lon="-9.592525"><ele>219.0</ele><time>2026-04-26T11:21:51.409Z</time></trkpt><trkpt lat="31.5323083" lon="-9.592285"><ele>219.0</ele><time>2026-04-26T11:21:52.409Z</time></trkpt><trkpt lat="31.5322717" lon="-9.5920483"><ele>219.0</ele><time>2026-04-26T11:21:53.409Z</time></trkpt><trkpt lat="31.532225" lon="-9.5918133"><ele>219.0</ele><time>2026-04-26T11:21:54.409Z</time></trkpt><trkpt lat="31.53217" lon="-9.5915767"><ele>220.0</ele><time>2026-04-26T11:21:55.409Z</time></trkpt><trkpt lat="31.5321117" lon="-9.59134"><ele>221.0</ele><time>2026-04-26T11:21:56.409Z</time></trkpt><trkpt lat="31.5320567" lon="-9.5911017"><ele>222.0</ele><time>2026-04-26T11:21:57.409Z</time></trkpt><trkpt lat="31.5320017" lon="-9.590865"><ele>223.33333333333331</ele><time>2026-04-26T11:21:58.409Z</time></trkpt><trkpt lat="31.5319483" lon="-9.5906317"><ele>224.66666666666666</ele><time>2026-04-26T11:21:59.409Z</time></trkpt><trkpt lat="31.5318967" lon="-9.590395"><ele>226.0</ele><time>2026-04-26T11:22:00.409Z</time></trkpt><trkpt lat="31.531845" lon="-9.5901567"><ele>226.33333333333331</ele><time>2026-04-26T11:22:01.409Z</time></trkpt><trkpt lat="31.531805" lon="-9.5899183"><ele>226.66666666666669</ele><time>2026-04-26T11:22:02.409Z</time></trkpt><trkpt lat="31.5317683" lon="-9.5896817"><ele>227.0</ele><time>2026-04-26T11:22:03.409Z</time></trkpt><trkpt lat="31.531725" lon="-9.5894467"><ele>227.33333333333334</ele><time>2026-04-26T11:22:04.41Z</time></trkpt><trkpt lat="31.53169" lon="-9.5892033"><ele>227.66666666666669</ele><time>2026-04-26T11:22:05.409Z</time></trkpt><trkpt lat="31.5316517" lon="-9.5889533"><ele>228.0</ele><time>2026-04-26T11:22:06.409Z</time></trkpt><trkpt lat="31.53162" lon="-9.5886967"><ele>229.5</ele><time>2026-04-26T11:22:07.409Z</time></trkpt><trkpt lat="31.5315933" lon="-9.588435"><ele>231.0</ele><time>2026-04-26T11:22:08.409Z</time></trkpt><trkpt lat="31.5315733" lon="-9.58817"><ele>231.0</ele><time>2026-04-26T11:22:09.409Z</time></trkpt><trkpt lat="31.531555" lon="-9.5878983"><ele>231.0</ele><time>2026-04-26T11:22:10.409Z</time></trkpt><trkpt lat="31.5315367" lon="-9.58763"><ele>231.5</ele><time>2026-04-26T11:22:11.409Z</time></trkpt><trkpt lat="31.5315217" lon="-9.587355"><ele>232.0</ele><time>2026-04-26T11:22:12.409Z</time></trkpt><trkpt lat="31.53151" lon="-9.5870867"><ele>235.0</ele><time>2026-04-26T11:22:13.409Z</time></trkpt><trkpt lat="31.531495" lon="-9.5868233"><ele>238.0</ele><time>2026-04-26T11:22:14.409Z</time></trkpt><trkpt lat="31.5314783" lon="-9.58656"><ele>238.0</ele><time>2026-04-26T11:22:15.409Z</time></trkpt><trkpt lat="31.53146" lon="-9.5863"><ele>238.0</ele><time>2026-04-26T11:22:16.41Z</time></trkpt><trkpt lat="31.531435" lon="-9.5860533"><ele>238.0</ele><time>2026-04-26T11:22:17.409Z</time></trkpt><trkpt lat="31.531405" lon="-9.5858117"><ele>239.66666666666666</ele><time>2026-04-26T11:22:18.409Z</time></trkpt><trkpt lat="31.5313767" lon="-9.5855783"><ele>241.33333333333331</ele><time>2026-04-26T11:22:19.409Z</time></trkpt><trkpt lat="31.531345" lon="-9.5853517"><ele>243.0</ele><time>2026-04-26T11:22:20.409Z</time></trkpt><trkpt lat="31.5313117" lon="-9.5851267"><ele>244.0</ele><time>2026-04-26T11:22:21.409Z</time></trkpt><trkpt lat="31.5312817" lon="-9.5849067"><ele>245.0</ele><time>2026-04-26T11:22:22.409Z</time></trkpt><trkpt lat="31.5312533" lon="-9.58469"><ele>246.0</ele><time>2026-04-26T11:22:23.409Z</time></trkpt><trkpt lat="31.531225" lon="-9.5844717"><ele>249.33333333333331</ele><time>2026-04-26T11:22:24.409Z</time></trkpt><trkpt lat="31.5311933" lon="-9.5842517"><ele>252.66666666666666</ele><time>2026-04-26T11:22:25.409Z</time></trkpt><trkpt lat="31.531175" lon="-9.5840333"><ele>256.0</ele><time>2026-04-26T11:22:26.409Z</time></trkpt><trkpt lat="31.5311583" lon="-9.583815"><ele>256.0</ele><time>2026-04-26T11:22:27.409Z</time></trkpt><trkpt lat="31.5311533" lon="-9.58359"><ele>256.0</ele><time>2026-04-26T11:22:28.409Z</time></trkpt><trkpt lat="31.531155" lon="-9.583365"><ele>256.0</ele><time>2026-04-26T11:22:29.409Z</time></trkpt><trkpt lat="31.5311633" lon="-9.583145"><ele>256.0</ele><time>2026-04-26T11:22:30.409Z</time></trkpt><trkpt lat="31.531175" lon="-9.5829233"><ele>256.0</ele><time>2026-04-26T11:22:31.409Z</time></trkpt><trkpt lat="31.5311833" lon="-9.5827033"><ele>256.0</ele><time>2026-04-26T11:22:32.41Z</time></trkpt><trkpt lat="31.5311867" lon="-9.5824833"><ele>256.0</ele><time>2026-04-26T11:22:33.409Z</time></trkpt><trkpt lat="31.5311867" lon="-9.58226"><ele>256.0</ele><time>2026-04-26T11:22:34.409Z</time></trkpt><trkpt lat="31.5311733" lon="-9.5820333"><ele>256.0</ele><time>2026-04-26T11:22:35.409Z</time></trkpt><trkpt lat="31.531155" lon="-9.5818017"><ele>258.66666666666663</ele><time>2026-04-26T11:22:36.409Z</time></trkpt><trkpt lat="31.5311367" lon="-9.5815733"><ele>261.3333333333333</ele><time>2026-04-26T11:22:37.409Z</time></trkpt><trkpt lat="31.5311083" lon="-9.5813383"><ele>264.0</ele><time>2026-04-26T11:22:38.409Z</time></trkpt><trkpt lat="31.5310717" lon="-9.5811033"><ele>264.3333333333333</ele><time>2026-04-26T11:22:39.409Z</time></trkpt><trkpt lat="31.5310267" lon="-9.58087"><ele>264.66666666666663</ele><time>2026-04-26T11:22:40.409Z</time></trkpt><trkpt lat="31.530975" lon="-9.58064"><ele>265.0</ele><time>2026-04-26T11:22:41.409Z</time></trkpt><trkpt lat="31.5309133" lon="-9.5804083"><ele>265.3333333333333</ele><time>2026-04-26T11:22:42.409Z</time></trkpt><trkpt lat="31.5308533" lon="-9.5801767"><ele>265.6666666666667</ele><time>2026-04-26T11:22:43.409Z</time></trkpt><trkpt lat="31.530795" lon="-9.5799367"><ele>266.0</ele><time>2026-04-26T11:22:44.409Z</time></trkpt><trkpt lat="31.5307417" lon="-9.5797"><ele>266.0</ele><time>2026-04-26T11:22:45.409Z</time></trkpt><trkpt lat="31.5306783" lon="-9.5794583"><ele>266.0</ele><time>2026-04-26T11:22:46.409Z</time></trkpt><trkpt lat="31.5306233" lon="-9.579215"><ele>266.0</ele><time>2026-04-26T11:22:47.409Z</time></trkpt><trkpt lat="31.530565" lon="-9.5789717"><ele>266.0</ele><time>2026-04-26T11:22:48.409Z</time></trkpt><trkpt lat="31.53051" lon="-9.578725"><ele>266.0</ele><time>2026-04-26T11:22:49.409Z</time></trkpt><trkpt lat="31.530455" lon="-9.5784783"><ele>266.0</ele><time>2026-04-26T11:22:50.409Z</time></trkpt><trkpt lat="31.5303933" lon="-9.578225"><ele>269.0</ele><time>2026-04-26T11:22:51.409Z</time></trkpt><trkpt lat="31.530335" lon="-9.5779817"><ele>272.0</ele><time>2026-04-26T11:22:52.409Z</time></trkpt><trkpt lat="31.5302783" lon="-9.5777383"><ele>275.0</ele><time>2026-04-26T11:22:53.409Z</time></trkpt><trkpt lat="31.530225" lon="-9.5774917"><ele>275.33333333333337</ele><time>2026-04-26T11:22:54.409Z</time></trkpt><trkpt lat="31.5301817" lon="-9.5772483"><ele>275.6666666666667</ele><time>2026-04-26T11:22:55.409Z</time></trkpt><trkpt lat="31.53014" lon="-9.577005"><ele>276.0</ele><time>2026-04-26T11:22:56.41Z</time></trkpt><trkpt lat="31.5301033" lon="-9.5767683"><ele>276.3333333333333</ele><time>2026-04-26T11:22:57.409Z</time></trkpt><trkpt lat="31.5300733" lon="-9.5765333"><ele>276.66666666666663</ele><time>2026-04-26T11:22:58.409Z</time></trkpt><trkpt lat="31.5300417" lon="-9.5762983"><ele>277.0</ele><time>2026-04-26T11:22:59.409Z</time></trkpt><trkpt lat="31.5300167" lon="-9.5760733"><ele>278.0</ele><time>2026-04-26T11:23:00.409Z</time></trkpt><trkpt lat="31.5299917" lon="-9.5758433"><ele>279.0</ele><time>2026-04-26T11:23:01.409Z</time></trkpt><trkpt lat="31.52997" lon="-9.5756117"><ele>280.0</ele><time>2026-04-26T11:23:02.409Z</time></trkpt><trkpt lat="31.5299483" lon="-9.5753783"><ele>280.0</ele><time>2026-04-26T11:23:03.409Z</time></trkpt><trkpt lat="31.5299217" lon="-9.5751333"><ele>280.0</ele><time>2026-04-26T11:23:04.409Z</time></trkpt><trkpt lat="31.529895" lon="-9.5748933"><ele>280.0</ele><time>2026-04-26T11:23:05.409Z</time></trkpt><trkpt lat="31.5298683" lon="-9.5746517"><ele>279.0</ele><time>2026-04-26T11:23:06.409Z</time></trkpt><trkpt lat="31.52984" lon="-9.57441"><ele>278.0</ele><time>2026-04-26T11:23:07.409Z</time></trkpt><trkpt lat="31.5298133" lon="-9.5741633"><ele>277.0</ele><time>2026-04-26T11:23:08.409Z</time></trkpt><trkpt lat="31.5297917" lon="-9.57392"><ele>277.0</ele><time>2026-04-26T11:23:09.409Z</time></trkpt><trkpt lat="31.529765" lon="-9.5736733"><ele>277.0</ele><time>2026-04-26T11:23:10.409Z</time></trkpt><trkpt lat="31.52974" lon="-9.5734217"><ele>277.0</ele><time>2026-04-26T11:23:11.41Z</time></trkpt><trkpt lat="31.5297117" lon="-9.57317"><ele>277.0</ele><time>2026-04-26T11:23:12.409Z</time></trkpt><trkpt lat="31.529685" lon="-9.5729167"><ele>277.0</ele><time>2026-04-26T11:23:13.409Z</time></trkpt><trkpt lat="31.5296567" lon="-9.5726667"><ele>277.0</ele><time>2026-04-26T11:23:14.409Z</time></trkpt><trkpt lat="31.5296317" lon="-9.5724133"><ele>277.0</ele><time>2026-04-26T11:23:15.409Z</time></trkpt><trkpt lat="31.5296067" lon="-9.5721633"><ele>277.0</ele><time>2026-04-26T11:23:16.409Z</time></trkpt><trkpt lat="31.5295817" lon="-9.5719183"><ele>277.0</ele><time>2026-04-26T11:23:17.409Z</time></trkpt><trkpt lat="31.5295567" lon="-9.57168"><ele>275.3333333333333</ele><time>2026-04-26T11:23:18.409Z</time></trkpt><trkpt lat="31.5295367" lon="-9.5714417"><ele>273.6666666666667</ele><time>2026-04-26T11:23:19.409Z</time></trkpt><trkpt lat="31.529515" lon="-9.5712083"><ele>272.0</ele><time>2026-04-26T11:23:20.409Z</time></trkpt><trkpt lat="31.5294933" lon="-9.5709817"><ele>271.33333333333337</ele><time>2026-04-26T11:23:21.409Z</time></trkpt><trkpt lat="31.5294783" lon="-9.5707533"><ele>270.6666666666667</ele><time>2026-04-26T11:23:22.409Z</time></trkpt><trkpt lat="31.52947" lon="-9.5705233"><ele>270.0</ele><time>2026-04-26T11:23:23.409Z</time></trkpt><trkpt lat="31.5294717" lon="-9.57029"><ele>270.0</ele><time>2026-04-26T11:23:24.409Z</time></trkpt><trkpt lat="31.5294767" lon="-9.5700517"><ele>270.0</ele><time>2026-04-26T11:23:25.409Z</time></trkpt><trkpt lat="31.5294767" lon="-9.5698117"><ele>270.0</ele><time>2026-04-26T11:23:26.41Z</time></trkpt><trkpt lat="31.529485" lon="-9.5695683"><ele>269.6666666666667</ele><time>2026-04-26T11:23:27.409Z</time></trkpt><trkpt lat="31.529515" lon="-9.5693233"><ele>269.33333333333337</ele><time>2026-04-26T11:23:28.409Z</time></trkpt><trkpt lat="31.5295517" lon="-9.569075"><ele>269.0</ele><time>2026-04-26T11:23:29.409Z</time></trkpt><trkpt lat="31.5296" lon="-9.568825"><ele>268.33333333333337</ele><time>2026-04-26T11:23:30.409Z</time></trkpt><trkpt lat="31.529645" lon="-9.5685767"><ele>267.6666666666667</ele><time>2026-04-26T11:23:31.409Z</time></trkpt><trkpt lat="31.52969" lon="-9.5683267"><ele>267.0</ele><time>2026-04-26T11:23:32.409Z</time></trkpt><trkpt lat="31.52974" lon="-9.5680783"><ele>265.6666666666667</ele><time>2026-04-26T11:23:33.409Z</time></trkpt><trkpt lat="31.52979" lon="-9.567825"><ele>264.33333333333337</ele><time>2026-04-26T11:23:34.409Z</time></trkpt><trkpt lat="31.5298367" lon="-9.5675683"><ele>263.0</ele><time>2026-04-26T11:23:35.409Z</time></trkpt><trkpt lat="31.529885" lon="-9.5673133"><ele>263.0</ele><time>2026-04-26T11:23:36.409Z</time></trkpt><trkpt lat="31.5299317" lon="-9.5670583"><ele>263.0</ele><time>2026-04-26T11:23:37.409Z</time></trkpt><trkpt lat="31.5299767" lon="-9.5668"><ele>263.0</ele><time>2026-04-26T11:23:38.409Z</time></trkpt><trkpt lat="31.530025" lon="-9.5665417"><ele>261.6666666666667</ele><time>2026-04-26T11:23:39.409Z</time></trkpt><trkpt lat="31.5300733" lon="-9.5662833"><ele>260.3333333333333</ele><time>2026-04-26T11:23:40.409Z</time></trkpt><trkpt lat="31.5301233" lon="-9.5660283"><ele>259.0</ele><time>2026-04-26T11:23:41.409Z</time></trkpt><trkpt lat="31.5301717" lon="-9.56577"><ele>258.0</ele><time>2026-04-26T11:23:42.409Z</time></trkpt><trkpt lat="31.5302183" lon="-9.5655133"><ele>257.0</ele><time>2026-04-26T11:23:43.409Z</time></trkpt><trkpt lat="31.530265" lon="-9.5652583"><ele>256.0</ele><time>2026-04-26T11:23:44.409Z</time></trkpt><trkpt lat="31.53031" lon="-9.5650033"><ele>256.0</ele><time>2026-04-26T11:23:45.409Z</time></trkpt><trkpt lat="31.5303517" lon="-9.5647483"><ele>256.0</ele><time>2026-04-26T11:23:46.409Z</time></trkpt><trkpt lat="31.5303817" lon="-9.5644883"><ele>256.0</ele><time>2026-04-26T11:23:47.41Z</time></trkpt><trkpt lat="31.5304033" lon="-9.5642267"><ele>258.0</ele><time>2026-04-26T11:23:48.409Z</time></trkpt><trkpt lat="31.5304167" lon="-9.5639617"><ele>260.0</ele><time>2026-04-26T11:23:49.409Z</time></trkpt><trkpt lat="31.530425" lon="-9.5636983"><ele>260.5</ele><time>2026-04-26T11:23:50.409Z</time></trkpt><trkpt lat="31.5304283" lon="-9.5634317"><ele>261.0</ele><time>2026-04-26T11:23:51.409Z</time></trkpt><trkpt lat="31.5304283" lon="-9.5631683"><ele>261.0</ele><time>2026-04-26T11:23:52.409Z</time></trkpt><trkpt lat="31.530425" lon="-9.5628983"><ele>261.0</ele><time>2026-04-26T11:23:53.41Z</time></trkpt><trkpt lat="31.5304217" lon="-9.562625"><ele>259.0</ele><time>2026-04-26T11:23:54.409Z</time></trkpt><trkpt lat="31.530415" lon="-9.562355"><ele>257.0</ele><time>2026-04-26T11:23:55.409Z</time></trkpt><trkpt lat="31.5304083" lon="-9.56208"><ele>256.0</ele><time>2026-04-26T11:23:56.409Z</time></trkpt><trkpt lat="31.5304083" lon="-9.5618083"><ele>255.0</ele><time>2026-04-26T11:23:57.409Z</time></trkpt><trkpt lat="31.53041" lon="-9.5615433"><ele>255.0</ele><time>2026-04-26T11:23:58.409Z</time></trkpt><trkpt lat="31.5304083" lon="-9.56129"><ele>255.0</ele><time>2026-04-26T11:23:59.41Z</time></trkpt><trkpt lat="31.5304133" lon="-9.5610333"><ele>255.0</ele><time>2026-04-26T11:24:00.409Z</time></trkpt><trkpt lat="31.53042" lon="-9.5607783"><ele>254.0</ele><time>2026-04-26T11:24:01.409Z</time></trkpt><trkpt lat="31.5304267" lon="-9.56052"><ele>253.0</ele><time>2026-04-26T11:24:02.409Z</time></trkpt><trkpt lat="31.5304467" lon="-9.5602667"><ele>252.0</ele><time>2026-04-26T11:24:03.409Z</time></trkpt><trkpt lat="31.5304717" lon="-9.5600167"><ele>251.0</ele><time>2026-04-26T11:24:04.409Z</time></trkpt><trkpt lat="31.5305017" lon="-9.5597667"><ele>250.0</ele><time>2026-04-26T11:24:05.409Z</time></trkpt><trkpt lat="31.5305267" lon="-9.559525"><ele>249.0</ele><time>2026-04-26T11:24:06.409Z</time></trkpt><trkpt lat="31.5305533" lon="-9.5592967"><ele>247.66666666666669</ele><time>2026-04-26T11:24:07.409Z</time></trkpt><trkpt lat="31.53058" lon="-9.559075"><ele>246.33333333333334</ele><time>2026-04-26T11:24:08.41Z</time></trkpt><trkpt lat="31.530605" lon="-9.5588617"><ele>245.0</ele><time>2026-04-26T11:24:09.409Z</time></trkpt><trkpt lat="31.5306217" lon="-9.5586517"><ele>244.33333333333334</ele><time>2026-04-26T11:24:10.409Z</time></trkpt><trkpt lat="31.5306433" lon="-9.5584483"><ele>243.66666666666669</ele><time>2026-04-26T11:24:11.409Z</time></trkpt><trkpt lat="31.5306667" lon="-9.558245"><ele>243.0</ele><time>2026-04-26T11:24:12.409Z</time></trkpt><trkpt lat="31.5306917" lon="-9.55803"><ele>241.0</ele><time>2026-04-26T11:24:13.409Z</time></trkpt><trkpt lat="31.5307183" lon="-9.5578083"><ele>239.0</ele><time>2026-04-26T11:24:14.409Z</time></trkpt><trkpt lat="31.5307467" lon="-9.557585"><ele>237.0</ele><time>2026-04-26T11:24:15.409Z</time></trkpt><trkpt lat="31.5307783" lon="-9.557365"><ele>237.0</ele><time>2026-04-26T11:24:16.409Z</time></trkpt><trkpt lat="31.5308133" lon="-9.5571467"><ele>237.0</ele><time>2026-04-26T11:24:17.409Z</time></trkpt><trkpt lat="31.53085" lon="-9.5569317"><ele>237.0</ele><time>2026-04-26T11:24:18.409Z</time></trkpt><trkpt lat="31.5308883" lon="-9.5567183"><ele>236.0</ele><time>2026-04-26T11:24:19.409Z</time></trkpt><trkpt lat="31.5309233" lon="-9.5565017"><ele>235.0</ele><time>2026-04-26T11:24:20.409Z</time></trkpt><trkpt lat="31.5309667" lon="-9.55628"><ele>234.0</ele><time>2026-04-26T11:24:21.409Z</time></trkpt><trkpt lat="31.5310117" lon="-9.5560617"><ele>233.0</ele><time>2026-04-26T11:24:22.41Z</time></trkpt><trkpt lat="31.5310567" lon="-9.55584"><ele>232.0</ele><time>2026-04-26T11:24:23.409Z</time></trkpt><trkpt lat="31.531095" lon="-9.5556233"><ele>231.0</ele><time>2026-04-26T11:24:24.409Z</time></trkpt><trkpt lat="31.5311383" lon="-9.5554167"><ele>230.33333333333331</ele><time>2026-04-26T11:24:25.409Z</time></trkpt><trkpt lat="31.531175" lon="-9.55521"><ele>229.66666666666666</ele><time>2026-04-26T11:24:26.409Z</time></trkpt><trkpt lat="31.53122" lon="-9.5550083"><ele>229.0</ele><time>2026-04-26T11:24:27.409Z</time></trkpt><trkpt lat="31.5312617" lon="-9.5548183"><ele>229.0</ele><time>2026-04-26T11:24:28.409Z</time></trkpt><trkpt lat="31.5312983" lon="-9.5546283"><ele>229.0</ele><time>2026-04-26T11:24:29.409Z</time></trkpt><trkpt lat="31.5313333" lon="-9.5544517"><ele>229.0</ele><time>2026-04-26T11:24:30.409Z</time></trkpt><trkpt lat="31.5313733" lon="-9.5542867"><ele>228.5</ele><time>2026-04-26T11:24:31.409Z</time></trkpt><trkpt lat="31.5314133" lon="-9.5541433"><ele>228.0</ele><time>2026-04-26T11:24:32.409Z</time></trkpt><trkpt lat="31.5314517" lon="-9.5539983"><ele>227.5</ele><time>2026-04-26T11:24:33.409Z</time></trkpt><trkpt lat="31.5314783" lon="-9.55386"><ele>227.0</ele><time>2026-04-26T11:24:34.409Z</time></trkpt><trkpt lat="31.531505" lon="-9.55373"><ele>226.39999999999998</ele><time>2026-04-26T11:24:35.409Z</time></trkpt><trkpt lat="31.53153" lon="-9.5536067"><ele>225.79999999999998</ele><time>2026-04-26T11:24:36.409Z</time></trkpt><trkpt lat="31.531545" lon="-9.5534767"><ele>225.2</ele><time>2026-04-26T11:24:37.409Z</time></trkpt><trkpt lat="31.5315617" lon="-9.5533533"><ele>224.6</ele><time>2026-04-26T11:24:38.409Z</time></trkpt><trkpt lat="31.5315767" lon="-9.5532233"><ele>224.0</ele><time>2026-04-26T11:24:39.409Z</time></trkpt><trkpt lat="31.5316017" lon="-9.5530917"><ele>224.0</ele><time>2026-04-26T11:24:40.409Z</time></trkpt><trkpt lat="31.53163" lon="-9.552955"><ele>224.0</ele><time>2026-04-26T11:24:41.409Z</time></trkpt><trkpt lat="31.5316583" lon="-9.5528133"><ele>224.0</ele><time>2026-04-26T11:24:42.409Z</time></trkpt><trkpt lat="31.5316867" lon="-9.5526667"><ele>224.0</ele><time>2026-04-26T11:24:43.409Z</time></trkpt><trkpt lat="31.53171" lon="-9.5525333"><ele>223.6</ele><time>2026-04-26T11:24:44.409Z</time></trkpt><trkpt lat="31.5317267" lon="-9.5523983"><ele>223.2</ele><time>2026-04-26T11:24:45.409Z</time></trkpt><trkpt lat="31.531735" lon="-9.5522883"><ele>222.79999999999998</ele><time>2026-04-26T11:24:46.409Z</time></trkpt><trkpt lat="31.5317467" lon="-9.5521967"><ele>222.39999999999998</ele><time>2026-04-26T11:24:47.409Z</time></trkpt><trkpt lat="31.5317617" lon="-9.5520917"><ele>222.0</ele><time>2026-04-26T11:24:49.409Z</time></trkpt><trkpt lat="31.53178" lon="-9.551985"><ele>222.0</ele><time>2026-04-26T11:26:15.409Z</time></trkpt><trkpt lat="31.5318067" lon="-9.5519067"><ele>222.0</ele><time>2026-04-26T11:26:16.409Z</time></trkpt><trkpt lat="31.5318267" lon="-9.5518167"><ele>222.0</ele><time>2026-04-26T11:26:17.409Z</time></trkpt><trkpt lat="31.5318483" lon="-9.55171"><ele>222.0</ele><time>2026-04-26T11:26:18.409Z</time></trkpt><trkpt lat="31.5318767" lon="-9.551595"><ele>222.0</ele><time>2026-04-26T11:26:19.409Z</time></trkpt><trkpt lat="31.5319017" lon="-9.5514717"><ele>222.0</ele><time>2026-04-26T11:26:20.409Z</time></trkpt><trkpt lat="31.531935" lon="-9.551345"><ele>222.0</ele><time>2026-04-26T11:26:21.409Z</time></trkpt><trkpt lat="31.5319717" lon="-9.55121"><ele>222.0</ele><time>2026-04-26T11:26:22.409Z</time></trkpt><trkpt lat="31.53201" lon="-9.5510717"><ele>222.0</ele><time>2026-04-26T11:26:23.409Z</time></trkpt><trkpt lat="31.53204" lon="-9.5509383"><ele>222.0</ele><time>2026-04-26T11:26:24.409Z</time></trkpt><trkpt lat="31.5320683" lon="-9.550815"><ele>222.0</ele><time>2026-04-26T11:26:25.41Z</time></trkpt><trkpt lat="31.5320933" lon="-9.5507"><ele>222.0</ele><time>2026-04-26T11:26:26.409Z</time></trkpt><trkpt lat="31.532115" lon="-9.55059"><ele>222.0</ele><time>2026-04-26T11:26:27.409Z</time></trkpt><trkpt lat="31.5321317" lon="-9.5504867"><ele>222.0</ele><time>2026-04-26T11:26:28.409Z</time></trkpt><trkpt lat="31.5321533" lon="-9.55038"><ele>221.8</ele><time>2026-04-26T11:26:29.409Z</time></trkpt><trkpt lat="31.53218" lon="-9.5502733"><ele>221.6</ele><time>2026-04-26T11:26:30.409Z</time></trkpt><trkpt lat="31.5322067" lon="-9.5501617"><ele>221.40000000000003</ele><time>2026-04-26T11:26:31.409Z</time></trkpt><trkpt lat="31.5322333" lon="-9.5500433"><ele>221.20000000000002</ele><time>2026-04-26T11:26:32.41Z</time></trkpt><trkpt lat="31.5322567" lon="-9.5499183"><ele>221.0</ele><time>2026-04-26T11:26:33.409Z</time></trkpt><trkpt lat="31.532285" lon="-9.5497917"><ele>221.0</ele><time>2026-04-26T11:26:34.409Z</time></trkpt><trkpt lat="31.5323133" lon="-9.5496683"><ele>221.0</ele><time>2026-04-26T11:26:35.409Z</time></trkpt><trkpt lat="31.5323417" lon="-9.54954"><ele>221.0</ele><time>2026-04-26T11:26:36.409Z</time></trkpt><trkpt lat="31.532375" lon="-9.54941"><ele>221.0</ele><time>2026-04-26T11:26:37.409Z</time></trkpt><trkpt lat="31.5324017" lon="-9.54928"><ele>221.5</ele><time>2026-04-26T11:26:38.41Z</time></trkpt><trkpt lat="31.5324333" lon="-9.54915"><ele>222.0</ele><time>2026-04-26T11:26:39.409Z</time></trkpt><trkpt lat="31.5324717" lon="-9.5490217"><ele>222.5</ele><time>2026-04-26T11:26:40.409Z</time></trkpt><trkpt lat="31.5325167" lon="-9.5488933"><ele>223.0</ele><time>2026-04-26T11:26:41.41Z</time></trkpt><trkpt lat="31.53255" lon="-9.5487667"><ele>222.8</ele><time>2026-04-26T11:26:42.41Z</time></trkpt><trkpt lat="31.5325783" lon="-9.5486383"><ele>222.60000000000002</ele><time>2026-04-26T11:26:43.409Z</time></trkpt><trkpt lat="31.5326017" lon="-9.548525"><ele>222.39999999999998</ele><time>2026-04-26T11:26:44.409Z</time></trkpt><trkpt lat="31.5326267" lon="-9.548415"><ele>222.2</ele><time>2026-04-26T11:26:45.409Z</time></trkpt><trkpt lat="31.53265" lon="-9.54831"><ele>222.0</ele><time>2026-04-26T11:26:46.409Z</time></trkpt><trkpt lat="31.532665" lon="-9.5481967"><ele>222.0</ele><time>2026-04-26T11:26:47.409Z</time></trkpt><trkpt lat="31.53267" lon="-9.54808"><ele>222.0</ele><time>2026-04-26T11:26:48.409Z</time></trkpt><trkpt lat="31.5326733" lon="-9.5479633"><ele>222.0</ele><time>2026-04-26T11:26:49.409Z</time></trkpt><trkpt lat="31.5326733" lon="-9.5478467"><ele>222.0</ele><time>2026-04-26T11:26:50.409Z</time></trkpt><trkpt lat="31.5326817" lon="-9.5477383"><ele>222.0</ele><time>2026-04-26T11:26:51.409Z</time></trkpt><trkpt lat="31.5327033" lon="-9.5476517"><ele>222.33333333333334</ele><time>2026-04-26T11:26:52.409Z</time></trkpt><trkpt lat="31.53274" lon="-9.54759"><ele>222.66666666666669</ele><time>2026-04-26T11:26:53.409Z</time></trkpt><trkpt lat="31.532845" lon="-9.5475283"><ele>223.0</ele><time>2026-04-26T11:26:55.409Z</time></trkpt><trkpt lat="31.5329117" lon="-9.547555"><ele>223.33333333333334</ele><time>2026-04-26T11:26:58.409Z</time></trkpt><trkpt lat="31.532985" lon="-9.5475767"><ele>223.66666666666669</ele><time>2026-04-26T11:27:00.409Z</time></trkpt><trkpt lat="31.5330617" lon="-9.5475833"><ele>224.0</ele><time>2026-04-26T11:27:02.409Z</time></trkpt><trkpt lat="31.5331417" lon="-9.547575"><ele>223.33333333333334</ele><time>2026-04-26T11:27:05.409Z</time></trkpt><trkpt lat="31.5332033" lon="-9.5475583"><ele>222.66666666666669</ele><time>2026-04-26T11:27:07.409Z</time></trkpt><trkpt lat="31.53329" lon="-9.5475417"><ele>222.0</ele><time>2026-04-26T11:27:09.409Z</time></trkpt><trkpt lat="31.5334133" lon="-9.5475183"><ele>221.33333333333331</ele><time>2026-04-26T11:27:11.409Z</time></trkpt><trkpt lat="31.5334933" lon="-9.547505"><ele>220.66666666666666</ele><time>2026-04-26T11:27:12.409Z</time></trkpt><trkpt lat="31.5335683" lon="-9.5474833"><ele>220.0</ele><time>2026-04-26T11:27:13.409Z</time></trkpt><trkpt lat="31.5336467" lon="-9.5474567"><ele>220.4</ele><time>2026-04-26T11:27:14.409Z</time></trkpt><trkpt lat="31.5337333" lon="-9.5474233"><ele>220.8</ele><time>2026-04-26T11:27:15.409Z</time></trkpt><trkpt lat="31.533825" lon="-9.547385"><ele>221.2</ele><time>2026-04-26T11:27:16.409Z</time></trkpt><trkpt lat="31.5339217" lon="-9.5473433"><ele>221.6</ele><time>2026-04-26T11:27:17.409Z</time></trkpt><trkpt lat="31.5340217" lon="-9.5473083"><ele>222.0</ele><time>2026-04-26T11:27:18.409Z</time></trkpt><trkpt lat="31.534135" lon="-9.5472683"><ele>222.0</ele><time>2026-04-26T11:27:19.409Z</time></trkpt><trkpt lat="31.5342533" lon="-9.54722"><ele>222.0</ele><time>2026-04-26T11:27:20.409Z</time></trkpt><trkpt lat="31.534375" lon="-9.5471667"><ele>222.0</ele><time>2026-04-26T11:27:21.409Z</time></trkpt><trkpt lat="31.5345067" lon="-9.5471033"><ele>222.0</ele><time>2026-04-26T11:27:22.409Z</time></trkpt><trkpt lat="31.5346383" lon="-9.5470433"><ele>221.75</ele><time>2026-04-26T11:27:23.409Z</time></trkpt><trkpt lat="31.5347633" lon="-9.5469883"><ele>221.5</ele><time>2026-04-26T11:27:24.409Z</time></trkpt><trkpt lat="31.5348767" lon="-9.5469333"><ele>221.25</ele><time>2026-04-26T11:27:25.409Z</time></trkpt><trkpt lat="31.5349867" lon="-9.5468833"><ele>221.0</ele><time>2026-04-26T11:27:26.409Z</time></trkpt><trkpt lat="31.5350767" lon="-9.546835"><ele>221.0</ele><time>2026-04-26T11:27:27.409Z</time></trkpt><trkpt lat="31.5351467" lon="-9.5467917"><ele>221.00000000000003</ele><time>2026-04-26T11:27:28.41Z</time></trkpt><trkpt lat="31.535225" lon="-9.54675"><ele>221.00000000000003</ele><time>2026-04-26T11:27:29.409Z</time></trkpt><trkpt lat="31.5353083" lon="-9.54672"><ele>221.0</ele><time>2026-04-26T11:27:30.408Z</time></trkpt><trkpt lat="31.53541" lon="-9.5466917"><ele>221.0</ele><time>2026-04-26T11:27:31.408Z</time></trkpt><trkpt lat="31.5355333" lon="-9.5466583"><ele>220.33333333333334</ele><time>2026-04-26T11:27:32.408Z</time></trkpt><trkpt lat="31.5356833" lon="-9.546605"><ele>219.66666666666669</ele><time>2026-04-26T11:27:33.408Z</time></trkpt><trkpt lat="31.5358467" lon="-9.5465433"><ele>219.0</ele><time>2026-04-26T11:27:34.408Z</time></trkpt><trkpt lat="31.5359967" lon="-9.5464717"><ele>219.0</ele><time>2026-04-26T11:27:35.408Z</time></trkpt><trkpt lat="31.5361483" lon="-9.54641"><ele>219.0</ele><time>2026-04-26T11:27:36.408Z</time></trkpt><trkpt lat="31.5363033" lon="-9.5463467"><ele>219.0</ele><time>2026-04-26T11:27:37.408Z</time></trkpt><trkpt lat="31.5364567" lon="-9.5462917"><ele>219.25</ele><time>2026-04-26T11:27:38.408Z</time></trkpt><trkpt lat="31.5366" lon="-9.546235"><ele>219.5</ele><time>2026-04-26T11:27:39.408Z</time></trkpt><trkpt lat="31.5367417" lon="-9.5461683"><ele>219.75</ele><time>2026-04-26T11:27:40.408Z</time></trkpt><trkpt lat="31.5368783" lon="-9.5461133"><ele>220.0</ele><time>2026-04-26T11:27:41.408Z</time></trkpt><trkpt lat="31.537005" lon="-9.54605"><ele>220.0</ele><time>2026-04-26T11:27:42.408Z</time></trkpt><trkpt lat="31.5371383" lon="-9.545995"><ele>220.0</ele><time>2026-04-26T11:27:43.408Z</time></trkpt><trkpt lat="31.537275" lon="-9.54594"><ele>220.0</ele><time>2026-04-26T11:27:44.408Z</time></trkpt><trkpt lat="31.537415" lon="-9.54588"><ele>220.0</ele><time>2026-04-26T11:27:45.408Z</time></trkpt><trkpt lat="31.537545" lon="-9.545825"><ele>220.0</ele><time>2026-04-26T11:27:46.409Z</time></trkpt><trkpt lat="31.5376883" lon="-9.5457667"><ele>220.0</ele><time>2026-04-26T11:27:47.408Z</time></trkpt><trkpt lat="31.537855" lon="-9.545705"><ele>220.0</ele><time>2026-04-26T11:27:48.409Z</time></trkpt><trkpt lat="31.5380133" lon="-9.54564"><ele>220.33333333333331</ele><time>2026-04-26T11:27:49.408Z</time></trkpt><trkpt lat="31.53818" lon="-9.54557"><ele>220.66666666666669</ele><time>2026-04-26T11:27:50.408Z</time></trkpt><trkpt lat="31.538355" lon="-9.5454983"><ele>221.0</ele><time>2026-04-26T11:27:51.408Z</time></trkpt><trkpt lat="31.5385383" lon="-9.5454233"><ele>220.66666666666669</ele><time>2026-04-26T11:27:52.408Z</time></trkpt><trkpt lat="31.538715" lon="-9.545345"><ele>220.33333333333331</ele><time>2026-04-26T11:27:53.408Z</time></trkpt><trkpt lat="31.5388867" lon="-9.5452717"><ele>220.0</ele><time>2026-04-26T11:27:54.408Z</time></trkpt><trkpt lat="31.5390567" lon="-9.5451967"><ele>219.66666666666666</ele><time>2026-04-26T11:27:55.408Z</time></trkpt><trkpt lat="31.539235" lon="-9.545125"><ele>219.33333333333331</ele><time>2026-04-26T11:27:56.408Z</time></trkpt><trkpt lat="31.5394183" lon="-9.5450517"><ele>219.0</ele><time>2026-04-26T11:27:57.408Z</time></trkpt><trkpt lat="31.5396083" lon="-9.5449667"><ele>219.0</ele><time>2026-04-26T11:27:58.409Z</time></trkpt><trkpt lat="31.539795" lon="-9.54489"><ele>219.0</ele><time>2026-04-26T11:27:59.408Z</time></trkpt><trkpt lat="31.53998" lon="-9.5448183"><ele>219.0</ele><time>2026-04-26T11:28:00.408Z</time></trkpt><trkpt lat="31.5401583" lon="-9.54475"><ele>219.0</ele><time>2026-04-26T11:28:01.408Z</time></trkpt><trkpt lat="31.54033" lon="-9.544675"><ele>219.0</ele><time>2026-04-26T11:28:02.408Z</time></trkpt><trkpt lat="31.540495" lon="-9.5446067"><ele>219.0</ele><time>2026-04-26T11:28:03.408Z</time></trkpt><trkpt lat="31.5406667" lon="-9.5445333"><ele>218.33333333333331</ele><time>2026-04-26T11:28:04.408Z</time></trkpt><trkpt lat="31.54084" lon="-9.5444567"><ele>217.66666666666666</ele><time>2026-04-26T11:28:05.408Z</time></trkpt><trkpt lat="31.541025" lon="-9.5443867"><ele>217.0</ele><time>2026-04-26T11:28:06.408Z</time></trkpt><trkpt lat="31.5412167" lon="-9.54431"><ele>217.0</ele><time>2026-04-26T11:28:07.408Z</time></trkpt><trkpt lat="31.5414067" lon="-9.5442333"><ele>217.0</ele><time>2026-04-26T11:28:08.408Z</time></trkpt><trkpt lat="31.5415917" lon="-9.544155"><ele>217.0</ele><time>2026-04-26T11:28:09.408Z</time></trkpt><trkpt lat="31.5417783" lon="-9.5440717"><ele>217.0</ele><time>2026-04-26T11:28:10.408Z</time></trkpt><trkpt lat="31.5419717" lon="-9.54399"><ele>217.0</ele><time>2026-04-26T11:28:11.408Z</time></trkpt><trkpt lat="31.5421733" lon="-9.543905"><ele>217.0</ele><time>2026-04-26T11:28:12.408Z</time></trkpt><trkpt lat="31.5423717" lon="-9.5438217"><ele>216.66666666666666</ele><time>2026-04-26T11:28:13.408Z</time></trkpt><trkpt lat="31.542575" lon="-9.5437317"><ele>216.33333333333331</ele><time>2026-04-26T11:28:14.408Z</time></trkpt><trkpt lat="31.5427817" lon="-9.5436433"><ele>216.0</ele><time>2026-04-26T11:28:15.408Z</time></trkpt><trkpt lat="31.5429933" lon="-9.54356"><ele>216.0</ele><time>2026-04-26T11:28:16.408Z</time></trkpt><trkpt lat="31.5432033" lon="-9.5434733"><ele>216.0</ele><time>2026-04-26T11:28:17.408Z</time></trkpt><trkpt lat="31.543415" lon="-9.5433917"><ele>216.0</ele><time>2026-04-26T11:28:18.408Z</time></trkpt><trkpt lat="31.5436317" lon="-9.5433067"><ele>216.0</ele><time>2026-04-26T11:28:19.408Z</time></trkpt><trkpt lat="31.5438317" lon="-9.54322"><ele>216.0</ele><time>2026-04-26T11:28:20.408Z</time></trkpt><trkpt lat="31.544035" lon="-9.5431283"><ele>216.0</ele><time>2026-04-26T11:28:21.409Z</time></trkpt><trkpt lat="31.5442383" lon="-9.543045"><ele>216.0</ele><time>2026-04-26T11:28:22.408Z</time></trkpt><trkpt lat="31.5444467" lon="-9.5429633"><ele>216.0</ele><time>2026-04-26T11:28:23.408Z</time></trkpt><trkpt lat="31.5446533" lon="-9.5428733"><ele>216.0</ele><time>2026-04-26T11:28:24.408Z</time></trkpt><trkpt lat="31.5448633" lon="-9.5427933"><ele>215.66666666666669</ele><time>2026-04-26T11:28:25.408Z</time></trkpt><trkpt lat="31.5450717" lon="-9.5427083"><ele>215.33333333333334</ele><time>2026-04-26T11:28:26.408Z</time></trkpt><trkpt lat="31.54528" lon="-9.5426267"><ele>215.0</ele><time>2026-04-26T11:28:27.408Z</time></trkpt><trkpt lat="31.5454967" lon="-9.5425383"><ele>215.66666666666669</ele><time>2026-04-26T11:28:28.408Z</time></trkpt><trkpt lat="31.5456983" lon="-9.5424583"><ele>216.33333333333331</ele><time>2026-04-26T11:28:29.408Z</time></trkpt><trkpt lat="31.5459033" lon="-9.542375"><ele>217.0</ele><time>2026-04-26T11:28:30.408Z</time></trkpt><trkpt lat="31.5461067" lon="-9.5422883"><ele>217.0</ele><time>2026-04-26T11:28:31.408Z</time></trkpt><trkpt lat="31.5463117" lon="-9.542205"><ele>217.0</ele><time>2026-04-26T11:28:32.408Z</time></trkpt><trkpt lat="31.5465217" lon="-9.542115"><ele>217.0</ele><time>2026-04-26T11:28:33.408Z</time></trkpt><trkpt lat="31.5467283" lon="-9.5420283"><ele>217.0</ele><time>2026-04-26T11:28:34.409Z</time></trkpt><trkpt lat="31.546945" lon="-9.541935"><ele>217.0</ele><time>2026-04-26T11:28:35.408Z</time></trkpt><trkpt lat="31.5471567" lon="-9.5418483"><ele>217.0</ele><time>2026-04-26T11:28:36.408Z</time></trkpt><trkpt lat="31.54737" lon="-9.54176"><ele>217.0</ele><time>2026-04-26T11:28:37.408Z</time></trkpt><trkpt lat="31.5475833" lon="-9.5416633"><ele>217.0</ele><time>2026-04-26T11:28:38.408Z</time></trkpt><trkpt lat="31.5477983" lon="-9.5415767"><ele>217.0</ele><time>2026-04-26T11:28:39.408Z</time></trkpt><trkpt lat="31.5480117" lon="-9.5414883"><ele>217.33333333333331</ele><time>2026-04-26T11:28:40.408Z</time></trkpt><trkpt lat="31.5482167" lon="-9.5413983"><ele>217.66666666666669</ele><time>2026-04-26T11:28:41.408Z</time></trkpt><trkpt lat="31.548415" lon="-9.5413117"><ele>218.0</ele><time>2026-04-26T11:28:42.408Z</time></trkpt><trkpt lat="31.5486183" lon="-9.5412283"><ele>217.66666666666669</ele><time>2026-04-26T11:28:43.408Z</time></trkpt><trkpt lat="31.548825" lon="-9.5411567"><ele>217.33333333333331</ele><time>2026-04-26T11:28:44.408Z</time></trkpt><trkpt lat="31.549035" lon="-9.5410933"><ele>217.0</ele><time>2026-04-26T11:28:45.408Z</time></trkpt><trkpt lat="31.5492517" lon="-9.541025"><ele>217.0</ele><time>2026-04-26T11:28:46.408Z</time></trkpt><trkpt lat="31.5494617" lon="-9.5409683"><ele>217.0</ele><time>2026-04-26T11:28:47.408Z</time></trkpt><trkpt lat="31.5496767" lon="-9.5409117"><ele>217.0</ele><time>2026-04-26T11:28:48.408Z</time></trkpt><trkpt lat="31.5498917" lon="-9.540865"><ele>216.66666666666666</ele><time>2026-04-26T11:28:49.408Z</time></trkpt><trkpt lat="31.55011" lon="-9.5408217"><ele>216.33333333333331</ele><time>2026-04-26T11:28:50.408Z</time></trkpt><trkpt lat="31.550335" lon="-9.5407883"><ele>216.0</ele><time>2026-04-26T11:28:51.408Z</time></trkpt><trkpt lat="31.5505583" lon="-9.5407533"><ele>217.0</ele><time>2026-04-26T11:28:52.408Z</time></trkpt><trkpt lat="31.550785" lon="-9.5407183"><ele>218.0</ele><time>2026-04-26T11:28:53.409Z</time></trkpt><trkpt lat="31.5510133" lon="-9.5406933"><ele>218.0</ele><time>2026-04-26T11:28:54.408Z</time></trkpt><trkpt lat="31.5512517" lon="-9.5406717"><ele>218.0</ele><time>2026-04-26T11:28:55.408Z</time></trkpt><trkpt lat="31.5514867" lon="-9.5406467"><ele>218.0</ele><time>2026-04-26T11:28:56.408Z</time></trkpt><trkpt lat="31.551725" lon="-9.54062"><ele>218.0</ele><time>2026-04-26T11:28:57.409Z</time></trkpt><trkpt lat="31.551965" lon="-9.5405917"><ele>217.0</ele><time>2026-04-26T11:28:58.408Z</time></trkpt><trkpt lat="31.5522083" lon="-9.54056"><ele>216.0</ele><time>2026-04-26T11:28:59.408Z</time></trkpt><trkpt lat="31.55245" lon="-9.5405233"><ele>216.0</ele><time>2026-04-26T11:29:00.408Z</time></trkpt><trkpt lat="31.5526783" lon="-9.5404917"><ele>216.0</ele><time>2026-04-26T11:29:01.408Z</time></trkpt><trkpt lat="31.5529033" lon="-9.540465"><ele>215.5</ele><time>2026-04-26T11:29:02.408Z</time></trkpt><trkpt lat="31.5531333" lon="-9.5404417"><ele>215.0</ele><time>2026-04-26T11:29:03.408Z</time></trkpt><trkpt lat="31.55337" lon="-9.5404133"><ele>213.5</ele><time>2026-04-26T11:29:04.408Z</time></trkpt><trkpt lat="31.5536067" lon="-9.5403767"><ele>212.0</ele><time>2026-04-26T11:29:05.408Z</time></trkpt><trkpt lat="31.553835" lon="-9.5403483"><ele>212.0</ele><time>2026-04-26T11:29:06.408Z</time></trkpt><trkpt lat="31.5540583" lon="-9.5403183"><ele>212.0</ele><time>2026-04-26T11:29:07.408Z</time></trkpt><trkpt lat="31.55428" lon="-9.5402933"><ele>212.0</ele><time>2026-04-26T11:29:08.408Z</time></trkpt><trkpt lat="31.5545067" lon="-9.5402667"><ele>211.66666666666669</ele><time>2026-04-26T11:29:09.408Z</time></trkpt><trkpt lat="31.5547267" lon="-9.5402383"><ele>211.33333333333331</ele><time>2026-04-26T11:29:10.408Z</time></trkpt><trkpt lat="31.5549417" lon="-9.5402133"><ele>211.0</ele><time>2026-04-26T11:29:11.408Z</time></trkpt><trkpt lat="31.555155" lon="-9.54019"><ele>211.0</ele><time>2026-04-26T11:29:12.408Z</time></trkpt><trkpt lat="31.5553733" lon="-9.5401633"><ele>211.0</ele><time>2026-04-26T11:29:13.408Z</time></trkpt><trkpt lat="31.55559" lon="-9.5401317"><ele>211.0</ele><time>2026-04-26T11:29:14.408Z</time></trkpt><trkpt lat="31.5558017" lon="-9.5401067"><ele>211.0</ele><time>2026-04-26T11:29:15.408Z</time></trkpt><trkpt lat="31.556005" lon="-9.5400783"><ele>211.0</ele><time>2026-04-26T11:29:16.408Z</time></trkpt><trkpt lat="31.5562067" lon="-9.5400517"><ele>211.0</ele><time>2026-04-26T11:29:17.408Z</time></trkpt><trkpt lat="31.5564" lon="-9.540025"><ele>211.66666666666666</ele><time>2026-04-26T11:29:18.409Z</time></trkpt><trkpt lat="31.5565983" lon="-9.5400033"><ele>212.33333333333331</ele><time>2026-04-26T11:29:19.408Z</time></trkpt><trkpt lat="31.5567933" lon="-9.5399817"><ele>213.0</ele><time>2026-04-26T11:29:20.408Z</time></trkpt><trkpt lat="31.556995" lon="-9.53996"><ele>212.33333333333331</ele><time>2026-04-26T11:29:21.408Z</time></trkpt><trkpt lat="31.557195" lon="-9.5399333"><ele>211.66666666666666</ele><time>2026-04-26T11:29:22.408Z</time></trkpt><trkpt lat="31.5574033" lon="-9.5399033"><ele>211.0</ele><time>2026-04-26T11:29:23.408Z</time></trkpt><trkpt lat="31.5576117" lon="-9.539875"><ele>211.0</ele><time>2026-04-26T11:29:24.408Z</time></trkpt><trkpt lat="31.55782" lon="-9.5398517"><ele>211.0</ele><time>2026-04-26T11:29:25.408Z</time></trkpt><trkpt lat="31.5580217" lon="-9.5398283"><ele>211.0</ele><time>2026-04-26T11:29:26.408Z</time></trkpt><trkpt lat="31.55823" lon="-9.539805"><ele>211.0</ele><time>2026-04-26T11:29:27.408Z</time></trkpt><trkpt lat="31.55844" lon="-9.5397783"><ele>211.0</ele><time>2026-04-26T11:29:28.408Z</time></trkpt><trkpt lat="31.5586567" lon="-9.5397533"><ele>211.0</ele><time>2026-04-26T11:29:29.408Z</time></trkpt><trkpt lat="31.558875" lon="-9.53973"><ele>210.66666666666666</ele><time>2026-04-26T11:29:30.408Z</time></trkpt><trkpt lat="31.559095" lon="-9.5396983"><ele>210.33333333333331</ele><time>2026-04-26T11:29:31.408Z</time></trkpt><trkpt lat="31.559315" lon="-9.5396733"><ele>210.0</ele><time>2026-04-26T11:29:32.408Z</time></trkpt><trkpt lat="31.55954" lon="-9.53964"><ele>211.33333333333331</ele><time>2026-04-26T11:29:33.408Z</time></trkpt><trkpt lat="31.5597533" lon="-9.5396117"><ele>212.66666666666666</ele><time>2026-04-26T11:29:34.408Z</time></trkpt><trkpt lat="31.5599617" lon="-9.539585"><ele>214.0</ele><time>2026-04-26T11:29:35.408Z</time></trkpt><trkpt lat="31.5601683" lon="-9.53956"><ele>213.66666666666666</ele><time>2026-04-26T11:29:36.408Z</time></trkpt><trkpt lat="31.560375" lon="-9.53954"><ele>213.33333333333331</ele><time>2026-04-26T11:29:37.408Z</time></trkpt><trkpt lat="31.5605833" lon="-9.5395133"><ele>213.0</ele><time>2026-04-26T11:29:38.408Z</time></trkpt><trkpt lat="31.56079" lon="-9.5394833"><ele>213.0</ele><time>2026-04-26T11:29:39.408Z</time></trkpt><trkpt lat="31.5609983" lon="-9.539455"><ele>213.0</ele><time>2026-04-26T11:29:40.408Z</time></trkpt><trkpt lat="31.5612083" lon="-9.53943"><ele>213.0</ele><time>2026-04-26T11:29:41.408Z</time></trkpt><trkpt lat="31.5614133" lon="-9.539405"><ele>212.0</ele><time>2026-04-26T11:29:42.408Z</time></trkpt><trkpt lat="31.561625" lon="-9.5393833"><ele>211.0</ele><time>2026-04-26T11:29:43.408Z</time></trkpt><trkpt lat="31.561835" lon="-9.53936"><ele>210.0</ele><time>2026-04-26T11:29:44.408Z</time></trkpt><trkpt lat="31.5620483" lon="-9.5393383"><ele>210.0</ele><time>2026-04-26T11:29:45.409Z</time></trkpt><trkpt lat="31.5622667" lon="-9.5393117"><ele>210.0</ele><time>2026-04-26T11:29:46.408Z</time></trkpt><trkpt lat="31.5624817" lon="-9.5392833"><ele>210.0</ele><time>2026-04-26T11:29:47.408Z</time></trkpt><trkpt lat="31.5627" lon="-9.5392567"><ele>210.66666666666669</ele><time>2026-04-26T11:29:48.408Z</time></trkpt><trkpt lat="31.5629117" lon="-9.53923"><ele>211.33333333333334</ele><time>2026-04-26T11:29:49.408Z</time></trkpt><trkpt lat="31.563115" lon="-9.5392033"><ele>212.0</ele><time>2026-04-26T11:29:50.408Z</time></trkpt><trkpt lat="31.5633233" lon="-9.5391767"><ele>212.0</ele><time>2026-04-26T11:29:51.408Z</time></trkpt><trkpt lat="31.56353" lon="-9.53915"><ele>212.0</ele><time>2026-04-26T11:29:52.409Z</time></trkpt><trkpt lat="31.5637433" lon="-9.5391233"><ele>212.0</ele><time>2026-04-26T11:29:53.408Z</time></trkpt><trkpt lat="31.5639533" lon="-9.5390983"><ele>213.0</ele><time>2026-04-26T11:29:54.408Z</time></trkpt><trkpt lat="31.564165" lon="-9.5390717"><ele>214.0</ele><time>2026-04-26T11:29:55.408Z</time></trkpt><trkpt lat="31.564385" lon="-9.5390467"><ele>215.0</ele><time>2026-04-26T11:29:56.408Z</time></trkpt><trkpt lat="31.5646017" lon="-9.5390217"><ele>215.33333333333334</ele><time>2026-04-26T11:29:57.408Z</time></trkpt><trkpt lat="31.5648183" lon="-9.5389917"><ele>215.66666666666669</ele><time>2026-04-26T11:29:58.408Z</time></trkpt><trkpt lat="31.5650317" lon="-9.5389633"><ele>216.0</ele><time>2026-04-26T11:29:59.408Z</time></trkpt><trkpt lat="31.5652383" lon="-9.53893"><ele>215.66666666666669</ele><time>2026-04-26T11:30:00.408Z</time></trkpt><trkpt lat="31.565435" lon="-9.538895"><ele>215.33333333333334</ele><time>2026-04-26T11:30:01.408Z</time></trkpt><trkpt lat="31.5656367" lon="-9.5388567"><ele>215.0</ele><time>2026-04-26T11:30:02.408Z</time></trkpt><trkpt lat="31.5658383" lon="-9.538825"><ele>215.0</ele><time>2026-04-26T11:30:03.408Z</time></trkpt><trkpt lat="31.5660383" lon="-9.5387933"><ele>215.0</ele><time>2026-04-26T11:30:04.408Z</time></trkpt><trkpt lat="31.56624" lon="-9.5387633"><ele>215.0</ele><time>2026-04-26T11:30:05.408Z</time></trkpt><trkpt lat="31.5664433" lon="-9.5387283"><ele>213.66666666666669</ele><time>2026-04-26T11:30:06.408Z</time></trkpt><trkpt lat="31.5666417" lon="-9.5386983"><ele>212.33333333333331</ele><time>2026-04-26T11:30:07.408Z</time></trkpt><trkpt lat="31.566845" lon="-9.53867"><ele>211.0</ele><time>2026-04-26T11:30:08.408Z</time></trkpt><trkpt lat="31.5670483" lon="-9.538635"><ele>210.33333333333331</ele><time>2026-04-26T11:30:09.408Z</time></trkpt><trkpt lat="31.56725" lon="-9.538605"><ele>209.66666666666669</ele><time>2026-04-26T11:30:10.408Z</time></trkpt><trkpt lat="31.567455" lon="-9.53857"><ele>209.0</ele><time>2026-04-26T11:30:11.408Z</time></trkpt><trkpt lat="31.5676583" lon="-9.538535"><ele>208.66666666666669</ele><time>2026-04-26T11:30:12.409Z</time></trkpt><trkpt lat="31.567865" lon="-9.5385017"><ele>208.33333333333331</ele><time>2026-04-26T11:30:13.408Z</time></trkpt><trkpt lat="31.5680783" lon="-9.5384717"><ele>208.0</ele><time>2026-04-26T11:30:14.408Z</time></trkpt><trkpt lat="31.5682883" lon="-9.53844"><ele>208.0</ele><time>2026-04-26T11:30:15.408Z</time></trkpt><trkpt lat="31.568495" lon="-9.5384083"><ele>208.0</ele><time>2026-04-26T11:30:16.408Z</time></trkpt><trkpt lat="31.568705" lon="-9.5383767"><ele>208.0</ele><time>2026-04-26T11:30:17.408Z</time></trkpt><trkpt lat="31.5689067" lon="-9.5383433"><ele>207.66666666666666</ele><time>2026-04-26T11:30:18.408Z</time></trkpt><trkpt lat="31.5691033" lon="-9.5383183"><ele>207.33333333333331</ele><time>2026-04-26T11:30:19.408Z</time></trkpt><trkpt lat="31.569295" lon="-9.5382867"><ele>207.0</ele><time>2026-04-26T11:30:20.408Z</time></trkpt><trkpt lat="31.5694783" lon="-9.538255"><ele>206.33333333333331</ele><time>2026-04-26T11:30:21.408Z</time></trkpt><trkpt lat="31.5696667" lon="-9.5382233"><ele>205.66666666666666</ele><time>2026-04-26T11:30:22.408Z</time></trkpt><trkpt lat="31.569855" lon="-9.5381917"><ele>205.0</ele><time>2026-04-26T11:30:23.408Z</time></trkpt><trkpt lat="31.5700467" lon="-9.5381583"><ele>205.0</ele><time>2026-04-26T11:30:24.408Z</time></trkpt><trkpt lat="31.5702333" lon="-9.5381317"><ele>205.0</ele><time>2026-04-26T11:30:25.408Z</time></trkpt><trkpt lat="31.5704117" lon="-9.538105"><ele>205.0</ele><time>2026-04-26T11:30:26.408Z</time></trkpt><trkpt lat="31.5706" lon="-9.5380733"><ele>205.0</ele><time>2026-04-26T11:30:27.408Z</time></trkpt><trkpt lat="31.5707767" lon="-9.5380417"><ele>205.0</ele><time>2026-04-26T11:30:28.408Z</time></trkpt><trkpt lat="31.5709567" lon="-9.53801"><ele>205.0</ele><time>2026-04-26T11:30:29.408Z</time></trkpt><trkpt lat="31.5711367" lon="-9.5379817"><ele>204.33333333333331</ele><time>2026-04-26T11:30:30.408Z</time></trkpt><trkpt lat="31.5713133" lon="-9.5379533"><ele>203.66666666666669</ele><time>2026-04-26T11:30:31.408Z</time></trkpt><trkpt lat="31.5714867" lon="-9.537925"><ele>203.0</ele><time>2026-04-26T11:30:32.409Z</time></trkpt><trkpt lat="31.571655" lon="-9.5379067"><ele>203.66666666666669</ele><time>2026-04-26T11:30:33.408Z</time></trkpt><trkpt lat="31.5718267" lon="-9.5378833"><ele>204.33333333333331</ele><time>2026-04-26T11:30:34.408Z</time></trkpt><trkpt lat="31.572" lon="-9.5378517"><ele>205.0</ele><time>2026-04-26T11:30:35.408Z</time></trkpt><trkpt lat="31.5721783" lon="-9.53782"><ele>205.66666666666666</ele><time>2026-04-26T11:30:36.408Z</time></trkpt><trkpt lat="31.5723483" lon="-9.5377933"><ele>206.33333333333331</ele><time>2026-04-26T11:30:37.408Z</time></trkpt><trkpt lat="31.57252" lon="-9.5377667"><ele>207.0</ele><time>2026-04-26T11:30:38.408Z</time></trkpt><trkpt lat="31.5726867" lon="-9.5377383"><ele>207.0</ele><time>2026-04-26T11:30:39.408Z</time></trkpt><trkpt lat="31.57285" lon="-9.5377133"><ele>207.0</ele><time>2026-04-26T11:30:40.408Z</time></trkpt><trkpt lat="31.5730117" lon="-9.5376917"><ele>207.0</ele><time>2026-04-26T11:30:41.408Z</time></trkpt><trkpt lat="31.573165" lon="-9.53767"><ele>206.33333333333331</ele><time>2026-04-26T11:30:42.408Z</time></trkpt><trkpt lat="31.573315" lon="-9.53764"><ele>205.66666666666666</ele><time>2026-04-26T11:30:43.408Z</time></trkpt><trkpt lat="31.573465" lon="-9.5376133"><ele>205.0</ele><time>2026-04-26T11:30:44.408Z</time></trkpt><trkpt lat="31.573615" lon="-9.5375867"><ele>204.75</ele><time>2026-04-26T11:30:45.408Z</time></trkpt><trkpt lat="31.5737583" lon="-9.537565"><ele>204.5</ele><time>2026-04-26T11:30:46.408Z</time></trkpt><trkpt lat="31.5739033" lon="-9.53754"><ele>204.25</ele><time>2026-04-26T11:30:47.408Z</time></trkpt><trkpt lat="31.5740483" lon="-9.5375167"><ele>204.0</ele><time>2026-04-26T11:30:48.408Z</time></trkpt><trkpt lat="31.574185" lon="-9.5374883"><ele>204.0</ele><time>2026-04-26T11:30:49.408Z</time></trkpt><trkpt lat="31.5743183" lon="-9.5374683"><ele>204.0</ele><time>2026-04-26T11:30:50.408Z</time></trkpt><trkpt lat="31.574445" lon="-9.5374483"><ele>204.0</ele><time>2026-04-26T11:30:51.408Z</time></trkpt><trkpt lat="31.5745717" lon="-9.5374283"><ele>204.0</ele><time>2026-04-26T11:30:52.408Z</time></trkpt><trkpt lat="31.5746917" lon="-9.5374033"><ele>204.0</ele><time>2026-04-26T11:30:53.409Z</time></trkpt><trkpt lat="31.57481" lon="-9.537385"><ele>204.0</ele><time>2026-04-26T11:30:54.408Z</time></trkpt><trkpt lat="31.5749283" lon="-9.537365"><ele>204.0</ele><time>2026-04-26T11:30:55.408Z</time></trkpt><trkpt lat="31.57505" lon="-9.5373467"><ele>204.0</ele><time>2026-04-26T11:30:56.409Z</time></trkpt><trkpt lat="31.5751717" lon="-9.537335"><ele>204.0</ele><time>2026-04-26T11:30:57.408Z</time></trkpt><trkpt lat="31.57529" lon="-9.5373183"><ele>204.0</ele><time>2026-04-26T11:30:58.408Z</time></trkpt><trkpt lat="31.5754083" lon="-9.5373017"><ele>204.0</ele><time>2026-04-26T11:30:59.409Z</time></trkpt><trkpt lat="31.5755233" lon="-9.5372817"><ele>204.0</ele><time>2026-04-26T11:31:00.408Z</time></trkpt><trkpt lat="31.5756433" lon="-9.537265"><ele>204.5</ele><time>2026-04-26T11:31:01.408Z</time></trkpt><trkpt lat="31.575765" lon="-9.5372467"><ele>205.0</ele><time>2026-04-26T11:31:02.408Z</time></trkpt><trkpt lat="31.5758933" lon="-9.5372267"><ele>205.5</ele><time>2026-04-26T11:31:03.408Z</time></trkpt><trkpt lat="31.576025" lon="-9.5372033"><ele>206.0</ele><time>2026-04-26T11:31:04.408Z</time></trkpt><trkpt lat="31.576155" lon="-9.5371767"><ele>204.75</ele><time>2026-04-26T11:31:05.408Z</time></trkpt><trkpt lat="31.5762817" lon="-9.5371567"><ele>203.5</ele><time>2026-04-26T11:31:06.408Z</time></trkpt><trkpt lat="31.5764017" lon="-9.5371333"><ele>202.25</ele><time>2026-04-26T11:31:07.408Z</time></trkpt><trkpt lat="31.5765133" lon="-9.5371133"><ele>201.0</ele><time>2026-04-26T11:31:08.408Z</time></trkpt><trkpt lat="31.5766133" lon="-9.5370933"><ele>201.0</ele><time>2026-04-26T11:31:09.408Z</time></trkpt><trkpt lat="31.5767" lon="-9.5370733"><ele>201.0</ele><time>2026-04-26T11:31:10.408Z</time></trkpt><trkpt lat="31.576775" lon="-9.5370483"><ele>201.0</ele><time>2026-04-26T11:31:11.408Z</time></trkpt><trkpt lat="31.5768383" lon="-9.5370367"><ele>201.0</ele><time>2026-04-26T11:31:12.408Z</time></trkpt><trkpt lat="31.576955" lon="-9.5370133"><ele>201.0</ele><time>2026-04-26T11:31:14.408Z</time></trkpt><trkpt lat="31.5770733" lon="-9.5369917"><ele>201.0</ele><time>2026-04-26T11:31:16.408Z</time></trkpt><trkpt lat="31.577135" lon="-9.53697"><ele>201.0</ele><time>2026-04-26T11:31:17.408Z</time></trkpt><trkpt lat="31.577255" lon="-9.5369317"><ele>201.0</ele><time>2026-04-26T11:31:19.408Z</time></trkpt><trkpt lat="31.5773167" lon="-9.5369083"><ele>201.0</ele><time>2026-04-26T11:31:20.408Z</time></trkpt><trkpt lat="31.577385" lon="-9.5368933"><ele>201.0</ele><time>2026-04-26T11:31:21.408Z</time></trkpt><trkpt lat="31.57746" lon="-9.53688"><ele>201.0</ele><time>2026-04-26T11:31:22.408Z</time></trkpt><trkpt lat="31.5775367" lon="-9.5368717"><ele>201.0</ele><time>2026-04-26T11:31:23.408Z</time></trkpt><trkpt lat="31.57761" lon="-9.5368517"><ele>201.0</ele><time>2026-04-26T11:31:24.408Z</time></trkpt><trkpt lat="31.5776817" lon="-9.5368267"><ele>201.0</ele><time>2026-04-26T11:31:25.408Z</time></trkpt><trkpt lat="31.5777467" lon="-9.5368017"><ele>201.0</ele><time>2026-04-26T11:31:26.408Z</time></trkpt><trkpt lat="31.5778133" lon="-9.5367783"><ele>201.0</ele><time>2026-04-26T11:31:27.408Z</time></trkpt><trkpt lat="31.5778783" lon="-9.536755"><ele>201.0</ele><time>2026-04-26T11:31:28.408Z</time></trkpt><trkpt lat="31.5779917" lon="-9.5367117"><ele>201.20000000000002</ele><time>2026-04-26T11:31:30.408Z</time></trkpt><trkpt lat="31.578105" lon="-9.5366783"><ele>201.4</ele><time>2026-04-26T11:31:32.408Z</time></trkpt><trkpt lat="31.5782" lon="-9.5366533"><ele>201.6</ele><time>2026-04-26T11:31:34.408Z</time></trkpt><trkpt lat="31.578265" lon="-9.536635"><ele>201.8</ele><time>2026-04-26T11:31:36.408Z</time></trkpt><trkpt lat="31.5783533" lon="-9.536605"><ele>202.0</ele><time>2026-04-26T11:31:39.408Z</time></trkpt><trkpt lat="31.57843" lon="-9.5365733"><ele>201.99999999999997</ele><time>2026-04-26T11:31:41.408Z</time></trkpt><trkpt lat="31.5785083" lon="-9.5365383"><ele>202.0</ele><time>2026-04-26T11:31:43.408Z</time></trkpt><trkpt lat="31.5785867" lon="-9.5365083"><ele>202.0</ele><time>2026-04-26T11:31:45.408Z</time></trkpt><trkpt lat="31.5786517" lon="-9.5364833"><ele>202.0</ele><time>2026-04-26T11:31:47.408Z</time></trkpt><trkpt lat="31.5787383" lon="-9.5364467"><ele>201.99999999999997</ele><time>2026-04-26T11:31:49.408Z</time></trkpt><trkpt lat="31.5788367" lon="-9.5364033"><ele>202.0</ele><time>2026-04-26T11:31:51.408Z</time></trkpt><trkpt lat="31.578925" lon="-9.5363733"><ele>201.83333333333331</ele><time>2026-04-26T11:31:53.408Z</time></trkpt><trkpt lat="31.5790083" lon="-9.5363367"><ele>201.66666666666666</ele><time>2026-04-26T11:31:55.408Z</time></trkpt><trkpt lat="31.57908" lon="-9.5363017"><ele>201.5</ele><time>2026-04-26T11:31:57.408Z</time></trkpt><trkpt lat="31.57916" lon="-9.5362633"><ele>201.33333333333331</ele><time>2026-04-26T11:31:59.409Z</time></trkpt><trkpt lat="31.57926" lon="-9.5362083"><ele>201.16666666666666</ele><time>2026-04-26T11:32:01.408Z</time></trkpt><trkpt lat="31.57932" lon="-9.5361783"><ele>201.0</ele><time>2026-04-26T11:32:02.408Z</time></trkpt><trkpt lat="31.5793883" lon="-9.5361417"><ele>201.0</ele><time>2026-04-26T11:32:03.408Z</time></trkpt><trkpt lat="31.5794617" lon="-9.536105"><ele>201.0</ele><time>2026-04-26T11:32:04.408Z</time></trkpt><trkpt lat="31.5795483" lon="-9.5360617"><ele>201.0</ele><time>2026-04-26T11:32:05.408Z</time></trkpt><trkpt lat="31.5796483" lon="-9.5360117"><ele>201.0</ele><time>2026-04-26T11:32:06.408Z</time></trkpt><trkpt lat="31.5797567" lon="-9.5359583"><ele>201.0</ele><time>2026-04-26T11:32:07.409Z</time></trkpt><trkpt lat="31.57986" lon="-9.5359"><ele>201.0</ele><time>2026-04-26T11:32:08.408Z</time></trkpt><trkpt lat="31.579975" lon="-9.53583"><ele>201.0</ele><time>2026-04-26T11:32:09.408Z</time></trkpt><trkpt lat="31.5800983" lon="-9.5357567"><ele>201.0</ele><time>2026-04-26T11:32:10.408Z</time></trkpt><trkpt lat="31.5802233" lon="-9.535685"><ele>201.0</ele><time>2026-04-26T11:32:11.409Z</time></trkpt><trkpt lat="31.58036" lon="-9.535605"><ele>200.33333333333331</ele><time>2026-04-26T11:32:12.408Z</time></trkpt><trkpt lat="31.5805" lon="-9.5355283"><ele>199.66666666666666</ele><time>2026-04-26T11:32:13.408Z</time></trkpt><trkpt lat="31.580645" lon="-9.5354433"><ele>199.0</ele><time>2026-04-26T11:32:14.408Z</time></trkpt><trkpt lat="31.5807967" lon="-9.5353533"><ele>199.0</ele><time>2026-04-26T11:32:15.408Z</time></trkpt><trkpt lat="31.5809567" lon="-9.5352467"><ele>199.0</ele><time>2026-04-26T11:32:16.408Z</time></trkpt><trkpt lat="31.5811233" lon="-9.53514"><ele>199.0</ele><time>2026-04-26T11:32:17.408Z</time></trkpt><trkpt lat="31.581295" lon="-9.53503"><ele>199.66666666666666</ele><time>2026-04-26T11:32:18.408Z</time></trkpt><trkpt lat="31.5814683" lon="-9.5349167"><ele>200.33333333333331</ele><time>2026-04-26T11:32:19.408Z</time></trkpt><trkpt lat="31.5816467" lon="-9.534805"><ele>201.0</ele><time>2026-04-26T11:32:20.408Z</time></trkpt><trkpt lat="31.5818233" lon="-9.5347017"><ele>201.0</ele><time>2026-04-26T11:32:21.408Z</time></trkpt><trkpt lat="31.5819917" lon="-9.534595"><ele>201.0</ele><time>2026-04-26T11:32:22.408Z</time></trkpt><trkpt lat="31.5821667" lon="-9.53448"><ele>201.0</ele><time>2026-04-26T11:32:23.408Z</time></trkpt><trkpt lat="31.582345" lon="-9.53436"><ele>201.0</ele><time>2026-04-26T11:32:24.408Z</time></trkpt><trkpt lat="31.5825267" lon="-9.5342467"><ele>201.0</ele><time>2026-04-26T11:32:25.408Z</time></trkpt><trkpt lat="31.58271" lon="-9.5341267"><ele>201.0</ele><time>2026-04-26T11:32:26.408Z</time></trkpt><trkpt lat="31.582895" lon="-9.5340067"><ele>201.0</ele><time>2026-04-26T11:32:27.408Z</time></trkpt><trkpt lat="31.583085" lon="-9.5338867"><ele>201.0</ele><time>2026-04-26T11:32:28.408Z</time></trkpt><trkpt lat="31.5832733" lon="-9.5337667"><ele>201.0</ele><time>2026-04-26T11:32:29.409Z</time></trkpt><trkpt lat="31.5834633" lon="-9.533645"><ele>201.0</ele><time>2026-04-26T11:32:30.408Z</time></trkpt><trkpt lat="31.5836633" lon="-9.5335233"><ele>201.0</ele><time>2026-04-26T11:32:31.408Z</time></trkpt><trkpt lat="31.58386" lon="-9.5334"><ele>201.0</ele><time>2026-04-26T11:32:32.408Z</time></trkpt><trkpt lat="31.5840583" lon="-9.5332683"><ele>201.0</ele><time>2026-04-26T11:32:33.408Z</time></trkpt><trkpt lat="31.5842533" lon="-9.5331517"><ele>201.0</ele><time>2026-04-26T11:32:34.408Z</time></trkpt><trkpt lat="31.5844533" lon="-9.53303"><ele>201.0</ele><time>2026-04-26T11:32:35.408Z</time></trkpt><trkpt lat="31.584645" lon="-9.53291"><ele>201.33333333333331</ele><time>2026-04-26T11:32:36.408Z</time></trkpt><trkpt lat="31.584825" lon="-9.5327917"><ele>201.66666666666666</ele><time>2026-04-26T11:32:37.408Z</time></trkpt><trkpt lat="31.5850117" lon="-9.532675"><ele>202.0</ele><time>2026-04-26T11:32:38.408Z</time></trkpt><trkpt lat="31.5851967" lon="-9.5325633"><ele>202.0</ele><time>2026-04-26T11:32:39.408Z</time></trkpt><trkpt lat="31.58538" lon="-9.5324467"><ele>202.0</ele><time>2026-04-26T11:32:40.408Z</time></trkpt><trkpt lat="31.5855517" lon="-9.5323383"><ele>202.0</ele><time>2026-04-26T11:32:41.409Z</time></trkpt><trkpt lat="31.58572" lon="-9.53224"><ele>202.0</ele><time>2026-04-26T11:32:42.408Z</time></trkpt><trkpt lat="31.5858833" lon="-9.5321467"><ele>202.0</ele><time>2026-04-26T11:32:43.408Z</time></trkpt><trkpt lat="31.5860417" lon="-9.5320417"><ele>202.0</ele><time>2026-04-26T11:32:44.408Z</time></trkpt><trkpt lat="31.5862117" lon="-9.5319383"><ele>201.66666666666666</ele><time>2026-04-26T11:32:45.408Z</time></trkpt><trkpt lat="31.5863733" lon="-9.53183"><ele>201.33333333333331</ele><time>2026-04-26T11:32:46.408Z</time></trkpt><trkpt lat="31.5865367" lon="-9.531735"><ele>201.0</ele><time>2026-04-26T11:32:47.408Z</time></trkpt><trkpt lat="31.5866983" lon="-9.53163"><ele>201.0</ele><time>2026-04-26T11:32:48.408Z</time></trkpt><trkpt lat="31.58686" lon="-9.5315283"><ele>201.0</ele><time>2026-04-26T11:32:49.408Z</time></trkpt><trkpt lat="31.5870233" lon="-9.531425"><ele>201.0</ele><time>2026-04-26T11:32:50.408Z</time></trkpt><trkpt lat="31.587185" lon="-9.5313233"><ele>200.66666666666669</ele><time>2026-04-26T11:32:51.408Z</time></trkpt><trkpt lat="31.58735" lon="-9.53122"><ele>200.33333333333334</ele><time>2026-04-26T11:32:52.408Z</time></trkpt><trkpt lat="31.58752" lon="-9.531115"><ele>200.0</ele><time>2026-04-26T11:32:53.408Z</time></trkpt><trkpt lat="31.58769" lon="-9.531005"><ele>201.0</ele><time>2026-04-26T11:32:54.408Z</time></trkpt><trkpt lat="31.5878667" lon="-9.5308917"><ele>202.0</ele><time>2026-04-26T11:32:55.408Z</time></trkpt><trkpt lat="31.5880367" lon="-9.5307833"><ele>203.0</ele><time>2026-04-26T11:32:56.408Z</time></trkpt><trkpt lat="31.5882167" lon="-9.5306667"><ele>203.0</ele><time>2026-04-26T11:32:57.408Z</time></trkpt><trkpt lat="31.5883933" lon="-9.5305583"><ele>203.0</ele><time>2026-04-26T11:32:58.408Z</time></trkpt><trkpt lat="31.5885717" lon="-9.5304567"><ele>203.0</ele><time>2026-04-26T11:32:59.408Z</time></trkpt><trkpt lat="31.58875" lon="-9.5303433"><ele>203.0</ele><time>2026-04-26T11:33:00.408Z</time></trkpt><trkpt lat="31.5889317" lon="-9.5302267"><ele>203.0</ele><time>2026-04-26T11:33:01.408Z</time></trkpt><trkpt lat="31.58912" lon="-9.5301117"><ele>203.0</ele><time>2026-04-26T11:33:02.408Z</time></trkpt><trkpt lat="31.5893083" lon="-9.53"><ele>203.0</ele><time>2026-04-26T11:33:03.408Z</time></trkpt><trkpt lat="31.5894967" lon="-9.5298783"><ele>203.0</ele><time>2026-04-26T11:33:04.408Z</time></trkpt><trkpt lat="31.5896917" lon="-9.52976"><ele>203.0</ele><time>2026-04-26T11:33:05.408Z</time></trkpt><trkpt lat="31.5898867" lon="-9.5296467"><ele>203.33333333333334</ele><time>2026-04-26T11:33:06.408Z</time></trkpt><trkpt lat="31.5900783" lon="-9.529525"><ele>203.66666666666669</ele><time>2026-04-26T11:33:07.408Z</time></trkpt><trkpt lat="31.5902583" lon="-9.5294117"><ele>204.0</ele><time>2026-04-26T11:33:08.408Z</time></trkpt><trkpt lat="31.5904317" lon="-9.5292983"><ele>204.0</ele><time>2026-04-26T11:33:09.408Z</time></trkpt><trkpt lat="31.590605" lon="-9.5291767"><ele>204.0</ele><time>2026-04-26T11:33:10.408Z</time></trkpt><trkpt lat="31.5907917" lon="-9.5290667"><ele>204.0</ele><time>2026-04-26T11:33:11.408Z</time></trkpt><trkpt lat="31.5909817" lon="-9.5289533"><ele>204.0</ele><time>2026-04-26T11:33:12.408Z</time></trkpt><trkpt lat="31.5911767" lon="-9.5288333"><ele>204.0</ele><time>2026-04-26T11:33:13.408Z</time></trkpt><trkpt lat="31.59137" lon="-9.5287117"><ele>204.0</ele><time>2026-04-26T11:33:14.408Z</time></trkpt><trkpt lat="31.591565" lon="-9.5285883"><ele>205.0</ele><time>2026-04-26T11:33:15.408Z</time></trkpt><trkpt lat="31.59175" lon="-9.52847"><ele>206.0</ele><time>2026-04-26T11:33:16.407Z</time></trkpt><trkpt lat="31.5919267" lon="-9.5283533"><ele>207.0</ele><time>2026-04-26T11:33:17.407Z</time></trkpt><trkpt lat="31.5921067" lon="-9.52824"><ele>207.0</ele><time>2026-04-26T11:33:18.407Z</time></trkpt><trkpt lat="31.5922917" lon="-9.528125"><ele>207.0</ele><time>2026-04-26T11:33:19.407Z</time></trkpt><trkpt lat="31.5924817" lon="-9.5280083"><ele>207.0</ele><time>2026-04-26T11:33:20.407Z</time></trkpt><trkpt lat="31.5926783" lon="-9.5278883"><ele>207.33333333333331</ele><time>2026-04-26T11:33:21.407Z</time></trkpt><trkpt lat="31.5928767" lon="-9.5277667"><ele>207.66666666666666</ele><time>2026-04-26T11:33:22.407Z</time></trkpt><trkpt lat="31.5930683" lon="-9.5276467"><ele>208.0</ele><time>2026-04-26T11:33:23.407Z</time></trkpt><trkpt lat="31.5932567" lon="-9.52753"><ele>208.0</ele><time>2026-04-26T11:33:24.407Z</time></trkpt><trkpt lat="31.5934367" lon="-9.5274167"><ele>208.0</ele><time>2026-04-26T11:33:25.408Z</time></trkpt><trkpt lat="31.5936233" lon="-9.5273033"><ele>208.0</ele><time>2026-04-26T11:33:26.407Z</time></trkpt><trkpt lat="31.5938117" lon="-9.5271867"><ele>208.0</ele><time>2026-04-26T11:33:27.407Z</time></trkpt><trkpt lat="31.5940017" lon="-9.5270683"><ele>208.0</ele><time>2026-04-26T11:33:28.407Z</time></trkpt><trkpt lat="31.5941833" lon="-9.52696"><ele>208.0</ele><time>2026-04-26T11:33:29.407Z</time></trkpt><trkpt lat="31.5943617" lon="-9.526855"><ele>208.0</ele><time>2026-04-26T11:33:30.407Z</time></trkpt><trkpt lat="31.594545" lon="-9.5267517"><ele>208.0</ele><time>2026-04-26T11:33:31.407Z</time></trkpt><trkpt lat="31.5947367" lon="-9.52665"><ele>208.0</ele><time>2026-04-26T11:33:32.407Z</time></trkpt><trkpt lat="31.5949333" lon="-9.52655"><ele>208.0</ele><time>2026-04-26T11:33:33.407Z</time></trkpt><trkpt lat="31.5951317" lon="-9.5264517"><ele>208.0</ele><time>2026-04-26T11:33:34.407Z</time></trkpt><trkpt lat="31.5953367" lon="-9.526355"><ele>208.0</ele><time>2026-04-26T11:33:35.407Z</time></trkpt><trkpt lat="31.5955433" lon="-9.5262583"><ele>207.0</ele><time>2026-04-26T11:33:36.407Z</time></trkpt><trkpt lat="31.5957533" lon="-9.5261633"><ele>206.0</ele><time>2026-04-26T11:33:37.407Z</time></trkpt><trkpt lat="31.5959617" lon="-9.5260733"><ele>205.0</ele><time>2026-04-26T11:33:38.407Z</time></trkpt><trkpt lat="31.59616" lon="-9.5259733"><ele>204.0</ele><time>2026-04-26T11:33:39.407Z</time></trkpt><trkpt lat="31.5963567" lon="-9.52588"><ele>203.0</ele><time>2026-04-26T11:33:40.407Z</time></trkpt><trkpt lat="31.5965567" lon="-9.5257817"><ele>202.0</ele><time>2026-04-26T11:33:41.407Z</time></trkpt><trkpt lat="31.5967517" lon="-9.52569"><ele>202.0</ele><time>2026-04-26T11:33:42.407Z</time></trkpt><trkpt lat="31.5969517" lon="-9.5256"><ele>202.0</ele><time>2026-04-26T11:33:43.407Z</time></trkpt><trkpt lat="31.5971517" lon="-9.5255083"><ele>202.0</ele><time>2026-04-26T11:33:44.407Z</time></trkpt><trkpt lat="31.5973483" lon="-9.5254133"><ele>202.66666666666666</ele><time>2026-04-26T11:33:45.407Z</time></trkpt><trkpt lat="31.59755" lon="-9.5253133"><ele>203.33333333333331</ele><time>2026-04-26T11:33:46.407Z</time></trkpt><trkpt lat="31.5977533" lon="-9.5252117"><ele>204.0</ele><time>2026-04-26T11:33:47.407Z</time></trkpt><trkpt lat="31.5979533" lon="-9.5251217"><ele>204.0</ele><time>2026-04-26T11:33:48.407Z</time></trkpt><trkpt lat="31.5981467" lon="-9.5250333"><ele>204.0</ele><time>2026-04-26T11:33:49.407Z</time></trkpt><trkpt lat="31.598335" lon="-9.5249417"><ele>204.0</ele><time>2026-04-26T11:33:50.408Z</time></trkpt><trkpt lat="31.5985283" lon="-9.524855"><ele>205.66666666666669</ele><time>2026-04-26T11:33:51.407Z</time></trkpt><trkpt lat="31.59872" lon="-9.5247717"><ele>207.33333333333334</ele><time>2026-04-26T11:33:52.407Z</time></trkpt><trkpt lat="31.5989067" lon="-9.5246867"><ele>209.0</ele><time>2026-04-26T11:33:53.407Z</time></trkpt><trkpt lat="31.5990983" lon="-9.5245967"><ele>209.0</ele><time>2026-04-26T11:33:54.407Z</time></trkpt><trkpt lat="31.59928" lon="-9.5245067"><ele>209.0</ele><time>2026-04-26T11:33:55.408Z</time></trkpt><trkpt lat="31.5994617" lon="-9.52442"><ele>209.0</ele><time>2026-04-26T11:33:56.407Z</time></trkpt><trkpt lat="31.5996383" lon="-9.5243383"><ele>209.0</ele><time>2026-04-26T11:33:57.407Z</time></trkpt><trkpt lat="31.5998017" lon="-9.5242567"><ele>209.0</ele><time>2026-04-26T11:33:58.408Z</time></trkpt><trkpt lat="31.599965" lon="-9.5241783"><ele>209.0</ele><time>2026-04-26T11:33:59.407Z</time></trkpt><trkpt lat="31.6001317" lon="-9.524095"><ele>209.0</ele><time>2026-04-26T11:34:00.407Z</time></trkpt><trkpt lat="31.6002967" lon="-9.5240217"><ele>209.0</ele><time>2026-04-26T11:34:01.407Z</time></trkpt><trkpt lat="31.6004617" lon="-9.523945"><ele>209.0</ele><time>2026-04-26T11:34:02.407Z</time></trkpt><trkpt lat="31.6006317" lon="-9.5238633"><ele>208.66666666666669</ele><time>2026-04-26T11:34:03.407Z</time></trkpt><trkpt lat="31.6008117" lon="-9.5237833"><ele>208.33333333333331</ele><time>2026-04-26T11:34:04.407Z</time></trkpt><trkpt lat="31.6009933" lon="-9.5237"><ele>208.0</ele><time>2026-04-26T11:34:05.407Z</time></trkpt><trkpt lat="31.6011733" lon="-9.5236117"><ele>208.0</ele><time>2026-04-26T11:34:06.407Z</time></trkpt><trkpt lat="31.6013583" lon="-9.5235283"><ele>208.0</ele><time>2026-04-26T11:34:07.407Z</time></trkpt><trkpt lat="31.6015417" lon="-9.5234517"><ele>208.0</ele><time>2026-04-26T11:34:08.407Z</time></trkpt><trkpt lat="31.6017217" lon="-9.523375"><ele>208.0</ele><time>2026-04-26T11:34:09.407Z</time></trkpt><trkpt lat="31.6018867" lon="-9.5233117"><ele>208.0</ele><time>2026-04-26T11:34:10.407Z</time></trkpt><trkpt lat="31.6020433" lon="-9.5232533"><ele>208.0</ele><time>2026-04-26T11:34:11.407Z</time></trkpt><trkpt lat="31.602195" lon="-9.5232133"><ele>207.33333333333331</ele><time>2026-04-26T11:34:12.407Z</time></trkpt><trkpt lat="31.6023517" lon="-9.5231667"><ele>206.66666666666669</ele><time>2026-04-26T11:34:13.407Z</time></trkpt><trkpt lat="31.6025167" lon="-9.5231183"><ele>206.0</ele><time>2026-04-26T11:34:14.407Z</time></trkpt><trkpt lat="31.60269" lon="-9.5230717"><ele>206.0</ele><time>2026-04-26T11:34:15.407Z</time></trkpt><trkpt lat="31.6028717" lon="-9.52302"><ele>206.0</ele><time>2026-04-26T11:34:16.407Z</time></trkpt><trkpt lat="31.603055" lon="-9.5229717"><ele>206.0</ele><time>2026-04-26T11:34:17.407Z</time></trkpt><trkpt lat="31.60323" lon="-9.5229367"><ele>206.66666666666669</ele><time>2026-04-26T11:34:18.407Z</time></trkpt><trkpt lat="31.603425" lon="-9.5228967"><ele>207.33333333333331</ele><time>2026-04-26T11:34:19.407Z</time></trkpt><trkpt lat="31.603645" lon="-9.5228383"><ele>208.0</ele><time>2026-04-26T11:34:20.407Z</time></trkpt><trkpt lat="31.6038833" lon="-9.522785"><ele>208.0</ele><time>2026-04-26T11:34:21.407Z</time></trkpt><trkpt lat="31.6041317" lon="-9.5227217"><ele>208.0</ele><time>2026-04-26T11:34:22.407Z</time></trkpt><trkpt lat="31.60439" lon="-9.5226617"><ele>209.0</ele><time>2026-04-26T11:34:23.408Z</time></trkpt><trkpt lat="31.6046517" lon="-9.5225967"><ele>210.0</ele><time>2026-04-26T11:34:24.407Z</time></trkpt><trkpt lat="31.6049167" lon="-9.5225283"><ele>210.0</ele><time>2026-04-26T11:34:25.407Z</time></trkpt><trkpt lat="31.6051733" lon="-9.522465"><ele>210.0</ele><time>2026-04-26T11:34:26.407Z</time></trkpt><trkpt lat="31.60543" lon="-9.5223983"><ele>208.0</ele><time>2026-04-26T11:34:27.407Z</time></trkpt><trkpt lat="31.605685" lon="-9.522335"><ele>206.0</ele><time>2026-04-26T11:34:28.407Z</time></trkpt><trkpt lat="31.60594" lon="-9.5222733"><ele>206.5</ele><time>2026-04-26T11:34:29.407Z</time></trkpt><trkpt lat="31.6062083" lon="-9.5222117"><ele>207.0</ele><time>2026-04-26T11:34:30.407Z</time></trkpt><trkpt lat="31.6064717" lon="-9.5221433"><ele>207.0</ele><time>2026-04-26T11:34:31.407Z</time></trkpt><trkpt lat="31.6067217" lon="-9.52208"><ele>207.0</ele><time>2026-04-26T11:34:32.407Z</time></trkpt><trkpt lat="31.60697" lon="-9.5220167"><ele>206.5</ele><time>2026-04-26T11:34:33.407Z</time></trkpt><trkpt lat="31.6072117" lon="-9.5219517"><ele>206.0</ele><time>2026-04-26T11:34:34.407Z</time></trkpt><trkpt lat="31.60745" lon="-9.5218867"><ele>206.0</ele><time>2026-04-26T11:34:35.407Z</time></trkpt><trkpt lat="31.6076783" lon="-9.5218217"><ele>206.0</ele><time>2026-04-26T11:34:36.407Z</time></trkpt><trkpt lat="31.6079067" lon="-9.5217617"><ele>206.5</ele><time>2026-04-26T11:34:37.407Z</time></trkpt><trkpt lat="31.608135" lon="-9.5217067"><ele>207.0</ele><time>2026-04-26T11:34:38.407Z</time></trkpt><trkpt lat="31.60837" lon="-9.5216467"><ele>207.0</ele><time>2026-04-26T11:34:39.407Z</time></trkpt><trkpt lat="31.608605" lon="-9.5215933"><ele>207.0</ele><time>2026-04-26T11:34:40.407Z</time></trkpt><trkpt lat="31.608835" lon="-9.5215267"><ele>207.5</ele><time>2026-04-26T11:34:41.407Z</time></trkpt><trkpt lat="31.6090633" lon="-9.521465"><ele>208.0</ele><time>2026-04-26T11:34:42.407Z</time></trkpt><trkpt lat="31.6092833" lon="-9.5214117"><ele>207.33333333333331</ele><time>2026-04-26T11:34:43.407Z</time></trkpt><trkpt lat="31.6094967" lon="-9.5213533"><ele>206.66666666666669</ele><time>2026-04-26T11:34:44.407Z</time></trkpt><trkpt lat="31.6097083" lon="-9.5212933"><ele>206.0</ele><time>2026-04-26T11:34:45.407Z</time></trkpt><trkpt lat="31.6099167" lon="-9.5212417"><ele>206.0</ele><time>2026-04-26T11:34:46.407Z</time></trkpt><trkpt lat="31.6101233" lon="-9.5211933"><ele>206.0</ele><time>2026-04-26T11:34:47.407Z</time></trkpt><trkpt lat="31.6103317" lon="-9.5211433"><ele>206.0</ele><time>2026-04-26T11:34:48.407Z</time></trkpt><trkpt lat="31.610535" lon="-9.5210867"><ele>206.0</ele><time>2026-04-26T11:34:49.407Z</time></trkpt><trkpt lat="31.6107367" lon="-9.5210367"><ele>206.0</ele><time>2026-04-26T11:34:50.407Z</time></trkpt><trkpt lat="31.6109367" lon="-9.5209833"><ele>206.0</ele><time>2026-04-26T11:34:51.407Z</time></trkpt><trkpt lat="31.61114" lon="-9.5209267"><ele>206.33333333333334</ele><time>2026-04-26T11:34:52.407Z</time></trkpt><trkpt lat="31.6113483" lon="-9.5208733"><ele>206.66666666666669</ele><time>2026-04-26T11:34:53.407Z</time></trkpt><trkpt lat="31.611555" lon="-9.5208217"><ele>207.0</ele><time>2026-04-26T11:34:54.407Z</time></trkpt><trkpt lat="31.6117533" lon="-9.52077"><ele>207.0</ele><time>2026-04-26T11:34:55.407Z</time></trkpt><trkpt lat="31.6119483" lon="-9.5207283"><ele>207.0</ele><time>2026-04-26T11:34:56.407Z</time></trkpt><trkpt lat="31.6121333" lon="-9.5206883"><ele>207.0</ele><time>2026-04-26T11:34:57.407Z</time></trkpt><trkpt lat="31.6123183" lon="-9.5206367"><ele>207.33333333333331</ele><time>2026-04-26T11:34:58.407Z</time></trkpt><trkpt lat="31.6125117" lon="-9.5205883"><ele>207.66666666666666</ele><time>2026-04-26T11:34:59.407Z</time></trkpt><trkpt lat="31.6127033" lon="-9.5205367"><ele>208.0</ele><time>2026-04-26T11:35:00.407Z</time></trkpt><trkpt lat="31.6128983" lon="-9.5204867"><ele>207.33333333333331</ele><time>2026-04-26T11:35:01.407Z</time></trkpt><trkpt lat="31.6130933" lon="-9.52044"><ele>206.66666666666669</ele><time>2026-04-26T11:35:02.407Z</time></trkpt><trkpt lat="31.6132917" lon="-9.5203883"><ele>206.0</ele><time>2026-04-26T11:35:03.407Z</time></trkpt><trkpt lat="31.61348" lon="-9.52034"><ele>206.0</ele><time>2026-04-26T11:35:04.407Z</time></trkpt><trkpt lat="31.6136633" lon="-9.52029"><ele>206.0</ele><time>2026-04-26T11:35:05.407Z</time></trkpt><trkpt lat="31.6138533" lon="-9.5202367"><ele>206.0</ele><time>2026-04-26T11:35:06.407Z</time></trkpt><trkpt lat="31.6140483" lon="-9.5201867"><ele>206.0</ele><time>2026-04-26T11:35:07.408Z</time></trkpt><trkpt lat="31.6142433" lon="-9.5201417"><ele>206.0</ele><time>2026-04-26T11:35:08.407Z</time></trkpt><trkpt lat="31.6144333" lon="-9.5200917"><ele>206.0</ele><time>2026-04-26T11:35:09.407Z</time></trkpt><trkpt lat="31.6146183" lon="-9.5200417"><ele>206.33333333333334</ele><time>2026-04-26T11:35:10.407Z</time></trkpt><trkpt lat="31.6148" lon="-9.5199933"><ele>206.66666666666669</ele><time>2026-04-26T11:35:11.407Z</time></trkpt><trkpt lat="31.6149883" lon="-9.5199417"><ele>207.0</ele><time>2026-04-26T11:35:12.407Z</time></trkpt><trkpt lat="31.6151733" lon="-9.5198933"><ele>206.66666666666669</ele><time>2026-04-26T11:35:13.407Z</time></trkpt><trkpt lat="31.6153567" lon="-9.5198483"><ele>206.33333333333334</ele><time>2026-04-26T11:35:14.407Z</time></trkpt><trkpt lat="31.61554" lon="-9.5198"><ele>206.0</ele><time>2026-04-26T11:35:15.407Z</time></trkpt><trkpt lat="31.6157183" lon="-9.5197567"><ele>206.0</ele><time>2026-04-26T11:35:16.407Z</time></trkpt><trkpt lat="31.6159" lon="-9.519715"><ele>206.0</ele><time>2026-04-26T11:35:17.407Z</time></trkpt><trkpt lat="31.616075" lon="-9.5196717"><ele>206.0</ele><time>2026-04-26T11:35:18.407Z</time></trkpt><trkpt lat="31.616255" lon="-9.519625"><ele>206.66666666666669</ele><time>2026-04-26T11:35:19.407Z</time></trkpt><trkpt lat="31.616435" lon="-9.5195783"><ele>207.33333333333331</ele><time>2026-04-26T11:35:20.407Z</time></trkpt><trkpt lat="31.6166217" lon="-9.5195367"><ele>208.0</ele><time>2026-04-26T11:35:21.407Z</time></trkpt><trkpt lat="31.6167967" lon="-9.5195"><ele>207.66666666666666</ele><time>2026-04-26T11:35:22.407Z</time></trkpt><trkpt lat="31.6169583" lon="-9.5194667"><ele>207.33333333333331</ele><time>2026-04-26T11:35:23.407Z</time></trkpt><trkpt lat="31.617115" lon="-9.5194367"><ele>207.0</ele><time>2026-04-26T11:35:24.407Z</time></trkpt><trkpt lat="31.6172667" lon="-9.519405"><ele>207.0</ele><time>2026-04-26T11:35:25.407Z</time></trkpt><trkpt lat="31.61742" lon="-9.51938"><ele>207.0</ele><time>2026-04-26T11:35:26.407Z</time></trkpt><trkpt lat="31.6175767" lon="-9.5193533"><ele>207.0</ele><time>2026-04-26T11:35:27.407Z</time></trkpt><trkpt lat="31.6177417" lon="-9.51932"><ele>206.33333333333331</ele><time>2026-04-26T11:35:28.407Z</time></trkpt><trkpt lat="31.6179183" lon="-9.5192783"><ele>205.66666666666666</ele><time>2026-04-26T11:35:29.407Z</time></trkpt><trkpt lat="31.6180983" lon="-9.519235"><ele>205.0</ele><time>2026-04-26T11:35:30.407Z</time></trkpt><trkpt lat="31.6182867" lon="-9.5191883"><ele>205.0</ele><time>2026-04-26T11:35:31.407Z</time></trkpt><trkpt lat="31.61848" lon="-9.51915"><ele>205.0</ele><time>2026-04-26T11:35:32.408Z</time></trkpt><trkpt lat="31.6186817" lon="-9.5191117"><ele>205.0</ele><time>2026-04-26T11:35:33.407Z</time></trkpt><trkpt lat="31.6188783" lon="-9.5190667"><ele>206.0</ele><time>2026-04-26T11:35:34.408Z</time></trkpt><trkpt lat="31.619085" lon="-9.5190217"><ele>207.0</ele><time>2026-04-26T11:35:35.407Z</time></trkpt><trkpt lat="31.6192867" lon="-9.5189733"><ele>208.0</ele><time>2026-04-26T11:35:36.407Z</time></trkpt><trkpt lat="31.6194933" lon="-9.518925"><ele>208.0</ele><time>2026-04-26T11:35:37.407Z</time></trkpt><trkpt lat="31.6197067" lon="-9.5188833"><ele>208.0</ele><time>2026-04-26T11:35:38.407Z</time></trkpt><trkpt lat="31.6199333" lon="-9.5188367"><ele>208.0</ele><time>2026-04-26T11:35:39.407Z</time></trkpt><trkpt lat="31.6201683" lon="-9.5187917"><ele>208.5</ele><time>2026-04-26T11:35:40.407Z</time></trkpt><trkpt lat="31.6204183" lon="-9.5187383"><ele>209.0</ele><time>2026-04-26T11:35:41.407Z</time></trkpt><trkpt lat="31.620685" lon="-9.5186833"><ele>209.5</ele><time>2026-04-26T11:35:42.407Z</time></trkpt><trkpt lat="31.6209567" lon="-9.5186283"><ele>210.0</ele><time>2026-04-26T11:35:43.407Z</time></trkpt><trkpt lat="31.62122" lon="-9.51857"><ele>210.0</ele><time>2026-04-26T11:35:44.407Z</time></trkpt><trkpt lat="31.6214733" lon="-9.5185133"><ele>210.0</ele><time>2026-04-26T11:35:45.407Z</time></trkpt><trkpt lat="31.6217217" lon="-9.5184433"><ele>210.0</ele><time>2026-04-26T11:35:46.407Z</time></trkpt><trkpt lat="31.6219717" lon="-9.5183767"><ele>210.0</ele><time>2026-04-26T11:35:47.407Z</time></trkpt><trkpt lat="31.6222217" lon="-9.5183217"><ele>211.0</ele><time>2026-04-26T11:35:48.408Z</time></trkpt><trkpt lat="31.6224767" lon="-9.518265"><ele>212.0</ele><time>2026-04-26T11:35:49.407Z</time></trkpt><trkpt lat="31.622735" lon="-9.5182033"><ele>212.5</ele><time>2026-04-26T11:35:50.407Z</time></trkpt><trkpt lat="31.6229983" lon="-9.518145"><ele>213.0</ele><time>2026-04-26T11:35:51.407Z</time></trkpt><trkpt lat="31.623255" lon="-9.5180867"><ele>213.0</ele><time>2026-04-26T11:35:52.407Z</time></trkpt><trkpt lat="31.6235133" lon="-9.5180267"><ele>213.0</ele><time>2026-04-26T11:35:53.407Z</time></trkpt><trkpt lat="31.6237767" lon="-9.5179733"><ele>213.5</ele><time>2026-04-26T11:35:54.407Z</time></trkpt><trkpt lat="31.6240283" lon="-9.5179183"><ele>214.0</ele><time>2026-04-26T11:35:55.407Z</time></trkpt><trkpt lat="31.6242817" lon="-9.517865"><ele>213.0</ele><time>2026-04-26T11:35:56.407Z</time></trkpt><trkpt lat="31.6245333" lon="-9.5178117"><ele>212.0</ele><time>2026-04-26T11:35:57.407Z</time></trkpt><trkpt lat="31.624785" lon="-9.5177583"><ele>212.0</ele><time>2026-04-26T11:35:58.407Z</time></trkpt><trkpt lat="31.625035" lon="-9.5177067"><ele>212.0</ele><time>2026-04-26T11:35:59.407Z</time></trkpt><trkpt lat="31.6252883" lon="-9.51765"><ele>211.5</ele><time>2026-04-26T11:36:00.407Z</time></trkpt><trkpt lat="31.625545" lon="-9.5175883"><ele>211.0</ele><time>2026-04-26T11:36:01.407Z</time></trkpt><trkpt lat="31.6258033" lon="-9.5175283"><ele>211.0</ele><time>2026-04-26T11:36:02.407Z</time></trkpt><trkpt lat="31.62606" lon="-9.5174717"><ele>211.0</ele><time>2026-04-26T11:36:03.407Z</time></trkpt><trkpt lat="31.62632" lon="-9.517415"><ele>211.0</ele><time>2026-04-26T11:36:04.407Z</time></trkpt><trkpt lat="31.626585" lon="-9.517355"><ele>211.0</ele><time>2026-04-26T11:36:05.407Z</time></trkpt><trkpt lat="31.6268467" lon="-9.5173017"><ele>211.0</ele><time>2026-04-26T11:36:06.407Z</time></trkpt><trkpt lat="31.627095" lon="-9.5172517"><ele>211.0</ele><time>2026-04-26T11:36:07.407Z</time></trkpt><trkpt lat="31.6273333" lon="-9.5172"><ele>211.0</ele><time>2026-04-26T11:36:08.407Z</time></trkpt><trkpt lat="31.6275633" lon="-9.5171517"><ele>211.0</ele><time>2026-04-26T11:36:09.407Z</time></trkpt><trkpt lat="31.627795" lon="-9.5171033"><ele>210.5</ele><time>2026-04-26T11:36:10.407Z</time></trkpt><trkpt lat="31.6280283" lon="-9.51705"><ele>210.0</ele><time>2026-04-26T11:36:11.407Z</time></trkpt><trkpt lat="31.628265" lon="-9.51699"><ele>210.0</ele><time>2026-04-26T11:36:12.407Z</time></trkpt><trkpt lat="31.6284983" lon="-9.516935"><ele>210.0</ele><time>2026-04-26T11:36:13.407Z</time></trkpt><trkpt lat="31.6287367" lon="-9.516875"><ele>210.0</ele><time>2026-04-26T11:36:14.407Z</time></trkpt><trkpt lat="31.6289767" lon="-9.5168067"><ele>210.0</ele><time>2026-04-26T11:36:15.407Z</time></trkpt><trkpt lat="31.62921" lon="-9.5167417"><ele>210.0</ele><time>2026-04-26T11:36:16.407Z</time></trkpt><trkpt lat="31.6294433" lon="-9.5166633"><ele>210.0</ele><time>2026-04-26T11:36:17.407Z</time></trkpt><trkpt lat="31.62968" lon="-9.5165783"><ele>210.0</ele><time>2026-04-26T11:36:18.407Z</time></trkpt><trkpt lat="31.629915" lon="-9.516485"><ele>210.0</ele><time>2026-04-26T11:36:19.407Z</time></trkpt><trkpt lat="31.6301467" lon="-9.51639"><ele>209.5</ele><time>2026-04-26T11:36:20.407Z</time></trkpt><trkpt lat="31.6303633" lon="-9.5162983"><ele>209.0</ele><time>2026-04-26T11:36:21.407Z</time></trkpt><trkpt lat="31.6305783" lon="-9.51621"><ele>209.0</ele><time>2026-04-26T11:36:22.407Z</time></trkpt><trkpt lat="31.6307967" lon="-9.51612"><ele>209.0</ele><time>2026-04-26T11:36:23.407Z</time></trkpt><trkpt lat="31.631015" lon="-9.5160267"><ele>208.5</ele><time>2026-04-26T11:36:24.408Z</time></trkpt><trkpt lat="31.631235" lon="-9.5159317"><ele>208.0</ele><time>2026-04-26T11:36:25.407Z</time></trkpt><trkpt lat="31.63146" lon="-9.51584"><ele>208.0</ele><time>2026-04-26T11:36:26.407Z</time></trkpt><trkpt lat="31.6316883" lon="-9.5157467"><ele>208.0</ele><time>2026-04-26T11:36:27.407Z</time></trkpt><trkpt lat="31.63192" lon="-9.5156533"><ele>207.5</ele><time>2026-04-26T11:36:28.407Z</time></trkpt><trkpt lat="31.6321533" lon="-9.5155567"><ele>207.0</ele><time>2026-04-26T11:36:29.407Z</time></trkpt><trkpt lat="31.63239" lon="-9.5154633"><ele>207.0</ele><time>2026-04-26T11:36:30.407Z</time></trkpt><trkpt lat="31.6326333" lon="-9.5153617"><ele>207.0</ele><time>2026-04-26T11:36:31.407Z</time></trkpt><trkpt lat="31.6328767" lon="-9.5152517"><ele>206.0</ele><time>2026-04-26T11:36:32.407Z</time></trkpt><trkpt lat="31.63312" lon="-9.5151417"><ele>205.0</ele><time>2026-04-26T11:36:33.407Z</time></trkpt><trkpt lat="31.6333533" lon="-9.5150417"><ele>205.0</ele><time>2026-04-26T11:36:34.407Z</time></trkpt><trkpt lat="31.6335767" lon="-9.5149467"><ele>205.0</ele><time>2026-04-26T11:36:35.407Z</time></trkpt><trkpt lat="31.6337983" lon="-9.51485"><ele>204.5</ele><time>2026-04-26T11:36:36.407Z</time></trkpt><trkpt lat="31.634015" lon="-9.5147533"><ele>204.0</ele><time>2026-04-26T11:36:37.407Z</time></trkpt><trkpt lat="31.6342317" lon="-9.51466"><ele>203.5</ele><time>2026-04-26T11:36:38.407Z</time></trkpt><trkpt lat="31.6344517" lon="-9.5145667"><ele>203.0</ele><time>2026-04-26T11:36:39.407Z</time></trkpt><trkpt lat="31.6346733" lon="-9.5144717"><ele>204.0</ele><time>2026-04-26T11:36:40.407Z</time></trkpt><trkpt lat="31.6348933" lon="-9.51438"><ele>205.0</ele><time>2026-04-26T11:36:41.407Z</time></trkpt><trkpt lat="31.6351083" lon="-9.51429"><ele>204.5</ele><time>2026-04-26T11:36:42.407Z</time></trkpt><trkpt lat="31.63533" lon="-9.5141983"><ele>204.0</ele><time>2026-04-26T11:36:43.407Z</time></trkpt><trkpt lat="31.6355483" lon="-9.5141133"><ele>204.0</ele><time>2026-04-26T11:36:44.407Z</time></trkpt><trkpt lat="31.6357717" lon="-9.5140233"><ele>204.0</ele><time>2026-04-26T11:36:45.407Z</time></trkpt><trkpt lat="31.635995" lon="-9.51393"><ele>204.0</ele><time>2026-04-26T11:36:46.407Z</time></trkpt><trkpt lat="31.63622" lon="-9.513835"><ele>204.0</ele><time>2026-04-26T11:36:47.407Z</time></trkpt><trkpt lat="31.6364483" lon="-9.51374"><ele>202.5</ele><time>2026-04-26T11:36:48.407Z</time></trkpt><trkpt lat="31.6366767" lon="-9.5136417"><ele>201.0</ele><time>2026-04-26T11:36:49.407Z</time></trkpt><trkpt lat="31.6369133" lon="-9.5135433"><ele>200.0</ele><time>2026-04-26T11:36:50.407Z</time></trkpt><trkpt lat="31.6371533" lon="-9.5134467"><ele>199.0</ele><time>2026-04-26T11:36:51.408Z</time></trkpt><trkpt lat="31.6373983" lon="-9.5133483"><ele>199.0</ele><time>2026-04-26T11:36:52.407Z</time></trkpt><trkpt lat="31.63763" lon="-9.513245"><ele>199.0</ele><time>2026-04-26T11:36:53.407Z</time></trkpt><trkpt lat="31.63786" lon="-9.5131333"><ele>198.5</ele><time>2026-04-26T11:36:54.407Z</time></trkpt><trkpt lat="31.638095" lon="-9.5130233"><ele>198.0</ele><time>2026-04-26T11:36:55.407Z</time></trkpt><trkpt lat="31.6383283" lon="-9.512915"><ele>197.5</ele><time>2026-04-26T11:36:56.407Z</time></trkpt><trkpt lat="31.6385483" lon="-9.5128217"><ele>197.0</ele><time>2026-04-26T11:36:57.407Z</time></trkpt><trkpt lat="31.6387633" lon="-9.5127233"><ele>197.0</ele><time>2026-04-26T11:36:58.407Z</time></trkpt><trkpt lat="31.6389717" lon="-9.5126317"><ele>197.0</ele><time>2026-04-26T11:36:59.407Z</time></trkpt><trkpt lat="31.6391783" lon="-9.5125533"><ele>197.0</ele><time>2026-04-26T11:37:00.407Z</time></trkpt><trkpt lat="31.6393867" lon="-9.5124633"><ele>197.33333333333334</ele><time>2026-04-26T11:37:01.407Z</time></trkpt><trkpt lat="31.6395967" lon="-9.512375"><ele>197.66666666666669</ele><time>2026-04-26T11:37:02.407Z</time></trkpt><trkpt lat="31.6398017" lon="-9.5122833"><ele>198.0</ele><time>2026-04-26T11:37:03.407Z</time></trkpt><trkpt lat="31.6400083" lon="-9.512195"><ele>198.0</ele><time>2026-04-26T11:37:04.407Z</time></trkpt><trkpt lat="31.640215" lon="-9.5121067"><ele>198.0</ele><time>2026-04-26T11:37:05.407Z</time></trkpt><trkpt lat="31.640415" lon="-9.5120183"><ele>198.0</ele><time>2026-04-26T11:37:06.407Z</time></trkpt><trkpt lat="31.6406083" lon="-9.51194"><ele>199.66666666666669</ele><time>2026-04-26T11:37:07.407Z</time></trkpt><trkpt lat="31.6407967" lon="-9.5118617"><ele>201.33333333333334</ele><time>2026-04-26T11:37:08.407Z</time></trkpt><trkpt lat="31.6409817" lon="-9.5117767"><ele>203.0</ele><time>2026-04-26T11:37:09.407Z</time></trkpt><trkpt lat="31.6411617" lon="-9.5116983"><ele>204.0</ele><time>2026-04-26T11:37:10.407Z</time></trkpt><trkpt lat="31.6413467" lon="-9.511615"><ele>205.0</ele><time>2026-04-26T11:37:11.407Z</time></trkpt><trkpt lat="31.6415333" lon="-9.5115367"><ele>206.0</ele><time>2026-04-26T11:37:12.407Z</time></trkpt><trkpt lat="31.64172" lon="-9.5114517"><ele>206.0</ele><time>2026-04-26T11:37:13.407Z</time></trkpt><trkpt lat="31.6419133" lon="-9.51137"><ele>206.0</ele><time>2026-04-26T11:37:14.407Z</time></trkpt><trkpt lat="31.642105" lon="-9.5112883"><ele>206.0</ele><time>2026-04-26T11:37:15.407Z</time></trkpt><trkpt lat="31.6423" lon="-9.51121"><ele>206.0</ele><time>2026-04-26T11:37:16.407Z</time></trkpt><trkpt lat="31.642495" lon="-9.5111267"><ele>206.0</ele><time>2026-04-26T11:37:17.407Z</time></trkpt><trkpt lat="31.6426967" lon="-9.5110417"><ele>206.0</ele><time>2026-04-26T11:37:18.407Z</time></trkpt><trkpt lat="31.6429" lon="-9.51095"><ele>207.0</ele><time>2026-04-26T11:37:19.407Z</time></trkpt><trkpt lat="31.6431033" lon="-9.51086"><ele>208.0</ele><time>2026-04-26T11:37:20.407Z</time></trkpt><trkpt lat="31.643305" lon="-9.5107633"><ele>209.0</ele><time>2026-04-26T11:37:21.407Z</time></trkpt><trkpt lat="31.6435083" lon="-9.5106667"><ele>209.0</ele><time>2026-04-26T11:37:22.407Z</time></trkpt><trkpt lat="31.6437133" lon="-9.5105617"><ele>209.0</ele><time>2026-04-26T11:37:23.407Z</time></trkpt><trkpt lat="31.6439167" lon="-9.5104517"><ele>209.0</ele><time>2026-04-26T11:37:24.407Z</time></trkpt><trkpt lat="31.6441167" lon="-9.510335"><ele>209.0</ele><time>2026-04-26T11:37:25.407Z</time></trkpt><trkpt lat="31.644315" lon="-9.5102183"><ele>209.0</ele><time>2026-04-26T11:37:26.407Z</time></trkpt><trkpt lat="31.6445083" lon="-9.5100883"><ele>209.0</ele><time>2026-04-26T11:37:27.407Z</time></trkpt><trkpt lat="31.6446983" lon="-9.5099567"><ele>209.5</ele><time>2026-04-26T11:37:28.407Z</time></trkpt><trkpt lat="31.6448933" lon="-9.5098133"><ele>210.0</ele><time>2026-04-26T11:37:29.407Z</time></trkpt><trkpt lat="31.645085" lon="-9.5096683"><ele>209.0</ele><time>2026-04-26T11:37:30.407Z</time></trkpt><trkpt lat="31.645265" lon="-9.5095217"><ele>208.0</ele><time>2026-04-26T11:37:31.407Z</time></trkpt><trkpt lat="31.6454583" lon="-9.5093717"><ele>208.0</ele><time>2026-04-26T11:37:32.407Z</time></trkpt><trkpt lat="31.6456467" lon="-9.5092217"><ele>208.0</ele><time>2026-04-26T11:37:33.407Z</time></trkpt><trkpt lat="31.6458367" lon="-9.5090583"><ele>208.0</ele><time>2026-04-26T11:37:34.407Z</time></trkpt><trkpt lat="31.64603" lon="-9.5088967"><ele>208.0</ele><time>2026-04-26T11:37:35.407Z</time></trkpt><trkpt lat="31.6462133" lon="-9.508745"><ele>208.33333333333331</ele><time>2026-04-26T11:37:36.407Z</time></trkpt><trkpt lat="31.646395" lon="-9.5085983"><ele>208.66666666666669</ele><time>2026-04-26T11:37:37.407Z</time></trkpt><trkpt lat="31.6465783" lon="-9.5084533"><ele>209.0</ele><time>2026-04-26T11:37:38.407Z</time></trkpt><trkpt lat="31.6467667" lon="-9.5083"><ele>209.0</ele><time>2026-04-26T11:37:39.407Z</time></trkpt><trkpt lat="31.646955" lon="-9.508145"><ele>209.0</ele><time>2026-04-26T11:37:40.407Z</time></trkpt><trkpt lat="31.6471417" lon="-9.507985"><ele>209.5</ele><time>2026-04-26T11:37:41.407Z</time></trkpt><trkpt lat="31.6473333" lon="-9.507825"><ele>210.0</ele><time>2026-04-26T11:37:42.407Z</time></trkpt><trkpt lat="31.6475133" lon="-9.507675"><ele>210.0</ele><time>2026-04-26T11:37:43.407Z</time></trkpt><trkpt lat="31.6476833" lon="-9.507535"><ele>210.0</ele><time>2026-04-26T11:37:44.407Z</time></trkpt><trkpt lat="31.6478483" lon="-9.5074017"><ele>210.0</ele><time>2026-04-26T11:37:45.407Z</time></trkpt><trkpt lat="31.6480117" lon="-9.50727"><ele>210.33333333333331</ele><time>2026-04-26T11:37:46.407Z</time></trkpt><trkpt lat="31.648175" lon="-9.5071367"><ele>210.66666666666666</ele><time>2026-04-26T11:37:47.407Z</time></trkpt><trkpt lat="31.6483367" lon="-9.5070133"><ele>211.0</ele><time>2026-04-26T11:37:48.407Z</time></trkpt><trkpt lat="31.6485" lon="-9.506895"><ele>211.0</ele><time>2026-04-26T11:37:49.407Z</time></trkpt><trkpt lat="31.6486683" lon="-9.5067767"><ele>211.0</ele><time>2026-04-26T11:37:50.407Z</time></trkpt><trkpt lat="31.64884" lon="-9.50666"><ele>211.0</ele><time>2026-04-26T11:37:51.407Z</time></trkpt><trkpt lat="31.649015" lon="-9.50654"><ele>211.0</ele><time>2026-04-26T11:37:52.407Z</time></trkpt><trkpt lat="31.6491917" lon="-9.5064217"><ele>211.0</ele><time>2026-04-26T11:37:53.407Z</time></trkpt><trkpt lat="31.6493717" lon="-9.5063083"><ele>211.0</ele><time>2026-04-26T11:37:54.407Z</time></trkpt><trkpt lat="31.6495517" lon="-9.5061917"><ele>211.33333333333331</ele><time>2026-04-26T11:37:55.407Z</time></trkpt><trkpt lat="31.6497367" lon="-9.5060733"><ele>211.66666666666669</ele><time>2026-04-26T11:37:56.407Z</time></trkpt><trkpt lat="31.649925" lon="-9.5059533"><ele>212.0</ele><time>2026-04-26T11:37:57.407Z</time></trkpt><trkpt lat="31.6501167" lon="-9.50583"><ele>211.66666666666669</ele><time>2026-04-26T11:37:58.407Z</time></trkpt><trkpt lat="31.6503083" lon="-9.5057067"><ele>211.33333333333331</ele><time>2026-04-26T11:37:59.407Z</time></trkpt><trkpt lat="31.65051" lon="-9.5055833"><ele>211.0</ele><time>2026-04-26T11:38:00.407Z</time></trkpt><trkpt lat="31.6506983" lon="-9.50546"><ele>211.0</ele><time>2026-04-26T11:38:01.407Z</time></trkpt><trkpt lat="31.6508833" lon="-9.5053367"><ele>211.0</ele><time>2026-04-26T11:38:02.407Z</time></trkpt><trkpt lat="31.651075" lon="-9.5052167"><ele>211.0</ele><time>2026-04-26T11:38:03.407Z</time></trkpt><trkpt lat="31.651265" lon="-9.5050983"><ele>212.0</ele><time>2026-04-26T11:38:04.407Z</time></trkpt><trkpt lat="31.6514567" lon="-9.5049767"><ele>213.0</ele><time>2026-04-26T11:38:05.407Z</time></trkpt><trkpt lat="31.6516533" lon="-9.5048533"><ele>214.0</ele><time>2026-04-26T11:38:06.407Z</time></trkpt><trkpt lat="31.65185" lon="-9.5047283"><ele>214.0</ele><time>2026-04-26T11:38:07.407Z</time></trkpt><trkpt lat="31.6520533" lon="-9.5046033"><ele>214.0</ele><time>2026-04-26T11:38:08.407Z</time></trkpt><trkpt lat="31.65226" lon="-9.5044733"><ele>214.0</ele><time>2026-04-26T11:38:09.407Z</time></trkpt><trkpt lat="31.652465" lon="-9.5043417"><ele>214.0</ele><time>2026-04-26T11:38:10.407Z</time></trkpt><trkpt lat="31.65267" lon="-9.5042117"><ele>214.5</ele><time>2026-04-26T11:38:11.407Z</time></trkpt><trkpt lat="31.6528767" lon="-9.504075"><ele>215.0</ele><time>2026-04-26T11:38:12.407Z</time></trkpt><trkpt lat="31.65309" lon="-9.50394"><ele>215.0</ele><time>2026-04-26T11:38:13.407Z</time></trkpt><trkpt lat="31.653295" lon="-9.5038117"><ele>215.0</ele><time>2026-04-26T11:38:14.407Z</time></trkpt><trkpt lat="31.6534917" lon="-9.5036967"><ele>215.33333333333334</ele><time>2026-04-26T11:38:15.407Z</time></trkpt><trkpt lat="31.6536833" lon="-9.5035733"><ele>215.66666666666669</ele><time>2026-04-26T11:38:16.407Z</time></trkpt><trkpt lat="31.6538817" lon="-9.503455"><ele>216.0</ele><time>2026-04-26T11:38:17.407Z</time></trkpt><trkpt lat="31.654085" lon="-9.5033283"><ele>216.0</ele><time>2026-04-26T11:38:18.408Z</time></trkpt><trkpt lat="31.6542833" lon="-9.5032017"><ele>216.0</ele><time>2026-04-26T11:38:19.407Z</time></trkpt><trkpt lat="31.6544767" lon="-9.50308"><ele>216.0</ele><time>2026-04-26T11:38:20.407Z</time></trkpt><trkpt lat="31.6546667" lon="-9.502965"><ele>215.66666666666669</ele><time>2026-04-26T11:38:21.407Z</time></trkpt><trkpt lat="31.6548567" lon="-9.5028483"><ele>215.33333333333334</ele><time>2026-04-26T11:38:22.407Z</time></trkpt><trkpt lat="31.6550483" lon="-9.50273"><ele>215.0</ele><time>2026-04-26T11:38:23.407Z</time></trkpt><trkpt lat="31.6552417" lon="-9.5026133"><ele>214.66666666666669</ele><time>2026-04-26T11:38:24.407Z</time></trkpt><trkpt lat="31.6554383" lon="-9.5025"><ele>214.33333333333331</ele><time>2026-04-26T11:38:25.407Z</time></trkpt><trkpt lat="31.6556433" lon="-9.5023917"><ele>214.0</ele><time>2026-04-26T11:38:26.407Z</time></trkpt><trkpt lat="31.6558383" lon="-9.5022933"><ele>214.0</ele><time>2026-04-26T11:38:27.408Z</time></trkpt><trkpt lat="31.656035" lon="-9.5022017"><ele>214.0</ele><time>2026-04-26T11:38:28.407Z</time></trkpt><trkpt lat="31.6562333" lon="-9.502125"><ele>214.0</ele><time>2026-04-26T11:38:29.407Z</time></trkpt><trkpt lat="31.6564367" lon="-9.5020483"><ele>214.33333333333331</ele><time>2026-04-26T11:38:30.407Z</time></trkpt><trkpt lat="31.6566383" lon="-9.501975"><ele>214.66666666666669</ele><time>2026-04-26T11:38:31.407Z</time></trkpt><trkpt lat="31.6568367" lon="-9.50191"><ele>215.0</ele><time>2026-04-26T11:38:32.407Z</time></trkpt><trkpt lat="31.6570283" lon="-9.501845"><ele>215.0</ele><time>2026-04-26T11:38:33.407Z</time></trkpt><trkpt lat="31.65721" lon="-9.5017967"><ele>215.0</ele><time>2026-04-26T11:38:34.407Z</time></trkpt><trkpt lat="31.6573817" lon="-9.5017517"><ele>215.0</ele><time>2026-04-26T11:38:35.407Z</time></trkpt><trkpt lat="31.6575417" lon="-9.501715"><ele>215.0</ele><time>2026-04-26T11:38:36.407Z</time></trkpt><trkpt lat="31.6577083" lon="-9.5016783"><ele>215.0</ele><time>2026-04-26T11:38:37.407Z</time></trkpt><trkpt lat="31.6578767" lon="-9.5016383"><ele>215.0</ele><time>2026-04-26T11:38:38.407Z</time></trkpt><trkpt lat="31.6580433" lon="-9.5015967"><ele>214.33333333333334</ele><time>2026-04-26T11:38:39.407Z</time></trkpt><trkpt lat="31.6582083" lon="-9.5015483"><ele>213.66666666666669</ele><time>2026-04-26T11:38:40.407Z</time></trkpt><trkpt lat="31.6583767" lon="-9.5014933"><ele>213.0</ele><time>2026-04-26T11:38:41.407Z</time></trkpt><trkpt lat="31.6585417" lon="-9.5014283"><ele>212.33333333333331</ele><time>2026-04-26T11:38:42.407Z</time></trkpt><trkpt lat="31.6587083" lon="-9.501355"><ele>211.66666666666666</ele><time>2026-04-26T11:38:43.407Z</time></trkpt><trkpt lat="31.65888" lon="-9.5012733"><ele>211.0</ele><time>2026-04-26T11:38:44.407Z</time></trkpt><trkpt lat="31.659055" lon="-9.501195"><ele>211.0</ele><time>2026-04-26T11:38:45.407Z</time></trkpt><trkpt lat="31.6592317" lon="-9.5011183"><ele>211.0</ele><time>2026-04-26T11:38:46.407Z</time></trkpt><trkpt lat="31.659415" lon="-9.50104"><ele>211.0</ele><time>2026-04-26T11:38:47.407Z</time></trkpt><trkpt lat="31.6595917" lon="-9.500965"><ele>210.33333333333331</ele><time>2026-04-26T11:38:48.407Z</time></trkpt><trkpt lat="31.6597683" lon="-9.5008917"><ele>209.66666666666669</ele><time>2026-04-26T11:38:49.407Z</time></trkpt><trkpt lat="31.659935" lon="-9.500825"><ele>209.0</ele><time>2026-04-26T11:38:50.406Z</time></trkpt><trkpt lat="31.660095" lon="-9.500755"><ele>209.0</ele><time>2026-04-26T11:38:51.406Z</time></trkpt><trkpt lat="31.6602483" lon="-9.5006783"><ele>209.0</ele><time>2026-04-26T11:38:52.406Z</time></trkpt><trkpt lat="31.6604" lon="-9.5006133"><ele>209.0</ele><time>2026-04-26T11:38:53.406Z</time></trkpt><trkpt lat="31.66055" lon="-9.5005533"><ele>209.0</ele><time>2026-04-26T11:38:54.406Z</time></trkpt><trkpt lat="31.6607117" lon="-9.5004917"><ele>209.0</ele><time>2026-04-26T11:38:55.406Z</time></trkpt><trkpt lat="31.660875" lon="-9.5004167"><ele>209.0</ele><time>2026-04-26T11:38:56.406Z</time></trkpt><trkpt lat="31.6610433" lon="-9.5003417"><ele>208.33333333333334</ele><time>2026-04-26T11:38:57.406Z</time></trkpt><trkpt lat="31.66122" lon="-9.5002633"><ele>207.66666666666669</ele><time>2026-04-26T11:38:58.406Z</time></trkpt><trkpt lat="31.6614033" lon="-9.5001883"><ele>207.0</ele><time>2026-04-26T11:38:59.406Z</time></trkpt><trkpt lat="31.661595" lon="-9.5001067"><ele>207.0</ele><time>2026-04-26T11:39:00.406Z</time></trkpt><trkpt lat="31.661795" lon="-9.5000217"><ele>207.0</ele><time>2026-04-26T11:39:01.406Z</time></trkpt><trkpt lat="31.661995" lon="-9.499935"><ele>207.0</ele><time>2026-04-26T11:39:02.406Z</time></trkpt><trkpt lat="31.6622" lon="-9.499845"><ele>207.66666666666669</ele><time>2026-04-26T11:39:03.406Z</time></trkpt><trkpt lat="31.6624017" lon="-9.4997483"><ele>208.33333333333334</ele><time>2026-04-26T11:39:04.407Z</time></trkpt><trkpt lat="31.6626117" lon="-9.49965"><ele>209.0</ele><time>2026-04-26T11:39:05.406Z</time></trkpt><trkpt lat="31.66281" lon="-9.4995617"><ele>209.0</ele><time>2026-04-26T11:39:06.406Z</time></trkpt><trkpt lat="31.663005" lon="-9.4994733"><ele>209.0</ele><time>2026-04-26T11:39:07.406Z</time></trkpt><trkpt lat="31.6632017" lon="-9.4993867"><ele>209.0</ele><time>2026-04-26T11:39:08.407Z</time></trkpt><trkpt lat="31.6634" lon="-9.4992967"><ele>209.0</ele><time>2026-04-26T11:39:09.406Z</time></trkpt><trkpt lat="31.6636067" lon="-9.49921"><ele>209.0</ele><time>2026-04-26T11:39:10.406Z</time></trkpt><trkpt lat="31.663815" lon="-9.4991217"><ele>209.0</ele><time>2026-04-26T11:39:11.406Z</time></trkpt><trkpt lat="31.6640217" lon="-9.4990267"><ele>207.66666666666669</ele><time>2026-04-26T11:39:12.406Z</time></trkpt><trkpt lat="31.6642283" lon="-9.4989367"><ele>206.33333333333331</ele><time>2026-04-26T11:39:13.406Z</time></trkpt><trkpt lat="31.664435" lon="-9.49884"><ele>205.0</ele><time>2026-04-26T11:39:14.406Z</time></trkpt><trkpt lat="31.6646483" lon="-9.49875"><ele>205.0</ele><time>2026-04-26T11:39:15.406Z</time></trkpt><trkpt lat="31.6648583" lon="-9.4986617"><ele>205.0</ele><time>2026-04-26T11:39:16.406Z</time></trkpt><trkpt lat="31.6650683" lon="-9.498575"><ele>205.0</ele><time>2026-04-26T11:39:17.406Z</time></trkpt><trkpt lat="31.6652783" lon="-9.4984817"><ele>205.66666666666666</ele><time>2026-04-26T11:39:18.406Z</time></trkpt><trkpt lat="31.6654817" lon="-9.4983917"><ele>206.33333333333331</ele><time>2026-04-26T11:39:19.406Z</time></trkpt><trkpt lat="31.6656733" lon="-9.4983083"><ele>207.0</ele><time>2026-04-26T11:39:20.406Z</time></trkpt><trkpt lat="31.66586" lon="-9.4982267"><ele>207.0</ele><time>2026-04-26T11:39:21.406Z</time></trkpt><trkpt lat="31.666035" lon="-9.498155"><ele>207.0</ele><time>2026-04-26T11:39:22.406Z</time></trkpt><trkpt lat="31.6662083" lon="-9.4980783"><ele>207.0</ele><time>2026-04-26T11:39:23.406Z</time></trkpt><trkpt lat="31.6663833" lon="-9.4980017"><ele>207.0</ele><time>2026-04-26T11:39:24.406Z</time></trkpt><trkpt lat="31.6665617" lon="-9.4979267"><ele>207.0</ele><time>2026-04-26T11:39:25.406Z</time></trkpt><trkpt lat="31.666735" lon="-9.497855"><ele>207.0</ele><time>2026-04-26T11:39:26.406Z</time></trkpt><trkpt lat="31.6669133" lon="-9.4977833"><ele>207.66666666666669</ele><time>2026-04-26T11:39:27.406Z</time></trkpt><trkpt lat="31.6671" lon="-9.4977117"><ele>208.33333333333334</ele><time>2026-04-26T11:39:28.406Z</time></trkpt><trkpt lat="31.66729" lon="-9.4976483"><ele>209.0</ele><time>2026-04-26T11:39:29.406Z</time></trkpt><trkpt lat="31.6674883" lon="-9.4975967"><ele>209.0</ele><time>2026-04-26T11:39:30.406Z</time></trkpt><trkpt lat="31.6676833" lon="-9.4975533"><ele>209.0</ele><time>2026-04-26T11:39:31.406Z</time></trkpt><trkpt lat="31.66788" lon="-9.4975017"><ele>209.0</ele><time>2026-04-26T11:39:32.406Z</time></trkpt><trkpt lat="31.6680833" lon="-9.49745"><ele>210.33333333333334</ele><time>2026-04-26T11:39:33.406Z</time></trkpt><trkpt lat="31.66829" lon="-9.497395"><ele>211.66666666666669</ele><time>2026-04-26T11:39:34.406Z</time></trkpt><trkpt lat="31.6684933" lon="-9.497345"><ele>213.0</ele><time>2026-04-26T11:39:35.407Z</time></trkpt><trkpt lat="31.6686983" lon="-9.4972917"><ele>214.66666666666669</ele><time>2026-04-26T11:39:36.406Z</time></trkpt><trkpt lat="31.668905" lon="-9.4972367"><ele>216.33333333333334</ele><time>2026-04-26T11:39:37.406Z</time></trkpt><trkpt lat="31.66911" lon="-9.4971867"><ele>218.0</ele><time>2026-04-26T11:39:38.406Z</time></trkpt><trkpt lat="31.6693167" lon="-9.4971383"><ele>218.33333333333334</ele><time>2026-04-26T11:39:39.407Z</time></trkpt><trkpt lat="31.6695217" lon="-9.4970883"><ele>218.66666666666669</ele><time>2026-04-26T11:39:40.406Z</time></trkpt><trkpt lat="31.6697317" lon="-9.4970317"><ele>219.0</ele><time>2026-04-26T11:39:41.406Z</time></trkpt><trkpt lat="31.6699383" lon="-9.4969783"><ele>218.66666666666669</ele><time>2026-04-26T11:39:42.406Z</time></trkpt><trkpt lat="31.67015" lon="-9.4969233"><ele>218.33333333333334</ele><time>2026-04-26T11:39:43.406Z</time></trkpt><trkpt lat="31.6703633" lon="-9.496875"><ele>218.0</ele><time>2026-04-26T11:39:44.406Z</time></trkpt><trkpt lat="31.6705767" lon="-9.4968233"><ele>218.0</ele><time>2026-04-26T11:39:45.406Z</time></trkpt><trkpt lat="31.67079" lon="-9.4967717"><ele>218.0</ele><time>2026-04-26T11:39:46.406Z</time></trkpt><trkpt lat="31.6709967" lon="-9.4967167"><ele>218.0</ele><time>2026-04-26T11:39:47.406Z</time></trkpt><trkpt lat="31.671205" lon="-9.4966667"><ele>219.33333333333334</ele><time>2026-04-26T11:39:48.406Z</time></trkpt><trkpt lat="31.671415" lon="-9.4966183"><ele>220.66666666666669</ele><time>2026-04-26T11:39:49.406Z</time></trkpt><trkpt lat="31.6716267" lon="-9.496565"><ele>222.0</ele><time>2026-04-26T11:39:50.406Z</time></trkpt><trkpt lat="31.6718333" lon="-9.4965117"><ele>223.0</ele><time>2026-04-26T11:39:51.406Z</time></trkpt><trkpt lat="31.6720317" lon="-9.4964617"><ele>224.0</ele><time>2026-04-26T11:39:52.406Z</time></trkpt><trkpt lat="31.6722217" lon="-9.4964117"><ele>225.0</ele><time>2026-04-26T11:39:53.406Z</time></trkpt><trkpt lat="31.67241" lon="-9.49636"><ele>225.0</ele><time>2026-04-26T11:39:54.406Z</time></trkpt><trkpt lat="31.6725917" lon="-9.4963117"><ele>225.0</ele><time>2026-04-26T11:39:55.406Z</time></trkpt><trkpt lat="31.6727733" lon="-9.49626"><ele>225.0</ele><time>2026-04-26T11:39:56.406Z</time></trkpt><trkpt lat="31.6729583" lon="-9.4961983"><ele>225.0</ele><time>2026-04-26T11:39:57.406Z</time></trkpt><trkpt lat="31.6731433" lon="-9.4961267"><ele>225.0</ele><time>2026-04-26T11:39:58.406Z</time></trkpt><trkpt lat="31.67333" lon="-9.4960483"><ele>225.0</ele><time>2026-04-26T11:39:59.407Z</time></trkpt><trkpt lat="31.673515" lon="-9.4959583"><ele>225.33333333333331</ele><time>2026-04-26T11:40:00.406Z</time></trkpt><trkpt lat="31.6737" lon="-9.4958617"><ele>225.66666666666666</ele><time>2026-04-26T11:40:01.406Z</time></trkpt><trkpt lat="31.673885" lon="-9.4957483"><ele>226.0</ele><time>2026-04-26T11:40:02.406Z</time></trkpt><trkpt lat="31.6740633" lon="-9.4956267"><ele>226.0</ele><time>2026-04-26T11:40:03.406Z</time></trkpt><trkpt lat="31.6742417" lon="-9.495495"><ele>226.0</ele><time>2026-04-26T11:40:04.406Z</time></trkpt><trkpt lat="31.67442" lon="-9.4953517"><ele>226.0</ele><time>2026-04-26T11:40:05.406Z</time></trkpt><trkpt lat="31.6745817" lon="-9.4952083"><ele>226.33333333333331</ele><time>2026-04-26T11:40:06.406Z</time></trkpt><trkpt lat="31.6747433" lon="-9.49506"><ele>226.66666666666669</ele><time>2026-04-26T11:40:07.406Z</time></trkpt><trkpt lat="31.6749017" lon="-9.49491"><ele>227.0</ele><time>2026-04-26T11:40:08.406Z</time></trkpt><trkpt lat="31.6750683" lon="-9.4947533"><ele>227.0</ele><time>2026-04-26T11:40:09.406Z</time></trkpt><trkpt lat="31.675245" lon="-9.4946"><ele>227.0</ele><time>2026-04-26T11:40:10.406Z</time></trkpt><trkpt lat="31.67542" lon="-9.4944417"><ele>227.0</ele><time>2026-04-26T11:40:11.406Z</time></trkpt><trkpt lat="31.6755933" lon="-9.4942933"><ele>227.0</ele><time>2026-04-26T11:40:12.406Z</time></trkpt><trkpt lat="31.6757617" lon="-9.4941483"><ele>227.0</ele><time>2026-04-26T11:40:13.406Z</time></trkpt><trkpt lat="31.675925" lon="-9.4940033"><ele>227.0</ele><time>2026-04-26T11:40:14.406Z</time></trkpt><trkpt lat="31.6760867" lon="-9.4938533"><ele>226.66666666666669</ele><time>2026-04-26T11:40:15.406Z</time></trkpt><trkpt lat="31.6762483" lon="-9.4937083"><ele>226.33333333333331</ele><time>2026-04-26T11:40:16.407Z</time></trkpt><trkpt lat="31.6764133" lon="-9.49357"><ele>226.0</ele><time>2026-04-26T11:40:17.406Z</time></trkpt><trkpt lat="31.6765733" lon="-9.49342"><ele>226.0</ele><time>2026-04-26T11:40:18.406Z</time></trkpt><trkpt lat="31.6767433" lon="-9.493275"><ele>226.0</ele><time>2026-04-26T11:40:19.406Z</time></trkpt><trkpt lat="31.67692" lon="-9.49313"><ele>226.0</ele><time>2026-04-26T11:40:20.406Z</time></trkpt><trkpt lat="31.677095" lon="-9.492985"><ele>225.66666666666666</ele><time>2026-04-26T11:40:21.406Z</time></trkpt><trkpt lat="31.67727" lon="-9.4928433"><ele>225.33333333333331</ele><time>2026-04-26T11:40:22.406Z</time></trkpt><trkpt lat="31.6774533" lon="-9.4927017"><ele>225.0</ele><time>2026-04-26T11:40:23.406Z</time></trkpt><trkpt lat="31.6776367" lon="-9.492565"><ele>224.33333333333331</ele><time>2026-04-26T11:40:24.406Z</time></trkpt><trkpt lat="31.67781" lon="-9.4924333"><ele>223.66666666666666</ele><time>2026-04-26T11:40:25.406Z</time></trkpt><trkpt lat="31.6779767" lon="-9.49231"><ele>223.0</ele><time>2026-04-26T11:40:26.406Z</time></trkpt><trkpt lat="31.6781383" lon="-9.492195"><ele>224.0</ele><time>2026-04-26T11:40:27.406Z</time></trkpt><trkpt lat="31.6782933" lon="-9.4920817"><ele>225.0</ele><time>2026-04-26T11:40:28.406Z</time></trkpt><trkpt lat="31.6784567" lon="-9.49197"><ele>226.0</ele><time>2026-04-26T11:40:29.406Z</time></trkpt><trkpt lat="31.6786233" lon="-9.4918617"><ele>226.0</ele><time>2026-04-26T11:40:30.406Z</time></trkpt><trkpt lat="31.6787883" lon="-9.491745"><ele>226.0</ele><time>2026-04-26T11:40:31.406Z</time></trkpt><trkpt lat="31.6789533" lon="-9.4916333"><ele>226.0</ele><time>2026-04-26T11:40:32.406Z</time></trkpt><trkpt lat="31.6791267" lon="-9.49152"><ele>226.0</ele><time>2026-04-26T11:40:33.406Z</time></trkpt><trkpt lat="31.6792967" lon="-9.491405"><ele>226.0</ele><time>2026-04-26T11:40:34.406Z</time></trkpt><trkpt lat="31.6794633" lon="-9.4912833"><ele>226.0</ele><time>2026-04-26T11:40:35.406Z</time></trkpt><trkpt lat="31.6796333" lon="-9.4911683"><ele>226.33333333333331</ele><time>2026-04-26T11:40:36.406Z</time></trkpt><trkpt lat="31.6797983" lon="-9.4910283"><ele>226.66666666666669</ele><time>2026-04-26T11:40:37.406Z</time></trkpt><trkpt lat="31.6799717" lon="-9.4908933"><ele>227.0</ele><time>2026-04-26T11:40:38.406Z</time></trkpt><trkpt lat="31.6801467" lon="-9.4907583"><ele>225.66666666666669</ele><time>2026-04-26T11:40:39.406Z</time></trkpt><trkpt lat="31.6803183" lon="-9.4906133"><ele>224.33333333333331</ele><time>2026-04-26T11:40:40.406Z</time></trkpt><trkpt lat="31.6804933" lon="-9.490465"><ele>223.0</ele><time>2026-04-26T11:40:41.406Z</time></trkpt><trkpt lat="31.6806683" lon="-9.49032"><ele>223.0</ele><time>2026-04-26T11:40:42.406Z</time></trkpt><trkpt lat="31.6808317" lon="-9.490175"><ele>223.0</ele><time>2026-04-26T11:40:43.406Z</time></trkpt><trkpt lat="31.6809967" lon="-9.4900317"><ele>223.0</ele><time>2026-04-26T11:40:44.407Z</time></trkpt><trkpt lat="31.681155" lon="-9.4898833"><ele>222.66666666666666</ele><time>2026-04-26T11:40:45.406Z</time></trkpt><trkpt lat="31.681315" lon="-9.4897367"><ele>222.33333333333331</ele><time>2026-04-26T11:40:46.406Z</time></trkpt><trkpt lat="31.681485" lon="-9.4896033"><ele>222.0</ele><time>2026-04-26T11:40:47.407Z</time></trkpt><trkpt lat="31.6816483" lon="-9.4894717"><ele>222.0</ele><time>2026-04-26T11:40:48.406Z</time></trkpt><trkpt lat="31.6818167" lon="-9.489345"><ele>222.0</ele><time>2026-04-26T11:40:49.406Z</time></trkpt><trkpt lat="31.6819917" lon="-9.4892183"><ele>222.0</ele><time>2026-04-26T11:40:50.406Z</time></trkpt><trkpt lat="31.6821583" lon="-9.4890883"><ele>221.33333333333331</ele><time>2026-04-26T11:40:51.406Z</time></trkpt><trkpt lat="31.682325" lon="-9.4889633"><ele>220.66666666666666</ele><time>2026-04-26T11:40:52.406Z</time></trkpt><trkpt lat="31.6824883" lon="-9.4888417"><ele>220.0</ele><time>2026-04-26T11:40:53.406Z</time></trkpt><trkpt lat="31.6826467" lon="-9.48872"><ele>216.33333333333331</ele><time>2026-04-26T11:40:54.406Z</time></trkpt><trkpt lat="31.6828033" lon="-9.488605"><ele>212.66666666666669</ele><time>2026-04-26T11:40:55.406Z</time></trkpt><trkpt lat="31.68296" lon="-9.488485"><ele>209.0</ele><time>2026-04-26T11:40:56.406Z</time></trkpt><trkpt lat="31.6831233" lon="-9.4883683"><ele>209.0</ele><time>2026-04-26T11:40:57.406Z</time></trkpt><trkpt lat="31.683285" lon="-9.4882533"><ele>209.0</ele><time>2026-04-26T11:40:58.406Z</time></trkpt><trkpt lat="31.6834517" lon="-9.488135"><ele>209.0</ele><time>2026-04-26T11:40:59.406Z</time></trkpt><trkpt lat="31.6836217" lon="-9.488015"><ele>208.33333333333334</ele><time>2026-04-26T11:41:00.406Z</time></trkpt><trkpt lat="31.6837967" lon="-9.4879017"><ele>207.66666666666669</ele><time>2026-04-26T11:41:01.406Z</time></trkpt><trkpt lat="31.6839783" lon="-9.48779"><ele>207.0</ele><time>2026-04-26T11:41:02.406Z</time></trkpt><trkpt lat="31.6841667" lon="-9.48768"><ele>207.0</ele><time>2026-04-26T11:41:03.406Z</time></trkpt><trkpt lat="31.6843567" lon="-9.48757"><ele>207.0</ele><time>2026-04-26T11:41:04.406Z</time></trkpt><trkpt lat="31.6845533" lon="-9.4874633"><ele>207.0</ele><time>2026-04-26T11:41:05.406Z</time></trkpt><trkpt lat="31.684745" lon="-9.4873633"><ele>205.33333333333331</ele><time>2026-04-26T11:41:06.406Z</time></trkpt><trkpt lat="31.6849267" lon="-9.48726"><ele>203.66666666666666</ele><time>2026-04-26T11:41:07.406Z</time></trkpt><trkpt lat="31.6851133" lon="-9.4871683"><ele>202.0</ele><time>2026-04-26T11:41:08.406Z</time></trkpt><trkpt lat="31.685295" lon="-9.48708"><ele>202.0</ele><time>2026-04-26T11:41:09.406Z</time></trkpt><trkpt lat="31.685475" lon="-9.486985"><ele>202.0</ele><time>2026-04-26T11:41:10.406Z</time></trkpt><trkpt lat="31.6856483" lon="-9.4868933"><ele>202.0</ele><time>2026-04-26T11:41:11.406Z</time></trkpt><trkpt lat="31.68582" lon="-9.4868033"><ele>202.0</ele><time>2026-04-26T11:41:12.406Z</time></trkpt><trkpt lat="31.6859933" lon="-9.4867"><ele>202.0</ele><time>2026-04-26T11:41:13.406Z</time></trkpt><trkpt lat="31.686165" lon="-9.486595"><ele>202.0</ele><time>2026-04-26T11:41:14.406Z</time></trkpt><trkpt lat="31.6863333" lon="-9.48648"><ele>202.66666666666666</ele><time>2026-04-26T11:41:15.406Z</time></trkpt><trkpt lat="31.6864983" lon="-9.4863533"><ele>203.33333333333331</ele><time>2026-04-26T11:41:16.406Z</time></trkpt><trkpt lat="31.6866567" lon="-9.4862133"><ele>204.0</ele><time>2026-04-26T11:41:17.406Z</time></trkpt><trkpt lat="31.686805" lon="-9.4860533"><ele>204.33333333333331</ele><time>2026-04-26T11:41:18.406Z</time></trkpt><trkpt lat="31.6869433" lon="-9.4858817"><ele>204.66666666666666</ele><time>2026-04-26T11:41:19.406Z</time></trkpt><trkpt lat="31.687075" lon="-9.4857133"><ele>205.0</ele><time>2026-04-26T11:41:20.406Z</time></trkpt><trkpt lat="31.6872017" lon="-9.4855517"><ele>204.33333333333331</ele><time>2026-04-26T11:41:21.406Z</time></trkpt><trkpt lat="31.6873267" lon="-9.48539"><ele>203.66666666666669</ele><time>2026-04-26T11:41:22.406Z</time></trkpt><trkpt lat="31.6874517" lon="-9.4852283"><ele>203.0</ele><time>2026-04-26T11:41:23.406Z</time></trkpt><trkpt lat="31.6875733" lon="-9.485065"><ele>203.0</ele><time>2026-04-26T11:41:24.406Z</time></trkpt><trkpt lat="31.6877" lon="-9.4849083"><ele>203.0</ele><time>2026-04-26T11:41:25.406Z</time></trkpt><trkpt lat="31.6878233" lon="-9.4847483"><ele>203.0</ele><time>2026-04-26T11:41:26.406Z</time></trkpt><trkpt lat="31.6879417" lon="-9.4845867"><ele>203.66666666666669</ele><time>2026-04-26T11:41:27.406Z</time></trkpt><trkpt lat="31.6880583" lon="-9.4844267"><ele>204.33333333333331</ele><time>2026-04-26T11:41:28.406Z</time></trkpt><trkpt lat="31.6881767" lon="-9.4842667"><ele>205.0</ele><time>2026-04-26T11:41:29.406Z</time></trkpt><trkpt lat="31.6883" lon="-9.4841067"><ele>205.0</ele><time>2026-04-26T11:41:30.406Z</time></trkpt><trkpt lat="31.68843" lon="-9.4839467"><ele>205.0</ele><time>2026-04-26T11:41:31.406Z</time></trkpt><trkpt lat="31.6885583" lon="-9.4837783"><ele>205.0</ele><time>2026-04-26T11:41:32.406Z</time></trkpt><trkpt lat="31.6886883" lon="-9.4836033"><ele>205.33333333333331</ele><time>2026-04-26T11:41:33.406Z</time></trkpt><trkpt lat="31.68882" lon="-9.4834283"><ele>205.66666666666669</ele><time>2026-04-26T11:41:34.406Z</time></trkpt><trkpt lat="31.6889583" lon="-9.48325"><ele>206.0</ele><time>2026-04-26T11:41:35.406Z</time></trkpt><trkpt lat="31.6890967" lon="-9.48307"><ele>206.33333333333334</ele><time>2026-04-26T11:41:36.406Z</time></trkpt><trkpt lat="31.689235" lon="-9.4828933"><ele>206.66666666666669</ele><time>2026-04-26T11:41:37.406Z</time></trkpt><trkpt lat="31.6893767" lon="-9.48271"><ele>207.0</ele><time>2026-04-26T11:41:38.406Z</time></trkpt><trkpt lat="31.68952" lon="-9.4825183"><ele>207.0</ele><time>2026-04-26T11:41:39.406Z</time></trkpt><trkpt lat="31.6896633" lon="-9.4823283"><ele>207.0</ele><time>2026-04-26T11:41:40.406Z</time></trkpt><trkpt lat="31.6897967" lon="-9.4821517"><ele>207.0</ele><time>2026-04-26T11:41:41.406Z</time></trkpt><trkpt lat="31.68993" lon="-9.48198"><ele>207.33333333333331</ele><time>2026-04-26T11:41:42.406Z</time></trkpt><trkpt lat="31.6900617" lon="-9.4818067"><ele>207.66666666666666</ele><time>2026-04-26T11:41:43.407Z</time></trkpt><trkpt lat="31.69019" lon="-9.4816383"><ele>208.0</ele><time>2026-04-26T11:41:44.406Z</time></trkpt><trkpt lat="31.6903233" lon="-9.4814617"><ele>208.33333333333331</ele><time>2026-04-26T11:41:45.406Z</time></trkpt><trkpt lat="31.6904583" lon="-9.4812867"><ele>208.66666666666669</ele><time>2026-04-26T11:41:46.406Z</time></trkpt><trkpt lat="31.6905983" lon="-9.4811083"><ele>209.0</ele><time>2026-04-26T11:41:47.406Z</time></trkpt><trkpt lat="31.6907367" lon="-9.4809217"><ele>209.33333333333334</ele><time>2026-04-26T11:41:48.406Z</time></trkpt><trkpt lat="31.690875" lon="-9.480735"><ele>209.66666666666669</ele><time>2026-04-26T11:41:49.406Z</time></trkpt><trkpt lat="31.6910117" lon="-9.48056"><ele>210.0</ele><time>2026-04-26T11:41:50.406Z</time></trkpt><trkpt lat="31.69115" lon="-9.48038"><ele>210.33333333333331</ele><time>2026-04-26T11:41:51.406Z</time></trkpt><trkpt lat="31.6912867" lon="-9.480205"><ele>210.66666666666666</ele><time>2026-04-26T11:41:52.406Z</time></trkpt><trkpt lat="31.6914167" lon="-9.4800367"><ele>211.0</ele><time>2026-04-26T11:41:53.406Z</time></trkpt><trkpt lat="31.6915483" lon="-9.4798633"><ele>211.0</ele><time>2026-04-26T11:41:54.406Z</time></trkpt><trkpt lat="31.6916867" lon="-9.4796833"><ele>211.0</ele><time>2026-04-26T11:41:55.406Z</time></trkpt><trkpt lat="31.6918233" lon="-9.4795083"><ele>211.0</ele><time>2026-04-26T11:41:56.406Z</time></trkpt><trkpt lat="31.6919583" lon="-9.4793333"><ele>211.0</ele><time>2026-04-26T11:41:57.406Z</time></trkpt><trkpt lat="31.6920917" lon="-9.47916"><ele>211.0</ele><time>2026-04-26T11:41:58.407Z</time></trkpt><trkpt lat="31.69222" lon="-9.4789933"><ele>211.0</ele><time>2026-04-26T11:41:59.406Z</time></trkpt><trkpt lat="31.6923533" lon="-9.478825"><ele>211.66666666666666</ele><time>2026-04-26T11:42:00.406Z</time></trkpt><trkpt lat="31.6924833" lon="-9.4786567"><ele>212.33333333333331</ele><time>2026-04-26T11:42:01.406Z</time></trkpt><trkpt lat="31.692615" lon="-9.4784817"><ele>213.0</ele><time>2026-04-26T11:42:02.406Z</time></trkpt><trkpt lat="31.6927483" lon="-9.4783117"><ele>213.0</ele><time>2026-04-26T11:42:03.406Z</time></trkpt><trkpt lat="31.6928817" lon="-9.4781417"><ele>213.0</ele><time>2026-04-26T11:42:04.407Z</time></trkpt><trkpt lat="31.6930083" lon="-9.4779717"><ele>213.0</ele><time>2026-04-26T11:42:05.406Z</time></trkpt><trkpt lat="31.69313" lon="-9.4778067"><ele>213.66666666666669</ele><time>2026-04-26T11:42:06.406Z</time></trkpt><trkpt lat="31.69325" lon="-9.477645"><ele>214.33333333333334</ele><time>2026-04-26T11:42:07.406Z</time></trkpt><trkpt lat="31.6933683" lon="-9.477485"><ele>215.0</ele><time>2026-04-26T11:42:08.406Z</time></trkpt><trkpt lat="31.69349" lon="-9.4773233"><ele>215.33333333333334</ele><time>2026-04-26T11:42:09.406Z</time></trkpt><trkpt lat="31.6936167" lon="-9.4771633"><ele>215.66666666666669</ele><time>2026-04-26T11:42:10.406Z</time></trkpt><trkpt lat="31.69375" lon="-9.4769967"><ele>216.0</ele><time>2026-04-26T11:42:11.406Z</time></trkpt><trkpt lat="31.6938817" lon="-9.4768233"><ele>216.0</ele><time>2026-04-26T11:42:12.406Z</time></trkpt><trkpt lat="31.6940083" lon="-9.4766483"><ele>216.0</ele><time>2026-04-26T11:42:13.406Z</time></trkpt><trkpt lat="31.6941417" lon="-9.4764733"><ele>216.0</ele><time>2026-04-26T11:42:14.406Z</time></trkpt><trkpt lat="31.6942783" lon="-9.476295"><ele>216.0</ele><time>2026-04-26T11:42:15.406Z</time></trkpt><trkpt lat="31.6944117" lon="-9.4761167"><ele>216.0</ele><time>2026-04-26T11:42:16.406Z</time></trkpt><trkpt lat="31.6945483" lon="-9.4759333"><ele>216.0</ele><time>2026-04-26T11:42:17.406Z</time></trkpt><trkpt lat="31.6946883" lon="-9.4757483"><ele>216.0</ele><time>2026-04-26T11:42:18.406Z</time></trkpt><trkpt lat="31.6948267" lon="-9.4755683"><ele>216.0</ele><time>2026-04-26T11:42:19.406Z</time></trkpt><trkpt lat="31.6949633" lon="-9.4753883"><ele>216.0</ele><time>2026-04-26T11:42:20.406Z</time></trkpt><trkpt lat="31.6951033" lon="-9.4752"><ele>216.33333333333331</ele><time>2026-04-26T11:42:21.407Z</time></trkpt><trkpt lat="31.6952433" lon="-9.4750217"><ele>216.66666666666666</ele><time>2026-04-26T11:42:22.406Z</time></trkpt><trkpt lat="31.6953817" lon="-9.4748483"><ele>217.0</ele><time>2026-04-26T11:42:23.406Z</time></trkpt><trkpt lat="31.695515" lon="-9.4746717"><ele>218.0</ele><time>2026-04-26T11:42:24.406Z</time></trkpt><trkpt lat="31.6956467" lon="-9.4745"><ele>219.0</ele><time>2026-04-26T11:42:25.406Z</time></trkpt><trkpt lat="31.6957783" lon="-9.4743267"><ele>220.0</ele><time>2026-04-26T11:42:26.406Z</time></trkpt><trkpt lat="31.6959083" lon="-9.47415"><ele>220.0</ele><time>2026-04-26T11:42:27.406Z</time></trkpt><trkpt lat="31.6960433" lon="-9.4739717"><ele>220.0</ele><time>2026-04-26T11:42:28.406Z</time></trkpt><trkpt lat="31.6961817" lon="-9.4737867"><ele>220.0</ele><time>2026-04-26T11:42:29.406Z</time></trkpt><trkpt lat="31.69632" lon="-9.4736"><ele>220.0</ele><time>2026-04-26T11:42:30.406Z</time></trkpt><trkpt lat="31.6964617" lon="-9.4734183"><ele>220.0</ele><time>2026-04-26T11:42:31.406Z</time></trkpt><trkpt lat="31.6966117" lon="-9.473225"><ele>220.0</ele><time>2026-04-26T11:42:32.407Z</time></trkpt><trkpt lat="31.6967617" lon="-9.473025"><ele>221.0</ele><time>2026-04-26T11:42:33.406Z</time></trkpt><trkpt lat="31.696915" lon="-9.4728267"><ele>222.0</ele><time>2026-04-26T11:42:34.406Z</time></trkpt><trkpt lat="31.6970617" lon="-9.4726283"><ele>222.66666666666669</ele><time>2026-04-26T11:42:35.406Z</time></trkpt><trkpt lat="31.6972017" lon="-9.4724417"><ele>223.33333333333334</ele><time>2026-04-26T11:42:36.406Z</time></trkpt><trkpt lat="31.69734" lon="-9.47226"><ele>224.0</ele><time>2026-04-26T11:42:37.406Z</time></trkpt><trkpt lat="31.6974767" lon="-9.472075"><ele>224.0</ele><time>2026-04-26T11:42:38.406Z</time></trkpt><trkpt lat="31.6976117" lon="-9.4719"><ele>224.0</ele><time>2026-04-26T11:42:39.406Z</time></trkpt><trkpt lat="31.6977467" lon="-9.4717233"><ele>224.0</ele><time>2026-04-26T11:42:40.406Z</time></trkpt><trkpt lat="31.6978883" lon="-9.4715417"><ele>224.66666666666669</ele><time>2026-04-26T11:42:41.406Z</time></trkpt><trkpt lat="31.698015" lon="-9.4713717"><ele>225.33333333333331</ele><time>2026-04-26T11:42:42.406Z</time></trkpt><trkpt lat="31.6981467" lon="-9.471205"><ele>226.0</ele><time>2026-04-26T11:42:43.406Z</time></trkpt><trkpt lat="31.6982783" lon="-9.4710367"><ele>226.0</ele><time>2026-04-26T11:42:44.406Z</time></trkpt><trkpt lat="31.6983983" lon="-9.4708783"><ele>226.0</ele><time>2026-04-26T11:42:45.406Z</time></trkpt><trkpt lat="31.6985183" lon="-9.4707233"><ele>226.0</ele><time>2026-04-26T11:42:46.406Z</time></trkpt><trkpt lat="31.698635" lon="-9.4705567"><ele>226.33333333333331</ele><time>2026-04-26T11:42:47.406Z</time></trkpt><trkpt lat="31.6987567" lon="-9.470395"><ele>226.66666666666669</ele><time>2026-04-26T11:42:48.406Z</time></trkpt><trkpt lat="31.6988867" lon="-9.470235"><ele>227.0</ele><time>2026-04-26T11:42:49.406Z</time></trkpt><trkpt lat="31.6990183" lon="-9.4700683"><ele>227.0</ele><time>2026-04-26T11:42:50.406Z</time></trkpt><trkpt lat="31.699155" lon="-9.4698983"><ele>227.0</ele><time>2026-04-26T11:42:51.406Z</time></trkpt><trkpt lat="31.699295" lon="-9.4697217"><ele>227.0</ele><time>2026-04-26T11:42:52.406Z</time></trkpt><trkpt lat="31.6994333" lon="-9.4695417"><ele>227.33333333333334</ele><time>2026-04-26T11:42:53.406Z</time></trkpt><trkpt lat="31.699565" lon="-9.4693533"><ele>227.66666666666669</ele><time>2026-04-26T11:42:54.406Z</time></trkpt><trkpt lat="31.6997017" lon="-9.469165"><ele>228.0</ele><time>2026-04-26T11:42:55.406Z</time></trkpt><trkpt lat="31.699845" lon="-9.4689733"><ele>228.0</ele><time>2026-04-26T11:42:56.406Z</time></trkpt><trkpt lat="31.6999867" lon="-9.46879"><ele>228.0</ele><time>2026-04-26T11:42:57.406Z</time></trkpt><trkpt lat="31.70012" lon="-9.4686167"><ele>228.0</ele><time>2026-04-26T11:42:58.406Z</time></trkpt><trkpt lat="31.7002433" lon="-9.468445"><ele>229.33333333333331</ele><time>2026-04-26T11:42:59.406Z</time></trkpt><trkpt lat="31.7003633" lon="-9.468285"><ele>230.66666666666666</ele><time>2026-04-26T11:43:00.406Z</time></trkpt><trkpt lat="31.7004883" lon="-9.4681233"><ele>232.0</ele><time>2026-04-26T11:43:01.406Z</time></trkpt><trkpt lat="31.700615" lon="-9.4679517"><ele>232.0</ele><time>2026-04-26T11:43:02.406Z</time></trkpt><trkpt lat="31.70074" lon="-9.4677817"><ele>232.0</ele><time>2026-04-26T11:43:03.406Z</time></trkpt><trkpt lat="31.7008567" lon="-9.4676033"><ele>232.0</ele><time>2026-04-26T11:43:04.406Z</time></trkpt><trkpt lat="31.700975" lon="-9.4674233"><ele>233.33333333333331</ele><time>2026-04-26T11:43:05.406Z</time></trkpt><trkpt lat="31.7010967" lon="-9.4672383"><ele>234.66666666666669</ele><time>2026-04-26T11:43:06.406Z</time></trkpt><trkpt lat="31.7012183" lon="-9.4670583"><ele>236.0</ele><time>2026-04-26T11:43:07.406Z</time></trkpt><trkpt lat="31.7013417" lon="-9.466875"><ele>236.0</ele><time>2026-04-26T11:43:08.406Z</time></trkpt><trkpt lat="31.7014667" lon="-9.4666833"><ele>236.0</ele><time>2026-04-26T11:43:09.406Z</time></trkpt><trkpt lat="31.7015917" lon="-9.4664867"><ele>236.0</ele><time>2026-04-26T11:43:10.406Z</time></trkpt><trkpt lat="31.7017133" lon="-9.466295"><ele>236.0</ele><time>2026-04-26T11:43:11.406Z</time></trkpt><trkpt lat="31.7018317" lon="-9.4661083"><ele>236.0</ele><time>2026-04-26T11:43:12.406Z</time></trkpt><trkpt lat="31.701955" lon="-9.4659167"><ele>236.0</ele><time>2026-04-26T11:43:13.406Z</time></trkpt><trkpt lat="31.702075" lon="-9.4657317"><ele>236.0</ele><time>2026-04-26T11:43:14.406Z</time></trkpt><trkpt lat="31.702195" lon="-9.4655483"><ele>236.0</ele><time>2026-04-26T11:43:15.406Z</time></trkpt><trkpt lat="31.7023133" lon="-9.4653617"><ele>236.0</ele><time>2026-04-26T11:43:16.406Z</time></trkpt><trkpt lat="31.702435" lon="-9.465175"><ele>235.33333333333334</ele><time>2026-04-26T11:43:17.406Z</time></trkpt><trkpt lat="31.702555" lon="-9.464995"><ele>234.66666666666669</ele><time>2026-04-26T11:43:18.406Z</time></trkpt><trkpt lat="31.7026767" lon="-9.4648117"><ele>234.0</ele><time>2026-04-26T11:43:19.406Z</time></trkpt><trkpt lat="31.7027967" lon="-9.464625"><ele>235.0</ele><time>2026-04-26T11:43:20.407Z</time></trkpt><trkpt lat="31.7029133" lon="-9.464435"><ele>236.0</ele><time>2026-04-26T11:43:21.406Z</time></trkpt><trkpt lat="31.703025" lon="-9.4642483"><ele>237.0</ele><time>2026-04-26T11:43:22.406Z</time></trkpt><trkpt lat="31.7031433" lon="-9.464065"><ele>237.0</ele><time>2026-04-26T11:43:23.406Z</time></trkpt><trkpt lat="31.7032633" lon="-9.463875"><ele>237.0</ele><time>2026-04-26T11:43:24.406Z</time></trkpt><trkpt lat="31.70338" lon="-9.4636883"><ele>237.0</ele><time>2026-04-26T11:43:25.406Z</time></trkpt><trkpt lat="31.703495" lon="-9.4635067"><ele>239.66666666666669</ele><time>2026-04-26T11:43:26.406Z</time></trkpt><trkpt lat="31.7036067" lon="-9.463325"><ele>242.33333333333334</ele><time>2026-04-26T11:43:27.406Z</time></trkpt><trkpt lat="31.703715" lon="-9.4631483"><ele>245.0</ele><time>2026-04-26T11:43:28.406Z</time></trkpt><trkpt lat="31.703825" lon="-9.4629767"><ele>244.0</ele><time>2026-04-26T11:43:29.406Z</time></trkpt><trkpt lat="31.7039333" lon="-9.4628133"><ele>243.0</ele><time>2026-04-26T11:43:30.406Z</time></trkpt><trkpt lat="31.7040417" lon="-9.4626517"><ele>242.0</ele><time>2026-04-26T11:43:31.406Z</time></trkpt><trkpt lat="31.7041533" lon="-9.4624783"><ele>242.0</ele><time>2026-04-26T11:43:32.406Z</time></trkpt><trkpt lat="31.704265" lon="-9.4623017"><ele>242.0</ele><time>2026-04-26T11:43:33.406Z</time></trkpt><trkpt lat="31.7043733" lon="-9.462135"><ele>242.0</ele><time>2026-04-26T11:43:34.406Z</time></trkpt><trkpt lat="31.7044833" lon="-9.46196"><ele>244.0</ele><time>2026-04-26T11:43:35.406Z</time></trkpt><trkpt lat="31.7045983" lon="-9.46179"><ele>246.0</ele><time>2026-04-26T11:43:36.406Z</time></trkpt><trkpt lat="31.704715" lon="-9.461615"><ele>248.0</ele><time>2026-04-26T11:43:37.406Z</time></trkpt><trkpt lat="31.7048267" lon="-9.4614433"><ele>247.0</ele><time>2026-04-26T11:43:38.406Z</time></trkpt><trkpt lat="31.7049317" lon="-9.4612767"><ele>246.0</ele><time>2026-04-26T11:43:39.406Z</time></trkpt><trkpt lat="31.7050417" lon="-9.461115"><ele>245.0</ele><time>2026-04-26T11:43:40.406Z</time></trkpt><trkpt lat="31.7051617" lon="-9.4609533"><ele>245.33333333333334</ele><time>2026-04-26T11:43:41.406Z</time></trkpt><trkpt lat="31.7052867" lon="-9.4607833"><ele>245.66666666666669</ele><time>2026-04-26T11:43:42.406Z</time></trkpt><trkpt lat="31.7054133" lon="-9.460605"><ele>246.0</ele><time>2026-04-26T11:43:43.406Z</time></trkpt><trkpt lat="31.7055433" lon="-9.4604183"><ele>246.0</ele><time>2026-04-26T11:43:44.406Z</time></trkpt><trkpt lat="31.7056783" lon="-9.4602367"><ele>246.0</ele><time>2026-04-26T11:43:45.406Z</time></trkpt><trkpt lat="31.70581" lon="-9.4600533"><ele>246.0</ele><time>2026-04-26T11:43:46.406Z</time></trkpt><trkpt lat="31.705945" lon="-9.45987"><ele>246.0</ele><time>2026-04-26T11:43:47.406Z</time></trkpt><trkpt lat="31.706085" lon="-9.4596817"><ele>246.0</ele><time>2026-04-26T11:43:48.407Z</time></trkpt><trkpt lat="31.7062283" lon="-9.4594883"><ele>246.0</ele><time>2026-04-26T11:43:49.406Z</time></trkpt><trkpt lat="31.706365" lon="-9.4592933"><ele>246.0</ele><time>2026-04-26T11:43:50.406Z</time></trkpt><trkpt lat="31.7065017" lon="-9.459095"><ele>246.0</ele><time>2026-04-26T11:43:51.406Z</time></trkpt><trkpt lat="31.70664" lon="-9.458895"><ele>246.0</ele><time>2026-04-26T11:43:52.406Z</time></trkpt><trkpt lat="31.7067633" lon="-9.4587117"><ele>245.66666666666669</ele><time>2026-04-26T11:43:53.406Z</time></trkpt><trkpt lat="31.706885" lon="-9.4585283"><ele>245.33333333333334</ele><time>2026-04-26T11:43:54.406Z</time></trkpt><trkpt lat="31.707" lon="-9.45834"><ele>245.0</ele><time>2026-04-26T11:43:55.406Z</time></trkpt><trkpt lat="31.7071117" lon="-9.458145"><ele>247.0</ele><time>2026-04-26T11:43:56.406Z</time></trkpt><trkpt lat="31.70722" lon="-9.4579433"><ele>249.0</ele><time>2026-04-26T11:43:57.406Z</time></trkpt><trkpt lat="31.7073383" lon="-9.4577383"><ele>251.0</ele><time>2026-04-26T11:43:58.406Z</time></trkpt><trkpt lat="31.7074533" lon="-9.4575367"><ele>251.0</ele><time>2026-04-26T11:43:59.406Z</time></trkpt><trkpt lat="31.7075683" lon="-9.45733"><ele>251.0</ele><time>2026-04-26T11:44:00.406Z</time></trkpt><trkpt lat="31.70768" lon="-9.4571283"><ele>251.0</ele><time>2026-04-26T11:44:01.406Z</time></trkpt><trkpt lat="31.7077833" lon="-9.4569417"><ele>252.66666666666669</ele><time>2026-04-26T11:44:02.406Z</time></trkpt><trkpt lat="31.7078933" lon="-9.4567467"><ele>254.33333333333331</ele><time>2026-04-26T11:44:03.406Z</time></trkpt><trkpt lat="31.708" lon="-9.4565567"><ele>256.0</ele><time>2026-04-26T11:44:04.406Z</time></trkpt><trkpt lat="31.7081" lon="-9.45636"><ele>254.66666666666666</ele><time>2026-04-26T11:44:05.406Z</time></trkpt><trkpt lat="31.708205" lon="-9.4561683"><ele>253.33333333333331</ele><time>2026-04-26T11:44:06.406Z</time></trkpt><trkpt lat="31.7083117" lon="-9.45598"><ele>252.0</ele><time>2026-04-26T11:44:07.406Z</time></trkpt><trkpt lat="31.7084217" lon="-9.45578"><ele>252.0</ele><time>2026-04-26T11:44:08.406Z</time></trkpt><trkpt lat="31.70854" lon="-9.45558"><ele>252.0</ele><time>2026-04-26T11:44:09.406Z</time></trkpt><trkpt lat="31.70866" lon="-9.455385"><ele>252.0</ele><time>2026-04-26T11:44:10.407Z</time></trkpt><trkpt lat="31.708775" lon="-9.4552"><ele>255.33333333333331</ele><time>2026-04-26T11:44:11.406Z</time></trkpt><trkpt lat="31.7088917" lon="-9.4550167"><ele>258.66666666666663</ele><time>2026-04-26T11:44:12.406Z</time></trkpt><trkpt lat="31.70901" lon="-9.4548283"><ele>262.0</ele><time>2026-04-26T11:44:13.406Z</time></trkpt><trkpt lat="31.70913" lon="-9.45465"><ele>262.66666666666663</ele><time>2026-04-26T11:44:14.406Z</time></trkpt><trkpt lat="31.709265" lon="-9.4544633"><ele>263.3333333333333</ele><time>2026-04-26T11:44:15.406Z</time></trkpt><trkpt lat="31.7094083" lon="-9.4542783"><ele>264.0</ele><time>2026-04-26T11:44:16.406Z</time></trkpt><trkpt lat="31.7095583" lon="-9.4540933"><ele>264.0</ele><time>2026-04-26T11:44:17.406Z</time></trkpt><trkpt lat="31.7097133" lon="-9.4539017"><ele>264.0</ele><time>2026-04-26T11:44:18.406Z</time></trkpt><trkpt lat="31.70987" lon="-9.453715"><ele>264.0</ele><time>2026-04-26T11:44:19.406Z</time></trkpt><trkpt lat="31.7100267" lon="-9.453535"><ele>264.0</ele><time>2026-04-26T11:44:20.406Z</time></trkpt><trkpt lat="31.710175" lon="-9.4533633"><ele>264.0</ele><time>2026-04-26T11:44:21.406Z</time></trkpt><trkpt lat="31.7103183" lon="-9.45318"><ele>264.0</ele><time>2026-04-26T11:44:22.406Z</time></trkpt><trkpt lat="31.7104583" lon="-9.4529983"><ele>262.0</ele><time>2026-04-26T11:44:23.406Z</time></trkpt><trkpt lat="31.7105917" lon="-9.4528033"><ele>260.0</ele><time>2026-04-26T11:44:24.406Z</time></trkpt><trkpt lat="31.7107167" lon="-9.4526133"><ele>258.0</ele><time>2026-04-26T11:44:25.406Z</time></trkpt><trkpt lat="31.7108333" lon="-9.452415"><ele>258.0</ele><time>2026-04-26T11:44:26.406Z</time></trkpt><trkpt lat="31.7109417" lon="-9.4522017"><ele>258.0</ele><time>2026-04-26T11:44:27.405Z</time></trkpt><trkpt lat="31.7110417" lon="-9.451985"><ele>258.0</ele><time>2026-04-26T11:44:28.405Z</time></trkpt><trkpt lat="31.7111333" lon="-9.45177"><ele>257.6666666666667</ele><time>2026-04-26T11:44:29.405Z</time></trkpt><trkpt lat="31.7112167" lon="-9.4515533"><ele>257.33333333333337</ele><time>2026-04-26T11:44:30.405Z</time></trkpt><trkpt lat="31.7112933" lon="-9.4513367"><ele>257.0</ele><time>2026-04-26T11:44:31.405Z</time></trkpt><trkpt lat="31.7113617" lon="-9.451115"><ele>257.0</ele><time>2026-04-26T11:44:32.405Z</time></trkpt><trkpt lat="31.7114317" lon="-9.450895"><ele>257.0</ele><time>2026-04-26T11:44:33.405Z</time></trkpt><trkpt lat="31.7114983" lon="-9.4506783"><ele>257.0</ele><time>2026-04-26T11:44:34.405Z</time></trkpt><trkpt lat="31.7115633" lon="-9.4504667"><ele>257.6666666666667</ele><time>2026-04-26T11:44:35.405Z</time></trkpt><trkpt lat="31.711625" lon="-9.450245"><ele>258.3333333333333</ele><time>2026-04-26T11:44:36.405Z</time></trkpt><trkpt lat="31.7116867" lon="-9.4500167"><ele>259.0</ele><time>2026-04-26T11:44:37.405Z</time></trkpt><trkpt lat="31.71176" lon="-9.4497883"><ele>259.0</ele><time>2026-04-26T11:44:38.405Z</time></trkpt><trkpt lat="31.7118217" lon="-9.44956"><ele>259.0</ele><time>2026-04-26T11:44:39.405Z</time></trkpt><trkpt lat="31.7118967" lon="-9.4493233"><ele>259.0</ele><time>2026-04-26T11:44:40.405Z</time></trkpt><trkpt lat="31.7119667" lon="-9.44908"><ele>259.0</ele><time>2026-04-26T11:44:41.405Z</time></trkpt><trkpt lat="31.71203" lon="-9.4488433"><ele>259.0</ele><time>2026-04-26T11:44:42.405Z</time></trkpt><trkpt lat="31.7120867" lon="-9.4486183"><ele>259.0</ele><time>2026-04-26T11:44:43.405Z</time></trkpt><trkpt lat="31.7121417" lon="-9.4484033"><ele>259.3333333333333</ele><time>2026-04-26T11:44:44.405Z</time></trkpt><trkpt lat="31.712205" lon="-9.4482"><ele>259.6666666666667</ele><time>2026-04-26T11:44:45.405Z</time></trkpt><trkpt lat="31.7122617" lon="-9.4479933"><ele>260.0</ele><time>2026-04-26T11:44:46.405Z</time></trkpt><trkpt lat="31.7123267" lon="-9.447785"><ele>262.33333333333337</ele><time>2026-04-26T11:44:47.405Z</time></trkpt><trkpt lat="31.712395" lon="-9.4475667"><ele>264.6666666666667</ele><time>2026-04-26T11:44:48.405Z</time></trkpt><trkpt lat="31.712465" lon="-9.4473417"><ele>267.0</ele><time>2026-04-26T11:44:49.405Z</time></trkpt><trkpt lat="31.712535" lon="-9.4471133"><ele>270.0</ele><time>2026-04-26T11:44:50.405Z</time></trkpt><trkpt lat="31.7126" lon="-9.4468833"><ele>273.0</ele><time>2026-04-26T11:44:51.405Z</time></trkpt><trkpt lat="31.712655" lon="-9.4466517"><ele>276.0</ele><time>2026-04-26T11:44:52.405Z</time></trkpt><trkpt lat="31.7127033" lon="-9.446425"><ele>271.6666666666667</ele><time>2026-04-26T11:44:53.405Z</time></trkpt><trkpt lat="31.7127483" lon="-9.4461867"><ele>267.33333333333337</ele><time>2026-04-26T11:44:54.405Z</time></trkpt><trkpt lat="31.7127917" lon="-9.4459417"><ele>263.0</ele><time>2026-04-26T11:44:55.405Z</time></trkpt><trkpt lat="31.71283" lon="-9.445705"><ele>263.0</ele><time>2026-04-26T11:44:56.405Z</time></trkpt><trkpt lat="31.7128683" lon="-9.445465"><ele>263.0</ele><time>2026-04-26T11:44:57.405Z</time></trkpt><trkpt lat="31.7129167" lon="-9.4452267"><ele>263.0</ele><time>2026-04-26T11:44:58.405Z</time></trkpt><trkpt lat="31.71296" lon="-9.4449783"><ele>264.6666666666667</ele><time>2026-04-26T11:44:59.405Z</time></trkpt><trkpt lat="31.7129983" lon="-9.4447383"><ele>266.3333333333333</ele><time>2026-04-26T11:45:00.405Z</time></trkpt><trkpt lat="31.7130417" lon="-9.4445067"><ele>268.0</ele><time>2026-04-26T11:45:01.405Z</time></trkpt><trkpt lat="31.7130817" lon="-9.4442617"><ele>269.0</ele><time>2026-04-26T11:45:02.405Z</time></trkpt><trkpt lat="31.71312" lon="-9.4440217"><ele>270.0</ele><time>2026-04-26T11:45:03.405Z</time></trkpt><trkpt lat="31.7131583" lon="-9.443785"><ele>271.0</ele><time>2026-04-26T11:45:04.405Z</time></trkpt><trkpt lat="31.7132017" lon="-9.443535"><ele>271.0</ele><time>2026-04-26T11:45:05.406Z</time></trkpt><trkpt lat="31.7132417" lon="-9.4432817"><ele>271.0</ele><time>2026-04-26T11:45:06.405Z</time></trkpt><trkpt lat="31.7132817" lon="-9.44303"><ele>271.0</ele><time>2026-04-26T11:45:07.405Z</time></trkpt><trkpt lat="31.71332" lon="-9.442785"><ele>270.3333333333333</ele><time>2026-04-26T11:45:08.405Z</time></trkpt><trkpt lat="31.7133567" lon="-9.44254"><ele>269.6666666666667</ele><time>2026-04-26T11:45:09.406Z</time></trkpt><trkpt lat="31.7133967" lon="-9.4422967"><ele>269.0</ele><time>2026-04-26T11:45:10.405Z</time></trkpt><trkpt lat="31.7134233" lon="-9.4420533"><ele>268.6666666666667</ele><time>2026-04-26T11:45:11.405Z</time></trkpt><trkpt lat="31.7134633" lon="-9.44181"><ele>268.3333333333333</ele><time>2026-04-26T11:45:12.406Z</time></trkpt><trkpt lat="31.7135067" lon="-9.44157"><ele>268.0</ele><time>2026-04-26T11:45:13.405Z</time></trkpt><trkpt lat="31.7135567" lon="-9.4413383"><ele>270.3333333333333</ele><time>2026-04-26T11:45:14.405Z</time></trkpt><trkpt lat="31.7136083" lon="-9.4411183"><ele>272.6666666666667</ele><time>2026-04-26T11:45:15.406Z</time></trkpt><trkpt lat="31.71367" lon="-9.440905"><ele>275.0</ele><time>2026-04-26T11:45:16.405Z</time></trkpt><trkpt lat="31.713745" lon="-9.44069"><ele>275.0</ele><time>2026-04-26T11:45:17.405Z</time></trkpt><trkpt lat="31.713825" lon="-9.4404783"><ele>275.0</ele><time>2026-04-26T11:45:18.405Z</time></trkpt><trkpt lat="31.71391" lon="-9.4402617"><ele>275.0</ele><time>2026-04-26T11:45:19.405Z</time></trkpt><trkpt lat="31.7140033" lon="-9.4400433"><ele>275.33333333333337</ele><time>2026-04-26T11:45:20.405Z</time></trkpt><trkpt lat="31.7141017" lon="-9.439815"><ele>275.6666666666667</ele><time>2026-04-26T11:45:21.405Z</time></trkpt><trkpt lat="31.714205" lon="-9.4395933"><ele>276.0</ele><time>2026-04-26T11:45:22.405Z</time></trkpt><trkpt lat="31.7143017" lon="-9.4393833"><ele>276.3333333333333</ele><time>2026-04-26T11:45:23.405Z</time></trkpt><trkpt lat="31.7143917" lon="-9.4391867"><ele>276.66666666666663</ele><time>2026-04-26T11:45:24.405Z</time></trkpt><trkpt lat="31.71448" lon="-9.4389867"><ele>277.0</ele><time>2026-04-26T11:45:25.405Z</time></trkpt><trkpt lat="31.71457" lon="-9.4387933"><ele>277.3333333333333</ele><time>2026-04-26T11:45:26.405Z</time></trkpt><trkpt lat="31.7146633" lon="-9.438595"><ele>277.6666666666667</ele><time>2026-04-26T11:45:27.405Z</time></trkpt><trkpt lat="31.7147567" lon="-9.4384"><ele>278.0</ele><time>2026-04-26T11:45:28.405Z</time></trkpt><trkpt lat="31.7148417" lon="-9.43821"><ele>278.0</ele><time>2026-04-26T11:45:29.405Z</time></trkpt><trkpt lat="31.714925" lon="-9.438025"><ele>278.0</ele><time>2026-04-26T11:45:30.405Z</time></trkpt><trkpt lat="31.7150017" lon="-9.437855"><ele>278.0</ele><time>2026-04-26T11:45:31.405Z</time></trkpt><trkpt lat="31.715075" lon="-9.4376883"><ele>278.33333333333337</ele><time>2026-04-26T11:45:32.405Z</time></trkpt><trkpt lat="31.71515" lon="-9.4375217"><ele>278.6666666666667</ele><time>2026-04-26T11:45:33.405Z</time></trkpt><trkpt lat="31.715225" lon="-9.4373517"><ele>279.0</ele><time>2026-04-26T11:45:34.405Z</time></trkpt><trkpt lat="31.7153017" lon="-9.4371733"><ele>281.6666666666667</ele><time>2026-04-26T11:45:35.406Z</time></trkpt><trkpt lat="31.7153833" lon="-9.4370083"><ele>284.33333333333337</ele><time>2026-04-26T11:45:36.405Z</time></trkpt><trkpt lat="31.7154617" lon="-9.4368383"><ele>287.0</ele><time>2026-04-26T11:45:37.406Z</time></trkpt><trkpt lat="31.7155383" lon="-9.4366717"><ele>287.0</ele><time>2026-04-26T11:45:38.405Z</time></trkpt><trkpt lat="31.7156183" lon="-9.436505"><ele>287.0</ele><time>2026-04-26T11:45:39.405Z</time></trkpt><trkpt lat="31.7157" lon="-9.4363383"><ele>287.0</ele><time>2026-04-26T11:45:40.405Z</time></trkpt><trkpt lat="31.7157817" lon="-9.4361717"><ele>286.6666666666667</ele><time>2026-04-26T11:45:41.405Z</time></trkpt><trkpt lat="31.71586" lon="-9.4360017"><ele>286.3333333333333</ele><time>2026-04-26T11:45:42.405Z</time></trkpt><trkpt lat="31.7159417" lon="-9.4358267"><ele>286.0</ele><time>2026-04-26T11:45:43.405Z</time></trkpt><trkpt lat="31.7160283" lon="-9.43565"><ele>287.3333333333333</ele><time>2026-04-26T11:45:44.405Z</time></trkpt><trkpt lat="31.7161117" lon="-9.435475"><ele>288.6666666666667</ele><time>2026-04-26T11:45:45.405Z</time></trkpt><trkpt lat="31.7161983" lon="-9.435295"><ele>290.0</ele><time>2026-04-26T11:45:46.405Z</time></trkpt><trkpt lat="31.7162817" lon="-9.4351167"><ele>290.0</ele><time>2026-04-26T11:45:47.405Z</time></trkpt><trkpt lat="31.7163733" lon="-9.4349333"><ele>290.0</ele><time>2026-04-26T11:45:48.405Z</time></trkpt><trkpt lat="31.7164617" lon="-9.4347467"><ele>290.0</ele><time>2026-04-26T11:45:49.405Z</time></trkpt><trkpt lat="31.71655" lon="-9.4345567"><ele>289.33333333333337</ele><time>2026-04-26T11:45:50.405Z</time></trkpt><trkpt lat="31.716635" lon="-9.4343683"><ele>288.6666666666667</ele><time>2026-04-26T11:45:51.405Z</time></trkpt><trkpt lat="31.71672" lon="-9.4341767"><ele>288.0</ele><time>2026-04-26T11:45:52.406Z</time></trkpt><trkpt lat="31.7168067" lon="-9.4339833"><ele>287.3333333333333</ele><time>2026-04-26T11:45:53.405Z</time></trkpt><trkpt lat="31.7168967" lon="-9.4337867"><ele>286.66666666666663</ele><time>2026-04-26T11:45:54.405Z</time></trkpt><trkpt lat="31.7169833" lon="-9.4335967"><ele>286.0</ele><time>2026-04-26T11:45:55.405Z</time></trkpt><trkpt lat="31.71707" lon="-9.433405"><ele>287.66666666666663</ele><time>2026-04-26T11:45:56.405Z</time></trkpt><trkpt lat="31.717155" lon="-9.4332117"><ele>289.3333333333333</ele><time>2026-04-26T11:45:57.405Z</time></trkpt><trkpt lat="31.717235" lon="-9.4330267"><ele>291.0</ele><time>2026-04-26T11:45:58.405Z</time></trkpt><trkpt lat="31.71732" lon="-9.43284"><ele>291.0</ele><time>2026-04-26T11:45:59.405Z</time></trkpt><trkpt lat="31.7174083" lon="-9.432655"><ele>291.0</ele><time>2026-04-26T11:46:00.405Z</time></trkpt><trkpt lat="31.717495" lon="-9.4324733"><ele>291.0</ele><time>2026-04-26T11:46:01.405Z</time></trkpt><trkpt lat="31.7175867" lon="-9.4322833"><ele>290.3333333333333</ele><time>2026-04-26T11:46:02.405Z</time></trkpt><trkpt lat="31.7176883" lon="-9.4321033"><ele>289.66666666666663</ele><time>2026-04-26T11:46:03.405Z</time></trkpt><trkpt lat="31.717795" lon="-9.4319183"><ele>289.0</ele><time>2026-04-26T11:46:04.405Z</time></trkpt><trkpt lat="31.7179017" lon="-9.4317283"><ele>290.3333333333333</ele><time>2026-04-26T11:46:05.405Z</time></trkpt><trkpt lat="31.7180167" lon="-9.4315433"><ele>291.6666666666667</ele><time>2026-04-26T11:46:06.406Z</time></trkpt><trkpt lat="31.7181383" lon="-9.431355"><ele>293.0</ele><time>2026-04-26T11:46:07.405Z</time></trkpt><trkpt lat="31.71827" lon="-9.4311567"><ele>293.0</ele><time>2026-04-26T11:46:08.405Z</time></trkpt><trkpt lat="31.7184017" lon="-9.4309633"><ele>293.0</ele><time>2026-04-26T11:46:09.405Z</time></trkpt><trkpt lat="31.7185383" lon="-9.4307617"><ele>293.0</ele><time>2026-04-26T11:46:10.405Z</time></trkpt><trkpt lat="31.71868" lon="-9.4305683"><ele>292.6666666666667</ele><time>2026-04-26T11:46:11.405Z</time></trkpt><trkpt lat="31.71882" lon="-9.43038"><ele>292.3333333333333</ele><time>2026-04-26T11:46:12.405Z</time></trkpt><trkpt lat="31.71897" lon="-9.4301783"><ele>292.0</ele><time>2026-04-26T11:46:13.406Z</time></trkpt><trkpt lat="31.7191183" lon="-9.4299767"><ele>292.0</ele><time>2026-04-26T11:46:14.405Z</time></trkpt><trkpt lat="31.7192583" lon="-9.429785"><ele>292.0</ele><time>2026-04-26T11:46:15.405Z</time></trkpt><trkpt lat="31.7193967" lon="-9.4295883"><ele>292.0</ele><time>2026-04-26T11:46:16.405Z</time></trkpt><trkpt lat="31.7195367" lon="-9.4293867"><ele>291.0</ele><time>2026-04-26T11:46:17.405Z</time></trkpt><trkpt lat="31.7196833" lon="-9.4291867"><ele>290.0</ele><time>2026-04-26T11:46:18.405Z</time></trkpt><trkpt lat="31.719835" lon="-9.4289867"><ele>289.0</ele><time>2026-04-26T11:46:19.405Z</time></trkpt><trkpt lat="31.719985" lon="-9.4287833"><ele>288.0</ele><time>2026-04-26T11:46:20.405Z</time></trkpt><trkpt lat="31.7201417" lon="-9.4285783"><ele>290.5</ele><time>2026-04-26T11:46:21.405Z</time></trkpt><trkpt lat="31.7202967" lon="-9.4283733"><ele>293.0</ele><time>2026-04-26T11:46:22.405Z</time></trkpt><trkpt lat="31.7204583" lon="-9.42816"><ele>291.5</ele><time>2026-04-26T11:46:23.406Z</time></trkpt><trkpt lat="31.720615" lon="-9.4279567"><ele>290.0</ele><time>2026-04-26T11:46:24.405Z</time></trkpt><trkpt lat="31.7207633" lon="-9.4277533"><ele>290.0</ele><time>2026-04-26T11:46:25.405Z</time></trkpt><trkpt lat="31.7209117" lon="-9.4275483"><ele>290.0</ele><time>2026-04-26T11:46:26.405Z</time></trkpt><trkpt lat="31.7210533" lon="-9.4273533"><ele>290.0</ele><time>2026-04-26T11:46:27.405Z</time></trkpt><trkpt lat="31.7212033" lon="-9.427155"><ele>291.6666666666667</ele><time>2026-04-26T11:46:28.405Z</time></trkpt><trkpt lat="31.7213567" lon="-9.426965"><ele>293.3333333333333</ele><time>2026-04-26T11:46:29.405Z</time></trkpt><trkpt lat="31.7215067" lon="-9.42677"><ele>295.0</ele><time>2026-04-26T11:46:30.405Z</time></trkpt><trkpt lat="31.721655" lon="-9.42659"><ele>295.0</ele><time>2026-04-26T11:46:31.406Z</time></trkpt><trkpt lat="31.721805" lon="-9.4264167"><ele>295.0</ele><time>2026-04-26T11:46:32.406Z</time></trkpt><trkpt lat="31.721955" lon="-9.4262433"><ele>295.0</ele><time>2026-04-26T11:46:33.405Z</time></trkpt><trkpt lat="31.722115" lon="-9.42607"><ele>295.0</ele><time>2026-04-26T11:46:34.405Z</time></trkpt><trkpt lat="31.722275" lon="-9.4259017"><ele>295.0</ele><time>2026-04-26T11:46:35.405Z</time></trkpt><trkpt lat="31.72243" lon="-9.4257433"><ele>295.0</ele><time>2026-04-26T11:46:36.405Z</time></trkpt><trkpt lat="31.7225817" lon="-9.425595"><ele>295.0</ele><time>2026-04-26T11:46:37.405Z</time></trkpt><trkpt lat="31.7227367" lon="-9.425455"><ele>295.0</ele><time>2026-04-26T11:46:38.405Z</time></trkpt><trkpt lat="31.7228917" lon="-9.42532"><ele>295.0</ele><time>2026-04-26T11:46:39.405Z</time></trkpt><trkpt lat="31.723045" lon="-9.4251933"><ele>295.0</ele><time>2026-04-26T11:46:40.405Z</time></trkpt><trkpt lat="31.7231933" lon="-9.4250683"><ele>295.0</ele><time>2026-04-26T11:46:41.405Z</time></trkpt><trkpt lat="31.72334" lon="-9.424955"><ele>295.0</ele><time>2026-04-26T11:46:42.405Z</time></trkpt><trkpt lat="31.7234933" lon="-9.4248367"><ele>296.3333333333333</ele><time>2026-04-26T11:46:43.405Z</time></trkpt><trkpt lat="31.7236517" lon="-9.4247183"><ele>297.6666666666667</ele><time>2026-04-26T11:46:44.405Z</time></trkpt><trkpt lat="31.7238083" lon="-9.42459"><ele>299.0</ele><time>2026-04-26T11:46:45.405Z</time></trkpt><trkpt lat="31.72397" lon="-9.4244617"><ele>299.0</ele><time>2026-04-26T11:46:46.405Z</time></trkpt><trkpt lat="31.724135" lon="-9.424325"><ele>299.0</ele><time>2026-04-26T11:46:47.405Z</time></trkpt><trkpt lat="31.724305" lon="-9.4241867"><ele>299.0</ele><time>2026-04-26T11:46:48.405Z</time></trkpt><trkpt lat="31.7244733" lon="-9.42404"><ele>300.0</ele><time>2026-04-26T11:46:49.405Z</time></trkpt><trkpt lat="31.7246467" lon="-9.4238967"><ele>301.0</ele><time>2026-04-26T11:46:50.405Z</time></trkpt><trkpt lat="31.72481" lon="-9.4237567"><ele>302.0</ele><time>2026-04-26T11:46:51.405Z</time></trkpt><trkpt lat="31.7249633" lon="-9.4236233"><ele>302.0</ele><time>2026-04-26T11:46:52.405Z</time></trkpt><trkpt lat="31.7251167" lon="-9.4234967"><ele>302.0</ele><time>2026-04-26T11:46:53.405Z</time></trkpt><trkpt lat="31.7252683" lon="-9.42337"><ele>302.0</ele><time>2026-04-26T11:46:54.405Z</time></trkpt><trkpt lat="31.7254183" lon="-9.4232383"><ele>302.6666666666667</ele><time>2026-04-26T11:46:55.405Z</time></trkpt><trkpt lat="31.72557" lon="-9.4231017"><ele>303.3333333333333</ele><time>2026-04-26T11:46:56.405Z</time></trkpt><trkpt lat="31.72572" lon="-9.4229633"><ele>304.0</ele><time>2026-04-26T11:46:57.405Z</time></trkpt><trkpt lat="31.72587" lon="-9.42282"><ele>304.0</ele><time>2026-04-26T11:46:58.405Z</time></trkpt><trkpt lat="31.7260167" lon="-9.4226783"><ele>304.0</ele><time>2026-04-26T11:46:59.405Z</time></trkpt><trkpt lat="31.7261667" lon="-9.42253"><ele>304.0</ele><time>2026-04-26T11:47:00.405Z</time></trkpt><trkpt lat="31.72631" lon="-9.4223683"><ele>303.0</ele><time>2026-04-26T11:47:01.405Z</time></trkpt><trkpt lat="31.726455" lon="-9.422205"><ele>302.0</ele><time>2026-04-26T11:47:02.405Z</time></trkpt><trkpt lat="31.7265983" lon="-9.422035"><ele>301.0</ele><time>2026-04-26T11:47:03.405Z</time></trkpt><trkpt lat="31.7267417" lon="-9.4218617"><ele>301.0</ele><time>2026-04-26T11:47:04.405Z</time></trkpt><trkpt lat="31.7268883" lon="-9.4216917"><ele>301.0</ele><time>2026-04-26T11:47:05.405Z</time></trkpt><trkpt lat="31.7270317" lon="-9.4215233"><ele>301.0</ele><time>2026-04-26T11:47:06.405Z</time></trkpt><trkpt lat="31.7271767" lon="-9.4213617"><ele>301.3333333333333</ele><time>2026-04-26T11:47:07.405Z</time></trkpt><trkpt lat="31.7273183" lon="-9.4212017"><ele>301.6666666666667</ele><time>2026-04-26T11:47:08.405Z</time></trkpt><trkpt lat="31.72747" lon="-9.421035"><ele>302.0</ele><time>2026-04-26T11:47:09.405Z</time></trkpt><trkpt lat="31.7276217" lon="-9.4208617"><ele>301.6666666666667</ele><time>2026-04-26T11:47:10.405Z</time></trkpt><trkpt lat="31.72777" lon="-9.420695"><ele>301.3333333333333</ele><time>2026-04-26T11:47:11.406Z</time></trkpt><trkpt lat="31.7279233" lon="-9.42053"><ele>301.0</ele><time>2026-04-26T11:47:12.405Z</time></trkpt><trkpt lat="31.728075" lon="-9.4203583"><ele>302.0</ele><time>2026-04-26T11:47:13.405Z</time></trkpt><trkpt lat="31.72823" lon="-9.420185"><ele>303.0</ele><time>2026-04-26T11:47:14.405Z</time></trkpt><trkpt lat="31.7283783" lon="-9.4200183"><ele>304.0</ele><time>2026-04-26T11:47:15.405Z</time></trkpt><trkpt lat="31.728525" lon="-9.4198467"><ele>303.3333333333333</ele><time>2026-04-26T11:47:16.405Z</time></trkpt><trkpt lat="31.728675" lon="-9.4196783"><ele>302.6666666666667</ele><time>2026-04-26T11:47:17.405Z</time></trkpt><trkpt lat="31.7288267" lon="-9.4195017"><ele>302.0</ele><time>2026-04-26T11:47:18.405Z</time></trkpt><trkpt lat="31.7289733" lon="-9.4193317"><ele>300.6666666666667</ele><time>2026-04-26T11:47:19.405Z</time></trkpt><trkpt lat="31.7291183" lon="-9.41916"><ele>299.3333333333333</ele><time>2026-04-26T11:47:20.405Z</time></trkpt><trkpt lat="31.7292683" lon="-9.4189933"><ele>298.0</ele><time>2026-04-26T11:47:21.405Z</time></trkpt><trkpt lat="31.7294067" lon="-9.4188367"><ele>297.3333333333333</ele><time>2026-04-26T11:47:22.405Z</time></trkpt><trkpt lat="31.72954" lon="-9.4186833"><ele>296.6666666666667</ele><time>2026-04-26T11:47:23.405Z</time></trkpt><trkpt lat="31.7296717" lon="-9.4185367"><ele>296.0</ele><time>2026-04-26T11:47:24.405Z</time></trkpt><trkpt lat="31.7298017" lon="-9.4183833"><ele>296.0</ele><time>2026-04-26T11:47:25.405Z</time></trkpt><trkpt lat="31.729935" lon="-9.41823"><ele>296.0</ele><time>2026-04-26T11:47:26.405Z</time></trkpt><trkpt lat="31.7300683" lon="-9.418065"><ele>296.0</ele><time>2026-04-26T11:47:27.405Z</time></trkpt><trkpt lat="31.7302067" lon="-9.4179033"><ele>295.6666666666667</ele><time>2026-04-26T11:47:28.405Z</time></trkpt><trkpt lat="31.73035" lon="-9.417745"><ele>295.3333333333333</ele><time>2026-04-26T11:47:29.405Z</time></trkpt><trkpt lat="31.7304933" lon="-9.41759"><ele>295.0</ele><time>2026-04-26T11:47:30.405Z</time></trkpt><trkpt lat="31.73063" lon="-9.4174317"><ele>295.0</ele><time>2026-04-26T11:47:31.405Z</time></trkpt><trkpt lat="31.7307733" lon="-9.41727"><ele>295.0</ele><time>2026-04-26T11:47:32.405Z</time></trkpt><trkpt lat="31.7309117" lon="-9.4171067"><ele>295.0</ele><time>2026-04-26T11:47:33.405Z</time></trkpt><trkpt lat="31.731055" lon="-9.41694"><ele>294.0</ele><time>2026-04-26T11:47:34.405Z</time></trkpt><trkpt lat="31.7312017" lon="-9.416765"><ele>293.0</ele><time>2026-04-26T11:47:35.405Z</time></trkpt><trkpt lat="31.7313617" lon="-9.4165933"><ele>292.0</ele><time>2026-04-26T11:47:36.405Z</time></trkpt><trkpt lat="31.7315183" lon="-9.4164133"><ele>291.3333333333333</ele><time>2026-04-26T11:47:37.405Z</time></trkpt><trkpt lat="31.7316733" lon="-9.4162367"><ele>290.6666666666667</ele><time>2026-04-26T11:47:38.405Z</time></trkpt><trkpt lat="31.731835" lon="-9.416065"><ele>290.0</ele><time>2026-04-26T11:47:39.405Z</time></trkpt><trkpt lat="31.731995" lon="-9.4158983"><ele>290.0</ele><time>2026-04-26T11:47:40.405Z</time></trkpt><trkpt lat="31.7321533" lon="-9.4157383"><ele>290.0</ele><time>2026-04-26T11:47:41.405Z</time></trkpt><trkpt lat="31.7323133" lon="-9.415575"><ele>290.0</ele><time>2026-04-26T11:47:42.405Z</time></trkpt><trkpt lat="31.7324683" lon="-9.4154233"><ele>289.6666666666667</ele><time>2026-04-26T11:47:43.406Z</time></trkpt><trkpt lat="31.7326217" lon="-9.41527"><ele>289.3333333333333</ele><time>2026-04-26T11:47:44.405Z</time></trkpt><trkpt lat="31.7327767" lon="-9.4151183"><ele>289.0</ele><time>2026-04-26T11:47:45.405Z</time></trkpt><trkpt lat="31.732935" lon="-9.4149633"><ele>289.0</ele><time>2026-04-26T11:47:46.405Z</time></trkpt><trkpt lat="31.7330933" lon="-9.414815"><ele>289.0</ele><time>2026-04-26T11:47:47.406Z</time></trkpt><trkpt lat="31.7332533" lon="-9.4146733"><ele>289.0</ele><time>2026-04-26T11:47:48.405Z</time></trkpt><trkpt lat="31.7334117" lon="-9.41454"><ele>288.3333333333333</ele><time>2026-04-26T11:47:49.405Z</time></trkpt><trkpt lat="31.7335717" lon="-9.4144017"><ele>287.6666666666667</ele><time>2026-04-26T11:47:50.405Z</time></trkpt><trkpt lat="31.73373" lon="-9.4142633"><ele>287.0</ele><time>2026-04-26T11:47:51.406Z</time></trkpt><trkpt lat="31.7338867" lon="-9.414125"><ele>287.0</ele><time>2026-04-26T11:47:52.405Z</time></trkpt><trkpt lat="31.7340433" lon="-9.4139883"><ele>287.0</ele><time>2026-04-26T11:47:53.405Z</time></trkpt><trkpt lat="31.7341967" lon="-9.41386"><ele>287.0</ele><time>2026-04-26T11:47:54.405Z</time></trkpt><trkpt lat="31.7343517" lon="-9.41372"><ele>286.0</ele><time>2026-04-26T11:47:55.405Z</time></trkpt><trkpt lat="31.7345067" lon="-9.4135783"><ele>285.0</ele><time>2026-04-26T11:47:56.405Z</time></trkpt><trkpt lat="31.7346633" lon="-9.4134417"><ele>284.0</ele><time>2026-04-26T11:47:57.405Z</time></trkpt><trkpt lat="31.73482" lon="-9.4133033"><ele>284.0</ele><time>2026-04-26T11:47:58.405Z</time></trkpt><trkpt lat="31.73498" lon="-9.4131667"><ele>284.0</ele><time>2026-04-26T11:47:59.405Z</time></trkpt><trkpt lat="31.73514" lon="-9.413025"><ele>284.0</ele><time>2026-04-26T11:48:00.405Z</time></trkpt><trkpt lat="31.7352933" lon="-9.41288"><ele>283.6666666666667</ele><time>2026-04-26T11:48:01.405Z</time></trkpt><trkpt lat="31.7354533" lon="-9.4127333"><ele>283.3333333333333</ele><time>2026-04-26T11:48:02.405Z</time></trkpt><trkpt lat="31.7356083" lon="-9.4125817"><ele>283.0</ele><time>2026-04-26T11:48:03.405Z</time></trkpt><trkpt lat="31.7357583" lon="-9.4124283"><ele>283.0</ele><time>2026-04-26T11:48:04.405Z</time></trkpt><trkpt lat="31.7359017" lon="-9.4122817"><ele>283.0</ele><time>2026-04-26T11:48:05.405Z</time></trkpt><trkpt lat="31.7360367" lon="-9.4121417"><ele>283.0</ele><time>2026-04-26T11:48:06.405Z</time></trkpt><trkpt lat="31.736175" lon="-9.4120067"><ele>281.66666666666663</ele><time>2026-04-26T11:48:07.405Z</time></trkpt><trkpt lat="31.73631" lon="-9.41186"><ele>280.3333333333333</ele><time>2026-04-26T11:48:08.405Z</time></trkpt><trkpt lat="31.7364433" lon="-9.41171"><ele>279.0</ele><time>2026-04-26T11:48:09.405Z</time></trkpt><trkpt lat="31.7365833" lon="-9.4115567"><ele>279.0</ele><time>2026-04-26T11:48:10.405Z</time></trkpt><trkpt lat="31.736715" lon="-9.4114"><ele>279.0</ele><time>2026-04-26T11:48:11.405Z</time></trkpt><trkpt lat="31.7368483" lon="-9.41125"><ele>279.0</ele><time>2026-04-26T11:48:12.405Z</time></trkpt><trkpt lat="31.7369867" lon="-9.4110933"><ele>278.3333333333333</ele><time>2026-04-26T11:48:13.405Z</time></trkpt><trkpt lat="31.7371283" lon="-9.4109283"><ele>277.66666666666663</ele><time>2026-04-26T11:48:14.405Z</time></trkpt><trkpt lat="31.73727" lon="-9.410765"><ele>277.0</ele><time>2026-04-26T11:48:15.405Z</time></trkpt><trkpt lat="31.73741" lon="-9.4105983"><ele>276.3333333333333</ele><time>2026-04-26T11:48:16.405Z</time></trkpt><trkpt lat="31.7375483" lon="-9.4104333"><ele>275.6666666666667</ele><time>2026-04-26T11:48:17.405Z</time></trkpt><trkpt lat="31.7376767" lon="-9.4102617"><ele>275.0</ele><time>2026-04-26T11:48:18.405Z</time></trkpt><trkpt lat="31.737805" lon="-9.410105"><ele>275.0</ele><time>2026-04-26T11:48:19.405Z</time></trkpt><trkpt lat="31.7379283" lon="-9.4099633"><ele>275.0</ele><time>2026-04-26T11:48:20.405Z</time></trkpt><trkpt lat="31.738045" lon="-9.4098233"><ele>275.0</ele><time>2026-04-26T11:48:21.405Z</time></trkpt><trkpt lat="31.738155" lon="-9.4096867"><ele>276.0</ele><time>2026-04-26T11:48:22.405Z</time></trkpt><trkpt lat="31.738265" lon="-9.40956"><ele>277.0</ele><time>2026-04-26T11:48:23.405Z</time></trkpt><trkpt lat="31.7383717" lon="-9.40943"><ele>278.0</ele><time>2026-04-26T11:48:24.405Z</time></trkpt><trkpt lat="31.7384817" lon="-9.4093017"><ele>276.0</ele><time>2026-04-26T11:48:25.405Z</time></trkpt><trkpt lat="31.7385983" lon="-9.4091583"><ele>274.0</ele><time>2026-04-26T11:48:26.405Z</time></trkpt><trkpt lat="31.7387183" lon="-9.4090117"><ele>272.0</ele><time>2026-04-26T11:48:27.405Z</time></trkpt><trkpt lat="31.7388367" lon="-9.408865"><ele>272.0</ele><time>2026-04-26T11:48:28.405Z</time></trkpt><trkpt lat="31.738965" lon="-9.4087117"><ele>272.0</ele><time>2026-04-26T11:48:29.405Z</time></trkpt><trkpt lat="31.7391033" lon="-9.4085533"><ele>272.0</ele><time>2026-04-26T11:48:30.405Z</time></trkpt><trkpt lat="31.7392417" lon="-9.40839"><ele>272.0</ele><time>2026-04-26T11:48:31.405Z</time></trkpt><trkpt lat="31.7393833" lon="-9.4082283"><ele>272.0</ele><time>2026-04-26T11:48:32.405Z</time></trkpt><trkpt lat="31.7395217" lon="-9.4080583"><ele>272.0</ele><time>2026-04-26T11:48:33.405Z</time></trkpt><trkpt lat="31.7396633" lon="-9.4078883"><ele>272.33333333333337</ele><time>2026-04-26T11:48:34.405Z</time></trkpt><trkpt lat="31.739805" lon="-9.4077183"><ele>272.6666666666667</ele><time>2026-04-26T11:48:35.405Z</time></trkpt><trkpt lat="31.739955" lon="-9.4075483"><ele>273.0</ele><time>2026-04-26T11:48:36.405Z</time></trkpt><trkpt lat="31.7401017" lon="-9.407375"><ele>271.6666666666667</ele><time>2026-04-26T11:48:37.405Z</time></trkpt><trkpt lat="31.74025" lon="-9.4072"><ele>270.33333333333337</ele><time>2026-04-26T11:48:38.405Z</time></trkpt><trkpt lat="31.7403917" lon="-9.4070283"><ele>269.0</ele><time>2026-04-26T11:48:39.405Z</time></trkpt><trkpt lat="31.7405233" lon="-9.4068633"><ele>269.0</ele><time>2026-04-26T11:48:40.405Z</time></trkpt><trkpt lat="31.74065" lon="-9.4067183"><ele>269.0</ele><time>2026-04-26T11:48:41.405Z</time></trkpt><trkpt lat="31.740765" lon="-9.406575"><ele>269.0</ele><time>2026-04-26T11:48:42.405Z</time></trkpt><trkpt lat="31.7408833" lon="-9.40644"><ele>269.33333333333337</ele><time>2026-04-26T11:48:43.405Z</time></trkpt><trkpt lat="31.741005" lon="-9.4063067"><ele>269.6666666666667</ele><time>2026-04-26T11:48:44.405Z</time></trkpt><trkpt lat="31.7411333" lon="-9.406165"><ele>270.0</ele><time>2026-04-26T11:48:45.405Z</time></trkpt><trkpt lat="31.741265" lon="-9.406015"><ele>270.0</ele><time>2026-04-26T11:48:46.405Z</time></trkpt><trkpt lat="31.7413867" lon="-9.40587"><ele>270.0</ele><time>2026-04-26T11:48:47.406Z</time></trkpt><trkpt lat="31.7415133" lon="-9.40573"><ele>270.0</ele><time>2026-04-26T11:48:48.405Z</time></trkpt><trkpt lat="31.7416533" lon="-9.4055767"><ele>269.6666666666667</ele><time>2026-04-26T11:48:49.405Z</time></trkpt><trkpt lat="31.7417933" lon="-9.4054017"><ele>269.33333333333337</ele><time>2026-04-26T11:48:50.405Z</time></trkpt><trkpt lat="31.7419383" lon="-9.40522"><ele>269.0</ele><time>2026-04-26T11:48:51.405Z</time></trkpt><trkpt lat="31.7420867" lon="-9.4050283"><ele>268.6666666666667</ele><time>2026-04-26T11:48:52.406Z</time></trkpt><trkpt lat="31.7422483" lon="-9.4048383"><ele>268.3333333333333</ele><time>2026-04-26T11:48:53.405Z</time></trkpt><trkpt lat="31.7423967" lon="-9.40465"><ele>268.0</ele><time>2026-04-26T11:48:54.405Z</time></trkpt><trkpt lat="31.7425467" lon="-9.4044683"><ele>268.0</ele><time>2026-04-26T11:48:55.405Z</time></trkpt><trkpt lat="31.7427033" lon="-9.4042833"><ele>268.0</ele><time>2026-04-26T11:48:56.405Z</time></trkpt><trkpt lat="31.74285" lon="-9.4041017"><ele>268.0</ele><time>2026-04-26T11:48:57.405Z</time></trkpt><trkpt lat="31.7429967" lon="-9.4039167"><ele>266.3333333333333</ele><time>2026-04-26T11:48:58.405Z</time></trkpt><trkpt lat="31.7431433" lon="-9.4037383"><ele>264.6666666666667</ele><time>2026-04-26T11:48:59.405Z</time></trkpt><trkpt lat="31.74329" lon="-9.4035667"><ele>263.0</ele><time>2026-04-26T11:49:00.405Z</time></trkpt><trkpt lat="31.7434283" lon="-9.4033933"><ele>261.6666666666667</ele><time>2026-04-26T11:49:01.405Z</time></trkpt><trkpt lat="31.7435667" lon="-9.40322"><ele>260.3333333333333</ele><time>2026-04-26T11:49:02.405Z</time></trkpt><trkpt lat="31.7437" lon="-9.403045"><ele>259.0</ele><time>2026-04-26T11:49:03.405Z</time></trkpt><trkpt lat="31.7438383" lon="-9.4028633"><ele>259.0</ele><time>2026-04-26T11:49:04.405Z</time></trkpt><trkpt lat="31.743985" lon="-9.4026833"><ele>259.0</ele><time>2026-04-26T11:49:05.405Z</time></trkpt><trkpt lat="31.7441333" lon="-9.4024983"><ele>259.0</ele><time>2026-04-26T11:49:06.405Z</time></trkpt><trkpt lat="31.7442767" lon="-9.40231"><ele>258.0</ele><time>2026-04-26T11:49:07.405Z</time></trkpt><trkpt lat="31.7444283" lon="-9.4021283"><ele>257.0</ele><time>2026-04-26T11:49:08.405Z</time></trkpt><trkpt lat="31.744585" lon="-9.40194"><ele>256.0</ele><time>2026-04-26T11:49:09.405Z</time></trkpt><trkpt lat="31.7447417" lon="-9.4017417"><ele>256.0</ele><time>2026-04-26T11:49:10.405Z</time></trkpt><trkpt lat="31.7449" lon="-9.40154"><ele>256.0</ele><time>2026-04-26T11:49:11.405Z</time></trkpt><trkpt lat="31.7450533" lon="-9.40134"><ele>255.0</ele><time>2026-04-26T11:49:12.405Z</time></trkpt><trkpt lat="31.7451967" lon="-9.4011533"><ele>254.0</ele><time>2026-04-26T11:49:13.405Z</time></trkpt><trkpt lat="31.7453217" lon="-9.4009917"><ele>253.0</ele><time>2026-04-26T11:49:14.405Z</time></trkpt><trkpt lat="31.7454283" lon="-9.40085"><ele>253.0</ele><time>2026-04-26T11:49:15.405Z</time></trkpt><trkpt lat="31.7455267" lon="-9.4007217"><ele>253.0</ele><time>2026-04-26T11:49:16.405Z</time></trkpt><trkpt lat="31.7456233" lon="-9.4005983"><ele>253.0</ele><time>2026-04-26T11:49:17.405Z</time></trkpt><trkpt lat="31.7457283" lon="-9.4004667"><ele>253.0</ele><time>2026-04-26T11:49:18.405Z</time></trkpt><trkpt lat="31.745835" lon="-9.4003383"><ele>253.0</ele><time>2026-04-26T11:49:19.405Z</time></trkpt><trkpt lat="31.7459483" lon="-9.4001917"><ele>253.0</ele><time>2026-04-26T11:49:20.405Z</time></trkpt><trkpt lat="31.7460617" lon="-9.4000383"><ele>253.0</ele><time>2026-04-26T11:49:21.405Z</time></trkpt><trkpt lat="31.746185" lon="-9.39989"><ele>253.0</ele><time>2026-04-26T11:49:22.405Z</time></trkpt><trkpt lat="31.7463183" lon="-9.3997217"><ele>253.0</ele><time>2026-04-26T11:49:23.405Z</time></trkpt><trkpt lat="31.7464583" lon="-9.3995517"><ele>253.0</ele><time>2026-04-26T11:49:24.405Z</time></trkpt><trkpt lat="31.7466067" lon="-9.3993567"><ele>254.5</ele><time>2026-04-26T11:49:25.405Z</time></trkpt><trkpt lat="31.7467567" lon="-9.3991567"><ele>256.0</ele><time>2026-04-26T11:49:26.405Z</time></trkpt><trkpt lat="31.74691" lon="-9.3989383"><ele>254.0</ele><time>2026-04-26T11:49:27.405Z</time></trkpt><trkpt lat="31.74707" lon="-9.39873"><ele>252.0</ele><time>2026-04-26T11:49:28.405Z</time></trkpt><trkpt lat="31.7472367" lon="-9.3985167"><ele>252.0</ele><time>2026-04-26T11:49:29.405Z</time></trkpt><trkpt lat="31.747395" lon="-9.3983167"><ele>252.0</ele><time>2026-04-26T11:49:30.405Z</time></trkpt><trkpt lat="31.7475483" lon="-9.3981117"><ele>253.0</ele><time>2026-04-26T11:49:31.405Z</time></trkpt><trkpt lat="31.7476967" lon="-9.39791"><ele>254.0</ele><time>2026-04-26T11:49:32.405Z</time></trkpt><trkpt lat="31.7478467" lon="-9.3977083"><ele>253.0</ele><time>2026-04-26T11:49:33.405Z</time></trkpt><trkpt lat="31.748" lon="-9.397515"><ele>252.0</ele><time>2026-04-26T11:49:34.405Z</time></trkpt><trkpt lat="31.7481417" lon="-9.3973317"><ele>251.0</ele><time>2026-04-26T11:49:35.405Z</time></trkpt><trkpt lat="31.748285" lon="-9.3971567"><ele>251.0</ele><time>2026-04-26T11:49:36.405Z</time></trkpt><trkpt lat="31.74843" lon="-9.3969733"><ele>251.0</ele><time>2026-04-26T11:49:37.405Z</time></trkpt><trkpt lat="31.748575" lon="-9.396785"><ele>251.0</ele><time>2026-04-26T11:49:38.405Z</time></trkpt><trkpt lat="31.748725" lon="-9.3965983"><ele>251.33333333333334</ele><time>2026-04-26T11:49:39.405Z</time></trkpt><trkpt lat="31.74887" lon="-9.3964083"><ele>251.66666666666669</ele><time>2026-04-26T11:49:40.405Z</time></trkpt><trkpt lat="31.7490167" lon="-9.396225"><ele>252.0</ele><time>2026-04-26T11:49:41.405Z</time></trkpt><trkpt lat="31.74916" lon="-9.396035"><ele>252.0</ele><time>2026-04-26T11:49:42.405Z</time></trkpt><trkpt lat="31.7493033" lon="-9.395855"><ele>252.0</ele><time>2026-04-26T11:49:43.405Z</time></trkpt><trkpt lat="31.7494467" lon="-9.3956683"><ele>252.0</ele><time>2026-04-26T11:49:44.405Z</time></trkpt><trkpt lat="31.749585" lon="-9.3954917"><ele>250.66666666666669</ele><time>2026-04-26T11:49:45.405Z</time></trkpt><trkpt lat="31.7497133" lon="-9.3953117"><ele>249.33333333333334</ele><time>2026-04-26T11:49:46.405Z</time></trkpt><trkpt lat="31.7498467" lon="-9.3951383"><ele>248.0</ele><time>2026-04-26T11:49:47.405Z</time></trkpt><trkpt lat="31.74998" lon="-9.3949683"><ele>248.0</ele><time>2026-04-26T11:49:48.405Z</time></trkpt><trkpt lat="31.7501117" lon="-9.3948017"><ele>248.0</ele><time>2026-04-26T11:49:49.405Z</time></trkpt><trkpt lat="31.750245" lon="-9.3946283"><ele>248.0</ele><time>2026-04-26T11:49:50.405Z</time></trkpt><trkpt lat="31.7503767" lon="-9.394455"><ele>246.66666666666669</ele><time>2026-04-26T11:49:51.405Z</time></trkpt><trkpt lat="31.7505133" lon="-9.3942783"><ele>245.33333333333331</ele><time>2026-04-26T11:49:52.405Z</time></trkpt><trkpt lat="31.7506517" lon="-9.3941033"><ele>244.0</ele><time>2026-04-26T11:49:53.405Z</time></trkpt><trkpt lat="31.7507917" lon="-9.3939317"><ele>243.66666666666666</ele><time>2026-04-26T11:49:54.405Z</time></trkpt><trkpt lat="31.7509267" lon="-9.3937567"><ele>243.33333333333331</ele><time>2026-04-26T11:49:55.406Z</time></trkpt><trkpt lat="31.7510617" lon="-9.3935833"><ele>243.0</ele><time>2026-04-26T11:49:56.405Z</time></trkpt><trkpt lat="31.7511933" lon="-9.3934067"><ele>243.0</ele><time>2026-04-26T11:49:57.405Z</time></trkpt><trkpt lat="31.7513267" lon="-9.393235"><ele>243.0</ele><time>2026-04-26T11:49:58.406Z</time></trkpt><trkpt lat="31.7514633" lon="-9.3930617"><ele>243.0</ele><time>2026-04-26T11:49:59.405Z</time></trkpt><trkpt lat="31.7516017" lon="-9.3928883"><ele>243.0</ele><time>2026-04-26T11:50:00.405Z</time></trkpt><trkpt lat="31.75174" lon="-9.39271"><ele>243.0</ele><time>2026-04-26T11:50:01.405Z</time></trkpt><trkpt lat="31.75188" lon="-9.3925267"><ele>243.0</ele><time>2026-04-26T11:50:02.405Z</time></trkpt><trkpt lat="31.7520167" lon="-9.3923433"><ele>242.0</ele><time>2026-04-26T11:50:03.405Z</time></trkpt><trkpt lat="31.7521533" lon="-9.3921633"><ele>241.0</ele><time>2026-04-26T11:50:04.405Z</time></trkpt><trkpt lat="31.752295" lon="-9.39199"><ele>240.0</ele><time>2026-04-26T11:50:05.405Z</time></trkpt><trkpt lat="31.752435" lon="-9.3918117"><ele>240.0</ele><time>2026-04-26T11:50:06.405Z</time></trkpt><trkpt lat="31.7525783" lon="-9.39163"><ele>240.0</ele><time>2026-04-26T11:50:07.405Z</time></trkpt><trkpt lat="31.75272" lon="-9.3914517"><ele>240.0</ele><time>2026-04-26T11:50:08.405Z</time></trkpt><trkpt lat="31.7528533" lon="-9.3912733"><ele>240.0</ele><time>2026-04-26T11:50:09.405Z</time></trkpt><trkpt lat="31.75299" lon="-9.3910917"><ele>240.0</ele><time>2026-04-26T11:50:10.405Z</time></trkpt><trkpt lat="31.7531283" lon="-9.3909083"><ele>240.0</ele><time>2026-04-26T11:50:11.405Z</time></trkpt><trkpt lat="31.7532717" lon="-9.3907267"><ele>240.0</ele><time>2026-04-26T11:50:12.405Z</time></trkpt><trkpt lat="31.7534133" lon="-9.3905467"><ele>240.0</ele><time>2026-04-26T11:50:13.405Z</time></trkpt><trkpt lat="31.7535567" lon="-9.3903633"><ele>240.0</ele><time>2026-04-26T11:50:14.405Z</time></trkpt><trkpt lat="31.7536983" lon="-9.39019"><ele>239.0</ele><time>2026-04-26T11:50:15.405Z</time></trkpt><trkpt lat="31.7538383" lon="-9.3899933"><ele>238.0</ele><time>2026-04-26T11:50:16.405Z</time></trkpt><trkpt lat="31.75398" lon="-9.3898167"><ele>237.0</ele><time>2026-04-26T11:50:17.405Z</time></trkpt><trkpt lat="31.7541133" lon="-9.3896417"><ele>237.0</ele><time>2026-04-26T11:50:18.405Z</time></trkpt><trkpt lat="31.7542467" lon="-9.3894717"><ele>237.0</ele><time>2026-04-26T11:50:19.405Z</time></trkpt><trkpt lat="31.75438" lon="-9.3893067"><ele>237.0</ele><time>2026-04-26T11:50:20.405Z</time></trkpt><trkpt lat="31.7545117" lon="-9.389145"><ele>236.66666666666669</ele><time>2026-04-26T11:50:21.405Z</time></trkpt><trkpt lat="31.7546517" lon="-9.3889867"><ele>236.33333333333334</ele><time>2026-04-26T11:50:22.406Z</time></trkpt><trkpt lat="31.7547933" lon="-9.3888417"><ele>236.0</ele><time>2026-04-26T11:50:23.405Z</time></trkpt><trkpt lat="31.7549433" lon="-9.3886983"><ele>236.0</ele><time>2026-04-26T11:50:24.405Z</time></trkpt><trkpt lat="31.7550917" lon="-9.38855"><ele>236.0</ele><time>2026-04-26T11:50:25.405Z</time></trkpt><trkpt lat="31.7552433" lon="-9.3884133"><ele>236.0</ele><time>2026-04-26T11:50:26.405Z</time></trkpt><trkpt lat="31.755405" lon="-9.3882783"><ele>236.0</ele><time>2026-04-26T11:50:27.405Z</time></trkpt><trkpt lat="31.75557" lon="-9.3881483"><ele>236.0</ele><time>2026-04-26T11:50:28.405Z</time></trkpt><trkpt lat="31.7557267" lon="-9.388015"><ele>236.0</ele><time>2026-04-26T11:50:29.405Z</time></trkpt><trkpt lat="31.7558783" lon="-9.387895"><ele>236.0</ele><time>2026-04-26T11:50:30.405Z</time></trkpt><trkpt lat="31.756025" lon="-9.387785"><ele>236.0</ele><time>2026-04-26T11:50:31.404Z</time></trkpt><trkpt lat="31.75617" lon="-9.3876817"><ele>236.0</ele><time>2026-04-26T11:50:32.404Z</time></trkpt><trkpt lat="31.7563" lon="-9.387575"><ele>236.0</ele><time>2026-04-26T11:50:33.404Z</time></trkpt><trkpt lat="31.756435" lon="-9.3874733"><ele>236.0</ele><time>2026-04-26T11:50:34.404Z</time></trkpt><trkpt lat="31.75656" lon="-9.3873717"><ele>236.0</ele><time>2026-04-26T11:50:35.404Z</time></trkpt><trkpt lat="31.756685" lon="-9.387275"><ele>236.0</ele><time>2026-04-26T11:50:36.404Z</time></trkpt><trkpt lat="31.7568017" lon="-9.3871783"><ele>236.0</ele><time>2026-04-26T11:50:37.404Z</time></trkpt><trkpt lat="31.7569117" lon="-9.387085"><ele>236.0</ele><time>2026-04-26T11:50:38.404Z</time></trkpt><trkpt lat="31.7570233" lon="-9.387"><ele>236.0</ele><time>2026-04-26T11:50:39.404Z</time></trkpt><trkpt lat="31.7571333" lon="-9.3869167"><ele>235.75</ele><time>2026-04-26T11:50:40.404Z</time></trkpt><trkpt lat="31.757235" lon="-9.3868333"><ele>235.5</ele><time>2026-04-26T11:50:41.404Z</time></trkpt><trkpt lat="31.7573383" lon="-9.3867433"><ele>235.25</ele><time>2026-04-26T11:50:42.404Z</time></trkpt><trkpt lat="31.7574417" lon="-9.386655"><ele>235.0</ele><time>2026-04-26T11:50:43.404Z</time></trkpt><trkpt lat="31.7575467" lon="-9.3865683"><ele>235.0</ele><time>2026-04-26T11:50:44.404Z</time></trkpt><trkpt lat="31.7576517" lon="-9.386485"><ele>235.0</ele><time>2026-04-26T11:50:45.404Z</time></trkpt><trkpt lat="31.7577583" lon="-9.38641"><ele>235.0</ele><time>2026-04-26T11:50:46.404Z</time></trkpt><trkpt lat="31.75786" lon="-9.38633"><ele>235.0</ele><time>2026-04-26T11:50:47.405Z</time></trkpt><trkpt lat="31.75796" lon="-9.38625"><ele>234.75</ele><time>2026-04-26T11:50:48.404Z</time></trkpt><trkpt lat="31.75806" lon="-9.386175"><ele>234.5</ele><time>2026-04-26T11:50:49.405Z</time></trkpt><trkpt lat="31.75816" lon="-9.3860983"><ele>234.25</ele><time>2026-04-26T11:50:50.404Z</time></trkpt><trkpt lat="31.7582633" lon="-9.3860217"><ele>234.0</ele><time>2026-04-26T11:50:51.405Z</time></trkpt><trkpt lat="31.7583683" lon="-9.38594"><ele>234.0</ele><time>2026-04-26T11:50:52.404Z</time></trkpt><trkpt lat="31.75847" lon="-9.3858617"><ele>234.0</ele><time>2026-04-26T11:50:53.404Z</time></trkpt><trkpt lat="31.7585717" lon="-9.3857817"><ele>234.0</ele><time>2026-04-26T11:50:54.404Z</time></trkpt><trkpt lat="31.7586717" lon="-9.3857017"><ele>234.0</ele><time>2026-04-26T11:50:55.404Z</time></trkpt><trkpt lat="31.75877" lon="-9.3856233"><ele>234.0</ele><time>2026-04-26T11:50:56.405Z</time></trkpt><trkpt lat="31.7588683" lon="-9.38554"><ele>234.0</ele><time>2026-04-26T11:50:57.404Z</time></trkpt><trkpt lat="31.758965" lon="-9.3854567"><ele>234.0</ele><time>2026-04-26T11:50:58.404Z</time></trkpt><trkpt lat="31.7590617" lon="-9.38538"><ele>234.0</ele><time>2026-04-26T11:50:59.404Z</time></trkpt><trkpt lat="31.7591583" lon="-9.3853"><ele>234.0</ele><time>2026-04-26T11:51:00.404Z</time></trkpt><trkpt lat="31.7592533" lon="-9.3852283"><ele>233.99999999999997</ele><time>2026-04-26T11:51:01.404Z</time></trkpt><trkpt lat="31.7593433" lon="-9.3851567"><ele>233.99999999999997</ele><time>2026-04-26T11:51:02.404Z</time></trkpt><trkpt lat="31.75943" lon="-9.3850883"><ele>234.0</ele><time>2026-04-26T11:51:03.404Z</time></trkpt><trkpt lat="31.7595117" lon="-9.38502"><ele>234.0</ele><time>2026-04-26T11:51:04.404Z</time></trkpt><trkpt lat="31.7595917" lon="-9.3849517"><ele>233.83333333333334</ele><time>2026-04-26T11:51:05.405Z</time></trkpt><trkpt lat="31.7596633" lon="-9.3848883"><ele>233.66666666666669</ele><time>2026-04-26T11:51:06.404Z</time></trkpt><trkpt lat="31.75974" lon="-9.3848267"><ele>233.5</ele><time>2026-04-26T11:51:07.404Z</time></trkpt><trkpt lat="31.75981" lon="-9.384765"><ele>233.33333333333334</ele><time>2026-04-26T11:51:08.404Z</time></trkpt><trkpt lat="31.7598767" lon="-9.3847133"><ele>233.16666666666669</ele><time>2026-04-26T11:51:09.404Z</time></trkpt><trkpt lat="31.7599417" lon="-9.3846683"><ele>233.0</ele><time>2026-04-26T11:51:10.404Z</time></trkpt><trkpt lat="31.76" lon="-9.3846267"><ele>233.0</ele><time>2026-04-26T11:51:11.404Z</time></trkpt><trkpt lat="31.7600583" lon="-9.384585"><ele>233.0</ele><time>2026-04-26T11:51:12.404Z</time></trkpt><trkpt lat="31.7601133" lon="-9.3845433"><ele>233.0</ele><time>2026-04-26T11:51:13.404Z</time></trkpt><trkpt lat="31.76017" lon="-9.3845"><ele>233.0</ele><time>2026-04-26T11:51:14.404Z</time></trkpt><trkpt lat="31.7602267" lon="-9.3844517"><ele>233.0</ele><time>2026-04-26T11:51:15.405Z</time></trkpt><trkpt lat="31.760285" lon="-9.3844"><ele>233.0</ele><time>2026-04-26T11:51:16.405Z</time></trkpt><trkpt lat="31.760345" lon="-9.3843483"><ele>233.0</ele><time>2026-04-26T11:51:17.404Z</time></trkpt><trkpt lat="31.7604067" lon="-9.3843033"><ele>232.60000000000002</ele><time>2026-04-26T11:51:18.404Z</time></trkpt><trkpt lat="31.7604633" lon="-9.3842583"><ele>232.20000000000002</ele><time>2026-04-26T11:51:19.404Z</time></trkpt><trkpt lat="31.7605233" lon="-9.3842167"><ele>231.8</ele><time>2026-04-26T11:51:20.404Z</time></trkpt><trkpt lat="31.7605783" lon="-9.3841767"><ele>231.4</ele><time>2026-04-26T11:51:21.405Z</time></trkpt><trkpt lat="31.760685" lon="-9.3841"><ele>231.0</ele><time>2026-04-26T11:51:23.404Z</time></trkpt><trkpt lat="31.7607917" lon="-9.3840183"><ele>231.0</ele><time>2026-04-26T11:51:25.404Z</time></trkpt><trkpt lat="31.76085" lon="-9.383975"><ele>231.0</ele><time>2026-04-26T11:51:26.404Z</time></trkpt><trkpt lat="31.760905" lon="-9.3839333"><ele>231.0</ele><time>2026-04-26T11:51:27.404Z</time></trkpt><trkpt lat="31.7609583" lon="-9.3838883"><ele>231.0</ele><time>2026-04-26T11:51:28.404Z</time></trkpt><trkpt lat="31.7610217" lon="-9.3838383"><ele>231.0</ele><time>2026-04-26T11:51:29.405Z</time></trkpt><trkpt lat="31.761085" lon="-9.3837867"><ele>231.0</ele><time>2026-04-26T11:51:30.404Z</time></trkpt><trkpt lat="31.7611517" lon="-9.383735"><ele>231.0</ele><time>2026-04-26T11:51:31.404Z</time></trkpt><trkpt lat="31.761225" lon="-9.3836833"><ele>230.8</ele><time>2026-04-26T11:51:32.404Z</time></trkpt><trkpt lat="31.761295" lon="-9.3836267"><ele>230.60000000000002</ele><time>2026-04-26T11:51:33.404Z</time></trkpt><trkpt lat="31.761365" lon="-9.38357"><ele>230.4</ele><time>2026-04-26T11:51:34.404Z</time></trkpt><trkpt lat="31.7614483" lon="-9.38351"><ele>230.2</ele><time>2026-04-26T11:51:35.404Z</time></trkpt><trkpt lat="31.7615333" lon="-9.3834583"><ele>230.0</ele><time>2026-04-26T11:51:36.404Z</time></trkpt><trkpt lat="31.7616283" lon="-9.3834017"><ele>230.0</ele><time>2026-04-26T11:51:37.404Z</time></trkpt><trkpt lat="31.7617283" lon="-9.3833483"><ele>230.0</ele><time>2026-04-26T11:51:38.404Z</time></trkpt><trkpt lat="31.7618433" lon="-9.3833"><ele>230.0</ele><time>2026-04-26T11:51:39.404Z</time></trkpt><trkpt lat="31.7619583" lon="-9.383245"><ele>230.0</ele><time>2026-04-26T11:51:40.404Z</time></trkpt><trkpt lat="31.7620783" lon="-9.3831917"><ele>229.25</ele><time>2026-04-26T11:51:41.404Z</time></trkpt><trkpt lat="31.7622033" lon="-9.383135"><ele>228.5</ele><time>2026-04-26T11:51:42.404Z</time></trkpt><trkpt lat="31.7623317" lon="-9.3830867"><ele>227.75</ele><time>2026-04-26T11:51:43.404Z</time></trkpt><trkpt lat="31.7624683" lon="-9.3830367"><ele>227.0</ele><time>2026-04-26T11:51:44.404Z</time></trkpt><trkpt lat="31.7626033" lon="-9.3829867"><ele>226.33333333333334</ele><time>2026-04-26T11:51:45.404Z</time></trkpt><trkpt lat="31.7627467" lon="-9.3829317"><ele>225.66666666666669</ele><time>2026-04-26T11:51:46.404Z</time></trkpt><trkpt lat="31.7628867" lon="-9.3828833"><ele>225.0</ele><time>2026-04-26T11:51:47.404Z</time></trkpt><trkpt lat="31.763035" lon="-9.3828267"><ele>225.0</ele><time>2026-04-26T11:51:48.404Z</time></trkpt><trkpt lat="31.7631883" lon="-9.3827783"><ele>225.0</ele><time>2026-04-26T11:51:49.404Z</time></trkpt><trkpt lat="31.7633483" lon="-9.3827233"><ele>225.0</ele><time>2026-04-26T11:51:50.404Z</time></trkpt><trkpt lat="31.76351" lon="-9.3826633"><ele>226.0</ele><time>2026-04-26T11:51:51.404Z</time></trkpt><trkpt lat="31.76368" lon="-9.382595"><ele>227.0</ele><time>2026-04-26T11:51:52.404Z</time></trkpt><trkpt lat="31.7638533" lon="-9.3825117"><ele>228.0</ele><time>2026-04-26T11:51:53.404Z</time></trkpt><trkpt lat="31.7640233" lon="-9.3824083"><ele>228.0</ele><time>2026-04-26T11:51:54.404Z</time></trkpt><trkpt lat="31.7641917" lon="-9.3822917"><ele>228.0</ele><time>2026-04-26T11:51:55.404Z</time></trkpt><trkpt lat="31.764345" lon="-9.3821683"><ele>228.0</ele><time>2026-04-26T11:51:56.404Z</time></trkpt><trkpt lat="31.7644883" lon="-9.3820417"><ele>228.66666666666669</ele><time>2026-04-26T11:51:57.404Z</time></trkpt><trkpt lat="31.764625" lon="-9.3819033"><ele>229.33333333333334</ele><time>2026-04-26T11:51:58.404Z</time></trkpt><trkpt lat="31.7647633" lon="-9.3817683"><ele>230.0</ele><time>2026-04-26T11:51:59.404Z</time></trkpt><trkpt lat="31.7649067" lon="-9.3816333"><ele>230.0</ele><time>2026-04-26T11:52:00.404Z</time></trkpt><trkpt lat="31.7650517" lon="-9.3815"><ele>230.0</ele><time>2026-04-26T11:52:01.404Z</time></trkpt><trkpt lat="31.7651983" lon="-9.381365"><ele>230.0</ele><time>2026-04-26T11:52:02.404Z</time></trkpt><trkpt lat="31.765345" lon="-9.3812467"><ele>228.66666666666669</ele><time>2026-04-26T11:52:03.405Z</time></trkpt><trkpt lat="31.7654983" lon="-9.381135"><ele>227.33333333333331</ele><time>2026-04-26T11:52:04.404Z</time></trkpt><trkpt lat="31.765655" lon="-9.381035"><ele>226.0</ele><time>2026-04-26T11:52:05.404Z</time></trkpt><trkpt lat="31.76582" lon="-9.3809517"><ele>226.0</ele><time>2026-04-26T11:52:06.404Z</time></trkpt><trkpt lat="31.7659867" lon="-9.38088"><ele>226.0</ele><time>2026-04-26T11:52:07.404Z</time></trkpt><trkpt lat="31.7661567" lon="-9.3808317"><ele>226.0</ele><time>2026-04-26T11:52:08.404Z</time></trkpt><trkpt lat="31.7663217" lon="-9.3807967"><ele>227.0</ele><time>2026-04-26T11:52:09.404Z</time></trkpt><trkpt lat="31.76649" lon="-9.3807717"><ele>228.0</ele><time>2026-04-26T11:52:10.404Z</time></trkpt><trkpt lat="31.7666667" lon="-9.3807533"><ele>229.0</ele><time>2026-04-26T11:52:11.404Z</time></trkpt><trkpt lat="31.7668467" lon="-9.3807367"><ele>228.66666666666666</ele><time>2026-04-26T11:52:12.404Z</time></trkpt><trkpt lat="31.7670267" lon="-9.3807217"><ele>228.33333333333331</ele><time>2026-04-26T11:52:13.404Z</time></trkpt><trkpt lat="31.7672117" lon="-9.3807117"><ele>228.0</ele><time>2026-04-26T11:52:14.404Z</time></trkpt><trkpt lat="31.76739" lon="-9.380705"><ele>228.0</ele><time>2026-04-26T11:52:15.404Z</time></trkpt><trkpt lat="31.7675583" lon="-9.3806967"><ele>228.0</ele><time>2026-04-26T11:52:16.404Z</time></trkpt><trkpt lat="31.7677183" lon="-9.3806883"><ele>228.0</ele><time>2026-04-26T11:52:17.404Z</time></trkpt><trkpt lat="31.76788" lon="-9.38067"><ele>228.0</ele><time>2026-04-26T11:52:18.404Z</time></trkpt><trkpt lat="31.76804" lon="-9.38064"><ele>228.0</ele><time>2026-04-26T11:52:19.404Z</time></trkpt><trkpt lat="31.768205" lon="-9.3805917"><ele>228.0</ele><time>2026-04-26T11:52:20.404Z</time></trkpt><trkpt lat="31.7683683" lon="-9.3805167"><ele>225.0</ele><time>2026-04-26T11:52:21.404Z</time></trkpt><trkpt lat="31.7685383" lon="-9.3804167"><ele>222.0</ele><time>2026-04-26T11:52:22.404Z</time></trkpt><trkpt lat="31.7687017" lon="-9.3802883"><ele>219.0</ele><time>2026-04-26T11:52:23.404Z</time></trkpt><trkpt lat="31.7688633" lon="-9.3801483"><ele>219.0</ele><time>2026-04-26T11:52:24.404Z</time></trkpt><trkpt lat="31.7690283" lon="-9.380005"><ele>219.0</ele><time>2026-04-26T11:52:25.404Z</time></trkpt><trkpt lat="31.7691917" lon="-9.3798633"><ele>219.0</ele><time>2026-04-26T11:52:26.404Z</time></trkpt><trkpt lat="31.76935" lon="-9.3797117"><ele>219.0</ele><time>2026-04-26T11:52:27.404Z</time></trkpt><trkpt lat="31.7695033" lon="-9.3795683"><ele>219.0</ele><time>2026-04-26T11:52:28.404Z</time></trkpt><trkpt lat="31.7696533" lon="-9.3794283"><ele>219.0</ele><time>2026-04-26T11:52:29.404Z</time></trkpt><trkpt lat="31.7698017" lon="-9.3792917"><ele>219.0</ele><time>2026-04-26T11:52:30.404Z</time></trkpt><trkpt lat="31.76995" lon="-9.379155"><ele>219.0</ele><time>2026-04-26T11:52:31.404Z</time></trkpt><trkpt lat="31.7700967" lon="-9.3790217"><ele>219.0</ele><time>2026-04-26T11:52:32.404Z</time></trkpt><trkpt lat="31.770245" lon="-9.378885"><ele>219.0</ele><time>2026-04-26T11:52:33.404Z</time></trkpt><trkpt lat="31.7703867" lon="-9.3787483"><ele>219.0</ele><time>2026-04-26T11:52:34.404Z</time></trkpt><trkpt lat="31.7705233" lon="-9.3786117"><ele>219.0</ele><time>2026-04-26T11:52:35.404Z</time></trkpt><trkpt lat="31.770665" lon="-9.3784717"><ele>219.0</ele><time>2026-04-26T11:52:36.404Z</time></trkpt><trkpt lat="31.7708067" lon="-9.3783283"><ele>219.0</ele><time>2026-04-26T11:52:37.404Z</time></trkpt><trkpt lat="31.7709467" lon="-9.3781867"><ele>219.0</ele><time>2026-04-26T11:52:38.404Z</time></trkpt><trkpt lat="31.7710883" lon="-9.3780467"><ele>218.66666666666669</ele><time>2026-04-26T11:52:39.404Z</time></trkpt><trkpt lat="31.7712317" lon="-9.37791"><ele>218.33333333333334</ele><time>2026-04-26T11:52:40.404Z</time></trkpt><trkpt lat="31.771365" lon="-9.3777667"><ele>218.0</ele><time>2026-04-26T11:52:41.404Z</time></trkpt><trkpt lat="31.7715033" lon="-9.3776233"><ele>218.0</ele><time>2026-04-26T11:52:42.404Z</time></trkpt><trkpt lat="31.7716467" lon="-9.3774733"><ele>218.0</ele><time>2026-04-26T11:52:43.404Z</time></trkpt><trkpt lat="31.7717967" lon="-9.3773283"><ele>218.0</ele><time>2026-04-26T11:52:44.404Z</time></trkpt><trkpt lat="31.7719567" lon="-9.377195"><ele>216.33333333333334</ele><time>2026-04-26T11:52:45.404Z</time></trkpt><trkpt lat="31.77213" lon="-9.3770767"><ele>214.66666666666669</ele><time>2026-04-26T11:52:46.404Z</time></trkpt><trkpt lat="31.7723067" lon="-9.3769633"><ele>213.0</ele><time>2026-04-26T11:52:47.404Z</time></trkpt><trkpt lat="31.77248" lon="-9.3768583"><ele>213.0</ele><time>2026-04-26T11:52:48.404Z</time></trkpt><trkpt lat="31.77265" lon="-9.3767633"><ele>213.0</ele><time>2026-04-26T11:52:49.404Z</time></trkpt><trkpt lat="31.7728183" lon="-9.376675"><ele>213.0</ele><time>2026-04-26T11:52:50.404Z</time></trkpt><trkpt lat="31.7729967" lon="-9.3765967"><ele>215.0</ele><time>2026-04-26T11:52:51.404Z</time></trkpt><trkpt lat="31.7731717" lon="-9.3765167"><ele>217.0</ele><time>2026-04-26T11:52:52.404Z</time></trkpt><trkpt lat="31.77334" lon="-9.37644"><ele>219.0</ele><time>2026-04-26T11:52:53.404Z</time></trkpt><trkpt lat="31.7735067" lon="-9.3763617"><ele>216.33333333333331</ele><time>2026-04-26T11:52:54.404Z</time></trkpt><trkpt lat="31.77367" lon="-9.37629"><ele>213.66666666666666</ele><time>2026-04-26T11:52:55.404Z</time></trkpt><trkpt lat="31.7738383" lon="-9.3762167"><ele>211.0</ele><time>2026-04-26T11:52:56.405Z</time></trkpt><trkpt lat="31.7740117" lon="-9.3761433"><ele>211.0</ele><time>2026-04-26T11:52:57.404Z</time></trkpt><trkpt lat="31.77419" lon="-9.376075"><ele>211.0</ele><time>2026-04-26T11:52:58.404Z</time></trkpt><trkpt lat="31.7743783" lon="-9.3760233"><ele>211.0</ele><time>2026-04-26T11:52:59.404Z</time></trkpt><trkpt lat="31.77457" lon="-9.3759733"><ele>211.66666666666666</ele><time>2026-04-26T11:53:00.404Z</time></trkpt><trkpt lat="31.7747633" lon="-9.3759333"><ele>212.33333333333331</ele><time>2026-04-26T11:53:01.404Z</time></trkpt><trkpt lat="31.7749517" lon="-9.3758917"><ele>213.0</ele><time>2026-04-26T11:53:02.404Z</time></trkpt><trkpt lat="31.77513" lon="-9.3758533"><ele>212.66666666666669</ele><time>2026-04-26T11:53:03.404Z</time></trkpt><trkpt lat="31.7753017" lon="-9.37582"><ele>212.33333333333334</ele><time>2026-04-26T11:53:04.404Z</time></trkpt><trkpt lat="31.7754717" lon="-9.3757867"><ele>212.0</ele><time>2026-04-26T11:53:05.404Z</time></trkpt><trkpt lat="31.77564" lon="-9.375755"><ele>212.0</ele><time>2026-04-26T11:53:06.404Z</time></trkpt><trkpt lat="31.7758117" lon="-9.3757217"><ele>212.0</ele><time>2026-04-26T11:53:07.404Z</time></trkpt><trkpt lat="31.77599" lon="-9.375685"><ele>212.0</ele><time>2026-04-26T11:53:08.404Z</time></trkpt><trkpt lat="31.7761717" lon="-9.3756217"><ele>213.66666666666669</ele><time>2026-04-26T11:53:09.404Z</time></trkpt><trkpt lat="31.77635" lon="-9.3755333"><ele>215.33333333333331</ele><time>2026-04-26T11:53:10.404Z</time></trkpt><trkpt lat="31.7765267" lon="-9.3754167"><ele>217.0</ele><time>2026-04-26T11:53:11.404Z</time></trkpt><trkpt lat="31.776695" lon="-9.3752733"><ele>215.0</ele><time>2026-04-26T11:53:12.404Z</time></trkpt><trkpt lat="31.776865" lon="-9.3751267"><ele>213.0</ele><time>2026-04-26T11:53:13.404Z</time></trkpt><trkpt lat="31.77703" lon="-9.3749783"><ele>211.0</ele><time>2026-04-26T11:53:14.404Z</time></trkpt><trkpt lat="31.7771883" lon="-9.3748383"><ele>211.0</ele><time>2026-04-26T11:53:15.404Z</time></trkpt><trkpt lat="31.7773433" lon="-9.374695"><ele>211.0</ele><time>2026-04-26T11:53:16.404Z</time></trkpt><trkpt lat="31.7775017" lon="-9.37456"><ele>211.0</ele><time>2026-04-26T11:53:17.404Z</time></trkpt><trkpt lat="31.7776567" lon="-9.3744283"><ele>212.0</ele><time>2026-04-26T11:53:18.404Z</time></trkpt><trkpt lat="31.7778083" lon="-9.3743"><ele>213.0</ele><time>2026-04-26T11:53:19.404Z</time></trkpt><trkpt lat="31.7779617" lon="-9.3741617"><ele>214.0</ele><time>2026-04-26T11:53:20.404Z</time></trkpt><trkpt lat="31.7781133" lon="-9.374025"><ele>214.0</ele><time>2026-04-26T11:53:21.404Z</time></trkpt><trkpt lat="31.778265" lon="-9.3738933"><ele>214.0</ele><time>2026-04-26T11:53:22.404Z</time></trkpt><trkpt lat="31.77842" lon="-9.37376"><ele>214.0</ele><time>2026-04-26T11:53:23.404Z</time></trkpt><trkpt lat="31.7785733" lon="-9.37363"><ele>211.66666666666666</ele><time>2026-04-26T11:53:24.404Z</time></trkpt><trkpt lat="31.7787267" lon="-9.37349"><ele>209.33333333333331</ele><time>2026-04-26T11:53:25.404Z</time></trkpt><trkpt lat="31.7788883" lon="-9.3733483"><ele>207.0</ele><time>2026-04-26T11:53:26.404Z</time></trkpt><trkpt lat="31.779055" lon="-9.3732017"><ele>207.0</ele><time>2026-04-26T11:53:27.404Z</time></trkpt><trkpt lat="31.7792267" lon="-9.3730467"><ele>207.0</ele><time>2026-04-26T11:53:28.404Z</time></trkpt><trkpt lat="31.7793983" lon="-9.372895"><ele>207.0</ele><time>2026-04-26T11:53:29.404Z</time></trkpt><trkpt lat="31.7795717" lon="-9.3727467"><ele>205.33333333333331</ele><time>2026-04-26T11:53:30.404Z</time></trkpt><trkpt lat="31.7797433" lon="-9.3725983"><ele>203.66666666666666</ele><time>2026-04-26T11:53:31.404Z</time></trkpt><trkpt lat="31.779915" lon="-9.372455"><ele>202.0</ele><time>2026-04-26T11:53:32.404Z</time></trkpt><trkpt lat="31.78008" lon="-9.3723117"><ele>202.33333333333331</ele><time>2026-04-26T11:53:33.404Z</time></trkpt><trkpt lat="31.7802433" lon="-9.3721717"><ele>202.66666666666669</ele><time>2026-04-26T11:53:34.404Z</time></trkpt><trkpt lat="31.7804067" lon="-9.3720267"><ele>203.0</ele><time>2026-04-26T11:53:35.404Z</time></trkpt><trkpt lat="31.780575" lon="-9.3718833"><ele>203.0</ele><time>2026-04-26T11:53:36.404Z</time></trkpt><trkpt lat="31.780745" lon="-9.3717317"><ele>203.0</ele><time>2026-04-26T11:53:37.404Z</time></trkpt><trkpt lat="31.7809167" lon="-9.3715817"><ele>203.0</ele><time>2026-04-26T11:53:38.404Z</time></trkpt><trkpt lat="31.7810867" lon="-9.3714267"><ele>201.33333333333334</ele><time>2026-04-26T11:53:39.404Z</time></trkpt><trkpt lat="31.78126" lon="-9.3712717"><ele>199.66666666666669</ele><time>2026-04-26T11:53:40.404Z</time></trkpt><trkpt lat="31.7814333" lon="-9.37112"><ele>198.0</ele><time>2026-04-26T11:53:41.404Z</time></trkpt><trkpt lat="31.78161" lon="-9.3709717"><ele>198.0</ele><time>2026-04-26T11:53:42.404Z</time></trkpt><trkpt lat="31.7817883" lon="-9.3708183"><ele>198.0</ele><time>2026-04-26T11:53:43.404Z</time></trkpt><trkpt lat="31.78196" lon="-9.3706667"><ele>198.0</ele><time>2026-04-26T11:53:44.404Z</time></trkpt><trkpt lat="31.782125" lon="-9.3705217"><ele>197.66666666666669</ele><time>2026-04-26T11:53:45.404Z</time></trkpt><trkpt lat="31.782285" lon="-9.3703883"><ele>197.33333333333334</ele><time>2026-04-26T11:53:46.404Z</time></trkpt><trkpt lat="31.7824417" lon="-9.37025"><ele>197.0</ele><time>2026-04-26T11:53:47.404Z</time></trkpt><trkpt lat="31.7826033" lon="-9.3701117"><ele>197.33333333333334</ele><time>2026-04-26T11:53:48.404Z</time></trkpt><trkpt lat="31.7827717" lon="-9.36997"><ele>197.66666666666669</ele><time>2026-04-26T11:53:49.404Z</time></trkpt><trkpt lat="31.782945" lon="-9.3698233"><ele>198.0</ele><time>2026-04-26T11:53:50.404Z</time></trkpt><trkpt lat="31.7831217" lon="-9.3696683"><ele>198.0</ele><time>2026-04-26T11:53:51.404Z</time></trkpt><trkpt lat="31.7833067" lon="-9.3695083"><ele>198.0</ele><time>2026-04-26T11:53:52.404Z</time></trkpt><trkpt lat="31.78349" lon="-9.3693483"><ele>197.66666666666669</ele><time>2026-04-26T11:53:53.404Z</time></trkpt><trkpt lat="31.7836717" lon="-9.3691883"><ele>197.33333333333334</ele><time>2026-04-26T11:53:54.404Z</time></trkpt><trkpt lat="31.783845" lon="-9.3690383"><ele>197.0</ele><time>2026-04-26T11:53:55.404Z</time></trkpt><trkpt lat="31.7840117" lon="-9.3688967"><ele>197.0</ele><time>2026-04-26T11:53:56.404Z</time></trkpt><trkpt lat="31.784175" lon="-9.36876"><ele>197.0</ele><time>2026-04-26T11:53:57.404Z</time></trkpt><trkpt lat="31.784335" lon="-9.3686233"><ele>197.0</ele><time>2026-04-26T11:53:58.404Z</time></trkpt><trkpt lat="31.784495" lon="-9.36849"><ele>197.0</ele><time>2026-04-26T11:53:59.404Z</time></trkpt><trkpt lat="31.7846533" lon="-9.3683567"><ele>197.0</ele><time>2026-04-26T11:54:00.404Z</time></trkpt><trkpt lat="31.7848083" lon="-9.3682217"><ele>197.0</ele><time>2026-04-26T11:54:01.404Z</time></trkpt><trkpt lat="31.784965" lon="-9.3680783"><ele>197.0</ele><time>2026-04-26T11:54:02.404Z</time></trkpt><trkpt lat="31.78513" lon="-9.367935"><ele>197.0</ele><time>2026-04-26T11:54:03.404Z</time></trkpt><trkpt lat="31.7852917" lon="-9.3677967"><ele>197.0</ele><time>2026-04-26T11:54:04.404Z</time></trkpt><trkpt lat="31.78545" lon="-9.3676567"><ele>196.66666666666669</ele><time>2026-04-26T11:54:05.404Z</time></trkpt><trkpt lat="31.78561" lon="-9.3675133"><ele>196.33333333333331</ele><time>2026-04-26T11:54:06.404Z</time></trkpt><trkpt lat="31.7857733" lon="-9.3673683"><ele>196.0</ele><time>2026-04-26T11:54:07.404Z</time></trkpt><trkpt lat="31.78594" lon="-9.3672183"><ele>195.0</ele><time>2026-04-26T11:54:08.404Z</time></trkpt><trkpt lat="31.786115" lon="-9.3670667"><ele>194.0</ele><time>2026-04-26T11:54:09.404Z</time></trkpt><trkpt lat="31.7862917" lon="-9.3669167"><ele>193.0</ele><time>2026-04-26T11:54:10.404Z</time></trkpt><trkpt lat="31.7864717" lon="-9.36676"><ele>193.0</ele><time>2026-04-26T11:54:11.404Z</time></trkpt><trkpt lat="31.7866417" lon="-9.3666033"><ele>193.0</ele><time>2026-04-26T11:54:12.404Z</time></trkpt><trkpt lat="31.7868083" lon="-9.36646"><ele>193.0</ele><time>2026-04-26T11:54:13.404Z</time></trkpt><trkpt lat="31.78698" lon="-9.3663167"><ele>192.33333333333331</ele><time>2026-04-26T11:54:14.404Z</time></trkpt><trkpt lat="31.7871533" lon="-9.36617"><ele>191.66666666666666</ele><time>2026-04-26T11:54:15.404Z</time></trkpt><trkpt lat="31.7873267" lon="-9.366025"><ele>191.0</ele><time>2026-04-26T11:54:16.404Z</time></trkpt><trkpt lat="31.7875083" lon="-9.36589"><ele>191.33333333333331</ele><time>2026-04-26T11:54:17.404Z</time></trkpt><trkpt lat="31.7876917" lon="-9.3657533"><ele>191.66666666666666</ele><time>2026-04-26T11:54:18.404Z</time></trkpt><trkpt lat="31.787875" lon="-9.3656233"><ele>192.0</ele><time>2026-04-26T11:54:19.404Z</time></trkpt><trkpt lat="31.788055" lon="-9.3654917"><ele>191.66666666666666</ele><time>2026-04-26T11:54:20.404Z</time></trkpt><trkpt lat="31.7882417" lon="-9.3653617"><ele>191.33333333333331</ele><time>2026-04-26T11:54:21.404Z</time></trkpt><trkpt lat="31.7884267" lon="-9.3652317"><ele>191.0</ele><time>2026-04-26T11:54:22.404Z</time></trkpt><trkpt lat="31.7886117" lon="-9.365105"><ele>191.0</ele><time>2026-04-26T11:54:23.404Z</time></trkpt><trkpt lat="31.7887983" lon="-9.36498"><ele>191.0</ele><time>2026-04-26T11:54:24.404Z</time></trkpt><trkpt lat="31.7889817" lon="-9.3648517"><ele>191.0</ele><time>2026-04-26T11:54:25.404Z</time></trkpt><trkpt lat="31.7891633" lon="-9.364725"><ele>190.0</ele><time>2026-04-26T11:54:26.404Z</time></trkpt><trkpt lat="31.7893433" lon="-9.364605"><ele>189.0</ele><time>2026-04-26T11:54:27.404Z</time></trkpt><trkpt lat="31.7895183" lon="-9.3644917"><ele>188.0</ele><time>2026-04-26T11:54:28.404Z</time></trkpt><trkpt lat="31.7896967" lon="-9.3643833"><ele>188.0</ele><time>2026-04-26T11:54:29.404Z</time></trkpt><trkpt lat="31.7898683" lon="-9.3642617"><ele>188.0</ele><time>2026-04-26T11:54:30.404Z</time></trkpt><trkpt lat="31.7900383" lon="-9.36413"><ele>188.0</ele><time>2026-04-26T11:54:31.404Z</time></trkpt><trkpt lat="31.7902017" lon="-9.363985"><ele>188.33333333333331</ele><time>2026-04-26T11:54:32.404Z</time></trkpt><trkpt lat="31.7903567" lon="-9.3638233"><ele>188.66666666666666</ele><time>2026-04-26T11:54:33.404Z</time></trkpt><trkpt lat="31.7905033" lon="-9.3636433"><ele>189.0</ele><time>2026-04-26T11:54:34.404Z</time></trkpt><trkpt lat="31.79065" lon="-9.3634567"><ele>189.0</ele><time>2026-04-26T11:54:35.404Z</time></trkpt><trkpt lat="31.7907917" lon="-9.363275"><ele>189.0</ele><time>2026-04-26T11:54:36.404Z</time></trkpt><trkpt lat="31.790925" lon="-9.363095"><ele>189.0</ele><time>2026-04-26T11:54:37.404Z</time></trkpt><trkpt lat="31.7910567" lon="-9.3629183"><ele>190.0</ele><time>2026-04-26T11:54:38.404Z</time></trkpt><trkpt lat="31.7911883" lon="-9.3627567"><ele>191.0</ele><time>2026-04-26T11:54:39.404Z</time></trkpt><trkpt lat="31.79132" lon="-9.3625983"><ele>192.0</ele><time>2026-04-26T11:54:40.404Z</time></trkpt><trkpt lat="31.7914583" lon="-9.3624467"><ele>192.0</ele><time>2026-04-26T11:54:41.404Z</time></trkpt><trkpt lat="31.791605" lon="-9.362315"><ele>192.0</ele><time>2026-04-26T11:54:42.404Z</time></trkpt><trkpt lat="31.7917583" lon="-9.3621817"><ele>192.0</ele><time>2026-04-26T11:54:43.404Z</time></trkpt><trkpt lat="31.7919117" lon="-9.3620467"><ele>190.66666666666666</ele><time>2026-04-26T11:54:44.404Z</time></trkpt><trkpt lat="31.792065" lon="-9.3619067"><ele>189.33333333333331</ele><time>2026-04-26T11:54:45.404Z</time></trkpt><trkpt lat="31.7922217" lon="-9.3617617"><ele>188.0</ele><time>2026-04-26T11:54:46.404Z</time></trkpt><trkpt lat="31.7923883" lon="-9.3616167"><ele>188.0</ele><time>2026-04-26T11:54:47.404Z</time></trkpt><trkpt lat="31.792555" lon="-9.36147"><ele>188.0</ele><time>2026-04-26T11:54:48.404Z</time></trkpt><trkpt lat="31.7927267" lon="-9.3613233"><ele>188.0</ele><time>2026-04-26T11:54:49.405Z</time></trkpt><trkpt lat="31.7929" lon="-9.3611733"><ele>187.33333333333331</ele><time>2026-04-26T11:54:50.404Z</time></trkpt><trkpt lat="31.7930683" lon="-9.3610267"><ele>186.66666666666666</ele><time>2026-04-26T11:54:51.404Z</time></trkpt><trkpt lat="31.7932267" lon="-9.3608767"><ele>186.0</ele><time>2026-04-26T11:54:52.404Z</time></trkpt><trkpt lat="31.793375" lon="-9.360725"><ele>187.33333333333334</ele><time>2026-04-26T11:54:53.404Z</time></trkpt><trkpt lat="31.79351" lon="-9.3605667"><ele>188.66666666666669</ele><time>2026-04-26T11:54:54.404Z</time></trkpt><trkpt lat="31.7936383" lon="-9.360395"><ele>190.0</ele><time>2026-04-26T11:54:55.404Z</time></trkpt><trkpt lat="31.7937517" lon="-9.3602183"><ele>190.0</ele><time>2026-04-26T11:54:56.404Z</time></trkpt><trkpt lat="31.7938533" lon="-9.3600183"><ele>190.0</ele><time>2026-04-26T11:54:57.404Z</time></trkpt><trkpt lat="31.79394" lon="-9.3598"><ele>190.0</ele><time>2026-04-26T11:54:58.404Z</time></trkpt><trkpt lat="31.7940217" lon="-9.3595783"><ele>188.33333333333334</ele><time>2026-04-26T11:54:59.404Z</time></trkpt><trkpt lat="31.7941033" lon="-9.3593483"><ele>186.66666666666666</ele><time>2026-04-26T11:55:00.404Z</time></trkpt><trkpt lat="31.7941917" lon="-9.359115"><ele>185.0</ele><time>2026-04-26T11:55:01.404Z</time></trkpt><trkpt lat="31.7942717" lon="-9.3588667"><ele>185.33333333333331</ele><time>2026-04-26T11:55:02.404Z</time></trkpt><trkpt lat="31.794345" lon="-9.3586317"><ele>185.66666666666666</ele><time>2026-04-26T11:55:03.404Z</time></trkpt><trkpt lat="31.7944183" lon="-9.3584083"><ele>186.0</ele><time>2026-04-26T11:55:04.404Z</time></trkpt><trkpt lat="31.7944867" lon="-9.358195"><ele>185.66666666666666</ele><time>2026-04-26T11:55:05.404Z</time></trkpt><trkpt lat="31.794555" lon="-9.3579883"><ele>185.33333333333331</ele><time>2026-04-26T11:55:06.405Z</time></trkpt><trkpt lat="31.7946283" lon="-9.35778"><ele>185.0</ele><time>2026-04-26T11:55:07.404Z</time></trkpt><trkpt lat="31.7947067" lon="-9.35758"><ele>185.0</ele><time>2026-04-26T11:55:08.404Z</time></trkpt><trkpt lat="31.79479" lon="-9.357385"><ele>185.0</ele><time>2026-04-26T11:55:09.404Z</time></trkpt><trkpt lat="31.794885" lon="-9.357205"><ele>185.0</ele><time>2026-04-26T11:55:10.404Z</time></trkpt><trkpt lat="31.7949967" lon="-9.35703"><ele>183.33333333333331</ele><time>2026-04-26T11:55:11.404Z</time></trkpt><trkpt lat="31.7951217" lon="-9.3568617"><ele>181.66666666666666</ele><time>2026-04-26T11:55:12.404Z</time></trkpt><trkpt lat="31.79527" lon="-9.35671"><ele>180.0</ele><time>2026-04-26T11:55:13.404Z</time></trkpt><trkpt lat="31.79544" lon="-9.3565633"><ele>180.0</ele><time>2026-04-26T11:55:14.404Z</time></trkpt><trkpt lat="31.7956167" lon="-9.35643"><ele>180.0</ele><time>2026-04-26T11:55:15.405Z</time></trkpt><trkpt lat="31.795795" lon="-9.3563033"><ele>180.0</ele><time>2026-04-26T11:55:16.405Z</time></trkpt><trkpt lat="31.79597" lon="-9.3561767"><ele>179.0</ele><time>2026-04-26T11:55:17.404Z</time></trkpt><trkpt lat="31.7961533" lon="-9.3560517"><ele>178.0</ele><time>2026-04-26T11:55:18.404Z</time></trkpt><trkpt lat="31.7963417" lon="-9.35593"><ele>177.0</ele><time>2026-04-26T11:55:19.405Z</time></trkpt><trkpt lat="31.7965317" lon="-9.3557983"><ele>177.0</ele><time>2026-04-26T11:55:20.404Z</time></trkpt><trkpt lat="31.7967267" lon="-9.3556683"><ele>177.0</ele><time>2026-04-26T11:55:21.404Z</time></trkpt><trkpt lat="31.79692" lon="-9.3555333"><ele>177.0</ele><time>2026-04-26T11:55:22.404Z</time></trkpt><trkpt lat="31.7971133" lon="-9.3554067"><ele>176.66666666666666</ele><time>2026-04-26T11:55:23.404Z</time></trkpt><trkpt lat="31.7973117" lon="-9.355275"><ele>176.33333333333331</ele><time>2026-04-26T11:55:24.404Z</time></trkpt><trkpt lat="31.7975033" lon="-9.355155"><ele>176.0</ele><time>2026-04-26T11:55:25.404Z</time></trkpt><trkpt lat="31.7976933" lon="-9.35504"><ele>177.33333333333331</ele><time>2026-04-26T11:55:26.404Z</time></trkpt><trkpt lat="31.797885" lon="-9.35493"><ele>178.66666666666666</ele><time>2026-04-26T11:55:27.404Z</time></trkpt><trkpt lat="31.79808" lon="-9.3548283"><ele>180.0</ele><time>2026-04-26T11:55:28.404Z</time></trkpt><trkpt lat="31.798275" lon="-9.354725"><ele>178.33333333333334</ele><time>2026-04-26T11:55:29.404Z</time></trkpt><trkpt lat="31.798475" lon="-9.3546217"><ele>176.66666666666669</ele><time>2026-04-26T11:55:30.404Z</time></trkpt><trkpt lat="31.7986733" lon="-9.354515"><ele>175.0</ele><time>2026-04-26T11:55:31.404Z</time></trkpt><trkpt lat="31.7988717" lon="-9.3544083"><ele>175.0</ele><time>2026-04-26T11:55:32.404Z</time></trkpt><trkpt lat="31.7990583" lon="-9.3543033"><ele>175.0</ele><time>2026-04-26T11:55:33.404Z</time></trkpt><trkpt lat="31.7992417" lon="-9.3542067"><ele>175.0</ele><time>2026-04-26T11:55:34.404Z</time></trkpt><trkpt lat="31.7994233" lon="-9.354115"><ele>174.0</ele><time>2026-04-26T11:55:35.404Z</time></trkpt><trkpt lat="31.7995967" lon="-9.3540283"><ele>173.0</ele><time>2026-04-26T11:55:36.404Z</time></trkpt><trkpt lat="31.79977" lon="-9.353945"><ele>172.0</ele><time>2026-04-26T11:55:37.404Z</time></trkpt><trkpt lat="31.7999467" lon="-9.3538567"><ele>172.0</ele><time>2026-04-26T11:55:38.404Z</time></trkpt><trkpt lat="31.80012" lon="-9.3537583"><ele>172.0</ele><time>2026-04-26T11:55:39.404Z</time></trkpt><trkpt lat="31.800275" lon="-9.3536483"><ele>172.0</ele><time>2026-04-26T11:55:40.404Z</time></trkpt><trkpt lat="31.8004283" lon="-9.3535217"><ele>173.33333333333334</ele><time>2026-04-26T11:55:41.404Z</time></trkpt><trkpt lat="31.8005733" lon="-9.3533733"><ele>174.66666666666666</ele><time>2026-04-26T11:55:42.404Z</time></trkpt><trkpt lat="31.8007167" lon="-9.353215"><ele>176.0</ele><time>2026-04-26T11:55:43.404Z</time></trkpt><trkpt lat="31.8008617" lon="-9.3530467"><ele>174.0</ele><time>2026-04-26T11:55:44.404Z</time></trkpt><trkpt lat="31.800995" lon="-9.3528683"><ele>172.0</ele><time>2026-04-26T11:55:45.404Z</time></trkpt><trkpt lat="31.80112" lon="-9.3526767"><ele>170.0</ele><time>2026-04-26T11:55:46.404Z</time></trkpt><trkpt lat="31.8012383" lon="-9.35249"><ele>171.66666666666666</ele><time>2026-04-26T11:55:47.404Z</time></trkpt><trkpt lat="31.8013517" lon="-9.3522883"><ele>173.33333333333334</ele><time>2026-04-26T11:55:48.404Z</time></trkpt><trkpt lat="31.8014667" lon="-9.3520983"><ele>175.0</ele><time>2026-04-26T11:55:49.404Z</time></trkpt><trkpt lat="31.8015833" lon="-9.351925"><ele>175.0</ele><time>2026-04-26T11:55:50.404Z</time></trkpt><trkpt lat="31.801715" lon="-9.3517567"><ele>175.0</ele><time>2026-04-26T11:55:51.404Z</time></trkpt><trkpt lat="31.801855" lon="-9.3516"><ele>175.0</ele><time>2026-04-26T11:55:52.404Z</time></trkpt><trkpt lat="31.8019933" lon="-9.3514583"><ele>174.25</ele><time>2026-04-26T11:55:53.404Z</time></trkpt><trkpt lat="31.8021167" lon="-9.3513333"><ele>173.5</ele><time>2026-04-26T11:55:54.404Z</time></trkpt><trkpt lat="31.8022283" lon="-9.3512233"><ele>172.75</ele><time>2026-04-26T11:55:55.404Z</time></trkpt><trkpt lat="31.8023383" lon="-9.3511233"><ele>172.0</ele><time>2026-04-26T11:55:56.404Z</time></trkpt><trkpt lat="31.8024367" lon="-9.3510367"><ele>172.0</ele><time>2026-04-26T11:55:57.404Z</time></trkpt><trkpt lat="31.8025233" lon="-9.3509683"><ele>172.0</ele><time>2026-04-26T11:55:58.404Z</time></trkpt><trkpt lat="31.8025983" lon="-9.350905"><ele>172.0</ele><time>2026-04-26T11:55:59.404Z</time></trkpt><trkpt lat="31.8026667" lon="-9.3508467"><ele>172.0</ele><time>2026-04-26T11:56:00.404Z</time></trkpt><trkpt lat="31.802725" lon="-9.3508"><ele>172.0</ele><time>2026-04-26T11:56:01.404Z</time></trkpt><trkpt lat="31.8028067" lon="-9.350715"><ele>172.16666666666669</ele><time>2026-04-26T11:56:03.404Z</time></trkpt><trkpt lat="31.8028233" lon="-9.3506183"><ele>172.33333333333334</ele><time>2026-04-26T11:56:05.404Z</time></trkpt><trkpt lat="31.8028067" lon="-9.3505267"><ele>172.5</ele><time>2026-04-26T11:56:08.404Z</time></trkpt><trkpt lat="31.8027683" lon="-9.350435"><ele>172.66666666666666</ele><time>2026-04-26T11:56:11.405Z</time></trkpt><trkpt lat="31.80275" lon="-9.350315"><ele>172.83333333333331</ele><time>2026-04-26T11:56:13.404Z</time></trkpt><trkpt lat="31.8027867" lon="-9.3502217"><ele>173.0</ele><time>2026-04-26T11:56:15.404Z</time></trkpt><trkpt lat="31.8028383" lon="-9.3501433"><ele>172.5</ele><time>2026-04-26T11:56:17.404Z</time></trkpt><trkpt lat="31.8028917" lon="-9.3500817"><ele>172.0</ele><time>2026-04-26T11:56:19.404Z</time></trkpt><trkpt lat="31.8029717" lon="-9.350105"><ele>171.5</ele><time>2026-04-26T12:09:37.401Z</time></trkpt><trkpt lat="31.8029833" lon="-9.3502033"><ele>171.0</ele><time>2026-04-26T12:09:40.401Z</time></trkpt><trkpt lat="31.8030033" lon="-9.3502783"><ele>170.5</ele><time>2026-04-26T12:09:42.401Z</time></trkpt><trkpt lat="31.8030583" lon="-9.3503517"><ele>170.0</ele><time>2026-04-26T12:09:45.401Z</time></trkpt><trkpt lat="31.8031283" lon="-9.350365"><ele>170.0</ele><time>2026-04-26T12:09:48.401Z</time></trkpt><trkpt lat="31.8031917" lon="-9.35036"><ele>170.0</ele><time>2026-04-26T12:10:02.401Z</time></trkpt><trkpt lat="31.8032883" lon="-9.3503017"><ele>170.0</ele><time>2026-04-26T12:10:04.401Z</time></trkpt><trkpt lat="31.8033483" lon="-9.3502583"><ele>170.0</ele><time>2026-04-26T12:10:05.401Z</time></trkpt><trkpt lat="31.80342" lon="-9.3502067"><ele>170.0</ele><time>2026-04-26T12:10:06.401Z</time></trkpt><trkpt lat="31.80351" lon="-9.3501383"><ele>170.0</ele><time>2026-04-26T12:10:07.4Z</time></trkpt><trkpt lat="31.8036133" lon="-9.350055"><ele>173.0</ele><time>2026-04-26T12:10:08.4Z</time></trkpt><trkpt lat="31.80374" lon="-9.3499467"><ele>176.0</ele><time>2026-04-26T12:10:09.4Z</time></trkpt><trkpt lat="31.8038733" lon="-9.349835"><ele>179.0</ele><time>2026-04-26T12:10:10.4Z</time></trkpt><trkpt lat="31.804" lon="-9.3497267"><ele>178.66666666666666</ele><time>2026-04-26T12:10:11.4Z</time></trkpt><trkpt lat="31.8041267" lon="-9.34962"><ele>178.33333333333334</ele><time>2026-04-26T12:10:12.4Z</time></trkpt><trkpt lat="31.80426" lon="-9.3495067"><ele>178.0</ele><time>2026-04-26T12:10:13.4Z</time></trkpt><trkpt lat="31.8043967" lon="-9.3493783"><ele>178.0</ele><time>2026-04-26T12:10:14.4Z</time></trkpt><trkpt lat="31.8045433" lon="-9.3492533"><ele>178.0</ele><time>2026-04-26T12:10:15.4Z</time></trkpt><trkpt lat="31.8046833" lon="-9.3491333"><ele>178.0</ele><time>2026-04-26T12:10:16.4Z</time></trkpt><trkpt lat="31.8048333" lon="-9.349015"><ele>178.0</ele><time>2026-04-26T12:10:17.4Z</time></trkpt><trkpt lat="31.8049867" lon="-9.3489033"><ele>178.0</ele><time>2026-04-26T12:10:18.4Z</time></trkpt><trkpt lat="31.8051467" lon="-9.3488"><ele>178.0</ele><time>2026-04-26T12:10:19.4Z</time></trkpt><trkpt lat="31.8053133" lon="-9.3487017"><ele>175.33333333333334</ele><time>2026-04-26T12:10:20.4Z</time></trkpt><trkpt lat="31.8054817" lon="-9.3486067"><ele>172.66666666666666</ele><time>2026-04-26T12:10:21.4Z</time></trkpt><trkpt lat="31.8056467" lon="-9.3485167"><ele>170.0</ele><time>2026-04-26T12:10:22.4Z</time></trkpt><trkpt lat="31.805805" lon="-9.348435"><ele>170.0</ele><time>2026-04-26T12:10:23.4Z</time></trkpt><trkpt lat="31.8059633" lon="-9.3483583"><ele>170.0</ele><time>2026-04-26T12:10:24.4Z</time></trkpt><trkpt lat="31.8061267" lon="-9.3482717"><ele>170.0</ele><time>2026-04-26T12:10:25.4Z</time></trkpt><trkpt lat="31.80629" lon="-9.3481933"><ele>169.66666666666666</ele><time>2026-04-26T12:10:26.4Z</time></trkpt><trkpt lat="31.806455" lon="-9.3481183"><ele>169.33333333333334</ele><time>2026-04-26T12:10:27.4Z</time></trkpt><trkpt lat="31.8066133" lon="-9.3480433"><ele>169.0</ele><time>2026-04-26T12:10:28.4Z</time></trkpt><trkpt lat="31.80677" lon="-9.347965"><ele>170.0</ele><time>2026-04-26T12:10:29.4Z</time></trkpt><trkpt lat="31.80692" lon="-9.3478917"><ele>171.0</ele><time>2026-04-26T12:10:30.4Z</time></trkpt><trkpt lat="31.80706" lon="-9.3478217"><ele>172.0</ele><time>2026-04-26T12:10:31.4Z</time></trkpt><trkpt lat="31.807205" lon="-9.3477533"><ele>172.0</ele><time>2026-04-26T12:10:32.4Z</time></trkpt><trkpt lat="31.8073467" lon="-9.34768"><ele>172.0</ele><time>2026-04-26T12:10:33.4Z</time></trkpt><trkpt lat="31.80749" lon="-9.3476033"><ele>172.0</ele><time>2026-04-26T12:10:34.4Z</time></trkpt><trkpt lat="31.80763" lon="-9.34753"><ele>172.5</ele><time>2026-04-26T12:10:35.4Z</time></trkpt><trkpt lat="31.8077633" lon="-9.3474633"><ele>173.0</ele><time>2026-04-26T12:10:36.4Z</time></trkpt><trkpt lat="31.8078933" lon="-9.3474033"><ele>173.5</ele><time>2026-04-26T12:10:37.4Z</time></trkpt><trkpt lat="31.8080217" lon="-9.3473433"><ele>174.0</ele><time>2026-04-26T12:10:38.4Z</time></trkpt><trkpt lat="31.8081667" lon="-9.3472783"><ele>174.0</ele><time>2026-04-26T12:10:39.4Z</time></trkpt><trkpt lat="31.80832" lon="-9.34722"><ele>174.0</ele><time>2026-04-26T12:10:40.4Z</time></trkpt><trkpt lat="31.8084683" lon="-9.3471733"><ele>174.0</ele><time>2026-04-26T12:10:41.4Z</time></trkpt><trkpt lat="31.80862" lon="-9.3471333"><ele>172.33333333333334</ele><time>2026-04-26T12:10:42.4Z</time></trkpt><trkpt lat="31.808775" lon="-9.3471033"><ele>170.66666666666669</ele><time>2026-04-26T12:10:43.4Z</time></trkpt><trkpt lat="31.8089333" lon="-9.3470717"><ele>169.0</ele><time>2026-04-26T12:10:44.401Z</time></trkpt><trkpt lat="31.80909" lon="-9.3470383"><ele>169.0</ele><time>2026-04-26T12:10:45.4Z</time></trkpt><trkpt lat="31.8092333" lon="-9.3470033"><ele>169.0</ele><time>2026-04-26T12:10:46.4Z</time></trkpt><trkpt lat="31.8093767" lon="-9.3469733"><ele>169.0</ele><time>2026-04-26T12:10:47.401Z</time></trkpt><trkpt lat="31.8095167" lon="-9.346945"><ele>169.0</ele><time>2026-04-26T12:10:48.4Z</time></trkpt><trkpt lat="31.8096567" lon="-9.3469067"><ele>169.25</ele><time>2026-04-26T12:10:49.4Z</time></trkpt><trkpt lat="31.80979" lon="-9.34687"><ele>169.5</ele><time>2026-04-26T12:10:50.4Z</time></trkpt><trkpt lat="31.80992" lon="-9.3468183"><ele>169.75</ele><time>2026-04-26T12:10:51.4Z</time></trkpt><trkpt lat="31.81005" lon="-9.3467683"><ele>170.0</ele><time>2026-04-26T12:10:52.4Z</time></trkpt><trkpt lat="31.81018" lon="-9.3467117"><ele>170.0</ele><time>2026-04-26T12:10:53.4Z</time></trkpt><trkpt lat="31.8103117" lon="-9.3466483"><ele>170.0</ele><time>2026-04-26T12:10:54.4Z</time></trkpt><trkpt lat="31.8104433" lon="-9.3465783"><ele>170.0</ele><time>2026-04-26T12:10:55.4Z</time></trkpt><trkpt lat="31.8105783" lon="-9.3465083"><ele>170.0</ele><time>2026-04-26T12:10:56.4Z</time></trkpt><trkpt lat="31.8107133" lon="-9.34643"><ele>169.0</ele><time>2026-04-26T12:10:57.4Z</time></trkpt><trkpt lat="31.81086" lon="-9.346325"><ele>168.0</ele><time>2026-04-26T12:10:58.4Z</time></trkpt><trkpt lat="31.8110317" lon="-9.3462233"><ele>167.0</ele><time>2026-04-26T12:10:59.4Z</time></trkpt><trkpt lat="31.8112117" lon="-9.3461117"><ele>167.0</ele><time>2026-04-26T12:11:00.4Z</time></trkpt><trkpt lat="31.8113967" lon="-9.34598"><ele>167.0</ele><time>2026-04-26T12:11:01.4Z</time></trkpt><trkpt lat="31.8115833" lon="-9.345845"><ele>167.0</ele><time>2026-04-26T12:11:02.4Z</time></trkpt><trkpt lat="31.8117617" lon="-9.3457233"><ele>165.66666666666666</ele><time>2026-04-26T12:11:03.4Z</time></trkpt><trkpt lat="31.81193" lon="-9.345605"><ele>164.33333333333334</ele><time>2026-04-26T12:11:04.4Z</time></trkpt><trkpt lat="31.8120817" lon="-9.3454867"><ele>163.0</ele><time>2026-04-26T12:11:05.401Z</time></trkpt><trkpt lat="31.8122283" lon="-9.3453717"><ele>163.0</ele><time>2026-04-26T12:11:06.4Z</time></trkpt><trkpt lat="31.812345" lon="-9.3452383"><ele>163.0</ele><time>2026-04-26T12:11:07.4Z</time></trkpt><trkpt lat="31.81243" lon="-9.3450967"><ele>163.0</ele><time>2026-04-26T12:11:08.4Z</time></trkpt><trkpt lat="31.81248" lon="-9.3449267"><ele>163.0</ele><time>2026-04-26T12:11:09.4Z</time></trkpt><trkpt lat="31.8125217" lon="-9.3447267"><ele>163.0</ele><time>2026-04-26T12:11:10.4Z</time></trkpt><trkpt lat="31.8125533" lon="-9.3445267"><ele>163.0</ele><time>2026-04-26T12:11:11.4Z</time></trkpt><trkpt lat="31.81258" lon="-9.34434"><ele>163.0</ele><time>2026-04-26T12:11:12.4Z</time></trkpt><trkpt lat="31.812605" lon="-9.3441717"><ele>163.0</ele><time>2026-04-26T12:11:13.4Z</time></trkpt><trkpt lat="31.8126433" lon="-9.3440117"><ele>163.0</ele><time>2026-04-26T12:11:14.4Z</time></trkpt><trkpt lat="31.8127033" lon="-9.3438733"><ele>163.0</ele><time>2026-04-26T12:11:15.401Z</time></trkpt><trkpt lat="31.81279" lon="-9.3437467"><ele>162.66666666666669</ele><time>2026-04-26T12:11:16.4Z</time></trkpt><trkpt lat="31.8129017" lon="-9.3436283"><ele>162.33333333333334</ele><time>2026-04-26T12:11:17.4Z</time></trkpt><trkpt lat="31.8130233" lon="-9.343525"><ele>162.0</ele><time>2026-04-26T12:11:18.4Z</time></trkpt><trkpt lat="31.8131517" lon="-9.3434217"><ele>162.0</ele><time>2026-04-26T12:11:19.4Z</time></trkpt><trkpt lat="31.8132717" lon="-9.3433067"><ele>162.0</ele><time>2026-04-26T12:11:20.4Z</time></trkpt><trkpt lat="31.8134017" lon="-9.3431883"><ele>162.0</ele><time>2026-04-26T12:11:21.4Z</time></trkpt><trkpt lat="31.8135333" lon="-9.3430533"><ele>161.33333333333334</ele><time>2026-04-26T12:11:22.4Z</time></trkpt><trkpt lat="31.8136583" lon="-9.3429117"><ele>160.66666666666669</ele><time>2026-04-26T12:11:23.4Z</time></trkpt><trkpt lat="31.8137783" lon="-9.3427717"><ele>160.0</ele><time>2026-04-26T12:11:24.4Z</time></trkpt><trkpt lat="31.8138983" lon="-9.34264"><ele>160.0</ele><time>2026-04-26T12:11:25.4Z</time></trkpt><trkpt lat="31.8140117" lon="-9.34251"><ele>160.0</ele><time>2026-04-26T12:11:26.4Z</time></trkpt><trkpt lat="31.8141217" lon="-9.3423933"><ele>160.0</ele><time>2026-04-26T12:11:27.4Z</time></trkpt><trkpt lat="31.8142233" lon="-9.342285"><ele>160.0</ele><time>2026-04-26T12:11:28.4Z</time></trkpt><trkpt lat="31.8143183" lon="-9.34217"><ele>160.0</ele><time>2026-04-26T12:11:29.4Z</time></trkpt><trkpt lat="31.8144033" lon="-9.342065"><ele>160.0</ele><time>2026-04-26T12:11:30.4Z</time></trkpt><trkpt lat="31.8144833" lon="-9.3419633"><ele>160.0</ele><time>2026-04-26T12:11:31.4Z</time></trkpt><trkpt lat="31.814555" lon="-9.3418667"><ele>160.0</ele><time>2026-04-26T12:11:32.4Z</time></trkpt><trkpt lat="31.81462" lon="-9.3417633"><ele>160.0</ele><time>2026-04-26T12:11:33.4Z</time></trkpt><trkpt lat="31.8146733" lon="-9.34166"><ele>160.0</ele><time>2026-04-26T12:11:34.4Z</time></trkpt><trkpt lat="31.81472" lon="-9.3415567"><ele>160.0</ele><time>2026-04-26T12:11:35.4Z</time></trkpt><trkpt lat="31.814765" lon="-9.3414617"><ele>160.0</ele><time>2026-04-26T12:11:36.4Z</time></trkpt><trkpt lat="31.81481" lon="-9.34136"><ele>160.0</ele><time>2026-04-26T12:11:37.4Z</time></trkpt><trkpt lat="31.814855" lon="-9.34126"><ele>160.4</ele><time>2026-04-26T12:11:38.4Z</time></trkpt><trkpt lat="31.814895" lon="-9.3411583"><ele>160.8</ele><time>2026-04-26T12:11:39.4Z</time></trkpt><trkpt lat="31.8149383" lon="-9.3410567"><ele>161.2</ele><time>2026-04-26T12:11:40.4Z</time></trkpt><trkpt lat="31.8149833" lon="-9.3409533"><ele>161.6</ele><time>2026-04-26T12:11:41.4Z</time></trkpt><trkpt lat="31.81503" lon="-9.3408433"><ele>162.0</ele><time>2026-04-26T12:11:42.4Z</time></trkpt><trkpt lat="31.8150783" lon="-9.3407317"><ele>162.0</ele><time>2026-04-26T12:11:43.4Z</time></trkpt><trkpt lat="31.8151283" lon="-9.3406233"><ele>162.0</ele><time>2026-04-26T12:11:44.4Z</time></trkpt><trkpt lat="31.8151783" lon="-9.3405167"><ele>162.0</ele><time>2026-04-26T12:11:45.4Z</time></trkpt><trkpt lat="31.8152283" lon="-9.3404033"><ele>162.0</ele><time>2026-04-26T12:11:46.4Z</time></trkpt><trkpt lat="31.81528" lon="-9.34029"><ele>162.0</ele><time>2026-04-26T12:11:47.4Z</time></trkpt><trkpt lat="31.815325" lon="-9.3401783"><ele>161.8</ele><time>2026-04-26T12:11:48.4Z</time></trkpt><trkpt lat="31.8153733" lon="-9.3400733"><ele>161.6</ele><time>2026-04-26T12:11:49.4Z</time></trkpt><trkpt lat="31.8154183" lon="-9.339965"><ele>161.4</ele><time>2026-04-26T12:11:50.4Z</time></trkpt><trkpt lat="31.8154683" lon="-9.3398567"><ele>161.20000000000002</ele><time>2026-04-26T12:11:51.4Z</time></trkpt><trkpt lat="31.8155183" lon="-9.3397483"><ele>161.0</ele><time>2026-04-26T12:11:52.4Z</time></trkpt><trkpt lat="31.815555" lon="-9.3396367"><ele>161.0</ele><time>2026-04-26T12:11:53.4Z</time></trkpt><trkpt lat="31.8155983" lon="-9.3395217"><ele>161.0</ele><time>2026-04-26T12:11:54.4Z</time></trkpt><trkpt lat="31.815645" lon="-9.3394133"><ele>161.0</ele><time>2026-04-26T12:11:55.4Z</time></trkpt><trkpt lat="31.815695" lon="-9.3393"><ele>161.0</ele><time>2026-04-26T12:11:56.4Z</time></trkpt><trkpt lat="31.8157417" lon="-9.3391833"><ele>161.0</ele><time>2026-04-26T12:11:57.4Z</time></trkpt><trkpt lat="31.8157983" lon="-9.3390667"><ele>161.0</ele><time>2026-04-26T12:11:58.4Z</time></trkpt><trkpt lat="31.8158517" lon="-9.338945"><ele>161.0</ele><time>2026-04-26T12:11:59.4Z</time></trkpt><trkpt lat="31.8158967" lon="-9.3388283"><ele>161.0</ele><time>2026-04-26T12:12:00.4Z</time></trkpt><trkpt lat="31.8159467" lon="-9.3387117"><ele>161.0</ele><time>2026-04-26T12:12:01.4Z</time></trkpt><trkpt lat="31.816" lon="-9.3386"><ele>161.0</ele><time>2026-04-26T12:12:02.4Z</time></trkpt><trkpt lat="31.8160483" lon="-9.3384833"><ele>161.5</ele><time>2026-04-26T12:12:03.4Z</time></trkpt><trkpt lat="31.8160983" lon="-9.3383633"><ele>162.0</ele><time>2026-04-26T12:12:04.401Z</time></trkpt><trkpt lat="31.8161467" lon="-9.338245"><ele>162.5</ele><time>2026-04-26T12:12:05.4Z</time></trkpt><trkpt lat="31.8161983" lon="-9.338125"><ele>163.0</ele><time>2026-04-26T12:12:06.4Z</time></trkpt><trkpt lat="31.81625" lon="-9.3380067"><ele>164.75</ele><time>2026-04-26T12:12:07.4Z</time></trkpt><trkpt lat="31.8163017" lon="-9.3378817"><ele>166.5</ele><time>2026-04-26T12:12:08.401Z</time></trkpt><trkpt lat="31.8163517" lon="-9.3377567"><ele>168.25</ele><time>2026-04-26T12:12:09.401Z</time></trkpt><trkpt lat="31.8163983" lon="-9.3376283"><ele>170.0</ele><time>2026-04-26T12:12:10.401Z</time></trkpt><trkpt lat="31.816445" lon="-9.3374967"><ele>170.0</ele><time>2026-04-26T12:12:11.4Z</time></trkpt><trkpt lat="31.81648" lon="-9.3373567"><ele>170.0</ele><time>2026-04-26T12:12:12.4Z</time></trkpt><trkpt lat="31.8164967" lon="-9.3372133"><ele>170.0</ele><time>2026-04-26T12:12:13.4Z</time></trkpt><trkpt lat="31.8165033" lon="-9.3370683"><ele>170.0</ele><time>2026-04-26T12:12:14.4Z</time></trkpt><trkpt lat="31.81651" lon="-9.336925"><ele>169.5</ele><time>2026-04-26T12:12:15.4Z</time></trkpt><trkpt lat="31.816505" lon="-9.3367867"><ele>169.0</ele><time>2026-04-26T12:12:16.4Z</time></trkpt><trkpt lat="31.8164867" lon="-9.3366367"><ele>168.5</ele><time>2026-04-26T12:12:17.4Z</time></trkpt><trkpt lat="31.8164467" lon="-9.33648"><ele>168.0</ele><time>2026-04-26T12:12:18.4Z</time></trkpt><trkpt lat="31.8163933" lon="-9.3363133"><ele>168.0</ele><time>2026-04-26T12:12:19.4Z</time></trkpt><trkpt lat="31.8163167" lon="-9.336135"><ele>168.0</ele><time>2026-04-26T12:12:20.4Z</time></trkpt><trkpt lat="31.8162283" lon="-9.3359433"><ele>168.0</ele><time>2026-04-26T12:12:21.4Z</time></trkpt><trkpt lat="31.81614" lon="-9.3357583"><ele>168.0</ele><time>2026-04-26T12:12:22.4Z</time></trkpt><trkpt lat="31.8160533" lon="-9.3355783"><ele>168.0</ele><time>2026-04-26T12:12:23.4Z</time></trkpt><trkpt lat="31.81597" lon="-9.33539"><ele>168.0</ele><time>2026-04-26T12:12:24.4Z</time></trkpt><trkpt lat="31.8158967" lon="-9.335195"><ele>168.66666666666666</ele><time>2026-04-26T12:12:25.4Z</time></trkpt><trkpt lat="31.815835" lon="-9.3349733"><ele>169.33333333333331</ele><time>2026-04-26T12:12:26.4Z</time></trkpt><trkpt lat="31.815785" lon="-9.3347317"><ele>170.0</ele><time>2026-04-26T12:12:27.4Z</time></trkpt><trkpt lat="31.8157417" lon="-9.3344867"><ele>168.66666666666666</ele><time>2026-04-26T12:12:28.4Z</time></trkpt><trkpt lat="31.8156967" lon="-9.3342533"><ele>167.33333333333334</ele><time>2026-04-26T12:12:29.4Z</time></trkpt><trkpt lat="31.8156533" lon="-9.33404"><ele>166.0</ele><time>2026-04-26T12:12:30.4Z</time></trkpt><trkpt lat="31.8156117" lon="-9.3338283"><ele>165.66666666666669</ele><time>2026-04-26T12:12:31.4Z</time></trkpt><trkpt lat="31.81559" lon="-9.3336267"><ele>165.33333333333334</ele><time>2026-04-26T12:12:32.4Z</time></trkpt><trkpt lat="31.8155767" lon="-9.333435"><ele>165.0</ele><time>2026-04-26T12:12:33.4Z</time></trkpt><trkpt lat="31.81558" lon="-9.33325"><ele>165.0</ele><time>2026-04-26T12:12:34.4Z</time></trkpt><trkpt lat="31.8156033" lon="-9.3330683"><ele>165.0</ele><time>2026-04-26T12:12:35.4Z</time></trkpt><trkpt lat="31.81564" lon="-9.3329017"><ele>165.0</ele><time>2026-04-26T12:12:36.4Z</time></trkpt><trkpt lat="31.8157033" lon="-9.3327317"><ele>165.33333333333334</ele><time>2026-04-26T12:12:37.4Z</time></trkpt><trkpt lat="31.815785" lon="-9.3325783"><ele>165.66666666666669</ele><time>2026-04-26T12:12:38.4Z</time></trkpt><trkpt lat="31.8158867" lon="-9.332425"><ele>166.0</ele><time>2026-04-26T12:12:39.4Z</time></trkpt><trkpt lat="31.8160017" lon="-9.3322917"><ele>169.66666666666669</ele><time>2026-04-26T12:12:40.4Z</time></trkpt><trkpt lat="31.8161367" lon="-9.3321817"><ele>173.33333333333334</ele><time>2026-04-26T12:12:41.4Z</time></trkpt><trkpt lat="31.8162817" lon="-9.3320967"><ele>177.0</ele><time>2026-04-26T12:12:42.401Z</time></trkpt><trkpt lat="31.816435" lon="-9.3320383"><ele>177.0</ele><time>2026-04-26T12:12:43.4Z</time></trkpt><trkpt lat="31.8166033" lon="-9.3320033"><ele>177.0</ele><time>2026-04-26T12:12:44.4Z</time></trkpt><trkpt lat="31.81677" lon="-9.3319983"><ele>177.0</ele><time>2026-04-26T12:12:45.401Z</time></trkpt><trkpt lat="31.81694" lon="-9.332015"><ele>176.33333333333334</ele><time>2026-04-26T12:12:46.4Z</time></trkpt><trkpt lat="31.8171067" lon="-9.33206"><ele>175.66666666666669</ele><time>2026-04-26T12:12:47.4Z</time></trkpt><trkpt lat="31.81727" lon="-9.3321333"><ele>175.0</ele><time>2026-04-26T12:12:48.4Z</time></trkpt><trkpt lat="31.8174367" lon="-9.3322267"><ele>175.0</ele><time>2026-04-26T12:12:49.4Z</time></trkpt><trkpt lat="31.8176083" lon="-9.3323267"><ele>175.0</ele><time>2026-04-26T12:12:50.4Z</time></trkpt><trkpt lat="31.81778" lon="-9.3324233"><ele>175.0</ele><time>2026-04-26T12:12:51.4Z</time></trkpt><trkpt lat="31.817955" lon="-9.332485"><ele>177.33333333333334</ele><time>2026-04-26T12:12:52.4Z</time></trkpt><trkpt lat="31.81811" lon="-9.3325267"><ele>179.66666666666666</ele><time>2026-04-26T12:12:53.4Z</time></trkpt><trkpt lat="31.818265" lon="-9.332545"><ele>182.0</ele><time>2026-04-26T12:12:54.4Z</time></trkpt><trkpt lat="31.8184167" lon="-9.3325417"><ele>182.33333333333331</ele><time>2026-04-26T12:12:55.4Z</time></trkpt><trkpt lat="31.8185817" lon="-9.33251"><ele>182.66666666666666</ele><time>2026-04-26T12:12:56.4Z</time></trkpt><trkpt lat="31.8187617" lon="-9.3324617"><ele>183.0</ele><time>2026-04-26T12:12:57.4Z</time></trkpt><trkpt lat="31.8189483" lon="-9.3324033"><ele>183.0</ele><time>2026-04-26T12:12:58.4Z</time></trkpt><trkpt lat="31.8191433" lon="-9.33235"><ele>183.0</ele><time>2026-04-26T12:12:59.4Z</time></trkpt><trkpt lat="31.819335" lon="-9.332295"><ele>183.0</ele><time>2026-04-26T12:13:00.4Z</time></trkpt><trkpt lat="31.81952" lon="-9.3322367"><ele>185.66666666666666</ele><time>2026-04-26T12:13:01.4Z</time></trkpt><trkpt lat="31.8196983" lon="-9.3321667"><ele>188.33333333333331</ele><time>2026-04-26T12:13:02.4Z</time></trkpt><trkpt lat="31.8198683" lon="-9.3320783"><ele>191.0</ele><time>2026-04-26T12:13:03.4Z</time></trkpt><trkpt lat="31.8200133" lon="-9.3319633"><ele>191.0</ele><time>2026-04-26T12:13:04.4Z</time></trkpt><trkpt lat="31.8201367" lon="-9.3318083"><ele>191.0</ele><time>2026-04-26T12:13:05.4Z</time></trkpt><trkpt lat="31.82025" lon="-9.3316283"><ele>191.0</ele><time>2026-04-26T12:13:06.4Z</time></trkpt><trkpt lat="31.8203483" lon="-9.33143"><ele>190.33333333333331</ele><time>2026-04-26T12:13:07.4Z</time></trkpt><trkpt lat="31.8204133" lon="-9.3312233"><ele>189.66666666666666</ele><time>2026-04-26T12:13:08.4Z</time></trkpt><trkpt lat="31.8204583" lon="-9.3310083"><ele>189.0</ele><time>2026-04-26T12:13:09.4Z</time></trkpt><trkpt lat="31.82048" lon="-9.3307983"><ele>189.0</ele><time>2026-04-26T12:13:10.4Z</time></trkpt><trkpt lat="31.8204767" lon="-9.3305883"><ele>189.0</ele><time>2026-04-26T12:13:11.4Z</time></trkpt><trkpt lat="31.8204533" lon="-9.3303733"><ele>189.0</ele><time>2026-04-26T12:13:12.4Z</time></trkpt><trkpt lat="31.820425" lon="-9.3301533"><ele>189.0</ele><time>2026-04-26T12:13:13.4Z</time></trkpt><trkpt lat="31.8203917" lon="-9.3299333"><ele>189.0</ele><time>2026-04-26T12:13:14.401Z</time></trkpt><trkpt lat="31.8203633" lon="-9.3297067"><ele>189.0</ele><time>2026-04-26T12:13:15.4Z</time></trkpt><trkpt lat="31.8203367" lon="-9.3294733"><ele>188.66666666666666</ele><time>2026-04-26T12:13:16.4Z</time></trkpt><trkpt lat="31.8203083" lon="-9.3292417"><ele>188.33333333333331</ele><time>2026-04-26T12:13:17.4Z</time></trkpt><trkpt lat="31.82028" lon="-9.3290033"><ele>188.0</ele><time>2026-04-26T12:13:18.4Z</time></trkpt><trkpt lat="31.8202533" lon="-9.32876"><ele>188.33333333333331</ele><time>2026-04-26T12:13:19.4Z</time></trkpt><trkpt lat="31.8202217" lon="-9.3285117"><ele>188.66666666666666</ele><time>2026-04-26T12:13:20.4Z</time></trkpt><trkpt lat="31.8201883" lon="-9.328255"><ele>189.0</ele><time>2026-04-26T12:13:21.4Z</time></trkpt><trkpt lat="31.820155" lon="-9.327995"><ele>190.0</ele><time>2026-04-26T12:13:22.4Z</time></trkpt><trkpt lat="31.8201183" lon="-9.32774"><ele>191.0</ele><time>2026-04-26T12:13:23.4Z</time></trkpt><trkpt lat="31.8200867" lon="-9.3274967"><ele>192.0</ele><time>2026-04-26T12:13:24.4Z</time></trkpt><trkpt lat="31.8200567" lon="-9.3272617"><ele>190.66666666666666</ele><time>2026-04-26T12:13:25.4Z</time></trkpt><trkpt lat="31.8200217" lon="-9.327025"><ele>189.33333333333331</ele><time>2026-04-26T12:13:26.4Z</time></trkpt><trkpt lat="31.8199767" lon="-9.3267783"><ele>188.0</ele><time>2026-04-26T12:13:27.4Z</time></trkpt><trkpt lat="31.819925" lon="-9.3265317"><ele>186.33333333333331</ele><time>2026-04-26T12:13:28.4Z</time></trkpt><trkpt lat="31.8198733" lon="-9.3262883"><ele>184.66666666666666</ele><time>2026-04-26T12:13:29.4Z</time></trkpt><trkpt lat="31.81982" lon="-9.3260533"><ele>183.0</ele><time>2026-04-26T12:13:30.4Z</time></trkpt><trkpt lat="31.819765" lon="-9.3258217"><ele>183.0</ele><time>2026-04-26T12:13:31.4Z</time></trkpt><trkpt lat="31.8197117" lon="-9.3256033"><ele>183.0</ele><time>2026-04-26T12:13:32.4Z</time></trkpt><trkpt lat="31.8196583" lon="-9.3253917"><ele>183.0</ele><time>2026-04-26T12:13:33.4Z</time></trkpt><trkpt lat="31.81961" lon="-9.3251767"><ele>184.0</ele><time>2026-04-26T12:13:34.4Z</time></trkpt><trkpt lat="31.8195567" lon="-9.324955"><ele>185.0</ele><time>2026-04-26T12:13:35.4Z</time></trkpt><trkpt lat="31.819505" lon="-9.32473"><ele>186.0</ele><time>2026-04-26T12:13:36.4Z</time></trkpt><trkpt lat="31.8194517" lon="-9.324505"><ele>186.33333333333334</ele><time>2026-04-26T12:13:37.4Z</time></trkpt><trkpt lat="31.8193967" lon="-9.3242783"><ele>186.66666666666669</ele><time>2026-04-26T12:13:38.4Z</time></trkpt><trkpt lat="31.81935" lon="-9.32405"><ele>187.0</ele><time>2026-04-26T12:13:39.4Z</time></trkpt><trkpt lat="31.8193117" lon="-9.323815"><ele>188.0</ele><time>2026-04-26T12:13:40.4Z</time></trkpt><trkpt lat="31.8192883" lon="-9.32357"><ele>189.0</ele><time>2026-04-26T12:13:41.4Z</time></trkpt><trkpt lat="31.819285" lon="-9.3233267"><ele>190.0</ele><time>2026-04-26T12:13:42.4Z</time></trkpt><trkpt lat="31.8192933" lon="-9.3230967"><ele>190.66666666666669</ele><time>2026-04-26T12:13:43.4Z</time></trkpt><trkpt lat="31.819315" lon="-9.3228733"><ele>191.33333333333334</ele><time>2026-04-26T12:13:44.4Z</time></trkpt><trkpt lat="31.8193533" lon="-9.32265"><ele>192.0</ele><time>2026-04-26T12:13:45.4Z</time></trkpt><trkpt lat="31.81941" lon="-9.3224333"><ele>193.33333333333331</ele><time>2026-04-26T12:13:46.4Z</time></trkpt><trkpt lat="31.8194767" lon="-9.322225"><ele>194.66666666666666</ele><time>2026-04-26T12:13:47.4Z</time></trkpt><trkpt lat="31.8195567" lon="-9.3220217"><ele>196.0</ele><time>2026-04-26T12:13:48.4Z</time></trkpt><trkpt lat="31.819645" lon="-9.32182"><ele>196.0</ele><time>2026-04-26T12:13:49.4Z</time></trkpt><trkpt lat="31.81974" lon="-9.321625"><ele>196.0</ele><time>2026-04-26T12:13:50.4Z</time></trkpt><trkpt lat="31.819845" lon="-9.3214333"><ele>196.0</ele><time>2026-04-26T12:13:51.4Z</time></trkpt><trkpt lat="31.8199667" lon="-9.3212533"><ele>195.66666666666666</ele><time>2026-04-26T12:13:52.4Z</time></trkpt><trkpt lat="31.8201017" lon="-9.3210817"><ele>195.33333333333331</ele><time>2026-04-26T12:13:53.4Z</time></trkpt><trkpt lat="31.8202483" lon="-9.320915"><ele>195.0</ele><time>2026-04-26T12:13:54.4Z</time></trkpt><trkpt lat="31.8204067" lon="-9.3207617"><ele>195.0</ele><time>2026-04-26T12:13:55.401Z</time></trkpt><trkpt lat="31.8205767" lon="-9.3206267"><ele>195.0</ele><time>2026-04-26T12:13:56.4Z</time></trkpt><trkpt lat="31.8207567" lon="-9.32051"><ele>195.0</ele><time>2026-04-26T12:13:57.4Z</time></trkpt><trkpt lat="31.820925" lon="-9.3204133"><ele>197.0</ele><time>2026-04-26T12:13:58.4Z</time></trkpt><trkpt lat="31.8210933" lon="-9.3203283"><ele>199.0</ele><time>2026-04-26T12:13:59.4Z</time></trkpt><trkpt lat="31.8212617" lon="-9.3202467"><ele>201.0</ele><time>2026-04-26T12:14:00.4Z</time></trkpt><trkpt lat="31.8214367" lon="-9.3201633"><ele>201.0</ele><time>2026-04-26T12:14:01.4Z</time></trkpt><trkpt lat="31.8216117" lon="-9.3200733"><ele>201.0</ele><time>2026-04-26T12:14:02.401Z</time></trkpt><trkpt lat="31.8217867" lon="-9.3199767"><ele>201.0</ele><time>2026-04-26T12:14:03.4Z</time></trkpt><trkpt lat="31.8219617" lon="-9.3198767"><ele>201.0</ele><time>2026-04-26T12:14:04.4Z</time></trkpt><trkpt lat="31.8221333" lon="-9.3197667"><ele>201.0</ele><time>2026-04-26T12:14:05.4Z</time></trkpt><trkpt lat="31.82231" lon="-9.3196533"><ele>201.0</ele><time>2026-04-26T12:14:06.401Z</time></trkpt><trkpt lat="31.8224883" lon="-9.3195367"><ele>200.33333333333331</ele><time>2026-04-26T12:14:07.4Z</time></trkpt><trkpt lat="31.822665" lon="-9.3194167"><ele>199.66666666666666</ele><time>2026-04-26T12:14:08.4Z</time></trkpt><trkpt lat="31.8228467" lon="-9.3192917"><ele>199.0</ele><time>2026-04-26T12:14:09.4Z</time></trkpt><trkpt lat="31.8230317" lon="-9.3191633"><ele>199.0</ele><time>2026-04-26T12:14:10.4Z</time></trkpt><trkpt lat="31.82322" lon="-9.31903"><ele>199.0</ele><time>2026-04-26T12:14:11.4Z</time></trkpt><trkpt lat="31.823395" lon="-9.3188967"><ele>199.0</ele><time>2026-04-26T12:14:12.401Z</time></trkpt><trkpt lat="31.8235683" lon="-9.31877"><ele>199.0</ele><time>2026-04-26T12:14:13.4Z</time></trkpt><trkpt lat="31.823735" lon="-9.318645"><ele>199.0</ele><time>2026-04-26T12:14:14.4Z</time></trkpt><trkpt lat="31.8239" lon="-9.3185183"><ele>199.0</ele><time>2026-04-26T12:14:15.4Z</time></trkpt><trkpt lat="31.8240667" lon="-9.3184"><ele>199.0</ele><time>2026-04-26T12:14:16.399Z</time></trkpt><trkpt lat="31.8242233" lon="-9.3182817"><ele>199.0</ele><time>2026-04-26T12:14:17.399Z</time></trkpt><trkpt lat="31.8243733" lon="-9.3181467"><ele>199.0</ele><time>2026-04-26T12:14:18.399Z</time></trkpt><trkpt lat="31.824515" lon="-9.317985"><ele>199.33333333333331</ele><time>2026-04-26T12:14:19.399Z</time></trkpt><trkpt lat="31.8246433" lon="-9.3178033"><ele>199.66666666666669</ele><time>2026-04-26T12:14:20.399Z</time></trkpt><trkpt lat="31.8247667" lon="-9.317615"><ele>200.0</ele><time>2026-04-26T12:14:21.399Z</time></trkpt><trkpt lat="31.8248817" lon="-9.317415"><ele>201.33333333333334</ele><time>2026-04-26T12:14:22.399Z</time></trkpt><trkpt lat="31.8249883" lon="-9.3172033"><ele>202.66666666666669</ele><time>2026-04-26T12:14:23.399Z</time></trkpt><trkpt lat="31.8250817" lon="-9.3169833"><ele>204.0</ele><time>2026-04-26T12:14:24.399Z</time></trkpt><trkpt lat="31.8251483" lon="-9.316735"><ele>201.0</ele><time>2026-04-26T12:14:25.399Z</time></trkpt><trkpt lat="31.8252083" lon="-9.316475"><ele>198.0</ele><time>2026-04-26T12:14:26.399Z</time></trkpt><trkpt lat="31.8252483" lon="-9.31622"><ele>195.0</ele><time>2026-04-26T12:14:27.399Z</time></trkpt><trkpt lat="31.82528" lon="-9.315975"><ele>192.33333333333334</ele><time>2026-04-26T12:14:28.399Z</time></trkpt><trkpt lat="31.82528" lon="-9.3157283"><ele>189.66666666666669</ele><time>2026-04-26T12:14:29.399Z</time></trkpt><trkpt lat="31.825265" lon="-9.3154867"><ele>187.0</ele><time>2026-04-26T12:14:30.399Z</time></trkpt><trkpt lat="31.8252383" lon="-9.3152383"><ele>183.0</ele><time>2026-04-26T12:14:31.399Z</time></trkpt><trkpt lat="31.8252117" lon="-9.31498"><ele>179.0</ele><time>2026-04-26T12:14:32.399Z</time></trkpt><trkpt lat="31.8251867" lon="-9.314725"><ele>175.0</ele><time>2026-04-26T12:14:33.399Z</time></trkpt><trkpt lat="31.8251683" lon="-9.314475"><ele>174.66666666666669</ele><time>2026-04-26T12:14:34.399Z</time></trkpt><trkpt lat="31.8251483" lon="-9.3142333"><ele>174.33333333333334</ele><time>2026-04-26T12:14:35.399Z</time></trkpt><trkpt lat="31.8251233" lon="-9.3139933"><ele>174.0</ele><time>2026-04-26T12:14:36.399Z</time></trkpt><trkpt lat="31.8251033" lon="-9.3137583"><ele>176.0</ele><time>2026-04-26T12:14:37.399Z</time></trkpt><trkpt lat="31.8250783" lon="-9.313525"><ele>178.0</ele><time>2026-04-26T12:14:38.399Z</time></trkpt><trkpt lat="31.8250533" lon="-9.3132833"><ele>180.0</ele><time>2026-04-26T12:14:39.399Z</time></trkpt><trkpt lat="31.82503" lon="-9.31304"><ele>180.0</ele><time>2026-04-26T12:14:40.399Z</time></trkpt><trkpt lat="31.8250117" lon="-9.3128017"><ele>180.0</ele><time>2026-04-26T12:14:41.399Z</time></trkpt><trkpt lat="31.8249933" lon="-9.3125683"><ele>180.0</ele><time>2026-04-26T12:14:42.399Z</time></trkpt><trkpt lat="31.82497" lon="-9.3123417"><ele>177.66666666666666</ele><time>2026-04-26T12:14:43.399Z</time></trkpt><trkpt lat="31.8249433" lon="-9.3121217"><ele>175.33333333333331</ele><time>2026-04-26T12:14:44.399Z</time></trkpt><trkpt lat="31.824935" lon="-9.311905"><ele>173.0</ele><time>2026-04-26T12:14:45.399Z</time></trkpt><trkpt lat="31.8249433" lon="-9.3116783"><ele>173.0</ele><time>2026-04-26T12:14:46.399Z</time></trkpt><trkpt lat="31.8249783" lon="-9.31145"><ele>173.0</ele><time>2026-04-26T12:14:47.399Z</time></trkpt><trkpt lat="31.8250417" lon="-9.31123"><ele>173.0</ele><time>2026-04-26T12:14:48.399Z</time></trkpt><trkpt lat="31.8251317" lon="-9.3110167"><ele>169.33333333333331</ele><time>2026-04-26T12:14:49.399Z</time></trkpt><trkpt lat="31.8252383" lon="-9.31079"><ele>165.66666666666666</ele><time>2026-04-26T12:14:50.399Z</time></trkpt><trkpt lat="31.82534" lon="-9.3105683"><ele>162.0</ele><time>2026-04-26T12:14:51.399Z</time></trkpt><trkpt lat="31.8254233" lon="-9.310345"><ele>162.0</ele><time>2026-04-26T12:14:52.399Z</time></trkpt><trkpt lat="31.8254933" lon="-9.3101217"><ele>162.0</ele><time>2026-04-26T12:14:53.399Z</time></trkpt><trkpt lat="31.825545" lon="-9.309895"><ele>162.0</ele><time>2026-04-26T12:14:54.399Z</time></trkpt><trkpt lat="31.8255867" lon="-9.3096667"><ele>161.33333333333334</ele><time>2026-04-26T12:14:55.399Z</time></trkpt><trkpt lat="31.8256167" lon="-9.3094367"><ele>160.66666666666669</ele><time>2026-04-26T12:14:56.399Z</time></trkpt><trkpt lat="31.8256417" lon="-9.3092117"><ele>160.0</ele><time>2026-04-26T12:14:57.399Z</time></trkpt><trkpt lat="31.82568" lon="-9.3089933"><ele>158.33333333333334</ele><time>2026-04-26T12:14:58.399Z</time></trkpt><trkpt lat="31.8257283" lon="-9.3087833"><ele>156.66666666666666</ele><time>2026-04-26T12:14:59.4Z</time></trkpt><trkpt lat="31.825795" lon="-9.3085833"><ele>155.0</ele><time>2026-04-26T12:15:00.399Z</time></trkpt><trkpt lat="31.8258717" lon="-9.308395"><ele>155.0</ele><time>2026-04-26T12:15:01.399Z</time></trkpt><trkpt lat="31.8259617" lon="-9.3082183"><ele>155.0</ele><time>2026-04-26T12:15:02.399Z</time></trkpt><trkpt lat="31.82606" lon="-9.3080433"><ele>155.0</ele><time>2026-04-26T12:15:03.399Z</time></trkpt><trkpt lat="31.8261667" lon="-9.3078683"><ele>155.33333333333331</ele><time>2026-04-26T12:15:04.399Z</time></trkpt><trkpt lat="31.8262833" lon="-9.3076983"><ele>155.66666666666666</ele><time>2026-04-26T12:15:05.399Z</time></trkpt><trkpt lat="31.8264067" lon="-9.3075367"><ele>156.0</ele><time>2026-04-26T12:15:06.399Z</time></trkpt><trkpt lat="31.8265383" lon="-9.3073983"><ele>156.0</ele><time>2026-04-26T12:15:07.399Z</time></trkpt><trkpt lat="31.8266767" lon="-9.307275"><ele>156.0</ele><time>2026-04-26T12:15:08.399Z</time></trkpt><trkpt lat="31.82683" lon="-9.3071667"><ele>156.0</ele><time>2026-04-26T12:15:09.399Z</time></trkpt><trkpt lat="31.8269983" lon="-9.3070867"><ele>158.0</ele><time>2026-04-26T12:15:10.399Z</time></trkpt><trkpt lat="31.8271717" lon="-9.307025"><ele>160.0</ele><time>2026-04-26T12:15:11.399Z</time></trkpt><trkpt lat="31.8273583" lon="-9.3069767"><ele>162.0</ele><time>2026-04-26T12:15:12.399Z</time></trkpt><trkpt lat="31.82755" lon="-9.3069383"><ele>162.33333333333334</ele><time>2026-04-26T12:15:13.399Z</time></trkpt><trkpt lat="31.8277483" lon="-9.306905"><ele>162.66666666666669</ele><time>2026-04-26T12:15:14.399Z</time></trkpt><trkpt lat="31.8279517" lon="-9.306875"><ele>163.0</ele><time>2026-04-26T12:15:15.399Z</time></trkpt><trkpt lat="31.828155" lon="-9.3068467"><ele>163.0</ele><time>2026-04-26T12:15:16.399Z</time></trkpt><trkpt lat="31.8283633" lon="-9.306815"><ele>163.0</ele><time>2026-04-26T12:15:17.399Z</time></trkpt><trkpt lat="31.8285717" lon="-9.3067783"><ele>163.0</ele><time>2026-04-26T12:15:18.399Z</time></trkpt><trkpt lat="31.82877" lon="-9.3067267"><ele>164.0</ele><time>2026-04-26T12:15:19.399Z</time></trkpt><trkpt lat="31.82896" lon="-9.306665"><ele>165.0</ele><time>2026-04-26T12:15:20.399Z</time></trkpt><trkpt lat="31.8291433" lon="-9.30659"><ele>166.0</ele><time>2026-04-26T12:15:21.399Z</time></trkpt><trkpt lat="31.8293317" lon="-9.306505"><ele>166.0</ele><time>2026-04-26T12:15:22.399Z</time></trkpt><trkpt lat="31.829525" lon="-9.3064117"><ele>166.0</ele><time>2026-04-26T12:15:23.399Z</time></trkpt><trkpt lat="31.8297233" lon="-9.3063267"><ele>166.0</ele><time>2026-04-26T12:15:24.399Z</time></trkpt><trkpt lat="31.82992" lon="-9.306245"><ele>168.0</ele><time>2026-04-26T12:15:25.399Z</time></trkpt><trkpt lat="31.8301083" lon="-9.3061667"><ele>170.0</ele><time>2026-04-26T12:15:26.399Z</time></trkpt><trkpt lat="31.830285" lon="-9.3060867"><ele>172.0</ele><time>2026-04-26T12:15:27.399Z</time></trkpt><trkpt lat="31.8304583" lon="-9.3060083"><ele>172.0</ele><time>2026-04-26T12:15:28.399Z</time></trkpt><trkpt lat="31.8306383" lon="-9.3059333"><ele>172.0</ele><time>2026-04-26T12:15:29.399Z</time></trkpt><trkpt lat="31.83082" lon="-9.3058617"><ele>172.0</ele><time>2026-04-26T12:15:30.399Z</time></trkpt><trkpt lat="31.8310067" lon="-9.305805"><ele>172.33333333333334</ele><time>2026-04-26T12:15:31.399Z</time></trkpt><trkpt lat="31.8312017" lon="-9.30575"><ele>172.66666666666666</ele><time>2026-04-26T12:15:32.399Z</time></trkpt><trkpt lat="31.8313983" lon="-9.3057"><ele>173.0</ele><time>2026-04-26T12:15:33.399Z</time></trkpt><trkpt lat="31.8316067" lon="-9.3056667"><ele>174.66666666666666</ele><time>2026-04-26T12:15:34.399Z</time></trkpt><trkpt lat="31.8318117" lon="-9.3056483"><ele>176.33333333333334</ele><time>2026-04-26T12:15:35.399Z</time></trkpt><trkpt lat="31.8320267" lon="-9.3056417"><ele>178.0</ele><time>2026-04-26T12:15:36.399Z</time></trkpt><trkpt lat="31.83224" lon="-9.3056517"><ele>178.0</ele><time>2026-04-26T12:15:37.399Z</time></trkpt><trkpt lat="31.8324433" lon="-9.305675"><ele>178.0</ele><time>2026-04-26T12:15:38.399Z</time></trkpt><trkpt lat="31.8326317" lon="-9.3056983"><ele>178.0</ele><time>2026-04-26T12:15:39.399Z</time></trkpt><trkpt lat="31.8328167" lon="-9.3057383"><ele>178.0</ele><time>2026-04-26T12:15:40.399Z</time></trkpt><trkpt lat="31.833" lon="-9.3057717"><ele>178.0</ele><time>2026-04-26T12:15:41.399Z</time></trkpt><trkpt lat="31.8331817" lon="-9.3058067"><ele>178.0</ele><time>2026-04-26T12:15:42.399Z</time></trkpt><trkpt lat="31.8333683" lon="-9.30584"><ele>177.33333333333334</ele><time>2026-04-26T12:15:43.399Z</time></trkpt><trkpt lat="31.83356" lon="-9.3058683"><ele>176.66666666666666</ele><time>2026-04-26T12:15:44.399Z</time></trkpt><trkpt lat="31.8337583" lon="-9.3058917"><ele>176.0</ele><time>2026-04-26T12:15:45.399Z</time></trkpt><trkpt lat="31.8339633" lon="-9.3059133"><ele>176.0</ele><time>2026-04-26T12:15:46.399Z</time></trkpt><trkpt lat="31.8341767" lon="-9.3059367"><ele>176.0</ele><time>2026-04-26T12:15:47.399Z</time></trkpt><trkpt lat="31.8344017" lon="-9.30596"><ele>176.0</ele><time>2026-04-26T12:15:48.4Z</time></trkpt><trkpt lat="31.8346283" lon="-9.3059917"><ele>173.0</ele><time>2026-04-26T12:15:49.399Z</time></trkpt><trkpt lat="31.8348617" lon="-9.3060233"><ele>170.0</ele><time>2026-04-26T12:15:50.399Z</time></trkpt><trkpt lat="31.8351" lon="-9.3060717"><ele>168.0</ele><time>2026-04-26T12:15:51.399Z</time></trkpt><trkpt lat="31.8353367" lon="-9.3061383"><ele>166.0</ele><time>2026-04-26T12:15:52.399Z</time></trkpt><trkpt lat="31.835565" lon="-9.30621"><ele>166.0</ele><time>2026-04-26T12:15:53.4Z</time></trkpt><trkpt lat="31.8357767" lon="-9.30629"><ele>166.0</ele><time>2026-04-26T12:15:54.399Z</time></trkpt><trkpt lat="31.8359767" lon="-9.3063717"><ele>166.0</ele><time>2026-04-26T12:15:55.399Z</time></trkpt><trkpt lat="31.8361717" lon="-9.3064567"><ele>164.66666666666669</ele><time>2026-04-26T12:15:56.399Z</time></trkpt><trkpt lat="31.8363617" lon="-9.3065367"><ele>163.33333333333334</ele><time>2026-04-26T12:15:57.399Z</time></trkpt><trkpt lat="31.836555" lon="-9.30662"><ele>162.0</ele><time>2026-04-26T12:15:58.399Z</time></trkpt><trkpt lat="31.83676" lon="-9.3067083"><ele>160.0</ele><time>2026-04-26T12:15:59.399Z</time></trkpt><trkpt lat="31.8369783" lon="-9.3068017"><ele>158.0</ele><time>2026-04-26T12:16:00.399Z</time></trkpt><trkpt lat="31.837205" lon="-9.3068983"><ele>158.0</ele><time>2026-04-26T12:16:01.399Z</time></trkpt><trkpt lat="31.837425" lon="-9.3069933"><ele>158.0</ele><time>2026-04-26T12:16:02.399Z</time></trkpt><trkpt lat="31.837635" lon="-9.3070833"><ele>157.66666666666666</ele><time>2026-04-26T12:16:03.399Z</time></trkpt><trkpt lat="31.837835" lon="-9.30717"><ele>157.33333333333334</ele><time>2026-04-26T12:16:04.399Z</time></trkpt><trkpt lat="31.8380267" lon="-9.3072467"><ele>157.0</ele><time>2026-04-26T12:16:05.399Z</time></trkpt><trkpt lat="31.838215" lon="-9.3073283"><ele>157.0</ele><time>2026-04-26T12:16:06.399Z</time></trkpt><trkpt lat="31.8384083" lon="-9.3074133"><ele>157.0</ele><time>2026-04-26T12:16:07.399Z</time></trkpt><trkpt lat="31.8386033" lon="-9.307495"><ele>157.0</ele><time>2026-04-26T12:16:08.399Z</time></trkpt><trkpt lat="31.83881" lon="-9.307575"><ele>157.0</ele><time>2026-04-26T12:16:09.399Z</time></trkpt><trkpt lat="31.83902" lon="-9.3076617"><ele>157.0</ele><time>2026-04-26T12:16:10.399Z</time></trkpt><trkpt lat="31.8392317" lon="-9.30775"><ele>157.0</ele><time>2026-04-26T12:16:11.399Z</time></trkpt><trkpt lat="31.8394417" lon="-9.30784"><ele>157.33333333333334</ele><time>2026-04-26T12:16:12.399Z</time></trkpt><trkpt lat="31.8396483" lon="-9.3079283"><ele>157.66666666666666</ele><time>2026-04-26T12:16:13.4Z</time></trkpt><trkpt lat="31.83984" lon="-9.30801"><ele>158.0</ele><time>2026-04-26T12:16:14.399Z</time></trkpt><trkpt lat="31.8400383" lon="-9.3080817"><ele>159.33333333333331</ele><time>2026-04-26T12:16:15.399Z</time></trkpt><trkpt lat="31.8402417" lon="-9.3081517"><ele>160.66666666666666</ele><time>2026-04-26T12:16:16.399Z</time></trkpt><trkpt lat="31.8404483" lon="-9.30821"><ele>162.0</ele><time>2026-04-26T12:16:17.399Z</time></trkpt><trkpt lat="31.84066" lon="-9.308265"><ele>162.0</ele><time>2026-04-26T12:16:18.399Z</time></trkpt><trkpt lat="31.8408717" lon="-9.3083183"><ele>162.0</ele><time>2026-04-26T12:16:19.399Z</time></trkpt><trkpt lat="31.8410867" lon="-9.3083633"><ele>162.0</ele><time>2026-04-26T12:16:20.399Z</time></trkpt><trkpt lat="31.84129" lon="-9.3084033"><ele>163.33333333333334</ele><time>2026-04-26T12:16:21.399Z</time></trkpt><trkpt lat="31.84149" lon="-9.3084367"><ele>164.66666666666669</ele><time>2026-04-26T12:16:22.399Z</time></trkpt><trkpt lat="31.8416867" lon="-9.3084617"><ele>166.0</ele><time>2026-04-26T12:16:23.399Z</time></trkpt><trkpt lat="31.8418883" lon="-9.30847"><ele>167.0</ele><time>2026-04-26T12:16:24.399Z</time></trkpt><trkpt lat="31.8420883" lon="-9.3084633"><ele>168.0</ele><time>2026-04-26T12:16:25.399Z</time></trkpt><trkpt lat="31.84229" lon="-9.308425"><ele>169.0</ele><time>2026-04-26T12:16:26.399Z</time></trkpt><trkpt lat="31.84249" lon="-9.3083633"><ele>168.66666666666669</ele><time>2026-04-26T12:16:27.399Z</time></trkpt><trkpt lat="31.84268" lon="-9.3082833"><ele>168.33333333333334</ele><time>2026-04-26T12:16:28.399Z</time></trkpt><trkpt lat="31.8428583" lon="-9.3081933"><ele>168.0</ele><time>2026-04-26T12:16:29.399Z</time></trkpt><trkpt lat="31.8430333" lon="-9.3080933"><ele>168.33333333333334</ele><time>2026-04-26T12:16:30.399Z</time></trkpt><trkpt lat="31.84321" lon="-9.307975"><ele>168.66666666666669</ele><time>2026-04-26T12:16:31.399Z</time></trkpt><trkpt lat="31.8433917" lon="-9.3078633"><ele>169.0</ele><time>2026-04-26T12:16:32.399Z</time></trkpt><trkpt lat="31.843585" lon="-9.3077667"><ele>169.0</ele><time>2026-04-26T12:16:33.399Z</time></trkpt><trkpt lat="31.8437883" lon="-9.3077"><ele>169.0</ele><time>2026-04-26T12:16:34.399Z</time></trkpt><trkpt lat="31.843995" lon="-9.3076533"><ele>169.0</ele><time>2026-04-26T12:16:35.399Z</time></trkpt><trkpt lat="31.8441983" lon="-9.3076433"><ele>171.0</ele><time>2026-04-26T12:16:36.399Z</time></trkpt><trkpt lat="31.844395" lon="-9.3076517"><ele>173.0</ele><time>2026-04-26T12:16:37.399Z</time></trkpt><trkpt lat="31.8445767" lon="-9.307685"><ele>175.0</ele><time>2026-04-26T12:16:38.399Z</time></trkpt><trkpt lat="31.84476" lon="-9.307725"><ele>175.0</ele><time>2026-04-26T12:16:39.399Z</time></trkpt><trkpt lat="31.844945" lon="-9.307765"><ele>175.0</ele><time>2026-04-26T12:16:40.399Z</time></trkpt><trkpt lat="31.845125" lon="-9.3077967"><ele>175.0</ele><time>2026-04-26T12:16:41.399Z</time></trkpt><trkpt lat="31.845315" lon="-9.3077917"><ele>176.66666666666669</ele><time>2026-04-26T12:16:42.399Z</time></trkpt><trkpt lat="31.8455033" lon="-9.307745"><ele>178.33333333333334</ele><time>2026-04-26T12:16:43.399Z</time></trkpt><trkpt lat="31.84568" lon="-9.30767"><ele>180.0</ele><time>2026-04-26T12:16:44.399Z</time></trkpt><trkpt lat="31.8458417" lon="-9.307575"><ele>180.66666666666666</ele><time>2026-04-26T12:16:45.399Z</time></trkpt><trkpt lat="31.845985" lon="-9.3074633"><ele>181.33333333333331</ele><time>2026-04-26T12:16:46.399Z</time></trkpt><trkpt lat="31.8461233" lon="-9.30734"><ele>182.0</ele><time>2026-04-26T12:16:47.399Z</time></trkpt><trkpt lat="31.8462517" lon="-9.3071867"><ele>182.0</ele><time>2026-04-26T12:16:48.399Z</time></trkpt><trkpt lat="31.846375" lon="-9.3070283"><ele>182.0</ele><time>2026-04-26T12:16:49.399Z</time></trkpt><trkpt lat="31.8465" lon="-9.306865"><ele>182.0</ele><time>2026-04-26T12:16:50.399Z</time></trkpt><trkpt lat="31.8466333" lon="-9.306705"><ele>182.0</ele><time>2026-04-26T12:16:51.399Z</time></trkpt><trkpt lat="31.846775" lon="-9.306545"><ele>182.0</ele><time>2026-04-26T12:16:52.399Z</time></trkpt><trkpt lat="31.8469183" lon="-9.306405"><ele>182.0</ele><time>2026-04-26T12:16:53.399Z</time></trkpt><trkpt lat="31.847065" lon="-9.3063033"><ele>185.0</ele><time>2026-04-26T12:16:54.399Z</time></trkpt><trkpt lat="31.8472133" lon="-9.3062317"><ele>188.0</ele><time>2026-04-26T12:16:55.399Z</time></trkpt><trkpt lat="31.8473617" lon="-9.3061667"><ele>191.0</ele><time>2026-04-26T12:16:56.399Z</time></trkpt><trkpt lat="31.8475083" lon="-9.3061017"><ele>188.66666666666666</ele><time>2026-04-26T12:16:57.399Z</time></trkpt><trkpt lat="31.847655" lon="-9.3060233"><ele>186.33333333333334</ele><time>2026-04-26T12:16:58.399Z</time></trkpt><trkpt lat="31.8478" lon="-9.3059283"><ele>184.0</ele><time>2026-04-26T12:16:59.399Z</time></trkpt><trkpt lat="31.8479317" lon="-9.305825"><ele>184.0</ele><time>2026-04-26T12:17:00.399Z</time></trkpt><trkpt lat="31.8480517" lon="-9.3057117"><ele>184.0</ele><time>2026-04-26T12:17:01.399Z</time></trkpt><trkpt lat="31.8481567" lon="-9.3055917"><ele>184.0</ele><time>2026-04-26T12:17:02.399Z</time></trkpt><trkpt lat="31.8482517" lon="-9.3054633"><ele>184.0</ele><time>2026-04-26T12:17:03.399Z</time></trkpt><trkpt lat="31.8483533" lon="-9.30533"><ele>181.66666666666669</ele><time>2026-04-26T12:17:04.399Z</time></trkpt><trkpt lat="31.8484717" lon="-9.3051883"><ele>179.33333333333334</ele><time>2026-04-26T12:17:05.399Z</time></trkpt><trkpt lat="31.848605" lon="-9.3050467"><ele>177.0</ele><time>2026-04-26T12:17:06.399Z</time></trkpt><trkpt lat="31.8487583" lon="-9.3049083"><ele>177.0</ele><time>2026-04-26T12:17:07.399Z</time></trkpt><trkpt lat="31.84893" lon="-9.3047833"><ele>177.0</ele><time>2026-04-26T12:17:08.399Z</time></trkpt><trkpt lat="31.849125" lon="-9.3046817"><ele>177.0</ele><time>2026-04-26T12:17:09.399Z</time></trkpt><trkpt lat="31.8493167" lon="-9.3046083"><ele>180.66666666666666</ele><time>2026-04-26T12:17:10.399Z</time></trkpt><trkpt lat="31.8495083" lon="-9.3045533"><ele>184.33333333333331</ele><time>2026-04-26T12:17:11.399Z</time></trkpt><trkpt lat="31.8496933" lon="-9.3045117"><ele>188.0</ele><time>2026-04-26T12:17:12.399Z</time></trkpt><trkpt lat="31.8498833" lon="-9.3044617"><ele>188.0</ele><time>2026-04-26T12:17:13.399Z</time></trkpt><trkpt lat="31.8500767" lon="-9.304405"><ele>188.0</ele><time>2026-04-26T12:17:14.399Z</time></trkpt><trkpt lat="31.8502633" lon="-9.3043383"><ele>188.0</ele><time>2026-04-26T12:17:15.399Z</time></trkpt><trkpt lat="31.8504283" lon="-9.3042517"><ele>185.66666666666666</ele><time>2026-04-26T12:17:16.399Z</time></trkpt><trkpt lat="31.8505783" lon="-9.304135"><ele>183.33333333333334</ele><time>2026-04-26T12:17:17.399Z</time></trkpt><trkpt lat="31.8507117" lon="-9.3039833"><ele>181.0</ele><time>2026-04-26T12:17:18.399Z</time></trkpt><trkpt lat="31.8508283" lon="-9.3038167"><ele>181.0</ele><time>2026-04-26T12:17:19.399Z</time></trkpt><trkpt lat="31.8509317" lon="-9.30364"><ele>181.0</ele><time>2026-04-26T12:17:20.4Z</time></trkpt><trkpt lat="31.8510167" lon="-9.303445"><ele>181.0</ele><time>2026-04-26T12:17:21.399Z</time></trkpt><trkpt lat="31.8510883" lon="-9.303235"><ele>178.0</ele><time>2026-04-26T12:17:22.399Z</time></trkpt><trkpt lat="31.8511517" lon="-9.3030083"><ele>175.0</ele><time>2026-04-26T12:17:23.399Z</time></trkpt><trkpt lat="31.8512133" lon="-9.302785"><ele>172.0</ele><time>2026-04-26T12:17:24.4Z</time></trkpt><trkpt lat="31.8512783" lon="-9.302575"><ele>172.0</ele><time>2026-04-26T12:17:25.399Z</time></trkpt><trkpt lat="31.8513667" lon="-9.3023833"><ele>172.0</ele><time>2026-04-26T12:17:26.399Z</time></trkpt><trkpt lat="31.851465" lon="-9.3022167"><ele>172.0</ele><time>2026-04-26T12:17:27.399Z</time></trkpt><trkpt lat="31.85158" lon="-9.30206"><ele>172.33333333333334</ele><time>2026-04-26T12:17:28.4Z</time></trkpt><trkpt lat="31.851715" lon="-9.3019183"><ele>172.66666666666666</ele><time>2026-04-26T12:17:29.399Z</time></trkpt><trkpt lat="31.8518583" lon="-9.301785"><ele>173.0</ele><time>2026-04-26T12:17:30.399Z</time></trkpt><trkpt lat="31.8519933" lon="-9.3016517"><ele>169.66666666666666</ele><time>2026-04-26T12:17:31.399Z</time></trkpt><trkpt lat="31.8521233" lon="-9.3015067"><ele>166.33333333333334</ele><time>2026-04-26T12:17:32.399Z</time></trkpt><trkpt lat="31.8522367" lon="-9.3013333"><ele>163.0</ele><time>2026-04-26T12:17:33.399Z</time></trkpt><trkpt lat="31.8523383" lon="-9.30116"><ele>163.0</ele><time>2026-04-26T12:17:34.399Z</time></trkpt><trkpt lat="31.852425" lon="-9.30099"><ele>163.0</ele><time>2026-04-26T12:17:35.399Z</time></trkpt><trkpt lat="31.8525117" lon="-9.3008233"><ele>163.0</ele><time>2026-04-26T12:17:36.4Z</time></trkpt><trkpt lat="31.8526117" lon="-9.3006517"><ele>161.66666666666669</ele><time>2026-04-26T12:17:37.399Z</time></trkpt><trkpt lat="31.85272" lon="-9.30049"><ele>160.33333333333334</ele><time>2026-04-26T12:17:38.399Z</time></trkpt><trkpt lat="31.8528633" lon="-9.300345"><ele>159.0</ele><time>2026-04-26T12:17:39.399Z</time></trkpt><trkpt lat="31.8530283" lon="-9.300235"><ele>159.0</ele><time>2026-04-26T12:17:40.399Z</time></trkpt><trkpt lat="31.8532" lon="-9.3001483"><ele>159.0</ele><time>2026-04-26T12:17:41.399Z</time></trkpt><trkpt lat="31.8533767" lon="-9.300085"><ele>159.0</ele><time>2026-04-26T12:17:42.399Z</time></trkpt><trkpt lat="31.853565" lon="-9.30004"><ele>156.0</ele><time>2026-04-26T12:17:43.399Z</time></trkpt><trkpt lat="31.8537683" lon="-9.3000067"><ele>153.0</ele><time>2026-04-26T12:17:44.399Z</time></trkpt><trkpt lat="31.8539717" lon="-9.2999967"><ele>150.0</ele><time>2026-04-26T12:17:45.399Z</time></trkpt><trkpt lat="31.854175" lon="-9.29998"><ele>148.0</ele><time>2026-04-26T12:17:46.399Z</time></trkpt><trkpt lat="31.854375" lon="-9.2999417"><ele>146.0</ele><time>2026-04-26T12:17:47.399Z</time></trkpt><trkpt lat="31.8545767" lon="-9.2998783"><ele>144.0</ele><time>2026-04-26T12:17:48.399Z</time></trkpt><trkpt lat="31.8547733" lon="-9.2997917"><ele>145.66666666666666</ele><time>2026-04-26T12:17:49.399Z</time></trkpt><trkpt lat="31.854965" lon="-9.29968"><ele>147.33333333333331</ele><time>2026-04-26T12:17:50.399Z</time></trkpt><trkpt lat="31.85514" lon="-9.2995567"><ele>149.0</ele><time>2026-04-26T12:17:51.399Z</time></trkpt><trkpt lat="31.8553017" lon="-9.2994133"><ele>146.33333333333331</ele><time>2026-04-26T12:17:52.399Z</time></trkpt><trkpt lat="31.855445" lon="-9.2992267"><ele>143.66666666666666</ele><time>2026-04-26T12:17:53.399Z</time></trkpt><trkpt lat="31.8555767" lon="-9.2990183"><ele>141.0</ele><time>2026-04-26T12:17:54.4Z</time></trkpt><trkpt lat="31.8556967" lon="-9.2988067"><ele>141.0</ele><time>2026-04-26T12:17:55.399Z</time></trkpt><trkpt lat="31.8558083" lon="-9.2985933"><ele>141.0</ele><time>2026-04-26T12:17:56.399Z</time></trkpt><trkpt lat="31.8559133" lon="-9.2983833"><ele>141.0</ele><time>2026-04-26T12:17:57.399Z</time></trkpt><trkpt lat="31.8560067" lon="-9.298175"><ele>138.66666666666666</ele><time>2026-04-26T12:17:58.399Z</time></trkpt><trkpt lat="31.8560883" lon="-9.2979633"><ele>136.33333333333331</ele><time>2026-04-26T12:17:59.399Z</time></trkpt><trkpt lat="31.8561633" lon="-9.29775"><ele>134.0</ele><time>2026-04-26T12:18:00.399Z</time></trkpt><trkpt lat="31.856235" lon="-9.297545"><ele>134.0</ele><time>2026-04-26T12:18:01.399Z</time></trkpt><trkpt lat="31.8563133" lon="-9.297355"><ele>134.0</ele><time>2026-04-26T12:18:02.399Z</time></trkpt><trkpt lat="31.856405" lon="-9.2971783"><ele>134.0</ele><time>2026-04-26T12:18:03.399Z</time></trkpt><trkpt lat="31.8565167" lon="-9.2970133"><ele>133.0</ele><time>2026-04-26T12:18:04.399Z</time></trkpt><trkpt lat="31.8566433" lon="-9.296855"><ele>132.0</ele><time>2026-04-26T12:18:05.399Z</time></trkpt><trkpt lat="31.85679" lon="-9.296705"><ele>131.0</ele><time>2026-04-26T12:18:06.399Z</time></trkpt><trkpt lat="31.8569517" lon="-9.296555"><ele>128.0</ele><time>2026-04-26T12:18:07.399Z</time></trkpt><trkpt lat="31.857125" lon="-9.2964083"><ele>125.0</ele><time>2026-04-26T12:18:08.399Z</time></trkpt><trkpt lat="31.857295" lon="-9.29626"><ele>122.0</ele><time>2026-04-26T12:18:09.399Z</time></trkpt><trkpt lat="31.8574583" lon="-9.296115"><ele>122.0</ele><time>2026-04-26T12:18:10.399Z</time></trkpt><trkpt lat="31.8576133" lon="-9.2959683"><ele>122.0</ele><time>2026-04-26T12:18:11.399Z</time></trkpt><trkpt lat="31.8577633" lon="-9.2957917"><ele>122.0</ele><time>2026-04-26T12:18:12.399Z</time></trkpt><trkpt lat="31.857905" lon="-9.2956017"><ele>120.0</ele><time>2026-04-26T12:18:13.399Z</time></trkpt><trkpt lat="31.8580317" lon="-9.2954133"><ele>118.0</ele><time>2026-04-26T12:18:14.399Z</time></trkpt><trkpt lat="31.85815" lon="-9.2952167"><ele>116.0</ele><time>2026-04-26T12:18:15.399Z</time></trkpt><trkpt lat="31.8582583" lon="-9.2950233"><ele>116.0</ele><time>2026-04-26T12:18:16.4Z</time></trkpt><trkpt lat="31.858365" lon="-9.2948217"><ele>116.0</ele><time>2026-04-26T12:18:17.399Z</time></trkpt><trkpt lat="31.8584767" lon="-9.2946117"><ele>116.0</ele><time>2026-04-26T12:18:18.399Z</time></trkpt><trkpt lat="31.8585967" lon="-9.294405"><ele>115.33333333333333</ele><time>2026-04-26T12:18:19.399Z</time></trkpt><trkpt lat="31.8587167" lon="-9.294195"><ele>114.66666666666666</ele><time>2026-04-26T12:18:20.399Z</time></trkpt><trkpt lat="31.8588433" lon="-9.2939767"><ele>114.0</ele><time>2026-04-26T12:18:21.399Z</time></trkpt><trkpt lat="31.858985" lon="-9.2937667"><ele>113.5</ele><time>2026-04-26T12:18:22.399Z</time></trkpt><trkpt lat="31.8591367" lon="-9.2935667"><ele>113.0</ele><time>2026-04-26T12:18:23.399Z</time></trkpt><trkpt lat="31.8592967" lon="-9.2933767"><ele>112.5</ele><time>2026-04-26T12:18:24.399Z</time></trkpt><trkpt lat="31.8594633" lon="-9.29319"><ele>112.0</ele><time>2026-04-26T12:18:25.399Z</time></trkpt><trkpt lat="31.859635" lon="-9.2930117"><ele>112.0</ele><time>2026-04-26T12:18:26.399Z</time></trkpt><trkpt lat="31.8598" lon="-9.292845"><ele>112.0</ele><time>2026-04-26T12:18:27.399Z</time></trkpt><trkpt lat="31.85996" lon="-9.2926867"><ele>112.0</ele><time>2026-04-26T12:18:28.399Z</time></trkpt><trkpt lat="31.8601133" lon="-9.292535"><ele>110.66666666666667</ele><time>2026-04-26T12:18:29.399Z</time></trkpt><trkpt lat="31.8602567" lon="-9.2923917"><ele>109.33333333333334</ele><time>2026-04-26T12:18:30.399Z</time></trkpt><trkpt lat="31.8603983" lon="-9.2922533"><ele>108.0</ele><time>2026-04-26T12:18:31.399Z</time></trkpt><trkpt lat="31.8605383" lon="-9.2921167"><ele>108.0</ele><time>2026-04-26T12:18:32.399Z</time></trkpt><trkpt lat="31.8606717" lon="-9.2919817"><ele>108.0</ele><time>2026-04-26T12:18:33.399Z</time></trkpt><trkpt lat="31.8608017" lon="-9.2918517"><ele>108.0</ele><time>2026-04-26T12:18:34.399Z</time></trkpt><trkpt lat="31.860925" lon="-9.2917217"><ele>106.66666666666666</ele><time>2026-04-26T12:18:35.399Z</time></trkpt><trkpt lat="31.8610467" lon="-9.29159"><ele>105.33333333333333</ele><time>2026-04-26T12:18:36.399Z</time></trkpt><trkpt lat="31.8611633" lon="-9.2914667"><ele>104.0</ele><time>2026-04-26T12:18:37.399Z</time></trkpt><trkpt lat="31.8612717" lon="-9.291335"><ele>104.0</ele><time>2026-04-26T12:18:38.399Z</time></trkpt><trkpt lat="31.861375" lon="-9.2912017"><ele>104.0</ele><time>2026-04-26T12:18:39.399Z</time></trkpt><trkpt lat="31.8614733" lon="-9.2910633"><ele>104.0</ele><time>2026-04-26T12:18:40.399Z</time></trkpt><trkpt lat="31.8615633" lon="-9.2909217"><ele>104.0</ele><time>2026-04-26T12:18:41.399Z</time></trkpt><trkpt lat="31.8616517" lon="-9.29077"><ele>104.0</ele><time>2026-04-26T12:18:42.399Z</time></trkpt><trkpt lat="31.8617383" lon="-9.2906"><ele>104.0</ele><time>2026-04-26T12:18:43.399Z</time></trkpt><trkpt lat="31.861815" lon="-9.2904167"><ele>104.0</ele><time>2026-04-26T12:18:44.399Z</time></trkpt><trkpt lat="31.8618817" lon="-9.29021"><ele>104.0</ele><time>2026-04-26T12:18:45.399Z</time></trkpt><trkpt lat="31.8619483" lon="-9.2899933"><ele>104.0</ele><time>2026-04-26T12:18:46.399Z</time></trkpt><trkpt lat="31.8620083" lon="-9.2897583"><ele>101.66666666666666</ele><time>2026-04-26T12:18:47.398Z</time></trkpt><trkpt lat="31.862065" lon="-9.28952"><ele>99.33333333333334</ele><time>2026-04-26T12:18:48.398Z</time></trkpt><trkpt lat="31.86213" lon="-9.28928"><ele>97.0</ele><time>2026-04-26T12:18:49.398Z</time></trkpt><trkpt lat="31.862205" lon="-9.2890367"><ele>97.0</ele><time>2026-04-26T12:18:50.399Z</time></trkpt><trkpt lat="31.8623017" lon="-9.2888"><ele>97.0</ele><time>2026-04-26T12:18:51.398Z</time></trkpt><trkpt lat="31.862405" lon="-9.2885683"><ele>97.0</ele><time>2026-04-26T12:18:52.398Z</time></trkpt><trkpt lat="31.8625133" lon="-9.2883517"><ele>96.0</ele><time>2026-04-26T12:18:53.398Z</time></trkpt><trkpt lat="31.8626333" lon="-9.28814"><ele>95.0</ele><time>2026-04-26T12:18:54.398Z</time></trkpt><trkpt lat="31.8627567" lon="-9.2879417"><ele>94.0</ele><time>2026-04-26T12:18:55.398Z</time></trkpt><trkpt lat="31.8628733" lon="-9.2877583"><ele>94.0</ele><time>2026-04-26T12:18:56.398Z</time></trkpt><trkpt lat="31.8630033" lon="-9.2875717"><ele>94.0</ele><time>2026-04-26T12:18:57.398Z</time></trkpt><trkpt lat="31.8631433" lon="-9.2874083"><ele>94.0</ele><time>2026-04-26T12:18:58.398Z</time></trkpt><trkpt lat="31.8632883" lon="-9.28726"><ele>92.0</ele><time>2026-04-26T12:18:59.398Z</time></trkpt><trkpt lat="31.8634567" lon="-9.2871333"><ele>90.0</ele><time>2026-04-26T12:19:00.398Z</time></trkpt><trkpt lat="31.863635" lon="-9.2870267"><ele>88.0</ele><time>2026-04-26T12:19:01.399Z</time></trkpt><trkpt lat="31.8638217" lon="-9.2869317"><ele>88.0</ele><time>2026-04-26T12:19:02.398Z</time></trkpt><trkpt lat="31.8640033" lon="-9.2868367"><ele>88.0</ele><time>2026-04-26T12:19:03.398Z</time></trkpt><trkpt lat="31.864175" lon="-9.2867117"><ele>88.0</ele><time>2026-04-26T12:19:04.398Z</time></trkpt><trkpt lat="31.8643367" lon="-9.2865583"><ele>87.66666666666666</ele><time>2026-04-26T12:19:05.398Z</time></trkpt><trkpt lat="31.8644817" lon="-9.2863833"><ele>87.33333333333333</ele><time>2026-04-26T12:19:06.398Z</time></trkpt><trkpt lat="31.86462" lon="-9.2861983"><ele>87.0</ele><time>2026-04-26T12:19:07.398Z</time></trkpt><trkpt lat="31.8647617" lon="-9.2860067"><ele>87.0</ele><time>2026-04-26T12:19:08.398Z</time></trkpt><trkpt lat="31.8648983" lon="-9.2858033"><ele>87.0</ele><time>2026-04-26T12:19:09.398Z</time></trkpt><trkpt lat="31.8650433" lon="-9.2855917"><ele>81.5</ele><time>2026-04-26T12:19:10.398Z</time></trkpt><trkpt lat="31.865185" lon="-9.2853733"><ele>76.0</ele><time>2026-04-26T12:19:11.398Z</time></trkpt><trkpt lat="31.8653233" lon="-9.2851583"><ele>76.0</ele><time>2026-04-26T12:19:12.398Z</time></trkpt><trkpt lat="31.8654567" lon="-9.2849517"><ele>76.0</ele><time>2026-04-26T12:19:13.398Z</time></trkpt><trkpt lat="31.8655883" lon="-9.2847533"><ele>76.0</ele><time>2026-04-26T12:19:14.398Z</time></trkpt><trkpt lat="31.865715" lon="-9.284555"><ele>75.66666666666666</ele><time>2026-04-26T12:19:15.398Z</time></trkpt><trkpt lat="31.8658333" lon="-9.284365"><ele>75.33333333333333</ele><time>2026-04-26T12:19:16.399Z</time></trkpt><trkpt lat="31.865935" lon="-9.28417"><ele>75.0</ele><time>2026-04-26T12:19:17.398Z</time></trkpt><trkpt lat="31.8660083" lon="-9.2839683"><ele>71.66666666666667</ele><time>2026-04-26T12:19:18.398Z</time></trkpt><trkpt lat="31.8660633" lon="-9.2837617"><ele>68.33333333333334</ele><time>2026-04-26T12:19:19.398Z</time></trkpt><trkpt lat="31.8661" lon="-9.2835483"><ele>65.0</ele><time>2026-04-26T12:19:20.398Z</time></trkpt><trkpt lat="31.8661283" lon="-9.28333"><ele>65.0</ele><time>2026-04-26T12:19:21.398Z</time></trkpt><trkpt lat="31.8661433" lon="-9.2831183"><ele>65.0</ele><time>2026-04-26T12:19:22.398Z</time></trkpt><trkpt lat="31.8661483" lon="-9.2829067"><ele>65.0</ele><time>2026-04-26T12:19:23.398Z</time></trkpt><trkpt lat="31.8661367" lon="-9.2826983"><ele>63.333333333333336</ele><time>2026-04-26T12:19:24.398Z</time></trkpt><trkpt lat="31.866105" lon="-9.2824817"><ele>61.66666666666667</ele><time>2026-04-26T12:19:25.398Z</time></trkpt><trkpt lat="31.866045" lon="-9.2822767"><ele>60.0</ele><time>2026-04-26T12:19:26.398Z</time></trkpt><trkpt lat="31.86595" lon="-9.2820683"><ele>61.33333333333333</ele><time>2026-04-26T12:19:27.398Z</time></trkpt><trkpt lat="31.8658267" lon="-9.28188"><ele>62.666666666666664</ele><time>2026-04-26T12:19:28.398Z</time></trkpt><trkpt lat="31.8656833" lon="-9.2817117"><ele>64.0</ele><time>2026-04-26T12:19:29.398Z</time></trkpt><trkpt lat="31.8655033" lon="-9.281585"><ele>64.0</ele><time>2026-04-26T12:19:30.398Z</time></trkpt><trkpt lat="31.8653117" lon="-9.2814933"><ele>64.0</ele><time>2026-04-26T12:19:31.398Z</time></trkpt><trkpt lat="31.8651183" lon="-9.28142"><ele>64.0</ele><time>2026-04-26T12:19:32.398Z</time></trkpt><trkpt lat="31.86493" lon="-9.2813533"><ele>61.0</ele><time>2026-04-26T12:19:33.398Z</time></trkpt><trkpt lat="31.864745" lon="-9.2812767"><ele>58.0</ele><time>2026-04-26T12:19:34.398Z</time></trkpt><trkpt lat="31.8645667" lon="-9.2811767"><ele>55.0</ele><time>2026-04-26T12:19:35.398Z</time></trkpt><trkpt lat="31.8643933" lon="-9.2810517"><ele>54.0</ele><time>2026-04-26T12:19:36.398Z</time></trkpt><trkpt lat="31.8642417" lon="-9.280905"><ele>53.0</ele><time>2026-04-26T12:19:37.398Z</time></trkpt><trkpt lat="31.8641033" lon="-9.28073"><ele>52.0</ele><time>2026-04-26T12:19:38.398Z</time></trkpt><trkpt lat="31.86397" lon="-9.2805317"><ele>52.0</ele><time>2026-04-26T12:19:39.398Z</time></trkpt><trkpt lat="31.8638533" lon="-9.280315"><ele>52.0</ele><time>2026-04-26T12:19:40.398Z</time></trkpt><trkpt lat="31.86376" lon="-9.2800933"><ele>52.0</ele><time>2026-04-26T12:19:41.398Z</time></trkpt><trkpt lat="31.8636833" lon="-9.2798517"><ele>51.5</ele><time>2026-04-26T12:19:42.398Z</time></trkpt><trkpt lat="31.8636167" lon="-9.2795983"><ele>51.0</ele><time>2026-04-26T12:19:43.398Z</time></trkpt><trkpt lat="31.8635533" lon="-9.2793417"><ele>51.0</ele><time>2026-04-26T12:19:44.398Z</time></trkpt><trkpt lat="31.8634967" lon="-9.2790817"><ele>51.0</ele><time>2026-04-26T12:19:45.399Z</time></trkpt><trkpt lat="31.8634533" lon="-9.2788267"><ele>51.0</ele><time>2026-04-26T12:19:46.398Z</time></trkpt><trkpt lat="31.86343" lon="-9.2785817"><ele>50.66666666666667</ele><time>2026-04-26T12:19:47.398Z</time></trkpt><trkpt lat="31.863425" lon="-9.278325"><ele>50.333333333333336</ele><time>2026-04-26T12:19:48.398Z</time></trkpt><trkpt lat="31.8634383" lon="-9.2780667"><ele>50.0</ele><time>2026-04-26T12:19:49.398Z</time></trkpt><trkpt lat="31.8634467" lon="-9.2778167"><ele>50.0</ele><time>2026-04-26T12:19:50.398Z</time></trkpt><trkpt lat="31.8634633" lon="-9.2775717"><ele>50.0</ele><time>2026-04-26T12:19:51.398Z</time></trkpt><trkpt lat="31.8634817" lon="-9.2773367"><ele>50.0</ele><time>2026-04-26T12:19:52.398Z</time></trkpt><trkpt lat="31.863495" lon="-9.2771083"><ele>50.333333333333336</ele><time>2026-04-26T12:19:53.398Z</time></trkpt><trkpt lat="31.863505" lon="-9.2768717"><ele>50.66666666666667</ele><time>2026-04-26T12:19:54.398Z</time></trkpt><trkpt lat="31.86351" lon="-9.2766467"><ele>51.0</ele><time>2026-04-26T12:19:55.398Z</time></trkpt><trkpt lat="31.863525" lon="-9.27642"><ele>50.0</ele><time>2026-04-26T12:19:56.398Z</time></trkpt><trkpt lat="31.863535" lon="-9.27619"><ele>49.0</ele><time>2026-04-26T12:19:57.398Z</time></trkpt><trkpt lat="31.8635467" lon="-9.27595"><ele>48.0</ele><time>2026-04-26T12:19:58.398Z</time></trkpt><trkpt lat="31.863555" lon="-9.2756983"><ele>46.666666666666664</ele><time>2026-04-26T12:19:59.399Z</time></trkpt><trkpt lat="31.8635633" lon="-9.2754417"><ele>45.33333333333333</ele><time>2026-04-26T12:20:00.398Z</time></trkpt><trkpt lat="31.86358" lon="-9.2751833"><ele>44.0</ele><time>2026-04-26T12:20:01.398Z</time></trkpt><trkpt lat="31.863605" lon="-9.2749117"><ele>43.666666666666664</ele><time>2026-04-26T12:20:02.398Z</time></trkpt><trkpt lat="31.8636467" lon="-9.2746467"><ele>43.333333333333336</ele><time>2026-04-26T12:20:03.398Z</time></trkpt><trkpt lat="31.8637083" lon="-9.2744017"><ele>43.0</ele><time>2026-04-26T12:20:04.398Z</time></trkpt><trkpt lat="31.8637933" lon="-9.2741633"><ele>42.5</ele><time>2026-04-26T12:20:05.398Z</time></trkpt><trkpt lat="31.863905" lon="-9.2739283"><ele>42.0</ele><time>2026-04-26T12:20:06.398Z</time></trkpt><trkpt lat="31.8640383" lon="-9.2737017"><ele>42.0</ele><time>2026-04-26T12:20:07.398Z</time></trkpt><trkpt lat="31.8641933" lon="-9.2734833"><ele>42.0</ele><time>2026-04-26T12:20:08.398Z</time></trkpt><trkpt lat="31.8643617" lon="-9.2732933"><ele>42.0</ele><time>2026-04-26T12:20:09.398Z</time></trkpt><trkpt lat="31.8645367" lon="-9.2731367"><ele>42.0</ele><time>2026-04-26T12:20:10.398Z</time></trkpt><trkpt lat="31.8647267" lon="-9.2730033"><ele>42.0</ele><time>2026-04-26T12:20:11.399Z</time></trkpt><trkpt lat="31.864935" lon="-9.2728883"><ele>39.333333333333336</ele><time>2026-04-26T12:20:12.399Z</time></trkpt><trkpt lat="31.8651467" lon="-9.2727933"><ele>36.66666666666667</ele><time>2026-04-26T12:20:13.398Z</time></trkpt><trkpt lat="31.8653517" lon="-9.2727133"><ele>34.0</ele><time>2026-04-26T12:20:14.398Z</time></trkpt><trkpt lat="31.8655517" lon="-9.2726333"><ele>34.0</ele><time>2026-04-26T12:20:15.398Z</time></trkpt><trkpt lat="31.8657567" lon="-9.2725583"><ele>34.0</ele><time>2026-04-26T12:20:16.398Z</time></trkpt><trkpt lat="31.8659683" lon="-9.2724817"><ele>34.0</ele><time>2026-04-26T12:20:17.398Z</time></trkpt><trkpt lat="31.866185" lon="-9.2723967"><ele>34.333333333333336</ele><time>2026-04-26T12:20:18.398Z</time></trkpt><trkpt lat="31.8663933" lon="-9.2723167"><ele>34.666666666666664</ele><time>2026-04-26T12:20:19.398Z</time></trkpt><trkpt lat="31.8665983" lon="-9.2722433"><ele>35.0</ele><time>2026-04-26T12:20:20.398Z</time></trkpt><trkpt lat="31.8667983" lon="-9.2721667"><ele>37.0</ele><time>2026-04-26T12:20:21.398Z</time></trkpt><trkpt lat="31.8669917" lon="-9.272085"><ele>39.0</ele><time>2026-04-26T12:20:22.398Z</time></trkpt><trkpt lat="31.8671733" lon="-9.2720083"><ele>41.0</ele><time>2026-04-26T12:20:23.398Z</time></trkpt><trkpt lat="31.86735" lon="-9.2719317"><ele>41.0</ele><time>2026-04-26T12:20:24.398Z</time></trkpt><trkpt lat="31.86752" lon="-9.2718367"><ele>41.0</ele><time>2026-04-26T12:20:25.398Z</time></trkpt><trkpt lat="31.8676817" lon="-9.27173"><ele>41.0</ele><time>2026-04-26T12:20:26.398Z</time></trkpt><trkpt lat="31.8678383" lon="-9.271595"><ele>42.0</ele><time>2026-04-26T12:20:27.398Z</time></trkpt><trkpt lat="31.867995" lon="-9.2714533"><ele>43.0</ele><time>2026-04-26T12:20:28.398Z</time></trkpt><trkpt lat="31.8681433" lon="-9.2712867"><ele>44.0</ele><time>2026-04-26T12:20:29.398Z</time></trkpt><trkpt lat="31.868275" lon="-9.271105"><ele>45.0</ele><time>2026-04-26T12:20:30.398Z</time></trkpt><trkpt lat="31.8683983" lon="-9.2709167"><ele>46.0</ele><time>2026-04-26T12:20:31.398Z</time></trkpt><trkpt lat="31.8685183" lon="-9.2707217"><ele>47.0</ele><time>2026-04-26T12:20:32.398Z</time></trkpt><trkpt lat="31.8686483" lon="-9.2705383"><ele>48.666666666666664</ele><time>2026-04-26T12:20:33.398Z</time></trkpt><trkpt lat="31.8687733" lon="-9.2703767"><ele>50.33333333333333</ele><time>2026-04-26T12:20:34.398Z</time></trkpt><trkpt lat="31.8689083" lon="-9.2702333"><ele>52.0</ele><time>2026-04-26T12:20:35.398Z</time></trkpt><trkpt lat="31.8690533" lon="-9.27011"><ele>52.0</ele><time>2026-04-26T12:20:36.398Z</time></trkpt><trkpt lat="31.8692167" lon="-9.2699917"><ele>52.0</ele><time>2026-04-26T12:20:37.398Z</time></trkpt><trkpt lat="31.8693883" lon="-9.2698933"><ele>52.0</ele><time>2026-04-26T12:20:38.398Z</time></trkpt><trkpt lat="31.869565" lon="-9.2697933"><ele>57.0</ele><time>2026-04-26T12:20:39.398Z</time></trkpt><trkpt lat="31.8697433" lon="-9.269695"><ele>62.0</ele><time>2026-04-26T12:20:40.398Z</time></trkpt><trkpt lat="31.8699183" lon="-9.2695933"><ele>67.0</ele><time>2026-04-26T12:20:41.398Z</time></trkpt><trkpt lat="31.87009" lon="-9.2694783"><ele>65.0</ele><time>2026-04-26T12:20:42.398Z</time></trkpt><trkpt lat="31.8702567" lon="-9.2693417"><ele>63.0</ele><time>2026-04-26T12:20:43.398Z</time></trkpt><trkpt lat="31.8704183" lon="-9.2691867"><ele>61.0</ele><time>2026-04-26T12:20:44.398Z</time></trkpt><trkpt lat="31.8705717" lon="-9.269005"><ele>65.0</ele><time>2026-04-26T12:20:45.398Z</time></trkpt><trkpt lat="31.8707333" lon="-9.268825"><ele>69.0</ele><time>2026-04-26T12:20:46.398Z</time></trkpt><trkpt lat="31.870895" lon="-9.2686283"><ele>67.0</ele><time>2026-04-26T12:20:47.398Z</time></trkpt><trkpt lat="31.8710567" lon="-9.268425"><ele>65.0</ele><time>2026-04-26T12:20:48.398Z</time></trkpt><trkpt lat="31.8712283" lon="-9.2682167"><ele>70.0</ele><time>2026-04-26T12:20:49.399Z</time></trkpt><trkpt lat="31.8713967" lon="-9.2680017"><ele>75.0</ele><time>2026-04-26T12:20:50.398Z</time></trkpt><trkpt lat="31.871555" lon="-9.2677967"><ele>75.0</ele><time>2026-04-26T12:20:51.398Z</time></trkpt><trkpt lat="31.871695" lon="-9.2675983"><ele>75.0</ele><time>2026-04-26T12:20:52.398Z</time></trkpt><trkpt lat="31.8718133" lon="-9.2673983"><ele>75.0</ele><time>2026-04-26T12:20:53.398Z</time></trkpt><trkpt lat="31.8719083" lon="-9.2672"><ele>73.66666666666667</ele><time>2026-04-26T12:20:54.398Z</time></trkpt><trkpt lat="31.8719833" lon="-9.2669983"><ele>72.33333333333334</ele><time>2026-04-26T12:20:55.398Z</time></trkpt><trkpt lat="31.8720417" lon="-9.2667917"><ele>71.0</ele><time>2026-04-26T12:20:56.398Z</time></trkpt><trkpt lat="31.87209" lon="-9.2665767"><ele>73.0</ele><time>2026-04-26T12:20:57.398Z</time></trkpt><trkpt lat="31.8721333" lon="-9.2663567"><ele>75.0</ele><time>2026-04-26T12:20:58.398Z</time></trkpt><trkpt lat="31.8721717" lon="-9.2661383"><ele>77.0</ele><time>2026-04-26T12:20:59.398Z</time></trkpt><trkpt lat="31.872205" lon="-9.26593"><ele>77.0</ele><time>2026-04-26T12:21:00.398Z</time></trkpt><trkpt lat="31.87224" lon="-9.2657317"><ele>77.0</ele><time>2026-04-26T12:21:01.398Z</time></trkpt><trkpt lat="31.87227" lon="-9.2655433"><ele>77.0</ele><time>2026-04-26T12:21:02.398Z</time></trkpt><trkpt lat="31.8722967" lon="-9.2653683"><ele>79.33333333333334</ele><time>2026-04-26T12:21:03.398Z</time></trkpt><trkpt lat="31.8723117" lon="-9.265195"><ele>81.66666666666667</ele><time>2026-04-26T12:21:04.398Z</time></trkpt><trkpt lat="31.872315" lon="-9.2650133"><ele>84.0</ele><time>2026-04-26T12:21:05.398Z</time></trkpt><trkpt lat="31.8723167" lon="-9.264825"><ele>85.66666666666667</ele><time>2026-04-26T12:21:06.398Z</time></trkpt><trkpt lat="31.8723233" lon="-9.2646233"><ele>87.33333333333334</ele><time>2026-04-26T12:21:07.398Z</time></trkpt><trkpt lat="31.872325" lon="-9.2644167"><ele>89.0</ele><time>2026-04-26T12:21:08.398Z</time></trkpt><trkpt lat="31.8723267" lon="-9.2642067"><ele>89.0</ele><time>2026-04-26T12:21:09.398Z</time></trkpt><trkpt lat="31.8723317" lon="-9.2639883"><ele>89.0</ele><time>2026-04-26T12:21:10.398Z</time></trkpt><trkpt lat="31.8723333" lon="-9.2637683"><ele>89.0</ele><time>2026-04-26T12:21:11.398Z</time></trkpt><trkpt lat="31.8723383" lon="-9.263545"><ele>91.0</ele><time>2026-04-26T12:21:12.398Z</time></trkpt><trkpt lat="31.8723333" lon="-9.2633333"><ele>93.0</ele><time>2026-04-26T12:21:13.398Z</time></trkpt><trkpt lat="31.8723333" lon="-9.2631283"><ele>95.0</ele><time>2026-04-26T12:21:14.398Z</time></trkpt><trkpt lat="31.872335" lon="-9.2629283"><ele>95.33333333333334</ele><time>2026-04-26T12:21:15.398Z</time></trkpt><trkpt lat="31.8723583" lon="-9.2627233"><ele>95.66666666666667</ele><time>2026-04-26T12:21:16.398Z</time></trkpt><trkpt lat="31.872405" lon="-9.262495"><ele>96.0</ele><time>2026-04-26T12:21:17.398Z</time></trkpt><trkpt lat="31.8724717" lon="-9.2622633"><ele>98.66666666666666</ele><time>2026-04-26T12:21:18.398Z</time></trkpt><trkpt lat="31.87256" lon="-9.2620283"><ele>101.33333333333333</ele><time>2026-04-26T12:21:19.398Z</time></trkpt><trkpt lat="31.8726717" lon="-9.26179"><ele>104.0</ele><time>2026-04-26T12:21:20.398Z</time></trkpt><trkpt lat="31.872815" lon="-9.2615667"><ele>109.0</ele><time>2026-04-26T12:21:21.398Z</time></trkpt><trkpt lat="31.8729883" lon="-9.2613583"><ele>114.0</ele><time>2026-04-26T12:21:22.398Z</time></trkpt><trkpt lat="31.8731933" lon="-9.2611683"><ele>114.0</ele><time>2026-04-26T12:21:23.398Z</time></trkpt><trkpt lat="31.873415" lon="-9.26099"><ele>114.0</ele><time>2026-04-26T12:21:24.398Z</time></trkpt><trkpt lat="31.8736367" lon="-9.2608117"><ele>113.5</ele><time>2026-04-26T12:21:25.398Z</time></trkpt><trkpt lat="31.8738483" lon="-9.26066"><ele>113.0</ele><time>2026-04-26T12:21:26.398Z</time></trkpt><trkpt lat="31.87404" lon="-9.2604867"><ele>114.0</ele><time>2026-04-26T12:21:27.398Z</time></trkpt><trkpt lat="31.8742217" lon="-9.2602933"><ele>115.0</ele><time>2026-04-26T12:21:28.398Z</time></trkpt><trkpt lat="31.8743983" lon="-9.2600833"><ele>115.0</ele><time>2026-04-26T12:21:29.398Z</time></trkpt><trkpt lat="31.874575" lon="-9.2598917"><ele>115.0</ele><time>2026-04-26T12:21:30.398Z</time></trkpt><trkpt lat="31.8747367" lon="-9.2597067"><ele>116.66666666666667</ele><time>2026-04-26T12:21:31.398Z</time></trkpt><trkpt lat="31.8749" lon="-9.259545"><ele>118.33333333333334</ele><time>2026-04-26T12:21:32.398Z</time></trkpt><trkpt lat="31.875075" lon="-9.259395"><ele>120.0</ele><time>2026-04-26T12:21:33.398Z</time></trkpt><trkpt lat="31.8752617" lon="-9.25925"><ele>120.0</ele><time>2026-04-26T12:21:34.398Z</time></trkpt><trkpt lat="31.875455" lon="-9.2591083"><ele>120.0</ele><time>2026-04-26T12:21:35.398Z</time></trkpt><trkpt lat="31.87565" lon="-9.258975"><ele>121.66666666666666</ele><time>2026-04-26T12:21:36.398Z</time></trkpt><trkpt lat="31.8758417" lon="-9.2588533"><ele>123.33333333333333</ele><time>2026-04-26T12:21:37.398Z</time></trkpt><trkpt lat="31.8760333" lon="-9.2587317"><ele>125.0</ele><time>2026-04-26T12:21:38.398Z</time></trkpt><trkpt lat="31.8762283" lon="-9.2586117"><ele>125.0</ele><time>2026-04-26T12:21:39.398Z</time></trkpt><trkpt lat="31.8764233" lon="-9.2585017"><ele>125.0</ele><time>2026-04-26T12:21:40.398Z</time></trkpt><trkpt lat="31.87661" lon="-9.258405"><ele>125.0</ele><time>2026-04-26T12:21:41.398Z</time></trkpt><trkpt lat="31.8767933" lon="-9.2583167"><ele>125.66666666666666</ele><time>2026-04-26T12:21:42.398Z</time></trkpt><trkpt lat="31.8769717" lon="-9.2582383"><ele>126.33333333333334</ele><time>2026-04-26T12:21:43.398Z</time></trkpt><trkpt lat="31.8771483" lon="-9.25817"><ele>127.0</ele><time>2026-04-26T12:21:44.398Z</time></trkpt><trkpt lat="31.8773233" lon="-9.2580983"><ele>127.33333333333334</ele><time>2026-04-26T12:21:45.398Z</time></trkpt><trkpt lat="31.8774983" lon="-9.25803"><ele>127.66666666666666</ele><time>2026-04-26T12:21:46.398Z</time></trkpt><trkpt lat="31.8776767" lon="-9.2579667"><ele>128.0</ele><time>2026-04-26T12:21:47.398Z</time></trkpt><trkpt lat="31.8778617" lon="-9.2579167"><ele>128.0</ele><time>2026-04-26T12:21:48.398Z</time></trkpt><trkpt lat="31.8780517" lon="-9.25788"><ele>128.0</ele><time>2026-04-26T12:21:49.398Z</time></trkpt><trkpt lat="31.878235" lon="-9.25786"><ele>128.0</ele><time>2026-04-26T12:21:50.398Z</time></trkpt><trkpt lat="31.8784167" lon="-9.2578517"><ele>127.33333333333333</ele><time>2026-04-26T12:21:51.398Z</time></trkpt><trkpt lat="31.8785883" lon="-9.25785"><ele>126.66666666666666</ele><time>2026-04-26T12:21:52.398Z</time></trkpt><trkpt lat="31.8787667" lon="-9.2578567"><ele>126.0</ele><time>2026-04-26T12:21:53.398Z</time></trkpt><trkpt lat="31.8789483" lon="-9.25788"><ele>126.0</ele><time>2026-04-26T12:21:54.398Z</time></trkpt><trkpt lat="31.8791317" lon="-9.2579117"><ele>126.0</ele><time>2026-04-26T12:21:55.398Z</time></trkpt><trkpt lat="31.8793133" lon="-9.2579567"><ele>126.0</ele><time>2026-04-26T12:21:56.398Z</time></trkpt><trkpt lat="31.8794983" lon="-9.2580183"><ele>125.66666666666666</ele><time>2026-04-26T12:21:57.398Z</time></trkpt><trkpt lat="31.8796967" lon="-9.25809"><ele>125.33333333333333</ele><time>2026-04-26T12:21:58.398Z</time></trkpt><trkpt lat="31.8798883" lon="-9.258175"><ele>125.0</ele><time>2026-04-26T12:21:59.398Z</time></trkpt><trkpt lat="31.8800733" lon="-9.2582617"><ele>123.66666666666666</ele><time>2026-04-26T12:22:00.398Z</time></trkpt><trkpt lat="31.8802533" lon="-9.2583467"><ele>122.33333333333334</ele><time>2026-04-26T12:22:01.398Z</time></trkpt><trkpt lat="31.8804333" lon="-9.2584233"><ele>121.0</ele><time>2026-04-26T12:22:02.398Z</time></trkpt><trkpt lat="31.880605" lon="-9.2584983"><ele>121.0</ele><time>2026-04-26T12:22:03.398Z</time></trkpt><trkpt lat="31.88077" lon="-9.2585717"><ele>121.0</ele><time>2026-04-26T12:22:04.398Z</time></trkpt><trkpt lat="31.8809283" lon="-9.2586433"><ele>121.0</ele><time>2026-04-26T12:22:05.398Z</time></trkpt><trkpt lat="31.881085" lon="-9.25871"><ele>120.33333333333334</ele><time>2026-04-26T12:22:06.398Z</time></trkpt><trkpt lat="31.88123" lon="-9.2587717"><ele>119.66666666666666</ele><time>2026-04-26T12:22:07.398Z</time></trkpt><trkpt lat="31.881375" lon="-9.2588333"><ele>119.0</ele><time>2026-04-26T12:22:08.398Z</time></trkpt><trkpt lat="31.8815133" lon="-9.2588967"><ele>119.25</ele><time>2026-04-26T12:22:09.398Z</time></trkpt><trkpt lat="31.881645" lon="-9.2589567"><ele>119.5</ele><time>2026-04-26T12:22:10.398Z</time></trkpt><trkpt lat="31.88177" lon="-9.2590183"><ele>119.75</ele><time>2026-04-26T12:22:11.398Z</time></trkpt><trkpt lat="31.8818933" lon="-9.25908"><ele>120.0</ele><time>2026-04-26T12:22:12.398Z</time></trkpt><trkpt lat="31.8820217" lon="-9.2591417"><ele>119.33333333333334</ele><time>2026-04-26T12:22:13.398Z</time></trkpt><trkpt lat="31.8821567" lon="-9.2591983"><ele>118.66666666666667</ele><time>2026-04-26T12:22:14.398Z</time></trkpt><trkpt lat="31.8823033" lon="-9.2592567"><ele>118.0</ele><time>2026-04-26T12:22:15.398Z</time></trkpt><trkpt lat="31.8824483" lon="-9.2593217"><ele>118.0</ele><time>2026-04-26T12:22:16.398Z</time></trkpt><trkpt lat="31.8825917" lon="-9.25939"><ele>118.0</ele><time>2026-04-26T12:22:17.398Z</time></trkpt><trkpt lat="31.8827317" lon="-9.2594567"><ele>118.0</ele><time>2026-04-26T12:22:18.398Z</time></trkpt><trkpt lat="31.8828667" lon="-9.2595133"><ele>118.0</ele><time>2026-04-26T12:22:19.398Z</time></trkpt><trkpt lat="31.8830033" lon="-9.259565"><ele>117.5</ele><time>2026-04-26T12:22:20.398Z</time></trkpt><trkpt lat="31.88313" lon="-9.2596217"><ele>117.0</ele><time>2026-04-26T12:22:21.398Z</time></trkpt><trkpt lat="31.88325" lon="-9.2596717"><ele>116.5</ele><time>2026-04-26T12:22:22.398Z</time></trkpt><trkpt lat="31.8833667" lon="-9.2597233"><ele>116.0</ele><time>2026-04-26T12:22:23.398Z</time></trkpt><trkpt lat="31.8834833" lon="-9.25977"><ele>115.0</ele><time>2026-04-26T12:22:24.398Z</time></trkpt><trkpt lat="31.8835983" lon="-9.2598167"><ele>114.0</ele><time>2026-04-26T12:22:25.398Z</time></trkpt><trkpt lat="31.8837083" lon="-9.2598533"><ele>113.0</ele><time>2026-04-26T12:22:26.398Z</time></trkpt><trkpt lat="31.883815" lon="-9.2598833"><ele>112.0</ele><time>2026-04-26T12:22:27.398Z</time></trkpt><trkpt lat="31.8839217" lon="-9.25991"><ele>112.0</ele><time>2026-04-26T12:22:28.398Z</time></trkpt><trkpt lat="31.884025" lon="-9.25994"><ele>111.99999999999999</ele><time>2026-04-26T12:22:29.398Z</time></trkpt><trkpt lat="31.8841267" lon="-9.25996"><ele>111.99999999999999</ele><time>2026-04-26T12:22:30.398Z</time></trkpt><trkpt lat="31.8842317" lon="-9.25997"><ele>112.0</ele><time>2026-04-26T12:22:31.398Z</time></trkpt><trkpt lat="31.884345" lon="-9.259985"><ele>112.0</ele><time>2026-04-26T12:22:32.398Z</time></trkpt><trkpt lat="31.884465" lon="-9.259985"><ele>111.75</ele><time>2026-04-26T12:22:33.398Z</time></trkpt><trkpt lat="31.884585" lon="-9.2599767"><ele>111.5</ele><time>2026-04-26T12:22:34.398Z</time></trkpt><trkpt lat="31.88471" lon="-9.2599683"><ele>111.25</ele><time>2026-04-26T12:22:35.398Z</time></trkpt><trkpt lat="31.8848417" lon="-9.259965"><ele>111.0</ele><time>2026-04-26T12:22:36.398Z</time></trkpt><trkpt lat="31.8849633" lon="-9.25996"><ele>111.0</ele><time>2026-04-26T12:22:37.398Z</time></trkpt><trkpt lat="31.8850833" lon="-9.25994"><ele>111.0</ele><time>2026-04-26T12:22:38.398Z</time></trkpt><trkpt lat="31.885195" lon="-9.2599233"><ele>111.0</ele><time>2026-04-26T12:22:39.398Z</time></trkpt><trkpt lat="31.8853167" lon="-9.2599017"><ele>111.0</ele><time>2026-04-26T12:22:40.398Z</time></trkpt><trkpt lat="31.8854433" lon="-9.2598683"><ele>110.0</ele><time>2026-04-26T12:22:41.398Z</time></trkpt><trkpt lat="31.8855833" lon="-9.2598333"><ele>109.0</ele><time>2026-04-26T12:22:42.398Z</time></trkpt><trkpt lat="31.8857317" lon="-9.2597817"><ele>108.0</ele><time>2026-04-26T12:22:43.398Z</time></trkpt><trkpt lat="31.88589" lon="-9.259725"><ele>106.33333333333334</ele><time>2026-04-26T12:22:44.398Z</time></trkpt><trkpt lat="31.8860517" lon="-9.25967"><ele>104.66666666666667</ele><time>2026-04-26T12:22:45.399Z</time></trkpt><trkpt lat="31.8862133" lon="-9.2596133"><ele>103.0</ele><time>2026-04-26T12:22:46.398Z</time></trkpt><trkpt lat="31.886375" lon="-9.259545"><ele>103.0</ele><time>2026-04-26T12:22:47.398Z</time></trkpt><trkpt lat="31.8865433" lon="-9.2594783"><ele>103.0</ele><time>2026-04-26T12:22:48.398Z</time></trkpt><trkpt lat="31.886715" lon="-9.2594183"><ele>103.0</ele><time>2026-04-26T12:22:49.398Z</time></trkpt><trkpt lat="31.8868933" lon="-9.2593567"><ele>102.33333333333334</ele><time>2026-04-26T12:22:50.398Z</time></trkpt><trkpt lat="31.8870683" lon="-9.2592967"><ele>101.66666666666666</ele><time>2026-04-26T12:22:51.398Z</time></trkpt><trkpt lat="31.8872533" lon="-9.2592267"><ele>101.0</ele><time>2026-04-26T12:22:52.398Z</time></trkpt><trkpt lat="31.8874417" lon="-9.259165"><ele>100.0</ele><time>2026-04-26T12:22:53.398Z</time></trkpt><trkpt lat="31.8876283" lon="-9.2591"><ele>99.0</ele><time>2026-04-26T12:22:54.398Z</time></trkpt><trkpt lat="31.8878183" lon="-9.259035"><ele>98.0</ele><time>2026-04-26T12:22:55.398Z</time></trkpt><trkpt lat="31.8880033" lon="-9.2589683"><ele>98.33333333333333</ele><time>2026-04-26T12:22:56.398Z</time></trkpt><trkpt lat="31.8881817" lon="-9.25891"><ele>98.66666666666666</ele><time>2026-04-26T12:22:57.398Z</time></trkpt><trkpt lat="31.88835" lon="-9.25885"><ele>99.0</ele><time>2026-04-26T12:22:58.398Z</time></trkpt><trkpt lat="31.888525" lon="-9.2587833"><ele>99.0</ele><time>2026-04-26T12:22:59.398Z</time></trkpt><trkpt lat="31.88871" lon="-9.2587183"><ele>99.0</ele><time>2026-04-26T12:23:00.398Z</time></trkpt><trkpt lat="31.88889" lon="-9.2586567"><ele>99.0</ele><time>2026-04-26T12:23:01.398Z</time></trkpt><trkpt lat="31.88906" lon="-9.2585983"><ele>99.0</ele><time>2026-04-26T12:23:02.398Z</time></trkpt><trkpt lat="31.8892183" lon="-9.2585333"><ele>99.0</ele><time>2026-04-26T12:23:03.398Z</time></trkpt><trkpt lat="31.8893783" lon="-9.2584783"><ele>99.0</ele><time>2026-04-26T12:23:04.398Z</time></trkpt><trkpt lat="31.8895517" lon="-9.2584267"><ele>99.0</ele><time>2026-04-26T12:23:05.398Z</time></trkpt><trkpt lat="31.88973" lon="-9.2583733"><ele>99.0</ele><time>2026-04-26T12:23:06.398Z</time></trkpt><trkpt lat="31.8899017" lon="-9.2583167"><ele>99.0</ele><time>2026-04-26T12:23:07.398Z</time></trkpt><trkpt lat="31.8900817" lon="-9.2582533"><ele>98.33333333333334</ele><time>2026-04-26T12:23:08.398Z</time></trkpt><trkpt lat="31.8902717" lon="-9.2581867"><ele>97.66666666666667</ele><time>2026-04-26T12:23:09.398Z</time></trkpt><trkpt lat="31.8904783" lon="-9.2581133"><ele>97.0</ele><time>2026-04-26T12:23:10.398Z</time></trkpt><trkpt lat="31.8907067" lon="-9.2580317"><ele>97.0</ele><time>2026-04-26T12:23:11.398Z</time></trkpt><trkpt lat="31.890945" lon="-9.257945"><ele>97.0</ele><time>2026-04-26T12:23:12.398Z</time></trkpt><trkpt lat="31.8911767" lon="-9.2578667"><ele>97.0</ele><time>2026-04-26T12:23:13.398Z</time></trkpt><trkpt lat="31.8914033" lon="-9.2577917"><ele>97.0</ele><time>2026-04-26T12:23:14.399Z</time></trkpt><trkpt lat="31.8916517" lon="-9.2577033"><ele>97.5</ele><time>2026-04-26T12:23:15.398Z</time></trkpt><trkpt lat="31.891905" lon="-9.2576167"><ele>98.0</ele><time>2026-04-26T12:23:16.398Z</time></trkpt><trkpt lat="31.8921617" lon="-9.2575317"><ele>98.0</ele><time>2026-04-26T12:23:17.398Z</time></trkpt><trkpt lat="31.8924133" lon="-9.257445"><ele>98.0</ele><time>2026-04-26T12:23:18.398Z</time></trkpt><trkpt lat="31.8926417" lon="-9.257365"><ele>100.33333333333333</ele><time>2026-04-26T12:23:19.398Z</time></trkpt><trkpt lat="31.8928617" lon="-9.2572833"><ele>102.66666666666666</ele><time>2026-04-26T12:23:20.398Z</time></trkpt><trkpt lat="31.89307" lon="-9.2572083"><ele>105.0</ele><time>2026-04-26T12:23:21.398Z</time></trkpt><trkpt lat="31.8932767" lon="-9.2571267"><ele>105.33333333333334</ele><time>2026-04-26T12:23:22.398Z</time></trkpt><trkpt lat="31.89347" lon="-9.2570517"><ele>105.66666666666667</ele><time>2026-04-26T12:23:23.398Z</time></trkpt><trkpt lat="31.8936483" lon="-9.2569733"><ele>106.0</ele><time>2026-04-26T12:23:24.398Z</time></trkpt><trkpt lat="31.8938133" lon="-9.2568867"><ele>106.0</ele><time>2026-04-26T12:23:25.398Z</time></trkpt><trkpt lat="31.8939817" lon="-9.2567983"><ele>106.0</ele><time>2026-04-26T12:23:26.398Z</time></trkpt><trkpt lat="31.894155" lon="-9.2567067"><ele>106.0</ele><time>2026-04-26T12:23:27.398Z</time></trkpt><trkpt lat="31.89433" lon="-9.2566183"><ele>105.66666666666667</ele><time>2026-04-26T12:23:28.398Z</time></trkpt><trkpt lat="31.8945067" lon="-9.2565317"><ele>105.33333333333334</ele><time>2026-04-26T12:23:29.399Z</time></trkpt><trkpt lat="31.8946833" lon="-9.256445"><ele>105.0</ele><time>2026-04-26T12:23:30.398Z</time></trkpt><trkpt lat="31.8948633" lon="-9.2563533"><ele>105.0</ele><time>2026-04-26T12:23:31.398Z</time></trkpt><trkpt lat="31.89507" lon="-9.2562533"><ele>105.0</ele><time>2026-04-26T12:23:32.399Z</time></trkpt><trkpt lat="31.8952767" lon="-9.2561483"><ele>105.0</ele><time>2026-04-26T12:23:33.398Z</time></trkpt><trkpt lat="31.8954767" lon="-9.2560483"><ele>105.0</ele><time>2026-04-26T12:23:34.398Z</time></trkpt><trkpt lat="31.89568" lon="-9.2559483"><ele>105.0</ele><time>2026-04-26T12:23:35.398Z</time></trkpt><trkpt lat="31.8958767" lon="-9.25585"><ele>105.0</ele><time>2026-04-26T12:23:36.397Z</time></trkpt><trkpt lat="31.8960717" lon="-9.25575"><ele>105.0</ele><time>2026-04-26T12:23:37.397Z</time></trkpt><trkpt lat="31.8962717" lon="-9.2556467"><ele>105.0</ele><time>2026-04-26T12:23:38.397Z</time></trkpt><trkpt lat="31.89647" lon="-9.2555517"><ele>105.0</ele><time>2026-04-26T12:23:39.398Z</time></trkpt><trkpt lat="31.8966517" lon="-9.25546"><ele>104.66666666666666</ele><time>2026-04-26T12:23:40.397Z</time></trkpt><trkpt lat="31.896825" lon="-9.2553733"><ele>104.33333333333333</ele><time>2026-04-26T12:23:41.397Z</time></trkpt><trkpt lat="31.8969883" lon="-9.2552983"><ele>104.0</ele><time>2026-04-26T12:23:42.397Z</time></trkpt><trkpt lat="31.89714" lon="-9.2552183"><ele>104.0</ele><time>2026-04-26T12:23:43.397Z</time></trkpt><trkpt lat="31.8972933" lon="-9.2551433"><ele>104.0</ele><time>2026-04-26T12:23:44.397Z</time></trkpt><trkpt lat="31.8974517" lon="-9.2550633"><ele>104.0</ele><time>2026-04-26T12:23:45.397Z</time></trkpt><trkpt lat="31.8976067" lon="-9.2549817"><ele>103.66666666666666</ele><time>2026-04-26T12:23:46.397Z</time></trkpt><trkpt lat="31.8977617" lon="-9.2549033"><ele>103.33333333333334</ele><time>2026-04-26T12:23:47.397Z</time></trkpt><trkpt lat="31.8979167" lon="-9.2548217"><ele>103.0</ele><time>2026-04-26T12:23:48.397Z</time></trkpt><trkpt lat="31.8980717" lon="-9.2547433"><ele>103.0</ele><time>2026-04-26T12:23:49.397Z</time></trkpt><trkpt lat="31.8982383" lon="-9.254665"><ele>103.0</ele><time>2026-04-26T12:23:50.397Z</time></trkpt><trkpt lat="31.8984067" lon="-9.25458"><ele>103.0</ele><time>2026-04-26T12:23:51.397Z</time></trkpt><trkpt lat="31.89858" lon="-9.2545017"><ele>103.33333333333334</ele><time>2026-04-26T12:23:52.397Z</time></trkpt><trkpt lat="31.898745" lon="-9.2544317"><ele>103.66666666666666</ele><time>2026-04-26T12:23:53.397Z</time></trkpt><trkpt lat="31.8989" lon="-9.2543633"><ele>104.0</ele><time>2026-04-26T12:23:54.397Z</time></trkpt><trkpt lat="31.8990483" lon="-9.2543017"><ele>104.0</ele><time>2026-04-26T12:23:55.397Z</time></trkpt><trkpt lat="31.8991983" lon="-9.25425"><ele>104.0</ele><time>2026-04-26T12:23:56.397Z</time></trkpt><trkpt lat="31.8993583" lon="-9.2541983"><ele>104.0</ele><time>2026-04-26T12:23:57.397Z</time></trkpt><trkpt lat="31.899525" lon="-9.2541533"><ele>103.66666666666666</ele><time>2026-04-26T12:23:58.397Z</time></trkpt><trkpt lat="31.8996933" lon="-9.2541133"><ele>103.33333333333334</ele><time>2026-04-26T12:23:59.397Z</time></trkpt><trkpt lat="31.8998633" lon="-9.25408"><ele>103.0</ele><time>2026-04-26T12:24:00.397Z</time></trkpt><trkpt lat="31.90004" lon="-9.25404"><ele>104.0</ele><time>2026-04-26T12:24:01.397Z</time></trkpt><trkpt lat="31.9002133" lon="-9.254"><ele>105.0</ele><time>2026-04-26T12:24:02.397Z</time></trkpt><trkpt lat="31.9003883" lon="-9.2539767"><ele>106.0</ele><time>2026-04-26T12:24:03.397Z</time></trkpt><trkpt lat="31.9005617" lon="-9.2539517"><ele>106.0</ele><time>2026-04-26T12:24:04.397Z</time></trkpt><trkpt lat="31.9007317" lon="-9.253935"><ele>106.0</ele><time>2026-04-26T12:24:05.397Z</time></trkpt><trkpt lat="31.900905" lon="-9.2539217"><ele>106.0</ele><time>2026-04-26T12:24:06.397Z</time></trkpt><trkpt lat="31.9010867" lon="-9.2539117"><ele>106.66666666666667</ele><time>2026-04-26T12:24:07.397Z</time></trkpt><trkpt lat="31.9012883" lon="-9.2538983"><ele>107.33333333333334</ele><time>2026-04-26T12:24:08.397Z</time></trkpt><trkpt lat="31.9015017" lon="-9.2538917"><ele>108.0</ele><time>2026-04-26T12:24:09.397Z</time></trkpt><trkpt lat="31.90173" lon="-9.2538983"><ele>107.5</ele><time>2026-04-26T12:24:10.397Z</time></trkpt><trkpt lat="31.901995" lon="-9.2539233"><ele>107.0</ele><time>2026-04-26T12:24:11.397Z</time></trkpt><trkpt lat="31.9022767" lon="-9.2539483"><ele>108.0</ele><time>2026-04-26T12:24:12.397Z</time></trkpt><trkpt lat="31.9025583" lon="-9.2539717"><ele>109.0</ele><time>2026-04-26T12:24:13.397Z</time></trkpt><trkpt lat="31.9028167" lon="-9.254015"><ele>109.0</ele><time>2026-04-26T12:24:14.397Z</time></trkpt><trkpt lat="31.9030483" lon="-9.25407"><ele>109.0</ele><time>2026-04-26T12:24:15.397Z</time></trkpt><trkpt lat="31.9032767" lon="-9.2541367"><ele>108.5</ele><time>2026-04-26T12:24:16.397Z</time></trkpt><trkpt lat="31.9035117" lon="-9.254195"><ele>108.0</ele><time>2026-04-26T12:24:17.397Z</time></trkpt><trkpt lat="31.9037333" lon="-9.2542567"><ele>108.0</ele><time>2026-04-26T12:24:18.397Z</time></trkpt><trkpt lat="31.9039567" lon="-9.25432"><ele>108.0</ele><time>2026-04-26T12:24:19.397Z</time></trkpt><trkpt lat="31.9041883" lon="-9.25439"><ele>107.0</ele><time>2026-04-26T12:24:20.397Z</time></trkpt><trkpt lat="31.90443" lon="-9.2544683"><ele>106.0</ele><time>2026-04-26T12:24:21.397Z</time></trkpt><trkpt lat="31.9046867" lon="-9.2545533"><ele>106.0</ele><time>2026-04-26T12:24:22.397Z</time></trkpt><trkpt lat="31.9049483" lon="-9.254635"><ele>106.0</ele><time>2026-04-26T12:24:23.397Z</time></trkpt><trkpt lat="31.90521" lon="-9.254705"><ele>104.5</ele><time>2026-04-26T12:24:24.397Z</time></trkpt><trkpt lat="31.9054883" lon="-9.254775"><ele>103.0</ele><time>2026-04-26T12:24:25.397Z</time></trkpt><trkpt lat="31.9057833" lon="-9.2548483"><ele>101.0</ele><time>2026-04-26T12:24:26.397Z</time></trkpt><trkpt lat="31.906085" lon="-9.25493"><ele>99.0</ele><time>2026-04-26T12:24:27.397Z</time></trkpt><trkpt lat="31.9063883" lon="-9.25502"><ele>99.0</ele><time>2026-04-26T12:24:28.397Z</time></trkpt><trkpt lat="31.9066883" lon="-9.2551133"><ele>99.0</ele><time>2026-04-26T12:24:29.397Z</time></trkpt><trkpt lat="31.9069833" lon="-9.2552033"><ele>99.5</ele><time>2026-04-26T12:24:30.397Z</time></trkpt><trkpt lat="31.9072717" lon="-9.2552833"><ele>100.0</ele><time>2026-04-26T12:24:31.397Z</time></trkpt><trkpt lat="31.907555" lon="-9.2553667"><ele>100.5</ele><time>2026-04-26T12:24:32.397Z</time></trkpt><trkpt lat="31.9078483" lon="-9.2554483"><ele>101.0</ele><time>2026-04-26T12:24:33.397Z</time></trkpt><trkpt lat="31.9081467" lon="-9.2555317"><ele>101.0</ele><time>2026-04-26T12:24:34.397Z</time></trkpt><trkpt lat="31.9084417" lon="-9.25562"><ele>101.0</ele><time>2026-04-26T12:24:35.397Z</time></trkpt><trkpt lat="31.9087267" lon="-9.2557033"><ele>101.0</ele><time>2026-04-26T12:24:36.397Z</time></trkpt><trkpt lat="31.908995" lon="-9.2557817"><ele>101.0</ele><time>2026-04-26T12:24:37.397Z</time></trkpt><trkpt lat="31.9092533" lon="-9.25585"><ele>101.0</ele><time>2026-04-26T12:24:38.397Z</time></trkpt><trkpt lat="31.909495" lon="-9.2559067"><ele>101.0</ele><time>2026-04-26T12:24:39.397Z</time></trkpt><trkpt lat="31.9097433" lon="-9.2559583"><ele>101.0</ele><time>2026-04-26T12:24:40.397Z</time></trkpt><trkpt lat="31.9099917" lon="-9.2560083"><ele>101.0</ele><time>2026-04-26T12:24:41.397Z</time></trkpt><trkpt lat="31.9102417" lon="-9.2560433"><ele>101.5</ele><time>2026-04-26T12:24:42.397Z</time></trkpt><trkpt lat="31.910485" lon="-9.2560683"><ele>102.0</ele><time>2026-04-26T12:24:43.397Z</time></trkpt><trkpt lat="31.9107333" lon="-9.2560883"><ele>103.0</ele><time>2026-04-26T12:24:44.397Z</time></trkpt><trkpt lat="31.9109783" lon="-9.2560883"><ele>104.0</ele><time>2026-04-26T12:24:45.397Z</time></trkpt><trkpt lat="31.9112267" lon="-9.256095"><ele>104.0</ele><time>2026-04-26T12:24:46.397Z</time></trkpt><trkpt lat="31.911475" lon="-9.25609"><ele>104.0</ele><time>2026-04-26T12:24:47.397Z</time></trkpt><trkpt lat="31.911725" lon="-9.2560833"><ele>103.5</ele><time>2026-04-26T12:24:48.397Z</time></trkpt><trkpt lat="31.91196" lon="-9.25606"><ele>103.0</ele><time>2026-04-26T12:24:49.397Z</time></trkpt><trkpt lat="31.912185" lon="-9.2560333"><ele>103.0</ele><time>2026-04-26T12:24:50.397Z</time></trkpt><trkpt lat="31.9124017" lon="-9.2560033"><ele>103.0</ele><time>2026-04-26T12:24:51.397Z</time></trkpt><trkpt lat="31.9126117" lon="-9.2559683"><ele>103.0</ele><time>2026-04-26T12:24:52.398Z</time></trkpt><trkpt lat="31.9128283" lon="-9.2559217"><ele>103.0</ele><time>2026-04-26T12:24:53.397Z</time></trkpt><trkpt lat="31.9130483" lon="-9.25587"><ele>103.0</ele><time>2026-04-26T12:24:54.398Z</time></trkpt><trkpt lat="31.9132633" lon="-9.2558067"><ele>103.0</ele><time>2026-04-26T12:24:55.397Z</time></trkpt><trkpt lat="31.9134683" lon="-9.25574"><ele>103.0</ele><time>2026-04-26T12:24:56.397Z</time></trkpt><trkpt lat="31.9136683" lon="-9.2556717"><ele>103.0</ele><time>2026-04-26T12:24:57.397Z</time></trkpt><trkpt lat="31.9138733" lon="-9.2556"><ele>103.0</ele><time>2026-04-26T12:24:58.397Z</time></trkpt><trkpt lat="31.9140767" lon="-9.25553"><ele>103.33333333333334</ele><time>2026-04-26T12:24:59.397Z</time></trkpt><trkpt lat="31.9142783" lon="-9.2554533"><ele>103.66666666666666</ele><time>2026-04-26T12:25:00.397Z</time></trkpt><trkpt lat="31.9144767" lon="-9.255375"><ele>104.0</ele><time>2026-04-26T12:25:01.397Z</time></trkpt><trkpt lat="31.9146683" lon="-9.2552933"><ele>104.0</ele><time>2026-04-26T12:25:02.397Z</time></trkpt><trkpt lat="31.9148567" lon="-9.2552217"><ele>104.0</ele><time>2026-04-26T12:25:03.397Z</time></trkpt><trkpt lat="31.9150433" lon="-9.2551483"><ele>104.0</ele><time>2026-04-26T12:25:04.397Z</time></trkpt><trkpt lat="31.91523" lon="-9.2550733"><ele>104.0</ele><time>2026-04-26T12:25:05.397Z</time></trkpt><trkpt lat="31.915425" lon="-9.254995"><ele>104.0</ele><time>2026-04-26T12:25:06.397Z</time></trkpt><trkpt lat="31.915625" lon="-9.2549117"><ele>104.0</ele><time>2026-04-26T12:25:07.397Z</time></trkpt><trkpt lat="31.9158267" lon="-9.25483"><ele>105.33333333333333</ele><time>2026-04-26T12:25:08.397Z</time></trkpt><trkpt lat="31.9160333" lon="-9.25475"><ele>106.66666666666666</ele><time>2026-04-26T12:25:09.397Z</time></trkpt><trkpt lat="31.916245" lon="-9.254675"><ele>108.0</ele><time>2026-04-26T12:25:10.397Z</time></trkpt><trkpt lat="31.9164533" lon="-9.254595"><ele>108.0</ele><time>2026-04-26T12:25:11.397Z</time></trkpt><trkpt lat="31.9166583" lon="-9.25451"><ele>108.0</ele><time>2026-04-26T12:25:12.397Z</time></trkpt><trkpt lat="31.9168517" lon="-9.2544367"><ele>108.0</ele><time>2026-04-26T12:25:13.397Z</time></trkpt><trkpt lat="31.9170433" lon="-9.2543583"><ele>108.66666666666666</ele><time>2026-04-26T12:25:14.397Z</time></trkpt><trkpt lat="31.91724" lon="-9.2542833"><ele>109.33333333333333</ele><time>2026-04-26T12:25:15.397Z</time></trkpt><trkpt lat="31.9174417" lon="-9.2542067"><ele>110.0</ele><time>2026-04-26T12:25:16.397Z</time></trkpt><trkpt lat="31.9176433" lon="-9.254125"><ele>110.0</ele><time>2026-04-26T12:25:17.397Z</time></trkpt><trkpt lat="31.9178417" lon="-9.2540467"><ele>110.0</ele><time>2026-04-26T12:25:18.397Z</time></trkpt><trkpt lat="31.918035" lon="-9.2539733"><ele>110.0</ele><time>2026-04-26T12:25:19.397Z</time></trkpt><trkpt lat="31.9182233" lon="-9.2539017"><ele>109.66666666666666</ele><time>2026-04-26T12:25:20.397Z</time></trkpt><trkpt lat="31.9184133" lon="-9.253825"><ele>109.33333333333334</ele><time>2026-04-26T12:25:21.397Z</time></trkpt><trkpt lat="31.9186083" lon="-9.2537433"><ele>109.0</ele><time>2026-04-26T12:25:22.397Z</time></trkpt><trkpt lat="31.9188083" lon="-9.2536583"><ele>109.0</ele><time>2026-04-26T12:25:23.397Z</time></trkpt><trkpt lat="31.9190133" lon="-9.2535767"><ele>109.0</ele><time>2026-04-26T12:25:24.397Z</time></trkpt><trkpt lat="31.919225" lon="-9.2534917"><ele>109.0</ele><time>2026-04-26T12:25:25.397Z</time></trkpt><trkpt lat="31.91944" lon="-9.2534033"><ele>108.5</ele><time>2026-04-26T12:25:26.397Z</time></trkpt><trkpt lat="31.9196583" lon="-9.253315"><ele>108.0</ele><time>2026-04-26T12:25:27.397Z</time></trkpt><trkpt lat="31.9198817" lon="-9.2532267"><ele>108.0</ele><time>2026-04-26T12:25:28.397Z</time></trkpt><trkpt lat="31.9201083" lon="-9.2531367"><ele>108.0</ele><time>2026-04-26T12:25:29.397Z</time></trkpt><trkpt lat="31.9203333" lon="-9.2530467"><ele>107.0</ele><time>2026-04-26T12:25:30.397Z</time></trkpt><trkpt lat="31.92056" lon="-9.2529533"><ele>106.0</ele><time>2026-04-26T12:25:31.397Z</time></trkpt><trkpt lat="31.9207833" lon="-9.252865"><ele>108.0</ele><time>2026-04-26T12:25:32.397Z</time></trkpt><trkpt lat="31.921" lon="-9.25278"><ele>110.0</ele><time>2026-04-26T12:25:33.397Z</time></trkpt><trkpt lat="31.921215" lon="-9.2527"><ele>110.0</ele><time>2026-04-26T12:25:34.397Z</time></trkpt><trkpt lat="31.9214233" lon="-9.2526133"><ele>110.0</ele><time>2026-04-26T12:25:35.397Z</time></trkpt><trkpt lat="31.9216233" lon="-9.252535"><ele>110.0</ele><time>2026-04-26T12:25:36.397Z</time></trkpt><trkpt lat="31.92182" lon="-9.2524567"><ele>109.0</ele><time>2026-04-26T12:25:37.397Z</time></trkpt><trkpt lat="31.9220167" lon="-9.252375"><ele>108.0</ele><time>2026-04-26T12:25:38.397Z</time></trkpt><trkpt lat="31.9222133" lon="-9.2522917"><ele>107.0</ele><time>2026-04-26T12:25:39.397Z</time></trkpt><trkpt lat="31.9224067" lon="-9.25221"><ele>107.0</ele><time>2026-04-26T12:25:40.397Z</time></trkpt><trkpt lat="31.922595" lon="-9.2521383"><ele>107.0</ele><time>2026-04-26T12:25:41.397Z</time></trkpt><trkpt lat="31.9227733" lon="-9.2520533"><ele>107.0</ele><time>2026-04-26T12:25:42.397Z</time></trkpt><trkpt lat="31.9229517" lon="-9.2519817"><ele>107.0</ele><time>2026-04-26T12:25:43.397Z</time></trkpt><trkpt lat="31.9231283" lon="-9.2519167"><ele>107.0</ele><time>2026-04-26T12:25:44.397Z</time></trkpt><trkpt lat="31.9233117" lon="-9.2518433"><ele>107.0</ele><time>2026-04-26T12:25:45.397Z</time></trkpt><trkpt lat="31.92349" lon="-9.2517683"><ele>107.66666666666666</ele><time>2026-04-26T12:25:46.397Z</time></trkpt><trkpt lat="31.92367" lon="-9.2516933"><ele>108.33333333333334</ele><time>2026-04-26T12:25:47.397Z</time></trkpt><trkpt lat="31.92386" lon="-9.2516283"><ele>109.0</ele><time>2026-04-26T12:25:48.397Z</time></trkpt><trkpt lat="31.9240483" lon="-9.2515567"><ele>109.0</ele><time>2026-04-26T12:25:49.397Z</time></trkpt><trkpt lat="31.9242333" lon="-9.2514817"><ele>109.0</ele><time>2026-04-26T12:25:50.397Z</time></trkpt><trkpt lat="31.9244167" lon="-9.2514083"><ele>109.0</ele><time>2026-04-26T12:25:51.397Z</time></trkpt><trkpt lat="31.924595" lon="-9.2513333"><ele>109.0</ele><time>2026-04-26T12:25:52.397Z</time></trkpt><trkpt lat="31.9247817" lon="-9.2512583"><ele>109.0</ele><time>2026-04-26T12:25:53.397Z</time></trkpt><trkpt lat="31.924965" lon="-9.2511817"><ele>109.0</ele><time>2026-04-26T12:25:54.397Z</time></trkpt><trkpt lat="31.9251567" lon="-9.2511133"><ele>108.66666666666667</ele><time>2026-04-26T12:25:55.397Z</time></trkpt><trkpt lat="31.9253517" lon="-9.25104"><ele>108.33333333333334</ele><time>2026-04-26T12:25:56.397Z</time></trkpt><trkpt lat="31.9255483" lon="-9.250965"><ele>108.0</ele><time>2026-04-26T12:25:57.397Z</time></trkpt><trkpt lat="31.92574" lon="-9.2508833"><ele>108.33333333333334</ele><time>2026-04-26T12:25:58.397Z</time></trkpt><trkpt lat="31.9259417" lon="-9.250805"><ele>108.66666666666667</ele><time>2026-04-26T12:25:59.397Z</time></trkpt><trkpt lat="31.9261317" lon="-9.2507267"><ele>109.0</ele><time>2026-04-26T12:26:00.397Z</time></trkpt><trkpt lat="31.92632" lon="-9.2506517"><ele>108.66666666666667</ele><time>2026-04-26T12:26:01.397Z</time></trkpt><trkpt lat="31.9265133" lon="-9.250565"><ele>108.33333333333334</ele><time>2026-04-26T12:26:02.397Z</time></trkpt><trkpt lat="31.9267217" lon="-9.250475"><ele>108.0</ele><time>2026-04-26T12:26:03.397Z</time></trkpt><trkpt lat="31.926935" lon="-9.250395"><ele>109.33333333333334</ele><time>2026-04-26T12:26:04.397Z</time></trkpt><trkpt lat="31.9271433" lon="-9.2503133"><ele>110.66666666666667</ele><time>2026-04-26T12:26:05.397Z</time></trkpt><trkpt lat="31.9273483" lon="-9.25023"><ele>112.0</ele><time>2026-04-26T12:26:06.397Z</time></trkpt><trkpt lat="31.92755" lon="-9.2501567"><ele>112.33333333333334</ele><time>2026-04-26T12:26:07.397Z</time></trkpt><trkpt lat="31.927755" lon="-9.2500783"><ele>112.66666666666666</ele><time>2026-04-26T12:26:08.397Z</time></trkpt><trkpt lat="31.9279583" lon="-9.249995"><ele>113.0</ele><time>2026-04-26T12:26:09.397Z</time></trkpt><trkpt lat="31.9281583" lon="-9.2499117"><ele>113.0</ele><time>2026-04-26T12:26:10.397Z</time></trkpt><trkpt lat="31.9283633" lon="-9.24983"><ele>113.0</ele><time>2026-04-26T12:26:11.397Z</time></trkpt><trkpt lat="31.9285717" lon="-9.24975"><ele>113.0</ele><time>2026-04-26T12:26:12.397Z</time></trkpt><trkpt lat="31.928785" lon="-9.249665"><ele>114.0</ele><time>2026-04-26T12:26:13.397Z</time></trkpt><trkpt lat="31.929005" lon="-9.2495783"><ele>115.0</ele><time>2026-04-26T12:26:14.397Z</time></trkpt><trkpt lat="31.9292217" lon="-9.2494933"><ele>114.66666666666667</ele><time>2026-04-26T12:26:15.397Z</time></trkpt><trkpt lat="31.9294317" lon="-9.2494083"><ele>114.33333333333334</ele><time>2026-04-26T12:26:16.397Z</time></trkpt><trkpt lat="31.929635" lon="-9.24933"><ele>114.0</ele><time>2026-04-26T12:26:17.397Z</time></trkpt><trkpt lat="31.9298333" lon="-9.24925"><ele>114.0</ele><time>2026-04-26T12:26:18.397Z</time></trkpt><trkpt lat="31.9300283" lon="-9.24917"><ele>114.0</ele><time>2026-04-26T12:26:19.397Z</time></trkpt><trkpt lat="31.9302217" lon="-9.249095"><ele>114.0</ele><time>2026-04-26T12:26:20.397Z</time></trkpt><trkpt lat="31.93042" lon="-9.2490133"><ele>115.33333333333334</ele><time>2026-04-26T12:26:21.397Z</time></trkpt><trkpt lat="31.9306167" lon="-9.2489317"><ele>116.66666666666667</ele><time>2026-04-26T12:26:22.397Z</time></trkpt><trkpt lat="31.93081" lon="-9.2488533"><ele>118.0</ele><time>2026-04-26T12:26:23.397Z</time></trkpt><trkpt lat="31.9310017" lon="-9.24878"><ele>119.33333333333334</ele><time>2026-04-26T12:26:24.397Z</time></trkpt><trkpt lat="31.9311967" lon="-9.2487067"><ele>120.66666666666666</ele><time>2026-04-26T12:26:25.397Z</time></trkpt><trkpt lat="31.93138" lon="-9.2486333"><ele>122.0</ele><time>2026-04-26T12:26:26.397Z</time></trkpt><trkpt lat="31.9315517" lon="-9.248565"><ele>122.0</ele><time>2026-04-26T12:26:27.397Z</time></trkpt><trkpt lat="31.9317183" lon="-9.2485067"><ele>122.0</ele><time>2026-04-26T12:26:28.397Z</time></trkpt><trkpt lat="31.93188" lon="-9.2484417"><ele>122.0</ele><time>2026-04-26T12:26:29.397Z</time></trkpt><trkpt lat="31.93204" lon="-9.2483817"><ele>122.66666666666666</ele><time>2026-04-26T12:26:30.397Z</time></trkpt><trkpt lat="31.932195" lon="-9.2483217"><ele>123.33333333333334</ele><time>2026-04-26T12:26:31.397Z</time></trkpt><trkpt lat="31.93234" lon="-9.2482733"><ele>124.0</ele><time>2026-04-26T12:26:32.397Z</time></trkpt><trkpt lat="31.9324717" lon="-9.2482217"><ele>124.0</ele><time>2026-04-26T12:26:33.397Z</time></trkpt><trkpt lat="31.9326083" lon="-9.248165"><ele>124.0</ele><time>2026-04-26T12:26:34.397Z</time></trkpt><trkpt lat="31.93275" lon="-9.2481083"><ele>124.0</ele><time>2026-04-26T12:26:35.397Z</time></trkpt><trkpt lat="31.9328983" lon="-9.2480517"><ele>124.0</ele><time>2026-04-26T12:26:36.397Z</time></trkpt><trkpt lat="31.933045" lon="-9.2479967"><ele>124.0</ele><time>2026-04-26T12:26:37.397Z</time></trkpt><trkpt lat="31.93318" lon="-9.2479367"><ele>124.0</ele><time>2026-04-26T12:26:38.397Z</time></trkpt><trkpt lat="31.9333167" lon="-9.24788"><ele>124.0</ele><time>2026-04-26T12:26:39.397Z</time></trkpt><trkpt lat="31.9334617" lon="-9.2478233"><ele>123.66666666666667</ele><time>2026-04-26T12:26:40.398Z</time></trkpt><trkpt lat="31.9336183" lon="-9.2477633"><ele>123.33333333333334</ele><time>2026-04-26T12:26:41.397Z</time></trkpt><trkpt lat="31.93379" lon="-9.2477033"><ele>123.0</ele><time>2026-04-26T12:26:42.397Z</time></trkpt><trkpt lat="31.9339783" lon="-9.2476383"><ele>123.0</ele><time>2026-04-26T12:26:43.397Z</time></trkpt><trkpt lat="31.9341717" lon="-9.2475567"><ele>123.0</ele><time>2026-04-26T12:26:44.397Z</time></trkpt><trkpt lat="31.9343733" lon="-9.2474733"><ele>123.0</ele><time>2026-04-26T12:26:45.397Z</time></trkpt><trkpt lat="31.9345867" lon="-9.2473817"><ele>123.0</ele><time>2026-04-26T12:26:46.397Z</time></trkpt><trkpt lat="31.934815" lon="-9.2472867"><ele>123.0</ele><time>2026-04-26T12:26:47.397Z</time></trkpt><trkpt lat="31.93505" lon="-9.24719"><ele>123.5</ele><time>2026-04-26T12:26:48.397Z</time></trkpt><trkpt lat="31.9352767" lon="-9.2471"><ele>124.0</ele><time>2026-04-26T12:26:49.397Z</time></trkpt><trkpt lat="31.9355017" lon="-9.2470117"><ele>124.0</ele><time>2026-04-26T12:26:50.397Z</time></trkpt><trkpt lat="31.935735" lon="-9.2469167"><ele>124.0</ele><time>2026-04-26T12:26:51.397Z</time></trkpt><trkpt lat="31.9359833" lon="-9.246825"><ele>120.5</ele><time>2026-04-26T12:26:52.397Z</time></trkpt><trkpt lat="31.9362383" lon="-9.2467183"><ele>117.0</ele><time>2026-04-26T12:26:53.397Z</time></trkpt><trkpt lat="31.9364967" lon="-9.2466183"><ele>117.0</ele><time>2026-04-26T12:26:54.397Z</time></trkpt><trkpt lat="31.936745" lon="-9.24652"><ele>117.0</ele><time>2026-04-26T12:26:55.397Z</time></trkpt><trkpt lat="31.9369817" lon="-9.2464283"><ele>118.0</ele><time>2026-04-26T12:26:56.397Z</time></trkpt><trkpt lat="31.9372033" lon="-9.2463433"><ele>119.0</ele><time>2026-04-26T12:26:57.397Z</time></trkpt><trkpt lat="31.9374117" lon="-9.2462633"><ele>119.33333333333333</ele><time>2026-04-26T12:26:58.397Z</time></trkpt><trkpt lat="31.9376133" lon="-9.246185"><ele>119.66666666666666</ele><time>2026-04-26T12:26:59.397Z</time></trkpt><trkpt lat="31.937815" lon="-9.246105"><ele>120.0</ele><time>2026-04-26T12:27:00.397Z</time></trkpt><trkpt lat="31.938015" lon="-9.246025"><ele>120.0</ele><time>2026-04-26T12:27:01.397Z</time></trkpt><trkpt lat="31.9382167" lon="-9.2459417"><ele>120.0</ele><time>2026-04-26T12:27:02.397Z</time></trkpt><trkpt lat="31.9384133" lon="-9.2458617"><ele>120.0</ele><time>2026-04-26T12:27:03.397Z</time></trkpt><trkpt lat="31.93861" lon="-9.2457817"><ele>120.0</ele><time>2026-04-26T12:27:04.397Z</time></trkpt><trkpt lat="31.9388" lon="-9.24571"><ele>120.0</ele><time>2026-04-26T12:27:05.397Z</time></trkpt><trkpt lat="31.9389867" lon="-9.245635"><ele>120.0</ele><time>2026-04-26T12:27:06.397Z</time></trkpt><trkpt lat="31.9391717" lon="-9.245565"><ele>120.0</ele><time>2026-04-26T12:27:07.397Z</time></trkpt><trkpt lat="31.939355" lon="-9.2454917"><ele>120.0</ele><time>2026-04-26T12:27:08.397Z</time></trkpt><trkpt lat="31.939535" lon="-9.24542"><ele>120.0</ele><time>2026-04-26T12:27:09.397Z</time></trkpt><trkpt lat="31.9397217" lon="-9.24535"><ele>120.0</ele><time>2026-04-26T12:27:10.397Z</time></trkpt><trkpt lat="31.9399033" lon="-9.2452733"><ele>120.0</ele><time>2026-04-26T12:27:11.397Z</time></trkpt><trkpt lat="31.9400883" lon="-9.2451983"><ele>120.0</ele><time>2026-04-26T12:27:12.397Z</time></trkpt><trkpt lat="31.9402717" lon="-9.2451233"><ele>119.33333333333334</ele><time>2026-04-26T12:27:13.397Z</time></trkpt><trkpt lat="31.9404583" lon="-9.24505"><ele>118.66666666666667</ele><time>2026-04-26T12:27:14.397Z</time></trkpt><trkpt lat="31.9406467" lon="-9.244975"><ele>118.0</ele><time>2026-04-26T12:27:15.397Z</time></trkpt><trkpt lat="31.9408367" lon="-9.244895"><ele>118.0</ele><time>2026-04-26T12:27:16.397Z</time></trkpt><trkpt lat="31.9410333" lon="-9.244815"><ele>118.0</ele><time>2026-04-26T12:27:17.397Z</time></trkpt><trkpt lat="31.941225" lon="-9.2447433"><ele>118.0</ele><time>2026-04-26T12:27:18.398Z</time></trkpt><trkpt lat="31.9414133" lon="-9.2446683"><ele>118.0</ele><time>2026-04-26T12:27:19.397Z</time></trkpt><trkpt lat="31.9415967" lon="-9.244595"><ele>118.0</ele><time>2026-04-26T12:27:20.397Z</time></trkpt><trkpt lat="31.9417817" lon="-9.2445267"><ele>118.0</ele><time>2026-04-26T12:27:21.397Z</time></trkpt><trkpt lat="31.9419667" lon="-9.2444583"><ele>118.0</ele><time>2026-04-26T12:27:22.397Z</time></trkpt><trkpt lat="31.9421567" lon="-9.244385"><ele>118.0</ele><time>2026-04-26T12:27:23.397Z</time></trkpt><trkpt lat="31.9423433" lon="-9.2443117"><ele>118.0</ele><time>2026-04-26T12:27:24.397Z</time></trkpt><trkpt lat="31.9425317" lon="-9.244225"><ele>117.66666666666667</ele><time>2026-04-26T12:27:25.397Z</time></trkpt><trkpt lat="31.9427233" lon="-9.24415"><ele>117.33333333333334</ele><time>2026-04-26T12:27:26.397Z</time></trkpt><trkpt lat="31.942925" lon="-9.2440667"><ele>117.0</ele><time>2026-04-26T12:27:27.397Z</time></trkpt><trkpt lat="31.9431217" lon="-9.2439833"><ele>118.0</ele><time>2026-04-26T12:27:28.397Z</time></trkpt><trkpt lat="31.943325" lon="-9.2438983"><ele>119.0</ele><time>2026-04-26T12:27:29.397Z</time></trkpt><trkpt lat="31.9435367" lon="-9.24381"><ele>120.0</ele><time>2026-04-26T12:27:30.397Z</time></trkpt><trkpt lat="31.9437533" lon="-9.2437267"><ele>120.0</ele><time>2026-04-26T12:27:31.397Z</time></trkpt><trkpt lat="31.9439733" lon="-9.24364"><ele>120.0</ele><time>2026-04-26T12:27:32.397Z</time></trkpt><trkpt lat="31.9441983" lon="-9.2435467"><ele>120.5</ele><time>2026-04-26T12:27:33.397Z</time></trkpt><trkpt lat="31.9444167" lon="-9.2434617"><ele>121.0</ele><time>2026-04-26T12:27:34.397Z</time></trkpt><trkpt lat="31.9446283" lon="-9.24338"><ele>121.0</ele><time>2026-04-26T12:27:35.397Z</time></trkpt><trkpt lat="31.9448233" lon="-9.2433"><ele>121.0</ele><time>2026-04-26T12:27:36.397Z</time></trkpt><trkpt lat="31.9450167" lon="-9.2432283"><ele>121.0</ele><time>2026-04-26T12:27:37.397Z</time></trkpt><trkpt lat="31.9452083" lon="-9.2431517"><ele>120.66666666666667</ele><time>2026-04-26T12:27:38.397Z</time></trkpt><trkpt lat="31.9454083" lon="-9.2430767"><ele>120.33333333333334</ele><time>2026-04-26T12:27:39.397Z</time></trkpt><trkpt lat="31.94561" lon="-9.2429933"><ele>120.0</ele><time>2026-04-26T12:27:40.397Z</time></trkpt><trkpt lat="31.945805" lon="-9.24291"><ele>119.66666666666666</ele><time>2026-04-26T12:27:41.397Z</time></trkpt><trkpt lat="31.9459983" lon="-9.24283"><ele>119.33333333333333</ele><time>2026-04-26T12:27:42.397Z</time></trkpt><trkpt lat="31.946185" lon="-9.2427533"><ele>119.0</ele><time>2026-04-26T12:27:43.397Z</time></trkpt><trkpt lat="31.94638" lon="-9.2426717"><ele>119.0</ele><time>2026-04-26T12:27:44.397Z</time></trkpt><trkpt lat="31.9465833" lon="-9.2425867"><ele>119.0</ele><time>2026-04-26T12:27:45.397Z</time></trkpt><trkpt lat="31.9467917" lon="-9.2425083"><ele>119.0</ele><time>2026-04-26T12:27:46.397Z</time></trkpt><trkpt lat="31.9469967" lon="-9.242435"><ele>119.33333333333333</ele><time>2026-04-26T12:27:47.397Z</time></trkpt><trkpt lat="31.947195" lon="-9.24237"><ele>119.66666666666666</ele><time>2026-04-26T12:27:48.397Z</time></trkpt><trkpt lat="31.9473967" lon="-9.2423133"><ele>120.0</ele><time>2026-04-26T12:27:49.397Z</time></trkpt><trkpt lat="31.9476033" lon="-9.2422583"><ele>120.0</ele><time>2026-04-26T12:27:50.397Z</time></trkpt><trkpt lat="31.9478183" lon="-9.2422017"><ele>120.0</ele><time>2026-04-26T12:27:51.397Z</time></trkpt><trkpt lat="31.9480383" lon="-9.2421533"><ele>120.0</ele><time>2026-04-26T12:27:52.398Z</time></trkpt><trkpt lat="31.9482583" lon="-9.2421133"><ele>119.33333333333334</ele><time>2026-04-26T12:27:53.397Z</time></trkpt><trkpt lat="31.9484833" lon="-9.2420783"><ele>118.66666666666667</ele><time>2026-04-26T12:27:54.397Z</time></trkpt><trkpt lat="31.9487017" lon="-9.242045"><ele>118.0</ele><time>2026-04-26T12:27:55.397Z</time></trkpt><trkpt lat="31.9489183" lon="-9.2420183"><ele>118.0</ele><time>2026-04-26T12:27:56.397Z</time></trkpt><trkpt lat="31.9491367" lon="-9.241995"><ele>118.0</ele><time>2026-04-26T12:27:57.397Z</time></trkpt><trkpt lat="31.9493617" lon="-9.2419717"><ele>118.0</ele><time>2026-04-26T12:27:58.397Z</time></trkpt><trkpt lat="31.9495917" lon="-9.2419467"><ele>116.5</ele><time>2026-04-26T12:27:59.398Z</time></trkpt><trkpt lat="31.9498217" lon="-9.241915"><ele>115.0</ele><time>2026-04-26T12:28:00.397Z</time></trkpt><trkpt lat="31.9500567" lon="-9.2418867"><ele>113.5</ele><time>2026-04-26T12:28:01.397Z</time></trkpt><trkpt lat="31.950285" lon="-9.2418617"><ele>112.0</ele><time>2026-04-26T12:28:02.397Z</time></trkpt><trkpt lat="31.950505" lon="-9.2418367"><ele>112.0</ele><time>2026-04-26T12:28:03.397Z</time></trkpt><trkpt lat="31.9507217" lon="-9.2418133"><ele>112.0</ele><time>2026-04-26T12:28:04.397Z</time></trkpt><trkpt lat="31.95094" lon="-9.2417917"><ele>112.0</ele><time>2026-04-26T12:28:05.397Z</time></trkpt><trkpt lat="31.9511617" lon="-9.2417683"><ele>110.66666666666667</ele><time>2026-04-26T12:28:06.397Z</time></trkpt><trkpt lat="31.9513817" lon="-9.2417467"><ele>109.33333333333334</ele><time>2026-04-26T12:28:07.397Z</time></trkpt><trkpt lat="31.9515983" lon="-9.2417283"><ele>108.0</ele><time>2026-04-26T12:28:08.398Z</time></trkpt><trkpt lat="31.951805" lon="-9.2417067"><ele>108.0</ele><time>2026-04-26T12:28:09.397Z</time></trkpt><trkpt lat="31.9520033" lon="-9.241685"><ele>108.0</ele><time>2026-04-26T12:28:10.397Z</time></trkpt><trkpt lat="31.9521983" lon="-9.2416633"><ele>108.0</ele><time>2026-04-26T12:28:11.397Z</time></trkpt><trkpt lat="31.9523933" lon="-9.2416383"><ele>109.0</ele><time>2026-04-26T12:28:12.397Z</time></trkpt><trkpt lat="31.9525967" lon="-9.241605"><ele>110.0</ele><time>2026-04-26T12:28:13.397Z</time></trkpt><trkpt lat="31.9527967" lon="-9.241565"><ele>111.0</ele><time>2026-04-26T12:28:14.397Z</time></trkpt><trkpt lat="31.9529933" lon="-9.2415133"><ele>111.66666666666666</ele><time>2026-04-26T12:28:15.397Z</time></trkpt><trkpt lat="31.9531817" lon="-9.2414517"><ele>112.33333333333333</ele><time>2026-04-26T12:28:16.397Z</time></trkpt><trkpt lat="31.9533667" lon="-9.241375"><ele>113.0</ele><time>2026-04-26T12:28:17.397Z</time></trkpt><trkpt lat="31.9535567" lon="-9.24129"><ele>113.33333333333333</ele><time>2026-04-26T12:28:18.397Z</time></trkpt><trkpt lat="31.9537367" lon="-9.2411917"><ele>113.66666666666666</ele><time>2026-04-26T12:28:19.397Z</time></trkpt><trkpt lat="31.953915" lon="-9.2410817"><ele>114.0</ele><time>2026-04-26T12:28:20.397Z</time></trkpt><trkpt lat="31.9540867" lon="-9.240955"><ele>116.0</ele><time>2026-04-26T12:28:21.397Z</time></trkpt><trkpt lat="31.954255" lon="-9.2408117"><ele>118.0</ele><time>2026-04-26T12:28:22.397Z</time></trkpt><trkpt lat="31.9544183" lon="-9.2406617"><ele>120.0</ele><time>2026-04-26T12:28:23.396Z</time></trkpt><trkpt lat="31.954575" lon="-9.2405"><ele>120.0</ele><time>2026-04-26T12:28:24.396Z</time></trkpt><trkpt lat="31.9547333" lon="-9.2403333"><ele>120.0</ele><time>2026-04-26T12:28:25.396Z</time></trkpt><trkpt lat="31.95489" lon="-9.2401683"><ele>120.0</ele><time>2026-04-26T12:28:26.396Z</time></trkpt><trkpt lat="31.9550433" lon="-9.2399983"><ele>119.66666666666666</ele><time>2026-04-26T12:28:27.396Z</time></trkpt><trkpt lat="31.9551983" lon="-9.2398267"><ele>119.33333333333333</ele><time>2026-04-26T12:28:28.396Z</time></trkpt><trkpt lat="31.9553467" lon="-9.2396583"><ele>119.0</ele><time>2026-04-26T12:28:29.396Z</time></trkpt><trkpt lat="31.955485" lon="-9.2395017"><ele>119.0</ele><time>2026-04-26T12:28:30.396Z</time></trkpt><trkpt lat="31.95562" lon="-9.2393533"><ele>119.0</ele><time>2026-04-26T12:28:31.396Z</time></trkpt><trkpt lat="31.9557567" lon="-9.239205"><ele>119.0</ele><time>2026-04-26T12:28:32.396Z</time></trkpt><trkpt lat="31.9559033" lon="-9.23906"><ele>120.0</ele><time>2026-04-26T12:28:33.396Z</time></trkpt><trkpt lat="31.9560583" lon="-9.2389233"><ele>121.0</ele><time>2026-04-26T12:28:34.396Z</time></trkpt><trkpt lat="31.9562217" lon="-9.2387917"><ele>122.0</ele><time>2026-04-26T12:28:35.396Z</time></trkpt><trkpt lat="31.9563883" lon="-9.2386583"><ele>122.0</ele><time>2026-04-26T12:28:36.396Z</time></trkpt><trkpt lat="31.956565" lon="-9.23854"><ele>122.0</ele><time>2026-04-26T12:28:37.396Z</time></trkpt><trkpt lat="31.9567517" lon="-9.238425"><ele>122.0</ele><time>2026-04-26T12:28:38.396Z</time></trkpt><trkpt lat="31.9569433" lon="-9.2383133"><ele>123.0</ele><time>2026-04-26T12:28:39.396Z</time></trkpt><trkpt lat="31.95714" lon="-9.23822"><ele>124.0</ele><time>2026-04-26T12:28:40.396Z</time></trkpt><trkpt lat="31.957335" lon="-9.2381367"><ele>125.0</ele><time>2026-04-26T12:28:41.396Z</time></trkpt><trkpt lat="31.9575367" lon="-9.238065"><ele>125.33333333333333</ele><time>2026-04-26T12:28:42.396Z</time></trkpt><trkpt lat="31.9577383" lon="-9.238"><ele>125.66666666666666</ele><time>2026-04-26T12:28:43.396Z</time></trkpt><trkpt lat="31.9579433" lon="-9.237935"><ele>126.0</ele><time>2026-04-26T12:28:44.396Z</time></trkpt><trkpt lat="31.958135" lon="-9.2378717"><ele>126.0</ele><time>2026-04-26T12:28:45.396Z</time></trkpt><trkpt lat="31.9583167" lon="-9.237805"><ele>126.0</ele><time>2026-04-26T12:28:46.396Z</time></trkpt><trkpt lat="31.9585" lon="-9.2377383"><ele>126.0</ele><time>2026-04-26T12:28:47.396Z</time></trkpt><trkpt lat="31.958695" lon="-9.2376767"><ele>126.33333333333334</ele><time>2026-04-26T12:28:48.396Z</time></trkpt><trkpt lat="31.9588867" lon="-9.2376117"><ele>126.66666666666667</ele><time>2026-04-26T12:28:49.396Z</time></trkpt><trkpt lat="31.9590767" lon="-9.2375483"><ele>127.0</ele><time>2026-04-26T12:28:50.396Z</time></trkpt><trkpt lat="31.9592733" lon="-9.2374883"><ele>128.66666666666669</ele><time>2026-04-26T12:28:51.396Z</time></trkpt><trkpt lat="31.9594717" lon="-9.2374283"><ele>130.33333333333334</ele><time>2026-04-26T12:28:52.396Z</time></trkpt><trkpt lat="31.9596667" lon="-9.2373617"><ele>132.0</ele><time>2026-04-26T12:28:53.396Z</time></trkpt><trkpt lat="31.9598583" lon="-9.2373"><ele>133.33333333333334</ele><time>2026-04-26T12:28:54.396Z</time></trkpt><trkpt lat="31.96005" lon="-9.2372417"><ele>134.66666666666669</ele><time>2026-04-26T12:28:55.396Z</time></trkpt><trkpt lat="31.9602483" lon="-9.23718"><ele>136.0</ele><time>2026-04-26T12:28:56.396Z</time></trkpt><trkpt lat="31.9604517" lon="-9.2371117"><ele>136.0</ele><time>2026-04-26T12:28:57.396Z</time></trkpt><trkpt lat="31.9606483" lon="-9.23705"><ele>136.0</ele><time>2026-04-26T12:28:58.396Z</time></trkpt><trkpt lat="31.96084" lon="-9.2369883"><ele>136.0</ele><time>2026-04-26T12:28:59.396Z</time></trkpt><trkpt lat="31.961025" lon="-9.2369267"><ele>136.66666666666669</ele><time>2026-04-26T12:29:00.396Z</time></trkpt><trkpt lat="31.96122" lon="-9.236865"><ele>137.33333333333334</ele><time>2026-04-26T12:29:01.396Z</time></trkpt><trkpt lat="31.961425" lon="-9.2368017"><ele>138.0</ele><time>2026-04-26T12:29:02.396Z</time></trkpt><trkpt lat="31.9616483" lon="-9.2367317"><ele>139.5</ele><time>2026-04-26T12:29:03.396Z</time></trkpt><trkpt lat="31.9618783" lon="-9.2366583"><ele>141.0</ele><time>2026-04-26T12:29:04.396Z</time></trkpt><trkpt lat="31.9620883" lon="-9.236585"><ele>141.0</ele><time>2026-04-26T12:29:05.396Z</time></trkpt><trkpt lat="31.9622917" lon="-9.2365183"><ele>141.0</ele><time>2026-04-26T12:29:06.396Z</time></trkpt><trkpt lat="31.9624983" lon="-9.2364583"><ele>141.0</ele><time>2026-04-26T12:29:07.396Z</time></trkpt><trkpt lat="31.9627033" lon="-9.2363933"><ele>139.66666666666666</ele><time>2026-04-26T12:29:08.396Z</time></trkpt><trkpt lat="31.962895" lon="-9.23633"><ele>138.33333333333331</ele><time>2026-04-26T12:29:09.396Z</time></trkpt><trkpt lat="31.9630917" lon="-9.2362583"><ele>137.0</ele><time>2026-04-26T12:29:10.396Z</time></trkpt><trkpt lat="31.96329" lon="-9.2361783"><ele>137.66666666666666</ele><time>2026-04-26T12:29:11.397Z</time></trkpt><trkpt lat="31.96349" lon="-9.2360883"><ele>138.33333333333334</ele><time>2026-04-26T12:29:12.396Z</time></trkpt><trkpt lat="31.9636917" lon="-9.2359817"><ele>139.0</ele><time>2026-04-26T12:29:13.396Z</time></trkpt><trkpt lat="31.9638917" lon="-9.23587"><ele>139.0</ele><time>2026-04-26T12:29:14.396Z</time></trkpt><trkpt lat="31.9640767" lon="-9.23575"><ele>139.0</ele><time>2026-04-26T12:29:15.396Z</time></trkpt><trkpt lat="31.96425" lon="-9.2356233"><ele>139.0</ele><time>2026-04-26T12:29:16.396Z</time></trkpt><trkpt lat="31.9644183" lon="-9.2354867"><ele>141.0</ele><time>2026-04-26T12:29:17.396Z</time></trkpt><trkpt lat="31.9645817" lon="-9.23535"><ele>143.0</ele><time>2026-04-26T12:29:18.396Z</time></trkpt><trkpt lat="31.96473" lon="-9.235215"><ele>145.0</ele><time>2026-04-26T12:29:19.396Z</time></trkpt><trkpt lat="31.964865" lon="-9.235085"><ele>145.0</ele><time>2026-04-26T12:29:20.396Z</time></trkpt><trkpt lat="31.9649933" lon="-9.2349667"><ele>145.0</ele><time>2026-04-26T12:29:21.396Z</time></trkpt><trkpt lat="31.96511" lon="-9.2348483"><ele>145.0</ele><time>2026-04-26T12:29:22.396Z</time></trkpt><trkpt lat="31.965225" lon="-9.23474"><ele>146.25</ele><time>2026-04-26T12:29:23.396Z</time></trkpt><trkpt lat="31.9653383" lon="-9.2346367"><ele>147.5</ele><time>2026-04-26T12:29:24.396Z</time></trkpt><trkpt lat="31.9654533" lon="-9.2345233"><ele>148.75</ele><time>2026-04-26T12:29:25.396Z</time></trkpt><trkpt lat="31.9655733" lon="-9.234415"><ele>150.0</ele><time>2026-04-26T12:29:26.396Z</time></trkpt><trkpt lat="31.9656833" lon="-9.2342983"><ele>150.0</ele><time>2026-04-26T12:29:27.396Z</time></trkpt><trkpt lat="31.9658017" lon="-9.2341867"><ele>150.0</ele><time>2026-04-26T12:29:28.396Z</time></trkpt><trkpt lat="31.9659267" lon="-9.23408"><ele>150.0</ele><time>2026-04-26T12:29:29.396Z</time></trkpt><trkpt lat="31.9660417" lon="-9.2339683"><ele>150.75</ele><time>2026-04-26T12:29:30.396Z</time></trkpt><trkpt lat="31.9661467" lon="-9.2338567"><ele>151.5</ele><time>2026-04-26T12:29:31.396Z</time></trkpt><trkpt lat="31.96625" lon="-9.2337467"><ele>152.25</ele><time>2026-04-26T12:29:32.396Z</time></trkpt><trkpt lat="31.96635" lon="-9.2336383"><ele>153.0</ele><time>2026-04-26T12:29:33.396Z</time></trkpt><trkpt lat="31.9664533" lon="-9.2335233"><ele>153.0</ele><time>2026-04-26T12:29:34.396Z</time></trkpt><trkpt lat="31.9665683" lon="-9.2334267"><ele>153.0</ele><time>2026-04-26T12:29:35.396Z</time></trkpt><trkpt lat="31.966685" lon="-9.23332"><ele>153.0</ele><time>2026-04-26T12:29:36.396Z</time></trkpt><trkpt lat="31.9668" lon="-9.2332167"><ele>153.0</ele><time>2026-04-26T12:29:37.396Z</time></trkpt><trkpt lat="31.966915" lon="-9.2331083"><ele>154.33333333333334</ele><time>2026-04-26T12:29:38.397Z</time></trkpt><trkpt lat="31.96703" lon="-9.2329967"><ele>155.66666666666669</ele><time>2026-04-26T12:29:39.396Z</time></trkpt><trkpt lat="31.9671483" lon="-9.2328817"><ele>157.0</ele><time>2026-04-26T12:29:40.396Z</time></trkpt><trkpt lat="31.967265" lon="-9.2327683"><ele>157.0</ele><time>2026-04-26T12:29:41.396Z</time></trkpt><trkpt lat="31.9673833" lon="-9.2326583"><ele>157.0</ele><time>2026-04-26T12:29:42.396Z</time></trkpt><trkpt lat="31.9675" lon="-9.2325467"><ele>157.0</ele><time>2026-04-26T12:29:43.396Z</time></trkpt><trkpt lat="31.96761" lon="-9.2324467"><ele>157.0</ele><time>2026-04-26T12:29:44.396Z</time></trkpt><trkpt lat="31.9677183" lon="-9.23235"><ele>157.5</ele><time>2026-04-26T12:29:45.396Z</time></trkpt><trkpt lat="31.967825" lon="-9.23225"><ele>158.0</ele><time>2026-04-26T12:29:46.396Z</time></trkpt><trkpt lat="31.9679383" lon="-9.232145"><ele>158.5</ele><time>2026-04-26T12:29:47.396Z</time></trkpt><trkpt lat="31.9680583" lon="-9.2320333"><ele>159.0</ele><time>2026-04-26T12:29:48.396Z</time></trkpt><trkpt lat="31.9681767" lon="-9.231915"><ele>159.0</ele><time>2026-04-26T12:29:49.397Z</time></trkpt><trkpt lat="31.9682983" lon="-9.2318033"><ele>159.0</ele><time>2026-04-26T12:29:50.396Z</time></trkpt><trkpt lat="31.968415" lon="-9.2316883"><ele>159.0</ele><time>2026-04-26T12:29:51.396Z</time></trkpt><trkpt lat="31.968535" lon="-9.2315767"><ele>160.66666666666666</ele><time>2026-04-26T12:29:52.397Z</time></trkpt><trkpt lat="31.9686583" lon="-9.2314583"><ele>162.33333333333331</ele><time>2026-04-26T12:29:53.396Z</time></trkpt><trkpt lat="31.9687833" lon="-9.2313383"><ele>164.0</ele><time>2026-04-26T12:29:54.396Z</time></trkpt><trkpt lat="31.96891" lon="-9.2312133"><ele>164.0</ele><time>2026-04-26T12:29:55.396Z</time></trkpt><trkpt lat="31.96904" lon="-9.231095"><ele>164.0</ele><time>2026-04-26T12:29:56.396Z</time></trkpt><trkpt lat="31.96917" lon="-9.2309683"><ele>164.0</ele><time>2026-04-26T12:29:57.396Z</time></trkpt><trkpt lat="31.9693" lon="-9.2308467"><ele>164.0</ele><time>2026-04-26T12:29:58.396Z</time></trkpt><trkpt lat="31.9694283" lon="-9.2307267"><ele>164.0</ele><time>2026-04-26T12:29:59.397Z</time></trkpt><trkpt lat="31.96955" lon="-9.23061"><ele>164.0</ele><time>2026-04-26T12:30:00.396Z</time></trkpt><trkpt lat="31.9696717" lon="-9.2304917"><ele>164.66666666666666</ele><time>2026-04-26T12:30:01.396Z</time></trkpt><trkpt lat="31.969805" lon="-9.23037"><ele>165.33333333333334</ele><time>2026-04-26T12:30:02.396Z</time></trkpt><trkpt lat="31.96994" lon="-9.23024"><ele>166.0</ele><time>2026-04-26T12:30:03.396Z</time></trkpt><trkpt lat="31.9700733" lon="-9.23012"><ele>166.0</ele><time>2026-04-26T12:30:04.396Z</time></trkpt><trkpt lat="31.9702" lon="-9.23"><ele>166.0</ele><time>2026-04-26T12:30:05.396Z</time></trkpt><trkpt lat="31.9703283" lon="-9.2298833"><ele>166.0</ele><time>2026-04-26T12:30:06.396Z</time></trkpt><trkpt lat="31.9704633" lon="-9.2297667"><ele>167.0</ele><time>2026-04-26T12:30:07.396Z</time></trkpt><trkpt lat="31.9706017" lon="-9.229655"><ele>168.0</ele><time>2026-04-26T12:30:08.396Z</time></trkpt><trkpt lat="31.9707433" lon="-9.2295433"><ele>169.0</ele><time>2026-04-26T12:30:09.396Z</time></trkpt><trkpt lat="31.9708883" lon="-9.2294317"><ele>169.0</ele><time>2026-04-26T12:30:10.396Z</time></trkpt><trkpt lat="31.9710367" lon="-9.2293267"><ele>169.0</ele><time>2026-04-26T12:30:11.396Z</time></trkpt><trkpt lat="31.9711933" lon="-9.22922"><ele>169.0</ele><time>2026-04-26T12:30:12.396Z</time></trkpt><trkpt lat="31.9713517" lon="-9.229115"><ele>169.0</ele><time>2026-04-26T12:30:13.396Z</time></trkpt><trkpt lat="31.9715133" lon="-9.2290067"><ele>169.0</ele><time>2026-04-26T12:30:14.396Z</time></trkpt><trkpt lat="31.9716783" lon="-9.2288967"><ele>169.0</ele><time>2026-04-26T12:30:15.396Z</time></trkpt><trkpt lat="31.9718417" lon="-9.2287883"><ele>169.0</ele><time>2026-04-26T12:30:16.396Z</time></trkpt><trkpt lat="31.972005" lon="-9.2286833"><ele>169.0</ele><time>2026-04-26T12:30:17.396Z</time></trkpt><trkpt lat="31.9721633" lon="-9.2285817"><ele>169.0</ele><time>2026-04-26T12:30:18.397Z</time></trkpt><trkpt lat="31.972315" lon="-9.228475"><ele>169.0</ele><time>2026-04-26T12:30:19.396Z</time></trkpt><trkpt lat="31.972475" lon="-9.2283733"><ele>169.0</ele><time>2026-04-26T12:30:20.396Z</time></trkpt><trkpt lat="31.97264" lon="-9.22827"><ele>169.0</ele><time>2026-04-26T12:30:21.396Z</time></trkpt><trkpt lat="31.9728083" lon="-9.22816"><ele>170.33333333333334</ele><time>2026-04-26T12:30:22.396Z</time></trkpt><trkpt lat="31.9729783" lon="-9.228045"><ele>171.66666666666666</ele><time>2026-04-26T12:30:23.396Z</time></trkpt><trkpt lat="31.9731483" lon="-9.2279317"><ele>173.0</ele><time>2026-04-26T12:30:24.396Z</time></trkpt><trkpt lat="31.9733167" lon="-9.22782"><ele>173.0</ele><time>2026-04-26T12:30:25.396Z</time></trkpt><trkpt lat="31.9734867" lon="-9.2277033"><ele>173.0</ele><time>2026-04-26T12:30:26.396Z</time></trkpt><trkpt lat="31.973655" lon="-9.2276"><ele>173.0</ele><time>2026-04-26T12:30:27.396Z</time></trkpt><trkpt lat="31.9738233" lon="-9.2274883"><ele>173.0</ele><time>2026-04-26T12:30:28.396Z</time></trkpt><trkpt lat="31.9739933" lon="-9.2273783"><ele>173.0</ele><time>2026-04-26T12:30:29.396Z</time></trkpt><trkpt lat="31.9741617" lon="-9.22727"><ele>173.0</ele><time>2026-04-26T12:30:30.396Z</time></trkpt><trkpt lat="31.9743233" lon="-9.2271583"><ele>173.33333333333331</ele><time>2026-04-26T12:30:31.396Z</time></trkpt><trkpt lat="31.9744883" lon="-9.22705"><ele>173.66666666666666</ele><time>2026-04-26T12:30:32.396Z</time></trkpt><trkpt lat="31.974655" lon="-9.2269417"><ele>174.0</ele><time>2026-04-26T12:30:33.397Z</time></trkpt><trkpt lat="31.97482" lon="-9.226825"><ele>174.0</ele><time>2026-04-26T12:30:34.396Z</time></trkpt><trkpt lat="31.9749883" lon="-9.2267133"><ele>174.0</ele><time>2026-04-26T12:30:35.396Z</time></trkpt><trkpt lat="31.9751567" lon="-9.2265983"><ele>174.0</ele><time>2026-04-26T12:30:36.396Z</time></trkpt><trkpt lat="31.97532" lon="-9.2264867"><ele>174.66666666666666</ele><time>2026-04-26T12:30:37.396Z</time></trkpt><trkpt lat="31.9754867" lon="-9.2263733"><ele>175.33333333333331</ele><time>2026-04-26T12:30:38.396Z</time></trkpt><trkpt lat="31.9756533" lon="-9.2262667"><ele>176.0</ele><time>2026-04-26T12:30:39.396Z</time></trkpt><trkpt lat="31.9758217" lon="-9.2261583"><ele>176.33333333333331</ele><time>2026-04-26T12:30:40.396Z</time></trkpt><trkpt lat="31.9759917" lon="-9.2260467"><ele>176.66666666666666</ele><time>2026-04-26T12:30:41.396Z</time></trkpt><trkpt lat="31.97616" lon="-9.2259367"><ele>177.0</ele><time>2026-04-26T12:30:42.396Z</time></trkpt><trkpt lat="31.9763317" lon="-9.225825"><ele>177.0</ele><time>2026-04-26T12:30:43.396Z</time></trkpt><trkpt lat="31.976505" lon="-9.2257083"><ele>177.0</ele><time>2026-04-26T12:30:44.396Z</time></trkpt><trkpt lat="31.9766817" lon="-9.2255883"><ele>177.0</ele><time>2026-04-26T12:30:45.396Z</time></trkpt><trkpt lat="31.9768517" lon="-9.2254683"><ele>177.0</ele><time>2026-04-26T12:30:46.396Z</time></trkpt><trkpt lat="31.9770317" lon="-9.2253467"><ele>177.0</ele><time>2026-04-26T12:30:47.396Z</time></trkpt><trkpt lat="31.977215" lon="-9.225225"><ele>177.0</ele><time>2026-04-26T12:30:48.396Z</time></trkpt><trkpt lat="31.9773917" lon="-9.2251083"><ele>176.66666666666666</ele><time>2026-04-26T12:30:49.396Z</time></trkpt><trkpt lat="31.9775733" lon="-9.2249883"><ele>176.33333333333331</ele><time>2026-04-26T12:30:50.396Z</time></trkpt><trkpt lat="31.97776" lon="-9.2248683"><ele>176.0</ele><time>2026-04-26T12:30:51.396Z</time></trkpt><trkpt lat="31.9779467" lon="-9.2247483"><ele>177.0</ele><time>2026-04-26T12:30:52.396Z</time></trkpt><trkpt lat="31.97814" lon="-9.2246217"><ele>178.0</ele><time>2026-04-26T12:30:53.396Z</time></trkpt><trkpt lat="31.9783367" lon="-9.2244917"><ele>179.0</ele><time>2026-04-26T12:30:54.396Z</time></trkpt><trkpt lat="31.9785333" lon="-9.22436"><ele>179.0</ele><time>2026-04-26T12:30:55.396Z</time></trkpt><trkpt lat="31.9787283" lon="-9.2242267"><ele>179.0</ele><time>2026-04-26T12:30:56.396Z</time></trkpt><trkpt lat="31.9789267" lon="-9.224095"><ele>179.5</ele><time>2026-04-26T12:30:57.396Z</time></trkpt><trkpt lat="31.97912" lon="-9.2239617"><ele>180.0</ele><time>2026-04-26T12:30:58.396Z</time></trkpt><trkpt lat="31.9793183" lon="-9.2238267"><ele>178.0</ele><time>2026-04-26T12:30:59.396Z</time></trkpt><trkpt lat="31.9795167" lon="-9.2237"><ele>176.0</ele><time>2026-04-26T12:31:00.396Z</time></trkpt><trkpt lat="31.9797083" lon="-9.2235783"><ele>174.0</ele><time>2026-04-26T12:31:01.396Z</time></trkpt><trkpt lat="31.9799017" lon="-9.2234533"><ele>173.33333333333334</ele><time>2026-04-26T12:31:02.396Z</time></trkpt><trkpt lat="31.9800833" lon="-9.2233367"><ele>172.66666666666669</ele><time>2026-04-26T12:31:03.396Z</time></trkpt><trkpt lat="31.98027" lon="-9.223215"><ele>172.0</ele><time>2026-04-26T12:31:04.396Z</time></trkpt><trkpt lat="31.9804567" lon="-9.2230883"><ele>172.0</ele><time>2026-04-26T12:31:05.397Z</time></trkpt><trkpt lat="31.9806367" lon="-9.22297"><ele>172.0</ele><time>2026-04-26T12:31:06.396Z</time></trkpt><trkpt lat="31.9808083" lon="-9.2228583"><ele>172.0</ele><time>2026-04-26T12:31:07.397Z</time></trkpt><trkpt lat="31.9809817" lon="-9.2227433"><ele>172.33333333333334</ele><time>2026-04-26T12:31:08.396Z</time></trkpt><trkpt lat="31.981155" lon="-9.2226283"><ele>172.66666666666666</ele><time>2026-04-26T12:31:09.396Z</time></trkpt><trkpt lat="31.981335" lon="-9.222505"><ele>173.0</ele><time>2026-04-26T12:31:10.396Z</time></trkpt><trkpt lat="31.98152" lon="-9.2223767"><ele>172.66666666666666</ele><time>2026-04-26T12:31:11.396Z</time></trkpt><trkpt lat="31.9817083" lon="-9.2222517"><ele>172.33333333333334</ele><time>2026-04-26T12:31:12.396Z</time></trkpt><trkpt lat="31.9819033" lon="-9.2221283"><ele>172.0</ele><time>2026-04-26T12:31:13.396Z</time></trkpt><trkpt lat="31.9820967" lon="-9.2220033"><ele>172.0</ele><time>2026-04-26T12:31:14.396Z</time></trkpt><trkpt lat="31.9822867" lon="-9.22188"><ele>172.0</ele><time>2026-04-26T12:31:15.396Z</time></trkpt><trkpt lat="31.982475" lon="-9.2217533"><ele>172.0</ele><time>2026-04-26T12:31:16.396Z</time></trkpt><trkpt lat="31.9826683" lon="-9.2216317"><ele>173.0</ele><time>2026-04-26T12:31:17.396Z</time></trkpt><trkpt lat="31.9828633" lon="-9.2214983"><ele>174.0</ele><time>2026-04-26T12:31:18.396Z</time></trkpt><trkpt lat="31.9830567" lon="-9.2213717"><ele>175.0</ele><time>2026-04-26T12:31:19.396Z</time></trkpt><trkpt lat="31.983255" lon="-9.2212433"><ele>176.33333333333334</ele><time>2026-04-26T12:31:20.396Z</time></trkpt><trkpt lat="31.9834467" lon="-9.22112"><ele>177.66666666666666</ele><time>2026-04-26T12:31:21.396Z</time></trkpt><trkpt lat="31.9836267" lon="-9.2209983"><ele>179.0</ele><time>2026-04-26T12:31:22.396Z</time></trkpt><trkpt lat="31.9838" lon="-9.220885"><ele>179.0</ele><time>2026-04-26T12:31:23.396Z</time></trkpt><trkpt lat="31.9839833" lon="-9.220775"><ele>179.0</ele><time>2026-04-26T12:31:24.396Z</time></trkpt><trkpt lat="31.984175" lon="-9.22066"><ele>179.0</ele><time>2026-04-26T12:31:25.396Z</time></trkpt><trkpt lat="31.9843767" lon="-9.2205483"><ele>180.0</ele><time>2026-04-26T12:31:26.396Z</time></trkpt><trkpt lat="31.9845833" lon="-9.220445"><ele>181.0</ele><time>2026-04-26T12:31:27.396Z</time></trkpt><trkpt lat="31.984795" lon="-9.2203383"><ele>182.5</ele><time>2026-04-26T12:31:28.396Z</time></trkpt><trkpt lat="31.9850133" lon="-9.2202367"><ele>184.0</ele><time>2026-04-26T12:31:29.396Z</time></trkpt><trkpt lat="31.985235" lon="-9.220145"><ele>184.0</ele><time>2026-04-26T12:31:30.396Z</time></trkpt><trkpt lat="31.9854583" lon="-9.2200567"><ele>184.0</ele><time>2026-04-26T12:31:31.396Z</time></trkpt><trkpt lat="31.9856767" lon="-9.21997"><ele>184.0</ele><time>2026-04-26T12:31:32.396Z</time></trkpt><trkpt lat="31.9858933" lon="-9.2198833"><ele>184.0</ele><time>2026-04-26T12:31:33.396Z</time></trkpt><trkpt lat="31.9861" lon="-9.2197967"><ele>184.0</ele><time>2026-04-26T12:31:34.396Z</time></trkpt><trkpt lat="31.9862933" lon="-9.21972"><ele>184.0</ele><time>2026-04-26T12:31:35.396Z</time></trkpt><trkpt lat="31.9864717" lon="-9.219645"><ele>184.0</ele><time>2026-04-26T12:31:36.396Z</time></trkpt><trkpt lat="31.986645" lon="-9.2195767"><ele>184.0</ele><time>2026-04-26T12:31:37.396Z</time></trkpt><trkpt lat="31.9868267" lon="-9.2195117"><ele>184.33333333333334</ele><time>2026-04-26T12:31:38.396Z</time></trkpt><trkpt lat="31.9870117" lon="-9.2194417"><ele>184.66666666666666</ele><time>2026-04-26T12:31:39.396Z</time></trkpt><trkpt lat="31.9872067" lon="-9.219365"><ele>185.0</ele><time>2026-04-26T12:31:40.396Z</time></trkpt><trkpt lat="31.987415" lon="-9.21928"><ele>185.5</ele><time>2026-04-26T12:31:41.396Z</time></trkpt><trkpt lat="31.9876367" lon="-9.2191967"><ele>186.0</ele><time>2026-04-26T12:31:42.396Z</time></trkpt><trkpt lat="31.98787" lon="-9.2191083"><ele>186.0</ele><time>2026-04-26T12:31:43.396Z</time></trkpt><trkpt lat="31.988105" lon="-9.2190133"><ele>186.0</ele><time>2026-04-26T12:31:44.396Z</time></trkpt><trkpt lat="31.9883383" lon="-9.2189233"><ele>187.5</ele><time>2026-04-26T12:31:45.396Z</time></trkpt><trkpt lat="31.988565" lon="-9.2188383"><ele>189.0</ele><time>2026-04-26T12:31:46.396Z</time></trkpt><trkpt lat="31.98878" lon="-9.2187567"><ele>189.0</ele><time>2026-04-26T12:31:47.396Z</time></trkpt><trkpt lat="31.9889833" lon="-9.218675"><ele>189.0</ele><time>2026-04-26T12:31:48.397Z</time></trkpt><trkpt lat="31.9891733" lon="-9.2185967"><ele>189.0</ele><time>2026-04-26T12:31:49.396Z</time></trkpt><trkpt lat="31.989355" lon="-9.2185217"><ele>189.66666666666666</ele><time>2026-04-26T12:31:50.396Z</time></trkpt><trkpt lat="31.989525" lon="-9.2184533"><ele>190.33333333333331</ele><time>2026-04-26T12:31:51.396Z</time></trkpt><trkpt lat="31.9896933" lon="-9.2183833"><ele>191.0</ele><time>2026-04-26T12:31:52.396Z</time></trkpt><trkpt lat="31.9898583" lon="-9.21831"><ele>190.33333333333331</ele><time>2026-04-26T12:31:53.396Z</time></trkpt><trkpt lat="31.9900317" lon="-9.2182467"><ele>189.66666666666666</ele><time>2026-04-26T12:31:54.396Z</time></trkpt><trkpt lat="31.9902183" lon="-9.2181817"><ele>189.0</ele><time>2026-04-26T12:31:55.396Z</time></trkpt><trkpt lat="31.9904167" lon="-9.2181117"><ele>189.0</ele><time>2026-04-26T12:31:56.396Z</time></trkpt><trkpt lat="31.9906267" lon="-9.2180383"><ele>189.0</ele><time>2026-04-26T12:31:57.396Z</time></trkpt><trkpt lat="31.9908467" lon="-9.21795"><ele>188.0</ele><time>2026-04-26T12:31:58.396Z</time></trkpt><trkpt lat="31.99107" lon="-9.2178617"><ele>187.0</ele><time>2026-04-26T12:31:59.396Z</time></trkpt><trkpt lat="31.9912933" lon="-9.2177683"><ele>187.0</ele><time>2026-04-26T12:32:00.396Z</time></trkpt><trkpt lat="31.9915217" lon="-9.2176683"><ele>187.0</ele><time>2026-04-26T12:32:01.396Z</time></trkpt><trkpt lat="31.9917583" lon="-9.2175633"><ele>186.0</ele><time>2026-04-26T12:32:02.396Z</time></trkpt><trkpt lat="31.9919983" lon="-9.217465"><ele>185.0</ele><time>2026-04-26T12:32:03.397Z</time></trkpt><trkpt lat="31.9922417" lon="-9.2173667"><ele>186.0</ele><time>2026-04-26T12:32:04.396Z</time></trkpt><trkpt lat="31.9924883" lon="-9.2172667"><ele>187.0</ele><time>2026-04-26T12:32:05.396Z</time></trkpt><trkpt lat="31.992735" lon="-9.2171683"><ele>187.5</ele><time>2026-04-26T12:32:06.396Z</time></trkpt><trkpt lat="31.9929867" lon="-9.2170667"><ele>188.0</ele><time>2026-04-26T12:32:07.396Z</time></trkpt><trkpt lat="31.9932433" lon="-9.216965"><ele>185.0</ele><time>2026-04-26T12:32:08.396Z</time></trkpt><trkpt lat="31.9935017" lon="-9.2168633"><ele>182.0</ele><time>2026-04-26T12:32:09.397Z</time></trkpt><trkpt lat="31.9937583" lon="-9.21676"><ele>182.0</ele><time>2026-04-26T12:32:10.396Z</time></trkpt><trkpt lat="31.994015" lon="-9.2166533"><ele>182.0</ele><time>2026-04-26T12:32:11.396Z</time></trkpt><trkpt lat="31.9942733" lon="-9.21655"><ele>180.5</ele><time>2026-04-26T12:32:12.396Z</time></trkpt><trkpt lat="31.9945367" lon="-9.2164433"><ele>179.0</ele><time>2026-04-26T12:32:13.396Z</time></trkpt><trkpt lat="31.9948017" lon="-9.2163417"><ele>179.0</ele><time>2026-04-26T12:32:14.396Z</time></trkpt><trkpt lat="31.9950567" lon="-9.216235"><ele>179.0</ele><time>2026-04-26T12:32:15.396Z</time></trkpt><trkpt lat="31.9953" lon="-9.2161417"><ele>179.0</ele><time>2026-04-26T12:32:16.396Z</time></trkpt><trkpt lat="31.9955383" lon="-9.21604"><ele>179.0</ele><time>2026-04-26T12:32:17.396Z</time></trkpt><trkpt lat="31.99578" lon="-9.21593"><ele>179.5</ele><time>2026-04-26T12:32:18.396Z</time></trkpt><trkpt lat="31.99602" lon="-9.2158067"><ele>180.0</ele><time>2026-04-26T12:32:19.396Z</time></trkpt><trkpt lat="31.9962467" lon="-9.2156783"><ele>180.0</ele><time>2026-04-26T12:32:20.396Z</time></trkpt><trkpt lat="31.9964617" lon="-9.2155433"><ele>180.0</ele><time>2026-04-26T12:32:21.396Z</time></trkpt><trkpt lat="31.99667" lon="-9.2154017"><ele>179.0</ele><time>2026-04-26T12:32:22.396Z</time></trkpt><trkpt lat="31.9968767" lon="-9.21526"><ele>178.0</ele><time>2026-04-26T12:32:23.396Z</time></trkpt><trkpt lat="31.9970667" lon="-9.21511"><ele>178.0</ele><time>2026-04-26T12:32:24.396Z</time></trkpt><trkpt lat="31.997245" lon="-9.214955"><ele>178.0</ele><time>2026-04-26T12:32:25.396Z</time></trkpt><trkpt lat="31.9974167" lon="-9.2147967"><ele>178.0</ele><time>2026-04-26T12:32:26.396Z</time></trkpt><trkpt lat="31.997585" lon="-9.214635"><ele>178.33333333333334</ele><time>2026-04-26T12:32:27.396Z</time></trkpt><trkpt lat="31.9977467" lon="-9.2144717"><ele>178.66666666666666</ele><time>2026-04-26T12:32:28.396Z</time></trkpt><trkpt lat="31.9979117" lon="-9.2143017"><ele>179.0</ele><time>2026-04-26T12:32:29.396Z</time></trkpt><trkpt lat="31.998085" lon="-9.2141333"><ele>177.0</ele><time>2026-04-26T12:32:30.397Z</time></trkpt><trkpt lat="31.998265" lon="-9.21396"><ele>175.0</ele><time>2026-04-26T12:32:31.396Z</time></trkpt><trkpt lat="31.9984467" lon="-9.2137767"><ele>175.0</ele><time>2026-04-26T12:32:32.397Z</time></trkpt><trkpt lat="31.9986233" lon="-9.213595"><ele>175.0</ele><time>2026-04-26T12:32:33.396Z</time></trkpt><trkpt lat="31.9987933" lon="-9.2134217"><ele>175.0</ele><time>2026-04-26T12:32:34.396Z</time></trkpt><trkpt lat="31.998955" lon="-9.2132617"><ele>175.0</ele><time>2026-04-26T12:32:35.396Z</time></trkpt><trkpt lat="31.9991117" lon="-9.2131017"><ele>175.0</ele><time>2026-04-26T12:32:36.397Z</time></trkpt><trkpt lat="31.999265" lon="-9.21294"><ele>174.33333333333334</ele><time>2026-04-26T12:32:37.396Z</time></trkpt><trkpt lat="31.9994117" lon="-9.21279"><ele>173.66666666666666</ele><time>2026-04-26T12:32:38.396Z</time></trkpt><trkpt lat="31.9995417" lon="-9.2126383"><ele>173.0</ele><time>2026-04-26T12:32:39.396Z</time></trkpt><trkpt lat="31.9996667" lon="-9.212505"><ele>173.0</ele><time>2026-04-26T12:32:40.396Z</time></trkpt><trkpt lat="31.9997833" lon="-9.2123767"><ele>173.0</ele><time>2026-04-26T12:32:41.396Z</time></trkpt><trkpt lat="31.999895" lon="-9.2122617"><ele>173.0</ele><time>2026-04-26T12:32:42.396Z</time></trkpt><trkpt lat="32.000005" lon="-9.2121517"><ele>173.0</ele><time>2026-04-26T12:32:43.396Z</time></trkpt><trkpt lat="32.0001183" lon="-9.212035"><ele>173.0</ele><time>2026-04-26T12:32:44.396Z</time></trkpt><trkpt lat="32.0002367" lon="-9.2119083"><ele>173.0</ele><time>2026-04-26T12:32:45.396Z</time></trkpt><trkpt lat="32.0003567" lon="-9.2117833"><ele>173.0</ele><time>2026-04-26T12:32:46.396Z</time></trkpt><trkpt lat="32.0004783" lon="-9.2116617"><ele>173.0</ele><time>2026-04-26T12:32:47.396Z</time></trkpt><trkpt lat="32.0006017" lon="-9.2115367"><ele>173.0</ele><time>2026-04-26T12:32:48.396Z</time></trkpt><trkpt lat="32.0007317" lon="-9.211405"><ele>172.33333333333331</ele><time>2026-04-26T12:32:49.396Z</time></trkpt><trkpt lat="32.000865" lon="-9.2112667"><ele>171.66666666666666</ele><time>2026-04-26T12:32:50.396Z</time></trkpt><trkpt lat="32.001" lon="-9.21114"><ele>171.0</ele><time>2026-04-26T12:32:51.396Z</time></trkpt><trkpt lat="32.001135" lon="-9.2110083"><ele>171.0</ele><time>2026-04-26T12:32:52.396Z</time></trkpt><trkpt lat="32.0012717" lon="-9.2108717"><ele>171.0</ele><time>2026-04-26T12:32:53.396Z</time></trkpt><trkpt lat="32.00141" lon="-9.2107267"><ele>171.0</ele><time>2026-04-26T12:32:54.396Z</time></trkpt><trkpt lat="32.001555" lon="-9.210585"><ele>171.0</ele><time>2026-04-26T12:32:55.396Z</time></trkpt><trkpt lat="32.0017017" lon="-9.2104383"><ele>171.0</ele><time>2026-04-26T12:32:56.396Z</time></trkpt><trkpt lat="32.001845" lon="-9.2102917"><ele>171.0</ele><time>2026-04-26T12:32:57.396Z</time></trkpt><trkpt lat="32.0019767" lon="-9.2101533"><ele>171.0</ele><time>2026-04-26T12:32:58.396Z</time></trkpt><trkpt lat="32.00211" lon="-9.2100117"><ele>171.0</ele><time>2026-04-26T12:32:59.396Z</time></trkpt><trkpt lat="32.002255" lon="-9.20987"><ele>171.0</ele><time>2026-04-26T12:33:00.396Z</time></trkpt><trkpt lat="32.002395" lon="-9.2097233"><ele>170.33333333333334</ele><time>2026-04-26T12:33:01.396Z</time></trkpt><trkpt lat="32.00253" lon="-9.209585"><ele>169.66666666666669</ele><time>2026-04-26T12:33:02.396Z</time></trkpt><trkpt lat="32.0026567" lon="-9.2094533"><ele>169.0</ele><time>2026-04-26T12:33:03.396Z</time></trkpt><trkpt lat="32.002785" lon="-9.20932"><ele>169.0</ele><time>2026-04-26T12:33:04.396Z</time></trkpt><trkpt lat="32.0029233" lon="-9.20918"><ele>169.0</ele><time>2026-04-26T12:33:05.396Z</time></trkpt><trkpt lat="32.0030683" lon="-9.2090333"><ele>169.0</ele><time>2026-04-26T12:33:06.396Z</time></trkpt><trkpt lat="32.0032217" lon="-9.2088817"><ele>169.33333333333334</ele><time>2026-04-26T12:33:07.396Z</time></trkpt><trkpt lat="32.0033783" lon="-9.2087283"><ele>169.66666666666666</ele><time>2026-04-26T12:33:08.396Z</time></trkpt><trkpt lat="32.0035317" lon="-9.2085783"><ele>170.0</ele><time>2026-04-26T12:33:09.396Z</time></trkpt><trkpt lat="32.0036733" lon="-9.2084317"><ele>170.0</ele><time>2026-04-26T12:33:10.396Z</time></trkpt><trkpt lat="32.0038117" lon="-9.2082867"><ele>170.0</ele><time>2026-04-26T12:33:11.396Z</time></trkpt><trkpt lat="32.00395" lon="-9.2081433"><ele>170.0</ele><time>2026-04-26T12:33:12.396Z</time></trkpt><trkpt lat="32.0040917" lon="-9.208"><ele>170.0</ele><time>2026-04-26T12:33:13.396Z</time></trkpt><trkpt lat="32.0042317" lon="-9.2078533"><ele>170.0</ele><time>2026-04-26T12:33:14.396Z</time></trkpt><trkpt lat="32.004375" lon="-9.207705"><ele>170.0</ele><time>2026-04-26T12:33:15.396Z</time></trkpt><trkpt lat="32.0045217" lon="-9.207555"><ele>170.0</ele><time>2026-04-26T12:33:16.396Z</time></trkpt><trkpt lat="32.004665" lon="-9.2074083"><ele>170.0</ele><time>2026-04-26T12:33:17.396Z</time></trkpt><trkpt lat="32.00481" lon="-9.2072617"><ele>170.0</ele><time>2026-04-26T12:33:18.395Z</time></trkpt><trkpt lat="32.0049583" lon="-9.2071083"><ele>169.33333333333331</ele><time>2026-04-26T12:33:19.395Z</time></trkpt><trkpt lat="32.0051083" lon="-9.2069483"><ele>168.66666666666666</ele><time>2026-04-26T12:33:20.395Z</time></trkpt><trkpt lat="32.0052683" lon="-9.20679"><ele>168.0</ele><time>2026-04-26T12:33:21.395Z</time></trkpt><trkpt lat="32.0054283" lon="-9.2066283"><ele>168.33333333333334</ele><time>2026-04-26T12:33:22.395Z</time></trkpt><trkpt lat="32.005585" lon="-9.2064667"><ele>168.66666666666669</ele><time>2026-04-26T12:33:23.395Z</time></trkpt><trkpt lat="32.0057433" lon="-9.2063083"><ele>169.0</ele><time>2026-04-26T12:33:24.395Z</time></trkpt><trkpt lat="32.0059" lon="-9.2061517"><ele>169.0</ele><time>2026-04-26T12:33:25.395Z</time></trkpt><trkpt lat="32.00606" lon="-9.205995"><ele>169.0</ele><time>2026-04-26T12:33:26.395Z</time></trkpt><trkpt lat="32.006225" lon="-9.2058283"><ele>169.0</ele><time>2026-04-26T12:33:27.395Z</time></trkpt><trkpt lat="32.00639" lon="-9.2056617"><ele>169.66666666666669</ele><time>2026-04-26T12:33:28.395Z</time></trkpt><trkpt lat="32.00655" lon="-9.2054933"><ele>170.33333333333334</ele><time>2026-04-26T12:33:29.395Z</time></trkpt><trkpt lat="32.006705" lon="-9.2053333"><ele>171.0</ele><time>2026-04-26T12:33:30.395Z</time></trkpt><trkpt lat="32.0068533" lon="-9.2051833"><ele>171.66666666666666</ele><time>2026-04-26T12:33:31.395Z</time></trkpt><trkpt lat="32.0070033" lon="-9.2050333"><ele>172.33333333333331</ele><time>2026-04-26T12:33:32.396Z</time></trkpt><trkpt lat="32.00716" lon="-9.2048733"><ele>173.0</ele><time>2026-04-26T12:33:33.395Z</time></trkpt><trkpt lat="32.0073217" lon="-9.2047083"><ele>174.33333333333331</ele><time>2026-04-26T12:33:34.395Z</time></trkpt><trkpt lat="32.0074833" lon="-9.20454"><ele>175.66666666666666</ele><time>2026-04-26T12:33:35.395Z</time></trkpt><trkpt lat="32.0076433" lon="-9.2043767"><ele>177.0</ele><time>2026-04-26T12:33:36.395Z</time></trkpt><trkpt lat="32.0078033" lon="-9.204215"><ele>174.66666666666666</ele><time>2026-04-26T12:33:37.395Z</time></trkpt><trkpt lat="32.007965" lon="-9.2040533"><ele>172.33333333333331</ele><time>2026-04-26T12:33:38.395Z</time></trkpt><trkpt lat="32.0081267" lon="-9.2038917"><ele>170.0</ele><time>2026-04-26T12:33:39.395Z</time></trkpt><trkpt lat="32.0082933" lon="-9.203725"><ele>169.0</ele><time>2026-04-26T12:33:40.395Z</time></trkpt><trkpt lat="32.0084583" lon="-9.2035533"><ele>168.0</ele><time>2026-04-26T12:33:41.395Z</time></trkpt><trkpt lat="32.008625" lon="-9.20338"><ele>167.0</ele><time>2026-04-26T12:33:42.395Z</time></trkpt><trkpt lat="32.00879" lon="-9.2032067"><ele>167.33333333333331</ele><time>2026-04-26T12:33:43.395Z</time></trkpt><trkpt lat="32.0089617" lon="-9.2030383"><ele>167.66666666666666</ele><time>2026-04-26T12:33:44.395Z</time></trkpt><trkpt lat="32.0091283" lon="-9.20287"><ele>168.0</ele><time>2026-04-26T12:33:45.395Z</time></trkpt><trkpt lat="32.009295" lon="-9.2027017"><ele>168.0</ele><time>2026-04-26T12:33:46.395Z</time></trkpt><trkpt lat="32.00946" lon="-9.2025333"><ele>168.0</ele><time>2026-04-26T12:33:47.395Z</time></trkpt><trkpt lat="32.009625" lon="-9.2023667"><ele>168.0</ele><time>2026-04-26T12:33:48.395Z</time></trkpt><trkpt lat="32.0097917" lon="-9.2021983"><ele>169.33333333333334</ele><time>2026-04-26T12:33:49.395Z</time></trkpt><trkpt lat="32.0099567" lon="-9.2020267"><ele>170.66666666666669</ele><time>2026-04-26T12:33:50.395Z</time></trkpt><trkpt lat="32.0101217" lon="-9.20186"><ele>172.0</ele><time>2026-04-26T12:33:51.395Z</time></trkpt><trkpt lat="32.0102833" lon="-9.2016917"><ele>172.0</ele><time>2026-04-26T12:33:52.395Z</time></trkpt><trkpt lat="32.010445" lon="-9.2015267"><ele>172.0</ele><time>2026-04-26T12:33:53.395Z</time></trkpt><trkpt lat="32.0106033" lon="-9.2013633"><ele>172.0</ele><time>2026-04-26T12:33:54.395Z</time></trkpt><trkpt lat="32.0107617" lon="-9.2012033"><ele>173.66666666666669</ele><time>2026-04-26T12:33:55.395Z</time></trkpt><trkpt lat="32.01092" lon="-9.2010467"><ele>175.33333333333334</ele><time>2026-04-26T12:33:56.396Z</time></trkpt><trkpt lat="32.0110833" lon="-9.200885"><ele>177.0</ele><time>2026-04-26T12:33:57.395Z</time></trkpt><trkpt lat="32.0112483" lon="-9.2007183"><ele>178.33333333333334</ele><time>2026-04-26T12:33:58.395Z</time></trkpt><trkpt lat="32.0114083" lon="-9.200545"><ele>179.66666666666669</ele><time>2026-04-26T12:33:59.395Z</time></trkpt><trkpt lat="32.011565" lon="-9.2003617"><ele>181.0</ele><time>2026-04-26T12:34:00.395Z</time></trkpt><trkpt lat="32.01172" lon="-9.2001717"><ele>182.0</ele><time>2026-04-26T12:34:01.395Z</time></trkpt><trkpt lat="32.01187" lon="-9.1999717"><ele>183.0</ele><time>2026-04-26T12:34:02.395Z</time></trkpt><trkpt lat="32.012015" lon="-9.19976"><ele>183.0</ele><time>2026-04-26T12:34:03.395Z</time></trkpt><trkpt lat="32.01215" lon="-9.1995383"><ele>183.0</ele><time>2026-04-26T12:34:04.395Z</time></trkpt><trkpt lat="32.0122783" lon="-9.19931"><ele>183.0</ele><time>2026-04-26T12:34:05.395Z</time></trkpt><trkpt lat="32.012395" lon="-9.1990633"><ele>183.0</ele><time>2026-04-26T12:34:06.395Z</time></trkpt><trkpt lat="32.0124967" lon="-9.198815"><ele>183.0</ele><time>2026-04-26T12:34:07.395Z</time></trkpt><trkpt lat="32.0125817" lon="-9.198575"><ele>183.0</ele><time>2026-04-26T12:34:08.395Z</time></trkpt><trkpt lat="32.0126567" lon="-9.19834"><ele>183.0</ele><time>2026-04-26T12:34:09.395Z</time></trkpt><trkpt lat="32.0127283" lon="-9.1981117"><ele>183.0</ele><time>2026-04-26T12:34:10.395Z</time></trkpt><trkpt lat="32.0128" lon="-9.1978867"><ele>183.0</ele><time>2026-04-26T12:34:11.395Z</time></trkpt><trkpt lat="32.0128767" lon="-9.1976667"><ele>183.0</ele><time>2026-04-26T12:34:12.395Z</time></trkpt><trkpt lat="32.0129533" lon="-9.1974467"><ele>184.0</ele><time>2026-04-26T12:34:13.395Z</time></trkpt><trkpt lat="32.01303" lon="-9.1972233"><ele>185.0</ele><time>2026-04-26T12:34:14.395Z</time></trkpt><trkpt lat="32.0131067" lon="-9.1969917"><ele>186.0</ele><time>2026-04-26T12:34:15.395Z</time></trkpt><trkpt lat="32.0131867" lon="-9.19676"><ele>186.0</ele><time>2026-04-26T12:34:16.395Z</time></trkpt><trkpt lat="32.0132667" lon="-9.196525"><ele>186.0</ele><time>2026-04-26T12:34:17.395Z</time></trkpt><trkpt lat="32.0133517" lon="-9.1962933"><ele>186.0</ele><time>2026-04-26T12:34:18.395Z</time></trkpt><trkpt lat="32.0134383" lon="-9.1960567"><ele>189.0</ele><time>2026-04-26T12:34:19.395Z</time></trkpt><trkpt lat="32.0135367" lon="-9.1958267"><ele>192.0</ele><time>2026-04-26T12:34:20.395Z</time></trkpt><trkpt lat="32.013645" lon="-9.1955967"><ele>195.0</ele><time>2026-04-26T12:34:21.395Z</time></trkpt><trkpt lat="32.013765" lon="-9.1953683"><ele>197.5</ele><time>2026-04-26T12:34:22.395Z</time></trkpt><trkpt lat="32.0138917" lon="-9.1951383"><ele>200.0</ele><time>2026-04-26T12:34:23.395Z</time></trkpt><trkpt lat="32.01403" lon="-9.1949183"><ele>199.0</ele><time>2026-04-26T12:34:24.395Z</time></trkpt><trkpt lat="32.0141717" lon="-9.19472"><ele>198.0</ele><time>2026-04-26T12:34:25.395Z</time></trkpt><trkpt lat="32.0143233" lon="-9.1945467"><ele>197.0</ele><time>2026-04-26T12:34:26.396Z</time></trkpt><trkpt lat="32.0144867" lon="-9.1943783"><ele>197.0</ele><time>2026-04-26T12:34:27.395Z</time></trkpt><trkpt lat="32.0146517" lon="-9.194205"><ele>197.0</ele><time>2026-04-26T12:34:28.395Z</time></trkpt><trkpt lat="32.0148117" lon="-9.1940333"><ele>197.0</ele><time>2026-04-26T12:34:29.395Z</time></trkpt><trkpt lat="32.0149733" lon="-9.1938667"><ele>198.0</ele><time>2026-04-26T12:34:30.395Z</time></trkpt><trkpt lat="32.01513" lon="-9.1936967"><ele>199.0</ele><time>2026-04-26T12:34:31.395Z</time></trkpt><trkpt lat="32.0152867" lon="-9.1935333"><ele>200.0</ele><time>2026-04-26T12:34:32.395Z</time></trkpt><trkpt lat="32.0154467" lon="-9.19337"><ele>200.0</ele><time>2026-04-26T12:34:33.395Z</time></trkpt><trkpt lat="32.015605" lon="-9.1932083"><ele>200.0</ele><time>2026-04-26T12:34:34.395Z</time></trkpt><trkpt lat="32.015765" lon="-9.193045"><ele>200.0</ele><time>2026-04-26T12:34:35.395Z</time></trkpt><trkpt lat="32.0159283" lon="-9.19288"><ele>198.66666666666669</ele><time>2026-04-26T12:34:36.395Z</time></trkpt><trkpt lat="32.0160983" lon="-9.1927083"><ele>197.33333333333331</ele><time>2026-04-26T12:34:37.395Z</time></trkpt><trkpt lat="32.0162667" lon="-9.1925433"><ele>196.0</ele><time>2026-04-26T12:34:38.395Z</time></trkpt><trkpt lat="32.0164283" lon="-9.19238"><ele>197.66666666666666</ele><time>2026-04-26T12:34:39.395Z</time></trkpt><trkpt lat="32.01659" lon="-9.1922183"><ele>199.33333333333331</ele><time>2026-04-26T12:34:40.395Z</time></trkpt><trkpt lat="32.0167483" lon="-9.1920583"><ele>201.0</ele><time>2026-04-26T12:34:41.395Z</time></trkpt><trkpt lat="32.0169033" lon="-9.191895"><ele>200.0</ele><time>2026-04-26T12:34:42.395Z</time></trkpt><trkpt lat="32.0170567" lon="-9.1917417"><ele>199.0</ele><time>2026-04-26T12:34:43.395Z</time></trkpt><trkpt lat="32.0172083" lon="-9.1915833"><ele>198.0</ele><time>2026-04-26T12:34:44.395Z</time></trkpt><trkpt lat="32.0173567" lon="-9.1914217"><ele>195.0</ele><time>2026-04-26T12:34:45.395Z</time></trkpt><trkpt lat="32.0175" lon="-9.191255"><ele>192.0</ele><time>2026-04-26T12:34:46.395Z</time></trkpt><trkpt lat="32.0176483" lon="-9.1910933"><ele>189.0</ele><time>2026-04-26T12:34:47.395Z</time></trkpt><trkpt lat="32.0177883" lon="-9.190925"><ele>189.0</ele><time>2026-04-26T12:34:48.395Z</time></trkpt><trkpt lat="32.0179233" lon="-9.1907633"><ele>189.0</ele><time>2026-04-26T12:34:49.395Z</time></trkpt><trkpt lat="32.018055" lon="-9.1905983"><ele>189.0</ele><time>2026-04-26T12:34:50.395Z</time></trkpt><trkpt lat="32.0181833" lon="-9.1904233"><ele>189.33333333333334</ele><time>2026-04-26T12:34:51.395Z</time></trkpt><trkpt lat="32.0183117" lon="-9.1902383"><ele>189.66666666666669</ele><time>2026-04-26T12:34:52.395Z</time></trkpt><trkpt lat="32.018435" lon="-9.1900617"><ele>190.0</ele><time>2026-04-26T12:34:53.395Z</time></trkpt><trkpt lat="32.018555" lon="-9.1898867"><ele>191.33333333333334</ele><time>2026-04-26T12:34:54.395Z</time></trkpt><trkpt lat="32.018665" lon="-9.1897083"><ele>192.66666666666669</ele><time>2026-04-26T12:34:55.395Z</time></trkpt><trkpt lat="32.018775" lon="-9.18954"><ele>194.0</ele><time>2026-04-26T12:34:56.396Z</time></trkpt><trkpt lat="32.0188817" lon="-9.1893767"><ele>194.0</ele><time>2026-04-26T12:34:57.396Z</time></trkpt><trkpt lat="32.01899" lon="-9.18922"><ele>194.0</ele><time>2026-04-26T12:34:58.395Z</time></trkpt><trkpt lat="32.0190967" lon="-9.1890633"><ele>194.0</ele><time>2026-04-26T12:34:59.395Z</time></trkpt><trkpt lat="32.0192067" lon="-9.1889033"><ele>192.0</ele><time>2026-04-26T12:35:00.395Z</time></trkpt><trkpt lat="32.0193217" lon="-9.1887417"><ele>190.0</ele><time>2026-04-26T12:35:01.396Z</time></trkpt><trkpt lat="32.0194317" lon="-9.1885833"><ele>188.0</ele><time>2026-04-26T12:35:02.395Z</time></trkpt><trkpt lat="32.0195333" lon="-9.1884267"><ele>188.0</ele><time>2026-04-26T12:35:03.395Z</time></trkpt><trkpt lat="32.0196317" lon="-9.1882817"><ele>188.0</ele><time>2026-04-26T12:35:04.395Z</time></trkpt><trkpt lat="32.0197383" lon="-9.188135"><ele>188.0</ele><time>2026-04-26T12:35:05.395Z</time></trkpt><trkpt lat="32.0198517" lon="-9.187975"><ele>189.0</ele><time>2026-04-26T12:35:06.395Z</time></trkpt><trkpt lat="32.019965" lon="-9.18781"><ele>190.0</ele><time>2026-04-26T12:35:07.395Z</time></trkpt><trkpt lat="32.020065" lon="-9.187645"><ele>191.0</ele><time>2026-04-26T12:35:08.395Z</time></trkpt><trkpt lat="32.0201667" lon="-9.1874883"><ele>188.0</ele><time>2026-04-26T12:35:09.395Z</time></trkpt><trkpt lat="32.02027" lon="-9.18734"><ele>185.0</ele><time>2026-04-26T12:35:10.395Z</time></trkpt><trkpt lat="32.0203667" lon="-9.1872"><ele>182.0</ele><time>2026-04-26T12:35:11.395Z</time></trkpt><trkpt lat="32.0204617" lon="-9.1870617"><ele>182.0</ele><time>2026-04-26T12:35:12.395Z</time></trkpt><trkpt lat="32.0205583" lon="-9.186915"><ele>182.0</ele><time>2026-04-26T12:35:13.395Z</time></trkpt><trkpt lat="32.0206583" lon="-9.1867683"><ele>182.0</ele><time>2026-04-26T12:35:14.395Z</time></trkpt><trkpt lat="32.020755" lon="-9.1866267"><ele>180.66666666666666</ele><time>2026-04-26T12:35:15.395Z</time></trkpt><trkpt lat="32.020855" lon="-9.1864817"><ele>179.33333333333334</ele><time>2026-04-26T12:35:16.395Z</time></trkpt><trkpt lat="32.02095" lon="-9.1863367"><ele>178.0</ele><time>2026-04-26T12:35:17.395Z</time></trkpt><trkpt lat="32.0210567" lon="-9.1861817"><ele>178.0</ele><time>2026-04-26T12:35:18.395Z</time></trkpt><trkpt lat="32.021175" lon="-9.186025"><ele>178.0</ele><time>2026-04-26T12:35:19.395Z</time></trkpt><trkpt lat="32.021295" lon="-9.1858517"><ele>178.0</ele><time>2026-04-26T12:35:20.395Z</time></trkpt><trkpt lat="32.0214117" lon="-9.1856617"><ele>177.66666666666669</ele><time>2026-04-26T12:35:21.395Z</time></trkpt><trkpt lat="32.02153" lon="-9.1854617"><ele>177.33333333333334</ele><time>2026-04-26T12:35:22.396Z</time></trkpt><trkpt lat="32.0216583" lon="-9.185255"><ele>177.0</ele><time>2026-04-26T12:35:23.395Z</time></trkpt><trkpt lat="32.021795" lon="-9.1850467"><ele>178.0</ele><time>2026-04-26T12:35:24.395Z</time></trkpt><trkpt lat="32.02194" lon="-9.1848383"><ele>179.0</ele><time>2026-04-26T12:35:25.395Z</time></trkpt><trkpt lat="32.0220833" lon="-9.1846267"><ele>179.0</ele><time>2026-04-26T12:35:26.395Z</time></trkpt><trkpt lat="32.0222283" lon="-9.1844133"><ele>179.0</ele><time>2026-04-26T12:35:27.395Z</time></trkpt><trkpt lat="32.0223767" lon="-9.1841933"><ele>180.0</ele><time>2026-04-26T12:35:28.395Z</time></trkpt><trkpt lat="32.0225267" lon="-9.1839667"><ele>181.0</ele><time>2026-04-26T12:35:29.395Z</time></trkpt><trkpt lat="32.0226767" lon="-9.1837433"><ele>181.0</ele><time>2026-04-26T12:35:30.395Z</time></trkpt><trkpt lat="32.0228233" lon="-9.1835333"><ele>181.0</ele><time>2026-04-26T12:35:31.395Z</time></trkpt><trkpt lat="32.0229567" lon="-9.18333"><ele>181.0</ele><time>2026-04-26T12:35:32.395Z</time></trkpt><trkpt lat="32.0230867" lon="-9.1831383"><ele>181.33333333333334</ele><time>2026-04-26T12:35:33.395Z</time></trkpt><trkpt lat="32.0232067" lon="-9.1829533"><ele>181.66666666666666</ele><time>2026-04-26T12:35:34.396Z</time></trkpt><trkpt lat="32.023325" lon="-9.1827817"><ele>182.0</ele><time>2026-04-26T12:35:35.395Z</time></trkpt><trkpt lat="32.0234383" lon="-9.1826117"><ele>182.33333333333331</ele><time>2026-04-26T12:35:36.395Z</time></trkpt><trkpt lat="32.02355" lon="-9.1824433"><ele>182.66666666666666</ele><time>2026-04-26T12:35:37.395Z</time></trkpt><trkpt lat="32.0236633" lon="-9.1822733"><ele>183.0</ele><time>2026-04-26T12:35:38.395Z</time></trkpt><trkpt lat="32.0237767" lon="-9.1821"><ele>183.0</ele><time>2026-04-26T12:35:39.395Z</time></trkpt><trkpt lat="32.0238967" lon="-9.1819317"><ele>183.0</ele><time>2026-04-26T12:35:40.396Z</time></trkpt><trkpt lat="32.0240167" lon="-9.1817583"><ele>183.0</ele><time>2026-04-26T12:35:41.395Z</time></trkpt><trkpt lat="32.02414" lon="-9.1815783"><ele>183.0</ele><time>2026-04-26T12:35:42.395Z</time></trkpt><trkpt lat="32.024265" lon="-9.1813883"><ele>183.0</ele><time>2026-04-26T12:35:43.395Z</time></trkpt><trkpt lat="32.02439" lon="-9.1812"><ele>183.0</ele><time>2026-04-26T12:35:44.395Z</time></trkpt><trkpt lat="32.0245133" lon="-9.1810067"><ele>183.0</ele><time>2026-04-26T12:35:45.396Z</time></trkpt><trkpt lat="32.0246433" lon="-9.1808117"><ele>183.0</ele><time>2026-04-26T12:35:46.395Z</time></trkpt><trkpt lat="32.0247683" lon="-9.1806317"><ele>183.0</ele><time>2026-04-26T12:35:47.395Z</time></trkpt><trkpt lat="32.0248917" lon="-9.1804533"><ele>184.66666666666666</ele><time>2026-04-26T12:35:48.395Z</time></trkpt><trkpt lat="32.0250133" lon="-9.1802733"><ele>186.33333333333331</ele><time>2026-04-26T12:35:49.395Z</time></trkpt><trkpt lat="32.025135" lon="-9.180095"><ele>188.0</ele><time>2026-04-26T12:35:50.395Z</time></trkpt><trkpt lat="32.0252583" lon="-9.1799117"><ele>189.0</ele><time>2026-04-26T12:35:51.395Z</time></trkpt><trkpt lat="32.0253833" lon="-9.1797217"><ele>190.0</ele><time>2026-04-26T12:35:52.395Z</time></trkpt><trkpt lat="32.025505" lon="-9.17953"><ele>191.0</ele><time>2026-04-26T12:35:53.395Z</time></trkpt><trkpt lat="32.02563" lon="-9.179345"><ele>191.0</ele><time>2026-04-26T12:35:54.395Z</time></trkpt><trkpt lat="32.0257583" lon="-9.1791583"><ele>191.0</ele><time>2026-04-26T12:35:55.395Z</time></trkpt><trkpt lat="32.0258867" lon="-9.178965"><ele>191.0</ele><time>2026-04-26T12:35:56.395Z</time></trkpt><trkpt lat="32.02602" lon="-9.17877"><ele>191.0</ele><time>2026-04-26T12:35:57.395Z</time></trkpt><trkpt lat="32.0261517" lon="-9.178565"><ele>191.0</ele><time>2026-04-26T12:35:58.395Z</time></trkpt><trkpt lat="32.0262867" lon="-9.178365"><ele>191.0</ele><time>2026-04-26T12:35:59.395Z</time></trkpt><trkpt lat="32.026425" lon="-9.1781633"><ele>191.66666666666666</ele><time>2026-04-26T12:36:00.395Z</time></trkpt><trkpt lat="32.0265633" lon="-9.17796"><ele>192.33333333333331</ele><time>2026-04-26T12:36:01.395Z</time></trkpt><trkpt lat="32.0266933" lon="-9.1777733"><ele>193.0</ele><time>2026-04-26T12:36:02.395Z</time></trkpt><trkpt lat="32.0268183" lon="-9.1775917"><ele>194.33333333333331</ele><time>2026-04-26T12:36:03.395Z</time></trkpt><trkpt lat="32.0269433" lon="-9.1774133"><ele>195.66666666666669</ele><time>2026-04-26T12:36:04.395Z</time></trkpt><trkpt lat="32.027065" lon="-9.1772317"><ele>197.0</ele><time>2026-04-26T12:36:05.395Z</time></trkpt><trkpt lat="32.027185" lon="-9.1770467"><ele>198.66666666666669</ele><time>2026-04-26T12:36:06.396Z</time></trkpt><trkpt lat="32.0273067" lon="-9.1768633"><ele>200.33333333333331</ele><time>2026-04-26T12:36:07.395Z</time></trkpt><trkpt lat="32.0274283" lon="-9.1766833"><ele>202.0</ele><time>2026-04-26T12:36:08.395Z</time></trkpt><trkpt lat="32.0275483" lon="-9.1765033"><ele>202.0</ele><time>2026-04-26T12:36:09.395Z</time></trkpt><trkpt lat="32.0276617" lon="-9.17633"><ele>202.0</ele><time>2026-04-26T12:36:10.396Z</time></trkpt><trkpt lat="32.0277733" lon="-9.1761567"><ele>202.0</ele><time>2026-04-26T12:36:11.395Z</time></trkpt><trkpt lat="32.02789" lon="-9.1759833"><ele>202.0</ele><time>2026-04-26T12:36:12.395Z</time></trkpt><trkpt lat="32.02801" lon="-9.1758067"><ele>202.0</ele><time>2026-04-26T12:36:13.395Z</time></trkpt><trkpt lat="32.0281317" lon="-9.175625"><ele>202.0</ele><time>2026-04-26T12:36:14.395Z</time></trkpt><trkpt lat="32.0282533" lon="-9.1754467"><ele>201.33333333333331</ele><time>2026-04-26T12:36:15.395Z</time></trkpt><trkpt lat="32.0283683" lon="-9.175275"><ele>200.66666666666669</ele><time>2026-04-26T12:36:16.395Z</time></trkpt><trkpt lat="32.02849" lon="-9.1751067"><ele>200.0</ele><time>2026-04-26T12:36:17.395Z</time></trkpt><trkpt lat="32.0286183" lon="-9.174935"><ele>201.0</ele><time>2026-04-26T12:36:18.395Z</time></trkpt><trkpt lat="32.0287467" lon="-9.1747567"><ele>202.0</ele><time>2026-04-26T12:36:19.395Z</time></trkpt><trkpt lat="32.0288733" lon="-9.1745817"><ele>203.0</ele><time>2026-04-26T12:36:20.395Z</time></trkpt><trkpt lat="32.0289933" lon="-9.1744117"><ele>203.0</ele><time>2026-04-26T12:36:21.395Z</time></trkpt><trkpt lat="32.0291117" lon="-9.174245"><ele>203.0</ele><time>2026-04-26T12:36:22.395Z</time></trkpt><trkpt lat="32.0292333" lon="-9.17408"><ele>203.0</ele><time>2026-04-26T12:36:23.395Z</time></trkpt><trkpt lat="32.029355" lon="-9.17391"><ele>203.33333333333334</ele><time>2026-04-26T12:36:24.395Z</time></trkpt><trkpt lat="32.0294783" lon="-9.1737417"><ele>203.66666666666669</ele><time>2026-04-26T12:36:25.395Z</time></trkpt><trkpt lat="32.0296" lon="-9.1735717"><ele>204.0</ele><time>2026-04-26T12:36:26.395Z</time></trkpt><trkpt lat="32.0297233" lon="-9.173405"><ele>204.0</ele><time>2026-04-26T12:36:27.395Z</time></trkpt><trkpt lat="32.0298467" lon="-9.1732367"><ele>204.0</ele><time>2026-04-26T12:36:28.395Z</time></trkpt><trkpt lat="32.0299683" lon="-9.1730583"><ele>204.0</ele><time>2026-04-26T12:36:29.395Z</time></trkpt><trkpt lat="32.0300967" lon="-9.1728833"><ele>204.33333333333331</ele><time>2026-04-26T12:36:30.395Z</time></trkpt><trkpt lat="32.030225" lon="-9.1727067"><ele>204.66666666666666</ele><time>2026-04-26T12:36:31.395Z</time></trkpt><trkpt lat="32.0303567" lon="-9.1725267"><ele>205.0</ele><time>2026-04-26T12:36:32.395Z</time></trkpt><trkpt lat="32.0304867" lon="-9.1723533"><ele>206.33333333333331</ele><time>2026-04-26T12:36:33.395Z</time></trkpt><trkpt lat="32.03062" lon="-9.1721733"><ele>207.66666666666669</ele><time>2026-04-26T12:36:34.395Z</time></trkpt><trkpt lat="32.0307483" lon="-9.17199"><ele>209.0</ele><time>2026-04-26T12:36:35.395Z</time></trkpt><trkpt lat="32.030875" lon="-9.1718033"><ele>210.0</ele><time>2026-04-26T12:36:36.395Z</time></trkpt><trkpt lat="32.0310083" lon="-9.1716217"><ele>211.0</ele><time>2026-04-26T12:36:37.395Z</time></trkpt><trkpt lat="32.0311367" lon="-9.17143"><ele>212.0</ele><time>2026-04-26T12:36:38.395Z</time></trkpt><trkpt lat="32.0312683" lon="-9.171235"><ele>213.33333333333334</ele><time>2026-04-26T12:36:39.395Z</time></trkpt><trkpt lat="32.0314017" lon="-9.1710383"><ele>214.66666666666669</ele><time>2026-04-26T12:36:40.395Z</time></trkpt><trkpt lat="32.03153" lon="-9.17084"><ele>216.0</ele><time>2026-04-26T12:36:41.395Z</time></trkpt><trkpt lat="32.03165" lon="-9.1706433"><ele>217.33333333333331</ele><time>2026-04-26T12:36:42.395Z</time></trkpt><trkpt lat="32.0317717" lon="-9.1704483"><ele>218.66666666666666</ele><time>2026-04-26T12:36:43.395Z</time></trkpt><trkpt lat="32.0318933" lon="-9.170265"><ele>220.0</ele><time>2026-04-26T12:36:44.395Z</time></trkpt><trkpt lat="32.0320033" lon="-9.17009"><ele>220.0</ele><time>2026-04-26T12:36:45.395Z</time></trkpt><trkpt lat="32.0321117" lon="-9.16992"><ele>220.0</ele><time>2026-04-26T12:36:46.395Z</time></trkpt><trkpt lat="32.03222" lon="-9.1697483"><ele>220.0</ele><time>2026-04-26T12:36:47.395Z</time></trkpt><trkpt lat="32.032325" lon="-9.169575"><ele>218.66666666666666</ele><time>2026-04-26T12:36:48.395Z</time></trkpt><trkpt lat="32.03243" lon="-9.169405"><ele>217.33333333333331</ele><time>2026-04-26T12:36:49.395Z</time></trkpt><trkpt lat="32.0325233" lon="-9.1692383"><ele>216.0</ele><time>2026-04-26T12:36:50.395Z</time></trkpt><trkpt lat="32.032615" lon="-9.16908"><ele>215.33333333333331</ele><time>2026-04-26T12:36:51.395Z</time></trkpt><trkpt lat="32.0327117" lon="-9.16893"><ele>214.66666666666666</ele><time>2026-04-26T12:36:52.395Z</time></trkpt><trkpt lat="32.0327967" lon="-9.1687783"><ele>214.0</ele><time>2026-04-26T12:36:53.395Z</time></trkpt><trkpt lat="32.0328767" lon="-9.1686433"><ele>214.0</ele><time>2026-04-26T12:36:54.395Z</time></trkpt><trkpt lat="32.0329567" lon="-9.1685133"><ele>214.0</ele><time>2026-04-26T12:36:55.395Z</time></trkpt><trkpt lat="32.0330333" lon="-9.168395"><ele>214.0</ele><time>2026-04-26T12:36:56.395Z</time></trkpt><trkpt lat="32.0331083" lon="-9.168275"><ele>214.0</ele><time>2026-04-26T12:36:57.395Z</time></trkpt><trkpt lat="32.0331717" lon="-9.1681483"><ele>214.0</ele><time>2026-04-26T12:36:58.395Z</time></trkpt><trkpt lat="32.0332417" lon="-9.1680217"><ele>214.0</ele><time>2026-04-26T12:36:59.395Z</time></trkpt><trkpt lat="32.0333217" lon="-9.167895"><ele>214.0</ele><time>2026-04-26T12:37:00.395Z</time></trkpt><trkpt lat="32.0334083" lon="-9.1677667"><ele>214.0</ele><time>2026-04-26T12:37:01.395Z</time></trkpt><trkpt lat="32.0334983" lon="-9.1676267"><ele>214.0</ele><time>2026-04-26T12:37:02.395Z</time></trkpt><trkpt lat="32.03359" lon="-9.167495"><ele>214.0</ele><time>2026-04-26T12:37:03.395Z</time></trkpt><trkpt lat="32.0336667" lon="-9.1673717"><ele>214.0</ele><time>2026-04-26T12:37:04.395Z</time></trkpt><trkpt lat="32.0337467" lon="-9.16725"><ele>214.0</ele><time>2026-04-26T12:37:05.395Z</time></trkpt><trkpt lat="32.0338133" lon="-9.1671317"><ele>213.79999999999998</ele><time>2026-04-26T12:37:06.395Z</time></trkpt><trkpt lat="32.03388" lon="-9.1670167"><ele>213.59999999999997</ele><time>2026-04-26T12:37:07.395Z</time></trkpt><trkpt lat="32.0339483" lon="-9.1669133"><ele>213.4</ele><time>2026-04-26T12:37:08.395Z</time></trkpt><trkpt lat="32.03401" lon="-9.1668183"><ele>213.2</ele><time>2026-04-26T12:37:09.395Z</time></trkpt><trkpt lat="32.034075" lon="-9.1667367"><ele>213.0</ele><time>2026-04-26T12:37:10.395Z</time></trkpt><trkpt lat="32.0341283" lon="-9.1666633"><ele>213.0</ele><time>2026-04-26T12:37:11.395Z</time></trkpt><trkpt lat="32.0341783" lon="-9.1665933"><ele>213.0</ele><time>2026-04-26T12:37:12.395Z</time></trkpt><trkpt lat="32.0342233" lon="-9.1665267"><ele>213.0</ele><time>2026-04-26T12:37:13.395Z</time></trkpt><trkpt lat="32.0342633" lon="-9.1664633"><ele>213.0</ele><time>2026-04-26T12:37:14.395Z</time></trkpt><trkpt lat="32.0343317" lon="-9.1663517"><ele>213.0</ele><time>2026-04-26T12:37:16.396Z</time></trkpt><trkpt lat="32.03438" lon="-9.1662767"><ele>213.0</ele><time>2026-04-26T12:37:18.395Z</time></trkpt><trkpt lat="32.03442" lon="-9.1661867"><ele>213.0</ele><time>2026-04-26T12:37:21.395Z</time></trkpt><trkpt lat="32.034475" lon="-9.1660933"><ele>213.0</ele><time>2026-04-26T12:37:24.395Z</time></trkpt><trkpt lat="32.0345133" lon="-9.16603"><ele>213.0</ele><time>2026-04-26T12:37:26.395Z</time></trkpt><trkpt lat="32.0345683" lon="-9.1659517"><ele>213.0</ele><time>2026-04-26T12:37:28.395Z</time></trkpt><trkpt lat="32.0346417" lon="-9.165845"><ele>213.0</ele><time>2026-04-26T12:37:30.395Z</time></trkpt><trkpt lat="32.0346817" lon="-9.1657867"><ele>213.0</ele><time>2026-04-26T12:37:31.395Z</time></trkpt></trkseg><trkseg><trkpt lat="32.213405" lon="-9.012285"><ele>133.0</ele><time>2026-04-26T12:58:42.414Z</time></trkpt><trkpt lat="32.21356" lon="-9.0121483"><ele>133.0</ele><time>2026-04-26T12:58:43.414Z</time></trkpt><trkpt lat="32.2137233" lon="-9.0120183"><ele>133.0</ele><time>2026-04-26T12:58:44.414Z</time></trkpt><trkpt lat="32.2138783" lon="-9.01188"><ele>133.33333333333334</ele><time>2026-04-26T12:58:45.414Z</time></trkpt><trkpt lat="32.2140367" lon="-9.01175"><ele>133.66666666666666</ele><time>2026-04-26T12:58:46.414Z</time></trkpt><trkpt lat="32.214195" lon="-9.0116183"><ele>134.0</ele><time>2026-04-26T12:58:47.414Z</time></trkpt><trkpt lat="32.21436" lon="-9.011495"><ele>134.0</ele><time>2026-04-26T12:58:48.414Z</time></trkpt><trkpt lat="32.2145267" lon="-9.0113617"><ele>134.0</ele><time>2026-04-26T12:58:49.414Z</time></trkpt><trkpt lat="32.2146967" lon="-9.0112267"><ele>134.0</ele><time>2026-04-26T12:58:50.415Z</time></trkpt><trkpt lat="32.2148767" lon="-9.0110833"><ele>134.0</ele><time>2026-04-26T12:58:51.414Z</time></trkpt><trkpt lat="32.21507" lon="-9.0109333"><ele>134.0</ele><time>2026-04-26T12:58:52.414Z</time></trkpt><trkpt lat="32.215285" lon="-9.0107883"><ele>134.0</ele><time>2026-04-26T12:58:53.414Z</time></trkpt><trkpt lat="32.2155067" lon="-9.0106467"><ele>134.0</ele><time>2026-04-26T12:58:54.414Z</time></trkpt><trkpt lat="32.2157333" lon="-9.0105117"><ele>134.5</ele><time>2026-04-26T12:58:55.414Z</time></trkpt><trkpt lat="32.2159683" lon="-9.0103733"><ele>135.0</ele><time>2026-04-26T12:58:56.414Z</time></trkpt><trkpt lat="32.2162167" lon="-9.010235"><ele>135.0</ele><time>2026-04-26T12:58:57.414Z</time></trkpt><trkpt lat="32.2164617" lon="-9.0100983"><ele>135.0</ele><time>2026-04-26T12:58:58.414Z</time></trkpt><trkpt lat="32.21671" lon="-9.0099533"><ele>134.5</ele><time>2026-04-26T12:58:59.414Z</time></trkpt><trkpt lat="32.2169583" lon="-9.009815"><ele>134.0</ele><time>2026-04-26T12:59:00.414Z</time></trkpt><trkpt lat="32.2172017" lon="-9.0096767"><ele>134.0</ele><time>2026-04-26T12:59:01.414Z</time></trkpt><trkpt lat="32.217445" lon="-9.0095433"><ele>134.0</ele><time>2026-04-26T12:59:02.414Z</time></trkpt><trkpt lat="32.21769" lon="-9.0094067"><ele>134.0</ele><time>2026-04-26T12:59:03.414Z</time></trkpt><trkpt lat="32.2179283" lon="-9.0092717"><ele>134.0</ele><time>2026-04-26T12:59:04.414Z</time></trkpt><trkpt lat="32.2181717" lon="-9.0091317"><ele>133.5</ele><time>2026-04-26T12:59:05.414Z</time></trkpt><trkpt lat="32.2184067" lon="-9.008995"><ele>133.0</ele><time>2026-04-26T12:59:06.414Z</time></trkpt><trkpt lat="32.2186383" lon="-9.008865"><ele>133.0</ele><time>2026-04-26T12:59:07.414Z</time></trkpt><trkpt lat="32.2188567" lon="-9.0087417"><ele>133.0</ele><time>2026-04-26T12:59:08.414Z</time></trkpt><trkpt lat="32.2190733" lon="-9.0086167"><ele>134.0</ele><time>2026-04-26T12:59:09.414Z</time></trkpt><trkpt lat="32.2192883" lon="-9.0084967"><ele>135.0</ele><time>2026-04-26T12:59:10.414Z</time></trkpt><trkpt lat="32.219495" lon="-9.00838"><ele>135.5</ele><time>2026-04-26T12:59:11.414Z</time></trkpt><trkpt lat="32.2197033" lon="-9.0082617"><ele>136.0</ele><time>2026-04-26T12:59:12.414Z</time></trkpt><trkpt lat="32.219915" lon="-9.00815"><ele>134.5</ele><time>2026-04-26T12:59:13.414Z</time></trkpt><trkpt lat="32.2201267" lon="-9.00804"><ele>133.0</ele><time>2026-04-26T12:59:14.414Z</time></trkpt><trkpt lat="32.2203433" lon="-9.0079283"><ele>133.0</ele><time>2026-04-26T12:59:15.414Z</time></trkpt><trkpt lat="32.220555" lon="-9.0078067"><ele>133.0</ele><time>2026-04-26T12:59:16.414Z</time></trkpt><trkpt lat="32.2207683" lon="-9.0076933"><ele>133.0</ele><time>2026-04-26T12:59:17.414Z</time></trkpt><trkpt lat="32.2209683" lon="-9.0075767"><ele>133.0</ele><time>2026-04-26T12:59:18.414Z</time></trkpt><trkpt lat="32.22116" lon="-9.007465"><ele>133.0</ele><time>2026-04-26T12:59:19.414Z</time></trkpt><trkpt lat="32.2213483" lon="-9.0073533"><ele>133.66666666666669</ele><time>2026-04-26T12:59:20.414Z</time></trkpt><trkpt lat="32.2215383" lon="-9.0072433"><ele>134.33333333333334</ele><time>2026-04-26T12:59:21.414Z</time></trkpt><trkpt lat="32.2217317" lon="-9.0071317"><ele>135.0</ele><time>2026-04-26T12:59:22.414Z</time></trkpt><trkpt lat="32.22193" lon="-9.0070217"><ele>135.0</ele><time>2026-04-26T12:59:23.414Z</time></trkpt><trkpt lat="32.222135" lon="-9.0069"><ele>135.0</ele><time>2026-04-26T12:59:24.414Z</time></trkpt><trkpt lat="32.2223333" lon="-9.0067883"><ele>135.0</ele><time>2026-04-26T12:59:25.414Z</time></trkpt><trkpt lat="32.222525" lon="-9.00668"><ele>134.66666666666666</ele><time>2026-04-26T12:59:26.414Z</time></trkpt><trkpt lat="32.2227183" lon="-9.0065667"><ele>134.33333333333331</ele><time>2026-04-26T12:59:27.414Z</time></trkpt><trkpt lat="32.2229083" lon="-9.0064667"><ele>134.0</ele><time>2026-04-26T12:59:28.414Z</time></trkpt><trkpt lat="32.2231" lon="-9.00636"><ele>134.66666666666666</ele><time>2026-04-26T12:59:29.414Z</time></trkpt><trkpt lat="32.2232967" lon="-9.0062483"><ele>135.33333333333334</ele><time>2026-04-26T12:59:30.414Z</time></trkpt><trkpt lat="32.2234883" lon="-9.0061383"><ele>136.0</ele><time>2026-04-26T12:59:31.414Z</time></trkpt><trkpt lat="32.223675" lon="-9.0060333"><ele>136.0</ele><time>2026-04-26T12:59:32.414Z</time></trkpt><trkpt lat="32.22386" lon="-9.005925"><ele>136.0</ele><time>2026-04-26T12:59:33.414Z</time></trkpt><trkpt lat="32.2240483" lon="-9.0058133"><ele>136.0</ele><time>2026-04-26T12:59:34.414Z</time></trkpt><trkpt lat="32.2242467" lon="-9.0056967"><ele>135.0</ele><time>2026-04-26T12:59:35.414Z</time></trkpt><trkpt lat="32.2244467" lon="-9.00558"><ele>134.0</ele><time>2026-04-26T12:59:36.414Z</time></trkpt><trkpt lat="32.2246483" lon="-9.00546"><ele>133.0</ele><time>2026-04-26T12:59:37.414Z</time></trkpt><trkpt lat="32.22485" lon="-9.00534"><ele>132.66666666666669</ele><time>2026-04-26T12:59:38.414Z</time></trkpt><trkpt lat="32.225045" lon="-9.0052283"><ele>132.33333333333334</ele><time>2026-04-26T12:59:39.414Z</time></trkpt><trkpt lat="32.22523" lon="-9.0051217"><ele>132.0</ele><time>2026-04-26T12:59:40.414Z</time></trkpt><trkpt lat="32.225415" lon="-9.005005"><ele>132.33333333333334</ele><time>2026-04-26T12:59:41.414Z</time></trkpt><trkpt lat="32.2255967" lon="-9.0048933"><ele>132.66666666666669</ele><time>2026-04-26T12:59:42.414Z</time></trkpt><trkpt lat="32.2257833" lon="-9.0047783"><ele>133.0</ele><time>2026-04-26T12:59:43.414Z</time></trkpt><trkpt lat="32.2259733" lon="-9.0046633"><ele>133.0</ele><time>2026-04-26T12:59:44.414Z</time></trkpt><trkpt lat="32.2261667" lon="-9.0045467"><ele>133.0</ele><time>2026-04-26T12:59:45.414Z</time></trkpt><trkpt lat="32.2263567" lon="-9.0044333"><ele>133.0</ele><time>2026-04-26T12:59:46.414Z</time></trkpt><trkpt lat="32.2265467" lon="-9.0043167"><ele>132.66666666666669</ele><time>2026-04-26T12:59:47.414Z</time></trkpt><trkpt lat="32.22674" lon="-9.0041983"><ele>132.33333333333334</ele><time>2026-04-26T12:59:48.414Z</time></trkpt><trkpt lat="32.2269367" lon="-9.00408"><ele>132.0</ele><time>2026-04-26T12:59:49.414Z</time></trkpt><trkpt lat="32.227125" lon="-9.0039667"><ele>132.33333333333334</ele><time>2026-04-26T12:59:50.414Z</time></trkpt><trkpt lat="32.227315" lon="-9.0038567"><ele>132.66666666666669</ele><time>2026-04-26T12:59:51.414Z</time></trkpt><trkpt lat="32.2275" lon="-9.0037467"><ele>133.0</ele><time>2026-04-26T12:59:52.414Z</time></trkpt><trkpt lat="32.2276933" lon="-9.0036367"><ele>133.0</ele><time>2026-04-26T12:59:53.415Z</time></trkpt><trkpt lat="32.227885" lon="-9.0035267"><ele>133.0</ele><time>2026-04-26T12:59:54.414Z</time></trkpt><trkpt lat="32.2280733" lon="-9.0034133"><ele>133.0</ele><time>2026-04-26T12:59:55.414Z</time></trkpt><trkpt lat="32.228265" lon="-9.0033067"><ele>133.0</ele><time>2026-04-26T12:59:56.414Z</time></trkpt><trkpt lat="32.2284583" lon="-9.0032017"><ele>133.0</ele><time>2026-04-26T12:59:57.414Z</time></trkpt><trkpt lat="32.228655" lon="-9.0030967"><ele>133.0</ele><time>2026-04-26T12:59:58.414Z</time></trkpt><trkpt lat="32.2288517" lon="-9.00299"><ele>133.33333333333334</ele><time>2026-04-26T12:59:59.414Z</time></trkpt><trkpt lat="32.22905" lon="-9.0028833"><ele>133.66666666666666</ele><time>2026-04-26T13:00:00.414Z</time></trkpt><trkpt lat="32.2292417" lon="-9.0027733"><ele>134.0</ele><time>2026-04-26T13:00:01.415Z</time></trkpt><trkpt lat="32.2294383" lon="-9.0026617"><ele>134.0</ele><time>2026-04-26T13:00:02.414Z</time></trkpt><trkpt lat="32.22964" lon="-9.0025467"><ele>134.0</ele><time>2026-04-26T13:00:03.414Z</time></trkpt><trkpt lat="32.22984" lon="-9.00243"><ele>134.0</ele><time>2026-04-26T13:00:04.415Z</time></trkpt><trkpt lat="32.2300417" lon="-9.0023217"><ele>133.0</ele><time>2026-04-26T13:00:05.414Z</time></trkpt><trkpt lat="32.2302367" lon="-9.0022117"><ele>132.0</ele><time>2026-04-26T13:00:06.414Z</time></trkpt><trkpt lat="32.23043" lon="-9.0021033"><ele>131.0</ele><time>2026-04-26T13:00:07.414Z</time></trkpt><trkpt lat="32.23063" lon="-9.0019933"><ele>132.0</ele><time>2026-04-26T13:00:08.414Z</time></trkpt><trkpt lat="32.230825" lon="-9.0018817"><ele>133.0</ele><time>2026-04-26T13:00:09.414Z</time></trkpt><trkpt lat="32.23103" lon="-9.0017717"><ele>134.0</ele><time>2026-04-26T13:00:10.414Z</time></trkpt><trkpt lat="32.231235" lon="-9.0016567"><ele>134.0</ele><time>2026-04-26T13:00:11.414Z</time></trkpt><trkpt lat="32.2314367" lon="-9.0015483"><ele>134.0</ele><time>2026-04-26T13:00:12.414Z</time></trkpt><trkpt lat="32.231625" lon="-9.0014383"><ele>134.0</ele><time>2026-04-26T13:00:13.414Z</time></trkpt><trkpt lat="32.2318117" lon="-9.0013333"><ele>134.66666666666666</ele><time>2026-04-26T13:00:14.414Z</time></trkpt><trkpt lat="32.2319933" lon="-9.00123"><ele>135.33333333333334</ele><time>2026-04-26T13:00:15.414Z</time></trkpt><trkpt lat="32.2321767" lon="-9.00112"><ele>136.0</ele><time>2026-04-26T13:00:16.414Z</time></trkpt><trkpt lat="32.2323567" lon="-9.0010117"><ele>136.0</ele><time>2026-04-26T13:00:17.414Z</time></trkpt><trkpt lat="32.232545" lon="-9.0009067"><ele>136.0</ele><time>2026-04-26T13:00:18.414Z</time></trkpt><trkpt lat="32.2327367" lon="-9.0007967"><ele>136.0</ele><time>2026-04-26T13:00:19.415Z</time></trkpt><trkpt lat="32.2329317" lon="-9.0006867"><ele>135.66666666666669</ele><time>2026-04-26T13:00:20.414Z</time></trkpt><trkpt lat="32.2331283" lon="-9.000585"><ele>135.33333333333334</ele><time>2026-04-26T13:00:21.414Z</time></trkpt><trkpt lat="32.2333283" lon="-9.0004867"><ele>135.0</ele><time>2026-04-26T13:00:22.414Z</time></trkpt><trkpt lat="32.233525" lon="-9.000385"><ele>133.5</ele><time>2026-04-26T13:00:23.414Z</time></trkpt><trkpt lat="32.2337283" lon="-9.0002717"><ele>132.0</ele><time>2026-04-26T13:00:24.414Z</time></trkpt><trkpt lat="32.233935" lon="-9.00016"><ele>132.0</ele><time>2026-04-26T13:00:25.414Z</time></trkpt><trkpt lat="32.2341433" lon="-9.0000433"><ele>132.0</ele><time>2026-04-26T13:00:26.414Z</time></trkpt><trkpt lat="32.2343533" lon="-8.999925"><ele>132.0</ele><time>2026-04-26T13:00:27.414Z</time></trkpt><trkpt lat="32.2345533" lon="-8.9998167"><ele>132.0</ele><time>2026-04-26T13:00:28.414Z</time></trkpt><trkpt lat="32.2347483" lon="-8.9997033"><ele>132.0</ele><time>2026-04-26T13:00:29.415Z</time></trkpt><trkpt lat="32.2349433" lon="-8.99959"><ele>131.33333333333334</ele><time>2026-04-26T13:00:30.414Z</time></trkpt><trkpt lat="32.2351417" lon="-8.99948"><ele>130.66666666666669</ele><time>2026-04-26T13:00:31.414Z</time></trkpt><trkpt lat="32.2353433" lon="-8.999375"><ele>130.0</ele><time>2026-04-26T13:00:32.414Z</time></trkpt><trkpt lat="32.235545" lon="-8.999265"><ele>130.33333333333334</ele><time>2026-04-26T13:00:33.414Z</time></trkpt><trkpt lat="32.2357467" lon="-8.9991567"><ele>130.66666666666666</ele><time>2026-04-26T13:00:34.414Z</time></trkpt><trkpt lat="32.2359467" lon="-8.999045"><ele>131.0</ele><time>2026-04-26T13:00:35.414Z</time></trkpt><trkpt lat="32.2361433" lon="-8.9989333"><ele>131.0</ele><time>2026-04-26T13:00:36.414Z</time></trkpt><trkpt lat="32.2363417" lon="-8.9988233"><ele>131.0</ele><time>2026-04-26T13:00:37.414Z</time></trkpt><trkpt lat="32.2365417" lon="-8.998715"><ele>131.0</ele><time>2026-04-26T13:00:38.414Z</time></trkpt><trkpt lat="32.2367417" lon="-8.9985983"><ele>130.33333333333331</ele><time>2026-04-26T13:00:39.414Z</time></trkpt><trkpt lat="32.2369383" lon="-8.9984767"><ele>129.66666666666666</ele><time>2026-04-26T13:00:40.414Z</time></trkpt><trkpt lat="32.23713" lon="-8.9983433"><ele>129.0</ele><time>2026-04-26T13:00:41.414Z</time></trkpt><trkpt lat="32.237325" lon="-8.9982117"><ele>129.0</ele><time>2026-04-26T13:00:42.414Z</time></trkpt><trkpt lat="32.23752" lon="-8.99808"><ele>129.0</ele><time>2026-04-26T13:00:43.414Z</time></trkpt><trkpt lat="32.2377" lon="-8.9979517"><ele>129.0</ele><time>2026-04-26T13:00:44.414Z</time></trkpt><trkpt lat="32.2378717" lon="-8.9978217"><ele>129.0</ele><time>2026-04-26T13:00:45.414Z</time></trkpt><trkpt lat="32.2380417" lon="-8.9976833"><ele>129.0</ele><time>2026-04-26T13:00:46.414Z</time></trkpt><trkpt lat="32.2382067" lon="-8.9975417"><ele>129.0</ele><time>2026-04-26T13:00:47.414Z</time></trkpt><trkpt lat="32.2383733" lon="-8.997395"><ele>128.66666666666666</ele><time>2026-04-26T13:00:48.414Z</time></trkpt><trkpt lat="32.2385467" lon="-8.9972383"><ele>128.33333333333331</ele><time>2026-04-26T13:00:49.414Z</time></trkpt><trkpt lat="32.2387233" lon="-8.99707"><ele>128.0</ele><time>2026-04-26T13:00:50.414Z</time></trkpt><trkpt lat="32.2389" lon="-8.996895"><ele>128.0</ele><time>2026-04-26T13:00:51.414Z</time></trkpt><trkpt lat="32.2390733" lon="-8.996715"><ele>128.0</ele><time>2026-04-26T13:00:52.414Z</time></trkpt><trkpt lat="32.239245" lon="-8.9965267"><ele>130.5</ele><time>2026-04-26T13:00:53.414Z</time></trkpt><trkpt lat="32.2394117" lon="-8.99634"><ele>133.0</ele><time>2026-04-26T13:00:54.414Z</time></trkpt><trkpt lat="32.2395733" lon="-8.9961583"><ele>133.0</ele><time>2026-04-26T13:00:55.414Z</time></trkpt><trkpt lat="32.2397267" lon="-8.995975"><ele>133.0</ele><time>2026-04-26T13:00:56.414Z</time></trkpt><trkpt lat="32.23989" lon="-8.9957967"><ele>133.0</ele><time>2026-04-26T13:00:57.414Z</time></trkpt><trkpt lat="32.2400517" lon="-8.995615"><ele>132.33333333333334</ele><time>2026-04-26T13:00:58.414Z</time></trkpt><trkpt lat="32.2402133" lon="-8.9954367"><ele>131.66666666666666</ele><time>2026-04-26T13:00:59.414Z</time></trkpt><trkpt lat="32.2403783" lon="-8.99526"><ele>131.0</ele><time>2026-04-26T13:01:00.414Z</time></trkpt><trkpt lat="32.2405467" lon="-8.9950767"><ele>131.33333333333331</ele><time>2026-04-26T13:01:01.414Z</time></trkpt><trkpt lat="32.2407167" lon="-8.9948983"><ele>131.66666666666666</ele><time>2026-04-26T13:01:02.414Z</time></trkpt><trkpt lat="32.2408767" lon="-8.99473"><ele>132.0</ele><time>2026-04-26T13:01:03.414Z</time></trkpt><trkpt lat="32.2410383" lon="-8.9945667"><ele>132.0</ele><time>2026-04-26T13:01:04.415Z</time></trkpt><trkpt lat="32.2412033" lon="-8.99441"><ele>132.0</ele><time>2026-04-26T13:01:05.414Z</time></trkpt><trkpt lat="32.2413717" lon="-8.9942567"><ele>132.0</ele><time>2026-04-26T13:01:06.414Z</time></trkpt><trkpt lat="32.2415383" lon="-8.9941067"><ele>131.0</ele><time>2026-04-26T13:01:07.414Z</time></trkpt><trkpt lat="32.2417067" lon="-8.9939567"><ele>130.0</ele><time>2026-04-26T13:01:08.414Z</time></trkpt><trkpt lat="32.2418717" lon="-8.9938083"><ele>129.0</ele><time>2026-04-26T13:01:09.414Z</time></trkpt><trkpt lat="32.2420417" lon="-8.9936583"><ele>129.0</ele><time>2026-04-26T13:01:10.414Z</time></trkpt><trkpt lat="32.2422117" lon="-8.9935117"><ele>129.0</ele><time>2026-04-26T13:01:11.414Z</time></trkpt><trkpt lat="32.2423883" lon="-8.9933667"><ele>129.0</ele><time>2026-04-26T13:01:12.414Z</time></trkpt><trkpt lat="32.2425633" lon="-8.9932183"><ele>129.66666666666666</ele><time>2026-04-26T13:01:13.414Z</time></trkpt><trkpt lat="32.2427417" lon="-8.9930683"><ele>130.33333333333331</ele><time>2026-04-26T13:01:14.414Z</time></trkpt><trkpt lat="32.2429167" lon="-8.99292"><ele>131.0</ele><time>2026-04-26T13:01:15.414Z</time></trkpt><trkpt lat="32.2430917" lon="-8.99277"><ele>130.0</ele><time>2026-04-26T13:01:16.414Z</time></trkpt><trkpt lat="32.2432717" lon="-8.99262"><ele>129.0</ele><time>2026-04-26T13:01:17.414Z</time></trkpt><trkpt lat="32.24345" lon="-8.992475"><ele>128.0</ele><time>2026-04-26T13:01:18.414Z</time></trkpt><trkpt lat="32.2436267" lon="-8.9923217"><ele>128.0</ele><time>2026-04-26T13:01:19.414Z</time></trkpt><trkpt lat="32.2438" lon="-8.992175"><ele>128.0</ele><time>2026-04-26T13:01:20.414Z</time></trkpt><trkpt lat="32.24397" lon="-8.9920267"><ele>128.0</ele><time>2026-04-26T13:01:21.414Z</time></trkpt><trkpt lat="32.2441433" lon="-8.991875"><ele>128.33333333333331</ele><time>2026-04-26T13:01:22.414Z</time></trkpt><trkpt lat="32.2443167" lon="-8.9917233"><ele>128.66666666666666</ele><time>2026-04-26T13:01:23.414Z</time></trkpt><trkpt lat="32.244485" lon="-8.9915817"><ele>129.0</ele><time>2026-04-26T13:01:24.414Z</time></trkpt><trkpt lat="32.2446467" lon="-8.9914433"><ele>129.0</ele><time>2026-04-26T13:01:25.415Z</time></trkpt><trkpt lat="32.2448083" lon="-8.9913067"><ele>129.0</ele><time>2026-04-26T13:01:26.414Z</time></trkpt><trkpt lat="32.2449717" lon="-8.991165"><ele>129.0</ele><time>2026-04-26T13:01:27.414Z</time></trkpt><trkpt lat="32.245135" lon="-8.9910233"><ele>129.0</ele><time>2026-04-26T13:01:28.414Z</time></trkpt><trkpt lat="32.2453" lon="-8.990885"><ele>129.0</ele><time>2026-04-26T13:01:29.414Z</time></trkpt><trkpt lat="32.245465" lon="-8.990745"><ele>129.0</ele><time>2026-04-26T13:01:30.414Z</time></trkpt><trkpt lat="32.24563" lon="-8.9906"><ele>129.0</ele><time>2026-04-26T13:01:31.414Z</time></trkpt><trkpt lat="32.2457967" lon="-8.99045"><ele>129.0</ele><time>2026-04-26T13:01:32.414Z</time></trkpt><trkpt lat="32.2459667" lon="-8.9903017"><ele>129.0</ele><time>2026-04-26T13:01:33.414Z</time></trkpt><trkpt lat="32.2461467" lon="-8.99015"><ele>130.5</ele><time>2026-04-26T13:01:34.414Z</time></trkpt><trkpt lat="32.2463283" lon="-8.9899883"><ele>132.0</ele><time>2026-04-26T13:01:35.415Z</time></trkpt><trkpt lat="32.2465067" lon="-8.9898233"><ele>132.0</ele><time>2026-04-26T13:01:36.414Z</time></trkpt><trkpt lat="32.2466917" lon="-8.9896517"><ele>132.0</ele><time>2026-04-26T13:01:37.414Z</time></trkpt><trkpt lat="32.246875" lon="-8.98948"><ele>132.0</ele><time>2026-04-26T13:01:38.415Z</time></trkpt><trkpt lat="32.2470633" lon="-8.989305"><ele>132.0</ele><time>2026-04-26T13:01:39.414Z</time></trkpt><trkpt lat="32.2472517" lon="-8.9891267"><ele>131.33333333333334</ele><time>2026-04-26T13:01:40.414Z</time></trkpt><trkpt lat="32.247425" lon="-8.9889583"><ele>130.66666666666669</ele><time>2026-04-26T13:01:41.414Z</time></trkpt><trkpt lat="32.247585" lon="-8.9887933"><ele>130.0</ele><time>2026-04-26T13:01:42.414Z</time></trkpt><trkpt lat="32.2477417" lon="-8.9886317"><ele>130.0</ele><time>2026-04-26T13:01:43.414Z</time></trkpt><trkpt lat="32.2478983" lon="-8.9884667"><ele>130.0</ele><time>2026-04-26T13:01:44.414Z</time></trkpt><trkpt lat="32.24805" lon="-8.9883067"><ele>130.0</ele><time>2026-04-26T13:01:45.414Z</time></trkpt><trkpt lat="32.2482067" lon="-8.9881483"><ele>130.66666666666669</ele><time>2026-04-26T13:01:46.414Z</time></trkpt><trkpt lat="32.2483567" lon="-8.9879917"><ele>131.33333333333334</ele><time>2026-04-26T13:01:47.414Z</time></trkpt><trkpt lat="32.2485" lon="-8.987845"><ele>132.0</ele><time>2026-04-26T13:01:48.414Z</time></trkpt><trkpt lat="32.2486317" lon="-8.9876833"><ele>132.0</ele><time>2026-04-26T13:01:49.414Z</time></trkpt><trkpt lat="32.2487733" lon="-8.98753"><ele>132.0</ele><time>2026-04-26T13:01:50.414Z</time></trkpt><trkpt lat="32.248915" lon="-8.98737"><ele>132.0</ele><time>2026-04-26T13:01:51.414Z</time></trkpt><trkpt lat="32.2490633" lon="-8.9872167"><ele>131.0</ele><time>2026-04-26T13:01:52.414Z</time></trkpt><trkpt lat="32.2492117" lon="-8.9870583"><ele>130.0</ele><time>2026-04-26T13:01:53.414Z</time></trkpt><trkpt lat="32.2493617" lon="-8.9868983"><ele>129.0</ele><time>2026-04-26T13:01:54.414Z</time></trkpt><trkpt lat="32.2495183" lon="-8.98674"><ele>129.66666666666666</ele><time>2026-04-26T13:01:55.414Z</time></trkpt><trkpt lat="32.2496717" lon="-8.98657"><ele>130.33333333333331</ele><time>2026-04-26T13:01:56.414Z</time></trkpt><trkpt lat="32.2498267" lon="-8.9864"><ele>131.0</ele><time>2026-04-26T13:01:57.414Z</time></trkpt><trkpt lat="32.2499867" lon="-8.98623"><ele>131.33333333333331</ele><time>2026-04-26T13:01:58.414Z</time></trkpt><trkpt lat="32.2501467" lon="-8.98606"><ele>131.66666666666666</ele><time>2026-04-26T13:01:59.414Z</time></trkpt><trkpt lat="32.250305" lon="-8.9858933"><ele>132.0</ele><time>2026-04-26T13:02:00.414Z</time></trkpt><trkpt lat="32.2504567" lon="-8.985735"><ele>132.0</ele><time>2026-04-26T13:02:01.415Z</time></trkpt><trkpt lat="32.2505983" lon="-8.98558"><ele>132.0</ele><time>2026-04-26T13:02:02.414Z</time></trkpt><trkpt lat="32.250735" lon="-8.9854383"><ele>132.0</ele><time>2026-04-26T13:02:03.414Z</time></trkpt><trkpt lat="32.250865" lon="-8.985305"><ele>131.33333333333334</ele><time>2026-04-26T13:02:04.415Z</time></trkpt><trkpt lat="32.2509933" lon="-8.985175"><ele>130.66666666666669</ele><time>2026-04-26T13:02:05.414Z</time></trkpt><trkpt lat="32.25111" lon="-8.9850517"><ele>130.0</ele><time>2026-04-26T13:02:06.414Z</time></trkpt><trkpt lat="32.2512267" lon="-8.9849317"><ele>130.0</ele><time>2026-04-26T13:02:07.414Z</time></trkpt><trkpt lat="32.2513417" lon="-8.9848133"><ele>130.0</ele><time>2026-04-26T13:02:08.414Z</time></trkpt><trkpt lat="32.2514483" lon="-8.984695"><ele>130.0</ele><time>2026-04-26T13:02:09.414Z</time></trkpt><trkpt lat="32.2515567" lon="-8.9845817"><ele>130.0</ele><time>2026-04-26T13:02:10.414Z</time></trkpt><trkpt lat="32.25167" lon="-8.9844667"><ele>130.25</ele><time>2026-04-26T13:02:11.414Z</time></trkpt><trkpt lat="32.2517867" lon="-8.9843517"><ele>130.5</ele><time>2026-04-26T13:02:12.414Z</time></trkpt><trkpt lat="32.2518933" lon="-8.9842467"><ele>130.75</ele><time>2026-04-26T13:02:13.414Z</time></trkpt><trkpt lat="32.252005" lon="-8.9841467"><ele>131.0</ele><time>2026-04-26T13:02:14.414Z</time></trkpt><trkpt lat="32.2521117" lon="-8.984055"><ele>131.0</ele><time>2026-04-26T13:02:15.414Z</time></trkpt><trkpt lat="32.2522167" lon="-8.9839633"><ele>131.0</ele><time>2026-04-26T13:02:16.414Z</time></trkpt><trkpt lat="32.252315" lon="-8.9838733"><ele>131.0</ele><time>2026-04-26T13:02:17.414Z</time></trkpt><trkpt lat="32.2524083" lon="-8.9837883"><ele>131.0</ele><time>2026-04-26T13:02:18.414Z</time></trkpt><trkpt lat="32.2524983" lon="-8.98371"><ele>131.0</ele><time>2026-04-26T13:02:19.414Z</time></trkpt><trkpt lat="32.2525833" lon="-8.983625"><ele>131.0</ele><time>2026-04-26T13:02:20.414Z</time></trkpt><trkpt lat="32.2526583" lon="-8.98355"><ele>131.0</ele><time>2026-04-26T13:02:21.414Z</time></trkpt><trkpt lat="32.25273" lon="-8.9834767"><ele>131.0</ele><time>2026-04-26T13:02:22.414Z</time></trkpt><trkpt lat="32.2528033" lon="-8.9833983"><ele>131.0</ele><time>2026-04-26T13:02:23.414Z</time></trkpt><trkpt lat="32.2528717" lon="-8.9833267"><ele>131.0</ele><time>2026-04-26T13:02:24.414Z</time></trkpt><trkpt lat="32.2529433" lon="-8.9832617"><ele>131.0</ele><time>2026-04-26T13:02:25.414Z</time></trkpt><trkpt lat="32.25301" lon="-8.9832"><ele>131.0</ele><time>2026-04-26T13:02:26.414Z</time></trkpt><trkpt lat="32.253075" lon="-8.9831367"><ele>131.0</ele><time>2026-04-26T13:02:27.414Z</time></trkpt><trkpt lat="32.2531367" lon="-8.983075"><ele>131.0</ele><time>2026-04-26T13:02:28.415Z</time></trkpt><trkpt lat="32.2531917" lon="-8.98302"><ele>131.0</ele><time>2026-04-26T13:02:29.414Z</time></trkpt><trkpt lat="32.2532467" lon="-8.982965"><ele>130.66666666666666</ele><time>2026-04-26T13:02:30.414Z</time></trkpt><trkpt lat="32.2532983" lon="-8.9829133"><ele>130.33333333333331</ele><time>2026-04-26T13:02:31.414Z</time></trkpt><trkpt lat="32.2533483" lon="-8.9828633"><ele>130.0</ele><time>2026-04-26T13:02:32.414Z</time></trkpt><trkpt lat="32.253395" lon="-8.9828133"><ele>129.66666666666666</ele><time>2026-04-26T13:02:33.414Z</time></trkpt><trkpt lat="32.25344" lon="-8.982755"><ele>129.33333333333334</ele><time>2026-04-26T13:02:34.414Z</time></trkpt><trkpt lat="32.25348" lon="-8.98269"><ele>129.0</ele><time>2026-04-26T13:02:35.414Z</time></trkpt><trkpt lat="32.2535433" lon="-8.9825617"><ele>128.99999999999997</ele><time>2026-04-26T13:02:37.415Z</time></trkpt><trkpt lat="32.2535733" lon="-8.9824933"><ele>129.0</ele><time>2026-04-26T13:02:38.414Z</time></trkpt><trkpt lat="32.253615" lon="-8.982425"><ele>129.0</ele><time>2026-04-26T13:02:39.414Z</time></trkpt><trkpt lat="32.25367" lon="-8.9823783"><ele>129.0</ele><time>2026-04-26T13:02:40.414Z</time></trkpt><trkpt lat="32.2537367" lon="-8.9823617"><ele>129.0</ele><time>2026-04-26T13:02:41.414Z</time></trkpt><trkpt lat="32.2537983" lon="-8.9823783"><ele>128.99999999999997</ele><time>2026-04-26T13:02:42.414Z</time></trkpt><trkpt lat="32.2538583" lon="-8.9824183"><ele>129.0</ele><time>2026-04-26T13:02:43.414Z</time></trkpt><trkpt lat="32.2538983" lon="-8.9824767"><ele>129.0</ele><time>2026-04-26T13:02:44.414Z</time></trkpt><trkpt lat="32.2539183" lon="-8.982555"><ele>129.0</ele><time>2026-04-26T13:02:45.414Z</time></trkpt><trkpt lat="32.2539183" lon="-8.98265"><ele>129.0</ele><time>2026-04-26T13:02:46.414Z</time></trkpt><trkpt lat="32.2538933" lon="-8.9827433"><ele>129.0</ele><time>2026-04-26T13:02:47.414Z</time></trkpt><trkpt lat="32.2538633" lon="-8.9828483"><ele>129.0</ele><time>2026-04-26T13:02:48.414Z</time></trkpt><trkpt lat="32.25383" lon="-8.9829517"><ele>129.0</ele><time>2026-04-26T13:02:49.414Z</time></trkpt><trkpt lat="32.2538083" lon="-8.9830533"><ele>129.0</ele><time>2026-04-26T13:02:50.414Z</time></trkpt><trkpt lat="32.253795" lon="-8.983145"><ele>129.0</ele><time>2026-04-26T13:02:51.414Z</time></trkpt><trkpt lat="32.2537917" lon="-8.9832317"><ele>129.0</ele><time>2026-04-26T13:02:52.414Z</time></trkpt><trkpt lat="32.25379" lon="-8.9833067"><ele>129.0</ele><time>2026-04-26T13:02:53.415Z</time></trkpt><trkpt lat="32.2537867" lon="-8.9833817"><ele>129.0</ele><time>2026-04-26T13:02:54.414Z</time></trkpt><trkpt lat="32.2537783" lon="-8.9835083"><ele>129.0</ele><time>2026-04-26T13:02:56.414Z</time></trkpt><trkpt lat="32.2537783" lon="-8.9836283"><ele>128.83333333333334</ele><time>2026-04-26T13:02:58.414Z</time></trkpt><trkpt lat="32.2537717" lon="-8.9837233"><ele>128.66666666666666</ele><time>2026-04-26T13:03:00.414Z</time></trkpt><trkpt lat="32.2537433" lon="-8.9838067"><ele>128.5</ele><time>2026-04-26T13:03:02.414Z</time></trkpt><trkpt lat="32.25368" lon="-8.98384"><ele>128.33333333333331</ele><time>2026-04-26T13:03:04.414Z</time></trkpt><trkpt lat="32.25361" lon="-8.9837883"><ele>128.16666666666666</ele><time>2026-04-26T13:03:07.414Z</time></trkpt><trkpt lat="32.2535667" lon="-8.98372"><ele>128.0</ele><time>2026-04-26T13:03:10.414Z</time></trkpt><trkpt lat="32.2535133" lon="-8.9836517"><ele>128.0</ele><time>2026-04-26T13:03:14.414Z</time></trkpt><trkpt lat="32.2534367" lon="-8.98363"><ele>127.99999999999999</ele><time>2026-04-26T13:03:19.414Z</time></trkpt><trkpt lat="32.25337" lon="-8.9836167"><ele>128.0</ele><time>2026-04-26T13:03:23.414Z</time></trkpt><trkpt lat="32.2533083" lon="-8.983595"><ele>128.0</ele><time>2026-04-26T13:13:25.412Z</time></trkpt><trkpt lat="32.2532533" lon="-8.983635"><ele>127.99999999999999</ele><time>2026-04-26T13:13:29.412Z</time></trkpt><trkpt lat="32.253325" lon="-8.9836717"><ele>128.0</ele><time>2026-04-26T13:13:33.412Z</time></trkpt><trkpt lat="32.25338" lon="-8.98362"><ele>128.0</ele><time>2026-04-26T13:13:36.412Z</time></trkpt><trkpt lat="32.253445" lon="-8.98359"><ele>127.99999999999999</ele><time>2026-04-26T13:13:43.412Z</time></trkpt><trkpt lat="32.2535217" lon="-8.98362"><ele>128.0</ele><time>2026-04-26T13:13:45.412Z</time></trkpt><trkpt lat="32.2535917" lon="-8.98369"><ele>128.0</ele><time>2026-04-26T13:13:47.412Z</time></trkpt><trkpt lat="32.25366" lon="-8.9837417"><ele>128.0</ele><time>2026-04-26T13:13:49.412Z</time></trkpt><trkpt lat="32.2537217" lon="-8.9837267"><ele>127.99999999999999</ele><time>2026-04-26T13:13:51.412Z</time></trkpt><trkpt lat="32.2537483" lon="-8.9836367"><ele>128.0</ele><time>2026-04-26T13:13:53.412Z</time></trkpt><trkpt lat="32.253735" lon="-8.9835017"><ele>127.99999999999999</ele><time>2026-04-26T13:13:55.413Z</time></trkpt><trkpt lat="32.25373" lon="-8.98335"><ele>128.0</ele><time>2026-04-26T13:13:57.412Z</time></trkpt><trkpt lat="32.2537317" lon="-8.9832633"><ele>128.0</ele><time>2026-04-26T13:13:58.412Z</time></trkpt><trkpt lat="32.2537283" lon="-8.9831733"><ele>128.0</ele><time>2026-04-26T13:13:59.412Z</time></trkpt><trkpt lat="32.253725" lon="-8.9830767"><ele>127.99999999999999</ele><time>2026-04-26T13:14:00.412Z</time></trkpt><trkpt lat="32.2537217" lon="-8.9829783"><ele>128.0</ele><time>2026-04-26T13:14:01.412Z</time></trkpt><trkpt lat="32.253705" lon="-8.9828833"><ele>128.14285714285714</ele><time>2026-04-26T13:14:02.412Z</time></trkpt><trkpt lat="32.25368" lon="-8.9828067"><ele>128.28571428571428</ele><time>2026-04-26T13:14:03.412Z</time></trkpt><trkpt lat="32.25364" lon="-8.9827417"><ele>128.42857142857142</ele><time>2026-04-26T13:14:04.412Z</time></trkpt><trkpt lat="32.2536083" lon="-8.9826667"><ele>128.57142857142856</ele><time>2026-04-26T13:14:05.412Z</time></trkpt><trkpt lat="32.2535933" lon="-8.982585"><ele>128.71428571428572</ele><time>2026-04-26T13:14:06.412Z</time></trkpt><trkpt lat="32.253605" lon="-8.9825033"><ele>128.85714285714283</ele><time>2026-04-26T13:14:07.412Z</time></trkpt><trkpt lat="32.25364" lon="-8.9824283"><ele>129.0</ele><time>2026-04-26T13:14:08.412Z</time></trkpt><trkpt lat="32.253695" lon="-8.982375"><ele>129.0</ele><time>2026-04-26T13:14:09.412Z</time></trkpt><trkpt lat="32.253765" lon="-8.9823417"><ele>129.0</ele><time>2026-04-26T13:14:10.412Z</time></trkpt><trkpt lat="32.253845" lon="-8.98231"><ele>129.0</ele><time>2026-04-26T13:14:11.412Z</time></trkpt><trkpt lat="32.25392" lon="-8.98227"><ele>129.0</ele><time>2026-04-26T13:14:12.412Z</time></trkpt><trkpt lat="32.2539917" lon="-8.9822"><ele>129.0</ele><time>2026-04-26T13:14:13.412Z</time></trkpt><trkpt lat="32.2540667" lon="-8.9821183"><ele>129.0</ele><time>2026-04-26T13:14:14.412Z</time></trkpt><trkpt lat="32.2541367" lon="-8.9820317"><ele>129.4</ele><time>2026-04-26T13:14:15.412Z</time></trkpt><trkpt lat="32.2542033" lon="-8.98194"><ele>129.8</ele><time>2026-04-26T13:14:16.412Z</time></trkpt><trkpt lat="32.2542667" lon="-8.98184"><ele>130.2</ele><time>2026-04-26T13:14:17.412Z</time></trkpt><trkpt lat="32.25433" lon="-8.9817317"><ele>130.6</ele><time>2026-04-26T13:14:18.412Z</time></trkpt><trkpt lat="32.2543917" lon="-8.98162"><ele>131.0</ele><time>2026-04-26T13:14:19.412Z</time></trkpt><trkpt lat="32.2544567" lon="-8.9815083"><ele>131.0</ele><time>2026-04-26T13:14:20.412Z</time></trkpt><trkpt lat="32.25452" lon="-8.9813933"><ele>131.0</ele><time>2026-04-26T13:14:21.412Z</time></trkpt><trkpt lat="32.2545833" lon="-8.9812783"><ele>131.0</ele><time>2026-04-26T13:14:22.412Z</time></trkpt><trkpt lat="32.25464" lon="-8.9811617"><ele>131.0</ele><time>2026-04-26T13:14:23.413Z</time></trkpt><trkpt lat="32.2546883" lon="-8.9810483"><ele>131.0</ele><time>2026-04-26T13:14:24.412Z</time></trkpt><trkpt lat="32.2547333" lon="-8.9809383"><ele>131.0</ele><time>2026-04-26T13:14:25.412Z</time></trkpt><trkpt lat="32.2547733" lon="-8.9808333"><ele>131.0</ele><time>2026-04-26T13:14:26.412Z</time></trkpt><trkpt lat="32.2548117" lon="-8.9807467"><ele>131.0</ele><time>2026-04-26T13:14:27.412Z</time></trkpt><trkpt lat="32.2548517" lon="-8.980665"><ele>131.0</ele><time>2026-04-26T13:14:28.413Z</time></trkpt><trkpt lat="32.2548933" lon="-8.9805783"><ele>131.0</ele><time>2026-04-26T13:14:29.412Z</time></trkpt><trkpt lat="32.25493" lon="-8.9804733"><ele>131.0</ele><time>2026-04-26T13:14:30.412Z</time></trkpt><trkpt lat="32.254965" lon="-8.9803583"><ele>131.0</ele><time>2026-04-26T13:14:31.412Z</time></trkpt><trkpt lat="32.2550033" lon="-8.98024"><ele>131.0</ele><time>2026-04-26T13:14:32.412Z</time></trkpt><trkpt lat="32.2550483" lon="-8.9801217"><ele>131.0</ele><time>2026-04-26T13:14:33.412Z</time></trkpt><trkpt lat="32.2550917" lon="-8.9800033"><ele>131.0</ele><time>2026-04-26T13:14:34.412Z</time></trkpt><trkpt lat="32.2551383" lon="-8.97989"><ele>131.0</ele><time>2026-04-26T13:14:35.412Z</time></trkpt><trkpt lat="32.255185" lon="-8.9797767"><ele>131.0</ele><time>2026-04-26T13:14:36.413Z</time></trkpt><trkpt lat="32.2552317" lon="-8.9796583"><ele>131.0</ele><time>2026-04-26T13:14:37.412Z</time></trkpt><trkpt lat="32.25528" lon="-8.9795333"><ele>131.0</ele><time>2026-04-26T13:14:38.412Z</time></trkpt><trkpt lat="32.25533" lon="-8.9794017"><ele>131.0</ele><time>2026-04-26T13:14:39.412Z</time></trkpt><trkpt lat="32.255385" lon="-8.97927"><ele>131.0</ele><time>2026-04-26T13:14:40.412Z</time></trkpt><trkpt lat="32.2554333" lon="-8.9791317"><ele>131.0</ele><time>2026-04-26T13:14:41.412Z</time></trkpt><trkpt lat="32.2554967" lon="-8.9789917"><ele>131.0</ele><time>2026-04-26T13:14:42.412Z</time></trkpt><trkpt lat="32.2555517" lon="-8.9788467"><ele>131.0</ele><time>2026-04-26T13:14:43.412Z</time></trkpt><trkpt lat="32.255605" lon="-8.978705"><ele>131.0</ele><time>2026-04-26T13:14:44.412Z</time></trkpt><trkpt lat="32.2556567" lon="-8.9785717"><ele>131.0</ele><time>2026-04-26T13:14:45.412Z</time></trkpt><trkpt lat="32.2557033" lon="-8.9784417"><ele>131.0</ele><time>2026-04-26T13:14:46.412Z</time></trkpt><trkpt lat="32.25575" lon="-8.978305"><ele>131.0</ele><time>2026-04-26T13:14:47.413Z</time></trkpt><trkpt lat="32.2557933" lon="-8.9781583"><ele>131.0</ele><time>2026-04-26T13:14:48.412Z</time></trkpt><trkpt lat="32.25583" lon="-8.9780133"><ele>131.0</ele><time>2026-04-26T13:14:49.412Z</time></trkpt><trkpt lat="32.2558783" lon="-8.9778717"><ele>131.0</ele><time>2026-04-26T13:14:50.412Z</time></trkpt><trkpt lat="32.2559317" lon="-8.9777317"><ele>131.0</ele><time>2026-04-26T13:14:51.412Z</time></trkpt><trkpt lat="32.2559867" lon="-8.9775867"><ele>131.0</ele><time>2026-04-26T13:14:52.412Z</time></trkpt><trkpt lat="32.25604" lon="-8.9774417"><ele>131.0</ele><time>2026-04-26T13:14:53.412Z</time></trkpt><trkpt lat="32.2560967" lon="-8.9772983"><ele>131.0</ele><time>2026-04-26T13:14:54.412Z</time></trkpt><trkpt lat="32.2561517" lon="-8.97715"><ele>131.25</ele><time>2026-04-26T13:14:55.412Z</time></trkpt><trkpt lat="32.2562167" lon="-8.9769983"><ele>131.5</ele><time>2026-04-26T13:14:56.412Z</time></trkpt><trkpt lat="32.25628" lon="-8.976845"><ele>131.75</ele><time>2026-04-26T13:14:57.412Z</time></trkpt><trkpt lat="32.25635" lon="-8.9766817"><ele>132.0</ele><time>2026-04-26T13:14:58.412Z</time></trkpt><trkpt lat="32.25642" lon="-8.97651"><ele>132.0</ele><time>2026-04-26T13:14:59.412Z</time></trkpt><trkpt lat="32.2564933" lon="-8.9763317"><ele>132.0</ele><time>2026-04-26T13:15:00.412Z</time></trkpt><trkpt lat="32.2565683" lon="-8.9761483"><ele>132.0</ele><time>2026-04-26T13:15:01.412Z</time></trkpt><trkpt lat="32.2566467" lon="-8.9759617"><ele>132.66666666666666</ele><time>2026-04-26T13:15:02.412Z</time></trkpt><trkpt lat="32.2567217" lon="-8.975775"><ele>133.33333333333331</ele><time>2026-04-26T13:15:03.412Z</time></trkpt><trkpt lat="32.2567967" lon="-8.97558"><ele>134.0</ele><time>2026-04-26T13:15:04.412Z</time></trkpt><trkpt lat="32.2568717" lon="-8.97539"><ele>134.0</ele><time>2026-04-26T13:15:05.412Z</time></trkpt><trkpt lat="32.2569467" lon="-8.9751917"><ele>134.0</ele><time>2026-04-26T13:15:06.412Z</time></trkpt><trkpt lat="32.2570267" lon="-8.974995"><ele>134.0</ele><time>2026-04-26T13:15:07.412Z</time></trkpt><trkpt lat="32.2571083" lon="-8.9748017"><ele>134.66666666666666</ele><time>2026-04-26T13:15:08.412Z</time></trkpt><trkpt lat="32.2571867" lon="-8.9746167"><ele>135.33333333333334</ele><time>2026-04-26T13:15:09.413Z</time></trkpt><trkpt lat="32.25726" lon="-8.9744383"><ele>136.0</ele><time>2026-04-26T13:15:10.412Z</time></trkpt><trkpt lat="32.2573367" lon="-8.9742583"><ele>136.0</ele><time>2026-04-26T13:15:11.412Z</time></trkpt><trkpt lat="32.25741" lon="-8.97408"><ele>136.0</ele><time>2026-04-26T13:15:12.412Z</time></trkpt><trkpt lat="32.257475" lon="-8.9738967"><ele>136.0</ele><time>2026-04-26T13:15:13.412Z</time></trkpt><trkpt lat="32.2575433" lon="-8.97371"><ele>136.0</ele><time>2026-04-26T13:15:14.412Z</time></trkpt><trkpt lat="32.257615" lon="-8.97353"><ele>136.0</ele><time>2026-04-26T13:15:15.412Z</time></trkpt><trkpt lat="32.2576817" lon="-8.9733383"><ele>136.0</ele><time>2026-04-26T13:15:16.412Z</time></trkpt><trkpt lat="32.25775" lon="-8.973155"><ele>136.33333333333334</ele><time>2026-04-26T13:15:17.412Z</time></trkpt><trkpt lat="32.2578217" lon="-8.9729783"><ele>136.66666666666666</ele><time>2026-04-26T13:15:18.412Z</time></trkpt><trkpt lat="32.25789" lon="-8.9728067"><ele>137.0</ele><time>2026-04-26T13:15:19.412Z</time></trkpt><trkpt lat="32.257955" lon="-8.972635"><ele>137.33333333333331</ele><time>2026-04-26T13:15:20.412Z</time></trkpt><trkpt lat="32.2580183" lon="-8.9724667"><ele>137.66666666666666</ele><time>2026-04-26T13:15:21.412Z</time></trkpt><trkpt lat="32.2580833" lon="-8.9722933"><ele>138.0</ele><time>2026-04-26T13:15:22.412Z</time></trkpt><trkpt lat="32.2581517" lon="-8.97212"><ele>138.0</ele><time>2026-04-26T13:15:23.412Z</time></trkpt><trkpt lat="32.2582167" lon="-8.971945"><ele>138.0</ele><time>2026-04-26T13:15:24.412Z</time></trkpt><trkpt lat="32.2582967" lon="-8.9717783"><ele>138.0</ele><time>2026-04-26T13:15:25.412Z</time></trkpt><trkpt lat="32.2583683" lon="-8.97159"><ele>138.0</ele><time>2026-04-26T13:15:26.412Z</time></trkpt><trkpt lat="32.2584283" lon="-8.9714033"><ele>138.0</ele><time>2026-04-26T13:15:27.412Z</time></trkpt><trkpt lat="32.2584967" lon="-8.9712067"><ele>138.0</ele><time>2026-04-26T13:15:28.412Z</time></trkpt><trkpt lat="32.25857" lon="-8.9710067"><ele>138.33333333333334</ele><time>2026-04-26T13:15:29.412Z</time></trkpt><trkpt lat="32.2586433" lon="-8.970805"><ele>138.66666666666669</ele><time>2026-04-26T13:15:30.412Z</time></trkpt><trkpt lat="32.2587233" lon="-8.9705967"><ele>139.0</ele><time>2026-04-26T13:15:31.412Z</time></trkpt><trkpt lat="32.258795" lon="-8.970385"><ele>139.0</ele><time>2026-04-26T13:15:32.412Z</time></trkpt><trkpt lat="32.25887" lon="-8.97018"><ele>139.0</ele><time>2026-04-26T13:15:33.412Z</time></trkpt><trkpt lat="32.258945" lon="-8.9699783"><ele>139.0</ele><time>2026-04-26T13:15:34.412Z</time></trkpt><trkpt lat="32.25901" lon="-8.9697683"><ele>138.66666666666669</ele><time>2026-04-26T13:15:35.412Z</time></trkpt><trkpt lat="32.2590667" lon="-8.96955"><ele>138.33333333333334</ele><time>2026-04-26T13:15:36.412Z</time></trkpt><trkpt lat="32.25912" lon="-8.96933"><ele>138.0</ele><time>2026-04-26T13:15:37.412Z</time></trkpt><trkpt lat="32.2591717" lon="-8.9691017"><ele>138.0</ele><time>2026-04-26T13:15:38.412Z</time></trkpt><trkpt lat="32.2592317" lon="-8.968875"><ele>138.0</ele><time>2026-04-26T13:15:39.412Z</time></trkpt><trkpt lat="32.2592833" lon="-8.96865"><ele>138.0</ele><time>2026-04-26T13:15:40.412Z</time></trkpt><trkpt lat="32.2593317" lon="-8.968435"><ele>138.33333333333334</ele><time>2026-04-26T13:15:41.412Z</time></trkpt><trkpt lat="32.25938" lon="-8.9682183"><ele>138.66666666666669</ele><time>2026-04-26T13:15:42.412Z</time></trkpt><trkpt lat="32.2594283" lon="-8.9679967"><ele>139.0</ele><time>2026-04-26T13:15:43.413Z</time></trkpt><trkpt lat="32.259485" lon="-8.9677733"><ele>139.0</ele><time>2026-04-26T13:15:44.412Z</time></trkpt><trkpt lat="32.2595367" lon="-8.9675367"><ele>139.0</ele><time>2026-04-26T13:15:45.412Z</time></trkpt><trkpt lat="32.2595917" lon="-8.9672967"><ele>139.0</ele><time>2026-04-26T13:15:46.412Z</time></trkpt><trkpt lat="32.25965" lon="-8.9670517"><ele>139.33333333333334</ele><time>2026-04-26T13:15:47.412Z</time></trkpt><trkpt lat="32.2597083" lon="-8.9668"><ele>139.66666666666666</ele><time>2026-04-26T13:15:48.412Z</time></trkpt><trkpt lat="32.2597683" lon="-8.9665467"><ele>140.0</ele><time>2026-04-26T13:15:49.412Z</time></trkpt><trkpt lat="32.259825" lon="-8.966305"><ele>139.33333333333331</ele><time>2026-04-26T13:15:50.412Z</time></trkpt><trkpt lat="32.259885" lon="-8.96607"><ele>138.66666666666666</ele><time>2026-04-26T13:15:51.412Z</time></trkpt><trkpt lat="32.259935" lon="-8.96585"><ele>138.0</ele><time>2026-04-26T13:15:52.412Z</time></trkpt><trkpt lat="32.25999" lon="-8.965625"><ele>137.66666666666666</ele><time>2026-04-26T13:15:53.412Z</time></trkpt><trkpt lat="32.2600467" lon="-8.9654"><ele>137.33333333333331</ele><time>2026-04-26T13:15:54.412Z</time></trkpt><trkpt lat="32.260105" lon="-8.9651733"><ele>137.0</ele><time>2026-04-26T13:15:55.412Z</time></trkpt><trkpt lat="32.2601667" lon="-8.9649483"><ele>138.0</ele><time>2026-04-26T13:15:56.412Z</time></trkpt><trkpt lat="32.2602333" lon="-8.9647217"><ele>139.0</ele><time>2026-04-26T13:15:57.412Z</time></trkpt><trkpt lat="32.2603017" lon="-8.9644917"><ele>140.0</ele><time>2026-04-26T13:15:58.412Z</time></trkpt><trkpt lat="32.26037" lon="-8.9642567"><ele>139.66666666666666</ele><time>2026-04-26T13:15:59.412Z</time></trkpt><trkpt lat="32.2604383" lon="-8.9640167"><ele>139.33333333333334</ele><time>2026-04-26T13:16:00.412Z</time></trkpt><trkpt lat="32.26051" lon="-8.963775"><ele>139.0</ele><time>2026-04-26T13:16:01.412Z</time></trkpt><trkpt lat="32.2605867" lon="-8.9635283"><ele>140.0</ele><time>2026-04-26T13:16:02.412Z</time></trkpt><trkpt lat="32.260665" lon="-8.9632733"><ele>141.0</ele><time>2026-04-26T13:16:03.412Z</time></trkpt><trkpt lat="32.2607417" lon="-8.9630167"><ele>141.0</ele><time>2026-04-26T13:16:04.412Z</time></trkpt><trkpt lat="32.2608183" lon="-8.9627567"><ele>141.0</ele><time>2026-04-26T13:16:05.412Z</time></trkpt><trkpt lat="32.2608933" lon="-8.962495"><ele>140.5</ele><time>2026-04-26T13:16:06.412Z</time></trkpt><trkpt lat="32.260975" lon="-8.9622283"><ele>140.0</ele><time>2026-04-26T13:16:07.412Z</time></trkpt><trkpt lat="32.261055" lon="-8.9619667"><ele>140.0</ele><time>2026-04-26T13:16:08.412Z</time></trkpt><trkpt lat="32.2611317" lon="-8.9617133"><ele>140.0</ele><time>2026-04-26T13:16:09.412Z</time></trkpt><trkpt lat="32.2612067" lon="-8.9614633"><ele>139.66666666666666</ele><time>2026-04-26T13:16:10.412Z</time></trkpt><trkpt lat="32.2612833" lon="-8.9612167"><ele>139.33333333333334</ele><time>2026-04-26T13:16:11.412Z</time></trkpt><trkpt lat="32.2613617" lon="-8.9609733"><ele>139.0</ele><time>2026-04-26T13:16:12.412Z</time></trkpt><trkpt lat="32.261435" lon="-8.9607267"><ele>139.66666666666669</ele><time>2026-04-26T13:16:13.412Z</time></trkpt><trkpt lat="32.261505" lon="-8.9604833"><ele>140.33333333333334</ele><time>2026-04-26T13:16:14.412Z</time></trkpt><trkpt lat="32.2615817" lon="-8.9602417"><ele>141.0</ele><time>2026-04-26T13:16:15.413Z</time></trkpt><trkpt lat="32.2616533" lon="-8.9600017"><ele>141.0</ele><time>2026-04-26T13:16:16.412Z</time></trkpt><trkpt lat="32.2617267" lon="-8.95976"><ele>141.0</ele><time>2026-04-26T13:16:17.412Z</time></trkpt><trkpt lat="32.2617983" lon="-8.9595183"><ele>141.0</ele><time>2026-04-26T13:16:18.412Z</time></trkpt><trkpt lat="32.2618767" lon="-8.959275"><ele>141.33333333333334</ele><time>2026-04-26T13:16:19.412Z</time></trkpt><trkpt lat="32.261955" lon="-8.9590383"><ele>141.66666666666669</ele><time>2026-04-26T13:16:20.412Z</time></trkpt><trkpt lat="32.262035" lon="-8.9588033"><ele>142.0</ele><time>2026-04-26T13:16:21.412Z</time></trkpt><trkpt lat="32.2621167" lon="-8.95857"><ele>141.66666666666669</ele><time>2026-04-26T13:16:22.412Z</time></trkpt><trkpt lat="32.2622033" lon="-8.958335"><ele>141.33333333333334</ele><time>2026-04-26T13:16:23.412Z</time></trkpt><trkpt lat="32.2622883" lon="-8.9581033"><ele>141.0</ele><time>2026-04-26T13:16:24.412Z</time></trkpt><trkpt lat="32.2623783" lon="-8.9578767"><ele>141.66666666666666</ele><time>2026-04-26T13:16:25.412Z</time></trkpt><trkpt lat="32.2624717" lon="-8.95765"><ele>142.33333333333331</ele><time>2026-04-26T13:16:26.412Z</time></trkpt><trkpt lat="32.2625667" lon="-8.9574183"><ele>143.0</ele><time>2026-04-26T13:16:27.413Z</time></trkpt><trkpt lat="32.26266" lon="-8.9571833"><ele>143.0</ele><time>2026-04-26T13:16:28.413Z</time></trkpt><trkpt lat="32.2627567" lon="-8.9569433"><ele>143.0</ele><time>2026-04-26T13:16:29.412Z</time></trkpt><trkpt lat="32.26285" lon="-8.95671"><ele>143.0</ele><time>2026-04-26T13:16:30.412Z</time></trkpt><trkpt lat="32.2629467" lon="-8.9564733"><ele>142.66666666666666</ele><time>2026-04-26T13:16:31.412Z</time></trkpt><trkpt lat="32.2630383" lon="-8.956245"><ele>142.33333333333334</ele><time>2026-04-26T13:16:32.412Z</time></trkpt><trkpt lat="32.2631333" lon="-8.9560133"><ele>142.0</ele><time>2026-04-26T13:16:33.413Z</time></trkpt><trkpt lat="32.26323" lon="-8.9557833"><ele>142.0</ele><time>2026-04-26T13:16:34.412Z</time></trkpt><trkpt lat="32.263325" lon="-8.9555567"><ele>142.0</ele><time>2026-04-26T13:16:35.412Z</time></trkpt><trkpt lat="32.2634133" lon="-8.9553267"><ele>142.0</ele><time>2026-04-26T13:16:36.412Z</time></trkpt><trkpt lat="32.2635033" lon="-8.95509"><ele>142.0</ele><time>2026-04-26T13:16:37.412Z</time></trkpt><trkpt lat="32.2635967" lon="-8.9548583"><ele>142.0</ele><time>2026-04-26T13:16:38.412Z</time></trkpt><trkpt lat="32.2636933" lon="-8.95462"><ele>142.0</ele><time>2026-04-26T13:16:39.412Z</time></trkpt><trkpt lat="32.26379" lon="-8.9543833"><ele>142.33333333333334</ele><time>2026-04-26T13:16:40.412Z</time></trkpt><trkpt lat="32.263885" lon="-8.9541433"><ele>142.66666666666666</ele><time>2026-04-26T13:16:41.412Z</time></trkpt><trkpt lat="32.2639817" lon="-8.953905"><ele>143.0</ele><time>2026-04-26T13:16:42.412Z</time></trkpt><trkpt lat="32.26408" lon="-8.9536633"><ele>143.0</ele><time>2026-04-26T13:16:43.412Z</time></trkpt><trkpt lat="32.2641783" lon="-8.95342"><ele>143.0</ele><time>2026-04-26T13:16:44.413Z</time></trkpt><trkpt lat="32.2642783" lon="-8.9531733"><ele>143.0</ele><time>2026-04-26T13:16:45.412Z</time></trkpt><trkpt lat="32.2643767" lon="-8.952925"><ele>143.0</ele><time>2026-04-26T13:16:46.412Z</time></trkpt><trkpt lat="32.2644767" lon="-8.9526783"><ele>143.33333333333331</ele><time>2026-04-26T13:16:47.412Z</time></trkpt><trkpt lat="32.2645733" lon="-8.95244"><ele>143.66666666666666</ele><time>2026-04-26T13:16:48.412Z</time></trkpt><trkpt lat="32.2646683" lon="-8.9522117"><ele>144.0</ele><time>2026-04-26T13:16:49.412Z</time></trkpt><trkpt lat="32.264755" lon="-8.9519933"><ele>144.66666666666666</ele><time>2026-04-26T13:16:50.412Z</time></trkpt><trkpt lat="32.26484" lon="-8.95178"><ele>145.33333333333331</ele><time>2026-04-26T13:16:51.412Z</time></trkpt><trkpt lat="32.2649283" lon="-8.9515667"><ele>146.0</ele><time>2026-04-26T13:16:52.412Z</time></trkpt><trkpt lat="32.26502" lon="-8.9513533"><ele>146.0</ele><time>2026-04-26T13:16:53.412Z</time></trkpt><trkpt lat="32.2651117" lon="-8.9511333"><ele>146.0</ele><time>2026-04-26T13:16:54.412Z</time></trkpt><trkpt lat="32.2652133" lon="-8.95091"><ele>146.0</ele><time>2026-04-26T13:16:55.412Z</time></trkpt><trkpt lat="32.2653217" lon="-8.9506783"><ele>146.33333333333331</ele><time>2026-04-26T13:16:56.412Z</time></trkpt><trkpt lat="32.26543" lon="-8.9504467"><ele>146.66666666666666</ele><time>2026-04-26T13:16:57.412Z</time></trkpt><trkpt lat="32.2655417" lon="-8.9502183"><ele>147.0</ele><time>2026-04-26T13:16:58.412Z</time></trkpt><trkpt lat="32.26566" lon="-8.9499933"><ele>146.0</ele><time>2026-04-26T13:16:59.413Z</time></trkpt><trkpt lat="32.26578" lon="-8.9497683"><ele>145.0</ele><time>2026-04-26T13:17:00.412Z</time></trkpt><trkpt lat="32.2659033" lon="-8.9495433"><ele>145.0</ele><time>2026-04-26T13:17:01.412Z</time></trkpt><trkpt lat="32.26603" lon="-8.9493233"><ele>145.0</ele><time>2026-04-26T13:17:02.412Z</time></trkpt><trkpt lat="32.266155" lon="-8.949105"><ele>145.0</ele><time>2026-04-26T13:17:03.412Z</time></trkpt><trkpt lat="32.26628" lon="-8.9488917"><ele>145.0</ele><time>2026-04-26T13:17:04.412Z</time></trkpt><trkpt lat="32.2664033" lon="-8.9486767"><ele>145.0</ele><time>2026-04-26T13:17:05.412Z</time></trkpt><trkpt lat="32.2665283" lon="-8.948465"><ele>145.0</ele><time>2026-04-26T13:17:06.412Z</time></trkpt><trkpt lat="32.266655" lon="-8.9482483"><ele>145.0</ele><time>2026-04-26T13:17:07.412Z</time></trkpt><trkpt lat="32.26678" lon="-8.948035"><ele>145.0</ele><time>2026-04-26T13:17:08.412Z</time></trkpt><trkpt lat="32.2669067" lon="-8.9478167"><ele>145.0</ele><time>2026-04-26T13:17:09.412Z</time></trkpt><trkpt lat="32.2670317" lon="-8.9476033"><ele>145.33333333333334</ele><time>2026-04-26T13:17:10.412Z</time></trkpt><trkpt lat="32.2671567" lon="-8.9473833"><ele>145.66666666666666</ele><time>2026-04-26T13:17:11.412Z</time></trkpt><trkpt lat="32.2672833" lon="-8.9471633"><ele>146.0</ele><time>2026-04-26T13:17:12.412Z</time></trkpt><trkpt lat="32.26741" lon="-8.9469467"><ele>146.33333333333331</ele><time>2026-04-26T13:17:13.412Z</time></trkpt><trkpt lat="32.2675367" lon="-8.94673"><ele>146.66666666666666</ele><time>2026-04-26T13:17:14.412Z</time></trkpt><trkpt lat="32.2676567" lon="-8.94652"><ele>147.0</ele><time>2026-04-26T13:17:15.412Z</time></trkpt><trkpt lat="32.2677667" lon="-8.9463133"><ele>147.0</ele><time>2026-04-26T13:17:16.412Z</time></trkpt><trkpt lat="32.26788" lon="-8.94611"><ele>147.0</ele><time>2026-04-26T13:17:17.412Z</time></trkpt><trkpt lat="32.2679933" lon="-8.9459133"><ele>147.0</ele><time>2026-04-26T13:17:18.412Z</time></trkpt><trkpt lat="32.2681083" lon="-8.9457183"><ele>146.33333333333334</ele><time>2026-04-26T13:17:19.412Z</time></trkpt><trkpt lat="32.2682217" lon="-8.9455233"><ele>145.66666666666669</ele><time>2026-04-26T13:17:20.413Z</time></trkpt><trkpt lat="32.268335" lon="-8.9453283"><ele>145.0</ele><time>2026-04-26T13:17:21.412Z</time></trkpt><trkpt lat="32.26845" lon="-8.9451333"><ele>145.66666666666669</ele><time>2026-04-26T13:17:22.412Z</time></trkpt><trkpt lat="32.2685683" lon="-8.9449333"><ele>146.33333333333334</ele><time>2026-04-26T13:17:23.412Z</time></trkpt><trkpt lat="32.2686867" lon="-8.944735"><ele>147.0</ele><time>2026-04-26T13:17:24.413Z</time></trkpt><trkpt lat="32.2688067" lon="-8.9445333"><ele>147.0</ele><time>2026-04-26T13:17:25.412Z</time></trkpt><trkpt lat="32.2689217" lon="-8.94433"><ele>147.0</ele><time>2026-04-26T13:17:26.412Z</time></trkpt><trkpt lat="32.2690383" lon="-8.9441183"><ele>147.0</ele><time>2026-04-26T13:17:27.412Z</time></trkpt><trkpt lat="32.269155" lon="-8.9439033"><ele>147.33333333333334</ele><time>2026-04-26T13:17:28.412Z</time></trkpt><trkpt lat="32.2692683" lon="-8.9436817"><ele>147.66666666666669</ele><time>2026-04-26T13:17:29.412Z</time></trkpt><trkpt lat="32.26938" lon="-8.94346"><ele>148.0</ele><time>2026-04-26T13:17:30.412Z</time></trkpt><trkpt lat="32.2694883" lon="-8.9432333"><ele>148.0</ele><time>2026-04-26T13:17:31.412Z</time></trkpt><trkpt lat="32.2695983" lon="-8.9430033"><ele>148.0</ele><time>2026-04-26T13:17:32.412Z</time></trkpt><trkpt lat="32.2697033" lon="-8.9427683"><ele>148.0</ele><time>2026-04-26T13:17:33.412Z</time></trkpt><trkpt lat="32.2698083" lon="-8.94253"><ele>149.0</ele><time>2026-04-26T13:17:34.412Z</time></trkpt><trkpt lat="32.2699117" lon="-8.94229"><ele>150.0</ele><time>2026-04-26T13:17:35.412Z</time></trkpt><trkpt lat="32.270015" lon="-8.94205"><ele>150.0</ele><time>2026-04-26T13:17:36.412Z</time></trkpt><trkpt lat="32.270115" lon="-8.9418117"><ele>150.0</ele><time>2026-04-26T13:17:37.412Z</time></trkpt><trkpt lat="32.2702183" lon="-8.9415683"><ele>150.5</ele><time>2026-04-26T13:17:38.412Z</time></trkpt><trkpt lat="32.2703233" lon="-8.941325"><ele>151.0</ele><time>2026-04-26T13:17:39.412Z</time></trkpt><trkpt lat="32.2704283" lon="-8.941085"><ele>151.0</ele><time>2026-04-26T13:17:40.412Z</time></trkpt><trkpt lat="32.2705317" lon="-8.940845"><ele>151.0</ele><time>2026-04-26T13:17:41.412Z</time></trkpt><trkpt lat="32.2706283" lon="-8.9406133"><ele>151.0</ele><time>2026-04-26T13:17:42.413Z</time></trkpt><trkpt lat="32.2707217" lon="-8.9403817"><ele>151.0</ele><time>2026-04-26T13:17:43.412Z</time></trkpt><trkpt lat="32.2708167" lon="-8.9401517"><ele>151.0</ele><time>2026-04-26T13:17:44.412Z</time></trkpt><trkpt lat="32.2709133" lon="-8.93992"><ele>151.0</ele><time>2026-04-26T13:17:45.412Z</time></trkpt><trkpt lat="32.27101" lon="-8.9396917"><ele>150.66666666666669</ele><time>2026-04-26T13:17:46.412Z</time></trkpt><trkpt lat="32.2711067" lon="-8.9394667"><ele>150.33333333333334</ele><time>2026-04-26T13:17:47.412Z</time></trkpt><trkpt lat="32.2712067" lon="-8.9392417"><ele>150.0</ele><time>2026-04-26T13:17:48.412Z</time></trkpt><trkpt lat="32.2713133" lon="-8.9390117"><ele>148.66666666666666</ele><time>2026-04-26T13:17:49.412Z</time></trkpt><trkpt lat="32.2714183" lon="-8.9387917"><ele>147.33333333333331</ele><time>2026-04-26T13:17:50.413Z</time></trkpt><trkpt lat="32.2715267" lon="-8.9385733"><ele>146.0</ele><time>2026-04-26T13:17:51.412Z</time></trkpt><trkpt lat="32.2716433" lon="-8.938355"><ele>145.0</ele><time>2026-04-26T13:17:52.412Z</time></trkpt><trkpt lat="32.2717633" lon="-8.938135"><ele>144.0</ele><time>2026-04-26T13:17:53.412Z</time></trkpt><trkpt lat="32.2718833" lon="-8.93791"><ele>143.0</ele><time>2026-04-26T13:17:54.412Z</time></trkpt><trkpt lat="32.2720017" lon="-8.937685"><ele>144.33333333333331</ele><time>2026-04-26T13:17:55.412Z</time></trkpt><trkpt lat="32.27212" lon="-8.9374617"><ele>145.66666666666666</ele><time>2026-04-26T13:17:56.412Z</time></trkpt><trkpt lat="32.2722383" lon="-8.9372467"><ele>147.0</ele><time>2026-04-26T13:17:57.412Z</time></trkpt><trkpt lat="32.2723517" lon="-8.937045"><ele>148.33333333333334</ele><time>2026-04-26T13:17:58.412Z</time></trkpt><trkpt lat="32.2724567" lon="-8.9368433"><ele>149.66666666666669</ele><time>2026-04-26T13:17:59.412Z</time></trkpt><trkpt lat="32.272565" lon="-8.936645"><ele>151.0</ele><time>2026-04-26T13:18:00.412Z</time></trkpt><trkpt lat="32.27267" lon="-8.9364517"><ele>151.66666666666669</ele><time>2026-04-26T13:18:01.412Z</time></trkpt><trkpt lat="32.27277" lon="-8.9362567"><ele>152.33333333333334</ele><time>2026-04-26T13:18:02.412Z</time></trkpt><trkpt lat="32.2728717" lon="-8.936065"><ele>153.0</ele><time>2026-04-26T13:18:03.412Z</time></trkpt><trkpt lat="32.2729783" lon="-8.9358617"><ele>154.33333333333334</ele><time>2026-04-26T13:18:04.412Z</time></trkpt><trkpt lat="32.27309" lon="-8.9356483"><ele>155.66666666666669</ele><time>2026-04-26T13:18:05.412Z</time></trkpt><trkpt lat="32.2732033" lon="-8.93543"><ele>157.0</ele><time>2026-04-26T13:18:06.412Z</time></trkpt><trkpt lat="32.27332" lon="-8.9352083"><ele>156.33333333333334</ele><time>2026-04-26T13:18:07.412Z</time></trkpt><trkpt lat="32.2734333" lon="-8.934995"><ele>155.66666666666666</ele><time>2026-04-26T13:18:08.412Z</time></trkpt><trkpt lat="32.2735417" lon="-8.934785"><ele>155.0</ele><time>2026-04-26T13:18:09.412Z</time></trkpt><trkpt lat="32.2736533" lon="-8.9345783"><ele>155.0</ele><time>2026-04-26T13:18:10.412Z</time></trkpt><trkpt lat="32.2737633" lon="-8.934365"><ele>155.0</ele><time>2026-04-26T13:18:11.412Z</time></trkpt><trkpt lat="32.2738733" lon="-8.9341467"><ele>155.0</ele><time>2026-04-26T13:18:12.412Z</time></trkpt><trkpt lat="32.2739867" lon="-8.933935"><ele>154.66666666666666</ele><time>2026-04-26T13:18:13.412Z</time></trkpt><trkpt lat="32.2741" lon="-8.93372"><ele>154.33333333333334</ele><time>2026-04-26T13:18:14.412Z</time></trkpt><trkpt lat="32.2742133" lon="-8.9334983"><ele>154.0</ele><time>2026-04-26T13:18:15.413Z</time></trkpt><trkpt lat="32.27433" lon="-8.9332783"><ele>154.0</ele><time>2026-04-26T13:18:16.412Z</time></trkpt><trkpt lat="32.2744433" lon="-8.9330567"><ele>154.0</ele><time>2026-04-26T13:18:17.412Z</time></trkpt><trkpt lat="32.2745583" lon="-8.9328333"><ele>154.0</ele><time>2026-04-26T13:18:18.412Z</time></trkpt><trkpt lat="32.2746733" lon="-8.9326133"><ele>153.33333333333334</ele><time>2026-04-26T13:18:19.412Z</time></trkpt><trkpt lat="32.2747917" lon="-8.93239"><ele>152.66666666666666</ele><time>2026-04-26T13:18:20.412Z</time></trkpt><trkpt lat="32.27491" lon="-8.9321717"><ele>152.0</ele><time>2026-04-26T13:18:21.412Z</time></trkpt><trkpt lat="32.2750233" lon="-8.93196"><ele>152.0</ele><time>2026-04-26T13:18:22.413Z</time></trkpt><trkpt lat="32.27513" lon="-8.931755"><ele>152.0</ele><time>2026-04-26T13:18:23.412Z</time></trkpt><trkpt lat="32.2752367" lon="-8.931555"><ele>152.0</ele><time>2026-04-26T13:18:24.412Z</time></trkpt><trkpt lat="32.275345" lon="-8.9313533"><ele>152.0</ele><time>2026-04-26T13:18:25.412Z</time></trkpt><trkpt lat="32.2754533" lon="-8.9311517"><ele>152.0</ele><time>2026-04-26T13:18:26.412Z</time></trkpt><trkpt lat="32.27556" lon="-8.93095"><ele>152.0</ele><time>2026-04-26T13:18:27.412Z</time></trkpt><trkpt lat="32.2756667" lon="-8.9307467"><ele>152.0</ele><time>2026-04-26T13:18:28.412Z</time></trkpt><trkpt lat="32.275775" lon="-8.93054"><ele>152.0</ele><time>2026-04-26T13:18:29.412Z</time></trkpt><trkpt lat="32.275885" lon="-8.9303283"><ele>152.0</ele><time>2026-04-26T13:18:30.412Z</time></trkpt><trkpt lat="32.2759967" lon="-8.9301133"><ele>153.66666666666666</ele><time>2026-04-26T13:18:31.412Z</time></trkpt><trkpt lat="32.2761117" lon="-8.9299"><ele>155.33333333333334</ele><time>2026-04-26T13:18:32.412Z</time></trkpt><trkpt lat="32.2762267" lon="-8.92968"><ele>157.0</ele><time>2026-04-26T13:18:33.412Z</time></trkpt><trkpt lat="32.276345" lon="-8.929455"><ele>157.0</ele><time>2026-04-26T13:18:34.412Z</time></trkpt><trkpt lat="32.2764683" lon="-8.9292317"><ele>157.0</ele><time>2026-04-26T13:18:35.412Z</time></trkpt><trkpt lat="32.2765867" lon="-8.9290133"><ele>157.0</ele><time>2026-04-26T13:18:36.412Z</time></trkpt><trkpt lat="32.2767" lon="-8.928795"><ele>157.33333333333334</ele><time>2026-04-26T13:18:37.412Z</time></trkpt><trkpt lat="32.2768117" lon="-8.9285817"><ele>157.66666666666666</ele><time>2026-04-26T13:18:38.412Z</time></trkpt><trkpt lat="32.276925" lon="-8.9283617"><ele>158.0</ele><time>2026-04-26T13:18:39.412Z</time></trkpt><trkpt lat="32.2770367" lon="-8.9281483"><ele>158.0</ele><time>2026-04-26T13:18:40.412Z</time></trkpt><trkpt lat="32.2771517" lon="-8.9279283"><ele>158.0</ele><time>2026-04-26T13:18:41.412Z</time></trkpt><trkpt lat="32.2772683" lon="-8.9277183"><ele>158.0</ele><time>2026-04-26T13:18:42.412Z</time></trkpt><trkpt lat="32.27738" lon="-8.9275117"><ele>157.33333333333331</ele><time>2026-04-26T13:18:43.412Z</time></trkpt><trkpt lat="32.2774867" lon="-8.927305"><ele>156.66666666666666</ele><time>2026-04-26T13:18:44.411Z</time></trkpt><trkpt lat="32.2775933" lon="-8.9270967"><ele>156.0</ele><time>2026-04-26T13:18:45.411Z</time></trkpt><trkpt lat="32.2777033" lon="-8.9268867"><ele>155.66666666666666</ele><time>2026-04-26T13:18:46.411Z</time></trkpt><trkpt lat="32.2778117" lon="-8.9266817"><ele>155.33333333333331</ele><time>2026-04-26T13:18:47.411Z</time></trkpt><trkpt lat="32.27792" lon="-8.9264767"><ele>155.0</ele><time>2026-04-26T13:18:48.411Z</time></trkpt><trkpt lat="32.27803" lon="-8.9262733"><ele>155.33333333333331</ele><time>2026-04-26T13:18:49.411Z</time></trkpt><trkpt lat="32.27814" lon="-8.9260667"><ele>155.66666666666666</ele><time>2026-04-26T13:18:50.411Z</time></trkpt><trkpt lat="32.2782517" lon="-8.9258567"><ele>156.0</ele><time>2026-04-26T13:18:51.411Z</time></trkpt><trkpt lat="32.2783583" lon="-8.92565"><ele>156.0</ele><time>2026-04-26T13:18:52.411Z</time></trkpt><trkpt lat="32.2784683" lon="-8.9254267"><ele>156.0</ele><time>2026-04-26T13:18:53.411Z</time></trkpt><trkpt lat="32.27857" lon="-8.9252033"><ele>156.0</ele><time>2026-04-26T13:18:54.411Z</time></trkpt><trkpt lat="32.2786683" lon="-8.9249767"><ele>157.5</ele><time>2026-04-26T13:18:55.411Z</time></trkpt><trkpt lat="32.278765" lon="-8.9247383"><ele>159.0</ele><time>2026-04-26T13:18:56.411Z</time></trkpt><trkpt lat="32.27886" lon="-8.9244833"><ele>158.66666666666666</ele><time>2026-04-26T13:18:57.411Z</time></trkpt><trkpt lat="32.2789433" lon="-8.9242417"><ele>158.33333333333331</ele><time>2026-04-26T13:18:58.411Z</time></trkpt><trkpt lat="32.2790167" lon="-8.9240117"><ele>158.0</ele><time>2026-04-26T13:18:59.411Z</time></trkpt><trkpt lat="32.279095" lon="-8.923785"><ele>158.0</ele><time>2026-04-26T13:19:00.411Z</time></trkpt><trkpt lat="32.2791767" lon="-8.9235517"><ele>158.0</ele><time>2026-04-26T13:19:01.411Z</time></trkpt><trkpt lat="32.2792583" lon="-8.9233183"><ele>158.0</ele><time>2026-04-26T13:19:02.411Z</time></trkpt><trkpt lat="32.27934" lon="-8.9230817"><ele>158.0</ele><time>2026-04-26T13:19:03.411Z</time></trkpt><trkpt lat="32.279425" lon="-8.922845"><ele>158.0</ele><time>2026-04-26T13:19:04.411Z</time></trkpt><trkpt lat="32.2795117" lon="-8.9226067"><ele>158.0</ele><time>2026-04-26T13:19:05.412Z</time></trkpt><trkpt lat="32.2795967" lon="-8.922365"><ele>158.33333333333331</ele><time>2026-04-26T13:19:06.411Z</time></trkpt><trkpt lat="32.2796783" lon="-8.922125"><ele>158.66666666666666</ele><time>2026-04-26T13:19:07.411Z</time></trkpt><trkpt lat="32.279755" lon="-8.9218883"><ele>159.0</ele><time>2026-04-26T13:19:08.411Z</time></trkpt><trkpt lat="32.2798383" lon="-8.921655"><ele>159.0</ele><time>2026-04-26T13:19:09.412Z</time></trkpt><trkpt lat="32.2799233" lon="-8.9214233"><ele>159.0</ele><time>2026-04-26T13:19:10.411Z</time></trkpt><trkpt lat="32.2800133" lon="-8.921195"><ele>159.0</ele><time>2026-04-26T13:19:11.411Z</time></trkpt><trkpt lat="32.2801133" lon="-8.92097"><ele>158.66666666666666</ele><time>2026-04-26T13:19:12.411Z</time></trkpt><trkpt lat="32.2802183" lon="-8.92075"><ele>158.33333333333331</ele><time>2026-04-26T13:19:13.411Z</time></trkpt><trkpt lat="32.28033" lon="-8.9205217"><ele>158.0</ele><time>2026-04-26T13:19:14.411Z</time></trkpt><trkpt lat="32.2804483" lon="-8.9202967"><ele>158.0</ele><time>2026-04-26T13:19:15.411Z</time></trkpt><trkpt lat="32.28057" lon="-8.9200783"><ele>158.0</ele><time>2026-04-26T13:19:16.411Z</time></trkpt><trkpt lat="32.280695" lon="-8.9198567"><ele>158.0</ele><time>2026-04-26T13:19:17.411Z</time></trkpt><trkpt lat="32.2808233" lon="-8.9196283"><ele>156.5</ele><time>2026-04-26T13:19:18.411Z</time></trkpt><trkpt lat="32.280955" lon="-8.919395"><ele>155.0</ele><time>2026-04-26T13:19:19.411Z</time></trkpt><trkpt lat="32.281085" lon="-8.919165"><ele>155.0</ele><time>2026-04-26T13:19:20.411Z</time></trkpt><trkpt lat="32.2812233" lon="-8.918935"><ele>155.0</ele><time>2026-04-26T13:19:21.411Z</time></trkpt><trkpt lat="32.28136" lon="-8.9187083"><ele>155.0</ele><time>2026-04-26T13:19:22.411Z</time></trkpt><trkpt lat="32.2814967" lon="-8.9184833"><ele>155.0</ele><time>2026-04-26T13:19:23.411Z</time></trkpt><trkpt lat="32.281625" lon="-8.918265"><ele>155.0</ele><time>2026-04-26T13:19:24.411Z</time></trkpt><trkpt lat="32.28175" lon="-8.9180483"><ele>155.0</ele><time>2026-04-26T13:19:25.411Z</time></trkpt><trkpt lat="32.281875" lon="-8.9178367"><ele>155.0</ele><time>2026-04-26T13:19:26.411Z</time></trkpt><trkpt lat="32.2819933" lon="-8.917625"><ele>155.33333333333331</ele><time>2026-04-26T13:19:27.411Z</time></trkpt><trkpt lat="32.2821083" lon="-8.9174183"><ele>155.66666666666666</ele><time>2026-04-26T13:19:28.411Z</time></trkpt><trkpt lat="32.282225" lon="-8.9172183"><ele>156.0</ele><time>2026-04-26T13:19:29.412Z</time></trkpt><trkpt lat="32.282345" lon="-8.9170283"><ele>154.66666666666666</ele><time>2026-04-26T13:19:30.411Z</time></trkpt><trkpt lat="32.2824567" lon="-8.9168383"><ele>153.33333333333331</ele><time>2026-04-26T13:19:31.411Z</time></trkpt><trkpt lat="32.2825617" lon="-8.9166483"><ele>152.0</ele><time>2026-04-26T13:19:32.411Z</time></trkpt><trkpt lat="32.2826667" lon="-8.9164583"><ele>152.0</ele><time>2026-04-26T13:19:33.411Z</time></trkpt><trkpt lat="32.282775" lon="-8.91626"><ele>152.0</ele><time>2026-04-26T13:19:34.411Z</time></trkpt><trkpt lat="32.2828833" lon="-8.9160633"><ele>152.0</ele><time>2026-04-26T13:19:35.411Z</time></trkpt><trkpt lat="32.28299" lon="-8.9158783"><ele>152.33333333333331</ele><time>2026-04-26T13:19:36.411Z</time></trkpt><trkpt lat="32.283095" lon="-8.91569"><ele>152.66666666666666</ele><time>2026-04-26T13:19:37.411Z</time></trkpt><trkpt lat="32.2832033" lon="-8.9155083"><ele>153.0</ele><time>2026-04-26T13:19:38.411Z</time></trkpt><trkpt lat="32.283305" lon="-8.9153233"><ele>153.0</ele><time>2026-04-26T13:19:39.411Z</time></trkpt><trkpt lat="32.2834083" lon="-8.91514"><ele>153.0</ele><time>2026-04-26T13:19:40.411Z</time></trkpt><trkpt lat="32.283515" lon="-8.9149517"><ele>153.0</ele><time>2026-04-26T13:19:41.411Z</time></trkpt><trkpt lat="32.2836283" lon="-8.9147583"><ele>153.0</ele><time>2026-04-26T13:19:42.411Z</time></trkpt><trkpt lat="32.2837483" lon="-8.91456"><ele>153.0</ele><time>2026-04-26T13:19:43.411Z</time></trkpt><trkpt lat="32.2838767" lon="-8.91436"><ele>153.0</ele><time>2026-04-26T13:19:44.411Z</time></trkpt><trkpt lat="32.284005" lon="-8.9141583"><ele>153.66666666666666</ele><time>2026-04-26T13:19:45.411Z</time></trkpt><trkpt lat="32.2841367" lon="-8.9139567"><ele>154.33333333333331</ele><time>2026-04-26T13:19:46.411Z</time></trkpt><trkpt lat="32.2842617" lon="-8.9137667"><ele>155.0</ele><time>2026-04-26T13:19:47.411Z</time></trkpt><trkpt lat="32.284385" lon="-8.9135867"><ele>155.0</ele><time>2026-04-26T13:19:48.411Z</time></trkpt><trkpt lat="32.28451" lon="-8.913415"><ele>155.0</ele><time>2026-04-26T13:19:49.411Z</time></trkpt><trkpt lat="32.28464" lon="-8.91325"><ele>155.0</ele><time>2026-04-26T13:19:50.411Z</time></trkpt><trkpt lat="32.2847717" lon="-8.9130917"><ele>156.0</ele><time>2026-04-26T13:19:51.411Z</time></trkpt><trkpt lat="32.2849033" lon="-8.912925"><ele>157.0</ele><time>2026-04-26T13:19:52.411Z</time></trkpt><trkpt lat="32.2850433" lon="-8.9127567"><ele>158.0</ele><time>2026-04-26T13:19:53.411Z</time></trkpt><trkpt lat="32.2851867" lon="-8.9125833"><ele>157.33333333333331</ele><time>2026-04-26T13:19:54.412Z</time></trkpt><trkpt lat="32.285335" lon="-8.9124083"><ele>156.66666666666666</ele><time>2026-04-26T13:19:55.411Z</time></trkpt><trkpt lat="32.285485" lon="-8.9122233"><ele>156.0</ele><time>2026-04-26T13:19:56.411Z</time></trkpt><trkpt lat="32.285635" lon="-8.9120433"><ele>157.0</ele><time>2026-04-26T13:19:57.411Z</time></trkpt><trkpt lat="32.28578" lon="-8.91187"><ele>158.0</ele><time>2026-04-26T13:19:58.411Z</time></trkpt><trkpt lat="32.2859217" lon="-8.9117"><ele>159.0</ele><time>2026-04-26T13:19:59.411Z</time></trkpt><trkpt lat="32.2860633" lon="-8.9115267"><ele>159.0</ele><time>2026-04-26T13:20:00.411Z</time></trkpt><trkpt lat="32.286205" lon="-8.9113583"><ele>159.0</ele><time>2026-04-26T13:20:01.412Z</time></trkpt><trkpt lat="32.28635" lon="-8.9111867"><ele>159.0</ele><time>2026-04-26T13:20:02.412Z</time></trkpt><trkpt lat="32.286495" lon="-8.9110167"><ele>159.0</ele><time>2026-04-26T13:20:03.411Z</time></trkpt><trkpt lat="32.286635" lon="-8.9108433"><ele>159.0</ele><time>2026-04-26T13:20:04.411Z</time></trkpt><trkpt lat="32.2867783" lon="-8.9106633"><ele>159.0</ele><time>2026-04-26T13:20:05.411Z</time></trkpt><trkpt lat="32.28692" lon="-8.9104817"><ele>159.0</ele><time>2026-04-26T13:20:06.411Z</time></trkpt><trkpt lat="32.287055" lon="-8.9102967"><ele>159.0</ele><time>2026-04-26T13:20:07.411Z</time></trkpt><trkpt lat="32.28719" lon="-8.910115"><ele>159.0</ele><time>2026-04-26T13:20:08.411Z</time></trkpt><trkpt lat="32.2873217" lon="-8.909935"><ele>158.66666666666666</ele><time>2026-04-26T13:20:09.411Z</time></trkpt><trkpt lat="32.287455" lon="-8.9097517"><ele>158.33333333333331</ele><time>2026-04-26T13:20:10.411Z</time></trkpt><trkpt lat="32.2875917" lon="-8.90956"><ele>158.0</ele><time>2026-04-26T13:20:11.411Z</time></trkpt><trkpt lat="32.28773" lon="-8.9093633"><ele>158.0</ele><time>2026-04-26T13:20:12.411Z</time></trkpt><trkpt lat="32.2878783" lon="-8.909165"><ele>158.0</ele><time>2026-04-26T13:20:13.411Z</time></trkpt><trkpt lat="32.288025" lon="-8.90896"><ele>159.0</ele><time>2026-04-26T13:20:14.411Z</time></trkpt><trkpt lat="32.2881817" lon="-8.9087433"><ele>160.0</ele><time>2026-04-26T13:20:15.411Z</time></trkpt><trkpt lat="32.2883417" lon="-8.9085183"><ele>159.0</ele><time>2026-04-26T13:20:16.411Z</time></trkpt><trkpt lat="32.28851" lon="-8.9082933"><ele>158.0</ele><time>2026-04-26T13:20:17.411Z</time></trkpt><trkpt lat="32.28868" lon="-8.9080617"><ele>158.0</ele><time>2026-04-26T13:20:18.412Z</time></trkpt><trkpt lat="32.2888483" lon="-8.907825"><ele>158.0</ele><time>2026-04-26T13:20:19.411Z</time></trkpt><trkpt lat="32.2890133" lon="-8.9075833"><ele>158.5</ele><time>2026-04-26T13:20:20.411Z</time></trkpt><trkpt lat="32.28918" lon="-8.9073467"><ele>159.0</ele><time>2026-04-26T13:20:21.411Z</time></trkpt><trkpt lat="32.2893417" lon="-8.9071033"><ele>159.0</ele><time>2026-04-26T13:20:22.411Z</time></trkpt><trkpt lat="32.2894983" lon="-8.9068583"><ele>159.0</ele><time>2026-04-26T13:20:23.411Z</time></trkpt><trkpt lat="32.2896633" lon="-8.9066167"><ele>158.5</ele><time>2026-04-26T13:20:24.411Z</time></trkpt><trkpt lat="32.28983" lon="-8.906375"><ele>158.0</ele><time>2026-04-26T13:20:25.411Z</time></trkpt><trkpt lat="32.29" lon="-8.9061367"><ele>158.5</ele><time>2026-04-26T13:20:26.411Z</time></trkpt><trkpt lat="32.2901733" lon="-8.905895"><ele>159.0</ele><time>2026-04-26T13:20:27.411Z</time></trkpt><trkpt lat="32.290345" lon="-8.905655"><ele>159.0</ele><time>2026-04-26T13:20:28.411Z</time></trkpt><trkpt lat="32.2905183" lon="-8.9054083"><ele>159.0</ele><time>2026-04-26T13:20:29.411Z</time></trkpt><trkpt lat="32.2906883" lon="-8.9051617"><ele>157.5</ele><time>2026-04-26T13:20:30.411Z</time></trkpt><trkpt lat="32.2908617" lon="-8.9049167"><ele>156.0</ele><time>2026-04-26T13:20:31.411Z</time></trkpt><trkpt lat="32.291035" lon="-8.9046733"><ele>156.0</ele><time>2026-04-26T13:20:32.411Z</time></trkpt><trkpt lat="32.2912083" lon="-8.9044333"><ele>156.0</ele><time>2026-04-26T13:20:33.411Z</time></trkpt><trkpt lat="32.2913817" lon="-8.904185"><ele>157.5</ele><time>2026-04-26T13:20:34.411Z</time></trkpt><trkpt lat="32.2915583" lon="-8.903935"><ele>159.0</ele><time>2026-04-26T13:20:35.411Z</time></trkpt><trkpt lat="32.291735" lon="-8.9036833"><ele>159.0</ele><time>2026-04-26T13:20:36.411Z</time></trkpt><trkpt lat="32.29191" lon="-8.9034317"><ele>159.0</ele><time>2026-04-26T13:20:37.411Z</time></trkpt><trkpt lat="32.2920917" lon="-8.9031767"><ele>157.0</ele><time>2026-04-26T13:20:38.411Z</time></trkpt><trkpt lat="32.2922717" lon="-8.902925"><ele>155.0</ele><time>2026-04-26T13:20:39.411Z</time></trkpt><trkpt lat="32.2924533" lon="-8.9026717"><ele>155.0</ele><time>2026-04-26T13:20:40.411Z</time></trkpt><trkpt lat="32.2926217" lon="-8.9024283"><ele>155.0</ele><time>2026-04-26T13:20:41.411Z</time></trkpt><trkpt lat="32.2927883" lon="-8.9021983"><ele>155.0</ele><time>2026-04-26T13:20:42.411Z</time></trkpt><trkpt lat="32.2929433" lon="-8.901975"><ele>155.0</ele><time>2026-04-26T13:20:43.411Z</time></trkpt><trkpt lat="32.2930967" lon="-8.9017567"><ele>154.5</ele><time>2026-04-26T13:20:44.411Z</time></trkpt><trkpt lat="32.29325" lon="-8.9015433"><ele>154.0</ele><time>2026-04-26T13:20:45.411Z</time></trkpt><trkpt lat="32.2934017" lon="-8.9013217"><ele>154.0</ele><time>2026-04-26T13:20:46.411Z</time></trkpt><trkpt lat="32.2935583" lon="-8.901105"><ele>154.0</ele><time>2026-04-26T13:20:47.411Z</time></trkpt><trkpt lat="32.2937167" lon="-8.9008817"><ele>154.0</ele><time>2026-04-26T13:20:48.411Z</time></trkpt><trkpt lat="32.2938783" lon="-8.9006583"><ele>154.0</ele><time>2026-04-26T13:20:49.411Z</time></trkpt><trkpt lat="32.2940517" lon="-8.90044"><ele>154.0</ele><time>2026-04-26T13:20:50.411Z</time></trkpt><trkpt lat="32.2942283" lon="-8.9002217"><ele>154.0</ele><time>2026-04-26T13:20:51.411Z</time></trkpt><trkpt lat="32.294415" lon="-8.900015"><ele>155.5</ele><time>2026-04-26T13:20:52.411Z</time></trkpt><trkpt lat="32.2946067" lon="-8.8998117"><ele>157.0</ele><time>2026-04-26T13:20:53.411Z</time></trkpt><trkpt lat="32.2948083" lon="-8.89961"><ele>157.0</ele><time>2026-04-26T13:20:54.411Z</time></trkpt><trkpt lat="32.2950133" lon="-8.8994183"><ele>157.0</ele><time>2026-04-26T13:20:55.411Z</time></trkpt><trkpt lat="32.2952233" lon="-8.8992317"><ele>156.5</ele><time>2026-04-26T13:20:56.411Z</time></trkpt><trkpt lat="32.2954367" lon="-8.89905"><ele>156.0</ele><time>2026-04-26T13:20:57.411Z</time></trkpt><trkpt lat="32.2956567" lon="-8.8988717"><ele>154.5</ele><time>2026-04-26T13:20:58.411Z</time></trkpt><trkpt lat="32.2958867" lon="-8.8986983"><ele>153.0</ele><time>2026-04-26T13:20:59.411Z</time></trkpt><trkpt lat="32.2961167" lon="-8.89853"><ele>153.5</ele><time>2026-04-26T13:21:00.411Z</time></trkpt><trkpt lat="32.2963433" lon="-8.8983633"><ele>154.0</ele><time>2026-04-26T13:21:01.411Z</time></trkpt><trkpt lat="32.2965683" lon="-8.8981983"><ele>154.5</ele><time>2026-04-26T13:21:02.411Z</time></trkpt><trkpt lat="32.2968" lon="-8.89803"><ele>155.0</ele><time>2026-04-26T13:21:03.411Z</time></trkpt><trkpt lat="32.2970267" lon="-8.897865"><ele>155.5</ele><time>2026-04-26T13:21:04.411Z</time></trkpt><trkpt lat="32.2972567" lon="-8.897705"><ele>156.0</ele><time>2026-04-26T13:21:05.411Z</time></trkpt><trkpt lat="32.29748" lon="-8.8975383"><ele>156.0</ele><time>2026-04-26T13:21:06.411Z</time></trkpt><trkpt lat="32.2976933" lon="-8.8973917"><ele>156.0</ele><time>2026-04-26T13:21:07.411Z</time></trkpt><trkpt lat="32.2978933" lon="-8.8972467"><ele>157.5</ele><time>2026-04-26T13:21:08.411Z</time></trkpt><trkpt lat="32.29809" lon="-8.8971067"><ele>159.0</ele><time>2026-04-26T13:21:09.411Z</time></trkpt><trkpt lat="32.2982883" lon="-8.8969667"><ele>159.0</ele><time>2026-04-26T13:21:10.411Z</time></trkpt><trkpt lat="32.2984867" lon="-8.8968233"><ele>159.0</ele><time>2026-04-26T13:21:11.411Z</time></trkpt><trkpt lat="32.2986883" lon="-8.896675"><ele>158.0</ele><time>2026-04-26T13:21:12.411Z</time></trkpt><trkpt lat="32.2988917" lon="-8.8965283"><ele>157.0</ele><time>2026-04-26T13:21:13.411Z</time></trkpt><trkpt lat="32.2990967" lon="-8.8963817"><ele>157.0</ele><time>2026-04-26T13:21:14.411Z</time></trkpt><trkpt lat="32.2992983" lon="-8.8962317"><ele>157.0</ele><time>2026-04-26T13:21:15.411Z</time></trkpt><trkpt lat="32.2995017" lon="-8.8960833"><ele>157.0</ele><time>2026-04-26T13:21:16.411Z</time></trkpt><trkpt lat="32.2997083" lon="-8.8959317"><ele>157.0</ele><time>2026-04-26T13:21:17.411Z</time></trkpt><trkpt lat="32.2999117" lon="-8.8957767"><ele>153.5</ele><time>2026-04-26T13:21:18.411Z</time></trkpt><trkpt lat="32.3001167" lon="-8.8956233"><ele>150.0</ele><time>2026-04-26T13:21:19.411Z</time></trkpt><trkpt lat="32.300325" lon="-8.8954717"><ele>150.0</ele><time>2026-04-26T13:21:20.411Z</time></trkpt><trkpt lat="32.3005333" lon="-8.8953183"><ele>150.0</ele><time>2026-04-26T13:21:21.411Z</time></trkpt><trkpt lat="32.3007467" lon="-8.8951683"><ele>150.5</ele><time>2026-04-26T13:21:22.411Z</time></trkpt><trkpt lat="32.3009633" lon="-8.8950183"><ele>151.0</ele><time>2026-04-26T13:21:23.411Z</time></trkpt><trkpt lat="32.3011783" lon="-8.8948667"><ele>151.0</ele><time>2026-04-26T13:21:24.411Z</time></trkpt><trkpt lat="32.3013883" lon="-8.8947167"><ele>151.0</ele><time>2026-04-26T13:21:25.411Z</time></trkpt><trkpt lat="32.3015967" lon="-8.8945717"><ele>152.5</ele><time>2026-04-26T13:21:26.411Z</time></trkpt><trkpt lat="32.3017917" lon="-8.894425"><ele>154.0</ele><time>2026-04-26T13:21:27.411Z</time></trkpt><trkpt lat="32.3019867" lon="-8.8942833"><ele>153.5</ele><time>2026-04-26T13:21:28.411Z</time></trkpt><trkpt lat="32.3021833" lon="-8.8941367"><ele>153.0</ele><time>2026-04-26T13:21:29.411Z</time></trkpt><trkpt lat="32.30238" lon="-8.8939917"><ele>154.5</ele><time>2026-04-26T13:21:30.411Z</time></trkpt><trkpt lat="32.3025833" lon="-8.8938433"><ele>156.0</ele><time>2026-04-26T13:21:31.411Z</time></trkpt><trkpt lat="32.3027883" lon="-8.8936983"><ele>156.0</ele><time>2026-04-26T13:21:32.411Z</time></trkpt><trkpt lat="32.3029933" lon="-8.89355"><ele>156.0</ele><time>2026-04-26T13:21:33.411Z</time></trkpt><trkpt lat="32.30319" lon="-8.8934017"><ele>157.0</ele><time>2026-04-26T13:21:34.411Z</time></trkpt><trkpt lat="32.3033917" lon="-8.8932583"><ele>158.0</ele><time>2026-04-26T13:21:35.411Z</time></trkpt><trkpt lat="32.3035917" lon="-8.8931167"><ele>158.0</ele><time>2026-04-26T13:21:36.411Z</time></trkpt><trkpt lat="32.30378" lon="-8.8929733"><ele>158.0</ele><time>2026-04-26T13:21:37.411Z</time></trkpt><trkpt lat="32.3039633" lon="-8.892825"><ele>158.0</ele><time>2026-04-26T13:21:38.411Z</time></trkpt><trkpt lat="32.3041433" lon="-8.8926717"><ele>159.0</ele><time>2026-04-26T13:21:39.411Z</time></trkpt><trkpt lat="32.30432" lon="-8.8925"><ele>160.0</ele><time>2026-04-26T13:21:40.411Z</time></trkpt><trkpt lat="32.3044933" lon="-8.8923267"><ele>160.0</ele><time>2026-04-26T13:21:41.411Z</time></trkpt><trkpt lat="32.3046717" lon="-8.8921383"><ele>160.0</ele><time>2026-04-26T13:21:42.411Z</time></trkpt><trkpt lat="32.3048467" lon="-8.8919383"><ele>158.0</ele><time>2026-04-26T13:21:43.411Z</time></trkpt><trkpt lat="32.3050133" lon="-8.891725"><ele>156.0</ele><time>2026-04-26T13:21:44.411Z</time></trkpt><trkpt lat="32.3051767" lon="-8.8915083"><ele>156.0</ele><time>2026-04-26T13:21:45.411Z</time></trkpt><trkpt lat="32.3053433" lon="-8.8912933"><ele>156.0</ele><time>2026-04-26T13:21:46.411Z</time></trkpt><trkpt lat="32.3055083" lon="-8.891075"><ele>155.0</ele><time>2026-04-26T13:21:47.411Z</time></trkpt><trkpt lat="32.305675" lon="-8.8908517"><ele>154.0</ele><time>2026-04-26T13:21:48.411Z</time></trkpt><trkpt lat="32.305835" lon="-8.8906367"><ele>154.0</ele><time>2026-04-26T13:21:49.411Z</time></trkpt><trkpt lat="32.3059883" lon="-8.8904317"><ele>154.0</ele><time>2026-04-26T13:21:50.411Z</time></trkpt><trkpt lat="32.306135" lon="-8.8902317"><ele>154.0</ele><time>2026-04-26T13:21:51.411Z</time></trkpt><trkpt lat="32.3062833" lon="-8.89003"><ele>154.0</ele><time>2026-04-26T13:21:52.411Z</time></trkpt><trkpt lat="32.3064333" lon="-8.8898317"><ele>154.0</ele><time>2026-04-26T13:21:53.411Z</time></trkpt><trkpt lat="32.3065817" lon="-8.8896267"><ele>154.0</ele><time>2026-04-26T13:21:54.411Z</time></trkpt><trkpt lat="32.3067333" lon="-8.8894283"><ele>154.0</ele><time>2026-04-26T13:21:55.411Z</time></trkpt><trkpt lat="32.3068883" lon="-8.8892267"><ele>154.0</ele><time>2026-04-26T13:21:56.411Z</time></trkpt><trkpt lat="32.3070383" lon="-8.8890267"><ele>154.0</ele><time>2026-04-26T13:21:57.411Z</time></trkpt><trkpt lat="32.30719" lon="-8.888825"><ele>154.0</ele><time>2026-04-26T13:21:58.411Z</time></trkpt><trkpt lat="32.3073383" lon="-8.888625"><ele>154.0</ele><time>2026-04-26T13:21:59.411Z</time></trkpt><trkpt lat="32.3074817" lon="-8.8884233"><ele>154.0</ele><time>2026-04-26T13:22:00.411Z</time></trkpt><trkpt lat="32.3076183" lon="-8.88823"><ele>154.0</ele><time>2026-04-26T13:22:01.411Z</time></trkpt><trkpt lat="32.307755" lon="-8.8880483"><ele>154.0</ele><time>2026-04-26T13:22:02.411Z</time></trkpt><trkpt lat="32.3078883" lon="-8.887875"><ele>154.0</ele><time>2026-04-26T13:22:03.411Z</time></trkpt><trkpt lat="32.3080117" lon="-8.8877017"><ele>154.0</ele><time>2026-04-26T13:22:04.411Z</time></trkpt><trkpt lat="32.3081417" lon="-8.88753"><ele>154.66666666666669</ele><time>2026-04-26T13:22:05.411Z</time></trkpt><trkpt lat="32.308275" lon="-8.8873567"><ele>155.33333333333334</ele><time>2026-04-26T13:22:06.411Z</time></trkpt><trkpt lat="32.30841" lon="-8.887175"><ele>156.0</ele><time>2026-04-26T13:22:07.411Z</time></trkpt><trkpt lat="32.308545" lon="-8.8869917"><ele>156.0</ele><time>2026-04-26T13:22:08.412Z</time></trkpt><trkpt lat="32.3086717" lon="-8.886815"><ele>156.0</ele><time>2026-04-26T13:22:09.411Z</time></trkpt><trkpt lat="32.3087967" lon="-8.8866483"><ele>156.0</ele><time>2026-04-26T13:22:10.411Z</time></trkpt><trkpt lat="32.308915" lon="-8.8864817"><ele>156.33333333333334</ele><time>2026-04-26T13:22:11.411Z</time></trkpt><trkpt lat="32.3090333" lon="-8.8863333"><ele>156.66666666666669</ele><time>2026-04-26T13:22:12.411Z</time></trkpt><trkpt lat="32.309145" lon="-8.8861867"><ele>157.0</ele><time>2026-04-26T13:22:13.411Z</time></trkpt><trkpt lat="32.3092483" lon="-8.8860417"><ele>156.75</ele><time>2026-04-26T13:22:14.411Z</time></trkpt><trkpt lat="32.3093467" lon="-8.885905"><ele>156.5</ele><time>2026-04-26T13:22:15.411Z</time></trkpt><trkpt lat="32.3094433" lon="-8.8857767"><ele>156.25</ele><time>2026-04-26T13:22:16.411Z</time></trkpt><trkpt lat="32.3095383" lon="-8.8856567"><ele>156.0</ele><time>2026-04-26T13:22:17.411Z</time></trkpt><trkpt lat="32.30963" lon="-8.8855317"><ele>156.0</ele><time>2026-04-26T13:22:18.411Z</time></trkpt><trkpt lat="32.30972" lon="-8.8854133"><ele>156.0</ele><time>2026-04-26T13:22:19.411Z</time></trkpt><trkpt lat="32.30981" lon="-8.8853"><ele>156.0</ele><time>2026-04-26T13:22:20.411Z</time></trkpt><trkpt lat="32.3098983" lon="-8.8851867"><ele>156.0</ele><time>2026-04-26T13:22:21.411Z</time></trkpt><trkpt lat="32.3099883" lon="-8.88507"><ele>156.5</ele><time>2026-04-26T13:22:22.411Z</time></trkpt><trkpt lat="32.31008" lon="-8.8849483"><ele>157.0</ele><time>2026-04-26T13:22:23.411Z</time></trkpt><trkpt lat="32.310175" lon="-8.8848267"><ele>157.5</ele><time>2026-04-26T13:22:24.411Z</time></trkpt><trkpt lat="32.3102717" lon="-8.8846917"><ele>158.0</ele><time>2026-04-26T13:22:25.411Z</time></trkpt><trkpt lat="32.3103717" lon="-8.88456"><ele>158.0</ele><time>2026-04-26T13:22:26.411Z</time></trkpt><trkpt lat="32.31047" lon="-8.884415"><ele>158.0</ele><time>2026-04-26T13:22:27.411Z</time></trkpt><trkpt lat="32.3105717" lon="-8.884265"><ele>158.0</ele><time>2026-04-26T13:22:28.411Z</time></trkpt><trkpt lat="32.3106767" lon="-8.8841133"><ele>158.66666666666666</ele><time>2026-04-26T13:22:29.411Z</time></trkpt><trkpt lat="32.3107833" lon="-8.88396"><ele>159.33333333333334</ele><time>2026-04-26T13:22:30.411Z</time></trkpt><trkpt lat="32.3108833" lon="-8.8838067"><ele>160.0</ele><time>2026-04-26T13:22:31.411Z</time></trkpt><trkpt lat="32.310975" lon="-8.8836533"><ele>160.0</ele><time>2026-04-26T13:22:32.411Z</time></trkpt><trkpt lat="32.3110567" lon="-8.8835117"><ele>160.0</ele><time>2026-04-26T13:22:33.411Z</time></trkpt><trkpt lat="32.3111383" lon="-8.883365"><ele>160.0</ele><time>2026-04-26T13:22:34.411Z</time></trkpt><trkpt lat="32.31122" lon="-8.8832183"><ele>160.0</ele><time>2026-04-26T13:22:35.411Z</time></trkpt><trkpt lat="32.3113" lon="-8.8830683"><ele>159.66666666666669</ele><time>2026-04-26T13:22:36.411Z</time></trkpt><trkpt lat="32.3113867" lon="-8.8829217"><ele>159.33333333333334</ele><time>2026-04-26T13:22:37.411Z</time></trkpt><trkpt lat="32.31147" lon="-8.8827667"><ele>159.0</ele><time>2026-04-26T13:22:38.411Z</time></trkpt><trkpt lat="32.3115517" lon="-8.8826083"><ele>159.66666666666666</ele><time>2026-04-26T13:22:39.411Z</time></trkpt><trkpt lat="32.3116367" lon="-8.8824483"><ele>160.33333333333331</ele><time>2026-04-26T13:22:40.411Z</time></trkpt><trkpt lat="32.3117333" lon="-8.88228"><ele>161.0</ele><time>2026-04-26T13:22:41.411Z</time></trkpt><trkpt lat="32.31183" lon="-8.8820967"><ele>161.0</ele><time>2026-04-26T13:22:42.411Z</time></trkpt><trkpt lat="32.3119317" lon="-8.8819183"><ele>161.0</ele><time>2026-04-26T13:22:43.411Z</time></trkpt><trkpt lat="32.3120367" lon="-8.8817317"><ele>161.0</ele><time>2026-04-26T13:22:44.411Z</time></trkpt><trkpt lat="32.312145" lon="-8.8815383"><ele>161.66666666666666</ele><time>2026-04-26T13:22:45.411Z</time></trkpt><trkpt lat="32.312255" lon="-8.8813367"><ele>162.33333333333334</ele><time>2026-04-26T13:22:46.411Z</time></trkpt><trkpt lat="32.3123667" lon="-8.8811317"><ele>163.0</ele><time>2026-04-26T13:22:47.411Z</time></trkpt><trkpt lat="32.312485" lon="-8.88092"><ele>163.0</ele><time>2026-04-26T13:22:48.411Z</time></trkpt><trkpt lat="32.3126033" lon="-8.8807017"><ele>163.0</ele><time>2026-04-26T13:22:49.411Z</time></trkpt><trkpt lat="32.312725" lon="-8.8804833"><ele>163.0</ele><time>2026-04-26T13:22:50.411Z</time></trkpt><trkpt lat="32.31285" lon="-8.88026"><ele>163.0</ele><time>2026-04-26T13:22:51.411Z</time></trkpt><trkpt lat="32.31297" lon="-8.88003"><ele>163.0</ele><time>2026-04-26T13:22:52.411Z</time></trkpt><trkpt lat="32.313095" lon="-8.8797967"><ele>163.0</ele><time>2026-04-26T13:22:53.411Z</time></trkpt><trkpt lat="32.3132233" lon="-8.87956"><ele>163.0</ele><time>2026-04-26T13:22:54.411Z</time></trkpt><trkpt lat="32.31336" lon="-8.8793283"><ele>163.0</ele><time>2026-04-26T13:22:55.411Z</time></trkpt><trkpt lat="32.3134933" lon="-8.87909"><ele>163.0</ele><time>2026-04-26T13:22:56.411Z</time></trkpt><trkpt lat="32.3136317" lon="-8.8788517"><ele>163.0</ele><time>2026-04-26T13:22:57.411Z</time></trkpt><trkpt lat="32.3137717" lon="-8.8786183"><ele>163.0</ele><time>2026-04-26T13:22:58.411Z</time></trkpt><trkpt lat="32.3139083" lon="-8.8783833"><ele>163.0</ele><time>2026-04-26T13:22:59.411Z</time></trkpt><trkpt lat="32.314045" lon="-8.87816"><ele>163.0</ele><time>2026-04-26T13:23:00.411Z</time></trkpt><trkpt lat="32.3141783" lon="-8.8779417"><ele>163.0</ele><time>2026-04-26T13:23:01.411Z</time></trkpt><trkpt lat="32.3143117" lon="-8.877725"><ele>163.0</ele><time>2026-04-26T13:23:02.411Z</time></trkpt><trkpt lat="32.31445" lon="-8.8775083"><ele>163.0</ele><time>2026-04-26T13:23:03.411Z</time></trkpt><trkpt lat="32.31459" lon="-8.8772933"><ele>163.0</ele><time>2026-04-26T13:23:04.411Z</time></trkpt><trkpt lat="32.3147283" lon="-8.877075"><ele>163.5</ele><time>2026-04-26T13:23:05.411Z</time></trkpt><trkpt lat="32.3148667" lon="-8.8768567"><ele>164.0</ele><time>2026-04-26T13:23:06.411Z</time></trkpt><trkpt lat="32.315005" lon="-8.8766367"><ele>164.0</ele><time>2026-04-26T13:23:07.411Z</time></trkpt><trkpt lat="32.315145" lon="-8.8764133"><ele>164.0</ele><time>2026-04-26T13:23:08.411Z</time></trkpt><trkpt lat="32.315285" lon="-8.8761917"><ele>164.0</ele><time>2026-04-26T13:23:09.411Z</time></trkpt><trkpt lat="32.315425" lon="-8.8759717"><ele>164.0</ele><time>2026-04-26T13:23:10.411Z</time></trkpt><trkpt lat="32.3155667" lon="-8.8757517"><ele>164.0</ele><time>2026-04-26T13:23:11.411Z</time></trkpt><trkpt lat="32.3157083" lon="-8.8755333"><ele>164.0</ele><time>2026-04-26T13:23:12.411Z</time></trkpt><trkpt lat="32.3158517" lon="-8.8753117"><ele>164.5</ele><time>2026-04-26T13:23:13.411Z</time></trkpt><trkpt lat="32.3159917" lon="-8.8750867"><ele>165.0</ele><time>2026-04-26T13:23:14.411Z</time></trkpt><trkpt lat="32.3161333" lon="-8.8748683"><ele>165.0</ele><time>2026-04-26T13:23:15.411Z</time></trkpt><trkpt lat="32.31627" lon="-8.8746483"><ele>165.0</ele><time>2026-04-26T13:23:16.411Z</time></trkpt><trkpt lat="32.3164" lon="-8.8744417"><ele>165.0</ele><time>2026-04-26T13:23:17.411Z</time></trkpt><trkpt lat="32.3165267" lon="-8.8742367"><ele>165.0</ele><time>2026-04-26T13:23:18.411Z</time></trkpt><trkpt lat="32.3166517" lon="-8.874035"><ele>165.0</ele><time>2026-04-26T13:23:19.411Z</time></trkpt><trkpt lat="32.3167783" lon="-8.8738333"><ele>165.0</ele><time>2026-04-26T13:23:20.411Z</time></trkpt><trkpt lat="32.316905" lon="-8.8736417"><ele>165.0</ele><time>2026-04-26T13:23:21.411Z</time></trkpt><trkpt lat="32.3170283" lon="-8.8734433"><ele>165.0</ele><time>2026-04-26T13:23:22.411Z</time></trkpt><trkpt lat="32.3171567" lon="-8.8732417"><ele>165.0</ele><time>2026-04-26T13:23:23.411Z</time></trkpt><trkpt lat="32.317285" lon="-8.873035"><ele>166.66666666666666</ele><time>2026-04-26T13:23:24.411Z</time></trkpt><trkpt lat="32.3174167" lon="-8.872835"><ele>168.33333333333331</ele><time>2026-04-26T13:23:25.411Z</time></trkpt><trkpt lat="32.3175467" lon="-8.87263"><ele>170.0</ele><time>2026-04-26T13:23:26.411Z</time></trkpt><trkpt lat="32.3176767" lon="-8.8724217"><ele>170.0</ele><time>2026-04-26T13:23:27.411Z</time></trkpt><trkpt lat="32.3178067" lon="-8.8722133"><ele>170.0</ele><time>2026-04-26T13:23:28.411Z</time></trkpt><trkpt lat="32.317935" lon="-8.8720167"><ele>170.0</ele><time>2026-04-26T13:23:29.411Z</time></trkpt><trkpt lat="32.3180567" lon="-8.8718267"><ele>171.66666666666666</ele><time>2026-04-26T13:23:30.411Z</time></trkpt><trkpt lat="32.31818" lon="-8.8716333"><ele>173.33333333333334</ele><time>2026-04-26T13:23:31.411Z</time></trkpt><trkpt lat="32.318305" lon="-8.8714333"><ele>175.0</ele><time>2026-04-26T13:23:32.411Z</time></trkpt><trkpt lat="32.318425" lon="-8.8712333"><ele>175.0</ele><time>2026-04-26T13:23:33.411Z</time></trkpt><trkpt lat="32.3185433" lon="-8.8710483"><ele>175.0</ele><time>2026-04-26T13:23:34.411Z</time></trkpt><trkpt lat="32.3186617" lon="-8.8708633"><ele>175.0</ele><time>2026-04-26T13:23:35.411Z</time></trkpt><trkpt lat="32.3187817" lon="-8.8706817"><ele>176.0</ele><time>2026-04-26T13:23:36.411Z</time></trkpt><trkpt lat="32.3189" lon="-8.8705"><ele>177.0</ele><time>2026-04-26T13:23:37.411Z</time></trkpt><trkpt lat="32.31902" lon="-8.870315"><ele>178.0</ele><time>2026-04-26T13:23:38.411Z</time></trkpt><trkpt lat="32.3191417" lon="-8.8701267"><ele>178.66666666666669</ele><time>2026-04-26T13:23:39.411Z</time></trkpt><trkpt lat="32.31927" lon="-8.8699367"><ele>179.33333333333334</ele><time>2026-04-26T13:23:40.411Z</time></trkpt><trkpt lat="32.3193983" lon="-8.869745"><ele>180.0</ele><time>2026-04-26T13:23:41.412Z</time></trkpt><trkpt lat="32.3195333" lon="-8.8695433"><ele>180.0</ele><time>2026-04-26T13:23:42.411Z</time></trkpt><trkpt lat="32.3196717" lon="-8.8693467"><ele>180.0</ele><time>2026-04-26T13:23:43.411Z</time></trkpt><trkpt lat="32.3198167" lon="-8.8691433"><ele>180.0</ele><time>2026-04-26T13:23:44.411Z</time></trkpt><trkpt lat="32.319965" lon="-8.8689433"><ele>180.33333333333334</ele><time>2026-04-26T13:23:45.411Z</time></trkpt><trkpt lat="32.3201133" lon="-8.868745"><ele>180.66666666666669</ele><time>2026-04-26T13:23:46.411Z</time></trkpt><trkpt lat="32.3202517" lon="-8.868555"><ele>181.0</ele><time>2026-04-26T13:23:47.411Z</time></trkpt><trkpt lat="32.32039" lon="-8.8683633"><ele>180.0</ele><time>2026-04-26T13:23:48.411Z</time></trkpt><trkpt lat="32.32053" lon="-8.8681717"><ele>179.0</ele><time>2026-04-26T13:23:49.411Z</time></trkpt><trkpt lat="32.320675" lon="-8.8679783"><ele>178.0</ele><time>2026-04-26T13:23:50.411Z</time></trkpt><trkpt lat="32.3208167" lon="-8.8677783"><ele>176.33333333333334</ele><time>2026-04-26T13:23:51.411Z</time></trkpt><trkpt lat="32.3209533" lon="-8.8675717"><ele>174.66666666666666</ele><time>2026-04-26T13:23:52.411Z</time></trkpt><trkpt lat="32.321085" lon="-8.8673667"><ele>173.0</ele><time>2026-04-26T13:23:53.411Z</time></trkpt><trkpt lat="32.3212033" lon="-8.8671633"><ele>173.0</ele><time>2026-04-26T13:23:54.411Z</time></trkpt><trkpt lat="32.3213133" lon="-8.8669733"><ele>173.0</ele><time>2026-04-26T13:23:55.411Z</time></trkpt><trkpt lat="32.32142" lon="-8.8667833"><ele>173.0</ele><time>2026-04-26T13:23:56.411Z</time></trkpt><trkpt lat="32.321525" lon="-8.8666"><ele>174.0</ele><time>2026-04-26T13:23:57.411Z</time></trkpt><trkpt lat="32.32163" lon="-8.8664167"><ele>175.0</ele><time>2026-04-26T13:23:58.411Z</time></trkpt><trkpt lat="32.321735" lon="-8.866235"><ele>176.0</ele><time>2026-04-26T13:23:59.412Z</time></trkpt><trkpt lat="32.3218483" lon="-8.8660517"><ele>173.33333333333331</ele><time>2026-04-26T13:24:00.411Z</time></trkpt><trkpt lat="32.32196" lon="-8.86587"><ele>170.66666666666666</ele><time>2026-04-26T13:24:01.411Z</time></trkpt><trkpt lat="32.3220817" lon="-8.8656883"><ele>168.0</ele><time>2026-04-26T13:24:02.411Z</time></trkpt><trkpt lat="32.3222117" lon="-8.8655067"><ele>169.66666666666666</ele><time>2026-04-26T13:24:03.411Z</time></trkpt><trkpt lat="32.322345" lon="-8.865325"><ele>171.33333333333331</ele><time>2026-04-26T13:24:04.411Z</time></trkpt><trkpt lat="32.3224883" lon="-8.865145"><ele>173.0</ele><time>2026-04-26T13:24:05.411Z</time></trkpt><trkpt lat="32.3226383" lon="-8.86497"><ele>173.0</ele><time>2026-04-26T13:24:06.411Z</time></trkpt><trkpt lat="32.3227983" lon="-8.8647967"><ele>173.0</ele><time>2026-04-26T13:24:07.411Z</time></trkpt><trkpt lat="32.3229667" lon="-8.8646283"><ele>173.0</ele><time>2026-04-26T13:24:08.411Z</time></trkpt><trkpt lat="32.3231467" lon="-8.8644717"><ele>172.0</ele><time>2026-04-26T13:24:09.411Z</time></trkpt><trkpt lat="32.3233317" lon="-8.8643183"><ele>171.0</ele><time>2026-04-26T13:24:10.411Z</time></trkpt><trkpt lat="32.3235267" lon="-8.8641717"><ele>170.0</ele><time>2026-04-26T13:24:11.411Z</time></trkpt><trkpt lat="32.3237283" lon="-8.8640317"><ele>169.0</ele><time>2026-04-26T13:24:12.411Z</time></trkpt><trkpt lat="32.3239333" lon="-8.8638933"><ele>167.0</ele><time>2026-04-26T13:24:13.411Z</time></trkpt><trkpt lat="32.3241433" lon="-8.8637633"><ele>165.0</ele><time>2026-04-26T13:24:14.411Z</time></trkpt><trkpt lat="32.3243483" lon="-8.8636367"><ele>165.0</ele><time>2026-04-26T13:24:15.411Z</time></trkpt><trkpt lat="32.3245517" lon="-8.8635083"><ele>165.0</ele><time>2026-04-26T13:24:16.411Z</time></trkpt><trkpt lat="32.3247533" lon="-8.8633767"><ele>162.0</ele><time>2026-04-26T13:24:17.411Z</time></trkpt><trkpt lat="32.32496" lon="-8.8632483"><ele>159.0</ele><time>2026-04-26T13:24:18.411Z</time></trkpt><trkpt lat="32.3251633" lon="-8.86312"><ele>159.0</ele><time>2026-04-26T13:24:19.411Z</time></trkpt><trkpt lat="32.325365" lon="-8.8629933"><ele>159.0</ele><time>2026-04-26T13:24:20.411Z</time></trkpt><trkpt lat="32.3255567" lon="-8.8628767"><ele>159.0</ele><time>2026-04-26T13:24:21.411Z</time></trkpt><trkpt lat="32.3257367" lon="-8.86277"><ele>159.0</ele><time>2026-04-26T13:24:22.411Z</time></trkpt><trkpt lat="32.3259117" lon="-8.8626667"><ele>159.0</ele><time>2026-04-26T13:24:23.411Z</time></trkpt><trkpt lat="32.3260917" lon="-8.8625617"><ele>159.0</ele><time>2026-04-26T13:24:24.411Z</time></trkpt><trkpt lat="32.32627" lon="-8.86245"><ele>159.0</ele><time>2026-04-26T13:24:25.411Z</time></trkpt><trkpt lat="32.326455" lon="-8.862335"><ele>159.0</ele><time>2026-04-26T13:24:26.411Z</time></trkpt><trkpt lat="32.326645" lon="-8.8622167"><ele>159.0</ele><time>2026-04-26T13:24:27.411Z</time></trkpt><trkpt lat="32.3268367" lon="-8.862095"><ele>159.0</ele><time>2026-04-26T13:24:28.411Z</time></trkpt><trkpt lat="32.32703" lon="-8.8619733"><ele>159.0</ele><time>2026-04-26T13:24:29.411Z</time></trkpt><trkpt lat="32.3272283" lon="-8.8618517"><ele>159.0</ele><time>2026-04-26T13:24:30.411Z</time></trkpt><trkpt lat="32.3274317" lon="-8.8617267"><ele>160.5</ele><time>2026-04-26T13:24:31.411Z</time></trkpt><trkpt lat="32.3276367" lon="-8.8616"><ele>162.0</ele><time>2026-04-26T13:24:32.411Z</time></trkpt><trkpt lat="32.3278483" lon="-8.8614717"><ele>162.5</ele><time>2026-04-26T13:24:33.411Z</time></trkpt><trkpt lat="32.32806" lon="-8.8613417"><ele>163.0</ele><time>2026-04-26T13:24:34.411Z</time></trkpt><trkpt lat="32.3282783" lon="-8.8612083"><ele>163.0</ele><time>2026-04-26T13:24:35.411Z</time></trkpt><trkpt lat="32.3284933" lon="-8.8610733"><ele>163.0</ele><time>2026-04-26T13:24:36.411Z</time></trkpt><trkpt lat="32.3287133" lon="-8.8609267"><ele>165.0</ele><time>2026-04-26T13:24:37.411Z</time></trkpt><trkpt lat="32.328925" lon="-8.8607683"><ele>167.0</ele><time>2026-04-26T13:24:38.411Z</time></trkpt><trkpt lat="32.3291383" lon="-8.8606117"><ele>167.0</ele><time>2026-04-26T13:24:39.411Z</time></trkpt><trkpt lat="32.32935" lon="-8.86044"><ele>167.0</ele><time>2026-04-26T13:24:40.411Z</time></trkpt><trkpt lat="32.3295567" lon="-8.860265"><ele>167.0</ele><time>2026-04-26T13:24:41.411Z</time></trkpt><trkpt lat="32.3297617" lon="-8.8600783"><ele>167.0</ele><time>2026-04-26T13:24:42.411Z</time></trkpt><trkpt lat="32.3299617" lon="-8.8598833"><ele>167.0</ele><time>2026-04-26T13:24:43.411Z</time></trkpt><trkpt lat="32.3301517" lon="-8.8596967"><ele>167.0</ele><time>2026-04-26T13:24:44.411Z</time></trkpt><trkpt lat="32.33033" lon="-8.8595117"><ele>167.0</ele><time>2026-04-26T13:24:45.411Z</time></trkpt><trkpt lat="32.3305083" lon="-8.8593333"><ele>167.0</ele><time>2026-04-26T13:24:46.411Z</time></trkpt><trkpt lat="32.3306817" lon="-8.8591467"><ele>165.5</ele><time>2026-04-26T13:24:47.411Z</time></trkpt><trkpt lat="32.3308567" lon="-8.8589617"><ele>164.0</ele><time>2026-04-26T13:24:48.411Z</time></trkpt><trkpt lat="32.3310267" lon="-8.8587883"><ele>164.0</ele><time>2026-04-26T13:24:49.411Z</time></trkpt><trkpt lat="32.3311883" lon="-8.85862"><ele>164.0</ele><time>2026-04-26T13:24:50.411Z</time></trkpt><trkpt lat="32.3313467" lon="-8.8584517"><ele>164.0</ele><time>2026-04-26T13:24:51.411Z</time></trkpt><trkpt lat="32.3315033" lon="-8.8582883"><ele>164.66666666666666</ele><time>2026-04-26T13:24:52.411Z</time></trkpt><trkpt lat="32.33166" lon="-8.8581217"><ele>165.33333333333334</ele><time>2026-04-26T13:24:53.411Z</time></trkpt><trkpt lat="32.33182" lon="-8.8579517"><ele>166.0</ele><time>2026-04-26T13:24:54.411Z</time></trkpt><trkpt lat="32.3319817" lon="-8.85778"><ele>165.33333333333334</ele><time>2026-04-26T13:24:55.411Z</time></trkpt><trkpt lat="32.332145" lon="-8.857605"><ele>164.66666666666666</ele><time>2026-04-26T13:24:56.411Z</time></trkpt><trkpt lat="32.3323117" lon="-8.8574333"><ele>164.0</ele><time>2026-04-26T13:24:57.411Z</time></trkpt><trkpt lat="32.332475" lon="-8.85726"><ele>164.0</ele><time>2026-04-26T13:24:58.411Z</time></trkpt><trkpt lat="32.3326433" lon="-8.857085"><ele>164.0</ele><time>2026-04-26T13:24:59.411Z</time></trkpt><trkpt lat="32.33281" lon="-8.8569067"><ele>164.0</ele><time>2026-04-26T13:25:00.411Z</time></trkpt><trkpt lat="32.3329783" lon="-8.8567267"><ele>163.66666666666666</ele><time>2026-04-26T13:25:01.411Z</time></trkpt><trkpt lat="32.3331483" lon="-8.8565533"><ele>163.33333333333334</ele><time>2026-04-26T13:25:02.411Z</time></trkpt><trkpt lat="32.33331" lon="-8.85638"><ele>163.0</ele><time>2026-04-26T13:25:03.411Z</time></trkpt><trkpt lat="32.33347" lon="-8.8562183"><ele>163.0</ele><time>2026-04-26T13:25:04.411Z</time></trkpt><trkpt lat="32.3336267" lon="-8.856055"><ele>163.0</ele><time>2026-04-26T13:25:05.412Z</time></trkpt><trkpt lat="32.3337817" lon="-8.855895"><ele>163.0</ele><time>2026-04-26T13:25:06.412Z</time></trkpt><trkpt lat="32.333935" lon="-8.855735"><ele>163.33333333333334</ele><time>2026-04-26T13:25:07.411Z</time></trkpt><trkpt lat="32.3340883" lon="-8.8555717"><ele>163.66666666666666</ele><time>2026-04-26T13:25:08.411Z</time></trkpt><trkpt lat="32.3342483" lon="-8.8554083"><ele>164.0</ele><time>2026-04-26T13:25:09.411Z</time></trkpt><trkpt lat="32.3344083" lon="-8.85524"><ele>164.33333333333331</ele><time>2026-04-26T13:25:10.411Z</time></trkpt><trkpt lat="32.3345667" lon="-8.8550733"><ele>164.66666666666666</ele><time>2026-04-26T13:25:11.41Z</time></trkpt><trkpt lat="32.3347217" lon="-8.8549117"><ele>165.0</ele><time>2026-04-26T13:25:12.41Z</time></trkpt><trkpt lat="32.3348733" lon="-8.85475"><ele>165.0</ele><time>2026-04-26T13:25:13.41Z</time></trkpt><trkpt lat="32.3350233" lon="-8.8545833"><ele>165.0</ele><time>2026-04-26T13:25:14.41Z</time></trkpt><trkpt lat="32.33517" lon="-8.85441"><ele>165.0</ele><time>2026-04-26T13:25:15.41Z</time></trkpt><trkpt lat="32.335315" lon="-8.85423"><ele>165.0</ele><time>2026-04-26T13:25:16.41Z</time></trkpt><trkpt lat="32.3354533" lon="-8.8540567"><ele>165.0</ele><time>2026-04-26T13:25:17.41Z</time></trkpt><trkpt lat="32.3355867" lon="-8.8538867"><ele>165.0</ele><time>2026-04-26T13:25:18.41Z</time></trkpt><trkpt lat="32.3357133" lon="-8.853715"><ele>165.0</ele><time>2026-04-26T13:25:19.41Z</time></trkpt><trkpt lat="32.335845" lon="-8.853535"><ele>165.0</ele><time>2026-04-26T13:25:20.41Z</time></trkpt><trkpt lat="32.33598" lon="-8.8533567"><ele>165.0</ele><time>2026-04-26T13:25:21.41Z</time></trkpt><trkpt lat="32.3361083" lon="-8.8531633"><ele>164.33333333333334</ele><time>2026-04-26T13:25:22.411Z</time></trkpt><trkpt lat="32.33624" lon="-8.852985"><ele>163.66666666666669</ele><time>2026-04-26T13:25:23.41Z</time></trkpt><trkpt lat="32.3363667" lon="-8.8528167"><ele>163.0</ele><time>2026-04-26T13:25:24.41Z</time></trkpt><trkpt lat="32.33649" lon="-8.8526467"><ele>164.33333333333334</ele><time>2026-04-26T13:25:25.41Z</time></trkpt><trkpt lat="32.3366217" lon="-8.8524767"><ele>165.66666666666666</ele><time>2026-04-26T13:25:26.41Z</time></trkpt><trkpt lat="32.336755" lon="-8.8523017"><ele>167.0</ele><time>2026-04-26T13:25:27.41Z</time></trkpt><trkpt lat="32.3368917" lon="-8.8521317"><ele>167.0</ele><time>2026-04-26T13:25:28.41Z</time></trkpt><trkpt lat="32.337035" lon="-8.8519583"><ele>167.0</ele><time>2026-04-26T13:25:29.41Z</time></trkpt><trkpt lat="32.3371833" lon="-8.85179"><ele>167.0</ele><time>2026-04-26T13:25:30.41Z</time></trkpt><trkpt lat="32.337325" lon="-8.8516283"><ele>167.66666666666666</ele><time>2026-04-26T13:25:31.41Z</time></trkpt><trkpt lat="32.3374633" lon="-8.8514817"><ele>168.33333333333334</ele><time>2026-04-26T13:25:32.41Z</time></trkpt><trkpt lat="32.3376" lon="-8.8513433"><ele>169.0</ele><time>2026-04-26T13:25:33.41Z</time></trkpt><trkpt lat="32.337735" lon="-8.8512117"><ele>169.0</ele><time>2026-04-26T13:25:34.41Z</time></trkpt><trkpt lat="32.3378633" lon="-8.85109"><ele>169.0</ele><time>2026-04-26T13:25:35.41Z</time></trkpt><trkpt lat="32.337985" lon="-8.8509633"><ele>169.0</ele><time>2026-04-26T13:25:36.41Z</time></trkpt><trkpt lat="32.338105" lon="-8.85083"><ele>168.66666666666669</ele><time>2026-04-26T13:25:37.41Z</time></trkpt><trkpt lat="32.33823" lon="-8.8506917"><ele>168.33333333333334</ele><time>2026-04-26T13:25:38.41Z</time></trkpt><trkpt lat="32.338365" lon="-8.8505567"><ele>168.0</ele><time>2026-04-26T13:25:39.41Z</time></trkpt><trkpt lat="32.3385017" lon="-8.8504233"><ele>168.0</ele><time>2026-04-26T13:25:40.41Z</time></trkpt><trkpt lat="32.3386367" lon="-8.850295"><ele>168.0</ele><time>2026-04-26T13:25:41.41Z</time></trkpt><trkpt lat="32.3387667" lon="-8.8501783"><ele>168.0</ele><time>2026-04-26T13:25:42.41Z</time></trkpt><trkpt lat="32.338895" lon="-8.8500683"><ele>167.33333333333334</ele><time>2026-04-26T13:25:43.411Z</time></trkpt><trkpt lat="32.339025" lon="-8.8499617"><ele>166.66666666666669</ele><time>2026-04-26T13:25:44.411Z</time></trkpt><trkpt lat="32.3391533" lon="-8.8498583"><ele>166.0</ele><time>2026-04-26T13:25:45.41Z</time></trkpt><trkpt lat="32.33928" lon="-8.8497567"><ele>166.0</ele><time>2026-04-26T13:25:46.41Z</time></trkpt><trkpt lat="32.3394083" lon="-8.8496533"><ele>166.0</ele><time>2026-04-26T13:25:47.41Z</time></trkpt><trkpt lat="32.3395383" lon="-8.8495533"><ele>166.0</ele><time>2026-04-26T13:25:48.41Z</time></trkpt><trkpt lat="32.33967" lon="-8.8494517"><ele>165.33333333333334</ele><time>2026-04-26T13:25:49.41Z</time></trkpt><trkpt lat="32.339805" lon="-8.8493433"><ele>164.66666666666666</ele><time>2026-04-26T13:25:50.41Z</time></trkpt><trkpt lat="32.33994" lon="-8.8492333"><ele>164.0</ele><time>2026-04-26T13:25:51.41Z</time></trkpt><trkpt lat="32.3400783" lon="-8.8491183"><ele>164.0</ele><time>2026-04-26T13:25:52.41Z</time></trkpt><trkpt lat="32.3402117" lon="-8.849005"><ele>164.0</ele><time>2026-04-26T13:25:53.41Z</time></trkpt><trkpt lat="32.3403533" lon="-8.84889"><ele>164.0</ele><time>2026-04-26T13:25:54.41Z</time></trkpt><trkpt lat="32.3404967" lon="-8.8487783"><ele>164.0</ele><time>2026-04-26T13:25:55.41Z</time></trkpt><trkpt lat="32.3406383" lon="-8.8486633"><ele>164.0</ele><time>2026-04-26T13:25:56.41Z</time></trkpt><trkpt lat="32.3407817" lon="-8.8485517"><ele>164.0</ele><time>2026-04-26T13:25:57.41Z</time></trkpt><trkpt lat="32.3409217" lon="-8.8484383"><ele>164.0</ele><time>2026-04-26T13:25:58.41Z</time></trkpt><trkpt lat="32.3410533" lon="-8.84833"><ele>164.0</ele><time>2026-04-26T13:25:59.41Z</time></trkpt><trkpt lat="32.34119" lon="-8.8482267"><ele>164.0</ele><time>2026-04-26T13:26:00.41Z</time></trkpt><trkpt lat="32.3413233" lon="-8.848125"><ele>164.75</ele><time>2026-04-26T13:26:01.41Z</time></trkpt><trkpt lat="32.3414483" lon="-8.84803"><ele>165.5</ele><time>2026-04-26T13:26:02.41Z</time></trkpt><trkpt lat="32.3415633" lon="-8.84794"><ele>166.25</ele><time>2026-04-26T13:26:03.41Z</time></trkpt><trkpt lat="32.34167" lon="-8.8478533"><ele>167.0</ele><time>2026-04-26T13:26:04.41Z</time></trkpt><trkpt lat="32.341785" lon="-8.8477617"><ele>167.0</ele><time>2026-04-26T13:26:05.41Z</time></trkpt><trkpt lat="32.3419167" lon="-8.8476633"><ele>167.0</ele><time>2026-04-26T13:26:06.41Z</time></trkpt><trkpt lat="32.3420583" lon="-8.8475517"><ele>167.0</ele><time>2026-04-26T13:26:07.41Z</time></trkpt><trkpt lat="32.3422033" lon="-8.8474383"><ele>167.33333333333331</ele><time>2026-04-26T13:26:08.41Z</time></trkpt><trkpt lat="32.342345" lon="-8.8473267"><ele>167.66666666666666</ele><time>2026-04-26T13:26:09.41Z</time></trkpt><trkpt lat="32.3424783" lon="-8.8472183"><ele>168.0</ele><time>2026-04-26T13:26:10.41Z</time></trkpt><trkpt lat="32.3426067" lon="-8.8471117"><ele>168.0</ele><time>2026-04-26T13:26:11.41Z</time></trkpt><trkpt lat="32.3427333" lon="-8.847015"><ele>168.0</ele><time>2026-04-26T13:26:12.41Z</time></trkpt><trkpt lat="32.3428583" lon="-8.8469167"><ele>168.0</ele><time>2026-04-26T13:26:13.41Z</time></trkpt><trkpt lat="32.34298" lon="-8.8468217"><ele>168.0</ele><time>2026-04-26T13:26:14.41Z</time></trkpt><trkpt lat="32.3431033" lon="-8.84673"><ele>168.0</ele><time>2026-04-26T13:26:15.41Z</time></trkpt><trkpt lat="32.343215" lon="-8.8466433"><ele>168.0</ele><time>2026-04-26T13:26:16.41Z</time></trkpt><trkpt lat="32.3433217" lon="-8.8465583"><ele>168.0</ele><time>2026-04-26T13:26:17.41Z</time></trkpt><trkpt lat="32.3434233" lon="-8.8464817"><ele>168.0</ele><time>2026-04-26T13:26:18.41Z</time></trkpt><trkpt lat="32.343525" lon="-8.846405"><ele>168.0</ele><time>2026-04-26T13:26:19.41Z</time></trkpt><trkpt lat="32.3436267" lon="-8.8463317"><ele>168.0</ele><time>2026-04-26T13:26:20.41Z</time></trkpt><trkpt lat="32.3437233" lon="-8.84626"><ele>168.0</ele><time>2026-04-26T13:26:21.41Z</time></trkpt><trkpt lat="32.3438083" lon="-8.8461833"><ele>168.0</ele><time>2026-04-26T13:26:22.41Z</time></trkpt><trkpt lat="32.3439" lon="-8.8461117"><ele>168.60000000000002</ele><time>2026-04-26T13:26:23.41Z</time></trkpt><trkpt lat="32.344" lon="-8.8460467"><ele>169.20000000000002</ele><time>2026-04-26T13:26:24.41Z</time></trkpt><trkpt lat="32.3440967" lon="-8.8459783"><ele>169.8</ele><time>2026-04-26T13:26:25.41Z</time></trkpt><trkpt lat="32.3441933" lon="-8.84591"><ele>170.4</ele><time>2026-04-26T13:26:26.41Z</time></trkpt><trkpt lat="32.3442767" lon="-8.8458317"><ele>171.0</ele><time>2026-04-26T13:26:27.41Z</time></trkpt><trkpt lat="32.3443617" lon="-8.8457583"><ele>171.0</ele><time>2026-04-26T13:26:28.41Z</time></trkpt><trkpt lat="32.34445" lon="-8.84569"><ele>171.0</ele><time>2026-04-26T13:26:29.41Z</time></trkpt><trkpt lat="32.3445417" lon="-8.8456233"><ele>171.0</ele><time>2026-04-26T13:26:30.41Z</time></trkpt><trkpt lat="32.3446367" lon="-8.8455617"><ele>171.0</ele><time>2026-04-26T13:26:31.41Z</time></trkpt><trkpt lat="32.3447317" lon="-8.8455033"><ele>171.0</ele><time>2026-04-26T13:26:32.41Z</time></trkpt><trkpt lat="32.3448233" lon="-8.8454383"><ele>170.60000000000002</ele><time>2026-04-26T13:26:33.41Z</time></trkpt><trkpt lat="32.3449233" lon="-8.8453767"><ele>170.2</ele><time>2026-04-26T13:26:34.41Z</time></trkpt><trkpt lat="32.3450217" lon="-8.8453133"><ele>169.8</ele><time>2026-04-26T13:26:35.41Z</time></trkpt><trkpt lat="32.3451267" lon="-8.84526"><ele>169.39999999999998</ele><time>2026-04-26T13:26:36.41Z</time></trkpt><trkpt lat="32.3452317" lon="-8.84522"><ele>169.0</ele><time>2026-04-26T13:26:37.41Z</time></trkpt><trkpt lat="32.345335" lon="-8.8451717"><ele>168.75</ele><time>2026-04-26T13:26:38.41Z</time></trkpt><trkpt lat="32.34544" lon="-8.8451217"><ele>168.5</ele><time>2026-04-26T13:26:39.41Z</time></trkpt><trkpt lat="32.3455467" lon="-8.8450717"><ele>168.25</ele><time>2026-04-26T13:26:40.41Z</time></trkpt><trkpt lat="32.3456533" lon="-8.84501"><ele>168.0</ele><time>2026-04-26T13:26:41.41Z</time></trkpt><trkpt lat="32.3457583" lon="-8.8449433"><ele>168.0</ele><time>2026-04-26T13:26:42.41Z</time></trkpt><trkpt lat="32.3458633" lon="-8.844875"><ele>168.0</ele><time>2026-04-26T13:26:43.41Z</time></trkpt><trkpt lat="32.3459683" lon="-8.84481"><ele>168.0</ele><time>2026-04-26T13:26:44.41Z</time></trkpt><trkpt lat="32.3460783" lon="-8.8447517"><ele>168.0</ele><time>2026-04-26T13:26:45.41Z</time></trkpt><trkpt lat="32.346195" lon="-8.844695"><ele>168.0</ele><time>2026-04-26T13:26:46.41Z</time></trkpt><trkpt lat="32.346305" lon="-8.8446367"><ele>168.0</ele><time>2026-04-26T13:26:47.41Z</time></trkpt><trkpt lat="32.3464067" lon="-8.844565"><ele>168.0</ele><time>2026-04-26T13:26:48.41Z</time></trkpt><trkpt lat="32.3465067" lon="-8.8445017"><ele>168.0</ele><time>2026-04-26T13:26:49.411Z</time></trkpt><trkpt lat="32.3465983" lon="-8.8444367"><ele>168.0</ele><time>2026-04-26T13:26:50.41Z</time></trkpt><trkpt lat="32.3466867" lon="-8.8443667"><ele>168.0</ele><time>2026-04-26T13:26:51.41Z</time></trkpt><trkpt lat="32.3467733" lon="-8.8443033"><ele>168.0</ele><time>2026-04-26T13:26:52.41Z</time></trkpt><trkpt lat="32.346865" lon="-8.8442333"><ele>168.0</ele><time>2026-04-26T13:26:53.41Z</time></trkpt><trkpt lat="32.3469667" lon="-8.8441683"><ele>168.0</ele><time>2026-04-26T13:26:54.41Z</time></trkpt><trkpt lat="32.347065" lon="-8.8441017"><ele>168.2</ele><time>2026-04-26T13:26:55.41Z</time></trkpt><trkpt lat="32.3471633" lon="-8.8440617"><ele>168.4</ele><time>2026-04-26T13:26:56.41Z</time></trkpt><trkpt lat="32.3472483" lon="-8.8440033"><ele>168.6</ele><time>2026-04-26T13:26:57.41Z</time></trkpt><trkpt lat="32.3473383" lon="-8.8439567"><ele>168.79999999999998</ele><time>2026-04-26T13:26:58.41Z</time></trkpt><trkpt lat="32.34742" lon="-8.8439067"><ele>169.0</ele><time>2026-04-26T13:26:59.41Z</time></trkpt><trkpt lat="32.347505" lon="-8.8438533"><ele>169.0</ele><time>2026-04-26T13:27:00.41Z</time></trkpt><trkpt lat="32.34759" lon="-8.8438017"><ele>169.0</ele><time>2026-04-26T13:27:01.411Z</time></trkpt><trkpt lat="32.34768" lon="-8.8437533"><ele>169.0</ele><time>2026-04-26T13:27:02.411Z</time></trkpt><trkpt lat="32.3477667" lon="-8.8437033"><ele>169.0</ele><time>2026-04-26T13:27:03.41Z</time></trkpt><trkpt lat="32.34785" lon="-8.843655"><ele>169.0</ele><time>2026-04-26T13:27:04.41Z</time></trkpt><trkpt lat="32.3479217" lon="-8.84361"><ele>169.0</ele><time>2026-04-26T13:27:05.41Z</time></trkpt><trkpt lat="32.3479833" lon="-8.8435767"><ele>169.0</ele><time>2026-04-26T13:27:06.41Z</time></trkpt><trkpt lat="32.3480667" lon="-8.843535"><ele>169.0</ele><time>2026-04-26T13:27:08.41Z</time></trkpt><trkpt lat="32.348135" lon="-8.8435"><ele>169.0</ele><time>2026-04-26T13:27:10.41Z</time></trkpt><trkpt lat="32.3482183" lon="-8.8434567"><ele>169.0</ele><time>2026-04-26T13:27:13.41Z</time></trkpt><trkpt lat="32.3482867" lon="-8.8434233"><ele>169.0</ele><time>2026-04-26T13:27:16.41Z</time></trkpt><trkpt lat="32.3483617" lon="-8.8433933"><ele>168.83333333333334</ele><time>2026-04-26T13:27:20.41Z</time></trkpt><trkpt lat="32.34842" lon="-8.8433583"><ele>168.66666666666669</ele><time>2026-04-26T13:27:31.41Z</time></trkpt><trkpt lat="32.34849" lon="-8.84333"><ele>168.5</ele><time>2026-04-26T13:27:33.41Z</time></trkpt><trkpt lat="32.3485833" lon="-8.8432883"><ele>168.33333333333334</ele><time>2026-04-26T13:27:35.41Z</time></trkpt><trkpt lat="32.3486717" lon="-8.8432533"><ele>168.16666666666666</ele><time>2026-04-26T13:27:37.41Z</time></trkpt><trkpt lat="32.3487617" lon="-8.8432183"><ele>168.0</ele><time>2026-04-26T13:27:39.41Z</time></trkpt><trkpt lat="32.3488667" lon="-8.8431833"><ele>167.83333333333334</ele><time>2026-04-26T13:27:41.41Z</time></trkpt><trkpt lat="32.3489833" lon="-8.8431333"><ele>167.66666666666666</ele><time>2026-04-26T13:27:43.41Z</time></trkpt><trkpt lat="32.3490483" lon="-8.8431117"><ele>167.5</ele><time>2026-04-26T13:27:44.41Z</time></trkpt><trkpt lat="32.349115" lon="-8.8430867"><ele>167.33333333333331</ele><time>2026-04-26T13:27:45.41Z</time></trkpt><trkpt lat="32.3491767" lon="-8.84306"><ele>167.16666666666666</ele><time>2026-04-26T13:27:46.41Z</time></trkpt><trkpt lat="32.3492467" lon="-8.84303"><ele>167.0</ele><time>2026-04-26T13:27:47.41Z</time></trkpt><trkpt lat="32.3493217" lon="-8.8430067"><ele>167.0</ele><time>2026-04-26T13:27:48.41Z</time></trkpt><trkpt lat="32.349405" lon="-8.8429767"><ele>167.0</ele><time>2026-04-26T13:27:49.41Z</time></trkpt><trkpt lat="32.34949" lon="-8.842955"><ele>167.0</ele><time>2026-04-26T13:27:50.41Z</time></trkpt><trkpt lat="32.34957" lon="-8.8429383"><ele>167.0</ele><time>2026-04-26T13:27:51.41Z</time></trkpt><trkpt lat="32.3496483" lon="-8.8429167"><ele>167.0</ele><time>2026-04-26T13:27:52.41Z</time></trkpt><trkpt lat="32.3497333" lon="-8.84289"><ele>167.0</ele><time>2026-04-26T13:27:53.41Z</time></trkpt><trkpt lat="32.3498267" lon="-8.842855"><ele>167.0</ele><time>2026-04-26T13:27:54.41Z</time></trkpt><trkpt lat="32.3499267" lon="-8.8428283"><ele>167.0</ele><time>2026-04-26T13:27:55.41Z</time></trkpt><trkpt lat="32.3500383" lon="-8.8428"><ele>167.0</ele><time>2026-04-26T13:27:56.41Z</time></trkpt><trkpt lat="32.3501583" lon="-8.8427717"><ele>167.0</ele><time>2026-04-26T13:27:57.41Z</time></trkpt><trkpt lat="32.3502867" lon="-8.8427433"><ele>167.0</ele><time>2026-04-26T13:27:58.41Z</time></trkpt><trkpt lat="32.35042" lon="-8.8427117"><ele>167.0</ele><time>2026-04-26T13:27:59.41Z</time></trkpt><trkpt lat="32.3505617" lon="-8.8426883"><ele>167.0</ele><time>2026-04-26T13:28:00.41Z</time></trkpt><trkpt lat="32.35068" lon="-8.8426583"><ele>167.0</ele><time>2026-04-26T13:28:01.41Z</time></trkpt><trkpt lat="32.3507967" lon="-8.842625"><ele>167.25</ele><time>2026-04-26T13:28:02.411Z</time></trkpt><trkpt lat="32.3509067" lon="-8.842585"><ele>167.5</ele><time>2026-04-26T13:28:03.41Z</time></trkpt><trkpt lat="32.3510233" lon="-8.8425533"><ele>167.75</ele><time>2026-04-26T13:28:04.41Z</time></trkpt><trkpt lat="32.3511417" lon="-8.8425317"><ele>168.0</ele><time>2026-04-26T13:28:05.41Z</time></trkpt><trkpt lat="32.3512617" lon="-8.8424983"><ele>168.75</ele><time>2026-04-26T13:28:06.41Z</time></trkpt><trkpt lat="32.35139" lon="-8.8424733"><ele>169.5</ele><time>2026-04-26T13:28:07.41Z</time></trkpt><trkpt lat="32.351525" lon="-8.8424517"><ele>170.25</ele><time>2026-04-26T13:28:08.41Z</time></trkpt><trkpt lat="32.3516583" lon="-8.8424167"><ele>171.0</ele><time>2026-04-26T13:28:09.41Z</time></trkpt><trkpt lat="32.3518" lon="-8.8423833"><ele>171.0</ele><time>2026-04-26T13:28:10.41Z</time></trkpt><trkpt lat="32.3519467" lon="-8.8423483"><ele>171.0</ele><time>2026-04-26T13:28:11.41Z</time></trkpt><trkpt lat="32.3520867" lon="-8.8423083"><ele>171.0</ele><time>2026-04-26T13:28:12.41Z</time></trkpt><trkpt lat="32.3522283" lon="-8.8422767"><ele>171.0</ele><time>2026-04-26T13:28:13.41Z</time></trkpt><trkpt lat="32.35237" lon="-8.8422433"><ele>172.0</ele><time>2026-04-26T13:28:14.41Z</time></trkpt><trkpt lat="32.3525017" lon="-8.8422133"><ele>173.0</ele><time>2026-04-26T13:28:15.41Z</time></trkpt><trkpt lat="32.35263" lon="-8.8421767"><ele>174.0</ele><time>2026-04-26T13:28:16.41Z</time></trkpt><trkpt lat="32.352765" lon="-8.8421467"><ele>175.0</ele><time>2026-04-26T13:28:17.41Z</time></trkpt><trkpt lat="32.3529033" lon="-8.8421217"><ele>174.66666666666669</ele><time>2026-04-26T13:28:18.41Z</time></trkpt><trkpt lat="32.3530483" lon="-8.8420867"><ele>174.33333333333334</ele><time>2026-04-26T13:28:19.41Z</time></trkpt><trkpt lat="32.3532" lon="-8.8420567"><ele>174.0</ele><time>2026-04-26T13:28:20.41Z</time></trkpt><trkpt lat="32.3533533" lon="-8.84202"><ele>174.0</ele><time>2026-04-26T13:28:21.41Z</time></trkpt><trkpt lat="32.3535117" lon="-8.8419783"><ele>174.0</ele><time>2026-04-26T13:28:22.41Z</time></trkpt><trkpt lat="32.3536733" lon="-8.8419367"><ele>174.0</ele><time>2026-04-26T13:28:23.41Z</time></trkpt><trkpt lat="32.3538283" lon="-8.8419"><ele>175.75</ele><time>2026-04-26T13:28:24.41Z</time></trkpt><trkpt lat="32.3539733" lon="-8.841865"><ele>177.5</ele><time>2026-04-26T13:28:25.41Z</time></trkpt><trkpt lat="32.3541133" lon="-8.841835"><ele>179.25</ele><time>2026-04-26T13:28:26.41Z</time></trkpt><trkpt lat="32.354255" lon="-8.8418067"><ele>181.0</ele><time>2026-04-26T13:28:27.41Z</time></trkpt><trkpt lat="32.354395" lon="-8.8417783"><ele>181.5</ele><time>2026-04-26T13:28:28.41Z</time></trkpt><trkpt lat="32.354535" lon="-8.8417583"><ele>182.0</ele><time>2026-04-26T13:28:29.41Z</time></trkpt><trkpt lat="32.3546667" lon="-8.8417383"><ele>182.5</ele><time>2026-04-26T13:28:30.41Z</time></trkpt><trkpt lat="32.3547933" lon="-8.8417167"><ele>183.0</ele><time>2026-04-26T13:28:31.41Z</time></trkpt><trkpt lat="32.3549167" lon="-8.8416967"><ele>183.75</ele><time>2026-04-26T13:28:32.411Z</time></trkpt><trkpt lat="32.3550433" lon="-8.8416833"><ele>184.5</ele><time>2026-04-26T13:28:33.41Z</time></trkpt><trkpt lat="32.3551717" lon="-8.8416717"><ele>185.25</ele><time>2026-04-26T13:28:34.41Z</time></trkpt><trkpt lat="32.355295" lon="-8.8416583"><ele>186.0</ele><time>2026-04-26T13:28:35.41Z</time></trkpt><trkpt lat="32.3554283" lon="-8.8416433"><ele>186.5</ele><time>2026-04-26T13:28:36.41Z</time></trkpt><trkpt lat="32.355565" lon="-8.8416283"><ele>187.0</ele><time>2026-04-26T13:28:37.41Z</time></trkpt><trkpt lat="32.3557067" lon="-8.8416117"><ele>187.5</ele><time>2026-04-26T13:28:38.41Z</time></trkpt><trkpt lat="32.35585" lon="-8.8415917"><ele>188.0</ele><time>2026-04-26T13:28:39.41Z</time></trkpt><trkpt lat="32.3559933" lon="-8.8415833"><ele>188.0</ele><time>2026-04-26T13:28:40.41Z</time></trkpt><trkpt lat="32.356135" lon="-8.841565"><ele>188.0</ele><time>2026-04-26T13:28:41.41Z</time></trkpt><trkpt lat="32.356285" lon="-8.8415467"><ele>188.0</ele><time>2026-04-26T13:28:42.41Z</time></trkpt><trkpt lat="32.3564333" lon="-8.8415267"><ele>188.0</ele><time>2026-04-26T13:28:43.41Z</time></trkpt><trkpt lat="32.35658" lon="-8.8415117"><ele>188.0</ele><time>2026-04-26T13:28:44.41Z</time></trkpt><trkpt lat="32.3567233" lon="-8.8414883"><ele>188.0</ele><time>2026-04-26T13:28:45.41Z</time></trkpt><trkpt lat="32.3568667" lon="-8.84147"><ele>188.0</ele><time>2026-04-26T13:28:46.41Z</time></trkpt><trkpt lat="32.3570117" lon="-8.8414567"><ele>188.0</ele><time>2026-04-26T13:28:47.41Z</time></trkpt><trkpt lat="32.3571583" lon="-8.84143"><ele>188.0</ele><time>2026-04-26T13:28:48.411Z</time></trkpt><trkpt lat="32.3573017" lon="-8.841395"><ele>188.0</ele><time>2026-04-26T13:28:49.41Z</time></trkpt><trkpt lat="32.35745" lon="-8.8413583"><ele>188.0</ele><time>2026-04-26T13:28:50.411Z</time></trkpt><trkpt lat="32.3576" lon="-8.84132"><ele>188.0</ele><time>2026-04-26T13:28:51.411Z</time></trkpt><trkpt lat="32.357745" lon="-8.841265"><ele>188.0</ele><time>2026-04-26T13:28:52.41Z</time></trkpt><trkpt lat="32.35788" lon="-8.8412017"><ele>188.0</ele><time>2026-04-26T13:28:53.41Z</time></trkpt><trkpt lat="32.358015" lon="-8.8411333"><ele>188.0</ele><time>2026-04-26T13:28:54.41Z</time></trkpt><trkpt lat="32.3581517" lon="-8.8410533"><ele>187.66666666666666</ele><time>2026-04-26T13:28:55.41Z</time></trkpt><trkpt lat="32.3582867" lon="-8.8409667"><ele>187.33333333333334</ele><time>2026-04-26T13:28:56.41Z</time></trkpt><trkpt lat="32.3584217" lon="-8.840875"><ele>187.0</ele><time>2026-04-26T13:28:57.41Z</time></trkpt><trkpt lat="32.358555" lon="-8.84078"><ele>187.0</ele><time>2026-04-26T13:28:58.41Z</time></trkpt><trkpt lat="32.3586933" lon="-8.840685"><ele>187.0</ele><time>2026-04-26T13:28:59.41Z</time></trkpt><trkpt lat="32.3588333" lon="-8.8405817"><ele>187.0</ele><time>2026-04-26T13:29:00.41Z</time></trkpt><trkpt lat="32.3589767" lon="-8.8404733"><ele>187.0</ele><time>2026-04-26T13:29:01.41Z</time></trkpt><trkpt lat="32.3591233" lon="-8.8403633"><ele>187.0</ele><time>2026-04-26T13:29:02.411Z</time></trkpt><trkpt lat="32.35928" lon="-8.8402433"><ele>187.0</ele><time>2026-04-26T13:29:03.41Z</time></trkpt><trkpt lat="32.3594433" lon="-8.8401267"><ele>187.0</ele><time>2026-04-26T13:29:04.41Z</time></trkpt><trkpt lat="32.3596117" lon="-8.8400033"><ele>187.0</ele><time>2026-04-26T13:29:05.411Z</time></trkpt><trkpt lat="32.3597867" lon="-8.8398683"><ele>187.0</ele><time>2026-04-26T13:29:06.41Z</time></trkpt><trkpt lat="32.3599633" lon="-8.8397417"><ele>186.66666666666669</ele><time>2026-04-26T13:29:07.41Z</time></trkpt><trkpt lat="32.3601533" lon="-8.8396117"><ele>186.33333333333334</ele><time>2026-04-26T13:29:08.41Z</time></trkpt><trkpt lat="32.3603467" lon="-8.8394883"><ele>186.0</ele><time>2026-04-26T13:29:09.41Z</time></trkpt><trkpt lat="32.360545" lon="-8.83937"><ele>185.66666666666666</ele><time>2026-04-26T13:29:10.411Z</time></trkpt><trkpt lat="32.3607433" lon="-8.8392467"><ele>185.33333333333331</ele><time>2026-04-26T13:29:11.41Z</time></trkpt><trkpt lat="32.36094" lon="-8.83914"><ele>185.0</ele><time>2026-04-26T13:29:12.41Z</time></trkpt><trkpt lat="32.3611333" lon="-8.8390417"><ele>185.0</ele><time>2026-04-26T13:29:13.41Z</time></trkpt><trkpt lat="32.3613183" lon="-8.8389583"><ele>185.0</ele><time>2026-04-26T13:29:14.41Z</time></trkpt><trkpt lat="32.3614967" lon="-8.838885"><ele>185.0</ele><time>2026-04-26T13:29:15.41Z</time></trkpt><trkpt lat="32.3616667" lon="-8.8388217"><ele>185.0</ele><time>2026-04-26T13:29:16.41Z</time></trkpt><trkpt lat="32.3618183" lon="-8.8387683"><ele>185.0</ele><time>2026-04-26T13:29:17.41Z</time></trkpt><trkpt lat="32.3619517" lon="-8.8387283"><ele>185.0</ele><time>2026-04-26T13:29:18.41Z</time></trkpt><trkpt lat="32.3620717" lon="-8.838695"><ele>185.0</ele><time>2026-04-26T13:29:19.41Z</time></trkpt><trkpt lat="32.362175" lon="-8.8386617"><ele>184.83333333333331</ele><time>2026-04-26T13:29:20.41Z</time></trkpt><trkpt lat="32.3622667" lon="-8.8386333"><ele>184.66666666666666</ele><time>2026-04-26T13:29:21.41Z</time></trkpt><trkpt lat="32.36235" lon="-8.8386083"><ele>184.5</ele><time>2026-04-26T13:29:22.41Z</time></trkpt><trkpt lat="32.362425" lon="-8.8385867"><ele>184.33333333333334</ele><time>2026-04-26T13:29:23.411Z</time></trkpt><trkpt lat="32.3624983" lon="-8.838565"><ele>184.16666666666669</ele><time>2026-04-26T13:29:24.41Z</time></trkpt><trkpt lat="32.3625717" lon="-8.8385433"><ele>184.0</ele><time>2026-04-26T13:29:25.41Z</time></trkpt><trkpt lat="32.362645" lon="-8.8385217"><ele>184.0</ele><time>2026-04-26T13:29:26.41Z</time></trkpt><trkpt lat="32.36272" lon="-8.8384967"><ele>184.0</ele><time>2026-04-26T13:29:27.41Z</time></trkpt><trkpt lat="32.3628" lon="-8.83847"><ele>184.0</ele><time>2026-04-26T13:29:28.41Z</time></trkpt><trkpt lat="32.3628967" lon="-8.8384417"><ele>184.0</ele><time>2026-04-26T13:29:29.41Z</time></trkpt><trkpt lat="32.36301" lon="-8.8384083"><ele>184.0</ele><time>2026-04-26T13:29:30.41Z</time></trkpt><trkpt lat="32.3631367" lon="-8.8383767"><ele>184.0</ele><time>2026-04-26T13:29:31.411Z</time></trkpt><trkpt lat="32.3632717" lon="-8.83833"><ele>184.0</ele><time>2026-04-26T13:29:32.41Z</time></trkpt><trkpt lat="32.36342" lon="-8.838285"><ele>184.0</ele><time>2026-04-26T13:29:33.41Z</time></trkpt><trkpt lat="32.3635733" lon="-8.8382417"><ele>184.0</ele><time>2026-04-26T13:29:34.41Z</time></trkpt><trkpt lat="32.3637433" lon="-8.8381917"><ele>184.0</ele><time>2026-04-26T13:29:35.41Z</time></trkpt><trkpt lat="32.3639183" lon="-8.8381367"><ele>184.0</ele><time>2026-04-26T13:29:36.41Z</time></trkpt><trkpt lat="32.36411" lon="-8.8380817"><ele>184.0</ele><time>2026-04-26T13:29:37.41Z</time></trkpt><trkpt lat="32.3643083" lon="-8.8380217"><ele>184.0</ele><time>2026-04-26T13:29:38.41Z</time></trkpt><trkpt lat="32.364505" lon="-8.8379567"><ele>184.0</ele><time>2026-04-26T13:29:39.41Z</time></trkpt><trkpt lat="32.3647117" lon="-8.8378867"><ele>184.0</ele><time>2026-04-26T13:29:40.41Z</time></trkpt><trkpt lat="32.364915" lon="-8.837805"><ele>184.0</ele><time>2026-04-26T13:29:41.41Z</time></trkpt><trkpt lat="32.3651183" lon="-8.83771"><ele>184.0</ele><time>2026-04-26T13:29:42.41Z</time></trkpt><trkpt lat="32.3653233" lon="-8.837605"><ele>184.66666666666669</ele><time>2026-04-26T13:29:43.41Z</time></trkpt><trkpt lat="32.36552" lon="-8.8374883"><ele>185.33333333333334</ele><time>2026-04-26T13:29:44.41Z</time></trkpt><trkpt lat="32.3657033" lon="-8.8373633"><ele>186.0</ele><time>2026-04-26T13:29:45.41Z</time></trkpt><trkpt lat="32.3658717" lon="-8.8372317"><ele>186.0</ele><time>2026-04-26T13:29:46.41Z</time></trkpt><trkpt lat="32.3660283" lon="-8.837095"><ele>186.0</ele><time>2026-04-26T13:29:47.41Z</time></trkpt><trkpt lat="32.366175" lon="-8.8369417"><ele>186.0</ele><time>2026-04-26T13:29:48.41Z</time></trkpt><trkpt lat="32.3663167" lon="-8.83679"><ele>185.33333333333334</ele><time>2026-04-26T13:29:49.411Z</time></trkpt><trkpt lat="32.3664733" lon="-8.83664"><ele>184.66666666666669</ele><time>2026-04-26T13:29:50.41Z</time></trkpt><trkpt lat="32.3666283" lon="-8.8364867"><ele>184.0</ele><time>2026-04-26T13:29:51.41Z</time></trkpt><trkpt lat="32.3667833" lon="-8.83633"><ele>184.0</ele><time>2026-04-26T13:29:52.41Z</time></trkpt><trkpt lat="32.36694" lon="-8.836175"><ele>184.0</ele><time>2026-04-26T13:29:53.41Z</time></trkpt><trkpt lat="32.3670917" lon="-8.836015"><ele>184.0</ele><time>2026-04-26T13:29:54.41Z</time></trkpt><trkpt lat="32.3672483" lon="-8.835855"><ele>184.33333333333334</ele><time>2026-04-26T13:29:55.41Z</time></trkpt><trkpt lat="32.3673983" lon="-8.8356933"><ele>184.66666666666666</ele><time>2026-04-26T13:29:56.41Z</time></trkpt><trkpt lat="32.367555" lon="-8.8355367"><ele>185.0</ele><time>2026-04-26T13:29:57.41Z</time></trkpt><trkpt lat="32.3677083" lon="-8.8353817"><ele>185.0</ele><time>2026-04-26T13:29:58.41Z</time></trkpt><trkpt lat="32.3678617" lon="-8.8352267"><ele>185.0</ele><time>2026-04-26T13:29:59.41Z</time></trkpt><trkpt lat="32.3680083" lon="-8.8350683"><ele>185.0</ele><time>2026-04-26T13:30:00.41Z</time></trkpt><trkpt lat="32.3681567" lon="-8.8349117"><ele>185.0</ele><time>2026-04-26T13:30:01.41Z</time></trkpt><trkpt lat="32.36832" lon="-8.8347533"><ele>185.0</ele><time>2026-04-26T13:30:02.41Z</time></trkpt><trkpt lat="32.3684933" lon="-8.8345883"><ele>185.0</ele><time>2026-04-26T13:30:03.41Z</time></trkpt><trkpt lat="32.3686633" lon="-8.8344167"><ele>184.66666666666666</ele><time>2026-04-26T13:30:04.41Z</time></trkpt><trkpt lat="32.3688217" lon="-8.8342567"><ele>184.33333333333334</ele><time>2026-04-26T13:30:05.41Z</time></trkpt><trkpt lat="32.36898" lon="-8.8341017"><ele>184.0</ele><time>2026-04-26T13:30:06.41Z</time></trkpt><trkpt lat="32.369135" lon="-8.833945"><ele>183.33333333333334</ele><time>2026-04-26T13:30:07.41Z</time></trkpt><trkpt lat="32.3692883" lon="-8.833785"><ele>182.66666666666666</ele><time>2026-04-26T13:30:08.41Z</time></trkpt><trkpt lat="32.3694483" lon="-8.83363"><ele>182.0</ele><time>2026-04-26T13:30:09.41Z</time></trkpt><trkpt lat="32.3696167" lon="-8.833475"><ele>182.66666666666666</ele><time>2026-04-26T13:30:10.41Z</time></trkpt><trkpt lat="32.369785" lon="-8.833315"><ele>183.33333333333334</ele><time>2026-04-26T13:30:11.41Z</time></trkpt><trkpt lat="32.3699483" lon="-8.8331717"><ele>184.0</ele><time>2026-04-26T13:30:12.41Z</time></trkpt><trkpt lat="32.37012" lon="-8.833035"><ele>184.0</ele><time>2026-04-26T13:30:13.41Z</time></trkpt><trkpt lat="32.3702933" lon="-8.8329033"><ele>184.0</ele><time>2026-04-26T13:30:14.41Z</time></trkpt><trkpt lat="32.3704617" lon="-8.832775"><ele>184.0</ele><time>2026-04-26T13:30:15.41Z</time></trkpt><trkpt lat="32.3706317" lon="-8.832655"><ele>183.66666666666669</ele><time>2026-04-26T13:30:16.41Z</time></trkpt><trkpt lat="32.3708083" lon="-8.83254"><ele>183.33333333333334</ele><time>2026-04-26T13:30:17.41Z</time></trkpt><trkpt lat="32.3709917" lon="-8.8324267"><ele>183.0</ele><time>2026-04-26T13:30:18.41Z</time></trkpt><trkpt lat="32.371185" lon="-8.8323067"><ele>182.0</ele><time>2026-04-26T13:30:19.41Z</time></trkpt><trkpt lat="32.371385" lon="-8.8321833"><ele>181.0</ele><time>2026-04-26T13:30:20.411Z</time></trkpt><trkpt lat="32.3715917" lon="-8.8320667"><ele>181.0</ele><time>2026-04-26T13:30:21.41Z</time></trkpt><trkpt lat="32.3718017" lon="-8.8319483"><ele>181.0</ele><time>2026-04-26T13:30:22.41Z</time></trkpt><trkpt lat="32.3720167" lon="-8.83182"><ele>182.0</ele><time>2026-04-26T13:30:23.41Z</time></trkpt><trkpt lat="32.3722467" lon="-8.83168"><ele>183.0</ele><time>2026-04-26T13:30:24.41Z</time></trkpt><trkpt lat="32.3724783" lon="-8.83154"><ele>183.0</ele><time>2026-04-26T13:30:25.41Z</time></trkpt><trkpt lat="32.37272" lon="-8.8313983"><ele>183.0</ele><time>2026-04-26T13:30:26.41Z</time></trkpt><trkpt lat="32.37296" lon="-8.831255"><ele>182.0</ele><time>2026-04-26T13:30:27.41Z</time></trkpt><trkpt lat="32.3732117" lon="-8.8311067"><ele>181.0</ele><time>2026-04-26T13:30:28.41Z</time></trkpt><trkpt lat="32.37347" lon="-8.8309533"><ele>181.0</ele><time>2026-04-26T13:30:29.41Z</time></trkpt><trkpt lat="32.3737517" lon="-8.83079"><ele>181.0</ele><time>2026-04-26T13:30:30.41Z</time></trkpt><trkpt lat="32.3740433" lon="-8.8306117"><ele>181.5</ele><time>2026-04-26T13:30:31.41Z</time></trkpt><trkpt lat="32.374345" lon="-8.830435"><ele>182.0</ele><time>2026-04-26T13:30:32.41Z</time></trkpt><trkpt lat="32.37463" lon="-8.830265"><ele>182.5</ele><time>2026-04-26T13:30:33.41Z</time></trkpt><trkpt lat="32.374905" lon="-8.830095"><ele>183.0</ele><time>2026-04-26T13:30:34.41Z</time></trkpt><trkpt lat="32.3751717" lon="-8.8299417"><ele>183.0</ele><time>2026-04-26T13:30:35.41Z</time></trkpt><trkpt lat="32.37544" lon="-8.829785"><ele>183.0</ele><time>2026-04-26T13:30:36.411Z</time></trkpt><trkpt lat="32.37571" lon="-8.8296133"><ele>182.5</ele><time>2026-04-26T13:30:37.41Z</time></trkpt><trkpt lat="32.3759817" lon="-8.8294217"><ele>182.0</ele><time>2026-04-26T13:30:38.41Z</time></trkpt><trkpt lat="32.3762517" lon="-8.8292083"><ele>181.0</ele><time>2026-04-26T13:30:39.41Z</time></trkpt><trkpt lat="32.3765217" lon="-8.8289733"><ele>180.0</ele><time>2026-04-26T13:30:40.41Z</time></trkpt><trkpt lat="32.3767917" lon="-8.8287383"><ele>180.0</ele><time>2026-04-26T13:30:41.41Z</time></trkpt><trkpt lat="32.3770483" lon="-8.8285117"><ele>180.0</ele><time>2026-04-26T13:30:42.41Z</time></trkpt><trkpt lat="32.3773033" lon="-8.8282883"><ele>177.0</ele><time>2026-04-26T13:30:43.41Z</time></trkpt><trkpt lat="32.377565" lon="-8.8280667"><ele>174.0</ele><time>2026-04-26T13:30:44.41Z</time></trkpt><trkpt lat="32.37783" lon="-8.827845"><ele>174.5</ele><time>2026-04-26T13:30:45.41Z</time></trkpt><trkpt lat="32.3780967" lon="-8.8276367"><ele>175.0</ele><time>2026-04-26T13:30:46.41Z</time></trkpt><trkpt lat="32.37836" lon="-8.8274333"><ele>175.0</ele><time>2026-04-26T13:30:47.41Z</time></trkpt><trkpt lat="32.3786267" lon="-8.8272367"><ele>175.0</ele><time>2026-04-26T13:30:48.41Z</time></trkpt><trkpt lat="32.3788917" lon="-8.8270633"><ele>175.0</ele><time>2026-04-26T13:30:49.41Z</time></trkpt><trkpt lat="32.3791583" lon="-8.8268983"><ele>175.0</ele><time>2026-04-26T13:30:50.41Z</time></trkpt><trkpt lat="32.3794267" lon="-8.8267517"><ele>175.0</ele><time>2026-04-26T13:30:51.41Z</time></trkpt><trkpt lat="32.3796883" lon="-8.8266183"><ele>175.0</ele><time>2026-04-26T13:30:52.41Z</time></trkpt><trkpt lat="32.3799467" lon="-8.82649"><ele>175.0</ele><time>2026-04-26T13:30:53.41Z</time></trkpt><trkpt lat="32.3802033" lon="-8.8263733"><ele>175.0</ele><time>2026-04-26T13:30:54.41Z</time></trkpt><trkpt lat="32.3804567" lon="-8.8262667"><ele>173.0</ele><time>2026-04-26T13:30:55.41Z</time></trkpt><trkpt lat="32.3807083" lon="-8.8261767"><ele>171.0</ele><time>2026-04-26T13:30:56.41Z</time></trkpt><trkpt lat="32.3809633" lon="-8.8260883"><ele>171.0</ele><time>2026-04-26T13:30:57.41Z</time></trkpt><trkpt lat="32.3812183" lon="-8.826"><ele>171.0</ele><time>2026-04-26T13:30:58.41Z</time></trkpt><trkpt lat="32.3814617" lon="-8.8259183"><ele>171.0</ele><time>2026-04-26T13:30:59.41Z</time></trkpt><trkpt lat="32.3816983" lon="-8.8258333"><ele>171.0</ele><time>2026-04-26T13:31:00.41Z</time></trkpt><trkpt lat="32.381935" lon="-8.8257567"><ele>171.0</ele><time>2026-04-26T13:31:01.41Z</time></trkpt><trkpt lat="32.38217" lon="-8.8256783"><ele>171.0</ele><time>2026-04-26T13:31:02.41Z</time></trkpt><trkpt lat="32.3823967" lon="-8.825595"><ele>171.0</ele><time>2026-04-26T13:31:03.41Z</time></trkpt><trkpt lat="32.38262" lon="-8.8255217"><ele>171.0</ele><time>2026-04-26T13:31:04.41Z</time></trkpt><trkpt lat="32.382835" lon="-8.8254433"><ele>171.0</ele><time>2026-04-26T13:31:05.41Z</time></trkpt><trkpt lat="32.383045" lon="-8.8253617"><ele>171.0</ele><time>2026-04-26T13:31:06.41Z</time></trkpt><trkpt lat="32.383255" lon="-8.825285"><ele>171.0</ele><time>2026-04-26T13:31:07.41Z</time></trkpt><trkpt lat="32.3834617" lon="-8.8252133"><ele>171.0</ele><time>2026-04-26T13:31:08.409Z</time></trkpt><trkpt lat="32.38366" lon="-8.8251417"><ele>171.0</ele><time>2026-04-26T13:31:09.409Z</time></trkpt><trkpt lat="32.3838467" lon="-8.8250733"><ele>171.0</ele><time>2026-04-26T13:31:10.409Z</time></trkpt><trkpt lat="32.38403" lon="-8.8250067"><ele>171.33333333333334</ele><time>2026-04-26T13:31:11.409Z</time></trkpt><trkpt lat="32.384215" lon="-8.8249417"><ele>171.66666666666669</ele><time>2026-04-26T13:31:12.409Z</time></trkpt><trkpt lat="32.3843933" lon="-8.8248767"><ele>172.0</ele><time>2026-04-26T13:31:13.409Z</time></trkpt><trkpt lat="32.3845667" lon="-8.8248117"><ele>172.33333333333334</ele><time>2026-04-26T13:31:14.409Z</time></trkpt><trkpt lat="32.3847383" lon="-8.82475"><ele>172.66666666666666</ele><time>2026-04-26T13:31:15.409Z</time></trkpt><trkpt lat="32.38491" lon="-8.8246817"><ele>173.0</ele><time>2026-04-26T13:31:16.409Z</time></trkpt><trkpt lat="32.3850833" lon="-8.82462"><ele>173.0</ele><time>2026-04-26T13:31:17.409Z</time></trkpt><trkpt lat="32.385255" lon="-8.82456"><ele>173.0</ele><time>2026-04-26T13:31:18.409Z</time></trkpt><trkpt lat="32.3854333" lon="-8.8244917"><ele>173.0</ele><time>2026-04-26T13:31:19.409Z</time></trkpt><trkpt lat="32.38561" lon="-8.8244217"><ele>173.0</ele><time>2026-04-26T13:31:20.409Z</time></trkpt><trkpt lat="32.3857817" lon="-8.824345"><ele>173.0</ele><time>2026-04-26T13:31:21.409Z</time></trkpt><trkpt lat="32.385955" lon="-8.8242717"><ele>173.0</ele><time>2026-04-26T13:31:22.409Z</time></trkpt><trkpt lat="32.3861283" lon="-8.8241917"><ele>173.0</ele><time>2026-04-26T13:31:23.409Z</time></trkpt><trkpt lat="32.3863" lon="-8.8241117"><ele>173.0</ele><time>2026-04-26T13:31:24.409Z</time></trkpt><trkpt lat="32.38647" lon="-8.8240317"><ele>173.0</ele><time>2026-04-26T13:31:25.409Z</time></trkpt><trkpt lat="32.3866433" lon="-8.8239533"><ele>173.0</ele><time>2026-04-26T13:31:26.409Z</time></trkpt><trkpt lat="32.386815" lon="-8.823865"><ele>173.0</ele><time>2026-04-26T13:31:27.409Z</time></trkpt><trkpt lat="32.3869867" lon="-8.8237833"><ele>173.0</ele><time>2026-04-26T13:31:28.409Z</time></trkpt><trkpt lat="32.38716" lon="-8.8237017"><ele>173.33333333333331</ele><time>2026-04-26T13:31:29.41Z</time></trkpt><trkpt lat="32.3873317" lon="-8.8236267"><ele>173.66666666666666</ele><time>2026-04-26T13:31:30.409Z</time></trkpt><trkpt lat="32.3875017" lon="-8.8235533"><ele>174.0</ele><time>2026-04-26T13:31:31.409Z</time></trkpt><trkpt lat="32.3876633" lon="-8.8234783"><ele>174.0</ele><time>2026-04-26T13:31:32.409Z</time></trkpt><trkpt lat="32.3878233" lon="-8.8234017"><ele>174.0</ele><time>2026-04-26T13:31:33.409Z</time></trkpt><trkpt lat="32.3879833" lon="-8.823325"><ele>174.0</ele><time>2026-04-26T13:31:34.409Z</time></trkpt><trkpt lat="32.38814" lon="-8.823245"><ele>173.33333333333334</ele><time>2026-04-26T13:31:35.409Z</time></trkpt><trkpt lat="32.388295" lon="-8.8231717"><ele>172.66666666666669</ele><time>2026-04-26T13:31:36.409Z</time></trkpt><trkpt lat="32.3884533" lon="-8.8230967"><ele>172.0</ele><time>2026-04-26T13:31:37.409Z</time></trkpt><trkpt lat="32.3886133" lon="-8.8230233"><ele>172.0</ele><time>2026-04-26T13:31:38.409Z</time></trkpt><trkpt lat="32.3887733" lon="-8.8229533"><ele>172.0</ele><time>2026-04-26T13:31:39.409Z</time></trkpt><trkpt lat="32.3889283" lon="-8.8228817"><ele>172.0</ele><time>2026-04-26T13:31:40.409Z</time></trkpt><trkpt lat="32.3890817" lon="-8.82281"><ele>171.66666666666669</ele><time>2026-04-26T13:31:41.409Z</time></trkpt><trkpt lat="32.3892367" lon="-8.8227367"><ele>171.33333333333334</ele><time>2026-04-26T13:31:42.409Z</time></trkpt><trkpt lat="32.38939" lon="-8.8226717"><ele>171.0</ele><time>2026-04-26T13:31:43.409Z</time></trkpt><trkpt lat="32.389545" lon="-8.8226083"><ele>171.33333333333334</ele><time>2026-04-26T13:31:44.409Z</time></trkpt><trkpt lat="32.3897" lon="-8.8225467"><ele>171.66666666666669</ele><time>2026-04-26T13:31:45.409Z</time></trkpt><trkpt lat="32.3898517" lon="-8.822485"><ele>172.0</ele><time>2026-04-26T13:31:46.409Z</time></trkpt><trkpt lat="32.390005" lon="-8.8224233"><ele>172.0</ele><time>2026-04-26T13:31:47.409Z</time></trkpt><trkpt lat="32.3901583" lon="-8.8223633"><ele>172.0</ele><time>2026-04-26T13:31:48.409Z</time></trkpt><trkpt lat="32.39031" lon="-8.8223033"><ele>172.0</ele><time>2026-04-26T13:31:49.409Z</time></trkpt><trkpt lat="32.3904583" lon="-8.822245"><ele>172.0</ele><time>2026-04-26T13:31:50.409Z</time></trkpt><trkpt lat="32.39061" lon="-8.8221867"><ele>172.0</ele><time>2026-04-26T13:31:51.409Z</time></trkpt><trkpt lat="32.39076" lon="-8.8221283"><ele>172.0</ele><time>2026-04-26T13:31:52.409Z</time></trkpt><trkpt lat="32.39091" lon="-8.8220683"><ele>172.0</ele><time>2026-04-26T13:31:53.409Z</time></trkpt><trkpt lat="32.3910617" lon="-8.8220067"><ele>172.0</ele><time>2026-04-26T13:31:54.41Z</time></trkpt><trkpt lat="32.3912133" lon="-8.821945"><ele>172.0</ele><time>2026-04-26T13:31:55.409Z</time></trkpt><trkpt lat="32.391365" lon="-8.8218817"><ele>172.0</ele><time>2026-04-26T13:31:56.409Z</time></trkpt><trkpt lat="32.3915167" lon="-8.8218183"><ele>172.0</ele><time>2026-04-26T13:31:57.409Z</time></trkpt><trkpt lat="32.3916733" lon="-8.8217633"><ele>172.0</ele><time>2026-04-26T13:31:58.409Z</time></trkpt><trkpt lat="32.3918317" lon="-8.8217067"><ele>172.33333333333334</ele><time>2026-04-26T13:31:59.409Z</time></trkpt><trkpt lat="32.3919883" lon="-8.8216467"><ele>172.66666666666666</ele><time>2026-04-26T13:32:00.409Z</time></trkpt><trkpt lat="32.392145" lon="-8.8215833"><ele>173.0</ele><time>2026-04-26T13:32:01.409Z</time></trkpt><trkpt lat="32.3923033" lon="-8.8215217"><ele>173.0</ele><time>2026-04-26T13:32:02.409Z</time></trkpt><trkpt lat="32.3924633" lon="-8.82146"><ele>173.0</ele><time>2026-04-26T13:32:03.409Z</time></trkpt><trkpt lat="32.3926217" lon="-8.8214"><ele>173.0</ele><time>2026-04-26T13:32:04.409Z</time></trkpt><trkpt lat="32.3927833" lon="-8.8213383"><ele>173.0</ele><time>2026-04-26T13:32:05.409Z</time></trkpt><trkpt lat="32.392945" lon="-8.8212783"><ele>173.0</ele><time>2026-04-26T13:32:06.409Z</time></trkpt><trkpt lat="32.39311" lon="-8.8212117"><ele>173.0</ele><time>2026-04-26T13:32:07.409Z</time></trkpt><trkpt lat="32.393275" lon="-8.8211467"><ele>173.0</ele><time>2026-04-26T13:32:08.409Z</time></trkpt><trkpt lat="32.39344" lon="-8.8210817"><ele>173.0</ele><time>2026-04-26T13:32:09.409Z</time></trkpt><trkpt lat="32.3936033" lon="-8.8210183"><ele>173.0</ele><time>2026-04-26T13:32:10.41Z</time></trkpt><trkpt lat="32.3937683" lon="-8.8209567"><ele>172.33333333333331</ele><time>2026-04-26T13:32:11.409Z</time></trkpt><trkpt lat="32.3939367" lon="-8.82089"><ele>171.66666666666666</ele><time>2026-04-26T13:32:12.409Z</time></trkpt><trkpt lat="32.394105" lon="-8.8208283"><ele>171.0</ele><time>2026-04-26T13:32:13.409Z</time></trkpt><trkpt lat="32.39427" lon="-8.8207667"><ele>171.0</ele><time>2026-04-26T13:32:14.409Z</time></trkpt><trkpt lat="32.3944333" lon="-8.8207067"><ele>171.0</ele><time>2026-04-26T13:32:15.409Z</time></trkpt><trkpt lat="32.3945983" lon="-8.8206417"><ele>171.0</ele><time>2026-04-26T13:32:16.409Z</time></trkpt><trkpt lat="32.39477" lon="-8.8205783"><ele>170.66666666666666</ele><time>2026-04-26T13:32:17.409Z</time></trkpt><trkpt lat="32.3949367" lon="-8.8205167"><ele>170.33333333333331</ele><time>2026-04-26T13:32:18.409Z</time></trkpt><trkpt lat="32.3951033" lon="-8.8204533"><ele>170.0</ele><time>2026-04-26T13:32:19.409Z</time></trkpt><trkpt lat="32.3952717" lon="-8.8203883"><ele>170.0</ele><time>2026-04-26T13:32:20.409Z</time></trkpt><trkpt lat="32.3954367" lon="-8.8203183"><ele>170.0</ele><time>2026-04-26T13:32:21.409Z</time></trkpt><trkpt lat="32.3956017" lon="-8.8202633"><ele>170.0</ele><time>2026-04-26T13:32:22.409Z</time></trkpt><trkpt lat="32.3957617" lon="-8.820205"><ele>170.0</ele><time>2026-04-26T13:32:23.41Z</time></trkpt><trkpt lat="32.39592" lon="-8.8201483"><ele>170.0</ele><time>2026-04-26T13:32:24.409Z</time></trkpt><trkpt lat="32.3960783" lon="-8.8200917"><ele>170.0</ele><time>2026-04-26T13:32:25.409Z</time></trkpt><trkpt lat="32.3962333" lon="-8.820035"><ele>170.66666666666666</ele><time>2026-04-26T13:32:26.41Z</time></trkpt><trkpt lat="32.3963917" lon="-8.819985"><ele>171.33333333333334</ele><time>2026-04-26T13:32:27.409Z</time></trkpt><trkpt lat="32.3965483" lon="-8.819935"><ele>172.0</ele><time>2026-04-26T13:32:28.41Z</time></trkpt><trkpt lat="32.396705" lon="-8.8198767"><ele>172.0</ele><time>2026-04-26T13:32:29.409Z</time></trkpt><trkpt lat="32.396865" lon="-8.8198283"><ele>172.0</ele><time>2026-04-26T13:32:30.409Z</time></trkpt><trkpt lat="32.397025" lon="-8.819775"><ele>172.0</ele><time>2026-04-26T13:32:31.409Z</time></trkpt><trkpt lat="32.3971883" lon="-8.8197283"><ele>171.66666666666669</ele><time>2026-04-26T13:32:32.409Z</time></trkpt><trkpt lat="32.3973567" lon="-8.8196767"><ele>171.33333333333334</ele><time>2026-04-26T13:32:33.409Z</time></trkpt><trkpt lat="32.3975283" lon="-8.8196233"><ele>171.0</ele><time>2026-04-26T13:32:34.409Z</time></trkpt><trkpt lat="32.397705" lon="-8.8195767"><ele>171.0</ele><time>2026-04-26T13:32:35.409Z</time></trkpt><trkpt lat="32.39788" lon="-8.8195233"><ele>171.0</ele><time>2026-04-26T13:32:36.409Z</time></trkpt><trkpt lat="32.3980583" lon="-8.8194717"><ele>171.0</ele><time>2026-04-26T13:32:37.409Z</time></trkpt><trkpt lat="32.3982417" lon="-8.81942"><ele>171.0</ele><time>2026-04-26T13:32:38.409Z</time></trkpt><trkpt lat="32.3984267" lon="-8.81937"><ele>171.0</ele><time>2026-04-26T13:32:39.409Z</time></trkpt><trkpt lat="32.3986117" lon="-8.8193167"><ele>171.0</ele><time>2026-04-26T13:32:40.409Z</time></trkpt><trkpt lat="32.3987983" lon="-8.8192617"><ele>171.33333333333334</ele><time>2026-04-26T13:32:41.409Z</time></trkpt><trkpt lat="32.3989883" lon="-8.8191983"><ele>171.66666666666669</ele><time>2026-04-26T13:32:42.409Z</time></trkpt><trkpt lat="32.39918" lon="-8.81914"><ele>172.0</ele><time>2026-04-26T13:32:43.409Z</time></trkpt><trkpt lat="32.3993733" lon="-8.8190817"><ele>172.0</ele><time>2026-04-26T13:32:44.409Z</time></trkpt><trkpt lat="32.3995583" lon="-8.8190167"><ele>172.0</ele><time>2026-04-26T13:32:45.41Z</time></trkpt><trkpt lat="32.399735" lon="-8.81895"><ele>172.0</ele><time>2026-04-26T13:32:46.409Z</time></trkpt><trkpt lat="32.399915" lon="-8.8188833"><ele>172.0</ele><time>2026-04-26T13:32:47.409Z</time></trkpt><trkpt lat="32.400085" lon="-8.8188133"><ele>172.0</ele><time>2026-04-26T13:32:48.409Z</time></trkpt><trkpt lat="32.40026" lon="-8.8187417"><ele>172.0</ele><time>2026-04-26T13:32:49.409Z</time></trkpt><trkpt lat="32.4004383" lon="-8.8186717"><ele>171.66666666666669</ele><time>2026-04-26T13:32:50.409Z</time></trkpt><trkpt lat="32.4006167" lon="-8.8186017"><ele>171.33333333333334</ele><time>2026-04-26T13:32:51.409Z</time></trkpt><trkpt lat="32.4007983" lon="-8.8185217"><ele>171.0</ele><time>2026-04-26T13:32:52.409Z</time></trkpt><trkpt lat="32.4009817" lon="-8.8184367"><ele>171.0</ele><time>2026-04-26T13:32:53.409Z</time></trkpt><trkpt lat="32.4011667" lon="-8.8183517"><ele>171.0</ele><time>2026-04-26T13:32:54.409Z</time></trkpt><trkpt lat="32.401355" lon="-8.8182667"><ele>171.0</ele><time>2026-04-26T13:32:55.409Z</time></trkpt><trkpt lat="32.4015467" lon="-8.8181733"><ele>170.66666666666666</ele><time>2026-04-26T13:32:56.409Z</time></trkpt><trkpt lat="32.40174" lon="-8.818075"><ele>170.33333333333331</ele><time>2026-04-26T13:32:57.409Z</time></trkpt><trkpt lat="32.4019383" lon="-8.8179767"><ele>170.0</ele><time>2026-04-26T13:32:58.409Z</time></trkpt><trkpt lat="32.4021383" lon="-8.8178733"><ele>169.66666666666666</ele><time>2026-04-26T13:32:59.409Z</time></trkpt><trkpt lat="32.4023467" lon="-8.81777"><ele>169.33333333333334</ele><time>2026-04-26T13:33:00.409Z</time></trkpt><trkpt lat="32.4025517" lon="-8.817665"><ele>169.0</ele><time>2026-04-26T13:33:01.409Z</time></trkpt><trkpt lat="32.4027583" lon="-8.8175533"><ele>168.5</ele><time>2026-04-26T13:33:02.409Z</time></trkpt><trkpt lat="32.4029683" lon="-8.8174483"><ele>168.0</ele><time>2026-04-26T13:33:03.409Z</time></trkpt><trkpt lat="32.40318" lon="-8.8173417"><ele>169.5</ele><time>2026-04-26T13:33:04.409Z</time></trkpt><trkpt lat="32.4033917" lon="-8.8172333"><ele>171.0</ele><time>2026-04-26T13:33:05.409Z</time></trkpt><trkpt lat="32.4036017" lon="-8.8171217"><ele>171.0</ele><time>2026-04-26T13:33:06.409Z</time></trkpt><trkpt lat="32.4038033" lon="-8.8170167"><ele>171.0</ele><time>2026-04-26T13:33:07.409Z</time></trkpt><trkpt lat="32.4040033" lon="-8.8169167"><ele>171.0</ele><time>2026-04-26T13:33:08.409Z</time></trkpt><trkpt lat="32.4042017" lon="-8.8168167"><ele>171.33333333333334</ele><time>2026-04-26T13:33:09.409Z</time></trkpt><trkpt lat="32.4043917" lon="-8.8167217"><ele>171.66666666666669</ele><time>2026-04-26T13:33:10.409Z</time></trkpt><trkpt lat="32.404585" lon="-8.8166217"><ele>172.0</ele><time>2026-04-26T13:33:11.409Z</time></trkpt><trkpt lat="32.4047717" lon="-8.81652"><ele>172.66666666666669</ele><time>2026-04-26T13:33:12.409Z</time></trkpt><trkpt lat="32.4049583" lon="-8.81642"><ele>173.33333333333334</ele><time>2026-04-26T13:33:13.409Z</time></trkpt><trkpt lat="32.4051483" lon="-8.816325"><ele>174.0</ele><time>2026-04-26T13:33:14.409Z</time></trkpt><trkpt lat="32.405335" lon="-8.8162283"><ele>174.33333333333334</ele><time>2026-04-26T13:33:15.409Z</time></trkpt><trkpt lat="32.40552" lon="-8.816125"><ele>174.66666666666669</ele><time>2026-04-26T13:33:16.409Z</time></trkpt><trkpt lat="32.4057033" lon="-8.816015"><ele>175.0</ele><time>2026-04-26T13:33:17.409Z</time></trkpt><trkpt lat="32.4058867" lon="-8.8159067"><ele>175.33333333333334</ele><time>2026-04-26T13:33:18.409Z</time></trkpt><trkpt lat="32.4060717" lon="-8.815795"><ele>175.66666666666666</ele><time>2026-04-26T13:33:19.409Z</time></trkpt><trkpt lat="32.4062517" lon="-8.81568"><ele>176.0</ele><time>2026-04-26T13:33:20.409Z</time></trkpt><trkpt lat="32.406435" lon="-8.8155617"><ele>176.0</ele><time>2026-04-26T13:33:21.409Z</time></trkpt><trkpt lat="32.4066133" lon="-8.815445"><ele>176.0</ele><time>2026-04-26T13:33:22.409Z</time></trkpt><trkpt lat="32.406795" lon="-8.8153233"><ele>176.0</ele><time>2026-04-26T13:33:23.409Z</time></trkpt><trkpt lat="32.406975" lon="-8.8152017"><ele>176.33333333333331</ele><time>2026-04-26T13:33:24.409Z</time></trkpt><trkpt lat="32.407155" lon="-8.8150817"><ele>176.66666666666666</ele><time>2026-04-26T13:33:25.41Z</time></trkpt><trkpt lat="32.40734" lon="-8.8149633"><ele>177.0</ele><time>2026-04-26T13:33:26.409Z</time></trkpt><trkpt lat="32.40753" lon="-8.8148417"><ele>177.33333333333334</ele><time>2026-04-26T13:33:27.409Z</time></trkpt><trkpt lat="32.4077133" lon="-8.8147167"><ele>177.66666666666669</ele><time>2026-04-26T13:33:28.409Z</time></trkpt><trkpt lat="32.40791" lon="-8.8145867"><ele>178.0</ele><time>2026-04-26T13:33:29.409Z</time></trkpt><trkpt lat="32.408115" lon="-8.8144533"><ele>178.0</ele><time>2026-04-26T13:33:30.409Z</time></trkpt><trkpt lat="32.4083167" lon="-8.8143333"><ele>178.0</ele><time>2026-04-26T13:33:31.409Z</time></trkpt><trkpt lat="32.40852" lon="-8.8142117"><ele>178.0</ele><time>2026-04-26T13:33:32.409Z</time></trkpt><trkpt lat="32.4087317" lon="-8.81408"><ele>178.0</ele><time>2026-04-26T13:33:33.409Z</time></trkpt><trkpt lat="32.4089617" lon="-8.81394"><ele>178.0</ele><time>2026-04-26T13:33:34.409Z</time></trkpt><trkpt lat="32.4091883" lon="-8.8137917"><ele>178.0</ele><time>2026-04-26T13:33:35.409Z</time></trkpt><trkpt lat="32.40942" lon="-8.8136517"><ele>178.0</ele><time>2026-04-26T13:33:36.409Z</time></trkpt><trkpt lat="32.4096417" lon="-8.8135167"><ele>178.0</ele><time>2026-04-26T13:33:37.409Z</time></trkpt><trkpt lat="32.4098567" lon="-8.8133833"><ele>178.5</ele><time>2026-04-26T13:33:38.41Z</time></trkpt><trkpt lat="32.41007" lon="-8.8132483"><ele>179.0</ele><time>2026-04-26T13:33:39.409Z</time></trkpt><trkpt lat="32.41029" lon="-8.8131117"><ele>179.0</ele><time>2026-04-26T13:33:40.409Z</time></trkpt><trkpt lat="32.41049" lon="-8.8129683"><ele>179.0</ele><time>2026-04-26T13:33:41.409Z</time></trkpt><trkpt lat="32.4106917" lon="-8.8128283"><ele>178.5</ele><time>2026-04-26T13:33:42.409Z</time></trkpt><trkpt lat="32.4108917" lon="-8.8126917"><ele>178.0</ele><time>2026-04-26T13:33:43.409Z</time></trkpt><trkpt lat="32.4110883" lon="-8.81255"><ele>177.0</ele><time>2026-04-26T13:33:44.409Z</time></trkpt><trkpt lat="32.4112867" lon="-8.8124083"><ele>176.0</ele><time>2026-04-26T13:33:45.409Z</time></trkpt><trkpt lat="32.41148" lon="-8.8122617"><ele>176.0</ele><time>2026-04-26T13:33:46.409Z</time></trkpt><trkpt lat="32.4116683" lon="-8.8121067"><ele>176.0</ele><time>2026-04-26T13:33:47.409Z</time></trkpt><trkpt lat="32.4118483" lon="-8.8119483"><ele>177.0</ele><time>2026-04-26T13:33:48.41Z</time></trkpt><trkpt lat="32.41203" lon="-8.8117917"><ele>178.0</ele><time>2026-04-26T13:33:49.409Z</time></trkpt><trkpt lat="32.4121983" lon="-8.8116333"><ele>179.0</ele><time>2026-04-26T13:33:50.409Z</time></trkpt><trkpt lat="32.412365" lon="-8.811475"><ele>179.0</ele><time>2026-04-26T13:33:51.409Z</time></trkpt><trkpt lat="32.412535" lon="-8.8113233"><ele>179.0</ele><time>2026-04-26T13:33:52.409Z</time></trkpt><trkpt lat="32.4127033" lon="-8.81117"><ele>179.0</ele><time>2026-04-26T13:33:53.409Z</time></trkpt><trkpt lat="32.4128683" lon="-8.8110133"><ele>179.33333333333331</ele><time>2026-04-26T13:33:54.409Z</time></trkpt><trkpt lat="32.4130383" lon="-8.810865"><ele>179.66666666666666</ele><time>2026-04-26T13:33:55.409Z</time></trkpt><trkpt lat="32.4132083" lon="-8.810715"><ele>180.0</ele><time>2026-04-26T13:33:56.409Z</time></trkpt><trkpt lat="32.41338" lon="-8.8105717"><ele>180.0</ele><time>2026-04-26T13:33:57.409Z</time></trkpt><trkpt lat="32.41356" lon="-8.8104417"><ele>180.0</ele><time>2026-04-26T13:33:58.409Z</time></trkpt><trkpt lat="32.4137417" lon="-8.81032"><ele>180.0</ele><time>2026-04-26T13:33:59.409Z</time></trkpt><trkpt lat="32.4139267" lon="-8.810205"><ele>180.0</ele><time>2026-04-26T13:34:00.409Z</time></trkpt><trkpt lat="32.414115" lon="-8.8100933"><ele>180.0</ele><time>2026-04-26T13:34:01.409Z</time></trkpt><trkpt lat="32.4143033" lon="-8.8099883"><ele>180.0</ele><time>2026-04-26T13:34:02.409Z</time></trkpt><trkpt lat="32.414495" lon="-8.8098867"><ele>179.66666666666666</ele><time>2026-04-26T13:34:03.41Z</time></trkpt><trkpt lat="32.41469" lon="-8.8097867"><ele>179.33333333333331</ele><time>2026-04-26T13:34:04.409Z</time></trkpt><trkpt lat="32.4148833" lon="-8.8096917"><ele>179.0</ele><time>2026-04-26T13:34:05.409Z</time></trkpt><trkpt lat="32.41507" lon="-8.8096"><ele>179.0</ele><time>2026-04-26T13:34:06.409Z</time></trkpt><trkpt lat="32.4152517" lon="-8.8095083"><ele>179.0</ele><time>2026-04-26T13:34:07.409Z</time></trkpt><trkpt lat="32.4154367" lon="-8.809415"><ele>179.0</ele><time>2026-04-26T13:34:08.409Z</time></trkpt><trkpt lat="32.4156233" lon="-8.809315"><ele>178.33333333333331</ele><time>2026-04-26T13:34:09.409Z</time></trkpt><trkpt lat="32.4158133" lon="-8.8092183"><ele>177.66666666666666</ele><time>2026-04-26T13:34:10.409Z</time></trkpt><trkpt lat="32.4160067" lon="-8.809125"><ele>177.0</ele><time>2026-04-26T13:34:11.409Z</time></trkpt><trkpt lat="32.41619" lon="-8.8090317"><ele>176.66666666666666</ele><time>2026-04-26T13:34:12.409Z</time></trkpt><trkpt lat="32.4163717" lon="-8.8089417"><ele>176.33333333333331</ele><time>2026-04-26T13:34:13.409Z</time></trkpt><trkpt lat="32.41656" lon="-8.8088517"><ele>176.0</ele><time>2026-04-26T13:34:14.409Z</time></trkpt><trkpt lat="32.41675" lon="-8.8087567"><ele>176.0</ele><time>2026-04-26T13:34:15.409Z</time></trkpt><trkpt lat="32.416935" lon="-8.8086617"><ele>176.0</ele><time>2026-04-26T13:34:16.409Z</time></trkpt><trkpt lat="32.4171233" lon="-8.8085683"><ele>176.0</ele><time>2026-04-26T13:34:17.409Z</time></trkpt><trkpt lat="32.417305" lon="-8.8084733"><ele>175.33333333333331</ele><time>2026-04-26T13:34:18.409Z</time></trkpt><trkpt lat="32.4174833" lon="-8.8083833"><ele>174.66666666666666</ele><time>2026-04-26T13:34:19.409Z</time></trkpt><trkpt lat="32.417665" lon="-8.8082933"><ele>174.0</ele><time>2026-04-26T13:34:20.409Z</time></trkpt><trkpt lat="32.4178417" lon="-8.8082033"><ele>174.66666666666666</ele><time>2026-04-26T13:34:21.409Z</time></trkpt><trkpt lat="32.418015" lon="-8.80812"><ele>175.33333333333331</ele><time>2026-04-26T13:34:22.409Z</time></trkpt><trkpt lat="32.41819" lon="-8.80803"><ele>176.0</ele><time>2026-04-26T13:34:23.409Z</time></trkpt><trkpt lat="32.4183633" lon="-8.8079383"><ele>176.0</ele><time>2026-04-26T13:34:24.409Z</time></trkpt><trkpt lat="32.4185283" lon="-8.8078417"><ele>176.0</ele><time>2026-04-26T13:34:25.409Z</time></trkpt><trkpt lat="32.4186983" lon="-8.8077383"><ele>176.0</ele><time>2026-04-26T13:34:26.409Z</time></trkpt><trkpt lat="32.418865" lon="-8.8076383"><ele>177.0</ele><time>2026-04-26T13:34:27.409Z</time></trkpt><trkpt lat="32.4190233" lon="-8.80753"><ele>178.0</ele><time>2026-04-26T13:34:28.409Z</time></trkpt><trkpt lat="32.419185" lon="-8.8074233"><ele>179.0</ele><time>2026-04-26T13:34:29.409Z</time></trkpt><trkpt lat="32.419345" lon="-8.8073183"><ele>179.0</ele><time>2026-04-26T13:34:30.409Z</time></trkpt><trkpt lat="32.4195033" lon="-8.8072033"><ele>179.0</ele><time>2026-04-26T13:34:31.409Z</time></trkpt><trkpt lat="32.419665" lon="-8.8070933"><ele>179.0</ele><time>2026-04-26T13:34:32.409Z</time></trkpt><trkpt lat="32.4198267" lon="-8.806965"><ele>179.33333333333331</ele><time>2026-04-26T13:34:33.409Z</time></trkpt><trkpt lat="32.419995" lon="-8.8068417"><ele>179.66666666666666</ele><time>2026-04-26T13:34:34.409Z</time></trkpt><trkpt lat="32.4201583" lon="-8.8067133"><ele>180.0</ele><time>2026-04-26T13:34:35.409Z</time></trkpt><trkpt lat="32.4203183" lon="-8.8065833"><ele>180.0</ele><time>2026-04-26T13:34:36.41Z</time></trkpt><trkpt lat="32.42048" lon="-8.8064567"><ele>180.0</ele><time>2026-04-26T13:34:37.409Z</time></trkpt><trkpt lat="32.4206383" lon="-8.8063283"><ele>180.0</ele><time>2026-04-26T13:34:38.409Z</time></trkpt><trkpt lat="32.4208" lon="-8.8062033"><ele>180.33333333333334</ele><time>2026-04-26T13:34:39.409Z</time></trkpt><trkpt lat="32.420955" lon="-8.8060733"><ele>180.66666666666669</ele><time>2026-04-26T13:34:40.409Z</time></trkpt><trkpt lat="32.42111" lon="-8.8059417"><ele>181.0</ele><time>2026-04-26T13:34:41.409Z</time></trkpt><trkpt lat="32.4212617" lon="-8.80581"><ele>181.0</ele><time>2026-04-26T13:34:42.409Z</time></trkpt><trkpt lat="32.421415" lon="-8.80568"><ele>181.0</ele><time>2026-04-26T13:34:43.409Z</time></trkpt><trkpt lat="32.4215617" lon="-8.8055383"><ele>181.0</ele><time>2026-04-26T13:34:44.409Z</time></trkpt><trkpt lat="32.4217133" lon="-8.8053983"><ele>181.0</ele><time>2026-04-26T13:34:45.409Z</time></trkpt><trkpt lat="32.4218617" lon="-8.8052617"><ele>181.0</ele><time>2026-04-26T13:34:46.409Z</time></trkpt><trkpt lat="32.4220083" lon="-8.8051267"><ele>181.0</ele><time>2026-04-26T13:34:47.409Z</time></trkpt><trkpt lat="32.4221567" lon="-8.8049917"><ele>181.66666666666669</ele><time>2026-04-26T13:34:48.409Z</time></trkpt><trkpt lat="32.422305" lon="-8.8048617"><ele>182.33333333333334</ele><time>2026-04-26T13:34:49.409Z</time></trkpt><trkpt lat="32.4224583" lon="-8.804735"><ele>183.0</ele><time>2026-04-26T13:34:50.409Z</time></trkpt><trkpt lat="32.422615" lon="-8.8046117"><ele>183.0</ele><time>2026-04-26T13:34:51.409Z</time></trkpt><trkpt lat="32.42277" lon="-8.804475"><ele>183.0</ele><time>2026-04-26T13:34:52.409Z</time></trkpt><trkpt lat="32.4229267" lon="-8.80434"><ele>183.0</ele><time>2026-04-26T13:34:53.409Z</time></trkpt><trkpt lat="32.4230783" lon="-8.804205"><ele>182.33333333333334</ele><time>2026-04-26T13:34:54.409Z</time></trkpt><trkpt lat="32.4232267" lon="-8.8040667"><ele>181.66666666666669</ele><time>2026-04-26T13:34:55.409Z</time></trkpt><trkpt lat="32.4233717" lon="-8.80393"><ele>181.0</ele><time>2026-04-26T13:34:56.409Z</time></trkpt><trkpt lat="32.423525" lon="-8.8037967"><ele>181.0</ele><time>2026-04-26T13:34:57.409Z</time></trkpt><trkpt lat="32.4236817" lon="-8.8036683"><ele>181.0</ele><time>2026-04-26T13:34:58.409Z</time></trkpt><trkpt lat="32.423835" lon="-8.8035383"><ele>181.0</ele><time>2026-04-26T13:34:59.409Z</time></trkpt><trkpt lat="32.42399" lon="-8.8034033"><ele>181.33333333333334</ele><time>2026-04-26T13:35:00.409Z</time></trkpt><trkpt lat="32.4241517" lon="-8.8032683"><ele>181.66666666666666</ele><time>2026-04-26T13:35:01.409Z</time></trkpt><trkpt lat="32.4243133" lon="-8.8031333"><ele>182.0</ele><time>2026-04-26T13:35:02.409Z</time></trkpt><trkpt lat="32.424475" lon="-8.8029933"><ele>182.0</ele><time>2026-04-26T13:35:03.409Z</time></trkpt><trkpt lat="32.4246383" lon="-8.8028567"><ele>182.0</ele><time>2026-04-26T13:35:04.409Z</time></trkpt><trkpt lat="32.424805" lon="-8.8027217"><ele>182.0</ele><time>2026-04-26T13:35:05.409Z</time></trkpt><trkpt lat="32.4249733" lon="-8.8025867"><ele>181.33333333333331</ele><time>2026-04-26T13:35:06.409Z</time></trkpt><trkpt lat="32.42514" lon="-8.80246"><ele>180.66666666666666</ele><time>2026-04-26T13:35:07.409Z</time></trkpt><trkpt lat="32.4253083" lon="-8.802325"><ele>180.0</ele><time>2026-04-26T13:35:08.409Z</time></trkpt><trkpt lat="32.42548" lon="-8.802195"><ele>179.33333333333334</ele><time>2026-04-26T13:35:09.409Z</time></trkpt><trkpt lat="32.425655" lon="-8.8020617"><ele>178.66666666666669</ele><time>2026-04-26T13:35:10.409Z</time></trkpt><trkpt lat="32.4258333" lon="-8.8019333"><ele>178.0</ele><time>2026-04-26T13:35:11.409Z</time></trkpt><trkpt lat="32.42601" lon="-8.801805"><ele>178.0</ele><time>2026-04-26T13:35:12.409Z</time></trkpt><trkpt lat="32.4261867" lon="-8.8016817"><ele>178.0</ele><time>2026-04-26T13:35:13.409Z</time></trkpt><trkpt lat="32.42637" lon="-8.8015567"><ele>178.0</ele><time>2026-04-26T13:35:14.409Z</time></trkpt><trkpt lat="32.42655" lon="-8.8014417"><ele>177.66666666666669</ele><time>2026-04-26T13:35:15.409Z</time></trkpt><trkpt lat="32.426725" lon="-8.8013233"><ele>177.33333333333334</ele><time>2026-04-26T13:35:16.409Z</time></trkpt><trkpt lat="32.4269" lon="-8.8012083"><ele>177.0</ele><time>2026-04-26T13:35:17.409Z</time></trkpt><trkpt lat="32.4270817" lon="-8.8010983"><ele>176.66666666666666</ele><time>2026-04-26T13:35:18.409Z</time></trkpt><trkpt lat="32.4272567" lon="-8.8009833"><ele>176.33333333333331</ele><time>2026-04-26T13:35:19.409Z</time></trkpt><trkpt lat="32.42743" lon="-8.8008717"><ele>176.0</ele><time>2026-04-26T13:35:20.409Z</time></trkpt><trkpt lat="32.4276033" lon="-8.8007583"><ele>176.0</ele><time>2026-04-26T13:35:21.409Z</time></trkpt><trkpt lat="32.42778" lon="-8.800655"><ele>176.0</ele><time>2026-04-26T13:35:22.409Z</time></trkpt><trkpt lat="32.4279567" lon="-8.800555"><ele>176.0</ele><time>2026-04-26T13:35:23.41Z</time></trkpt><trkpt lat="32.42813" lon="-8.800455"><ele>175.66666666666666</ele><time>2026-04-26T13:35:24.409Z</time></trkpt><trkpt lat="32.428305" lon="-8.800345"><ele>175.33333333333334</ele><time>2026-04-26T13:35:25.409Z</time></trkpt><trkpt lat="32.4284817" lon="-8.8002417"><ele>175.0</ele><time>2026-04-26T13:35:26.409Z</time></trkpt><trkpt lat="32.4286617" lon="-8.8001417"><ele>175.33333333333334</ele><time>2026-04-26T13:35:27.409Z</time></trkpt><trkpt lat="32.4288367" lon="-8.80004"><ele>175.66666666666666</ele><time>2026-04-26T13:35:28.409Z</time></trkpt><trkpt lat="32.429015" lon="-8.7999417"><ele>176.0</ele><time>2026-04-26T13:35:29.409Z</time></trkpt><trkpt lat="32.429195" lon="-8.799835"><ele>176.0</ele><time>2026-04-26T13:35:30.409Z</time></trkpt><trkpt lat="32.4293783" lon="-8.7997367"><ele>176.0</ele><time>2026-04-26T13:35:31.409Z</time></trkpt><trkpt lat="32.429565" lon="-8.7996417"><ele>176.0</ele><time>2026-04-26T13:35:32.409Z</time></trkpt><trkpt lat="32.4297467" lon="-8.79954"><ele>175.66666666666666</ele><time>2026-04-26T13:35:33.409Z</time></trkpt><trkpt lat="32.4299283" lon="-8.7994433"><ele>175.33333333333334</ele><time>2026-04-26T13:35:34.409Z</time></trkpt><trkpt lat="32.43011" lon="-8.7993483"><ele>175.0</ele><time>2026-04-26T13:35:35.409Z</time></trkpt><trkpt lat="32.43029" lon="-8.7992567"><ele>176.33333333333334</ele><time>2026-04-26T13:35:36.409Z</time></trkpt><trkpt lat="32.430475" lon="-8.79916"><ele>177.66666666666666</ele><time>2026-04-26T13:35:37.409Z</time></trkpt><trkpt lat="32.4306583" lon="-8.7990717"><ele>179.0</ele><time>2026-04-26T13:35:38.409Z</time></trkpt><trkpt lat="32.4308433" lon="-8.7989817"><ele>179.0</ele><time>2026-04-26T13:35:39.409Z</time></trkpt><trkpt lat="32.4310283" lon="-8.7988917"><ele>179.0</ele><time>2026-04-26T13:35:40.409Z</time></trkpt><trkpt lat="32.4312133" lon="-8.798795"><ele>179.0</ele><time>2026-04-26T13:35:41.409Z</time></trkpt><trkpt lat="32.4313983" lon="-8.7986983"><ele>178.66666666666666</ele><time>2026-04-26T13:35:42.41Z</time></trkpt><trkpt lat="32.4315933" lon="-8.7985983"><ele>178.33333333333334</ele><time>2026-04-26T13:35:43.409Z</time></trkpt><trkpt lat="32.4317817" lon="-8.7985"><ele>178.0</ele><time>2026-04-26T13:35:44.409Z</time></trkpt><trkpt lat="32.4319733" lon="-8.7984"><ele>178.0</ele><time>2026-04-26T13:35:45.409Z</time></trkpt><trkpt lat="32.4321667" lon="-8.7983017"><ele>178.0</ele><time>2026-04-26T13:35:46.409Z</time></trkpt><trkpt lat="32.4323617" lon="-8.7982083"><ele>178.0</ele><time>2026-04-26T13:35:47.41Z</time></trkpt><trkpt lat="32.4325633" lon="-8.798115"><ele>178.0</ele><time>2026-04-26T13:35:48.409Z</time></trkpt><trkpt lat="32.4327633" lon="-8.7980283"><ele>178.0</ele><time>2026-04-26T13:35:49.409Z</time></trkpt><trkpt lat="32.432965" lon="-8.797935"><ele>178.0</ele><time>2026-04-26T13:35:50.409Z</time></trkpt><trkpt lat="32.4331733" lon="-8.797845"><ele>177.66666666666669</ele><time>2026-04-26T13:35:51.409Z</time></trkpt><trkpt lat="32.4333833" lon="-8.7977567"><ele>177.33333333333334</ele><time>2026-04-26T13:35:52.409Z</time></trkpt><trkpt lat="32.4335933" lon="-8.797665"><ele>177.0</ele><time>2026-04-26T13:35:53.409Z</time></trkpt><trkpt lat="32.4338033" lon="-8.7975767"><ele>177.0</ele><time>2026-04-26T13:35:54.409Z</time></trkpt><trkpt lat="32.4340083" lon="-8.7974817"><ele>177.0</ele><time>2026-04-26T13:35:55.409Z</time></trkpt><trkpt lat="32.4342133" lon="-8.7973883"><ele>177.0</ele><time>2026-04-26T13:35:56.409Z</time></trkpt><trkpt lat="32.4344183" lon="-8.797295"><ele>177.0</ele><time>2026-04-26T13:35:57.409Z</time></trkpt><trkpt lat="32.4346233" lon="-8.7972017"><ele>177.0</ele><time>2026-04-26T13:35:58.409Z</time></trkpt><trkpt lat="32.4348283" lon="-8.79711"><ele>177.0</ele><time>2026-04-26T13:35:59.409Z</time></trkpt><trkpt lat="32.4350367" lon="-8.7970183"><ele>176.66666666666666</ele><time>2026-04-26T13:36:00.409Z</time></trkpt><trkpt lat="32.435245" lon="-8.7969317"><ele>176.33333333333331</ele><time>2026-04-26T13:36:01.409Z</time></trkpt><trkpt lat="32.4354533" lon="-8.79684"><ele>176.0</ele><time>2026-04-26T13:36:02.409Z</time></trkpt><trkpt lat="32.435665" lon="-8.7967467"><ele>175.5</ele><time>2026-04-26T13:36:03.409Z</time></trkpt><trkpt lat="32.4358767" lon="-8.7966567"><ele>175.0</ele><time>2026-04-26T13:36:04.409Z</time></trkpt><trkpt lat="32.4360917" lon="-8.79656"><ele>175.5</ele><time>2026-04-26T13:36:05.409Z</time></trkpt><trkpt lat="32.4363033" lon="-8.7964583"><ele>176.0</ele><time>2026-04-26T13:36:06.409Z</time></trkpt><trkpt lat="32.43652" lon="-8.7963567"><ele>176.0</ele><time>2026-04-26T13:36:07.409Z</time></trkpt><trkpt lat="32.4367317" lon="-8.7962617"><ele>176.0</ele><time>2026-04-26T13:36:08.409Z</time></trkpt><trkpt lat="32.4369517" lon="-8.7961667"><ele>175.0</ele><time>2026-04-26T13:36:09.409Z</time></trkpt><trkpt lat="32.43717" lon="-8.79607"><ele>174.0</ele><time>2026-04-26T13:36:10.409Z</time></trkpt><trkpt lat="32.4373883" lon="-8.7959733"><ele>174.0</ele><time>2026-04-26T13:36:11.409Z</time></trkpt><trkpt lat="32.437615" lon="-8.7958733"><ele>174.0</ele><time>2026-04-26T13:36:12.409Z</time></trkpt><trkpt lat="32.4378333" lon="-8.7957733"><ele>173.66666666666666</ele><time>2026-04-26T13:36:13.409Z</time></trkpt><trkpt lat="32.4380367" lon="-8.7956733"><ele>173.33333333333331</ele><time>2026-04-26T13:36:14.409Z</time></trkpt><trkpt lat="32.4382467" lon="-8.79558"><ele>173.0</ele><time>2026-04-26T13:36:15.409Z</time></trkpt><trkpt lat="32.4384533" lon="-8.7954867"><ele>173.0</ele><time>2026-04-26T13:36:16.409Z</time></trkpt><trkpt lat="32.4386533" lon="-8.7953933"><ele>173.0</ele><time>2026-04-26T13:36:17.409Z</time></trkpt><trkpt lat="32.4388517" lon="-8.7953067"><ele>173.0</ele><time>2026-04-26T13:36:18.409Z</time></trkpt><trkpt lat="32.4390533" lon="-8.7952167"><ele>173.0</ele><time>2026-04-26T13:36:19.409Z</time></trkpt><trkpt lat="32.4392483" lon="-8.79513"><ele>173.0</ele><time>2026-04-26T13:36:20.409Z</time></trkpt><trkpt lat="32.4394483" lon="-8.7950417"><ele>173.0</ele><time>2026-04-26T13:36:21.409Z</time></trkpt><trkpt lat="32.4396517" lon="-8.7949533"><ele>173.66666666666666</ele><time>2026-04-26T13:36:22.409Z</time></trkpt><trkpt lat="32.4398467" lon="-8.7948633"><ele>174.33333333333334</ele><time>2026-04-26T13:36:23.409Z</time></trkpt><trkpt lat="32.440045" lon="-8.79477"><ele>175.0</ele><time>2026-04-26T13:36:24.409Z</time></trkpt><trkpt lat="32.4402433" lon="-8.79468"><ele>175.0</ele><time>2026-04-26T13:36:25.409Z</time></trkpt><trkpt lat="32.4404467" lon="-8.7945883"><ele>175.0</ele><time>2026-04-26T13:36:26.409Z</time></trkpt><trkpt lat="32.4406433" lon="-8.7944967"><ele>175.0</ele><time>2026-04-26T13:36:27.409Z</time></trkpt><trkpt lat="32.4408417" lon="-8.7944083"><ele>176.0</ele><time>2026-04-26T13:36:28.409Z</time></trkpt><trkpt lat="32.44104" lon="-8.7943233"><ele>177.0</ele><time>2026-04-26T13:36:29.409Z</time></trkpt><trkpt lat="32.4412467" lon="-8.7942467"><ele>178.0</ele><time>2026-04-26T13:36:30.409Z</time></trkpt><trkpt lat="32.44146" lon="-8.7941583"><ele>178.0</ele><time>2026-04-26T13:36:31.409Z</time></trkpt><trkpt lat="32.44167" lon="-8.7940717"><ele>178.0</ele><time>2026-04-26T13:36:32.409Z</time></trkpt><trkpt lat="32.4418717" lon="-8.7939917"><ele>178.0</ele><time>2026-04-26T13:36:33.409Z</time></trkpt><trkpt lat="32.4420667" lon="-8.7939133"><ele>177.33333333333334</ele><time>2026-04-26T13:36:34.409Z</time></trkpt><trkpt lat="32.4422533" lon="-8.79384"><ele>176.66666666666666</ele><time>2026-04-26T13:36:35.409Z</time></trkpt><trkpt lat="32.442435" lon="-8.793765"><ele>176.0</ele><time>2026-04-26T13:36:36.409Z</time></trkpt><trkpt lat="32.44263" lon="-8.7936933"><ele>176.0</ele><time>2026-04-26T13:36:37.409Z</time></trkpt><trkpt lat="32.4428283" lon="-8.7936183"><ele>176.0</ele><time>2026-04-26T13:36:38.409Z</time></trkpt><trkpt lat="32.4430367" lon="-8.7935383"><ele>176.0</ele><time>2026-04-26T13:36:39.409Z</time></trkpt><trkpt lat="32.44324" lon="-8.793455"><ele>175.0</ele><time>2026-04-26T13:36:40.409Z</time></trkpt><trkpt lat="32.4434517" lon="-8.793375"><ele>174.0</ele><time>2026-04-26T13:36:41.409Z</time></trkpt><trkpt lat="32.4436633" lon="-8.7933017"><ele>173.0</ele><time>2026-04-26T13:36:42.409Z</time></trkpt><trkpt lat="32.443875" lon="-8.79323"><ele>173.0</ele><time>2026-04-26T13:36:43.409Z</time></trkpt><trkpt lat="32.4440883" lon="-8.7931617"><ele>173.0</ele><time>2026-04-26T13:36:44.409Z</time></trkpt><trkpt lat="32.44429" lon="-8.7930917"><ele>173.0</ele><time>2026-04-26T13:36:45.409Z</time></trkpt><trkpt lat="32.444485" lon="-8.7930283"><ele>173.0</ele><time>2026-04-26T13:36:46.409Z</time></trkpt><trkpt lat="32.4446867" lon="-8.7929683"><ele>173.0</ele><time>2026-04-26T13:36:47.409Z</time></trkpt><trkpt lat="32.4449" lon="-8.792915"><ele>173.0</ele><time>2026-04-26T13:36:48.409Z</time></trkpt><trkpt lat="32.4451167" lon="-8.7928733"><ele>173.0</ele><time>2026-04-26T13:36:49.409Z</time></trkpt><trkpt lat="32.44533" lon="-8.79284"><ele>173.0</ele><time>2026-04-26T13:36:50.409Z</time></trkpt><trkpt lat="32.4455433" lon="-8.7928083"><ele>173.0</ele><time>2026-04-26T13:36:51.41Z</time></trkpt><trkpt lat="32.44575" lon="-8.7927833"><ele>171.66666666666666</ele><time>2026-04-26T13:36:52.409Z</time></trkpt><trkpt lat="32.445955" lon="-8.7927633"><ele>170.33333333333334</ele><time>2026-04-26T13:36:53.409Z</time></trkpt><trkpt lat="32.4461567" lon="-8.7927467"><ele>169.0</ele><time>2026-04-26T13:36:54.409Z</time></trkpt><trkpt lat="32.44636" lon="-8.7927417"><ele>169.0</ele><time>2026-04-26T13:36:55.409Z</time></trkpt><trkpt lat="32.4465633" lon="-8.792745"><ele>169.0</ele><time>2026-04-26T13:36:56.409Z</time></trkpt><trkpt lat="32.4467717" lon="-8.79275"><ele>169.0</ele><time>2026-04-26T13:36:57.409Z</time></trkpt><trkpt lat="32.44698" lon="-8.7927517"><ele>169.0</ele><time>2026-04-26T13:36:58.409Z</time></trkpt><trkpt lat="32.4471967" lon="-8.7927567"><ele>169.0</ele><time>2026-04-26T13:36:59.409Z</time></trkpt><trkpt lat="32.4474133" lon="-8.7927567"><ele>169.0</ele><time>2026-04-26T13:37:00.409Z</time></trkpt><trkpt lat="32.4476367" lon="-8.792755"><ele>169.0</ele><time>2026-04-26T13:37:01.409Z</time></trkpt><trkpt lat="32.4478617" lon="-8.7927583"><ele>169.0</ele><time>2026-04-26T13:37:02.408Z</time></trkpt><trkpt lat="32.44809" lon="-8.7927617"><ele>168.5</ele><time>2026-04-26T13:37:03.408Z</time></trkpt><trkpt lat="32.4483167" lon="-8.792765"><ele>168.0</ele><time>2026-04-26T13:37:04.408Z</time></trkpt><trkpt lat="32.4485467" lon="-8.7927617"><ele>168.0</ele><time>2026-04-26T13:37:05.408Z</time></trkpt><trkpt lat="32.4487817" lon="-8.79277"><ele>168.0</ele><time>2026-04-26T13:37:06.408Z</time></trkpt><trkpt lat="32.4490167" lon="-8.79277"><ele>167.66666666666666</ele><time>2026-04-26T13:37:07.408Z</time></trkpt><trkpt lat="32.44924" lon="-8.792765"><ele>167.33333333333331</ele><time>2026-04-26T13:37:08.408Z</time></trkpt><trkpt lat="32.4494583" lon="-8.79275"><ele>167.0</ele><time>2026-04-26T13:37:09.408Z</time></trkpt><trkpt lat="32.4496717" lon="-8.7927317"><ele>166.0</ele><time>2026-04-26T13:37:10.408Z</time></trkpt><trkpt lat="32.4498833" lon="-8.79271"><ele>165.0</ele><time>2026-04-26T13:37:11.408Z</time></trkpt><trkpt lat="32.4500933" lon="-8.79268"><ele>164.0</ele><time>2026-04-26T13:37:12.408Z</time></trkpt><trkpt lat="32.450315" lon="-8.7926517"><ele>164.0</ele><time>2026-04-26T13:37:13.408Z</time></trkpt><trkpt lat="32.4505383" lon="-8.7926133"><ele>164.0</ele><time>2026-04-26T13:37:14.408Z</time></trkpt><trkpt lat="32.4507683" lon="-8.7925567"><ele>164.0</ele><time>2026-04-26T13:37:15.408Z</time></trkpt><trkpt lat="32.4509933" lon="-8.7924933"><ele>164.0</ele><time>2026-04-26T13:37:16.409Z</time></trkpt><trkpt lat="32.45121" lon="-8.7924283"><ele>163.66666666666666</ele><time>2026-04-26T13:37:17.408Z</time></trkpt><trkpt lat="32.4514183" lon="-8.7923633"><ele>163.33333333333334</ele><time>2026-04-26T13:37:18.408Z</time></trkpt><trkpt lat="32.451615" lon="-8.7923067"><ele>163.0</ele><time>2026-04-26T13:37:19.408Z</time></trkpt><trkpt lat="32.4518" lon="-8.7922483"><ele>163.0</ele><time>2026-04-26T13:37:20.408Z</time></trkpt><trkpt lat="32.4519867" lon="-8.792195"><ele>163.0</ele><time>2026-04-26T13:37:21.408Z</time></trkpt><trkpt lat="32.4521667" lon="-8.7921333"><ele>163.0</ele><time>2026-04-26T13:37:22.408Z</time></trkpt><trkpt lat="32.4523517" lon="-8.792075"><ele>163.33333333333334</ele><time>2026-04-26T13:37:23.408Z</time></trkpt><trkpt lat="32.4525417" lon="-8.79201"><ele>163.66666666666666</ele><time>2026-04-26T13:37:24.408Z</time></trkpt><trkpt lat="32.45273" lon="-8.7919483"><ele>164.0</ele><time>2026-04-26T13:37:25.408Z</time></trkpt><trkpt lat="32.4529183" lon="-8.7918883"><ele>164.0</ele><time>2026-04-26T13:37:26.408Z</time></trkpt><trkpt lat="32.4531133" lon="-8.79183"><ele>164.0</ele><time>2026-04-26T13:37:27.408Z</time></trkpt><trkpt lat="32.45331" lon="-8.791775"><ele>164.0</ele><time>2026-04-26T13:37:28.408Z</time></trkpt><trkpt lat="32.4534967" lon="-8.7917217"><ele>164.0</ele><time>2026-04-26T13:37:29.408Z</time></trkpt><trkpt lat="32.4536867" lon="-8.791665"><ele>164.0</ele><time>2026-04-26T13:37:30.408Z</time></trkpt><trkpt lat="32.45387" lon="-8.791605"><ele>164.0</ele><time>2026-04-26T13:37:31.408Z</time></trkpt><trkpt lat="32.4540667" lon="-8.7915433"><ele>164.0</ele><time>2026-04-26T13:37:32.408Z</time></trkpt><trkpt lat="32.45426" lon="-8.791475"><ele>164.0</ele><time>2026-04-26T13:37:33.409Z</time></trkpt><trkpt lat="32.4544617" lon="-8.7914"><ele>164.0</ele><time>2026-04-26T13:37:34.408Z</time></trkpt><trkpt lat="32.45466" lon="-8.7913283"><ele>164.0</ele><time>2026-04-26T13:37:35.408Z</time></trkpt><trkpt lat="32.4548483" lon="-8.7912617"><ele>164.0</ele><time>2026-04-26T13:37:36.408Z</time></trkpt><trkpt lat="32.4550217" lon="-8.7912083"><ele>164.0</ele><time>2026-04-26T13:37:37.408Z</time></trkpt><trkpt lat="32.4551917" lon="-8.7911517"><ele>164.0</ele><time>2026-04-26T13:37:38.408Z</time></trkpt><trkpt lat="32.455355" lon="-8.791095"><ele>164.0</ele><time>2026-04-26T13:37:39.408Z</time></trkpt><trkpt lat="32.4555167" lon="-8.7910333"><ele>164.0</ele><time>2026-04-26T13:37:40.408Z</time></trkpt><trkpt lat="32.4556717" lon="-8.79098"><ele>163.33333333333331</ele><time>2026-04-26T13:37:41.408Z</time></trkpt><trkpt lat="32.4558217" lon="-8.7909183"><ele>162.66666666666666</ele><time>2026-04-26T13:37:42.408Z</time></trkpt><trkpt lat="32.45597" lon="-8.7908517"><ele>162.0</ele><time>2026-04-26T13:37:43.408Z</time></trkpt><trkpt lat="32.4561167" lon="-8.7907817"><ele>162.0</ele><time>2026-04-26T13:37:44.408Z</time></trkpt><trkpt lat="32.4562667" lon="-8.7907117"><ele>162.0</ele><time>2026-04-26T13:37:45.408Z</time></trkpt><trkpt lat="32.45641" lon="-8.790635"><ele>162.0</ele><time>2026-04-26T13:37:46.408Z</time></trkpt><trkpt lat="32.4565617" lon="-8.790555"><ele>163.0</ele><time>2026-04-26T13:37:47.408Z</time></trkpt><trkpt lat="32.45672" lon="-8.7904767"><ele>164.0</ele><time>2026-04-26T13:37:48.408Z</time></trkpt><trkpt lat="32.45688" lon="-8.790395"><ele>165.0</ele><time>2026-04-26T13:37:49.408Z</time></trkpt><trkpt lat="32.4570433" lon="-8.7903017"><ele>164.66666666666666</ele><time>2026-04-26T13:37:50.408Z</time></trkpt><trkpt lat="32.4572167" lon="-8.7902"><ele>164.33333333333331</ele><time>2026-04-26T13:37:51.408Z</time></trkpt><trkpt lat="32.4573883" lon="-8.7900883"><ele>164.0</ele><time>2026-04-26T13:37:52.408Z</time></trkpt><trkpt lat="32.457565" lon="-8.7899717"><ele>164.0</ele><time>2026-04-26T13:37:53.408Z</time></trkpt><trkpt lat="32.4577383" lon="-8.789855"><ele>164.0</ele><time>2026-04-26T13:37:54.408Z</time></trkpt><trkpt lat="32.457905" lon="-8.7897417"><ele>164.0</ele><time>2026-04-26T13:37:55.408Z</time></trkpt><trkpt lat="32.45806" lon="-8.7896233"><ele>164.0</ele><time>2026-04-26T13:37:56.408Z</time></trkpt><trkpt lat="32.4582217" lon="-8.7894983"><ele>164.0</ele><time>2026-04-26T13:37:57.408Z</time></trkpt><trkpt lat="32.458385" lon="-8.7893583"><ele>164.0</ele><time>2026-04-26T13:37:58.408Z</time></trkpt><trkpt lat="32.4585467" lon="-8.789205"><ele>164.0</ele><time>2026-04-26T13:37:59.408Z</time></trkpt><trkpt lat="32.4587017" lon="-8.7890317"><ele>164.0</ele><time>2026-04-26T13:38:00.408Z</time></trkpt><trkpt lat="32.4588533" lon="-8.788865"><ele>164.0</ele><time>2026-04-26T13:38:01.408Z</time></trkpt><trkpt lat="32.4589983" lon="-8.7887067"><ele>164.0</ele><time>2026-04-26T13:38:02.408Z</time></trkpt><trkpt lat="32.45914" lon="-8.78854"><ele>164.0</ele><time>2026-04-26T13:38:03.409Z</time></trkpt><trkpt lat="32.459275" lon="-8.7883717"><ele>164.0</ele><time>2026-04-26T13:38:04.408Z</time></trkpt><trkpt lat="32.459405" lon="-8.7881983"><ele>164.33333333333331</ele><time>2026-04-26T13:38:05.408Z</time></trkpt><trkpt lat="32.45953" lon="-8.788035"><ele>164.66666666666666</ele><time>2026-04-26T13:38:06.408Z</time></trkpt><trkpt lat="32.4596567" lon="-8.7878733"><ele>165.0</ele><time>2026-04-26T13:38:07.408Z</time></trkpt><trkpt lat="32.4597767" lon="-8.7877183"><ele>165.33333333333334</ele><time>2026-04-26T13:38:08.408Z</time></trkpt><trkpt lat="32.4598967" lon="-8.7875633"><ele>165.66666666666669</ele><time>2026-04-26T13:38:09.408Z</time></trkpt><trkpt lat="32.4600217" lon="-8.7874017"><ele>166.0</ele><time>2026-04-26T13:38:10.408Z</time></trkpt><trkpt lat="32.460145" lon="-8.78724"><ele>166.0</ele><time>2026-04-26T13:38:11.408Z</time></trkpt><trkpt lat="32.46027" lon="-8.78707"><ele>166.0</ele><time>2026-04-26T13:38:12.408Z</time></trkpt><trkpt lat="32.4604" lon="-8.786905"><ele>166.0</ele><time>2026-04-26T13:38:13.408Z</time></trkpt><trkpt lat="32.4605267" lon="-8.7867367"><ele>166.66666666666669</ele><time>2026-04-26T13:38:14.408Z</time></trkpt><trkpt lat="32.460655" lon="-8.786565"><ele>167.33333333333334</ele><time>2026-04-26T13:38:15.408Z</time></trkpt><trkpt lat="32.460785" lon="-8.7863967"><ele>168.0</ele><time>2026-04-26T13:38:16.408Z</time></trkpt><trkpt lat="32.4609117" lon="-8.7862317"><ele>168.0</ele><time>2026-04-26T13:38:17.408Z</time></trkpt><trkpt lat="32.4610367" lon="-8.7860733"><ele>168.0</ele><time>2026-04-26T13:38:18.408Z</time></trkpt><trkpt lat="32.46116" lon="-8.7859033"><ele>168.0</ele><time>2026-04-26T13:38:19.408Z</time></trkpt><trkpt lat="32.4612917" lon="-8.7857367"><ele>169.0</ele><time>2026-04-26T13:38:20.408Z</time></trkpt><trkpt lat="32.46142" lon="-8.7855683"><ele>170.0</ele><time>2026-04-26T13:38:21.408Z</time></trkpt><trkpt lat="32.4615467" lon="-8.7853967"><ele>171.0</ele><time>2026-04-26T13:38:22.408Z</time></trkpt><trkpt lat="32.461675" lon="-8.7852233"><ele>170.66666666666666</ele><time>2026-04-26T13:38:23.408Z</time></trkpt><trkpt lat="32.4618083" lon="-8.7850433"><ele>170.33333333333331</ele><time>2026-04-26T13:38:24.408Z</time></trkpt><trkpt lat="32.4619433" lon="-8.7848633"><ele>170.0</ele><time>2026-04-26T13:38:25.408Z</time></trkpt><trkpt lat="32.4620833" lon="-8.7846783"><ele>170.66666666666666</ele><time>2026-04-26T13:38:26.408Z</time></trkpt><trkpt lat="32.462225" lon="-8.7844933"><ele>171.33333333333334</ele><time>2026-04-26T13:38:27.408Z</time></trkpt><trkpt lat="32.462365" lon="-8.7843067"><ele>172.0</ele><time>2026-04-26T13:38:28.408Z</time></trkpt><trkpt lat="32.4625067" lon="-8.7841167"><ele>172.0</ele><time>2026-04-26T13:38:29.408Z</time></trkpt><trkpt lat="32.46265" lon="-8.783925"><ele>172.0</ele><time>2026-04-26T13:38:30.408Z</time></trkpt><trkpt lat="32.4627933" lon="-8.7837283"><ele>172.0</ele><time>2026-04-26T13:38:31.408Z</time></trkpt><trkpt lat="32.4629333" lon="-8.7835367"><ele>171.66666666666669</ele><time>2026-04-26T13:38:32.408Z</time></trkpt><trkpt lat="32.4630683" lon="-8.7833267"><ele>171.33333333333334</ele><time>2026-04-26T13:38:33.408Z</time></trkpt><trkpt lat="32.4632" lon="-8.78312"><ele>171.0</ele><time>2026-04-26T13:38:34.408Z</time></trkpt><trkpt lat="32.4633217" lon="-8.782905"><ele>171.0</ele><time>2026-04-26T13:38:35.409Z</time></trkpt><trkpt lat="32.4634383" lon="-8.78269"><ele>171.0</ele><time>2026-04-26T13:38:36.409Z</time></trkpt><trkpt lat="32.46355" lon="-8.7824667"><ele>171.0</ele><time>2026-04-26T13:38:37.409Z</time></trkpt><trkpt lat="32.4636583" lon="-8.7822417"><ele>170.66666666666666</ele><time>2026-04-26T13:38:38.408Z</time></trkpt><trkpt lat="32.463765" lon="-8.78202"><ele>170.33333333333331</ele><time>2026-04-26T13:38:39.408Z</time></trkpt><trkpt lat="32.4638667" lon="-8.78179"><ele>170.0</ele><time>2026-04-26T13:38:40.408Z</time></trkpt><trkpt lat="32.46397" lon="-8.7815683"><ele>170.66666666666666</ele><time>2026-04-26T13:38:41.408Z</time></trkpt><trkpt lat="32.46408" lon="-8.7813467"><ele>171.33333333333334</ele><time>2026-04-26T13:38:42.408Z</time></trkpt><trkpt lat="32.4641867" lon="-8.7811183"><ele>172.0</ele><time>2026-04-26T13:38:43.408Z</time></trkpt><trkpt lat="32.4642883" lon="-8.78089"><ele>172.0</ele><time>2026-04-26T13:38:44.408Z</time></trkpt><trkpt lat="32.4643967" lon="-8.7806667"><ele>172.0</ele><time>2026-04-26T13:38:45.408Z</time></trkpt><trkpt lat="32.464505" lon="-8.7804383"><ele>172.0</ele><time>2026-04-26T13:38:46.408Z</time></trkpt><trkpt lat="32.4646117" lon="-8.780215"><ele>172.66666666666669</ele><time>2026-04-26T13:38:47.408Z</time></trkpt><trkpt lat="32.4647233" lon="-8.7799933"><ele>173.33333333333334</ele><time>2026-04-26T13:38:48.408Z</time></trkpt><trkpt lat="32.4648317" lon="-8.7797733"><ele>174.0</ele><time>2026-04-26T13:38:49.408Z</time></trkpt><trkpt lat="32.464945" lon="-8.7795567"><ele>174.0</ele><time>2026-04-26T13:38:50.408Z</time></trkpt><trkpt lat="32.4650617" lon="-8.7793483"><ele>174.0</ele><time>2026-04-26T13:38:51.408Z</time></trkpt><trkpt lat="32.4651867" lon="-8.7791483"><ele>174.0</ele><time>2026-04-26T13:38:52.408Z</time></trkpt><trkpt lat="32.465315" lon="-8.7789467"><ele>174.0</ele><time>2026-04-26T13:38:53.408Z</time></trkpt><trkpt lat="32.4654483" lon="-8.7787467"><ele>174.0</ele><time>2026-04-26T13:38:54.408Z</time></trkpt><trkpt lat="32.4655883" lon="-8.7785533"><ele>174.0</ele><time>2026-04-26T13:38:55.408Z</time></trkpt><trkpt lat="32.4657317" lon="-8.77835"><ele>174.5</ele><time>2026-04-26T13:38:56.408Z</time></trkpt><trkpt lat="32.4658733" lon="-8.77814"><ele>175.0</ele><time>2026-04-26T13:38:57.408Z</time></trkpt><trkpt lat="32.4660183" lon="-8.7779333"><ele>175.0</ele><time>2026-04-26T13:38:58.408Z</time></trkpt><trkpt lat="32.4661567" lon="-8.7777317"><ele>175.0</ele><time>2026-04-26T13:38:59.408Z</time></trkpt><trkpt lat="32.4662933" lon="-8.777535"><ele>175.0</ele><time>2026-04-26T13:39:00.408Z</time></trkpt><trkpt lat="32.4664317" lon="-8.7773417"><ele>174.66666666666669</ele><time>2026-04-26T13:39:01.408Z</time></trkpt><trkpt lat="32.466575" lon="-8.7771467"><ele>174.33333333333334</ele><time>2026-04-26T13:39:02.408Z</time></trkpt><trkpt lat="32.4667167" lon="-8.776945"><ele>174.0</ele><time>2026-04-26T13:39:03.408Z</time></trkpt><trkpt lat="32.4668633" lon="-8.776735"><ele>173.5</ele><time>2026-04-26T13:39:04.408Z</time></trkpt><trkpt lat="32.4670133" lon="-8.7765267"><ele>173.0</ele><time>2026-04-26T13:39:05.408Z</time></trkpt><trkpt lat="32.4671633" lon="-8.776315"><ele>172.66666666666666</ele><time>2026-04-26T13:39:06.408Z</time></trkpt><trkpt lat="32.46731" lon="-8.7761117"><ele>172.33333333333334</ele><time>2026-04-26T13:39:07.408Z</time></trkpt><trkpt lat="32.4674467" lon="-8.7759167"><ele>172.0</ele><time>2026-04-26T13:39:08.408Z</time></trkpt><trkpt lat="32.4675817" lon="-8.7757317"><ele>172.0</ele><time>2026-04-26T13:39:09.408Z</time></trkpt><trkpt lat="32.4677233" lon="-8.7755433"><ele>172.0</ele><time>2026-04-26T13:39:10.408Z</time></trkpt><trkpt lat="32.4678633" lon="-8.7753517"><ele>172.0</ele><time>2026-04-26T13:39:11.409Z</time></trkpt><trkpt lat="32.4680067" lon="-8.7751633"><ele>172.33333333333334</ele><time>2026-04-26T13:39:12.408Z</time></trkpt><trkpt lat="32.4681533" lon="-8.7749817"><ele>172.66666666666666</ele><time>2026-04-26T13:39:13.408Z</time></trkpt><trkpt lat="32.4683133" lon="-8.7748167"><ele>173.0</ele><time>2026-04-26T13:39:14.408Z</time></trkpt><trkpt lat="32.46848" lon="-8.77465"><ele>173.0</ele><time>2026-04-26T13:39:15.408Z</time></trkpt><trkpt lat="32.468655" lon="-8.7744917"><ele>173.0</ele><time>2026-04-26T13:39:16.409Z</time></trkpt><trkpt lat="32.4688417" lon="-8.7743367"><ele>173.0</ele><time>2026-04-26T13:39:17.408Z</time></trkpt><trkpt lat="32.469035" lon="-8.77419"><ele>174.0</ele><time>2026-04-26T13:39:18.408Z</time></trkpt><trkpt lat="32.4692317" lon="-8.7740517"><ele>175.0</ele><time>2026-04-26T13:39:19.408Z</time></trkpt><trkpt lat="32.4694333" lon="-8.7739267"><ele>174.5</ele><time>2026-04-26T13:39:20.408Z</time></trkpt><trkpt lat="32.46964" lon="-8.7738083"><ele>174.0</ele><time>2026-04-26T13:39:21.408Z</time></trkpt><trkpt lat="32.469845" lon="-8.7737017"><ele>174.0</ele><time>2026-04-26T13:39:22.408Z</time></trkpt><trkpt lat="32.4700517" lon="-8.773605"><ele>174.0</ele><time>2026-04-26T13:39:23.408Z</time></trkpt><trkpt lat="32.4702533" lon="-8.7735117"><ele>174.0</ele><time>2026-04-26T13:39:24.408Z</time></trkpt><trkpt lat="32.4704567" lon="-8.7734217"><ele>174.66666666666666</ele><time>2026-04-26T13:39:25.408Z</time></trkpt><trkpt lat="32.4706617" lon="-8.7733333"><ele>175.33333333333331</ele><time>2026-04-26T13:39:26.408Z</time></trkpt><trkpt lat="32.4708717" lon="-8.7732417"><ele>176.0</ele><time>2026-04-26T13:39:27.408Z</time></trkpt><trkpt lat="32.4710833" lon="-8.77315"><ele>175.0</ele><time>2026-04-26T13:39:28.408Z</time></trkpt><trkpt lat="32.4712933" lon="-8.773055"><ele>174.0</ele><time>2026-04-26T13:39:29.408Z</time></trkpt><trkpt lat="32.4715033" lon="-8.7729667"><ele>173.0</ele><time>2026-04-26T13:39:30.408Z</time></trkpt><trkpt lat="32.471705" lon="-8.772875"><ele>173.0</ele><time>2026-04-26T13:39:31.408Z</time></trkpt><trkpt lat="32.4719083" lon="-8.7727867"><ele>173.0</ele><time>2026-04-26T13:39:32.408Z</time></trkpt><trkpt lat="32.4721133" lon="-8.7727"><ele>173.0</ele><time>2026-04-26T13:39:33.408Z</time></trkpt><trkpt lat="32.472315" lon="-8.7726083"><ele>173.33333333333331</ele><time>2026-04-26T13:39:34.408Z</time></trkpt><trkpt lat="32.4725167" lon="-8.77252"><ele>173.66666666666666</ele><time>2026-04-26T13:39:35.408Z</time></trkpt><trkpt lat="32.4727217" lon="-8.7724333"><ele>174.0</ele><time>2026-04-26T13:39:36.408Z</time></trkpt><trkpt lat="32.47293" lon="-8.77234"><ele>173.66666666666666</ele><time>2026-04-26T13:39:37.408Z</time></trkpt><trkpt lat="32.47314" lon="-8.77225"><ele>173.33333333333331</ele><time>2026-04-26T13:39:38.408Z</time></trkpt><trkpt lat="32.4733517" lon="-8.7721633"><ele>173.0</ele><time>2026-04-26T13:39:39.408Z</time></trkpt><trkpt lat="32.473555" lon="-8.7720767"><ele>173.0</ele><time>2026-04-26T13:39:40.408Z</time></trkpt><trkpt lat="32.473755" lon="-8.7719883"><ele>173.0</ele><time>2026-04-26T13:39:41.409Z</time></trkpt><trkpt lat="32.4739583" lon="-8.7719"><ele>173.0</ele><time>2026-04-26T13:39:42.408Z</time></trkpt><trkpt lat="32.474165" lon="-8.7718117"><ele>173.0</ele><time>2026-04-26T13:39:43.408Z</time></trkpt><trkpt lat="32.4743733" lon="-8.771725"><ele>173.0</ele><time>2026-04-26T13:39:44.408Z</time></trkpt><trkpt lat="32.4745767" lon="-8.7716317"><ele>173.0</ele><time>2026-04-26T13:39:45.408Z</time></trkpt><trkpt lat="32.47478" lon="-8.77155"><ele>173.0</ele><time>2026-04-26T13:39:46.408Z</time></trkpt><trkpt lat="32.47498" lon="-8.7714617"><ele>173.0</ele><time>2026-04-26T13:39:47.408Z</time></trkpt><trkpt lat="32.4751817" lon="-8.7713783"><ele>173.0</ele><time>2026-04-26T13:39:48.408Z</time></trkpt><trkpt lat="32.4753733" lon="-8.7712933"><ele>173.0</ele><time>2026-04-26T13:39:49.408Z</time></trkpt><trkpt lat="32.4755683" lon="-8.7712033"><ele>173.0</ele><time>2026-04-26T13:39:50.408Z</time></trkpt><trkpt lat="32.475765" lon="-8.7711233"><ele>173.0</ele><time>2026-04-26T13:39:51.408Z</time></trkpt><trkpt lat="32.475965" lon="-8.7710417"><ele>173.33333333333331</ele><time>2026-04-26T13:39:52.409Z</time></trkpt><trkpt lat="32.4761667" lon="-8.7709567"><ele>173.66666666666666</ele><time>2026-04-26T13:39:53.408Z</time></trkpt><trkpt lat="32.4763667" lon="-8.77087"><ele>174.0</ele><time>2026-04-26T13:39:54.408Z</time></trkpt><trkpt lat="32.4765733" lon="-8.7707817"><ele>174.0</ele><time>2026-04-26T13:39:55.408Z</time></trkpt><trkpt lat="32.4767667" lon="-8.770695"><ele>174.0</ele><time>2026-04-26T13:39:56.408Z</time></trkpt><trkpt lat="32.4769617" lon="-8.7706067"><ele>174.0</ele><time>2026-04-26T13:39:57.408Z</time></trkpt><trkpt lat="32.4771617" lon="-8.770525"><ele>173.33333333333334</ele><time>2026-04-26T13:39:58.408Z</time></trkpt><trkpt lat="32.477365" lon="-8.770445"><ele>172.66666666666669</ele><time>2026-04-26T13:39:59.408Z</time></trkpt><trkpt lat="32.4775717" lon="-8.7703683"><ele>172.0</ele><time>2026-04-26T13:40:00.408Z</time></trkpt><trkpt lat="32.4777833" lon="-8.770285"><ele>172.5</ele><time>2026-04-26T13:40:01.408Z</time></trkpt><trkpt lat="32.4779967" lon="-8.7702033"><ele>173.0</ele><time>2026-04-26T13:40:02.408Z</time></trkpt><trkpt lat="32.4782133" lon="-8.7701217"><ele>173.0</ele><time>2026-04-26T13:40:03.408Z</time></trkpt><trkpt lat="32.4784333" lon="-8.7700417"><ele>173.0</ele><time>2026-04-26T13:40:04.408Z</time></trkpt><trkpt lat="32.4786517" lon="-8.769965"><ele>172.33333333333331</ele><time>2026-04-26T13:40:05.408Z</time></trkpt><trkpt lat="32.4788617" lon="-8.7698833"><ele>171.66666666666666</ele><time>2026-04-26T13:40:06.408Z</time></trkpt><trkpt lat="32.47906" lon="-8.76981"><ele>171.0</ele><time>2026-04-26T13:40:07.408Z</time></trkpt><trkpt lat="32.4792567" lon="-8.769735"><ele>171.0</ele><time>2026-04-26T13:40:08.408Z</time></trkpt><trkpt lat="32.479445" lon="-8.7696633"><ele>171.0</ele><time>2026-04-26T13:40:09.408Z</time></trkpt><trkpt lat="32.479635" lon="-8.76959"><ele>171.0</ele><time>2026-04-26T13:40:10.408Z</time></trkpt><trkpt lat="32.4798233" lon="-8.76952"><ele>171.33333333333334</ele><time>2026-04-26T13:40:11.408Z</time></trkpt><trkpt lat="32.480015" lon="-8.7694467"><ele>171.66666666666669</ele><time>2026-04-26T13:40:12.408Z</time></trkpt><trkpt lat="32.4802067" lon="-8.7693767"><ele>172.0</ele><time>2026-04-26T13:40:13.408Z</time></trkpt><trkpt lat="32.4804017" lon="-8.7693067"><ele>172.33333333333334</ele><time>2026-04-26T13:40:14.408Z</time></trkpt><trkpt lat="32.4805983" lon="-8.769235"><ele>172.66666666666666</ele><time>2026-04-26T13:40:15.408Z</time></trkpt><trkpt lat="32.480795" lon="-8.7691667"><ele>173.0</ele><time>2026-04-26T13:40:16.408Z</time></trkpt><trkpt lat="32.48099" lon="-8.769095"><ele>173.0</ele><time>2026-04-26T13:40:17.408Z</time></trkpt><trkpt lat="32.48119" lon="-8.7690233"><ele>173.0</ele><time>2026-04-26T13:40:18.408Z</time></trkpt><trkpt lat="32.4813933" lon="-8.7689467"><ele>173.0</ele><time>2026-04-26T13:40:19.408Z</time></trkpt><trkpt lat="32.4815933" lon="-8.768875"><ele>172.66666666666666</ele><time>2026-04-26T13:40:20.408Z</time></trkpt><trkpt lat="32.4817933" lon="-8.7688017"><ele>172.33333333333334</ele><time>2026-04-26T13:40:21.408Z</time></trkpt><trkpt lat="32.4819933" lon="-8.7687283"><ele>172.0</ele><time>2026-04-26T13:40:22.408Z</time></trkpt><trkpt lat="32.4821933" lon="-8.768655"><ele>172.0</ele><time>2026-04-26T13:40:23.408Z</time></trkpt><trkpt lat="32.482395" lon="-8.768585"><ele>172.0</ele><time>2026-04-26T13:40:24.408Z</time></trkpt><trkpt lat="32.4825967" lon="-8.7685117"><ele>172.0</ele><time>2026-04-26T13:40:25.408Z</time></trkpt><trkpt lat="32.4828" lon="-8.7684383"><ele>172.33333333333334</ele><time>2026-04-26T13:40:26.408Z</time></trkpt><trkpt lat="32.4830033" lon="-8.768365"><ele>172.66666666666666</ele><time>2026-04-26T13:40:27.408Z</time></trkpt><trkpt lat="32.483215" lon="-8.7682817"><ele>173.0</ele><time>2026-04-26T13:40:28.408Z</time></trkpt><trkpt lat="32.4834167" lon="-8.7682117"><ele>173.0</ele><time>2026-04-26T13:40:29.408Z</time></trkpt><trkpt lat="32.4836167" lon="-8.7681383"><ele>173.0</ele><time>2026-04-26T13:40:30.408Z</time></trkpt><trkpt lat="32.4838133" lon="-8.7680633"><ele>173.0</ele><time>2026-04-26T13:40:31.408Z</time></trkpt><trkpt lat="32.4840117" lon="-8.767985"><ele>172.66666666666666</ele><time>2026-04-26T13:40:32.409Z</time></trkpt><trkpt lat="32.4842167" lon="-8.7679017"><ele>172.33333333333334</ele><time>2026-04-26T13:40:33.408Z</time></trkpt><trkpt lat="32.484415" lon="-8.7678167"><ele>172.0</ele><time>2026-04-26T13:40:34.408Z</time></trkpt><trkpt lat="32.484615" lon="-8.76772"><ele>172.0</ele><time>2026-04-26T13:40:35.408Z</time></trkpt><trkpt lat="32.4848133" lon="-8.7676283"><ele>172.0</ele><time>2026-04-26T13:40:36.408Z</time></trkpt><trkpt lat="32.4850133" lon="-8.7675283"><ele>172.0</ele><time>2026-04-26T13:40:37.408Z</time></trkpt><trkpt lat="32.48521" lon="-8.7674267"><ele>172.0</ele><time>2026-04-26T13:40:38.409Z</time></trkpt><trkpt lat="32.4854" lon="-8.7673167"><ele>172.0</ele><time>2026-04-26T13:40:39.408Z</time></trkpt><trkpt lat="32.4855917" lon="-8.7672083"><ele>172.0</ele><time>2026-04-26T13:40:40.408Z</time></trkpt><trkpt lat="32.4857767" lon="-8.76709"><ele>172.0</ele><time>2026-04-26T13:40:41.408Z</time></trkpt><trkpt lat="32.4859617" lon="-8.7669733"><ele>172.0</ele><time>2026-04-26T13:40:42.408Z</time></trkpt><trkpt lat="32.48615" lon="-8.7668567"><ele>172.0</ele><time>2026-04-26T13:40:43.408Z</time></trkpt><trkpt lat="32.4863367" lon="-8.7667417"><ele>171.66666666666669</ele><time>2026-04-26T13:40:44.408Z</time></trkpt><trkpt lat="32.4865283" lon="-8.76663"><ele>171.33333333333334</ele><time>2026-04-26T13:40:45.408Z</time></trkpt><trkpt lat="32.4867167" lon="-8.766515"><ele>171.0</ele><time>2026-04-26T13:40:46.408Z</time></trkpt><trkpt lat="32.48691" lon="-8.7664083"><ele>170.33333333333334</ele><time>2026-04-26T13:40:47.408Z</time></trkpt><trkpt lat="32.4870967" lon="-8.7662983"><ele>169.66666666666669</ele><time>2026-04-26T13:40:48.408Z</time></trkpt><trkpt lat="32.4872833" lon="-8.7661767"><ele>169.0</ele><time>2026-04-26T13:40:49.408Z</time></trkpt><trkpt lat="32.4874667" lon="-8.7660517"><ele>169.33333333333334</ele><time>2026-04-26T13:40:50.408Z</time></trkpt><trkpt lat="32.4876467" lon="-8.7659267"><ele>169.66666666666666</ele><time>2026-04-26T13:40:51.408Z</time></trkpt><trkpt lat="32.48783" lon="-8.7658033"><ele>170.0</ele><time>2026-04-26T13:40:52.408Z</time></trkpt><trkpt lat="32.48801" lon="-8.76567"><ele>170.33333333333331</ele><time>2026-04-26T13:40:53.408Z</time></trkpt><trkpt lat="32.4881867" lon="-8.7655367"><ele>170.66666666666666</ele><time>2026-04-26T13:40:54.408Z</time></trkpt><trkpt lat="32.4883567" lon="-8.765395"><ele>171.0</ele><time>2026-04-26T13:40:55.408Z</time></trkpt><trkpt lat="32.4885317" lon="-8.7652433"><ele>170.66666666666666</ele><time>2026-04-26T13:40:56.408Z</time></trkpt><trkpt lat="32.4886967" lon="-8.7650833"><ele>170.33333333333331</ele><time>2026-04-26T13:40:57.408Z</time></trkpt><trkpt lat="32.4888617" lon="-8.764925"><ele>170.0</ele><time>2026-04-26T13:40:58.408Z</time></trkpt><trkpt lat="32.4890217" lon="-8.7647567"><ele>170.0</ele><time>2026-04-26T13:40:59.408Z</time></trkpt><trkpt lat="32.4891783" lon="-8.76459"><ele>170.0</ele><time>2026-04-26T13:41:00.408Z</time></trkpt><trkpt lat="32.4893333" lon="-8.7644183"><ele>170.0</ele><time>2026-04-26T13:41:01.408Z</time></trkpt><trkpt lat="32.4894817" lon="-8.76424"><ele>169.66666666666666</ele><time>2026-04-26T13:41:02.408Z</time></trkpt><trkpt lat="32.4896333" lon="-8.76407"><ele>169.33333333333334</ele><time>2026-04-26T13:41:03.408Z</time></trkpt><trkpt lat="32.4897833" lon="-8.763895"><ele>169.0</ele><time>2026-04-26T13:41:04.408Z</time></trkpt><trkpt lat="32.489935" lon="-8.7637167"><ele>169.0</ele><time>2026-04-26T13:41:05.408Z</time></trkpt><trkpt lat="32.4900817" lon="-8.76354"><ele>169.0</ele><time>2026-04-26T13:41:06.408Z</time></trkpt><trkpt lat="32.4902367" lon="-8.763365"><ele>169.0</ele><time>2026-04-26T13:41:07.408Z</time></trkpt><trkpt lat="32.4903967" lon="-8.763195"><ele>169.0</ele><time>2026-04-26T13:41:08.408Z</time></trkpt><trkpt lat="32.4905483" lon="-8.76302"><ele>169.0</ele><time>2026-04-26T13:41:09.408Z</time></trkpt><trkpt lat="32.490695" lon="-8.7628417"><ele>169.0</ele><time>2026-04-26T13:41:10.408Z</time></trkpt><trkpt lat="32.49084" lon="-8.7626567"><ele>169.33333333333334</ele><time>2026-04-26T13:41:11.408Z</time></trkpt><trkpt lat="32.490985" lon="-8.762475"><ele>169.66666666666666</ele><time>2026-04-26T13:41:12.408Z</time></trkpt><trkpt lat="32.491135" lon="-8.7622933"><ele>170.0</ele><time>2026-04-26T13:41:13.408Z</time></trkpt><trkpt lat="32.4912883" lon="-8.762115"><ele>170.0</ele><time>2026-04-26T13:41:14.408Z</time></trkpt><trkpt lat="32.4914383" lon="-8.7619367"><ele>170.0</ele><time>2026-04-26T13:41:15.408Z</time></trkpt><trkpt lat="32.491585" lon="-8.7617567"><ele>170.0</ele><time>2026-04-26T13:41:16.408Z</time></trkpt><trkpt lat="32.49173" lon="-8.7615733"><ele>170.66666666666666</ele><time>2026-04-26T13:41:17.408Z</time></trkpt><trkpt lat="32.4918817" lon="-8.7613933"><ele>171.33333333333334</ele><time>2026-04-26T13:41:18.408Z</time></trkpt><trkpt lat="32.49203" lon="-8.76121"><ele>172.0</ele><time>2026-04-26T13:41:19.408Z</time></trkpt><trkpt lat="32.4921783" lon="-8.7610317"><ele>172.0</ele><time>2026-04-26T13:41:20.408Z</time></trkpt><trkpt lat="32.492325" lon="-8.760855"><ele>172.0</ele><time>2026-04-26T13:41:21.408Z</time></trkpt><trkpt lat="32.4924767" lon="-8.7606867"><ele>172.0</ele><time>2026-04-26T13:41:22.408Z</time></trkpt><trkpt lat="32.49263" lon="-8.7605167"><ele>172.0</ele><time>2026-04-26T13:41:23.408Z</time></trkpt><trkpt lat="32.4927783" lon="-8.76034"><ele>172.0</ele><time>2026-04-26T13:41:24.408Z</time></trkpt><trkpt lat="32.4929267" lon="-8.7601717"><ele>172.0</ele><time>2026-04-26T13:41:25.408Z</time></trkpt><trkpt lat="32.4930817" lon="-8.7599983"><ele>171.66666666666669</ele><time>2026-04-26T13:41:26.408Z</time></trkpt><trkpt lat="32.4932333" lon="-8.7598183"><ele>171.33333333333334</ele><time>2026-04-26T13:41:27.408Z</time></trkpt><trkpt lat="32.493385" lon="-8.7596417"><ele>171.0</ele><time>2026-04-26T13:41:28.408Z</time></trkpt><trkpt lat="32.4935317" lon="-8.759455"><ele>170.66666666666666</ele><time>2026-04-26T13:41:29.408Z</time></trkpt><trkpt lat="32.49368" lon="-8.7592767"><ele>170.33333333333331</ele><time>2026-04-26T13:41:30.408Z</time></trkpt><trkpt lat="32.49383" lon="-8.7590983"><ele>170.0</ele><time>2026-04-26T13:41:31.408Z</time></trkpt><trkpt lat="32.4939783" lon="-8.758925"><ele>170.0</ele><time>2026-04-26T13:41:32.408Z</time></trkpt><trkpt lat="32.49413" lon="-8.7587467"><ele>170.0</ele><time>2026-04-26T13:41:33.408Z</time></trkpt><trkpt lat="32.4942817" lon="-8.7585733"><ele>170.0</ele><time>2026-04-26T13:41:34.408Z</time></trkpt><trkpt lat="32.49443" lon="-8.7584017"><ele>170.0</ele><time>2026-04-26T13:41:35.408Z</time></trkpt><trkpt lat="32.4945733" lon="-8.75822"><ele>170.0</ele><time>2026-04-26T13:41:36.408Z</time></trkpt><trkpt lat="32.49472" lon="-8.7580383"><ele>170.0</ele><time>2026-04-26T13:41:37.408Z</time></trkpt><trkpt lat="32.49487" lon="-8.75786"><ele>170.0</ele><time>2026-04-26T13:41:38.409Z</time></trkpt><trkpt lat="32.4950233" lon="-8.7576817"><ele>170.0</ele><time>2026-04-26T13:41:39.408Z</time></trkpt><trkpt lat="32.4951733" lon="-8.75751"><ele>170.0</ele><time>2026-04-26T13:41:40.408Z</time></trkpt><trkpt lat="32.4953267" lon="-8.7573333"><ele>170.0</ele><time>2026-04-26T13:41:41.408Z</time></trkpt><trkpt lat="32.4954817" lon="-8.7571583"><ele>170.0</ele><time>2026-04-26T13:41:42.408Z</time></trkpt><trkpt lat="32.4956367" lon="-8.7569883"><ele>170.0</ele><time>2026-04-26T13:41:43.408Z</time></trkpt><trkpt lat="32.4957883" lon="-8.7568167"><ele>170.0</ele><time>2026-04-26T13:41:44.408Z</time></trkpt><trkpt lat="32.49594" lon="-8.7566383"><ele>170.0</ele><time>2026-04-26T13:41:45.408Z</time></trkpt><trkpt lat="32.4960917" lon="-8.7564583"><ele>170.0</ele><time>2026-04-26T13:41:46.408Z</time></trkpt><trkpt lat="32.4962417" lon="-8.756285"><ele>169.66666666666666</ele><time>2026-04-26T13:41:47.408Z</time></trkpt><trkpt lat="32.4963867" lon="-8.7561067"><ele>169.33333333333334</ele><time>2026-04-26T13:41:48.408Z</time></trkpt><trkpt lat="32.4965333" lon="-8.75593"><ele>169.0</ele><time>2026-04-26T13:41:49.408Z</time></trkpt><trkpt lat="32.4966883" lon="-8.7557567"><ele>169.0</ele><time>2026-04-26T13:41:50.409Z</time></trkpt><trkpt lat="32.4968417" lon="-8.755585"><ele>169.0</ele><time>2026-04-26T13:41:51.408Z</time></trkpt><trkpt lat="32.4969917" lon="-8.75541"><ele>169.0</ele><time>2026-04-26T13:41:52.408Z</time></trkpt><trkpt lat="32.4971383" lon="-8.7552267"><ele>169.0</ele><time>2026-04-26T13:41:53.408Z</time></trkpt><trkpt lat="32.4972867" lon="-8.755035"><ele>169.0</ele><time>2026-04-26T13:41:54.408Z</time></trkpt><trkpt lat="32.4974283" lon="-8.7548533"><ele>169.0</ele><time>2026-04-26T13:41:55.408Z</time></trkpt><trkpt lat="32.4975783" lon="-8.7546733"><ele>169.0</ele><time>2026-04-26T13:41:56.408Z</time></trkpt><trkpt lat="32.497735" lon="-8.7545"><ele>169.0</ele><time>2026-04-26T13:41:57.408Z</time></trkpt><trkpt lat="32.4978917" lon="-8.7543283"><ele>169.0</ele><time>2026-04-26T13:41:58.408Z</time></trkpt><trkpt lat="32.498045" lon="-8.7541567"><ele>168.66666666666669</ele><time>2026-04-26T13:41:59.408Z</time></trkpt><trkpt lat="32.4981917" lon="-8.7539783"><ele>168.33333333333334</ele><time>2026-04-26T13:42:00.408Z</time></trkpt><trkpt lat="32.4983417" lon="-8.7537983"><ele>168.0</ele><time>2026-04-26T13:42:01.408Z</time></trkpt><trkpt lat="32.4984883" lon="-8.75362"><ele>168.0</ele><time>2026-04-26T13:42:02.408Z</time></trkpt><trkpt lat="32.498635" lon="-8.7534317"><ele>168.0</ele><time>2026-04-26T13:42:03.408Z</time></trkpt><trkpt lat="32.49878" lon="-8.7532483"><ele>168.0</ele><time>2026-04-26T13:42:04.408Z</time></trkpt><trkpt lat="32.4989283" lon="-8.753065"><ele>168.0</ele><time>2026-04-26T13:42:05.408Z</time></trkpt><trkpt lat="32.49907" lon="-8.7528767"><ele>168.0</ele><time>2026-04-26T13:42:06.408Z</time></trkpt><trkpt lat="32.4992017" lon="-8.75269"><ele>168.0</ele><time>2026-04-26T13:42:07.408Z</time></trkpt><trkpt lat="32.49934" lon="-8.7524967"><ele>168.66666666666666</ele><time>2026-04-26T13:42:08.408Z</time></trkpt><trkpt lat="32.49947" lon="-8.7523"><ele>169.33333333333331</ele><time>2026-04-26T13:42:09.408Z</time></trkpt><trkpt lat="32.4995967" lon="-8.7521033"><ele>170.0</ele><time>2026-04-26T13:42:10.408Z</time></trkpt><trkpt lat="32.4997217" lon="-8.751895"><ele>170.0</ele><time>2026-04-26T13:42:11.408Z</time></trkpt><trkpt lat="32.4998433" lon="-8.7516917"><ele>170.0</ele><time>2026-04-26T13:42:12.408Z</time></trkpt><trkpt lat="32.499965" lon="-8.7514867"><ele>170.0</ele><time>2026-04-26T13:42:13.408Z</time></trkpt><trkpt lat="32.500085" lon="-8.7512817"><ele>170.0</ele><time>2026-04-26T13:42:14.408Z</time></trkpt><trkpt lat="32.5002033" lon="-8.751075"><ele>170.0</ele><time>2026-04-26T13:42:15.408Z</time></trkpt><trkpt lat="32.5003233" lon="-8.7508633"><ele>170.0</ele><time>2026-04-26T13:42:16.408Z</time></trkpt><trkpt lat="32.5004417" lon="-8.7506617"><ele>170.0</ele><time>2026-04-26T13:42:17.408Z</time></trkpt><trkpt lat="32.50056" lon="-8.7504533"><ele>170.0</ele><time>2026-04-26T13:42:18.408Z</time></trkpt><trkpt lat="32.5006733" lon="-8.7502467"><ele>170.0</ele><time>2026-04-26T13:42:19.408Z</time></trkpt><trkpt lat="32.5007867" lon="-8.7500417"><ele>170.0</ele><time>2026-04-26T13:42:20.408Z</time></trkpt><trkpt lat="32.5009033" lon="-8.7498367"><ele>170.0</ele><time>2026-04-26T13:42:21.408Z</time></trkpt><trkpt lat="32.50102" lon="-8.7496367"><ele>170.0</ele><time>2026-04-26T13:42:22.408Z</time></trkpt><trkpt lat="32.5011383" lon="-8.7494333"><ele>169.66666666666666</ele><time>2026-04-26T13:42:23.408Z</time></trkpt><trkpt lat="32.5012617" lon="-8.7492317"><ele>169.33333333333334</ele><time>2026-04-26T13:42:24.408Z</time></trkpt><trkpt lat="32.5013833" lon="-8.74903"><ele>169.0</ele><time>2026-04-26T13:42:25.408Z</time></trkpt><trkpt lat="32.5015067" lon="-8.7488267"><ele>169.0</ele><time>2026-04-26T13:42:26.408Z</time></trkpt><trkpt lat="32.5016367" lon="-8.748635"><ele>169.0</ele><time>2026-04-26T13:42:27.408Z</time></trkpt><trkpt lat="32.50177" lon="-8.7484467"><ele>169.0</ele><time>2026-04-26T13:42:28.408Z</time></trkpt><trkpt lat="32.5019133" lon="-8.748265"><ele>169.0</ele><time>2026-04-26T13:42:29.408Z</time></trkpt><trkpt lat="32.5020567" lon="-8.7480833"><ele>169.0</ele><time>2026-04-26T13:42:30.408Z</time></trkpt><trkpt lat="32.5022" lon="-8.7479"><ele>169.0</ele><time>2026-04-26T13:42:31.408Z</time></trkpt><trkpt lat="32.5023483" lon="-8.7477233"><ele>169.33333333333334</ele><time>2026-04-26T13:42:32.409Z</time></trkpt><trkpt lat="32.5024967" lon="-8.74755"><ele>169.66666666666666</ele><time>2026-04-26T13:42:33.408Z</time></trkpt><trkpt lat="32.5026583" lon="-8.747385"><ele>170.0</ele><time>2026-04-26T13:42:34.408Z</time></trkpt><trkpt lat="32.502825" lon="-8.7472283"><ele>170.0</ele><time>2026-04-26T13:42:35.408Z</time></trkpt><trkpt lat="32.5029917" lon="-8.7470767"><ele>170.0</ele><time>2026-04-26T13:42:36.408Z</time></trkpt><trkpt lat="32.5031617" lon="-8.74693"><ele>170.0</ele><time>2026-04-26T13:42:37.408Z</time></trkpt><trkpt lat="32.5033367" lon="-8.746795"><ele>170.0</ele><time>2026-04-26T13:42:38.408Z</time></trkpt><trkpt lat="32.503515" lon="-8.7466683"><ele>170.0</ele><time>2026-04-26T13:42:39.408Z</time></trkpt><trkpt lat="32.5036933" lon="-8.7465433"><ele>170.0</ele><time>2026-04-26T13:42:40.409Z</time></trkpt><trkpt lat="32.5038767" lon="-8.746425"><ele>170.66666666666666</ele><time>2026-04-26T13:42:41.408Z</time></trkpt><trkpt lat="32.5040633" lon="-8.7463133"><ele>171.33333333333334</ele><time>2026-04-26T13:42:42.408Z</time></trkpt><trkpt lat="32.5042467" lon="-8.7462117"><ele>172.0</ele><time>2026-04-26T13:42:43.408Z</time></trkpt><trkpt lat="32.504425" lon="-8.7461133"><ele>171.0</ele><time>2026-04-26T13:42:44.408Z</time></trkpt><trkpt lat="32.5046067" lon="-8.7460217"><ele>170.0</ele><time>2026-04-26T13:42:45.408Z</time></trkpt><trkpt lat="32.5047917" lon="-8.7459333"><ele>169.0</ele><time>2026-04-26T13:42:46.408Z</time></trkpt><trkpt lat="32.50498" lon="-8.7458567"><ele>169.0</ele><time>2026-04-26T13:42:47.408Z</time></trkpt><trkpt lat="32.5051717" lon="-8.7457867"><ele>169.0</ele><time>2026-04-26T13:42:48.408Z</time></trkpt><trkpt lat="32.5053617" lon="-8.7457217"><ele>169.0</ele><time>2026-04-26T13:42:49.408Z</time></trkpt><trkpt lat="32.5055517" lon="-8.74566"><ele>169.33333333333334</ele><time>2026-04-26T13:42:50.408Z</time></trkpt><trkpt lat="32.505745" lon="-8.7456"><ele>169.66666666666666</ele><time>2026-04-26T13:42:51.408Z</time></trkpt><trkpt lat="32.5059383" lon="-8.7455383"><ele>170.0</ele><time>2026-04-26T13:42:52.408Z</time></trkpt><trkpt lat="32.5061333" lon="-8.7454867"><ele>170.0</ele><time>2026-04-26T13:42:53.408Z</time></trkpt><trkpt lat="32.5063217" lon="-8.7454367"><ele>170.0</ele><time>2026-04-26T13:42:54.408Z</time></trkpt><trkpt lat="32.50651" lon="-8.7453783"><ele>170.0</ele><time>2026-04-26T13:42:55.408Z</time></trkpt><trkpt lat="32.5066967" lon="-8.745325"><ele>170.0</ele><time>2026-04-26T13:42:56.408Z</time></trkpt><trkpt lat="32.5068867" lon="-8.7452683"><ele>170.0</ele><time>2026-04-26T13:42:57.408Z</time></trkpt><trkpt lat="32.50708" lon="-8.7452133"><ele>170.0</ele><time>2026-04-26T13:42:58.408Z</time></trkpt><trkpt lat="32.507275" lon="-8.7451567"><ele>169.33333333333331</ele><time>2026-04-26T13:42:59.408Z</time></trkpt><trkpt lat="32.507475" lon="-8.7451017"><ele>168.66666666666666</ele><time>2026-04-26T13:43:00.408Z</time></trkpt><trkpt lat="32.507675" lon="-8.745045"><ele>168.0</ele><time>2026-04-26T13:43:01.408Z</time></trkpt><trkpt lat="32.5078767" lon="-8.74499"><ele>167.33333333333334</ele><time>2026-04-26T13:43:02.408Z</time></trkpt><trkpt lat="32.50808" lon="-8.7449367"><ele>166.66666666666669</ele><time>2026-04-26T13:43:03.408Z</time></trkpt><trkpt lat="32.508285" lon="-8.7448783"><ele>166.0</ele><time>2026-04-26T13:43:04.408Z</time></trkpt><trkpt lat="32.5084867" lon="-8.7448233"><ele>166.0</ele><time>2026-04-26T13:43:05.408Z</time></trkpt><trkpt lat="32.508695" lon="-8.7447633"><ele>166.0</ele><time>2026-04-26T13:43:06.408Z</time></trkpt><trkpt lat="32.5088983" lon="-8.744705"><ele>166.0</ele><time>2026-04-26T13:43:07.408Z</time></trkpt><trkpt lat="32.5090967" lon="-8.7446483"><ele>166.0</ele><time>2026-04-26T13:43:08.408Z</time></trkpt><trkpt lat="32.5092867" lon="-8.74459"><ele>166.0</ele><time>2026-04-26T13:43:09.408Z</time></trkpt><trkpt lat="32.50948" lon="-8.7445317"><ele>166.0</ele><time>2026-04-26T13:43:10.408Z</time></trkpt><trkpt lat="32.509675" lon="-8.7444783"><ele>166.0</ele><time>2026-04-26T13:43:11.408Z</time></trkpt><trkpt lat="32.5098717" lon="-8.7444283"><ele>166.0</ele><time>2026-04-26T13:43:12.408Z</time></trkpt><trkpt lat="32.510075" lon="-8.744375"><ele>166.0</ele><time>2026-04-26T13:43:13.408Z</time></trkpt><trkpt lat="32.510275" lon="-8.7443183"><ele>165.66666666666669</ele><time>2026-04-26T13:43:14.408Z</time></trkpt><trkpt lat="32.5104733" lon="-8.7442583"><ele>165.33333333333334</ele><time>2026-04-26T13:43:15.408Z</time></trkpt><trkpt lat="32.5106733" lon="-8.744195"><ele>165.0</ele><time>2026-04-26T13:43:16.408Z</time></trkpt><trkpt lat="32.5108717" lon="-8.7441367"><ele>165.0</ele><time>2026-04-26T13:43:17.408Z</time></trkpt><trkpt lat="32.511075" lon="-8.7440767"><ele>165.0</ele><time>2026-04-26T13:43:18.408Z</time></trkpt><trkpt lat="32.5112783" lon="-8.74402"><ele>165.0</ele><time>2026-04-26T13:43:19.408Z</time></trkpt><trkpt lat="32.5114817" lon="-8.7439583"><ele>165.33333333333334</ele><time>2026-04-26T13:43:20.408Z</time></trkpt><trkpt lat="32.5116833" lon="-8.7438967"><ele>165.66666666666669</ele><time>2026-04-26T13:43:21.408Z</time></trkpt><trkpt lat="32.5118867" lon="-8.74384"><ele>166.0</ele><time>2026-04-26T13:43:22.408Z</time></trkpt><trkpt lat="32.5120817" lon="-8.7437867"><ele>166.0</ele><time>2026-04-26T13:43:23.408Z</time></trkpt><trkpt lat="32.5122767" lon="-8.7437283"><ele>166.0</ele><time>2026-04-26T13:43:24.408Z</time></trkpt><trkpt lat="32.5124733" lon="-8.7436717"><ele>166.0</ele><time>2026-04-26T13:43:25.408Z</time></trkpt><trkpt lat="32.5126683" lon="-8.743615"><ele>166.0</ele><time>2026-04-26T13:43:26.408Z</time></trkpt><trkpt lat="32.512865" lon="-8.7435567"><ele>166.0</ele><time>2026-04-26T13:43:27.408Z</time></trkpt><trkpt lat="32.51306" lon="-8.743495"><ele>166.0</ele><time>2026-04-26T13:43:28.408Z</time></trkpt><trkpt lat="32.513255" lon="-8.7434367"><ele>166.0</ele><time>2026-04-26T13:43:29.408Z</time></trkpt><trkpt lat="32.51345" lon="-8.7433783"><ele>166.0</ele><time>2026-04-26T13:43:30.408Z</time></trkpt><trkpt lat="32.51365" lon="-8.7433267"><ele>166.0</ele><time>2026-04-26T13:43:31.408Z</time></trkpt><trkpt lat="32.5138533" lon="-8.7432783"><ele>166.0</ele><time>2026-04-26T13:43:32.408Z</time></trkpt><trkpt lat="32.5140517" lon="-8.7432317"><ele>166.0</ele><time>2026-04-26T13:43:33.408Z</time></trkpt><trkpt lat="32.5142517" lon="-8.7431833"><ele>166.0</ele><time>2026-04-26T13:43:34.407Z</time></trkpt><trkpt lat="32.5144517" lon="-8.74314"><ele>166.33333333333334</ele><time>2026-04-26T13:43:35.407Z</time></trkpt><trkpt lat="32.514645" lon="-8.7430933"><ele>166.66666666666666</ele><time>2026-04-26T13:43:36.407Z</time></trkpt><trkpt lat="32.5148283" lon="-8.7430533"><ele>167.0</ele><time>2026-04-26T13:43:37.407Z</time></trkpt><trkpt lat="32.515005" lon="-8.7430083"><ele>167.0</ele><time>2026-04-26T13:43:38.407Z</time></trkpt><trkpt lat="32.51518" lon="-8.7429667"><ele>167.0</ele><time>2026-04-26T13:43:39.407Z</time></trkpt><trkpt lat="32.5153433" lon="-8.7429233"><ele>167.0</ele><time>2026-04-26T13:43:40.407Z</time></trkpt><trkpt lat="32.515505" lon="-8.742885"><ele>166.66666666666666</ele><time>2026-04-26T13:43:41.407Z</time></trkpt><trkpt lat="32.515675" lon="-8.7428483"><ele>166.33333333333334</ele><time>2026-04-26T13:43:42.407Z</time></trkpt><trkpt lat="32.5158517" lon="-8.7428117"><ele>166.0</ele><time>2026-04-26T13:43:43.407Z</time></trkpt><trkpt lat="32.5160283" lon="-8.74277"><ele>166.0</ele><time>2026-04-26T13:43:44.408Z</time></trkpt><trkpt lat="32.5162083" lon="-8.7427267"><ele>166.0</ele><time>2026-04-26T13:43:45.407Z</time></trkpt><trkpt lat="32.5163933" lon="-8.7426817"><ele>166.0</ele><time>2026-04-26T13:43:46.407Z</time></trkpt><trkpt lat="32.5165767" lon="-8.7426367"><ele>165.33333333333334</ele><time>2026-04-26T13:43:47.407Z</time></trkpt><trkpt lat="32.516765" lon="-8.74259"><ele>164.66666666666666</ele><time>2026-04-26T13:43:48.407Z</time></trkpt><trkpt lat="32.516955" lon="-8.742545"><ele>164.0</ele><time>2026-04-26T13:43:49.407Z</time></trkpt><trkpt lat="32.5171483" lon="-8.7425033"><ele>164.0</ele><time>2026-04-26T13:43:50.407Z</time></trkpt><trkpt lat="32.5173417" lon="-8.7424633"><ele>164.0</ele><time>2026-04-26T13:43:51.408Z</time></trkpt><trkpt lat="32.5175417" lon="-8.7424167"><ele>164.0</ele><time>2026-04-26T13:43:52.407Z</time></trkpt><trkpt lat="32.5177417" lon="-8.7423667"><ele>163.66666666666666</ele><time>2026-04-26T13:43:53.407Z</time></trkpt><trkpt lat="32.5179467" lon="-8.7423167"><ele>163.33333333333334</ele><time>2026-04-26T13:43:54.407Z</time></trkpt><trkpt lat="32.5181483" lon="-8.7422667"><ele>163.0</ele><time>2026-04-26T13:43:55.407Z</time></trkpt><trkpt lat="32.5183533" lon="-8.742215"><ele>163.0</ele><time>2026-04-26T13:43:56.407Z</time></trkpt><trkpt lat="32.5185567" lon="-8.74216"><ele>163.0</ele><time>2026-04-26T13:43:57.407Z</time></trkpt><trkpt lat="32.5187667" lon="-8.742105"><ele>163.0</ele><time>2026-04-26T13:43:58.407Z</time></trkpt><trkpt lat="32.518975" lon="-8.7420467"><ele>162.33333333333334</ele><time>2026-04-26T13:43:59.407Z</time></trkpt><trkpt lat="32.5191767" lon="-8.7419883"><ele>161.66666666666666</ele><time>2026-04-26T13:44:00.408Z</time></trkpt><trkpt lat="32.519385" lon="-8.7419233"><ele>161.0</ele><time>2026-04-26T13:44:01.407Z</time></trkpt><trkpt lat="32.51959" lon="-8.741855"><ele>161.0</ele><time>2026-04-26T13:44:02.407Z</time></trkpt><trkpt lat="32.519795" lon="-8.74178"><ele>161.0</ele><time>2026-04-26T13:44:03.407Z</time></trkpt><trkpt lat="32.5199983" lon="-8.7417083"><ele>161.0</ele><time>2026-04-26T13:44:04.407Z</time></trkpt><trkpt lat="32.5202033" lon="-8.74163"><ele>161.0</ele><time>2026-04-26T13:44:05.407Z</time></trkpt><trkpt lat="32.5204083" lon="-8.74155"><ele>161.0</ele><time>2026-04-26T13:44:06.408Z</time></trkpt><trkpt lat="32.52061" lon="-8.74147"><ele>161.0</ele><time>2026-04-26T13:44:07.407Z</time></trkpt><trkpt lat="32.5208067" lon="-8.7413883"><ele>161.0</ele><time>2026-04-26T13:44:08.407Z</time></trkpt><trkpt lat="32.5210033" lon="-8.7413017"><ele>161.0</ele><time>2026-04-26T13:44:09.407Z</time></trkpt><trkpt lat="32.5211983" lon="-8.74121"><ele>161.0</ele><time>2026-04-26T13:44:10.407Z</time></trkpt><trkpt lat="32.5213933" lon="-8.7411167"><ele>160.66666666666666</ele><time>2026-04-26T13:44:11.407Z</time></trkpt><trkpt lat="32.5215833" lon="-8.7410217"><ele>160.33333333333334</ele><time>2026-04-26T13:44:12.407Z</time></trkpt><trkpt lat="32.52177" lon="-8.7409267"><ele>160.0</ele><time>2026-04-26T13:44:13.407Z</time></trkpt><trkpt lat="32.5219583" lon="-8.7408267"><ele>159.66666666666669</ele><time>2026-04-26T13:44:14.407Z</time></trkpt><trkpt lat="32.5221483" lon="-8.7407233"><ele>159.33333333333334</ele><time>2026-04-26T13:44:15.407Z</time></trkpt><trkpt lat="32.5223417" lon="-8.740615"><ele>159.0</ele><time>2026-04-26T13:44:16.407Z</time></trkpt><trkpt lat="32.5225383" lon="-8.7405017"><ele>159.0</ele><time>2026-04-26T13:44:17.407Z</time></trkpt><trkpt lat="32.5227317" lon="-8.74039"><ele>159.0</ele><time>2026-04-26T13:44:18.407Z</time></trkpt><trkpt lat="32.522925" lon="-8.7402717"><ele>159.0</ele><time>2026-04-26T13:44:19.407Z</time></trkpt><trkpt lat="32.5231217" lon="-8.7401517"><ele>159.33333333333334</ele><time>2026-04-26T13:44:20.407Z</time></trkpt><trkpt lat="32.5233167" lon="-8.740035"><ele>159.66666666666669</ele><time>2026-04-26T13:44:21.407Z</time></trkpt><trkpt lat="32.5235117" lon="-8.739915"><ele>160.0</ele><time>2026-04-26T13:44:22.407Z</time></trkpt><trkpt lat="32.5237067" lon="-8.7397933"><ele>160.33333333333334</ele><time>2026-04-26T13:44:23.407Z</time></trkpt><trkpt lat="32.5239017" lon="-8.73967"><ele>160.66666666666666</ele><time>2026-04-26T13:44:24.407Z</time></trkpt><trkpt lat="32.5241" lon="-8.7395467"><ele>161.0</ele><time>2026-04-26T13:44:25.407Z</time></trkpt><trkpt lat="32.5242983" lon="-8.7394183"><ele>160.66666666666666</ele><time>2026-04-26T13:44:26.407Z</time></trkpt><trkpt lat="32.524495" lon="-8.7392983"><ele>160.33333333333334</ele><time>2026-04-26T13:44:27.407Z</time></trkpt><trkpt lat="32.5246917" lon="-8.73918"><ele>160.0</ele><time>2026-04-26T13:44:28.407Z</time></trkpt><trkpt lat="32.5248883" lon="-8.7390633"><ele>160.0</ele><time>2026-04-26T13:44:29.408Z</time></trkpt><trkpt lat="32.52508" lon="-8.7389433"><ele>160.0</ele><time>2026-04-26T13:44:30.407Z</time></trkpt><trkpt lat="32.5252733" lon="-8.73882"><ele>160.0</ele><time>2026-04-26T13:44:31.407Z</time></trkpt><trkpt lat="32.5254633" lon="-8.7386917"><ele>160.0</ele><time>2026-04-26T13:44:32.407Z</time></trkpt><trkpt lat="32.525655" lon="-8.7385683"><ele>160.0</ele><time>2026-04-26T13:44:33.407Z</time></trkpt><trkpt lat="32.525845" lon="-8.738445"><ele>160.0</ele><time>2026-04-26T13:44:34.407Z</time></trkpt><trkpt lat="32.526035" lon="-8.738325"><ele>160.33333333333334</ele><time>2026-04-26T13:44:35.407Z</time></trkpt><trkpt lat="32.526225" lon="-8.738205"><ele>160.66666666666666</ele><time>2026-04-26T13:44:36.407Z</time></trkpt><trkpt lat="32.5264117" lon="-8.7380883"><ele>161.0</ele><time>2026-04-26T13:44:37.407Z</time></trkpt><trkpt lat="32.5265967" lon="-8.73797"><ele>161.0</ele><time>2026-04-26T13:44:38.407Z</time></trkpt><trkpt lat="32.5267817" lon="-8.7378517"><ele>161.0</ele><time>2026-04-26T13:44:39.407Z</time></trkpt><trkpt lat="32.526965" lon="-8.737735"><ele>161.0</ele><time>2026-04-26T13:44:40.407Z</time></trkpt><trkpt lat="32.527145" lon="-8.737625"><ele>160.0</ele><time>2026-04-26T13:44:41.407Z</time></trkpt><trkpt lat="32.5273167" lon="-8.7375133"><ele>159.0</ele><time>2026-04-26T13:44:42.407Z</time></trkpt><trkpt lat="32.5274867" lon="-8.737395"><ele>158.0</ele><time>2026-04-26T13:44:43.407Z</time></trkpt><trkpt lat="32.5276583" lon="-8.73727"><ele>158.0</ele><time>2026-04-26T13:44:44.407Z</time></trkpt><trkpt lat="32.52783" lon="-8.737135"><ele>158.0</ele><time>2026-04-26T13:44:45.407Z</time></trkpt><trkpt lat="32.5280017" lon="-8.736995"><ele>158.0</ele><time>2026-04-26T13:44:46.408Z</time></trkpt><trkpt lat="32.5281783" lon="-8.7368483"><ele>158.0</ele><time>2026-04-26T13:44:47.407Z</time></trkpt><trkpt lat="32.5283517" lon="-8.7367"><ele>158.0</ele><time>2026-04-26T13:44:48.407Z</time></trkpt><trkpt lat="32.5285233" lon="-8.7365483"><ele>158.0</ele><time>2026-04-26T13:44:49.407Z</time></trkpt><trkpt lat="32.528695" lon="-8.7363983"><ele>158.0</ele><time>2026-04-26T13:44:50.407Z</time></trkpt><trkpt lat="32.52886" lon="-8.7362467"><ele>158.0</ele><time>2026-04-26T13:44:51.407Z</time></trkpt><trkpt lat="32.5290283" lon="-8.736095"><ele>158.0</ele><time>2026-04-26T13:44:52.407Z</time></trkpt><trkpt lat="32.52919" lon="-8.73594"><ele>158.0</ele><time>2026-04-26T13:44:53.407Z</time></trkpt><trkpt lat="32.5293533" lon="-8.73578"><ele>158.0</ele><time>2026-04-26T13:44:54.407Z</time></trkpt><trkpt lat="32.5295133" lon="-8.7356283"><ele>158.0</ele><time>2026-04-26T13:44:55.407Z</time></trkpt><trkpt lat="32.529675" lon="-8.7354733"><ele>157.66666666666666</ele><time>2026-04-26T13:44:56.407Z</time></trkpt><trkpt lat="32.5298333" lon="-8.735325"><ele>157.33333333333334</ele><time>2026-04-26T13:44:57.407Z</time></trkpt><trkpt lat="32.5299967" lon="-8.7351733"><ele>157.0</ele><time>2026-04-26T13:44:58.407Z</time></trkpt><trkpt lat="32.5301583" lon="-8.7350183"><ele>157.0</ele><time>2026-04-26T13:44:59.407Z</time></trkpt><trkpt lat="32.5303067" lon="-8.73487"><ele>157.0</ele><time>2026-04-26T13:45:00.407Z</time></trkpt><trkpt lat="32.5304533" lon="-8.7347267"><ele>157.0</ele><time>2026-04-26T13:45:01.407Z</time></trkpt><trkpt lat="32.5306033" lon="-8.7345883"><ele>157.0</ele><time>2026-04-26T13:45:02.407Z</time></trkpt><trkpt lat="32.5307517" lon="-8.734445"><ele>157.0</ele><time>2026-04-26T13:45:03.407Z</time></trkpt><trkpt lat="32.5309067" lon="-8.7343033"><ele>157.0</ele><time>2026-04-26T13:45:04.407Z</time></trkpt><trkpt lat="32.531065" lon="-8.734155"><ele>157.33333333333334</ele><time>2026-04-26T13:45:05.407Z</time></trkpt><trkpt lat="32.531225" lon="-8.7340067"><ele>157.66666666666666</ele><time>2026-04-26T13:45:06.407Z</time></trkpt><trkpt lat="32.5313917" lon="-8.7338583"><ele>158.0</ele><time>2026-04-26T13:45:07.407Z</time></trkpt><trkpt lat="32.5315583" lon="-8.7336983"><ele>158.0</ele><time>2026-04-26T13:45:08.407Z</time></trkpt><trkpt lat="32.5317267" lon="-8.7335283"><ele>158.0</ele><time>2026-04-26T13:45:09.408Z</time></trkpt><trkpt lat="32.5319" lon="-8.7333683"><ele>158.0</ele><time>2026-04-26T13:45:10.407Z</time></trkpt><trkpt lat="32.5320667" lon="-8.733215"><ele>157.66666666666666</ele><time>2026-04-26T13:45:11.407Z</time></trkpt><trkpt lat="32.532225" lon="-8.73306"><ele>157.33333333333334</ele><time>2026-04-26T13:45:12.407Z</time></trkpt><trkpt lat="32.5323783" lon="-8.732915"><ele>157.0</ele><time>2026-04-26T13:45:13.407Z</time></trkpt><trkpt lat="32.5325283" lon="-8.7327683"><ele>156.66666666666669</ele><time>2026-04-26T13:45:14.407Z</time></trkpt><trkpt lat="32.532685" lon="-8.7326233"><ele>156.33333333333334</ele><time>2026-04-26T13:45:15.407Z</time></trkpt><trkpt lat="32.5328433" lon="-8.732475"><ele>156.0</ele><time>2026-04-26T13:45:16.407Z</time></trkpt><trkpt lat="32.533005" lon="-8.732325"><ele>156.0</ele><time>2026-04-26T13:45:17.407Z</time></trkpt><trkpt lat="32.533165" lon="-8.732175"><ele>156.0</ele><time>2026-04-26T13:45:18.407Z</time></trkpt><trkpt lat="32.5333267" lon="-8.732025"><ele>156.0</ele><time>2026-04-26T13:45:19.407Z</time></trkpt><trkpt lat="32.5334917" lon="-8.7318717"><ele>155.66666666666666</ele><time>2026-04-26T13:45:20.407Z</time></trkpt><trkpt lat="32.5336567" lon="-8.7317167"><ele>155.33333333333331</ele><time>2026-04-26T13:45:21.407Z</time></trkpt><trkpt lat="32.53382" lon="-8.7315633"><ele>155.0</ele><time>2026-04-26T13:45:22.407Z</time></trkpt><trkpt lat="32.53398" lon="-8.7314167"><ele>155.0</ele><time>2026-04-26T13:45:23.407Z</time></trkpt><trkpt lat="32.53413" lon="-8.7312667"><ele>155.0</ele><time>2026-04-26T13:45:24.407Z</time></trkpt><trkpt lat="32.53428" lon="-8.7311183"><ele>155.0</ele><time>2026-04-26T13:45:25.407Z</time></trkpt><trkpt lat="32.53443" lon="-8.7309783"><ele>155.66666666666666</ele><time>2026-04-26T13:45:26.407Z</time></trkpt><trkpt lat="32.534585" lon="-8.7308433"><ele>156.33333333333334</ele><time>2026-04-26T13:45:27.407Z</time></trkpt><trkpt lat="32.5347467" lon="-8.7307067"><ele>157.0</ele><time>2026-04-26T13:45:28.407Z</time></trkpt><trkpt lat="32.5349183" lon="-8.7305817"><ele>157.0</ele><time>2026-04-26T13:45:29.407Z</time></trkpt><trkpt lat="32.5350933" lon="-8.730455"><ele>157.0</ele><time>2026-04-26T13:45:30.407Z</time></trkpt><trkpt lat="32.5352733" lon="-8.730325"><ele>157.0</ele><time>2026-04-26T13:45:31.407Z</time></trkpt><trkpt lat="32.53546" lon="-8.7302017"><ele>157.66666666666669</ele><time>2026-04-26T13:45:32.407Z</time></trkpt><trkpt lat="32.5356417" lon="-8.73009"><ele>158.33333333333334</ele><time>2026-04-26T13:45:33.407Z</time></trkpt><trkpt lat="32.53582" lon="-8.729985"><ele>159.0</ele><time>2026-04-26T13:45:34.407Z</time></trkpt><trkpt lat="32.5359967" lon="-8.7298883"><ele>159.0</ele><time>2026-04-26T13:45:35.407Z</time></trkpt><trkpt lat="32.5361783" lon="-8.7298"><ele>159.0</ele><time>2026-04-26T13:45:36.407Z</time></trkpt><trkpt lat="32.536365" lon="-8.7297117"><ele>159.0</ele><time>2026-04-26T13:45:37.407Z</time></trkpt><trkpt lat="32.536555" lon="-8.7296267"><ele>158.66666666666666</ele><time>2026-04-26T13:45:38.407Z</time></trkpt><trkpt lat="32.53675" lon="-8.7295433"><ele>158.33333333333331</ele><time>2026-04-26T13:45:39.407Z</time></trkpt><trkpt lat="32.53694" lon="-8.729465"><ele>158.0</ele><time>2026-04-26T13:45:40.407Z</time></trkpt><trkpt lat="32.5371267" lon="-8.7293883"><ele>157.66666666666666</ele><time>2026-04-26T13:45:41.407Z</time></trkpt><trkpt lat="32.53732" lon="-8.7293167"><ele>157.33333333333334</ele><time>2026-04-26T13:45:42.407Z</time></trkpt><trkpt lat="32.5375117" lon="-8.7292433"><ele>157.0</ele><time>2026-04-26T13:45:43.407Z</time></trkpt><trkpt lat="32.53771" lon="-8.7291717"><ele>157.0</ele><time>2026-04-26T13:45:44.407Z</time></trkpt><trkpt lat="32.5379083" lon="-8.7290983"><ele>157.0</ele><time>2026-04-26T13:45:45.407Z</time></trkpt><trkpt lat="32.5381067" lon="-8.7290233"><ele>157.0</ele><time>2026-04-26T13:45:46.407Z</time></trkpt><trkpt lat="32.5382967" lon="-8.7289517"><ele>157.0</ele><time>2026-04-26T13:45:47.407Z</time></trkpt><trkpt lat="32.53848" lon="-8.7288817"><ele>157.0</ele><time>2026-04-26T13:45:48.407Z</time></trkpt><trkpt lat="32.5386533" lon="-8.7288183"><ele>157.0</ele><time>2026-04-26T13:45:49.407Z</time></trkpt><trkpt lat="32.53882" lon="-8.7287567"><ele>157.0</ele><time>2026-04-26T13:45:50.407Z</time></trkpt><trkpt lat="32.538985" lon="-8.7286883"><ele>157.0</ele><time>2026-04-26T13:45:51.407Z</time></trkpt><trkpt lat="32.5391383" lon="-8.728625"><ele>157.0</ele><time>2026-04-26T13:45:52.407Z</time></trkpt><trkpt lat="32.5392917" lon="-8.7285717"><ele>158.0</ele><time>2026-04-26T13:45:53.407Z</time></trkpt><trkpt lat="32.5394383" lon="-8.7285217"><ele>159.0</ele><time>2026-04-26T13:45:54.407Z</time></trkpt><trkpt lat="32.539585" lon="-8.7284633"><ele>160.0</ele><time>2026-04-26T13:45:55.408Z</time></trkpt><trkpt lat="32.5397317" lon="-8.7284083"><ele>160.0</ele><time>2026-04-26T13:45:56.407Z</time></trkpt><trkpt lat="32.53987" lon="-8.7283483"><ele>160.0</ele><time>2026-04-26T13:45:57.407Z</time></trkpt><trkpt lat="32.5400133" lon="-8.7282917"><ele>160.0</ele><time>2026-04-26T13:45:58.407Z</time></trkpt><trkpt lat="32.5401617" lon="-8.7282317"><ele>160.0</ele><time>2026-04-26T13:45:59.407Z</time></trkpt><trkpt lat="32.5403083" lon="-8.728175"><ele>160.0</ele><time>2026-04-26T13:46:00.407Z</time></trkpt><trkpt lat="32.5404617" lon="-8.7281167"><ele>160.0</ele><time>2026-04-26T13:46:01.407Z</time></trkpt><trkpt lat="32.540615" lon="-8.7280583"><ele>159.66666666666669</ele><time>2026-04-26T13:46:02.407Z</time></trkpt><trkpt lat="32.5407767" lon="-8.7280017"><ele>159.33333333333334</ele><time>2026-04-26T13:46:03.407Z</time></trkpt><trkpt lat="32.5409383" lon="-8.727945"><ele>159.0</ele><time>2026-04-26T13:46:04.407Z</time></trkpt><trkpt lat="32.54112" lon="-8.72788"><ele>159.0</ele><time>2026-04-26T13:46:05.407Z</time></trkpt><trkpt lat="32.5412983" lon="-8.727805"><ele>159.0</ele><time>2026-04-26T13:46:06.407Z</time></trkpt><trkpt lat="32.541475" lon="-8.7277333"><ele>159.0</ele><time>2026-04-26T13:46:07.407Z</time></trkpt><trkpt lat="32.5416367" lon="-8.7276667"><ele>159.0</ele><time>2026-04-26T13:46:08.407Z</time></trkpt><trkpt lat="32.54179" lon="-8.7275917"><ele>159.0</ele><time>2026-04-26T13:46:09.407Z</time></trkpt><trkpt lat="32.5419417" lon="-8.7275067"><ele>159.0</ele><time>2026-04-26T13:46:10.407Z</time></trkpt><trkpt lat="32.5421" lon="-8.7274183"><ele>159.0</ele><time>2026-04-26T13:46:11.407Z</time></trkpt><trkpt lat="32.542255" lon="-8.7273367"><ele>159.0</ele><time>2026-04-26T13:46:12.407Z</time></trkpt><trkpt lat="32.5424017" lon="-8.7272583"><ele>159.0</ele><time>2026-04-26T13:46:13.407Z</time></trkpt><trkpt lat="32.5425383" lon="-8.72718"><ele>159.0</ele><time>2026-04-26T13:46:14.407Z</time></trkpt><trkpt lat="32.5426683" lon="-8.7271083"><ele>159.0</ele><time>2026-04-26T13:46:15.407Z</time></trkpt><trkpt lat="32.5427967" lon="-8.727035"><ele>159.0</ele><time>2026-04-26T13:46:16.407Z</time></trkpt><trkpt lat="32.5429167" lon="-8.7269717"><ele>159.0</ele><time>2026-04-26T13:46:17.407Z</time></trkpt><trkpt lat="32.5430367" lon="-8.7269083"><ele>159.75</ele><time>2026-04-26T13:46:18.407Z</time></trkpt><trkpt lat="32.5431633" lon="-8.726845"><ele>160.5</ele><time>2026-04-26T13:46:19.407Z</time></trkpt><trkpt lat="32.5432867" lon="-8.72678"><ele>161.25</ele><time>2026-04-26T13:46:20.407Z</time></trkpt><trkpt lat="32.543415" lon="-8.7267133"><ele>162.0</ele><time>2026-04-26T13:46:21.407Z</time></trkpt><trkpt lat="32.5435483" lon="-8.72665"><ele>162.0</ele><time>2026-04-26T13:46:22.407Z</time></trkpt><trkpt lat="32.5436817" lon="-8.7266"><ele>162.0</ele><time>2026-04-26T13:46:23.407Z</time></trkpt><trkpt lat="32.5438133" lon="-8.7265467"><ele>162.0</ele><time>2026-04-26T13:46:24.407Z</time></trkpt><trkpt lat="32.5439433" lon="-8.7265017"><ele>162.0</ele><time>2026-04-26T13:46:25.407Z</time></trkpt><trkpt lat="32.5440667" lon="-8.7264517"><ele>161.75</ele><time>2026-04-26T13:46:26.407Z</time></trkpt><trkpt lat="32.5441983" lon="-8.7264"><ele>161.5</ele><time>2026-04-26T13:46:27.407Z</time></trkpt><trkpt lat="32.54433" lon="-8.72635"><ele>161.25</ele><time>2026-04-26T13:46:28.407Z</time></trkpt><trkpt lat="32.54446" lon="-8.7262967"><ele>161.0</ele><time>2026-04-26T13:46:29.407Z</time></trkpt><trkpt lat="32.5445933" lon="-8.7262467"><ele>160.5</ele><time>2026-04-26T13:46:30.407Z</time></trkpt><trkpt lat="32.5447267" lon="-8.7261967"><ele>160.0</ele><time>2026-04-26T13:46:31.407Z</time></trkpt><trkpt lat="32.5448633" lon="-8.7261467"><ele>159.5</ele><time>2026-04-26T13:46:32.407Z</time></trkpt><trkpt lat="32.5449983" lon="-8.726105"><ele>159.0</ele><time>2026-04-26T13:46:33.407Z</time></trkpt><trkpt lat="32.545125" lon="-8.7260633"><ele>159.5</ele><time>2026-04-26T13:46:34.408Z</time></trkpt><trkpt lat="32.5452483" lon="-8.72602"><ele>160.0</ele><time>2026-04-26T13:46:35.407Z</time></trkpt><trkpt lat="32.545375" lon="-8.725975"><ele>160.5</ele><time>2026-04-26T13:46:36.407Z</time></trkpt><trkpt lat="32.5454983" lon="-8.72593"><ele>161.0</ele><time>2026-04-26T13:46:37.407Z</time></trkpt><trkpt lat="32.5456233" lon="-8.7258833"><ele>161.0</ele><time>2026-04-26T13:46:38.407Z</time></trkpt><trkpt lat="32.5457533" lon="-8.7258417"><ele>161.0</ele><time>2026-04-26T13:46:39.407Z</time></trkpt><trkpt lat="32.545885" lon="-8.7258017"><ele>161.0</ele><time>2026-04-26T13:46:40.407Z</time></trkpt><trkpt lat="32.5460183" lon="-8.7257567"><ele>161.0</ele><time>2026-04-26T13:46:41.407Z</time></trkpt><trkpt lat="32.5461517" lon="-8.72571"><ele>161.25</ele><time>2026-04-26T13:46:42.407Z</time></trkpt><trkpt lat="32.5462867" lon="-8.72567"><ele>161.5</ele><time>2026-04-26T13:46:43.407Z</time></trkpt><trkpt lat="32.5464233" lon="-8.72563"><ele>161.75</ele><time>2026-04-26T13:46:44.407Z</time></trkpt><trkpt lat="32.546555" lon="-8.7255917"><ele>162.0</ele><time>2026-04-26T13:46:45.407Z</time></trkpt><trkpt lat="32.546685" lon="-8.725555"><ele>162.0</ele><time>2026-04-26T13:46:46.407Z</time></trkpt><trkpt lat="32.5468067" lon="-8.7255117"><ele>162.0</ele><time>2026-04-26T13:46:47.407Z</time></trkpt><trkpt lat="32.5469233" lon="-8.7254767"><ele>162.0</ele><time>2026-04-26T13:46:48.408Z</time></trkpt><trkpt lat="32.5470517" lon="-8.7254483"><ele>162.0</ele><time>2026-04-26T13:46:49.407Z</time></trkpt><trkpt lat="32.5471817" lon="-8.7254233"><ele>162.5</ele><time>2026-04-26T13:46:50.407Z</time></trkpt><trkpt lat="32.5473117" lon="-8.7254017"><ele>163.0</ele><time>2026-04-26T13:46:51.407Z</time></trkpt><trkpt lat="32.5474433" lon="-8.7253767"><ele>163.5</ele><time>2026-04-26T13:46:52.407Z</time></trkpt><trkpt lat="32.5475733" lon="-8.7253533"><ele>164.0</ele><time>2026-04-26T13:46:53.407Z</time></trkpt><trkpt lat="32.5477" lon="-8.7253317"><ele>164.0</ele><time>2026-04-26T13:46:54.407Z</time></trkpt><trkpt lat="32.5478217" lon="-8.7253133"><ele>164.0</ele><time>2026-04-26T13:46:55.407Z</time></trkpt><trkpt lat="32.547945" lon="-8.7252983"><ele>164.0</ele><time>2026-04-26T13:46:56.407Z</time></trkpt><trkpt lat="32.5480633" lon="-8.7252833"><ele>164.0</ele><time>2026-04-26T13:46:57.407Z</time></trkpt><trkpt lat="32.54818" lon="-8.7252633"><ele>163.5</ele><time>2026-04-26T13:46:58.407Z</time></trkpt><trkpt lat="32.5482933" lon="-8.725245"><ele>163.0</ele><time>2026-04-26T13:46:59.407Z</time></trkpt><trkpt lat="32.5484117" lon="-8.7252283"><ele>162.5</ele><time>2026-04-26T13:47:00.407Z</time></trkpt><trkpt lat="32.5485417" lon="-8.725215"><ele>162.0</ele><time>2026-04-26T13:47:01.407Z</time></trkpt><trkpt lat="32.5486717" lon="-8.7252"><ele>163.75</ele><time>2026-04-26T13:47:02.407Z</time></trkpt><trkpt lat="32.5487867" lon="-8.725185"><ele>165.5</ele><time>2026-04-26T13:47:03.407Z</time></trkpt><trkpt lat="32.5488983" lon="-8.72517"><ele>167.25</ele><time>2026-04-26T13:47:04.407Z</time></trkpt><trkpt lat="32.5490117" lon="-8.725155"><ele>169.0</ele><time>2026-04-26T13:47:05.407Z</time></trkpt><trkpt lat="32.5491267" lon="-8.72514"><ele>169.0</ele><time>2026-04-26T13:47:06.407Z</time></trkpt><trkpt lat="32.5492433" lon="-8.725125"><ele>169.0</ele><time>2026-04-26T13:47:07.407Z</time></trkpt><trkpt lat="32.54936" lon="-8.725115"><ele>169.0</ele><time>2026-04-26T13:47:08.407Z</time></trkpt><trkpt lat="32.54948" lon="-8.7251"><ele>169.0</ele><time>2026-04-26T13:47:09.407Z</time></trkpt><trkpt lat="32.54961" lon="-8.7250783"><ele>168.75</ele><time>2026-04-26T13:47:10.407Z</time></trkpt><trkpt lat="32.5497317" lon="-8.7250583"><ele>168.5</ele><time>2026-04-26T13:47:11.407Z</time></trkpt><trkpt lat="32.5498567" lon="-8.7250383"><ele>168.25</ele><time>2026-04-26T13:47:12.407Z</time></trkpt><trkpt lat="32.54999" lon="-8.725015"><ele>168.0</ele><time>2026-04-26T13:47:13.407Z</time></trkpt><trkpt lat="32.5501317" lon="-8.7250017"><ele>168.0</ele><time>2026-04-26T13:47:14.408Z</time></trkpt><trkpt lat="32.5502733" lon="-8.7249767"><ele>168.0</ele><time>2026-04-26T13:47:15.407Z</time></trkpt><trkpt lat="32.55042" lon="-8.7249533"><ele>168.0</ele><time>2026-04-26T13:47:16.407Z</time></trkpt><trkpt lat="32.55057" lon="-8.7249333"><ele>168.0</ele><time>2026-04-26T13:47:17.407Z</time></trkpt><trkpt lat="32.5507217" lon="-8.7249133"><ele>166.66666666666666</ele><time>2026-04-26T13:47:18.407Z</time></trkpt><trkpt lat="32.5508733" lon="-8.7248967"><ele>165.33333333333331</ele><time>2026-04-26T13:47:19.407Z</time></trkpt><trkpt lat="32.5510233" lon="-8.7248767"><ele>164.0</ele><time>2026-04-26T13:47:20.407Z</time></trkpt><trkpt lat="32.551175" lon="-8.724855"><ele>163.66666666666666</ele><time>2026-04-26T13:47:21.407Z</time></trkpt><trkpt lat="32.551325" lon="-8.724835"><ele>163.33333333333334</ele><time>2026-04-26T13:47:22.407Z</time></trkpt><trkpt lat="32.5514733" lon="-8.7248117"><ele>163.0</ele><time>2026-04-26T13:47:23.407Z</time></trkpt><trkpt lat="32.5516267" lon="-8.7247933"><ele>163.0</ele><time>2026-04-26T13:47:24.407Z</time></trkpt><trkpt lat="32.5517867" lon="-8.7247783"><ele>163.0</ele><time>2026-04-26T13:47:25.407Z</time></trkpt><trkpt lat="32.5519367" lon="-8.724755"><ele>163.0</ele><time>2026-04-26T13:47:26.408Z</time></trkpt><trkpt lat="32.5520867" lon="-8.7247383"><ele>163.0</ele><time>2026-04-26T13:47:27.407Z</time></trkpt><trkpt lat="32.552235" lon="-8.7247167"><ele>163.0</ele><time>2026-04-26T13:47:28.407Z</time></trkpt><trkpt lat="32.552385" lon="-8.7247083"><ele>163.0</ele><time>2026-04-26T13:47:29.407Z</time></trkpt><trkpt lat="32.5525333" lon="-8.7247"><ele>163.0</ele><time>2026-04-26T13:47:30.407Z</time></trkpt><trkpt lat="32.552675" lon="-8.7246983"><ele>163.0</ele><time>2026-04-26T13:47:31.407Z</time></trkpt><trkpt lat="32.552815" lon="-8.7246967"><ele>163.0</ele><time>2026-04-26T13:47:32.407Z</time></trkpt><trkpt lat="32.5529533" lon="-8.724695"><ele>163.0</ele><time>2026-04-26T13:47:33.407Z</time></trkpt><trkpt lat="32.5530883" lon="-8.7246933"><ele>163.0</ele><time>2026-04-26T13:47:34.407Z</time></trkpt><trkpt lat="32.553225" lon="-8.7246967"><ele>163.25</ele><time>2026-04-26T13:47:35.407Z</time></trkpt><trkpt lat="32.5533567" lon="-8.7246967"><ele>163.5</ele><time>2026-04-26T13:47:36.407Z</time></trkpt><trkpt lat="32.5534883" lon="-8.7247"><ele>163.75</ele><time>2026-04-26T13:47:37.407Z</time></trkpt><trkpt lat="32.5536317" lon="-8.724705"><ele>164.0</ele><time>2026-04-26T13:47:38.407Z</time></trkpt><trkpt lat="32.55377" lon="-8.72471"><ele>164.25</ele><time>2026-04-26T13:47:39.407Z</time></trkpt><trkpt lat="32.5539167" lon="-8.7247183"><ele>164.5</ele><time>2026-04-26T13:47:40.407Z</time></trkpt><trkpt lat="32.5540633" lon="-8.724715"><ele>164.75</ele><time>2026-04-26T13:47:41.407Z</time></trkpt><trkpt lat="32.5542133" lon="-8.7247067"><ele>165.0</ele><time>2026-04-26T13:47:42.407Z</time></trkpt><trkpt lat="32.5543617" lon="-8.724705"><ele>165.0</ele><time>2026-04-26T13:47:43.407Z</time></trkpt><trkpt lat="32.5544983" lon="-8.7247033"><ele>165.0</ele><time>2026-04-26T13:47:44.407Z</time></trkpt><trkpt lat="32.5546283" lon="-8.72471"><ele>165.0</ele><time>2026-04-26T13:47:45.407Z</time></trkpt><trkpt lat="32.5547633" lon="-8.724705"><ele>165.0</ele><time>2026-04-26T13:47:46.407Z</time></trkpt><trkpt lat="32.5549033" lon="-8.7247033"><ele>165.25</ele><time>2026-04-26T13:47:47.407Z</time></trkpt><trkpt lat="32.5550483" lon="-8.7247033"><ele>165.5</ele><time>2026-04-26T13:47:48.407Z</time></trkpt><trkpt lat="32.555195" lon="-8.7247117"><ele>165.75</ele><time>2026-04-26T13:47:49.407Z</time></trkpt><trkpt lat="32.5553433" lon="-8.7247183"><ele>166.0</ele><time>2026-04-26T13:47:50.407Z</time></trkpt><trkpt lat="32.5554833" lon="-8.7247283"><ele>166.75</ele><time>2026-04-26T13:47:51.407Z</time></trkpt><trkpt lat="32.5556167" lon="-8.724745"><ele>167.5</ele><time>2026-04-26T13:47:52.407Z</time></trkpt><trkpt lat="32.5557483" lon="-8.72476"><ele>168.25</ele><time>2026-04-26T13:47:53.407Z</time></trkpt><trkpt lat="32.5558783" lon="-8.7247767"><ele>169.0</ele><time>2026-04-26T13:47:54.407Z</time></trkpt><trkpt lat="32.5560133" lon="-8.7247967"><ele>169.0</ele><time>2026-04-26T13:47:55.407Z</time></trkpt><trkpt lat="32.5561483" lon="-8.7248167"><ele>169.0</ele><time>2026-04-26T13:47:56.407Z</time></trkpt><trkpt lat="32.556285" lon="-8.7248333"><ele>169.0</ele><time>2026-04-26T13:47:57.408Z</time></trkpt><trkpt lat="32.5564267" lon="-8.72485"><ele>169.0</ele><time>2026-04-26T13:47:58.407Z</time></trkpt><trkpt lat="32.5565717" lon="-8.7248733"><ele>169.75</ele><time>2026-04-26T13:47:59.407Z</time></trkpt><trkpt lat="32.5567183" lon="-8.7248983"><ele>170.5</ele><time>2026-04-26T13:48:00.407Z</time></trkpt><trkpt lat="32.5568633" lon="-8.724925"><ele>171.25</ele><time>2026-04-26T13:48:01.407Z</time></trkpt><trkpt lat="32.557015" lon="-8.724945"><ele>172.0</ele><time>2026-04-26T13:48:02.407Z</time></trkpt><trkpt lat="32.557165" lon="-8.724965"><ele>172.0</ele><time>2026-04-26T13:48:03.407Z</time></trkpt><trkpt lat="32.5573217" lon="-8.7249867"><ele>172.0</ele><time>2026-04-26T13:48:04.407Z</time></trkpt><trkpt lat="32.5574833" lon="-8.725015"><ele>172.0</ele><time>2026-04-26T13:48:05.407Z</time></trkpt><trkpt lat="32.5576367" lon="-8.7250467"><ele>172.0</ele><time>2026-04-26T13:48:06.407Z</time></trkpt><trkpt lat="32.5577733" lon="-8.7250767"><ele>172.0</ele><time>2026-04-26T13:48:07.407Z</time></trkpt><trkpt lat="32.5578933" lon="-8.7251017"><ele>172.0</ele><time>2026-04-26T13:48:08.407Z</time></trkpt><trkpt lat="32.558005" lon="-8.7251183"><ele>172.0</ele><time>2026-04-26T13:48:09.407Z</time></trkpt><trkpt lat="32.5581167" lon="-8.7251417"><ele>171.75</ele><time>2026-04-26T13:48:10.407Z</time></trkpt><trkpt lat="32.558235" lon="-8.725165"><ele>171.5</ele><time>2026-04-26T13:48:11.407Z</time></trkpt><trkpt lat="32.558355" lon="-8.7251867"><ele>171.25</ele><time>2026-04-26T13:48:12.408Z</time></trkpt><trkpt lat="32.558475" lon="-8.7252"><ele>171.0</ele><time>2026-04-26T13:48:13.407Z</time></trkpt><trkpt lat="32.558605" lon="-8.725215"><ele>170.66666666666666</ele><time>2026-04-26T13:48:14.407Z</time></trkpt><trkpt lat="32.558745" lon="-8.7252367"><ele>170.33333333333331</ele><time>2026-04-26T13:48:15.407Z</time></trkpt><trkpt lat="32.5588983" lon="-8.7252567"><ele>170.0</ele><time>2026-04-26T13:48:16.407Z</time></trkpt><trkpt lat="32.5590617" lon="-8.7252783"><ele>170.0</ele><time>2026-04-26T13:48:17.407Z</time></trkpt><trkpt lat="32.559235" lon="-8.7252983"><ele>170.0</ele><time>2026-04-26T13:48:18.407Z</time></trkpt><trkpt lat="32.559415" lon="-8.7253117"><ele>170.0</ele><time>2026-04-26T13:48:19.408Z</time></trkpt><trkpt lat="32.559605" lon="-8.72532"><ele>170.33333333333331</ele><time>2026-04-26T13:48:20.408Z</time></trkpt><trkpt lat="32.5597967" lon="-8.72533"><ele>170.66666666666666</ele><time>2026-04-26T13:48:21.407Z</time></trkpt><trkpt lat="32.5599817" lon="-8.7253417"><ele>171.0</ele><time>2026-04-26T13:48:22.407Z</time></trkpt><trkpt lat="32.5601583" lon="-8.72535"><ele>171.0</ele><time>2026-04-26T13:48:23.407Z</time></trkpt><trkpt lat="32.5603317" lon="-8.7253633"><ele>171.0</ele><time>2026-04-26T13:48:24.407Z</time></trkpt><trkpt lat="32.560505" lon="-8.725375"><ele>171.0</ele><time>2026-04-26T13:48:25.407Z</time></trkpt><trkpt lat="32.5606767" lon="-8.7253867"><ele>170.33333333333334</ele><time>2026-04-26T13:48:26.407Z</time></trkpt><trkpt lat="32.560855" lon="-8.7253933"><ele>169.66666666666669</ele><time>2026-04-26T13:48:27.407Z</time></trkpt><trkpt lat="32.5610317" lon="-8.7253983"><ele>169.0</ele><time>2026-04-26T13:48:28.407Z</time></trkpt><trkpt lat="32.5612167" lon="-8.725395"><ele>169.0</ele><time>2026-04-26T13:48:29.407Z</time></trkpt><trkpt lat="32.5614" lon="-8.725385"><ele>169.0</ele><time>2026-04-26T13:48:30.407Z</time></trkpt><trkpt lat="32.5615867" lon="-8.7253683"><ele>169.0</ele><time>2026-04-26T13:48:31.407Z</time></trkpt><trkpt lat="32.561765" lon="-8.7253383"><ele>169.0</ele><time>2026-04-26T13:48:32.407Z</time></trkpt><trkpt lat="32.5619367" lon="-8.72531"><ele>169.0</ele><time>2026-04-26T13:48:33.407Z</time></trkpt><trkpt lat="32.562115" lon="-8.7252717"><ele>169.0</ele><time>2026-04-26T13:48:34.407Z</time></trkpt><trkpt lat="32.5622867" lon="-8.7252233"><ele>168.33333333333334</ele><time>2026-04-26T13:48:35.407Z</time></trkpt><trkpt lat="32.562455" lon="-8.72518"><ele>167.66666666666666</ele><time>2026-04-26T13:48:36.407Z</time></trkpt><trkpt lat="32.5626217" lon="-8.7251217"><ele>167.0</ele><time>2026-04-26T13:48:37.407Z</time></trkpt><trkpt lat="32.5628017" lon="-8.72505"><ele>167.33333333333331</ele><time>2026-04-26T13:48:38.408Z</time></trkpt><trkpt lat="32.5629783" lon="-8.72497"><ele>167.66666666666666</ele><time>2026-04-26T13:48:39.407Z</time></trkpt><trkpt lat="32.563145" lon="-8.724885"><ele>168.0</ele><time>2026-04-26T13:48:40.407Z</time></trkpt><trkpt lat="32.563315" lon="-8.7248017"><ele>168.0</ele><time>2026-04-26T13:48:41.407Z</time></trkpt><trkpt lat="32.5634817" lon="-8.72471"><ele>168.0</ele><time>2026-04-26T13:48:42.407Z</time></trkpt><trkpt lat="32.5636583" lon="-8.7246133"><ele>168.0</ele><time>2026-04-26T13:48:43.407Z</time></trkpt><trkpt lat="32.5638167" lon="-8.724525"><ele>168.0</ele><time>2026-04-26T13:48:44.407Z</time></trkpt><trkpt lat="32.563965" lon="-8.72443"><ele>168.0</ele><time>2026-04-26T13:48:45.408Z</time></trkpt><trkpt lat="32.5641217" lon="-8.7243383"><ele>168.0</ele><time>2026-04-26T13:48:46.407Z</time></trkpt><trkpt lat="32.5642883" lon="-8.724235"><ele>168.0</ele><time>2026-04-26T13:48:47.407Z</time></trkpt><trkpt lat="32.564465" lon="-8.72413"><ele>168.0</ele><time>2026-04-26T13:48:48.407Z</time></trkpt><trkpt lat="32.5646617" lon="-8.7240133"><ele>168.0</ele><time>2026-04-26T13:48:49.407Z</time></trkpt><trkpt lat="32.5648533" lon="-8.7239017"><ele>167.66666666666666</ele><time>2026-04-26T13:48:50.407Z</time></trkpt><trkpt lat="32.5650367" lon="-8.7237917"><ele>167.33333333333331</ele><time>2026-04-26T13:48:51.407Z</time></trkpt><trkpt lat="32.5652217" lon="-8.7236817"><ele>167.0</ele><time>2026-04-26T13:48:52.407Z</time></trkpt><trkpt lat="32.56541" lon="-8.723575"><ele>167.0</ele><time>2026-04-26T13:48:53.407Z</time></trkpt><trkpt lat="32.5655967" lon="-8.7234667"><ele>167.0</ele><time>2026-04-26T13:48:54.407Z</time></trkpt><trkpt lat="32.5657667" lon="-8.7233633"><ele>167.0</ele><time>2026-04-26T13:48:55.407Z</time></trkpt><trkpt lat="32.565945" lon="-8.72326"><ele>167.0</ele><time>2026-04-26T13:48:56.407Z</time></trkpt><trkpt lat="32.5661183" lon="-8.7231567"><ele>167.0</ele><time>2026-04-26T13:48:57.407Z</time></trkpt><trkpt lat="32.5662833" lon="-8.7230567"><ele>167.0</ele><time>2026-04-26T13:48:58.407Z</time></trkpt><trkpt lat="32.5664567" lon="-8.7229583"><ele>166.66666666666666</ele><time>2026-04-26T13:48:59.407Z</time></trkpt><trkpt lat="32.566625" lon="-8.722855"><ele>166.33333333333334</ele><time>2026-04-26T13:49:00.408Z</time></trkpt><trkpt lat="32.5667917" lon="-8.72275"><ele>166.0</ele><time>2026-04-26T13:49:01.408Z</time></trkpt><trkpt lat="32.56696" lon="-8.7226433"><ele>166.0</ele><time>2026-04-26T13:49:02.407Z</time></trkpt><trkpt lat="32.5671333" lon="-8.7225367"><ele>166.0</ele><time>2026-04-26T13:49:03.407Z</time></trkpt><trkpt lat="32.56731" lon="-8.722425"><ele>166.0</ele><time>2026-04-26T13:49:04.407Z</time></trkpt><trkpt lat="32.5674917" lon="-8.7223067"><ele>166.0</ele><time>2026-04-26T13:49:05.407Z</time></trkpt><trkpt lat="32.567675" lon="-8.72219"><ele>166.0</ele><time>2026-04-26T13:49:06.407Z</time></trkpt><trkpt lat="32.5678567" lon="-8.7220633"><ele>166.0</ele><time>2026-04-26T13:49:07.407Z</time></trkpt><trkpt lat="32.56803" lon="-8.7219517"><ele>166.0</ele><time>2026-04-26T13:49:08.407Z</time></trkpt><trkpt lat="32.56819" lon="-8.721835"><ele>166.0</ele><time>2026-04-26T13:49:09.407Z</time></trkpt><trkpt lat="32.56835" lon="-8.7217167"><ele>166.0</ele><time>2026-04-26T13:49:10.407Z</time></trkpt><trkpt lat="32.56851" lon="-8.7216"><ele>166.0</ele><time>2026-04-26T13:49:11.407Z</time></trkpt><trkpt lat="32.5686667" lon="-8.72149"><ele>166.0</ele><time>2026-04-26T13:49:12.408Z</time></trkpt><trkpt lat="32.56883" lon="-8.7213767"><ele>166.0</ele><time>2026-04-26T13:49:13.407Z</time></trkpt><trkpt lat="32.56899" lon="-8.721255"><ele>166.0</ele><time>2026-04-26T13:49:14.407Z</time></trkpt><trkpt lat="32.5691567" lon="-8.7211383"><ele>166.0</ele><time>2026-04-26T13:49:15.407Z</time></trkpt><trkpt lat="32.5693217" lon="-8.7210083"><ele>166.0</ele><time>2026-04-26T13:49:16.407Z</time></trkpt><trkpt lat="32.5694833" lon="-8.7208817"><ele>166.0</ele><time>2026-04-26T13:49:17.407Z</time></trkpt><trkpt lat="32.569655" lon="-8.7207567"><ele>166.0</ele><time>2026-04-26T13:49:18.407Z</time></trkpt><trkpt lat="32.56982" lon="-8.7206317"><ele>166.0</ele><time>2026-04-26T13:49:19.407Z</time></trkpt><trkpt lat="32.5699733" lon="-8.7205083"><ele>166.0</ele><time>2026-04-26T13:49:20.407Z</time></trkpt><trkpt lat="32.5701333" lon="-8.7203867"><ele>166.0</ele><time>2026-04-26T13:49:21.407Z</time></trkpt><trkpt lat="32.5702917" lon="-8.7202617"><ele>166.0</ele><time>2026-04-26T13:49:22.407Z</time></trkpt><trkpt lat="32.57045" lon="-8.72014"><ele>166.33333333333334</ele><time>2026-04-26T13:49:23.407Z</time></trkpt><trkpt lat="32.5706067" lon="-8.7200133"><ele>166.66666666666666</ele><time>2026-04-26T13:49:24.408Z</time></trkpt><trkpt lat="32.5707667" lon="-8.719885"><ele>167.0</ele><time>2026-04-26T13:49:25.407Z</time></trkpt><trkpt lat="32.570925" lon="-8.71976"><ele>167.0</ele><time>2026-04-26T13:49:26.407Z</time></trkpt><trkpt lat="32.5710883" lon="-8.7196367"><ele>167.0</ele><time>2026-04-26T13:49:27.407Z</time></trkpt><trkpt lat="32.5712567" lon="-8.7195167"><ele>167.0</ele><time>2026-04-26T13:49:28.407Z</time></trkpt><trkpt lat="32.5714317" lon="-8.719395"><ele>167.0</ele><time>2026-04-26T13:49:29.407Z</time></trkpt><trkpt lat="32.5716133" lon="-8.71927"><ele>167.0</ele><time>2026-04-26T13:49:30.407Z</time></trkpt><trkpt lat="32.5718017" lon="-8.71915"><ele>167.0</ele><time>2026-04-26T13:49:31.407Z</time></trkpt><trkpt lat="32.571995" lon="-8.7190367"><ele>166.33333333333331</ele><time>2026-04-26T13:49:32.407Z</time></trkpt><trkpt lat="32.5721967" lon="-8.7189233"><ele>165.66666666666666</ele><time>2026-04-26T13:49:33.407Z</time></trkpt><trkpt lat="32.572395" lon="-8.7188117"><ele>165.0</ele><time>2026-04-26T13:49:34.407Z</time></trkpt><trkpt lat="32.5725883" lon="-8.7187083"><ele>165.0</ele><time>2026-04-26T13:49:35.407Z</time></trkpt><trkpt lat="32.57277" lon="-8.7186117"><ele>165.0</ele><time>2026-04-26T13:49:36.407Z</time></trkpt><trkpt lat="32.57294" lon="-8.7185183"><ele>165.0</ele><time>2026-04-26T13:49:37.407Z</time></trkpt><trkpt lat="32.5731133" lon="-8.7184217"><ele>165.0</ele><time>2026-04-26T13:49:38.407Z</time></trkpt><trkpt lat="32.57329" lon="-8.71833"><ele>165.0</ele><time>2026-04-26T13:49:39.407Z</time></trkpt><trkpt lat="32.5734633" lon="-8.7182383"><ele>165.0</ele><time>2026-04-26T13:49:40.407Z</time></trkpt><trkpt lat="32.5736483" lon="-8.7181417"><ele>165.0</ele><time>2026-04-26T13:49:41.407Z</time></trkpt><trkpt lat="32.5738417" lon="-8.7180433"><ele>165.0</ele><time>2026-04-26T13:49:42.407Z</time></trkpt><trkpt lat="32.5740267" lon="-8.7179433"><ele>165.0</ele><time>2026-04-26T13:49:43.407Z</time></trkpt><trkpt lat="32.5742117" lon="-8.7178467"><ele>165.0</ele><time>2026-04-26T13:49:44.407Z</time></trkpt><trkpt lat="32.5743917" lon="-8.7177517"><ele>165.0</ele><time>2026-04-26T13:49:45.407Z</time></trkpt><trkpt lat="32.57457" lon="-8.7176683"><ele>165.0</ele><time>2026-04-26T13:49:46.407Z</time></trkpt><trkpt lat="32.57474" lon="-8.717585"><ele>164.33333333333334</ele><time>2026-04-26T13:49:47.407Z</time></trkpt><trkpt lat="32.5749067" lon="-8.717505"><ele>163.66666666666669</ele><time>2026-04-26T13:49:48.407Z</time></trkpt><trkpt lat="32.5750833" lon="-8.717415"><ele>163.0</ele><time>2026-04-26T13:49:49.407Z</time></trkpt><trkpt lat="32.5752667" lon="-8.717315"><ele>163.33333333333334</ele><time>2026-04-26T13:49:50.407Z</time></trkpt><trkpt lat="32.5754533" lon="-8.7172117"><ele>163.66666666666666</ele><time>2026-04-26T13:49:51.408Z</time></trkpt><trkpt lat="32.5756433" lon="-8.71711"><ele>164.0</ele><time>2026-04-26T13:49:52.407Z</time></trkpt><trkpt lat="32.57583" lon="-8.7170117"><ele>164.0</ele><time>2026-04-26T13:49:53.407Z</time></trkpt><trkpt lat="32.5760133" lon="-8.7169067"><ele>164.0</ele><time>2026-04-26T13:49:54.407Z</time></trkpt><trkpt lat="32.5762033" lon="-8.716805"><ele>164.0</ele><time>2026-04-26T13:49:55.407Z</time></trkpt><trkpt lat="32.5764167" lon="-8.7166933"><ele>164.0</ele><time>2026-04-26T13:49:56.407Z</time></trkpt><trkpt lat="32.5766233" lon="-8.7165867"><ele>164.0</ele><time>2026-04-26T13:49:57.407Z</time></trkpt><trkpt lat="32.5768133" lon="-8.7164833"><ele>164.0</ele><time>2026-04-26T13:49:58.407Z</time></trkpt><trkpt lat="32.577005" lon="-8.7163817"><ele>164.33333333333331</ele><time>2026-04-26T13:49:59.407Z</time></trkpt><trkpt lat="32.577195" lon="-8.7162833"><ele>164.66666666666666</ele><time>2026-04-26T13:50:00.408Z</time></trkpt><trkpt lat="32.577385" lon="-8.7161833"><ele>165.0</ele><time>2026-04-26T13:50:01.407Z</time></trkpt><trkpt lat="32.577575" lon="-8.7160817"><ele>164.66666666666666</ele><time>2026-04-26T13:50:02.407Z</time></trkpt><trkpt lat="32.577765" lon="-8.7159833"><ele>164.33333333333331</ele><time>2026-04-26T13:50:03.407Z</time></trkpt><trkpt lat="32.5779533" lon="-8.7158833"><ele>164.0</ele><time>2026-04-26T13:50:04.407Z</time></trkpt><trkpt lat="32.57814" lon="-8.7157833"><ele>163.66666666666666</ele><time>2026-04-26T13:50:05.406Z</time></trkpt><trkpt lat="32.5783267" lon="-8.715685"><ele>163.33333333333334</ele><time>2026-04-26T13:50:06.406Z</time></trkpt><trkpt lat="32.5785133" lon="-8.7155883"><ele>163.0</ele><time>2026-04-26T13:50:07.406Z</time></trkpt><trkpt lat="32.5786983" lon="-8.7154933"><ele>162.66666666666669</ele><time>2026-04-26T13:50:08.406Z</time></trkpt><trkpt lat="32.5788717" lon="-8.7154"><ele>162.33333333333334</ele><time>2026-04-26T13:50:09.406Z</time></trkpt><trkpt lat="32.579035" lon="-8.71531"><ele>162.0</ele><time>2026-04-26T13:50:10.407Z</time></trkpt><trkpt lat="32.57919" lon="-8.7152233"><ele>162.0</ele><time>2026-04-26T13:50:11.406Z</time></trkpt><trkpt lat="32.5793317" lon="-8.7151367"><ele>162.0</ele><time>2026-04-26T13:50:12.406Z</time></trkpt><trkpt lat="32.579475" lon="-8.7150533"><ele>162.0</ele><time>2026-04-26T13:50:13.406Z</time></trkpt><trkpt lat="32.579615" lon="-8.71496"><ele>162.0</ele><time>2026-04-26T13:50:14.406Z</time></trkpt><trkpt lat="32.5797533" lon="-8.714865"><ele>162.0</ele><time>2026-04-26T13:50:15.406Z</time></trkpt><trkpt lat="32.579895" lon="-8.714765"><ele>162.0</ele><time>2026-04-26T13:50:16.406Z</time></trkpt><trkpt lat="32.5800383" lon="-8.7146633"><ele>162.0</ele><time>2026-04-26T13:50:17.406Z</time></trkpt><trkpt lat="32.5801867" lon="-8.7145583"><ele>162.0</ele><time>2026-04-26T13:50:18.406Z</time></trkpt><trkpt lat="32.5803383" lon="-8.7144567"><ele>162.0</ele><time>2026-04-26T13:50:19.406Z</time></trkpt><trkpt lat="32.5804767" lon="-8.71435"><ele>163.0</ele><time>2026-04-26T13:50:20.406Z</time></trkpt><trkpt lat="32.5806117" lon="-8.7142567"><ele>164.0</ele><time>2026-04-26T13:50:21.406Z</time></trkpt><trkpt lat="32.580735" lon="-8.71416"><ele>165.0</ele><time>2026-04-26T13:50:22.406Z</time></trkpt><trkpt lat="32.58085" lon="-8.7140733"><ele>166.0</ele><time>2026-04-26T13:50:23.406Z</time></trkpt><trkpt lat="32.5809667" lon="-8.7139833"><ele>166.0</ele><time>2026-04-26T13:50:24.406Z</time></trkpt><trkpt lat="32.5810817" lon="-8.7138933"><ele>166.0</ele><time>2026-04-26T13:50:25.406Z</time></trkpt><trkpt lat="32.5812" lon="-8.713805"><ele>166.0</ele><time>2026-04-26T13:50:26.406Z</time></trkpt><trkpt lat="32.581315" lon="-8.71372"><ele>166.0</ele><time>2026-04-26T13:50:27.406Z</time></trkpt><trkpt lat="32.5814317" lon="-8.7136333"><ele>166.5</ele><time>2026-04-26T13:50:28.406Z</time></trkpt><trkpt lat="32.5815483" lon="-8.7135533"><ele>167.0</ele><time>2026-04-26T13:50:29.406Z</time></trkpt><trkpt lat="32.581665" lon="-8.7134667"><ele>167.5</ele><time>2026-04-26T13:50:30.406Z</time></trkpt><trkpt lat="32.5817783" lon="-8.7133833"><ele>168.0</ele><time>2026-04-26T13:50:31.406Z</time></trkpt><trkpt lat="32.5818967" lon="-8.7132967"><ele>168.25</ele><time>2026-04-26T13:50:32.407Z</time></trkpt><trkpt lat="32.5820183" lon="-8.7132083"><ele>168.5</ele><time>2026-04-26T13:50:33.406Z</time></trkpt><trkpt lat="32.5821417" lon="-8.71312"><ele>168.75</ele><time>2026-04-26T13:50:34.406Z</time></trkpt><trkpt lat="32.5822633" lon="-8.7130267"><ele>169.0</ele><time>2026-04-26T13:50:35.406Z</time></trkpt><trkpt lat="32.5823933" lon="-8.7129283"><ele>169.0</ele><time>2026-04-26T13:50:36.406Z</time></trkpt><trkpt lat="32.58252" lon="-8.7128333"><ele>169.0</ele><time>2026-04-26T13:50:37.406Z</time></trkpt><trkpt lat="32.5826467" lon="-8.712735"><ele>169.0</ele><time>2026-04-26T13:50:38.406Z</time></trkpt><trkpt lat="32.582775" lon="-8.712645"><ele>169.0</ele><time>2026-04-26T13:50:39.406Z</time></trkpt><trkpt lat="32.5829083" lon="-8.7125583"><ele>169.0</ele><time>2026-04-26T13:50:40.406Z</time></trkpt><trkpt lat="32.5830467" lon="-8.7124733"><ele>169.0</ele><time>2026-04-26T13:50:41.406Z</time></trkpt><trkpt lat="32.58318" lon="-8.712385"><ele>169.0</ele><time>2026-04-26T13:50:42.406Z</time></trkpt><trkpt lat="32.583315" lon="-8.7123017"><ele>169.0</ele><time>2026-04-26T13:50:43.407Z</time></trkpt><trkpt lat="32.5834417" lon="-8.7122233"><ele>169.0</ele><time>2026-04-26T13:50:44.406Z</time></trkpt><trkpt lat="32.5835683" lon="-8.71215"><ele>169.0</ele><time>2026-04-26T13:50:45.406Z</time></trkpt><trkpt lat="32.583695" lon="-8.7120783"><ele>169.0</ele><time>2026-04-26T13:50:46.406Z</time></trkpt><trkpt lat="32.583825" lon="-8.7120133"><ele>169.0</ele><time>2026-04-26T13:50:47.406Z</time></trkpt><trkpt lat="32.5839417" lon="-8.711945"><ele>169.0</ele><time>2026-04-26T13:50:48.406Z</time></trkpt><trkpt lat="32.584065" lon="-8.7118767"><ele>169.0</ele><time>2026-04-26T13:50:49.406Z</time></trkpt><trkpt lat="32.584195" lon="-8.7118067"><ele>169.25</ele><time>2026-04-26T13:50:50.406Z</time></trkpt><trkpt lat="32.5843267" lon="-8.7117417"><ele>169.5</ele><time>2026-04-26T13:50:51.406Z</time></trkpt><trkpt lat="32.5844567" lon="-8.7116717"><ele>169.75</ele><time>2026-04-26T13:50:52.406Z</time></trkpt><trkpt lat="32.5845917" lon="-8.7115983"><ele>170.0</ele><time>2026-04-26T13:50:53.406Z</time></trkpt><trkpt lat="32.5847283" lon="-8.7115283"><ele>169.33333333333331</ele><time>2026-04-26T13:50:54.406Z</time></trkpt><trkpt lat="32.5848683" lon="-8.7114567"><ele>168.66666666666666</ele><time>2026-04-26T13:50:55.406Z</time></trkpt><trkpt lat="32.585015" lon="-8.71138"><ele>168.0</ele><time>2026-04-26T13:50:56.406Z</time></trkpt><trkpt lat="32.5851617" lon="-8.71131"><ele>168.0</ele><time>2026-04-26T13:50:57.406Z</time></trkpt><trkpt lat="32.5853183" lon="-8.7112483"><ele>168.0</ele><time>2026-04-26T13:50:58.406Z</time></trkpt><trkpt lat="32.58547" lon="-8.71119"><ele>168.0</ele><time>2026-04-26T13:50:59.406Z</time></trkpt><trkpt lat="32.58563" lon="-8.711135"><ele>168.66666666666666</ele><time>2026-04-26T13:51:00.406Z</time></trkpt><trkpt lat="32.5857833" lon="-8.7110717"><ele>169.33333333333331</ele><time>2026-04-26T13:51:01.406Z</time></trkpt><trkpt lat="32.5859383" lon="-8.7110117"><ele>170.0</ele><time>2026-04-26T13:51:02.406Z</time></trkpt><trkpt lat="32.5860917" lon="-8.7109467"><ele>170.0</ele><time>2026-04-26T13:51:03.406Z</time></trkpt><trkpt lat="32.586245" lon="-8.7108867"><ele>170.0</ele><time>2026-04-26T13:51:04.406Z</time></trkpt><trkpt lat="32.5863883" lon="-8.7108317"><ele>170.0</ele><time>2026-04-26T13:51:05.406Z</time></trkpt><trkpt lat="32.5865267" lon="-8.7107783"><ele>170.0</ele><time>2026-04-26T13:51:06.406Z</time></trkpt><trkpt lat="32.5866683" lon="-8.7107183"><ele>170.0</ele><time>2026-04-26T13:51:07.406Z</time></trkpt><trkpt lat="32.586815" lon="-8.7106617"><ele>170.0</ele><time>2026-04-26T13:51:08.406Z</time></trkpt><trkpt lat="32.5869667" lon="-8.7105983"><ele>169.75</ele><time>2026-04-26T13:51:09.406Z</time></trkpt><trkpt lat="32.5871033" lon="-8.71055"><ele>169.5</ele><time>2026-04-26T13:51:10.406Z</time></trkpt><trkpt lat="32.5872367" lon="-8.7105"><ele>169.25</ele><time>2026-04-26T13:51:11.407Z</time></trkpt><trkpt lat="32.587365" lon="-8.7104533"><ele>169.0</ele><time>2026-04-26T13:51:12.406Z</time></trkpt><trkpt lat="32.58748" lon="-8.7104033"><ele>169.0</ele><time>2026-04-26T13:51:13.406Z</time></trkpt><trkpt lat="32.58759" lon="-8.7103533"><ele>169.0</ele><time>2026-04-26T13:51:14.406Z</time></trkpt><trkpt lat="32.587695" lon="-8.7103083"><ele>169.0</ele><time>2026-04-26T13:51:15.406Z</time></trkpt><trkpt lat="32.5877917" lon="-8.710265"><ele>169.0</ele><time>2026-04-26T13:51:16.406Z</time></trkpt><trkpt lat="32.5878717" lon="-8.7102133"><ele>169.0</ele><time>2026-04-26T13:51:17.406Z</time></trkpt><trkpt lat="32.58795" lon="-8.7101667"><ele>169.2</ele><time>2026-04-26T13:51:18.406Z</time></trkpt><trkpt lat="32.5880333" lon="-8.7101367"><ele>169.39999999999998</ele><time>2026-04-26T13:51:19.406Z</time></trkpt><trkpt lat="32.588125" lon="-8.710115"><ele>169.6</ele><time>2026-04-26T13:51:20.406Z</time></trkpt><trkpt lat="32.5882267" lon="-8.7100833"><ele>169.8</ele><time>2026-04-26T13:51:21.406Z</time></trkpt><trkpt lat="32.5883517" lon="-8.7100467"><ele>170.0</ele><time>2026-04-26T13:51:22.406Z</time></trkpt><trkpt lat="32.588485" lon="-8.7100033"><ele>170.0</ele><time>2026-04-26T13:51:23.406Z</time></trkpt><trkpt lat="32.588625" lon="-8.7099583"><ele>170.0</ele><time>2026-04-26T13:51:24.406Z</time></trkpt><trkpt lat="32.588775" lon="-8.7099"><ele>170.0</ele><time>2026-04-26T13:51:25.406Z</time></trkpt><trkpt lat="32.58893" lon="-8.7098317"><ele>170.0</ele><time>2026-04-26T13:51:26.406Z</time></trkpt><trkpt lat="32.5890733" lon="-8.7097717"><ele>170.0</ele><time>2026-04-26T13:51:27.406Z</time></trkpt><trkpt lat="32.5892117" lon="-8.7097117"><ele>170.0</ele><time>2026-04-26T13:51:28.406Z</time></trkpt><trkpt lat="32.5893467" lon="-8.7096617"><ele>170.0</ele><time>2026-04-26T13:51:29.406Z</time></trkpt><trkpt lat="32.5894867" lon="-8.7096117"><ele>170.0</ele><time>2026-04-26T13:51:30.406Z</time></trkpt><trkpt lat="32.58963" lon="-8.7095617"><ele>170.0</ele><time>2026-04-26T13:51:31.406Z</time></trkpt><trkpt lat="32.589785" lon="-8.7095033"><ele>170.0</ele><time>2026-04-26T13:51:32.406Z</time></trkpt><trkpt lat="32.589945" lon="-8.7094433"><ele>170.0</ele><time>2026-04-26T13:51:33.406Z</time></trkpt><trkpt lat="32.5901117" lon="-8.7093833"><ele>170.0</ele><time>2026-04-26T13:51:34.406Z</time></trkpt><trkpt lat="32.5902883" lon="-8.70932"><ele>170.0</ele><time>2026-04-26T13:51:35.406Z</time></trkpt><trkpt lat="32.59047" lon="-8.7092567"><ele>170.33333333333331</ele><time>2026-04-26T13:51:36.406Z</time></trkpt><trkpt lat="32.590655" lon="-8.70919"><ele>170.66666666666666</ele><time>2026-04-26T13:51:37.406Z</time></trkpt><trkpt lat="32.5908517" lon="-8.7091217"><ele>171.0</ele><time>2026-04-26T13:51:38.406Z</time></trkpt><trkpt lat="32.5910533" lon="-8.709045"><ele>170.66666666666666</ele><time>2026-04-26T13:51:39.406Z</time></trkpt><trkpt lat="32.59125" lon="-8.70897"><ele>170.33333333333331</ele><time>2026-04-26T13:51:40.406Z</time></trkpt><trkpt lat="32.5914383" lon="-8.7088917"><ele>170.0</ele><time>2026-04-26T13:51:41.406Z</time></trkpt><trkpt lat="32.5916333" lon="-8.7088083"><ele>170.0</ele><time>2026-04-26T13:51:42.406Z</time></trkpt><trkpt lat="32.591835" lon="-8.708725"><ele>170.0</ele><time>2026-04-26T13:51:43.406Z</time></trkpt><trkpt lat="32.5920383" lon="-8.7086433"><ele>170.0</ele><time>2026-04-26T13:51:44.406Z</time></trkpt><trkpt lat="32.592245" lon="-8.7085683"><ele>170.33333333333331</ele><time>2026-04-26T13:51:45.407Z</time></trkpt><trkpt lat="32.5924417" lon="-8.7085"><ele>170.66666666666666</ele><time>2026-04-26T13:51:46.406Z</time></trkpt><trkpt lat="32.5926283" lon="-8.70843"><ele>171.0</ele><time>2026-04-26T13:51:47.406Z</time></trkpt><trkpt lat="32.592815" lon="-8.7083667"><ele>170.66666666666666</ele><time>2026-04-26T13:51:48.406Z</time></trkpt><trkpt lat="32.5929983" lon="-8.7083033"><ele>170.33333333333331</ele><time>2026-04-26T13:51:49.406Z</time></trkpt><trkpt lat="32.5931867" lon="-8.70824"><ele>170.0</ele><time>2026-04-26T13:51:50.406Z</time></trkpt><trkpt lat="32.5933833" lon="-8.708175"><ele>170.0</ele><time>2026-04-26T13:51:51.406Z</time></trkpt><trkpt lat="32.593585" lon="-8.70811"><ele>170.0</ele><time>2026-04-26T13:51:52.406Z</time></trkpt><trkpt lat="32.59379" lon="-8.7080517"><ele>170.0</ele><time>2026-04-26T13:51:53.406Z</time></trkpt><trkpt lat="32.5939867" lon="-8.7079967"><ele>170.33333333333331</ele><time>2026-04-26T13:51:54.406Z</time></trkpt><trkpt lat="32.5941817" lon="-8.7079367"><ele>170.66666666666666</ele><time>2026-04-26T13:51:55.406Z</time></trkpt><trkpt lat="32.5943733" lon="-8.707875"><ele>171.0</ele><time>2026-04-26T13:51:56.406Z</time></trkpt><trkpt lat="32.5945667" lon="-8.7078167"><ele>170.33333333333334</ele><time>2026-04-26T13:51:57.406Z</time></trkpt><trkpt lat="32.5947617" lon="-8.7077583"><ele>169.66666666666669</ele><time>2026-04-26T13:51:58.406Z</time></trkpt><trkpt lat="32.5949667" lon="-8.7077033"><ele>169.0</ele><time>2026-04-26T13:51:59.406Z</time></trkpt><trkpt lat="32.595175" lon="-8.7076417"><ele>168.66666666666669</ele><time>2026-04-26T13:52:00.406Z</time></trkpt><trkpt lat="32.5953883" lon="-8.707575"><ele>168.33333333333334</ele><time>2026-04-26T13:52:01.407Z</time></trkpt><trkpt lat="32.5955967" lon="-8.707505"><ele>168.0</ele><time>2026-04-26T13:52:02.406Z</time></trkpt><trkpt lat="32.5958033" lon="-8.7074417"><ele>168.0</ele><time>2026-04-26T13:52:03.406Z</time></trkpt><trkpt lat="32.5959967" lon="-8.7073817"><ele>168.0</ele><time>2026-04-26T13:52:04.406Z</time></trkpt><trkpt lat="32.5961933" lon="-8.7073233"><ele>168.0</ele><time>2026-04-26T13:52:05.406Z</time></trkpt><trkpt lat="32.5963833" lon="-8.7072683"><ele>167.66666666666666</ele><time>2026-04-26T13:52:06.406Z</time></trkpt><trkpt lat="32.5965667" lon="-8.707215"><ele>167.33333333333331</ele><time>2026-04-26T13:52:07.406Z</time></trkpt><trkpt lat="32.5967417" lon="-8.7071633"><ele>167.0</ele><time>2026-04-26T13:52:08.406Z</time></trkpt><trkpt lat="32.5969067" lon="-8.707115"><ele>167.33333333333331</ele><time>2026-04-26T13:52:09.406Z</time></trkpt><trkpt lat="32.5970817" lon="-8.7070717"><ele>167.66666666666666</ele><time>2026-04-26T13:52:10.406Z</time></trkpt><trkpt lat="32.5972633" lon="-8.7070267"><ele>168.0</ele><time>2026-04-26T13:52:11.406Z</time></trkpt><trkpt lat="32.5974483" lon="-8.70698"><ele>168.0</ele><time>2026-04-26T13:52:12.406Z</time></trkpt><trkpt lat="32.5976367" lon="-8.706935"><ele>168.0</ele><time>2026-04-26T13:52:13.406Z</time></trkpt><trkpt lat="32.5978267" lon="-8.7068817"><ele>168.0</ele><time>2026-04-26T13:52:14.406Z</time></trkpt><trkpt lat="32.5980183" lon="-8.70682"><ele>168.0</ele><time>2026-04-26T13:52:15.406Z</time></trkpt><trkpt lat="32.5982017" lon="-8.7067583"><ele>168.0</ele><time>2026-04-26T13:52:16.406Z</time></trkpt><trkpt lat="32.5983867" lon="-8.7067033"><ele>168.0</ele><time>2026-04-26T13:52:17.406Z</time></trkpt><trkpt lat="32.5985633" lon="-8.7066533"><ele>168.0</ele><time>2026-04-26T13:52:18.406Z</time></trkpt><trkpt lat="32.598745" lon="-8.7066033"><ele>168.0</ele><time>2026-04-26T13:52:19.406Z</time></trkpt><trkpt lat="32.5989317" lon="-8.706545"><ele>168.0</ele><time>2026-04-26T13:52:20.406Z</time></trkpt><trkpt lat="32.5991183" lon="-8.7064883"><ele>168.0</ele><time>2026-04-26T13:52:21.406Z</time></trkpt><trkpt lat="32.599305" lon="-8.706435"><ele>168.0</ele><time>2026-04-26T13:52:22.406Z</time></trkpt><trkpt lat="32.5994867" lon="-8.70638"><ele>168.0</ele><time>2026-04-26T13:52:23.406Z</time></trkpt><trkpt lat="32.5996633" lon="-8.7063283"><ele>168.33333333333334</ele><time>2026-04-26T13:52:24.406Z</time></trkpt><trkpt lat="32.5998367" lon="-8.7062733"><ele>168.66666666666669</ele><time>2026-04-26T13:52:25.406Z</time></trkpt><trkpt lat="32.6000083" lon="-8.7062217"><ele>169.0</ele><time>2026-04-26T13:52:26.406Z</time></trkpt><trkpt lat="32.6001833" lon="-8.706165"><ele>169.0</ele><time>2026-04-26T13:52:27.406Z</time></trkpt><trkpt lat="32.6003583" lon="-8.7061167"><ele>169.0</ele><time>2026-04-26T13:52:28.406Z</time></trkpt><trkpt lat="32.60053" lon="-8.706075"><ele>169.0</ele><time>2026-04-26T13:52:29.406Z</time></trkpt><trkpt lat="32.6006983" lon="-8.7060317"><ele>168.75</ele><time>2026-04-26T13:52:30.406Z</time></trkpt><trkpt lat="32.6008617" lon="-8.705985"><ele>168.5</ele><time>2026-04-26T13:52:31.406Z</time></trkpt><trkpt lat="32.6010117" lon="-8.7059433"><ele>168.25</ele><time>2026-04-26T13:52:32.406Z</time></trkpt><trkpt lat="32.60113" lon="-8.7059117"><ele>168.0</ele><time>2026-04-26T13:52:33.406Z</time></trkpt><trkpt lat="32.601245" lon="-8.7058817"><ele>168.0</ele><time>2026-04-26T13:52:34.406Z</time></trkpt><trkpt lat="32.6013767" lon="-8.705845"><ele>168.0</ele><time>2026-04-26T13:52:35.406Z</time></trkpt><trkpt lat="32.6015217" lon="-8.7057933"><ele>168.0</ele><time>2026-04-26T13:52:36.406Z</time></trkpt><trkpt lat="32.601665" lon="-8.70575"><ele>168.0</ele><time>2026-04-26T13:52:37.406Z</time></trkpt><trkpt lat="32.6018017" lon="-8.705705"><ele>168.0</ele><time>2026-04-26T13:52:38.407Z</time></trkpt><trkpt lat="32.6019417" lon="-8.7056617"><ele>168.0</ele><time>2026-04-26T13:52:39.406Z</time></trkpt><trkpt lat="32.6020883" lon="-8.7056217"><ele>168.0</ele><time>2026-04-26T13:52:40.406Z</time></trkpt><trkpt lat="32.6022417" lon="-8.7055817"><ele>168.0</ele><time>2026-04-26T13:52:41.406Z</time></trkpt><trkpt lat="32.6023967" lon="-8.7055433"><ele>168.0</ele><time>2026-04-26T13:52:42.406Z</time></trkpt><trkpt lat="32.602555" lon="-8.7054983"><ele>168.0</ele><time>2026-04-26T13:52:43.406Z</time></trkpt><trkpt lat="32.6027167" lon="-8.7054483"><ele>167.66666666666666</ele><time>2026-04-26T13:52:44.406Z</time></trkpt><trkpt lat="32.602885" lon="-8.7054017"><ele>167.33333333333331</ele><time>2026-04-26T13:52:45.406Z</time></trkpt><trkpt lat="32.6030617" lon="-8.7053567"><ele>167.0</ele><time>2026-04-26T13:52:46.406Z</time></trkpt><trkpt lat="32.6032467" lon="-8.705315"><ele>167.0</ele><time>2026-04-26T13:52:47.406Z</time></trkpt><trkpt lat="32.6034367" lon="-8.70527"><ele>167.0</ele><time>2026-04-26T13:52:48.406Z</time></trkpt><trkpt lat="32.6036283" lon="-8.705225"><ele>167.0</ele><time>2026-04-26T13:52:49.406Z</time></trkpt><trkpt lat="32.6038233" lon="-8.7051867"><ele>167.0</ele><time>2026-04-26T13:52:50.406Z</time></trkpt><trkpt lat="32.60402" lon="-8.7051483"><ele>167.0</ele><time>2026-04-26T13:52:51.406Z</time></trkpt><trkpt lat="32.6042233" lon="-8.7051167"><ele>167.0</ele><time>2026-04-26T13:52:52.406Z</time></trkpt><trkpt lat="32.6044267" lon="-8.705085"><ele>166.66666666666666</ele><time>2026-04-26T13:52:53.406Z</time></trkpt><trkpt lat="32.6046267" lon="-8.7050533"><ele>166.33333333333334</ele><time>2026-04-26T13:52:54.406Z</time></trkpt><trkpt lat="32.6048367" lon="-8.7050233"><ele>166.0</ele><time>2026-04-26T13:52:55.406Z</time></trkpt><trkpt lat="32.6050467" lon="-8.7049983"><ele>166.0</ele><time>2026-04-26T13:52:56.406Z</time></trkpt><trkpt lat="32.6052467" lon="-8.70498"><ele>166.0</ele><time>2026-04-26T13:52:57.406Z</time></trkpt><trkpt lat="32.60544" lon="-8.704965"><ele>166.0</ele><time>2026-04-26T13:52:58.406Z</time></trkpt><trkpt lat="32.6056267" lon="-8.7049517"><ele>166.33333333333334</ele><time>2026-04-26T13:52:59.406Z</time></trkpt><trkpt lat="32.6058083" lon="-8.7049367"><ele>166.66666666666666</ele><time>2026-04-26T13:53:00.406Z</time></trkpt><trkpt lat="32.6059867" lon="-8.7049183"><ele>167.0</ele><time>2026-04-26T13:53:01.406Z</time></trkpt><trkpt lat="32.6061683" lon="-8.7049067"><ele>167.0</ele><time>2026-04-26T13:53:02.406Z</time></trkpt><trkpt lat="32.60634" lon="-8.7048983"><ele>167.0</ele><time>2026-04-26T13:53:03.406Z</time></trkpt><trkpt lat="32.6065033" lon="-8.7048933"><ele>167.0</ele><time>2026-04-26T13:53:04.407Z</time></trkpt><trkpt lat="32.6066567" lon="-8.704885"><ele>167.0</ele><time>2026-04-26T13:53:05.406Z</time></trkpt><trkpt lat="32.6067967" lon="-8.7048783"><ele>167.0</ele><time>2026-04-26T13:53:06.406Z</time></trkpt><trkpt lat="32.60693" lon="-8.7048717"><ele>167.0</ele><time>2026-04-26T13:53:07.407Z</time></trkpt><trkpt lat="32.6070617" lon="-8.70487"><ele>167.0</ele><time>2026-04-26T13:53:08.406Z</time></trkpt><trkpt lat="32.6071867" lon="-8.70487"><ele>166.8</ele><time>2026-04-26T13:53:09.407Z</time></trkpt><trkpt lat="32.6073033" lon="-8.7048633"><ele>166.6</ele><time>2026-04-26T13:53:10.406Z</time></trkpt><trkpt lat="32.6074167" lon="-8.7048583"><ele>166.4</ele><time>2026-04-26T13:53:11.406Z</time></trkpt><trkpt lat="32.60752" lon="-8.704855"><ele>166.20000000000002</ele><time>2026-04-26T13:53:12.406Z</time></trkpt><trkpt lat="32.6076267" lon="-8.7048517"><ele>166.0</ele><time>2026-04-26T13:53:13.406Z</time></trkpt><trkpt lat="32.6077317" lon="-8.70485"><ele>166.0</ele><time>2026-04-26T13:53:14.406Z</time></trkpt><trkpt lat="32.6078417" lon="-8.7048467"><ele>166.0</ele><time>2026-04-26T13:53:15.406Z</time></trkpt><trkpt lat="32.6079567" lon="-8.7048433"><ele>166.0</ele><time>2026-04-26T13:53:16.406Z</time></trkpt><trkpt lat="32.6080817" lon="-8.7048383"><ele>166.0</ele><time>2026-04-26T13:53:17.406Z</time></trkpt><trkpt lat="32.6082133" lon="-8.7048267"><ele>166.0</ele><time>2026-04-26T13:53:18.406Z</time></trkpt><trkpt lat="32.608355" lon="-8.704815"><ele>166.0</ele><time>2026-04-26T13:53:19.406Z</time></trkpt><trkpt lat="32.608505" lon="-8.7048017"><ele>166.0</ele><time>2026-04-26T13:53:20.406Z</time></trkpt><trkpt lat="32.6086617" lon="-8.7047917"><ele>166.0</ele><time>2026-04-26T13:53:21.406Z</time></trkpt><trkpt lat="32.6088217" lon="-8.70478"><ele>166.0</ele><time>2026-04-26T13:53:22.406Z</time></trkpt><trkpt lat="32.6089917" lon="-8.7047717"><ele>166.0</ele><time>2026-04-26T13:53:23.407Z</time></trkpt><trkpt lat="32.6091633" lon="-8.7047583"><ele>166.0</ele><time>2026-04-26T13:53:24.406Z</time></trkpt><trkpt lat="32.609345" lon="-8.704745"><ele>165.33333333333334</ele><time>2026-04-26T13:53:25.406Z</time></trkpt><trkpt lat="32.6095317" lon="-8.704735"><ele>164.66666666666666</ele><time>2026-04-26T13:53:26.406Z</time></trkpt><trkpt lat="32.6097317" lon="-8.7047267"><ele>164.0</ele><time>2026-04-26T13:53:27.406Z</time></trkpt><trkpt lat="32.6099283" lon="-8.7047233"><ele>164.0</ele><time>2026-04-26T13:53:28.406Z</time></trkpt><trkpt lat="32.6101117" lon="-8.70472"><ele>164.0</ele><time>2026-04-26T13:53:29.407Z</time></trkpt><trkpt lat="32.6102917" lon="-8.704715"><ele>164.0</ele><time>2026-04-26T13:53:30.406Z</time></trkpt><trkpt lat="32.610455" lon="-8.704705"><ele>163.66666666666666</ele><time>2026-04-26T13:53:31.406Z</time></trkpt><trkpt lat="32.610615" lon="-8.7046967"><ele>163.33333333333334</ele><time>2026-04-26T13:53:32.406Z</time></trkpt><trkpt lat="32.6107867" lon="-8.70469"><ele>163.0</ele><time>2026-04-26T13:53:33.406Z</time></trkpt><trkpt lat="32.610955" lon="-8.704685"><ele>163.0</ele><time>2026-04-26T13:53:34.406Z</time></trkpt><trkpt lat="32.6111267" lon="-8.70468"><ele>163.0</ele><time>2026-04-26T13:53:35.406Z</time></trkpt><trkpt lat="32.6113067" lon="-8.70467"><ele>163.0</ele><time>2026-04-26T13:53:36.406Z</time></trkpt><trkpt lat="32.6114983" lon="-8.7046567"><ele>163.33333333333334</ele><time>2026-04-26T13:53:37.406Z</time></trkpt><trkpt lat="32.6116967" lon="-8.7046417"><ele>163.66666666666666</ele><time>2026-04-26T13:53:38.406Z</time></trkpt><trkpt lat="32.6118917" lon="-8.704635"><ele>164.0</ele><time>2026-04-26T13:53:39.406Z</time></trkpt><trkpt lat="32.6120967" lon="-8.7046233"><ele>164.0</ele><time>2026-04-26T13:53:40.406Z</time></trkpt><trkpt lat="32.6122917" lon="-8.70461"><ele>164.0</ele><time>2026-04-26T13:53:41.406Z</time></trkpt><trkpt lat="32.6124817" lon="-8.7045917"><ele>164.0</ele><time>2026-04-26T13:53:42.406Z</time></trkpt><trkpt lat="32.6126567" lon="-8.7045717"><ele>164.33333333333331</ele><time>2026-04-26T13:53:43.406Z</time></trkpt><trkpt lat="32.6128233" lon="-8.7045483"><ele>164.66666666666666</ele><time>2026-04-26T13:53:44.406Z</time></trkpt><trkpt lat="32.61298" lon="-8.7045183"><ele>165.0</ele><time>2026-04-26T13:53:45.406Z</time></trkpt><trkpt lat="32.6131283" lon="-8.7044917"><ele>165.0</ele><time>2026-04-26T13:53:46.406Z</time></trkpt><trkpt lat="32.61327" lon="-8.7044667"><ele>165.0</ele><time>2026-04-26T13:53:47.406Z</time></trkpt><trkpt lat="32.6134017" lon="-8.7044433"><ele>165.0</ele><time>2026-04-26T13:53:48.406Z</time></trkpt><trkpt lat="32.6135267" lon="-8.7044183"><ele>165.0</ele><time>2026-04-26T13:53:49.407Z</time></trkpt><trkpt lat="32.613645" lon="-8.7043917"><ele>165.2</ele><time>2026-04-26T13:53:50.406Z</time></trkpt><trkpt lat="32.6137533" lon="-8.7043633"><ele>165.4</ele><time>2026-04-26T13:53:51.406Z</time></trkpt><trkpt lat="32.6138633" lon="-8.7043367"><ele>165.60000000000002</ele><time>2026-04-26T13:53:52.406Z</time></trkpt><trkpt lat="32.613965" lon="-8.7043133"><ele>165.8</ele><time>2026-04-26T13:53:53.406Z</time></trkpt><trkpt lat="32.614065" lon="-8.70429"><ele>166.0</ele><time>2026-04-26T13:53:54.406Z</time></trkpt><trkpt lat="32.6141633" lon="-8.7042633"><ele>166.0</ele><time>2026-04-26T13:53:55.406Z</time></trkpt><trkpt lat="32.6142533" lon="-8.70424"><ele>166.0</ele><time>2026-04-26T13:53:56.406Z</time></trkpt><trkpt lat="32.6143467" lon="-8.7042183"><ele>166.0</ele><time>2026-04-26T13:53:57.406Z</time></trkpt><trkpt lat="32.614435" lon="-8.7042"><ele>166.0</ele><time>2026-04-26T13:53:58.406Z</time></trkpt><trkpt lat="32.614515" lon="-8.70418"><ele>166.0</ele><time>2026-04-26T13:53:59.406Z</time></trkpt><trkpt lat="32.6145983" lon="-8.704165"><ele>166.0</ele><time>2026-04-26T13:54:00.406Z</time></trkpt><trkpt lat="32.6146883" lon="-8.7041533"><ele>165.60000000000002</ele><time>2026-04-26T13:54:01.406Z</time></trkpt><trkpt lat="32.6147783" lon="-8.7041433"><ele>165.2</ele><time>2026-04-26T13:54:02.406Z</time></trkpt><trkpt lat="32.6148733" lon="-8.7041383"><ele>164.8</ele><time>2026-04-26T13:54:03.406Z</time></trkpt><trkpt lat="32.6149717" lon="-8.7041283"><ele>164.39999999999998</ele><time>2026-04-26T13:54:04.406Z</time></trkpt><trkpt lat="32.6150717" lon="-8.7041117"><ele>164.0</ele><time>2026-04-26T13:54:05.406Z</time></trkpt><trkpt lat="32.61517" lon="-8.7040867"><ele>164.0</ele><time>2026-04-26T13:54:06.406Z</time></trkpt><trkpt lat="32.615275" lon="-8.7040683"><ele>164.0</ele><time>2026-04-26T13:54:07.406Z</time></trkpt><trkpt lat="32.6153833" lon="-8.7040483"><ele>164.0</ele><time>2026-04-26T13:54:08.406Z</time></trkpt><trkpt lat="32.6154933" lon="-8.7040217"><ele>164.0</ele><time>2026-04-26T13:54:09.406Z</time></trkpt><trkpt lat="32.6156033" lon="-8.703995"><ele>164.0</ele><time>2026-04-26T13:54:10.406Z</time></trkpt><trkpt lat="32.6157083" lon="-8.703965"><ele>164.0</ele><time>2026-04-26T13:54:11.406Z</time></trkpt><trkpt lat="32.615805" lon="-8.703945"><ele>164.0</ele><time>2026-04-26T13:54:12.406Z</time></trkpt><trkpt lat="32.6159" lon="-8.7039233"><ele>164.0</ele><time>2026-04-26T13:54:13.406Z</time></trkpt><trkpt lat="32.615995" lon="-8.703895"><ele>164.0</ele><time>2026-04-26T13:54:14.406Z</time></trkpt><trkpt lat="32.6160933" lon="-8.7038633"><ele>164.0</ele><time>2026-04-26T13:54:15.406Z</time></trkpt><trkpt lat="32.6161983" lon="-8.7038367"><ele>163.79999999999998</ele><time>2026-04-26T13:54:16.406Z</time></trkpt><trkpt lat="32.6162917" lon="-8.703815"><ele>163.6</ele><time>2026-04-26T13:54:17.406Z</time></trkpt><trkpt lat="32.616385" lon="-8.7037933"><ele>163.4</ele><time>2026-04-26T13:54:18.406Z</time></trkpt><trkpt lat="32.6164717" lon="-8.70378"><ele>163.2</ele><time>2026-04-26T13:54:19.406Z</time></trkpt><trkpt lat="32.6165567" lon="-8.7037583"><ele>163.0</ele><time>2026-04-26T13:54:20.406Z</time></trkpt><trkpt lat="32.6166483" lon="-8.703735"><ele>163.0</ele><time>2026-04-26T13:54:21.406Z</time></trkpt><trkpt lat="32.616735" lon="-8.703725"><ele>163.0</ele><time>2026-04-26T13:54:22.406Z</time></trkpt><trkpt lat="32.6168383" lon="-8.7036933"><ele>163.0</ele><time>2026-04-26T13:54:23.406Z</time></trkpt><trkpt lat="32.61694" lon="-8.70368"><ele>163.0</ele><time>2026-04-26T13:54:24.407Z</time></trkpt><trkpt lat="32.6170433" lon="-8.7036633"><ele>163.0</ele><time>2026-04-26T13:54:25.406Z</time></trkpt><trkpt lat="32.617155" lon="-8.7036333"><ele>163.0</ele><time>2026-04-26T13:54:26.406Z</time></trkpt><trkpt lat="32.617255" lon="-8.7036067"><ele>163.0</ele><time>2026-04-26T13:54:27.406Z</time></trkpt><trkpt lat="32.61735" lon="-8.703585"><ele>163.0</ele><time>2026-04-26T13:54:28.406Z</time></trkpt><trkpt lat="32.6174333" lon="-8.7035633"><ele>163.0</ele><time>2026-04-26T13:54:29.406Z</time></trkpt><trkpt lat="32.61752" lon="-8.70355"><ele>163.0</ele><time>2026-04-26T13:54:30.406Z</time></trkpt><trkpt lat="32.6175983" lon="-8.7035333"><ele>163.33333333333334</ele><time>2026-04-26T13:54:31.406Z</time></trkpt><trkpt lat="32.6176817" lon="-8.7035183"><ele>163.66666666666669</ele><time>2026-04-26T13:54:32.406Z</time></trkpt><trkpt lat="32.6177567" lon="-8.7035067"><ele>164.0</ele><time>2026-04-26T13:54:33.406Z</time></trkpt><trkpt lat="32.61783" lon="-8.7034983"><ele>164.33333333333334</ele><time>2026-04-26T13:54:34.406Z</time></trkpt><trkpt lat="32.6179467" lon="-8.7034817"><ele>164.66666666666666</ele><time>2026-04-26T13:54:36.407Z</time></trkpt><trkpt lat="32.6180367" lon="-8.7034667"><ele>165.0</ele><time>2026-04-26T13:54:38.406Z</time></trkpt><trkpt lat="32.6181067" lon="-8.7034517"><ele>165.0</ele><time>2026-04-26T13:54:40.406Z</time></trkpt><trkpt lat="32.6181683" lon="-8.7034083"><ele>165.0</ele><time>2026-04-26T13:54:43.406Z</time></trkpt><trkpt lat="32.618215" lon="-8.70328"><ele>165.0</ele><time>2026-04-26T13:55:00.406Z</time></trkpt><trkpt lat="32.61813" lon="-8.703285"><ele>165.0</ele><time>2026-04-26T13:55:04.406Z</time></trkpt><trkpt lat="32.6180667" lon="-8.703325"><ele>165.0</ele><time>2026-04-26T13:55:08.406Z</time></trkpt><trkpt lat="32.6179967" lon="-8.7033367"><ele>165.0</ele><time>2026-04-26T13:55:13.406Z</time></trkpt><trkpt lat="32.6179217" lon="-8.703335"><ele>165.0</ele><time>2026-04-26T13:55:18.406Z</time></trkpt><trkpt lat="32.6178483" lon="-8.70335"><ele>165.0</ele><time>2026-04-26T13:55:23.406Z</time></trkpt><trkpt lat="32.6177567" lon="-8.7033667"><ele>165.0</ele><time>2026-04-26T13:55:28.406Z</time></trkpt><trkpt lat="32.6176933" lon="-8.703395"><ele>165.0</ele><time>2026-04-26T13:55:30.406Z</time></trkpt><trkpt lat="32.6176217" lon="-8.7034267"><ele>165.0</ele><time>2026-04-26T13:55:33.406Z</time></trkpt><trkpt lat="32.617665" lon="-8.7033617"><ele>165.0</ele><time>2026-04-26T13:55:39.406Z</time></trkpt><trkpt lat="32.6177417" lon="-8.703355"><ele>165.00000000000003</ele><time>2026-04-26T13:55:42.406Z</time></trkpt><trkpt lat="32.6178133" lon="-8.70335"><ele>165.0</ele><time>2026-04-26T13:55:46.406Z</time></trkpt><trkpt lat="32.6178883" lon="-8.70334"><ele>165.0</ele><time>2026-04-26T14:55:00.397Z</time></trkpt><trkpt lat="32.6179567" lon="-8.7033033"><ele>165.0</ele><time>2026-04-26T14:55:04.397Z</time></trkpt><trkpt lat="32.6180267" lon="-8.7032983"><ele>165.0</ele><time>2026-04-26T14:55:07.397Z</time></trkpt><trkpt lat="32.6181017" lon="-8.7033017"><ele>165.00000000000003</ele><time>2026-04-26T14:55:10.397Z</time></trkpt><trkpt lat="32.61817" lon="-8.7032817"><ele>165.0</ele><time>2026-04-26T14:55:13.397Z</time></trkpt><trkpt lat="32.6182367" lon="-8.7032767"><ele>165.0</ele><time>2026-04-26T14:55:16.397Z</time></trkpt><trkpt lat="32.6183133" lon="-8.70329"><ele>165.0</ele><time>2026-04-26T14:55:20.397Z</time></trkpt><trkpt lat="32.61838" lon="-8.7033067"><ele>165.0</ele><time>2026-04-26T14:55:24.397Z</time></trkpt><trkpt lat="32.618445" lon="-8.70328"><ele>165.0</ele><time>2026-04-26T14:55:27.397Z</time></trkpt><trkpt lat="32.6185283" lon="-8.7032783"><ele>165.0</ele><time>2026-04-26T14:57:12.397Z</time></trkpt><trkpt lat="32.61862" lon="-8.7032633"><ele>165.0</ele><time>2026-04-26T14:57:14.397Z</time></trkpt><trkpt lat="32.61869" lon="-8.7032383"><ele>165.0</ele><time>2026-04-26T14:57:16.397Z</time></trkpt><trkpt lat="32.61876" lon="-8.7032217"><ele>165.0</ele><time>2026-04-26T14:57:18.397Z</time></trkpt><trkpt lat="32.618825" lon="-8.7032233"><ele>165.0</ele><time>2026-04-26T14:57:20.397Z</time></trkpt><trkpt lat="32.6188567" lon="-8.7033017"><ele>165.0</ele><time>2026-04-26T14:57:23.397Z</time></trkpt><trkpt lat="32.6188" lon="-8.7033417"><ele>165.0</ele><time>2026-04-26T14:57:25.398Z</time></trkpt><trkpt lat="32.61869" lon="-8.7033783"><ele>165.0</ele><time>2026-04-26T14:57:27.397Z</time></trkpt><trkpt lat="32.6185733" lon="-8.703395"><ele>165.0</ele><time>2026-04-26T14:57:29.397Z</time></trkpt><trkpt lat="32.6184583" lon="-8.7034033"><ele>165.0</ele><time>2026-04-26T14:57:31.397Z</time></trkpt><trkpt lat="32.6183683" lon="-8.7034133"><ele>165.0</ele><time>2026-04-26T14:57:33.397Z</time></trkpt><trkpt lat="32.618275" lon="-8.7034333"><ele>165.0</ele><time>2026-04-26T14:57:35.397Z</time></trkpt><trkpt lat="32.6182133" lon="-8.7034517"><ele>165.0</ele><time>2026-04-26T14:57:36.397Z</time></trkpt><trkpt lat="32.61815" lon="-8.70347"><ele>165.0</ele><time>2026-04-26T14:57:37.397Z</time></trkpt><trkpt lat="32.6180567" lon="-8.7034783"><ele>165.0</ele><time>2026-04-26T14:57:39.397Z</time></trkpt><trkpt lat="32.6180417" lon="-8.7034"><ele>165.0</ele><time>2026-04-26T14:57:43.397Z</time></trkpt><trkpt lat="32.6181117" lon="-8.7033733"><ele>165.0</ele><time>2026-04-26T14:57:45.396Z</time></trkpt><trkpt lat="32.6181833" lon="-8.7033667"><ele>165.0</ele><time>2026-04-26T14:57:46.396Z</time></trkpt><trkpt lat="32.6182717" lon="-8.7033633"><ele>165.0</ele><time>2026-04-26T14:57:47.396Z</time></trkpt><trkpt lat="32.618375" lon="-8.7033583"><ele>165.0</ele><time>2026-04-26T14:57:48.396Z</time></trkpt><trkpt lat="32.6184967" lon="-8.7033333"><ele>165.0</ele><time>2026-04-26T14:57:49.396Z</time></trkpt><trkpt lat="32.6186117" lon="-8.7033017"><ele>165.0</ele><time>2026-04-26T14:57:50.396Z</time></trkpt><trkpt lat="32.6187133" lon="-8.7032767"><ele>165.0</ele><time>2026-04-26T14:57:51.396Z</time></trkpt><trkpt lat="32.618815" lon="-8.70325"><ele>165.0</ele><time>2026-04-26T14:57:52.396Z</time></trkpt><trkpt lat="32.6189067" lon="-8.7032267"><ele>165.0</ele><time>2026-04-26T14:57:53.396Z</time></trkpt><trkpt lat="32.6189883" lon="-8.7032133"><ele>164.4</ele><time>2026-04-26T14:57:54.396Z</time></trkpt><trkpt lat="32.6190717" lon="-8.7031917"><ele>163.8</ele><time>2026-04-26T14:57:55.396Z</time></trkpt><trkpt lat="32.61916" lon="-8.7031633"><ele>163.2</ele><time>2026-04-26T14:57:56.396Z</time></trkpt><trkpt lat="32.6192483" lon="-8.70314"><ele>162.6</ele><time>2026-04-26T14:57:57.396Z</time></trkpt><trkpt lat="32.6193433" lon="-8.7031183"><ele>162.0</ele><time>2026-04-26T14:57:58.396Z</time></trkpt><trkpt lat="32.619435" lon="-8.7031"><ele>162.0</ele><time>2026-04-26T14:57:59.396Z</time></trkpt><trkpt lat="32.6195233" lon="-8.7030817"><ele>162.0</ele><time>2026-04-26T14:58:00.396Z</time></trkpt><trkpt lat="32.619615" lon="-8.7030617"><ele>162.0</ele><time>2026-04-26T14:58:01.396Z</time></trkpt><trkpt lat="32.61971" lon="-8.7030283"><ele>162.0</ele><time>2026-04-26T14:58:02.396Z</time></trkpt><trkpt lat="32.6198117" lon="-8.703"><ele>162.0</ele><time>2026-04-26T14:58:03.396Z</time></trkpt><trkpt lat="32.61991" lon="-8.7029733"><ele>162.0</ele><time>2026-04-26T14:58:04.396Z</time></trkpt><trkpt lat="32.6200017" lon="-8.7029533"><ele>162.0</ele><time>2026-04-26T14:58:05.396Z</time></trkpt><trkpt lat="32.6200883" lon="-8.7029267"><ele>162.0</ele><time>2026-04-26T14:58:06.396Z</time></trkpt><trkpt lat="32.620175" lon="-8.7028967"><ele>162.0</ele><time>2026-04-26T14:58:07.396Z</time></trkpt><trkpt lat="32.620255" lon="-8.70287"><ele>162.0</ele><time>2026-04-26T14:58:08.396Z</time></trkpt><trkpt lat="32.6203333" lon="-8.70284"><ele>162.0</ele><time>2026-04-26T14:58:09.397Z</time></trkpt><trkpt lat="32.6203983" lon="-8.702815"><ele>162.39999999999998</ele><time>2026-04-26T14:58:10.396Z</time></trkpt><trkpt lat="32.6204833" lon="-8.7027417"><ele>162.79999999999998</ele><time>2026-04-26T14:58:12.396Z</time></trkpt><trkpt lat="32.6206033" lon="-8.7026783"><ele>163.2</ele><time>2026-04-26T14:58:14.396Z</time></trkpt><trkpt lat="32.6206717" lon="-8.7026383"><ele>163.6</ele><time>2026-04-26T14:58:15.396Z</time></trkpt><trkpt lat="32.6207367" lon="-8.702585"><ele>164.0</ele><time>2026-04-26T14:58:16.396Z</time></trkpt><trkpt lat="32.620805" lon="-8.7025217"><ele>164.0</ele><time>2026-04-26T14:58:17.396Z</time></trkpt><trkpt lat="32.6208733" lon="-8.7024567"><ele>164.0</ele><time>2026-04-26T14:58:18.396Z</time></trkpt><trkpt lat="32.620935" lon="-8.7023933"><ele>164.0</ele><time>2026-04-26T14:58:19.396Z</time></trkpt><trkpt lat="32.62099" lon="-8.702335"><ele>164.0</ele><time>2026-04-26T14:58:20.396Z</time></trkpt><trkpt lat="32.62104" lon="-8.7022767"><ele>164.0</ele><time>2026-04-26T14:58:21.396Z</time></trkpt><trkpt lat="32.6210917" lon="-8.7022067"><ele>164.0</ele><time>2026-04-26T14:58:22.396Z</time></trkpt><trkpt lat="32.6211383" lon="-8.7021233"><ele>163.83333333333331</ele><time>2026-04-26T14:58:23.396Z</time></trkpt><trkpt lat="32.6211767" lon="-8.702035"><ele>163.66666666666666</ele><time>2026-04-26T14:58:24.396Z</time></trkpt><trkpt lat="32.621215" lon="-8.7019583"><ele>163.5</ele><time>2026-04-26T14:58:25.396Z</time></trkpt><trkpt lat="32.6212733" lon="-8.7018983"><ele>163.33333333333334</ele><time>2026-04-26T14:58:26.396Z</time></trkpt><trkpt lat="32.6213467" lon="-8.7018667"><ele>163.16666666666669</ele><time>2026-04-26T14:58:27.396Z</time></trkpt><trkpt lat="32.6214283" lon="-8.701845"><ele>163.0</ele><time>2026-04-26T14:58:28.396Z</time></trkpt><trkpt lat="32.6215283" lon="-8.7018183"><ele>162.60000000000002</ele><time>2026-04-26T14:58:29.396Z</time></trkpt><trkpt lat="32.6216233" lon="-8.7017717"><ele>162.20000000000002</ele><time>2026-04-26T14:58:30.396Z</time></trkpt><trkpt lat="32.6217167" lon="-8.7017067"><ele>161.8</ele><time>2026-04-26T14:58:31.396Z</time></trkpt><trkpt lat="32.6218083" lon="-8.70162"><ele>161.4</ele><time>2026-04-26T14:58:32.396Z</time></trkpt><trkpt lat="32.6219017" lon="-8.701535"><ele>161.0</ele><time>2026-04-26T14:58:33.396Z</time></trkpt><trkpt lat="32.6219933" lon="-8.7014583"><ele>161.20000000000002</ele><time>2026-04-26T14:58:34.396Z</time></trkpt><trkpt lat="32.6220783" lon="-8.70138"><ele>161.4</ele><time>2026-04-26T14:58:35.396Z</time></trkpt><trkpt lat="32.6221667" lon="-8.701305"><ele>161.6</ele><time>2026-04-26T14:58:36.396Z</time></trkpt><trkpt lat="32.62225" lon="-8.7012267"><ele>161.8</ele><time>2026-04-26T14:58:37.396Z</time></trkpt><trkpt lat="32.62233" lon="-8.7011483"><ele>162.0</ele><time>2026-04-26T14:58:38.396Z</time></trkpt><trkpt lat="32.6224083" lon="-8.7010683"><ele>162.0</ele><time>2026-04-26T14:58:39.396Z</time></trkpt><trkpt lat="32.6224833" lon="-8.7009833"><ele>162.0</ele><time>2026-04-26T14:58:40.396Z</time></trkpt><trkpt lat="32.62256" lon="-8.700905"><ele>162.0</ele><time>2026-04-26T14:58:41.397Z</time></trkpt><trkpt lat="32.62264" lon="-8.7008267"><ele>162.0</ele><time>2026-04-26T14:58:42.396Z</time></trkpt><trkpt lat="32.622715" lon="-8.7007417"><ele>162.0</ele><time>2026-04-26T14:58:43.396Z</time></trkpt><trkpt lat="32.6227917" lon="-8.7006533"><ele>162.2</ele><time>2026-04-26T14:58:44.396Z</time></trkpt><trkpt lat="32.62287" lon="-8.7005683"><ele>162.39999999999998</ele><time>2026-04-26T14:58:45.396Z</time></trkpt><trkpt lat="32.6229433" lon="-8.7004833"><ele>162.60000000000002</ele><time>2026-04-26T14:58:46.396Z</time></trkpt><trkpt lat="32.6230233" lon="-8.7003883"><ele>162.8</ele><time>2026-04-26T14:58:47.396Z</time></trkpt><trkpt lat="32.6231" lon="-8.7002917"><ele>163.0</ele><time>2026-04-26T14:58:48.396Z</time></trkpt><trkpt lat="32.6231717" lon="-8.7001917"><ele>163.0</ele><time>2026-04-26T14:58:49.396Z</time></trkpt><trkpt lat="32.62324" lon="-8.70008"><ele>163.0</ele><time>2026-04-26T14:58:50.396Z</time></trkpt><trkpt lat="32.6233033" lon="-8.6999683"><ele>163.0</ele><time>2026-04-26T14:58:51.396Z</time></trkpt><trkpt lat="32.62337" lon="-8.6998567"><ele>163.0</ele><time>2026-04-26T14:58:52.396Z</time></trkpt><trkpt lat="32.6234317" lon="-8.6997433"><ele>163.0</ele><time>2026-04-26T14:58:53.397Z</time></trkpt><trkpt lat="32.62349" lon="-8.6996267"><ele>163.0</ele><time>2026-04-26T14:58:54.396Z</time></trkpt><trkpt lat="32.6235467" lon="-8.6995083"><ele>163.0</ele><time>2026-04-26T14:58:55.396Z</time></trkpt><trkpt lat="32.6236017" lon="-8.6993883"><ele>163.0</ele><time>2026-04-26T14:58:56.396Z</time></trkpt><trkpt lat="32.6236567" lon="-8.6992683"><ele>163.8</ele><time>2026-04-26T14:58:57.396Z</time></trkpt><trkpt lat="32.62371" lon="-8.6991533"><ele>164.60000000000002</ele><time>2026-04-26T14:58:58.397Z</time></trkpt><trkpt lat="32.6237633" lon="-8.6990367"><ele>165.39999999999998</ele><time>2026-04-26T14:58:59.396Z</time></trkpt><trkpt lat="32.623815" lon="-8.69892"><ele>166.2</ele><time>2026-04-26T14:59:00.396Z</time></trkpt><trkpt lat="32.6238683" lon="-8.6988"><ele>167.0</ele><time>2026-04-26T14:59:01.396Z</time></trkpt><trkpt lat="32.6239233" lon="-8.6986783"><ele>166.75</ele><time>2026-04-26T14:59:02.396Z</time></trkpt><trkpt lat="32.623985" lon="-8.6985617"><ele>166.5</ele><time>2026-04-26T14:59:03.396Z</time></trkpt><trkpt lat="32.6240433" lon="-8.6984383"><ele>166.25</ele><time>2026-04-26T14:59:04.396Z</time></trkpt><trkpt lat="32.6241033" lon="-8.69832"><ele>166.0</ele><time>2026-04-26T14:59:05.396Z</time></trkpt><trkpt lat="32.62416" lon="-8.698205"><ele>166.0</ele><time>2026-04-26T14:59:06.396Z</time></trkpt><trkpt lat="32.6242133" lon="-8.698095"><ele>166.0</ele><time>2026-04-26T14:59:07.396Z</time></trkpt><trkpt lat="32.6242667" lon="-8.6979967"><ele>166.0</ele><time>2026-04-26T14:59:08.396Z</time></trkpt><trkpt lat="32.6243133" lon="-8.697905"><ele>166.0</ele><time>2026-04-26T14:59:09.396Z</time></trkpt><trkpt lat="32.6243533" lon="-8.6978033"><ele>166.0</ele><time>2026-04-26T14:59:10.396Z</time></trkpt><trkpt lat="32.6243917" lon="-8.69771"><ele>165.8</ele><time>2026-04-26T14:59:11.396Z</time></trkpt><trkpt lat="32.6244317" lon="-8.6976167"><ele>165.60000000000002</ele><time>2026-04-26T14:59:12.396Z</time></trkpt><trkpt lat="32.624475" lon="-8.6975167"><ele>165.4</ele><time>2026-04-26T14:59:13.396Z</time></trkpt><trkpt lat="32.624525" lon="-8.6974167"><ele>165.2</ele><time>2026-04-26T14:59:14.396Z</time></trkpt><trkpt lat="32.6245683" lon="-8.697315"><ele>165.0</ele><time>2026-04-26T14:59:15.396Z</time></trkpt><trkpt lat="32.624615" lon="-8.6972067"><ele>165.0</ele><time>2026-04-26T14:59:16.396Z</time></trkpt><trkpt lat="32.624665" lon="-8.697095"><ele>165.0</ele><time>2026-04-26T14:59:17.396Z</time></trkpt><trkpt lat="32.6247067" lon="-8.6969783"><ele>165.0</ele><time>2026-04-26T14:59:18.396Z</time></trkpt><trkpt lat="32.6247583" lon="-8.69687"><ele>165.0</ele><time>2026-04-26T14:59:19.396Z</time></trkpt><trkpt lat="32.6248117" lon="-8.69676"><ele>165.0</ele><time>2026-04-26T14:59:20.396Z</time></trkpt><trkpt lat="32.6248633" lon="-8.6966483"><ele>165.0</ele><time>2026-04-26T14:59:21.396Z</time></trkpt><trkpt lat="32.6249117" lon="-8.6965317"><ele>165.0</ele><time>2026-04-26T14:59:22.396Z</time></trkpt><trkpt lat="32.6249617" lon="-8.6964233"><ele>165.0</ele><time>2026-04-26T14:59:23.396Z</time></trkpt><trkpt lat="32.6250017" lon="-8.6963183"><ele>165.0</ele><time>2026-04-26T14:59:24.396Z</time></trkpt><trkpt lat="32.6250383" lon="-8.6962233"><ele>165.0</ele><time>2026-04-26T14:59:25.396Z</time></trkpt><trkpt lat="32.625075" lon="-8.6961433"><ele>164.8</ele><time>2026-04-26T14:59:26.396Z</time></trkpt><trkpt lat="32.625125" lon="-8.6960383"><ele>164.6</ele><time>2026-04-26T14:59:28.396Z</time></trkpt><trkpt lat="32.625185" lon="-8.69594"><ele>164.39999999999998</ele><time>2026-04-26T15:00:04.396Z</time></trkpt><trkpt lat="32.6252283" lon="-8.6958617"><ele>164.2</ele><time>2026-04-26T15:00:05.396Z</time></trkpt><trkpt lat="32.625285" lon="-8.69576"><ele>164.0</ele><time>2026-04-26T15:00:06.396Z</time></trkpt><trkpt lat="32.6253433" lon="-8.6956417"><ele>163.79999999999998</ele><time>2026-04-26T15:00:07.396Z</time></trkpt><trkpt lat="32.6254017" lon="-8.69552"><ele>163.6</ele><time>2026-04-26T15:00:08.396Z</time></trkpt><trkpt lat="32.6254567" lon="-8.69541"><ele>163.4</ele><time>2026-04-26T15:00:09.396Z</time></trkpt><trkpt lat="32.6255017" lon="-8.6953067"><ele>163.2</ele><time>2026-04-26T15:00:10.396Z</time></trkpt><trkpt lat="32.6255467" lon="-8.695205"><ele>163.0</ele><time>2026-04-26T15:00:11.396Z</time></trkpt><trkpt lat="32.6255917" lon="-8.6950967"><ele>163.4</ele><time>2026-04-26T15:00:12.396Z</time></trkpt><trkpt lat="32.62564" lon="-8.6949783"><ele>163.8</ele><time>2026-04-26T15:00:13.396Z</time></trkpt><trkpt lat="32.6256867" lon="-8.69486"><ele>164.2</ele><time>2026-04-26T15:00:14.396Z</time></trkpt><trkpt lat="32.62573" lon="-8.6947517"><ele>164.6</ele><time>2026-04-26T15:00:15.396Z</time></trkpt><trkpt lat="32.62577" lon="-8.6946467"><ele>165.0</ele><time>2026-04-26T15:00:16.396Z</time></trkpt><trkpt lat="32.6257983" lon="-8.694545"><ele>165.0</ele><time>2026-04-26T15:00:17.396Z</time></trkpt><trkpt lat="32.625815" lon="-8.6944517"><ele>165.0</ele><time>2026-04-26T15:00:18.396Z</time></trkpt><trkpt lat="32.6258233" lon="-8.6943717"><ele>165.0</ele><time>2026-04-26T15:00:19.397Z</time></trkpt><trkpt lat="32.6258367" lon="-8.69428"><ele>165.0</ele><time>2026-04-26T15:00:21.396Z</time></trkpt><trkpt lat="32.62586" lon="-8.6942083"><ele>165.0</ele><time>2026-04-26T15:00:23.396Z</time></trkpt><trkpt lat="32.6259133" lon="-8.694145"><ele>165.0</ele><time>2026-04-26T15:00:25.396Z</time></trkpt><trkpt lat="32.6260083" lon="-8.6940717"><ele>165.0</ele><time>2026-04-26T15:00:27.396Z</time></trkpt><trkpt lat="32.6261167" lon="-8.69399"><ele>165.0</ele><time>2026-04-26T15:00:29.396Z</time></trkpt><trkpt lat="32.6261683" lon="-8.693935"><ele>165.0</ele><time>2026-04-26T15:00:30.396Z</time></trkpt><trkpt lat="32.626225" lon="-8.6938683"><ele>165.0</ele><time>2026-04-26T15:00:31.396Z</time></trkpt><trkpt lat="32.6262917" lon="-8.6937617"><ele>165.0</ele><time>2026-04-26T15:00:32.396Z</time></trkpt><trkpt lat="32.62637" lon="-8.69363"><ele>164.66666666666666</ele><time>2026-04-26T15:00:33.396Z</time></trkpt><trkpt lat="32.626465" lon="-8.69348"><ele>164.33333333333331</ele><time>2026-04-26T15:00:34.396Z</time></trkpt><trkpt lat="32.6265567" lon="-8.69331"><ele>164.0</ele><time>2026-04-26T15:00:35.397Z</time></trkpt><trkpt lat="32.6266617" lon="-8.6931433"><ele>164.0</ele><time>2026-04-26T15:00:36.396Z</time></trkpt><trkpt lat="32.62678" lon="-8.692955"><ele>164.0</ele><time>2026-04-26T15:00:37.396Z</time></trkpt><trkpt lat="32.6269033" lon="-8.6927683"><ele>164.0</ele><time>2026-04-26T15:00:38.396Z</time></trkpt><trkpt lat="32.6270367" lon="-8.6925767"><ele>163.66666666666666</ele><time>2026-04-26T15:00:39.396Z</time></trkpt><trkpt lat="32.6271633" lon="-8.6923817"><ele>163.33333333333334</ele><time>2026-04-26T15:00:40.396Z</time></trkpt><trkpt lat="32.6272883" lon="-8.6921983"><ele>163.0</ele><time>2026-04-26T15:00:41.396Z</time></trkpt><trkpt lat="32.62741" lon="-8.6920217"><ele>163.0</ele><time>2026-04-26T15:00:42.396Z</time></trkpt><trkpt lat="32.6275333" lon="-8.691845"><ele>163.0</ele><time>2026-04-26T15:00:43.397Z</time></trkpt><trkpt lat="32.62765" lon="-8.69167"><ele>163.0</ele><time>2026-04-26T15:00:44.396Z</time></trkpt><trkpt lat="32.627765" lon="-8.6914967"><ele>163.0</ele><time>2026-04-26T15:00:45.396Z</time></trkpt><trkpt lat="32.6278767" lon="-8.6913383"><ele>163.0</ele><time>2026-04-26T15:00:46.396Z</time></trkpt><trkpt lat="32.6279833" lon="-8.6911833"><ele>163.0</ele><time>2026-04-26T15:00:47.396Z</time></trkpt><trkpt lat="32.6280733" lon="-8.6910267"><ele>163.5</ele><time>2026-04-26T15:00:48.396Z</time></trkpt><trkpt lat="32.628155" lon="-8.690895"><ele>164.0</ele><time>2026-04-26T15:00:49.396Z</time></trkpt><trkpt lat="32.62823" lon="-8.6907817"><ele>164.5</ele><time>2026-04-26T15:00:50.396Z</time></trkpt><trkpt lat="32.6282983" lon="-8.690675"><ele>165.0</ele><time>2026-04-26T15:00:51.396Z</time></trkpt><trkpt lat="32.628365" lon="-8.6905667"><ele>165.0</ele><time>2026-04-26T15:00:52.396Z</time></trkpt><trkpt lat="32.6284267" lon="-8.6904683"><ele>165.0</ele><time>2026-04-26T15:00:53.396Z</time></trkpt><trkpt lat="32.628485" lon="-8.69038"><ele>165.0</ele><time>2026-04-26T15:00:54.396Z</time></trkpt><trkpt lat="32.6285383" lon="-8.6903033"><ele>165.0</ele><time>2026-04-26T15:00:55.396Z</time></trkpt><trkpt lat="32.628585" lon="-8.6902283"><ele>165.0</ele><time>2026-04-26T15:00:56.396Z</time></trkpt><trkpt lat="32.628635" lon="-8.6901567"><ele>165.0</ele><time>2026-04-26T15:00:57.396Z</time></trkpt><trkpt lat="32.628685" lon="-8.6900833"><ele>164.5</ele><time>2026-04-26T15:00:58.396Z</time></trkpt><trkpt lat="32.6287383" lon="-8.690005"><ele>164.0</ele><time>2026-04-26T15:00:59.397Z</time></trkpt><trkpt lat="32.6287983" lon="-8.6899217"><ele>163.5</ele><time>2026-04-26T15:01:00.396Z</time></trkpt><trkpt lat="32.628855" lon="-8.6898417"><ele>163.0</ele><time>2026-04-26T15:01:01.396Z</time></trkpt><trkpt lat="32.62891" lon="-8.6897683"><ele>162.5</ele><time>2026-04-26T15:01:02.396Z</time></trkpt><trkpt lat="32.6289617" lon="-8.6897017"><ele>162.0</ele><time>2026-04-26T15:01:03.396Z</time></trkpt><trkpt lat="32.629015" lon="-8.68963"><ele>162.0</ele><time>2026-04-26T15:01:04.396Z</time></trkpt><trkpt lat="32.6290683" lon="-8.6895617"><ele>162.0</ele><time>2026-04-26T15:01:05.396Z</time></trkpt><trkpt lat="32.6291167" lon="-8.6894967"><ele>162.0</ele><time>2026-04-26T15:01:06.396Z</time></trkpt><trkpt lat="32.6291683" lon="-8.6894283"><ele>162.0</ele><time>2026-04-26T15:01:07.396Z</time></trkpt><trkpt lat="32.6292167" lon="-8.6893567"><ele>162.0</ele><time>2026-04-26T15:01:08.396Z</time></trkpt><trkpt lat="32.6292683" lon="-8.6892833"><ele>162.0</ele><time>2026-04-26T15:01:09.396Z</time></trkpt><trkpt lat="32.6293283" lon="-8.6892017"><ele>162.0</ele><time>2026-04-26T15:01:10.396Z</time></trkpt><trkpt lat="32.6293967" lon="-8.6891133"><ele>162.0</ele><time>2026-04-26T15:01:11.396Z</time></trkpt><trkpt lat="32.6294667" lon="-8.6890167"><ele>162.0</ele><time>2026-04-26T15:01:12.396Z</time></trkpt><trkpt lat="32.6295483" lon="-8.6889217"><ele>162.0</ele><time>2026-04-26T15:01:13.397Z</time></trkpt><trkpt lat="32.6296283" lon="-8.688815"><ele>162.0</ele><time>2026-04-26T15:01:14.396Z</time></trkpt><trkpt lat="32.6297083" lon="-8.6887033"><ele>162.75</ele><time>2026-04-26T15:01:15.396Z</time></trkpt><trkpt lat="32.6298" lon="-8.6885883"><ele>163.5</ele><time>2026-04-26T15:01:16.396Z</time></trkpt><trkpt lat="32.6298917" lon="-8.6884583"><ele>164.25</ele><time>2026-04-26T15:01:17.396Z</time></trkpt><trkpt lat="32.6299867" lon="-8.6883233"><ele>165.0</ele><time>2026-04-26T15:01:18.396Z</time></trkpt><trkpt lat="32.6300833" lon="-8.68818"><ele>165.0</ele><time>2026-04-26T15:01:19.396Z</time></trkpt><trkpt lat="32.6301817" lon="-8.688045"><ele>165.0</ele><time>2026-04-26T15:01:20.396Z</time></trkpt><trkpt lat="32.63028" lon="-8.687915"><ele>165.0</ele><time>2026-04-26T15:01:21.396Z</time></trkpt><trkpt lat="32.630375" lon="-8.6877883"><ele>165.0</ele><time>2026-04-26T15:01:22.396Z</time></trkpt><trkpt lat="32.6304733" lon="-8.6876617"><ele>164.33333333333334</ele><time>2026-04-26T15:01:23.396Z</time></trkpt><trkpt lat="32.6305717" lon="-8.68753"><ele>163.66666666666669</ele><time>2026-04-26T15:01:24.396Z</time></trkpt><trkpt lat="32.6306717" lon="-8.687395"><ele>163.0</ele><time>2026-04-26T15:01:25.396Z</time></trkpt><trkpt lat="32.630785" lon="-8.6872517"><ele>163.0</ele><time>2026-04-26T15:01:26.396Z</time></trkpt><trkpt lat="32.6308967" lon="-8.687105"><ele>163.0</ele><time>2026-04-26T15:01:27.396Z</time></trkpt><trkpt lat="32.6310117" lon="-8.6869617"><ele>163.0</ele><time>2026-04-26T15:01:28.396Z</time></trkpt><trkpt lat="32.6311233" lon="-8.6868083"><ele>163.33333333333334</ele><time>2026-04-26T15:01:29.396Z</time></trkpt><trkpt lat="32.6312367" lon="-8.686655"><ele>163.66666666666666</ele><time>2026-04-26T15:01:30.396Z</time></trkpt><trkpt lat="32.6313567" lon="-8.6864933"><ele>164.0</ele><time>2026-04-26T15:01:31.396Z</time></trkpt><trkpt lat="32.63148" lon="-8.686335"><ele>164.0</ele><time>2026-04-26T15:01:32.396Z</time></trkpt><trkpt lat="32.6315983" lon="-8.6861683"><ele>164.0</ele><time>2026-04-26T15:01:33.396Z</time></trkpt><trkpt lat="32.631725" lon="-8.6860067"><ele>164.0</ele><time>2026-04-26T15:01:34.396Z</time></trkpt><trkpt lat="32.6318533" lon="-8.6858367"><ele>163.66666666666666</ele><time>2026-04-26T15:01:35.396Z</time></trkpt><trkpt lat="32.6319867" lon="-8.6856717"><ele>163.33333333333334</ele><time>2026-04-26T15:01:36.396Z</time></trkpt><trkpt lat="32.63212" lon="-8.6855033"><ele>163.0</ele><time>2026-04-26T15:01:37.396Z</time></trkpt><trkpt lat="32.632255" lon="-8.6853267"><ele>164.33333333333334</ele><time>2026-04-26T15:01:38.396Z</time></trkpt><trkpt lat="32.63239" lon="-8.6851517"><ele>165.66666666666666</ele><time>2026-04-26T15:01:39.396Z</time></trkpt><trkpt lat="32.6325183" lon="-8.6849767"><ele>167.0</ele><time>2026-04-26T15:01:40.396Z</time></trkpt><trkpt lat="32.6326383" lon="-8.6848033"><ele>167.0</ele><time>2026-04-26T15:01:41.396Z</time></trkpt><trkpt lat="32.6327667" lon="-8.684625"><ele>167.0</ele><time>2026-04-26T15:01:42.396Z</time></trkpt><trkpt lat="32.6328867" lon="-8.6844583"><ele>167.0</ele><time>2026-04-26T15:01:43.396Z</time></trkpt><trkpt lat="32.633005" lon="-8.6842933"><ele>165.66666666666666</ele><time>2026-04-26T15:01:44.396Z</time></trkpt><trkpt lat="32.63312" lon="-8.6841383"><ele>164.33333333333334</ele><time>2026-04-26T15:01:45.396Z</time></trkpt><trkpt lat="32.633235" lon="-8.6839767"><ele>163.0</ele><time>2026-04-26T15:01:46.396Z</time></trkpt><trkpt lat="32.6333483" lon="-8.683805"><ele>163.0</ele><time>2026-04-26T15:01:47.396Z</time></trkpt><trkpt lat="32.63347" lon="-8.6836333"><ele>163.0</ele><time>2026-04-26T15:01:48.396Z</time></trkpt><trkpt lat="32.6335983" lon="-8.6834567"><ele>163.0</ele><time>2026-04-26T15:01:49.396Z</time></trkpt><trkpt lat="32.63373" lon="-8.6832783"><ele>162.66666666666669</ele><time>2026-04-26T15:01:50.396Z</time></trkpt><trkpt lat="32.6338617" lon="-8.6830967"><ele>162.33333333333334</ele><time>2026-04-26T15:01:51.396Z</time></trkpt><trkpt lat="32.6339917" lon="-8.68292"><ele>162.0</ele><time>2026-04-26T15:01:52.396Z</time></trkpt><trkpt lat="32.634125" lon="-8.6827383"><ele>162.66666666666666</ele><time>2026-04-26T15:01:53.396Z</time></trkpt><trkpt lat="32.6342633" lon="-8.682545"><ele>163.33333333333331</ele><time>2026-04-26T15:01:54.396Z</time></trkpt><trkpt lat="32.6343983" lon="-8.6823433"><ele>164.0</ele><time>2026-04-26T15:01:55.396Z</time></trkpt><trkpt lat="32.634525" lon="-8.6821383"><ele>164.0</ele><time>2026-04-26T15:01:56.396Z</time></trkpt><trkpt lat="32.6346517" lon="-8.6819383"><ele>164.0</ele><time>2026-04-26T15:01:57.396Z</time></trkpt><trkpt lat="32.6347833" lon="-8.6817417"><ele>164.0</ele><time>2026-04-26T15:01:58.396Z</time></trkpt><trkpt lat="32.6349133" lon="-8.68154"><ele>164.0</ele><time>2026-04-26T15:01:59.396Z</time></trkpt><trkpt lat="32.6350467" lon="-8.6813417"><ele>164.0</ele><time>2026-04-26T15:02:00.396Z</time></trkpt><trkpt lat="32.6351883" lon="-8.681145"><ele>164.0</ele><time>2026-04-26T15:02:01.396Z</time></trkpt><trkpt lat="32.6353317" lon="-8.680945"><ele>164.33333333333331</ele><time>2026-04-26T15:02:02.396Z</time></trkpt><trkpt lat="32.6354717" lon="-8.6807433"><ele>164.66666666666666</ele><time>2026-04-26T15:02:03.396Z</time></trkpt><trkpt lat="32.63561" lon="-8.680545"><ele>165.0</ele><time>2026-04-26T15:02:04.396Z</time></trkpt><trkpt lat="32.6357467" lon="-8.6803467"><ele>164.66666666666666</ele><time>2026-04-26T15:02:05.396Z</time></trkpt><trkpt lat="32.6358817" lon="-8.6801417"><ele>164.33333333333331</ele><time>2026-04-26T15:02:06.396Z</time></trkpt><trkpt lat="32.63602" lon="-8.6799383"><ele>164.0</ele><time>2026-04-26T15:02:07.396Z</time></trkpt><trkpt lat="32.6361617" lon="-8.6797367"><ele>164.0</ele><time>2026-04-26T15:02:08.396Z</time></trkpt><trkpt lat="32.6363033" lon="-8.679535"><ele>164.0</ele><time>2026-04-26T15:02:09.396Z</time></trkpt><trkpt lat="32.6364483" lon="-8.6793317"><ele>164.0</ele><time>2026-04-26T15:02:10.396Z</time></trkpt><trkpt lat="32.6365967" lon="-8.6791367"><ele>164.33333333333331</ele><time>2026-04-26T15:02:11.396Z</time></trkpt><trkpt lat="32.63674" lon="-8.678955"><ele>164.66666666666666</ele><time>2026-04-26T15:02:12.396Z</time></trkpt><trkpt lat="32.6368933" lon="-8.67878"><ele>165.0</ele><time>2026-04-26T15:02:13.396Z</time></trkpt><trkpt lat="32.63705" lon="-8.678605"><ele>164.66666666666666</ele><time>2026-04-26T15:02:14.396Z</time></trkpt><trkpt lat="32.637215" lon="-8.678435"><ele>164.33333333333331</ele><time>2026-04-26T15:02:15.396Z</time></trkpt><trkpt lat="32.637385" lon="-8.6782617"><ele>164.0</ele><time>2026-04-26T15:02:16.396Z</time></trkpt><trkpt lat="32.6375583" lon="-8.67809"><ele>164.0</ele><time>2026-04-26T15:02:17.396Z</time></trkpt><trkpt lat="32.6377317" lon="-8.6779217"><ele>164.0</ele><time>2026-04-26T15:02:18.396Z</time></trkpt><trkpt lat="32.6379083" lon="-8.6777633"><ele>164.0</ele><time>2026-04-26T15:02:19.396Z</time></trkpt><trkpt lat="32.6380817" lon="-8.67761"><ele>164.33333333333331</ele><time>2026-04-26T15:02:20.396Z</time></trkpt><trkpt lat="32.638255" lon="-8.6774617"><ele>164.66666666666666</ele><time>2026-04-26T15:02:21.396Z</time></trkpt><trkpt lat="32.63843" lon="-8.6773133"><ele>165.0</ele><time>2026-04-26T15:02:22.396Z</time></trkpt><trkpt lat="32.638605" lon="-8.6771617"><ele>165.0</ele><time>2026-04-26T15:02:23.396Z</time></trkpt><trkpt lat="32.63878" lon="-8.6770117"><ele>165.0</ele><time>2026-04-26T15:02:24.396Z</time></trkpt><trkpt lat="32.638955" lon="-8.6768567"><ele>165.0</ele><time>2026-04-26T15:02:25.396Z</time></trkpt><trkpt lat="32.6391333" lon="-8.6767083"><ele>165.0</ele><time>2026-04-26T15:02:26.396Z</time></trkpt><trkpt lat="32.63931" lon="-8.676555"><ele>165.0</ele><time>2026-04-26T15:02:27.396Z</time></trkpt><trkpt lat="32.639485" lon="-8.676405"><ele>165.0</ele><time>2026-04-26T15:02:28.396Z</time></trkpt><trkpt lat="32.63966" lon="-8.6762517"><ele>165.0</ele><time>2026-04-26T15:02:29.396Z</time></trkpt><trkpt lat="32.6398317" lon="-8.6760983"><ele>165.0</ele><time>2026-04-26T15:02:30.396Z</time></trkpt><trkpt lat="32.6400083" lon="-8.6759517"><ele>165.0</ele><time>2026-04-26T15:02:31.396Z</time></trkpt><trkpt lat="32.6401817" lon="-8.675805"><ele>165.66666666666666</ele><time>2026-04-26T15:02:32.396Z</time></trkpt><trkpt lat="32.6403617" lon="-8.6756583"><ele>166.33333333333331</ele><time>2026-04-26T15:02:33.396Z</time></trkpt><trkpt lat="32.6405417" lon="-8.6755083"><ele>167.0</ele><time>2026-04-26T15:02:34.396Z</time></trkpt><trkpt lat="32.64072" lon="-8.6753533"><ele>167.0</ele><time>2026-04-26T15:02:35.396Z</time></trkpt><trkpt lat="32.6409033" lon="-8.6751983"><ele>167.0</ele><time>2026-04-26T15:02:36.396Z</time></trkpt><trkpt lat="32.6410833" lon="-8.6750383"><ele>167.5</ele><time>2026-04-26T15:02:37.396Z</time></trkpt><trkpt lat="32.6412683" lon="-8.674885"><ele>168.0</ele><time>2026-04-26T15:02:38.396Z</time></trkpt><trkpt lat="32.6414533" lon="-8.67473"><ele>168.0</ele><time>2026-04-26T15:02:39.396Z</time></trkpt><trkpt lat="32.6416383" lon="-8.6745717"><ele>168.0</ele><time>2026-04-26T15:02:40.396Z</time></trkpt><trkpt lat="32.6418267" lon="-8.674405"><ele>168.0</ele><time>2026-04-26T15:02:41.396Z</time></trkpt><trkpt lat="32.6420117" lon="-8.6742417"><ele>168.0</ele><time>2026-04-26T15:02:42.396Z</time></trkpt><trkpt lat="32.6422017" lon="-8.67408"><ele>168.0</ele><time>2026-04-26T15:02:43.396Z</time></trkpt><trkpt lat="32.6423917" lon="-8.6739183"><ele>168.0</ele><time>2026-04-26T15:02:44.396Z</time></trkpt><trkpt lat="32.64258" lon="-8.6737583"><ele>166.5</ele><time>2026-04-26T15:02:45.396Z</time></trkpt><trkpt lat="32.6427717" lon="-8.673595"><ele>165.0</ele><time>2026-04-26T15:02:46.395Z</time></trkpt><trkpt lat="32.64296" lon="-8.673425"><ele>165.0</ele><time>2026-04-26T15:02:47.395Z</time></trkpt><trkpt lat="32.643145" lon="-8.6732583"><ele>165.0</ele><time>2026-04-26T15:02:48.395Z</time></trkpt><trkpt lat="32.64333" lon="-8.6730783"><ele>165.0</ele><time>2026-04-26T15:02:49.395Z</time></trkpt><trkpt lat="32.6435117" lon="-8.6729017"><ele>165.0</ele><time>2026-04-26T15:02:50.395Z</time></trkpt><trkpt lat="32.64369" lon="-8.6727133"><ele>165.0</ele><time>2026-04-26T15:02:51.395Z</time></trkpt><trkpt lat="32.6438633" lon="-8.6725267"><ele>165.0</ele><time>2026-04-26T15:02:52.395Z</time></trkpt><trkpt lat="32.644035" lon="-8.672335"><ele>165.0</ele><time>2026-04-26T15:02:53.395Z</time></trkpt><trkpt lat="32.64421" lon="-8.67214"><ele>165.0</ele><time>2026-04-26T15:02:54.395Z</time></trkpt><trkpt lat="32.6443817" lon="-8.67194"><ele>166.5</ele><time>2026-04-26T15:02:55.395Z</time></trkpt><trkpt lat="32.64455" lon="-8.671735"><ele>168.0</ele><time>2026-04-26T15:02:56.395Z</time></trkpt><trkpt lat="32.6447167" lon="-8.6715283"><ele>168.0</ele><time>2026-04-26T15:02:57.395Z</time></trkpt><trkpt lat="32.64488" lon="-8.6713217"><ele>168.0</ele><time>2026-04-26T15:02:58.395Z</time></trkpt><trkpt lat="32.6450483" lon="-8.6711117"><ele>168.0</ele><time>2026-04-26T15:02:59.395Z</time></trkpt><trkpt lat="32.6452133" lon="-8.670905"><ele>168.0</ele><time>2026-04-26T15:03:00.395Z</time></trkpt><trkpt lat="32.6453783" lon="-8.6706967"><ele>169.0</ele><time>2026-04-26T15:03:01.395Z</time></trkpt><trkpt lat="32.64554" lon="-8.67049"><ele>170.0</ele><time>2026-04-26T15:03:02.395Z</time></trkpt><trkpt lat="32.645695" lon="-8.6702933"><ele>169.0</ele><time>2026-04-26T15:03:03.395Z</time></trkpt><trkpt lat="32.6458533" lon="-8.6700933"><ele>168.0</ele><time>2026-04-26T15:03:04.395Z</time></trkpt><trkpt lat="32.646015" lon="-8.6698983"><ele>167.0</ele><time>2026-04-26T15:03:05.395Z</time></trkpt><trkpt lat="32.6461817" lon="-8.6697"><ele>166.0</ele><time>2026-04-26T15:03:06.395Z</time></trkpt><trkpt lat="32.6463467" lon="-8.6694967"><ele>165.0</ele><time>2026-04-26T15:03:07.395Z</time></trkpt><trkpt lat="32.6465117" lon="-8.6692967"><ele>164.0</ele><time>2026-04-26T15:03:08.395Z</time></trkpt><trkpt lat="32.6466717" lon="-8.6690967"><ele>164.0</ele><time>2026-04-26T15:03:09.395Z</time></trkpt><trkpt lat="32.646825" lon="-8.6689083"><ele>164.0</ele><time>2026-04-26T15:03:10.395Z</time></trkpt><trkpt lat="32.6469767" lon="-8.6687167"><ele>164.0</ele><time>2026-04-26T15:03:11.395Z</time></trkpt><trkpt lat="32.6471317" lon="-8.668525"><ele>164.66666666666666</ele><time>2026-04-26T15:03:12.395Z</time></trkpt><trkpt lat="32.6472883" lon="-8.6683367"><ele>165.33333333333334</ele><time>2026-04-26T15:03:13.395Z</time></trkpt><trkpt lat="32.6474433" lon="-8.6681467"><ele>166.0</ele><time>2026-04-26T15:03:14.396Z</time></trkpt><trkpt lat="32.6476033" lon="-8.6679583"><ele>166.5</ele><time>2026-04-26T15:03:15.395Z</time></trkpt><trkpt lat="32.6477667" lon="-8.667765"><ele>167.0</ele><time>2026-04-26T15:03:16.395Z</time></trkpt><trkpt lat="32.6479283" lon="-8.667575"><ele>167.33333333333331</ele><time>2026-04-26T15:03:17.395Z</time></trkpt><trkpt lat="32.648085" lon="-8.6673917"><ele>167.66666666666666</ele><time>2026-04-26T15:03:18.395Z</time></trkpt><trkpt lat="32.6482333" lon="-8.66721"><ele>168.0</ele><time>2026-04-26T15:03:19.395Z</time></trkpt><trkpt lat="32.6483717" lon="-8.667025"><ele>167.33333333333334</ele><time>2026-04-26T15:03:20.395Z</time></trkpt><trkpt lat="32.6485133" lon="-8.66683"><ele>166.66666666666669</ele><time>2026-04-26T15:03:21.395Z</time></trkpt><trkpt lat="32.6486617" lon="-8.666645"><ele>166.0</ele><time>2026-04-26T15:03:22.395Z</time></trkpt><trkpt lat="32.6488133" lon="-8.66646"><ele>166.0</ele><time>2026-04-26T15:03:23.395Z</time></trkpt><trkpt lat="32.6489667" lon="-8.6662733"><ele>166.0</ele><time>2026-04-26T15:03:24.395Z</time></trkpt><trkpt lat="32.6491183" lon="-8.6660833"><ele>166.0</ele><time>2026-04-26T15:03:25.395Z</time></trkpt><trkpt lat="32.64927" lon="-8.6658833"><ele>166.0</ele><time>2026-04-26T15:03:26.395Z</time></trkpt><trkpt lat="32.6494167" lon="-8.6656817"><ele>166.0</ele><time>2026-04-26T15:03:27.395Z</time></trkpt><trkpt lat="32.6495617" lon="-8.6654717"><ele>165.5</ele><time>2026-04-26T15:03:28.395Z</time></trkpt><trkpt lat="32.6497067" lon="-8.6652617"><ele>165.0</ele><time>2026-04-26T15:03:29.395Z</time></trkpt><trkpt lat="32.6498433" lon="-8.6650517"><ele>165.0</ele><time>2026-04-26T15:03:30.395Z</time></trkpt><trkpt lat="32.6499817" lon="-8.664855"><ele>165.0</ele><time>2026-04-26T15:03:31.395Z</time></trkpt><trkpt lat="32.6501117" lon="-8.664655"><ele>165.0</ele><time>2026-04-26T15:03:32.395Z</time></trkpt><trkpt lat="32.6502483" lon="-8.664455"><ele>165.0</ele><time>2026-04-26T15:03:33.395Z</time></trkpt><trkpt lat="32.6503867" lon="-8.6642483"><ele>165.0</ele><time>2026-04-26T15:03:34.395Z</time></trkpt><trkpt lat="32.65053" lon="-8.6640417"><ele>165.0</ele><time>2026-04-26T15:03:35.395Z</time></trkpt><trkpt lat="32.65067" lon="-8.6638367"><ele>165.0</ele><time>2026-04-26T15:03:36.395Z</time></trkpt><trkpt lat="32.65081" lon="-8.6636283"><ele>165.0</ele><time>2026-04-26T15:03:37.395Z</time></trkpt><trkpt lat="32.6509533" lon="-8.6634217"><ele>165.0</ele><time>2026-04-26T15:03:38.395Z</time></trkpt><trkpt lat="32.6511017" lon="-8.66322"><ele>165.0</ele><time>2026-04-26T15:03:39.395Z</time></trkpt><trkpt lat="32.6512533" lon="-8.6630167"><ele>165.0</ele><time>2026-04-26T15:03:40.395Z</time></trkpt><trkpt lat="32.65141" lon="-8.6628167"><ele>165.0</ele><time>2026-04-26T15:03:41.395Z</time></trkpt><trkpt lat="32.6515717" lon="-8.6626233"><ele>165.0</ele><time>2026-04-26T15:03:42.395Z</time></trkpt><trkpt lat="32.651735" lon="-8.66244"><ele>165.0</ele><time>2026-04-26T15:03:43.395Z</time></trkpt><trkpt lat="32.6519017" lon="-8.662265"><ele>165.0</ele><time>2026-04-26T15:03:44.395Z</time></trkpt><trkpt lat="32.6520733" lon="-8.662095"><ele>166.0</ele><time>2026-04-26T15:03:45.395Z</time></trkpt><trkpt lat="32.65225" lon="-8.6619367"><ele>167.0</ele><time>2026-04-26T15:03:46.395Z</time></trkpt><trkpt lat="32.6524317" lon="-8.6617867"><ele>168.0</ele><time>2026-04-26T15:03:47.395Z</time></trkpt><trkpt lat="32.652615" lon="-8.6616367"><ele>168.0</ele><time>2026-04-26T15:03:48.395Z</time></trkpt><trkpt lat="32.6527967" lon="-8.661495"><ele>168.0</ele><time>2026-04-26T15:03:49.395Z</time></trkpt><trkpt lat="32.652975" lon="-8.6613633"><ele>168.0</ele><time>2026-04-26T15:03:50.395Z</time></trkpt><trkpt lat="32.6531517" lon="-8.6612367"><ele>168.0</ele><time>2026-04-26T15:03:51.395Z</time></trkpt><trkpt lat="32.6533417" lon="-8.6611083"><ele>168.0</ele><time>2026-04-26T15:03:52.395Z</time></trkpt><trkpt lat="32.65353" lon="-8.6609767"><ele>168.0</ele><time>2026-04-26T15:03:53.395Z</time></trkpt><trkpt lat="32.65372" lon="-8.6608467"><ele>167.66666666666666</ele><time>2026-04-26T15:03:54.395Z</time></trkpt><trkpt lat="32.6539083" lon="-8.66072"><ele>167.33333333333331</ele><time>2026-04-26T15:03:55.395Z</time></trkpt><trkpt lat="32.65409" lon="-8.6605983"><ele>167.0</ele><time>2026-04-26T15:03:56.395Z</time></trkpt><trkpt lat="32.65427" lon="-8.6604867"><ele>167.0</ele><time>2026-04-26T15:03:57.395Z</time></trkpt><trkpt lat="32.6544467" lon="-8.66037"><ele>167.0</ele><time>2026-04-26T15:03:58.395Z</time></trkpt><trkpt lat="32.65463" lon="-8.66025"><ele>167.0</ele><time>2026-04-26T15:03:59.395Z</time></trkpt><trkpt lat="32.654815" lon="-8.66013"><ele>167.0</ele><time>2026-04-26T15:04:00.395Z</time></trkpt><trkpt lat="32.6549933" lon="-8.6600033"><ele>167.0</ele><time>2026-04-26T15:04:01.395Z</time></trkpt><trkpt lat="32.6551767" lon="-8.6598917"><ele>167.0</ele><time>2026-04-26T15:04:02.395Z</time></trkpt><trkpt lat="32.6553617" lon="-8.6597783"><ele>167.0</ele><time>2026-04-26T15:04:03.395Z</time></trkpt><trkpt lat="32.6555467" lon="-8.6596667"><ele>167.0</ele><time>2026-04-26T15:04:04.395Z</time></trkpt><trkpt lat="32.65573" lon="-8.6595467"><ele>167.0</ele><time>2026-04-26T15:04:05.395Z</time></trkpt><trkpt lat="32.6559133" lon="-8.659425"><ele>167.0</ele><time>2026-04-26T15:04:06.395Z</time></trkpt><trkpt lat="32.6561083" lon="-8.6593"><ele>167.0</ele><time>2026-04-26T15:04:07.395Z</time></trkpt><trkpt lat="32.6563033" lon="-8.6591733"><ele>167.0</ele><time>2026-04-26T15:04:08.395Z</time></trkpt><trkpt lat="32.6564983" lon="-8.6590433"><ele>167.33333333333331</ele><time>2026-04-26T15:04:09.395Z</time></trkpt><trkpt lat="32.6566917" lon="-8.6589083"><ele>167.66666666666666</ele><time>2026-04-26T15:04:10.395Z</time></trkpt><trkpt lat="32.656875" lon="-8.6587817"><ele>168.0</ele><time>2026-04-26T15:04:11.395Z</time></trkpt><trkpt lat="32.6570533" lon="-8.6586583"><ele>167.66666666666666</ele><time>2026-04-26T15:04:12.395Z</time></trkpt><trkpt lat="32.657235" lon="-8.6585417"><ele>167.33333333333331</ele><time>2026-04-26T15:04:13.395Z</time></trkpt><trkpt lat="32.6574133" lon="-8.65842"><ele>167.0</ele><time>2026-04-26T15:04:14.395Z</time></trkpt><trkpt lat="32.6575967" lon="-8.6582983"><ele>167.0</ele><time>2026-04-26T15:04:15.395Z</time></trkpt><trkpt lat="32.6577833" lon="-8.6581683"><ele>167.0</ele><time>2026-04-26T15:04:16.395Z</time></trkpt><trkpt lat="32.6579667" lon="-8.6580433"><ele>167.0</ele><time>2026-04-26T15:04:17.395Z</time></trkpt><trkpt lat="32.6581517" lon="-8.65792"><ele>167.0</ele><time>2026-04-26T15:04:18.395Z</time></trkpt><trkpt lat="32.658335" lon="-8.6578017"><ele>167.0</ele><time>2026-04-26T15:04:19.395Z</time></trkpt><trkpt lat="32.6585133" lon="-8.6576833"><ele>167.0</ele><time>2026-04-26T15:04:20.395Z</time></trkpt><trkpt lat="32.6586983" lon="-8.6575683"><ele>166.66666666666666</ele><time>2026-04-26T15:04:21.395Z</time></trkpt><trkpt lat="32.6588867" lon="-8.65746"><ele>166.33333333333334</ele><time>2026-04-26T15:04:22.396Z</time></trkpt><trkpt lat="32.6590767" lon="-8.6573617"><ele>166.0</ele><time>2026-04-26T15:04:23.395Z</time></trkpt><trkpt lat="32.6592683" lon="-8.6572583"><ele>166.0</ele><time>2026-04-26T15:04:24.395Z</time></trkpt><trkpt lat="32.6594583" lon="-8.6571533"><ele>166.0</ele><time>2026-04-26T15:04:25.395Z</time></trkpt><trkpt lat="32.6596533" lon="-8.6570517"><ele>166.0</ele><time>2026-04-26T15:04:26.395Z</time></trkpt><trkpt lat="32.6598467" lon="-8.6569467"><ele>166.0</ele><time>2026-04-26T15:04:27.395Z</time></trkpt><trkpt lat="32.66004" lon="-8.6568417"><ele>166.0</ele><time>2026-04-26T15:04:28.395Z</time></trkpt><trkpt lat="32.66023" lon="-8.65674"><ele>166.0</ele><time>2026-04-26T15:04:29.395Z</time></trkpt><trkpt lat="32.660425" lon="-8.656635"><ele>166.0</ele><time>2026-04-26T15:04:30.395Z</time></trkpt><trkpt lat="32.66062" lon="-8.6565333"><ele>166.0</ele><time>2026-04-26T15:04:31.395Z</time></trkpt><trkpt lat="32.6608133" lon="-8.6564317"><ele>166.0</ele><time>2026-04-26T15:04:32.395Z</time></trkpt><trkpt lat="32.6610117" lon="-8.65634"><ele>166.33333333333334</ele><time>2026-04-26T15:04:33.395Z</time></trkpt><trkpt lat="32.6612133" lon="-8.6562467"><ele>166.66666666666666</ele><time>2026-04-26T15:04:34.395Z</time></trkpt><trkpt lat="32.6614133" lon="-8.65617"><ele>167.0</ele><time>2026-04-26T15:04:35.395Z</time></trkpt><trkpt lat="32.66162" lon="-8.6560983"><ele>167.0</ele><time>2026-04-26T15:04:36.395Z</time></trkpt><trkpt lat="32.66183" lon="-8.6560317"><ele>167.0</ele><time>2026-04-26T15:04:37.395Z</time></trkpt><trkpt lat="32.662045" lon="-8.655965"><ele>167.0</ele><time>2026-04-26T15:04:38.395Z</time></trkpt><trkpt lat="32.6622567" lon="-8.655905"><ele>166.66666666666666</ele><time>2026-04-26T15:04:39.395Z</time></trkpt><trkpt lat="32.6624633" lon="-8.6558533"><ele>166.33333333333334</ele><time>2026-04-26T15:04:40.395Z</time></trkpt><trkpt lat="32.6626783" lon="-8.6558"><ele>166.0</ele><time>2026-04-26T15:04:41.395Z</time></trkpt><trkpt lat="32.6628967" lon="-8.6557567"><ele>166.0</ele><time>2026-04-26T15:04:42.395Z</time></trkpt><trkpt lat="32.6631133" lon="-8.6557183"><ele>166.0</ele><time>2026-04-26T15:04:43.395Z</time></trkpt><trkpt lat="32.66333" lon="-8.655695"><ele>166.0</ele><time>2026-04-26T15:04:44.395Z</time></trkpt><trkpt lat="32.66355" lon="-8.655675"><ele>165.33333333333334</ele><time>2026-04-26T15:04:45.395Z</time></trkpt><trkpt lat="32.6637733" lon="-8.65566"><ele>164.66666666666666</ele><time>2026-04-26T15:04:46.395Z</time></trkpt><trkpt lat="32.663995" lon="-8.6556483"><ele>164.0</ele><time>2026-04-26T15:04:47.395Z</time></trkpt><trkpt lat="32.66421" lon="-8.65564"><ele>164.0</ele><time>2026-04-26T15:04:48.395Z</time></trkpt><trkpt lat="32.66442" lon="-8.6556383"><ele>164.0</ele><time>2026-04-26T15:04:49.395Z</time></trkpt><trkpt lat="32.6646283" lon="-8.6556283"><ele>164.0</ele><time>2026-04-26T15:04:50.395Z</time></trkpt><trkpt lat="32.6648417" lon="-8.655625"><ele>165.0</ele><time>2026-04-26T15:04:51.395Z</time></trkpt><trkpt lat="32.6650533" lon="-8.6556183"><ele>166.0</ele><time>2026-04-26T15:04:52.395Z</time></trkpt><trkpt lat="32.6652667" lon="-8.65562"><ele>167.0</ele><time>2026-04-26T15:04:53.395Z</time></trkpt><trkpt lat="32.6654833" lon="-8.65563"><ele>167.0</ele><time>2026-04-26T15:04:54.395Z</time></trkpt><trkpt lat="32.6657067" lon="-8.655645"><ele>167.0</ele><time>2026-04-26T15:04:55.395Z</time></trkpt><trkpt lat="32.6659267" lon="-8.6556667"><ele>167.0</ele><time>2026-04-26T15:04:56.395Z</time></trkpt><trkpt lat="32.6661433" lon="-8.655695"><ele>167.0</ele><time>2026-04-26T15:04:57.395Z</time></trkpt><trkpt lat="32.6663517" lon="-8.6557217"><ele>167.0</ele><time>2026-04-26T15:04:58.396Z</time></trkpt><trkpt lat="32.66656" lon="-8.6557533"><ele>167.0</ele><time>2026-04-26T15:04:59.395Z</time></trkpt><trkpt lat="32.666765" lon="-8.655785"><ele>167.0</ele><time>2026-04-26T15:05:00.395Z</time></trkpt><trkpt lat="32.66697" lon="-8.6558117"><ele>167.0</ele><time>2026-04-26T15:05:01.395Z</time></trkpt><trkpt lat="32.66717" lon="-8.65584"><ele>167.0</ele><time>2026-04-26T15:05:02.395Z</time></trkpt><trkpt lat="32.6673717" lon="-8.6558683"><ele>167.0</ele><time>2026-04-26T15:05:03.395Z</time></trkpt><trkpt lat="32.6675733" lon="-8.6558967"><ele>167.0</ele><time>2026-04-26T15:05:04.395Z</time></trkpt><trkpt lat="32.66777" lon="-8.6559233"><ele>167.0</ele><time>2026-04-26T15:05:05.396Z</time></trkpt><trkpt lat="32.6679717" lon="-8.6559517"><ele>167.0</ele><time>2026-04-26T15:05:06.395Z</time></trkpt><trkpt lat="32.6681767" lon="-8.6559883"><ele>167.0</ele><time>2026-04-26T15:05:07.395Z</time></trkpt><trkpt lat="32.6683917" lon="-8.6560217"><ele>167.0</ele><time>2026-04-26T15:05:08.395Z</time></trkpt><trkpt lat="32.6686133" lon="-8.6560567"><ele>166.0</ele><time>2026-04-26T15:05:09.395Z</time></trkpt><trkpt lat="32.6688333" lon="-8.6560967"><ele>165.0</ele><time>2026-04-26T15:05:10.396Z</time></trkpt><trkpt lat="32.6690617" lon="-8.65613"><ele>165.0</ele><time>2026-04-26T15:05:11.395Z</time></trkpt><trkpt lat="32.6692917" lon="-8.6561567"><ele>165.0</ele><time>2026-04-26T15:05:12.395Z</time></trkpt><trkpt lat="32.6695183" lon="-8.656185"><ele>163.66666666666666</ele><time>2026-04-26T15:05:13.395Z</time></trkpt><trkpt lat="32.66974" lon="-8.6562117"><ele>162.33333333333331</ele><time>2026-04-26T15:05:14.395Z</time></trkpt><trkpt lat="32.6699467" lon="-8.6562417"><ele>161.0</ele><time>2026-04-26T15:05:15.395Z</time></trkpt><trkpt lat="32.6701467" lon="-8.65627"><ele>161.66666666666666</ele><time>2026-04-26T15:05:16.395Z</time></trkpt><trkpt lat="32.6703367" lon="-8.656295"><ele>162.33333333333334</ele><time>2026-04-26T15:05:17.395Z</time></trkpt><trkpt lat="32.6705217" lon="-8.656315"><ele>163.0</ele><time>2026-04-26T15:05:18.395Z</time></trkpt><trkpt lat="32.6707033" lon="-8.6563367"><ele>163.0</ele><time>2026-04-26T15:05:19.395Z</time></trkpt><trkpt lat="32.6708867" lon="-8.6563517"><ele>163.0</ele><time>2026-04-26T15:05:20.395Z</time></trkpt><trkpt lat="32.6710717" lon="-8.6563533"><ele>163.0</ele><time>2026-04-26T15:05:21.395Z</time></trkpt><trkpt lat="32.6712683" lon="-8.6563467"><ele>163.33333333333334</ele><time>2026-04-26T15:05:22.395Z</time></trkpt><trkpt lat="32.67146" lon="-8.6563233"><ele>163.66666666666666</ele><time>2026-04-26T15:05:23.395Z</time></trkpt><trkpt lat="32.671655" lon="-8.6562883"><ele>164.0</ele><time>2026-04-26T15:05:24.395Z</time></trkpt><trkpt lat="32.6718483" lon="-8.65625"><ele>164.0</ele><time>2026-04-26T15:05:25.395Z</time></trkpt><trkpt lat="32.6720417" lon="-8.656195"><ele>164.0</ele><time>2026-04-26T15:05:26.395Z</time></trkpt><trkpt lat="32.6722517" lon="-8.65614"><ele>164.0</ele><time>2026-04-26T15:05:27.395Z</time></trkpt><trkpt lat="32.6724683" lon="-8.656075"><ele>164.0</ele><time>2026-04-26T15:05:28.395Z</time></trkpt><trkpt lat="32.6726917" lon="-8.655985"><ele>164.0</ele><time>2026-04-26T15:05:29.395Z</time></trkpt><trkpt lat="32.6729183" lon="-8.6558767"><ele>164.0</ele><time>2026-04-26T15:05:30.395Z</time></trkpt><trkpt lat="32.6731383" lon="-8.6557583"><ele>164.0</ele><time>2026-04-26T15:05:31.395Z</time></trkpt><trkpt lat="32.67336" lon="-8.65563"><ele>164.0</ele><time>2026-04-26T15:05:32.395Z</time></trkpt><trkpt lat="32.6735733" lon="-8.655495"><ele>164.0</ele><time>2026-04-26T15:05:33.395Z</time></trkpt><trkpt lat="32.6737833" lon="-8.655355"><ele>163.0</ele><time>2026-04-26T15:05:34.395Z</time></trkpt><trkpt lat="32.6739933" lon="-8.6552083"><ele>162.0</ele><time>2026-04-26T15:05:35.395Z</time></trkpt><trkpt lat="32.6742033" lon="-8.65506"><ele>162.0</ele><time>2026-04-26T15:05:36.395Z</time></trkpt><trkpt lat="32.6744183" lon="-8.654905"><ele>162.0</ele><time>2026-04-26T15:05:37.395Z</time></trkpt><trkpt lat="32.6746267" lon="-8.6547433"><ele>162.0</ele><time>2026-04-26T15:05:38.395Z</time></trkpt><trkpt lat="32.6748383" lon="-8.654575"><ele>162.0</ele><time>2026-04-26T15:05:39.395Z</time></trkpt><trkpt lat="32.67505" lon="-8.6544033"><ele>162.0</ele><time>2026-04-26T15:05:40.395Z</time></trkpt><trkpt lat="32.67525" lon="-8.6542333"><ele>162.0</ele><time>2026-04-26T15:05:41.395Z</time></trkpt><trkpt lat="32.675435" lon="-8.6540667"><ele>162.5</ele><time>2026-04-26T15:05:42.395Z</time></trkpt><trkpt lat="32.67561" lon="-8.6539"><ele>163.0</ele><time>2026-04-26T15:05:43.395Z</time></trkpt><trkpt lat="32.6757867" lon="-8.6537283"><ele>162.5</ele><time>2026-04-26T15:05:44.395Z</time></trkpt><trkpt lat="32.6759633" lon="-8.6535583"><ele>162.0</ele><time>2026-04-26T15:05:45.395Z</time></trkpt><trkpt lat="32.67614" lon="-8.6533833"><ele>163.0</ele><time>2026-04-26T15:05:46.395Z</time></trkpt><trkpt lat="32.6763167" lon="-8.6532083"><ele>164.0</ele><time>2026-04-26T15:05:47.395Z</time></trkpt><trkpt lat="32.6764933" lon="-8.65303"><ele>164.0</ele><time>2026-04-26T15:05:48.395Z</time></trkpt><trkpt lat="32.67667" lon="-8.6528517"><ele>164.0</ele><time>2026-04-26T15:05:49.395Z</time></trkpt><trkpt lat="32.6768483" lon="-8.652675"><ele>163.5</ele><time>2026-04-26T15:05:50.395Z</time></trkpt><trkpt lat="32.677025" lon="-8.6524967"><ele>163.0</ele><time>2026-04-26T15:05:51.395Z</time></trkpt><trkpt lat="32.67719" lon="-8.6523267"><ele>163.0</ele><time>2026-04-26T15:05:52.395Z</time></trkpt><trkpt lat="32.6773583" lon="-8.652165"><ele>163.0</ele><time>2026-04-26T15:05:53.395Z</time></trkpt><trkpt lat="32.6775233" lon="-8.6520017"><ele>163.0</ele><time>2026-04-26T15:05:54.395Z</time></trkpt><trkpt lat="32.6776917" lon="-8.6518383"><ele>162.66666666666669</ele><time>2026-04-26T15:05:55.395Z</time></trkpt><trkpt lat="32.6778617" lon="-8.651675"><ele>162.33333333333334</ele><time>2026-04-26T15:05:56.395Z</time></trkpt><trkpt lat="32.67803" lon="-8.65151"><ele>162.0</ele><time>2026-04-26T15:05:57.395Z</time></trkpt><trkpt lat="32.6781967" lon="-8.6513417"><ele>162.0</ele><time>2026-04-26T15:05:58.395Z</time></trkpt><trkpt lat="32.67837" lon="-8.651175"><ele>162.0</ele><time>2026-04-26T15:05:59.395Z</time></trkpt><trkpt lat="32.6785433" lon="-8.651005"><ele>162.0</ele><time>2026-04-26T15:06:00.395Z</time></trkpt><trkpt lat="32.6787167" lon="-8.65083"><ele>162.5</ele><time>2026-04-26T15:06:01.395Z</time></trkpt><trkpt lat="32.67889" lon="-8.6506533"><ele>163.0</ele><time>2026-04-26T15:06:02.395Z</time></trkpt><trkpt lat="32.6790717" lon="-8.6504817"><ele>163.0</ele><time>2026-04-26T15:06:03.395Z</time></trkpt><trkpt lat="32.6792533" lon="-8.6503117"><ele>163.0</ele><time>2026-04-26T15:06:04.395Z</time></trkpt><trkpt lat="32.6794367" lon="-8.650155"><ele>163.0</ele><time>2026-04-26T15:06:05.396Z</time></trkpt><trkpt lat="32.6796133" lon="-8.6500033"><ele>163.0</ele><time>2026-04-26T15:06:06.395Z</time></trkpt><trkpt lat="32.6797917" lon="-8.6498583"><ele>163.0</ele><time>2026-04-26T15:06:07.395Z</time></trkpt><trkpt lat="32.6799783" lon="-8.6497183"><ele>163.0</ele><time>2026-04-26T15:06:08.395Z</time></trkpt><trkpt lat="32.68016" lon="-8.6495783"><ele>163.0</ele><time>2026-04-26T15:06:09.395Z</time></trkpt><trkpt lat="32.6803433" lon="-8.6494417"><ele>163.0</ele><time>2026-04-26T15:06:10.396Z</time></trkpt><trkpt lat="32.6805267" lon="-8.6493083"><ele>163.0</ele><time>2026-04-26T15:06:11.395Z</time></trkpt><trkpt lat="32.68071" lon="-8.6491783"><ele>163.0</ele><time>2026-04-26T15:06:12.395Z</time></trkpt><trkpt lat="32.6808933" lon="-8.64905"><ele>163.0</ele><time>2026-04-26T15:06:13.395Z</time></trkpt><trkpt lat="32.6810767" lon="-8.648925"><ele>163.0</ele><time>2026-04-26T15:06:14.395Z</time></trkpt><trkpt lat="32.68126" lon="-8.6487983"><ele>163.0</ele><time>2026-04-26T15:06:15.395Z</time></trkpt><trkpt lat="32.6814467" lon="-8.6486717"><ele>163.0</ele><time>2026-04-26T15:06:16.395Z</time></trkpt><trkpt lat="32.6816283" lon="-8.6485467"><ele>163.33333333333334</ele><time>2026-04-26T15:06:17.395Z</time></trkpt><trkpt lat="32.68181" lon="-8.6484217"><ele>163.66666666666666</ele><time>2026-04-26T15:06:18.395Z</time></trkpt><trkpt lat="32.681985" lon="-8.648295"><ele>164.0</ele><time>2026-04-26T15:06:19.395Z</time></trkpt><trkpt lat="32.6821633" lon="-8.6481717"><ele>164.0</ele><time>2026-04-26T15:06:20.395Z</time></trkpt><trkpt lat="32.6823383" lon="-8.648045"><ele>164.0</ele><time>2026-04-26T15:06:21.395Z</time></trkpt><trkpt lat="32.6825167" lon="-8.647925"><ele>164.0</ele><time>2026-04-26T15:06:22.395Z</time></trkpt><trkpt lat="32.68269" lon="-8.6478017"><ele>163.33333333333331</ele><time>2026-04-26T15:06:23.395Z</time></trkpt><trkpt lat="32.682865" lon="-8.6476767"><ele>162.66666666666666</ele><time>2026-04-26T15:06:24.395Z</time></trkpt><trkpt lat="32.683045" lon="-8.6475483"><ele>162.0</ele><time>2026-04-26T15:06:25.395Z</time></trkpt><trkpt lat="32.683225" lon="-8.64742"><ele>162.0</ele><time>2026-04-26T15:06:26.395Z</time></trkpt><trkpt lat="32.6834067" lon="-8.6472883"><ele>162.0</ele><time>2026-04-26T15:06:27.395Z</time></trkpt><trkpt lat="32.68359" lon="-8.6471583"><ele>162.0</ele><time>2026-04-26T15:06:28.395Z</time></trkpt><trkpt lat="32.68377" lon="-8.6470217"><ele>162.33333333333334</ele><time>2026-04-26T15:06:29.395Z</time></trkpt><trkpt lat="32.6839517" lon="-8.6468767"><ele>162.66666666666669</ele><time>2026-04-26T15:06:30.395Z</time></trkpt><trkpt lat="32.6841317" lon="-8.6467217"><ele>163.0</ele><time>2026-04-26T15:06:31.395Z</time></trkpt><trkpt lat="32.6843083" lon="-8.646565"><ele>162.66666666666669</ele><time>2026-04-26T15:06:32.395Z</time></trkpt><trkpt lat="32.684485" lon="-8.6464017"><ele>162.33333333333334</ele><time>2026-04-26T15:06:33.395Z</time></trkpt><trkpt lat="32.6846583" lon="-8.6462317"><ele>162.0</ele><time>2026-04-26T15:06:34.395Z</time></trkpt><trkpt lat="32.6848333" lon="-8.64606"><ele>162.0</ele><time>2026-04-26T15:06:35.395Z</time></trkpt><trkpt lat="32.6850083" lon="-8.6458833"><ele>162.0</ele><time>2026-04-26T15:06:36.395Z</time></trkpt><trkpt lat="32.6851783" lon="-8.6457083"><ele>162.0</ele><time>2026-04-26T15:06:37.395Z</time></trkpt><trkpt lat="32.68534" lon="-8.6455483"><ele>162.0</ele><time>2026-04-26T15:06:38.395Z</time></trkpt><trkpt lat="32.6855033" lon="-8.6453867"><ele>162.0</ele><time>2026-04-26T15:06:39.395Z</time></trkpt><trkpt lat="32.6856717" lon="-8.6452233"><ele>162.0</ele><time>2026-04-26T15:06:40.395Z</time></trkpt><trkpt lat="32.68584" lon="-8.6450583"><ele>162.0</ele><time>2026-04-26T15:06:41.395Z</time></trkpt><trkpt lat="32.6860067" lon="-8.644885"><ele>162.0</ele><time>2026-04-26T15:06:42.395Z</time></trkpt><trkpt lat="32.68618" lon="-8.6447067"><ele>162.0</ele><time>2026-04-26T15:06:43.395Z</time></trkpt><trkpt lat="32.6863467" lon="-8.6445267"><ele>162.0</ele><time>2026-04-26T15:06:44.395Z</time></trkpt><trkpt lat="32.68652" lon="-8.6443517"><ele>162.0</ele><time>2026-04-26T15:06:45.395Z</time></trkpt><trkpt lat="32.6866983" lon="-8.6441733"><ele>162.0</ele><time>2026-04-26T15:06:46.395Z</time></trkpt><trkpt lat="32.68688" lon="-8.6439983"><ele>161.0</ele><time>2026-04-26T15:06:47.396Z</time></trkpt><trkpt lat="32.6870617" lon="-8.6438183"><ele>160.0</ele><time>2026-04-26T15:06:48.395Z</time></trkpt><trkpt lat="32.6872417" lon="-8.6436317"><ele>161.5</ele><time>2026-04-26T15:06:49.395Z</time></trkpt><trkpt lat="32.6874167" lon="-8.64345"><ele>163.0</ele><time>2026-04-26T15:06:50.395Z</time></trkpt><trkpt lat="32.6875833" lon="-8.643275"><ele>163.0</ele><time>2026-04-26T15:06:51.395Z</time></trkpt><trkpt lat="32.6877483" lon="-8.6430967"><ele>163.0</ele><time>2026-04-26T15:06:52.396Z</time></trkpt><trkpt lat="32.6879117" lon="-8.6429167"><ele>163.0</ele><time>2026-04-26T15:06:53.395Z</time></trkpt><trkpt lat="32.6880717" lon="-8.6427267"><ele>163.0</ele><time>2026-04-26T15:06:54.395Z</time></trkpt><trkpt lat="32.688235" lon="-8.6425317"><ele>163.0</ele><time>2026-04-26T15:06:55.395Z</time></trkpt><trkpt lat="32.688385" lon="-8.642325"><ele>163.0</ele><time>2026-04-26T15:06:56.395Z</time></trkpt><trkpt lat="32.6885333" lon="-8.6421167"><ele>163.0</ele><time>2026-04-26T15:06:57.395Z</time></trkpt><trkpt lat="32.6886767" lon="-8.6419067"><ele>162.33333333333334</ele><time>2026-04-26T15:06:58.395Z</time></trkpt><trkpt lat="32.6888067" lon="-8.6417"><ele>161.66666666666666</ele><time>2026-04-26T15:06:59.395Z</time></trkpt><trkpt lat="32.688945" lon="-8.6414883"><ele>161.0</ele><time>2026-04-26T15:07:00.395Z</time></trkpt><trkpt lat="32.6890817" lon="-8.641275"><ele>161.5</ele><time>2026-04-26T15:07:01.395Z</time></trkpt><trkpt lat="32.6892183" lon="-8.6410583"><ele>162.0</ele><time>2026-04-26T15:07:02.395Z</time></trkpt><trkpt lat="32.6893517" lon="-8.6408333"><ele>162.0</ele><time>2026-04-26T15:07:03.395Z</time></trkpt><trkpt lat="32.68949" lon="-8.64061"><ele>162.0</ele><time>2026-04-26T15:07:04.395Z</time></trkpt><trkpt lat="32.6896317" lon="-8.6403833"><ele>161.5</ele><time>2026-04-26T15:07:05.395Z</time></trkpt><trkpt lat="32.6897733" lon="-8.64016"><ele>161.0</ele><time>2026-04-26T15:07:06.395Z</time></trkpt><trkpt lat="32.6899133" lon="-8.6399317"><ele>161.0</ele><time>2026-04-26T15:07:07.395Z</time></trkpt><trkpt lat="32.6900433" lon="-8.63971"><ele>161.0</ele><time>2026-04-26T15:07:08.396Z</time></trkpt><trkpt lat="32.690165" lon="-8.639485"><ele>162.0</ele><time>2026-04-26T15:07:09.395Z</time></trkpt><trkpt lat="32.6902883" lon="-8.63926"><ele>163.0</ele><time>2026-04-26T15:07:10.395Z</time></trkpt><trkpt lat="32.690405" lon="-8.6390283"><ele>163.0</ele><time>2026-04-26T15:07:11.395Z</time></trkpt><trkpt lat="32.690525" lon="-8.6388017"><ele>163.0</ele><time>2026-04-26T15:07:12.395Z</time></trkpt><trkpt lat="32.690645" lon="-8.6385683"><ele>163.0</ele><time>2026-04-26T15:07:13.395Z</time></trkpt><trkpt lat="32.69076" lon="-8.63834"><ele>163.0</ele><time>2026-04-26T15:07:14.395Z</time></trkpt><trkpt lat="32.69088" lon="-8.63811"><ele>163.0</ele><time>2026-04-26T15:07:15.395Z</time></trkpt><trkpt lat="32.6910017" lon="-8.6378767"><ele>163.0</ele><time>2026-04-26T15:07:16.395Z</time></trkpt><trkpt lat="32.69113" lon="-8.6376483"><ele>163.0</ele><time>2026-04-26T15:07:17.395Z</time></trkpt><trkpt lat="32.6912533" lon="-8.6374183"><ele>163.0</ele><time>2026-04-26T15:07:18.395Z</time></trkpt><trkpt lat="32.6913783" lon="-8.6371867"><ele>163.0</ele><time>2026-04-26T15:07:19.395Z</time></trkpt><trkpt lat="32.6915067" lon="-8.6369517"><ele>163.0</ele><time>2026-04-26T15:07:20.395Z</time></trkpt><trkpt lat="32.6916317" lon="-8.636725"><ele>163.0</ele><time>2026-04-26T15:07:21.395Z</time></trkpt><trkpt lat="32.6917467" lon="-8.6365167"><ele>163.0</ele><time>2026-04-26T15:07:22.395Z</time></trkpt><trkpt lat="32.6918717" lon="-8.63631"><ele>163.0</ele><time>2026-04-26T15:07:23.395Z</time></trkpt><trkpt lat="32.692" lon="-8.6361067"><ele>162.33333333333334</ele><time>2026-04-26T15:07:24.395Z</time></trkpt><trkpt lat="32.6921333" lon="-8.6359"><ele>161.66666666666666</ele><time>2026-04-26T15:07:25.395Z</time></trkpt><trkpt lat="32.692265" lon="-8.6356883"><ele>161.0</ele><time>2026-04-26T15:07:26.395Z</time></trkpt><trkpt lat="32.692405" lon="-8.635475"><ele>161.0</ele><time>2026-04-26T15:07:27.395Z</time></trkpt><trkpt lat="32.69255" lon="-8.6352633"><ele>161.0</ele><time>2026-04-26T15:07:28.395Z</time></trkpt><trkpt lat="32.6926983" lon="-8.6350533"><ele>162.0</ele><time>2026-04-26T15:07:29.395Z</time></trkpt><trkpt lat="32.69284" lon="-8.6348383"><ele>163.0</ele><time>2026-04-26T15:07:30.395Z</time></trkpt><trkpt lat="32.6929867" lon="-8.6346283"><ele>163.5</ele><time>2026-04-26T15:07:31.395Z</time></trkpt><trkpt lat="32.6931333" lon="-8.634415"><ele>164.0</ele><time>2026-04-26T15:07:32.396Z</time></trkpt><trkpt lat="32.693285" lon="-8.6342033"><ele>164.0</ele><time>2026-04-26T15:07:33.395Z</time></trkpt><trkpt lat="32.693435" lon="-8.6339883"><ele>164.0</ele><time>2026-04-26T15:07:34.395Z</time></trkpt><trkpt lat="32.6935867" lon="-8.63378"><ele>163.5</ele><time>2026-04-26T15:07:35.395Z</time></trkpt><trkpt lat="32.6937417" lon="-8.6335733"><ele>163.0</ele><time>2026-04-26T15:07:36.395Z</time></trkpt><trkpt lat="32.6938967" lon="-8.6333617"><ele>163.0</ele><time>2026-04-26T15:07:37.395Z</time></trkpt><trkpt lat="32.69405" lon="-8.6331533"><ele>163.0</ele><time>2026-04-26T15:07:38.395Z</time></trkpt><trkpt lat="32.694205" lon="-8.632945"><ele>163.0</ele><time>2026-04-26T15:07:39.395Z</time></trkpt><trkpt lat="32.6943583" lon="-8.632735"><ele>163.0</ele><time>2026-04-26T15:07:40.395Z</time></trkpt><trkpt lat="32.6945117" lon="-8.63252"><ele>163.0</ele><time>2026-04-26T15:07:41.395Z</time></trkpt><trkpt lat="32.6946633" lon="-8.632315"><ele>163.0</ele><time>2026-04-26T15:07:42.395Z</time></trkpt><trkpt lat="32.6948183" lon="-8.6321067"><ele>163.0</ele><time>2026-04-26T15:07:43.395Z</time></trkpt><trkpt lat="32.6949767" lon="-8.6319"><ele>163.0</ele><time>2026-04-26T15:07:44.395Z</time></trkpt><trkpt lat="32.695135" lon="-8.6316983"><ele>163.0</ele><time>2026-04-26T15:07:45.395Z</time></trkpt><trkpt lat="32.6952967" lon="-8.631505"><ele>163.0</ele><time>2026-04-26T15:07:46.395Z</time></trkpt><trkpt lat="32.6954633" lon="-8.631315"><ele>162.5</ele><time>2026-04-26T15:07:47.395Z</time></trkpt><trkpt lat="32.6956267" lon="-8.6311217"><ele>162.0</ele><time>2026-04-26T15:07:48.395Z</time></trkpt><trkpt lat="32.6958" lon="-8.6309383"><ele>162.0</ele><time>2026-04-26T15:07:49.395Z</time></trkpt><trkpt lat="32.6959733" lon="-8.6307617"><ele>162.0</ele><time>2026-04-26T15:07:50.395Z</time></trkpt><trkpt lat="32.69615" lon="-8.630595"><ele>162.0</ele><time>2026-04-26T15:07:51.395Z</time></trkpt><trkpt lat="32.6963317" lon="-8.6304467"><ele>162.0</ele><time>2026-04-26T15:07:52.395Z</time></trkpt><trkpt lat="32.696515" lon="-8.6302933"><ele>162.0</ele><time>2026-04-26T15:07:53.395Z</time></trkpt><trkpt lat="32.6966933" lon="-8.630145"><ele>162.0</ele><time>2026-04-26T15:07:54.395Z</time></trkpt><trkpt lat="32.6968783" lon="-8.6300033"><ele>162.0</ele><time>2026-04-26T15:07:55.395Z</time></trkpt><trkpt lat="32.6970733" lon="-8.629865"><ele>162.0</ele><time>2026-04-26T15:07:56.395Z</time></trkpt><trkpt lat="32.6972683" lon="-8.6297333"><ele>162.0</ele><time>2026-04-26T15:07:57.395Z</time></trkpt><trkpt lat="32.6974717" lon="-8.6296017"><ele>162.0</ele><time>2026-04-26T15:07:58.395Z</time></trkpt><trkpt lat="32.6976767" lon="-8.6294717"><ele>163.0</ele><time>2026-04-26T15:07:59.395Z</time></trkpt><trkpt lat="32.6978783" lon="-8.6293367"><ele>164.0</ele><time>2026-04-26T15:08:00.395Z</time></trkpt><trkpt lat="32.69808" lon="-8.6292117"><ele>164.0</ele><time>2026-04-26T15:08:01.395Z</time></trkpt><trkpt lat="32.6982817" lon="-8.6290833"><ele>164.0</ele><time>2026-04-26T15:08:02.395Z</time></trkpt><trkpt lat="32.69849" lon="-8.6289567"><ele>163.0</ele><time>2026-04-26T15:08:03.395Z</time></trkpt><trkpt lat="32.6986983" lon="-8.6288283"><ele>162.0</ele><time>2026-04-26T15:08:04.395Z</time></trkpt><trkpt lat="32.6989067" lon="-8.6287017"><ele>162.5</ele><time>2026-04-26T15:08:05.395Z</time></trkpt><trkpt lat="32.6991167" lon="-8.6285717"><ele>163.0</ele><time>2026-04-26T15:08:06.395Z</time></trkpt><trkpt lat="32.69933" lon="-8.62844"><ele>162.5</ele><time>2026-04-26T15:08:07.395Z</time></trkpt><trkpt lat="32.6995417" lon="-8.6283083"><ele>162.0</ele><time>2026-04-26T15:08:08.395Z</time></trkpt><trkpt lat="32.6997517" lon="-8.6281783"><ele>162.0</ele><time>2026-04-26T15:08:09.395Z</time></trkpt><trkpt lat="32.699955" lon="-8.628055"><ele>162.0</ele><time>2026-04-26T15:08:10.395Z</time></trkpt><trkpt lat="32.7001483" lon="-8.627935"><ele>162.0</ele><time>2026-04-26T15:08:11.395Z</time></trkpt><trkpt lat="32.7003317" lon="-8.62782"><ele>161.66666666666666</ele><time>2026-04-26T15:08:12.395Z</time></trkpt><trkpt lat="32.70051" lon="-8.6277167"><ele>161.33333333333331</ele><time>2026-04-26T15:08:13.395Z</time></trkpt><trkpt lat="32.7006767" lon="-8.6276167"><ele>161.0</ele><time>2026-04-26T15:08:14.395Z</time></trkpt><trkpt lat="32.700835" lon="-8.62752"><ele>161.0</ele><time>2026-04-26T15:08:15.395Z</time></trkpt><trkpt lat="32.7009867" lon="-8.62743"><ele>161.0</ele><time>2026-04-26T15:08:16.395Z</time></trkpt><trkpt lat="32.7011417" lon="-8.627345"><ele>161.0</ele><time>2026-04-26T15:08:17.395Z</time></trkpt><trkpt lat="32.7013" lon="-8.6272533"><ele>161.33333333333331</ele><time>2026-04-26T15:08:18.395Z</time></trkpt><trkpt lat="32.70146" lon="-8.6271617"><ele>161.66666666666666</ele><time>2026-04-26T15:08:19.395Z</time></trkpt><trkpt lat="32.701625" lon="-8.6270633"><ele>162.0</ele><time>2026-04-26T15:08:20.395Z</time></trkpt><trkpt lat="32.7017833" lon="-8.62697"><ele>161.66666666666666</ele><time>2026-04-26T15:08:21.395Z</time></trkpt><trkpt lat="32.7019467" lon="-8.626875"><ele>161.33333333333331</ele><time>2026-04-26T15:08:22.395Z</time></trkpt><trkpt lat="32.7020983" lon="-8.626785"><ele>161.0</ele><time>2026-04-26T15:08:23.395Z</time></trkpt><trkpt lat="32.7022467" lon="-8.6266933"><ele>161.0</ele><time>2026-04-26T15:08:24.395Z</time></trkpt><trkpt lat="32.70239" lon="-8.6266"><ele>161.0</ele><time>2026-04-26T15:08:25.395Z</time></trkpt><trkpt lat="32.7025267" lon="-8.6265133"><ele>161.0</ele><time>2026-04-26T15:08:26.395Z</time></trkpt><trkpt lat="32.702665" lon="-8.6264267"><ele>161.0</ele><time>2026-04-26T15:08:27.395Z</time></trkpt><trkpt lat="32.7028067" lon="-8.6263333"><ele>161.0</ele><time>2026-04-26T15:08:28.395Z</time></trkpt><trkpt lat="32.7029533" lon="-8.626245"><ele>161.0</ele><time>2026-04-26T15:08:29.395Z</time></trkpt><trkpt lat="32.703105" lon="-8.6261533"><ele>161.0</ele><time>2026-04-26T15:08:30.396Z</time></trkpt><trkpt lat="32.7032683" lon="-8.626065"><ele>161.0</ele><time>2026-04-26T15:08:31.395Z</time></trkpt><trkpt lat="32.703445" lon="-8.6259617"><ele>161.0</ele><time>2026-04-26T15:08:32.395Z</time></trkpt><trkpt lat="32.7036333" lon="-8.625855"><ele>161.0</ele><time>2026-04-26T15:08:33.395Z</time></trkpt><trkpt lat="32.7038283" lon="-8.6257533"><ele>161.0</ele><time>2026-04-26T15:08:34.395Z</time></trkpt><trkpt lat="32.704035" lon="-8.6256483"><ele>161.0</ele><time>2026-04-26T15:08:35.395Z</time></trkpt><trkpt lat="32.70424" lon="-8.6255433"><ele>161.0</ele><time>2026-04-26T15:08:36.395Z</time></trkpt><trkpt lat="32.704455" lon="-8.6254383"><ele>161.0</ele><time>2026-04-26T15:08:37.395Z</time></trkpt><trkpt lat="32.704675" lon="-8.625335"><ele>161.0</ele><time>2026-04-26T15:08:38.395Z</time></trkpt><trkpt lat="32.7048983" lon="-8.6252267"><ele>161.0</ele><time>2026-04-26T15:08:39.395Z</time></trkpt><trkpt lat="32.705125" lon="-8.625115"><ele>160.5</ele><time>2026-04-26T15:08:40.395Z</time></trkpt><trkpt lat="32.7053467" lon="-8.625005"><ele>160.0</ele><time>2026-04-26T15:08:41.395Z</time></trkpt><trkpt lat="32.7055633" lon="-8.624895"><ele>160.0</ele><time>2026-04-26T15:08:42.395Z</time></trkpt><trkpt lat="32.7057667" lon="-8.6247867"><ele>160.0</ele><time>2026-04-26T15:08:43.394Z</time></trkpt><trkpt lat="32.7059817" lon="-8.6246733"><ele>160.5</ele><time>2026-04-26T15:08:44.394Z</time></trkpt><trkpt lat="32.7061917" lon="-8.6245483"><ele>161.0</ele><time>2026-04-26T15:08:45.394Z</time></trkpt><trkpt lat="32.70639" lon="-8.6244267"><ele>161.0</ele><time>2026-04-26T15:08:46.394Z</time></trkpt><trkpt lat="32.7065867" lon="-8.6243"><ele>161.0</ele><time>2026-04-26T15:08:47.394Z</time></trkpt><trkpt lat="32.706775" lon="-8.6241883"><ele>161.0</ele><time>2026-04-26T15:08:48.394Z</time></trkpt><trkpt lat="32.7069567" lon="-8.6240733"><ele>161.33333333333331</ele><time>2026-04-26T15:08:49.394Z</time></trkpt><trkpt lat="32.7071333" lon="-8.6239617"><ele>161.66666666666666</ele><time>2026-04-26T15:08:50.394Z</time></trkpt><trkpt lat="32.7073117" lon="-8.6238467"><ele>162.0</ele><time>2026-04-26T15:08:51.394Z</time></trkpt><trkpt lat="32.7074933" lon="-8.623735"><ele>162.0</ele><time>2026-04-26T15:08:52.394Z</time></trkpt><trkpt lat="32.7076783" lon="-8.6236183"><ele>162.0</ele><time>2026-04-26T15:08:53.394Z</time></trkpt><trkpt lat="32.7078617" lon="-8.623495"><ele>162.0</ele><time>2026-04-26T15:08:54.394Z</time></trkpt><trkpt lat="32.7080383" lon="-8.6233817"><ele>162.0</ele><time>2026-04-26T15:08:55.394Z</time></trkpt><trkpt lat="32.70822" lon="-8.6232683"><ele>162.0</ele><time>2026-04-26T15:08:56.394Z</time></trkpt><trkpt lat="32.7083917" lon="-8.62316"><ele>162.0</ele><time>2026-04-26T15:08:57.394Z</time></trkpt><trkpt lat="32.7085617" lon="-8.6230517"><ele>162.0</ele><time>2026-04-26T15:08:58.394Z</time></trkpt><trkpt lat="32.70873" lon="-8.62295"><ele>162.0</ele><time>2026-04-26T15:08:59.395Z</time></trkpt><trkpt lat="32.708895" lon="-8.622845"><ele>162.0</ele><time>2026-04-26T15:09:00.394Z</time></trkpt><trkpt lat="32.7090617" lon="-8.6227367"><ele>161.33333333333334</ele><time>2026-04-26T15:09:01.394Z</time></trkpt><trkpt lat="32.709235" lon="-8.6226283"><ele>160.66666666666669</ele><time>2026-04-26T15:09:02.394Z</time></trkpt><trkpt lat="32.70941" lon="-8.62252"><ele>160.0</ele><time>2026-04-26T15:09:03.395Z</time></trkpt><trkpt lat="32.7095783" lon="-8.62242"><ele>160.0</ele><time>2026-04-26T15:09:04.394Z</time></trkpt><trkpt lat="32.709745" lon="-8.6223267"><ele>160.0</ele><time>2026-04-26T15:09:05.394Z</time></trkpt><trkpt lat="32.70991" lon="-8.6222317"><ele>160.0</ele><time>2026-04-26T15:09:06.394Z</time></trkpt><trkpt lat="32.71008" lon="-8.6221333"><ele>160.0</ele><time>2026-04-26T15:09:07.394Z</time></trkpt><trkpt lat="32.7102517" lon="-8.62204"><ele>160.0</ele><time>2026-04-26T15:09:08.394Z</time></trkpt><trkpt lat="32.710425" lon="-8.6219433"><ele>160.0</ele><time>2026-04-26T15:09:09.394Z</time></trkpt><trkpt lat="32.7106" lon="-8.621845"><ele>160.0</ele><time>2026-04-26T15:09:10.394Z</time></trkpt><trkpt lat="32.7107733" lon="-8.6217433"><ele>160.0</ele><time>2026-04-26T15:09:11.394Z</time></trkpt><trkpt lat="32.71095" lon="-8.621645"><ele>160.0</ele><time>2026-04-26T15:09:12.394Z</time></trkpt><trkpt lat="32.7111183" lon="-8.6215533"><ele>160.0</ele><time>2026-04-26T15:09:13.394Z</time></trkpt><trkpt lat="32.711285" lon="-8.6214633"><ele>160.0</ele><time>2026-04-26T15:09:14.394Z</time></trkpt><trkpt lat="32.7114533" lon="-8.6213733"><ele>160.0</ele><time>2026-04-26T15:09:15.394Z</time></trkpt><trkpt lat="32.71162" lon="-8.6212833"><ele>160.0</ele><time>2026-04-26T15:09:16.394Z</time></trkpt><trkpt lat="32.7117833" lon="-8.621195"><ele>160.0</ele><time>2026-04-26T15:09:17.394Z</time></trkpt><trkpt lat="32.7119333" lon="-8.6211133"><ele>160.0</ele><time>2026-04-26T15:09:18.394Z</time></trkpt><trkpt lat="32.7120767" lon="-8.6210367"><ele>160.0</ele><time>2026-04-26T15:09:19.394Z</time></trkpt><trkpt lat="32.7122117" lon="-8.620965"><ele>160.0</ele><time>2026-04-26T15:09:20.394Z</time></trkpt><trkpt lat="32.71234" lon="-8.6209"><ele>160.0</ele><time>2026-04-26T15:09:21.395Z</time></trkpt><trkpt lat="32.71246" lon="-8.6208317"><ele>160.0</ele><time>2026-04-26T15:09:22.394Z</time></trkpt><trkpt lat="32.7125767" lon="-8.6207583"><ele>160.0</ele><time>2026-04-26T15:09:23.394Z</time></trkpt><trkpt lat="32.712695" lon="-8.6206833"><ele>160.0</ele><time>2026-04-26T15:09:24.394Z</time></trkpt><trkpt lat="32.71282" lon="-8.6206117"><ele>160.0</ele><time>2026-04-26T15:09:25.394Z</time></trkpt><trkpt lat="32.712955" lon="-8.6205417"><ele>160.0</ele><time>2026-04-26T15:09:26.394Z</time></trkpt><trkpt lat="32.7130883" lon="-8.6204683"><ele>159.66666666666669</ele><time>2026-04-26T15:09:27.394Z</time></trkpt><trkpt lat="32.713225" lon="-8.620385"><ele>159.33333333333334</ele><time>2026-04-26T15:09:28.394Z</time></trkpt><trkpt lat="32.7133633" lon="-8.620305"><ele>159.0</ele><time>2026-04-26T15:09:29.394Z</time></trkpt><trkpt lat="32.713505" lon="-8.620225"><ele>158.75</ele><time>2026-04-26T15:09:30.394Z</time></trkpt><trkpt lat="32.7136483" lon="-8.6201467"><ele>158.5</ele><time>2026-04-26T15:09:31.395Z</time></trkpt><trkpt lat="32.71378" lon="-8.6200667"><ele>158.25</ele><time>2026-04-26T15:09:32.394Z</time></trkpt><trkpt lat="32.713905" lon="-8.6199967"><ele>158.0</ele><time>2026-04-26T15:09:33.394Z</time></trkpt><trkpt lat="32.7140217" lon="-8.61993"><ele>158.0</ele><time>2026-04-26T15:09:34.394Z</time></trkpt><trkpt lat="32.7141317" lon="-8.61986"><ele>158.0</ele><time>2026-04-26T15:09:35.394Z</time></trkpt><trkpt lat="32.7142433" lon="-8.6198017"><ele>158.0</ele><time>2026-04-26T15:09:36.394Z</time></trkpt><trkpt lat="32.714345" lon="-8.619745"><ele>158.0</ele><time>2026-04-26T15:09:37.394Z</time></trkpt><trkpt lat="32.7144467" lon="-8.61969"><ele>158.25</ele><time>2026-04-26T15:09:38.394Z</time></trkpt><trkpt lat="32.7145467" lon="-8.61964"><ele>158.5</ele><time>2026-04-26T15:09:39.394Z</time></trkpt><trkpt lat="32.7146517" lon="-8.6195967"><ele>158.75</ele><time>2026-04-26T15:09:40.394Z</time></trkpt><trkpt lat="32.7147683" lon="-8.6195483"><ele>159.0</ele><time>2026-04-26T15:09:41.394Z</time></trkpt><trkpt lat="32.7148917" lon="-8.6195"><ele>159.0</ele><time>2026-04-26T15:09:42.394Z</time></trkpt><trkpt lat="32.7150133" lon="-8.6194567"><ele>159.0</ele><time>2026-04-26T15:09:43.394Z</time></trkpt><trkpt lat="32.7151433" lon="-8.61941"><ele>159.0</ele><time>2026-04-26T15:09:44.394Z</time></trkpt><trkpt lat="32.71527" lon="-8.6193667"><ele>159.0</ele><time>2026-04-26T15:09:45.394Z</time></trkpt><trkpt lat="32.7153917" lon="-8.61932"><ele>159.0</ele><time>2026-04-26T15:09:46.395Z</time></trkpt><trkpt lat="32.7155117" lon="-8.6192767"><ele>159.0</ele><time>2026-04-26T15:09:47.394Z</time></trkpt><trkpt lat="32.71563" lon="-8.6192317"><ele>159.0</ele><time>2026-04-26T15:09:48.394Z</time></trkpt><trkpt lat="32.71575" lon="-8.6191883"><ele>159.0</ele><time>2026-04-26T15:09:49.394Z</time></trkpt><trkpt lat="32.7158717" lon="-8.6191483"><ele>159.0</ele><time>2026-04-26T15:09:50.394Z</time></trkpt><trkpt lat="32.7160067" lon="-8.6191017"><ele>159.0</ele><time>2026-04-26T15:09:51.394Z</time></trkpt><trkpt lat="32.716145" lon="-8.6190517"><ele>159.0</ele><time>2026-04-26T15:09:52.394Z</time></trkpt><trkpt lat="32.7162967" lon="-8.6189983"><ele>159.0</ele><time>2026-04-26T15:09:53.394Z</time></trkpt><trkpt lat="32.7164567" lon="-8.6189417"><ele>159.0</ele><time>2026-04-26T15:09:54.394Z</time></trkpt><trkpt lat="32.716625" lon="-8.61889"><ele>159.0</ele><time>2026-04-26T15:09:55.394Z</time></trkpt><trkpt lat="32.7167983" lon="-8.6188333"><ele>159.0</ele><time>2026-04-26T15:09:56.394Z</time></trkpt><trkpt lat="32.7169667" lon="-8.61878"><ele>159.0</ele><time>2026-04-26T15:09:57.394Z</time></trkpt><trkpt lat="32.7171217" lon="-8.61873"><ele>159.0</ele><time>2026-04-26T15:09:58.394Z</time></trkpt><trkpt lat="32.7172633" lon="-8.6186833"><ele>159.0</ele><time>2026-04-26T15:09:59.394Z</time></trkpt><trkpt lat="32.7173983" lon="-8.6186417"><ele>159.0</ele><time>2026-04-26T15:10:00.394Z</time></trkpt><trkpt lat="32.7175283" lon="-8.6185983"><ele>159.25</ele><time>2026-04-26T15:10:01.394Z</time></trkpt><trkpt lat="32.717655" lon="-8.618555"><ele>159.5</ele><time>2026-04-26T15:10:02.394Z</time></trkpt><trkpt lat="32.7177867" lon="-8.6185133"><ele>159.75</ele><time>2026-04-26T15:10:03.394Z</time></trkpt><trkpt lat="32.71792" lon="-8.61847"><ele>160.0</ele><time>2026-04-26T15:10:04.394Z</time></trkpt><trkpt lat="32.71806" lon="-8.61842"><ele>160.0</ele><time>2026-04-26T15:10:05.394Z</time></trkpt><trkpt lat="32.7182067" lon="-8.6183717"><ele>160.0</ele><time>2026-04-26T15:10:06.394Z</time></trkpt><trkpt lat="32.7183517" lon="-8.6183183"><ele>160.0</ele><time>2026-04-26T15:10:07.394Z</time></trkpt><trkpt lat="32.7185" lon="-8.6182667"><ele>160.0</ele><time>2026-04-26T15:10:08.394Z</time></trkpt><trkpt lat="32.7186483" lon="-8.6182117"><ele>160.0</ele><time>2026-04-26T15:10:09.394Z</time></trkpt><trkpt lat="32.7187867" lon="-8.61816"><ele>160.0</ele><time>2026-04-26T15:10:10.394Z</time></trkpt><trkpt lat="32.7189217" lon="-8.61811"><ele>160.0</ele><time>2026-04-26T15:10:11.395Z</time></trkpt><trkpt lat="32.719055" lon="-8.61806"><ele>160.0</ele><time>2026-04-26T15:10:12.395Z</time></trkpt><trkpt lat="32.71919" lon="-8.6180033"><ele>160.0</ele><time>2026-04-26T15:10:13.394Z</time></trkpt><trkpt lat="32.719325" lon="-8.6179417"><ele>160.0</ele><time>2026-04-26T15:10:14.394Z</time></trkpt><trkpt lat="32.7194567" lon="-8.6178783"><ele>160.0</ele><time>2026-04-26T15:10:15.394Z</time></trkpt><trkpt lat="32.71959" lon="-8.6178033"><ele>159.66666666666669</ele><time>2026-04-26T15:10:16.395Z</time></trkpt><trkpt lat="32.7197333" lon="-8.6177183"><ele>159.33333333333334</ele><time>2026-04-26T15:10:17.394Z</time></trkpt><trkpt lat="32.7198817" lon="-8.6176333"><ele>159.0</ele><time>2026-04-26T15:10:18.394Z</time></trkpt><trkpt lat="32.7200333" lon="-8.617545"><ele>159.0</ele><time>2026-04-26T15:10:19.394Z</time></trkpt><trkpt lat="32.72019" lon="-8.6174567"><ele>159.0</ele><time>2026-04-26T15:10:20.394Z</time></trkpt><trkpt lat="32.720345" lon="-8.6173733"><ele>159.0</ele><time>2026-04-26T15:10:21.394Z</time></trkpt><trkpt lat="32.720505" lon="-8.617285"><ele>159.0</ele><time>2026-04-26T15:10:22.394Z</time></trkpt><trkpt lat="32.7206667" lon="-8.6171917"><ele>159.0</ele><time>2026-04-26T15:10:23.394Z</time></trkpt><trkpt lat="32.7208367" lon="-8.6170933"><ele>159.0</ele><time>2026-04-26T15:10:24.394Z</time></trkpt><trkpt lat="32.7210133" lon="-8.616995"><ele>159.0</ele><time>2026-04-26T15:10:25.394Z</time></trkpt><trkpt lat="32.72119" lon="-8.6168933"><ele>159.0</ele><time>2026-04-26T15:10:26.394Z</time></trkpt><trkpt lat="32.7213717" lon="-8.6167867"><ele>159.0</ele><time>2026-04-26T15:10:27.394Z</time></trkpt><trkpt lat="32.7215517" lon="-8.6166833"><ele>159.0</ele><time>2026-04-26T15:10:28.394Z</time></trkpt><trkpt lat="32.7217283" lon="-8.6165817"><ele>159.0</ele><time>2026-04-26T15:10:29.394Z</time></trkpt><trkpt lat="32.721895" lon="-8.6164783"><ele>159.0</ele><time>2026-04-26T15:10:30.395Z</time></trkpt><trkpt lat="32.722065" lon="-8.6163767"><ele>159.0</ele><time>2026-04-26T15:10:31.394Z</time></trkpt><trkpt lat="32.72223" lon="-8.61628"><ele>159.0</ele><time>2026-04-26T15:10:32.394Z</time></trkpt><trkpt lat="32.7223867" lon="-8.6161867"><ele>159.0</ele><time>2026-04-26T15:10:33.394Z</time></trkpt><trkpt lat="32.7225417" lon="-8.6160983"><ele>158.66666666666666</ele><time>2026-04-26T15:10:34.394Z</time></trkpt><trkpt lat="32.7226883" lon="-8.6160067"><ele>158.33333333333331</ele><time>2026-04-26T15:10:35.394Z</time></trkpt><trkpt lat="32.7228433" lon="-8.6159133"><ele>158.0</ele><time>2026-04-26T15:10:36.394Z</time></trkpt><trkpt lat="32.7230017" lon="-8.615815"><ele>158.0</ele><time>2026-04-26T15:10:37.394Z</time></trkpt><trkpt lat="32.7231683" lon="-8.615715"><ele>158.0</ele><time>2026-04-26T15:10:38.394Z</time></trkpt><trkpt lat="32.72334" lon="-8.6155933"><ele>158.0</ele><time>2026-04-26T15:10:39.394Z</time></trkpt><trkpt lat="32.7235167" lon="-8.615455"><ele>158.0</ele><time>2026-04-26T15:10:40.394Z</time></trkpt><trkpt lat="32.723695" lon="-8.6153133"><ele>158.0</ele><time>2026-04-26T15:10:41.394Z</time></trkpt><trkpt lat="32.7238683" lon="-8.6151633"><ele>158.0</ele><time>2026-04-26T15:10:42.394Z</time></trkpt><trkpt lat="32.72404" lon="-8.61501"><ele>158.0</ele><time>2026-04-26T15:10:43.394Z</time></trkpt><trkpt lat="32.72421" lon="-8.61485"><ele>158.0</ele><time>2026-04-26T15:10:44.394Z</time></trkpt><trkpt lat="32.7243783" lon="-8.6146883"><ele>158.0</ele><time>2026-04-26T15:10:45.394Z</time></trkpt><trkpt lat="32.7245467" lon="-8.6145267"><ele>158.0</ele><time>2026-04-26T15:10:46.394Z</time></trkpt><trkpt lat="32.7247167" lon="-8.6143633"><ele>158.0</ele><time>2026-04-26T15:10:47.394Z</time></trkpt><trkpt lat="32.72488" lon="-8.6141933"><ele>158.0</ele><time>2026-04-26T15:10:48.394Z</time></trkpt><trkpt lat="32.7250333" lon="-8.61401"><ele>158.0</ele><time>2026-04-26T15:10:49.394Z</time></trkpt><trkpt lat="32.7251867" lon="-8.6138267"><ele>158.0</ele><time>2026-04-26T15:10:50.395Z</time></trkpt><trkpt lat="32.7253367" lon="-8.6136383"><ele>158.0</ele><time>2026-04-26T15:10:51.394Z</time></trkpt><trkpt lat="32.7254833" lon="-8.6134517"><ele>157.66666666666666</ele><time>2026-04-26T15:10:52.395Z</time></trkpt><trkpt lat="32.7256267" lon="-8.6132633"><ele>157.33333333333334</ele><time>2026-04-26T15:10:53.394Z</time></trkpt><trkpt lat="32.7257683" lon="-8.6130783"><ele>157.0</ele><time>2026-04-26T15:10:54.394Z</time></trkpt><trkpt lat="32.7259067" lon="-8.6128983"><ele>157.33333333333334</ele><time>2026-04-26T15:10:55.394Z</time></trkpt><trkpt lat="32.7260467" lon="-8.61272"><ele>157.66666666666666</ele><time>2026-04-26T15:10:56.394Z</time></trkpt><trkpt lat="32.7261833" lon="-8.6125417"><ele>158.0</ele><time>2026-04-26T15:10:57.394Z</time></trkpt><trkpt lat="32.7263217" lon="-8.6123617"><ele>158.0</ele><time>2026-04-26T15:10:58.394Z</time></trkpt><trkpt lat="32.7264617" lon="-8.6121783"><ele>158.0</ele><time>2026-04-26T15:10:59.394Z</time></trkpt><trkpt lat="32.7266067" lon="-8.611995"><ele>158.0</ele><time>2026-04-26T15:11:00.394Z</time></trkpt><trkpt lat="32.7267483" lon="-8.61181"><ele>158.0</ele><time>2026-04-26T15:11:01.394Z</time></trkpt><trkpt lat="32.72689" lon="-8.6116233"><ele>158.0</ele><time>2026-04-26T15:11:02.394Z</time></trkpt><trkpt lat="32.7270333" lon="-8.6114383"><ele>158.0</ele><time>2026-04-26T15:11:03.394Z</time></trkpt><trkpt lat="32.727175" lon="-8.6112567"><ele>158.0</ele><time>2026-04-26T15:11:04.394Z</time></trkpt><trkpt lat="32.7273117" lon="-8.6110733"><ele>158.0</ele><time>2026-04-26T15:11:05.394Z</time></trkpt><trkpt lat="32.7274583" lon="-8.6108867"><ele>158.0</ele><time>2026-04-26T15:11:06.394Z</time></trkpt><trkpt lat="32.7276133" lon="-8.61069"><ele>158.0</ele><time>2026-04-26T15:11:07.394Z</time></trkpt><trkpt lat="32.7277867" lon="-8.6104767"><ele>158.0</ele><time>2026-04-26T15:11:08.394Z</time></trkpt><trkpt lat="32.7279667" lon="-8.61025"><ele>158.0</ele><time>2026-04-26T15:11:09.394Z</time></trkpt><trkpt lat="32.7281383" lon="-8.610025"><ele>158.0</ele><time>2026-04-26T15:11:10.394Z</time></trkpt><trkpt lat="32.7283033" lon="-8.6098033"><ele>158.0</ele><time>2026-04-26T15:11:11.394Z</time></trkpt><trkpt lat="32.7284683" lon="-8.60958"><ele>158.0</ele><time>2026-04-26T15:11:12.394Z</time></trkpt><trkpt lat="32.7286317" lon="-8.6093583"><ele>157.5</ele><time>2026-04-26T15:11:13.394Z</time></trkpt><trkpt lat="32.7287967" lon="-8.6091383"><ele>157.0</ele><time>2026-04-26T15:11:14.394Z</time></trkpt><trkpt lat="32.72896" lon="-8.60892"><ele>157.0</ele><time>2026-04-26T15:11:15.394Z</time></trkpt><trkpt lat="32.7291233" lon="-8.6087183"><ele>157.0</ele><time>2026-04-26T15:11:16.394Z</time></trkpt><trkpt lat="32.7292867" lon="-8.6085133"><ele>156.0</ele><time>2026-04-26T15:11:17.394Z</time></trkpt><trkpt lat="32.7294533" lon="-8.6083133"><ele>155.0</ele><time>2026-04-26T15:11:18.394Z</time></trkpt><trkpt lat="32.7296267" lon="-8.608115"><ele>155.0</ele><time>2026-04-26T15:11:19.394Z</time></trkpt><trkpt lat="32.7298083" lon="-8.6079233"><ele>155.0</ele><time>2026-04-26T15:11:20.394Z</time></trkpt><trkpt lat="32.729995" lon="-8.6077333"><ele>154.5</ele><time>2026-04-26T15:11:21.394Z</time></trkpt><trkpt lat="32.7301867" lon="-8.60755"><ele>154.0</ele><time>2026-04-26T15:11:22.394Z</time></trkpt><trkpt lat="32.73038" lon="-8.6073717"><ele>154.0</ele><time>2026-04-26T15:11:23.394Z</time></trkpt><trkpt lat="32.7305783" lon="-8.6071983"><ele>154.0</ele><time>2026-04-26T15:11:24.394Z</time></trkpt><trkpt lat="32.73077" lon="-8.6070433"><ele>154.0</ele><time>2026-04-26T15:11:25.394Z</time></trkpt><trkpt lat="32.7309667" lon="-8.6068933"><ele>154.0</ele><time>2026-04-26T15:11:26.394Z</time></trkpt><trkpt lat="32.731165" lon="-8.6067517"><ele>155.0</ele><time>2026-04-26T15:11:27.394Z</time></trkpt><trkpt lat="32.7313633" lon="-8.6066183"><ele>156.0</ele><time>2026-04-26T15:11:28.394Z</time></trkpt><trkpt lat="32.7315633" lon="-8.6064917"><ele>156.0</ele><time>2026-04-26T15:11:29.394Z</time></trkpt><trkpt lat="32.731765" lon="-8.606375"><ele>156.0</ele><time>2026-04-26T15:11:30.394Z</time></trkpt><trkpt lat="32.731965" lon="-8.6062617"><ele>156.0</ele><time>2026-04-26T15:11:31.394Z</time></trkpt><trkpt lat="32.7321617" lon="-8.606145"><ele>156.0</ele><time>2026-04-26T15:11:32.394Z</time></trkpt><trkpt lat="32.73236" lon="-8.60604"><ele>156.0</ele><time>2026-04-26T15:11:33.394Z</time></trkpt><trkpt lat="32.73256" lon="-8.6059283"><ele>156.0</ele><time>2026-04-26T15:11:34.394Z</time></trkpt><trkpt lat="32.7327533" lon="-8.6058083"><ele>155.0</ele><time>2026-04-26T15:11:35.394Z</time></trkpt><trkpt lat="32.7329433" lon="-8.6056933"><ele>154.0</ele><time>2026-04-26T15:11:36.394Z</time></trkpt><trkpt lat="32.7331317" lon="-8.60558"><ele>153.0</ele><time>2026-04-26T15:11:37.394Z</time></trkpt><trkpt lat="32.733325" lon="-8.6054683"><ele>153.0</ele><time>2026-04-26T15:11:38.394Z</time></trkpt><trkpt lat="32.73352" lon="-8.605355"><ele>153.0</ele><time>2026-04-26T15:11:39.394Z</time></trkpt><trkpt lat="32.733715" lon="-8.6052417"><ele>153.0</ele><time>2026-04-26T15:11:40.394Z</time></trkpt><trkpt lat="32.7339083" lon="-8.6051267"><ele>153.0</ele><time>2026-04-26T15:11:41.394Z</time></trkpt><trkpt lat="32.734105" lon="-8.60501"><ele>153.0</ele><time>2026-04-26T15:11:42.394Z</time></trkpt><trkpt lat="32.7343033" lon="-8.6048917"><ele>153.0</ele><time>2026-04-26T15:11:43.394Z</time></trkpt><trkpt lat="32.734505" lon="-8.6047717"><ele>153.0</ele><time>2026-04-26T15:11:44.394Z</time></trkpt><trkpt lat="32.7347067" lon="-8.604655"><ele>153.0</ele><time>2026-04-26T15:11:45.394Z</time></trkpt><trkpt lat="32.734905" lon="-8.6045317"><ele>153.0</ele><time>2026-04-26T15:11:46.394Z</time></trkpt><trkpt lat="32.735105" lon="-8.6044067"><ele>151.5</ele><time>2026-04-26T15:11:47.394Z</time></trkpt><trkpt lat="32.7353" lon="-8.6042783"><ele>150.0</ele><time>2026-04-26T15:11:48.394Z</time></trkpt><trkpt lat="32.7354933" lon="-8.6041367"><ele>150.0</ele><time>2026-04-26T15:11:49.394Z</time></trkpt><trkpt lat="32.7356817" lon="-8.6039917"><ele>150.0</ele><time>2026-04-26T15:11:50.394Z</time></trkpt><trkpt lat="32.7358583" lon="-8.603845"><ele>150.0</ele><time>2026-04-26T15:11:51.394Z</time></trkpt><trkpt lat="32.7360367" lon="-8.60369"><ele>149.66666666666666</ele><time>2026-04-26T15:11:52.394Z</time></trkpt><trkpt lat="32.7362067" lon="-8.6035317"><ele>149.33333333333331</ele><time>2026-04-26T15:11:53.394Z</time></trkpt><trkpt lat="32.736375" lon="-8.6033717"><ele>149.0</ele><time>2026-04-26T15:11:54.394Z</time></trkpt><trkpt lat="32.7365367" lon="-8.6032133"><ele>149.0</ele><time>2026-04-26T15:11:55.394Z</time></trkpt><trkpt lat="32.736695" lon="-8.6030417"><ele>149.0</ele><time>2026-04-26T15:11:56.394Z</time></trkpt><trkpt lat="32.73685" lon="-8.6028617"><ele>149.0</ele><time>2026-04-26T15:11:57.394Z</time></trkpt><trkpt lat="32.737005" lon="-8.6026783"><ele>148.33333333333331</ele><time>2026-04-26T15:11:58.394Z</time></trkpt><trkpt lat="32.7371617" lon="-8.6024917"><ele>147.66666666666666</ele><time>2026-04-26T15:11:59.394Z</time></trkpt><trkpt lat="32.7373217" lon="-8.6023033"><ele>147.0</ele><time>2026-04-26T15:12:00.394Z</time></trkpt><trkpt lat="32.7374783" lon="-8.6021217"><ele>147.0</ele><time>2026-04-26T15:12:01.394Z</time></trkpt><trkpt lat="32.7376417" lon="-8.601935"><ele>147.0</ele><time>2026-04-26T15:12:02.394Z</time></trkpt><trkpt lat="32.7378033" lon="-8.6017533"><ele>147.0</ele><time>2026-04-26T15:12:03.394Z</time></trkpt><trkpt lat="32.7379567" lon="-8.6015733"><ele>146.33333333333334</ele><time>2026-04-26T15:12:04.395Z</time></trkpt><trkpt lat="32.7381033" lon="-8.6013933"><ele>145.66666666666669</ele><time>2026-04-26T15:12:05.394Z</time></trkpt><trkpt lat="32.7382517" lon="-8.6012117"><ele>145.0</ele><time>2026-04-26T15:12:06.394Z</time></trkpt><trkpt lat="32.738405" lon="-8.6010233"><ele>145.5</ele><time>2026-04-26T15:12:07.394Z</time></trkpt><trkpt lat="32.7385567" lon="-8.60083"><ele>146.0</ele><time>2026-04-26T15:12:08.394Z</time></trkpt><trkpt lat="32.73871" lon="-8.6006267"><ele>146.0</ele><time>2026-04-26T15:12:09.394Z</time></trkpt><trkpt lat="32.7388583" lon="-8.6004233"><ele>146.0</ele><time>2026-04-26T15:12:10.394Z</time></trkpt><trkpt lat="32.7390067" lon="-8.6002133"><ele>146.0</ele><time>2026-04-26T15:12:11.394Z</time></trkpt><trkpt lat="32.7391567" lon="-8.5999983"><ele>146.0</ele><time>2026-04-26T15:12:12.394Z</time></trkpt><trkpt lat="32.73931" lon="-8.599775"><ele>146.5</ele><time>2026-04-26T15:12:13.395Z</time></trkpt><trkpt lat="32.7394633" lon="-8.5995517"><ele>147.0</ele><time>2026-04-26T15:12:14.394Z</time></trkpt><trkpt lat="32.7396133" lon="-8.5993333"><ele>147.0</ele><time>2026-04-26T15:12:15.394Z</time></trkpt><trkpt lat="32.7397567" lon="-8.5991317"><ele>147.0</ele><time>2026-04-26T15:12:16.394Z</time></trkpt><trkpt lat="32.739895" lon="-8.59893"><ele>147.0</ele><time>2026-04-26T15:12:17.395Z</time></trkpt><trkpt lat="32.7400333" lon="-8.5987367"><ele>147.0</ele><time>2026-04-26T15:12:18.394Z</time></trkpt><trkpt lat="32.74017" lon="-8.5985417"><ele>147.0</ele><time>2026-04-26T15:12:19.394Z</time></trkpt><trkpt lat="32.7403083" lon="-8.5983467"><ele>147.0</ele><time>2026-04-26T15:12:20.394Z</time></trkpt><trkpt lat="32.7404467" lon="-8.59815"><ele>147.0</ele><time>2026-04-26T15:12:21.394Z</time></trkpt><trkpt lat="32.74059" lon="-8.5979533"><ele>147.0</ele><time>2026-04-26T15:12:22.394Z</time></trkpt><trkpt lat="32.74073" lon="-8.5977517"><ele>147.0</ele><time>2026-04-26T15:12:23.394Z</time></trkpt><trkpt lat="32.7408767" lon="-8.5975433"><ele>147.5</ele><time>2026-04-26T15:12:24.394Z</time></trkpt><trkpt lat="32.7410217" lon="-8.5973383"><ele>148.0</ele><time>2026-04-26T15:12:25.394Z</time></trkpt><trkpt lat="32.7411683" lon="-8.5971317"><ele>148.0</ele><time>2026-04-26T15:12:26.394Z</time></trkpt><trkpt lat="32.7413133" lon="-8.59692"><ele>148.0</ele><time>2026-04-26T15:12:27.394Z</time></trkpt><trkpt lat="32.7414633" lon="-8.5967183"><ele>148.0</ele><time>2026-04-26T15:12:28.394Z</time></trkpt><trkpt lat="32.7416067" lon="-8.5965333"><ele>148.0</ele><time>2026-04-26T15:12:29.394Z</time></trkpt><trkpt lat="32.7417517" lon="-8.5963583"><ele>148.0</ele><time>2026-04-26T15:12:30.394Z</time></trkpt><trkpt lat="32.7419" lon="-8.5961967"><ele>148.33333333333334</ele><time>2026-04-26T15:12:31.395Z</time></trkpt><trkpt lat="32.7420467" lon="-8.59603"><ele>148.66666666666666</ele><time>2026-04-26T15:12:32.394Z</time></trkpt><trkpt lat="32.74219" lon="-8.5958517"><ele>149.0</ele><time>2026-04-26T15:12:33.394Z</time></trkpt><trkpt lat="32.7423433" lon="-8.5956817"><ele>149.0</ele><time>2026-04-26T15:12:34.394Z</time></trkpt><trkpt lat="32.7424967" lon="-8.5955017"><ele>149.0</ele><time>2026-04-26T15:12:35.394Z</time></trkpt><trkpt lat="32.7426533" lon="-8.5953233"><ele>149.0</ele><time>2026-04-26T15:12:36.394Z</time></trkpt><trkpt lat="32.74281" lon="-8.59515"><ele>149.0</ele><time>2026-04-26T15:12:37.394Z</time></trkpt><trkpt lat="32.7429717" lon="-8.5949683"><ele>149.0</ele><time>2026-04-26T15:12:38.394Z</time></trkpt><trkpt lat="32.7431333" lon="-8.5947883"><ele>149.0</ele><time>2026-04-26T15:12:39.394Z</time></trkpt><trkpt lat="32.7432983" lon="-8.5946017"><ele>149.0</ele><time>2026-04-26T15:12:40.394Z</time></trkpt><trkpt lat="32.7434667" lon="-8.5944167"><ele>149.0</ele><time>2026-04-26T15:12:41.395Z</time></trkpt><trkpt lat="32.743635" lon="-8.5942267"><ele>149.0</ele><time>2026-04-26T15:12:42.395Z</time></trkpt><trkpt lat="32.7438033" lon="-8.594035"><ele>149.0</ele><time>2026-04-26T15:12:43.394Z</time></trkpt><trkpt lat="32.7439717" lon="-8.5938483"><ele>149.0</ele><time>2026-04-26T15:12:44.394Z</time></trkpt><trkpt lat="32.74413" lon="-8.593675"><ele>149.0</ele><time>2026-04-26T15:12:45.394Z</time></trkpt><trkpt lat="32.7442767" lon="-8.59351"><ele>149.0</ele><time>2026-04-26T15:12:46.394Z</time></trkpt><trkpt lat="32.744415" lon="-8.59335"><ele>150.66666666666666</ele><time>2026-04-26T15:12:47.394Z</time></trkpt><trkpt lat="32.7445433" lon="-8.5932017"><ele>152.33333333333334</ele><time>2026-04-26T15:12:48.394Z</time></trkpt><trkpt lat="32.7446667" lon="-8.59306"><ele>154.0</ele><time>2026-04-26T15:12:49.394Z</time></trkpt><trkpt lat="32.74478" lon="-8.592915"><ele>154.33333333333334</ele><time>2026-04-26T15:12:50.394Z</time></trkpt><trkpt lat="32.7448917" lon="-8.5927683"><ele>154.66666666666666</ele><time>2026-04-26T15:12:51.394Z</time></trkpt><trkpt lat="32.745" lon="-8.592625"><ele>155.0</ele><time>2026-04-26T15:12:52.394Z</time></trkpt><trkpt lat="32.7451067" lon="-8.5924783"><ele>155.0</ele><time>2026-04-26T15:12:53.394Z</time></trkpt><trkpt lat="32.7452117" lon="-8.59233"><ele>155.0</ele><time>2026-04-26T15:12:54.394Z</time></trkpt><trkpt lat="32.7453133" lon="-8.59218"><ele>155.0</ele><time>2026-04-26T15:12:55.394Z</time></trkpt><trkpt lat="32.745415" lon="-8.5920233"><ele>155.66666666666666</ele><time>2026-04-26T15:12:56.394Z</time></trkpt><trkpt lat="32.745515" lon="-8.5918667"><ele>156.33333333333334</ele><time>2026-04-26T15:12:57.394Z</time></trkpt><trkpt lat="32.74561" lon="-8.591705"><ele>157.0</ele><time>2026-04-26T15:12:58.394Z</time></trkpt><trkpt lat="32.7457067" lon="-8.5915467"><ele>157.0</ele><time>2026-04-26T15:12:59.394Z</time></trkpt><trkpt lat="32.7457983" lon="-8.5913867"><ele>157.0</ele><time>2026-04-26T15:13:00.394Z</time></trkpt><trkpt lat="32.7458767" lon="-8.59124"><ele>157.0</ele><time>2026-04-26T15:13:01.394Z</time></trkpt><trkpt lat="32.745955" lon="-8.5910933"><ele>156.66666666666669</ele><time>2026-04-26T15:13:02.394Z</time></trkpt><trkpt lat="32.7460367" lon="-8.59095"><ele>156.33333333333334</ele><time>2026-04-26T15:13:03.394Z</time></trkpt><trkpt lat="32.7461233" lon="-8.590795"><ele>156.0</ele><time>2026-04-26T15:13:04.394Z</time></trkpt><trkpt lat="32.746205" lon="-8.5906267"><ele>156.33333333333334</ele><time>2026-04-26T15:13:05.394Z</time></trkpt><trkpt lat="32.746285" lon="-8.5904483"><ele>156.66666666666669</ele><time>2026-04-26T15:13:06.394Z</time></trkpt><trkpt lat="32.746365" lon="-8.5902717"><ele>157.0</ele><time>2026-04-26T15:13:07.394Z</time></trkpt><trkpt lat="32.7464433" lon="-8.590105"><ele>157.0</ele><time>2026-04-26T15:13:08.394Z</time></trkpt><trkpt lat="32.746515" lon="-8.589945"><ele>157.0</ele><time>2026-04-26T15:13:09.394Z</time></trkpt><trkpt lat="32.7465867" lon="-8.5897833"><ele>157.0</ele><time>2026-04-26T15:13:10.394Z</time></trkpt><trkpt lat="32.7466583" lon="-8.5896233"><ele>157.0</ele><time>2026-04-26T15:13:11.394Z</time></trkpt><trkpt lat="32.746725" lon="-8.5894617"><ele>157.0</ele><time>2026-04-26T15:13:12.394Z</time></trkpt><trkpt lat="32.7468017" lon="-8.5893033"><ele>157.0</ele><time>2026-04-26T15:13:13.394Z</time></trkpt><trkpt lat="32.7468767" lon="-8.5891467"><ele>157.0</ele><time>2026-04-26T15:13:14.395Z</time></trkpt><trkpt lat="32.746945" lon="-8.588995"><ele>157.0</ele><time>2026-04-26T15:13:15.394Z</time></trkpt><trkpt lat="32.74702" lon="-8.5888533"><ele>157.0</ele><time>2026-04-26T15:13:16.394Z</time></trkpt><trkpt lat="32.747095" lon="-8.58871"><ele>157.0</ele><time>2026-04-26T15:13:17.394Z</time></trkpt><trkpt lat="32.74717" lon="-8.5885667"><ele>157.0</ele><time>2026-04-26T15:13:18.394Z</time></trkpt><trkpt lat="32.747245" lon="-8.5884167"><ele>157.0</ele><time>2026-04-26T15:13:19.395Z</time></trkpt><trkpt lat="32.7473217" lon="-8.5882683"><ele>157.0</ele><time>2026-04-26T15:13:20.394Z</time></trkpt><trkpt lat="32.7474" lon="-8.5881183"><ele>157.0</ele><time>2026-04-26T15:13:21.394Z</time></trkpt><trkpt lat="32.7474733" lon="-8.5879867"><ele>157.25</ele><time>2026-04-26T15:13:22.394Z</time></trkpt><trkpt lat="32.7475567" lon="-8.5878433"><ele>157.5</ele><time>2026-04-26T15:13:23.394Z</time></trkpt><trkpt lat="32.747635" lon="-8.5876983"><ele>157.75</ele><time>2026-04-26T15:13:24.394Z</time></trkpt><trkpt lat="32.7477183" lon="-8.5875583"><ele>158.0</ele><time>2026-04-26T15:13:25.394Z</time></trkpt><trkpt lat="32.7478017" lon="-8.58742"><ele>158.0</ele><time>2026-04-26T15:13:26.394Z</time></trkpt><trkpt lat="32.7478833" lon="-8.587275"><ele>158.0</ele><time>2026-04-26T15:13:27.394Z</time></trkpt><trkpt lat="32.7479683" lon="-8.58713"><ele>158.0</ele><time>2026-04-26T15:13:28.394Z</time></trkpt><trkpt lat="32.7480483" lon="-8.5869867"><ele>158.0</ele><time>2026-04-26T15:13:29.394Z</time></trkpt><trkpt lat="32.7481233" lon="-8.586855"><ele>157.75</ele><time>2026-04-26T15:13:30.394Z</time></trkpt><trkpt lat="32.7482" lon="-8.5867267"><ele>157.5</ele><time>2026-04-26T15:13:31.394Z</time></trkpt><trkpt lat="32.7482767" lon="-8.5866017"><ele>157.25</ele><time>2026-04-26T15:13:32.394Z</time></trkpt><trkpt lat="32.748345" lon="-8.5864767"><ele>157.0</ele><time>2026-04-26T15:13:33.394Z</time></trkpt><trkpt lat="32.7484133" lon="-8.5863483"><ele>157.0</ele><time>2026-04-26T15:13:34.394Z</time></trkpt><trkpt lat="32.7484867" lon="-8.5862267"><ele>157.0</ele><time>2026-04-26T15:13:35.394Z</time></trkpt><trkpt lat="32.74856" lon="-8.5861067"><ele>157.0</ele><time>2026-04-26T15:13:36.394Z</time></trkpt><trkpt lat="32.74863" lon="-8.585985"><ele>157.0</ele><time>2026-04-26T15:13:37.394Z</time></trkpt><trkpt lat="32.7487067" lon="-8.58586"><ele>157.25</ele><time>2026-04-26T15:13:38.394Z</time></trkpt><trkpt lat="32.748785" lon="-8.58573"><ele>157.5</ele><time>2026-04-26T15:13:39.394Z</time></trkpt><trkpt lat="32.7488583" lon="-8.585605"><ele>157.75</ele><time>2026-04-26T15:13:40.394Z</time></trkpt><trkpt lat="32.7489367" lon="-8.5854667"><ele>158.0</ele><time>2026-04-26T15:13:41.394Z</time></trkpt><trkpt lat="32.749005" lon="-8.585335"><ele>158.0</ele><time>2026-04-26T15:13:42.394Z</time></trkpt><trkpt lat="32.7490783" lon="-8.5852067"><ele>158.0</ele><time>2026-04-26T15:13:43.394Z</time></trkpt><trkpt lat="32.7491583" lon="-8.5850717"><ele>158.0</ele><time>2026-04-26T15:13:44.394Z</time></trkpt><trkpt lat="32.74923" lon="-8.584935"><ele>158.0</ele><time>2026-04-26T15:13:45.394Z</time></trkpt><trkpt lat="32.7493067" lon="-8.5848"><ele>158.0</ele><time>2026-04-26T15:13:46.394Z</time></trkpt><trkpt lat="32.749385" lon="-8.5846633"><ele>158.0</ele><time>2026-04-26T15:13:47.394Z</time></trkpt><trkpt lat="32.749465" lon="-8.5845233"><ele>158.0</ele><time>2026-04-26T15:13:48.394Z</time></trkpt><trkpt lat="32.7495483" lon="-8.5843883"><ele>158.0</ele><time>2026-04-26T15:13:49.394Z</time></trkpt><trkpt lat="32.749625" lon="-8.5842617"><ele>157.75</ele><time>2026-04-26T15:13:50.394Z</time></trkpt><trkpt lat="32.7497" lon="-8.584135"><ele>157.5</ele><time>2026-04-26T15:13:51.394Z</time></trkpt><trkpt lat="32.7497767" lon="-8.5840083"><ele>157.25</ele><time>2026-04-26T15:13:52.394Z</time></trkpt><trkpt lat="32.7498567" lon="-8.5838767"><ele>157.0</ele><time>2026-04-26T15:13:53.394Z</time></trkpt><trkpt lat="32.7499333" lon="-8.583745"><ele>157.0</ele><time>2026-04-26T15:13:54.395Z</time></trkpt><trkpt lat="32.7500083" lon="-8.5836117"><ele>157.0</ele><time>2026-04-26T15:13:55.394Z</time></trkpt><trkpt lat="32.7500833" lon="-8.5834783"><ele>157.0</ele><time>2026-04-26T15:13:56.394Z</time></trkpt><trkpt lat="32.7501567" lon="-8.5833467"><ele>157.0</ele><time>2026-04-26T15:13:57.394Z</time></trkpt><trkpt lat="32.7502367" lon="-8.5832133"><ele>157.0</ele><time>2026-04-26T15:13:58.394Z</time></trkpt><trkpt lat="32.7503217" lon="-8.58308"><ele>157.0</ele><time>2026-04-26T15:13:59.394Z</time></trkpt><trkpt lat="32.7504" lon="-8.5829383"><ele>157.0</ele><time>2026-04-26T15:14:00.394Z</time></trkpt><trkpt lat="32.7504733" lon="-8.582805"><ele>157.0</ele><time>2026-04-26T15:14:01.395Z</time></trkpt><trkpt lat="32.7505517" lon="-8.5826733"><ele>156.75</ele><time>2026-04-26T15:14:02.394Z</time></trkpt><trkpt lat="32.7506283" lon="-8.5825383"><ele>156.5</ele><time>2026-04-26T15:14:03.394Z</time></trkpt><trkpt lat="32.7507067" lon="-8.5823983"><ele>156.25</ele><time>2026-04-26T15:14:04.394Z</time></trkpt><trkpt lat="32.7507883" lon="-8.5822683"><ele>156.0</ele><time>2026-04-26T15:14:05.394Z</time></trkpt><trkpt lat="32.7508667" lon="-8.58212"><ele>156.0</ele><time>2026-04-26T15:14:06.394Z</time></trkpt><trkpt lat="32.7509483" lon="-8.5819767"><ele>156.0</ele><time>2026-04-26T15:14:07.394Z</time></trkpt><trkpt lat="32.7510317" lon="-8.5818317"><ele>156.0</ele><time>2026-04-26T15:14:08.394Z</time></trkpt><trkpt lat="32.751115" lon="-8.5816867"><ele>156.0</ele><time>2026-04-26T15:14:09.394Z</time></trkpt><trkpt lat="32.751205" lon="-8.58153"><ele>156.0</ele><time>2026-04-26T15:14:10.394Z</time></trkpt><trkpt lat="32.7512967" lon="-8.5813717"><ele>156.0</ele><time>2026-04-26T15:14:11.394Z</time></trkpt><trkpt lat="32.75139" lon="-8.5812117"><ele>156.0</ele><time>2026-04-26T15:14:12.394Z</time></trkpt><trkpt lat="32.7514833" lon="-8.5810467"><ele>156.0</ele><time>2026-04-26T15:14:13.394Z</time></trkpt><trkpt lat="32.75157" lon="-8.580895"><ele>156.0</ele><time>2026-04-26T15:14:14.394Z</time></trkpt><trkpt lat="32.7516567" lon="-8.58075"><ele>156.0</ele><time>2026-04-26T15:14:15.394Z</time></trkpt><trkpt lat="32.7517417" lon="-8.5806083"><ele>156.0</ele><time>2026-04-26T15:14:16.394Z</time></trkpt><trkpt lat="32.7518233" lon="-8.5804617"><ele>156.0</ele><time>2026-04-26T15:14:17.394Z</time></trkpt><trkpt lat="32.7519133" lon="-8.5803083"><ele>156.0</ele><time>2026-04-26T15:14:18.394Z</time></trkpt><trkpt lat="32.7520033" lon="-8.580155"><ele>156.33333333333334</ele><time>2026-04-26T15:14:19.394Z</time></trkpt><trkpt lat="32.7520917" lon="-8.5799933"><ele>156.66666666666669</ele><time>2026-04-26T15:14:20.394Z</time></trkpt><trkpt lat="32.752185" lon="-8.57983"><ele>157.0</ele><time>2026-04-26T15:14:21.394Z</time></trkpt><trkpt lat="32.7522817" lon="-8.5796617"><ele>157.0</ele><time>2026-04-26T15:14:22.394Z</time></trkpt><trkpt lat="32.7523767" lon="-8.5794833"><ele>157.0</ele><time>2026-04-26T15:14:23.394Z</time></trkpt><trkpt lat="32.75247" lon="-8.5793183"><ele>157.0</ele><time>2026-04-26T15:14:24.394Z</time></trkpt><trkpt lat="32.7525617" lon="-8.579155"><ele>157.0</ele><time>2026-04-26T15:14:25.394Z</time></trkpt><trkpt lat="32.7526517" lon="-8.5789933"><ele>157.0</ele><time>2026-04-26T15:14:26.394Z</time></trkpt><trkpt lat="32.7527433" lon="-8.578845"><ele>157.0</ele><time>2026-04-26T15:14:27.394Z</time></trkpt><trkpt lat="32.7528367" lon="-8.5786917"><ele>156.66666666666669</ele><time>2026-04-26T15:14:28.394Z</time></trkpt><trkpt lat="32.7529317" lon="-8.57854"><ele>156.33333333333334</ele><time>2026-04-26T15:14:29.395Z</time></trkpt><trkpt lat="32.7530183" lon="-8.57838"><ele>156.0</ele><time>2026-04-26T15:14:30.394Z</time></trkpt><trkpt lat="32.7531117" lon="-8.578225"><ele>156.0</ele><time>2026-04-26T15:14:31.394Z</time></trkpt><trkpt lat="32.7532033" lon="-8.578065"><ele>156.0</ele><time>2026-04-26T15:14:32.394Z</time></trkpt><trkpt lat="32.753295" lon="-8.5779"><ele>156.0</ele><time>2026-04-26T15:14:33.394Z</time></trkpt><trkpt lat="32.7533883" lon="-8.577735"><ele>156.0</ele><time>2026-04-26T15:14:34.394Z</time></trkpt><trkpt lat="32.7534867" lon="-8.5775767"><ele>156.0</ele><time>2026-04-26T15:14:35.395Z</time></trkpt><trkpt lat="32.753585" lon="-8.57741"><ele>156.0</ele><time>2026-04-26T15:14:36.394Z</time></trkpt><trkpt lat="32.753685" lon="-8.577235"><ele>156.0</ele><time>2026-04-26T15:14:37.394Z</time></trkpt><trkpt lat="32.7537883" lon="-8.5770567"><ele>156.0</ele><time>2026-04-26T15:14:38.394Z</time></trkpt><trkpt lat="32.7538883" lon="-8.5768667"><ele>156.0</ele><time>2026-04-26T15:14:39.394Z</time></trkpt><trkpt lat="32.753985" lon="-8.5766717"><ele>156.0</ele><time>2026-04-26T15:14:40.394Z</time></trkpt><trkpt lat="32.7540767" lon="-8.5764733"><ele>156.0</ele><time>2026-04-26T15:14:41.394Z</time></trkpt><trkpt lat="32.7541633" lon="-8.57627"><ele>156.0</ele><time>2026-04-26T15:14:42.395Z</time></trkpt><trkpt lat="32.754255" lon="-8.5760767"><ele>156.0</ele><time>2026-04-26T15:14:43.394Z</time></trkpt><trkpt lat="32.754345" lon="-8.5758883"><ele>156.0</ele><time>2026-04-26T15:14:44.394Z</time></trkpt><trkpt lat="32.7544267" lon="-8.5757033"><ele>156.0</ele><time>2026-04-26T15:14:45.394Z</time></trkpt><trkpt lat="32.7545117" lon="-8.57552"><ele>156.0</ele><time>2026-04-26T15:14:46.394Z</time></trkpt><trkpt lat="32.7545883" lon="-8.5753383"><ele>156.0</ele><time>2026-04-26T15:14:47.394Z</time></trkpt><trkpt lat="32.7546733" lon="-8.5751517"><ele>156.0</ele><time>2026-04-26T15:14:48.395Z</time></trkpt><trkpt lat="32.75476" lon="-8.5749633"><ele>156.0</ele><time>2026-04-26T15:14:49.395Z</time></trkpt><trkpt lat="32.7548517" lon="-8.574775"><ele>156.0</ele><time>2026-04-26T15:14:50.394Z</time></trkpt><trkpt lat="32.754945" lon="-8.5745817"><ele>156.0</ele><time>2026-04-26T15:14:51.394Z</time></trkpt><trkpt lat="32.7550417" lon="-8.57439"><ele>156.33333333333334</ele><time>2026-04-26T15:14:52.394Z</time></trkpt><trkpt lat="32.7551433" lon="-8.5741933"><ele>156.66666666666669</ele><time>2026-04-26T15:14:53.394Z</time></trkpt><trkpt lat="32.7552533" lon="-8.5739983"><ele>157.0</ele><time>2026-04-26T15:14:54.394Z</time></trkpt><trkpt lat="32.7553667" lon="-8.573795"><ele>157.66666666666669</ele><time>2026-04-26T15:14:55.394Z</time></trkpt><trkpt lat="32.755485" lon="-8.5735967"><ele>158.33333333333334</ele><time>2026-04-26T15:14:56.394Z</time></trkpt><trkpt lat="32.755605" lon="-8.5734"><ele>159.0</ele><time>2026-04-26T15:14:57.394Z</time></trkpt><trkpt lat="32.7557333" lon="-8.5732067"><ele>159.0</ele><time>2026-04-26T15:14:58.394Z</time></trkpt><trkpt lat="32.755865" lon="-8.57301"><ele>159.0</ele><time>2026-04-26T15:14:59.394Z</time></trkpt><trkpt lat="32.7559967" lon="-8.5728117"><ele>159.0</ele><time>2026-04-26T15:15:00.394Z</time></trkpt><trkpt lat="32.7561333" lon="-8.5726067"><ele>158.0</ele><time>2026-04-26T15:15:01.394Z</time></trkpt><trkpt lat="32.7562667" lon="-8.57241"><ele>157.0</ele><time>2026-04-26T15:15:02.394Z</time></trkpt><trkpt lat="32.756405" lon="-8.5722083"><ele>156.0</ele><time>2026-04-26T15:15:03.394Z</time></trkpt><trkpt lat="32.7565417" lon="-8.572005"><ele>156.0</ele><time>2026-04-26T15:15:04.394Z</time></trkpt><trkpt lat="32.75668" lon="-8.5718067"><ele>156.0</ele><time>2026-04-26T15:15:05.394Z</time></trkpt><trkpt lat="32.7568183" lon="-8.5716083"><ele>156.0</ele><time>2026-04-26T15:15:06.394Z</time></trkpt><trkpt lat="32.756955" lon="-8.5714033"><ele>156.33333333333334</ele><time>2026-04-26T15:15:07.394Z</time></trkpt><trkpt lat="32.757095" lon="-8.5712017"><ele>156.66666666666669</ele><time>2026-04-26T15:15:08.394Z</time></trkpt><trkpt lat="32.75723" lon="-8.57101"><ele>157.0</ele><time>2026-04-26T15:15:09.394Z</time></trkpt><trkpt lat="32.7573567" lon="-8.5708233"><ele>157.0</ele><time>2026-04-26T15:15:10.394Z</time></trkpt><trkpt lat="32.7574817" lon="-8.5706417"><ele>157.0</ele><time>2026-04-26T15:15:11.394Z</time></trkpt><trkpt lat="32.7576033" lon="-8.5704583"><ele>157.0</ele><time>2026-04-26T15:15:12.394Z</time></trkpt><trkpt lat="32.757725" lon="-8.5702783"><ele>156.66666666666669</ele><time>2026-04-26T15:15:13.394Z</time></trkpt><trkpt lat="32.7578433" lon="-8.5700967"><ele>156.33333333333334</ele><time>2026-04-26T15:15:14.394Z</time></trkpt><trkpt lat="32.7579633" lon="-8.5699117"><ele>156.0</ele><time>2026-04-26T15:15:15.394Z</time></trkpt><trkpt lat="32.758085" lon="-8.5697317"><ele>156.0</ele><time>2026-04-26T15:15:16.394Z</time></trkpt><trkpt lat="32.7582083" lon="-8.5695533"><ele>156.0</ele><time>2026-04-26T15:15:17.394Z</time></trkpt><trkpt lat="32.7583317" lon="-8.5693783"><ele>156.0</ele><time>2026-04-26T15:15:18.394Z</time></trkpt><trkpt lat="32.75846" lon="-8.5691983"><ele>156.33333333333334</ele><time>2026-04-26T15:15:19.394Z</time></trkpt><trkpt lat="32.7585883" lon="-8.569015"><ele>156.66666666666669</ele><time>2026-04-26T15:15:20.394Z</time></trkpt><trkpt lat="32.7587167" lon="-8.5688283"><ele>157.0</ele><time>2026-04-26T15:15:21.394Z</time></trkpt><trkpt lat="32.7588433" lon="-8.5686383"><ele>157.0</ele><time>2026-04-26T15:15:22.394Z</time></trkpt><trkpt lat="32.7589733" lon="-8.5684417"><ele>157.0</ele><time>2026-04-26T15:15:23.393Z</time></trkpt><trkpt lat="32.759105" lon="-8.5682433"><ele>157.0</ele><time>2026-04-26T15:15:24.393Z</time></trkpt><trkpt lat="32.759235" lon="-8.56804"><ele>156.66666666666669</ele><time>2026-04-26T15:15:25.393Z</time></trkpt><trkpt lat="32.75936" lon="-8.5678433"><ele>156.33333333333334</ele><time>2026-04-26T15:15:26.393Z</time></trkpt><trkpt lat="32.7594833" lon="-8.5676483"><ele>156.0</ele><time>2026-04-26T15:15:27.393Z</time></trkpt><trkpt lat="32.7596017" lon="-8.5674617"><ele>156.0</ele><time>2026-04-26T15:15:28.394Z</time></trkpt><trkpt lat="32.7597167" lon="-8.5672767"><ele>156.0</ele><time>2026-04-26T15:15:29.393Z</time></trkpt><trkpt lat="32.75983" lon="-8.56709"><ele>156.0</ele><time>2026-04-26T15:15:30.393Z</time></trkpt><trkpt lat="32.75994" lon="-8.5669017"><ele>156.0</ele><time>2026-04-26T15:15:31.393Z</time></trkpt><trkpt lat="32.76005" lon="-8.5667183"><ele>156.0</ele><time>2026-04-26T15:15:32.393Z</time></trkpt><trkpt lat="32.7601567" lon="-8.56653"><ele>156.0</ele><time>2026-04-26T15:15:33.394Z</time></trkpt><trkpt lat="32.760265" lon="-8.5663433"><ele>155.66666666666666</ele><time>2026-04-26T15:15:34.394Z</time></trkpt><trkpt lat="32.76037" lon="-8.566165"><ele>155.33333333333331</ele><time>2026-04-26T15:15:35.393Z</time></trkpt><trkpt lat="32.760475" lon="-8.5659783"><ele>155.0</ele><time>2026-04-26T15:15:36.393Z</time></trkpt><trkpt lat="32.7605867" lon="-8.5657983"><ele>155.0</ele><time>2026-04-26T15:15:37.394Z</time></trkpt><trkpt lat="32.7606917" lon="-8.56562"><ele>155.0</ele><time>2026-04-26T15:15:38.393Z</time></trkpt><trkpt lat="32.7607967" lon="-8.5654433"><ele>155.0</ele><time>2026-04-26T15:15:39.393Z</time></trkpt><trkpt lat="32.7608983" lon="-8.5652667"><ele>155.0</ele><time>2026-04-26T15:15:40.393Z</time></trkpt><trkpt lat="32.7610017" lon="-8.5650883"><ele>155.0</ele><time>2026-04-26T15:15:41.393Z</time></trkpt><trkpt lat="32.7611067" lon="-8.5649133"><ele>155.0</ele><time>2026-04-26T15:15:42.393Z</time></trkpt><trkpt lat="32.761215" lon="-8.56474"><ele>155.0</ele><time>2026-04-26T15:15:43.393Z</time></trkpt><trkpt lat="32.761325" lon="-8.5645617"><ele>155.0</ele><time>2026-04-26T15:15:44.393Z</time></trkpt><trkpt lat="32.761445" lon="-8.5643967"><ele>155.0</ele><time>2026-04-26T15:15:45.394Z</time></trkpt><trkpt lat="32.7615633" lon="-8.5642233"><ele>155.0</ele><time>2026-04-26T15:15:46.393Z</time></trkpt><trkpt lat="32.76168" lon="-8.5640433"><ele>155.0</ele><time>2026-04-26T15:15:47.393Z</time></trkpt><trkpt lat="32.7618033" lon="-8.5638667"><ele>155.0</ele><time>2026-04-26T15:15:48.393Z</time></trkpt><trkpt lat="32.76192" lon="-8.5636933"><ele>155.66666666666666</ele><time>2026-04-26T15:15:49.393Z</time></trkpt><trkpt lat="32.7620333" lon="-8.563525"><ele>156.33333333333334</ele><time>2026-04-26T15:15:50.393Z</time></trkpt><trkpt lat="32.762145" lon="-8.56336"><ele>157.0</ele><time>2026-04-26T15:15:51.393Z</time></trkpt><trkpt lat="32.762255" lon="-8.5632"><ele>157.0</ele><time>2026-04-26T15:15:52.393Z</time></trkpt><trkpt lat="32.7623617" lon="-8.5630383"><ele>157.0</ele><time>2026-04-26T15:15:53.393Z</time></trkpt><trkpt lat="32.76247" lon="-8.5628817"><ele>157.0</ele><time>2026-04-26T15:15:54.393Z</time></trkpt><trkpt lat="32.76257" lon="-8.562715"><ele>157.0</ele><time>2026-04-26T15:15:55.393Z</time></trkpt><trkpt lat="32.76267" lon="-8.562555"><ele>157.0</ele><time>2026-04-26T15:15:56.394Z</time></trkpt><trkpt lat="32.7627683" lon="-8.5623967"><ele>157.0</ele><time>2026-04-26T15:15:57.393Z</time></trkpt><trkpt lat="32.7628633" lon="-8.5622383"><ele>157.0</ele><time>2026-04-26T15:15:58.393Z</time></trkpt><trkpt lat="32.76296" lon="-8.56208"><ele>157.0</ele><time>2026-04-26T15:15:59.393Z</time></trkpt><trkpt lat="32.7630583" lon="-8.5619217"><ele>157.0</ele><time>2026-04-26T15:16:00.393Z</time></trkpt><trkpt lat="32.7631567" lon="-8.5617683"><ele>156.66666666666669</ele><time>2026-04-26T15:16:01.393Z</time></trkpt><trkpt lat="32.763255" lon="-8.5616133"><ele>156.33333333333334</ele><time>2026-04-26T15:16:02.393Z</time></trkpt><trkpt lat="32.7633483" lon="-8.5614617"><ele>156.0</ele><time>2026-04-26T15:16:03.393Z</time></trkpt><trkpt lat="32.7634283" lon="-8.5613183"><ele>156.25</ele><time>2026-04-26T15:16:04.393Z</time></trkpt><trkpt lat="32.7635117" lon="-8.5611833"><ele>156.5</ele><time>2026-04-26T15:16:05.393Z</time></trkpt><trkpt lat="32.763595" lon="-8.56105"><ele>156.75</ele><time>2026-04-26T15:16:06.394Z</time></trkpt><trkpt lat="32.7636783" lon="-8.5609167"><ele>157.0</ele><time>2026-04-26T15:16:07.393Z</time></trkpt><trkpt lat="32.7637633" lon="-8.5607867"><ele>157.0</ele><time>2026-04-26T15:16:08.394Z</time></trkpt><trkpt lat="32.7638467" lon="-8.560655"><ele>157.0</ele><time>2026-04-26T15:16:09.393Z</time></trkpt><trkpt lat="32.763935" lon="-8.5605183"><ele>157.0</ele><time>2026-04-26T15:16:10.393Z</time></trkpt><trkpt lat="32.764025" lon="-8.5603833"><ele>157.0</ele><time>2026-04-26T15:16:11.393Z</time></trkpt><trkpt lat="32.7641133" lon="-8.5602467"><ele>157.0</ele><time>2026-04-26T15:16:12.393Z</time></trkpt><trkpt lat="32.7642033" lon="-8.5601167"><ele>157.0</ele><time>2026-04-26T15:16:13.394Z</time></trkpt><trkpt lat="32.7642933" lon="-8.5599817"><ele>157.0</ele><time>2026-04-26T15:16:14.393Z</time></trkpt><trkpt lat="32.7643833" lon="-8.5598367"><ele>157.0</ele><time>2026-04-26T15:16:15.393Z</time></trkpt><trkpt lat="32.764475" lon="-8.5596933"><ele>157.0</ele><time>2026-04-26T15:16:16.393Z</time></trkpt><trkpt lat="32.76457" lon="-8.5595467"><ele>157.0</ele><time>2026-04-26T15:16:17.393Z</time></trkpt><trkpt lat="32.764665" lon="-8.5593967"><ele>157.0</ele><time>2026-04-26T15:16:18.393Z</time></trkpt><trkpt lat="32.76476" lon="-8.5592433"><ele>156.66666666666669</ele><time>2026-04-26T15:16:19.393Z</time></trkpt><trkpt lat="32.7648567" lon="-8.5590817"><ele>156.33333333333334</ele><time>2026-04-26T15:16:20.393Z</time></trkpt><trkpt lat="32.7649583" lon="-8.5589233"><ele>156.0</ele><time>2026-04-26T15:16:21.393Z</time></trkpt><trkpt lat="32.7650583" lon="-8.5587617"><ele>156.0</ele><time>2026-04-26T15:16:22.393Z</time></trkpt><trkpt lat="32.765165" lon="-8.5585917"><ele>156.0</ele><time>2026-04-26T15:16:23.393Z</time></trkpt><trkpt lat="32.7652683" lon="-8.5584267"><ele>156.0</ele><time>2026-04-26T15:16:24.393Z</time></trkpt><trkpt lat="32.76536" lon="-8.55827"><ele>156.66666666666666</ele><time>2026-04-26T15:16:25.393Z</time></trkpt><trkpt lat="32.76546" lon="-8.5581217"><ele>157.33333333333331</ele><time>2026-04-26T15:16:26.393Z</time></trkpt><trkpt lat="32.7655567" lon="-8.5579717"><ele>158.0</ele><time>2026-04-26T15:16:27.393Z</time></trkpt><trkpt lat="32.7656483" lon="-8.5578217"><ele>158.0</ele><time>2026-04-26T15:16:28.393Z</time></trkpt><trkpt lat="32.7657433" lon="-8.55767"><ele>158.0</ele><time>2026-04-26T15:16:29.394Z</time></trkpt><trkpt lat="32.7658333" lon="-8.557525"><ele>158.0</ele><time>2026-04-26T15:16:30.393Z</time></trkpt><trkpt lat="32.765925" lon="-8.5573783"><ele>158.0</ele><time>2026-04-26T15:16:31.393Z</time></trkpt><trkpt lat="32.7660167" lon="-8.557235"><ele>158.0</ele><time>2026-04-26T15:16:32.394Z</time></trkpt><trkpt lat="32.7661067" lon="-8.55709"><ele>158.0</ele><time>2026-04-26T15:16:33.393Z</time></trkpt><trkpt lat="32.7661967" lon="-8.5569517"><ele>157.5</ele><time>2026-04-26T15:16:34.393Z</time></trkpt><trkpt lat="32.7662917" lon="-8.556815"><ele>157.0</ele><time>2026-04-26T15:16:35.393Z</time></trkpt><trkpt lat="32.766385" lon="-8.556675"><ele>156.5</ele><time>2026-04-26T15:16:36.393Z</time></trkpt><trkpt lat="32.7664717" lon="-8.5565367"><ele>156.0</ele><time>2026-04-26T15:16:37.393Z</time></trkpt><trkpt lat="32.76656" lon="-8.5563983"><ele>156.0</ele><time>2026-04-26T15:16:38.393Z</time></trkpt><trkpt lat="32.7666533" lon="-8.5562617"><ele>156.0</ele><time>2026-04-26T15:16:39.393Z</time></trkpt><trkpt lat="32.7667533" lon="-8.556125"><ele>156.0</ele><time>2026-04-26T15:16:40.393Z</time></trkpt><trkpt lat="32.7668467" lon="-8.5559867"><ele>156.0</ele><time>2026-04-26T15:16:41.393Z</time></trkpt><trkpt lat="32.7669433" lon="-8.5558567"><ele>156.0</ele><time>2026-04-26T15:16:42.393Z</time></trkpt><trkpt lat="32.7670483" lon="-8.55573"><ele>156.0</ele><time>2026-04-26T15:16:43.393Z</time></trkpt><trkpt lat="32.7671567" lon="-8.5556033"><ele>156.0</ele><time>2026-04-26T15:16:44.393Z</time></trkpt><trkpt lat="32.7672717" lon="-8.555475"><ele>156.0</ele><time>2026-04-26T15:16:45.393Z</time></trkpt><trkpt lat="32.7673867" lon="-8.5553433"><ele>156.0</ele><time>2026-04-26T15:16:46.394Z</time></trkpt><trkpt lat="32.76751" lon="-8.5552133"><ele>156.0</ele><time>2026-04-26T15:16:47.393Z</time></trkpt><trkpt lat="32.76764" lon="-8.555085"><ele>156.66666666666666</ele><time>2026-04-26T15:16:48.393Z</time></trkpt><trkpt lat="32.7677667" lon="-8.5549533"><ele>157.33333333333331</ele><time>2026-04-26T15:16:49.393Z</time></trkpt><trkpt lat="32.7679033" lon="-8.5548317"><ele>158.0</ele><time>2026-04-26T15:16:50.393Z</time></trkpt><trkpt lat="32.7680417" lon="-8.5547083"><ele>158.0</ele><time>2026-04-26T15:16:51.393Z</time></trkpt><trkpt lat="32.76818" lon="-8.5545833"><ele>158.0</ele><time>2026-04-26T15:16:52.393Z</time></trkpt><trkpt lat="32.76832" lon="-8.5544633"><ele>158.0</ele><time>2026-04-26T15:16:53.393Z</time></trkpt><trkpt lat="32.768455" lon="-8.5543467"><ele>157.33333333333331</ele><time>2026-04-26T15:16:54.393Z</time></trkpt><trkpt lat="32.76859" lon="-8.5542483"><ele>156.66666666666666</ele><time>2026-04-26T15:16:55.393Z</time></trkpt><trkpt lat="32.7687233" lon="-8.5541517"><ele>156.0</ele><time>2026-04-26T15:16:56.393Z</time></trkpt><trkpt lat="32.76886" lon="-8.5540483"><ele>156.0</ele><time>2026-04-26T15:16:57.393Z</time></trkpt><trkpt lat="32.769" lon="-8.5539417"><ele>156.0</ele><time>2026-04-26T15:16:58.393Z</time></trkpt><trkpt lat="32.7691417" lon="-8.5538367"><ele>156.0</ele><time>2026-04-26T15:16:59.393Z</time></trkpt><trkpt lat="32.7692817" lon="-8.5537367"><ele>155.33333333333334</ele><time>2026-04-26T15:17:00.393Z</time></trkpt><trkpt lat="32.76942" lon="-8.5536417"><ele>154.66666666666669</ele><time>2026-04-26T15:17:01.393Z</time></trkpt><trkpt lat="32.76955" lon="-8.55355"><ele>154.0</ele><time>2026-04-26T15:17:02.393Z</time></trkpt><trkpt lat="32.76968" lon="-8.5534583"><ele>154.0</ele><time>2026-04-26T15:17:03.394Z</time></trkpt><trkpt lat="32.7698083" lon="-8.5533683"><ele>154.0</ele><time>2026-04-26T15:17:04.393Z</time></trkpt><trkpt lat="32.76994" lon="-8.55328"><ele>154.0</ele><time>2026-04-26T15:17:05.393Z</time></trkpt><trkpt lat="32.7700667" lon="-8.5531883"><ele>154.0</ele><time>2026-04-26T15:17:06.393Z</time></trkpt><trkpt lat="32.7701967" lon="-8.5530983"><ele>153.75</ele><time>2026-04-26T15:17:07.393Z</time></trkpt><trkpt lat="32.7703217" lon="-8.55301"><ele>153.5</ele><time>2026-04-26T15:17:08.393Z</time></trkpt><trkpt lat="32.7704483" lon="-8.55292"><ele>153.25</ele><time>2026-04-26T15:17:09.393Z</time></trkpt><trkpt lat="32.7705783" lon="-8.5528233"><ele>153.0</ele><time>2026-04-26T15:17:10.393Z</time></trkpt><trkpt lat="32.7707133" lon="-8.5527317"><ele>153.0</ele><time>2026-04-26T15:17:11.393Z</time></trkpt><trkpt lat="32.77085" lon="-8.5526417"><ele>153.0</ele><time>2026-04-26T15:17:12.393Z</time></trkpt><trkpt lat="32.77099" lon="-8.552545"><ele>153.0</ele><time>2026-04-26T15:17:13.393Z</time></trkpt><trkpt lat="32.7711317" lon="-8.5524417"><ele>153.66666666666666</ele><time>2026-04-26T15:17:14.394Z</time></trkpt><trkpt lat="32.771275" lon="-8.5523417"><ele>154.33333333333331</ele><time>2026-04-26T15:17:15.393Z</time></trkpt><trkpt lat="32.7714267" lon="-8.552235"><ele>155.0</ele><time>2026-04-26T15:17:16.393Z</time></trkpt><trkpt lat="32.7715767" lon="-8.552125"><ele>155.0</ele><time>2026-04-26T15:17:17.393Z</time></trkpt><trkpt lat="32.7717267" lon="-8.5520133"><ele>155.0</ele><time>2026-04-26T15:17:18.393Z</time></trkpt><trkpt lat="32.77189" lon="-8.5518983"><ele>155.0</ele><time>2026-04-26T15:17:19.393Z</time></trkpt><trkpt lat="32.7720517" lon="-8.55179"><ele>155.0</ele><time>2026-04-26T15:17:20.393Z</time></trkpt><trkpt lat="32.7722217" lon="-8.551685"><ele>155.0</ele><time>2026-04-26T15:17:21.393Z</time></trkpt><trkpt lat="32.7723983" lon="-8.55157"><ele>155.0</ele><time>2026-04-26T15:17:22.393Z</time></trkpt><trkpt lat="32.77258" lon="-8.5514633"><ele>154.66666666666666</ele><time>2026-04-26T15:17:23.393Z</time></trkpt><trkpt lat="32.7727633" lon="-8.551355"><ele>154.33333333333334</ele><time>2026-04-26T15:17:24.393Z</time></trkpt><trkpt lat="32.772955" lon="-8.5512517"><ele>154.0</ele><time>2026-04-26T15:17:25.393Z</time></trkpt><trkpt lat="32.7731517" lon="-8.551145"><ele>154.0</ele><time>2026-04-26T15:17:26.393Z</time></trkpt><trkpt lat="32.77335" lon="-8.55104"><ele>154.0</ele><time>2026-04-26T15:17:27.393Z</time></trkpt><trkpt lat="32.7735533" lon="-8.5509267"><ele>154.0</ele><time>2026-04-26T15:17:28.393Z</time></trkpt><trkpt lat="32.7737583" lon="-8.5508117"><ele>154.0</ele><time>2026-04-26T15:17:29.393Z</time></trkpt><trkpt lat="32.7739683" lon="-8.550695"><ele>154.0</ele><time>2026-04-26T15:17:30.393Z</time></trkpt><trkpt lat="32.7741767" lon="-8.5505767"><ele>154.0</ele><time>2026-04-26T15:17:31.393Z</time></trkpt><trkpt lat="32.77439" lon="-8.550455"><ele>154.0</ele><time>2026-04-26T15:17:32.393Z</time></trkpt><trkpt lat="32.774605" lon="-8.5503333"><ele>154.0</ele><time>2026-04-26T15:17:33.393Z</time></trkpt><trkpt lat="32.77482" lon="-8.5502167"><ele>154.0</ele><time>2026-04-26T15:17:34.393Z</time></trkpt><trkpt lat="32.7750267" lon="-8.5501067"><ele>153.66666666666669</ele><time>2026-04-26T15:17:35.393Z</time></trkpt><trkpt lat="32.7752267" lon="-8.5499967"><ele>153.33333333333334</ele><time>2026-04-26T15:17:36.393Z</time></trkpt><trkpt lat="32.77542" lon="-8.5498883"><ele>153.0</ele><time>2026-04-26T15:17:37.393Z</time></trkpt><trkpt lat="32.77561" lon="-8.5497867"><ele>153.0</ele><time>2026-04-26T15:17:38.393Z</time></trkpt><trkpt lat="32.7758017" lon="-8.5496817"><ele>153.0</ele><time>2026-04-26T15:17:39.393Z</time></trkpt><trkpt lat="32.7759917" lon="-8.5495767"><ele>153.0</ele><time>2026-04-26T15:17:40.393Z</time></trkpt><trkpt lat="32.77618" lon="-8.5494733"><ele>153.66666666666666</ele><time>2026-04-26T15:17:41.393Z</time></trkpt><trkpt lat="32.7763733" lon="-8.5493683"><ele>154.33333333333331</ele><time>2026-04-26T15:17:42.393Z</time></trkpt><trkpt lat="32.7765683" lon="-8.549265"><ele>155.0</ele><time>2026-04-26T15:17:43.394Z</time></trkpt><trkpt lat="32.7767583" lon="-8.5491617"><ele>155.66666666666666</ele><time>2026-04-26T15:17:44.393Z</time></trkpt><trkpt lat="32.7769417" lon="-8.5490617"><ele>156.33333333333334</ele><time>2026-04-26T15:17:45.393Z</time></trkpt><trkpt lat="32.7771233" lon="-8.5489617"><ele>157.0</ele><time>2026-04-26T15:17:46.393Z</time></trkpt><trkpt lat="32.7773017" lon="-8.5488633"><ele>157.0</ele><time>2026-04-26T15:17:47.393Z</time></trkpt><trkpt lat="32.7774783" lon="-8.5487683"><ele>157.0</ele><time>2026-04-26T15:17:48.393Z</time></trkpt><trkpt lat="32.7776567" lon="-8.5486667"><ele>157.0</ele><time>2026-04-26T15:17:49.393Z</time></trkpt><trkpt lat="32.7778333" lon="-8.5485717"><ele>156.33333333333334</ele><time>2026-04-26T15:17:50.393Z</time></trkpt><trkpt lat="32.7780133" lon="-8.548475"><ele>155.66666666666666</ele><time>2026-04-26T15:17:51.393Z</time></trkpt><trkpt lat="32.7781917" lon="-8.5483817"><ele>155.0</ele><time>2026-04-26T15:17:52.393Z</time></trkpt><trkpt lat="32.7783733" lon="-8.54828"><ele>155.0</ele><time>2026-04-26T15:17:53.393Z</time></trkpt><trkpt lat="32.7785533" lon="-8.54818"><ele>155.0</ele><time>2026-04-26T15:17:54.393Z</time></trkpt><trkpt lat="32.7787333" lon="-8.5480833"><ele>155.0</ele><time>2026-04-26T15:17:55.393Z</time></trkpt><trkpt lat="32.7789117" lon="-8.54799"><ele>155.0</ele><time>2026-04-26T15:17:56.393Z</time></trkpt><trkpt lat="32.77909" lon="-8.5478967"><ele>155.0</ele><time>2026-04-26T15:17:57.393Z</time></trkpt><trkpt lat="32.7792683" lon="-8.5477983"><ele>155.0</ele><time>2026-04-26T15:17:58.393Z</time></trkpt><trkpt lat="32.7794467" lon="-8.5477017"><ele>153.66666666666666</ele><time>2026-04-26T15:17:59.394Z</time></trkpt><trkpt lat="32.7796267" lon="-8.5476017"><ele>152.33333333333334</ele><time>2026-04-26T15:18:00.393Z</time></trkpt><trkpt lat="32.7798067" lon="-8.5475"><ele>151.0</ele><time>2026-04-26T15:18:01.393Z</time></trkpt><trkpt lat="32.7799867" lon="-8.5474"><ele>151.0</ele><time>2026-04-26T15:18:02.393Z</time></trkpt><trkpt lat="32.7801667" lon="-8.5473017"><ele>151.0</ele><time>2026-04-26T15:18:03.393Z</time></trkpt><trkpt lat="32.780345" lon="-8.547205"><ele>151.0</ele><time>2026-04-26T15:18:04.394Z</time></trkpt><trkpt lat="32.78052" lon="-8.5471117"><ele>151.0</ele><time>2026-04-26T15:18:05.393Z</time></trkpt><trkpt lat="32.7806933" lon="-8.54702"><ele>151.0</ele><time>2026-04-26T15:18:06.393Z</time></trkpt><trkpt lat="32.78087" lon="-8.5469283"><ele>151.0</ele><time>2026-04-26T15:18:07.393Z</time></trkpt><trkpt lat="32.78105" lon="-8.5468367"><ele>151.33333333333334</ele><time>2026-04-26T15:18:08.393Z</time></trkpt><trkpt lat="32.781235" lon="-8.5467417"><ele>151.66666666666666</ele><time>2026-04-26T15:18:09.393Z</time></trkpt><trkpt lat="32.7814217" lon="-8.5466567"><ele>152.0</ele><time>2026-04-26T15:18:10.393Z</time></trkpt><trkpt lat="32.7816083" lon="-8.5465683"><ele>152.0</ele><time>2026-04-26T15:18:11.393Z</time></trkpt><trkpt lat="32.7817917" lon="-8.546485"><ele>152.0</ele><time>2026-04-26T15:18:12.393Z</time></trkpt><trkpt lat="32.7819733" lon="-8.546405"><ele>152.0</ele><time>2026-04-26T15:18:13.393Z</time></trkpt><trkpt lat="32.7821533" lon="-8.5463267"><ele>152.0</ele><time>2026-04-26T15:18:14.393Z</time></trkpt><trkpt lat="32.7823383" lon="-8.54625"><ele>152.0</ele><time>2026-04-26T15:18:15.393Z</time></trkpt><trkpt lat="32.7825267" lon="-8.5461817"><ele>152.0</ele><time>2026-04-26T15:18:16.393Z</time></trkpt><trkpt lat="32.7827183" lon="-8.5461083"><ele>152.0</ele><time>2026-04-26T15:18:17.393Z</time></trkpt><trkpt lat="32.7829133" lon="-8.546035"><ele>152.0</ele><time>2026-04-26T15:18:18.393Z</time></trkpt><trkpt lat="32.7831083" lon="-8.5459567"><ele>152.0</ele><time>2026-04-26T15:18:19.393Z</time></trkpt><trkpt lat="32.7833033" lon="-8.5458817"><ele>152.0</ele><time>2026-04-26T15:18:20.393Z</time></trkpt><trkpt lat="32.7834933" lon="-8.545805"><ele>152.0</ele><time>2026-04-26T15:18:21.393Z</time></trkpt><trkpt lat="32.7836817" lon="-8.5457283"><ele>152.0</ele><time>2026-04-26T15:18:22.393Z</time></trkpt><trkpt lat="32.78387" lon="-8.54565"><ele>152.0</ele><time>2026-04-26T15:18:23.393Z</time></trkpt><trkpt lat="32.7840617" lon="-8.5455683"><ele>152.0</ele><time>2026-04-26T15:18:24.393Z</time></trkpt><trkpt lat="32.7842533" lon="-8.5454783"><ele>152.0</ele><time>2026-04-26T15:18:25.393Z</time></trkpt><trkpt lat="32.784445" lon="-8.5453783"><ele>152.0</ele><time>2026-04-26T15:18:26.393Z</time></trkpt><trkpt lat="32.7846367" lon="-8.545265"><ele>152.0</ele><time>2026-04-26T15:18:27.393Z</time></trkpt><trkpt lat="32.784825" lon="-8.545145"><ele>152.0</ele><time>2026-04-26T15:18:28.393Z</time></trkpt><trkpt lat="32.7850083" lon="-8.54503"><ele>152.33333333333331</ele><time>2026-04-26T15:18:29.393Z</time></trkpt><trkpt lat="32.7851833" lon="-8.5449233"><ele>152.66666666666666</ele><time>2026-04-26T15:18:30.393Z</time></trkpt><trkpt lat="32.7853517" lon="-8.5448233"><ele>153.0</ele><time>2026-04-26T15:18:31.393Z</time></trkpt><trkpt lat="32.7855217" lon="-8.5447233"><ele>153.0</ele><time>2026-04-26T15:18:32.393Z</time></trkpt><trkpt lat="32.785695" lon="-8.54462"><ele>153.0</ele><time>2026-04-26T15:18:33.393Z</time></trkpt><trkpt lat="32.78587" lon="-8.5445117"><ele>153.0</ele><time>2026-04-26T15:18:34.393Z</time></trkpt><trkpt lat="32.78606" lon="-8.5443983"><ele>152.5</ele><time>2026-04-26T15:18:35.393Z</time></trkpt><trkpt lat="32.7862583" lon="-8.5442817"><ele>152.0</ele><time>2026-04-26T15:18:36.393Z</time></trkpt><trkpt lat="32.7864683" lon="-8.5441667"><ele>152.0</ele><time>2026-04-26T15:18:37.393Z</time></trkpt><trkpt lat="32.7866767" lon="-8.5440367"><ele>152.0</ele><time>2026-04-26T15:18:38.393Z</time></trkpt><trkpt lat="32.7868883" lon="-8.5438967"><ele>151.5</ele><time>2026-04-26T15:18:39.393Z</time></trkpt><trkpt lat="32.787105" lon="-8.543755"><ele>151.0</ele><time>2026-04-26T15:18:40.393Z</time></trkpt><trkpt lat="32.787315" lon="-8.5436133"><ele>151.0</ele><time>2026-04-26T15:18:41.393Z</time></trkpt><trkpt lat="32.7875167" lon="-8.5434783"><ele>151.0</ele><time>2026-04-26T15:18:42.393Z</time></trkpt><trkpt lat="32.7877183" lon="-8.5433533"><ele>151.0</ele><time>2026-04-26T15:18:43.393Z</time></trkpt><trkpt lat="32.7879217" lon="-8.543225"><ele>151.0</ele><time>2026-04-26T15:18:44.393Z</time></trkpt><trkpt lat="32.7881233" lon="-8.5431"><ele>151.0</ele><time>2026-04-26T15:18:45.393Z</time></trkpt><trkpt lat="32.7883217" lon="-8.5429767"><ele>151.0</ele><time>2026-04-26T15:18:46.393Z</time></trkpt><trkpt lat="32.7885217" lon="-8.5428533"><ele>151.0</ele><time>2026-04-26T15:18:47.393Z</time></trkpt><trkpt lat="32.7887167" lon="-8.5427283"><ele>151.0</ele><time>2026-04-26T15:18:48.393Z</time></trkpt><trkpt lat="32.788915" lon="-8.5426017"><ele>151.0</ele><time>2026-04-26T15:18:49.393Z</time></trkpt><trkpt lat="32.7891133" lon="-8.5424767"><ele>151.0</ele><time>2026-04-26T15:18:50.393Z</time></trkpt><trkpt lat="32.7893083" lon="-8.5423617"><ele>151.0</ele><time>2026-04-26T15:18:51.393Z</time></trkpt><trkpt lat="32.7895033" lon="-8.5422383"><ele>151.0</ele><time>2026-04-26T15:18:52.393Z</time></trkpt><trkpt lat="32.7897" lon="-8.5421183"><ele>151.0</ele><time>2026-04-26T15:18:53.393Z</time></trkpt><trkpt lat="32.789895" lon="-8.5419917"><ele>151.0</ele><time>2026-04-26T15:18:54.393Z</time></trkpt><trkpt lat="32.790085" lon="-8.5418667"><ele>151.0</ele><time>2026-04-26T15:18:55.393Z</time></trkpt><trkpt lat="32.7902733" lon="-8.54174"><ele>151.0</ele><time>2026-04-26T15:18:56.393Z</time></trkpt><trkpt lat="32.7904583" lon="-8.5416033"><ele>151.0</ele><time>2026-04-26T15:18:57.393Z</time></trkpt><trkpt lat="32.790645" lon="-8.54146"><ele>151.0</ele><time>2026-04-26T15:18:58.393Z</time></trkpt><trkpt lat="32.79083" lon="-8.5413167"><ele>151.0</ele><time>2026-04-26T15:18:59.393Z</time></trkpt><trkpt lat="32.79102" lon="-8.5411717"><ele>151.33333333333334</ele><time>2026-04-26T15:19:00.393Z</time></trkpt><trkpt lat="32.7912033" lon="-8.5410267"><ele>151.66666666666666</ele><time>2026-04-26T15:19:01.393Z</time></trkpt><trkpt lat="32.79139" lon="-8.54088"><ele>152.0</ele><time>2026-04-26T15:19:02.393Z</time></trkpt><trkpt lat="32.7915783" lon="-8.5407333"><ele>152.0</ele><time>2026-04-26T15:19:03.393Z</time></trkpt><trkpt lat="32.7917683" lon="-8.5405883"><ele>152.0</ele><time>2026-04-26T15:19:04.393Z</time></trkpt><trkpt lat="32.7919583" lon="-8.54044"><ele>151.5</ele><time>2026-04-26T15:19:05.393Z</time></trkpt><trkpt lat="32.7921483" lon="-8.5402883"><ele>151.0</ele><time>2026-04-26T15:19:06.393Z</time></trkpt><trkpt lat="32.7923383" lon="-8.54014"><ele>151.0</ele><time>2026-04-26T15:19:07.394Z</time></trkpt><trkpt lat="32.79253" lon="-8.5399833"><ele>151.0</ele><time>2026-04-26T15:19:08.393Z</time></trkpt><trkpt lat="32.7927233" lon="-8.5398333"><ele>151.0</ele><time>2026-04-26T15:19:09.393Z</time></trkpt><trkpt lat="32.7929167" lon="-8.539685"><ele>151.0</ele><time>2026-04-26T15:19:10.393Z</time></trkpt><trkpt lat="32.7931017" lon="-8.5395417"><ele>151.33333333333334</ele><time>2026-04-26T15:19:11.393Z</time></trkpt><trkpt lat="32.79328" lon="-8.5394"><ele>151.66666666666666</ele><time>2026-04-26T15:19:12.393Z</time></trkpt><trkpt lat="32.793455" lon="-8.5392617"><ele>152.0</ele><time>2026-04-26T15:19:13.393Z</time></trkpt><trkpt lat="32.7936317" lon="-8.5391217"><ele>152.0</ele><time>2026-04-26T15:19:14.393Z</time></trkpt><trkpt lat="32.7938083" lon="-8.5389883"><ele>152.0</ele><time>2026-04-26T15:19:15.393Z</time></trkpt><trkpt lat="32.7939917" lon="-8.538845"><ele>152.0</ele><time>2026-04-26T15:19:16.393Z</time></trkpt><trkpt lat="32.7941667" lon="-8.5387017"><ele>152.0</ele><time>2026-04-26T15:19:17.393Z</time></trkpt><trkpt lat="32.794345" lon="-8.53856"><ele>152.0</ele><time>2026-04-26T15:19:18.393Z</time></trkpt><trkpt lat="32.794525" lon="-8.538415"><ele>152.0</ele><time>2026-04-26T15:19:19.393Z</time></trkpt><trkpt lat="32.7947117" lon="-8.538275"><ele>152.0</ele><time>2026-04-26T15:19:20.393Z</time></trkpt><trkpt lat="32.7948967" lon="-8.53813"><ele>152.0</ele><time>2026-04-26T15:19:21.393Z</time></trkpt><trkpt lat="32.795085" lon="-8.5379867"><ele>152.0</ele><time>2026-04-26T15:19:22.393Z</time></trkpt><trkpt lat="32.79528" lon="-8.5378433"><ele>151.5</ele><time>2026-04-26T15:19:23.393Z</time></trkpt><trkpt lat="32.795475" lon="-8.5377017"><ele>151.0</ele><time>2026-04-26T15:19:24.393Z</time></trkpt><trkpt lat="32.7956733" lon="-8.537565"><ele>151.0</ele><time>2026-04-26T15:19:25.393Z</time></trkpt><trkpt lat="32.7958733" lon="-8.5374317"><ele>151.0</ele><time>2026-04-26T15:19:26.393Z</time></trkpt><trkpt lat="32.7960667" lon="-8.5373083"><ele>151.0</ele><time>2026-04-26T15:19:27.393Z</time></trkpt><trkpt lat="32.79626" lon="-8.5371867"><ele>150.66666666666669</ele><time>2026-04-26T15:19:28.393Z</time></trkpt><trkpt lat="32.796455" lon="-8.5370683"><ele>150.33333333333334</ele><time>2026-04-26T15:19:29.394Z</time></trkpt><trkpt lat="32.7966467" lon="-8.53695"><ele>150.0</ele><time>2026-04-26T15:19:30.393Z</time></trkpt><trkpt lat="32.79684" lon="-8.5368333"><ele>150.0</ele><time>2026-04-26T15:19:31.393Z</time></trkpt><trkpt lat="32.7970367" lon="-8.5367167"><ele>150.0</ele><time>2026-04-26T15:19:32.393Z</time></trkpt><trkpt lat="32.7972333" lon="-8.5365967"><ele>150.0</ele><time>2026-04-26T15:19:33.393Z</time></trkpt><trkpt lat="32.7974283" lon="-8.536475"><ele>150.0</ele><time>2026-04-26T15:19:34.393Z</time></trkpt><trkpt lat="32.7976233" lon="-8.536355"><ele>150.0</ele><time>2026-04-26T15:19:35.393Z</time></trkpt><trkpt lat="32.7978183" lon="-8.53623"><ele>150.0</ele><time>2026-04-26T15:19:36.393Z</time></trkpt><trkpt lat="32.79802" lon="-8.536105"><ele>150.0</ele><time>2026-04-26T15:19:37.393Z</time></trkpt><trkpt lat="32.79822" lon="-8.53598"><ele>150.0</ele><time>2026-04-26T15:19:38.393Z</time></trkpt><trkpt lat="32.7984233" lon="-8.5358583"><ele>150.0</ele><time>2026-04-26T15:19:39.393Z</time></trkpt><trkpt lat="32.7986283" lon="-8.535735"><ele>150.0</ele><time>2026-04-26T15:19:40.393Z</time></trkpt><trkpt lat="32.7988317" lon="-8.5356083"><ele>150.0</ele><time>2026-04-26T15:19:41.394Z</time></trkpt><trkpt lat="32.799035" lon="-8.53548"><ele>150.0</ele><time>2026-04-26T15:19:42.393Z</time></trkpt><trkpt lat="32.7992417" lon="-8.53535"><ele>150.5</ele><time>2026-04-26T15:19:43.393Z</time></trkpt><trkpt lat="32.7994533" lon="-8.5352183"><ele>151.0</ele><time>2026-04-26T15:19:44.393Z</time></trkpt><trkpt lat="32.799665" lon="-8.5350917"><ele>151.0</ele><time>2026-04-26T15:19:45.394Z</time></trkpt><trkpt lat="32.799875" lon="-8.5349633"><ele>151.0</ele><time>2026-04-26T15:19:46.393Z</time></trkpt><trkpt lat="32.800085" lon="-8.534835"><ele>151.0</ele><time>2026-04-26T15:19:47.393Z</time></trkpt><trkpt lat="32.80028" lon="-8.5347183"><ele>151.0</ele><time>2026-04-26T15:19:48.393Z</time></trkpt><trkpt lat="32.8004717" lon="-8.5345967"><ele>151.0</ele><time>2026-04-26T15:19:49.393Z</time></trkpt><trkpt lat="32.800665" lon="-8.534475"><ele>151.0</ele><time>2026-04-26T15:19:50.393Z</time></trkpt><trkpt lat="32.8008583" lon="-8.5343533"><ele>151.0</ele><time>2026-04-26T15:19:51.393Z</time></trkpt><trkpt lat="32.8010517" lon="-8.5342333"><ele>151.0</ele><time>2026-04-26T15:19:52.393Z</time></trkpt><trkpt lat="32.801245" lon="-8.5341183"><ele>151.33333333333334</ele><time>2026-04-26T15:19:53.393Z</time></trkpt><trkpt lat="32.80144" lon="-8.534"><ele>151.66666666666666</ele><time>2026-04-26T15:19:54.393Z</time></trkpt><trkpt lat="32.8016317" lon="-8.5338817"><ele>152.0</ele><time>2026-04-26T15:19:55.393Z</time></trkpt><trkpt lat="32.8018267" lon="-8.53376"><ele>152.66666666666666</ele><time>2026-04-26T15:19:56.393Z</time></trkpt><trkpt lat="32.80202" lon="-8.5336417"><ele>153.33333333333334</ele><time>2026-04-26T15:19:57.393Z</time></trkpt><trkpt lat="32.8022117" lon="-8.5335217"><ele>154.0</ele><time>2026-04-26T15:19:58.393Z</time></trkpt><trkpt lat="32.8024017" lon="-8.5334033"><ele>154.0</ele><time>2026-04-26T15:19:59.393Z</time></trkpt><trkpt lat="32.802585" lon="-8.533275"><ele>154.0</ele><time>2026-04-26T15:20:00.393Z</time></trkpt><trkpt lat="32.8027617" lon="-8.5331517"><ele>154.0</ele><time>2026-04-26T15:20:01.393Z</time></trkpt><trkpt lat="32.80293" lon="-8.533035"><ele>153.33333333333334</ele><time>2026-04-26T15:20:02.393Z</time></trkpt><trkpt lat="32.8030967" lon="-8.5329183"><ele>152.66666666666666</ele><time>2026-04-26T15:20:03.393Z</time></trkpt><trkpt lat="32.8032633" lon="-8.5327983"><ele>152.0</ele><time>2026-04-26T15:20:04.393Z</time></trkpt><trkpt lat="32.8034317" lon="-8.532675"><ele>152.0</ele><time>2026-04-26T15:20:05.393Z</time></trkpt><trkpt lat="32.8036017" lon="-8.5325467"><ele>152.0</ele><time>2026-04-26T15:20:06.393Z</time></trkpt><trkpt lat="32.8037717" lon="-8.5324167"><ele>152.0</ele><time>2026-04-26T15:20:07.393Z</time></trkpt><trkpt lat="32.80394" lon="-8.53229"><ele>152.0</ele><time>2026-04-26T15:20:08.393Z</time></trkpt><trkpt lat="32.8041133" lon="-8.5321567"><ele>152.0</ele><time>2026-04-26T15:20:09.393Z</time></trkpt><trkpt lat="32.80429" lon="-8.53203"><ele>152.0</ele><time>2026-04-26T15:20:10.393Z</time></trkpt><trkpt lat="32.8044567" lon="-8.5319067"><ele>151.66666666666666</ele><time>2026-04-26T15:20:11.393Z</time></trkpt><trkpt lat="32.80463" lon="-8.5317817"><ele>151.33333333333334</ele><time>2026-04-26T15:20:12.393Z</time></trkpt><trkpt lat="32.8048067" lon="-8.5316517"><ele>151.0</ele><time>2026-04-26T15:20:13.393Z</time></trkpt><trkpt lat="32.804985" lon="-8.5315183"><ele>151.0</ele><time>2026-04-26T15:20:14.393Z</time></trkpt><trkpt lat="32.8051683" lon="-8.531385"><ele>151.0</ele><time>2026-04-26T15:20:15.393Z</time></trkpt><trkpt lat="32.8053517" lon="-8.5312483"><ele>151.0</ele><time>2026-04-26T15:20:16.393Z</time></trkpt><trkpt lat="32.8055383" lon="-8.5311133"><ele>150.66666666666669</ele><time>2026-04-26T15:20:17.393Z</time></trkpt><trkpt lat="32.805725" lon="-8.5309733"><ele>150.33333333333334</ele><time>2026-04-26T15:20:18.393Z</time></trkpt><trkpt lat="32.8059167" lon="-8.5308317"><ele>150.0</ele><time>2026-04-26T15:20:19.393Z</time></trkpt><trkpt lat="32.8061083" lon="-8.53069"><ele>151.0</ele><time>2026-04-26T15:20:20.393Z</time></trkpt><trkpt lat="32.8063017" lon="-8.5305467"><ele>152.0</ele><time>2026-04-26T15:20:21.393Z</time></trkpt><trkpt lat="32.80649" lon="-8.5303933"><ele>152.5</ele><time>2026-04-26T15:20:22.393Z</time></trkpt><trkpt lat="32.8066783" lon="-8.5302433"><ele>153.0</ele><time>2026-04-26T15:20:23.393Z</time></trkpt><trkpt lat="32.8068617" lon="-8.530085"><ele>153.0</ele><time>2026-04-26T15:20:24.393Z</time></trkpt><trkpt lat="32.8070417" lon="-8.52992"><ele>153.0</ele><time>2026-04-26T15:20:25.394Z</time></trkpt><trkpt lat="32.807215" lon="-8.52975"><ele>153.0</ele><time>2026-04-26T15:20:26.393Z</time></trkpt><trkpt lat="32.8073733" lon="-8.5295883"><ele>153.0</ele><time>2026-04-26T15:20:27.393Z</time></trkpt><trkpt lat="32.8075283" lon="-8.5294183"><ele>153.0</ele><time>2026-04-26T15:20:28.393Z</time></trkpt><trkpt lat="32.807685" lon="-8.5292433"><ele>152.66666666666666</ele><time>2026-04-26T15:20:29.393Z</time></trkpt><trkpt lat="32.80784" lon="-8.5290683"><ele>152.33333333333331</ele><time>2026-04-26T15:20:30.393Z</time></trkpt><trkpt lat="32.8079883" lon="-8.5288883"><ele>152.0</ele><time>2026-04-26T15:20:31.393Z</time></trkpt><trkpt lat="32.8081383" lon="-8.5287067"><ele>152.33333333333331</ele><time>2026-04-26T15:20:32.394Z</time></trkpt><trkpt lat="32.8082883" lon="-8.5285217"><ele>152.66666666666666</ele><time>2026-04-26T15:20:33.393Z</time></trkpt><trkpt lat="32.80843" lon="-8.5283417"><ele>153.0</ele><time>2026-04-26T15:20:34.393Z</time></trkpt><trkpt lat="32.8085717" lon="-8.5281583"><ele>153.0</ele><time>2026-04-26T15:20:35.393Z</time></trkpt><trkpt lat="32.808715" lon="-8.5279767"><ele>153.0</ele><time>2026-04-26T15:20:36.393Z</time></trkpt><trkpt lat="32.8088533" lon="-8.5277933"><ele>153.0</ele><time>2026-04-26T15:20:37.393Z</time></trkpt><trkpt lat="32.8089917" lon="-8.527615"><ele>153.0</ele><time>2026-04-26T15:20:38.394Z</time></trkpt><trkpt lat="32.8091333" lon="-8.52744"><ele>153.0</ele><time>2026-04-26T15:20:39.393Z</time></trkpt><trkpt lat="32.8092717" lon="-8.5272633"><ele>153.0</ele><time>2026-04-26T15:20:40.393Z</time></trkpt><trkpt lat="32.809415" lon="-8.5270867"><ele>152.0</ele><time>2026-04-26T15:20:41.393Z</time></trkpt><trkpt lat="32.80955" lon="-8.5269133"><ele>151.0</ele><time>2026-04-26T15:20:42.393Z</time></trkpt><trkpt lat="32.80969" lon="-8.526735"><ele>150.0</ele><time>2026-04-26T15:20:43.393Z</time></trkpt><trkpt lat="32.8098333" lon="-8.5265567"><ele>150.0</ele><time>2026-04-26T15:20:44.393Z</time></trkpt><trkpt lat="32.809975" lon="-8.5263767"><ele>150.0</ele><time>2026-04-26T15:20:45.393Z</time></trkpt><trkpt lat="32.81012" lon="-8.5261967"><ele>150.0</ele><time>2026-04-26T15:20:46.393Z</time></trkpt><trkpt lat="32.81027" lon="-8.5260167"><ele>151.66666666666666</ele><time>2026-04-26T15:20:47.393Z</time></trkpt><trkpt lat="32.8104183" lon="-8.52584"><ele>153.33333333333331</ele><time>2026-04-26T15:20:48.393Z</time></trkpt><trkpt lat="32.8105683" lon="-8.525655"><ele>155.0</ele><time>2026-04-26T15:20:49.393Z</time></trkpt><trkpt lat="32.81072" lon="-8.5254633"><ele>154.66666666666666</ele><time>2026-04-26T15:20:50.393Z</time></trkpt><trkpt lat="32.810865" lon="-8.5252767"><ele>154.33333333333334</ele><time>2026-04-26T15:20:51.394Z</time></trkpt><trkpt lat="32.81101" lon="-8.5250933"><ele>154.0</ele><time>2026-04-26T15:20:52.393Z</time></trkpt><trkpt lat="32.81115" lon="-8.5249117"><ele>154.0</ele><time>2026-04-26T15:20:53.393Z</time></trkpt><trkpt lat="32.8112883" lon="-8.5247367"><ele>154.0</ele><time>2026-04-26T15:20:54.393Z</time></trkpt><trkpt lat="32.8114267" lon="-8.5245633"><ele>154.0</ele><time>2026-04-26T15:20:55.393Z</time></trkpt><trkpt lat="32.81157" lon="-8.5243833"><ele>154.0</ele><time>2026-04-26T15:20:56.393Z</time></trkpt><trkpt lat="32.8117117" lon="-8.5242033"><ele>154.0</ele><time>2026-04-26T15:20:57.393Z</time></trkpt><trkpt lat="32.8118517" lon="-8.524035"><ele>154.0</ele><time>2026-04-26T15:20:58.393Z</time></trkpt><trkpt lat="32.8119933" lon="-8.52386"><ele>154.0</ele><time>2026-04-26T15:20:59.393Z</time></trkpt><trkpt lat="32.8121317" lon="-8.52368"><ele>154.0</ele><time>2026-04-26T15:21:00.393Z</time></trkpt><trkpt lat="32.8122717" lon="-8.5235067"><ele>154.0</ele><time>2026-04-26T15:21:01.393Z</time></trkpt><trkpt lat="32.8124083" lon="-8.5233283"><ele>154.0</ele><time>2026-04-26T15:21:02.393Z</time></trkpt><trkpt lat="32.812555" lon="-8.5231483"><ele>154.0</ele><time>2026-04-26T15:21:03.393Z</time></trkpt><trkpt lat="32.8126967" lon="-8.522975"><ele>154.0</ele><time>2026-04-26T15:21:04.394Z</time></trkpt><trkpt lat="32.8128383" lon="-8.5227983"><ele>153.33333333333334</ele><time>2026-04-26T15:21:05.393Z</time></trkpt><trkpt lat="32.8129833" lon="-8.5226167"><ele>152.66666666666666</ele><time>2026-04-26T15:21:06.393Z</time></trkpt><trkpt lat="32.8131233" lon="-8.5224367"><ele>152.0</ele><time>2026-04-26T15:21:07.393Z</time></trkpt><trkpt lat="32.8132667" lon="-8.5222583"><ele>152.0</ele><time>2026-04-26T15:21:08.393Z</time></trkpt><trkpt lat="32.8134083" lon="-8.5220767"><ele>152.0</ele><time>2026-04-26T15:21:09.393Z</time></trkpt><trkpt lat="32.8135517" lon="-8.5218967"><ele>152.0</ele><time>2026-04-26T15:21:10.393Z</time></trkpt><trkpt lat="32.81369" lon="-8.521715"><ele>152.0</ele><time>2026-04-26T15:21:11.393Z</time></trkpt><trkpt lat="32.813835" lon="-8.5215383"><ele>152.0</ele><time>2026-04-26T15:21:12.393Z</time></trkpt><trkpt lat="32.8139817" lon="-8.5213633"><ele>152.0</ele><time>2026-04-26T15:21:13.393Z</time></trkpt><trkpt lat="32.8141283" lon="-8.5211883"><ele>152.33333333333331</ele><time>2026-04-26T15:21:14.393Z</time></trkpt><trkpt lat="32.8142817" lon="-8.52101"><ele>152.66666666666666</ele><time>2026-04-26T15:21:15.394Z</time></trkpt><trkpt lat="32.8144317" lon="-8.520835"><ele>153.0</ele><time>2026-04-26T15:21:16.393Z</time></trkpt><trkpt lat="32.8145883" lon="-8.5206683"><ele>153.0</ele><time>2026-04-26T15:21:17.393Z</time></trkpt><trkpt lat="32.81475" lon="-8.5205017"><ele>153.0</ele><time>2026-04-26T15:21:18.393Z</time></trkpt><trkpt lat="32.8149167" lon="-8.5203417"><ele>153.0</ele><time>2026-04-26T15:21:19.393Z</time></trkpt><trkpt lat="32.8150833" lon="-8.5201867"><ele>153.33333333333334</ele><time>2026-04-26T15:21:20.393Z</time></trkpt><trkpt lat="32.8152533" lon="-8.5200317"><ele>153.66666666666669</ele><time>2026-04-26T15:21:21.393Z</time></trkpt><trkpt lat="32.81543" lon="-8.5198867"><ele>154.0</ele><time>2026-04-26T15:21:22.393Z</time></trkpt><trkpt lat="32.8156083" lon="-8.51974"><ele>154.0</ele><time>2026-04-26T15:21:23.393Z</time></trkpt><trkpt lat="32.8157917" lon="-8.5196"><ele>154.0</ele><time>2026-04-26T15:21:24.393Z</time></trkpt><trkpt lat="32.8159833" lon="-8.5194667"><ele>154.0</ele><time>2026-04-26T15:21:25.393Z</time></trkpt><trkpt lat="32.8161717" lon="-8.5193417"><ele>153.66666666666669</ele><time>2026-04-26T15:21:26.393Z</time></trkpt><trkpt lat="32.8163617" lon="-8.5192183"><ele>153.33333333333334</ele><time>2026-04-26T15:21:27.393Z</time></trkpt><trkpt lat="32.8165533" lon="-8.5190917"><ele>153.0</ele><time>2026-04-26T15:21:28.393Z</time></trkpt><trkpt lat="32.8167433" lon="-8.51896"><ele>152.66666666666666</ele><time>2026-04-26T15:21:29.393Z</time></trkpt><trkpt lat="32.8169367" lon="-8.5188317"><ele>152.33333333333331</ele><time>2026-04-26T15:21:30.393Z</time></trkpt><trkpt lat="32.81713" lon="-8.5187083"><ele>152.0</ele><time>2026-04-26T15:21:31.393Z</time></trkpt><trkpt lat="32.8173233" lon="-8.518585"><ele>151.66666666666666</ele><time>2026-04-26T15:21:32.393Z</time></trkpt><trkpt lat="32.8175133" lon="-8.5184617"><ele>151.33333333333334</ele><time>2026-04-26T15:21:33.393Z</time></trkpt><trkpt lat="32.8176983" lon="-8.51834"><ele>151.0</ele><time>2026-04-26T15:21:34.393Z</time></trkpt><trkpt lat="32.817875" lon="-8.5182317"><ele>151.0</ele><time>2026-04-26T15:21:35.393Z</time></trkpt><trkpt lat="32.8180467" lon="-8.51812"><ele>151.0</ele><time>2026-04-26T15:21:36.393Z</time></trkpt><trkpt lat="32.8182217" lon="-8.51801"><ele>151.0</ele><time>2026-04-26T15:21:37.393Z</time></trkpt><trkpt lat="32.8183983" lon="-8.5179"><ele>151.33333333333334</ele><time>2026-04-26T15:21:38.393Z</time></trkpt><trkpt lat="32.818575" lon="-8.5177833"><ele>151.66666666666666</ele><time>2026-04-26T15:21:39.393Z</time></trkpt><trkpt lat="32.818745" lon="-8.5176567"><ele>152.0</ele><time>2026-04-26T15:21:40.393Z</time></trkpt><trkpt lat="32.8189033" lon="-8.5175333"><ele>152.0</ele><time>2026-04-26T15:21:41.393Z</time></trkpt><trkpt lat="32.8190517" lon="-8.5174083"><ele>152.0</ele><time>2026-04-26T15:21:42.393Z</time></trkpt><trkpt lat="32.8191867" lon="-8.51728"><ele>152.0</ele><time>2026-04-26T15:21:43.393Z</time></trkpt><trkpt lat="32.8193133" lon="-8.51715"><ele>151.33333333333331</ele><time>2026-04-26T15:21:44.393Z</time></trkpt><trkpt lat="32.8194333" lon="-8.5170283"><ele>150.66666666666666</ele><time>2026-04-26T15:21:45.393Z</time></trkpt><trkpt lat="32.8195467" lon="-8.5169083"><ele>150.0</ele><time>2026-04-26T15:21:46.393Z</time></trkpt><trkpt lat="32.81966" lon="-8.516785"><ele>150.0</ele><time>2026-04-26T15:21:47.393Z</time></trkpt><trkpt lat="32.8197717" lon="-8.5166633"><ele>150.0</ele><time>2026-04-26T15:21:48.393Z</time></trkpt><trkpt lat="32.8198767" lon="-8.5165417"><ele>150.0</ele><time>2026-04-26T15:21:49.393Z</time></trkpt><trkpt lat="32.8199833" lon="-8.516415"><ele>150.0</ele><time>2026-04-26T15:21:50.393Z</time></trkpt><trkpt lat="32.8200883" lon="-8.5162917"><ele>150.33333333333334</ele><time>2026-04-26T15:21:51.393Z</time></trkpt><trkpt lat="32.820195" lon="-8.5161617"><ele>150.66666666666669</ele><time>2026-04-26T15:21:52.393Z</time></trkpt><trkpt lat="32.8203033" lon="-8.5160367"><ele>151.0</ele><time>2026-04-26T15:21:53.393Z</time></trkpt><trkpt lat="32.8204117" lon="-8.5159133"><ele>151.0</ele><time>2026-04-26T15:21:54.393Z</time></trkpt><trkpt lat="32.8205117" lon="-8.515795"><ele>151.0</ele><time>2026-04-26T15:21:55.393Z</time></trkpt><trkpt lat="32.820605" lon="-8.5156833"><ele>151.0</ele><time>2026-04-26T15:21:56.393Z</time></trkpt><trkpt lat="32.8207" lon="-8.5155783"><ele>151.0</ele><time>2026-04-26T15:21:57.393Z</time></trkpt><trkpt lat="32.8207833" lon="-8.5154733"><ele>151.5</ele><time>2026-04-26T15:21:58.393Z</time></trkpt><trkpt lat="32.8208683" lon="-8.5153667"><ele>152.0</ele><time>2026-04-26T15:21:59.393Z</time></trkpt><trkpt lat="32.8209483" lon="-8.5152667"><ele>152.5</ele><time>2026-04-26T15:22:00.393Z</time></trkpt><trkpt lat="32.8210217" lon="-8.5151717"><ele>153.0</ele><time>2026-04-26T15:22:01.393Z</time></trkpt><trkpt lat="32.8210933" lon="-8.515085"><ele>153.20000000000002</ele><time>2026-04-26T15:22:02.393Z</time></trkpt><trkpt lat="32.8211717" lon="-8.5149983"><ele>153.4</ele><time>2026-04-26T15:22:03.393Z</time></trkpt><trkpt lat="32.8212433" lon="-8.5149067"><ele>153.60000000000002</ele><time>2026-04-26T15:22:04.393Z</time></trkpt><trkpt lat="32.8213067" lon="-8.5148267"><ele>153.8</ele><time>2026-04-26T15:22:05.393Z</time></trkpt><trkpt lat="32.8213767" lon="-8.514745"><ele>154.0</ele><time>2026-04-26T15:22:06.393Z</time></trkpt><trkpt lat="32.821445" lon="-8.51467"><ele>154.0</ele><time>2026-04-26T15:22:07.393Z</time></trkpt><trkpt lat="32.821505" lon="-8.5145983"><ele>154.0</ele><time>2026-04-26T15:22:08.393Z</time></trkpt><trkpt lat="32.8215567" lon="-8.514535"><ele>154.0</ele><time>2026-04-26T15:22:09.392Z</time></trkpt><trkpt lat="32.8216117" lon="-8.51447"><ele>154.0</ele><time>2026-04-26T15:22:10.392Z</time></trkpt><trkpt lat="32.821665" lon="-8.5144117"><ele>154.0</ele><time>2026-04-26T15:22:11.393Z</time></trkpt><trkpt lat="32.8217167" lon="-8.5143533"><ele>154.0</ele><time>2026-04-26T15:22:12.392Z</time></trkpt><trkpt lat="32.82177" lon="-8.5142917"><ele>154.33333333333334</ele><time>2026-04-26T15:22:13.392Z</time></trkpt><trkpt lat="32.8218233" lon="-8.5142333"><ele>154.66666666666669</ele><time>2026-04-26T15:22:14.392Z</time></trkpt><trkpt lat="32.82188" lon="-8.5141683"><ele>155.0</ele><time>2026-04-26T15:22:15.392Z</time></trkpt><trkpt lat="32.8219367" lon="-8.5141067"><ele>155.33333333333334</ele><time>2026-04-26T15:22:16.392Z</time></trkpt><trkpt lat="32.8219917" lon="-8.5140433"><ele>155.66666666666666</ele><time>2026-04-26T15:22:17.392Z</time></trkpt><trkpt lat="32.8220467" lon="-8.5139783"><ele>156.0</ele><time>2026-04-26T15:22:18.392Z</time></trkpt><trkpt lat="32.8221" lon="-8.5139083"><ele>156.0</ele><time>2026-04-26T15:22:19.392Z</time></trkpt><trkpt lat="32.8221567" lon="-8.513845"><ele>156.0</ele><time>2026-04-26T15:22:20.392Z</time></trkpt><trkpt lat="32.822215" lon="-8.5137933"><ele>156.0</ele><time>2026-04-26T15:22:21.392Z</time></trkpt><trkpt lat="32.8222683" lon="-8.5137417"><ele>156.0</ele><time>2026-04-26T15:22:22.392Z</time></trkpt><trkpt lat="32.8223133" lon="-8.5136883"><ele>156.0</ele><time>2026-04-26T15:22:23.392Z</time></trkpt><trkpt lat="32.822395" lon="-8.51359"><ele>156.0</ele><time>2026-04-26T15:22:25.392Z</time></trkpt><trkpt lat="32.8224567" lon="-8.51352"><ele>155.85714285714286</ele><time>2026-04-26T15:22:27.392Z</time></trkpt><trkpt lat="32.8225" lon="-8.5134617"><ele>155.7142857142857</ele><time>2026-04-26T15:22:29.392Z</time></trkpt><trkpt lat="32.8225417" lon="-8.513405"><ele>155.57142857142856</ele><time>2026-04-26T15:22:31.392Z</time></trkpt><trkpt lat="32.8225883" lon="-8.5133533"><ele>155.42857142857144</ele><time>2026-04-26T15:22:33.392Z</time></trkpt><trkpt lat="32.8226633" lon="-8.5132917"><ele>155.28571428571428</ele><time>2026-04-26T15:22:36.392Z</time></trkpt><trkpt lat="32.8227183" lon="-8.51325"><ele>155.14285714285714</ele><time>2026-04-26T15:22:38.392Z</time></trkpt><trkpt lat="32.822775" lon="-8.5132017"><ele>155.0</ele><time>2026-04-26T15:22:40.392Z</time></trkpt><trkpt lat="32.82284" lon="-8.5131467"><ele>154.66666666666666</ele><time>2026-04-26T15:22:42.392Z</time></trkpt><trkpt lat="32.8229183" lon="-8.513075"><ele>154.33333333333331</ele><time>2026-04-26T15:22:44.392Z</time></trkpt><trkpt lat="32.8230183" lon="-8.5130133"><ele>154.0</ele><time>2026-04-26T15:22:46.392Z</time></trkpt><trkpt lat="32.8230817" lon="-8.5129683"><ele>153.66666666666666</ele><time>2026-04-26T15:22:47.392Z</time></trkpt><trkpt lat="32.8231483" lon="-8.5129283"><ele>153.33333333333334</ele><time>2026-04-26T15:22:48.392Z</time></trkpt><trkpt lat="32.8232133" lon="-8.5128867"><ele>153.0</ele><time>2026-04-26T15:22:49.392Z</time></trkpt><trkpt lat="32.8232833" lon="-8.5128433"><ele>153.0</ele><time>2026-04-26T15:22:50.392Z</time></trkpt><trkpt lat="32.8233517" lon="-8.5128017"><ele>153.0</ele><time>2026-04-26T15:22:51.392Z</time></trkpt><trkpt lat="32.8234133" lon="-8.5127633"><ele>153.0</ele><time>2026-04-26T15:22:52.392Z</time></trkpt><trkpt lat="32.823475" lon="-8.5127267"><ele>153.0</ele><time>2026-04-26T15:22:53.392Z</time></trkpt><trkpt lat="32.82354" lon="-8.5126817"><ele>153.0</ele><time>2026-04-26T15:22:54.392Z</time></trkpt><trkpt lat="32.8236033" lon="-8.5126433"><ele>153.0</ele><time>2026-04-26T15:22:55.392Z</time></trkpt><trkpt lat="32.8236667" lon="-8.5126083"><ele>153.0</ele><time>2026-04-26T15:22:56.392Z</time></trkpt><trkpt lat="32.8237317" lon="-8.5125783"><ele>153.0</ele><time>2026-04-26T15:22:57.392Z</time></trkpt><trkpt lat="32.8237933" lon="-8.5125483"><ele>153.0</ele><time>2026-04-26T15:22:58.392Z</time></trkpt><trkpt lat="32.82386" lon="-8.5125167"><ele>153.0</ele><time>2026-04-26T15:22:59.392Z</time></trkpt><trkpt lat="32.8239267" lon="-8.51249"><ele>153.0</ele><time>2026-04-26T15:23:00.392Z</time></trkpt><trkpt lat="32.82399" lon="-8.5124667"><ele>153.0</ele><time>2026-04-26T15:23:01.392Z</time></trkpt><trkpt lat="32.8240517" lon="-8.51245"><ele>153.0</ele><time>2026-04-26T15:23:02.392Z</time></trkpt><trkpt lat="32.8241133" lon="-8.5124333"><ele>153.0</ele><time>2026-04-26T15:23:03.392Z</time></trkpt><trkpt lat="32.8242283" lon="-8.5123783"><ele>152.66666666666666</ele><time>2026-04-26T15:23:05.392Z</time></trkpt><trkpt lat="32.824325" lon="-8.5123433"><ele>152.33333333333334</ele><time>2026-04-26T15:23:07.392Z</time></trkpt><trkpt lat="32.8244117" lon="-8.5123283"><ele>152.0</ele><time>2026-04-26T15:23:09.392Z</time></trkpt><trkpt lat="32.8244867" lon="-8.5123033"><ele>151.66666666666669</ele><time>2026-04-26T15:23:12.392Z</time></trkpt><trkpt lat="32.82455" lon="-8.5122783"><ele>151.33333333333334</ele><time>2026-04-26T15:23:14.392Z</time></trkpt><trkpt lat="32.8246483" lon="-8.512245"><ele>151.0</ele><time>2026-04-26T15:23:16.392Z</time></trkpt><trkpt lat="32.8247717" lon="-8.5122083"><ele>151.0</ele><time>2026-04-26T15:23:18.392Z</time></trkpt><trkpt lat="32.8248467" lon="-8.5121833"><ele>151.0</ele><time>2026-04-26T15:23:19.392Z</time></trkpt><trkpt lat="32.8249317" lon="-8.512155"><ele>151.0</ele><time>2026-04-26T15:23:20.392Z</time></trkpt><trkpt lat="32.8250233" lon="-8.51212"><ele>151.0</ele><time>2026-04-26T15:23:21.392Z</time></trkpt><trkpt lat="32.8251183" lon="-8.512075"><ele>151.0</ele><time>2026-04-26T15:23:22.392Z</time></trkpt><trkpt lat="32.825215" lon="-8.512025"><ele>151.0</ele><time>2026-04-26T15:23:23.392Z</time></trkpt><trkpt lat="32.8253017" lon="-8.5119783"><ele>151.0</ele><time>2026-04-26T15:23:24.392Z</time></trkpt><trkpt lat="32.8253767" lon="-8.5119167"><ele>151.0</ele><time>2026-04-26T15:23:25.392Z</time></trkpt><trkpt lat="32.8254417" lon="-8.51183"><ele>151.0</ele><time>2026-04-26T15:23:26.392Z</time></trkpt><trkpt lat="32.8254883" lon="-8.51172"><ele>151.0</ele><time>2026-04-26T15:23:27.392Z</time></trkpt><trkpt lat="32.8255217" lon="-8.51161"><ele>151.0</ele><time>2026-04-26T15:23:28.392Z</time></trkpt><trkpt lat="32.8255317" lon="-8.5114833"><ele>151.0</ele><time>2026-04-26T15:23:29.392Z</time></trkpt><trkpt lat="32.82553" lon="-8.5113667"><ele>151.0</ele><time>2026-04-26T15:23:30.392Z</time></trkpt><trkpt lat="32.8255083" lon="-8.5112767"><ele>151.0</ele><time>2026-04-26T15:23:31.392Z</time></trkpt><trkpt lat="32.82548" lon="-8.5111917"><ele>151.0</ele><time>2026-04-26T15:23:32.392Z</time></trkpt><trkpt lat="32.8254483" lon="-8.51112"><ele>151.0</ele><time>2026-04-26T15:23:33.392Z</time></trkpt><trkpt lat="32.82541" lon="-8.511055"><ele>151.0</ele><time>2026-04-26T15:23:34.392Z</time></trkpt><trkpt lat="32.82533" lon="-8.5109567"><ele>151.0</ele><time>2026-04-26T15:23:36.392Z</time></trkpt><trkpt lat="32.8252633" lon="-8.5108817"><ele>151.0</ele><time>2026-04-26T15:23:38.392Z</time></trkpt><trkpt lat="32.8251983" lon="-8.5108217"><ele>151.0</ele><time>2026-04-26T15:23:40.392Z</time></trkpt><trkpt lat="32.8251217" lon="-8.510735"><ele>151.0</ele><time>2026-04-26T15:23:42.392Z</time></trkpt><trkpt lat="32.82506" lon="-8.5106733"><ele>151.0</ele><time>2026-04-26T15:23:43.392Z</time></trkpt><trkpt lat="32.8249783" lon="-8.510605"><ele>151.0</ele><time>2026-04-26T15:23:44.392Z</time></trkpt><trkpt lat="32.824885" lon="-8.5105233"><ele>151.0</ele><time>2026-04-26T15:23:45.392Z</time></trkpt><trkpt lat="32.82478" lon="-8.5104367"><ele>151.0</ele><time>2026-04-26T15:23:46.392Z</time></trkpt><trkpt lat="32.824675" lon="-8.5103433"><ele>150.8</ele><time>2026-04-26T15:23:47.392Z</time></trkpt><trkpt lat="32.8245817" lon="-8.5102567"><ele>150.6</ele><time>2026-04-26T15:23:48.392Z</time></trkpt><trkpt lat="32.8244917" lon="-8.5101833"><ele>150.4</ele><time>2026-04-26T15:23:49.392Z</time></trkpt><trkpt lat="32.8244017" lon="-8.510115"><ele>150.2</ele><time>2026-04-26T15:23:50.392Z</time></trkpt><trkpt lat="32.824315" lon="-8.5100583"><ele>150.0</ele><time>2026-04-26T15:23:51.392Z</time></trkpt><trkpt lat="32.824225" lon="-8.5099967"><ele>151.0</ele><time>2026-04-26T15:23:52.392Z</time></trkpt><trkpt lat="32.8241383" lon="-8.5099283"><ele>152.0</ele><time>2026-04-26T15:23:53.392Z</time></trkpt><trkpt lat="32.824045" lon="-8.5098733"><ele>153.0</ele><time>2026-04-26T15:23:54.392Z</time></trkpt><trkpt lat="32.82396" lon="-8.509815"><ele>154.0</ele><time>2026-04-26T15:23:55.393Z</time></trkpt><trkpt lat="32.8238833" lon="-8.5097617"><ele>155.0</ele><time>2026-04-26T15:23:56.392Z</time></trkpt><trkpt lat="32.8238217" lon="-8.5097083"><ele>155.0</ele><time>2026-04-26T15:23:57.392Z</time></trkpt><trkpt lat="32.8237817" lon="-8.5095917"><ele>155.0</ele><time>2026-04-26T15:23:59.392Z</time></trkpt><trkpt lat="32.8238283" lon="-8.50946"><ele>155.0</ele><time>2026-04-26T15:24:01.392Z</time></trkpt><trkpt lat="32.8238733" lon="-8.5093867"><ele>155.0</ele><time>2026-04-26T15:24:02.392Z</time></trkpt><trkpt lat="32.8239183" lon="-8.5093017"><ele>155.0</ele><time>2026-04-26T15:24:03.392Z</time></trkpt><trkpt lat="32.8239617" lon="-8.50921"><ele>154.6</ele><time>2026-04-26T15:24:04.392Z</time></trkpt><trkpt lat="32.8239983" lon="-8.509115"><ele>154.2</ele><time>2026-04-26T15:24:05.392Z</time></trkpt><trkpt lat="32.8240333" lon="-8.509025"><ele>153.8</ele><time>2026-04-26T15:24:06.393Z</time></trkpt><trkpt lat="32.8240783" lon="-8.5089267"><ele>153.4</ele><time>2026-04-26T15:24:07.392Z</time></trkpt><trkpt lat="32.82412" lon="-8.5088217"><ele>153.0</ele><time>2026-04-26T15:24:08.392Z</time></trkpt><trkpt lat="32.8241617" lon="-8.5087217"><ele>152.83333333333334</ele><time>2026-04-26T15:24:09.392Z</time></trkpt><trkpt lat="32.8241983" lon="-8.5086317"><ele>152.66666666666666</ele><time>2026-04-26T15:24:10.392Z</time></trkpt><trkpt lat="32.8242333" lon="-8.5085433"><ele>152.5</ele><time>2026-04-26T15:24:11.392Z</time></trkpt><trkpt lat="32.8242683" lon="-8.5084533"><ele>152.33333333333331</ele><time>2026-04-26T15:24:12.392Z</time></trkpt><trkpt lat="32.8243133" lon="-8.5083617"><ele>152.16666666666666</ele><time>2026-04-26T15:24:13.392Z</time></trkpt><trkpt lat="32.82435" lon="-8.5082667"><ele>152.0</ele><time>2026-04-26T15:24:14.392Z</time></trkpt><trkpt lat="32.8243967" lon="-8.5081633"><ele>152.0</ele><time>2026-04-26T15:24:15.392Z</time></trkpt><trkpt lat="32.82444" lon="-8.5080467"><ele>152.0</ele><time>2026-04-26T15:24:16.392Z</time></trkpt><trkpt lat="32.824485" lon="-8.5079233"><ele>152.0</ele><time>2026-04-26T15:24:17.392Z</time></trkpt><trkpt lat="32.82453" lon="-8.507795"><ele>152.0</ele><time>2026-04-26T15:24:18.392Z</time></trkpt><trkpt lat="32.82458" lon="-8.507665"><ele>151.75</ele><time>2026-04-26T15:24:19.392Z</time></trkpt><trkpt lat="32.82463" lon="-8.50753"><ele>151.5</ele><time>2026-04-26T15:24:20.392Z</time></trkpt><trkpt lat="32.82468" lon="-8.5073933"><ele>151.25</ele><time>2026-04-26T15:24:21.392Z</time></trkpt><trkpt lat="32.8247333" lon="-8.5072533"><ele>151.0</ele><time>2026-04-26T15:24:22.392Z</time></trkpt><trkpt lat="32.8247817" lon="-8.50711"><ele>151.5</ele><time>2026-04-26T15:24:23.392Z</time></trkpt><trkpt lat="32.82484" lon="-8.5069717"><ele>152.0</ele><time>2026-04-26T15:24:24.392Z</time></trkpt><trkpt lat="32.8248967" lon="-8.50683"><ele>152.5</ele><time>2026-04-26T15:24:25.392Z</time></trkpt><trkpt lat="32.8249533" lon="-8.5066933"><ele>153.0</ele><time>2026-04-26T15:24:26.392Z</time></trkpt><trkpt lat="32.8250133" lon="-8.506555"><ele>153.0</ele><time>2026-04-26T15:24:27.392Z</time></trkpt><trkpt lat="32.82507" lon="-8.50641"><ele>153.0</ele><time>2026-04-26T15:24:28.392Z</time></trkpt><trkpt lat="32.82513" lon="-8.5062617"><ele>153.0</ele><time>2026-04-26T15:24:29.392Z</time></trkpt><trkpt lat="32.8251817" lon="-8.5061083"><ele>153.0</ele><time>2026-04-26T15:24:30.392Z</time></trkpt><trkpt lat="32.8252333" lon="-8.50595"><ele>152.75</ele><time>2026-04-26T15:24:31.393Z</time></trkpt><trkpt lat="32.8252817" lon="-8.5057783"><ele>152.5</ele><time>2026-04-26T15:24:32.392Z</time></trkpt><trkpt lat="32.82533" lon="-8.5056133"><ele>152.25</ele><time>2026-04-26T15:24:33.392Z</time></trkpt><trkpt lat="32.8253783" lon="-8.505445"><ele>152.0</ele><time>2026-04-26T15:24:34.392Z</time></trkpt><trkpt lat="32.8254217" lon="-8.5052783"><ele>151.33333333333331</ele><time>2026-04-26T15:24:35.392Z</time></trkpt><trkpt lat="32.8254683" lon="-8.505105"><ele>150.66666666666666</ele><time>2026-04-26T15:24:36.393Z</time></trkpt><trkpt lat="32.825515" lon="-8.5049267"><ele>150.0</ele><time>2026-04-26T15:24:37.392Z</time></trkpt><trkpt lat="32.8255617" lon="-8.5047433"><ele>150.33333333333334</ele><time>2026-04-26T15:24:38.392Z</time></trkpt><trkpt lat="32.8256067" lon="-8.5045517"><ele>150.66666666666669</ele><time>2026-04-26T15:24:39.392Z</time></trkpt><trkpt lat="32.8256567" lon="-8.5043617"><ele>151.0</ele><time>2026-04-26T15:24:40.392Z</time></trkpt><trkpt lat="32.825705" lon="-8.5041733"><ele>151.0</ele><time>2026-04-26T15:24:41.392Z</time></trkpt><trkpt lat="32.825755" lon="-8.503985"><ele>151.0</ele><time>2026-04-26T15:24:42.392Z</time></trkpt><trkpt lat="32.8258" lon="-8.5038083"><ele>151.0</ele><time>2026-04-26T15:24:43.392Z</time></trkpt><trkpt lat="32.825845" lon="-8.50364"><ele>151.25</ele><time>2026-04-26T15:24:44.392Z</time></trkpt><trkpt lat="32.82589" lon="-8.503475"><ele>151.5</ele><time>2026-04-26T15:24:45.392Z</time></trkpt><trkpt lat="32.8259317" lon="-8.50332"><ele>151.75</ele><time>2026-04-26T15:24:46.392Z</time></trkpt><trkpt lat="32.8259717" lon="-8.5031633"><ele>152.0</ele><time>2026-04-26T15:24:47.392Z</time></trkpt><trkpt lat="32.8260117" lon="-8.5030067"><ele>151.0</ele><time>2026-04-26T15:24:48.392Z</time></trkpt><trkpt lat="32.8260533" lon="-8.5028517"><ele>150.0</ele><time>2026-04-26T15:24:49.392Z</time></trkpt><trkpt lat="32.8260933" lon="-8.5026967"><ele>149.0</ele><time>2026-04-26T15:24:50.392Z</time></trkpt><trkpt lat="32.8261383" lon="-8.5025467"><ele>148.0</ele><time>2026-04-26T15:24:51.392Z</time></trkpt><trkpt lat="32.8261833" lon="-8.5023967"><ele>148.0</ele><time>2026-04-26T15:24:52.392Z</time></trkpt><trkpt lat="32.82623" lon="-8.5022517"><ele>148.0</ele><time>2026-04-26T15:24:53.392Z</time></trkpt><trkpt lat="32.8262767" lon="-8.5021033"><ele>148.0</ele><time>2026-04-26T15:24:54.392Z</time></trkpt><trkpt lat="32.8263283" lon="-8.5019467"><ele>148.0</ele><time>2026-04-26T15:24:55.392Z</time></trkpt><trkpt lat="32.826365" lon="-8.5017833"><ele>148.5</ele><time>2026-04-26T15:24:56.392Z</time></trkpt><trkpt lat="32.826395" lon="-8.501615"><ele>149.0</ele><time>2026-04-26T15:24:57.392Z</time></trkpt><trkpt lat="32.8264317" lon="-8.5014417"><ele>149.5</ele><time>2026-04-26T15:24:58.392Z</time></trkpt><trkpt lat="32.8264683" lon="-8.5012717"><ele>150.0</ele><time>2026-04-26T15:24:59.392Z</time></trkpt><trkpt lat="32.8265117" lon="-8.5011067"><ele>150.75</ele><time>2026-04-26T15:25:00.392Z</time></trkpt><trkpt lat="32.8265533" lon="-8.5009417"><ele>151.5</ele><time>2026-04-26T15:25:01.392Z</time></trkpt><trkpt lat="32.8266" lon="-8.500775"><ele>152.25</ele><time>2026-04-26T15:25:02.392Z</time></trkpt><trkpt lat="32.8266467" lon="-8.5006067"><ele>153.0</ele><time>2026-04-26T15:25:03.392Z</time></trkpt><trkpt lat="32.8266867" lon="-8.50044"><ele>153.0</ele><time>2026-04-26T15:25:04.392Z</time></trkpt><trkpt lat="32.826735" lon="-8.5002733"><ele>153.0</ele><time>2026-04-26T15:25:05.392Z</time></trkpt><trkpt lat="32.826775" lon="-8.50011"><ele>153.0</ele><time>2026-04-26T15:25:06.392Z</time></trkpt><trkpt lat="32.8268133" lon="-8.4999533"><ele>153.0</ele><time>2026-04-26T15:25:07.392Z</time></trkpt><trkpt lat="32.8268533" lon="-8.499805"><ele>153.0</ele><time>2026-04-26T15:25:08.392Z</time></trkpt><trkpt lat="32.8268883" lon="-8.49966"><ele>153.0</ele><time>2026-04-26T15:25:09.392Z</time></trkpt><trkpt lat="32.8269233" lon="-8.4995167"><ele>153.0</ele><time>2026-04-26T15:25:10.392Z</time></trkpt><trkpt lat="32.826965" lon="-8.4993717"><ele>153.0</ele><time>2026-04-26T15:25:11.392Z</time></trkpt><trkpt lat="32.8270017" lon="-8.49923"><ele>152.75</ele><time>2026-04-26T15:25:12.392Z</time></trkpt><trkpt lat="32.8270367" lon="-8.4990817"><ele>152.5</ele><time>2026-04-26T15:25:13.392Z</time></trkpt><trkpt lat="32.8270783" lon="-8.4989317"><ele>152.25</ele><time>2026-04-26T15:25:14.392Z</time></trkpt><trkpt lat="32.8271217" lon="-8.4987783"><ele>152.0</ele><time>2026-04-26T15:25:15.392Z</time></trkpt><trkpt lat="32.82716" lon="-8.4986233"><ele>152.0</ele><time>2026-04-26T15:25:16.393Z</time></trkpt><trkpt lat="32.8272067" lon="-8.4984717"><ele>152.0</ele><time>2026-04-26T15:25:17.392Z</time></trkpt><trkpt lat="32.8272517" lon="-8.4983117"><ele>152.0</ele><time>2026-04-26T15:25:18.392Z</time></trkpt><trkpt lat="32.8272967" lon="-8.4981433"><ele>152.0</ele><time>2026-04-26T15:25:19.393Z</time></trkpt><trkpt lat="32.8273417" lon="-8.4979783"><ele>152.0</ele><time>2026-04-26T15:25:20.392Z</time></trkpt><trkpt lat="32.8273833" lon="-8.4978033"><ele>152.0</ele><time>2026-04-26T15:25:21.392Z</time></trkpt><trkpt lat="32.82743" lon="-8.4976333"><ele>152.0</ele><time>2026-04-26T15:25:22.392Z</time></trkpt><trkpt lat="32.8274767" lon="-8.4974583"><ele>152.0</ele><time>2026-04-26T15:25:23.392Z</time></trkpt><trkpt lat="32.8275217" lon="-8.4972817"><ele>152.0</ele><time>2026-04-26T15:25:24.392Z</time></trkpt><trkpt lat="32.82757" lon="-8.497105"><ele>152.0</ele><time>2026-04-26T15:25:25.392Z</time></trkpt><trkpt lat="32.8276167" lon="-8.4969333"><ele>152.5</ele><time>2026-04-26T15:25:26.392Z</time></trkpt><trkpt lat="32.82766" lon="-8.496765"><ele>153.0</ele><time>2026-04-26T15:25:27.393Z</time></trkpt><trkpt lat="32.8277017" lon="-8.49661"><ele>153.5</ele><time>2026-04-26T15:25:28.392Z</time></trkpt><trkpt lat="32.8277417" lon="-8.4964617"><ele>154.0</ele><time>2026-04-26T15:25:29.392Z</time></trkpt><trkpt lat="32.8277833" lon="-8.496315"><ele>154.0</ele><time>2026-04-26T15:25:30.392Z</time></trkpt><trkpt lat="32.82783" lon="-8.4961617"><ele>154.0</ele><time>2026-04-26T15:25:31.393Z</time></trkpt><trkpt lat="32.827865" lon="-8.4960067"><ele>154.0</ele><time>2026-04-26T15:25:32.392Z</time></trkpt><trkpt lat="32.8278983" lon="-8.4958467"><ele>154.0</ele><time>2026-04-26T15:25:33.392Z</time></trkpt><trkpt lat="32.82793" lon="-8.495685"><ele>154.0</ele><time>2026-04-26T15:25:34.392Z</time></trkpt><trkpt lat="32.8279717" lon="-8.4955267"><ele>154.0</ele><time>2026-04-26T15:25:35.392Z</time></trkpt><trkpt lat="32.8280117" lon="-8.4953767"><ele>154.0</ele><time>2026-04-26T15:25:36.392Z</time></trkpt><trkpt lat="32.8280533" lon="-8.4952233"><ele>154.0</ele><time>2026-04-26T15:25:37.392Z</time></trkpt><trkpt lat="32.8280933" lon="-8.4950767"><ele>153.75</ele><time>2026-04-26T15:25:38.392Z</time></trkpt><trkpt lat="32.8281333" lon="-8.4949233"><ele>153.5</ele><time>2026-04-26T15:25:39.392Z</time></trkpt><trkpt lat="32.82817" lon="-8.4947767"><ele>153.25</ele><time>2026-04-26T15:25:40.392Z</time></trkpt><trkpt lat="32.8282133" lon="-8.4946233"><ele>153.0</ele><time>2026-04-26T15:25:41.392Z</time></trkpt><trkpt lat="32.828255" lon="-8.4944733"><ele>152.75</ele><time>2026-04-26T15:25:42.392Z</time></trkpt><trkpt lat="32.8282917" lon="-8.4943117"><ele>152.5</ele><time>2026-04-26T15:25:43.392Z</time></trkpt><trkpt lat="32.8283417" lon="-8.49415"><ele>152.25</ele><time>2026-04-26T15:25:44.392Z</time></trkpt><trkpt lat="32.8283783" lon="-8.4939933"><ele>152.0</ele><time>2026-04-26T15:25:45.392Z</time></trkpt><trkpt lat="32.8284117" lon="-8.493845"><ele>151.75</ele><time>2026-04-26T15:25:46.392Z</time></trkpt><trkpt lat="32.8284467" lon="-8.4937033"><ele>151.5</ele><time>2026-04-26T15:25:47.392Z</time></trkpt><trkpt lat="32.8284883" lon="-8.4935567"><ele>151.25</ele><time>2026-04-26T15:25:48.392Z</time></trkpt><trkpt lat="32.82853" lon="-8.493405"><ele>151.0</ele><time>2026-04-26T15:25:49.392Z</time></trkpt><trkpt lat="32.8285733" lon="-8.4932483"><ele>151.0</ele><time>2026-04-26T15:25:50.392Z</time></trkpt><trkpt lat="32.8286133" lon="-8.4930933"><ele>151.0</ele><time>2026-04-26T15:25:51.392Z</time></trkpt><trkpt lat="32.82866" lon="-8.4929367"><ele>151.0</ele><time>2026-04-26T15:25:52.392Z</time></trkpt><trkpt lat="32.828705" lon="-8.492775"><ele>151.0</ele><time>2026-04-26T15:25:53.392Z</time></trkpt><trkpt lat="32.828755" lon="-8.4926133"><ele>151.0</ele><time>2026-04-26T15:25:54.392Z</time></trkpt><trkpt lat="32.8288083" lon="-8.4924567"><ele>151.0</ele><time>2026-04-26T15:25:55.392Z</time></trkpt><trkpt lat="32.8288633" lon="-8.492295"><ele>151.0</ele><time>2026-04-26T15:25:56.392Z</time></trkpt><trkpt lat="32.8289167" lon="-8.4921383"><ele>151.0</ele><time>2026-04-26T15:25:57.392Z</time></trkpt><trkpt lat="32.8289767" lon="-8.49198"><ele>150.66666666666669</ele><time>2026-04-26T15:25:58.392Z</time></trkpt><trkpt lat="32.8290367" lon="-8.4918167"><ele>150.33333333333334</ele><time>2026-04-26T15:25:59.393Z</time></trkpt><trkpt lat="32.8291017" lon="-8.491655"><ele>150.0</ele><time>2026-04-26T15:26:00.392Z</time></trkpt><trkpt lat="32.829165" lon="-8.4914883"><ele>150.0</ele><time>2026-04-26T15:26:01.392Z</time></trkpt><trkpt lat="32.8292333" lon="-8.4913217"><ele>150.0</ele><time>2026-04-26T15:26:02.392Z</time></trkpt><trkpt lat="32.8292967" lon="-8.4911583"><ele>150.0</ele><time>2026-04-26T15:26:03.392Z</time></trkpt><trkpt lat="32.8293667" lon="-8.4909917"><ele>150.33333333333334</ele><time>2026-04-26T15:26:04.392Z</time></trkpt><trkpt lat="32.82944" lon="-8.490825"><ele>150.66666666666669</ele><time>2026-04-26T15:26:05.392Z</time></trkpt><trkpt lat="32.8295117" lon="-8.490655"><ele>151.0</ele><time>2026-04-26T15:26:06.392Z</time></trkpt><trkpt lat="32.8295867" lon="-8.4904817"><ele>151.0</ele><time>2026-04-26T15:26:07.392Z</time></trkpt><trkpt lat="32.8296633" lon="-8.4902967"><ele>151.0</ele><time>2026-04-26T15:26:08.392Z</time></trkpt><trkpt lat="32.8297417" lon="-8.4901083"><ele>151.0</ele><time>2026-04-26T15:26:09.393Z</time></trkpt><trkpt lat="32.82982" lon="-8.4899183"><ele>151.0</ele><time>2026-04-26T15:26:10.392Z</time></trkpt><trkpt lat="32.82989" lon="-8.4897433"><ele>151.0</ele><time>2026-04-26T15:26:11.392Z</time></trkpt><trkpt lat="32.829955" lon="-8.4895717"><ele>151.0</ele><time>2026-04-26T15:26:12.392Z</time></trkpt><trkpt lat="32.8300267" lon="-8.4894067"><ele>150.33333333333334</ele><time>2026-04-26T15:26:13.393Z</time></trkpt><trkpt lat="32.8300917" lon="-8.4892467"><ele>149.66666666666666</ele><time>2026-04-26T15:26:14.392Z</time></trkpt><trkpt lat="32.8301567" lon="-8.4890833"><ele>149.0</ele><time>2026-04-26T15:26:15.392Z</time></trkpt><trkpt lat="32.8302267" lon="-8.4889217"><ele>150.0</ele><time>2026-04-26T15:26:16.393Z</time></trkpt><trkpt lat="32.8302917" lon="-8.488755"><ele>151.0</ele><time>2026-04-26T15:26:17.392Z</time></trkpt><trkpt lat="32.8303583" lon="-8.4885917"><ele>152.0</ele><time>2026-04-26T15:26:18.392Z</time></trkpt><trkpt lat="32.8304283" lon="-8.4884233"><ele>152.0</ele><time>2026-04-26T15:26:19.392Z</time></trkpt><trkpt lat="32.8305033" lon="-8.4882517"><ele>152.0</ele><time>2026-04-26T15:26:20.392Z</time></trkpt><trkpt lat="32.8305733" lon="-8.4880817"><ele>152.0</ele><time>2026-04-26T15:26:21.392Z</time></trkpt><trkpt lat="32.830645" lon="-8.487915"><ele>151.66666666666666</ele><time>2026-04-26T15:26:22.392Z</time></trkpt><trkpt lat="32.830715" lon="-8.4877417"><ele>151.33333333333334</ele><time>2026-04-26T15:26:23.392Z</time></trkpt><trkpt lat="32.8307867" lon="-8.4875667"><ele>151.0</ele><time>2026-04-26T15:26:24.392Z</time></trkpt><trkpt lat="32.8308583" lon="-8.4873983"><ele>151.0</ele><time>2026-04-26T15:26:25.392Z</time></trkpt><trkpt lat="32.8309317" lon="-8.4872267"><ele>151.0</ele><time>2026-04-26T15:26:26.392Z</time></trkpt><trkpt lat="32.83101" lon="-8.4870533"><ele>151.0</ele><time>2026-04-26T15:26:27.392Z</time></trkpt><trkpt lat="32.8310883" lon="-8.4868717"><ele>149.66666666666669</ele><time>2026-04-26T15:26:28.392Z</time></trkpt><trkpt lat="32.8311683" lon="-8.4866867"><ele>148.33333333333334</ele><time>2026-04-26T15:26:29.392Z</time></trkpt><trkpt lat="32.8312433" lon="-8.486495"><ele>147.0</ele><time>2026-04-26T15:26:30.392Z</time></trkpt><trkpt lat="32.8313217" lon="-8.4863033"><ele>146.66666666666666</ele><time>2026-04-26T15:26:31.392Z</time></trkpt><trkpt lat="32.8314017" lon="-8.4861167"><ele>146.33333333333331</ele><time>2026-04-26T15:26:32.393Z</time></trkpt><trkpt lat="32.8314717" lon="-8.4859333"><ele>146.0</ele><time>2026-04-26T15:26:33.392Z</time></trkpt><trkpt lat="32.8315367" lon="-8.4857617"><ele>146.0</ele><time>2026-04-26T15:26:34.392Z</time></trkpt><trkpt lat="32.8316067" lon="-8.485595"><ele>146.0</ele><time>2026-04-26T15:26:35.392Z</time></trkpt><trkpt lat="32.8316783" lon="-8.485425"><ele>146.0</ele><time>2026-04-26T15:26:36.392Z</time></trkpt><trkpt lat="32.8317533" lon="-8.4852483"><ele>146.33333333333331</ele><time>2026-04-26T15:26:37.392Z</time></trkpt><trkpt lat="32.8318283" lon="-8.48507"><ele>146.66666666666666</ele><time>2026-04-26T15:26:38.392Z</time></trkpt><trkpt lat="32.8319067" lon="-8.48489"><ele>147.0</ele><time>2026-04-26T15:26:39.392Z</time></trkpt><trkpt lat="32.8319733" lon="-8.4847183"><ele>147.33333333333334</ele><time>2026-04-26T15:26:40.393Z</time></trkpt><trkpt lat="32.8320433" lon="-8.484555"><ele>147.66666666666669</ele><time>2026-04-26T15:26:41.392Z</time></trkpt><trkpt lat="32.832105" lon="-8.4843933"><ele>148.0</ele><time>2026-04-26T15:26:42.392Z</time></trkpt><trkpt lat="32.8321733" lon="-8.4842333"><ele>148.0</ele><time>2026-04-26T15:26:43.392Z</time></trkpt><trkpt lat="32.8322417" lon="-8.4840667"><ele>148.0</ele><time>2026-04-26T15:26:44.392Z</time></trkpt><trkpt lat="32.832305" lon="-8.4838967"><ele>148.0</ele><time>2026-04-26T15:26:45.392Z</time></trkpt><trkpt lat="32.8323783" lon="-8.4837283"><ele>148.66666666666669</ele><time>2026-04-26T15:26:46.392Z</time></trkpt><trkpt lat="32.8324517" lon="-8.4835567"><ele>149.33333333333334</ele><time>2026-04-26T15:26:47.392Z</time></trkpt><trkpt lat="32.8325217" lon="-8.483385"><ele>150.0</ele><time>2026-04-26T15:26:48.392Z</time></trkpt><trkpt lat="32.83259" lon="-8.48322"><ele>150.0</ele><time>2026-04-26T15:26:49.392Z</time></trkpt><trkpt lat="32.83266" lon="-8.4830467"><ele>150.0</ele><time>2026-04-26T15:26:50.392Z</time></trkpt><trkpt lat="32.8327317" lon="-8.4828667"><ele>150.0</ele><time>2026-04-26T15:26:51.392Z</time></trkpt><trkpt lat="32.8328033" lon="-8.4826917"><ele>150.0</ele><time>2026-04-26T15:26:52.392Z</time></trkpt><trkpt lat="32.83287" lon="-8.48252"><ele>150.0</ele><time>2026-04-26T15:26:53.392Z</time></trkpt><trkpt lat="32.832935" lon="-8.482355"><ele>150.0</ele><time>2026-04-26T15:26:54.392Z</time></trkpt><trkpt lat="32.8329983" lon="-8.4822033"><ele>150.5</ele><time>2026-04-26T15:26:55.392Z</time></trkpt><trkpt lat="32.8330617" lon="-8.4820483"><ele>151.0</ele><time>2026-04-26T15:26:56.392Z</time></trkpt><trkpt lat="32.8331267" lon="-8.4818917"><ele>151.5</ele><time>2026-04-26T15:26:57.392Z</time></trkpt><trkpt lat="32.8331967" lon="-8.4817267"><ele>152.0</ele><time>2026-04-26T15:26:58.392Z</time></trkpt><trkpt lat="32.833265" lon="-8.4815583"><ele>152.0</ele><time>2026-04-26T15:26:59.392Z</time></trkpt><trkpt lat="32.8333383" lon="-8.481385"><ele>152.0</ele><time>2026-04-26T15:27:00.392Z</time></trkpt><trkpt lat="32.8334117" lon="-8.48121"><ele>152.0</ele><time>2026-04-26T15:27:01.392Z</time></trkpt><trkpt lat="32.8334867" lon="-8.4810283"><ele>151.33333333333331</ele><time>2026-04-26T15:27:02.392Z</time></trkpt><trkpt lat="32.8335633" lon="-8.48084"><ele>150.66666666666666</ele><time>2026-04-26T15:27:03.392Z</time></trkpt><trkpt lat="32.8336367" lon="-8.4806533"><ele>150.0</ele><time>2026-04-26T15:27:04.392Z</time></trkpt><trkpt lat="32.8337217" lon="-8.48047"><ele>148.66666666666666</ele><time>2026-04-26T15:27:05.392Z</time></trkpt><trkpt lat="32.8337933" lon="-8.4802883"><ele>147.33333333333331</ele><time>2026-04-26T15:27:06.392Z</time></trkpt><trkpt lat="32.833865" lon="-8.4801167"><ele>146.0</ele><time>2026-04-26T15:27:07.392Z</time></trkpt><trkpt lat="32.8339333" lon="-8.4799483"><ele>146.0</ele><time>2026-04-26T15:27:08.392Z</time></trkpt><trkpt lat="32.8339917" lon="-8.4797933"><ele>146.0</ele><time>2026-04-26T15:27:09.392Z</time></trkpt><trkpt lat="32.83405" lon="-8.4796433"><ele>146.0</ele><time>2026-04-26T15:27:10.393Z</time></trkpt><trkpt lat="32.8341083" lon="-8.4794983"><ele>146.0</ele><time>2026-04-26T15:27:11.392Z</time></trkpt><trkpt lat="32.834175" lon="-8.4793467"><ele>146.5</ele><time>2026-04-26T15:27:12.392Z</time></trkpt><trkpt lat="32.8342333" lon="-8.47919"><ele>147.0</ele><time>2026-04-26T15:27:13.393Z</time></trkpt><trkpt lat="32.8343" lon="-8.4790417"><ele>147.5</ele><time>2026-04-26T15:27:14.392Z</time></trkpt><trkpt lat="32.8343567" lon="-8.4788983"><ele>148.0</ele><time>2026-04-26T15:27:15.392Z</time></trkpt><trkpt lat="32.834405" lon="-8.47878"><ele>147.66666666666669</ele><time>2026-04-26T15:27:16.392Z</time></trkpt><trkpt lat="32.8344383" lon="-8.4786867"><ele>147.33333333333334</ele><time>2026-04-26T15:27:17.392Z</time></trkpt><trkpt lat="32.8344633" lon="-8.4786117"><ele>147.0</ele><time>2026-04-26T15:27:18.392Z</time></trkpt><trkpt lat="32.8344967" lon="-8.47852"><ele>146.66666666666666</ele><time>2026-04-26T15:27:20.392Z</time></trkpt><trkpt lat="32.8345283" lon="-8.4784467"><ele>146.33333333333331</ele><time>2026-04-26T15:27:22.392Z</time></trkpt><trkpt lat="32.83456" lon="-8.47836"><ele>146.0</ele><time>2026-04-26T15:27:25.392Z</time></trkpt><trkpt lat="32.8346083" lon="-8.4782683"><ele>146.0</ele><time>2026-04-26T15:27:55.392Z</time></trkpt><trkpt lat="32.834645" lon="-8.4781917"><ele>146.0</ele><time>2026-04-26T15:27:56.392Z</time></trkpt><trkpt lat="32.8346833" lon="-8.478105"><ele>146.0</ele><time>2026-04-26T15:27:57.392Z</time></trkpt><trkpt lat="32.83472" lon="-8.4780167"><ele>146.0</ele><time>2026-04-26T15:27:58.392Z</time></trkpt><trkpt lat="32.834765" lon="-8.477925"><ele>146.0</ele><time>2026-04-26T15:27:59.392Z</time></trkpt><trkpt lat="32.834815" lon="-8.4778217"><ele>146.0</ele><time>2026-04-26T15:28:00.392Z</time></trkpt><trkpt lat="32.8348633" lon="-8.47771"><ele>145.2</ele><time>2026-04-26T15:28:01.392Z</time></trkpt><trkpt lat="32.8349183" lon="-8.4775967"><ele>144.39999999999998</ele><time>2026-04-26T15:28:02.392Z</time></trkpt><trkpt lat="32.8349733" lon="-8.4774833"><ele>143.6</ele><time>2026-04-26T15:28:03.392Z</time></trkpt><trkpt lat="32.8350183" lon="-8.4773767"><ele>142.79999999999998</ele><time>2026-04-26T15:28:04.392Z</time></trkpt><trkpt lat="32.83507" lon="-8.4772467"><ele>142.0</ele><time>2026-04-26T15:28:05.392Z</time></trkpt><trkpt lat="32.835135" lon="-8.47711"><ele>141.25</ele><time>2026-04-26T15:28:06.392Z</time></trkpt><trkpt lat="32.8352" lon="-8.4769667"><ele>140.5</ele><time>2026-04-26T15:28:07.392Z</time></trkpt><trkpt lat="32.8352633" lon="-8.4768283"><ele>139.75</ele><time>2026-04-26T15:28:08.392Z</time></trkpt><trkpt lat="32.8353233" lon="-8.4767"><ele>139.0</ele><time>2026-04-26T15:28:09.392Z</time></trkpt><trkpt lat="32.83538" lon="-8.4765767"><ele>139.0</ele><time>2026-04-26T15:28:10.392Z</time></trkpt><trkpt lat="32.835435" lon="-8.4764567"><ele>139.0</ele><time>2026-04-26T15:28:11.393Z</time></trkpt><trkpt lat="32.8355017" lon="-8.4763167"><ele>139.0</ele><time>2026-04-26T15:28:12.393Z</time></trkpt><trkpt lat="32.83559" lon="-8.476165"><ele>139.0</ele><time>2026-04-26T15:28:13.392Z</time></trkpt><trkpt lat="32.835665" lon="-8.4759883"><ele>139.0</ele><time>2026-04-26T15:28:14.392Z</time></trkpt><trkpt lat="32.8357433" lon="-8.4758067"><ele>139.0</ele><time>2026-04-26T15:28:15.392Z</time></trkpt><trkpt lat="32.8358283" lon="-8.475605"><ele>139.0</ele><time>2026-04-26T15:28:16.392Z</time></trkpt><trkpt lat="32.83592" lon="-8.4753883"><ele>138.66666666666669</ele><time>2026-04-26T15:28:17.392Z</time></trkpt><trkpt lat="32.8360167" lon="-8.47516"><ele>138.33333333333334</ele><time>2026-04-26T15:28:18.392Z</time></trkpt><trkpt lat="32.8361183" lon="-8.4749383"><ele>138.0</ele><time>2026-04-26T15:28:19.392Z</time></trkpt><trkpt lat="32.8362083" lon="-8.4747267"><ele>137.66666666666666</ele><time>2026-04-26T15:28:20.392Z</time></trkpt><trkpt lat="32.8362983" lon="-8.4745283"><ele>137.33333333333331</ele><time>2026-04-26T15:28:21.392Z</time></trkpt><trkpt lat="32.8363833" lon="-8.4743317"><ele>137.0</ele><time>2026-04-26T15:28:22.392Z</time></trkpt><trkpt lat="32.836475" lon="-8.4741167"><ele>137.0</ele><time>2026-04-26T15:28:23.392Z</time></trkpt><trkpt lat="32.8365717" lon="-8.4738983"><ele>137.0</ele><time>2026-04-26T15:28:24.392Z</time></trkpt><trkpt lat="32.8366733" lon="-8.4736767"><ele>137.0</ele><time>2026-04-26T15:28:25.392Z</time></trkpt><trkpt lat="32.83678" lon="-8.4734417"><ele>137.33333333333331</ele><time>2026-04-26T15:28:26.392Z</time></trkpt><trkpt lat="32.83689" lon="-8.473205"><ele>137.66666666666666</ele><time>2026-04-26T15:28:27.392Z</time></trkpt><trkpt lat="32.836995" lon="-8.4729733"><ele>138.0</ele><time>2026-04-26T15:28:28.392Z</time></trkpt><trkpt lat="32.8370867" lon="-8.472755"><ele>138.0</ele><time>2026-04-26T15:28:29.392Z</time></trkpt><trkpt lat="32.8371717" lon="-8.4725433"><ele>138.0</ele><time>2026-04-26T15:28:30.392Z</time></trkpt><trkpt lat="32.8372483" lon="-8.47232"><ele>138.0</ele><time>2026-04-26T15:28:31.392Z</time></trkpt><trkpt lat="32.8373267" lon="-8.4720867"><ele>136.66666666666666</ele><time>2026-04-26T15:28:32.392Z</time></trkpt><trkpt lat="32.837385" lon="-8.4718483"><ele>135.33333333333331</ele><time>2026-04-26T15:28:33.392Z</time></trkpt><trkpt lat="32.8374417" lon="-8.4716267"><ele>134.0</ele><time>2026-04-26T15:28:34.392Z</time></trkpt><trkpt lat="32.8374883" lon="-8.4714133"><ele>132.66666666666666</ele><time>2026-04-26T15:28:35.392Z</time></trkpt><trkpt lat="32.8375333" lon="-8.4712067"><ele>131.33333333333334</ele><time>2026-04-26T15:28:36.392Z</time></trkpt><trkpt lat="32.8375733" lon="-8.470995"><ele>130.0</ele><time>2026-04-26T15:28:37.392Z</time></trkpt><trkpt lat="32.8376167" lon="-8.47076"><ele>132.5</ele><time>2026-04-26T15:28:38.391Z</time></trkpt><trkpt lat="32.8376617" lon="-8.4704917"><ele>135.0</ele><time>2026-04-26T15:28:39.391Z</time></trkpt><trkpt lat="32.8377183" lon="-8.4702017"><ele>135.0</ele><time>2026-04-26T15:28:40.391Z</time></trkpt><trkpt lat="32.8377783" lon="-8.4698883"><ele>135.0</ele><time>2026-04-26T15:28:41.391Z</time></trkpt><trkpt lat="32.8378383" lon="-8.469565"><ele>134.5</ele><time>2026-04-26T15:28:42.391Z</time></trkpt><trkpt lat="32.8379017" lon="-8.4692433"><ele>134.0</ele><time>2026-04-26T15:28:43.391Z</time></trkpt><trkpt lat="32.837965" lon="-8.4689483"><ele>132.5</ele><time>2026-04-26T15:28:44.391Z</time></trkpt><trkpt lat="32.8380267" lon="-8.468655"><ele>131.0</ele><time>2026-04-26T15:28:45.391Z</time></trkpt><trkpt lat="32.83809" lon="-8.4683467"><ele>131.0</ele><time>2026-04-26T15:28:46.391Z</time></trkpt><trkpt lat="32.8381483" lon="-8.4680567"><ele>131.0</ele><time>2026-04-26T15:28:47.391Z</time></trkpt><trkpt lat="32.8381983" lon="-8.467785"><ele>130.33333333333331</ele><time>2026-04-26T15:28:48.391Z</time></trkpt><trkpt lat="32.8382533" lon="-8.4675283"><ele>129.66666666666666</ele><time>2026-04-26T15:28:49.391Z</time></trkpt><trkpt lat="32.8383033" lon="-8.4672783"><ele>129.0</ele><time>2026-04-26T15:28:50.391Z</time></trkpt><trkpt lat="32.8383517" lon="-8.4670333"><ele>128.0</ele><time>2026-04-26T15:28:51.391Z</time></trkpt><trkpt lat="32.838405" lon="-8.4668017"><ele>127.0</ele><time>2026-04-26T15:28:52.391Z</time></trkpt><trkpt lat="32.8384583" lon="-8.46658"><ele>126.0</ele><time>2026-04-26T15:28:53.391Z</time></trkpt><trkpt lat="32.8385117" lon="-8.4663583"><ele>126.33333333333334</ele><time>2026-04-26T15:28:54.391Z</time></trkpt><trkpt lat="32.8385717" lon="-8.4661367"><ele>126.66666666666667</ele><time>2026-04-26T15:28:55.391Z</time></trkpt><trkpt lat="32.8386383" lon="-8.4659133"><ele>127.0</ele><time>2026-04-26T15:28:56.391Z</time></trkpt><trkpt lat="32.8387033" lon="-8.465705"><ele>127.0</ele><time>2026-04-26T15:28:57.391Z</time></trkpt><trkpt lat="32.838765" lon="-8.4655067"><ele>127.0</ele><time>2026-04-26T15:28:58.391Z</time></trkpt><trkpt lat="32.8388267" lon="-8.4653083"><ele>127.0</ele><time>2026-04-26T15:28:59.391Z</time></trkpt><trkpt lat="32.838885" lon="-8.4651133"><ele>127.0</ele><time>2026-04-26T15:29:00.392Z</time></trkpt><trkpt lat="32.8389367" lon="-8.4649267"><ele>127.0</ele><time>2026-04-26T15:29:01.391Z</time></trkpt><trkpt lat="32.838995" lon="-8.4647283"><ele>127.0</ele><time>2026-04-26T15:29:02.391Z</time></trkpt><trkpt lat="32.8390583" lon="-8.46453"><ele>126.0</ele><time>2026-04-26T15:29:03.391Z</time></trkpt><trkpt lat="32.8391217" lon="-8.4643317"><ele>125.0</ele><time>2026-04-26T15:29:04.391Z</time></trkpt><trkpt lat="32.8391817" lon="-8.4641333"><ele>124.0</ele><time>2026-04-26T15:29:05.392Z</time></trkpt><trkpt lat="32.8392517" lon="-8.4639333"><ele>123.66666666666667</ele><time>2026-04-26T15:29:06.391Z</time></trkpt><trkpt lat="32.839315" lon="-8.4637367"><ele>123.33333333333334</ele><time>2026-04-26T15:29:07.391Z</time></trkpt><trkpt lat="32.8393833" lon="-8.46354"><ele>123.0</ele><time>2026-04-26T15:29:08.391Z</time></trkpt><trkpt lat="32.8394483" lon="-8.4633383"><ele>123.0</ele><time>2026-04-26T15:29:09.391Z</time></trkpt><trkpt lat="32.839515" lon="-8.4631333"><ele>123.0</ele><time>2026-04-26T15:29:10.391Z</time></trkpt><trkpt lat="32.8395783" lon="-8.462935"><ele>123.0</ele><time>2026-04-26T15:29:11.391Z</time></trkpt><trkpt lat="32.839645" lon="-8.462735"><ele>124.0</ele><time>2026-04-26T15:29:12.391Z</time></trkpt><trkpt lat="32.8397083" lon="-8.4625433"><ele>125.0</ele><time>2026-04-26T15:29:13.391Z</time></trkpt><trkpt lat="32.8397733" lon="-8.4623433"><ele>126.0</ele><time>2026-04-26T15:29:14.391Z</time></trkpt><trkpt lat="32.8398467" lon="-8.4621233"><ele>125.66666666666666</ele><time>2026-04-26T15:29:15.391Z</time></trkpt><trkpt lat="32.8399117" lon="-8.4618967"><ele>125.33333333333333</ele><time>2026-04-26T15:29:16.391Z</time></trkpt><trkpt lat="32.8399717" lon="-8.4616817"><ele>125.0</ele><time>2026-04-26T15:29:17.391Z</time></trkpt><trkpt lat="32.8400167" lon="-8.4614817"><ele>124.66666666666666</ele><time>2026-04-26T15:29:18.391Z</time></trkpt><trkpt lat="32.84006" lon="-8.4612717"><ele>124.33333333333334</ele><time>2026-04-26T15:29:19.391Z</time></trkpt><trkpt lat="32.8401117" lon="-8.4610633"><ele>124.0</ele><time>2026-04-26T15:29:20.391Z</time></trkpt><trkpt lat="32.840175" lon="-8.460845"><ele>124.66666666666667</ele><time>2026-04-26T15:29:21.391Z</time></trkpt><trkpt lat="32.8402217" lon="-8.4606167"><ele>125.33333333333334</ele><time>2026-04-26T15:29:22.391Z</time></trkpt><trkpt lat="32.8402683" lon="-8.46039"><ele>126.0</ele><time>2026-04-26T15:29:23.391Z</time></trkpt><trkpt lat="32.8403167" lon="-8.460155"><ele>126.0</ele><time>2026-04-26T15:29:24.391Z</time></trkpt><trkpt lat="32.8403667" lon="-8.4599217"><ele>126.0</ele><time>2026-04-26T15:29:25.392Z</time></trkpt><trkpt lat="32.8404133" lon="-8.459705"><ele>126.0</ele><time>2026-04-26T15:29:26.391Z</time></trkpt><trkpt lat="32.8404583" lon="-8.4594983"><ele>126.0</ele><time>2026-04-26T15:29:27.391Z</time></trkpt><trkpt lat="32.8405083" lon="-8.4592917"><ele>126.0</ele><time>2026-04-26T15:29:28.391Z</time></trkpt><trkpt lat="32.8405483" lon="-8.4590817"><ele>126.0</ele><time>2026-04-26T15:29:29.391Z</time></trkpt><trkpt lat="32.840595" lon="-8.4588767"><ele>126.33333333333334</ele><time>2026-04-26T15:29:30.391Z</time></trkpt><trkpt lat="32.84065" lon="-8.4586917"><ele>126.66666666666667</ele><time>2026-04-26T15:29:31.391Z</time></trkpt><trkpt lat="32.8407183" lon="-8.4585267"><ele>127.0</ele><time>2026-04-26T15:29:32.392Z</time></trkpt><trkpt lat="32.8407967" lon="-8.458375"><ele>127.0</ele><time>2026-04-26T15:29:33.392Z</time></trkpt><trkpt lat="32.84089" lon="-8.4582233"><ele>127.0</ele><time>2026-04-26T15:29:34.391Z</time></trkpt><trkpt lat="32.8410017" lon="-8.45807"><ele>127.0</ele><time>2026-04-26T15:29:35.391Z</time></trkpt><trkpt lat="32.8411317" lon="-8.4579167"><ele>126.33333333333334</ele><time>2026-04-26T15:29:36.391Z</time></trkpt><trkpt lat="32.8412833" lon="-8.4577633"><ele>125.66666666666666</ele><time>2026-04-26T15:29:37.392Z</time></trkpt><trkpt lat="32.8414433" lon="-8.4576067"><ele>125.0</ele><time>2026-04-26T15:29:38.391Z</time></trkpt><trkpt lat="32.84159" lon="-8.4574467"><ele>125.0</ele><time>2026-04-26T15:29:39.391Z</time></trkpt><trkpt lat="32.8417467" lon="-8.4572833"><ele>125.0</ele><time>2026-04-26T15:29:40.391Z</time></trkpt><trkpt lat="32.8418867" lon="-8.4571383"><ele>125.0</ele><time>2026-04-26T15:29:41.391Z</time></trkpt><trkpt lat="32.8420067" lon="-8.4570083"><ele>125.25</ele><time>2026-04-26T15:29:42.391Z</time></trkpt><trkpt lat="32.8421217" lon="-8.456895"><ele>125.5</ele><time>2026-04-26T15:29:43.391Z</time></trkpt><trkpt lat="32.842225" lon="-8.4567917"><ele>125.75</ele><time>2026-04-26T15:29:44.391Z</time></trkpt><trkpt lat="32.84233" lon="-8.4566917"><ele>126.0</ele><time>2026-04-26T15:29:45.391Z</time></trkpt><trkpt lat="32.8424433" lon="-8.4565883"><ele>126.0</ele><time>2026-04-26T15:29:46.391Z</time></trkpt><trkpt lat="32.8425633" lon="-8.4564783"><ele>126.0</ele><time>2026-04-26T15:29:47.391Z</time></trkpt><trkpt lat="32.842685" lon="-8.4563667"><ele>126.0</ele><time>2026-04-26T15:29:48.391Z</time></trkpt><trkpt lat="32.8427967" lon="-8.456255"><ele>125.5</ele><time>2026-04-26T15:29:49.391Z</time></trkpt><trkpt lat="32.8429083" lon="-8.4561483"><ele>125.0</ele><time>2026-04-26T15:29:50.391Z</time></trkpt><trkpt lat="32.843025" lon="-8.4560367"><ele>124.5</ele><time>2026-04-26T15:29:51.391Z</time></trkpt><trkpt lat="32.8431433" lon="-8.4559217"><ele>124.0</ele><time>2026-04-26T15:29:52.391Z</time></trkpt><trkpt lat="32.8432817" lon="-8.4557967"><ele>124.0</ele><time>2026-04-26T15:29:53.391Z</time></trkpt><trkpt lat="32.8434233" lon="-8.4556683"><ele>124.0</ele><time>2026-04-26T15:29:54.391Z</time></trkpt><trkpt lat="32.8435583" lon="-8.45553"><ele>124.0</ele><time>2026-04-26T15:29:55.391Z</time></trkpt><trkpt lat="32.843705" lon="-8.4553917"><ele>123.66666666666667</ele><time>2026-04-26T15:29:56.391Z</time></trkpt><trkpt lat="32.8438667" lon="-8.4552533"><ele>123.33333333333334</ele><time>2026-04-26T15:29:57.391Z</time></trkpt><trkpt lat="32.8440317" lon="-8.455105"><ele>123.0</ele><time>2026-04-26T15:29:58.391Z</time></trkpt><trkpt lat="32.8441983" lon="-8.4549483"><ele>123.0</ele><time>2026-04-26T15:29:59.391Z</time></trkpt><trkpt lat="32.8443633" lon="-8.454785"><ele>123.0</ele><time>2026-04-26T15:30:00.391Z</time></trkpt><trkpt lat="32.8445167" lon="-8.4546383"><ele>123.0</ele><time>2026-04-26T15:30:01.391Z</time></trkpt><trkpt lat="32.8446633" lon="-8.45449"><ele>123.0</ele><time>2026-04-26T15:30:02.391Z</time></trkpt><trkpt lat="32.8448167" lon="-8.454345"><ele>123.0</ele><time>2026-04-26T15:30:03.391Z</time></trkpt><trkpt lat="32.8449767" lon="-8.4542017"><ele>123.0</ele><time>2026-04-26T15:30:04.391Z</time></trkpt><trkpt lat="32.8451333" lon="-8.45406"><ele>123.33333333333334</ele><time>2026-04-26T15:30:05.391Z</time></trkpt><trkpt lat="32.8452867" lon="-8.4539333"><ele>123.66666666666667</ele><time>2026-04-26T15:30:06.391Z</time></trkpt><trkpt lat="32.8454367" lon="-8.4538167"><ele>124.0</ele><time>2026-04-26T15:30:07.392Z</time></trkpt><trkpt lat="32.8455933" lon="-8.4537"><ele>124.0</ele><time>2026-04-26T15:30:08.391Z</time></trkpt><trkpt lat="32.8457483" lon="-8.4535817"><ele>124.0</ele><time>2026-04-26T15:30:09.391Z</time></trkpt><trkpt lat="32.8458933" lon="-8.453465"><ele>124.0</ele><time>2026-04-26T15:30:10.391Z</time></trkpt><trkpt lat="32.8460367" lon="-8.45335"><ele>123.33333333333334</ele><time>2026-04-26T15:30:11.391Z</time></trkpt><trkpt lat="32.846185" lon="-8.453235"><ele>122.66666666666666</ele><time>2026-04-26T15:30:12.391Z</time></trkpt><trkpt lat="32.8463383" lon="-8.45312"><ele>122.0</ele><time>2026-04-26T15:30:13.391Z</time></trkpt><trkpt lat="32.84649" lon="-8.4530117"><ele>122.33333333333333</ele><time>2026-04-26T15:30:14.391Z</time></trkpt><trkpt lat="32.846635" lon="-8.4529067"><ele>122.66666666666666</ele><time>2026-04-26T15:30:15.391Z</time></trkpt><trkpt lat="32.84678" lon="-8.45281"><ele>123.0</ele><time>2026-04-26T15:30:16.391Z</time></trkpt><trkpt lat="32.8469317" lon="-8.4527133"><ele>123.33333333333334</ele><time>2026-04-26T15:30:17.391Z</time></trkpt><trkpt lat="32.8470883" lon="-8.45261"><ele>123.66666666666667</ele><time>2026-04-26T15:30:18.391Z</time></trkpt><trkpt lat="32.847245" lon="-8.452505"><ele>124.0</ele><time>2026-04-26T15:30:19.391Z</time></trkpt><trkpt lat="32.8474117" lon="-8.4524"><ele>124.0</ele><time>2026-04-26T15:30:20.391Z</time></trkpt><trkpt lat="32.8475717" lon="-8.4522933"><ele>124.0</ele><time>2026-04-26T15:30:21.391Z</time></trkpt><trkpt lat="32.84772" lon="-8.45219"><ele>124.0</ele><time>2026-04-26T15:30:22.391Z</time></trkpt><trkpt lat="32.84787" lon="-8.452085"><ele>123.33333333333334</ele><time>2026-04-26T15:30:23.391Z</time></trkpt><trkpt lat="32.84801" lon="-8.45199"><ele>122.66666666666666</ele><time>2026-04-26T15:30:24.391Z</time></trkpt><trkpt lat="32.84815" lon="-8.4519017"><ele>122.0</ele><time>2026-04-26T15:30:25.391Z</time></trkpt><trkpt lat="32.8482983" lon="-8.4518183"><ele>122.0</ele><time>2026-04-26T15:30:26.391Z</time></trkpt><trkpt lat="32.848455" lon="-8.4517333"><ele>122.0</ele><time>2026-04-26T15:30:27.391Z</time></trkpt><trkpt lat="32.84861" lon="-8.4516417"><ele>122.0</ele><time>2026-04-26T15:30:28.391Z</time></trkpt><trkpt lat="32.8487517" lon="-8.4515517"><ele>122.0</ele><time>2026-04-26T15:30:29.391Z</time></trkpt><trkpt lat="32.8488833" lon="-8.451455"><ele>122.0</ele><time>2026-04-26T15:30:30.391Z</time></trkpt><trkpt lat="32.8490133" lon="-8.4513383"><ele>122.0</ele><time>2026-04-26T15:30:31.391Z</time></trkpt><trkpt lat="32.849125" lon="-8.4511783"><ele>122.0</ele><time>2026-04-26T15:30:32.391Z</time></trkpt><trkpt lat="32.8492283" lon="-8.4509833"><ele>122.0</ele><time>2026-04-26T15:30:33.391Z</time></trkpt><trkpt lat="32.84933" lon="-8.450755"><ele>122.0</ele><time>2026-04-26T15:30:34.391Z</time></trkpt><trkpt lat="32.84943" lon="-8.4505033"><ele>120.5</ele><time>2026-04-26T15:30:35.391Z</time></trkpt><trkpt lat="32.8495383" lon="-8.4502533"><ele>119.0</ele><time>2026-04-26T15:30:36.391Z</time></trkpt><trkpt lat="32.8496383" lon="-8.4500217"><ele>119.0</ele><time>2026-04-26T15:30:37.391Z</time></trkpt><trkpt lat="32.8497317" lon="-8.4497933"><ele>119.0</ele><time>2026-04-26T15:30:38.391Z</time></trkpt><trkpt lat="32.84983" lon="-8.4495617"><ele>119.0</ele><time>2026-04-26T15:30:39.391Z</time></trkpt><trkpt lat="32.8499283" lon="-8.4493267"><ele>120.0</ele><time>2026-04-26T15:30:40.391Z</time></trkpt><trkpt lat="32.8500333" lon="-8.4490767"><ele>121.0</ele><time>2026-04-26T15:30:41.391Z</time></trkpt><trkpt lat="32.8501333" lon="-8.448825"><ele>122.0</ele><time>2026-04-26T15:30:42.391Z</time></trkpt><trkpt lat="32.8502283" lon="-8.448565"><ele>123.0</ele><time>2026-04-26T15:30:43.391Z</time></trkpt><trkpt lat="32.8503333" lon="-8.448305"><ele>123.0</ele><time>2026-04-26T15:30:44.391Z</time></trkpt><trkpt lat="32.8504433" lon="-8.4480383"><ele>123.0</ele><time>2026-04-26T15:30:45.391Z</time></trkpt><trkpt lat="32.850555" lon="-8.44777"><ele>120.5</ele><time>2026-04-26T15:30:46.391Z</time></trkpt><trkpt lat="32.8506633" lon="-8.447495"><ele>118.0</ele><time>2026-04-26T15:30:47.391Z</time></trkpt><trkpt lat="32.8507833" lon="-8.44722"><ele>119.0</ele><time>2026-04-26T15:30:48.391Z</time></trkpt><trkpt lat="32.8509033" lon="-8.4469433"><ele>120.0</ele><time>2026-04-26T15:30:49.392Z</time></trkpt><trkpt lat="32.8510283" lon="-8.44666"><ele>121.0</ele><time>2026-04-26T15:30:50.391Z</time></trkpt><trkpt lat="32.851145" lon="-8.4463783"><ele>122.0</ele><time>2026-04-26T15:30:51.391Z</time></trkpt><trkpt lat="32.8512617" lon="-8.44609"><ele>122.0</ele><time>2026-04-26T15:30:52.392Z</time></trkpt><trkpt lat="32.8513817" lon="-8.4458"><ele>122.0</ele><time>2026-04-26T15:30:53.391Z</time></trkpt><trkpt lat="32.8514967" lon="-8.4455067"><ele>122.0</ele><time>2026-04-26T15:30:54.391Z</time></trkpt><trkpt lat="32.8516167" lon="-8.445215"><ele>122.0</ele><time>2026-04-26T15:30:55.391Z</time></trkpt><trkpt lat="32.8517317" lon="-8.4449217"><ele>120.5</ele><time>2026-04-26T15:30:56.391Z</time></trkpt><trkpt lat="32.8518533" lon="-8.444625"><ele>119.0</ele><time>2026-04-26T15:30:57.391Z</time></trkpt><trkpt lat="32.8519783" lon="-8.4443333"><ele>119.0</ele><time>2026-04-26T15:30:58.391Z</time></trkpt><trkpt lat="32.8520967" lon="-8.444035"><ele>119.0</ele><time>2026-04-26T15:30:59.391Z</time></trkpt><trkpt lat="32.8522117" lon="-8.4437533"><ele>119.0</ele><time>2026-04-26T15:31:00.391Z</time></trkpt><trkpt lat="32.85232" lon="-8.4434867"><ele>119.0</ele><time>2026-04-26T15:31:01.391Z</time></trkpt><trkpt lat="32.8524267" lon="-8.4432333"><ele>119.0</ele><time>2026-04-26T15:31:02.391Z</time></trkpt><trkpt lat="32.8525333" lon="-8.4429667"><ele>119.0</ele><time>2026-04-26T15:31:03.391Z</time></trkpt><trkpt lat="32.8526417" lon="-8.4427017"><ele>119.5</ele><time>2026-04-26T15:31:04.391Z</time></trkpt><trkpt lat="32.8527517" lon="-8.4424367"><ele>120.0</ele><time>2026-04-26T15:31:05.391Z</time></trkpt><trkpt lat="32.85286" lon="-8.4421667"><ele>120.0</ele><time>2026-04-26T15:31:06.391Z</time></trkpt><trkpt lat="32.8529717" lon="-8.4418933"><ele>120.0</ele><time>2026-04-26T15:31:07.391Z</time></trkpt><trkpt lat="32.853085" lon="-8.4416233"><ele>120.0</ele><time>2026-04-26T15:31:08.391Z</time></trkpt><trkpt lat="32.8531967" lon="-8.4413533"><ele>120.0</ele><time>2026-04-26T15:31:09.391Z</time></trkpt><trkpt lat="32.8533083" lon="-8.4410883"><ele>119.5</ele><time>2026-04-26T15:31:10.392Z</time></trkpt><trkpt lat="32.8534233" lon="-8.440825"><ele>119.0</ele><time>2026-04-26T15:31:11.391Z</time></trkpt><trkpt lat="32.853535" lon="-8.4405633"><ele>120.5</ele><time>2026-04-26T15:31:12.391Z</time></trkpt><trkpt lat="32.8536383" lon="-8.4403167"><ele>122.0</ele><time>2026-04-26T15:31:13.391Z</time></trkpt><trkpt lat="32.8537383" lon="-8.4400733"><ele>122.0</ele><time>2026-04-26T15:31:14.391Z</time></trkpt><trkpt lat="32.8538433" lon="-8.439825"><ele>122.0</ele><time>2026-04-26T15:31:15.391Z</time></trkpt><trkpt lat="32.85395" lon="-8.4395733"><ele>122.5</ele><time>2026-04-26T15:31:16.391Z</time></trkpt><trkpt lat="32.85406" lon="-8.43931"><ele>123.0</ele><time>2026-04-26T15:31:17.391Z</time></trkpt><trkpt lat="32.8541683" lon="-8.4390467"><ele>123.0</ele><time>2026-04-26T15:31:18.392Z</time></trkpt><trkpt lat="32.85428" lon="-8.43878"><ele>123.0</ele><time>2026-04-26T15:31:19.391Z</time></trkpt><trkpt lat="32.8543933" lon="-8.4385183"><ele>122.5</ele><time>2026-04-26T15:31:20.391Z</time></trkpt><trkpt lat="32.8545117" lon="-8.4382567"><ele>122.0</ele><time>2026-04-26T15:31:21.391Z</time></trkpt><trkpt lat="32.8546317" lon="-8.4379933"><ele>122.5</ele><time>2026-04-26T15:31:22.391Z</time></trkpt><trkpt lat="32.8547483" lon="-8.4377283"><ele>123.0</ele><time>2026-04-26T15:31:23.391Z</time></trkpt><trkpt lat="32.85487" lon="-8.43746"><ele>123.0</ele><time>2026-04-26T15:31:24.391Z</time></trkpt><trkpt lat="32.8549883" lon="-8.4371933"><ele>123.0</ele><time>2026-04-26T15:31:25.391Z</time></trkpt><trkpt lat="32.85511" lon="-8.43693"><ele>122.5</ele><time>2026-04-26T15:31:26.391Z</time></trkpt><trkpt lat="32.8552283" lon="-8.4366667"><ele>122.0</ele><time>2026-04-26T15:31:27.391Z</time></trkpt><trkpt lat="32.8553533" lon="-8.4364033"><ele>121.5</ele><time>2026-04-26T15:31:28.391Z</time></trkpt><trkpt lat="32.8554717" lon="-8.436135"><ele>121.0</ele><time>2026-04-26T15:31:29.391Z</time></trkpt><trkpt lat="32.8555917" lon="-8.4358583"><ele>121.0</ele><time>2026-04-26T15:31:30.391Z</time></trkpt><trkpt lat="32.8557117" lon="-8.4355833"><ele>121.0</ele><time>2026-04-26T15:31:31.391Z</time></trkpt><trkpt lat="32.8558333" lon="-8.4353133"><ele>122.0</ele><time>2026-04-26T15:31:32.391Z</time></trkpt><trkpt lat="32.8559483" lon="-8.4350433"><ele>123.0</ele><time>2026-04-26T15:31:33.391Z</time></trkpt><trkpt lat="32.8560583" lon="-8.4347667"><ele>124.0</ele><time>2026-04-26T15:31:34.391Z</time></trkpt><trkpt lat="32.856165" lon="-8.4344917"><ele>125.0</ele><time>2026-04-26T15:31:35.391Z</time></trkpt><trkpt lat="32.8562767" lon="-8.4342183"><ele>125.0</ele><time>2026-04-26T15:31:36.391Z</time></trkpt><trkpt lat="32.8563917" lon="-8.4339417"><ele>125.0</ele><time>2026-04-26T15:31:37.391Z</time></trkpt><trkpt lat="32.856505" lon="-8.433665"><ele>125.5</ele><time>2026-04-26T15:31:38.391Z</time></trkpt><trkpt lat="32.8566217" lon="-8.4333917"><ele>126.0</ele><time>2026-04-26T15:31:39.391Z</time></trkpt><trkpt lat="32.8567367" lon="-8.4331167"><ele>128.0</ele><time>2026-04-26T15:31:40.391Z</time></trkpt><trkpt lat="32.85685" lon="-8.4328383"><ele>130.0</ele><time>2026-04-26T15:31:41.391Z</time></trkpt><trkpt lat="32.8569667" lon="-8.43256"><ele>130.0</ele><time>2026-04-26T15:31:42.391Z</time></trkpt><trkpt lat="32.8570833" lon="-8.43228"><ele>130.0</ele><time>2026-04-26T15:31:43.391Z</time></trkpt><trkpt lat="32.857195" lon="-8.4320017"><ele>129.5</ele><time>2026-04-26T15:31:44.391Z</time></trkpt><trkpt lat="32.8573117" lon="-8.4317183"><ele>129.0</ele><time>2026-04-26T15:31:45.392Z</time></trkpt><trkpt lat="32.8574367" lon="-8.431435"><ele>128.5</ele><time>2026-04-26T15:31:46.391Z</time></trkpt><trkpt lat="32.85756" lon="-8.4311483"><ele>128.0</ele><time>2026-04-26T15:31:47.391Z</time></trkpt><trkpt lat="32.8576733" lon="-8.430865"><ele>129.0</ele><time>2026-04-26T15:31:48.391Z</time></trkpt><trkpt lat="32.8577933" lon="-8.430575"><ele>130.0</ele><time>2026-04-26T15:31:49.391Z</time></trkpt><trkpt lat="32.857915" lon="-8.4302883"><ele>131.0</ele><time>2026-04-26T15:31:50.391Z</time></trkpt><trkpt lat="32.858035" lon="-8.4299967"><ele>132.0</ele><time>2026-04-26T15:31:51.391Z</time></trkpt><trkpt lat="32.858155" lon="-8.42971"><ele>131.0</ele><time>2026-04-26T15:31:52.391Z</time></trkpt><trkpt lat="32.8582767" lon="-8.4294183"><ele>130.0</ele><time>2026-04-26T15:31:53.391Z</time></trkpt><trkpt lat="32.8583967" lon="-8.4291283"><ele>130.5</ele><time>2026-04-26T15:31:54.391Z</time></trkpt><trkpt lat="32.8585167" lon="-8.4288417"><ele>131.0</ele><time>2026-04-26T15:31:55.391Z</time></trkpt><trkpt lat="32.8586267" lon="-8.42857"><ele>131.0</ele><time>2026-04-26T15:31:56.391Z</time></trkpt><trkpt lat="32.85873" lon="-8.4283183"><ele>131.0</ele><time>2026-04-26T15:31:57.391Z</time></trkpt><trkpt lat="32.85883" lon="-8.42808"><ele>131.33333333333331</ele><time>2026-04-26T15:31:58.391Z</time></trkpt><trkpt lat="32.8589333" lon="-8.4278433"><ele>131.66666666666666</ele><time>2026-04-26T15:31:59.391Z</time></trkpt><trkpt lat="32.8590283" lon="-8.4276167"><ele>132.0</ele><time>2026-04-26T15:32:00.391Z</time></trkpt><trkpt lat="32.8591183" lon="-8.4274"><ele>132.0</ele><time>2026-04-26T15:32:01.391Z</time></trkpt><trkpt lat="32.8592067" lon="-8.42718"><ele>132.0</ele><time>2026-04-26T15:32:02.391Z</time></trkpt><trkpt lat="32.8592983" lon="-8.4269517"><ele>132.0</ele><time>2026-04-26T15:32:03.391Z</time></trkpt><trkpt lat="32.85939" lon="-8.4267167"><ele>134.0</ele><time>2026-04-26T15:32:04.391Z</time></trkpt><trkpt lat="32.8594883" lon="-8.4264767"><ele>136.0</ele><time>2026-04-26T15:32:05.391Z</time></trkpt><trkpt lat="32.8595867" lon="-8.4262417"><ele>138.0</ele><time>2026-04-26T15:32:06.391Z</time></trkpt><trkpt lat="32.85968" lon="-8.4260117"><ele>138.33333333333334</ele><time>2026-04-26T15:32:07.391Z</time></trkpt><trkpt lat="32.8597717" lon="-8.42578"><ele>138.66666666666669</ele><time>2026-04-26T15:32:08.391Z</time></trkpt><trkpt lat="32.85986" lon="-8.42555"><ele>139.0</ele><time>2026-04-26T15:32:09.391Z</time></trkpt><trkpt lat="32.8599533" lon="-8.4253267"><ele>137.5</ele><time>2026-04-26T15:32:10.391Z</time></trkpt><trkpt lat="32.86005" lon="-8.4250883"><ele>136.0</ele><time>2026-04-26T15:32:11.391Z</time></trkpt><trkpt lat="32.860155" lon="-8.4248467"><ele>136.0</ele><time>2026-04-26T15:32:12.391Z</time></trkpt><trkpt lat="32.8602567" lon="-8.4245983"><ele>136.0</ele><time>2026-04-26T15:32:13.391Z</time></trkpt><trkpt lat="32.8603667" lon="-8.4243467"><ele>136.0</ele><time>2026-04-26T15:32:14.391Z</time></trkpt><trkpt lat="32.8604767" lon="-8.42409"><ele>136.0</ele><time>2026-04-26T15:32:15.391Z</time></trkpt><trkpt lat="32.860585" lon="-8.4238333"><ele>137.0</ele><time>2026-04-26T15:32:16.391Z</time></trkpt><trkpt lat="32.86069" lon="-8.4235817"><ele>138.0</ele><time>2026-04-26T15:32:17.391Z</time></trkpt><trkpt lat="32.8607883" lon="-8.4233433"><ele>138.0</ele><time>2026-04-26T15:32:18.392Z</time></trkpt><trkpt lat="32.86088" lon="-8.4231233"><ele>138.0</ele><time>2026-04-26T15:32:19.391Z</time></trkpt><trkpt lat="32.86097" lon="-8.4229183"><ele>138.0</ele><time>2026-04-26T15:32:20.391Z</time></trkpt><trkpt lat="32.8610517" lon="-8.4227233"><ele>139.0</ele><time>2026-04-26T15:32:21.391Z</time></trkpt><trkpt lat="32.8611317" lon="-8.4225367"><ele>140.0</ele><time>2026-04-26T15:32:22.391Z</time></trkpt><trkpt lat="32.8612083" lon="-8.4223483"><ele>141.0</ele><time>2026-04-26T15:32:23.391Z</time></trkpt><trkpt lat="32.8612817" lon="-8.4221683"><ele>141.66666666666666</ele><time>2026-04-26T15:32:24.391Z</time></trkpt><trkpt lat="32.86135" lon="-8.4219983"><ele>142.33333333333331</ele><time>2026-04-26T15:32:25.391Z</time></trkpt><trkpt lat="32.8614167" lon="-8.42182"><ele>143.0</ele><time>2026-04-26T15:32:26.391Z</time></trkpt><trkpt lat="32.861485" lon="-8.4216433"><ele>143.0</ele><time>2026-04-26T15:32:27.391Z</time></trkpt><trkpt lat="32.8615533" lon="-8.4214717"><ele>143.0</ele><time>2026-04-26T15:32:28.391Z</time></trkpt><trkpt lat="32.86162" lon="-8.4213033"><ele>143.0</ele><time>2026-04-26T15:32:29.391Z</time></trkpt><trkpt lat="32.8616867" lon="-8.4211317"><ele>143.0</ele><time>2026-04-26T15:32:30.391Z</time></trkpt><trkpt lat="32.861755" lon="-8.42096"><ele>143.0</ele><time>2026-04-26T15:32:31.391Z</time></trkpt><trkpt lat="32.8618233" lon="-8.42079"><ele>143.0</ele><time>2026-04-26T15:32:32.391Z</time></trkpt><trkpt lat="32.861895" lon="-8.42062"><ele>143.33333333333331</ele><time>2026-04-26T15:32:33.391Z</time></trkpt><trkpt lat="32.861965" lon="-8.420445"><ele>143.66666666666666</ele><time>2026-04-26T15:32:34.391Z</time></trkpt><trkpt lat="32.862035" lon="-8.42027"><ele>144.0</ele><time>2026-04-26T15:32:35.391Z</time></trkpt><trkpt lat="32.8621" lon="-8.4200967"><ele>144.0</ele><time>2026-04-26T15:32:36.391Z</time></trkpt><trkpt lat="32.86216" lon="-8.4199283"><ele>144.0</ele><time>2026-04-26T15:32:37.392Z</time></trkpt><trkpt lat="32.8622167" lon="-8.419765"><ele>144.0</ele><time>2026-04-26T15:32:38.392Z</time></trkpt><trkpt lat="32.8622667" lon="-8.4195967"><ele>144.0</ele><time>2026-04-26T15:32:39.391Z</time></trkpt><trkpt lat="32.8623167" lon="-8.41943"><ele>144.0</ele><time>2026-04-26T15:32:40.391Z</time></trkpt><trkpt lat="32.862365" lon="-8.41926"><ele>144.0</ele><time>2026-04-26T15:32:41.391Z</time></trkpt><trkpt lat="32.862415" lon="-8.4190883"><ele>144.0</ele><time>2026-04-26T15:32:42.392Z</time></trkpt><trkpt lat="32.8624633" lon="-8.4189067"><ele>144.0</ele><time>2026-04-26T15:32:43.391Z</time></trkpt><trkpt lat="32.8625167" lon="-8.418725"><ele>144.0</ele><time>2026-04-26T15:32:44.391Z</time></trkpt><trkpt lat="32.86257" lon="-8.418545"><ele>144.0</ele><time>2026-04-26T15:32:45.391Z</time></trkpt><trkpt lat="32.8626217" lon="-8.4183583"><ele>144.0</ele><time>2026-04-26T15:32:46.391Z</time></trkpt><trkpt lat="32.8626733" lon="-8.4181717"><ele>144.0</ele><time>2026-04-26T15:32:47.391Z</time></trkpt><trkpt lat="32.862725" lon="-8.4179867"><ele>144.66666666666666</ele><time>2026-04-26T15:32:48.391Z</time></trkpt><trkpt lat="32.862785" lon="-8.4178033"><ele>145.33333333333331</ele><time>2026-04-26T15:32:49.391Z</time></trkpt><trkpt lat="32.8628467" lon="-8.41762"><ele>146.0</ele><time>2026-04-26T15:32:50.391Z</time></trkpt><trkpt lat="32.8629217" lon="-8.4174383"><ele>146.0</ele><time>2026-04-26T15:32:51.391Z</time></trkpt><trkpt lat="32.8630067" lon="-8.4172567"><ele>146.0</ele><time>2026-04-26T15:32:52.391Z</time></trkpt><trkpt lat="32.8631067" lon="-8.4170733"><ele>146.0</ele><time>2026-04-26T15:32:53.391Z</time></trkpt><trkpt lat="32.86322" lon="-8.4168933"><ele>146.0</ele><time>2026-04-26T15:32:54.391Z</time></trkpt><trkpt lat="32.863335" lon="-8.4167067"><ele>146.0</ele><time>2026-04-26T15:32:55.391Z</time></trkpt><trkpt lat="32.8634483" lon="-8.4165217"><ele>146.0</ele><time>2026-04-26T15:32:56.391Z</time></trkpt><trkpt lat="32.8635683" lon="-8.41633"><ele>145.66666666666666</ele><time>2026-04-26T15:32:57.391Z</time></trkpt><trkpt lat="32.8636867" lon="-8.4161383"><ele>145.33333333333334</ele><time>2026-04-26T15:32:58.391Z</time></trkpt><trkpt lat="32.8638" lon="-8.4159517"><ele>145.0</ele><time>2026-04-26T15:32:59.391Z</time></trkpt><trkpt lat="32.86391" lon="-8.4157733"><ele>145.0</ele><time>2026-04-26T15:33:00.391Z</time></trkpt><trkpt lat="32.8640167" lon="-8.415605"><ele>145.0</ele><time>2026-04-26T15:33:01.391Z</time></trkpt><trkpt lat="32.8641217" lon="-8.4154267"><ele>145.0</ele><time>2026-04-26T15:33:02.391Z</time></trkpt><trkpt lat="32.86423" lon="-8.4152483"><ele>145.0</ele><time>2026-04-26T15:33:03.391Z</time></trkpt><trkpt lat="32.8643483" lon="-8.4150717"><ele>145.0</ele><time>2026-04-26T15:33:04.391Z</time></trkpt><trkpt lat="32.864465" lon="-8.41489"><ele>145.0</ele><time>2026-04-26T15:33:05.391Z</time></trkpt><trkpt lat="32.864585" lon="-8.4147017"><ele>146.0</ele><time>2026-04-26T15:33:06.391Z</time></trkpt><trkpt lat="32.8646967" lon="-8.41452"><ele>147.0</ele><time>2026-04-26T15:33:07.391Z</time></trkpt><trkpt lat="32.8648117" lon="-8.41434"><ele>148.0</ele><time>2026-04-26T15:33:08.391Z</time></trkpt><trkpt lat="32.864915" lon="-8.414165"><ele>148.0</ele><time>2026-04-26T15:33:09.391Z</time></trkpt><trkpt lat="32.8650133" lon="-8.4140017"><ele>148.0</ele><time>2026-04-26T15:33:10.391Z</time></trkpt><trkpt lat="32.8651133" lon="-8.413845"><ele>148.0</ele><time>2026-04-26T15:33:11.391Z</time></trkpt><trkpt lat="32.8652133" lon="-8.413685"><ele>148.0</ele><time>2026-04-26T15:33:12.391Z</time></trkpt><trkpt lat="32.86531" lon="-8.413525"><ele>148.0</ele><time>2026-04-26T15:33:13.391Z</time></trkpt><trkpt lat="32.8654067" lon="-8.413365"><ele>148.0</ele><time>2026-04-26T15:33:14.391Z</time></trkpt><trkpt lat="32.8655083" lon="-8.4132133"><ele>148.0</ele><time>2026-04-26T15:33:15.391Z</time></trkpt><trkpt lat="32.8656033" lon="-8.4130667"><ele>148.0</ele><time>2026-04-26T15:33:16.391Z</time></trkpt><trkpt lat="32.8656933" lon="-8.4129233"><ele>148.0</ele><time>2026-04-26T15:33:17.391Z</time></trkpt><trkpt lat="32.86578" lon="-8.4127833"><ele>148.0</ele><time>2026-04-26T15:33:18.391Z</time></trkpt><trkpt lat="32.8658633" lon="-8.4126333"><ele>148.0</ele><time>2026-04-26T15:33:19.391Z</time></trkpt><trkpt lat="32.8659567" lon="-8.4124783"><ele>148.0</ele><time>2026-04-26T15:33:20.391Z</time></trkpt><trkpt lat="32.8660583" lon="-8.4123183"><ele>148.0</ele><time>2026-04-26T15:33:21.392Z</time></trkpt><trkpt lat="32.86616" lon="-8.412165"><ele>148.0</ele><time>2026-04-26T15:33:22.391Z</time></trkpt><trkpt lat="32.866255" lon="-8.41202"><ele>148.0</ele><time>2026-04-26T15:33:23.392Z</time></trkpt><trkpt lat="32.866345" lon="-8.41189"><ele>148.0</ele><time>2026-04-26T15:33:24.391Z</time></trkpt><trkpt lat="32.86643" lon="-8.411745"><ele>148.0</ele><time>2026-04-26T15:33:25.391Z</time></trkpt><trkpt lat="32.866515" lon="-8.411605"><ele>148.0</ele><time>2026-04-26T15:33:26.391Z</time></trkpt><trkpt lat="32.8666033" lon="-8.411465"><ele>148.0</ele><time>2026-04-26T15:33:27.391Z</time></trkpt><trkpt lat="32.8666967" lon="-8.4113183"><ele>147.66666666666669</ele><time>2026-04-26T15:33:28.391Z</time></trkpt><trkpt lat="32.8667933" lon="-8.4111667"><ele>147.33333333333334</ele><time>2026-04-26T15:33:29.391Z</time></trkpt><trkpt lat="32.86689" lon="-8.4110067"><ele>147.0</ele><time>2026-04-26T15:33:30.391Z</time></trkpt><trkpt lat="32.866985" lon="-8.41084"><ele>147.0</ele><time>2026-04-26T15:33:31.391Z</time></trkpt><trkpt lat="32.8670867" lon="-8.4106767"><ele>147.0</ele><time>2026-04-26T15:33:32.391Z</time></trkpt><trkpt lat="32.8671867" lon="-8.4105217"><ele>147.0</ele><time>2026-04-26T15:33:33.391Z</time></trkpt><trkpt lat="32.867285" lon="-8.4103667"><ele>147.0</ele><time>2026-04-26T15:33:34.391Z</time></trkpt><trkpt lat="32.8673817" lon="-8.4102117"><ele>147.0</ele><time>2026-04-26T15:33:35.391Z</time></trkpt><trkpt lat="32.8674783" lon="-8.41005"><ele>147.0</ele><time>2026-04-26T15:33:36.392Z</time></trkpt><trkpt lat="32.8675767" lon="-8.4098883"><ele>147.66666666666666</ele><time>2026-04-26T15:33:37.391Z</time></trkpt><trkpt lat="32.8676833" lon="-8.40972"><ele>148.33333333333331</ele><time>2026-04-26T15:33:38.391Z</time></trkpt><trkpt lat="32.8677933" lon="-8.40955"><ele>149.0</ele><time>2026-04-26T15:33:39.391Z</time></trkpt><trkpt lat="32.8679033" lon="-8.4093767"><ele>149.0</ele><time>2026-04-26T15:33:40.391Z</time></trkpt><trkpt lat="32.8680167" lon="-8.4092"><ele>149.0</ele><time>2026-04-26T15:33:41.391Z</time></trkpt><trkpt lat="32.8681367" lon="-8.4090117"><ele>149.0</ele><time>2026-04-26T15:33:42.391Z</time></trkpt><trkpt lat="32.8682567" lon="-8.4088283"><ele>148.66666666666666</ele><time>2026-04-26T15:33:43.391Z</time></trkpt><trkpt lat="32.8683783" lon="-8.4086417"><ele>148.33333333333334</ele><time>2026-04-26T15:33:44.391Z</time></trkpt><trkpt lat="32.8685" lon="-8.4084533"><ele>148.0</ele><time>2026-04-26T15:33:45.391Z</time></trkpt><trkpt lat="32.86862" lon="-8.4082617"><ele>148.0</ele><time>2026-04-26T15:33:46.391Z</time></trkpt><trkpt lat="32.8687417" lon="-8.4080683"><ele>148.0</ele><time>2026-04-26T15:33:47.391Z</time></trkpt><trkpt lat="32.8688633" lon="-8.4078783"><ele>148.0</ele><time>2026-04-26T15:33:48.391Z</time></trkpt><trkpt lat="32.8689883" lon="-8.4076883"><ele>148.0</ele><time>2026-04-26T15:33:49.391Z</time></trkpt><trkpt lat="32.8691117" lon="-8.4074933"><ele>148.0</ele><time>2026-04-26T15:33:50.391Z</time></trkpt><trkpt lat="32.8692317" lon="-8.4072883"><ele>148.0</ele><time>2026-04-26T15:33:51.391Z</time></trkpt><trkpt lat="32.8693517" lon="-8.40708"><ele>147.66666666666669</ele><time>2026-04-26T15:33:52.391Z</time></trkpt><trkpt lat="32.8694733" lon="-8.4068683"><ele>147.33333333333334</ele><time>2026-04-26T15:33:53.391Z</time></trkpt><trkpt lat="32.869595" lon="-8.4066617"><ele>147.0</ele><time>2026-04-26T15:33:54.391Z</time></trkpt><trkpt lat="32.86972" lon="-8.4064533"><ele>147.33333333333334</ele><time>2026-04-26T15:33:55.391Z</time></trkpt><trkpt lat="32.8698483" lon="-8.4062567"><ele>147.66666666666669</ele><time>2026-04-26T15:33:56.391Z</time></trkpt><trkpt lat="32.8699683" lon="-8.40607"><ele>148.0</ele><time>2026-04-26T15:33:57.391Z</time></trkpt><trkpt lat="32.87008" lon="-8.4058783"><ele>148.0</ele><time>2026-04-26T15:33:58.391Z</time></trkpt><trkpt lat="32.8701917" lon="-8.405695"><ele>148.0</ele><time>2026-04-26T15:33:59.391Z</time></trkpt><trkpt lat="32.87031" lon="-8.4055117"><ele>148.0</ele><time>2026-04-26T15:34:00.391Z</time></trkpt><trkpt lat="32.8704267" lon="-8.4053283"><ele>148.0</ele><time>2026-04-26T15:34:01.391Z</time></trkpt><trkpt lat="32.8705417" lon="-8.4051517"><ele>148.0</ele><time>2026-04-26T15:34:02.391Z</time></trkpt><trkpt lat="32.8706583" lon="-8.4049783"><ele>148.0</ele><time>2026-04-26T15:34:03.391Z</time></trkpt><trkpt lat="32.870775" lon="-8.404795"><ele>148.33333333333334</ele><time>2026-04-26T15:34:04.391Z</time></trkpt><trkpt lat="32.8709033" lon="-8.4046067"><ele>148.66666666666666</ele><time>2026-04-26T15:34:05.391Z</time></trkpt><trkpt lat="32.871035" lon="-8.4044183"><ele>149.0</ele><time>2026-04-26T15:34:06.391Z</time></trkpt><trkpt lat="32.8711733" lon="-8.4042233"><ele>149.0</ele><time>2026-04-26T15:34:07.391Z</time></trkpt><trkpt lat="32.871315" lon="-8.4040283"><ele>149.0</ele><time>2026-04-26T15:34:08.391Z</time></trkpt><trkpt lat="32.8714567" lon="-8.403825"><ele>149.0</ele><time>2026-04-26T15:34:09.391Z</time></trkpt><trkpt lat="32.8715883" lon="-8.4036317"><ele>149.0</ele><time>2026-04-26T15:34:10.391Z</time></trkpt><trkpt lat="32.87172" lon="-8.40345"><ele>149.0</ele><time>2026-04-26T15:34:11.391Z</time></trkpt><trkpt lat="32.8718517" lon="-8.4032833"><ele>149.0</ele><time>2026-04-26T15:34:12.391Z</time></trkpt><trkpt lat="32.871975" lon="-8.4031233"><ele>148.66666666666666</ele><time>2026-04-26T15:34:13.391Z</time></trkpt><trkpt lat="32.8720933" lon="-8.4029667"><ele>148.33333333333334</ele><time>2026-04-26T15:34:14.391Z</time></trkpt><trkpt lat="32.8722017" lon="-8.40281"><ele>148.0</ele><time>2026-04-26T15:34:15.391Z</time></trkpt><trkpt lat="32.8723117" lon="-8.402665"><ele>148.0</ele><time>2026-04-26T15:34:16.391Z</time></trkpt><trkpt lat="32.8724117" lon="-8.4025233"><ele>148.0</ele><time>2026-04-26T15:34:17.391Z</time></trkpt><trkpt lat="32.872515" lon="-8.4023867"><ele>148.0</ele><time>2026-04-26T15:34:18.391Z</time></trkpt><trkpt lat="32.8726167" lon="-8.4022467"><ele>147.66666666666669</ele><time>2026-04-26T15:34:19.391Z</time></trkpt><trkpt lat="32.8727183" lon="-8.4021083"><ele>147.33333333333334</ele><time>2026-04-26T15:34:20.391Z</time></trkpt><trkpt lat="32.8728167" lon="-8.4019633"><ele>147.0</ele><time>2026-04-26T15:34:21.391Z</time></trkpt><trkpt lat="32.872925" lon="-8.4018233"><ele>147.0</ele><time>2026-04-26T15:34:22.391Z</time></trkpt><trkpt lat="32.8730333" lon="-8.4016833"><ele>147.0</ele><time>2026-04-26T15:34:23.391Z</time></trkpt><trkpt lat="32.87313" lon="-8.4015283"><ele>147.0</ele><time>2026-04-26T15:34:24.391Z</time></trkpt><trkpt lat="32.8732367" lon="-8.4013733"><ele>146.66666666666666</ele><time>2026-04-26T15:34:25.391Z</time></trkpt><trkpt lat="32.873345" lon="-8.4012233"><ele>146.33333333333331</ele><time>2026-04-26T15:34:26.391Z</time></trkpt><trkpt lat="32.8734583" lon="-8.4010717"><ele>146.0</ele><time>2026-04-26T15:34:27.391Z</time></trkpt><trkpt lat="32.8735733" lon="-8.40092"><ele>146.0</ele><time>2026-04-26T15:34:28.391Z</time></trkpt><trkpt lat="32.8736917" lon="-8.400765"><ele>146.0</ele><time>2026-04-26T15:34:29.391Z</time></trkpt><trkpt lat="32.873805" lon="-8.4006083"><ele>146.0</ele><time>2026-04-26T15:34:30.391Z</time></trkpt><trkpt lat="32.8739167" lon="-8.400455"><ele>146.0</ele><time>2026-04-26T15:34:31.391Z</time></trkpt><trkpt lat="32.8740233" lon="-8.400305"><ele>146.0</ele><time>2026-04-26T15:34:32.391Z</time></trkpt><trkpt lat="32.8741233" lon="-8.4001617"><ele>146.0</ele><time>2026-04-26T15:34:33.391Z</time></trkpt><trkpt lat="32.8742233" lon="-8.4000283"><ele>146.33333333333331</ele><time>2026-04-26T15:34:34.391Z</time></trkpt><trkpt lat="32.87433" lon="-8.3998883"><ele>146.66666666666666</ele><time>2026-04-26T15:34:35.391Z</time></trkpt><trkpt lat="32.8744367" lon="-8.3997517"><ele>147.0</ele><time>2026-04-26T15:34:36.391Z</time></trkpt><trkpt lat="32.87454" lon="-8.399605"><ele>147.33333333333334</ele><time>2026-04-26T15:34:37.392Z</time></trkpt><trkpt lat="32.8746467" lon="-8.3994567"><ele>147.66666666666669</ele><time>2026-04-26T15:34:38.391Z</time></trkpt><trkpt lat="32.8747583" lon="-8.399305"><ele>148.0</ele><time>2026-04-26T15:34:39.391Z</time></trkpt><trkpt lat="32.87487" lon="-8.3991483"><ele>148.0</ele><time>2026-04-26T15:34:40.391Z</time></trkpt><trkpt lat="32.8749867" lon="-8.39899"><ele>148.0</ele><time>2026-04-26T15:34:41.391Z</time></trkpt><trkpt lat="32.875105" lon="-8.3988333"><ele>148.0</ele><time>2026-04-26T15:34:42.391Z</time></trkpt><trkpt lat="32.8752217" lon="-8.3986767"><ele>148.33333333333334</ele><time>2026-04-26T15:34:43.391Z</time></trkpt><trkpt lat="32.8753333" lon="-8.3985217"><ele>148.66666666666666</ele><time>2026-04-26T15:34:44.391Z</time></trkpt><trkpt lat="32.8754467" lon="-8.398375"><ele>149.0</ele><time>2026-04-26T15:34:45.391Z</time></trkpt><trkpt lat="32.875555" lon="-8.3982233"><ele>149.0</ele><time>2026-04-26T15:34:46.391Z</time></trkpt><trkpt lat="32.8756633" lon="-8.39807"><ele>149.0</ele><time>2026-04-26T15:34:47.391Z</time></trkpt><trkpt lat="32.875775" lon="-8.397915"><ele>149.0</ele><time>2026-04-26T15:34:48.391Z</time></trkpt><trkpt lat="32.8758833" lon="-8.3977583"><ele>149.66666666666666</ele><time>2026-04-26T15:34:49.391Z</time></trkpt><trkpt lat="32.875995" lon="-8.3976033"><ele>150.33333333333334</ele><time>2026-04-26T15:34:50.391Z</time></trkpt><trkpt lat="32.8761117" lon="-8.397445"><ele>151.0</ele><time>2026-04-26T15:34:51.391Z</time></trkpt><trkpt lat="32.8762267" lon="-8.3972817"><ele>150.0</ele><time>2026-04-26T15:34:52.391Z</time></trkpt><trkpt lat="32.8763433" lon="-8.3971167"><ele>149.0</ele><time>2026-04-26T15:34:53.391Z</time></trkpt><trkpt lat="32.8764667" lon="-8.39695"><ele>148.0</ele><time>2026-04-26T15:34:54.391Z</time></trkpt><trkpt lat="32.8765833" lon="-8.3967867"><ele>148.0</ele><time>2026-04-26T15:34:55.391Z</time></trkpt><trkpt lat="32.876705" lon="-8.3966267"><ele>148.0</ele><time>2026-04-26T15:34:56.391Z</time></trkpt><trkpt lat="32.8768283" lon="-8.3964667"><ele>148.0</ele><time>2026-04-26T15:34:57.391Z</time></trkpt><trkpt lat="32.8769467" lon="-8.396305"><ele>148.66666666666669</ele><time>2026-04-26T15:34:58.391Z</time></trkpt><trkpt lat="32.8770617" lon="-8.3961417"><ele>149.33333333333334</ele><time>2026-04-26T15:34:59.391Z</time></trkpt><trkpt lat="32.8771833" lon="-8.3959883"><ele>150.0</ele><time>2026-04-26T15:35:00.391Z</time></trkpt><trkpt lat="32.8773083" lon="-8.395835"><ele>150.0</ele><time>2026-04-26T15:35:01.391Z</time></trkpt><trkpt lat="32.87743" lon="-8.3956683"><ele>150.0</ele><time>2026-04-26T15:35:02.391Z</time></trkpt><trkpt lat="32.8775433" lon="-8.3954967"><ele>150.0</ele><time>2026-04-26T15:35:03.391Z</time></trkpt><trkpt lat="32.8776617" lon="-8.3953183"><ele>151.0</ele><time>2026-04-26T15:35:04.391Z</time></trkpt><trkpt lat="32.87779" lon="-8.3951467"><ele>152.0</ele><time>2026-04-26T15:35:05.391Z</time></trkpt><trkpt lat="32.8779233" lon="-8.3949783"><ele>153.0</ele><time>2026-04-26T15:35:06.391Z</time></trkpt><trkpt lat="32.8780433" lon="-8.3948217"><ele>153.0</ele><time>2026-04-26T15:35:07.391Z</time></trkpt><trkpt lat="32.8781633" lon="-8.39468"><ele>153.0</ele><time>2026-04-26T15:35:08.391Z</time></trkpt><trkpt lat="32.878275" lon="-8.394555"><ele>153.0</ele><time>2026-04-26T15:35:09.391Z</time></trkpt><trkpt lat="32.8783883" lon="-8.394435"><ele>153.33333333333334</ele><time>2026-04-26T15:35:10.391Z</time></trkpt><trkpt lat="32.8785067" lon="-8.3943033"><ele>153.66666666666669</ele><time>2026-04-26T15:35:11.391Z</time></trkpt><trkpt lat="32.87862" lon="-8.3941733"><ele>154.0</ele><time>2026-04-26T15:35:12.391Z</time></trkpt><trkpt lat="32.8787333" lon="-8.39404"><ele>154.0</ele><time>2026-04-26T15:35:13.391Z</time></trkpt><trkpt lat="32.8788467" lon="-8.3938983"><ele>154.0</ele><time>2026-04-26T15:35:14.391Z</time></trkpt><trkpt lat="32.8789667" lon="-8.39376"><ele>154.0</ele><time>2026-04-26T15:35:15.391Z</time></trkpt><trkpt lat="32.87908" lon="-8.3936117"><ele>154.33333333333334</ele><time>2026-04-26T15:35:16.391Z</time></trkpt><trkpt lat="32.8792033" lon="-8.3934717"><ele>154.66666666666666</ele><time>2026-04-26T15:35:17.391Z</time></trkpt><trkpt lat="32.8793267" lon="-8.39333"><ele>155.0</ele><time>2026-04-26T15:35:18.391Z</time></trkpt><trkpt lat="32.8794483" lon="-8.39319"><ele>155.66666666666666</ele><time>2026-04-26T15:35:19.391Z</time></trkpt><trkpt lat="32.8795733" lon="-8.3930483"><ele>156.33333333333334</ele><time>2026-04-26T15:35:20.391Z</time></trkpt><trkpt lat="32.8796983" lon="-8.3929017"><ele>157.0</ele><time>2026-04-26T15:35:21.391Z</time></trkpt><trkpt lat="32.879825" lon="-8.39276"><ele>157.0</ele><time>2026-04-26T15:35:22.391Z</time></trkpt><trkpt lat="32.879955" lon="-8.39262"><ele>157.0</ele><time>2026-04-26T15:35:23.391Z</time></trkpt><trkpt lat="32.8800867" lon="-8.39247"><ele>157.0</ele><time>2026-04-26T15:35:24.391Z</time></trkpt><trkpt lat="32.8802183" lon="-8.3923183"><ele>157.33333333333334</ele><time>2026-04-26T15:35:25.391Z</time></trkpt><trkpt lat="32.880345" lon="-8.3921717"><ele>157.66666666666666</ele><time>2026-04-26T15:35:26.391Z</time></trkpt><trkpt lat="32.8804683" lon="-8.3920317"><ele>158.0</ele><time>2026-04-26T15:35:27.391Z</time></trkpt><trkpt lat="32.8805867" lon="-8.3918983"><ele>158.0</ele><time>2026-04-26T15:35:28.391Z</time></trkpt><trkpt lat="32.8806983" lon="-8.3917633"><ele>158.0</ele><time>2026-04-26T15:35:29.391Z</time></trkpt><trkpt lat="32.8808133" lon="-8.3916217"><ele>158.0</ele><time>2026-04-26T15:35:30.391Z</time></trkpt><trkpt lat="32.8809267" lon="-8.3914767"><ele>158.33333333333331</ele><time>2026-04-26T15:35:31.391Z</time></trkpt><trkpt lat="32.8810433" lon="-8.3913317"><ele>158.66666666666666</ele><time>2026-04-26T15:35:32.391Z</time></trkpt><trkpt lat="32.8811517" lon="-8.3911817"><ele>159.0</ele><time>2026-04-26T15:35:33.391Z</time></trkpt><trkpt lat="32.8812583" lon="-8.3910367"><ele>159.0</ele><time>2026-04-26T15:35:34.391Z</time></trkpt><trkpt lat="32.8813633" lon="-8.3908833"><ele>159.0</ele><time>2026-04-26T15:35:35.39Z</time></trkpt><trkpt lat="32.8814667" lon="-8.3907183"><ele>159.0</ele><time>2026-04-26T15:35:36.39Z</time></trkpt><trkpt lat="32.88158" lon="-8.390545"><ele>158.66666666666666</ele><time>2026-04-26T15:35:37.391Z</time></trkpt><trkpt lat="32.881695" lon="-8.3903767"><ele>158.33333333333331</ele><time>2026-04-26T15:35:38.39Z</time></trkpt><trkpt lat="32.8818117" lon="-8.3902017"><ele>158.0</ele><time>2026-04-26T15:35:39.39Z</time></trkpt><trkpt lat="32.8819333" lon="-8.3900267"><ele>157.66666666666666</ele><time>2026-04-26T15:35:40.39Z</time></trkpt><trkpt lat="32.8820483" lon="-8.3898617"><ele>157.33333333333334</ele><time>2026-04-26T15:35:41.391Z</time></trkpt><trkpt lat="32.8821517" lon="-8.3897"><ele>157.0</ele><time>2026-04-26T15:35:42.39Z</time></trkpt><trkpt lat="32.8822617" lon="-8.3895433"><ele>156.66666666666669</ele><time>2026-04-26T15:35:43.39Z</time></trkpt><trkpt lat="32.8823717" lon="-8.38939"><ele>156.33333333333334</ele><time>2026-04-26T15:35:44.39Z</time></trkpt><trkpt lat="32.8824833" lon="-8.3892283"><ele>156.0</ele><time>2026-04-26T15:35:45.39Z</time></trkpt><trkpt lat="32.8825983" lon="-8.3890633"><ele>156.0</ele><time>2026-04-26T15:35:46.39Z</time></trkpt><trkpt lat="32.8827083" lon="-8.3888933"><ele>156.0</ele><time>2026-04-26T15:35:47.39Z</time></trkpt><trkpt lat="32.88282" lon="-8.3887233"><ele>156.0</ele><time>2026-04-26T15:35:48.39Z</time></trkpt><trkpt lat="32.88293" lon="-8.3885533"><ele>156.0</ele><time>2026-04-26T15:35:49.39Z</time></trkpt><trkpt lat="32.8830333" lon="-8.3883833"><ele>156.0</ele><time>2026-04-26T15:35:50.39Z</time></trkpt><trkpt lat="32.8831367" lon="-8.3882183"><ele>156.0</ele><time>2026-04-26T15:35:51.39Z</time></trkpt><trkpt lat="32.88325" lon="-8.3880567"><ele>155.66666666666666</ele><time>2026-04-26T15:35:52.39Z</time></trkpt><trkpt lat="32.8833567" lon="-8.387895"><ele>155.33333333333331</ele><time>2026-04-26T15:35:53.39Z</time></trkpt><trkpt lat="32.883465" lon="-8.3877367"><ele>155.0</ele><time>2026-04-26T15:35:54.39Z</time></trkpt><trkpt lat="32.8835717" lon="-8.3875733"><ele>155.0</ele><time>2026-04-26T15:35:55.39Z</time></trkpt><trkpt lat="32.883675" lon="-8.387415"><ele>155.0</ele><time>2026-04-26T15:35:56.39Z</time></trkpt><trkpt lat="32.8837767" lon="-8.387255"><ele>155.0</ele><time>2026-04-26T15:35:57.39Z</time></trkpt><trkpt lat="32.8838833" lon="-8.3870967"><ele>155.0</ele><time>2026-04-26T15:35:58.39Z</time></trkpt><trkpt lat="32.8839933" lon="-8.3869433"><ele>155.0</ele><time>2026-04-26T15:35:59.39Z</time></trkpt><trkpt lat="32.8841017" lon="-8.3867917"><ele>155.0</ele><time>2026-04-26T15:36:00.39Z</time></trkpt><trkpt lat="32.8842117" lon="-8.38664"><ele>154.66666666666666</ele><time>2026-04-26T15:36:01.39Z</time></trkpt><trkpt lat="32.88432" lon="-8.3864833"><ele>154.33333333333334</ele><time>2026-04-26T15:36:02.39Z</time></trkpt><trkpt lat="32.88442" lon="-8.3863267"><ele>154.0</ele><time>2026-04-26T15:36:03.39Z</time></trkpt><trkpt lat="32.8845233" lon="-8.3861717"><ele>153.66666666666669</ele><time>2026-04-26T15:36:04.39Z</time></trkpt><trkpt lat="32.8846233" lon="-8.38601"><ele>153.33333333333334</ele><time>2026-04-26T15:36:05.39Z</time></trkpt><trkpt lat="32.88473" lon="-8.3858433"><ele>153.0</ele><time>2026-04-26T15:36:06.39Z</time></trkpt><trkpt lat="32.8848333" lon="-8.3856783"><ele>153.0</ele><time>2026-04-26T15:36:07.39Z</time></trkpt><trkpt lat="32.8849367" lon="-8.38551"><ele>153.0</ele><time>2026-04-26T15:36:08.391Z</time></trkpt><trkpt lat="32.8850383" lon="-8.3853383"><ele>153.0</ele><time>2026-04-26T15:36:09.39Z</time></trkpt><trkpt lat="32.8851367" lon="-8.3851683"><ele>152.66666666666666</ele><time>2026-04-26T15:36:10.39Z</time></trkpt><trkpt lat="32.8852383" lon="-8.3849917"><ele>152.33333333333331</ele><time>2026-04-26T15:36:11.39Z</time></trkpt><trkpt lat="32.8853367" lon="-8.3848133"><ele>152.0</ele><time>2026-04-26T15:36:12.39Z</time></trkpt><trkpt lat="32.885435" lon="-8.38463"><ele>152.0</ele><time>2026-04-26T15:36:13.39Z</time></trkpt><trkpt lat="32.885535" lon="-8.38444"><ele>152.0</ele><time>2026-04-26T15:36:14.391Z</time></trkpt><trkpt lat="32.8856283" lon="-8.38425"><ele>152.0</ele><time>2026-04-26T15:36:15.39Z</time></trkpt><trkpt lat="32.88573" lon="-8.384065"><ele>152.0</ele><time>2026-04-26T15:36:16.39Z</time></trkpt><trkpt lat="32.8858317" lon="-8.3838817"><ele>152.0</ele><time>2026-04-26T15:36:17.39Z</time></trkpt><trkpt lat="32.8859367" lon="-8.383695"><ele>152.0</ele><time>2026-04-26T15:36:18.39Z</time></trkpt><trkpt lat="32.8860417" lon="-8.3835133"><ele>152.0</ele><time>2026-04-26T15:36:19.39Z</time></trkpt><trkpt lat="32.8861417" lon="-8.3833283"><ele>152.0</ele><time>2026-04-26T15:36:20.39Z</time></trkpt><trkpt lat="32.8862417" lon="-8.3831383"><ele>152.0</ele><time>2026-04-26T15:36:21.39Z</time></trkpt><trkpt lat="32.8863417" lon="-8.38295"><ele>151.0</ele><time>2026-04-26T15:36:22.391Z</time></trkpt><trkpt lat="32.886445" lon="-8.3827633"><ele>150.0</ele><time>2026-04-26T15:36:23.39Z</time></trkpt><trkpt lat="32.886545" lon="-8.38257"><ele>149.0</ele><time>2026-04-26T15:36:24.391Z</time></trkpt><trkpt lat="32.8866467" lon="-8.3823733"><ele>148.66666666666666</ele><time>2026-04-26T15:36:25.39Z</time></trkpt><trkpt lat="32.8867517" lon="-8.38218"><ele>148.33333333333334</ele><time>2026-04-26T15:36:26.39Z</time></trkpt><trkpt lat="32.8868583" lon="-8.3819833"><ele>148.0</ele><time>2026-04-26T15:36:27.39Z</time></trkpt><trkpt lat="32.88697" lon="-8.3817817"><ele>148.0</ele><time>2026-04-26T15:36:28.39Z</time></trkpt><trkpt lat="32.887085" lon="-8.381575"><ele>148.0</ele><time>2026-04-26T15:36:29.39Z</time></trkpt><trkpt lat="32.8871933" lon="-8.3813733"><ele>148.0</ele><time>2026-04-26T15:36:30.39Z</time></trkpt><trkpt lat="32.8872983" lon="-8.3811833"><ele>148.0</ele><time>2026-04-26T15:36:31.39Z</time></trkpt><trkpt lat="32.8874017" lon="-8.381"><ele>148.0</ele><time>2026-04-26T15:36:32.39Z</time></trkpt><trkpt lat="32.887495" lon="-8.3808167"><ele>148.0</ele><time>2026-04-26T15:36:33.39Z</time></trkpt><trkpt lat="32.8875867" lon="-8.3806383"><ele>149.33333333333334</ele><time>2026-04-26T15:36:34.391Z</time></trkpt><trkpt lat="32.887675" lon="-8.3804683"><ele>150.66666666666666</ele><time>2026-04-26T15:36:35.39Z</time></trkpt><trkpt lat="32.88777" lon="-8.3802917"><ele>152.0</ele><time>2026-04-26T15:36:36.39Z</time></trkpt><trkpt lat="32.887865" lon="-8.3801183"><ele>152.0</ele><time>2026-04-26T15:36:37.39Z</time></trkpt><trkpt lat="32.8879633" lon="-8.379945"><ele>152.0</ele><time>2026-04-26T15:36:38.39Z</time></trkpt><trkpt lat="32.88806" lon="-8.379765"><ele>152.0</ele><time>2026-04-26T15:36:39.39Z</time></trkpt><trkpt lat="32.888165" lon="-8.3795783"><ele>151.66666666666666</ele><time>2026-04-26T15:36:40.39Z</time></trkpt><trkpt lat="32.8882717" lon="-8.3793883"><ele>151.33333333333334</ele><time>2026-04-26T15:36:41.39Z</time></trkpt><trkpt lat="32.8883717" lon="-8.3792067"><ele>151.0</ele><time>2026-04-26T15:36:42.39Z</time></trkpt><trkpt lat="32.888465" lon="-8.3790233"><ele>150.33333333333334</ele><time>2026-04-26T15:36:43.39Z</time></trkpt><trkpt lat="32.88856" lon="-8.3788467"><ele>149.66666666666666</ele><time>2026-04-26T15:36:44.39Z</time></trkpt><trkpt lat="32.8886467" lon="-8.378675"><ele>149.0</ele><time>2026-04-26T15:36:45.39Z</time></trkpt><trkpt lat="32.8887417" lon="-8.3785033"><ele>149.0</ele><time>2026-04-26T15:36:46.39Z</time></trkpt><trkpt lat="32.8888367" lon="-8.3783333"><ele>149.0</ele><time>2026-04-26T15:36:47.39Z</time></trkpt><trkpt lat="32.888935" lon="-8.37816"><ele>149.0</ele><time>2026-04-26T15:36:48.39Z</time></trkpt><trkpt lat="32.8890283" lon="-8.3779867"><ele>149.66666666666666</ele><time>2026-04-26T15:36:49.39Z</time></trkpt><trkpt lat="32.8891183" lon="-8.3778117"><ele>150.33333333333334</ele><time>2026-04-26T15:36:50.39Z</time></trkpt><trkpt lat="32.889215" lon="-8.3776383"><ele>151.0</ele><time>2026-04-26T15:36:51.391Z</time></trkpt><trkpt lat="32.8893083" lon="-8.37746"><ele>151.0</ele><time>2026-04-26T15:36:52.39Z</time></trkpt><trkpt lat="32.889405" lon="-8.3772833"><ele>151.0</ele><time>2026-04-26T15:36:53.39Z</time></trkpt><trkpt lat="32.8894983" lon="-8.3771067"><ele>151.0</ele><time>2026-04-26T15:36:54.39Z</time></trkpt><trkpt lat="32.8896" lon="-8.3769283"><ele>151.66666666666669</ele><time>2026-04-26T15:36:55.39Z</time></trkpt><trkpt lat="32.8896967" lon="-8.3767417"><ele>152.33333333333334</ele><time>2026-04-26T15:36:56.39Z</time></trkpt><trkpt lat="32.8897933" lon="-8.3765583"><ele>153.0</ele><time>2026-04-26T15:36:57.39Z</time></trkpt><trkpt lat="32.8898883" lon="-8.3763717"><ele>153.0</ele><time>2026-04-26T15:36:58.39Z</time></trkpt><trkpt lat="32.8899867" lon="-8.3761867"><ele>153.0</ele><time>2026-04-26T15:36:59.39Z</time></trkpt><trkpt lat="32.89009" lon="-8.376"><ele>153.0</ele><time>2026-04-26T15:37:00.39Z</time></trkpt><trkpt lat="32.8901883" lon="-8.3758183"><ele>152.66666666666666</ele><time>2026-04-26T15:37:01.39Z</time></trkpt><trkpt lat="32.8902883" lon="-8.3756367"><ele>152.33333333333331</ele><time>2026-04-26T15:37:02.39Z</time></trkpt><trkpt lat="32.8903833" lon="-8.3754567"><ele>152.0</ele><time>2026-04-26T15:37:03.39Z</time></trkpt><trkpt lat="32.89048" lon="-8.3752783"><ele>151.33333333333331</ele><time>2026-04-26T15:37:04.39Z</time></trkpt><trkpt lat="32.8905867" lon="-8.3750967"><ele>150.66666666666666</ele><time>2026-04-26T15:37:05.39Z</time></trkpt><trkpt lat="32.8906867" lon="-8.3749167"><ele>150.0</ele><time>2026-04-26T15:37:06.39Z</time></trkpt><trkpt lat="32.8907833" lon="-8.3747333"><ele>150.0</ele><time>2026-04-26T15:37:07.39Z</time></trkpt><trkpt lat="32.8908833" lon="-8.3745517"><ele>150.0</ele><time>2026-04-26T15:37:08.39Z</time></trkpt><trkpt lat="32.8909817" lon="-8.3743667"><ele>150.0</ele><time>2026-04-26T15:37:09.39Z</time></trkpt><trkpt lat="32.8910833" lon="-8.374185"><ele>150.33333333333334</ele><time>2026-04-26T15:37:10.39Z</time></trkpt><trkpt lat="32.8911817" lon="-8.3740033"><ele>150.66666666666669</ele><time>2026-04-26T15:37:11.39Z</time></trkpt><trkpt lat="32.8912767" lon="-8.3738267"><ele>151.0</ele><time>2026-04-26T15:37:12.39Z</time></trkpt><trkpt lat="32.8913717" lon="-8.37365"><ele>151.33333333333334</ele><time>2026-04-26T15:37:13.39Z</time></trkpt><trkpt lat="32.89147" lon="-8.37347"><ele>151.66666666666666</ele><time>2026-04-26T15:37:14.39Z</time></trkpt><trkpt lat="32.89157" lon="-8.3732917"><ele>152.0</ele><time>2026-04-26T15:37:15.39Z</time></trkpt><trkpt lat="32.8916617" lon="-8.3731183"><ele>152.33333333333331</ele><time>2026-04-26T15:37:16.39Z</time></trkpt><trkpt lat="32.8917567" lon="-8.3729433"><ele>152.66666666666666</ele><time>2026-04-26T15:37:17.39Z</time></trkpt><trkpt lat="32.8918517" lon="-8.3727633"><ele>153.0</ele><time>2026-04-26T15:37:18.39Z</time></trkpt><trkpt lat="32.89194" lon="-8.37259"><ele>153.33333333333334</ele><time>2026-04-26T15:37:19.39Z</time></trkpt><trkpt lat="32.89203" lon="-8.3724183"><ele>153.66666666666669</ele><time>2026-04-26T15:37:20.39Z</time></trkpt><trkpt lat="32.89212" lon="-8.3722433"><ele>154.0</ele><time>2026-04-26T15:37:21.39Z</time></trkpt><trkpt lat="32.89221" lon="-8.3720683"><ele>154.0</ele><time>2026-04-26T15:37:22.39Z</time></trkpt><trkpt lat="32.8923017" lon="-8.371895"><ele>154.0</ele><time>2026-04-26T15:37:23.39Z</time></trkpt><trkpt lat="32.892395" lon="-8.3717233"><ele>154.0</ele><time>2026-04-26T15:37:24.39Z</time></trkpt><trkpt lat="32.8924883" lon="-8.3715483"><ele>154.0</ele><time>2026-04-26T15:37:25.39Z</time></trkpt><trkpt lat="32.892585" lon="-8.3713733"><ele>154.0</ele><time>2026-04-26T15:37:26.39Z</time></trkpt><trkpt lat="32.89268" lon="-8.371195"><ele>154.0</ele><time>2026-04-26T15:37:27.39Z</time></trkpt><trkpt lat="32.89278" lon="-8.371015"><ele>153.33333333333334</ele><time>2026-04-26T15:37:28.39Z</time></trkpt><trkpt lat="32.89288" lon="-8.370835"><ele>152.66666666666666</ele><time>2026-04-26T15:37:29.39Z</time></trkpt><trkpt lat="32.8929767" lon="-8.3706533"><ele>152.0</ele><time>2026-04-26T15:37:30.39Z</time></trkpt><trkpt lat="32.8930783" lon="-8.3704683"><ele>152.0</ele><time>2026-04-26T15:37:31.39Z</time></trkpt><trkpt lat="32.8931783" lon="-8.3702867"><ele>152.0</ele><time>2026-04-26T15:37:32.39Z</time></trkpt><trkpt lat="32.8932783" lon="-8.3701067"><ele>152.0</ele><time>2026-04-26T15:37:33.39Z</time></trkpt><trkpt lat="32.8933733" lon="-8.36993"><ele>151.66666666666666</ele><time>2026-04-26T15:37:34.39Z</time></trkpt><trkpt lat="32.8934683" lon="-8.36976"><ele>151.33333333333334</ele><time>2026-04-26T15:37:35.39Z</time></trkpt><trkpt lat="32.89356" lon="-8.3695833"><ele>151.0</ele><time>2026-04-26T15:37:36.39Z</time></trkpt><trkpt lat="32.8936517" lon="-8.369415"><ele>151.0</ele><time>2026-04-26T15:37:37.39Z</time></trkpt><trkpt lat="32.8937383" lon="-8.369245"><ele>151.0</ele><time>2026-04-26T15:37:38.39Z</time></trkpt><trkpt lat="32.893825" lon="-8.3690783"><ele>151.0</ele><time>2026-04-26T15:37:39.39Z</time></trkpt><trkpt lat="32.893915" lon="-8.3689033"><ele>150.33333333333334</ele><time>2026-04-26T15:37:40.391Z</time></trkpt><trkpt lat="32.89401" lon="-8.3687317"><ele>149.66666666666666</ele><time>2026-04-26T15:37:41.39Z</time></trkpt><trkpt lat="32.8941083" lon="-8.36856"><ele>149.0</ele><time>2026-04-26T15:37:42.39Z</time></trkpt><trkpt lat="32.8942017" lon="-8.36838"><ele>149.0</ele><time>2026-04-26T15:37:43.391Z</time></trkpt><trkpt lat="32.8942983" lon="-8.368195"><ele>149.0</ele><time>2026-04-26T15:37:44.39Z</time></trkpt><trkpt lat="32.8944" lon="-8.3680183"><ele>149.0</ele><time>2026-04-26T15:37:45.39Z</time></trkpt><trkpt lat="32.8944983" lon="-8.3678383"><ele>149.0</ele><time>2026-04-26T15:37:46.39Z</time></trkpt><trkpt lat="32.8945933" lon="-8.367655"><ele>149.0</ele><time>2026-04-26T15:37:47.39Z</time></trkpt><trkpt lat="32.8946933" lon="-8.3674767"><ele>149.0</ele><time>2026-04-26T15:37:48.39Z</time></trkpt><trkpt lat="32.89479" lon="-8.3672917"><ele>150.0</ele><time>2026-04-26T15:37:49.39Z</time></trkpt><trkpt lat="32.8948933" lon="-8.3671067"><ele>151.0</ele><time>2026-04-26T15:37:50.39Z</time></trkpt><trkpt lat="32.8949967" lon="-8.3669217"><ele>152.0</ele><time>2026-04-26T15:37:51.39Z</time></trkpt><trkpt lat="32.8951017" lon="-8.3667317"><ele>152.0</ele><time>2026-04-26T15:37:52.39Z</time></trkpt><trkpt lat="32.895205" lon="-8.3665417"><ele>152.0</ele><time>2026-04-26T15:37:53.39Z</time></trkpt><trkpt lat="32.8953017" lon="-8.3663667"><ele>152.0</ele><time>2026-04-26T15:37:54.39Z</time></trkpt><trkpt lat="32.89539" lon="-8.36619"><ele>151.66666666666666</ele><time>2026-04-26T15:37:55.39Z</time></trkpt><trkpt lat="32.8954867" lon="-8.36601"><ele>151.33333333333334</ele><time>2026-04-26T15:37:56.39Z</time></trkpt><trkpt lat="32.8955833" lon="-8.36583"><ele>151.0</ele><time>2026-04-26T15:37:57.39Z</time></trkpt><trkpt lat="32.8956767" lon="-8.3656467"><ele>151.0</ele><time>2026-04-26T15:37:58.39Z</time></trkpt><trkpt lat="32.895775" lon="-8.3654683"><ele>151.0</ele><time>2026-04-26T15:37:59.39Z</time></trkpt><trkpt lat="32.8958717" lon="-8.3652933"><ele>151.0</ele><time>2026-04-26T15:38:00.39Z</time></trkpt><trkpt lat="32.895975" lon="-8.3651217"><ele>151.0</ele><time>2026-04-26T15:38:01.391Z</time></trkpt><trkpt lat="32.8960717" lon="-8.3649433"><ele>151.0</ele><time>2026-04-26T15:38:02.39Z</time></trkpt><trkpt lat="32.8961667" lon="-8.3647667"><ele>151.0</ele><time>2026-04-26T15:38:03.39Z</time></trkpt><trkpt lat="32.8962567" lon="-8.36459"><ele>150.33333333333334</ele><time>2026-04-26T15:38:04.39Z</time></trkpt><trkpt lat="32.8963367" lon="-8.36442"><ele>149.66666666666666</ele><time>2026-04-26T15:38:05.39Z</time></trkpt><trkpt lat="32.896415" lon="-8.3642517"><ele>149.0</ele><time>2026-04-26T15:38:06.39Z</time></trkpt><trkpt lat="32.8964967" lon="-8.3640983"><ele>149.0</ele><time>2026-04-26T15:38:07.39Z</time></trkpt><trkpt lat="32.89657" lon="-8.3639567"><ele>149.0</ele><time>2026-04-26T15:38:08.39Z</time></trkpt><trkpt lat="32.896645" lon="-8.3638133"><ele>149.0</ele><time>2026-04-26T15:38:09.39Z</time></trkpt><trkpt lat="32.8967267" lon="-8.3636667"><ele>149.0</ele><time>2026-04-26T15:38:10.39Z</time></trkpt><trkpt lat="32.89682" lon="-8.3635133"><ele>148.66666666666666</ele><time>2026-04-26T15:38:11.39Z</time></trkpt><trkpt lat="32.896905" lon="-8.3633467"><ele>148.33333333333334</ele><time>2026-04-26T15:38:12.39Z</time></trkpt><trkpt lat="32.896995" lon="-8.3631717"><ele>148.0</ele><time>2026-04-26T15:38:13.39Z</time></trkpt><trkpt lat="32.8970833" lon="-8.3629983"><ele>147.66666666666669</ele><time>2026-04-26T15:38:14.39Z</time></trkpt><trkpt lat="32.8971767" lon="-8.362815"><ele>147.33333333333334</ele><time>2026-04-26T15:38:15.39Z</time></trkpt><trkpt lat="32.897275" lon="-8.3626283"><ele>147.0</ele><time>2026-04-26T15:38:16.39Z</time></trkpt><trkpt lat="32.89738" lon="-8.3624417"><ele>147.0</ele><time>2026-04-26T15:38:17.39Z</time></trkpt><trkpt lat="32.89748" lon="-8.3622483"><ele>147.0</ele><time>2026-04-26T15:38:18.39Z</time></trkpt><trkpt lat="32.8975917" lon="-8.362055"><ele>147.0</ele><time>2026-04-26T15:38:19.39Z</time></trkpt><trkpt lat="32.8976983" lon="-8.36185"><ele>147.0</ele><time>2026-04-26T15:38:20.39Z</time></trkpt><trkpt lat="32.8978067" lon="-8.361645"><ele>147.0</ele><time>2026-04-26T15:38:21.39Z</time></trkpt><trkpt lat="32.897915" lon="-8.3614433"><ele>147.0</ele><time>2026-04-26T15:38:22.39Z</time></trkpt><trkpt lat="32.89802" lon="-8.3612367"><ele>146.33333333333334</ele><time>2026-04-26T15:38:23.39Z</time></trkpt><trkpt lat="32.89812" lon="-8.36105"><ele>145.66666666666669</ele><time>2026-04-26T15:38:24.39Z</time></trkpt><trkpt lat="32.8982183" lon="-8.36087"><ele>145.0</ele><time>2026-04-26T15:38:25.39Z</time></trkpt><trkpt lat="32.8983133" lon="-8.3607"><ele>145.0</ele><time>2026-04-26T15:38:26.39Z</time></trkpt><trkpt lat="32.8983983" lon="-8.3605383"><ele>145.0</ele><time>2026-04-26T15:38:27.39Z</time></trkpt><trkpt lat="32.8984867" lon="-8.3603833"><ele>145.0</ele><time>2026-04-26T15:38:28.39Z</time></trkpt><trkpt lat="32.8985767" lon="-8.3602317"><ele>144.75</ele><time>2026-04-26T15:38:29.39Z</time></trkpt><trkpt lat="32.8986567" lon="-8.3600867"><ele>144.5</ele><time>2026-04-26T15:38:30.39Z</time></trkpt><trkpt lat="32.89873" lon="-8.359945"><ele>144.25</ele><time>2026-04-26T15:38:31.39Z</time></trkpt><trkpt lat="32.898805" lon="-8.359815"><ele>144.0</ele><time>2026-04-26T15:38:32.39Z</time></trkpt><trkpt lat="32.8988767" lon="-8.3596867"><ele>143.4</ele><time>2026-04-26T15:38:33.39Z</time></trkpt><trkpt lat="32.8989367" lon="-8.3595667"><ele>142.8</ele><time>2026-04-26T15:38:34.39Z</time></trkpt><trkpt lat="32.8989983" lon="-8.3594533"><ele>142.2</ele><time>2026-04-26T15:38:35.39Z</time></trkpt><trkpt lat="32.8990533" lon="-8.3593433"><ele>141.6</ele><time>2026-04-26T15:38:36.39Z</time></trkpt><trkpt lat="32.899115" lon="-8.3592417"><ele>141.0</ele><time>2026-04-26T15:38:37.39Z</time></trkpt><trkpt lat="32.89917" lon="-8.35914"><ele>141.0</ele><time>2026-04-26T15:38:38.39Z</time></trkpt><trkpt lat="32.8992283" lon="-8.35904"><ele>141.0</ele><time>2026-04-26T15:38:39.39Z</time></trkpt><trkpt lat="32.8992817" lon="-8.3589233"><ele>141.0</ele><time>2026-04-26T15:38:40.39Z</time></trkpt><trkpt lat="32.8993467" lon="-8.3587933"><ele>141.0</ele><time>2026-04-26T15:38:41.39Z</time></trkpt><trkpt lat="32.899415" lon="-8.3586517"><ele>141.5</ele><time>2026-04-26T15:38:42.39Z</time></trkpt><trkpt lat="32.8994883" lon="-8.3585083"><ele>142.0</ele><time>2026-04-26T15:38:43.39Z</time></trkpt><trkpt lat="32.8995667" lon="-8.3583617"><ele>142.5</ele><time>2026-04-26T15:38:44.39Z</time></trkpt><trkpt lat="32.8996533" lon="-8.3582067"><ele>143.0</ele><time>2026-04-26T15:38:45.39Z</time></trkpt><trkpt lat="32.89974" lon="-8.3580467"><ele>142.66666666666666</ele><time>2026-04-26T15:38:46.391Z</time></trkpt><trkpt lat="32.8998283" lon="-8.3578833"><ele>142.33333333333334</ele><time>2026-04-26T15:38:47.39Z</time></trkpt><trkpt lat="32.8999167" lon="-8.3577183"><ele>142.0</ele><time>2026-04-26T15:38:48.39Z</time></trkpt><trkpt lat="32.9000033" lon="-8.3575517"><ele>141.66666666666669</ele><time>2026-04-26T15:38:49.39Z</time></trkpt><trkpt lat="32.9000933" lon="-8.3573783"><ele>141.33333333333334</ele><time>2026-04-26T15:38:50.391Z</time></trkpt><trkpt lat="32.90019" lon="-8.357205"><ele>141.0</ele><time>2026-04-26T15:38:51.39Z</time></trkpt><trkpt lat="32.9002867" lon="-8.3570317"><ele>141.0</ele><time>2026-04-26T15:38:52.39Z</time></trkpt><trkpt lat="32.90038" lon="-8.3568517"><ele>141.0</ele><time>2026-04-26T15:38:53.39Z</time></trkpt><trkpt lat="32.9004767" lon="-8.356675"><ele>141.0</ele><time>2026-04-26T15:38:54.39Z</time></trkpt><trkpt lat="32.9005733" lon="-8.356495"><ele>141.0</ele><time>2026-04-26T15:38:55.39Z</time></trkpt><trkpt lat="32.900665" lon="-8.35632"><ele>141.0</ele><time>2026-04-26T15:38:56.39Z</time></trkpt><trkpt lat="32.9007617" lon="-8.3561467"><ele>141.0</ele><time>2026-04-26T15:38:57.39Z</time></trkpt><trkpt lat="32.900855" lon="-8.3559717"><ele>141.0</ele><time>2026-04-26T15:38:58.39Z</time></trkpt><trkpt lat="32.900945" lon="-8.3557967"><ele>141.0</ele><time>2026-04-26T15:38:59.391Z</time></trkpt><trkpt lat="32.9010367" lon="-8.35562"><ele>141.0</ele><time>2026-04-26T15:39:00.39Z</time></trkpt><trkpt lat="32.9011283" lon="-8.35544"><ele>141.0</ele><time>2026-04-26T15:39:01.39Z</time></trkpt><trkpt lat="32.9012217" lon="-8.3552617"><ele>141.0</ele><time>2026-04-26T15:39:02.39Z</time></trkpt><trkpt lat="32.9013217" lon="-8.3550833"><ele>141.0</ele><time>2026-04-26T15:39:03.39Z</time></trkpt><trkpt lat="32.901425" lon="-8.3549017"><ele>141.0</ele><time>2026-04-26T15:39:04.39Z</time></trkpt><trkpt lat="32.9015283" lon="-8.3547233"><ele>141.0</ele><time>2026-04-26T15:39:05.39Z</time></trkpt><trkpt lat="32.9016283" lon="-8.3545433"><ele>141.0</ele><time>2026-04-26T15:39:06.39Z</time></trkpt><trkpt lat="32.9017267" lon="-8.3543633"><ele>140.0</ele><time>2026-04-26T15:39:07.39Z</time></trkpt><trkpt lat="32.9018233" lon="-8.3541817"><ele>139.0</ele><time>2026-04-26T15:39:08.39Z</time></trkpt><trkpt lat="32.90192" lon="-8.3539967"><ele>138.0</ele><time>2026-04-26T15:39:09.39Z</time></trkpt><trkpt lat="32.9020183" lon="-8.3538083"><ele>137.66666666666666</ele><time>2026-04-26T15:39:10.39Z</time></trkpt><trkpt lat="32.902115" lon="-8.353625"><ele>137.33333333333331</ele><time>2026-04-26T15:39:11.391Z</time></trkpt><trkpt lat="32.9022117" lon="-8.3534417"><ele>137.0</ele><time>2026-04-26T15:39:12.39Z</time></trkpt><trkpt lat="32.9023033" lon="-8.35326"><ele>137.0</ele><time>2026-04-26T15:39:13.39Z</time></trkpt><trkpt lat="32.9024033" lon="-8.3530833"><ele>137.0</ele><time>2026-04-26T15:39:14.39Z</time></trkpt><trkpt lat="32.9024983" lon="-8.352905"><ele>137.0</ele><time>2026-04-26T15:39:15.39Z</time></trkpt><trkpt lat="32.9025933" lon="-8.3527183"><ele>137.0</ele><time>2026-04-26T15:39:16.39Z</time></trkpt><trkpt lat="32.9026933" lon="-8.3525333"><ele>137.0</ele><time>2026-04-26T15:39:17.39Z</time></trkpt><trkpt lat="32.902795" lon="-8.352355"><ele>137.0</ele><time>2026-04-26T15:39:18.39Z</time></trkpt><trkpt lat="32.9028917" lon="-8.3521733"><ele>137.0</ele><time>2026-04-26T15:39:19.39Z</time></trkpt><trkpt lat="32.9029883" lon="-8.3519917"><ele>137.0</ele><time>2026-04-26T15:39:20.39Z</time></trkpt><trkpt lat="32.903085" lon="-8.3518167"><ele>137.0</ele><time>2026-04-26T15:39:21.39Z</time></trkpt><trkpt lat="32.9031817" lon="-8.3516333"><ele>137.0</ele><time>2026-04-26T15:39:22.39Z</time></trkpt><trkpt lat="32.9032917" lon="-8.351455"><ele>137.0</ele><time>2026-04-26T15:39:23.39Z</time></trkpt><trkpt lat="32.9033983" lon="-8.3512767"><ele>137.0</ele><time>2026-04-26T15:39:24.39Z</time></trkpt><trkpt lat="32.9035033" lon="-8.3510933"><ele>136.33333333333331</ele><time>2026-04-26T15:39:25.39Z</time></trkpt><trkpt lat="32.9036167" lon="-8.3509117"><ele>135.66666666666666</ele><time>2026-04-26T15:39:26.391Z</time></trkpt><trkpt lat="32.9037267" lon="-8.3507317"><ele>135.0</ele><time>2026-04-26T15:39:27.39Z</time></trkpt><trkpt lat="32.903835" lon="-8.3505617"><ele>135.66666666666666</ele><time>2026-04-26T15:39:28.39Z</time></trkpt><trkpt lat="32.90394" lon="-8.3503967"><ele>136.33333333333331</ele><time>2026-04-26T15:39:29.39Z</time></trkpt><trkpt lat="32.9040467" lon="-8.3502283"><ele>137.0</ele><time>2026-04-26T15:39:30.39Z</time></trkpt><trkpt lat="32.9041583" lon="-8.350065"><ele>137.0</ele><time>2026-04-26T15:39:31.39Z</time></trkpt><trkpt lat="32.904265" lon="-8.3498983"><ele>137.0</ele><time>2026-04-26T15:39:32.39Z</time></trkpt><trkpt lat="32.90437" lon="-8.349725"><ele>137.0</ele><time>2026-04-26T15:39:33.39Z</time></trkpt><trkpt lat="32.90448" lon="-8.349555"><ele>136.66666666666666</ele><time>2026-04-26T15:39:34.39Z</time></trkpt><trkpt lat="32.9045883" lon="-8.349385"><ele>136.33333333333334</ele><time>2026-04-26T15:39:35.39Z</time></trkpt><trkpt lat="32.9046967" lon="-8.3492167"><ele>136.0</ele><time>2026-04-26T15:39:36.39Z</time></trkpt><trkpt lat="32.904805" lon="-8.3490483"><ele>136.0</ele><time>2026-04-26T15:39:37.39Z</time></trkpt><trkpt lat="32.904915" lon="-8.34887"><ele>136.0</ele><time>2026-04-26T15:39:38.39Z</time></trkpt><trkpt lat="32.9050333" lon="-8.3486883"><ele>136.0</ele><time>2026-04-26T15:39:39.39Z</time></trkpt><trkpt lat="32.90515" lon="-8.3485067"><ele>136.0</ele><time>2026-04-26T15:39:40.39Z</time></trkpt><trkpt lat="32.9052667" lon="-8.34832"><ele>136.0</ele><time>2026-04-26T15:39:41.39Z</time></trkpt><trkpt lat="32.9053833" lon="-8.3481367"><ele>136.0</ele><time>2026-04-26T15:39:42.39Z</time></trkpt><trkpt lat="32.9055" lon="-8.3479517"><ele>135.66666666666669</ele><time>2026-04-26T15:39:43.39Z</time></trkpt><trkpt lat="32.9056117" lon="-8.3477667"><ele>135.33333333333334</ele><time>2026-04-26T15:39:44.39Z</time></trkpt><trkpt lat="32.9057283" lon="-8.3475867"><ele>135.0</ele><time>2026-04-26T15:39:45.39Z</time></trkpt><trkpt lat="32.9058433" lon="-8.34741"><ele>135.33333333333334</ele><time>2026-04-26T15:39:46.39Z</time></trkpt><trkpt lat="32.90595" lon="-8.34724"><ele>135.66666666666669</ele><time>2026-04-26T15:39:47.39Z</time></trkpt><trkpt lat="32.9060583" lon="-8.347075"><ele>136.0</ele><time>2026-04-26T15:39:48.39Z</time></trkpt><trkpt lat="32.906165" lon="-8.346915"><ele>136.0</ele><time>2026-04-26T15:39:49.39Z</time></trkpt><trkpt lat="32.9062683" lon="-8.3467533"><ele>136.0</ele><time>2026-04-26T15:39:50.39Z</time></trkpt><trkpt lat="32.9063667" lon="-8.3465917"><ele>136.0</ele><time>2026-04-26T15:39:51.39Z</time></trkpt><trkpt lat="32.9064733" lon="-8.3464333"><ele>135.66666666666669</ele><time>2026-04-26T15:39:52.39Z</time></trkpt><trkpt lat="32.9065767" lon="-8.3462717"><ele>135.33333333333334</ele><time>2026-04-26T15:39:53.39Z</time></trkpt><trkpt lat="32.906685" lon="-8.346115"><ele>135.0</ele><time>2026-04-26T15:39:54.39Z</time></trkpt><trkpt lat="32.9067867" lon="-8.3459467"><ele>136.0</ele><time>2026-04-26T15:39:55.39Z</time></trkpt><trkpt lat="32.90689" lon="-8.3457867"><ele>137.0</ele><time>2026-04-26T15:39:56.39Z</time></trkpt><trkpt lat="32.90699" lon="-8.3456217"><ele>138.0</ele><time>2026-04-26T15:39:57.39Z</time></trkpt><trkpt lat="32.9070917" lon="-8.3454583"><ele>138.0</ele><time>2026-04-26T15:39:58.39Z</time></trkpt><trkpt lat="32.9071983" lon="-8.345295"><ele>138.0</ele><time>2026-04-26T15:39:59.39Z</time></trkpt><trkpt lat="32.9073083" lon="-8.3451317"><ele>138.0</ele><time>2026-04-26T15:40:00.39Z</time></trkpt><trkpt lat="32.90741" lon="-8.3449733"><ele>138.0</ele><time>2026-04-26T15:40:01.39Z</time></trkpt><trkpt lat="32.907515" lon="-8.3448133"><ele>138.0</ele><time>2026-04-26T15:40:02.39Z</time></trkpt><trkpt lat="32.9076267" lon="-8.344665"><ele>138.0</ele><time>2026-04-26T15:40:03.39Z</time></trkpt><trkpt lat="32.907735" lon="-8.3445233"><ele>138.0</ele><time>2026-04-26T15:40:04.39Z</time></trkpt><trkpt lat="32.9078467" lon="-8.3443833"><ele>138.0</ele><time>2026-04-26T15:40:05.39Z</time></trkpt><trkpt lat="32.907955" lon="-8.344245"><ele>138.0</ele><time>2026-04-26T15:40:06.391Z</time></trkpt><trkpt lat="32.90807" lon="-8.344105"><ele>138.0</ele><time>2026-04-26T15:40:07.39Z</time></trkpt><trkpt lat="32.9081817" lon="-8.3439633"><ele>138.0</ele><time>2026-04-26T15:40:08.39Z</time></trkpt><trkpt lat="32.90829" lon="-8.343815"><ele>138.0</ele><time>2026-04-26T15:40:09.39Z</time></trkpt><trkpt lat="32.9084" lon="-8.343665"><ele>139.0</ele><time>2026-04-26T15:40:10.39Z</time></trkpt><trkpt lat="32.908505" lon="-8.34351"><ele>140.0</ele><time>2026-04-26T15:40:11.39Z</time></trkpt><trkpt lat="32.9086117" lon="-8.3433467"><ele>141.0</ele><time>2026-04-26T15:40:12.39Z</time></trkpt><trkpt lat="32.90871" lon="-8.3431767"><ele>140.33333333333334</ele><time>2026-04-26T15:40:13.39Z</time></trkpt><trkpt lat="32.908805" lon="-8.34301"><ele>139.66666666666669</ele><time>2026-04-26T15:40:14.39Z</time></trkpt><trkpt lat="32.9088967" lon="-8.342835"><ele>139.0</ele><time>2026-04-26T15:40:15.39Z</time></trkpt><trkpt lat="32.9089867" lon="-8.3426533"><ele>139.0</ele><time>2026-04-26T15:40:16.39Z</time></trkpt><trkpt lat="32.909075" lon="-8.3424717"><ele>139.0</ele><time>2026-04-26T15:40:17.39Z</time></trkpt><trkpt lat="32.9091633" lon="-8.3422867"><ele>139.0</ele><time>2026-04-26T15:40:18.39Z</time></trkpt><trkpt lat="32.9092533" lon="-8.3421033"><ele>138.66666666666669</ele><time>2026-04-26T15:40:19.39Z</time></trkpt><trkpt lat="32.9093417" lon="-8.3419083"><ele>138.33333333333334</ele><time>2026-04-26T15:40:20.39Z</time></trkpt><trkpt lat="32.9094317" lon="-8.3417167"><ele>138.0</ele><time>2026-04-26T15:40:21.39Z</time></trkpt><trkpt lat="32.90952" lon="-8.3415267"><ele>138.33333333333334</ele><time>2026-04-26T15:40:22.39Z</time></trkpt><trkpt lat="32.9096067" lon="-8.341335"><ele>138.66666666666669</ele><time>2026-04-26T15:40:23.391Z</time></trkpt><trkpt lat="32.9096933" lon="-8.34114"><ele>139.0</ele><time>2026-04-26T15:40:24.39Z</time></trkpt><trkpt lat="32.9097783" lon="-8.3409483"><ele>139.0</ele><time>2026-04-26T15:40:25.39Z</time></trkpt><trkpt lat="32.90986" lon="-8.3407567"><ele>139.0</ele><time>2026-04-26T15:40:26.39Z</time></trkpt><trkpt lat="32.90995" lon="-8.3405683"><ele>139.0</ele><time>2026-04-26T15:40:27.39Z</time></trkpt><trkpt lat="32.910035" lon="-8.3403767"><ele>140.66666666666669</ele><time>2026-04-26T15:40:28.39Z</time></trkpt><trkpt lat="32.910125" lon="-8.340185"><ele>142.33333333333334</ele><time>2026-04-26T15:40:29.39Z</time></trkpt><trkpt lat="32.910215" lon="-8.3399967"><ele>144.0</ele><time>2026-04-26T15:40:30.39Z</time></trkpt><trkpt lat="32.9103017" lon="-8.3398083"><ele>143.66666666666666</ele><time>2026-04-26T15:40:31.39Z</time></trkpt><trkpt lat="32.9103933" lon="-8.3396233"><ele>143.33333333333331</ele><time>2026-04-26T15:40:32.39Z</time></trkpt><trkpt lat="32.9104833" lon="-8.339435"><ele>143.0</ele><time>2026-04-26T15:40:33.39Z</time></trkpt><trkpt lat="32.91057" lon="-8.33925"><ele>143.0</ele><time>2026-04-26T15:40:34.39Z</time></trkpt><trkpt lat="32.9106583" lon="-8.33907"><ele>143.0</ele><time>2026-04-26T15:40:35.39Z</time></trkpt><trkpt lat="32.910745" lon="-8.338885"><ele>143.0</ele><time>2026-04-26T15:40:36.39Z</time></trkpt><trkpt lat="32.9108367" lon="-8.3386967"><ele>143.33333333333331</ele><time>2026-04-26T15:40:37.391Z</time></trkpt><trkpt lat="32.91093" lon="-8.3385067"><ele>143.66666666666666</ele><time>2026-04-26T15:40:38.391Z</time></trkpt><trkpt lat="32.9110167" lon="-8.338315"><ele>144.0</ele><time>2026-04-26T15:40:39.39Z</time></trkpt><trkpt lat="32.9111033" lon="-8.3381167"><ele>144.33333333333334</ele><time>2026-04-26T15:40:40.39Z</time></trkpt><trkpt lat="32.9111933" lon="-8.3379233"><ele>144.66666666666669</ele><time>2026-04-26T15:40:41.39Z</time></trkpt><trkpt lat="32.911285" lon="-8.3377267"><ele>145.0</ele><time>2026-04-26T15:40:42.39Z</time></trkpt><trkpt lat="32.9113833" lon="-8.337525"><ele>145.0</ele><time>2026-04-26T15:40:43.39Z</time></trkpt><trkpt lat="32.9114767" lon="-8.33732"><ele>145.0</ele><time>2026-04-26T15:40:44.39Z</time></trkpt><trkpt lat="32.9115717" lon="-8.3371167"><ele>145.0</ele><time>2026-04-26T15:40:45.391Z</time></trkpt><trkpt lat="32.9116717" lon="-8.3369183"><ele>145.33333333333334</ele><time>2026-04-26T15:40:46.39Z</time></trkpt><trkpt lat="32.91177" lon="-8.336715"><ele>145.66666666666666</ele><time>2026-04-26T15:40:47.39Z</time></trkpt><trkpt lat="32.9118667" lon="-8.3365133"><ele>146.0</ele><time>2026-04-26T15:40:48.39Z</time></trkpt><trkpt lat="32.9119583" lon="-8.3363067"><ele>146.33333333333331</ele><time>2026-04-26T15:40:49.39Z</time></trkpt><trkpt lat="32.912055" lon="-8.3360967"><ele>146.66666666666666</ele><time>2026-04-26T15:40:50.39Z</time></trkpt><trkpt lat="32.912145" lon="-8.3358917"><ele>147.0</ele><time>2026-04-26T15:40:51.39Z</time></trkpt><trkpt lat="32.91224" lon="-8.3357"><ele>147.0</ele><time>2026-04-26T15:40:52.39Z</time></trkpt><trkpt lat="32.9123317" lon="-8.3355083"><ele>147.0</ele><time>2026-04-26T15:40:53.39Z</time></trkpt><trkpt lat="32.9124233" lon="-8.33531"><ele>147.0</ele><time>2026-04-26T15:40:54.39Z</time></trkpt><trkpt lat="32.9125133" lon="-8.3351167"><ele>147.0</ele><time>2026-04-26T15:40:55.39Z</time></trkpt><trkpt lat="32.9126067" lon="-8.3349183"><ele>147.0</ele><time>2026-04-26T15:40:56.39Z</time></trkpt><trkpt lat="32.9127017" lon="-8.3347133"><ele>147.0</ele><time>2026-04-26T15:40:57.39Z</time></trkpt><trkpt lat="32.9127983" lon="-8.3345033"><ele>147.0</ele><time>2026-04-26T15:40:58.39Z</time></trkpt><trkpt lat="32.9128933" lon="-8.3342967"><ele>147.0</ele><time>2026-04-26T15:40:59.39Z</time></trkpt><trkpt lat="32.91298" lon="-8.3340833"><ele>147.0</ele><time>2026-04-26T15:41:00.39Z</time></trkpt><trkpt lat="32.9130583" lon="-8.333875"><ele>147.0</ele><time>2026-04-26T15:41:01.39Z</time></trkpt><trkpt lat="32.9131383" lon="-8.333665"><ele>147.0</ele><time>2026-04-26T15:41:02.39Z</time></trkpt><trkpt lat="32.9132217" lon="-8.333455"><ele>147.0</ele><time>2026-04-26T15:41:03.39Z</time></trkpt><trkpt lat="32.9133033" lon="-8.333245"><ele>146.66666666666666</ele><time>2026-04-26T15:41:04.39Z</time></trkpt><trkpt lat="32.9133833" lon="-8.3330417"><ele>146.33333333333331</ele><time>2026-04-26T15:41:05.39Z</time></trkpt><trkpt lat="32.9134633" lon="-8.33285"><ele>146.0</ele><time>2026-04-26T15:41:06.39Z</time></trkpt><trkpt lat="32.91354" lon="-8.3326567"><ele>146.0</ele><time>2026-04-26T15:41:07.39Z</time></trkpt><trkpt lat="32.9136167" lon="-8.33246"><ele>146.0</ele><time>2026-04-26T15:41:08.39Z</time></trkpt><trkpt lat="32.9136983" lon="-8.3322633"><ele>146.0</ele><time>2026-04-26T15:41:09.39Z</time></trkpt><trkpt lat="32.9137783" lon="-8.3320633"><ele>146.0</ele><time>2026-04-26T15:41:10.39Z</time></trkpt><trkpt lat="32.9138583" lon="-8.3318633"><ele>146.0</ele><time>2026-04-26T15:41:11.39Z</time></trkpt><trkpt lat="32.913935" lon="-8.33166"><ele>146.0</ele><time>2026-04-26T15:41:12.39Z</time></trkpt><trkpt lat="32.914015" lon="-8.3314533"><ele>146.0</ele><time>2026-04-26T15:41:13.39Z</time></trkpt><trkpt lat="32.9140967" lon="-8.33125"><ele>146.0</ele><time>2026-04-26T15:41:14.391Z</time></trkpt><trkpt lat="32.914175" lon="-8.331045"><ele>146.0</ele><time>2026-04-26T15:41:15.39Z</time></trkpt><trkpt lat="32.914255" lon="-8.3308383"><ele>146.0</ele><time>2026-04-26T15:41:16.39Z</time></trkpt><trkpt lat="32.9143383" lon="-8.3306317"><ele>146.0</ele><time>2026-04-26T15:41:17.391Z</time></trkpt><trkpt lat="32.9144283" lon="-8.3304283"><ele>146.0</ele><time>2026-04-26T15:41:18.39Z</time></trkpt><trkpt lat="32.9145117" lon="-8.3302183"><ele>145.0</ele><time>2026-04-26T15:41:19.39Z</time></trkpt><trkpt lat="32.9145917" lon="-8.3300067"><ele>144.0</ele><time>2026-04-26T15:41:20.39Z</time></trkpt><trkpt lat="32.914675" lon="-8.32978"><ele>143.0</ele><time>2026-04-26T15:41:21.39Z</time></trkpt><trkpt lat="32.91476" lon="-8.3295583"><ele>142.33333333333331</ele><time>2026-04-26T15:41:22.39Z</time></trkpt><trkpt lat="32.9148433" lon="-8.329345"><ele>141.66666666666666</ele><time>2026-04-26T15:41:23.39Z</time></trkpt><trkpt lat="32.9149267" lon="-8.3291317"><ele>141.0</ele><time>2026-04-26T15:41:24.39Z</time></trkpt><trkpt lat="32.9150067" lon="-8.328925"><ele>140.0</ele><time>2026-04-26T15:41:25.39Z</time></trkpt><trkpt lat="32.915085" lon="-8.328725"><ele>139.0</ele><time>2026-04-26T15:41:26.39Z</time></trkpt><trkpt lat="32.9151633" lon="-8.328525"><ele>138.0</ele><time>2026-04-26T15:41:27.39Z</time></trkpt><trkpt lat="32.9152467" lon="-8.328325"><ele>138.0</ele><time>2026-04-26T15:41:28.39Z</time></trkpt><trkpt lat="32.915325" lon="-8.3281267"><ele>138.0</ele><time>2026-04-26T15:41:29.39Z</time></trkpt><trkpt lat="32.9154067" lon="-8.3279283"><ele>138.0</ele><time>2026-04-26T15:41:30.39Z</time></trkpt><trkpt lat="32.9154867" lon="-8.3277283"><ele>138.0</ele><time>2026-04-26T15:41:31.39Z</time></trkpt><trkpt lat="32.9155633" lon="-8.3275283"><ele>138.0</ele><time>2026-04-26T15:41:32.39Z</time></trkpt><trkpt lat="32.915645" lon="-8.3273267"><ele>138.0</ele><time>2026-04-26T15:41:33.39Z</time></trkpt><trkpt lat="32.9157217" lon="-8.327125"><ele>137.66666666666666</ele><time>2026-04-26T15:41:34.39Z</time></trkpt><trkpt lat="32.915805" lon="-8.3269217"><ele>137.33333333333331</ele><time>2026-04-26T15:41:35.39Z</time></trkpt><trkpt lat="32.9158817" lon="-8.326725"><ele>137.0</ele><time>2026-04-26T15:41:36.39Z</time></trkpt><trkpt lat="32.9159617" lon="-8.3265217"><ele>137.0</ele><time>2026-04-26T15:41:37.39Z</time></trkpt><trkpt lat="32.9160433" lon="-8.3263183"><ele>137.0</ele><time>2026-04-26T15:41:38.39Z</time></trkpt><trkpt lat="32.91613" lon="-8.3261133"><ele>137.0</ele><time>2026-04-26T15:41:39.39Z</time></trkpt><trkpt lat="32.91621" lon="-8.3259083"><ele>137.0</ele><time>2026-04-26T15:41:40.39Z</time></trkpt><trkpt lat="32.9162917" lon="-8.3257017"><ele>137.0</ele><time>2026-04-26T15:41:41.39Z</time></trkpt><trkpt lat="32.916375" lon="-8.3254933"><ele>137.0</ele><time>2026-04-26T15:41:42.39Z</time></trkpt><trkpt lat="32.916455" lon="-8.3252917"><ele>136.33333333333331</ele><time>2026-04-26T15:41:43.39Z</time></trkpt><trkpt lat="32.9165317" lon="-8.3250883"><ele>135.66666666666666</ele><time>2026-04-26T15:41:44.39Z</time></trkpt><trkpt lat="32.91661" lon="-8.3248917"><ele>135.0</ele><time>2026-04-26T15:41:45.39Z</time></trkpt><trkpt lat="32.9166867" lon="-8.3247"><ele>134.33333333333334</ele><time>2026-04-26T15:41:46.39Z</time></trkpt><trkpt lat="32.9167617" lon="-8.3245067"><ele>133.66666666666669</ele><time>2026-04-26T15:41:47.39Z</time></trkpt><trkpt lat="32.91684" lon="-8.3243133"><ele>133.0</ele><time>2026-04-26T15:41:48.39Z</time></trkpt><trkpt lat="32.9169183" lon="-8.3241217"><ele>133.0</ele><time>2026-04-26T15:41:49.39Z</time></trkpt><trkpt lat="32.917" lon="-8.3239233"><ele>133.0</ele><time>2026-04-26T15:41:50.391Z</time></trkpt><trkpt lat="32.917075" lon="-8.3237333"><ele>133.0</ele><time>2026-04-26T15:41:51.39Z</time></trkpt><trkpt lat="32.9171467" lon="-8.3235433"><ele>133.33333333333334</ele><time>2026-04-26T15:41:52.39Z</time></trkpt><trkpt lat="32.9172233" lon="-8.3233483"><ele>133.66666666666666</ele><time>2026-04-26T15:41:53.39Z</time></trkpt><trkpt lat="32.9173" lon="-8.3231567"><ele>134.0</ele><time>2026-04-26T15:41:54.391Z</time></trkpt><trkpt lat="32.91738" lon="-8.322955"><ele>134.0</ele><time>2026-04-26T15:41:55.39Z</time></trkpt><trkpt lat="32.9174617" lon="-8.3227533"><ele>134.0</ele><time>2026-04-26T15:41:56.39Z</time></trkpt><trkpt lat="32.9175433" lon="-8.322545"><ele>134.0</ele><time>2026-04-26T15:41:57.39Z</time></trkpt><trkpt lat="32.9176167" lon="-8.322335"><ele>133.0</ele><time>2026-04-26T15:41:58.39Z</time></trkpt><trkpt lat="32.9176867" lon="-8.322115"><ele>132.0</ele><time>2026-04-26T15:41:59.39Z</time></trkpt><trkpt lat="32.917755" lon="-8.3218933"><ele>131.0</ele><time>2026-04-26T15:42:00.39Z</time></trkpt><trkpt lat="32.917815" lon="-8.3216633"><ele>131.0</ele><time>2026-04-26T15:42:01.39Z</time></trkpt><trkpt lat="32.91787" lon="-8.3214367"><ele>131.0</ele><time>2026-04-26T15:42:02.39Z</time></trkpt><trkpt lat="32.917915" lon="-8.3212183"><ele>131.0</ele><time>2026-04-26T15:42:03.39Z</time></trkpt><trkpt lat="32.917955" lon="-8.3210117"><ele>131.0</ele><time>2026-04-26T15:42:04.39Z</time></trkpt><trkpt lat="32.9179933" lon="-8.32081"><ele>131.0</ele><time>2026-04-26T15:42:05.39Z</time></trkpt><trkpt lat="32.9180333" lon="-8.3206167"><ele>131.0</ele><time>2026-04-26T15:42:06.39Z</time></trkpt><trkpt lat="32.91807" lon="-8.3204283"><ele>131.0</ele><time>2026-04-26T15:42:07.391Z</time></trkpt><trkpt lat="32.9181067" lon="-8.3202517"><ele>131.0</ele><time>2026-04-26T15:42:08.39Z</time></trkpt><trkpt lat="32.918135" lon="-8.3200717"><ele>131.0</ele><time>2026-04-26T15:42:09.39Z</time></trkpt><trkpt lat="32.9181717" lon="-8.3198983"><ele>130.75</ele><time>2026-04-26T15:42:10.39Z</time></trkpt><trkpt lat="32.9182083" lon="-8.3197233"><ele>130.5</ele><time>2026-04-26T15:42:11.39Z</time></trkpt><trkpt lat="32.9182367" lon="-8.3195483"><ele>130.25</ele><time>2026-04-26T15:42:12.391Z</time></trkpt><trkpt lat="32.91827" lon="-8.319385"><ele>130.0</ele><time>2026-04-26T15:42:13.39Z</time></trkpt><trkpt lat="32.91831" lon="-8.3192317"><ele>130.0</ele><time>2026-04-26T15:42:14.39Z</time></trkpt><trkpt lat="32.918345" lon="-8.3190817"><ele>130.0</ele><time>2026-04-26T15:42:15.39Z</time></trkpt><trkpt lat="32.918375" lon="-8.3189283"><ele>130.0</ele><time>2026-04-26T15:42:16.39Z</time></trkpt><trkpt lat="32.9184117" lon="-8.3187733"><ele>130.0</ele><time>2026-04-26T15:42:17.39Z</time></trkpt><trkpt lat="32.91845" lon="-8.3186067"><ele>128.66666666666669</ele><time>2026-04-26T15:42:18.39Z</time></trkpt><trkpt lat="32.9184883" lon="-8.31844"><ele>127.33333333333334</ele><time>2026-04-26T15:42:19.39Z</time></trkpt><trkpt lat="32.9185267" lon="-8.3182583"><ele>126.0</ele><time>2026-04-26T15:42:20.39Z</time></trkpt><trkpt lat="32.9185683" lon="-8.3180733"><ele>125.33333333333334</ele><time>2026-04-26T15:42:21.39Z</time></trkpt><trkpt lat="32.9186133" lon="-8.3178833"><ele>124.66666666666667</ele><time>2026-04-26T15:42:22.39Z</time></trkpt><trkpt lat="32.9186533" lon="-8.3176967"><ele>124.0</ele><time>2026-04-26T15:42:23.39Z</time></trkpt><trkpt lat="32.9186933" lon="-8.3174983"><ele>124.0</ele><time>2026-04-26T15:42:24.39Z</time></trkpt><trkpt lat="32.9187367" lon="-8.3173033"><ele>124.0</ele><time>2026-04-26T15:42:25.39Z</time></trkpt><trkpt lat="32.9187783" lon="-8.3171067"><ele>124.0</ele><time>2026-04-26T15:42:26.39Z</time></trkpt><trkpt lat="32.9188233" lon="-8.316905"><ele>124.66666666666667</ele><time>2026-04-26T15:42:27.39Z</time></trkpt><trkpt lat="32.918865" lon="-8.3167033"><ele>125.33333333333334</ele><time>2026-04-26T15:42:28.39Z</time></trkpt><trkpt lat="32.918905" lon="-8.3164967"><ele>126.0</ele><time>2026-04-26T15:42:29.389Z</time></trkpt><trkpt lat="32.9189467" lon="-8.31629"><ele>126.0</ele><time>2026-04-26T15:42:30.389Z</time></trkpt><trkpt lat="32.9189883" lon="-8.3160867"><ele>126.0</ele><time>2026-04-26T15:42:31.39Z</time></trkpt><trkpt lat="32.9190267" lon="-8.3158867"><ele>126.0</ele><time>2026-04-26T15:42:32.389Z</time></trkpt><trkpt lat="32.9190667" lon="-8.3157017"><ele>126.0</ele><time>2026-04-26T15:42:33.389Z</time></trkpt><trkpt lat="32.9190983" lon="-8.3155233"><ele>126.0</ele><time>2026-04-26T15:42:34.389Z</time></trkpt><trkpt lat="32.9191333" lon="-8.31536"><ele>126.0</ele><time>2026-04-26T15:42:35.389Z</time></trkpt><trkpt lat="32.9191667" lon="-8.3152033"><ele>126.0</ele><time>2026-04-26T15:42:36.389Z</time></trkpt><trkpt lat="32.9192" lon="-8.315055"><ele>126.0</ele><time>2026-04-26T15:42:37.389Z</time></trkpt><trkpt lat="32.91923" lon="-8.314915"><ele>126.0</ele><time>2026-04-26T15:42:38.389Z</time></trkpt><trkpt lat="32.9192583" lon="-8.3147817"><ele>126.0</ele><time>2026-04-26T15:42:39.389Z</time></trkpt><trkpt lat="32.9192833" lon="-8.3146533"><ele>126.0</ele><time>2026-04-26T15:42:40.389Z</time></trkpt><trkpt lat="32.9193133" lon="-8.3145167"><ele>125.75</ele><time>2026-04-26T15:42:41.39Z</time></trkpt><trkpt lat="32.9193433" lon="-8.3143767"><ele>125.5</ele><time>2026-04-26T15:42:42.389Z</time></trkpt><trkpt lat="32.9193717" lon="-8.3142367"><ele>125.25</ele><time>2026-04-26T15:42:43.39Z</time></trkpt><trkpt lat="32.9194017" lon="-8.3140967"><ele>125.0</ele><time>2026-04-26T15:42:44.389Z</time></trkpt><trkpt lat="32.919425" lon="-8.3139633"><ele>125.0</ele><time>2026-04-26T15:42:45.389Z</time></trkpt><trkpt lat="32.9194467" lon="-8.3138283"><ele>125.0</ele><time>2026-04-26T15:42:46.389Z</time></trkpt><trkpt lat="32.9194733" lon="-8.3136883"><ele>125.0</ele><time>2026-04-26T15:42:47.389Z</time></trkpt><trkpt lat="32.9195067" lon="-8.31354"><ele>125.0</ele><time>2026-04-26T15:42:48.389Z</time></trkpt><trkpt lat="32.9195433" lon="-8.3133883"><ele>125.0</ele><time>2026-04-26T15:42:49.389Z</time></trkpt><trkpt lat="32.9195783" lon="-8.3132283"><ele>125.0</ele><time>2026-04-26T15:42:50.389Z</time></trkpt><trkpt lat="32.9196117" lon="-8.313065"><ele>125.0</ele><time>2026-04-26T15:42:51.389Z</time></trkpt><trkpt lat="32.9196433" lon="-8.3129"><ele>125.0</ele><time>2026-04-26T15:42:52.389Z</time></trkpt><trkpt lat="32.9196817" lon="-8.3127283"><ele>125.25</ele><time>2026-04-26T15:42:53.389Z</time></trkpt><trkpt lat="32.91972" lon="-8.312555"><ele>125.5</ele><time>2026-04-26T15:42:54.389Z</time></trkpt><trkpt lat="32.9197583" lon="-8.3123917"><ele>125.75</ele><time>2026-04-26T15:42:55.389Z</time></trkpt><trkpt lat="32.919795" lon="-8.3122367"><ele>126.0</ele><time>2026-04-26T15:42:56.389Z</time></trkpt><trkpt lat="32.9198283" lon="-8.3120833"><ele>126.25</ele><time>2026-04-26T15:42:57.389Z</time></trkpt><trkpt lat="32.9198617" lon="-8.31193"><ele>126.5</ele><time>2026-04-26T15:42:58.389Z</time></trkpt><trkpt lat="32.9198983" lon="-8.3117733"><ele>126.75</ele><time>2026-04-26T15:42:59.389Z</time></trkpt><trkpt lat="32.9199317" lon="-8.31161"><ele>127.0</ele><time>2026-04-26T15:43:00.389Z</time></trkpt><trkpt lat="32.9199667" lon="-8.3114433"><ele>127.0</ele><time>2026-04-26T15:43:01.389Z</time></trkpt><trkpt lat="32.9200017" lon="-8.3112733"><ele>127.0</ele><time>2026-04-26T15:43:02.389Z</time></trkpt><trkpt lat="32.9200417" lon="-8.31111"><ele>127.0</ele><time>2026-04-26T15:43:03.389Z</time></trkpt><trkpt lat="32.9200783" lon="-8.3109517"><ele>127.0</ele><time>2026-04-26T15:43:04.389Z</time></trkpt><trkpt lat="32.9201167" lon="-8.3108"><ele>127.0</ele><time>2026-04-26T15:43:05.389Z</time></trkpt><trkpt lat="32.9201533" lon="-8.3106483"><ele>127.0</ele><time>2026-04-26T15:43:06.389Z</time></trkpt><trkpt lat="32.9201867" lon="-8.3104983"><ele>127.0</ele><time>2026-04-26T15:43:07.389Z</time></trkpt><trkpt lat="32.9202383" lon="-8.3103433"><ele>127.0</ele><time>2026-04-26T15:43:08.389Z</time></trkpt><trkpt lat="32.920305" lon="-8.3101867"><ele>126.75</ele><time>2026-04-26T15:43:09.389Z</time></trkpt><trkpt lat="32.92038" lon="-8.3100367"><ele>126.5</ele><time>2026-04-26T15:43:10.389Z</time></trkpt><trkpt lat="32.9204583" lon="-8.3098883"><ele>126.25</ele><time>2026-04-26T15:43:11.389Z</time></trkpt><trkpt lat="32.92054" lon="-8.3097383"><ele>126.0</ele><time>2026-04-26T15:43:12.389Z</time></trkpt><trkpt lat="32.92062" lon="-8.3095767"><ele>125.66666666666666</ele><time>2026-04-26T15:43:13.389Z</time></trkpt><trkpt lat="32.9206983" lon="-8.3094117"><ele>125.33333333333333</ele><time>2026-04-26T15:43:14.389Z</time></trkpt><trkpt lat="32.9207733" lon="-8.3092467"><ele>125.0</ele><time>2026-04-26T15:43:15.389Z</time></trkpt><trkpt lat="32.9208567" lon="-8.309085"><ele>125.0</ele><time>2026-04-26T15:43:16.39Z</time></trkpt><trkpt lat="32.920945" lon="-8.3089183"><ele>125.0</ele><time>2026-04-26T15:43:17.389Z</time></trkpt><trkpt lat="32.921035" lon="-8.3087483"><ele>125.0</ele><time>2026-04-26T15:43:18.389Z</time></trkpt><trkpt lat="32.9211267" lon="-8.3085883"><ele>125.0</ele><time>2026-04-26T15:43:19.389Z</time></trkpt><trkpt lat="32.921215" lon="-8.308425"><ele>125.0</ele><time>2026-04-26T15:43:20.389Z</time></trkpt><trkpt lat="32.9212917" lon="-8.3082733"><ele>125.0</ele><time>2026-04-26T15:43:21.389Z</time></trkpt><trkpt lat="32.9213667" lon="-8.308115"><ele>125.0</ele><time>2026-04-26T15:43:22.389Z</time></trkpt><trkpt lat="32.92144" lon="-8.30796"><ele>125.0</ele><time>2026-04-26T15:43:23.389Z</time></trkpt><trkpt lat="32.92152" lon="-8.3078083"><ele>125.0</ele><time>2026-04-26T15:43:24.389Z</time></trkpt><trkpt lat="32.9215983" lon="-8.307655"><ele>125.0</ele><time>2026-04-26T15:43:25.389Z</time></trkpt><trkpt lat="32.9216833" lon="-8.3075033"><ele>125.0</ele><time>2026-04-26T15:43:26.389Z</time></trkpt><trkpt lat="32.9217633" lon="-8.3073517"><ele>125.0</ele><time>2026-04-26T15:43:27.389Z</time></trkpt><trkpt lat="32.9218367" lon="-8.3071983"><ele>125.33333333333333</ele><time>2026-04-26T15:43:28.389Z</time></trkpt><trkpt lat="32.921915" lon="-8.3070417"><ele>125.66666666666666</ele><time>2026-04-26T15:43:29.389Z</time></trkpt><trkpt lat="32.9219967" lon="-8.30689"><ele>126.0</ele><time>2026-04-26T15:43:30.389Z</time></trkpt><trkpt lat="32.922075" lon="-8.3067367"><ele>126.0</ele><time>2026-04-26T15:43:31.389Z</time></trkpt><trkpt lat="32.922155" lon="-8.306585"><ele>126.0</ele><time>2026-04-26T15:43:32.389Z</time></trkpt><trkpt lat="32.9222317" lon="-8.3064317"><ele>126.0</ele><time>2026-04-26T15:43:33.389Z</time></trkpt><trkpt lat="32.9223067" lon="-8.306275"><ele>126.0</ele><time>2026-04-26T15:43:34.389Z</time></trkpt><trkpt lat="32.9223833" lon="-8.3061217"><ele>126.0</ele><time>2026-04-26T15:43:35.389Z</time></trkpt><trkpt lat="32.92246" lon="-8.3059633"><ele>126.0</ele><time>2026-04-26T15:43:36.389Z</time></trkpt><trkpt lat="32.9225433" lon="-8.305805"><ele>125.66666666666666</ele><time>2026-04-26T15:43:37.389Z</time></trkpt><trkpt lat="32.9226267" lon="-8.3056533"><ele>125.33333333333333</ele><time>2026-04-26T15:43:38.389Z</time></trkpt><trkpt lat="32.9226967" lon="-8.3054983"><ele>125.0</ele><time>2026-04-26T15:43:39.39Z</time></trkpt><trkpt lat="32.922775" lon="-8.305345"><ele>125.0</ele><time>2026-04-26T15:43:40.389Z</time></trkpt><trkpt lat="32.922855" lon="-8.30519"><ele>125.0</ele><time>2026-04-26T15:43:41.389Z</time></trkpt><trkpt lat="32.9229383" lon="-8.3050367"><ele>125.0</ele><time>2026-04-26T15:43:42.389Z</time></trkpt><trkpt lat="32.92302" lon="-8.3048817"><ele>125.33333333333333</ele><time>2026-04-26T15:43:43.389Z</time></trkpt><trkpt lat="32.9230983" lon="-8.30473"><ele>125.66666666666666</ele><time>2026-04-26T15:43:44.389Z</time></trkpt><trkpt lat="32.92318" lon="-8.3045733"><ele>126.0</ele><time>2026-04-26T15:43:45.39Z</time></trkpt><trkpt lat="32.92326" lon="-8.3044167"><ele>126.0</ele><time>2026-04-26T15:43:46.389Z</time></trkpt><trkpt lat="32.9233417" lon="-8.3042583"><ele>126.0</ele><time>2026-04-26T15:43:47.389Z</time></trkpt><trkpt lat="32.9234233" lon="-8.304105"><ele>126.0</ele><time>2026-04-26T15:43:48.389Z</time></trkpt><trkpt lat="32.9235" lon="-8.30396"><ele>126.25</ele><time>2026-04-26T15:43:49.389Z</time></trkpt><trkpt lat="32.9235733" lon="-8.3038117"><ele>126.5</ele><time>2026-04-26T15:43:50.39Z</time></trkpt><trkpt lat="32.923645" lon="-8.30366"><ele>126.75</ele><time>2026-04-26T15:43:51.389Z</time></trkpt><trkpt lat="32.9237183" lon="-8.3035083"><ele>127.0</ele><time>2026-04-26T15:43:52.389Z</time></trkpt><trkpt lat="32.9237917" lon="-8.3033483"><ele>127.0</ele><time>2026-04-26T15:43:53.389Z</time></trkpt><trkpt lat="32.9238617" lon="-8.3031833"><ele>127.0</ele><time>2026-04-26T15:43:54.389Z</time></trkpt><trkpt lat="32.9239367" lon="-8.303015"><ele>127.0</ele><time>2026-04-26T15:43:55.389Z</time></trkpt><trkpt lat="32.9240033" lon="-8.3028433"><ele>126.0</ele><time>2026-04-26T15:43:56.389Z</time></trkpt><trkpt lat="32.924065" lon="-8.3026617"><ele>125.0</ele><time>2026-04-26T15:43:57.389Z</time></trkpt><trkpt lat="32.9241333" lon="-8.3024783"><ele>124.0</ele><time>2026-04-26T15:43:58.39Z</time></trkpt><trkpt lat="32.9242033" lon="-8.30229"><ele>124.0</ele><time>2026-04-26T15:43:59.389Z</time></trkpt><trkpt lat="32.9242767" lon="-8.3020983"><ele>124.0</ele><time>2026-04-26T15:44:00.389Z</time></trkpt><trkpt lat="32.9243517" lon="-8.3019017"><ele>124.0</ele><time>2026-04-26T15:44:01.389Z</time></trkpt><trkpt lat="32.9244283" lon="-8.3016983"><ele>124.0</ele><time>2026-04-26T15:44:02.389Z</time></trkpt><trkpt lat="32.9245083" lon="-8.301495"><ele>124.0</ele><time>2026-04-26T15:44:03.389Z</time></trkpt><trkpt lat="32.924585" lon="-8.3012833"><ele>124.0</ele><time>2026-04-26T15:44:04.389Z</time></trkpt><trkpt lat="32.92466" lon="-8.3010733"><ele>124.33333333333334</ele><time>2026-04-26T15:44:05.389Z</time></trkpt><trkpt lat="32.9247383" lon="-8.3008583"><ele>124.66666666666666</ele><time>2026-04-26T15:44:06.389Z</time></trkpt><trkpt lat="32.9248167" lon="-8.300645"><ele>125.0</ele><time>2026-04-26T15:44:07.389Z</time></trkpt><trkpt lat="32.9248933" lon="-8.3004233"><ele>125.33333333333333</ele><time>2026-04-26T15:44:08.389Z</time></trkpt><trkpt lat="32.9249733" lon="-8.3002033"><ele>125.66666666666666</ele><time>2026-04-26T15:44:09.389Z</time></trkpt><trkpt lat="32.9250567" lon="-8.29998"><ele>126.0</ele><time>2026-04-26T15:44:10.389Z</time></trkpt><trkpt lat="32.9251333" lon="-8.2997533"><ele>125.66666666666666</ele><time>2026-04-26T15:44:11.389Z</time></trkpt><trkpt lat="32.9252133" lon="-8.29954"><ele>125.33333333333333</ele><time>2026-04-26T15:44:12.39Z</time></trkpt><trkpt lat="32.92529" lon="-8.29933"><ele>125.0</ele><time>2026-04-26T15:44:13.389Z</time></trkpt><trkpt lat="32.92537" lon="-8.299125"><ele>125.33333333333333</ele><time>2026-04-26T15:44:14.389Z</time></trkpt><trkpt lat="32.9254433" lon="-8.2989117"><ele>125.66666666666666</ele><time>2026-04-26T15:44:15.389Z</time></trkpt><trkpt lat="32.9255167" lon="-8.2987017"><ele>126.0</ele><time>2026-04-26T15:44:16.39Z</time></trkpt><trkpt lat="32.9255883" lon="-8.2984967"><ele>126.0</ele><time>2026-04-26T15:44:17.389Z</time></trkpt><trkpt lat="32.9256617" lon="-8.2982933"><ele>126.0</ele><time>2026-04-26T15:44:18.389Z</time></trkpt><trkpt lat="32.9257383" lon="-8.29809"><ele>126.0</ele><time>2026-04-26T15:44:19.39Z</time></trkpt><trkpt lat="32.9258117" lon="-8.297885"><ele>125.66666666666666</ele><time>2026-04-26T15:44:20.389Z</time></trkpt><trkpt lat="32.9258933" lon="-8.2976817"><ele>125.33333333333333</ele><time>2026-04-26T15:44:21.389Z</time></trkpt><trkpt lat="32.9259717" lon="-8.29747"><ele>125.0</ele><time>2026-04-26T15:44:22.389Z</time></trkpt><trkpt lat="32.92604" lon="-8.297265"><ele>125.0</ele><time>2026-04-26T15:44:23.389Z</time></trkpt><trkpt lat="32.9261083" lon="-8.2970683"><ele>125.0</ele><time>2026-04-26T15:44:24.389Z</time></trkpt><trkpt lat="32.9261783" lon="-8.29688"><ele>125.0</ele><time>2026-04-26T15:44:25.389Z</time></trkpt><trkpt lat="32.9262483" lon="-8.2967017"><ele>125.0</ele><time>2026-04-26T15:44:26.389Z</time></trkpt><trkpt lat="32.9263217" lon="-8.2965133"><ele>125.0</ele><time>2026-04-26T15:44:27.389Z</time></trkpt><trkpt lat="32.92639" lon="-8.296325"><ele>125.0</ele><time>2026-04-26T15:44:28.389Z</time></trkpt><trkpt lat="32.92646" lon="-8.2961267"><ele>124.66666666666666</ele><time>2026-04-26T15:44:29.389Z</time></trkpt><trkpt lat="32.9265317" lon="-8.2959317"><ele>124.33333333333334</ele><time>2026-04-26T15:44:30.389Z</time></trkpt><trkpt lat="32.9266067" lon="-8.2957367"><ele>124.0</ele><time>2026-04-26T15:44:31.389Z</time></trkpt><trkpt lat="32.9266817" lon="-8.2955383"><ele>124.66666666666667</ele><time>2026-04-26T15:44:32.389Z</time></trkpt><trkpt lat="32.9267517" lon="-8.2953383"><ele>125.33333333333334</ele><time>2026-04-26T15:44:33.389Z</time></trkpt><trkpt lat="32.9268283" lon="-8.2951333"><ele>126.0</ele><time>2026-04-26T15:44:34.389Z</time></trkpt><trkpt lat="32.9269067" lon="-8.2949283"><ele>126.33333333333334</ele><time>2026-04-26T15:44:35.389Z</time></trkpt><trkpt lat="32.926985" lon="-8.29472"><ele>126.66666666666667</ele><time>2026-04-26T15:44:36.389Z</time></trkpt><trkpt lat="32.9270633" lon="-8.2945067"><ele>127.0</ele><time>2026-04-26T15:44:37.389Z</time></trkpt><trkpt lat="32.9271433" lon="-8.2942967"><ele>127.0</ele><time>2026-04-26T15:44:38.389Z</time></trkpt><trkpt lat="32.9272217" lon="-8.2940833"><ele>127.0</ele><time>2026-04-26T15:44:39.389Z</time></trkpt><trkpt lat="32.9273" lon="-8.2938717"><ele>127.0</ele><time>2026-04-26T15:44:40.389Z</time></trkpt><trkpt lat="32.927375" lon="-8.2936733"><ele>127.0</ele><time>2026-04-26T15:44:41.389Z</time></trkpt><trkpt lat="32.9274533" lon="-8.29347"><ele>127.0</ele><time>2026-04-26T15:44:42.389Z</time></trkpt><trkpt lat="32.92753" lon="-8.293265"><ele>127.0</ele><time>2026-04-26T15:44:43.389Z</time></trkpt><trkpt lat="32.9276117" lon="-8.2930517"><ele>127.0</ele><time>2026-04-26T15:44:44.389Z</time></trkpt><trkpt lat="32.9276917" lon="-8.29284"><ele>127.0</ele><time>2026-04-26T15:44:45.389Z</time></trkpt><trkpt lat="32.92777" lon="-8.2926233"><ele>127.0</ele><time>2026-04-26T15:44:46.39Z</time></trkpt><trkpt lat="32.9278483" lon="-8.292415"><ele>126.66666666666667</ele><time>2026-04-26T15:44:47.389Z</time></trkpt><trkpt lat="32.92793" lon="-8.2922167"><ele>126.33333333333334</ele><time>2026-04-26T15:44:48.389Z</time></trkpt><trkpt lat="32.9280017" lon="-8.2920083"><ele>126.0</ele><time>2026-04-26T15:44:49.389Z</time></trkpt><trkpt lat="32.9280733" lon="-8.2918117"><ele>126.0</ele><time>2026-04-26T15:44:50.389Z</time></trkpt><trkpt lat="32.9281467" lon="-8.2916267"><ele>126.0</ele><time>2026-04-26T15:44:51.389Z</time></trkpt><trkpt lat="32.928215" lon="-8.291435"><ele>126.0</ele><time>2026-04-26T15:44:52.389Z</time></trkpt><trkpt lat="32.9282867" lon="-8.291245"><ele>126.0</ele><time>2026-04-26T15:44:53.389Z</time></trkpt><trkpt lat="32.9283567" lon="-8.2910467"><ele>126.0</ele><time>2026-04-26T15:44:54.39Z</time></trkpt><trkpt lat="32.9284317" lon="-8.2908517"><ele>126.0</ele><time>2026-04-26T15:44:55.389Z</time></trkpt><trkpt lat="32.92851" lon="-8.2906583"><ele>125.66666666666666</ele><time>2026-04-26T15:44:56.389Z</time></trkpt><trkpt lat="32.92858" lon="-8.2904583"><ele>125.33333333333333</ele><time>2026-04-26T15:44:57.389Z</time></trkpt><trkpt lat="32.9286533" lon="-8.2902567"><ele>125.0</ele><time>2026-04-26T15:44:58.389Z</time></trkpt><trkpt lat="32.92873" lon="-8.2900533"><ele>125.0</ele><time>2026-04-26T15:44:59.389Z</time></trkpt><trkpt lat="32.9288033" lon="-8.2898417"><ele>125.0</ele><time>2026-04-26T15:45:00.389Z</time></trkpt><trkpt lat="32.92888" lon="-8.28964"><ele>125.0</ele><time>2026-04-26T15:45:01.389Z</time></trkpt><trkpt lat="32.9289533" lon="-8.2894417"><ele>125.33333333333333</ele><time>2026-04-26T15:45:02.389Z</time></trkpt><trkpt lat="32.92903" lon="-8.2892383"><ele>125.66666666666666</ele><time>2026-04-26T15:45:03.389Z</time></trkpt><trkpt lat="32.9291083" lon="-8.2890333"><ele>126.0</ele><time>2026-04-26T15:45:04.389Z</time></trkpt><trkpt lat="32.9291883" lon="-8.288835"><ele>126.66666666666666</ele><time>2026-04-26T15:45:05.389Z</time></trkpt><trkpt lat="32.9292667" lon="-8.2886383"><ele>127.33333333333333</ele><time>2026-04-26T15:45:06.389Z</time></trkpt><trkpt lat="32.9293533" lon="-8.2884417"><ele>128.0</ele><time>2026-04-26T15:45:07.389Z</time></trkpt><trkpt lat="32.9294467" lon="-8.2882533"><ele>128.0</ele><time>2026-04-26T15:45:08.389Z</time></trkpt><trkpt lat="32.9295467" lon="-8.288075"><ele>128.0</ele><time>2026-04-26T15:45:09.389Z</time></trkpt><trkpt lat="32.929645" lon="-8.2878967"><ele>128.0</ele><time>2026-04-26T15:45:10.389Z</time></trkpt><trkpt lat="32.929745" lon="-8.2877167"><ele>128.0</ele><time>2026-04-26T15:45:11.389Z</time></trkpt><trkpt lat="32.92985" lon="-8.28754"><ele>128.0</ele><time>2026-04-26T15:45:12.389Z</time></trkpt><trkpt lat="32.9299533" lon="-8.2873633"><ele>128.0</ele><time>2026-04-26T15:45:13.389Z</time></trkpt><trkpt lat="32.9300583" lon="-8.2871817"><ele>128.33333333333331</ele><time>2026-04-26T15:45:14.389Z</time></trkpt><trkpt lat="32.930165" lon="-8.2869967"><ele>128.66666666666666</ele><time>2026-04-26T15:45:15.389Z</time></trkpt><trkpt lat="32.930275" lon="-8.286815"><ele>129.0</ele><time>2026-04-26T15:45:16.389Z</time></trkpt><trkpt lat="32.93039" lon="-8.286635"><ele>129.0</ele><time>2026-04-26T15:45:17.389Z</time></trkpt><trkpt lat="32.930505" lon="-8.28646"><ele>129.0</ele><time>2026-04-26T15:45:18.39Z</time></trkpt><trkpt lat="32.9306267" lon="-8.28629"><ele>129.0</ele><time>2026-04-26T15:45:19.389Z</time></trkpt><trkpt lat="32.9307433" lon="-8.2861167"><ele>128.0</ele><time>2026-04-26T15:45:20.389Z</time></trkpt><trkpt lat="32.9308617" lon="-8.2859483"><ele>127.0</ele><time>2026-04-26T15:45:21.389Z</time></trkpt><trkpt lat="32.93098" lon="-8.2857783"><ele>126.0</ele><time>2026-04-26T15:45:22.389Z</time></trkpt><trkpt lat="32.9310967" lon="-8.2856"><ele>126.33333333333334</ele><time>2026-04-26T15:45:23.389Z</time></trkpt><trkpt lat="32.9312217" lon="-8.2854233"><ele>126.66666666666667</ele><time>2026-04-26T15:45:24.389Z</time></trkpt><trkpt lat="32.931345" lon="-8.285245"><ele>127.0</ele><time>2026-04-26T15:45:25.389Z</time></trkpt><trkpt lat="32.9314683" lon="-8.2850633"><ele>127.0</ele><time>2026-04-26T15:45:26.389Z</time></trkpt><trkpt lat="32.931595" lon="-8.2848767"><ele>127.0</ele><time>2026-04-26T15:45:27.389Z</time></trkpt><trkpt lat="32.93172" lon="-8.2846933"><ele>127.0</ele><time>2026-04-26T15:45:28.389Z</time></trkpt><trkpt lat="32.9318467" lon="-8.2845117"><ele>126.66666666666667</ele><time>2026-04-26T15:45:29.389Z</time></trkpt><trkpt lat="32.9319733" lon="-8.28433"><ele>126.33333333333334</ele><time>2026-04-26T15:45:30.389Z</time></trkpt><trkpt lat="32.9321" lon="-8.28414"><ele>126.0</ele><time>2026-04-26T15:45:31.389Z</time></trkpt><trkpt lat="32.9322283" lon="-8.283945"><ele>126.0</ele><time>2026-04-26T15:45:32.389Z</time></trkpt><trkpt lat="32.9323583" lon="-8.2837567"><ele>126.0</ele><time>2026-04-26T15:45:33.389Z</time></trkpt><trkpt lat="32.93249" lon="-8.2835617"><ele>126.0</ele><time>2026-04-26T15:45:34.389Z</time></trkpt><trkpt lat="32.9326217" lon="-8.2833667"><ele>126.33333333333334</ele><time>2026-04-26T15:45:35.389Z</time></trkpt><trkpt lat="32.932755" lon="-8.2831733"><ele>126.66666666666667</ele><time>2026-04-26T15:45:36.389Z</time></trkpt><trkpt lat="32.9328883" lon="-8.2829867"><ele>127.0</ele><time>2026-04-26T15:45:37.389Z</time></trkpt><trkpt lat="32.933015" lon="-8.2828017"><ele>127.33333333333334</ele><time>2026-04-26T15:45:38.389Z</time></trkpt><trkpt lat="32.9331367" lon="-8.2826267"><ele>127.66666666666666</ele><time>2026-04-26T15:45:39.389Z</time></trkpt><trkpt lat="32.933255" lon="-8.282455"><ele>128.0</ele><time>2026-04-26T15:45:40.389Z</time></trkpt><trkpt lat="32.93337" lon="-8.2822817"><ele>127.66666666666666</ele><time>2026-04-26T15:45:41.389Z</time></trkpt><trkpt lat="32.93349" lon="-8.2821067"><ele>127.33333333333334</ele><time>2026-04-26T15:45:42.389Z</time></trkpt><trkpt lat="32.9336133" lon="-8.2819233"><ele>127.0</ele><time>2026-04-26T15:45:43.389Z</time></trkpt><trkpt lat="32.933735" lon="-8.2817383"><ele>127.0</ele><time>2026-04-26T15:45:44.389Z</time></trkpt><trkpt lat="32.9338583" lon="-8.2815517"><ele>127.0</ele><time>2026-04-26T15:45:45.389Z</time></trkpt><trkpt lat="32.9339817" lon="-8.28137"><ele>127.0</ele><time>2026-04-26T15:45:46.389Z</time></trkpt><trkpt lat="32.9341" lon="-8.28119"><ele>126.66666666666667</ele><time>2026-04-26T15:45:47.389Z</time></trkpt><trkpt lat="32.9342167" lon="-8.28102"><ele>126.33333333333334</ele><time>2026-04-26T15:45:48.389Z</time></trkpt><trkpt lat="32.9343317" lon="-8.2808517"><ele>126.0</ele><time>2026-04-26T15:45:49.389Z</time></trkpt><trkpt lat="32.9344517" lon="-8.28068"><ele>126.0</ele><time>2026-04-26T15:45:50.389Z</time></trkpt><trkpt lat="32.9345717" lon="-8.2805083"><ele>126.0</ele><time>2026-04-26T15:45:51.389Z</time></trkpt><trkpt lat="32.934685" lon="-8.2803383"><ele>126.0</ele><time>2026-04-26T15:45:52.389Z</time></trkpt><trkpt lat="32.9347967" lon="-8.2801783"><ele>126.0</ele><time>2026-04-26T15:45:53.389Z</time></trkpt><trkpt lat="32.9349117" lon="-8.28001"><ele>126.0</ele><time>2026-04-26T15:45:54.389Z</time></trkpt><trkpt lat="32.9350283" lon="-8.2798483"><ele>126.0</ele><time>2026-04-26T15:45:55.389Z</time></trkpt><trkpt lat="32.9351417" lon="-8.2796767"><ele>126.0</ele><time>2026-04-26T15:45:56.389Z</time></trkpt><trkpt lat="32.9352567" lon="-8.2795"><ele>126.0</ele><time>2026-04-26T15:45:57.389Z</time></trkpt><trkpt lat="32.9353733" lon="-8.2793167"><ele>126.0</ele><time>2026-04-26T15:45:58.389Z</time></trkpt><trkpt lat="32.9354983" lon="-8.2791367"><ele>126.0</ele><time>2026-04-26T15:45:59.389Z</time></trkpt><trkpt lat="32.935625" lon="-8.2789467"><ele>126.0</ele><time>2026-04-26T15:46:00.389Z</time></trkpt><trkpt lat="32.93575" lon="-8.2787617"><ele>126.0</ele><time>2026-04-26T15:46:01.389Z</time></trkpt><trkpt lat="32.9358683" lon="-8.27858"><ele>126.33333333333334</ele><time>2026-04-26T15:46:02.389Z</time></trkpt><trkpt lat="32.9359717" lon="-8.278405"><ele>126.66666666666667</ele><time>2026-04-26T15:46:03.39Z</time></trkpt><trkpt lat="32.9360833" lon="-8.2782367"><ele>127.0</ele><time>2026-04-26T15:46:04.389Z</time></trkpt><trkpt lat="32.936205" lon="-8.2780517"><ele>127.33333333333334</ele><time>2026-04-26T15:46:05.389Z</time></trkpt><trkpt lat="32.9363383" lon="-8.2778517"><ele>127.66666666666666</ele><time>2026-04-26T15:46:06.389Z</time></trkpt><trkpt lat="32.936465" lon="-8.277645"><ele>128.0</ele><time>2026-04-26T15:46:07.389Z</time></trkpt><trkpt lat="32.9365833" lon="-8.2774467"><ele>128.33333333333331</ele><time>2026-04-26T15:46:08.389Z</time></trkpt><trkpt lat="32.9366967" lon="-8.2772633"><ele>128.66666666666666</ele><time>2026-04-26T15:46:09.389Z</time></trkpt><trkpt lat="32.9368083" lon="-8.277085"><ele>129.0</ele><time>2026-04-26T15:46:10.389Z</time></trkpt><trkpt lat="32.9369083" lon="-8.2769117"><ele>128.33333333333334</ele><time>2026-04-26T15:46:11.389Z</time></trkpt><trkpt lat="32.9370117" lon="-8.276745"><ele>127.66666666666667</ele><time>2026-04-26T15:46:12.389Z</time></trkpt><trkpt lat="32.937115" lon="-8.2765767"><ele>127.0</ele><time>2026-04-26T15:46:13.389Z</time></trkpt><trkpt lat="32.9372167" lon="-8.2764067"><ele>127.0</ele><time>2026-04-26T15:46:14.389Z</time></trkpt><trkpt lat="32.937315" lon="-8.2762433"><ele>127.0</ele><time>2026-04-26T15:46:15.389Z</time></trkpt><trkpt lat="32.93741" lon="-8.2760833"><ele>127.0</ele><time>2026-04-26T15:46:16.389Z</time></trkpt><trkpt lat="32.93751" lon="-8.2759267"><ele>127.0</ele><time>2026-04-26T15:46:17.389Z</time></trkpt><trkpt lat="32.937615" lon="-8.2757617"><ele>127.0</ele><time>2026-04-26T15:46:18.389Z</time></trkpt><trkpt lat="32.937715" lon="-8.2755967"><ele>127.0</ele><time>2026-04-26T15:46:19.389Z</time></trkpt><trkpt lat="32.9378167" lon="-8.275435"><ele>127.0</ele><time>2026-04-26T15:46:20.389Z</time></trkpt><trkpt lat="32.937915" lon="-8.2752717"><ele>127.0</ele><time>2026-04-26T15:46:21.389Z</time></trkpt><trkpt lat="32.93802" lon="-8.2751083"><ele>127.0</ele><time>2026-04-26T15:46:22.389Z</time></trkpt><trkpt lat="32.9381217" lon="-8.2749417"><ele>127.0</ele><time>2026-04-26T15:46:23.389Z</time></trkpt><trkpt lat="32.938225" lon="-8.2747717"><ele>127.0</ele><time>2026-04-26T15:46:24.39Z</time></trkpt><trkpt lat="32.9383267" lon="-8.2745983"><ele>127.0</ele><time>2026-04-26T15:46:25.389Z</time></trkpt><trkpt lat="32.938435" lon="-8.2744217"><ele>127.0</ele><time>2026-04-26T15:46:26.389Z</time></trkpt><trkpt lat="32.9385467" lon="-8.2742467"><ele>127.0</ele><time>2026-04-26T15:46:27.389Z</time></trkpt><trkpt lat="32.9386583" lon="-8.2740633"><ele>127.0</ele><time>2026-04-26T15:46:28.389Z</time></trkpt><trkpt lat="32.9387733" lon="-8.2738833"><ele>126.66666666666667</ele><time>2026-04-26T15:46:29.389Z</time></trkpt><trkpt lat="32.9388867" lon="-8.2736933"><ele>126.33333333333334</ele><time>2026-04-26T15:46:30.389Z</time></trkpt><trkpt lat="32.9390033" lon="-8.2735033"><ele>126.0</ele><time>2026-04-26T15:46:31.389Z</time></trkpt><trkpt lat="32.9391217" lon="-8.27331"><ele>126.0</ele><time>2026-04-26T15:46:32.389Z</time></trkpt><trkpt lat="32.9392383" lon="-8.2731183"><ele>126.0</ele><time>2026-04-26T15:46:33.389Z</time></trkpt><trkpt lat="32.9393483" lon="-8.2729417"><ele>126.0</ele><time>2026-04-26T15:46:34.389Z</time></trkpt><trkpt lat="32.9394567" lon="-8.2727683"><ele>126.0</ele><time>2026-04-26T15:46:35.389Z</time></trkpt><trkpt lat="32.9395517" lon="-8.2726067"><ele>126.0</ele><time>2026-04-26T15:46:36.389Z</time></trkpt><trkpt lat="32.939645" lon="-8.27245"><ele>126.0</ele><time>2026-04-26T15:46:37.389Z</time></trkpt><trkpt lat="32.9397433" lon="-8.27229"><ele>126.66666666666666</ele><time>2026-04-26T15:46:38.389Z</time></trkpt><trkpt lat="32.9398433" lon="-8.2721283"><ele>127.33333333333333</ele><time>2026-04-26T15:46:39.389Z</time></trkpt><trkpt lat="32.939945" lon="-8.2719617"><ele>128.0</ele><time>2026-04-26T15:46:40.389Z</time></trkpt><trkpt lat="32.940045" lon="-8.27179"><ele>127.66666666666666</ele><time>2026-04-26T15:46:41.389Z</time></trkpt><trkpt lat="32.9401517" lon="-8.2716167"><ele>127.33333333333334</ele><time>2026-04-26T15:46:42.389Z</time></trkpt><trkpt lat="32.9402583" lon="-8.271445"><ele>127.0</ele><time>2026-04-26T15:46:43.389Z</time></trkpt><trkpt lat="32.9403567" lon="-8.2712767"><ele>127.0</ele><time>2026-04-26T15:46:44.389Z</time></trkpt><trkpt lat="32.9404533" lon="-8.2711183"><ele>127.0</ele><time>2026-04-26T15:46:45.389Z</time></trkpt><trkpt lat="32.94055" lon="-8.27096"><ele>127.0</ele><time>2026-04-26T15:46:46.389Z</time></trkpt><trkpt lat="32.9406467" lon="-8.2708067"><ele>127.0</ele><time>2026-04-26T15:46:47.389Z</time></trkpt><trkpt lat="32.940745" lon="-8.2706517"><ele>127.0</ele><time>2026-04-26T15:46:48.39Z</time></trkpt><trkpt lat="32.9408417" lon="-8.2704967"><ele>127.0</ele><time>2026-04-26T15:46:49.389Z</time></trkpt><trkpt lat="32.9409317" lon="-8.2703433"><ele>126.66666666666667</ele><time>2026-04-26T15:46:50.389Z</time></trkpt><trkpt lat="32.9410233" lon="-8.2701883"><ele>126.33333333333334</ele><time>2026-04-26T15:46:51.389Z</time></trkpt><trkpt lat="32.941115" lon="-8.270035"><ele>126.0</ele><time>2026-04-26T15:46:52.389Z</time></trkpt><trkpt lat="32.94121" lon="-8.2698783"><ele>125.66666666666666</ele><time>2026-04-26T15:46:53.389Z</time></trkpt><trkpt lat="32.9413033" lon="-8.2697283"><ele>125.33333333333333</ele><time>2026-04-26T15:46:54.389Z</time></trkpt><trkpt lat="32.9414" lon="-8.2695733"><ele>125.0</ele><time>2026-04-26T15:46:55.389Z</time></trkpt><trkpt lat="32.9414967" lon="-8.269415"><ele>125.0</ele><time>2026-04-26T15:46:56.389Z</time></trkpt><trkpt lat="32.9415933" lon="-8.2692567"><ele>125.0</ele><time>2026-04-26T15:46:57.389Z</time></trkpt><trkpt lat="32.94169" lon="-8.269095"><ele>125.0</ele><time>2026-04-26T15:46:58.389Z</time></trkpt><trkpt lat="32.9417883" lon="-8.2689333"><ele>124.66666666666666</ele><time>2026-04-26T15:46:59.389Z</time></trkpt><trkpt lat="32.94189" lon="-8.2687717"><ele>124.33333333333334</ele><time>2026-04-26T15:47:00.389Z</time></trkpt><trkpt lat="32.9419917" lon="-8.268605"><ele>124.0</ele><time>2026-04-26T15:47:01.389Z</time></trkpt><trkpt lat="32.9420967" lon="-8.26844"><ele>124.0</ele><time>2026-04-26T15:47:02.389Z</time></trkpt><trkpt lat="32.9421967" lon="-8.2682633"><ele>124.0</ele><time>2026-04-26T15:47:03.389Z</time></trkpt><trkpt lat="32.9422967" lon="-8.268085"><ele>124.0</ele><time>2026-04-26T15:47:04.389Z</time></trkpt><trkpt lat="32.9424083" lon="-8.2679083"><ele>124.33333333333334</ele><time>2026-04-26T15:47:05.39Z</time></trkpt><trkpt lat="32.9425233" lon="-8.2677283"><ele>124.66666666666666</ele><time>2026-04-26T15:47:06.389Z</time></trkpt><trkpt lat="32.9426367" lon="-8.267545"><ele>125.0</ele><time>2026-04-26T15:47:07.389Z</time></trkpt><trkpt lat="32.9427483" lon="-8.2673583"><ele>125.0</ele><time>2026-04-26T15:47:08.389Z</time></trkpt><trkpt lat="32.942855" lon="-8.2671683"><ele>125.0</ele><time>2026-04-26T15:47:09.389Z</time></trkpt><trkpt lat="32.942955" lon="-8.2669883"><ele>125.0</ele><time>2026-04-26T15:47:10.389Z</time></trkpt><trkpt lat="32.943055" lon="-8.26681"><ele>125.0</ele><time>2026-04-26T15:47:11.389Z</time></trkpt><trkpt lat="32.9431533" lon="-8.26663"><ele>125.0</ele><time>2026-04-26T15:47:12.389Z</time></trkpt><trkpt lat="32.943245" lon="-8.2664517"><ele>125.0</ele><time>2026-04-26T15:47:13.389Z</time></trkpt><trkpt lat="32.943335" lon="-8.2662783"><ele>125.66666666666666</ele><time>2026-04-26T15:47:14.389Z</time></trkpt><trkpt lat="32.943425" lon="-8.266105"><ele>126.33333333333334</ele><time>2026-04-26T15:47:15.389Z</time></trkpt><trkpt lat="32.9435133" lon="-8.2659317"><ele>127.0</ele><time>2026-04-26T15:47:16.389Z</time></trkpt><trkpt lat="32.943605" lon="-8.2657583"><ele>127.0</ele><time>2026-04-26T15:47:17.389Z</time></trkpt><trkpt lat="32.9436933" lon="-8.26558"><ele>127.0</ele><time>2026-04-26T15:47:18.389Z</time></trkpt><trkpt lat="32.9437833" lon="-8.2654067"><ele>127.0</ele><time>2026-04-26T15:47:19.389Z</time></trkpt><trkpt lat="32.9438767" lon="-8.26523"><ele>127.0</ele><time>2026-04-26T15:47:20.389Z</time></trkpt><trkpt lat="32.94397" lon="-8.2650517"><ele>127.0</ele><time>2026-04-26T15:47:21.389Z</time></trkpt><trkpt lat="32.9440633" lon="-8.2648717"><ele>127.0</ele><time>2026-04-26T15:47:22.389Z</time></trkpt><trkpt lat="32.944155" lon="-8.2646917"><ele>126.66666666666667</ele><time>2026-04-26T15:47:23.389Z</time></trkpt><trkpt lat="32.944245" lon="-8.2645067"><ele>126.33333333333334</ele><time>2026-04-26T15:47:24.389Z</time></trkpt><trkpt lat="32.944335" lon="-8.264325"><ele>126.0</ele><time>2026-04-26T15:47:25.389Z</time></trkpt><trkpt lat="32.9444267" lon="-8.2641383"><ele>126.0</ele><time>2026-04-26T15:47:26.389Z</time></trkpt><trkpt lat="32.94451" lon="-8.2639483"><ele>126.0</ele><time>2026-04-26T15:47:27.389Z</time></trkpt><trkpt lat="32.9445983" lon="-8.2637617"><ele>126.0</ele><time>2026-04-26T15:47:28.389Z</time></trkpt><trkpt lat="32.9446917" lon="-8.2635733"><ele>126.0</ele><time>2026-04-26T15:47:29.389Z</time></trkpt><trkpt lat="32.9447783" lon="-8.263385"><ele>126.0</ele><time>2026-04-26T15:47:30.389Z</time></trkpt><trkpt lat="32.9448683" lon="-8.2631983"><ele>126.0</ele><time>2026-04-26T15:47:31.389Z</time></trkpt><trkpt lat="32.944955" lon="-8.2630117"><ele>125.33333333333334</ele><time>2026-04-26T15:47:32.39Z</time></trkpt><trkpt lat="32.945045" lon="-8.2628217"><ele>124.66666666666667</ele><time>2026-04-26T15:47:33.389Z</time></trkpt><trkpt lat="32.9451367" lon="-8.2626317"><ele>124.0</ele><time>2026-04-26T15:47:34.389Z</time></trkpt><trkpt lat="32.9452267" lon="-8.2624367"><ele>124.0</ele><time>2026-04-26T15:47:35.389Z</time></trkpt><trkpt lat="32.9453183" lon="-8.2622483"><ele>124.0</ele><time>2026-04-26T15:47:36.389Z</time></trkpt><trkpt lat="32.94541" lon="-8.2620583"><ele>124.0</ele><time>2026-04-26T15:47:37.389Z</time></trkpt><trkpt lat="32.9455017" lon="-8.2618617"><ele>124.0</ele><time>2026-04-26T15:47:38.389Z</time></trkpt><trkpt lat="32.9455983" lon="-8.2616733"><ele>124.0</ele><time>2026-04-26T15:47:39.389Z</time></trkpt><trkpt lat="32.9456917" lon="-8.261485"><ele>124.0</ele><time>2026-04-26T15:47:40.389Z</time></trkpt><trkpt lat="32.94579" lon="-8.2612933"><ele>124.0</ele><time>2026-04-26T15:47:41.389Z</time></trkpt><trkpt lat="32.9458883" lon="-8.2611067"><ele>124.0</ele><time>2026-04-26T15:47:42.389Z</time></trkpt><trkpt lat="32.9459933" lon="-8.2609233"><ele>124.0</ele><time>2026-04-26T15:47:43.389Z</time></trkpt><trkpt lat="32.9461033" lon="-8.260745"><ele>124.0</ele><time>2026-04-26T15:47:44.389Z</time></trkpt><trkpt lat="32.946215" lon="-8.26057"><ele>124.0</ele><time>2026-04-26T15:47:45.389Z</time></trkpt><trkpt lat="32.9463317" lon="-8.260395"><ele>124.0</ele><time>2026-04-26T15:47:46.389Z</time></trkpt><trkpt lat="32.9464517" lon="-8.260225"><ele>124.0</ele><time>2026-04-26T15:47:47.39Z</time></trkpt><trkpt lat="32.94657" lon="-8.260055"><ele>124.0</ele><time>2026-04-26T15:47:48.389Z</time></trkpt><trkpt lat="32.9466917" lon="-8.2598917"><ele>124.0</ele><time>2026-04-26T15:47:49.389Z</time></trkpt><trkpt lat="32.9468167" lon="-8.2597317"><ele>124.33333333333334</ele><time>2026-04-26T15:47:50.389Z</time></trkpt><trkpt lat="32.9469417" lon="-8.2595717"><ele>124.66666666666666</ele><time>2026-04-26T15:47:51.389Z</time></trkpt><trkpt lat="32.9470667" lon="-8.2594167"><ele>125.0</ele><time>2026-04-26T15:47:52.389Z</time></trkpt><trkpt lat="32.947185" lon="-8.2592583"><ele>125.0</ele><time>2026-04-26T15:47:53.389Z</time></trkpt><trkpt lat="32.9473067" lon="-8.2590983"><ele>125.0</ele><time>2026-04-26T15:47:54.389Z</time></trkpt><trkpt lat="32.9474233" lon="-8.258945"><ele>125.0</ele><time>2026-04-26T15:47:55.389Z</time></trkpt><trkpt lat="32.9475367" lon="-8.25879"><ele>124.66666666666666</ele><time>2026-04-26T15:47:56.389Z</time></trkpt><trkpt lat="32.9476567" lon="-8.258635"><ele>124.33333333333334</ele><time>2026-04-26T15:47:57.389Z</time></trkpt><trkpt lat="32.9477717" lon="-8.25848"><ele>124.0</ele><time>2026-04-26T15:47:58.389Z</time></trkpt><trkpt lat="32.9478867" lon="-8.2583217"><ele>124.0</ele><time>2026-04-26T15:47:59.389Z</time></trkpt><trkpt lat="32.9480017" lon="-8.2581667"><ele>124.0</ele><time>2026-04-26T15:48:00.389Z</time></trkpt><trkpt lat="32.9481117" lon="-8.2580067"><ele>124.0</ele><time>2026-04-26T15:48:01.389Z</time></trkpt><trkpt lat="32.9482133" lon="-8.2578383"><ele>124.33333333333334</ele><time>2026-04-26T15:48:02.389Z</time></trkpt><trkpt lat="32.948305" lon="-8.2576667"><ele>124.66666666666666</ele><time>2026-04-26T15:48:03.389Z</time></trkpt><trkpt lat="32.948385" lon="-8.25748"><ele>125.0</ele><time>2026-04-26T15:48:04.39Z</time></trkpt><trkpt lat="32.9484617" lon="-8.25729"><ele>125.33333333333333</ele><time>2026-04-26T15:48:05.389Z</time></trkpt><trkpt lat="32.948535" lon="-8.2570933"><ele>125.66666666666666</ele><time>2026-04-26T15:48:06.389Z</time></trkpt><trkpt lat="32.9486067" lon="-8.2568983"><ele>126.0</ele><time>2026-04-26T15:48:07.389Z</time></trkpt><trkpt lat="32.9486717" lon="-8.2566983"><ele>126.0</ele><time>2026-04-26T15:48:08.389Z</time></trkpt><trkpt lat="32.948735" lon="-8.2564933"><ele>126.0</ele><time>2026-04-26T15:48:09.389Z</time></trkpt><trkpt lat="32.9487933" lon="-8.2562867"><ele>126.0</ele><time>2026-04-26T15:48:10.389Z</time></trkpt><trkpt lat="32.94885" lon="-8.2560833"><ele>126.0</ele><time>2026-04-26T15:48:11.389Z</time></trkpt><trkpt lat="32.9489" lon="-8.2558733"><ele>126.0</ele><time>2026-04-26T15:48:12.389Z</time></trkpt><trkpt lat="32.9489417" lon="-8.2556617"><ele>126.0</ele><time>2026-04-26T15:48:13.39Z</time></trkpt><trkpt lat="32.9489717" lon="-8.2554483"><ele>126.0</ele><time>2026-04-26T15:48:14.389Z</time></trkpt><trkpt lat="32.9490017" lon="-8.2552367"><ele>126.0</ele><time>2026-04-26T15:48:15.39Z</time></trkpt><trkpt lat="32.94903" lon="-8.2550267"><ele>126.0</ele><time>2026-04-26T15:48:16.389Z</time></trkpt><trkpt lat="32.9490617" lon="-8.254815"><ele>125.0</ele><time>2026-04-26T15:48:17.389Z</time></trkpt><trkpt lat="32.9490933" lon="-8.2546033"><ele>124.0</ele><time>2026-04-26T15:48:18.389Z</time></trkpt><trkpt lat="32.949125" lon="-8.2543983"><ele>123.0</ele><time>2026-04-26T15:48:19.389Z</time></trkpt><trkpt lat="32.9491583" lon="-8.254195"><ele>123.0</ele><time>2026-04-26T15:48:20.389Z</time></trkpt><trkpt lat="32.94919" lon="-8.2539933"><ele>123.0</ele><time>2026-04-26T15:48:21.389Z</time></trkpt><trkpt lat="32.9492267" lon="-8.253785"><ele>123.0</ele><time>2026-04-26T15:48:22.389Z</time></trkpt><trkpt lat="32.9492633" lon="-8.253585"><ele>122.66666666666666</ele><time>2026-04-26T15:48:23.389Z</time></trkpt><trkpt lat="32.9492983" lon="-8.253385"><ele>122.33333333333333</ele><time>2026-04-26T15:48:24.389Z</time></trkpt><trkpt lat="32.9493333" lon="-8.2531817"><ele>122.0</ele><time>2026-04-26T15:48:25.389Z</time></trkpt><trkpt lat="32.9493667" lon="-8.2529783"><ele>122.66666666666666</ele><time>2026-04-26T15:48:26.389Z</time></trkpt><trkpt lat="32.9494" lon="-8.2527783"><ele>123.33333333333334</ele><time>2026-04-26T15:48:27.389Z</time></trkpt><trkpt lat="32.9494283" lon="-8.252565"><ele>124.0</ele><time>2026-04-26T15:48:28.389Z</time></trkpt><trkpt lat="32.9494617" lon="-8.25236"><ele>124.66666666666667</ele><time>2026-04-26T15:48:29.389Z</time></trkpt><trkpt lat="32.9495" lon="-8.2521533"><ele>125.33333333333334</ele><time>2026-04-26T15:48:30.389Z</time></trkpt><trkpt lat="32.9495367" lon="-8.2519433"><ele>126.0</ele><time>2026-04-26T15:48:31.389Z</time></trkpt><trkpt lat="32.9495783" lon="-8.2517317"><ele>126.0</ele><time>2026-04-26T15:48:32.389Z</time></trkpt><trkpt lat="32.94962" lon="-8.2515267"><ele>126.0</ele><time>2026-04-26T15:48:33.389Z</time></trkpt><trkpt lat="32.9496683" lon="-8.2513267"><ele>126.0</ele><time>2026-04-26T15:48:34.389Z</time></trkpt><trkpt lat="32.94972" lon="-8.251125"><ele>126.0</ele><time>2026-04-26T15:48:35.389Z</time></trkpt><trkpt lat="32.9497717" lon="-8.250925"><ele>126.0</ele><time>2026-04-26T15:48:36.389Z</time></trkpt><trkpt lat="32.9498167" lon="-8.2507233"><ele>126.0</ele><time>2026-04-26T15:48:37.389Z</time></trkpt><trkpt lat="32.949865" lon="-8.2505283"><ele>126.0</ele><time>2026-04-26T15:48:38.389Z</time></trkpt><trkpt lat="32.9499083" lon="-8.2503367"><ele>126.0</ele><time>2026-04-26T15:48:39.389Z</time></trkpt><trkpt lat="32.9499567" lon="-8.2501483"><ele>126.0</ele><time>2026-04-26T15:48:40.389Z</time></trkpt><trkpt lat="32.9500033" lon="-8.249955"><ele>125.66666666666666</ele><time>2026-04-26T15:48:41.39Z</time></trkpt><trkpt lat="32.9500533" lon="-8.2497617"><ele>125.33333333333333</ele><time>2026-04-26T15:48:42.389Z</time></trkpt><trkpt lat="32.9501033" lon="-8.2495717"><ele>125.0</ele><time>2026-04-26T15:48:43.389Z</time></trkpt><trkpt lat="32.95015" lon="-8.2493817"><ele>125.0</ele><time>2026-04-26T15:48:44.389Z</time></trkpt><trkpt lat="32.9501933" lon="-8.2492017"><ele>125.0</ele><time>2026-04-26T15:48:45.389Z</time></trkpt><trkpt lat="32.95024" lon="-8.2490233"><ele>125.0</ele><time>2026-04-26T15:48:46.389Z</time></trkpt><trkpt lat="32.9502917" lon="-8.2488417"><ele>126.0</ele><time>2026-04-26T15:48:47.389Z</time></trkpt><trkpt lat="32.9503417" lon="-8.2486583"><ele>127.0</ele><time>2026-04-26T15:48:48.389Z</time></trkpt><trkpt lat="32.9503833" lon="-8.24848"><ele>128.0</ele><time>2026-04-26T15:48:49.389Z</time></trkpt><trkpt lat="32.9504283" lon="-8.2483033"><ele>127.66666666666666</ele><time>2026-04-26T15:48:50.389Z</time></trkpt><trkpt lat="32.9504733" lon="-8.2481233"><ele>127.33333333333334</ele><time>2026-04-26T15:48:51.389Z</time></trkpt><trkpt lat="32.9505117" lon="-8.2479383"><ele>127.0</ele><time>2026-04-26T15:48:52.389Z</time></trkpt><trkpt lat="32.9505633" lon="-8.2477533"><ele>127.0</ele><time>2026-04-26T15:48:53.39Z</time></trkpt><trkpt lat="32.9506133" lon="-8.2475683"><ele>127.0</ele><time>2026-04-26T15:48:54.389Z</time></trkpt><trkpt lat="32.9506617" lon="-8.2473817"><ele>127.0</ele><time>2026-04-26T15:48:55.389Z</time></trkpt><trkpt lat="32.9507067" lon="-8.24719"><ele>126.33333333333334</ele><time>2026-04-26T15:48:56.389Z</time></trkpt><trkpt lat="32.950755" lon="-8.246995"><ele>125.66666666666666</ele><time>2026-04-26T15:48:57.389Z</time></trkpt><trkpt lat="32.950805" lon="-8.246805"><ele>125.0</ele><time>2026-04-26T15:48:58.389Z</time></trkpt><trkpt lat="32.9508533" lon="-8.246615"><ele>125.66666666666666</ele><time>2026-04-26T15:48:59.389Z</time></trkpt><trkpt lat="32.950905" lon="-8.2464167"><ele>126.33333333333334</ele><time>2026-04-26T15:49:00.389Z</time></trkpt><trkpt lat="32.95095" lon="-8.246215"><ele>127.0</ele><time>2026-04-26T15:49:01.389Z</time></trkpt><trkpt lat="32.950995" lon="-8.2460133"><ele>127.0</ele><time>2026-04-26T15:49:02.389Z</time></trkpt><trkpt lat="32.9510467" lon="-8.2458117"><ele>127.0</ele><time>2026-04-26T15:49:03.389Z</time></trkpt><trkpt lat="32.9510967" lon="-8.245615"><ele>127.0</ele><time>2026-04-26T15:49:04.389Z</time></trkpt><trkpt lat="32.9511467" lon="-8.2454117"><ele>127.0</ele><time>2026-04-26T15:49:05.389Z</time></trkpt><trkpt lat="32.9511983" lon="-8.2452117"><ele>127.0</ele><time>2026-04-26T15:49:06.389Z</time></trkpt><trkpt lat="32.9512433" lon="-8.2450133"><ele>127.0</ele><time>2026-04-26T15:49:07.389Z</time></trkpt><trkpt lat="32.9512917" lon="-8.2448167"><ele>127.66666666666667</ele><time>2026-04-26T15:49:08.389Z</time></trkpt><trkpt lat="32.9513383" lon="-8.2446167"><ele>128.33333333333334</ele><time>2026-04-26T15:49:09.389Z</time></trkpt><trkpt lat="32.9513867" lon="-8.2444183"><ele>129.0</ele><time>2026-04-26T15:49:10.389Z</time></trkpt><trkpt lat="32.9514333" lon="-8.244225"><ele>129.0</ele><time>2026-04-26T15:49:11.389Z</time></trkpt><trkpt lat="32.9514817" lon="-8.2440383"><ele>129.0</ele><time>2026-04-26T15:49:12.389Z</time></trkpt><trkpt lat="32.95153" lon="-8.2438533"><ele>129.0</ele><time>2026-04-26T15:49:13.389Z</time></trkpt><trkpt lat="32.951585" lon="-8.2436633"><ele>129.33333333333334</ele><time>2026-04-26T15:49:14.389Z</time></trkpt><trkpt lat="32.9516367" lon="-8.2434733"><ele>129.66666666666669</ele><time>2026-04-26T15:49:15.389Z</time></trkpt><trkpt lat="32.9516883" lon="-8.2432767"><ele>130.0</ele><time>2026-04-26T15:49:16.389Z</time></trkpt><trkpt lat="32.9517367" lon="-8.2430783"><ele>129.33333333333334</ele><time>2026-04-26T15:49:17.389Z</time></trkpt><trkpt lat="32.951785" lon="-8.2428833"><ele>128.66666666666666</ele><time>2026-04-26T15:49:18.389Z</time></trkpt><trkpt lat="32.9518383" lon="-8.242675"><ele>128.0</ele><time>2026-04-26T15:49:19.389Z</time></trkpt><trkpt lat="32.9518933" lon="-8.24247"><ele>128.66666666666666</ele><time>2026-04-26T15:49:20.389Z</time></trkpt><trkpt lat="32.9519517" lon="-8.2422583"><ele>129.33333333333334</ele><time>2026-04-26T15:49:21.389Z</time></trkpt><trkpt lat="32.952005" lon="-8.2420483"><ele>130.0</ele><time>2026-04-26T15:49:22.389Z</time></trkpt><trkpt lat="32.9520617" lon="-8.24184"><ele>130.0</ele><time>2026-04-26T15:49:23.389Z</time></trkpt><trkpt lat="32.9521133" lon="-8.24163"><ele>130.0</ele><time>2026-04-26T15:49:24.389Z</time></trkpt><trkpt lat="32.952165" lon="-8.2414317"><ele>130.0</ele><time>2026-04-26T15:49:25.389Z</time></trkpt><trkpt lat="32.9522167" lon="-8.24125"><ele>129.66666666666669</ele><time>2026-04-26T15:49:26.389Z</time></trkpt><trkpt lat="32.95227" lon="-8.2410617"><ele>129.33333333333334</ele><time>2026-04-26T15:49:27.389Z</time></trkpt><trkpt lat="32.9523183" lon="-8.24087"><ele>129.0</ele><time>2026-04-26T15:49:28.389Z</time></trkpt><trkpt lat="32.9523617" lon="-8.2406733"><ele>129.0</ele><time>2026-04-26T15:49:29.389Z</time></trkpt><trkpt lat="32.9524117" lon="-8.24049"><ele>129.0</ele><time>2026-04-26T15:49:30.389Z</time></trkpt><trkpt lat="32.9524617" lon="-8.2403083"><ele>129.0</ele><time>2026-04-26T15:49:31.389Z</time></trkpt><trkpt lat="32.9525083" lon="-8.2401317"><ele>128.75</ele><time>2026-04-26T15:49:32.389Z</time></trkpt><trkpt lat="32.9525583" lon="-8.2399683"><ele>128.5</ele><time>2026-04-26T15:49:33.389Z</time></trkpt><trkpt lat="32.9526033" lon="-8.2398117"><ele>128.25</ele><time>2026-04-26T15:49:34.389Z</time></trkpt><trkpt lat="32.9526433" lon="-8.2396567"><ele>128.0</ele><time>2026-04-26T15:49:35.389Z</time></trkpt><trkpt lat="32.9526833" lon="-8.2395"><ele>128.0</ele><time>2026-04-26T15:49:36.389Z</time></trkpt><trkpt lat="32.9527217" lon="-8.239345"><ele>128.0</ele><time>2026-04-26T15:49:37.388Z</time></trkpt><trkpt lat="32.952765" lon="-8.2391917"><ele>128.0</ele><time>2026-04-26T15:49:38.388Z</time></trkpt><trkpt lat="32.952805" lon="-8.2390367"><ele>128.0</ele><time>2026-04-26T15:49:39.388Z</time></trkpt><trkpt lat="32.9528517" lon="-8.2388783"><ele>128.0</ele><time>2026-04-26T15:49:40.388Z</time></trkpt><trkpt lat="32.9528933" lon="-8.2387267"><ele>128.0</ele><time>2026-04-26T15:49:41.388Z</time></trkpt><trkpt lat="32.952935" lon="-8.2385783"><ele>128.0</ele><time>2026-04-26T15:49:42.388Z</time></trkpt><trkpt lat="32.9529767" lon="-8.2384333"><ele>128.0</ele><time>2026-04-26T15:49:43.388Z</time></trkpt><trkpt lat="32.9530217" lon="-8.23829"><ele>128.0</ele><time>2026-04-26T15:49:44.388Z</time></trkpt><trkpt lat="32.9530617" lon="-8.2381533"><ele>128.0</ele><time>2026-04-26T15:49:45.388Z</time></trkpt><trkpt lat="32.9530967" lon="-8.23803"><ele>128.0</ele><time>2026-04-26T15:49:46.388Z</time></trkpt><trkpt lat="32.9531283" lon="-8.237915"><ele>128.0</ele><time>2026-04-26T15:49:47.388Z</time></trkpt><trkpt lat="32.953155" lon="-8.2377917"><ele>128.0</ele><time>2026-04-26T15:49:48.388Z</time></trkpt><trkpt lat="32.953175" lon="-8.2376867"><ele>128.33333333333331</ele><time>2026-04-26T15:49:49.388Z</time></trkpt><trkpt lat="32.9531983" lon="-8.2375933"><ele>128.66666666666666</ele><time>2026-04-26T15:49:50.388Z</time></trkpt><trkpt lat="32.9532233" lon="-8.2375033"><ele>129.0</ele><time>2026-04-26T15:49:51.388Z</time></trkpt><trkpt lat="32.9532483" lon="-8.23741"><ele>129.33333333333334</ele><time>2026-04-26T15:49:52.388Z</time></trkpt><trkpt lat="32.9532733" lon="-8.2373217"><ele>129.66666666666669</ele><time>2026-04-26T15:49:53.388Z</time></trkpt><trkpt lat="32.9532983" lon="-8.2372317"><ele>130.0</ele><time>2026-04-26T15:49:54.388Z</time></trkpt><trkpt lat="32.9533183" lon="-8.2371467"><ele>130.0</ele><time>2026-04-26T15:49:55.388Z</time></trkpt><trkpt lat="32.9533383" lon="-8.2370633"><ele>130.0</ele><time>2026-04-26T15:49:56.388Z</time></trkpt><trkpt lat="32.9533617" lon="-8.23698"><ele>130.0</ele><time>2026-04-26T15:49:57.389Z</time></trkpt><trkpt lat="32.9533833" lon="-8.2368933"><ele>130.0</ele><time>2026-04-26T15:49:58.388Z</time></trkpt><trkpt lat="32.9534033" lon="-8.236805"><ele>130.0</ele><time>2026-04-26T15:49:59.388Z</time></trkpt><trkpt lat="32.9534267" lon="-8.2367083"><ele>130.0</ele><time>2026-04-26T15:50:00.388Z</time></trkpt><trkpt lat="32.9534483" lon="-8.23661"><ele>129.83333333333334</ele><time>2026-04-26T15:50:01.388Z</time></trkpt><trkpt lat="32.953475" lon="-8.2365183"><ele>129.66666666666669</ele><time>2026-04-26T15:50:02.388Z</time></trkpt><trkpt lat="32.9535" lon="-8.2364283"><ele>129.5</ele><time>2026-04-26T15:50:03.388Z</time></trkpt><trkpt lat="32.95353" lon="-8.2363283"><ele>129.33333333333334</ele><time>2026-04-26T15:50:04.388Z</time></trkpt><trkpt lat="32.9535633" lon="-8.2362283"><ele>129.16666666666666</ele><time>2026-04-26T15:50:05.388Z</time></trkpt><trkpt lat="32.95359" lon="-8.2361233"><ele>129.0</ele><time>2026-04-26T15:50:06.388Z</time></trkpt><trkpt lat="32.95363" lon="-8.2360233"><ele>129.0</ele><time>2026-04-26T15:50:07.388Z</time></trkpt><trkpt lat="32.9536783" lon="-8.235915"><ele>129.0</ele><time>2026-04-26T15:50:08.388Z</time></trkpt><trkpt lat="32.9537283" lon="-8.2357933"><ele>129.0</ele><time>2026-04-26T15:50:09.388Z</time></trkpt><trkpt lat="32.9537783" lon="-8.235665"><ele>129.0</ele><time>2026-04-26T15:50:10.388Z</time></trkpt><trkpt lat="32.953835" lon="-8.23553"><ele>129.0</ele><time>2026-04-26T15:50:11.388Z</time></trkpt><trkpt lat="32.953895" lon="-8.2353733"><ele>129.0</ele><time>2026-04-26T15:50:12.388Z</time></trkpt><trkpt lat="32.9539567" lon="-8.2352017"><ele>129.0</ele><time>2026-04-26T15:50:13.388Z</time></trkpt><trkpt lat="32.9540217" lon="-8.2350317"><ele>129.0</ele><time>2026-04-26T15:50:14.388Z</time></trkpt><trkpt lat="32.9540783" lon="-8.2348683"><ele>129.0</ele><time>2026-04-26T15:50:15.388Z</time></trkpt><trkpt lat="32.9541267" lon="-8.2347133"><ele>129.0</ele><time>2026-04-26T15:50:16.388Z</time></trkpt><trkpt lat="32.954175" lon="-8.2345683"><ele>129.0</ele><time>2026-04-26T15:50:17.388Z</time></trkpt><trkpt lat="32.9542333" lon="-8.2344083"><ele>129.0</ele><time>2026-04-26T15:50:18.388Z</time></trkpt><trkpt lat="32.9542967" lon="-8.2342417"><ele>129.0</ele><time>2026-04-26T15:50:19.388Z</time></trkpt><trkpt lat="32.954365" lon="-8.2340867"><ele>129.0</ele><time>2026-04-26T15:50:20.388Z</time></trkpt><trkpt lat="32.9544317" lon="-8.2339417"><ele>129.0</ele><time>2026-04-26T15:50:21.388Z</time></trkpt><trkpt lat="32.9545067" lon="-8.2337967"><ele>129.0</ele><time>2026-04-26T15:50:22.388Z</time></trkpt><trkpt lat="32.9545833" lon="-8.2336417"><ele>129.0</ele><time>2026-04-26T15:50:23.388Z</time></trkpt><trkpt lat="32.9546617" lon="-8.2334833"><ele>129.0</ele><time>2026-04-26T15:50:24.388Z</time></trkpt><trkpt lat="32.9547417" lon="-8.2333283"><ele>129.0</ele><time>2026-04-26T15:50:25.388Z</time></trkpt><trkpt lat="32.9548167" lon="-8.2331817"><ele>129.0</ele><time>2026-04-26T15:50:26.388Z</time></trkpt><trkpt lat="32.9548983" lon="-8.2330317"><ele>129.0</ele><time>2026-04-26T15:50:27.388Z</time></trkpt><trkpt lat="32.9549817" lon="-8.2328817"><ele>129.0</ele><time>2026-04-26T15:50:28.388Z</time></trkpt><trkpt lat="32.9550667" lon="-8.2327317"><ele>129.0</ele><time>2026-04-26T15:50:29.388Z</time></trkpt><trkpt lat="32.9551567" lon="-8.2325783"><ele>129.0</ele><time>2026-04-26T15:50:30.388Z</time></trkpt><trkpt lat="32.95525" lon="-8.2324267"><ele>129.0</ele><time>2026-04-26T15:50:31.388Z</time></trkpt><trkpt lat="32.955345" lon="-8.232265"><ele>129.0</ele><time>2026-04-26T15:50:32.388Z</time></trkpt><trkpt lat="32.9554417" lon="-8.232105"><ele>129.0</ele><time>2026-04-26T15:50:33.388Z</time></trkpt><trkpt lat="32.9555417" lon="-8.2319433"><ele>129.0</ele><time>2026-04-26T15:50:34.388Z</time></trkpt><trkpt lat="32.9556433" lon="-8.2317833"><ele>129.0</ele><time>2026-04-26T15:50:35.388Z</time></trkpt><trkpt lat="32.9557483" lon="-8.2316317"><ele>129.0</ele><time>2026-04-26T15:50:36.388Z</time></trkpt><trkpt lat="32.9558483" lon="-8.23149"><ele>129.0</ele><time>2026-04-26T15:50:37.388Z</time></trkpt><trkpt lat="32.9559433" lon="-8.2313517"><ele>129.0</ele><time>2026-04-26T15:50:38.389Z</time></trkpt><trkpt lat="32.9560433" lon="-8.2312133"><ele>129.0</ele><time>2026-04-26T15:50:39.388Z</time></trkpt><trkpt lat="32.9561467" lon="-8.2310733"><ele>129.0</ele><time>2026-04-26T15:50:40.388Z</time></trkpt><trkpt lat="32.956245" lon="-8.230935"><ele>129.0</ele><time>2026-04-26T15:50:41.388Z</time></trkpt><trkpt lat="32.9563433" lon="-8.23081"><ele>129.0</ele><time>2026-04-26T15:50:42.388Z</time></trkpt><trkpt lat="32.9564383" lon="-8.2306833"><ele>129.0</ele><time>2026-04-26T15:50:43.388Z</time></trkpt><trkpt lat="32.9565317" lon="-8.2305567"><ele>129.0</ele><time>2026-04-26T15:50:44.388Z</time></trkpt><trkpt lat="32.9566267" lon="-8.2304217"><ele>129.25</ele><time>2026-04-26T15:50:45.388Z</time></trkpt><trkpt lat="32.9567233" lon="-8.2302933"><ele>129.5</ele><time>2026-04-26T15:50:46.388Z</time></trkpt><trkpt lat="32.9568167" lon="-8.2301667"><ele>129.75</ele><time>2026-04-26T15:50:47.388Z</time></trkpt><trkpt lat="32.9569067" lon="-8.2300433"><ele>130.0</ele><time>2026-04-26T15:50:48.388Z</time></trkpt><trkpt lat="32.9569967" lon="-8.229935"><ele>130.0</ele><time>2026-04-26T15:50:49.388Z</time></trkpt><trkpt lat="32.9570783" lon="-8.22984"><ele>130.0</ele><time>2026-04-26T15:50:50.388Z</time></trkpt><trkpt lat="32.957145" lon="-8.2297583"><ele>130.0</ele><time>2026-04-26T15:50:51.388Z</time></trkpt><trkpt lat="32.9571983" lon="-8.2296917"><ele>130.0</ele><time>2026-04-26T15:50:52.388Z</time></trkpt><trkpt lat="32.957275" lon="-8.22959"><ele>130.0</ele><time>2026-04-26T15:50:54.388Z</time></trkpt><trkpt lat="32.9573333" lon="-8.2295017"><ele>129.8</ele><time>2026-04-26T15:50:56.388Z</time></trkpt><trkpt lat="32.9573717" lon="-8.2294"><ele>129.6</ele><time>2026-04-26T15:50:58.388Z</time></trkpt><trkpt lat="32.9573917" lon="-8.2292583"><ele>129.4</ele><time>2026-04-26T15:51:00.388Z</time></trkpt><trkpt lat="32.95739" lon="-8.2291767"><ele>129.2</ele><time>2026-04-26T15:51:01.388Z</time></trkpt><trkpt lat="32.9573767" lon="-8.2290733"><ele>129.0</ele><time>2026-04-26T15:51:02.388Z</time></trkpt><trkpt lat="32.9573517" lon="-8.22896"><ele>129.0</ele><time>2026-04-26T15:51:03.388Z</time></trkpt><trkpt lat="32.9573167" lon="-8.2288333"><ele>129.0</ele><time>2026-04-26T15:51:04.388Z</time></trkpt><trkpt lat="32.957275" lon="-8.2287"><ele>129.0</ele><time>2026-04-26T15:51:05.388Z</time></trkpt><trkpt lat="32.9572267" lon="-8.2285567"><ele>129.0</ele><time>2026-04-26T15:51:06.388Z</time></trkpt><trkpt lat="32.9571717" lon="-8.228395"><ele>129.0</ele><time>2026-04-26T15:51:07.388Z</time></trkpt><trkpt lat="32.95712" lon="-8.2282217"><ele>129.0</ele><time>2026-04-26T15:51:08.388Z</time></trkpt><trkpt lat="32.9570733" lon="-8.2280367"><ele>129.0</ele><time>2026-04-26T15:51:09.388Z</time></trkpt><trkpt lat="32.9570233" lon="-8.2278533"><ele>128.66666666666666</ele><time>2026-04-26T15:51:10.388Z</time></trkpt><trkpt lat="32.956975" lon="-8.227685"><ele>128.33333333333331</ele><time>2026-04-26T15:51:11.389Z</time></trkpt><trkpt lat="32.9569267" lon="-8.2275167"><ele>128.0</ele><time>2026-04-26T15:51:12.388Z</time></trkpt><trkpt lat="32.9568783" lon="-8.227345"><ele>128.66666666666666</ele><time>2026-04-26T15:51:13.389Z</time></trkpt><trkpt lat="32.9568283" lon="-8.2271733"><ele>129.33333333333334</ele><time>2026-04-26T15:51:14.388Z</time></trkpt><trkpt lat="32.95678" lon="-8.2269983"><ele>130.0</ele><time>2026-04-26T15:51:15.388Z</time></trkpt><trkpt lat="32.95673" lon="-8.2268233"><ele>130.33333333333334</ele><time>2026-04-26T15:51:16.388Z</time></trkpt><trkpt lat="32.9566833" lon="-8.2266383"><ele>130.66666666666666</ele><time>2026-04-26T15:51:17.388Z</time></trkpt><trkpt lat="32.9566317" lon="-8.2264533"><ele>131.0</ele><time>2026-04-26T15:51:18.388Z</time></trkpt><trkpt lat="32.9565783" lon="-8.226265"><ele>131.0</ele><time>2026-04-26T15:51:19.388Z</time></trkpt><trkpt lat="32.956525" lon="-8.2260783"><ele>131.0</ele><time>2026-04-26T15:51:20.388Z</time></trkpt><trkpt lat="32.9564717" lon="-8.2258917"><ele>131.0</ele><time>2026-04-26T15:51:21.388Z</time></trkpt><trkpt lat="32.95642" lon="-8.225715"><ele>131.75</ele><time>2026-04-26T15:51:22.388Z</time></trkpt><trkpt lat="32.95637" lon="-8.2255433"><ele>132.5</ele><time>2026-04-26T15:51:23.388Z</time></trkpt><trkpt lat="32.956325" lon="-8.22538"><ele>133.25</ele><time>2026-04-26T15:51:24.388Z</time></trkpt><trkpt lat="32.95628" lon="-8.2252233"><ele>134.0</ele><time>2026-04-26T15:51:25.388Z</time></trkpt><trkpt lat="32.9562367" lon="-8.225085"><ele>134.0</ele><time>2026-04-26T15:51:26.388Z</time></trkpt><trkpt lat="32.9562" lon="-8.224955"><ele>134.0</ele><time>2026-04-26T15:51:27.388Z</time></trkpt><trkpt lat="32.9561717" lon="-8.2248383"><ele>134.0</ele><time>2026-04-26T15:51:28.388Z</time></trkpt><trkpt lat="32.9561433" lon="-8.2247433"><ele>134.0</ele><time>2026-04-26T15:51:29.389Z</time></trkpt><trkpt lat="32.95612" lon="-8.2246617"><ele>134.0</ele><time>2026-04-26T15:51:30.388Z</time></trkpt><trkpt lat="32.9561" lon="-8.2245367"><ele>134.0</ele><time>2026-04-26T15:51:32.388Z</time></trkpt><trkpt lat="32.95615" lon="-8.22444"><ele>134.0</ele><time>2026-04-26T15:51:34.388Z</time></trkpt><trkpt lat="32.9562483" lon="-8.224385"><ele>134.0</ele><time>2026-04-26T15:51:36.388Z</time></trkpt><trkpt lat="32.9563067" lon="-8.2243383"><ele>134.0</ele><time>2026-04-26T15:51:37.388Z</time></trkpt><trkpt lat="32.9563617" lon="-8.2242733"><ele>134.0</ele><time>2026-04-26T15:51:38.388Z</time></trkpt><trkpt lat="32.95643" lon="-8.2242067"><ele>134.0</ele><time>2026-04-26T15:51:39.388Z</time></trkpt><trkpt lat="32.956505" lon="-8.224125"><ele>134.0</ele><time>2026-04-26T15:51:40.388Z</time></trkpt><trkpt lat="32.9565733" lon="-8.224025"><ele>134.0</ele><time>2026-04-26T15:51:41.388Z</time></trkpt><trkpt lat="32.9566383" lon="-8.2239267"><ele>134.0</ele><time>2026-04-26T15:51:42.388Z</time></trkpt><trkpt lat="32.956695" lon="-8.2238383"><ele>134.0</ele><time>2026-04-26T15:51:43.388Z</time></trkpt><trkpt lat="32.956745" lon="-8.223735"><ele>134.0</ele><time>2026-04-26T15:51:44.388Z</time></trkpt><trkpt lat="32.95679" lon="-8.2236267"><ele>134.0</ele><time>2026-04-26T15:51:45.388Z</time></trkpt><trkpt lat="32.9568333" lon="-8.2235117"><ele>134.0</ele><time>2026-04-26T15:51:46.388Z</time></trkpt><trkpt lat="32.9568783" lon="-8.22341"><ele>134.0</ele><time>2026-04-26T15:51:47.388Z</time></trkpt><trkpt lat="32.9569133" lon="-8.2232883"><ele>134.0</ele><time>2026-04-26T15:51:48.388Z</time></trkpt><trkpt lat="32.9569383" lon="-8.2231683"><ele>134.0</ele><time>2026-04-26T15:51:49.388Z</time></trkpt><trkpt lat="32.9569667" lon="-8.2230433"><ele>134.6</ele><time>2026-04-26T15:51:50.388Z</time></trkpt><trkpt lat="32.95699" lon="-8.2229133"><ele>135.2</ele><time>2026-04-26T15:51:51.388Z</time></trkpt><trkpt lat="32.9570017" lon="-8.2227783"><ele>135.79999999999998</ele><time>2026-04-26T15:51:52.388Z</time></trkpt><trkpt lat="32.9570033" lon="-8.22265"><ele>136.4</ele><time>2026-04-26T15:51:53.388Z</time></trkpt><trkpt lat="32.956995" lon="-8.2225233"><ele>137.0</ele><time>2026-04-26T15:51:54.388Z</time></trkpt><trkpt lat="32.9569733" lon="-8.2224033"><ele>136.79999999999998</ele><time>2026-04-26T15:51:55.388Z</time></trkpt><trkpt lat="32.9569417" lon="-8.222285"><ele>136.6</ele><time>2026-04-26T15:51:56.388Z</time></trkpt><trkpt lat="32.9569" lon="-8.2221683"><ele>136.39999999999998</ele><time>2026-04-26T15:51:57.388Z</time></trkpt><trkpt lat="32.9568567" lon="-8.222055"><ele>136.2</ele><time>2026-04-26T15:51:58.388Z</time></trkpt><trkpt lat="32.9568117" lon="-8.2219517"><ele>136.0</ele><time>2026-04-26T15:51:59.388Z</time></trkpt><trkpt lat="32.9567817" lon="-8.2218683"><ele>136.0</ele><time>2026-04-26T15:52:00.388Z</time></trkpt><trkpt lat="32.95674" lon="-8.2217583"><ele>136.0</ele><time>2026-04-26T15:52:02.388Z</time></trkpt><trkpt lat="32.9566967" lon="-8.2217"><ele>136.0</ele><time>2026-04-26T15:52:04.388Z</time></trkpt><trkpt lat="32.9566617" lon="-8.221595"><ele>136.0</ele><time>2026-04-26T15:52:14.388Z</time></trkpt><trkpt lat="32.9566283" lon="-8.2214933"><ele>136.0</ele><time>2026-04-26T15:52:16.388Z</time></trkpt><trkpt lat="32.9566433" lon="-8.22139"><ele>136.0</ele><time>2026-04-26T15:52:18.388Z</time></trkpt><trkpt lat="32.9567133" lon="-8.2213017"><ele>135.75</ele><time>2026-04-26T15:52:20.388Z</time></trkpt><trkpt lat="32.9568467" lon="-8.221245"><ele>135.5</ele><time>2026-04-26T15:52:22.388Z</time></trkpt><trkpt lat="32.9569433" lon="-8.22122"><ele>135.25</ele><time>2026-04-26T15:52:23.388Z</time></trkpt><trkpt lat="32.95705" lon="-8.2211867"><ele>135.0</ele><time>2026-04-26T15:52:24.388Z</time></trkpt><trkpt lat="32.9571533" lon="-8.22115"><ele>135.0</ele><time>2026-04-26T15:52:25.388Z</time></trkpt><trkpt lat="32.95725" lon="-8.2211183"><ele>135.0</ele><time>2026-04-26T15:52:26.388Z</time></trkpt><trkpt lat="32.9573517" lon="-8.2210817"><ele>135.0</ele><time>2026-04-26T15:52:27.388Z</time></trkpt><trkpt lat="32.9574533" lon="-8.2210367"><ele>135.0</ele><time>2026-04-26T15:52:28.388Z</time></trkpt><trkpt lat="32.9575583" lon="-8.220985"><ele>135.0</ele><time>2026-04-26T15:52:29.388Z</time></trkpt><trkpt lat="32.95767" lon="-8.2209367"><ele>135.25</ele><time>2026-04-26T15:52:30.388Z</time></trkpt><trkpt lat="32.9577833" lon="-8.2208867"><ele>135.5</ele><time>2026-04-26T15:52:31.388Z</time></trkpt><trkpt lat="32.957895" lon="-8.2208283"><ele>135.75</ele><time>2026-04-26T15:52:32.388Z</time></trkpt><trkpt lat="32.95801" lon="-8.2207683"><ele>136.0</ele><time>2026-04-26T15:52:33.388Z</time></trkpt><trkpt lat="32.9581267" lon="-8.2207"><ele>135.75</ele><time>2026-04-26T15:52:34.388Z</time></trkpt><trkpt lat="32.958245" lon="-8.2206233"><ele>135.5</ele><time>2026-04-26T15:52:35.388Z</time></trkpt><trkpt lat="32.9583683" lon="-8.2205517"><ele>135.25</ele><time>2026-04-26T15:52:36.388Z</time></trkpt><trkpt lat="32.95849" lon="-8.2204683"><ele>135.0</ele><time>2026-04-26T15:52:37.388Z</time></trkpt><trkpt lat="32.9586133" lon="-8.22039"><ele>134.75</ele><time>2026-04-26T15:52:38.388Z</time></trkpt><trkpt lat="32.95873" lon="-8.2203067"><ele>134.5</ele><time>2026-04-26T15:52:39.388Z</time></trkpt><trkpt lat="32.9588467" lon="-8.220225"><ele>134.25</ele><time>2026-04-26T15:52:40.389Z</time></trkpt><trkpt lat="32.958955" lon="-8.2201417"><ele>134.0</ele><time>2026-04-26T15:52:41.388Z</time></trkpt><trkpt lat="32.9590667" lon="-8.220055"><ele>134.0</ele><time>2026-04-26T15:52:42.388Z</time></trkpt><trkpt lat="32.9591767" lon="-8.2199633"><ele>134.0</ele><time>2026-04-26T15:52:43.388Z</time></trkpt><trkpt lat="32.9592883" lon="-8.2198733"><ele>134.0</ele><time>2026-04-26T15:52:44.388Z</time></trkpt><trkpt lat="32.959405" lon="-8.2197917"><ele>134.0</ele><time>2026-04-26T15:52:45.388Z</time></trkpt><trkpt lat="32.9595167" lon="-8.2197083"><ele>134.25</ele><time>2026-04-26T15:52:46.388Z</time></trkpt><trkpt lat="32.9596317" lon="-8.2196217"><ele>134.5</ele><time>2026-04-26T15:52:47.388Z</time></trkpt><trkpt lat="32.9597483" lon="-8.2195333"><ele>134.75</ele><time>2026-04-26T15:52:48.388Z</time></trkpt><trkpt lat="32.9598617" lon="-8.2194417"><ele>135.0</ele><time>2026-04-26T15:52:49.388Z</time></trkpt><trkpt lat="32.9599717" lon="-8.2193533"><ele>134.5</ele><time>2026-04-26T15:52:50.388Z</time></trkpt><trkpt lat="32.9600867" lon="-8.2192633"><ele>134.0</ele><time>2026-04-26T15:52:51.388Z</time></trkpt><trkpt lat="32.9601983" lon="-8.21917"><ele>133.5</ele><time>2026-04-26T15:52:52.388Z</time></trkpt><trkpt lat="32.96031" lon="-8.219085"><ele>133.0</ele><time>2026-04-26T15:52:53.388Z</time></trkpt><trkpt lat="32.9604233" lon="-8.2189967"><ele>132.75</ele><time>2026-04-26T15:52:54.388Z</time></trkpt><trkpt lat="32.9605383" lon="-8.2189167"><ele>132.5</ele><time>2026-04-26T15:52:55.388Z</time></trkpt><trkpt lat="32.9606467" lon="-8.2188483"><ele>132.25</ele><time>2026-04-26T15:52:56.388Z</time></trkpt><trkpt lat="32.96075" lon="-8.2187717"><ele>132.0</ele><time>2026-04-26T15:52:57.388Z</time></trkpt><trkpt lat="32.9608467" lon="-8.2186917"><ele>132.2</ele><time>2026-04-26T15:52:58.388Z</time></trkpt><trkpt lat="32.9609317" lon="-8.2186167"><ele>132.39999999999998</ele><time>2026-04-26T15:52:59.388Z</time></trkpt><trkpt lat="32.9610283" lon="-8.2185417"><ele>132.60000000000002</ele><time>2026-04-26T15:53:00.388Z</time></trkpt><trkpt lat="32.96112" lon="-8.2184683"><ele>132.8</ele><time>2026-04-26T15:53:01.388Z</time></trkpt><trkpt lat="32.961215" lon="-8.2183883"><ele>133.0</ele><time>2026-04-26T15:53:02.388Z</time></trkpt><trkpt lat="32.9613167" lon="-8.2183167"><ele>133.0</ele><time>2026-04-26T15:53:03.388Z</time></trkpt><trkpt lat="32.9614283" lon="-8.2182633"><ele>133.0</ele><time>2026-04-26T15:53:04.388Z</time></trkpt><trkpt lat="32.9615317" lon="-8.2181917"><ele>133.0</ele><time>2026-04-26T15:53:05.388Z</time></trkpt><trkpt lat="32.9616333" lon="-8.2181167"><ele>133.0</ele><time>2026-04-26T15:53:06.388Z</time></trkpt><trkpt lat="32.9617417" lon="-8.218035"><ele>133.25</ele><time>2026-04-26T15:53:07.388Z</time></trkpt><trkpt lat="32.9618633" lon="-8.21795"><ele>133.5</ele><time>2026-04-26T15:53:08.388Z</time></trkpt><trkpt lat="32.9619717" lon="-8.2178667"><ele>133.75</ele><time>2026-04-26T15:53:09.388Z</time></trkpt><trkpt lat="32.9620883" lon="-8.21778"><ele>134.0</ele><time>2026-04-26T15:53:10.388Z</time></trkpt><trkpt lat="32.962205" lon="-8.2176967"><ele>134.0</ele><time>2026-04-26T15:53:11.388Z</time></trkpt><trkpt lat="32.9623183" lon="-8.2176117"><ele>134.0</ele><time>2026-04-26T15:53:12.388Z</time></trkpt><trkpt lat="32.962435" lon="-8.217525"><ele>134.0</ele><time>2026-04-26T15:53:13.388Z</time></trkpt><trkpt lat="32.962555" lon="-8.2174417"><ele>134.0</ele><time>2026-04-26T15:53:14.388Z</time></trkpt><trkpt lat="32.96268" lon="-8.2173567"><ele>133.5</ele><time>2026-04-26T15:53:15.388Z</time></trkpt><trkpt lat="32.9628033" lon="-8.2172717"><ele>133.0</ele><time>2026-04-26T15:53:16.388Z</time></trkpt><trkpt lat="32.9629133" lon="-8.2171833"><ele>132.5</ele><time>2026-04-26T15:53:17.388Z</time></trkpt><trkpt lat="32.96302" lon="-8.217095"><ele>132.0</ele><time>2026-04-26T15:53:18.388Z</time></trkpt><trkpt lat="32.9631367" lon="-8.2169983"><ele>132.0</ele><time>2026-04-26T15:53:19.388Z</time></trkpt><trkpt lat="32.9632517" lon="-8.216905"><ele>132.0</ele><time>2026-04-26T15:53:20.388Z</time></trkpt><trkpt lat="32.963365" lon="-8.2168133"><ele>132.0</ele><time>2026-04-26T15:53:21.388Z</time></trkpt><trkpt lat="32.9634717" lon="-8.2167383"><ele>132.0</ele><time>2026-04-26T15:53:22.388Z</time></trkpt><trkpt lat="32.9635717" lon="-8.21667"><ele>132.0</ele><time>2026-04-26T15:53:23.388Z</time></trkpt><trkpt lat="32.9636583" lon="-8.2166133"><ele>132.0</ele><time>2026-04-26T15:53:24.388Z</time></trkpt><trkpt lat="32.96373" lon="-8.2165717"><ele>132.0</ele><time>2026-04-26T15:53:25.388Z</time></trkpt><trkpt lat="32.9637967" lon="-8.2165267"><ele>132.0</ele><time>2026-04-26T15:53:26.388Z</time></trkpt><trkpt lat="32.9638633" lon="-8.2164933"><ele>132.0</ele><time>2026-04-26T15:53:27.388Z</time></trkpt><trkpt lat="32.9639267" lon="-8.2164433"><ele>132.0</ele><time>2026-04-26T15:53:28.388Z</time></trkpt><trkpt lat="32.9639933" lon="-8.21638"><ele>132.0</ele><time>2026-04-26T15:53:29.389Z</time></trkpt><trkpt lat="32.9640683" lon="-8.2163"><ele>132.0</ele><time>2026-04-26T15:53:30.388Z</time></trkpt><trkpt lat="32.9641567" lon="-8.2162333"><ele>132.0</ele><time>2026-04-26T15:53:31.388Z</time></trkpt><trkpt lat="32.9642483" lon="-8.21616"><ele>132.0</ele><time>2026-04-26T15:53:32.388Z</time></trkpt><trkpt lat="32.964365" lon="-8.2160817"><ele>132.5</ele><time>2026-04-26T15:53:33.388Z</time></trkpt><trkpt lat="32.9644967" lon="-8.216"><ele>133.0</ele><time>2026-04-26T15:53:34.388Z</time></trkpt><trkpt lat="32.9646217" lon="-8.2159283"><ele>133.5</ele><time>2026-04-26T15:53:35.388Z</time></trkpt><trkpt lat="32.9647417" lon="-8.215855"><ele>134.0</ele><time>2026-04-26T15:53:36.389Z</time></trkpt><trkpt lat="32.9648617" lon="-8.2157833"><ele>134.0</ele><time>2026-04-26T15:53:37.388Z</time></trkpt><trkpt lat="32.9649783" lon="-8.2157083"><ele>134.0</ele><time>2026-04-26T15:53:38.388Z</time></trkpt><trkpt lat="32.9651017" lon="-8.21564"><ele>134.0</ele><time>2026-04-26T15:53:39.388Z</time></trkpt><trkpt lat="32.9652217" lon="-8.2155733"><ele>134.0</ele><time>2026-04-26T15:53:40.388Z</time></trkpt><trkpt lat="32.9653433" lon="-8.2155"><ele>133.25</ele><time>2026-04-26T15:53:41.388Z</time></trkpt><trkpt lat="32.9654617" lon="-8.2154333"><ele>132.5</ele><time>2026-04-26T15:53:42.388Z</time></trkpt><trkpt lat="32.9655767" lon="-8.2153683"><ele>131.75</ele><time>2026-04-26T15:53:43.388Z</time></trkpt><trkpt lat="32.9656867" lon="-8.2153017"><ele>131.0</ele><time>2026-04-26T15:53:44.388Z</time></trkpt><trkpt lat="32.965785" lon="-8.2152417"><ele>131.16666666666666</ele><time>2026-04-26T15:53:45.388Z</time></trkpt><trkpt lat="32.9658733" lon="-8.2151867"><ele>131.33333333333331</ele><time>2026-04-26T15:53:46.388Z</time></trkpt><trkpt lat="32.96596" lon="-8.21514"><ele>131.5</ele><time>2026-04-26T15:53:47.388Z</time></trkpt><trkpt lat="32.9660333" lon="-8.2151017"><ele>131.66666666666666</ele><time>2026-04-26T15:53:48.388Z</time></trkpt><trkpt lat="32.96611" lon="-8.2150617"><ele>131.83333333333334</ele><time>2026-04-26T15:53:49.388Z</time></trkpt><trkpt lat="32.9661867" lon="-8.2150167"><ele>132.0</ele><time>2026-04-26T15:53:50.388Z</time></trkpt><trkpt lat="32.9662617" lon="-8.21497"><ele>132.0</ele><time>2026-04-26T15:53:51.388Z</time></trkpt><trkpt lat="32.966335" lon="-8.21492"><ele>132.0</ele><time>2026-04-26T15:53:52.389Z</time></trkpt><trkpt lat="32.96641" lon="-8.21488"><ele>132.0</ele><time>2026-04-26T15:53:53.388Z</time></trkpt><trkpt lat="32.9664767" lon="-8.2148383"><ele>132.0</ele><time>2026-04-26T15:53:54.388Z</time></trkpt><trkpt lat="32.9665417" lon="-8.2147983"><ele>132.0</ele><time>2026-04-26T15:53:55.388Z</time></trkpt><trkpt lat="32.9666017" lon="-8.214755"><ele>132.0</ele><time>2026-04-26T15:53:56.388Z</time></trkpt><trkpt lat="32.96666" lon="-8.2147133"><ele>132.83333333333334</ele><time>2026-04-26T15:53:57.388Z</time></trkpt><trkpt lat="32.96672" lon="-8.2146733"><ele>133.66666666666666</ele><time>2026-04-26T15:53:58.388Z</time></trkpt><trkpt lat="32.9667767" lon="-8.2146317"><ele>134.5</ele><time>2026-04-26T15:53:59.388Z</time></trkpt><trkpt lat="32.9668383" lon="-8.2146017"><ele>135.33333333333331</ele><time>2026-04-26T15:54:00.389Z</time></trkpt><trkpt lat="32.9669467" lon="-8.214535"><ele>136.16666666666666</ele><time>2026-04-26T15:54:02.388Z</time></trkpt><trkpt lat="32.9670033" lon="-8.2145017"><ele>137.0</ele><time>2026-04-26T15:54:03.388Z</time></trkpt><trkpt lat="32.967125" lon="-8.2144417"><ele>137.0</ele><time>2026-04-26T15:54:05.388Z</time></trkpt><trkpt lat="32.9671967" lon="-8.2144033"><ele>137.0</ele><time>2026-04-26T15:54:06.388Z</time></trkpt><trkpt lat="32.967275" lon="-8.2143567"><ele>137.0</ele><time>2026-04-26T15:54:07.388Z</time></trkpt><trkpt lat="32.96736" lon="-8.21431"><ele>137.0</ele><time>2026-04-26T15:54:08.388Z</time></trkpt><trkpt lat="32.9674517" lon="-8.2142617"><ele>137.0</ele><time>2026-04-26T15:54:09.388Z</time></trkpt><trkpt lat="32.967545" lon="-8.2142167"><ele>137.0</ele><time>2026-04-26T15:54:10.388Z</time></trkpt><trkpt lat="32.9676433" lon="-8.21416"><ele>137.0</ele><time>2026-04-26T15:54:11.388Z</time></trkpt><trkpt lat="32.967745" lon="-8.214095"><ele>137.0</ele><time>2026-04-26T15:54:12.388Z</time></trkpt><trkpt lat="32.9678517" lon="-8.2140233"><ele>137.0</ele><time>2026-04-26T15:54:13.388Z</time></trkpt><trkpt lat="32.9679667" lon="-8.2139533"><ele>137.0</ele><time>2026-04-26T15:54:14.388Z</time></trkpt><trkpt lat="32.96808" lon="-8.2138833"><ele>137.0</ele><time>2026-04-26T15:54:15.388Z</time></trkpt><trkpt lat="32.9682" lon="-8.2138167"><ele>137.0</ele><time>2026-04-26T15:54:16.388Z</time></trkpt><trkpt lat="32.9683267" lon="-8.2137483"><ele>137.0</ele><time>2026-04-26T15:54:17.388Z</time></trkpt><trkpt lat="32.9684517" lon="-8.2136717"><ele>137.25</ele><time>2026-04-26T15:54:18.388Z</time></trkpt><trkpt lat="32.9685767" lon="-8.2135967"><ele>137.5</ele><time>2026-04-26T15:54:19.388Z</time></trkpt><trkpt lat="32.968705" lon="-8.2135183"><ele>137.75</ele><time>2026-04-26T15:54:20.388Z</time></trkpt><trkpt lat="32.9688367" lon="-8.21344"><ele>138.0</ele><time>2026-04-26T15:54:21.388Z</time></trkpt><trkpt lat="32.9689717" lon="-8.2133617"><ele>138.0</ele><time>2026-04-26T15:54:22.388Z</time></trkpt><trkpt lat="32.969105" lon="-8.213285"><ele>138.0</ele><time>2026-04-26T15:54:23.388Z</time></trkpt><trkpt lat="32.9692267" lon="-8.21322"><ele>138.0</ele><time>2026-04-26T15:54:24.389Z</time></trkpt><trkpt lat="32.96935" lon="-8.2131483"><ele>138.0</ele><time>2026-04-26T15:54:25.388Z</time></trkpt><trkpt lat="32.9694717" lon="-8.2130883"><ele>137.5</ele><time>2026-04-26T15:54:26.388Z</time></trkpt><trkpt lat="32.9695917" lon="-8.21303"><ele>137.0</ele><time>2026-04-26T15:54:27.388Z</time></trkpt><trkpt lat="32.96972" lon="-8.212975"><ele>136.5</ele><time>2026-04-26T15:54:28.388Z</time></trkpt><trkpt lat="32.969845" lon="-8.2129133"><ele>136.0</ele><time>2026-04-26T15:54:29.388Z</time></trkpt><trkpt lat="32.9699733" lon="-8.212855"><ele>135.5</ele><time>2026-04-26T15:54:30.388Z</time></trkpt><trkpt lat="32.9701033" lon="-8.2127933"><ele>135.0</ele><time>2026-04-26T15:54:31.388Z</time></trkpt><trkpt lat="32.9702483" lon="-8.2127367"><ele>134.5</ele><time>2026-04-26T15:54:32.388Z</time></trkpt><trkpt lat="32.9703917" lon="-8.2126767"><ele>134.0</ele><time>2026-04-26T15:54:33.388Z</time></trkpt><trkpt lat="32.970535" lon="-8.2126083"><ele>134.0</ele><time>2026-04-26T15:54:34.388Z</time></trkpt><trkpt lat="32.9706867" lon="-8.2125333"><ele>134.0</ele><time>2026-04-26T15:54:35.388Z</time></trkpt><trkpt lat="32.9708367" lon="-8.2124467"><ele>134.0</ele><time>2026-04-26T15:54:36.388Z</time></trkpt><trkpt lat="32.9709833" lon="-8.21237"><ele>134.33333333333331</ele><time>2026-04-26T15:54:37.388Z</time></trkpt><trkpt lat="32.9711433" lon="-8.212295"><ele>134.66666666666666</ele><time>2026-04-26T15:54:38.388Z</time></trkpt><trkpt lat="32.9713017" lon="-8.21222"><ele>135.0</ele><time>2026-04-26T15:54:39.388Z</time></trkpt><trkpt lat="32.97146" lon="-8.2121367"><ele>135.0</ele><time>2026-04-26T15:54:40.388Z</time></trkpt><trkpt lat="32.9716217" lon="-8.2120583"><ele>135.0</ele><time>2026-04-26T15:54:41.388Z</time></trkpt><trkpt lat="32.9717817" lon="-8.2119833"><ele>135.0</ele><time>2026-04-26T15:54:42.388Z</time></trkpt><trkpt lat="32.97193" lon="-8.211915"><ele>135.0</ele><time>2026-04-26T15:54:43.388Z</time></trkpt><trkpt lat="32.9720733" lon="-8.2118483"><ele>135.0</ele><time>2026-04-26T15:54:44.388Z</time></trkpt><trkpt lat="32.9722183" lon="-8.2117783"><ele>135.0</ele><time>2026-04-26T15:54:45.388Z</time></trkpt><trkpt lat="32.9723667" lon="-8.2117083"><ele>135.0</ele><time>2026-04-26T15:54:46.388Z</time></trkpt><trkpt lat="32.9725167" lon="-8.21164"><ele>135.0</ele><time>2026-04-26T15:54:47.388Z</time></trkpt><trkpt lat="32.97267" lon="-8.2115667"><ele>135.0</ele><time>2026-04-26T15:54:48.388Z</time></trkpt><trkpt lat="32.9728217" lon="-8.21149"><ele>135.33333333333334</ele><time>2026-04-26T15:54:49.388Z</time></trkpt><trkpt lat="32.9729733" lon="-8.2114183"><ele>135.66666666666669</ele><time>2026-04-26T15:54:50.388Z</time></trkpt><trkpt lat="32.9731267" lon="-8.2113367"><ele>136.0</ele><time>2026-04-26T15:54:51.388Z</time></trkpt><trkpt lat="32.9732767" lon="-8.2112583"><ele>136.33333333333334</ele><time>2026-04-26T15:54:52.388Z</time></trkpt><trkpt lat="32.973425" lon="-8.2111783"><ele>136.66666666666666</ele><time>2026-04-26T15:54:53.388Z</time></trkpt><trkpt lat="32.9735767" lon="-8.2110967"><ele>137.0</ele><time>2026-04-26T15:54:54.388Z</time></trkpt><trkpt lat="32.9737267" lon="-8.2110083"><ele>137.0</ele><time>2026-04-26T15:54:55.388Z</time></trkpt><trkpt lat="32.973875" lon="-8.2109267"><ele>137.0</ele><time>2026-04-26T15:54:56.388Z</time></trkpt><trkpt lat="32.9740333" lon="-8.2108417"><ele>137.0</ele><time>2026-04-26T15:54:57.388Z</time></trkpt><trkpt lat="32.9741917" lon="-8.2107583"><ele>136.0</ele><time>2026-04-26T15:54:58.388Z</time></trkpt><trkpt lat="32.9743483" lon="-8.2106717"><ele>135.0</ele><time>2026-04-26T15:54:59.388Z</time></trkpt><trkpt lat="32.9745067" lon="-8.210585"><ele>134.0</ele><time>2026-04-26T15:55:00.388Z</time></trkpt><trkpt lat="32.974665" lon="-8.210495"><ele>134.0</ele><time>2026-04-26T15:55:01.388Z</time></trkpt><trkpt lat="32.9748217" lon="-8.21041"><ele>134.0</ele><time>2026-04-26T15:55:02.389Z</time></trkpt><trkpt lat="32.97498" lon="-8.2103233"><ele>134.0</ele><time>2026-04-26T15:55:03.388Z</time></trkpt><trkpt lat="32.9751367" lon="-8.2102367"><ele>134.33333333333331</ele><time>2026-04-26T15:55:04.389Z</time></trkpt><trkpt lat="32.9752917" lon="-8.2101533"><ele>134.66666666666666</ele><time>2026-04-26T15:55:05.388Z</time></trkpt><trkpt lat="32.9754417" lon="-8.2100683"><ele>135.0</ele><time>2026-04-26T15:55:06.388Z</time></trkpt><trkpt lat="32.97559" lon="-8.20999"><ele>135.0</ele><time>2026-04-26T15:55:07.388Z</time></trkpt><trkpt lat="32.9757467" lon="-8.2099017"><ele>135.0</ele><time>2026-04-26T15:55:08.388Z</time></trkpt><trkpt lat="32.9759" lon="-8.209815"><ele>135.0</ele><time>2026-04-26T15:55:09.388Z</time></trkpt><trkpt lat="32.97605" lon="-8.2097283"><ele>135.33333333333334</ele><time>2026-04-26T15:55:10.388Z</time></trkpt><trkpt lat="32.9762017" lon="-8.2096433"><ele>135.66666666666669</ele><time>2026-04-26T15:55:11.388Z</time></trkpt><trkpt lat="32.9763533" lon="-8.2095617"><ele>136.0</ele><time>2026-04-26T15:55:12.388Z</time></trkpt><trkpt lat="32.9765083" lon="-8.20948"><ele>136.0</ele><time>2026-04-26T15:55:13.388Z</time></trkpt><trkpt lat="32.9766633" lon="-8.209395"><ele>136.0</ele><time>2026-04-26T15:55:14.388Z</time></trkpt><trkpt lat="32.9768183" lon="-8.2093067"><ele>136.0</ele><time>2026-04-26T15:55:15.388Z</time></trkpt><trkpt lat="32.97697" lon="-8.2092233"><ele>135.0</ele><time>2026-04-26T15:55:16.388Z</time></trkpt><trkpt lat="32.9771133" lon="-8.2091417"><ele>134.0</ele><time>2026-04-26T15:55:17.388Z</time></trkpt><trkpt lat="32.97725" lon="-8.209065"><ele>133.0</ele><time>2026-04-26T15:55:18.388Z</time></trkpt><trkpt lat="32.9773883" lon="-8.2089867"><ele>133.0</ele><time>2026-04-26T15:55:19.388Z</time></trkpt><trkpt lat="32.9775283" lon="-8.2089067"><ele>133.0</ele><time>2026-04-26T15:55:20.388Z</time></trkpt><trkpt lat="32.97767" lon="-8.20883"><ele>133.0</ele><time>2026-04-26T15:55:21.388Z</time></trkpt><trkpt lat="32.9778117" lon="-8.2087517"><ele>133.0</ele><time>2026-04-26T15:55:22.388Z</time></trkpt><trkpt lat="32.97796" lon="-8.2086733"><ele>133.0</ele><time>2026-04-26T15:55:23.388Z</time></trkpt><trkpt lat="32.978115" lon="-8.2085917"><ele>133.0</ele><time>2026-04-26T15:55:24.389Z</time></trkpt><trkpt lat="32.97827" lon="-8.208505"><ele>133.33333333333334</ele><time>2026-04-26T15:55:25.388Z</time></trkpt><trkpt lat="32.9784267" lon="-8.20842"><ele>133.66666666666666</ele><time>2026-04-26T15:55:26.388Z</time></trkpt><trkpt lat="32.97859" lon="-8.2083333"><ele>134.0</ele><time>2026-04-26T15:55:27.388Z</time></trkpt><trkpt lat="32.97875" lon="-8.2082417"><ele>134.0</ele><time>2026-04-26T15:55:28.388Z</time></trkpt><trkpt lat="32.9789067" lon="-8.2081533"><ele>134.0</ele><time>2026-04-26T15:55:29.389Z</time></trkpt><trkpt lat="32.9790733" lon="-8.2080683"><ele>134.0</ele><time>2026-04-26T15:55:30.388Z</time></trkpt><trkpt lat="32.97924" lon="-8.2079817"><ele>134.0</ele><time>2026-04-26T15:55:31.388Z</time></trkpt><trkpt lat="32.97939" lon="-8.2078933"><ele>134.0</ele><time>2026-04-26T15:55:32.389Z</time></trkpt><trkpt lat="32.9795433" lon="-8.2078017"><ele>134.0</ele><time>2026-04-26T15:55:33.388Z</time></trkpt><trkpt lat="32.97969" lon="-8.207705"><ele>134.0</ele><time>2026-04-26T15:55:34.388Z</time></trkpt><trkpt lat="32.97983" lon="-8.20761"><ele>134.0</ele><time>2026-04-26T15:55:35.388Z</time></trkpt><trkpt lat="32.9799683" lon="-8.2075017"><ele>134.0</ele><time>2026-04-26T15:55:36.388Z</time></trkpt><trkpt lat="32.9801017" lon="-8.2073817"><ele>133.66666666666666</ele><time>2026-04-26T15:55:37.388Z</time></trkpt><trkpt lat="32.9802333" lon="-8.2072533"><ele>133.33333333333334</ele><time>2026-04-26T15:55:38.388Z</time></trkpt><trkpt lat="32.980365" lon="-8.2071183"><ele>133.0</ele><time>2026-04-26T15:55:39.388Z</time></trkpt><trkpt lat="32.9804967" lon="-8.2069967"><ele>133.0</ele><time>2026-04-26T15:55:40.388Z</time></trkpt><trkpt lat="32.9806317" lon="-8.206875"><ele>133.0</ele><time>2026-04-26T15:55:41.388Z</time></trkpt><trkpt lat="32.98077" lon="-8.2067517"><ele>133.0</ele><time>2026-04-26T15:55:42.388Z</time></trkpt><trkpt lat="32.9809083" lon="-8.2066267"><ele>133.0</ele><time>2026-04-26T15:55:43.388Z</time></trkpt><trkpt lat="32.9810433" lon="-8.2065017"><ele>133.0</ele><time>2026-04-26T15:55:44.388Z</time></trkpt><trkpt lat="32.9811833" lon="-8.206375"><ele>133.0</ele><time>2026-04-26T15:55:45.389Z</time></trkpt><trkpt lat="32.98132" lon="-8.20625"><ele>133.0</ele><time>2026-04-26T15:55:46.388Z</time></trkpt><trkpt lat="32.98146" lon="-8.2061283"><ele>133.0</ele><time>2026-04-26T15:55:47.388Z</time></trkpt><trkpt lat="32.9816" lon="-8.2059983"><ele>133.0</ele><time>2026-04-26T15:55:48.388Z</time></trkpt><trkpt lat="32.9817433" lon="-8.2058717"><ele>133.33333333333334</ele><time>2026-04-26T15:55:49.388Z</time></trkpt><trkpt lat="32.981885" lon="-8.2057433"><ele>133.66666666666666</ele><time>2026-04-26T15:55:50.388Z</time></trkpt><trkpt lat="32.9820283" lon="-8.205615"><ele>134.0</ele><time>2026-04-26T15:55:51.388Z</time></trkpt><trkpt lat="32.982165" lon="-8.2054883"><ele>134.0</ele><time>2026-04-26T15:55:52.388Z</time></trkpt><trkpt lat="32.982305" lon="-8.2053567"><ele>134.0</ele><time>2026-04-26T15:55:53.388Z</time></trkpt><trkpt lat="32.9824417" lon="-8.20523"><ele>134.0</ele><time>2026-04-26T15:55:54.388Z</time></trkpt><trkpt lat="32.98258" lon="-8.205105"><ele>133.66666666666666</ele><time>2026-04-26T15:55:55.388Z</time></trkpt><trkpt lat="32.9827117" lon="-8.204975"><ele>133.33333333333334</ele><time>2026-04-26T15:55:56.388Z</time></trkpt><trkpt lat="32.9828433" lon="-8.20485"><ele>133.0</ele><time>2026-04-26T15:55:57.388Z</time></trkpt><trkpt lat="32.982975" lon="-8.2047233"><ele>133.0</ele><time>2026-04-26T15:55:58.388Z</time></trkpt><trkpt lat="32.9831033" lon="-8.2045933"><ele>133.0</ele><time>2026-04-26T15:55:59.388Z</time></trkpt><trkpt lat="32.9832233" lon="-8.2044667"><ele>133.0</ele><time>2026-04-26T15:56:00.388Z</time></trkpt><trkpt lat="32.9833483" lon="-8.20434"><ele>132.66666666666669</ele><time>2026-04-26T15:56:01.388Z</time></trkpt><trkpt lat="32.98347" lon="-8.2042167"><ele>132.33333333333334</ele><time>2026-04-26T15:56:02.388Z</time></trkpt><trkpt lat="32.983585" lon="-8.2040933"><ele>132.0</ele><time>2026-04-26T15:56:03.388Z</time></trkpt><trkpt lat="32.9836983" lon="-8.20397"><ele>131.66666666666666</ele><time>2026-04-26T15:56:04.388Z</time></trkpt><trkpt lat="32.9838133" lon="-8.20385"><ele>131.33333333333331</ele><time>2026-04-26T15:56:05.388Z</time></trkpt><trkpt lat="32.9839333" lon="-8.2037217"><ele>131.0</ele><time>2026-04-26T15:56:06.388Z</time></trkpt><trkpt lat="32.9840583" lon="-8.2035967"><ele>131.0</ele><time>2026-04-26T15:56:07.388Z</time></trkpt><trkpt lat="32.9841817" lon="-8.2034683"><ele>131.0</ele><time>2026-04-26T15:56:08.388Z</time></trkpt><trkpt lat="32.9843083" lon="-8.2033333"><ele>131.0</ele><time>2026-04-26T15:56:09.388Z</time></trkpt><trkpt lat="32.9844367" lon="-8.203195"><ele>130.66666666666666</ele><time>2026-04-26T15:56:10.388Z</time></trkpt><trkpt lat="32.984565" lon="-8.2030533"><ele>130.33333333333334</ele><time>2026-04-26T15:56:11.388Z</time></trkpt><trkpt lat="32.9846917" lon="-8.2029083"><ele>130.0</ele><time>2026-04-26T15:56:12.388Z</time></trkpt><trkpt lat="32.9848183" lon="-8.2027633"><ele>130.0</ele><time>2026-04-26T15:56:13.388Z</time></trkpt><trkpt lat="32.9849483" lon="-8.2026217"><ele>130.0</ele><time>2026-04-26T15:56:14.388Z</time></trkpt><trkpt lat="32.9850817" lon="-8.2024833"><ele>130.0</ele><time>2026-04-26T15:56:15.388Z</time></trkpt><trkpt lat="32.9852183" lon="-8.20234"><ele>130.33333333333334</ele><time>2026-04-26T15:56:16.388Z</time></trkpt><trkpt lat="32.9853567" lon="-8.2021983"><ele>130.66666666666666</ele><time>2026-04-26T15:56:17.388Z</time></trkpt><trkpt lat="32.985495" lon="-8.2020533"><ele>131.0</ele><time>2026-04-26T15:56:18.388Z</time></trkpt><trkpt lat="32.985635" lon="-8.2019083"><ele>131.0</ele><time>2026-04-26T15:56:19.388Z</time></trkpt><trkpt lat="32.985775" lon="-8.2017617"><ele>131.0</ele><time>2026-04-26T15:56:20.388Z</time></trkpt><trkpt lat="32.9859117" lon="-8.2016067"><ele>131.0</ele><time>2026-04-26T15:56:21.388Z</time></trkpt><trkpt lat="32.9860483" lon="-8.2014433"><ele>130.66666666666666</ele><time>2026-04-26T15:56:22.388Z</time></trkpt><trkpt lat="32.9861783" lon="-8.2012717"><ele>130.33333333333334</ele><time>2026-04-26T15:56:23.388Z</time></trkpt><trkpt lat="32.9862983" lon="-8.2010967"><ele>130.0</ele><time>2026-04-26T15:56:24.388Z</time></trkpt><trkpt lat="32.986415" lon="-8.2009167"><ele>130.0</ele><time>2026-04-26T15:56:25.388Z</time></trkpt><trkpt lat="32.9865317" lon="-8.2007367"><ele>130.0</ele><time>2026-04-26T15:56:26.388Z</time></trkpt><trkpt lat="32.9866467" lon="-8.20058"><ele>130.0</ele><time>2026-04-26T15:56:27.388Z</time></trkpt><trkpt lat="32.9867617" lon="-8.200435"><ele>130.0</ele><time>2026-04-26T15:56:28.388Z</time></trkpt><trkpt lat="32.9868883" lon="-8.2003017"><ele>130.0</ele><time>2026-04-26T15:56:29.388Z</time></trkpt><trkpt lat="32.9870317" lon="-8.2001917"><ele>130.0</ele><time>2026-04-26T15:56:30.388Z</time></trkpt><trkpt lat="32.9871833" lon="-8.2000933"><ele>130.0</ele><time>2026-04-26T15:56:31.389Z</time></trkpt><trkpt lat="32.98734" lon="-8.2000033"><ele>130.0</ele><time>2026-04-26T15:56:32.388Z</time></trkpt><trkpt lat="32.987495" lon="-8.1999167"><ele>130.0</ele><time>2026-04-26T15:56:33.388Z</time></trkpt><trkpt lat="32.9876517" lon="-8.199835"><ele>131.33333333333334</ele><time>2026-04-26T15:56:34.388Z</time></trkpt><trkpt lat="32.98781" lon="-8.1997517"><ele>132.66666666666666</ele><time>2026-04-26T15:56:35.388Z</time></trkpt><trkpt lat="32.9879667" lon="-8.1996617"><ele>134.0</ele><time>2026-04-26T15:56:36.388Z</time></trkpt><trkpt lat="32.9881217" lon="-8.1995717"><ele>134.0</ele><time>2026-04-26T15:56:37.388Z</time></trkpt><trkpt lat="32.9882783" lon="-8.1994817"><ele>134.0</ele><time>2026-04-26T15:56:38.388Z</time></trkpt><trkpt lat="32.98844" lon="-8.199395"><ele>134.0</ele><time>2026-04-26T15:56:39.388Z</time></trkpt><trkpt lat="32.988595" lon="-8.1993067"><ele>133.0</ele><time>2026-04-26T15:56:40.388Z</time></trkpt><trkpt lat="32.9887583" lon="-8.199215"><ele>132.0</ele><time>2026-04-26T15:56:41.388Z</time></trkpt><trkpt lat="32.98892" lon="-8.199125"><ele>131.0</ele><time>2026-04-26T15:56:42.388Z</time></trkpt><trkpt lat="32.9890783" lon="-8.1990333"><ele>131.0</ele><time>2026-04-26T15:56:43.388Z</time></trkpt><trkpt lat="32.989235" lon="-8.1989383"><ele>131.0</ele><time>2026-04-26T15:56:44.388Z</time></trkpt><trkpt lat="32.9893883" lon="-8.1988383"><ele>131.0</ele><time>2026-04-26T15:56:45.388Z</time></trkpt><trkpt lat="32.98954" lon="-8.19873"><ele>131.0</ele><time>2026-04-26T15:56:46.388Z</time></trkpt><trkpt lat="32.989685" lon="-8.1986117"><ele>131.0</ele><time>2026-04-26T15:56:47.388Z</time></trkpt><trkpt lat="32.9898317" lon="-8.19849"><ele>131.0</ele><time>2026-04-26T15:56:48.388Z</time></trkpt><trkpt lat="32.9899733" lon="-8.1983667"><ele>131.66666666666666</ele><time>2026-04-26T15:56:49.389Z</time></trkpt><trkpt lat="32.99011" lon="-8.198255"><ele>132.33333333333334</ele><time>2026-04-26T15:56:50.388Z</time></trkpt><trkpt lat="32.9902417" lon="-8.1981467"><ele>133.0</ele><time>2026-04-26T15:56:51.388Z</time></trkpt><trkpt lat="32.9903683" lon="-8.198035"><ele>133.66666666666669</ele><time>2026-04-26T15:56:52.388Z</time></trkpt><trkpt lat="32.9904917" lon="-8.1979233"><ele>134.33333333333334</ele><time>2026-04-26T15:56:53.388Z</time></trkpt><trkpt lat="32.9906183" lon="-8.1978183"><ele>135.0</ele><time>2026-04-26T15:56:54.387Z</time></trkpt><trkpt lat="32.99075" lon="-8.1977083"><ele>134.0</ele><time>2026-04-26T15:56:55.387Z</time></trkpt><trkpt lat="32.9908817" lon="-8.1975933"><ele>133.0</ele><time>2026-04-26T15:56:56.387Z</time></trkpt><trkpt lat="32.9910167" lon="-8.1974833"><ele>132.0</ele><time>2026-04-26T15:56:57.387Z</time></trkpt><trkpt lat="32.991155" lon="-8.1973683"><ele>132.0</ele><time>2026-04-26T15:56:58.387Z</time></trkpt><trkpt lat="32.9912983" lon="-8.1972533"><ele>132.0</ele><time>2026-04-26T15:56:59.387Z</time></trkpt><trkpt lat="32.9914433" lon="-8.19713"><ele>132.0</ele><time>2026-04-26T15:57:00.387Z</time></trkpt><trkpt lat="32.99159" lon="-8.1970133"><ele>132.66666666666666</ele><time>2026-04-26T15:57:01.387Z</time></trkpt><trkpt lat="32.9917383" lon="-8.1968867"><ele>133.33333333333331</ele><time>2026-04-26T15:57:02.387Z</time></trkpt><trkpt lat="32.991885" lon="-8.1967533"><ele>134.0</ele><time>2026-04-26T15:57:03.387Z</time></trkpt><trkpt lat="32.9920267" lon="-8.1966133"><ele>133.66666666666666</ele><time>2026-04-26T15:57:04.387Z</time></trkpt><trkpt lat="32.992165" lon="-8.1964767"><ele>133.33333333333334</ele><time>2026-04-26T15:57:05.387Z</time></trkpt><trkpt lat="32.9923083" lon="-8.1963317"><ele>133.0</ele><time>2026-04-26T15:57:06.387Z</time></trkpt><trkpt lat="32.9924517" lon="-8.1961883"><ele>132.66666666666669</ele><time>2026-04-26T15:57:07.387Z</time></trkpt><trkpt lat="32.9925933" lon="-8.1960417"><ele>132.33333333333334</ele><time>2026-04-26T15:57:08.387Z</time></trkpt><trkpt lat="32.9927333" lon="-8.195895"><ele>132.0</ele><time>2026-04-26T15:57:09.387Z</time></trkpt><trkpt lat="32.9928783" lon="-8.1957433"><ele>131.66666666666666</ele><time>2026-04-26T15:57:10.387Z</time></trkpt><trkpt lat="32.9930367" lon="-8.1955967"><ele>131.33333333333331</ele><time>2026-04-26T15:57:11.387Z</time></trkpt><trkpt lat="32.9931917" lon="-8.1954367"><ele>131.0</ele><time>2026-04-26T15:57:12.387Z</time></trkpt><trkpt lat="32.9933467" lon="-8.1952817"><ele>131.0</ele><time>2026-04-26T15:57:13.387Z</time></trkpt><trkpt lat="32.993505" lon="-8.1951117"><ele>131.0</ele><time>2026-04-26T15:57:14.387Z</time></trkpt><trkpt lat="32.9936667" lon="-8.1949433"><ele>131.0</ele><time>2026-04-26T15:57:15.387Z</time></trkpt><trkpt lat="32.99383" lon="-8.1947783"><ele>131.0</ele><time>2026-04-26T15:57:16.387Z</time></trkpt><trkpt lat="32.99399" lon="-8.1946183"><ele>131.0</ele><time>2026-04-26T15:57:17.387Z</time></trkpt><trkpt lat="32.99415" lon="-8.1944567"><ele>131.0</ele><time>2026-04-26T15:57:18.387Z</time></trkpt><trkpt lat="32.99431" lon="-8.1942967"><ele>130.66666666666666</ele><time>2026-04-26T15:57:19.387Z</time></trkpt><trkpt lat="32.9944767" lon="-8.1941333"><ele>130.33333333333334</ele><time>2026-04-26T15:57:20.387Z</time></trkpt><trkpt lat="32.99464" lon="-8.1939683"><ele>130.0</ele><time>2026-04-26T15:57:21.387Z</time></trkpt><trkpt lat="32.9948033" lon="-8.1938033"><ele>130.33333333333334</ele><time>2026-04-26T15:57:22.387Z</time></trkpt><trkpt lat="32.99497" lon="-8.1936383"><ele>130.66666666666666</ele><time>2026-04-26T15:57:23.387Z</time></trkpt><trkpt lat="32.9951317" lon="-8.1934717"><ele>131.0</ele><time>2026-04-26T15:57:24.387Z</time></trkpt><trkpt lat="32.995295" lon="-8.1933"><ele>131.33333333333331</ele><time>2026-04-26T15:57:25.387Z</time></trkpt><trkpt lat="32.9954633" lon="-8.1931267"><ele>131.66666666666666</ele><time>2026-04-26T15:57:26.387Z</time></trkpt><trkpt lat="32.9956267" lon="-8.192965"><ele>132.0</ele><time>2026-04-26T15:57:27.387Z</time></trkpt><trkpt lat="32.9957833" lon="-8.1928083"><ele>131.66666666666666</ele><time>2026-04-26T15:57:28.388Z</time></trkpt><trkpt lat="32.99594" lon="-8.192655"><ele>131.33333333333331</ele><time>2026-04-26T15:57:29.387Z</time></trkpt><trkpt lat="32.9960983" lon="-8.1925017"><ele>131.0</ele><time>2026-04-26T15:57:30.387Z</time></trkpt><trkpt lat="32.9962517" lon="-8.1923533"><ele>131.0</ele><time>2026-04-26T15:57:31.387Z</time></trkpt><trkpt lat="32.9964083" lon="-8.1922017"><ele>131.0</ele><time>2026-04-26T15:57:32.387Z</time></trkpt><trkpt lat="32.9965667" lon="-8.1920483"><ele>131.0</ele><time>2026-04-26T15:57:33.387Z</time></trkpt><trkpt lat="32.9967283" lon="-8.1918983"><ele>131.0</ele><time>2026-04-26T15:57:34.387Z</time></trkpt><trkpt lat="32.99689" lon="-8.191745"><ele>131.0</ele><time>2026-04-26T15:57:35.387Z</time></trkpt><trkpt lat="32.9970483" lon="-8.1915867"><ele>131.0</ele><time>2026-04-26T15:57:36.387Z</time></trkpt><trkpt lat="32.9972133" lon="-8.1914283"><ele>131.0</ele><time>2026-04-26T15:57:37.387Z</time></trkpt><trkpt lat="32.9973683" lon="-8.1912667"><ele>131.0</ele><time>2026-04-26T15:57:38.387Z</time></trkpt><trkpt lat="32.9975233" lon="-8.1911067"><ele>131.0</ele><time>2026-04-26T15:57:39.387Z</time></trkpt><trkpt lat="32.9976783" lon="-8.1909417"><ele>131.0</ele><time>2026-04-26T15:57:40.387Z</time></trkpt><trkpt lat="32.99783" lon="-8.1907783"><ele>131.0</ele><time>2026-04-26T15:57:41.387Z</time></trkpt><trkpt lat="32.99799" lon="-8.1906217"><ele>131.0</ele><time>2026-04-26T15:57:42.387Z</time></trkpt><trkpt lat="32.998155" lon="-8.190465"><ele>130.33333333333331</ele><time>2026-04-26T15:57:43.387Z</time></trkpt><trkpt lat="32.998315" lon="-8.1903"><ele>129.66666666666666</ele><time>2026-04-26T15:57:44.388Z</time></trkpt><trkpt lat="32.9984783" lon="-8.1901433"><ele>129.0</ele><time>2026-04-26T15:57:45.387Z</time></trkpt><trkpt lat="32.99864" lon="-8.1899783"><ele>128.33333333333334</ele><time>2026-04-26T15:57:46.387Z</time></trkpt><trkpt lat="32.9988033" lon="-8.1898233"><ele>127.66666666666667</ele><time>2026-04-26T15:57:47.387Z</time></trkpt><trkpt lat="32.9989617" lon="-8.1896583"><ele>127.0</ele><time>2026-04-26T15:57:48.387Z</time></trkpt><trkpt lat="32.9991167" lon="-8.189505"><ele>127.33333333333334</ele><time>2026-04-26T15:57:49.387Z</time></trkpt><trkpt lat="32.9992667" lon="-8.1893617"><ele>127.66666666666666</ele><time>2026-04-26T15:57:50.387Z</time></trkpt><trkpt lat="32.9994133" lon="-8.1892183"><ele>128.0</ele><time>2026-04-26T15:57:51.387Z</time></trkpt><trkpt lat="32.9995583" lon="-8.1890767"><ele>128.66666666666666</ele><time>2026-04-26T15:57:52.387Z</time></trkpt><trkpt lat="32.9997017" lon="-8.1889417"><ele>129.33333333333334</ele><time>2026-04-26T15:57:53.387Z</time></trkpt><trkpt lat="32.9998533" lon="-8.1888117"><ele>130.0</ele><time>2026-04-26T15:57:54.387Z</time></trkpt><trkpt lat="33.00001" lon="-8.18868"><ele>130.0</ele><time>2026-04-26T15:57:55.387Z</time></trkpt><trkpt lat="33.0001683" lon="-8.188555"><ele>130.0</ele><time>2026-04-26T15:57:56.387Z</time></trkpt><trkpt lat="33.0003233" lon="-8.188435"><ele>130.0</ele><time>2026-04-26T15:57:57.387Z</time></trkpt><trkpt lat="33.000475" lon="-8.1883267"><ele>130.0</ele><time>2026-04-26T15:57:58.387Z</time></trkpt><trkpt lat="33.0006267" lon="-8.1882167"><ele>130.0</ele><time>2026-04-26T15:57:59.387Z</time></trkpt><trkpt lat="33.0007767" lon="-8.188105"><ele>130.0</ele><time>2026-04-26T15:58:00.387Z</time></trkpt><trkpt lat="33.0009283" lon="-8.1879917"><ele>131.0</ele><time>2026-04-26T15:58:01.387Z</time></trkpt><trkpt lat="33.0010767" lon="-8.187875"><ele>132.0</ele><time>2026-04-26T15:58:02.387Z</time></trkpt><trkpt lat="33.0012167" lon="-8.1877617"><ele>133.0</ele><time>2026-04-26T15:58:03.387Z</time></trkpt><trkpt lat="33.001355" lon="-8.1876517"><ele>133.0</ele><time>2026-04-26T15:58:04.387Z</time></trkpt><trkpt lat="33.0014917" lon="-8.18754"><ele>133.0</ele><time>2026-04-26T15:58:05.387Z</time></trkpt><trkpt lat="33.0016267" lon="-8.1874317"><ele>133.0</ele><time>2026-04-26T15:58:06.387Z</time></trkpt><trkpt lat="33.0017667" lon="-8.187325"><ele>133.0</ele><time>2026-04-26T15:58:07.387Z</time></trkpt><trkpt lat="33.0019067" lon="-8.1872167"><ele>133.0</ele><time>2026-04-26T15:58:08.387Z</time></trkpt><trkpt lat="33.0020483" lon="-8.1871083"><ele>133.0</ele><time>2026-04-26T15:58:09.387Z</time></trkpt><trkpt lat="33.0021933" lon="-8.1869917"><ele>133.0</ele><time>2026-04-26T15:58:10.387Z</time></trkpt><trkpt lat="33.0023417" lon="-8.1868767"><ele>133.0</ele><time>2026-04-26T15:58:11.387Z</time></trkpt><trkpt lat="33.0024917" lon="-8.1867567"><ele>133.0</ele><time>2026-04-26T15:58:12.387Z</time></trkpt><trkpt lat="33.002645" lon="-8.1866417"><ele>133.33333333333334</ele><time>2026-04-26T15:58:13.387Z</time></trkpt><trkpt lat="33.0028033" lon="-8.1865217"><ele>133.66666666666666</ele><time>2026-04-26T15:58:14.387Z</time></trkpt><trkpt lat="33.002965" lon="-8.1863967"><ele>134.0</ele><time>2026-04-26T15:58:15.387Z</time></trkpt><trkpt lat="33.0031283" lon="-8.1862717"><ele>134.33333333333331</ele><time>2026-04-26T15:58:16.387Z</time></trkpt><trkpt lat="33.0032883" lon="-8.1861483"><ele>134.66666666666666</ele><time>2026-04-26T15:58:17.388Z</time></trkpt><trkpt lat="33.003455" lon="-8.1860267"><ele>135.0</ele><time>2026-04-26T15:58:18.387Z</time></trkpt><trkpt lat="33.0036267" lon="-8.1859"><ele>133.66666666666666</ele><time>2026-04-26T15:58:19.387Z</time></trkpt><trkpt lat="33.0037983" lon="-8.185765"><ele>132.33333333333331</ele><time>2026-04-26T15:58:20.387Z</time></trkpt><trkpt lat="33.003965" lon="-8.1856417"><ele>131.0</ele><time>2026-04-26T15:58:21.387Z</time></trkpt><trkpt lat="33.00412" lon="-8.1855167"><ele>131.0</ele><time>2026-04-26T15:58:22.387Z</time></trkpt><trkpt lat="33.004275" lon="-8.18539"><ele>131.0</ele><time>2026-04-26T15:58:23.387Z</time></trkpt><trkpt lat="33.0044267" lon="-8.185265"><ele>131.0</ele><time>2026-04-26T15:58:24.387Z</time></trkpt><trkpt lat="33.0045783" lon="-8.1851467"><ele>131.0</ele><time>2026-04-26T15:58:25.387Z</time></trkpt><trkpt lat="33.00473" lon="-8.185025"><ele>131.0</ele><time>2026-04-26T15:58:26.387Z</time></trkpt><trkpt lat="33.0048817" lon="-8.1849033"><ele>131.0</ele><time>2026-04-26T15:58:27.387Z</time></trkpt><trkpt lat="33.005035" lon="-8.18478"><ele>131.66666666666666</ele><time>2026-04-26T15:58:28.387Z</time></trkpt><trkpt lat="33.0051917" lon="-8.1846533"><ele>132.33333333333334</ele><time>2026-04-26T15:58:29.387Z</time></trkpt><trkpt lat="33.0053533" lon="-8.1845267"><ele>133.0</ele><time>2026-04-26T15:58:30.387Z</time></trkpt><trkpt lat="33.0055117" lon="-8.1843967"><ele>133.0</ele><time>2026-04-26T15:58:31.387Z</time></trkpt><trkpt lat="33.0056717" lon="-8.1842767"><ele>133.0</ele><time>2026-04-26T15:58:32.387Z</time></trkpt><trkpt lat="33.00582" lon="-8.184155"><ele>133.0</ele><time>2026-04-26T15:58:33.387Z</time></trkpt><trkpt lat="33.0059717" lon="-8.1840367"><ele>133.0</ele><time>2026-04-26T15:58:34.387Z</time></trkpt><trkpt lat="33.006125" lon="-8.1839217"><ele>133.0</ele><time>2026-04-26T15:58:35.387Z</time></trkpt><trkpt lat="33.006275" lon="-8.1838017"><ele>133.0</ele><time>2026-04-26T15:58:36.387Z</time></trkpt><trkpt lat="33.006425" lon="-8.1836783"><ele>133.0</ele><time>2026-04-26T15:58:37.387Z</time></trkpt><trkpt lat="33.0065783" lon="-8.183555"><ele>133.0</ele><time>2026-04-26T15:58:38.387Z</time></trkpt><trkpt lat="33.0067267" lon="-8.183435"><ele>133.0</ele><time>2026-04-26T15:58:39.387Z</time></trkpt><trkpt lat="33.0068767" lon="-8.1833117"><ele>133.33333333333334</ele><time>2026-04-26T15:58:40.387Z</time></trkpt><trkpt lat="33.0070217" lon="-8.1832017"><ele>133.66666666666666</ele><time>2026-04-26T15:58:41.387Z</time></trkpt><trkpt lat="33.0071667" lon="-8.1830883"><ele>134.0</ele><time>2026-04-26T15:58:42.387Z</time></trkpt><trkpt lat="33.00732" lon="-8.182975"><ele>134.0</ele><time>2026-04-26T15:58:43.387Z</time></trkpt><trkpt lat="33.00748" lon="-8.1828717"><ele>134.0</ele><time>2026-04-26T15:58:44.387Z</time></trkpt><trkpt lat="33.0076383" lon="-8.182765"><ele>134.0</ele><time>2026-04-26T15:58:45.387Z</time></trkpt><trkpt lat="33.0077967" lon="-8.1826633"><ele>134.33333333333331</ele><time>2026-04-26T15:58:46.387Z</time></trkpt><trkpt lat="33.007955" lon="-8.1825667"><ele>134.66666666666666</ele><time>2026-04-26T15:58:47.387Z</time></trkpt><trkpt lat="33.0081133" lon="-8.18247"><ele>135.0</ele><time>2026-04-26T15:58:48.388Z</time></trkpt><trkpt lat="33.0082733" lon="-8.18237"><ele>135.33333333333334</ele><time>2026-04-26T15:58:49.387Z</time></trkpt><trkpt lat="33.0084333" lon="-8.1822683"><ele>135.66666666666669</ele><time>2026-04-26T15:58:50.387Z</time></trkpt><trkpt lat="33.0085983" lon="-8.1821667"><ele>136.0</ele><time>2026-04-26T15:58:51.387Z</time></trkpt><trkpt lat="33.0087633" lon="-8.1820567"><ele>136.0</ele><time>2026-04-26T15:58:52.387Z</time></trkpt><trkpt lat="33.0089317" lon="-8.181955"><ele>136.0</ele><time>2026-04-26T15:58:53.387Z</time></trkpt><trkpt lat="33.0091083" lon="-8.1818433"><ele>136.0</ele><time>2026-04-26T15:58:54.387Z</time></trkpt><trkpt lat="33.00928" lon="-8.181735"><ele>136.33333333333334</ele><time>2026-04-26T15:58:55.387Z</time></trkpt><trkpt lat="33.00945" lon="-8.1816333"><ele>136.66666666666666</ele><time>2026-04-26T15:58:56.387Z</time></trkpt><trkpt lat="33.00962" lon="-8.181525"><ele>137.0</ele><time>2026-04-26T15:58:57.387Z</time></trkpt><trkpt lat="33.009795" lon="-8.18142"><ele>137.33333333333331</ele><time>2026-04-26T15:58:58.387Z</time></trkpt><trkpt lat="33.0099667" lon="-8.1813117"><ele>137.66666666666666</ele><time>2026-04-26T15:58:59.387Z</time></trkpt><trkpt lat="33.0101383" lon="-8.18121"><ele>138.0</ele><time>2026-04-26T15:59:00.387Z</time></trkpt><trkpt lat="33.0103117" lon="-8.1811017"><ele>138.0</ele><time>2026-04-26T15:59:01.387Z</time></trkpt><trkpt lat="33.010485" lon="-8.1809933"><ele>138.0</ele><time>2026-04-26T15:59:02.387Z</time></trkpt><trkpt lat="33.0106533" lon="-8.1808883"><ele>138.0</ele><time>2026-04-26T15:59:03.387Z</time></trkpt><trkpt lat="33.01083" lon="-8.180775"><ele>138.33333333333334</ele><time>2026-04-26T15:59:04.388Z</time></trkpt><trkpt lat="33.011" lon="-8.1806667"><ele>138.66666666666669</ele><time>2026-04-26T15:59:05.387Z</time></trkpt><trkpt lat="33.0111717" lon="-8.1805567"><ele>139.0</ele><time>2026-04-26T15:59:06.387Z</time></trkpt><trkpt lat="33.0113417" lon="-8.18045"><ele>139.0</ele><time>2026-04-26T15:59:07.387Z</time></trkpt><trkpt lat="33.0115067" lon="-8.18035"><ele>139.0</ele><time>2026-04-26T15:59:08.387Z</time></trkpt><trkpt lat="33.0116567" lon="-8.1802617"><ele>139.0</ele><time>2026-04-26T15:59:09.387Z</time></trkpt><trkpt lat="33.0118017" lon="-8.180175"><ele>138.75</ele><time>2026-04-26T15:59:10.387Z</time></trkpt><trkpt lat="33.0119317" lon="-8.1800917"><ele>138.5</ele><time>2026-04-26T15:59:11.387Z</time></trkpt><trkpt lat="33.0120533" lon="-8.1800183"><ele>138.25</ele><time>2026-04-26T15:59:12.387Z</time></trkpt><trkpt lat="33.0121717" lon="-8.1799517"><ele>138.0</ele><time>2026-04-26T15:59:13.387Z</time></trkpt><trkpt lat="33.0122933" lon="-8.1799"><ele>138.33333333333334</ele><time>2026-04-26T15:59:14.387Z</time></trkpt><trkpt lat="33.012415" lon="-8.1798383"><ele>138.66666666666669</ele><time>2026-04-26T15:59:15.387Z</time></trkpt><trkpt lat="33.01255" lon="-8.179755"><ele>139.0</ele><time>2026-04-26T15:59:16.387Z</time></trkpt><trkpt lat="33.0127" lon="-8.179655"><ele>139.33333333333334</ele><time>2026-04-26T15:59:17.387Z</time></trkpt><trkpt lat="33.0128633" lon="-8.1795417"><ele>139.66666666666666</ele><time>2026-04-26T15:59:18.387Z</time></trkpt><trkpt lat="33.0130417" lon="-8.179425"><ele>140.0</ele><time>2026-04-26T15:59:19.387Z</time></trkpt><trkpt lat="33.0132233" lon="-8.179305"><ele>140.5</ele><time>2026-04-26T15:59:20.387Z</time></trkpt><trkpt lat="33.0134183" lon="-8.1791833"><ele>141.0</ele><time>2026-04-26T15:59:21.387Z</time></trkpt><trkpt lat="33.0136233" lon="-8.179055"><ele>141.5</ele><time>2026-04-26T15:59:22.387Z</time></trkpt><trkpt lat="33.0138367" lon="-8.1789217"><ele>142.0</ele><time>2026-04-26T15:59:23.387Z</time></trkpt><trkpt lat="33.01404" lon="-8.1787983"><ele>142.33333333333334</ele><time>2026-04-26T15:59:24.387Z</time></trkpt><trkpt lat="33.0142367" lon="-8.1786767"><ele>142.66666666666666</ele><time>2026-04-26T15:59:25.387Z</time></trkpt><trkpt lat="33.01442" lon="-8.17856"><ele>143.0</ele><time>2026-04-26T15:59:26.387Z</time></trkpt><trkpt lat="33.0146067" lon="-8.1784417"><ele>143.0</ele><time>2026-04-26T15:59:27.388Z</time></trkpt><trkpt lat="33.014795" lon="-8.17832"><ele>143.0</ele><time>2026-04-26T15:59:28.387Z</time></trkpt><trkpt lat="33.014985" lon="-8.1781933"><ele>143.0</ele><time>2026-04-26T15:59:29.387Z</time></trkpt><trkpt lat="33.015185" lon="-8.178065"><ele>142.0</ele><time>2026-04-26T15:59:30.387Z</time></trkpt><trkpt lat="33.0153867" lon="-8.1779367"><ele>141.0</ele><time>2026-04-26T15:59:31.388Z</time></trkpt><trkpt lat="33.0155867" lon="-8.177805"><ele>141.0</ele><time>2026-04-26T15:59:32.387Z</time></trkpt><trkpt lat="33.015785" lon="-8.1776733"><ele>141.0</ele><time>2026-04-26T15:59:33.387Z</time></trkpt><trkpt lat="33.01597" lon="-8.1775433"><ele>141.0</ele><time>2026-04-26T15:59:34.387Z</time></trkpt><trkpt lat="33.01615" lon="-8.1774083"><ele>141.33333333333334</ele><time>2026-04-26T15:59:35.387Z</time></trkpt><trkpt lat="33.01633" lon="-8.1772733"><ele>141.66666666666669</ele><time>2026-04-26T15:59:36.387Z</time></trkpt><trkpt lat="33.016515" lon="-8.1771283"><ele>142.0</ele><time>2026-04-26T15:59:37.387Z</time></trkpt><trkpt lat="33.0166917" lon="-8.176985"><ele>142.66666666666669</ele><time>2026-04-26T15:59:38.387Z</time></trkpt><trkpt lat="33.01686" lon="-8.17685"><ele>143.33333333333334</ele><time>2026-04-26T15:59:39.387Z</time></trkpt><trkpt lat="33.0170233" lon="-8.1767183"><ele>144.0</ele><time>2026-04-26T15:59:40.387Z</time></trkpt><trkpt lat="33.01719" lon="-8.176585"><ele>144.33333333333334</ele><time>2026-04-26T15:59:41.387Z</time></trkpt><trkpt lat="33.0173433" lon="-8.176455"><ele>144.66666666666669</ele><time>2026-04-26T15:59:42.387Z</time></trkpt><trkpt lat="33.0174883" lon="-8.17634"><ele>145.0</ele><time>2026-04-26T15:59:43.387Z</time></trkpt><trkpt lat="33.017625" lon="-8.1762217"><ele>145.66666666666669</ele><time>2026-04-26T15:59:44.387Z</time></trkpt><trkpt lat="33.017765" lon="-8.1761067"><ele>146.33333333333334</ele><time>2026-04-26T15:59:45.387Z</time></trkpt><trkpt lat="33.0179117" lon="-8.1759817"><ele>147.0</ele><time>2026-04-26T15:59:46.387Z</time></trkpt><trkpt lat="33.01806" lon="-8.17585"><ele>147.0</ele><time>2026-04-26T15:59:47.387Z</time></trkpt><trkpt lat="33.01822" lon="-8.1757183"><ele>147.0</ele><time>2026-04-26T15:59:48.388Z</time></trkpt><trkpt lat="33.0183833" lon="-8.1755833"><ele>147.0</ele><time>2026-04-26T15:59:49.387Z</time></trkpt><trkpt lat="33.018545" lon="-8.175455"><ele>146.33333333333334</ele><time>2026-04-26T15:59:50.387Z</time></trkpt><trkpt lat="33.018705" lon="-8.1753367"><ele>145.66666666666669</ele><time>2026-04-26T15:59:51.387Z</time></trkpt><trkpt lat="33.0188583" lon="-8.17522"><ele>145.0</ele><time>2026-04-26T15:59:52.387Z</time></trkpt><trkpt lat="33.0190183" lon="-8.1751"><ele>145.66666666666669</ele><time>2026-04-26T15:59:53.387Z</time></trkpt><trkpt lat="33.0191833" lon="-8.1749883"><ele>146.33333333333334</ele><time>2026-04-26T15:59:54.387Z</time></trkpt><trkpt lat="33.0193467" lon="-8.1748767"><ele>147.0</ele><time>2026-04-26T15:59:55.387Z</time></trkpt><trkpt lat="33.0195167" lon="-8.1747717"><ele>147.0</ele><time>2026-04-26T15:59:56.387Z</time></trkpt><trkpt lat="33.0196933" lon="-8.174665"><ele>147.0</ele><time>2026-04-26T15:59:57.387Z</time></trkpt><trkpt lat="33.0198767" lon="-8.1745617"><ele>147.0</ele><time>2026-04-26T15:59:58.387Z</time></trkpt><trkpt lat="33.020055" lon="-8.17446"><ele>147.0</ele><time>2026-04-26T15:59:59.387Z</time></trkpt><trkpt lat="33.0202417" lon="-8.1743567"><ele>147.0</ele><time>2026-04-26T16:00:00.387Z</time></trkpt><trkpt lat="33.0204183" lon="-8.1742583"><ele>147.0</ele><time>2026-04-26T16:00:01.387Z</time></trkpt><trkpt lat="33.0205933" lon="-8.174165"><ele>147.0</ele><time>2026-04-26T16:00:02.387Z</time></trkpt><trkpt lat="33.0207717" lon="-8.1740733"><ele>147.0</ele><time>2026-04-26T16:00:03.387Z</time></trkpt><trkpt lat="33.0209483" lon="-8.1739767"><ele>147.0</ele><time>2026-04-26T16:00:04.387Z</time></trkpt><trkpt lat="33.0211333" lon="-8.1738817"><ele>147.0</ele><time>2026-04-26T16:00:05.387Z</time></trkpt><trkpt lat="33.02132" lon="-8.1737833"><ele>147.0</ele><time>2026-04-26T16:00:06.387Z</time></trkpt><trkpt lat="33.0215017" lon="-8.1736833"><ele>147.0</ele><time>2026-04-26T16:00:07.387Z</time></trkpt><trkpt lat="33.021675" lon="-8.1735867"><ele>147.0</ele><time>2026-04-26T16:00:08.387Z</time></trkpt><trkpt lat="33.0218367" lon="-8.1735067"><ele>147.0</ele><time>2026-04-26T16:00:09.387Z</time></trkpt><trkpt lat="33.022005" lon="-8.17342"><ele>147.0</ele><time>2026-04-26T16:00:10.387Z</time></trkpt><trkpt lat="33.02217" lon="-8.1733333"><ele>147.0</ele><time>2026-04-26T16:00:11.387Z</time></trkpt><trkpt lat="33.0223383" lon="-8.1732317"><ele>147.0</ele><time>2026-04-26T16:00:12.387Z</time></trkpt><trkpt lat="33.0225083" lon="-8.173135"><ele>147.0</ele><time>2026-04-26T16:00:13.387Z</time></trkpt><trkpt lat="33.0226783" lon="-8.1730433"><ele>147.66666666666666</ele><time>2026-04-26T16:00:14.387Z</time></trkpt><trkpt lat="33.0228517" lon="-8.1729467"><ele>148.33333333333331</ele><time>2026-04-26T16:00:15.387Z</time></trkpt><trkpt lat="33.0230267" lon="-8.1728517"><ele>149.0</ele><time>2026-04-26T16:00:16.387Z</time></trkpt><trkpt lat="33.0232033" lon="-8.1727517"><ele>149.33333333333331</ele><time>2026-04-26T16:00:17.387Z</time></trkpt><trkpt lat="33.0233767" lon="-8.1726533"><ele>149.66666666666666</ele><time>2026-04-26T16:00:18.387Z</time></trkpt><trkpt lat="33.0235517" lon="-8.1725583"><ele>150.0</ele><time>2026-04-26T16:00:19.387Z</time></trkpt><trkpt lat="33.0237283" lon="-8.17246"><ele>150.0</ele><time>2026-04-26T16:00:20.387Z</time></trkpt><trkpt lat="33.0239083" lon="-8.1723617"><ele>150.0</ele><time>2026-04-26T16:00:21.388Z</time></trkpt><trkpt lat="33.0240883" lon="-8.1722717"><ele>150.0</ele><time>2026-04-26T16:00:22.387Z</time></trkpt><trkpt lat="33.02426" lon="-8.1721783"><ele>150.33333333333334</ele><time>2026-04-26T16:00:23.387Z</time></trkpt><trkpt lat="33.024425" lon="-8.1720833"><ele>150.66666666666669</ele><time>2026-04-26T16:00:24.387Z</time></trkpt><trkpt lat="33.0245867" lon="-8.171995"><ele>151.0</ele><time>2026-04-26T16:00:25.387Z</time></trkpt><trkpt lat="33.0247433" lon="-8.171905"><ele>151.0</ele><time>2026-04-26T16:00:26.387Z</time></trkpt><trkpt lat="33.0248967" lon="-8.1718167"><ele>151.0</ele><time>2026-04-26T16:00:27.387Z</time></trkpt><trkpt lat="33.0250417" lon="-8.17173"><ele>151.0</ele><time>2026-04-26T16:00:28.387Z</time></trkpt><trkpt lat="33.0251833" lon="-8.1716533"><ele>152.0</ele><time>2026-04-26T16:00:29.387Z</time></trkpt><trkpt lat="33.02532" lon="-8.1715783"><ele>153.0</ele><time>2026-04-26T16:00:30.387Z</time></trkpt><trkpt lat="33.02546" lon="-8.1715067"><ele>154.0</ele><time>2026-04-26T16:00:31.387Z</time></trkpt><trkpt lat="33.0256033" lon="-8.1714333"><ele>154.0</ele><time>2026-04-26T16:00:32.387Z</time></trkpt><trkpt lat="33.0257433" lon="-8.171355"><ele>154.0</ele><time>2026-04-26T16:00:33.387Z</time></trkpt><trkpt lat="33.0258917" lon="-8.1712883"><ele>154.0</ele><time>2026-04-26T16:00:34.387Z</time></trkpt><trkpt lat="33.0260367" lon="-8.1712267"><ele>155.0</ele><time>2026-04-26T16:00:35.387Z</time></trkpt><trkpt lat="33.026195" lon="-8.1711717"><ele>156.0</ele><time>2026-04-26T16:00:36.387Z</time></trkpt><trkpt lat="33.026365" lon="-8.1711167"><ele>157.0</ele><time>2026-04-26T16:00:37.387Z</time></trkpt><trkpt lat="33.0265517" lon="-8.171065"><ele>158.33333333333334</ele><time>2026-04-26T16:00:38.387Z</time></trkpt><trkpt lat="33.026745" lon="-8.1710117"><ele>159.66666666666666</ele><time>2026-04-26T16:00:39.388Z</time></trkpt><trkpt lat="33.0269383" lon="-8.1709567"><ele>161.0</ele><time>2026-04-26T16:00:40.387Z</time></trkpt><trkpt lat="33.0271217" lon="-8.1709083"><ele>161.0</ele><time>2026-04-26T16:00:41.387Z</time></trkpt><trkpt lat="33.027305" lon="-8.17085"><ele>161.0</ele><time>2026-04-26T16:00:42.387Z</time></trkpt><trkpt lat="33.0275" lon="-8.1708"><ele>161.0</ele><time>2026-04-26T16:00:43.387Z</time></trkpt><trkpt lat="33.0277017" lon="-8.1707367"><ele>161.33333333333331</ele><time>2026-04-26T16:00:44.387Z</time></trkpt><trkpt lat="33.0279067" lon="-8.1706767"><ele>161.66666666666666</ele><time>2026-04-26T16:00:45.387Z</time></trkpt><trkpt lat="33.0281117" lon="-8.1706167"><ele>162.0</ele><time>2026-04-26T16:00:46.387Z</time></trkpt><trkpt lat="33.0283167" lon="-8.1705617"><ele>163.33333333333334</ele><time>2026-04-26T16:00:47.387Z</time></trkpt><trkpt lat="33.0285167" lon="-8.1705083"><ele>164.66666666666669</ele><time>2026-04-26T16:00:48.387Z</time></trkpt><trkpt lat="33.0287083" lon="-8.1704533"><ele>166.0</ele><time>2026-04-26T16:00:49.387Z</time></trkpt><trkpt lat="33.02889" lon="-8.1703983"><ele>166.0</ele><time>2026-04-26T16:00:50.387Z</time></trkpt><trkpt lat="33.0290683" lon="-8.170345"><ele>166.0</ele><time>2026-04-26T16:00:51.387Z</time></trkpt><trkpt lat="33.0292483" lon="-8.1702933"><ele>166.0</ele><time>2026-04-26T16:00:52.387Z</time></trkpt><trkpt lat="33.0294267" lon="-8.17024"><ele>166.0</ele><time>2026-04-26T16:00:53.387Z</time></trkpt><trkpt lat="33.02961" lon="-8.1701817"><ele>166.0</ele><time>2026-04-26T16:00:54.387Z</time></trkpt><trkpt lat="33.0298" lon="-8.1701283"><ele>166.0</ele><time>2026-04-26T16:00:55.387Z</time></trkpt><trkpt lat="33.029985" lon="-8.1700617"><ele>166.0</ele><time>2026-04-26T16:00:56.388Z</time></trkpt><trkpt lat="33.0301633" lon="-8.1700017"><ele>166.0</ele><time>2026-04-26T16:00:57.387Z</time></trkpt><trkpt lat="33.0303383" lon="-8.1699067"><ele>166.0</ele><time>2026-04-26T16:00:58.387Z</time></trkpt><trkpt lat="33.030505" lon="-8.16979"><ele>166.0</ele><time>2026-04-26T16:00:59.387Z</time></trkpt><trkpt lat="33.030675" lon="-8.1696567"><ele>166.0</ele><time>2026-04-26T16:01:00.387Z</time></trkpt><trkpt lat="33.0308433" lon="-8.1695117"><ele>166.0</ele><time>2026-04-26T16:01:01.387Z</time></trkpt><trkpt lat="33.0310233" lon="-8.1693583"><ele>166.0</ele><time>2026-04-26T16:01:02.387Z</time></trkpt><trkpt lat="33.0311917" lon="-8.1692183"><ele>166.0</ele><time>2026-04-26T16:01:03.387Z</time></trkpt><trkpt lat="33.0313567" lon="-8.16908"><ele>166.0</ele><time>2026-04-26T16:01:04.387Z</time></trkpt><trkpt lat="33.0315083" lon="-8.1689567"><ele>166.33333333333334</ele><time>2026-04-26T16:01:05.387Z</time></trkpt><trkpt lat="33.0316567" lon="-8.1688317"><ele>166.66666666666666</ele><time>2026-04-26T16:01:06.387Z</time></trkpt><trkpt lat="33.0317983" lon="-8.1687117"><ele>167.0</ele><time>2026-04-26T16:01:07.387Z</time></trkpt><trkpt lat="33.0319367" lon="-8.1686033"><ele>167.0</ele><time>2026-04-26T16:01:08.387Z</time></trkpt><trkpt lat="33.03207" lon="-8.1684917"><ele>167.0</ele><time>2026-04-26T16:01:09.387Z</time></trkpt><trkpt lat="33.032205" lon="-8.168385"><ele>167.0</ele><time>2026-04-26T16:01:10.387Z</time></trkpt><trkpt lat="33.0323417" lon="-8.1682717"><ele>166.0</ele><time>2026-04-26T16:01:11.387Z</time></trkpt><trkpt lat="33.0324783" lon="-8.168145"><ele>165.0</ele><time>2026-04-26T16:01:12.387Z</time></trkpt><trkpt lat="33.0326217" lon="-8.1680083"><ele>164.0</ele><time>2026-04-26T16:01:13.387Z</time></trkpt><trkpt lat="33.0327683" lon="-8.1678633"><ele>164.0</ele><time>2026-04-26T16:01:14.387Z</time></trkpt><trkpt lat="33.0329217" lon="-8.1677167"><ele>164.0</ele><time>2026-04-26T16:01:15.387Z</time></trkpt><trkpt lat="33.0330883" lon="-8.167565"><ele>164.0</ele><time>2026-04-26T16:01:16.387Z</time></trkpt><trkpt lat="33.033255" lon="-8.1674117"><ele>165.0</ele><time>2026-04-26T16:01:17.387Z</time></trkpt><trkpt lat="33.0334167" lon="-8.167265"><ele>166.0</ele><time>2026-04-26T16:01:18.387Z</time></trkpt><trkpt lat="33.0335683" lon="-8.1671267"><ele>167.0</ele><time>2026-04-26T16:01:19.387Z</time></trkpt><trkpt lat="33.0337167" lon="-8.16699"><ele>167.0</ele><time>2026-04-26T16:01:20.387Z</time></trkpt><trkpt lat="33.033875" lon="-8.166855"><ele>167.0</ele><time>2026-04-26T16:01:21.387Z</time></trkpt><trkpt lat="33.0340267" lon="-8.1667117"><ele>167.0</ele><time>2026-04-26T16:01:22.387Z</time></trkpt><trkpt lat="33.0341867" lon="-8.1665583"><ele>167.0</ele><time>2026-04-26T16:01:23.387Z</time></trkpt><trkpt lat="33.0343517" lon="-8.1664083"><ele>167.0</ele><time>2026-04-26T16:01:24.387Z</time></trkpt><trkpt lat="33.034515" lon="-8.1662633"><ele>167.0</ele><time>2026-04-26T16:01:25.387Z</time></trkpt><trkpt lat="33.0346717" lon="-8.166125"><ele>167.0</ele><time>2026-04-26T16:01:26.387Z</time></trkpt><trkpt lat="33.034825" lon="-8.16599"><ele>167.0</ele><time>2026-04-26T16:01:27.387Z</time></trkpt><trkpt lat="33.0349783" lon="-8.165855"><ele>167.0</ele><time>2026-04-26T16:01:28.387Z</time></trkpt><trkpt lat="33.0351433" lon="-8.165725"><ele>167.33333333333331</ele><time>2026-04-26T16:01:29.387Z</time></trkpt><trkpt lat="33.0353117" lon="-8.16559"><ele>167.66666666666666</ele><time>2026-04-26T16:01:30.387Z</time></trkpt><trkpt lat="33.035485" lon="-8.1654533"><ele>168.0</ele><time>2026-04-26T16:01:31.387Z</time></trkpt><trkpt lat="33.0356617" lon="-8.1653167"><ele>167.0</ele><time>2026-04-26T16:01:32.387Z</time></trkpt><trkpt lat="33.0358317" lon="-8.1651867"><ele>166.0</ele><time>2026-04-26T16:01:33.387Z</time></trkpt><trkpt lat="33.0359983" lon="-8.1650617"><ele>165.0</ele><time>2026-04-26T16:01:34.387Z</time></trkpt><trkpt lat="33.03617" lon="-8.1649417"><ele>165.0</ele><time>2026-04-26T16:01:35.387Z</time></trkpt><trkpt lat="33.03634" lon="-8.1648183"><ele>165.0</ele><time>2026-04-26T16:01:36.387Z</time></trkpt><trkpt lat="33.0364983" lon="-8.164695"><ele>165.0</ele><time>2026-04-26T16:01:37.387Z</time></trkpt><trkpt lat="33.0366517" lon="-8.1645833"><ele>165.0</ele><time>2026-04-26T16:01:38.387Z</time></trkpt><trkpt lat="33.0368033" lon="-8.1644667"><ele>165.0</ele><time>2026-04-26T16:01:39.387Z</time></trkpt><trkpt lat="33.03696" lon="-8.1643533"><ele>165.0</ele><time>2026-04-26T16:01:40.387Z</time></trkpt><trkpt lat="33.03712" lon="-8.164235"><ele>165.0</ele><time>2026-04-26T16:01:41.387Z</time></trkpt><trkpt lat="33.0372833" lon="-8.1641083"><ele>165.0</ele><time>2026-04-26T16:01:42.387Z</time></trkpt><trkpt lat="33.037445" lon="-8.1639833"><ele>165.0</ele><time>2026-04-26T16:01:43.387Z</time></trkpt><trkpt lat="33.0376033" lon="-8.1638617"><ele>163.66666666666666</ele><time>2026-04-26T16:01:44.387Z</time></trkpt><trkpt lat="33.03776" lon="-8.1637383"><ele>162.33333333333331</ele><time>2026-04-26T16:01:45.387Z</time></trkpt><trkpt lat="33.0379217" lon="-8.163615"><ele>161.0</ele><time>2026-04-26T16:01:46.387Z</time></trkpt><trkpt lat="33.0380833" lon="-8.163485"><ele>161.0</ele><time>2026-04-26T16:01:47.387Z</time></trkpt><trkpt lat="33.0382433" lon="-8.1633583"><ele>161.0</ele><time>2026-04-26T16:01:48.387Z</time></trkpt><trkpt lat="33.038405" lon="-8.1632433"><ele>161.0</ele><time>2026-04-26T16:01:49.387Z</time></trkpt><trkpt lat="33.0385583" lon="-8.1631167"><ele>161.33333333333331</ele><time>2026-04-26T16:01:50.387Z</time></trkpt><trkpt lat="33.0387083" lon="-8.1629933"><ele>161.66666666666666</ele><time>2026-04-26T16:01:51.387Z</time></trkpt><trkpt lat="33.03886" lon="-8.1628717"><ele>162.0</ele><time>2026-04-26T16:01:52.387Z</time></trkpt><trkpt lat="33.0390183" lon="-8.16275"><ele>162.66666666666666</ele><time>2026-04-26T16:01:53.387Z</time></trkpt><trkpt lat="33.0391817" lon="-8.16263"><ele>163.33333333333331</ele><time>2026-04-26T16:01:54.387Z</time></trkpt><trkpt lat="33.039345" lon="-8.1625067"><ele>164.0</ele><time>2026-04-26T16:01:55.387Z</time></trkpt><trkpt lat="33.03951" lon="-8.1623817"><ele>162.66666666666666</ele><time>2026-04-26T16:01:56.387Z</time></trkpt><trkpt lat="33.039675" lon="-8.1622633"><ele>161.33333333333334</ele><time>2026-04-26T16:01:57.387Z</time></trkpt><trkpt lat="33.0398367" lon="-8.1621317"><ele>160.0</ele><time>2026-04-26T16:01:58.387Z</time></trkpt><trkpt lat="33.0400033" lon="-8.1620117"><ele>160.0</ele><time>2026-04-26T16:01:59.387Z</time></trkpt><trkpt lat="33.0401617" lon="-8.1618883"><ele>160.0</ele><time>2026-04-26T16:02:00.387Z</time></trkpt><trkpt lat="33.0403217" lon="-8.161775"><ele>160.0</ele><time>2026-04-26T16:02:01.387Z</time></trkpt><trkpt lat="33.0404783" lon="-8.1616583"><ele>160.0</ele><time>2026-04-26T16:02:02.387Z</time></trkpt><trkpt lat="33.04064" lon="-8.161545"><ele>160.0</ele><time>2026-04-26T16:02:03.387Z</time></trkpt><trkpt lat="33.0408233" lon="-8.1614167"><ele>160.0</ele><time>2026-04-26T16:02:04.387Z</time></trkpt><trkpt lat="33.0410067" lon="-8.1612783"><ele>158.0</ele><time>2026-04-26T16:02:05.387Z</time></trkpt><trkpt lat="33.0411883" lon="-8.16114"><ele>156.0</ele><time>2026-04-26T16:02:06.387Z</time></trkpt><trkpt lat="33.0413617" lon="-8.161005"><ele>154.0</ele><time>2026-04-26T16:02:07.387Z</time></trkpt><trkpt lat="33.0415367" lon="-8.1608683"><ele>153.66666666666669</ele><time>2026-04-26T16:02:08.387Z</time></trkpt><trkpt lat="33.041715" lon="-8.16073"><ele>153.33333333333334</ele><time>2026-04-26T16:02:09.387Z</time></trkpt><trkpt lat="33.0418983" lon="-8.1606"><ele>153.0</ele><time>2026-04-26T16:02:10.387Z</time></trkpt><trkpt lat="33.0420833" lon="-8.1604667"><ele>153.0</ele><time>2026-04-26T16:02:11.387Z</time></trkpt><trkpt lat="33.042265" lon="-8.1603233"><ele>153.0</ele><time>2026-04-26T16:02:12.387Z</time></trkpt><trkpt lat="33.0424483" lon="-8.160185"><ele>153.0</ele><time>2026-04-26T16:02:13.387Z</time></trkpt><trkpt lat="33.042625" lon="-8.1600483"><ele>153.0</ele><time>2026-04-26T16:02:14.387Z</time></trkpt><trkpt lat="33.042795" lon="-8.1599183"><ele>153.0</ele><time>2026-04-26T16:02:15.387Z</time></trkpt><trkpt lat="33.0429533" lon="-8.159795"><ele>153.0</ele><time>2026-04-26T16:02:16.387Z</time></trkpt><trkpt lat="33.0431083" lon="-8.15968"><ele>152.0</ele><time>2026-04-26T16:02:17.387Z</time></trkpt><trkpt lat="33.0432533" lon="-8.159565"><ele>151.0</ele><time>2026-04-26T16:02:18.387Z</time></trkpt><trkpt lat="33.043395" lon="-8.1594517"><ele>150.0</ele><time>2026-04-26T16:02:19.387Z</time></trkpt><trkpt lat="33.043545" lon="-8.159335"><ele>150.0</ele><time>2026-04-26T16:02:20.387Z</time></trkpt><trkpt lat="33.0436967" lon="-8.1592167"><ele>150.0</ele><time>2026-04-26T16:02:21.388Z</time></trkpt><trkpt lat="33.0438533" lon="-8.1590983"><ele>150.0</ele><time>2026-04-26T16:02:22.387Z</time></trkpt><trkpt lat="33.0440133" lon="-8.15898"><ele>150.0</ele><time>2026-04-26T16:02:23.387Z</time></trkpt><trkpt lat="33.0441767" lon="-8.1588533"><ele>150.0</ele><time>2026-04-26T16:02:24.387Z</time></trkpt><trkpt lat="33.04434" lon="-8.1587233"><ele>150.0</ele><time>2026-04-26T16:02:25.387Z</time></trkpt><trkpt lat="33.0445067" lon="-8.1586033"><ele>150.0</ele><time>2026-04-26T16:02:26.387Z</time></trkpt><trkpt lat="33.044675" lon="-8.1584767"><ele>150.0</ele><time>2026-04-26T16:02:27.387Z</time></trkpt><trkpt lat="33.0448333" lon="-8.1583617"><ele>150.0</ele><time>2026-04-26T16:02:28.387Z</time></trkpt><trkpt lat="33.0449883" lon="-8.1582417"><ele>151.0</ele><time>2026-04-26T16:02:29.387Z</time></trkpt><trkpt lat="33.0451367" lon="-8.1581267"><ele>152.0</ele><time>2026-04-26T16:02:30.387Z</time></trkpt><trkpt lat="33.0452817" lon="-8.15802"><ele>153.0</ele><time>2026-04-26T16:02:31.387Z</time></trkpt><trkpt lat="33.04542" lon="-8.15791"><ele>153.0</ele><time>2026-04-26T16:02:32.387Z</time></trkpt><trkpt lat="33.0455617" lon="-8.15781"><ele>153.0</ele><time>2026-04-26T16:02:33.387Z</time></trkpt><trkpt lat="33.0457" lon="-8.1577183"><ele>153.0</ele><time>2026-04-26T16:02:34.388Z</time></trkpt><trkpt lat="33.0458483" lon="-8.1576433"><ele>154.0</ele><time>2026-04-26T16:02:35.387Z</time></trkpt><trkpt lat="33.0460083" lon="-8.1575867"><ele>155.0</ele><time>2026-04-26T16:02:36.387Z</time></trkpt><trkpt lat="33.04618" lon="-8.157545"><ele>156.0</ele><time>2026-04-26T16:02:37.387Z</time></trkpt><trkpt lat="33.0463667" lon="-8.1575167"><ele>156.0</ele><time>2026-04-26T16:02:38.387Z</time></trkpt><trkpt lat="33.0465467" lon="-8.1575033"><ele>156.0</ele><time>2026-04-26T16:02:39.388Z</time></trkpt><trkpt lat="33.0467383" lon="-8.157495"><ele>156.0</ele><time>2026-04-26T16:02:40.387Z</time></trkpt><trkpt lat="33.04693" lon="-8.15749"><ele>156.33333333333334</ele><time>2026-04-26T16:02:41.387Z</time></trkpt><trkpt lat="33.0471083" lon="-8.1574833"><ele>156.66666666666669</ele><time>2026-04-26T16:02:42.387Z</time></trkpt><trkpt lat="33.04728" lon="-8.1574767"><ele>157.0</ele><time>2026-04-26T16:02:43.387Z</time></trkpt><trkpt lat="33.047445" lon="-8.1574717"><ele>158.0</ele><time>2026-04-26T16:02:44.387Z</time></trkpt><trkpt lat="33.04761" lon="-8.1574633"><ele>159.0</ele><time>2026-04-26T16:02:45.387Z</time></trkpt><trkpt lat="33.0477683" lon="-8.1574667"><ele>160.0</ele><time>2026-04-26T16:02:46.387Z</time></trkpt><trkpt lat="33.0479367" lon="-8.15747"><ele>160.0</ele><time>2026-04-26T16:02:47.387Z</time></trkpt><trkpt lat="33.0481067" lon="-8.1574833"><ele>160.0</ele><time>2026-04-26T16:02:48.387Z</time></trkpt><trkpt lat="33.0482733" lon="-8.15751"><ele>160.0</ele><time>2026-04-26T16:02:49.387Z</time></trkpt><trkpt lat="33.0484433" lon="-8.1575583"><ele>160.66666666666669</ele><time>2026-04-26T16:02:50.387Z</time></trkpt><trkpt lat="33.0486017" lon="-8.1576317"><ele>161.33333333333334</ele><time>2026-04-26T16:02:51.387Z</time></trkpt><trkpt lat="33.0487683" lon="-8.157725"><ele>162.0</ele><time>2026-04-26T16:02:52.387Z</time></trkpt><trkpt lat="33.04893" lon="-8.15783"><ele>162.0</ele><time>2026-04-26T16:02:53.387Z</time></trkpt><trkpt lat="33.0490983" lon="-8.15794"><ele>162.0</ele><time>2026-04-26T16:02:54.387Z</time></trkpt><trkpt lat="33.04928" lon="-8.1580567"><ele>162.0</ele><time>2026-04-26T16:02:55.387Z</time></trkpt><trkpt lat="33.0494667" lon="-8.15818"><ele>162.33333333333334</ele><time>2026-04-26T16:02:56.387Z</time></trkpt><trkpt lat="33.049655" lon="-8.15831"><ele>162.66666666666669</ele><time>2026-04-26T16:02:57.387Z</time></trkpt><trkpt lat="33.0498467" lon="-8.1584367"><ele>163.0</ele><time>2026-04-26T16:02:58.387Z</time></trkpt><trkpt lat="33.0500383" lon="-8.158565"><ele>163.0</ele><time>2026-04-26T16:02:59.387Z</time></trkpt><trkpt lat="33.0502233" lon="-8.158685"><ele>163.0</ele><time>2026-04-26T16:03:00.387Z</time></trkpt><trkpt lat="33.0504017" lon="-8.1588017"><ele>163.0</ele><time>2026-04-26T16:03:01.387Z</time></trkpt><trkpt lat="33.0505717" lon="-8.15891"><ele>163.0</ele><time>2026-04-26T16:03:02.387Z</time></trkpt><trkpt lat="33.050735" lon="-8.1590217"><ele>163.0</ele><time>2026-04-26T16:03:03.387Z</time></trkpt><trkpt lat="33.0509017" lon="-8.15913"><ele>163.0</ele><time>2026-04-26T16:03:04.387Z</time></trkpt><trkpt lat="33.0510683" lon="-8.15925"><ele>164.33333333333334</ele><time>2026-04-26T16:03:05.387Z</time></trkpt><trkpt lat="33.05124" lon="-8.1593683"><ele>165.66666666666666</ele><time>2026-04-26T16:03:06.387Z</time></trkpt><trkpt lat="33.05141" lon="-8.1594867"><ele>167.0</ele><time>2026-04-26T16:03:07.387Z</time></trkpt><trkpt lat="33.051575" lon="-8.1596017"><ele>168.0</ele><time>2026-04-26T16:03:08.387Z</time></trkpt><trkpt lat="33.0517333" lon="-8.1597083"><ele>169.0</ele><time>2026-04-26T16:03:09.387Z</time></trkpt><trkpt lat="33.0518883" lon="-8.1598183"><ele>170.0</ele><time>2026-04-26T16:03:10.387Z</time></trkpt><trkpt lat="33.0520433" lon="-8.15993"><ele>170.0</ele><time>2026-04-26T16:03:11.388Z</time></trkpt><trkpt lat="33.0522" lon="-8.1600383"><ele>170.0</ele><time>2026-04-26T16:03:12.387Z</time></trkpt><trkpt lat="33.0523567" lon="-8.1601533"><ele>170.0</ele><time>2026-04-26T16:03:13.387Z</time></trkpt><trkpt lat="33.0525117" lon="-8.1602667"><ele>171.0</ele><time>2026-04-26T16:03:14.387Z</time></trkpt><trkpt lat="33.0526683" lon="-8.160385"><ele>172.0</ele><time>2026-04-26T16:03:15.387Z</time></trkpt><trkpt lat="33.052825" lon="-8.1605067"><ele>173.0</ele><time>2026-04-26T16:03:16.387Z</time></trkpt><trkpt lat="33.0529883" lon="-8.160625"><ele>173.33333333333331</ele><time>2026-04-26T16:03:17.387Z</time></trkpt><trkpt lat="33.05315" lon="-8.1607483"><ele>173.66666666666666</ele><time>2026-04-26T16:03:18.387Z</time></trkpt><trkpt lat="33.0533117" lon="-8.1608717"><ele>174.0</ele><time>2026-04-26T16:03:19.387Z</time></trkpt><trkpt lat="33.053475" lon="-8.1609967"><ele>175.0</ele><time>2026-04-26T16:03:20.387Z</time></trkpt><trkpt lat="33.053635" lon="-8.161125"><ele>176.0</ele><time>2026-04-26T16:03:21.387Z</time></trkpt><trkpt lat="33.0538017" lon="-8.1612467"><ele>177.0</ele><time>2026-04-26T16:03:22.387Z</time></trkpt><trkpt lat="33.0539667" lon="-8.1613617"><ele>178.33333333333334</ele><time>2026-04-26T16:03:23.387Z</time></trkpt><trkpt lat="33.0541367" lon="-8.16146"><ele>179.66666666666669</ele><time>2026-04-26T16:03:24.387Z</time></trkpt><trkpt lat="33.0543067" lon="-8.16155"><ele>181.0</ele><time>2026-04-26T16:03:25.387Z</time></trkpt><trkpt lat="33.054485" lon="-8.16164"><ele>182.0</ele><time>2026-04-26T16:03:26.387Z</time></trkpt><trkpt lat="33.0546567" lon="-8.1617317"><ele>183.0</ele><time>2026-04-26T16:03:27.387Z</time></trkpt><trkpt lat="33.054835" lon="-8.1618217"><ele>184.0</ele><time>2026-04-26T16:03:28.387Z</time></trkpt><trkpt lat="33.0550133" lon="-8.1619083"><ele>184.66666666666669</ele><time>2026-04-26T16:03:29.387Z</time></trkpt><trkpt lat="33.0551983" lon="-8.1619967"><ele>185.33333333333334</ele><time>2026-04-26T16:03:30.387Z</time></trkpt><trkpt lat="33.055385" lon="-8.16208"><ele>186.0</ele><time>2026-04-26T16:03:31.387Z</time></trkpt><trkpt lat="33.0555833" lon="-8.1621667"><ele>186.0</ele><time>2026-04-26T16:03:32.387Z</time></trkpt><trkpt lat="33.0557783" lon="-8.16226"><ele>186.0</ele><time>2026-04-26T16:03:33.387Z</time></trkpt><trkpt lat="33.0559667" lon="-8.1623383"><ele>186.0</ele><time>2026-04-26T16:03:34.388Z</time></trkpt><trkpt lat="33.0561483" lon="-8.1624133"><ele>185.66666666666666</ele><time>2026-04-26T16:03:35.387Z</time></trkpt><trkpt lat="33.05632" lon="-8.162495"><ele>185.33333333333331</ele><time>2026-04-26T16:03:36.387Z</time></trkpt><trkpt lat="33.056485" lon="-8.1625733"><ele>185.0</ele><time>2026-04-26T16:03:37.387Z</time></trkpt><trkpt lat="33.05666" lon="-8.1626533"><ele>183.66666666666666</ele><time>2026-04-26T16:03:38.387Z</time></trkpt><trkpt lat="33.0568267" lon="-8.16274"><ele>182.33333333333334</ele><time>2026-04-26T16:03:39.387Z</time></trkpt><trkpt lat="33.057" lon="-8.1628333"><ele>181.0</ele><time>2026-04-26T16:03:40.387Z</time></trkpt><trkpt lat="33.0571783" lon="-8.1629233"><ele>181.0</ele><time>2026-04-26T16:03:41.387Z</time></trkpt><trkpt lat="33.0573517" lon="-8.16302"><ele>181.0</ele><time>2026-04-26T16:03:42.387Z</time></trkpt><trkpt lat="33.0575217" lon="-8.1631167"><ele>181.0</ele><time>2026-04-26T16:03:43.387Z</time></trkpt><trkpt lat="33.0576967" lon="-8.1632167"><ele>179.0</ele><time>2026-04-26T16:03:44.387Z</time></trkpt><trkpt lat="33.0578683" lon="-8.1633233"><ele>177.0</ele><time>2026-04-26T16:03:45.387Z</time></trkpt><trkpt lat="33.0580483" lon="-8.1634217"><ele>175.0</ele><time>2026-04-26T16:03:46.387Z</time></trkpt><trkpt lat="33.058225" lon="-8.16353"><ele>173.66666666666669</ele><time>2026-04-26T16:03:47.387Z</time></trkpt><trkpt lat="33.058395" lon="-8.1636517"><ele>172.33333333333334</ele><time>2026-04-26T16:03:48.387Z</time></trkpt><trkpt lat="33.0585533" lon="-8.163775"><ele>171.0</ele><time>2026-04-26T16:03:49.387Z</time></trkpt><trkpt lat="33.0587133" lon="-8.1639017"><ele>170.0</ele><time>2026-04-26T16:03:50.387Z</time></trkpt><trkpt lat="33.0588617" lon="-8.1640383"><ele>169.0</ele><time>2026-04-26T16:03:51.387Z</time></trkpt><trkpt lat="33.05901" lon="-8.1641767"><ele>168.0</ele><time>2026-04-26T16:03:52.388Z</time></trkpt><trkpt lat="33.0591633" lon="-8.1643283"><ele>166.0</ele><time>2026-04-26T16:03:53.387Z</time></trkpt><trkpt lat="33.0593083" lon="-8.164475"><ele>164.0</ele><time>2026-04-26T16:03:54.387Z</time></trkpt><trkpt lat="33.05944" lon="-8.1646083"><ele>162.0</ele><time>2026-04-26T16:03:55.387Z</time></trkpt><trkpt lat="33.05955" lon="-8.1647233"><ele>162.0</ele><time>2026-04-26T16:03:56.387Z</time></trkpt><trkpt lat="33.0596317" lon="-8.1648167"><ele>162.0</ele><time>2026-04-26T16:03:57.387Z</time></trkpt><trkpt lat="33.0596883" lon="-8.16489"><ele>162.0</ele><time>2026-04-26T16:03:58.387Z</time></trkpt><trkpt lat="33.0597367" lon="-8.1649517"><ele>162.0</ele><time>2026-04-26T16:03:59.387Z</time></trkpt><trkpt lat="33.0597833" lon="-8.1650033"><ele>162.0</ele><time>2026-04-26T16:04:00.387Z</time></trkpt><trkpt lat="33.0598533" lon="-8.1650633"><ele>162.0</ele><time>2026-04-26T16:04:02.387Z</time></trkpt><trkpt lat="33.0599167" lon="-8.165025"><ele>161.4</ele><time>2026-04-26T16:04:04.387Z</time></trkpt><trkpt lat="33.0599667" lon="-8.1649033"><ele>160.79999999999998</ele><time>2026-04-26T16:04:06.387Z</time></trkpt><trkpt lat="33.0599867" lon="-8.164815"><ele>160.2</ele><time>2026-04-26T16:04:07.387Z</time></trkpt><trkpt lat="33.060005" lon="-8.1647083"><ele>159.6</ele><time>2026-04-26T16:04:08.388Z</time></trkpt><trkpt lat="33.060025" lon="-8.16458"><ele>159.0</ele><time>2026-04-26T16:04:09.387Z</time></trkpt><trkpt lat="33.0600483" lon="-8.1644367"><ele>159.0</ele><time>2026-04-26T16:04:10.387Z</time></trkpt><trkpt lat="33.0600733" lon="-8.164285"><ele>159.0</ele><time>2026-04-26T16:04:11.387Z</time></trkpt><trkpt lat="33.0601067" lon="-8.164145"><ele>159.0</ele><time>2026-04-26T16:04:12.387Z</time></trkpt><trkpt lat="33.0601417" lon="-8.16401"><ele>159.0</ele><time>2026-04-26T16:04:13.387Z</time></trkpt><trkpt lat="33.0601783" lon="-8.16387"><ele>159.25</ele><time>2026-04-26T16:04:14.387Z</time></trkpt><trkpt lat="33.0602133" lon="-8.1637217"><ele>159.5</ele><time>2026-04-26T16:04:15.387Z</time></trkpt><trkpt lat="33.06025" lon="-8.1635717"><ele>159.75</ele><time>2026-04-26T16:04:16.387Z</time></trkpt><trkpt lat="33.0602917" lon="-8.163405"><ele>160.0</ele><time>2026-04-26T16:04:17.387Z</time></trkpt><trkpt lat="33.0603383" lon="-8.1632317"><ele>160.0</ele><time>2026-04-26T16:04:18.387Z</time></trkpt><trkpt lat="33.060385" lon="-8.1630433"><ele>160.0</ele><time>2026-04-26T16:04:19.387Z</time></trkpt><trkpt lat="33.060425" lon="-8.16285"><ele>160.0</ele><time>2026-04-26T16:04:20.387Z</time></trkpt><trkpt lat="33.06047" lon="-8.1626467"><ele>160.0</ele><time>2026-04-26T16:04:21.387Z</time></trkpt><trkpt lat="33.0605217" lon="-8.1624217"><ele>160.0</ele><time>2026-04-26T16:04:22.387Z</time></trkpt><trkpt lat="33.0605833" lon="-8.162185"><ele>160.0</ele><time>2026-04-26T16:04:23.387Z</time></trkpt><trkpt lat="33.0606467" lon="-8.1619533"><ele>159.66666666666669</ele><time>2026-04-26T16:04:24.387Z</time></trkpt><trkpt lat="33.060705" lon="-8.1617183"><ele>159.33333333333334</ele><time>2026-04-26T16:04:25.387Z</time></trkpt><trkpt lat="33.0607483" lon="-8.1614883"><ele>159.0</ele><time>2026-04-26T16:04:26.387Z</time></trkpt><trkpt lat="33.0608067" lon="-8.1612683"><ele>159.0</ele><time>2026-04-26T16:04:27.387Z</time></trkpt><trkpt lat="33.0608617" lon="-8.1610467"><ele>159.0</ele><time>2026-04-26T16:04:28.387Z</time></trkpt><trkpt lat="33.0609133" lon="-8.16084"><ele>159.0</ele><time>2026-04-26T16:04:29.387Z</time></trkpt><trkpt lat="33.0609633" lon="-8.1606417"><ele>160.33333333333334</ele><time>2026-04-26T16:04:30.387Z</time></trkpt><trkpt lat="33.0610117" lon="-8.1604633"><ele>161.66666666666669</ele><time>2026-04-26T16:04:31.387Z</time></trkpt><trkpt lat="33.0610567" lon="-8.1602933"><ele>163.0</ele><time>2026-04-26T16:04:32.387Z</time></trkpt><trkpt lat="33.0610967" lon="-8.1601283"><ele>163.0</ele><time>2026-04-26T16:04:33.386Z</time></trkpt><trkpt lat="33.061145" lon="-8.1599617"><ele>163.0</ele><time>2026-04-26T16:04:34.386Z</time></trkpt><trkpt lat="33.06121" lon="-8.159785"><ele>163.0</ele><time>2026-04-26T16:04:35.386Z</time></trkpt><trkpt lat="33.061285" lon="-8.159615"><ele>163.33333333333334</ele><time>2026-04-26T16:04:36.386Z</time></trkpt><trkpt lat="33.061375" lon="-8.1594483"><ele>163.66666666666666</ele><time>2026-04-26T16:04:37.386Z</time></trkpt><trkpt lat="33.0614617" lon="-8.1592783"><ele>164.0</ele><time>2026-04-26T16:04:38.386Z</time></trkpt><trkpt lat="33.061555" lon="-8.1591"><ele>163.0</ele><time>2026-04-26T16:04:39.386Z</time></trkpt><trkpt lat="33.0616417" lon="-8.1589033"><ele>162.0</ele><time>2026-04-26T16:04:40.386Z</time></trkpt><trkpt lat="33.06172" lon="-8.15871"><ele>161.0</ele><time>2026-04-26T16:04:41.386Z</time></trkpt><trkpt lat="33.061785" lon="-8.1585067"><ele>161.0</ele><time>2026-04-26T16:04:42.386Z</time></trkpt><trkpt lat="33.0618467" lon="-8.1583083"><ele>161.0</ele><time>2026-04-26T16:04:43.386Z</time></trkpt><trkpt lat="33.061915" lon="-8.1581083"><ele>161.0</ele><time>2026-04-26T16:04:44.386Z</time></trkpt><trkpt lat="33.0619817" lon="-8.1578983"><ele>161.0</ele><time>2026-04-26T16:04:45.386Z</time></trkpt><trkpt lat="33.0620483" lon="-8.15769"><ele>161.0</ele><time>2026-04-26T16:04:46.386Z</time></trkpt><trkpt lat="33.0621183" lon="-8.1574717"><ele>161.0</ele><time>2026-04-26T16:04:47.386Z</time></trkpt><trkpt lat="33.0621883" lon="-8.157255"><ele>160.66666666666666</ele><time>2026-04-26T16:04:48.386Z</time></trkpt><trkpt lat="33.0622533" lon="-8.1570533"><ele>160.33333333333334</ele><time>2026-04-26T16:04:49.386Z</time></trkpt><trkpt lat="33.0623233" lon="-8.1568583"><ele>160.0</ele><time>2026-04-26T16:04:50.386Z</time></trkpt><trkpt lat="33.0623967" lon="-8.15665"><ele>159.33333333333334</ele><time>2026-04-26T16:04:51.386Z</time></trkpt><trkpt lat="33.062465" lon="-8.156445"><ele>158.66666666666666</ele><time>2026-04-26T16:04:52.386Z</time></trkpt><trkpt lat="33.06252" lon="-8.156245"><ele>158.0</ele><time>2026-04-26T16:04:53.386Z</time></trkpt><trkpt lat="33.06258" lon="-8.1560467"><ele>158.0</ele><time>2026-04-26T16:04:54.386Z</time></trkpt><trkpt lat="33.0626383" lon="-8.15584"><ele>158.0</ele><time>2026-04-26T16:04:55.386Z</time></trkpt><trkpt lat="33.062705" lon="-8.15564"><ele>158.0</ele><time>2026-04-26T16:04:56.386Z</time></trkpt><trkpt lat="33.062765" lon="-8.1554367"><ele>158.33333333333331</ele><time>2026-04-26T16:04:57.386Z</time></trkpt><trkpt lat="33.0628317" lon="-8.1552333"><ele>158.66666666666666</ele><time>2026-04-26T16:04:58.386Z</time></trkpt><trkpt lat="33.062895" lon="-8.1550383"><ele>159.0</ele><time>2026-04-26T16:04:59.386Z</time></trkpt><trkpt lat="33.0629533" lon="-8.1548483"><ele>159.75</ele><time>2026-04-26T16:05:00.386Z</time></trkpt><trkpt lat="33.06301" lon="-8.1546833"><ele>160.5</ele><time>2026-04-26T16:05:01.386Z</time></trkpt><trkpt lat="33.0630667" lon="-8.1545183"><ele>161.25</ele><time>2026-04-26T16:05:02.386Z</time></trkpt><trkpt lat="33.0631183" lon="-8.154355"><ele>162.0</ele><time>2026-04-26T16:05:03.386Z</time></trkpt><trkpt lat="33.0631733" lon="-8.1541817"><ele>162.0</ele><time>2026-04-26T16:05:04.386Z</time></trkpt><trkpt lat="33.06323" lon="-8.154"><ele>162.0</ele><time>2026-04-26T16:05:05.386Z</time></trkpt><trkpt lat="33.06329" lon="-8.15382"><ele>162.0</ele><time>2026-04-26T16:05:06.386Z</time></trkpt><trkpt lat="33.0633467" lon="-8.1536467"><ele>160.0</ele><time>2026-04-26T16:05:07.386Z</time></trkpt><trkpt lat="33.0634033" lon="-8.1534667"><ele>158.0</ele><time>2026-04-26T16:05:08.386Z</time></trkpt><trkpt lat="33.06346" lon="-8.1532767"><ele>156.0</ele><time>2026-04-26T16:05:09.386Z</time></trkpt><trkpt lat="33.0635167" lon="-8.15308"><ele>156.0</ele><time>2026-04-26T16:05:10.386Z</time></trkpt><trkpt lat="33.0635833" lon="-8.15286"><ele>156.0</ele><time>2026-04-26T16:05:11.386Z</time></trkpt><trkpt lat="33.0636583" lon="-8.1526483"><ele>156.0</ele><time>2026-04-26T16:05:12.386Z</time></trkpt><trkpt lat="33.0637217" lon="-8.1524483"><ele>157.0</ele><time>2026-04-26T16:05:13.386Z</time></trkpt><trkpt lat="33.0637833" lon="-8.1522633"><ele>158.0</ele><time>2026-04-26T16:05:14.386Z</time></trkpt><trkpt lat="33.0638417" lon="-8.152085"><ele>159.0</ele><time>2026-04-26T16:05:15.386Z</time></trkpt><trkpt lat="33.0639017" lon="-8.1518967"><ele>159.0</ele><time>2026-04-26T16:05:16.386Z</time></trkpt><trkpt lat="33.0639617" lon="-8.1517083"><ele>159.0</ele><time>2026-04-26T16:05:17.386Z</time></trkpt><trkpt lat="33.0640183" lon="-8.1515183"><ele>159.0</ele><time>2026-04-26T16:05:18.386Z</time></trkpt><trkpt lat="33.0640767" lon="-8.1513283"><ele>157.33333333333334</ele><time>2026-04-26T16:05:19.386Z</time></trkpt><trkpt lat="33.064125" lon="-8.1511433"><ele>155.66666666666669</ele><time>2026-04-26T16:05:20.386Z</time></trkpt><trkpt lat="33.064175" lon="-8.1509433"><ele>154.0</ele><time>2026-04-26T16:05:21.386Z</time></trkpt><trkpt lat="33.0642283" lon="-8.1507283"><ele>155.0</ele><time>2026-04-26T16:05:22.386Z</time></trkpt><trkpt lat="33.0642833" lon="-8.1504967"><ele>156.0</ele><time>2026-04-26T16:05:23.386Z</time></trkpt><trkpt lat="33.0643383" lon="-8.150265"><ele>157.0</ele><time>2026-04-26T16:05:24.386Z</time></trkpt><trkpt lat="33.064385" lon="-8.150045"><ele>159.33333333333334</ele><time>2026-04-26T16:05:25.386Z</time></trkpt><trkpt lat="33.0644333" lon="-8.14983"><ele>161.66666666666666</ele><time>2026-04-26T16:05:26.386Z</time></trkpt><trkpt lat="33.0644967" lon="-8.14962"><ele>164.0</ele><time>2026-04-26T16:05:27.386Z</time></trkpt><trkpt lat="33.0645533" lon="-8.14942"><ele>164.0</ele><time>2026-04-26T16:05:28.386Z</time></trkpt><trkpt lat="33.0646067" lon="-8.1492083"><ele>164.0</ele><time>2026-04-26T16:05:29.386Z</time></trkpt><trkpt lat="33.064655" lon="-8.148995"><ele>164.0</ele><time>2026-04-26T16:05:30.386Z</time></trkpt><trkpt lat="33.0647067" lon="-8.14878"><ele>164.0</ele><time>2026-04-26T16:05:31.386Z</time></trkpt><trkpt lat="33.0647567" lon="-8.1485517"><ele>164.0</ele><time>2026-04-26T16:05:32.386Z</time></trkpt><trkpt lat="33.064805" lon="-8.1483233"><ele>164.0</ele><time>2026-04-26T16:05:33.386Z</time></trkpt><trkpt lat="33.06486" lon="-8.1480933"><ele>163.0</ele><time>2026-04-26T16:05:34.386Z</time></trkpt><trkpt lat="33.064915" lon="-8.147865"><ele>162.0</ele><time>2026-04-26T16:05:35.386Z</time></trkpt><trkpt lat="33.0649667" lon="-8.147655"><ele>161.0</ele><time>2026-04-26T16:05:36.386Z</time></trkpt><trkpt lat="33.065015" lon="-8.1474417"><ele>160.66666666666666</ele><time>2026-04-26T16:05:37.386Z</time></trkpt><trkpt lat="33.0650617" lon="-8.1472283"><ele>160.33333333333334</ele><time>2026-04-26T16:05:38.386Z</time></trkpt><trkpt lat="33.0651083" lon="-8.1470217"><ele>160.0</ele><time>2026-04-26T16:05:39.386Z</time></trkpt><trkpt lat="33.0651567" lon="-8.1468317"><ele>160.0</ele><time>2026-04-26T16:05:40.386Z</time></trkpt><trkpt lat="33.0652017" lon="-8.1466483"><ele>160.0</ele><time>2026-04-26T16:05:41.386Z</time></trkpt><trkpt lat="33.065245" lon="-8.14647"><ele>160.0</ele><time>2026-04-26T16:05:42.386Z</time></trkpt><trkpt lat="33.06528" lon="-8.1462967"><ele>160.0</ele><time>2026-04-26T16:05:43.386Z</time></trkpt><trkpt lat="33.0653117" lon="-8.1461083"><ele>160.0</ele><time>2026-04-26T16:05:44.386Z</time></trkpt><trkpt lat="33.0653467" lon="-8.145905"><ele>160.0</ele><time>2026-04-26T16:05:45.386Z</time></trkpt><trkpt lat="33.0653817" lon="-8.145695"><ele>160.0</ele><time>2026-04-26T16:05:46.386Z</time></trkpt><trkpt lat="33.0654167" lon="-8.1454933"><ele>160.0</ele><time>2026-04-26T16:05:47.386Z</time></trkpt><trkpt lat="33.06545" lon="-8.1452933"><ele>160.0</ele><time>2026-04-26T16:05:48.386Z</time></trkpt><trkpt lat="33.0654817" lon="-8.1450983"><ele>160.0</ele><time>2026-04-26T16:05:49.387Z</time></trkpt><trkpt lat="33.0655167" lon="-8.1449067"><ele>160.0</ele><time>2026-04-26T16:05:50.386Z</time></trkpt><trkpt lat="33.065545" lon="-8.1447283"><ele>160.0</ele><time>2026-04-26T16:05:51.386Z</time></trkpt><trkpt lat="33.065565" lon="-8.14457"><ele>159.33333333333334</ele><time>2026-04-26T16:05:52.386Z</time></trkpt><trkpt lat="33.06558" lon="-8.14444"><ele>158.66666666666669</ele><time>2026-04-26T16:05:53.386Z</time></trkpt><trkpt lat="33.0655983" lon="-8.1443367"><ele>158.0</ele><time>2026-04-26T16:05:54.386Z</time></trkpt><trkpt lat="33.0656133" lon="-8.1442483"><ele>157.33333333333334</ele><time>2026-04-26T16:05:55.386Z</time></trkpt><trkpt lat="33.0656333" lon="-8.1441367"><ele>156.66666666666666</ele><time>2026-04-26T16:05:57.386Z</time></trkpt><trkpt lat="33.0656817" lon="-8.1440617"><ele>156.0</ele><time>2026-04-26T16:06:00.386Z</time></trkpt><trkpt lat="33.065755" lon="-8.1440683"><ele>155.4</ele><time>2026-04-26T16:06:03.386Z</time></trkpt><trkpt lat="33.06584" lon="-8.144065"><ele>154.8</ele><time>2026-04-26T16:06:24.386Z</time></trkpt><trkpt lat="33.0659083" lon="-8.1440567"><ele>154.20000000000002</ele><time>2026-04-26T16:06:25.386Z</time></trkpt><trkpt lat="33.065995" lon="-8.14404"><ele>153.6</ele><time>2026-04-26T16:06:26.386Z</time></trkpt><trkpt lat="33.0661067" lon="-8.144015"><ele>153.0</ele><time>2026-04-26T16:06:27.386Z</time></trkpt><trkpt lat="33.0662467" lon="-8.1439833"><ele>153.0</ele><time>2026-04-26T16:06:28.386Z</time></trkpt><trkpt lat="33.0664217" lon="-8.143945"><ele>153.0</ele><time>2026-04-26T16:06:29.386Z</time></trkpt><trkpt lat="33.06662" lon="-8.1438983"><ele>153.0</ele><time>2026-04-26T16:06:30.386Z</time></trkpt><trkpt lat="33.0667983" lon="-8.143855"><ele>153.0</ele><time>2026-04-26T16:06:31.386Z</time></trkpt><trkpt lat="33.0669633" lon="-8.1438283"><ele>153.0</ele><time>2026-04-26T16:06:32.386Z</time></trkpt><trkpt lat="33.06712" lon="-8.143795"><ele>153.0</ele><time>2026-04-26T16:06:33.386Z</time></trkpt><trkpt lat="33.0672733" lon="-8.1437617"><ele>153.0</ele><time>2026-04-26T16:06:34.386Z</time></trkpt><trkpt lat="33.0674183" lon="-8.143735"><ele>153.0</ele><time>2026-04-26T16:06:35.386Z</time></trkpt><trkpt lat="33.06755" lon="-8.143715"><ele>153.0</ele><time>2026-04-26T16:06:36.386Z</time></trkpt><trkpt lat="33.06768" lon="-8.1437083"><ele>153.0</ele><time>2026-04-26T16:06:37.386Z</time></trkpt><trkpt lat="33.0678067" lon="-8.14371"><ele>152.75</ele><time>2026-04-26T16:06:38.386Z</time></trkpt><trkpt lat="33.067945" lon="-8.1437217"><ele>152.5</ele><time>2026-04-26T16:06:39.386Z</time></trkpt><trkpt lat="33.0680833" lon="-8.143735"><ele>152.25</ele><time>2026-04-26T16:06:40.386Z</time></trkpt><trkpt lat="33.068215" lon="-8.1437467"><ele>152.0</ele><time>2026-04-26T16:06:41.386Z</time></trkpt><trkpt lat="33.0683533" lon="-8.1437567"><ele>152.0</ele><time>2026-04-26T16:06:42.386Z</time></trkpt><trkpt lat="33.0684867" lon="-8.14376"><ele>152.0</ele><time>2026-04-26T16:06:43.386Z</time></trkpt><trkpt lat="33.0686117" lon="-8.143765"><ele>152.0</ele><time>2026-04-26T16:06:44.386Z</time></trkpt><trkpt lat="33.0687433" lon="-8.14377"><ele>152.0</ele><time>2026-04-26T16:06:45.386Z</time></trkpt><trkpt lat="33.0688817" lon="-8.143775"><ele>152.0</ele><time>2026-04-26T16:06:46.386Z</time></trkpt><trkpt lat="33.06903" lon="-8.1437667"><ele>152.0</ele><time>2026-04-26T16:06:47.386Z</time></trkpt><trkpt lat="33.0691717" lon="-8.1437383"><ele>152.0</ele><time>2026-04-26T16:06:48.386Z</time></trkpt><trkpt lat="33.069315" lon="-8.14369"><ele>152.0</ele><time>2026-04-26T16:06:49.386Z</time></trkpt><trkpt lat="33.06946" lon="-8.143645"><ele>151.75</ele><time>2026-04-26T16:06:50.386Z</time></trkpt><trkpt lat="33.0695983" lon="-8.1435967"><ele>151.5</ele><time>2026-04-26T16:06:51.386Z</time></trkpt><trkpt lat="33.0697333" lon="-8.1435517"><ele>151.25</ele><time>2026-04-26T16:06:52.387Z</time></trkpt><trkpt lat="33.06987" lon="-8.1435033"><ele>151.0</ele><time>2026-04-26T16:06:53.386Z</time></trkpt><trkpt lat="33.0699967" lon="-8.1434467"><ele>151.5</ele><time>2026-04-26T16:06:54.386Z</time></trkpt><trkpt lat="33.0701233" lon="-8.143385"><ele>152.0</ele><time>2026-04-26T16:06:55.386Z</time></trkpt><trkpt lat="33.070255" lon="-8.1433217"><ele>152.5</ele><time>2026-04-26T16:06:56.386Z</time></trkpt><trkpt lat="33.0703883" lon="-8.1432567"><ele>153.0</ele><time>2026-04-26T16:06:57.386Z</time></trkpt><trkpt lat="33.07052" lon="-8.14319"><ele>153.0</ele><time>2026-04-26T16:06:58.386Z</time></trkpt><trkpt lat="33.07065" lon="-8.143115"><ele>153.0</ele><time>2026-04-26T16:06:59.386Z</time></trkpt><trkpt lat="33.0707917" lon="-8.1430317"><ele>153.0</ele><time>2026-04-26T16:07:00.386Z</time></trkpt><trkpt lat="33.070925" lon="-8.1429517"><ele>152.25</ele><time>2026-04-26T16:07:01.386Z</time></trkpt><trkpt lat="33.07105" lon="-8.142865"><ele>151.5</ele><time>2026-04-26T16:07:02.386Z</time></trkpt><trkpt lat="33.0711733" lon="-8.1427717"><ele>150.75</ele><time>2026-04-26T16:07:03.386Z</time></trkpt><trkpt lat="33.071295" lon="-8.1426817"><ele>150.0</ele><time>2026-04-26T16:07:04.386Z</time></trkpt><trkpt lat="33.0714117" lon="-8.1425933"><ele>150.0</ele><time>2026-04-26T16:07:05.387Z</time></trkpt><trkpt lat="33.07152" lon="-8.142505"><ele>150.0</ele><time>2026-04-26T16:07:06.386Z</time></trkpt><trkpt lat="33.0716217" lon="-8.1424183"><ele>150.0</ele><time>2026-04-26T16:07:07.386Z</time></trkpt><trkpt lat="33.07172" lon="-8.1423383"><ele>150.0</ele><time>2026-04-26T16:07:08.386Z</time></trkpt><trkpt lat="33.07182" lon="-8.1422583"><ele>149.25</ele><time>2026-04-26T16:07:09.386Z</time></trkpt><trkpt lat="33.0719283" lon="-8.14219"><ele>148.5</ele><time>2026-04-26T16:07:10.386Z</time></trkpt><trkpt lat="33.072045" lon="-8.142135"><ele>147.75</ele><time>2026-04-26T16:07:11.386Z</time></trkpt><trkpt lat="33.072175" lon="-8.142085"><ele>147.0</ele><time>2026-04-26T16:07:12.386Z</time></trkpt><trkpt lat="33.0722967" lon="-8.1420267"><ele>147.0</ele><time>2026-04-26T16:07:13.386Z</time></trkpt><trkpt lat="33.07242" lon="-8.141955"><ele>147.0</ele><time>2026-04-26T16:07:14.386Z</time></trkpt><trkpt lat="33.072535" lon="-8.1418783"><ele>147.0</ele><time>2026-04-26T16:07:15.386Z</time></trkpt><trkpt lat="33.07264" lon="-8.1417783"><ele>147.0</ele><time>2026-04-26T16:07:16.386Z</time></trkpt><trkpt lat="33.0727467" lon="-8.1416583"><ele>145.66666666666666</ele><time>2026-04-26T16:07:17.386Z</time></trkpt><trkpt lat="33.072855" lon="-8.141525"><ele>144.33333333333331</ele><time>2026-04-26T16:07:18.386Z</time></trkpt><trkpt lat="33.0729583" lon="-8.1413817"><ele>143.0</ele><time>2026-04-26T16:07:19.386Z</time></trkpt><trkpt lat="33.0730633" lon="-8.1412467"><ele>143.0</ele><time>2026-04-26T16:07:20.386Z</time></trkpt><trkpt lat="33.0731717" lon="-8.1411367"><ele>143.0</ele><time>2026-04-26T16:07:21.386Z</time></trkpt><trkpt lat="33.0732633" lon="-8.1410333"><ele>143.0</ele><time>2026-04-26T16:07:22.387Z</time></trkpt><trkpt lat="33.0733533" lon="-8.1409433"><ele>143.0</ele><time>2026-04-26T16:07:23.386Z</time></trkpt><trkpt lat="33.0734517" lon="-8.1408683"><ele>141.33333333333331</ele><time>2026-04-26T16:07:24.386Z</time></trkpt><trkpt lat="33.07357" lon="-8.1407983"><ele>139.66666666666666</ele><time>2026-04-26T16:07:25.386Z</time></trkpt><trkpt lat="33.0737117" lon="-8.1407167"><ele>138.0</ele><time>2026-04-26T16:07:26.386Z</time></trkpt><trkpt lat="33.073855" lon="-8.1406017"><ele>138.0</ele><time>2026-04-26T16:07:27.387Z</time></trkpt><trkpt lat="33.074" lon="-8.14048"><ele>138.0</ele><time>2026-04-26T16:07:28.386Z</time></trkpt><trkpt lat="33.0741367" lon="-8.1403583"><ele>138.0</ele><time>2026-04-26T16:07:29.386Z</time></trkpt><trkpt lat="33.07427" lon="-8.14023"><ele>137.25</ele><time>2026-04-26T16:07:30.386Z</time></trkpt><trkpt lat="33.0743983" lon="-8.1401317"><ele>136.5</ele><time>2026-04-26T16:07:31.386Z</time></trkpt><trkpt lat="33.0745183" lon="-8.1400367"><ele>135.75</ele><time>2026-04-26T16:07:32.386Z</time></trkpt><trkpt lat="33.0746367" lon="-8.1399533"><ele>135.0</ele><time>2026-04-26T16:07:33.386Z</time></trkpt><trkpt lat="33.07476" lon="-8.1398717"><ele>135.0</ele><time>2026-04-26T16:07:34.386Z</time></trkpt><trkpt lat="33.074905" lon="-8.1397933"><ele>135.0</ele><time>2026-04-26T16:07:35.386Z</time></trkpt><trkpt lat="33.0750483" lon="-8.139735"><ele>135.0</ele><time>2026-04-26T16:07:36.386Z</time></trkpt><trkpt lat="33.0751817" lon="-8.1396867"><ele>134.5</ele><time>2026-04-26T16:07:37.386Z</time></trkpt><trkpt lat="33.0753183" lon="-8.139635"><ele>134.0</ele><time>2026-04-26T16:07:38.386Z</time></trkpt><trkpt lat="33.0754483" lon="-8.1395833"><ele>133.5</ele><time>2026-04-26T16:07:39.386Z</time></trkpt><trkpt lat="33.0755733" lon="-8.139545"><ele>133.0</ele><time>2026-04-26T16:07:40.386Z</time></trkpt><trkpt lat="33.0756983" lon="-8.1395083"><ele>133.0</ele><time>2026-04-26T16:07:41.386Z</time></trkpt><trkpt lat="33.0758283" lon="-8.1394917"><ele>133.0</ele><time>2026-04-26T16:07:42.386Z</time></trkpt><trkpt lat="33.07597" lon="-8.13947"><ele>133.0</ele><time>2026-04-26T16:07:43.386Z</time></trkpt><trkpt lat="33.0761133" lon="-8.1394433"><ele>133.0</ele><time>2026-04-26T16:07:44.387Z</time></trkpt><trkpt lat="33.0762417" lon="-8.1394183"><ele>133.0</ele><time>2026-04-26T16:07:45.386Z</time></trkpt><trkpt lat="33.0763683" lon="-8.1393883"><ele>133.0</ele><time>2026-04-26T16:07:46.386Z</time></trkpt><trkpt lat="33.0764917" lon="-8.1393583"><ele>133.0</ele><time>2026-04-26T16:07:47.386Z</time></trkpt><trkpt lat="33.0766083" lon="-8.13933"><ele>133.0</ele><time>2026-04-26T16:07:48.386Z</time></trkpt><trkpt lat="33.0767283" lon="-8.13929"><ele>131.75</ele><time>2026-04-26T16:07:49.386Z</time></trkpt><trkpt lat="33.0768467" lon="-8.1392533"><ele>130.5</ele><time>2026-04-26T16:07:50.386Z</time></trkpt><trkpt lat="33.0769767" lon="-8.1392033"><ele>129.25</ele><time>2026-04-26T16:07:51.386Z</time></trkpt><trkpt lat="33.0771083" lon="-8.139145"><ele>128.0</ele><time>2026-04-26T16:07:52.386Z</time></trkpt><trkpt lat="33.077235" lon="-8.1390683"><ele>128.0</ele><time>2026-04-26T16:07:53.386Z</time></trkpt><trkpt lat="33.0773567" lon="-8.1389917"><ele>128.0</ele><time>2026-04-26T16:07:54.386Z</time></trkpt><trkpt lat="33.0774717" lon="-8.13893"><ele>128.0</ele><time>2026-04-26T16:07:55.386Z</time></trkpt><trkpt lat="33.077585" lon="-8.1388817"><ele>128.0</ele><time>2026-04-26T16:07:56.386Z</time></trkpt><trkpt lat="33.0777067" lon="-8.13885"><ele>128.25</ele><time>2026-04-26T16:07:57.386Z</time></trkpt><trkpt lat="33.0778367" lon="-8.1388383"><ele>128.5</ele><time>2026-04-26T16:07:58.387Z</time></trkpt><trkpt lat="33.0779867" lon="-8.138835"><ele>128.75</ele><time>2026-04-26T16:07:59.386Z</time></trkpt><trkpt lat="33.078155" lon="-8.138835"><ele>129.0</ele><time>2026-04-26T16:08:00.386Z</time></trkpt><trkpt lat="33.0783283" lon="-8.1388517"><ele>130.33333333333334</ele><time>2026-04-26T16:08:01.386Z</time></trkpt><trkpt lat="33.0785017" lon="-8.1388767"><ele>131.66666666666669</ele><time>2026-04-26T16:08:02.387Z</time></trkpt><trkpt lat="33.078655" lon="-8.1389117"><ele>133.0</ele><time>2026-04-26T16:08:03.387Z</time></trkpt><trkpt lat="33.078805" lon="-8.1389333"><ele>133.0</ele><time>2026-04-26T16:08:04.386Z</time></trkpt><trkpt lat="33.07894" lon="-8.1389417"><ele>133.0</ele><time>2026-04-26T16:08:05.386Z</time></trkpt><trkpt lat="33.0790717" lon="-8.1389483"><ele>133.0</ele><time>2026-04-26T16:08:06.386Z</time></trkpt><trkpt lat="33.079205" lon="-8.1389667"><ele>133.0</ele><time>2026-04-26T16:08:07.386Z</time></trkpt><trkpt lat="33.0793367" lon="-8.13901"><ele>134.25</ele><time>2026-04-26T16:08:08.386Z</time></trkpt><trkpt lat="33.0794617" lon="-8.1390633"><ele>135.5</ele><time>2026-04-26T16:08:09.386Z</time></trkpt><trkpt lat="33.0795817" lon="-8.139115"><ele>136.75</ele><time>2026-04-26T16:08:10.386Z</time></trkpt><trkpt lat="33.0796983" lon="-8.13915"><ele>138.0</ele><time>2026-04-26T16:08:11.386Z</time></trkpt><trkpt lat="33.0798183" lon="-8.139165"><ele>138.0</ele><time>2026-04-26T16:08:12.386Z</time></trkpt><trkpt lat="33.0799333" lon="-8.139165"><ele>138.0</ele><time>2026-04-26T16:08:13.386Z</time></trkpt><trkpt lat="33.0800333" lon="-8.13914"><ele>138.0</ele><time>2026-04-26T16:08:14.386Z</time></trkpt><trkpt lat="33.0801417" lon="-8.13909"><ele>138.0</ele><time>2026-04-26T16:08:15.386Z</time></trkpt><trkpt lat="33.0802633" lon="-8.1390267"><ele>140.5</ele><time>2026-04-26T16:08:16.386Z</time></trkpt><trkpt lat="33.08038" lon="-8.1389583"><ele>143.0</ele><time>2026-04-26T16:08:17.386Z</time></trkpt><trkpt lat="33.080505" lon="-8.1388867"><ele>145.5</ele><time>2026-04-26T16:08:18.387Z</time></trkpt><trkpt lat="33.0806367" lon="-8.1388083"><ele>148.0</ele><time>2026-04-26T16:08:19.386Z</time></trkpt><trkpt lat="33.0807717" lon="-8.1387283"><ele>148.66666666666669</ele><time>2026-04-26T16:08:20.386Z</time></trkpt><trkpt lat="33.0809067" lon="-8.1386533"><ele>149.33333333333334</ele><time>2026-04-26T16:08:21.386Z</time></trkpt><trkpt lat="33.0810533" lon="-8.1385817"><ele>150.0</ele><time>2026-04-26T16:08:22.386Z</time></trkpt><trkpt lat="33.081205" lon="-8.1385117"><ele>150.0</ele><time>2026-04-26T16:08:23.387Z</time></trkpt><trkpt lat="33.0813567" lon="-8.1384483"><ele>150.0</ele><time>2026-04-26T16:08:24.386Z</time></trkpt><trkpt lat="33.0815017" lon="-8.13839"><ele>150.0</ele><time>2026-04-26T16:08:25.386Z</time></trkpt><trkpt lat="33.081625" lon="-8.138335"><ele>150.0</ele><time>2026-04-26T16:08:26.386Z</time></trkpt><trkpt lat="33.0817433" lon="-8.1382683"><ele>150.75</ele><time>2026-04-26T16:08:27.386Z</time></trkpt><trkpt lat="33.0818533" lon="-8.1381917"><ele>151.5</ele><time>2026-04-26T16:08:28.386Z</time></trkpt><trkpt lat="33.0819617" lon="-8.13812"><ele>152.25</ele><time>2026-04-26T16:08:29.386Z</time></trkpt><trkpt lat="33.082065" lon="-8.1380667"><ele>153.0</ele><time>2026-04-26T16:08:30.387Z</time></trkpt><trkpt lat="33.08217" lon="-8.138035"><ele>153.0</ele><time>2026-04-26T16:08:31.386Z</time></trkpt><trkpt lat="33.082285" lon="-8.1380217"><ele>153.0</ele><time>2026-04-26T16:08:32.386Z</time></trkpt><trkpt lat="33.082415" lon="-8.1380167"><ele>153.0</ele><time>2026-04-26T16:08:33.386Z</time></trkpt><trkpt lat="33.08255" lon="-8.1380083"><ele>153.0</ele><time>2026-04-26T16:08:34.386Z</time></trkpt><trkpt lat="33.0826867" lon="-8.1379817"><ele>152.75</ele><time>2026-04-26T16:08:35.386Z</time></trkpt><trkpt lat="33.0828283" lon="-8.137935"><ele>152.5</ele><time>2026-04-26T16:08:36.386Z</time></trkpt><trkpt lat="33.0829717" lon="-8.13789"><ele>152.25</ele><time>2026-04-26T16:08:37.386Z</time></trkpt><trkpt lat="33.0831117" lon="-8.137845"><ele>152.0</ele><time>2026-04-26T16:08:38.386Z</time></trkpt><trkpt lat="33.0832517" lon="-8.1377883"><ele>151.75</ele><time>2026-04-26T16:08:39.387Z</time></trkpt><trkpt lat="33.083375" lon="-8.1377333"><ele>151.5</ele><time>2026-04-26T16:08:40.386Z</time></trkpt><trkpt lat="33.0835017" lon="-8.137675"><ele>151.25</ele><time>2026-04-26T16:08:41.386Z</time></trkpt><trkpt lat="33.08364" lon="-8.1376067"><ele>151.0</ele><time>2026-04-26T16:08:42.386Z</time></trkpt><trkpt lat="33.083775" lon="-8.13753"><ele>151.0</ele><time>2026-04-26T16:08:43.386Z</time></trkpt><trkpt lat="33.0839067" lon="-8.1374333"><ele>151.0</ele><time>2026-04-26T16:08:44.386Z</time></trkpt><trkpt lat="33.0840283" lon="-8.137325"><ele>151.0</ele><time>2026-04-26T16:08:45.386Z</time></trkpt><trkpt lat="33.0841383" lon="-8.13723"><ele>151.0</ele><time>2026-04-26T16:08:46.386Z</time></trkpt><trkpt lat="33.0842433" lon="-8.1371383"><ele>150.5</ele><time>2026-04-26T16:08:47.387Z</time></trkpt><trkpt lat="33.0843417" lon="-8.137055"><ele>150.0</ele><time>2026-04-26T16:08:48.386Z</time></trkpt><trkpt lat="33.0844417" lon="-8.1369867"><ele>149.5</ele><time>2026-04-26T16:08:49.386Z</time></trkpt><trkpt lat="33.0845467" lon="-8.1369283"><ele>149.0</ele><time>2026-04-26T16:08:50.386Z</time></trkpt><trkpt lat="33.08467" lon="-8.13688"><ele>149.0</ele><time>2026-04-26T16:08:51.386Z</time></trkpt><trkpt lat="33.0848" lon="-8.1368433"><ele>149.0</ele><time>2026-04-26T16:08:52.386Z</time></trkpt><trkpt lat="33.08494" lon="-8.1368083"><ele>149.0</ele><time>2026-04-26T16:08:53.386Z</time></trkpt><trkpt lat="33.08508" lon="-8.13677"><ele>149.0</ele><time>2026-04-26T16:08:54.387Z</time></trkpt><trkpt lat="33.0852117" lon="-8.1367233"><ele>149.75</ele><time>2026-04-26T16:08:55.386Z</time></trkpt><trkpt lat="33.0853317" lon="-8.1366767"><ele>150.5</ele><time>2026-04-26T16:08:56.386Z</time></trkpt><trkpt lat="33.0854467" lon="-8.1366383"><ele>151.25</ele><time>2026-04-26T16:08:57.387Z</time></trkpt><trkpt lat="33.08556" lon="-8.1365967"><ele>152.0</ele><time>2026-04-26T16:08:58.386Z</time></trkpt><trkpt lat="33.0856633" lon="-8.1365667"><ele>151.25</ele><time>2026-04-26T16:08:59.386Z</time></trkpt><trkpt lat="33.0857683" lon="-8.1365417"><ele>150.5</ele><time>2026-04-26T16:09:00.386Z</time></trkpt><trkpt lat="33.0858783" lon="-8.13651"><ele>149.75</ele><time>2026-04-26T16:09:01.386Z</time></trkpt><trkpt lat="33.0859967" lon="-8.1364833"><ele>149.0</ele><time>2026-04-26T16:09:02.386Z</time></trkpt><trkpt lat="33.086115" lon="-8.1364567"><ele>149.0</ele><time>2026-04-26T16:09:03.386Z</time></trkpt><trkpt lat="33.0862383" lon="-8.136435"><ele>149.0</ele><time>2026-04-26T16:09:04.386Z</time></trkpt><trkpt lat="33.08636" lon="-8.1364267"><ele>149.0</ele><time>2026-04-26T16:09:05.386Z</time></trkpt><trkpt lat="33.0864933" lon="-8.1364183"><ele>149.0</ele><time>2026-04-26T16:09:06.386Z</time></trkpt><trkpt lat="33.086625" lon="-8.136405"><ele>149.5</ele><time>2026-04-26T16:09:07.386Z</time></trkpt><trkpt lat="33.0867633" lon="-8.1363983"><ele>150.0</ele><time>2026-04-26T16:09:08.386Z</time></trkpt><trkpt lat="33.0869017" lon="-8.1364"><ele>150.5</ele><time>2026-04-26T16:09:09.386Z</time></trkpt><trkpt lat="33.0870317" lon="-8.1364"><ele>151.0</ele><time>2026-04-26T16:09:10.386Z</time></trkpt><trkpt lat="33.087165" lon="-8.1364"><ele>151.0</ele><time>2026-04-26T16:09:11.386Z</time></trkpt><trkpt lat="33.0873033" lon="-8.1364033"><ele>151.0</ele><time>2026-04-26T16:09:12.386Z</time></trkpt><trkpt lat="33.0874383" lon="-8.13641"><ele>151.0</ele><time>2026-04-26T16:09:13.386Z</time></trkpt><trkpt lat="33.0875717" lon="-8.1364117"><ele>151.0</ele><time>2026-04-26T16:09:14.387Z</time></trkpt><trkpt lat="33.0877067" lon="-8.13641"><ele>151.5</ele><time>2026-04-26T16:09:15.386Z</time></trkpt><trkpt lat="33.087845" lon="-8.1364033"><ele>152.0</ele><time>2026-04-26T16:09:16.386Z</time></trkpt><trkpt lat="33.0879867" lon="-8.136395"><ele>152.5</ele><time>2026-04-26T16:09:17.386Z</time></trkpt><trkpt lat="33.0881317" lon="-8.1363767"><ele>153.0</ele><time>2026-04-26T16:09:18.386Z</time></trkpt><trkpt lat="33.0882717" lon="-8.1363567"><ele>152.0</ele><time>2026-04-26T16:09:19.386Z</time></trkpt><trkpt lat="33.088405" lon="-8.1363433"><ele>151.0</ele><time>2026-04-26T16:09:20.387Z</time></trkpt><trkpt lat="33.0885333" lon="-8.1363317"><ele>150.0</ele><time>2026-04-26T16:09:21.386Z</time></trkpt><trkpt lat="33.0886633" lon="-8.1363133"><ele>149.0</ele><time>2026-04-26T16:09:22.386Z</time></trkpt><trkpt lat="33.0887883" lon="-8.1363"><ele>149.0</ele><time>2026-04-26T16:09:23.386Z</time></trkpt><trkpt lat="33.088905" lon="-8.1362883"><ele>149.0</ele><time>2026-04-26T16:09:24.386Z</time></trkpt><trkpt lat="33.0890217" lon="-8.1362917"><ele>149.0</ele><time>2026-04-26T16:09:25.386Z</time></trkpt><trkpt lat="33.089135" lon="-8.136305"><ele>149.0</ele><time>2026-04-26T16:09:26.386Z</time></trkpt><trkpt lat="33.0892533" lon="-8.1363317"><ele>148.25</ele><time>2026-04-26T16:09:27.386Z</time></trkpt><trkpt lat="33.0893717" lon="-8.1363683"><ele>147.5</ele><time>2026-04-26T16:09:28.386Z</time></trkpt><trkpt lat="33.08949" lon="-8.1364133"><ele>146.75</ele><time>2026-04-26T16:09:29.386Z</time></trkpt><trkpt lat="33.0896067" lon="-8.13644"><ele>146.0</ele><time>2026-04-26T16:09:30.386Z</time></trkpt><trkpt lat="33.089715" lon="-8.136435"><ele>146.0</ele><time>2026-04-26T16:09:31.386Z</time></trkpt><trkpt lat="33.0898167" lon="-8.1364033"><ele>146.0</ele><time>2026-04-26T16:09:32.386Z</time></trkpt><trkpt lat="33.089945" lon="-8.13635"><ele>146.0</ele><time>2026-04-26T16:09:33.386Z</time></trkpt><trkpt lat="33.0900917" lon="-8.1362983"><ele>146.0</ele><time>2026-04-26T16:09:34.386Z</time></trkpt><trkpt lat="33.0902517" lon="-8.136255"><ele>146.0</ele><time>2026-04-26T16:09:35.386Z</time></trkpt><trkpt lat="33.0904067" lon="-8.13621"><ele>146.0</ele><time>2026-04-26T16:09:36.386Z</time></trkpt><trkpt lat="33.0905633" lon="-8.1361717"><ele>146.0</ele><time>2026-04-26T16:09:37.387Z</time></trkpt><trkpt lat="33.090725" lon="-8.1361283"><ele>148.0</ele><time>2026-04-26T16:09:38.387Z</time></trkpt><trkpt lat="33.0908783" lon="-8.1360817"><ele>150.0</ele><time>2026-04-26T16:09:39.386Z</time></trkpt><trkpt lat="33.0910267" lon="-8.13603"><ele>152.0</ele><time>2026-04-26T16:09:40.386Z</time></trkpt><trkpt lat="33.0911817" lon="-8.135975"><ele>152.0</ele><time>2026-04-26T16:09:41.386Z</time></trkpt><trkpt lat="33.0913233" lon="-8.1359183"><ele>152.0</ele><time>2026-04-26T16:09:42.386Z</time></trkpt><trkpt lat="33.0914633" lon="-8.1358583"><ele>152.0</ele><time>2026-04-26T16:09:43.386Z</time></trkpt><trkpt lat="33.0915967" lon="-8.1357983"><ele>152.0</ele><time>2026-04-26T16:09:44.386Z</time></trkpt><trkpt lat="33.09172" lon="-8.1357417"><ele>153.25</ele><time>2026-04-26T16:09:45.386Z</time></trkpt><trkpt lat="33.0918417" lon="-8.135685"><ele>154.5</ele><time>2026-04-26T16:09:46.386Z</time></trkpt><trkpt lat="33.0919633" lon="-8.1356317"><ele>155.75</ele><time>2026-04-26T16:09:47.386Z</time></trkpt><trkpt lat="33.0920817" lon="-8.1355733"><ele>157.0</ele><time>2026-04-26T16:09:48.386Z</time></trkpt><trkpt lat="33.0922" lon="-8.1355033"><ele>157.0</ele><time>2026-04-26T16:09:49.386Z</time></trkpt><trkpt lat="33.0923183" lon="-8.13544"><ele>157.0</ele><time>2026-04-26T16:09:50.386Z</time></trkpt><trkpt lat="33.092445" lon="-8.13538"><ele>157.0</ele><time>2026-04-26T16:09:51.387Z</time></trkpt><trkpt lat="33.0925683" lon="-8.1353167"><ele>157.0</ele><time>2026-04-26T16:09:52.386Z</time></trkpt><trkpt lat="33.0926967" lon="-8.1352517"><ele>156.5</ele><time>2026-04-26T16:09:53.386Z</time></trkpt><trkpt lat="33.0928167" lon="-8.1351817"><ele>156.0</ele><time>2026-04-26T16:09:54.386Z</time></trkpt><trkpt lat="33.0929433" lon="-8.135125"><ele>155.5</ele><time>2026-04-26T16:09:55.386Z</time></trkpt><trkpt lat="33.0930633" lon="-8.135065"><ele>155.0</ele><time>2026-04-26T16:09:56.387Z</time></trkpt><trkpt lat="33.0931917" lon="-8.1349983"><ele>154.75</ele><time>2026-04-26T16:09:57.387Z</time></trkpt><trkpt lat="33.0933233" lon="-8.13494"><ele>154.5</ele><time>2026-04-26T16:09:58.386Z</time></trkpt><trkpt lat="33.093455" lon="-8.1348717"><ele>154.25</ele><time>2026-04-26T16:09:59.386Z</time></trkpt><trkpt lat="33.0935867" lon="-8.1348017"><ele>154.0</ele><time>2026-04-26T16:10:00.386Z</time></trkpt><trkpt lat="33.0937233" lon="-8.13472"><ele>153.75</ele><time>2026-04-26T16:10:01.386Z</time></trkpt><trkpt lat="33.0938517" lon="-8.1346533"><ele>153.5</ele><time>2026-04-26T16:10:02.386Z</time></trkpt><trkpt lat="33.09398" lon="-8.1345783"><ele>153.25</ele><time>2026-04-26T16:10:03.386Z</time></trkpt><trkpt lat="33.0941183" lon="-8.134495"><ele>153.0</ele><time>2026-04-26T16:10:04.386Z</time></trkpt><trkpt lat="33.094245" lon="-8.1344167"><ele>153.0</ele><time>2026-04-26T16:10:05.386Z</time></trkpt><trkpt lat="33.0943667" lon="-8.13433"><ele>153.0</ele><time>2026-04-26T16:10:06.386Z</time></trkpt><trkpt lat="33.0944817" lon="-8.1342483"><ele>153.0</ele><time>2026-04-26T16:10:07.386Z</time></trkpt><trkpt lat="33.0945917" lon="-8.1341717"><ele>153.0</ele><time>2026-04-26T16:10:08.386Z</time></trkpt><trkpt lat="33.0946867" lon="-8.1341017"><ele>153.0</ele><time>2026-04-26T16:10:09.386Z</time></trkpt><trkpt lat="33.0947717" lon="-8.1340467"><ele>153.0</ele><time>2026-04-26T16:10:10.386Z</time></trkpt><trkpt lat="33.09486" lon="-8.134015"><ele>153.0</ele><time>2026-04-26T16:10:11.386Z</time></trkpt><trkpt lat="33.0949517" lon="-8.1340067"><ele>153.0</ele><time>2026-04-26T16:10:12.386Z</time></trkpt><trkpt lat="33.0950567" lon="-8.1340167"><ele>153.0</ele><time>2026-04-26T16:10:13.386Z</time></trkpt><trkpt lat="33.0951733" lon="-8.13404"><ele>153.5</ele><time>2026-04-26T16:10:14.386Z</time></trkpt><trkpt lat="33.0953017" lon="-8.134075"><ele>154.0</ele><time>2026-04-26T16:10:15.386Z</time></trkpt><trkpt lat="33.09544" lon="-8.13412"><ele>154.5</ele><time>2026-04-26T16:10:16.386Z</time></trkpt><trkpt lat="33.095585" lon="-8.1341633"><ele>155.0</ele><time>2026-04-26T16:10:17.386Z</time></trkpt><trkpt lat="33.0957383" lon="-8.134205"><ele>156.25</ele><time>2026-04-26T16:10:18.386Z</time></trkpt><trkpt lat="33.09588" lon="-8.1342417"><ele>157.5</ele><time>2026-04-26T16:10:19.386Z</time></trkpt><trkpt lat="33.0960183" lon="-8.1342783"><ele>158.75</ele><time>2026-04-26T16:10:20.386Z</time></trkpt><trkpt lat="33.0961567" lon="-8.13431"><ele>160.0</ele><time>2026-04-26T16:10:21.386Z</time></trkpt><trkpt lat="33.0963017" lon="-8.1343367"><ele>160.0</ele><time>2026-04-26T16:10:22.386Z</time></trkpt><trkpt lat="33.0964433" lon="-8.13437"><ele>160.0</ele><time>2026-04-26T16:10:23.386Z</time></trkpt><trkpt lat="33.09658" lon="-8.1344033"><ele>160.0</ele><time>2026-04-26T16:10:24.386Z</time></trkpt><trkpt lat="33.096715" lon="-8.134445"><ele>160.0</ele><time>2026-04-26T16:10:25.386Z</time></trkpt><trkpt lat="33.0968467" lon="-8.1344883"><ele>160.75</ele><time>2026-04-26T16:10:26.386Z</time></trkpt><trkpt lat="33.0969783" lon="-8.1345333"><ele>161.5</ele><time>2026-04-26T16:10:27.386Z</time></trkpt><trkpt lat="33.0971133" lon="-8.13458"><ele>162.25</ele><time>2026-04-26T16:10:28.386Z</time></trkpt><trkpt lat="33.097245" lon="-8.1346267"><ele>163.0</ele><time>2026-04-26T16:10:29.386Z</time></trkpt><trkpt lat="33.0973667" lon="-8.134665"><ele>163.4</ele><time>2026-04-26T16:10:30.386Z</time></trkpt><trkpt lat="33.0974817" lon="-8.1347033"><ele>163.8</ele><time>2026-04-26T16:10:31.386Z</time></trkpt><trkpt lat="33.09758" lon="-8.134735"><ele>164.2</ele><time>2026-04-26T16:10:32.386Z</time></trkpt><trkpt lat="33.0976733" lon="-8.13476"><ele>164.6</ele><time>2026-04-26T16:10:33.386Z</time></trkpt><trkpt lat="33.097755" lon="-8.1347817"><ele>165.0</ele><time>2026-04-26T16:10:34.386Z</time></trkpt><trkpt lat="33.09783" lon="-8.1348033"><ele>165.0</ele><time>2026-04-26T16:10:35.386Z</time></trkpt><trkpt lat="33.0978983" lon="-8.1348233"><ele>165.0</ele><time>2026-04-26T16:10:36.386Z</time></trkpt><trkpt lat="33.098" lon="-8.1348417"><ele>165.0</ele><time>2026-04-26T16:10:38.386Z</time></trkpt><trkpt lat="33.09806" lon="-8.134805"><ele>165.0</ele><time>2026-04-26T16:10:40.386Z</time></trkpt><trkpt lat="33.098085" lon="-8.1347217"><ele>165.0</ele><time>2026-04-26T16:10:42.386Z</time></trkpt><trkpt lat="33.098075" lon="-8.1345617"><ele>165.0</ele><time>2026-04-26T16:10:44.386Z</time></trkpt><trkpt lat="33.09806" lon="-8.1344417"><ele>165.0</ele><time>2026-04-26T16:10:45.386Z</time></trkpt><trkpt lat="33.098045" lon="-8.1343117"><ele>165.0</ele><time>2026-04-26T16:10:46.386Z</time></trkpt><trkpt lat="33.0980283" lon="-8.1341717"><ele>165.0</ele><time>2026-04-26T16:10:47.386Z</time></trkpt><trkpt lat="33.0980117" lon="-8.13402"><ele>165.0</ele><time>2026-04-26T16:10:48.386Z</time></trkpt><trkpt lat="33.097995" lon="-8.1338567"><ele>164.75</ele><time>2026-04-26T16:10:49.386Z</time></trkpt><trkpt lat="33.0979817" lon="-8.1336967"><ele>164.5</ele><time>2026-04-26T16:10:50.386Z</time></trkpt><trkpt lat="33.09797" lon="-8.133545"><ele>164.25</ele><time>2026-04-26T16:10:51.386Z</time></trkpt><trkpt lat="33.097955" lon="-8.133395"><ele>164.0</ele><time>2026-04-26T16:10:52.386Z</time></trkpt><trkpt lat="33.0979417" lon="-8.1332467"><ele>163.25</ele><time>2026-04-26T16:10:53.386Z</time></trkpt><trkpt lat="33.0979267" lon="-8.13309"><ele>162.5</ele><time>2026-04-26T16:10:54.387Z</time></trkpt><trkpt lat="33.0979133" lon="-8.132935"><ele>161.75</ele><time>2026-04-26T16:10:55.386Z</time></trkpt><trkpt lat="33.0979083" lon="-8.13277"><ele>161.0</ele><time>2026-04-26T16:10:56.386Z</time></trkpt><trkpt lat="33.0979117" lon="-8.1326133"><ele>161.0</ele><time>2026-04-26T16:10:57.386Z</time></trkpt><trkpt lat="33.09792" lon="-8.1324583"><ele>161.0</ele><time>2026-04-26T16:10:58.386Z</time></trkpt><trkpt lat="33.0979367" lon="-8.132295"><ele>161.0</ele><time>2026-04-26T16:10:59.386Z</time></trkpt><trkpt lat="33.09797" lon="-8.1321333"><ele>161.0</ele><time>2026-04-26T16:11:00.386Z</time></trkpt><trkpt lat="33.0980117" lon="-8.131975"><ele>160.25</ele><time>2026-04-26T16:11:01.387Z</time></trkpt><trkpt lat="33.0980583" lon="-8.131825"><ele>159.5</ele><time>2026-04-26T16:11:02.386Z</time></trkpt><trkpt lat="33.098105" lon="-8.131675"><ele>158.75</ele><time>2026-04-26T16:11:03.386Z</time></trkpt><trkpt lat="33.09815" lon="-8.1315367"><ele>158.0</ele><time>2026-04-26T16:11:04.386Z</time></trkpt><trkpt lat="33.09819" lon="-8.1314083"><ele>157.5</ele><time>2026-04-26T16:11:05.386Z</time></trkpt><trkpt lat="33.0982283" lon="-8.13128"><ele>157.0</ele><time>2026-04-26T16:11:06.386Z</time></trkpt><trkpt lat="33.098275" lon="-8.1311533"><ele>156.5</ele><time>2026-04-26T16:11:07.386Z</time></trkpt><trkpt lat="33.0983167" lon="-8.131025"><ele>156.0</ele><time>2026-04-26T16:11:08.386Z</time></trkpt><trkpt lat="33.0983567" lon="-8.1309"><ele>155.4</ele><time>2026-04-26T16:11:09.386Z</time></trkpt><trkpt lat="33.0983967" lon="-8.1307833"><ele>154.8</ele><time>2026-04-26T16:11:10.386Z</time></trkpt><trkpt lat="33.0984367" lon="-8.1306717"><ele>154.20000000000002</ele><time>2026-04-26T16:11:11.386Z</time></trkpt><trkpt lat="33.09848" lon="-8.1305583"><ele>153.6</ele><time>2026-04-26T16:11:12.386Z</time></trkpt><trkpt lat="33.0985233" lon="-8.1304383"><ele>153.0</ele><time>2026-04-26T16:11:13.386Z</time></trkpt><trkpt lat="33.098565" lon="-8.1303167"><ele>153.0</ele><time>2026-04-26T16:11:14.386Z</time></trkpt><trkpt lat="33.0986117" lon="-8.130185"><ele>153.0</ele><time>2026-04-26T16:11:15.386Z</time></trkpt><trkpt lat="33.09866" lon="-8.1300467"><ele>153.0</ele><time>2026-04-26T16:11:16.386Z</time></trkpt><trkpt lat="33.0987083" lon="-8.129905"><ele>153.0</ele><time>2026-04-26T16:11:17.386Z</time></trkpt><trkpt lat="33.0987583" lon="-8.12975"><ele>153.0</ele><time>2026-04-26T16:11:18.386Z</time></trkpt><trkpt lat="33.0988067" lon="-8.1296083"><ele>153.0</ele><time>2026-04-26T16:11:19.386Z</time></trkpt><trkpt lat="33.098855" lon="-8.1294683"><ele>153.0</ele><time>2026-04-26T16:11:20.386Z</time></trkpt><trkpt lat="33.0989117" lon="-8.1293267"><ele>153.0</ele><time>2026-04-26T16:11:21.386Z</time></trkpt><trkpt lat="33.09897" lon="-8.1291717"><ele>153.0</ele><time>2026-04-26T16:11:22.386Z</time></trkpt><trkpt lat="33.099025" lon="-8.1290033"><ele>153.0</ele><time>2026-04-26T16:11:23.386Z</time></trkpt><trkpt lat="33.0990817" lon="-8.1288383"><ele>153.0</ele><time>2026-04-26T16:11:24.386Z</time></trkpt><trkpt lat="33.0991367" lon="-8.1286833"><ele>153.0</ele><time>2026-04-26T16:11:25.386Z</time></trkpt><trkpt lat="33.0991933" lon="-8.128535"><ele>153.0</ele><time>2026-04-26T16:11:26.386Z</time></trkpt><trkpt lat="33.0992417" lon="-8.1283883"><ele>153.0</ele><time>2026-04-26T16:11:27.386Z</time></trkpt><trkpt lat="33.0992917" lon="-8.1282517"><ele>153.0</ele><time>2026-04-26T16:11:28.387Z</time></trkpt><trkpt lat="33.09935" lon="-8.128135"><ele>153.0</ele><time>2026-04-26T16:11:29.386Z</time></trkpt><trkpt lat="33.099415" lon="-8.1280367"><ele>152.5</ele><time>2026-04-26T16:11:30.386Z</time></trkpt><trkpt lat="33.0995033" lon="-8.1279533"><ele>152.0</ele><time>2026-04-26T16:11:31.386Z</time></trkpt><trkpt lat="33.09961" lon="-8.1278767"><ele>151.5</ele><time>2026-04-26T16:11:32.386Z</time></trkpt><trkpt lat="33.09973" lon="-8.127795"><ele>151.0</ele><time>2026-04-26T16:11:33.386Z</time></trkpt><trkpt lat="33.0998517" lon="-8.1277"><ele>151.25</ele><time>2026-04-26T16:11:34.386Z</time></trkpt><trkpt lat="33.0999767" lon="-8.1276083"><ele>151.5</ele><time>2026-04-26T16:11:35.386Z</time></trkpt><trkpt lat="33.1001017" lon="-8.12752"><ele>151.75</ele><time>2026-04-26T16:11:36.386Z</time></trkpt><trkpt lat="33.1002317" lon="-8.1274283"><ele>152.0</ele><time>2026-04-26T16:11:37.386Z</time></trkpt><trkpt lat="33.100365" lon="-8.1273433"><ele>152.0</ele><time>2026-04-26T16:11:38.386Z</time></trkpt><trkpt lat="33.1005033" lon="-8.127265"><ele>152.0</ele><time>2026-04-26T16:11:39.387Z</time></trkpt><trkpt lat="33.1006433" lon="-8.127195"><ele>152.0</ele><time>2026-04-26T16:11:40.386Z</time></trkpt><trkpt lat="33.1007933" lon="-8.1271333"><ele>152.0</ele><time>2026-04-26T16:11:41.386Z</time></trkpt><trkpt lat="33.10095" lon="-8.1270733"><ele>152.0</ele><time>2026-04-26T16:11:42.386Z</time></trkpt><trkpt lat="33.101105" lon="-8.12702"><ele>152.0</ele><time>2026-04-26T16:11:43.386Z</time></trkpt><trkpt lat="33.1012533" lon="-8.1269683"><ele>152.0</ele><time>2026-04-26T16:11:44.386Z</time></trkpt><trkpt lat="33.1013967" lon="-8.12692"><ele>152.0</ele><time>2026-04-26T16:11:45.386Z</time></trkpt><trkpt lat="33.1015433" lon="-8.1268817"><ele>152.0</ele><time>2026-04-26T16:11:46.387Z</time></trkpt><trkpt lat="33.1016983" lon="-8.1268533"><ele>152.33333333333331</ele><time>2026-04-26T16:11:47.386Z</time></trkpt><trkpt lat="33.1018467" lon="-8.1268383"><ele>152.66666666666666</ele><time>2026-04-26T16:11:48.387Z</time></trkpt><trkpt lat="33.1019983" lon="-8.126835"><ele>153.0</ele><time>2026-04-26T16:11:49.386Z</time></trkpt><trkpt lat="33.1021483" lon="-8.1268283"><ele>153.0</ele><time>2026-04-26T16:11:50.386Z</time></trkpt><trkpt lat="33.1022917" lon="-8.1268333"><ele>153.0</ele><time>2026-04-26T16:11:51.386Z</time></trkpt><trkpt lat="33.102435" lon="-8.1268367"><ele>153.0</ele><time>2026-04-26T16:11:52.386Z</time></trkpt><trkpt lat="33.102585" lon="-8.1268333"><ele>153.0</ele><time>2026-04-26T16:11:53.386Z</time></trkpt><trkpt lat="33.102735" lon="-8.1268083"><ele>152.33333333333334</ele><time>2026-04-26T16:11:54.386Z</time></trkpt><trkpt lat="33.1028817" lon="-8.1267667"><ele>151.66666666666669</ele><time>2026-04-26T16:11:55.386Z</time></trkpt><trkpt lat="33.103025" lon="-8.126695"><ele>151.0</ele><time>2026-04-26T16:11:56.386Z</time></trkpt><trkpt lat="33.1031533" lon="-8.1266"><ele>151.33333333333334</ele><time>2026-04-26T16:11:57.386Z</time></trkpt><trkpt lat="33.1032783" lon="-8.1264883"><ele>151.66666666666666</ele><time>2026-04-26T16:11:58.386Z</time></trkpt><trkpt lat="33.1033967" lon="-8.1263717"><ele>152.0</ele><time>2026-04-26T16:11:59.386Z</time></trkpt><trkpt lat="33.1035133" lon="-8.126255"><ele>152.0</ele><time>2026-04-26T16:12:00.386Z</time></trkpt><trkpt lat="33.103635" lon="-8.1261383"><ele>152.0</ele><time>2026-04-26T16:12:01.386Z</time></trkpt><trkpt lat="33.1037533" lon="-8.1260283"><ele>152.0</ele><time>2026-04-26T16:12:02.386Z</time></trkpt><trkpt lat="33.1038733" lon="-8.12592"><ele>152.0</ele><time>2026-04-26T16:12:03.386Z</time></trkpt><trkpt lat="33.1039983" lon="-8.125815"><ele>152.0</ele><time>2026-04-26T16:12:04.386Z</time></trkpt><trkpt lat="33.1041217" lon="-8.12571"><ele>152.0</ele><time>2026-04-26T16:12:05.386Z</time></trkpt><trkpt lat="33.1042467" lon="-8.125615"><ele>154.66666666666666</ele><time>2026-04-26T16:12:06.386Z</time></trkpt><trkpt lat="33.10437" lon="-8.12551"><ele>157.33333333333334</ele><time>2026-04-26T16:12:07.386Z</time></trkpt><trkpt lat="33.1044917" lon="-8.1253967"><ele>160.0</ele><time>2026-04-26T16:12:08.386Z</time></trkpt><trkpt lat="33.1046183" lon="-8.12528"><ele>160.0</ele><time>2026-04-26T16:12:09.386Z</time></trkpt><trkpt lat="33.1047367" lon="-8.1251633"><ele>160.0</ele><time>2026-04-26T16:12:10.386Z</time></trkpt><trkpt lat="33.1048533" lon="-8.1250533"><ele>160.0</ele><time>2026-04-26T16:12:11.386Z</time></trkpt><trkpt lat="33.104965" lon="-8.12494"><ele>160.0</ele><time>2026-04-26T16:12:12.386Z</time></trkpt><trkpt lat="33.1050817" lon="-8.1248217"><ele>161.33333333333334</ele><time>2026-04-26T16:12:13.386Z</time></trkpt><trkpt lat="33.1052" lon="-8.1247033"><ele>162.66666666666666</ele><time>2026-04-26T16:12:14.386Z</time></trkpt><trkpt lat="33.1053167" lon="-8.1245817"><ele>164.0</ele><time>2026-04-26T16:12:15.386Z</time></trkpt><trkpt lat="33.1054333" lon="-8.1244633"><ele>164.0</ele><time>2026-04-26T16:12:16.386Z</time></trkpt><trkpt lat="33.105545" lon="-8.1243533"><ele>164.0</ele><time>2026-04-26T16:12:17.387Z</time></trkpt><trkpt lat="33.1056567" lon="-8.1242417"><ele>164.0</ele><time>2026-04-26T16:12:18.386Z</time></trkpt><trkpt lat="33.105765" lon="-8.124135"><ele>164.0</ele><time>2026-04-26T16:12:19.386Z</time></trkpt><trkpt lat="33.1058733" lon="-8.1240283"><ele>164.0</ele><time>2026-04-26T16:12:20.386Z</time></trkpt><trkpt lat="33.105975" lon="-8.1239283"><ele>164.0</ele><time>2026-04-26T16:12:21.386Z</time></trkpt><trkpt lat="33.1060717" lon="-8.123835"><ele>164.0</ele><time>2026-04-26T16:12:22.386Z</time></trkpt><trkpt lat="33.1061717" lon="-8.1237467"><ele>164.0</ele><time>2026-04-26T16:12:23.386Z</time></trkpt><trkpt lat="33.10628" lon="-8.12367"><ele>164.0</ele><time>2026-04-26T16:12:24.386Z</time></trkpt><trkpt lat="33.10639" lon="-8.12358"><ele>164.0</ele><time>2026-04-26T16:12:25.386Z</time></trkpt><trkpt lat="33.1065017" lon="-8.123475"><ele>164.0</ele><time>2026-04-26T16:12:26.386Z</time></trkpt><trkpt lat="33.1066167" lon="-8.1233617"><ele>164.0</ele><time>2026-04-26T16:12:27.386Z</time></trkpt><trkpt lat="33.1067333" lon="-8.1232383"><ele>162.33333333333331</ele><time>2026-04-26T16:12:28.386Z</time></trkpt><trkpt lat="33.106845" lon="-8.1231083"><ele>160.66666666666666</ele><time>2026-04-26T16:12:29.386Z</time></trkpt><trkpt lat="33.1069567" lon="-8.12297"><ele>159.0</ele><time>2026-04-26T16:12:30.386Z</time></trkpt><trkpt lat="33.107065" lon="-8.1228317"><ele>159.0</ele><time>2026-04-26T16:12:31.386Z</time></trkpt><trkpt lat="33.107175" lon="-8.1227067"><ele>159.0</ele><time>2026-04-26T16:12:32.386Z</time></trkpt><trkpt lat="33.1072883" lon="-8.122595"><ele>159.0</ele><time>2026-04-26T16:12:33.387Z</time></trkpt><trkpt lat="33.1074033" lon="-8.1224867"><ele>159.0</ele><time>2026-04-26T16:12:34.386Z</time></trkpt><trkpt lat="33.1075233" lon="-8.12238"><ele>158.66666666666666</ele><time>2026-04-26T16:12:35.386Z</time></trkpt><trkpt lat="33.10765" lon="-8.1222767"><ele>158.33333333333331</ele><time>2026-04-26T16:12:36.386Z</time></trkpt><trkpt lat="33.1077817" lon="-8.1221733"><ele>158.0</ele><time>2026-04-26T16:12:37.386Z</time></trkpt><trkpt lat="33.107915" lon="-8.1220733"><ele>158.0</ele><time>2026-04-26T16:12:38.386Z</time></trkpt><trkpt lat="33.10805" lon="-8.1219733"><ele>158.0</ele><time>2026-04-26T16:12:39.386Z</time></trkpt><trkpt lat="33.1081867" lon="-8.1218683"><ele>158.0</ele><time>2026-04-26T16:12:40.386Z</time></trkpt><trkpt lat="33.1083267" lon="-8.121765"><ele>157.66666666666666</ele><time>2026-04-26T16:12:41.386Z</time></trkpt><trkpt lat="33.1084617" lon="-8.1216633"><ele>157.33333333333334</ele><time>2026-04-26T16:12:42.387Z</time></trkpt><trkpt lat="33.108595" lon="-8.121565"><ele>157.0</ele><time>2026-04-26T16:12:43.386Z</time></trkpt><trkpt lat="33.1087167" lon="-8.1214667"><ele>156.75</ele><time>2026-04-26T16:12:44.386Z</time></trkpt><trkpt lat="33.1088383" lon="-8.121375"><ele>156.5</ele><time>2026-04-26T16:12:45.386Z</time></trkpt><trkpt lat="33.1089583" lon="-8.1212833"><ele>156.25</ele><time>2026-04-26T16:12:46.386Z</time></trkpt><trkpt lat="33.1090767" lon="-8.121195"><ele>156.0</ele><time>2026-04-26T16:12:47.386Z</time></trkpt><trkpt lat="33.1092" lon="-8.1211033"><ele>155.66666666666666</ele><time>2026-04-26T16:12:48.386Z</time></trkpt><trkpt lat="33.1093333" lon="-8.1210067"><ele>155.33333333333331</ele><time>2026-04-26T16:12:49.386Z</time></trkpt><trkpt lat="33.1094733" lon="-8.1209067"><ele>155.0</ele><time>2026-04-26T16:12:50.386Z</time></trkpt><trkpt lat="33.1096133" lon="-8.1208117"><ele>155.0</ele><time>2026-04-26T16:12:51.386Z</time></trkpt><trkpt lat="33.1097517" lon="-8.1207183"><ele>155.0</ele><time>2026-04-26T16:12:52.386Z</time></trkpt><trkpt lat="33.1098933" lon="-8.1206267"><ele>155.0</ele><time>2026-04-26T16:12:53.386Z</time></trkpt><trkpt lat="33.1100383" lon="-8.1205333"><ele>154.33333333333331</ele><time>2026-04-26T16:12:54.386Z</time></trkpt><trkpt lat="33.1101783" lon="-8.1204367"><ele>153.66666666666666</ele><time>2026-04-26T16:12:55.387Z</time></trkpt><trkpt lat="33.1103267" lon="-8.1203383"><ele>153.0</ele><time>2026-04-26T16:12:56.386Z</time></trkpt><trkpt lat="33.1104767" lon="-8.1202433"><ele>153.0</ele><time>2026-04-26T16:12:57.386Z</time></trkpt><trkpt lat="33.1106233" lon="-8.1201467"><ele>153.0</ele><time>2026-04-26T16:12:58.387Z</time></trkpt><trkpt lat="33.1107717" lon="-8.1200533"><ele>153.0</ele><time>2026-04-26T16:12:59.385Z</time></trkpt><trkpt lat="33.1109217" lon="-8.1199683"><ele>154.33333333333334</ele><time>2026-04-26T16:13:00.385Z</time></trkpt><trkpt lat="33.1110683" lon="-8.1198917"><ele>155.66666666666669</ele><time>2026-04-26T16:13:01.385Z</time></trkpt><trkpt lat="33.111215" lon="-8.119815"><ele>157.0</ele><time>2026-04-26T16:13:02.385Z</time></trkpt><trkpt lat="33.1113583" lon="-8.1197333"><ele>157.0</ele><time>2026-04-26T16:13:03.385Z</time></trkpt><trkpt lat="33.1115117" lon="-8.1196517"><ele>157.0</ele><time>2026-04-26T16:13:04.385Z</time></trkpt><trkpt lat="33.1116633" lon="-8.1195733"><ele>157.0</ele><time>2026-04-26T16:13:05.385Z</time></trkpt><trkpt lat="33.1118183" lon="-8.119495"><ele>155.0</ele><time>2026-04-26T16:13:06.385Z</time></trkpt><trkpt lat="33.1119717" lon="-8.11942"><ele>153.0</ele><time>2026-04-26T16:13:07.385Z</time></trkpt><trkpt lat="33.1121267" lon="-8.1193317"><ele>151.0</ele><time>2026-04-26T16:13:08.385Z</time></trkpt><trkpt lat="33.1122817" lon="-8.11923"><ele>151.0</ele><time>2026-04-26T16:13:09.385Z</time></trkpt><trkpt lat="33.1124283" lon="-8.1191167"><ele>151.0</ele><time>2026-04-26T16:13:10.385Z</time></trkpt><trkpt lat="33.11257" lon="-8.1190033"><ele>151.0</ele><time>2026-04-26T16:13:11.385Z</time></trkpt><trkpt lat="33.1127067" lon="-8.1188967"><ele>151.0</ele><time>2026-04-26T16:13:12.385Z</time></trkpt><trkpt lat="33.11284" lon="-8.1187967"><ele>151.0</ele><time>2026-04-26T16:13:13.385Z</time></trkpt><trkpt lat="33.11297" lon="-8.1187017"><ele>151.0</ele><time>2026-04-26T16:13:14.385Z</time></trkpt><trkpt lat="33.1131033" lon="-8.11861"><ele>148.66666666666669</ele><time>2026-04-26T16:13:15.385Z</time></trkpt><trkpt lat="33.11324" lon="-8.1185167"><ele>146.33333333333334</ele><time>2026-04-26T16:13:16.386Z</time></trkpt><trkpt lat="33.11338" lon="-8.1184233"><ele>144.0</ele><time>2026-04-26T16:13:17.385Z</time></trkpt><trkpt lat="33.1135283" lon="-8.1183417"><ele>144.0</ele><time>2026-04-26T16:13:18.385Z</time></trkpt><trkpt lat="33.1136733" lon="-8.1182567"><ele>144.0</ele><time>2026-04-26T16:13:19.385Z</time></trkpt><trkpt lat="33.1138183" lon="-8.1181817"><ele>144.0</ele><time>2026-04-26T16:13:20.385Z</time></trkpt><trkpt lat="33.1139583" lon="-8.1181083"><ele>144.33333333333334</ele><time>2026-04-26T16:13:21.385Z</time></trkpt><trkpt lat="33.1140983" lon="-8.1180383"><ele>144.66666666666669</ele><time>2026-04-26T16:13:22.385Z</time></trkpt><trkpt lat="33.1142433" lon="-8.1179633"><ele>145.0</ele><time>2026-04-26T16:13:23.385Z</time></trkpt><trkpt lat="33.1143833" lon="-8.1178917"><ele>145.0</ele><time>2026-04-26T16:13:24.385Z</time></trkpt><trkpt lat="33.1145217" lon="-8.11782"><ele>145.0</ele><time>2026-04-26T16:13:25.385Z</time></trkpt><trkpt lat="33.114665" lon="-8.11774"><ele>145.0</ele><time>2026-04-26T16:13:26.385Z</time></trkpt><trkpt lat="33.1148083" lon="-8.1176583"><ele>144.66666666666669</ele><time>2026-04-26T16:13:27.385Z</time></trkpt><trkpt lat="33.1149533" lon="-8.1175767"><ele>144.33333333333334</ele><time>2026-04-26T16:13:28.385Z</time></trkpt><trkpt lat="33.1150983" lon="-8.1174933"><ele>144.0</ele><time>2026-04-26T16:13:29.385Z</time></trkpt><trkpt lat="33.11523" lon="-8.1173983"><ele>144.0</ele><time>2026-04-26T16:13:30.385Z</time></trkpt><trkpt lat="33.1153517" lon="-8.11729"><ele>144.0</ele><time>2026-04-26T16:13:31.385Z</time></trkpt><trkpt lat="33.1154683" lon="-8.1171617"><ele>144.0</ele><time>2026-04-26T16:13:32.385Z</time></trkpt><trkpt lat="33.11559" lon="-8.11706"><ele>144.0</ele><time>2026-04-26T16:13:33.385Z</time></trkpt><trkpt lat="33.1157133" lon="-8.1169617"><ele>144.0</ele><time>2026-04-26T16:13:34.385Z</time></trkpt><trkpt lat="33.1158367" lon="-8.116865"><ele>144.0</ele><time>2026-04-26T16:13:35.385Z</time></trkpt><trkpt lat="33.1159583" lon="-8.1167767"><ele>144.0</ele><time>2026-04-26T16:13:36.385Z</time></trkpt><trkpt lat="33.1160817" lon="-8.11669"><ele>141.75</ele><time>2026-04-26T16:13:37.385Z</time></trkpt><trkpt lat="33.1162033" lon="-8.116605"><ele>139.5</ele><time>2026-04-26T16:13:38.385Z</time></trkpt><trkpt lat="33.1163367" lon="-8.11653"><ele>137.25</ele><time>2026-04-26T16:13:39.385Z</time></trkpt><trkpt lat="33.11647" lon="-8.1164617"><ele>135.0</ele><time>2026-04-26T16:13:40.385Z</time></trkpt><trkpt lat="33.1166117" lon="-8.1164033"><ele>128.33333333333334</ele><time>2026-04-26T16:13:41.385Z</time></trkpt><trkpt lat="33.11676" lon="-8.1163633"><ele>121.66666666666667</ele><time>2026-04-26T16:13:42.385Z</time></trkpt><trkpt lat="33.1169133" lon="-8.11633"><ele>115.0</ele><time>2026-04-26T16:13:43.385Z</time></trkpt><trkpt lat="33.1170667" lon="-8.116315"><ele>115.0</ele><time>2026-04-26T16:13:44.385Z</time></trkpt><trkpt lat="33.1172217" lon="-8.1163117"><ele>115.0</ele><time>2026-04-26T16:13:45.385Z</time></trkpt><trkpt lat="33.1173767" lon="-8.1163217"><ele>115.0</ele><time>2026-04-26T16:13:46.385Z</time></trkpt><trkpt lat="33.117535" lon="-8.11634"><ele>110.0</ele><time>2026-04-26T16:13:47.385Z</time></trkpt><trkpt lat="33.1176933" lon="-8.11636"><ele>105.0</ele><time>2026-04-26T16:13:48.385Z</time></trkpt><trkpt lat="33.1178617" lon="-8.116385"><ele>100.0</ele><time>2026-04-26T16:13:49.385Z</time></trkpt><trkpt lat="33.1180267" lon="-8.11642"><ele>100.0</ele><time>2026-04-26T16:13:50.385Z</time></trkpt><trkpt lat="33.1182017" lon="-8.116465"><ele>100.0</ele><time>2026-04-26T16:13:51.385Z</time></trkpt><trkpt lat="33.1183733" lon="-8.11653"><ele>100.0</ele><time>2026-04-26T16:13:52.385Z</time></trkpt><trkpt lat="33.11854" lon="-8.1166183"><ele>100.0</ele><time>2026-04-26T16:13:53.385Z</time></trkpt><trkpt lat="33.1187033" lon="-8.11674"><ele>100.0</ele><time>2026-04-26T16:13:54.385Z</time></trkpt><trkpt lat="33.11888" lon="-8.1168867"><ele>100.0</ele><time>2026-04-26T16:13:55.385Z</time></trkpt><trkpt lat="33.11906" lon="-8.117035"><ele>99.33333333333334</ele><time>2026-04-26T16:13:56.385Z</time></trkpt><trkpt lat="33.1192317" lon="-8.1171733"><ele>98.66666666666666</ele><time>2026-04-26T16:13:57.386Z</time></trkpt><trkpt lat="33.1194017" lon="-8.1172967"><ele>98.0</ele><time>2026-04-26T16:13:58.385Z</time></trkpt><trkpt lat="33.1195683" lon="-8.1174133"><ele>98.0</ele><time>2026-04-26T16:13:59.385Z</time></trkpt><trkpt lat="33.1197217" lon="-8.1175283"><ele>98.0</ele><time>2026-04-26T16:14:00.385Z</time></trkpt><trkpt lat="33.11987" lon="-8.1176567"><ele>98.0</ele><time>2026-04-26T16:14:01.385Z</time></trkpt><trkpt lat="33.1200083" lon="-8.1177767"><ele>94.66666666666666</ele><time>2026-04-26T16:14:02.385Z</time></trkpt><trkpt lat="33.1201567" lon="-8.1178767"><ele>91.33333333333333</ele><time>2026-04-26T16:14:03.385Z</time></trkpt><trkpt lat="33.1203083" lon="-8.1179467"><ele>88.0</ele><time>2026-04-26T16:14:04.385Z</time></trkpt><trkpt lat="33.1204583" lon="-8.118015"><ele>88.0</ele><time>2026-04-26T16:14:05.385Z</time></trkpt><trkpt lat="33.1205967" lon="-8.1180767"><ele>88.0</ele><time>2026-04-26T16:14:06.385Z</time></trkpt><trkpt lat="33.1207317" lon="-8.1181483"><ele>88.0</ele><time>2026-04-26T16:14:07.385Z</time></trkpt><trkpt lat="33.1208617" lon="-8.1182267"><ele>88.0</ele><time>2026-04-26T16:14:08.385Z</time></trkpt><trkpt lat="33.120985" lon="-8.1183033"><ele>87.5</ele><time>2026-04-26T16:14:09.385Z</time></trkpt><trkpt lat="33.1210967" lon="-8.118385"><ele>87.0</ele><time>2026-04-26T16:14:10.385Z</time></trkpt><trkpt lat="33.1212033" lon="-8.11848"><ele>86.5</ele><time>2026-04-26T16:14:11.385Z</time></trkpt><trkpt lat="33.1212967" lon="-8.11858"><ele>86.0</ele><time>2026-04-26T16:14:12.385Z</time></trkpt><trkpt lat="33.1213833" lon="-8.1186833"><ele>86.0</ele><time>2026-04-26T16:14:13.385Z</time></trkpt><trkpt lat="33.1214833" lon="-8.1187767"><ele>86.0</ele><time>2026-04-26T16:14:14.385Z</time></trkpt><trkpt lat="33.121595" lon="-8.11884"><ele>86.0</ele><time>2026-04-26T16:14:15.385Z</time></trkpt><trkpt lat="33.1217133" lon="-8.11887"><ele>86.0</ele><time>2026-04-26T16:14:16.385Z</time></trkpt><trkpt lat="33.121845" lon="-8.1188817"><ele>84.75</ele><time>2026-04-26T16:14:17.385Z</time></trkpt><trkpt lat="33.1219667" lon="-8.118885"><ele>83.5</ele><time>2026-04-26T16:14:18.385Z</time></trkpt><trkpt lat="33.1220917" lon="-8.1188667"><ele>82.25</ele><time>2026-04-26T16:14:19.385Z</time></trkpt><trkpt lat="33.1222283" lon="-8.1188317"><ele>81.0</ele><time>2026-04-26T16:14:20.385Z</time></trkpt><trkpt lat="33.1223783" lon="-8.11878"><ele>81.33333333333333</ele><time>2026-04-26T16:14:21.385Z</time></trkpt><trkpt lat="33.12254" lon="-8.1187217"><ele>81.66666666666666</ele><time>2026-04-26T16:14:22.385Z</time></trkpt><trkpt lat="33.1227" lon="-8.1186833"><ele>82.0</ele><time>2026-04-26T16:14:23.385Z</time></trkpt><trkpt lat="33.1228517" lon="-8.1186517"><ele>82.0</ele><time>2026-04-26T16:14:24.385Z</time></trkpt><trkpt lat="33.1230033" lon="-8.1186367"><ele>82.0</ele><time>2026-04-26T16:14:25.385Z</time></trkpt><trkpt lat="33.12316" lon="-8.118625"><ele>82.0</ele><time>2026-04-26T16:14:26.385Z</time></trkpt><trkpt lat="33.1233133" lon="-8.11861"><ele>79.66666666666666</ele><time>2026-04-26T16:14:27.385Z</time></trkpt><trkpt lat="33.1234733" lon="-8.1185983"><ele>77.33333333333333</ele><time>2026-04-26T16:14:28.385Z</time></trkpt><trkpt lat="33.1236417" lon="-8.118585"><ele>75.0</ele><time>2026-04-26T16:14:29.385Z</time></trkpt><trkpt lat="33.12381" lon="-8.1185667"><ele>75.0</ele><time>2026-04-26T16:14:30.385Z</time></trkpt><trkpt lat="33.123975" lon="-8.1185483"><ele>75.0</ele><time>2026-04-26T16:14:31.385Z</time></trkpt><trkpt lat="33.1241433" lon="-8.1185333"><ele>75.0</ele><time>2026-04-26T16:14:32.385Z</time></trkpt><trkpt lat="33.124305" lon="-8.11852"><ele>73.33333333333333</ele><time>2026-04-26T16:14:33.385Z</time></trkpt><trkpt lat="33.1244667" lon="-8.11851"><ele>71.66666666666666</ele><time>2026-04-26T16:14:34.385Z</time></trkpt><trkpt lat="33.1246283" lon="-8.1184917"><ele>70.0</ele><time>2026-04-26T16:14:35.385Z</time></trkpt><trkpt lat="33.1247917" lon="-8.11848"><ele>67.66666666666666</ele><time>2026-04-26T16:14:36.385Z</time></trkpt><trkpt lat="33.12496" lon="-8.1184667"><ele>65.33333333333333</ele><time>2026-04-26T16:14:37.385Z</time></trkpt><trkpt lat="33.1251317" lon="-8.1184617"><ele>63.0</ele><time>2026-04-26T16:14:38.385Z</time></trkpt><trkpt lat="33.1252967" lon="-8.11847"><ele>63.0</ele><time>2026-04-26T16:14:39.385Z</time></trkpt><trkpt lat="33.125455" lon="-8.1184883"><ele>63.0</ele><time>2026-04-26T16:14:40.385Z</time></trkpt><trkpt lat="33.1256033" lon="-8.1185217"><ele>63.0</ele><time>2026-04-26T16:14:41.385Z</time></trkpt><trkpt lat="33.1257467" lon="-8.118555"><ele>62.25</ele><time>2026-04-26T16:14:42.385Z</time></trkpt><trkpt lat="33.1258883" lon="-8.1185933"><ele>61.5</ele><time>2026-04-26T16:14:43.385Z</time></trkpt><trkpt lat="33.1260217" lon="-8.1186333"><ele>60.75</ele><time>2026-04-26T16:14:44.385Z</time></trkpt><trkpt lat="33.12616" lon="-8.11868"><ele>60.0</ele><time>2026-04-26T16:14:45.385Z</time></trkpt><trkpt lat="33.1263067" lon="-8.118735"><ele>60.0</ele><time>2026-04-26T16:14:46.385Z</time></trkpt><trkpt lat="33.12646" lon="-8.1188033"><ele>60.0</ele><time>2026-04-26T16:14:47.385Z</time></trkpt><trkpt lat="33.126625" lon="-8.1188783"><ele>60.0</ele><time>2026-04-26T16:14:48.385Z</time></trkpt><trkpt lat="33.1267967" lon="-8.1189583"><ele>61.33333333333333</ele><time>2026-04-26T16:14:49.385Z</time></trkpt><trkpt lat="33.1269683" lon="-8.1190367"><ele>62.666666666666664</ele><time>2026-04-26T16:14:50.385Z</time></trkpt><trkpt lat="33.1271433" lon="-8.1191033"><ele>64.0</ele><time>2026-04-26T16:14:51.385Z</time></trkpt><trkpt lat="33.1273183" lon="-8.1191717"><ele>60.0</ele><time>2026-04-26T16:14:52.385Z</time></trkpt><trkpt lat="33.127495" lon="-8.119235"><ele>56.0</ele><time>2026-04-26T16:14:53.385Z</time></trkpt><trkpt lat="33.1276833" lon="-8.1192867"><ele>52.0</ele><time>2026-04-26T16:14:54.385Z</time></trkpt><trkpt lat="33.1278667" lon="-8.11934"><ele>52.0</ele><time>2026-04-26T16:14:55.385Z</time></trkpt><trkpt lat="33.1280467" lon="-8.1193933"><ele>52.0</ele><time>2026-04-26T16:14:56.385Z</time></trkpt><trkpt lat="33.1282283" lon="-8.119445"><ele>52.0</ele><time>2026-04-26T16:14:57.385Z</time></trkpt><trkpt lat="33.1283967" lon="-8.1195"><ele>51.666666666666664</ele><time>2026-04-26T16:14:58.385Z</time></trkpt><trkpt lat="33.1285583" lon="-8.11955"><ele>51.33333333333333</ele><time>2026-04-26T16:14:59.385Z</time></trkpt><trkpt lat="33.128715" lon="-8.11959"><ele>51.0</ele><time>2026-04-26T16:15:00.385Z</time></trkpt><trkpt lat="33.128875" lon="-8.1196233"><ele>51.0</ele><time>2026-04-26T16:15:01.385Z</time></trkpt><trkpt lat="33.1290383" lon="-8.1196417"><ele>51.0</ele><time>2026-04-26T16:15:02.385Z</time></trkpt><trkpt lat="33.1292083" lon="-8.1196583"><ele>51.0</ele><time>2026-04-26T16:15:03.385Z</time></trkpt><trkpt lat="33.1293733" lon="-8.1196733"><ele>51.0</ele><time>2026-04-26T16:15:04.385Z</time></trkpt><trkpt lat="33.1295317" lon="-8.119675"><ele>51.0</ele><time>2026-04-26T16:15:05.385Z</time></trkpt><trkpt lat="33.1296883" lon="-8.11965"><ele>51.0</ele><time>2026-04-26T16:15:06.385Z</time></trkpt><trkpt lat="33.12985" lon="-8.119605"><ele>49.333333333333336</ele><time>2026-04-26T16:15:07.385Z</time></trkpt><trkpt lat="33.130015" lon="-8.1195233"><ele>47.66666666666667</ele><time>2026-04-26T16:15:08.386Z</time></trkpt><trkpt lat="33.1301667" lon="-8.119415"><ele>46.0</ele><time>2026-04-26T16:15:09.386Z</time></trkpt><trkpt lat="33.130305" lon="-8.1192817"><ele>46.0</ele><time>2026-04-26T16:15:10.385Z</time></trkpt><trkpt lat="33.1304267" lon="-8.1191433"><ele>46.0</ele><time>2026-04-26T16:15:11.386Z</time></trkpt><trkpt lat="33.130535" lon="-8.119005"><ele>46.0</ele><time>2026-04-26T16:15:12.385Z</time></trkpt><trkpt lat="33.1306483" lon="-8.1188683"><ele>45.66666666666667</ele><time>2026-04-26T16:15:13.385Z</time></trkpt><trkpt lat="33.1307717" lon="-8.11873"><ele>45.333333333333336</ele><time>2026-04-26T16:15:14.385Z</time></trkpt><trkpt lat="33.13089" lon="-8.11859"><ele>45.0</ele><time>2026-04-26T16:15:15.385Z</time></trkpt><trkpt lat="33.1310033" lon="-8.1184567"><ele>45.0</ele><time>2026-04-26T16:15:16.385Z</time></trkpt><trkpt lat="33.131115" lon="-8.11833"><ele>45.0</ele><time>2026-04-26T16:15:17.385Z</time></trkpt><trkpt lat="33.1312267" lon="-8.1182017"><ele>45.0</ele><time>2026-04-26T16:15:18.385Z</time></trkpt><trkpt lat="33.1313367" lon="-8.1180717"><ele>45.333333333333336</ele><time>2026-04-26T16:15:19.385Z</time></trkpt><trkpt lat="33.13144" lon="-8.11795"><ele>45.66666666666667</ele><time>2026-04-26T16:15:20.385Z</time></trkpt><trkpt lat="33.1315483" lon="-8.1178267"><ele>46.0</ele><time>2026-04-26T16:15:21.385Z</time></trkpt><trkpt lat="33.1316617" lon="-8.1176967"><ele>46.333333333333336</ele><time>2026-04-26T16:15:22.385Z</time></trkpt><trkpt lat="33.1317783" lon="-8.11756"><ele>46.666666666666664</ele><time>2026-04-26T16:15:23.385Z</time></trkpt><trkpt lat="33.1318967" lon="-8.1174217"><ele>47.0</ele><time>2026-04-26T16:15:24.385Z</time></trkpt><trkpt lat="33.1320133" lon="-8.117285"><ele>46.33333333333333</ele><time>2026-04-26T16:15:25.385Z</time></trkpt><trkpt lat="33.1321333" lon="-8.1171483"><ele>45.666666666666664</ele><time>2026-04-26T16:15:26.385Z</time></trkpt><trkpt lat="33.13225" lon="-8.117015"><ele>45.0</ele><time>2026-04-26T16:15:27.385Z</time></trkpt><trkpt lat="33.132365" lon="-8.11688"><ele>46.0</ele><time>2026-04-26T16:15:28.385Z</time></trkpt><trkpt lat="33.13248" lon="-8.1167467"><ele>47.0</ele><time>2026-04-26T16:15:29.385Z</time></trkpt><trkpt lat="33.13259" lon="-8.1166183"><ele>48.0</ele><time>2026-04-26T16:15:30.385Z</time></trkpt><trkpt lat="33.1326983" lon="-8.1164883"><ele>48.0</ele><time>2026-04-26T16:15:31.385Z</time></trkpt><trkpt lat="33.1328183" lon="-8.1163533"><ele>48.0</ele><time>2026-04-26T16:15:32.385Z</time></trkpt><trkpt lat="33.132945" lon="-8.116205"><ele>48.0</ele><time>2026-04-26T16:15:33.385Z</time></trkpt><trkpt lat="33.1330733" lon="-8.11606"><ele>48.0</ele><time>2026-04-26T16:15:34.385Z</time></trkpt><trkpt lat="33.1331917" lon="-8.1159233"><ele>48.0</ele><time>2026-04-26T16:15:35.385Z</time></trkpt><trkpt lat="33.1333" lon="-8.1157933"><ele>48.0</ele><time>2026-04-26T16:15:36.385Z</time></trkpt><trkpt lat="33.1334133" lon="-8.1156617"><ele>47.333333333333336</ele><time>2026-04-26T16:15:37.385Z</time></trkpt><trkpt lat="33.1335283" lon="-8.1155283"><ele>46.66666666666667</ele><time>2026-04-26T16:15:38.385Z</time></trkpt><trkpt lat="33.133655" lon="-8.11538"><ele>46.0</ele><time>2026-04-26T16:15:39.385Z</time></trkpt><trkpt lat="33.1337833" lon="-8.1152383"><ele>46.0</ele><time>2026-04-26T16:15:40.385Z</time></trkpt><trkpt lat="33.1339017" lon="-8.1151067"><ele>46.0</ele><time>2026-04-26T16:15:41.385Z</time></trkpt><trkpt lat="33.1340033" lon="-8.1149867"><ele>46.0</ele><time>2026-04-26T16:15:42.385Z</time></trkpt><trkpt lat="33.134095" lon="-8.1148817"><ele>46.0</ele><time>2026-04-26T16:15:43.385Z</time></trkpt><trkpt lat="33.13418" lon="-8.1147833"><ele>46.599999999999994</ele><time>2026-04-26T16:15:44.385Z</time></trkpt><trkpt lat="33.1342567" lon="-8.1146967"><ele>47.2</ele><time>2026-04-26T16:15:45.385Z</time></trkpt><trkpt lat="33.1343267" lon="-8.1146267"><ele>47.8</ele><time>2026-04-26T16:15:46.385Z</time></trkpt><trkpt lat="33.134405" lon="-8.1145567"><ele>48.400000000000006</ele><time>2026-04-26T16:15:47.385Z</time></trkpt><trkpt lat="33.134475" lon="-8.1144967"><ele>49.0</ele><time>2026-04-26T16:15:48.385Z</time></trkpt><trkpt lat="33.134545" lon="-8.1144283"><ele>49.0</ele><time>2026-04-26T16:15:49.385Z</time></trkpt><trkpt lat="33.13463" lon="-8.11433"><ele>49.0</ele><time>2026-04-26T16:15:50.385Z</time></trkpt><trkpt lat="33.1347383" lon="-8.1142067"><ele>49.0</ele><time>2026-04-26T16:15:51.385Z</time></trkpt><trkpt lat="33.13486" lon="-8.11405"><ele>49.0</ele><time>2026-04-26T16:15:52.385Z</time></trkpt><trkpt lat="33.13498" lon="-8.11389"><ele>48.33333333333333</ele><time>2026-04-26T16:15:53.385Z</time></trkpt><trkpt lat="33.1351183" lon="-8.11373"><ele>47.666666666666664</ele><time>2026-04-26T16:15:54.385Z</time></trkpt><trkpt lat="33.1352717" lon="-8.1135483"><ele>47.0</ele><time>2026-04-26T16:15:55.385Z</time></trkpt><trkpt lat="33.135435" lon="-8.1133517"><ele>47.666666666666664</ele><time>2026-04-26T16:15:56.385Z</time></trkpt><trkpt lat="33.13559" lon="-8.1131667"><ele>48.33333333333333</ele><time>2026-04-26T16:15:57.385Z</time></trkpt><trkpt lat="33.1357367" lon="-8.1129917"><ele>49.0</ele><time>2026-04-26T16:15:58.385Z</time></trkpt><trkpt lat="33.1358867" lon="-8.1128217"><ele>49.666666666666664</ele><time>2026-04-26T16:15:59.385Z</time></trkpt><trkpt lat="33.136025" lon="-8.1126367"><ele>50.33333333333333</ele><time>2026-04-26T16:16:00.385Z</time></trkpt><trkpt lat="33.13616" lon="-8.1124417"><ele>51.0</ele><time>2026-04-26T16:16:01.385Z</time></trkpt><trkpt lat="33.13629" lon="-8.1122517"><ele>51.33333333333333</ele><time>2026-04-26T16:16:02.385Z</time></trkpt><trkpt lat="33.1364" lon="-8.1120717"><ele>51.666666666666664</ele><time>2026-04-26T16:16:03.385Z</time></trkpt><trkpt lat="33.136505" lon="-8.1118967"><ele>52.0</ele><time>2026-04-26T16:16:04.385Z</time></trkpt><trkpt lat="33.1366117" lon="-8.11172"><ele>52.666666666666664</ele><time>2026-04-26T16:16:05.385Z</time></trkpt><trkpt lat="33.1367167" lon="-8.11154"><ele>53.33333333333333</ele><time>2026-04-26T16:16:06.385Z</time></trkpt><trkpt lat="33.1368233" lon="-8.11136"><ele>54.0</ele><time>2026-04-26T16:16:07.385Z</time></trkpt><trkpt lat="33.13693" lon="-8.1111717"><ele>54.0</ele><time>2026-04-26T16:16:08.385Z</time></trkpt><trkpt lat="33.1370433" lon="-8.1109883"><ele>54.0</ele><time>2026-04-26T16:16:09.385Z</time></trkpt><trkpt lat="33.13715" lon="-8.1108133"><ele>54.0</ele><time>2026-04-26T16:16:10.385Z</time></trkpt><trkpt lat="33.137245" lon="-8.1106483"><ele>54.0</ele><time>2026-04-26T16:16:11.385Z</time></trkpt><trkpt lat="33.137335" lon="-8.1104917"><ele>54.0</ele><time>2026-04-26T16:16:12.385Z</time></trkpt><trkpt lat="33.1374267" lon="-8.11034"><ele>54.0</ele><time>2026-04-26T16:16:13.385Z</time></trkpt><trkpt lat="33.1375233" lon="-8.1101933"><ele>54.0</ele><time>2026-04-26T16:16:14.385Z</time></trkpt><trkpt lat="33.13762" lon="-8.1100383"><ele>54.0</ele><time>2026-04-26T16:16:15.385Z</time></trkpt><trkpt lat="33.137715" lon="-8.1098717"><ele>54.0</ele><time>2026-04-26T16:16:16.385Z</time></trkpt><trkpt lat="33.1378133" lon="-8.1097017"><ele>55.0</ele><time>2026-04-26T16:16:17.385Z</time></trkpt><trkpt lat="33.137915" lon="-8.1095367"><ele>56.0</ele><time>2026-04-26T16:16:18.385Z</time></trkpt><trkpt lat="33.1380117" lon="-8.1093783"><ele>57.0</ele><time>2026-04-26T16:16:19.385Z</time></trkpt><trkpt lat="33.1381017" lon="-8.1092233"><ele>56.66666666666667</ele><time>2026-04-26T16:16:20.386Z</time></trkpt><trkpt lat="33.1381933" lon="-8.1090733"><ele>56.333333333333336</ele><time>2026-04-26T16:16:21.385Z</time></trkpt><trkpt lat="33.1382867" lon="-8.1089133"><ele>56.0</ele><time>2026-04-26T16:16:22.385Z</time></trkpt><trkpt lat="33.1383867" lon="-8.1087517"><ele>55.66666666666667</ele><time>2026-04-26T16:16:23.385Z</time></trkpt><trkpt lat="33.1384917" lon="-8.1085883"><ele>55.33333333333333</ele><time>2026-04-26T16:16:24.385Z</time></trkpt><trkpt lat="33.1385933" lon="-8.1084167"><ele>55.0</ele><time>2026-04-26T16:16:25.385Z</time></trkpt><trkpt lat="33.1387017" lon="-8.1082417"><ele>55.666666666666664</ele><time>2026-04-26T16:16:26.385Z</time></trkpt><trkpt lat="33.138805" lon="-8.1080767"><ele>56.33333333333333</ele><time>2026-04-26T16:16:27.385Z</time></trkpt><trkpt lat="33.1389" lon="-8.10792"><ele>57.0</ele><time>2026-04-26T16:16:28.386Z</time></trkpt><trkpt lat="33.13899" lon="-8.10777"><ele>57.0</ele><time>2026-04-26T16:16:29.385Z</time></trkpt><trkpt lat="33.13908" lon="-8.1076167"><ele>57.0</ele><time>2026-04-26T16:16:30.385Z</time></trkpt><trkpt lat="33.1391783" lon="-8.107455"><ele>57.0</ele><time>2026-04-26T16:16:31.385Z</time></trkpt><trkpt lat="33.13928" lon="-8.1073067"><ele>55.0</ele><time>2026-04-26T16:16:32.385Z</time></trkpt><trkpt lat="33.1393983" lon="-8.107155"><ele>53.0</ele><time>2026-04-26T16:16:33.385Z</time></trkpt><trkpt lat="33.1395317" lon="-8.1070133"><ele>51.0</ele><time>2026-04-26T16:16:34.385Z</time></trkpt><trkpt lat="33.1396733" lon="-8.1068917"><ele>51.0</ele><time>2026-04-26T16:16:35.385Z</time></trkpt><trkpt lat="33.1398217" lon="-8.1068"><ele>51.0</ele><time>2026-04-26T16:16:36.385Z</time></trkpt><trkpt lat="33.1399767" lon="-8.1067233"><ele>51.0</ele><time>2026-04-26T16:16:37.385Z</time></trkpt><trkpt lat="33.140135" lon="-8.1066633"><ele>50.33333333333333</ele><time>2026-04-26T16:16:38.385Z</time></trkpt><trkpt lat="33.1403" lon="-8.1066117"><ele>49.666666666666664</ele><time>2026-04-26T16:16:39.385Z</time></trkpt><trkpt lat="33.14047" lon="-8.1065833"><ele>49.0</ele><time>2026-04-26T16:16:40.385Z</time></trkpt><trkpt lat="33.1406367" lon="-8.106565"><ele>47.75</ele><time>2026-04-26T16:16:41.385Z</time></trkpt><trkpt lat="33.1407867" lon="-8.1065667"><ele>46.5</ele><time>2026-04-26T16:16:42.385Z</time></trkpt><trkpt lat="33.14093" lon="-8.1065817"><ele>45.25</ele><time>2026-04-26T16:16:43.385Z</time></trkpt><trkpt lat="33.1410617" lon="-8.1066017"><ele>44.0</ele><time>2026-04-26T16:16:44.386Z</time></trkpt><trkpt lat="33.1411817" lon="-8.1066117"><ele>44.0</ele><time>2026-04-26T16:16:45.385Z</time></trkpt><trkpt lat="33.141285" lon="-8.1066267"><ele>44.0</ele><time>2026-04-26T16:16:46.385Z</time></trkpt><trkpt lat="33.141375" lon="-8.106635"><ele>44.0</ele><time>2026-04-26T16:16:47.385Z</time></trkpt><trkpt lat="33.1414583" lon="-8.1066367"><ele>44.0</ele><time>2026-04-26T16:16:48.385Z</time></trkpt><trkpt lat="33.1415267" lon="-8.1066383"><ele>44.0</ele><time>2026-04-26T16:16:49.385Z</time></trkpt><trkpt lat="33.1416183" lon="-8.10665"><ele>44.0</ele><time>2026-04-26T16:16:51.385Z</time></trkpt><trkpt lat="33.141715" lon="-8.10666"><ele>43.33333333333333</ele><time>2026-04-26T16:16:54.385Z</time></trkpt><trkpt lat="33.1417783" lon="-8.1066633"><ele>42.666666666666664</ele><time>2026-04-26T16:16:56.385Z</time></trkpt><trkpt lat="33.14186" lon="-8.10668"><ele>42.0</ele><time>2026-04-26T16:16:59.385Z</time></trkpt><trkpt lat="33.141945" lon="-8.1066817"><ele>41.333333333333336</ele><time>2026-04-26T16:17:02.385Z</time></trkpt><trkpt lat="33.1420133" lon="-8.1066767"><ele>40.66666666666667</ele><time>2026-04-26T16:17:05.385Z</time></trkpt><trkpt lat="33.1420933" lon="-8.1066917"><ele>40.0</ele><time>2026-04-26T16:17:08.385Z</time></trkpt><trkpt lat="33.142165" lon="-8.10667"><ele>40.0</ele><time>2026-04-26T16:17:12.385Z</time></trkpt><trkpt lat="33.1422317" lon="-8.10669"><ele>40.0</ele><time>2026-04-26T16:23:18.384Z</time></trkpt><trkpt lat="33.1422967" lon="-8.1067583"><ele>40.0</ele><time>2026-04-26T16:23:21.384Z</time></trkpt><trkpt lat="33.14243" lon="-8.10677"><ele>40.0</ele><time>2026-04-26T16:23:23.384Z</time></trkpt><trkpt lat="33.14251" lon="-8.1067717"><ele>40.0</ele><time>2026-04-26T16:23:24.384Z</time></trkpt><trkpt lat="33.1425883" lon="-8.106775"><ele>40.0</ele><time>2026-04-26T16:23:25.384Z</time></trkpt><trkpt lat="33.1426633" lon="-8.1067833"><ele>38.833333333333336</ele><time>2026-04-26T16:23:26.384Z</time></trkpt><trkpt lat="33.142745" lon="-8.10679"><ele>37.66666666666667</ele><time>2026-04-26T16:23:27.384Z</time></trkpt><trkpt lat="33.1428267" lon="-8.1067983"><ele>36.5</ele><time>2026-04-26T16:23:28.384Z</time></trkpt><trkpt lat="33.1429" lon="-8.1068067"><ele>35.333333333333336</ele><time>2026-04-26T16:23:29.384Z</time></trkpt><trkpt lat="33.1429667" lon="-8.1068167"><ele>34.166666666666664</ele><time>2026-04-26T16:23:30.384Z</time></trkpt><trkpt lat="33.1430783" lon="-8.1068283"><ele>33.0</ele><time>2026-04-26T16:23:32.384Z</time></trkpt><trkpt lat="33.1431867" lon="-8.1068333"><ele>33.4</ele><time>2026-04-26T16:23:34.384Z</time></trkpt><trkpt lat="33.1432883" lon="-8.106835"><ele>33.8</ele><time>2026-04-26T16:23:36.384Z</time></trkpt><trkpt lat="33.1433883" lon="-8.1068383"><ele>34.2</ele><time>2026-04-26T16:23:38.384Z</time></trkpt><trkpt lat="33.143475" lon="-8.1068233"><ele>34.6</ele><time>2026-04-26T16:23:40.384Z</time></trkpt><trkpt lat="33.143535" lon="-8.1067683"><ele>35.0</ele><time>2026-04-26T16:23:42.384Z</time></trkpt><trkpt lat="33.1435917" lon="-8.1066883"><ele>36.2</ele><time>2026-04-26T16:23:45.384Z</time></trkpt><trkpt lat="33.1436217" lon="-8.1065767"><ele>37.4</ele><time>2026-04-26T16:23:48.385Z</time></trkpt><trkpt lat="33.1436167" lon="-8.10646"><ele>38.599999999999994</ele><time>2026-04-26T16:23:50.384Z</time></trkpt><trkpt lat="33.1435733" lon="-8.1063217"><ele>39.8</ele><time>2026-04-26T16:23:52.384Z</time></trkpt><trkpt lat="33.1435467" lon="-8.1062483"><ele>41.0</ele><time>2026-04-26T16:23:53.384Z</time></trkpt><trkpt lat="33.1435233" lon="-8.1061667"><ele>41.0</ele><time>2026-04-26T16:23:54.384Z</time></trkpt><trkpt lat="33.1434967" lon="-8.10609"><ele>41.0</ele><time>2026-04-26T16:23:55.384Z</time></trkpt><trkpt lat="33.1434733" lon="-8.1060133"><ele>41.0</ele><time>2026-04-26T16:23:56.384Z</time></trkpt><trkpt lat="33.1434483" lon="-8.1059333"><ele>41.0</ele><time>2026-04-26T16:23:57.384Z</time></trkpt><trkpt lat="33.1434167" lon="-8.105845"><ele>41.0</ele><time>2026-04-26T16:23:58.384Z</time></trkpt><trkpt lat="33.14338" lon="-8.105745"><ele>41.0</ele><time>2026-04-26T16:23:59.384Z</time></trkpt><trkpt lat="33.143345" lon="-8.1056433"><ele>41.5</ele><time>2026-04-26T16:24:00.384Z</time></trkpt><trkpt lat="33.1433133" lon="-8.1055467"><ele>42.0</ele><time>2026-04-26T16:24:01.384Z</time></trkpt><trkpt lat="33.1432817" lon="-8.1054567"><ele>42.5</ele><time>2026-04-26T16:24:02.384Z</time></trkpt><trkpt lat="33.1432517" lon="-8.1053617"><ele>43.0</ele><time>2026-04-26T16:24:03.384Z</time></trkpt><trkpt lat="33.14322" lon="-8.1052783"><ele>43.5</ele><time>2026-04-26T16:24:04.384Z</time></trkpt><trkpt lat="33.1431867" lon="-8.1052"><ele>44.0</ele><time>2026-04-26T16:24:05.384Z</time></trkpt><trkpt lat="33.1431567" lon="-8.1051317"><ele>44.0</ele><time>2026-04-26T16:24:06.384Z</time></trkpt><trkpt lat="33.1431233" lon="-8.105065"><ele>44.0</ele><time>2026-04-26T16:24:07.384Z</time></trkpt><trkpt lat="33.1430517" lon="-8.104965"><ele>44.0</ele><time>2026-04-26T16:24:09.384Z</time></trkpt><trkpt lat="33.1430083" lon="-8.1049083"><ele>44.0</ele><time>2026-04-26T16:24:10.384Z</time></trkpt><trkpt lat="33.1429633" lon="-8.1048533"><ele>44.0</ele><time>2026-04-26T16:24:11.384Z</time></trkpt><trkpt lat="33.142905" lon="-8.1047967"><ele>44.0</ele><time>2026-04-26T16:24:13.384Z</time></trkpt><trkpt lat="33.142845" lon="-8.1047283"><ele>44.0</ele><time>2026-04-26T16:25:13.384Z</time></trkpt><trkpt lat="33.142805" lon="-8.104665"><ele>44.0</ele><time>2026-04-26T16:25:14.385Z</time></trkpt><trkpt lat="33.14276" lon="-8.104605"><ele>44.0</ele><time>2026-04-26T16:25:15.384Z</time></trkpt><trkpt lat="33.1427083" lon="-8.1045533"><ele>44.0</ele><time>2026-04-26T16:25:16.384Z</time></trkpt><trkpt lat="33.1426567" lon="-8.1044983"><ele>44.0</ele><time>2026-04-26T16:25:17.384Z</time></trkpt><trkpt lat="33.1426033" lon="-8.10444"><ele>44.0</ele><time>2026-04-26T16:25:18.384Z</time></trkpt><trkpt lat="33.1425417" lon="-8.1043783"><ele>44.0</ele><time>2026-04-26T16:25:19.384Z</time></trkpt><trkpt lat="33.1424767" lon="-8.10431"><ele>44.0</ele><time>2026-04-26T16:25:20.384Z</time></trkpt><trkpt lat="33.1424" lon="-8.1042433"><ele>44.0</ele><time>2026-04-26T16:25:21.384Z</time></trkpt><trkpt lat="33.142315" lon="-8.1041667"><ele>44.0</ele><time>2026-04-26T16:25:22.384Z</time></trkpt><trkpt lat="33.1422217" lon="-8.1040783"><ele>44.0</ele><time>2026-04-26T16:25:23.384Z</time></trkpt><trkpt lat="33.1421333" lon="-8.1039833"><ele>44.0</ele><time>2026-04-26T16:25:24.384Z</time></trkpt><trkpt lat="33.14205" lon="-8.1038983"><ele>44.400000000000006</ele><time>2026-04-26T16:25:25.385Z</time></trkpt><trkpt lat="33.141975" lon="-8.1038183"><ele>44.8</ele><time>2026-04-26T16:25:26.384Z</time></trkpt><trkpt lat="33.1419017" lon="-8.1037467"><ele>45.2</ele><time>2026-04-26T16:25:27.384Z</time></trkpt><trkpt lat="33.1418383" lon="-8.1036767"><ele>45.599999999999994</ele><time>2026-04-26T16:25:28.384Z</time></trkpt><trkpt lat="33.1417817" lon="-8.1036167"><ele>46.0</ele><time>2026-04-26T16:25:29.384Z</time></trkpt><trkpt lat="33.1417033" lon="-8.103545"><ele>46.0</ele><time>2026-04-26T16:25:31.384Z</time></trkpt><trkpt lat="33.14165" lon="-8.1034967"><ele>46.0</ele><time>2026-04-26T16:25:33.384Z</time></trkpt><trkpt lat="33.141605" lon="-8.1034217"><ele>46.0</ele><time>2026-04-26T16:25:35.384Z</time></trkpt><trkpt lat="33.14159" lon="-8.103345"><ele>46.0</ele><time>2026-04-26T16:25:37.384Z</time></trkpt><trkpt lat="33.1416333" lon="-8.1032733"><ele>46.0</ele><time>2026-04-26T16:25:40.384Z</time></trkpt><trkpt lat="33.1417" lon="-8.1032883"><ele>46.0</ele><time>2026-04-26T16:25:44.384Z</time></trkpt><trkpt lat="33.14178" lon="-8.1033233"><ele>46.0</ele><time>2026-04-26T16:25:54.384Z</time></trkpt><trkpt lat="33.141885" lon="-8.10336"><ele>46.0</ele><time>2026-04-26T16:25:55.384Z</time></trkpt><trkpt lat="33.142005" lon="-8.1034067"><ele>46.0</ele><time>2026-04-26T16:25:56.384Z</time></trkpt><trkpt lat="33.1421367" lon="-8.103465"><ele>46.0</ele><time>2026-04-26T16:25:57.384Z</time></trkpt><trkpt lat="33.14226" lon="-8.1035217"><ele>46.0</ele><time>2026-04-26T16:25:58.384Z</time></trkpt><trkpt lat="33.1423883" lon="-8.1035767"><ele>48.599999999999994</ele><time>2026-04-26T16:25:59.384Z</time></trkpt><trkpt lat="33.1425" lon="-8.1036233"><ele>51.2</ele><time>2026-04-26T16:26:00.384Z</time></trkpt><trkpt lat="33.1425983" lon="-8.1036433"><ele>53.800000000000004</ele><time>2026-04-26T16:26:01.384Z</time></trkpt><trkpt lat="33.1426767" lon="-8.1036467"><ele>56.400000000000006</ele><time>2026-04-26T16:26:02.385Z</time></trkpt><trkpt lat="33.1427483" lon="-8.1036267"><ele>59.0</ele><time>2026-04-26T16:26:03.384Z</time></trkpt><trkpt lat="33.14282" lon="-8.1035817"><ele>59.0</ele><time>2026-04-26T16:26:04.384Z</time></trkpt><trkpt lat="33.1428683" lon="-8.103515"><ele>59.00000000000001</ele><time>2026-04-26T16:26:05.384Z</time></trkpt><trkpt lat="33.1428883" lon="-8.1033917"><ele>59.00000000000001</ele><time>2026-04-26T16:26:07.384Z</time></trkpt><trkpt lat="33.1428167" lon="-8.103295"><ele>59.0</ele><time>2026-04-26T16:26:09.384Z</time></trkpt><trkpt lat="33.1427133" lon="-8.10324"><ele>59.0</ele><time>2026-04-26T16:26:11.384Z</time></trkpt><trkpt lat="33.1426333" lon="-8.1032283"><ele>59.00000000000001</ele><time>2026-04-26T16:26:13.384Z</time></trkpt><trkpt lat="33.1426167" lon="-8.1031417"><ele>59.0</ele><time>2026-04-26T16:26:17.385Z</time></trkpt><trkpt lat="33.14269" lon="-8.1031883"><ele>59.0</ele><time>2026-04-26T16:26:21.385Z</time></trkpt><trkpt lat="33.1427533" lon="-8.10325"><ele>59.0</ele><time>2026-04-26T16:26:24.384Z</time></trkpt><trkpt lat="33.1428067" lon="-8.1032967"><ele>59.00000000000001</ele><time>2026-04-26T16:26:26.384Z</time></trkpt><trkpt lat="33.142855" lon="-8.1033533"><ele>59.0</ele><time>2026-04-26T16:26:28.384Z</time></trkpt><trkpt lat="33.1428783" lon="-8.103465"><ele>59.0</ele><time>2026-04-26T16:26:31.384Z</time></trkpt><trkpt lat="33.1428317" lon="-8.1035767"><ele>59.00000000000001</ele><time>2026-04-26T16:26:37.384Z</time></trkpt><trkpt lat="33.1427467" lon="-8.103645"><ele>59.00000000000001</ele><time>2026-04-26T16:26:39.384Z</time></trkpt><trkpt lat="33.142635" lon="-8.1036567"><ele>59.0</ele><time>2026-04-26T16:26:41.384Z</time></trkpt><trkpt lat="33.142515" lon="-8.10363"><ele>59.0</ele><time>2026-04-26T16:26:43.384Z</time></trkpt><trkpt lat="33.1424517" lon="-8.1036067"><ele>59.00000000000001</ele><time>2026-04-26T16:26:44.384Z</time></trkpt><trkpt lat="33.1423883" lon="-8.1035783"><ele>59.0</ele><time>2026-04-26T16:26:45.384Z</time></trkpt><trkpt lat="33.1423167" lon="-8.1035467"><ele>59.0</ele><time>2026-04-26T16:26:46.385Z</time></trkpt><trkpt lat="33.142245" lon="-8.1035117"><ele>59.0</ele><time>2026-04-26T16:26:47.384Z</time></trkpt><trkpt lat="33.1421633" lon="-8.1034733"><ele>59.00000000000001</ele><time>2026-04-26T16:26:48.384Z</time></trkpt><trkpt lat="33.1420933" lon="-8.1034367"><ele>59.0</ele><time>2026-04-26T16:26:49.384Z</time></trkpt><trkpt lat="33.142025" lon="-8.103405"><ele>56.833333333333336</ele><time>2026-04-26T16:26:50.384Z</time></trkpt><trkpt lat="33.1419583" lon="-8.1033783"><ele>54.66666666666667</ele><time>2026-04-26T16:26:51.384Z</time></trkpt><trkpt lat="33.141845" lon="-8.1033433"><ele>52.5</ele><time>2026-04-26T16:26:53.384Z</time></trkpt><trkpt lat="33.1417683" lon="-8.1033183"><ele>50.333333333333336</ele><time>2026-04-26T16:26:55.384Z</time></trkpt><trkpt lat="33.141695" lon="-8.10336"><ele>48.16666666666667</ele><time>2026-04-26T16:26:58.384Z</time></trkpt><trkpt lat="33.1416867" lon="-8.1034517"><ele>46.0</ele><time>2026-04-26T16:27:01.384Z</time></trkpt><trkpt lat="33.1417333" lon="-8.103555"><ele>46.0</ele><time>2026-04-26T16:27:03.384Z</time></trkpt><trkpt lat="33.1417867" lon="-8.1036133"><ele>46.0</ele><time>2026-04-26T16:27:04.384Z</time></trkpt><trkpt lat="33.1418533" lon="-8.10367"><ele>46.0</ele><time>2026-04-26T16:27:05.384Z</time></trkpt><trkpt lat="33.141925" lon="-8.1037367"><ele>46.0</ele><time>2026-04-26T16:27:06.384Z</time></trkpt><trkpt lat="33.14201" lon="-8.103815"><ele>46.0</ele><time>2026-04-26T16:27:07.384Z</time></trkpt><trkpt lat="33.1420883" lon="-8.1039"><ele>46.0</ele><time>2026-04-26T16:27:08.384Z</time></trkpt><trkpt lat="33.1421667" lon="-8.10398"><ele>46.0</ele><time>2026-04-26T16:27:09.384Z</time></trkpt><trkpt lat="33.1422433" lon="-8.10406"><ele>46.0</ele><time>2026-04-26T16:27:10.384Z</time></trkpt><trkpt lat="33.1423183" lon="-8.1041333"><ele>46.0</ele><time>2026-04-26T16:27:11.384Z</time></trkpt><trkpt lat="33.1423917" lon="-8.1042033"><ele>46.0</ele><time>2026-04-26T16:27:12.384Z</time></trkpt><trkpt lat="33.1424617" lon="-8.1042767"><ele>45.599999999999994</ele><time>2026-04-26T16:27:13.384Z</time></trkpt><trkpt lat="33.1425283" lon="-8.1043483"><ele>45.2</ele><time>2026-04-26T16:27:14.384Z</time></trkpt><trkpt lat="33.142595" lon="-8.104425"><ele>44.8</ele><time>2026-04-26T16:27:15.384Z</time></trkpt><trkpt lat="33.142665" lon="-8.1044983"><ele>44.400000000000006</ele><time>2026-04-26T16:27:16.384Z</time></trkpt><trkpt lat="33.1427383" lon="-8.1045683"><ele>44.0</ele><time>2026-04-26T16:27:17.384Z</time></trkpt><trkpt lat="33.1428133" lon="-8.1046383"><ele>44.0</ele><time>2026-04-26T16:27:18.384Z</time></trkpt><trkpt lat="33.1428817" lon="-8.104715"><ele>44.0</ele><time>2026-04-26T16:27:19.384Z</time></trkpt><trkpt lat="33.1429583" lon="-8.1047917"><ele>44.0</ele><time>2026-04-26T16:27:20.384Z</time></trkpt><trkpt lat="33.1430383" lon="-8.104865"><ele>44.0</ele><time>2026-04-26T16:27:21.384Z</time></trkpt><trkpt lat="33.1431117" lon="-8.1049417"><ele>44.0</ele><time>2026-04-26T16:27:22.384Z</time></trkpt><trkpt lat="33.1431817" lon="-8.10503"><ele>44.0</ele><time>2026-04-26T16:27:23.384Z</time></trkpt><trkpt lat="33.1432383" lon="-8.1051417"><ele>44.0</ele><time>2026-04-26T16:27:24.384Z</time></trkpt><trkpt lat="33.1432917" lon="-8.1052633"><ele>44.0</ele><time>2026-04-26T16:27:25.384Z</time></trkpt><trkpt lat="33.14334" lon="-8.105405"><ele>44.0</ele><time>2026-04-26T16:27:26.384Z</time></trkpt><trkpt lat="33.14339" lon="-8.105565"><ele>44.0</ele><time>2026-04-26T16:27:27.384Z</time></trkpt><trkpt lat="33.143435" lon="-8.1057317"><ele>44.0</ele><time>2026-04-26T16:27:28.384Z</time></trkpt><trkpt lat="33.143475" lon="-8.1058883"><ele>44.0</ele><time>2026-04-26T16:27:29.384Z</time></trkpt><trkpt lat="33.1435217" lon="-8.106035"><ele>44.0</ele><time>2026-04-26T16:27:30.384Z</time></trkpt><trkpt lat="33.1435733" lon="-8.106175"><ele>43.25</ele><time>2026-04-26T16:27:31.384Z</time></trkpt><trkpt lat="33.1436117" lon="-8.106315"><ele>42.5</ele><time>2026-04-26T16:27:32.384Z</time></trkpt><trkpt lat="33.1436483" lon="-8.10645"><ele>41.75</ele><time>2026-04-26T16:27:33.384Z</time></trkpt><trkpt lat="33.1436883" lon="-8.1065767"><ele>41.0</ele><time>2026-04-26T16:27:34.384Z</time></trkpt><trkpt lat="33.1437167" lon="-8.1066883"><ele>40.0</ele><time>2026-04-26T16:27:35.384Z</time></trkpt><trkpt lat="33.1437367" lon="-8.1067783"><ele>39.0</ele><time>2026-04-26T16:27:36.385Z</time></trkpt><trkpt lat="33.143755" lon="-8.1068867"><ele>38.0</ele><time>2026-04-26T16:27:38.384Z</time></trkpt><trkpt lat="33.1437767" lon="-8.1070067"><ele>37.0</ele><time>2026-04-26T16:27:41.384Z</time></trkpt><trkpt lat="33.1437967" lon="-8.107095"><ele>36.0</ele><time>2026-04-26T16:27:43.384Z</time></trkpt><trkpt lat="33.14382" lon="-8.1071733"><ele>35.0</ele><time>2026-04-26T16:27:45.384Z</time></trkpt><trkpt lat="33.1438467" lon="-8.10728"><ele>35.0</ele><time>2026-04-26T16:27:48.384Z</time></trkpt><trkpt lat="33.1438717" lon="-8.107385"><ele>35.0</ele><time>2026-04-26T16:27:50.384Z</time></trkpt><trkpt lat="33.143895" lon="-8.1074783"><ele>35.0</ele><time>2026-04-26T16:27:52.384Z</time></trkpt><trkpt lat="33.1439183" lon="-8.1075967"><ele>35.0</ele><time>2026-04-26T16:27:54.384Z</time></trkpt><trkpt lat="33.143935" lon="-8.1076783"><ele>35.0</ele><time>2026-04-26T16:27:55.384Z</time></trkpt><trkpt lat="33.1439467" lon="-8.1077733"><ele>35.0</ele><time>2026-04-26T16:27:56.384Z</time></trkpt><trkpt lat="33.1439633" lon="-8.1078667"><ele>34.5</ele><time>2026-04-26T16:27:57.384Z</time></trkpt><trkpt lat="33.1439833" lon="-8.10795"><ele>34.0</ele><time>2026-04-26T16:27:58.384Z</time></trkpt><trkpt lat="33.1440067" lon="-8.10803"><ele>33.5</ele><time>2026-04-26T16:27:59.385Z</time></trkpt><trkpt lat="33.1440233" lon="-8.1081483"><ele>33.0</ele><time>2026-04-26T16:28:01.384Z</time></trkpt><trkpt lat="33.1439617" lon="-8.108185"><ele>32.5</ele><time>2026-04-26T16:28:04.384Z</time></trkpt><trkpt lat="33.143925" lon="-8.1080967"><ele>32.0</ele><time>2026-04-26T16:28:07.384Z</time></trkpt><trkpt lat="33.1439217" lon="-8.1079733"><ele>32.0</ele><time>2026-04-26T16:28:09.384Z</time></trkpt><trkpt lat="33.1439383" lon="-8.1078333"><ele>32.0</ele><time>2026-04-26T16:28:11.385Z</time></trkpt><trkpt lat="33.143945" lon="-8.1077083"><ele>32.0</ele><time>2026-04-26T16:28:13.384Z</time></trkpt><trkpt lat="33.1439217" lon="-8.1075967"><ele>32.0</ele><time>2026-04-26T16:28:15.384Z</time></trkpt><trkpt lat="33.14389" lon="-8.1074617"><ele>32.0</ele><time>2026-04-26T16:28:17.384Z</time></trkpt><trkpt lat="33.143865" lon="-8.10733"><ele>32.6</ele><time>2026-04-26T16:28:19.384Z</time></trkpt><trkpt lat="33.1438267" lon="-8.1071817"><ele>33.2</ele><time>2026-04-26T16:28:21.384Z</time></trkpt><trkpt lat="33.1438033" lon="-8.1071083"><ele>33.8</ele><time>2026-04-26T16:28:22.384Z</time></trkpt><trkpt lat="33.1437733" lon="-8.1070367"><ele>34.4</ele><time>2026-04-26T16:28:23.385Z</time></trkpt><trkpt lat="33.143735" lon="-8.1068983"><ele>35.0</ele><time>2026-04-26T16:28:25.384Z</time></trkpt><trkpt lat="33.1437217" lon="-8.10682"><ele>35.0</ele><time>2026-04-26T16:28:26.384Z</time></trkpt><trkpt lat="33.1437067" lon="-8.1067383"><ele>35.0</ele><time>2026-04-26T16:28:27.384Z</time></trkpt><trkpt lat="33.143685" lon="-8.10666"><ele>35.0</ele><time>2026-04-26T16:28:28.384Z</time></trkpt><trkpt lat="33.1436567" lon="-8.1065817"><ele>35.0</ele><time>2026-04-26T16:28:29.384Z</time></trkpt><trkpt lat="33.14363" lon="-8.1064917"><ele>35.0</ele><time>2026-04-26T16:28:30.384Z</time></trkpt><trkpt lat="33.1435933" lon="-8.10639"><ele>35.0</ele><time>2026-04-26T16:28:31.384Z</time></trkpt><trkpt lat="33.1435517" lon="-8.106275"><ele>36.5</ele><time>2026-04-26T16:28:32.384Z</time></trkpt><trkpt lat="33.1435083" lon="-8.1061467"><ele>38.0</ele><time>2026-04-26T16:28:33.384Z</time></trkpt><trkpt lat="33.14346" lon="-8.1060083"><ele>39.5</ele><time>2026-04-26T16:28:34.384Z</time></trkpt><trkpt lat="33.1434167" lon="-8.1058633"><ele>41.0</ele><time>2026-04-26T16:28:35.384Z</time></trkpt><trkpt lat="33.1433767" lon="-8.1057267"><ele>41.599999999999994</ele><time>2026-04-26T16:28:36.384Z</time></trkpt><trkpt lat="33.143335" lon="-8.105595"><ele>42.2</ele><time>2026-04-26T16:28:37.384Z</time></trkpt><trkpt lat="33.14329" lon="-8.10547"><ele>42.8</ele><time>2026-04-26T16:28:38.384Z</time></trkpt><trkpt lat="33.1432517" lon="-8.10535"><ele>43.400000000000006</ele><time>2026-04-26T16:28:39.384Z</time></trkpt><trkpt lat="33.1432083" lon="-8.1052383"><ele>44.0</ele><time>2026-04-26T16:28:40.384Z</time></trkpt><trkpt lat="33.1431583" lon="-8.1051217"><ele>44.0</ele><time>2026-04-26T16:28:41.384Z</time></trkpt><trkpt lat="33.1430917" lon="-8.10501"><ele>44.0</ele><time>2026-04-26T16:28:42.384Z</time></trkpt><trkpt lat="33.143015" lon="-8.1049067"><ele>44.0</ele><time>2026-04-26T16:28:43.384Z</time></trkpt><trkpt lat="33.14292" lon="-8.1047967"><ele>44.0</ele><time>2026-04-26T16:28:44.384Z</time></trkpt><trkpt lat="33.142815" lon="-8.10469"><ele>44.0</ele><time>2026-04-26T16:28:45.384Z</time></trkpt><trkpt lat="33.142705" lon="-8.10458"><ele>44.0</ele><time>2026-04-26T16:28:46.384Z</time></trkpt><trkpt lat="33.1425933" lon="-8.1044683"><ele>44.0</ele><time>2026-04-26T16:28:47.384Z</time></trkpt><trkpt lat="33.1424867" lon="-8.1043633"><ele>44.0</ele><time>2026-04-26T16:28:48.384Z</time></trkpt><trkpt lat="33.142385" lon="-8.104255"><ele>44.5</ele><time>2026-04-26T16:28:49.384Z</time></trkpt><trkpt lat="33.14228" lon="-8.1041483"><ele>45.0</ele><time>2026-04-26T16:28:50.384Z</time></trkpt><trkpt lat="33.14218" lon="-8.1040417"><ele>45.5</ele><time>2026-04-26T16:28:51.384Z</time></trkpt><trkpt lat="33.14208" lon="-8.1039367"><ele>46.0</ele><time>2026-04-26T16:28:52.384Z</time></trkpt><trkpt lat="33.141975" lon="-8.103825"><ele>46.0</ele><time>2026-04-26T16:28:53.384Z</time></trkpt><trkpt lat="33.1418783" lon="-8.1037133"><ele>46.0</ele><time>2026-04-26T16:28:54.384Z</time></trkpt><trkpt lat="33.14177" lon="-8.1036033"><ele>46.0</ele><time>2026-04-26T16:28:55.384Z</time></trkpt><trkpt lat="33.1416633" lon="-8.1034933"><ele>46.0</ele><time>2026-04-26T16:28:56.384Z</time></trkpt><trkpt lat="33.1415533" lon="-8.10338"><ele>45.75</ele><time>2026-04-26T16:28:57.384Z</time></trkpt><trkpt lat="33.1414417" lon="-8.1032667"><ele>45.5</ele><time>2026-04-26T16:28:58.384Z</time></trkpt><trkpt lat="33.1413367" lon="-8.1031533"><ele>45.25</ele><time>2026-04-26T16:28:59.384Z</time></trkpt><trkpt lat="33.1412233" lon="-8.10304"><ele>45.0</ele><time>2026-04-26T16:29:00.384Z</time></trkpt><trkpt lat="33.1411083" lon="-8.1029333"><ele>45.0</ele><time>2026-04-26T16:29:01.384Z</time></trkpt><trkpt lat="33.1409883" lon="-8.1028267"><ele>45.0</ele><time>2026-04-26T16:29:02.384Z</time></trkpt><trkpt lat="33.1408667" lon="-8.10272"><ele>45.0</ele><time>2026-04-26T16:29:03.384Z</time></trkpt><trkpt lat="33.1407417" lon="-8.1026083"><ele>43.666666666666664</ele><time>2026-04-26T16:29:04.384Z</time></trkpt><trkpt lat="33.14061" lon="-8.1024983"><ele>42.33333333333333</ele><time>2026-04-26T16:29:05.384Z</time></trkpt><trkpt lat="33.1404767" lon="-8.1023883"><ele>41.0</ele><time>2026-04-26T16:29:06.384Z</time></trkpt><trkpt lat="33.1403483" lon="-8.1022767"><ele>44.33333333333333</ele><time>2026-04-26T16:29:07.384Z</time></trkpt><trkpt lat="33.14021" lon="-8.1021633"><ele>47.666666666666664</ele><time>2026-04-26T16:29:08.384Z</time></trkpt><trkpt lat="33.1400783" lon="-8.1020567"><ele>51.0</ele><time>2026-04-26T16:29:09.384Z</time></trkpt><trkpt lat="33.1399533" lon="-8.101955"><ele>51.75</ele><time>2026-04-26T16:29:10.384Z</time></trkpt><trkpt lat="33.1398333" lon="-8.1018533"><ele>52.5</ele><time>2026-04-26T16:29:11.384Z</time></trkpt><trkpt lat="33.1397133" lon="-8.1017533"><ele>53.25</ele><time>2026-04-26T16:29:12.384Z</time></trkpt><trkpt lat="33.1395967" lon="-8.1016517"><ele>54.0</ele><time>2026-04-26T16:29:13.384Z</time></trkpt><trkpt lat="33.1394817" lon="-8.1015583"><ele>54.0</ele><time>2026-04-26T16:29:14.384Z</time></trkpt><trkpt lat="33.13938" lon="-8.1014667"><ele>54.0</ele><time>2026-04-26T16:29:15.384Z</time></trkpt><trkpt lat="33.1392767" lon="-8.101375"><ele>54.0</ele><time>2026-04-26T16:29:16.384Z</time></trkpt><trkpt lat="33.1391767" lon="-8.1012833"><ele>54.0</ele><time>2026-04-26T16:29:17.384Z</time></trkpt><trkpt lat="33.1390683" lon="-8.101195"><ele>52.75</ele><time>2026-04-26T16:29:18.384Z</time></trkpt><trkpt lat="33.13896" lon="-8.10111"><ele>51.5</ele><time>2026-04-26T16:29:19.384Z</time></trkpt><trkpt lat="33.1388517" lon="-8.1010217"><ele>50.25</ele><time>2026-04-26T16:29:20.384Z</time></trkpt><trkpt lat="33.1387433" lon="-8.1009317"><ele>49.0</ele><time>2026-04-26T16:29:21.385Z</time></trkpt><trkpt lat="33.1386333" lon="-8.10084"><ele>49.0</ele><time>2026-04-26T16:29:22.384Z</time></trkpt><trkpt lat="33.13853" lon="-8.1007517"><ele>49.0</ele><time>2026-04-26T16:29:23.384Z</time></trkpt><trkpt lat="33.138425" lon="-8.1006667"><ele>49.0</ele><time>2026-04-26T16:29:24.384Z</time></trkpt><trkpt lat="33.1383283" lon="-8.1005767"><ele>49.0</ele><time>2026-04-26T16:29:25.384Z</time></trkpt><trkpt lat="33.138225" lon="-8.1004833"><ele>49.0</ele><time>2026-04-26T16:29:26.384Z</time></trkpt><trkpt lat="33.138125" lon="-8.1003817"><ele>49.0</ele><time>2026-04-26T16:29:27.384Z</time></trkpt><trkpt lat="33.138035" lon="-8.1002667"><ele>49.0</ele><time>2026-04-26T16:29:28.384Z</time></trkpt><trkpt lat="33.137955" lon="-8.1001333"><ele>49.0</ele><time>2026-04-26T16:29:29.384Z</time></trkpt><trkpt lat="33.137885" lon="-8.0999783"><ele>50.25</ele><time>2026-04-26T16:29:30.385Z</time></trkpt><trkpt lat="33.1378317" lon="-8.0998267"><ele>51.5</ele><time>2026-04-26T16:29:31.384Z</time></trkpt><trkpt lat="33.1377983" lon="-8.09967"><ele>52.75</ele><time>2026-04-26T16:29:32.383Z</time></trkpt><trkpt lat="33.1377717" lon="-8.09952"><ele>54.0</ele><time>2026-04-26T16:29:33.383Z</time></trkpt><trkpt lat="33.1377467" lon="-8.09937"><ele>54.0</ele><time>2026-04-26T16:29:34.383Z</time></trkpt><trkpt lat="33.1377267" lon="-8.0992167"><ele>54.0</ele><time>2026-04-26T16:29:35.383Z</time></trkpt><trkpt lat="33.1377083" lon="-8.099065"><ele>54.0</ele><time>2026-04-26T16:29:36.383Z</time></trkpt><trkpt lat="33.137695" lon="-8.0989167"><ele>54.0</ele><time>2026-04-26T16:29:37.383Z</time></trkpt><trkpt lat="33.137685" lon="-8.0987583"><ele>54.25</ele><time>2026-04-26T16:29:38.383Z</time></trkpt><trkpt lat="33.1376867" lon="-8.0985983"><ele>54.5</ele><time>2026-04-26T16:29:39.384Z</time></trkpt><trkpt lat="33.1377017" lon="-8.0984417"><ele>54.75</ele><time>2026-04-26T16:29:40.383Z</time></trkpt><trkpt lat="33.1377217" lon="-8.0982867"><ele>55.0</ele><time>2026-04-26T16:29:41.383Z</time></trkpt><trkpt lat="33.1377483" lon="-8.0981383"><ele>56.5</ele><time>2026-04-26T16:29:42.383Z</time></trkpt><trkpt lat="33.1377767" lon="-8.0979883"><ele>58.0</ele><time>2026-04-26T16:29:43.383Z</time></trkpt><trkpt lat="33.1378033" lon="-8.0978367"><ele>59.5</ele><time>2026-04-26T16:29:44.383Z</time></trkpt><trkpt lat="33.1378333" lon="-8.0976833"><ele>61.0</ele><time>2026-04-26T16:29:45.383Z</time></trkpt><trkpt lat="33.1378683" lon="-8.0975283"><ele>62.75</ele><time>2026-04-26T16:29:46.383Z</time></trkpt><trkpt lat="33.1379017" lon="-8.0973767"><ele>64.5</ele><time>2026-04-26T16:29:47.383Z</time></trkpt><trkpt lat="33.1379367" lon="-8.0972233"><ele>66.25</ele><time>2026-04-26T16:29:48.383Z</time></trkpt><trkpt lat="33.13797" lon="-8.0970683"><ele>68.0</ele><time>2026-04-26T16:29:49.383Z</time></trkpt><trkpt lat="33.1380117" lon="-8.0969133"><ele>68.0</ele><time>2026-04-26T16:29:50.383Z</time></trkpt><trkpt lat="33.1380533" lon="-8.0967517"><ele>68.0</ele><time>2026-04-26T16:29:51.383Z</time></trkpt><trkpt lat="33.1381" lon="-8.0965883"><ele>68.0</ele><time>2026-04-26T16:29:52.383Z</time></trkpt><trkpt lat="33.1381533" lon="-8.096415"><ele>68.0</ele><time>2026-04-26T16:29:53.383Z</time></trkpt><trkpt lat="33.1382083" lon="-8.0962367"><ele>69.33333333333334</ele><time>2026-04-26T16:29:54.383Z</time></trkpt><trkpt lat="33.1382667" lon="-8.0960483"><ele>70.66666666666667</ele><time>2026-04-26T16:29:55.383Z</time></trkpt><trkpt lat="33.138335" lon="-8.09586"><ele>72.0</ele><time>2026-04-26T16:29:56.383Z</time></trkpt><trkpt lat="33.13841" lon="-8.095665"><ele>74.0</ele><time>2026-04-26T16:29:57.383Z</time></trkpt><trkpt lat="33.1385" lon="-8.095475"><ele>76.0</ele><time>2026-04-26T16:29:58.383Z</time></trkpt><trkpt lat="33.1385867" lon="-8.0953117"><ele>78.0</ele><time>2026-04-26T16:29:59.383Z</time></trkpt><trkpt lat="33.1386783" lon="-8.0951633"><ele>78.0</ele><time>2026-04-26T16:30:00.384Z</time></trkpt><trkpt lat="33.138775" lon="-8.095015"><ele>78.0</ele><time>2026-04-26T16:30:01.383Z</time></trkpt><trkpt lat="33.1388733" lon="-8.09486"><ele>78.0</ele><time>2026-04-26T16:30:02.383Z</time></trkpt><trkpt lat="33.1389667" lon="-8.0946967"><ele>78.33333333333333</ele><time>2026-04-26T16:30:03.383Z</time></trkpt><trkpt lat="33.1390667" lon="-8.0945283"><ele>78.66666666666666</ele><time>2026-04-26T16:30:04.384Z</time></trkpt><trkpt lat="33.13917" lon="-8.09435"><ele>79.0</ele><time>2026-04-26T16:30:05.383Z</time></trkpt><trkpt lat="33.1392667" lon="-8.0941717"><ele>82.0</ele><time>2026-04-26T16:30:06.383Z</time></trkpt><trkpt lat="33.1393733" lon="-8.09399"><ele>85.0</ele><time>2026-04-26T16:30:07.383Z</time></trkpt><trkpt lat="33.1394783" lon="-8.093805"><ele>88.0</ele><time>2026-04-26T16:30:08.383Z</time></trkpt><trkpt lat="33.1395767" lon="-8.0936233"><ele>88.0</ele><time>2026-04-26T16:30:09.383Z</time></trkpt><trkpt lat="33.1396817" lon="-8.0934433"><ele>88.0</ele><time>2026-04-26T16:30:10.383Z</time></trkpt><trkpt lat="33.1397933" lon="-8.0932683"><ele>88.0</ele><time>2026-04-26T16:30:11.383Z</time></trkpt><trkpt lat="33.13991" lon="-8.0931"><ele>86.33333333333333</ele><time>2026-04-26T16:30:12.383Z</time></trkpt><trkpt lat="33.1400383" lon="-8.09294"><ele>84.66666666666667</ele><time>2026-04-26T16:30:13.383Z</time></trkpt><trkpt lat="33.1401667" lon="-8.0927817"><ele>83.0</ele><time>2026-04-26T16:30:14.383Z</time></trkpt><trkpt lat="33.1403067" lon="-8.0926317"><ele>83.0</ele><time>2026-04-26T16:30:15.383Z</time></trkpt><trkpt lat="33.14045" lon="-8.0924817"><ele>83.0</ele><time>2026-04-26T16:30:16.383Z</time></trkpt><trkpt lat="33.140595" lon="-8.0923383"><ele>83.0</ele><time>2026-04-26T16:30:17.383Z</time></trkpt><trkpt lat="33.1407467" lon="-8.0922"><ele>84.33333333333334</ele><time>2026-04-26T16:30:18.383Z</time></trkpt><trkpt lat="33.1409017" lon="-8.09208"><ele>85.66666666666667</ele><time>2026-04-26T16:30:19.383Z</time></trkpt><trkpt lat="33.14106" lon="-8.09197"><ele>87.0</ele><time>2026-04-26T16:30:20.383Z</time></trkpt><trkpt lat="33.14121" lon="-8.0918683"><ele>87.0</ele><time>2026-04-26T16:30:21.383Z</time></trkpt><trkpt lat="33.1413533" lon="-8.0917617"><ele>87.0</ele><time>2026-04-26T16:30:22.383Z</time></trkpt><trkpt lat="33.1414767" lon="-8.0916317"><ele>87.0</ele><time>2026-04-26T16:30:23.383Z</time></trkpt><trkpt lat="33.1415817" lon="-8.0914767"><ele>87.33333333333333</ele><time>2026-04-26T16:30:24.383Z</time></trkpt><trkpt lat="33.1416667" lon="-8.0913017"><ele>87.66666666666666</ele><time>2026-04-26T16:30:25.383Z</time></trkpt><trkpt lat="33.1417417" lon="-8.0911183"><ele>88.0</ele><time>2026-04-26T16:30:26.383Z</time></trkpt><trkpt lat="33.141825" lon="-8.090925"><ele>90.0</ele><time>2026-04-26T16:30:27.383Z</time></trkpt><trkpt lat="33.1419283" lon="-8.0907333"><ele>92.0</ele><time>2026-04-26T16:30:28.383Z</time></trkpt><trkpt lat="33.1420367" lon="-8.0905633"><ele>94.0</ele><time>2026-04-26T16:30:29.383Z</time></trkpt><trkpt lat="33.1421633" lon="-8.09043"><ele>94.0</ele><time>2026-04-26T16:30:30.383Z</time></trkpt><trkpt lat="33.14231" lon="-8.09033"><ele>94.0</ele><time>2026-04-26T16:30:31.383Z</time></trkpt><trkpt lat="33.1424667" lon="-8.0902317"><ele>94.0</ele><time>2026-04-26T16:30:32.383Z</time></trkpt><trkpt lat="33.142625" lon="-8.0901367"><ele>94.0</ele><time>2026-04-26T16:30:33.383Z</time></trkpt><trkpt lat="33.142785" lon="-8.0900417"><ele>94.0</ele><time>2026-04-26T16:30:34.383Z</time></trkpt><trkpt lat="33.1429517" lon="-8.0899417"><ele>94.0</ele><time>2026-04-26T16:30:35.383Z</time></trkpt><trkpt lat="33.14312" lon="-8.0898417"><ele>97.0</ele><time>2026-04-26T16:30:36.383Z</time></trkpt><trkpt lat="33.1432883" lon="-8.08974"><ele>100.0</ele><time>2026-04-26T16:30:37.383Z</time></trkpt><trkpt lat="33.1434583" lon="-8.0896383"><ele>103.0</ele><time>2026-04-26T16:30:38.383Z</time></trkpt><trkpt lat="33.14363" lon="-8.0895333"><ele>103.0</ele><time>2026-04-26T16:30:39.383Z</time></trkpt><trkpt lat="33.1438017" lon="-8.0894233"><ele>103.0</ele><time>2026-04-26T16:30:40.383Z</time></trkpt><trkpt lat="33.1439733" lon="-8.08931"><ele>103.0</ele><time>2026-04-26T16:30:41.383Z</time></trkpt><trkpt lat="33.144135" lon="-8.08916"><ele>103.0</ele><time>2026-04-26T16:30:42.383Z</time></trkpt><trkpt lat="33.1442767" lon="-8.0889983"><ele>103.0</ele><time>2026-04-26T16:30:43.383Z</time></trkpt><trkpt lat="33.1443917" lon="-8.0888417"><ele>103.0</ele><time>2026-04-26T16:30:44.383Z</time></trkpt><trkpt lat="33.1444783" lon="-8.0887017"><ele>103.0</ele><time>2026-04-26T16:30:45.383Z</time></trkpt><trkpt lat="33.1445283" lon="-8.0885633"><ele>103.0</ele><time>2026-04-26T16:30:46.383Z</time></trkpt><trkpt lat="33.144545" lon="-8.0884133"><ele>103.0</ele><time>2026-04-26T16:30:47.384Z</time></trkpt><trkpt lat="33.14452" lon="-8.0882567"><ele>103.0</ele><time>2026-04-26T16:30:48.383Z</time></trkpt><trkpt lat="33.14449" lon="-8.0880933"><ele>106.0</ele><time>2026-04-26T16:30:49.383Z</time></trkpt><trkpt lat="33.1444583" lon="-8.08792"><ele>109.0</ele><time>2026-04-26T16:30:50.384Z</time></trkpt><trkpt lat="33.1444317" lon="-8.0877567"><ele>112.0</ele><time>2026-04-26T16:30:51.383Z</time></trkpt><trkpt lat="33.1444167" lon="-8.0875917"><ele>115.0</ele><time>2026-04-26T16:30:52.383Z</time></trkpt><trkpt lat="33.1444233" lon="-8.087425"><ele>117.0</ele><time>2026-04-26T16:30:53.383Z</time></trkpt><trkpt lat="33.1444517" lon="-8.0872533"><ele>119.0</ele><time>2026-04-26T16:30:54.384Z</time></trkpt><trkpt lat="33.1445067" lon="-8.0870717"><ele>121.0</ele><time>2026-04-26T16:30:55.383Z</time></trkpt><trkpt lat="33.1445933" lon="-8.0869"><ele>121.0</ele><time>2026-04-26T16:30:56.383Z</time></trkpt><trkpt lat="33.1446867" lon="-8.0867283"><ele>121.0</ele><time>2026-04-26T16:30:57.383Z</time></trkpt><trkpt lat="33.1448" lon="-8.0865717"><ele>121.0</ele><time>2026-04-26T16:30:58.383Z</time></trkpt><trkpt lat="33.1449017" lon="-8.0864183"><ele>122.0</ele><time>2026-04-26T16:30:59.383Z</time></trkpt><trkpt lat="33.1449967" lon="-8.0862683"><ele>123.0</ele><time>2026-04-26T16:31:00.383Z</time></trkpt><trkpt lat="33.1450817" lon="-8.0861117"><ele>124.0</ele><time>2026-04-26T16:31:01.383Z</time></trkpt><trkpt lat="33.1451367" lon="-8.08595"><ele>125.33333333333334</ele><time>2026-04-26T16:31:02.383Z</time></trkpt><trkpt lat="33.1451617" lon="-8.08576"><ele>126.66666666666666</ele><time>2026-04-26T16:31:03.383Z</time></trkpt><trkpt lat="33.1451617" lon="-8.0855767"><ele>128.0</ele><time>2026-04-26T16:31:04.383Z</time></trkpt><trkpt lat="33.145135" lon="-8.0853933"><ele>128.0</ele><time>2026-04-26T16:31:05.383Z</time></trkpt><trkpt lat="33.1451233" lon="-8.085215"><ele>128.0</ele><time>2026-04-26T16:31:06.383Z</time></trkpt><trkpt lat="33.1451383" lon="-8.08505"><ele>128.0</ele><time>2026-04-26T16:31:07.383Z</time></trkpt><trkpt lat="33.14516" lon="-8.0848783"><ele>128.0</ele><time>2026-04-26T16:31:08.383Z</time></trkpt><trkpt lat="33.1451817" lon="-8.0846967"><ele>129.66666666666666</ele><time>2026-04-26T16:31:09.383Z</time></trkpt><trkpt lat="33.1451717" lon="-8.0844983"><ele>131.33333333333334</ele><time>2026-04-26T16:31:10.384Z</time></trkpt><trkpt lat="33.1451333" lon="-8.0843083"><ele>133.0</ele><time>2026-04-26T16:31:11.383Z</time></trkpt><trkpt lat="33.145065" lon="-8.0841367"><ele>136.33333333333334</ele><time>2026-04-26T16:31:12.383Z</time></trkpt><trkpt lat="33.1449733" lon="-8.0839833"><ele>139.66666666666666</ele><time>2026-04-26T16:31:13.383Z</time></trkpt><trkpt lat="33.1448583" lon="-8.0838533"><ele>143.0</ele><time>2026-04-26T16:31:14.383Z</time></trkpt><trkpt lat="33.1447333" lon="-8.08374"><ele>143.0</ele><time>2026-04-26T16:31:15.384Z</time></trkpt><trkpt lat="33.1446117" lon="-8.0836433"><ele>143.0</ele><time>2026-04-26T16:31:16.383Z</time></trkpt><trkpt lat="33.1444833" lon="-8.0835467"><ele>143.0</ele><time>2026-04-26T16:31:17.383Z</time></trkpt><trkpt lat="33.1443483" lon="-8.0834383"><ele>143.0</ele><time>2026-04-26T16:31:18.383Z</time></trkpt><trkpt lat="33.1442117" lon="-8.0833133"><ele>143.0</ele><time>2026-04-26T16:31:19.383Z</time></trkpt><trkpt lat="33.1440933" lon="-8.083165"><ele>143.0</ele><time>2026-04-26T16:31:20.383Z</time></trkpt><trkpt lat="33.14398" lon="-8.083"><ele>145.33333333333331</ele><time>2026-04-26T16:31:21.383Z</time></trkpt><trkpt lat="33.1438617" lon="-8.0828233"><ele>147.66666666666666</ele><time>2026-04-26T16:31:22.383Z</time></trkpt><trkpt lat="33.14375" lon="-8.0826367"><ele>150.0</ele><time>2026-04-26T16:31:23.383Z</time></trkpt><trkpt lat="33.14367" lon="-8.082445"><ele>150.66666666666666</ele><time>2026-04-26T16:31:24.383Z</time></trkpt><trkpt lat="33.1436117" lon="-8.08225"><ele>151.33333333333331</ele><time>2026-04-26T16:31:25.383Z</time></trkpt><trkpt lat="33.1435883" lon="-8.0820567"><ele>152.0</ele><time>2026-04-26T16:31:26.383Z</time></trkpt><trkpt lat="33.143585" lon="-8.0818467"><ele>152.0</ele><time>2026-04-26T16:31:27.384Z</time></trkpt><trkpt lat="33.1435833" lon="-8.08163"><ele>152.0</ele><time>2026-04-26T16:31:28.383Z</time></trkpt><trkpt lat="33.143585" lon="-8.0814067"><ele>152.0</ele><time>2026-04-26T16:31:29.383Z</time></trkpt><trkpt lat="33.1435933" lon="-8.0811733"><ele>154.0</ele><time>2026-04-26T16:31:30.384Z</time></trkpt><trkpt lat="33.143615" lon="-8.0809383"><ele>156.0</ele><time>2026-04-26T16:31:31.384Z</time></trkpt><trkpt lat="33.14365" lon="-8.0807017"><ele>158.0</ele><time>2026-04-26T16:31:32.383Z</time></trkpt><trkpt lat="33.1437" lon="-8.080465"><ele>161.0</ele><time>2026-04-26T16:31:33.383Z</time></trkpt><trkpt lat="33.1437533" lon="-8.0802167"><ele>164.0</ele><time>2026-04-26T16:31:34.383Z</time></trkpt><trkpt lat="33.1438083" lon="-8.079965"><ele>167.0</ele><time>2026-04-26T16:31:35.383Z</time></trkpt><trkpt lat="33.1438517" lon="-8.0797133"><ele>168.66666666666666</ele><time>2026-04-26T16:31:36.383Z</time></trkpt><trkpt lat="33.1438883" lon="-8.0794717"><ele>170.33333333333334</ele><time>2026-04-26T16:31:37.384Z</time></trkpt><trkpt lat="33.1439067" lon="-8.0792417"><ele>172.0</ele><time>2026-04-26T16:31:38.383Z</time></trkpt><trkpt lat="33.1439033" lon="-8.07901"><ele>173.0</ele><time>2026-04-26T16:31:39.383Z</time></trkpt><trkpt lat="33.1438783" lon="-8.078775"><ele>174.0</ele><time>2026-04-26T16:31:40.383Z</time></trkpt><trkpt lat="33.1438417" lon="-8.078535"><ele>175.0</ele><time>2026-04-26T16:31:41.383Z</time></trkpt><trkpt lat="33.143795" lon="-8.0782883"><ele>176.0</ele><time>2026-04-26T16:31:42.383Z</time></trkpt><trkpt lat="33.143755" lon="-8.0780533"><ele>177.0</ele><time>2026-04-26T16:31:43.383Z</time></trkpt><trkpt lat="33.14372" lon="-8.077835"><ele>178.0</ele><time>2026-04-26T16:31:44.383Z</time></trkpt><trkpt lat="33.1436867" lon="-8.0776283"><ele>178.0</ele><time>2026-04-26T16:31:45.383Z</time></trkpt><trkpt lat="33.1436567" lon="-8.0774183"><ele>178.0</ele><time>2026-04-26T16:31:46.383Z</time></trkpt><trkpt lat="33.1436267" lon="-8.0772"><ele>178.0</ele><time>2026-04-26T16:31:47.383Z</time></trkpt><trkpt lat="33.143595" lon="-8.0769867"><ele>178.0</ele><time>2026-04-26T16:31:48.383Z</time></trkpt><trkpt lat="33.1435617" lon="-8.0767867"><ele>178.0</ele><time>2026-04-26T16:31:49.383Z</time></trkpt><trkpt lat="33.1435333" lon="-8.0765933"><ele>178.0</ele><time>2026-04-26T16:31:50.383Z</time></trkpt><trkpt lat="33.1435033" lon="-8.0764017"><ele>179.33333333333334</ele><time>2026-04-26T16:31:51.383Z</time></trkpt><trkpt lat="33.1434733" lon="-8.0762033"><ele>180.66666666666666</ele><time>2026-04-26T16:31:52.383Z</time></trkpt><trkpt lat="33.1434383" lon="-8.0759967"><ele>182.0</ele><time>2026-04-26T16:31:53.383Z</time></trkpt><trkpt lat="33.1434067" lon="-8.0757817"><ele>182.0</ele><time>2026-04-26T16:31:54.383Z</time></trkpt><trkpt lat="33.1433733" lon="-8.0755633"><ele>182.0</ele><time>2026-04-26T16:31:55.383Z</time></trkpt><trkpt lat="33.1433383" lon="-8.0753383"><ele>182.0</ele><time>2026-04-26T16:31:56.383Z</time></trkpt><trkpt lat="33.143305" lon="-8.0751083"><ele>182.66666666666666</ele><time>2026-04-26T16:31:57.383Z</time></trkpt><trkpt lat="33.1432667" lon="-8.074875"><ele>183.33333333333334</ele><time>2026-04-26T16:31:58.383Z</time></trkpt><trkpt lat="33.1432333" lon="-8.074635"><ele>184.0</ele><time>2026-04-26T16:31:59.383Z</time></trkpt><trkpt lat="33.1431983" lon="-8.0743917"><ele>186.0</ele><time>2026-04-26T16:32:00.383Z</time></trkpt><trkpt lat="33.143165" lon="-8.0741567"><ele>188.0</ele><time>2026-04-26T16:32:01.383Z</time></trkpt><trkpt lat="33.1431417" lon="-8.0739317"><ele>190.0</ele><time>2026-04-26T16:32:02.383Z</time></trkpt><trkpt lat="33.1431233" lon="-8.0737233"><ele>190.0</ele><time>2026-04-26T16:32:03.383Z</time></trkpt><trkpt lat="33.1431133" lon="-8.0735183"><ele>190.0</ele><time>2026-04-26T16:32:04.383Z</time></trkpt><trkpt lat="33.1431083" lon="-8.0733117"><ele>190.0</ele><time>2026-04-26T16:32:05.383Z</time></trkpt><trkpt lat="33.1431017" lon="-8.0731183"><ele>190.0</ele><time>2026-04-26T16:32:06.383Z</time></trkpt><trkpt lat="33.1430967" lon="-8.072935"><ele>190.0</ele><time>2026-04-26T16:32:07.383Z</time></trkpt><trkpt lat="33.14309" lon="-8.0727483"><ele>190.0</ele><time>2026-04-26T16:32:08.383Z</time></trkpt><trkpt lat="33.1430867" lon="-8.07257"><ele>190.25</ele><time>2026-04-26T16:32:09.383Z</time></trkpt><trkpt lat="33.1430817" lon="-8.0723883"><ele>190.5</ele><time>2026-04-26T16:32:10.383Z</time></trkpt><trkpt lat="33.1430767" lon="-8.07222"><ele>190.75</ele><time>2026-04-26T16:32:11.383Z</time></trkpt><trkpt lat="33.14307" lon="-8.0720583"><ele>191.0</ele><time>2026-04-26T16:32:12.383Z</time></trkpt><trkpt lat="33.143065" lon="-8.0719067"><ele>191.0</ele><time>2026-04-26T16:32:13.383Z</time></trkpt><trkpt lat="33.1430617" lon="-8.0717583"><ele>191.0</ele><time>2026-04-26T16:32:14.383Z</time></trkpt><trkpt lat="33.1430583" lon="-8.0716233"><ele>191.0</ele><time>2026-04-26T16:32:15.383Z</time></trkpt><trkpt lat="33.1430517" lon="-8.0715117"><ele>191.0</ele><time>2026-04-26T16:32:16.383Z</time></trkpt><trkpt lat="33.143045" lon="-8.071415"><ele>191.0</ele><time>2026-04-26T16:32:17.383Z</time></trkpt><trkpt lat="33.1430417" lon="-8.071325"><ele>191.16666666666666</ele><time>2026-04-26T16:32:18.383Z</time></trkpt><trkpt lat="33.14304" lon="-8.0712433"><ele>191.33333333333331</ele><time>2026-04-26T16:32:19.383Z</time></trkpt><trkpt lat="33.1430583" lon="-8.0711267"><ele>191.5</ele><time>2026-04-26T16:32:21.383Z</time></trkpt><trkpt lat="33.1431283" lon="-8.0710417"><ele>191.66666666666666</ele><time>2026-04-26T16:32:23.383Z</time></trkpt><trkpt lat="33.14319" lon="-8.0710167"><ele>191.83333333333334</ele><time>2026-04-26T16:32:24.383Z</time></trkpt><trkpt lat="33.14326" lon="-8.0709917"><ele>192.0</ele><time>2026-04-26T16:32:25.383Z</time></trkpt><trkpt lat="33.1433483" lon="-8.0709533"><ele>191.25</ele><time>2026-04-26T16:32:26.383Z</time></trkpt><trkpt lat="33.1434567" lon="-8.0709033"><ele>190.5</ele><time>2026-04-26T16:32:27.383Z</time></trkpt><trkpt lat="33.1435733" lon="-8.0708583"><ele>189.75</ele><time>2026-04-26T16:32:28.383Z</time></trkpt><trkpt lat="33.1436983" lon="-8.0708067"><ele>189.0</ele><time>2026-04-26T16:32:29.383Z</time></trkpt><trkpt lat="33.14383" lon="-8.0707483"><ele>189.0</ele><time>2026-04-26T16:32:30.383Z</time></trkpt><trkpt lat="33.1439633" lon="-8.0706983"><ele>189.0</ele><time>2026-04-26T16:32:31.383Z</time></trkpt><trkpt lat="33.1441033" lon="-8.0706567"><ele>189.0</ele><time>2026-04-26T16:32:32.383Z</time></trkpt><trkpt lat="33.1442367" lon="-8.07062"><ele>189.0</ele><time>2026-04-26T16:32:33.383Z</time></trkpt><trkpt lat="33.14437" lon="-8.070585"><ele>188.5</ele><time>2026-04-26T16:32:34.383Z</time></trkpt><trkpt lat="33.1445033" lon="-8.07056"><ele>188.0</ele><time>2026-04-26T16:32:35.383Z</time></trkpt><trkpt lat="33.1446417" lon="-8.0705383"><ele>187.5</ele><time>2026-04-26T16:32:36.383Z</time></trkpt><trkpt lat="33.14478" lon="-8.07052"><ele>187.0</ele><time>2026-04-26T16:32:37.384Z</time></trkpt><trkpt lat="33.144915" lon="-8.0705067"><ele>188.0</ele><time>2026-04-26T16:32:38.383Z</time></trkpt><trkpt lat="33.145045" lon="-8.070495"><ele>189.0</ele><time>2026-04-26T16:32:39.383Z</time></trkpt><trkpt lat="33.1451767" lon="-8.0704883"><ele>190.0</ele><time>2026-04-26T16:32:40.383Z</time></trkpt><trkpt lat="33.1453183" lon="-8.0704867"><ele>191.0</ele><time>2026-04-26T16:32:41.383Z</time></trkpt><trkpt lat="33.1454633" lon="-8.0704917"><ele>191.0</ele><time>2026-04-26T16:32:42.383Z</time></trkpt><trkpt lat="33.1456083" lon="-8.0705"><ele>191.0</ele><time>2026-04-26T16:32:43.383Z</time></trkpt><trkpt lat="33.1457467" lon="-8.0705183"><ele>191.0</ele><time>2026-04-26T16:32:44.383Z</time></trkpt><trkpt lat="33.1458783" lon="-8.0705433"><ele>191.0</ele><time>2026-04-26T16:32:45.383Z</time></trkpt><trkpt lat="33.1460083" lon="-8.0705717"><ele>190.25</ele><time>2026-04-26T16:32:46.383Z</time></trkpt><trkpt lat="33.146135" lon="-8.0706067"><ele>189.5</ele><time>2026-04-26T16:32:47.383Z</time></trkpt><trkpt lat="33.1462617" lon="-8.070645"><ele>188.75</ele><time>2026-04-26T16:32:48.383Z</time></trkpt><trkpt lat="33.1463933" lon="-8.0706883"><ele>188.0</ele><time>2026-04-26T16:32:49.383Z</time></trkpt><trkpt lat="33.1465333" lon="-8.070725"><ele>188.5</ele><time>2026-04-26T16:32:50.383Z</time></trkpt><trkpt lat="33.14667" lon="-8.0707617"><ele>189.0</ele><time>2026-04-26T16:32:51.383Z</time></trkpt><trkpt lat="33.146815" lon="-8.0707983"><ele>189.5</ele><time>2026-04-26T16:32:52.383Z</time></trkpt><trkpt lat="33.146955" lon="-8.0708383"><ele>190.0</ele><time>2026-04-26T16:32:53.383Z</time></trkpt><trkpt lat="33.1470917" lon="-8.0708783"><ele>190.0</ele><time>2026-04-26T16:32:54.383Z</time></trkpt><trkpt lat="33.1472267" lon="-8.0709233"><ele>190.0</ele><time>2026-04-26T16:32:55.383Z</time></trkpt><trkpt lat="33.1473667" lon="-8.0709617"><ele>190.0</ele><time>2026-04-26T16:32:56.383Z</time></trkpt><trkpt lat="33.1475117" lon="-8.0710117"><ele>190.0</ele><time>2026-04-26T16:32:57.383Z</time></trkpt><trkpt lat="33.1476617" lon="-8.071055"><ele>189.33333333333334</ele><time>2026-04-26T16:32:58.383Z</time></trkpt><trkpt lat="33.14782" lon="-8.0711"><ele>188.66666666666666</ele><time>2026-04-26T16:32:59.383Z</time></trkpt><trkpt lat="33.1479717" lon="-8.0711433"><ele>188.0</ele><time>2026-04-26T16:33:00.383Z</time></trkpt><trkpt lat="33.1481133" lon="-8.071185"><ele>188.0</ele><time>2026-04-26T16:33:01.383Z</time></trkpt><trkpt lat="33.1482567" lon="-8.0712267"><ele>188.0</ele><time>2026-04-26T16:33:02.383Z</time></trkpt><trkpt lat="33.1484017" lon="-8.071265"><ele>188.0</ele><time>2026-04-26T16:33:03.383Z</time></trkpt><trkpt lat="33.14855" lon="-8.0713067"><ele>188.0</ele><time>2026-04-26T16:33:04.383Z</time></trkpt><trkpt lat="33.1486967" lon="-8.071345"><ele>188.0</ele><time>2026-04-26T16:33:05.383Z</time></trkpt><trkpt lat="33.1488467" lon="-8.07139"><ele>188.0</ele><time>2026-04-26T16:33:06.383Z</time></trkpt><trkpt lat="33.1489967" lon="-8.071435"><ele>188.0</ele><time>2026-04-26T16:33:07.383Z</time></trkpt><trkpt lat="33.1491517" lon="-8.0714783"><ele>188.0</ele><time>2026-04-26T16:33:08.383Z</time></trkpt><trkpt lat="33.1493083" lon="-8.0715283"><ele>188.0</ele><time>2026-04-26T16:33:09.383Z</time></trkpt><trkpt lat="33.1494683" lon="-8.0715767"><ele>188.0</ele><time>2026-04-26T16:33:10.383Z</time></trkpt><trkpt lat="33.1496317" lon="-8.0716217"><ele>188.0</ele><time>2026-04-26T16:33:11.383Z</time></trkpt><trkpt lat="33.1497917" lon="-8.0716667"><ele>188.0</ele><time>2026-04-26T16:33:12.383Z</time></trkpt><trkpt lat="33.1499583" lon="-8.0717133"><ele>188.0</ele><time>2026-04-26T16:33:13.383Z</time></trkpt><trkpt lat="33.1501233" lon="-8.071755"><ele>188.0</ele><time>2026-04-26T16:33:14.383Z</time></trkpt><trkpt lat="33.1502833" lon="-8.0718017"><ele>188.0</ele><time>2026-04-26T16:33:15.383Z</time></trkpt><trkpt lat="33.1504483" lon="-8.0718533"><ele>188.0</ele><time>2026-04-26T16:33:16.383Z</time></trkpt><trkpt lat="33.1506117" lon="-8.071905"><ele>187.33333333333331</ele><time>2026-04-26T16:33:17.383Z</time></trkpt><trkpt lat="33.1507717" lon="-8.07195"><ele>186.66666666666666</ele><time>2026-04-26T16:33:18.383Z</time></trkpt><trkpt lat="33.150935" lon="-8.071995"><ele>186.0</ele><time>2026-04-26T16:33:19.383Z</time></trkpt><trkpt lat="33.1510933" lon="-8.0720383"><ele>186.0</ele><time>2026-04-26T16:33:20.383Z</time></trkpt><trkpt lat="33.151245" lon="-8.072085"><ele>186.0</ele><time>2026-04-26T16:33:21.383Z</time></trkpt><trkpt lat="33.1513833" lon="-8.0721317"><ele>186.0</ele><time>2026-04-26T16:33:22.383Z</time></trkpt><trkpt lat="33.1515317" lon="-8.07217"><ele>185.25</ele><time>2026-04-26T16:33:23.383Z</time></trkpt><trkpt lat="33.1516783" lon="-8.0722117"><ele>184.5</ele><time>2026-04-26T16:33:24.383Z</time></trkpt><trkpt lat="33.15182" lon="-8.072255"><ele>183.75</ele><time>2026-04-26T16:33:25.383Z</time></trkpt><trkpt lat="33.1519583" lon="-8.07229"><ele>183.0</ele><time>2026-04-26T16:33:26.383Z</time></trkpt><trkpt lat="33.152085" lon="-8.0723333"><ele>183.0</ele><time>2026-04-26T16:33:27.383Z</time></trkpt><trkpt lat="33.1522183" lon="-8.0723733"><ele>183.0</ele><time>2026-04-26T16:33:28.383Z</time></trkpt><trkpt lat="33.1523567" lon="-8.0724133"><ele>183.0</ele><time>2026-04-26T16:33:29.383Z</time></trkpt><trkpt lat="33.15249" lon="-8.0724533"><ele>183.0</ele><time>2026-04-26T16:33:30.383Z</time></trkpt><trkpt lat="33.1526283" lon="-8.0724867"><ele>183.5</ele><time>2026-04-26T16:33:31.383Z</time></trkpt><trkpt lat="33.1527617" lon="-8.0725217"><ele>184.0</ele><time>2026-04-26T16:33:32.383Z</time></trkpt><trkpt lat="33.152885" lon="-8.0725567"><ele>184.5</ele><time>2026-04-26T16:33:33.383Z</time></trkpt><trkpt lat="33.153005" lon="-8.07259"><ele>185.0</ele><time>2026-04-26T16:33:34.383Z</time></trkpt><trkpt lat="33.1531233" lon="-8.07262"><ele>185.2</ele><time>2026-04-26T16:33:35.383Z</time></trkpt><trkpt lat="33.1532333" lon="-8.0726533"><ele>185.4</ele><time>2026-04-26T16:33:36.383Z</time></trkpt><trkpt lat="33.1533417" lon="-8.072685"><ele>185.60000000000002</ele><time>2026-04-26T16:33:37.383Z</time></trkpt><trkpt lat="33.153445" lon="-8.072715"><ele>185.8</ele><time>2026-04-26T16:33:38.383Z</time></trkpt><trkpt lat="33.153545" lon="-8.0727433"><ele>186.0</ele><time>2026-04-26T16:33:39.383Z</time></trkpt><trkpt lat="33.1536417" lon="-8.0727767"><ele>186.0</ele><time>2026-04-26T16:33:40.383Z</time></trkpt><trkpt lat="33.153735" lon="-8.0728083"><ele>186.0</ele><time>2026-04-26T16:33:41.383Z</time></trkpt><trkpt lat="33.1538317" lon="-8.0728417"><ele>186.0</ele><time>2026-04-26T16:33:42.383Z</time></trkpt><trkpt lat="33.1539317" lon="-8.072875"><ele>186.0</ele><time>2026-04-26T16:33:43.383Z</time></trkpt><trkpt lat="33.1540367" lon="-8.0729183"><ele>186.0</ele><time>2026-04-26T16:33:44.383Z</time></trkpt><trkpt lat="33.1541483" lon="-8.0729583"><ele>185.25</ele><time>2026-04-26T16:33:45.383Z</time></trkpt><trkpt lat="33.1542567" lon="-8.07301"><ele>184.5</ele><time>2026-04-26T16:33:46.383Z</time></trkpt><trkpt lat="33.1543633" lon="-8.07306"><ele>183.75</ele><time>2026-04-26T16:33:47.383Z</time></trkpt><trkpt lat="33.1544717" lon="-8.0731117"><ele>183.0</ele><time>2026-04-26T16:33:48.383Z</time></trkpt><trkpt lat="33.1545867" lon="-8.0731717"><ele>183.0</ele><time>2026-04-26T16:33:49.383Z</time></trkpt><trkpt lat="33.15471" lon="-8.0732333"><ele>183.0</ele><time>2026-04-26T16:33:50.383Z</time></trkpt><trkpt lat="33.1548417" lon="-8.0732983"><ele>183.0</ele><time>2026-04-26T16:33:51.384Z</time></trkpt><trkpt lat="33.1549733" lon="-8.07337"><ele>183.0</ele><time>2026-04-26T16:33:52.383Z</time></trkpt><trkpt lat="33.1551033" lon="-8.0734467"><ele>182.5</ele><time>2026-04-26T16:33:53.383Z</time></trkpt><trkpt lat="33.1552317" lon="-8.07352"><ele>182.0</ele><time>2026-04-26T16:33:54.383Z</time></trkpt><trkpt lat="33.1553533" lon="-8.0735933"><ele>181.5</ele><time>2026-04-26T16:33:55.383Z</time></trkpt><trkpt lat="33.1554683" lon="-8.0736583"><ele>181.0</ele><time>2026-04-26T16:33:56.383Z</time></trkpt><trkpt lat="33.1555667" lon="-8.0737233"><ele>181.0</ele><time>2026-04-26T16:33:57.383Z</time></trkpt><trkpt lat="33.1556467" lon="-8.07378"><ele>181.0</ele><time>2026-04-26T16:33:58.384Z</time></trkpt><trkpt lat="33.155705" lon="-8.0738217"><ele>181.0</ele><time>2026-04-26T16:33:59.383Z</time></trkpt><trkpt lat="33.1558" lon="-8.0738967"><ele>181.0</ele><time>2026-04-26T16:34:01.383Z</time></trkpt><trkpt lat="33.1558833" lon="-8.073945"><ele>181.0</ele><time>2026-04-26T16:34:03.383Z</time></trkpt><trkpt lat="33.15597" lon="-8.0740033"><ele>181.16666666666669</ele><time>2026-04-26T16:34:05.383Z</time></trkpt><trkpt lat="33.1560483" lon="-8.0740567"><ele>181.33333333333334</ele><time>2026-04-26T16:34:07.383Z</time></trkpt><trkpt lat="33.1561167" lon="-8.0741117"><ele>181.5</ele><time>2026-04-26T16:34:09.383Z</time></trkpt><trkpt lat="33.1561833" lon="-8.0741683"><ele>181.66666666666666</ele><time>2026-04-26T16:34:11.383Z</time></trkpt><trkpt lat="33.156235" lon="-8.074215"><ele>181.83333333333331</ele><time>2026-04-26T16:34:13.384Z</time></trkpt><trkpt lat="33.1563017" lon="-8.0742767"><ele>182.0</ele><time>2026-04-26T16:34:16.384Z</time></trkpt><trkpt lat="33.156365" lon="-8.0743267"><ele>182.0</ele><time>2026-04-26T16:34:19.383Z</time></trkpt><trkpt lat="33.15632" lon="-8.0743867"><ele>182.0</ele><time>2026-04-26T16:34:23.383Z</time></trkpt><trkpt lat="33.15625" lon="-8.0743367"><ele>182.0</ele><time>2026-04-26T16:34:25.383Z</time></trkpt><trkpt lat="33.1561617" lon="-8.0742267"><ele>182.0</ele><time>2026-04-26T16:34:27.383Z</time></trkpt><trkpt lat="33.1560983" lon="-8.0741533"><ele>182.0</ele><time>2026-04-26T16:34:28.383Z</time></trkpt><trkpt lat="33.15602" lon="-8.07408"><ele>182.0</ele><time>2026-04-26T16:34:29.383Z</time></trkpt><trkpt lat="33.15594" lon="-8.0740167"><ele>182.0</ele><time>2026-04-26T16:34:30.383Z</time></trkpt><trkpt lat="33.15586" lon="-8.07396"><ele>182.0</ele><time>2026-04-26T16:34:31.383Z</time></trkpt><trkpt lat="33.15578" lon="-8.073895"><ele>182.0</ele><time>2026-04-26T16:34:32.383Z</time></trkpt><trkpt lat="33.155695" lon="-8.073825"><ele>182.0</ele><time>2026-04-26T16:34:33.383Z</time></trkpt><trkpt lat="33.1555967" lon="-8.0737583"><ele>181.75</ele><time>2026-04-26T16:34:34.384Z</time></trkpt><trkpt lat="33.1554983" lon="-8.0736933"><ele>181.5</ele><time>2026-04-26T16:34:35.383Z</time></trkpt><trkpt lat="33.1554" lon="-8.073625"><ele>181.25</ele><time>2026-04-26T16:34:36.383Z</time></trkpt><trkpt lat="33.15529" lon="-8.07356"><ele>181.0</ele><time>2026-04-26T16:34:37.383Z</time></trkpt><trkpt lat="33.1551717" lon="-8.0734967"><ele>181.0</ele><time>2026-04-26T16:34:38.383Z</time></trkpt><trkpt lat="33.155055" lon="-8.0734317"><ele>181.0</ele><time>2026-04-26T16:34:39.384Z</time></trkpt><trkpt lat="33.15494" lon="-8.073375"><ele>181.0</ele><time>2026-04-26T16:34:40.383Z</time></trkpt><trkpt lat="33.1548317" lon="-8.0733167"><ele>181.0</ele><time>2026-04-26T16:34:41.383Z</time></trkpt><trkpt lat="33.1547217" lon="-8.0732617"><ele>181.4</ele><time>2026-04-26T16:34:42.383Z</time></trkpt><trkpt lat="33.1546267" lon="-8.0731967"><ele>181.8</ele><time>2026-04-26T16:34:43.383Z</time></trkpt><trkpt lat="33.1545383" lon="-8.0731417"><ele>182.20000000000002</ele><time>2026-04-26T16:34:44.383Z</time></trkpt><trkpt lat="33.1544567" lon="-8.073095"><ele>182.60000000000002</ele><time>2026-04-26T16:34:45.383Z</time></trkpt><trkpt lat="33.154385" lon="-8.0730567"><ele>183.0</ele><time>2026-04-26T16:34:46.383Z</time></trkpt><trkpt lat="33.1542783" lon="-8.073005"><ele>183.0</ele><time>2026-04-26T16:34:48.383Z</time></trkpt><trkpt lat="33.1541783" lon="-8.0729583"><ele>183.0</ele><time>2026-04-26T16:34:50.383Z</time></trkpt><trkpt lat="33.1540783" lon="-8.0729183"><ele>183.0</ele><time>2026-04-26T16:34:52.383Z</time></trkpt><trkpt lat="33.1539817" lon="-8.0728767"><ele>183.0</ele><time>2026-04-26T16:34:54.383Z</time></trkpt><trkpt lat="33.15392" lon="-8.0727967"><ele>183.0</ele><time>2026-04-26T16:34:56.383Z</time></trkpt><trkpt lat="33.1539283" lon="-8.0727017"><ele>183.2</ele><time>2026-04-26T16:34:58.383Z</time></trkpt><trkpt lat="33.15396" lon="-8.0726"><ele>183.4</ele><time>2026-04-26T16:35:00.383Z</time></trkpt><trkpt lat="33.1539833" lon="-8.072465"><ele>183.6</ele><time>2026-04-26T16:35:02.383Z</time></trkpt><trkpt lat="33.153975" lon="-8.072355"><ele>183.79999999999998</ele><time>2026-04-26T16:35:04.383Z</time></trkpt><trkpt lat="33.1539233" lon="-8.0722833"><ele>184.0</ele><time>2026-04-26T16:35:06.383Z</time></trkpt><trkpt lat="33.1538433" lon="-8.07226"><ele>184.0</ele><time>2026-04-26T16:35:08.383Z</time></trkpt><trkpt lat="33.1537983" lon="-8.072345"><ele>184.0</ele><time>2026-04-26T16:35:11.383Z</time></trkpt><trkpt lat="33.153865" lon="-8.0723917"><ele>184.0</ele><time>2026-04-26T16:35:14.383Z</time></trkpt><trkpt lat="33.1539467" lon="-8.072455"><ele>184.0</ele><time>2026-04-26T16:39:12.383Z</time></trkpt><trkpt lat="33.1539683" lon="-8.07256"><ele>184.0</ele><time>2026-04-26T16:39:14.383Z</time></trkpt><trkpt lat="33.1539733" lon="-8.0726883"><ele>183.79999999999998</ele><time>2026-04-26T16:39:16.383Z</time></trkpt><trkpt lat="33.1539833" lon="-8.0728017"><ele>183.6</ele><time>2026-04-26T16:39:18.383Z</time></trkpt><trkpt lat="33.1540333" lon="-8.07289"><ele>183.4</ele><time>2026-04-26T16:39:20.383Z</time></trkpt><trkpt lat="33.1541467" lon="-8.0729717"><ele>183.2</ele><time>2026-04-26T16:39:22.383Z</time></trkpt><trkpt lat="33.15424" lon="-8.0730117"><ele>183.0</ele><time>2026-04-26T16:39:23.383Z</time></trkpt><trkpt lat="33.1543467" lon="-8.07306"><ele>183.0</ele><time>2026-04-26T16:39:24.384Z</time></trkpt><trkpt lat="33.1544717" lon="-8.0731083"><ele>183.0</ele><time>2026-04-26T16:39:25.383Z</time></trkpt><trkpt lat="33.1545967" lon="-8.073165"><ele>183.0</ele><time>2026-04-26T16:39:26.383Z</time></trkpt><trkpt lat="33.1547167" lon="-8.0732233"><ele>183.0</ele><time>2026-04-26T16:39:27.383Z</time></trkpt><trkpt lat="33.1548317" lon="-8.0732783"><ele>182.5</ele><time>2026-04-26T16:39:28.383Z</time></trkpt><trkpt lat="33.1549467" lon="-8.07334"><ele>182.0</ele><time>2026-04-26T16:39:29.383Z</time></trkpt><trkpt lat="33.155055" lon="-8.0734067"><ele>181.5</ele><time>2026-04-26T16:39:30.383Z</time></trkpt><trkpt lat="33.155155" lon="-8.07347"><ele>181.0</ele><time>2026-04-26T16:39:31.383Z</time></trkpt><trkpt lat="33.1552583" lon="-8.0735267"><ele>181.0</ele><time>2026-04-26T16:39:32.384Z</time></trkpt><trkpt lat="33.1553567" lon="-8.0735817"><ele>181.0</ele><time>2026-04-26T16:39:33.383Z</time></trkpt><trkpt lat="33.1554483" lon="-8.073635"><ele>181.0</ele><time>2026-04-26T16:39:34.383Z</time></trkpt><trkpt lat="33.15554" lon="-8.0736917"><ele>181.0</ele><time>2026-04-26T16:39:35.383Z</time></trkpt><trkpt lat="33.15563" lon="-8.0737567"><ele>181.0</ele><time>2026-04-26T16:39:36.383Z</time></trkpt><trkpt lat="33.1557133" lon="-8.0738183"><ele>181.25</ele><time>2026-04-26T16:39:37.383Z</time></trkpt><trkpt lat="33.1558" lon="-8.0738867"><ele>181.5</ele><time>2026-04-26T16:39:38.383Z</time></trkpt><trkpt lat="33.1558967" lon="-8.073955"><ele>181.75</ele><time>2026-04-26T16:39:39.383Z</time></trkpt><trkpt lat="33.1559933" lon="-8.0740333"><ele>182.0</ele><time>2026-04-26T16:39:40.383Z</time></trkpt><trkpt lat="33.1560933" lon="-8.074115"><ele>182.25</ele><time>2026-04-26T16:39:41.383Z</time></trkpt><trkpt lat="33.1561967" lon="-8.0741983"><ele>182.5</ele><time>2026-04-26T16:39:42.384Z</time></trkpt><trkpt lat="33.1562917" lon="-8.0742817"><ele>182.75</ele><time>2026-04-26T16:39:43.383Z</time></trkpt><trkpt lat="33.15638" lon="-8.0743617"><ele>183.0</ele><time>2026-04-26T16:39:44.383Z</time></trkpt><trkpt lat="33.1564667" lon="-8.074435"><ele>182.25</ele><time>2026-04-26T16:39:45.382Z</time></trkpt><trkpt lat="33.1565567" lon="-8.0745117"><ele>181.5</ele><time>2026-04-26T16:39:46.382Z</time></trkpt><trkpt lat="33.156655" lon="-8.07459"><ele>180.75</ele><time>2026-04-26T16:39:47.382Z</time></trkpt><trkpt lat="33.1567533" lon="-8.0746833"><ele>180.0</ele><time>2026-04-26T16:39:48.382Z</time></trkpt><trkpt lat="33.1568617" lon="-8.0747783"><ele>180.0</ele><time>2026-04-26T16:39:49.382Z</time></trkpt><trkpt lat="33.156965" lon="-8.0748767"><ele>180.0</ele><time>2026-04-26T16:39:50.382Z</time></trkpt><trkpt lat="33.1570767" lon="-8.0749683"><ele>180.0</ele><time>2026-04-26T16:39:51.382Z</time></trkpt><trkpt lat="33.1572017" lon="-8.0750533"><ele>180.0</ele><time>2026-04-26T16:39:52.382Z</time></trkpt><trkpt lat="33.15733" lon="-8.0751333"><ele>180.0</ele><time>2026-04-26T16:39:53.382Z</time></trkpt><trkpt lat="33.1574667" lon="-8.0752067"><ele>180.0</ele><time>2026-04-26T16:39:54.382Z</time></trkpt><trkpt lat="33.1576083" lon="-8.075265"><ele>180.0</ele><time>2026-04-26T16:39:55.382Z</time></trkpt><trkpt lat="33.1577467" lon="-8.0753183"><ele>180.0</ele><time>2026-04-26T16:39:56.383Z</time></trkpt><trkpt lat="33.1578833" lon="-8.07537"><ele>180.0</ele><time>2026-04-26T16:39:57.382Z</time></trkpt><trkpt lat="33.1580183" lon="-8.0754233"><ele>180.0</ele><time>2026-04-26T16:39:58.383Z</time></trkpt><trkpt lat="33.158155" lon="-8.0754767"><ele>180.0</ele><time>2026-04-26T16:39:59.382Z</time></trkpt><trkpt lat="33.1583" lon="-8.075535"><ele>180.0</ele><time>2026-04-26T16:40:00.382Z</time></trkpt><trkpt lat="33.1584533" lon="-8.0756017"><ele>180.66666666666666</ele><time>2026-04-26T16:40:01.382Z</time></trkpt><trkpt lat="33.1586167" lon="-8.075665"><ele>181.33333333333331</ele><time>2026-04-26T16:40:02.383Z</time></trkpt><trkpt lat="33.1587883" lon="-8.0757233"><ele>182.0</ele><time>2026-04-26T16:40:03.382Z</time></trkpt><trkpt lat="33.1589567" lon="-8.0757817"><ele>182.0</ele><time>2026-04-26T16:40:04.382Z</time></trkpt><trkpt lat="33.15912" lon="-8.07584"><ele>182.0</ele><time>2026-04-26T16:40:05.382Z</time></trkpt><trkpt lat="33.1592833" lon="-8.0759"><ele>182.0</ele><time>2026-04-26T16:40:06.382Z</time></trkpt><trkpt lat="33.1594483" lon="-8.075965"><ele>182.0</ele><time>2026-04-26T16:40:07.382Z</time></trkpt><trkpt lat="33.15961" lon="-8.0760267"><ele>182.0</ele><time>2026-04-26T16:40:08.382Z</time></trkpt><trkpt lat="33.1597767" lon="-8.0760867"><ele>182.0</ele><time>2026-04-26T16:40:09.382Z</time></trkpt><trkpt lat="33.1599383" lon="-8.0761517"><ele>181.66666666666666</ele><time>2026-04-26T16:40:10.382Z</time></trkpt><trkpt lat="33.1601083" lon="-8.0762167"><ele>181.33333333333334</ele><time>2026-04-26T16:40:11.383Z</time></trkpt><trkpt lat="33.1602783" lon="-8.0762933"><ele>181.0</ele><time>2026-04-26T16:40:12.382Z</time></trkpt><trkpt lat="33.16045" lon="-8.07637"><ele>181.0</ele><time>2026-04-26T16:40:13.382Z</time></trkpt><trkpt lat="33.1606217" lon="-8.07646"><ele>181.0</ele><time>2026-04-26T16:40:14.382Z</time></trkpt><trkpt lat="33.1607917" lon="-8.0765583"><ele>181.0</ele><time>2026-04-26T16:40:15.382Z</time></trkpt><trkpt lat="33.1609567" lon="-8.07667"><ele>180.66666666666669</ele><time>2026-04-26T16:40:16.382Z</time></trkpt><trkpt lat="33.16112" lon="-8.07678"><ele>180.33333333333334</ele><time>2026-04-26T16:40:17.382Z</time></trkpt><trkpt lat="33.1612833" lon="-8.0769"><ele>180.0</ele><time>2026-04-26T16:40:18.382Z</time></trkpt><trkpt lat="33.161445" lon="-8.07702"><ele>180.66666666666666</ele><time>2026-04-26T16:40:19.382Z</time></trkpt><trkpt lat="33.1616017" lon="-8.077145"><ele>181.33333333333331</ele><time>2026-04-26T16:40:20.382Z</time></trkpt><trkpt lat="33.1617617" lon="-8.07727"><ele>182.0</ele><time>2026-04-26T16:40:21.382Z</time></trkpt><trkpt lat="33.1619167" lon="-8.0774017"><ele>181.33333333333331</ele><time>2026-04-26T16:40:22.382Z</time></trkpt><trkpt lat="33.1620683" lon="-8.0775333"><ele>180.66666666666666</ele><time>2026-04-26T16:40:23.382Z</time></trkpt><trkpt lat="33.162215" lon="-8.077655"><ele>180.0</ele><time>2026-04-26T16:40:24.382Z</time></trkpt><trkpt lat="33.16236" lon="-8.0777817"><ele>180.0</ele><time>2026-04-26T16:40:25.382Z</time></trkpt><trkpt lat="33.1625117" lon="-8.0779083"><ele>180.0</ele><time>2026-04-26T16:40:26.382Z</time></trkpt><trkpt lat="33.1626617" lon="-8.078035"><ele>180.0</ele><time>2026-04-26T16:40:27.382Z</time></trkpt><trkpt lat="33.1628067" lon="-8.07815"><ele>180.0</ele><time>2026-04-26T16:40:28.382Z</time></trkpt><trkpt lat="33.1629433" lon="-8.0782617"><ele>180.0</ele><time>2026-04-26T16:40:29.382Z</time></trkpt><trkpt lat="33.16308" lon="-8.0783767"><ele>180.0</ele><time>2026-04-26T16:40:30.382Z</time></trkpt><trkpt lat="33.1632117" lon="-8.0784917"><ele>180.25</ele><time>2026-04-26T16:40:31.382Z</time></trkpt><trkpt lat="33.1633367" lon="-8.07859"><ele>180.5</ele><time>2026-04-26T16:40:32.382Z</time></trkpt><trkpt lat="33.16345" lon="-8.0786867"><ele>180.75</ele><time>2026-04-26T16:40:33.382Z</time></trkpt><trkpt lat="33.16356" lon="-8.0787717"><ele>181.0</ele><time>2026-04-26T16:40:34.382Z</time></trkpt><trkpt lat="33.16366" lon="-8.0788533"><ele>181.0</ele><time>2026-04-26T16:40:35.382Z</time></trkpt><trkpt lat="33.1637583" lon="-8.0789367"><ele>181.0</ele><time>2026-04-26T16:40:36.383Z</time></trkpt><trkpt lat="33.163865" lon="-8.0790317"><ele>181.0</ele><time>2026-04-26T16:40:37.382Z</time></trkpt><trkpt lat="33.163975" lon="-8.0791283"><ele>181.0</ele><time>2026-04-26T16:40:38.382Z</time></trkpt><trkpt lat="33.1640883" lon="-8.079235"><ele>180.33333333333334</ele><time>2026-04-26T16:40:39.382Z</time></trkpt><trkpt lat="33.1642217" lon="-8.079345"><ele>179.66666666666666</ele><time>2026-04-26T16:40:40.382Z</time></trkpt><trkpt lat="33.1643683" lon="-8.0794633"><ele>179.0</ele><time>2026-04-26T16:40:41.382Z</time></trkpt><trkpt lat="33.1645133" lon="-8.079575"><ele>179.0</ele><time>2026-04-26T16:40:42.382Z</time></trkpt><trkpt lat="33.1646517" lon="-8.079685"><ele>179.0</ele><time>2026-04-26T16:40:43.382Z</time></trkpt><trkpt lat="33.16479" lon="-8.0797867"><ele>179.0</ele><time>2026-04-26T16:40:44.382Z</time></trkpt><trkpt lat="33.164935" lon="-8.07989"><ele>179.33333333333331</ele><time>2026-04-26T16:40:45.382Z</time></trkpt><trkpt lat="33.165085" lon="-8.0799967"><ele>179.66666666666666</ele><time>2026-04-26T16:40:46.382Z</time></trkpt><trkpt lat="33.1652367" lon="-8.0801033"><ele>180.0</ele><time>2026-04-26T16:40:47.383Z</time></trkpt><trkpt lat="33.165395" lon="-8.0802133"><ele>180.0</ele><time>2026-04-26T16:40:48.382Z</time></trkpt><trkpt lat="33.1655417" lon="-8.0803117"><ele>180.0</ele><time>2026-04-26T16:40:49.382Z</time></trkpt><trkpt lat="33.165675" lon="-8.0804083"><ele>180.0</ele><time>2026-04-26T16:40:50.382Z</time></trkpt><trkpt lat="33.1658167" lon="-8.0805017"><ele>180.0</ele><time>2026-04-26T16:40:51.382Z</time></trkpt><trkpt lat="33.1659533" lon="-8.080595"><ele>180.0</ele><time>2026-04-26T16:40:52.382Z</time></trkpt><trkpt lat="33.16609" lon="-8.080685"><ele>180.0</ele><time>2026-04-26T16:40:53.382Z</time></trkpt><trkpt lat="33.1662217" lon="-8.080775"><ele>180.0</ele><time>2026-04-26T16:40:54.382Z</time></trkpt><trkpt lat="33.1663633" lon="-8.0808683"><ele>180.0</ele><time>2026-04-26T16:40:55.382Z</time></trkpt><trkpt lat="33.1665067" lon="-8.0809683"><ele>180.0</ele><time>2026-04-26T16:40:56.382Z</time></trkpt><trkpt lat="33.1666567" lon="-8.0810767"><ele>179.66666666666666</ele><time>2026-04-26T16:40:57.382Z</time></trkpt><trkpt lat="33.1668033" lon="-8.0811817"><ele>179.33333333333331</ele><time>2026-04-26T16:40:58.382Z</time></trkpt><trkpt lat="33.1669467" lon="-8.0812767"><ele>179.0</ele><time>2026-04-26T16:40:59.382Z</time></trkpt><trkpt lat="33.1670967" lon="-8.0813767"><ele>179.0</ele><time>2026-04-26T16:41:00.382Z</time></trkpt><trkpt lat="33.1672433" lon="-8.0814817"><ele>179.0</ele><time>2026-04-26T16:41:01.382Z</time></trkpt><trkpt lat="33.16739" lon="-8.0815833"><ele>179.0</ele><time>2026-04-26T16:41:02.382Z</time></trkpt><trkpt lat="33.1675417" lon="-8.081685"><ele>178.33333333333331</ele><time>2026-04-26T16:41:03.382Z</time></trkpt><trkpt lat="33.1676883" lon="-8.0817817"><ele>177.66666666666666</ele><time>2026-04-26T16:41:04.382Z</time></trkpt><trkpt lat="33.1678267" lon="-8.081875"><ele>177.0</ele><time>2026-04-26T16:41:05.382Z</time></trkpt><trkpt lat="33.1679733" lon="-8.081965"><ele>177.0</ele><time>2026-04-26T16:41:06.382Z</time></trkpt><trkpt lat="33.16812" lon="-8.0820683"><ele>177.0</ele><time>2026-04-26T16:41:07.382Z</time></trkpt><trkpt lat="33.1682683" lon="-8.0821717"><ele>177.0</ele><time>2026-04-26T16:41:08.382Z</time></trkpt><trkpt lat="33.1684283" lon="-8.0822833"><ele>176.66666666666666</ele><time>2026-04-26T16:41:09.382Z</time></trkpt><trkpt lat="33.168595" lon="-8.0823917"><ele>176.33333333333331</ele><time>2026-04-26T16:41:10.382Z</time></trkpt><trkpt lat="33.1687567" lon="-8.082505"><ele>176.0</ele><time>2026-04-26T16:41:11.382Z</time></trkpt><trkpt lat="33.1689133" lon="-8.0826133"><ele>176.0</ele><time>2026-04-26T16:41:12.382Z</time></trkpt><trkpt lat="33.1690633" lon="-8.0827167"><ele>176.0</ele><time>2026-04-26T16:41:13.382Z</time></trkpt><trkpt lat="33.1692167" lon="-8.082815"><ele>176.0</ele><time>2026-04-26T16:41:14.382Z</time></trkpt><trkpt lat="33.169365" lon="-8.0829133"><ele>176.0</ele><time>2026-04-26T16:41:15.382Z</time></trkpt><trkpt lat="33.1695117" lon="-8.0830083"><ele>176.0</ele><time>2026-04-26T16:41:16.382Z</time></trkpt><trkpt lat="33.1696583" lon="-8.0831083"><ele>176.0</ele><time>2026-04-26T16:41:17.382Z</time></trkpt><trkpt lat="33.1698017" lon="-8.0832067"><ele>174.66666666666666</ele><time>2026-04-26T16:41:18.382Z</time></trkpt><trkpt lat="33.1699467" lon="-8.0833067"><ele>173.33333333333334</ele><time>2026-04-26T16:41:19.382Z</time></trkpt><trkpt lat="33.1700867" lon="-8.0834067"><ele>172.0</ele><time>2026-04-26T16:41:20.382Z</time></trkpt><trkpt lat="33.1702317" lon="-8.0835167"><ele>172.0</ele><time>2026-04-26T16:41:21.383Z</time></trkpt><trkpt lat="33.170385" lon="-8.0836267"><ele>172.0</ele><time>2026-04-26T16:41:22.382Z</time></trkpt><trkpt lat="33.170535" lon="-8.083725"><ele>172.0</ele><time>2026-04-26T16:41:23.382Z</time></trkpt><trkpt lat="33.1706833" lon="-8.08382"><ele>172.0</ele><time>2026-04-26T16:41:24.382Z</time></trkpt><trkpt lat="33.170825" lon="-8.0839117"><ele>172.0</ele><time>2026-04-26T16:41:25.383Z</time></trkpt><trkpt lat="33.170965" lon="-8.0840017"><ele>172.0</ele><time>2026-04-26T16:41:26.382Z</time></trkpt><trkpt lat="33.1711033" lon="-8.084095"><ele>172.33333333333334</ele><time>2026-04-26T16:41:27.382Z</time></trkpt><trkpt lat="33.17124" lon="-8.0841917"><ele>172.66666666666666</ele><time>2026-04-26T16:41:28.382Z</time></trkpt><trkpt lat="33.1713833" lon="-8.08429"><ele>173.0</ele><time>2026-04-26T16:41:29.382Z</time></trkpt><trkpt lat="33.1715333" lon="-8.0843883"><ele>173.0</ele><time>2026-04-26T16:41:30.382Z</time></trkpt><trkpt lat="33.1716817" lon="-8.08449"><ele>173.0</ele><time>2026-04-26T16:41:31.382Z</time></trkpt><trkpt lat="33.1718317" lon="-8.0845917"><ele>173.0</ele><time>2026-04-26T16:41:32.382Z</time></trkpt><trkpt lat="33.171985" lon="-8.084695"><ele>173.0</ele><time>2026-04-26T16:41:33.382Z</time></trkpt><trkpt lat="33.1721417" lon="-8.0847983"><ele>173.0</ele><time>2026-04-26T16:41:34.382Z</time></trkpt><trkpt lat="33.1722933" lon="-8.084905"><ele>173.0</ele><time>2026-04-26T16:41:35.382Z</time></trkpt><trkpt lat="33.1724433" lon="-8.0850117"><ele>173.33333333333331</ele><time>2026-04-26T16:41:36.382Z</time></trkpt><trkpt lat="33.1725867" lon="-8.0851083"><ele>173.66666666666666</ele><time>2026-04-26T16:41:37.382Z</time></trkpt><trkpt lat="33.1727283" lon="-8.0852067"><ele>174.0</ele><time>2026-04-26T16:41:38.382Z</time></trkpt><trkpt lat="33.1728683" lon="-8.085305"><ele>174.0</ele><time>2026-04-26T16:41:39.382Z</time></trkpt><trkpt lat="33.1730133" lon="-8.085405"><ele>174.0</ele><time>2026-04-26T16:41:40.382Z</time></trkpt><trkpt lat="33.1731583" lon="-8.0855033"><ele>174.0</ele><time>2026-04-26T16:41:41.382Z</time></trkpt><trkpt lat="33.1733" lon="-8.0856067"><ele>173.66666666666666</ele><time>2026-04-26T16:41:42.382Z</time></trkpt><trkpt lat="33.1734433" lon="-8.0857117"><ele>173.33333333333331</ele><time>2026-04-26T16:41:43.382Z</time></trkpt><trkpt lat="33.1735883" lon="-8.0858167"><ele>173.0</ele><time>2026-04-26T16:41:44.382Z</time></trkpt><trkpt lat="33.173735" lon="-8.0859217"><ele>173.33333333333331</ele><time>2026-04-26T16:41:45.382Z</time></trkpt><trkpt lat="33.1738833" lon="-8.0860233"><ele>173.66666666666666</ele><time>2026-04-26T16:41:46.382Z</time></trkpt><trkpt lat="33.1740283" lon="-8.086125"><ele>174.0</ele><time>2026-04-26T16:41:47.382Z</time></trkpt><trkpt lat="33.174175" lon="-8.0862267"><ele>174.0</ele><time>2026-04-26T16:41:48.382Z</time></trkpt><trkpt lat="33.1743133" lon="-8.086325"><ele>174.0</ele><time>2026-04-26T16:41:49.382Z</time></trkpt><trkpt lat="33.174455" lon="-8.0864317"><ele>174.0</ele><time>2026-04-26T16:41:50.382Z</time></trkpt><trkpt lat="33.1745983" lon="-8.0865383"><ele>173.33333333333334</ele><time>2026-04-26T16:41:51.382Z</time></trkpt><trkpt lat="33.1747467" lon="-8.0866417"><ele>172.66666666666669</ele><time>2026-04-26T16:41:52.382Z</time></trkpt><trkpt lat="33.1748917" lon="-8.086745"><ele>172.0</ele><time>2026-04-26T16:41:53.382Z</time></trkpt><trkpt lat="33.1750383" lon="-8.08685"><ele>172.0</ele><time>2026-04-26T16:41:54.382Z</time></trkpt><trkpt lat="33.1751833" lon="-8.0869617"><ele>172.0</ele><time>2026-04-26T16:41:55.382Z</time></trkpt><trkpt lat="33.1753283" lon="-8.0870683"><ele>172.0</ele><time>2026-04-26T16:41:56.382Z</time></trkpt><trkpt lat="33.1754683" lon="-8.0871683"><ele>172.0</ele><time>2026-04-26T16:41:57.382Z</time></trkpt><trkpt lat="33.175605" lon="-8.0872583"><ele>172.0</ele><time>2026-04-26T16:41:58.382Z</time></trkpt><trkpt lat="33.1757367" lon="-8.0873483"><ele>172.0</ele><time>2026-04-26T16:41:59.383Z</time></trkpt><trkpt lat="33.1758683" lon="-8.0874367"><ele>172.0</ele><time>2026-04-26T16:42:00.382Z</time></trkpt><trkpt lat="33.1759917" lon="-8.0875267"><ele>172.0</ele><time>2026-04-26T16:42:01.382Z</time></trkpt><trkpt lat="33.1761117" lon="-8.08761"><ele>172.0</ele><time>2026-04-26T16:42:02.382Z</time></trkpt><trkpt lat="33.1762283" lon="-8.087695"><ele>172.0</ele><time>2026-04-26T16:42:03.383Z</time></trkpt><trkpt lat="33.1763467" lon="-8.0877817"><ele>172.0</ele><time>2026-04-26T16:42:04.382Z</time></trkpt><trkpt lat="33.1764683" lon="-8.0878717"><ele>172.0</ele><time>2026-04-26T16:42:05.382Z</time></trkpt><trkpt lat="33.1765833" lon="-8.0879567"><ele>172.0</ele><time>2026-04-26T16:42:06.382Z</time></trkpt><trkpt lat="33.1767033" lon="-8.0880367"><ele>172.0</ele><time>2026-04-26T16:42:07.382Z</time></trkpt><trkpt lat="33.17683" lon="-8.0881233"><ele>172.0</ele><time>2026-04-26T16:42:08.382Z</time></trkpt><trkpt lat="33.17696" lon="-8.08822"><ele>172.0</ele><time>2026-04-26T16:42:09.382Z</time></trkpt><trkpt lat="33.1771" lon="-8.0883167"><ele>172.0</ele><time>2026-04-26T16:42:10.382Z</time></trkpt><trkpt lat="33.17724" lon="-8.08842"><ele>171.0</ele><time>2026-04-26T16:42:11.382Z</time></trkpt><trkpt lat="33.1773817" lon="-8.0885233"><ele>170.0</ele><time>2026-04-26T16:42:12.382Z</time></trkpt><trkpt lat="33.1775133" lon="-8.08863"><ele>169.0</ele><time>2026-04-26T16:42:13.383Z</time></trkpt><trkpt lat="33.1776433" lon="-8.0887367"><ele>169.0</ele><time>2026-04-26T16:42:14.382Z</time></trkpt><trkpt lat="33.1777817" lon="-8.0888367"><ele>169.0</ele><time>2026-04-26T16:42:15.382Z</time></trkpt><trkpt lat="33.1779283" lon="-8.0889367"><ele>169.0</ele><time>2026-04-26T16:42:16.382Z</time></trkpt><trkpt lat="33.1780717" lon="-8.0890283"><ele>169.66666666666669</ele><time>2026-04-26T16:42:17.382Z</time></trkpt><trkpt lat="33.1782083" lon="-8.0891217"><ele>170.33333333333334</ele><time>2026-04-26T16:42:18.382Z</time></trkpt><trkpt lat="33.1783317" lon="-8.0892167"><ele>171.0</ele><time>2026-04-26T16:42:19.382Z</time></trkpt><trkpt lat="33.178455" lon="-8.0893117"><ele>171.0</ele><time>2026-04-26T16:42:20.382Z</time></trkpt><trkpt lat="33.178585" lon="-8.089405"><ele>171.0</ele><time>2026-04-26T16:42:21.382Z</time></trkpt><trkpt lat="33.1787167" lon="-8.0894983"><ele>171.0</ele><time>2026-04-26T16:42:22.383Z</time></trkpt><trkpt lat="33.1788467" lon="-8.0895917"><ele>171.0</ele><time>2026-04-26T16:42:23.382Z</time></trkpt><trkpt lat="33.17898" lon="-8.0896833"><ele>171.0</ele><time>2026-04-26T16:42:24.383Z</time></trkpt><trkpt lat="33.1791183" lon="-8.089775"><ele>171.0</ele><time>2026-04-26T16:42:25.382Z</time></trkpt><trkpt lat="33.17926" lon="-8.0898617"><ele>172.33333333333334</ele><time>2026-04-26T16:42:26.382Z</time></trkpt><trkpt lat="33.1794083" lon="-8.0899383"><ele>173.66666666666669</ele><time>2026-04-26T16:42:27.382Z</time></trkpt><trkpt lat="33.1795567" lon="-8.0900067"><ele>175.0</ele><time>2026-04-26T16:42:28.382Z</time></trkpt><trkpt lat="33.17971" lon="-8.0900717"><ele>175.33333333333334</ele><time>2026-04-26T16:42:29.382Z</time></trkpt><trkpt lat="33.1798683" lon="-8.09012"><ele>175.66666666666666</ele><time>2026-04-26T16:42:30.383Z</time></trkpt><trkpt lat="33.1800367" lon="-8.0901567"><ele>176.0</ele><time>2026-04-26T16:42:31.382Z</time></trkpt><trkpt lat="33.1802083" lon="-8.0901833"><ele>176.0</ele><time>2026-04-26T16:42:32.382Z</time></trkpt><trkpt lat="33.180385" lon="-8.09021"><ele>176.0</ele><time>2026-04-26T16:42:33.382Z</time></trkpt><trkpt lat="33.1805717" lon="-8.09023"><ele>176.0</ele><time>2026-04-26T16:42:34.382Z</time></trkpt><trkpt lat="33.1807583" lon="-8.09026"><ele>175.33333333333331</ele><time>2026-04-26T16:42:35.382Z</time></trkpt><trkpt lat="33.180945" lon="-8.0902783"><ele>174.66666666666666</ele><time>2026-04-26T16:42:36.382Z</time></trkpt><trkpt lat="33.181125" lon="-8.0903"><ele>174.0</ele><time>2026-04-26T16:42:37.382Z</time></trkpt><trkpt lat="33.1813067" lon="-8.0903183"><ele>174.0</ele><time>2026-04-26T16:42:38.382Z</time></trkpt><trkpt lat="33.1814817" lon="-8.0903417"><ele>174.0</ele><time>2026-04-26T16:42:39.382Z</time></trkpt><trkpt lat="33.1816667" lon="-8.0903633"><ele>174.0</ele><time>2026-04-26T16:42:40.383Z</time></trkpt><trkpt lat="33.1818433" lon="-8.09039"><ele>174.33333333333334</ele><time>2026-04-26T16:42:41.382Z</time></trkpt><trkpt lat="33.1820233" lon="-8.090415"><ele>174.66666666666669</ele><time>2026-04-26T16:42:42.383Z</time></trkpt><trkpt lat="33.182195" lon="-8.0904333"><ele>175.0</ele><time>2026-04-26T16:42:43.382Z</time></trkpt><trkpt lat="33.1823583" lon="-8.0904517"><ele>175.25</ele><time>2026-04-26T16:42:44.382Z</time></trkpt><trkpt lat="33.182505" lon="-8.090465"><ele>175.5</ele><time>2026-04-26T16:42:45.382Z</time></trkpt><trkpt lat="33.1826267" lon="-8.0904783"><ele>175.75</ele><time>2026-04-26T16:42:46.382Z</time></trkpt><trkpt lat="33.1827333" lon="-8.0904933"><ele>176.0</ele><time>2026-04-26T16:42:47.382Z</time></trkpt><trkpt lat="33.1828333" lon="-8.0905083"><ele>176.0</ele><time>2026-04-26T16:42:48.382Z</time></trkpt><trkpt lat="33.1829383" lon="-8.0905233"><ele>176.0</ele><time>2026-04-26T16:42:49.382Z</time></trkpt><trkpt lat="33.1830433" lon="-8.0905467"><ele>176.0</ele><time>2026-04-26T16:42:50.382Z</time></trkpt><trkpt lat="33.1831583" lon="-8.0905683"><ele>176.0</ele><time>2026-04-26T16:42:51.382Z</time></trkpt><trkpt lat="33.183275" lon="-8.09059"><ele>176.0</ele><time>2026-04-26T16:42:52.382Z</time></trkpt><trkpt lat="33.18339" lon="-8.0906117"><ele>175.5</ele><time>2026-04-26T16:42:53.382Z</time></trkpt><trkpt lat="33.1835133" lon="-8.090635"><ele>175.0</ele><time>2026-04-26T16:42:54.382Z</time></trkpt><trkpt lat="33.1836383" lon="-8.0906617"><ele>174.5</ele><time>2026-04-26T16:42:55.382Z</time></trkpt><trkpt lat="33.1837633" lon="-8.0906933"><ele>174.0</ele><time>2026-04-26T16:42:56.382Z</time></trkpt><trkpt lat="33.183895" lon="-8.09073"><ele>174.25</ele><time>2026-04-26T16:42:57.382Z</time></trkpt><trkpt lat="33.1840283" lon="-8.0907617"><ele>174.5</ele><time>2026-04-26T16:42:58.382Z</time></trkpt><trkpt lat="33.1841583" lon="-8.0907917"><ele>174.75</ele><time>2026-04-26T16:42:59.382Z</time></trkpt><trkpt lat="33.18428" lon="-8.0908167"><ele>175.0</ele><time>2026-04-26T16:43:00.382Z</time></trkpt><trkpt lat="33.18441" lon="-8.0908467"><ele>175.0</ele><time>2026-04-26T16:43:01.382Z</time></trkpt><trkpt lat="33.1845433" lon="-8.0908767"><ele>175.0</ele><time>2026-04-26T16:43:02.382Z</time></trkpt><trkpt lat="33.1846733" lon="-8.0909117"><ele>175.0</ele><time>2026-04-26T16:43:03.382Z</time></trkpt><trkpt lat="33.1848083" lon="-8.090945"><ele>175.0</ele><time>2026-04-26T16:43:04.382Z</time></trkpt><trkpt lat="33.18495" lon="-8.0909733"><ele>174.66666666666669</ele><time>2026-04-26T16:43:05.382Z</time></trkpt><trkpt lat="33.1851" lon="-8.0910067"><ele>174.33333333333334</ele><time>2026-04-26T16:43:06.382Z</time></trkpt><trkpt lat="33.1852567" lon="-8.0910417"><ele>174.0</ele><time>2026-04-26T16:43:07.382Z</time></trkpt><trkpt lat="33.185415" lon="-8.091075"><ele>174.0</ele><time>2026-04-26T16:43:08.382Z</time></trkpt><trkpt lat="33.1855667" lon="-8.0911117"><ele>174.0</ele><time>2026-04-26T16:43:09.382Z</time></trkpt><trkpt lat="33.1857167" lon="-8.0911483"><ele>174.0</ele><time>2026-04-26T16:43:10.382Z</time></trkpt><trkpt lat="33.1858683" lon="-8.0911833"><ele>174.0</ele><time>2026-04-26T16:43:11.382Z</time></trkpt><trkpt lat="33.1860233" lon="-8.09122"><ele>174.0</ele><time>2026-04-26T16:43:12.382Z</time></trkpt><trkpt lat="33.1861783" lon="-8.0912567"><ele>174.0</ele><time>2026-04-26T16:43:13.382Z</time></trkpt><trkpt lat="33.1863317" lon="-8.0912933"><ele>174.0</ele><time>2026-04-26T16:43:14.382Z</time></trkpt><trkpt lat="33.1864883" lon="-8.0913317"><ele>174.0</ele><time>2026-04-26T16:43:15.382Z</time></trkpt><trkpt lat="33.18664" lon="-8.0913683"><ele>174.0</ele><time>2026-04-26T16:43:16.382Z</time></trkpt><trkpt lat="33.1867967" lon="-8.0914067"><ele>173.33333333333334</ele><time>2026-04-26T16:43:17.382Z</time></trkpt><trkpt lat="33.1869567" lon="-8.091445"><ele>172.66666666666669</ele><time>2026-04-26T16:43:18.382Z</time></trkpt><trkpt lat="33.1871233" lon="-8.0914783"><ele>172.0</ele><time>2026-04-26T16:43:19.382Z</time></trkpt><trkpt lat="33.1872933" lon="-8.0915183"><ele>172.33333333333334</ele><time>2026-04-26T16:43:20.382Z</time></trkpt><trkpt lat="33.187465" lon="-8.0915617"><ele>172.66666666666666</ele><time>2026-04-26T16:43:21.383Z</time></trkpt><trkpt lat="33.1876367" lon="-8.0916067"><ele>173.0</ele><time>2026-04-26T16:43:22.382Z</time></trkpt><trkpt lat="33.18781" lon="-8.09165"><ele>174.0</ele><time>2026-04-26T16:43:23.382Z</time></trkpt><trkpt lat="33.1879783" lon="-8.0916883"><ele>175.0</ele><time>2026-04-26T16:43:24.382Z</time></trkpt><trkpt lat="33.1881417" lon="-8.0917267"><ele>176.0</ele><time>2026-04-26T16:43:25.382Z</time></trkpt><trkpt lat="33.1883033" lon="-8.0917617"><ele>176.0</ele><time>2026-04-26T16:43:26.382Z</time></trkpt><trkpt lat="33.1884683" lon="-8.0918017"><ele>176.0</ele><time>2026-04-26T16:43:27.382Z</time></trkpt><trkpt lat="33.1886367" lon="-8.0918417"><ele>176.0</ele><time>2026-04-26T16:43:28.382Z</time></trkpt><trkpt lat="33.1888067" lon="-8.0918783"><ele>176.0</ele><time>2026-04-26T16:43:29.382Z</time></trkpt><trkpt lat="33.1889817" lon="-8.09192"><ele>176.0</ele><time>2026-04-26T16:43:30.382Z</time></trkpt><trkpt lat="33.1891583" lon="-8.0919633"><ele>176.0</ele><time>2026-04-26T16:43:31.382Z</time></trkpt><trkpt lat="33.18933" lon="-8.092005"><ele>175.33333333333331</ele><time>2026-04-26T16:43:32.382Z</time></trkpt><trkpt lat="33.1895" lon="-8.0920433"><ele>174.66666666666666</ele><time>2026-04-26T16:43:33.382Z</time></trkpt><trkpt lat="33.18967" lon="-8.092085"><ele>174.0</ele><time>2026-04-26T16:43:34.382Z</time></trkpt><trkpt lat="33.18984" lon="-8.092125"><ele>173.66666666666666</ele><time>2026-04-26T16:43:35.382Z</time></trkpt><trkpt lat="33.1900133" lon="-8.092165"><ele>173.33333333333331</ele><time>2026-04-26T16:43:36.382Z</time></trkpt><trkpt lat="33.19019" lon="-8.0922017"><ele>173.0</ele><time>2026-04-26T16:43:37.382Z</time></trkpt><trkpt lat="33.1903583" lon="-8.092235"><ele>173.0</ele><time>2026-04-26T16:43:38.382Z</time></trkpt><trkpt lat="33.1905267" lon="-8.0922783"><ele>173.0</ele><time>2026-04-26T16:43:39.382Z</time></trkpt><trkpt lat="33.1906933" lon="-8.092325"><ele>173.0</ele><time>2026-04-26T16:43:40.382Z</time></trkpt><trkpt lat="33.1908633" lon="-8.092365"><ele>172.66666666666666</ele><time>2026-04-26T16:43:41.382Z</time></trkpt><trkpt lat="33.1910317" lon="-8.0924067"><ele>172.33333333333334</ele><time>2026-04-26T16:43:42.383Z</time></trkpt><trkpt lat="33.191205" lon="-8.0924433"><ele>172.0</ele><time>2026-04-26T16:43:43.382Z</time></trkpt><trkpt lat="33.1913767" lon="-8.09248"><ele>172.66666666666669</ele><time>2026-04-26T16:43:44.383Z</time></trkpt><trkpt lat="33.1915433" lon="-8.0925117"><ele>173.33333333333334</ele><time>2026-04-26T16:43:45.382Z</time></trkpt><trkpt lat="33.19171" lon="-8.0925333"><ele>174.0</ele><time>2026-04-26T16:43:46.382Z</time></trkpt><trkpt lat="33.19188" lon="-8.0925467"><ele>174.0</ele><time>2026-04-26T16:43:47.382Z</time></trkpt><trkpt lat="33.192055" lon="-8.09255"><ele>174.0</ele><time>2026-04-26T16:43:48.382Z</time></trkpt><trkpt lat="33.1922283" lon="-8.0925483"><ele>174.0</ele><time>2026-04-26T16:43:49.383Z</time></trkpt><trkpt lat="33.1924033" lon="-8.092535"><ele>174.66666666666666</ele><time>2026-04-26T16:43:50.382Z</time></trkpt><trkpt lat="33.1925783" lon="-8.0925133"><ele>175.33333333333331</ele><time>2026-04-26T16:43:51.383Z</time></trkpt><trkpt lat="33.1927567" lon="-8.09249"><ele>176.0</ele><time>2026-04-26T16:43:52.382Z</time></trkpt><trkpt lat="33.1929367" lon="-8.092465"><ele>176.0</ele><time>2026-04-26T16:43:53.382Z</time></trkpt><trkpt lat="33.19312" lon="-8.0924417"><ele>176.0</ele><time>2026-04-26T16:43:54.382Z</time></trkpt><trkpt lat="33.1933083" lon="-8.0924117"><ele>176.0</ele><time>2026-04-26T16:43:55.382Z</time></trkpt><trkpt lat="33.1934917" lon="-8.0923767"><ele>176.0</ele><time>2026-04-26T16:43:56.382Z</time></trkpt><trkpt lat="33.1936717" lon="-8.0923367"><ele>176.0</ele><time>2026-04-26T16:43:57.382Z</time></trkpt><trkpt lat="33.1938533" lon="-8.0923"><ele>176.0</ele><time>2026-04-26T16:43:58.382Z</time></trkpt><trkpt lat="33.1940283" lon="-8.092255"><ele>176.0</ele><time>2026-04-26T16:43:59.382Z</time></trkpt><trkpt lat="33.19419" lon="-8.0922067"><ele>176.0</ele><time>2026-04-26T16:44:00.382Z</time></trkpt><trkpt lat="33.1943583" lon="-8.092155"><ele>176.0</ele><time>2026-04-26T16:44:01.382Z</time></trkpt><trkpt lat="33.1945317" lon="-8.0920983"><ele>176.0</ele><time>2026-04-26T16:44:02.382Z</time></trkpt><trkpt lat="33.1947033" lon="-8.0920283"><ele>176.0</ele><time>2026-04-26T16:44:03.382Z</time></trkpt><trkpt lat="33.19487" lon="-8.0919567"><ele>176.0</ele><time>2026-04-26T16:44:04.382Z</time></trkpt><trkpt lat="33.1950417" lon="-8.091885"><ele>174.66666666666666</ele><time>2026-04-26T16:44:05.382Z</time></trkpt><trkpt lat="33.1952017" lon="-8.091815"><ele>173.33333333333334</ele><time>2026-04-26T16:44:06.382Z</time></trkpt><trkpt lat="33.1953633" lon="-8.0917417"><ele>172.0</ele><time>2026-04-26T16:44:07.382Z</time></trkpt><trkpt lat="33.19552" lon="-8.0916633"><ele>170.66666666666669</ele><time>2026-04-26T16:44:08.382Z</time></trkpt><trkpt lat="33.1956783" lon="-8.09158"><ele>169.33333333333334</ele><time>2026-04-26T16:44:09.382Z</time></trkpt><trkpt lat="33.19584" lon="-8.0914933"><ele>168.0</ele><time>2026-04-26T16:44:10.382Z</time></trkpt><trkpt lat="33.1959983" lon="-8.0914067"><ele>168.0</ele><time>2026-04-26T16:44:11.382Z</time></trkpt><trkpt lat="33.1961517" lon="-8.09132"><ele>168.0</ele><time>2026-04-26T16:44:12.382Z</time></trkpt><trkpt lat="33.196295" lon="-8.0912367"><ele>168.0</ele><time>2026-04-26T16:44:13.382Z</time></trkpt><trkpt lat="33.19644" lon="-8.0911533"><ele>168.0</ele><time>2026-04-26T16:44:14.382Z</time></trkpt><trkpt lat="33.1965817" lon="-8.0910717"><ele>168.0</ele><time>2026-04-26T16:44:15.382Z</time></trkpt><trkpt lat="33.196725" lon="-8.0909883"><ele>168.0</ele><time>2026-04-26T16:44:16.382Z</time></trkpt><trkpt lat="33.19687" lon="-8.0909067"><ele>168.0</ele><time>2026-04-26T16:44:17.382Z</time></trkpt><trkpt lat="33.1970183" lon="-8.0908233"><ele>168.0</ele><time>2026-04-26T16:44:18.382Z</time></trkpt><trkpt lat="33.1971717" lon="-8.090735"><ele>168.0</ele><time>2026-04-26T16:44:19.382Z</time></trkpt><trkpt lat="33.197325" lon="-8.090645"><ele>167.0</ele><time>2026-04-26T16:44:20.382Z</time></trkpt><trkpt lat="33.19748" lon="-8.090555"><ele>166.0</ele><time>2026-04-26T16:44:21.382Z</time></trkpt><trkpt lat="33.197635" lon="-8.0904633"><ele>165.0</ele><time>2026-04-26T16:44:22.382Z</time></trkpt><trkpt lat="33.197795" lon="-8.09037"><ele>165.0</ele><time>2026-04-26T16:44:23.382Z</time></trkpt><trkpt lat="33.197955" lon="-8.0902717"><ele>165.0</ele><time>2026-04-26T16:44:24.382Z</time></trkpt><trkpt lat="33.19812" lon="-8.0901783"><ele>165.0</ele><time>2026-04-26T16:44:25.382Z</time></trkpt><trkpt lat="33.198285" lon="-8.0900833"><ele>164.33333333333334</ele><time>2026-04-26T16:44:26.382Z</time></trkpt><trkpt lat="33.1984467" lon="-8.0899867"><ele>163.66666666666669</ele><time>2026-04-26T16:44:27.382Z</time></trkpt><trkpt lat="33.198615" lon="-8.0898917"><ele>163.0</ele><time>2026-04-26T16:44:28.382Z</time></trkpt><trkpt lat="33.198785" lon="-8.0898017"><ele>163.0</ele><time>2026-04-26T16:44:29.382Z</time></trkpt><trkpt lat="33.198945" lon="-8.0897083"><ele>163.0</ele><time>2026-04-26T16:44:30.382Z</time></trkpt><trkpt lat="33.1991017" lon="-8.0896233"><ele>163.0</ele><time>2026-04-26T16:44:31.382Z</time></trkpt><trkpt lat="33.1992583" lon="-8.089535"><ele>163.0</ele><time>2026-04-26T16:44:32.382Z</time></trkpt><trkpt lat="33.19941" lon="-8.0894433"><ele>163.0</ele><time>2026-04-26T16:44:33.382Z</time></trkpt><trkpt lat="33.1995717" lon="-8.089355"><ele>163.0</ele><time>2026-04-26T16:44:34.382Z</time></trkpt><trkpt lat="33.1997267" lon="-8.0892717"><ele>163.0</ele><time>2026-04-26T16:44:35.382Z</time></trkpt><trkpt lat="33.199885" lon="-8.0891783"><ele>163.0</ele><time>2026-04-26T16:44:36.382Z</time></trkpt><trkpt lat="33.2000467" lon="-8.0890833"><ele>163.0</ele><time>2026-04-26T16:44:37.382Z</time></trkpt><trkpt lat="33.20021" lon="-8.0889867"><ele>163.0</ele><time>2026-04-26T16:44:38.382Z</time></trkpt><trkpt lat="33.20037" lon="-8.0888917"><ele>163.0</ele><time>2026-04-26T16:44:39.382Z</time></trkpt><trkpt lat="33.2005283" lon="-8.0887967"><ele>163.0</ele><time>2026-04-26T16:44:40.382Z</time></trkpt><trkpt lat="33.2006917" lon="-8.0887067"><ele>163.33333333333334</ele><time>2026-04-26T16:44:41.382Z</time></trkpt><trkpt lat="33.2008517" lon="-8.088615"><ele>163.66666666666666</ele><time>2026-04-26T16:44:42.382Z</time></trkpt><trkpt lat="33.201015" lon="-8.08852"><ele>164.0</ele><time>2026-04-26T16:44:43.382Z</time></trkpt><trkpt lat="33.2011817" lon="-8.088425"><ele>164.0</ele><time>2026-04-26T16:44:44.382Z</time></trkpt><trkpt lat="33.2013467" lon="-8.0883233"><ele>164.0</ele><time>2026-04-26T16:44:45.382Z</time></trkpt><trkpt lat="33.201515" lon="-8.0882317"><ele>164.0</ele><time>2026-04-26T16:44:46.382Z</time></trkpt><trkpt lat="33.20168" lon="-8.088135"><ele>162.0</ele><time>2026-04-26T16:44:47.382Z</time></trkpt><trkpt lat="33.2018483" lon="-8.0880367"><ele>160.0</ele><time>2026-04-26T16:44:48.382Z</time></trkpt><trkpt lat="33.2020167" lon="-8.08794"><ele>158.0</ele><time>2026-04-26T16:44:49.382Z</time></trkpt><trkpt lat="33.2021833" lon="-8.087845"><ele>158.33333333333331</ele><time>2026-04-26T16:44:50.382Z</time></trkpt><trkpt lat="33.2023567" lon="-8.0877467"><ele>158.66666666666666</ele><time>2026-04-26T16:44:51.382Z</time></trkpt><trkpt lat="33.2025283" lon="-8.0876483"><ele>159.0</ele><time>2026-04-26T16:44:52.382Z</time></trkpt><trkpt lat="33.2027033" lon="-8.08755"><ele>159.0</ele><time>2026-04-26T16:44:53.382Z</time></trkpt><trkpt lat="33.20288" lon="-8.0874517"><ele>159.0</ele><time>2026-04-26T16:44:54.382Z</time></trkpt><trkpt lat="33.2030433" lon="-8.087355"><ele>159.0</ele><time>2026-04-26T16:44:55.382Z</time></trkpt><trkpt lat="33.2032033" lon="-8.0872617"><ele>158.66666666666666</ele><time>2026-04-26T16:44:56.382Z</time></trkpt><trkpt lat="33.2033667" lon="-8.0871667"><ele>158.33333333333331</ele><time>2026-04-26T16:44:57.382Z</time></trkpt><trkpt lat="33.2035283" lon="-8.087075"><ele>158.0</ele><time>2026-04-26T16:44:58.382Z</time></trkpt><trkpt lat="33.20369" lon="-8.08699"><ele>158.0</ele><time>2026-04-26T16:44:59.382Z</time></trkpt><trkpt lat="33.20384" lon="-8.0869033"><ele>158.0</ele><time>2026-04-26T16:45:00.382Z</time></trkpt><trkpt lat="33.2039867" lon="-8.0868183"><ele>158.0</ele><time>2026-04-26T16:45:01.382Z</time></trkpt><trkpt lat="33.2041383" lon="-8.086735"><ele>157.66666666666666</ele><time>2026-04-26T16:45:02.382Z</time></trkpt><trkpt lat="33.2042933" lon="-8.0866517"><ele>157.33333333333334</ele><time>2026-04-26T16:45:03.382Z</time></trkpt><trkpt lat="33.2044483" lon="-8.0865583"><ele>157.0</ele><time>2026-04-26T16:45:04.382Z</time></trkpt><trkpt lat="33.204605" lon="-8.0864617"><ele>156.33333333333334</ele><time>2026-04-26T16:45:05.382Z</time></trkpt><trkpt lat="33.2047567" lon="-8.08637"><ele>155.66666666666666</ele><time>2026-04-26T16:45:06.382Z</time></trkpt><trkpt lat="33.2049067" lon="-8.0862833"><ele>155.0</ele><time>2026-04-26T16:45:07.382Z</time></trkpt><trkpt lat="33.2050567" lon="-8.0861983"><ele>156.66666666666666</ele><time>2026-04-26T16:45:08.382Z</time></trkpt><trkpt lat="33.2052117" lon="-8.08611"><ele>158.33333333333334</ele><time>2026-04-26T16:45:09.382Z</time></trkpt><trkpt lat="33.2053683" lon="-8.08602"><ele>160.0</ele><time>2026-04-26T16:45:10.382Z</time></trkpt><trkpt lat="33.2055217" lon="-8.0859317"><ele>159.33333333333334</ele><time>2026-04-26T16:45:11.382Z</time></trkpt><trkpt lat="33.205675" lon="-8.085845"><ele>158.66666666666666</ele><time>2026-04-26T16:45:12.382Z</time></trkpt><trkpt lat="33.2058217" lon="-8.0857617"><ele>158.0</ele><time>2026-04-26T16:45:13.382Z</time></trkpt><trkpt lat="33.2059667" lon="-8.085675"><ele>158.0</ele><time>2026-04-26T16:45:14.382Z</time></trkpt><trkpt lat="33.206115" lon="-8.0855933"><ele>158.0</ele><time>2026-04-26T16:45:15.382Z</time></trkpt><trkpt lat="33.206265" lon="-8.0855067"><ele>158.0</ele><time>2026-04-26T16:45:16.382Z</time></trkpt><trkpt lat="33.206415" lon="-8.08542"><ele>157.0</ele><time>2026-04-26T16:45:17.382Z</time></trkpt><trkpt lat="33.2065667" lon="-8.08533"><ele>156.0</ele><time>2026-04-26T16:45:18.382Z</time></trkpt><trkpt lat="33.2067183" lon="-8.085245"><ele>155.0</ele><time>2026-04-26T16:45:19.382Z</time></trkpt><trkpt lat="33.20687" lon="-8.0851633"><ele>155.0</ele><time>2026-04-26T16:45:20.382Z</time></trkpt><trkpt lat="33.207005" lon="-8.0850917"><ele>155.0</ele><time>2026-04-26T16:45:21.382Z</time></trkpt><trkpt lat="33.2071333" lon="-8.085015"><ele>155.0</ele><time>2026-04-26T16:45:22.382Z</time></trkpt><trkpt lat="33.207265" lon="-8.0849367"><ele>155.0</ele><time>2026-04-26T16:45:23.382Z</time></trkpt><trkpt lat="33.207405" lon="-8.0848567"><ele>155.0</ele><time>2026-04-26T16:45:24.382Z</time></trkpt><trkpt lat="33.207545" lon="-8.0847733"><ele>155.0</ele><time>2026-04-26T16:45:25.383Z</time></trkpt><trkpt lat="33.2076867" lon="-8.084695"><ele>155.0</ele><time>2026-04-26T16:45:26.382Z</time></trkpt><trkpt lat="33.20782" lon="-8.084625"><ele>155.0</ele><time>2026-04-26T16:45:27.382Z</time></trkpt><trkpt lat="33.207955" lon="-8.0845483"><ele>155.0</ele><time>2026-04-26T16:45:28.382Z</time></trkpt><trkpt lat="33.2081017" lon="-8.0844617"><ele>155.0</ele><time>2026-04-26T16:45:29.382Z</time></trkpt><trkpt lat="33.20825" lon="-8.0843683"><ele>155.33333333333331</ele><time>2026-04-26T16:45:30.382Z</time></trkpt><trkpt lat="33.2084" lon="-8.0842783"><ele>155.66666666666666</ele><time>2026-04-26T16:45:31.382Z</time></trkpt><trkpt lat="33.2085417" lon="-8.08418"><ele>156.0</ele><time>2026-04-26T16:45:32.382Z</time></trkpt><trkpt lat="33.2086833" lon="-8.0840783"><ele>156.0</ele><time>2026-04-26T16:45:33.382Z</time></trkpt><trkpt lat="33.20881" lon="-8.0839733"><ele>156.0</ele><time>2026-04-26T16:45:34.382Z</time></trkpt><trkpt lat="33.2089267" lon="-8.0838717"><ele>156.0</ele><time>2026-04-26T16:45:35.382Z</time></trkpt><trkpt lat="33.2090367" lon="-8.08377"><ele>156.0</ele><time>2026-04-26T16:45:36.382Z</time></trkpt><trkpt lat="33.2091317" lon="-8.08367"><ele>155.4</ele><time>2026-04-26T16:45:37.382Z</time></trkpt><trkpt lat="33.2092133" lon="-8.0835717"><ele>154.8</ele><time>2026-04-26T16:45:38.382Z</time></trkpt><trkpt lat="33.2092817" lon="-8.0834783"><ele>154.20000000000002</ele><time>2026-04-26T16:45:39.382Z</time></trkpt><trkpt lat="33.209345" lon="-8.083385"><ele>153.6</ele><time>2026-04-26T16:45:40.382Z</time></trkpt><trkpt lat="33.2094133" lon="-8.0833017"><ele>153.0</ele><time>2026-04-26T16:45:41.382Z</time></trkpt><trkpt lat="33.20948" lon="-8.0832083"><ele>153.0</ele><time>2026-04-26T16:45:42.382Z</time></trkpt><trkpt lat="33.2095533" lon="-8.0831083"><ele>153.0</ele><time>2026-04-26T16:45:43.382Z</time></trkpt><trkpt lat="33.20963" lon="-8.0829983"><ele>153.0</ele><time>2026-04-26T16:45:44.382Z</time></trkpt><trkpt lat="33.20971" lon="-8.0828733"><ele>153.0</ele><time>2026-04-26T16:45:45.382Z</time></trkpt><trkpt lat="33.2097883" lon="-8.0827583"><ele>152.0</ele><time>2026-04-26T16:45:46.382Z</time></trkpt><trkpt lat="33.2098667" lon="-8.08265"><ele>151.0</ele><time>2026-04-26T16:45:47.382Z</time></trkpt><trkpt lat="33.2099467" lon="-8.0825317"><ele>150.0</ele><time>2026-04-26T16:45:48.382Z</time></trkpt><trkpt lat="33.2100283" lon="-8.0824167"><ele>149.0</ele><time>2026-04-26T16:45:49.382Z</time></trkpt><trkpt lat="33.2101083" lon="-8.0823"><ele>149.0</ele><time>2026-04-26T16:45:50.382Z</time></trkpt><trkpt lat="33.2101967" lon="-8.08218"><ele>149.0</ele><time>2026-04-26T16:45:51.382Z</time></trkpt><trkpt lat="33.210285" lon="-8.0820617"><ele>149.0</ele><time>2026-04-26T16:45:52.382Z</time></trkpt><trkpt lat="33.2103767" lon="-8.0819383"><ele>149.0</ele><time>2026-04-26T16:45:53.382Z</time></trkpt><trkpt lat="33.21046" lon="-8.081815"><ele>149.0</ele><time>2026-04-26T16:45:54.382Z</time></trkpt><trkpt lat="33.2105467" lon="-8.08169"><ele>149.0</ele><time>2026-04-26T16:45:55.382Z</time></trkpt><trkpt lat="33.21063" lon="-8.081565"><ele>149.0</ele><time>2026-04-26T16:45:56.382Z</time></trkpt><trkpt lat="33.210715" lon="-8.0814417"><ele>149.0</ele><time>2026-04-26T16:45:57.382Z</time></trkpt><trkpt lat="33.2108" lon="-8.0813167"><ele>150.75</ele><time>2026-04-26T16:45:58.382Z</time></trkpt><trkpt lat="33.210885" lon="-8.0811933"><ele>152.5</ele><time>2026-04-26T16:45:59.382Z</time></trkpt><trkpt lat="33.21097" lon="-8.081065"><ele>154.25</ele><time>2026-04-26T16:46:00.382Z</time></trkpt><trkpt lat="33.21106" lon="-8.08094"><ele>156.0</ele><time>2026-04-26T16:46:01.382Z</time></trkpt><trkpt lat="33.211145" lon="-8.0808117"><ele>156.5</ele><time>2026-04-26T16:46:02.382Z</time></trkpt><trkpt lat="33.2112367" lon="-8.0806883"><ele>157.0</ele><time>2026-04-26T16:46:03.382Z</time></trkpt><trkpt lat="33.2113333" lon="-8.0805717"><ele>157.5</ele><time>2026-04-26T16:46:04.382Z</time></trkpt><trkpt lat="33.211435" lon="-8.080465"><ele>158.0</ele><time>2026-04-26T16:46:05.382Z</time></trkpt><trkpt lat="33.2115367" lon="-8.0803633"><ele>158.0</ele><time>2026-04-26T16:46:06.382Z</time></trkpt><trkpt lat="33.2116433" lon="-8.0802683"><ele>158.0</ele><time>2026-04-26T16:46:07.382Z</time></trkpt><trkpt lat="33.211755" lon="-8.080175"><ele>158.0</ele><time>2026-04-26T16:46:08.382Z</time></trkpt><trkpt lat="33.211865" lon="-8.0800967"><ele>158.0</ele><time>2026-04-26T16:46:09.382Z</time></trkpt><trkpt lat="33.2119817" lon="-8.0800217"><ele>158.0</ele><time>2026-04-26T16:46:10.382Z</time></trkpt><trkpt lat="33.2120983" lon="-8.0799567"><ele>158.0</ele><time>2026-04-26T16:46:11.382Z</time></trkpt><trkpt lat="33.2122267" lon="-8.0798883"><ele>158.0</ele><time>2026-04-26T16:46:12.383Z</time></trkpt><trkpt lat="33.2123683" lon="-8.0798167"><ele>158.0</ele><time>2026-04-26T16:46:13.382Z</time></trkpt><trkpt lat="33.212505" lon="-8.0797467"><ele>158.75</ele><time>2026-04-26T16:46:14.382Z</time></trkpt><trkpt lat="33.212635" lon="-8.079685"><ele>159.5</ele><time>2026-04-26T16:46:15.382Z</time></trkpt><trkpt lat="33.2127683" lon="-8.079625"><ele>160.25</ele><time>2026-04-26T16:46:16.382Z</time></trkpt><trkpt lat="33.2128967" lon="-8.07957"><ele>161.0</ele><time>2026-04-26T16:46:17.382Z</time></trkpt><trkpt lat="33.213025" lon="-8.0795117"><ele>161.75</ele><time>2026-04-26T16:46:18.382Z</time></trkpt><trkpt lat="33.21316" lon="-8.07945"><ele>162.5</ele><time>2026-04-26T16:46:19.382Z</time></trkpt><trkpt lat="33.2132983" lon="-8.079385"><ele>163.25</ele><time>2026-04-26T16:46:20.382Z</time></trkpt><trkpt lat="33.21343" lon="-8.079315"><ele>164.0</ele><time>2026-04-26T16:46:21.382Z</time></trkpt><trkpt lat="33.2135667" lon="-8.07923"><ele>164.0</ele><time>2026-04-26T16:46:22.382Z</time></trkpt><trkpt lat="33.2137083" lon="-8.0791383"><ele>164.0</ele><time>2026-04-26T16:46:23.382Z</time></trkpt><trkpt lat="33.213855" lon="-8.0790367"><ele>164.0</ele><time>2026-04-26T16:46:24.382Z</time></trkpt><trkpt lat="33.2140117" lon="-8.0789367"><ele>164.0</ele><time>2026-04-26T16:46:25.382Z</time></trkpt><trkpt lat="33.21417" lon="-8.0788317"><ele>164.0</ele><time>2026-04-26T16:46:26.382Z</time></trkpt><trkpt lat="33.214325" lon="-8.07872"><ele>164.0</ele><time>2026-04-26T16:46:27.382Z</time></trkpt><trkpt lat="33.2144783" lon="-8.0785983"><ele>164.0</ele><time>2026-04-26T16:46:28.382Z</time></trkpt><trkpt lat="33.2146167" lon="-8.0784833"><ele>164.0</ele><time>2026-04-26T16:46:29.382Z</time></trkpt><trkpt lat="33.214755" lon="-8.0783717"><ele>164.0</ele><time>2026-04-26T16:46:30.382Z</time></trkpt><trkpt lat="33.2149" lon="-8.0782617"><ele>163.33333333333331</ele><time>2026-04-26T16:46:31.382Z</time></trkpt><trkpt lat="33.215055" lon="-8.0781533"><ele>162.66666666666666</ele><time>2026-04-26T16:46:32.382Z</time></trkpt><trkpt lat="33.2152133" lon="-8.0780383"><ele>162.0</ele><time>2026-04-26T16:46:33.382Z</time></trkpt><trkpt lat="33.215365" lon="-8.0779233"><ele>162.0</ele><time>2026-04-26T16:46:34.382Z</time></trkpt><trkpt lat="33.2155133" lon="-8.0778133"><ele>162.0</ele><time>2026-04-26T16:46:35.382Z</time></trkpt><trkpt lat="33.2156617" lon="-8.077705"><ele>162.0</ele><time>2026-04-26T16:46:36.382Z</time></trkpt><trkpt lat="33.21581" lon="-8.0775933"><ele>163.0</ele><time>2026-04-26T16:46:37.382Z</time></trkpt><trkpt lat="33.21596" lon="-8.077475"><ele>164.0</ele><time>2026-04-26T16:46:38.382Z</time></trkpt><trkpt lat="33.216105" lon="-8.07736"><ele>165.0</ele><time>2026-04-26T16:46:39.382Z</time></trkpt><trkpt lat="33.2162533" lon="-8.0772483"><ele>165.33333333333334</ele><time>2026-04-26T16:46:40.382Z</time></trkpt><trkpt lat="33.2164017" lon="-8.077135"><ele>165.66666666666669</ele><time>2026-04-26T16:46:41.382Z</time></trkpt><trkpt lat="33.216555" lon="-8.0770217"><ele>166.0</ele><time>2026-04-26T16:46:42.382Z</time></trkpt><trkpt lat="33.2167067" lon="-8.07691"><ele>166.0</ele><time>2026-04-26T16:46:43.382Z</time></trkpt><trkpt lat="33.2168617" lon="-8.0768017"><ele>166.0</ele><time>2026-04-26T16:46:44.382Z</time></trkpt><trkpt lat="33.21702" lon="-8.0766917"><ele>166.0</ele><time>2026-04-26T16:46:45.382Z</time></trkpt><trkpt lat="33.217175" lon="-8.07658"><ele>167.0</ele><time>2026-04-26T16:46:46.382Z</time></trkpt><trkpt lat="33.21732" lon="-8.0764767"><ele>168.0</ele><time>2026-04-26T16:46:47.382Z</time></trkpt><trkpt lat="33.2174617" lon="-8.0763683"><ele>169.0</ele><time>2026-04-26T16:46:48.382Z</time></trkpt><trkpt lat="33.2176067" lon="-8.076255"><ele>169.0</ele><time>2026-04-26T16:46:49.382Z</time></trkpt><trkpt lat="33.2177567" lon="-8.07615"><ele>169.0</ele><time>2026-04-26T16:46:50.382Z</time></trkpt><trkpt lat="33.2179083" lon="-8.0760517"><ele>169.0</ele><time>2026-04-26T16:46:51.382Z</time></trkpt><trkpt lat="33.21806" lon="-8.0759483"><ele>169.0</ele><time>2026-04-26T16:46:52.382Z</time></trkpt><trkpt lat="33.2182" lon="-8.0758467"><ele>169.0</ele><time>2026-04-26T16:46:53.382Z</time></trkpt><trkpt lat="33.21833" lon="-8.0757483"><ele>169.0</ele><time>2026-04-26T16:46:54.383Z</time></trkpt><trkpt lat="33.2184633" lon="-8.0756433"><ele>169.0</ele><time>2026-04-26T16:46:55.382Z</time></trkpt><trkpt lat="33.2186" lon="-8.0755367"><ele>169.0</ele><time>2026-04-26T16:46:56.382Z</time></trkpt><trkpt lat="33.2187433" lon="-8.0754233"><ele>169.0</ele><time>2026-04-26T16:46:57.383Z</time></trkpt><trkpt lat="33.2188817" lon="-8.0753117"><ele>169.0</ele><time>2026-04-26T16:46:58.382Z</time></trkpt><trkpt lat="33.2190167" lon="-8.0752033"><ele>169.0</ele><time>2026-04-26T16:46:59.382Z</time></trkpt><trkpt lat="33.2191467" lon="-8.075105"><ele>169.0</ele><time>2026-04-26T16:47:00.382Z</time></trkpt><trkpt lat="33.2192667" lon="-8.07501"><ele>169.66666666666669</ele><time>2026-04-26T16:47:01.382Z</time></trkpt><trkpt lat="33.219395" lon="-8.0749167"><ele>170.33333333333334</ele><time>2026-04-26T16:47:02.382Z</time></trkpt><trkpt lat="33.2195367" lon="-8.07482"><ele>171.0</ele><time>2026-04-26T16:47:03.382Z</time></trkpt><trkpt lat="33.2196833" lon="-8.0747167"><ele>171.66666666666666</ele><time>2026-04-26T16:47:04.382Z</time></trkpt><trkpt lat="33.21983" lon="-8.0746067"><ele>172.33333333333331</ele><time>2026-04-26T16:47:05.382Z</time></trkpt><trkpt lat="33.2199717" lon="-8.0745"><ele>173.0</ele><time>2026-04-26T16:47:06.382Z</time></trkpt><trkpt lat="33.220115" lon="-8.0743933"><ele>173.0</ele><time>2026-04-26T16:47:07.382Z</time></trkpt><trkpt lat="33.2202617" lon="-8.07429"><ele>173.0</ele><time>2026-04-26T16:47:08.382Z</time></trkpt><trkpt lat="33.2204117" lon="-8.0741833"><ele>173.0</ele><time>2026-04-26T16:47:09.382Z</time></trkpt><trkpt lat="33.220555" lon="-8.0740583"><ele>173.66666666666666</ele><time>2026-04-26T16:47:10.382Z</time></trkpt><trkpt lat="33.2206867" lon="-8.07392"><ele>174.33333333333334</ele><time>2026-04-26T16:47:11.382Z</time></trkpt><trkpt lat="33.2208183" lon="-8.073765"><ele>175.0</ele><time>2026-04-26T16:47:12.383Z</time></trkpt><trkpt lat="33.2209467" lon="-8.0735983"><ele>175.0</ele><time>2026-04-26T16:47:13.382Z</time></trkpt><trkpt lat="33.2210533" lon="-8.0734317"><ele>175.0</ele><time>2026-04-26T16:47:14.382Z</time></trkpt><trkpt lat="33.22115" lon="-8.07325"><ele>175.0</ele><time>2026-04-26T16:47:15.382Z</time></trkpt><trkpt lat="33.2212417" lon="-8.0730667"><ele>176.0</ele><time>2026-04-26T16:47:16.382Z</time></trkpt><trkpt lat="33.2213217" lon="-8.0728767"><ele>177.0</ele><time>2026-04-26T16:47:17.382Z</time></trkpt><trkpt lat="33.2213867" lon="-8.0726783"><ele>178.0</ele><time>2026-04-26T16:47:18.382Z</time></trkpt><trkpt lat="33.2214433" lon="-8.0724783"><ele>175.66666666666669</ele><time>2026-04-26T16:47:19.382Z</time></trkpt><trkpt lat="33.2214883" lon="-8.072275"><ele>173.33333333333334</ele><time>2026-04-26T16:47:20.382Z</time></trkpt><trkpt lat="33.2215217" lon="-8.0720833"><ele>171.0</ele><time>2026-04-26T16:47:21.382Z</time></trkpt><trkpt lat="33.2215433" lon="-8.0718867"><ele>171.0</ele><time>2026-04-26T16:47:22.382Z</time></trkpt><trkpt lat="33.2215667" lon="-8.0716883"><ele>171.0</ele><time>2026-04-26T16:47:23.382Z</time></trkpt><trkpt lat="33.2215867" lon="-8.0714833"><ele>171.0</ele><time>2026-04-26T16:47:24.382Z</time></trkpt><trkpt lat="33.2216117" lon="-8.07127"><ele>171.0</ele><time>2026-04-26T16:47:25.382Z</time></trkpt><trkpt lat="33.221625" lon="-8.0710617"><ele>171.0</ele><time>2026-04-26T16:47:26.382Z</time></trkpt><trkpt lat="33.2216417" lon="-8.07085"><ele>171.0</ele><time>2026-04-26T16:47:27.382Z</time></trkpt><trkpt lat="33.22166" lon="-8.07064"><ele>171.0</ele><time>2026-04-26T16:47:28.382Z</time></trkpt><trkpt lat="33.2216817" lon="-8.070435"><ele>171.0</ele><time>2026-04-26T16:47:29.382Z</time></trkpt><trkpt lat="33.2217017" lon="-8.0702383"><ele>171.0</ele><time>2026-04-26T16:47:30.382Z</time></trkpt><trkpt lat="33.2217217" lon="-8.0700417"><ele>170.66666666666666</ele><time>2026-04-26T16:47:31.382Z</time></trkpt><trkpt lat="33.2217433" lon="-8.069845"><ele>170.33333333333331</ele><time>2026-04-26T16:47:32.382Z</time></trkpt><trkpt lat="33.2217683" lon="-8.0696517"><ele>170.0</ele><time>2026-04-26T16:47:33.382Z</time></trkpt><trkpt lat="33.2217933" lon="-8.0694583"><ele>170.0</ele><time>2026-04-26T16:47:34.382Z</time></trkpt><trkpt lat="33.2218267" lon="-8.0692617"><ele>170.0</ele><time>2026-04-26T16:47:35.382Z</time></trkpt><trkpt lat="33.2218683" lon="-8.0690567"><ele>170.0</ele><time>2026-04-26T16:47:36.383Z</time></trkpt><trkpt lat="33.2219283" lon="-8.068865"><ele>171.33333333333331</ele><time>2026-04-26T16:47:37.382Z</time></trkpt><trkpt lat="33.221995" lon="-8.06868"><ele>172.66666666666666</ele><time>2026-04-26T16:47:38.382Z</time></trkpt><trkpt lat="33.2220717" lon="-8.0684933"><ele>174.0</ele><time>2026-04-26T16:47:39.382Z</time></trkpt><trkpt lat="33.222145" lon="-8.068315"><ele>174.0</ele><time>2026-04-26T16:47:40.382Z</time></trkpt><trkpt lat="33.2222217" lon="-8.0681533"><ele>174.0</ele><time>2026-04-26T16:47:41.382Z</time></trkpt><trkpt lat="33.2223017" lon="-8.0680133"><ele>174.0</ele><time>2026-04-26T16:47:42.382Z</time></trkpt><trkpt lat="33.22238" lon="-8.067875"><ele>174.0</ele><time>2026-04-26T16:47:43.383Z</time></trkpt><trkpt lat="33.22246" lon="-8.0677167"><ele>174.0</ele><time>2026-04-26T16:47:44.382Z</time></trkpt><trkpt lat="33.2225333" lon="-8.06754"><ele>174.0</ele><time>2026-04-26T16:47:45.382Z</time></trkpt><trkpt lat="33.2226117" lon="-8.067355"><ele>174.0</ele><time>2026-04-26T16:47:46.382Z</time></trkpt><trkpt lat="33.2226967" lon="-8.0671767"><ele>173.66666666666666</ele><time>2026-04-26T16:47:47.382Z</time></trkpt><trkpt lat="33.2227783" lon="-8.0670133"><ele>173.33333333333331</ele><time>2026-04-26T16:47:48.382Z</time></trkpt><trkpt lat="33.2228617" lon="-8.0668617"><ele>173.0</ele><time>2026-04-26T16:47:49.382Z</time></trkpt><trkpt lat="33.2229383" lon="-8.0667"><ele>172.66666666666666</ele><time>2026-04-26T16:47:50.382Z</time></trkpt><trkpt lat="33.2230217" lon="-8.0665317"><ele>172.33333333333334</ele><time>2026-04-26T16:47:51.382Z</time></trkpt><trkpt lat="33.2231067" lon="-8.0663483"><ele>172.0</ele><time>2026-04-26T16:47:52.382Z</time></trkpt><trkpt lat="33.22319" lon="-8.0661533"><ele>172.0</ele><time>2026-04-26T16:47:53.382Z</time></trkpt><trkpt lat="33.223275" lon="-8.0659583"><ele>172.0</ele><time>2026-04-26T16:47:54.382Z</time></trkpt><trkpt lat="33.2233633" lon="-8.0657617"><ele>172.0</ele><time>2026-04-26T16:47:55.382Z</time></trkpt><trkpt lat="33.223455" lon="-8.065565"><ele>172.33333333333334</ele><time>2026-04-26T16:47:56.382Z</time></trkpt><trkpt lat="33.2235417" lon="-8.06538"><ele>172.66666666666666</ele><time>2026-04-26T16:47:57.382Z</time></trkpt><trkpt lat="33.2236317" lon="-8.0651967"><ele>173.0</ele><time>2026-04-26T16:47:58.382Z</time></trkpt><trkpt lat="33.2237233" lon="-8.0650133"><ele>173.0</ele><time>2026-04-26T16:47:59.382Z</time></trkpt><trkpt lat="33.2238133" lon="-8.06482"><ele>173.0</ele><time>2026-04-26T16:48:00.382Z</time></trkpt><trkpt lat="33.2239083" lon="-8.0646333"><ele>173.0</ele><time>2026-04-26T16:48:01.382Z</time></trkpt><trkpt lat="33.224" lon="-8.0644367"><ele>173.0</ele><time>2026-04-26T16:48:02.382Z</time></trkpt><trkpt lat="33.2240917" lon="-8.0642433"><ele>173.0</ele><time>2026-04-26T16:48:03.382Z</time></trkpt><trkpt lat="33.2241817" lon="-8.0640517"><ele>173.0</ele><time>2026-04-26T16:48:04.382Z</time></trkpt><trkpt lat="33.2242767" lon="-8.0638683"><ele>173.0</ele><time>2026-04-26T16:48:05.382Z</time></trkpt><trkpt lat="33.2243683" lon="-8.0636767"><ele>173.0</ele><time>2026-04-26T16:48:06.382Z</time></trkpt><trkpt lat="33.2244533" lon="-8.063485"><ele>173.0</ele><time>2026-04-26T16:48:07.382Z</time></trkpt><trkpt lat="33.224545" lon="-8.0633"><ele>173.0</ele><time>2026-04-26T16:48:08.382Z</time></trkpt><trkpt lat="33.2246433" lon="-8.063115"><ele>173.0</ele><time>2026-04-26T16:48:09.382Z</time></trkpt><trkpt lat="33.224735" lon="-8.0629333"><ele>173.0</ele><time>2026-04-26T16:48:10.382Z</time></trkpt><trkpt lat="33.2248233" lon="-8.062755"><ele>172.0</ele><time>2026-04-26T16:48:11.382Z</time></trkpt><trkpt lat="33.2249083" lon="-8.06258"><ele>171.0</ele><time>2026-04-26T16:48:12.382Z</time></trkpt><trkpt lat="33.2249933" lon="-8.0624017"><ele>170.0</ele><time>2026-04-26T16:48:13.382Z</time></trkpt><trkpt lat="33.2250817" lon="-8.062215"><ele>169.66666666666666</ele><time>2026-04-26T16:48:14.382Z</time></trkpt><trkpt lat="33.2251717" lon="-8.062015"><ele>169.33333333333334</ele><time>2026-04-26T16:48:15.382Z</time></trkpt><trkpt lat="33.22527" lon="-8.061815"><ele>169.0</ele><time>2026-04-26T16:48:16.382Z</time></trkpt><trkpt lat="33.2253733" lon="-8.0616083"><ele>169.0</ele><time>2026-04-26T16:48:17.382Z</time></trkpt><trkpt lat="33.2254817" lon="-8.0613967"><ele>169.0</ele><time>2026-04-26T16:48:18.382Z</time></trkpt><trkpt lat="33.2255983" lon="-8.0611917"><ele>169.0</ele><time>2026-04-26T16:48:19.382Z</time></trkpt><trkpt lat="33.22572" lon="-8.0610033"><ele>169.0</ele><time>2026-04-26T16:48:20.382Z</time></trkpt><trkpt lat="33.225845" lon="-8.0608217"><ele>169.0</ele><time>2026-04-26T16:48:21.382Z</time></trkpt><trkpt lat="33.2259767" lon="-8.0606533"><ele>169.0</ele><time>2026-04-26T16:48:22.382Z</time></trkpt><trkpt lat="33.226115" lon="-8.060485"><ele>168.33333333333334</ele><time>2026-04-26T16:48:23.383Z</time></trkpt><trkpt lat="33.2262633" lon="-8.0603233"><ele>167.66666666666666</ele><time>2026-04-26T16:48:24.382Z</time></trkpt><trkpt lat="33.2264133" lon="-8.06017"><ele>167.0</ele><time>2026-04-26T16:48:25.383Z</time></trkpt><trkpt lat="33.2265533" lon="-8.0600133"><ele>168.33333333333331</ele><time>2026-04-26T16:48:26.382Z</time></trkpt><trkpt lat="33.22669" lon="-8.05986"><ele>169.66666666666666</ele><time>2026-04-26T16:48:27.382Z</time></trkpt><trkpt lat="33.22683" lon="-8.0597083"><ele>171.0</ele><time>2026-04-26T16:48:28.382Z</time></trkpt><trkpt lat="33.2269683" lon="-8.0595567"><ele>171.0</ele><time>2026-04-26T16:48:29.382Z</time></trkpt><trkpt lat="33.2271117" lon="-8.0594083"><ele>171.0</ele><time>2026-04-26T16:48:30.382Z</time></trkpt><trkpt lat="33.227255" lon="-8.059265"><ele>171.0</ele><time>2026-04-26T16:48:31.382Z</time></trkpt><trkpt lat="33.2273933" lon="-8.0591267"><ele>170.0</ele><time>2026-04-26T16:48:32.382Z</time></trkpt><trkpt lat="33.2275383" lon="-8.0589933"><ele>169.0</ele><time>2026-04-26T16:48:33.382Z</time></trkpt><trkpt lat="33.2276867" lon="-8.0588717"><ele>168.0</ele><time>2026-04-26T16:48:34.382Z</time></trkpt><trkpt lat="33.22785" lon="-8.0587583"><ele>168.0</ele><time>2026-04-26T16:48:35.382Z</time></trkpt><trkpt lat="33.2280233" lon="-8.0586567"><ele>168.0</ele><time>2026-04-26T16:48:36.382Z</time></trkpt><trkpt lat="33.2282017" lon="-8.0585717"><ele>168.0</ele><time>2026-04-26T16:48:37.382Z</time></trkpt><trkpt lat="33.2283717" lon="-8.0585067"><ele>168.66666666666666</ele><time>2026-04-26T16:48:38.382Z</time></trkpt><trkpt lat="33.2285533" lon="-8.0584533"><ele>169.33333333333331</ele><time>2026-04-26T16:48:39.382Z</time></trkpt><trkpt lat="33.22874" lon="-8.058405"><ele>170.0</ele><time>2026-04-26T16:48:40.382Z</time></trkpt><trkpt lat="33.2289367" lon="-8.0583717"><ele>167.66666666666666</ele><time>2026-04-26T16:48:41.382Z</time></trkpt><trkpt lat="33.2291383" lon="-8.0583467"><ele>165.33333333333334</ele><time>2026-04-26T16:48:42.382Z</time></trkpt><trkpt lat="33.22935" lon="-8.0583183"><ele>163.0</ele><time>2026-04-26T16:48:43.382Z</time></trkpt><trkpt lat="33.2295583" lon="-8.0582883"><ele>163.0</ele><time>2026-04-26T16:48:44.382Z</time></trkpt><trkpt lat="33.2297567" lon="-8.0582617"><ele>163.0</ele><time>2026-04-26T16:48:45.382Z</time></trkpt><trkpt lat="33.22995" lon="-8.058225"><ele>163.0</ele><time>2026-04-26T16:48:46.382Z</time></trkpt><trkpt lat="33.2301517" lon="-8.0581917"><ele>163.0</ele><time>2026-04-26T16:48:47.382Z</time></trkpt><trkpt lat="33.2303533" lon="-8.0581583"><ele>163.0</ele><time>2026-04-26T16:48:48.382Z</time></trkpt><trkpt lat="33.23055" lon="-8.0581233"><ele>163.0</ele><time>2026-04-26T16:48:49.382Z</time></trkpt><trkpt lat="33.230745" lon="-8.0580933"><ele>163.0</ele><time>2026-04-26T16:48:50.382Z</time></trkpt><trkpt lat="33.23093" lon="-8.05806"><ele>163.0</ele><time>2026-04-26T16:48:51.382Z</time></trkpt><trkpt lat="33.2311133" lon="-8.0580367"><ele>163.0</ele><time>2026-04-26T16:48:52.382Z</time></trkpt><trkpt lat="33.231295" lon="-8.0580067"><ele>163.0</ele><time>2026-04-26T16:48:53.382Z</time></trkpt><trkpt lat="33.2314733" lon="-8.0579667"><ele>163.0</ele><time>2026-04-26T16:48:54.382Z</time></trkpt><trkpt lat="33.2316517" lon="-8.057915"><ele>163.0</ele><time>2026-04-26T16:48:55.382Z</time></trkpt><trkpt lat="33.231825" lon="-8.0578517"><ele>162.33333333333334</ele><time>2026-04-26T16:48:56.382Z</time></trkpt><trkpt lat="33.2320083" lon="-8.057795"><ele>161.66666666666666</ele><time>2026-04-26T16:48:57.382Z</time></trkpt><trkpt lat="33.232195" lon="-8.057735"><ele>161.0</ele><time>2026-04-26T16:48:58.382Z</time></trkpt><trkpt lat="33.2323783" lon="-8.0576767"><ele>161.0</ele><time>2026-04-26T16:48:59.382Z</time></trkpt><trkpt lat="33.232565" lon="-8.0576117"><ele>161.0</ele><time>2026-04-26T16:49:00.382Z</time></trkpt><trkpt lat="33.23275" lon="-8.0575417"><ele>161.0</ele><time>2026-04-26T16:49:01.382Z</time></trkpt><trkpt lat="33.232935" lon="-8.0574733"><ele>161.66666666666666</ele><time>2026-04-26T16:49:02.382Z</time></trkpt><trkpt lat="33.2331217" lon="-8.0574017"><ele>162.33333333333334</ele><time>2026-04-26T16:49:03.382Z</time></trkpt><trkpt lat="33.2333117" lon="-8.0573383"><ele>163.0</ele><time>2026-04-26T16:49:04.382Z</time></trkpt><trkpt lat="33.2335033" lon="-8.0572733"><ele>163.0</ele><time>2026-04-26T16:49:05.382Z</time></trkpt><trkpt lat="33.2336933" lon="-8.0572133"><ele>163.0</ele><time>2026-04-26T16:49:06.382Z</time></trkpt><trkpt lat="33.2338833" lon="-8.05715"><ele>163.0</ele><time>2026-04-26T16:49:07.383Z</time></trkpt><trkpt lat="33.2340783" lon="-8.057085"><ele>163.0</ele><time>2026-04-26T16:49:08.382Z</time></trkpt><trkpt lat="33.23427" lon="-8.0570183"><ele>163.0</ele><time>2026-04-26T16:49:09.383Z</time></trkpt><trkpt lat="33.234455" lon="-8.0569567"><ele>163.0</ele><time>2026-04-26T16:49:10.382Z</time></trkpt><trkpt lat="33.2346333" lon="-8.0568933"><ele>163.0</ele><time>2026-04-26T16:49:11.382Z</time></trkpt><trkpt lat="33.2348033" lon="-8.0568267"><ele>163.0</ele><time>2026-04-26T16:49:12.382Z</time></trkpt><trkpt lat="33.2349717" lon="-8.05676"><ele>163.0</ele><time>2026-04-26T16:49:13.382Z</time></trkpt><trkpt lat="33.2351417" lon="-8.0566983"><ele>162.66666666666669</ele><time>2026-04-26T16:49:14.382Z</time></trkpt><trkpt lat="33.2353133" lon="-8.0566333"><ele>162.33333333333334</ele><time>2026-04-26T16:49:15.382Z</time></trkpt><trkpt lat="33.2354817" lon="-8.05657"><ele>162.0</ele><time>2026-04-26T16:49:16.382Z</time></trkpt><trkpt lat="33.23565" lon="-8.0565117"><ele>160.66666666666666</ele><time>2026-04-26T16:49:17.382Z</time></trkpt><trkpt lat="33.2358233" lon="-8.0564533"><ele>159.33333333333331</ele><time>2026-04-26T16:49:18.382Z</time></trkpt><trkpt lat="33.235995" lon="-8.0563967"><ele>158.0</ele><time>2026-04-26T16:49:19.382Z</time></trkpt><trkpt lat="33.236175" lon="-8.0563383"><ele>158.0</ele><time>2026-04-26T16:49:20.382Z</time></trkpt><trkpt lat="33.2363583" lon="-8.0562767"><ele>158.0</ele><time>2026-04-26T16:49:21.382Z</time></trkpt><trkpt lat="33.2365417" lon="-8.056215"><ele>158.0</ele><time>2026-04-26T16:49:22.382Z</time></trkpt><trkpt lat="33.23672" lon="-8.0561533"><ele>159.66666666666666</ele><time>2026-04-26T16:49:23.382Z</time></trkpt><trkpt lat="33.2369" lon="-8.056095"><ele>161.33333333333334</ele><time>2026-04-26T16:49:24.382Z</time></trkpt><trkpt lat="33.2370733" lon="-8.0560417"><ele>163.0</ele><time>2026-04-26T16:49:25.382Z</time></trkpt><trkpt lat="33.2372433" lon="-8.0559783"><ele>162.66666666666669</ele><time>2026-04-26T16:49:26.382Z</time></trkpt><trkpt lat="33.2374167" lon="-8.05591"><ele>162.33333333333334</ele><time>2026-04-26T16:49:27.382Z</time></trkpt><trkpt lat="33.2375833" lon="-8.0558383"><ele>162.0</ele><time>2026-04-26T16:49:28.382Z</time></trkpt><trkpt lat="33.2377483" lon="-8.0557617"><ele>162.0</ele><time>2026-04-26T16:49:29.382Z</time></trkpt><trkpt lat="33.2379067" lon="-8.0556767"><ele>162.0</ele><time>2026-04-26T16:49:30.382Z</time></trkpt><trkpt lat="33.2380667" lon="-8.0555817"><ele>162.0</ele><time>2026-04-26T16:49:31.382Z</time></trkpt><trkpt lat="33.238225" lon="-8.055485"><ele>161.66666666666666</ele><time>2026-04-26T16:49:32.382Z</time></trkpt><trkpt lat="33.2383817" lon="-8.05538"><ele>161.33333333333331</ele><time>2026-04-26T16:49:33.382Z</time></trkpt><trkpt lat="33.23853" lon="-8.05526"><ele>161.0</ele><time>2026-04-26T16:49:34.382Z</time></trkpt><trkpt lat="33.238675" lon="-8.05513"><ele>161.0</ele><time>2026-04-26T16:49:35.382Z</time></trkpt><trkpt lat="33.2388217" lon="-8.05499"><ele>161.0</ele><time>2026-04-26T16:49:36.382Z</time></trkpt><trkpt lat="33.2389617" lon="-8.05484"><ele>161.0</ele><time>2026-04-26T16:49:37.382Z</time></trkpt><trkpt lat="33.2390983" lon="-8.0546833"><ele>161.33333333333331</ele><time>2026-04-26T16:49:38.382Z</time></trkpt><trkpt lat="33.2392333" lon="-8.0545217"><ele>161.66666666666666</ele><time>2026-04-26T16:49:39.382Z</time></trkpt><trkpt lat="33.2393683" lon="-8.05435"><ele>162.0</ele><time>2026-04-26T16:49:40.383Z</time></trkpt><trkpt lat="33.239495" lon="-8.0541733"><ele>161.66666666666666</ele><time>2026-04-26T16:49:41.382Z</time></trkpt><trkpt lat="33.2396133" lon="-8.0539867"><ele>161.33333333333331</ele><time>2026-04-26T16:49:42.382Z</time></trkpt><trkpt lat="33.23973" lon="-8.053795"><ele>161.0</ele><time>2026-04-26T16:49:43.382Z</time></trkpt><trkpt lat="33.2398383" lon="-8.05359"><ele>161.0</ele><time>2026-04-26T16:49:44.382Z</time></trkpt><trkpt lat="33.2399367" lon="-8.0533933"><ele>161.0</ele><time>2026-04-26T16:49:45.382Z</time></trkpt><trkpt lat="33.2400267" lon="-8.053205"><ele>161.0</ele><time>2026-04-26T16:49:46.382Z</time></trkpt><trkpt lat="33.2401167" lon="-8.0530217"><ele>162.33333333333331</ele><time>2026-04-26T16:49:47.382Z</time></trkpt><trkpt lat="33.2402067" lon="-8.0528383"><ele>163.66666666666666</ele><time>2026-04-26T16:49:48.382Z</time></trkpt><trkpt lat="33.2402983" lon="-8.0526583"><ele>165.0</ele><time>2026-04-26T16:49:49.382Z</time></trkpt><trkpt lat="33.2403933" lon="-8.0524833"><ele>166.33333333333334</ele><time>2026-04-26T16:49:50.382Z</time></trkpt><trkpt lat="33.2404867" lon="-8.0523033"><ele>167.66666666666669</ele><time>2026-04-26T16:49:51.382Z</time></trkpt><trkpt lat="33.24058" lon="-8.0521217"><ele>169.0</ele><time>2026-04-26T16:49:52.382Z</time></trkpt><trkpt lat="33.2406683" lon="-8.0519467"><ele>169.0</ele><time>2026-04-26T16:49:53.382Z</time></trkpt><trkpt lat="33.2407583" lon="-8.0517683"><ele>169.0</ele><time>2026-04-26T16:49:54.382Z</time></trkpt><trkpt lat="33.24085" lon="-8.0515867"><ele>169.0</ele><time>2026-04-26T16:49:55.382Z</time></trkpt><trkpt lat="33.24094" lon="-8.0514117"><ele>169.0</ele><time>2026-04-26T16:49:56.383Z</time></trkpt><trkpt lat="33.2410367" lon="-8.0512333"><ele>169.0</ele><time>2026-04-26T16:49:57.382Z</time></trkpt><trkpt lat="33.2411383" lon="-8.0510533"><ele>169.0</ele><time>2026-04-26T16:49:58.382Z</time></trkpt><trkpt lat="33.2412283" lon="-8.05087"><ele>169.0</ele><time>2026-04-26T16:49:59.382Z</time></trkpt><trkpt lat="33.24132" lon="-8.0506833"><ele>169.0</ele><time>2026-04-26T16:50:00.382Z</time></trkpt><trkpt lat="33.2414117" lon="-8.050505"><ele>169.0</ele><time>2026-04-26T16:50:01.382Z</time></trkpt><trkpt lat="33.2415" lon="-8.050325"><ele>169.0</ele><time>2026-04-26T16:50:02.382Z</time></trkpt><trkpt lat="33.2415933" lon="-8.0501383"><ele>169.0</ele><time>2026-04-26T16:50:03.382Z</time></trkpt><trkpt lat="33.2416817" lon="-8.0499583"><ele>169.0</ele><time>2026-04-26T16:50:04.382Z</time></trkpt><trkpt lat="33.241775" lon="-8.0497817"><ele>169.0</ele><time>2026-04-26T16:50:05.382Z</time></trkpt><trkpt lat="33.241865" lon="-8.0496017"><ele>169.0</ele><time>2026-04-26T16:50:06.382Z</time></trkpt><trkpt lat="33.2419583" lon="-8.04942"><ele>169.0</ele><time>2026-04-26T16:50:07.382Z</time></trkpt><trkpt lat="33.2420483" lon="-8.0492367"><ele>169.0</ele><time>2026-04-26T16:50:08.383Z</time></trkpt><trkpt lat="33.242135" lon="-8.0490583"><ele>169.0</ele><time>2026-04-26T16:50:09.382Z</time></trkpt><trkpt lat="33.24223" lon="-8.0488833"><ele>169.0</ele><time>2026-04-26T16:50:10.382Z</time></trkpt><trkpt lat="33.2423217" lon="-8.0487"><ele>169.0</ele><time>2026-04-26T16:50:11.382Z</time></trkpt><trkpt lat="33.2424167" lon="-8.0485167"><ele>169.0</ele><time>2026-04-26T16:50:12.382Z</time></trkpt><trkpt lat="33.2425067" lon="-8.0483333"><ele>169.0</ele><time>2026-04-26T16:50:13.382Z</time></trkpt><trkpt lat="33.2425983" lon="-8.0481467"><ele>169.0</ele><time>2026-04-26T16:50:14.382Z</time></trkpt><trkpt lat="33.242685" lon="-8.0479583"><ele>169.0</ele><time>2026-04-26T16:50:15.382Z</time></trkpt><trkpt lat="33.2427783" lon="-8.0477717"><ele>169.0</ele><time>2026-04-26T16:50:16.382Z</time></trkpt><trkpt lat="33.242875" lon="-8.0475883"><ele>169.33333333333334</ele><time>2026-04-26T16:50:17.382Z</time></trkpt><trkpt lat="33.2429683" lon="-8.0474033"><ele>169.66666666666666</ele><time>2026-04-26T16:50:18.382Z</time></trkpt><trkpt lat="33.2430583" lon="-8.0472133"><ele>170.0</ele><time>2026-04-26T16:50:19.383Z</time></trkpt><trkpt lat="33.2431567" lon="-8.0470267"><ele>170.0</ele><time>2026-04-26T16:50:20.382Z</time></trkpt><trkpt lat="33.24325" lon="-8.04684"><ele>170.0</ele><time>2026-04-26T16:50:21.382Z</time></trkpt><trkpt lat="33.243345" lon="-8.0466633"><ele>170.0</ele><time>2026-04-26T16:50:22.382Z</time></trkpt><trkpt lat="33.243425" lon="-8.046485"><ele>170.0</ele><time>2026-04-26T16:50:23.382Z</time></trkpt><trkpt lat="33.24351" lon="-8.0463167"><ele>170.0</ele><time>2026-04-26T16:50:24.382Z</time></trkpt><trkpt lat="33.2435983" lon="-8.0461467"><ele>170.0</ele><time>2026-04-26T16:50:25.382Z</time></trkpt><trkpt lat="33.243685" lon="-8.04597"><ele>170.66666666666666</ele><time>2026-04-26T16:50:26.382Z</time></trkpt><trkpt lat="33.2437767" lon="-8.04579"><ele>171.33333333333334</ele><time>2026-04-26T16:50:27.382Z</time></trkpt><trkpt lat="33.24387" lon="-8.0456117"><ele>172.0</ele><time>2026-04-26T16:50:28.382Z</time></trkpt><trkpt lat="33.2439633" lon="-8.04544"><ele>171.66666666666669</ele><time>2026-04-26T16:50:29.382Z</time></trkpt><trkpt lat="33.244055" lon="-8.04526"><ele>171.33333333333334</ele><time>2026-04-26T16:50:30.382Z</time></trkpt><trkpt lat="33.2441483" lon="-8.0450783"><ele>171.0</ele><time>2026-04-26T16:50:31.382Z</time></trkpt><trkpt lat="33.244245" lon="-8.044895"><ele>171.0</ele><time>2026-04-26T16:50:32.382Z</time></trkpt><trkpt lat="33.2443367" lon="-8.04471"><ele>171.0</ele><time>2026-04-26T16:50:33.382Z</time></trkpt><trkpt lat="33.244435" lon="-8.0445267"><ele>171.0</ele><time>2026-04-26T16:50:34.382Z</time></trkpt><trkpt lat="33.244535" lon="-8.04433"><ele>171.0</ele><time>2026-04-26T16:50:35.382Z</time></trkpt><trkpt lat="33.2446317" lon="-8.0441433"><ele>171.0</ele><time>2026-04-26T16:50:36.382Z</time></trkpt><trkpt lat="33.2447267" lon="-8.0439517"><ele>171.0</ele><time>2026-04-26T16:50:37.382Z</time></trkpt><trkpt lat="33.2448283" lon="-8.0437583"><ele>171.0</ele><time>2026-04-26T16:50:38.382Z</time></trkpt><trkpt lat="33.2449217" lon="-8.0435633"><ele>171.0</ele><time>2026-04-26T16:50:39.382Z</time></trkpt><trkpt lat="33.2450167" lon="-8.04337"><ele>171.0</ele><time>2026-04-26T16:50:40.382Z</time></trkpt><trkpt lat="33.2451167" lon="-8.0431767"><ele>171.0</ele><time>2026-04-26T16:50:41.382Z</time></trkpt><trkpt lat="33.245215" lon="-8.04298"><ele>171.0</ele><time>2026-04-26T16:50:42.382Z</time></trkpt><trkpt lat="33.24531" lon="-8.042785"><ele>171.0</ele><time>2026-04-26T16:50:43.382Z</time></trkpt><trkpt lat="33.2454033" lon="-8.0426"><ele>171.0</ele><time>2026-04-26T16:50:44.382Z</time></trkpt><trkpt lat="33.2454967" lon="-8.042425"><ele>171.0</ele><time>2026-04-26T16:50:45.382Z</time></trkpt><trkpt lat="33.24558" lon="-8.042255"><ele>171.0</ele><time>2026-04-26T16:50:46.382Z</time></trkpt><trkpt lat="33.2456633" lon="-8.0420817"><ele>171.0</ele><time>2026-04-26T16:50:47.382Z</time></trkpt><trkpt lat="33.2457483" lon="-8.041915"><ele>171.0</ele><time>2026-04-26T16:50:48.383Z</time></trkpt><trkpt lat="33.2458267" lon="-8.0417483"><ele>171.0</ele><time>2026-04-26T16:50:49.382Z</time></trkpt><trkpt lat="33.24591" lon="-8.0415783"><ele>170.66666666666666</ele><time>2026-04-26T16:50:50.382Z</time></trkpt><trkpt lat="33.2459983" lon="-8.041405"><ele>170.33333333333331</ele><time>2026-04-26T16:50:51.382Z</time></trkpt><trkpt lat="33.2460883" lon="-8.041225"><ele>170.0</ele><time>2026-04-26T16:50:52.382Z</time></trkpt><trkpt lat="33.2461783" lon="-8.041045"><ele>170.0</ele><time>2026-04-26T16:50:53.382Z</time></trkpt><trkpt lat="33.2462667" lon="-8.0408733"><ele>170.0</ele><time>2026-04-26T16:50:54.382Z</time></trkpt><trkpt lat="33.2463483" lon="-8.0406933"><ele>170.0</ele><time>2026-04-26T16:50:55.382Z</time></trkpt><trkpt lat="33.24644" lon="-8.0405183"><ele>171.66666666666666</ele><time>2026-04-26T16:50:56.382Z</time></trkpt><trkpt lat="33.2465283" lon="-8.04034"><ele>173.33333333333334</ele><time>2026-04-26T16:50:57.382Z</time></trkpt><trkpt lat="33.2466117" lon="-8.0401733"><ele>175.0</ele><time>2026-04-26T16:50:58.382Z</time></trkpt><trkpt lat="33.246695" lon="-8.04"><ele>173.66666666666669</ele><time>2026-04-26T16:50:59.382Z</time></trkpt><trkpt lat="33.2467833" lon="-8.0398317"><ele>172.33333333333334</ele><time>2026-04-26T16:51:00.382Z</time></trkpt><trkpt lat="33.24687" lon="-8.0396667"><ele>171.0</ele><time>2026-04-26T16:51:01.383Z</time></trkpt><trkpt lat="33.2469533" lon="-8.0394967"><ele>171.0</ele><time>2026-04-26T16:51:02.382Z</time></trkpt><trkpt lat="33.2470367" lon="-8.0393217"><ele>171.0</ele><time>2026-04-26T16:51:03.382Z</time></trkpt><trkpt lat="33.2471167" lon="-8.0391433"><ele>171.0</ele><time>2026-04-26T16:51:04.382Z</time></trkpt><trkpt lat="33.2472067" lon="-8.0389633"><ele>171.66666666666666</ele><time>2026-04-26T16:51:05.382Z</time></trkpt><trkpt lat="33.2472933" lon="-8.0387867"><ele>172.33333333333331</ele><time>2026-04-26T16:51:06.382Z</time></trkpt><trkpt lat="33.2473733" lon="-8.03861"><ele>173.0</ele><time>2026-04-26T16:51:07.382Z</time></trkpt><trkpt lat="33.2474517" lon="-8.0384483"><ele>173.0</ele><time>2026-04-26T16:51:08.382Z</time></trkpt><trkpt lat="33.2475283" lon="-8.0383033"><ele>173.0</ele><time>2026-04-26T16:51:09.382Z</time></trkpt><trkpt lat="33.247605" lon="-8.0381633"><ele>173.0</ele><time>2026-04-26T16:51:10.382Z</time></trkpt><trkpt lat="33.2476767" lon="-8.03802"><ele>173.0</ele><time>2026-04-26T16:51:11.382Z</time></trkpt><trkpt lat="33.247745" lon="-8.0378783"><ele>173.25</ele><time>2026-04-26T16:51:12.382Z</time></trkpt><trkpt lat="33.2478167" lon="-8.0377467"><ele>173.5</ele><time>2026-04-26T16:51:13.382Z</time></trkpt><trkpt lat="33.2478817" lon="-8.0376233"><ele>173.75</ele><time>2026-04-26T16:51:14.382Z</time></trkpt><trkpt lat="33.247945" lon="-8.0375083"><ele>174.0</ele><time>2026-04-26T16:51:15.382Z</time></trkpt><trkpt lat="33.2480033" lon="-8.037395"><ele>174.0</ele><time>2026-04-26T16:51:16.382Z</time></trkpt><trkpt lat="33.24807" lon="-8.0372833"><ele>174.0</ele><time>2026-04-26T16:51:17.383Z</time></trkpt><trkpt lat="33.2481367" lon="-8.0371617"><ele>174.0</ele><time>2026-04-26T16:51:18.382Z</time></trkpt><trkpt lat="33.2482017" lon="-8.0370233"><ele>174.0</ele><time>2026-04-26T16:51:19.382Z</time></trkpt><trkpt lat="33.2482633" lon="-8.0368817"><ele>174.0</ele><time>2026-04-26T16:51:20.382Z</time></trkpt><trkpt lat="33.2483333" lon="-8.0367417"><ele>174.0</ele><time>2026-04-26T16:51:21.383Z</time></trkpt><trkpt lat="33.2484033" lon="-8.0365917"><ele>174.0</ele><time>2026-04-26T16:51:22.382Z</time></trkpt><trkpt lat="33.2484783" lon="-8.0364417"><ele>174.0</ele><time>2026-04-26T16:51:23.382Z</time></trkpt><trkpt lat="33.2485583" lon="-8.0362817"><ele>173.66666666666666</ele><time>2026-04-26T16:51:24.382Z</time></trkpt><trkpt lat="33.2486383" lon="-8.036115"><ele>173.33333333333331</ele><time>2026-04-26T16:51:25.382Z</time></trkpt><trkpt lat="33.2487217" lon="-8.035945"><ele>173.0</ele><time>2026-04-26T16:51:26.382Z</time></trkpt><trkpt lat="33.2488067" lon="-8.03577"><ele>172.33333333333331</ele><time>2026-04-26T16:51:27.382Z</time></trkpt><trkpt lat="33.2488917" lon="-8.0356"><ele>171.66666666666666</ele><time>2026-04-26T16:51:28.382Z</time></trkpt><trkpt lat="33.2489783" lon="-8.0354333"><ele>171.0</ele><time>2026-04-26T16:51:29.382Z</time></trkpt><trkpt lat="33.2490667" lon="-8.035255"><ele>171.0</ele><time>2026-04-26T16:51:30.382Z</time></trkpt><trkpt lat="33.24916" lon="-8.0350767"><ele>171.0</ele><time>2026-04-26T16:51:31.382Z</time></trkpt><trkpt lat="33.2492583" lon="-8.0349017"><ele>171.0</ele><time>2026-04-26T16:51:32.382Z</time></trkpt><trkpt lat="33.24936" lon="-8.03473"><ele>171.0</ele><time>2026-04-26T16:51:33.383Z</time></trkpt><trkpt lat="33.2494617" lon="-8.0345683"><ele>171.0</ele><time>2026-04-26T16:51:34.382Z</time></trkpt><trkpt lat="33.249565" lon="-8.03441"><ele>171.0</ele><time>2026-04-26T16:51:35.383Z</time></trkpt><trkpt lat="33.2496683" lon="-8.0342533"><ele>171.0</ele><time>2026-04-26T16:51:36.382Z</time></trkpt><trkpt lat="33.24977" lon="-8.03409"><ele>171.0</ele><time>2026-04-26T16:51:37.382Z</time></trkpt><trkpt lat="33.2498767" lon="-8.0339333"><ele>171.0</ele><time>2026-04-26T16:51:38.382Z</time></trkpt><trkpt lat="33.2499783" lon="-8.033775"><ele>171.25</ele><time>2026-04-26T16:51:39.382Z</time></trkpt><trkpt lat="33.250075" lon="-8.0336267"><ele>171.5</ele><time>2026-04-26T16:51:40.382Z</time></trkpt><trkpt lat="33.2501717" lon="-8.0334917"><ele>171.75</ele><time>2026-04-26T16:51:41.382Z</time></trkpt><trkpt lat="33.2502633" lon="-8.0333683"><ele>172.0</ele><time>2026-04-26T16:51:42.382Z</time></trkpt><trkpt lat="33.2503367" lon="-8.03325"><ele>172.0</ele><time>2026-04-26T16:51:43.382Z</time></trkpt><trkpt lat="33.2504" lon="-8.0331467"><ele>172.0</ele><time>2026-04-26T16:51:44.382Z</time></trkpt><trkpt lat="33.2504633" lon="-8.033055"><ele>172.0</ele><time>2026-04-26T16:51:45.383Z</time></trkpt><trkpt lat="33.2505217" lon="-8.0329683"><ele>172.0</ele><time>2026-04-26T16:51:46.382Z</time></trkpt><trkpt lat="33.2505717" lon="-8.0328867"><ele>172.0</ele><time>2026-04-26T16:51:47.382Z</time></trkpt><trkpt lat="33.25062" lon="-8.0328083"><ele>171.83333333333334</ele><time>2026-04-26T16:51:48.382Z</time></trkpt><trkpt lat="33.2506633" lon="-8.0327433"><ele>171.66666666666669</ele><time>2026-04-26T16:51:49.382Z</time></trkpt><trkpt lat="33.2507433" lon="-8.0326383"><ele>171.5</ele><time>2026-04-26T16:51:51.383Z</time></trkpt><trkpt lat="33.250815" lon="-8.0325367"><ele>171.33333333333334</ele><time>2026-04-26T16:51:53.382Z</time></trkpt><trkpt lat="33.2508567" lon="-8.0324733"><ele>171.16666666666666</ele><time>2026-04-26T16:51:54.382Z</time></trkpt><trkpt lat="33.2508967" lon="-8.032405"><ele>171.0</ele><time>2026-04-26T16:51:55.382Z</time></trkpt><trkpt lat="33.2509383" lon="-8.0323367"><ele>171.5</ele><time>2026-04-26T16:51:56.382Z</time></trkpt><trkpt lat="33.2509817" lon="-8.03227"><ele>172.0</ele><time>2026-04-26T16:51:57.382Z</time></trkpt><trkpt lat="33.2510233" lon="-8.03221"><ele>172.5</ele><time>2026-04-26T16:51:58.382Z</time></trkpt><trkpt lat="33.251065" lon="-8.0321517"><ele>173.0</ele><time>2026-04-26T16:51:59.382Z</time></trkpt><trkpt lat="33.251105" lon="-8.0320917"><ele>173.5</ele><time>2026-04-26T16:52:00.382Z</time></trkpt><trkpt lat="33.251175" lon="-8.0319767"><ele>174.0</ele><time>2026-04-26T16:52:02.382Z</time></trkpt><trkpt lat="33.2512233" lon="-8.03189"><ele>174.0</ele><time>2026-04-26T16:52:04.382Z</time></trkpt><trkpt lat="33.2512667" lon="-8.0318217"><ele>174.0</ele><time>2026-04-26T16:52:06.382Z</time></trkpt><trkpt lat="33.2513117" lon="-8.0317567"><ele>174.0</ele><time>2026-04-26T16:52:08.382Z</time></trkpt><trkpt lat="33.2513667" lon="-8.031685"><ele>174.0</ele><time>2026-04-26T16:52:10.383Z</time></trkpt><trkpt lat="33.2514217" lon="-8.0315967"><ele>174.0</ele><time>2026-04-26T16:52:12.382Z</time></trkpt><trkpt lat="33.25149" lon="-8.0315133"><ele>174.0</ele><time>2026-04-26T16:52:14.382Z</time></trkpt><trkpt lat="33.2515583" lon="-8.03143"><ele>173.66666666666666</ele><time>2026-04-26T16:52:16.382Z</time></trkpt><trkpt lat="33.2516233" lon="-8.031355"><ele>173.33333333333334</ele><time>2026-04-26T16:52:18.382Z</time></trkpt><trkpt lat="33.2516917" lon="-8.0312783"><ele>173.0</ele><time>2026-04-26T16:52:20.382Z</time></trkpt><trkpt lat="33.2517867" lon="-8.0311883"><ele>172.66666666666669</ele><time>2026-04-26T16:52:22.382Z</time></trkpt><trkpt lat="33.2518367" lon="-8.0311317"><ele>172.33333333333334</ele><time>2026-04-26T16:52:23.382Z</time></trkpt><trkpt lat="33.25189" lon="-8.0310733"><ele>172.0</ele><time>2026-04-26T16:52:24.382Z</time></trkpt><trkpt lat="33.25194" lon="-8.0310133"><ele>172.0</ele><time>2026-04-26T16:52:25.382Z</time></trkpt><trkpt lat="33.2519917" lon="-8.0309467"><ele>172.0</ele><time>2026-04-26T16:52:26.382Z</time></trkpt><trkpt lat="33.2520467" lon="-8.0308767"><ele>172.0</ele><time>2026-04-26T16:52:27.382Z</time></trkpt><trkpt lat="33.2521033" lon="-8.0308067"><ele>172.0</ele><time>2026-04-26T16:52:28.382Z</time></trkpt><trkpt lat="33.252155" lon="-8.0307433"><ele>172.0</ele><time>2026-04-26T16:52:29.382Z</time></trkpt><trkpt lat="33.2522083" lon="-8.030675"><ele>172.0</ele><time>2026-04-26T16:52:30.382Z</time></trkpt><trkpt lat="33.2522633" lon="-8.03061"><ele>172.0</ele><time>2026-04-26T16:52:31.382Z</time></trkpt><trkpt lat="33.2523067" lon="-8.0305533"><ele>172.0</ele><time>2026-04-26T16:52:32.382Z</time></trkpt><trkpt lat="33.2523717" lon="-8.0304583"><ele>172.0</ele><time>2026-04-26T16:52:34.382Z</time></trkpt><trkpt lat="33.2524267" lon="-8.03039"><ele>172.0</ele><time>2026-04-26T16:52:36.382Z</time></trkpt><trkpt lat="33.252495" lon="-8.0303217"><ele>172.0</ele><time>2026-04-26T16:52:38.382Z</time></trkpt><trkpt lat="33.2525783" lon="-8.030215"><ele>172.00000000000003</ele><time>2026-04-26T16:52:40.382Z</time></trkpt><trkpt lat="33.252625" lon="-8.0301617"><ele>172.0</ele><time>2026-04-26T16:52:41.382Z</time></trkpt><trkpt lat="33.2526733" lon="-8.030105"><ele>172.0</ele><time>2026-04-26T16:52:42.382Z</time></trkpt><trkpt lat="33.2527233" lon="-8.0300467"><ele>172.0</ele><time>2026-04-26T16:52:43.382Z</time></trkpt><trkpt lat="33.2527767" lon="-8.0299883"><ele>172.0</ele><time>2026-04-26T16:52:44.382Z</time></trkpt><trkpt lat="33.2528283" lon="-8.0299317"><ele>172.00000000000003</ele><time>2026-04-26T16:52:45.382Z</time></trkpt><trkpt lat="33.2528833" lon="-8.0298733"><ele>172.0</ele><time>2026-04-26T16:52:46.382Z</time></trkpt><trkpt lat="33.2529433" lon="-8.0298117"><ele>172.0</ele><time>2026-04-26T16:52:47.382Z</time></trkpt><trkpt lat="33.2530117" lon="-8.02974"><ele>172.0</ele><time>2026-04-26T16:52:48.382Z</time></trkpt><trkpt lat="33.2530867" lon="-8.029665"><ele>172.0</ele><time>2026-04-26T16:52:49.382Z</time></trkpt><trkpt lat="33.25316" lon="-8.0295733"><ele>172.0</ele><time>2026-04-26T16:52:50.382Z</time></trkpt><trkpt lat="33.2532333" lon="-8.029475"><ele>172.0</ele><time>2026-04-26T16:52:51.382Z</time></trkpt><trkpt lat="33.2533117" lon="-8.029375"><ele>172.0</ele><time>2026-04-26T16:52:52.382Z</time></trkpt><trkpt lat="33.2533917" lon="-8.02927"><ele>172.0</ele><time>2026-04-26T16:52:53.382Z</time></trkpt><trkpt lat="33.25347" lon="-8.02917"><ele>172.0</ele><time>2026-04-26T16:52:54.382Z</time></trkpt><trkpt lat="33.2535467" lon="-8.0290717"><ele>172.0</ele><time>2026-04-26T16:52:55.382Z</time></trkpt><trkpt lat="33.2536317" lon="-8.02898"><ele>171.5</ele><time>2026-04-26T16:52:56.382Z</time></trkpt><trkpt lat="33.25372" lon="-8.0288833"><ele>171.0</ele><time>2026-04-26T16:52:57.382Z</time></trkpt><trkpt lat="33.25381" lon="-8.028785"><ele>170.5</ele><time>2026-04-26T16:52:58.382Z</time></trkpt><trkpt lat="33.2538983" lon="-8.0286717"><ele>170.0</ele><time>2026-04-26T16:52:59.382Z</time></trkpt><trkpt lat="33.253985" lon="-8.0285467"><ele>170.0</ele><time>2026-04-26T16:53:00.383Z</time></trkpt><trkpt lat="33.254075" lon="-8.0284283"><ele>170.0</ele><time>2026-04-26T16:53:01.382Z</time></trkpt><trkpt lat="33.2541683" lon="-8.028315"><ele>170.0</ele><time>2026-04-26T16:53:02.382Z</time></trkpt><trkpt lat="33.2542683" lon="-8.028195"><ele>170.0</ele><time>2026-04-26T16:53:03.382Z</time></trkpt><trkpt lat="33.254375" lon="-8.028075"><ele>170.25</ele><time>2026-04-26T16:53:04.382Z</time></trkpt><trkpt lat="33.2544783" lon="-8.02795"><ele>170.5</ele><time>2026-04-26T16:53:05.382Z</time></trkpt><trkpt lat="33.2545783" lon="-8.0278183"><ele>170.75</ele><time>2026-04-26T16:53:06.382Z</time></trkpt><trkpt lat="33.2546833" lon="-8.0276883"><ele>171.0</ele><time>2026-04-26T16:53:07.382Z</time></trkpt><trkpt lat="33.2547967" lon="-8.027555"><ele>170.66666666666666</ele><time>2026-04-26T16:53:08.382Z</time></trkpt><trkpt lat="33.25491" lon="-8.027415"><ele>170.33333333333331</ele><time>2026-04-26T16:53:09.382Z</time></trkpt><trkpt lat="33.2550267" lon="-8.0272783"><ele>170.0</ele><time>2026-04-26T16:53:10.382Z</time></trkpt><trkpt lat="33.2551367" lon="-8.02715"><ele>170.0</ele><time>2026-04-26T16:53:11.382Z</time></trkpt><trkpt lat="33.255245" lon="-8.0270183"><ele>170.0</ele><time>2026-04-26T16:53:12.382Z</time></trkpt><trkpt lat="33.25535" lon="-8.0268867"><ele>170.0</ele><time>2026-04-26T16:53:13.382Z</time></trkpt><trkpt lat="33.2554617" lon="-8.02675"><ele>171.0</ele><time>2026-04-26T16:53:14.383Z</time></trkpt><trkpt lat="33.2555767" lon="-8.0266067"><ele>172.0</ele><time>2026-04-26T16:53:15.382Z</time></trkpt><trkpt lat="33.2557" lon="-8.02646"><ele>173.0</ele><time>2026-04-26T16:53:16.382Z</time></trkpt><trkpt lat="33.2558283" lon="-8.0263083"><ele>173.0</ele><time>2026-04-26T16:53:17.382Z</time></trkpt><trkpt lat="33.2559567" lon="-8.0261483"><ele>173.0</ele><time>2026-04-26T16:53:18.382Z</time></trkpt><trkpt lat="33.25609" lon="-8.025985"><ele>173.0</ele><time>2026-04-26T16:53:19.382Z</time></trkpt><trkpt lat="33.2562117" lon="-8.0258183"><ele>173.33333333333331</ele><time>2026-04-26T16:53:20.382Z</time></trkpt><trkpt lat="33.25634" lon="-8.0256567"><ele>173.66666666666666</ele><time>2026-04-26T16:53:21.382Z</time></trkpt><trkpt lat="33.2564717" lon="-8.0254983"><ele>174.0</ele><time>2026-04-26T16:53:22.382Z</time></trkpt><trkpt lat="33.2566033" lon="-8.02534"><ele>174.0</ele><time>2026-04-26T16:53:23.382Z</time></trkpt><trkpt lat="33.2567333" lon="-8.0251983"><ele>174.0</ele><time>2026-04-26T16:53:24.382Z</time></trkpt><trkpt lat="33.2568667" lon="-8.0250717"><ele>174.0</ele><time>2026-04-26T16:53:25.382Z</time></trkpt><trkpt lat="33.2570067" lon="-8.02495"><ele>174.66666666666666</ele><time>2026-04-26T16:53:26.382Z</time></trkpt><trkpt lat="33.2571567" lon="-8.02483"><ele>175.33333333333331</ele><time>2026-04-26T16:53:27.382Z</time></trkpt><trkpt lat="33.25732" lon="-8.024715"><ele>176.0</ele><time>2026-04-26T16:53:28.382Z</time></trkpt><trkpt lat="33.257485" lon="-8.0245933"><ele>176.33333333333331</ele><time>2026-04-26T16:53:29.382Z</time></trkpt><trkpt lat="33.2576417" lon="-8.0244717"><ele>176.66666666666666</ele><time>2026-04-26T16:53:30.382Z</time></trkpt><trkpt lat="33.257805" lon="-8.02435"><ele>177.0</ele><time>2026-04-26T16:53:31.382Z</time></trkpt><trkpt lat="33.2579667" lon="-8.024235"><ele>177.0</ele><time>2026-04-26T16:53:32.382Z</time></trkpt><trkpt lat="33.2581183" lon="-8.0241267"><ele>177.0</ele><time>2026-04-26T16:53:33.382Z</time></trkpt><trkpt lat="33.258265" lon="-8.024025"><ele>177.0</ele><time>2026-04-26T16:53:34.382Z</time></trkpt><trkpt lat="33.258405" lon="-8.0239267"><ele>177.0</ele><time>2026-04-26T16:53:35.382Z</time></trkpt><trkpt lat="33.2585433" lon="-8.0238283"><ele>177.0</ele><time>2026-04-26T16:53:36.382Z</time></trkpt><trkpt lat="33.2586883" lon="-8.023725"><ele>177.0</ele><time>2026-04-26T16:53:37.382Z</time></trkpt><trkpt lat="33.258835" lon="-8.02361"><ele>177.0</ele><time>2026-04-26T16:53:38.382Z</time></trkpt><trkpt lat="33.25898" lon="-8.0234933"><ele>177.0</ele><time>2026-04-26T16:53:39.382Z</time></trkpt><trkpt lat="33.25913" lon="-8.02338"><ele>177.0</ele><time>2026-04-26T16:53:40.382Z</time></trkpt><trkpt lat="33.2592733" lon="-8.0232567"><ele>177.0</ele><time>2026-04-26T16:53:41.382Z</time></trkpt><trkpt lat="33.2594017" lon="-8.02313"><ele>177.0</ele><time>2026-04-26T16:53:42.382Z</time></trkpt><trkpt lat="33.25953" lon="-8.02301"><ele>177.0</ele><time>2026-04-26T16:53:43.382Z</time></trkpt><trkpt lat="33.2596633" lon="-8.022895"><ele>176.33333333333334</ele><time>2026-04-26T16:53:44.383Z</time></trkpt><trkpt lat="33.259795" lon="-8.022775"><ele>175.66666666666669</ele><time>2026-04-26T16:53:45.382Z</time></trkpt><trkpt lat="33.259925" lon="-8.0226567"><ele>175.0</ele><time>2026-04-26T16:53:46.382Z</time></trkpt><trkpt lat="33.2600483" lon="-8.02255"><ele>175.33333333333334</ele><time>2026-04-26T16:53:47.382Z</time></trkpt><trkpt lat="33.2601833" lon="-8.0224383"><ele>175.66666666666666</ele><time>2026-04-26T16:53:48.382Z</time></trkpt><trkpt lat="33.2603117" lon="-8.0223217"><ele>176.0</ele><time>2026-04-26T16:53:49.382Z</time></trkpt><trkpt lat="33.26043" lon="-8.0222"><ele>176.0</ele><time>2026-04-26T16:53:50.382Z</time></trkpt><trkpt lat="33.2605517" lon="-8.022075"><ele>176.0</ele><time>2026-04-26T16:53:51.382Z</time></trkpt><trkpt lat="33.2606683" lon="-8.0219367"><ele>176.0</ele><time>2026-04-26T16:53:52.382Z</time></trkpt><trkpt lat="33.26079" lon="-8.0217867"><ele>176.66666666666666</ele><time>2026-04-26T16:53:53.382Z</time></trkpt><trkpt lat="33.2609033" lon="-8.0216267"><ele>177.33333333333334</ele><time>2026-04-26T16:53:54.382Z</time></trkpt><trkpt lat="33.2610083" lon="-8.021485"><ele>178.0</ele><time>2026-04-26T16:53:55.382Z</time></trkpt><trkpt lat="33.261115" lon="-8.021355"><ele>178.0</ele><time>2026-04-26T16:53:56.382Z</time></trkpt><trkpt lat="33.2612183" lon="-8.0212133"><ele>178.0</ele><time>2026-04-26T16:53:57.382Z</time></trkpt><trkpt lat="33.2613283" lon="-8.0210667"><ele>178.0</ele><time>2026-04-26T16:53:58.382Z</time></trkpt><trkpt lat="33.2614283" lon="-8.0209233"><ele>177.66666666666669</ele><time>2026-04-26T16:53:59.383Z</time></trkpt><trkpt lat="33.26153" lon="-8.02077"><ele>177.33333333333334</ele><time>2026-04-26T16:54:00.382Z</time></trkpt><trkpt lat="33.261635" lon="-8.0206017"><ele>177.0</ele><time>2026-04-26T16:54:01.382Z</time></trkpt><trkpt lat="33.261745" lon="-8.0204283"><ele>177.0</ele><time>2026-04-26T16:54:02.382Z</time></trkpt><trkpt lat="33.2618583" lon="-8.020265"><ele>177.0</ele><time>2026-04-26T16:54:03.382Z</time></trkpt><trkpt lat="33.2619633" lon="-8.0201133"><ele>177.0</ele><time>2026-04-26T16:54:04.382Z</time></trkpt><trkpt lat="33.2620633" lon="-8.0199717"><ele>177.33333333333334</ele><time>2026-04-26T16:54:05.382Z</time></trkpt><trkpt lat="33.2621617" lon="-8.019835"><ele>177.66666666666669</ele><time>2026-04-26T16:54:06.382Z</time></trkpt><trkpt lat="33.2622717" lon="-8.0196983"><ele>178.0</ele><time>2026-04-26T16:54:07.382Z</time></trkpt><trkpt lat="33.2623983" lon="-8.0195683"><ele>178.0</ele><time>2026-04-26T16:54:08.382Z</time></trkpt><trkpt lat="33.2625483" lon="-8.019425"><ele>178.0</ele><time>2026-04-26T16:54:09.382Z</time></trkpt><trkpt lat="33.2626967" lon="-8.0192833"><ele>178.0</ele><time>2026-04-26T16:54:10.382Z</time></trkpt><trkpt lat="33.2628333" lon="-8.0191517"><ele>178.0</ele><time>2026-04-26T16:54:11.382Z</time></trkpt><trkpt lat="33.26297" lon="-8.01902"><ele>178.0</ele><time>2026-04-26T16:54:12.382Z</time></trkpt><trkpt lat="33.2631033" lon="-8.0188883"><ele>178.0</ele><time>2026-04-26T16:54:13.382Z</time></trkpt><trkpt lat="33.2632367" lon="-8.01876"><ele>178.0</ele><time>2026-04-26T16:54:14.382Z</time></trkpt><trkpt lat="33.2633683" lon="-8.018635"><ele>178.0</ele><time>2026-04-26T16:54:15.382Z</time></trkpt><trkpt lat="33.2635033" lon="-8.018515"><ele>178.0</ele><time>2026-04-26T16:54:16.382Z</time></trkpt><trkpt lat="33.263635" lon="-8.0183917"><ele>177.33333333333334</ele><time>2026-04-26T16:54:17.382Z</time></trkpt><trkpt lat="33.263775" lon="-8.0182633"><ele>176.66666666666666</ele><time>2026-04-26T16:54:18.383Z</time></trkpt><trkpt lat="33.2639133" lon="-8.0181417"><ele>176.0</ele><time>2026-04-26T16:54:19.382Z</time></trkpt><trkpt lat="33.264065" lon="-8.0180117"><ele>176.0</ele><time>2026-04-26T16:54:20.382Z</time></trkpt><trkpt lat="33.2642183" lon="-8.01789"><ele>176.0</ele><time>2026-04-26T16:54:21.382Z</time></trkpt><trkpt lat="33.26437" lon="-8.0177667"><ele>176.0</ele><time>2026-04-26T16:54:22.382Z</time></trkpt><trkpt lat="33.2645217" lon="-8.0176383"><ele>176.0</ele><time>2026-04-26T16:54:23.382Z</time></trkpt><trkpt lat="33.264675" lon="-8.0175067"><ele>176.0</ele><time>2026-04-26T16:54:24.382Z</time></trkpt><trkpt lat="33.26483" lon="-8.017375"><ele>176.0</ele><time>2026-04-26T16:54:25.382Z</time></trkpt><trkpt lat="33.26499" lon="-8.0172417"><ele>175.66666666666666</ele><time>2026-04-26T16:54:26.382Z</time></trkpt><trkpt lat="33.2651567" lon="-8.01711"><ele>175.33333333333334</ele><time>2026-04-26T16:54:27.382Z</time></trkpt><trkpt lat="33.265325" lon="-8.01697"><ele>175.0</ele><time>2026-04-26T16:54:28.382Z</time></trkpt><trkpt lat="33.2654883" lon="-8.0168317"><ele>174.0</ele><time>2026-04-26T16:54:29.382Z</time></trkpt><trkpt lat="33.2656433" lon="-8.0167067"><ele>173.0</ele><time>2026-04-26T16:54:30.382Z</time></trkpt><trkpt lat="33.2657967" lon="-8.016585"><ele>172.0</ele><time>2026-04-26T16:54:31.382Z</time></trkpt><trkpt lat="33.26594" lon="-8.01647"><ele>172.0</ele><time>2026-04-26T16:54:32.382Z</time></trkpt><trkpt lat="33.266085" lon="-8.016365"><ele>172.0</ele><time>2026-04-26T16:54:33.382Z</time></trkpt><trkpt lat="33.26623" lon="-8.01627"><ele>172.0</ele><time>2026-04-26T16:54:34.383Z</time></trkpt><trkpt lat="33.26638" lon="-8.01618"><ele>172.0</ele><time>2026-04-26T16:54:35.382Z</time></trkpt><trkpt lat="33.2665317" lon="-8.0160917"><ele>172.0</ele><time>2026-04-26T16:54:36.382Z</time></trkpt><trkpt lat="33.26669" lon="-8.0160067"><ele>172.0</ele><time>2026-04-26T16:54:37.382Z</time></trkpt><trkpt lat="33.2668467" lon="-8.01592"><ele>172.0</ele><time>2026-04-26T16:54:38.382Z</time></trkpt><trkpt lat="33.2669967" lon="-8.0158333"><ele>172.0</ele><time>2026-04-26T16:54:39.382Z</time></trkpt><trkpt lat="33.267145" lon="-8.0157583"><ele>172.0</ele><time>2026-04-26T16:54:40.382Z</time></trkpt><trkpt lat="33.2673" lon="-8.0156783"><ele>172.66666666666669</ele><time>2026-04-26T16:54:41.382Z</time></trkpt><trkpt lat="33.26745" lon="-8.0156"><ele>173.33333333333334</ele><time>2026-04-26T16:54:42.382Z</time></trkpt><trkpt lat="33.2676017" lon="-8.0155233"><ele>174.0</ele><time>2026-04-26T16:54:43.382Z</time></trkpt><trkpt lat="33.2677533" lon="-8.015445"><ele>174.0</ele><time>2026-04-26T16:54:44.382Z</time></trkpt><trkpt lat="33.2679067" lon="-8.01537"><ele>174.0</ele><time>2026-04-26T16:54:45.382Z</time></trkpt><trkpt lat="33.2680567" lon="-8.0153"><ele>174.0</ele><time>2026-04-26T16:54:46.382Z</time></trkpt><trkpt lat="33.268215" lon="-8.0152317"><ele>174.33333333333334</ele><time>2026-04-26T16:54:47.382Z</time></trkpt><trkpt lat="33.2683833" lon="-8.015165"><ele>174.66666666666669</ele><time>2026-04-26T16:54:48.382Z</time></trkpt><trkpt lat="33.268555" lon="-8.0150967"><ele>175.0</ele><time>2026-04-26T16:54:49.382Z</time></trkpt><trkpt lat="33.26873" lon="-8.0150233"><ele>175.33333333333334</ele><time>2026-04-26T16:54:50.382Z</time></trkpt><trkpt lat="33.26891" lon="-8.0149467"><ele>175.66666666666666</ele><time>2026-04-26T16:54:51.382Z</time></trkpt><trkpt lat="33.26909" lon="-8.01487"><ele>176.0</ele><time>2026-04-26T16:54:52.382Z</time></trkpt><trkpt lat="33.26927" lon="-8.0148"><ele>176.0</ele><time>2026-04-26T16:54:53.382Z</time></trkpt><trkpt lat="33.2694433" lon="-8.014735"><ele>176.0</ele><time>2026-04-26T16:54:54.382Z</time></trkpt><trkpt lat="33.2696117" lon="-8.0146783"><ele>176.0</ele><time>2026-04-26T16:54:55.382Z</time></trkpt><trkpt lat="33.2697833" lon="-8.01462"><ele>175.33333333333331</ele><time>2026-04-26T16:54:56.382Z</time></trkpt><trkpt lat="33.2699533" lon="-8.0145567"><ele>174.66666666666666</ele><time>2026-04-26T16:54:57.382Z</time></trkpt><trkpt lat="33.2701267" lon="-8.0144933"><ele>174.0</ele><time>2026-04-26T16:54:58.382Z</time></trkpt><trkpt lat="33.270305" lon="-8.0144267"><ele>174.0</ele><time>2026-04-26T16:54:59.382Z</time></trkpt><trkpt lat="33.270485" lon="-8.0143567"><ele>174.0</ele><time>2026-04-26T16:55:00.382Z</time></trkpt><trkpt lat="33.2706683" lon="-8.014285"><ele>174.0</ele><time>2026-04-26T16:55:01.382Z</time></trkpt><trkpt lat="33.2708517" lon="-8.0142033"><ele>173.33333333333334</ele><time>2026-04-26T16:55:02.382Z</time></trkpt><trkpt lat="33.2710333" lon="-8.01411"><ele>172.66666666666669</ele><time>2026-04-26T16:55:03.382Z</time></trkpt><trkpt lat="33.2712067" lon="-8.01401"><ele>172.0</ele><time>2026-04-26T16:55:04.382Z</time></trkpt><trkpt lat="33.2713767" lon="-8.0139117"><ele>172.66666666666669</ele><time>2026-04-26T16:55:05.382Z</time></trkpt><trkpt lat="33.2715417" lon="-8.0138117"><ele>173.33333333333334</ele><time>2026-04-26T16:55:06.382Z</time></trkpt><trkpt lat="33.2717017" lon="-8.0137017"><ele>174.0</ele><time>2026-04-26T16:55:07.382Z</time></trkpt><trkpt lat="33.27186" lon="-8.01359"><ele>174.0</ele><time>2026-04-26T16:55:08.382Z</time></trkpt><trkpt lat="33.2720183" lon="-8.01348"><ele>174.0</ele><time>2026-04-26T16:55:09.382Z</time></trkpt><trkpt lat="33.2721767" lon="-8.01338"><ele>174.0</ele><time>2026-04-26T16:55:10.382Z</time></trkpt><trkpt lat="33.2723367" lon="-8.01328"><ele>173.66666666666666</ele><time>2026-04-26T16:55:11.382Z</time></trkpt><trkpt lat="33.2724933" lon="-8.0131767"><ele>173.33333333333331</ele><time>2026-04-26T16:55:12.382Z</time></trkpt><trkpt lat="33.272645" lon="-8.01307"><ele>173.0</ele><time>2026-04-26T16:55:13.382Z</time></trkpt><trkpt lat="33.2728" lon="-8.0129633"><ele>173.0</ele><time>2026-04-26T16:55:14.382Z</time></trkpt><trkpt lat="33.2729533" lon="-8.0128583"><ele>173.0</ele><time>2026-04-26T16:55:15.382Z</time></trkpt><trkpt lat="33.27311" lon="-8.0127583"><ele>173.0</ele><time>2026-04-26T16:55:16.382Z</time></trkpt><trkpt lat="33.2732683" lon="-8.01265"><ele>173.66666666666666</ele><time>2026-04-26T16:55:17.382Z</time></trkpt><trkpt lat="33.2734283" lon="-8.0125417"><ele>174.33333333333334</ele><time>2026-04-26T16:55:18.382Z</time></trkpt><trkpt lat="33.273585" lon="-8.0124367"><ele>175.0</ele><time>2026-04-26T16:55:19.382Z</time></trkpt><trkpt lat="33.2737417" lon="-8.0123267"><ele>175.0</ele><time>2026-04-26T16:55:20.382Z</time></trkpt><trkpt lat="33.2739" lon="-8.0122183"><ele>175.0</ele><time>2026-04-26T16:55:21.382Z</time></trkpt><trkpt lat="33.2740617" lon="-8.0121117"><ele>175.0</ele><time>2026-04-26T16:55:22.382Z</time></trkpt><trkpt lat="33.2742233" lon="-8.0120017"><ele>175.0</ele><time>2026-04-26T16:55:23.382Z</time></trkpt><trkpt lat="33.2743833" lon="-8.01189"><ele>175.0</ele><time>2026-04-26T16:55:24.382Z</time></trkpt><trkpt lat="33.2745467" lon="-8.0117767"><ele>175.0</ele><time>2026-04-26T16:55:25.382Z</time></trkpt><trkpt lat="33.2747083" lon="-8.0116617"><ele>173.33333333333334</ele><time>2026-04-26T16:55:26.382Z</time></trkpt><trkpt lat="33.2748633" lon="-8.0115517"><ele>171.66666666666666</ele><time>2026-04-26T16:55:27.382Z</time></trkpt><trkpt lat="33.2750183" lon="-8.0114417"><ele>170.0</ele><time>2026-04-26T16:55:28.382Z</time></trkpt><trkpt lat="33.2751783" lon="-8.0113333"><ele>170.0</ele><time>2026-04-26T16:55:29.382Z</time></trkpt><trkpt lat="33.27534" lon="-8.0112283"><ele>170.0</ele><time>2026-04-26T16:55:30.382Z</time></trkpt><trkpt lat="33.275505" lon="-8.0111333"><ele>170.0</ele><time>2026-04-26T16:55:31.382Z</time></trkpt><trkpt lat="33.2756767" lon="-8.0110483"><ele>170.66666666666666</ele><time>2026-04-26T16:55:32.382Z</time></trkpt><trkpt lat="33.27585" lon="-8.01097"><ele>171.33333333333334</ele><time>2026-04-26T16:55:33.382Z</time></trkpt><trkpt lat="33.2760317" lon="-8.0108983"><ele>172.0</ele><time>2026-04-26T16:55:34.382Z</time></trkpt><trkpt lat="33.2762167" lon="-8.0108433"><ele>171.33333333333334</ele><time>2026-04-26T16:55:35.382Z</time></trkpt><trkpt lat="33.2764033" lon="-8.0108017"><ele>170.66666666666666</ele><time>2026-04-26T16:55:36.382Z</time></trkpt><trkpt lat="33.276585" lon="-8.0107783"><ele>170.0</ele><time>2026-04-26T16:55:37.381Z</time></trkpt><trkpt lat="33.27677" lon="-8.0107483"><ele>170.0</ele><time>2026-04-26T16:55:38.382Z</time></trkpt><trkpt lat="33.27695" lon="-8.01072"><ele>170.0</ele><time>2026-04-26T16:55:39.382Z</time></trkpt><trkpt lat="33.2771267" lon="-8.0106983"><ele>170.0</ele><time>2026-04-26T16:55:40.382Z</time></trkpt><trkpt lat="33.2772967" lon="-8.0106783"><ele>170.33333333333331</ele><time>2026-04-26T16:55:41.382Z</time></trkpt><trkpt lat="33.2774733" lon="-8.0106583"><ele>170.66666666666666</ele><time>2026-04-26T16:55:42.382Z</time></trkpt><trkpt lat="33.2776517" lon="-8.0106383"><ele>171.0</ele><time>2026-04-26T16:55:43.383Z</time></trkpt><trkpt lat="33.27783" lon="-8.0106067"><ele>171.0</ele><time>2026-04-26T16:55:44.382Z</time></trkpt><trkpt lat="33.2780083" lon="-8.01058"><ele>171.0</ele><time>2026-04-26T16:55:45.382Z</time></trkpt><trkpt lat="33.2781883" lon="-8.01054"><ele>171.0</ele><time>2026-04-26T16:55:46.382Z</time></trkpt><trkpt lat="33.278365" lon="-8.0104867"><ele>170.33333333333334</ele><time>2026-04-26T16:55:47.381Z</time></trkpt><trkpt lat="33.2785283" lon="-8.010425"><ele>169.66666666666669</ele><time>2026-04-26T16:55:48.381Z</time></trkpt><trkpt lat="33.2786833" lon="-8.0103467"><ele>169.0</ele><time>2026-04-26T16:55:49.381Z</time></trkpt><trkpt lat="33.278835" lon="-8.0102583"><ele>169.0</ele><time>2026-04-26T16:55:50.381Z</time></trkpt><trkpt lat="33.27899" lon="-8.0101683"><ele>169.0</ele><time>2026-04-26T16:55:51.381Z</time></trkpt><trkpt lat="33.2791467" lon="-8.0100767"><ele>169.0</ele><time>2026-04-26T16:55:52.381Z</time></trkpt><trkpt lat="33.2793083" lon="-8.009985"><ele>169.0</ele><time>2026-04-26T16:55:53.381Z</time></trkpt><trkpt lat="33.2794733" lon="-8.0098967"><ele>169.0</ele><time>2026-04-26T16:55:54.381Z</time></trkpt><trkpt lat="33.2796367" lon="-8.0098167"><ele>169.0</ele><time>2026-04-26T16:55:55.381Z</time></trkpt><trkpt lat="33.27982" lon="-8.0097483"><ele>169.33333333333334</ele><time>2026-04-26T16:55:56.381Z</time></trkpt><trkpt lat="33.2799983" lon="-8.0096867"><ele>169.66666666666666</ele><time>2026-04-26T16:55:57.381Z</time></trkpt><trkpt lat="33.2801733" lon="-8.0096383"><ele>170.0</ele><time>2026-04-26T16:55:58.381Z</time></trkpt><trkpt lat="33.2803483" lon="-8.0095917"><ele>170.0</ele><time>2026-04-26T16:55:59.381Z</time></trkpt><trkpt lat="33.280535" lon="-8.0095517"><ele>170.0</ele><time>2026-04-26T16:56:00.381Z</time></trkpt><trkpt lat="33.280715" lon="-8.0095283"><ele>170.0</ele><time>2026-04-26T16:56:01.381Z</time></trkpt><trkpt lat="33.280895" lon="-8.0095133"><ele>169.66666666666666</ele><time>2026-04-26T16:56:02.381Z</time></trkpt><trkpt lat="33.281075" lon="-8.0095133"><ele>169.33333333333334</ele><time>2026-04-26T16:56:03.381Z</time></trkpt><trkpt lat="33.2812533" lon="-8.0095317"><ele>169.0</ele><time>2026-04-26T16:56:04.381Z</time></trkpt><trkpt lat="33.2814383" lon="-8.009555"><ele>169.66666666666669</ele><time>2026-04-26T16:56:05.381Z</time></trkpt><trkpt lat="33.2816217" lon="-8.00959"><ele>170.33333333333334</ele><time>2026-04-26T16:56:06.381Z</time></trkpt><trkpt lat="33.2818067" lon="-8.0096317"><ele>171.0</ele><time>2026-04-26T16:56:07.381Z</time></trkpt><trkpt lat="33.2819867" lon="-8.0096783"><ele>171.0</ele><time>2026-04-26T16:56:08.381Z</time></trkpt><trkpt lat="33.2821633" lon="-8.0097233"><ele>171.0</ele><time>2026-04-26T16:56:09.381Z</time></trkpt><trkpt lat="33.28234" lon="-8.009775"><ele>171.0</ele><time>2026-04-26T16:56:10.381Z</time></trkpt><trkpt lat="33.2825133" lon="-8.009825"><ele>170.66666666666666</ele><time>2026-04-26T16:56:11.382Z</time></trkpt><trkpt lat="33.28269" lon="-8.009875"><ele>170.33333333333331</ele><time>2026-04-26T16:56:12.381Z</time></trkpt><trkpt lat="33.2828733" lon="-8.0099233"><ele>170.0</ele><time>2026-04-26T16:56:13.381Z</time></trkpt><trkpt lat="33.2830567" lon="-8.0099767"><ele>168.66666666666666</ele><time>2026-04-26T16:56:14.381Z</time></trkpt><trkpt lat="33.28324" lon="-8.0100217"><ele>167.33333333333334</ele><time>2026-04-26T16:56:15.381Z</time></trkpt><trkpt lat="33.283425" lon="-8.010065"><ele>166.0</ele><time>2026-04-26T16:56:16.381Z</time></trkpt><trkpt lat="33.2836133" lon="-8.0101133"><ele>166.0</ele><time>2026-04-26T16:56:17.381Z</time></trkpt><trkpt lat="33.2837983" lon="-8.0101567"><ele>166.0</ele><time>2026-04-26T16:56:18.381Z</time></trkpt><trkpt lat="33.283975" lon="-8.0102017"><ele>166.0</ele><time>2026-04-26T16:56:19.381Z</time></trkpt><trkpt lat="33.2841467" lon="-8.0102367"><ele>166.0</ele><time>2026-04-26T16:56:20.381Z</time></trkpt><trkpt lat="33.2843183" lon="-8.0102583"><ele>166.0</ele><time>2026-04-26T16:56:21.381Z</time></trkpt><trkpt lat="33.2844917" lon="-8.010255"><ele>166.0</ele><time>2026-04-26T16:56:22.382Z</time></trkpt><trkpt lat="33.2846583" lon="-8.0102217"><ele>166.0</ele><time>2026-04-26T16:56:23.381Z</time></trkpt><trkpt lat="33.28482" lon="-8.0101683"><ele>166.0</ele><time>2026-04-26T16:56:24.381Z</time></trkpt><trkpt lat="33.2849733" lon="-8.0100867"><ele>166.0</ele><time>2026-04-26T16:56:25.381Z</time></trkpt><trkpt lat="33.2851217" lon="-8.0099767"><ele>166.0</ele><time>2026-04-26T16:56:26.381Z</time></trkpt><trkpt lat="33.2852717" lon="-8.00985"><ele>166.0</ele><time>2026-04-26T16:56:27.381Z</time></trkpt><trkpt lat="33.2854267" lon="-8.0097233"><ele>166.0</ele><time>2026-04-26T16:56:28.381Z</time></trkpt><trkpt lat="33.28558" lon="-8.0096017"><ele>167.0</ele><time>2026-04-26T16:56:29.381Z</time></trkpt><trkpt lat="33.2857283" lon="-8.009485"><ele>168.0</ele><time>2026-04-26T16:56:30.381Z</time></trkpt><trkpt lat="33.285875" lon="-8.0093783"><ele>169.0</ele><time>2026-04-26T16:56:31.381Z</time></trkpt><trkpt lat="33.2860267" lon="-8.0092683"><ele>169.0</ele><time>2026-04-26T16:56:32.381Z</time></trkpt><trkpt lat="33.2861733" lon="-8.009165"><ele>169.0</ele><time>2026-04-26T16:56:33.381Z</time></trkpt><trkpt lat="33.2863267" lon="-8.0090583"><ele>169.0</ele><time>2026-04-26T16:56:34.381Z</time></trkpt><trkpt lat="33.2864733" lon="-8.0089367"><ele>167.66666666666669</ele><time>2026-04-26T16:56:35.381Z</time></trkpt><trkpt lat="33.2866233" lon="-8.0088117"><ele>166.33333333333334</ele><time>2026-04-26T16:56:36.381Z</time></trkpt><trkpt lat="33.2867733" lon="-8.00868"><ele>165.0</ele><time>2026-04-26T16:56:37.381Z</time></trkpt><trkpt lat="33.2869217" lon="-8.008545"><ele>165.0</ele><time>2026-04-26T16:56:38.381Z</time></trkpt><trkpt lat="33.2870683" lon="-8.008405"><ele>165.0</ele><time>2026-04-26T16:56:39.381Z</time></trkpt><trkpt lat="33.287215" lon="-8.008265"><ele>165.0</ele><time>2026-04-26T16:56:40.381Z</time></trkpt><trkpt lat="33.287355" lon="-8.008125"><ele>165.0</ele><time>2026-04-26T16:56:41.381Z</time></trkpt><trkpt lat="33.2874917" lon="-8.0079783"><ele>165.0</ele><time>2026-04-26T16:56:42.381Z</time></trkpt><trkpt lat="33.2876317" lon="-8.007835"><ele>165.0</ele><time>2026-04-26T16:56:43.381Z</time></trkpt><trkpt lat="33.287775" lon="-8.0077017"><ele>165.0</ele><time>2026-04-26T16:56:44.381Z</time></trkpt><trkpt lat="33.2879083" lon="-8.0075783"><ele>165.0</ele><time>2026-04-26T16:56:45.381Z</time></trkpt><trkpt lat="33.2880367" lon="-8.0074633"><ele>165.0</ele><time>2026-04-26T16:56:46.381Z</time></trkpt><trkpt lat="33.28816" lon="-8.007355"><ele>164.5</ele><time>2026-04-26T16:56:47.381Z</time></trkpt><trkpt lat="33.2882767" lon="-8.00725"><ele>164.0</ele><time>2026-04-26T16:56:48.381Z</time></trkpt><trkpt lat="33.2883917" lon="-8.007155"><ele>163.5</ele><time>2026-04-26T16:56:49.381Z</time></trkpt><trkpt lat="33.288505" lon="-8.007065"><ele>163.0</ele><time>2026-04-26T16:56:50.381Z</time></trkpt><trkpt lat="33.2886183" lon="-8.006975"><ele>163.0</ele><time>2026-04-26T16:56:51.381Z</time></trkpt><trkpt lat="33.288735" lon="-8.00688"><ele>163.0</ele><time>2026-04-26T16:56:52.381Z</time></trkpt><trkpt lat="33.288855" lon="-8.00678"><ele>163.0</ele><time>2026-04-26T16:56:53.381Z</time></trkpt><trkpt lat="33.2889767" lon="-8.006675"><ele>163.0</ele><time>2026-04-26T16:56:54.381Z</time></trkpt><trkpt lat="33.2891033" lon="-8.006575"><ele>163.66666666666669</ele><time>2026-04-26T16:56:55.381Z</time></trkpt><trkpt lat="33.2892317" lon="-8.0064717"><ele>164.33333333333334</ele><time>2026-04-26T16:56:56.381Z</time></trkpt><trkpt lat="33.2893633" lon="-8.006365"><ele>165.0</ele><time>2026-04-26T16:56:57.381Z</time></trkpt><trkpt lat="33.289495" lon="-8.00626"><ele>165.0</ele><time>2026-04-26T16:56:58.381Z</time></trkpt><trkpt lat="33.2896267" lon="-8.0061567"><ele>165.0</ele><time>2026-04-26T16:56:59.381Z</time></trkpt><trkpt lat="33.2897633" lon="-8.006055"><ele>165.0</ele><time>2026-04-26T16:57:00.381Z</time></trkpt><trkpt lat="33.2899" lon="-8.0059483"><ele>165.0</ele><time>2026-04-26T16:57:01.381Z</time></trkpt><trkpt lat="33.29003" lon="-8.0058417"><ele>165.0</ele><time>2026-04-26T16:57:02.381Z</time></trkpt><trkpt lat="33.290165" lon="-8.005735"><ele>165.0</ele><time>2026-04-26T16:57:03.381Z</time></trkpt><trkpt lat="33.2903017" lon="-8.0056267"><ele>165.66666666666666</ele><time>2026-04-26T16:57:04.381Z</time></trkpt><trkpt lat="33.2904383" lon="-8.0055183"><ele>166.33333333333331</ele><time>2026-04-26T16:57:05.381Z</time></trkpt><trkpt lat="33.2905767" lon="-8.005405"><ele>167.0</ele><time>2026-04-26T16:57:06.381Z</time></trkpt><trkpt lat="33.2907183" lon="-8.00529"><ele>167.0</ele><time>2026-04-26T16:57:07.381Z</time></trkpt><trkpt lat="33.290865" lon="-8.005175"><ele>167.0</ele><time>2026-04-26T16:57:08.381Z</time></trkpt><trkpt lat="33.2910133" lon="-8.0050617"><ele>167.0</ele><time>2026-04-26T16:57:09.381Z</time></trkpt><trkpt lat="33.2911667" lon="-8.004945"><ele>167.0</ele><time>2026-04-26T16:57:10.381Z</time></trkpt><trkpt lat="33.2913217" lon="-8.0048233"><ele>167.0</ele><time>2026-04-26T16:57:11.381Z</time></trkpt><trkpt lat="33.2914767" lon="-8.0046983"><ele>167.0</ele><time>2026-04-26T16:57:12.381Z</time></trkpt><trkpt lat="33.2916283" lon="-8.00457"><ele>167.0</ele><time>2026-04-26T16:57:13.381Z</time></trkpt><trkpt lat="33.291775" lon="-8.0044417"><ele>167.0</ele><time>2026-04-26T16:57:14.381Z</time></trkpt><trkpt lat="33.29193" lon="-8.0043167"><ele>167.0</ele><time>2026-04-26T16:57:15.381Z</time></trkpt><trkpt lat="33.2920833" lon="-8.0041917"><ele>167.0</ele><time>2026-04-26T16:57:16.381Z</time></trkpt><trkpt lat="33.29224" lon="-8.00407"><ele>167.0</ele><time>2026-04-26T16:57:17.381Z</time></trkpt><trkpt lat="33.292395" lon="-8.0039467"><ele>167.0</ele><time>2026-04-26T16:57:18.382Z</time></trkpt><trkpt lat="33.2925467" lon="-8.0038217"><ele>167.33333333333331</ele><time>2026-04-26T16:57:19.381Z</time></trkpt><trkpt lat="33.2927033" lon="-8.0037"><ele>167.66666666666666</ele><time>2026-04-26T16:57:20.381Z</time></trkpt><trkpt lat="33.292855" lon="-8.00358"><ele>168.0</ele><time>2026-04-26T16:57:21.382Z</time></trkpt><trkpt lat="33.2930117" lon="-8.0034567"><ele>167.66666666666666</ele><time>2026-04-26T16:57:22.381Z</time></trkpt><trkpt lat="33.2931667" lon="-8.0033383"><ele>167.33333333333331</ele><time>2026-04-26T16:57:23.381Z</time></trkpt><trkpt lat="33.29331" lon="-8.003225"><ele>167.0</ele><time>2026-04-26T16:57:24.381Z</time></trkpt><trkpt lat="33.29345" lon="-8.00311"><ele>166.66666666666666</ele><time>2026-04-26T16:57:25.381Z</time></trkpt><trkpt lat="33.2935883" lon="-8.0029967"><ele>166.33333333333334</ele><time>2026-04-26T16:57:26.381Z</time></trkpt><trkpt lat="33.2937283" lon="-8.0028867"><ele>166.0</ele><time>2026-04-26T16:57:27.381Z</time></trkpt><trkpt lat="33.2938683" lon="-8.0027733"><ele>165.66666666666669</ele><time>2026-04-26T16:57:28.381Z</time></trkpt><trkpt lat="33.294015" lon="-8.0026583"><ele>165.33333333333334</ele><time>2026-04-26T16:57:29.381Z</time></trkpt><trkpt lat="33.2941617" lon="-8.0025483"><ele>165.0</ele><time>2026-04-26T16:57:30.381Z</time></trkpt><trkpt lat="33.294305" lon="-8.0024283"><ele>165.0</ele><time>2026-04-26T16:57:31.381Z</time></trkpt><trkpt lat="33.2944533" lon="-8.0023083"><ele>165.0</ele><time>2026-04-26T16:57:32.381Z</time></trkpt><trkpt lat="33.2946" lon="-8.00219"><ele>165.0</ele><time>2026-04-26T16:57:33.381Z</time></trkpt><trkpt lat="33.2947517" lon="-8.0020733"><ele>164.66666666666666</ele><time>2026-04-26T16:57:34.381Z</time></trkpt><trkpt lat="33.2949083" lon="-8.0019617"><ele>164.33333333333331</ele><time>2026-04-26T16:57:35.381Z</time></trkpt><trkpt lat="33.2950683" lon="-8.001855"><ele>164.0</ele><time>2026-04-26T16:57:36.381Z</time></trkpt><trkpt lat="33.2952367" lon="-8.0017533"><ele>163.66666666666666</ele><time>2026-04-26T16:57:37.381Z</time></trkpt><trkpt lat="33.29541" lon="-8.0016567"><ele>163.33333333333334</ele><time>2026-04-26T16:57:38.381Z</time></trkpt><trkpt lat="33.2955833" lon="-8.0015583"><ele>163.0</ele><time>2026-04-26T16:57:39.381Z</time></trkpt><trkpt lat="33.2957617" lon="-8.0014617"><ele>163.0</ele><time>2026-04-26T16:57:40.381Z</time></trkpt><trkpt lat="33.2959383" lon="-8.0013683"><ele>163.0</ele><time>2026-04-26T16:57:41.381Z</time></trkpt><trkpt lat="33.2961167" lon="-8.0012783"><ele>163.0</ele><time>2026-04-26T16:57:42.381Z</time></trkpt><trkpt lat="33.2962867" lon="-8.0011983"><ele>162.0</ele><time>2026-04-26T16:57:43.381Z</time></trkpt><trkpt lat="33.29646" lon="-8.0011183"><ele>161.0</ele><time>2026-04-26T16:57:44.381Z</time></trkpt><trkpt lat="33.2966317" lon="-8.00104"><ele>160.0</ele><time>2026-04-26T16:57:45.381Z</time></trkpt><trkpt lat="33.2968" lon="-8.0009617"><ele>160.0</ele><time>2026-04-26T16:57:46.381Z</time></trkpt><trkpt lat="33.296965" lon="-8.000885"><ele>160.0</ele><time>2026-04-26T16:57:47.381Z</time></trkpt><trkpt lat="33.2971333" lon="-8.0008067"><ele>160.0</ele><time>2026-04-26T16:57:48.381Z</time></trkpt><trkpt lat="33.2973" lon="-8.0007267"><ele>160.66666666666669</ele><time>2026-04-26T16:57:49.381Z</time></trkpt><trkpt lat="33.297465" lon="-8.000645"><ele>161.33333333333334</ele><time>2026-04-26T16:57:50.381Z</time></trkpt><trkpt lat="33.2976317" lon="-8.0005667"><ele>162.0</ele><time>2026-04-26T16:57:51.381Z</time></trkpt><trkpt lat="33.2977967" lon="-8.00049"><ele>162.0</ele><time>2026-04-26T16:57:52.381Z</time></trkpt><trkpt lat="33.297965" lon="-8.00041"><ele>162.0</ele><time>2026-04-26T16:57:53.381Z</time></trkpt><trkpt lat="33.2981233" lon="-8.0003333"><ele>162.0</ele><time>2026-04-26T16:57:54.381Z</time></trkpt><trkpt lat="33.2982817" lon="-8.0002583"><ele>162.0</ele><time>2026-04-26T16:57:55.381Z</time></trkpt><trkpt lat="33.2984433" lon="-8.00018"><ele>162.0</ele><time>2026-04-26T16:57:56.381Z</time></trkpt><trkpt lat="33.2986067" lon="-8.0001017"><ele>162.0</ele><time>2026-04-26T16:57:57.381Z</time></trkpt><trkpt lat="33.298775" lon="-8.0000183"><ele>160.33333333333334</ele><time>2026-04-26T16:57:58.381Z</time></trkpt><trkpt lat="33.2989483" lon="-7.9999367"><ele>158.66666666666669</ele><time>2026-04-26T16:57:59.381Z</time></trkpt><trkpt lat="33.2991233" lon="-7.9998567"><ele>157.0</ele><time>2026-04-26T16:58:00.382Z</time></trkpt><trkpt lat="33.2992983" lon="-7.9997783"><ele>157.0</ele><time>2026-04-26T16:58:01.381Z</time></trkpt><trkpt lat="33.2994683" lon="-7.9996917"><ele>157.0</ele><time>2026-04-26T16:58:02.381Z</time></trkpt><trkpt lat="33.29964" lon="-7.9996083"><ele>157.0</ele><time>2026-04-26T16:58:03.381Z</time></trkpt><trkpt lat="33.29981" lon="-7.9995217"><ele>156.66666666666669</ele><time>2026-04-26T16:58:04.381Z</time></trkpt><trkpt lat="33.29999" lon="-7.9994417"><ele>156.33333333333334</ele><time>2026-04-26T16:58:05.381Z</time></trkpt><trkpt lat="33.3001633" lon="-7.999355"><ele>156.0</ele><time>2026-04-26T16:58:06.381Z</time></trkpt><trkpt lat="33.3003433" lon="-7.9992683"><ele>156.0</ele><time>2026-04-26T16:58:07.381Z</time></trkpt><trkpt lat="33.3005183" lon="-7.999185"><ele>156.0</ele><time>2026-04-26T16:58:08.381Z</time></trkpt><trkpt lat="33.3006883" lon="-7.999105"><ele>156.0</ele><time>2026-04-26T16:58:09.381Z</time></trkpt><trkpt lat="33.3008517" lon="-7.999025"><ele>156.0</ele><time>2026-04-26T16:58:10.381Z</time></trkpt><trkpt lat="33.3010117" lon="-7.998945"><ele>156.0</ele><time>2026-04-26T16:58:11.381Z</time></trkpt><trkpt lat="33.3011783" lon="-7.9988683"><ele>156.0</ele><time>2026-04-26T16:58:12.381Z</time></trkpt><trkpt lat="33.3013483" lon="-7.9987817"><ele>155.0</ele><time>2026-04-26T16:58:13.381Z</time></trkpt><trkpt lat="33.30152" lon="-7.9986917"><ele>154.0</ele><time>2026-04-26T16:58:14.381Z</time></trkpt><trkpt lat="33.3016967" lon="-7.998605"><ele>153.0</ele><time>2026-04-26T16:58:15.381Z</time></trkpt><trkpt lat="33.3018767" lon="-7.9985167"><ele>153.0</ele><time>2026-04-26T16:58:16.381Z</time></trkpt><trkpt lat="33.3020583" lon="-7.9984233"><ele>153.0</ele><time>2026-04-26T16:58:17.381Z</time></trkpt><trkpt lat="33.3022367" lon="-7.9983217"><ele>153.0</ele><time>2026-04-26T16:58:18.381Z</time></trkpt><trkpt lat="33.3024167" lon="-7.9982217"><ele>154.0</ele><time>2026-04-26T16:58:19.381Z</time></trkpt><trkpt lat="33.302605" lon="-7.9981233"><ele>155.0</ele><time>2026-04-26T16:58:20.381Z</time></trkpt><trkpt lat="33.3027783" lon="-7.99801"><ele>156.0</ele><time>2026-04-26T16:58:21.381Z</time></trkpt><trkpt lat="33.30295" lon="-7.9978917"><ele>155.33333333333334</ele><time>2026-04-26T16:58:22.382Z</time></trkpt><trkpt lat="33.3031183" lon="-7.9977683"><ele>154.66666666666669</ele><time>2026-04-26T16:58:23.381Z</time></trkpt><trkpt lat="33.3032883" lon="-7.9976333"><ele>154.0</ele><time>2026-04-26T16:58:24.382Z</time></trkpt><trkpt lat="33.3034567" lon="-7.9974967"><ele>153.66666666666669</ele><time>2026-04-26T16:58:25.381Z</time></trkpt><trkpt lat="33.30362" lon="-7.9973617"><ele>153.33333333333334</ele><time>2026-04-26T16:58:26.381Z</time></trkpt><trkpt lat="33.30378" lon="-7.99723"><ele>153.0</ele><time>2026-04-26T16:58:27.381Z</time></trkpt><trkpt lat="33.3039367" lon="-7.9970967"><ele>153.66666666666666</ele><time>2026-04-26T16:58:28.381Z</time></trkpt><trkpt lat="33.304095" lon="-7.9969667"><ele>154.33333333333331</ele><time>2026-04-26T16:58:29.381Z</time></trkpt><trkpt lat="33.3042533" lon="-7.9968417"><ele>155.0</ele><time>2026-04-26T16:58:30.381Z</time></trkpt><trkpt lat="33.3044017" lon="-7.9967183"><ele>155.33333333333331</ele><time>2026-04-26T16:58:31.381Z</time></trkpt><trkpt lat="33.304545" lon="-7.9966033"><ele>155.66666666666666</ele><time>2026-04-26T16:58:32.381Z</time></trkpt><trkpt lat="33.3046833" lon="-7.9964917"><ele>156.0</ele><time>2026-04-26T16:58:33.381Z</time></trkpt><trkpt lat="33.30482" lon="-7.9963817"><ele>157.0</ele><time>2026-04-26T16:58:34.381Z</time></trkpt><trkpt lat="33.304955" lon="-7.99627"><ele>158.0</ele><time>2026-04-26T16:58:35.381Z</time></trkpt><trkpt lat="33.3050833" lon="-7.99616"><ele>159.0</ele><time>2026-04-26T16:58:36.381Z</time></trkpt><trkpt lat="33.3052117" lon="-7.9960533"><ele>159.0</ele><time>2026-04-26T16:58:37.381Z</time></trkpt><trkpt lat="33.3053333" lon="-7.9959517"><ele>159.0</ele><time>2026-04-26T16:58:38.381Z</time></trkpt><trkpt lat="33.3054583" lon="-7.995855"><ele>159.0</ele><time>2026-04-26T16:58:39.381Z</time></trkpt><trkpt lat="33.3055767" lon="-7.9957583"><ele>159.0</ele><time>2026-04-26T16:58:40.381Z</time></trkpt><trkpt lat="33.305695" lon="-7.9956633"><ele>158.25</ele><time>2026-04-26T16:58:41.381Z</time></trkpt><trkpt lat="33.305815" lon="-7.9955683"><ele>157.5</ele><time>2026-04-26T16:58:42.382Z</time></trkpt><trkpt lat="33.3059317" lon="-7.9954733"><ele>156.75</ele><time>2026-04-26T16:58:43.381Z</time></trkpt><trkpt lat="33.3060483" lon="-7.9953717"><ele>156.0</ele><time>2026-04-26T16:58:44.381Z</time></trkpt><trkpt lat="33.3061683" lon="-7.9952633"><ele>156.0</ele><time>2026-04-26T16:58:45.381Z</time></trkpt><trkpt lat="33.3062933" lon="-7.995155"><ele>156.0</ele><time>2026-04-26T16:58:46.382Z</time></trkpt><trkpt lat="33.3064267" lon="-7.9950433"><ele>156.0</ele><time>2026-04-26T16:58:47.381Z</time></trkpt><trkpt lat="33.30657" lon="-7.99493"><ele>155.33333333333334</ele><time>2026-04-26T16:58:48.381Z</time></trkpt><trkpt lat="33.306725" lon="-7.9948167"><ele>154.66666666666669</ele><time>2026-04-26T16:58:49.381Z</time></trkpt><trkpt lat="33.3068817" lon="-7.9946933"><ele>154.0</ele><time>2026-04-26T16:58:50.381Z</time></trkpt><trkpt lat="33.3070417" lon="-7.9945683"><ele>154.0</ele><time>2026-04-26T16:58:51.381Z</time></trkpt><trkpt lat="33.307205" lon="-7.994435"><ele>154.0</ele><time>2026-04-26T16:58:52.381Z</time></trkpt><trkpt lat="33.3073667" lon="-7.9942967"><ele>154.0</ele><time>2026-04-26T16:58:53.381Z</time></trkpt><trkpt lat="33.3075317" lon="-7.9941533"><ele>154.33333333333334</ele><time>2026-04-26T16:58:54.381Z</time></trkpt><trkpt lat="33.3076983" lon="-7.99401"><ele>154.66666666666666</ele><time>2026-04-26T16:58:55.381Z</time></trkpt><trkpt lat="33.3078667" lon="-7.993865"><ele>155.0</ele><time>2026-04-26T16:58:56.381Z</time></trkpt><trkpt lat="33.308035" lon="-7.9937133"><ele>155.0</ele><time>2026-04-26T16:58:57.381Z</time></trkpt><trkpt lat="33.3082067" lon="-7.993565"><ele>155.0</ele><time>2026-04-26T16:58:58.381Z</time></trkpt><trkpt lat="33.3083817" lon="-7.9934183"><ele>155.0</ele><time>2026-04-26T16:58:59.381Z</time></trkpt><trkpt lat="33.3085617" lon="-7.99327"><ele>155.0</ele><time>2026-04-26T16:59:00.381Z</time></trkpt><trkpt lat="33.3087467" lon="-7.993125"><ele>155.0</ele><time>2026-04-26T16:59:01.381Z</time></trkpt><trkpt lat="33.3089317" lon="-7.9929683"><ele>155.0</ele><time>2026-04-26T16:59:02.381Z</time></trkpt><trkpt lat="33.3091133" lon="-7.9928133"><ele>155.33333333333331</ele><time>2026-04-26T16:59:03.381Z</time></trkpt><trkpt lat="33.3092933" lon="-7.9926617"><ele>155.66666666666666</ele><time>2026-04-26T16:59:04.381Z</time></trkpt><trkpt lat="33.30947" lon="-7.9925167"><ele>156.0</ele><time>2026-04-26T16:59:05.381Z</time></trkpt><trkpt lat="33.30965" lon="-7.9923683"><ele>155.33333333333334</ele><time>2026-04-26T16:59:06.381Z</time></trkpt><trkpt lat="33.3098333" lon="-7.99222"><ele>154.66666666666669</ele><time>2026-04-26T16:59:07.381Z</time></trkpt><trkpt lat="33.3100117" lon="-7.9920717"><ele>154.0</ele><time>2026-04-26T16:59:08.381Z</time></trkpt><trkpt lat="33.3101833" lon="-7.9919267"><ele>154.0</ele><time>2026-04-26T16:59:09.381Z</time></trkpt><trkpt lat="33.3103517" lon="-7.9917883"><ele>154.0</ele><time>2026-04-26T16:59:10.381Z</time></trkpt><trkpt lat="33.3105133" lon="-7.9916517"><ele>154.0</ele><time>2026-04-26T16:59:11.381Z</time></trkpt><trkpt lat="33.310675" lon="-7.9915167"><ele>153.66666666666669</ele><time>2026-04-26T16:59:12.381Z</time></trkpt><trkpt lat="33.3108333" lon="-7.991385"><ele>153.33333333333334</ele><time>2026-04-26T16:59:13.381Z</time></trkpt><trkpt lat="33.3109917" lon="-7.9912517"><ele>153.0</ele><time>2026-04-26T16:59:14.381Z</time></trkpt><trkpt lat="33.31115" lon="-7.99112"><ele>153.0</ele><time>2026-04-26T16:59:15.381Z</time></trkpt><trkpt lat="33.31131" lon="-7.990985"><ele>153.0</ele><time>2026-04-26T16:59:16.381Z</time></trkpt><trkpt lat="33.3114733" lon="-7.9908517"><ele>153.0</ele><time>2026-04-26T16:59:17.381Z</time></trkpt><trkpt lat="33.311635" lon="-7.9907183"><ele>152.33333333333334</ele><time>2026-04-26T16:59:18.381Z</time></trkpt><trkpt lat="33.3117967" lon="-7.9905883"><ele>151.66666666666669</ele><time>2026-04-26T16:59:19.381Z</time></trkpt><trkpt lat="33.311955" lon="-7.9904533"><ele>151.0</ele><time>2026-04-26T16:59:20.381Z</time></trkpt><trkpt lat="33.312115" lon="-7.9903167"><ele>150.0</ele><time>2026-04-26T16:59:21.381Z</time></trkpt><trkpt lat="33.31228" lon="-7.9901917"><ele>149.0</ele><time>2026-04-26T16:59:22.381Z</time></trkpt><trkpt lat="33.31245" lon="-7.990075"><ele>148.0</ele><time>2026-04-26T16:59:23.381Z</time></trkpt><trkpt lat="33.3126183" lon="-7.98997"><ele>148.0</ele><time>2026-04-26T16:59:24.382Z</time></trkpt><trkpt lat="33.3127967" lon="-7.9898733"><ele>148.0</ele><time>2026-04-26T16:59:25.381Z</time></trkpt><trkpt lat="33.3129817" lon="-7.98979"><ele>148.0</ele><time>2026-04-26T16:59:26.381Z</time></trkpt><trkpt lat="33.31317" lon="-7.9897217"><ele>149.33333333333334</ele><time>2026-04-26T16:59:27.381Z</time></trkpt><trkpt lat="33.313365" lon="-7.9896583"><ele>150.66666666666666</ele><time>2026-04-26T16:59:28.381Z</time></trkpt><trkpt lat="33.3135633" lon="-7.98961"><ele>152.0</ele><time>2026-04-26T16:59:29.381Z</time></trkpt><trkpt lat="33.313765" lon="-7.9895667"><ele>152.0</ele><time>2026-04-26T16:59:30.381Z</time></trkpt><trkpt lat="33.3139633" lon="-7.9895283"><ele>152.0</ele><time>2026-04-26T16:59:31.381Z</time></trkpt><trkpt lat="33.314165" lon="-7.989495"><ele>152.0</ele><time>2026-04-26T16:59:32.381Z</time></trkpt><trkpt lat="33.3143667" lon="-7.98946"><ele>152.0</ele><time>2026-04-26T16:59:33.381Z</time></trkpt><trkpt lat="33.314575" lon="-7.98943"><ele>152.0</ele><time>2026-04-26T16:59:34.381Z</time></trkpt><trkpt lat="33.3147783" lon="-7.9894017"><ele>152.0</ele><time>2026-04-26T16:59:35.381Z</time></trkpt><trkpt lat="33.3149783" lon="-7.9893767"><ele>151.33333333333331</ele><time>2026-04-26T16:59:36.381Z</time></trkpt><trkpt lat="33.31518" lon="-7.9893483"><ele>150.66666666666666</ele><time>2026-04-26T16:59:37.381Z</time></trkpt><trkpt lat="33.315385" lon="-7.9893183"><ele>150.0</ele><time>2026-04-26T16:59:38.381Z</time></trkpt><trkpt lat="33.31559" lon="-7.9892883"><ele>150.0</ele><time>2026-04-26T16:59:39.381Z</time></trkpt><trkpt lat="33.31579" lon="-7.9892617"><ele>150.0</ele><time>2026-04-26T16:59:40.381Z</time></trkpt><trkpt lat="33.31598" lon="-7.9892383"><ele>150.0</ele><time>2026-04-26T16:59:41.381Z</time></trkpt><trkpt lat="33.31617" lon="-7.98921"><ele>150.0</ele><time>2026-04-26T16:59:42.381Z</time></trkpt><trkpt lat="33.3163567" lon="-7.98918"><ele>150.0</ele><time>2026-04-26T16:59:43.381Z</time></trkpt><trkpt lat="33.3165417" lon="-7.9891483"><ele>150.0</ele><time>2026-04-26T16:59:44.381Z</time></trkpt><trkpt lat="33.31673" lon="-7.9891167"><ele>149.0</ele><time>2026-04-26T16:59:45.381Z</time></trkpt><trkpt lat="33.316915" lon="-7.9890867"><ele>148.0</ele><time>2026-04-26T16:59:46.382Z</time></trkpt><trkpt lat="33.3170983" lon="-7.989065"><ele>147.0</ele><time>2026-04-26T16:59:47.381Z</time></trkpt><trkpt lat="33.3172817" lon="-7.98904"><ele>147.0</ele><time>2026-04-26T16:59:48.381Z</time></trkpt><trkpt lat="33.3174683" lon="-7.9890067"><ele>147.0</ele><time>2026-04-26T16:59:49.381Z</time></trkpt><trkpt lat="33.317655" lon="-7.9889767"><ele>147.0</ele><time>2026-04-26T16:59:50.381Z</time></trkpt><trkpt lat="33.3178417" lon="-7.9889467"><ele>147.0</ele><time>2026-04-26T16:59:51.381Z</time></trkpt><trkpt lat="33.3180267" lon="-7.9889217"><ele>147.0</ele><time>2026-04-26T16:59:52.381Z</time></trkpt><trkpt lat="33.318215" lon="-7.9888917"><ele>147.0</ele><time>2026-04-26T16:59:53.381Z</time></trkpt><trkpt lat="33.3184" lon="-7.988865"><ele>148.66666666666666</ele><time>2026-04-26T16:59:54.381Z</time></trkpt><trkpt lat="33.31858" lon="-7.9888367"><ele>150.33333333333331</ele><time>2026-04-26T16:59:55.381Z</time></trkpt><trkpt lat="33.31875" lon="-7.98881"><ele>152.0</ele><time>2026-04-26T16:59:56.381Z</time></trkpt><trkpt lat="33.3189183" lon="-7.9887833"><ele>152.0</ele><time>2026-04-26T16:59:57.381Z</time></trkpt><trkpt lat="33.3190817" lon="-7.98876"><ele>152.0</ele><time>2026-04-26T16:59:58.381Z</time></trkpt><trkpt lat="33.3192467" lon="-7.9887317"><ele>152.0</ele><time>2026-04-26T16:59:59.381Z</time></trkpt><trkpt lat="33.3194083" lon="-7.9887067"><ele>152.0</ele><time>2026-04-26T17:00:00.381Z</time></trkpt><trkpt lat="33.319575" lon="-7.9886783"><ele>152.0</ele><time>2026-04-26T17:00:01.381Z</time></trkpt><trkpt lat="33.3197433" lon="-7.9886517"><ele>152.0</ele><time>2026-04-26T17:00:02.381Z</time></trkpt><trkpt lat="33.3199133" lon="-7.9886283"><ele>151.33333333333331</ele><time>2026-04-26T17:00:03.381Z</time></trkpt><trkpt lat="33.3200867" lon="-7.988605"><ele>150.66666666666666</ele><time>2026-04-26T17:00:04.381Z</time></trkpt><trkpt lat="33.3202633" lon="-7.9885817"><ele>150.0</ele><time>2026-04-26T17:00:05.381Z</time></trkpt><trkpt lat="33.3204417" lon="-7.9885517"><ele>149.0</ele><time>2026-04-26T17:00:06.381Z</time></trkpt><trkpt lat="33.3206283" lon="-7.9885283"><ele>148.0</ele><time>2026-04-26T17:00:07.381Z</time></trkpt><trkpt lat="33.3208217" lon="-7.9885"><ele>147.0</ele><time>2026-04-26T17:00:08.381Z</time></trkpt><trkpt lat="33.3210217" lon="-7.988475"><ele>147.0</ele><time>2026-04-26T17:00:09.381Z</time></trkpt><trkpt lat="33.321225" lon="-7.9884483"><ele>147.0</ele><time>2026-04-26T17:00:10.381Z</time></trkpt><trkpt lat="33.3214317" lon="-7.988415"><ele>147.0</ele><time>2026-04-26T17:00:11.381Z</time></trkpt><trkpt lat="33.3216383" lon="-7.988375"><ele>147.66666666666666</ele><time>2026-04-26T17:00:12.381Z</time></trkpt><trkpt lat="33.321845" lon="-7.9883367"><ele>148.33333333333331</ele><time>2026-04-26T17:00:13.382Z</time></trkpt><trkpt lat="33.32205" lon="-7.9883"><ele>149.0</ele><time>2026-04-26T17:00:14.381Z</time></trkpt><trkpt lat="33.3222483" lon="-7.988265"><ele>149.0</ele><time>2026-04-26T17:00:15.381Z</time></trkpt><trkpt lat="33.3224433" lon="-7.988235"><ele>149.0</ele><time>2026-04-26T17:00:16.381Z</time></trkpt><trkpt lat="33.3226367" lon="-7.9882033"><ele>149.0</ele><time>2026-04-26T17:00:17.381Z</time></trkpt><trkpt lat="33.3228283" lon="-7.988175"><ele>149.0</ele><time>2026-04-26T17:00:18.381Z</time></trkpt><trkpt lat="33.3230217" lon="-7.988145"><ele>149.0</ele><time>2026-04-26T17:00:19.381Z</time></trkpt><trkpt lat="33.3232167" lon="-7.988115"><ele>149.0</ele><time>2026-04-26T17:00:20.381Z</time></trkpt><trkpt lat="33.32341" lon="-7.9880917"><ele>148.0</ele><time>2026-04-26T17:00:21.381Z</time></trkpt><trkpt lat="33.3236067" lon="-7.988065"><ele>147.0</ele><time>2026-04-26T17:00:22.381Z</time></trkpt><trkpt lat="33.3238017" lon="-7.9880367"><ele>146.0</ele><time>2026-04-26T17:00:23.381Z</time></trkpt><trkpt lat="33.3239933" lon="-7.98801"><ele>145.33333333333331</ele><time>2026-04-26T17:00:24.381Z</time></trkpt><trkpt lat="33.324185" lon="-7.98798"><ele>144.66666666666666</ele><time>2026-04-26T17:00:25.381Z</time></trkpt><trkpt lat="33.32438" lon="-7.9879517"><ele>144.0</ele><time>2026-04-26T17:00:26.381Z</time></trkpt><trkpt lat="33.324575" lon="-7.9879217"><ele>144.0</ele><time>2026-04-26T17:00:27.381Z</time></trkpt><trkpt lat="33.3247683" lon="-7.9878883"><ele>144.0</ele><time>2026-04-26T17:00:28.381Z</time></trkpt><trkpt lat="33.3249633" lon="-7.9878533"><ele>144.0</ele><time>2026-04-26T17:00:29.381Z</time></trkpt><trkpt lat="33.3251517" lon="-7.98782"><ele>144.0</ele><time>2026-04-26T17:00:30.381Z</time></trkpt><trkpt lat="33.32534" lon="-7.98779"><ele>144.0</ele><time>2026-04-26T17:00:31.381Z</time></trkpt><trkpt lat="33.32553" lon="-7.9877667"><ele>144.0</ele><time>2026-04-26T17:00:32.381Z</time></trkpt><trkpt lat="33.3257183" lon="-7.9877517"><ele>144.33333333333334</ele><time>2026-04-26T17:00:33.381Z</time></trkpt><trkpt lat="33.3259083" lon="-7.9877417"><ele>144.66666666666669</ele><time>2026-04-26T17:00:34.381Z</time></trkpt><trkpt lat="33.3261" lon="-7.9877417"><ele>145.0</ele><time>2026-04-26T17:00:35.381Z</time></trkpt><trkpt lat="33.3262867" lon="-7.9877583"><ele>145.33333333333334</ele><time>2026-04-26T17:00:36.381Z</time></trkpt><trkpt lat="33.326475" lon="-7.9877883"><ele>145.66666666666666</ele><time>2026-04-26T17:00:37.381Z</time></trkpt><trkpt lat="33.32666" lon="-7.987835"><ele>146.0</ele><time>2026-04-26T17:00:38.381Z</time></trkpt><trkpt lat="33.3268467" lon="-7.9878867"><ele>146.0</ele><time>2026-04-26T17:00:39.381Z</time></trkpt><trkpt lat="33.3270333" lon="-7.98794"><ele>146.0</ele><time>2026-04-26T17:00:40.381Z</time></trkpt><trkpt lat="33.32722" lon="-7.987995"><ele>146.0</ele><time>2026-04-26T17:00:41.381Z</time></trkpt><trkpt lat="33.3273833" lon="-7.9880433"><ele>146.0</ele><time>2026-04-26T17:00:42.381Z</time></trkpt><trkpt lat="33.3275133" lon="-7.9880883"><ele>146.0</ele><time>2026-04-26T17:00:43.381Z</time></trkpt><trkpt lat="33.3276433" lon="-7.9881317"><ele>146.0</ele><time>2026-04-26T17:00:44.381Z</time></trkpt><trkpt lat="33.3277517" lon="-7.9881717"><ele>146.0</ele><time>2026-04-26T17:00:45.381Z</time></trkpt><trkpt lat="33.3278483" lon="-7.9881833"><ele>146.0</ele><time>2026-04-26T17:00:46.381Z</time></trkpt><trkpt lat="33.327935" lon="-7.9881683"><ele>146.0</ele><time>2026-04-26T17:00:47.381Z</time></trkpt><trkpt lat="33.3280117" lon="-7.9881267"><ele>146.0</ele><time>2026-04-26T17:00:48.381Z</time></trkpt><trkpt lat="33.3280733" lon="-7.9880517"><ele>146.0</ele><time>2026-04-26T17:00:49.381Z</time></trkpt><trkpt lat="33.3281267" lon="-7.98796"><ele>146.0</ele><time>2026-04-26T17:00:50.381Z</time></trkpt><trkpt lat="33.3281933" lon="-7.987855"><ele>145.75</ele><time>2026-04-26T17:00:51.381Z</time></trkpt><trkpt lat="33.3282683" lon="-7.9877533"><ele>145.5</ele><time>2026-04-26T17:00:52.381Z</time></trkpt><trkpt lat="33.3283517" lon="-7.9876467"><ele>145.25</ele><time>2026-04-26T17:00:53.381Z</time></trkpt><trkpt lat="33.3284383" lon="-7.98753"><ele>145.0</ele><time>2026-04-26T17:00:54.381Z</time></trkpt><trkpt lat="33.328535" lon="-7.98741"><ele>145.5</ele><time>2026-04-26T17:00:55.381Z</time></trkpt><trkpt lat="33.3286317" lon="-7.9872867"><ele>146.0</ele><time>2026-04-26T17:00:56.381Z</time></trkpt><trkpt lat="33.32873" lon="-7.98716"><ele>146.5</ele><time>2026-04-26T17:00:57.381Z</time></trkpt><trkpt lat="33.328825" lon="-7.9870383"><ele>147.0</ele><time>2026-04-26T17:00:58.381Z</time></trkpt><trkpt lat="33.328915" lon="-7.9869233"><ele>147.0</ele><time>2026-04-26T17:00:59.381Z</time></trkpt><trkpt lat="33.329" lon="-7.986815"><ele>147.0</ele><time>2026-04-26T17:01:00.381Z</time></trkpt><trkpt lat="33.3290817" lon="-7.98671"><ele>147.0</ele><time>2026-04-26T17:01:01.382Z</time></trkpt><trkpt lat="33.3291633" lon="-7.9866033"><ele>147.0</ele><time>2026-04-26T17:01:02.381Z</time></trkpt><trkpt lat="33.32925" lon="-7.98649"><ele>147.25</ele><time>2026-04-26T17:01:03.381Z</time></trkpt><trkpt lat="33.329345" lon="-7.9863717"><ele>147.5</ele><time>2026-04-26T17:01:04.381Z</time></trkpt><trkpt lat="33.3294467" lon="-7.9862467"><ele>147.75</ele><time>2026-04-26T17:01:05.381Z</time></trkpt><trkpt lat="33.329555" lon="-7.9861167"><ele>148.0</ele><time>2026-04-26T17:01:06.381Z</time></trkpt><trkpt lat="33.329665" lon="-7.9859817"><ele>147.66666666666669</ele><time>2026-04-26T17:01:07.381Z</time></trkpt><trkpt lat="33.3297767" lon="-7.9858417"><ele>147.33333333333334</ele><time>2026-04-26T17:01:08.381Z</time></trkpt><trkpt lat="33.3298933" lon="-7.985695"><ele>147.0</ele><time>2026-04-26T17:01:09.381Z</time></trkpt><trkpt lat="33.3300133" lon="-7.9855433"><ele>147.0</ele><time>2026-04-26T17:01:10.381Z</time></trkpt><trkpt lat="33.330135" lon="-7.9853867"><ele>147.0</ele><time>2026-04-26T17:01:11.381Z</time></trkpt><trkpt lat="33.3302583" lon="-7.9852283"><ele>147.0</ele><time>2026-04-26T17:01:12.381Z</time></trkpt><trkpt lat="33.330385" lon="-7.985065"><ele>146.66666666666666</ele><time>2026-04-26T17:01:13.381Z</time></trkpt><trkpt lat="33.3305117" lon="-7.9848983"><ele>146.33333333333331</ele><time>2026-04-26T17:01:14.381Z</time></trkpt><trkpt lat="33.3306483" lon="-7.9847367"><ele>146.0</ele><time>2026-04-26T17:01:15.381Z</time></trkpt><trkpt lat="33.330775" lon="-7.9845667"><ele>146.0</ele><time>2026-04-26T17:01:16.381Z</time></trkpt><trkpt lat="33.3309017" lon="-7.9843933"><ele>146.0</ele><time>2026-04-26T17:01:17.381Z</time></trkpt><trkpt lat="33.331035" lon="-7.9842167"><ele>146.0</ele><time>2026-04-26T17:01:18.381Z</time></trkpt><trkpt lat="33.33117" lon="-7.9840417"><ele>145.66666666666666</ele><time>2026-04-26T17:01:19.381Z</time></trkpt><trkpt lat="33.33131" lon="-7.9838667"><ele>145.33333333333334</ele><time>2026-04-26T17:01:20.381Z</time></trkpt><trkpt lat="33.3314517" lon="-7.98369"><ele>145.0</ele><time>2026-04-26T17:01:21.381Z</time></trkpt><trkpt lat="33.331595" lon="-7.98351"><ele>145.0</ele><time>2026-04-26T17:01:22.381Z</time></trkpt><trkpt lat="33.3317367" lon="-7.9833283"><ele>145.0</ele><time>2026-04-26T17:01:23.381Z</time></trkpt><trkpt lat="33.33188" lon="-7.9831467"><ele>145.0</ele><time>2026-04-26T17:01:24.381Z</time></trkpt><trkpt lat="33.332025" lon="-7.9829617"><ele>145.0</ele><time>2026-04-26T17:01:25.381Z</time></trkpt><trkpt lat="33.3321683" lon="-7.9827767"><ele>145.0</ele><time>2026-04-26T17:01:26.381Z</time></trkpt><trkpt lat="33.3323133" lon="-7.98259"><ele>145.0</ele><time>2026-04-26T17:01:27.381Z</time></trkpt><trkpt lat="33.3324583" lon="-7.9824017"><ele>145.66666666666669</ele><time>2026-04-26T17:01:28.381Z</time></trkpt><trkpt lat="33.3326033" lon="-7.9822133"><ele>146.33333333333334</ele><time>2026-04-26T17:01:29.381Z</time></trkpt><trkpt lat="33.33275" lon="-7.9820233"><ele>147.0</ele><time>2026-04-26T17:01:30.382Z</time></trkpt><trkpt lat="33.3328967" lon="-7.9818367"><ele>146.66666666666666</ele><time>2026-04-26T17:01:31.381Z</time></trkpt><trkpt lat="33.33304" lon="-7.9816533"><ele>146.33333333333331</ele><time>2026-04-26T17:01:32.381Z</time></trkpt><trkpt lat="33.3331783" lon="-7.9814767"><ele>146.0</ele><time>2026-04-26T17:01:33.381Z</time></trkpt><trkpt lat="33.333315" lon="-7.9813017"><ele>145.66666666666666</ele><time>2026-04-26T17:01:34.381Z</time></trkpt><trkpt lat="33.3334517" lon="-7.98113"><ele>145.33333333333334</ele><time>2026-04-26T17:01:35.381Z</time></trkpt><trkpt lat="33.3335883" lon="-7.98096"><ele>145.0</ele><time>2026-04-26T17:01:36.381Z</time></trkpt><trkpt lat="33.333725" lon="-7.9807883"><ele>145.0</ele><time>2026-04-26T17:01:37.381Z</time></trkpt><trkpt lat="33.3338617" lon="-7.980615"><ele>145.0</ele><time>2026-04-26T17:01:38.381Z</time></trkpt><trkpt lat="33.333995" lon="-7.98044"><ele>145.0</ele><time>2026-04-26T17:01:39.382Z</time></trkpt><trkpt lat="33.3341317" lon="-7.9802633"><ele>145.0</ele><time>2026-04-26T17:01:40.381Z</time></trkpt><trkpt lat="33.3342683" lon="-7.98009"><ele>145.0</ele><time>2026-04-26T17:01:41.381Z</time></trkpt><trkpt lat="33.334405" lon="-7.979915"><ele>145.0</ele><time>2026-04-26T17:01:42.381Z</time></trkpt><trkpt lat="33.33454" lon="-7.9797417"><ele>145.0</ele><time>2026-04-26T17:01:43.381Z</time></trkpt><trkpt lat="33.334675" lon="-7.9795683"><ele>145.0</ele><time>2026-04-26T17:01:44.381Z</time></trkpt><trkpt lat="33.3348133" lon="-7.9793967"><ele>145.0</ele><time>2026-04-26T17:01:45.381Z</time></trkpt><trkpt lat="33.33495" lon="-7.979225"><ele>145.0</ele><time>2026-04-26T17:01:46.381Z</time></trkpt><trkpt lat="33.3350867" lon="-7.9790517"><ele>145.0</ele><time>2026-04-26T17:01:47.381Z</time></trkpt><trkpt lat="33.3352233" lon="-7.9788817"><ele>145.0</ele><time>2026-04-26T17:01:48.381Z</time></trkpt><trkpt lat="33.33536" lon="-7.9787083"><ele>145.0</ele><time>2026-04-26T17:01:49.381Z</time></trkpt><trkpt lat="33.3354917" lon="-7.9785383"><ele>145.0</ele><time>2026-04-26T17:01:50.381Z</time></trkpt><trkpt lat="33.3356183" lon="-7.9783733"><ele>145.0</ele><time>2026-04-26T17:01:51.381Z</time></trkpt><trkpt lat="33.3357417" lon="-7.978215"><ele>143.66666666666669</ele><time>2026-04-26T17:01:52.381Z</time></trkpt><trkpt lat="33.33587" lon="-7.9780533"><ele>142.33333333333334</ele><time>2026-04-26T17:01:53.381Z</time></trkpt><trkpt lat="33.3359983" lon="-7.9778883"><ele>141.0</ele><time>2026-04-26T17:01:54.381Z</time></trkpt><trkpt lat="33.3361267" lon="-7.9777233"><ele>141.0</ele><time>2026-04-26T17:01:55.381Z</time></trkpt><trkpt lat="33.3362567" lon="-7.9775567"><ele>141.0</ele><time>2026-04-26T17:01:56.382Z</time></trkpt><trkpt lat="33.336385" lon="-7.9773917"><ele>141.0</ele><time>2026-04-26T17:01:57.381Z</time></trkpt><trkpt lat="33.3365117" lon="-7.9772283"><ele>141.66666666666666</ele><time>2026-04-26T17:01:58.381Z</time></trkpt><trkpt lat="33.3366383" lon="-7.977065"><ele>142.33333333333331</ele><time>2026-04-26T17:01:59.381Z</time></trkpt><trkpt lat="33.336765" lon="-7.9769"><ele>143.0</ele><time>2026-04-26T17:02:00.381Z</time></trkpt><trkpt lat="33.3368933" lon="-7.976735"><ele>142.66666666666666</ele><time>2026-04-26T17:02:01.381Z</time></trkpt><trkpt lat="33.3370233" lon="-7.9765667"><ele>142.33333333333334</ele><time>2026-04-26T17:02:02.381Z</time></trkpt><trkpt lat="33.3371567" lon="-7.9763933"><ele>142.0</ele><time>2026-04-26T17:02:03.381Z</time></trkpt><trkpt lat="33.3372933" lon="-7.97622"><ele>142.0</ele><time>2026-04-26T17:02:04.381Z</time></trkpt><trkpt lat="33.3374333" lon="-7.976045"><ele>142.0</ele><time>2026-04-26T17:02:05.381Z</time></trkpt><trkpt lat="33.3375767" lon="-7.9758683"><ele>142.0</ele><time>2026-04-26T17:02:06.381Z</time></trkpt><trkpt lat="33.3377183" lon="-7.9756883"><ele>141.66666666666669</ele><time>2026-04-26T17:02:07.381Z</time></trkpt><trkpt lat="33.33786" lon="-7.9755033"><ele>141.33333333333334</ele><time>2026-04-26T17:02:08.381Z</time></trkpt><trkpt lat="33.3380017" lon="-7.9753233"><ele>141.0</ele><time>2026-04-26T17:02:09.381Z</time></trkpt><trkpt lat="33.3381383" lon="-7.9751483"><ele>141.33333333333334</ele><time>2026-04-26T17:02:10.381Z</time></trkpt><trkpt lat="33.3382767" lon="-7.9749733"><ele>141.66666666666669</ele><time>2026-04-26T17:02:11.381Z</time></trkpt><trkpt lat="33.3384133" lon="-7.9748"><ele>142.0</ele><time>2026-04-26T17:02:12.381Z</time></trkpt><trkpt lat="33.33855" lon="-7.9746267"><ele>142.0</ele><time>2026-04-26T17:02:13.381Z</time></trkpt><trkpt lat="33.3386883" lon="-7.9744533"><ele>142.0</ele><time>2026-04-26T17:02:14.381Z</time></trkpt><trkpt lat="33.338835" lon="-7.97428"><ele>142.0</ele><time>2026-04-26T17:02:15.381Z</time></trkpt><trkpt lat="33.3389733" lon="-7.9741067"><ele>142.0</ele><time>2026-04-26T17:02:16.381Z</time></trkpt><trkpt lat="33.3391133" lon="-7.973935"><ele>142.0</ele><time>2026-04-26T17:02:17.381Z</time></trkpt><trkpt lat="33.3392533" lon="-7.973765"><ele>142.0</ele><time>2026-04-26T17:02:18.381Z</time></trkpt><trkpt lat="33.3393933" lon="-7.9735933"><ele>142.0</ele><time>2026-04-26T17:02:19.381Z</time></trkpt><trkpt lat="33.3395333" lon="-7.973415"><ele>142.0</ele><time>2026-04-26T17:02:20.381Z</time></trkpt><trkpt lat="33.3396717" lon="-7.9732367"><ele>142.0</ele><time>2026-04-26T17:02:21.381Z</time></trkpt><trkpt lat="33.3398083" lon="-7.9730533"><ele>142.33333333333334</ele><time>2026-04-26T17:02:22.381Z</time></trkpt><trkpt lat="33.3399483" lon="-7.97287"><ele>142.66666666666666</ele><time>2026-04-26T17:02:23.381Z</time></trkpt><trkpt lat="33.3400883" lon="-7.972685"><ele>143.0</ele><time>2026-04-26T17:02:24.381Z</time></trkpt><trkpt lat="33.34023" lon="-7.9725017"><ele>143.0</ele><time>2026-04-26T17:02:25.381Z</time></trkpt><trkpt lat="33.3403717" lon="-7.9723233"><ele>143.0</ele><time>2026-04-26T17:02:26.381Z</time></trkpt><trkpt lat="33.3405133" lon="-7.9721467"><ele>143.0</ele><time>2026-04-26T17:02:27.381Z</time></trkpt><trkpt lat="33.340655" lon="-7.9719717"><ele>143.0</ele><time>2026-04-26T17:02:28.382Z</time></trkpt><trkpt lat="33.3407933" lon="-7.9717967"><ele>143.0</ele><time>2026-04-26T17:02:29.381Z</time></trkpt><trkpt lat="33.3409283" lon="-7.97162"><ele>143.0</ele><time>2026-04-26T17:02:30.381Z</time></trkpt><trkpt lat="33.3410617" lon="-7.9714417"><ele>142.33333333333331</ele><time>2026-04-26T17:02:31.381Z</time></trkpt><trkpt lat="33.3411967" lon="-7.9712617"><ele>141.66666666666666</ele><time>2026-04-26T17:02:32.381Z</time></trkpt><trkpt lat="33.3413333" lon="-7.9710833"><ele>141.0</ele><time>2026-04-26T17:02:33.381Z</time></trkpt><trkpt lat="33.34147" lon="-7.970905"><ele>141.0</ele><time>2026-04-26T17:02:34.381Z</time></trkpt><trkpt lat="33.3416067" lon="-7.9707283"><ele>141.0</ele><time>2026-04-26T17:02:35.382Z</time></trkpt><trkpt lat="33.3417417" lon="-7.9705517"><ele>141.0</ele><time>2026-04-26T17:02:36.381Z</time></trkpt><trkpt lat="33.3418783" lon="-7.9703783"><ele>141.0</ele><time>2026-04-26T17:02:37.381Z</time></trkpt><trkpt lat="33.342015" lon="-7.970205"><ele>141.0</ele><time>2026-04-26T17:02:38.381Z</time></trkpt><trkpt lat="33.34215" lon="-7.9700317"><ele>141.0</ele><time>2026-04-26T17:02:39.381Z</time></trkpt><trkpt lat="33.342285" lon="-7.9698583"><ele>140.66666666666666</ele><time>2026-04-26T17:02:40.381Z</time></trkpt><trkpt lat="33.34242" lon="-7.9696883"><ele>140.33333333333331</ele><time>2026-04-26T17:02:41.381Z</time></trkpt><trkpt lat="33.3425517" lon="-7.96952"><ele>140.0</ele><time>2026-04-26T17:02:42.381Z</time></trkpt><trkpt lat="33.342685" lon="-7.9693517"><ele>139.66666666666666</ele><time>2026-04-26T17:02:43.382Z</time></trkpt><trkpt lat="33.3428183" lon="-7.9691833"><ele>139.33333333333334</ele><time>2026-04-26T17:02:44.382Z</time></trkpt><trkpt lat="33.34295" lon="-7.96901"><ele>139.0</ele><time>2026-04-26T17:02:45.381Z</time></trkpt><trkpt lat="33.3430817" lon="-7.9688333"><ele>139.0</ele><time>2026-04-26T17:02:46.381Z</time></trkpt><trkpt lat="33.343215" lon="-7.9686567"><ele>139.0</ele><time>2026-04-26T17:02:47.381Z</time></trkpt><trkpt lat="33.3433533" lon="-7.9684817"><ele>139.0</ele><time>2026-04-26T17:02:48.381Z</time></trkpt><trkpt lat="33.3434933" lon="-7.968305"><ele>139.33333333333334</ele><time>2026-04-26T17:02:49.381Z</time></trkpt><trkpt lat="33.343635" lon="-7.9681317"><ele>139.66666666666666</ele><time>2026-04-26T17:02:50.381Z</time></trkpt><trkpt lat="33.343775" lon="-7.9679483"><ele>140.0</ele><time>2026-04-26T17:02:51.381Z</time></trkpt><trkpt lat="33.343915" lon="-7.96777"><ele>139.66666666666666</ele><time>2026-04-26T17:02:52.381Z</time></trkpt><trkpt lat="33.344055" lon="-7.96759"><ele>139.33333333333334</ele><time>2026-04-26T17:02:53.381Z</time></trkpt><trkpt lat="33.3441867" lon="-7.9674217"><ele>139.0</ele><time>2026-04-26T17:02:54.381Z</time></trkpt><trkpt lat="33.3443133" lon="-7.9672517"><ele>139.0</ele><time>2026-04-26T17:02:55.382Z</time></trkpt><trkpt lat="33.34444" lon="-7.9670867"><ele>139.0</ele><time>2026-04-26T17:02:56.381Z</time></trkpt><trkpt lat="33.3445617" lon="-7.96692"><ele>139.0</ele><time>2026-04-26T17:02:57.381Z</time></trkpt><trkpt lat="33.3446867" lon="-7.9667533"><ele>138.0</ele><time>2026-04-26T17:02:58.381Z</time></trkpt><trkpt lat="33.344815" lon="-7.9665833"><ele>137.0</ele><time>2026-04-26T17:02:59.381Z</time></trkpt><trkpt lat="33.344945" lon="-7.96641"><ele>136.0</ele><time>2026-04-26T17:03:00.381Z</time></trkpt><trkpt lat="33.34508" lon="-7.9662383"><ele>136.0</ele><time>2026-04-26T17:03:01.381Z</time></trkpt><trkpt lat="33.3452117" lon="-7.9660667"><ele>136.0</ele><time>2026-04-26T17:03:02.381Z</time></trkpt><trkpt lat="33.345345" lon="-7.965895"><ele>136.0</ele><time>2026-04-26T17:03:03.381Z</time></trkpt><trkpt lat="33.3454817" lon="-7.965725"><ele>136.33333333333334</ele><time>2026-04-26T17:03:04.381Z</time></trkpt><trkpt lat="33.34562" lon="-7.9655517"><ele>136.66666666666666</ele><time>2026-04-26T17:03:05.381Z</time></trkpt><trkpt lat="33.3457533" lon="-7.965385"><ele>137.0</ele><time>2026-04-26T17:03:06.381Z</time></trkpt><trkpt lat="33.3458917" lon="-7.9652133"><ele>137.0</ele><time>2026-04-26T17:03:07.381Z</time></trkpt><trkpt lat="33.34603" lon="-7.965045"><ele>137.0</ele><time>2026-04-26T17:03:08.381Z</time></trkpt><trkpt lat="33.3461667" lon="-7.9648783"><ele>137.0</ele><time>2026-04-26T17:03:09.381Z</time></trkpt><trkpt lat="33.3463" lon="-7.96471"><ele>138.0</ele><time>2026-04-26T17:03:10.381Z</time></trkpt><trkpt lat="33.3464267" lon="-7.9645467"><ele>139.0</ele><time>2026-04-26T17:03:11.381Z</time></trkpt><trkpt lat="33.3465533" lon="-7.964385"><ele>140.0</ele><time>2026-04-26T17:03:12.381Z</time></trkpt><trkpt lat="33.3466783" lon="-7.964225"><ele>139.66666666666666</ele><time>2026-04-26T17:03:13.381Z</time></trkpt><trkpt lat="33.3468083" lon="-7.9640683"><ele>139.33333333333334</ele><time>2026-04-26T17:03:14.381Z</time></trkpt><trkpt lat="33.3469367" lon="-7.96391"><ele>139.0</ele><time>2026-04-26T17:03:15.381Z</time></trkpt><trkpt lat="33.3471967" lon="-7.96359"><ele>139.66666666666669</ele><time>2026-04-26T17:03:17.381Z</time></trkpt><trkpt lat="33.3473267" lon="-7.96343"><ele>140.33333333333334</ele><time>2026-04-26T17:03:18.381Z</time></trkpt><trkpt lat="33.3474567" lon="-7.96327"><ele>141.0</ele><time>2026-04-26T17:03:19.381Z</time></trkpt><trkpt lat="33.3475883" lon="-7.9631133"><ele>141.0</ele><time>2026-04-26T17:03:20.381Z</time></trkpt><trkpt lat="33.3477183" lon="-7.9629533"><ele>141.0</ele><time>2026-04-26T17:03:21.381Z</time></trkpt><trkpt lat="33.347845" lon="-7.9628"><ele>141.0</ele><time>2026-04-26T17:03:22.381Z</time></trkpt><trkpt lat="33.3479767" lon="-7.9626417"><ele>140.33333333333334</ele><time>2026-04-26T17:03:23.381Z</time></trkpt><trkpt lat="33.3481083" lon="-7.962485"><ele>139.66666666666669</ele><time>2026-04-26T17:03:24.381Z</time></trkpt><trkpt lat="33.3482483" lon="-7.9623317"><ele>139.0</ele><time>2026-04-26T17:03:25.381Z</time></trkpt><trkpt lat="33.348395" lon="-7.9621967"><ele>139.0</ele><time>2026-04-26T17:03:26.381Z</time></trkpt><trkpt lat="33.3485467" lon="-7.9620783"><ele>139.0</ele><time>2026-04-26T17:03:27.381Z</time></trkpt><trkpt lat="33.3487083" lon="-7.9619817"><ele>139.0</ele><time>2026-04-26T17:03:28.381Z</time></trkpt><trkpt lat="33.34888" lon="-7.9619033"><ele>138.33333333333334</ele><time>2026-04-26T17:03:29.381Z</time></trkpt><trkpt lat="33.3490533" lon="-7.9618433"><ele>137.66666666666666</ele><time>2026-04-26T17:03:30.381Z</time></trkpt><trkpt lat="33.349225" lon="-7.9617833"><ele>137.0</ele><time>2026-04-26T17:03:31.381Z</time></trkpt><trkpt lat="33.3494033" lon="-7.9617267"><ele>137.33333333333331</ele><time>2026-04-26T17:03:32.381Z</time></trkpt><trkpt lat="33.3495733" lon="-7.9616733"><ele>137.66666666666666</ele><time>2026-04-26T17:03:33.381Z</time></trkpt><trkpt lat="33.3497483" lon="-7.9616183"><ele>138.0</ele><time>2026-04-26T17:03:34.381Z</time></trkpt><trkpt lat="33.3499217" lon="-7.9615633"><ele>138.0</ele><time>2026-04-26T17:03:35.381Z</time></trkpt><trkpt lat="33.3501" lon="-7.9615083"><ele>138.0</ele><time>2026-04-26T17:03:36.382Z</time></trkpt><trkpt lat="33.3502817" lon="-7.9614517"><ele>138.0</ele><time>2026-04-26T17:03:37.382Z</time></trkpt><trkpt lat="33.3504717" lon="-7.96139"><ele>138.33333333333334</ele><time>2026-04-26T17:03:38.381Z</time></trkpt><trkpt lat="33.350665" lon="-7.9613333"><ele>138.66666666666669</ele><time>2026-04-26T17:03:39.381Z</time></trkpt><trkpt lat="33.3508617" lon="-7.961275"><ele>139.0</ele><time>2026-04-26T17:03:40.381Z</time></trkpt><trkpt lat="33.3510567" lon="-7.9612133"><ele>139.0</ele><time>2026-04-26T17:03:41.381Z</time></trkpt><trkpt lat="33.3512567" lon="-7.9611517"><ele>139.0</ele><time>2026-04-26T17:03:42.381Z</time></trkpt><trkpt lat="33.351455" lon="-7.96109"><ele>139.0</ele><time>2026-04-26T17:03:43.381Z</time></trkpt><trkpt lat="33.3516533" lon="-7.9610267"><ele>139.33333333333334</ele><time>2026-04-26T17:03:44.382Z</time></trkpt><trkpt lat="33.351855" lon="-7.960965"><ele>139.66666666666666</ele><time>2026-04-26T17:03:45.381Z</time></trkpt><trkpt lat="33.35206" lon="-7.9608983"><ele>140.0</ele><time>2026-04-26T17:03:46.381Z</time></trkpt><trkpt lat="33.352265" lon="-7.960835"><ele>140.0</ele><time>2026-04-26T17:03:47.381Z</time></trkpt><trkpt lat="33.3524717" lon="-7.9607667"><ele>140.0</ele><time>2026-04-26T17:03:48.381Z</time></trkpt><trkpt lat="33.3526733" lon="-7.9607033"><ele>140.0</ele><time>2026-04-26T17:03:49.381Z</time></trkpt><trkpt lat="33.3528783" lon="-7.9606367"><ele>139.33333333333331</ele><time>2026-04-26T17:03:50.381Z</time></trkpt><trkpt lat="33.3530833" lon="-7.9605717"><ele>138.66666666666666</ele><time>2026-04-26T17:03:51.381Z</time></trkpt><trkpt lat="33.3532817" lon="-7.9605117"><ele>138.0</ele><time>2026-04-26T17:03:52.381Z</time></trkpt><trkpt lat="33.35348" lon="-7.960455"><ele>138.0</ele><time>2026-04-26T17:03:53.381Z</time></trkpt><trkpt lat="33.3536683" lon="-7.960395"><ele>138.0</ele><time>2026-04-26T17:03:54.381Z</time></trkpt><trkpt lat="33.353845" lon="-7.96034"><ele>138.0</ele><time>2026-04-26T17:03:55.381Z</time></trkpt><trkpt lat="33.3540133" lon="-7.9602883"><ele>138.33333333333334</ele><time>2026-04-26T17:03:56.381Z</time></trkpt><trkpt lat="33.3541767" lon="-7.9602383"><ele>138.66666666666669</ele><time>2026-04-26T17:03:57.382Z</time></trkpt><trkpt lat="33.3543433" lon="-7.9601883"><ele>139.0</ele><time>2026-04-26T17:03:58.381Z</time></trkpt><trkpt lat="33.3545067" lon="-7.9601333"><ele>139.0</ele><time>2026-04-26T17:03:59.381Z</time></trkpt><trkpt lat="33.354665" lon="-7.9600833"><ele>139.0</ele><time>2026-04-26T17:04:00.381Z</time></trkpt><trkpt lat="33.3548333" lon="-7.9600333"><ele>139.0</ele><time>2026-04-26T17:04:01.381Z</time></trkpt><trkpt lat="33.3550083" lon="-7.9599833"><ele>139.0</ele><time>2026-04-26T17:04:02.381Z</time></trkpt><trkpt lat="33.3551783" lon="-7.9599267"><ele>139.0</ele><time>2026-04-26T17:04:03.382Z</time></trkpt><trkpt lat="33.355355" lon="-7.9598717"><ele>139.0</ele><time>2026-04-26T17:04:04.381Z</time></trkpt><trkpt lat="33.35554" lon="-7.95981"><ele>139.0</ele><time>2026-04-26T17:04:05.381Z</time></trkpt><trkpt lat="33.3557217" lon="-7.95975"><ele>139.0</ele><time>2026-04-26T17:04:06.381Z</time></trkpt><trkpt lat="33.3559" lon="-7.95969"><ele>139.0</ele><time>2026-04-26T17:04:07.381Z</time></trkpt><trkpt lat="33.3560783" lon="-7.9596317"><ele>139.0</ele><time>2026-04-26T17:04:08.381Z</time></trkpt><trkpt lat="33.356255" lon="-7.9595783"><ele>139.0</ele><time>2026-04-26T17:04:09.382Z</time></trkpt><trkpt lat="33.3564333" lon="-7.9595217"><ele>139.0</ele><time>2026-04-26T17:04:10.381Z</time></trkpt><trkpt lat="33.3566117" lon="-7.9594683"><ele>139.0</ele><time>2026-04-26T17:04:11.381Z</time></trkpt><trkpt lat="33.35679" lon="-7.9594117"><ele>139.0</ele><time>2026-04-26T17:04:12.381Z</time></trkpt><trkpt lat="33.3569667" lon="-7.959355"><ele>139.0</ele><time>2026-04-26T17:04:13.381Z</time></trkpt><trkpt lat="33.3571433" lon="-7.9592933"><ele>139.0</ele><time>2026-04-26T17:04:14.382Z</time></trkpt><trkpt lat="33.3573283" lon="-7.9592317"><ele>139.0</ele><time>2026-04-26T17:04:15.381Z</time></trkpt><trkpt lat="33.357515" lon="-7.9591683"><ele>139.0</ele><time>2026-04-26T17:04:16.381Z</time></trkpt><trkpt lat="33.357705" lon="-7.959105"><ele>138.66666666666669</ele><time>2026-04-26T17:04:17.381Z</time></trkpt><trkpt lat="33.3578967" lon="-7.95904"><ele>138.33333333333334</ele><time>2026-04-26T17:04:18.381Z</time></trkpt><trkpt lat="33.3580833" lon="-7.958985"><ele>138.0</ele><time>2026-04-26T17:04:19.381Z</time></trkpt><trkpt lat="33.3582633" lon="-7.9589283"><ele>137.66666666666666</ele><time>2026-04-26T17:04:20.381Z</time></trkpt><trkpt lat="33.3584433" lon="-7.9588717"><ele>137.33333333333331</ele><time>2026-04-26T17:04:21.381Z</time></trkpt><trkpt lat="33.3586233" lon="-7.9588217"><ele>137.0</ele><time>2026-04-26T17:04:22.381Z</time></trkpt><trkpt lat="33.358805" lon="-7.95877"><ele>137.33333333333331</ele><time>2026-04-26T17:04:23.381Z</time></trkpt><trkpt lat="33.3589833" lon="-7.9587233"><ele>137.66666666666666</ele><time>2026-04-26T17:04:24.381Z</time></trkpt><trkpt lat="33.3591683" lon="-7.9586683"><ele>138.0</ele><time>2026-04-26T17:04:25.382Z</time></trkpt><trkpt lat="33.359355" lon="-7.9586167"><ele>138.0</ele><time>2026-04-26T17:04:26.382Z</time></trkpt><trkpt lat="33.35954" lon="-7.95856"><ele>138.0</ele><time>2026-04-26T17:04:27.381Z</time></trkpt><trkpt lat="33.3597283" lon="-7.9585033"><ele>138.0</ele><time>2026-04-26T17:04:28.381Z</time></trkpt><trkpt lat="33.3599167" lon="-7.9584483"><ele>137.33333333333334</ele><time>2026-04-26T17:04:29.381Z</time></trkpt><trkpt lat="33.3601033" lon="-7.9583917"><ele>136.66666666666669</ele><time>2026-04-26T17:04:30.381Z</time></trkpt><trkpt lat="33.3602933" lon="-7.9583317"><ele>136.0</ele><time>2026-04-26T17:04:31.381Z</time></trkpt><trkpt lat="33.36049" lon="-7.9582717"><ele>135.66666666666669</ele><time>2026-04-26T17:04:32.382Z</time></trkpt><trkpt lat="33.3606883" lon="-7.9582117"><ele>135.33333333333334</ele><time>2026-04-26T17:04:33.381Z</time></trkpt><trkpt lat="33.3608767" lon="-7.95815"><ele>135.0</ele><time>2026-04-26T17:04:34.381Z</time></trkpt><trkpt lat="33.3610717" lon="-7.9580883"><ele>135.0</ele><time>2026-04-26T17:04:35.382Z</time></trkpt><trkpt lat="33.3612617" lon="-7.9580267"><ele>135.0</ele><time>2026-04-26T17:04:36.381Z</time></trkpt><trkpt lat="33.3614583" lon="-7.9579667"><ele>135.0</ele><time>2026-04-26T17:04:37.381Z</time></trkpt><trkpt lat="33.361655" lon="-7.9579033"><ele>135.0</ele><time>2026-04-26T17:04:38.381Z</time></trkpt><trkpt lat="33.3618467" lon="-7.95784"><ele>135.0</ele><time>2026-04-26T17:04:39.381Z</time></trkpt><trkpt lat="33.362035" lon="-7.95778"><ele>135.0</ele><time>2026-04-26T17:04:40.381Z</time></trkpt><trkpt lat="33.3622283" lon="-7.9577217"><ele>134.33333333333334</ele><time>2026-04-26T17:04:41.381Z</time></trkpt><trkpt lat="33.3624217" lon="-7.9576567"><ele>133.66666666666669</ele><time>2026-04-26T17:04:42.381Z</time></trkpt><trkpt lat="33.3626133" lon="-7.9575967"><ele>133.0</ele><time>2026-04-26T17:04:43.381Z</time></trkpt><trkpt lat="33.3628033" lon="-7.95754"><ele>132.66666666666669</ele><time>2026-04-26T17:04:44.381Z</time></trkpt><trkpt lat="33.3629967" lon="-7.9574767"><ele>132.33333333333334</ele><time>2026-04-26T17:04:45.381Z</time></trkpt><trkpt lat="33.36319" lon="-7.9574133"><ele>132.0</ele><time>2026-04-26T17:04:46.381Z</time></trkpt><trkpt lat="33.3633833" lon="-7.9573567"><ele>131.66666666666666</ele><time>2026-04-26T17:04:47.381Z</time></trkpt><trkpt lat="33.363575" lon="-7.9572967"><ele>131.33333333333331</ele><time>2026-04-26T17:04:48.382Z</time></trkpt><trkpt lat="33.36377" lon="-7.9572317"><ele>131.0</ele><time>2026-04-26T17:04:49.381Z</time></trkpt><trkpt lat="33.3639633" lon="-7.9571717"><ele>131.0</ele><time>2026-04-26T17:04:50.381Z</time></trkpt><trkpt lat="33.364155" lon="-7.957115"><ele>131.0</ele><time>2026-04-26T17:04:51.381Z</time></trkpt><trkpt lat="33.36435" lon="-7.9570517"><ele>131.0</ele><time>2026-04-26T17:04:52.381Z</time></trkpt><trkpt lat="33.364545" lon="-7.9569917"><ele>130.66666666666666</ele><time>2026-04-26T17:04:53.381Z</time></trkpt><trkpt lat="33.3647433" lon="-7.9569233"><ele>130.33333333333334</ele><time>2026-04-26T17:04:54.381Z</time></trkpt><trkpt lat="33.364945" lon="-7.9568533"><ele>130.0</ele><time>2026-04-26T17:04:55.381Z</time></trkpt><trkpt lat="33.365145" lon="-7.9567883"><ele>130.0</ele><time>2026-04-26T17:04:56.381Z</time></trkpt><trkpt lat="33.3653467" lon="-7.9567117"><ele>130.0</ele><time>2026-04-26T17:04:57.381Z</time></trkpt><trkpt lat="33.36555" lon="-7.9566367"><ele>130.0</ele><time>2026-04-26T17:04:58.381Z</time></trkpt><trkpt lat="33.3657467" lon="-7.95655"><ele>130.0</ele><time>2026-04-26T17:04:59.381Z</time></trkpt><trkpt lat="33.36595" lon="-7.95645"><ele>130.0</ele><time>2026-04-26T17:05:00.381Z</time></trkpt><trkpt lat="33.3661517" lon="-7.9563383"><ele>130.0</ele><time>2026-04-26T17:05:01.381Z</time></trkpt><trkpt lat="33.3663517" lon="-7.9562333"><ele>129.66666666666669</ele><time>2026-04-26T17:05:02.381Z</time></trkpt><trkpt lat="33.366545" lon="-7.9561217"><ele>129.33333333333334</ele><time>2026-04-26T17:05:03.381Z</time></trkpt><trkpt lat="33.36674" lon="-7.9560183"><ele>129.0</ele><time>2026-04-26T17:05:04.381Z</time></trkpt><trkpt lat="33.3669433" lon="-7.9559133"><ele>129.33333333333334</ele><time>2026-04-26T17:05:05.381Z</time></trkpt><trkpt lat="33.3671467" lon="-7.9558117"><ele>129.66666666666669</ele><time>2026-04-26T17:05:06.381Z</time></trkpt><trkpt lat="33.3673483" lon="-7.95571"><ele>130.0</ele><time>2026-04-26T17:05:07.381Z</time></trkpt><trkpt lat="33.3675467" lon="-7.955605"><ele>129.66666666666669</ele><time>2026-04-26T17:05:08.381Z</time></trkpt><trkpt lat="33.36775" lon="-7.955505"><ele>129.33333333333334</ele><time>2026-04-26T17:05:09.381Z</time></trkpt><trkpt lat="33.3679483" lon="-7.9554"><ele>129.0</ele><time>2026-04-26T17:05:10.381Z</time></trkpt><trkpt lat="33.3681483" lon="-7.9552917"><ele>129.0</ele><time>2026-04-26T17:05:11.381Z</time></trkpt><trkpt lat="33.36834" lon="-7.955185"><ele>129.0</ele><time>2026-04-26T17:05:12.381Z</time></trkpt><trkpt lat="33.3685317" lon="-7.95508"><ele>129.0</ele><time>2026-04-26T17:05:13.381Z</time></trkpt><trkpt lat="33.3687233" lon="-7.9549717"><ele>128.33333333333334</ele><time>2026-04-26T17:05:14.381Z</time></trkpt><trkpt lat="33.3689167" lon="-7.9548583"><ele>127.66666666666667</ele><time>2026-04-26T17:05:15.381Z</time></trkpt><trkpt lat="33.369115" lon="-7.95474"><ele>127.0</ele><time>2026-04-26T17:05:16.381Z</time></trkpt><trkpt lat="33.3693183" lon="-7.9546167"><ele>127.0</ele><time>2026-04-26T17:05:17.381Z</time></trkpt><trkpt lat="33.369515" lon="-7.9544833"><ele>127.0</ele><time>2026-04-26T17:05:18.381Z</time></trkpt><trkpt lat="33.3697133" lon="-7.9543467"><ele>128.0</ele><time>2026-04-26T17:05:19.381Z</time></trkpt><trkpt lat="33.3699133" lon="-7.95421"><ele>129.0</ele><time>2026-04-26T17:05:20.381Z</time></trkpt><trkpt lat="33.3701117" lon="-7.9540717"><ele>129.0</ele><time>2026-04-26T17:05:21.381Z</time></trkpt><trkpt lat="33.3703017" lon="-7.9539433"><ele>129.0</ele><time>2026-04-26T17:05:22.381Z</time></trkpt><trkpt lat="33.370485" lon="-7.953825"><ele>129.0</ele><time>2026-04-26T17:05:23.381Z</time></trkpt><trkpt lat="33.3706683" lon="-7.9537033"><ele>129.0</ele><time>2026-04-26T17:05:24.381Z</time></trkpt><trkpt lat="33.3708483" lon="-7.9535817"><ele>129.0</ele><time>2026-04-26T17:05:25.381Z</time></trkpt><trkpt lat="33.3710317" lon="-7.95346"><ele>129.0</ele><time>2026-04-26T17:05:26.381Z</time></trkpt><trkpt lat="33.371215" lon="-7.9533317"><ele>129.0</ele><time>2026-04-26T17:05:27.381Z</time></trkpt><trkpt lat="33.3713967" lon="-7.9532083"><ele>129.0</ele><time>2026-04-26T17:05:28.381Z</time></trkpt><trkpt lat="33.37158" lon="-7.953085"><ele>129.0</ele><time>2026-04-26T17:05:29.381Z</time></trkpt><trkpt lat="33.371765" lon="-7.9529633"><ele>129.0</ele><time>2026-04-26T17:05:30.382Z</time></trkpt><trkpt lat="33.371955" lon="-7.9528367"><ele>129.0</ele><time>2026-04-26T17:05:31.381Z</time></trkpt><trkpt lat="33.3721517" lon="-7.952705"><ele>129.0</ele><time>2026-04-26T17:05:32.381Z</time></trkpt><trkpt lat="33.3723467" lon="-7.9525733"><ele>128.5</ele><time>2026-04-26T17:05:33.381Z</time></trkpt><trkpt lat="33.3725467" lon="-7.9524417"><ele>128.0</ele><time>2026-04-26T17:05:34.382Z</time></trkpt><trkpt lat="33.37275" lon="-7.95231"><ele>128.0</ele><time>2026-04-26T17:05:35.381Z</time></trkpt><trkpt lat="33.3729533" lon="-7.9521833"><ele>128.0</ele><time>2026-04-26T17:05:36.381Z</time></trkpt><trkpt lat="33.3731483" lon="-7.9520583"><ele>127.66666666666666</ele><time>2026-04-26T17:05:37.381Z</time></trkpt><trkpt lat="33.3733317" lon="-7.951935"><ele>127.33333333333334</ele><time>2026-04-26T17:05:38.381Z</time></trkpt><trkpt lat="33.373515" lon="-7.95181"><ele>127.0</ele><time>2026-04-26T17:05:39.381Z</time></trkpt><trkpt lat="33.3736983" lon="-7.9516883"><ele>128.0</ele><time>2026-04-26T17:05:40.381Z</time></trkpt><trkpt lat="33.3738833" lon="-7.9515683"><ele>129.0</ele><time>2026-04-26T17:05:41.381Z</time></trkpt><trkpt lat="33.3740683" lon="-7.9514517"><ele>130.0</ele><time>2026-04-26T17:05:42.381Z</time></trkpt><trkpt lat="33.3742433" lon="-7.9513317"><ele>130.0</ele><time>2026-04-26T17:05:43.381Z</time></trkpt><trkpt lat="33.3744167" lon="-7.9512217"><ele>130.0</ele><time>2026-04-26T17:05:44.381Z</time></trkpt><trkpt lat="33.37459" lon="-7.9511117"><ele>130.0</ele><time>2026-04-26T17:05:45.381Z</time></trkpt><trkpt lat="33.37476" lon="-7.951"><ele>129.66666666666669</ele><time>2026-04-26T17:05:46.381Z</time></trkpt><trkpt lat="33.3749333" lon="-7.9508833"><ele>129.33333333333334</ele><time>2026-04-26T17:05:47.381Z</time></trkpt><trkpt lat="33.3751083" lon="-7.9507667"><ele>129.0</ele><time>2026-04-26T17:05:48.381Z</time></trkpt><trkpt lat="33.3752883" lon="-7.950655"><ele>129.0</ele><time>2026-04-26T17:05:49.381Z</time></trkpt><trkpt lat="33.3754667" lon="-7.9505367"><ele>129.0</ele><time>2026-04-26T17:05:50.381Z</time></trkpt><trkpt lat="33.375645" lon="-7.9504167"><ele>129.0</ele><time>2026-04-26T17:05:51.381Z</time></trkpt><trkpt lat="33.3758233" lon="-7.950295"><ele>128.33333333333334</ele><time>2026-04-26T17:05:52.381Z</time></trkpt><trkpt lat="33.376005" lon="-7.9501733"><ele>127.66666666666667</ele><time>2026-04-26T17:05:53.381Z</time></trkpt><trkpt lat="33.3761867" lon="-7.95005"><ele>127.0</ele><time>2026-04-26T17:05:54.381Z</time></trkpt><trkpt lat="33.37637" lon="-7.9499283"><ele>127.0</ele><time>2026-04-26T17:05:55.381Z</time></trkpt><trkpt lat="33.3765533" lon="-7.9498083"><ele>127.0</ele><time>2026-04-26T17:05:56.381Z</time></trkpt><trkpt lat="33.3767383" lon="-7.9496817"><ele>127.0</ele><time>2026-04-26T17:05:57.381Z</time></trkpt><trkpt lat="33.3769217" lon="-7.9495583"><ele>127.0</ele><time>2026-04-26T17:05:58.381Z</time></trkpt><trkpt lat="33.3770917" lon="-7.949445"><ele>127.0</ele><time>2026-04-26T17:05:59.381Z</time></trkpt><trkpt lat="33.3772567" lon="-7.9493367"><ele>127.0</ele><time>2026-04-26T17:06:00.381Z</time></trkpt><trkpt lat="33.377415" lon="-7.9492233"><ele>126.66666666666667</ele><time>2026-04-26T17:06:01.381Z</time></trkpt><trkpt lat="33.3775783" lon="-7.94911"><ele>126.33333333333334</ele><time>2026-04-26T17:06:02.381Z</time></trkpt><trkpt lat="33.3777433" lon="-7.9489967"><ele>126.0</ele><time>2026-04-26T17:06:03.382Z</time></trkpt><trkpt lat="33.37791" lon="-7.9488867"><ele>126.0</ele><time>2026-04-26T17:06:04.381Z</time></trkpt><trkpt lat="33.3780783" lon="-7.948775"><ele>126.0</ele><time>2026-04-26T17:06:05.381Z</time></trkpt><trkpt lat="33.37825" lon="-7.9486667"><ele>126.0</ele><time>2026-04-26T17:06:06.381Z</time></trkpt><trkpt lat="33.37842" lon="-7.94855"><ele>126.0</ele><time>2026-04-26T17:06:07.381Z</time></trkpt><trkpt lat="33.3785967" lon="-7.94844"><ele>126.0</ele><time>2026-04-26T17:06:08.381Z</time></trkpt><trkpt lat="33.3787733" lon="-7.9483267"><ele>126.0</ele><time>2026-04-26T17:06:09.381Z</time></trkpt><trkpt lat="33.3789533" lon="-7.94822"><ele>126.0</ele><time>2026-04-26T17:06:10.381Z</time></trkpt><trkpt lat="33.379125" lon="-7.9481133"><ele>126.0</ele><time>2026-04-26T17:06:11.381Z</time></trkpt><trkpt lat="33.3792933" lon="-7.948015"><ele>126.0</ele><time>2026-04-26T17:06:12.381Z</time></trkpt><trkpt lat="33.3794567" lon="-7.9479217"><ele>126.0</ele><time>2026-04-26T17:06:13.381Z</time></trkpt><trkpt lat="33.3796183" lon="-7.94782"><ele>126.0</ele><time>2026-04-26T17:06:14.381Z</time></trkpt><trkpt lat="33.3797817" lon="-7.94772"><ele>126.0</ele><time>2026-04-26T17:06:15.381Z</time></trkpt><trkpt lat="33.3799383" lon="-7.9476267"><ele>125.66666666666666</ele><time>2026-04-26T17:06:16.381Z</time></trkpt><trkpt lat="33.3800983" lon="-7.94753"><ele>125.33333333333333</ele><time>2026-04-26T17:06:17.381Z</time></trkpt><trkpt lat="33.3802633" lon="-7.947435"><ele>125.0</ele><time>2026-04-26T17:06:18.381Z</time></trkpt><trkpt lat="33.3804283" lon="-7.9473383"><ele>124.0</ele><time>2026-04-26T17:06:19.381Z</time></trkpt><trkpt lat="33.3805983" lon="-7.9472467"><ele>123.0</ele><time>2026-04-26T17:06:20.381Z</time></trkpt><trkpt lat="33.3807683" lon="-7.9471467"><ele>122.0</ele><time>2026-04-26T17:06:21.381Z</time></trkpt><trkpt lat="33.3809383" lon="-7.94704"><ele>122.0</ele><time>2026-04-26T17:06:22.381Z</time></trkpt><trkpt lat="33.38111" lon="-7.946935"><ele>122.0</ele><time>2026-04-26T17:06:23.382Z</time></trkpt><trkpt lat="33.3812917" lon="-7.94683"><ele>122.0</ele><time>2026-04-26T17:06:24.381Z</time></trkpt><trkpt lat="33.3814733" lon="-7.9467217"><ele>122.0</ele><time>2026-04-26T17:06:25.381Z</time></trkpt><trkpt lat="33.381655" lon="-7.94661"><ele>122.0</ele><time>2026-04-26T17:06:26.381Z</time></trkpt><trkpt lat="33.3818317" lon="-7.9464983"><ele>122.0</ele><time>2026-04-26T17:06:27.381Z</time></trkpt><trkpt lat="33.3819933" lon="-7.9463817"><ele>122.0</ele><time>2026-04-26T17:06:28.381Z</time></trkpt><trkpt lat="33.382145" lon="-7.946255"><ele>122.0</ele><time>2026-04-26T17:06:29.381Z</time></trkpt><trkpt lat="33.3822867" lon="-7.9461183"><ele>122.0</ele><time>2026-04-26T17:06:30.381Z</time></trkpt><trkpt lat="33.3824267" lon="-7.9459883"><ele>123.0</ele><time>2026-04-26T17:06:31.381Z</time></trkpt><trkpt lat="33.3825583" lon="-7.9458583"><ele>124.0</ele><time>2026-04-26T17:06:32.381Z</time></trkpt><trkpt lat="33.38268" lon="-7.9457217"><ele>125.0</ele><time>2026-04-26T17:06:33.381Z</time></trkpt><trkpt lat="33.3827933" lon="-7.9455867"><ele>125.0</ele><time>2026-04-26T17:06:34.381Z</time></trkpt><trkpt lat="33.3829217" lon="-7.94544"><ele>125.0</ele><time>2026-04-26T17:06:35.381Z</time></trkpt><trkpt lat="33.383055" lon="-7.9452933"><ele>125.0</ele><time>2026-04-26T17:06:36.381Z</time></trkpt><trkpt lat="33.38319" lon="-7.9451367"><ele>123.66666666666666</ele><time>2026-04-26T17:06:37.381Z</time></trkpt><trkpt lat="33.3833233" lon="-7.9449867"><ele>122.33333333333334</ele><time>2026-04-26T17:06:38.381Z</time></trkpt><trkpt lat="33.3834383" lon="-7.9448317"><ele>121.0</ele><time>2026-04-26T17:06:39.381Z</time></trkpt><trkpt lat="33.3835517" lon="-7.94469"><ele>121.0</ele><time>2026-04-26T17:06:40.381Z</time></trkpt><trkpt lat="33.3836633" lon="-7.9445533"><ele>121.0</ele><time>2026-04-26T17:06:41.381Z</time></trkpt><trkpt lat="33.3837817" lon="-7.94442"><ele>121.0</ele><time>2026-04-26T17:06:42.381Z</time></trkpt><trkpt lat="33.3838933" lon="-7.9442883"><ele>121.66666666666667</ele><time>2026-04-26T17:06:43.381Z</time></trkpt><trkpt lat="33.384015" lon="-7.94416"><ele>122.33333333333334</ele><time>2026-04-26T17:06:44.381Z</time></trkpt><trkpt lat="33.384125" lon="-7.9440333"><ele>123.0</ele><time>2026-04-26T17:06:45.381Z</time></trkpt><trkpt lat="33.384235" lon="-7.94391"><ele>123.0</ele><time>2026-04-26T17:06:46.381Z</time></trkpt><trkpt lat="33.3843317" lon="-7.9437967"><ele>123.0</ele><time>2026-04-26T17:06:47.381Z</time></trkpt><trkpt lat="33.384425" lon="-7.9436883"><ele>123.0</ele><time>2026-04-26T17:06:48.381Z</time></trkpt><trkpt lat="33.3845067" lon="-7.9435917"><ele>123.0</ele><time>2026-04-26T17:06:49.381Z</time></trkpt><trkpt lat="33.3845783" lon="-7.94351"><ele>123.0</ele><time>2026-04-26T17:06:50.381Z</time></trkpt><trkpt lat="33.38464" lon="-7.9434467"><ele>123.0</ele><time>2026-04-26T17:06:51.381Z</time></trkpt><trkpt lat="33.3846933" lon="-7.94339"><ele>123.0</ele><time>2026-04-26T17:06:52.381Z</time></trkpt><trkpt lat="33.3847433" lon="-7.9433417"><ele>123.0</ele><time>2026-04-26T17:06:53.382Z</time></trkpt><trkpt lat="33.3848383" lon="-7.943265"><ele>123.0</ele><time>2026-04-26T17:06:55.381Z</time></trkpt><trkpt lat="33.38493" lon="-7.9431883"><ele>123.0</ele><time>2026-04-26T17:06:57.381Z</time></trkpt><trkpt lat="33.3849817" lon="-7.9431317"><ele>122.60000000000001</ele><time>2026-04-26T17:06:59.381Z</time></trkpt><trkpt lat="33.38504" lon="-7.9430467"><ele>122.20000000000002</ele><time>2026-04-26T17:07:11.381Z</time></trkpt><trkpt lat="33.385095" lon="-7.9429617"><ele>121.8</ele><time>2026-04-26T17:07:13.381Z</time></trkpt><trkpt lat="33.3851283" lon="-7.94289"><ele>121.4</ele><time>2026-04-26T17:07:14.381Z</time></trkpt><trkpt lat="33.3851667" lon="-7.94279"><ele>121.0</ele><time>2026-04-26T17:07:15.381Z</time></trkpt><trkpt lat="33.3852133" lon="-7.9426567"><ele>121.5</ele><time>2026-04-26T17:07:16.381Z</time></trkpt><trkpt lat="33.3852667" lon="-7.94251"><ele>122.0</ele><time>2026-04-26T17:07:17.381Z</time></trkpt><trkpt lat="33.385325" lon="-7.9423433"><ele>122.5</ele><time>2026-04-26T17:07:18.381Z</time></trkpt><trkpt lat="33.3853817" lon="-7.942185"><ele>123.0</ele><time>2026-04-26T17:07:19.381Z</time></trkpt><trkpt lat="33.3854367" lon="-7.9420367"><ele>123.0</ele><time>2026-04-26T17:07:20.381Z</time></trkpt><trkpt lat="33.3855" lon="-7.9418717"><ele>123.0</ele><time>2026-04-26T17:07:21.381Z</time></trkpt><trkpt lat="33.3855717" lon="-7.9416833"><ele>123.0</ele><time>2026-04-26T17:07:22.381Z</time></trkpt><trkpt lat="33.3856517" lon="-7.9414733"><ele>123.66666666666666</ele><time>2026-04-26T17:07:23.381Z</time></trkpt><trkpt lat="33.3857233" lon="-7.9412483"><ele>124.33333333333333</ele><time>2026-04-26T17:07:24.381Z</time></trkpt><trkpt lat="33.3857983" lon="-7.94101"><ele>125.0</ele><time>2026-04-26T17:07:25.381Z</time></trkpt><trkpt lat="33.385875" lon="-7.94078"><ele>125.0</ele><time>2026-04-26T17:07:26.381Z</time></trkpt><trkpt lat="33.3859517" lon="-7.9405583"><ele>125.0</ele><time>2026-04-26T17:07:27.381Z</time></trkpt><trkpt lat="33.3860217" lon="-7.9403283"><ele>125.0</ele><time>2026-04-26T17:07:28.381Z</time></trkpt><trkpt lat="33.3860967" lon="-7.9401083"><ele>125.33333333333333</ele><time>2026-04-26T17:07:29.381Z</time></trkpt><trkpt lat="33.3861633" lon="-7.9399"><ele>125.66666666666666</ele><time>2026-04-26T17:07:30.381Z</time></trkpt><trkpt lat="33.3862317" lon="-7.939705"><ele>126.0</ele><time>2026-04-26T17:07:31.381Z</time></trkpt><trkpt lat="33.3862967" lon="-7.93952"><ele>125.33333333333334</ele><time>2026-04-26T17:07:32.381Z</time></trkpt><trkpt lat="33.3863633" lon="-7.9393367"><ele>124.66666666666667</ele><time>2026-04-26T17:07:33.381Z</time></trkpt><trkpt lat="33.386425" lon="-7.9391533"><ele>124.0</ele><time>2026-04-26T17:07:34.381Z</time></trkpt><trkpt lat="33.3864817" lon="-7.9389683"><ele>124.0</ele><time>2026-04-26T17:07:35.381Z</time></trkpt><trkpt lat="33.3865433" lon="-7.9387833"><ele>124.0</ele><time>2026-04-26T17:07:36.381Z</time></trkpt><trkpt lat="33.386605" lon="-7.9386033"><ele>124.0</ele><time>2026-04-26T17:07:37.381Z</time></trkpt><trkpt lat="33.3866617" lon="-7.9384283"><ele>123.75</ele><time>2026-04-26T17:07:38.381Z</time></trkpt><trkpt lat="33.3867167" lon="-7.9382683"><ele>123.5</ele><time>2026-04-26T17:07:39.382Z</time></trkpt><trkpt lat="33.3867683" lon="-7.9381133"><ele>123.25</ele><time>2026-04-26T17:07:40.381Z</time></trkpt><trkpt lat="33.3868267" lon="-7.9379633"><ele>123.0</ele><time>2026-04-26T17:07:41.381Z</time></trkpt><trkpt lat="33.386875" lon="-7.9378117"><ele>123.0</ele><time>2026-04-26T17:07:42.381Z</time></trkpt><trkpt lat="33.3869217" lon="-7.937665"><ele>123.0</ele><time>2026-04-26T17:07:43.381Z</time></trkpt><trkpt lat="33.3869683" lon="-7.9375117"><ele>123.0</ele><time>2026-04-26T17:07:44.381Z</time></trkpt><trkpt lat="33.38702" lon="-7.937355"><ele>123.0</ele><time>2026-04-26T17:07:45.381Z</time></trkpt><trkpt lat="33.38708" lon="-7.9371933"><ele>123.0</ele><time>2026-04-26T17:07:46.381Z</time></trkpt><trkpt lat="33.3871367" lon="-7.9370267"><ele>123.0</ele><time>2026-04-26T17:07:47.381Z</time></trkpt><trkpt lat="33.3871967" lon="-7.93686"><ele>123.0</ele><time>2026-04-26T17:07:48.381Z</time></trkpt><trkpt lat="33.3872567" lon="-7.9366983"><ele>122.75</ele><time>2026-04-26T17:07:49.381Z</time></trkpt><trkpt lat="33.3873167" lon="-7.9365317"><ele>122.5</ele><time>2026-04-26T17:07:50.381Z</time></trkpt><trkpt lat="33.3873683" lon="-7.936375"><ele>122.25</ele><time>2026-04-26T17:07:51.381Z</time></trkpt><trkpt lat="33.387415" lon="-7.9362333"><ele>122.0</ele><time>2026-04-26T17:07:52.381Z</time></trkpt><trkpt lat="33.3874567" lon="-7.9360967"><ele>122.0</ele><time>2026-04-26T17:07:53.381Z</time></trkpt><trkpt lat="33.3874983" lon="-7.9359683"><ele>122.0</ele><time>2026-04-26T17:07:54.381Z</time></trkpt><trkpt lat="33.3875433" lon="-7.9358417"><ele>122.0</ele><time>2026-04-26T17:07:55.381Z</time></trkpt><trkpt lat="33.3875867" lon="-7.9357083"><ele>122.0</ele><time>2026-04-26T17:07:56.381Z</time></trkpt><trkpt lat="33.3876317" lon="-7.9355683"><ele>122.0</ele><time>2026-04-26T17:07:57.381Z</time></trkpt><trkpt lat="33.3876733" lon="-7.9354217"><ele>122.0</ele><time>2026-04-26T17:07:58.381Z</time></trkpt><trkpt lat="33.3877233" lon="-7.935275"><ele>122.0</ele><time>2026-04-26T17:07:59.381Z</time></trkpt><trkpt lat="33.3877783" lon="-7.93512"><ele>122.0</ele><time>2026-04-26T17:08:00.381Z</time></trkpt><trkpt lat="33.3878383" lon="-7.9349633"><ele>121.66666666666666</ele><time>2026-04-26T17:08:01.381Z</time></trkpt><trkpt lat="33.3878967" lon="-7.9347867"><ele>121.33333333333334</ele><time>2026-04-26T17:08:02.381Z</time></trkpt><trkpt lat="33.3879617" lon="-7.934605"><ele>121.0</ele><time>2026-04-26T17:08:03.381Z</time></trkpt><trkpt lat="33.3880233" lon="-7.9344117"><ele>121.66666666666667</ele><time>2026-04-26T17:08:04.381Z</time></trkpt><trkpt lat="33.388095" lon="-7.9342133"><ele>122.33333333333334</ele><time>2026-04-26T17:08:05.381Z</time></trkpt><trkpt lat="33.388165" lon="-7.934"><ele>123.0</ele><time>2026-04-26T17:08:06.381Z</time></trkpt><trkpt lat="33.3882333" lon="-7.9337983"><ele>123.0</ele><time>2026-04-26T17:08:07.381Z</time></trkpt><trkpt lat="33.3882933" lon="-7.9336067"><ele>123.0</ele><time>2026-04-26T17:08:08.381Z</time></trkpt><trkpt lat="33.38835" lon="-7.9334317"><ele>123.0</ele><time>2026-04-26T17:08:09.381Z</time></trkpt><trkpt lat="33.3884067" lon="-7.9332633"><ele>122.5</ele><time>2026-04-26T17:08:10.381Z</time></trkpt><trkpt lat="33.3884617" lon="-7.9331"><ele>122.0</ele><time>2026-04-26T17:08:11.381Z</time></trkpt><trkpt lat="33.388515" lon="-7.93294"><ele>121.5</ele><time>2026-04-26T17:08:12.381Z</time></trkpt><trkpt lat="33.388565" lon="-7.932785"><ele>121.0</ele><time>2026-04-26T17:08:13.381Z</time></trkpt><trkpt lat="33.3886133" lon="-7.9326367"><ele>121.75</ele><time>2026-04-26T17:08:14.381Z</time></trkpt><trkpt lat="33.388665" lon="-7.9324883"><ele>122.5</ele><time>2026-04-26T17:08:15.381Z</time></trkpt><trkpt lat="33.38872" lon="-7.93234"><ele>123.25</ele><time>2026-04-26T17:08:16.381Z</time></trkpt><trkpt lat="33.388775" lon="-7.9321933"><ele>124.0</ele><time>2026-04-26T17:08:17.381Z</time></trkpt><trkpt lat="33.388835" lon="-7.932035"><ele>123.66666666666667</ele><time>2026-04-26T17:08:18.381Z</time></trkpt><trkpt lat="33.3888917" lon="-7.9318617"><ele>123.33333333333334</ele><time>2026-04-26T17:08:19.382Z</time></trkpt><trkpt lat="33.388955" lon="-7.93168"><ele>123.0</ele><time>2026-04-26T17:08:20.381Z</time></trkpt><trkpt lat="33.3890133" lon="-7.931505"><ele>123.5</ele><time>2026-04-26T17:08:21.381Z</time></trkpt><trkpt lat="33.3890667" lon="-7.9313367"><ele>124.0</ele><time>2026-04-26T17:08:22.381Z</time></trkpt><trkpt lat="33.3891167" lon="-7.9311767"><ele>124.5</ele><time>2026-04-26T17:08:23.381Z</time></trkpt><trkpt lat="33.389165" lon="-7.931025"><ele>125.0</ele><time>2026-04-26T17:08:24.381Z</time></trkpt><trkpt lat="33.3892133" lon="-7.93088"><ele>125.75</ele><time>2026-04-26T17:08:25.381Z</time></trkpt><trkpt lat="33.3892633" lon="-7.9307367"><ele>126.5</ele><time>2026-04-26T17:08:26.381Z</time></trkpt><trkpt lat="33.3893183" lon="-7.9305817"><ele>127.25</ele><time>2026-04-26T17:08:27.381Z</time></trkpt><trkpt lat="33.389375" lon="-7.9304217"><ele>128.0</ele><time>2026-04-26T17:08:28.381Z</time></trkpt><trkpt lat="33.389435" lon="-7.9302433"><ele>128.0</ele><time>2026-04-26T17:08:29.381Z</time></trkpt><trkpt lat="33.3895067" lon="-7.9300583"><ele>128.0</ele><time>2026-04-26T17:08:30.381Z</time></trkpt><trkpt lat="33.3895783" lon="-7.9298583"><ele>128.0</ele><time>2026-04-26T17:08:31.381Z</time></trkpt><trkpt lat="33.3896483" lon="-7.9296417"><ele>127.0</ele><time>2026-04-26T17:08:32.381Z</time></trkpt><trkpt lat="33.3897183" lon="-7.9294233"><ele>126.0</ele><time>2026-04-26T17:08:33.381Z</time></trkpt><trkpt lat="33.389785" lon="-7.9292133"><ele>125.0</ele><time>2026-04-26T17:08:34.381Z</time></trkpt><trkpt lat="33.38984" lon="-7.9290133"><ele>124.66666666666666</ele><time>2026-04-26T17:08:35.381Z</time></trkpt><trkpt lat="33.3899033" lon="-7.9288333"><ele>124.33333333333334</ele><time>2026-04-26T17:08:36.381Z</time></trkpt><trkpt lat="33.3899733" lon="-7.9286617"><ele>124.0</ele><time>2026-04-26T17:08:37.381Z</time></trkpt><trkpt lat="33.39003" lon="-7.928495"><ele>124.0</ele><time>2026-04-26T17:08:38.381Z</time></trkpt><trkpt lat="33.3900867" lon="-7.9283233"><ele>124.0</ele><time>2026-04-26T17:08:39.381Z</time></trkpt><trkpt lat="33.3901467" lon="-7.9281483"><ele>124.0</ele><time>2026-04-26T17:08:40.381Z</time></trkpt><trkpt lat="33.3902067" lon="-7.92797"><ele>124.0</ele><time>2026-04-26T17:08:41.381Z</time></trkpt><trkpt lat="33.390265" lon="-7.9277983"><ele>124.0</ele><time>2026-04-26T17:08:42.381Z</time></trkpt><trkpt lat="33.390325" lon="-7.9276283"><ele>124.0</ele><time>2026-04-26T17:08:43.381Z</time></trkpt><trkpt lat="33.3903817" lon="-7.92746"><ele>124.0</ele><time>2026-04-26T17:08:44.381Z</time></trkpt><trkpt lat="33.390435" lon="-7.9273017"><ele>124.0</ele><time>2026-04-26T17:08:45.381Z</time></trkpt><trkpt lat="33.390485" lon="-7.9271483"><ele>124.0</ele><time>2026-04-26T17:08:46.381Z</time></trkpt><trkpt lat="33.3905383" lon="-7.927"><ele>124.0</ele><time>2026-04-26T17:08:47.381Z</time></trkpt><trkpt lat="33.3905883" lon="-7.9268567"><ele>124.75</ele><time>2026-04-26T17:08:48.381Z</time></trkpt><trkpt lat="33.39064" lon="-7.9267117"><ele>125.5</ele><time>2026-04-26T17:08:49.381Z</time></trkpt><trkpt lat="33.3906883" lon="-7.92656"><ele>126.25</ele><time>2026-04-26T17:08:50.381Z</time></trkpt><trkpt lat="33.3907433" lon="-7.9264133"><ele>127.0</ele><time>2026-04-26T17:08:51.381Z</time></trkpt><trkpt lat="33.3907917" lon="-7.92625"><ele>127.0</ele><time>2026-04-26T17:08:52.381Z</time></trkpt><trkpt lat="33.3908517" lon="-7.9260783"><ele>127.0</ele><time>2026-04-26T17:08:53.382Z</time></trkpt><trkpt lat="33.390915" lon="-7.9258967"><ele>127.0</ele><time>2026-04-26T17:08:54.381Z</time></trkpt><trkpt lat="33.3909883" lon="-7.9256967"><ele>127.33333333333334</ele><time>2026-04-26T17:08:55.381Z</time></trkpt><trkpt lat="33.391055" lon="-7.9254933"><ele>127.66666666666666</ele><time>2026-04-26T17:08:56.381Z</time></trkpt><trkpt lat="33.3911183" lon="-7.9252933"><ele>128.0</ele><time>2026-04-26T17:08:57.381Z</time></trkpt><trkpt lat="33.39118" lon="-7.9251033"><ele>128.0</ele><time>2026-04-26T17:08:58.381Z</time></trkpt><trkpt lat="33.3912367" lon="-7.924925"><ele>128.0</ele><time>2026-04-26T17:08:59.381Z</time></trkpt><trkpt lat="33.3912933" lon="-7.92476"><ele>128.0</ele><time>2026-04-26T17:09:00.381Z</time></trkpt><trkpt lat="33.3913433" lon="-7.9245983"><ele>126.66666666666666</ele><time>2026-04-26T17:09:01.381Z</time></trkpt><trkpt lat="33.3914033" lon="-7.9244383"><ele>125.33333333333334</ele><time>2026-04-26T17:09:02.381Z</time></trkpt><trkpt lat="33.3914617" lon="-7.9242717"><ele>124.0</ele><time>2026-04-26T17:09:03.381Z</time></trkpt><trkpt lat="33.3915283" lon="-7.9240917"><ele>124.0</ele><time>2026-04-26T17:09:04.381Z</time></trkpt><trkpt lat="33.3915933" lon="-7.9239033"><ele>124.0</ele><time>2026-04-26T17:09:05.381Z</time></trkpt><trkpt lat="33.391655" lon="-7.9237"><ele>124.0</ele><time>2026-04-26T17:09:06.381Z</time></trkpt><trkpt lat="33.3917183" lon="-7.9234833"><ele>124.0</ele><time>2026-04-26T17:09:07.381Z</time></trkpt><trkpt lat="33.3917867" lon="-7.9232633"><ele>124.0</ele><time>2026-04-26T17:09:08.381Z</time></trkpt><trkpt lat="33.391855" lon="-7.9230283"><ele>124.0</ele><time>2026-04-26T17:09:09.381Z</time></trkpt><trkpt lat="33.3919333" lon="-7.922795"><ele>124.0</ele><time>2026-04-26T17:09:10.381Z</time></trkpt><trkpt lat="33.3920167" lon="-7.9225667"><ele>124.0</ele><time>2026-04-26T17:09:11.381Z</time></trkpt><trkpt lat="33.3920917" lon="-7.9223517"><ele>124.0</ele><time>2026-04-26T17:09:12.381Z</time></trkpt><trkpt lat="33.39216" lon="-7.92215"><ele>124.66666666666667</ele><time>2026-04-26T17:09:13.381Z</time></trkpt><trkpt lat="33.3922283" lon="-7.9219617"><ele>125.33333333333334</ele><time>2026-04-26T17:09:14.381Z</time></trkpt><trkpt lat="33.3923017" lon="-7.92176"><ele>126.0</ele><time>2026-04-26T17:09:15.381Z</time></trkpt><trkpt lat="33.3923767" lon="-7.9215367"><ele>126.0</ele><time>2026-04-26T17:09:16.381Z</time></trkpt><trkpt lat="33.3924483" lon="-7.9213"><ele>126.0</ele><time>2026-04-26T17:09:17.381Z</time></trkpt><trkpt lat="33.392525" lon="-7.9210483"><ele>126.0</ele><time>2026-04-26T17:09:18.381Z</time></trkpt><trkpt lat="33.392605" lon="-7.9207867"><ele>127.0</ele><time>2026-04-26T17:09:19.381Z</time></trkpt><trkpt lat="33.392695" lon="-7.9205033"><ele>128.0</ele><time>2026-04-26T17:09:20.381Z</time></trkpt><trkpt lat="33.3927833" lon="-7.9202267"><ele>128.33333333333331</ele><time>2026-04-26T17:09:21.381Z</time></trkpt><trkpt lat="33.39287" lon="-7.9199817"><ele>128.66666666666666</ele><time>2026-04-26T17:09:22.381Z</time></trkpt><trkpt lat="33.392955" lon="-7.9197467"><ele>129.0</ele><time>2026-04-26T17:09:23.381Z</time></trkpt><trkpt lat="33.3930383" lon="-7.9195067"><ele>127.5</ele><time>2026-04-26T17:09:24.381Z</time></trkpt><trkpt lat="33.3931267" lon="-7.91926"><ele>126.0</ele><time>2026-04-26T17:09:25.381Z</time></trkpt><trkpt lat="33.3932133" lon="-7.9190017"><ele>126.0</ele><time>2026-04-26T17:09:26.381Z</time></trkpt><trkpt lat="33.393305" lon="-7.9187433"><ele>126.0</ele><time>2026-04-26T17:09:27.381Z</time></trkpt><trkpt lat="33.3934017" lon="-7.91849"><ele>127.0</ele><time>2026-04-26T17:09:28.381Z</time></trkpt><trkpt lat="33.393505" lon="-7.9182333"><ele>128.0</ele><time>2026-04-26T17:09:29.381Z</time></trkpt><trkpt lat="33.39363" lon="-7.9179817"><ele>128.0</ele><time>2026-04-26T17:09:30.381Z</time></trkpt><trkpt lat="33.3937683" lon="-7.917735"><ele>128.0</ele><time>2026-04-26T17:09:31.381Z</time></trkpt><trkpt lat="33.3939183" lon="-7.9174967"><ele>127.0</ele><time>2026-04-26T17:09:32.382Z</time></trkpt><trkpt lat="33.394085" lon="-7.917285"><ele>126.0</ele><time>2026-04-26T17:09:33.381Z</time></trkpt><trkpt lat="33.39425" lon="-7.9170967"><ele>126.0</ele><time>2026-04-26T17:09:34.381Z</time></trkpt><trkpt lat="33.3944083" lon="-7.916925"><ele>126.0</ele><time>2026-04-26T17:09:35.381Z</time></trkpt><trkpt lat="33.394565" lon="-7.916755"><ele>126.0</ele><time>2026-04-26T17:09:36.381Z</time></trkpt><trkpt lat="33.394735" lon="-7.91657"><ele>125.5</ele><time>2026-04-26T17:09:37.381Z</time></trkpt><trkpt lat="33.3949083" lon="-7.9163817"><ele>125.0</ele><time>2026-04-26T17:09:38.381Z</time></trkpt><trkpt lat="33.3951083" lon="-7.9161767"><ele>125.0</ele><time>2026-04-26T17:09:39.381Z</time></trkpt><trkpt lat="33.39532" lon="-7.9159467"><ele>125.0</ele><time>2026-04-26T17:09:40.381Z</time></trkpt><trkpt lat="33.3955067" lon="-7.9157183"><ele>124.5</ele><time>2026-04-26T17:09:41.381Z</time></trkpt><trkpt lat="33.395685" lon="-7.9155133"><ele>124.0</ele><time>2026-04-26T17:09:42.381Z</time></trkpt><trkpt lat="33.39585" lon="-7.9153217"><ele>124.0</ele><time>2026-04-26T17:09:43.381Z</time></trkpt><trkpt lat="33.3960017" lon="-7.9151417"><ele>124.0</ele><time>2026-04-26T17:09:44.381Z</time></trkpt><trkpt lat="33.396155" lon="-7.9149683"><ele>124.0</ele><time>2026-04-26T17:09:45.381Z</time></trkpt><trkpt lat="33.3963133" lon="-7.914795"><ele>123.66666666666667</ele><time>2026-04-26T17:09:46.381Z</time></trkpt><trkpt lat="33.3964733" lon="-7.914615"><ele>123.33333333333334</ele><time>2026-04-26T17:09:47.381Z</time></trkpt><trkpt lat="33.3966317" lon="-7.91443"><ele>123.0</ele><time>2026-04-26T17:09:48.381Z</time></trkpt><trkpt lat="33.396795" lon="-7.9142433"><ele>124.5</ele><time>2026-04-26T17:09:49.381Z</time></trkpt><trkpt lat="33.3969633" lon="-7.91406"><ele>126.0</ele><time>2026-04-26T17:09:50.381Z</time></trkpt><trkpt lat="33.3971267" lon="-7.913875"><ele>125.66666666666666</ele><time>2026-04-26T17:09:51.381Z</time></trkpt><trkpt lat="33.397285" lon="-7.9136967"><ele>125.33333333333333</ele><time>2026-04-26T17:09:52.381Z</time></trkpt><trkpt lat="33.39744" lon="-7.9135233"><ele>125.0</ele><time>2026-04-26T17:09:53.381Z</time></trkpt><trkpt lat="33.39758" lon="-7.9133383"><ele>125.0</ele><time>2026-04-26T17:09:54.381Z</time></trkpt><trkpt lat="33.3977083" lon="-7.9131467"><ele>125.0</ele><time>2026-04-26T17:09:55.382Z</time></trkpt><trkpt lat="33.397815" lon="-7.9129633"><ele>125.0</ele><time>2026-04-26T17:09:56.381Z</time></trkpt><trkpt lat="33.3979033" lon="-7.91276"><ele>125.0</ele><time>2026-04-26T17:09:57.381Z</time></trkpt><trkpt lat="33.3979883" lon="-7.9125583"><ele>125.0</ele><time>2026-04-26T17:09:58.381Z</time></trkpt><trkpt lat="33.3980533" lon="-7.9123467"><ele>125.0</ele><time>2026-04-26T17:09:59.381Z</time></trkpt><trkpt lat="33.3981083" lon="-7.9121483"><ele>124.66666666666666</ele><time>2026-04-26T17:10:00.381Z</time></trkpt><trkpt lat="33.3981683" lon="-7.9119533"><ele>124.33333333333334</ele><time>2026-04-26T17:10:01.381Z</time></trkpt><trkpt lat="33.3982333" lon="-7.91176"><ele>124.0</ele><time>2026-04-26T17:10:02.381Z</time></trkpt><trkpt lat="33.3982933" lon="-7.9115633"><ele>124.0</ele><time>2026-04-26T17:10:03.381Z</time></trkpt><trkpt lat="33.39835" lon="-7.91138"><ele>124.0</ele><time>2026-04-26T17:10:04.381Z</time></trkpt><trkpt lat="33.3984083" lon="-7.911205"><ele>124.0</ele><time>2026-04-26T17:10:05.381Z</time></trkpt><trkpt lat="33.3984633" lon="-7.9110383"><ele>124.5</ele><time>2026-04-26T17:10:06.381Z</time></trkpt><trkpt lat="33.398515" lon="-7.910875"><ele>125.0</ele><time>2026-04-26T17:10:07.381Z</time></trkpt><trkpt lat="33.3985683" lon="-7.9107233"><ele>125.5</ele><time>2026-04-26T17:10:08.381Z</time></trkpt><trkpt lat="33.3986133" lon="-7.910575"><ele>126.0</ele><time>2026-04-26T17:10:09.381Z</time></trkpt><trkpt lat="33.39866" lon="-7.91043"><ele>126.0</ele><time>2026-04-26T17:10:10.381Z</time></trkpt><trkpt lat="33.3987083" lon="-7.9102733"><ele>126.0</ele><time>2026-04-26T17:10:11.381Z</time></trkpt><trkpt lat="33.3987667" lon="-7.910115"><ele>126.0</ele><time>2026-04-26T17:10:12.381Z</time></trkpt><trkpt lat="33.3988233" lon="-7.90994"><ele>126.0</ele><time>2026-04-26T17:10:13.381Z</time></trkpt><trkpt lat="33.3988817" lon="-7.90976"><ele>126.0</ele><time>2026-04-26T17:10:14.381Z</time></trkpt><trkpt lat="33.39893" lon="-7.90959"><ele>126.0</ele><time>2026-04-26T17:10:15.381Z</time></trkpt><trkpt lat="33.3989817" lon="-7.90943"><ele>126.0</ele><time>2026-04-26T17:10:16.381Z</time></trkpt><trkpt lat="33.3990283" lon="-7.9092767"><ele>126.0</ele><time>2026-04-26T17:10:17.381Z</time></trkpt><trkpt lat="33.399075" lon="-7.9091317"><ele>125.75</ele><time>2026-04-26T17:10:18.381Z</time></trkpt><trkpt lat="33.3991133" lon="-7.908985"><ele>125.5</ele><time>2026-04-26T17:10:19.381Z</time></trkpt><trkpt lat="33.3991583" lon="-7.9088417"><ele>125.25</ele><time>2026-04-26T17:10:20.381Z</time></trkpt><trkpt lat="33.3992017" lon="-7.9087"><ele>125.0</ele><time>2026-04-26T17:10:21.381Z</time></trkpt><trkpt lat="33.3992467" lon="-7.9085567"><ele>125.0</ele><time>2026-04-26T17:10:22.381Z</time></trkpt><trkpt lat="33.39929" lon="-7.9084167"><ele>125.0</ele><time>2026-04-26T17:10:23.381Z</time></trkpt><trkpt lat="33.39933" lon="-7.9082783"><ele>125.0</ele><time>2026-04-26T17:10:24.381Z</time></trkpt><trkpt lat="33.3993683" lon="-7.90814"><ele>125.0</ele><time>2026-04-26T17:10:25.381Z</time></trkpt><trkpt lat="33.3994083" lon="-7.9079917"><ele>124.25</ele><time>2026-04-26T17:10:26.381Z</time></trkpt><trkpt lat="33.3994583" lon="-7.9078383"><ele>123.5</ele><time>2026-04-26T17:10:27.381Z</time></trkpt><trkpt lat="33.3995117" lon="-7.9076783"><ele>122.75</ele><time>2026-04-26T17:10:28.381Z</time></trkpt><trkpt lat="33.39956" lon="-7.907515"><ele>122.0</ele><time>2026-04-26T17:10:29.381Z</time></trkpt><trkpt lat="33.3996133" lon="-7.9073433"><ele>122.25</ele><time>2026-04-26T17:10:30.381Z</time></trkpt><trkpt lat="33.3996717" lon="-7.9071767"><ele>122.5</ele><time>2026-04-26T17:10:31.381Z</time></trkpt><trkpt lat="33.3997217" lon="-7.9070133"><ele>122.75</ele><time>2026-04-26T17:10:32.381Z</time></trkpt><trkpt lat="33.3997733" lon="-7.90685"><ele>123.0</ele><time>2026-04-26T17:10:33.381Z</time></trkpt><trkpt lat="33.39983" lon="-7.906685"><ele>123.0</ele><time>2026-04-26T17:10:34.381Z</time></trkpt><trkpt lat="33.3998833" lon="-7.9065233"><ele>123.0</ele><time>2026-04-26T17:10:35.381Z</time></trkpt><trkpt lat="33.3999333" lon="-7.906365"><ele>123.0</ele><time>2026-04-26T17:10:36.381Z</time></trkpt><trkpt lat="33.3999833" lon="-7.90621"><ele>123.0</ele><time>2026-04-26T17:10:37.381Z</time></trkpt><trkpt lat="33.4000317" lon="-7.9060567"><ele>122.5</ele><time>2026-04-26T17:10:38.381Z</time></trkpt><trkpt lat="33.4000783" lon="-7.90591"><ele>122.0</ele><time>2026-04-26T17:10:39.381Z</time></trkpt><trkpt lat="33.4001217" lon="-7.90577"><ele>121.5</ele><time>2026-04-26T17:10:40.381Z</time></trkpt><trkpt lat="33.4001633" lon="-7.9056317"><ele>121.0</ele><time>2026-04-26T17:10:41.381Z</time></trkpt><trkpt lat="33.4002017" lon="-7.90549"><ele>121.0</ele><time>2026-04-26T17:10:42.381Z</time></trkpt><trkpt lat="33.4002483" lon="-7.905345"><ele>121.0</ele><time>2026-04-26T17:10:43.381Z</time></trkpt><trkpt lat="33.4003" lon="-7.9051983"><ele>121.0</ele><time>2026-04-26T17:10:44.381Z</time></trkpt><trkpt lat="33.4003417" lon="-7.9050617"><ele>121.0</ele><time>2026-04-26T17:10:45.381Z</time></trkpt><trkpt lat="33.4003867" lon="-7.9049317"><ele>121.19999999999999</ele><time>2026-04-26T17:10:46.381Z</time></trkpt><trkpt lat="33.4004217" lon="-7.9048033"><ele>121.39999999999999</ele><time>2026-04-26T17:10:47.381Z</time></trkpt><trkpt lat="33.4004583" lon="-7.9046833"><ele>121.6</ele><time>2026-04-26T17:10:48.381Z</time></trkpt><trkpt lat="33.4004933" lon="-7.9045667"><ele>121.8</ele><time>2026-04-26T17:10:49.381Z</time></trkpt><trkpt lat="33.4005317" lon="-7.9044567"><ele>122.0</ele><time>2026-04-26T17:10:50.381Z</time></trkpt><trkpt lat="33.4005667" lon="-7.9043417"><ele>122.0</ele><time>2026-04-26T17:10:51.381Z</time></trkpt><trkpt lat="33.4006" lon="-7.9042183"><ele>121.99999999999999</ele><time>2026-04-26T17:10:52.381Z</time></trkpt><trkpt lat="33.40063" lon="-7.9040983"><ele>121.99999999999999</ele><time>2026-04-26T17:10:53.381Z</time></trkpt><trkpt lat="33.40066" lon="-7.9039733"><ele>122.0</ele><time>2026-04-26T17:10:54.381Z</time></trkpt><trkpt lat="33.4006967" lon="-7.9038517"><ele>122.0</ele><time>2026-04-26T17:10:55.381Z</time></trkpt><trkpt lat="33.40074" lon="-7.9037267"><ele>122.0</ele><time>2026-04-26T17:10:56.381Z</time></trkpt><trkpt lat="33.4007783" lon="-7.9036083"><ele>121.99999999999999</ele><time>2026-04-26T17:10:57.381Z</time></trkpt><trkpt lat="33.4008183" lon="-7.9034867"><ele>121.99999999999999</ele><time>2026-04-26T17:10:58.381Z</time></trkpt><trkpt lat="33.4008583" lon="-7.9033633"><ele>122.0</ele><time>2026-04-26T17:10:59.381Z</time></trkpt><trkpt lat="33.4008983" lon="-7.903245"><ele>122.0</ele><time>2026-04-26T17:11:00.381Z</time></trkpt><trkpt lat="33.40094" lon="-7.9031183"><ele>122.0</ele><time>2026-04-26T17:11:01.381Z</time></trkpt><trkpt lat="33.40098" lon="-7.9030067"><ele>121.99999999999999</ele><time>2026-04-26T17:11:02.381Z</time></trkpt><trkpt lat="33.4010133" lon="-7.9028983"><ele>121.99999999999999</ele><time>2026-04-26T17:11:03.381Z</time></trkpt><trkpt lat="33.4010467" lon="-7.9027867"><ele>122.0</ele><time>2026-04-26T17:11:04.381Z</time></trkpt><trkpt lat="33.4010833" lon="-7.90267"><ele>122.0</ele><time>2026-04-26T17:11:05.381Z</time></trkpt><trkpt lat="33.4011167" lon="-7.90254"><ele>122.0</ele><time>2026-04-26T17:11:06.381Z</time></trkpt><trkpt lat="33.4011583" lon="-7.902425"><ele>121.99999999999999</ele><time>2026-04-26T17:11:07.381Z</time></trkpt><trkpt lat="33.4012017" lon="-7.9023167"><ele>121.99999999999999</ele><time>2026-04-26T17:11:08.381Z</time></trkpt><trkpt lat="33.4012517" lon="-7.9022133"><ele>122.0</ele><time>2026-04-26T17:11:09.381Z</time></trkpt><trkpt lat="33.4012883" lon="-7.9021"><ele>122.0</ele><time>2026-04-26T17:11:10.381Z</time></trkpt><trkpt lat="33.4013283" lon="-7.90198"><ele>121.75</ele><time>2026-04-26T17:11:11.381Z</time></trkpt><trkpt lat="33.40137" lon="-7.901855"><ele>121.5</ele><time>2026-04-26T17:11:12.381Z</time></trkpt><trkpt lat="33.4014133" lon="-7.9017217"><ele>121.25</ele><time>2026-04-26T17:11:13.381Z</time></trkpt><trkpt lat="33.4014617" lon="-7.9015833"><ele>121.0</ele><time>2026-04-26T17:11:14.381Z</time></trkpt><trkpt lat="33.4015117" lon="-7.9014483"><ele>121.0</ele><time>2026-04-26T17:11:15.382Z</time></trkpt><trkpt lat="33.4015567" lon="-7.9013067"><ele>121.0</ele><time>2026-04-26T17:11:16.382Z</time></trkpt><trkpt lat="33.4016" lon="-7.90116"><ele>121.0</ele><time>2026-04-26T17:11:17.381Z</time></trkpt><trkpt lat="33.4016517" lon="-7.90102"><ele>121.0</ele><time>2026-04-26T17:11:18.381Z</time></trkpt><trkpt lat="33.4016983" lon="-7.9008767"><ele>120.5</ele><time>2026-04-26T17:11:19.381Z</time></trkpt><trkpt lat="33.4017467" lon="-7.9007317"><ele>120.0</ele><time>2026-04-26T17:11:20.381Z</time></trkpt><trkpt lat="33.4017917" lon="-7.900575"><ele>119.5</ele><time>2026-04-26T17:11:21.381Z</time></trkpt><trkpt lat="33.4018417" lon="-7.900415"><ele>119.0</ele><time>2026-04-26T17:11:22.381Z</time></trkpt><trkpt lat="33.4018983" lon="-7.9002517"><ele>119.0</ele><time>2026-04-26T17:11:23.381Z</time></trkpt><trkpt lat="33.4019483" lon="-7.9000867"><ele>119.0</ele><time>2026-04-26T17:11:24.381Z</time></trkpt><trkpt lat="33.4019933" lon="-7.89993"><ele>119.0</ele><time>2026-04-26T17:11:25.381Z</time></trkpt><trkpt lat="33.4020383" lon="-7.8997733"><ele>119.0</ele><time>2026-04-26T17:11:26.381Z</time></trkpt><trkpt lat="33.4020933" lon="-7.8996183"><ele>119.0</ele><time>2026-04-26T17:11:27.381Z</time></trkpt><trkpt lat="33.4021433" lon="-7.8994567"><ele>119.0</ele><time>2026-04-26T17:11:28.381Z</time></trkpt><trkpt lat="33.4021967" lon="-7.8992867"><ele>119.0</ele><time>2026-04-26T17:11:29.381Z</time></trkpt><trkpt lat="33.4022533" lon="-7.89912"><ele>119.0</ele><time>2026-04-26T17:11:30.381Z</time></trkpt><trkpt lat="33.402305" lon="-7.898955"><ele>118.66666666666666</ele><time>2026-04-26T17:11:31.381Z</time></trkpt><trkpt lat="33.4023567" lon="-7.898785"><ele>118.33333333333334</ele><time>2026-04-26T17:11:32.38Z</time></trkpt><trkpt lat="33.40241" lon="-7.89861"><ele>118.0</ele><time>2026-04-26T17:11:33.38Z</time></trkpt><trkpt lat="33.40246" lon="-7.8984333"><ele>118.33333333333334</ele><time>2026-04-26T17:11:34.38Z</time></trkpt><trkpt lat="33.4025167" lon="-7.8982583"><ele>118.66666666666666</ele><time>2026-04-26T17:11:35.38Z</time></trkpt><trkpt lat="33.4025733" lon="-7.8980817"><ele>119.0</ele><time>2026-04-26T17:11:36.381Z</time></trkpt><trkpt lat="33.402635" lon="-7.897905"><ele>119.0</ele><time>2026-04-26T17:11:37.38Z</time></trkpt><trkpt lat="33.40269" lon="-7.8977267"><ele>119.0</ele><time>2026-04-26T17:11:38.38Z</time></trkpt><trkpt lat="33.4027467" lon="-7.8975467"><ele>119.0</ele><time>2026-04-26T17:11:39.38Z</time></trkpt><trkpt lat="33.4028017" lon="-7.89736"><ele>119.66666666666666</ele><time>2026-04-26T17:11:40.38Z</time></trkpt><trkpt lat="33.40288" lon="-7.897155"><ele>120.33333333333334</ele><time>2026-04-26T17:11:41.38Z</time></trkpt><trkpt lat="33.402965" lon="-7.8969333"><ele>121.0</ele><time>2026-04-26T17:11:42.38Z</time></trkpt><trkpt lat="33.40304" lon="-7.8966883"><ele>121.0</ele><time>2026-04-26T17:11:43.38Z</time></trkpt><trkpt lat="33.4031167" lon="-7.8964533"><ele>121.0</ele><time>2026-04-26T17:11:44.381Z</time></trkpt><trkpt lat="33.4032" lon="-7.8962367"><ele>121.0</ele><time>2026-04-26T17:11:45.38Z</time></trkpt><trkpt lat="33.4033017" lon="-7.8960283"><ele>120.5</ele><time>2026-04-26T17:11:46.38Z</time></trkpt><trkpt lat="33.4034183" lon="-7.8958083"><ele>120.0</ele><time>2026-04-26T17:11:47.38Z</time></trkpt><trkpt lat="33.4035467" lon="-7.895575"><ele>120.0</ele><time>2026-04-26T17:11:48.38Z</time></trkpt><trkpt lat="33.4036833" lon="-7.8953533"><ele>120.0</ele><time>2026-04-26T17:11:49.38Z</time></trkpt><trkpt lat="33.4038267" lon="-7.8951383"><ele>119.5</ele><time>2026-04-26T17:11:50.38Z</time></trkpt><trkpt lat="33.403975" lon="-7.8949317"><ele>119.0</ele><time>2026-04-26T17:11:51.38Z</time></trkpt><trkpt lat="33.4041367" lon="-7.89473"><ele>119.0</ele><time>2026-04-26T17:11:52.38Z</time></trkpt><trkpt lat="33.4042983" lon="-7.89453"><ele>119.0</ele><time>2026-04-26T17:11:53.38Z</time></trkpt><trkpt lat="33.4044667" lon="-7.8943267"><ele>119.5</ele><time>2026-04-26T17:11:54.38Z</time></trkpt><trkpt lat="33.40463" lon="-7.89412"><ele>120.0</ele><time>2026-04-26T17:11:55.38Z</time></trkpt><trkpt lat="33.4047867" lon="-7.8939183"><ele>120.0</ele><time>2026-04-26T17:11:56.38Z</time></trkpt><trkpt lat="33.404935" lon="-7.8937283"><ele>120.0</ele><time>2026-04-26T17:11:57.38Z</time></trkpt><trkpt lat="33.405075" lon="-7.8935517"><ele>120.0</ele><time>2026-04-26T17:11:58.38Z</time></trkpt><trkpt lat="33.4052167" lon="-7.893375"><ele>120.0</ele><time>2026-04-26T17:11:59.38Z</time></trkpt><trkpt lat="33.4053583" lon="-7.8931983"><ele>120.0</ele><time>2026-04-26T17:12:00.38Z</time></trkpt><trkpt lat="33.4054983" lon="-7.893025"><ele>120.0</ele><time>2026-04-26T17:12:01.38Z</time></trkpt><trkpt lat="33.4056267" lon="-7.8928583"><ele>120.0</ele><time>2026-04-26T17:12:02.38Z</time></trkpt><trkpt lat="33.40576" lon="-7.8926933"><ele>120.0</ele><time>2026-04-26T17:12:03.38Z</time></trkpt><trkpt lat="33.40589" lon="-7.8925233"><ele>120.0</ele><time>2026-04-26T17:12:04.38Z</time></trkpt><trkpt lat="33.4060183" lon="-7.892355"><ele>120.0</ele><time>2026-04-26T17:12:05.381Z</time></trkpt><trkpt lat="33.4061483" lon="-7.8922017"><ele>120.0</ele><time>2026-04-26T17:12:06.38Z</time></trkpt><trkpt lat="33.4062767" lon="-7.8920383"><ele>120.0</ele><time>2026-04-26T17:12:07.38Z</time></trkpt><trkpt lat="33.40641" lon="-7.8918717"><ele>119.33333333333334</ele><time>2026-04-26T17:12:08.38Z</time></trkpt><trkpt lat="33.4065417" lon="-7.89171"><ele>118.66666666666667</ele><time>2026-04-26T17:12:09.38Z</time></trkpt><trkpt lat="33.40667" lon="-7.8915483"><ele>118.0</ele><time>2026-04-26T17:12:10.38Z</time></trkpt><trkpt lat="33.4068" lon="-7.8913817"><ele>118.0</ele><time>2026-04-26T17:12:11.381Z</time></trkpt><trkpt lat="33.4069283" lon="-7.891215"><ele>118.0</ele><time>2026-04-26T17:12:12.38Z</time></trkpt><trkpt lat="33.407055" lon="-7.8910517"><ele>118.0</ele><time>2026-04-26T17:12:13.38Z</time></trkpt><trkpt lat="33.4071867" lon="-7.890885"><ele>118.0</ele><time>2026-04-26T17:12:14.381Z</time></trkpt><trkpt lat="33.4073167" lon="-7.8907183"><ele>118.0</ele><time>2026-04-26T17:12:15.38Z</time></trkpt><trkpt lat="33.4074367" lon="-7.8905567"><ele>118.0</ele><time>2026-04-26T17:12:16.38Z</time></trkpt><trkpt lat="33.4075533" lon="-7.890395"><ele>118.0</ele><time>2026-04-26T17:12:17.38Z</time></trkpt><trkpt lat="33.407665" lon="-7.8902267"><ele>118.0</ele><time>2026-04-26T17:12:18.38Z</time></trkpt><trkpt lat="33.4077717" lon="-7.89005"><ele>118.0</ele><time>2026-04-26T17:12:19.38Z</time></trkpt><trkpt lat="33.4078717" lon="-7.8898667"><ele>117.0</ele><time>2026-04-26T17:12:20.38Z</time></trkpt><trkpt lat="33.4079667" lon="-7.8896767"><ele>116.0</ele><time>2026-04-26T17:12:21.38Z</time></trkpt><trkpt lat="33.408045" lon="-7.8894767"><ele>115.0</ele><time>2026-04-26T17:12:22.38Z</time></trkpt><trkpt lat="33.4081217" lon="-7.88927"><ele>114.66666666666667</ele><time>2026-04-26T17:12:23.38Z</time></trkpt><trkpt lat="33.4081933" lon="-7.88906"><ele>114.33333333333334</ele><time>2026-04-26T17:12:24.38Z</time></trkpt><trkpt lat="33.4082667" lon="-7.8888483"><ele>114.0</ele><time>2026-04-26T17:12:25.38Z</time></trkpt><trkpt lat="33.4083433" lon="-7.88864"><ele>115.0</ele><time>2026-04-26T17:12:26.38Z</time></trkpt><trkpt lat="33.4084183" lon="-7.888425"><ele>116.0</ele><time>2026-04-26T17:12:27.38Z</time></trkpt><trkpt lat="33.4084933" lon="-7.8882117"><ele>117.0</ele><time>2026-04-26T17:12:28.38Z</time></trkpt><trkpt lat="33.408565" lon="-7.88801"><ele>117.0</ele><time>2026-04-26T17:12:29.38Z</time></trkpt><trkpt lat="33.408635" lon="-7.8878167"><ele>117.0</ele><time>2026-04-26T17:12:30.38Z</time></trkpt><trkpt lat="33.4087017" lon="-7.8876217"><ele>117.0</ele><time>2026-04-26T17:12:31.381Z</time></trkpt><trkpt lat="33.40877" lon="-7.88743"><ele>116.66666666666666</ele><time>2026-04-26T17:12:32.38Z</time></trkpt><trkpt lat="33.4088367" lon="-7.8872433"><ele>116.33333333333333</ele><time>2026-04-26T17:12:33.38Z</time></trkpt><trkpt lat="33.4089017" lon="-7.8870583"><ele>116.0</ele><time>2026-04-26T17:12:34.381Z</time></trkpt><trkpt lat="33.40897" lon="-7.8868767"><ele>116.66666666666666</ele><time>2026-04-26T17:12:35.38Z</time></trkpt><trkpt lat="33.4090383" lon="-7.8866933"><ele>117.33333333333334</ele><time>2026-04-26T17:12:36.38Z</time></trkpt><trkpt lat="33.4091017" lon="-7.8865033"><ele>118.0</ele><time>2026-04-26T17:12:37.381Z</time></trkpt><trkpt lat="33.4091667" lon="-7.8863183"><ele>118.0</ele><time>2026-04-26T17:12:38.38Z</time></trkpt><trkpt lat="33.4092333" lon="-7.8861283"><ele>118.0</ele><time>2026-04-26T17:12:39.38Z</time></trkpt><trkpt lat="33.4093017" lon="-7.88594"><ele>118.0</ele><time>2026-04-26T17:12:40.38Z</time></trkpt><trkpt lat="33.409375" lon="-7.8857483"><ele>118.66666666666667</ele><time>2026-04-26T17:12:41.38Z</time></trkpt><trkpt lat="33.4094417" lon="-7.8855517"><ele>119.33333333333334</ele><time>2026-04-26T17:12:42.38Z</time></trkpt><trkpt lat="33.40951" lon="-7.88535"><ele>120.0</ele><time>2026-04-26T17:12:43.38Z</time></trkpt><trkpt lat="33.4095817" lon="-7.8851517"><ele>120.33333333333334</ele><time>2026-04-26T17:12:44.38Z</time></trkpt><trkpt lat="33.4096567" lon="-7.88495"><ele>120.66666666666667</ele><time>2026-04-26T17:12:45.38Z</time></trkpt><trkpt lat="33.4097283" lon="-7.88475"><ele>121.0</ele><time>2026-04-26T17:12:46.38Z</time></trkpt><trkpt lat="33.4097967" lon="-7.884555"><ele>121.0</ele><time>2026-04-26T17:12:47.38Z</time></trkpt><trkpt lat="33.409865" lon="-7.8843683"><ele>121.0</ele><time>2026-04-26T17:12:48.38Z</time></trkpt><trkpt lat="33.409935" lon="-7.8841767"><ele>121.0</ele><time>2026-04-26T17:12:49.38Z</time></trkpt><trkpt lat="33.4100033" lon="-7.883985"><ele>120.33333333333334</ele><time>2026-04-26T17:12:50.38Z</time></trkpt><trkpt lat="33.4100717" lon="-7.8837933"><ele>119.66666666666666</ele><time>2026-04-26T17:12:51.38Z</time></trkpt><trkpt lat="33.410135" lon="-7.8836"><ele>119.0</ele><time>2026-04-26T17:12:52.38Z</time></trkpt><trkpt lat="33.4102017" lon="-7.883405"><ele>120.33333333333333</ele><time>2026-04-26T17:12:53.38Z</time></trkpt><trkpt lat="33.41027" lon="-7.8832117"><ele>121.66666666666666</ele><time>2026-04-26T17:12:54.38Z</time></trkpt><trkpt lat="33.4103367" lon="-7.8830167"><ele>123.0</ele><time>2026-04-26T17:12:55.38Z</time></trkpt><trkpt lat="33.41041" lon="-7.8828283"><ele>123.0</ele><time>2026-04-26T17:12:56.38Z</time></trkpt><trkpt lat="33.4104817" lon="-7.8826367"><ele>123.0</ele><time>2026-04-26T17:12:57.381Z</time></trkpt><trkpt lat="33.410555" lon="-7.8824417"><ele>123.0</ele><time>2026-04-26T17:12:58.38Z</time></trkpt><trkpt lat="33.4106233" lon="-7.8822467"><ele>123.66666666666666</ele><time>2026-04-26T17:12:59.38Z</time></trkpt><trkpt lat="33.410695" lon="-7.8820517"><ele>124.33333333333333</ele><time>2026-04-26T17:13:00.38Z</time></trkpt><trkpt lat="33.4107683" lon="-7.88186"><ele>125.0</ele><time>2026-04-26T17:13:01.38Z</time></trkpt><trkpt lat="33.41084" lon="-7.881655"><ele>125.33333333333333</ele><time>2026-04-26T17:13:02.38Z</time></trkpt><trkpt lat="33.4109117" lon="-7.881455"><ele>125.66666666666666</ele><time>2026-04-26T17:13:03.38Z</time></trkpt><trkpt lat="33.41098" lon="-7.881255"><ele>126.0</ele><time>2026-04-26T17:13:04.38Z</time></trkpt><trkpt lat="33.41105" lon="-7.88105"><ele>126.0</ele><time>2026-04-26T17:13:05.38Z</time></trkpt><trkpt lat="33.41112" lon="-7.8808433"><ele>126.0</ele><time>2026-04-26T17:13:06.381Z</time></trkpt><trkpt lat="33.4111883" lon="-7.88063"><ele>126.0</ele><time>2026-04-26T17:13:07.38Z</time></trkpt><trkpt lat="33.4112617" lon="-7.88042"><ele>126.33333333333334</ele><time>2026-04-26T17:13:08.38Z</time></trkpt><trkpt lat="33.4113333" lon="-7.880215"><ele>126.66666666666667</ele><time>2026-04-26T17:13:09.38Z</time></trkpt><trkpt lat="33.411405" lon="-7.8800217"><ele>127.0</ele><time>2026-04-26T17:13:10.38Z</time></trkpt><trkpt lat="33.4114783" lon="-7.879845"><ele>128.33333333333334</ele><time>2026-04-26T17:13:11.38Z</time></trkpt><trkpt lat="33.4115483" lon="-7.8796683"><ele>129.66666666666666</ele><time>2026-04-26T17:13:12.381Z</time></trkpt><trkpt lat="33.41162" lon="-7.8795"><ele>131.0</ele><time>2026-04-26T17:13:13.38Z</time></trkpt><trkpt lat="33.411685" lon="-7.8793233"><ele>131.0</ele><time>2026-04-26T17:13:14.38Z</time></trkpt><trkpt lat="33.4117483" lon="-7.879145"><ele>131.0</ele><time>2026-04-26T17:13:15.38Z</time></trkpt><trkpt lat="33.411805" lon="-7.8789517"><ele>131.0</ele><time>2026-04-26T17:13:16.38Z</time></trkpt><trkpt lat="33.4118633" lon="-7.8787633"><ele>131.0</ele><time>2026-04-26T17:13:17.38Z</time></trkpt><trkpt lat="33.41192" lon="-7.87858"><ele>131.0</ele><time>2026-04-26T17:13:18.38Z</time></trkpt><trkpt lat="33.4119867" lon="-7.8784"><ele>131.0</ele><time>2026-04-26T17:13:19.38Z</time></trkpt><trkpt lat="33.4120483" lon="-7.878225"><ele>131.33333333333331</ele><time>2026-04-26T17:13:20.38Z</time></trkpt><trkpt lat="33.4121067" lon="-7.87804"><ele>131.66666666666666</ele><time>2026-04-26T17:13:21.38Z</time></trkpt><trkpt lat="33.41217" lon="-7.877855"><ele>132.0</ele><time>2026-04-26T17:13:22.38Z</time></trkpt><trkpt lat="33.4122317" lon="-7.8776717"><ele>132.33333333333334</ele><time>2026-04-26T17:13:23.38Z</time></trkpt><trkpt lat="33.4122933" lon="-7.87748"><ele>132.66666666666669</ele><time>2026-04-26T17:13:24.38Z</time></trkpt><trkpt lat="33.412345" lon="-7.8772883"><ele>133.0</ele><time>2026-04-26T17:13:25.38Z</time></trkpt><trkpt lat="33.41239" lon="-7.877095"><ele>133.0</ele><time>2026-04-26T17:13:26.38Z</time></trkpt><trkpt lat="33.4124267" lon="-7.87691"><ele>133.0</ele><time>2026-04-26T17:13:27.381Z</time></trkpt><trkpt lat="33.4124517" lon="-7.87673"><ele>133.0</ele><time>2026-04-26T17:13:28.38Z</time></trkpt><trkpt lat="33.4124717" lon="-7.8765583"><ele>133.5</ele><time>2026-04-26T17:13:29.381Z</time></trkpt><trkpt lat="33.41249" lon="-7.8763933"><ele>134.0</ele><time>2026-04-26T17:13:30.38Z</time></trkpt><trkpt lat="33.4125017" lon="-7.8762367"><ele>134.5</ele><time>2026-04-26T17:13:31.38Z</time></trkpt><trkpt lat="33.4125133" lon="-7.8761033"><ele>135.0</ele><time>2026-04-26T17:13:32.38Z</time></trkpt><trkpt lat="33.4125233" lon="-7.8759783"><ele>135.0</ele><time>2026-04-26T17:13:33.38Z</time></trkpt><trkpt lat="33.4125317" lon="-7.8758617"><ele>135.0</ele><time>2026-04-26T17:13:34.38Z</time></trkpt><trkpt lat="33.4125417" lon="-7.8757483"><ele>135.0</ele><time>2026-04-26T17:13:35.38Z</time></trkpt><trkpt lat="33.4125633" lon="-7.8756367"><ele>135.0</ele><time>2026-04-26T17:13:36.38Z</time></trkpt><trkpt lat="33.4125917" lon="-7.8755267"><ele>135.0</ele><time>2026-04-26T17:13:37.38Z</time></trkpt><trkpt lat="33.4126117" lon="-7.875415"><ele>135.0</ele><time>2026-04-26T17:13:38.38Z</time></trkpt><trkpt lat="33.4126233" lon="-7.875295"><ele>135.0</ele><time>2026-04-26T17:13:39.38Z</time></trkpt><trkpt lat="33.41263" lon="-7.8751767"><ele>135.0</ele><time>2026-04-26T17:13:40.38Z</time></trkpt><trkpt lat="33.4126433" lon="-7.8750533"><ele>135.0</ele><time>2026-04-26T17:13:41.38Z</time></trkpt><trkpt lat="33.4126617" lon="-7.8749133"><ele>135.0</ele><time>2026-04-26T17:13:42.38Z</time></trkpt><trkpt lat="33.41268" lon="-7.87477"><ele>135.25</ele><time>2026-04-26T17:13:43.38Z</time></trkpt><trkpt lat="33.412695" lon="-7.8746317"><ele>135.5</ele><time>2026-04-26T17:13:44.38Z</time></trkpt><trkpt lat="33.4127167" lon="-7.8745017"><ele>135.75</ele><time>2026-04-26T17:13:45.38Z</time></trkpt><trkpt lat="33.4127367" lon="-7.8743683"><ele>136.0</ele><time>2026-04-26T17:13:46.38Z</time></trkpt><trkpt lat="33.4127617" lon="-7.87424"><ele>135.66666666666669</ele><time>2026-04-26T17:13:47.38Z</time></trkpt><trkpt lat="33.4127783" lon="-7.87413"><ele>135.33333333333334</ele><time>2026-04-26T17:13:48.38Z</time></trkpt><trkpt lat="33.4127933" lon="-7.8740367"><ele>135.0</ele><time>2026-04-26T17:13:49.38Z</time></trkpt><trkpt lat="33.4128017" lon="-7.87395"><ele>134.66666666666666</ele><time>2026-04-26T17:13:50.38Z</time></trkpt><trkpt lat="33.41281" lon="-7.87387"><ele>134.33333333333331</ele><time>2026-04-26T17:13:51.38Z</time></trkpt><trkpt lat="33.4128267" lon="-7.8737233"><ele>134.0</ele><time>2026-04-26T17:13:53.38Z</time></trkpt><trkpt lat="33.4128367" lon="-7.8736483"><ele>134.0</ele><time>2026-04-26T17:13:54.38Z</time></trkpt><trkpt lat="33.4128517" lon="-7.8735717"><ele>134.0</ele><time>2026-04-26T17:13:55.38Z</time></trkpt><trkpt lat="33.4128667" lon="-7.87349"><ele>134.0</ele><time>2026-04-26T17:13:56.38Z</time></trkpt><trkpt lat="33.412885" lon="-7.8734083"><ele>134.0</ele><time>2026-04-26T17:13:57.38Z</time></trkpt><trkpt lat="33.4128983" lon="-7.8733333"><ele>134.0</ele><time>2026-04-26T17:13:58.38Z</time></trkpt><trkpt lat="33.4129117" lon="-7.8732567"><ele>134.0</ele><time>2026-04-26T17:13:59.38Z</time></trkpt><trkpt lat="33.4129217" lon="-7.873175"><ele>134.0</ele><time>2026-04-26T17:14:00.38Z</time></trkpt><trkpt lat="33.4129283" lon="-7.8730833"><ele>134.0</ele><time>2026-04-26T17:14:01.38Z</time></trkpt><trkpt lat="33.4129333" lon="-7.8729817"><ele>134.0</ele><time>2026-04-26T17:14:02.38Z</time></trkpt><trkpt lat="33.4129383" lon="-7.8728683"><ele>134.0</ele><time>2026-04-26T17:14:03.38Z</time></trkpt><trkpt lat="33.4129483" lon="-7.8727483"><ele>134.0</ele><time>2026-04-26T17:14:04.38Z</time></trkpt><trkpt lat="33.4129617" lon="-7.8726283"><ele>134.0</ele><time>2026-04-26T17:14:05.38Z</time></trkpt><trkpt lat="33.41297" lon="-7.87251"><ele>133.75</ele><time>2026-04-26T17:14:06.38Z</time></trkpt><trkpt lat="33.4129783" lon="-7.8723817"><ele>133.5</ele><time>2026-04-26T17:14:07.38Z</time></trkpt><trkpt lat="33.4129983" lon="-7.8722283"><ele>133.25</ele><time>2026-04-26T17:14:08.38Z</time></trkpt><trkpt lat="33.41302" lon="-7.8720483"><ele>133.0</ele><time>2026-04-26T17:14:09.38Z</time></trkpt><trkpt lat="33.4130533" lon="-7.8718483"><ele>132.66666666666669</ele><time>2026-04-26T17:14:10.38Z</time></trkpt><trkpt lat="33.4130733" lon="-7.8716517"><ele>132.33333333333334</ele><time>2026-04-26T17:14:11.38Z</time></trkpt><trkpt lat="33.4130833" lon="-7.8714683"><ele>132.0</ele><time>2026-04-26T17:14:12.38Z</time></trkpt><trkpt lat="33.4131017" lon="-7.8712933"><ele>132.0</ele><time>2026-04-26T17:14:13.38Z</time></trkpt><trkpt lat="33.4131167" lon="-7.87112"><ele>132.0</ele><time>2026-04-26T17:14:14.38Z</time></trkpt><trkpt lat="33.4131317" lon="-7.87096"><ele>132.0</ele><time>2026-04-26T17:14:15.38Z</time></trkpt><trkpt lat="33.4131467" lon="-7.87082"><ele>132.0</ele><time>2026-04-26T17:14:16.38Z</time></trkpt><trkpt lat="33.4131567" lon="-7.8707117"><ele>131.66666666666666</ele><time>2026-04-26T17:14:17.38Z</time></trkpt><trkpt lat="33.4131567" lon="-7.8706133"><ele>131.33333333333334</ele><time>2026-04-26T17:14:18.38Z</time></trkpt><trkpt lat="33.4131567" lon="-7.8705233"><ele>131.0</ele><time>2026-04-26T17:14:19.38Z</time></trkpt><trkpt lat="33.4131633" lon="-7.870435"><ele>130.66666666666669</ele><time>2026-04-26T17:14:20.38Z</time></trkpt><trkpt lat="33.41318" lon="-7.8703533"><ele>130.33333333333334</ele><time>2026-04-26T17:14:21.38Z</time></trkpt><trkpt lat="33.4132117" lon="-7.8702617"><ele>130.0</ele><time>2026-04-26T17:14:22.38Z</time></trkpt><trkpt lat="33.4132267" lon="-7.87016"><ele>129.6</ele><time>2026-04-26T17:14:23.38Z</time></trkpt><trkpt lat="33.4132417" lon="-7.8700483"><ele>129.2</ele><time>2026-04-26T17:14:24.38Z</time></trkpt><trkpt lat="33.413255" lon="-7.8699267"><ele>128.8</ele><time>2026-04-26T17:14:25.381Z</time></trkpt><trkpt lat="33.4132683" lon="-7.8698"><ele>128.4</ele><time>2026-04-26T17:14:26.38Z</time></trkpt><trkpt lat="33.4132867" lon="-7.8696683"><ele>128.0</ele><time>2026-04-26T17:14:27.38Z</time></trkpt><trkpt lat="33.4133083" lon="-7.8695517"><ele>128.0</ele><time>2026-04-26T17:14:28.38Z</time></trkpt><trkpt lat="33.4133267" lon="-7.8694417"><ele>128.0</ele><time>2026-04-26T17:14:29.38Z</time></trkpt><trkpt lat="33.413345" lon="-7.869335"><ele>128.0</ele><time>2026-04-26T17:14:30.38Z</time></trkpt><trkpt lat="33.4133633" lon="-7.8692333"><ele>128.0</ele><time>2026-04-26T17:14:31.38Z</time></trkpt><trkpt lat="33.41338" lon="-7.8691267"><ele>128.0</ele><time>2026-04-26T17:14:32.38Z</time></trkpt><trkpt lat="33.4133967" lon="-7.8690133"><ele>128.33333333333331</ele><time>2026-04-26T17:14:33.38Z</time></trkpt><trkpt lat="33.41341" lon="-7.8689067"><ele>128.66666666666666</ele><time>2026-04-26T17:14:34.38Z</time></trkpt><trkpt lat="33.41342" lon="-7.8688083"><ele>129.0</ele><time>2026-04-26T17:14:35.38Z</time></trkpt><trkpt lat="33.4134317" lon="-7.8687217"><ele>129.33333333333334</ele><time>2026-04-26T17:14:36.38Z</time></trkpt><trkpt lat="33.413445" lon="-7.8686267"><ele>129.66666666666669</ele><time>2026-04-26T17:14:37.38Z</time></trkpt><trkpt lat="33.4134617" lon="-7.8685317"><ele>130.0</ele><time>2026-04-26T17:14:38.38Z</time></trkpt><trkpt lat="33.41348" lon="-7.8684433"><ele>130.16666666666669</ele><time>2026-04-26T17:14:39.38Z</time></trkpt><trkpt lat="33.4134967" lon="-7.8683533"><ele>130.33333333333334</ele><time>2026-04-26T17:14:40.38Z</time></trkpt><trkpt lat="33.4135117" lon="-7.8682633"><ele>130.5</ele><time>2026-04-26T17:14:41.38Z</time></trkpt><trkpt lat="33.413525" lon="-7.868175"><ele>130.66666666666666</ele><time>2026-04-26T17:14:42.38Z</time></trkpt><trkpt lat="33.41354" lon="-7.8680817"><ele>130.83333333333331</ele><time>2026-04-26T17:14:43.38Z</time></trkpt><trkpt lat="33.4135583" lon="-7.867975"><ele>131.0</ele><time>2026-04-26T17:14:44.38Z</time></trkpt><trkpt lat="33.41358" lon="-7.8678667"><ele>131.0</ele><time>2026-04-26T17:14:45.38Z</time></trkpt><trkpt lat="33.4136017" lon="-7.8677617"><ele>131.0</ele><time>2026-04-26T17:14:46.38Z</time></trkpt><trkpt lat="33.4136233" lon="-7.8676617"><ele>131.0</ele><time>2026-04-26T17:14:47.38Z</time></trkpt><trkpt lat="33.41365" lon="-7.867565"><ele>131.0</ele><time>2026-04-26T17:14:48.38Z</time></trkpt><trkpt lat="33.4136833" lon="-7.8674617"><ele>131.0</ele><time>2026-04-26T17:14:49.38Z</time></trkpt><trkpt lat="33.41372" lon="-7.8673567"><ele>131.0</ele><time>2026-04-26T17:14:50.38Z</time></trkpt><trkpt lat="33.4137567" lon="-7.86725"><ele>131.2</ele><time>2026-04-26T17:14:51.38Z</time></trkpt><trkpt lat="33.4137933" lon="-7.867135"><ele>131.39999999999998</ele><time>2026-04-26T17:14:52.38Z</time></trkpt><trkpt lat="33.4138283" lon="-7.8670133"><ele>131.6</ele><time>2026-04-26T17:14:53.38Z</time></trkpt><trkpt lat="33.413865" lon="-7.8669"><ele>131.79999999999998</ele><time>2026-04-26T17:14:54.38Z</time></trkpt><trkpt lat="33.4139067" lon="-7.866795"><ele>132.0</ele><time>2026-04-26T17:14:55.38Z</time></trkpt><trkpt lat="33.41395" lon="-7.8666917"><ele>132.0</ele><time>2026-04-26T17:14:56.38Z</time></trkpt><trkpt lat="33.4139933" lon="-7.8665883"><ele>132.0</ele><time>2026-04-26T17:14:57.38Z</time></trkpt><trkpt lat="33.41404" lon="-7.8664833"><ele>132.0</ele><time>2026-04-26T17:14:58.38Z</time></trkpt><trkpt lat="33.4140933" lon="-7.8663817"><ele>132.0</ele><time>2026-04-26T17:14:59.38Z</time></trkpt><trkpt lat="33.414145" lon="-7.8662817"><ele>132.0</ele><time>2026-04-26T17:15:00.38Z</time></trkpt><trkpt lat="33.4142067" lon="-7.8661817"><ele>132.0</ele><time>2026-04-26T17:15:01.38Z</time></trkpt><trkpt lat="33.4142717" lon="-7.8660767"><ele>132.0</ele><time>2026-04-26T17:15:02.38Z</time></trkpt><trkpt lat="33.4143417" lon="-7.86597"><ele>132.0</ele><time>2026-04-26T17:15:03.38Z</time></trkpt><trkpt lat="33.4144117" lon="-7.8658667"><ele>132.0</ele><time>2026-04-26T17:15:04.38Z</time></trkpt><trkpt lat="33.4144817" lon="-7.8657567"><ele>132.0</ele><time>2026-04-26T17:15:05.38Z</time></trkpt><trkpt lat="33.4145517" lon="-7.8656483"><ele>131.75</ele><time>2026-04-26T17:15:06.38Z</time></trkpt><trkpt lat="33.4146167" lon="-7.8655383"><ele>131.5</ele><time>2026-04-26T17:15:07.38Z</time></trkpt><trkpt lat="33.414685" lon="-7.865425"><ele>131.25</ele><time>2026-04-26T17:15:08.38Z</time></trkpt><trkpt lat="33.4147533" lon="-7.8653133"><ele>131.0</ele><time>2026-04-26T17:15:09.38Z</time></trkpt><trkpt lat="33.4148217" lon="-7.8652033"><ele>130.4</ele><time>2026-04-26T17:15:10.38Z</time></trkpt><trkpt lat="33.414895" lon="-7.8650967"><ele>129.8</ele><time>2026-04-26T17:15:11.38Z</time></trkpt><trkpt lat="33.4149617" lon="-7.8649867"><ele>129.20000000000002</ele><time>2026-04-26T17:15:12.38Z</time></trkpt><trkpt lat="33.4150233" lon="-7.8648867"><ele>128.6</ele><time>2026-04-26T17:15:13.38Z</time></trkpt><trkpt lat="33.415085" lon="-7.864785"><ele>128.0</ele><time>2026-04-26T17:15:14.38Z</time></trkpt><trkpt lat="33.41514" lon="-7.8646917"><ele>128.0</ele><time>2026-04-26T17:15:15.38Z</time></trkpt><trkpt lat="33.4151917" lon="-7.8645967"><ele>128.0</ele><time>2026-04-26T17:15:16.38Z</time></trkpt><trkpt lat="33.4152517" lon="-7.8645017"><ele>128.0</ele><time>2026-04-26T17:15:17.38Z</time></trkpt><trkpt lat="33.4153117" lon="-7.864405"><ele>128.0</ele><time>2026-04-26T17:15:18.38Z</time></trkpt><trkpt lat="33.41537" lon="-7.864315"><ele>128.0</ele><time>2026-04-26T17:15:19.38Z</time></trkpt><trkpt lat="33.4154267" lon="-7.86422"><ele>127.99999999999999</ele><time>2026-04-26T17:15:20.38Z</time></trkpt><trkpt lat="33.41548" lon="-7.8641367"><ele>128.0</ele><time>2026-04-26T17:15:21.38Z</time></trkpt><trkpt lat="33.41553" lon="-7.8640617"><ele>128.0</ele><time>2026-04-26T17:15:22.38Z</time></trkpt><trkpt lat="33.41557" lon="-7.8639983"><ele>128.0</ele><time>2026-04-26T17:15:23.38Z</time></trkpt><trkpt lat="33.415635" lon="-7.8638933"><ele>127.99999999999999</ele><time>2026-04-26T17:15:25.38Z</time></trkpt><trkpt lat="33.4156783" lon="-7.8638183"><ele>128.0</ele><time>2026-04-26T17:15:27.38Z</time></trkpt><trkpt lat="33.4157117" lon="-7.86374"><ele>127.99999999999999</ele><time>2026-04-26T17:15:29.38Z</time></trkpt><trkpt lat="33.4157433" lon="-7.8636733"><ele>128.0</ele><time>2026-04-26T17:15:31.38Z</time></trkpt><trkpt lat="33.41578" lon="-7.863585"><ele>128.0</ele><time>2026-04-26T17:15:39.38Z</time></trkpt><trkpt lat="33.4158317" lon="-7.8634683"><ele>128.0</ele><time>2026-04-26T17:15:41.38Z</time></trkpt><trkpt lat="33.4159067" lon="-7.86338"><ele>127.99999999999999</ele><time>2026-04-26T17:15:43.38Z</time></trkpt><trkpt lat="33.41596" lon="-7.8633283"><ele>128.0</ele><time>2026-04-26T17:15:44.38Z</time></trkpt><trkpt lat="33.4160133" lon="-7.863265"><ele>127.80000000000001</ele><time>2026-04-26T17:15:45.38Z</time></trkpt><trkpt lat="33.4160733" lon="-7.8631817"><ele>127.60000000000001</ele><time>2026-04-26T17:15:46.38Z</time></trkpt><trkpt lat="33.4161317" lon="-7.8630933"><ele>127.39999999999999</ele><time>2026-04-26T17:15:47.38Z</time></trkpt><trkpt lat="33.416185" lon="-7.8629983"><ele>127.19999999999999</ele><time>2026-04-26T17:15:48.38Z</time></trkpt><trkpt lat="33.4162433" lon="-7.862905"><ele>127.0</ele><time>2026-04-26T17:15:49.38Z</time></trkpt><trkpt lat="33.4163017" lon="-7.862805"><ele>127.0</ele><time>2026-04-26T17:15:50.38Z</time></trkpt><trkpt lat="33.41636" lon="-7.8626917"><ele>127.0</ele><time>2026-04-26T17:15:51.38Z</time></trkpt><trkpt lat="33.4164217" lon="-7.8625733"><ele>127.0</ele><time>2026-04-26T17:15:52.38Z</time></trkpt><trkpt lat="33.41648" lon="-7.8624467"><ele>127.0</ele><time>2026-04-26T17:15:53.38Z</time></trkpt><trkpt lat="33.4165317" lon="-7.8623317"><ele>126.8</ele><time>2026-04-26T17:15:54.38Z</time></trkpt><trkpt lat="33.4165867" lon="-7.86225"><ele>126.6</ele><time>2026-04-26T17:15:55.38Z</time></trkpt><trkpt lat="33.4166467" lon="-7.86216"><ele>126.39999999999999</ele><time>2026-04-26T17:15:56.38Z</time></trkpt><trkpt lat="33.416715" lon="-7.862045"><ele>126.19999999999999</ele><time>2026-04-26T17:15:57.38Z</time></trkpt><trkpt lat="33.4167917" lon="-7.8619217"><ele>126.0</ele><time>2026-04-26T17:15:58.38Z</time></trkpt><trkpt lat="33.4168583" lon="-7.8618183"><ele>126.19999999999999</ele><time>2026-04-26T17:15:59.38Z</time></trkpt><trkpt lat="33.416925" lon="-7.8617133"><ele>126.39999999999999</ele><time>2026-04-26T17:16:00.38Z</time></trkpt><trkpt lat="33.4169917" lon="-7.86161"><ele>126.6</ele><time>2026-04-26T17:16:01.38Z</time></trkpt><trkpt lat="33.4170567" lon="-7.861515"><ele>126.8</ele><time>2026-04-26T17:16:02.38Z</time></trkpt><trkpt lat="33.4171117" lon="-7.861425"><ele>127.0</ele><time>2026-04-26T17:16:03.38Z</time></trkpt><trkpt lat="33.4171617" lon="-7.8613367"><ele>127.19999999999999</ele><time>2026-04-26T17:16:04.38Z</time></trkpt><trkpt lat="33.417215" lon="-7.8612567"><ele>127.39999999999999</ele><time>2026-04-26T17:16:05.38Z</time></trkpt><trkpt lat="33.4172633" lon="-7.8611783"><ele>127.60000000000001</ele><time>2026-04-26T17:16:06.38Z</time></trkpt><trkpt lat="33.417305" lon="-7.8611067"><ele>127.80000000000001</ele><time>2026-04-26T17:16:07.38Z</time></trkpt><trkpt lat="33.4173683" lon="-7.8610033"><ele>128.0</ele><time>2026-04-26T17:16:09.38Z</time></trkpt><trkpt lat="33.4174367" lon="-7.860885"><ele>128.0</ele><time>2026-04-26T17:16:11.38Z</time></trkpt><trkpt lat="33.4174733" lon="-7.860815"><ele>127.99999999999999</ele><time>2026-04-26T17:16:12.38Z</time></trkpt><trkpt lat="33.4175117" lon="-7.86075"><ele>128.0</ele><time>2026-04-26T17:16:13.38Z</time></trkpt><trkpt lat="33.4175533" lon="-7.86069"><ele>128.0</ele><time>2026-04-26T17:16:14.38Z</time></trkpt><trkpt lat="33.4175967" lon="-7.86063"><ele>127.99999999999999</ele><time>2026-04-26T17:16:15.38Z</time></trkpt><trkpt lat="33.417635" lon="-7.86057"><ele>128.0</ele><time>2026-04-26T17:16:16.38Z</time></trkpt><trkpt lat="33.41767" lon="-7.8605033"><ele>128.0</ele><time>2026-04-26T17:16:17.38Z</time></trkpt><trkpt lat="33.4177433" lon="-7.8603717"><ele>127.99999999999999</ele><time>2026-04-26T17:16:19.38Z</time></trkpt><trkpt lat="33.4177933" lon="-7.8603033"><ele>128.0</ele><time>2026-04-26T17:16:20.38Z</time></trkpt><trkpt lat="33.4178533" lon="-7.86023"><ele>128.0</ele><time>2026-04-26T17:16:21.38Z</time></trkpt><trkpt lat="33.4179117" lon="-7.8601483"><ele>128.0</ele><time>2026-04-26T17:16:22.38Z</time></trkpt><trkpt lat="33.4179717" lon="-7.8600633"><ele>127.99999999999999</ele><time>2026-04-26T17:16:23.38Z</time></trkpt><trkpt lat="33.418035" lon="-7.8599783"><ele>128.0</ele><time>2026-04-26T17:16:24.38Z</time></trkpt><trkpt lat="33.41809" lon="-7.859885"><ele>127.49999999999999</ele><time>2026-04-26T17:16:25.38Z</time></trkpt><trkpt lat="33.41814" lon="-7.8598017"><ele>127.0</ele><time>2026-04-26T17:16:26.38Z</time></trkpt><trkpt lat="33.4181917" lon="-7.8597167"><ele>126.5</ele><time>2026-04-26T17:16:27.38Z</time></trkpt><trkpt lat="33.418245" lon="-7.8596317"><ele>126.0</ele><time>2026-04-26T17:16:28.38Z</time></trkpt><trkpt lat="33.4183" lon="-7.8595433"><ele>125.49999999999999</ele><time>2026-04-26T17:16:29.38Z</time></trkpt><trkpt lat="33.4183517" lon="-7.8594567"><ele>125.0</ele><time>2026-04-26T17:16:30.38Z</time></trkpt><trkpt lat="33.4184" lon="-7.8593783"><ele>125.0</ele><time>2026-04-26T17:16:31.38Z</time></trkpt><trkpt lat="33.4184483" lon="-7.8592983"><ele>125.0</ele><time>2026-04-26T17:16:32.38Z</time></trkpt><trkpt lat="33.4185" lon="-7.8592117"><ele>125.0</ele><time>2026-04-26T17:16:33.38Z</time></trkpt><trkpt lat="33.4185517" lon="-7.859115"><ele>125.0</ele><time>2026-04-26T17:16:34.38Z</time></trkpt><trkpt lat="33.4186033" lon="-7.85902"><ele>125.0</ele><time>2026-04-26T17:16:35.38Z</time></trkpt><trkpt lat="33.41866" lon="-7.8589283"><ele>125.0</ele><time>2026-04-26T17:16:36.38Z</time></trkpt><trkpt lat="33.41871" lon="-7.85884"><ele>125.0</ele><time>2026-04-26T17:16:37.38Z</time></trkpt><trkpt lat="33.4187517" lon="-7.8587633"><ele>125.0</ele><time>2026-04-26T17:16:38.38Z</time></trkpt><trkpt lat="33.41879" lon="-7.8586933"><ele>125.0</ele><time>2026-04-26T17:16:39.38Z</time></trkpt><trkpt lat="33.4188267" lon="-7.8586283"><ele>125.0</ele><time>2026-04-26T17:16:40.38Z</time></trkpt><trkpt lat="33.4188667" lon="-7.858565"><ele>125.0</ele><time>2026-04-26T17:16:41.38Z</time></trkpt><trkpt lat="33.4189067" lon="-7.8584967"><ele>125.0</ele><time>2026-04-26T17:16:42.38Z</time></trkpt><trkpt lat="33.418955" lon="-7.8584133"><ele>124.4</ele><time>2026-04-26T17:16:43.38Z</time></trkpt><trkpt lat="33.4190083" lon="-7.8583167"><ele>123.8</ele><time>2026-04-26T17:16:44.38Z</time></trkpt><trkpt lat="33.4190633" lon="-7.8582233"><ele>123.19999999999999</ele><time>2026-04-26T17:16:45.38Z</time></trkpt><trkpt lat="33.4191167" lon="-7.85813"><ele>122.6</ele><time>2026-04-26T17:16:46.38Z</time></trkpt><trkpt lat="33.419175" lon="-7.8580433"><ele>122.0</ele><time>2026-04-26T17:16:47.38Z</time></trkpt><trkpt lat="33.419235" lon="-7.8579617"><ele>122.0</ele><time>2026-04-26T17:16:48.38Z</time></trkpt><trkpt lat="33.4192967" lon="-7.8578667"><ele>121.99999999999999</ele><time>2026-04-26T17:16:49.38Z</time></trkpt><trkpt lat="33.4193567" lon="-7.8577583"><ele>121.99999999999999</ele><time>2026-04-26T17:16:50.38Z</time></trkpt><trkpt lat="33.41942" lon="-7.8576583"><ele>122.0</ele><time>2026-04-26T17:16:51.38Z</time></trkpt><trkpt lat="33.4194817" lon="-7.8575533"><ele>122.0</ele><time>2026-04-26T17:16:52.38Z</time></trkpt><trkpt lat="33.4195383" lon="-7.8574533"><ele>121.8</ele><time>2026-04-26T17:16:53.38Z</time></trkpt><trkpt lat="33.419595" lon="-7.8573483"><ele>121.6</ele><time>2026-04-26T17:16:54.38Z</time></trkpt><trkpt lat="33.41966" lon="-7.8572433"><ele>121.39999999999999</ele><time>2026-04-26T17:16:55.38Z</time></trkpt><trkpt lat="33.4197217" lon="-7.8571333"><ele>121.19999999999999</ele><time>2026-04-26T17:16:56.38Z</time></trkpt><trkpt lat="33.41979" lon="-7.85703"><ele>121.0</ele><time>2026-04-26T17:16:57.38Z</time></trkpt><trkpt lat="33.4198533" lon="-7.8569417"><ele>121.0</ele><time>2026-04-26T17:16:58.38Z</time></trkpt><trkpt lat="33.4199117" lon="-7.8568517"><ele>121.0</ele><time>2026-04-26T17:16:59.38Z</time></trkpt><trkpt lat="33.4199717" lon="-7.8567683"><ele>121.0</ele><time>2026-04-26T17:17:00.38Z</time></trkpt><trkpt lat="33.42003" lon="-7.8566833"><ele>121.0</ele><time>2026-04-26T17:17:01.38Z</time></trkpt><trkpt lat="33.420085" lon="-7.856595"><ele>121.0</ele><time>2026-04-26T17:17:02.381Z</time></trkpt><trkpt lat="33.4201317" lon="-7.8565167"><ele>121.33333333333334</ele><time>2026-04-26T17:17:03.38Z</time></trkpt><trkpt lat="33.4201733" lon="-7.8564433"><ele>121.66666666666667</ele><time>2026-04-26T17:17:04.38Z</time></trkpt><trkpt lat="33.4202417" lon="-7.856335"><ele>122.0</ele><time>2026-04-26T17:17:06.38Z</time></trkpt><trkpt lat="33.4202983" lon="-7.85622"><ele>122.33333333333334</ele><time>2026-04-26T17:17:08.38Z</time></trkpt><trkpt lat="33.4203367" lon="-7.856155"><ele>122.66666666666667</ele><time>2026-04-26T17:17:09.38Z</time></trkpt><trkpt lat="33.4203817" lon="-7.8560967"><ele>123.0</ele><time>2026-04-26T17:17:10.38Z</time></trkpt><trkpt lat="33.4204717" lon="-7.8559867"><ele>123.16666666666667</ele><time>2026-04-26T17:17:12.38Z</time></trkpt><trkpt lat="33.420525" lon="-7.85593"><ele>123.33333333333334</ele><time>2026-04-26T17:17:13.38Z</time></trkpt><trkpt lat="33.4205767" lon="-7.855865"><ele>123.5</ele><time>2026-04-26T17:17:14.38Z</time></trkpt><trkpt lat="33.42063" lon="-7.8557967"><ele>123.66666666666667</ele><time>2026-04-26T17:17:15.38Z</time></trkpt><trkpt lat="33.4206883" lon="-7.8557217"><ele>123.83333333333334</ele><time>2026-04-26T17:17:16.38Z</time></trkpt><trkpt lat="33.4207417" lon="-7.855655"><ele>124.0</ele><time>2026-04-26T17:17:17.38Z</time></trkpt><trkpt lat="33.4208017" lon="-7.8555933"><ele>124.00000000000001</ele><time>2026-04-26T17:17:18.38Z</time></trkpt><trkpt lat="33.4208617" lon="-7.8555317"><ele>124.0</ele><time>2026-04-26T17:17:19.38Z</time></trkpt><trkpt lat="33.4209083" lon="-7.8554667"><ele>124.0</ele><time>2026-04-26T17:17:20.38Z</time></trkpt><trkpt lat="33.4209533" lon="-7.8554117"><ele>124.0</ele><time>2026-04-26T17:17:21.38Z</time></trkpt><trkpt lat="33.420995" lon="-7.85535"><ele>124.00000000000001</ele><time>2026-04-26T17:17:22.38Z</time></trkpt><trkpt lat="33.4210717" lon="-7.85525"><ele>124.0</ele><time>2026-04-26T17:17:24.38Z</time></trkpt><trkpt lat="33.4211433" lon="-7.85515"><ele>124.2</ele><time>2026-04-26T17:17:26.38Z</time></trkpt><trkpt lat="33.4212117" lon="-7.8550533"><ele>124.4</ele><time>2026-04-26T17:17:28.38Z</time></trkpt><trkpt lat="33.4212867" lon="-7.8549733"><ele>124.6</ele><time>2026-04-26T17:17:30.38Z</time></trkpt><trkpt lat="33.421355" lon="-7.8548917"><ele>124.8</ele><time>2026-04-26T17:17:32.38Z</time></trkpt><trkpt lat="33.4214167" lon="-7.8548083"><ele>125.0</ele><time>2026-04-26T17:17:34.38Z</time></trkpt><trkpt lat="33.4214783" lon="-7.854745"><ele>124.99999999999999</ele><time>2026-04-26T17:17:36.38Z</time></trkpt><trkpt lat="33.4215333" lon="-7.8546983"><ele>125.0</ele><time>2026-04-26T17:17:39.38Z</time></trkpt><trkpt lat="33.4215933" lon="-7.854635"><ele>125.0</ele><time>2026-04-26T17:17:50.38Z</time></trkpt><trkpt lat="33.4216583" lon="-7.8545883"><ele>125.0</ele><time>2026-04-26T17:17:54.38Z</time></trkpt><trkpt lat="33.42173" lon="-7.8544883"><ele>124.99999999999999</ele><time>2026-04-26T17:17:57.38Z</time></trkpt><trkpt lat="33.42179" lon="-7.8543933"><ele>125.0</ele><time>2026-04-26T17:17:59.381Z</time></trkpt><trkpt lat="33.4218533" lon="-7.8543417"><ele>124.99999999999999</ele><time>2026-04-26T17:18:01.38Z</time></trkpt><trkpt lat="33.42193" lon="-7.854305"><ele>125.0</ele><time>2026-04-26T17:18:03.38Z</time></trkpt><trkpt lat="33.4219867" lon="-7.85425"><ele>125.0</ele><time>2026-04-26T17:18:05.38Z</time></trkpt><trkpt lat="33.4220467" lon="-7.85417"><ele>125.0</ele><time>2026-04-26T17:18:08.38Z</time></trkpt><trkpt lat="33.4220983" lon="-7.8540983"><ele>124.99999999999999</ele><time>2026-04-26T17:18:11.38Z</time></trkpt><trkpt lat="33.4221617" lon="-7.8540283"><ele>125.0</ele><time>2026-04-26T17:18:14.38Z</time></trkpt><trkpt lat="33.42223" lon="-7.85397"><ele>125.2</ele><time>2026-04-26T17:18:16.38Z</time></trkpt><trkpt lat="33.4222867" lon="-7.8539067"><ele>125.4</ele><time>2026-04-26T17:18:18.38Z</time></trkpt><trkpt lat="33.42236" lon="-7.85383"><ele>125.6</ele><time>2026-04-26T17:18:20.38Z</time></trkpt><trkpt lat="33.42244" lon="-7.8537217"><ele>125.8</ele><time>2026-04-26T17:18:22.38Z</time></trkpt><trkpt lat="33.422515" lon="-7.8536183"><ele>126.0</ele><time>2026-04-26T17:18:24.38Z</time></trkpt><trkpt lat="33.4225567" lon="-7.8535533"><ele>126.0</ele><time>2026-04-26T17:18:26.38Z</time></trkpt><trkpt lat="33.4226133" lon="-7.853485"><ele>126.0</ele><time>2026-04-26T17:18:29.38Z</time></trkpt><trkpt lat="33.42272" lon="-7.8533783"><ele>126.0</ele><time>2026-04-26T17:18:31.38Z</time></trkpt><trkpt lat="33.42278" lon="-7.853305"><ele>126.0</ele><time>2026-04-26T17:18:32.38Z</time></trkpt><trkpt lat="33.4228467" lon="-7.8532267"><ele>126.0</ele><time>2026-04-26T17:18:33.38Z</time></trkpt><trkpt lat="33.4229133" lon="-7.853145"><ele>125.4</ele><time>2026-04-26T17:18:34.38Z</time></trkpt><trkpt lat="33.422985" lon="-7.8530617"><ele>124.8</ele><time>2026-04-26T17:18:35.38Z</time></trkpt><trkpt lat="33.4230567" lon="-7.8529783"><ele>124.20000000000002</ele><time>2026-04-26T17:18:36.38Z</time></trkpt><trkpt lat="33.4231283" lon="-7.85289"><ele>123.60000000000001</ele><time>2026-04-26T17:18:37.38Z</time></trkpt><trkpt lat="33.4232067" lon="-7.852805"><ele>123.0</ele><time>2026-04-26T17:18:38.38Z</time></trkpt><trkpt lat="33.423285" lon="-7.8527183"><ele>123.0</ele><time>2026-04-26T17:18:39.38Z</time></trkpt><trkpt lat="33.423365" lon="-7.85263"><ele>123.0</ele><time>2026-04-26T17:18:40.38Z</time></trkpt><trkpt lat="33.423445" lon="-7.8525367"><ele>123.0</ele><time>2026-04-26T17:18:41.38Z</time></trkpt><trkpt lat="33.4235267" lon="-7.8524467"><ele>123.0</ele><time>2026-04-26T17:18:42.38Z</time></trkpt><trkpt lat="33.4236117" lon="-7.8523483"><ele>123.25</ele><time>2026-04-26T17:18:43.38Z</time></trkpt><trkpt lat="33.4236967" lon="-7.8522483"><ele>123.5</ele><time>2026-04-26T17:18:44.38Z</time></trkpt><trkpt lat="33.42378" lon="-7.85214"><ele>123.75</ele><time>2026-04-26T17:18:45.38Z</time></trkpt><trkpt lat="33.4238617" lon="-7.8520333"><ele>124.0</ele><time>2026-04-26T17:18:46.38Z</time></trkpt><trkpt lat="33.4239367" lon="-7.851925"><ele>124.0</ele><time>2026-04-26T17:18:47.38Z</time></trkpt><trkpt lat="33.4240067" lon="-7.8518217"><ele>124.0</ele><time>2026-04-26T17:18:48.38Z</time></trkpt><trkpt lat="33.424075" lon="-7.8517183"><ele>124.0</ele><time>2026-04-26T17:18:49.38Z</time></trkpt><trkpt lat="33.4241467" lon="-7.8516117"><ele>124.0</ele><time>2026-04-26T17:18:50.38Z</time></trkpt><trkpt lat="33.424215" lon="-7.8515133"><ele>124.0</ele><time>2026-04-26T17:18:51.38Z</time></trkpt><trkpt lat="33.4242783" lon="-7.851415"><ele>124.00000000000001</ele><time>2026-04-26T17:18:52.38Z</time></trkpt><trkpt lat="33.4243333" lon="-7.8513317"><ele>124.0</ele><time>2026-04-26T17:18:53.38Z</time></trkpt><trkpt lat="33.424375" lon="-7.8512467"><ele>124.0</ele><time>2026-04-26T17:18:54.38Z</time></trkpt><trkpt lat="33.4244133" lon="-7.85116"><ele>124.0</ele><time>2026-04-26T17:18:55.38Z</time></trkpt><trkpt lat="33.424455" lon="-7.8510667"><ele>124.00000000000001</ele><time>2026-04-26T17:18:56.38Z</time></trkpt><trkpt lat="33.424495" lon="-7.8509717"><ele>124.0</ele><time>2026-04-26T17:18:57.38Z</time></trkpt><trkpt lat="33.4245383" lon="-7.8508717"><ele>124.2</ele><time>2026-04-26T17:18:58.38Z</time></trkpt><trkpt lat="33.424585" lon="-7.850765"><ele>124.4</ele><time>2026-04-26T17:18:59.38Z</time></trkpt><trkpt lat="33.4246433" lon="-7.8506617"><ele>124.6</ele><time>2026-04-26T17:19:00.38Z</time></trkpt><trkpt lat="33.4246967" lon="-7.8505633"><ele>124.8</ele><time>2026-04-26T17:19:01.38Z</time></trkpt><trkpt lat="33.4247467" lon="-7.8504683"><ele>125.0</ele><time>2026-04-26T17:19:02.38Z</time></trkpt><trkpt lat="33.4247917" lon="-7.8503717"><ele>124.99999999999999</ele><time>2026-04-26T17:19:03.38Z</time></trkpt><trkpt lat="33.42483" lon="-7.8502817"><ele>125.0</ele><time>2026-04-26T17:19:04.38Z</time></trkpt><trkpt lat="33.4248683" lon="-7.850195"><ele>125.0</ele><time>2026-04-26T17:19:05.38Z</time></trkpt><trkpt lat="33.4248967" lon="-7.850105"><ele>125.0</ele><time>2026-04-26T17:19:06.381Z</time></trkpt><trkpt lat="33.42493" lon="-7.850025"><ele>124.99999999999999</ele><time>2026-04-26T17:19:07.38Z</time></trkpt><trkpt lat="33.42496" lon="-7.8499567"><ele>125.0</ele><time>2026-04-26T17:19:08.38Z</time></trkpt><trkpt lat="33.42502" lon="-7.8498317"><ele>125.0</ele><time>2026-04-26T17:19:10.38Z</time></trkpt><trkpt lat="33.4250833" lon="-7.8497167"><ele>125.0</ele><time>2026-04-26T17:19:12.38Z</time></trkpt><trkpt lat="33.4251417" lon="-7.849605"><ele>125.0</ele><time>2026-04-26T17:19:14.38Z</time></trkpt><trkpt lat="33.4251983" lon="-7.8494983"><ele>125.0</ele><time>2026-04-26T17:19:16.38Z</time></trkpt><trkpt lat="33.4252517" lon="-7.8493917"><ele>125.0</ele><time>2026-04-26T17:19:18.38Z</time></trkpt><trkpt lat="33.42531" lon="-7.8492883"><ele>124.8</ele><time>2026-04-26T17:19:20.38Z</time></trkpt><trkpt lat="33.425355" lon="-7.8491783"><ele>124.6</ele><time>2026-04-26T17:19:22.38Z</time></trkpt><trkpt lat="33.4254117" lon="-7.8490633"><ele>124.4</ele><time>2026-04-26T17:19:24.38Z</time></trkpt><trkpt lat="33.42545" lon="-7.8489783"><ele>124.2</ele><time>2026-04-26T17:19:25.38Z</time></trkpt><trkpt lat="33.4254983" lon="-7.8488833"><ele>124.0</ele><time>2026-04-26T17:19:26.38Z</time></trkpt><trkpt lat="33.4255483" lon="-7.8487783"><ele>123.25</ele><time>2026-04-26T17:19:27.38Z</time></trkpt><trkpt lat="33.4256033" lon="-7.848665"><ele>122.5</ele><time>2026-04-26T17:19:28.38Z</time></trkpt><trkpt lat="33.42566" lon="-7.84854"><ele>121.75</ele><time>2026-04-26T17:19:29.38Z</time></trkpt><trkpt lat="33.4257233" lon="-7.84841"><ele>121.0</ele><time>2026-04-26T17:19:30.38Z</time></trkpt><trkpt lat="33.4257883" lon="-7.84828"><ele>120.75</ele><time>2026-04-26T17:19:31.38Z</time></trkpt><trkpt lat="33.4258583" lon="-7.8481467"><ele>120.5</ele><time>2026-04-26T17:19:32.38Z</time></trkpt><trkpt lat="33.42593" lon="-7.84801"><ele>120.25</ele><time>2026-04-26T17:19:33.38Z</time></trkpt><trkpt lat="33.425995" lon="-7.84787"><ele>120.0</ele><time>2026-04-26T17:19:34.38Z</time></trkpt><trkpt lat="33.426065" lon="-7.847735"><ele>120.25</ele><time>2026-04-26T17:19:35.38Z</time></trkpt><trkpt lat="33.4261317" lon="-7.8476"><ele>120.5</ele><time>2026-04-26T17:19:36.38Z</time></trkpt><trkpt lat="33.4262" lon="-7.8474667"><ele>120.75</ele><time>2026-04-26T17:19:37.38Z</time></trkpt><trkpt lat="33.4262667" lon="-7.8473283"><ele>121.0</ele><time>2026-04-26T17:19:38.38Z</time></trkpt><trkpt lat="33.4263333" lon="-7.84719"><ele>121.25</ele><time>2026-04-26T17:19:39.38Z</time></trkpt><trkpt lat="33.426395" lon="-7.8470567"><ele>121.5</ele><time>2026-04-26T17:19:40.38Z</time></trkpt><trkpt lat="33.4264533" lon="-7.8469183"><ele>121.75</ele><time>2026-04-26T17:19:41.38Z</time></trkpt><trkpt lat="33.4265117" lon="-7.8467783"><ele>122.0</ele><time>2026-04-26T17:19:42.38Z</time></trkpt><trkpt lat="33.426565" lon="-7.84664"><ele>121.5</ele><time>2026-04-26T17:19:43.38Z</time></trkpt><trkpt lat="33.4266167" lon="-7.8465"><ele>121.0</ele><time>2026-04-26T17:19:44.381Z</time></trkpt><trkpt lat="33.426665" lon="-7.846355"><ele>120.5</ele><time>2026-04-26T17:19:45.38Z</time></trkpt><trkpt lat="33.4267133" lon="-7.84621"><ele>120.0</ele><time>2026-04-26T17:19:46.38Z</time></trkpt><trkpt lat="33.4267633" lon="-7.846065"><ele>120.75</ele><time>2026-04-26T17:19:47.38Z</time></trkpt><trkpt lat="33.42681" lon="-7.84591"><ele>121.5</ele><time>2026-04-26T17:19:48.38Z</time></trkpt><trkpt lat="33.4268583" lon="-7.8457533"><ele>122.25</ele><time>2026-04-26T17:19:49.38Z</time></trkpt><trkpt lat="33.4269067" lon="-7.845595"><ele>123.0</ele><time>2026-04-26T17:19:50.38Z</time></trkpt><trkpt lat="33.4269583" lon="-7.8454333"><ele>123.0</ele><time>2026-04-26T17:19:51.38Z</time></trkpt><trkpt lat="33.427005" lon="-7.8452717"><ele>123.0</ele><time>2026-04-26T17:19:52.38Z</time></trkpt><trkpt lat="33.42705" lon="-7.8451067"><ele>123.0</ele><time>2026-04-26T17:19:53.38Z</time></trkpt><trkpt lat="33.4271" lon="-7.844945"><ele>123.0</ele><time>2026-04-26T17:19:54.38Z</time></trkpt><trkpt lat="33.4271517" lon="-7.84478"><ele>122.66666666666666</ele><time>2026-04-26T17:19:55.38Z</time></trkpt><trkpt lat="33.4272067" lon="-7.84461"><ele>122.33333333333333</ele><time>2026-04-26T17:19:56.38Z</time></trkpt><trkpt lat="33.42726" lon="-7.8444383"><ele>122.0</ele><time>2026-04-26T17:19:57.38Z</time></trkpt><trkpt lat="33.4273183" lon="-7.844265"><ele>122.0</ele><time>2026-04-26T17:19:58.38Z</time></trkpt><trkpt lat="33.427375" lon="-7.8440867"><ele>122.0</ele><time>2026-04-26T17:19:59.38Z</time></trkpt><trkpt lat="33.4274333" lon="-7.8439083"><ele>122.0</ele><time>2026-04-26T17:20:00.38Z</time></trkpt><trkpt lat="33.4274917" lon="-7.84373"><ele>122.0</ele><time>2026-04-26T17:20:01.381Z</time></trkpt><trkpt lat="33.427545" lon="-7.84356"><ele>122.0</ele><time>2026-04-26T17:20:02.38Z</time></trkpt><trkpt lat="33.4276033" lon="-7.8433983"><ele>122.0</ele><time>2026-04-26T17:20:03.38Z</time></trkpt><trkpt lat="33.42766" lon="-7.8432383"><ele>122.0</ele><time>2026-04-26T17:20:04.38Z</time></trkpt><trkpt lat="33.4277167" lon="-7.8430783"><ele>121.75</ele><time>2026-04-26T17:20:05.38Z</time></trkpt><trkpt lat="33.427765" lon="-7.8429167"><ele>121.5</ele><time>2026-04-26T17:20:06.381Z</time></trkpt><trkpt lat="33.427815" lon="-7.8427533"><ele>121.25</ele><time>2026-04-26T17:20:07.38Z</time></trkpt><trkpt lat="33.4278617" lon="-7.84259"><ele>121.0</ele><time>2026-04-26T17:20:08.38Z</time></trkpt><trkpt lat="33.4279" lon="-7.84242"><ele>121.0</ele><time>2026-04-26T17:20:09.38Z</time></trkpt><trkpt lat="33.4279367" lon="-7.8422683"><ele>121.0</ele><time>2026-04-26T17:20:10.381Z</time></trkpt><trkpt lat="33.4279817" lon="-7.8421183"><ele>121.0</ele><time>2026-04-26T17:20:11.38Z</time></trkpt><trkpt lat="33.42803" lon="-7.841985"><ele>121.0</ele><time>2026-04-26T17:20:12.38Z</time></trkpt><trkpt lat="33.4280717" lon="-7.8418567"><ele>120.8</ele><time>2026-04-26T17:20:13.38Z</time></trkpt><trkpt lat="33.4280967" lon="-7.8417433"><ele>120.6</ele><time>2026-04-26T17:20:14.38Z</time></trkpt><trkpt lat="33.4281183" lon="-7.84166"><ele>120.4</ele><time>2026-04-26T17:20:15.38Z</time></trkpt><trkpt lat="33.4281433" lon="-7.8415433"><ele>120.2</ele><time>2026-04-26T17:20:17.38Z</time></trkpt><trkpt lat="33.4281433" lon="-7.8414517"><ele>120.0</ele><time>2026-04-26T17:20:19.38Z</time></trkpt><trkpt lat="33.4281567" lon="-7.8413067"><ele>120.0</ele><time>2026-04-26T17:20:21.381Z</time></trkpt><trkpt lat="33.4281917" lon="-7.841235"><ele>120.0</ele><time>2026-04-26T17:20:22.38Z</time></trkpt><trkpt lat="33.428245" lon="-7.8411633"><ele>120.0</ele><time>2026-04-26T17:20:23.38Z</time></trkpt><trkpt lat="33.4282967" lon="-7.84109"><ele>120.0</ele><time>2026-04-26T17:20:24.38Z</time></trkpt><trkpt lat="33.42833" lon="-7.8410033"><ele>120.0</ele><time>2026-04-26T17:20:25.38Z</time></trkpt><trkpt lat="33.428365" lon="-7.84091"><ele>120.0</ele><time>2026-04-26T17:20:26.38Z</time></trkpt><trkpt lat="33.42839" lon="-7.84081"><ele>119.6</ele><time>2026-04-26T17:20:27.381Z</time></trkpt><trkpt lat="33.4284117" lon="-7.8407067"><ele>119.2</ele><time>2026-04-26T17:20:28.38Z</time></trkpt><trkpt lat="33.4284367" lon="-7.8405883"><ele>118.80000000000001</ele><time>2026-04-26T17:20:29.38Z</time></trkpt><trkpt lat="33.42847" lon="-7.84047"><ele>118.4</ele><time>2026-04-26T17:20:30.38Z</time></trkpt><trkpt lat="33.428505" lon="-7.840355"><ele>118.0</ele><time>2026-04-26T17:20:31.381Z</time></trkpt><trkpt lat="33.42854" lon="-7.8402483"><ele>118.0</ele><time>2026-04-26T17:20:32.38Z</time></trkpt><trkpt lat="33.4285767" lon="-7.84014"><ele>118.00000000000001</ele><time>2026-04-26T17:20:33.38Z</time></trkpt><trkpt lat="33.428615" lon="-7.84003"><ele>118.00000000000001</ele><time>2026-04-26T17:20:34.38Z</time></trkpt><trkpt lat="33.42865" lon="-7.83991"><ele>118.0</ele><time>2026-04-26T17:20:35.381Z</time></trkpt><trkpt lat="33.4286917" lon="-7.8397883"><ele>118.0</ele><time>2026-04-26T17:20:36.38Z</time></trkpt><trkpt lat="33.428735" lon="-7.8396567"><ele>117.75</ele><time>2026-04-26T17:20:37.38Z</time></trkpt><trkpt lat="33.4287833" lon="-7.839525"><ele>117.5</ele><time>2026-04-26T17:20:38.38Z</time></trkpt><trkpt lat="33.4288333" lon="-7.83939"><ele>117.25</ele><time>2026-04-26T17:20:39.38Z</time></trkpt><trkpt lat="33.428885" lon="-7.8392517"><ele>117.0</ele><time>2026-04-26T17:20:40.38Z</time></trkpt><trkpt lat="33.428935" lon="-7.83913"><ele>116.8</ele><time>2026-04-26T17:20:41.38Z</time></trkpt><trkpt lat="33.428985" lon="-7.8390167"><ele>116.6</ele><time>2026-04-26T17:20:42.38Z</time></trkpt><trkpt lat="33.42903" lon="-7.838915"><ele>116.39999999999999</ele><time>2026-04-26T17:20:43.38Z</time></trkpt><trkpt lat="33.4290717" lon="-7.8388217"><ele>116.19999999999999</ele><time>2026-04-26T17:20:44.38Z</time></trkpt><trkpt lat="33.4291067" lon="-7.8387333"><ele>116.0</ele><time>2026-04-26T17:20:45.38Z</time></trkpt><trkpt lat="33.4291433" lon="-7.8386517"><ele>115.99999999999999</ele><time>2026-04-26T17:20:46.38Z</time></trkpt><trkpt lat="33.429175" lon="-7.838575"><ele>116.0</ele><time>2026-04-26T17:20:47.38Z</time></trkpt><trkpt lat="33.4292083" lon="-7.8385017"><ele>116.0</ele><time>2026-04-26T17:20:48.38Z</time></trkpt><trkpt lat="33.4292383" lon="-7.8384333"><ele>116.0</ele><time>2026-04-26T17:20:49.38Z</time></trkpt><trkpt lat="33.42929" lon="-7.8383083"><ele>115.99999999999999</ele><time>2026-04-26T17:20:51.38Z</time></trkpt><trkpt lat="33.4293467" lon="-7.8382"><ele>116.0</ele><time>2026-04-26T17:20:53.38Z</time></trkpt><trkpt lat="33.4293783" lon="-7.8381183"><ele>116.0</ele><time>2026-04-26T17:20:56.38Z</time></trkpt><trkpt lat="33.4293933" lon="-7.8380317"><ele>116.0</ele><time>2026-04-26T17:20:58.38Z</time></trkpt><trkpt lat="33.4294433" lon="-7.8379283"><ele>116.0</ele><time>2026-04-26T17:21:00.38Z</time></trkpt><trkpt lat="33.42955" lon="-7.8378217"><ele>116.0</ele><time>2026-04-26T17:21:02.38Z</time></trkpt><trkpt lat="33.4296117" lon="-7.8377617"><ele>116.0</ele><time>2026-04-26T17:21:03.38Z</time></trkpt><trkpt lat="33.42967" lon="-7.8377067"><ele>116.0</ele><time>2026-04-26T17:21:04.38Z</time></trkpt><trkpt lat="33.4297483" lon="-7.8376183"><ele>116.0</ele><time>2026-04-26T17:21:06.38Z</time></trkpt><trkpt lat="33.42982" lon="-7.83752"><ele>116.0</ele><time>2026-04-26T17:21:09.38Z</time></trkpt><trkpt lat="33.4298633" lon="-7.8374633"><ele>116.0</ele><time>2026-04-26T17:21:11.38Z</time></trkpt><trkpt lat="33.42992" lon="-7.83738"><ele>116.0</ele><time>2026-04-26T17:21:15.38Z</time></trkpt><trkpt lat="33.42997" lon="-7.83728"><ele>116.0</ele><time>2026-04-26T17:21:17.38Z</time></trkpt><trkpt lat="33.4300067" lon="-7.837205"><ele>116.0</ele><time>2026-04-26T17:21:18.38Z</time></trkpt><trkpt lat="33.43005" lon="-7.83711"><ele>116.0</ele><time>2026-04-26T17:21:19.38Z</time></trkpt><trkpt lat="33.4301117" lon="-7.837005"><ele>116.0</ele><time>2026-04-26T17:21:20.38Z</time></trkpt><trkpt lat="33.4301833" lon="-7.8368733"><ele>116.0</ele><time>2026-04-26T17:21:21.38Z</time></trkpt><trkpt lat="33.4302567" lon="-7.83674"><ele>116.5</ele><time>2026-04-26T17:21:22.38Z</time></trkpt><trkpt lat="33.4303283" lon="-7.8365983"><ele>117.0</ele><time>2026-04-26T17:21:23.38Z</time></trkpt><trkpt lat="33.430405" lon="-7.83646"><ele>117.5</ele><time>2026-04-26T17:21:24.38Z</time></trkpt><trkpt lat="33.43048" lon="-7.8363267"><ele>118.0</ele><time>2026-04-26T17:21:25.38Z</time></trkpt><trkpt lat="33.43056" lon="-7.8361967"><ele>118.0</ele><time>2026-04-26T17:21:26.38Z</time></trkpt><trkpt lat="33.4306383" lon="-7.8360667"><ele>118.0</ele><time>2026-04-26T17:21:27.38Z</time></trkpt><trkpt lat="33.430715" lon="-7.835935"><ele>118.0</ele><time>2026-04-26T17:21:28.38Z</time></trkpt><trkpt lat="33.43079" lon="-7.8358017"><ele>118.0</ele><time>2026-04-26T17:21:29.38Z</time></trkpt><trkpt lat="33.4308733" lon="-7.8356667"><ele>117.75</ele><time>2026-04-26T17:21:30.38Z</time></trkpt><trkpt lat="33.4309533" lon="-7.83553"><ele>117.5</ele><time>2026-04-26T17:21:31.38Z</time></trkpt><trkpt lat="33.4310367" lon="-7.8354017"><ele>117.25</ele><time>2026-04-26T17:21:32.38Z</time></trkpt><trkpt lat="33.4311133" lon="-7.835265"><ele>117.0</ele><time>2026-04-26T17:21:33.38Z</time></trkpt><trkpt lat="33.4311917" lon="-7.835125"><ele>117.0</ele><time>2026-04-26T17:21:34.38Z</time></trkpt><trkpt lat="33.4312617" lon="-7.8349867"><ele>117.0</ele><time>2026-04-26T17:21:35.38Z</time></trkpt><trkpt lat="33.4313383" lon="-7.83485"><ele>117.0</ele><time>2026-04-26T17:21:36.38Z</time></trkpt><trkpt lat="33.4314217" lon="-7.8347167"><ele>117.0</ele><time>2026-04-26T17:21:37.38Z</time></trkpt><trkpt lat="33.4314983" lon="-7.83458"><ele>117.0</ele><time>2026-04-26T17:21:38.38Z</time></trkpt><trkpt lat="33.4315783" lon="-7.8344467"><ele>117.0</ele><time>2026-04-26T17:21:39.38Z</time></trkpt><trkpt lat="33.4316567" lon="-7.8343133"><ele>117.0</ele><time>2026-04-26T17:21:40.38Z</time></trkpt><trkpt lat="33.43173" lon="-7.834175"><ele>117.0</ele><time>2026-04-26T17:21:41.38Z</time></trkpt><trkpt lat="33.4318033" lon="-7.834045"><ele>116.25</ele><time>2026-04-26T17:21:42.38Z</time></trkpt><trkpt lat="33.43188" lon="-7.8339133"><ele>115.5</ele><time>2026-04-26T17:21:43.38Z</time></trkpt><trkpt lat="33.4319617" lon="-7.83378"><ele>114.75</ele><time>2026-04-26T17:21:44.38Z</time></trkpt><trkpt lat="33.4320417" lon="-7.8336533"><ele>114.0</ele><time>2026-04-26T17:21:45.38Z</time></trkpt><trkpt lat="33.4321167" lon="-7.8335133"><ele>113.0</ele><time>2026-04-26T17:21:46.38Z</time></trkpt><trkpt lat="33.43219" lon="-7.8333633"><ele>112.0</ele><time>2026-04-26T17:21:47.38Z</time></trkpt><trkpt lat="33.43226" lon="-7.8332183"><ele>111.0</ele><time>2026-04-26T17:21:48.38Z</time></trkpt><trkpt lat="33.432335" lon="-7.833085"><ele>110.0</ele><time>2026-04-26T17:21:49.38Z</time></trkpt><trkpt lat="33.4324083" lon="-7.8329483"><ele>110.0</ele><time>2026-04-26T17:21:50.38Z</time></trkpt><trkpt lat="33.432485" lon="-7.83282"><ele>110.0</ele><time>2026-04-26T17:21:51.38Z</time></trkpt><trkpt lat="33.4325617" lon="-7.8327017"><ele>110.0</ele><time>2026-04-26T17:21:52.38Z</time></trkpt><trkpt lat="33.4326367" lon="-7.8325967"><ele>110.0</ele><time>2026-04-26T17:21:53.38Z</time></trkpt><trkpt lat="33.4327067" lon="-7.832485"><ele>110.75</ele><time>2026-04-26T17:21:54.38Z</time></trkpt><trkpt lat="33.4327667" lon="-7.8323867"><ele>111.5</ele><time>2026-04-26T17:21:55.38Z</time></trkpt><trkpt lat="33.4328333" lon="-7.832285"><ele>112.25</ele><time>2026-04-26T17:21:56.38Z</time></trkpt><trkpt lat="33.43291" lon="-7.83217"><ele>113.0</ele><time>2026-04-26T17:21:57.38Z</time></trkpt><trkpt lat="33.4329917" lon="-7.83203"><ele>113.0</ele><time>2026-04-26T17:21:58.381Z</time></trkpt><trkpt lat="33.4330633" lon="-7.8318917"><ele>113.0</ele><time>2026-04-26T17:21:59.38Z</time></trkpt><trkpt lat="33.4331267" lon="-7.831765"><ele>113.0</ele><time>2026-04-26T17:22:00.38Z</time></trkpt><trkpt lat="33.4331967" lon="-7.8316367"><ele>113.0</ele><time>2026-04-26T17:22:01.38Z</time></trkpt><trkpt lat="33.433275" lon="-7.8314933"><ele>113.25</ele><time>2026-04-26T17:22:02.38Z</time></trkpt><trkpt lat="33.4333583" lon="-7.8313467"><ele>113.5</ele><time>2026-04-26T17:22:03.38Z</time></trkpt><trkpt lat="33.4334433" lon="-7.8312133"><ele>113.75</ele><time>2026-04-26T17:22:04.38Z</time></trkpt><trkpt lat="33.4335133" lon="-7.83109"><ele>114.0</ele><time>2026-04-26T17:22:05.38Z</time></trkpt><trkpt lat="33.43358" lon="-7.83098"><ele>114.0</ele><time>2026-04-26T17:22:06.38Z</time></trkpt><trkpt lat="33.4336483" lon="-7.83089"><ele>114.0</ele><time>2026-04-26T17:22:07.38Z</time></trkpt><trkpt lat="33.433705" lon="-7.8307983"><ele>114.0</ele><time>2026-04-26T17:22:08.38Z</time></trkpt><trkpt lat="33.4337617" lon="-7.830715"><ele>114.0</ele><time>2026-04-26T17:22:09.381Z</time></trkpt><trkpt lat="33.4338167" lon="-7.8306217"><ele>114.0</ele><time>2026-04-26T17:22:10.38Z</time></trkpt><trkpt lat="33.4338717" lon="-7.830535"><ele>113.2</ele><time>2026-04-26T17:22:11.38Z</time></trkpt><trkpt lat="33.4339333" lon="-7.8304533"><ele>112.4</ele><time>2026-04-26T17:22:12.38Z</time></trkpt><trkpt lat="33.4339967" lon="-7.8303717"><ele>111.6</ele><time>2026-04-26T17:22:13.38Z</time></trkpt><trkpt lat="33.4340617" lon="-7.8302817"><ele>110.8</ele><time>2026-04-26T17:22:14.38Z</time></trkpt><trkpt lat="33.434135" lon="-7.8301833"><ele>110.0</ele><time>2026-04-26T17:22:15.38Z</time></trkpt><trkpt lat="33.4342067" lon="-7.8300767"><ele>109.5</ele><time>2026-04-26T17:22:16.38Z</time></trkpt><trkpt lat="33.4342833" lon="-7.8299667"><ele>109.0</ele><time>2026-04-26T17:22:17.38Z</time></trkpt><trkpt lat="33.43436" lon="-7.8298517"><ele>108.5</ele><time>2026-04-26T17:22:18.38Z</time></trkpt><trkpt lat="33.434435" lon="-7.8297333"><ele>108.0</ele><time>2026-04-26T17:22:19.38Z</time></trkpt><trkpt lat="33.4345083" lon="-7.8296117"><ele>108.0</ele><time>2026-04-26T17:22:20.381Z</time></trkpt><trkpt lat="33.4345833" lon="-7.82949"><ele>108.0</ele><time>2026-04-26T17:22:21.38Z</time></trkpt><trkpt lat="33.4346583" lon="-7.8293783"><ele>108.0</ele><time>2026-04-26T17:22:22.38Z</time></trkpt><trkpt lat="33.4347267" lon="-7.8292633"><ele>108.0</ele><time>2026-04-26T17:22:23.38Z</time></trkpt><trkpt lat="33.4348" lon="-7.82916"><ele>108.5</ele><time>2026-04-26T17:22:24.38Z</time></trkpt><trkpt lat="33.43487" lon="-7.8290417"><ele>109.0</ele><time>2026-04-26T17:22:25.38Z</time></trkpt><trkpt lat="33.4349417" lon="-7.828935"><ele>109.5</ele><time>2026-04-26T17:22:26.38Z</time></trkpt><trkpt lat="33.435015" lon="-7.8288333"><ele>110.0</ele><time>2026-04-26T17:22:27.38Z</time></trkpt><trkpt lat="33.4350833" lon="-7.8287367"><ele>110.0</ele><time>2026-04-26T17:22:28.38Z</time></trkpt><trkpt lat="33.4351483" lon="-7.8286467"><ele>110.0</ele><time>2026-04-26T17:22:29.38Z</time></trkpt><trkpt lat="33.4352167" lon="-7.8285617"><ele>110.0</ele><time>2026-04-26T17:22:30.38Z</time></trkpt><trkpt lat="33.4352767" lon="-7.8284717"><ele>110.0</ele><time>2026-04-26T17:22:31.38Z</time></trkpt><trkpt lat="33.4353383" lon="-7.8283833"><ele>110.0</ele><time>2026-04-26T17:22:32.38Z</time></trkpt><trkpt lat="33.4353967" lon="-7.8282967"><ele>109.99999999999999</ele><time>2026-04-26T17:22:33.38Z</time></trkpt><trkpt lat="33.4354533" lon="-7.8282133"><ele>110.0</ele><time>2026-04-26T17:22:34.38Z</time></trkpt><trkpt lat="33.4355083" lon="-7.8281317"><ele>110.0</ele><time>2026-04-26T17:22:35.381Z</time></trkpt><trkpt lat="33.4355583" lon="-7.828055"><ele>110.0</ele><time>2026-04-26T17:22:36.38Z</time></trkpt><trkpt lat="33.4356033" lon="-7.8279883"><ele>109.99999999999999</ele><time>2026-04-26T17:22:37.38Z</time></trkpt><trkpt lat="33.4356733" lon="-7.8278867"><ele>110.0</ele><time>2026-04-26T17:22:39.38Z</time></trkpt><trkpt lat="33.4357233" lon="-7.82781"><ele>110.16666666666666</ele><time>2026-04-26T17:22:41.38Z</time></trkpt><trkpt lat="33.435765" lon="-7.82774"><ele>110.33333333333333</ele><time>2026-04-26T17:22:43.38Z</time></trkpt><trkpt lat="33.4358083" lon="-7.827675"><ele>110.5</ele><time>2026-04-26T17:22:45.38Z</time></trkpt><trkpt lat="33.4358567" lon="-7.827595"><ele>110.66666666666666</ele><time>2026-04-26T17:22:47.38Z</time></trkpt><trkpt lat="33.4358883" lon="-7.8274917"><ele>110.83333333333333</ele><time>2026-04-26T17:22:49.38Z</time></trkpt><trkpt lat="33.435915" lon="-7.8273683"><ele>111.0</ele><time>2026-04-26T17:22:51.38Z</time></trkpt><trkpt lat="33.4359883" lon="-7.8272383"><ele>111.0</ele><time>2026-04-26T17:22:53.38Z</time></trkpt><trkpt lat="33.436055" lon="-7.8271967"><ele>111.0</ele><time>2026-04-26T17:22:54.38Z</time></trkpt><trkpt lat="33.4361283" lon="-7.8271467"><ele>111.0</ele><time>2026-04-26T17:22:55.38Z</time></trkpt><trkpt lat="33.4362067" lon="-7.8270933"><ele>111.0</ele><time>2026-04-26T17:22:56.38Z</time></trkpt><trkpt lat="33.4362767" lon="-7.82703"><ele>111.0</ele><time>2026-04-26T17:22:57.38Z</time></trkpt><trkpt lat="33.4363433" lon="-7.8269533"><ele>111.0</ele><time>2026-04-26T17:22:58.38Z</time></trkpt><trkpt lat="33.4364133" lon="-7.8268683"><ele>111.0</ele><time>2026-04-26T17:22:59.38Z</time></trkpt><trkpt lat="33.4364933" lon="-7.8267683"><ele>111.0</ele><time>2026-04-26T17:23:00.38Z</time></trkpt><trkpt lat="33.436575" lon="-7.8266683"><ele>111.0</ele><time>2026-04-26T17:23:01.38Z</time></trkpt><trkpt lat="33.4366517" lon="-7.8265683"><ele>111.0</ele><time>2026-04-26T17:23:02.38Z</time></trkpt><trkpt lat="33.436725" lon="-7.8264767"><ele>111.0</ele><time>2026-04-26T17:23:03.381Z</time></trkpt><trkpt lat="33.436795" lon="-7.826385"><ele>111.0</ele><time>2026-04-26T17:23:04.38Z</time></trkpt><trkpt lat="33.4368517" lon="-7.8262933"><ele>111.0</ele><time>2026-04-26T17:23:05.38Z</time></trkpt><trkpt lat="33.4369117" lon="-7.826195"><ele>111.0</ele><time>2026-04-26T17:23:06.381Z</time></trkpt><trkpt lat="33.4369733" lon="-7.8261"><ele>111.0</ele><time>2026-04-26T17:23:07.38Z</time></trkpt><trkpt lat="33.4370383" lon="-7.826015"><ele>111.19999999999999</ele><time>2026-04-26T17:23:08.38Z</time></trkpt><trkpt lat="33.437105" lon="-7.825925"><ele>111.39999999999999</ele><time>2026-04-26T17:23:09.38Z</time></trkpt><trkpt lat="33.4371733" lon="-7.8258333"><ele>111.6</ele><time>2026-04-26T17:23:10.38Z</time></trkpt><trkpt lat="33.437245" lon="-7.825735"><ele>111.8</ele><time>2026-04-26T17:23:11.38Z</time></trkpt><trkpt lat="33.4373183" lon="-7.825625"><ele>112.0</ele><time>2026-04-26T17:23:12.38Z</time></trkpt><trkpt lat="33.4374" lon="-7.8255133"><ele>112.0</ele><time>2026-04-26T17:23:13.38Z</time></trkpt><trkpt lat="33.4374933" lon="-7.8253917"><ele>112.0</ele><time>2026-04-26T17:23:14.38Z</time></trkpt><trkpt lat="33.4375833" lon="-7.82527"><ele>112.0</ele><time>2026-04-26T17:23:15.38Z</time></trkpt><trkpt lat="33.437675" lon="-7.8251467"><ele>112.0</ele><time>2026-04-26T17:23:16.38Z</time></trkpt><trkpt lat="33.43776" lon="-7.8250267"><ele>112.25</ele><time>2026-04-26T17:23:17.38Z</time></trkpt><trkpt lat="33.4378417" lon="-7.8249083"><ele>112.5</ele><time>2026-04-26T17:23:18.38Z</time></trkpt><trkpt lat="33.4379233" lon="-7.8247833"><ele>112.75</ele><time>2026-04-26T17:23:19.38Z</time></trkpt><trkpt lat="33.4380117" lon="-7.8246533"><ele>113.0</ele><time>2026-04-26T17:23:20.38Z</time></trkpt><trkpt lat="33.4380983" lon="-7.824515"><ele>113.0</ele><time>2026-04-26T17:23:21.38Z</time></trkpt><trkpt lat="33.4381983" lon="-7.824375"><ele>113.0</ele><time>2026-04-26T17:23:22.38Z</time></trkpt><trkpt lat="33.4383183" lon="-7.8242317"><ele>113.0</ele><time>2026-04-26T17:23:23.38Z</time></trkpt><trkpt lat="33.4384633" lon="-7.824065"><ele>112.66666666666666</ele><time>2026-04-26T17:23:24.38Z</time></trkpt><trkpt lat="33.43861" lon="-7.82387"><ele>112.33333333333334</ele><time>2026-04-26T17:23:25.38Z</time></trkpt><trkpt lat="33.4387467" lon="-7.8236683"><ele>112.0</ele><time>2026-04-26T17:23:26.38Z</time></trkpt><trkpt lat="33.4388633" lon="-7.8234717"><ele>112.0</ele><time>2026-04-26T17:23:27.38Z</time></trkpt><trkpt lat="33.4389783" lon="-7.8232867"><ele>112.0</ele><time>2026-04-26T17:23:28.38Z</time></trkpt><trkpt lat="33.4390983" lon="-7.8231167"><ele>112.0</ele><time>2026-04-26T17:23:29.38Z</time></trkpt><trkpt lat="33.439215" lon="-7.8229533"><ele>112.0</ele><time>2026-04-26T17:23:30.38Z</time></trkpt><trkpt lat="33.439345" lon="-7.8228117"><ele>112.0</ele><time>2026-04-26T17:23:31.38Z</time></trkpt><trkpt lat="33.43948" lon="-7.822675"><ele>112.0</ele><time>2026-04-26T17:23:32.38Z</time></trkpt><trkpt lat="33.4396233" lon="-7.8225467"><ele>111.33333333333334</ele><time>2026-04-26T17:23:33.38Z</time></trkpt><trkpt lat="33.4397733" lon="-7.8224267"><ele>110.66666666666666</ele><time>2026-04-26T17:23:34.38Z</time></trkpt><trkpt lat="33.4399333" lon="-7.8223183"><ele>110.0</ele><time>2026-04-26T17:23:35.38Z</time></trkpt><trkpt lat="33.44009" lon="-7.822225"><ele>110.0</ele><time>2026-04-26T17:23:36.38Z</time></trkpt><trkpt lat="33.4402467" lon="-7.8221433"><ele>110.0</ele><time>2026-04-26T17:23:37.38Z</time></trkpt><trkpt lat="33.440405" lon="-7.8220783"><ele>110.0</ele><time>2026-04-26T17:23:38.38Z</time></trkpt><trkpt lat="33.4405517" lon="-7.8220133"><ele>111.0</ele><time>2026-04-26T17:23:39.38Z</time></trkpt><trkpt lat="33.4407117" lon="-7.821955"><ele>112.0</ele><time>2026-04-26T17:23:40.38Z</time></trkpt><trkpt lat="33.4409117" lon="-7.8219067"><ele>113.0</ele><time>2026-04-26T17:23:41.38Z</time></trkpt><trkpt lat="33.4411433" lon="-7.8218717"><ele>112.5</ele><time>2026-04-26T17:23:42.38Z</time></trkpt><trkpt lat="33.441385" lon="-7.8218317"><ele>112.0</ele><time>2026-04-26T17:23:43.38Z</time></trkpt><trkpt lat="33.44161" lon="-7.821785"><ele>111.33333333333334</ele><time>2026-04-26T17:23:44.38Z</time></trkpt><trkpt lat="33.4418183" lon="-7.8217333"><ele>110.66666666666666</ele><time>2026-04-26T17:23:45.38Z</time></trkpt><trkpt lat="33.4420183" lon="-7.821685"><ele>110.0</ele><time>2026-04-26T17:23:46.38Z</time></trkpt><trkpt lat="33.4422083" lon="-7.8216483"><ele>109.0</ele><time>2026-04-26T17:23:47.38Z</time></trkpt><trkpt lat="33.4423967" lon="-7.8216067"><ele>108.0</ele><time>2026-04-26T17:23:48.38Z</time></trkpt><trkpt lat="33.442585" lon="-7.8215583"><ele>107.0</ele><time>2026-04-26T17:23:49.38Z</time></trkpt><trkpt lat="33.4427717" lon="-7.821495"><ele>107.0</ele><time>2026-04-26T17:23:50.38Z</time></trkpt><trkpt lat="33.4429617" lon="-7.8214183"><ele>107.0</ele><time>2026-04-26T17:23:51.38Z</time></trkpt><trkpt lat="33.44314" lon="-7.82134"><ele>107.0</ele><time>2026-04-26T17:23:52.38Z</time></trkpt><trkpt lat="33.443305" lon="-7.8212483"><ele>106.66666666666666</ele><time>2026-04-26T17:23:53.38Z</time></trkpt><trkpt lat="33.4434683" lon="-7.821155"><ele>106.33333333333334</ele><time>2026-04-26T17:23:54.38Z</time></trkpt><trkpt lat="33.44363" lon="-7.8210583"><ele>106.0</ele><time>2026-04-26T17:23:55.38Z</time></trkpt><trkpt lat="33.4437967" lon="-7.8209583"><ele>105.66666666666667</ele><time>2026-04-26T17:23:56.38Z</time></trkpt><trkpt lat="33.4439617" lon="-7.8208517"><ele>105.33333333333334</ele><time>2026-04-26T17:23:57.38Z</time></trkpt><trkpt lat="33.4441217" lon="-7.8207367"><ele>105.0</ele><time>2026-04-26T17:23:58.381Z</time></trkpt><trkpt lat="33.4442867" lon="-7.8206217"><ele>105.0</ele><time>2026-04-26T17:23:59.38Z</time></trkpt><trkpt lat="33.444455" lon="-7.8205167"><ele>105.0</ele><time>2026-04-26T17:24:00.38Z</time></trkpt><trkpt lat="33.444615" lon="-7.8204"><ele>105.0</ele><time>2026-04-26T17:24:01.38Z</time></trkpt><trkpt lat="33.44478" lon="-7.82028"><ele>104.66666666666666</ele><time>2026-04-26T17:24:02.379Z</time></trkpt><trkpt lat="33.4449417" lon="-7.8201667"><ele>104.33333333333333</ele><time>2026-04-26T17:24:03.379Z</time></trkpt><trkpt lat="33.4451033" lon="-7.8200483"><ele>104.0</ele><time>2026-04-26T17:24:04.379Z</time></trkpt><trkpt lat="33.44526" lon="-7.8199367"><ele>104.0</ele><time>2026-04-26T17:24:05.379Z</time></trkpt><trkpt lat="33.4454083" lon="-7.8198217"><ele>104.0</ele><time>2026-04-26T17:24:06.379Z</time></trkpt><trkpt lat="33.4455517" lon="-7.8197017"><ele>104.0</ele><time>2026-04-26T17:24:07.379Z</time></trkpt><trkpt lat="33.445695" lon="-7.8195833"><ele>104.33333333333333</ele><time>2026-04-26T17:24:08.379Z</time></trkpt><trkpt lat="33.4458317" lon="-7.8194517"><ele>104.66666666666666</ele><time>2026-04-26T17:24:09.379Z</time></trkpt><trkpt lat="33.4459683" lon="-7.8193233"><ele>105.0</ele><time>2026-04-26T17:24:10.379Z</time></trkpt><trkpt lat="33.4461033" lon="-7.8191983"><ele>105.0</ele><time>2026-04-26T17:24:11.379Z</time></trkpt><trkpt lat="33.4462333" lon="-7.8190817"><ele>105.0</ele><time>2026-04-26T17:24:12.379Z</time></trkpt><trkpt lat="33.4463583" lon="-7.8189667"><ele>105.0</ele><time>2026-04-26T17:24:13.379Z</time></trkpt><trkpt lat="33.4464817" lon="-7.81885"><ele>104.33333333333334</ele><time>2026-04-26T17:24:14.379Z</time></trkpt><trkpt lat="33.446615" lon="-7.8187333"><ele>103.66666666666667</ele><time>2026-04-26T17:24:15.379Z</time></trkpt><trkpt lat="33.446745" lon="-7.8186117"><ele>103.0</ele><time>2026-04-26T17:24:16.379Z</time></trkpt><trkpt lat="33.44687" lon="-7.8184983"><ele>103.25</ele><time>2026-04-26T17:24:17.379Z</time></trkpt><trkpt lat="33.446985" lon="-7.8183883"><ele>103.5</ele><time>2026-04-26T17:24:18.379Z</time></trkpt><trkpt lat="33.4471017" lon="-7.8182867"><ele>103.75</ele><time>2026-04-26T17:24:19.379Z</time></trkpt><trkpt lat="33.4472133" lon="-7.818185"><ele>104.0</ele><time>2026-04-26T17:24:20.379Z</time></trkpt><trkpt lat="33.447315" lon="-7.81808"><ele>104.0</ele><time>2026-04-26T17:24:21.379Z</time></trkpt><trkpt lat="33.447415" lon="-7.8179833"><ele>104.0</ele><time>2026-04-26T17:24:22.379Z</time></trkpt><trkpt lat="33.447515" lon="-7.8178933"><ele>104.0</ele><time>2026-04-26T17:24:23.379Z</time></trkpt><trkpt lat="33.447615" lon="-7.817795"><ele>104.0</ele><time>2026-04-26T17:24:24.379Z</time></trkpt><trkpt lat="33.4477183" lon="-7.8177017"><ele>104.5</ele><time>2026-04-26T17:24:25.379Z</time></trkpt><trkpt lat="33.44783" lon="-7.8176083"><ele>105.0</ele><time>2026-04-26T17:24:26.38Z</time></trkpt><trkpt lat="33.4479333" lon="-7.81751"><ele>105.5</ele><time>2026-04-26T17:24:27.379Z</time></trkpt><trkpt lat="33.4480367" lon="-7.81741"><ele>106.0</ele><time>2026-04-26T17:24:28.379Z</time></trkpt><trkpt lat="33.4481367" lon="-7.8173167"><ele>104.5</ele><time>2026-04-26T17:24:29.379Z</time></trkpt><trkpt lat="33.4482383" lon="-7.8172233"><ele>103.0</ele><time>2026-04-26T17:24:30.379Z</time></trkpt><trkpt lat="33.44834" lon="-7.8171283"><ele>101.5</ele><time>2026-04-26T17:24:31.379Z</time></trkpt><trkpt lat="33.4484417" lon="-7.8170333"><ele>100.0</ele><time>2026-04-26T17:24:32.379Z</time></trkpt><trkpt lat="33.4485467" lon="-7.8169333"><ele>100.0</ele><time>2026-04-26T17:24:33.38Z</time></trkpt><trkpt lat="33.4486567" lon="-7.8168367"><ele>100.0</ele><time>2026-04-26T17:24:34.379Z</time></trkpt><trkpt lat="33.448765" lon="-7.816735"><ele>100.0</ele><time>2026-04-26T17:24:35.379Z</time></trkpt><trkpt lat="33.44887" lon="-7.8166283"><ele>100.0</ele><time>2026-04-26T17:24:36.379Z</time></trkpt><trkpt lat="33.4489817" lon="-7.81652"><ele>100.0</ele><time>2026-04-26T17:24:37.379Z</time></trkpt><trkpt lat="33.44909" lon="-7.81641"><ele>100.0</ele><time>2026-04-26T17:24:38.379Z</time></trkpt><trkpt lat="33.4491967" lon="-7.81631"><ele>100.0</ele><time>2026-04-26T17:24:39.379Z</time></trkpt><trkpt lat="33.4492983" lon="-7.8162033"><ele>100.0</ele><time>2026-04-26T17:24:40.379Z</time></trkpt><trkpt lat="33.449395" lon="-7.8160967"><ele>100.0</ele><time>2026-04-26T17:24:41.379Z</time></trkpt><trkpt lat="33.4494917" lon="-7.8159883"><ele>100.0</ele><time>2026-04-26T17:24:42.379Z</time></trkpt><trkpt lat="33.44959" lon="-7.8158817"><ele>100.0</ele><time>2026-04-26T17:24:43.379Z</time></trkpt><trkpt lat="33.449685" lon="-7.81577"><ele>100.0</ele><time>2026-04-26T17:24:44.379Z</time></trkpt><trkpt lat="33.449785" lon="-7.8156483"><ele>99.75</ele><time>2026-04-26T17:24:45.379Z</time></trkpt><trkpt lat="33.449885" lon="-7.81553"><ele>99.5</ele><time>2026-04-26T17:24:46.379Z</time></trkpt><trkpt lat="33.44998" lon="-7.8154117"><ele>99.25</ele><time>2026-04-26T17:24:47.379Z</time></trkpt><trkpt lat="33.4500683" lon="-7.81529"><ele>99.0</ele><time>2026-04-26T17:24:48.379Z</time></trkpt><trkpt lat="33.45015" lon="-7.8151583"><ele>99.0</ele><time>2026-04-26T17:24:49.379Z</time></trkpt><trkpt lat="33.4502267" lon="-7.8150267"><ele>99.0</ele><time>2026-04-26T17:24:50.379Z</time></trkpt><trkpt lat="33.4503" lon="-7.814895"><ele>99.0</ele><time>2026-04-26T17:24:51.379Z</time></trkpt><trkpt lat="33.4503717" lon="-7.8147633"><ele>99.0</ele><time>2026-04-26T17:24:52.379Z</time></trkpt><trkpt lat="33.450445" lon="-7.8146267"><ele>99.0</ele><time>2026-04-26T17:24:53.379Z</time></trkpt><trkpt lat="33.4505133" lon="-7.8144917"><ele>99.0</ele><time>2026-04-26T17:24:54.379Z</time></trkpt><trkpt lat="33.4505833" lon="-7.8143583"><ele>99.0</ele><time>2026-04-26T17:24:55.379Z</time></trkpt><trkpt lat="33.4506533" lon="-7.8142283"><ele>99.0</ele><time>2026-04-26T17:24:56.379Z</time></trkpt><trkpt lat="33.4507233" lon="-7.8141017"><ele>99.0</ele><time>2026-04-26T17:24:57.379Z</time></trkpt><trkpt lat="33.450795" lon="-7.8139717"><ele>99.0</ele><time>2026-04-26T17:24:58.379Z</time></trkpt><trkpt lat="33.450865" lon="-7.8138383"><ele>99.0</ele><time>2026-04-26T17:24:59.379Z</time></trkpt><trkpt lat="33.4509383" lon="-7.8137083"><ele>99.0</ele><time>2026-04-26T17:25:00.379Z</time></trkpt><trkpt lat="33.45101" lon="-7.81358"><ele>99.5</ele><time>2026-04-26T17:25:01.379Z</time></trkpt><trkpt lat="33.4510783" lon="-7.8134483"><ele>100.0</ele><time>2026-04-26T17:25:02.379Z</time></trkpt><trkpt lat="33.4511533" lon="-7.8133067"><ele>100.5</ele><time>2026-04-26T17:25:03.379Z</time></trkpt><trkpt lat="33.4512367" lon="-7.8131567"><ele>101.0</ele><time>2026-04-26T17:25:04.379Z</time></trkpt><trkpt lat="33.45134" lon="-7.8129867"><ele>101.0</ele><time>2026-04-26T17:25:05.379Z</time></trkpt><trkpt lat="33.45144" lon="-7.8128133"><ele>101.0</ele><time>2026-04-26T17:25:06.379Z</time></trkpt><trkpt lat="33.4515367" lon="-7.8126433"><ele>101.0</ele><time>2026-04-26T17:25:07.379Z</time></trkpt><trkpt lat="33.45163" lon="-7.8124783"><ele>101.0</ele><time>2026-04-26T17:25:08.38Z</time></trkpt><trkpt lat="33.4517317" lon="-7.812325"><ele>101.0</ele><time>2026-04-26T17:25:09.379Z</time></trkpt><trkpt lat="33.45184" lon="-7.8121783"><ele>101.0</ele><time>2026-04-26T17:25:10.379Z</time></trkpt><trkpt lat="33.4519533" lon="-7.812035"><ele>101.0</ele><time>2026-04-26T17:25:11.379Z</time></trkpt><trkpt lat="33.4520717" lon="-7.8119017"><ele>101.0</ele><time>2026-04-26T17:25:12.379Z</time></trkpt><trkpt lat="33.45219" lon="-7.8117733"><ele>101.0</ele><time>2026-04-26T17:25:13.379Z</time></trkpt><trkpt lat="33.4523033" lon="-7.81165"><ele>100.0</ele><time>2026-04-26T17:25:14.379Z</time></trkpt><trkpt lat="33.45242" lon="-7.8115317"><ele>99.0</ele><time>2026-04-26T17:25:15.379Z</time></trkpt><trkpt lat="33.4525433" lon="-7.81141"><ele>98.0</ele><time>2026-04-26T17:25:16.379Z</time></trkpt><trkpt lat="33.4526617" lon="-7.8112867"><ele>98.0</ele><time>2026-04-26T17:25:17.379Z</time></trkpt><trkpt lat="33.4527767" lon="-7.8111683"><ele>98.0</ele><time>2026-04-26T17:25:18.379Z</time></trkpt><trkpt lat="33.45289" lon="-7.8110517"><ele>98.0</ele><time>2026-04-26T17:25:19.379Z</time></trkpt><trkpt lat="33.453" lon="-7.8109433"><ele>98.0</ele><time>2026-04-26T17:25:20.379Z</time></trkpt><trkpt lat="33.453105" lon="-7.8108367"><ele>97.33333333333333</ele><time>2026-04-26T17:25:21.379Z</time></trkpt><trkpt lat="33.4532117" lon="-7.81073"><ele>96.66666666666666</ele><time>2026-04-26T17:25:22.379Z</time></trkpt><trkpt lat="33.4533467" lon="-7.810605"><ele>96.0</ele><time>2026-04-26T17:25:23.379Z</time></trkpt><trkpt lat="33.4534967" lon="-7.81046"><ele>96.0</ele><time>2026-04-26T17:25:24.379Z</time></trkpt><trkpt lat="33.4536633" lon="-7.810295"><ele>96.0</ele><time>2026-04-26T17:25:25.379Z</time></trkpt><trkpt lat="33.4538317" lon="-7.8101033"><ele>96.0</ele><time>2026-04-26T17:25:26.379Z</time></trkpt><trkpt lat="33.454005" lon="-7.8099083"><ele>95.5</ele><time>2026-04-26T17:25:27.379Z</time></trkpt><trkpt lat="33.4541733" lon="-7.8097217"><ele>95.0</ele><time>2026-04-26T17:25:28.379Z</time></trkpt><trkpt lat="33.45434" lon="-7.8095433"><ele>95.0</ele><time>2026-04-26T17:25:29.379Z</time></trkpt><trkpt lat="33.4545117" lon="-7.80936"><ele>95.0</ele><time>2026-04-26T17:25:30.379Z</time></trkpt><trkpt lat="33.454695" lon="-7.8091733"><ele>95.5</ele><time>2026-04-26T17:25:31.379Z</time></trkpt><trkpt lat="33.4548733" lon="-7.8089833"><ele>96.0</ele><time>2026-04-26T17:25:32.379Z</time></trkpt><trkpt lat="33.4550417" lon="-7.8088067"><ele>96.0</ele><time>2026-04-26T17:25:33.379Z</time></trkpt><trkpt lat="33.455195" lon="-7.8086383"><ele>96.0</ele><time>2026-04-26T17:25:34.379Z</time></trkpt><trkpt lat="33.4553533" lon="-7.80848"><ele>96.0</ele><time>2026-04-26T17:25:35.379Z</time></trkpt><trkpt lat="33.4555" lon="-7.8083317"><ele>96.33333333333334</ele><time>2026-04-26T17:25:36.379Z</time></trkpt><trkpt lat="33.455635" lon="-7.80819"><ele>96.66666666666667</ele><time>2026-04-26T17:25:37.379Z</time></trkpt><trkpt lat="33.45576" lon="-7.8080583"><ele>97.0</ele><time>2026-04-26T17:25:38.379Z</time></trkpt><trkpt lat="33.455885" lon="-7.8079317"><ele>97.0</ele><time>2026-04-26T17:25:39.379Z</time></trkpt><trkpt lat="33.4560017" lon="-7.8078133"><ele>97.0</ele><time>2026-04-26T17:25:40.379Z</time></trkpt><trkpt lat="33.456115" lon="-7.807705"><ele>97.0</ele><time>2026-04-26T17:25:41.379Z</time></trkpt><trkpt lat="33.4562267" lon="-7.8076017"><ele>97.0</ele><time>2026-04-26T17:25:42.379Z</time></trkpt><trkpt lat="33.4563367" lon="-7.8075017"><ele>96.75</ele><time>2026-04-26T17:25:43.379Z</time></trkpt><trkpt lat="33.4564483" lon="-7.8074033"><ele>96.5</ele><time>2026-04-26T17:25:44.379Z</time></trkpt><trkpt lat="33.4565633" lon="-7.807305"><ele>96.25</ele><time>2026-04-26T17:25:45.379Z</time></trkpt><trkpt lat="33.4566767" lon="-7.8072067"><ele>96.0</ele><time>2026-04-26T17:25:46.379Z</time></trkpt><trkpt lat="33.456785" lon="-7.8071067"><ele>96.0</ele><time>2026-04-26T17:25:47.379Z</time></trkpt><trkpt lat="33.456895" lon="-7.807015"><ele>96.0</ele><time>2026-04-26T17:25:48.379Z</time></trkpt><trkpt lat="33.4570033" lon="-7.8069233"><ele>96.0</ele><time>2026-04-26T17:25:49.379Z</time></trkpt><trkpt lat="33.4571067" lon="-7.8068367"><ele>96.0</ele><time>2026-04-26T17:25:50.379Z</time></trkpt><trkpt lat="33.457205" lon="-7.8067617"><ele>95.8</ele><time>2026-04-26T17:25:51.379Z</time></trkpt><trkpt lat="33.4572983" lon="-7.8066933"><ele>95.6</ele><time>2026-04-26T17:25:52.379Z</time></trkpt><trkpt lat="33.4573867" lon="-7.8066217"><ele>95.4</ele><time>2026-04-26T17:25:53.379Z</time></trkpt><trkpt lat="33.457475" lon="-7.8065533"><ele>95.2</ele><time>2026-04-26T17:25:54.379Z</time></trkpt><trkpt lat="33.4575533" lon="-7.8064817"><ele>95.0</ele><time>2026-04-26T17:25:55.379Z</time></trkpt><trkpt lat="33.457635" lon="-7.8064133"><ele>95.0</ele><time>2026-04-26T17:25:56.379Z</time></trkpt><trkpt lat="33.4577267" lon="-7.80634"><ele>95.0</ele><time>2026-04-26T17:25:57.379Z</time></trkpt><trkpt lat="33.457815" lon="-7.806265"><ele>95.0</ele><time>2026-04-26T17:25:58.379Z</time></trkpt><trkpt lat="33.45791" lon="-7.8061867"><ele>95.0</ele><time>2026-04-26T17:25:59.379Z</time></trkpt><trkpt lat="33.458005" lon="-7.8061017"><ele>95.0</ele><time>2026-04-26T17:26:00.379Z</time></trkpt><trkpt lat="33.4580967" lon="-7.806015"><ele>95.0</ele><time>2026-04-26T17:26:01.379Z</time></trkpt><trkpt lat="33.458185" lon="-7.80593"><ele>95.0</ele><time>2026-04-26T17:26:02.379Z</time></trkpt><trkpt lat="33.4582717" lon="-7.8058383"><ele>95.0</ele><time>2026-04-26T17:26:03.379Z</time></trkpt><trkpt lat="33.4583517" lon="-7.8057533"><ele>95.0</ele><time>2026-04-26T17:26:04.379Z</time></trkpt><trkpt lat="33.4584283" lon="-7.8056683"><ele>95.0</ele><time>2026-04-26T17:26:05.379Z</time></trkpt><trkpt lat="33.458505" lon="-7.8055767"><ele>95.0</ele><time>2026-04-26T17:26:06.379Z</time></trkpt><trkpt lat="33.4585817" lon="-7.8054817"><ele>95.0</ele><time>2026-04-26T17:26:07.379Z</time></trkpt><trkpt lat="33.4586583" lon="-7.8053833"><ele>95.0</ele><time>2026-04-26T17:26:08.38Z</time></trkpt><trkpt lat="33.4587333" lon="-7.8052733"><ele>94.5</ele><time>2026-04-26T17:26:09.379Z</time></trkpt><trkpt lat="33.4588117" lon="-7.805165"><ele>94.0</ele><time>2026-04-26T17:26:10.379Z</time></trkpt><trkpt lat="33.45889" lon="-7.8050483"><ele>93.5</ele><time>2026-04-26T17:26:11.379Z</time></trkpt><trkpt lat="33.458965" lon="-7.804925"><ele>93.0</ele><time>2026-04-26T17:26:12.379Z</time></trkpt><trkpt lat="33.45904" lon="-7.8047967"><ele>93.0</ele><time>2026-04-26T17:26:13.379Z</time></trkpt><trkpt lat="33.4591183" lon="-7.804665"><ele>93.0</ele><time>2026-04-26T17:26:14.379Z</time></trkpt><trkpt lat="33.4591933" lon="-7.804535"><ele>93.0</ele><time>2026-04-26T17:26:15.379Z</time></trkpt><trkpt lat="33.4592733" lon="-7.8043967"><ele>93.0</ele><time>2026-04-26T17:26:16.379Z</time></trkpt><trkpt lat="33.45934" lon="-7.8042617"><ele>93.25</ele><time>2026-04-26T17:26:17.379Z</time></trkpt><trkpt lat="33.45941" lon="-7.8041367"><ele>93.5</ele><time>2026-04-26T17:26:18.379Z</time></trkpt><trkpt lat="33.45947" lon="-7.8040183"><ele>93.75</ele><time>2026-04-26T17:26:19.379Z</time></trkpt><trkpt lat="33.4595333" lon="-7.8038967"><ele>94.0</ele><time>2026-04-26T17:26:20.379Z</time></trkpt><trkpt lat="33.4595983" lon="-7.80377"><ele>94.0</ele><time>2026-04-26T17:26:21.38Z</time></trkpt><trkpt lat="33.45966" lon="-7.803635"><ele>94.0</ele><time>2026-04-26T17:26:22.379Z</time></trkpt><trkpt lat="33.4597183" lon="-7.8035083"><ele>94.0</ele><time>2026-04-26T17:26:23.379Z</time></trkpt><trkpt lat="33.45978" lon="-7.8033883"><ele>94.0</ele><time>2026-04-26T17:26:24.379Z</time></trkpt><trkpt lat="33.4598417" lon="-7.8032733"><ele>94.0</ele><time>2026-04-26T17:26:25.379Z</time></trkpt><trkpt lat="33.4599" lon="-7.8031617"><ele>94.0</ele><time>2026-04-26T17:26:26.379Z</time></trkpt><trkpt lat="33.4599567" lon="-7.8030567"><ele>94.0</ele><time>2026-04-26T17:26:27.379Z</time></trkpt><trkpt lat="33.4600117" lon="-7.8029567"><ele>94.0</ele><time>2026-04-26T17:26:28.379Z</time></trkpt><trkpt lat="33.460075" lon="-7.8028567"><ele>94.0</ele><time>2026-04-26T17:26:29.379Z</time></trkpt><trkpt lat="33.46013" lon="-7.80276"><ele>94.2</ele><time>2026-04-26T17:26:30.379Z</time></trkpt><trkpt lat="33.46019" lon="-7.802655"><ele>94.4</ele><time>2026-04-26T17:26:31.379Z</time></trkpt><trkpt lat="33.4602467" lon="-7.80255"><ele>94.6</ele><time>2026-04-26T17:26:32.379Z</time></trkpt><trkpt lat="33.4603017" lon="-7.802445"><ele>94.8</ele><time>2026-04-26T17:26:33.379Z</time></trkpt><trkpt lat="33.460355" lon="-7.8023467"><ele>95.0</ele><time>2026-04-26T17:26:34.379Z</time></trkpt><trkpt lat="33.460405" lon="-7.8022517"><ele>94.8</ele><time>2026-04-26T17:26:35.379Z</time></trkpt><trkpt lat="33.4604633" lon="-7.8021517"><ele>94.6</ele><time>2026-04-26T17:26:36.379Z</time></trkpt><trkpt lat="33.4605167" lon="-7.80205"><ele>94.4</ele><time>2026-04-26T17:26:37.379Z</time></trkpt><trkpt lat="33.4605783" lon="-7.80194"><ele>94.2</ele><time>2026-04-26T17:26:38.379Z</time></trkpt><trkpt lat="33.4606383" lon="-7.801835"><ele>94.0</ele><time>2026-04-26T17:26:39.379Z</time></trkpt><trkpt lat="33.4606933" lon="-7.8017283"><ele>94.0</ele><time>2026-04-26T17:26:40.379Z</time></trkpt><trkpt lat="33.4607517" lon="-7.8016233"><ele>94.0</ele><time>2026-04-26T17:26:41.379Z</time></trkpt><trkpt lat="33.4608067" lon="-7.8015067"><ele>94.0</ele><time>2026-04-26T17:26:42.379Z</time></trkpt><trkpt lat="33.4608667" lon="-7.8013933"><ele>94.0</ele><time>2026-04-26T17:26:43.379Z</time></trkpt><trkpt lat="33.460925" lon="-7.8012817"><ele>94.0</ele><time>2026-04-26T17:26:44.379Z</time></trkpt><trkpt lat="33.4609917" lon="-7.8011667"><ele>94.0</ele><time>2026-04-26T17:26:45.379Z</time></trkpt><trkpt lat="33.461055" lon="-7.80105"><ele>94.0</ele><time>2026-04-26T17:26:46.379Z</time></trkpt><trkpt lat="33.4611083" lon="-7.8009317"><ele>94.0</ele><time>2026-04-26T17:26:47.379Z</time></trkpt><trkpt lat="33.4611667" lon="-7.8008217"><ele>94.0</ele><time>2026-04-26T17:26:48.379Z</time></trkpt><trkpt lat="33.461225" lon="-7.8007067"><ele>94.0</ele><time>2026-04-26T17:26:49.379Z</time></trkpt><trkpt lat="33.461285" lon="-7.800595"><ele>93.25</ele><time>2026-04-26T17:26:50.379Z</time></trkpt><trkpt lat="33.4613467" lon="-7.8004767"><ele>92.5</ele><time>2026-04-26T17:26:51.379Z</time></trkpt><trkpt lat="33.46141" lon="-7.8003633"><ele>91.75</ele><time>2026-04-26T17:26:52.38Z</time></trkpt><trkpt lat="33.46147" lon="-7.80025"><ele>91.0</ele><time>2026-04-26T17:26:53.379Z</time></trkpt><trkpt lat="33.4615367" lon="-7.8001333"><ele>90.75</ele><time>2026-04-26T17:26:54.379Z</time></trkpt><trkpt lat="33.4615983" lon="-7.8000117"><ele>90.5</ele><time>2026-04-26T17:26:55.379Z</time></trkpt><trkpt lat="33.4616633" lon="-7.79989"><ele>90.25</ele><time>2026-04-26T17:26:56.379Z</time></trkpt><trkpt lat="33.4617233" lon="-7.7997717"><ele>90.0</ele><time>2026-04-26T17:26:57.379Z</time></trkpt><trkpt lat="33.4617833" lon="-7.7996517"><ele>90.0</ele><time>2026-04-26T17:26:58.379Z</time></trkpt><trkpt lat="33.461845" lon="-7.7995267"><ele>90.0</ele><time>2026-04-26T17:26:59.379Z</time></trkpt><trkpt lat="33.4619017" lon="-7.7994033"><ele>90.0</ele><time>2026-04-26T17:27:00.379Z</time></trkpt><trkpt lat="33.4619617" lon="-7.7992833"><ele>90.0</ele><time>2026-04-26T17:27:01.379Z</time></trkpt><trkpt lat="33.462025" lon="-7.79916"><ele>90.25</ele><time>2026-04-26T17:27:02.38Z</time></trkpt><trkpt lat="33.4620883" lon="-7.7990367"><ele>90.5</ele><time>2026-04-26T17:27:03.379Z</time></trkpt><trkpt lat="33.4621533" lon="-7.7989133"><ele>90.75</ele><time>2026-04-26T17:27:04.379Z</time></trkpt><trkpt lat="33.4622167" lon="-7.7987933"><ele>91.0</ele><time>2026-04-26T17:27:05.379Z</time></trkpt><trkpt lat="33.4622733" lon="-7.79867"><ele>90.6</ele><time>2026-04-26T17:27:06.379Z</time></trkpt><trkpt lat="33.4623283" lon="-7.798555"><ele>90.19999999999999</ele><time>2026-04-26T17:27:07.379Z</time></trkpt><trkpt lat="33.4623767" lon="-7.798445"><ele>89.80000000000001</ele><time>2026-04-26T17:27:08.379Z</time></trkpt><trkpt lat="33.4624217" lon="-7.7983433"><ele>89.4</ele><time>2026-04-26T17:27:09.379Z</time></trkpt><trkpt lat="33.46246" lon="-7.7982433"><ele>89.0</ele><time>2026-04-26T17:27:10.379Z</time></trkpt><trkpt lat="33.4624867" lon="-7.798145"><ele>89.0</ele><time>2026-04-26T17:27:11.379Z</time></trkpt><trkpt lat="33.4625" lon="-7.7980567"><ele>89.0</ele><time>2026-04-26T17:27:12.379Z</time></trkpt><trkpt lat="33.4625167" lon="-7.79798"><ele>89.0</ele><time>2026-04-26T17:27:13.379Z</time></trkpt><trkpt lat="33.4625433" lon="-7.7979017"><ele>89.0</ele><time>2026-04-26T17:27:14.379Z</time></trkpt><trkpt lat="33.4625867" lon="-7.7978283"><ele>89.0</ele><time>2026-04-26T17:27:15.379Z</time></trkpt><trkpt lat="33.4626417" lon="-7.7977583"><ele>89.0</ele><time>2026-04-26T17:27:16.379Z</time></trkpt><trkpt lat="33.4627017" lon="-7.7976683"><ele>89.25</ele><time>2026-04-26T17:27:17.379Z</time></trkpt><trkpt lat="33.4627667" lon="-7.7975533"><ele>89.5</ele><time>2026-04-26T17:27:18.379Z</time></trkpt><trkpt lat="33.462835" lon="-7.79742"><ele>89.75</ele><time>2026-04-26T17:27:19.379Z</time></trkpt><trkpt lat="33.4629083" lon="-7.7972717"><ele>90.0</ele><time>2026-04-26T17:27:20.379Z</time></trkpt><trkpt lat="33.4629867" lon="-7.797095"><ele>89.66666666666667</ele><time>2026-04-26T17:27:21.379Z</time></trkpt><trkpt lat="33.463075" lon="-7.7968817"><ele>89.33333333333334</ele><time>2026-04-26T17:27:22.379Z</time></trkpt><trkpt lat="33.46317" lon="-7.79664"><ele>89.0</ele><time>2026-04-26T17:27:23.379Z</time></trkpt><trkpt lat="33.4632667" lon="-7.7963867"><ele>89.0</ele><time>2026-04-26T17:27:24.379Z</time></trkpt><trkpt lat="33.4633617" lon="-7.7961467"><ele>89.0</ele><time>2026-04-26T17:27:25.379Z</time></trkpt><trkpt lat="33.4634583" lon="-7.795905"><ele>89.0</ele><time>2026-04-26T17:27:26.379Z</time></trkpt><trkpt lat="33.463555" lon="-7.7956567"><ele>89.33333333333334</ele><time>2026-04-26T17:27:27.379Z</time></trkpt><trkpt lat="33.4636517" lon="-7.7954317"><ele>89.66666666666667</ele><time>2026-04-26T17:27:28.379Z</time></trkpt><trkpt lat="33.463745" lon="-7.795205"><ele>90.0</ele><time>2026-04-26T17:27:29.379Z</time></trkpt><trkpt lat="33.4638383" lon="-7.7949783"><ele>90.33333333333333</ele><time>2026-04-26T17:27:30.379Z</time></trkpt><trkpt lat="33.46393" lon="-7.7947483"><ele>90.66666666666666</ele><time>2026-04-26T17:27:31.379Z</time></trkpt><trkpt lat="33.4640217" lon="-7.7945133"><ele>91.0</ele><time>2026-04-26T17:27:32.379Z</time></trkpt><trkpt lat="33.464105" lon="-7.794295"><ele>91.33333333333333</ele><time>2026-04-26T17:27:33.379Z</time></trkpt><trkpt lat="33.46419" lon="-7.7940833"><ele>91.66666666666667</ele><time>2026-04-26T17:27:34.379Z</time></trkpt><trkpt lat="33.464275" lon="-7.7938833"><ele>92.0</ele><time>2026-04-26T17:27:35.379Z</time></trkpt><trkpt lat="33.4643567" lon="-7.7936983"><ele>92.66666666666667</ele><time>2026-04-26T17:27:36.379Z</time></trkpt><trkpt lat="33.4644383" lon="-7.7935"><ele>93.33333333333333</ele><time>2026-04-26T17:27:37.379Z</time></trkpt><trkpt lat="33.46453" lon="-7.7932917"><ele>94.0</ele><time>2026-04-26T17:27:38.379Z</time></trkpt><trkpt lat="33.4646133" lon="-7.7930783"><ele>93.0</ele><time>2026-04-26T17:27:39.379Z</time></trkpt><trkpt lat="33.464695" lon="-7.79286"><ele>92.0</ele><time>2026-04-26T17:27:40.379Z</time></trkpt><trkpt lat="33.4647733" lon="-7.79265"><ele>91.0</ele><time>2026-04-26T17:27:41.379Z</time></trkpt><trkpt lat="33.46485" lon="-7.7924333"><ele>91.0</ele><time>2026-04-26T17:27:42.379Z</time></trkpt><trkpt lat="33.46493" lon="-7.792225"><ele>91.0</ele><time>2026-04-26T17:27:43.38Z</time></trkpt><trkpt lat="33.46501" lon="-7.7920233"><ele>91.0</ele><time>2026-04-26T17:27:44.379Z</time></trkpt><trkpt lat="33.4650867" lon="-7.7918267"><ele>91.33333333333333</ele><time>2026-04-26T17:27:45.379Z</time></trkpt><trkpt lat="33.46517" lon="-7.7916283"><ele>91.66666666666667</ele><time>2026-04-26T17:27:46.379Z</time></trkpt><trkpt lat="33.465255" lon="-7.7914283"><ele>92.0</ele><time>2026-04-26T17:27:47.379Z</time></trkpt><trkpt lat="33.4653417" lon="-7.791225"><ele>92.0</ele><time>2026-04-26T17:27:48.379Z</time></trkpt><trkpt lat="33.4654283" lon="-7.7910217"><ele>92.0</ele><time>2026-04-26T17:27:49.379Z</time></trkpt><trkpt lat="33.46552" lon="-7.7908133"><ele>92.0</ele><time>2026-04-26T17:27:50.379Z</time></trkpt><trkpt lat="33.4656133" lon="-7.7905983"><ele>92.33333333333334</ele><time>2026-04-26T17:27:51.379Z</time></trkpt><trkpt lat="33.4657017" lon="-7.7903833"><ele>92.66666666666667</ele><time>2026-04-26T17:27:52.379Z</time></trkpt><trkpt lat="33.4657883" lon="-7.790165"><ele>93.0</ele><time>2026-04-26T17:27:53.379Z</time></trkpt><trkpt lat="33.46587" lon="-7.78994"><ele>93.0</ele><time>2026-04-26T17:27:54.379Z</time></trkpt><trkpt lat="33.465955" lon="-7.7897233"><ele>93.0</ele><time>2026-04-26T17:27:55.379Z</time></trkpt><trkpt lat="33.466045" lon="-7.7894983"><ele>93.0</ele><time>2026-04-26T17:27:56.379Z</time></trkpt><trkpt lat="33.4661383" lon="-7.78927"><ele>93.0</ele><time>2026-04-26T17:27:57.379Z</time></trkpt><trkpt lat="33.4662317" lon="-7.7890417"><ele>93.0</ele><time>2026-04-26T17:27:58.379Z</time></trkpt><trkpt lat="33.466325" lon="-7.7888117"><ele>93.0</ele><time>2026-04-26T17:27:59.379Z</time></trkpt><trkpt lat="33.4664217" lon="-7.7885783"><ele>93.0</ele><time>2026-04-26T17:28:00.379Z</time></trkpt><trkpt lat="33.4665217" lon="-7.7883383"><ele>93.0</ele><time>2026-04-26T17:28:01.379Z</time></trkpt><trkpt lat="33.466625" lon="-7.7880917"><ele>93.0</ele><time>2026-04-26T17:28:02.379Z</time></trkpt><trkpt lat="33.466725" lon="-7.7878467"><ele>93.0</ele><time>2026-04-26T17:28:03.379Z</time></trkpt><trkpt lat="33.4668267" lon="-7.7875983"><ele>94.5</ele><time>2026-04-26T17:28:04.379Z</time></trkpt><trkpt lat="33.46693" lon="-7.7873483"><ele>96.0</ele><time>2026-04-26T17:28:05.379Z</time></trkpt><trkpt lat="33.46703" lon="-7.7871033"><ele>94.66666666666667</ele><time>2026-04-26T17:28:06.379Z</time></trkpt><trkpt lat="33.4671183" lon="-7.7868583"><ele>93.33333333333334</ele><time>2026-04-26T17:28:07.379Z</time></trkpt><trkpt lat="33.4671833" lon="-7.7866267"><ele>92.0</ele><time>2026-04-26T17:28:08.379Z</time></trkpt><trkpt lat="33.4672417" lon="-7.7864017"><ele>92.0</ele><time>2026-04-26T17:28:09.379Z</time></trkpt><trkpt lat="33.4673067" lon="-7.7861933"><ele>92.0</ele><time>2026-04-26T17:28:10.379Z</time></trkpt><trkpt lat="33.4673633" lon="-7.7859967"><ele>92.0</ele><time>2026-04-26T17:28:11.379Z</time></trkpt><trkpt lat="33.4674167" lon="-7.785805"><ele>92.66666666666667</ele><time>2026-04-26T17:28:12.379Z</time></trkpt><trkpt lat="33.4674667" lon="-7.7856233"><ele>93.33333333333333</ele><time>2026-04-26T17:28:13.379Z</time></trkpt><trkpt lat="33.4675133" lon="-7.7854483"><ele>94.0</ele><time>2026-04-26T17:28:14.379Z</time></trkpt><trkpt lat="33.4675583" lon="-7.7852867"><ele>94.25</ele><time>2026-04-26T17:28:15.379Z</time></trkpt><trkpt lat="33.467595" lon="-7.7851383"><ele>94.5</ele><time>2026-04-26T17:28:16.379Z</time></trkpt><trkpt lat="33.467635" lon="-7.7850067"><ele>94.75</ele><time>2026-04-26T17:28:17.379Z</time></trkpt><trkpt lat="33.4676767" lon="-7.7848783"><ele>95.0</ele><time>2026-04-26T17:28:18.379Z</time></trkpt><trkpt lat="33.4677083" lon="-7.78476"><ele>95.0</ele><time>2026-04-26T17:28:19.379Z</time></trkpt><trkpt lat="33.46774" lon="-7.7846417"><ele>95.0</ele><time>2026-04-26T17:28:20.379Z</time></trkpt><trkpt lat="33.4677717" lon="-7.7845133"><ele>95.0</ele><time>2026-04-26T17:28:21.379Z</time></trkpt><trkpt lat="33.4678067" lon="-7.7843617"><ele>95.0</ele><time>2026-04-26T17:28:22.379Z</time></trkpt><trkpt lat="33.4678517" lon="-7.78419"><ele>95.0</ele><time>2026-04-26T17:28:23.379Z</time></trkpt><trkpt lat="33.4678983" lon="-7.78401"><ele>95.0</ele><time>2026-04-26T17:28:24.379Z</time></trkpt><trkpt lat="33.46796" lon="-7.7838067"><ele>95.0</ele><time>2026-04-26T17:28:25.379Z</time></trkpt><trkpt lat="33.4680233" lon="-7.78357"><ele>94.0</ele><time>2026-04-26T17:28:26.379Z</time></trkpt><trkpt lat="33.468105" lon="-7.7832883"><ele>93.0</ele><time>2026-04-26T17:28:27.379Z</time></trkpt><trkpt lat="33.468195" lon="-7.7829883"><ele>93.0</ele><time>2026-04-26T17:28:28.38Z</time></trkpt><trkpt lat="33.4682783" lon="-7.7827167"><ele>93.0</ele><time>2026-04-26T17:28:29.379Z</time></trkpt><trkpt lat="33.468355" lon="-7.782455"><ele>92.5</ele><time>2026-04-26T17:28:30.379Z</time></trkpt><trkpt lat="33.4684217" lon="-7.7821983"><ele>92.0</ele><time>2026-04-26T17:28:31.379Z</time></trkpt><trkpt lat="33.4684817" lon="-7.7819333"><ele>92.33333333333334</ele><time>2026-04-26T17:28:32.379Z</time></trkpt><trkpt lat="33.4685483" lon="-7.7816833"><ele>92.66666666666667</ele><time>2026-04-26T17:28:33.379Z</time></trkpt><trkpt lat="33.4686117" lon="-7.7814433"><ele>93.0</ele><time>2026-04-26T17:28:34.379Z</time></trkpt><trkpt lat="33.468675" lon="-7.7812033"><ele>93.0</ele><time>2026-04-26T17:28:35.379Z</time></trkpt><trkpt lat="33.46874" lon="-7.7809533"><ele>93.0</ele><time>2026-04-26T17:28:36.379Z</time></trkpt><trkpt lat="33.4688033" lon="-7.7806933"><ele>93.0</ele><time>2026-04-26T17:28:37.379Z</time></trkpt><trkpt lat="33.4688683" lon="-7.7804383"><ele>93.0</ele><time>2026-04-26T17:28:38.379Z</time></trkpt><trkpt lat="33.4689383" lon="-7.780195"><ele>93.0</ele><time>2026-04-26T17:28:39.379Z</time></trkpt><trkpt lat="33.4690017" lon="-7.7799633"><ele>93.0</ele><time>2026-04-26T17:28:40.379Z</time></trkpt><trkpt lat="33.469065" lon="-7.77974"><ele>92.66666666666667</ele><time>2026-04-26T17:28:41.379Z</time></trkpt><trkpt lat="33.46913" lon="-7.779515"><ele>92.33333333333334</ele><time>2026-04-26T17:28:42.379Z</time></trkpt><trkpt lat="33.46919" lon="-7.7792933"><ele>92.0</ele><time>2026-04-26T17:28:43.379Z</time></trkpt><trkpt lat="33.46925" lon="-7.77908"><ele>92.0</ele><time>2026-04-26T17:28:44.379Z</time></trkpt><trkpt lat="33.4693067" lon="-7.7788767"><ele>92.0</ele><time>2026-04-26T17:28:45.379Z</time></trkpt><trkpt lat="33.469355" lon="-7.7787083"><ele>92.0</ele><time>2026-04-26T17:28:46.379Z</time></trkpt><trkpt lat="33.4693983" lon="-7.7785683"><ele>92.19999999999999</ele><time>2026-04-26T17:28:47.379Z</time></trkpt><trkpt lat="33.4694333" lon="-7.7784417"><ele>92.4</ele><time>2026-04-26T17:28:48.379Z</time></trkpt><trkpt lat="33.4694683" lon="-7.7783383"><ele>92.6</ele><time>2026-04-26T17:28:49.379Z</time></trkpt><trkpt lat="33.4694967" lon="-7.7782333"><ele>92.80000000000001</ele><time>2026-04-26T17:28:50.379Z</time></trkpt><trkpt lat="33.4695333" lon="-7.7781333"><ele>93.0</ele><time>2026-04-26T17:28:51.379Z</time></trkpt><trkpt lat="33.4695717" lon="-7.7780233"><ele>93.0</ele><time>2026-04-26T17:28:52.379Z</time></trkpt><trkpt lat="33.46962" lon="-7.7779033"><ele>93.0</ele><time>2026-04-26T17:28:53.379Z</time></trkpt><trkpt lat="33.4696833" lon="-7.77776"><ele>93.0</ele><time>2026-04-26T17:28:54.379Z</time></trkpt><trkpt lat="33.46976" lon="-7.7776067"><ele>93.0</ele><time>2026-04-26T17:28:55.379Z</time></trkpt><trkpt lat="33.469845" lon="-7.7774383"><ele>93.0</ele><time>2026-04-26T17:28:56.379Z</time></trkpt><trkpt lat="33.46994" lon="-7.777275"><ele>93.0</ele><time>2026-04-26T17:28:57.379Z</time></trkpt><trkpt lat="33.47003" lon="-7.7771233"><ele>93.0</ele><time>2026-04-26T17:28:58.379Z</time></trkpt><trkpt lat="33.4701217" lon="-7.7769733"><ele>93.33333333333333</ele><time>2026-04-26T17:28:59.379Z</time></trkpt><trkpt lat="33.4702183" lon="-7.7768183"><ele>93.66666666666666</ele><time>2026-04-26T17:29:00.379Z</time></trkpt><trkpt lat="33.470325" lon="-7.7766617"><ele>94.0</ele><time>2026-04-26T17:29:01.379Z</time></trkpt><trkpt lat="33.47044" lon="-7.7765017"><ele>94.33333333333333</ele><time>2026-04-26T17:29:02.379Z</time></trkpt><trkpt lat="33.47057" lon="-7.7763333"><ele>94.66666666666667</ele><time>2026-04-26T17:29:03.379Z</time></trkpt><trkpt lat="33.4707033" lon="-7.776155"><ele>95.0</ele><time>2026-04-26T17:29:04.379Z</time></trkpt><trkpt lat="33.470825" lon="-7.775975"><ele>95.66666666666667</ele><time>2026-04-26T17:29:05.38Z</time></trkpt><trkpt lat="33.4709333" lon="-7.7757933"><ele>96.33333333333334</ele><time>2026-04-26T17:29:06.379Z</time></trkpt><trkpt lat="33.4710467" lon="-7.7756133"><ele>97.0</ele><time>2026-04-26T17:29:07.379Z</time></trkpt><trkpt lat="33.47116" lon="-7.7754367"><ele>97.0</ele><time>2026-04-26T17:29:08.379Z</time></trkpt><trkpt lat="33.4712733" lon="-7.7752517"><ele>97.0</ele><time>2026-04-26T17:29:09.379Z</time></trkpt><trkpt lat="33.4713833" lon="-7.77506"><ele>97.0</ele><time>2026-04-26T17:29:10.379Z</time></trkpt><trkpt lat="33.471495" lon="-7.7748517"><ele>95.66666666666667</ele><time>2026-04-26T17:29:11.379Z</time></trkpt><trkpt lat="33.4715967" lon="-7.774635"><ele>94.33333333333334</ele><time>2026-04-26T17:29:12.379Z</time></trkpt><trkpt lat="33.4717033" lon="-7.7744167"><ele>93.0</ele><time>2026-04-26T17:29:13.379Z</time></trkpt><trkpt lat="33.471805" lon="-7.7741883"><ele>93.0</ele><time>2026-04-26T17:29:14.379Z</time></trkpt><trkpt lat="33.471905" lon="-7.77395"><ele>93.0</ele><time>2026-04-26T17:29:15.379Z</time></trkpt><trkpt lat="33.4720067" lon="-7.773715"><ele>93.0</ele><time>2026-04-26T17:29:16.379Z</time></trkpt><trkpt lat="33.4721067" lon="-7.77347"><ele>93.0</ele><time>2026-04-26T17:29:17.379Z</time></trkpt><trkpt lat="33.4722067" lon="-7.7732267"><ele>93.0</ele><time>2026-04-26T17:29:18.379Z</time></trkpt><trkpt lat="33.4723" lon="-7.7729933"><ele>93.0</ele><time>2026-04-26T17:29:19.379Z</time></trkpt><trkpt lat="33.4723967" lon="-7.7727817"><ele>93.66666666666667</ele><time>2026-04-26T17:29:20.379Z</time></trkpt><trkpt lat="33.4724867" lon="-7.7725767"><ele>94.33333333333334</ele><time>2026-04-26T17:29:21.379Z</time></trkpt><trkpt lat="33.4725783" lon="-7.772365"><ele>95.0</ele><time>2026-04-26T17:29:22.379Z</time></trkpt><trkpt lat="33.4726733" lon="-7.7721533"><ele>95.0</ele><time>2026-04-26T17:29:23.379Z</time></trkpt><trkpt lat="33.472765" lon="-7.7719367"><ele>95.0</ele><time>2026-04-26T17:29:24.379Z</time></trkpt><trkpt lat="33.47286" lon="-7.771715"><ele>95.0</ele><time>2026-04-26T17:29:25.379Z</time></trkpt><trkpt lat="33.47295" lon="-7.771495"><ele>94.33333333333334</ele><time>2026-04-26T17:29:26.379Z</time></trkpt><trkpt lat="33.473045" lon="-7.7712733"><ele>93.66666666666667</ele><time>2026-04-26T17:29:27.379Z</time></trkpt><trkpt lat="33.4731417" lon="-7.7710517"><ele>93.0</ele><time>2026-04-26T17:29:28.379Z</time></trkpt><trkpt lat="33.4732333" lon="-7.7708317"><ele>93.0</ele><time>2026-04-26T17:29:29.379Z</time></trkpt><trkpt lat="33.4733283" lon="-7.7706067"><ele>93.0</ele><time>2026-04-26T17:29:30.379Z</time></trkpt><trkpt lat="33.4734183" lon="-7.7703817"><ele>93.0</ele><time>2026-04-26T17:29:31.379Z</time></trkpt><trkpt lat="33.4735083" lon="-7.770155"><ele>93.33333333333333</ele><time>2026-04-26T17:29:32.379Z</time></trkpt><trkpt lat="33.4736" lon="-7.7699217"><ele>93.66666666666666</ele><time>2026-04-26T17:29:33.379Z</time></trkpt><trkpt lat="33.473695" lon="-7.769695"><ele>94.0</ele><time>2026-04-26T17:29:34.379Z</time></trkpt><trkpt lat="33.47379" lon="-7.7694617"><ele>93.66666666666666</ele><time>2026-04-26T17:29:35.379Z</time></trkpt><trkpt lat="33.4738867" lon="-7.7692317"><ele>93.33333333333333</ele><time>2026-04-26T17:29:36.379Z</time></trkpt><trkpt lat="33.4739817" lon="-7.769005"><ele>93.0</ele><time>2026-04-26T17:29:37.379Z</time></trkpt><trkpt lat="33.47408" lon="-7.7687733"><ele>93.0</ele><time>2026-04-26T17:29:38.379Z</time></trkpt><trkpt lat="33.4741767" lon="-7.7685417"><ele>93.0</ele><time>2026-04-26T17:29:39.379Z</time></trkpt><trkpt lat="33.4742717" lon="-7.7683183"><ele>93.0</ele><time>2026-04-26T17:29:40.379Z</time></trkpt><trkpt lat="33.47436" lon="-7.768105"><ele>93.33333333333333</ele><time>2026-04-26T17:29:41.379Z</time></trkpt><trkpt lat="33.4744483" lon="-7.7678883"><ele>93.66666666666666</ele><time>2026-04-26T17:29:42.379Z</time></trkpt><trkpt lat="33.4745417" lon="-7.76766"><ele>94.0</ele><time>2026-04-26T17:29:43.38Z</time></trkpt><trkpt lat="33.4746467" lon="-7.7674267"><ele>91.0</ele><time>2026-04-26T17:29:44.379Z</time></trkpt><trkpt lat="33.474755" lon="-7.767185"><ele>88.0</ele><time>2026-04-26T17:29:45.379Z</time></trkpt><trkpt lat="33.4748633" lon="-7.7669367"><ele>89.0</ele><time>2026-04-26T17:29:46.379Z</time></trkpt><trkpt lat="33.474965" lon="-7.766685"><ele>90.0</ele><time>2026-04-26T17:29:47.379Z</time></trkpt><trkpt lat="33.4750617" lon="-7.7664467"><ele>90.0</ele><time>2026-04-26T17:29:48.38Z</time></trkpt><trkpt lat="33.4751583" lon="-7.7662133"><ele>90.0</ele><time>2026-04-26T17:29:49.379Z</time></trkpt><trkpt lat="33.4752483" lon="-7.7659833"><ele>90.0</ele><time>2026-04-26T17:29:50.379Z</time></trkpt><trkpt lat="33.4753367" lon="-7.765765"><ele>90.0</ele><time>2026-04-26T17:29:51.379Z</time></trkpt><trkpt lat="33.47542" lon="-7.7655417"><ele>90.0</ele><time>2026-04-26T17:29:52.379Z</time></trkpt><trkpt lat="33.4754967" lon="-7.7653083"><ele>90.0</ele><time>2026-04-26T17:29:53.379Z</time></trkpt><trkpt lat="33.4755633" lon="-7.765075"><ele>90.0</ele><time>2026-04-26T17:29:54.379Z</time></trkpt><trkpt lat="33.47562" lon="-7.76486"><ele>90.0</ele><time>2026-04-26T17:29:55.379Z</time></trkpt><trkpt lat="33.4756733" lon="-7.7646433"><ele>90.0</ele><time>2026-04-26T17:29:56.379Z</time></trkpt><trkpt lat="33.4757233" lon="-7.7644117"><ele>91.33333333333333</ele><time>2026-04-26T17:29:57.379Z</time></trkpt><trkpt lat="33.4757767" lon="-7.7641883"><ele>92.66666666666666</ele><time>2026-04-26T17:29:58.379Z</time></trkpt><trkpt lat="33.4758267" lon="-7.7639783"><ele>94.0</ele><time>2026-04-26T17:29:59.38Z</time></trkpt><trkpt lat="33.4758767" lon="-7.7637733"><ele>94.0</ele><time>2026-04-26T17:30:00.379Z</time></trkpt><trkpt lat="33.4759233" lon="-7.763585"><ele>94.0</ele><time>2026-04-26T17:30:01.379Z</time></trkpt><trkpt lat="33.4759683" lon="-7.7634017"><ele>94.0</ele><time>2026-04-26T17:30:02.38Z</time></trkpt><trkpt lat="33.4760083" lon="-7.7632217"><ele>94.0</ele><time>2026-04-26T17:30:03.379Z</time></trkpt><trkpt lat="33.476045" lon="-7.763035"><ele>94.0</ele><time>2026-04-26T17:30:04.38Z</time></trkpt><trkpt lat="33.4760833" lon="-7.7628433"><ele>94.0</ele><time>2026-04-26T17:30:05.379Z</time></trkpt><trkpt lat="33.4761233" lon="-7.7626517"><ele>94.66666666666666</ele><time>2026-04-26T17:30:06.379Z</time></trkpt><trkpt lat="33.4761683" lon="-7.7624567"><ele>95.33333333333333</ele><time>2026-04-26T17:30:07.379Z</time></trkpt><trkpt lat="33.4762067" lon="-7.7622733"><ele>96.0</ele><time>2026-04-26T17:30:08.38Z</time></trkpt><trkpt lat="33.476245" lon="-7.7620783"><ele>96.33333333333334</ele><time>2026-04-26T17:30:09.379Z</time></trkpt><trkpt lat="33.4762817" lon="-7.7618783"><ele>96.66666666666667</ele><time>2026-04-26T17:30:10.379Z</time></trkpt><trkpt lat="33.4763217" lon="-7.7616633"><ele>97.0</ele><time>2026-04-26T17:30:11.379Z</time></trkpt><trkpt lat="33.4763717" lon="-7.76146"><ele>97.0</ele><time>2026-04-26T17:30:12.379Z</time></trkpt><trkpt lat="33.4764183" lon="-7.7612733"><ele>97.0</ele><time>2026-04-26T17:30:13.379Z</time></trkpt><trkpt lat="33.4764517" lon="-7.7611117"><ele>97.0</ele><time>2026-04-26T17:30:14.379Z</time></trkpt><trkpt lat="33.4764733" lon="-7.7609667"><ele>97.0</ele><time>2026-04-26T17:30:15.38Z</time></trkpt><trkpt lat="33.476495" lon="-7.7608367"><ele>96.85714285714285</ele><time>2026-04-26T17:30:16.379Z</time></trkpt><trkpt lat="33.4765117" lon="-7.7607333"><ele>96.71428571428572</ele><time>2026-04-26T17:30:17.379Z</time></trkpt><trkpt lat="33.476515" lon="-7.76064"><ele>96.57142857142857</ele><time>2026-04-26T17:30:18.379Z</time></trkpt><trkpt lat="33.4765033" lon="-7.76055"><ele>96.42857142857142</ele><time>2026-04-26T17:30:19.379Z</time></trkpt><trkpt lat="33.4765033" lon="-7.7604717"><ele>96.28571428571428</ele><time>2026-04-26T17:30:20.379Z</time></trkpt><trkpt lat="33.4765183" lon="-7.7603967"><ele>96.14285714285714</ele><time>2026-04-26T17:30:21.38Z</time></trkpt><trkpt lat="33.47655" lon="-7.7603133"><ele>96.0</ele><time>2026-04-26T17:30:22.379Z</time></trkpt><trkpt lat="33.4766" lon="-7.760225"><ele>96.25</ele><time>2026-04-26T17:30:23.379Z</time></trkpt><trkpt lat="33.476655" lon="-7.76011"><ele>96.5</ele><time>2026-04-26T17:30:24.379Z</time></trkpt><trkpt lat="33.4767067" lon="-7.7599733"><ele>96.75</ele><time>2026-04-26T17:30:25.379Z</time></trkpt><trkpt lat="33.4767467" lon="-7.7598217"><ele>97.0</ele><time>2026-04-26T17:30:26.38Z</time></trkpt><trkpt lat="33.4767817" lon="-7.7596533"><ele>97.0</ele><time>2026-04-26T17:30:27.379Z</time></trkpt><trkpt lat="33.47682" lon="-7.7594717"><ele>97.0</ele><time>2026-04-26T17:30:28.379Z</time></trkpt><trkpt lat="33.4768567" lon="-7.7592933"><ele>97.0</ele><time>2026-04-26T17:30:29.379Z</time></trkpt><trkpt lat="33.476895" lon="-7.75912"><ele>96.66666666666667</ele><time>2026-04-26T17:30:30.379Z</time></trkpt><trkpt lat="33.4769367" lon="-7.7589483"><ele>96.33333333333334</ele><time>2026-04-26T17:30:31.379Z</time></trkpt><trkpt lat="33.4769767" lon="-7.7587733"><ele>96.0</ele><time>2026-04-26T17:30:32.379Z</time></trkpt><trkpt lat="33.47702" lon="-7.7585933"><ele>96.25</ele><time>2026-04-26T17:30:33.379Z</time></trkpt><trkpt lat="33.47706" lon="-7.7584167"><ele>96.5</ele><time>2026-04-26T17:30:34.379Z</time></trkpt><trkpt lat="33.4770967" lon="-7.7582517"><ele>96.75</ele><time>2026-04-26T17:30:35.379Z</time></trkpt><trkpt lat="33.477135" lon="-7.7580917"><ele>97.0</ele><time>2026-04-26T17:30:36.379Z</time></trkpt><trkpt lat="33.4771733" lon="-7.757925"><ele>97.0</ele><time>2026-04-26T17:30:37.379Z</time></trkpt><trkpt lat="33.4772183" lon="-7.7577517"><ele>97.0</ele><time>2026-04-26T17:30:38.379Z</time></trkpt><trkpt lat="33.47726" lon="-7.7575717"><ele>97.0</ele><time>2026-04-26T17:30:39.379Z</time></trkpt><trkpt lat="33.477305" lon="-7.75739"><ele>97.0</ele><time>2026-04-26T17:30:40.379Z</time></trkpt><trkpt lat="33.4773467" lon="-7.7572033"><ele>97.0</ele><time>2026-04-26T17:30:41.379Z</time></trkpt><trkpt lat="33.4773883" lon="-7.7570033"><ele>97.0</ele><time>2026-04-26T17:30:42.379Z</time></trkpt><trkpt lat="33.4774383" lon="-7.756795"><ele>99.0</ele><time>2026-04-26T17:30:43.379Z</time></trkpt><trkpt lat="33.4774933" lon="-7.7565533"><ele>101.0</ele><time>2026-04-26T17:30:44.379Z</time></trkpt><trkpt lat="33.4775517" lon="-7.756265"><ele>101.0</ele><time>2026-04-26T17:30:45.379Z</time></trkpt><trkpt lat="33.4776183" lon="-7.7559483"><ele>101.0</ele><time>2026-04-26T17:30:46.379Z</time></trkpt><trkpt lat="33.4776717" lon="-7.7556333"><ele>101.0</ele><time>2026-04-26T17:30:47.379Z</time></trkpt><trkpt lat="33.4777283" lon="-7.755345"><ele>101.0</ele><time>2026-04-26T17:30:48.379Z</time></trkpt><trkpt lat="33.477795" lon="-7.75506"><ele>101.5</ele><time>2026-04-26T17:30:49.379Z</time></trkpt><trkpt lat="33.4778533" lon="-7.7547883"><ele>102.0</ele><time>2026-04-26T17:30:50.379Z</time></trkpt><trkpt lat="33.4779183" lon="-7.754515"><ele>102.5</ele><time>2026-04-26T17:30:51.379Z</time></trkpt><trkpt lat="33.47798" lon="-7.7542383"><ele>103.0</ele><time>2026-04-26T17:30:52.379Z</time></trkpt><trkpt lat="33.4780417" lon="-7.7539833"><ele>103.0</ele><time>2026-04-26T17:30:53.379Z</time></trkpt><trkpt lat="33.478105" lon="-7.7537317"><ele>103.0</ele><time>2026-04-26T17:30:54.379Z</time></trkpt><trkpt lat="33.4781667" lon="-7.75348"><ele>103.0</ele><time>2026-04-26T17:30:55.379Z</time></trkpt><trkpt lat="33.478235" lon="-7.7532267"><ele>103.0</ele><time>2026-04-26T17:30:56.379Z</time></trkpt><trkpt lat="33.4782983" lon="-7.752985"><ele>103.0</ele><time>2026-04-26T17:30:57.379Z</time></trkpt><trkpt lat="33.478365" lon="-7.752765"><ele>103.0</ele><time>2026-04-26T17:30:58.379Z</time></trkpt><trkpt lat="33.4784417" lon="-7.7525583"><ele>103.0</ele><time>2026-04-26T17:30:59.379Z</time></trkpt><trkpt lat="33.4785183" lon="-7.7523583"><ele>103.0</ele><time>2026-04-26T17:31:00.379Z</time></trkpt><trkpt lat="33.4786" lon="-7.7521633"><ele>103.0</ele><time>2026-04-26T17:31:01.379Z</time></trkpt><trkpt lat="33.47868" lon="-7.7519733"><ele>104.0</ele><time>2026-04-26T17:31:02.379Z</time></trkpt><trkpt lat="33.4787583" lon="-7.7518067"><ele>105.0</ele><time>2026-04-26T17:31:03.379Z</time></trkpt><trkpt lat="33.4788367" lon="-7.7516483"><ele>106.0</ele><time>2026-04-26T17:31:04.379Z</time></trkpt><trkpt lat="33.4789167" lon="-7.7514867"><ele>106.0</ele><time>2026-04-26T17:31:05.379Z</time></trkpt><trkpt lat="33.4789983" lon="-7.75132"><ele>106.0</ele><time>2026-04-26T17:31:06.379Z</time></trkpt><trkpt lat="33.4790833" lon="-7.7511567"><ele>106.0</ele><time>2026-04-26T17:31:07.38Z</time></trkpt><trkpt lat="33.479155" lon="-7.7510117"><ele>106.0</ele><time>2026-04-26T17:31:08.379Z</time></trkpt><trkpt lat="33.47922" lon="-7.7508867"><ele>106.0</ele><time>2026-04-26T17:31:09.379Z</time></trkpt><trkpt lat="33.4792733" lon="-7.75077"><ele>106.0</ele><time>2026-04-26T17:31:10.379Z</time></trkpt><trkpt lat="33.47932" lon="-7.75067"><ele>106.0</ele><time>2026-04-26T17:31:11.379Z</time></trkpt><trkpt lat="33.47936" lon="-7.75059"><ele>106.0</ele><time>2026-04-26T17:31:12.379Z</time></trkpt><trkpt lat="33.4794167" lon="-7.7504683"><ele>106.0</ele><time>2026-04-26T17:31:14.379Z</time></trkpt><trkpt lat="33.479435" lon="-7.7503933"><ele>106.0</ele><time>2026-04-26T17:31:15.379Z</time></trkpt><trkpt lat="33.47944" lon="-7.7502567"><ele>106.0</ele><time>2026-04-26T17:31:17.379Z</time></trkpt><trkpt lat="33.4794833" lon="-7.7501517"><ele>106.0</ele><time>2026-04-26T17:31:19.379Z</time></trkpt><trkpt lat="33.479585" lon="-7.750055"><ele>106.0</ele><time>2026-04-26T17:31:21.379Z</time></trkpt><trkpt lat="33.47965" lon="-7.7499867"><ele>107.0</ele><time>2026-04-26T17:31:22.379Z</time></trkpt><trkpt lat="33.4797283" lon="-7.7498867"><ele>108.0</ele><time>2026-04-26T17:31:23.38Z</time></trkpt><trkpt lat="33.4798133" lon="-7.7497283"><ele>109.0</ele><time>2026-04-26T17:31:24.379Z</time></trkpt><trkpt lat="33.4799" lon="-7.7495367"><ele>109.0</ele><time>2026-04-26T17:31:25.379Z</time></trkpt><trkpt lat="33.4800017" lon="-7.74932"><ele>109.0</ele><time>2026-04-26T17:31:26.379Z</time></trkpt><trkpt lat="33.4801283" lon="-7.7490817"><ele>109.0</ele><time>2026-04-26T17:31:27.379Z</time></trkpt><trkpt lat="33.4802483" lon="-7.74885"><ele>109.0</ele><time>2026-04-26T17:31:28.379Z</time></trkpt><trkpt lat="33.4803483" lon="-7.7486383"><ele>109.0</ele><time>2026-04-26T17:31:29.379Z</time></trkpt><trkpt lat="33.4804417" lon="-7.7484367"><ele>109.0</ele><time>2026-04-26T17:31:30.379Z</time></trkpt><trkpt lat="33.4805383" lon="-7.7482367"><ele>111.0</ele><time>2026-04-26T17:31:31.379Z</time></trkpt><trkpt lat="33.4806367" lon="-7.748035"><ele>113.0</ele><time>2026-04-26T17:31:32.379Z</time></trkpt><trkpt lat="33.4807383" lon="-7.7478317"><ele>115.0</ele><time>2026-04-26T17:31:33.379Z</time></trkpt><trkpt lat="33.4808383" lon="-7.7476333"><ele>115.0</ele><time>2026-04-26T17:31:34.379Z</time></trkpt><trkpt lat="33.480935" lon="-7.7474367"><ele>115.0</ele><time>2026-04-26T17:31:35.379Z</time></trkpt><trkpt lat="33.48104" lon="-7.747235"><ele>115.0</ele><time>2026-04-26T17:31:36.379Z</time></trkpt><trkpt lat="33.4811483" lon="-7.7470217"><ele>115.0</ele><time>2026-04-26T17:31:37.38Z</time></trkpt><trkpt lat="33.4812567" lon="-7.7468033"><ele>115.0</ele><time>2026-04-26T17:31:38.379Z</time></trkpt><trkpt lat="33.48137" lon="-7.7465783"><ele>115.0</ele><time>2026-04-26T17:31:39.379Z</time></trkpt><trkpt lat="33.48148" lon="-7.7463633"><ele>114.33333333333334</ele><time>2026-04-26T17:31:40.379Z</time></trkpt><trkpt lat="33.4815883" lon="-7.74615"><ele>113.66666666666666</ele><time>2026-04-26T17:31:41.379Z</time></trkpt><trkpt lat="33.4816983" lon="-7.7459367"><ele>113.0</ele><time>2026-04-26T17:31:42.379Z</time></trkpt><trkpt lat="33.4818067" lon="-7.7457267"><ele>112.66666666666666</ele><time>2026-04-26T17:31:43.379Z</time></trkpt><trkpt lat="33.4819067" lon="-7.7455317"><ele>112.33333333333334</ele><time>2026-04-26T17:31:44.379Z</time></trkpt><trkpt lat="33.4820017" lon="-7.745345"><ele>112.0</ele><time>2026-04-26T17:31:45.379Z</time></trkpt><trkpt lat="33.4820967" lon="-7.7451633"><ele>112.0</ele><time>2026-04-26T17:31:46.379Z</time></trkpt><trkpt lat="33.4821933" lon="-7.7449733"><ele>112.0</ele><time>2026-04-26T17:31:47.379Z</time></trkpt><trkpt lat="33.4822933" lon="-7.7447867"><ele>112.0</ele><time>2026-04-26T17:31:48.38Z</time></trkpt><trkpt lat="33.48239" lon="-7.7445967"><ele>112.0</ele><time>2026-04-26T17:31:49.379Z</time></trkpt><trkpt lat="33.4824883" lon="-7.7443983"><ele>112.0</ele><time>2026-04-26T17:31:50.379Z</time></trkpt><trkpt lat="33.48259" lon="-7.7441917"><ele>112.0</ele><time>2026-04-26T17:31:51.379Z</time></trkpt><trkpt lat="33.4826967" lon="-7.74399"><ele>112.33333333333334</ele><time>2026-04-26T17:31:52.379Z</time></trkpt><trkpt lat="33.482805" lon="-7.7437733"><ele>112.66666666666666</ele><time>2026-04-26T17:31:53.379Z</time></trkpt><trkpt lat="33.4829117" lon="-7.7435533"><ele>113.0</ele><time>2026-04-26T17:31:54.379Z</time></trkpt><trkpt lat="33.48302" lon="-7.7433333"><ele>113.0</ele><time>2026-04-26T17:31:55.379Z</time></trkpt><trkpt lat="33.48313" lon="-7.74311"><ele>113.0</ele><time>2026-04-26T17:31:56.379Z</time></trkpt><trkpt lat="33.4832417" lon="-7.742885"><ele>113.0</ele><time>2026-04-26T17:31:57.379Z</time></trkpt><trkpt lat="33.4833533" lon="-7.7426533"><ele>114.0</ele><time>2026-04-26T17:31:58.379Z</time></trkpt><trkpt lat="33.48347" lon="-7.742425"><ele>115.0</ele><time>2026-04-26T17:31:59.379Z</time></trkpt><trkpt lat="33.483585" lon="-7.7421933"><ele>116.0</ele><time>2026-04-26T17:32:00.379Z</time></trkpt><trkpt lat="33.483705" lon="-7.74196"><ele>115.0</ele><time>2026-04-26T17:32:01.379Z</time></trkpt><trkpt lat="33.483825" lon="-7.7417333"><ele>114.0</ele><time>2026-04-26T17:32:02.379Z</time></trkpt><trkpt lat="33.4839417" lon="-7.7415067"><ele>113.0</ele><time>2026-04-26T17:32:03.379Z</time></trkpt><trkpt lat="33.4840533" lon="-7.74129"><ele>113.0</ele><time>2026-04-26T17:32:04.379Z</time></trkpt><trkpt lat="33.4841583" lon="-7.7410833"><ele>113.0</ele><time>2026-04-26T17:32:05.379Z</time></trkpt><trkpt lat="33.4842567" lon="-7.740885"><ele>113.0</ele><time>2026-04-26T17:32:06.379Z</time></trkpt><trkpt lat="33.4843567" lon="-7.740685"><ele>113.0</ele><time>2026-04-26T17:32:07.379Z</time></trkpt><trkpt lat="33.4844633" lon="-7.7404817"><ele>113.0</ele><time>2026-04-26T17:32:08.379Z</time></trkpt><trkpt lat="33.4845717" lon="-7.74026"><ele>113.0</ele><time>2026-04-26T17:32:09.379Z</time></trkpt><trkpt lat="33.4846833" lon="-7.740035"><ele>113.0</ele><time>2026-04-26T17:32:10.379Z</time></trkpt><trkpt lat="33.484805" lon="-7.7398033"><ele>113.0</ele><time>2026-04-26T17:32:11.379Z</time></trkpt><trkpt lat="33.484925" lon="-7.7395667"><ele>111.5</ele><time>2026-04-26T17:32:12.379Z</time></trkpt><trkpt lat="33.48505" lon="-7.7393233"><ele>110.0</ele><time>2026-04-26T17:32:13.379Z</time></trkpt><trkpt lat="33.485175" lon="-7.739075"><ele>110.0</ele><time>2026-04-26T17:32:14.379Z</time></trkpt><trkpt lat="33.4853017" lon="-7.738825"><ele>110.0</ele><time>2026-04-26T17:32:15.379Z</time></trkpt><trkpt lat="33.485435" lon="-7.7385833"><ele>112.0</ele><time>2026-04-26T17:32:16.379Z</time></trkpt><trkpt lat="33.4855767" lon="-7.7383467"><ele>114.0</ele><time>2026-04-26T17:32:17.379Z</time></trkpt><trkpt lat="33.485735" lon="-7.7381167"><ele>114.0</ele><time>2026-04-26T17:32:18.379Z</time></trkpt><trkpt lat="33.4858983" lon="-7.7378767"><ele>114.0</ele><time>2026-04-26T17:32:19.379Z</time></trkpt><trkpt lat="33.48607" lon="-7.737645"><ele>114.0</ele><time>2026-04-26T17:32:20.379Z</time></trkpt><trkpt lat="33.4862467" lon="-7.7374267"><ele>114.0</ele><time>2026-04-26T17:32:21.379Z</time></trkpt><trkpt lat="33.4864117" lon="-7.737215"><ele>114.0</ele><time>2026-04-26T17:32:22.379Z</time></trkpt><trkpt lat="33.48657" lon="-7.7370283"><ele>114.0</ele><time>2026-04-26T17:32:23.379Z</time></trkpt><trkpt lat="33.48672" lon="-7.73684"><ele>114.0</ele><time>2026-04-26T17:32:24.379Z</time></trkpt><trkpt lat="33.4868617" lon="-7.7366583"><ele>113.33333333333334</ele><time>2026-04-26T17:32:25.379Z</time></trkpt><trkpt lat="33.4870017" lon="-7.73649"><ele>112.66666666666667</ele><time>2026-04-26T17:32:26.379Z</time></trkpt><trkpt lat="33.487135" lon="-7.7363267"><ele>112.0</ele><time>2026-04-26T17:32:27.379Z</time></trkpt><trkpt lat="33.4872717" lon="-7.7361633"><ele>110.66666666666667</ele><time>2026-04-26T17:32:28.379Z</time></trkpt><trkpt lat="33.4874083" lon="-7.7359983"><ele>109.33333333333334</ele><time>2026-04-26T17:32:29.379Z</time></trkpt><trkpt lat="33.4875467" lon="-7.7358333"><ele>108.0</ele><time>2026-04-26T17:32:30.379Z</time></trkpt><trkpt lat="33.4876867" lon="-7.7356617"><ele>108.0</ele><time>2026-04-26T17:32:31.379Z</time></trkpt><trkpt lat="33.4878317" lon="-7.73549"><ele>108.0</ele><time>2026-04-26T17:32:32.379Z</time></trkpt><trkpt lat="33.4879783" lon="-7.7353133"><ele>108.0</ele><time>2026-04-26T17:32:33.379Z</time></trkpt><trkpt lat="33.4881267" lon="-7.7351317"><ele>108.0</ele><time>2026-04-26T17:32:34.38Z</time></trkpt><trkpt lat="33.4882717" lon="-7.7349483"><ele>108.0</ele><time>2026-04-26T17:32:35.379Z</time></trkpt><trkpt lat="33.4884167" lon="-7.7347783"><ele>108.0</ele><time>2026-04-26T17:32:36.379Z</time></trkpt><trkpt lat="33.4885467" lon="-7.73461"><ele>108.0</ele><time>2026-04-26T17:32:37.379Z</time></trkpt><trkpt lat="33.4886733" lon="-7.73445"><ele>108.0</ele><time>2026-04-26T17:32:38.379Z</time></trkpt><trkpt lat="33.488795" lon="-7.734305"><ele>108.0</ele><time>2026-04-26T17:32:39.379Z</time></trkpt><trkpt lat="33.48891" lon="-7.73416"><ele>108.0</ele><time>2026-04-26T17:32:40.379Z</time></trkpt><trkpt lat="33.4890233" lon="-7.7340217"><ele>108.0</ele><time>2026-04-26T17:32:41.38Z</time></trkpt><trkpt lat="33.4891383" lon="-7.7338933"><ele>108.0</ele><time>2026-04-26T17:32:42.379Z</time></trkpt><trkpt lat="33.4892433" lon="-7.7337633"><ele>108.0</ele><time>2026-04-26T17:32:43.379Z</time></trkpt><trkpt lat="33.4893417" lon="-7.7336367"><ele>108.0</ele><time>2026-04-26T17:32:44.379Z</time></trkpt><trkpt lat="33.4894433" lon="-7.7335083"><ele>108.0</ele><time>2026-04-26T17:32:45.379Z</time></trkpt><trkpt lat="33.4895433" lon="-7.7333817"><ele>108.0</ele><time>2026-04-26T17:32:46.379Z</time></trkpt><trkpt lat="33.4896467" lon="-7.733255"><ele>108.0</ele><time>2026-04-26T17:32:47.379Z</time></trkpt><trkpt lat="33.4897517" lon="-7.7331267"><ele>108.0</ele><time>2026-04-26T17:32:48.379Z</time></trkpt><trkpt lat="33.4898533" lon="-7.7329983"><ele>108.0</ele><time>2026-04-26T17:32:49.379Z</time></trkpt><trkpt lat="33.4899517" lon="-7.7328717"><ele>108.0</ele><time>2026-04-26T17:32:50.379Z</time></trkpt><trkpt lat="33.4900517" lon="-7.7327517"><ele>108.0</ele><time>2026-04-26T17:32:51.379Z</time></trkpt><trkpt lat="33.490155" lon="-7.7326283"><ele>108.0</ele><time>2026-04-26T17:32:52.379Z</time></trkpt><trkpt lat="33.4902583" lon="-7.732505"><ele>108.0</ele><time>2026-04-26T17:32:53.379Z</time></trkpt><trkpt lat="33.4903633" lon="-7.73238"><ele>108.0</ele><time>2026-04-26T17:32:54.379Z</time></trkpt><trkpt lat="33.4904617" lon="-7.7322533"><ele>108.0</ele><time>2026-04-26T17:32:55.379Z</time></trkpt><trkpt lat="33.4905667" lon="-7.7321267"><ele>108.0</ele><time>2026-04-26T17:32:56.379Z</time></trkpt><trkpt lat="33.49067" lon="-7.732005"><ele>108.0</ele><time>2026-04-26T17:32:57.379Z</time></trkpt><trkpt lat="33.4907717" lon="-7.73188"><ele>108.0</ele><time>2026-04-26T17:32:58.379Z</time></trkpt><trkpt lat="33.4908733" lon="-7.7317533"><ele>107.66666666666666</ele><time>2026-04-26T17:32:59.379Z</time></trkpt><trkpt lat="33.4909783" lon="-7.7316217"><ele>107.33333333333333</ele><time>2026-04-26T17:33:00.379Z</time></trkpt><trkpt lat="33.4910867" lon="-7.731485"><ele>107.0</ele><time>2026-04-26T17:33:01.379Z</time></trkpt><trkpt lat="33.4911967" lon="-7.7313517"><ele>107.33333333333333</ele><time>2026-04-26T17:33:02.379Z</time></trkpt><trkpt lat="33.4913067" lon="-7.7312117"><ele>107.66666666666666</ele><time>2026-04-26T17:33:03.379Z</time></trkpt><trkpt lat="33.4914217" lon="-7.731075"><ele>108.0</ele><time>2026-04-26T17:33:04.379Z</time></trkpt><trkpt lat="33.491535" lon="-7.7309367"><ele>108.0</ele><time>2026-04-26T17:33:05.379Z</time></trkpt><trkpt lat="33.4916517" lon="-7.7307983"><ele>108.0</ele><time>2026-04-26T17:33:06.379Z</time></trkpt><trkpt lat="33.49177" lon="-7.7306617"><ele>108.0</ele><time>2026-04-26T17:33:07.379Z</time></trkpt><trkpt lat="33.4918867" lon="-7.730535"><ele>108.0</ele><time>2026-04-26T17:33:08.379Z</time></trkpt><trkpt lat="33.492" lon="-7.7304167"><ele>108.0</ele><time>2026-04-26T17:33:09.38Z</time></trkpt><trkpt lat="33.4921133" lon="-7.7303"><ele>108.0</ele><time>2026-04-26T17:33:10.379Z</time></trkpt><trkpt lat="33.4922283" lon="-7.73018"><ele>108.33333333333334</ele><time>2026-04-26T17:33:11.379Z</time></trkpt><trkpt lat="33.4923433" lon="-7.7300583"><ele>108.66666666666667</ele><time>2026-04-26T17:33:12.38Z</time></trkpt><trkpt lat="33.4924617" lon="-7.7299467"><ele>109.0</ele><time>2026-04-26T17:33:13.379Z</time></trkpt><trkpt lat="33.49258" lon="-7.7298367"><ele>109.0</ele><time>2026-04-26T17:33:14.379Z</time></trkpt><trkpt lat="33.4926983" lon="-7.729725"><ele>109.0</ele><time>2026-04-26T17:33:15.379Z</time></trkpt><trkpt lat="33.49281" lon="-7.7296133"><ele>109.0</ele><time>2026-04-26T17:33:16.379Z</time></trkpt><trkpt lat="33.49292" lon="-7.729505"><ele>109.0</ele><time>2026-04-26T17:33:17.379Z</time></trkpt><trkpt lat="33.4930267" lon="-7.7293983"><ele>108.75</ele><time>2026-04-26T17:33:18.379Z</time></trkpt><trkpt lat="33.4931333" lon="-7.7292883"><ele>108.5</ele><time>2026-04-26T17:33:19.379Z</time></trkpt><trkpt lat="33.4932383" lon="-7.729185"><ele>108.25</ele><time>2026-04-26T17:33:20.379Z</time></trkpt><trkpt lat="33.4933433" lon="-7.7290833"><ele>108.0</ele><time>2026-04-26T17:33:21.379Z</time></trkpt><trkpt lat="33.4934433" lon="-7.72898"><ele>108.0</ele><time>2026-04-26T17:33:22.379Z</time></trkpt><trkpt lat="33.493545" lon="-7.7288817"><ele>108.0</ele><time>2026-04-26T17:33:23.379Z</time></trkpt><trkpt lat="33.4936417" lon="-7.7287917"><ele>108.0</ele><time>2026-04-26T17:33:24.379Z</time></trkpt><trkpt lat="33.493725" lon="-7.7287067"><ele>108.0</ele><time>2026-04-26T17:33:25.379Z</time></trkpt><trkpt lat="33.493805" lon="-7.7286333"><ele>108.0</ele><time>2026-04-26T17:33:26.379Z</time></trkpt><trkpt lat="33.4938767" lon="-7.7285667"><ele>108.00000000000001</ele><time>2026-04-26T17:33:27.38Z</time></trkpt><trkpt lat="33.4939417" lon="-7.7285083"><ele>108.00000000000001</ele><time>2026-04-26T17:33:28.379Z</time></trkpt><trkpt lat="33.493995" lon="-7.7284517"><ele>108.0</ele><time>2026-04-26T17:33:29.379Z</time></trkpt><trkpt lat="33.4940733" lon="-7.72835"><ele>108.0</ele><time>2026-04-26T17:33:31.379Z</time></trkpt><trkpt lat="33.4941317" lon="-7.7282483"><ele>108.0</ele><time>2026-04-26T17:33:33.379Z</time></trkpt><trkpt lat="33.4941917" lon="-7.7281467"><ele>108.00000000000001</ele><time>2026-04-26T17:33:35.379Z</time></trkpt><trkpt lat="33.494255" lon="-7.7280583"><ele>108.00000000000001</ele><time>2026-04-26T17:33:37.379Z</time></trkpt><trkpt lat="33.49437" lon="-7.7279933"><ele>108.0</ele><time>2026-04-26T17:33:39.379Z</time></trkpt><trkpt lat="33.49444" lon="-7.7279667"><ele>108.0</ele><time>2026-04-26T17:33:40.379Z</time></trkpt><trkpt lat="33.4945083" lon="-7.7279383"><ele>108.0</ele><time>2026-04-26T17:33:41.379Z</time></trkpt><trkpt lat="33.4945717" lon="-7.7279"><ele>108.0</ele><time>2026-04-26T17:33:42.379Z</time></trkpt><trkpt lat="33.4946267" lon="-7.727855"><ele>108.0</ele><time>2026-04-26T17:33:43.379Z</time></trkpt><trkpt lat="33.4946883" lon="-7.7278067"><ele>108.0</ele><time>2026-04-26T17:33:44.379Z</time></trkpt><trkpt lat="33.4947533" lon="-7.7277533"><ele>108.0</ele><time>2026-04-26T17:33:45.379Z</time></trkpt><trkpt lat="33.4948283" lon="-7.727695"><ele>108.0</ele><time>2026-04-26T17:33:46.379Z</time></trkpt><trkpt lat="33.49491" lon="-7.7276233"><ele>107.25</ele><time>2026-04-26T17:33:47.379Z</time></trkpt><trkpt lat="33.4950067" lon="-7.727545"><ele>106.5</ele><time>2026-04-26T17:33:48.379Z</time></trkpt><trkpt lat="33.4951183" lon="-7.7274567"><ele>105.75</ele><time>2026-04-26T17:33:49.379Z</time></trkpt><trkpt lat="33.4952317" lon="-7.727355"><ele>105.0</ele><time>2026-04-26T17:33:50.379Z</time></trkpt><trkpt lat="33.4953483" lon="-7.7272517"><ele>105.25</ele><time>2026-04-26T17:33:51.379Z</time></trkpt><trkpt lat="33.4954617" lon="-7.7271467"><ele>105.5</ele><time>2026-04-26T17:33:52.379Z</time></trkpt><trkpt lat="33.4955767" lon="-7.7270417"><ele>105.75</ele><time>2026-04-26T17:33:53.379Z</time></trkpt><trkpt lat="33.4956883" lon="-7.726925"><ele>106.0</ele><time>2026-04-26T17:33:54.379Z</time></trkpt><trkpt lat="33.4958083" lon="-7.7267983"><ele>106.33333333333334</ele><time>2026-04-26T17:33:55.379Z</time></trkpt><trkpt lat="33.4959367" lon="-7.726665"><ele>106.66666666666666</ele><time>2026-04-26T17:33:56.379Z</time></trkpt><trkpt lat="33.496065" lon="-7.7265117"><ele>107.0</ele><time>2026-04-26T17:33:57.379Z</time></trkpt><trkpt lat="33.496195" lon="-7.72635"><ele>107.0</ele><time>2026-04-26T17:33:58.379Z</time></trkpt><trkpt lat="33.496315" lon="-7.7261933"><ele>107.0</ele><time>2026-04-26T17:33:59.379Z</time></trkpt><trkpt lat="33.4964233" lon="-7.72603"><ele>107.0</ele><time>2026-04-26T17:34:00.379Z</time></trkpt><trkpt lat="33.4965267" lon="-7.725855"><ele>106.33333333333333</ele><time>2026-04-26T17:34:01.379Z</time></trkpt><trkpt lat="33.4966383" lon="-7.7256733"><ele>105.66666666666666</ele><time>2026-04-26T17:34:02.379Z</time></trkpt><trkpt lat="33.4967433" lon="-7.7254883"><ele>105.0</ele><time>2026-04-26T17:34:03.379Z</time></trkpt><trkpt lat="33.4968517" lon="-7.7253067"><ele>104.66666666666666</ele><time>2026-04-26T17:34:04.379Z</time></trkpt><trkpt lat="33.4969533" lon="-7.7251233"><ele>104.33333333333333</ele><time>2026-04-26T17:34:05.379Z</time></trkpt><trkpt lat="33.4970633" lon="-7.7249383"><ele>104.0</ele><time>2026-04-26T17:34:06.379Z</time></trkpt><trkpt lat="33.4971717" lon="-7.7247417"><ele>104.0</ele><time>2026-04-26T17:34:07.379Z</time></trkpt><trkpt lat="33.4972867" lon="-7.72455"><ele>104.0</ele><time>2026-04-26T17:34:08.379Z</time></trkpt><trkpt lat="33.4974117" lon="-7.7243617"><ele>104.0</ele><time>2026-04-26T17:34:09.379Z</time></trkpt><trkpt lat="33.4975367" lon="-7.724165"><ele>103.33333333333333</ele><time>2026-04-26T17:34:10.379Z</time></trkpt><trkpt lat="33.4976567" lon="-7.72397"><ele>102.66666666666666</ele><time>2026-04-26T17:34:11.379Z</time></trkpt><trkpt lat="33.4977717" lon="-7.72378"><ele>102.0</ele><time>2026-04-26T17:34:12.379Z</time></trkpt><trkpt lat="33.49788" lon="-7.7236017"><ele>102.66666666666666</ele><time>2026-04-26T17:34:13.379Z</time></trkpt><trkpt lat="33.4979833" lon="-7.7234217"><ele>103.33333333333333</ele><time>2026-04-26T17:34:14.38Z</time></trkpt><trkpt lat="33.4980833" lon="-7.7232383"><ele>104.0</ele><time>2026-04-26T17:34:15.379Z</time></trkpt><trkpt lat="33.4981833" lon="-7.7230533"><ele>104.0</ele><time>2026-04-26T17:34:16.38Z</time></trkpt><trkpt lat="33.4982883" lon="-7.7228733"><ele>104.0</ele><time>2026-04-26T17:34:17.379Z</time></trkpt><trkpt lat="33.498395" lon="-7.7226883"><ele>104.0</ele><time>2026-04-26T17:34:18.379Z</time></trkpt><trkpt lat="33.498495" lon="-7.7225017"><ele>104.0</ele><time>2026-04-26T17:34:19.379Z</time></trkpt><trkpt lat="33.4986067" lon="-7.7223183"><ele>104.0</ele><time>2026-04-26T17:34:20.379Z</time></trkpt><trkpt lat="33.4987167" lon="-7.72214"><ele>104.0</ele><time>2026-04-26T17:34:21.379Z</time></trkpt><trkpt lat="33.4988283" lon="-7.72196"><ele>103.0</ele><time>2026-04-26T17:34:22.379Z</time></trkpt><trkpt lat="33.49894" lon="-7.721775"><ele>102.0</ele><time>2026-04-26T17:34:23.379Z</time></trkpt><trkpt lat="33.49905" lon="-7.72161"><ele>101.0</ele><time>2026-04-26T17:34:24.379Z</time></trkpt><trkpt lat="33.4991617" lon="-7.7214417"><ele>101.0</ele><time>2026-04-26T17:34:25.379Z</time></trkpt><trkpt lat="33.49928" lon="-7.7212783"><ele>101.0</ele><time>2026-04-26T17:34:26.379Z</time></trkpt><trkpt lat="33.4993933" lon="-7.7211183"><ele>101.0</ele><time>2026-04-26T17:34:27.379Z</time></trkpt><trkpt lat="33.4995167" lon="-7.7209583"><ele>101.0</ele><time>2026-04-26T17:34:28.379Z</time></trkpt><trkpt lat="33.49963" lon="-7.7208017"><ele>101.0</ele><time>2026-04-26T17:34:29.379Z</time></trkpt><trkpt lat="33.499745" lon="-7.7206517"><ele>101.0</ele><time>2026-04-26T17:34:30.379Z</time></trkpt><trkpt lat="33.4998583" lon="-7.7205083"><ele>101.0</ele><time>2026-04-26T17:34:31.379Z</time></trkpt><trkpt lat="33.4999767" lon="-7.7203683"><ele>101.0</ele><time>2026-04-26T17:34:32.379Z</time></trkpt><trkpt lat="33.5000983" lon="-7.7202267"><ele>101.0</ele><time>2026-04-26T17:34:33.379Z</time></trkpt><trkpt lat="33.5002183" lon="-7.7200817"><ele>101.33333333333333</ele><time>2026-04-26T17:34:34.38Z</time></trkpt><trkpt lat="33.50034" lon="-7.719935"><ele>101.66666666666666</ele><time>2026-04-26T17:34:35.379Z</time></trkpt><trkpt lat="33.5004583" lon="-7.7197833"><ele>102.0</ele><time>2026-04-26T17:34:36.379Z</time></trkpt><trkpt lat="33.5005733" lon="-7.71964"><ele>102.0</ele><time>2026-04-26T17:34:37.379Z</time></trkpt><trkpt lat="33.50068" lon="-7.7195017"><ele>102.0</ele><time>2026-04-26T17:34:38.379Z</time></trkpt><trkpt lat="33.5007817" lon="-7.71937"><ele>102.0</ele><time>2026-04-26T17:34:39.379Z</time></trkpt><trkpt lat="33.5008817" lon="-7.7192417"><ele>101.0</ele><time>2026-04-26T17:34:40.379Z</time></trkpt><trkpt lat="33.5009883" lon="-7.7191117"><ele>100.0</ele><time>2026-04-26T17:34:41.379Z</time></trkpt><trkpt lat="33.501095" lon="-7.7189783"><ele>99.0</ele><time>2026-04-26T17:34:42.379Z</time></trkpt><trkpt lat="33.5011967" lon="-7.718845"><ele>99.0</ele><time>2026-04-26T17:34:43.379Z</time></trkpt><trkpt lat="33.5012967" lon="-7.71871"><ele>99.0</ele><time>2026-04-26T17:34:44.379Z</time></trkpt><trkpt lat="33.5014017" lon="-7.7185783"><ele>99.0</ele><time>2026-04-26T17:34:45.379Z</time></trkpt><trkpt lat="33.5015017" lon="-7.718455"><ele>99.0</ele><time>2026-04-26T17:34:46.379Z</time></trkpt><trkpt lat="33.5016" lon="-7.7183367"><ele>99.0</ele><time>2026-04-26T17:34:47.379Z</time></trkpt><trkpt lat="33.5017" lon="-7.7182133"><ele>99.0</ele><time>2026-04-26T17:34:48.379Z</time></trkpt><trkpt lat="33.5018" lon="-7.7180933"><ele>99.0</ele><time>2026-04-26T17:34:49.379Z</time></trkpt><trkpt lat="33.5019" lon="-7.717965"><ele>99.0</ele><time>2026-04-26T17:34:50.379Z</time></trkpt><trkpt lat="33.5020017" lon="-7.71784"><ele>99.25</ele><time>2026-04-26T17:34:51.379Z</time></trkpt><trkpt lat="33.502105" lon="-7.71771"><ele>99.5</ele><time>2026-04-26T17:34:52.379Z</time></trkpt><trkpt lat="33.5022083" lon="-7.717585"><ele>99.75</ele><time>2026-04-26T17:34:53.379Z</time></trkpt><trkpt lat="33.5023083" lon="-7.7174583"><ele>100.0</ele><time>2026-04-26T17:34:54.379Z</time></trkpt><trkpt lat="33.5024017" lon="-7.7173333"><ele>100.0</ele><time>2026-04-26T17:34:55.379Z</time></trkpt><trkpt lat="33.5024917" lon="-7.7172067"><ele>100.0</ele><time>2026-04-26T17:34:56.379Z</time></trkpt><trkpt lat="33.5025883" lon="-7.7170817"><ele>100.0</ele><time>2026-04-26T17:34:57.379Z</time></trkpt><trkpt lat="33.5026883" lon="-7.71696"><ele>100.0</ele><time>2026-04-26T17:34:58.38Z</time></trkpt><trkpt lat="33.50279" lon="-7.7168383"><ele>100.25</ele><time>2026-04-26T17:34:59.379Z</time></trkpt><trkpt lat="33.5028933" lon="-7.716715"><ele>100.5</ele><time>2026-04-26T17:35:00.379Z</time></trkpt><trkpt lat="33.5029917" lon="-7.7165917"><ele>100.75</ele><time>2026-04-26T17:35:01.379Z</time></trkpt><trkpt lat="33.5030917" lon="-7.71647"><ele>101.0</ele><time>2026-04-26T17:35:02.379Z</time></trkpt><trkpt lat="33.5031917" lon="-7.7163517"><ele>101.0</ele><time>2026-04-26T17:35:03.379Z</time></trkpt><trkpt lat="33.5032867" lon="-7.716235"><ele>101.0</ele><time>2026-04-26T17:35:04.379Z</time></trkpt><trkpt lat="33.503375" lon="-7.7161233"><ele>101.0</ele><time>2026-04-26T17:35:05.379Z</time></trkpt><trkpt lat="33.50346" lon="-7.7160167"><ele>101.0</ele><time>2026-04-26T17:35:06.379Z</time></trkpt><trkpt lat="33.50354" lon="-7.7159183"><ele>101.0</ele><time>2026-04-26T17:35:07.379Z</time></trkpt><trkpt lat="33.50362" lon="-7.715825"><ele>101.0</ele><time>2026-04-26T17:35:08.379Z</time></trkpt><trkpt lat="33.5036933" lon="-7.715735"><ele>101.0</ele><time>2026-04-26T17:35:09.379Z</time></trkpt><trkpt lat="33.5037633" lon="-7.7156533"><ele>101.0</ele><time>2026-04-26T17:35:10.379Z</time></trkpt><trkpt lat="33.5038317" lon="-7.7155717"><ele>101.0</ele><time>2026-04-26T17:35:11.379Z</time></trkpt><trkpt lat="33.5038983" lon="-7.7154917"><ele>100.99999999999999</ele><time>2026-04-26T17:35:12.379Z</time></trkpt><trkpt lat="33.503965" lon="-7.7154183"><ele>101.0</ele><time>2026-04-26T17:35:13.379Z</time></trkpt><trkpt lat="33.5040267" lon="-7.7153433"><ele>101.0</ele><time>2026-04-26T17:35:14.38Z</time></trkpt><trkpt lat="33.504085" lon="-7.71527"><ele>101.0</ele><time>2026-04-26T17:35:15.379Z</time></trkpt><trkpt lat="33.5041433" lon="-7.7152033"><ele>100.99999999999999</ele><time>2026-04-26T17:35:16.379Z</time></trkpt><trkpt lat="33.504195" lon="-7.7151367"><ele>101.0</ele><time>2026-04-26T17:35:17.379Z</time></trkpt><trkpt lat="33.50424" lon="-7.7150717"><ele>100.83333333333333</ele><time>2026-04-26T17:35:18.379Z</time></trkpt><trkpt lat="33.5042817" lon="-7.7150017"><ele>100.66666666666666</ele><time>2026-04-26T17:35:19.38Z</time></trkpt><trkpt lat="33.50433" lon="-7.7149283"><ele>100.5</ele><time>2026-04-26T17:35:20.379Z</time></trkpt><trkpt lat="33.5043817" lon="-7.7148583"><ele>100.33333333333334</ele><time>2026-04-26T17:35:21.379Z</time></trkpt><trkpt lat="33.5044417" lon="-7.7147767"><ele>100.16666666666667</ele><time>2026-04-26T17:35:22.379Z</time></trkpt><trkpt lat="33.5045117" lon="-7.7146817"><ele>100.0</ele><time>2026-04-26T17:35:23.38Z</time></trkpt><trkpt lat="33.50459" lon="-7.7145767"><ele>100.0</ele><time>2026-04-26T17:35:24.379Z</time></trkpt><trkpt lat="33.5046783" lon="-7.714465"><ele>100.0</ele><time>2026-04-26T17:35:25.379Z</time></trkpt><trkpt lat="33.504765" lon="-7.7143333"><ele>100.0</ele><time>2026-04-26T17:35:26.379Z</time></trkpt><trkpt lat="33.5048517" lon="-7.71418"><ele>100.0</ele><time>2026-04-26T17:35:27.38Z</time></trkpt><trkpt lat="33.5049367" lon="-7.7140033"><ele>99.33333333333334</ele><time>2026-04-26T17:35:28.379Z</time></trkpt><trkpt lat="33.5050167" lon="-7.7138133"><ele>98.66666666666666</ele><time>2026-04-26T17:35:29.379Z</time></trkpt><trkpt lat="33.5050983" lon="-7.7136083"><ele>98.0</ele><time>2026-04-26T17:35:30.379Z</time></trkpt><trkpt lat="33.5051833" lon="-7.7133983"><ele>98.0</ele><time>2026-04-26T17:35:31.379Z</time></trkpt><trkpt lat="33.5052767" lon="-7.7131783"><ele>98.0</ele><time>2026-04-26T17:35:32.379Z</time></trkpt><trkpt lat="33.5053683" lon="-7.7129517"><ele>98.0</ele><time>2026-04-26T17:35:33.379Z</time></trkpt><trkpt lat="33.5054567" lon="-7.7127317"><ele>100.33333333333333</ele><time>2026-04-26T17:35:34.379Z</time></trkpt><trkpt lat="33.505545" lon="-7.7125317"><ele>102.66666666666666</ele><time>2026-04-26T17:35:35.379Z</time></trkpt><trkpt lat="33.5056267" lon="-7.7123383"><ele>105.0</ele><time>2026-04-26T17:35:36.379Z</time></trkpt><trkpt lat="33.5057" lon="-7.7121417"><ele>105.0</ele><time>2026-04-26T17:35:37.379Z</time></trkpt><trkpt lat="33.5057817" lon="-7.71195"><ele>105.0</ele><time>2026-04-26T17:35:38.379Z</time></trkpt><trkpt lat="33.505865" lon="-7.7117533"><ele>105.0</ele><time>2026-04-26T17:35:39.38Z</time></trkpt><trkpt lat="33.5059467" lon="-7.7115517"><ele>105.0</ele><time>2026-04-26T17:35:40.379Z</time></trkpt><trkpt lat="33.5060283" lon="-7.7113583"><ele>105.0</ele><time>2026-04-26T17:35:41.379Z</time></trkpt><trkpt lat="33.5061083" lon="-7.7111667"><ele>105.0</ele><time>2026-04-26T17:35:42.379Z</time></trkpt><trkpt lat="33.506185" lon="-7.71098"><ele>105.33333333333334</ele><time>2026-04-26T17:35:43.379Z</time></trkpt><trkpt lat="33.5062617" lon="-7.7107783"><ele>105.66666666666667</ele><time>2026-04-26T17:35:44.379Z</time></trkpt><trkpt lat="33.5063383" lon="-7.710575"><ele>106.0</ele><time>2026-04-26T17:35:45.379Z</time></trkpt><trkpt lat="33.50642" lon="-7.7103683"><ele>104.66666666666667</ele><time>2026-04-26T17:35:46.379Z</time></trkpt><trkpt lat="33.5065" lon="-7.7101733"><ele>103.33333333333334</ele><time>2026-04-26T17:35:47.379Z</time></trkpt><trkpt lat="33.5065767" lon="-7.7099833"><ele>102.0</ele><time>2026-04-26T17:35:48.379Z</time></trkpt><trkpt lat="33.5066583" lon="-7.7097933"><ele>102.0</ele><time>2026-04-26T17:35:49.379Z</time></trkpt><trkpt lat="33.5067433" lon="-7.7096083"><ele>102.0</ele><time>2026-04-26T17:35:50.379Z</time></trkpt><trkpt lat="33.5068267" lon="-7.7094167"><ele>102.0</ele><time>2026-04-26T17:35:51.379Z</time></trkpt><trkpt lat="33.5069167" lon="-7.7092267"><ele>101.66666666666666</ele><time>2026-04-26T17:35:52.38Z</time></trkpt><trkpt lat="33.5070133" lon="-7.7090333"><ele>101.33333333333333</ele><time>2026-04-26T17:35:53.379Z</time></trkpt><trkpt lat="33.5071083" lon="-7.7088383"><ele>101.0</ele><time>2026-04-26T17:35:54.379Z</time></trkpt><trkpt lat="33.5072033" lon="-7.70864"><ele>100.66666666666666</ele><time>2026-04-26T17:35:55.379Z</time></trkpt><trkpt lat="33.507305" lon="-7.7084433"><ele>100.33333333333334</ele><time>2026-04-26T17:35:56.379Z</time></trkpt><trkpt lat="33.5074083" lon="-7.7082433"><ele>100.0</ele><time>2026-04-26T17:35:57.379Z</time></trkpt><trkpt lat="33.5075117" lon="-7.7080367"><ele>100.0</ele><time>2026-04-26T17:35:58.379Z</time></trkpt><trkpt lat="33.5076133" lon="-7.7078183"><ele>100.0</ele><time>2026-04-26T17:35:59.379Z</time></trkpt><trkpt lat="33.5077217" lon="-7.7076017"><ele>100.0</ele><time>2026-04-26T17:36:00.379Z</time></trkpt><trkpt lat="33.50783" lon="-7.7073933"><ele>100.66666666666667</ele><time>2026-04-26T17:36:01.379Z</time></trkpt><trkpt lat="33.5079333" lon="-7.70719"><ele>101.33333333333334</ele><time>2026-04-26T17:36:02.379Z</time></trkpt><trkpt lat="33.5080333" lon="-7.706995"><ele>102.0</ele><time>2026-04-26T17:36:03.379Z</time></trkpt><trkpt lat="33.5081367" lon="-7.7068"><ele>100.33333333333334</ele><time>2026-04-26T17:36:04.379Z</time></trkpt><trkpt lat="33.5082417" lon="-7.7066033"><ele>98.66666666666667</ele><time>2026-04-26T17:36:05.379Z</time></trkpt><trkpt lat="33.50835" lon="-7.7064083"><ele>97.0</ele><time>2026-04-26T17:36:06.379Z</time></trkpt><trkpt lat="33.5084617" lon="-7.7062183"><ele>97.33333333333334</ele><time>2026-04-26T17:36:07.379Z</time></trkpt><trkpt lat="33.50858" lon="-7.706035"><ele>97.66666666666666</ele><time>2026-04-26T17:36:08.379Z</time></trkpt><trkpt lat="33.5086983" lon="-7.7058467"><ele>98.0</ele><time>2026-04-26T17:36:09.379Z</time></trkpt><trkpt lat="33.508815" lon="-7.7056517"><ele>98.0</ele><time>2026-04-26T17:36:10.379Z</time></trkpt><trkpt lat="33.5089367" lon="-7.70546"><ele>98.0</ele><time>2026-04-26T17:36:11.379Z</time></trkpt><trkpt lat="33.5090533" lon="-7.7052667"><ele>98.0</ele><time>2026-04-26T17:36:12.379Z</time></trkpt><trkpt lat="33.5091683" lon="-7.7050767"><ele>97.0</ele><time>2026-04-26T17:36:13.379Z</time></trkpt><trkpt lat="33.5092833" lon="-7.7049067"><ele>96.0</ele><time>2026-04-26T17:36:14.379Z</time></trkpt><trkpt lat="33.50939" lon="-7.704735"><ele>95.0</ele><time>2026-04-26T17:36:15.38Z</time></trkpt><trkpt lat="33.50949" lon="-7.7045683"><ele>95.25</ele><time>2026-04-26T17:36:16.379Z</time></trkpt><trkpt lat="33.5095883" lon="-7.70441"><ele>95.5</ele><time>2026-04-26T17:36:17.379Z</time></trkpt><trkpt lat="33.5096817" lon="-7.7042733"><ele>95.75</ele><time>2026-04-26T17:36:18.379Z</time></trkpt><trkpt lat="33.5097717" lon="-7.70415"><ele>96.0</ele><time>2026-04-26T17:36:19.379Z</time></trkpt><trkpt lat="33.50985" lon="-7.7040317"><ele>96.0</ele><time>2026-04-26T17:36:20.379Z</time></trkpt><trkpt lat="33.5099217" lon="-7.70392"><ele>96.0</ele><time>2026-04-26T17:36:21.379Z</time></trkpt><trkpt lat="33.509985" lon="-7.7038217"><ele>96.0</ele><time>2026-04-26T17:36:22.379Z</time></trkpt><trkpt lat="33.5100317" lon="-7.7037383"><ele>96.0</ele><time>2026-04-26T17:36:23.38Z</time></trkpt><trkpt lat="33.5100733" lon="-7.7036617"><ele>96.0</ele><time>2026-04-26T17:36:24.379Z</time></trkpt><trkpt lat="33.510125" lon="-7.70353"><ele>96.0</ele><time>2026-04-26T17:36:26.38Z</time></trkpt><trkpt lat="33.510175" lon="-7.7034117"><ele>96.0</ele><time>2026-04-26T17:36:28.379Z</time></trkpt><trkpt lat="33.5102183" lon="-7.7033367"><ele>96.0</ele><time>2026-04-26T17:36:29.379Z</time></trkpt><trkpt lat="33.5102683" lon="-7.7032817"><ele>96.0</ele><time>2026-04-26T17:36:30.379Z</time></trkpt><trkpt lat="33.5103317" lon="-7.70323"><ele>96.0</ele><time>2026-04-26T17:36:31.379Z</time></trkpt><trkpt lat="33.5104033" lon="-7.7031717"><ele>96.0</ele><time>2026-04-26T17:36:32.379Z</time></trkpt><trkpt lat="33.510485" lon="-7.70311"><ele>96.0</ele><time>2026-04-26T17:36:33.379Z</time></trkpt><trkpt lat="33.5105717" lon="-7.7030467"><ele>96.0</ele><time>2026-04-26T17:36:34.379Z</time></trkpt><trkpt lat="33.5106483" lon="-7.7029783"><ele>96.0</ele><time>2026-04-26T17:36:35.379Z</time></trkpt><trkpt lat="33.5107183" lon="-7.70291"><ele>96.0</ele><time>2026-04-26T17:36:36.379Z</time></trkpt><trkpt lat="33.5107917" lon="-7.7028283"><ele>96.0</ele><time>2026-04-26T17:36:37.379Z</time></trkpt><trkpt lat="33.5108617" lon="-7.7027417"><ele>96.0</ele><time>2026-04-26T17:36:38.379Z</time></trkpt><trkpt lat="33.5109367" lon="-7.7026533"><ele>96.0</ele><time>2026-04-26T17:36:39.379Z</time></trkpt><trkpt lat="33.511015" lon="-7.7025617"><ele>96.0</ele><time>2026-04-26T17:36:40.379Z</time></trkpt><trkpt lat="33.5110967" lon="-7.7024783"><ele>96.0</ele><time>2026-04-26T17:36:41.379Z</time></trkpt><trkpt lat="33.5111783" lon="-7.7023917"><ele>96.0</ele><time>2026-04-26T17:36:42.379Z</time></trkpt><trkpt lat="33.51126" lon="-7.702305"><ele>95.75</ele><time>2026-04-26T17:36:43.379Z</time></trkpt><trkpt lat="33.511345" lon="-7.7022033"><ele>95.5</ele><time>2026-04-26T17:36:44.379Z</time></trkpt><trkpt lat="33.5114383" lon="-7.7021067"><ele>95.25</ele><time>2026-04-26T17:36:45.379Z</time></trkpt><trkpt lat="33.511525" lon="-7.7020117"><ele>95.0</ele><time>2026-04-26T17:36:46.379Z</time></trkpt><trkpt lat="33.51161" lon="-7.7019183"><ele>94.5</ele><time>2026-04-26T17:36:47.379Z</time></trkpt><trkpt lat="33.511695" lon="-7.7018233"><ele>94.0</ele><time>2026-04-26T17:36:48.379Z</time></trkpt><trkpt lat="33.5117883" lon="-7.7017267"><ele>93.5</ele><time>2026-04-26T17:36:49.379Z</time></trkpt><trkpt lat="33.5118833" lon="-7.70163"><ele>93.0</ele><time>2026-04-26T17:36:50.379Z</time></trkpt><trkpt lat="33.511985" lon="-7.7015283"><ele>93.0</ele><time>2026-04-26T17:36:51.379Z</time></trkpt><trkpt lat="33.512085" lon="-7.7014283"><ele>93.0</ele><time>2026-04-26T17:36:52.379Z</time></trkpt><trkpt lat="33.5121867" lon="-7.7013217"><ele>93.0</ele><time>2026-04-26T17:36:53.379Z</time></trkpt><trkpt lat="33.5122883" lon="-7.7012167"><ele>93.0</ele><time>2026-04-26T17:36:54.379Z</time></trkpt><trkpt lat="33.5123883" lon="-7.7011"><ele>92.25</ele><time>2026-04-26T17:36:55.379Z</time></trkpt><trkpt lat="33.5124967" lon="-7.7009783"><ele>91.5</ele><time>2026-04-26T17:36:56.379Z</time></trkpt><trkpt lat="33.5126083" lon="-7.7008633"><ele>90.75</ele><time>2026-04-26T17:36:57.379Z</time></trkpt><trkpt lat="33.512725" lon="-7.7007433"><ele>90.0</ele><time>2026-04-26T17:36:58.379Z</time></trkpt><trkpt lat="33.512835" lon="-7.700615"><ele>90.5</ele><time>2026-04-26T17:36:59.379Z</time></trkpt><trkpt lat="33.512935" lon="-7.700495"><ele>91.0</ele><time>2026-04-26T17:37:00.379Z</time></trkpt><trkpt lat="33.5130417" lon="-7.7003683"><ele>91.5</ele><time>2026-04-26T17:37:01.379Z</time></trkpt><trkpt lat="33.5131517" lon="-7.7002417"><ele>92.0</ele><time>2026-04-26T17:37:02.379Z</time></trkpt><trkpt lat="33.5132567" lon="-7.70012"><ele>91.0</ele><time>2026-04-26T17:37:03.38Z</time></trkpt><trkpt lat="33.51336" lon="-7.700005"><ele>90.0</ele><time>2026-04-26T17:37:04.379Z</time></trkpt><trkpt lat="33.5134583" lon="-7.699895"><ele>89.0</ele><time>2026-04-26T17:37:05.379Z</time></trkpt><trkpt lat="33.5135533" lon="-7.69979"><ele>88.0</ele><time>2026-04-26T17:37:06.379Z</time></trkpt><trkpt lat="33.5136517" lon="-7.6996867"><ele>88.0</ele><time>2026-04-26T17:37:07.379Z</time></trkpt><trkpt lat="33.51375" lon="-7.6995767"><ele>88.0</ele><time>2026-04-26T17:37:08.379Z</time></trkpt><trkpt lat="33.5138533" lon="-7.6994667"><ele>88.0</ele><time>2026-04-26T17:37:09.379Z</time></trkpt><trkpt lat="33.513955" lon="-7.6993583"><ele>88.0</ele><time>2026-04-26T17:37:10.379Z</time></trkpt><trkpt lat="33.5140517" lon="-7.69925"><ele>88.0</ele><time>2026-04-26T17:37:11.379Z</time></trkpt><trkpt lat="33.5141533" lon="-7.6991433"><ele>88.0</ele><time>2026-04-26T17:37:12.379Z</time></trkpt><trkpt lat="33.5142533" lon="-7.699035"><ele>88.0</ele><time>2026-04-26T17:37:13.379Z</time></trkpt><trkpt lat="33.514345" lon="-7.698935"><ele>88.0</ele><time>2026-04-26T17:37:14.379Z</time></trkpt><trkpt lat="33.51443" lon="-7.6988417"><ele>88.0</ele><time>2026-04-26T17:37:15.379Z</time></trkpt><trkpt lat="33.5145117" lon="-7.6987533"><ele>88.0</ele><time>2026-04-26T17:37:16.379Z</time></trkpt><trkpt lat="33.5145883" lon="-7.6986667"><ele>88.0</ele><time>2026-04-26T17:37:17.379Z</time></trkpt><trkpt lat="33.5146633" lon="-7.69858"><ele>88.0</ele><time>2026-04-26T17:37:18.379Z</time></trkpt><trkpt lat="33.5147417" lon="-7.6985033"><ele>88.0</ele><time>2026-04-26T17:37:19.379Z</time></trkpt><trkpt lat="33.514815" lon="-7.6984267"><ele>87.83333333333333</ele><time>2026-04-26T17:37:20.379Z</time></trkpt><trkpt lat="33.5148817" lon="-7.6983567"><ele>87.66666666666666</ele><time>2026-04-26T17:37:21.379Z</time></trkpt><trkpt lat="33.5149417" lon="-7.6982817"><ele>87.5</ele><time>2026-04-26T17:37:22.379Z</time></trkpt><trkpt lat="33.5150033" lon="-7.698215"><ele>87.33333333333333</ele><time>2026-04-26T17:37:23.379Z</time></trkpt><trkpt lat="33.5150567" lon="-7.6981533"><ele>87.16666666666667</ele><time>2026-04-26T17:37:24.379Z</time></trkpt><trkpt lat="33.5151083" lon="-7.6980917"><ele>87.0</ele><time>2026-04-26T17:37:25.379Z</time></trkpt><trkpt lat="33.51518" lon="-7.6979933"><ele>87.0</ele><time>2026-04-26T17:37:27.379Z</time></trkpt><trkpt lat="33.5152317" lon="-7.6979167"><ele>87.0</ele><time>2026-04-26T17:37:29.379Z</time></trkpt><trkpt lat="33.51528" lon="-7.6978533"><ele>87.0</ele><time>2026-04-26T17:37:30.379Z</time></trkpt><trkpt lat="33.5153433" lon="-7.6977867"><ele>87.0</ele><time>2026-04-26T17:37:31.379Z</time></trkpt><trkpt lat="33.5154217" lon="-7.6977183"><ele>87.0</ele><time>2026-04-26T17:37:32.379Z</time></trkpt><trkpt lat="33.51551" lon="-7.697645"><ele>87.0</ele><time>2026-04-26T17:37:33.379Z</time></trkpt><trkpt lat="33.515595" lon="-7.69757"><ele>87.0</ele><time>2026-04-26T17:37:34.379Z</time></trkpt><trkpt lat="33.5156767" lon="-7.6974933"><ele>87.0</ele><time>2026-04-26T17:37:35.379Z</time></trkpt><trkpt lat="33.5157583" lon="-7.697405"><ele>87.0</ele><time>2026-04-26T17:37:36.38Z</time></trkpt><trkpt lat="33.5158467" lon="-7.6973167"><ele>87.0</ele><time>2026-04-26T17:37:37.379Z</time></trkpt><trkpt lat="33.51593" lon="-7.6972267"><ele>87.0</ele><time>2026-04-26T17:37:38.379Z</time></trkpt><trkpt lat="33.516005" lon="-7.6971433"><ele>87.0</ele><time>2026-04-26T17:37:39.379Z</time></trkpt><trkpt lat="33.5160783" lon="-7.697065"><ele>87.0</ele><time>2026-04-26T17:37:40.379Z</time></trkpt><trkpt lat="33.5161567" lon="-7.697"><ele>87.0</ele><time>2026-04-26T17:37:41.379Z</time></trkpt><trkpt lat="33.5162383" lon="-7.6969233"><ele>87.0</ele><time>2026-04-26T17:37:42.379Z</time></trkpt><trkpt lat="33.5163117" lon="-7.6968367"><ele>87.0</ele><time>2026-04-26T17:37:43.379Z</time></trkpt><trkpt lat="33.5163783" lon="-7.6967533"><ele>86.83333333333333</ele><time>2026-04-26T17:37:44.379Z</time></trkpt><trkpt lat="33.51644" lon="-7.6966767"><ele>86.66666666666667</ele><time>2026-04-26T17:37:45.379Z</time></trkpt><trkpt lat="33.51649" lon="-7.69661"><ele>86.5</ele><time>2026-04-26T17:37:46.379Z</time></trkpt><trkpt lat="33.5165317" lon="-7.6965483"><ele>86.33333333333334</ele><time>2026-04-26T17:37:47.379Z</time></trkpt><trkpt lat="33.5165683" lon="-7.696485"><ele>86.16666666666667</ele><time>2026-04-26T17:37:48.379Z</time></trkpt><trkpt lat="33.5165933" lon="-7.696415"><ele>86.0</ele><time>2026-04-26T17:37:49.379Z</time></trkpt><trkpt lat="33.5166333" lon="-7.6963017"><ele>86.0</ele><time>2026-04-26T17:37:51.379Z</time></trkpt><trkpt lat="33.5167017" lon="-7.696215"><ele>86.0</ele><time>2026-04-26T17:37:53.379Z</time></trkpt><trkpt lat="33.5167767" lon="-7.6961767"><ele>86.0</ele><time>2026-04-26T17:37:54.379Z</time></trkpt><trkpt lat="33.5168683" lon="-7.69612"><ele>86.0</ele><time>2026-04-26T17:37:55.379Z</time></trkpt><trkpt lat="33.51697" lon="-7.6960433"><ele>86.0</ele><time>2026-04-26T17:37:56.379Z</time></trkpt><trkpt lat="33.5170583" lon="-7.6959483"><ele>86.8</ele><time>2026-04-26T17:37:57.379Z</time></trkpt><trkpt lat="33.5171367" lon="-7.6958517"><ele>87.6</ele><time>2026-04-26T17:37:58.379Z</time></trkpt><trkpt lat="33.5172133" lon="-7.6957583"><ele>88.4</ele><time>2026-04-26T17:37:59.38Z</time></trkpt><trkpt lat="33.5172867" lon="-7.695665"><ele>89.2</ele><time>2026-04-26T17:38:00.379Z</time></trkpt><trkpt lat="33.5173533" lon="-7.6955767"><ele>90.0</ele><time>2026-04-26T17:38:01.379Z</time></trkpt><trkpt lat="33.517415" lon="-7.69549"><ele>90.0</ele><time>2026-04-26T17:38:02.379Z</time></trkpt><trkpt lat="33.51747" lon="-7.6954033"><ele>90.0</ele><time>2026-04-26T17:38:03.379Z</time></trkpt><trkpt lat="33.5175217" lon="-7.6953217"><ele>90.0</ele><time>2026-04-26T17:38:04.379Z</time></trkpt><trkpt lat="33.5175717" lon="-7.695245"><ele>90.0</ele><time>2026-04-26T17:38:05.379Z</time></trkpt><trkpt lat="33.5176183" lon="-7.6951767"><ele>90.0</ele><time>2026-04-26T17:38:06.379Z</time></trkpt><trkpt lat="33.5176617" lon="-7.6951117"><ele>90.0</ele><time>2026-04-26T17:38:07.379Z</time></trkpt><trkpt lat="33.517705" lon="-7.6950533"><ele>89.8</ele><time>2026-04-26T17:38:08.379Z</time></trkpt><trkpt lat="33.5177833" lon="-7.6949417"><ele>89.6</ele><time>2026-04-26T17:38:10.379Z</time></trkpt><trkpt lat="33.51786" lon="-7.6948233"><ele>89.4</ele><time>2026-04-26T17:38:12.379Z</time></trkpt><trkpt lat="33.5179033" lon="-7.6947533"><ele>89.2</ele><time>2026-04-26T17:38:13.379Z</time></trkpt><trkpt lat="33.51795" lon="-7.69468"><ele>89.0</ele><time>2026-04-26T17:38:14.379Z</time></trkpt><trkpt lat="33.5179983" lon="-7.694605"><ele>89.0</ele><time>2026-04-26T17:38:15.379Z</time></trkpt><trkpt lat="33.5180517" lon="-7.6945217"><ele>89.0</ele><time>2026-04-26T17:38:16.379Z</time></trkpt><trkpt lat="33.518105" lon="-7.69444"><ele>89.0</ele><time>2026-04-26T17:38:17.379Z</time></trkpt><trkpt lat="33.5181667" lon="-7.6943517"><ele>89.0</ele><time>2026-04-26T17:38:18.379Z</time></trkpt><trkpt lat="33.51823" lon="-7.6942567"><ele>89.0</ele><time>2026-04-26T17:38:19.38Z</time></trkpt><trkpt lat="33.5182967" lon="-7.6941583"><ele>88.75</ele><time>2026-04-26T17:38:20.379Z</time></trkpt><trkpt lat="33.5183633" lon="-7.6940517"><ele>88.5</ele><time>2026-04-26T17:38:21.379Z</time></trkpt><trkpt lat="33.5184333" lon="-7.6939483"><ele>88.25</ele><time>2026-04-26T17:38:22.379Z</time></trkpt><trkpt lat="33.5185017" lon="-7.693835"><ele>88.0</ele><time>2026-04-26T17:38:23.379Z</time></trkpt><trkpt lat="33.5185817" lon="-7.6937233"><ele>88.0</ele><time>2026-04-26T17:38:24.379Z</time></trkpt><trkpt lat="33.5186633" lon="-7.6936"><ele>88.0</ele><time>2026-04-26T17:38:25.379Z</time></trkpt><trkpt lat="33.5187567" lon="-7.693465"><ele>88.0</ele><time>2026-04-26T17:38:26.38Z</time></trkpt><trkpt lat="33.51886" lon="-7.6933167"><ele>88.0</ele><time>2026-04-26T17:38:27.379Z</time></trkpt><trkpt lat="33.51897" lon="-7.6931533"><ele>87.33333333333333</ele><time>2026-04-26T17:38:28.379Z</time></trkpt><trkpt lat="33.5190783" lon="-7.693"><ele>86.66666666666667</ele><time>2026-04-26T17:38:29.379Z</time></trkpt><trkpt lat="33.5191783" lon="-7.6928433"><ele>86.0</ele><time>2026-04-26T17:38:30.379Z</time></trkpt><trkpt lat="33.5192783" lon="-7.6926883"><ele>85.66666666666667</ele><time>2026-04-26T17:38:31.379Z</time></trkpt><trkpt lat="33.519375" lon="-7.6925433"><ele>85.33333333333333</ele><time>2026-04-26T17:38:32.38Z</time></trkpt><trkpt lat="33.5194733" lon="-7.6923867"><ele>85.0</ele><time>2026-04-26T17:38:33.379Z</time></trkpt><trkpt lat="33.519575" lon="-7.692235"><ele>85.0</ele><time>2026-04-26T17:38:34.379Z</time></trkpt><trkpt lat="33.5196783" lon="-7.692085"><ele>85.0</ele><time>2026-04-26T17:38:35.38Z</time></trkpt><trkpt lat="33.51978" lon="-7.6919367"><ele>85.0</ele><time>2026-04-26T17:38:36.379Z</time></trkpt><trkpt lat="33.5198817" lon="-7.691785"><ele>85.33333333333333</ele><time>2026-04-26T17:38:37.379Z</time></trkpt><trkpt lat="33.51998" lon="-7.6916333"><ele>85.66666666666667</ele><time>2026-04-26T17:38:38.379Z</time></trkpt><trkpt lat="33.5200783" lon="-7.6914767"><ele>86.0</ele><time>2026-04-26T17:38:39.379Z</time></trkpt><trkpt lat="33.520185" lon="-7.69132"><ele>86.0</ele><time>2026-04-26T17:38:40.379Z</time></trkpt><trkpt lat="33.5202917" lon="-7.691155"><ele>86.0</ele><time>2026-04-26T17:38:41.379Z</time></trkpt><trkpt lat="33.5204017" lon="-7.6909833"><ele>86.0</ele><time>2026-04-26T17:38:42.379Z</time></trkpt><trkpt lat="33.520515" lon="-7.6908067"><ele>85.33333333333334</ele><time>2026-04-26T17:38:43.379Z</time></trkpt><trkpt lat="33.5206217" lon="-7.690635"><ele>84.66666666666667</ele><time>2026-04-26T17:38:44.379Z</time></trkpt><trkpt lat="33.5207267" lon="-7.690475"><ele>84.0</ele><time>2026-04-26T17:38:45.379Z</time></trkpt><trkpt lat="33.5208317" lon="-7.6903167"><ele>84.0</ele><time>2026-04-26T17:38:46.379Z</time></trkpt><trkpt lat="33.52094" lon="-7.6901567"><ele>84.0</ele><time>2026-04-26T17:38:47.379Z</time></trkpt><trkpt lat="33.5210533" lon="-7.689995"><ele>84.0</ele><time>2026-04-26T17:38:48.379Z</time></trkpt><trkpt lat="33.5211683" lon="-7.68983"><ele>84.0</ele><time>2026-04-26T17:38:49.38Z</time></trkpt><trkpt lat="33.521285" lon="-7.6896583"><ele>84.0</ele><time>2026-04-26T17:38:50.379Z</time></trkpt><trkpt lat="33.5213967" lon="-7.6894883"><ele>84.0</ele><time>2026-04-26T17:38:51.379Z</time></trkpt><trkpt lat="33.52151" lon="-7.6893117"><ele>84.0</ele><time>2026-04-26T17:38:52.379Z</time></trkpt><trkpt lat="33.521625" lon="-7.689135"><ele>84.0</ele><time>2026-04-26T17:38:53.379Z</time></trkpt><trkpt lat="33.52174" lon="-7.68895"><ele>84.0</ele><time>2026-04-26T17:38:54.379Z</time></trkpt><trkpt lat="33.5218583" lon="-7.68877"><ele>84.0</ele><time>2026-04-26T17:38:55.379Z</time></trkpt><trkpt lat="33.5219683" lon="-7.688595"><ele>84.0</ele><time>2026-04-26T17:38:56.379Z</time></trkpt><trkpt lat="33.5220817" lon="-7.68843"><ele>84.0</ele><time>2026-04-26T17:38:57.379Z</time></trkpt><trkpt lat="33.522195" lon="-7.6882667"><ele>84.66666666666667</ele><time>2026-04-26T17:38:58.379Z</time></trkpt><trkpt lat="33.522305" lon="-7.6881033"><ele>85.33333333333334</ele><time>2026-04-26T17:38:59.379Z</time></trkpt><trkpt lat="33.5224133" lon="-7.6879367"><ele>86.0</ele><time>2026-04-26T17:39:00.379Z</time></trkpt><trkpt lat="33.5225233" lon="-7.687775"><ele>86.0</ele><time>2026-04-26T17:39:01.379Z</time></trkpt><trkpt lat="33.5226333" lon="-7.68761"><ele>86.0</ele><time>2026-04-26T17:39:02.379Z</time></trkpt><trkpt lat="33.5227433" lon="-7.687445"><ele>86.0</ele><time>2026-04-26T17:39:03.379Z</time></trkpt><trkpt lat="33.5228583" lon="-7.68728"><ele>86.0</ele><time>2026-04-26T17:39:04.379Z</time></trkpt><trkpt lat="33.5229733" lon="-7.68712"><ele>86.0</ele><time>2026-04-26T17:39:05.379Z</time></trkpt><trkpt lat="33.5230833" lon="-7.6869583"><ele>86.0</ele><time>2026-04-26T17:39:06.38Z</time></trkpt><trkpt lat="33.5231833" lon="-7.6868017"><ele>86.0</ele><time>2026-04-26T17:39:07.379Z</time></trkpt><trkpt lat="33.5232767" lon="-7.68665"><ele>86.0</ele><time>2026-04-26T17:39:08.379Z</time></trkpt><trkpt lat="33.5233717" lon="-7.6865083"><ele>86.0</ele><time>2026-04-26T17:39:09.379Z</time></trkpt><trkpt lat="33.5234617" lon="-7.686375"><ele>86.0</ele><time>2026-04-26T17:39:10.379Z</time></trkpt><trkpt lat="33.5235433" lon="-7.6862483"><ele>86.0</ele><time>2026-04-26T17:39:11.379Z</time></trkpt><trkpt lat="33.523625" lon="-7.68612"><ele>86.0</ele><time>2026-04-26T17:39:12.38Z</time></trkpt><trkpt lat="33.52372" lon="-7.6859883"><ele>86.0</ele><time>2026-04-26T17:39:13.379Z</time></trkpt><trkpt lat="33.5238117" lon="-7.6858533"><ele>86.33333333333334</ele><time>2026-04-26T17:39:14.379Z</time></trkpt><trkpt lat="33.52391" lon="-7.685715"><ele>86.66666666666667</ele><time>2026-04-26T17:39:15.379Z</time></trkpt><trkpt lat="33.5240117" lon="-7.6855717"><ele>87.0</ele><time>2026-04-26T17:39:16.379Z</time></trkpt><trkpt lat="33.5241133" lon="-7.68543"><ele>87.0</ele><time>2026-04-26T17:39:17.379Z</time></trkpt><trkpt lat="33.5242117" lon="-7.6852883"><ele>87.0</ele><time>2026-04-26T17:39:18.379Z</time></trkpt><trkpt lat="33.5243067" lon="-7.68515"><ele>87.0</ele><time>2026-04-26T17:39:19.379Z</time></trkpt><trkpt lat="33.5244" lon="-7.68501"><ele>87.25</ele><time>2026-04-26T17:39:20.378Z</time></trkpt><trkpt lat="33.5244917" lon="-7.6848717"><ele>87.5</ele><time>2026-04-26T17:39:21.378Z</time></trkpt><trkpt lat="33.524585" lon="-7.6847317"><ele>87.75</ele><time>2026-04-26T17:39:22.378Z</time></trkpt><trkpt lat="33.5246717" lon="-7.6845833"><ele>88.0</ele><time>2026-04-26T17:39:23.378Z</time></trkpt><trkpt lat="33.524765" lon="-7.6844433"><ele>88.0</ele><time>2026-04-26T17:39:24.378Z</time></trkpt><trkpt lat="33.5248583" lon="-7.6843033"><ele>88.0</ele><time>2026-04-26T17:39:25.378Z</time></trkpt><trkpt lat="33.5249483" lon="-7.6841683"><ele>88.0</ele><time>2026-04-26T17:39:26.378Z</time></trkpt><trkpt lat="33.525035" lon="-7.68404"><ele>88.0</ele><time>2026-04-26T17:39:27.378Z</time></trkpt><trkpt lat="33.5251217" lon="-7.683905"><ele>88.0</ele><time>2026-04-26T17:39:28.378Z</time></trkpt><trkpt lat="33.525215" lon="-7.6837733"><ele>88.0</ele><time>2026-04-26T17:39:29.378Z</time></trkpt><trkpt lat="33.5253017" lon="-7.6836417"><ele>88.0</ele><time>2026-04-26T17:39:30.378Z</time></trkpt><trkpt lat="33.525385" lon="-7.683515"><ele>88.0</ele><time>2026-04-26T17:39:31.378Z</time></trkpt><trkpt lat="33.5254633" lon="-7.6833917"><ele>88.25</ele><time>2026-04-26T17:39:32.378Z</time></trkpt><trkpt lat="33.5255417" lon="-7.6832667"><ele>88.5</ele><time>2026-04-26T17:39:33.378Z</time></trkpt><trkpt lat="33.5256217" lon="-7.6831483"><ele>88.75</ele><time>2026-04-26T17:39:34.378Z</time></trkpt><trkpt lat="33.52569" lon="-7.683035"><ele>89.0</ele><time>2026-04-26T17:39:35.378Z</time></trkpt><trkpt lat="33.525755" lon="-7.6829317"><ele>89.0</ele><time>2026-04-26T17:39:36.378Z</time></trkpt><trkpt lat="33.5258217" lon="-7.68283"><ele>89.0</ele><time>2026-04-26T17:39:37.378Z</time></trkpt><trkpt lat="33.5258883" lon="-7.682745"><ele>89.0</ele><time>2026-04-26T17:39:38.378Z</time></trkpt><trkpt lat="33.5259483" lon="-7.6826683"><ele>89.0</ele><time>2026-04-26T17:39:39.378Z</time></trkpt><trkpt lat="33.5260083" lon="-7.6825917"><ele>89.0</ele><time>2026-04-26T17:39:40.378Z</time></trkpt><trkpt lat="33.52607" lon="-7.6825083"><ele>89.0</ele><time>2026-04-26T17:39:41.378Z</time></trkpt><trkpt lat="33.5261267" lon="-7.68241"><ele>89.0</ele><time>2026-04-26T17:39:42.378Z</time></trkpt><trkpt lat="33.52619" lon="-7.6823117"><ele>89.0</ele><time>2026-04-26T17:39:43.378Z</time></trkpt><trkpt lat="33.5262617" lon="-7.6822117"><ele>89.0</ele><time>2026-04-26T17:39:44.378Z</time></trkpt><trkpt lat="33.5263417" lon="-7.682095"><ele>89.0</ele><time>2026-04-26T17:39:45.378Z</time></trkpt><trkpt lat="33.5264283" lon="-7.6819667"><ele>88.75</ele><time>2026-04-26T17:39:46.378Z</time></trkpt><trkpt lat="33.5265083" lon="-7.68184"><ele>88.5</ele><time>2026-04-26T17:39:47.378Z</time></trkpt><trkpt lat="33.52659" lon="-7.68171"><ele>88.25</ele><time>2026-04-26T17:39:48.378Z</time></trkpt><trkpt lat="33.5266717" lon="-7.68158"><ele>88.0</ele><time>2026-04-26T17:39:49.378Z</time></trkpt><trkpt lat="33.5267583" lon="-7.6814517"><ele>88.0</ele><time>2026-04-26T17:39:50.378Z</time></trkpt><trkpt lat="33.526845" lon="-7.6813183"><ele>88.0</ele><time>2026-04-26T17:39:51.378Z</time></trkpt><trkpt lat="33.5269317" lon="-7.68119"><ele>88.0</ele><time>2026-04-26T17:39:52.378Z</time></trkpt><trkpt lat="33.5270133" lon="-7.681065"><ele>88.0</ele><time>2026-04-26T17:39:53.378Z</time></trkpt><trkpt lat="33.5270917" lon="-7.68095"><ele>88.2</ele><time>2026-04-26T17:39:54.378Z</time></trkpt><trkpt lat="33.5271617" lon="-7.6808433"><ele>88.4</ele><time>2026-04-26T17:39:55.378Z</time></trkpt><trkpt lat="33.5272283" lon="-7.6807483"><ele>88.60000000000001</ele><time>2026-04-26T17:39:56.378Z</time></trkpt><trkpt lat="33.5272917" lon="-7.6806583"><ele>88.80000000000001</ele><time>2026-04-26T17:39:57.378Z</time></trkpt><trkpt lat="33.52735" lon="-7.68057"><ele>89.0</ele><time>2026-04-26T17:39:58.378Z</time></trkpt><trkpt lat="33.527405" lon="-7.6804867"><ele>89.0</ele><time>2026-04-26T17:39:59.378Z</time></trkpt><trkpt lat="33.5274633" lon="-7.6803967"><ele>89.0</ele><time>2026-04-26T17:40:00.378Z</time></trkpt><trkpt lat="33.5275183" lon="-7.6803017"><ele>89.0</ele><time>2026-04-26T17:40:01.378Z</time></trkpt><trkpt lat="33.5275783" lon="-7.6802083"><ele>89.0</ele><time>2026-04-26T17:40:02.379Z</time></trkpt><trkpt lat="33.52764" lon="-7.6801083"><ele>89.0</ele><time>2026-04-26T17:40:03.378Z</time></trkpt><trkpt lat="33.5277" lon="-7.680005"><ele>89.0</ele><time>2026-04-26T17:40:04.378Z</time></trkpt><trkpt lat="33.5277667" lon="-7.6799083"><ele>89.0</ele><time>2026-04-26T17:40:05.378Z</time></trkpt><trkpt lat="33.5278367" lon="-7.679815"><ele>89.0</ele><time>2026-04-26T17:40:06.378Z</time></trkpt><trkpt lat="33.52791" lon="-7.67972"><ele>89.0</ele><time>2026-04-26T17:40:07.378Z</time></trkpt><trkpt lat="33.52798" lon="-7.67963"><ele>89.0</ele><time>2026-04-26T17:40:08.378Z</time></trkpt><trkpt lat="33.5280583" lon="-7.6795417"><ele>89.0</ele><time>2026-04-26T17:40:09.378Z</time></trkpt><trkpt lat="33.5281383" lon="-7.6794433"><ele>89.0</ele><time>2026-04-26T17:40:10.378Z</time></trkpt><trkpt lat="33.5282133" lon="-7.6793317"><ele>89.0</ele><time>2026-04-26T17:40:11.379Z</time></trkpt><trkpt lat="33.528285" lon="-7.6792267"><ele>89.0</ele><time>2026-04-26T17:40:12.378Z</time></trkpt><trkpt lat="33.5283633" lon="-7.6791083"><ele>88.75</ele><time>2026-04-26T17:40:13.378Z</time></trkpt><trkpt lat="33.5284367" lon="-7.6789833"><ele>88.5</ele><time>2026-04-26T17:40:14.379Z</time></trkpt><trkpt lat="33.5285133" lon="-7.6788517"><ele>88.25</ele><time>2026-04-26T17:40:15.378Z</time></trkpt><trkpt lat="33.5286" lon="-7.6787167"><ele>88.0</ele><time>2026-04-26T17:40:16.378Z</time></trkpt><trkpt lat="33.528685" lon="-7.6785783"><ele>88.5</ele><time>2026-04-26T17:40:17.378Z</time></trkpt><trkpt lat="33.52877" lon="-7.6784517"><ele>89.0</ele><time>2026-04-26T17:40:18.378Z</time></trkpt><trkpt lat="33.5288533" lon="-7.6783283"><ele>89.5</ele><time>2026-04-26T17:40:19.378Z</time></trkpt><trkpt lat="33.5289333" lon="-7.6782"><ele>90.0</ele><time>2026-04-26T17:40:20.378Z</time></trkpt><trkpt lat="33.5290183" lon="-7.678075"><ele>90.0</ele><time>2026-04-26T17:40:21.378Z</time></trkpt><trkpt lat="33.529105" lon="-7.6779467"><ele>90.0</ele><time>2026-04-26T17:40:22.378Z</time></trkpt><trkpt lat="33.5291867" lon="-7.6778217"><ele>90.0</ele><time>2026-04-26T17:40:23.378Z</time></trkpt><trkpt lat="33.5292667" lon="-7.677695"><ele>90.0</ele><time>2026-04-26T17:40:24.378Z</time></trkpt><trkpt lat="33.52935" lon="-7.67757"><ele>89.75</ele><time>2026-04-26T17:40:25.378Z</time></trkpt><trkpt lat="33.5294333" lon="-7.6774367"><ele>89.5</ele><time>2026-04-26T17:40:26.378Z</time></trkpt><trkpt lat="33.5295167" lon="-7.677295"><ele>89.25</ele><time>2026-04-26T17:40:27.378Z</time></trkpt><trkpt lat="33.5296033" lon="-7.67714"><ele>89.0</ele><time>2026-04-26T17:40:28.378Z</time></trkpt><trkpt lat="33.5296833" lon="-7.676985"><ele>89.25</ele><time>2026-04-26T17:40:29.378Z</time></trkpt><trkpt lat="33.5297633" lon="-7.676835"><ele>89.5</ele><time>2026-04-26T17:40:30.378Z</time></trkpt><trkpt lat="33.5298467" lon="-7.6766917"><ele>89.75</ele><time>2026-04-26T17:40:31.378Z</time></trkpt><trkpt lat="33.5299333" lon="-7.6765533"><ele>90.0</ele><time>2026-04-26T17:40:32.378Z</time></trkpt><trkpt lat="33.5300167" lon="-7.6764217"><ele>90.0</ele><time>2026-04-26T17:40:33.378Z</time></trkpt><trkpt lat="33.5300967" lon="-7.6762933"><ele>90.0</ele><time>2026-04-26T17:40:34.378Z</time></trkpt><trkpt lat="33.530165" lon="-7.6761717"><ele>90.0</ele><time>2026-04-26T17:40:35.378Z</time></trkpt><trkpt lat="33.5302317" lon="-7.6760483"><ele>90.0</ele><time>2026-04-26T17:40:36.378Z</time></trkpt><trkpt lat="33.5302967" lon="-7.67593"><ele>90.0</ele><time>2026-04-26T17:40:37.378Z</time></trkpt><trkpt lat="33.5303617" lon="-7.6758317"><ele>90.0</ele><time>2026-04-26T17:40:38.378Z</time></trkpt><trkpt lat="33.530425" lon="-7.675745"><ele>90.0</ele><time>2026-04-26T17:40:39.378Z</time></trkpt><trkpt lat="33.5304833" lon="-7.6756583"><ele>90.0</ele><time>2026-04-26T17:40:40.378Z</time></trkpt><trkpt lat="33.5305317" lon="-7.675575"><ele>90.0</ele><time>2026-04-26T17:40:41.378Z</time></trkpt><trkpt lat="33.5305733" lon="-7.6754917"><ele>90.0</ele><time>2026-04-26T17:40:42.378Z</time></trkpt><trkpt lat="33.53061" lon="-7.6754133"><ele>90.0</ele><time>2026-04-26T17:40:43.378Z</time></trkpt><trkpt lat="33.5306417" lon="-7.6753383"><ele>90.0</ele><time>2026-04-26T17:40:44.378Z</time></trkpt><trkpt lat="33.5306717" lon="-7.67527"><ele>90.0</ele><time>2026-04-26T17:40:45.378Z</time></trkpt><trkpt lat="33.5307317" lon="-7.67514"><ele>90.0</ele><time>2026-04-26T17:40:47.378Z</time></trkpt><trkpt lat="33.5307983" lon="-7.6750433"><ele>90.0</ele><time>2026-04-26T17:40:49.378Z</time></trkpt><trkpt lat="33.5308533" lon="-7.6749733"><ele>89.33333333333333</ele><time>2026-04-26T17:40:51.378Z</time></trkpt><trkpt lat="33.5308933" lon="-7.6748933"><ele>88.66666666666667</ele><time>2026-04-26T17:40:54.378Z</time></trkpt><trkpt lat="33.5309217" lon="-7.67481"><ele>88.0</ele><time>2026-04-26T17:40:56.378Z</time></trkpt><trkpt lat="33.5309583" lon="-7.674725"><ele>87.33333333333334</ele><time>2026-04-26T17:40:58.378Z</time></trkpt><trkpt lat="33.5309983" lon="-7.674665"><ele>86.66666666666667</ele><time>2026-04-26T17:41:02.379Z</time></trkpt><trkpt lat="33.5310483" lon="-7.674615"><ele>86.0</ele><time>2026-04-26T17:41:09.379Z</time></trkpt><trkpt lat="33.531125" lon="-7.6745083"><ele>86.0</ele><time>2026-04-26T17:41:11.378Z</time></trkpt><trkpt lat="33.531175" lon="-7.6744567"><ele>86.0</ele><time>2026-04-26T17:41:13.378Z</time></trkpt><trkpt lat="33.5312283" lon="-7.6743567"><ele>86.0</ele><time>2026-04-26T17:41:16.378Z</time></trkpt><trkpt lat="33.53128" lon="-7.674275"><ele>86.0</ele><time>2026-04-26T17:41:18.378Z</time></trkpt><trkpt lat="33.5313333" lon="-7.674195"><ele>86.0</ele><time>2026-04-26T17:41:20.378Z</time></trkpt><trkpt lat="33.5313767" lon="-7.6741133"><ele>86.0</ele><time>2026-04-26T17:41:22.378Z</time></trkpt><trkpt lat="33.5314117" lon="-7.67405"><ele>86.0</ele><time>2026-04-26T17:41:24.378Z</time></trkpt><trkpt lat="33.5314583" lon="-7.673975"><ele>86.0</ele><time>2026-04-26T17:41:27.378Z</time></trkpt><trkpt lat="33.5314967" lon="-7.6739083"><ele>86.0</ele><time>2026-04-26T17:41:31.378Z</time></trkpt><trkpt lat="33.5315383" lon="-7.6738283"><ele>86.0</ele><time>2026-04-26T17:41:42.378Z</time></trkpt><trkpt lat="33.5315667" lon="-7.673745"><ele>86.0</ele><time>2026-04-26T17:41:46.378Z</time></trkpt><trkpt lat="33.5316" lon="-7.67368"><ele>86.0</ele><time>2026-04-26T17:41:50.378Z</time></trkpt><trkpt lat="33.5316617" lon="-7.6736067"><ele>86.5</ele><time>2026-04-26T17:42:01.378Z</time></trkpt><trkpt lat="33.531715" lon="-7.67354"><ele>87.0</ele><time>2026-04-26T17:42:05.378Z</time></trkpt><trkpt lat="33.5317533" lon="-7.6734733"><ele>87.5</ele><time>2026-04-26T17:42:07.378Z</time></trkpt><trkpt lat="33.5318017" lon="-7.673375"><ele>88.0</ele><time>2026-04-26T17:42:09.378Z</time></trkpt><trkpt lat="33.5318433" lon="-7.6732983"><ele>88.5</ele><time>2026-04-26T17:42:11.378Z</time></trkpt><trkpt lat="33.5318767" lon="-7.6732283"><ele>89.0</ele><time>2026-04-26T17:42:14.378Z</time></trkpt><trkpt lat="33.5319233" lon="-7.6731683"><ele>88.99999999999999</ele><time>2026-04-26T17:42:18.378Z</time></trkpt><trkpt lat="33.53196" lon="-7.6731017"><ele>89.0</ele><time>2026-04-26T17:42:22.378Z</time></trkpt><trkpt lat="33.5319933" lon="-7.6730233"><ele>89.0</ele><time>2026-04-26T17:42:25.378Z</time></trkpt><trkpt lat="33.5320367" lon="-7.6729533"><ele>89.0</ele><time>2026-04-26T17:42:29.378Z</time></trkpt><trkpt lat="33.5320817" lon="-7.6728767"><ele>89.0</ele><time>2026-04-26T17:42:33.378Z</time></trkpt><trkpt lat="33.5321317" lon="-7.6728017"><ele>88.99999999999999</ele><time>2026-04-26T17:42:37.378Z</time></trkpt><trkpt lat="33.5321767" lon="-7.6727433"><ele>89.0</ele><time>2026-04-26T17:42:40.378Z</time></trkpt><trkpt lat="33.5322217" lon="-7.67267"><ele>89.0</ele><time>2026-04-26T17:42:43.378Z</time></trkpt><trkpt lat="33.5322917" lon="-7.67257"><ele>89.0</ele><time>2026-04-26T17:42:45.378Z</time></trkpt><trkpt lat="33.53233" lon="-7.6725"><ele>89.0</ele><time>2026-04-26T17:42:46.378Z</time></trkpt><trkpt lat="33.5323683" lon="-7.6724333"><ele>89.0</ele><time>2026-04-26T17:42:47.378Z</time></trkpt><trkpt lat="33.5324183" lon="-7.6723617"><ele>89.0</ele><time>2026-04-26T17:42:48.378Z</time></trkpt><trkpt lat="33.532475" lon="-7.6722783"><ele>89.0</ele><time>2026-04-26T17:42:49.378Z</time></trkpt><trkpt lat="33.53253" lon="-7.6721917"><ele>89.0</ele><time>2026-04-26T17:42:50.378Z</time></trkpt><trkpt lat="33.532585" lon="-7.672105"><ele>89.0</ele><time>2026-04-26T17:42:51.378Z</time></trkpt><trkpt lat="33.5326333" lon="-7.6720267"><ele>89.0</ele><time>2026-04-26T17:42:52.378Z</time></trkpt><trkpt lat="33.5326767" lon="-7.6719533"><ele>89.0</ele><time>2026-04-26T17:42:53.378Z</time></trkpt><trkpt lat="33.532725" lon="-7.6718717"><ele>89.0</ele><time>2026-04-26T17:42:54.378Z</time></trkpt><trkpt lat="33.5327733" lon="-7.6717833"><ele>89.0</ele><time>2026-04-26T17:42:55.378Z</time></trkpt><trkpt lat="33.532825" lon="-7.671695"><ele>89.16666666666667</ele><time>2026-04-26T17:42:56.378Z</time></trkpt><trkpt lat="33.5328767" lon="-7.6716117"><ele>89.33333333333334</ele><time>2026-04-26T17:42:57.378Z</time></trkpt><trkpt lat="33.5329217" lon="-7.6715333"><ele>89.5</ele><time>2026-04-26T17:42:58.378Z</time></trkpt><trkpt lat="33.53296" lon="-7.6714683"><ele>89.66666666666667</ele><time>2026-04-26T17:42:59.378Z</time></trkpt><trkpt lat="33.5330017" lon="-7.6714083"><ele>89.83333333333333</ele><time>2026-04-26T17:43:00.378Z</time></trkpt><trkpt lat="33.5330667" lon="-7.671285"><ele>90.0</ele><time>2026-04-26T17:43:02.378Z</time></trkpt><trkpt lat="33.53313" lon="-7.6711683"><ele>89.2</ele><time>2026-04-26T17:43:04.378Z</time></trkpt><trkpt lat="33.5332017" lon="-7.6710483"><ele>88.4</ele><time>2026-04-26T17:43:06.378Z</time></trkpt><trkpt lat="33.5332383" lon="-7.670985"><ele>87.6</ele><time>2026-04-26T17:43:07.379Z</time></trkpt><trkpt lat="33.5333067" lon="-7.6708683"><ele>86.8</ele><time>2026-04-26T17:43:09.378Z</time></trkpt><trkpt lat="33.53337" lon="-7.6707667"><ele>86.0</ele><time>2026-04-26T17:43:11.378Z</time></trkpt><trkpt lat="33.53341" lon="-7.6706967"><ele>86.0</ele><time>2026-04-26T17:43:13.378Z</time></trkpt><trkpt lat="33.5334633" lon="-7.670605"><ele>86.0</ele><time>2026-04-26T17:43:16.378Z</time></trkpt><trkpt lat="33.5335067" lon="-7.6705333"><ele>86.0</ele><time>2026-04-26T17:43:18.378Z</time></trkpt><trkpt lat="33.53356" lon="-7.6704283"><ele>86.0</ele><time>2026-04-26T17:43:20.378Z</time></trkpt><trkpt lat="33.5336183" lon="-7.6703067"><ele>86.0</ele><time>2026-04-26T17:43:22.378Z</time></trkpt><trkpt lat="33.5336917" lon="-7.670185"><ele>86.19999999999999</ele><time>2026-04-26T17:43:24.378Z</time></trkpt><trkpt lat="33.5337633" lon="-7.6700717"><ele>86.39999999999999</ele><time>2026-04-26T17:43:26.378Z</time></trkpt><trkpt lat="33.5338283" lon="-7.6699683"><ele>86.6</ele><time>2026-04-26T17:43:28.378Z</time></trkpt><trkpt lat="33.5339" lon="-7.669845"><ele>86.8</ele><time>2026-04-26T17:43:30.378Z</time></trkpt><trkpt lat="33.5339417" lon="-7.6697683"><ele>87.0</ele><time>2026-04-26T17:43:31.378Z</time></trkpt><trkpt lat="33.5339917" lon="-7.66968"><ele>87.0</ele><time>2026-04-26T17:43:32.378Z</time></trkpt><trkpt lat="33.5340483" lon="-7.669575"><ele>87.0</ele><time>2026-04-26T17:43:33.378Z</time></trkpt><trkpt lat="33.5341033" lon="-7.6694767"><ele>87.0</ele><time>2026-04-26T17:43:34.378Z</time></trkpt><trkpt lat="33.53416" lon="-7.669385"><ele>87.0</ele><time>2026-04-26T17:43:35.378Z</time></trkpt><trkpt lat="33.534215" lon="-7.6692933"><ele>87.0</ele><time>2026-04-26T17:43:36.378Z</time></trkpt><trkpt lat="33.5342717" lon="-7.6691983"><ele>87.0</ele><time>2026-04-26T17:43:37.378Z</time></trkpt><trkpt lat="33.53433" lon="-7.6690933"><ele>87.0</ele><time>2026-04-26T17:43:38.378Z</time></trkpt><trkpt lat="33.53439" lon="-7.668985"><ele>87.0</ele><time>2026-04-26T17:43:39.378Z</time></trkpt><trkpt lat="33.5344567" lon="-7.6688733"><ele>87.0</ele><time>2026-04-26T17:43:40.378Z</time></trkpt><trkpt lat="33.5345267" lon="-7.6687483"><ele>87.0</ele><time>2026-04-26T17:43:41.378Z</time></trkpt><trkpt lat="33.534595" lon="-7.6686167"><ele>87.0</ele><time>2026-04-26T17:43:42.379Z</time></trkpt><trkpt lat="33.534655" lon="-7.6684933"><ele>87.0</ele><time>2026-04-26T17:43:43.378Z</time></trkpt><trkpt lat="33.5347183" lon="-7.6683767"><ele>87.0</ele><time>2026-04-26T17:43:44.378Z</time></trkpt><trkpt lat="33.5347817" lon="-7.6682567"><ele>86.8</ele><time>2026-04-26T17:43:45.378Z</time></trkpt><trkpt lat="33.5348383" lon="-7.6681367"><ele>86.6</ele><time>2026-04-26T17:43:46.378Z</time></trkpt><trkpt lat="33.5348983" lon="-7.6680167"><ele>86.39999999999999</ele><time>2026-04-26T17:43:47.378Z</time></trkpt><trkpt lat="33.5349567" lon="-7.6679033"><ele>86.19999999999999</ele><time>2026-04-26T17:43:48.379Z</time></trkpt><trkpt lat="33.5350183" lon="-7.6678033"><ele>86.0</ele><time>2026-04-26T17:43:49.378Z</time></trkpt><trkpt lat="33.5350733" lon="-7.6677083"><ele>85.5</ele><time>2026-04-26T17:43:50.378Z</time></trkpt><trkpt lat="33.5351267" lon="-7.6676133"><ele>85.0</ele><time>2026-04-26T17:43:51.378Z</time></trkpt><trkpt lat="33.5351817" lon="-7.66752"><ele>84.5</ele><time>2026-04-26T17:43:52.378Z</time></trkpt><trkpt lat="33.5352283" lon="-7.6674367"><ele>84.0</ele><time>2026-04-26T17:43:53.378Z</time></trkpt><trkpt lat="33.5352767" lon="-7.66736"><ele>83.5</ele><time>2026-04-26T17:43:54.378Z</time></trkpt><trkpt lat="33.53531" lon="-7.6672933"><ele>83.0</ele><time>2026-04-26T17:43:55.378Z</time></trkpt><trkpt lat="33.53535" lon="-7.6672083"><ele>82.80000000000001</ele><time>2026-04-26T17:43:57.378Z</time></trkpt><trkpt lat="33.535415" lon="-7.6670917"><ele>82.6</ele><time>2026-04-26T17:44:13.378Z</time></trkpt><trkpt lat="33.5354717" lon="-7.6670117"><ele>82.4</ele><time>2026-04-26T17:44:14.378Z</time></trkpt><trkpt lat="33.5355417" lon="-7.6669083"><ele>82.19999999999999</ele><time>2026-04-26T17:44:15.378Z</time></trkpt><trkpt lat="33.5356233" lon="-7.6667867"><ele>82.0</ele><time>2026-04-26T17:44:16.378Z</time></trkpt><trkpt lat="33.535715" lon="-7.666655"><ele>81.5</ele><time>2026-04-26T17:44:17.378Z</time></trkpt><trkpt lat="33.5358033" lon="-7.666515"><ele>81.0</ele><time>2026-04-26T17:44:18.378Z</time></trkpt><trkpt lat="33.5358883" lon="-7.6663817"><ele>80.5</ele><time>2026-04-26T17:44:19.378Z</time></trkpt><trkpt lat="33.5359683" lon="-7.666245"><ele>80.0</ele><time>2026-04-26T17:44:20.378Z</time></trkpt><trkpt lat="33.5360433" lon="-7.66611"><ele>79.2</ele><time>2026-04-26T17:44:21.378Z</time></trkpt><trkpt lat="33.5361067" lon="-7.6659867"><ele>78.4</ele><time>2026-04-26T17:44:22.378Z</time></trkpt><trkpt lat="33.5361667" lon="-7.66587"><ele>77.6</ele><time>2026-04-26T17:44:23.378Z</time></trkpt><trkpt lat="33.536225" lon="-7.6657733"><ele>76.8</ele><time>2026-04-26T17:44:24.378Z</time></trkpt><trkpt lat="33.53627" lon="-7.6656917"><ele>76.0</ele><time>2026-04-26T17:44:25.378Z</time></trkpt><trkpt lat="33.536325" lon="-7.6655983"><ele>76.0</ele><time>2026-04-26T17:44:27.378Z</time></trkpt><trkpt lat="33.53642" lon="-7.665475"><ele>76.0</ele><time>2026-04-26T17:44:43.378Z</time></trkpt><trkpt lat="33.5364917" lon="-7.6653583"><ele>76.0</ele><time>2026-04-26T17:44:44.378Z</time></trkpt><trkpt lat="33.5365717" lon="-7.6652333"><ele>76.0</ele><time>2026-04-26T17:44:45.379Z</time></trkpt><trkpt lat="33.5366617" lon="-7.6650917"><ele>76.33333333333333</ele><time>2026-04-26T17:44:46.378Z</time></trkpt><trkpt lat="33.53676" lon="-7.6649417"><ele>76.66666666666667</ele><time>2026-04-26T17:44:47.378Z</time></trkpt><trkpt lat="33.53686" lon="-7.6647933"><ele>77.0</ele><time>2026-04-26T17:44:48.378Z</time></trkpt><trkpt lat="33.5369567" lon="-7.66465"><ele>77.0</ele><time>2026-04-26T17:44:49.378Z</time></trkpt><trkpt lat="33.5370517" lon="-7.6645083"><ele>77.0</ele><time>2026-04-26T17:44:50.378Z</time></trkpt><trkpt lat="33.53715" lon="-7.6643617"><ele>77.0</ele><time>2026-04-26T17:44:51.378Z</time></trkpt><trkpt lat="33.537245" lon="-7.6642017"><ele>76.0</ele><time>2026-04-26T17:44:52.378Z</time></trkpt><trkpt lat="33.5373433" lon="-7.6640283"><ele>75.0</ele><time>2026-04-26T17:44:53.378Z</time></trkpt><trkpt lat="33.5374483" lon="-7.6638633"><ele>74.0</ele><time>2026-04-26T17:44:54.378Z</time></trkpt><trkpt lat="33.537545" lon="-7.6636967"><ele>73.66666666666667</ele><time>2026-04-26T17:44:55.378Z</time></trkpt><trkpt lat="33.5376367" lon="-7.6635233"><ele>73.33333333333333</ele><time>2026-04-26T17:44:56.378Z</time></trkpt><trkpt lat="33.5377317" lon="-7.6633367"><ele>73.0</ele><time>2026-04-26T17:44:57.378Z</time></trkpt><trkpt lat="33.5378317" lon="-7.6631483"><ele>71.66666666666666</ele><time>2026-04-26T17:44:58.378Z</time></trkpt><trkpt lat="33.5379383" lon="-7.6629633"><ele>70.33333333333333</ele><time>2026-04-26T17:44:59.378Z</time></trkpt><trkpt lat="33.5380483" lon="-7.6627783"><ele>69.0</ele><time>2026-04-26T17:45:00.378Z</time></trkpt><trkpt lat="33.5381567" lon="-7.6625933"><ele>68.66666666666667</ele><time>2026-04-26T17:45:01.378Z</time></trkpt><trkpt lat="33.5382633" lon="-7.66242"><ele>68.33333333333334</ele><time>2026-04-26T17:45:02.378Z</time></trkpt><trkpt lat="33.5383683" lon="-7.6622317"><ele>68.0</ele><time>2026-04-26T17:45:03.378Z</time></trkpt><trkpt lat="33.5384683" lon="-7.662035"><ele>68.0</ele><time>2026-04-26T17:45:04.378Z</time></trkpt><trkpt lat="33.5385767" lon="-7.66186"><ele>68.0</ele><time>2026-04-26T17:45:05.378Z</time></trkpt><trkpt lat="33.538705" lon="-7.661685"><ele>68.0</ele><time>2026-04-26T17:45:06.378Z</time></trkpt><trkpt lat="33.53884" lon="-7.66152"><ele>68.0</ele><time>2026-04-26T17:45:07.378Z</time></trkpt><trkpt lat="33.5389333" lon="-7.6613117"><ele>68.0</ele><time>2026-04-26T17:45:08.379Z</time></trkpt><trkpt lat="33.5390433" lon="-7.6611233"><ele>68.0</ele><time>2026-04-26T17:45:09.378Z</time></trkpt><trkpt lat="33.5391533" lon="-7.6609333"><ele>68.0</ele><time>2026-04-26T17:45:10.378Z</time></trkpt><trkpt lat="33.5392483" lon="-7.6607533"><ele>68.0</ele><time>2026-04-26T17:45:11.378Z</time></trkpt><trkpt lat="33.5393383" lon="-7.6605783"><ele>68.0</ele><time>2026-04-26T17:45:12.379Z</time></trkpt><trkpt lat="33.5394317" lon="-7.660405"><ele>68.0</ele><time>2026-04-26T17:45:13.378Z</time></trkpt><trkpt lat="33.53953" lon="-7.6602267"><ele>68.0</ele><time>2026-04-26T17:45:14.378Z</time></trkpt><trkpt lat="33.5396267" lon="-7.66006"><ele>68.0</ele><time>2026-04-26T17:45:15.378Z</time></trkpt><trkpt lat="33.5397167" lon="-7.6598933"><ele>68.0</ele><time>2026-04-26T17:45:16.378Z</time></trkpt><trkpt lat="33.539805" lon="-7.6597383"><ele>68.0</ele><time>2026-04-26T17:45:17.378Z</time></trkpt><trkpt lat="33.5398967" lon="-7.6595733"><ele>68.0</ele><time>2026-04-26T17:45:18.378Z</time></trkpt><trkpt lat="33.5399967" lon="-7.659415"><ele>67.66666666666667</ele><time>2026-04-26T17:45:19.378Z</time></trkpt><trkpt lat="33.54009" lon="-7.659245"><ele>67.33333333333333</ele><time>2026-04-26T17:45:20.378Z</time></trkpt><trkpt lat="33.540185" lon="-7.6590833"><ele>67.0</ele><time>2026-04-26T17:45:21.378Z</time></trkpt><trkpt lat="33.540285" lon="-7.658915"><ele>66.66666666666666</ele><time>2026-04-26T17:45:22.378Z</time></trkpt><trkpt lat="33.5403933" lon="-7.658735"><ele>66.33333333333333</ele><time>2026-04-26T17:45:23.378Z</time></trkpt><trkpt lat="33.5405067" lon="-7.6585483"><ele>66.0</ele><time>2026-04-26T17:45:24.378Z</time></trkpt><trkpt lat="33.54063" lon="-7.65834"><ele>65.33333333333333</ele><time>2026-04-26T17:45:25.378Z</time></trkpt><trkpt lat="33.540765" lon="-7.6581383"><ele>64.66666666666666</ele><time>2026-04-26T17:45:26.378Z</time></trkpt><trkpt lat="33.5409017" lon="-7.6579483"><ele>64.0</ele><time>2026-04-26T17:45:27.378Z</time></trkpt><trkpt lat="33.5410183" lon="-7.6577467"><ele>64.0</ele><time>2026-04-26T17:45:28.378Z</time></trkpt><trkpt lat="33.54113" lon="-7.6575433"><ele>64.0</ele><time>2026-04-26T17:45:29.378Z</time></trkpt><trkpt lat="33.5412383" lon="-7.657345"><ele>64.0</ele><time>2026-04-26T17:45:30.378Z</time></trkpt><trkpt lat="33.54134" lon="-7.6571667"><ele>63.666666666666664</ele><time>2026-04-26T17:45:31.378Z</time></trkpt><trkpt lat="33.5414383" lon="-7.656985"><ele>63.33333333333333</ele><time>2026-04-26T17:45:32.378Z</time></trkpt><trkpt lat="33.5415367" lon="-7.6568117"><ele>63.0</ele><time>2026-04-26T17:45:33.378Z</time></trkpt><trkpt lat="33.541635" lon="-7.6566333"><ele>63.0</ele><time>2026-04-26T17:45:34.378Z</time></trkpt><trkpt lat="33.5417417" lon="-7.65646"><ele>63.0</ele><time>2026-04-26T17:45:35.378Z</time></trkpt><trkpt lat="33.541845" lon="-7.6562917"><ele>63.0</ele><time>2026-04-26T17:45:36.378Z</time></trkpt><trkpt lat="33.541955" lon="-7.6561167"><ele>63.33333333333333</ele><time>2026-04-26T17:45:37.378Z</time></trkpt><trkpt lat="33.54206" lon="-7.6559417"><ele>63.666666666666664</ele><time>2026-04-26T17:45:38.378Z</time></trkpt><trkpt lat="33.5421683" lon="-7.6557617"><ele>64.0</ele><time>2026-04-26T17:45:39.378Z</time></trkpt><trkpt lat="33.5422783" lon="-7.6555683"><ele>64.0</ele><time>2026-04-26T17:45:40.378Z</time></trkpt><trkpt lat="33.5423867" lon="-7.6553733"><ele>64.0</ele><time>2026-04-26T17:45:41.378Z</time></trkpt><trkpt lat="33.5424983" lon="-7.655195"><ele>64.0</ele><time>2026-04-26T17:45:42.378Z</time></trkpt><trkpt lat="33.5426033" lon="-7.6550117"><ele>64.0</ele><time>2026-04-26T17:45:43.378Z</time></trkpt><trkpt lat="33.5427083" lon="-7.6548267"><ele>64.0</ele><time>2026-04-26T17:45:44.378Z</time></trkpt><trkpt lat="33.5428167" lon="-7.654645"><ele>64.0</ele><time>2026-04-26T17:45:45.378Z</time></trkpt><trkpt lat="33.54293" lon="-7.654465"><ele>65.0</ele><time>2026-04-26T17:45:46.378Z</time></trkpt><trkpt lat="33.54304" lon="-7.6542867"><ele>66.0</ele><time>2026-04-26T17:45:47.378Z</time></trkpt><trkpt lat="33.543145" lon="-7.6540983"><ele>67.0</ele><time>2026-04-26T17:45:48.378Z</time></trkpt><trkpt lat="33.543255" lon="-7.6539133"><ele>67.0</ele><time>2026-04-26T17:45:49.378Z</time></trkpt><trkpt lat="33.54336" lon="-7.653725"><ele>67.0</ele><time>2026-04-26T17:45:50.379Z</time></trkpt><trkpt lat="33.5434683" lon="-7.6535417"><ele>67.0</ele><time>2026-04-26T17:45:51.378Z</time></trkpt><trkpt lat="33.5435683" lon="-7.653365"><ele>66.0</ele><time>2026-04-26T17:45:52.378Z</time></trkpt><trkpt lat="33.5436717" lon="-7.6531783"><ele>65.0</ele><time>2026-04-26T17:45:53.378Z</time></trkpt><trkpt lat="33.543795" lon="-7.6530167"><ele>64.0</ele><time>2026-04-26T17:45:54.378Z</time></trkpt><trkpt lat="33.5438967" lon="-7.65279"><ele>63.666666666666664</ele><time>2026-04-26T17:45:55.378Z</time></trkpt><trkpt lat="33.544" lon="-7.6525867"><ele>63.33333333333333</ele><time>2026-04-26T17:45:56.378Z</time></trkpt><trkpt lat="33.5441067" lon="-7.65239"><ele>63.0</ele><time>2026-04-26T17:45:57.378Z</time></trkpt><trkpt lat="33.5442167" lon="-7.6522017"><ele>63.0</ele><time>2026-04-26T17:45:58.378Z</time></trkpt><trkpt lat="33.5443383" lon="-7.65202"><ele>63.0</ele><time>2026-04-26T17:45:59.378Z</time></trkpt><trkpt lat="33.544455" lon="-7.6518317"><ele>63.0</ele><time>2026-04-26T17:46:00.378Z</time></trkpt><trkpt lat="33.5445783" lon="-7.6516417"><ele>62.33333333333333</ele><time>2026-04-26T17:46:01.379Z</time></trkpt><trkpt lat="33.5446933" lon="-7.65146"><ele>61.666666666666664</ele><time>2026-04-26T17:46:02.378Z</time></trkpt><trkpt lat="33.5448067" lon="-7.6512717"><ele>61.0</ele><time>2026-04-26T17:46:03.378Z</time></trkpt><trkpt lat="33.5449133" lon="-7.6510817"><ele>61.0</ele><time>2026-04-26T17:46:04.378Z</time></trkpt><trkpt lat="33.5450217" lon="-7.6508917"><ele>61.0</ele><time>2026-04-26T17:46:05.378Z</time></trkpt><trkpt lat="33.5451333" lon="-7.65071"><ele>61.0</ele><time>2026-04-26T17:46:06.378Z</time></trkpt><trkpt lat="33.5452467" lon="-7.6505317"><ele>61.0</ele><time>2026-04-26T17:46:07.378Z</time></trkpt><trkpt lat="33.5453567" lon="-7.650345"><ele>61.0</ele><time>2026-04-26T17:46:08.378Z</time></trkpt><trkpt lat="33.5454617" lon="-7.6501483"><ele>61.0</ele><time>2026-04-26T17:46:09.378Z</time></trkpt><trkpt lat="33.5455583" lon="-7.6499483"><ele>61.0</ele><time>2026-04-26T17:46:10.378Z</time></trkpt><trkpt lat="33.54563" lon="-7.6497467"><ele>61.0</ele><time>2026-04-26T17:46:11.378Z</time></trkpt><trkpt lat="33.54569" lon="-7.6495533"><ele>61.0</ele><time>2026-04-26T17:46:12.378Z</time></trkpt><trkpt lat="33.5457417" lon="-7.6493717"><ele>61.75</ele><time>2026-04-26T17:46:13.378Z</time></trkpt><trkpt lat="33.5457883" lon="-7.64921"><ele>62.5</ele><time>2026-04-26T17:46:14.378Z</time></trkpt><trkpt lat="33.54583" lon="-7.6490517"><ele>63.25</ele><time>2026-04-26T17:46:15.378Z</time></trkpt><trkpt lat="33.5458567" lon="-7.64889"><ele>64.0</ele><time>2026-04-26T17:46:16.378Z</time></trkpt><trkpt lat="33.545875" lon="-7.6487183"><ele>64.0</ele><time>2026-04-26T17:46:17.378Z</time></trkpt><trkpt lat="33.5459133" lon="-7.6485667"><ele>64.0</ele><time>2026-04-26T17:46:18.378Z</time></trkpt><trkpt lat="33.5459533" lon="-7.64842"><ele>64.0</ele><time>2026-04-26T17:46:19.378Z</time></trkpt><trkpt lat="33.5459883" lon="-7.648255"><ele>64.0</ele><time>2026-04-26T17:46:20.378Z</time></trkpt><trkpt lat="33.54606" lon="-7.6481217"><ele>64.0</ele><time>2026-04-26T17:46:21.378Z</time></trkpt><trkpt lat="33.5461" lon="-7.647965"><ele>64.0</ele><time>2026-04-26T17:46:22.378Z</time></trkpt><trkpt lat="33.5461417" lon="-7.647805"><ele>64.0</ele><time>2026-04-26T17:46:23.378Z</time></trkpt><trkpt lat="33.5462167" lon="-7.64767"><ele>64.0</ele><time>2026-04-26T17:46:24.378Z</time></trkpt><trkpt lat="33.5462917" lon="-7.6475617"><ele>63.25</ele><time>2026-04-26T17:46:25.378Z</time></trkpt><trkpt lat="33.546355" lon="-7.6474467"><ele>62.5</ele><time>2026-04-26T17:46:26.378Z</time></trkpt><trkpt lat="33.5464067" lon="-7.6473217"><ele>61.75</ele><time>2026-04-26T17:46:27.379Z</time></trkpt><trkpt lat="33.546445" lon="-7.6471867"><ele>61.0</ele><time>2026-04-26T17:46:28.378Z</time></trkpt><trkpt lat="33.5464817" lon="-7.647045"><ele>62.0</ele><time>2026-04-26T17:46:29.378Z</time></trkpt><trkpt lat="33.5465383" lon="-7.6469017"><ele>63.0</ele><time>2026-04-26T17:46:30.378Z</time></trkpt><trkpt lat="33.5465867" lon="-7.6467617"><ele>64.0</ele><time>2026-04-26T17:46:31.378Z</time></trkpt><trkpt lat="33.5466283" lon="-7.6466433"><ele>65.0</ele><time>2026-04-26T17:46:32.378Z</time></trkpt><trkpt lat="33.5466617" lon="-7.6465117"><ele>65.0</ele><time>2026-04-26T17:46:33.378Z</time></trkpt><trkpt lat="33.5467083" lon="-7.6463867"><ele>65.0</ele><time>2026-04-26T17:46:34.378Z</time></trkpt><trkpt lat="33.5467533" lon="-7.6462567"><ele>65.0</ele><time>2026-04-26T17:46:35.378Z</time></trkpt><trkpt lat="33.546815" lon="-7.6461367"><ele>65.0</ele><time>2026-04-26T17:46:36.378Z</time></trkpt><trkpt lat="33.5468867" lon="-7.6460333"><ele>63.75</ele><time>2026-04-26T17:46:37.378Z</time></trkpt><trkpt lat="33.5469767" lon="-7.6459417"><ele>62.5</ele><time>2026-04-26T17:46:38.378Z</time></trkpt><trkpt lat="33.5470683" lon="-7.6458617"><ele>61.25</ele><time>2026-04-26T17:46:39.378Z</time></trkpt><trkpt lat="33.5471717" lon="-7.6458"><ele>60.0</ele><time>2026-04-26T17:46:40.378Z</time></trkpt><trkpt lat="33.5472783" lon="-7.6457417"><ele>58.5</ele><time>2026-04-26T17:46:41.378Z</time></trkpt><trkpt lat="33.54739" lon="-7.64569"><ele>57.0</ele><time>2026-04-26T17:46:42.378Z</time></trkpt><trkpt lat="33.5474967" lon="-7.64564"><ele>55.5</ele><time>2026-04-26T17:46:43.378Z</time></trkpt><trkpt lat="33.5476" lon="-7.6455817"><ele>54.0</ele><time>2026-04-26T17:46:44.378Z</time></trkpt><trkpt lat="33.5476917" lon="-7.6455267"><ele>54.0</ele><time>2026-04-26T17:46:45.378Z</time></trkpt><trkpt lat="33.5477683" lon="-7.6454667"><ele>54.00000000000001</ele><time>2026-04-26T17:46:46.378Z</time></trkpt><trkpt lat="33.5478433" lon="-7.6453967"><ele>54.00000000000001</ele><time>2026-04-26T17:46:47.378Z</time></trkpt><trkpt lat="33.5479117" lon="-7.6453233"><ele>54.0</ele><time>2026-04-26T17:46:48.378Z</time></trkpt><trkpt lat="33.5479967" lon="-7.6452367"><ele>54.0</ele><time>2026-04-26T17:46:49.378Z</time></trkpt><trkpt lat="33.5480717" lon="-7.6451383"><ele>54.75</ele><time>2026-04-26T17:46:50.378Z</time></trkpt><trkpt lat="33.54815" lon="-7.6450267"><ele>55.5</ele><time>2026-04-26T17:46:51.378Z</time></trkpt><trkpt lat="33.548225" lon="-7.6449067"><ele>56.25</ele><time>2026-04-26T17:46:52.378Z</time></trkpt><trkpt lat="33.5482867" lon="-7.6448017"><ele>57.0</ele><time>2026-04-26T17:46:53.378Z</time></trkpt><trkpt lat="33.5483533" lon="-7.6446833"><ele>57.0</ele><time>2026-04-26T17:46:54.378Z</time></trkpt><trkpt lat="33.5484183" lon="-7.644585"><ele>57.0</ele><time>2026-04-26T17:46:55.378Z</time></trkpt><trkpt lat="33.5484883" lon="-7.6444617"><ele>57.0</ele><time>2026-04-26T17:46:56.378Z</time></trkpt><trkpt lat="33.5485683" lon="-7.644335"><ele>57.0</ele><time>2026-04-26T17:46:57.378Z</time></trkpt><trkpt lat="33.5486433" lon="-7.6442067"><ele>55.75</ele><time>2026-04-26T17:46:58.378Z</time></trkpt><trkpt lat="33.5487183" lon="-7.6440717"><ele>54.5</ele><time>2026-04-26T17:46:59.378Z</time></trkpt><trkpt lat="33.5487833" lon="-7.643945"><ele>53.25</ele><time>2026-04-26T17:47:00.378Z</time></trkpt><trkpt lat="33.5488217" lon="-7.643815"><ele>52.0</ele><time>2026-04-26T17:47:01.379Z</time></trkpt><trkpt lat="33.5488733" lon="-7.643695"><ele>52.6</ele><time>2026-04-26T17:47:02.378Z</time></trkpt><trkpt lat="33.5489483" lon="-7.64359"><ele>53.2</ele><time>2026-04-26T17:47:03.378Z</time></trkpt><trkpt lat="33.548995" lon="-7.6434783"><ele>53.8</ele><time>2026-04-26T17:47:04.378Z</time></trkpt><trkpt lat="33.5490367" lon="-7.6433583"><ele>54.4</ele><time>2026-04-26T17:47:05.378Z</time></trkpt><trkpt lat="33.5490533" lon="-7.6432383"><ele>55.0</ele><time>2026-04-26T17:47:06.378Z</time></trkpt><trkpt lat="33.549075" lon="-7.6431317"><ele>55.0</ele><time>2026-04-26T17:47:07.378Z</time></trkpt><trkpt lat="33.5491017" lon="-7.6430333"><ele>55.0</ele><time>2026-04-26T17:47:08.378Z</time></trkpt><trkpt lat="33.5491267" lon="-7.6429283"><ele>55.0</ele><time>2026-04-26T17:47:09.378Z</time></trkpt><trkpt lat="33.5491467" lon="-7.6428033"><ele>55.0</ele><time>2026-04-26T17:47:10.378Z</time></trkpt><trkpt lat="33.54916" lon="-7.6426883"><ele>55.0</ele><time>2026-04-26T17:47:11.378Z</time></trkpt><trkpt lat="33.54915" lon="-7.6425733"><ele>54.2</ele><time>2026-04-26T17:47:12.378Z</time></trkpt><trkpt lat="33.5491083" lon="-7.642465"><ele>53.4</ele><time>2026-04-26T17:47:13.378Z</time></trkpt><trkpt lat="33.54903" lon="-7.6423783"><ele>52.599999999999994</ele><time>2026-04-26T17:47:14.378Z</time></trkpt><trkpt lat="33.5489367" lon="-7.6423183"><ele>51.8</ele><time>2026-04-26T17:47:15.378Z</time></trkpt><trkpt lat="33.5488283" lon="-7.6422983"><ele>51.0</ele><time>2026-04-26T17:47:16.378Z</time></trkpt><trkpt lat="33.54872" lon="-7.6423267"><ele>51.599999999999994</ele><time>2026-04-26T17:47:17.378Z</time></trkpt><trkpt lat="33.5486233" lon="-7.6423833"><ele>52.2</ele><time>2026-04-26T17:47:18.378Z</time></trkpt><trkpt lat="33.54853" lon="-7.6424467"><ele>52.800000000000004</ele><time>2026-04-26T17:47:19.378Z</time></trkpt><trkpt lat="33.5484433" lon="-7.6425083"><ele>53.400000000000006</ele><time>2026-04-26T17:47:20.378Z</time></trkpt><trkpt lat="33.5483667" lon="-7.6425633"><ele>54.0</ele><time>2026-04-26T17:47:21.379Z</time></trkpt><trkpt lat="33.548305" lon="-7.6426183"><ele>54.0</ele><time>2026-04-26T17:47:22.378Z</time></trkpt><trkpt lat="33.5482483" lon="-7.6426883"><ele>54.0</ele><time>2026-04-26T17:47:23.378Z</time></trkpt><trkpt lat="33.5481983" lon="-7.6427683"><ele>54.0</ele><time>2026-04-26T17:47:24.378Z</time></trkpt><trkpt lat="33.54816" lon="-7.6428617"><ele>54.0</ele><time>2026-04-26T17:47:25.378Z</time></trkpt><trkpt lat="33.5481533" lon="-7.6429717"><ele>54.0</ele><time>2026-04-26T17:47:26.378Z</time></trkpt><trkpt lat="33.5481767" lon="-7.6430833"><ele>54.0</ele><time>2026-04-26T17:47:27.378Z</time></trkpt><trkpt lat="33.54821" lon="-7.6431817"><ele>54.2</ele><time>2026-04-26T17:47:28.378Z</time></trkpt><trkpt lat="33.5482667" lon="-7.6432583"><ele>54.400000000000006</ele><time>2026-04-26T17:47:29.378Z</time></trkpt><trkpt lat="33.54835" lon="-7.6433283"><ele>54.6</ele><time>2026-04-26T17:47:30.378Z</time></trkpt><trkpt lat="33.548445" lon="-7.6433867"><ele>54.8</ele><time>2026-04-26T17:47:31.378Z</time></trkpt><trkpt lat="33.5485467" lon="-7.6434383"><ele>55.0</ele><time>2026-04-26T17:47:32.379Z</time></trkpt><trkpt lat="33.5486583" lon="-7.6434833"><ele>55.0</ele><time>2026-04-26T17:47:33.378Z</time></trkpt><trkpt lat="33.548775" lon="-7.6435283"><ele>55.0</ele><time>2026-04-26T17:47:34.378Z</time></trkpt><trkpt lat="33.5489" lon="-7.6435683"><ele>55.0</ele><time>2026-04-26T17:47:35.379Z</time></trkpt><trkpt lat="33.5490367" lon="-7.6436083"><ele>55.0</ele><time>2026-04-26T17:47:36.378Z</time></trkpt><trkpt lat="33.5491867" lon="-7.6436483"><ele>54.0</ele><time>2026-04-26T17:47:37.378Z</time></trkpt><trkpt lat="33.5493483" lon="-7.64369"><ele>53.0</ele><time>2026-04-26T17:47:38.378Z</time></trkpt><trkpt lat="33.549515" lon="-7.64372"><ele>52.0</ele><time>2026-04-26T17:47:39.378Z</time></trkpt><trkpt lat="33.5496867" lon="-7.643745"><ele>52.0</ele><time>2026-04-26T17:47:40.378Z</time></trkpt><trkpt lat="33.5498417" lon="-7.6437683"><ele>52.0</ele><time>2026-04-26T17:47:41.378Z</time></trkpt><trkpt lat="33.5500017" lon="-7.643785"><ele>52.0</ele><time>2026-04-26T17:47:42.378Z</time></trkpt><trkpt lat="33.550165" lon="-7.6438033"><ele>52.0</ele><time>2026-04-26T17:47:43.378Z</time></trkpt><trkpt lat="33.5503317" lon="-7.6438217"><ele>52.0</ele><time>2026-04-26T17:47:44.378Z</time></trkpt><trkpt lat="33.5504917" lon="-7.6438433"><ele>52.0</ele><time>2026-04-26T17:47:45.378Z</time></trkpt><trkpt lat="33.55065" lon="-7.6438633"><ele>53.666666666666664</ele><time>2026-04-26T17:47:46.378Z</time></trkpt><trkpt lat="33.55081" lon="-7.64388"><ele>55.33333333333333</ele><time>2026-04-26T17:47:47.379Z</time></trkpt><trkpt lat="33.5509683" lon="-7.64389"><ele>57.0</ele><time>2026-04-26T17:47:48.378Z</time></trkpt><trkpt lat="33.551115" lon="-7.6439033"><ele>56.66666666666667</ele><time>2026-04-26T17:47:49.378Z</time></trkpt><trkpt lat="33.5512667" lon="-7.6439117"><ele>56.333333333333336</ele><time>2026-04-26T17:47:50.378Z</time></trkpt><trkpt lat="33.5514233" lon="-7.6439267"><ele>56.0</ele><time>2026-04-26T17:47:51.378Z</time></trkpt><trkpt lat="33.5515833" lon="-7.6439333"><ele>56.0</ele><time>2026-04-26T17:47:52.378Z</time></trkpt><trkpt lat="33.55174" lon="-7.643945"><ele>56.0</ele><time>2026-04-26T17:47:53.378Z</time></trkpt><trkpt lat="33.5518967" lon="-7.643955"><ele>56.0</ele><time>2026-04-26T17:47:54.378Z</time></trkpt><trkpt lat="33.552055" lon="-7.6439583"><ele>55.75</ele><time>2026-04-26T17:47:55.378Z</time></trkpt><trkpt lat="33.5522067" lon="-7.64397"><ele>55.5</ele><time>2026-04-26T17:47:56.378Z</time></trkpt><trkpt lat="33.5523517" lon="-7.6439767"><ele>55.25</ele><time>2026-04-26T17:47:57.378Z</time></trkpt><trkpt lat="33.552495" lon="-7.6439883"><ele>55.0</ele><time>2026-04-26T17:47:58.377Z</time></trkpt><trkpt lat="33.5526383" lon="-7.643995"><ele>55.0</ele><time>2026-04-26T17:47:59.377Z</time></trkpt><trkpt lat="33.5527783" lon="-7.644005"><ele>55.0</ele><time>2026-04-26T17:48:00.377Z</time></trkpt><trkpt lat="33.5529233" lon="-7.644015"><ele>55.0</ele><time>2026-04-26T17:48:01.377Z</time></trkpt><trkpt lat="33.5530733" lon="-7.6440233"><ele>55.0</ele><time>2026-04-26T17:48:02.377Z</time></trkpt><trkpt lat="33.5532233" lon="-7.6440383"><ele>55.5</ele><time>2026-04-26T17:48:03.377Z</time></trkpt><trkpt lat="33.5533733" lon="-7.6440533"><ele>56.0</ele><time>2026-04-26T17:48:04.378Z</time></trkpt><trkpt lat="33.5535167" lon="-7.6440667"><ele>56.5</ele><time>2026-04-26T17:48:05.377Z</time></trkpt><trkpt lat="33.5536617" lon="-7.6440767"><ele>57.0</ele><time>2026-04-26T17:48:06.378Z</time></trkpt><trkpt lat="33.5538033" lon="-7.6440917"><ele>57.0</ele><time>2026-04-26T17:48:07.378Z</time></trkpt><trkpt lat="33.5539483" lon="-7.644105"><ele>57.0</ele><time>2026-04-26T17:48:08.377Z</time></trkpt><trkpt lat="33.55409" lon="-7.644115"><ele>57.0</ele><time>2026-04-26T17:48:09.377Z</time></trkpt><trkpt lat="33.5542383" lon="-7.6441283"><ele>57.0</ele><time>2026-04-26T17:48:10.378Z</time></trkpt><trkpt lat="33.5543933" lon="-7.644145"><ele>56.0</ele><time>2026-04-26T17:48:11.377Z</time></trkpt><trkpt lat="33.554555" lon="-7.6441617"><ele>55.0</ele><time>2026-04-26T17:48:12.378Z</time></trkpt><trkpt lat="33.5547217" lon="-7.64417"><ele>54.0</ele><time>2026-04-26T17:48:13.377Z</time></trkpt><trkpt lat="33.554885" lon="-7.6441833"><ele>54.0</ele><time>2026-04-26T17:48:14.377Z</time></trkpt><trkpt lat="33.5550517" lon="-7.6442017"><ele>54.0</ele><time>2026-04-26T17:48:15.377Z</time></trkpt><trkpt lat="33.5552217" lon="-7.6442183"><ele>54.0</ele><time>2026-04-26T17:48:16.377Z</time></trkpt><trkpt lat="33.555395" lon="-7.6442383"><ele>52.66666666666667</ele><time>2026-04-26T17:48:17.377Z</time></trkpt><trkpt lat="33.5555567" lon="-7.64425"><ele>51.333333333333336</ele><time>2026-04-26T17:48:18.377Z</time></trkpt><trkpt lat="33.5557083" lon="-7.64426"><ele>50.0</ele><time>2026-04-26T17:48:19.377Z</time></trkpt><trkpt lat="33.5558583" lon="-7.6442817"><ele>50.0</ele><time>2026-04-26T17:48:20.377Z</time></trkpt><trkpt lat="33.55601" lon="-7.6442933"><ele>50.0</ele><time>2026-04-26T17:48:21.377Z</time></trkpt><trkpt lat="33.556165" lon="-7.6443017"><ele>50.0</ele><time>2026-04-26T17:48:22.377Z</time></trkpt><trkpt lat="33.55632" lon="-7.644315"><ele>50.0</ele><time>2026-04-26T17:48:23.377Z</time></trkpt><trkpt lat="33.5564717" lon="-7.644325"><ele>50.0</ele><time>2026-04-26T17:48:24.377Z</time></trkpt><trkpt lat="33.5566233" lon="-7.6443417"><ele>50.0</ele><time>2026-04-26T17:48:25.377Z</time></trkpt><trkpt lat="33.5567783" lon="-7.6443517"><ele>50.0</ele><time>2026-04-26T17:48:26.377Z</time></trkpt><trkpt lat="33.55693" lon="-7.6443633"><ele>50.0</ele><time>2026-04-26T17:48:27.377Z</time></trkpt><trkpt lat="33.5570867" lon="-7.6443733"><ele>50.0</ele><time>2026-04-26T17:48:28.377Z</time></trkpt><trkpt lat="33.5572433" lon="-7.6443817"><ele>50.0</ele><time>2026-04-26T17:48:29.377Z</time></trkpt><trkpt lat="33.5573983" lon="-7.64439"><ele>50.0</ele><time>2026-04-26T17:48:30.377Z</time></trkpt><trkpt lat="33.5575567" lon="-7.6443933"><ele>50.0</ele><time>2026-04-26T17:48:31.377Z</time></trkpt><trkpt lat="33.5577117" lon="-7.6444017"><ele>50.0</ele><time>2026-04-26T17:48:32.377Z</time></trkpt><trkpt lat="33.5578633" lon="-7.64441"><ele>50.0</ele><time>2026-04-26T17:48:33.377Z</time></trkpt><trkpt lat="33.55802" lon="-7.64442"><ele>50.0</ele><time>2026-04-26T17:48:34.377Z</time></trkpt><trkpt lat="33.55816" lon="-7.644435"><ele>50.0</ele><time>2026-04-26T17:48:35.377Z</time></trkpt><trkpt lat="33.558295" lon="-7.6444483"><ele>49.75</ele><time>2026-04-26T17:48:36.377Z</time></trkpt><trkpt lat="33.5584217" lon="-7.644465"><ele>49.5</ele><time>2026-04-26T17:48:37.377Z</time></trkpt><trkpt lat="33.558545" lon="-7.6444733"><ele>49.25</ele><time>2026-04-26T17:48:38.377Z</time></trkpt><trkpt lat="33.5586683" lon="-7.64449"><ele>49.0</ele><time>2026-04-26T17:48:39.377Z</time></trkpt><trkpt lat="33.5587833" lon="-7.6445017"><ele>48.666666666666664</ele><time>2026-04-26T17:48:40.377Z</time></trkpt><trkpt lat="33.5588883" lon="-7.6445"><ele>48.33333333333333</ele><time>2026-04-26T17:48:41.377Z</time></trkpt><trkpt lat="33.55899" lon="-7.6445083"><ele>48.0</ele><time>2026-04-26T17:48:42.377Z</time></trkpt><trkpt lat="33.5590733" lon="-7.6445167"><ele>47.666666666666664</ele><time>2026-04-26T17:48:43.377Z</time></trkpt><trkpt lat="33.5591433" lon="-7.6445117"><ele>47.33333333333333</ele><time>2026-04-26T17:48:44.377Z</time></trkpt><trkpt lat="33.5592067" lon="-7.6445083"><ele>47.0</ele><time>2026-04-26T17:48:45.377Z</time></trkpt><trkpt lat="33.55927" lon="-7.644505"><ele>47.0</ele><time>2026-04-26T17:48:46.377Z</time></trkpt><trkpt lat="33.559365" lon="-7.6445033"><ele>47.0</ele><time>2026-04-26T17:48:48.377Z</time></trkpt><trkpt lat="33.5594283" lon="-7.6445133"><ele>47.0</ele><time>2026-04-26T17:48:50.377Z</time></trkpt><trkpt lat="33.55952" lon="-7.644525"><ele>47.0</ele><time>2026-04-26T17:49:21.377Z</time></trkpt><trkpt lat="33.5595833" lon="-7.6445317"><ele>47.0</ele><time>2026-04-26T17:49:23.377Z</time></trkpt><trkpt lat="33.55967" lon="-7.6445367"><ele>47.0</ele><time>2026-04-26T17:49:25.377Z</time></trkpt><trkpt lat="33.5597767" lon="-7.644535"><ele>47.2</ele><time>2026-04-26T17:49:27.377Z</time></trkpt><trkpt lat="33.559845" lon="-7.6445383"><ele>47.400000000000006</ele><time>2026-04-26T17:49:28.377Z</time></trkpt><trkpt lat="33.5599183" lon="-7.6445467"><ele>47.599999999999994</ele><time>2026-04-26T17:49:29.377Z</time></trkpt><trkpt lat="33.5600067" lon="-7.644565"><ele>47.8</ele><time>2026-04-26T17:49:30.377Z</time></trkpt><trkpt lat="33.56011" lon="-7.6445833"><ele>48.0</ele><time>2026-04-26T17:49:31.377Z</time></trkpt><trkpt lat="33.560225" lon="-7.6445933"><ele>48.0</ele><time>2026-04-26T17:49:32.377Z</time></trkpt><trkpt lat="33.5603567" lon="-7.6445983"><ele>48.0</ele><time>2026-04-26T17:49:33.377Z</time></trkpt><trkpt lat="33.560495" lon="-7.6445867"><ele>48.0</ele><time>2026-04-26T17:49:34.377Z</time></trkpt><trkpt lat="33.5606283" lon="-7.6445683"><ele>48.0</ele><time>2026-04-26T17:49:35.377Z</time></trkpt><trkpt lat="33.560765" lon="-7.6445567"><ele>48.25</ele><time>2026-04-26T17:49:36.377Z</time></trkpt><trkpt lat="33.5608883" lon="-7.6445517"><ele>48.5</ele><time>2026-04-26T17:49:37.377Z</time></trkpt><trkpt lat="33.561005" lon="-7.6445483"><ele>48.75</ele><time>2026-04-26T17:49:38.378Z</time></trkpt><trkpt lat="33.5611167" lon="-7.644555"><ele>49.0</ele><time>2026-04-26T17:49:39.377Z</time></trkpt><trkpt lat="33.56122" lon="-7.6445583"><ele>49.0</ele><time>2026-04-26T17:49:40.377Z</time></trkpt><trkpt lat="33.56132" lon="-7.6445583"><ele>49.0</ele><time>2026-04-26T17:49:41.377Z</time></trkpt><trkpt lat="33.56142" lon="-7.6445517"><ele>49.0</ele><time>2026-04-26T17:49:42.377Z</time></trkpt><trkpt lat="33.5615117" lon="-7.6445483"><ele>49.0</ele><time>2026-04-26T17:49:43.377Z</time></trkpt><trkpt lat="33.5615967" lon="-7.6445467"><ele>49.0</ele><time>2026-04-26T17:49:44.377Z</time></trkpt><trkpt lat="33.56167" lon="-7.6445417"><ele>48.99999999999999</ele><time>2026-04-26T17:49:45.377Z</time></trkpt><trkpt lat="33.5617467" lon="-7.6445367"><ele>49.0</ele><time>2026-04-26T17:49:46.377Z</time></trkpt><trkpt lat="33.5618233" lon="-7.6445367"><ele>49.0</ele><time>2026-04-26T17:49:47.377Z</time></trkpt><trkpt lat="33.5618933" lon="-7.64454"><ele>49.0</ele><time>2026-04-26T17:49:48.377Z</time></trkpt><trkpt lat="33.56198" lon="-7.6445283"><ele>48.99999999999999</ele><time>2026-04-26T17:49:50.377Z</time></trkpt><trkpt lat="33.5620733" lon="-7.64452"><ele>49.0</ele><time>2026-04-26T17:49:58.377Z</time></trkpt><trkpt lat="33.5621917" lon="-7.6445183"><ele>49.0</ele><time>2026-04-26T17:50:00.377Z</time></trkpt><trkpt lat="33.562325" lon="-7.6445217"><ele>49.0</ele><time>2026-04-26T17:50:02.377Z</time></trkpt><trkpt lat="33.56241" lon="-7.6445183"><ele>49.0</ele><time>2026-04-26T17:50:03.377Z</time></trkpt><trkpt lat="33.5624933" lon="-7.6445133"><ele>49.0</ele><time>2026-04-26T17:50:04.377Z</time></trkpt><trkpt lat="33.56258" lon="-7.644505"><ele>49.0</ele><time>2026-04-26T17:50:05.377Z</time></trkpt><trkpt lat="33.56266" lon="-7.6445"><ele>48.99999999999999</ele><time>2026-04-26T17:50:06.377Z</time></trkpt><trkpt lat="33.5627267" lon="-7.6444933"><ele>49.0</ele><time>2026-04-26T17:50:07.377Z</time></trkpt><trkpt lat="33.5628517" lon="-7.6444883"><ele>49.0</ele><time>2026-04-26T17:50:09.377Z</time></trkpt><trkpt lat="33.562925" lon="-7.644485"><ele>49.0</ele><time>2026-04-26T17:50:10.377Z</time></trkpt><trkpt lat="33.563" lon="-7.6444767"><ele>48.99999999999999</ele><time>2026-04-26T17:50:11.377Z</time></trkpt><trkpt lat="33.56307" lon="-7.6444683"><ele>49.0</ele><time>2026-04-26T17:50:12.377Z</time></trkpt><trkpt lat="33.5631717" lon="-7.6444633"><ele>48.83333333333333</ele><time>2026-04-26T17:50:14.377Z</time></trkpt><trkpt lat="33.5632533" lon="-7.64446"><ele>48.666666666666664</ele><time>2026-04-26T17:50:17.377Z</time></trkpt><trkpt lat="33.56334" lon="-7.6444383"><ele>48.5</ele><time>2026-04-26T17:50:27.377Z</time></trkpt><trkpt lat="33.5634617" lon="-7.64443"><ele>48.33333333333333</ele><time>2026-04-26T17:50:36.377Z</time></trkpt><trkpt lat="33.5635283" lon="-7.644415"><ele>48.166666666666664</ele><time>2026-04-26T17:50:39.377Z</time></trkpt><trkpt lat="33.5636083" lon="-7.6444117"><ele>48.0</ele><time>2026-04-26T17:50:50.377Z</time></trkpt><trkpt lat="33.56368" lon="-7.6444133"><ele>47.5</ele><time>2026-04-26T17:50:52.377Z</time></trkpt><trkpt lat="33.5637583" lon="-7.644425"><ele>47.0</ele><time>2026-04-26T17:50:53.377Z</time></trkpt><trkpt lat="33.5638783" lon="-7.6444333"><ele>46.5</ele><time>2026-04-26T17:50:54.377Z</time></trkpt><trkpt lat="33.564035" lon="-7.6444267"><ele>46.0</ele><time>2026-04-26T17:50:55.377Z</time></trkpt><trkpt lat="33.5642217" lon="-7.6444117"><ele>46.0</ele><time>2026-04-26T17:50:56.377Z</time></trkpt><trkpt lat="33.56441" lon="-7.6444"><ele>46.0</ele><time>2026-04-26T17:50:57.377Z</time></trkpt><trkpt lat="33.5645883" lon="-7.644385"><ele>46.0</ele><time>2026-04-26T17:50:58.377Z</time></trkpt><trkpt lat="33.5647717" lon="-7.6443733"><ele>45.333333333333336</ele><time>2026-04-26T17:50:59.377Z</time></trkpt><trkpt lat="33.5649567" lon="-7.6443617"><ele>44.666666666666664</ele><time>2026-04-26T17:51:00.377Z</time></trkpt><trkpt lat="33.5651417" lon="-7.6443417"><ele>44.0</ele><time>2026-04-26T17:51:01.378Z</time></trkpt><trkpt lat="33.5653233" lon="-7.6443217"><ele>44.0</ele><time>2026-04-26T17:51:02.377Z</time></trkpt><trkpt lat="33.565495" lon="-7.644315"><ele>44.0</ele><time>2026-04-26T17:51:03.377Z</time></trkpt><trkpt lat="33.5656567" lon="-7.6443083"><ele>44.0</ele><time>2026-04-26T17:51:04.377Z</time></trkpt><trkpt lat="33.5658083" lon="-7.6443117"><ele>44.0</ele><time>2026-04-26T17:51:05.377Z</time></trkpt><trkpt lat="33.5659567" lon="-7.6443117"><ele>44.0</ele><time>2026-04-26T17:51:06.377Z</time></trkpt><trkpt lat="33.5660933" lon="-7.644295"><ele>44.0</ele><time>2026-04-26T17:51:07.377Z</time></trkpt><trkpt lat="33.5662417" lon="-7.644285"><ele>44.0</ele><time>2026-04-26T17:51:08.377Z</time></trkpt><trkpt lat="33.5663767" lon="-7.6442833"><ele>44.0</ele><time>2026-04-26T17:51:09.377Z</time></trkpt><trkpt lat="33.566515" lon="-7.644275"><ele>44.0</ele><time>2026-04-26T17:51:10.377Z</time></trkpt><trkpt lat="33.5666467" lon="-7.6442717"><ele>44.0</ele><time>2026-04-26T17:51:11.377Z</time></trkpt><trkpt lat="33.5667717" lon="-7.6442583"><ele>44.0</ele><time>2026-04-26T17:51:12.377Z</time></trkpt><trkpt lat="33.566895" lon="-7.64424"><ele>44.0</ele><time>2026-04-26T17:51:13.377Z</time></trkpt><trkpt lat="33.5670233" lon="-7.644235"><ele>44.0</ele><time>2026-04-26T17:51:14.377Z</time></trkpt><trkpt lat="33.5671533" lon="-7.6442283"><ele>44.0</ele><time>2026-04-26T17:51:15.377Z</time></trkpt><trkpt lat="33.5672917" lon="-7.6442317"><ele>44.0</ele><time>2026-04-26T17:51:16.377Z</time></trkpt><trkpt lat="33.5674267" lon="-7.64423"><ele>43.75</ele><time>2026-04-26T17:51:17.377Z</time></trkpt><trkpt lat="33.5675517" lon="-7.6442217"><ele>43.5</ele><time>2026-04-26T17:51:18.377Z</time></trkpt><trkpt lat="33.5676833" lon="-7.6442167"><ele>43.25</ele><time>2026-04-26T17:51:19.377Z</time></trkpt><trkpt lat="33.56782" lon="-7.6442133"><ele>43.0</ele><time>2026-04-26T17:51:20.377Z</time></trkpt><trkpt lat="33.56796" lon="-7.6442067"><ele>43.0</ele><time>2026-04-26T17:51:21.377Z</time></trkpt><trkpt lat="33.5680983" lon="-7.6442017"><ele>43.0</ele><time>2026-04-26T17:51:22.377Z</time></trkpt><trkpt lat="33.5682367" lon="-7.6441933"><ele>43.0</ele><time>2026-04-26T17:51:23.377Z</time></trkpt><trkpt lat="33.5683733" lon="-7.6441867"><ele>43.0</ele><time>2026-04-26T17:51:24.377Z</time></trkpt><trkpt lat="33.5685117" lon="-7.6441783"><ele>43.0</ele><time>2026-04-26T17:51:25.377Z</time></trkpt><trkpt lat="33.5686567" lon="-7.6441617"><ele>43.0</ele><time>2026-04-26T17:51:26.377Z</time></trkpt><trkpt lat="33.5687983" lon="-7.6441433"><ele>43.0</ele><time>2026-04-26T17:51:27.377Z</time></trkpt><trkpt lat="33.5689317" lon="-7.6441367"><ele>43.0</ele><time>2026-04-26T17:51:28.377Z</time></trkpt><trkpt lat="33.56907" lon="-7.644135"><ele>43.0</ele><time>2026-04-26T17:51:29.377Z</time></trkpt><trkpt lat="33.569205" lon="-7.6441133"><ele>43.0</ele><time>2026-04-26T17:51:30.377Z</time></trkpt><trkpt lat="33.569365" lon="-7.6440917"><ele>43.0</ele><time>2026-04-26T17:51:31.377Z</time></trkpt><trkpt lat="33.5695333" lon="-7.6440567"><ele>43.66666666666667</ele><time>2026-04-26T17:51:32.377Z</time></trkpt><trkpt lat="33.569695" lon="-7.6439917"><ele>44.333333333333336</ele><time>2026-04-26T17:51:33.377Z</time></trkpt><trkpt lat="33.5698317" lon="-7.6438983"><ele>45.0</ele><time>2026-04-26T17:51:34.377Z</time></trkpt><trkpt lat="33.5699467" lon="-7.6437933"><ele>45.0</ele><time>2026-04-26T17:51:35.377Z</time></trkpt><trkpt lat="33.57006" lon="-7.6436833"><ele>45.0</ele><time>2026-04-26T17:51:36.377Z</time></trkpt><trkpt lat="33.5701933" lon="-7.643575"><ele>45.0</ele><time>2026-04-26T17:51:37.377Z</time></trkpt><trkpt lat="33.570315" lon="-7.6434633"><ele>44.5</ele><time>2026-04-26T17:51:38.377Z</time></trkpt><trkpt lat="33.570425" lon="-7.6433617"><ele>44.0</ele><time>2026-04-26T17:51:39.377Z</time></trkpt><trkpt lat="33.5705233" lon="-7.6432667"><ele>43.5</ele><time>2026-04-26T17:51:40.377Z</time></trkpt><trkpt lat="33.5706217" lon="-7.643175"><ele>43.0</ele><time>2026-04-26T17:51:41.377Z</time></trkpt><trkpt lat="33.570715" lon="-7.6430917"><ele>43.0</ele><time>2026-04-26T17:51:42.377Z</time></trkpt><trkpt lat="33.5708083" lon="-7.643005"><ele>43.0</ele><time>2026-04-26T17:51:43.377Z</time></trkpt><trkpt lat="33.5709" lon="-7.642915"><ele>43.0</ele><time>2026-04-26T17:51:44.377Z</time></trkpt><trkpt lat="33.5709983" lon="-7.6428283"><ele>43.0</ele><time>2026-04-26T17:51:45.377Z</time></trkpt><trkpt lat="33.57109" lon="-7.6427383"><ele>43.0</ele><time>2026-04-26T17:51:46.377Z</time></trkpt><trkpt lat="33.571195" lon="-7.6426517"><ele>43.0</ele><time>2026-04-26T17:51:47.377Z</time></trkpt><trkpt lat="33.571295" lon="-7.64255"><ele>43.0</ele><time>2026-04-26T17:51:48.377Z</time></trkpt><trkpt lat="33.5713967" lon="-7.6424533"><ele>43.0</ele><time>2026-04-26T17:51:49.377Z</time></trkpt><trkpt lat="33.5714983" lon="-7.6423633"><ele>43.0</ele><time>2026-04-26T17:51:50.377Z</time></trkpt><trkpt lat="33.5715967" lon="-7.64228"><ele>43.0</ele><time>2026-04-26T17:51:51.377Z</time></trkpt><trkpt lat="33.5716983" lon="-7.6422083"><ele>43.0</ele><time>2026-04-26T17:51:52.377Z</time></trkpt><trkpt lat="33.5718017" lon="-7.6421233"><ele>43.0</ele><time>2026-04-26T17:51:53.377Z</time></trkpt><trkpt lat="33.571905" lon="-7.64204"><ele>43.4</ele><time>2026-04-26T17:51:54.377Z</time></trkpt><trkpt lat="33.5719933" lon="-7.64196"><ele>43.8</ele><time>2026-04-26T17:51:55.378Z</time></trkpt><trkpt lat="33.5720867" lon="-7.6419"><ele>44.2</ele><time>2026-04-26T17:51:56.377Z</time></trkpt><trkpt lat="33.57218" lon="-7.64184"><ele>44.6</ele><time>2026-04-26T17:51:57.377Z</time></trkpt><trkpt lat="33.5722683" lon="-7.6417767"><ele>45.0</ele><time>2026-04-26T17:51:58.377Z</time></trkpt><trkpt lat="33.572355" lon="-7.6417133"><ele>44.166666666666664</ele><time>2026-04-26T17:51:59.377Z</time></trkpt><trkpt lat="33.5724233" lon="-7.6416583"><ele>43.333333333333336</ele><time>2026-04-26T17:52:00.377Z</time></trkpt><trkpt lat="33.5724833" lon="-7.6416117"><ele>42.5</ele><time>2026-04-26T17:52:01.378Z</time></trkpt><trkpt lat="33.5725833" lon="-7.641555"><ele>41.66666666666667</ele><time>2026-04-26T17:52:03.377Z</time></trkpt><trkpt lat="33.5726383" lon="-7.6415067"><ele>40.833333333333336</ele><time>2026-04-26T17:52:05.377Z</time></trkpt><trkpt lat="33.5727017" lon="-7.6414467"><ele>40.0</ele><time>2026-04-26T17:52:14.377Z</time></trkpt><trkpt lat="33.57279" lon="-7.6413767"><ele>40.0</ele><time>2026-04-26T17:52:16.377Z</time></trkpt><trkpt lat="33.572845" lon="-7.6413217"><ele>40.0</ele><time>2026-04-26T17:52:17.377Z</time></trkpt><trkpt lat="33.572905" lon="-7.6412683"><ele>40.0</ele><time>2026-04-26T17:52:18.377Z</time></trkpt><trkpt lat="33.5729667" lon="-7.641215"><ele>40.0</ele><time>2026-04-26T17:52:19.377Z</time></trkpt><trkpt lat="33.57303" lon="-7.6411617"><ele>40.0</ele><time>2026-04-26T17:52:20.377Z</time></trkpt><trkpt lat="33.5730917" lon="-7.6411133"><ele>40.0</ele><time>2026-04-26T17:52:21.377Z</time></trkpt><trkpt lat="33.5731517" lon="-7.6410667"><ele>40.0</ele><time>2026-04-26T17:52:22.377Z</time></trkpt><trkpt lat="33.57321" lon="-7.6410233"><ele>40.66666666666667</ele><time>2026-04-26T17:52:23.377Z</time></trkpt><trkpt lat="33.573265" lon="-7.6409817"><ele>41.333333333333336</ele><time>2026-04-26T17:52:24.377Z</time></trkpt><trkpt lat="33.57332" lon="-7.6409417"><ele>42.0</ele><time>2026-04-26T17:52:25.377Z</time></trkpt><trkpt lat="33.573425" lon="-7.6408667"><ele>42.666666666666664</ele><time>2026-04-26T17:52:27.377Z</time></trkpt><trkpt lat="33.5735183" lon="-7.6408067"><ele>43.33333333333333</ele><time>2026-04-26T17:52:29.377Z</time></trkpt><trkpt lat="33.57359" lon="-7.6407417"><ele>44.0</ele><time>2026-04-26T17:52:31.377Z</time></trkpt><trkpt lat="33.5736583" lon="-7.6406783"><ele>44.400000000000006</ele><time>2026-04-26T17:52:33.377Z</time></trkpt><trkpt lat="33.57376" lon="-7.6405917"><ele>44.8</ele><time>2026-04-26T17:52:35.377Z</time></trkpt><trkpt lat="33.5738283" lon="-7.6405383"><ele>45.2</ele><time>2026-04-26T17:52:36.377Z</time></trkpt><trkpt lat="33.5739033" lon="-7.6404767"><ele>45.599999999999994</ele><time>2026-04-26T17:52:37.377Z</time></trkpt><trkpt lat="33.5739883" lon="-7.6404033"><ele>46.0</ele><time>2026-04-26T17:52:38.377Z</time></trkpt><trkpt lat="33.574075" lon="-7.64034"><ele>45.4</ele><time>2026-04-26T17:52:39.377Z</time></trkpt><trkpt lat="33.5741533" lon="-7.6402733"><ele>44.8</ele><time>2026-04-26T17:52:40.377Z</time></trkpt><trkpt lat="33.57424" lon="-7.640205"><ele>44.199999999999996</ele><time>2026-04-26T17:52:41.377Z</time></trkpt><trkpt lat="33.57433" lon="-7.6401433"><ele>43.599999999999994</ele><time>2026-04-26T17:52:42.377Z</time></trkpt><trkpt lat="33.5744267" lon="-7.6400783"><ele>43.0</ele><time>2026-04-26T17:52:43.378Z</time></trkpt><trkpt lat="33.574515" lon="-7.64001"><ele>42.8</ele><time>2026-04-26T17:52:44.377Z</time></trkpt><trkpt lat="33.5746067" lon="-7.6399433"><ele>42.599999999999994</ele><time>2026-04-26T17:52:45.377Z</time></trkpt><trkpt lat="33.574695" lon="-7.63988"><ele>42.400000000000006</ele><time>2026-04-26T17:52:46.377Z</time></trkpt><trkpt lat="33.5747817" lon="-7.639815"><ele>42.2</ele><time>2026-04-26T17:52:47.377Z</time></trkpt><trkpt lat="33.5748517" lon="-7.639745"><ele>42.0</ele><time>2026-04-26T17:52:48.377Z</time></trkpt><trkpt lat="33.5749167" lon="-7.639685"><ele>42.0</ele><time>2026-04-26T17:52:49.377Z</time></trkpt><trkpt lat="33.5749733" lon="-7.6396283"><ele>42.0</ele><time>2026-04-26T17:52:50.377Z</time></trkpt><trkpt lat="33.5750483" lon="-7.63956"><ele>42.0</ele><time>2026-04-26T17:52:52.377Z</time></trkpt><trkpt lat="33.5750967" lon="-7.63951"><ele>42.0</ele><time>2026-04-26T17:52:55.377Z</time></trkpt><trkpt lat="33.57515" lon="-7.6393933"><ele>42.0</ele><time>2026-04-26T17:53:12.377Z</time></trkpt><trkpt lat="33.57524" lon="-7.6393267"><ele>42.0</ele><time>2026-04-26T17:53:14.377Z</time></trkpt><trkpt lat="33.5753517" lon="-7.63926"><ele>41.166666666666664</ele><time>2026-04-26T17:53:16.377Z</time></trkpt><trkpt lat="33.57541" lon="-7.6392233"><ele>40.333333333333336</ele><time>2026-04-26T17:53:17.377Z</time></trkpt><trkpt lat="33.57547" lon="-7.639185"><ele>39.5</ele><time>2026-04-26T17:53:18.377Z</time></trkpt><trkpt lat="33.575575" lon="-7.6391083"><ele>38.66666666666667</ele><time>2026-04-26T17:53:20.377Z</time></trkpt><trkpt lat="33.57563" lon="-7.6390667"><ele>37.833333333333336</ele><time>2026-04-26T17:53:21.377Z</time></trkpt><trkpt lat="33.5756933" lon="-7.639025"><ele>37.0</ele><time>2026-04-26T17:53:22.377Z</time></trkpt><trkpt lat="33.575755" lon="-7.638975"><ele>37.0</ele><time>2026-04-26T17:53:23.377Z</time></trkpt><trkpt lat="33.5758233" lon="-7.6389267"><ele>37.0</ele><time>2026-04-26T17:53:24.377Z</time></trkpt><trkpt lat="33.5758867" lon="-7.6388817"><ele>37.0</ele><time>2026-04-26T17:53:25.377Z</time></trkpt><trkpt lat="33.57596" lon="-7.638835"><ele>37.0</ele><time>2026-04-26T17:53:26.377Z</time></trkpt><trkpt lat="33.576015" lon="-7.6387867"><ele>37.0</ele><time>2026-04-26T17:53:27.377Z</time></trkpt><trkpt lat="33.5760717" lon="-7.638735"><ele>37.0</ele><time>2026-04-26T17:53:28.377Z</time></trkpt><trkpt lat="33.5761317" lon="-7.6386933"><ele>37.0</ele><time>2026-04-26T17:53:29.377Z</time></trkpt><trkpt lat="33.57619" lon="-7.6386467"><ele>37.16666666666667</ele><time>2026-04-26T17:53:30.377Z</time></trkpt><trkpt lat="33.5762517" lon="-7.6385933"><ele>37.333333333333336</ele><time>2026-04-26T17:53:31.377Z</time></trkpt><trkpt lat="33.5763083" lon="-7.6385533"><ele>37.5</ele><time>2026-04-26T17:53:32.377Z</time></trkpt><trkpt lat="33.5763683" lon="-7.6384967"><ele>37.666666666666664</ele><time>2026-04-26T17:53:33.378Z</time></trkpt><trkpt lat="33.576435" lon="-7.6384417"><ele>37.83333333333333</ele><time>2026-04-26T17:53:34.377Z</time></trkpt><trkpt lat="33.5765017" lon="-7.6383833"><ele>38.0</ele><time>2026-04-26T17:53:35.377Z</time></trkpt><trkpt lat="33.5765783" lon="-7.638325"><ele>38.0</ele><time>2026-04-26T17:53:36.377Z</time></trkpt><trkpt lat="33.5766467" lon="-7.6382633"><ele>38.0</ele><time>2026-04-26T17:53:37.377Z</time></trkpt><trkpt lat="33.5767133" lon="-7.6382033"><ele>38.0</ele><time>2026-04-26T17:53:38.378Z</time></trkpt><trkpt lat="33.5767917" lon="-7.63815"><ele>38.0</ele><time>2026-04-26T17:53:39.377Z</time></trkpt><trkpt lat="33.576855" lon="-7.6380883"><ele>38.0</ele><time>2026-04-26T17:53:40.377Z</time></trkpt><trkpt lat="33.57691" lon="-7.638025"><ele>38.0</ele><time>2026-04-26T17:53:41.377Z</time></trkpt><trkpt lat="33.5769617" lon="-7.6379667"><ele>38.0</ele><time>2026-04-26T17:53:42.377Z</time></trkpt><trkpt lat="33.5770117" lon="-7.6379133"><ele>38.0</ele><time>2026-04-26T17:53:43.377Z</time></trkpt><trkpt lat="33.5770867" lon="-7.63782"><ele>38.0</ele><time>2026-04-26T17:53:45.377Z</time></trkpt><trkpt lat="33.577145" lon="-7.637755"><ele>38.0</ele><time>2026-04-26T17:53:47.377Z</time></trkpt><trkpt lat="33.577215" lon="-7.6377083"><ele>38.0</ele><time>2026-04-26T17:53:49.377Z</time></trkpt><trkpt lat="33.5772733" lon="-7.637665"><ele>38.0</ele><time>2026-04-26T17:53:51.377Z</time></trkpt><trkpt lat="33.57733" lon="-7.6376267"><ele>37.8</ele><time>2026-04-26T17:53:53.377Z</time></trkpt><trkpt lat="33.5773867" lon="-7.6375833"><ele>37.599999999999994</ele><time>2026-04-26T17:53:55.378Z</time></trkpt><trkpt lat="33.5774617" lon="-7.637525"><ele>37.400000000000006</ele><time>2026-04-26T17:53:57.377Z</time></trkpt><trkpt lat="33.5775567" lon="-7.6374433"><ele>37.2</ele><time>2026-04-26T17:53:59.377Z</time></trkpt><trkpt lat="33.5776567" lon="-7.6373533"><ele>37.0</ele><time>2026-04-26T17:54:01.377Z</time></trkpt><trkpt lat="33.5777117" lon="-7.6373133"><ele>37.0</ele><time>2026-04-26T17:54:02.377Z</time></trkpt><trkpt lat="33.5777717" lon="-7.637255"><ele>37.0</ele><time>2026-04-26T17:54:03.377Z</time></trkpt><trkpt lat="33.57783" lon="-7.6371867"><ele>37.0</ele><time>2026-04-26T17:54:04.377Z</time></trkpt><trkpt lat="33.5779017" lon="-7.637115"><ele>37.0</ele><time>2026-04-26T17:54:05.377Z</time></trkpt><trkpt lat="33.5779767" lon="-7.6370383"><ele>37.0</ele><time>2026-04-26T17:54:06.377Z</time></trkpt><trkpt lat="33.57806" lon="-7.6369617"><ele>37.4</ele><time>2026-04-26T17:54:07.377Z</time></trkpt><trkpt lat="33.5781417" lon="-7.6368883"><ele>37.800000000000004</ele><time>2026-04-26T17:54:08.377Z</time></trkpt><trkpt lat="33.5782167" lon="-7.63682"><ele>38.2</ele><time>2026-04-26T17:54:09.377Z</time></trkpt><trkpt lat="33.5782983" lon="-7.6367567"><ele>38.6</ele><time>2026-04-26T17:54:10.377Z</time></trkpt><trkpt lat="33.5783883" lon="-7.6366933"><ele>39.0</ele><time>2026-04-26T17:54:11.377Z</time></trkpt><trkpt lat="33.5784817" lon="-7.63662"><ele>39.0</ele><time>2026-04-26T17:54:12.377Z</time></trkpt><trkpt lat="33.5785783" lon="-7.6365383"><ele>39.0</ele><time>2026-04-26T17:54:13.377Z</time></trkpt><trkpt lat="33.5786717" lon="-7.6364617"><ele>39.0</ele><time>2026-04-26T17:54:14.377Z</time></trkpt><trkpt lat="33.5787667" lon="-7.636385"><ele>39.0</ele><time>2026-04-26T17:54:15.377Z</time></trkpt><trkpt lat="33.5788567" lon="-7.6363117"><ele>38.6</ele><time>2026-04-26T17:54:16.377Z</time></trkpt><trkpt lat="33.57894" lon="-7.6362383"><ele>38.2</ele><time>2026-04-26T17:54:17.377Z</time></trkpt><trkpt lat="33.5790183" lon="-7.636165"><ele>37.800000000000004</ele><time>2026-04-26T17:54:18.377Z</time></trkpt><trkpt lat="33.5790867" lon="-7.6360867"><ele>37.4</ele><time>2026-04-26T17:54:19.377Z</time></trkpt><trkpt lat="33.5791633" lon="-7.6360083"><ele>37.0</ele><time>2026-04-26T17:54:20.377Z</time></trkpt><trkpt lat="33.5792433" lon="-7.6359367"><ele>36.6</ele><time>2026-04-26T17:54:21.377Z</time></trkpt><trkpt lat="33.5793217" lon="-7.6358667"><ele>36.2</ele><time>2026-04-26T17:54:22.377Z</time></trkpt><trkpt lat="33.5794033" lon="-7.6358"><ele>35.8</ele><time>2026-04-26T17:54:23.377Z</time></trkpt><trkpt lat="33.5794867" lon="-7.63573"><ele>35.4</ele><time>2026-04-26T17:54:24.377Z</time></trkpt><trkpt lat="33.5795833" lon="-7.6356617"><ele>35.0</ele><time>2026-04-26T17:54:25.377Z</time></trkpt><trkpt lat="33.579655" lon="-7.6355617"><ele>35.0</ele><time>2026-04-26T17:54:26.377Z</time></trkpt><trkpt lat="33.5797267" lon="-7.6354767"><ele>35.0</ele><time>2026-04-26T17:54:27.377Z</time></trkpt><trkpt lat="33.5797967" lon="-7.6354033"><ele>35.0</ele><time>2026-04-26T17:54:28.377Z</time></trkpt><trkpt lat="33.57986" lon="-7.6353333"><ele>35.0</ele><time>2026-04-26T17:54:29.377Z</time></trkpt><trkpt lat="33.57992" lon="-7.6352717"><ele>35.0</ele><time>2026-04-26T17:54:30.377Z</time></trkpt><trkpt lat="33.5799783" lon="-7.63521"><ele>35.0</ele><time>2026-04-26T17:54:31.377Z</time></trkpt><trkpt lat="33.5800367" lon="-7.6351517"><ele>35.0</ele><time>2026-04-26T17:54:32.377Z</time></trkpt><trkpt lat="33.5801017" lon="-7.6350867"><ele>35.0</ele><time>2026-04-26T17:54:33.377Z</time></trkpt><trkpt lat="33.5801633" lon="-7.6350183"><ele>35.0</ele><time>2026-04-26T17:54:34.377Z</time></trkpt><trkpt lat="33.58022" lon="-7.6349633"><ele>35.0</ele><time>2026-04-26T17:54:35.377Z</time></trkpt><trkpt lat="33.58029" lon="-7.6348967"><ele>35.0</ele><time>2026-04-26T17:54:37.377Z</time></trkpt><trkpt lat="33.58034" lon="-7.6348367"><ele>35.0</ele><time>2026-04-26T17:54:41.377Z</time></trkpt><trkpt lat="33.5804067" lon="-7.6347583"><ele>35.0</ele><time>2026-04-26T17:54:44.377Z</time></trkpt><trkpt lat="33.5804567" lon="-7.6347"><ele>35.0</ele><time>2026-04-26T17:54:46.377Z</time></trkpt><trkpt lat="33.5805283" lon="-7.63463"><ele>35.0</ele><time>2026-04-26T17:54:48.377Z</time></trkpt><trkpt lat="33.5806067" lon="-7.6345533"><ele>35.0</ele><time>2026-04-26T17:54:50.377Z</time></trkpt><trkpt lat="33.5806667" lon="-7.6345017"><ele>35.0</ele><time>2026-04-26T17:54:52.377Z</time></trkpt><trkpt lat="33.580735" lon="-7.6344267"><ele>35.0</ele><time>2026-04-26T17:54:56.377Z</time></trkpt><trkpt lat="33.5807983" lon="-7.6343717"><ele>34.666666666666664</ele><time>2026-04-26T17:54:58.378Z</time></trkpt><trkpt lat="33.5808933" lon="-7.6342883"><ele>34.33333333333333</ele><time>2026-04-26T17:55:00.377Z</time></trkpt><trkpt lat="33.5809467" lon="-7.6342333"><ele>34.0</ele><time>2026-04-26T17:55:01.377Z</time></trkpt><trkpt lat="33.5810033" lon="-7.63418"><ele>33.666666666666664</ele><time>2026-04-26T17:55:02.377Z</time></trkpt><trkpt lat="33.5810633" lon="-7.634125"><ele>33.333333333333336</ele><time>2026-04-26T17:55:03.378Z</time></trkpt><trkpt lat="33.581115" lon="-7.6340717"><ele>33.0</ele><time>2026-04-26T17:55:04.377Z</time></trkpt><trkpt lat="33.581165" lon="-7.6340183"><ele>33.0</ele><time>2026-04-26T17:55:05.377Z</time></trkpt><trkpt lat="33.5812183" lon="-7.6339617"><ele>33.0</ele><time>2026-04-26T17:55:06.377Z</time></trkpt><trkpt lat="33.5812733" lon="-7.6339017"><ele>33.0</ele><time>2026-04-26T17:55:07.377Z</time></trkpt><trkpt lat="33.5813233" lon="-7.6338433"><ele>33.0</ele><time>2026-04-26T17:55:08.377Z</time></trkpt><trkpt lat="33.5814017" lon="-7.6337517"><ele>33.0</ele><time>2026-04-26T17:55:10.377Z</time></trkpt><trkpt lat="33.5814817" lon="-7.6336417"><ele>33.0</ele><time>2026-04-26T17:55:12.377Z</time></trkpt><trkpt lat="33.5815367" lon="-7.6335833"><ele>33.0</ele><time>2026-04-26T17:55:13.377Z</time></trkpt><trkpt lat="33.5815867" lon="-7.6335317"><ele>33.0</ele><time>2026-04-26T17:55:14.377Z</time></trkpt><trkpt lat="33.581635" lon="-7.6334817"><ele>33.0</ele><time>2026-04-26T17:55:15.377Z</time></trkpt><trkpt lat="33.5817283" lon="-7.6333833"><ele>33.0</ele><time>2026-04-26T17:55:17.377Z</time></trkpt><trkpt lat="33.58178" lon="-7.63334"><ele>33.0</ele><time>2026-04-26T17:55:18.377Z</time></trkpt><trkpt lat="33.5818433" lon="-7.633285"><ele>33.0</ele><time>2026-04-26T17:55:19.377Z</time></trkpt><trkpt lat="33.58191" lon="-7.6332117"><ele>33.0</ele><time>2026-04-26T17:55:20.377Z</time></trkpt><trkpt lat="33.5819733" lon="-7.6331333"><ele>33.0</ele><time>2026-04-26T17:55:21.377Z</time></trkpt><trkpt lat="33.5820267" lon="-7.6330567"><ele>33.0</ele><time>2026-04-26T17:55:22.377Z</time></trkpt><trkpt lat="33.582095" lon="-7.6329833"><ele>33.0</ele><time>2026-04-26T17:55:23.377Z</time></trkpt><trkpt lat="33.582165" lon="-7.6329133"><ele>33.0</ele><time>2026-04-26T17:55:24.378Z</time></trkpt><trkpt lat="33.5822417" lon="-7.6328467"><ele>33.0</ele><time>2026-04-26T17:55:25.377Z</time></trkpt><trkpt lat="33.5823417" lon="-7.6327983"><ele>33.0</ele><time>2026-04-26T17:55:26.377Z</time></trkpt><trkpt lat="33.5824317" lon="-7.6327483"><ele>33.0</ele><time>2026-04-26T17:55:27.377Z</time></trkpt><trkpt lat="33.5825033" lon="-7.6326933"><ele>33.0</ele><time>2026-04-26T17:55:28.377Z</time></trkpt><trkpt lat="33.582565" lon="-7.6326217"><ele>33.0</ele><time>2026-04-26T17:55:29.377Z</time></trkpt><trkpt lat="33.5826317" lon="-7.6325433"><ele>33.0</ele><time>2026-04-26T17:55:30.377Z</time></trkpt><trkpt lat="33.5826967" lon="-7.6324617"><ele>33.0</ele><time>2026-04-26T17:55:31.377Z</time></trkpt><trkpt lat="33.5827633" lon="-7.632385"><ele>33.0</ele><time>2026-04-26T17:55:32.376Z</time></trkpt><trkpt lat="33.5828417" lon="-7.63232"><ele>33.0</ele><time>2026-04-26T17:55:33.376Z</time></trkpt><trkpt lat="33.5829117" lon="-7.6322533"><ele>33.0</ele><time>2026-04-26T17:55:34.377Z</time></trkpt><trkpt lat="33.5829833" lon="-7.63219"><ele>33.0</ele><time>2026-04-26T17:55:35.376Z</time></trkpt><trkpt lat="33.5830533" lon="-7.6321283"><ele>33.0</ele><time>2026-04-26T17:55:36.376Z</time></trkpt><trkpt lat="33.583115" lon="-7.63206"><ele>33.0</ele><time>2026-04-26T17:55:37.376Z</time></trkpt><trkpt lat="33.5831783" lon="-7.6319967"><ele>33.0</ele><time>2026-04-26T17:55:38.376Z</time></trkpt><trkpt lat="33.583245" lon="-7.6319383"><ele>33.0</ele><time>2026-04-26T17:55:39.376Z</time></trkpt><trkpt lat="33.5833033" lon="-7.631875"><ele>33.0</ele><time>2026-04-26T17:55:40.376Z</time></trkpt><trkpt lat="33.5833567" lon="-7.6318067"><ele>33.199999999999996</ele><time>2026-04-26T17:55:41.376Z</time></trkpt><trkpt lat="33.583405" lon="-7.631755"><ele>33.4</ele><time>2026-04-26T17:55:42.376Z</time></trkpt><trkpt lat="33.5834917" lon="-7.63168"><ele>33.599999999999994</ele><time>2026-04-26T17:55:44.376Z</time></trkpt><trkpt lat="33.5835783" lon="-7.6316067"><ele>33.8</ele><time>2026-04-26T17:55:46.376Z</time></trkpt><trkpt lat="33.5836767" lon="-7.6315383"><ele>34.0</ele><time>2026-04-26T17:55:48.376Z</time></trkpt><trkpt lat="33.5837383" lon="-7.63149"><ele>34.25</ele><time>2026-04-26T17:55:49.376Z</time></trkpt><trkpt lat="33.5838067" lon="-7.6314283"><ele>34.5</ele><time>2026-04-26T17:55:50.376Z</time></trkpt><trkpt lat="33.5838833" lon="-7.6313567"><ele>34.75</ele><time>2026-04-26T17:55:51.376Z</time></trkpt><trkpt lat="33.583985" lon="-7.6312517"><ele>35.0</ele><time>2026-04-26T17:55:52.376Z</time></trkpt><trkpt lat="33.5841" lon="-7.6311283"><ele>34.75</ele><time>2026-04-26T17:55:53.376Z</time></trkpt><trkpt lat="33.5842217" lon="-7.6310083"><ele>34.5</ele><time>2026-04-26T17:55:54.376Z</time></trkpt><trkpt lat="33.58433" lon="-7.6309017"><ele>34.25</ele><time>2026-04-26T17:55:55.376Z</time></trkpt><trkpt lat="33.5844333" lon="-7.63081"><ele>34.0</ele><time>2026-04-26T17:55:56.377Z</time></trkpt><trkpt lat="33.5845167" lon="-7.6307083"><ele>34.0</ele><time>2026-04-26T17:55:57.376Z</time></trkpt><trkpt lat="33.5846" lon="-7.6306117"><ele>34.0</ele><time>2026-04-26T17:55:58.376Z</time></trkpt><trkpt lat="33.5846817" lon="-7.63052"><ele>34.0</ele><time>2026-04-26T17:55:59.376Z</time></trkpt><trkpt lat="33.5847617" lon="-7.6304333"><ele>34.0</ele><time>2026-04-26T17:56:00.376Z</time></trkpt><trkpt lat="33.5848417" lon="-7.630355"><ele>34.0</ele><time>2026-04-26T17:56:01.376Z</time></trkpt><trkpt lat="33.5849233" lon="-7.630285"><ele>33.66666666666667</ele><time>2026-04-26T17:56:02.376Z</time></trkpt><trkpt lat="33.5849933" lon="-7.63021"><ele>33.333333333333336</ele><time>2026-04-26T17:56:03.376Z</time></trkpt><trkpt lat="33.5850467" lon="-7.6301317"><ele>33.0</ele><time>2026-04-26T17:56:04.376Z</time></trkpt><trkpt lat="33.5850917" lon="-7.6300783"><ele>32.666666666666664</ele><time>2026-04-26T17:56:05.376Z</time></trkpt><trkpt lat="33.5851467" lon="-7.6300067"><ele>32.33333333333333</ele><time>2026-04-26T17:56:07.376Z</time></trkpt><trkpt lat="33.585225" lon="-7.6299333"><ele>32.0</ele><time>2026-04-26T17:56:57.376Z</time></trkpt><trkpt lat="33.5852917" lon="-7.629855"><ele>31.666666666666664</ele><time>2026-04-26T17:56:59.376Z</time></trkpt><trkpt lat="33.5853567" lon="-7.629775"><ele>31.333333333333332</ele><time>2026-04-26T17:57:01.377Z</time></trkpt><trkpt lat="33.58541" lon="-7.6297117"><ele>31.0</ele><time>2026-04-26T17:57:03.376Z</time></trkpt><trkpt lat="33.58546" lon="-7.6296517"><ele>30.666666666666664</ele><time>2026-04-26T17:57:05.376Z</time></trkpt><trkpt lat="33.58551" lon="-7.6295617"><ele>30.333333333333332</ele><time>2026-04-26T17:57:14.376Z</time></trkpt><trkpt lat="33.5855567" lon="-7.629505"><ele>30.0</ele><time>2026-04-26T17:57:18.376Z</time></trkpt><trkpt lat="33.5856433" lon="-7.629425"><ele>28.666666666666664</ele><time>2026-04-26T17:57:35.376Z</time></trkpt><trkpt lat="33.5857683" lon="-7.629355"><ele>27.333333333333332</ele><time>2026-04-26T17:57:37.376Z</time></trkpt><trkpt lat="33.5859117" lon="-7.6292367"><ele>26.0</ele><time>2026-04-26T17:57:38.376Z</time></trkpt><trkpt lat="33.5860883" lon="-7.6290833"><ele>26.666666666666664</ele><time>2026-04-26T17:57:39.376Z</time></trkpt><trkpt lat="33.58625" lon="-7.6289233"><ele>27.333333333333336</ele><time>2026-04-26T17:57:40.376Z</time></trkpt><trkpt lat="33.5863867" lon="-7.6287733"><ele>28.0</ele><time>2026-04-26T17:57:41.377Z</time></trkpt><trkpt lat="33.586495" lon="-7.628645"><ele>28.0</ele><time>2026-04-26T17:57:42.376Z</time></trkpt><trkpt lat="33.5865817" lon="-7.6285417"><ele>27.999999999999996</ele><time>2026-04-26T17:57:43.376Z</time></trkpt><trkpt lat="33.5866683" lon="-7.628455"><ele>27.999999999999996</ele><time>2026-04-26T17:57:44.376Z</time></trkpt><trkpt lat="33.5867483" lon="-7.628375"><ele>28.0</ele><time>2026-04-26T17:57:45.376Z</time></trkpt><trkpt lat="33.5868367" lon="-7.6283033"><ele>28.0</ele><time>2026-04-26T17:57:46.376Z</time></trkpt><trkpt lat="33.5869267" lon="-7.62824"><ele>28.0</ele><time>2026-04-26T17:57:47.376Z</time></trkpt><trkpt lat="33.58701" lon="-7.6281733"><ele>27.999999999999996</ele><time>2026-04-26T17:57:48.376Z</time></trkpt><trkpt lat="33.5870967" lon="-7.6280983"><ele>27.999999999999996</ele><time>2026-04-26T17:57:49.376Z</time></trkpt><trkpt lat="33.5871767" lon="-7.628025"><ele>28.0</ele><time>2026-04-26T17:57:50.376Z</time></trkpt><trkpt lat="33.5872483" lon="-7.6279567"><ele>28.0</ele><time>2026-04-26T17:57:51.376Z</time></trkpt><trkpt lat="33.5873183" lon="-7.6278917"><ele>28.166666666666668</ele><time>2026-04-26T17:57:52.376Z</time></trkpt><trkpt lat="33.5873817" lon="-7.6278283"><ele>28.333333333333336</ele><time>2026-04-26T17:57:53.376Z</time></trkpt><trkpt lat="33.587435" lon="-7.6277717"><ele>28.5</ele><time>2026-04-26T17:57:54.376Z</time></trkpt><trkpt lat="33.58749" lon="-7.6277167"><ele>28.666666666666664</ele><time>2026-04-26T17:57:55.376Z</time></trkpt><trkpt lat="33.5875433" lon="-7.6276683"><ele>28.833333333333332</ele><time>2026-04-26T17:57:56.376Z</time></trkpt><trkpt lat="33.5876167" lon="-7.6276117"><ele>29.0</ele><time>2026-04-26T17:57:58.376Z</time></trkpt><trkpt lat="33.5876717" lon="-7.6275483"><ele>29.0</ele><time>2026-04-26T17:58:29.376Z</time></trkpt><trkpt lat="33.58779" lon="-7.6274767"><ele>29.0</ele><time>2026-04-26T17:58:30.376Z</time></trkpt><trkpt lat="33.58793" lon="-7.627375"><ele>29.0</ele><time>2026-04-26T17:58:31.376Z</time></trkpt><trkpt lat="33.588075" lon="-7.6272783"><ele>29.0</ele><time>2026-04-26T17:58:32.376Z</time></trkpt><trkpt lat="33.5881967" lon="-7.6271783"><ele>29.0</ele><time>2026-04-26T17:58:33.376Z</time></trkpt><trkpt lat="33.5883" lon="-7.6270783"><ele>29.0</ele><time>2026-04-26T17:58:34.376Z</time></trkpt><trkpt lat="33.5884" lon="-7.6269983"><ele>29.0</ele><time>2026-04-26T17:58:35.376Z</time></trkpt><trkpt lat="33.58849" lon="-7.626925"><ele>29.0</ele><time>2026-04-26T17:58:36.376Z</time></trkpt><trkpt lat="33.5885683" lon="-7.6268533"><ele>29.0</ele><time>2026-04-26T17:58:37.376Z</time></trkpt><trkpt lat="33.5886433" lon="-7.626795"><ele>29.0</ele><time>2026-04-26T17:58:38.376Z</time></trkpt><trkpt lat="33.5887183" lon="-7.626725"><ele>29.0</ele><time>2026-04-26T17:58:39.376Z</time></trkpt><trkpt lat="33.5887967" lon="-7.626655"><ele>29.0</ele><time>2026-04-26T17:58:40.376Z</time></trkpt><trkpt lat="33.5888667" lon="-7.6265833"><ele>28.999999999999996</ele><time>2026-04-26T17:58:41.376Z</time></trkpt><trkpt lat="33.5889367" lon="-7.6265183"><ele>29.0</ele><time>2026-04-26T17:58:42.376Z</time></trkpt><trkpt lat="33.5889967" lon="-7.62645"><ele>29.0</ele><time>2026-04-26T17:58:43.376Z</time></trkpt><trkpt lat="33.5890583" lon="-7.62639"><ele>29.0</ele><time>2026-04-26T17:58:44.376Z</time></trkpt><trkpt lat="33.5891217" lon="-7.626335"><ele>28.999999999999996</ele><time>2026-04-26T17:58:45.376Z</time></trkpt><trkpt lat="33.589175" lon="-7.6262867"><ele>29.0</ele><time>2026-04-26T17:58:46.376Z</time></trkpt><trkpt lat="33.5892317" lon="-7.626235"><ele>28.999999999999996</ele><time>2026-04-26T17:58:47.377Z</time></trkpt><trkpt lat="33.58928" lon="-7.62618"><ele>29.0</ele><time>2026-04-26T17:58:48.376Z</time></trkpt><trkpt lat="33.5893267" lon="-7.6261283"><ele>29.0</ele><time>2026-04-26T17:58:49.376Z</time></trkpt><trkpt lat="33.5894117" lon="-7.62606"><ele>29.0</ele><time>2026-04-26T17:58:51.376Z</time></trkpt><trkpt lat="33.589455" lon="-7.625965"><ele>28.999999999999996</ele><time>2026-04-26T17:58:53.376Z</time></trkpt><trkpt lat="33.589465" lon="-7.625865"><ele>29.0</ele><time>2026-04-26T17:58:55.376Z</time></trkpt><trkpt lat="33.5894783" lon="-7.625775"><ele>28.833333333333332</ele><time>2026-04-26T17:58:57.376Z</time></trkpt><trkpt lat="33.5895083" lon="-7.6256867"><ele>28.666666666666664</ele><time>2026-04-26T17:58:59.376Z</time></trkpt><trkpt lat="33.58956" lon="-7.6256367"><ele>28.5</ele><time>2026-04-26T17:59:01.376Z</time></trkpt><trkpt lat="33.5896333" lon="-7.6256317"><ele>28.333333333333336</ele><time>2026-04-26T17:59:03.376Z</time></trkpt><trkpt lat="33.5897183" lon="-7.625695"><ele>28.166666666666668</ele><time>2026-04-26T17:59:05.376Z</time></trkpt><trkpt lat="33.5897683" lon="-7.6257567"><ele>28.0</ele><time>2026-04-26T17:59:06.376Z</time></trkpt><trkpt lat="33.5898183" lon="-7.6258317"><ele>29.166666666666668</ele><time>2026-04-26T17:59:07.376Z</time></trkpt><trkpt lat="33.5898733" lon="-7.6259067"><ele>30.333333333333336</ele><time>2026-04-26T17:59:08.376Z</time></trkpt><trkpt lat="33.58992" lon="-7.625985"><ele>31.5</ele><time>2026-04-26T17:59:09.376Z</time></trkpt><trkpt lat="33.5899667" lon="-7.62606"><ele>32.666666666666664</ele><time>2026-04-26T17:59:10.376Z</time></trkpt><trkpt lat="33.59001" lon="-7.6261483"><ele>33.83333333333333</ele><time>2026-04-26T17:59:11.376Z</time></trkpt><trkpt lat="33.5900633" lon="-7.6262433"><ele>35.0</ele><time>2026-04-26T17:59:12.376Z</time></trkpt><trkpt lat="33.590105" lon="-7.6263233"><ele>35.0</ele><time>2026-04-26T17:59:13.376Z</time></trkpt><trkpt lat="33.5901483" lon="-7.626395"><ele>35.0</ele><time>2026-04-26T17:59:14.376Z</time></trkpt><trkpt lat="33.5902" lon="-7.62646"><ele>35.0</ele><time>2026-04-26T17:59:15.376Z</time></trkpt><trkpt lat="33.5902433" lon="-7.6265333"><ele>35.0</ele><time>2026-04-26T17:59:16.376Z</time></trkpt><trkpt lat="33.59029" lon="-7.6266"><ele>35.0</ele><time>2026-04-26T17:59:17.376Z</time></trkpt><trkpt lat="33.5903417" lon="-7.626665"><ele>35.0</ele><time>2026-04-26T17:59:18.376Z</time></trkpt><trkpt lat="33.5904" lon="-7.6267317"><ele>34.33333333333333</ele><time>2026-04-26T17:59:19.376Z</time></trkpt><trkpt lat="33.590465" lon="-7.6267933"><ele>33.666666666666664</ele><time>2026-04-26T17:59:20.376Z</time></trkpt><trkpt lat="33.590535" lon="-7.6268417"><ele>33.0</ele><time>2026-04-26T17:59:21.376Z</time></trkpt><trkpt lat="33.5906083" lon="-7.62689"><ele>32.333333333333336</ele><time>2026-04-26T17:59:22.377Z</time></trkpt><trkpt lat="33.5906833" lon="-7.626935"><ele>31.666666666666668</ele><time>2026-04-26T17:59:23.376Z</time></trkpt><trkpt lat="33.5907533" lon="-7.626975"><ele>31.0</ele><time>2026-04-26T17:59:24.376Z</time></trkpt><trkpt lat="33.5908283" lon="-7.627015"><ele>30.500000000000004</ele><time>2026-04-26T17:59:25.376Z</time></trkpt><trkpt lat="33.5909117" lon="-7.6270483"><ele>30.0</ele><time>2026-04-26T17:59:26.376Z</time></trkpt><trkpt lat="33.59099" lon="-7.6270783"><ele>29.5</ele><time>2026-04-26T17:59:27.376Z</time></trkpt><trkpt lat="33.591065" lon="-7.6271017"><ele>29.0</ele><time>2026-04-26T17:59:28.376Z</time></trkpt><trkpt lat="33.591135" lon="-7.6271283"><ele>28.500000000000004</ele><time>2026-04-26T17:59:29.376Z</time></trkpt><trkpt lat="33.5912033" lon="-7.6271467"><ele>28.0</ele><time>2026-04-26T17:59:30.376Z</time></trkpt><trkpt lat="33.59127" lon="-7.627165"><ele>27.833333333333336</ele><time>2026-04-26T17:59:31.376Z</time></trkpt><trkpt lat="33.5913367" lon="-7.6271783"><ele>27.666666666666668</ele><time>2026-04-26T17:59:32.376Z</time></trkpt><trkpt lat="33.5914533" lon="-7.6272167"><ele>27.5</ele><time>2026-04-26T17:59:34.376Z</time></trkpt><trkpt lat="33.5915133" lon="-7.6272517"><ele>27.333333333333336</ele><time>2026-04-26T17:59:35.376Z</time></trkpt><trkpt lat="33.5915733" lon="-7.62728"><ele>27.166666666666668</ele><time>2026-04-26T17:59:36.376Z</time></trkpt><trkpt lat="33.5916367" lon="-7.627305"><ele>27.0</ele><time>2026-04-26T17:59:37.376Z</time></trkpt><trkpt lat="33.5917017" lon="-7.62733"><ele>27.0</ele><time>2026-04-26T17:59:38.376Z</time></trkpt><trkpt lat="33.5918167" lon="-7.6273817"><ele>27.000000000000004</ele><time>2026-04-26T17:59:40.376Z</time></trkpt><trkpt lat="33.5918767" lon="-7.6274183"><ele>27.000000000000004</ele><time>2026-04-26T17:59:41.376Z</time></trkpt><trkpt lat="33.5919417" lon="-7.6274483"><ele>27.0</ele><time>2026-04-26T17:59:42.376Z</time></trkpt><trkpt lat="33.5920517" lon="-7.6274983"><ele>27.0</ele><time>2026-04-26T17:59:44.376Z</time></trkpt><trkpt lat="33.5921533" lon="-7.6275517"><ele>27.0</ele><time>2026-04-26T17:59:46.376Z</time></trkpt><trkpt lat="33.59225" lon="-7.6276017"><ele>27.0</ele><time>2026-04-26T17:59:48.376Z</time></trkpt><trkpt lat="33.59232" lon="-7.6276383"><ele>27.0</ele><time>2026-04-26T17:59:50.376Z</time></trkpt><trkpt lat="33.5924017" lon="-7.6276567"><ele>27.0</ele><time>2026-04-26T17:59:52.376Z</time></trkpt><trkpt lat="33.592465" lon="-7.6276883"><ele>27.0</ele><time>2026-04-26T17:59:55.376Z</time></trkpt><trkpt lat="33.5925183" lon="-7.6277733"><ele>27.0</ele><time>2026-04-26T18:01:14.376Z</time></trkpt><trkpt lat="33.5926" lon="-7.627845"><ele>27.0</ele><time>2026-04-26T18:01:16.376Z</time></trkpt><trkpt lat="33.5926667" lon="-7.6278917"><ele>27.000000000000004</ele><time>2026-04-26T18:01:18.376Z</time></trkpt><trkpt lat="33.5927583" lon="-7.628005"><ele>27.000000000000004</ele><time>2026-04-26T18:13:02.374Z</time></trkpt><trkpt lat="33.59285" lon="-7.6280683"><ele>27.0</ele><time>2026-04-26T18:13:04.374Z</time></trkpt><trkpt lat="33.59293" lon="-7.628125"><ele>27.0</ele><time>2026-04-26T18:13:06.374Z</time></trkpt><trkpt lat="33.5929967" lon="-7.6281767"><ele>27.6</ele><time>2026-04-26T18:13:08.374Z</time></trkpt><trkpt lat="33.59305" lon="-7.6282267"><ele>28.200000000000003</ele><time>2026-04-26T18:13:10.374Z</time></trkpt><trkpt lat="33.5931183" lon="-7.62829"><ele>28.8</ele><time>2026-04-26T18:13:12.374Z</time></trkpt><trkpt lat="33.5931967" lon="-7.6283767"><ele>29.4</ele><time>2026-04-26T18:13:14.374Z</time></trkpt><trkpt lat="33.59329" lon="-7.6284567"><ele>30.0</ele><time>2026-04-26T18:13:16.374Z</time></trkpt><trkpt lat="33.5933867" lon="-7.6285467"><ele>30.166666666666668</ele><time>2026-04-26T18:13:18.374Z</time></trkpt><trkpt lat="33.59348" lon="-7.6286517"><ele>30.333333333333336</ele><time>2026-04-26T18:13:20.374Z</time></trkpt><trkpt lat="33.5935333" lon="-7.62871"><ele>30.5</ele><time>2026-04-26T18:13:21.374Z</time></trkpt><trkpt lat="33.593585" lon="-7.6287617"><ele>30.666666666666668</ele><time>2026-04-26T18:13:22.374Z</time></trkpt><trkpt lat="33.5936467" lon="-7.6288167"><ele>30.833333333333336</ele><time>2026-04-26T18:13:23.374Z</time></trkpt><trkpt lat="33.5937083" lon="-7.62887"><ele>31.0</ele><time>2026-04-26T18:13:24.375Z</time></trkpt><trkpt lat="33.5937717" lon="-7.6289217"><ele>30.166666666666668</ele><time>2026-04-26T18:13:25.374Z</time></trkpt><trkpt lat="33.593835" lon="-7.6289683"><ele>29.333333333333336</ele><time>2026-04-26T18:13:26.374Z</time></trkpt><trkpt lat="33.5939033" lon="-7.629025"><ele>28.5</ele><time>2026-04-26T18:13:27.374Z</time></trkpt><trkpt lat="33.593965" lon="-7.629075"><ele>27.666666666666664</ele><time>2026-04-26T18:13:28.374Z</time></trkpt><trkpt lat="33.5940233" lon="-7.6291083"><ele>26.833333333333332</ele><time>2026-04-26T18:13:29.374Z</time></trkpt><trkpt lat="33.5941167" lon="-7.6291417"><ele>26.0</ele><time>2026-04-26T18:13:31.374Z</time></trkpt><trkpt lat="33.59421" lon="-7.6291217"><ele>26.0</ele><time>2026-04-26T18:13:33.374Z</time></trkpt><trkpt lat="33.5942817" lon="-7.6290067"><ele>26.0</ele><time>2026-04-26T18:13:35.374Z</time></trkpt><trkpt lat="33.5943267" lon="-7.6289283"><ele>26.0</ele><time>2026-04-26T18:13:36.374Z</time></trkpt><trkpt lat="33.5943433" lon="-7.62882"><ele>26.0</ele><time>2026-04-26T18:13:37.374Z</time></trkpt><trkpt lat="33.5943833" lon="-7.6287233"><ele>26.0</ele><time>2026-04-26T18:13:38.374Z</time></trkpt><trkpt lat="33.594425" lon="-7.6286383"><ele>26.499999999999996</ele><time>2026-04-26T18:13:39.374Z</time></trkpt><trkpt lat="33.5944567" lon="-7.628565"><ele>27.0</ele><time>2026-04-26T18:13:40.374Z</time></trkpt><trkpt lat="33.59451" lon="-7.628465"><ele>27.5</ele><time>2026-04-26T18:13:42.374Z</time></trkpt><trkpt lat="33.59454" lon="-7.62839"><ele>28.0</ele><time>2026-04-26T18:13:44.374Z</time></trkpt><trkpt lat="33.5945733" lon="-7.6283067"><ele>28.499999999999996</ele><time>2026-04-26T18:13:46.374Z</time></trkpt><trkpt lat="33.5946283" lon="-7.6281667"><ele>29.0</ele><time>2026-04-26T18:13:48.374Z</time></trkpt><trkpt lat="33.59467" lon="-7.6280733"><ele>29.0</ele><time>2026-04-26T18:13:49.374Z</time></trkpt><trkpt lat="33.5947183" lon="-7.62796"><ele>29.0</ele><time>2026-04-26T18:13:50.374Z</time></trkpt><trkpt lat="33.5947567" lon="-7.6278583"><ele>29.0</ele><time>2026-04-26T18:13:51.374Z</time></trkpt><trkpt lat="33.594785" lon="-7.6277517"><ele>29.0</ele><time>2026-04-26T18:13:52.374Z</time></trkpt><trkpt lat="33.5948183" lon="-7.6276533"><ele>29.0</ele><time>2026-04-26T18:13:53.374Z</time></trkpt><trkpt lat="33.594855" lon="-7.6275567"><ele>29.166666666666664</ele><time>2026-04-26T18:13:54.373Z</time></trkpt><trkpt lat="33.5948917" lon="-7.6274517"><ele>29.333333333333332</ele><time>2026-04-26T18:13:55.373Z</time></trkpt><trkpt lat="33.594935" lon="-7.6273533"><ele>29.5</ele><time>2026-04-26T18:13:56.373Z</time></trkpt><trkpt lat="33.594975" lon="-7.6272617"><ele>29.666666666666664</ele><time>2026-04-26T18:13:57.373Z</time></trkpt><trkpt lat="33.5950167" lon="-7.6271817"><ele>29.833333333333332</ele><time>2026-04-26T18:13:58.373Z</time></trkpt><trkpt lat="33.5950517" lon="-7.6270967"><ele>30.0</ele><time>2026-04-26T18:13:59.373Z</time></trkpt><trkpt lat="33.595085" lon="-7.6270067"><ele>29.2</ele><time>2026-04-26T18:14:00.373Z</time></trkpt><trkpt lat="33.5951033" lon="-7.6268933"><ele>28.4</ele><time>2026-04-26T18:14:01.373Z</time></trkpt><trkpt lat="33.5951233" lon="-7.62678"><ele>27.6</ele><time>2026-04-26T18:14:02.373Z</time></trkpt><trkpt lat="33.59514" lon="-7.626675"><ele>26.8</ele><time>2026-04-26T18:14:03.373Z</time></trkpt><trkpt lat="33.5951583" lon="-7.62657"><ele>26.0</ele><time>2026-04-26T18:14:04.373Z</time></trkpt><trkpt lat="33.5951633" lon="-7.6264667"><ele>25.999999999999996</ele><time>2026-04-26T18:14:05.373Z</time></trkpt><trkpt lat="33.5951783" lon="-7.62637"><ele>26.0</ele><time>2026-04-26T18:14:06.373Z</time></trkpt><trkpt lat="33.595195" lon="-7.6262783"><ele>26.0</ele><time>2026-04-26T18:14:07.373Z</time></trkpt><trkpt lat="33.5952083" lon="-7.6261917"><ele>26.0</ele><time>2026-04-26T18:14:08.373Z</time></trkpt><trkpt lat="33.5952217" lon="-7.62611"><ele>25.999999999999996</ele><time>2026-04-26T18:14:09.373Z</time></trkpt><trkpt lat="33.595245" lon="-7.6259883"><ele>26.0</ele><time>2026-04-26T18:14:11.373Z</time></trkpt><trkpt lat="33.5952683" lon="-7.6259167"><ele>25.999999999999996</ele><time>2026-04-26T18:14:13.373Z</time></trkpt><trkpt lat="33.5953183" lon="-7.62587"><ele>26.0</ele><time>2026-04-26T18:14:21.373Z</time></trkpt><trkpt lat="33.5953367" lon="-7.6257633"><ele>26.0</ele><time>2026-04-26T18:14:24.374Z</time></trkpt><trkpt lat="33.5953533" lon="-7.6256683"><ele>26.0</ele><time>2026-04-26T18:14:26.373Z</time></trkpt><trkpt lat="33.5953583" lon="-7.62556"><ele>25.999999999999996</ele><time>2026-04-26T18:14:28.373Z</time></trkpt><trkpt lat="33.5953733" lon="-7.6254617"><ele>26.0</ele><time>2026-04-26T18:14:30.373Z</time></trkpt><trkpt lat="33.5953867" lon="-7.6253583"><ele>25.833333333333332</ele><time>2026-04-26T18:14:32.373Z</time></trkpt><trkpt lat="33.5953917" lon="-7.6252817"><ele>25.666666666666664</ele><time>2026-04-26T18:14:34.373Z</time></trkpt><trkpt lat="33.5953833" lon="-7.6251717"><ele>25.5</ele><time>2026-04-26T18:14:37.374Z</time></trkpt><trkpt lat="33.59536" lon="-7.62508"><ele>25.333333333333336</ele><time>2026-04-26T18:14:39.373Z</time></trkpt><trkpt lat="33.5953267" lon="-7.6249983"><ele>25.166666666666668</ele><time>2026-04-26T18:14:41.373Z</time></trkpt><trkpt lat="33.5952917" lon="-7.6248967"><ele>25.0</ele><time>2026-04-26T18:14:43.373Z</time></trkpt><trkpt lat="33.5952383" lon="-7.62478"><ele>25.0</ele><time>2026-04-26T18:14:45.373Z</time></trkpt><trkpt lat="33.5952133" lon="-7.62471"><ele>25.0</ele><time>2026-04-26T18:14:46.373Z</time></trkpt><trkpt lat="33.595165" lon="-7.6245733"><ele>25.0</ele><time>2026-04-26T18:14:48.373Z</time></trkpt><trkpt lat="33.59514" lon="-7.6245"><ele>25.0</ele><time>2026-04-26T18:14:49.373Z</time></trkpt><trkpt lat="33.5950717" lon="-7.6243683"><ele>25.0</ele><time>2026-04-26T18:14:51.373Z</time></trkpt><trkpt lat="33.595025" lon="-7.624245"><ele>24.500000000000004</ele><time>2026-04-26T18:14:53.373Z</time></trkpt><trkpt lat="33.5949867" lon="-7.6241483"><ele>24.0</ele><time>2026-04-26T18:14:55.373Z</time></trkpt><trkpt lat="33.5949467" lon="-7.62406"><ele>23.5</ele><time>2026-04-26T18:14:57.373Z</time></trkpt><trkpt lat="33.5949267" lon="-7.6239633"><ele>23.0</ele><time>2026-04-26T18:14:59.373Z</time></trkpt><trkpt lat="33.5949017" lon="-7.6238883"><ele>22.5</ele><time>2026-04-26T18:15:01.374Z</time></trkpt><trkpt lat="33.5948667" lon="-7.623805"><ele>22.0</ele><time>2026-04-26T18:15:36.373Z</time></trkpt><trkpt lat="33.5948733" lon="-7.62367"><ele>22.0</ele><time>2026-04-26T18:21:47.374Z</time></trkpt></trkseg><trkseg><trkpt lat="33.598625" lon="-7.613485"><ele>5.999999999999999</ele><time>2026-04-27T09:49:09.045Z</time></trkpt><trkpt lat="33.598565" lon="-7.6135167"><ele>6.0</ele><time>2026-04-27T09:49:15.045Z</time></trkpt><trkpt lat="33.5985567" lon="-7.6136033"><ele>6.0</ele><time>2026-04-27T09:49:34.045Z</time></trkpt><trkpt lat="33.5985517" lon="-7.6137"><ele>6.0</ele><time>2026-04-27T09:49:37.044Z</time></trkpt><trkpt lat="33.5985367" lon="-7.61378"><ele>6.0</ele><time>2026-04-27T09:49:40.045Z</time></trkpt><trkpt lat="33.5985333" lon="-7.6138767"><ele>5.999999999999999</ele><time>2026-04-27T09:49:44.044Z</time></trkpt><trkpt lat="33.598525" lon="-7.6139633"><ele>6.0</ele><time>2026-04-27T09:50:51.045Z</time></trkpt><trkpt lat="33.598555" lon="-7.6140367"><ele>6.5</ele><time>2026-04-27T09:50:56.045Z</time></trkpt><trkpt lat="33.59861" lon="-7.614105"><ele>7.0</ele><time>2026-04-27T09:51:45.045Z</time></trkpt><trkpt lat="33.59865" lon="-7.6141783"><ele>7.5</ele><time>2026-04-27T09:51:48.045Z</time></trkpt><trkpt lat="33.5986967" lon="-7.6142633"><ele>8.0</ele><time>2026-04-27T09:51:51.045Z</time></trkpt><trkpt lat="33.5987467" lon="-7.6143317"><ele>8.5</ele><time>2026-04-27T09:51:55.045Z</time></trkpt><trkpt lat="33.5988133" lon="-7.61437"><ele>9.0</ele><time>2026-04-27T09:51:58.045Z</time></trkpt><trkpt lat="33.5988717" lon="-7.6143367"><ele>9.0</ele><time>2026-04-27T09:52:00.045Z</time></trkpt><trkpt lat="33.5989317" lon="-7.61429"><ele>9.0</ele><time>2026-04-27T09:52:02.045Z</time></trkpt><trkpt lat="33.599015" lon="-7.6142283"><ele>9.0</ele><time>2026-04-27T09:52:09.045Z</time></trkpt><trkpt lat="33.599075" lon="-7.6141783"><ele>9.0</ele><time>2026-04-27T09:52:11.045Z</time></trkpt><trkpt lat="33.5991267" lon="-7.614125"><ele>9.0</ele><time>2026-04-27T09:52:14.045Z</time></trkpt><trkpt lat="33.5991483" lon="-7.6140383"><ele>9.0</ele><time>2026-04-27T09:52:22.045Z</time></trkpt><trkpt lat="33.5992133" lon="-7.61397"><ele>9.0</ele><time>2026-04-27T09:52:24.045Z</time></trkpt><trkpt lat="33.5992917" lon="-7.6138883"><ele>9.0</ele><time>2026-04-27T09:52:26.045Z</time></trkpt><trkpt lat="33.5993717" lon="-7.6138217"><ele>9.0</ele><time>2026-04-27T09:52:28.045Z</time></trkpt><trkpt lat="33.5994733" lon="-7.613805"><ele>9.0</ele><time>2026-04-27T09:52:30.045Z</time></trkpt><trkpt lat="33.59957" lon="-7.6138617"><ele>9.0</ele><time>2026-04-27T09:52:32.045Z</time></trkpt><trkpt lat="33.5996633" lon="-7.6139617"><ele>8.5</ele><time>2026-04-27T09:52:34.045Z</time></trkpt><trkpt lat="33.5997133" lon="-7.6140233"><ele>8.0</ele><time>2026-04-27T09:52:35.045Z</time></trkpt><trkpt lat="33.59976" lon="-7.6140933"><ele>7.5</ele><time>2026-04-27T09:52:36.045Z</time></trkpt><trkpt lat="33.599805" lon="-7.61417"><ele>7.0</ele><time>2026-04-27T09:52:37.045Z</time></trkpt><trkpt lat="33.59986" lon="-7.6142433"><ele>6.5</ele><time>2026-04-27T09:52:38.045Z</time></trkpt><trkpt lat="33.5999167" lon="-7.6143283"><ele>6.0</ele><time>2026-04-27T09:52:39.045Z</time></trkpt><trkpt lat="33.5999933" lon="-7.6144167"><ele>6.0</ele><time>2026-04-27T09:52:40.045Z</time></trkpt><trkpt lat="33.60008" lon="-7.6145117"><ele>6.0</ele><time>2026-04-27T09:52:41.045Z</time></trkpt><trkpt lat="33.6001617" lon="-7.61461"><ele>6.0</ele><time>2026-04-27T09:52:42.045Z</time></trkpt><trkpt lat="33.6002383" lon="-7.6147133"><ele>6.0</ele><time>2026-04-27T09:52:43.045Z</time></trkpt><trkpt lat="33.6002917" lon="-7.6148283"><ele>5.5</ele><time>2026-04-27T09:52:44.045Z</time></trkpt><trkpt lat="33.6003383" lon="-7.61495"><ele>5.0</ele><time>2026-04-27T09:52:45.045Z</time></trkpt><trkpt lat="33.6003867" lon="-7.6150817"><ele>4.5</ele><time>2026-04-27T09:52:46.045Z</time></trkpt><trkpt lat="33.6004317" lon="-7.6152267"><ele>4.0</ele><time>2026-04-27T09:52:47.045Z</time></trkpt><trkpt lat="33.6004683" lon="-7.61537"><ele>4.0</ele><time>2026-04-27T09:52:48.045Z</time></trkpt><trkpt lat="33.6005033" lon="-7.6155133"><ele>4.0</ele><time>2026-04-27T09:52:49.045Z</time></trkpt><trkpt lat="33.6005333" lon="-7.6156567"><ele>4.0</ele><time>2026-04-27T09:52:50.045Z</time></trkpt><trkpt lat="33.60056" lon="-7.6157933"><ele>4.0</ele><time>2026-04-27T09:52:51.045Z</time></trkpt><trkpt lat="33.6005867" lon="-7.6159183"><ele>4.0</ele><time>2026-04-27T09:52:52.045Z</time></trkpt><trkpt lat="33.60061" lon="-7.6160383"><ele>4.0</ele><time>2026-04-27T09:52:53.045Z</time></trkpt><trkpt lat="33.6006367" lon="-7.6161667"><ele>4.0</ele><time>2026-04-27T09:52:54.045Z</time></trkpt><trkpt lat="33.6006683" lon="-7.6163067"><ele>4.0</ele><time>2026-04-27T09:52:55.045Z</time></trkpt><trkpt lat="33.6007033" lon="-7.6164517"><ele>4.25</ele><time>2026-04-27T09:52:56.045Z</time></trkpt><trkpt lat="33.6007383" lon="-7.6166017"><ele>4.5</ele><time>2026-04-27T09:52:57.045Z</time></trkpt><trkpt lat="33.6007867" lon="-7.6167517"><ele>4.75</ele><time>2026-04-27T09:52:58.045Z</time></trkpt><trkpt lat="33.6008383" lon="-7.6169017"><ele>5.0</ele><time>2026-04-27T09:52:59.045Z</time></trkpt><trkpt lat="33.6009" lon="-7.6170333"><ele>5.25</ele><time>2026-04-27T09:53:00.044Z</time></trkpt><trkpt lat="33.6009833" lon="-7.61715"><ele>5.5</ele><time>2026-04-27T09:53:01.044Z</time></trkpt><trkpt lat="33.60107" lon="-7.6172667"><ele>5.75</ele><time>2026-04-27T09:53:02.045Z</time></trkpt><trkpt lat="33.6011583" lon="-7.6173683"><ele>6.0</ele><time>2026-04-27T09:53:03.045Z</time></trkpt><trkpt lat="33.601255" lon="-7.6174617"><ele>6.0</ele><time>2026-04-27T09:53:04.044Z</time></trkpt><trkpt lat="33.601345" lon="-7.6175483"><ele>6.0</ele><time>2026-04-27T09:53:05.045Z</time></trkpt><trkpt lat="33.6014383" lon="-7.61763"><ele>6.0</ele><time>2026-04-27T09:53:06.045Z</time></trkpt><trkpt lat="33.601535" lon="-7.6177067"><ele>6.0</ele><time>2026-04-27T09:53:07.045Z</time></trkpt><trkpt lat="33.601635" lon="-7.617775"><ele>6.0</ele><time>2026-04-27T09:53:08.045Z</time></trkpt><trkpt lat="33.6017367" lon="-7.6178367"><ele>6.0</ele><time>2026-04-27T09:53:09.045Z</time></trkpt><trkpt lat="33.6018417" lon="-7.6179033"><ele>6.0</ele><time>2026-04-27T09:53:10.045Z</time></trkpt><trkpt lat="33.6019517" lon="-7.6179717"><ele>6.0</ele><time>2026-04-27T09:53:11.044Z</time></trkpt><trkpt lat="33.6020617" lon="-7.6180367"><ele>6.0</ele><time>2026-04-27T09:53:12.045Z</time></trkpt><trkpt lat="33.6021667" lon="-7.6181017"><ele>6.0</ele><time>2026-04-27T09:53:13.045Z</time></trkpt><trkpt lat="33.602275" lon="-7.61816"><ele>6.0</ele><time>2026-04-27T09:53:14.045Z</time></trkpt><trkpt lat="33.60238" lon="-7.6182217"><ele>6.0</ele><time>2026-04-27T09:53:15.045Z</time></trkpt><trkpt lat="33.6024867" lon="-7.6182833"><ele>6.0</ele><time>2026-04-27T09:53:16.045Z</time></trkpt><trkpt lat="33.6025933" lon="-7.61835"><ele>6.0</ele><time>2026-04-27T09:53:17.045Z</time></trkpt><trkpt lat="33.602705" lon="-7.6184133"><ele>6.0</ele><time>2026-04-27T09:53:18.044Z</time></trkpt><trkpt lat="33.60282" lon="-7.6184783"><ele>6.0</ele><time>2026-04-27T09:53:19.045Z</time></trkpt><trkpt lat="33.6029383" lon="-7.6185433"><ele>5.75</ele><time>2026-04-27T09:53:20.045Z</time></trkpt><trkpt lat="33.6030483" lon="-7.61861"><ele>5.5</ele><time>2026-04-27T09:53:21.045Z</time></trkpt><trkpt lat="33.6031567" lon="-7.6186783"><ele>5.25</ele><time>2026-04-27T09:53:22.045Z</time></trkpt><trkpt lat="33.60326" lon="-7.61874"><ele>5.0</ele><time>2026-04-27T09:53:23.045Z</time></trkpt><trkpt lat="33.6033617" lon="-7.618805"><ele>5.0</ele><time>2026-04-27T09:53:24.045Z</time></trkpt><trkpt lat="33.6034583" lon="-7.6188733"><ele>5.0</ele><time>2026-04-27T09:53:25.045Z</time></trkpt><trkpt lat="33.6035567" lon="-7.6189383"><ele>5.0</ele><time>2026-04-27T09:53:26.045Z</time></trkpt><trkpt lat="33.6036567" lon="-7.619"><ele>5.0</ele><time>2026-04-27T09:53:27.044Z</time></trkpt><trkpt lat="33.60375" lon="-7.6190533"><ele>5.0</ele><time>2026-04-27T09:53:28.045Z</time></trkpt><trkpt lat="33.6038433" lon="-7.6190967"><ele>4.6</ele><time>2026-04-27T09:53:29.045Z</time></trkpt><trkpt lat="33.6039283" lon="-7.6191467"><ele>4.2</ele><time>2026-04-27T09:53:30.045Z</time></trkpt><trkpt lat="33.6040033" lon="-7.61919"><ele>3.8</ele><time>2026-04-27T09:53:31.045Z</time></trkpt><trkpt lat="33.6040817" lon="-7.6192383"><ele>3.4</ele><time>2026-04-27T09:53:32.045Z</time></trkpt><trkpt lat="33.6041633" lon="-7.6192917"><ele>3.0</ele><time>2026-04-27T09:53:33.045Z</time></trkpt><trkpt lat="33.6042467" lon="-7.61934"><ele>3.0</ele><time>2026-04-27T09:53:34.045Z</time></trkpt><trkpt lat="33.60433" lon="-7.619385"><ele>3.0</ele><time>2026-04-27T09:53:35.045Z</time></trkpt><trkpt lat="33.604415" lon="-7.61943"><ele>3.0</ele><time>2026-04-27T09:53:36.045Z</time></trkpt><trkpt lat="33.604495" lon="-7.6194717"><ele>3.0</ele><time>2026-04-27T09:53:37.045Z</time></trkpt><trkpt lat="33.604575" lon="-7.6195133"><ele>3.0</ele><time>2026-04-27T09:53:38.045Z</time></trkpt><trkpt lat="33.6046567" lon="-7.619555"><ele>3.0</ele><time>2026-04-27T09:53:39.045Z</time></trkpt><trkpt lat="33.6047367" lon="-7.619595"><ele>4.0</ele><time>2026-04-27T09:53:40.045Z</time></trkpt><trkpt lat="33.60482" lon="-7.6196433"><ele>5.0</ele><time>2026-04-27T09:53:41.044Z</time></trkpt><trkpt lat="33.604905" lon="-7.6196917"><ele>6.0</ele><time>2026-04-27T09:53:42.045Z</time></trkpt><trkpt lat="33.6049867" lon="-7.61974"><ele>7.0</ele><time>2026-04-27T09:53:43.045Z</time></trkpt><trkpt lat="33.6050583" lon="-7.6197917"><ele>8.0</ele><time>2026-04-27T09:53:44.045Z</time></trkpt><trkpt lat="33.6051267" lon="-7.6198433"><ele>9.0</ele><time>2026-04-27T09:53:45.045Z</time></trkpt><trkpt lat="33.6051867" lon="-7.6198983"><ele>9.0</ele><time>2026-04-27T09:53:46.044Z</time></trkpt><trkpt lat="33.60525" lon="-7.6199533"><ele>9.0</ele><time>2026-04-27T09:53:47.045Z</time></trkpt><trkpt lat="33.60531" lon="-7.6200283"><ele>9.0</ele><time>2026-04-27T09:53:48.045Z</time></trkpt><trkpt lat="33.60538" lon="-7.6201083"><ele>9.0</ele><time>2026-04-27T09:53:49.045Z</time></trkpt><trkpt lat="33.6054417" lon="-7.6201933"><ele>9.0</ele><time>2026-04-27T09:53:50.045Z</time></trkpt><trkpt lat="33.6055083" lon="-7.620285"><ele>8.25</ele><time>2026-04-27T09:53:51.045Z</time></trkpt><trkpt lat="33.605585" lon="-7.62038"><ele>7.5</ele><time>2026-04-27T09:53:52.045Z</time></trkpt><trkpt lat="33.6056617" lon="-7.6204783"><ele>6.75</ele><time>2026-04-27T09:53:53.045Z</time></trkpt><trkpt lat="33.6057433" lon="-7.6205767"><ele>6.0</ele><time>2026-04-27T09:53:54.045Z</time></trkpt><trkpt lat="33.6058217" lon="-7.6206867"><ele>6.0</ele><time>2026-04-27T09:53:55.045Z</time></trkpt><trkpt lat="33.6059017" lon="-7.6207883"><ele>6.0</ele><time>2026-04-27T09:53:56.045Z</time></trkpt><trkpt lat="33.6059817" lon="-7.6209"><ele>6.0</ele><time>2026-04-27T09:53:57.045Z</time></trkpt><trkpt lat="33.6060667" lon="-7.6210117"><ele>6.0</ele><time>2026-04-27T09:53:58.045Z</time></trkpt><trkpt lat="33.6061483" lon="-7.62112"><ele>4.75</ele><time>2026-04-27T09:53:59.045Z</time></trkpt><trkpt lat="33.6062333" lon="-7.621225"><ele>3.5</ele><time>2026-04-27T09:54:00.045Z</time></trkpt><trkpt lat="33.60632" lon="-7.6213267"><ele>2.25</ele><time>2026-04-27T09:54:01.045Z</time></trkpt><trkpt lat="33.606405" lon="-7.6214383"><ele>1.0</ele><time>2026-04-27T09:54:02.045Z</time></trkpt><trkpt lat="33.6064933" lon="-7.6215533"><ele>1.0</ele><time>2026-04-27T09:54:03.045Z</time></trkpt><trkpt lat="33.6065833" lon="-7.6216567"><ele>1.0</ele><time>2026-04-27T09:54:04.045Z</time></trkpt><trkpt lat="33.60667" lon="-7.6217583"><ele>1.0</ele><time>2026-04-27T09:54:05.045Z</time></trkpt><trkpt lat="33.60675" lon="-7.6218583"><ele>1.0</ele><time>2026-04-27T09:54:06.045Z</time></trkpt><trkpt lat="33.606825" lon="-7.6219517"><ele>1.5</ele><time>2026-04-27T09:54:07.045Z</time></trkpt><trkpt lat="33.6068917" lon="-7.6220383"><ele>2.0</ele><time>2026-04-27T09:54:08.045Z</time></trkpt><trkpt lat="33.60695" lon="-7.6221183"><ele>2.5</ele><time>2026-04-27T09:54:09.045Z</time></trkpt><trkpt lat="33.6070033" lon="-7.6221867"><ele>3.0</ele><time>2026-04-27T09:54:10.045Z</time></trkpt><trkpt lat="33.6070567" lon="-7.622255"><ele>3.4999999999999996</ele><time>2026-04-27T09:54:11.045Z</time></trkpt><trkpt lat="33.6071117" lon="-7.6223367"><ele>4.0</ele><time>2026-04-27T09:54:12.045Z</time></trkpt><trkpt lat="33.607165" lon="-7.6224433"><ele>4.0</ele><time>2026-04-27T09:54:13.045Z</time></trkpt><trkpt lat="33.6072167" lon="-7.6225583"><ele>4.0</ele><time>2026-04-27T09:54:14.044Z</time></trkpt><trkpt lat="33.60726" lon="-7.62268"><ele>4.0</ele><time>2026-04-27T09:54:15.045Z</time></trkpt><trkpt lat="33.6073" lon="-7.62278"><ele>4.0</ele><time>2026-04-27T09:54:16.045Z</time></trkpt><trkpt lat="33.6073417" lon="-7.62287"><ele>4.0</ele><time>2026-04-27T09:54:17.045Z</time></trkpt><trkpt lat="33.6073783" lon="-7.622955"><ele>3.9999999999999996</ele><time>2026-04-27T09:54:18.044Z</time></trkpt><trkpt lat="33.6074167" lon="-7.6230383"><ele>4.0</ele><time>2026-04-27T09:54:19.045Z</time></trkpt><trkpt lat="33.607455" lon="-7.6231233"><ele>4.0</ele><time>2026-04-27T09:54:20.045Z</time></trkpt><trkpt lat="33.60749" lon="-7.62322"><ele>4.0</ele><time>2026-04-27T09:54:21.045Z</time></trkpt><trkpt lat="33.60753" lon="-7.6233117"><ele>3.9999999999999996</ele><time>2026-04-27T09:54:22.045Z</time></trkpt><trkpt lat="33.6075717" lon="-7.6234083"><ele>4.0</ele><time>2026-04-27T09:54:23.045Z</time></trkpt><trkpt lat="33.607615" lon="-7.6235017"><ele>3.9999999999999996</ele><time>2026-04-27T09:54:24.045Z</time></trkpt><trkpt lat="33.6076567" lon="-7.6235933"><ele>4.0</ele><time>2026-04-27T09:54:25.045Z</time></trkpt><trkpt lat="33.6076967" lon="-7.623685"><ele>4.0</ele><time>2026-04-27T09:54:26.045Z</time></trkpt><trkpt lat="33.607735" lon="-7.6237733"><ele>4.0</ele><time>2026-04-27T09:54:27.045Z</time></trkpt><trkpt lat="33.60779" lon="-7.6238667"><ele>3.9999999999999996</ele><time>2026-04-27T09:54:28.045Z</time></trkpt><trkpt lat="33.6078333" lon="-7.6239633"><ele>4.0</ele><time>2026-04-27T09:54:29.045Z</time></trkpt><trkpt lat="33.6078833" lon="-7.6240667"><ele>4.2</ele><time>2026-04-27T09:54:30.045Z</time></trkpt><trkpt lat="33.6079433" lon="-7.624165"><ele>4.4</ele><time>2026-04-27T09:54:31.045Z</time></trkpt><trkpt lat="33.6080033" lon="-7.6242717"><ele>4.6</ele><time>2026-04-27T09:54:32.045Z</time></trkpt><trkpt lat="33.6080567" lon="-7.6243933"><ele>4.8</ele><time>2026-04-27T09:54:33.045Z</time></trkpt><trkpt lat="33.6081217" lon="-7.6245133"><ele>5.0</ele><time>2026-04-27T09:54:34.045Z</time></trkpt><trkpt lat="33.6081867" lon="-7.62464"><ele>5.0</ele><time>2026-04-27T09:54:35.045Z</time></trkpt><trkpt lat="33.608245" lon="-7.6247767"><ele>5.0</ele><time>2026-04-27T09:54:36.045Z</time></trkpt><trkpt lat="33.6083017" lon="-7.6249217"><ele>5.0</ele><time>2026-04-27T09:54:37.045Z</time></trkpt><trkpt lat="33.6083567" lon="-7.62507"><ele>5.0</ele><time>2026-04-27T09:54:38.045Z</time></trkpt><trkpt lat="33.6084133" lon="-7.6252183"><ele>5.0</ele><time>2026-04-27T09:54:39.045Z</time></trkpt><trkpt lat="33.6084717" lon="-7.6253567"><ele>5.0</ele><time>2026-04-27T09:54:40.045Z</time></trkpt><trkpt lat="33.608525" lon="-7.625485"><ele>5.0</ele><time>2026-04-27T09:54:41.045Z</time></trkpt><trkpt lat="33.608575" lon="-7.625605"><ele>5.0</ele><time>2026-04-27T09:54:42.045Z</time></trkpt><trkpt lat="33.6086217" lon="-7.6257233"><ele>5.0</ele><time>2026-04-27T09:54:43.045Z</time></trkpt><trkpt lat="33.6086717" lon="-7.6258367"><ele>5.0</ele><time>2026-04-27T09:54:44.045Z</time></trkpt><trkpt lat="33.60872" lon="-7.6259433"><ele>5.0</ele><time>2026-04-27T09:54:45.045Z</time></trkpt><trkpt lat="33.6087667" lon="-7.6260483"><ele>5.0</ele><time>2026-04-27T09:54:46.045Z</time></trkpt><trkpt lat="33.6088083" lon="-7.626155"><ele>5.0</ele><time>2026-04-27T09:54:47.045Z</time></trkpt><trkpt lat="33.6088533" lon="-7.6262517"><ele>5.0</ele><time>2026-04-27T09:54:48.045Z</time></trkpt><trkpt lat="33.6088967" lon="-7.6263433"><ele>5.0</ele><time>2026-04-27T09:54:49.045Z</time></trkpt><trkpt lat="33.6089283" lon="-7.626445"><ele>5.0</ele><time>2026-04-27T09:54:50.045Z</time></trkpt><trkpt lat="33.6089583" lon="-7.6265483"><ele>5.0</ele><time>2026-04-27T09:54:51.045Z</time></trkpt><trkpt lat="33.6089867" lon="-7.6266633"><ele>5.0</ele><time>2026-04-27T09:54:52.045Z</time></trkpt><trkpt lat="33.609005" lon="-7.626775"><ele>5.0</ele><time>2026-04-27T09:54:53.045Z</time></trkpt><trkpt lat="33.609015" lon="-7.6268767"><ele>5.0</ele><time>2026-04-27T09:54:54.045Z</time></trkpt><trkpt lat="33.6090117" lon="-7.6269683"><ele>5.0</ele><time>2026-04-27T09:54:55.044Z</time></trkpt><trkpt lat="33.6090033" lon="-7.627055"><ele>5.0</ele><time>2026-04-27T09:54:56.045Z</time></trkpt><trkpt lat="33.6089983" lon="-7.6271383"><ele>5.0</ele><time>2026-04-27T09:54:57.044Z</time></trkpt><trkpt lat="33.6089883" lon="-7.627225"><ele>5.0</ele><time>2026-04-27T09:54:58.045Z</time></trkpt><trkpt lat="33.60898" lon="-7.62732"><ele>4.5</ele><time>2026-04-27T09:54:59.044Z</time></trkpt><trkpt lat="33.6089683" lon="-7.62741"><ele>4.0</ele><time>2026-04-27T09:55:00.045Z</time></trkpt><trkpt lat="33.6089517" lon="-7.6274917"><ele>3.5</ele><time>2026-04-27T09:55:01.045Z</time></trkpt><trkpt lat="33.608935" lon="-7.6275867"><ele>3.0</ele><time>2026-04-27T09:55:02.045Z</time></trkpt><trkpt lat="33.608915" lon="-7.627685"><ele>2.5</ele><time>2026-04-27T09:55:03.045Z</time></trkpt><trkpt lat="33.6089" lon="-7.6277917"><ele>2.0</ele><time>2026-04-27T09:55:04.045Z</time></trkpt><trkpt lat="33.6088667" lon="-7.6278983"><ele>1.6</ele><time>2026-04-27T09:55:05.045Z</time></trkpt><trkpt lat="33.60883" lon="-7.628015"><ele>1.2000000000000002</ele><time>2026-04-27T09:55:06.045Z</time></trkpt><trkpt lat="33.60879" lon="-7.628135"><ele>0.8</ele><time>2026-04-27T09:55:07.045Z</time></trkpt><trkpt lat="33.6087483" lon="-7.6282433"><ele>0.4</ele><time>2026-04-27T09:55:08.045Z</time></trkpt><trkpt lat="33.6086967" lon="-7.62836"><ele>0.0</ele><time>2026-04-27T09:55:09.044Z</time></trkpt><trkpt lat="33.608635" lon="-7.628485"><ele>0.5</ele><time>2026-04-27T09:55:10.045Z</time></trkpt><trkpt lat="33.6085683" lon="-7.6286117"><ele>1.0</ele><time>2026-04-27T09:55:11.045Z</time></trkpt><trkpt lat="33.6084933" lon="-7.628745"><ele>1.5</ele><time>2026-04-27T09:55:12.045Z</time></trkpt><trkpt lat="33.6084217" lon="-7.6288817"><ele>2.0</ele><time>2026-04-27T09:55:13.045Z</time></trkpt><trkpt lat="33.6083533" lon="-7.6290083"><ele>2.0</ele><time>2026-04-27T09:55:14.045Z</time></trkpt><trkpt lat="33.6082883" lon="-7.6291267"><ele>2.0</ele><time>2026-04-27T09:55:15.045Z</time></trkpt><trkpt lat="33.608225" lon="-7.62924"><ele>2.0</ele><time>2026-04-27T09:55:16.045Z</time></trkpt><trkpt lat="33.6081683" lon="-7.62934"><ele>2.0</ele><time>2026-04-27T09:55:17.045Z</time></trkpt><trkpt lat="33.6081217" lon="-7.6294283"><ele>2.0</ele><time>2026-04-27T09:55:18.044Z</time></trkpt><trkpt lat="33.6080933" lon="-7.6295167"><ele>1.8333333333333333</ele><time>2026-04-27T09:55:19.045Z</time></trkpt><trkpt lat="33.60809" lon="-7.6296"><ele>1.6666666666666665</ele><time>2026-04-27T09:55:20.045Z</time></trkpt><trkpt lat="33.6081133" lon="-7.629715"><ele>1.5</ele><time>2026-04-27T09:55:22.045Z</time></trkpt><trkpt lat="33.608155" lon="-7.6298133"><ele>1.3333333333333333</ele><time>2026-04-27T09:55:41.045Z</time></trkpt><trkpt lat="33.6081583" lon="-7.62989"><ele>1.1666666666666665</ele><time>2026-04-27T10:09:56.043Z</time></trkpt><trkpt lat="33.6080933" lon="-7.629955"><ele>1.0</ele><time>2026-04-27T10:09:59.043Z</time></trkpt><trkpt lat="33.608035" lon="-7.6299867"><ele>0.9999999999999999</ele><time>2026-04-27T10:10:02.043Z</time></trkpt><trkpt lat="33.60797" lon="-7.6300217"><ele>1.0</ele><time>2026-04-27T10:10:06.042Z</time></trkpt><trkpt lat="33.607925" lon="-7.630085"><ele>1.0</ele><time>2026-04-27T10:10:10.042Z</time></trkpt><trkpt lat="33.60788" lon="-7.6301683"><ele>1.0</ele><time>2026-04-27T10:10:13.042Z</time></trkpt><trkpt lat="33.607845" lon="-7.630305"><ele>0.9999999999999999</ele><time>2026-04-27T10:10:15.042Z</time></trkpt><trkpt lat="33.6078083" lon="-7.6303833"><ele>1.0</ele><time>2026-04-27T10:10:16.042Z</time></trkpt><trkpt lat="33.607765" lon="-7.6304617"><ele>1.5</ele><time>2026-04-27T10:10:17.042Z</time></trkpt><trkpt lat="33.60771" lon="-7.63052"><ele>2.0</ele><time>2026-04-27T10:10:18.042Z</time></trkpt><trkpt lat="33.6076433" lon="-7.63055"><ele>2.5</ele><time>2026-04-27T10:10:19.042Z</time></trkpt><trkpt lat="33.6075767" lon="-7.6305617"><ele>3.0</ele><time>2026-04-27T10:10:20.042Z</time></trkpt><trkpt lat="33.6074633" lon="-7.6305167"><ele>3.4999999999999996</ele><time>2026-04-27T10:10:22.042Z</time></trkpt><trkpt lat="33.607405" lon="-7.6304683"><ele>4.0</ele><time>2026-04-27T10:10:23.042Z</time></trkpt><trkpt lat="33.6073467" lon="-7.630405"><ele>3.9999999999999996</ele><time>2026-04-27T10:10:24.042Z</time></trkpt><trkpt lat="33.607285" lon="-7.6303467"><ele>4.0</ele><time>2026-04-27T10:10:25.042Z</time></trkpt><trkpt lat="33.6072233" lon="-7.6302817"><ele>4.0</ele><time>2026-04-27T10:10:26.042Z</time></trkpt><trkpt lat="33.60716" lon="-7.6302217"><ele>4.0</ele><time>2026-04-27T10:10:27.042Z</time></trkpt><trkpt lat="33.6070883" lon="-7.6301633"><ele>3.9999999999999996</ele><time>2026-04-27T10:10:28.042Z</time></trkpt><trkpt lat="33.6070117" lon="-7.6301"><ele>4.0</ele><time>2026-04-27T10:10:29.042Z</time></trkpt><trkpt lat="33.606925" lon="-7.6300433"><ele>5.0</ele><time>2026-04-27T10:10:30.042Z</time></trkpt><trkpt lat="33.606835" lon="-7.62999"><ele>6.0</ele><time>2026-04-27T10:10:31.042Z</time></trkpt><trkpt lat="33.606745" lon="-7.6299283"><ele>7.0</ele><time>2026-04-27T10:10:32.042Z</time></trkpt><trkpt lat="33.6066517" lon="-7.6298767"><ele>8.0</ele><time>2026-04-27T10:10:33.041Z</time></trkpt><trkpt lat="33.606565" lon="-7.6298167"><ele>9.0</ele><time>2026-04-27T10:10:34.042Z</time></trkpt><trkpt lat="33.6064717" lon="-7.6297417"><ele>9.0</ele><time>2026-04-27T10:10:35.042Z</time></trkpt><trkpt lat="33.6063767" lon="-7.62968"><ele>9.0</ele><time>2026-04-27T10:10:36.042Z</time></trkpt><trkpt lat="33.6062917" lon="-7.6296233"><ele>9.0</ele><time>2026-04-27T10:10:37.042Z</time></trkpt><trkpt lat="33.6062" lon="-7.62958"><ele>9.0</ele><time>2026-04-27T10:10:38.042Z</time></trkpt><trkpt lat="33.6061133" lon="-7.6295267"><ele>9.0</ele><time>2026-04-27T10:10:39.042Z</time></trkpt><trkpt lat="33.6060317" lon="-7.62948"><ele>9.0</ele><time>2026-04-27T10:10:40.042Z</time></trkpt><trkpt lat="33.6059567" lon="-7.6294317"><ele>9.0</ele><time>2026-04-27T10:10:41.042Z</time></trkpt><trkpt lat="33.605875" lon="-7.62939"><ele>9.0</ele><time>2026-04-27T10:10:42.042Z</time></trkpt><trkpt lat="33.6058117" lon="-7.6293483"><ele>9.0</ele><time>2026-04-27T10:10:43.042Z</time></trkpt><trkpt lat="33.6057333" lon="-7.6292917"><ele>9.0</ele><time>2026-04-27T10:10:45.042Z</time></trkpt><trkpt lat="33.6056683" lon="-7.6292733"><ele>9.0</ele><time>2026-04-27T10:10:51.042Z</time></trkpt><trkpt lat="33.6055967" lon="-7.6292533"><ele>9.0</ele><time>2026-04-27T10:10:54.042Z</time></trkpt><trkpt lat="33.6055167" lon="-7.6293367"><ele>9.0</ele><time>2026-04-27T10:10:56.041Z</time></trkpt><trkpt lat="33.605495" lon="-7.6294083"><ele>9.0</ele><time>2026-04-27T10:10:57.042Z</time></trkpt><trkpt lat="33.60547" lon="-7.62948"><ele>9.0</ele><time>2026-04-27T10:10:58.042Z</time></trkpt><trkpt lat="33.6054233" lon="-7.629625"><ele>9.0</ele><time>2026-04-27T10:11:00.042Z</time></trkpt><trkpt lat="33.6053883" lon="-7.6297233"><ele>9.166666666666666</ele><time>2026-04-27T10:11:01.042Z</time></trkpt><trkpt lat="33.605355" lon="-7.6298217"><ele>9.333333333333334</ele><time>2026-04-27T10:11:02.042Z</time></trkpt><trkpt lat="33.60532" lon="-7.6299233"><ele>9.5</ele><time>2026-04-27T10:11:03.042Z</time></trkpt><trkpt lat="33.60528" lon="-7.6300133"><ele>9.666666666666668</ele><time>2026-04-27T10:11:04.041Z</time></trkpt><trkpt lat="33.6052533" lon="-7.6300967"><ele>9.833333333333334</ele><time>2026-04-27T10:11:05.042Z</time></trkpt><trkpt lat="33.6052267" lon="-7.6301783"><ele>10.0</ele><time>2026-04-27T10:11:06.042Z</time></trkpt><trkpt lat="33.6052017" lon="-7.6302667"><ele>10.0</ele><time>2026-04-27T10:11:07.042Z</time></trkpt><trkpt lat="33.6051717" lon="-7.6303617"><ele>10.0</ele><time>2026-04-27T10:11:08.042Z</time></trkpt><trkpt lat="33.6051467" lon="-7.63044"><ele>10.0</ele><time>2026-04-27T10:11:09.042Z</time></trkpt><trkpt lat="33.6051017" lon="-7.6305483"><ele>10.0</ele><time>2026-04-27T10:11:11.042Z</time></trkpt><trkpt lat="33.60507" lon="-7.6306367"><ele>10.0</ele><time>2026-04-27T10:11:13.041Z</time></trkpt><trkpt lat="33.6050433" lon="-7.6307167"><ele>10.0</ele><time>2026-04-27T10:11:15.042Z</time></trkpt><trkpt lat="33.60501" lon="-7.6307933"><ele>10.0</ele><time>2026-04-27T10:11:18.042Z</time></trkpt><trkpt lat="33.6049617" lon="-7.6308483"><ele>10.0</ele><time>2026-04-27T10:12:24.042Z</time></trkpt><trkpt lat="33.6049383" lon="-7.6309367"><ele>10.0</ele><time>2026-04-27T10:12:28.042Z</time></trkpt><trkpt lat="33.6049117" lon="-7.6310567"><ele>10.0</ele><time>2026-04-27T10:12:36.042Z</time></trkpt><trkpt lat="33.60487" lon="-7.6311417"><ele>10.0</ele><time>2026-04-27T10:12:38.042Z</time></trkpt><trkpt lat="33.6048267" lon="-7.63125"><ele>10.0</ele><time>2026-04-27T10:12:40.042Z</time></trkpt><trkpt lat="33.6047767" lon="-7.631375"><ele>9.666666666666668</ele><time>2026-04-27T10:12:42.042Z</time></trkpt><trkpt lat="33.6047433" lon="-7.6314467"><ele>9.333333333333334</ele><time>2026-04-27T10:12:43.042Z</time></trkpt><trkpt lat="33.6047167" lon="-7.6315283"><ele>9.0</ele><time>2026-04-27T10:12:44.042Z</time></trkpt><trkpt lat="33.604685" lon="-7.6316167"><ele>8.666666666666666</ele><time>2026-04-27T10:12:45.042Z</time></trkpt><trkpt lat="33.6046567" lon="-7.6316933"><ele>8.333333333333332</ele><time>2026-04-27T10:12:46.042Z</time></trkpt><trkpt lat="33.604625" lon="-7.6317617"><ele>8.0</ele><time>2026-04-27T10:12:47.042Z</time></trkpt><trkpt lat="33.6045683" lon="-7.63189"><ele>8.200000000000001</ele><time>2026-04-27T10:12:49.042Z</time></trkpt><trkpt lat="33.60451" lon="-7.6320083"><ele>8.4</ele><time>2026-04-27T10:12:51.042Z</time></trkpt><trkpt lat="33.60444" lon="-7.6321233"><ele>8.600000000000001</ele><time>2026-04-27T10:12:53.042Z</time></trkpt><trkpt lat="33.60438" lon="-7.6322367"><ele>8.8</ele><time>2026-04-27T10:12:55.042Z</time></trkpt><trkpt lat="33.604345" lon="-7.632305"><ele>9.0</ele><time>2026-04-27T10:12:57.042Z</time></trkpt><trkpt lat="33.6043167" lon="-7.6324017"><ele>9.0</ele><time>2026-04-27T10:12:59.042Z</time></trkpt><trkpt lat="33.6042633" lon="-7.63254"><ele>9.0</ele><time>2026-04-27T10:13:01.042Z</time></trkpt><trkpt lat="33.60423" lon="-7.6326133"><ele>9.0</ele><time>2026-04-27T10:13:02.042Z</time></trkpt><trkpt lat="33.6042017" lon="-7.632685"><ele>9.0</ele><time>2026-04-27T10:13:03.042Z</time></trkpt><trkpt lat="33.6041667" lon="-7.6327967"><ele>9.0</ele><time>2026-04-27T10:13:05.041Z</time></trkpt><trkpt lat="33.6041483" lon="-7.6328917"><ele>9.0</ele><time>2026-04-27T10:13:08.042Z</time></trkpt><trkpt lat="33.6040983" lon="-7.6329917"><ele>9.2</ele><time>2026-04-27T10:13:20.042Z</time></trkpt><trkpt lat="33.6040583" lon="-7.6330717"><ele>9.4</ele><time>2026-04-27T10:13:22.042Z</time></trkpt><trkpt lat="33.6040167" lon="-7.6331533"><ele>9.6</ele><time>2026-04-27T10:13:24.042Z</time></trkpt><trkpt lat="33.6039217" lon="-7.6332233"><ele>9.8</ele><time>2026-04-27T10:13:26.042Z</time></trkpt><trkpt lat="33.60384" lon="-7.633305"><ele>10.0</ele><time>2026-04-27T10:13:28.042Z</time></trkpt><trkpt lat="33.6037533" lon="-7.6333767"><ele>10.4</ele><time>2026-04-27T10:13:30.042Z</time></trkpt><trkpt lat="33.60364" lon="-7.63339"><ele>10.8</ele><time>2026-04-27T10:13:32.042Z</time></trkpt><trkpt lat="33.6035617" lon="-7.63338"><ele>11.2</ele><time>2026-04-27T10:13:33.041Z</time></trkpt><trkpt lat="33.6034617" lon="-7.6333683"><ele>11.6</ele><time>2026-04-27T10:13:34.041Z</time></trkpt><trkpt lat="33.603365" lon="-7.6333617"><ele>12.0</ele><time>2026-04-27T10:13:35.042Z</time></trkpt><trkpt lat="33.603275" lon="-7.6333567"><ele>12.0</ele><time>2026-04-27T10:13:36.041Z</time></trkpt><trkpt lat="33.6031867" lon="-7.633345"><ele>12.0</ele><time>2026-04-27T10:13:37.041Z</time></trkpt><trkpt lat="33.6030917" lon="-7.6333217"><ele>12.0</ele><time>2026-04-27T10:13:38.042Z</time></trkpt><trkpt lat="33.6030017" lon="-7.6332967"><ele>12.0</ele><time>2026-04-27T10:13:39.042Z</time></trkpt><trkpt lat="33.6029183" lon="-7.633265"><ele>12.0</ele><time>2026-04-27T10:13:40.042Z</time></trkpt><trkpt lat="33.6028367" lon="-7.6332467"><ele>12.0</ele><time>2026-04-27T10:13:41.042Z</time></trkpt><trkpt lat="33.6027517" lon="-7.633225"><ele>11.5</ele><time>2026-04-27T10:13:42.042Z</time></trkpt><trkpt lat="33.602665" lon="-7.633215"><ele>11.0</ele><time>2026-04-27T10:13:43.042Z</time></trkpt><trkpt lat="33.60258" lon="-7.63319"><ele>10.5</ele><time>2026-04-27T10:13:44.042Z</time></trkpt><trkpt lat="33.6025133" lon="-7.6331733"><ele>10.0</ele><time>2026-04-27T10:13:45.042Z</time></trkpt><trkpt lat="33.6023967" lon="-7.6331417"><ele>9.5</ele><time>2026-04-27T10:13:47.042Z</time></trkpt><trkpt lat="33.6023267" lon="-7.6331233"><ele>9.0</ele><time>2026-04-27T10:13:48.042Z</time></trkpt><trkpt lat="33.6022467" lon="-7.6331"><ele>9.0</ele><time>2026-04-27T10:13:49.041Z</time></trkpt><trkpt lat="33.60216" lon="-7.6330783"><ele>9.0</ele><time>2026-04-27T10:13:50.042Z</time></trkpt><trkpt lat="33.60207" lon="-7.63306"><ele>9.0</ele><time>2026-04-27T10:13:51.041Z</time></trkpt><trkpt lat="33.6019833" lon="-7.6330383"><ele>9.0</ele><time>2026-04-27T10:13:52.042Z</time></trkpt><trkpt lat="33.6018967" lon="-7.6330167"><ele>9.0</ele><time>2026-04-27T10:13:53.042Z</time></trkpt><trkpt lat="33.601815" lon="-7.6329983"><ele>9.0</ele><time>2026-04-27T10:13:54.042Z</time></trkpt><trkpt lat="33.6017383" lon="-7.6329817"><ele>9.5</ele><time>2026-04-27T10:13:55.041Z</time></trkpt><trkpt lat="33.601665" lon="-7.6329617"><ele>10.0</ele><time>2026-04-27T10:13:56.042Z</time></trkpt><trkpt lat="33.6015967" lon="-7.63294"><ele>10.5</ele><time>2026-04-27T10:13:57.042Z</time></trkpt><trkpt lat="33.6015233" lon="-7.6329117"><ele>11.0</ele><time>2026-04-27T10:13:58.042Z</time></trkpt><trkpt lat="33.60145" lon="-7.6328833"><ele>11.5</ele><time>2026-04-27T10:13:59.042Z</time></trkpt><trkpt lat="33.6013767" lon="-7.6328667"><ele>12.0</ele><time>2026-04-27T10:14:00.042Z</time></trkpt><trkpt lat="33.601285" lon="-7.6328517"><ele>12.0</ele><time>2026-04-27T10:14:01.042Z</time></trkpt><trkpt lat="33.6011883" lon="-7.6328317"><ele>12.0</ele><time>2026-04-27T10:14:02.042Z</time></trkpt><trkpt lat="33.6010933" lon="-7.6328167"><ele>12.0</ele><time>2026-04-27T10:14:03.042Z</time></trkpt><trkpt lat="33.601005" lon="-7.632795"><ele>12.0</ele><time>2026-04-27T10:14:04.042Z</time></trkpt><trkpt lat="33.6009183" lon="-7.6327783"><ele>12.0</ele><time>2026-04-27T10:14:05.042Z</time></trkpt><trkpt lat="33.60083" lon="-7.6327617"><ele>13.0</ele><time>2026-04-27T10:14:06.041Z</time></trkpt><trkpt lat="33.6007417" lon="-7.632745"><ele>14.0</ele><time>2026-04-27T10:14:07.042Z</time></trkpt><trkpt lat="33.6006517" lon="-7.63271"><ele>15.0</ele><time>2026-04-27T10:14:08.042Z</time></trkpt><trkpt lat="33.6005483" lon="-7.6326867"><ele>16.0</ele><time>2026-04-27T10:14:09.042Z</time></trkpt><trkpt lat="33.6004483" lon="-7.632655"><ele>17.0</ele><time>2026-04-27T10:14:10.042Z</time></trkpt><trkpt lat="33.6003483" lon="-7.6326367"><ele>17.4</ele><time>2026-04-27T10:14:11.042Z</time></trkpt><trkpt lat="33.60025" lon="-7.6326183"><ele>17.799999999999997</ele><time>2026-04-27T10:14:12.042Z</time></trkpt><trkpt lat="33.6001417" lon="-7.6326017"><ele>18.2</ele><time>2026-04-27T10:14:13.042Z</time></trkpt><trkpt lat="33.6000333" lon="-7.6326"><ele>18.599999999999998</ele><time>2026-04-27T10:14:14.042Z</time></trkpt><trkpt lat="33.599935" lon="-7.63259"><ele>19.0</ele><time>2026-04-27T10:14:15.042Z</time></trkpt><trkpt lat="33.5998483" lon="-7.6325683"><ele>19.0</ele><time>2026-04-27T10:14:16.042Z</time></trkpt><trkpt lat="33.599775" lon="-7.6325417"><ele>19.0</ele><time>2026-04-27T10:14:17.042Z</time></trkpt><trkpt lat="33.59967" lon="-7.63251"><ele>19.0</ele><time>2026-04-27T10:14:19.042Z</time></trkpt><trkpt lat="33.5995933" lon="-7.6324917"><ele>19.0</ele><time>2026-04-27T10:14:22.042Z</time></trkpt><trkpt lat="33.599525" lon="-7.6324817"><ele>19.0</ele><time>2026-04-27T10:14:57.041Z</time></trkpt><trkpt lat="33.5994617" lon="-7.6324733"><ele>19.0</ele><time>2026-04-27T10:14:58.041Z</time></trkpt><trkpt lat="33.59939" lon="-7.63247"><ele>18.599999999999998</ele><time>2026-04-27T10:14:59.042Z</time></trkpt><trkpt lat="33.599275" lon="-7.632475"><ele>18.2</ele><time>2026-04-27T10:15:01.041Z</time></trkpt><trkpt lat="33.5991783" lon="-7.6324933"><ele>17.799999999999997</ele><time>2026-04-27T10:15:03.041Z</time></trkpt><trkpt lat="33.5990833" lon="-7.63251"><ele>17.4</ele><time>2026-04-27T10:15:05.041Z</time></trkpt><trkpt lat="33.5989767" lon="-7.6325517"><ele>17.0</ele><time>2026-04-27T10:15:07.041Z</time></trkpt><trkpt lat="33.5988667" lon="-7.6325633"><ele>16.999999999999996</ele><time>2026-04-27T10:15:09.041Z</time></trkpt><trkpt lat="33.5988067" lon="-7.6325333"><ele>17.0</ele><time>2026-04-27T10:15:10.04Z</time></trkpt><trkpt lat="33.59875" lon="-7.632485"><ele>17.0</ele><time>2026-04-27T10:15:11.04Z</time></trkpt><trkpt lat="33.5986867" lon="-7.6324283"><ele>17.0</ele><time>2026-04-27T10:15:12.041Z</time></trkpt><trkpt lat="33.598625" lon="-7.6323783"><ele>17.0</ele><time>2026-04-27T10:15:13.041Z</time></trkpt><trkpt lat="33.598565" lon="-7.63234"><ele>16.999999999999996</ele><time>2026-04-27T10:15:14.041Z</time></trkpt><trkpt lat="33.5985017" lon="-7.6323067"><ele>17.0</ele><time>2026-04-27T10:15:15.041Z</time></trkpt><trkpt lat="33.5984433" lon="-7.6322783"><ele>17.666666666666668</ele><time>2026-04-27T10:15:16.04Z</time></trkpt><trkpt lat="33.5983767" lon="-7.6322433"><ele>18.333333333333336</ele><time>2026-04-27T10:15:17.041Z</time></trkpt><trkpt lat="33.598315" lon="-7.632215"><ele>19.0</ele><time>2026-04-27T10:15:18.041Z</time></trkpt><trkpt lat="33.598245" lon="-7.632175"><ele>19.666666666666668</ele><time>2026-04-27T10:15:19.041Z</time></trkpt><trkpt lat="33.5981667" lon="-7.63213"><ele>20.333333333333332</ele><time>2026-04-27T10:15:20.041Z</time></trkpt><trkpt lat="33.598095" lon="-7.6320667"><ele>21.0</ele><time>2026-04-27T10:15:21.041Z</time></trkpt><trkpt lat="33.5980167" lon="-7.6319967"><ele>21.0</ele><time>2026-04-27T10:15:22.041Z</time></trkpt><trkpt lat="33.5979333" lon="-7.6319283"><ele>21.0</ele><time>2026-04-27T10:15:23.041Z</time></trkpt><trkpt lat="33.5978483" lon="-7.6318617"><ele>21.0</ele><time>2026-04-27T10:15:24.041Z</time></trkpt><trkpt lat="33.5977683" lon="-7.631805"><ele>21.0</ele><time>2026-04-27T10:15:25.041Z</time></trkpt><trkpt lat="33.5976833" lon="-7.6317467"><ele>21.0</ele><time>2026-04-27T10:15:26.041Z</time></trkpt><trkpt lat="33.597605" lon="-7.6316917"><ele>21.166666666666668</ele><time>2026-04-27T10:15:27.041Z</time></trkpt><trkpt lat="33.597525" lon="-7.631635"><ele>21.333333333333332</ele><time>2026-04-27T10:15:28.041Z</time></trkpt><trkpt lat="33.59745" lon="-7.63158"><ele>21.5</ele><time>2026-04-27T10:15:29.041Z</time></trkpt><trkpt lat="33.5973783" lon="-7.631525"><ele>21.666666666666664</ele><time>2026-04-27T10:15:30.041Z</time></trkpt><trkpt lat="33.5973117" lon="-7.6314783"><ele>21.833333333333332</ele><time>2026-04-27T10:15:31.041Z</time></trkpt><trkpt lat="33.5972467" lon="-7.6314283"><ele>22.0</ele><time>2026-04-27T10:15:32.041Z</time></trkpt><trkpt lat="33.5971833" lon="-7.6313717"><ele>22.0</ele><time>2026-04-27T10:15:33.041Z</time></trkpt><trkpt lat="33.59712" lon="-7.6313183"><ele>22.0</ele><time>2026-04-27T10:15:34.041Z</time></trkpt><trkpt lat="33.597065" lon="-7.63127"><ele>22.0</ele><time>2026-04-27T10:15:35.04Z</time></trkpt><trkpt lat="33.59697" lon="-7.6312083"><ele>22.0</ele><time>2026-04-27T10:15:37.041Z</time></trkpt><trkpt lat="33.5968867" lon="-7.6311633"><ele>22.0</ele><time>2026-04-27T10:15:39.041Z</time></trkpt><trkpt lat="33.5968117" lon="-7.6311067"><ele>22.0</ele><time>2026-04-27T10:15:41.041Z</time></trkpt><trkpt lat="33.59673" lon="-7.6310683"><ele>22.857142857142858</ele><time>2026-04-27T10:15:44.041Z</time></trkpt><trkpt lat="33.59667" lon="-7.631035"><ele>23.714285714285715</ele><time>2026-04-27T10:15:46.041Z</time></trkpt><trkpt lat="33.5965733" lon="-7.6309867"><ele>24.57142857142857</ele><time>2026-04-27T10:15:48.041Z</time></trkpt><trkpt lat="33.5965133" lon="-7.6309583"><ele>25.42857142857143</ele><time>2026-04-27T10:15:49.041Z</time></trkpt><trkpt lat="33.5964533" lon="-7.6309283"><ele>26.285714285714285</ele><time>2026-04-27T10:15:50.041Z</time></trkpt><trkpt lat="33.5963883" lon="-7.630895"><ele>27.142857142857142</ele><time>2026-04-27T10:15:51.04Z</time></trkpt><trkpt lat="33.5963283" lon="-7.6308567"><ele>28.0</ele><time>2026-04-27T10:15:52.041Z</time></trkpt><trkpt lat="33.5962667" lon="-7.63082"><ele>28.000000000000004</ele><time>2026-04-27T10:15:53.041Z</time></trkpt><trkpt lat="33.5962017" lon="-7.63078"><ele>28.0</ele><time>2026-04-27T10:15:54.041Z</time></trkpt><trkpt lat="33.5961333" lon="-7.6307417"><ele>28.0</ele><time>2026-04-27T10:15:55.041Z</time></trkpt><trkpt lat="33.5960617" lon="-7.6306933"><ele>28.0</ele><time>2026-04-27T10:15:56.041Z</time></trkpt><trkpt lat="33.5959883" lon="-7.6306517"><ele>28.000000000000004</ele><time>2026-04-27T10:15:57.041Z</time></trkpt><trkpt lat="33.5959117" lon="-7.630615"><ele>28.0</ele><time>2026-04-27T10:15:58.041Z</time></trkpt><trkpt lat="33.5958467" lon="-7.630575"><ele>28.000000000000004</ele><time>2026-04-27T10:15:59.041Z</time></trkpt><trkpt lat="33.5957833" lon="-7.6305467"><ele>28.0</ele><time>2026-04-27T10:16:00.041Z</time></trkpt><trkpt lat="33.595725" lon="-7.6305133"><ele>28.0</ele><time>2026-04-27T10:16:01.041Z</time></trkpt><trkpt lat="33.5956683" lon="-7.6304767"><ele>28.0</ele><time>2026-04-27T10:16:02.041Z</time></trkpt><trkpt lat="33.5955817" lon="-7.630405"><ele>28.000000000000004</ele><time>2026-04-27T10:16:04.041Z</time></trkpt><trkpt lat="33.5954833" lon="-7.630335"><ele>28.0</ele><time>2026-04-27T10:16:06.041Z</time></trkpt><trkpt lat="33.5954217" lon="-7.6302933"><ele>28.000000000000004</ele><time>2026-04-27T10:16:07.041Z</time></trkpt><trkpt lat="33.5953517" lon="-7.6302433"><ele>28.0</ele><time>2026-04-27T10:16:08.041Z</time></trkpt><trkpt lat="33.5952733" lon="-7.6301867"><ele>28.0</ele><time>2026-04-27T10:16:09.041Z</time></trkpt><trkpt lat="33.5951883" lon="-7.6301467"><ele>28.0</ele><time>2026-04-27T10:16:10.041Z</time></trkpt><trkpt lat="33.595115" lon="-7.6300967"><ele>28.000000000000004</ele><time>2026-04-27T10:16:11.041Z</time></trkpt><trkpt lat="33.5950483" lon="-7.63005"><ele>28.0</ele><time>2026-04-27T10:16:12.04Z</time></trkpt><trkpt lat="33.5949817" lon="-7.63"><ele>27.333333333333336</ele><time>2026-04-27T10:16:13.041Z</time></trkpt><trkpt lat="33.5949183" lon="-7.6299533"><ele>26.666666666666668</ele><time>2026-04-27T10:16:14.041Z</time></trkpt><trkpt lat="33.5948583" lon="-7.6299183"><ele>26.0</ele><time>2026-04-27T10:16:15.041Z</time></trkpt><trkpt lat="33.5947967" lon="-7.6298867"><ele>25.333333333333336</ele><time>2026-04-27T10:16:16.041Z</time></trkpt><trkpt lat="33.5946867" lon="-7.6298233"><ele>24.666666666666668</ele><time>2026-04-27T10:16:18.041Z</time></trkpt><trkpt lat="33.5946017" lon="-7.6297667"><ele>24.0</ele><time>2026-04-27T10:16:20.04Z</time></trkpt><trkpt lat="33.5945433" lon="-7.6297367"><ele>24.2</ele><time>2026-04-27T10:16:23.04Z</time></trkpt><trkpt lat="33.5944833" lon="-7.6296867"><ele>24.4</ele><time>2026-04-27T10:16:28.041Z</time></trkpt><trkpt lat="33.5944067" lon="-7.62962"><ele>24.6</ele><time>2026-04-27T10:16:45.041Z</time></trkpt><trkpt lat="33.5943033" lon="-7.6295683"><ele>24.8</ele><time>2026-04-27T10:16:47.041Z</time></trkpt><trkpt lat="33.5942017" lon="-7.6295033"><ele>25.0</ele><time>2026-04-27T10:16:49.04Z</time></trkpt><trkpt lat="33.594145" lon="-7.62946"><ele>25.166666666666668</ele><time>2026-04-27T10:16:50.041Z</time></trkpt><trkpt lat="33.5940867" lon="-7.6294183"><ele>25.333333333333336</ele><time>2026-04-27T10:16:51.041Z</time></trkpt><trkpt lat="33.5940233" lon="-7.62937"><ele>25.5</ele><time>2026-04-27T10:16:52.041Z</time></trkpt><trkpt lat="33.59396" lon="-7.6293283"><ele>25.666666666666664</ele><time>2026-04-27T10:16:53.041Z</time></trkpt><trkpt lat="33.5938967" lon="-7.629285"><ele>25.833333333333332</ele><time>2026-04-27T10:16:54.041Z</time></trkpt><trkpt lat="33.593825" lon="-7.6292383"><ele>26.0</ele><time>2026-04-27T10:16:55.041Z</time></trkpt><trkpt lat="33.593755" lon="-7.6291917"><ele>25.999999999999996</ele><time>2026-04-27T10:16:56.041Z</time></trkpt><trkpt lat="33.5936867" lon="-7.6291433"><ele>26.0</ele><time>2026-04-27T10:16:57.041Z</time></trkpt><trkpt lat="33.5936133" lon="-7.6290933"><ele>26.0</ele><time>2026-04-27T10:16:58.041Z</time></trkpt><trkpt lat="33.5935317" lon="-7.6290517"><ele>26.0</ele><time>2026-04-27T10:16:59.041Z</time></trkpt><trkpt lat="33.59347" lon="-7.6290167"><ele>25.999999999999996</ele><time>2026-04-27T10:17:00.04Z</time></trkpt><trkpt lat="33.59339" lon="-7.6289483"><ele>26.0</ele><time>2026-04-27T10:17:02.041Z</time></trkpt><trkpt lat="33.5933417" lon="-7.628855"><ele>26.666666666666664</ele><time>2026-04-27T10:17:04.041Z</time></trkpt><trkpt lat="33.5933317" lon="-7.6287633"><ele>27.333333333333332</ele><time>2026-04-27T10:17:06.041Z</time></trkpt><trkpt lat="33.5933633" lon="-7.628695"><ele>28.0</ele><time>2026-04-27T10:17:08.041Z</time></trkpt><trkpt lat="33.59342" lon="-7.6286317"><ele>28.666666666666664</ele><time>2026-04-27T10:17:10.041Z</time></trkpt><trkpt lat="33.593485" lon="-7.6285617"><ele>29.333333333333332</ele><time>2026-04-27T10:17:12.04Z</time></trkpt><trkpt lat="33.5935367" lon="-7.6284633"><ele>30.0</ele><time>2026-04-27T10:17:14.041Z</time></trkpt><trkpt lat="33.5935783" lon="-7.62836"><ele>30.0</ele><time>2026-04-27T10:17:16.041Z</time></trkpt><trkpt lat="33.5936" lon="-7.6282517"><ele>30.0</ele><time>2026-04-27T10:17:18.04Z</time></trkpt><trkpt lat="33.5935917" lon="-7.6281383"><ele>30.0</ele><time>2026-04-27T10:17:20.04Z</time></trkpt><trkpt lat="33.5935633" lon="-7.6280083"><ele>30.0</ele><time>2026-04-27T10:17:22.041Z</time></trkpt><trkpt lat="33.593505" lon="-7.6278717"><ele>30.0</ele><time>2026-04-27T10:17:24.041Z</time></trkpt><trkpt lat="33.5934667" lon="-7.6277967"><ele>29.42857142857143</ele><time>2026-04-27T10:17:25.041Z</time></trkpt><trkpt lat="33.5934267" lon="-7.6277167"><ele>28.857142857142854</ele><time>2026-04-27T10:17:26.04Z</time></trkpt><trkpt lat="33.593385" lon="-7.6276367"><ele>28.285714285714285</ele><time>2026-04-27T10:17:27.041Z</time></trkpt><trkpt lat="33.5933467" lon="-7.627555"><ele>27.714285714285715</ele><time>2026-04-27T10:17:28.041Z</time></trkpt><trkpt lat="33.5933117" lon="-7.6274767"><ele>27.142857142857146</ele><time>2026-04-27T10:17:29.04Z</time></trkpt><trkpt lat="33.5932767" lon="-7.6274067"><ele>26.57142857142857</ele><time>2026-04-27T10:17:30.041Z</time></trkpt><trkpt lat="33.5932433" lon="-7.62733"><ele>26.0</ele><time>2026-04-27T10:17:31.041Z</time></trkpt><trkpt lat="33.59321" lon="-7.627255"><ele>25.999999999999996</ele><time>2026-04-27T10:17:32.04Z</time></trkpt><trkpt lat="33.5931783" lon="-7.627185"><ele>26.0</ele><time>2026-04-27T10:17:33.041Z</time></trkpt><trkpt lat="33.59312" lon="-7.62706"><ele>26.0</ele><time>2026-04-27T10:17:35.041Z</time></trkpt><trkpt lat="33.5930617" lon="-7.6269483"><ele>26.0</ele><time>2026-04-27T10:17:37.041Z</time></trkpt><trkpt lat="33.5930233" lon="-7.6268833"><ele>25.999999999999996</ele><time>2026-04-27T10:17:38.041Z</time></trkpt><trkpt lat="33.59299" lon="-7.6268117"><ele>26.0</ele><time>2026-04-27T10:17:39.041Z</time></trkpt><trkpt lat="33.59296" lon="-7.6267383"><ele>25.999999999999996</ele><time>2026-04-27T10:17:40.041Z</time></trkpt><trkpt lat="33.5929317" lon="-7.6266617"><ele>26.0</ele><time>2026-04-27T10:17:41.041Z</time></trkpt><trkpt lat="33.5929" lon="-7.6265933"><ele>26.0</ele><time>2026-04-27T10:17:42.041Z</time></trkpt><trkpt lat="33.59285" lon="-7.626475"><ele>26.0</ele><time>2026-04-27T10:17:44.041Z</time></trkpt><trkpt lat="33.592815" lon="-7.6264033"><ele>25.999999999999996</ele><time>2026-04-27T10:17:46.041Z</time></trkpt><trkpt lat="33.5927867" lon="-7.626295"><ele>26.0</ele><time>2026-04-27T10:17:49.041Z</time></trkpt><trkpt lat="33.59275" lon="-7.6262033"><ele>26.25</ele><time>2026-04-27T10:17:51.041Z</time></trkpt><trkpt lat="33.5927033" lon="-7.62609"><ele>26.5</ele><time>2026-04-27T10:17:53.041Z</time></trkpt><trkpt lat="33.5926433" lon="-7.6259633"><ele>26.75</ele><time>2026-04-27T10:17:55.041Z</time></trkpt><trkpt lat="33.5925867" lon="-7.62584"><ele>27.0</ele><time>2026-04-27T10:17:57.041Z</time></trkpt><trkpt lat="33.59253" lon="-7.6257183"><ele>27.0</ele><time>2026-04-27T10:17:59.041Z</time></trkpt><trkpt lat="33.592475" lon="-7.6255917"><ele>27.0</ele><time>2026-04-27T10:18:01.041Z</time></trkpt><trkpt lat="33.5924383" lon="-7.625525"><ele>27.0</ele><time>2026-04-27T10:18:02.041Z</time></trkpt><trkpt lat="33.5924" lon="-7.6254533"><ele>27.0</ele><time>2026-04-27T10:18:03.04Z</time></trkpt><trkpt lat="33.5923633" lon="-7.625385"><ele>27.0</ele><time>2026-04-27T10:18:04.041Z</time></trkpt><trkpt lat="33.5923083" lon="-7.6252883"><ele>27.0</ele><time>2026-04-27T10:18:06.041Z</time></trkpt><trkpt lat="33.5922817" lon="-7.6252133"><ele>26.833333333333332</ele><time>2026-04-27T10:18:09.041Z</time></trkpt><trkpt lat="33.592245" lon="-7.625125"><ele>26.666666666666664</ele><time>2026-04-27T10:18:28.041Z</time></trkpt><trkpt lat="33.5922017" lon="-7.6250167"><ele>26.5</ele><time>2026-04-27T10:18:30.041Z</time></trkpt><trkpt lat="33.59217" lon="-7.62492"><ele>26.333333333333332</ele><time>2026-04-27T10:18:32.04Z</time></trkpt><trkpt lat="33.59214" lon="-7.6248433"><ele>26.166666666666664</ele><time>2026-04-27T10:18:34.04Z</time></trkpt><trkpt lat="33.5920967" lon="-7.6247583"><ele>26.0</ele><time>2026-04-27T10:18:36.04Z</time></trkpt><trkpt lat="33.592055" lon="-7.6246767"><ele>25.6</ele><time>2026-04-27T10:18:38.041Z</time></trkpt><trkpt lat="33.592" lon="-7.6246217"><ele>25.200000000000003</ele><time>2026-04-27T10:18:41.041Z</time></trkpt><trkpt lat="33.591965" lon="-7.6245217"><ele>24.799999999999997</ele><time>2026-04-27T10:18:44.041Z</time></trkpt><trkpt lat="33.5919367" lon="-7.6244317"><ele>24.4</ele><time>2026-04-27T10:18:47.041Z</time></trkpt><trkpt lat="33.5919683" lon="-7.624315"><ele>24.0</ele><time>2026-04-27T10:19:24.041Z</time></trkpt><trkpt lat="33.59186" lon="-7.62424"><ele>24.0</ele><time>2026-04-27T10:21:50.04Z</time></trkpt><trkpt lat="33.591865" lon="-7.624115"><ele>24.0</ele><time>2026-04-27T10:22:05.04Z</time></trkpt><trkpt lat="33.5918333" lon="-7.6240317"><ele>24.0</ele><time>2026-04-27T10:22:08.04Z</time></trkpt><trkpt lat="33.5918117" lon="-7.6239567"><ele>24.0</ele><time>2026-04-27T10:22:10.04Z</time></trkpt><trkpt lat="33.5917817" lon="-7.623845"><ele>24.0</ele><time>2026-04-27T10:22:12.039Z</time></trkpt><trkpt lat="33.5917333" lon="-7.62372"><ele>24.166666666666668</ele><time>2026-04-27T10:22:14.04Z</time></trkpt><trkpt lat="33.5916717" lon="-7.6236017"><ele>24.333333333333336</ele><time>2026-04-27T10:22:16.039Z</time></trkpt><trkpt lat="33.5916467" lon="-7.6235283"><ele>24.5</ele><time>2026-04-27T10:22:17.04Z</time></trkpt><trkpt lat="33.5916133" lon="-7.6234533"><ele>24.666666666666668</ele><time>2026-04-27T10:22:18.04Z</time></trkpt><trkpt lat="33.591585" lon="-7.6233733"><ele>24.833333333333336</ele><time>2026-04-27T10:22:19.04Z</time></trkpt><trkpt lat="33.5915583" lon="-7.623295"><ele>25.0</ele><time>2026-04-27T10:22:20.04Z</time></trkpt><trkpt lat="33.5915317" lon="-7.6232117"><ele>25.000000000000004</ele><time>2026-04-27T10:22:21.04Z</time></trkpt><trkpt lat="33.5914983" lon="-7.6231283"><ele>25.0</ele><time>2026-04-27T10:22:22.04Z</time></trkpt><trkpt lat="33.5914633" lon="-7.6230467"><ele>25.0</ele><time>2026-04-27T10:22:23.04Z</time></trkpt><trkpt lat="33.59143" lon="-7.62296"><ele>25.0</ele><time>2026-04-27T10:22:24.039Z</time></trkpt><trkpt lat="33.5914017" lon="-7.6228667"><ele>25.000000000000004</ele><time>2026-04-27T10:22:25.04Z</time></trkpt><trkpt lat="33.5913767" lon="-7.622775"><ele>25.0</ele><time>2026-04-27T10:22:26.039Z</time></trkpt><trkpt lat="33.5913533" lon="-7.622695"><ele>24.666666666666668</ele><time>2026-04-27T10:22:27.04Z</time></trkpt><trkpt lat="33.5913217" lon="-7.6226067"><ele>24.333333333333336</ele><time>2026-04-27T10:22:28.04Z</time></trkpt><trkpt lat="33.5912917" lon="-7.6225167"><ele>24.0</ele><time>2026-04-27T10:22:29.04Z</time></trkpt><trkpt lat="33.59126" lon="-7.622435"><ele>23.666666666666668</ele><time>2026-04-27T10:22:30.04Z</time></trkpt><trkpt lat="33.591225" lon="-7.6223517"><ele>23.333333333333336</ele><time>2026-04-27T10:22:31.04Z</time></trkpt><trkpt lat="33.59119" lon="-7.6222683"><ele>23.0</ele><time>2026-04-27T10:22:32.04Z</time></trkpt><trkpt lat="33.59115" lon="-7.62218"><ele>23.0</ele><time>2026-04-27T10:22:33.04Z</time></trkpt><trkpt lat="33.5911117" lon="-7.6220883"><ele>23.0</ele><time>2026-04-27T10:22:34.04Z</time></trkpt><trkpt lat="33.591075" lon="-7.622"><ele>23.0</ele><time>2026-04-27T10:22:35.04Z</time></trkpt><trkpt lat="33.5910317" lon="-7.6219133"><ele>23.0</ele><time>2026-04-27T10:22:36.04Z</time></trkpt><trkpt lat="33.5909917" lon="-7.621825"><ele>23.0</ele><time>2026-04-27T10:22:37.04Z</time></trkpt><trkpt lat="33.5909383" lon="-7.62174"><ele>23.0</ele><time>2026-04-27T10:22:38.04Z</time></trkpt><trkpt lat="33.5908867" lon="-7.621655"><ele>22.666666666666668</ele><time>2026-04-27T10:22:39.04Z</time></trkpt><trkpt lat="33.59084" lon="-7.6215617"><ele>22.333333333333336</ele><time>2026-04-27T10:22:40.04Z</time></trkpt><trkpt lat="33.590795" lon="-7.6214683"><ele>22.0</ele><time>2026-04-27T10:22:41.04Z</time></trkpt><trkpt lat="33.5907583" lon="-7.621385"><ele>21.666666666666668</ele><time>2026-04-27T10:22:42.04Z</time></trkpt><trkpt lat="33.5907217" lon="-7.6212983"><ele>21.333333333333332</ele><time>2026-04-27T10:22:43.04Z</time></trkpt><trkpt lat="33.5906817" lon="-7.6212117"><ele>21.0</ele><time>2026-04-27T10:22:44.04Z</time></trkpt><trkpt lat="33.59064" lon="-7.62111"><ele>21.0</ele><time>2026-04-27T10:22:45.04Z</time></trkpt><trkpt lat="33.5906" lon="-7.621"><ele>21.0</ele><time>2026-04-27T10:22:46.04Z</time></trkpt><trkpt lat="33.5905583" lon="-7.620885"><ele>21.0</ele><time>2026-04-27T10:22:47.04Z</time></trkpt><trkpt lat="33.5905183" lon="-7.6207833"><ele>21.0</ele><time>2026-04-27T10:22:48.04Z</time></trkpt><trkpt lat="33.5904817" lon="-7.6206867"><ele>21.0</ele><time>2026-04-27T10:22:49.04Z</time></trkpt><trkpt lat="33.59044" lon="-7.620595"><ele>21.0</ele><time>2026-04-27T10:22:50.04Z</time></trkpt><trkpt lat="33.590405" lon="-7.62051"><ele>21.0</ele><time>2026-04-27T10:22:51.04Z</time></trkpt><trkpt lat="33.5903633" lon="-7.6204317"><ele>21.0</ele><time>2026-04-27T10:22:52.039Z</time></trkpt><trkpt lat="33.5903317" lon="-7.6203517"><ele>21.0</ele><time>2026-04-27T10:22:53.04Z</time></trkpt><trkpt lat="33.5903083" lon="-7.6202733"><ele>21.0</ele><time>2026-04-27T10:22:54.039Z</time></trkpt><trkpt lat="33.590285" lon="-7.6202"><ele>21.0</ele><time>2026-04-27T10:22:55.04Z</time></trkpt><trkpt lat="33.5902533" lon="-7.6201317"><ele>21.0</ele><time>2026-04-27T10:22:56.04Z</time></trkpt><trkpt lat="33.5901983" lon="-7.620005"><ele>21.5</ele><time>2026-04-27T10:22:58.04Z</time></trkpt><trkpt lat="33.5901533" lon="-7.61991"><ele>22.0</ele><time>2026-04-27T10:23:00.04Z</time></trkpt><trkpt lat="33.59011" lon="-7.61983"><ele>22.5</ele><time>2026-04-27T10:23:02.04Z</time></trkpt><trkpt lat="33.590075" lon="-7.6197367"><ele>23.0</ele><time>2026-04-27T10:23:04.04Z</time></trkpt><trkpt lat="33.5900533" lon="-7.6196467"><ele>23.5</ele><time>2026-04-27T10:23:06.04Z</time></trkpt><trkpt lat="33.5900067" lon="-7.6195517"><ele>24.0</ele><time>2026-04-27T10:23:08.04Z</time></trkpt><trkpt lat="33.5899367" lon="-7.6194483"><ele>24.57142857142857</ele><time>2026-04-27T10:23:10.04Z</time></trkpt><trkpt lat="33.5898767" lon="-7.6194017"><ele>25.142857142857142</ele><time>2026-04-27T10:23:11.039Z</time></trkpt><trkpt lat="33.5898167" lon="-7.6193517"><ele>25.714285714285715</ele><time>2026-04-27T10:23:12.04Z</time></trkpt><trkpt lat="33.5897633" lon="-7.6193"><ele>26.285714285714285</ele><time>2026-04-27T10:23:13.04Z</time></trkpt><trkpt lat="33.589705" lon="-7.6192567"><ele>26.857142857142858</ele><time>2026-04-27T10:23:14.039Z</time></trkpt><trkpt lat="33.589645" lon="-7.6192217"><ele>27.428571428571427</ele><time>2026-04-27T10:23:15.04Z</time></trkpt><trkpt lat="33.5895883" lon="-7.6191883"><ele>28.0</ele><time>2026-04-27T10:23:16.04Z</time></trkpt><trkpt lat="33.5895317" lon="-7.6191483"><ele>28.42857142857143</ele><time>2026-04-27T10:23:17.039Z</time></trkpt><trkpt lat="33.58947" lon="-7.6191067"><ele>28.857142857142858</ele><time>2026-04-27T10:23:18.04Z</time></trkpt><trkpt lat="33.589415" lon="-7.6190667"><ele>29.285714285714285</ele><time>2026-04-27T10:23:19.04Z</time></trkpt><trkpt lat="33.5893583" lon="-7.6190183"><ele>29.714285714285715</ele><time>2026-04-27T10:23:20.04Z</time></trkpt><trkpt lat="33.5893033" lon="-7.6189667"><ele>30.142857142857146</ele><time>2026-04-27T10:23:21.039Z</time></trkpt><trkpt lat="33.5892517" lon="-7.618915"><ele>30.571428571428573</ele><time>2026-04-27T10:23:22.039Z</time></trkpt><trkpt lat="33.5891967" lon="-7.61887"><ele>31.0</ele><time>2026-04-27T10:23:23.04Z</time></trkpt><trkpt lat="33.589145" lon="-7.6188217"><ele>31.0</ele><time>2026-04-27T10:23:24.039Z</time></trkpt><trkpt lat="33.589095" lon="-7.6187733"><ele>31.000000000000004</ele><time>2026-04-27T10:23:25.04Z</time></trkpt><trkpt lat="33.5890433" lon="-7.618725"><ele>31.0</ele><time>2026-04-27T10:23:26.04Z</time></trkpt><trkpt lat="33.58899" lon="-7.618675"><ele>31.0</ele><time>2026-04-27T10:23:27.04Z</time></trkpt><trkpt lat="33.5889333" lon="-7.6186167"><ele>31.000000000000004</ele><time>2026-04-27T10:23:28.04Z</time></trkpt><trkpt lat="33.5888733" lon="-7.6185717"><ele>31.0</ele><time>2026-04-27T10:23:29.04Z</time></trkpt><trkpt lat="33.5888133" lon="-7.6185117"><ele>31.0</ele><time>2026-04-27T10:23:30.04Z</time></trkpt><trkpt lat="33.58875" lon="-7.61847"><ele>30.500000000000004</ele><time>2026-04-27T10:23:31.04Z</time></trkpt><trkpt lat="33.5886833" lon="-7.6184333"><ele>30.0</ele><time>2026-04-27T10:23:32.04Z</time></trkpt><trkpt lat="33.5886267" lon="-7.6183883"><ele>29.5</ele><time>2026-04-27T10:23:33.04Z</time></trkpt><trkpt lat="33.58853" lon="-7.6183067"><ele>29.0</ele><time>2026-04-27T10:23:35.04Z</time></trkpt><trkpt lat="33.5884667" lon="-7.618215"><ele>28.500000000000004</ele><time>2026-04-27T10:23:37.04Z</time></trkpt><trkpt lat="33.5884267" lon="-7.6181533"><ele>28.0</ele><time>2026-04-27T10:23:40.04Z</time></trkpt><trkpt lat="33.5883617" lon="-7.61812"><ele>27.833333333333336</ele><time>2026-04-27T10:23:48.04Z</time></trkpt><trkpt lat="33.588265" lon="-7.6179733"><ele>27.666666666666668</ele><time>2026-04-27T10:24:49.039Z</time></trkpt><trkpt lat="33.58821" lon="-7.61792"><ele>27.5</ele><time>2026-04-27T10:24:51.039Z</time></trkpt><trkpt lat="33.5881583" lon="-7.6178667"><ele>27.333333333333336</ele><time>2026-04-27T10:24:53.039Z</time></trkpt><trkpt lat="33.5881083" lon="-7.6178183"><ele>27.166666666666668</ele><time>2026-04-27T10:24:55.039Z</time></trkpt><trkpt lat="33.5880417" lon="-7.61778"><ele>27.0</ele><time>2026-04-27T10:24:58.038Z</time></trkpt><trkpt lat="33.5879517" lon="-7.617725"><ele>27.400000000000002</ele><time>2026-04-27T10:25:13.039Z</time></trkpt><trkpt lat="33.5879083" lon="-7.6176633"><ele>27.800000000000004</ele><time>2026-04-27T10:25:15.039Z</time></trkpt><trkpt lat="33.58787" lon="-7.6175533"><ele>28.2</ele><time>2026-04-27T10:25:17.038Z</time></trkpt><trkpt lat="33.58783" lon="-7.617415"><ele>28.6</ele><time>2026-04-27T10:25:19.039Z</time></trkpt><trkpt lat="33.58776" lon="-7.6172867"><ele>29.0</ele><time>2026-04-27T10:25:21.039Z</time></trkpt><trkpt lat="33.58768" lon="-7.6171733"><ele>29.0</ele><time>2026-04-27T10:25:23.039Z</time></trkpt><trkpt lat="33.5876367" lon="-7.6171183"><ele>29.0</ele><time>2026-04-27T10:25:24.039Z</time></trkpt><trkpt lat="33.5875617" lon="-7.6170067"><ele>29.0</ele><time>2026-04-27T10:25:26.038Z</time></trkpt><trkpt lat="33.58749" lon="-7.6168933"><ele>29.0</ele><time>2026-04-27T10:25:28.039Z</time></trkpt><trkpt lat="33.5874167" lon="-7.6168083"><ele>29.0</ele><time>2026-04-27T10:25:30.039Z</time></trkpt><trkpt lat="33.5873317" lon="-7.6167"><ele>28.999999999999996</ele><time>2026-04-27T10:25:32.039Z</time></trkpt><trkpt lat="33.5872817" lon="-7.6166383"><ele>29.0</ele><time>2026-04-27T10:25:33.039Z</time></trkpt><trkpt lat="33.5872333" lon="-7.6165717"><ele>29.0</ele><time>2026-04-27T10:25:34.039Z</time></trkpt><trkpt lat="33.5871767" lon="-7.6165017"><ele>29.0</ele><time>2026-04-27T10:25:35.039Z</time></trkpt><trkpt lat="33.5871167" lon="-7.6164283"><ele>28.999999999999996</ele><time>2026-04-27T10:25:36.039Z</time></trkpt><trkpt lat="33.5870633" lon="-7.616355"><ele>29.0</ele><time>2026-04-27T10:25:37.039Z</time></trkpt><trkpt lat="33.587005" lon="-7.616275"><ele>29.166666666666664</ele><time>2026-04-27T10:25:38.039Z</time></trkpt><trkpt lat="33.58695" lon="-7.6161933"><ele>29.333333333333332</ele><time>2026-04-27T10:25:39.039Z</time></trkpt><trkpt lat="33.586895" lon="-7.6161117"><ele>29.5</ele><time>2026-04-27T10:25:40.039Z</time></trkpt><trkpt lat="33.5868467" lon="-7.616035"><ele>29.666666666666664</ele><time>2026-04-27T10:25:41.039Z</time></trkpt><trkpt lat="33.5867983" lon="-7.6159483"><ele>29.833333333333332</ele><time>2026-04-27T10:25:42.039Z</time></trkpt><trkpt lat="33.5867567" lon="-7.6158617"><ele>30.0</ele><time>2026-04-27T10:25:43.039Z</time></trkpt><trkpt lat="33.5867183" lon="-7.6157717"><ele>30.0</ele><time>2026-04-27T10:25:44.039Z</time></trkpt><trkpt lat="33.5866783" lon="-7.615685"><ele>30.0</ele><time>2026-04-27T10:25:45.039Z</time></trkpt><trkpt lat="33.5866383" lon="-7.6155983"><ele>30.0</ele><time>2026-04-27T10:25:46.039Z</time></trkpt><trkpt lat="33.5865967" lon="-7.6155167"><ele>30.0</ele><time>2026-04-27T10:25:47.039Z</time></trkpt><trkpt lat="33.5865583" lon="-7.6154417"><ele>30.0</ele><time>2026-04-27T10:25:48.039Z</time></trkpt><trkpt lat="33.58652" lon="-7.6153733"><ele>30.0</ele><time>2026-04-27T10:25:49.039Z</time></trkpt><trkpt lat="33.58646" lon="-7.615245"><ele>29.833333333333332</ele><time>2026-04-27T10:25:51.039Z</time></trkpt><trkpt lat="33.5863833" lon="-7.6151333"><ele>29.666666666666664</ele><time>2026-04-27T10:25:53.039Z</time></trkpt><trkpt lat="33.5863317" lon="-7.6150733"><ele>29.5</ele><time>2026-04-27T10:25:54.039Z</time></trkpt><trkpt lat="33.5862883" lon="-7.6150033"><ele>29.333333333333332</ele><time>2026-04-27T10:25:55.039Z</time></trkpt><trkpt lat="33.58625" lon="-7.6149317"><ele>29.166666666666664</ele><time>2026-04-27T10:25:56.039Z</time></trkpt><trkpt lat="33.586215" lon="-7.6148583"><ele>29.0</ele><time>2026-04-27T10:25:57.039Z</time></trkpt><trkpt lat="33.586175" lon="-7.6147867"><ele>29.0</ele><time>2026-04-27T10:25:58.039Z</time></trkpt><trkpt lat="33.5861067" lon="-7.6146883"><ele>29.0</ele><time>2026-04-27T10:26:00.038Z</time></trkpt><trkpt lat="33.58606" lon="-7.6145833"><ele>29.0</ele><time>2026-04-27T10:26:02.039Z</time></trkpt><trkpt lat="33.58602" lon="-7.6144683"><ele>29.0</ele><time>2026-04-27T10:26:04.039Z</time></trkpt><trkpt lat="33.5859883" lon="-7.6143967"><ele>29.0</ele><time>2026-04-27T10:26:05.039Z</time></trkpt><trkpt lat="33.5859533" lon="-7.6143183"><ele>29.166666666666664</ele><time>2026-04-27T10:26:06.039Z</time></trkpt><trkpt lat="33.585915" lon="-7.6142283"><ele>29.333333333333332</ele><time>2026-04-27T10:26:07.039Z</time></trkpt><trkpt lat="33.5858783" lon="-7.6141367"><ele>29.5</ele><time>2026-04-27T10:26:08.039Z</time></trkpt><trkpt lat="33.5858417" lon="-7.6140533"><ele>29.666666666666664</ele><time>2026-04-27T10:26:09.039Z</time></trkpt><trkpt lat="33.5858083" lon="-7.6139767"><ele>29.833333333333332</ele><time>2026-04-27T10:26:10.039Z</time></trkpt><trkpt lat="33.58577" lon="-7.6138967"><ele>30.0</ele><time>2026-04-27T10:26:11.039Z</time></trkpt><trkpt lat="33.5857233" lon="-7.61381"><ele>30.0</ele><time>2026-04-27T10:26:12.039Z</time></trkpt><trkpt lat="33.5856883" lon="-7.61372"><ele>30.0</ele><time>2026-04-27T10:26:13.038Z</time></trkpt><trkpt lat="33.58564" lon="-7.6136583"><ele>30.0</ele><time>2026-04-27T10:26:14.039Z</time></trkpt><trkpt lat="33.5855967" lon="-7.6135917"><ele>30.0</ele><time>2026-04-27T10:26:15.039Z</time></trkpt><trkpt lat="33.5855667" lon="-7.6135233"><ele>30.0</ele><time>2026-04-27T10:26:16.039Z</time></trkpt><trkpt lat="33.5855217" lon="-7.6133817"><ele>30.0</ele><time>2026-04-27T10:26:18.039Z</time></trkpt><trkpt lat="33.5854617" lon="-7.61325"><ele>30.2</ele><time>2026-04-27T10:26:20.039Z</time></trkpt><trkpt lat="33.585425" lon="-7.6131817"><ele>30.4</ele><time>2026-04-27T10:26:21.039Z</time></trkpt><trkpt lat="33.5853533" lon="-7.6130617"><ele>30.6</ele><time>2026-04-27T10:26:23.039Z</time></trkpt><trkpt lat="33.58529" lon="-7.612945"><ele>30.8</ele><time>2026-04-27T10:26:25.039Z</time></trkpt><trkpt lat="33.5852333" lon="-7.6128067"><ele>31.0</ele><time>2026-04-27T10:26:27.039Z</time></trkpt><trkpt lat="33.585205" lon="-7.6127317"><ele>31.0</ele><time>2026-04-27T10:26:28.039Z</time></trkpt><trkpt lat="33.585175" lon="-7.612655"><ele>31.000000000000004</ele><time>2026-04-27T10:26:29.039Z</time></trkpt><trkpt lat="33.5851417" lon="-7.612575"><ele>31.0</ele><time>2026-04-27T10:26:30.039Z</time></trkpt><trkpt lat="33.58511" lon="-7.6124917"><ele>31.0</ele><time>2026-04-27T10:26:31.039Z</time></trkpt><trkpt lat="33.5850783" lon="-7.6124083"><ele>31.000000000000004</ele><time>2026-04-27T10:26:32.039Z</time></trkpt><trkpt lat="33.585055" lon="-7.6123267"><ele>31.0</ele><time>2026-04-27T10:26:33.039Z</time></trkpt><trkpt lat="33.5850383" lon="-7.6122417"><ele>31.0</ele><time>2026-04-27T10:26:34.039Z</time></trkpt><trkpt lat="33.5850117" lon="-7.6121617"><ele>31.0</ele><time>2026-04-27T10:26:35.039Z</time></trkpt><trkpt lat="33.584985" lon="-7.6120817"><ele>31.000000000000004</ele><time>2026-04-27T10:26:36.039Z</time></trkpt><trkpt lat="33.5849583" lon="-7.612005"><ele>31.0</ele><time>2026-04-27T10:26:37.038Z</time></trkpt><trkpt lat="33.5849317" lon="-7.61193"><ele>31.0</ele><time>2026-04-27T10:26:38.039Z</time></trkpt><trkpt lat="33.5848883" lon="-7.61187"><ele>31.000000000000004</ele><time>2026-04-27T10:26:39.039Z</time></trkpt><trkpt lat="33.584825" lon="-7.6118217"><ele>31.0</ele><time>2026-04-27T10:26:40.039Z</time></trkpt><trkpt lat="33.584775" lon="-7.611765"><ele>31.0</ele><time>2026-04-27T10:26:41.038Z</time></trkpt><trkpt lat="33.5847317" lon="-7.611705"><ele>30.857142857142858</ele><time>2026-04-27T10:26:42.039Z</time></trkpt><trkpt lat="33.5846967" lon="-7.6116383"><ele>30.714285714285715</ele><time>2026-04-27T10:26:43.039Z</time></trkpt><trkpt lat="33.5846617" lon="-7.611565"><ele>30.571428571428573</ele><time>2026-04-27T10:26:44.038Z</time></trkpt><trkpt lat="33.584625" lon="-7.6114983"><ele>30.42857142857143</ele><time>2026-04-27T10:26:45.039Z</time></trkpt><trkpt lat="33.5845783" lon="-7.6113983"><ele>30.285714285714285</ele><time>2026-04-27T10:26:47.039Z</time></trkpt><trkpt lat="33.58453" lon="-7.61131"><ele>30.142857142857146</ele><time>2026-04-27T10:26:50.039Z</time></trkpt><trkpt lat="33.58452" lon="-7.611235"><ele>30.0</ele><time>2026-04-27T10:26:53.039Z</time></trkpt><trkpt lat="33.5845967" lon="-7.6111517"><ele>30.2</ele><time>2026-04-27T10:27:24.039Z</time></trkpt><trkpt lat="33.5845183" lon="-7.6110483"><ele>30.4</ele><time>2026-04-27T10:27:30.039Z</time></trkpt><trkpt lat="33.58446" lon="-7.6109483"><ele>30.6</ele><time>2026-04-27T10:27:32.039Z</time></trkpt><trkpt lat="33.5843967" lon="-7.610845"><ele>30.8</ele><time>2026-04-27T10:27:34.039Z</time></trkpt><trkpt lat="33.5843483" lon="-7.610745"><ele>31.0</ele><time>2026-04-27T10:27:36.038Z</time></trkpt><trkpt lat="33.5843433" lon="-7.6106617"><ele>31.0</ele><time>2026-04-27T10:27:38.039Z</time></trkpt><trkpt lat="33.5843283" lon="-7.6105767"><ele>31.0</ele><time>2026-04-27T10:27:40.039Z</time></trkpt><trkpt lat="33.5842867" lon="-7.610485"><ele>31.0</ele><time>2026-04-27T10:27:42.039Z</time></trkpt><trkpt lat="33.5841933" lon="-7.6104133"><ele>31.0</ele><time>2026-04-27T10:27:44.039Z</time></trkpt><trkpt lat="33.5841367" lon="-7.6103783"><ele>31.0</ele><time>2026-04-27T10:27:45.039Z</time></trkpt><trkpt lat="33.58404" lon="-7.6102967"><ele>32.0</ele><time>2026-04-27T10:27:47.038Z</time></trkpt><trkpt lat="33.5839433" lon="-7.6102733"><ele>33.0</ele><time>2026-04-27T10:27:49.039Z</time></trkpt><trkpt lat="33.5838867" lon="-7.61024"><ele>34.0</ele><time>2026-04-27T10:27:51.039Z</time></trkpt><trkpt lat="33.5838267" lon="-7.6101867"><ele>35.0</ele><time>2026-04-27T10:27:54.038Z</time></trkpt><trkpt lat="33.583775" lon="-7.6100933"><ele>36.0</ele><time>2026-04-27T10:27:56.039Z</time></trkpt><trkpt lat="33.583775" lon="-7.609945"><ele>36.00000000000001</ele><time>2026-04-27T10:27:58.038Z</time></trkpt><trkpt lat="33.5837867" lon="-7.6098683"><ele>36.0</ele><time>2026-04-27T10:27:59.039Z</time></trkpt><trkpt lat="33.5837967" lon="-7.6097933"><ele>36.0</ele><time>2026-04-27T10:28:00.039Z</time></trkpt><trkpt lat="33.5838017" lon="-7.6097067"><ele>36.0</ele><time>2026-04-27T10:28:01.038Z</time></trkpt><trkpt lat="33.5837883" lon="-7.6096233"><ele>36.0</ele><time>2026-04-27T10:28:02.038Z</time></trkpt><trkpt lat="33.583755" lon="-7.6095467"><ele>36.00000000000001</ele><time>2026-04-27T10:28:03.039Z</time></trkpt><trkpt lat="33.5837133" lon="-7.6094667"><ele>36.0</ele><time>2026-04-27T10:28:04.039Z</time></trkpt><trkpt lat="33.5836683" lon="-7.6093817"><ele>35.8</ele><time>2026-04-27T10:28:05.038Z</time></trkpt><trkpt lat="33.5836283" lon="-7.6092933"><ele>35.6</ele><time>2026-04-27T10:28:06.038Z</time></trkpt><trkpt lat="33.583585" lon="-7.6092017"><ele>35.4</ele><time>2026-04-27T10:28:07.039Z</time></trkpt><trkpt lat="33.58354" lon="-7.609105"><ele>35.2</ele><time>2026-04-27T10:28:08.039Z</time></trkpt><trkpt lat="33.5834967" lon="-7.6090067"><ele>35.0</ele><time>2026-04-27T10:28:09.039Z</time></trkpt><trkpt lat="33.5834517" lon="-7.6089"><ele>35.0</ele><time>2026-04-27T10:28:10.039Z</time></trkpt><trkpt lat="33.5834083" lon="-7.6087967"><ele>35.0</ele><time>2026-04-27T10:28:11.039Z</time></trkpt><trkpt lat="33.5833617" lon="-7.6086817"><ele>35.0</ele><time>2026-04-27T10:28:12.038Z</time></trkpt><trkpt lat="33.5833033" lon="-7.6085717"><ele>35.0</ele><time>2026-04-27T10:28:13.039Z</time></trkpt><trkpt lat="33.5832467" lon="-7.6084617"><ele>35.0</ele><time>2026-04-27T10:28:14.039Z</time></trkpt><trkpt lat="33.583195" lon="-7.6083467"><ele>35.4</ele><time>2026-04-27T10:28:15.039Z</time></trkpt><trkpt lat="33.58315" lon="-7.6082367"><ele>35.8</ele><time>2026-04-27T10:28:16.039Z</time></trkpt><trkpt lat="33.5830917" lon="-7.608125"><ele>36.2</ele><time>2026-04-27T10:28:17.039Z</time></trkpt><trkpt lat="33.583035" lon="-7.6080233"><ele>36.6</ele><time>2026-04-27T10:28:18.038Z</time></trkpt><trkpt lat="33.5829817" lon="-7.6079133"><ele>37.0</ele><time>2026-04-27T10:28:19.039Z</time></trkpt><trkpt lat="33.5829233" lon="-7.607805"><ele>37.0</ele><time>2026-04-27T10:28:20.039Z</time></trkpt><trkpt lat="33.582875" lon="-7.60769"><ele>37.0</ele><time>2026-04-27T10:28:21.039Z</time></trkpt><trkpt lat="33.582825" lon="-7.60758"><ele>37.0</ele><time>2026-04-27T10:28:22.039Z</time></trkpt><trkpt lat="33.58277" lon="-7.6074733"><ele>37.0</ele><time>2026-04-27T10:28:23.039Z</time></trkpt><trkpt lat="33.5827133" lon="-7.6073617"><ele>37.0</ele><time>2026-04-27T10:28:24.039Z</time></trkpt><trkpt lat="33.582655" lon="-7.6072467"><ele>37.8</ele><time>2026-04-27T10:28:25.039Z</time></trkpt><trkpt lat="33.5825933" lon="-7.6071317"><ele>38.6</ele><time>2026-04-27T10:28:26.039Z</time></trkpt><trkpt lat="33.58254" lon="-7.60701"><ele>39.4</ele><time>2026-04-27T10:28:27.039Z</time></trkpt><trkpt lat="33.582485" lon="-7.6068967"><ele>40.199999999999996</ele><time>2026-04-27T10:28:28.039Z</time></trkpt><trkpt lat="33.582435" lon="-7.6067833"><ele>41.0</ele><time>2026-04-27T10:28:29.039Z</time></trkpt><trkpt lat="33.5823833" lon="-7.6066817"><ele>41.0</ele><time>2026-04-27T10:28:30.038Z</time></trkpt><trkpt lat="33.5823367" lon="-7.6065883"><ele>41.0</ele><time>2026-04-27T10:28:31.039Z</time></trkpt><trkpt lat="33.5822867" lon="-7.6065083"><ele>41.0</ele><time>2026-04-27T10:28:32.039Z</time></trkpt><trkpt lat="33.5822067" lon="-7.60641"><ele>41.0</ele><time>2026-04-27T10:28:34.039Z</time></trkpt><trkpt lat="33.5821433" lon="-7.6063767"><ele>41.0</ele><time>2026-04-27T10:28:36.039Z</time></trkpt><trkpt lat="33.5820767" lon="-7.6063733"><ele>41.0</ele><time>2026-04-27T10:28:39.039Z</time></trkpt><trkpt lat="33.582025" lon="-7.6064417"><ele>41.4</ele><time>2026-04-27T10:28:41.039Z</time></trkpt><trkpt lat="33.5819417" lon="-7.6065717"><ele>41.8</ele><time>2026-04-27T10:28:43.039Z</time></trkpt><trkpt lat="33.581895" lon="-7.606645"><ele>42.199999999999996</ele><time>2026-04-27T10:28:44.039Z</time></trkpt><trkpt lat="33.5818567" lon="-7.6067083"><ele>42.599999999999994</ele><time>2026-04-27T10:28:45.038Z</time></trkpt><trkpt lat="33.5818" lon="-7.6067933"><ele>43.0</ele><time>2026-04-27T10:28:47.038Z</time></trkpt><trkpt lat="33.58174" lon="-7.60687"><ele>43.0</ele><time>2026-04-27T10:28:49.039Z</time></trkpt><trkpt lat="33.58167" lon="-7.6069817"><ele>43.0</ele><time>2026-04-27T10:28:51.039Z</time></trkpt><trkpt lat="33.58163" lon="-7.607045"><ele>43.0</ele><time>2026-04-27T10:28:52.039Z</time></trkpt><trkpt lat="33.58158" lon="-7.6071133"><ele>43.0</ele><time>2026-04-27T10:28:53.039Z</time></trkpt><trkpt lat="33.5815283" lon="-7.6071867"><ele>43.0</ele><time>2026-04-27T10:28:54.039Z</time></trkpt><trkpt lat="33.5814767" lon="-7.6072717"><ele>43.0</ele><time>2026-04-27T10:28:55.039Z</time></trkpt><trkpt lat="33.581445" lon="-7.6073567"><ele>42.66666666666667</ele><time>2026-04-27T10:28:56.039Z</time></trkpt><trkpt lat="33.5814183" lon="-7.60743"><ele>42.333333333333336</ele><time>2026-04-27T10:28:57.039Z</time></trkpt><trkpt lat="33.581385" lon="-7.6075167"><ele>42.0</ele><time>2026-04-27T10:28:59.039Z</time></trkpt><trkpt lat="33.5813333" lon="-7.6075833"><ele>41.666666666666664</ele><time>2026-04-27T10:29:03.038Z</time></trkpt><trkpt lat="33.5812733" lon="-7.6074967"><ele>41.33333333333333</ele><time>2026-04-27T10:29:11.038Z</time></trkpt><trkpt lat="33.5812267" lon="-7.6074417"><ele>41.0</ele><time>2026-04-27T10:29:13.038Z</time></trkpt><trkpt lat="33.5811317" lon="-7.6073567"><ele>41.666666666666664</ele><time>2026-04-27T10:29:15.038Z</time></trkpt><trkpt lat="33.5810717" lon="-7.6073"><ele>42.33333333333333</ele><time>2026-04-27T10:29:16.038Z</time></trkpt><trkpt lat="33.5810167" lon="-7.6072217"><ele>43.0</ele><time>2026-04-27T10:29:17.038Z</time></trkpt><trkpt lat="33.5809633" lon="-7.6071483"><ele>43.666666666666664</ele><time>2026-04-27T10:29:18.038Z</time></trkpt><trkpt lat="33.5809083" lon="-7.607075"><ele>44.333333333333336</ele><time>2026-04-27T10:29:19.038Z</time></trkpt><trkpt lat="33.5808533" lon="-7.6070033"><ele>45.0</ele><time>2026-04-27T10:29:20.038Z</time></trkpt><trkpt lat="33.5808033" lon="-7.606945"><ele>45.166666666666664</ele><time>2026-04-27T10:29:21.038Z</time></trkpt><trkpt lat="33.5807583" lon="-7.6068817"><ele>45.333333333333336</ele><time>2026-04-27T10:29:22.038Z</time></trkpt><trkpt lat="33.5807117" lon="-7.6068217"><ele>45.5</ele><time>2026-04-27T10:29:23.038Z</time></trkpt><trkpt lat="33.5806383" lon="-7.6067183"><ele>45.66666666666667</ele><time>2026-04-27T10:29:25.038Z</time></trkpt><trkpt lat="33.58062" lon="-7.60663"><ele>45.833333333333336</ele><time>2026-04-27T10:29:28.038Z</time></trkpt><trkpt lat="33.580665" lon="-7.606525"><ele>46.0</ele><time>2026-04-27T10:29:31.038Z</time></trkpt><trkpt lat="33.5807367" lon="-7.606415"><ele>46.0</ele><time>2026-04-27T10:29:33.038Z</time></trkpt><trkpt lat="33.5807983" lon="-7.606345"><ele>46.0</ele><time>2026-04-27T10:29:34.038Z</time></trkpt><trkpt lat="33.580875" lon="-7.6062617"><ele>46.0</ele><time>2026-04-27T10:29:35.038Z</time></trkpt><trkpt lat="33.5809517" lon="-7.6061767"><ele>46.0</ele><time>2026-04-27T10:29:36.038Z</time></trkpt><trkpt lat="33.58103" lon="-7.60609"><ele>46.0</ele><time>2026-04-27T10:29:37.038Z</time></trkpt><trkpt lat="33.5811083" lon="-7.6060133"><ele>45.599999999999994</ele><time>2026-04-27T10:29:38.038Z</time></trkpt><trkpt lat="33.5811833" lon="-7.6059317"><ele>45.2</ele><time>2026-04-27T10:29:39.038Z</time></trkpt><trkpt lat="33.5812567" lon="-7.60585"><ele>44.8</ele><time>2026-04-27T10:29:40.038Z</time></trkpt><trkpt lat="33.5813283" lon="-7.6057733"><ele>44.400000000000006</ele><time>2026-04-27T10:29:41.038Z</time></trkpt><trkpt lat="33.5813933" lon="-7.605705"><ele>44.0</ele><time>2026-04-27T10:29:42.037Z</time></trkpt><trkpt lat="33.581455" lon="-7.605645"><ele>44.0</ele><time>2026-04-27T10:29:43.038Z</time></trkpt><trkpt lat="33.5814983" lon="-7.60559"><ele>44.0</ele><time>2026-04-27T10:29:44.038Z</time></trkpt><trkpt lat="33.5815617" lon="-7.6055067"><ele>44.0</ele><time>2026-04-27T10:29:46.037Z</time></trkpt><trkpt lat="33.581615" lon="-7.6054583"><ele>44.0</ele><time>2026-04-27T10:29:48.038Z</time></trkpt><trkpt lat="33.5816633" lon="-7.6054083"><ele>44.0</ele><time>2026-04-27T10:29:51.038Z</time></trkpt><trkpt lat="33.5817383" lon="-7.6053633"><ele>44.0</ele><time>2026-04-27T10:29:55.038Z</time></trkpt><trkpt lat="33.5817817" lon="-7.6053083"><ele>44.0</ele><time>2026-04-27T10:29:57.038Z</time></trkpt><trkpt lat="33.5818333" lon="-7.605245"><ele>43.800000000000004</ele><time>2026-04-27T10:30:00.038Z</time></trkpt><trkpt lat="33.5818767" lon="-7.6051867"><ele>43.6</ele><time>2026-04-27T10:30:03.038Z</time></trkpt><trkpt lat="33.581945" lon="-7.605115"><ele>43.4</ele><time>2026-04-27T10:36:52.037Z</time></trkpt><trkpt lat="33.582035" lon="-7.605045"><ele>43.2</ele><time>2026-04-27T10:36:54.037Z</time></trkpt><trkpt lat="33.5820917" lon="-7.6049783"><ele>43.0</ele><time>2026-04-27T10:36:55.036Z</time></trkpt><trkpt lat="33.58218" lon="-7.604875"><ele>42.8</ele><time>2026-04-27T10:36:56.037Z</time></trkpt><trkpt lat="33.582275" lon="-7.604775"><ele>42.599999999999994</ele><time>2026-04-27T10:36:57.037Z</time></trkpt><trkpt lat="33.582355" lon="-7.6046767"><ele>42.400000000000006</ele><time>2026-04-27T10:36:58.037Z</time></trkpt><trkpt lat="33.5824333" lon="-7.6046"><ele>42.2</ele><time>2026-04-27T10:36:59.037Z</time></trkpt><trkpt lat="33.5824967" lon="-7.6045183"><ele>42.0</ele><time>2026-04-27T10:37:00.037Z</time></trkpt><trkpt lat="33.58256" lon="-7.604455"><ele>41.833333333333336</ele><time>2026-04-27T10:37:01.037Z</time></trkpt><trkpt lat="33.582625" lon="-7.6043883"><ele>41.666666666666664</ele><time>2026-04-27T10:37:02.037Z</time></trkpt><trkpt lat="33.5826867" lon="-7.6043167"><ele>41.5</ele><time>2026-04-27T10:37:03.037Z</time></trkpt><trkpt lat="33.582755" lon="-7.604255"><ele>41.33333333333333</ele><time>2026-04-27T10:37:04.036Z</time></trkpt><trkpt lat="33.582815" lon="-7.6041933"><ele>41.166666666666664</ele><time>2026-04-27T10:37:05.037Z</time></trkpt><trkpt lat="33.5828717" lon="-7.6041383"><ele>41.0</ele><time>2026-04-27T10:37:06.037Z</time></trkpt><trkpt lat="33.5829133" lon="-7.6040783"><ele>41.0</ele><time>2026-04-27T10:37:07.037Z</time></trkpt><trkpt lat="33.58297" lon="-7.6039917"><ele>41.0</ele><time>2026-04-27T10:37:09.037Z</time></trkpt><trkpt lat="33.58297" lon="-7.6039067"><ele>41.0</ele><time>2026-04-27T10:37:12.036Z</time></trkpt><trkpt lat="33.5829217" lon="-7.6038433"><ele>41.0</ele><time>2026-04-27T10:37:15.037Z</time></trkpt><trkpt lat="33.5828583" lon="-7.60378"><ele>41.0</ele><time>2026-04-27T10:37:19.037Z</time></trkpt><trkpt lat="33.58281" lon="-7.603715"><ele>41.0</ele><time>2026-04-27T10:37:22.036Z</time></trkpt><trkpt lat="33.582765" lon="-7.6036417"><ele>40.857142857142854</ele><time>2026-04-27T10:37:24.037Z</time></trkpt><trkpt lat="33.58274" lon="-7.6035617"><ele>40.714285714285715</ele><time>2026-04-27T10:37:28.037Z</time></trkpt><trkpt lat="33.582685" lon="-7.6035067"><ele>40.57142857142857</ele><time>2026-04-27T10:37:33.037Z</time></trkpt><trkpt lat="33.58264" lon="-7.6034533"><ele>40.42857142857143</ele><time>2026-04-27T10:37:35.037Z</time></trkpt><trkpt lat="33.5825867" lon="-7.6033867"><ele>40.285714285714285</ele><time>2026-04-27T10:37:37.037Z</time></trkpt><trkpt lat="33.5825433" lon="-7.60333"><ele>40.14285714285714</ele><time>2026-04-27T10:37:39.037Z</time></trkpt><trkpt lat="33.58249" lon="-7.60328"><ele>40.0</ele><time>2026-04-27T10:37:42.036Z</time></trkpt><trkpt lat="33.5824317" lon="-7.603205"><ele>40.0</ele><time>2026-04-27T10:37:45.036Z</time></trkpt><trkpt lat="33.58239" lon="-7.60314"><ele>40.0</ele><time>2026-04-27T10:37:47.036Z</time></trkpt><trkpt lat="33.5823483" lon="-7.6030683"><ele>40.0</ele><time>2026-04-27T10:37:51.036Z</time></trkpt><trkpt lat="33.5822867" lon="-7.6030067"><ele>40.0</ele><time>2026-04-27T10:37:55.036Z</time></trkpt><trkpt lat="33.5822333" lon="-7.6029517"><ele>40.0</ele><time>2026-04-27T10:37:59.036Z</time></trkpt><trkpt lat="33.582165" lon="-7.60287"><ele>40.0</ele><time>2026-04-27T10:38:09.036Z</time></trkpt><trkpt lat="33.58209" lon="-7.6028017"><ele>40.0</ele><time>2026-04-27T10:38:12.036Z</time></trkpt><trkpt lat="33.5820983" lon="-7.6026567"><ele>40.0</ele><time>2026-04-27T10:38:29.036Z</time></trkpt><trkpt lat="33.5821517" lon="-7.6025933"><ele>40.0</ele><time>2026-04-27T10:38:32.036Z</time></trkpt><trkpt lat="33.5821967" lon="-7.6025117"><ele>40.0</ele><time>2026-04-27T10:38:34.035Z</time></trkpt><trkpt lat="33.5822517" lon="-7.6023867"><ele>40.0</ele><time>2026-04-27T10:38:36.036Z</time></trkpt><trkpt lat="33.5822783" lon="-7.60231"><ele>40.0</ele><time>2026-04-27T10:38:37.036Z</time></trkpt><trkpt lat="33.582305" lon="-7.602235"><ele>40.0</ele><time>2026-04-27T10:38:38.035Z</time></trkpt><trkpt lat="33.5823267" lon="-7.6021567"><ele>40.0</ele><time>2026-04-27T10:38:39.036Z</time></trkpt><trkpt lat="33.5823517" lon="-7.6020717"><ele>40.0</ele><time>2026-04-27T10:38:40.036Z</time></trkpt><trkpt lat="33.58238" lon="-7.60198"><ele>40.0</ele><time>2026-04-27T10:38:41.035Z</time></trkpt><trkpt lat="33.5824133" lon="-7.60189"><ele>40.0</ele><time>2026-04-27T10:38:42.036Z</time></trkpt><trkpt lat="33.5824567" lon="-7.6017917"><ele>40.4</ele><time>2026-04-27T10:38:43.036Z</time></trkpt><trkpt lat="33.5825083" lon="-7.6016867"><ele>40.8</ele><time>2026-04-27T10:38:44.036Z</time></trkpt><trkpt lat="33.58257" lon="-7.6015717"><ele>41.2</ele><time>2026-04-27T10:38:45.036Z</time></trkpt><trkpt lat="33.5826183" lon="-7.6014617"><ele>41.6</ele><time>2026-04-27T10:38:46.036Z</time></trkpt><trkpt lat="33.5826567" lon="-7.6013517"><ele>42.0</ele><time>2026-04-27T10:38:47.036Z</time></trkpt><trkpt lat="33.58272" lon="-7.6012517"><ele>42.25</ele><time>2026-04-27T10:38:48.036Z</time></trkpt><trkpt lat="33.5827833" lon="-7.601145"><ele>42.5</ele><time>2026-04-27T10:38:49.036Z</time></trkpt><trkpt lat="33.5828533" lon="-7.6010283"><ele>42.75</ele><time>2026-04-27T10:38:50.035Z</time></trkpt><trkpt lat="33.5829267" lon="-7.6009117"><ele>43.0</ele><time>2026-04-27T10:38:51.036Z</time></trkpt><trkpt lat="33.5829867" lon="-7.6007933"><ele>42.8</ele><time>2026-04-27T10:38:52.036Z</time></trkpt><trkpt lat="33.5830283" lon="-7.6006717"><ele>42.599999999999994</ele><time>2026-04-27T10:38:53.036Z</time></trkpt><trkpt lat="33.583075" lon="-7.6005617"><ele>42.400000000000006</ele><time>2026-04-27T10:38:54.036Z</time></trkpt><trkpt lat="33.583115" lon="-7.6004583"><ele>42.2</ele><time>2026-04-27T10:38:55.035Z</time></trkpt><trkpt lat="33.5831717" lon="-7.6003533"><ele>42.0</ele><time>2026-04-27T10:38:56.036Z</time></trkpt><trkpt lat="33.5832233" lon="-7.6002417"><ele>42.0</ele><time>2026-04-27T10:38:57.036Z</time></trkpt><trkpt lat="33.5832817" lon="-7.6001383"><ele>42.0</ele><time>2026-04-27T10:38:58.036Z</time></trkpt><trkpt lat="33.583335" lon="-7.6000317"><ele>42.0</ele><time>2026-04-27T10:38:59.036Z</time></trkpt><trkpt lat="33.58339" lon="-7.5999317"><ele>42.0</ele><time>2026-04-27T10:39:00.036Z</time></trkpt><trkpt lat="33.583445" lon="-7.599835"><ele>42.0</ele><time>2026-04-27T10:39:01.036Z</time></trkpt><trkpt lat="33.583495" lon="-7.5997433"><ele>42.0</ele><time>2026-04-27T10:39:02.035Z</time></trkpt><trkpt lat="33.58354" lon="-7.5996483"><ele>42.0</ele><time>2026-04-27T10:39:03.036Z</time></trkpt><trkpt lat="33.5835817" lon="-7.5995617"><ele>42.0</ele><time>2026-04-27T10:39:04.036Z</time></trkpt><trkpt lat="33.5836217" lon="-7.5994867"><ele>42.0</ele><time>2026-04-27T10:39:05.036Z</time></trkpt><trkpt lat="33.5836483" lon="-7.5994167"><ele>42.0</ele><time>2026-04-27T10:39:06.036Z</time></trkpt><trkpt lat="33.5836867" lon="-7.5993283"><ele>42.0</ele><time>2026-04-27T10:39:07.036Z</time></trkpt><trkpt lat="33.5837217" lon="-7.599245"><ele>41.166666666666664</ele><time>2026-04-27T10:39:08.036Z</time></trkpt><trkpt lat="33.5837583" lon="-7.59916"><ele>40.333333333333336</ele><time>2026-04-27T10:39:09.036Z</time></trkpt><trkpt lat="33.5838117" lon="-7.5990917"><ele>39.5</ele><time>2026-04-27T10:39:10.036Z</time></trkpt><trkpt lat="33.583855" lon="-7.599025"><ele>38.66666666666667</ele><time>2026-04-27T10:39:11.036Z</time></trkpt><trkpt lat="33.583905" lon="-7.59895"><ele>37.833333333333336</ele><time>2026-04-27T10:39:12.036Z</time></trkpt><trkpt lat="33.5839383" lon="-7.5988583"><ele>37.0</ele><time>2026-04-27T10:39:13.036Z</time></trkpt><trkpt lat="33.5839667" lon="-7.5987667"><ele>37.0</ele><time>2026-04-27T10:39:14.035Z</time></trkpt><trkpt lat="33.5840017" lon="-7.5986867"><ele>37.0</ele><time>2026-04-27T10:39:15.036Z</time></trkpt><trkpt lat="33.584045" lon="-7.59861"><ele>37.0</ele><time>2026-04-27T10:39:16.036Z</time></trkpt><trkpt lat="33.5840883" lon="-7.5985333"><ele>37.0</ele><time>2026-04-27T10:39:17.035Z</time></trkpt><trkpt lat="33.58413" lon="-7.5984617"><ele>37.0</ele><time>2026-04-27T10:39:18.036Z</time></trkpt><trkpt lat="33.5841617" lon="-7.5983917"><ele>37.0</ele><time>2026-04-27T10:39:19.036Z</time></trkpt><trkpt lat="33.5842183" lon="-7.5983"><ele>37.0</ele><time>2026-04-27T10:39:21.036Z</time></trkpt><trkpt lat="33.58429" lon="-7.5982267"><ele>37.0</ele><time>2026-04-27T10:39:24.036Z</time></trkpt><trkpt lat="33.5843167" lon="-7.5981433"><ele>37.0</ele><time>2026-04-27T10:39:26.036Z</time></trkpt><trkpt lat="33.5843533" lon="-7.59805"><ele>37.0</ele><time>2026-04-27T10:39:28.036Z</time></trkpt><trkpt lat="33.5843983" lon="-7.5979267"><ele>37.0</ele><time>2026-04-27T10:39:30.036Z</time></trkpt><trkpt lat="33.58444" lon="-7.59781"><ele>37.0</ele><time>2026-04-27T10:39:32.036Z</time></trkpt><trkpt lat="33.5843967" lon="-7.5976917"><ele>37.0</ele><time>2026-04-27T10:39:34.036Z</time></trkpt><trkpt lat="33.5843533" lon="-7.5976217"><ele>37.0</ele><time>2026-04-27T10:39:35.036Z</time></trkpt><trkpt lat="33.5843033" lon="-7.5975483"><ele>37.0</ele><time>2026-04-27T10:39:36.036Z</time></trkpt><trkpt lat="33.5842367" lon="-7.5974717"><ele>37.0</ele><time>2026-04-27T10:39:37.035Z</time></trkpt><trkpt lat="33.5841917" lon="-7.5973883"><ele>37.0</ele><time>2026-04-27T10:39:38.036Z</time></trkpt><trkpt lat="33.5841433" lon="-7.597305"><ele>37.0</ele><time>2026-04-27T10:39:39.036Z</time></trkpt><trkpt lat="33.5841" lon="-7.5972167"><ele>37.0</ele><time>2026-04-27T10:39:40.036Z</time></trkpt><trkpt lat="33.58406" lon="-7.597135"><ele>37.0</ele><time>2026-04-27T10:39:41.036Z</time></trkpt><trkpt lat="33.5840217" lon="-7.597065"><ele>37.0</ele><time>2026-04-27T10:39:42.036Z</time></trkpt><trkpt lat="33.58398" lon="-7.597"><ele>37.0</ele><time>2026-04-27T10:39:43.036Z</time></trkpt><trkpt lat="33.5839367" lon="-7.5969317"><ele>37.0</ele><time>2026-04-27T10:39:44.036Z</time></trkpt><trkpt lat="33.5838883" lon="-7.59686"><ele>36.66666666666667</ele><time>2026-04-27T10:39:45.036Z</time></trkpt><trkpt lat="33.583845" lon="-7.5967933"><ele>36.333333333333336</ele><time>2026-04-27T10:39:46.036Z</time></trkpt><trkpt lat="33.5837983" lon="-7.5967333"><ele>36.0</ele><time>2026-04-27T10:39:47.036Z</time></trkpt><trkpt lat="33.5837483" lon="-7.5966717"><ele>35.666666666666664</ele><time>2026-04-27T10:39:48.036Z</time></trkpt><trkpt lat="33.5836917" lon="-7.5966067"><ele>35.33333333333333</ele><time>2026-04-27T10:39:49.036Z</time></trkpt><trkpt lat="33.5836367" lon="-7.5965383"><ele>35.0</ele><time>2026-04-27T10:39:50.035Z</time></trkpt><trkpt lat="33.58357" lon="-7.5964733"><ele>35.0</ele><time>2026-04-27T10:39:51.036Z</time></trkpt><trkpt lat="33.5835067" lon="-7.5964067"><ele>35.0</ele><time>2026-04-27T10:39:52.036Z</time></trkpt><trkpt lat="33.5834583" lon="-7.5963233"><ele>35.0</ele><time>2026-04-27T10:39:53.035Z</time></trkpt><trkpt lat="33.5834067" lon="-7.5962417"><ele>35.0</ele><time>2026-04-27T10:39:54.036Z</time></trkpt><trkpt lat="33.5833533" lon="-7.5961517"><ele>35.0</ele><time>2026-04-27T10:39:55.036Z</time></trkpt><trkpt lat="33.583285" lon="-7.5960667"><ele>35.0</ele><time>2026-04-27T10:39:56.036Z</time></trkpt><trkpt lat="33.5832167" lon="-7.5959833"><ele>35.6</ele><time>2026-04-27T10:39:57.036Z</time></trkpt><trkpt lat="33.583155" lon="-7.595895"><ele>36.2</ele><time>2026-04-27T10:39:58.036Z</time></trkpt><trkpt lat="33.5830983" lon="-7.5958"><ele>36.8</ele><time>2026-04-27T10:39:59.036Z</time></trkpt><trkpt lat="33.58304" lon="-7.59571"><ele>37.4</ele><time>2026-04-27T10:40:00.036Z</time></trkpt><trkpt lat="33.58298" lon="-7.5956217"><ele>38.0</ele><time>2026-04-27T10:40:01.036Z</time></trkpt><trkpt lat="33.582915" lon="-7.5955417"><ele>38.0</ele><time>2026-04-27T10:40:02.036Z</time></trkpt><trkpt lat="33.5828517" lon="-7.5954617"><ele>38.0</ele><time>2026-04-27T10:40:03.036Z</time></trkpt><trkpt lat="33.58279" lon="-7.5953817"><ele>38.0</ele><time>2026-04-27T10:40:04.036Z</time></trkpt><trkpt lat="33.5827333" lon="-7.5953083"><ele>38.0</ele><time>2026-04-27T10:40:05.036Z</time></trkpt><trkpt lat="33.582675" lon="-7.5952317"><ele>38.0</ele><time>2026-04-27T10:40:06.036Z</time></trkpt><trkpt lat="33.582615" lon="-7.5951617"><ele>38.0</ele><time>2026-04-27T10:40:07.036Z</time></trkpt><trkpt lat="33.5825467" lon="-7.5951083"><ele>39.2</ele><time>2026-04-27T10:40:08.036Z</time></trkpt><trkpt lat="33.5824767" lon="-7.5950417"><ele>40.4</ele><time>2026-04-27T10:40:09.035Z</time></trkpt><trkpt lat="33.5824067" lon="-7.5949583"><ele>41.6</ele><time>2026-04-27T10:40:10.036Z</time></trkpt><trkpt lat="33.5823367" lon="-7.59487"><ele>42.800000000000004</ele><time>2026-04-27T10:40:11.036Z</time></trkpt><trkpt lat="33.5822717" lon="-7.5947717"><ele>44.0</ele><time>2026-04-27T10:40:12.036Z</time></trkpt><trkpt lat="33.5821983" lon="-7.5946683"><ele>44.0</ele><time>2026-04-27T10:40:13.036Z</time></trkpt><trkpt lat="33.58213" lon="-7.5945667"><ele>44.0</ele><time>2026-04-27T10:40:14.036Z</time></trkpt><trkpt lat="33.5820683" lon="-7.5944617"><ele>44.0</ele><time>2026-04-27T10:40:15.036Z</time></trkpt><trkpt lat="33.582005" lon="-7.5943617"><ele>44.0</ele><time>2026-04-27T10:40:16.036Z</time></trkpt><trkpt lat="33.58194" lon="-7.59426"><ele>44.0</ele><time>2026-04-27T10:40:17.036Z</time></trkpt><trkpt lat="33.5818717" lon="-7.5941633"><ele>42.5</ele><time>2026-04-27T10:40:18.035Z</time></trkpt><trkpt lat="33.5818033" lon="-7.5940617"><ele>41.0</ele><time>2026-04-27T10:40:19.036Z</time></trkpt><trkpt lat="33.5817333" lon="-7.593955"><ele>39.5</ele><time>2026-04-27T10:40:20.036Z</time></trkpt><trkpt lat="33.5816517" lon="-7.5938417"><ele>38.0</ele><time>2026-04-27T10:40:21.035Z</time></trkpt><trkpt lat="33.5815717" lon="-7.5937267"><ele>38.5</ele><time>2026-04-27T10:40:22.036Z</time></trkpt><trkpt lat="33.5814867" lon="-7.5936167"><ele>39.0</ele><time>2026-04-27T10:40:23.036Z</time></trkpt><trkpt lat="33.5814067" lon="-7.5934933"><ele>39.5</ele><time>2026-04-27T10:40:24.036Z</time></trkpt><trkpt lat="33.58132" lon="-7.5933667"><ele>40.0</ele><time>2026-04-27T10:40:25.036Z</time></trkpt><trkpt lat="33.58123" lon="-7.59324"><ele>40.0</ele><time>2026-04-27T10:40:26.035Z</time></trkpt><trkpt lat="33.5811483" lon="-7.59312"><ele>40.0</ele><time>2026-04-27T10:40:27.036Z</time></trkpt><trkpt lat="33.5810733" lon="-7.5930083"><ele>40.0</ele><time>2026-04-27T10:40:28.036Z</time></trkpt><trkpt lat="33.5809917" lon="-7.5928983"><ele>40.0</ele><time>2026-04-27T10:40:29.036Z</time></trkpt><trkpt lat="33.58091" lon="-7.592795"><ele>40.0</ele><time>2026-04-27T10:40:30.036Z</time></trkpt><trkpt lat="33.58082" lon="-7.5927"><ele>40.0</ele><time>2026-04-27T10:40:31.036Z</time></trkpt><trkpt lat="33.5807317" lon="-7.5926017"><ele>40.0</ele><time>2026-04-27T10:40:32.036Z</time></trkpt><trkpt lat="33.5806433" lon="-7.592505"><ele>40.0</ele><time>2026-04-27T10:40:33.036Z</time></trkpt><trkpt lat="33.5805533" lon="-7.5924067"><ele>40.0</ele><time>2026-04-27T10:40:34.036Z</time></trkpt><trkpt lat="33.5804783" lon="-7.592295"><ele>40.0</ele><time>2026-04-27T10:40:35.036Z</time></trkpt><trkpt lat="33.58041" lon="-7.5921733"><ele>40.0</ele><time>2026-04-27T10:40:36.036Z</time></trkpt><trkpt lat="33.5803333" lon="-7.5920717"><ele>40.0</ele><time>2026-04-27T10:40:37.035Z</time></trkpt><trkpt lat="33.580265" lon="-7.591965"><ele>40.2</ele><time>2026-04-27T10:40:38.036Z</time></trkpt><trkpt lat="33.5802" lon="-7.5918583"><ele>40.4</ele><time>2026-04-27T10:40:39.036Z</time></trkpt><trkpt lat="33.58013" lon="-7.5917617"><ele>40.599999999999994</ele><time>2026-04-27T10:40:40.036Z</time></trkpt><trkpt lat="33.5800633" lon="-7.5916517"><ele>40.8</ele><time>2026-04-27T10:40:41.036Z</time></trkpt><trkpt lat="33.5800017" lon="-7.5915433"><ele>41.0</ele><time>2026-04-27T10:40:42.036Z</time></trkpt><trkpt lat="33.579925" lon="-7.5914317"><ele>41.0</ele><time>2026-04-27T10:40:43.036Z</time></trkpt><trkpt lat="33.5798517" lon="-7.59132"><ele>41.0</ele><time>2026-04-27T10:40:44.036Z</time></trkpt><trkpt lat="33.579775" lon="-7.5912117"><ele>41.0</ele><time>2026-04-27T10:40:45.036Z</time></trkpt><trkpt lat="33.5796917" lon="-7.5911017"><ele>41.0</ele><time>2026-04-27T10:40:46.036Z</time></trkpt><trkpt lat="33.5796133" lon="-7.5909933"><ele>41.25</ele><time>2026-04-27T10:40:47.036Z</time></trkpt><trkpt lat="33.5795367" lon="-7.5908933"><ele>41.5</ele><time>2026-04-27T10:40:48.036Z</time></trkpt><trkpt lat="33.5794667" lon="-7.590795"><ele>41.75</ele><time>2026-04-27T10:40:49.036Z</time></trkpt><trkpt lat="33.5793933" lon="-7.5906933"><ele>42.0</ele><time>2026-04-27T10:40:50.036Z</time></trkpt><trkpt lat="33.5793167" lon="-7.5905817"><ele>42.25</ele><time>2026-04-27T10:40:51.036Z</time></trkpt><trkpt lat="33.5792383" lon="-7.590465"><ele>42.5</ele><time>2026-04-27T10:40:52.036Z</time></trkpt><trkpt lat="33.5791517" lon="-7.59034"><ele>42.75</ele><time>2026-04-27T10:40:53.036Z</time></trkpt><trkpt lat="33.5790617" lon="-7.5902083"><ele>43.0</ele><time>2026-04-27T10:40:54.036Z</time></trkpt><trkpt lat="33.5789717" lon="-7.590065"><ele>44.0</ele><time>2026-04-27T10:40:55.036Z</time></trkpt><trkpt lat="33.5788717" lon="-7.5899167"><ele>45.0</ele><time>2026-04-27T10:40:56.036Z</time></trkpt><trkpt lat="33.5787683" lon="-7.58976"><ele>46.0</ele><time>2026-04-27T10:40:57.036Z</time></trkpt><trkpt lat="33.578665" lon="-7.5896"><ele>47.66666666666667</ele><time>2026-04-27T10:40:58.036Z</time></trkpt><trkpt lat="33.5785583" lon="-7.58944"><ele>49.333333333333336</ele><time>2026-04-27T10:40:59.035Z</time></trkpt><trkpt lat="33.5784433" lon="-7.5892783"><ele>51.0</ele><time>2026-04-27T10:41:00.036Z</time></trkpt><trkpt lat="33.5783167" lon="-7.58912"><ele>51.0</ele><time>2026-04-27T10:41:01.036Z</time></trkpt><trkpt lat="33.578185" lon="-7.5889583"><ele>51.0</ele><time>2026-04-27T10:41:02.036Z</time></trkpt><trkpt lat="33.5780567" lon="-7.5887883"><ele>51.0</ele><time>2026-04-27T10:41:03.036Z</time></trkpt><trkpt lat="33.5779267" lon="-7.58861"><ele>52.33333333333333</ele><time>2026-04-27T10:41:04.036Z</time></trkpt><trkpt lat="33.5778083" lon="-7.5884133"><ele>53.666666666666664</ele><time>2026-04-27T10:41:05.036Z</time></trkpt><trkpt lat="33.57767" lon="-7.5882233"><ele>55.0</ele><time>2026-04-27T10:41:06.035Z</time></trkpt><trkpt lat="33.5775383" lon="-7.5880483"><ele>55.0</ele><time>2026-04-27T10:41:07.036Z</time></trkpt><trkpt lat="33.5774317" lon="-7.58787"><ele>55.0</ele><time>2026-04-27T10:41:08.036Z</time></trkpt><trkpt lat="33.5773267" lon="-7.5877133"><ele>55.0</ele><time>2026-04-27T10:41:09.036Z</time></trkpt><trkpt lat="33.5772283" lon="-7.587565"><ele>55.0</ele><time>2026-04-27T10:41:10.036Z</time></trkpt><trkpt lat="33.5771283" lon="-7.5874333"><ele>55.0</ele><time>2026-04-27T10:41:11.036Z</time></trkpt><trkpt lat="33.5770367" lon="-7.5873067"><ele>55.0</ele><time>2026-04-27T10:41:12.036Z</time></trkpt><trkpt lat="33.5769467" lon="-7.5871833"><ele>55.0</ele><time>2026-04-27T10:41:13.036Z</time></trkpt><trkpt lat="33.5768617" lon="-7.5870583"><ele>55.0</ele><time>2026-04-27T10:41:14.036Z</time></trkpt><trkpt lat="33.5767783" lon="-7.5869417"><ele>55.0</ele><time>2026-04-27T10:41:15.036Z</time></trkpt><trkpt lat="33.5767" lon="-7.5868283"><ele>55.0</ele><time>2026-04-27T10:41:16.036Z</time></trkpt><trkpt lat="33.5766167" lon="-7.586715"><ele>55.0</ele><time>2026-04-27T10:41:17.036Z</time></trkpt><trkpt lat="33.5765383" lon="-7.5866167"><ele>55.0</ele><time>2026-04-27T10:41:18.036Z</time></trkpt><trkpt lat="33.57647" lon="-7.5865267"><ele>55.0</ele><time>2026-04-27T10:41:19.036Z</time></trkpt><trkpt lat="33.5764133" lon="-7.5864467"><ele>55.0</ele><time>2026-04-27T10:41:20.036Z</time></trkpt><trkpt lat="33.5763617" lon="-7.5863683"><ele>55.0</ele><time>2026-04-27T10:41:21.036Z</time></trkpt><trkpt lat="33.576305" lon="-7.5862867"><ele>55.0</ele><time>2026-04-27T10:41:22.036Z</time></trkpt><trkpt lat="33.5762417" lon="-7.5861983"><ele>55.75</ele><time>2026-04-27T10:41:23.036Z</time></trkpt><trkpt lat="33.5761767" lon="-7.586105"><ele>56.5</ele><time>2026-04-27T10:41:24.036Z</time></trkpt><trkpt lat="33.576095" lon="-7.586005"><ele>57.25</ele><time>2026-04-27T10:41:25.036Z</time></trkpt><trkpt lat="33.576015" lon="-7.585895"><ele>58.0</ele><time>2026-04-27T10:41:26.036Z</time></trkpt><trkpt lat="33.57594" lon="-7.5857867"><ele>58.0</ele><time>2026-04-27T10:41:27.036Z</time></trkpt><trkpt lat="33.575865" lon="-7.5856833"><ele>58.0</ele><time>2026-04-27T10:41:28.036Z</time></trkpt><trkpt lat="33.5757917" lon="-7.5855783"><ele>58.0</ele><time>2026-04-27T10:41:29.036Z</time></trkpt><trkpt lat="33.57572" lon="-7.585465"><ele>58.0</ele><time>2026-04-27T10:41:30.036Z</time></trkpt><trkpt lat="33.5756517" lon="-7.5853517"><ele>58.0</ele><time>2026-04-27T10:41:31.036Z</time></trkpt><trkpt lat="33.5755783" lon="-7.58524"><ele>58.0</ele><time>2026-04-27T10:41:32.035Z</time></trkpt><trkpt lat="33.575505" lon="-7.58513"><ele>58.0</ele><time>2026-04-27T10:41:33.036Z</time></trkpt><trkpt lat="33.5754267" lon="-7.58502"><ele>58.0</ele><time>2026-04-27T10:41:34.036Z</time></trkpt><trkpt lat="33.5753467" lon="-7.58491"><ele>58.0</ele><time>2026-04-27T10:41:35.036Z</time></trkpt><trkpt lat="33.5752683" lon="-7.5847983"><ele>58.0</ele><time>2026-04-27T10:41:36.035Z</time></trkpt><trkpt lat="33.57518" lon="-7.584685"><ele>58.0</ele><time>2026-04-27T10:41:37.036Z</time></trkpt><trkpt lat="33.5750967" lon="-7.5845667"><ele>58.0</ele><time>2026-04-27T10:41:38.036Z</time></trkpt><trkpt lat="33.5750183" lon="-7.5844567"><ele>57.4</ele><time>2026-04-27T10:41:39.036Z</time></trkpt><trkpt lat="33.57495" lon="-7.5843567"><ele>56.8</ele><time>2026-04-27T10:41:40.036Z</time></trkpt><trkpt lat="33.5748867" lon="-7.584265"><ele>56.2</ele><time>2026-04-27T10:41:41.036Z</time></trkpt><trkpt lat="33.5748267" lon="-7.5841733"><ele>55.6</ele><time>2026-04-27T10:41:42.036Z</time></trkpt><trkpt lat="33.57476" lon="-7.5840767"><ele>55.0</ele><time>2026-04-27T10:41:43.036Z</time></trkpt><trkpt lat="33.5746967" lon="-7.5839967"><ele>54.99999999999999</ele><time>2026-04-27T10:41:44.036Z</time></trkpt><trkpt lat="33.5746417" lon="-7.583925"><ele>55.0</ele><time>2026-04-27T10:41:45.036Z</time></trkpt><trkpt lat="33.57459" lon="-7.5838567"><ele>55.0</ele><time>2026-04-27T10:41:46.035Z</time></trkpt><trkpt lat="33.5745433" lon="-7.5837867"><ele>55.0</ele><time>2026-04-27T10:41:47.035Z</time></trkpt><trkpt lat="33.5744967" lon="-7.5837233"><ele>54.99999999999999</ele><time>2026-04-27T10:41:48.035Z</time></trkpt><trkpt lat="33.5744333" lon="-7.5836217"><ele>55.0</ele><time>2026-04-27T10:41:50.035Z</time></trkpt><trkpt lat="33.57439" lon="-7.58355"><ele>56.4</ele><time>2026-04-27T10:41:52.035Z</time></trkpt><trkpt lat="33.5743467" lon="-7.5834817"><ele>57.8</ele><time>2026-04-27T10:41:54.035Z</time></trkpt><trkpt lat="33.574275" lon="-7.5834067"><ele>59.2</ele><time>2026-04-27T10:41:56.035Z</time></trkpt><trkpt lat="33.574185" lon="-7.5833233"><ele>60.6</ele><time>2026-04-27T10:41:58.035Z</time></trkpt><trkpt lat="33.5740917" lon="-7.5832183"><ele>62.0</ele><time>2026-04-27T10:42:00.035Z</time></trkpt><trkpt lat="33.5740433" lon="-7.583165"><ele>62.00000000000001</ele><time>2026-04-27T10:42:01.035Z</time></trkpt><trkpt lat="33.5739917" lon="-7.583105"><ele>62.0</ele><time>2026-04-27T10:42:02.034Z</time></trkpt><trkpt lat="33.57394" lon="-7.5830383"><ele>62.0</ele><time>2026-04-27T10:42:03.035Z</time></trkpt><trkpt lat="33.5738883" lon="-7.5829633"><ele>62.0</ele><time>2026-04-27T10:42:04.035Z</time></trkpt><trkpt lat="33.5738367" lon="-7.5828783"><ele>62.00000000000001</ele><time>2026-04-27T10:42:05.034Z</time></trkpt><trkpt lat="33.5737767" lon="-7.5827967"><ele>62.0</ele><time>2026-04-27T10:42:06.035Z</time></trkpt><trkpt lat="33.5737133" lon="-7.58271"><ele>62.2</ele><time>2026-04-27T10:42:07.034Z</time></trkpt><trkpt lat="33.5736517" lon="-7.58261"><ele>62.400000000000006</ele><time>2026-04-27T10:42:08.035Z</time></trkpt><trkpt lat="33.57359" lon="-7.5825167"><ele>62.599999999999994</ele><time>2026-04-27T10:42:09.035Z</time></trkpt><trkpt lat="33.5735283" lon="-7.5824383"><ele>62.8</ele><time>2026-04-27T10:42:10.035Z</time></trkpt><trkpt lat="33.5734633" lon="-7.5823617"><ele>63.0</ele><time>2026-04-27T10:42:11.035Z</time></trkpt><trkpt lat="33.5734067" lon="-7.5822867"><ele>63.0</ele><time>2026-04-27T10:42:12.035Z</time></trkpt><trkpt lat="33.573355" lon="-7.5821983"><ele>63.0</ele><time>2026-04-27T10:42:13.035Z</time></trkpt><trkpt lat="33.573305" lon="-7.5821017"><ele>63.0</ele><time>2026-04-27T10:42:14.035Z</time></trkpt><trkpt lat="33.5732533" lon="-7.5820183"><ele>63.0</ele><time>2026-04-27T10:42:15.035Z</time></trkpt><trkpt lat="33.5732017" lon="-7.5819333"><ele>63.0</ele><time>2026-04-27T10:42:16.035Z</time></trkpt><trkpt lat="33.5731483" lon="-7.5818483"><ele>63.0</ele><time>2026-04-27T10:42:17.035Z</time></trkpt><trkpt lat="33.57309" lon="-7.5817517"><ele>62.2</ele><time>2026-04-27T10:42:18.035Z</time></trkpt><trkpt lat="33.5730217" lon="-7.5816467"><ele>61.4</ele><time>2026-04-27T10:42:19.035Z</time></trkpt><trkpt lat="33.572955" lon="-7.58154"><ele>60.60000000000001</ele><time>2026-04-27T10:42:20.035Z</time></trkpt><trkpt lat="33.5728867" lon="-7.5814367"><ele>59.800000000000004</ele><time>2026-04-27T10:42:21.035Z</time></trkpt><trkpt lat="33.5728183" lon="-7.58134"><ele>59.0</ele><time>2026-04-27T10:42:22.035Z</time></trkpt><trkpt lat="33.5727533" lon="-7.58125"><ele>56.800000000000004</ele><time>2026-04-27T10:42:23.034Z</time></trkpt><trkpt lat="33.572685" lon="-7.5811683"><ele>54.60000000000001</ele><time>2026-04-27T10:42:24.035Z</time></trkpt><trkpt lat="33.5726233" lon="-7.5810817"><ele>52.4</ele><time>2026-04-27T10:42:25.035Z</time></trkpt><trkpt lat="33.5725667" lon="-7.58099"><ele>50.2</ele><time>2026-04-27T10:42:26.034Z</time></trkpt><trkpt lat="33.5725083" lon="-7.5809067"><ele>48.0</ele><time>2026-04-27T10:42:27.035Z</time></trkpt><trkpt lat="33.5724483" lon="-7.580825"><ele>48.0</ele><time>2026-04-27T10:42:28.035Z</time></trkpt><trkpt lat="33.572395" lon="-7.5807483"><ele>48.0</ele><time>2026-04-27T10:42:29.035Z</time></trkpt><trkpt lat="33.5723433" lon="-7.5806767"><ele>48.0</ele><time>2026-04-27T10:42:30.035Z</time></trkpt><trkpt lat="33.5722867" lon="-7.580605"><ele>48.0</ele><time>2026-04-27T10:42:31.035Z</time></trkpt><trkpt lat="33.572235" lon="-7.5805317"><ele>48.0</ele><time>2026-04-27T10:42:32.035Z</time></trkpt><trkpt lat="33.5721867" lon="-7.5804583"><ele>48.0</ele><time>2026-04-27T10:42:33.035Z</time></trkpt><trkpt lat="33.5721483" lon="-7.5803833"><ele>47.5</ele><time>2026-04-27T10:42:34.035Z</time></trkpt><trkpt lat="33.5721117" lon="-7.58031"><ele>47.0</ele><time>2026-04-27T10:42:35.035Z</time></trkpt><trkpt lat="33.5720683" lon="-7.580235"><ele>46.5</ele><time>2026-04-27T10:42:36.035Z</time></trkpt><trkpt lat="33.5720183" lon="-7.5801567"><ele>46.0</ele><time>2026-04-27T10:42:37.035Z</time></trkpt><trkpt lat="33.57196" lon="-7.58007"><ele>45.5</ele><time>2026-04-27T10:42:38.035Z</time></trkpt><trkpt lat="33.5718933" lon="-7.5799817"><ele>45.0</ele><time>2026-04-27T10:42:39.035Z</time></trkpt><trkpt lat="33.57183" lon="-7.5798933"><ele>45.0</ele><time>2026-04-27T10:42:40.035Z</time></trkpt><trkpt lat="33.5717733" lon="-7.57981"><ele>45.0</ele><time>2026-04-27T10:42:41.035Z</time></trkpt><trkpt lat="33.5717183" lon="-7.5797217"><ele>45.0</ele><time>2026-04-27T10:42:42.035Z</time></trkpt><trkpt lat="33.5716583" lon="-7.5796267"><ele>45.0</ele><time>2026-04-27T10:42:43.035Z</time></trkpt><trkpt lat="33.5715933" lon="-7.5795383"><ele>45.0</ele><time>2026-04-27T10:42:44.035Z</time></trkpt><trkpt lat="33.5715317" lon="-7.57946"><ele>46.333333333333336</ele><time>2026-04-27T10:42:45.035Z</time></trkpt><trkpt lat="33.571475" lon="-7.5793783"><ele>47.66666666666667</ele><time>2026-04-27T10:42:46.035Z</time></trkpt><trkpt lat="33.5714217" lon="-7.5793067"><ele>49.0</ele><time>2026-04-27T10:42:47.035Z</time></trkpt><trkpt lat="33.5713783" lon="-7.5792433"><ele>50.333333333333336</ele><time>2026-04-27T10:42:48.035Z</time></trkpt><trkpt lat="33.5713383" lon="-7.5791817"><ele>51.66666666666667</ele><time>2026-04-27T10:42:49.035Z</time></trkpt><trkpt lat="33.5712967" lon="-7.57912"><ele>53.0</ele><time>2026-04-27T10:42:50.035Z</time></trkpt><trkpt lat="33.5712167" lon="-7.5790083"><ele>53.00000000000001</ele><time>2026-04-27T10:42:52.035Z</time></trkpt><trkpt lat="33.571135" lon="-7.5788967"><ele>53.0</ele><time>2026-04-27T10:42:54.035Z</time></trkpt><trkpt lat="33.571095" lon="-7.578835"><ele>53.0</ele><time>2026-04-27T10:42:55.035Z</time></trkpt><trkpt lat="33.5710517" lon="-7.5787717"><ele>53.0</ele><time>2026-04-27T10:42:56.034Z</time></trkpt><trkpt lat="33.5710067" lon="-7.57871"><ele>53.00000000000001</ele><time>2026-04-27T10:42:57.035Z</time></trkpt><trkpt lat="33.5709617" lon="-7.5786483"><ele>53.0</ele><time>2026-04-27T10:42:58.034Z</time></trkpt><trkpt lat="33.5709133" lon="-7.57858"><ele>52.16666666666667</ele><time>2026-04-27T10:42:59.035Z</time></trkpt><trkpt lat="33.57086" lon="-7.57851"><ele>51.333333333333336</ele><time>2026-04-27T10:43:00.035Z</time></trkpt><trkpt lat="33.5708033" lon="-7.5784333"><ele>50.5</ele><time>2026-04-27T10:43:01.035Z</time></trkpt><trkpt lat="33.5707517" lon="-7.578355"><ele>49.66666666666667</ele><time>2026-04-27T10:43:02.035Z</time></trkpt><trkpt lat="33.5707033" lon="-7.578275"><ele>48.833333333333336</ele><time>2026-04-27T10:43:03.035Z</time></trkpt><trkpt lat="33.570655" lon="-7.5781933"><ele>48.0</ele><time>2026-04-27T10:43:04.035Z</time></trkpt><trkpt lat="33.5706083" lon="-7.5781117"><ele>48.0</ele><time>2026-04-27T10:43:05.035Z</time></trkpt><trkpt lat="33.5705633" lon="-7.5780367"><ele>48.0</ele><time>2026-04-27T10:43:06.035Z</time></trkpt><trkpt lat="33.5705133" lon="-7.5779617"><ele>48.0</ele><time>2026-04-27T10:43:07.034Z</time></trkpt><trkpt lat="33.5704667" lon="-7.5778867"><ele>48.0</ele><time>2026-04-27T10:43:08.035Z</time></trkpt><trkpt lat="33.5704117" lon="-7.5778133"><ele>48.0</ele><time>2026-04-27T10:43:09.035Z</time></trkpt><trkpt lat="33.5703567" lon="-7.5777433"><ele>48.0</ele><time>2026-04-27T10:43:10.035Z</time></trkpt><trkpt lat="33.570295" lon="-7.5776683"><ele>48.599999999999994</ele><time>2026-04-27T10:43:11.035Z</time></trkpt><trkpt lat="33.5702367" lon="-7.5775833"><ele>49.199999999999996</ele><time>2026-04-27T10:43:12.034Z</time></trkpt><trkpt lat="33.5701733" lon="-7.5775083"><ele>49.8</ele><time>2026-04-27T10:43:13.035Z</time></trkpt><trkpt lat="33.5701183" lon="-7.5774183"><ele>50.4</ele><time>2026-04-27T10:43:14.035Z</time></trkpt><trkpt lat="33.57006" lon="-7.5773383"><ele>51.0</ele><time>2026-04-27T10:43:15.035Z</time></trkpt><trkpt lat="33.5699983" lon="-7.5772583"><ele>51.0</ele><time>2026-04-27T10:43:16.035Z</time></trkpt><trkpt lat="33.5699367" lon="-7.5771783"><ele>51.0</ele><time>2026-04-27T10:43:17.035Z</time></trkpt><trkpt lat="33.5698783" lon="-7.5771017"><ele>51.0</ele><time>2026-04-27T10:43:18.035Z</time></trkpt><trkpt lat="33.5698233" lon="-7.57702"><ele>51.0</ele><time>2026-04-27T10:43:19.035Z</time></trkpt><trkpt lat="33.5697667" lon="-7.5769383"><ele>51.0</ele><time>2026-04-27T10:43:20.035Z</time></trkpt><trkpt lat="33.569705" lon="-7.5768533"><ele>51.0</ele><time>2026-04-27T10:43:21.035Z</time></trkpt><trkpt lat="33.5696383" lon="-7.576765"><ele>51.0</ele><time>2026-04-27T10:43:22.034Z</time></trkpt><trkpt lat="33.5695617" lon="-7.57668"><ele>51.0</ele><time>2026-04-27T10:43:23.035Z</time></trkpt><trkpt lat="33.5694783" lon="-7.5765983"><ele>51.0</ele><time>2026-04-27T10:43:24.035Z</time></trkpt><trkpt lat="33.5693883" lon="-7.5765233"><ele>51.0</ele><time>2026-04-27T10:43:25.035Z</time></trkpt><trkpt lat="33.5693017" lon="-7.5764533"><ele>51.0</ele><time>2026-04-27T10:43:26.034Z</time></trkpt><trkpt lat="33.569215" lon="-7.57639"><ele>51.599999999999994</ele><time>2026-04-27T10:43:27.035Z</time></trkpt><trkpt lat="33.5691233" lon="-7.5763267"><ele>52.2</ele><time>2026-04-27T10:43:28.035Z</time></trkpt><trkpt lat="33.5690267" lon="-7.57627"><ele>52.800000000000004</ele><time>2026-04-27T10:43:29.034Z</time></trkpt><trkpt lat="33.5689283" lon="-7.5762167"><ele>53.400000000000006</ele><time>2026-04-27T10:43:30.035Z</time></trkpt><trkpt lat="33.56882" lon="-7.5761633"><ele>54.0</ele><time>2026-04-27T10:43:31.035Z</time></trkpt><trkpt lat="33.5687117" lon="-7.5761083"><ele>53.75</ele><time>2026-04-27T10:43:32.035Z</time></trkpt><trkpt lat="33.5685917" lon="-7.57605"><ele>53.5</ele><time>2026-04-27T10:43:33.035Z</time></trkpt><trkpt lat="33.5684717" lon="-7.5759917"><ele>53.25</ele><time>2026-04-27T10:43:34.035Z</time></trkpt><trkpt lat="33.568345" lon="-7.5759333"><ele>53.0</ele><time>2026-04-27T10:43:35.035Z</time></trkpt><trkpt lat="33.56822" lon="-7.575865"><ele>53.0</ele><time>2026-04-27T10:43:36.035Z</time></trkpt><trkpt lat="33.5680917" lon="-7.57579"><ele>53.0</ele><time>2026-04-27T10:43:37.035Z</time></trkpt><trkpt lat="33.5679717" lon="-7.5757183"><ele>53.0</ele><time>2026-04-27T10:43:38.035Z</time></trkpt><trkpt lat="33.5678567" lon="-7.5756383"><ele>53.0</ele><time>2026-04-27T10:43:39.035Z</time></trkpt><trkpt lat="33.5677467" lon="-7.5755533"><ele>53.0</ele><time>2026-04-27T10:43:40.034Z</time></trkpt><trkpt lat="33.567645" lon="-7.5754667"><ele>53.0</ele><time>2026-04-27T10:43:41.035Z</time></trkpt><trkpt lat="33.5675517" lon="-7.5753767"><ele>53.0</ele><time>2026-04-27T10:43:42.035Z</time></trkpt><trkpt lat="33.5674617" lon="-7.5752833"><ele>53.0</ele><time>2026-04-27T10:43:43.035Z</time></trkpt><trkpt lat="33.56738" lon="-7.5751817"><ele>53.0</ele><time>2026-04-27T10:43:44.035Z</time></trkpt><trkpt lat="33.567305" lon="-7.5750733"><ele>53.0</ele><time>2026-04-27T10:43:45.035Z</time></trkpt><trkpt lat="33.5672467" lon="-7.574955"><ele>53.0</ele><time>2026-04-27T10:43:46.035Z</time></trkpt><trkpt lat="33.5671917" lon="-7.5748317"><ele>53.0</ele><time>2026-04-27T10:43:47.035Z</time></trkpt><trkpt lat="33.567145" lon="-7.574705"><ele>53.0</ele><time>2026-04-27T10:43:48.035Z</time></trkpt><trkpt lat="33.567105" lon="-7.5745733"><ele>53.0</ele><time>2026-04-27T10:43:49.035Z</time></trkpt><trkpt lat="33.5670733" lon="-7.57444"><ele>53.0</ele><time>2026-04-27T10:43:50.035Z</time></trkpt><trkpt lat="33.5670517" lon="-7.5743033"><ele>53.0</ele><time>2026-04-27T10:43:51.035Z</time></trkpt><trkpt lat="33.5670383" lon="-7.5741717"><ele>53.4</ele><time>2026-04-27T10:43:52.035Z</time></trkpt><trkpt lat="33.56703" lon="-7.5740317"><ele>53.8</ele><time>2026-04-27T10:43:53.035Z</time></trkpt><trkpt lat="33.56704" lon="-7.5739"><ele>54.2</ele><time>2026-04-27T10:43:54.035Z</time></trkpt><trkpt lat="33.5670583" lon="-7.5737717"><ele>54.6</ele><time>2026-04-27T10:43:55.035Z</time></trkpt><trkpt lat="33.5670867" lon="-7.5736483"><ele>55.0</ele><time>2026-04-27T10:43:56.035Z</time></trkpt><trkpt lat="33.5671233" lon="-7.5735233"><ele>55.0</ele><time>2026-04-27T10:43:57.034Z</time></trkpt><trkpt lat="33.56717" lon="-7.5734083"><ele>55.0</ele><time>2026-04-27T10:43:58.035Z</time></trkpt><trkpt lat="33.5672183" lon="-7.5732967"><ele>55.0</ele><time>2026-04-27T10:43:59.035Z</time></trkpt><trkpt lat="33.567275" lon="-7.573195"><ele>55.0</ele><time>2026-04-27T10:44:00.035Z</time></trkpt><trkpt lat="33.5673517" lon="-7.5730767"><ele>55.0</ele><time>2026-04-27T10:44:01.035Z</time></trkpt><trkpt lat="33.5674267" lon="-7.572965"><ele>55.0</ele><time>2026-04-27T10:44:02.035Z</time></trkpt><trkpt lat="33.567515" lon="-7.572875"><ele>55.0</ele><time>2026-04-27T10:44:03.035Z</time></trkpt><trkpt lat="33.5676083" lon="-7.5727833"><ele>55.0</ele><time>2026-04-27T10:44:04.035Z</time></trkpt><trkpt lat="33.56771" lon="-7.57271"><ele>55.0</ele><time>2026-04-27T10:44:05.034Z</time></trkpt><trkpt lat="33.56781" lon="-7.57264"><ele>53.0</ele><time>2026-04-27T10:44:06.035Z</time></trkpt><trkpt lat="33.567915" lon="-7.572585"><ele>51.0</ele><time>2026-04-27T10:44:07.035Z</time></trkpt><trkpt lat="33.5680283" lon="-7.572535"><ele>49.0</ele><time>2026-04-27T10:44:08.035Z</time></trkpt><trkpt lat="33.5681433" lon="-7.57249"><ele>47.0</ele><time>2026-04-27T10:44:09.034Z</time></trkpt><trkpt lat="33.5682617" lon="-7.5724467"><ele>47.0</ele><time>2026-04-27T10:44:10.034Z</time></trkpt><trkpt lat="33.5683717" lon="-7.572405"><ele>47.0</ele><time>2026-04-27T10:44:11.035Z</time></trkpt><trkpt lat="33.5684867" lon="-7.5723667"><ele>47.0</ele><time>2026-04-27T10:44:12.035Z</time></trkpt><trkpt lat="33.568595" lon="-7.5723217"><ele>47.0</ele><time>2026-04-27T10:44:13.035Z</time></trkpt><trkpt lat="33.5686967" lon="-7.5722683"><ele>46.75</ele><time>2026-04-27T10:44:14.035Z</time></trkpt><trkpt lat="33.5687917" lon="-7.57221"><ele>46.5</ele><time>2026-04-27T10:44:15.035Z</time></trkpt><trkpt lat="33.5688883" lon="-7.572145"><ele>46.25</ele><time>2026-04-27T10:44:16.035Z</time></trkpt><trkpt lat="33.56899" lon="-7.572075"><ele>46.0</ele><time>2026-04-27T10:44:17.035Z</time></trkpt><trkpt lat="33.5690883" lon="-7.571995"><ele>46.0</ele><time>2026-04-27T10:44:18.035Z</time></trkpt><trkpt lat="33.5691767" lon="-7.571905"><ele>46.0</ele><time>2026-04-27T10:44:19.035Z</time></trkpt><trkpt lat="33.5692583" lon="-7.5718033"><ele>46.0</ele><time>2026-04-27T10:44:20.035Z</time></trkpt><trkpt lat="33.569335" lon="-7.5716933"><ele>46.0</ele><time>2026-04-27T10:44:21.035Z</time></trkpt><trkpt lat="33.5694083" lon="-7.5715817"><ele>46.0</ele><time>2026-04-27T10:44:22.035Z</time></trkpt><trkpt lat="33.5694783" lon="-7.57146"><ele>46.0</ele><time>2026-04-27T10:44:23.035Z</time></trkpt><trkpt lat="33.5695567" lon="-7.5713317"><ele>46.0</ele><time>2026-04-27T10:44:24.034Z</time></trkpt><trkpt lat="33.5696367" lon="-7.5711867"><ele>46.0</ele><time>2026-04-27T10:44:25.035Z</time></trkpt><trkpt lat="33.5697133" lon="-7.5710483"><ele>47.25</ele><time>2026-04-27T10:44:26.035Z</time></trkpt><trkpt lat="33.5697933" lon="-7.5709117"><ele>48.5</ele><time>2026-04-27T10:44:27.034Z</time></trkpt><trkpt lat="33.5698783" lon="-7.57077"><ele>49.75</ele><time>2026-04-27T10:44:28.035Z</time></trkpt><trkpt lat="33.56997" lon="-7.5706117"><ele>51.0</ele><time>2026-04-27T10:44:29.035Z</time></trkpt><trkpt lat="33.5700633" lon="-7.570445"><ele>51.0</ele><time>2026-04-27T10:44:30.035Z</time></trkpt><trkpt lat="33.5701617" lon="-7.5702767"><ele>51.0</ele><time>2026-04-27T10:44:31.035Z</time></trkpt><trkpt lat="33.5702617" lon="-7.5700967"><ele>51.0</ele><time>2026-04-27T10:44:32.035Z</time></trkpt><trkpt lat="33.570355" lon="-7.5699083"><ele>51.66666666666667</ele><time>2026-04-27T10:44:33.034Z</time></trkpt><trkpt lat="33.57046" lon="-7.5697217"><ele>52.333333333333336</ele><time>2026-04-27T10:44:34.035Z</time></trkpt><trkpt lat="33.5705667" lon="-7.569535"><ele>53.0</ele><time>2026-04-27T10:44:35.035Z</time></trkpt><trkpt lat="33.5706717" lon="-7.5693483"><ele>53.333333333333336</ele><time>2026-04-27T10:44:36.035Z</time></trkpt><trkpt lat="33.570775" lon="-7.5691783"><ele>53.66666666666667</ele><time>2026-04-27T10:44:37.035Z</time></trkpt><trkpt lat="33.570875" lon="-7.5690167"><ele>54.0</ele><time>2026-04-27T10:44:38.035Z</time></trkpt><trkpt lat="33.570975" lon="-7.568845"><ele>54.0</ele><time>2026-04-27T10:44:39.035Z</time></trkpt><trkpt lat="33.5710783" lon="-7.5686733"><ele>54.0</ele><time>2026-04-27T10:44:40.035Z</time></trkpt><trkpt lat="33.5711783" lon="-7.5685017"><ele>54.0</ele><time>2026-04-27T10:44:41.035Z</time></trkpt><trkpt lat="33.5712783" lon="-7.5683267"><ele>55.66666666666667</ele><time>2026-04-27T10:44:42.034Z</time></trkpt><trkpt lat="33.5713833" lon="-7.5681483"><ele>57.333333333333336</ele><time>2026-04-27T10:44:43.035Z</time></trkpt><trkpt lat="33.57149" lon="-7.56797"><ele>59.0</ele><time>2026-04-27T10:44:44.035Z</time></trkpt><trkpt lat="33.57159" lon="-7.5677983"><ele>59.0</ele><time>2026-04-27T10:44:45.035Z</time></trkpt><trkpt lat="33.5716917" lon="-7.5676267"><ele>59.0</ele><time>2026-04-27T10:44:46.035Z</time></trkpt><trkpt lat="33.57179" lon="-7.5674517"><ele>59.0</ele><time>2026-04-27T10:44:47.035Z</time></trkpt><trkpt lat="33.5718867" lon="-7.5672783"><ele>59.0</ele><time>2026-04-27T10:44:48.034Z</time></trkpt><trkpt lat="33.57199" lon="-7.5671117"><ele>59.0</ele><time>2026-04-27T10:44:49.035Z</time></trkpt><trkpt lat="33.572095" lon="-7.566935"><ele>59.0</ele><time>2026-04-27T10:44:50.034Z</time></trkpt><trkpt lat="33.5722" lon="-7.56676"><ele>59.333333333333336</ele><time>2026-04-27T10:44:51.035Z</time></trkpt><trkpt lat="33.5722933" lon="-7.5665917"><ele>59.66666666666667</ele><time>2026-04-27T10:44:52.035Z</time></trkpt><trkpt lat="33.5723867" lon="-7.566425"><ele>60.0</ele><time>2026-04-27T10:44:53.035Z</time></trkpt><trkpt lat="33.5724783" lon="-7.5662567"><ele>60.33333333333333</ele><time>2026-04-27T10:44:54.035Z</time></trkpt><trkpt lat="33.5725667" lon="-7.5660917"><ele>60.666666666666664</ele><time>2026-04-27T10:44:55.035Z</time></trkpt><trkpt lat="33.5726583" lon="-7.5659333"><ele>61.0</ele><time>2026-04-27T10:44:56.035Z</time></trkpt><trkpt lat="33.5727483" lon="-7.565765"><ele>61.0</ele><time>2026-04-27T10:44:57.035Z</time></trkpt><trkpt lat="33.5728417" lon="-7.5656033"><ele>61.0</ele><time>2026-04-27T10:44:58.035Z</time></trkpt><trkpt lat="33.5729317" lon="-7.5654383"><ele>61.0</ele><time>2026-04-27T10:44:59.035Z</time></trkpt><trkpt lat="33.5730267" lon="-7.565275"><ele>63.33333333333333</ele><time>2026-04-27T10:45:00.034Z</time></trkpt><trkpt lat="33.573125" lon="-7.5651133"><ele>65.66666666666667</ele><time>2026-04-27T10:45:01.035Z</time></trkpt><trkpt lat="33.5732183" lon="-7.56495"><ele>68.0</ele><time>2026-04-27T10:45:02.035Z</time></trkpt><trkpt lat="33.5733117" lon="-7.5647767"><ele>68.0</ele><time>2026-04-27T10:45:03.035Z</time></trkpt><trkpt lat="33.5734083" lon="-7.5646083"><ele>68.0</ele><time>2026-04-27T10:45:04.035Z</time></trkpt><trkpt lat="33.5735067" lon="-7.5644383"><ele>68.0</ele><time>2026-04-27T10:45:05.035Z</time></trkpt><trkpt lat="33.5736067" lon="-7.5642633"><ele>67.33333333333334</ele><time>2026-04-27T10:45:06.035Z</time></trkpt><trkpt lat="33.5736967" lon="-7.5640867"><ele>66.66666666666667</ele><time>2026-04-27T10:45:07.035Z</time></trkpt><trkpt lat="33.5737967" lon="-7.5639033"><ele>66.0</ele><time>2026-04-27T10:45:08.035Z</time></trkpt><trkpt lat="33.5738967" lon="-7.56373"><ele>64.0</ele><time>2026-04-27T10:45:09.035Z</time></trkpt><trkpt lat="33.573995" lon="-7.5635533"><ele>62.0</ele><time>2026-04-27T10:45:10.035Z</time></trkpt><trkpt lat="33.5741" lon="-7.5633783"><ele>60.0</ele><time>2026-04-27T10:45:11.034Z</time></trkpt><trkpt lat="33.5742033" lon="-7.5631917"><ele>60.0</ele><time>2026-04-27T10:45:12.035Z</time></trkpt><trkpt lat="33.5743083" lon="-7.5630133"><ele>60.0</ele><time>2026-04-27T10:45:13.035Z</time></trkpt><trkpt lat="33.5744117" lon="-7.5628383"><ele>60.0</ele><time>2026-04-27T10:45:14.035Z</time></trkpt><trkpt lat="33.5745067" lon="-7.5626783"><ele>63.33333333333333</ele><time>2026-04-27T10:45:15.035Z</time></trkpt><trkpt lat="33.574595" lon="-7.5625167"><ele>66.66666666666666</ele><time>2026-04-27T10:45:16.035Z</time></trkpt><trkpt lat="33.5746883" lon="-7.562355"><ele>70.0</ele><time>2026-04-27T10:45:17.034Z</time></trkpt><trkpt lat="33.5747833" lon="-7.56219"><ele>67.66666666666666</ele><time>2026-04-27T10:45:18.035Z</time></trkpt><trkpt lat="33.5748783" lon="-7.5620233"><ele>65.33333333333333</ele><time>2026-04-27T10:45:19.035Z</time></trkpt><trkpt lat="33.5749717" lon="-7.561855"><ele>63.0</ele><time>2026-04-27T10:45:20.035Z</time></trkpt><trkpt lat="33.57506" lon="-7.5616833"><ele>63.0</ele><time>2026-04-27T10:45:21.035Z</time></trkpt><trkpt lat="33.5751567" lon="-7.5615067"><ele>63.0</ele><time>2026-04-27T10:45:22.034Z</time></trkpt><trkpt lat="33.5752667" lon="-7.5613067"><ele>63.0</ele><time>2026-04-27T10:45:23.035Z</time></trkpt><trkpt lat="33.5753783" lon="-7.5610683"><ele>61.5</ele><time>2026-04-27T10:45:24.035Z</time></trkpt><trkpt lat="33.5755117" lon="-7.5608367"><ele>60.0</ele><time>2026-04-27T10:45:25.035Z</time></trkpt><trkpt lat="33.5756367" lon="-7.5606267"><ele>60.0</ele><time>2026-04-27T10:45:26.035Z</time></trkpt><trkpt lat="33.5757533" lon="-7.56043"><ele>60.0</ele><time>2026-04-27T10:45:27.034Z</time></trkpt><trkpt lat="33.5758633" lon="-7.5602483"><ele>60.0</ele><time>2026-04-27T10:45:28.034Z</time></trkpt><trkpt lat="33.5759717" lon="-7.5600767"><ele>58.66666666666667</ele><time>2026-04-27T10:45:29.035Z</time></trkpt><trkpt lat="33.5760683" lon="-7.559905"><ele>57.333333333333336</ele><time>2026-04-27T10:45:30.035Z</time></trkpt><trkpt lat="33.5761633" lon="-7.559735"><ele>56.0</ele><time>2026-04-27T10:45:31.035Z</time></trkpt><trkpt lat="33.5762533" lon="-7.5595733"><ele>59.66666666666667</ele><time>2026-04-27T10:45:32.035Z</time></trkpt><trkpt lat="33.5763467" lon="-7.559415"><ele>63.33333333333333</ele><time>2026-04-27T10:45:33.035Z</time></trkpt><trkpt lat="33.5764417" lon="-7.55925"><ele>67.0</ele><time>2026-04-27T10:45:34.035Z</time></trkpt><trkpt lat="33.5765383" lon="-7.55908"><ele>67.0</ele><time>2026-04-27T10:45:35.035Z</time></trkpt><trkpt lat="33.5766417" lon="-7.5589017"><ele>67.0</ele><time>2026-04-27T10:45:36.035Z</time></trkpt><trkpt lat="33.576745" lon="-7.5587133"><ele>67.0</ele><time>2026-04-27T10:45:37.035Z</time></trkpt><trkpt lat="33.5768517" lon="-7.5585283"><ele>66.66666666666666</ele><time>2026-04-27T10:45:38.035Z</time></trkpt><trkpt lat="33.576955" lon="-7.558335"><ele>66.33333333333333</ele><time>2026-04-27T10:45:39.035Z</time></trkpt><trkpt lat="33.5770567" lon="-7.5581467"><ele>66.0</ele><time>2026-04-27T10:45:40.035Z</time></trkpt><trkpt lat="33.5771667" lon="-7.5579567"><ele>65.33333333333333</ele><time>2026-04-27T10:45:41.035Z</time></trkpt><trkpt lat="33.5772733" lon="-7.55777"><ele>64.66666666666666</ele><time>2026-04-27T10:45:42.035Z</time></trkpt><trkpt lat="33.577375" lon="-7.55759"><ele>64.0</ele><time>2026-04-27T10:45:43.034Z</time></trkpt><trkpt lat="33.5774733" lon="-7.5574183"><ele>64.0</ele><time>2026-04-27T10:45:44.035Z</time></trkpt><trkpt lat="33.577565" lon="-7.55725"><ele>64.0</ele><time>2026-04-27T10:45:45.035Z</time></trkpt><trkpt lat="33.5776583" lon="-7.557095"><ele>64.0</ele><time>2026-04-27T10:45:46.035Z</time></trkpt><trkpt lat="33.5777433" lon="-7.5569417"><ele>63.0</ele><time>2026-04-27T10:45:47.035Z</time></trkpt><trkpt lat="33.5778233" lon="-7.5567883"><ele>62.0</ele><time>2026-04-27T10:45:48.035Z</time></trkpt><trkpt lat="33.5779083" lon="-7.5566367"><ele>61.0</ele><time>2026-04-27T10:45:49.035Z</time></trkpt><trkpt lat="33.5779983" lon="-7.556485"><ele>61.0</ele><time>2026-04-27T10:45:50.035Z</time></trkpt><trkpt lat="33.578085" lon="-7.5563183"><ele>61.0</ele><time>2026-04-27T10:45:51.035Z</time></trkpt><trkpt lat="33.5781783" lon="-7.556145"><ele>61.0</ele><time>2026-04-27T10:45:52.035Z</time></trkpt><trkpt lat="33.578285" lon="-7.55596"><ele>63.0</ele><time>2026-04-27T10:45:53.035Z</time></trkpt><trkpt lat="33.5783883" lon="-7.5557783"><ele>65.0</ele><time>2026-04-27T10:45:54.035Z</time></trkpt><trkpt lat="33.5784883" lon="-7.5555967"><ele>67.0</ele><time>2026-04-27T10:45:55.035Z</time></trkpt><trkpt lat="33.5785967" lon="-7.5554167"><ele>65.66666666666666</ele><time>2026-04-27T10:45:56.035Z</time></trkpt><trkpt lat="33.5786917" lon="-7.5552417"><ele>64.33333333333333</ele><time>2026-04-27T10:45:57.035Z</time></trkpt><trkpt lat="33.5787917" lon="-7.5550717"><ele>63.0</ele><time>2026-04-27T10:45:58.035Z</time></trkpt><trkpt lat="33.5788883" lon="-7.5548967"><ele>63.0</ele><time>2026-04-27T10:45:59.035Z</time></trkpt><trkpt lat="33.578985" lon="-7.5547267"><ele>63.0</ele><time>2026-04-27T10:46:00.035Z</time></trkpt><trkpt lat="33.5790833" lon="-7.5545567"><ele>63.0</ele><time>2026-04-27T10:46:01.035Z</time></trkpt><trkpt lat="33.57918" lon="-7.55439"><ele>60.66666666666667</ele><time>2026-04-27T10:46:02.034Z</time></trkpt><trkpt lat="33.57928" lon="-7.554215"><ele>58.333333333333336</ele><time>2026-04-27T10:46:03.034Z</time></trkpt><trkpt lat="33.5793783" lon="-7.55403"><ele>56.0</ele><time>2026-04-27T10:46:04.034Z</time></trkpt><trkpt lat="33.57948" lon="-7.553845"><ele>58.0</ele><time>2026-04-27T10:46:05.034Z</time></trkpt><trkpt lat="33.57958" lon="-7.553655"><ele>60.0</ele><time>2026-04-27T10:46:06.034Z</time></trkpt><trkpt lat="33.57969" lon="-7.553465"><ele>62.0</ele><time>2026-04-27T10:46:07.034Z</time></trkpt><trkpt lat="33.5797983" lon="-7.5532683"><ele>62.0</ele><time>2026-04-27T10:46:08.033Z</time></trkpt><trkpt lat="33.5799017" lon="-7.5530817"><ele>62.0</ele><time>2026-04-27T10:46:09.034Z</time></trkpt><trkpt lat="33.5800017" lon="-7.5528983"><ele>62.0</ele><time>2026-04-27T10:46:10.034Z</time></trkpt><trkpt lat="33.5801033" lon="-7.5527133"><ele>61.0</ele><time>2026-04-27T10:46:11.034Z</time></trkpt><trkpt lat="33.5802017" lon="-7.5525233"><ele>60.0</ele><time>2026-04-27T10:46:12.034Z</time></trkpt><trkpt lat="33.5803083" lon="-7.552335"><ele>59.0</ele><time>2026-04-27T10:46:13.034Z</time></trkpt><trkpt lat="33.580415" lon="-7.5521383"><ele>58.333333333333336</ele><time>2026-04-27T10:46:14.034Z</time></trkpt><trkpt lat="33.5805133" lon="-7.5519383"><ele>57.66666666666667</ele><time>2026-04-27T10:46:15.034Z</time></trkpt><trkpt lat="33.5806033" lon="-7.5517433"><ele>57.0</ele><time>2026-04-27T10:46:16.033Z</time></trkpt><trkpt lat="33.580705" lon="-7.5515517"><ele>57.0</ele><time>2026-04-27T10:46:17.034Z</time></trkpt><trkpt lat="33.5808083" lon="-7.5513433"><ele>57.0</ele><time>2026-04-27T10:46:18.034Z</time></trkpt><trkpt lat="33.5809233" lon="-7.5511217"><ele>57.0</ele><time>2026-04-27T10:46:19.034Z</time></trkpt><trkpt lat="33.5810367" lon="-7.5509067"><ele>57.33333333333333</ele><time>2026-04-27T10:46:20.033Z</time></trkpt><trkpt lat="33.581145" lon="-7.5506933"><ele>57.666666666666664</ele><time>2026-04-27T10:46:21.034Z</time></trkpt><trkpt lat="33.581245" lon="-7.550485"><ele>58.0</ele><time>2026-04-27T10:46:22.034Z</time></trkpt><trkpt lat="33.58134" lon="-7.5502867"><ele>57.33333333333333</ele><time>2026-04-27T10:46:23.034Z</time></trkpt><trkpt lat="33.5814317" lon="-7.5500917"><ele>56.66666666666667</ele><time>2026-04-27T10:46:24.034Z</time></trkpt><trkpt lat="33.581525" lon="-7.5499017"><ele>56.0</ele><time>2026-04-27T10:46:25.034Z</time></trkpt><trkpt lat="33.581615" lon="-7.5497183"><ele>57.333333333333336</ele><time>2026-04-27T10:46:26.034Z</time></trkpt><trkpt lat="33.581705" lon="-7.5495333"><ele>58.66666666666667</ele><time>2026-04-27T10:46:27.034Z</time></trkpt><trkpt lat="33.5817917" lon="-7.54935"><ele>60.0</ele><time>2026-04-27T10:46:28.034Z</time></trkpt><trkpt lat="33.5818733" lon="-7.5491683"><ele>60.0</ele><time>2026-04-27T10:46:29.034Z</time></trkpt><trkpt lat="33.581965" lon="-7.5489867"><ele>60.0</ele><time>2026-04-27T10:46:30.034Z</time></trkpt><trkpt lat="33.582055" lon="-7.5487967"><ele>60.0</ele><time>2026-04-27T10:46:31.034Z</time></trkpt><trkpt lat="33.5821417" lon="-7.5486183"><ele>61.33333333333333</ele><time>2026-04-27T10:46:32.034Z</time></trkpt><trkpt lat="33.5822283" lon="-7.548435"><ele>62.666666666666664</ele><time>2026-04-27T10:46:33.034Z</time></trkpt><trkpt lat="33.5823167" lon="-7.54826"><ele>64.0</ele><time>2026-04-27T10:46:34.034Z</time></trkpt><trkpt lat="33.5824133" lon="-7.5480917"><ele>64.0</ele><time>2026-04-27T10:46:35.034Z</time></trkpt><trkpt lat="33.5825067" lon="-7.54792"><ele>64.0</ele><time>2026-04-27T10:46:36.033Z</time></trkpt><trkpt lat="33.5825933" lon="-7.5477417"><ele>64.0</ele><time>2026-04-27T10:46:37.034Z</time></trkpt><trkpt lat="33.582675" lon="-7.54756"><ele>63.666666666666664</ele><time>2026-04-27T10:46:38.034Z</time></trkpt><trkpt lat="33.5827667" lon="-7.5473817"><ele>63.33333333333333</ele><time>2026-04-27T10:46:39.034Z</time></trkpt><trkpt lat="33.5828667" lon="-7.5472017"><ele>63.0</ele><time>2026-04-27T10:46:40.034Z</time></trkpt><trkpt lat="33.5829717" lon="-7.5470167"><ele>62.0</ele><time>2026-04-27T10:46:41.034Z</time></trkpt><trkpt lat="33.5830733" lon="-7.5468217"><ele>61.0</ele><time>2026-04-27T10:46:42.034Z</time></trkpt><trkpt lat="33.5831833" lon="-7.5466317"><ele>60.0</ele><time>2026-04-27T10:46:43.034Z</time></trkpt><trkpt lat="33.583285" lon="-7.5464333"><ele>60.0</ele><time>2026-04-27T10:46:44.034Z</time></trkpt><trkpt lat="33.5833933" lon="-7.5462383"><ele>60.0</ele><time>2026-04-27T10:46:45.034Z</time></trkpt><trkpt lat="33.5835" lon="-7.546035"><ele>60.0</ele><time>2026-04-27T10:46:46.034Z</time></trkpt><trkpt lat="33.5836083" lon="-7.5458483"><ele>60.33333333333333</ele><time>2026-04-27T10:46:47.034Z</time></trkpt><trkpt lat="33.5837017" lon="-7.5456617"><ele>60.666666666666664</ele><time>2026-04-27T10:46:48.034Z</time></trkpt><trkpt lat="33.583805" lon="-7.545485"><ele>61.0</ele><time>2026-04-27T10:46:49.034Z</time></trkpt><trkpt lat="33.5839" lon="-7.5453033"><ele>59.666666666666664</ele><time>2026-04-27T10:46:50.034Z</time></trkpt><trkpt lat="33.5840033" lon="-7.545135"><ele>58.33333333333333</ele><time>2026-04-27T10:46:51.034Z</time></trkpt><trkpt lat="33.5841033" lon="-7.5449617"><ele>57.0</ele><time>2026-04-27T10:46:52.034Z</time></trkpt><trkpt lat="33.5841933" lon="-7.54478"><ele>57.0</ele><time>2026-04-27T10:46:53.033Z</time></trkpt><trkpt lat="33.584285" lon="-7.5446083"><ele>57.0</ele><time>2026-04-27T10:46:54.034Z</time></trkpt><trkpt lat="33.5843783" lon="-7.5444317"><ele>57.0</ele><time>2026-04-27T10:46:55.034Z</time></trkpt><trkpt lat="33.5844717" lon="-7.5442533"><ele>57.66666666666667</ele><time>2026-04-27T10:46:56.034Z</time></trkpt><trkpt lat="33.584565" lon="-7.5440733"><ele>58.333333333333336</ele><time>2026-04-27T10:46:57.034Z</time></trkpt><trkpt lat="33.5846667" lon="-7.5438967"><ele>59.0</ele><time>2026-04-27T10:46:58.034Z</time></trkpt><trkpt lat="33.5847633" lon="-7.5437183"><ele>58.66666666666667</ele><time>2026-04-27T10:46:59.034Z</time></trkpt><trkpt lat="33.5848667" lon="-7.54354"><ele>58.33333333333333</ele><time>2026-04-27T10:47:00.034Z</time></trkpt><trkpt lat="33.5849683" lon="-7.543355"><ele>58.0</ele><time>2026-04-27T10:47:01.034Z</time></trkpt><trkpt lat="33.5850667" lon="-7.5431667"><ele>58.0</ele><time>2026-04-27T10:47:02.034Z</time></trkpt><trkpt lat="33.5851683" lon="-7.5429783"><ele>58.0</ele><time>2026-04-27T10:47:03.034Z</time></trkpt><trkpt lat="33.5852683" lon="-7.5427883"><ele>58.0</ele><time>2026-04-27T10:47:04.033Z</time></trkpt><trkpt lat="33.585365" lon="-7.5426033"><ele>57.33333333333333</ele><time>2026-04-27T10:47:05.034Z</time></trkpt><trkpt lat="33.585465" lon="-7.54242"><ele>56.66666666666667</ele><time>2026-04-27T10:47:06.034Z</time></trkpt><trkpt lat="33.5855567" lon="-7.542245"><ele>56.0</ele><time>2026-04-27T10:47:07.034Z</time></trkpt><trkpt lat="33.5856533" lon="-7.5420683"><ele>56.0</ele><time>2026-04-27T10:47:08.034Z</time></trkpt><trkpt lat="33.5857417" lon="-7.54189"><ele>56.0</ele><time>2026-04-27T10:47:09.034Z</time></trkpt><trkpt lat="33.5858333" lon="-7.54172"><ele>56.0</ele><time>2026-04-27T10:47:10.034Z</time></trkpt><trkpt lat="33.5859283" lon="-7.5415583"><ele>56.0</ele><time>2026-04-27T10:47:11.034Z</time></trkpt><trkpt lat="33.586025" lon="-7.5413933"><ele>56.0</ele><time>2026-04-27T10:47:12.034Z</time></trkpt><trkpt lat="33.5861233" lon="-7.5412233"><ele>56.0</ele><time>2026-04-27T10:47:13.033Z</time></trkpt><trkpt lat="33.5862267" lon="-7.5410467"><ele>56.333333333333336</ele><time>2026-04-27T10:47:14.034Z</time></trkpt><trkpt lat="33.5863317" lon="-7.54086"><ele>56.66666666666667</ele><time>2026-04-27T10:47:15.034Z</time></trkpt><trkpt lat="33.5864317" lon="-7.5406733"><ele>57.0</ele><time>2026-04-27T10:47:16.034Z</time></trkpt><trkpt lat="33.5865217" lon="-7.5404833"><ele>55.66666666666667</ele><time>2026-04-27T10:47:17.034Z</time></trkpt><trkpt lat="33.5866" lon="-7.540295"><ele>54.333333333333336</ele><time>2026-04-27T10:47:18.033Z</time></trkpt><trkpt lat="33.5866833" lon="-7.5400983"><ele>53.0</ele><time>2026-04-27T10:47:19.033Z</time></trkpt><trkpt lat="33.5867583" lon="-7.539895"><ele>53.0</ele><time>2026-04-27T10:47:20.034Z</time></trkpt><trkpt lat="33.5868317" lon="-7.53969"><ele>53.0</ele><time>2026-04-27T10:47:21.034Z</time></trkpt><trkpt lat="33.586915" lon="-7.5394833"><ele>53.0</ele><time>2026-04-27T10:47:22.034Z</time></trkpt><trkpt lat="33.5870017" lon="-7.5392817"><ele>53.66666666666667</ele><time>2026-04-27T10:47:23.034Z</time></trkpt><trkpt lat="33.58709" lon="-7.5390717"><ele>54.33333333333333</ele><time>2026-04-27T10:47:24.034Z</time></trkpt><trkpt lat="33.5871783" lon="-7.5388683"><ele>55.0</ele><time>2026-04-27T10:47:25.034Z</time></trkpt><trkpt lat="33.587265" lon="-7.5386467"><ele>55.0</ele><time>2026-04-27T10:47:26.034Z</time></trkpt><trkpt lat="33.5873483" lon="-7.5384317"><ele>55.0</ele><time>2026-04-27T10:47:27.034Z</time></trkpt><trkpt lat="33.5874317" lon="-7.538215"><ele>55.0</ele><time>2026-04-27T10:47:28.034Z</time></trkpt><trkpt lat="33.5875233" lon="-7.5379933"><ele>57.0</ele><time>2026-04-27T10:47:29.034Z</time></trkpt><trkpt lat="33.587615" lon="-7.5377617"><ele>59.0</ele><time>2026-04-27T10:47:30.034Z</time></trkpt><trkpt lat="33.58771" lon="-7.5375267"><ele>61.0</ele><time>2026-04-27T10:47:31.033Z</time></trkpt><trkpt lat="33.587805" lon="-7.5372933"><ele>58.666666666666664</ele><time>2026-04-27T10:47:32.034Z</time></trkpt><trkpt lat="33.5878967" lon="-7.537075"><ele>56.33333333333333</ele><time>2026-04-27T10:47:33.034Z</time></trkpt><trkpt lat="33.5879867" lon="-7.53686"><ele>54.0</ele><time>2026-04-27T10:47:34.034Z</time></trkpt><trkpt lat="33.588075" lon="-7.5366433"><ele>54.0</ele><time>2026-04-27T10:47:35.033Z</time></trkpt><trkpt lat="33.588165" lon="-7.536415"><ele>54.0</ele><time>2026-04-27T10:47:36.034Z</time></trkpt><trkpt lat="33.5882533" lon="-7.5361867"><ele>54.0</ele><time>2026-04-27T10:47:37.034Z</time></trkpt><trkpt lat="33.58834" lon="-7.5359667"><ele>54.33333333333333</ele><time>2026-04-27T10:47:38.034Z</time></trkpt><trkpt lat="33.5884267" lon="-7.5357533"><ele>54.666666666666664</ele><time>2026-04-27T10:47:39.034Z</time></trkpt><trkpt lat="33.5885083" lon="-7.5355483"><ele>55.0</ele><time>2026-04-27T10:47:40.034Z</time></trkpt><trkpt lat="33.5885917" lon="-7.5353383"><ele>55.666666666666664</ele><time>2026-04-27T10:47:41.034Z</time></trkpt><trkpt lat="33.5886783" lon="-7.5351267"><ele>56.33333333333333</ele><time>2026-04-27T10:47:42.033Z</time></trkpt><trkpt lat="33.5887633" lon="-7.5349217"><ele>57.0</ele><time>2026-04-27T10:47:43.034Z</time></trkpt><trkpt lat="33.5888417" lon="-7.5347267"><ele>56.33333333333333</ele><time>2026-04-27T10:47:44.033Z</time></trkpt><trkpt lat="33.5889267" lon="-7.5345383"><ele>55.666666666666664</ele><time>2026-04-27T10:47:45.034Z</time></trkpt><trkpt lat="33.5890067" lon="-7.5343433"><ele>55.0</ele><time>2026-04-27T10:47:46.033Z</time></trkpt><trkpt lat="33.5890867" lon="-7.5341567"><ele>55.0</ele><time>2026-04-27T10:47:47.034Z</time></trkpt><trkpt lat="33.5891617" lon="-7.5339733"><ele>55.0</ele><time>2026-04-27T10:47:48.034Z</time></trkpt><trkpt lat="33.5892367" lon="-7.5337867"><ele>55.0</ele><time>2026-04-27T10:47:49.033Z</time></trkpt><trkpt lat="33.5893117" lon="-7.5335933"><ele>55.0</ele><time>2026-04-27T10:47:50.034Z</time></trkpt><trkpt lat="33.5893883" lon="-7.5334"><ele>55.0</ele><time>2026-04-27T10:47:51.034Z</time></trkpt><trkpt lat="33.5894633" lon="-7.533205"><ele>55.0</ele><time>2026-04-27T10:47:52.034Z</time></trkpt><trkpt lat="33.589535" lon="-7.5330117"><ele>55.666666666666664</ele><time>2026-04-27T10:47:53.034Z</time></trkpt><trkpt lat="33.5896133" lon="-7.5328183"><ele>56.33333333333333</ele><time>2026-04-27T10:47:54.034Z</time></trkpt><trkpt lat="33.58969" lon="-7.532625"><ele>57.0</ele><time>2026-04-27T10:47:55.034Z</time></trkpt><trkpt lat="33.5897683" lon="-7.5324333"><ele>57.0</ele><time>2026-04-27T10:47:56.034Z</time></trkpt><trkpt lat="33.58985" lon="-7.5322417"><ele>57.0</ele><time>2026-04-27T10:47:57.033Z</time></trkpt><trkpt lat="33.5899283" lon="-7.5320433"><ele>57.0</ele><time>2026-04-27T10:47:58.034Z</time></trkpt><trkpt lat="33.5900133" lon="-7.5318483"><ele>57.0</ele><time>2026-04-27T10:47:59.034Z</time></trkpt><trkpt lat="33.5900933" lon="-7.53166"><ele>57.0</ele><time>2026-04-27T10:48:00.034Z</time></trkpt><trkpt lat="33.59017" lon="-7.5314717"><ele>57.0</ele><time>2026-04-27T10:48:01.034Z</time></trkpt><trkpt lat="33.59025" lon="-7.531285"><ele>56.66666666666667</ele><time>2026-04-27T10:48:02.034Z</time></trkpt><trkpt lat="33.5903183" lon="-7.5310933"><ele>56.333333333333336</ele><time>2026-04-27T10:48:03.034Z</time></trkpt><trkpt lat="33.59039" lon="-7.5308983"><ele>56.0</ele><time>2026-04-27T10:48:04.034Z</time></trkpt><trkpt lat="33.5904667" lon="-7.530705"><ele>56.0</ele><time>2026-04-27T10:48:05.034Z</time></trkpt><trkpt lat="33.5905383" lon="-7.5305117"><ele>56.0</ele><time>2026-04-27T10:48:06.034Z</time></trkpt><trkpt lat="33.59061" lon="-7.5303183"><ele>56.0</ele><time>2026-04-27T10:48:07.034Z</time></trkpt><trkpt lat="33.5906917" lon="-7.5301333"><ele>56.333333333333336</ele><time>2026-04-27T10:48:08.034Z</time></trkpt><trkpt lat="33.59077" lon="-7.5299417"><ele>56.66666666666667</ele><time>2026-04-27T10:48:09.034Z</time></trkpt><trkpt lat="33.5908517" lon="-7.5297483"><ele>57.0</ele><time>2026-04-27T10:48:10.034Z</time></trkpt><trkpt lat="33.59093" lon="-7.5295567"><ele>57.0</ele><time>2026-04-27T10:48:11.034Z</time></trkpt><trkpt lat="33.5910033" lon="-7.52936"><ele>57.0</ele><time>2026-04-27T10:48:12.034Z</time></trkpt><trkpt lat="33.5910783" lon="-7.5291667"><ele>57.0</ele><time>2026-04-27T10:48:13.034Z</time></trkpt><trkpt lat="33.5911567" lon="-7.5289833"><ele>58.0</ele><time>2026-04-27T10:48:14.034Z</time></trkpt><trkpt lat="33.5912317" lon="-7.52879"><ele>59.0</ele><time>2026-04-27T10:48:15.034Z</time></trkpt><trkpt lat="33.59131" lon="-7.5286"><ele>60.0</ele><time>2026-04-27T10:48:16.034Z</time></trkpt><trkpt lat="33.5913933" lon="-7.5284067"><ele>60.0</ele><time>2026-04-27T10:48:17.034Z</time></trkpt><trkpt lat="33.5914733" lon="-7.528205"><ele>60.0</ele><time>2026-04-27T10:48:18.034Z</time></trkpt><trkpt lat="33.59155" lon="-7.528"><ele>60.0</ele><time>2026-04-27T10:48:19.034Z</time></trkpt><trkpt lat="33.5916417" lon="-7.5277933"><ele>63.0</ele><time>2026-04-27T10:48:20.033Z</time></trkpt><trkpt lat="33.5917267" lon="-7.52758"><ele>66.0</ele><time>2026-04-27T10:48:21.034Z</time></trkpt><trkpt lat="33.5918133" lon="-7.5273717"><ele>69.0</ele><time>2026-04-27T10:48:22.034Z</time></trkpt><trkpt lat="33.591895" lon="-7.5271567"><ele>68.0</ele><time>2026-04-27T10:48:23.033Z</time></trkpt><trkpt lat="33.59198" lon="-7.5269383"><ele>67.0</ele><time>2026-04-27T10:48:24.034Z</time></trkpt><trkpt lat="33.5920683" lon="-7.526725"><ele>66.0</ele><time>2026-04-27T10:48:25.034Z</time></trkpt><trkpt lat="33.59216" lon="-7.526515"><ele>66.0</ele><time>2026-04-27T10:48:26.034Z</time></trkpt><trkpt lat="33.5922433" lon="-7.5263083"><ele>66.0</ele><time>2026-04-27T10:48:27.034Z</time></trkpt><trkpt lat="33.5923267" lon="-7.52611"><ele>66.0</ele><time>2026-04-27T10:48:28.034Z</time></trkpt><trkpt lat="33.5924067" lon="-7.5259167"><ele>64.33333333333333</ele><time>2026-04-27T10:48:29.034Z</time></trkpt><trkpt lat="33.5924767" lon="-7.525725"><ele>62.666666666666664</ele><time>2026-04-27T10:48:30.034Z</time></trkpt><trkpt lat="33.5925483" lon="-7.5255283"><ele>61.0</ele><time>2026-04-27T10:48:31.034Z</time></trkpt><trkpt lat="33.5926267" lon="-7.5253367"><ele>61.0</ele><time>2026-04-27T10:48:32.034Z</time></trkpt><trkpt lat="33.59271" lon="-7.52515"><ele>61.0</ele><time>2026-04-27T10:48:33.033Z</time></trkpt><trkpt lat="33.5927883" lon="-7.5249583"><ele>61.0</ele><time>2026-04-27T10:48:34.034Z</time></trkpt><trkpt lat="33.59286" lon="-7.5247583"><ele>60.33333333333333</ele><time>2026-04-27T10:48:35.034Z</time></trkpt><trkpt lat="33.59294" lon="-7.52456"><ele>59.66666666666667</ele><time>2026-04-27T10:48:36.033Z</time></trkpt><trkpt lat="33.59302" lon="-7.52437"><ele>59.0</ele><time>2026-04-27T10:48:37.034Z</time></trkpt><trkpt lat="33.5930933" lon="-7.5241833"><ele>59.0</ele><time>2026-04-27T10:48:38.034Z</time></trkpt><trkpt lat="33.5931683" lon="-7.5240017"><ele>59.0</ele><time>2026-04-27T10:48:39.034Z</time></trkpt><trkpt lat="33.5932533" lon="-7.52382"><ele>59.0</ele><time>2026-04-27T10:48:40.034Z</time></trkpt><trkpt lat="33.593325" lon="-7.523635"><ele>59.0</ele><time>2026-04-27T10:48:41.034Z</time></trkpt><trkpt lat="33.5933967" lon="-7.5234483"><ele>59.0</ele><time>2026-04-27T10:48:42.034Z</time></trkpt><trkpt lat="33.593475" lon="-7.5232667"><ele>59.0</ele><time>2026-04-27T10:48:43.034Z</time></trkpt><trkpt lat="33.59355" lon="-7.5230917"><ele>59.0</ele><time>2026-04-27T10:48:44.034Z</time></trkpt><trkpt lat="33.593625" lon="-7.5229167"><ele>59.0</ele><time>2026-04-27T10:48:45.034Z</time></trkpt><trkpt lat="33.5936967" lon="-7.5227417"><ele>59.0</ele><time>2026-04-27T10:48:46.034Z</time></trkpt><trkpt lat="33.5937667" lon="-7.522565"><ele>60.66666666666667</ele><time>2026-04-27T10:48:47.034Z</time></trkpt><trkpt lat="33.5938333" lon="-7.52239"><ele>62.33333333333333</ele><time>2026-04-27T10:48:48.034Z</time></trkpt><trkpt lat="33.593905" lon="-7.5222133"><ele>64.0</ele><time>2026-04-27T10:48:49.034Z</time></trkpt><trkpt lat="33.5939767" lon="-7.5220317"><ele>65.0</ele><time>2026-04-27T10:48:50.034Z</time></trkpt><trkpt lat="33.5940517" lon="-7.5218533"><ele>66.0</ele><time>2026-04-27T10:48:51.034Z</time></trkpt><trkpt lat="33.594125" lon="-7.5216683"><ele>67.0</ele><time>2026-04-27T10:48:52.034Z</time></trkpt><trkpt lat="33.5942" lon="-7.5214833"><ele>67.0</ele><time>2026-04-27T10:48:53.033Z</time></trkpt><trkpt lat="33.594275" lon="-7.5212983"><ele>67.0</ele><time>2026-04-27T10:48:54.034Z</time></trkpt><trkpt lat="33.5943467" lon="-7.5211083"><ele>67.0</ele><time>2026-04-27T10:48:55.034Z</time></trkpt><trkpt lat="33.5944283" lon="-7.520915"><ele>66.0</ele><time>2026-04-27T10:48:56.034Z</time></trkpt><trkpt lat="33.59451" lon="-7.5207267"><ele>65.0</ele><time>2026-04-27T10:48:57.034Z</time></trkpt><trkpt lat="33.59459" lon="-7.5205333"><ele>64.0</ele><time>2026-04-27T10:48:58.034Z</time></trkpt><trkpt lat="33.5946717" lon="-7.5203383"><ele>64.0</ele><time>2026-04-27T10:48:59.034Z</time></trkpt><trkpt lat="33.59475" lon="-7.5201383"><ele>64.0</ele><time>2026-04-27T10:49:00.033Z</time></trkpt><trkpt lat="33.5948317" lon="-7.5199367"><ele>64.0</ele><time>2026-04-27T10:49:01.034Z</time></trkpt><trkpt lat="33.59491" lon="-7.519735"><ele>63.666666666666664</ele><time>2026-04-27T10:49:02.034Z</time></trkpt><trkpt lat="33.594985" lon="-7.5195417"><ele>63.33333333333333</ele><time>2026-04-27T10:49:03.034Z</time></trkpt><trkpt lat="33.59506" lon="-7.51935"><ele>63.0</ele><time>2026-04-27T10:49:04.033Z</time></trkpt><trkpt lat="33.5951333" lon="-7.5191633"><ele>63.0</ele><time>2026-04-27T10:49:05.034Z</time></trkpt><trkpt lat="33.59521" lon="-7.51897"><ele>63.0</ele><time>2026-04-27T10:49:06.034Z</time></trkpt><trkpt lat="33.59528" lon="-7.518785"><ele>63.0</ele><time>2026-04-27T10:49:07.034Z</time></trkpt><trkpt lat="33.5953617" lon="-7.5185933"><ele>64.0</ele><time>2026-04-27T10:49:08.034Z</time></trkpt><trkpt lat="33.59544" lon="-7.5184"><ele>65.0</ele><time>2026-04-27T10:49:09.034Z</time></trkpt><trkpt lat="33.5955167" lon="-7.518215"><ele>66.0</ele><time>2026-04-27T10:49:10.033Z</time></trkpt><trkpt lat="33.5955967" lon="-7.5180217"><ele>66.0</ele><time>2026-04-27T10:49:11.034Z</time></trkpt><trkpt lat="33.5956767" lon="-7.5178333"><ele>66.0</ele><time>2026-04-27T10:49:12.034Z</time></trkpt><trkpt lat="33.595755" lon="-7.5176367"><ele>66.0</ele><time>2026-04-27T10:49:13.034Z</time></trkpt><trkpt lat="33.5958333" lon="-7.5174433"><ele>66.0</ele><time>2026-04-27T10:49:14.034Z</time></trkpt><trkpt lat="33.5959117" lon="-7.5172467"><ele>66.0</ele><time>2026-04-27T10:49:15.034Z</time></trkpt><trkpt lat="33.5959933" lon="-7.517045"><ele>66.0</ele><time>2026-04-27T10:49:16.034Z</time></trkpt><trkpt lat="33.5960717" lon="-7.51685"><ele>66.33333333333333</ele><time>2026-04-27T10:49:17.034Z</time></trkpt><trkpt lat="33.5961533" lon="-7.5166467"><ele>66.66666666666666</ele><time>2026-04-27T10:49:18.034Z</time></trkpt><trkpt lat="33.59624" lon="-7.5164483"><ele>67.0</ele><time>2026-04-27T10:49:19.034Z</time></trkpt><trkpt lat="33.5963267" lon="-7.51625"><ele>65.66666666666666</ele><time>2026-04-27T10:49:20.034Z</time></trkpt><trkpt lat="33.59641" lon="-7.51605"><ele>64.33333333333333</ele><time>2026-04-27T10:49:21.034Z</time></trkpt><trkpt lat="33.5965" lon="-7.5158483"><ele>63.0</ele><time>2026-04-27T10:49:22.033Z</time></trkpt><trkpt lat="33.596595" lon="-7.515645"><ele>63.0</ele><time>2026-04-27T10:49:23.034Z</time></trkpt><trkpt lat="33.5966833" lon="-7.5154483"><ele>63.0</ele><time>2026-04-27T10:49:24.034Z</time></trkpt><trkpt lat="33.5967883" lon="-7.5152483"><ele>63.0</ele><time>2026-04-27T10:49:25.034Z</time></trkpt><trkpt lat="33.5968867" lon="-7.5150483"><ele>63.33333333333333</ele><time>2026-04-27T10:49:26.034Z</time></trkpt><trkpt lat="33.596985" lon="-7.5148483"><ele>63.666666666666664</ele><time>2026-04-27T10:49:27.034Z</time></trkpt><trkpt lat="33.5970817" lon="-7.514645"><ele>64.0</ele><time>2026-04-27T10:49:28.033Z</time></trkpt><trkpt lat="33.5971817" lon="-7.5144483"><ele>64.0</ele><time>2026-04-27T10:49:29.034Z</time></trkpt><trkpt lat="33.5972833" lon="-7.5142467"><ele>64.0</ele><time>2026-04-27T10:49:30.033Z</time></trkpt><trkpt lat="33.597385" lon="-7.514045"><ele>64.0</ele><time>2026-04-27T10:49:31.034Z</time></trkpt><trkpt lat="33.5974883" lon="-7.5138533"><ele>65.0</ele><time>2026-04-27T10:49:32.034Z</time></trkpt><trkpt lat="33.5975917" lon="-7.5136633"><ele>66.0</ele><time>2026-04-27T10:49:33.034Z</time></trkpt><trkpt lat="33.597695" lon="-7.5134767"><ele>67.0</ele><time>2026-04-27T10:49:34.034Z</time></trkpt><trkpt lat="33.597795" lon="-7.51329"><ele>67.33333333333333</ele><time>2026-04-27T10:49:35.034Z</time></trkpt><trkpt lat="33.5979" lon="-7.513105"><ele>67.66666666666667</ele><time>2026-04-27T10:49:36.034Z</time></trkpt><trkpt lat="33.598005" lon="-7.5129217"><ele>68.0</ele><time>2026-04-27T10:49:37.034Z</time></trkpt><trkpt lat="33.598105" lon="-7.5127467"><ele>66.66666666666667</ele><time>2026-04-27T10:49:38.034Z</time></trkpt><trkpt lat="33.598195" lon="-7.5125667"><ele>65.33333333333333</ele><time>2026-04-27T10:49:39.034Z</time></trkpt><trkpt lat="33.5982883" lon="-7.5123933"><ele>64.0</ele><time>2026-04-27T10:49:40.034Z</time></trkpt><trkpt lat="33.5983817" lon="-7.5122117"><ele>65.0</ele><time>2026-04-27T10:49:41.034Z</time></trkpt><trkpt lat="33.598485" lon="-7.51203"><ele>66.0</ele><time>2026-04-27T10:49:42.033Z</time></trkpt><trkpt lat="33.598585" lon="-7.51185"><ele>67.0</ele><time>2026-04-27T10:49:43.034Z</time></trkpt><trkpt lat="33.5986833" lon="-7.511675"><ele>67.0</ele><time>2026-04-27T10:49:44.034Z</time></trkpt><trkpt lat="33.598785" lon="-7.511505"><ele>67.0</ele><time>2026-04-27T10:49:45.034Z</time></trkpt><trkpt lat="33.5988767" lon="-7.5113317"><ele>67.0</ele><time>2026-04-27T10:49:46.034Z</time></trkpt><trkpt lat="33.5989733" lon="-7.511155"><ele>67.33333333333333</ele><time>2026-04-27T10:49:47.034Z</time></trkpt><trkpt lat="33.599075" lon="-7.5109783"><ele>67.66666666666667</ele><time>2026-04-27T10:49:48.034Z</time></trkpt><trkpt lat="33.5991733" lon="-7.510805"><ele>68.0</ele><time>2026-04-27T10:49:49.034Z</time></trkpt><trkpt lat="33.599265" lon="-7.5106333"><ele>68.0</ele><time>2026-04-27T10:49:50.034Z</time></trkpt><trkpt lat="33.599355" lon="-7.5104667"><ele>68.0</ele><time>2026-04-27T10:49:51.034Z</time></trkpt><trkpt lat="33.5994533" lon="-7.510295"><ele>68.0</ele><time>2026-04-27T10:49:52.033Z</time></trkpt><trkpt lat="33.5995517" lon="-7.5101217"><ele>66.33333333333334</ele><time>2026-04-27T10:49:53.034Z</time></trkpt><trkpt lat="33.5996517" lon="-7.5099433"><ele>64.66666666666667</ele><time>2026-04-27T10:49:54.034Z</time></trkpt><trkpt lat="33.5997533" lon="-7.50976"><ele>63.0</ele><time>2026-04-27T10:49:55.033Z</time></trkpt><trkpt lat="33.5998417" lon="-7.5095767"><ele>63.0</ele><time>2026-04-27T10:49:56.034Z</time></trkpt><trkpt lat="33.59995" lon="-7.509385"><ele>63.0</ele><time>2026-04-27T10:49:57.034Z</time></trkpt><trkpt lat="33.6000617" lon="-7.5091883"><ele>63.0</ele><time>2026-04-27T10:49:58.034Z</time></trkpt><trkpt lat="33.6001667" lon="-7.5089883"><ele>63.0</ele><time>2026-04-27T10:49:59.034Z</time></trkpt><trkpt lat="33.6002717" lon="-7.5087967"><ele>63.0</ele><time>2026-04-27T10:50:00.034Z</time></trkpt><trkpt lat="33.60038" lon="-7.5086067"><ele>63.0</ele><time>2026-04-27T10:50:01.034Z</time></trkpt><trkpt lat="33.60049" lon="-7.5084133"><ele>66.33333333333333</ele><time>2026-04-27T10:50:02.034Z</time></trkpt><trkpt lat="33.6005967" lon="-7.50822"><ele>69.66666666666666</ele><time>2026-04-27T10:50:03.034Z</time></trkpt><trkpt lat="33.6007033" lon="-7.5080283"><ele>73.0</ele><time>2026-04-27T10:50:04.034Z</time></trkpt><trkpt lat="33.600805" lon="-7.5078433"><ele>73.0</ele><time>2026-04-27T10:50:05.034Z</time></trkpt><trkpt lat="33.6009083" lon="-7.50766"><ele>73.0</ele><time>2026-04-27T10:50:06.034Z</time></trkpt><trkpt lat="33.601" lon="-7.5074483"><ele>73.0</ele><time>2026-04-27T10:50:07.034Z</time></trkpt><trkpt lat="33.6010967" lon="-7.507265"><ele>73.0</ele><time>2026-04-27T10:50:08.034Z</time></trkpt><trkpt lat="33.6012083" lon="-7.5070917"><ele>73.0</ele><time>2026-04-27T10:50:09.033Z</time></trkpt><trkpt lat="33.601315" lon="-7.5069167"><ele>73.0</ele><time>2026-04-27T10:50:10.034Z</time></trkpt><trkpt lat="33.6014183" lon="-7.5067383"><ele>71.66666666666666</ele><time>2026-04-27T10:50:11.034Z</time></trkpt><trkpt lat="33.6015183" lon="-7.5065617"><ele>70.33333333333333</ele><time>2026-04-27T10:50:12.034Z</time></trkpt><trkpt lat="33.601615" lon="-7.506375"><ele>69.0</ele><time>2026-04-27T10:50:13.033Z</time></trkpt><trkpt lat="33.6017167" lon="-7.506205"><ele>67.0</ele><time>2026-04-27T10:50:14.034Z</time></trkpt><trkpt lat="33.601815" lon="-7.50603"><ele>65.0</ele><time>2026-04-27T10:50:15.034Z</time></trkpt><trkpt lat="33.60191" lon="-7.5058567"><ele>63.0</ele><time>2026-04-27T10:50:16.034Z</time></trkpt><trkpt lat="33.6020067" lon="-7.50568"><ele>62.66666666666667</ele><time>2026-04-27T10:50:17.034Z</time></trkpt><trkpt lat="33.6021067" lon="-7.5055017"><ele>62.333333333333336</ele><time>2026-04-27T10:50:18.034Z</time></trkpt><trkpt lat="33.6022133" lon="-7.5053233"><ele>62.0</ele><time>2026-04-27T10:50:19.034Z</time></trkpt><trkpt lat="33.6023167" lon="-7.5051467"><ele>63.0</ele><time>2026-04-27T10:50:20.034Z</time></trkpt><trkpt lat="33.6024217" lon="-7.5049633"><ele>64.0</ele><time>2026-04-27T10:50:21.034Z</time></trkpt><trkpt lat="33.6025217" lon="-7.50478"><ele>65.0</ele><time>2026-04-27T10:50:22.034Z</time></trkpt><trkpt lat="33.60262" lon="-7.5045883"><ele>65.0</ele><time>2026-04-27T10:50:23.034Z</time></trkpt><trkpt lat="33.602725" lon="-7.5044017"><ele>65.0</ele><time>2026-04-27T10:50:24.034Z</time></trkpt><trkpt lat="33.6028267" lon="-7.50421"><ele>65.0</ele><time>2026-04-27T10:50:25.034Z</time></trkpt><trkpt lat="33.60293" lon="-7.50402"><ele>64.33333333333334</ele><time>2026-04-27T10:50:26.034Z</time></trkpt><trkpt lat="33.6030317" lon="-7.5038283"><ele>63.66666666666667</ele><time>2026-04-27T10:50:27.034Z</time></trkpt><trkpt lat="33.6031367" lon="-7.5036383"><ele>63.0</ele><time>2026-04-27T10:50:28.034Z</time></trkpt><trkpt lat="33.6032433" lon="-7.5034517"><ele>62.66666666666667</ele><time>2026-04-27T10:50:29.034Z</time></trkpt><trkpt lat="33.6033433" lon="-7.50326"><ele>62.333333333333336</ele><time>2026-04-27T10:50:30.034Z</time></trkpt><trkpt lat="33.6034467" lon="-7.5030667"><ele>62.0</ele><time>2026-04-27T10:50:31.034Z</time></trkpt><trkpt lat="33.6035517" lon="-7.50288"><ele>62.66666666666667</ele><time>2026-04-27T10:50:32.034Z</time></trkpt><trkpt lat="33.603655" lon="-7.5026933"><ele>63.33333333333333</ele><time>2026-04-27T10:50:33.033Z</time></trkpt><trkpt lat="33.6037583" lon="-7.5025017"><ele>64.0</ele><time>2026-04-27T10:50:34.034Z</time></trkpt><trkpt lat="33.6038583" lon="-7.5023117"><ele>62.666666666666664</ele><time>2026-04-27T10:50:35.034Z</time></trkpt><trkpt lat="33.6039583" lon="-7.5021233"><ele>61.33333333333333</ele><time>2026-04-27T10:50:36.034Z</time></trkpt><trkpt lat="33.6040617" lon="-7.5019417"><ele>60.0</ele><time>2026-04-27T10:50:37.033Z</time></trkpt><trkpt lat="33.6041667" lon="-7.5017567"><ele>60.0</ele><time>2026-04-27T10:50:38.033Z</time></trkpt><trkpt lat="33.6042733" lon="-7.5015717"><ele>60.0</ele><time>2026-04-27T10:50:39.033Z</time></trkpt><trkpt lat="33.6043767" lon="-7.501385"><ele>60.0</ele><time>2026-04-27T10:50:40.033Z</time></trkpt><trkpt lat="33.6044817" lon="-7.5011983"><ele>61.0</ele><time>2026-04-27T10:50:41.033Z</time></trkpt><trkpt lat="33.604585" lon="-7.501005"><ele>62.0</ele><time>2026-04-27T10:50:42.033Z</time></trkpt><trkpt lat="33.6046883" lon="-7.500815"><ele>63.0</ele><time>2026-04-27T10:50:43.033Z</time></trkpt><trkpt lat="33.604785" lon="-7.5006217"><ele>63.0</ele><time>2026-04-27T10:50:44.033Z</time></trkpt><trkpt lat="33.604885" lon="-7.50043"><ele>63.0</ele><time>2026-04-27T10:50:45.033Z</time></trkpt><trkpt lat="33.6049883" lon="-7.500235"><ele>63.0</ele><time>2026-04-27T10:50:46.032Z</time></trkpt><trkpt lat="33.605095" lon="-7.5000383"><ele>63.0</ele><time>2026-04-27T10:50:47.032Z</time></trkpt><trkpt lat="33.605205" lon="-7.4998367"><ele>63.0</ele><time>2026-04-27T10:50:48.033Z</time></trkpt><trkpt lat="33.605315" lon="-7.4996383"><ele>63.0</ele><time>2026-04-27T10:50:49.033Z</time></trkpt><trkpt lat="33.6054217" lon="-7.4994433"><ele>63.0</ele><time>2026-04-27T10:50:50.033Z</time></trkpt><trkpt lat="33.6055267" lon="-7.4992483"><ele>63.0</ele><time>2026-04-27T10:50:51.033Z</time></trkpt><trkpt lat="33.6056267" lon="-7.4990533"><ele>63.0</ele><time>2026-04-27T10:50:52.033Z</time></trkpt><trkpt lat="33.6057283" lon="-7.4988533"><ele>63.0</ele><time>2026-04-27T10:50:53.033Z</time></trkpt><trkpt lat="33.6058317" lon="-7.49866"><ele>63.0</ele><time>2026-04-27T10:50:54.033Z</time></trkpt><trkpt lat="33.605935" lon="-7.498465"><ele>63.0</ele><time>2026-04-27T10:50:55.033Z</time></trkpt><trkpt lat="33.606035" lon="-7.49827"><ele>63.0</ele><time>2026-04-27T10:50:56.033Z</time></trkpt><trkpt lat="33.6061367" lon="-7.49808"><ele>63.0</ele><time>2026-04-27T10:50:57.033Z</time></trkpt><trkpt lat="33.6062383" lon="-7.4978867"><ele>63.0</ele><time>2026-04-27T10:50:58.033Z</time></trkpt><trkpt lat="33.606345" lon="-7.4976883"><ele>63.33333333333333</ele><time>2026-04-27T10:50:59.033Z</time></trkpt><trkpt lat="33.60645" lon="-7.4974883"><ele>63.666666666666664</ele><time>2026-04-27T10:51:00.032Z</time></trkpt><trkpt lat="33.606555" lon="-7.497295"><ele>64.0</ele><time>2026-04-27T10:51:01.033Z</time></trkpt><trkpt lat="33.6066567" lon="-7.4970967"><ele>63.666666666666664</ele><time>2026-04-27T10:51:02.032Z</time></trkpt><trkpt lat="33.6067567" lon="-7.4969017"><ele>63.33333333333333</ele><time>2026-04-27T10:51:03.033Z</time></trkpt><trkpt lat="33.6068617" lon="-7.4967"><ele>63.0</ele><time>2026-04-27T10:51:04.033Z</time></trkpt><trkpt lat="33.60696" lon="-7.4964983"><ele>63.66666666666667</ele><time>2026-04-27T10:51:05.033Z</time></trkpt><trkpt lat="33.6070633" lon="-7.4963"><ele>64.33333333333334</ele><time>2026-04-27T10:51:06.032Z</time></trkpt><trkpt lat="33.607165" lon="-7.4960983"><ele>65.0</ele><time>2026-04-27T10:51:07.033Z</time></trkpt><trkpt lat="33.6072683" lon="-7.495895"><ele>65.0</ele><time>2026-04-27T10:51:08.033Z</time></trkpt><trkpt lat="33.6073733" lon="-7.4956983"><ele>65.0</ele><time>2026-04-27T10:51:09.033Z</time></trkpt><trkpt lat="33.6074733" lon="-7.4954983"><ele>65.0</ele><time>2026-04-27T10:51:10.033Z</time></trkpt><trkpt lat="33.60758" lon="-7.4953083"><ele>65.66666666666667</ele><time>2026-04-27T10:51:11.033Z</time></trkpt><trkpt lat="33.60768" lon="-7.4951033"><ele>66.33333333333333</ele><time>2026-04-27T10:51:12.033Z</time></trkpt><trkpt lat="33.6077783" lon="-7.4949"><ele>67.0</ele><time>2026-04-27T10:51:13.033Z</time></trkpt><trkpt lat="33.60788" lon="-7.494705"><ele>68.0</ele><time>2026-04-27T10:51:14.033Z</time></trkpt><trkpt lat="33.607985" lon="-7.4945167"><ele>69.0</ele><time>2026-04-27T10:51:15.033Z</time></trkpt><trkpt lat="33.6080867" lon="-7.4943317"><ele>70.0</ele><time>2026-04-27T10:51:16.032Z</time></trkpt><trkpt lat="33.6081883" lon="-7.49414"><ele>70.0</ele><time>2026-04-27T10:51:17.033Z</time></trkpt><trkpt lat="33.6082867" lon="-7.4939467"><ele>70.0</ele><time>2026-04-27T10:51:18.033Z</time></trkpt><trkpt lat="33.60839" lon="-7.4937533"><ele>70.0</ele><time>2026-04-27T10:51:19.033Z</time></trkpt><trkpt lat="33.608495" lon="-7.4935617"><ele>70.0</ele><time>2026-04-27T10:51:20.033Z</time></trkpt><trkpt lat="33.6085967" lon="-7.4933667"><ele>70.0</ele><time>2026-04-27T10:51:21.033Z</time></trkpt><trkpt lat="33.6087" lon="-7.49317"><ele>70.0</ele><time>2026-04-27T10:51:22.033Z</time></trkpt><trkpt lat="33.6088" lon="-7.4929767"><ele>71.0</ele><time>2026-04-27T10:51:23.033Z</time></trkpt><trkpt lat="33.6089017" lon="-7.4927867"><ele>72.0</ele><time>2026-04-27T10:51:24.033Z</time></trkpt><trkpt lat="33.608995" lon="-7.4925967"><ele>73.0</ele><time>2026-04-27T10:51:25.033Z</time></trkpt><trkpt lat="33.6090917" lon="-7.4924083"><ele>73.0</ele><time>2026-04-27T10:51:26.033Z</time></trkpt><trkpt lat="33.609185" lon="-7.4922133"><ele>73.0</ele><time>2026-04-27T10:51:27.033Z</time></trkpt><trkpt lat="33.6092833" lon="-7.492025"><ele>73.0</ele><time>2026-04-27T10:51:28.033Z</time></trkpt><trkpt lat="33.6093817" lon="-7.491835"><ele>72.0</ele><time>2026-04-27T10:51:29.033Z</time></trkpt><trkpt lat="33.609485" lon="-7.4916417"><ele>71.0</ele><time>2026-04-27T10:51:30.032Z</time></trkpt><trkpt lat="33.6095817" lon="-7.4914433"><ele>70.0</ele><time>2026-04-27T10:51:31.033Z</time></trkpt><trkpt lat="33.6096833" lon="-7.4912533"><ele>69.66666666666666</ele><time>2026-04-27T10:51:32.033Z</time></trkpt><trkpt lat="33.6097817" lon="-7.49106"><ele>69.33333333333333</ele><time>2026-04-27T10:51:33.033Z</time></trkpt><trkpt lat="33.609885" lon="-7.4908667"><ele>69.0</ele><time>2026-04-27T10:51:34.033Z</time></trkpt><trkpt lat="33.6099917" lon="-7.49067"><ele>69.0</ele><time>2026-04-27T10:51:35.033Z</time></trkpt><trkpt lat="33.610095" lon="-7.4904733"><ele>69.0</ele><time>2026-04-27T10:51:36.033Z</time></trkpt><trkpt lat="33.6102" lon="-7.4902817"><ele>69.0</ele><time>2026-04-27T10:51:37.033Z</time></trkpt><trkpt lat="33.6103" lon="-7.4900883"><ele>69.0</ele><time>2026-04-27T10:51:38.033Z</time></trkpt><trkpt lat="33.6103967" lon="-7.4898917"><ele>69.0</ele><time>2026-04-27T10:51:39.033Z</time></trkpt><trkpt lat="33.6104967" lon="-7.4896967"><ele>69.0</ele><time>2026-04-27T10:51:40.033Z</time></trkpt><trkpt lat="33.610595" lon="-7.4894917"><ele>69.0</ele><time>2026-04-27T10:51:41.033Z</time></trkpt><trkpt lat="33.6106983" lon="-7.4892967"><ele>69.0</ele><time>2026-04-27T10:51:42.033Z</time></trkpt><trkpt lat="33.6108067" lon="-7.489095"><ele>69.0</ele><time>2026-04-27T10:51:43.033Z</time></trkpt><trkpt lat="33.6109167" lon="-7.4888917"><ele>68.66666666666667</ele><time>2026-04-27T10:51:44.033Z</time></trkpt><trkpt lat="33.6110217" lon="-7.488685"><ele>68.33333333333334</ele><time>2026-04-27T10:51:45.033Z</time></trkpt><trkpt lat="33.61113" lon="-7.4884833"><ele>68.0</ele><time>2026-04-27T10:51:46.033Z</time></trkpt><trkpt lat="33.611235" lon="-7.488275"><ele>68.66666666666667</ele><time>2026-04-27T10:51:47.033Z</time></trkpt><trkpt lat="33.6113433" lon="-7.4880667"><ele>69.33333333333333</ele><time>2026-04-27T10:51:48.033Z</time></trkpt><trkpt lat="33.6114467" lon="-7.4878683"><ele>70.0</ele><time>2026-04-27T10:51:49.033Z</time></trkpt><trkpt lat="33.6115483" lon="-7.4876783"><ele>68.66666666666666</ele><time>2026-04-27T10:51:50.033Z</time></trkpt><trkpt lat="33.61165" lon="-7.4874833"><ele>67.33333333333333</ele><time>2026-04-27T10:51:51.033Z</time></trkpt><trkpt lat="33.6117517" lon="-7.4872917"><ele>66.0</ele><time>2026-04-27T10:51:52.033Z</time></trkpt><trkpt lat="33.6118533" lon="-7.4871"><ele>67.0</ele><time>2026-04-27T10:51:53.033Z</time></trkpt><trkpt lat="33.6119533" lon="-7.4868983"><ele>68.0</ele><time>2026-04-27T10:51:54.033Z</time></trkpt><trkpt lat="33.61205" lon="-7.4867"><ele>69.0</ele><time>2026-04-27T10:51:55.033Z</time></trkpt><trkpt lat="33.61215" lon="-7.4865067"><ele>69.33333333333333</ele><time>2026-04-27T10:51:56.033Z</time></trkpt><trkpt lat="33.6122517" lon="-7.4863083"><ele>69.66666666666666</ele><time>2026-04-27T10:51:57.033Z</time></trkpt><trkpt lat="33.6123517" lon="-7.4861067"><ele>70.0</ele><time>2026-04-27T10:51:58.033Z</time></trkpt><trkpt lat="33.6124533" lon="-7.48591"><ele>69.33333333333333</ele><time>2026-04-27T10:51:59.033Z</time></trkpt><trkpt lat="33.61256" lon="-7.4857133"><ele>68.66666666666667</ele><time>2026-04-27T10:52:00.033Z</time></trkpt><trkpt lat="33.612665" lon="-7.4855133"><ele>68.0</ele><time>2026-04-27T10:52:01.033Z</time></trkpt><trkpt lat="33.6127717" lon="-7.4853"><ele>67.33333333333334</ele><time>2026-04-27T10:52:02.032Z</time></trkpt><trkpt lat="33.6128783" lon="-7.4850883"><ele>66.66666666666667</ele><time>2026-04-27T10:52:03.033Z</time></trkpt><trkpt lat="33.6129933" lon="-7.4848717"><ele>66.0</ele><time>2026-04-27T10:52:04.033Z</time></trkpt><trkpt lat="33.6131067" lon="-7.48465"><ele>66.33333333333333</ele><time>2026-04-27T10:52:05.033Z</time></trkpt><trkpt lat="33.6132233" lon="-7.4844317"><ele>66.66666666666666</ele><time>2026-04-27T10:52:06.033Z</time></trkpt><trkpt lat="33.613345" lon="-7.4842033"><ele>67.0</ele><time>2026-04-27T10:52:07.033Z</time></trkpt><trkpt lat="33.6134683" lon="-7.4839617"><ele>67.0</ele><time>2026-04-27T10:52:08.032Z</time></trkpt><trkpt lat="33.6135867" lon="-7.4837183"><ele>67.0</ele><time>2026-04-27T10:52:09.033Z</time></trkpt><trkpt lat="33.613715" lon="-7.4834783"><ele>67.0</ele><time>2026-04-27T10:52:10.033Z</time></trkpt><trkpt lat="33.6138417" lon="-7.4832333"><ele>67.0</ele><time>2026-04-27T10:52:11.033Z</time></trkpt><trkpt lat="33.61397" lon="-7.4829917"><ele>69.0</ele><time>2026-04-27T10:52:12.033Z</time></trkpt><trkpt lat="33.6140917" lon="-7.48275"><ele>71.0</ele><time>2026-04-27T10:52:13.033Z</time></trkpt><trkpt lat="33.6142117" lon="-7.4825233"><ele>71.0</ele><time>2026-04-27T10:52:14.033Z</time></trkpt><trkpt lat="33.6143383" lon="-7.4822917"><ele>71.0</ele><time>2026-04-27T10:52:15.033Z</time></trkpt><trkpt lat="33.6144583" lon="-7.4820617"><ele>69.0</ele><time>2026-04-27T10:52:16.033Z</time></trkpt><trkpt lat="33.6145767" lon="-7.4818417"><ele>67.0</ele><time>2026-04-27T10:52:17.033Z</time></trkpt><trkpt lat="33.6146883" lon="-7.48162"><ele>65.0</ele><time>2026-04-27T10:52:18.033Z</time></trkpt><trkpt lat="33.6147967" lon="-7.4814067"><ele>66.33333333333334</ele><time>2026-04-27T10:52:19.033Z</time></trkpt><trkpt lat="33.614905" lon="-7.481195"><ele>67.66666666666667</ele><time>2026-04-27T10:52:20.033Z</time></trkpt><trkpt lat="33.615015" lon="-7.480985"><ele>69.0</ele><time>2026-04-27T10:52:21.033Z</time></trkpt><trkpt lat="33.6151283" lon="-7.4807783"><ele>69.0</ele><time>2026-04-27T10:52:22.032Z</time></trkpt><trkpt lat="33.6152383" lon="-7.4805817"><ele>69.0</ele><time>2026-04-27T10:52:23.033Z</time></trkpt><trkpt lat="33.6153433" lon="-7.4803867"><ele>69.0</ele><time>2026-04-27T10:52:24.033Z</time></trkpt><trkpt lat="33.6154483" lon="-7.48019"><ele>68.33333333333333</ele><time>2026-04-27T10:52:25.033Z</time></trkpt><trkpt lat="33.6155533" lon="-7.4799917"><ele>67.66666666666666</ele><time>2026-04-27T10:52:26.033Z</time></trkpt><trkpt lat="33.615655" lon="-7.4797933"><ele>67.0</ele><time>2026-04-27T10:52:27.033Z</time></trkpt><trkpt lat="33.61576" lon="-7.4795867"><ele>68.33333333333333</ele><time>2026-04-27T10:52:28.033Z</time></trkpt><trkpt lat="33.6158717" lon="-7.4793683"><ele>69.66666666666667</ele><time>2026-04-27T10:52:29.033Z</time></trkpt><trkpt lat="33.6159933" lon="-7.4791367"><ele>71.0</ele><time>2026-04-27T10:52:30.033Z</time></trkpt><trkpt lat="33.6161133" lon="-7.4789067"><ele>69.0</ele><time>2026-04-27T10:52:31.033Z</time></trkpt><trkpt lat="33.616235" lon="-7.4786717"><ele>67.0</ele><time>2026-04-27T10:52:32.033Z</time></trkpt><trkpt lat="33.616355" lon="-7.4784333"><ele>67.0</ele><time>2026-04-27T10:52:33.033Z</time></trkpt><trkpt lat="33.61647" lon="-7.4782083"><ele>67.0</ele><time>2026-04-27T10:52:34.033Z</time></trkpt><trkpt lat="33.6165883" lon="-7.477985"><ele>67.0</ele><time>2026-04-27T10:52:35.033Z</time></trkpt><trkpt lat="33.6167067" lon="-7.4777633"><ele>67.0</ele><time>2026-04-27T10:52:36.033Z</time></trkpt><trkpt lat="33.61682" lon="-7.4775333"><ele>67.0</ele><time>2026-04-27T10:52:37.033Z</time></trkpt><trkpt lat="33.6169417" lon="-7.477305"><ele>67.0</ele><time>2026-04-27T10:52:38.032Z</time></trkpt><trkpt lat="33.6170717" lon="-7.4770667"><ele>65.5</ele><time>2026-04-27T10:52:39.033Z</time></trkpt><trkpt lat="33.6172067" lon="-7.4768333"><ele>64.0</ele><time>2026-04-27T10:52:40.033Z</time></trkpt><trkpt lat="33.6173533" lon="-7.4766"><ele>64.0</ele><time>2026-04-27T10:52:41.032Z</time></trkpt><trkpt lat="33.6174933" lon="-7.4763783"><ele>64.0</ele><time>2026-04-27T10:52:42.033Z</time></trkpt><trkpt lat="33.6176283" lon="-7.47616"><ele>65.0</ele><time>2026-04-27T10:52:43.032Z</time></trkpt><trkpt lat="33.61777" lon="-7.4759383"><ele>66.0</ele><time>2026-04-27T10:52:44.033Z</time></trkpt><trkpt lat="33.6179117" lon="-7.475715"><ele>64.0</ele><time>2026-04-27T10:52:45.033Z</time></trkpt><trkpt lat="33.6180533" lon="-7.4754917"><ele>62.0</ele><time>2026-04-27T10:52:46.033Z</time></trkpt><trkpt lat="33.6181983" lon="-7.47527"><ele>62.0</ele><time>2026-04-27T10:52:47.033Z</time></trkpt><trkpt lat="33.61834" lon="-7.47506"><ele>62.0</ele><time>2026-04-27T10:52:48.033Z</time></trkpt><trkpt lat="33.618475" lon="-7.4748567"><ele>62.0</ele><time>2026-04-27T10:52:49.033Z</time></trkpt><trkpt lat="33.6186083" lon="-7.4746683"><ele>62.0</ele><time>2026-04-27T10:52:50.033Z</time></trkpt><trkpt lat="33.61874" lon="-7.474485"><ele>62.0</ele><time>2026-04-27T10:52:51.032Z</time></trkpt><trkpt lat="33.61887" lon="-7.4743033"><ele>62.0</ele><time>2026-04-27T10:52:52.033Z</time></trkpt><trkpt lat="33.619" lon="-7.4741183"><ele>62.0</ele><time>2026-04-27T10:52:53.033Z</time></trkpt><trkpt lat="33.6191267" lon="-7.47393"><ele>62.0</ele><time>2026-04-27T10:52:54.033Z</time></trkpt><trkpt lat="33.6192583" lon="-7.473755"><ele>62.0</ele><time>2026-04-27T10:52:55.033Z</time></trkpt><trkpt lat="33.61939" lon="-7.4735783"><ele>62.0</ele><time>2026-04-27T10:52:56.033Z</time></trkpt><trkpt lat="33.61952" lon="-7.47341"><ele>62.0</ele><time>2026-04-27T10:52:57.033Z</time></trkpt><trkpt lat="33.6196517" lon="-7.4732283"><ele>62.0</ele><time>2026-04-27T10:52:58.032Z</time></trkpt><trkpt lat="33.6197733" lon="-7.4730467"><ele>62.66666666666667</ele><time>2026-04-27T10:52:59.033Z</time></trkpt><trkpt lat="33.6199033" lon="-7.472855"><ele>63.33333333333333</ele><time>2026-04-27T10:53:00.033Z</time></trkpt><trkpt lat="33.6200433" lon="-7.472675"><ele>64.0</ele><time>2026-04-27T10:53:01.033Z</time></trkpt><trkpt lat="33.6201817" lon="-7.4725017"><ele>63.666666666666664</ele><time>2026-04-27T10:53:02.033Z</time></trkpt><trkpt lat="33.62032" lon="-7.4723117"><ele>63.33333333333333</ele><time>2026-04-27T10:53:03.033Z</time></trkpt><trkpt lat="33.6204567" lon="-7.4721317"><ele>63.0</ele><time>2026-04-27T10:53:04.033Z</time></trkpt><trkpt lat="33.6206" lon="-7.47195"><ele>63.0</ele><time>2026-04-27T10:53:05.032Z</time></trkpt><trkpt lat="33.6207383" lon="-7.4717683"><ele>63.0</ele><time>2026-04-27T10:53:06.033Z</time></trkpt><trkpt lat="33.62087" lon="-7.4715983"><ele>63.0</ele><time>2026-04-27T10:53:07.033Z</time></trkpt><trkpt lat="33.6209967" lon="-7.4714233"><ele>63.0</ele><time>2026-04-27T10:53:08.032Z</time></trkpt><trkpt lat="33.621125" lon="-7.4712433"><ele>63.0</ele><time>2026-04-27T10:53:09.033Z</time></trkpt><trkpt lat="33.621255" lon="-7.4710617"><ele>63.0</ele><time>2026-04-27T10:53:10.033Z</time></trkpt><trkpt lat="33.6213883" lon="-7.4708883"><ele>63.33333333333333</ele><time>2026-04-27T10:53:11.033Z</time></trkpt><trkpt lat="33.62152" lon="-7.470715"><ele>63.666666666666664</ele><time>2026-04-27T10:53:12.032Z</time></trkpt><trkpt lat="33.621645" lon="-7.4705483"><ele>64.0</ele><time>2026-04-27T10:53:13.033Z</time></trkpt><trkpt lat="33.621765" lon="-7.47038"><ele>63.33333333333333</ele><time>2026-04-27T10:53:14.033Z</time></trkpt><trkpt lat="33.621885" lon="-7.4702183"><ele>62.66666666666667</ele><time>2026-04-27T10:53:15.033Z</time></trkpt><trkpt lat="33.622" lon="-7.470055"><ele>62.0</ele><time>2026-04-27T10:53:16.033Z</time></trkpt><trkpt lat="33.622115" lon="-7.469895"><ele>62.333333333333336</ele><time>2026-04-27T10:53:17.032Z</time></trkpt><trkpt lat="33.6222367" lon="-7.4697267"><ele>62.66666666666667</ele><time>2026-04-27T10:53:18.033Z</time></trkpt><trkpt lat="33.6223533" lon="-7.4695683"><ele>63.0</ele><time>2026-04-27T10:53:19.033Z</time></trkpt><trkpt lat="33.6224717" lon="-7.4694083"><ele>63.0</ele><time>2026-04-27T10:53:20.033Z</time></trkpt><trkpt lat="33.6225867" lon="-7.46925"><ele>63.0</ele><time>2026-04-27T10:53:21.033Z</time></trkpt><trkpt lat="33.6227083" lon="-7.4690883"><ele>63.0</ele><time>2026-04-27T10:53:22.033Z</time></trkpt><trkpt lat="33.6228317" lon="-7.4689283"><ele>63.0</ele><time>2026-04-27T10:53:23.033Z</time></trkpt><trkpt lat="33.62295" lon="-7.4687683"><ele>63.0</ele><time>2026-04-27T10:53:24.033Z</time></trkpt><trkpt lat="33.623065" lon="-7.46861"><ele>63.0</ele><time>2026-04-27T10:53:25.033Z</time></trkpt><trkpt lat="33.623175" lon="-7.4684567"><ele>63.0</ele><time>2026-04-27T10:53:26.033Z</time></trkpt><trkpt lat="33.62329" lon="-7.468305"><ele>63.0</ele><time>2026-04-27T10:53:27.033Z</time></trkpt><trkpt lat="33.6234117" lon="-7.468155"><ele>63.0</ele><time>2026-04-27T10:53:28.033Z</time></trkpt><trkpt lat="33.6235317" lon="-7.4679967"><ele>63.66666666666667</ele><time>2026-04-27T10:53:29.033Z</time></trkpt><trkpt lat="33.62365" lon="-7.467835"><ele>64.33333333333334</ele><time>2026-04-27T10:53:30.033Z</time></trkpt><trkpt lat="33.623765" lon="-7.46767"><ele>65.0</ele><time>2026-04-27T10:53:31.033Z</time></trkpt><trkpt lat="33.62388" lon="-7.4675017"><ele>65.0</ele><time>2026-04-27T10:53:32.033Z</time></trkpt><trkpt lat="33.623995" lon="-7.467335"><ele>65.0</ele><time>2026-04-27T10:53:33.033Z</time></trkpt><trkpt lat="33.6241083" lon="-7.4671517"><ele>65.0</ele><time>2026-04-27T10:53:34.033Z</time></trkpt><trkpt lat="33.62422" lon="-7.4669767"><ele>64.66666666666667</ele><time>2026-04-27T10:53:35.033Z</time></trkpt><trkpt lat="33.6243317" lon="-7.4668017"><ele>64.33333333333333</ele><time>2026-04-27T10:53:36.033Z</time></trkpt><trkpt lat="33.624435" lon="-7.4666283"><ele>64.0</ele><time>2026-04-27T10:53:37.033Z</time></trkpt><trkpt lat="33.62454" lon="-7.466455"><ele>64.0</ele><time>2026-04-27T10:53:38.033Z</time></trkpt><trkpt lat="33.6246433" lon="-7.4662767"><ele>64.0</ele><time>2026-04-27T10:53:39.033Z</time></trkpt><trkpt lat="33.6247483" lon="-7.4661033"><ele>64.0</ele><time>2026-04-27T10:53:40.033Z</time></trkpt><trkpt lat="33.6248533" lon="-7.4659267"><ele>64.0</ele><time>2026-04-27T10:53:41.033Z</time></trkpt><trkpt lat="33.6249583" lon="-7.46574"><ele>64.0</ele><time>2026-04-27T10:53:42.033Z</time></trkpt><trkpt lat="33.6250583" lon="-7.4655483"><ele>64.0</ele><time>2026-04-27T10:53:43.033Z</time></trkpt><trkpt lat="33.62516" lon="-7.465355"><ele>63.666666666666664</ele><time>2026-04-27T10:53:44.033Z</time></trkpt><trkpt lat="33.62526" lon="-7.4651583"><ele>63.33333333333333</ele><time>2026-04-27T10:53:45.033Z</time></trkpt><trkpt lat="33.6253633" lon="-7.4649683"><ele>63.0</ele><time>2026-04-27T10:53:46.033Z</time></trkpt><trkpt lat="33.625465" lon="-7.4647617"><ele>63.0</ele><time>2026-04-27T10:53:47.033Z</time></trkpt><trkpt lat="33.625565" lon="-7.4645517"><ele>63.0</ele><time>2026-04-27T10:53:48.033Z</time></trkpt><trkpt lat="33.6256617" lon="-7.464345"><ele>63.0</ele><time>2026-04-27T10:53:49.033Z</time></trkpt><trkpt lat="33.6257617" lon="-7.4641283"><ele>63.0</ele><time>2026-04-27T10:53:50.033Z</time></trkpt><trkpt lat="33.62587" lon="-7.46391"><ele>63.0</ele><time>2026-04-27T10:53:51.033Z</time></trkpt><trkpt lat="33.6259783" lon="-7.4636883"><ele>63.0</ele><time>2026-04-27T10:53:52.033Z</time></trkpt><trkpt lat="33.6260817" lon="-7.463465"><ele>61.33333333333333</ele><time>2026-04-27T10:53:53.033Z</time></trkpt><trkpt lat="33.6261767" lon="-7.4632483"><ele>59.666666666666664</ele><time>2026-04-27T10:53:54.033Z</time></trkpt><trkpt lat="33.6262783" lon="-7.463025"><ele>58.0</ele><time>2026-04-27T10:53:55.032Z</time></trkpt><trkpt lat="33.6263833" lon="-7.462805"><ele>56.0</ele><time>2026-04-27T10:53:56.033Z</time></trkpt><trkpt lat="33.626485" lon="-7.46257"><ele>54.0</ele><time>2026-04-27T10:53:57.033Z</time></trkpt><trkpt lat="33.6265867" lon="-7.4623433"><ele>52.0</ele><time>2026-04-27T10:53:58.033Z</time></trkpt><trkpt lat="33.6266917" lon="-7.4621267"><ele>52.0</ele><time>2026-04-27T10:53:59.032Z</time></trkpt><trkpt lat="33.6267867" lon="-7.4619167"><ele>52.0</ele><time>2026-04-27T10:54:00.033Z</time></trkpt><trkpt lat="33.6268833" lon="-7.461705"><ele>52.0</ele><time>2026-04-27T10:54:01.033Z</time></trkpt><trkpt lat="33.626985" lon="-7.4614917"><ele>51.33333333333333</ele><time>2026-04-27T10:54:02.032Z</time></trkpt><trkpt lat="33.6270867" lon="-7.4612783"><ele>50.66666666666667</ele><time>2026-04-27T10:54:03.032Z</time></trkpt><trkpt lat="33.6271883" lon="-7.4610717"><ele>50.0</ele><time>2026-04-27T10:54:04.032Z</time></trkpt><trkpt lat="33.6272917" lon="-7.460855"><ele>50.0</ele><time>2026-04-27T10:54:05.033Z</time></trkpt><trkpt lat="33.6273933" lon="-7.4606417"><ele>50.0</ele><time>2026-04-27T10:54:06.032Z</time></trkpt><trkpt lat="33.6274967" lon="-7.4604317"><ele>50.0</ele><time>2026-04-27T10:54:07.032Z</time></trkpt><trkpt lat="33.627595" lon="-7.4602167"><ele>49.66666666666667</ele><time>2026-04-27T10:54:08.033Z</time></trkpt><trkpt lat="33.6276967" lon="-7.4599967"><ele>49.33333333333333</ele><time>2026-04-27T10:54:09.033Z</time></trkpt><trkpt lat="33.6278017" lon="-7.4597767"><ele>49.0</ele><time>2026-04-27T10:54:10.033Z</time></trkpt><trkpt lat="33.6279033" lon="-7.45956"><ele>46.33333333333333</ele><time>2026-04-27T10:54:11.033Z</time></trkpt><trkpt lat="33.628005" lon="-7.4593333"><ele>43.666666666666664</ele><time>2026-04-27T10:54:12.033Z</time></trkpt><trkpt lat="33.6281083" lon="-7.4591067"><ele>41.0</ele><time>2026-04-27T10:54:13.033Z</time></trkpt><trkpt lat="33.628215" lon="-7.458885"><ele>40.666666666666664</ele><time>2026-04-27T10:54:14.033Z</time></trkpt><trkpt lat="33.6283217" lon="-7.4586733"><ele>40.333333333333336</ele><time>2026-04-27T10:54:15.033Z</time></trkpt><trkpt lat="33.628415" lon="-7.4584567"><ele>40.0</ele><time>2026-04-27T10:54:16.033Z</time></trkpt><trkpt lat="33.6285117" lon="-7.4582433"><ele>40.0</ele><time>2026-04-27T10:54:17.033Z</time></trkpt><trkpt lat="33.6286083" lon="-7.4580283"><ele>40.0</ele><time>2026-04-27T10:54:18.032Z</time></trkpt><trkpt lat="33.6287017" lon="-7.4578183"><ele>40.0</ele><time>2026-04-27T10:54:19.033Z</time></trkpt><trkpt lat="33.6287967" lon="-7.457615"><ele>40.333333333333336</ele><time>2026-04-27T10:54:20.033Z</time></trkpt><trkpt lat="33.6288917" lon="-7.4574083"><ele>40.666666666666664</ele><time>2026-04-27T10:54:21.033Z</time></trkpt><trkpt lat="33.6289883" lon="-7.4572067"><ele>41.0</ele><time>2026-04-27T10:54:22.033Z</time></trkpt><trkpt lat="33.6290817" lon="-7.457005"><ele>41.33333333333333</ele><time>2026-04-27T10:54:23.032Z</time></trkpt><trkpt lat="33.6291733" lon="-7.4568067"><ele>41.666666666666664</ele><time>2026-04-27T10:54:24.033Z</time></trkpt><trkpt lat="33.6292667" lon="-7.4566067"><ele>42.0</ele><time>2026-04-27T10:54:25.033Z</time></trkpt><trkpt lat="33.62936" lon="-7.45641"><ele>42.333333333333336</ele><time>2026-04-27T10:54:26.033Z</time></trkpt><trkpt lat="33.6294533" lon="-7.45621"><ele>42.66666666666667</ele><time>2026-04-27T10:54:27.033Z</time></trkpt><trkpt lat="33.6295517" lon="-7.4560067"><ele>43.0</ele><time>2026-04-27T10:54:28.033Z</time></trkpt><trkpt lat="33.6296483" lon="-7.4558"><ele>42.333333333333336</ele><time>2026-04-27T10:54:29.033Z</time></trkpt><trkpt lat="33.6297433" lon="-7.455595"><ele>41.666666666666664</ele><time>2026-04-27T10:54:30.033Z</time></trkpt><trkpt lat="33.6298367" lon="-7.45539"><ele>41.0</ele><time>2026-04-27T10:54:31.033Z</time></trkpt><trkpt lat="33.6299417" lon="-7.4551833"><ele>41.0</ele><time>2026-04-27T10:54:32.033Z</time></trkpt><trkpt lat="33.6300467" lon="-7.4549817"><ele>41.0</ele><time>2026-04-27T10:54:33.033Z</time></trkpt><trkpt lat="33.6301567" lon="-7.4547783"><ele>41.0</ele><time>2026-04-27T10:54:34.033Z</time></trkpt><trkpt lat="33.63026" lon="-7.4545733"><ele>40.0</ele><time>2026-04-27T10:54:35.033Z</time></trkpt><trkpt lat="33.6303667" lon="-7.4543683"><ele>39.0</ele><time>2026-04-27T10:54:36.033Z</time></trkpt><trkpt lat="33.630475" lon="-7.4541583"><ele>38.0</ele><time>2026-04-27T10:54:37.033Z</time></trkpt><trkpt lat="33.6305833" lon="-7.4539517"><ele>37.33333333333333</ele><time>2026-04-27T10:54:38.033Z</time></trkpt><trkpt lat="33.630695" lon="-7.4537467"><ele>36.666666666666664</ele><time>2026-04-27T10:54:39.033Z</time></trkpt><trkpt lat="33.630805" lon="-7.453545"><ele>36.0</ele><time>2026-04-27T10:54:40.033Z</time></trkpt><trkpt lat="33.6309167" lon="-7.453335"><ele>36.0</ele><time>2026-04-27T10:54:41.033Z</time></trkpt><trkpt lat="33.6310283" lon="-7.4531233"><ele>36.0</ele><time>2026-04-27T10:54:42.032Z</time></trkpt><trkpt lat="33.6311417" lon="-7.4529167"><ele>36.0</ele><time>2026-04-27T10:54:43.032Z</time></trkpt><trkpt lat="33.6312567" lon="-7.4527117"><ele>36.333333333333336</ele><time>2026-04-27T10:54:44.032Z</time></trkpt><trkpt lat="33.6313667" lon="-7.4525033"><ele>36.66666666666667</ele><time>2026-04-27T10:54:45.032Z</time></trkpt><trkpt lat="33.63148" lon="-7.452295"><ele>37.0</ele><time>2026-04-27T10:54:46.033Z</time></trkpt><trkpt lat="33.6316017" lon="-7.452085"><ele>37.0</ele><time>2026-04-27T10:54:47.033Z</time></trkpt><trkpt lat="33.631715" lon="-7.451875"><ele>37.0</ele><time>2026-04-27T10:54:48.033Z</time></trkpt><trkpt lat="33.631825" lon="-7.4516617"><ele>37.0</ele><time>2026-04-27T10:54:49.033Z</time></trkpt><trkpt lat="33.6319417" lon="-7.4514517"><ele>36.333333333333336</ele><time>2026-04-27T10:54:50.033Z</time></trkpt><trkpt lat="33.632055" lon="-7.4512483"><ele>35.666666666666664</ele><time>2026-04-27T10:54:51.033Z</time></trkpt><trkpt lat="33.632165" lon="-7.4510467"><ele>35.0</ele><time>2026-04-27T10:54:52.033Z</time></trkpt><trkpt lat="33.632275" lon="-7.4508467"><ele>35.0</ele><time>2026-04-27T10:54:53.032Z</time></trkpt><trkpt lat="33.63239" lon="-7.45065"><ele>35.0</ele><time>2026-04-27T10:54:54.032Z</time></trkpt><trkpt lat="33.6325" lon="-7.4504533"><ele>35.0</ele><time>2026-04-27T10:54:55.033Z</time></trkpt><trkpt lat="33.6326117" lon="-7.4502567"><ele>35.33333333333333</ele><time>2026-04-27T10:54:56.033Z</time></trkpt><trkpt lat="33.6327167" lon="-7.4500533"><ele>35.666666666666664</ele><time>2026-04-27T10:54:57.033Z</time></trkpt><trkpt lat="33.632825" lon="-7.4498567"><ele>36.0</ele><time>2026-04-27T10:54:58.033Z</time></trkpt><trkpt lat="33.6329383" lon="-7.4496583"><ele>36.0</ele><time>2026-04-27T10:54:59.032Z</time></trkpt><trkpt lat="33.633045" lon="-7.44946"><ele>36.0</ele><time>2026-04-27T10:55:00.032Z</time></trkpt><trkpt lat="33.63315" lon="-7.4492633"><ele>36.0</ele><time>2026-04-27T10:55:01.033Z</time></trkpt><trkpt lat="33.6332617" lon="-7.4490683"><ele>36.0</ele><time>2026-04-27T10:55:02.032Z</time></trkpt><trkpt lat="33.6333733" lon="-7.4488683"><ele>36.0</ele><time>2026-04-27T10:55:03.033Z</time></trkpt><trkpt lat="33.633485" lon="-7.4486717"><ele>36.0</ele><time>2026-04-27T10:55:04.032Z</time></trkpt><trkpt lat="33.633595" lon="-7.448475"><ele>35.0</ele><time>2026-04-27T10:55:05.033Z</time></trkpt><trkpt lat="33.6337017" lon="-7.4482817"><ele>34.0</ele><time>2026-04-27T10:55:06.032Z</time></trkpt><trkpt lat="33.6338083" lon="-7.4480817"><ele>33.0</ele><time>2026-04-27T10:55:07.033Z</time></trkpt><trkpt lat="33.6339167" lon="-7.4478817"><ele>33.0</ele><time>2026-04-27T10:55:08.033Z</time></trkpt><trkpt lat="33.6340267" lon="-7.44768"><ele>33.0</ele><time>2026-04-27T10:55:09.033Z</time></trkpt><trkpt lat="33.6341333" lon="-7.4474783"><ele>33.0</ele><time>2026-04-27T10:55:10.033Z</time></trkpt><trkpt lat="33.63424" lon="-7.44728"><ele>33.0</ele><time>2026-04-27T10:55:11.033Z</time></trkpt><trkpt lat="33.6343483" lon="-7.4470817"><ele>33.0</ele><time>2026-04-27T10:55:12.033Z</time></trkpt><trkpt lat="33.6344583" lon="-7.44689"><ele>33.0</ele><time>2026-04-27T10:55:13.033Z</time></trkpt><trkpt lat="33.6345667" lon="-7.44669"><ele>33.0</ele><time>2026-04-27T10:55:14.033Z</time></trkpt><trkpt lat="33.634675" lon="-7.446495"><ele>33.0</ele><time>2026-04-27T10:55:15.033Z</time></trkpt><trkpt lat="33.634785" lon="-7.4462967"><ele>33.0</ele><time>2026-04-27T10:55:16.033Z</time></trkpt><trkpt lat="33.6348967" lon="-7.4461"><ele>33.333333333333336</ele><time>2026-04-27T10:55:17.032Z</time></trkpt><trkpt lat="33.6350083" lon="-7.4459017"><ele>33.66666666666667</ele><time>2026-04-27T10:55:18.033Z</time></trkpt><trkpt lat="33.6351183" lon="-7.4457"><ele>34.0</ele><time>2026-04-27T10:55:19.033Z</time></trkpt><trkpt lat="33.6352283" lon="-7.4454983"><ele>33.66666666666667</ele><time>2026-04-27T10:55:20.033Z</time></trkpt><trkpt lat="33.6353367" lon="-7.4452967"><ele>33.333333333333336</ele><time>2026-04-27T10:55:21.032Z</time></trkpt><trkpt lat="33.6354433" lon="-7.445105"><ele>33.0</ele><time>2026-04-27T10:55:22.033Z</time></trkpt><trkpt lat="33.6355583" lon="-7.44491"><ele>33.0</ele><time>2026-04-27T10:55:23.033Z</time></trkpt><trkpt lat="33.635665" lon="-7.44472"><ele>33.0</ele><time>2026-04-27T10:55:24.033Z</time></trkpt><trkpt lat="33.6357733" lon="-7.4445167"><ele>33.0</ele><time>2026-04-27T10:55:25.033Z</time></trkpt><trkpt lat="33.635885" lon="-7.4443183"><ele>32.666666666666664</ele><time>2026-04-27T10:55:26.033Z</time></trkpt><trkpt lat="33.6359933" lon="-7.4441167"><ele>32.33333333333333</ele><time>2026-04-27T10:55:27.033Z</time></trkpt><trkpt lat="33.6361033" lon="-7.4439217"><ele>32.0</ele><time>2026-04-27T10:55:28.033Z</time></trkpt><trkpt lat="33.636215" lon="-7.4437217"><ele>32.666666666666664</ele><time>2026-04-27T10:55:29.033Z</time></trkpt><trkpt lat="33.636325" lon="-7.4435267"><ele>33.333333333333336</ele><time>2026-04-27T10:55:30.033Z</time></trkpt><trkpt lat="33.6364367" lon="-7.4433317"><ele>34.0</ele><time>2026-04-27T10:55:31.032Z</time></trkpt><trkpt lat="33.6365467" lon="-7.4431317"><ele>34.0</ele><time>2026-04-27T10:55:32.033Z</time></trkpt><trkpt lat="33.636655" lon="-7.4429333"><ele>34.0</ele><time>2026-04-27T10:55:33.033Z</time></trkpt><trkpt lat="33.63676" lon="-7.44274"><ele>34.0</ele><time>2026-04-27T10:55:34.033Z</time></trkpt><trkpt lat="33.6368667" lon="-7.4425367"><ele>33.333333333333336</ele><time>2026-04-27T10:55:35.033Z</time></trkpt><trkpt lat="33.6369717" lon="-7.4423383"><ele>32.666666666666664</ele><time>2026-04-27T10:55:36.033Z</time></trkpt><trkpt lat="33.6370767" lon="-7.4421383"><ele>32.0</ele><time>2026-04-27T10:55:37.033Z</time></trkpt><trkpt lat="33.63718" lon="-7.4419367"><ele>32.0</ele><time>2026-04-27T10:55:38.032Z</time></trkpt><trkpt lat="33.6372817" lon="-7.44173"><ele>32.0</ele><time>2026-04-27T10:55:39.032Z</time></trkpt><trkpt lat="33.637385" lon="-7.4415267"><ele>32.0</ele><time>2026-04-27T10:55:40.032Z</time></trkpt><trkpt lat="33.6374833" lon="-7.441325"><ele>32.0</ele><time>2026-04-27T10:55:41.032Z</time></trkpt><trkpt lat="33.6375867" lon="-7.4411183"><ele>32.0</ele><time>2026-04-27T10:55:42.032Z</time></trkpt><trkpt lat="33.6376917" lon="-7.44091"><ele>32.0</ele><time>2026-04-27T10:55:43.032Z</time></trkpt><trkpt lat="33.6377983" lon="-7.4407017"><ele>32.666666666666664</ele><time>2026-04-27T10:55:44.032Z</time></trkpt><trkpt lat="33.6379117" lon="-7.4404933"><ele>33.333333333333336</ele><time>2026-04-27T10:55:45.032Z</time></trkpt><trkpt lat="33.63802" lon="-7.4402767"><ele>34.0</ele><time>2026-04-27T10:55:46.032Z</time></trkpt><trkpt lat="33.6381283" lon="-7.440055"><ele>34.0</ele><time>2026-04-27T10:55:47.032Z</time></trkpt><trkpt lat="33.6382283" lon="-7.4398283"><ele>34.0</ele><time>2026-04-27T10:55:48.032Z</time></trkpt><trkpt lat="33.63833" lon="-7.4396033"><ele>34.0</ele><time>2026-04-27T10:55:49.032Z</time></trkpt><trkpt lat="33.6384367" lon="-7.4393833"><ele>33.66666666666667</ele><time>2026-04-27T10:55:50.032Z</time></trkpt><trkpt lat="33.63854" lon="-7.43916"><ele>33.333333333333336</ele><time>2026-04-27T10:55:51.031Z</time></trkpt><trkpt lat="33.63864" lon="-7.4389283"><ele>33.0</ele><time>2026-04-27T10:55:52.032Z</time></trkpt><trkpt lat="33.6387483" lon="-7.4386983"><ele>32.666666666666664</ele><time>2026-04-27T10:55:53.032Z</time></trkpt><trkpt lat="33.638855" lon="-7.43848"><ele>32.33333333333333</ele><time>2026-04-27T10:55:54.032Z</time></trkpt><trkpt lat="33.6389617" lon="-7.438255"><ele>32.0</ele><time>2026-04-27T10:55:55.032Z</time></trkpt><trkpt lat="33.639065" lon="-7.4380317"><ele>32.0</ele><time>2026-04-27T10:55:56.032Z</time></trkpt><trkpt lat="33.63917" lon="-7.4378083"><ele>32.0</ele><time>2026-04-27T10:55:57.032Z</time></trkpt><trkpt lat="33.6392767" lon="-7.4375833"><ele>32.0</ele><time>2026-04-27T10:55:58.032Z</time></trkpt><trkpt lat="33.6393867" lon="-7.4373633"><ele>32.666666666666664</ele><time>2026-04-27T10:55:59.032Z</time></trkpt><trkpt lat="33.6394933" lon="-7.43714"><ele>33.333333333333336</ele><time>2026-04-27T10:56:00.032Z</time></trkpt><trkpt lat="33.6396017" lon="-7.4369217"><ele>34.0</ele><time>2026-04-27T10:56:01.032Z</time></trkpt><trkpt lat="33.639705" lon="-7.4366933"><ele>34.0</ele><time>2026-04-27T10:56:02.032Z</time></trkpt><trkpt lat="33.63981" lon="-7.4364667"><ele>34.0</ele><time>2026-04-27T10:56:03.032Z</time></trkpt><trkpt lat="33.6399133" lon="-7.4362417"><ele>34.0</ele><time>2026-04-27T10:56:04.032Z</time></trkpt><trkpt lat="33.640015" lon="-7.4360133"><ele>33.66666666666667</ele><time>2026-04-27T10:56:05.032Z</time></trkpt><trkpt lat="33.6401217" lon="-7.4357883"><ele>33.333333333333336</ele><time>2026-04-27T10:56:06.032Z</time></trkpt><trkpt lat="33.6402267" lon="-7.4355667"><ele>33.0</ele><time>2026-04-27T10:56:07.032Z</time></trkpt><trkpt lat="33.6403367" lon="-7.4353483"><ele>33.0</ele><time>2026-04-27T10:56:08.032Z</time></trkpt><trkpt lat="33.6404417" lon="-7.4351283"><ele>33.0</ele><time>2026-04-27T10:56:09.032Z</time></trkpt><trkpt lat="33.6405517" lon="-7.4349067"><ele>33.0</ele><time>2026-04-27T10:56:10.032Z</time></trkpt><trkpt lat="33.640655" lon="-7.4346917"><ele>33.333333333333336</ele><time>2026-04-27T10:56:11.032Z</time></trkpt><trkpt lat="33.64075" lon="-7.4344883"><ele>33.66666666666667</ele><time>2026-04-27T10:56:12.032Z</time></trkpt><trkpt lat="33.6408533" lon="-7.4342883"><ele>34.0</ele><time>2026-04-27T10:56:13.032Z</time></trkpt><trkpt lat="33.6409283" lon="-7.4341083"><ele>34.0</ele><time>2026-04-27T10:56:14.032Z</time></trkpt><trkpt lat="33.6409967" lon="-7.43394"><ele>34.0</ele><time>2026-04-27T10:56:15.032Z</time></trkpt><trkpt lat="33.6410633" lon="-7.4337983"><ele>34.0</ele><time>2026-04-27T10:56:16.032Z</time></trkpt><trkpt lat="33.6411183" lon="-7.4336683"><ele>34.0</ele><time>2026-04-27T10:56:17.032Z</time></trkpt><trkpt lat="33.6411633" lon="-7.4335583"><ele>34.0</ele><time>2026-04-27T10:56:18.031Z</time></trkpt><trkpt lat="33.6411983" lon="-7.433475"><ele>34.0</ele><time>2026-04-27T10:56:19.032Z</time></trkpt><trkpt lat="33.6412467" lon="-7.43337"><ele>34.0</ele><time>2026-04-27T10:56:21.032Z</time></trkpt><trkpt lat="33.6412883" lon="-7.43329"><ele>34.0</ele><time>2026-04-27T10:56:24.032Z</time></trkpt><trkpt lat="33.6413583" lon="-7.4332067"><ele>34.0</ele><time>2026-04-27T10:58:40.032Z</time></trkpt><trkpt lat="33.6414083" lon="-7.4331383"><ele>34.0</ele><time>2026-04-27T10:58:41.032Z</time></trkpt><trkpt lat="33.64147" lon="-7.4330317"><ele>34.0</ele><time>2026-04-27T10:58:42.032Z</time></trkpt><trkpt lat="33.6415533" lon="-7.4328833"><ele>34.0</ele><time>2026-04-27T10:58:43.032Z</time></trkpt><trkpt lat="33.6416617" lon="-7.4327083"><ele>34.0</ele><time>2026-04-27T10:58:44.032Z</time></trkpt><trkpt lat="33.6417917" lon="-7.4324833"><ele>34.0</ele><time>2026-04-27T10:58:45.032Z</time></trkpt><trkpt lat="33.6419533" lon="-7.432205"><ele>34.0</ele><time>2026-04-27T10:58:46.032Z</time></trkpt><trkpt lat="33.6421217" lon="-7.4319267"><ele>33.5</ele><time>2026-04-27T10:58:47.032Z</time></trkpt><trkpt lat="33.6422767" lon="-7.4316783"><ele>33.0</ele><time>2026-04-27T10:58:48.032Z</time></trkpt><trkpt lat="33.64241" lon="-7.431445"><ele>34.0</ele><time>2026-04-27T10:58:49.032Z</time></trkpt><trkpt lat="33.64254" lon="-7.43123"><ele>35.0</ele><time>2026-04-27T10:58:50.032Z</time></trkpt><trkpt lat="33.64267" lon="-7.4310017"><ele>34.5</ele><time>2026-04-27T10:58:51.032Z</time></trkpt><trkpt lat="33.6428117" lon="-7.4307583"><ele>34.0</ele><time>2026-04-27T10:58:52.032Z</time></trkpt><trkpt lat="33.6429583" lon="-7.4305283"><ele>34.0</ele><time>2026-04-27T10:58:53.032Z</time></trkpt><trkpt lat="33.6430917" lon="-7.4302833"><ele>34.0</ele><time>2026-04-27T10:58:54.032Z</time></trkpt><trkpt lat="33.64322" lon="-7.4300533"><ele>34.0</ele><time>2026-04-27T10:58:55.032Z</time></trkpt><trkpt lat="33.6433483" lon="-7.429835"><ele>34.0</ele><time>2026-04-27T10:58:56.032Z</time></trkpt><trkpt lat="33.64348" lon="-7.4296117"><ele>33.66666666666667</ele><time>2026-04-27T10:58:57.032Z</time></trkpt><trkpt lat="33.6435967" lon="-7.4293867"><ele>33.333333333333336</ele><time>2026-04-27T10:58:58.032Z</time></trkpt><trkpt lat="33.6437267" lon="-7.4291617"><ele>33.0</ele><time>2026-04-27T10:58:59.032Z</time></trkpt><trkpt lat="33.6438567" lon="-7.4289417"><ele>34.333333333333336</ele><time>2026-04-27T10:59:00.032Z</time></trkpt><trkpt lat="33.6439883" lon="-7.4287217"><ele>35.66666666666667</ele><time>2026-04-27T10:59:01.032Z</time></trkpt><trkpt lat="33.6441167" lon="-7.4285067"><ele>37.0</ele><time>2026-04-27T10:59:02.032Z</time></trkpt><trkpt lat="33.6442517" lon="-7.428275"><ele>37.0</ele><time>2026-04-27T10:59:03.032Z</time></trkpt><trkpt lat="33.6443883" lon="-7.428035"><ele>37.0</ele><time>2026-04-27T10:59:04.032Z</time></trkpt><trkpt lat="33.6445383" lon="-7.4277833"><ele>36.0</ele><time>2026-04-27T10:59:05.032Z</time></trkpt><trkpt lat="33.644695" lon="-7.4275183"><ele>35.0</ele><time>2026-04-27T10:59:06.032Z</time></trkpt><trkpt lat="33.6448567" lon="-7.4272433"><ele>35.5</ele><time>2026-04-27T10:59:07.032Z</time></trkpt><trkpt lat="33.6450283" lon="-7.42696"><ele>36.0</ele><time>2026-04-27T10:59:08.032Z</time></trkpt><trkpt lat="33.6451883" lon="-7.4266783"><ele>36.5</ele><time>2026-04-27T10:59:09.032Z</time></trkpt><trkpt lat="33.6453433" lon="-7.4264117"><ele>37.0</ele><time>2026-04-27T10:59:10.032Z</time></trkpt><trkpt lat="33.6454883" lon="-7.42615"><ele>37.5</ele><time>2026-04-27T10:59:11.032Z</time></trkpt><trkpt lat="33.6456417" lon="-7.42589"><ele>38.0</ele><time>2026-04-27T10:59:12.032Z</time></trkpt><trkpt lat="33.6457833" lon="-7.4256333"><ele>38.0</ele><time>2026-04-27T10:59:13.032Z</time></trkpt><trkpt lat="33.6459317" lon="-7.4253833"><ele>38.0</ele><time>2026-04-27T10:59:14.032Z</time></trkpt><trkpt lat="33.646075" lon="-7.425135"><ele>38.0</ele><time>2026-04-27T10:59:15.032Z</time></trkpt><trkpt lat="33.6462117" lon="-7.4249017"><ele>38.0</ele><time>2026-04-27T10:59:16.032Z</time></trkpt><trkpt lat="33.6463417" lon="-7.4246683"><ele>39.0</ele><time>2026-04-27T10:59:17.032Z</time></trkpt><trkpt lat="33.6464767" lon="-7.4244333"><ele>40.0</ele><time>2026-04-27T10:59:18.032Z</time></trkpt><trkpt lat="33.6466183" lon="-7.4241883"><ele>40.0</ele><time>2026-04-27T10:59:19.032Z</time></trkpt><trkpt lat="33.64676" lon="-7.4239383"><ele>40.0</ele><time>2026-04-27T10:59:20.032Z</time></trkpt><trkpt lat="33.6469067" lon="-7.4236833"><ele>38.5</ele><time>2026-04-27T10:59:21.032Z</time></trkpt><trkpt lat="33.6470517" lon="-7.42342"><ele>37.0</ele><time>2026-04-27T10:59:22.032Z</time></trkpt><trkpt lat="33.647195" lon="-7.423145"><ele>38.5</ele><time>2026-04-27T10:59:23.032Z</time></trkpt><trkpt lat="33.647345" lon="-7.422875"><ele>40.0</ele><time>2026-04-27T10:59:24.032Z</time></trkpt><trkpt lat="33.647485" lon="-7.422585"><ele>40.0</ele><time>2026-04-27T10:59:25.032Z</time></trkpt><trkpt lat="33.6476333" lon="-7.4222883"><ele>40.0</ele><time>2026-04-27T10:59:26.032Z</time></trkpt><trkpt lat="33.6477683" lon="-7.4219767"><ele>39.5</ele><time>2026-04-27T10:59:27.032Z</time></trkpt><trkpt lat="33.6478883" lon="-7.4216583"><ele>39.0</ele><time>2026-04-27T10:59:28.032Z</time></trkpt><trkpt lat="33.6479883" lon="-7.4213383"><ele>39.5</ele><time>2026-04-27T10:59:29.032Z</time></trkpt><trkpt lat="33.648075" lon="-7.4210133"><ele>40.0</ele><time>2026-04-27T10:59:30.032Z</time></trkpt><trkpt lat="33.648155" lon="-7.420685"><ele>40.5</ele><time>2026-04-27T10:59:31.032Z</time></trkpt><trkpt lat="33.6482283" lon="-7.4203733"><ele>41.0</ele><time>2026-04-27T10:59:32.032Z</time></trkpt><trkpt lat="33.6483083" lon="-7.42007"><ele>41.0</ele><time>2026-04-27T10:59:33.032Z</time></trkpt><trkpt lat="33.6484017" lon="-7.4197717"><ele>41.0</ele><time>2026-04-27T10:59:34.032Z</time></trkpt><trkpt lat="33.6485" lon="-7.419475"><ele>40.5</ele><time>2026-04-27T10:59:35.032Z</time></trkpt><trkpt lat="33.648625" lon="-7.4191817"><ele>40.0</ele><time>2026-04-27T10:59:36.032Z</time></trkpt><trkpt lat="33.6487417" lon="-7.4189283"><ele>41.5</ele><time>2026-04-27T10:59:37.032Z</time></trkpt><trkpt lat="33.648865" lon="-7.4186733"><ele>43.0</ele><time>2026-04-27T10:59:38.032Z</time></trkpt><trkpt lat="33.6490083" lon="-7.41843"><ele>43.0</ele><time>2026-04-27T10:59:39.032Z</time></trkpt><trkpt lat="33.64917" lon="-7.418195"><ele>43.0</ele><time>2026-04-27T10:59:40.032Z</time></trkpt><trkpt lat="33.649345" lon="-7.4179617"><ele>42.0</ele><time>2026-04-27T10:59:41.032Z</time></trkpt><trkpt lat="33.6495367" lon="-7.4177383"><ele>41.0</ele><time>2026-04-27T10:59:42.032Z</time></trkpt><trkpt lat="33.6497383" lon="-7.41752"><ele>41.0</ele><time>2026-04-27T10:59:43.032Z</time></trkpt><trkpt lat="33.649945" lon="-7.4173133"><ele>41.0</ele><time>2026-04-27T10:59:44.032Z</time></trkpt><trkpt lat="33.6501483" lon="-7.4171133"><ele>40.5</ele><time>2026-04-27T10:59:45.032Z</time></trkpt><trkpt lat="33.6503517" lon="-7.4169217"><ele>40.0</ele><time>2026-04-27T10:59:46.032Z</time></trkpt><trkpt lat="33.65055" lon="-7.416735"><ele>40.0</ele><time>2026-04-27T10:59:47.032Z</time></trkpt><trkpt lat="33.65074" lon="-7.4165583"><ele>40.0</ele><time>2026-04-27T10:59:48.032Z</time></trkpt><trkpt lat="33.6509267" lon="-7.41637"><ele>41.0</ele><time>2026-04-27T10:59:49.032Z</time></trkpt><trkpt lat="33.65112" lon="-7.4161783"><ele>42.0</ele><time>2026-04-27T10:59:50.032Z</time></trkpt><trkpt lat="33.6513167" lon="-7.4159833"><ele>42.0</ele><time>2026-04-27T10:59:51.032Z</time></trkpt><trkpt lat="33.6515133" lon="-7.4157833"><ele>42.0</ele><time>2026-04-27T10:59:52.032Z</time></trkpt><trkpt lat="33.6517067" lon="-7.4155717"><ele>42.0</ele><time>2026-04-27T10:59:53.032Z</time></trkpt><trkpt lat="33.6518933" lon="-7.41537"><ele>42.0</ele><time>2026-04-27T10:59:54.032Z</time></trkpt><trkpt lat="33.65207" lon="-7.4151783"><ele>41.5</ele><time>2026-04-27T10:59:55.032Z</time></trkpt><trkpt lat="33.652245" lon="-7.4149867"><ele>41.0</ele><time>2026-04-27T10:59:56.031Z</time></trkpt><trkpt lat="33.6524233" lon="-7.4147983"><ele>42.0</ele><time>2026-04-27T10:59:57.032Z</time></trkpt><trkpt lat="33.6525983" lon="-7.414605"><ele>43.0</ele><time>2026-04-27T10:59:58.031Z</time></trkpt><trkpt lat="33.6527733" lon="-7.41442"><ele>42.0</ele><time>2026-04-27T10:59:59.032Z</time></trkpt><trkpt lat="33.6529433" lon="-7.4142367"><ele>41.0</ele><time>2026-04-27T11:00:00.032Z</time></trkpt><trkpt lat="33.653115" lon="-7.4140467"><ele>41.0</ele><time>2026-04-27T11:00:01.032Z</time></trkpt><trkpt lat="33.6532833" lon="-7.413855"><ele>41.0</ele><time>2026-04-27T11:00:02.032Z</time></trkpt><trkpt lat="33.6534533" lon="-7.41367"><ele>41.0</ele><time>2026-04-27T11:00:03.032Z</time></trkpt><trkpt lat="33.6536183" lon="-7.413495"><ele>41.0</ele><time>2026-04-27T11:00:04.032Z</time></trkpt><trkpt lat="33.6537817" lon="-7.4133233"><ele>41.0</ele><time>2026-04-27T11:00:05.032Z</time></trkpt><trkpt lat="33.6539383" lon="-7.4131433"><ele>41.666666666666664</ele><time>2026-04-27T11:00:06.032Z</time></trkpt><trkpt lat="33.654095" lon="-7.4129683"><ele>42.333333333333336</ele><time>2026-04-27T11:00:07.032Z</time></trkpt><trkpt lat="33.6542483" lon="-7.4127967"><ele>43.0</ele><time>2026-04-27T11:00:08.032Z</time></trkpt><trkpt lat="33.654405" lon="-7.4126183"><ele>43.0</ele><time>2026-04-27T11:00:09.032Z</time></trkpt><trkpt lat="33.6545667" lon="-7.4124417"><ele>43.0</ele><time>2026-04-27T11:00:10.032Z</time></trkpt><trkpt lat="33.6547333" lon="-7.41226"><ele>43.0</ele><time>2026-04-27T11:00:11.032Z</time></trkpt><trkpt lat="33.6548983" lon="-7.41208"><ele>43.0</ele><time>2026-04-27T11:00:12.032Z</time></trkpt><trkpt lat="33.6550567" lon="-7.4119033"><ele>43.0</ele><time>2026-04-27T11:00:13.032Z</time></trkpt><trkpt lat="33.6552117" lon="-7.4117383"><ele>43.0</ele><time>2026-04-27T11:00:14.032Z</time></trkpt><trkpt lat="33.6553633" lon="-7.4115717"><ele>42.66666666666667</ele><time>2026-04-27T11:00:15.032Z</time></trkpt><trkpt lat="33.6555183" lon="-7.4113967"><ele>42.333333333333336</ele><time>2026-04-27T11:00:16.032Z</time></trkpt><trkpt lat="33.655675" lon="-7.41122"><ele>42.0</ele><time>2026-04-27T11:00:17.032Z</time></trkpt><trkpt lat="33.6558233" lon="-7.4110533"><ele>42.0</ele><time>2026-04-27T11:00:18.032Z</time></trkpt><trkpt lat="33.655975" lon="-7.4108933"><ele>42.0</ele><time>2026-04-27T11:00:19.032Z</time></trkpt><trkpt lat="33.656125" lon="-7.41073"><ele>42.0</ele><time>2026-04-27T11:00:20.032Z</time></trkpt><trkpt lat="33.6562783" lon="-7.4105717"><ele>41.666666666666664</ele><time>2026-04-27T11:00:21.032Z</time></trkpt><trkpt lat="33.65643" lon="-7.4104067"><ele>41.33333333333333</ele><time>2026-04-27T11:00:22.032Z</time></trkpt><trkpt lat="33.6565833" lon="-7.41025"><ele>41.0</ele><time>2026-04-27T11:00:23.032Z</time></trkpt><trkpt lat="33.6567367" lon="-7.4100817"><ele>41.0</ele><time>2026-04-27T11:00:24.032Z</time></trkpt><trkpt lat="33.6568967" lon="-7.4099183"><ele>41.0</ele><time>2026-04-27T11:00:25.032Z</time></trkpt><trkpt lat="33.657045" lon="-7.4097583"><ele>41.0</ele><time>2026-04-27T11:00:26.032Z</time></trkpt><trkpt lat="33.6571933" lon="-7.4095883"><ele>41.0</ele><time>2026-04-27T11:00:27.032Z</time></trkpt><trkpt lat="33.6573467" lon="-7.4094233"><ele>41.0</ele><time>2026-04-27T11:00:28.031Z</time></trkpt><trkpt lat="33.657505" lon="-7.4092517"><ele>41.0</ele><time>2026-04-27T11:00:29.032Z</time></trkpt><trkpt lat="33.657665" lon="-7.409065"><ele>40.5</ele><time>2026-04-27T11:00:30.032Z</time></trkpt><trkpt lat="33.6578433" lon="-7.40887"><ele>40.0</ele><time>2026-04-27T11:00:31.032Z</time></trkpt><trkpt lat="33.658015" lon="-7.4086783"><ele>40.0</ele><time>2026-04-27T11:00:32.032Z</time></trkpt><trkpt lat="33.6582" lon="-7.408485"><ele>40.0</ele><time>2026-04-27T11:00:33.031Z</time></trkpt><trkpt lat="33.658385" lon="-7.4082767"><ele>40.0</ele><time>2026-04-27T11:00:34.032Z</time></trkpt><trkpt lat="33.65858" lon="-7.4080633"><ele>40.0</ele><time>2026-04-27T11:00:35.032Z</time></trkpt><trkpt lat="33.6587817" lon="-7.40784"><ele>39.5</ele><time>2026-04-27T11:00:36.032Z</time></trkpt><trkpt lat="33.6589833" lon="-7.4076083"><ele>39.0</ele><time>2026-04-27T11:00:37.032Z</time></trkpt><trkpt lat="33.6591867" lon="-7.4073717"><ele>39.0</ele><time>2026-04-27T11:00:38.032Z</time></trkpt><trkpt lat="33.6593817" lon="-7.4071467"><ele>39.0</ele><time>2026-04-27T11:00:39.032Z</time></trkpt><trkpt lat="33.6595683" lon="-7.406925"><ele>39.5</ele><time>2026-04-27T11:00:40.032Z</time></trkpt><trkpt lat="33.65976" lon="-7.4067017"><ele>40.0</ele><time>2026-04-27T11:00:41.032Z</time></trkpt><trkpt lat="33.6599517" lon="-7.4064917"><ele>40.5</ele><time>2026-04-27T11:00:42.032Z</time></trkpt><trkpt lat="33.6601433" lon="-7.4062833"><ele>41.0</ele><time>2026-04-27T11:00:43.032Z</time></trkpt><trkpt lat="33.6603333" lon="-7.4060633"><ele>39.0</ele><time>2026-04-27T11:00:44.032Z</time></trkpt><trkpt lat="33.660525" lon="-7.4058517"><ele>37.0</ele><time>2026-04-27T11:00:45.032Z</time></trkpt><trkpt lat="33.6607083" lon="-7.4056483"><ele>39.0</ele><time>2026-04-27T11:00:46.032Z</time></trkpt><trkpt lat="33.6608783" lon="-7.4054483"><ele>41.0</ele><time>2026-04-27T11:00:47.031Z</time></trkpt><trkpt lat="33.661055" lon="-7.405245"><ele>39.0</ele><time>2026-04-27T11:00:48.032Z</time></trkpt><trkpt lat="33.6612283" lon="-7.4050417"><ele>37.0</ele><time>2026-04-27T11:00:49.032Z</time></trkpt><trkpt lat="33.6613983" lon="-7.4048517"><ele>38.0</ele><time>2026-04-27T11:00:50.031Z</time></trkpt><trkpt lat="33.6615617" lon="-7.404655"><ele>39.0</ele><time>2026-04-27T11:00:51.03Z</time></trkpt><trkpt lat="33.6617317" lon="-7.4044683"><ele>39.0</ele><time>2026-04-27T11:00:52.031Z</time></trkpt><trkpt lat="33.661905" lon="-7.40428"><ele>39.0</ele><time>2026-04-27T11:00:53.031Z</time></trkpt><trkpt lat="33.66207" lon="-7.4041017"><ele>36.5</ele><time>2026-04-27T11:00:54.031Z</time></trkpt><trkpt lat="33.662245" lon="-7.4039117"><ele>34.0</ele><time>2026-04-27T11:00:55.031Z</time></trkpt><trkpt lat="33.662415" lon="-7.4037267"><ele>33.0</ele><time>2026-04-27T11:00:56.031Z</time></trkpt><trkpt lat="33.6625933" lon="-7.40354"><ele>32.0</ele><time>2026-04-27T11:00:57.031Z</time></trkpt><trkpt lat="33.66277" lon="-7.4033467"><ele>32.0</ele><time>2026-04-27T11:00:58.031Z</time></trkpt><trkpt lat="33.662945" lon="-7.4031467"><ele>32.0</ele><time>2026-04-27T11:00:59.031Z</time></trkpt><trkpt lat="33.663125" lon="-7.402945"><ele>32.0</ele><time>2026-04-27T11:01:00.03Z</time></trkpt><trkpt lat="33.6633017" lon="-7.402745"><ele>32.0</ele><time>2026-04-27T11:01:01.031Z</time></trkpt><trkpt lat="33.6634767" lon="-7.40254"><ele>32.5</ele><time>2026-04-27T11:01:02.031Z</time></trkpt><trkpt lat="33.6636467" lon="-7.4023333"><ele>33.0</ele><time>2026-04-27T11:01:03.031Z</time></trkpt><trkpt lat="33.6638117" lon="-7.4021267"><ele>28.0</ele><time>2026-04-27T11:01:04.031Z</time></trkpt><trkpt lat="33.663975" lon="-7.4019317"><ele>23.0</ele><time>2026-04-27T11:01:05.031Z</time></trkpt><trkpt lat="33.6641333" lon="-7.40173"><ele>23.0</ele><time>2026-04-27T11:01:06.031Z</time></trkpt><trkpt lat="33.664285" lon="-7.4015267"><ele>23.0</ele><time>2026-04-27T11:01:07.031Z</time></trkpt><trkpt lat="33.6644333" lon="-7.4013233"><ele>19.666666666666668</ele><time>2026-04-27T11:01:08.031Z</time></trkpt><trkpt lat="33.664575" lon="-7.4011233"><ele>16.333333333333332</ele><time>2026-04-27T11:01:09.031Z</time></trkpt><trkpt lat="33.664715" lon="-7.4009283"><ele>13.0</ele><time>2026-04-27T11:01:10.031Z</time></trkpt><trkpt lat="33.6648583" lon="-7.4007383"><ele>13.0</ele><time>2026-04-27T11:01:11.031Z</time></trkpt><trkpt lat="33.6649983" lon="-7.40054"><ele>13.0</ele><time>2026-04-27T11:01:12.031Z</time></trkpt><trkpt lat="33.66514" lon="-7.4003483"><ele>13.0</ele><time>2026-04-27T11:01:13.031Z</time></trkpt><trkpt lat="33.6652833" lon="-7.4001533"><ele>13.5</ele><time>2026-04-27T11:01:14.031Z</time></trkpt><trkpt lat="33.6654317" lon="-7.3999483"><ele>14.0</ele><time>2026-04-27T11:01:15.031Z</time></trkpt><trkpt lat="33.6655817" lon="-7.39974"><ele>16.5</ele><time>2026-04-27T11:01:16.031Z</time></trkpt><trkpt lat="33.6657383" lon="-7.3995367"><ele>19.0</ele><time>2026-04-27T11:01:17.031Z</time></trkpt><trkpt lat="33.6659033" lon="-7.3993067"><ele>19.0</ele><time>2026-04-27T11:01:18.031Z</time></trkpt><trkpt lat="33.666075" lon="-7.399065"><ele>19.0</ele><time>2026-04-27T11:01:19.031Z</time></trkpt><trkpt lat="33.6662367" lon="-7.3988133"><ele>20.5</ele><time>2026-04-27T11:01:20.031Z</time></trkpt><trkpt lat="33.66641" lon="-7.3985567"><ele>22.0</ele><time>2026-04-27T11:01:21.031Z</time></trkpt><trkpt lat="33.6665717" lon="-7.3982967"><ele>22.0</ele><time>2026-04-27T11:01:22.031Z</time></trkpt><trkpt lat="33.66674" lon="-7.398035"><ele>22.0</ele><time>2026-04-27T11:01:23.031Z</time></trkpt><trkpt lat="33.6668983" lon="-7.39778"><ele>23.0</ele><time>2026-04-27T11:01:24.031Z</time></trkpt><trkpt lat="33.6670483" lon="-7.3975367"><ele>24.0</ele><time>2026-04-27T11:01:25.031Z</time></trkpt><trkpt lat="33.6671983" lon="-7.39729"><ele>27.5</ele><time>2026-04-27T11:01:26.031Z</time></trkpt><trkpt lat="33.66735" lon="-7.3970367"><ele>31.0</ele><time>2026-04-27T11:01:27.031Z</time></trkpt><trkpt lat="33.6674983" lon="-7.3967783"><ele>31.0</ele><time>2026-04-27T11:01:28.031Z</time></trkpt><trkpt lat="33.6676533" lon="-7.396515"><ele>31.0</ele><time>2026-04-27T11:01:29.031Z</time></trkpt><trkpt lat="33.6678" lon="-7.39625"><ele>31.0</ele><time>2026-04-27T11:01:30.031Z</time></trkpt><trkpt lat="33.667945" lon="-7.3959833"><ele>31.0</ele><time>2026-04-27T11:01:31.031Z</time></trkpt><trkpt lat="33.6680833" lon="-7.3957133"><ele>32.0</ele><time>2026-04-27T11:01:32.031Z</time></trkpt><trkpt lat="33.6682233" lon="-7.3954433"><ele>33.0</ele><time>2026-04-27T11:01:33.031Z</time></trkpt><trkpt lat="33.6683633" lon="-7.3951717"><ele>33.0</ele><time>2026-04-27T11:01:34.03Z</time></trkpt><trkpt lat="33.6685067" lon="-7.3948933"><ele>33.0</ele><time>2026-04-27T11:01:35.031Z</time></trkpt><trkpt lat="33.6686483" lon="-7.3946217"><ele>32.5</ele><time>2026-04-27T11:01:36.031Z</time></trkpt><trkpt lat="33.6687933" lon="-7.3943467"><ele>32.0</ele><time>2026-04-27T11:01:37.031Z</time></trkpt><trkpt lat="33.6689317" lon="-7.3940667"><ele>34.0</ele><time>2026-04-27T11:01:38.031Z</time></trkpt><trkpt lat="33.6690733" lon="-7.3937833"><ele>36.0</ele><time>2026-04-27T11:01:39.031Z</time></trkpt><trkpt lat="33.6692117" lon="-7.3935017"><ele>36.0</ele><time>2026-04-27T11:01:40.03Z</time></trkpt><trkpt lat="33.6693467" lon="-7.39323"><ele>36.0</ele><time>2026-04-27T11:01:41.031Z</time></trkpt><trkpt lat="33.669475" lon="-7.3929583"><ele>36.5</ele><time>2026-04-27T11:01:42.03Z</time></trkpt><trkpt lat="33.6696" lon="-7.392685"><ele>37.0</ele><time>2026-04-27T11:01:43.031Z</time></trkpt><trkpt lat="33.6697283" lon="-7.392405"><ele>36.0</ele><time>2026-04-27T11:01:44.031Z</time></trkpt><trkpt lat="33.6698567" lon="-7.39212"><ele>35.0</ele><time>2026-04-27T11:01:45.03Z</time></trkpt><trkpt lat="33.6699867" lon="-7.39184"><ele>35.0</ele><time>2026-04-27T11:01:46.031Z</time></trkpt><trkpt lat="33.6701217" lon="-7.3915567"><ele>35.0</ele><time>2026-04-27T11:01:47.031Z</time></trkpt><trkpt lat="33.6702517" lon="-7.39126"><ele>35.0</ele><time>2026-04-27T11:01:48.03Z</time></trkpt><trkpt lat="33.6703817" lon="-7.3909617"><ele>35.0</ele><time>2026-04-27T11:01:49.031Z</time></trkpt><trkpt lat="33.6705083" lon="-7.3906567"><ele>35.5</ele><time>2026-04-27T11:01:50.031Z</time></trkpt><trkpt lat="33.67064" lon="-7.3903583"><ele>36.0</ele><time>2026-04-27T11:01:51.031Z</time></trkpt><trkpt lat="33.6707683" lon="-7.3900533"><ele>36.0</ele><time>2026-04-27T11:01:52.031Z</time></trkpt><trkpt lat="33.6708967" lon="-7.3897567"><ele>36.0</ele><time>2026-04-27T11:01:53.031Z</time></trkpt><trkpt lat="33.6710167" lon="-7.389465"><ele>38.5</ele><time>2026-04-27T11:01:54.031Z</time></trkpt><trkpt lat="33.6711383" lon="-7.3891817"><ele>41.0</ele><time>2026-04-27T11:01:55.031Z</time></trkpt><trkpt lat="33.6712633" lon="-7.3888917"><ele>41.5</ele><time>2026-04-27T11:01:56.031Z</time></trkpt><trkpt lat="33.671385" lon="-7.3886017"><ele>42.0</ele><time>2026-04-27T11:01:57.031Z</time></trkpt><trkpt lat="33.6715083" lon="-7.38831"><ele>42.0</ele><time>2026-04-27T11:01:58.031Z</time></trkpt><trkpt lat="33.6716283" lon="-7.38802"><ele>42.0</ele><time>2026-04-27T11:01:59.031Z</time></trkpt><trkpt lat="33.6717483" lon="-7.3877217"><ele>42.0</ele><time>2026-04-27T11:02:00.031Z</time></trkpt><trkpt lat="33.67187" lon="-7.3874317"><ele>42.0</ele><time>2026-04-27T11:02:01.03Z</time></trkpt><trkpt lat="33.6719933" lon="-7.38714"><ele>41.5</ele><time>2026-04-27T11:02:02.031Z</time></trkpt><trkpt lat="33.6721217" lon="-7.38685"><ele>41.0</ele><time>2026-04-27T11:02:03.031Z</time></trkpt><trkpt lat="33.672255" lon="-7.3865533"><ele>41.5</ele><time>2026-04-27T11:02:04.031Z</time></trkpt><trkpt lat="33.6723933" lon="-7.3862483"><ele>42.0</ele><time>2026-04-27T11:02:05.031Z</time></trkpt><trkpt lat="33.6725267" lon="-7.3859433"><ele>42.0</ele><time>2026-04-27T11:02:06.031Z</time></trkpt><trkpt lat="33.6726567" lon="-7.38564"><ele>42.0</ele><time>2026-04-27T11:02:07.031Z</time></trkpt><trkpt lat="33.672785" lon="-7.385345"><ele>41.0</ele><time>2026-04-27T11:02:08.03Z</time></trkpt><trkpt lat="33.67291" lon="-7.3850567"><ele>40.0</ele><time>2026-04-27T11:02:09.031Z</time></trkpt><trkpt lat="33.6730333" lon="-7.3847717"><ele>40.0</ele><time>2026-04-27T11:02:10.031Z</time></trkpt><trkpt lat="33.6731667" lon="-7.3844883"><ele>40.0</ele><time>2026-04-27T11:02:11.031Z</time></trkpt><trkpt lat="33.6732917" lon="-7.3842017"><ele>40.0</ele><time>2026-04-27T11:02:12.031Z</time></trkpt><trkpt lat="33.6734117" lon="-7.383905"><ele>40.0</ele><time>2026-04-27T11:02:13.031Z</time></trkpt><trkpt lat="33.67354" lon="-7.3836117"><ele>40.0</ele><time>2026-04-27T11:02:14.031Z</time></trkpt><trkpt lat="33.673675" lon="-7.38333"><ele>40.0</ele><time>2026-04-27T11:02:15.031Z</time></trkpt><trkpt lat="33.67381" lon="-7.3830433"><ele>40.0</ele><time>2026-04-27T11:02:16.031Z</time></trkpt><trkpt lat="33.6739467" lon="-7.3827567"><ele>40.0</ele><time>2026-04-27T11:02:17.031Z</time></trkpt><trkpt lat="33.67408" lon="-7.3824683"><ele>42.0</ele><time>2026-04-27T11:02:18.031Z</time></trkpt><trkpt lat="33.674215" lon="-7.3821767"><ele>44.0</ele><time>2026-04-27T11:02:19.031Z</time></trkpt><trkpt lat="33.674355" lon="-7.3818817"><ele>44.5</ele><time>2026-04-27T11:02:20.031Z</time></trkpt><trkpt lat="33.6744967" lon="-7.3815867"><ele>45.0</ele><time>2026-04-27T11:02:21.03Z</time></trkpt><trkpt lat="33.674645" lon="-7.3812967"><ele>43.5</ele><time>2026-04-27T11:02:22.031Z</time></trkpt><trkpt lat="33.6747917" lon="-7.3810033"><ele>42.0</ele><time>2026-04-27T11:02:23.031Z</time></trkpt><trkpt lat="33.6749333" lon="-7.3807067"><ele>42.5</ele><time>2026-04-27T11:02:24.031Z</time></trkpt><trkpt lat="33.675085" lon="-7.3804217"><ele>43.0</ele><time>2026-04-27T11:02:25.031Z</time></trkpt><trkpt lat="33.6752333" lon="-7.380125"><ele>43.5</ele><time>2026-04-27T11:02:26.031Z</time></trkpt><trkpt lat="33.675375" lon="-7.3798183"><ele>44.0</ele><time>2026-04-27T11:02:27.031Z</time></trkpt><trkpt lat="33.6755283" lon="-7.3795267"><ele>44.0</ele><time>2026-04-27T11:02:28.031Z</time></trkpt><trkpt lat="33.6756817" lon="-7.37923"><ele>44.0</ele><time>2026-04-27T11:02:29.031Z</time></trkpt><trkpt lat="33.6758433" lon="-7.3789383"><ele>44.0</ele><time>2026-04-27T11:02:30.031Z</time></trkpt><trkpt lat="33.675995" lon="-7.3786467"><ele>44.0</ele><time>2026-04-27T11:02:31.031Z</time></trkpt><trkpt lat="33.67614" lon="-7.3783683"><ele>44.0</ele><time>2026-04-27T11:02:32.031Z</time></trkpt><trkpt lat="33.6762817" lon="-7.378095"><ele>44.0</ele><time>2026-04-27T11:02:33.031Z</time></trkpt><trkpt lat="33.67643" lon="-7.37782"><ele>45.0</ele><time>2026-04-27T11:02:34.031Z</time></trkpt><trkpt lat="33.676575" lon="-7.3775383"><ele>46.0</ele><time>2026-04-27T11:02:35.031Z</time></trkpt><trkpt lat="33.67673" lon="-7.377265"><ele>47.0</ele><time>2026-04-27T11:02:36.031Z</time></trkpt><trkpt lat="33.6768917" lon="-7.37699"><ele>48.0</ele><time>2026-04-27T11:02:37.031Z</time></trkpt><trkpt lat="33.6770517" lon="-7.3767067"><ele>48.0</ele><time>2026-04-27T11:02:38.03Z</time></trkpt><trkpt lat="33.6772133" lon="-7.376425"><ele>48.0</ele><time>2026-04-27T11:02:39.031Z</time></trkpt><trkpt lat="33.67738" lon="-7.376145"><ele>48.0</ele><time>2026-04-27T11:02:40.031Z</time></trkpt><trkpt lat="33.6775467" lon="-7.3758633"><ele>48.0</ele><time>2026-04-27T11:02:41.031Z</time></trkpt><trkpt lat="33.67771" lon="-7.375575"><ele>47.5</ele><time>2026-04-27T11:02:42.031Z</time></trkpt><trkpt lat="33.6778767" lon="-7.3752917"><ele>47.0</ele><time>2026-04-27T11:02:43.031Z</time></trkpt><trkpt lat="33.67804" lon="-7.3750083"><ele>47.0</ele><time>2026-04-27T11:02:44.031Z</time></trkpt><trkpt lat="33.6782083" lon="-7.374725"><ele>47.0</ele><time>2026-04-27T11:02:45.031Z</time></trkpt><trkpt lat="33.6783783" lon="-7.3744383"><ele>47.0</ele><time>2026-04-27T11:02:46.031Z</time></trkpt><trkpt lat="33.67855" lon="-7.3741533"><ele>47.0</ele><time>2026-04-27T11:02:47.031Z</time></trkpt><trkpt lat="33.678725" lon="-7.3738667"><ele>47.0</ele><time>2026-04-27T11:02:48.031Z</time></trkpt><trkpt lat="33.6789117" lon="-7.3735783"><ele>47.0</ele><time>2026-04-27T11:02:49.031Z</time></trkpt><trkpt lat="33.6791" lon="-7.37328"><ele>46.5</ele><time>2026-04-27T11:02:50.031Z</time></trkpt><trkpt lat="33.6792883" lon="-7.372975"><ele>46.0</ele><time>2026-04-27T11:02:51.031Z</time></trkpt><trkpt lat="33.6794717" lon="-7.3726683"><ele>45.0</ele><time>2026-04-27T11:02:52.031Z</time></trkpt><trkpt lat="33.6796567" lon="-7.3723667"><ele>44.0</ele><time>2026-04-27T11:02:53.03Z</time></trkpt><trkpt lat="33.6798383" lon="-7.3720633"><ele>43.5</ele><time>2026-04-27T11:02:54.031Z</time></trkpt><trkpt lat="33.6800133" lon="-7.3717733"><ele>43.0</ele><time>2026-04-27T11:02:55.03Z</time></trkpt><trkpt lat="33.6801817" lon="-7.37149"><ele>43.5</ele><time>2026-04-27T11:02:56.031Z</time></trkpt><trkpt lat="33.6803517" lon="-7.3712133"><ele>44.0</ele><time>2026-04-27T11:02:57.031Z</time></trkpt><trkpt lat="33.6805217" lon="-7.370945"><ele>44.0</ele><time>2026-04-27T11:02:58.031Z</time></trkpt><trkpt lat="33.68069" lon="-7.3706767"><ele>44.0</ele><time>2026-04-27T11:02:59.031Z</time></trkpt><trkpt lat="33.6808617" lon="-7.3703967"><ele>45.0</ele><time>2026-04-27T11:03:00.031Z</time></trkpt><trkpt lat="33.6810267" lon="-7.3701233"><ele>46.0</ele><time>2026-04-27T11:03:01.031Z</time></trkpt><trkpt lat="33.68119" lon="-7.3698583"><ele>43.5</ele><time>2026-04-27T11:03:02.031Z</time></trkpt><trkpt lat="33.681355" lon="-7.369585"><ele>41.0</ele><time>2026-04-27T11:03:03.03Z</time></trkpt><trkpt lat="33.6815267" lon="-7.3693033"><ele>41.0</ele><time>2026-04-27T11:03:04.031Z</time></trkpt><trkpt lat="33.6816967" lon="-7.3690383"><ele>41.0</ele><time>2026-04-27T11:03:05.031Z</time></trkpt><trkpt lat="33.6818667" lon="-7.3687733"><ele>40.5</ele><time>2026-04-27T11:03:06.03Z</time></trkpt><trkpt lat="33.6820367" lon="-7.368495"><ele>40.0</ele><time>2026-04-27T11:03:07.031Z</time></trkpt><trkpt lat="33.6822033" lon="-7.3682183"><ele>40.5</ele><time>2026-04-27T11:03:08.031Z</time></trkpt><trkpt lat="33.6823717" lon="-7.3679433"><ele>41.0</ele><time>2026-04-27T11:03:09.03Z</time></trkpt><trkpt lat="33.6825367" lon="-7.3676667"><ele>41.0</ele><time>2026-04-27T11:03:10.031Z</time></trkpt><trkpt lat="33.6826967" lon="-7.367405"><ele>41.0</ele><time>2026-04-27T11:03:11.031Z</time></trkpt><trkpt lat="33.68286" lon="-7.3671433"><ele>41.0</ele><time>2026-04-27T11:03:12.031Z</time></trkpt><trkpt lat="33.683025" lon="-7.3668767"><ele>41.0</ele><time>2026-04-27T11:03:13.031Z</time></trkpt><trkpt lat="33.683195" lon="-7.3666067"><ele>43.0</ele><time>2026-04-27T11:03:14.031Z</time></trkpt><trkpt lat="33.6833683" lon="-7.3663367"><ele>45.0</ele><time>2026-04-27T11:03:15.031Z</time></trkpt><trkpt lat="33.68354" lon="-7.366065"><ele>43.5</ele><time>2026-04-27T11:03:16.03Z</time></trkpt><trkpt lat="33.683715" lon="-7.3657883"><ele>42.0</ele><time>2026-04-27T11:03:17.031Z</time></trkpt><trkpt lat="33.68389" lon="-7.3655"><ele>42.0</ele><time>2026-04-27T11:03:18.031Z</time></trkpt><trkpt lat="33.684065" lon="-7.3652133"><ele>42.0</ele><time>2026-04-27T11:03:19.03Z</time></trkpt><trkpt lat="33.684235" lon="-7.36493"><ele>43.0</ele><time>2026-04-27T11:03:20.031Z</time></trkpt><trkpt lat="33.6844067" lon="-7.3646533"><ele>44.0</ele><time>2026-04-27T11:03:21.031Z</time></trkpt><trkpt lat="33.68458" lon="-7.36437"><ele>44.5</ele><time>2026-04-27T11:03:22.031Z</time></trkpt><trkpt lat="33.6847567" lon="-7.3640883"><ele>45.0</ele><time>2026-04-27T11:03:23.03Z</time></trkpt><trkpt lat="33.6849317" lon="-7.36381"><ele>45.5</ele><time>2026-04-27T11:03:24.031Z</time></trkpt><trkpt lat="33.6851117" lon="-7.363535"><ele>46.0</ele><time>2026-04-27T11:03:25.031Z</time></trkpt><trkpt lat="33.6852933" lon="-7.3632583"><ele>45.0</ele><time>2026-04-27T11:03:26.031Z</time></trkpt><trkpt lat="33.6854767" lon="-7.3629833"><ele>44.0</ele><time>2026-04-27T11:03:27.031Z</time></trkpt><trkpt lat="33.6856633" lon="-7.36272"><ele>44.0</ele><time>2026-04-27T11:03:28.031Z</time></trkpt><trkpt lat="33.6858467" lon="-7.3624517"><ele>44.0</ele><time>2026-04-27T11:03:29.031Z</time></trkpt><trkpt lat="33.686035" lon="-7.362185"><ele>42.5</ele><time>2026-04-27T11:03:30.031Z</time></trkpt><trkpt lat="33.6862217" lon="-7.36193"><ele>41.0</ele><time>2026-04-27T11:03:31.031Z</time></trkpt><trkpt lat="33.6864033" lon="-7.361675"><ele>41.0</ele><time>2026-04-27T11:03:32.031Z</time></trkpt><trkpt lat="33.6865917" lon="-7.3614283"><ele>41.0</ele><time>2026-04-27T11:03:33.031Z</time></trkpt><trkpt lat="33.6867733" lon="-7.36118"><ele>41.5</ele><time>2026-04-27T11:03:34.031Z</time></trkpt><trkpt lat="33.6869567" lon="-7.3609333"><ele>42.0</ele><time>2026-04-27T11:03:35.031Z</time></trkpt><trkpt lat="33.6871383" lon="-7.3606933"><ele>41.5</ele><time>2026-04-27T11:03:36.03Z</time></trkpt><trkpt lat="33.68732" lon="-7.3604483"><ele>41.0</ele><time>2026-04-27T11:03:37.031Z</time></trkpt><trkpt lat="33.6875133" lon="-7.3602033"><ele>41.0</ele><time>2026-04-27T11:03:38.03Z</time></trkpt><trkpt lat="33.6877033" lon="-7.359955"><ele>41.0</ele><time>2026-04-27T11:03:39.031Z</time></trkpt><trkpt lat="33.6878917" lon="-7.35971"><ele>44.5</ele><time>2026-04-27T11:03:40.031Z</time></trkpt><trkpt lat="33.68808" lon="-7.3594667"><ele>48.0</ele><time>2026-04-27T11:03:41.031Z</time></trkpt><trkpt lat="33.6882733" lon="-7.359225"><ele>48.0</ele><time>2026-04-27T11:03:42.031Z</time></trkpt><trkpt lat="33.6884717" lon="-7.3589867"><ele>48.0</ele><time>2026-04-27T11:03:43.031Z</time></trkpt><trkpt lat="33.6886667" lon="-7.3587433"><ele>47.5</ele><time>2026-04-27T11:03:44.031Z</time></trkpt><trkpt lat="33.6888667" lon="-7.3585033"><ele>47.0</ele><time>2026-04-27T11:03:45.031Z</time></trkpt><trkpt lat="33.6890667" lon="-7.35827"><ele>47.0</ele><time>2026-04-27T11:03:46.031Z</time></trkpt><trkpt lat="33.68927" lon="-7.358025"><ele>47.0</ele><time>2026-04-27T11:03:47.031Z</time></trkpt><trkpt lat="33.689475" lon="-7.3578"><ele>47.0</ele><time>2026-04-27T11:03:48.031Z</time></trkpt><trkpt lat="33.6896817" lon="-7.357555"><ele>47.0</ele><time>2026-04-27T11:03:49.031Z</time></trkpt><trkpt lat="33.689895" lon="-7.357315"><ele>47.5</ele><time>2026-04-27T11:03:50.031Z</time></trkpt><trkpt lat="33.6901083" lon="-7.35708"><ele>48.0</ele><time>2026-04-27T11:03:51.031Z</time></trkpt><trkpt lat="33.69032" lon="-7.35685"><ele>47.0</ele><time>2026-04-27T11:03:52.031Z</time></trkpt><trkpt lat="33.6905417" lon="-7.3566133"><ele>46.0</ele><time>2026-04-27T11:03:53.031Z</time></trkpt><trkpt lat="33.6907533" lon="-7.356375"><ele>45.0</ele><time>2026-04-27T11:03:54.031Z</time></trkpt><trkpt lat="33.69097" lon="-7.356145"><ele>44.0</ele><time>2026-04-27T11:03:55.031Z</time></trkpt><trkpt lat="33.6911783" lon="-7.3559117"><ele>44.0</ele><time>2026-04-27T11:03:56.031Z</time></trkpt><trkpt lat="33.69139" lon="-7.3556717"><ele>44.0</ele><time>2026-04-27T11:03:57.03Z</time></trkpt><trkpt lat="33.6916" lon="-7.35544"><ele>44.0</ele><time>2026-04-27T11:03:58.031Z</time></trkpt><trkpt lat="33.691815" lon="-7.3552117"><ele>44.0</ele><time>2026-04-27T11:03:59.031Z</time></trkpt><trkpt lat="33.69203" lon="-7.3549867"><ele>44.5</ele><time>2026-04-27T11:04:00.031Z</time></trkpt><trkpt lat="33.6922533" lon="-7.35476"><ele>45.0</ele><time>2026-04-27T11:04:01.031Z</time></trkpt><trkpt lat="33.692475" lon="-7.3545367"><ele>45.0</ele><time>2026-04-27T11:04:02.031Z</time></trkpt><trkpt lat="33.6926967" lon="-7.3543133"><ele>45.0</ele><time>2026-04-27T11:04:03.031Z</time></trkpt><trkpt lat="33.6929167" lon="-7.35409"><ele>43.5</ele><time>2026-04-27T11:04:04.031Z</time></trkpt><trkpt lat="33.6931433" lon="-7.35387"><ele>42.0</ele><time>2026-04-27T11:04:05.031Z</time></trkpt><trkpt lat="33.693375" lon="-7.3536517"><ele>44.5</ele><time>2026-04-27T11:04:06.03Z</time></trkpt><trkpt lat="33.6935983" lon="-7.353435"><ele>47.0</ele><time>2026-04-27T11:04:07.031Z</time></trkpt><trkpt lat="33.69383" lon="-7.35322"><ele>45.5</ele><time>2026-04-27T11:04:08.031Z</time></trkpt><trkpt lat="33.694065" lon="-7.35301"><ele>44.0</ele><time>2026-04-27T11:04:09.031Z</time></trkpt><trkpt lat="33.6943033" lon="-7.3528"><ele>45.5</ele><time>2026-04-27T11:04:10.031Z</time></trkpt><trkpt lat="33.6945417" lon="-7.3525933"><ele>47.0</ele><time>2026-04-27T11:04:11.031Z</time></trkpt><trkpt lat="33.69478" lon="-7.3523867"><ele>45.0</ele><time>2026-04-27T11:04:12.031Z</time></trkpt><trkpt lat="33.6950267" lon="-7.3521833"><ele>43.0</ele><time>2026-04-27T11:04:13.031Z</time></trkpt><trkpt lat="33.6952717" lon="-7.351975"><ele>43.0</ele><time>2026-04-27T11:04:14.031Z</time></trkpt><trkpt lat="33.6955217" lon="-7.351775"><ele>43.0</ele><time>2026-04-27T11:04:15.031Z</time></trkpt><trkpt lat="33.69576" lon="-7.351575"><ele>43.0</ele><time>2026-04-27T11:04:16.031Z</time></trkpt><trkpt lat="33.6959967" lon="-7.35138"><ele>43.0</ele><time>2026-04-27T11:04:17.031Z</time></trkpt><trkpt lat="33.6962317" lon="-7.3511917"><ele>41.0</ele><time>2026-04-27T11:04:18.031Z</time></trkpt><trkpt lat="33.6964583" lon="-7.3510067"><ele>39.0</ele><time>2026-04-27T11:04:19.031Z</time></trkpt><trkpt lat="33.696685" lon="-7.3508233"><ele>39.0</ele><time>2026-04-27T11:04:20.031Z</time></trkpt><trkpt lat="33.6969167" lon="-7.350645"><ele>39.0</ele><time>2026-04-27T11:04:21.031Z</time></trkpt><trkpt lat="33.6971483" lon="-7.3504683"><ele>40.0</ele><time>2026-04-27T11:04:22.031Z</time></trkpt><trkpt lat="33.6973783" lon="-7.350285"><ele>41.0</ele><time>2026-04-27T11:04:23.031Z</time></trkpt><trkpt lat="33.6976117" lon="-7.3501"><ele>40.0</ele><time>2026-04-27T11:04:24.031Z</time></trkpt><trkpt lat="33.6978417" lon="-7.349925"><ele>39.0</ele><time>2026-04-27T11:04:25.031Z</time></trkpt><trkpt lat="33.6980717" lon="-7.3497517"><ele>41.0</ele><time>2026-04-27T11:04:26.031Z</time></trkpt><trkpt lat="33.6983083" lon="-7.3495833"><ele>43.0</ele><time>2026-04-27T11:04:27.031Z</time></trkpt><trkpt lat="33.6985383" lon="-7.349415"><ele>41.0</ele><time>2026-04-27T11:04:28.031Z</time></trkpt><trkpt lat="33.698775" lon="-7.3492567"><ele>39.0</ele><time>2026-04-27T11:04:29.031Z</time></trkpt><trkpt lat="33.6990067" lon="-7.3490983"><ele>39.0</ele><time>2026-04-27T11:04:30.031Z</time></trkpt><trkpt lat="33.6992367" lon="-7.3489383"><ele>39.0</ele><time>2026-04-27T11:04:31.03Z</time></trkpt><trkpt lat="33.6994683" lon="-7.3487783"><ele>39.5</ele><time>2026-04-27T11:04:32.031Z</time></trkpt><trkpt lat="33.6997067" lon="-7.3486167"><ele>40.0</ele><time>2026-04-27T11:04:33.03Z</time></trkpt><trkpt lat="33.699945" lon="-7.34846"><ele>40.0</ele><time>2026-04-27T11:04:34.03Z</time></trkpt><trkpt lat="33.7001833" lon="-7.348305"><ele>40.0</ele><time>2026-04-27T11:04:35.031Z</time></trkpt><trkpt lat="33.7004283" lon="-7.3481483"><ele>40.0</ele><time>2026-04-27T11:04:36.031Z</time></trkpt><trkpt lat="33.7006633" lon="-7.347985"><ele>40.0</ele><time>2026-04-27T11:04:37.031Z</time></trkpt><trkpt lat="33.7009083" lon="-7.34783"><ele>40.0</ele><time>2026-04-27T11:04:38.031Z</time></trkpt><trkpt lat="33.7011567" lon="-7.3476783"><ele>40.0</ele><time>2026-04-27T11:04:39.031Z</time></trkpt><trkpt lat="33.7014117" lon="-7.34753"><ele>40.0</ele><time>2026-04-27T11:04:40.031Z</time></trkpt><trkpt lat="33.7016633" lon="-7.3473817"><ele>40.0</ele><time>2026-04-27T11:04:41.031Z</time></trkpt><trkpt lat="33.701915" lon="-7.347225"><ele>40.5</ele><time>2026-04-27T11:04:42.031Z</time></trkpt><trkpt lat="33.7021667" lon="-7.347075"><ele>41.0</ele><time>2026-04-27T11:04:43.031Z</time></trkpt><trkpt lat="33.702415" lon="-7.3469233"><ele>41.0</ele><time>2026-04-27T11:04:44.031Z</time></trkpt><trkpt lat="33.7026667" lon="-7.3467717"><ele>41.0</ele><time>2026-04-27T11:04:45.031Z</time></trkpt><trkpt lat="33.7029217" lon="-7.3466317"><ele>39.5</ele><time>2026-04-27T11:04:46.031Z</time></trkpt><trkpt lat="33.703165" lon="-7.3465"><ele>38.0</ele><time>2026-04-27T11:04:47.031Z</time></trkpt><trkpt lat="33.703415" lon="-7.3463583"><ele>38.0</ele><time>2026-04-27T11:04:48.031Z</time></trkpt><trkpt lat="33.7036683" lon="-7.346215"><ele>38.0</ele><time>2026-04-27T11:04:49.031Z</time></trkpt><trkpt lat="33.7039283" lon="-7.3460817"><ele>38.0</ele><time>2026-04-27T11:04:50.031Z</time></trkpt><trkpt lat="33.70419" lon="-7.3459417"><ele>38.0</ele><time>2026-04-27T11:04:51.031Z</time></trkpt><trkpt lat="33.7044533" lon="-7.3458017"><ele>37.0</ele><time>2026-04-27T11:04:52.031Z</time></trkpt><trkpt lat="33.7047183" lon="-7.3456667"><ele>36.0</ele><time>2026-04-27T11:04:53.031Z</time></trkpt><trkpt lat="33.7049833" lon="-7.3455267"><ele>35.5</ele><time>2026-04-27T11:04:54.031Z</time></trkpt><trkpt lat="33.705245" lon="-7.3453867"><ele>35.0</ele><time>2026-04-27T11:04:55.031Z</time></trkpt><trkpt lat="33.7054967" lon="-7.3452517"><ele>35.0</ele><time>2026-04-27T11:04:56.03Z</time></trkpt><trkpt lat="33.7057517" lon="-7.3451133"><ele>35.0</ele><time>2026-04-27T11:04:57.031Z</time></trkpt><trkpt lat="33.7060033" lon="-7.34496"><ele>33.5</ele><time>2026-04-27T11:04:58.03Z</time></trkpt><trkpt lat="33.7062517" lon="-7.3448117"><ele>32.0</ele><time>2026-04-27T11:04:59.031Z</time></trkpt><trkpt lat="33.706495" lon="-7.34466"><ele>32.0</ele><time>2026-04-27T11:05:00.031Z</time></trkpt><trkpt lat="33.7067417" lon="-7.344505"><ele>32.0</ele><time>2026-04-27T11:05:01.031Z</time></trkpt><trkpt lat="33.706985" lon="-7.34435"><ele>31.5</ele><time>2026-04-27T11:05:02.031Z</time></trkpt><trkpt lat="33.7072233" lon="-7.3441917"><ele>31.0</ele><time>2026-04-27T11:05:03.031Z</time></trkpt><trkpt lat="33.7074483" lon="-7.344035"><ele>31.0</ele><time>2026-04-27T11:05:04.031Z</time></trkpt><trkpt lat="33.7076733" lon="-7.34387"><ele>31.0</ele><time>2026-04-27T11:05:05.031Z</time></trkpt><trkpt lat="33.7078933" lon="-7.343705"><ele>30.5</ele><time>2026-04-27T11:05:06.031Z</time></trkpt><trkpt lat="33.7081133" lon="-7.3435317"><ele>30.0</ele><time>2026-04-27T11:05:07.031Z</time></trkpt><trkpt lat="33.7083283" lon="-7.3433567"><ele>30.0</ele><time>2026-04-27T11:05:08.031Z</time></trkpt><trkpt lat="33.70854" lon="-7.3431833"><ele>30.0</ele><time>2026-04-27T11:05:09.031Z</time></trkpt><trkpt lat="33.7087433" lon="-7.3430117"><ele>28.5</ele><time>2026-04-27T11:05:10.031Z</time></trkpt><trkpt lat="33.7089383" lon="-7.3428383"><ele>27.0</ele><time>2026-04-27T11:05:11.03Z</time></trkpt><trkpt lat="33.709125" lon="-7.3426667"><ele>27.0</ele><time>2026-04-27T11:05:12.031Z</time></trkpt><trkpt lat="33.7093083" lon="-7.3424867"><ele>27.0</ele><time>2026-04-27T11:05:13.03Z</time></trkpt><trkpt lat="33.7094867" lon="-7.3423067"><ele>27.0</ele><time>2026-04-27T11:05:14.031Z</time></trkpt><trkpt lat="33.7096717" lon="-7.3421283"><ele>27.0</ele><time>2026-04-27T11:05:15.031Z</time></trkpt><trkpt lat="33.70986" lon="-7.34194"><ele>27.0</ele><time>2026-04-27T11:05:16.031Z</time></trkpt><trkpt lat="33.7100567" lon="-7.3417467"><ele>27.0</ele><time>2026-04-27T11:05:17.031Z</time></trkpt><trkpt lat="33.7102567" lon="-7.34154"><ele>24.5</ele><time>2026-04-27T11:05:18.03Z</time></trkpt><trkpt lat="33.7104517" lon="-7.3413267"><ele>22.0</ele><time>2026-04-27T11:05:19.03Z</time></trkpt><trkpt lat="33.7106567" lon="-7.3410967"><ele>22.0</ele><time>2026-04-27T11:05:20.031Z</time></trkpt><trkpt lat="33.7108633" lon="-7.34086"><ele>22.0</ele><time>2026-04-27T11:05:21.031Z</time></trkpt><trkpt lat="33.71106" lon="-7.340615"><ele>21.0</ele><time>2026-04-27T11:05:22.031Z</time></trkpt><trkpt lat="33.7112567" lon="-7.34037"><ele>20.0</ele><time>2026-04-27T11:05:23.031Z</time></trkpt><trkpt lat="33.7114533" lon="-7.3401233"><ele>20.0</ele><time>2026-04-27T11:05:24.031Z</time></trkpt><trkpt lat="33.7116433" lon="-7.3398783"><ele>20.0</ele><time>2026-04-27T11:05:25.031Z</time></trkpt><trkpt lat="33.7118333" lon="-7.3396433"><ele>19.0</ele><time>2026-04-27T11:05:26.031Z</time></trkpt><trkpt lat="33.71202" lon="-7.3394083"><ele>18.0</ele><time>2026-04-27T11:05:27.03Z</time></trkpt><trkpt lat="33.7121983" lon="-7.33916"><ele>18.0</ele><time>2026-04-27T11:05:28.031Z</time></trkpt><trkpt lat="33.71238" lon="-7.33892"><ele>18.0</ele><time>2026-04-27T11:05:29.03Z</time></trkpt><trkpt lat="33.71256" lon="-7.338675"><ele>12.5</ele><time>2026-04-27T11:05:30.031Z</time></trkpt><trkpt lat="33.71274" lon="-7.3384367"><ele>7.0</ele><time>2026-04-27T11:05:31.031Z</time></trkpt><trkpt lat="33.7129133" lon="-7.3381967"><ele>8.5</ele><time>2026-04-27T11:05:32.03Z</time></trkpt><trkpt lat="33.7130833" lon="-7.3379683"><ele>10.0</ele><time>2026-04-27T11:05:33.031Z</time></trkpt><trkpt lat="33.713255" lon="-7.33774"><ele>10.0</ele><time>2026-04-27T11:05:34.03Z</time></trkpt><trkpt lat="33.7134317" lon="-7.3375083"><ele>10.0</ele><time>2026-04-27T11:05:35.031Z</time></trkpt><trkpt lat="33.7136083" lon="-7.3372783"><ele>14.0</ele><time>2026-04-27T11:05:36.031Z</time></trkpt><trkpt lat="33.7137817" lon="-7.337045"><ele>18.0</ele><time>2026-04-27T11:05:37.031Z</time></trkpt><trkpt lat="33.7139567" lon="-7.3368117"><ele>18.0</ele><time>2026-04-27T11:05:38.031Z</time></trkpt><trkpt lat="33.7141367" lon="-7.3365767"><ele>18.0</ele><time>2026-04-27T11:05:39.031Z</time></trkpt><trkpt lat="33.7143133" lon="-7.336345"><ele>21.0</ele><time>2026-04-27T11:05:40.031Z</time></trkpt><trkpt lat="33.7144917" lon="-7.33611"><ele>24.0</ele><time>2026-04-27T11:05:41.031Z</time></trkpt><trkpt lat="33.7146683" lon="-7.3358683"><ele>24.0</ele><time>2026-04-27T11:05:42.031Z</time></trkpt><trkpt lat="33.714845" lon="-7.3356267"><ele>24.0</ele><time>2026-04-27T11:05:43.031Z</time></trkpt><trkpt lat="33.7150233" lon="-7.335385"><ele>24.5</ele><time>2026-04-27T11:05:44.031Z</time></trkpt><trkpt lat="33.715205" lon="-7.3351433"><ele>25.0</ele><time>2026-04-27T11:05:45.031Z</time></trkpt><trkpt lat="33.7153883" lon="-7.3348983"><ele>25.5</ele><time>2026-04-27T11:05:46.031Z</time></trkpt><trkpt lat="33.7155717" lon="-7.33465"><ele>26.0</ele><time>2026-04-27T11:05:47.03Z</time></trkpt><trkpt lat="33.7157583" lon="-7.3343933"><ele>26.0</ele><time>2026-04-27T11:05:48.031Z</time></trkpt><trkpt lat="33.7159433" lon="-7.33413"><ele>26.0</ele><time>2026-04-27T11:05:49.03Z</time></trkpt><trkpt lat="33.7161267" lon="-7.3338617"><ele>27.5</ele><time>2026-04-27T11:05:50.03Z</time></trkpt><trkpt lat="33.7163" lon="-7.3335983"><ele>29.0</ele><time>2026-04-27T11:05:51.031Z</time></trkpt><trkpt lat="33.71646" lon="-7.333355"><ele>29.0</ele><time>2026-04-27T11:05:52.031Z</time></trkpt><trkpt lat="33.716625" lon="-7.3331033"><ele>29.0</ele><time>2026-04-27T11:05:53.031Z</time></trkpt><trkpt lat="33.7167867" lon="-7.3328467"><ele>26.5</ele><time>2026-04-27T11:05:54.031Z</time></trkpt><trkpt lat="33.716955" lon="-7.3325933"><ele>24.0</ele><time>2026-04-27T11:05:55.03Z</time></trkpt><trkpt lat="33.71712" lon="-7.332325"><ele>25.5</ele><time>2026-04-27T11:05:56.031Z</time></trkpt><trkpt lat="33.71729" lon="-7.33206"><ele>27.0</ele><time>2026-04-27T11:05:57.031Z</time></trkpt><trkpt lat="33.7174617" lon="-7.331785"><ele>27.0</ele><time>2026-04-27T11:05:58.031Z</time></trkpt><trkpt lat="33.71763" lon="-7.3315067"><ele>27.0</ele><time>2026-04-27T11:05:59.031Z</time></trkpt><trkpt lat="33.717795" lon="-7.3312367"><ele>27.0</ele><time>2026-04-27T11:06:00.031Z</time></trkpt><trkpt lat="33.7179533" lon="-7.33096"><ele>27.0</ele><time>2026-04-27T11:06:01.03Z</time></trkpt><trkpt lat="33.7181133" lon="-7.3306917"><ele>26.5</ele><time>2026-04-27T11:06:02.031Z</time></trkpt><trkpt lat="33.71827" lon="-7.3304183"><ele>26.0</ele><time>2026-04-27T11:06:03.031Z</time></trkpt><trkpt lat="33.7184267" lon="-7.330145"><ele>26.0</ele><time>2026-04-27T11:06:04.03Z</time></trkpt><trkpt lat="33.7185817" lon="-7.32986"><ele>26.0</ele><time>2026-04-27T11:06:05.031Z</time></trkpt><trkpt lat="33.7187467" lon="-7.3295733"><ele>26.0</ele><time>2026-04-27T11:06:06.031Z</time></trkpt><trkpt lat="33.7189" lon="-7.3292717"><ele>26.0</ele><time>2026-04-27T11:06:07.03Z</time></trkpt><trkpt lat="33.71906" lon="-7.3289633"><ele>26.0</ele><time>2026-04-27T11:06:08.031Z</time></trkpt><trkpt lat="33.7192217" lon="-7.3286617"><ele>26.0</ele><time>2026-04-27T11:06:09.03Z</time></trkpt><trkpt lat="33.7193833" lon="-7.3283517"><ele>26.5</ele><time>2026-04-27T11:06:10.03Z</time></trkpt><trkpt lat="33.719545" lon="-7.3280367"><ele>27.0</ele><time>2026-04-27T11:06:11.03Z</time></trkpt><trkpt lat="33.7197033" lon="-7.32772"><ele>27.0</ele><time>2026-04-27T11:06:12.03Z</time></trkpt><trkpt lat="33.719865" lon="-7.3274033"><ele>27.0</ele><time>2026-04-27T11:06:13.03Z</time></trkpt><trkpt lat="33.720025" lon="-7.3270833"><ele>26.0</ele><time>2026-04-27T11:06:14.029Z</time></trkpt><trkpt lat="33.7201817" lon="-7.326765"><ele>25.0</ele><time>2026-04-27T11:06:15.03Z</time></trkpt><trkpt lat="33.720335" lon="-7.3264417"><ele>26.0</ele><time>2026-04-27T11:06:16.03Z</time></trkpt><trkpt lat="33.7204983" lon="-7.3261233"><ele>27.0</ele><time>2026-04-27T11:06:17.03Z</time></trkpt><trkpt lat="33.7206567" lon="-7.3258033"><ele>27.5</ele><time>2026-04-27T11:06:18.03Z</time></trkpt><trkpt lat="33.7208117" lon="-7.3254833"><ele>28.0</ele><time>2026-04-27T11:06:19.03Z</time></trkpt><trkpt lat="33.7209717" lon="-7.3251683"><ele>27.0</ele><time>2026-04-27T11:06:20.029Z</time></trkpt><trkpt lat="33.7211217" lon="-7.324855"><ele>26.0</ele><time>2026-04-27T11:06:21.03Z</time></trkpt><trkpt lat="33.7212883" lon="-7.3245467"><ele>26.0</ele><time>2026-04-27T11:06:22.029Z</time></trkpt><trkpt lat="33.721455" lon="-7.324245"><ele>26.0</ele><time>2026-04-27T11:06:23.03Z</time></trkpt><trkpt lat="33.7216117" lon="-7.32396"><ele>26.0</ele><time>2026-04-27T11:06:24.03Z</time></trkpt><trkpt lat="33.72177" lon="-7.323675"><ele>26.0</ele><time>2026-04-27T11:06:25.03Z</time></trkpt><trkpt lat="33.7219267" lon="-7.3233883"><ele>26.5</ele><time>2026-04-27T11:06:26.03Z</time></trkpt><trkpt lat="33.7220867" lon="-7.3231033"><ele>27.0</ele><time>2026-04-27T11:06:27.03Z</time></trkpt><trkpt lat="33.7222517" lon="-7.3228233"><ele>27.0</ele><time>2026-04-27T11:06:28.03Z</time></trkpt><trkpt lat="33.722425" lon="-7.32254"><ele>27.0</ele><time>2026-04-27T11:06:29.03Z</time></trkpt><trkpt lat="33.7225933" lon="-7.32226"><ele>25.5</ele><time>2026-04-27T11:06:30.03Z</time></trkpt><trkpt lat="33.7227633" lon="-7.3219783"><ele>24.0</ele><time>2026-04-27T11:06:31.029Z</time></trkpt><trkpt lat="33.722935" lon="-7.3217017"><ele>24.0</ele><time>2026-04-27T11:06:32.03Z</time></trkpt><trkpt lat="33.7231083" lon="-7.3214233"><ele>24.0</ele><time>2026-04-27T11:06:33.029Z</time></trkpt><trkpt lat="33.72328" lon="-7.3211417"><ele>25.0</ele><time>2026-04-27T11:06:34.03Z</time></trkpt><trkpt lat="33.72346" lon="-7.3208617"><ele>26.0</ele><time>2026-04-27T11:06:35.03Z</time></trkpt><trkpt lat="33.723645" lon="-7.3205817"><ele>27.0</ele><time>2026-04-27T11:06:36.03Z</time></trkpt><trkpt lat="33.72383" lon="-7.3203083"><ele>28.0</ele><time>2026-04-27T11:06:37.03Z</time></trkpt><trkpt lat="33.7240183" lon="-7.32003"><ele>28.0</ele><time>2026-04-27T11:06:38.03Z</time></trkpt><trkpt lat="33.7242067" lon="-7.3197483"><ele>28.0</ele><time>2026-04-27T11:06:39.03Z</time></trkpt><trkpt lat="33.7243967" lon="-7.3194683"><ele>27.0</ele><time>2026-04-27T11:06:40.03Z</time></trkpt><trkpt lat="33.7245917" lon="-7.3191967"><ele>26.0</ele><time>2026-04-27T11:06:41.03Z</time></trkpt><trkpt lat="33.7247883" lon="-7.318915"><ele>27.5</ele><time>2026-04-27T11:06:42.03Z</time></trkpt><trkpt lat="33.7249867" lon="-7.318635"><ele>29.0</ele><time>2026-04-27T11:06:43.03Z</time></trkpt><trkpt lat="33.725185" lon="-7.3183467"><ele>28.5</ele><time>2026-04-27T11:06:44.03Z</time></trkpt><trkpt lat="33.725395" lon="-7.3180667"><ele>28.0</ele><time>2026-04-27T11:06:45.029Z</time></trkpt><trkpt lat="33.7256033" lon="-7.31779"><ele>28.0</ele><time>2026-04-27T11:06:46.03Z</time></trkpt><trkpt lat="33.725815" lon="-7.3175067"><ele>28.0</ele><time>2026-04-27T11:06:47.03Z</time></trkpt><trkpt lat="33.726025" lon="-7.317235"><ele>27.5</ele><time>2026-04-27T11:06:48.03Z</time></trkpt><trkpt lat="33.7262367" lon="-7.3169567"><ele>27.0</ele><time>2026-04-27T11:06:49.03Z</time></trkpt><trkpt lat="33.7264467" lon="-7.3166783"><ele>27.0</ele><time>2026-04-27T11:06:50.029Z</time></trkpt><trkpt lat="33.7266467" lon="-7.3164067"><ele>27.0</ele><time>2026-04-27T11:06:51.03Z</time></trkpt><trkpt lat="33.7268483" lon="-7.316155"><ele>27.0</ele><time>2026-04-27T11:06:52.03Z</time></trkpt><trkpt lat="33.727045" lon="-7.3159017"><ele>27.0</ele><time>2026-04-27T11:06:53.029Z</time></trkpt><trkpt lat="33.727245" lon="-7.31565"><ele>28.5</ele><time>2026-04-27T11:06:54.03Z</time></trkpt><trkpt lat="33.7274467" lon="-7.3154067"><ele>30.0</ele><time>2026-04-27T11:06:55.03Z</time></trkpt><trkpt lat="33.7276417" lon="-7.3151767"><ele>30.0</ele><time>2026-04-27T11:06:56.03Z</time></trkpt><trkpt lat="33.7278417" lon="-7.3149433"><ele>30.0</ele><time>2026-04-27T11:06:57.03Z</time></trkpt><trkpt lat="33.7280417" lon="-7.3147083"><ele>30.0</ele><time>2026-04-27T11:06:58.03Z</time></trkpt><trkpt lat="33.7282433" lon="-7.3144767"><ele>30.0</ele><time>2026-04-27T11:06:59.03Z</time></trkpt><trkpt lat="33.7284433" lon="-7.3142467"><ele>29.0</ele><time>2026-04-27T11:07:00.03Z</time></trkpt><trkpt lat="33.7286383" lon="-7.3140133"><ele>28.0</ele><time>2026-04-27T11:07:01.03Z</time></trkpt><trkpt lat="33.728835" lon="-7.3137867"><ele>28.0</ele><time>2026-04-27T11:07:02.03Z</time></trkpt><trkpt lat="33.7290333" lon="-7.313555"><ele>28.0</ele><time>2026-04-27T11:07:03.03Z</time></trkpt><trkpt lat="33.729235" lon="-7.3133267"><ele>28.0</ele><time>2026-04-27T11:07:04.029Z</time></trkpt><trkpt lat="33.72944" lon="-7.313095"><ele>28.0</ele><time>2026-04-27T11:07:05.03Z</time></trkpt><trkpt lat="33.7296417" lon="-7.3128617"><ele>28.0</ele><time>2026-04-27T11:07:06.03Z</time></trkpt><trkpt lat="33.7298433" lon="-7.312625"><ele>28.0</ele><time>2026-04-27T11:07:07.03Z</time></trkpt><trkpt lat="33.7300517" lon="-7.3123917"><ele>27.5</ele><time>2026-04-27T11:07:08.03Z</time></trkpt><trkpt lat="33.7302567" lon="-7.3121567"><ele>27.0</ele><time>2026-04-27T11:07:09.03Z</time></trkpt><trkpt lat="33.73046" lon="-7.31192"><ele>27.0</ele><time>2026-04-27T11:07:10.03Z</time></trkpt><trkpt lat="33.7306533" lon="-7.311675"><ele>27.0</ele><time>2026-04-27T11:07:11.03Z</time></trkpt><trkpt lat="33.7308583" lon="-7.3114383"><ele>28.0</ele><time>2026-04-27T11:07:12.03Z</time></trkpt><trkpt lat="33.731065" lon="-7.3111967"><ele>29.0</ele><time>2026-04-27T11:07:13.03Z</time></trkpt><trkpt lat="33.731275" lon="-7.3109633"><ele>29.0</ele><time>2026-04-27T11:07:14.03Z</time></trkpt><trkpt lat="33.7314833" lon="-7.3107233"><ele>29.0</ele><time>2026-04-27T11:07:15.03Z</time></trkpt><trkpt lat="33.7316917" lon="-7.310485"><ele>28.5</ele><time>2026-04-27T11:07:16.03Z</time></trkpt><trkpt lat="33.7319" lon="-7.31024"><ele>28.0</ele><time>2026-04-27T11:07:17.029Z</time></trkpt><trkpt lat="33.7321083" lon="-7.309995"><ele>28.0</ele><time>2026-04-27T11:07:18.03Z</time></trkpt><trkpt lat="33.73232" lon="-7.30975"><ele>28.0</ele><time>2026-04-27T11:07:19.03Z</time></trkpt><trkpt lat="33.73253" lon="-7.3095033"><ele>26.5</ele><time>2026-04-27T11:07:20.03Z</time></trkpt><trkpt lat="33.7327367" lon="-7.3092617"><ele>25.0</ele><time>2026-04-27T11:07:21.03Z</time></trkpt><trkpt lat="33.7329517" lon="-7.30902"><ele>25.5</ele><time>2026-04-27T11:07:22.03Z</time></trkpt><trkpt lat="33.733175" lon="-7.308775"><ele>26.0</ele><time>2026-04-27T11:07:23.03Z</time></trkpt><trkpt lat="33.7333833" lon="-7.30853"><ele>26.0</ele><time>2026-04-27T11:07:24.029Z</time></trkpt><trkpt lat="33.733595" lon="-7.3082933"><ele>26.0</ele><time>2026-04-27T11:07:25.029Z</time></trkpt><trkpt lat="33.7338117" lon="-7.30805"><ele>27.0</ele><time>2026-04-27T11:07:26.03Z</time></trkpt><trkpt lat="33.7340317" lon="-7.307805"><ele>28.0</ele><time>2026-04-27T11:07:27.03Z</time></trkpt><trkpt lat="33.7342483" lon="-7.3075567"><ele>26.5</ele><time>2026-04-27T11:07:28.03Z</time></trkpt><trkpt lat="33.7344583" lon="-7.3073133"><ele>25.0</ele><time>2026-04-27T11:07:29.03Z</time></trkpt><trkpt lat="33.7346767" lon="-7.307065"><ele>25.0</ele><time>2026-04-27T11:07:30.03Z</time></trkpt><trkpt lat="33.7348867" lon="-7.3068217"><ele>25.0</ele><time>2026-04-27T11:07:31.03Z</time></trkpt><trkpt lat="33.7351017" lon="-7.306575"><ele>25.0</ele><time>2026-04-27T11:07:32.03Z</time></trkpt><trkpt lat="33.73531" lon="-7.3063383"><ele>25.0</ele><time>2026-04-27T11:07:33.03Z</time></trkpt><trkpt lat="33.7355067" lon="-7.30611"><ele>25.0</ele><time>2026-04-27T11:07:34.03Z</time></trkpt><trkpt lat="33.7357083" lon="-7.3058833"><ele>25.0</ele><time>2026-04-27T11:07:35.03Z</time></trkpt><trkpt lat="33.7359083" lon="-7.30566"><ele>26.0</ele><time>2026-04-27T11:07:36.03Z</time></trkpt><trkpt lat="33.73611" lon="-7.305435"><ele>27.0</ele><time>2026-04-27T11:07:37.029Z</time></trkpt><trkpt lat="33.73631" lon="-7.30521"><ele>27.0</ele><time>2026-04-27T11:07:38.03Z</time></trkpt><trkpt lat="33.7365117" lon="-7.3049817"><ele>27.0</ele><time>2026-04-27T11:07:39.03Z</time></trkpt><trkpt lat="33.7367117" lon="-7.3047433"><ele>26.0</ele><time>2026-04-27T11:07:40.03Z</time></trkpt><trkpt lat="33.73691" lon="-7.30451"><ele>25.0</ele><time>2026-04-27T11:07:41.03Z</time></trkpt><trkpt lat="33.73712" lon="-7.3042767"><ele>25.0</ele><time>2026-04-27T11:07:42.03Z</time></trkpt><trkpt lat="33.7373267" lon="-7.3040383"><ele>25.0</ele><time>2026-04-27T11:07:43.03Z</time></trkpt><trkpt lat="33.7375333" lon="-7.303795"><ele>24.5</ele><time>2026-04-27T11:07:44.03Z</time></trkpt><trkpt lat="33.7377467" lon="-7.3035483"><ele>24.0</ele><time>2026-04-27T11:07:45.03Z</time></trkpt><trkpt lat="33.7379617" lon="-7.3033117"><ele>24.0</ele><time>2026-04-27T11:07:46.029Z</time></trkpt><trkpt lat="33.7381733" lon="-7.3030667"><ele>24.0</ele><time>2026-04-27T11:07:47.03Z</time></trkpt><trkpt lat="33.7383833" lon="-7.302815"><ele>23.5</ele><time>2026-04-27T11:07:48.03Z</time></trkpt><trkpt lat="33.7386033" lon="-7.302575"><ele>23.0</ele><time>2026-04-27T11:07:49.03Z</time></trkpt><trkpt lat="33.738825" lon="-7.3023333"><ele>24.5</ele><time>2026-04-27T11:07:50.03Z</time></trkpt><trkpt lat="33.7390417" lon="-7.3020817"><ele>26.0</ele><time>2026-04-27T11:07:51.03Z</time></trkpt><trkpt lat="33.73925" lon="-7.3018317"><ele>25.5</ele><time>2026-04-27T11:07:52.03Z</time></trkpt><trkpt lat="33.7394617" lon="-7.3015767"><ele>25.0</ele><time>2026-04-27T11:07:53.03Z</time></trkpt><trkpt lat="33.7396717" lon="-7.3013217"><ele>25.0</ele><time>2026-04-27T11:07:54.03Z</time></trkpt><trkpt lat="33.7398733" lon="-7.3010783"><ele>25.0</ele><time>2026-04-27T11:07:55.03Z</time></trkpt><trkpt lat="33.7400733" lon="-7.3008367"><ele>25.0</ele><time>2026-04-27T11:07:56.03Z</time></trkpt><trkpt lat="33.740265" lon="-7.3005933"><ele>25.0</ele><time>2026-04-27T11:07:57.03Z</time></trkpt><trkpt lat="33.7404633" lon="-7.3003483"><ele>25.0</ele><time>2026-04-27T11:07:58.03Z</time></trkpt><trkpt lat="33.7406633" lon="-7.3000967"><ele>25.0</ele><time>2026-04-27T11:07:59.03Z</time></trkpt><trkpt lat="33.7408617" lon="-7.2998433"><ele>22.5</ele><time>2026-04-27T11:08:00.03Z</time></trkpt><trkpt lat="33.7410617" lon="-7.299595"><ele>20.0</ele><time>2026-04-27T11:08:01.03Z</time></trkpt><trkpt lat="33.74126" lon="-7.29934"><ele>20.0</ele><time>2026-04-27T11:08:02.029Z</time></trkpt><trkpt lat="33.7414617" lon="-7.2990833"><ele>20.0</ele><time>2026-04-27T11:08:03.03Z</time></trkpt><trkpt lat="33.7416617" lon="-7.2988267"><ele>21.5</ele><time>2026-04-27T11:08:04.03Z</time></trkpt><trkpt lat="33.7418633" lon="-7.2985633"><ele>23.0</ele><time>2026-04-27T11:08:05.03Z</time></trkpt><trkpt lat="33.7420583" lon="-7.2982933"><ele>23.5</ele><time>2026-04-27T11:08:06.03Z</time></trkpt><trkpt lat="33.7422533" lon="-7.2980167"><ele>24.0</ele><time>2026-04-27T11:08:07.03Z</time></trkpt><trkpt lat="33.7424533" lon="-7.29774"><ele>24.0</ele><time>2026-04-27T11:08:08.03Z</time></trkpt><trkpt lat="33.74265" lon="-7.2974617"><ele>24.0</ele><time>2026-04-27T11:08:09.03Z</time></trkpt><trkpt lat="33.7428433" lon="-7.2971883"><ele>24.0</ele><time>2026-04-27T11:08:10.03Z</time></trkpt><trkpt lat="33.74303" lon="-7.2969217"><ele>24.0</ele><time>2026-04-27T11:08:11.03Z</time></trkpt><trkpt lat="33.743215" lon="-7.2966533"><ele>24.0</ele><time>2026-04-27T11:08:12.03Z</time></trkpt><trkpt lat="33.7434017" lon="-7.2963917"><ele>24.0</ele><time>2026-04-27T11:08:13.03Z</time></trkpt><trkpt lat="33.7435883" lon="-7.2961233"><ele>24.0</ele><time>2026-04-27T11:08:14.03Z</time></trkpt><trkpt lat="33.7437783" lon="-7.2958533"><ele>24.0</ele><time>2026-04-27T11:08:15.029Z</time></trkpt><trkpt lat="33.7439667" lon="-7.2955783"><ele>24.5</ele><time>2026-04-27T11:08:16.03Z</time></trkpt><trkpt lat="33.744145" lon="-7.2953133"><ele>25.0</ele><time>2026-04-27T11:08:17.03Z</time></trkpt><trkpt lat="33.744325" lon="-7.2950383"><ele>24.0</ele><time>2026-04-27T11:08:18.03Z</time></trkpt><trkpt lat="33.7445167" lon="-7.294775"><ele>23.0</ele><time>2026-04-27T11:08:19.03Z</time></trkpt><trkpt lat="33.7446983" lon="-7.294515"><ele>22.5</ele><time>2026-04-27T11:08:20.03Z</time></trkpt><trkpt lat="33.74487" lon="-7.2942633"><ele>22.0</ele><time>2026-04-27T11:08:21.029Z</time></trkpt><trkpt lat="33.7450433" lon="-7.2940117"><ele>22.5</ele><time>2026-04-27T11:08:22.03Z</time></trkpt><trkpt lat="33.745215" lon="-7.29376"><ele>23.0</ele><time>2026-04-27T11:08:23.029Z</time></trkpt><trkpt lat="33.7453817" lon="-7.2935083"><ele>23.0</ele><time>2026-04-27T11:08:24.03Z</time></trkpt><trkpt lat="33.7455467" lon="-7.2932517"><ele>23.0</ele><time>2026-04-27T11:08:25.03Z</time></trkpt><trkpt lat="33.745715" lon="-7.292995"><ele>23.0</ele><time>2026-04-27T11:08:26.03Z</time></trkpt><trkpt lat="33.74589" lon="-7.2927333"><ele>23.0</ele><time>2026-04-27T11:08:27.03Z</time></trkpt><trkpt lat="33.746065" lon="-7.2924733"><ele>22.5</ele><time>2026-04-27T11:08:28.03Z</time></trkpt><trkpt lat="33.7462483" lon="-7.292205"><ele>22.0</ele><time>2026-04-27T11:08:29.03Z</time></trkpt><trkpt lat="33.7464333" lon="-7.291935"><ele>22.0</ele><time>2026-04-27T11:08:30.03Z</time></trkpt><trkpt lat="33.7466217" lon="-7.29166"><ele>22.0</ele><time>2026-04-27T11:08:31.03Z</time></trkpt><trkpt lat="33.7468067" lon="-7.291385"><ele>19.5</ele><time>2026-04-27T11:08:32.03Z</time></trkpt><trkpt lat="33.746995" lon="-7.2911"><ele>17.0</ele><time>2026-04-27T11:08:33.03Z</time></trkpt><trkpt lat="33.74718" lon="-7.2908083"><ele>19.5</ele><time>2026-04-27T11:08:34.03Z</time></trkpt><trkpt lat="33.7473667" lon="-7.2905233"><ele>22.0</ele><time>2026-04-27T11:08:35.03Z</time></trkpt><trkpt lat="33.7475467" lon="-7.2902383"><ele>23.0</ele><time>2026-04-27T11:08:36.03Z</time></trkpt><trkpt lat="33.74772" lon="-7.289955"><ele>24.0</ele><time>2026-04-27T11:08:37.03Z</time></trkpt><trkpt lat="33.7478933" lon="-7.2896783"><ele>25.0</ele><time>2026-04-27T11:08:38.03Z</time></trkpt><trkpt lat="33.7480633" lon="-7.2893967"><ele>26.0</ele><time>2026-04-27T11:08:39.03Z</time></trkpt><trkpt lat="33.7482283" lon="-7.28912"><ele>25.5</ele><time>2026-04-27T11:08:40.03Z</time></trkpt><trkpt lat="33.748385" lon="-7.2888517"><ele>25.0</ele><time>2026-04-27T11:08:41.03Z</time></trkpt><trkpt lat="33.74855" lon="-7.2885867"><ele>24.5</ele><time>2026-04-27T11:08:42.03Z</time></trkpt><trkpt lat="33.7487117" lon="-7.2883167"><ele>24.0</ele><time>2026-04-27T11:08:43.03Z</time></trkpt><trkpt lat="33.748875" lon="-7.2880483"><ele>25.0</ele><time>2026-04-27T11:08:44.03Z</time></trkpt><trkpt lat="33.7490383" lon="-7.2877833"><ele>26.0</ele><time>2026-04-27T11:08:45.03Z</time></trkpt><trkpt lat="33.7491967" lon="-7.2875183"><ele>27.0</ele><time>2026-04-27T11:08:46.03Z</time></trkpt><trkpt lat="33.7493517" lon="-7.28725"><ele>28.0</ele><time>2026-04-27T11:08:47.029Z</time></trkpt><trkpt lat="33.7494983" lon="-7.2869783"><ele>28.0</ele><time>2026-04-27T11:08:48.03Z</time></trkpt><trkpt lat="33.7496517" lon="-7.2867117"><ele>28.0</ele><time>2026-04-27T11:08:49.03Z</time></trkpt><trkpt lat="33.7497933" lon="-7.286445"><ele>29.0</ele><time>2026-04-27T11:08:50.03Z</time></trkpt><trkpt lat="33.74994" lon="-7.2861767"><ele>30.0</ele><time>2026-04-27T11:08:51.03Z</time></trkpt><trkpt lat="33.7500917" lon="-7.2859117"><ele>31.0</ele><time>2026-04-27T11:08:52.03Z</time></trkpt><trkpt lat="33.750245" lon="-7.2856517"><ele>32.0</ele><time>2026-04-27T11:08:53.03Z</time></trkpt><trkpt lat="33.750395" lon="-7.285385"><ele>32.0</ele><time>2026-04-27T11:08:54.03Z</time></trkpt><trkpt lat="33.7505467" lon="-7.28512"><ele>32.0</ele><time>2026-04-27T11:08:55.03Z</time></trkpt><trkpt lat="33.7506967" lon="-7.284845"><ele>32.0</ele><time>2026-04-27T11:08:56.03Z</time></trkpt><trkpt lat="33.750845" lon="-7.28456"><ele>32.0</ele><time>2026-04-27T11:08:57.03Z</time></trkpt><trkpt lat="33.7509967" lon="-7.2842817"><ele>31.0</ele><time>2026-04-27T11:08:58.03Z</time></trkpt><trkpt lat="33.7511467" lon="-7.2839967"><ele>30.0</ele><time>2026-04-27T11:08:59.03Z</time></trkpt><trkpt lat="33.7512967" lon="-7.2837117"><ele>30.0</ele><time>2026-04-27T11:09:00.03Z</time></trkpt><trkpt lat="33.7514467" lon="-7.2834217"><ele>30.0</ele><time>2026-04-27T11:09:01.03Z</time></trkpt><trkpt lat="33.751595" lon="-7.2831283"><ele>30.0</ele><time>2026-04-27T11:09:02.03Z</time></trkpt><trkpt lat="33.75175" lon="-7.2828383"><ele>30.0</ele><time>2026-04-27T11:09:03.03Z</time></trkpt><trkpt lat="33.751905" lon="-7.2825467"><ele>30.5</ele><time>2026-04-27T11:09:04.029Z</time></trkpt><trkpt lat="33.7520533" lon="-7.2822567"><ele>31.0</ele><time>2026-04-27T11:09:05.029Z</time></trkpt><trkpt lat="33.7522017" lon="-7.2819583"><ele>31.0</ele><time>2026-04-27T11:09:06.029Z</time></trkpt><trkpt lat="33.7523467" lon="-7.2816617"><ele>31.0</ele><time>2026-04-27T11:09:07.03Z</time></trkpt><trkpt lat="33.752495" lon="-7.2813633"><ele>30.5</ele><time>2026-04-27T11:09:08.03Z</time></trkpt><trkpt lat="33.752645" lon="-7.2810717"><ele>30.0</ele><time>2026-04-27T11:09:09.029Z</time></trkpt><trkpt lat="33.7527983" lon="-7.2807817"><ele>32.0</ele><time>2026-04-27T11:09:10.03Z</time></trkpt><trkpt lat="33.7529467" lon="-7.280495"><ele>34.0</ele><time>2026-04-27T11:09:11.03Z</time></trkpt><trkpt lat="33.7530933" lon="-7.2802017"><ele>34.0</ele><time>2026-04-27T11:09:12.03Z</time></trkpt><trkpt lat="33.7532333" lon="-7.279905"><ele>34.0</ele><time>2026-04-27T11:09:13.03Z</time></trkpt><trkpt lat="33.7533767" lon="-7.27961"><ele>34.0</ele><time>2026-04-27T11:09:14.029Z</time></trkpt><trkpt lat="33.7535217" lon="-7.2793167"><ele>34.0</ele><time>2026-04-27T11:09:15.03Z</time></trkpt><trkpt lat="33.7536667" lon="-7.2790233"><ele>33.5</ele><time>2026-04-27T11:09:16.03Z</time></trkpt><trkpt lat="33.753805" lon="-7.278725"><ele>33.0</ele><time>2026-04-27T11:09:17.03Z</time></trkpt><trkpt lat="33.7539467" lon="-7.2784233"><ele>33.0</ele><time>2026-04-27T11:09:18.03Z</time></trkpt><trkpt lat="33.75408" lon="-7.278125"><ele>33.0</ele><time>2026-04-27T11:09:19.03Z</time></trkpt><trkpt lat="33.7542167" lon="-7.2778333"><ele>33.5</ele><time>2026-04-27T11:09:20.03Z</time></trkpt><trkpt lat="33.7543583" lon="-7.27754"><ele>34.0</ele><time>2026-04-27T11:09:21.03Z</time></trkpt><trkpt lat="33.7544967" lon="-7.277245"><ele>34.5</ele><time>2026-04-27T11:09:22.03Z</time></trkpt><trkpt lat="33.75463" lon="-7.2769583"><ele>35.0</ele><time>2026-04-27T11:09:23.03Z</time></trkpt><trkpt lat="33.7547567" lon="-7.2766767"><ele>35.0</ele><time>2026-04-27T11:09:24.03Z</time></trkpt><trkpt lat="33.7548833" lon="-7.2763833"><ele>35.0</ele><time>2026-04-27T11:09:25.03Z</time></trkpt><trkpt lat="33.75501" lon="-7.2760917"><ele>35.0</ele><time>2026-04-27T11:09:26.03Z</time></trkpt><trkpt lat="33.75514" lon="-7.2757967"><ele>35.0</ele><time>2026-04-27T11:09:27.03Z</time></trkpt><trkpt lat="33.7552717" lon="-7.2754983"><ele>35.5</ele><time>2026-04-27T11:09:28.03Z</time></trkpt><trkpt lat="33.755405" lon="-7.2752"><ele>36.0</ele><time>2026-04-27T11:09:29.029Z</time></trkpt><trkpt lat="33.7555417" lon="-7.274895"><ele>36.5</ele><time>2026-04-27T11:09:30.03Z</time></trkpt><trkpt lat="33.7556817" lon="-7.2745967"><ele>37.0</ele><time>2026-04-27T11:09:31.03Z</time></trkpt><trkpt lat="33.7558233" lon="-7.274295"><ele>37.0</ele><time>2026-04-27T11:09:32.03Z</time></trkpt><trkpt lat="33.755955" lon="-7.27398"><ele>37.0</ele><time>2026-04-27T11:09:33.03Z</time></trkpt><trkpt lat="33.756095" lon="-7.2736717"><ele>37.0</ele><time>2026-04-27T11:09:34.03Z</time></trkpt><trkpt lat="33.7562317" lon="-7.2733583"><ele>37.0</ele><time>2026-04-27T11:09:35.03Z</time></trkpt><trkpt lat="33.7563633" lon="-7.2730417"><ele>37.0</ele><time>2026-04-27T11:09:36.03Z</time></trkpt><trkpt lat="33.7564883" lon="-7.2727183"><ele>37.0</ele><time>2026-04-27T11:09:37.029Z</time></trkpt><trkpt lat="33.7566233" lon="-7.2723983"><ele>37.5</ele><time>2026-04-27T11:09:38.03Z</time></trkpt><trkpt lat="33.756755" lon="-7.2720833"><ele>38.0</ele><time>2026-04-27T11:09:39.03Z</time></trkpt><trkpt lat="33.7568833" lon="-7.2717683"><ele>38.0</ele><time>2026-04-27T11:09:40.03Z</time></trkpt><trkpt lat="33.75701" lon="-7.2714567"><ele>38.0</ele><time>2026-04-27T11:09:41.03Z</time></trkpt><trkpt lat="33.757135" lon="-7.2711467"><ele>38.0</ele><time>2026-04-27T11:09:42.03Z</time></trkpt><trkpt lat="33.75726" lon="-7.270835"><ele>38.0</ele><time>2026-04-27T11:09:43.03Z</time></trkpt><trkpt lat="33.7573867" lon="-7.2705233"><ele>39.0</ele><time>2026-04-27T11:09:44.03Z</time></trkpt><trkpt lat="33.75751" lon="-7.2702067"><ele>40.0</ele><time>2026-04-27T11:09:45.03Z</time></trkpt><trkpt lat="33.75763" lon="-7.2698867"><ele>38.5</ele><time>2026-04-27T11:09:46.03Z</time></trkpt><trkpt lat="33.7577483" lon="-7.2695617"><ele>37.0</ele><time>2026-04-27T11:09:47.03Z</time></trkpt><trkpt lat="33.7578633" lon="-7.26924"><ele>38.0</ele><time>2026-04-27T11:09:48.03Z</time></trkpt><trkpt lat="33.757985" lon="-7.2689167"><ele>39.0</ele><time>2026-04-27T11:09:49.03Z</time></trkpt><trkpt lat="33.7581033" lon="-7.26859"><ele>39.0</ele><time>2026-04-27T11:09:50.03Z</time></trkpt><trkpt lat="33.7582183" lon="-7.2682567"><ele>39.0</ele><time>2026-04-27T11:09:51.03Z</time></trkpt><trkpt lat="33.7583367" lon="-7.267925"><ele>38.0</ele><time>2026-04-27T11:09:52.029Z</time></trkpt><trkpt lat="33.7584517" lon="-7.26759"><ele>37.0</ele><time>2026-04-27T11:09:53.03Z</time></trkpt><trkpt lat="33.758575" lon="-7.2672583"><ele>36.5</ele><time>2026-04-27T11:09:54.029Z</time></trkpt><trkpt lat="33.7586967" lon="-7.26693"><ele>36.0</ele><time>2026-04-27T11:09:55.03Z</time></trkpt><trkpt lat="33.7588083" lon="-7.26661"><ele>36.0</ele><time>2026-04-27T11:09:56.03Z</time></trkpt><trkpt lat="33.7589183" lon="-7.2662967"><ele>36.0</ele><time>2026-04-27T11:09:57.03Z</time></trkpt><trkpt lat="33.7590283" lon="-7.26598"><ele>36.0</ele><time>2026-04-27T11:09:58.03Z</time></trkpt><trkpt lat="33.7591383" lon="-7.2656667"><ele>36.0</ele><time>2026-04-27T11:09:59.03Z</time></trkpt><trkpt lat="33.7592533" lon="-7.2653533"><ele>36.5</ele><time>2026-04-27T11:10:00.03Z</time></trkpt><trkpt lat="33.7593667" lon="-7.2650433"><ele>37.0</ele><time>2026-04-27T11:10:01.03Z</time></trkpt><trkpt lat="33.7594817" lon="-7.264735"><ele>37.5</ele><time>2026-04-27T11:10:02.03Z</time></trkpt><trkpt lat="33.7596" lon="-7.2644267"><ele>38.0</ele><time>2026-04-27T11:10:03.03Z</time></trkpt><trkpt lat="33.7597217" lon="-7.2641133"><ele>38.0</ele><time>2026-04-27T11:10:04.03Z</time></trkpt><trkpt lat="33.7598433" lon="-7.2638033"><ele>38.0</ele><time>2026-04-27T11:10:05.029Z</time></trkpt><trkpt lat="33.75997" lon="-7.2634867"><ele>38.0</ele><time>2026-04-27T11:10:06.03Z</time></trkpt><trkpt lat="33.7600933" lon="-7.2631683"><ele>38.0</ele><time>2026-04-27T11:10:07.029Z</time></trkpt><trkpt lat="33.7602167" lon="-7.26285"><ele>38.0</ele><time>2026-04-27T11:10:08.03Z</time></trkpt><trkpt lat="33.7603433" lon="-7.2625433"><ele>38.0</ele><time>2026-04-27T11:10:09.03Z</time></trkpt><trkpt lat="33.7604733" lon="-7.262235"><ele>38.0</ele><time>2026-04-27T11:10:10.03Z</time></trkpt><trkpt lat="33.7606" lon="-7.261925"><ele>38.0</ele><time>2026-04-27T11:10:11.03Z</time></trkpt><trkpt lat="33.7607383" lon="-7.2616067"><ele>38.0</ele><time>2026-04-27T11:10:12.03Z</time></trkpt><trkpt lat="33.7608833" lon="-7.2612733"><ele>38.0</ele><time>2026-04-27T11:10:13.03Z</time></trkpt><trkpt lat="33.76104" lon="-7.26094"><ele>38.5</ele><time>2026-04-27T11:10:14.03Z</time></trkpt><trkpt lat="33.7611867" lon="-7.2606017"><ele>39.0</ele><time>2026-04-27T11:10:15.03Z</time></trkpt><trkpt lat="33.76133" lon="-7.2602633"><ele>39.0</ele><time>2026-04-27T11:10:16.03Z</time></trkpt><trkpt lat="33.761485" lon="-7.259955"><ele>39.0</ele><time>2026-04-27T11:10:17.03Z</time></trkpt><trkpt lat="33.7616367" lon="-7.2596383"><ele>38.0</ele><time>2026-04-27T11:10:18.03Z</time></trkpt><trkpt lat="33.76179" lon="-7.25932"><ele>37.0</ele><time>2026-04-27T11:10:19.03Z</time></trkpt><trkpt lat="33.76195" lon="-7.2590067"><ele>37.5</ele><time>2026-04-27T11:10:20.03Z</time></trkpt><trkpt lat="33.7621133" lon="-7.2586833"><ele>38.0</ele><time>2026-04-27T11:10:21.03Z</time></trkpt><trkpt lat="33.7622717" lon="-7.2583667"><ele>38.0</ele><time>2026-04-27T11:10:22.03Z</time></trkpt><trkpt lat="33.76243" lon="-7.2580533"><ele>38.0</ele><time>2026-04-27T11:10:23.03Z</time></trkpt><trkpt lat="33.762585" lon="-7.2577467"><ele>38.0</ele><time>2026-04-27T11:10:24.03Z</time></trkpt><trkpt lat="33.7627383" lon="-7.2574483"><ele>38.0</ele><time>2026-04-27T11:10:25.029Z</time></trkpt><trkpt lat="33.7628967" lon="-7.2571533"><ele>38.0</ele><time>2026-04-27T11:10:26.03Z</time></trkpt><trkpt lat="33.76305" lon="-7.2568517"><ele>38.0</ele><time>2026-04-27T11:10:27.03Z</time></trkpt><trkpt lat="33.76321" lon="-7.2565567"><ele>37.0</ele><time>2026-04-27T11:10:28.03Z</time></trkpt><trkpt lat="33.7633667" lon="-7.2562617"><ele>36.0</ele><time>2026-04-27T11:10:29.03Z</time></trkpt><trkpt lat="33.7635217" lon="-7.25597"><ele>36.0</ele><time>2026-04-27T11:10:30.03Z</time></trkpt><trkpt lat="33.7636783" lon="-7.2556817"><ele>36.0</ele><time>2026-04-27T11:10:31.03Z</time></trkpt><trkpt lat="33.7638367" lon="-7.2553933"><ele>36.0</ele><time>2026-04-27T11:10:32.03Z</time></trkpt><trkpt lat="33.7640033" lon="-7.25511"><ele>36.0</ele><time>2026-04-27T11:10:33.03Z</time></trkpt><trkpt lat="33.7641733" lon="-7.2548283"><ele>36.0</ele><time>2026-04-27T11:10:34.03Z</time></trkpt><trkpt lat="33.7643467" lon="-7.2545483"><ele>36.0</ele><time>2026-04-27T11:10:35.03Z</time></trkpt><trkpt lat="33.7645183" lon="-7.2542717"><ele>36.0</ele><time>2026-04-27T11:10:36.03Z</time></trkpt><trkpt lat="33.7646917" lon="-7.2539917"><ele>36.0</ele><time>2026-04-27T11:10:37.03Z</time></trkpt><trkpt lat="33.7648633" lon="-7.2537133"><ele>36.0</ele><time>2026-04-27T11:10:38.03Z</time></trkpt><trkpt lat="33.7650367" lon="-7.2534367"><ele>36.0</ele><time>2026-04-27T11:10:39.03Z</time></trkpt><trkpt lat="33.7652167" lon="-7.253165"><ele>35.0</ele><time>2026-04-27T11:10:40.03Z</time></trkpt><trkpt lat="33.7654083" lon="-7.252885"><ele>34.0</ele><time>2026-04-27T11:10:41.03Z</time></trkpt><trkpt lat="33.7656017" lon="-7.252605"><ele>34.0</ele><time>2026-04-27T11:10:42.03Z</time></trkpt><trkpt lat="33.7657883" lon="-7.252325"><ele>34.0</ele><time>2026-04-27T11:10:43.03Z</time></trkpt><trkpt lat="33.7659667" lon="-7.252045"><ele>34.0</ele><time>2026-04-27T11:10:44.03Z</time></trkpt><trkpt lat="33.76614" lon="-7.2517667"><ele>34.0</ele><time>2026-04-27T11:10:45.029Z</time></trkpt><trkpt lat="33.7663233" lon="-7.2514917"><ele>34.5</ele><time>2026-04-27T11:10:46.03Z</time></trkpt><trkpt lat="33.7665117" lon="-7.2512117"><ele>35.0</ele><time>2026-04-27T11:10:47.03Z</time></trkpt><trkpt lat="33.7667" lon="-7.250935"><ele>35.0</ele><time>2026-04-27T11:10:48.03Z</time></trkpt><trkpt lat="33.766885" lon="-7.250655"><ele>35.0</ele><time>2026-04-27T11:10:49.03Z</time></trkpt><trkpt lat="33.76707" lon="-7.2503817"><ele>34.5</ele><time>2026-04-27T11:10:50.03Z</time></trkpt><trkpt lat="33.767255" lon="-7.2501017"><ele>34.0</ele><time>2026-04-27T11:10:51.03Z</time></trkpt><trkpt lat="33.7674367" lon="-7.2498167"><ele>34.0</ele><time>2026-04-27T11:10:52.03Z</time></trkpt><trkpt lat="33.7676083" lon="-7.249525"><ele>34.0</ele><time>2026-04-27T11:10:53.03Z</time></trkpt><trkpt lat="33.76779" lon="-7.2492483"><ele>33.5</ele><time>2026-04-27T11:10:54.03Z</time></trkpt><trkpt lat="33.7679667" lon="-7.2489683"><ele>33.0</ele><time>2026-04-27T11:10:55.029Z</time></trkpt><trkpt lat="33.768145" lon="-7.2486883"><ele>33.0</ele><time>2026-04-27T11:10:56.03Z</time></trkpt><trkpt lat="33.76832" lon="-7.2484083"><ele>33.0</ele><time>2026-04-27T11:10:57.03Z</time></trkpt><trkpt lat="33.7684933" lon="-7.24814"><ele>32.5</ele><time>2026-04-27T11:10:58.03Z</time></trkpt><trkpt lat="33.768665" lon="-7.2478833"><ele>32.0</ele><time>2026-04-27T11:10:59.03Z</time></trkpt><trkpt lat="33.7688383" lon="-7.24762"><ele>32.0</ele><time>2026-04-27T11:11:00.03Z</time></trkpt><trkpt lat="33.7690117" lon="-7.2473533"><ele>32.0</ele><time>2026-04-27T11:11:01.029Z</time></trkpt><trkpt lat="33.7691833" lon="-7.2470883"><ele>32.5</ele><time>2026-04-27T11:11:02.03Z</time></trkpt><trkpt lat="33.7693517" lon="-7.2468217"><ele>33.0</ele><time>2026-04-27T11:11:03.03Z</time></trkpt><trkpt lat="33.7695183" lon="-7.24657"><ele>34.0</ele><time>2026-04-27T11:11:04.03Z</time></trkpt><trkpt lat="33.7696883" lon="-7.246315"><ele>35.0</ele><time>2026-04-27T11:11:05.03Z</time></trkpt><trkpt lat="33.7698533" lon="-7.2460617"><ele>35.0</ele><time>2026-04-27T11:11:06.03Z</time></trkpt><trkpt lat="33.7700183" lon="-7.245805"><ele>35.0</ele><time>2026-04-27T11:11:07.03Z</time></trkpt><trkpt lat="33.7701917" lon="-7.245545"><ele>34.5</ele><time>2026-04-27T11:11:08.03Z</time></trkpt><trkpt lat="33.770365" lon="-7.2452867"><ele>34.0</ele><time>2026-04-27T11:11:09.03Z</time></trkpt><trkpt lat="33.770535" lon="-7.2450233"><ele>34.5</ele><time>2026-04-27T11:11:10.03Z</time></trkpt><trkpt lat="33.7707117" lon="-7.2447533"><ele>35.0</ele><time>2026-04-27T11:11:11.03Z</time></trkpt><trkpt lat="33.7708833" lon="-7.2444867"><ele>35.0</ele><time>2026-04-27T11:11:12.03Z</time></trkpt><trkpt lat="33.7710583" lon="-7.2442167"><ele>35.0</ele><time>2026-04-27T11:11:13.03Z</time></trkpt><trkpt lat="33.7712367" lon="-7.24394"><ele>34.5</ele><time>2026-04-27T11:11:14.03Z</time></trkpt><trkpt lat="33.771415" lon="-7.2436633"><ele>34.0</ele><time>2026-04-27T11:11:15.03Z</time></trkpt><trkpt lat="33.7715983" lon="-7.2433933"><ele>33.5</ele><time>2026-04-27T11:11:16.03Z</time></trkpt><trkpt lat="33.771775" lon="-7.2431167"><ele>33.0</ele><time>2026-04-27T11:11:17.03Z</time></trkpt><trkpt lat="33.7719533" lon="-7.2428433"><ele>33.0</ele><time>2026-04-27T11:11:18.03Z</time></trkpt><trkpt lat="33.772125" lon="-7.24258"><ele>33.0</ele><time>2026-04-27T11:11:19.03Z</time></trkpt><trkpt lat="33.7722933" lon="-7.242335"><ele>33.5</ele><time>2026-04-27T11:11:20.03Z</time></trkpt><trkpt lat="33.7724533" lon="-7.2420833"><ele>34.0</ele><time>2026-04-27T11:11:21.03Z</time></trkpt><trkpt lat="33.7726133" lon="-7.2418283"><ele>34.0</ele><time>2026-04-27T11:11:22.03Z</time></trkpt><trkpt lat="33.772775" lon="-7.241575"><ele>34.0</ele><time>2026-04-27T11:11:23.03Z</time></trkpt><trkpt lat="33.7729433" lon="-7.2413267"><ele>33.5</ele><time>2026-04-27T11:11:24.03Z</time></trkpt><trkpt lat="33.7731117" lon="-7.241075"><ele>33.0</ele><time>2026-04-27T11:11:25.03Z</time></trkpt><trkpt lat="33.7732817" lon="-7.2408167"><ele>33.5</ele><time>2026-04-27T11:11:26.03Z</time></trkpt><trkpt lat="33.77344" lon="-7.240565"><ele>34.0</ele><time>2026-04-27T11:11:27.03Z</time></trkpt><trkpt lat="33.7736" lon="-7.2403183"><ele>34.5</ele><time>2026-04-27T11:11:28.03Z</time></trkpt><trkpt lat="33.7737633" lon="-7.2400683"><ele>35.0</ele><time>2026-04-27T11:11:29.03Z</time></trkpt><trkpt lat="33.7739283" lon="-7.239815"><ele>34.5</ele><time>2026-04-27T11:11:30.03Z</time></trkpt><trkpt lat="33.7740933" lon="-7.2395617"><ele>34.0</ele><time>2026-04-27T11:11:31.03Z</time></trkpt><trkpt lat="33.7742583" lon="-7.23931"><ele>33.5</ele><time>2026-04-27T11:11:32.03Z</time></trkpt><trkpt lat="33.7744217" lon="-7.23906"><ele>33.0</ele><time>2026-04-27T11:11:33.03Z</time></trkpt><trkpt lat="33.7745767" lon="-7.23882"><ele>34.0</ele><time>2026-04-27T11:11:34.03Z</time></trkpt><trkpt lat="33.7747233" lon="-7.2385833"><ele>35.0</ele><time>2026-04-27T11:11:35.03Z</time></trkpt><trkpt lat="33.774865" lon="-7.23836"><ele>35.0</ele><time>2026-04-27T11:11:36.03Z</time></trkpt><trkpt lat="33.7750067" lon="-7.238135"><ele>35.0</ele><time>2026-04-27T11:11:37.03Z</time></trkpt><trkpt lat="33.775155" lon="-7.2379183"><ele>35.33333333333333</ele><time>2026-04-27T11:11:38.03Z</time></trkpt><trkpt lat="33.7752967" lon="-7.237705"><ele>35.666666666666664</ele><time>2026-04-27T11:11:39.029Z</time></trkpt><trkpt lat="33.7754267" lon="-7.2374967"><ele>36.0</ele><time>2026-04-27T11:11:40.03Z</time></trkpt><trkpt lat="33.7755617" lon="-7.2373"><ele>35.0</ele><time>2026-04-27T11:11:41.03Z</time></trkpt><trkpt lat="33.7756867" lon="-7.2371033"><ele>34.0</ele><time>2026-04-27T11:11:42.03Z</time></trkpt><trkpt lat="33.7758117" lon="-7.2369167"><ele>33.0</ele><time>2026-04-27T11:11:43.03Z</time></trkpt><trkpt lat="33.77593" lon="-7.2367317"><ele>33.333333333333336</ele><time>2026-04-27T11:11:44.03Z</time></trkpt><trkpt lat="33.776045" lon="-7.2365567"><ele>33.66666666666667</ele><time>2026-04-27T11:11:45.03Z</time></trkpt><trkpt lat="33.7761533" lon="-7.2363783"><ele>34.0</ele><time>2026-04-27T11:11:46.03Z</time></trkpt><trkpt lat="33.7762567" lon="-7.236195"><ele>34.0</ele><time>2026-04-27T11:11:47.03Z</time></trkpt><trkpt lat="33.776355" lon="-7.2360283"><ele>34.0</ele><time>2026-04-27T11:11:48.03Z</time></trkpt><trkpt lat="33.7764517" lon="-7.235865"><ele>34.0</ele><time>2026-04-27T11:11:49.03Z</time></trkpt><trkpt lat="33.7765467" lon="-7.23571"><ele>34.0</ele><time>2026-04-27T11:11:50.03Z</time></trkpt><trkpt lat="33.77664" lon="-7.23556"><ele>34.0</ele><time>2026-04-27T11:11:51.029Z</time></trkpt><trkpt lat="33.7767283" lon="-7.2354217"><ele>34.0</ele><time>2026-04-27T11:11:52.03Z</time></trkpt><trkpt lat="33.7768083" lon="-7.2352867"><ele>34.0</ele><time>2026-04-27T11:11:53.03Z</time></trkpt><trkpt lat="33.7768817" lon="-7.2351517"><ele>34.0</ele><time>2026-04-27T11:11:54.03Z</time></trkpt><trkpt lat="33.77695" lon="-7.235025"><ele>34.0</ele><time>2026-04-27T11:11:55.03Z</time></trkpt><trkpt lat="33.7770133" lon="-7.2349033"><ele>34.0</ele><time>2026-04-27T11:11:56.03Z</time></trkpt><trkpt lat="33.77707" lon="-7.2347833"><ele>34.0</ele><time>2026-04-27T11:11:57.029Z</time></trkpt><trkpt lat="33.77713" lon="-7.23467"><ele>33.4</ele><time>2026-04-27T11:11:58.03Z</time></trkpt><trkpt lat="33.7771817" lon="-7.2345483"><ele>32.8</ele><time>2026-04-27T11:11:59.03Z</time></trkpt><trkpt lat="33.77721" lon="-7.234435"><ele>32.2</ele><time>2026-04-27T11:12:00.03Z</time></trkpt><trkpt lat="33.7772167" lon="-7.234335"><ele>31.6</ele><time>2026-04-27T11:12:01.03Z</time></trkpt><trkpt lat="33.7772083" lon="-7.23421"><ele>31.0</ele><time>2026-04-27T11:12:03.029Z</time></trkpt><trkpt lat="33.7771717" lon="-7.2341033"><ele>31.000000000000004</ele><time>2026-04-27T11:12:06.029Z</time></trkpt><trkpt lat="33.7771667" lon="-7.2340267"><ele>31.0</ele><time>2026-04-27T11:12:08.029Z</time></trkpt><trkpt lat="33.7771633" lon="-7.23394"><ele>31.0</ele><time>2026-04-27T11:12:13.029Z</time></trkpt><trkpt lat="33.7771983" lon="-7.2337683"><ele>31.0</ele><time>2026-04-27T11:17:06.028Z</time></trkpt><trkpt lat="33.7771183" lon="-7.23372"><ele>31.000000000000004</ele><time>2026-04-27T11:17:10.029Z</time></trkpt><trkpt lat="33.7770533" lon="-7.2336867"><ele>31.0</ele><time>2026-04-27T11:17:12.029Z</time></trkpt><trkpt lat="33.7769733" lon="-7.23363"><ele>31.142857142857146</ele><time>2026-04-27T11:17:15.029Z</time></trkpt><trkpt lat="33.776985" lon="-7.23355"><ele>31.28571428571429</ele><time>2026-04-27T11:17:18.029Z</time></trkpt><trkpt lat="33.7770617" lon="-7.233565"><ele>31.42857142857143</ele><time>2026-04-27T11:17:22.029Z</time></trkpt><trkpt lat="33.777125" lon="-7.2335817"><ele>31.57142857142857</ele><time>2026-04-27T11:17:25.029Z</time></trkpt><trkpt lat="33.7771883" lon="-7.2336133"><ele>31.71428571428571</ele><time>2026-04-27T11:17:29.029Z</time></trkpt><trkpt lat="33.77726" lon="-7.2336317"><ele>31.857142857142854</ele><time>2026-04-27T11:17:33.029Z</time></trkpt><trkpt lat="33.7773317" lon="-7.233655"><ele>32.0</ele><time>2026-04-27T11:17:37.029Z</time></trkpt><trkpt lat="33.7774483" lon="-7.23365"><ele>31.999999999999996</ele><time>2026-04-27T11:18:52.028Z</time></trkpt><trkpt lat="33.7775067" lon="-7.2336967"><ele>32.0</ele><time>2026-04-27T11:23:23.027Z</time></trkpt><trkpt lat="33.7775733" lon="-7.23371"><ele>32.0</ele><time>2026-04-27T11:23:27.026Z</time></trkpt><trkpt lat="33.7776267" lon="-7.23361"><ele>32.0</ele><time>2026-04-27T11:23:29.027Z</time></trkpt><trkpt lat="33.777675" lon="-7.2334933"><ele>31.999999999999996</ele><time>2026-04-27T11:23:31.027Z</time></trkpt><trkpt lat="33.7776967" lon="-7.23339"><ele>32.0</ele><time>2026-04-27T11:23:33.027Z</time></trkpt><trkpt lat="33.77771" lon="-7.23331"><ele>31.999999999999996</ele><time>2026-04-27T11:23:35.027Z</time></trkpt><trkpt lat="33.7777317" lon="-7.2331967"><ele>32.0</ele><time>2026-04-27T11:23:38.027Z</time></trkpt><trkpt lat="33.7777583" lon="-7.233125"><ele>32.0</ele><time>2026-04-27T11:23:40.027Z</time></trkpt><trkpt lat="33.77779" lon="-7.23304"><ele>32.0</ele><time>2026-04-27T11:23:43.027Z</time></trkpt><trkpt lat="33.777835" lon="-7.232915"><ele>31.999999999999996</ele><time>2026-04-27T11:23:53.027Z</time></trkpt><trkpt lat="33.777855" lon="-7.2328333"><ele>32.0</ele><time>2026-04-27T11:23:55.027Z</time></trkpt><trkpt lat="33.7778567" lon="-7.2327167"><ele>32.0</ele><time>2026-04-27T11:23:57.027Z</time></trkpt><trkpt lat="33.7778717" lon="-7.2325867"><ele>32.0</ele><time>2026-04-27T11:23:59.027Z</time></trkpt><trkpt lat="33.7778967" lon="-7.2325017"><ele>32.0</ele><time>2026-04-27T11:24:01.027Z</time></trkpt><trkpt lat="33.7779483" lon="-7.2324033"><ele>32.0</ele><time>2026-04-27T11:24:10.026Z</time></trkpt><trkpt lat="33.7780233" lon="-7.2323467"><ele>32.0</ele><time>2026-04-27T11:24:12.027Z</time></trkpt><trkpt lat="33.7781333" lon="-7.2323033"><ele>31.999999999999996</ele><time>2026-04-27T11:24:14.026Z</time></trkpt><trkpt lat="33.778195" lon="-7.232275"><ele>32.0</ele><time>2026-04-27T11:24:15.027Z</time></trkpt><trkpt lat="33.7782733" lon="-7.232235"><ele>32.0</ele><time>2026-04-27T11:24:16.027Z</time></trkpt><trkpt lat="33.778355" lon="-7.232195"><ele>32.0</ele><time>2026-04-27T11:24:17.027Z</time></trkpt><trkpt lat="33.778435" lon="-7.2321567"><ele>31.999999999999996</ele><time>2026-04-27T11:24:18.027Z</time></trkpt><trkpt lat="33.7785183" lon="-7.2321"><ele>32.0</ele><time>2026-04-27T11:24:19.027Z</time></trkpt><trkpt lat="33.7786017" lon="-7.2320367"><ele>32.2</ele><time>2026-04-27T11:24:20.027Z</time></trkpt><trkpt lat="33.7786817" lon="-7.23196"><ele>32.400000000000006</ele><time>2026-04-27T11:24:21.027Z</time></trkpt><trkpt lat="33.77876" lon="-7.2318717"><ele>32.599999999999994</ele><time>2026-04-27T11:24:22.027Z</time></trkpt><trkpt lat="33.7788217" lon="-7.2317817"><ele>32.8</ele><time>2026-04-27T11:24:23.027Z</time></trkpt><trkpt lat="33.7788833" lon="-7.2316867"><ele>33.0</ele><time>2026-04-27T11:24:24.027Z</time></trkpt><trkpt lat="33.7789433" lon="-7.23159"><ele>33.0</ele><time>2026-04-27T11:24:25.027Z</time></trkpt><trkpt lat="33.779025" lon="-7.2314917"><ele>33.0</ele><time>2026-04-27T11:24:26.026Z</time></trkpt><trkpt lat="33.7791167" lon="-7.2313933"><ele>33.0</ele><time>2026-04-27T11:24:27.027Z</time></trkpt><trkpt lat="33.779215" lon="-7.2312983"><ele>33.0</ele><time>2026-04-27T11:24:28.027Z</time></trkpt><trkpt lat="33.779315" lon="-7.231205"><ele>33.25</ele><time>2026-04-27T11:24:29.027Z</time></trkpt><trkpt lat="33.7794083" lon="-7.2311217"><ele>33.5</ele><time>2026-04-27T11:24:30.027Z</time></trkpt><trkpt lat="33.7794983" lon="-7.2310283"><ele>33.75</ele><time>2026-04-27T11:24:31.027Z</time></trkpt><trkpt lat="33.7795883" lon="-7.2309233"><ele>34.0</ele><time>2026-04-27T11:24:32.027Z</time></trkpt><trkpt lat="33.7796683" lon="-7.2308233"><ele>34.0</ele><time>2026-04-27T11:24:33.027Z</time></trkpt><trkpt lat="33.7797467" lon="-7.2307083"><ele>34.0</ele><time>2026-04-27T11:24:34.027Z</time></trkpt><trkpt lat="33.7798333" lon="-7.2305683"><ele>34.0</ele><time>2026-04-27T11:24:35.027Z</time></trkpt><trkpt lat="33.7799233" lon="-7.230435"><ele>34.0</ele><time>2026-04-27T11:24:36.027Z</time></trkpt><trkpt lat="33.78001" lon="-7.2302933"><ele>33.0</ele><time>2026-04-27T11:24:37.027Z</time></trkpt><trkpt lat="33.780105" lon="-7.2301533"><ele>32.0</ele><time>2026-04-27T11:24:38.027Z</time></trkpt><trkpt lat="33.7801967" lon="-7.2300067"><ele>31.0</ele><time>2026-04-27T11:24:39.027Z</time></trkpt><trkpt lat="33.7802883" lon="-7.229845"><ele>31.0</ele><time>2026-04-27T11:24:40.027Z</time></trkpt><trkpt lat="33.780375" lon="-7.2296833"><ele>31.0</ele><time>2026-04-27T11:24:41.027Z</time></trkpt><trkpt lat="33.7804517" lon="-7.229525"><ele>31.0</ele><time>2026-04-27T11:24:42.027Z</time></trkpt><trkpt lat="33.7805217" lon="-7.22938"><ele>31.0</ele><time>2026-04-27T11:24:43.027Z</time></trkpt><trkpt lat="33.7805933" lon="-7.2292567"><ele>31.0</ele><time>2026-04-27T11:24:44.027Z</time></trkpt><trkpt lat="33.7806583" lon="-7.2291483"><ele>31.0</ele><time>2026-04-27T11:24:45.026Z</time></trkpt><trkpt lat="33.7807083" lon="-7.2290567"><ele>31.0</ele><time>2026-04-27T11:24:46.027Z</time></trkpt><trkpt lat="33.780745" lon="-7.2289767"><ele>31.0</ele><time>2026-04-27T11:24:47.027Z</time></trkpt><trkpt lat="33.7808117" lon="-7.2288567"><ele>31.0</ele><time>2026-04-27T11:24:49.027Z</time></trkpt><trkpt lat="33.7808533" lon="-7.2287733"><ele>31.0</ele><time>2026-04-27T11:24:51.027Z</time></trkpt><trkpt lat="33.7809083" lon="-7.2286517"><ele>31.0</ele><time>2026-04-27T11:25:47.026Z</time></trkpt><trkpt lat="33.780975" lon="-7.2285367"><ele>31.0</ele><time>2026-04-27T11:25:48.026Z</time></trkpt><trkpt lat="33.78106" lon="-7.2284"><ele>31.0</ele><time>2026-04-27T11:25:49.027Z</time></trkpt><trkpt lat="33.781145" lon="-7.2282417"><ele>31.0</ele><time>2026-04-27T11:25:50.027Z</time></trkpt><trkpt lat="33.7812467" lon="-7.2280717"><ele>31.0</ele><time>2026-04-27T11:25:51.026Z</time></trkpt><trkpt lat="33.7813533" lon="-7.227885"><ele>31.0</ele><time>2026-04-27T11:25:52.027Z</time></trkpt><trkpt lat="33.7814633" lon="-7.2276767"><ele>31.0</ele><time>2026-04-27T11:25:53.027Z</time></trkpt><trkpt lat="33.781575" lon="-7.2274567"><ele>31.0</ele><time>2026-04-27T11:25:54.027Z</time></trkpt><trkpt lat="33.7816933" lon="-7.2272267"><ele>31.0</ele><time>2026-04-27T11:25:55.027Z</time></trkpt><trkpt lat="33.7818217" lon="-7.2269767"><ele>31.0</ele><time>2026-04-27T11:25:56.027Z</time></trkpt><trkpt lat="33.7819533" lon="-7.2267117"><ele>30.5</ele><time>2026-04-27T11:25:57.027Z</time></trkpt><trkpt lat="33.7820883" lon="-7.2264333"><ele>30.0</ele><time>2026-04-27T11:25:58.027Z</time></trkpt><trkpt lat="33.78223" lon="-7.22614"><ele>30.0</ele><time>2026-04-27T11:25:59.027Z</time></trkpt><trkpt lat="33.78238" lon="-7.22584"><ele>30.0</ele><time>2026-04-27T11:26:00.027Z</time></trkpt><trkpt lat="33.7825283" lon="-7.2255267"><ele>30.0</ele><time>2026-04-27T11:26:01.027Z</time></trkpt><trkpt lat="33.78268" lon="-7.2252067"><ele>30.0</ele><time>2026-04-27T11:26:02.027Z</time></trkpt><trkpt lat="33.78283" lon="-7.22488"><ele>29.5</ele><time>2026-04-27T11:26:03.026Z</time></trkpt><trkpt lat="33.78297" lon="-7.2245617"><ele>29.0</ele><time>2026-04-27T11:26:04.027Z</time></trkpt><trkpt lat="33.7831083" lon="-7.224245"><ele>28.5</ele><time>2026-04-27T11:26:05.027Z</time></trkpt><trkpt lat="33.7832467" lon="-7.2239267"><ele>28.0</ele><time>2026-04-27T11:26:06.027Z</time></trkpt><trkpt lat="33.7833833" lon="-7.2236083"><ele>28.0</ele><time>2026-04-27T11:26:07.027Z</time></trkpt><trkpt lat="33.7835217" lon="-7.2232883"><ele>28.0</ele><time>2026-04-27T11:26:08.027Z</time></trkpt><trkpt lat="33.7836567" lon="-7.2229667"><ele>29.5</ele><time>2026-04-27T11:26:09.027Z</time></trkpt><trkpt lat="33.7837867" lon="-7.2226433"><ele>31.0</ele><time>2026-04-27T11:26:10.027Z</time></trkpt><trkpt lat="33.783915" lon="-7.2223183"><ele>31.0</ele><time>2026-04-27T11:26:11.027Z</time></trkpt><trkpt lat="33.7840433" lon="-7.2219917"><ele>31.0</ele><time>2026-04-27T11:26:12.027Z</time></trkpt><trkpt lat="33.784165" lon="-7.2216667"><ele>31.5</ele><time>2026-04-27T11:26:13.027Z</time></trkpt><trkpt lat="33.7842933" lon="-7.22134"><ele>32.0</ele><time>2026-04-27T11:26:14.027Z</time></trkpt><trkpt lat="33.7844133" lon="-7.22101"><ele>31.5</ele><time>2026-04-27T11:26:15.027Z</time></trkpt><trkpt lat="33.7845283" lon="-7.2206783"><ele>31.0</ele><time>2026-04-27T11:26:16.027Z</time></trkpt><trkpt lat="33.784645" lon="-7.2203483"><ele>31.0</ele><time>2026-04-27T11:26:17.026Z</time></trkpt><trkpt lat="33.7847533" lon="-7.2200217"><ele>31.0</ele><time>2026-04-27T11:26:18.027Z</time></trkpt><trkpt lat="33.78486" lon="-7.2196983"><ele>30.5</ele><time>2026-04-27T11:26:19.027Z</time></trkpt><trkpt lat="33.7849617" lon="-7.2193783"><ele>30.0</ele><time>2026-04-27T11:26:20.027Z</time></trkpt><trkpt lat="33.7850617" lon="-7.2190583"><ele>30.0</ele><time>2026-04-27T11:26:21.027Z</time></trkpt><trkpt lat="33.78516" lon="-7.21874"><ele>30.0</ele><time>2026-04-27T11:26:22.027Z</time></trkpt><trkpt lat="33.7852567" lon="-7.2184217"><ele>29.5</ele><time>2026-04-27T11:26:23.027Z</time></trkpt><trkpt lat="33.7853517" lon="-7.2181"><ele>29.0</ele><time>2026-04-27T11:26:24.026Z</time></trkpt><trkpt lat="33.78545" lon="-7.21778"><ele>29.0</ele><time>2026-04-27T11:26:25.027Z</time></trkpt><trkpt lat="33.7855433" lon="-7.21746"><ele>29.0</ele><time>2026-04-27T11:26:26.027Z</time></trkpt><trkpt lat="33.7856383" lon="-7.2171383"><ele>29.0</ele><time>2026-04-27T11:26:27.027Z</time></trkpt><trkpt lat="33.7857383" lon="-7.2168117"><ele>29.0</ele><time>2026-04-27T11:26:28.027Z</time></trkpt><trkpt lat="33.78584" lon="-7.2164917"><ele>29.0</ele><time>2026-04-27T11:26:29.027Z</time></trkpt><trkpt lat="33.785935" lon="-7.21618"><ele>29.0</ele><time>2026-04-27T11:26:30.027Z</time></trkpt><trkpt lat="33.7860283" lon="-7.21589"><ele>29.0</ele><time>2026-04-27T11:26:31.027Z</time></trkpt><trkpt lat="33.7861217" lon="-7.21561"><ele>29.0</ele><time>2026-04-27T11:26:32.027Z</time></trkpt><trkpt lat="33.7862083" lon="-7.2153267"><ele>29.0</ele><time>2026-04-27T11:26:33.027Z</time></trkpt><trkpt lat="33.7862933" lon="-7.2150367"><ele>29.0</ele><time>2026-04-27T11:26:34.027Z</time></trkpt><trkpt lat="33.7863817" lon="-7.2147533"><ele>29.0</ele><time>2026-04-27T11:26:35.027Z</time></trkpt><trkpt lat="33.786465" lon="-7.214465"><ele>29.0</ele><time>2026-04-27T11:26:36.027Z</time></trkpt><trkpt lat="33.7865517" lon="-7.21418"><ele>28.0</ele><time>2026-04-27T11:26:37.027Z</time></trkpt><trkpt lat="33.7866417" lon="-7.2138933"><ele>27.0</ele><time>2026-04-27T11:26:38.027Z</time></trkpt><trkpt lat="33.7867283" lon="-7.2136117"><ele>27.0</ele><time>2026-04-27T11:26:39.027Z</time></trkpt><trkpt lat="33.7868183" lon="-7.2133267"><ele>27.0</ele><time>2026-04-27T11:26:40.027Z</time></trkpt><trkpt lat="33.786905" lon="-7.2130417"><ele>28.5</ele><time>2026-04-27T11:26:41.027Z</time></trkpt><trkpt lat="33.7869933" lon="-7.2127567"><ele>30.0</ele><time>2026-04-27T11:26:42.027Z</time></trkpt><trkpt lat="33.7870817" lon="-7.2124733"><ele>29.5</ele><time>2026-04-27T11:26:43.026Z</time></trkpt><trkpt lat="33.7871683" lon="-7.2121883"><ele>29.0</ele><time>2026-04-27T11:26:44.027Z</time></trkpt><trkpt lat="33.7872567" lon="-7.2118967"><ele>29.0</ele><time>2026-04-27T11:26:45.027Z</time></trkpt><trkpt lat="33.7873433" lon="-7.2116083"><ele>29.0</ele><time>2026-04-27T11:26:46.026Z</time></trkpt><trkpt lat="33.787425" lon="-7.2113233"><ele>28.5</ele><time>2026-04-27T11:26:47.027Z</time></trkpt><trkpt lat="33.7875133" lon="-7.21103"><ele>28.0</ele><time>2026-04-27T11:26:48.027Z</time></trkpt><trkpt lat="33.7876083" lon="-7.2107233"><ele>27.0</ele><time>2026-04-27T11:26:49.027Z</time></trkpt><trkpt lat="33.7877117" lon="-7.2104083"><ele>26.0</ele><time>2026-04-27T11:26:50.026Z</time></trkpt><trkpt lat="33.78781" lon="-7.2100767"><ele>25.5</ele><time>2026-04-27T11:26:51.027Z</time></trkpt><trkpt lat="33.7879067" lon="-7.2097367"><ele>25.0</ele><time>2026-04-27T11:26:52.027Z</time></trkpt><trkpt lat="33.788" lon="-7.2093867"><ele>25.0</ele><time>2026-04-27T11:26:53.027Z</time></trkpt><trkpt lat="33.7881017" lon="-7.209035"><ele>25.0</ele><time>2026-04-27T11:26:54.027Z</time></trkpt><trkpt lat="33.788205" lon="-7.2086883"><ele>25.0</ele><time>2026-04-27T11:26:55.027Z</time></trkpt><trkpt lat="33.7883033" lon="-7.2083533"><ele>25.0</ele><time>2026-04-27T11:26:56.027Z</time></trkpt><trkpt lat="33.788405" lon="-7.2080267"><ele>25.0</ele><time>2026-04-27T11:26:57.027Z</time></trkpt><trkpt lat="33.788505" lon="-7.2076933"><ele>25.0</ele><time>2026-04-27T11:26:58.027Z</time></trkpt><trkpt lat="33.7885983" lon="-7.2073567"><ele>25.5</ele><time>2026-04-27T11:26:59.026Z</time></trkpt><trkpt lat="33.7886967" lon="-7.2070217"><ele>26.0</ele><time>2026-04-27T11:27:00.027Z</time></trkpt><trkpt lat="33.7887967" lon="-7.2066933"><ele>26.0</ele><time>2026-04-27T11:27:01.027Z</time></trkpt><trkpt lat="33.7888983" lon="-7.2063683"><ele>26.0</ele><time>2026-04-27T11:27:02.027Z</time></trkpt><trkpt lat="33.789" lon="-7.2060483"><ele>26.0</ele><time>2026-04-27T11:27:03.026Z</time></trkpt><trkpt lat="33.7891017" lon="-7.2057317"><ele>26.0</ele><time>2026-04-27T11:27:04.027Z</time></trkpt><trkpt lat="33.7892" lon="-7.20542"><ele>26.5</ele><time>2026-04-27T11:27:05.027Z</time></trkpt><trkpt lat="33.7892983" lon="-7.2051067"><ele>27.0</ele><time>2026-04-27T11:27:06.026Z</time></trkpt><trkpt lat="33.7894" lon="-7.2047967"><ele>25.5</ele><time>2026-04-27T11:27:07.027Z</time></trkpt><trkpt lat="33.7894967" lon="-7.2044933"><ele>24.0</ele><time>2026-04-27T11:27:08.026Z</time></trkpt><trkpt lat="33.7895917" lon="-7.2041933"><ele>26.0</ele><time>2026-04-27T11:27:09.026Z</time></trkpt><trkpt lat="33.7896817" lon="-7.2039033"><ele>28.0</ele><time>2026-04-27T11:27:10.026Z</time></trkpt><trkpt lat="33.7897717" lon="-7.2036133"><ele>28.0</ele><time>2026-04-27T11:27:11.026Z</time></trkpt><trkpt lat="33.789865" lon="-7.2033233"><ele>28.0</ele><time>2026-04-27T11:27:12.025Z</time></trkpt><trkpt lat="33.789955" lon="-7.2030333"><ele>27.5</ele><time>2026-04-27T11:27:13.026Z</time></trkpt><trkpt lat="33.7900433" lon="-7.202735"><ele>27.0</ele><time>2026-04-27T11:27:14.026Z</time></trkpt><trkpt lat="33.7901317" lon="-7.2024467"><ele>25.0</ele><time>2026-04-27T11:27:15.026Z</time></trkpt><trkpt lat="33.790215" lon="-7.2021583"><ele>23.0</ele><time>2026-04-27T11:27:16.026Z</time></trkpt><trkpt lat="33.790305" lon="-7.2018817"><ele>23.0</ele><time>2026-04-27T11:27:17.026Z</time></trkpt><trkpt lat="33.790395" lon="-7.2016067"><ele>23.0</ele><time>2026-04-27T11:27:18.025Z</time></trkpt><trkpt lat="33.7904817" lon="-7.2013333"><ele>23.5</ele><time>2026-04-27T11:27:19.025Z</time></trkpt><trkpt lat="33.7905633" lon="-7.2010617"><ele>24.0</ele><time>2026-04-27T11:27:20.026Z</time></trkpt><trkpt lat="33.7906483" lon="-7.200785"><ele>25.0</ele><time>2026-04-27T11:27:21.025Z</time></trkpt><trkpt lat="33.790735" lon="-7.2005083"><ele>26.0</ele><time>2026-04-27T11:27:22.026Z</time></trkpt><trkpt lat="33.79082" lon="-7.2002233"><ele>26.0</ele><time>2026-04-27T11:27:23.026Z</time></trkpt><trkpt lat="33.7909067" lon="-7.1999317"><ele>26.0</ele><time>2026-04-27T11:27:24.026Z</time></trkpt><trkpt lat="33.7909967" lon="-7.199635"><ele>25.0</ele><time>2026-04-27T11:27:25.026Z</time></trkpt><trkpt lat="33.7910917" lon="-7.199335"><ele>24.0</ele><time>2026-04-27T11:27:26.025Z</time></trkpt><trkpt lat="33.7911917" lon="-7.1990217"><ele>24.0</ele><time>2026-04-27T11:27:27.026Z</time></trkpt><trkpt lat="33.7912933" lon="-7.1987"><ele>24.0</ele><time>2026-04-27T11:27:28.026Z</time></trkpt><trkpt lat="33.79139" lon="-7.1983717"><ele>23.0</ele><time>2026-04-27T11:27:29.026Z</time></trkpt><trkpt lat="33.7914883" lon="-7.198045"><ele>22.0</ele><time>2026-04-27T11:27:30.026Z</time></trkpt><trkpt lat="33.7915883" lon="-7.1977083"><ele>22.0</ele><time>2026-04-27T11:27:31.026Z</time></trkpt><trkpt lat="33.79169" lon="-7.197375"><ele>22.0</ele><time>2026-04-27T11:27:32.025Z</time></trkpt><trkpt lat="33.791795" lon="-7.1970367"><ele>22.0</ele><time>2026-04-27T11:27:33.026Z</time></trkpt><trkpt lat="33.7918983" lon="-7.1966967"><ele>22.0</ele><time>2026-04-27T11:27:34.026Z</time></trkpt><trkpt lat="33.7920033" lon="-7.19636"><ele>22.0</ele><time>2026-04-27T11:27:35.026Z</time></trkpt><trkpt lat="33.792105" lon="-7.19602"><ele>22.0</ele><time>2026-04-27T11:27:36.026Z</time></trkpt><trkpt lat="33.7922" lon="-7.1956767"><ele>21.5</ele><time>2026-04-27T11:27:37.025Z</time></trkpt><trkpt lat="33.7922983" lon="-7.1953433"><ele>21.0</ele><time>2026-04-27T11:27:38.026Z</time></trkpt><trkpt lat="33.7923983" lon="-7.195005"><ele>21.5</ele><time>2026-04-27T11:27:39.026Z</time></trkpt><trkpt lat="33.7924933" lon="-7.1946617"><ele>22.0</ele><time>2026-04-27T11:27:40.026Z</time></trkpt><trkpt lat="33.792585" lon="-7.1943117"><ele>22.0</ele><time>2026-04-27T11:27:41.026Z</time></trkpt><trkpt lat="33.7926833" lon="-7.19396"><ele>22.0</ele><time>2026-04-27T11:27:42.026Z</time></trkpt><trkpt lat="33.79278" lon="-7.1936217"><ele>22.0</ele><time>2026-04-27T11:27:43.026Z</time></trkpt><trkpt lat="33.7928783" lon="-7.193295"><ele>22.0</ele><time>2026-04-27T11:27:44.026Z</time></trkpt><trkpt lat="33.7929733" lon="-7.1929733"><ele>22.0</ele><time>2026-04-27T11:27:45.025Z</time></trkpt><trkpt lat="33.7930767" lon="-7.19265"><ele>22.0</ele><time>2026-04-27T11:27:46.026Z</time></trkpt><trkpt lat="33.79318" lon="-7.19233"><ele>22.0</ele><time>2026-04-27T11:27:47.026Z</time></trkpt><trkpt lat="33.7932817" lon="-7.1920067"><ele>22.0</ele><time>2026-04-27T11:27:48.025Z</time></trkpt><trkpt lat="33.793385" lon="-7.1916783"><ele>21.5</ele><time>2026-04-27T11:27:49.026Z</time></trkpt><trkpt lat="33.7934833" lon="-7.1913483"><ele>21.0</ele><time>2026-04-27T11:27:50.026Z</time></trkpt><trkpt lat="33.7935817" lon="-7.19101"><ele>21.0</ele><time>2026-04-27T11:27:51.026Z</time></trkpt><trkpt lat="33.79368" lon="-7.1906767"><ele>21.0</ele><time>2026-04-27T11:27:52.026Z</time></trkpt><trkpt lat="33.79378" lon="-7.1903383"><ele>20.5</ele><time>2026-04-27T11:27:53.026Z</time></trkpt><trkpt lat="33.7938883" lon="-7.1900017"><ele>20.0</ele><time>2026-04-27T11:27:54.026Z</time></trkpt><trkpt lat="33.7939867" lon="-7.1896633"><ele>20.0</ele><time>2026-04-27T11:27:55.026Z</time></trkpt><trkpt lat="33.79409" lon="-7.189325"><ele>20.0</ele><time>2026-04-27T11:27:56.026Z</time></trkpt><trkpt lat="33.7941967" lon="-7.188985"><ele>20.0</ele><time>2026-04-27T11:27:57.026Z</time></trkpt><trkpt lat="33.794295" lon="-7.1886533"><ele>20.0</ele><time>2026-04-27T11:27:58.026Z</time></trkpt><trkpt lat="33.7943917" lon="-7.1883383"><ele>21.0</ele><time>2026-04-27T11:27:59.026Z</time></trkpt><trkpt lat="33.7944833" lon="-7.18802"><ele>22.0</ele><time>2026-04-27T11:28:00.026Z</time></trkpt><trkpt lat="33.7945817" lon="-7.1877017"><ele>22.0</ele><time>2026-04-27T11:28:01.025Z</time></trkpt><trkpt lat="33.7946767" lon="-7.1873783"><ele>22.0</ele><time>2026-04-27T11:28:02.026Z</time></trkpt><trkpt lat="33.794775" lon="-7.1870517"><ele>21.5</ele><time>2026-04-27T11:28:03.026Z</time></trkpt><trkpt lat="33.79487" lon="-7.1867233"><ele>21.0</ele><time>2026-04-27T11:28:04.025Z</time></trkpt><trkpt lat="33.7949667" lon="-7.1863933"><ele>20.5</ele><time>2026-04-27T11:28:05.026Z</time></trkpt><trkpt lat="33.7950667" lon="-7.186065"><ele>20.0</ele><time>2026-04-27T11:28:06.025Z</time></trkpt><trkpt lat="33.7951633" lon="-7.18573"><ele>20.0</ele><time>2026-04-27T11:28:07.026Z</time></trkpt><trkpt lat="33.7952583" lon="-7.1853983"><ele>20.0</ele><time>2026-04-27T11:28:08.026Z</time></trkpt><trkpt lat="33.7953483" lon="-7.18507"><ele>19.5</ele><time>2026-04-27T11:28:09.026Z</time></trkpt><trkpt lat="33.7954317" lon="-7.184755"><ele>19.0</ele><time>2026-04-27T11:28:10.026Z</time></trkpt><trkpt lat="33.7955133" lon="-7.18445"><ele>19.0</ele><time>2026-04-27T11:28:11.025Z</time></trkpt><trkpt lat="33.795595" lon="-7.1841617"><ele>19.0</ele><time>2026-04-27T11:28:12.026Z</time></trkpt><trkpt lat="33.7956767" lon="-7.1838767"><ele>18.5</ele><time>2026-04-27T11:28:13.026Z</time></trkpt><trkpt lat="33.795755" lon="-7.1835883"><ele>18.0</ele><time>2026-04-27T11:28:14.026Z</time></trkpt><trkpt lat="33.795825" lon="-7.183295"><ele>16.5</ele><time>2026-04-27T11:28:15.026Z</time></trkpt><trkpt lat="33.7958917" lon="-7.1829967"><ele>15.0</ele><time>2026-04-27T11:28:16.026Z</time></trkpt><trkpt lat="33.7959583" lon="-7.1826983"><ele>13.5</ele><time>2026-04-27T11:28:17.026Z</time></trkpt><trkpt lat="33.7960233" lon="-7.1823983"><ele>12.0</ele><time>2026-04-27T11:28:18.026Z</time></trkpt><trkpt lat="33.7960933" lon="-7.182105"><ele>12.0</ele><time>2026-04-27T11:28:19.025Z</time></trkpt><trkpt lat="33.796165" lon="-7.1818083"><ele>12.0</ele><time>2026-04-27T11:28:20.025Z</time></trkpt><trkpt lat="33.7962283" lon="-7.18151"><ele>13.5</ele><time>2026-04-27T11:28:21.026Z</time></trkpt><trkpt lat="33.796285" lon="-7.1812133"><ele>15.0</ele><time>2026-04-27T11:28:22.026Z</time></trkpt><trkpt lat="33.7963517" lon="-7.1809183"><ele>17.0</ele><time>2026-04-27T11:28:23.026Z</time></trkpt><trkpt lat="33.7964" lon="-7.1806217"><ele>19.0</ele><time>2026-04-27T11:28:24.026Z</time></trkpt><trkpt lat="33.7964483" lon="-7.180335"><ele>19.0</ele><time>2026-04-27T11:28:25.026Z</time></trkpt><trkpt lat="33.7965" lon="-7.18006"><ele>19.0</ele><time>2026-04-27T11:28:26.026Z</time></trkpt><trkpt lat="33.7965433" lon="-7.1797933"><ele>18.666666666666664</ele><time>2026-04-27T11:28:27.026Z</time></trkpt><trkpt lat="33.7965917" lon="-7.17954"><ele>18.333333333333332</ele><time>2026-04-27T11:28:28.026Z</time></trkpt><trkpt lat="33.7966417" lon="-7.1792917"><ele>18.0</ele><time>2026-04-27T11:28:29.026Z</time></trkpt><trkpt lat="33.7966883" lon="-7.1790567"><ele>18.666666666666668</ele><time>2026-04-27T11:28:30.026Z</time></trkpt><trkpt lat="33.7967333" lon="-7.1788267"><ele>19.333333333333336</ele><time>2026-04-27T11:28:31.026Z</time></trkpt><trkpt lat="33.7967717" lon="-7.17861"><ele>20.0</ele><time>2026-04-27T11:28:32.026Z</time></trkpt><trkpt lat="33.79681" lon="-7.1783967"><ele>19.0</ele><time>2026-04-27T11:28:33.025Z</time></trkpt><trkpt lat="33.796845" lon="-7.17819"><ele>18.0</ele><time>2026-04-27T11:28:34.025Z</time></trkpt><trkpt lat="33.7968833" lon="-7.177985"><ele>17.0</ele><time>2026-04-27T11:28:35.026Z</time></trkpt><trkpt lat="33.79692" lon="-7.1777833"><ele>17.0</ele><time>2026-04-27T11:28:36.026Z</time></trkpt><trkpt lat="33.7969533" lon="-7.1775783"><ele>17.0</ele><time>2026-04-27T11:28:37.026Z</time></trkpt><trkpt lat="33.7969867" lon="-7.1773767"><ele>17.0</ele><time>2026-04-27T11:28:38.026Z</time></trkpt><trkpt lat="33.79702" lon="-7.1771717"><ele>17.333333333333336</ele><time>2026-04-27T11:28:39.026Z</time></trkpt><trkpt lat="33.7970533" lon="-7.1769617"><ele>17.666666666666668</ele><time>2026-04-27T11:28:40.026Z</time></trkpt><trkpt lat="33.797085" lon="-7.1767367"><ele>18.0</ele><time>2026-04-27T11:28:41.026Z</time></trkpt><trkpt lat="33.797115" lon="-7.1765083"><ele>18.0</ele><time>2026-04-27T11:28:42.026Z</time></trkpt><trkpt lat="33.7971417" lon="-7.1762917"><ele>18.0</ele><time>2026-04-27T11:28:43.026Z</time></trkpt><trkpt lat="33.797165" lon="-7.1760883"><ele>18.0</ele><time>2026-04-27T11:28:44.026Z</time></trkpt><trkpt lat="33.7971783" lon="-7.1758983"><ele>18.0</ele><time>2026-04-27T11:28:45.026Z</time></trkpt><trkpt lat="33.7971817" lon="-7.1757167"><ele>18.0</ele><time>2026-04-27T11:28:46.026Z</time></trkpt><trkpt lat="33.7971967" lon="-7.1755417"><ele>18.0</ele><time>2026-04-27T11:28:47.026Z</time></trkpt><trkpt lat="33.7972167" lon="-7.175375"><ele>18.0</ele><time>2026-04-27T11:28:48.025Z</time></trkpt><trkpt lat="33.797235" lon="-7.1752117"><ele>18.25</ele><time>2026-04-27T11:28:49.026Z</time></trkpt><trkpt lat="33.7972533" lon="-7.175055"><ele>18.5</ele><time>2026-04-27T11:28:50.026Z</time></trkpt><trkpt lat="33.797265" lon="-7.1748917"><ele>18.75</ele><time>2026-04-27T11:28:51.026Z</time></trkpt><trkpt lat="33.79728" lon="-7.1747333"><ele>19.0</ele><time>2026-04-27T11:28:52.026Z</time></trkpt><trkpt lat="33.7972917" lon="-7.17458"><ele>19.0</ele><time>2026-04-27T11:28:53.026Z</time></trkpt><trkpt lat="33.7973" lon="-7.17443"><ele>19.0</ele><time>2026-04-27T11:28:54.026Z</time></trkpt><trkpt lat="33.7973117" lon="-7.1742833"><ele>19.0</ele><time>2026-04-27T11:28:55.026Z</time></trkpt><trkpt lat="33.7973217" lon="-7.1741433"><ele>19.0</ele><time>2026-04-27T11:28:56.025Z</time></trkpt><trkpt lat="33.7973317" lon="-7.1740067"><ele>19.2</ele><time>2026-04-27T11:28:57.026Z</time></trkpt><trkpt lat="33.7973483" lon="-7.173875"><ele>19.4</ele><time>2026-04-27T11:28:58.026Z</time></trkpt><trkpt lat="33.7973617" lon="-7.1737433"><ele>19.6</ele><time>2026-04-27T11:28:59.026Z</time></trkpt><trkpt lat="33.7973783" lon="-7.17363"><ele>19.8</ele><time>2026-04-27T11:29:00.026Z</time></trkpt><trkpt lat="33.7973867" lon="-7.1735283"><ele>20.0</ele><time>2026-04-27T11:29:01.026Z</time></trkpt><trkpt lat="33.7973967" lon="-7.1734433"><ele>20.0</ele><time>2026-04-27T11:29:02.026Z</time></trkpt><trkpt lat="33.7974067" lon="-7.1733117"><ele>20.0</ele><time>2026-04-27T11:29:04.025Z</time></trkpt><trkpt lat="33.7974067" lon="-7.1731983"><ele>20.0</ele><time>2026-04-27T11:29:37.025Z</time></trkpt><trkpt lat="33.7974217" lon="-7.1731217"><ele>20.0</ele><time>2026-04-27T11:30:23.026Z</time></trkpt><trkpt lat="33.7974433" lon="-7.1729717"><ele>20.0</ele><time>2026-04-27T11:32:02.025Z</time></trkpt><trkpt lat="33.7974667" lon="-7.17288"><ele>20.2</ele><time>2026-04-27T11:32:05.025Z</time></trkpt><trkpt lat="33.7974833" lon="-7.1727617"><ele>20.4</ele><time>2026-04-27T11:32:23.025Z</time></trkpt><trkpt lat="33.797495" lon="-7.1726183"><ele>20.6</ele><time>2026-04-27T11:32:25.025Z</time></trkpt><trkpt lat="33.7975033" lon="-7.1725"><ele>20.8</ele><time>2026-04-27T11:32:27.025Z</time></trkpt><trkpt lat="33.7975183" lon="-7.1723883"><ele>21.0</ele><time>2026-04-27T11:32:29.025Z</time></trkpt><trkpt lat="33.79754" lon="-7.1723033"><ele>21.166666666666668</ele><time>2026-04-27T11:32:31.025Z</time></trkpt><trkpt lat="33.797555" lon="-7.17221"><ele>21.333333333333332</ele><time>2026-04-27T11:32:33.025Z</time></trkpt><trkpt lat="33.797575" lon="-7.1720967"><ele>21.5</ele><time>2026-04-27T11:32:35.025Z</time></trkpt><trkpt lat="33.79759" lon="-7.1719817"><ele>21.666666666666664</ele><time>2026-04-27T11:32:37.025Z</time></trkpt><trkpt lat="33.7976067" lon="-7.1718733"><ele>21.833333333333332</ele><time>2026-04-27T11:32:39.025Z</time></trkpt><trkpt lat="33.7976183" lon="-7.171785"><ele>22.0</ele><time>2026-04-27T11:32:41.025Z</time></trkpt><trkpt lat="33.79763" lon="-7.17171"><ele>22.0</ele><time>2026-04-27T11:32:43.025Z</time></trkpt><trkpt lat="33.7976383" lon="-7.17163"><ele>22.0</ele><time>2026-04-27T11:32:45.025Z</time></trkpt><trkpt lat="33.7976367" lon="-7.1715167"><ele>22.0</ele><time>2026-04-27T11:32:48.025Z</time></trkpt><trkpt lat="33.797645" lon="-7.1714167"><ele>22.0</ele><time>2026-04-27T11:32:51.025Z</time></trkpt><trkpt lat="33.7976533" lon="-7.171335"><ele>22.0</ele><time>2026-04-27T11:32:54.025Z</time></trkpt><trkpt lat="33.7976717" lon="-7.1712133"><ele>22.0</ele><time>2026-04-27T11:33:56.025Z</time></trkpt><trkpt lat="33.797715" lon="-7.1710517"><ele>21.8</ele><time>2026-04-27T11:33:58.025Z</time></trkpt><trkpt lat="33.797735" lon="-7.1709467"><ele>21.6</ele><time>2026-04-27T11:33:59.025Z</time></trkpt><trkpt lat="33.7977617" lon="-7.1708283"><ele>21.400000000000002</ele><time>2026-04-27T11:34:00.025Z</time></trkpt><trkpt lat="33.797785" lon="-7.1707"><ele>21.200000000000003</ele><time>2026-04-27T11:34:01.025Z</time></trkpt><trkpt lat="33.7978067" lon="-7.1705633"><ele>21.0</ele><time>2026-04-27T11:34:02.025Z</time></trkpt><trkpt lat="33.7978333" lon="-7.1704217"><ele>21.25</ele><time>2026-04-27T11:34:03.025Z</time></trkpt><trkpt lat="33.797855" lon="-7.1702783"><ele>21.5</ele><time>2026-04-27T11:34:04.025Z</time></trkpt><trkpt lat="33.7978767" lon="-7.17012"><ele>21.75</ele><time>2026-04-27T11:34:05.025Z</time></trkpt><trkpt lat="33.7979117" lon="-7.1699483"><ele>22.0</ele><time>2026-04-27T11:34:06.025Z</time></trkpt><trkpt lat="33.7979467" lon="-7.1697617"><ele>22.0</ele><time>2026-04-27T11:34:07.025Z</time></trkpt><trkpt lat="33.7979833" lon="-7.169555"><ele>22.0</ele><time>2026-04-27T11:34:08.024Z</time></trkpt><trkpt lat="33.798025" lon="-7.16932"><ele>22.0</ele><time>2026-04-27T11:34:09.025Z</time></trkpt><trkpt lat="33.7980733" lon="-7.1690683"><ele>21.0</ele><time>2026-04-27T11:34:10.025Z</time></trkpt><trkpt lat="33.7981167" lon="-7.1687967"><ele>20.0</ele><time>2026-04-27T11:34:11.025Z</time></trkpt><trkpt lat="33.7981567" lon="-7.16852"><ele>20.0</ele><time>2026-04-27T11:34:12.025Z</time></trkpt><trkpt lat="33.7981933" lon="-7.1682517"><ele>20.0</ele><time>2026-04-27T11:34:13.025Z</time></trkpt><trkpt lat="33.79824" lon="-7.1679967"><ele>20.0</ele><time>2026-04-27T11:34:14.024Z</time></trkpt><trkpt lat="33.798285" lon="-7.1677417"><ele>20.0</ele><time>2026-04-27T11:34:15.025Z</time></trkpt><trkpt lat="33.7983283" lon="-7.1674733"><ele>20.0</ele><time>2026-04-27T11:34:16.025Z</time></trkpt><trkpt lat="33.79838" lon="-7.167195"><ele>19.5</ele><time>2026-04-27T11:34:17.025Z</time></trkpt><trkpt lat="33.7984367" lon="-7.1668917"><ele>19.0</ele><time>2026-04-27T11:34:18.025Z</time></trkpt><trkpt lat="33.7985017" lon="-7.16657"><ele>17.5</ele><time>2026-04-27T11:34:19.025Z</time></trkpt><trkpt lat="33.7985683" lon="-7.1662467"><ele>16.0</ele><time>2026-04-27T11:34:20.025Z</time></trkpt><trkpt lat="33.7986267" lon="-7.1659367"><ele>17.5</ele><time>2026-04-27T11:34:21.025Z</time></trkpt><trkpt lat="33.7986817" lon="-7.16564"><ele>19.0</ele><time>2026-04-27T11:34:22.025Z</time></trkpt><trkpt lat="33.7987383" lon="-7.1653517"><ele>19.0</ele><time>2026-04-27T11:34:23.024Z</time></trkpt><trkpt lat="33.7988017" lon="-7.1650467"><ele>19.0</ele><time>2026-04-27T11:34:24.025Z</time></trkpt><trkpt lat="33.798875" lon="-7.16471"><ele>20.5</ele><time>2026-04-27T11:34:25.025Z</time></trkpt><trkpt lat="33.7989533" lon="-7.164345"><ele>22.0</ele><time>2026-04-27T11:34:26.025Z</time></trkpt><trkpt lat="33.7990333" lon="-7.1639783"><ele>22.5</ele><time>2026-04-27T11:34:27.025Z</time></trkpt><trkpt lat="33.7991083" lon="-7.1636417"><ele>23.0</ele><time>2026-04-27T11:34:28.025Z</time></trkpt><trkpt lat="33.7991817" lon="-7.163315"><ele>23.0</ele><time>2026-04-27T11:34:29.025Z</time></trkpt><trkpt lat="33.7992583" lon="-7.1629883"><ele>23.0</ele><time>2026-04-27T11:34:30.025Z</time></trkpt><trkpt lat="33.79934" lon="-7.1626633"><ele>22.5</ele><time>2026-04-27T11:34:31.025Z</time></trkpt><trkpt lat="33.7994183" lon="-7.1623367"><ele>22.0</ele><time>2026-04-27T11:34:32.024Z</time></trkpt><trkpt lat="33.7995" lon="-7.16201"><ele>22.0</ele><time>2026-04-27T11:34:33.025Z</time></trkpt><trkpt lat="33.7995883" lon="-7.1616867"><ele>22.0</ele><time>2026-04-27T11:34:34.024Z</time></trkpt><trkpt lat="33.7996717" lon="-7.1613717"><ele>23.5</ele><time>2026-04-27T11:34:35.025Z</time></trkpt><trkpt lat="33.7997567" lon="-7.16106"><ele>25.0</ele><time>2026-04-27T11:34:36.025Z</time></trkpt><trkpt lat="33.799845" lon="-7.1607517"><ele>26.0</ele><time>2026-04-27T11:34:37.025Z</time></trkpt><trkpt lat="33.7999283" lon="-7.160435"><ele>27.0</ele><time>2026-04-27T11:34:38.025Z</time></trkpt><trkpt lat="33.800015" lon="-7.1601217"><ele>26.0</ele><time>2026-04-27T11:34:39.025Z</time></trkpt><trkpt lat="33.8001017" lon="-7.15981"><ele>25.0</ele><time>2026-04-27T11:34:40.024Z</time></trkpt><trkpt lat="33.80019" lon="-7.1594983"><ele>25.0</ele><time>2026-04-27T11:34:41.025Z</time></trkpt><trkpt lat="33.8002817" lon="-7.1591817"><ele>25.0</ele><time>2026-04-27T11:34:42.025Z</time></trkpt><trkpt lat="33.80038" lon="-7.1588633"><ele>25.0</ele><time>2026-04-27T11:34:43.025Z</time></trkpt><trkpt lat="33.8004817" lon="-7.1585483"><ele>25.0</ele><time>2026-04-27T11:34:44.024Z</time></trkpt><trkpt lat="33.8005883" lon="-7.1582317"><ele>25.0</ele><time>2026-04-27T11:34:45.025Z</time></trkpt><trkpt lat="33.8006967" lon="-7.157915"><ele>25.0</ele><time>2026-04-27T11:34:46.025Z</time></trkpt><trkpt lat="33.8008083" lon="-7.1575983"><ele>25.0</ele><time>2026-04-27T11:34:47.025Z</time></trkpt><trkpt lat="33.800925" lon="-7.15728"><ele>25.0</ele><time>2026-04-27T11:34:48.025Z</time></trkpt><trkpt lat="33.801035" lon="-7.15696"><ele>25.0</ele><time>2026-04-27T11:34:49.025Z</time></trkpt><trkpt lat="33.80114" lon="-7.1566483"><ele>25.0</ele><time>2026-04-27T11:34:50.025Z</time></trkpt><trkpt lat="33.801235" lon="-7.1563433"><ele>25.0</ele><time>2026-04-27T11:34:51.024Z</time></trkpt><trkpt lat="33.8013433" lon="-7.15604"><ele>25.0</ele><time>2026-04-27T11:34:52.025Z</time></trkpt><trkpt lat="33.8014517" lon="-7.155735"><ele>24.5</ele><time>2026-04-27T11:34:53.025Z</time></trkpt><trkpt lat="33.8015667" lon="-7.1554367"><ele>24.0</ele><time>2026-04-27T11:34:54.025Z</time></trkpt><trkpt lat="33.8016833" lon="-7.155135"><ele>23.5</ele><time>2026-04-27T11:34:55.025Z</time></trkpt><trkpt lat="33.8017983" lon="-7.1548317"><ele>23.0</ele><time>2026-04-27T11:34:56.025Z</time></trkpt><trkpt lat="33.8019267" lon="-7.1545317"><ele>23.0</ele><time>2026-04-27T11:34:57.025Z</time></trkpt><trkpt lat="33.80205" lon="-7.1542283"><ele>23.0</ele><time>2026-04-27T11:34:58.024Z</time></trkpt><trkpt lat="33.80218" lon="-7.1539233"><ele>23.0</ele><time>2026-04-27T11:34:59.024Z</time></trkpt><trkpt lat="33.80231" lon="-7.1536117"><ele>23.0</ele><time>2026-04-27T11:35:00.025Z</time></trkpt><trkpt lat="33.8024433" lon="-7.1533033"><ele>22.5</ele><time>2026-04-27T11:35:01.024Z</time></trkpt><trkpt lat="33.8025783" lon="-7.1529933"><ele>22.0</ele><time>2026-04-27T11:35:02.025Z</time></trkpt><trkpt lat="33.802715" lon="-7.1526833"><ele>22.0</ele><time>2026-04-27T11:35:03.025Z</time></trkpt><trkpt lat="33.802855" lon="-7.1523733"><ele>22.0</ele><time>2026-04-27T11:35:04.025Z</time></trkpt><trkpt lat="33.8029983" lon="-7.1520633"><ele>22.0</ele><time>2026-04-27T11:35:05.025Z</time></trkpt><trkpt lat="33.8031467" lon="-7.151755"><ele>22.0</ele><time>2026-04-27T11:35:06.024Z</time></trkpt><trkpt lat="33.803295" lon="-7.1514467"><ele>21.5</ele><time>2026-04-27T11:35:07.025Z</time></trkpt><trkpt lat="33.8034417" lon="-7.151135"><ele>21.0</ele><time>2026-04-27T11:35:08.024Z</time></trkpt><trkpt lat="33.8035867" lon="-7.150825"><ele>21.5</ele><time>2026-04-27T11:35:09.025Z</time></trkpt><trkpt lat="33.8037367" lon="-7.1505217"><ele>22.0</ele><time>2026-04-27T11:35:10.025Z</time></trkpt><trkpt lat="33.803885" lon="-7.1502183"><ele>22.0</ele><time>2026-04-27T11:35:11.025Z</time></trkpt><trkpt lat="33.8040333" lon="-7.14991"><ele>22.0</ele><time>2026-04-27T11:35:12.025Z</time></trkpt><trkpt lat="33.804185" lon="-7.149605"><ele>22.0</ele><time>2026-04-27T11:35:13.025Z</time></trkpt><trkpt lat="33.804345" lon="-7.1493"><ele>22.0</ele><time>2026-04-27T11:35:14.025Z</time></trkpt><trkpt lat="33.8045" lon="-7.1490083"><ele>22.0</ele><time>2026-04-27T11:35:15.025Z</time></trkpt><trkpt lat="33.8046533" lon="-7.1487217"><ele>22.0</ele><time>2026-04-27T11:35:16.025Z</time></trkpt><trkpt lat="33.8048033" lon="-7.1484333"><ele>22.5</ele><time>2026-04-27T11:35:17.025Z</time></trkpt><trkpt lat="33.8049617" lon="-7.148145"><ele>23.0</ele><time>2026-04-27T11:35:18.025Z</time></trkpt><trkpt lat="33.8051183" lon="-7.147855"><ele>22.5</ele><time>2026-04-27T11:35:19.025Z</time></trkpt><trkpt lat="33.80528" lon="-7.14756"><ele>22.0</ele><time>2026-04-27T11:35:20.025Z</time></trkpt><trkpt lat="33.80544" lon="-7.147265"><ele>22.0</ele><time>2026-04-27T11:35:21.024Z</time></trkpt><trkpt lat="33.8056033" lon="-7.14697"><ele>22.0</ele><time>2026-04-27T11:35:22.025Z</time></trkpt><trkpt lat="33.80577" lon="-7.1466767"><ele>22.0</ele><time>2026-04-27T11:35:23.024Z</time></trkpt><trkpt lat="33.80594" lon="-7.146385"><ele>22.0</ele><time>2026-04-27T11:35:24.025Z</time></trkpt><trkpt lat="33.8061167" lon="-7.1460983"><ele>22.0</ele><time>2026-04-27T11:35:25.025Z</time></trkpt><trkpt lat="33.8062867" lon="-7.1458183"><ele>22.0</ele><time>2026-04-27T11:35:26.024Z</time></trkpt><trkpt lat="33.8064633" lon="-7.1455367"><ele>22.0</ele><time>2026-04-27T11:35:27.025Z</time></trkpt><trkpt lat="33.80664" lon="-7.1452483"><ele>22.0</ele><time>2026-04-27T11:35:28.025Z</time></trkpt><trkpt lat="33.80682" lon="-7.1449633"><ele>22.5</ele><time>2026-04-27T11:35:29.025Z</time></trkpt><trkpt lat="33.8069967" lon="-7.14468"><ele>23.0</ele><time>2026-04-27T11:35:30.025Z</time></trkpt><trkpt lat="33.807175" lon="-7.1443983"><ele>23.0</ele><time>2026-04-27T11:35:31.025Z</time></trkpt><trkpt lat="33.8073533" lon="-7.1441233"><ele>23.0</ele><time>2026-04-27T11:35:32.025Z</time></trkpt><trkpt lat="33.80753" lon="-7.14385"><ele>22.5</ele><time>2026-04-27T11:35:33.024Z</time></trkpt><trkpt lat="33.8077017" lon="-7.143585"><ele>22.0</ele><time>2026-04-27T11:35:34.024Z</time></trkpt><trkpt lat="33.8078817" lon="-7.14332"><ele>22.5</ele><time>2026-04-27T11:35:35.025Z</time></trkpt><trkpt lat="33.8080617" lon="-7.1430483"><ele>23.0</ele><time>2026-04-27T11:35:36.025Z</time></trkpt><trkpt lat="33.8082433" lon="-7.1427767"><ele>23.0</ele><time>2026-04-27T11:35:37.025Z</time></trkpt><trkpt lat="33.808425" lon="-7.1424983"><ele>23.0</ele><time>2026-04-27T11:35:38.025Z</time></trkpt><trkpt lat="33.8086017" lon="-7.1422267"><ele>23.0</ele><time>2026-04-27T11:35:39.025Z</time></trkpt><trkpt lat="33.8087717" lon="-7.1419583"><ele>23.0</ele><time>2026-04-27T11:35:40.025Z</time></trkpt><trkpt lat="33.8089467" lon="-7.1416883"><ele>23.0</ele><time>2026-04-27T11:35:41.025Z</time></trkpt><trkpt lat="33.80912" lon="-7.1414117"><ele>23.0</ele><time>2026-04-27T11:35:42.025Z</time></trkpt><trkpt lat="33.8092933" lon="-7.1411383"><ele>23.0</ele><time>2026-04-27T11:35:43.025Z</time></trkpt><trkpt lat="33.8094667" lon="-7.1408583"><ele>23.0</ele><time>2026-04-27T11:35:44.025Z</time></trkpt><trkpt lat="33.8096367" lon="-7.14058"><ele>23.0</ele><time>2026-04-27T11:35:45.025Z</time></trkpt><trkpt lat="33.8098033" lon="-7.1403083"><ele>23.0</ele><time>2026-04-27T11:35:46.025Z</time></trkpt><trkpt lat="33.809965" lon="-7.1400283"><ele>23.0</ele><time>2026-04-27T11:35:47.025Z</time></trkpt><trkpt lat="33.8101333" lon="-7.1397467"><ele>23.0</ele><time>2026-04-27T11:35:48.025Z</time></trkpt><trkpt lat="33.8103017" lon="-7.139465"><ele>22.5</ele><time>2026-04-27T11:35:49.025Z</time></trkpt><trkpt lat="33.8104683" lon="-7.1391867"><ele>22.0</ele><time>2026-04-27T11:35:50.025Z</time></trkpt><trkpt lat="33.8106383" lon="-7.13891"><ele>23.0</ele><time>2026-04-27T11:35:51.025Z</time></trkpt><trkpt lat="33.8108083" lon="-7.1386333"><ele>24.0</ele><time>2026-04-27T11:35:52.025Z</time></trkpt><trkpt lat="33.8109817" lon="-7.1383517"><ele>22.5</ele><time>2026-04-27T11:35:53.025Z</time></trkpt><trkpt lat="33.8111567" lon="-7.1380667"><ele>21.0</ele><time>2026-04-27T11:35:54.025Z</time></trkpt><trkpt lat="33.8113333" lon="-7.13779"><ele>21.0</ele><time>2026-04-27T11:35:55.025Z</time></trkpt><trkpt lat="33.8115033" lon="-7.1375217"><ele>21.0</ele><time>2026-04-27T11:35:56.025Z</time></trkpt><trkpt lat="33.8116733" lon="-7.1372517"><ele>20.5</ele><time>2026-04-27T11:35:57.025Z</time></trkpt><trkpt lat="33.8118433" lon="-7.1369867"><ele>20.0</ele><time>2026-04-27T11:35:58.025Z</time></trkpt><trkpt lat="33.812015" lon="-7.136715"><ele>20.5</ele><time>2026-04-27T11:35:59.025Z</time></trkpt><trkpt lat="33.8121867" lon="-7.13644"><ele>21.0</ele><time>2026-04-27T11:36:00.025Z</time></trkpt><trkpt lat="33.81236" lon="-7.1361633"><ele>21.0</ele><time>2026-04-27T11:36:01.025Z</time></trkpt><trkpt lat="33.812535" lon="-7.1358867"><ele>21.0</ele><time>2026-04-27T11:36:02.025Z</time></trkpt><trkpt lat="33.8127117" lon="-7.1356133"><ele>21.0</ele><time>2026-04-27T11:36:03.025Z</time></trkpt><trkpt lat="33.8128883" lon="-7.1353367"><ele>21.0</ele><time>2026-04-27T11:36:04.025Z</time></trkpt><trkpt lat="33.8130617" lon="-7.13506"><ele>20.5</ele><time>2026-04-27T11:36:05.024Z</time></trkpt><trkpt lat="33.813235" lon="-7.1347833"><ele>20.0</ele><time>2026-04-27T11:36:06.025Z</time></trkpt><trkpt lat="33.81341" lon="-7.134505"><ele>19.5</ele><time>2026-04-27T11:36:07.025Z</time></trkpt><trkpt lat="33.813585" lon="-7.1342267"><ele>19.0</ele><time>2026-04-27T11:36:08.025Z</time></trkpt><trkpt lat="33.8137583" lon="-7.1339517"><ele>20.0</ele><time>2026-04-27T11:36:09.025Z</time></trkpt><trkpt lat="33.8139317" lon="-7.1336717"><ele>21.0</ele><time>2026-04-27T11:36:10.025Z</time></trkpt><trkpt lat="33.8141067" lon="-7.133395"><ele>20.5</ele><time>2026-04-27T11:36:11.024Z</time></trkpt><trkpt lat="33.8142767" lon="-7.13312"><ele>20.0</ele><time>2026-04-27T11:36:12.025Z</time></trkpt><trkpt lat="33.8144517" lon="-7.1328483"><ele>19.0</ele><time>2026-04-27T11:36:13.024Z</time></trkpt><trkpt lat="33.8146283" lon="-7.132575"><ele>18.0</ele><time>2026-04-27T11:36:14.025Z</time></trkpt><trkpt lat="33.8148" lon="-7.1323"><ele>18.0</ele><time>2026-04-27T11:36:15.024Z</time></trkpt><trkpt lat="33.8149733" lon="-7.1320267"><ele>18.0</ele><time>2026-04-27T11:36:16.025Z</time></trkpt><trkpt lat="33.815145" lon="-7.1317567"><ele>18.5</ele><time>2026-04-27T11:36:17.025Z</time></trkpt><trkpt lat="33.815315" lon="-7.131475"><ele>19.0</ele><time>2026-04-27T11:36:18.025Z</time></trkpt><trkpt lat="33.8154833" lon="-7.1311967"><ele>19.0</ele><time>2026-04-27T11:36:19.025Z</time></trkpt><trkpt lat="33.8156467" lon="-7.1309167"><ele>19.0</ele><time>2026-04-27T11:36:20.025Z</time></trkpt><trkpt lat="33.8158067" lon="-7.1306317"><ele>18.5</ele><time>2026-04-27T11:36:21.025Z</time></trkpt><trkpt lat="33.8159667" lon="-7.1303467"><ele>18.0</ele><time>2026-04-27T11:36:22.025Z</time></trkpt><trkpt lat="33.8161267" lon="-7.1300567"><ele>18.5</ele><time>2026-04-27T11:36:23.025Z</time></trkpt><trkpt lat="33.816285" lon="-7.1297683"><ele>19.0</ele><time>2026-04-27T11:36:24.025Z</time></trkpt><trkpt lat="33.816435" lon="-7.1294717"><ele>19.0</ele><time>2026-04-27T11:36:25.024Z</time></trkpt><trkpt lat="33.8165833" lon="-7.1291617"><ele>19.0</ele><time>2026-04-27T11:36:26.024Z</time></trkpt><trkpt lat="33.8167367" lon="-7.1288567"><ele>19.0</ele><time>2026-04-27T11:36:27.024Z</time></trkpt><trkpt lat="33.8168867" lon="-7.12855"><ele>19.0</ele><time>2026-04-27T11:36:28.024Z</time></trkpt><trkpt lat="33.8170367" lon="-7.12824"><ele>19.5</ele><time>2026-04-27T11:36:29.024Z</time></trkpt><trkpt lat="33.8171783" lon="-7.127925"><ele>20.0</ele><time>2026-04-27T11:36:30.024Z</time></trkpt><trkpt lat="33.8173133" lon="-7.1276067"><ele>19.0</ele><time>2026-04-27T11:36:31.024Z</time></trkpt><trkpt lat="33.8174483" lon="-7.1272917"><ele>18.0</ele><time>2026-04-27T11:36:32.023Z</time></trkpt><trkpt lat="33.8175817" lon="-7.12697"><ele>17.5</ele><time>2026-04-27T11:36:33.024Z</time></trkpt><trkpt lat="33.8177067" lon="-7.1266483"><ele>17.0</ele><time>2026-04-27T11:36:34.024Z</time></trkpt><trkpt lat="33.817825" lon="-7.1263233"><ele>18.0</ele><time>2026-04-27T11:36:35.024Z</time></trkpt><trkpt lat="33.8179383" lon="-7.125995"><ele>19.0</ele><time>2026-04-27T11:36:36.024Z</time></trkpt><trkpt lat="33.81805" lon="-7.1256667"><ele>20.0</ele><time>2026-04-27T11:36:37.024Z</time></trkpt><trkpt lat="33.818165" lon="-7.12534"><ele>21.0</ele><time>2026-04-27T11:36:38.024Z</time></trkpt><trkpt lat="33.8182783" lon="-7.1250133"><ele>20.0</ele><time>2026-04-27T11:36:39.024Z</time></trkpt><trkpt lat="33.8183917" lon="-7.1246867"><ele>19.0</ele><time>2026-04-27T11:36:40.024Z</time></trkpt><trkpt lat="33.8184983" lon="-7.1243567"><ele>18.0</ele><time>2026-04-27T11:36:41.024Z</time></trkpt><trkpt lat="33.818605" lon="-7.124025"><ele>17.0</ele><time>2026-04-27T11:36:42.023Z</time></trkpt><trkpt lat="33.8187083" lon="-7.1236983"><ele>17.0</ele><time>2026-04-27T11:36:43.024Z</time></trkpt><trkpt lat="33.8188067" lon="-7.1233733"><ele>17.0</ele><time>2026-04-27T11:36:44.024Z</time></trkpt><trkpt lat="33.8189083" lon="-7.1230517"><ele>17.5</ele><time>2026-04-27T11:36:45.024Z</time></trkpt><trkpt lat="33.819005" lon="-7.1227283"><ele>18.0</ele><time>2026-04-27T11:36:46.024Z</time></trkpt><trkpt lat="33.8191017" lon="-7.1224067"><ele>18.0</ele><time>2026-04-27T11:36:47.024Z</time></trkpt><trkpt lat="33.8192017" lon="-7.122085"><ele>18.0</ele><time>2026-04-27T11:36:48.024Z</time></trkpt><trkpt lat="33.8192967" lon="-7.1217667"><ele>16.5</ele><time>2026-04-27T11:36:49.024Z</time></trkpt><trkpt lat="33.81939" lon="-7.121445"><ele>15.0</ele><time>2026-04-27T11:36:50.024Z</time></trkpt><trkpt lat="33.8194833" lon="-7.1211183"><ele>15.0</ele><time>2026-04-27T11:36:51.023Z</time></trkpt><trkpt lat="33.8195817" lon="-7.1207967"><ele>15.0</ele><time>2026-04-27T11:36:52.024Z</time></trkpt><trkpt lat="33.8196833" lon="-7.1204733"><ele>16.0</ele><time>2026-04-27T11:36:53.024Z</time></trkpt><trkpt lat="33.819785" lon="-7.1201417"><ele>17.0</ele><time>2026-04-27T11:36:54.024Z</time></trkpt><trkpt lat="33.8198867" lon="-7.1198083"><ele>17.5</ele><time>2026-04-27T11:36:55.024Z</time></trkpt><trkpt lat="33.81999" lon="-7.1194733"><ele>18.0</ele><time>2026-04-27T11:36:56.024Z</time></trkpt><trkpt lat="33.8200917" lon="-7.11914"><ele>17.0</ele><time>2026-04-27T11:36:57.024Z</time></trkpt><trkpt lat="33.8201967" lon="-7.1188067"><ele>16.0</ele><time>2026-04-27T11:36:58.024Z</time></trkpt><trkpt lat="33.8203" lon="-7.1184833"><ele>16.0</ele><time>2026-04-27T11:36:59.024Z</time></trkpt><trkpt lat="33.8204117" lon="-7.118165"><ele>16.0</ele><time>2026-04-27T11:37:00.024Z</time></trkpt><trkpt lat="33.8205267" lon="-7.1178417"><ele>16.0</ele><time>2026-04-27T11:37:01.024Z</time></trkpt><trkpt lat="33.82064" lon="-7.1175217"><ele>16.0</ele><time>2026-04-27T11:37:02.024Z</time></trkpt><trkpt lat="33.8207567" lon="-7.117195"><ele>15.0</ele><time>2026-04-27T11:37:03.024Z</time></trkpt><trkpt lat="33.820875" lon="-7.11687"><ele>14.0</ele><time>2026-04-27T11:37:04.024Z</time></trkpt><trkpt lat="33.8209983" lon="-7.1165517"><ele>12.5</ele><time>2026-04-27T11:37:05.024Z</time></trkpt><trkpt lat="33.82112" lon="-7.1162417"><ele>11.0</ele><time>2026-04-27T11:37:06.024Z</time></trkpt><trkpt lat="33.8212433" lon="-7.11594"><ele>12.5</ele><time>2026-04-27T11:37:07.024Z</time></trkpt><trkpt lat="33.8213667" lon="-7.1156317"><ele>14.0</ele><time>2026-04-27T11:37:08.024Z</time></trkpt><trkpt lat="33.8214933" lon="-7.1153333"><ele>14.0</ele><time>2026-04-27T11:37:09.024Z</time></trkpt><trkpt lat="33.821625" lon="-7.1150367"><ele>14.0</ele><time>2026-04-27T11:37:10.024Z</time></trkpt><trkpt lat="33.821755" lon="-7.1147417"><ele>16.0</ele><time>2026-04-27T11:37:11.024Z</time></trkpt><trkpt lat="33.82189" lon="-7.1144417"><ele>18.0</ele><time>2026-04-27T11:37:12.024Z</time></trkpt><trkpt lat="33.8220333" lon="-7.1141383"><ele>18.5</ele><time>2026-04-27T11:37:13.024Z</time></trkpt><trkpt lat="33.822185" lon="-7.11383"><ele>19.0</ele><time>2026-04-27T11:37:14.024Z</time></trkpt><trkpt lat="33.822335" lon="-7.1135183"><ele>19.0</ele><time>2026-04-27T11:37:15.024Z</time></trkpt><trkpt lat="33.8224933" lon="-7.1132017"><ele>19.0</ele><time>2026-04-27T11:37:16.024Z</time></trkpt><trkpt lat="33.8226517" lon="-7.1128883"><ele>19.0</ele><time>2026-04-27T11:37:17.024Z</time></trkpt><trkpt lat="33.8228067" lon="-7.1125683"><ele>19.0</ele><time>2026-04-27T11:37:18.024Z</time></trkpt><trkpt lat="33.8229633" lon="-7.1122517"><ele>17.0</ele><time>2026-04-27T11:37:19.024Z</time></trkpt><trkpt lat="33.823125" lon="-7.1119317"><ele>15.0</ele><time>2026-04-27T11:37:20.024Z</time></trkpt><trkpt lat="33.8232983" lon="-7.1116233"><ele>16.5</ele><time>2026-04-27T11:37:21.024Z</time></trkpt><trkpt lat="33.8234617" lon="-7.1113067"><ele>18.0</ele><time>2026-04-27T11:37:22.024Z</time></trkpt><trkpt lat="33.8236283" lon="-7.11099"><ele>19.5</ele><time>2026-04-27T11:37:23.024Z</time></trkpt><trkpt lat="33.8238033" lon="-7.1106833"><ele>21.0</ele><time>2026-04-27T11:37:24.024Z</time></trkpt><trkpt lat="33.8239767" lon="-7.1103933"><ele>21.0</ele><time>2026-04-27T11:37:25.024Z</time></trkpt><trkpt lat="33.8241467" lon="-7.1101133"><ele>21.0</ele><time>2026-04-27T11:37:26.023Z</time></trkpt><trkpt lat="33.82432" lon="-7.1098317"><ele>21.0</ele><time>2026-04-27T11:37:27.024Z</time></trkpt><trkpt lat="33.8244917" lon="-7.1095533"><ele>21.0</ele><time>2026-04-27T11:37:28.024Z</time></trkpt><trkpt lat="33.8246667" lon="-7.1092683"><ele>22.0</ele><time>2026-04-27T11:37:29.024Z</time></trkpt><trkpt lat="33.8248417" lon="-7.1089817"><ele>23.0</ele><time>2026-04-27T11:37:30.024Z</time></trkpt><trkpt lat="33.8250233" lon="-7.1087"><ele>22.5</ele><time>2026-04-27T11:37:31.024Z</time></trkpt><trkpt lat="33.8252067" lon="-7.10842"><ele>22.0</ele><time>2026-04-27T11:37:32.024Z</time></trkpt><trkpt lat="33.8253917" lon="-7.1081417"><ele>22.0</ele><time>2026-04-27T11:37:33.024Z</time></trkpt><trkpt lat="33.8255817" lon="-7.107865"><ele>22.0</ele><time>2026-04-27T11:37:34.024Z</time></trkpt><trkpt lat="33.8257717" lon="-7.1075867"><ele>22.5</ele><time>2026-04-27T11:37:35.024Z</time></trkpt><trkpt lat="33.8259633" lon="-7.107315"><ele>23.0</ele><time>2026-04-27T11:37:36.024Z</time></trkpt><trkpt lat="33.8261583" lon="-7.1070433"><ele>23.0</ele><time>2026-04-27T11:37:37.024Z</time></trkpt><trkpt lat="33.826355" lon="-7.106765"><ele>23.0</ele><time>2026-04-27T11:37:38.024Z</time></trkpt><trkpt lat="33.8265483" lon="-7.1064883"><ele>23.0</ele><time>2026-04-27T11:37:39.024Z</time></trkpt><trkpt lat="33.8267433" lon="-7.1062117"><ele>23.0</ele><time>2026-04-27T11:37:40.024Z</time></trkpt><trkpt lat="33.8269333" lon="-7.10595"><ele>23.5</ele><time>2026-04-27T11:37:41.024Z</time></trkpt><trkpt lat="33.8271167" lon="-7.1056933"><ele>24.0</ele><time>2026-04-27T11:37:42.024Z</time></trkpt><trkpt lat="33.8273067" lon="-7.1054417"><ele>24.0</ele><time>2026-04-27T11:37:43.024Z</time></trkpt><trkpt lat="33.82749" lon="-7.1051817"><ele>24.0</ele><time>2026-04-27T11:37:44.023Z</time></trkpt><trkpt lat="33.8276783" lon="-7.1049217"><ele>23.5</ele><time>2026-04-27T11:37:45.024Z</time></trkpt><trkpt lat="33.8278633" lon="-7.104655"><ele>23.0</ele><time>2026-04-27T11:37:46.024Z</time></trkpt><trkpt lat="33.8280483" lon="-7.1043867"><ele>23.0</ele><time>2026-04-27T11:37:47.024Z</time></trkpt><trkpt lat="33.828225" lon="-7.10412"><ele>23.0</ele><time>2026-04-27T11:37:48.024Z</time></trkpt><trkpt lat="33.8284" lon="-7.1038417"><ele>23.5</ele><time>2026-04-27T11:37:49.024Z</time></trkpt><trkpt lat="33.82857" lon="-7.1035633"><ele>24.0</ele><time>2026-04-27T11:37:50.024Z</time></trkpt><trkpt lat="33.8287417" lon="-7.103285"><ele>24.5</ele><time>2026-04-27T11:37:51.024Z</time></trkpt><trkpt lat="33.8289117" lon="-7.10301"><ele>25.0</ele><time>2026-04-27T11:37:52.024Z</time></trkpt><trkpt lat="33.8290817" lon="-7.1027283"><ele>25.0</ele><time>2026-04-27T11:37:53.023Z</time></trkpt><trkpt lat="33.829255" lon="-7.1024467"><ele>25.0</ele><time>2026-04-27T11:37:54.024Z</time></trkpt><trkpt lat="33.8294283" lon="-7.1021633"><ele>24.5</ele><time>2026-04-27T11:37:55.024Z</time></trkpt><trkpt lat="33.829595" lon="-7.1018733"><ele>24.0</ele><time>2026-04-27T11:37:56.024Z</time></trkpt><trkpt lat="33.82976" lon="-7.1015883"><ele>24.0</ele><time>2026-04-27T11:37:57.024Z</time></trkpt><trkpt lat="33.82992" lon="-7.1013"><ele>24.0</ele><time>2026-04-27T11:37:58.024Z</time></trkpt><trkpt lat="33.83008" lon="-7.1010117"><ele>23.5</ele><time>2026-04-27T11:37:59.024Z</time></trkpt><trkpt lat="33.83024" lon="-7.1007183"><ele>23.0</ele><time>2026-04-27T11:38:00.024Z</time></trkpt><trkpt lat="33.8303983" lon="-7.1004283"><ele>23.0</ele><time>2026-04-27T11:38:01.024Z</time></trkpt><trkpt lat="33.8305567" lon="-7.1001417"><ele>23.0</ele><time>2026-04-27T11:38:02.024Z</time></trkpt><trkpt lat="33.830715" lon="-7.0998517"><ele>23.0</ele><time>2026-04-27T11:38:03.024Z</time></trkpt><trkpt lat="33.83087" lon="-7.0995617"><ele>23.0</ele><time>2026-04-27T11:38:04.024Z</time></trkpt><trkpt lat="33.831025" lon="-7.0992717"><ele>24.0</ele><time>2026-04-27T11:38:05.024Z</time></trkpt><trkpt lat="33.831185" lon="-7.0989833"><ele>25.0</ele><time>2026-04-27T11:38:06.024Z</time></trkpt><trkpt lat="33.83134" lon="-7.0986967"><ele>25.0</ele><time>2026-04-27T11:38:07.024Z</time></trkpt><trkpt lat="33.831495" lon="-7.0984067"><ele>25.0</ele><time>2026-04-27T11:38:08.024Z</time></trkpt><trkpt lat="33.8316567" lon="-7.0981167"><ele>25.5</ele><time>2026-04-27T11:38:09.023Z</time></trkpt><trkpt lat="33.8318217" lon="-7.09783"><ele>26.0</ele><time>2026-04-27T11:38:10.024Z</time></trkpt><trkpt lat="33.8319883" lon="-7.0975383"><ele>27.0</ele><time>2026-04-27T11:38:11.023Z</time></trkpt><trkpt lat="33.832155" lon="-7.09725"><ele>28.0</ele><time>2026-04-27T11:38:12.024Z</time></trkpt><trkpt lat="33.8323233" lon="-7.09696"><ele>28.0</ele><time>2026-04-27T11:38:13.024Z</time></trkpt><trkpt lat="33.83249" lon="-7.0966733"><ele>28.0</ele><time>2026-04-27T11:38:14.023Z</time></trkpt><trkpt lat="33.8326517" lon="-7.0963817"><ele>27.5</ele><time>2026-04-27T11:38:15.023Z</time></trkpt><trkpt lat="33.8328167" lon="-7.0960983"><ele>27.0</ele><time>2026-04-27T11:38:16.024Z</time></trkpt><trkpt lat="33.832975" lon="-7.0958133"><ele>27.0</ele><time>2026-04-27T11:38:17.024Z</time></trkpt><trkpt lat="33.833135" lon="-7.0955317"><ele>27.0</ele><time>2026-04-27T11:38:18.024Z</time></trkpt><trkpt lat="33.8332917" lon="-7.0952483"><ele>27.0</ele><time>2026-04-27T11:38:19.023Z</time></trkpt><trkpt lat="33.83345" lon="-7.0949617"><ele>27.0</ele><time>2026-04-27T11:38:20.024Z</time></trkpt><trkpt lat="33.8336083" lon="-7.0946733"><ele>27.0</ele><time>2026-04-27T11:38:21.024Z</time></trkpt><trkpt lat="33.8337683" lon="-7.09438"><ele>27.0</ele><time>2026-04-27T11:38:22.024Z</time></trkpt><trkpt lat="33.8339283" lon="-7.0940817"><ele>27.0</ele><time>2026-04-27T11:38:23.024Z</time></trkpt><trkpt lat="33.8340917" lon="-7.0937867"><ele>27.0</ele><time>2026-04-27T11:38:24.023Z</time></trkpt><trkpt lat="33.8342517" lon="-7.0934933"><ele>26.0</ele><time>2026-04-27T11:38:25.024Z</time></trkpt><trkpt lat="33.83441" lon="-7.0931983"><ele>25.0</ele><time>2026-04-27T11:38:26.024Z</time></trkpt><trkpt lat="33.8345667" lon="-7.0929067"><ele>25.0</ele><time>2026-04-27T11:38:27.024Z</time></trkpt><trkpt lat="33.8347217" lon="-7.0926117"><ele>25.0</ele><time>2026-04-27T11:38:28.023Z</time></trkpt><trkpt lat="33.8348833" lon="-7.09232"><ele>26.0</ele><time>2026-04-27T11:38:29.024Z</time></trkpt><trkpt lat="33.8350467" lon="-7.0920317"><ele>27.0</ele><time>2026-04-27T11:38:30.024Z</time></trkpt><trkpt lat="33.835205" lon="-7.0917433"><ele>28.5</ele><time>2026-04-27T11:38:31.024Z</time></trkpt><trkpt lat="33.83536" lon="-7.0914483"><ele>30.0</ele><time>2026-04-27T11:38:32.024Z</time></trkpt><trkpt lat="33.83551" lon="-7.0911567"><ele>30.0</ele><time>2026-04-27T11:38:33.024Z</time></trkpt><trkpt lat="33.83566" lon="-7.0908633"><ele>30.0</ele><time>2026-04-27T11:38:34.023Z</time></trkpt><trkpt lat="33.835815" lon="-7.0905717"><ele>30.5</ele><time>2026-04-27T11:38:35.024Z</time></trkpt><trkpt lat="33.8359683" lon="-7.09028"><ele>31.0</ele><time>2026-04-27T11:38:36.024Z</time></trkpt><trkpt lat="33.8361283" lon="-7.0899983"><ele>30.5</ele><time>2026-04-27T11:38:37.024Z</time></trkpt><trkpt lat="33.83629" lon="-7.089715"><ele>30.0</ele><time>2026-04-27T11:38:38.024Z</time></trkpt><trkpt lat="33.8364517" lon="-7.0894317"><ele>30.0</ele><time>2026-04-27T11:38:39.024Z</time></trkpt><trkpt lat="33.83661" lon="-7.0891517"><ele>30.0</ele><time>2026-04-27T11:38:40.024Z</time></trkpt><trkpt lat="33.8367683" lon="-7.088875"><ele>29.5</ele><time>2026-04-27T11:38:41.024Z</time></trkpt><trkpt lat="33.8369267" lon="-7.0885933"><ele>29.0</ele><time>2026-04-27T11:38:42.024Z</time></trkpt><trkpt lat="33.8370833" lon="-7.0883117"><ele>29.5</ele><time>2026-04-27T11:38:43.024Z</time></trkpt><trkpt lat="33.8372383" lon="-7.08803"><ele>30.0</ele><time>2026-04-27T11:38:44.023Z</time></trkpt><trkpt lat="33.8374" lon="-7.0877483"><ele>30.0</ele><time>2026-04-27T11:38:45.024Z</time></trkpt><trkpt lat="33.83756" lon="-7.0874617"><ele>30.0</ele><time>2026-04-27T11:38:46.024Z</time></trkpt><trkpt lat="33.8377283" lon="-7.0871767"><ele>30.0</ele><time>2026-04-27T11:38:47.024Z</time></trkpt><trkpt lat="33.837895" lon="-7.0868867"><ele>30.0</ele><time>2026-04-27T11:38:48.024Z</time></trkpt><trkpt lat="33.8380633" lon="-7.0866"><ele>30.5</ele><time>2026-04-27T11:38:49.024Z</time></trkpt><trkpt lat="33.83823" lon="-7.086315"><ele>31.0</ele><time>2026-04-27T11:38:50.024Z</time></trkpt><trkpt lat="33.838405" lon="-7.0860367"><ele>31.5</ele><time>2026-04-27T11:38:51.024Z</time></trkpt><trkpt lat="33.8385833" lon="-7.0857583"><ele>32.0</ele><time>2026-04-27T11:38:52.024Z</time></trkpt><trkpt lat="33.8387633" lon="-7.0854783"><ele>32.0</ele><time>2026-04-27T11:38:53.024Z</time></trkpt><trkpt lat="33.8389517" lon="-7.0852017"><ele>32.0</ele><time>2026-04-27T11:38:54.024Z</time></trkpt><trkpt lat="33.8391433" lon="-7.0849267"><ele>31.0</ele><time>2026-04-27T11:38:55.023Z</time></trkpt><trkpt lat="33.8393383" lon="-7.084655"><ele>30.0</ele><time>2026-04-27T11:38:56.024Z</time></trkpt><trkpt lat="33.839535" lon="-7.084385"><ele>30.0</ele><time>2026-04-27T11:38:57.024Z</time></trkpt><trkpt lat="33.8397333" lon="-7.0841183"><ele>30.0</ele><time>2026-04-27T11:38:58.024Z</time></trkpt><trkpt lat="33.8399367" lon="-7.0838617"><ele>29.0</ele><time>2026-04-27T11:38:59.024Z</time></trkpt><trkpt lat="33.8401433" lon="-7.0836"><ele>28.0</ele><time>2026-04-27T11:39:00.023Z</time></trkpt><trkpt lat="33.8403533" lon="-7.08335"><ele>30.0</ele><time>2026-04-27T11:39:01.024Z</time></trkpt><trkpt lat="33.8405667" lon="-7.0831017"><ele>32.0</ele><time>2026-04-27T11:39:02.024Z</time></trkpt><trkpt lat="33.8407817" lon="-7.0828567"><ele>31.5</ele><time>2026-04-27T11:39:03.024Z</time></trkpt><trkpt lat="33.8409983" lon="-7.0826217"><ele>31.0</ele><time>2026-04-27T11:39:04.024Z</time></trkpt><trkpt lat="33.84122" lon="-7.0823867"><ele>31.0</ele><time>2026-04-27T11:39:05.023Z</time></trkpt><trkpt lat="33.8414433" lon="-7.0821617"><ele>31.0</ele><time>2026-04-27T11:39:06.024Z</time></trkpt><trkpt lat="33.84167" lon="-7.08194"><ele>31.5</ele><time>2026-04-27T11:39:07.024Z</time></trkpt><trkpt lat="33.8418967" lon="-7.081715"><ele>32.0</ele><time>2026-04-27T11:39:08.024Z</time></trkpt><trkpt lat="33.842125" lon="-7.0814883"><ele>32.0</ele><time>2026-04-27T11:39:09.024Z</time></trkpt><trkpt lat="33.8423567" lon="-7.0812583"><ele>32.0</ele><time>2026-04-27T11:39:10.024Z</time></trkpt><trkpt lat="33.8425867" lon="-7.081025"><ele>31.0</ele><time>2026-04-27T11:39:11.024Z</time></trkpt><trkpt lat="33.842815" lon="-7.0807883"><ele>30.0</ele><time>2026-04-27T11:39:12.024Z</time></trkpt><trkpt lat="33.8430417" lon="-7.0805567"><ele>30.0</ele><time>2026-04-27T11:39:13.024Z</time></trkpt><trkpt lat="33.843265" lon="-7.0803333"><ele>30.0</ele><time>2026-04-27T11:39:14.024Z</time></trkpt><trkpt lat="33.8434883" lon="-7.080115"><ele>29.5</ele><time>2026-04-27T11:39:15.024Z</time></trkpt><trkpt lat="33.8437083" lon="-7.0799033"><ele>29.0</ele><time>2026-04-27T11:39:16.024Z</time></trkpt><trkpt lat="33.8439283" lon="-7.0796917"><ele>29.0</ele><time>2026-04-27T11:39:17.024Z</time></trkpt><trkpt lat="33.84415" lon="-7.079485"><ele>29.0</ele><time>2026-04-27T11:39:18.024Z</time></trkpt><trkpt lat="33.84437" lon="-7.0792767"><ele>30.0</ele><time>2026-04-27T11:39:19.024Z</time></trkpt><trkpt lat="33.84459" lon="-7.079065"><ele>31.0</ele><time>2026-04-27T11:39:20.024Z</time></trkpt><trkpt lat="33.84481" lon="-7.0788483"><ele>31.0</ele><time>2026-04-27T11:39:21.024Z</time></trkpt><trkpt lat="33.8450283" lon="-7.07863"><ele>31.0</ele><time>2026-04-27T11:39:22.023Z</time></trkpt><trkpt lat="33.8452517" lon="-7.078415"><ele>30.0</ele><time>2026-04-27T11:39:23.024Z</time></trkpt><trkpt lat="33.84547" lon="-7.0781983"><ele>29.0</ele><time>2026-04-27T11:39:24.024Z</time></trkpt><trkpt lat="33.8456867" lon="-7.0779717"><ele>29.0</ele><time>2026-04-27T11:39:25.024Z</time></trkpt><trkpt lat="33.845905" lon="-7.0777467"><ele>29.0</ele><time>2026-04-27T11:39:26.024Z</time></trkpt><trkpt lat="33.846125" lon="-7.077515"><ele>29.0</ele><time>2026-04-27T11:39:27.024Z</time></trkpt><trkpt lat="33.84634" lon="-7.0772833"><ele>29.0</ele><time>2026-04-27T11:39:28.024Z</time></trkpt><trkpt lat="33.8465567" lon="-7.077045"><ele>29.0</ele><time>2026-04-27T11:39:29.024Z</time></trkpt><trkpt lat="33.8467717" lon="-7.07681"><ele>29.0</ele><time>2026-04-27T11:39:30.024Z</time></trkpt><trkpt lat="33.8469883" lon="-7.0765717"><ele>29.5</ele><time>2026-04-27T11:39:31.024Z</time></trkpt><trkpt lat="33.8472067" lon="-7.0763317"><ele>30.0</ele><time>2026-04-27T11:39:32.024Z</time></trkpt><trkpt lat="33.8474183" lon="-7.0760917"><ele>30.0</ele><time>2026-04-27T11:39:33.023Z</time></trkpt><trkpt lat="33.8476183" lon="-7.0758583"><ele>30.0</ele><time>2026-04-27T11:39:34.024Z</time></trkpt><trkpt lat="33.847815" lon="-7.07563"><ele>28.5</ele><time>2026-04-27T11:39:35.024Z</time></trkpt><trkpt lat="33.8480117" lon="-7.075395"><ele>27.0</ele><time>2026-04-27T11:39:36.024Z</time></trkpt><trkpt lat="33.8482017" lon="-7.0751433"><ele>27.0</ele><time>2026-04-27T11:39:37.024Z</time></trkpt><trkpt lat="33.848395" lon="-7.07489"><ele>27.0</ele><time>2026-04-27T11:39:38.024Z</time></trkpt><trkpt lat="33.8485783" lon="-7.0746333"><ele>27.0</ele><time>2026-04-27T11:39:39.024Z</time></trkpt><trkpt lat="33.8487583" lon="-7.074375"><ele>27.0</ele><time>2026-04-27T11:39:40.024Z</time></trkpt><trkpt lat="33.848935" lon="-7.0741133"><ele>25.5</ele><time>2026-04-27T11:39:41.024Z</time></trkpt><trkpt lat="33.849105" lon="-7.07384"><ele>24.0</ele><time>2026-04-27T11:39:42.023Z</time></trkpt><trkpt lat="33.8492733" lon="-7.07356"><ele>23.5</ele><time>2026-04-27T11:39:43.024Z</time></trkpt><trkpt lat="33.8494317" lon="-7.073275"><ele>23.0</ele><time>2026-04-27T11:39:44.024Z</time></trkpt><trkpt lat="33.8495833" lon="-7.07299"><ele>24.0</ele><time>2026-04-27T11:39:45.024Z</time></trkpt><trkpt lat="33.849735" lon="-7.0727017"><ele>25.0</ele><time>2026-04-27T11:39:46.024Z</time></trkpt><trkpt lat="33.8498917" lon="-7.072405"><ele>24.5</ele><time>2026-04-27T11:39:47.024Z</time></trkpt><trkpt lat="33.850045" lon="-7.0721083"><ele>24.0</ele><time>2026-04-27T11:39:48.024Z</time></trkpt><trkpt lat="33.850195" lon="-7.0718133"><ele>24.5</ele><time>2026-04-27T11:39:49.024Z</time></trkpt><trkpt lat="33.850345" lon="-7.0715217"><ele>25.0</ele><time>2026-04-27T11:39:50.024Z</time></trkpt><trkpt lat="33.8504833" lon="-7.071225"><ele>25.0</ele><time>2026-04-27T11:39:51.024Z</time></trkpt><trkpt lat="33.8506183" lon="-7.070925"><ele>25.0</ele><time>2026-04-27T11:39:52.023Z</time></trkpt><trkpt lat="33.850745" lon="-7.0706233"><ele>25.0</ele><time>2026-04-27T11:39:53.024Z</time></trkpt><trkpt lat="33.8508683" lon="-7.07032"><ele>25.0</ele><time>2026-04-27T11:39:54.024Z</time></trkpt><trkpt lat="33.8509867" lon="-7.0700117"><ele>25.5</ele><time>2026-04-27T11:39:55.024Z</time></trkpt><trkpt lat="33.8511083" lon="-7.0697017"><ele>26.0</ele><time>2026-04-27T11:39:56.024Z</time></trkpt><trkpt lat="33.851225" lon="-7.069395"><ele>29.0</ele><time>2026-04-27T11:39:57.024Z</time></trkpt><trkpt lat="33.85134" lon="-7.0690817"><ele>32.0</ele><time>2026-04-27T11:39:58.024Z</time></trkpt><trkpt lat="33.8514533" lon="-7.06877"><ele>32.0</ele><time>2026-04-27T11:39:59.024Z</time></trkpt><trkpt lat="33.8515667" lon="-7.0684533"><ele>32.0</ele><time>2026-04-27T11:40:00.024Z</time></trkpt><trkpt lat="33.8516783" lon="-7.0681333"><ele>33.0</ele><time>2026-04-27T11:40:01.024Z</time></trkpt><trkpt lat="33.8517617" lon="-7.0678"><ele>34.0</ele><time>2026-04-27T11:40:02.024Z</time></trkpt><trkpt lat="33.85184" lon="-7.0674667"><ele>33.5</ele><time>2026-04-27T11:40:03.024Z</time></trkpt><trkpt lat="33.851915" lon="-7.0671333"><ele>33.0</ele><time>2026-04-27T11:40:04.024Z</time></trkpt><trkpt lat="33.8519867" lon="-7.0668"><ele>33.5</ele><time>2026-04-27T11:40:05.024Z</time></trkpt><trkpt lat="33.8520583" lon="-7.0664617"><ele>34.0</ele><time>2026-04-27T11:40:06.024Z</time></trkpt><trkpt lat="33.8521283" lon="-7.0661267"><ele>34.0</ele><time>2026-04-27T11:40:07.024Z</time></trkpt><trkpt lat="33.8522" lon="-7.0657867"><ele>34.0</ele><time>2026-04-27T11:40:08.024Z</time></trkpt><trkpt lat="33.85227" lon="-7.0654483"><ele>35.5</ele><time>2026-04-27T11:40:09.024Z</time></trkpt><trkpt lat="33.8523417" lon="-7.0651117"><ele>37.0</ele><time>2026-04-27T11:40:10.024Z</time></trkpt><trkpt lat="33.8524083" lon="-7.064765"><ele>38.5</ele><time>2026-04-27T11:40:11.024Z</time></trkpt><trkpt lat="33.8524767" lon="-7.0644217"><ele>40.0</ele><time>2026-04-27T11:40:12.023Z</time></trkpt><trkpt lat="33.85254" lon="-7.0640717"><ele>40.5</ele><time>2026-04-27T11:40:13.024Z</time></trkpt><trkpt lat="33.8526" lon="-7.0637217"><ele>41.0</ele><time>2026-04-27T11:40:14.024Z</time></trkpt><trkpt lat="33.8526567" lon="-7.06337"><ele>39.5</ele><time>2026-04-27T11:40:15.024Z</time></trkpt><trkpt lat="33.8527117" lon="-7.0630283"><ele>38.0</ele><time>2026-04-27T11:40:16.024Z</time></trkpt><trkpt lat="33.85276" lon="-7.0627"><ele>38.0</ele><time>2026-04-27T11:40:17.024Z</time></trkpt><trkpt lat="33.85281" lon="-7.0623717"><ele>38.0</ele><time>2026-04-27T11:40:18.024Z</time></trkpt><trkpt lat="33.8528617" lon="-7.06204"><ele>38.0</ele><time>2026-04-27T11:40:19.024Z</time></trkpt><trkpt lat="33.8529117" lon="-7.0617083"><ele>38.0</ele><time>2026-04-27T11:40:20.024Z</time></trkpt><trkpt lat="33.8529617" lon="-7.0613733"><ele>38.0</ele><time>2026-04-27T11:40:21.024Z</time></trkpt><trkpt lat="33.8530133" lon="-7.061035"><ele>38.0</ele><time>2026-04-27T11:40:22.024Z</time></trkpt><trkpt lat="33.853065" lon="-7.0606883"><ele>38.0</ele><time>2026-04-27T11:40:23.024Z</time></trkpt><trkpt lat="33.85312" lon="-7.0603433"><ele>38.0</ele><time>2026-04-27T11:40:24.024Z</time></trkpt><trkpt lat="33.8531783" lon="-7.0599967"><ele>37.5</ele><time>2026-04-27T11:40:25.024Z</time></trkpt><trkpt lat="33.8532383" lon="-7.0596483"><ele>37.0</ele><time>2026-04-27T11:40:26.024Z</time></trkpt><trkpt lat="33.8532933" lon="-7.059295"><ele>38.0</ele><time>2026-04-27T11:40:27.024Z</time></trkpt><trkpt lat="33.8533517" lon="-7.0589383"><ele>39.0</ele><time>2026-04-27T11:40:28.024Z</time></trkpt><trkpt lat="33.8534067" lon="-7.058585"><ele>37.5</ele><time>2026-04-27T11:40:29.024Z</time></trkpt><trkpt lat="33.85346" lon="-7.0582267"><ele>36.0</ele><time>2026-04-27T11:40:30.024Z</time></trkpt><trkpt lat="33.8535167" lon="-7.0578733"><ele>36.0</ele><time>2026-04-27T11:40:31.024Z</time></trkpt><trkpt lat="33.853565" lon="-7.0575217"><ele>36.0</ele><time>2026-04-27T11:40:32.024Z</time></trkpt><trkpt lat="33.8536167" lon="-7.05718"><ele>35.5</ele><time>2026-04-27T11:40:33.024Z</time></trkpt><trkpt lat="33.853665" lon="-7.0568317"><ele>35.0</ele><time>2026-04-27T11:40:34.024Z</time></trkpt><trkpt lat="33.8537183" lon="-7.056485"><ele>34.0</ele><time>2026-04-27T11:40:35.024Z</time></trkpt><trkpt lat="33.85377" lon="-7.056135"><ele>33.0</ele><time>2026-04-27T11:40:36.024Z</time></trkpt><trkpt lat="33.853825" lon="-7.0557817"><ele>31.5</ele><time>2026-04-27T11:40:37.023Z</time></trkpt><trkpt lat="33.85388" lon="-7.0554367"><ele>30.0</ele><time>2026-04-27T11:40:38.024Z</time></trkpt><trkpt lat="33.85393" lon="-7.0550933"><ele>29.5</ele><time>2026-04-27T11:40:39.024Z</time></trkpt><trkpt lat="33.8539833" lon="-7.0547583"><ele>29.0</ele><time>2026-04-27T11:40:40.024Z</time></trkpt><trkpt lat="33.8540333" lon="-7.05443"><ele>27.5</ele><time>2026-04-27T11:40:41.024Z</time></trkpt><trkpt lat="33.854085" lon="-7.0541033"><ele>26.0</ele><time>2026-04-27T11:40:42.024Z</time></trkpt><trkpt lat="33.854135" lon="-7.0537767"><ele>26.0</ele><time>2026-04-27T11:40:43.024Z</time></trkpt><trkpt lat="33.85419" lon="-7.0534567"><ele>26.0</ele><time>2026-04-27T11:40:44.023Z</time></trkpt><trkpt lat="33.8542417" lon="-7.0531267"><ele>25.0</ele><time>2026-04-27T11:40:45.024Z</time></trkpt><trkpt lat="33.8542933" lon="-7.0528017"><ele>24.0</ele><time>2026-04-27T11:40:46.024Z</time></trkpt><trkpt lat="33.8543483" lon="-7.052465"><ele>24.0</ele><time>2026-04-27T11:40:47.023Z</time></trkpt><trkpt lat="33.8544033" lon="-7.0521233"><ele>24.0</ele><time>2026-04-27T11:40:48.023Z</time></trkpt><trkpt lat="33.8544583" lon="-7.0517867"><ele>25.0</ele><time>2026-04-27T11:40:49.024Z</time></trkpt><trkpt lat="33.8545117" lon="-7.0514517"><ele>26.0</ele><time>2026-04-27T11:40:50.024Z</time></trkpt><trkpt lat="33.8545667" lon="-7.0511117"><ele>27.5</ele><time>2026-04-27T11:40:51.024Z</time></trkpt><trkpt lat="33.8546167" lon="-7.0507683"><ele>29.0</ele><time>2026-04-27T11:40:52.024Z</time></trkpt><trkpt lat="33.8546667" lon="-7.0504267"><ele>29.0</ele><time>2026-04-27T11:40:53.024Z</time></trkpt><trkpt lat="33.854715" lon="-7.0500933"><ele>29.0</ele><time>2026-04-27T11:40:54.024Z</time></trkpt><trkpt lat="33.8547667" lon="-7.0497667"><ele>28.5</ele><time>2026-04-27T11:40:55.024Z</time></trkpt><trkpt lat="33.8548183" lon="-7.04944"><ele>28.0</ele><time>2026-04-27T11:40:56.024Z</time></trkpt><trkpt lat="33.8548783" lon="-7.049115"><ele>27.5</ele><time>2026-04-27T11:40:57.023Z</time></trkpt><trkpt lat="33.8549367" lon="-7.0487867"><ele>27.0</ele><time>2026-04-27T11:40:58.024Z</time></trkpt><trkpt lat="33.85499" lon="-7.0484567"><ele>28.0</ele><time>2026-04-27T11:40:59.023Z</time></trkpt><trkpt lat="33.8550433" lon="-7.0481267"><ele>29.0</ele><time>2026-04-27T11:41:00.024Z</time></trkpt><trkpt lat="33.8550933" lon="-7.047795"><ele>29.0</ele><time>2026-04-27T11:41:01.023Z</time></trkpt><trkpt lat="33.8551533" lon="-7.0474583"><ele>29.0</ele><time>2026-04-27T11:41:02.024Z</time></trkpt><trkpt lat="33.8552117" lon="-7.0471167"><ele>29.0</ele><time>2026-04-27T11:41:03.024Z</time></trkpt><trkpt lat="33.855255" lon="-7.04677"><ele>29.0</ele><time>2026-04-27T11:41:04.024Z</time></trkpt><trkpt lat="33.8553133" lon="-7.0464133"><ele>29.0</ele><time>2026-04-27T11:41:05.024Z</time></trkpt><trkpt lat="33.855385" lon="-7.0460683"><ele>29.0</ele><time>2026-04-27T11:41:06.024Z</time></trkpt><trkpt lat="33.8554517" lon="-7.0457033"><ele>29.5</ele><time>2026-04-27T11:41:07.024Z</time></trkpt><trkpt lat="33.85553" lon="-7.04534"><ele>30.0</ele><time>2026-04-27T11:41:08.024Z</time></trkpt><trkpt lat="33.8556033" lon="-7.044985"><ele>31.0</ele><time>2026-04-27T11:41:09.024Z</time></trkpt><trkpt lat="33.8556733" lon="-7.0446367"><ele>32.0</ele><time>2026-04-27T11:41:10.024Z</time></trkpt><trkpt lat="33.8557467" lon="-7.0442933"><ele>32.0</ele><time>2026-04-27T11:41:11.024Z</time></trkpt><trkpt lat="33.8558217" lon="-7.0439483"><ele>32.0</ele><time>2026-04-27T11:41:12.024Z</time></trkpt><trkpt lat="33.8558933" lon="-7.0436033"><ele>33.5</ele><time>2026-04-27T11:41:13.023Z</time></trkpt><trkpt lat="33.8559683" lon="-7.0432583"><ele>35.0</ele><time>2026-04-27T11:41:14.023Z</time></trkpt><trkpt lat="33.8560483" lon="-7.0429167"><ele>35.0</ele><time>2026-04-27T11:41:15.024Z</time></trkpt><trkpt lat="33.856135" lon="-7.0425717"><ele>35.0</ele><time>2026-04-27T11:41:16.024Z</time></trkpt><trkpt lat="33.85623" lon="-7.042225"><ele>33.5</ele><time>2026-04-27T11:41:17.023Z</time></trkpt><trkpt lat="33.8563267" lon="-7.0418883"><ele>32.0</ele><time>2026-04-27T11:41:18.024Z</time></trkpt><trkpt lat="33.85642" lon="-7.04156"><ele>32.0</ele><time>2026-04-27T11:41:19.024Z</time></trkpt><trkpt lat="33.85651" lon="-7.04123"><ele>32.0</ele><time>2026-04-27T11:41:20.024Z</time></trkpt><trkpt lat="33.8565983" lon="-7.0409"><ele>33.0</ele><time>2026-04-27T11:41:21.024Z</time></trkpt><trkpt lat="33.856685" lon="-7.0405617"><ele>34.0</ele><time>2026-04-27T11:41:22.024Z</time></trkpt><trkpt lat="33.8567833" lon="-7.0402283"><ele>35.0</ele><time>2026-04-27T11:41:23.024Z</time></trkpt><trkpt lat="33.8568833" lon="-7.0399"><ele>36.0</ele><time>2026-04-27T11:41:24.024Z</time></trkpt><trkpt lat="33.8569817" lon="-7.03957"><ele>36.0</ele><time>2026-04-27T11:41:25.024Z</time></trkpt><trkpt lat="33.8570867" lon="-7.0392333"><ele>36.0</ele><time>2026-04-27T11:41:26.024Z</time></trkpt><trkpt lat="33.8571917" lon="-7.0388917"><ele>36.5</ele><time>2026-04-27T11:41:27.024Z</time></trkpt><trkpt lat="33.8573017" lon="-7.0385517"><ele>37.0</ele><time>2026-04-27T11:41:28.024Z</time></trkpt><trkpt lat="33.8573967" lon="-7.0382067"><ele>37.0</ele><time>2026-04-27T11:41:29.024Z</time></trkpt><trkpt lat="33.857495" lon="-7.0378767"><ele>37.0</ele><time>2026-04-27T11:41:30.024Z</time></trkpt><trkpt lat="33.85759" lon="-7.0375517"><ele>37.0</ele><time>2026-04-27T11:41:31.024Z</time></trkpt><trkpt lat="33.857695" lon="-7.0372367"><ele>37.0</ele><time>2026-04-27T11:41:32.024Z</time></trkpt><trkpt lat="33.8578033" lon="-7.03692"><ele>36.5</ele><time>2026-04-27T11:41:33.023Z</time></trkpt><trkpt lat="33.8579167" lon="-7.0365967"><ele>36.0</ele><time>2026-04-27T11:41:34.024Z</time></trkpt><trkpt lat="33.8580367" lon="-7.0362683"><ele>36.0</ele><time>2026-04-27T11:41:35.024Z</time></trkpt><trkpt lat="33.858155" lon="-7.0359383"><ele>36.0</ele><time>2026-04-27T11:41:36.024Z</time></trkpt><trkpt lat="33.8582717" lon="-7.035615"><ele>36.5</ele><time>2026-04-27T11:41:37.024Z</time></trkpt><trkpt lat="33.8583867" lon="-7.0352983"><ele>37.0</ele><time>2026-04-27T11:41:38.023Z</time></trkpt><trkpt lat="33.8584967" lon="-7.034985"><ele>37.5</ele><time>2026-04-27T11:41:39.024Z</time></trkpt><trkpt lat="33.85861" lon="-7.0346667"><ele>38.0</ele><time>2026-04-27T11:41:40.024Z</time></trkpt><trkpt lat="33.8587333" lon="-7.03435"><ele>38.0</ele><time>2026-04-27T11:41:41.024Z</time></trkpt><trkpt lat="33.8588583" lon="-7.03403"><ele>38.0</ele><time>2026-04-27T11:41:42.024Z</time></trkpt><trkpt lat="33.8589833" lon="-7.0337167"><ele>38.0</ele><time>2026-04-27T11:41:43.022Z</time></trkpt><trkpt lat="33.85911" lon="-7.033405"><ele>38.0</ele><time>2026-04-27T11:41:44.023Z</time></trkpt><trkpt lat="33.8592383" lon="-7.0331"><ele>37.0</ele><time>2026-04-27T11:41:45.023Z</time></trkpt><trkpt lat="33.8593683" lon="-7.0327883"><ele>36.0</ele><time>2026-04-27T11:41:46.023Z</time></trkpt><trkpt lat="33.8594983" lon="-7.03248"><ele>36.0</ele><time>2026-04-27T11:41:47.023Z</time></trkpt><trkpt lat="33.8596267" lon="-7.0321667"><ele>36.0</ele><time>2026-04-27T11:41:48.023Z</time></trkpt><trkpt lat="33.8597633" lon="-7.0318567"><ele>35.5</ele><time>2026-04-27T11:41:49.023Z</time></trkpt><trkpt lat="33.8598967" lon="-7.0315483"><ele>35.0</ele><time>2026-04-27T11:41:50.023Z</time></trkpt><trkpt lat="33.8600317" lon="-7.0312383"><ele>34.5</ele><time>2026-04-27T11:41:51.023Z</time></trkpt><trkpt lat="33.8601683" lon="-7.0309267"><ele>34.0</ele><time>2026-04-27T11:41:52.023Z</time></trkpt><trkpt lat="33.8603067" lon="-7.0306183"><ele>35.0</ele><time>2026-04-27T11:41:53.023Z</time></trkpt><trkpt lat="33.8604483" lon="-7.03031"><ele>36.0</ele><time>2026-04-27T11:41:54.023Z</time></trkpt><trkpt lat="33.8605883" lon="-7.0300017"><ele>36.0</ele><time>2026-04-27T11:41:55.023Z</time></trkpt><trkpt lat="33.8607333" lon="-7.029695"><ele>36.0</ele><time>2026-04-27T11:41:56.022Z</time></trkpt><trkpt lat="33.8608783" lon="-7.029385"><ele>35.5</ele><time>2026-04-27T11:41:57.023Z</time></trkpt><trkpt lat="33.86103" lon="-7.0290817"><ele>35.0</ele><time>2026-04-27T11:41:58.023Z</time></trkpt><trkpt lat="33.8611783" lon="-7.0287817"><ele>35.0</ele><time>2026-04-27T11:41:59.023Z</time></trkpt><trkpt lat="33.86133" lon="-7.0284833"><ele>35.0</ele><time>2026-04-27T11:42:00.023Z</time></trkpt><trkpt lat="33.8614783" lon="-7.0281933"><ele>34.5</ele><time>2026-04-27T11:42:01.023Z</time></trkpt><trkpt lat="33.8616233" lon="-7.0279"><ele>34.0</ele><time>2026-04-27T11:42:02.023Z</time></trkpt><trkpt lat="33.8617767" lon="-7.02761"><ele>35.5</ele><time>2026-04-27T11:42:03.023Z</time></trkpt><trkpt lat="33.8619267" lon="-7.02732"><ele>37.0</ele><time>2026-04-27T11:42:04.023Z</time></trkpt><trkpt lat="33.8620817" lon="-7.02703"><ele>37.0</ele><time>2026-04-27T11:42:05.023Z</time></trkpt><trkpt lat="33.8622383" lon="-7.0267433"><ele>37.0</ele><time>2026-04-27T11:42:06.023Z</time></trkpt><trkpt lat="33.8623983" lon="-7.0264583"><ele>36.5</ele><time>2026-04-27T11:42:07.023Z</time></trkpt><trkpt lat="33.8625583" lon="-7.0261667"><ele>36.0</ele><time>2026-04-27T11:42:08.023Z</time></trkpt><trkpt lat="33.8627233" lon="-7.0258767"><ele>34.5</ele><time>2026-04-27T11:42:09.023Z</time></trkpt><trkpt lat="33.8628867" lon="-7.0255917"><ele>33.0</ele><time>2026-04-27T11:42:10.023Z</time></trkpt><trkpt lat="33.86305" lon="-7.0253083"><ele>33.0</ele><time>2026-04-27T11:42:11.023Z</time></trkpt><trkpt lat="33.863215" lon="-7.02503"><ele>33.0</ele><time>2026-04-27T11:42:12.023Z</time></trkpt><trkpt lat="33.863385" lon="-7.0247517"><ele>34.5</ele><time>2026-04-27T11:42:13.023Z</time></trkpt><trkpt lat="33.8635533" lon="-7.0244717"><ele>36.0</ele><time>2026-04-27T11:42:14.023Z</time></trkpt><trkpt lat="33.8637283" lon="-7.0241967"><ele>36.5</ele><time>2026-04-27T11:42:15.023Z</time></trkpt><trkpt lat="33.8639017" lon="-7.0239167"><ele>37.0</ele><time>2026-04-27T11:42:16.023Z</time></trkpt><trkpt lat="33.8640767" lon="-7.0236417"><ele>37.0</ele><time>2026-04-27T11:42:17.023Z</time></trkpt><trkpt lat="33.8642567" lon="-7.0233633"><ele>37.0</ele><time>2026-04-27T11:42:18.023Z</time></trkpt><trkpt lat="33.8644383" lon="-7.0230833"><ele>36.5</ele><time>2026-04-27T11:42:19.023Z</time></trkpt><trkpt lat="33.864615" lon="-7.0228117"><ele>36.0</ele><time>2026-04-27T11:42:20.022Z</time></trkpt><trkpt lat="33.86479" lon="-7.022545"><ele>36.0</ele><time>2026-04-27T11:42:21.023Z</time></trkpt><trkpt lat="33.8649667" lon="-7.02228"><ele>36.0</ele><time>2026-04-27T11:42:22.023Z</time></trkpt><trkpt lat="33.8651433" lon="-7.0220117"><ele>36.0</ele><time>2026-04-27T11:42:23.023Z</time></trkpt><trkpt lat="33.8653283" lon="-7.0217483"><ele>36.0</ele><time>2026-04-27T11:42:24.022Z</time></trkpt><trkpt lat="33.8655133" lon="-7.02148"><ele>37.0</ele><time>2026-04-27T11:42:25.023Z</time></trkpt><trkpt lat="33.8657017" lon="-7.02121"><ele>38.0</ele><time>2026-04-27T11:42:26.023Z</time></trkpt><trkpt lat="33.8658917" lon="-7.020945"><ele>38.0</ele><time>2026-04-27T11:42:27.023Z</time></trkpt><trkpt lat="33.8660783" lon="-7.0206783"><ele>38.0</ele><time>2026-04-27T11:42:28.023Z</time></trkpt><trkpt lat="33.8662717" lon="-7.0204083"><ele>38.0</ele><time>2026-04-27T11:42:29.023Z</time></trkpt><trkpt lat="33.8664617" lon="-7.0201417"><ele>38.0</ele><time>2026-04-27T11:42:30.022Z</time></trkpt><trkpt lat="33.866655" lon="-7.0198783"><ele>38.0</ele><time>2026-04-27T11:42:31.023Z</time></trkpt><trkpt lat="33.8668533" lon="-7.0196167"><ele>38.0</ele><time>2026-04-27T11:42:32.023Z</time></trkpt><trkpt lat="33.867055" lon="-7.0193483"><ele>38.0</ele><time>2026-04-27T11:42:33.023Z</time></trkpt><trkpt lat="33.8672517" lon="-7.0190867"><ele>38.0</ele><time>2026-04-27T11:42:34.023Z</time></trkpt><trkpt lat="33.8674533" lon="-7.0188317"><ele>36.0</ele><time>2026-04-27T11:42:35.023Z</time></trkpt><trkpt lat="33.8676583" lon="-7.0185783"><ele>34.0</ele><time>2026-04-27T11:42:36.023Z</time></trkpt><trkpt lat="33.8678633" lon="-7.0183217"><ele>37.0</ele><time>2026-04-27T11:42:37.023Z</time></trkpt><trkpt lat="33.868065" lon="-7.0180733"><ele>40.0</ele><time>2026-04-27T11:42:38.023Z</time></trkpt><trkpt lat="33.86827" lon="-7.0178333"><ele>39.5</ele><time>2026-04-27T11:42:39.022Z</time></trkpt><trkpt lat="33.8684767" lon="-7.0175917"><ele>39.0</ele><time>2026-04-27T11:42:40.022Z</time></trkpt><trkpt lat="33.868685" lon="-7.0173483"><ele>39.0</ele><time>2026-04-27T11:42:41.023Z</time></trkpt><trkpt lat="33.8688933" lon="-7.0171"><ele>39.0</ele><time>2026-04-27T11:42:42.023Z</time></trkpt><trkpt lat="33.8691033" lon="-7.01686"><ele>37.5</ele><time>2026-04-27T11:42:43.023Z</time></trkpt><trkpt lat="33.8693133" lon="-7.016615"><ele>36.0</ele><time>2026-04-27T11:42:44.022Z</time></trkpt><trkpt lat="33.8695217" lon="-7.0163733"><ele>36.0</ele><time>2026-04-27T11:42:45.022Z</time></trkpt><trkpt lat="33.8697317" lon="-7.016135"><ele>36.0</ele><time>2026-04-27T11:42:46.023Z</time></trkpt><trkpt lat="33.869945" lon="-7.0158983"><ele>36.0</ele><time>2026-04-27T11:42:47.023Z</time></trkpt><trkpt lat="33.8701583" lon="-7.015665"><ele>36.0</ele><time>2026-04-27T11:42:48.023Z</time></trkpt><trkpt lat="33.8703717" lon="-7.0154317"><ele>36.0</ele><time>2026-04-27T11:42:49.023Z</time></trkpt><trkpt lat="33.870585" lon="-7.015195"><ele>36.0</ele><time>2026-04-27T11:42:50.023Z</time></trkpt><trkpt lat="33.8707967" lon="-7.0149533"><ele>35.0</ele><time>2026-04-27T11:42:51.023Z</time></trkpt><trkpt lat="33.8710067" lon="-7.0147117"><ele>34.0</ele><time>2026-04-27T11:42:52.023Z</time></trkpt><trkpt lat="33.8712217" lon="-7.014475"><ele>34.0</ele><time>2026-04-27T11:42:53.023Z</time></trkpt><trkpt lat="33.87144" lon="-7.0142467"><ele>34.0</ele><time>2026-04-27T11:42:54.023Z</time></trkpt><trkpt lat="33.8716633" lon="-7.014025"><ele>34.5</ele><time>2026-04-27T11:42:55.023Z</time></trkpt><trkpt lat="33.8718883" lon="-7.0138083"><ele>35.0</ele><time>2026-04-27T11:42:56.023Z</time></trkpt><trkpt lat="33.8721133" lon="-7.013595"><ele>35.0</ele><time>2026-04-27T11:42:57.023Z</time></trkpt><trkpt lat="33.872335" lon="-7.0133783"><ele>35.0</ele><time>2026-04-27T11:42:58.023Z</time></trkpt><trkpt lat="33.8725567" lon="-7.013165"><ele>35.5</ele><time>2026-04-27T11:42:59.023Z</time></trkpt><trkpt lat="33.8727817" lon="-7.0129517"><ele>36.0</ele><time>2026-04-27T11:43:00.023Z</time></trkpt><trkpt lat="33.8730067" lon="-7.012735"><ele>36.0</ele><time>2026-04-27T11:43:01.023Z</time></trkpt><trkpt lat="33.87323" lon="-7.01252"><ele>36.0</ele><time>2026-04-27T11:43:02.023Z</time></trkpt><trkpt lat="33.87345" lon="-7.0123067"><ele>36.0</ele><time>2026-04-27T11:43:03.023Z</time></trkpt><trkpt lat="33.8736767" lon="-7.0120967"><ele>36.0</ele><time>2026-04-27T11:43:04.023Z</time></trkpt><trkpt lat="33.8739033" lon="-7.0118917"><ele>36.0</ele><time>2026-04-27T11:43:05.023Z</time></trkpt><trkpt lat="33.8741333" lon="-7.0116817"><ele>36.0</ele><time>2026-04-27T11:43:06.023Z</time></trkpt><trkpt lat="33.87436" lon="-7.0114817"><ele>35.5</ele><time>2026-04-27T11:43:07.023Z</time></trkpt><trkpt lat="33.8745917" lon="-7.01128"><ele>35.0</ele><time>2026-04-27T11:43:08.023Z</time></trkpt><trkpt lat="33.874825" lon="-7.01109"><ele>35.0</ele><time>2026-04-27T11:43:09.022Z</time></trkpt><trkpt lat="33.8750617" lon="-7.0108983"><ele>35.0</ele><time>2026-04-27T11:43:10.023Z</time></trkpt><trkpt lat="33.8753" lon="-7.0107117"><ele>34.5</ele><time>2026-04-27T11:43:11.023Z</time></trkpt><trkpt lat="33.8755367" lon="-7.0105233"><ele>34.0</ele><time>2026-04-27T11:43:12.022Z</time></trkpt><trkpt lat="33.8757783" lon="-7.0103417"><ele>32.0</ele><time>2026-04-27T11:43:13.022Z</time></trkpt><trkpt lat="33.87603" lon="-7.010165"><ele>30.0</ele><time>2026-04-27T11:43:14.023Z</time></trkpt><trkpt lat="33.8762783" lon="-7.0099917"><ele>30.5</ele><time>2026-04-27T11:43:15.023Z</time></trkpt><trkpt lat="33.87653" lon="-7.00982"><ele>31.0</ele><time>2026-04-27T11:43:16.023Z</time></trkpt><trkpt lat="33.8767967" lon="-7.00965"><ele>30.0</ele><time>2026-04-27T11:43:17.023Z</time></trkpt><trkpt lat="33.8770583" lon="-7.009485"><ele>29.0</ele><time>2026-04-27T11:43:18.023Z</time></trkpt><trkpt lat="33.877325" lon="-7.009325"><ele>29.0</ele><time>2026-04-27T11:43:19.022Z</time></trkpt><trkpt lat="33.87759" lon="-7.0091633"><ele>29.0</ele><time>2026-04-27T11:43:20.023Z</time></trkpt><trkpt lat="33.877855" lon="-7.0090117"><ele>29.0</ele><time>2026-04-27T11:43:21.023Z</time></trkpt><trkpt lat="33.8781233" lon="-7.00886"><ele>29.0</ele><time>2026-04-27T11:43:22.023Z</time></trkpt><trkpt lat="33.878385" lon="-7.0087133"><ele>28.0</ele><time>2026-04-27T11:43:23.023Z</time></trkpt><trkpt lat="33.878645" lon="-7.0085783"><ele>27.0</ele><time>2026-04-27T11:43:24.023Z</time></trkpt><trkpt lat="33.878905" lon="-7.0084433"><ele>27.0</ele><time>2026-04-27T11:43:25.023Z</time></trkpt><trkpt lat="33.8791683" lon="-7.008315"><ele>27.0</ele><time>2026-04-27T11:43:26.023Z</time></trkpt><trkpt lat="33.87943" lon="-7.0081917"><ele>27.0</ele><time>2026-04-27T11:43:27.023Z</time></trkpt><trkpt lat="33.8796917" lon="-7.0080667"><ele>27.0</ele><time>2026-04-27T11:43:28.023Z</time></trkpt><trkpt lat="33.87996" lon="-7.0079433"><ele>25.5</ele><time>2026-04-27T11:43:29.023Z</time></trkpt><trkpt lat="33.8802267" lon="-7.00782"><ele>24.0</ele><time>2026-04-27T11:43:30.023Z</time></trkpt><trkpt lat="33.880495" lon="-7.007695"><ele>24.0</ele><time>2026-04-27T11:43:31.023Z</time></trkpt><trkpt lat="33.8807717" lon="-7.0075783"><ele>24.0</ele><time>2026-04-27T11:43:32.023Z</time></trkpt><trkpt lat="33.88105" lon="-7.00746"><ele>22.0</ele><time>2026-04-27T11:43:33.023Z</time></trkpt><trkpt lat="33.88133" lon="-7.0073517"><ele>20.0</ele><time>2026-04-27T11:43:34.023Z</time></trkpt><trkpt lat="33.88161" lon="-7.0072433"><ele>22.5</ele><time>2026-04-27T11:43:35.023Z</time></trkpt><trkpt lat="33.881895" lon="-7.0071383"><ele>25.0</ele><time>2026-04-27T11:43:36.023Z</time></trkpt><trkpt lat="33.8821767" lon="-7.0070383"><ele>25.0</ele><time>2026-04-27T11:43:37.023Z</time></trkpt><trkpt lat="33.882455" lon="-7.006925"><ele>25.0</ele><time>2026-04-27T11:43:38.023Z</time></trkpt><trkpt lat="33.882735" lon="-7.006815"><ele>25.0</ele><time>2026-04-27T11:43:39.023Z</time></trkpt><trkpt lat="33.8830133" lon="-7.0066983"><ele>25.0</ele><time>2026-04-27T11:43:40.023Z</time></trkpt><trkpt lat="33.883295" lon="-7.0065783"><ele>25.0</ele><time>2026-04-27T11:43:41.022Z</time></trkpt><trkpt lat="33.8835817" lon="-7.0064533"><ele>25.0</ele><time>2026-04-27T11:43:42.023Z</time></trkpt><trkpt lat="33.8838583" lon="-7.00633"><ele>25.0</ele><time>2026-04-27T11:43:43.023Z</time></trkpt><trkpt lat="33.8841383" lon="-7.0061967"><ele>25.0</ele><time>2026-04-27T11:43:44.023Z</time></trkpt><trkpt lat="33.884415" lon="-7.0060583"><ele>25.0</ele><time>2026-04-27T11:43:45.022Z</time></trkpt><trkpt lat="33.88469" lon="-7.005915"><ele>25.0</ele><time>2026-04-27T11:43:46.023Z</time></trkpt><trkpt lat="33.8849633" lon="-7.0057617"><ele>26.5</ele><time>2026-04-27T11:43:47.023Z</time></trkpt><trkpt lat="33.8852433" lon="-7.0056"><ele>28.0</ele><time>2026-04-27T11:43:48.023Z</time></trkpt><trkpt lat="33.8855" lon="-7.00542"><ele>28.0</ele><time>2026-04-27T11:43:49.023Z</time></trkpt><trkpt lat="33.8857467" lon="-7.005225"><ele>28.0</ele><time>2026-04-27T11:43:50.023Z</time></trkpt><trkpt lat="33.8859867" lon="-7.0050367"><ele>28.5</ele><time>2026-04-27T11:43:51.023Z</time></trkpt><trkpt lat="33.8862283" lon="-7.00484"><ele>29.0</ele><time>2026-04-27T11:43:52.023Z</time></trkpt><trkpt lat="33.8864583" lon="-7.004635"><ele>29.0</ele><time>2026-04-27T11:43:53.023Z</time></trkpt><trkpt lat="33.886685" lon="-7.0044283"><ele>29.0</ele><time>2026-04-27T11:43:54.023Z</time></trkpt><trkpt lat="33.88691" lon="-7.00422"><ele>29.5</ele><time>2026-04-27T11:43:55.023Z</time></trkpt><trkpt lat="33.8871267" lon="-7.0040067"><ele>30.0</ele><time>2026-04-27T11:43:56.023Z</time></trkpt><trkpt lat="33.8873383" lon="-7.0037833"><ele>30.0</ele><time>2026-04-27T11:43:57.023Z</time></trkpt><trkpt lat="33.88755" lon="-7.0035383"><ele>30.0</ele><time>2026-04-27T11:43:58.023Z</time></trkpt><trkpt lat="33.8877567" lon="-7.0032867"><ele>27.5</ele><time>2026-04-27T11:43:59.022Z</time></trkpt><trkpt lat="33.8879667" lon="-7.00303"><ele>25.0</ele><time>2026-04-27T11:44:00.022Z</time></trkpt><trkpt lat="33.8881717" lon="-7.0027667"><ele>25.0</ele><time>2026-04-27T11:44:01.023Z</time></trkpt><trkpt lat="33.88838" lon="-7.00249"><ele>25.0</ele><time>2026-04-27T11:44:02.023Z</time></trkpt><trkpt lat="33.888575" lon="-7.0022017"><ele>25.0</ele><time>2026-04-27T11:44:03.023Z</time></trkpt><trkpt lat="33.8887667" lon="-7.0019067"><ele>25.0</ele><time>2026-04-27T11:44:04.023Z</time></trkpt><trkpt lat="33.888945" lon="-7.0016117"><ele>25.5</ele><time>2026-04-27T11:44:05.023Z</time></trkpt><trkpt lat="33.8891167" lon="-7.0013183"><ele>26.0</ele><time>2026-04-27T11:44:06.023Z</time></trkpt><trkpt lat="33.8892883" lon="-7.00102"><ele>22.0</ele><time>2026-04-27T11:44:07.023Z</time></trkpt><trkpt lat="33.8894533" lon="-7.0007233"><ele>18.0</ele><time>2026-04-27T11:44:08.022Z</time></trkpt><trkpt lat="33.889615" lon="-7.0004117"><ele>18.0</ele><time>2026-04-27T11:44:09.023Z</time></trkpt><trkpt lat="33.889775" lon="-7.0000933"><ele>18.0</ele><time>2026-04-27T11:44:10.022Z</time></trkpt><trkpt lat="33.88993" lon="-6.9997667"><ele>18.0</ele><time>2026-04-27T11:44:11.023Z</time></trkpt><trkpt lat="33.8900833" lon="-6.99944"><ele>18.0</ele><time>2026-04-27T11:44:12.023Z</time></trkpt><trkpt lat="33.8902317" lon="-6.9991017"><ele>13.5</ele><time>2026-04-27T11:44:13.023Z</time></trkpt><trkpt lat="33.890375" lon="-6.9987567"><ele>9.0</ele><time>2026-04-27T11:44:14.023Z</time></trkpt><trkpt lat="33.8905183" lon="-6.9984167"><ele>9.5</ele><time>2026-04-27T11:44:15.023Z</time></trkpt><trkpt lat="33.890655" lon="-6.99809"><ele>10.0</ele><time>2026-04-27T11:44:16.023Z</time></trkpt><trkpt lat="33.8907933" lon="-6.9977667"><ele>10.0</ele><time>2026-04-27T11:44:17.023Z</time></trkpt><trkpt lat="33.8909283" lon="-6.9974383"><ele>10.0</ele><time>2026-04-27T11:44:18.023Z</time></trkpt><trkpt lat="33.891065" lon="-6.9971133"><ele>10.0</ele><time>2026-04-27T11:44:19.023Z</time></trkpt><trkpt lat="33.8912017" lon="-6.9967917"><ele>10.0</ele><time>2026-04-27T11:44:20.023Z</time></trkpt><trkpt lat="33.8913417" lon="-6.9964683"><ele>13.0</ele><time>2026-04-27T11:44:21.023Z</time></trkpt><trkpt lat="33.8914817" lon="-6.996145"><ele>16.0</ele><time>2026-04-27T11:44:22.023Z</time></trkpt><trkpt lat="33.8916233" lon="-6.9958217"><ele>17.0</ele><time>2026-04-27T11:44:23.023Z</time></trkpt><trkpt lat="33.891765" lon="-6.9955033"><ele>18.0</ele><time>2026-04-27T11:44:24.023Z</time></trkpt><trkpt lat="33.8919083" lon="-6.9951833"><ele>19.5</ele><time>2026-04-27T11:44:25.023Z</time></trkpt><trkpt lat="33.89205" lon="-6.9948567"><ele>21.0</ele><time>2026-04-27T11:44:26.023Z</time></trkpt><trkpt lat="33.8922" lon="-6.994525"><ele>21.0</ele><time>2026-04-27T11:44:27.023Z</time></trkpt><trkpt lat="33.892345" lon="-6.9941967"><ele>21.0</ele><time>2026-04-27T11:44:28.023Z</time></trkpt><trkpt lat="33.892495" lon="-6.9938617"><ele>21.0</ele><time>2026-04-27T11:44:29.023Z</time></trkpt><trkpt lat="33.8926433" lon="-6.9935467"><ele>21.0</ele><time>2026-04-27T11:44:30.023Z</time></trkpt><trkpt lat="33.89279" lon="-6.993225"><ele>21.0</ele><time>2026-04-27T11:44:31.022Z</time></trkpt><trkpt lat="33.8929367" lon="-6.9928917"><ele>21.0</ele><time>2026-04-27T11:44:32.023Z</time></trkpt><trkpt lat="33.893085" lon="-6.99256"><ele>22.0</ele><time>2026-04-27T11:44:33.023Z</time></trkpt><trkpt lat="33.89324" lon="-6.9922267"><ele>23.0</ele><time>2026-04-27T11:44:34.023Z</time></trkpt><trkpt lat="33.89339" lon="-6.9919117"><ele>23.5</ele><time>2026-04-27T11:44:35.022Z</time></trkpt><trkpt lat="33.8935333" lon="-6.991605"><ele>24.0</ele><time>2026-04-27T11:44:36.023Z</time></trkpt><trkpt lat="33.8936733" lon="-6.991305"><ele>24.0</ele><time>2026-04-27T11:44:37.023Z</time></trkpt><trkpt lat="33.8938167" lon="-6.99101"><ele>24.0</ele><time>2026-04-27T11:44:38.023Z</time></trkpt><trkpt lat="33.893965" lon="-6.9907117"><ele>23.5</ele><time>2026-04-27T11:44:39.023Z</time></trkpt><trkpt lat="33.894115" lon="-6.99041"><ele>23.0</ele><time>2026-04-27T11:44:40.023Z</time></trkpt><trkpt lat="33.8942667" lon="-6.99011"><ele>24.0</ele><time>2026-04-27T11:44:41.023Z</time></trkpt><trkpt lat="33.89442" lon="-6.9898067"><ele>25.0</ele><time>2026-04-27T11:44:42.023Z</time></trkpt><trkpt lat="33.8945767" lon="-6.989505"><ele>25.0</ele><time>2026-04-27T11:44:43.023Z</time></trkpt><trkpt lat="33.8947333" lon="-6.9892067"><ele>25.0</ele><time>2026-04-27T11:44:44.023Z</time></trkpt><trkpt lat="33.8948917" lon="-6.9889183"><ele>25.0</ele><time>2026-04-27T11:44:45.023Z</time></trkpt><trkpt lat="33.8950433" lon="-6.98863"><ele>25.0</ele><time>2026-04-27T11:44:46.023Z</time></trkpt><trkpt lat="33.8951983" lon="-6.988345"><ele>25.5</ele><time>2026-04-27T11:44:47.023Z</time></trkpt><trkpt lat="33.8953533" lon="-6.9880583"><ele>26.0</ele><time>2026-04-27T11:44:48.023Z</time></trkpt><trkpt lat="33.89551" lon="-6.9877683"><ele>25.5</ele><time>2026-04-27T11:44:49.023Z</time></trkpt><trkpt lat="33.8956683" lon="-6.9874783"><ele>25.0</ele><time>2026-04-27T11:44:50.023Z</time></trkpt><trkpt lat="33.895825" lon="-6.9871817"><ele>25.0</ele><time>2026-04-27T11:44:51.023Z</time></trkpt><trkpt lat="33.895985" lon="-6.9868817"><ele>25.0</ele><time>2026-04-27T11:44:52.023Z</time></trkpt><trkpt lat="33.8961467" lon="-6.9865883"><ele>25.0</ele><time>2026-04-27T11:44:53.023Z</time></trkpt><trkpt lat="33.896305" lon="-6.9862933"><ele>25.0</ele><time>2026-04-27T11:44:54.023Z</time></trkpt><trkpt lat="33.8964617" lon="-6.98601"><ele>25.5</ele><time>2026-04-27T11:44:55.022Z</time></trkpt><trkpt lat="33.8966117" lon="-6.98573"><ele>26.0</ele><time>2026-04-27T11:44:56.023Z</time></trkpt><trkpt lat="33.8967633" lon="-6.9854533"><ele>26.0</ele><time>2026-04-27T11:44:57.022Z</time></trkpt><trkpt lat="33.896915" lon="-6.985175"><ele>26.0</ele><time>2026-04-27T11:44:58.023Z</time></trkpt><trkpt lat="33.8970717" lon="-6.984895"><ele>26.0</ele><time>2026-04-27T11:44:59.023Z</time></trkpt><trkpt lat="33.8972267" lon="-6.9846083"><ele>26.0</ele><time>2026-04-27T11:45:00.023Z</time></trkpt><trkpt lat="33.8973833" lon="-6.9843233"><ele>25.0</ele><time>2026-04-27T11:45:01.023Z</time></trkpt><trkpt lat="33.8975433" lon="-6.9840317"><ele>24.0</ele><time>2026-04-27T11:45:02.022Z</time></trkpt><trkpt lat="33.897705" lon="-6.9837367"><ele>23.5</ele><time>2026-04-27T11:45:03.023Z</time></trkpt><trkpt lat="33.8978683" lon="-6.9834383"><ele>23.0</ele><time>2026-04-27T11:45:04.023Z</time></trkpt><trkpt lat="33.8980333" lon="-6.9831367"><ele>25.0</ele><time>2026-04-27T11:45:05.022Z</time></trkpt><trkpt lat="33.8982" lon="-6.9828417"><ele>27.0</ele><time>2026-04-27T11:45:06.023Z</time></trkpt><trkpt lat="33.8983683" lon="-6.9825333"><ele>26.0</ele><time>2026-04-27T11:45:07.023Z</time></trkpt><trkpt lat="33.898535" lon="-6.982225"><ele>25.0</ele><time>2026-04-27T11:45:08.023Z</time></trkpt><trkpt lat="33.8986983" lon="-6.9819133"><ele>25.5</ele><time>2026-04-27T11:45:09.022Z</time></trkpt><trkpt lat="33.8988583" lon="-6.9816217"><ele>26.0</ele><time>2026-04-27T11:45:10.023Z</time></trkpt><trkpt lat="33.8990133" lon="-6.9813383"><ele>26.0</ele><time>2026-04-27T11:45:11.023Z</time></trkpt><trkpt lat="33.89917" lon="-6.9810617"><ele>26.0</ele><time>2026-04-27T11:45:12.023Z</time></trkpt><trkpt lat="33.8993267" lon="-6.9807783"><ele>26.0</ele><time>2026-04-27T11:45:13.023Z</time></trkpt><trkpt lat="33.8994833" lon="-6.9804867"><ele>26.0</ele><time>2026-04-27T11:45:14.023Z</time></trkpt><trkpt lat="33.8996417" lon="-6.9802"><ele>25.5</ele><time>2026-04-27T11:45:15.023Z</time></trkpt><trkpt lat="33.899805" lon="-6.9799083"><ele>25.0</ele><time>2026-04-27T11:45:16.023Z</time></trkpt><trkpt lat="33.8999683" lon="-6.9796183"><ele>25.5</ele><time>2026-04-27T11:45:17.023Z</time></trkpt><trkpt lat="33.9001333" lon="-6.979325"><ele>26.0</ele><time>2026-04-27T11:45:18.023Z</time></trkpt><trkpt lat="33.9002967" lon="-6.9790333"><ele>26.0</ele><time>2026-04-27T11:45:19.023Z</time></trkpt><trkpt lat="33.90046" lon="-6.9787467"><ele>26.0</ele><time>2026-04-27T11:45:20.023Z</time></trkpt><trkpt lat="33.90062" lon="-6.978455"><ele>25.5</ele><time>2026-04-27T11:45:21.023Z</time></trkpt><trkpt lat="33.900785" lon="-6.9781733"><ele>25.0</ele><time>2026-04-27T11:45:22.023Z</time></trkpt><trkpt lat="33.900955" lon="-6.97789"><ele>25.0</ele><time>2026-04-27T11:45:23.023Z</time></trkpt><trkpt lat="33.9011333" lon="-6.97762"><ele>25.0</ele><time>2026-04-27T11:45:24.023Z</time></trkpt><trkpt lat="33.9013167" lon="-6.977345"><ele>25.5</ele><time>2026-04-27T11:45:25.023Z</time></trkpt><trkpt lat="33.90151" lon="-6.9770683"><ele>26.0</ele><time>2026-04-27T11:45:26.023Z</time></trkpt><trkpt lat="33.9017117" lon="-6.9768017"><ele>26.5</ele><time>2026-04-27T11:45:27.023Z</time></trkpt><trkpt lat="33.9019283" lon="-6.976535"><ele>27.0</ele><time>2026-04-27T11:45:28.023Z</time></trkpt><trkpt lat="33.90214" lon="-6.9762733"><ele>27.0</ele><time>2026-04-27T11:45:29.023Z</time></trkpt><trkpt lat="33.9023417" lon="-6.9760167"><ele>27.0</ele><time>2026-04-27T11:45:30.023Z</time></trkpt><trkpt lat="33.9025383" lon="-6.97576"><ele>27.5</ele><time>2026-04-27T11:45:31.023Z</time></trkpt><trkpt lat="33.9027367" lon="-6.97551"><ele>28.0</ele><time>2026-04-27T11:45:32.023Z</time></trkpt><trkpt lat="33.9029333" lon="-6.97526"><ele>27.5</ele><time>2026-04-27T11:45:33.023Z</time></trkpt><trkpt lat="33.9031333" lon="-6.9750083"><ele>27.0</ele><time>2026-04-27T11:45:34.023Z</time></trkpt><trkpt lat="33.9033317" lon="-6.9747517"><ele>26.0</ele><time>2026-04-27T11:45:35.023Z</time></trkpt><trkpt lat="33.9035317" lon="-6.97449"><ele>25.0</ele><time>2026-04-27T11:45:36.023Z</time></trkpt><trkpt lat="33.903725" lon="-6.9742333"><ele>25.0</ele><time>2026-04-27T11:45:37.023Z</time></trkpt><trkpt lat="33.90392" lon="-6.97398"><ele>25.0</ele><time>2026-04-27T11:45:38.023Z</time></trkpt><trkpt lat="33.90411" lon="-6.973735"><ele>25.5</ele><time>2026-04-27T11:45:39.023Z</time></trkpt><trkpt lat="33.9042967" lon="-6.9734783"><ele>26.0</ele><time>2026-04-27T11:45:40.022Z</time></trkpt><trkpt lat="33.90449" lon="-6.973225"><ele>26.5</ele><time>2026-04-27T11:45:41.022Z</time></trkpt><trkpt lat="33.9046833" lon="-6.97297"><ele>27.0</ele><time>2026-04-27T11:45:42.023Z</time></trkpt><trkpt lat="33.9048767" lon="-6.97271"><ele>26.0</ele><time>2026-04-27T11:45:43.023Z</time></trkpt><trkpt lat="33.90507" lon="-6.97245"><ele>25.0</ele><time>2026-04-27T11:45:44.023Z</time></trkpt><trkpt lat="33.9052667" lon="-6.9721933"><ele>24.5</ele><time>2026-04-27T11:45:45.023Z</time></trkpt><trkpt lat="33.9054667" lon="-6.9719367"><ele>24.0</ele><time>2026-04-27T11:45:46.023Z</time></trkpt><trkpt lat="33.9056583" lon="-6.971675"><ele>24.0</ele><time>2026-04-27T11:45:47.023Z</time></trkpt><trkpt lat="33.905855" lon="-6.9714217"><ele>24.0</ele><time>2026-04-27T11:45:48.023Z</time></trkpt><trkpt lat="33.90605" lon="-6.9711583"><ele>24.0</ele><time>2026-04-27T11:45:49.023Z</time></trkpt><trkpt lat="33.9062467" lon="-6.9709033"><ele>24.0</ele><time>2026-04-27T11:45:50.023Z</time></trkpt><trkpt lat="33.9064483" lon="-6.97065"><ele>24.0</ele><time>2026-04-27T11:45:51.023Z</time></trkpt><trkpt lat="33.9066433" lon="-6.9703967"><ele>24.0</ele><time>2026-04-27T11:45:52.023Z</time></trkpt><trkpt lat="33.9068383" lon="-6.9701417"><ele>23.5</ele><time>2026-04-27T11:45:53.023Z</time></trkpt><trkpt lat="33.9070367" lon="-6.9698867"><ele>23.0</ele><time>2026-04-27T11:45:54.023Z</time></trkpt><trkpt lat="33.9072417" lon="-6.9696317"><ele>23.0</ele><time>2026-04-27T11:45:55.023Z</time></trkpt><trkpt lat="33.9074483" lon="-6.9693717"><ele>23.0</ele><time>2026-04-27T11:45:56.023Z</time></trkpt></trkseg><trkseg><trkpt lat="33.93166" lon="-6.9382467"><ele>25.0</ele><time>2026-04-27T11:47:58.058Z</time></trkpt><trkpt lat="33.931975" lon="-6.937855"><ele>23.0</ele><time>2026-04-27T11:47:59.558Z</time></trkpt><trkpt lat="33.9323083" lon="-6.9374467"><ele>27.0</ele><time>2026-04-27T11:48:01.058Z</time></trkpt><trkpt lat="33.93272" lon="-6.9369483"><ele>26.0</ele><time>2026-04-27T11:48:03.045Z</time></trkpt><trkpt lat="33.9329283" lon="-6.93668"><ele>25.0</ele><time>2026-04-27T11:48:04.045Z</time></trkpt><trkpt lat="33.9331083" lon="-6.9364183"><ele>25.0</ele><time>2026-04-27T11:48:05.045Z</time></trkpt><trkpt lat="33.93329" lon="-6.93618"><ele>25.0</ele><time>2026-04-27T11:48:06.044Z</time></trkpt><trkpt lat="33.9334817" lon="-6.9359317"><ele>25.0</ele><time>2026-04-27T11:48:07.045Z</time></trkpt><trkpt lat="33.9336733" lon="-6.9356833"><ele>25.0</ele><time>2026-04-27T11:48:08.045Z</time></trkpt><trkpt lat="33.9338717" lon="-6.9354333"><ele>25.0</ele><time>2026-04-27T11:48:09.045Z</time></trkpt><trkpt lat="33.9340717" lon="-6.9351783"><ele>25.0</ele><time>2026-04-27T11:48:10.045Z</time></trkpt><trkpt lat="33.9342683" lon="-6.9349233"><ele>25.0</ele><time>2026-04-27T11:48:11.045Z</time></trkpt><trkpt lat="33.934465" lon="-6.934665"><ele>25.0</ele><time>2026-04-27T11:48:12.045Z</time></trkpt><trkpt lat="33.93466" lon="-6.9344033"><ele>24.5</ele><time>2026-04-27T11:48:13.045Z</time></trkpt><trkpt lat="33.9348533" lon="-6.9341483"><ele>24.0</ele><time>2026-04-27T11:48:14.045Z</time></trkpt><trkpt lat="33.9350517" lon="-6.9338933"><ele>26.0</ele><time>2026-04-27T11:48:15.045Z</time></trkpt><trkpt lat="33.9352583" lon="-6.93365"><ele>28.0</ele><time>2026-04-27T11:48:16.045Z</time></trkpt><trkpt lat="33.9354683" lon="-6.9334033"><ele>27.0</ele><time>2026-04-27T11:48:17.044Z</time></trkpt><trkpt lat="33.9356783" lon="-6.93316"><ele>26.0</ele><time>2026-04-27T11:48:18.044Z</time></trkpt><trkpt lat="33.9358883" lon="-6.93292"><ele>26.0</ele><time>2026-04-27T11:48:19.045Z</time></trkpt><trkpt lat="33.9361017" lon="-6.9326867"><ele>26.0</ele><time>2026-04-27T11:48:20.045Z</time></trkpt><trkpt lat="33.9363133" lon="-6.9324517"><ele>26.0</ele><time>2026-04-27T11:48:21.045Z</time></trkpt><trkpt lat="33.9365217" lon="-6.9322183"><ele>26.0</ele><time>2026-04-27T11:48:22.045Z</time></trkpt><trkpt lat="33.9367317" lon="-6.931985"><ele>26.0</ele><time>2026-04-27T11:48:23.045Z</time></trkpt><trkpt lat="33.9369417" lon="-6.931745"><ele>26.0</ele><time>2026-04-27T11:48:24.045Z</time></trkpt><trkpt lat="33.9371533" lon="-6.9315117"><ele>26.0</ele><time>2026-04-27T11:48:25.045Z</time></trkpt><trkpt lat="33.937365" lon="-6.9312767"><ele>26.0</ele><time>2026-04-27T11:48:26.045Z</time></trkpt><trkpt lat="33.9375683" lon="-6.9310367"><ele>25.5</ele><time>2026-04-27T11:48:27.045Z</time></trkpt><trkpt lat="33.93778" lon="-6.9307983"><ele>25.0</ele><time>2026-04-27T11:48:28.045Z</time></trkpt><trkpt lat="33.93799" lon="-6.9305617"><ele>25.0</ele><time>2026-04-27T11:48:29.045Z</time></trkpt><trkpt lat="33.9382017" lon="-6.930325"><ele>25.0</ele><time>2026-04-27T11:48:30.045Z</time></trkpt><trkpt lat="33.9384117" lon="-6.9300817"><ele>25.5</ele><time>2026-04-27T11:48:31.045Z</time></trkpt><trkpt lat="33.9386283" lon="-6.9298433"><ele>26.0</ele><time>2026-04-27T11:48:32.045Z</time></trkpt><trkpt lat="33.93884" lon="-6.9296067"><ele>26.0</ele><time>2026-04-27T11:48:33.045Z</time></trkpt><trkpt lat="33.93905" lon="-6.92937"><ele>26.0</ele><time>2026-04-27T11:48:34.045Z</time></trkpt><trkpt lat="33.9392617" lon="-6.9291317"><ele>27.5</ele><time>2026-04-27T11:48:35.045Z</time></trkpt><trkpt lat="33.9394733" lon="-6.9288933"><ele>29.0</ele><time>2026-04-27T11:48:36.045Z</time></trkpt><trkpt lat="33.9396817" lon="-6.928655"><ele>29.0</ele><time>2026-04-27T11:48:37.045Z</time></trkpt><trkpt lat="33.9398883" lon="-6.9284133"><ele>29.0</ele><time>2026-04-27T11:48:38.045Z</time></trkpt><trkpt lat="33.9401" lon="-6.9281767"><ele>28.5</ele><time>2026-04-27T11:48:39.045Z</time></trkpt><trkpt lat="33.9403133" lon="-6.9279433"><ele>28.0</ele><time>2026-04-27T11:48:40.045Z</time></trkpt><trkpt lat="33.9405267" lon="-6.92771"><ele>28.0</ele><time>2026-04-27T11:48:41.045Z</time></trkpt><trkpt lat="33.9407417" lon="-6.92747"><ele>28.0</ele><time>2026-04-27T11:48:42.044Z</time></trkpt><trkpt lat="33.940955" lon="-6.9272283"><ele>28.0</ele><time>2026-04-27T11:48:43.044Z</time></trkpt><trkpt lat="33.941165" lon="-6.9269883"><ele>28.0</ele><time>2026-04-27T11:48:44.045Z</time></trkpt><trkpt lat="33.9413733" lon="-6.9267467"><ele>28.0</ele><time>2026-04-27T11:48:45.045Z</time></trkpt><trkpt lat="33.94158" lon="-6.9265067"><ele>28.0</ele><time>2026-04-27T11:48:46.045Z</time></trkpt><trkpt lat="33.94179" lon="-6.9262667"><ele>28.0</ele><time>2026-04-27T11:48:47.044Z</time></trkpt><trkpt lat="33.9420033" lon="-6.9260283"><ele>28.0</ele><time>2026-04-27T11:48:48.045Z</time></trkpt><trkpt lat="33.9422067" lon="-6.9257967"><ele>27.0</ele><time>2026-04-27T11:48:49.045Z</time></trkpt><trkpt lat="33.9424183" lon="-6.9255517"><ele>26.0</ele><time>2026-04-27T11:48:50.045Z</time></trkpt><trkpt lat="33.94263" lon="-6.9253167"><ele>26.0</ele><time>2026-04-27T11:48:51.045Z</time></trkpt><trkpt lat="33.9428433" lon="-6.925085"><ele>26.0</ele><time>2026-04-27T11:48:52.045Z</time></trkpt><trkpt lat="33.9430533" lon="-6.9248517"><ele>26.0</ele><time>2026-04-27T11:48:53.045Z</time></trkpt><trkpt lat="33.943265" lon="-6.9246133"><ele>26.0</ele><time>2026-04-27T11:48:54.045Z</time></trkpt><trkpt lat="33.9434733" lon="-6.9243733"><ele>25.5</ele><time>2026-04-27T11:48:55.045Z</time></trkpt><trkpt lat="33.943685" lon="-6.9241367"><ele>25.0</ele><time>2026-04-27T11:48:56.045Z</time></trkpt><trkpt lat="33.943895" lon="-6.9239"><ele>25.0</ele><time>2026-04-27T11:48:57.045Z</time></trkpt><trkpt lat="33.944105" lon="-6.923665"><ele>25.0</ele><time>2026-04-27T11:48:58.045Z</time></trkpt><trkpt lat="33.9443183" lon="-6.9234267"><ele>25.5</ele><time>2026-04-27T11:48:59.045Z</time></trkpt><trkpt lat="33.9445267" lon="-6.9231883"><ele>26.0</ele><time>2026-04-27T11:49:00.045Z</time></trkpt><trkpt lat="33.9447383" lon="-6.9229467"><ele>26.0</ele><time>2026-04-27T11:49:01.045Z</time></trkpt><trkpt lat="33.944955" lon="-6.922715"><ele>26.0</ele><time>2026-04-27T11:49:02.045Z</time></trkpt><trkpt lat="33.9451733" lon="-6.9224867"><ele>26.0</ele><time>2026-04-27T11:49:03.045Z</time></trkpt><trkpt lat="33.9453917" lon="-6.922255"><ele>26.0</ele><time>2026-04-27T11:49:04.045Z</time></trkpt><trkpt lat="33.9456083" lon="-6.9220267"><ele>26.0</ele><time>2026-04-27T11:49:05.045Z</time></trkpt><trkpt lat="33.9458333" lon="-6.9218033"><ele>26.0</ele><time>2026-04-27T11:49:06.045Z</time></trkpt><trkpt lat="33.946055" lon="-6.921575"><ele>26.5</ele><time>2026-04-27T11:49:07.044Z</time></trkpt><trkpt lat="33.9462733" lon="-6.9213433"><ele>27.0</ele><time>2026-04-27T11:49:08.045Z</time></trkpt><trkpt lat="33.9464917" lon="-6.92112"><ele>26.0</ele><time>2026-04-27T11:49:09.045Z</time></trkpt><trkpt lat="33.9467083" lon="-6.920895"><ele>25.0</ele><time>2026-04-27T11:49:10.045Z</time></trkpt><trkpt lat="33.9469267" lon="-6.9206717"><ele>25.0</ele><time>2026-04-27T11:49:11.045Z</time></trkpt><trkpt lat="33.9471483" lon="-6.9204483"><ele>25.0</ele><time>2026-04-27T11:49:12.044Z</time></trkpt><trkpt lat="33.947365" lon="-6.920225"><ele>24.5</ele><time>2026-04-27T11:49:13.045Z</time></trkpt><trkpt lat="33.9475833" lon="-6.92"><ele>24.0</ele><time>2026-04-27T11:49:14.045Z</time></trkpt><trkpt lat="33.9478033" lon="-6.9197767"><ele>24.0</ele><time>2026-04-27T11:49:15.045Z</time></trkpt><trkpt lat="33.9480217" lon="-6.919555"><ele>24.0</ele><time>2026-04-27T11:49:16.045Z</time></trkpt><trkpt lat="33.948235" lon="-6.9193267"><ele>24.0</ele><time>2026-04-27T11:49:17.045Z</time></trkpt><trkpt lat="33.9484567" lon="-6.919095"><ele>24.0</ele><time>2026-04-27T11:49:18.045Z</time></trkpt><trkpt lat="33.9486733" lon="-6.9188683"><ele>24.0</ele><time>2026-04-27T11:49:19.045Z</time></trkpt><trkpt lat="33.9488883" lon="-6.91864"><ele>24.0</ele><time>2026-04-27T11:49:20.045Z</time></trkpt><trkpt lat="33.9491067" lon="-6.9184083"><ele>25.0</ele><time>2026-04-27T11:49:21.045Z</time></trkpt><trkpt lat="33.949325" lon="-6.9181817"><ele>26.0</ele><time>2026-04-27T11:49:22.045Z</time></trkpt><trkpt lat="33.949545" lon="-6.9179517"><ele>26.0</ele><time>2026-04-27T11:49:23.044Z</time></trkpt><trkpt lat="33.9497583" lon="-6.9177267"><ele>26.0</ele><time>2026-04-27T11:49:24.045Z</time></trkpt><trkpt lat="33.9499767" lon="-6.917505"><ele>25.0</ele><time>2026-04-27T11:49:25.044Z</time></trkpt><trkpt lat="33.9501917" lon="-6.917275"><ele>24.0</ele><time>2026-04-27T11:49:26.045Z</time></trkpt><trkpt lat="33.950415" lon="-6.917055"><ele>24.0</ele><time>2026-04-27T11:49:27.045Z</time></trkpt><trkpt lat="33.950635" lon="-6.9168317"><ele>24.0</ele><time>2026-04-27T11:49:28.045Z</time></trkpt><trkpt lat="33.9508567" lon="-6.9166117"><ele>24.0</ele><time>2026-04-27T11:49:29.045Z</time></trkpt><trkpt lat="33.95108" lon="-6.9163817"><ele>24.0</ele><time>2026-04-27T11:49:30.045Z</time></trkpt><trkpt lat="33.9513033" lon="-6.9161567"><ele>24.0</ele><time>2026-04-27T11:49:31.045Z</time></trkpt><trkpt lat="33.9515267" lon="-6.9159333"><ele>24.0</ele><time>2026-04-27T11:49:32.044Z</time></trkpt><trkpt lat="33.9517483" lon="-6.9157067"><ele>25.0</ele><time>2026-04-27T11:49:33.045Z</time></trkpt><trkpt lat="33.9519683" lon="-6.9154783"><ele>26.0</ele><time>2026-04-27T11:49:34.045Z</time></trkpt><trkpt lat="33.95219" lon="-6.91525"><ele>25.5</ele><time>2026-04-27T11:49:35.045Z</time></trkpt><trkpt lat="33.9524083" lon="-6.915025"><ele>25.0</ele><time>2026-04-27T11:49:36.044Z</time></trkpt><trkpt lat="33.9526283" lon="-6.9147967"><ele>26.0</ele><time>2026-04-27T11:49:37.045Z</time></trkpt><trkpt lat="33.952845" lon="-6.9145633"><ele>27.0</ele><time>2026-04-27T11:49:38.045Z</time></trkpt><trkpt lat="33.9530683" lon="-6.91434"><ele>26.5</ele><time>2026-04-27T11:49:39.045Z</time></trkpt><trkpt lat="33.9532883" lon="-6.91411"><ele>26.0</ele><time>2026-04-27T11:49:40.045Z</time></trkpt><trkpt lat="33.95351" lon="-6.9138883"><ele>28.0</ele><time>2026-04-27T11:49:41.045Z</time></trkpt><trkpt lat="33.953735" lon="-6.9136633"><ele>30.0</ele><time>2026-04-27T11:49:42.045Z</time></trkpt><trkpt lat="33.9539533" lon="-6.9134383"><ele>29.0</ele><time>2026-04-27T11:49:43.045Z</time></trkpt><trkpt lat="33.9541717" lon="-6.9132133"><ele>28.0</ele><time>2026-04-27T11:49:44.044Z</time></trkpt><trkpt lat="33.95439" lon="-6.9129867"><ele>28.0</ele><time>2026-04-27T11:49:45.045Z</time></trkpt><trkpt lat="33.9546083" lon="-6.9127667"><ele>28.0</ele><time>2026-04-27T11:49:46.045Z</time></trkpt><trkpt lat="33.9548267" lon="-6.9125417"><ele>29.5</ele><time>2026-04-27T11:49:47.045Z</time></trkpt><trkpt lat="33.9550483" lon="-6.9123167"><ele>31.0</ele><time>2026-04-27T11:49:48.045Z</time></trkpt><trkpt lat="33.9552717" lon="-6.9120967"><ele>31.0</ele><time>2026-04-27T11:49:49.045Z</time></trkpt><trkpt lat="33.955495" lon="-6.91188"><ele>31.0</ele><time>2026-04-27T11:49:50.045Z</time></trkpt><trkpt lat="33.9557167" lon="-6.9116583"><ele>30.5</ele><time>2026-04-27T11:49:51.045Z</time></trkpt><trkpt lat="33.95594" lon="-6.9114367"><ele>30.0</ele><time>2026-04-27T11:49:52.044Z</time></trkpt><trkpt lat="33.956165" lon="-6.91121"><ele>30.0</ele><time>2026-04-27T11:49:53.045Z</time></trkpt><trkpt lat="33.9563933" lon="-6.91099"><ele>30.0</ele><time>2026-04-27T11:49:54.045Z</time></trkpt><trkpt lat="33.9566167" lon="-6.9107667"><ele>30.0</ele><time>2026-04-27T11:49:55.044Z</time></trkpt><trkpt lat="33.9568433" lon="-6.9105483"><ele>30.0</ele><time>2026-04-27T11:49:56.045Z</time></trkpt><trkpt lat="33.9570617" lon="-6.910325"><ele>30.0</ele><time>2026-04-27T11:49:57.045Z</time></trkpt><trkpt lat="33.95728" lon="-6.9101"><ele>30.0</ele><time>2026-04-27T11:49:58.045Z</time></trkpt><trkpt lat="33.9575017" lon="-6.9098767"><ele>30.0</ele><time>2026-04-27T11:49:59.045Z</time></trkpt><trkpt lat="33.9577183" lon="-6.9096583"><ele>30.0</ele><time>2026-04-27T11:50:00.044Z</time></trkpt><trkpt lat="33.957935" lon="-6.9094283"><ele>29.0</ele><time>2026-04-27T11:50:01.045Z</time></trkpt><trkpt lat="33.95815" lon="-6.9091967"><ele>28.0</ele><time>2026-04-27T11:50:02.045Z</time></trkpt><trkpt lat="33.9583633" lon="-6.9089667"><ele>29.0</ele><time>2026-04-27T11:50:03.045Z</time></trkpt><trkpt lat="33.9585783" lon="-6.9087333"><ele>30.0</ele><time>2026-04-27T11:50:04.045Z</time></trkpt><trkpt lat="33.9587933" lon="-6.9084983"><ele>29.0</ele><time>2026-04-27T11:50:05.045Z</time></trkpt><trkpt lat="33.9590117" lon="-6.90827"><ele>28.0</ele><time>2026-04-27T11:50:06.045Z</time></trkpt><trkpt lat="33.9592333" lon="-6.90804"><ele>31.0</ele><time>2026-04-27T11:50:07.045Z</time></trkpt><trkpt lat="33.959455" lon="-6.9078117"><ele>34.0</ele><time>2026-04-27T11:50:08.045Z</time></trkpt><trkpt lat="33.9596733" lon="-6.9075833"><ele>33.5</ele><time>2026-04-27T11:50:09.045Z</time></trkpt><trkpt lat="33.95989" lon="-6.9073567"><ele>33.0</ele><time>2026-04-27T11:50:10.044Z</time></trkpt><trkpt lat="33.9601083" lon="-6.90713"><ele>33.0</ele><time>2026-04-27T11:50:11.045Z</time></trkpt><trkpt lat="33.960325" lon="-6.9069033"><ele>33.0</ele><time>2026-04-27T11:50:12.045Z</time></trkpt><trkpt lat="33.9605433" lon="-6.9066717"><ele>33.0</ele><time>2026-04-27T11:50:13.045Z</time></trkpt><trkpt lat="33.96076" lon="-6.9064383"><ele>33.0</ele><time>2026-04-27T11:50:14.045Z</time></trkpt><trkpt lat="33.96097" lon="-6.9061983"><ele>33.0</ele><time>2026-04-27T11:50:15.045Z</time></trkpt><trkpt lat="33.9611767" lon="-6.9059567"><ele>33.0</ele><time>2026-04-27T11:50:16.045Z</time></trkpt><trkpt lat="33.96138" lon="-6.9057083"><ele>34.0</ele><time>2026-04-27T11:50:17.045Z</time></trkpt><trkpt lat="33.9615783" lon="-6.9054517"><ele>35.0</ele><time>2026-04-27T11:50:18.045Z</time></trkpt><trkpt lat="33.96177" lon="-6.90519"><ele>33.5</ele><time>2026-04-27T11:50:19.045Z</time></trkpt><trkpt lat="33.96195" lon="-6.9049233"><ele>32.0</ele><time>2026-04-27T11:50:20.045Z</time></trkpt><trkpt lat="33.9621317" lon="-6.9046483"><ele>32.0</ele><time>2026-04-27T11:50:21.044Z</time></trkpt><trkpt lat="33.962305" lon="-6.9043683"><ele>32.0</ele><time>2026-04-27T11:50:22.045Z</time></trkpt><trkpt lat="33.9624767" lon="-6.9040867"><ele>33.0</ele><time>2026-04-27T11:50:23.044Z</time></trkpt><trkpt lat="33.96264" lon="-6.903805"><ele>34.0</ele><time>2026-04-27T11:50:24.045Z</time></trkpt><trkpt lat="33.962795" lon="-6.9035133"><ele>33.0</ele><time>2026-04-27T11:50:25.044Z</time></trkpt><trkpt lat="33.9629467" lon="-6.9032217"><ele>32.0</ele><time>2026-04-27T11:50:26.045Z</time></trkpt><trkpt lat="33.96308" lon="-6.902945"><ele>32.0</ele><time>2026-04-27T11:50:27.045Z</time></trkpt><trkpt lat="33.9632" lon="-6.9026917"><ele>32.0</ele><time>2026-04-27T11:50:28.044Z</time></trkpt><trkpt lat="33.9633117" lon="-6.90246"><ele>31.333333333333332</ele><time>2026-04-27T11:50:29.045Z</time></trkpt><trkpt lat="33.9634217" lon="-6.90223"><ele>30.666666666666664</ele><time>2026-04-27T11:50:30.045Z</time></trkpt><trkpt lat="33.9635217" lon="-6.9020117"><ele>30.0</ele><time>2026-04-27T11:50:31.045Z</time></trkpt><trkpt lat="33.9636083" lon="-6.9018017"><ele>30.0</ele><time>2026-04-27T11:50:32.045Z</time></trkpt><trkpt lat="33.963685" lon="-6.9015967"><ele>30.0</ele><time>2026-04-27T11:50:33.045Z</time></trkpt><trkpt lat="33.9637583" lon="-6.9014117"><ele>30.0</ele><time>2026-04-27T11:50:34.045Z</time></trkpt><trkpt lat="33.963825" lon="-6.9012283"><ele>30.0</ele><time>2026-04-27T11:50:35.045Z</time></trkpt><trkpt lat="33.963885" lon="-6.9010567"><ele>30.0</ele><time>2026-04-27T11:50:36.044Z</time></trkpt><trkpt lat="33.9639483" lon="-6.9008917"><ele>30.0</ele><time>2026-04-27T11:50:37.045Z</time></trkpt><trkpt lat="33.9640067" lon="-6.900735"><ele>30.0</ele><time>2026-04-27T11:50:38.045Z</time></trkpt><trkpt lat="33.9640567" lon="-6.900585"><ele>29.5</ele><time>2026-04-27T11:50:39.045Z</time></trkpt><trkpt lat="33.9641067" lon="-6.90044"><ele>29.0</ele><time>2026-04-27T11:50:40.045Z</time></trkpt><trkpt lat="33.9641467" lon="-6.9003017"><ele>28.5</ele><time>2026-04-27T11:50:41.045Z</time></trkpt><trkpt lat="33.9641867" lon="-6.900165"><ele>28.0</ele><time>2026-04-27T11:50:42.045Z</time></trkpt><trkpt lat="33.9642267" lon="-6.90003"><ele>27.599999999999998</ele><time>2026-04-27T11:50:43.044Z</time></trkpt><trkpt lat="33.964265" lon="-6.899895"><ele>27.199999999999996</ele><time>2026-04-27T11:50:44.045Z</time></trkpt><trkpt lat="33.9642917" lon="-6.8997717"><ele>26.8</ele><time>2026-04-27T11:50:45.045Z</time></trkpt><trkpt lat="33.964315" lon="-6.8996533"><ele>26.4</ele><time>2026-04-27T11:50:46.045Z</time></trkpt><trkpt lat="33.9643317" lon="-6.89955"><ele>26.0</ele><time>2026-04-27T11:50:47.045Z</time></trkpt><trkpt lat="33.9643467" lon="-6.89946"><ele>25.999999999999996</ele><time>2026-04-27T11:50:48.045Z</time></trkpt><trkpt lat="33.9643617" lon="-6.8993783"><ele>26.0</ele><time>2026-04-27T11:50:49.045Z</time></trkpt><trkpt lat="33.9643817" lon="-6.8992417"><ele>26.0</ele><time>2026-04-27T11:50:51.045Z</time></trkpt><trkpt lat="33.964395" lon="-6.8991333"><ele>26.0</ele><time>2026-04-27T11:50:53.045Z</time></trkpt><trkpt lat="33.9644133" lon="-6.8990467"><ele>25.999999999999996</ele><time>2026-04-27T11:50:55.045Z</time></trkpt><trkpt lat="33.9644367" lon="-6.8989433"><ele>26.0</ele><time>2026-04-27T11:50:58.045Z</time></trkpt><trkpt lat="33.9644717" lon="-6.8988317"><ele>25.999999999999996</ele><time>2026-04-27T11:51:01.045Z</time></trkpt><trkpt lat="33.964495" lon="-6.89872"><ele>26.0</ele><time>2026-04-27T11:51:03.045Z</time></trkpt><trkpt lat="33.96451" lon="-6.8986417"><ele>26.0</ele><time>2026-04-27T11:51:05.045Z</time></trkpt><trkpt lat="33.9645283" lon="-6.89854"><ele>26.0</ele><time>2026-04-27T11:51:08.045Z</time></trkpt><trkpt lat="33.9645533" lon="-6.8984417"><ele>25.999999999999996</ele><time>2026-04-27T11:51:11.045Z</time></trkpt><trkpt lat="33.9645683" lon="-6.8983533"><ele>26.0</ele><time>2026-04-27T11:51:13.045Z</time></trkpt><trkpt lat="33.9645817" lon="-6.8982333"><ele>26.0</ele><time>2026-04-27T11:51:15.045Z</time></trkpt><trkpt lat="33.9645933" lon="-6.89815"><ele>26.0</ele><time>2026-04-27T11:51:16.045Z</time></trkpt><trkpt lat="33.96461" lon="-6.8980533"><ele>26.0</ele><time>2026-04-27T11:51:17.045Z</time></trkpt><trkpt lat="33.96464" lon="-6.8979467"><ele>26.0</ele><time>2026-04-27T11:51:18.045Z</time></trkpt><trkpt lat="33.9646733" lon="-6.8978267"><ele>26.0</ele><time>2026-04-27T11:51:19.045Z</time></trkpt><trkpt lat="33.964715" lon="-6.897685"><ele>26.0</ele><time>2026-04-27T11:51:20.045Z</time></trkpt><trkpt lat="33.9647533" lon="-6.897525"><ele>26.0</ele><time>2026-04-27T11:51:21.044Z</time></trkpt><trkpt lat="33.9647917" lon="-6.897355"><ele>26.0</ele><time>2026-04-27T11:51:22.044Z</time></trkpt><trkpt lat="33.96482" lon="-6.8971717"><ele>26.0</ele><time>2026-04-27T11:51:23.045Z</time></trkpt><trkpt lat="33.964855" lon="-6.89698"><ele>26.0</ele><time>2026-04-27T11:51:24.045Z</time></trkpt><trkpt lat="33.964895" lon="-6.8967783"><ele>26.0</ele><time>2026-04-27T11:51:25.045Z</time></trkpt><trkpt lat="33.9649317" lon="-6.8965683"><ele>26.0</ele><time>2026-04-27T11:51:26.045Z</time></trkpt><trkpt lat="33.9649717" lon="-6.8963517"><ele>27.333333333333332</ele><time>2026-04-27T11:51:27.045Z</time></trkpt><trkpt lat="33.965015" lon="-6.896135"><ele>28.666666666666664</ele><time>2026-04-27T11:51:28.045Z</time></trkpt><trkpt lat="33.9650617" lon="-6.895905"><ele>30.0</ele><time>2026-04-27T11:51:29.045Z</time></trkpt><trkpt lat="33.9651033" lon="-6.8956717"><ele>33.0</ele><time>2026-04-27T11:51:30.044Z</time></trkpt><trkpt lat="33.9651483" lon="-6.8954333"><ele>36.0</ele><time>2026-04-27T11:51:31.045Z</time></trkpt><trkpt lat="33.965195" lon="-6.8951933"><ele>39.0</ele><time>2026-04-27T11:51:32.045Z</time></trkpt><trkpt lat="33.9652333" lon="-6.8949517"><ele>39.333333333333336</ele><time>2026-04-27T11:51:33.045Z</time></trkpt><trkpt lat="33.96528" lon="-6.8947117"><ele>39.66666666666667</ele><time>2026-04-27T11:51:34.045Z</time></trkpt><trkpt lat="33.9653183" lon="-6.894465"><ele>40.0</ele><time>2026-04-27T11:51:35.044Z</time></trkpt><trkpt lat="33.9653633" lon="-6.8942167"><ele>40.333333333333336</ele><time>2026-04-27T11:51:36.045Z</time></trkpt><trkpt lat="33.9654033" lon="-6.8939717"><ele>40.666666666666664</ele><time>2026-04-27T11:51:37.045Z</time></trkpt><trkpt lat="33.9654483" lon="-6.89372"><ele>41.0</ele><time>2026-04-27T11:51:38.045Z</time></trkpt><trkpt lat="33.9654983" lon="-6.893465"><ele>41.0</ele><time>2026-04-27T11:51:39.045Z</time></trkpt><trkpt lat="33.9655483" lon="-6.893215"><ele>41.0</ele><time>2026-04-27T11:51:40.044Z</time></trkpt><trkpt lat="33.9655967" lon="-6.8929683"><ele>41.0</ele><time>2026-04-27T11:51:41.045Z</time></trkpt><trkpt lat="33.9656417" lon="-6.8927367"><ele>40.33333333333333</ele><time>2026-04-27T11:51:42.045Z</time></trkpt><trkpt lat="33.9656817" lon="-6.8925117"><ele>39.666666666666664</ele><time>2026-04-27T11:51:43.045Z</time></trkpt><trkpt lat="33.9657267" lon="-6.8922917"><ele>39.0</ele><time>2026-04-27T11:51:44.044Z</time></trkpt><trkpt lat="33.9657617" lon="-6.8920667"><ele>39.0</ele><time>2026-04-27T11:51:45.045Z</time></trkpt><trkpt lat="33.9657933" lon="-6.89184"><ele>39.0</ele><time>2026-04-27T11:51:46.045Z</time></trkpt><trkpt lat="33.965825" lon="-6.8916183"><ele>39.0</ele><time>2026-04-27T11:51:47.045Z</time></trkpt><trkpt lat="33.9658633" lon="-6.891395"><ele>39.666666666666664</ele><time>2026-04-27T11:51:48.045Z</time></trkpt><trkpt lat="33.9659017" lon="-6.89118"><ele>40.33333333333333</ele><time>2026-04-27T11:51:49.045Z</time></trkpt><trkpt lat="33.96594" lon="-6.8909733"><ele>41.0</ele><time>2026-04-27T11:51:50.045Z</time></trkpt><trkpt lat="33.9659783" lon="-6.8907717"><ele>41.33333333333333</ele><time>2026-04-27T11:51:51.045Z</time></trkpt><trkpt lat="33.9660217" lon="-6.8905633"><ele>41.666666666666664</ele><time>2026-04-27T11:51:52.044Z</time></trkpt><trkpt lat="33.9660617" lon="-6.8903483"><ele>42.0</ele><time>2026-04-27T11:51:53.045Z</time></trkpt><trkpt lat="33.9661067" lon="-6.89013"><ele>41.333333333333336</ele><time>2026-04-27T11:51:54.045Z</time></trkpt><trkpt lat="33.9661433" lon="-6.8899183"><ele>40.66666666666667</ele><time>2026-04-27T11:51:55.045Z</time></trkpt><trkpt lat="33.96618" lon="-6.889715"><ele>40.0</ele><time>2026-04-27T11:51:56.045Z</time></trkpt><trkpt lat="33.9662217" lon="-6.8895183"><ele>40.0</ele><time>2026-04-27T11:51:57.045Z</time></trkpt><trkpt lat="33.9662583" lon="-6.8893267"><ele>40.0</ele><time>2026-04-27T11:51:58.045Z</time></trkpt><trkpt lat="33.96629" lon="-6.88914"><ele>40.0</ele><time>2026-04-27T11:51:59.045Z</time></trkpt><trkpt lat="33.9663267" lon="-6.888955"><ele>40.0</ele><time>2026-04-27T11:52:00.044Z</time></trkpt><trkpt lat="33.9663667" lon="-6.8887583"><ele>40.0</ele><time>2026-04-27T11:52:01.045Z</time></trkpt><trkpt lat="33.96642" lon="-6.8885733"><ele>40.0</ele><time>2026-04-27T11:52:02.045Z</time></trkpt><trkpt lat="33.9664733" lon="-6.8883917"><ele>39.66666666666667</ele><time>2026-04-27T11:52:03.045Z</time></trkpt><trkpt lat="33.9665283" lon="-6.8882133"><ele>39.333333333333336</ele><time>2026-04-27T11:52:04.045Z</time></trkpt><trkpt lat="33.9665817" lon="-6.88804"><ele>39.0</ele><time>2026-04-27T11:52:05.044Z</time></trkpt><trkpt lat="33.966645" lon="-6.8878783"><ele>39.5</ele><time>2026-04-27T11:52:06.045Z</time></trkpt><trkpt lat="33.9666967" lon="-6.8877233"><ele>40.0</ele><time>2026-04-27T11:52:07.045Z</time></trkpt><trkpt lat="33.9667517" lon="-6.8875717"><ele>40.5</ele><time>2026-04-27T11:52:08.045Z</time></trkpt><trkpt lat="33.9668" lon="-6.8874233"><ele>41.0</ele><time>2026-04-27T11:52:09.045Z</time></trkpt><trkpt lat="33.966845" lon="-6.887285"><ele>40.199999999999996</ele><time>2026-04-27T11:52:10.044Z</time></trkpt><trkpt lat="33.96689" lon="-6.8871533"><ele>39.4</ele><time>2026-04-27T11:52:11.044Z</time></trkpt><trkpt lat="33.9669433" lon="-6.8870283"><ele>38.6</ele><time>2026-04-27T11:52:12.045Z</time></trkpt><trkpt lat="33.9669917" lon="-6.8869117"><ele>37.8</ele><time>2026-04-27T11:52:13.044Z</time></trkpt><trkpt lat="33.967035" lon="-6.8868017"><ele>37.0</ele><time>2026-04-27T11:52:14.045Z</time></trkpt><trkpt lat="33.967075" lon="-6.8866933"><ele>36.5</ele><time>2026-04-27T11:52:15.045Z</time></trkpt><trkpt lat="33.9671083" lon="-6.886595"><ele>36.0</ele><time>2026-04-27T11:52:16.045Z</time></trkpt><trkpt lat="33.967135" lon="-6.8865217"><ele>35.5</ele><time>2026-04-27T11:52:17.045Z</time></trkpt><trkpt lat="33.9671633" lon="-6.886405"><ele>35.0</ele><time>2026-04-27T11:52:19.045Z</time></trkpt><trkpt lat="33.967165" lon="-6.886315"><ele>34.5</ele><time>2026-04-27T11:52:21.045Z</time></trkpt><trkpt lat="33.9671633" lon="-6.8862"><ele>34.0</ele><time>2026-04-27T11:52:23.045Z</time></trkpt><trkpt lat="33.9671783" lon="-6.8860483"><ele>34.0</ele><time>2026-04-27T11:52:25.045Z</time></trkpt><trkpt lat="33.967215" lon="-6.88596"><ele>34.0</ele><time>2026-04-27T11:52:26.045Z</time></trkpt><trkpt lat="33.96727" lon="-6.8858717"><ele>34.0</ele><time>2026-04-27T11:52:27.045Z</time></trkpt><trkpt lat="33.9673417" lon="-6.8857817"><ele>34.0</ele><time>2026-04-27T11:52:28.045Z</time></trkpt><trkpt lat="33.967415" lon="-6.8856667"><ele>34.0</ele><time>2026-04-27T11:52:29.045Z</time></trkpt><trkpt lat="33.9674833" lon="-6.8855267"><ele>34.0</ele><time>2026-04-27T11:52:30.045Z</time></trkpt><trkpt lat="33.96755" lon="-6.885375"><ele>34.0</ele><time>2026-04-27T11:52:31.045Z</time></trkpt><trkpt lat="33.9676283" lon="-6.885215"><ele>34.0</ele><time>2026-04-27T11:52:32.045Z</time></trkpt><trkpt lat="33.9677133" lon="-6.885045"><ele>33.66666666666667</ele><time>2026-04-27T11:52:33.045Z</time></trkpt><trkpt lat="33.967805" lon="-6.8848733"><ele>33.333333333333336</ele><time>2026-04-27T11:52:34.045Z</time></trkpt><trkpt lat="33.967905" lon="-6.884695"><ele>33.0</ele><time>2026-04-27T11:52:35.045Z</time></trkpt><trkpt lat="33.9680133" lon="-6.8845117"><ele>33.0</ele><time>2026-04-27T11:52:36.045Z</time></trkpt><trkpt lat="33.9681233" lon="-6.8843433"><ele>33.0</ele><time>2026-04-27T11:52:37.045Z</time></trkpt><trkpt lat="33.968235" lon="-6.8841883"><ele>33.0</ele><time>2026-04-27T11:52:38.045Z</time></trkpt><trkpt lat="33.96836" lon="-6.8840383"><ele>33.333333333333336</ele><time>2026-04-27T11:52:39.045Z</time></trkpt><trkpt lat="33.9684883" lon="-6.8838883"><ele>33.66666666666667</ele><time>2026-04-27T11:52:40.044Z</time></trkpt><trkpt lat="33.9686133" lon="-6.88374"><ele>34.0</ele><time>2026-04-27T11:52:41.045Z</time></trkpt><trkpt lat="33.9687267" lon="-6.8836"><ele>34.0</ele><time>2026-04-27T11:52:42.044Z</time></trkpt><trkpt lat="33.96884" lon="-6.88347"><ele>34.0</ele><time>2026-04-27T11:52:43.045Z</time></trkpt><trkpt lat="33.9689533" lon="-6.8833383"><ele>34.0</ele><time>2026-04-27T11:52:44.045Z</time></trkpt><trkpt lat="33.96907" lon="-6.8832067"><ele>34.333333333333336</ele><time>2026-04-27T11:52:45.045Z</time></trkpt><trkpt lat="33.9691867" lon="-6.883075"><ele>34.666666666666664</ele><time>2026-04-27T11:52:46.045Z</time></trkpt><trkpt lat="33.9693017" lon="-6.8829533"><ele>35.0</ele><time>2026-04-27T11:52:47.045Z</time></trkpt><trkpt lat="33.9694117" lon="-6.882835"><ele>34.5</ele><time>2026-04-27T11:52:48.044Z</time></trkpt><trkpt lat="33.9695183" lon="-6.882725"><ele>34.0</ele><time>2026-04-27T11:52:49.045Z</time></trkpt><trkpt lat="33.9696233" lon="-6.8826167"><ele>33.5</ele><time>2026-04-27T11:52:50.045Z</time></trkpt><trkpt lat="33.9697283" lon="-6.8825083"><ele>33.0</ele><time>2026-04-27T11:52:51.044Z</time></trkpt><trkpt lat="33.969835" lon="-6.8824067"><ele>33.0</ele><time>2026-04-27T11:52:52.044Z</time></trkpt><trkpt lat="33.9699367" lon="-6.8823083"><ele>33.0</ele><time>2026-04-27T11:52:53.045Z</time></trkpt><trkpt lat="33.9700433" lon="-6.8822167"><ele>33.0</ele><time>2026-04-27T11:52:54.045Z</time></trkpt><trkpt lat="33.9701533" lon="-6.8821183"><ele>33.0</ele><time>2026-04-27T11:52:55.045Z</time></trkpt><trkpt lat="33.9702633" lon="-6.8820167"><ele>33.25</ele><time>2026-04-27T11:52:56.045Z</time></trkpt><trkpt lat="33.9703683" lon="-6.8819233"><ele>33.5</ele><time>2026-04-27T11:52:57.045Z</time></trkpt><trkpt lat="33.9704683" lon="-6.88183"><ele>33.75</ele><time>2026-04-27T11:52:58.044Z</time></trkpt><trkpt lat="33.9705583" lon="-6.88174"><ele>34.0</ele><time>2026-04-27T11:52:59.045Z</time></trkpt><trkpt lat="33.9706333" lon="-6.88164"><ele>35.0</ele><time>2026-04-27T11:53:00.045Z</time></trkpt><trkpt lat="33.9707017" lon="-6.881525"><ele>36.0</ele><time>2026-04-27T11:53:01.045Z</time></trkpt><trkpt lat="33.9707617" lon="-6.8813833"><ele>37.0</ele><time>2026-04-27T11:53:02.045Z</time></trkpt><trkpt lat="33.97081" lon="-6.8812267"><ele>38.0</ele><time>2026-04-27T11:53:03.045Z</time></trkpt><trkpt lat="33.9708383" lon="-6.88106"><ele>38.0</ele><time>2026-04-27T11:53:04.045Z</time></trkpt><trkpt lat="33.9708567" lon="-6.880885"><ele>38.0</ele><time>2026-04-27T11:53:05.045Z</time></trkpt><trkpt lat="33.9708783" lon="-6.8807233"><ele>38.0</ele><time>2026-04-27T11:53:06.045Z</time></trkpt><trkpt lat="33.970905" lon="-6.8805917"><ele>38.0</ele><time>2026-04-27T11:53:07.045Z</time></trkpt><trkpt lat="33.9709267" lon="-6.8804767"><ele>38.4</ele><time>2026-04-27T11:53:08.045Z</time></trkpt><trkpt lat="33.9709483" lon="-6.88037"><ele>38.8</ele><time>2026-04-27T11:53:09.045Z</time></trkpt><trkpt lat="33.9709633" lon="-6.880265"><ele>39.2</ele><time>2026-04-27T11:53:10.045Z</time></trkpt><trkpt lat="33.9709883" lon="-6.8801533"><ele>39.6</ele><time>2026-04-27T11:53:11.045Z</time></trkpt><trkpt lat="33.971035" lon="-6.88004"><ele>40.0</ele><time>2026-04-27T11:53:12.045Z</time></trkpt><trkpt lat="33.9710933" lon="-6.8799417"><ele>40.0</ele><time>2026-04-27T11:53:13.045Z</time></trkpt><trkpt lat="33.97117" lon="-6.8798567"><ele>40.0</ele><time>2026-04-27T11:53:14.045Z</time></trkpt><trkpt lat="33.97125" lon="-6.8797783"><ele>40.0</ele><time>2026-04-27T11:53:15.045Z</time></trkpt><trkpt lat="33.97133" lon="-6.8797117"><ele>40.0</ele><time>2026-04-27T11:53:16.045Z</time></trkpt><trkpt lat="33.9714017" lon="-6.8796533"><ele>40.0</ele><time>2026-04-27T11:53:17.045Z</time></trkpt><trkpt lat="33.9714683" lon="-6.8796"><ele>40.0</ele><time>2026-04-27T11:53:18.044Z</time></trkpt><trkpt lat="33.971525" lon="-6.87955"><ele>40.0</ele><time>2026-04-27T11:53:19.045Z</time></trkpt><trkpt lat="33.9715783" lon="-6.8795083"><ele>40.0</ele><time>2026-04-27T11:53:20.045Z</time></trkpt><trkpt lat="33.9716683" lon="-6.879435"><ele>40.0</ele><time>2026-04-27T11:53:22.045Z</time></trkpt><trkpt lat="33.9717333" lon="-6.8793767"><ele>40.0</ele><time>2026-04-27T11:53:24.045Z</time></trkpt><trkpt lat="33.9717833" lon="-6.8793283"><ele>40.0</ele><time>2026-04-27T11:53:26.045Z</time></trkpt><trkpt lat="33.9718217" lon="-6.879245"><ele>40.333333333333336</ele><time>2026-04-27T11:53:28.045Z</time></trkpt><trkpt lat="33.9718133" lon="-6.8791383"><ele>40.66666666666667</ele><time>2026-04-27T11:53:30.045Z</time></trkpt><trkpt lat="33.9717817" lon="-6.8790617"><ele>41.0</ele><time>2026-04-27T11:53:32.044Z</time></trkpt><trkpt lat="33.9717517" lon="-6.8789833"><ele>41.333333333333336</ele><time>2026-04-27T11:53:35.044Z</time></trkpt><trkpt lat="33.9717217" lon="-6.8789017"><ele>41.666666666666664</ele><time>2026-04-27T11:53:37.044Z</time></trkpt><trkpt lat="33.97165" lon="-6.878775"><ele>42.0</ele><time>2026-04-27T11:53:39.044Z</time></trkpt><trkpt lat="33.97161" lon="-6.8787067"><ele>42.0</ele><time>2026-04-27T11:53:40.044Z</time></trkpt><trkpt lat="33.9715683" lon="-6.878635"><ele>42.0</ele><time>2026-04-27T11:53:41.044Z</time></trkpt><trkpt lat="33.9715283" lon="-6.87855"><ele>42.0</ele><time>2026-04-27T11:53:42.044Z</time></trkpt><trkpt lat="33.97149" lon="-6.878465"><ele>42.0</ele><time>2026-04-27T11:53:43.044Z</time></trkpt><trkpt lat="33.9714383" lon="-6.8783667"><ele>42.0</ele><time>2026-04-27T11:53:44.044Z</time></trkpt><trkpt lat="33.9713783" lon="-6.8782617"><ele>42.0</ele><time>2026-04-27T11:53:45.044Z</time></trkpt><trkpt lat="33.97132" lon="-6.8781533"><ele>42.0</ele><time>2026-04-27T11:53:46.044Z</time></trkpt><trkpt lat="33.9712633" lon="-6.8780417"><ele>42.0</ele><time>2026-04-27T11:53:47.044Z</time></trkpt><trkpt lat="33.9711983" lon="-6.877925"><ele>42.0</ele><time>2026-04-27T11:53:48.043Z</time></trkpt><trkpt lat="33.9711267" lon="-6.8778017"><ele>42.0</ele><time>2026-04-27T11:53:49.044Z</time></trkpt><trkpt lat="33.9710417" lon="-6.8776733"><ele>42.25</ele><time>2026-04-27T11:53:50.044Z</time></trkpt><trkpt lat="33.97097" lon="-6.8775533"><ele>42.5</ele><time>2026-04-27T11:53:51.044Z</time></trkpt><trkpt lat="33.9709" lon="-6.87744"><ele>42.75</ele><time>2026-04-27T11:53:52.044Z</time></trkpt><trkpt lat="33.970835" lon="-6.877335"><ele>43.0</ele><time>2026-04-27T11:53:53.044Z</time></trkpt><trkpt lat="33.9707733" lon="-6.8772283"><ele>43.0</ele><time>2026-04-27T11:53:54.044Z</time></trkpt><trkpt lat="33.9707133" lon="-6.8771217"><ele>43.0</ele><time>2026-04-27T11:53:55.044Z</time></trkpt><trkpt lat="33.9706483" lon="-6.8770167"><ele>43.0</ele><time>2026-04-27T11:53:56.044Z</time></trkpt><trkpt lat="33.9705883" lon="-6.8769183"><ele>43.0</ele><time>2026-04-27T11:53:57.044Z</time></trkpt><trkpt lat="33.970535" lon="-6.87683"><ele>43.0</ele><time>2026-04-27T11:53:58.044Z</time></trkpt><trkpt lat="33.970475" lon="-6.8767483"><ele>43.2</ele><time>2026-04-27T11:53:59.044Z</time></trkpt><trkpt lat="33.9704283" lon="-6.8766783"><ele>43.4</ele><time>2026-04-27T11:54:00.044Z</time></trkpt><trkpt lat="33.9703883" lon="-6.8766117"><ele>43.6</ele><time>2026-04-27T11:54:01.044Z</time></trkpt><trkpt lat="33.970315" lon="-6.8764883"><ele>43.800000000000004</ele><time>2026-04-27T11:54:03.044Z</time></trkpt><trkpt lat="33.9702417" lon="-6.876365"><ele>44.0</ele><time>2026-04-27T11:54:05.044Z</time></trkpt><trkpt lat="33.970195" lon="-6.87629"><ele>44.0</ele><time>2026-04-27T11:54:06.044Z</time></trkpt><trkpt lat="33.97015" lon="-6.8762083"><ele>44.0</ele><time>2026-04-27T11:54:07.044Z</time></trkpt><trkpt lat="33.9701033" lon="-6.8761133"><ele>44.0</ele><time>2026-04-27T11:54:08.044Z</time></trkpt><trkpt lat="33.9700417" lon="-6.8760083"><ele>44.0</ele><time>2026-04-27T11:54:09.044Z</time></trkpt><trkpt lat="33.969975" lon="-6.8758967"><ele>44.0</ele><time>2026-04-27T11:54:10.044Z</time></trkpt><trkpt lat="33.96991" lon="-6.8757733"><ele>43.6</ele><time>2026-04-27T11:54:11.044Z</time></trkpt><trkpt lat="33.9698367" lon="-6.87565"><ele>43.2</ele><time>2026-04-27T11:54:12.044Z</time></trkpt><trkpt lat="33.9697683" lon="-6.8755417"><ele>42.800000000000004</ele><time>2026-04-27T11:54:13.044Z</time></trkpt><trkpt lat="33.96971" lon="-6.8754367"><ele>42.400000000000006</ele><time>2026-04-27T11:54:14.044Z</time></trkpt><trkpt lat="33.96965" lon="-6.8753383"><ele>42.0</ele><time>2026-04-27T11:54:15.044Z</time></trkpt><trkpt lat="33.969585" lon="-6.87524"><ele>42.0</ele><time>2026-04-27T11:54:16.044Z</time></trkpt><trkpt lat="33.9695217" lon="-6.8751467"><ele>42.0</ele><time>2026-04-27T11:54:17.044Z</time></trkpt><trkpt lat="33.9694533" lon="-6.8750467"><ele>42.0</ele><time>2026-04-27T11:54:18.044Z</time></trkpt><trkpt lat="33.9693933" lon="-6.8749567"><ele>42.0</ele><time>2026-04-27T11:54:19.044Z</time></trkpt><trkpt lat="33.96933" lon="-6.87487"><ele>42.0</ele><time>2026-04-27T11:54:20.044Z</time></trkpt><trkpt lat="33.969265" lon="-6.8747983"><ele>41.8</ele><time>2026-04-27T11:54:21.044Z</time></trkpt><trkpt lat="33.9691933" lon="-6.8747417"><ele>41.6</ele><time>2026-04-27T11:54:22.044Z</time></trkpt><trkpt lat="33.9691067" lon="-6.8746867"><ele>41.4</ele><time>2026-04-27T11:54:23.044Z</time></trkpt><trkpt lat="33.9690267" lon="-6.8746233"><ele>41.199999999999996</ele><time>2026-04-27T11:54:24.044Z</time></trkpt><trkpt lat="33.968965" lon="-6.8745467"><ele>41.0</ele><time>2026-04-27T11:54:25.044Z</time></trkpt><trkpt lat="33.9689233" lon="-6.87446"><ele>41.0</ele><time>2026-04-27T11:54:26.044Z</time></trkpt><trkpt lat="33.9689017" lon="-6.87437"><ele>41.0</ele><time>2026-04-27T11:54:27.044Z</time></trkpt><trkpt lat="33.9689017" lon="-6.874275"><ele>41.0</ele><time>2026-04-27T11:54:28.043Z</time></trkpt><trkpt lat="33.96889" lon="-6.8741683"><ele>41.0</ele><time>2026-04-27T11:54:29.044Z</time></trkpt><trkpt lat="33.968855" lon="-6.87405"><ele>41.0</ele><time>2026-04-27T11:54:30.044Z</time></trkpt><trkpt lat="33.9687983" lon="-6.8739233"><ele>41.5</ele><time>2026-04-27T11:54:31.044Z</time></trkpt><trkpt lat="33.968735" lon="-6.8737883"><ele>42.0</ele><time>2026-04-27T11:54:32.044Z</time></trkpt><trkpt lat="33.9686617" lon="-6.8736583"><ele>42.5</ele><time>2026-04-27T11:54:33.044Z</time></trkpt><trkpt lat="33.96858" lon="-6.8735233"><ele>43.0</ele><time>2026-04-27T11:54:34.043Z</time></trkpt><trkpt lat="33.968495" lon="-6.8733867"><ele>43.5</ele><time>2026-04-27T11:54:35.044Z</time></trkpt><trkpt lat="33.9684083" lon="-6.87326"><ele>44.0</ele><time>2026-04-27T11:54:36.044Z</time></trkpt><trkpt lat="33.968335" lon="-6.8731417"><ele>44.5</ele><time>2026-04-27T11:54:37.044Z</time></trkpt><trkpt lat="33.9682667" lon="-6.8730283"><ele>45.0</ele><time>2026-04-27T11:54:38.044Z</time></trkpt><trkpt lat="33.9682" lon="-6.8729133"><ele>45.8</ele><time>2026-04-27T11:54:39.044Z</time></trkpt><trkpt lat="33.9681367" lon="-6.872795"><ele>46.6</ele><time>2026-04-27T11:54:40.044Z</time></trkpt><trkpt lat="33.9680767" lon="-6.8726767"><ele>47.400000000000006</ele><time>2026-04-27T11:54:41.044Z</time></trkpt><trkpt lat="33.9680183" lon="-6.8725717"><ele>48.2</ele><time>2026-04-27T11:54:42.044Z</time></trkpt><trkpt lat="33.96796" lon="-6.872485"><ele>49.0</ele><time>2026-04-27T11:54:43.044Z</time></trkpt><trkpt lat="33.967905" lon="-6.872405"><ele>49.142857142857146</ele><time>2026-04-27T11:54:44.044Z</time></trkpt><trkpt lat="33.9678583" lon="-6.8723317"><ele>49.285714285714285</ele><time>2026-04-27T11:54:45.044Z</time></trkpt><trkpt lat="33.96782" lon="-6.8722583"><ele>49.42857142857143</ele><time>2026-04-27T11:54:46.044Z</time></trkpt><trkpt lat="33.9677833" lon="-6.872195"><ele>49.57142857142857</ele><time>2026-04-27T11:54:47.044Z</time></trkpt><trkpt lat="33.9677367" lon="-6.8721233"><ele>49.714285714285715</ele><time>2026-04-27T11:54:49.044Z</time></trkpt><trkpt lat="33.9677017" lon="-6.8720533"><ele>49.85714285714286</ele><time>2026-04-27T11:54:51.044Z</time></trkpt><trkpt lat="33.9676633" lon="-6.8719733"><ele>50.0</ele><time>2026-04-27T11:54:53.044Z</time></trkpt><trkpt lat="33.9676133" lon="-6.8718767"><ele>50.00000000000001</ele><time>2026-04-27T11:54:55.044Z</time></trkpt><trkpt lat="33.9675633" lon="-6.8718283"><ele>50.0</ele><time>2026-04-27T11:54:56.044Z</time></trkpt><trkpt lat="33.9675083" lon="-6.871785"><ele>50.0</ele><time>2026-04-27T11:54:57.043Z</time></trkpt><trkpt lat="33.9674533" lon="-6.8717317"><ele>50.0</ele><time>2026-04-27T11:54:58.043Z</time></trkpt><trkpt lat="33.9674083" lon="-6.8716733"><ele>50.00000000000001</ele><time>2026-04-27T11:54:59.044Z</time></trkpt><trkpt lat="33.9673583" lon="-6.8715483"><ele>50.0</ele><time>2026-04-27T11:55:01.044Z</time></trkpt><trkpt lat="33.967315" lon="-6.8714167"><ele>50.6</ele><time>2026-04-27T11:55:03.044Z</time></trkpt><trkpt lat="33.9672833" lon="-6.8713383"><ele>51.2</ele><time>2026-04-27T11:55:04.044Z</time></trkpt><trkpt lat="33.9672367" lon="-6.8712533"><ele>51.8</ele><time>2026-04-27T11:55:05.044Z</time></trkpt><trkpt lat="33.9671767" lon="-6.8711567"><ele>52.4</ele><time>2026-04-27T11:55:06.044Z</time></trkpt><trkpt lat="33.9671133" lon="-6.87106"><ele>53.0</ele><time>2026-04-27T11:55:07.044Z</time></trkpt><trkpt lat="33.9670567" lon="-6.8709717"><ele>53.50000000000001</ele><time>2026-04-27T11:55:08.044Z</time></trkpt><trkpt lat="33.967005" lon="-6.8708833"><ele>54.0</ele><time>2026-04-27T11:55:09.044Z</time></trkpt><trkpt lat="33.9669583" lon="-6.8708"><ele>54.5</ele><time>2026-04-27T11:55:10.044Z</time></trkpt><trkpt lat="33.96692" lon="-6.870715"><ele>55.0</ele><time>2026-04-27T11:55:11.044Z</time></trkpt><trkpt lat="33.96688" lon="-6.8706383"><ele>55.50000000000001</ele><time>2026-04-27T11:55:12.044Z</time></trkpt><trkpt lat="33.9668467" lon="-6.8705717"><ele>56.0</ele><time>2026-04-27T11:55:13.044Z</time></trkpt><trkpt lat="33.9667783" lon="-6.870465"><ele>56.00000000000001</ele><time>2026-04-27T11:55:15.044Z</time></trkpt><trkpt lat="33.9667117" lon="-6.8703683"><ele>56.0</ele><time>2026-04-27T11:55:17.043Z</time></trkpt><trkpt lat="33.9666583" lon="-6.8702833"><ele>56.0</ele><time>2026-04-27T11:55:19.044Z</time></trkpt><trkpt lat="33.9666133" lon="-6.8702033"><ele>56.0</ele><time>2026-04-27T11:55:21.044Z</time></trkpt><trkpt lat="33.9665633" lon="-6.8701283"><ele>56.00000000000001</ele><time>2026-04-27T11:55:24.044Z</time></trkpt><trkpt lat="33.9665017" lon="-6.870055"><ele>56.0</ele><time>2026-04-27T11:55:27.044Z</time></trkpt><trkpt lat="33.966445" lon="-6.87002"><ele>56.199999999999996</ele><time>2026-04-27T11:55:31.043Z</time></trkpt><trkpt lat="33.9663467" lon="-6.869995"><ele>56.39999999999999</ele><time>2026-04-27T11:55:42.044Z</time></trkpt><trkpt lat="33.966265" lon="-6.8700333"><ele>56.6</ele><time>2026-04-27T11:55:45.044Z</time></trkpt><trkpt lat="33.966175" lon="-6.8700967"><ele>56.8</ele><time>2026-04-27T11:55:47.044Z</time></trkpt><trkpt lat="33.9660933" lon="-6.8701617"><ele>57.0</ele><time>2026-04-27T11:55:48.044Z</time></trkpt><trkpt lat="33.966" lon="-6.870235"><ele>57.0</ele><time>2026-04-27T11:55:49.044Z</time></trkpt><trkpt lat="33.9659167" lon="-6.8703"><ele>57.0</ele><time>2026-04-27T11:55:50.044Z</time></trkpt><trkpt lat="33.96585" lon="-6.8703533"><ele>57.0</ele><time>2026-04-27T11:55:51.044Z</time></trkpt><trkpt lat="33.965795" lon="-6.8704"><ele>57.0</ele><time>2026-04-27T11:55:52.044Z</time></trkpt><trkpt lat="33.965715" lon="-6.87047"><ele>57.0</ele><time>2026-04-27T11:55:54.044Z</time></trkpt><trkpt lat="33.9656217" lon="-6.87054"><ele>57.5</ele><time>2026-04-27T11:55:56.043Z</time></trkpt><trkpt lat="33.9655717" lon="-6.8705917"><ele>58.0</ele><time>2026-04-27T11:55:57.044Z</time></trkpt><trkpt lat="33.96551" lon="-6.8706533"><ele>58.5</ele><time>2026-04-27T11:55:58.044Z</time></trkpt><trkpt lat="33.965445" lon="-6.8707117"><ele>59.0</ele><time>2026-04-27T11:55:59.044Z</time></trkpt><trkpt lat="33.9653767" lon="-6.8707733"><ele>59.5</ele><time>2026-04-27T11:56:00.044Z</time></trkpt><trkpt lat="33.965315" lon="-6.8708283"><ele>60.0</ele><time>2026-04-27T11:56:01.044Z</time></trkpt><trkpt lat="33.965255" lon="-6.8708783"><ele>59.8</ele><time>2026-04-27T11:56:02.044Z</time></trkpt><trkpt lat="33.965185" lon="-6.8709633"><ele>59.6</ele><time>2026-04-27T11:56:04.044Z</time></trkpt><trkpt lat="33.96511" lon="-6.8710333"><ele>59.400000000000006</ele><time>2026-04-27T11:56:15.044Z</time></trkpt><trkpt lat="33.9650217" lon="-6.871085"><ele>59.2</ele><time>2026-04-27T11:56:47.044Z</time></trkpt><trkpt lat="33.96496" lon="-6.871155"><ele>59.0</ele><time>2026-04-27T11:56:50.044Z</time></trkpt><trkpt lat="33.9648633" lon="-6.8712467"><ele>59.333333333333336</ele><time>2026-04-27T11:56:52.044Z</time></trkpt><trkpt lat="33.9647967" lon="-6.8713083"><ele>59.66666666666667</ele><time>2026-04-27T11:56:53.044Z</time></trkpt><trkpt lat="33.9647317" lon="-6.8713733"><ele>60.0</ele><time>2026-04-27T11:56:54.044Z</time></trkpt><trkpt lat="33.9646817" lon="-6.8714267"><ele>60.33333333333333</ele><time>2026-04-27T11:56:55.044Z</time></trkpt><trkpt lat="33.9645967" lon="-6.8715117"><ele>60.666666666666664</ele><time>2026-04-27T11:56:57.044Z</time></trkpt><trkpt lat="33.9645483" lon="-6.8715633"><ele>61.0</ele><time>2026-04-27T11:56:58.044Z</time></trkpt><trkpt lat="33.964475" lon="-6.87163"><ele>61.0</ele><time>2026-04-27T11:56:59.044Z</time></trkpt><trkpt lat="33.9643783" lon="-6.87172"><ele>61.0</ele><time>2026-04-27T11:57:00.043Z</time></trkpt><trkpt lat="33.9642667" lon="-6.8718267"><ele>61.0</ele><time>2026-04-27T11:57:01.044Z</time></trkpt><trkpt lat="33.96415" lon="-6.87194"><ele>61.0</ele><time>2026-04-27T11:57:02.044Z</time></trkpt><trkpt lat="33.9640317" lon="-6.872045"><ele>61.5</ele><time>2026-04-27T11:57:03.044Z</time></trkpt><trkpt lat="33.9639217" lon="-6.8721467"><ele>62.0</ele><time>2026-04-27T11:57:04.044Z</time></trkpt><trkpt lat="33.9638217" lon="-6.8722417"><ele>62.5</ele><time>2026-04-27T11:57:05.044Z</time></trkpt><trkpt lat="33.9637217" lon="-6.8723383"><ele>63.0</ele><time>2026-04-27T11:57:06.044Z</time></trkpt><trkpt lat="33.9636233" lon="-6.8724283"><ele>63.0</ele><time>2026-04-27T11:57:07.044Z</time></trkpt><trkpt lat="33.96353" lon="-6.8725167"><ele>63.0</ele><time>2026-04-27T11:57:08.044Z</time></trkpt><trkpt lat="33.9634433" lon="-6.8725967"><ele>63.0</ele><time>2026-04-27T11:57:09.044Z</time></trkpt><trkpt lat="33.9633533" lon="-6.8726883"><ele>63.0</ele><time>2026-04-27T11:57:10.043Z</time></trkpt><trkpt lat="33.9632617" lon="-6.87278"><ele>63.0</ele><time>2026-04-27T11:57:11.044Z</time></trkpt><trkpt lat="33.96317" lon="-6.8728717"><ele>63.0</ele><time>2026-04-27T11:57:12.044Z</time></trkpt><trkpt lat="33.963075" lon="-6.87296"><ele>63.0</ele><time>2026-04-27T11:57:13.044Z</time></trkpt><trkpt lat="33.9629833" lon="-6.8730417"><ele>63.0</ele><time>2026-04-27T11:57:14.044Z</time></trkpt><trkpt lat="33.9629033" lon="-6.87312"><ele>63.0</ele><time>2026-04-27T11:57:15.044Z</time></trkpt><trkpt lat="33.9628317" lon="-6.8731917"><ele>63.0</ele><time>2026-04-27T11:57:16.044Z</time></trkpt><trkpt lat="33.9627617" lon="-6.8732617"><ele>63.0</ele><time>2026-04-27T11:57:17.044Z</time></trkpt><trkpt lat="33.9627" lon="-6.8733167"><ele>63.0</ele><time>2026-04-27T11:57:18.044Z</time></trkpt><trkpt lat="33.9626383" lon="-6.8733683"><ele>63.0</ele><time>2026-04-27T11:57:19.044Z</time></trkpt><trkpt lat="33.9625783" lon="-6.8734233"><ele>63.0</ele><time>2026-04-27T11:57:20.044Z</time></trkpt><trkpt lat="33.9625183" lon="-6.87348"><ele>63.4</ele><time>2026-04-27T11:57:21.043Z</time></trkpt><trkpt lat="33.962455" lon="-6.8735467"><ele>63.8</ele><time>2026-04-27T11:57:22.044Z</time></trkpt><trkpt lat="33.9623833" lon="-6.8736117"><ele>64.2</ele><time>2026-04-27T11:57:23.044Z</time></trkpt><trkpt lat="33.9623067" lon="-6.8736783"><ele>64.6</ele><time>2026-04-27T11:57:24.044Z</time></trkpt><trkpt lat="33.962225" lon="-6.8737583"><ele>65.0</ele><time>2026-04-27T11:57:25.044Z</time></trkpt><trkpt lat="33.9621383" lon="-6.8738417"><ele>65.0</ele><time>2026-04-27T11:57:26.044Z</time></trkpt><trkpt lat="33.9620567" lon="-6.87392"><ele>65.0</ele><time>2026-04-27T11:57:27.043Z</time></trkpt><trkpt lat="33.9619767" lon="-6.873995"><ele>65.0</ele><time>2026-04-27T11:57:28.044Z</time></trkpt><trkpt lat="33.9618967" lon="-6.8740733"><ele>65.0</ele><time>2026-04-27T11:57:29.044Z</time></trkpt><trkpt lat="33.9618133" lon="-6.8741533"><ele>65.0</ele><time>2026-04-27T11:57:30.044Z</time></trkpt><trkpt lat="33.9617267" lon="-6.8742367"><ele>65.0</ele><time>2026-04-27T11:57:31.044Z</time></trkpt><trkpt lat="33.96164" lon="-6.8743217"><ele>65.0</ele><time>2026-04-27T11:57:32.044Z</time></trkpt><trkpt lat="33.9615517" lon="-6.8744067"><ele>65.0</ele><time>2026-04-27T11:57:33.044Z</time></trkpt><trkpt lat="33.9614667" lon="-6.8744817"><ele>65.0</ele><time>2026-04-27T11:57:34.044Z</time></trkpt><trkpt lat="33.9613867" lon="-6.8745567"><ele>65.0</ele><time>2026-04-27T11:57:35.044Z</time></trkpt><trkpt lat="33.9613117" lon="-6.8746283"><ele>65.0</ele><time>2026-04-27T11:57:36.044Z</time></trkpt><trkpt lat="33.9612433" lon="-6.8746933"><ele>65.0</ele><time>2026-04-27T11:57:37.044Z</time></trkpt><trkpt lat="33.9611867" lon="-6.87475"><ele>65.0</ele><time>2026-04-27T11:57:38.043Z</time></trkpt><trkpt lat="33.9611017" lon="-6.8748267"><ele>65.0</ele><time>2026-04-27T11:57:40.043Z</time></trkpt><trkpt lat="33.9610367" lon="-6.874895"><ele>65.0</ele><time>2026-04-27T11:57:42.044Z</time></trkpt><trkpt lat="33.9609733" lon="-6.8750233"><ele>65.00000000000001</ele><time>2026-04-27T11:57:44.044Z</time></trkpt><trkpt lat="33.96094" lon="-6.8750983"><ele>65.0</ele><time>2026-04-27T11:57:45.044Z</time></trkpt><trkpt lat="33.960895" lon="-6.8751567"><ele>65.0</ele><time>2026-04-27T11:57:46.044Z</time></trkpt><trkpt lat="33.96084" lon="-6.875205"><ele>65.0</ele><time>2026-04-27T11:57:47.044Z</time></trkpt><trkpt lat="33.9607783" lon="-6.8752317"><ele>65.0</ele><time>2026-04-27T11:57:48.044Z</time></trkpt><trkpt lat="33.9606983" lon="-6.87523"><ele>65.00000000000001</ele><time>2026-04-27T11:57:49.044Z</time></trkpt><trkpt lat="33.96062" lon="-6.875205"><ele>65.0</ele><time>2026-04-27T11:57:50.043Z</time></trkpt><trkpt lat="33.96056" lon="-6.8751567"><ele>65.2</ele><time>2026-04-27T11:57:51.044Z</time></trkpt><trkpt lat="33.9605067" lon="-6.8750933"><ele>65.4</ele><time>2026-04-27T11:57:52.044Z</time></trkpt><trkpt lat="33.9604617" lon="-6.875005"><ele>65.6</ele><time>2026-04-27T11:57:53.044Z</time></trkpt><trkpt lat="33.9604333" lon="-6.8749017"><ele>65.8</ele><time>2026-04-27T11:57:54.044Z</time></trkpt><trkpt lat="33.96042" lon="-6.8747683"><ele>66.0</ele><time>2026-04-27T11:57:55.044Z</time></trkpt><trkpt lat="33.9604083" lon="-6.8746333"><ele>66.0</ele><time>2026-04-27T11:57:56.044Z</time></trkpt><trkpt lat="33.960385" lon="-6.874505"><ele>66.0</ele><time>2026-04-27T11:57:57.044Z</time></trkpt><trkpt lat="33.9603533" lon="-6.8743933"><ele>66.0</ele><time>2026-04-27T11:57:58.044Z</time></trkpt><trkpt lat="33.9603133" lon="-6.8742983"><ele>66.0</ele><time>2026-04-27T11:57:59.044Z</time></trkpt><trkpt lat="33.9602683" lon="-6.8742017"><ele>66.0</ele><time>2026-04-27T11:58:00.044Z</time></trkpt><trkpt lat="33.9602167" lon="-6.87411"><ele>66.2</ele><time>2026-04-27T11:58:01.044Z</time></trkpt><trkpt lat="33.96016" lon="-6.8740067"><ele>66.39999999999999</ele><time>2026-04-27T11:58:02.044Z</time></trkpt><trkpt lat="33.960105" lon="-6.8739033"><ele>66.6</ele><time>2026-04-27T11:58:03.044Z</time></trkpt><trkpt lat="33.960055" lon="-6.8738083"><ele>66.8</ele><time>2026-04-27T11:58:04.044Z</time></trkpt><trkpt lat="33.9600033" lon="-6.87372"><ele>67.0</ele><time>2026-04-27T11:58:05.044Z</time></trkpt><trkpt lat="33.95996" lon="-6.8736183"><ele>67.25</ele><time>2026-04-27T11:58:06.044Z</time></trkpt><trkpt lat="33.9599117" lon="-6.8735117"><ele>67.5</ele><time>2026-04-27T11:58:07.043Z</time></trkpt><trkpt lat="33.959855" lon="-6.8734017"><ele>67.75</ele><time>2026-04-27T11:58:08.043Z</time></trkpt><trkpt lat="33.9597883" lon="-6.8732867"><ele>68.0</ele><time>2026-04-27T11:58:09.044Z</time></trkpt><trkpt lat="33.9597183" lon="-6.8731617"><ele>69.25</ele><time>2026-04-27T11:58:10.043Z</time></trkpt><trkpt lat="33.9596283" lon="-6.8730283"><ele>70.5</ele><time>2026-04-27T11:58:11.044Z</time></trkpt><trkpt lat="33.959565" lon="-6.8728883"><ele>71.75</ele><time>2026-04-27T11:58:12.044Z</time></trkpt><trkpt lat="33.9595067" lon="-6.8727517"><ele>73.0</ele><time>2026-04-27T11:58:13.044Z</time></trkpt><trkpt lat="33.9594517" lon="-6.872625"><ele>73.25</ele><time>2026-04-27T11:58:14.044Z</time></trkpt><trkpt lat="33.9594" lon="-6.8725"><ele>73.5</ele><time>2026-04-27T11:58:15.044Z</time></trkpt><trkpt lat="33.9593483" lon="-6.8723783"><ele>73.75</ele><time>2026-04-27T11:58:16.044Z</time></trkpt><trkpt lat="33.9592933" lon="-6.8722533"><ele>74.0</ele><time>2026-04-27T11:58:17.044Z</time></trkpt><trkpt lat="33.9592383" lon="-6.87212"><ele>74.25</ele><time>2026-04-27T11:58:18.044Z</time></trkpt><trkpt lat="33.9591783" lon="-6.87198"><ele>74.5</ele><time>2026-04-27T11:58:19.044Z</time></trkpt><trkpt lat="33.9591167" lon="-6.8718367"><ele>74.75</ele><time>2026-04-27T11:58:20.044Z</time></trkpt><trkpt lat="33.9590533" lon="-6.8716867"><ele>75.0</ele><time>2026-04-27T11:58:21.044Z</time></trkpt><trkpt lat="33.9589867" lon="-6.871535"><ele>75.0</ele><time>2026-04-27T11:58:22.044Z</time></trkpt><trkpt lat="33.9589217" lon="-6.87139"><ele>75.0</ele><time>2026-04-27T11:58:23.044Z</time></trkpt><trkpt lat="33.95886" lon="-6.8712517"><ele>75.0</ele><time>2026-04-27T11:58:24.044Z</time></trkpt><trkpt lat="33.9587933" lon="-6.8711217"><ele>75.0</ele><time>2026-04-27T11:58:25.044Z</time></trkpt><trkpt lat="33.9587317" lon="-6.870995"><ele>75.0</ele><time>2026-04-27T11:58:26.044Z</time></trkpt><trkpt lat="33.95867" lon="-6.8708833"><ele>75.0</ele><time>2026-04-27T11:58:27.043Z</time></trkpt><trkpt lat="33.9586017" lon="-6.87078"><ele>75.0</ele><time>2026-04-27T11:58:28.044Z</time></trkpt><trkpt lat="33.9585333" lon="-6.8706817"><ele>75.0</ele><time>2026-04-27T11:58:29.044Z</time></trkpt><trkpt lat="33.95847" lon="-6.8705983"><ele>75.0</ele><time>2026-04-27T11:58:30.043Z</time></trkpt><trkpt lat="33.958415" lon="-6.870525"><ele>75.0</ele><time>2026-04-27T11:58:31.044Z</time></trkpt><trkpt lat="33.9583617" lon="-6.8704567"><ele>75.0</ele><time>2026-04-27T11:58:32.044Z</time></trkpt><trkpt lat="33.958295" lon="-6.8703733"><ele>75.0</ele><time>2026-04-27T11:58:33.043Z</time></trkpt><trkpt lat="33.9582233" lon="-6.8702833"><ele>75.0</ele><time>2026-04-27T11:58:34.044Z</time></trkpt><trkpt lat="33.9581617" lon="-6.8702017"><ele>75.0</ele><time>2026-04-27T11:58:35.044Z</time></trkpt><trkpt lat="33.9581083" lon="-6.8701017"><ele>74.83333333333333</ele><time>2026-04-27T11:58:37.044Z</time></trkpt><trkpt lat="33.9580317" lon="-6.869975"><ele>74.66666666666667</ele><time>2026-04-27T11:58:39.044Z</time></trkpt><trkpt lat="33.9579817" lon="-6.8699133"><ele>74.5</ele><time>2026-04-27T11:58:40.044Z</time></trkpt><trkpt lat="33.957925" lon="-6.869855"><ele>74.33333333333334</ele><time>2026-04-27T11:58:41.044Z</time></trkpt><trkpt lat="33.957865" lon="-6.8697933"><ele>74.16666666666667</ele><time>2026-04-27T11:58:42.044Z</time></trkpt><trkpt lat="33.9578067" lon="-6.8697367"><ele>74.0</ele><time>2026-04-27T11:58:43.044Z</time></trkpt><trkpt lat="33.9577483" lon="-6.869685"><ele>74.0</ele><time>2026-04-27T11:58:44.044Z</time></trkpt><trkpt lat="33.9576933" lon="-6.8696283"><ele>74.0</ele><time>2026-04-27T11:58:45.044Z</time></trkpt><trkpt lat="33.9576383" lon="-6.869565"><ele>74.0</ele><time>2026-04-27T11:58:46.044Z</time></trkpt><trkpt lat="33.957585" lon="-6.8694917"><ele>74.0</ele><time>2026-04-27T11:58:47.044Z</time></trkpt><trkpt lat="33.9575367" lon="-6.8693933"><ele>74.0</ele><time>2026-04-27T11:58:48.043Z</time></trkpt><trkpt lat="33.9574667" lon="-6.8692767"><ele>74.0</ele><time>2026-04-27T11:58:49.044Z</time></trkpt><trkpt lat="33.9573683" lon="-6.8691417"><ele>74.0</ele><time>2026-04-27T11:58:50.043Z</time></trkpt><trkpt lat="33.95727" lon="-6.8690033"><ele>74.0</ele><time>2026-04-27T11:58:51.044Z</time></trkpt><trkpt lat="33.95714" lon="-6.8688567"><ele>74.0</ele><time>2026-04-27T11:58:52.044Z</time></trkpt><trkpt lat="33.95703" lon="-6.8687117"><ele>74.0</ele><time>2026-04-27T11:58:53.044Z</time></trkpt><trkpt lat="33.95692" lon="-6.8685733"><ele>74.0</ele><time>2026-04-27T11:58:54.044Z</time></trkpt><trkpt lat="33.9568133" lon="-6.8684417"><ele>74.0</ele><time>2026-04-27T11:58:55.044Z</time></trkpt><trkpt lat="33.9567017" lon="-6.8683183"><ele>74.25</ele><time>2026-04-27T11:58:56.044Z</time></trkpt><trkpt lat="33.9566017" lon="-6.8682083"><ele>74.5</ele><time>2026-04-27T11:58:57.044Z</time></trkpt><trkpt lat="33.9565133" lon="-6.8681067"><ele>74.75</ele><time>2026-04-27T11:58:58.043Z</time></trkpt><trkpt lat="33.95642" lon="-6.8680117"><ele>75.0</ele><time>2026-04-27T11:58:59.044Z</time></trkpt><trkpt lat="33.95635" lon="-6.8679267"><ele>75.0</ele><time>2026-04-27T11:59:00.043Z</time></trkpt><trkpt lat="33.95628" lon="-6.8678433"><ele>75.0</ele><time>2026-04-27T11:59:01.044Z</time></trkpt><trkpt lat="33.9562083" lon="-6.8677583"><ele>75.0</ele><time>2026-04-27T11:59:02.044Z</time></trkpt><trkpt lat="33.9561333" lon="-6.8676683"><ele>75.0</ele><time>2026-04-27T11:59:03.044Z</time></trkpt><trkpt lat="33.95606" lon="-6.8675767"><ele>75.0</ele><time>2026-04-27T11:59:04.044Z</time></trkpt><trkpt lat="33.9559933" lon="-6.86749"><ele>75.0</ele><time>2026-04-27T11:59:05.044Z</time></trkpt><trkpt lat="33.9559367" lon="-6.8674133"><ele>75.0</ele><time>2026-04-27T11:59:06.044Z</time></trkpt><trkpt lat="33.9558883" lon="-6.86735"><ele>75.0</ele><time>2026-04-27T11:59:07.044Z</time></trkpt><trkpt lat="33.9558167" lon="-6.86727"><ele>75.0</ele><time>2026-04-27T11:59:09.044Z</time></trkpt><trkpt lat="33.9557333" lon="-6.8672317"><ele>75.0</ele><time>2026-04-27T11:59:12.043Z</time></trkpt><trkpt lat="33.955635" lon="-6.8672283"><ele>75.0</ele><time>2026-04-27T11:59:14.043Z</time></trkpt><trkpt lat="33.95557" lon="-6.86722"><ele>75.0</ele><time>2026-04-27T11:59:15.044Z</time></trkpt><trkpt lat="33.9555033" lon="-6.867195"><ele>75.0</ele><time>2026-04-27T11:59:16.044Z</time></trkpt><trkpt lat="33.9554417" lon="-6.8671533"><ele>75.0</ele><time>2026-04-27T11:59:17.044Z</time></trkpt><trkpt lat="33.9553867" lon="-6.86708"><ele>75.0</ele><time>2026-04-27T11:59:18.043Z</time></trkpt><trkpt lat="33.95535" lon="-6.8669417"><ele>75.0</ele><time>2026-04-27T11:59:19.044Z</time></trkpt><trkpt lat="33.9553067" lon="-6.8668217"><ele>75.4</ele><time>2026-04-27T11:59:20.043Z</time></trkpt><trkpt lat="33.9552683" lon="-6.8666917"><ele>75.8</ele><time>2026-04-27T11:59:21.043Z</time></trkpt><trkpt lat="33.955215" lon="-6.8665883"><ele>76.2</ele><time>2026-04-27T11:59:22.043Z</time></trkpt><trkpt lat="33.9551567" lon="-6.8664933"><ele>76.6</ele><time>2026-04-27T11:59:23.043Z</time></trkpt><trkpt lat="33.9550983" lon="-6.8664067"><ele>77.0</ele><time>2026-04-27T11:59:24.043Z</time></trkpt><trkpt lat="33.955045" lon="-6.8663267"><ele>77.5</ele><time>2026-04-27T11:59:25.043Z</time></trkpt><trkpt lat="33.9549917" lon="-6.8662567"><ele>78.0</ele><time>2026-04-27T11:59:26.043Z</time></trkpt><trkpt lat="33.9549417" lon="-6.8661933"><ele>78.5</ele><time>2026-04-27T11:59:27.043Z</time></trkpt><trkpt lat="33.9548917" lon="-6.8661317"><ele>79.0</ele><time>2026-04-27T11:59:28.043Z</time></trkpt><trkpt lat="33.9548417" lon="-6.8660683"><ele>79.5</ele><time>2026-04-27T11:59:29.042Z</time></trkpt><trkpt lat="33.95479" lon="-6.866"><ele>80.0</ele><time>2026-04-27T11:59:30.043Z</time></trkpt><trkpt lat="33.954735" lon="-6.865925"><ele>80.2</ele><time>2026-04-27T11:59:31.043Z</time></trkpt><trkpt lat="33.9546767" lon="-6.865845"><ele>80.4</ele><time>2026-04-27T11:59:32.043Z</time></trkpt><trkpt lat="33.95461" lon="-6.8657533"><ele>80.6</ele><time>2026-04-27T11:59:33.043Z</time></trkpt><trkpt lat="33.954535" lon="-6.8656567"><ele>80.8</ele><time>2026-04-27T11:59:34.043Z</time></trkpt><trkpt lat="33.9544617" lon="-6.8655633"><ele>81.0</ele><time>2026-04-27T11:59:35.043Z</time></trkpt><trkpt lat="33.9543967" lon="-6.8654733"><ele>81.0</ele><time>2026-04-27T11:59:36.043Z</time></trkpt><trkpt lat="33.95434" lon="-6.8653883"><ele>81.0</ele><time>2026-04-27T11:59:37.043Z</time></trkpt><trkpt lat="33.9542833" lon="-6.86531"><ele>81.0</ele><time>2026-04-27T11:59:38.043Z</time></trkpt><trkpt lat="33.954225" lon="-6.8652283"><ele>81.0</ele><time>2026-04-27T11:59:39.042Z</time></trkpt><trkpt lat="33.954165" lon="-6.8651483"><ele>81.0</ele><time>2026-04-27T11:59:40.043Z</time></trkpt><trkpt lat="33.954095" lon="-6.8650617"><ele>81.83333333333333</ele><time>2026-04-27T11:59:41.043Z</time></trkpt><trkpt lat="33.9540217" lon="-6.86497"><ele>82.66666666666667</ele><time>2026-04-27T11:59:42.043Z</time></trkpt><trkpt lat="33.9539517" lon="-6.8648833"><ele>83.5</ele><time>2026-04-27T11:59:43.043Z</time></trkpt><trkpt lat="33.9538933" lon="-6.8648083"><ele>84.33333333333334</ele><time>2026-04-27T11:59:44.043Z</time></trkpt><trkpt lat="33.9538467" lon="-6.8647417"><ele>85.16666666666667</ele><time>2026-04-27T11:59:45.043Z</time></trkpt><trkpt lat="33.953805" lon="-6.86468"><ele>86.0</ele><time>2026-04-27T11:59:46.043Z</time></trkpt><trkpt lat="33.9537483" lon="-6.86459"><ele>86.0</ele><time>2026-04-27T11:59:48.043Z</time></trkpt><trkpt lat="33.953695" lon="-6.8645183"><ele>86.0</ele><time>2026-04-27T11:59:51.043Z</time></trkpt><trkpt lat="33.9536067" lon="-6.8644017"><ele>86.0</ele><time>2026-04-27T12:01:02.043Z</time></trkpt><trkpt lat="33.9535517" lon="-6.86431"><ele>86.0</ele><time>2026-04-27T12:01:03.043Z</time></trkpt><trkpt lat="33.953465" lon="-6.864205"><ele>86.0</ele><time>2026-04-27T12:01:04.043Z</time></trkpt><trkpt lat="33.9533583" lon="-6.8640767"><ele>88.33333333333334</ele><time>2026-04-27T12:01:05.043Z</time></trkpt><trkpt lat="33.9532467" lon="-6.86394"><ele>90.66666666666667</ele><time>2026-04-27T12:01:06.043Z</time></trkpt><trkpt lat="33.9531317" lon="-6.863795"><ele>93.0</ele><time>2026-04-27T12:01:07.043Z</time></trkpt><trkpt lat="33.9530217" lon="-6.8636583"><ele>93.0</ele><time>2026-04-27T12:01:08.043Z</time></trkpt><trkpt lat="33.9529183" lon="-6.86353"><ele>93.0</ele><time>2026-04-27T12:01:09.043Z</time></trkpt><trkpt lat="33.9528167" lon="-6.8634067"><ele>93.0</ele><time>2026-04-27T12:01:10.043Z</time></trkpt><trkpt lat="33.952725" lon="-6.8632833"><ele>93.0</ele><time>2026-04-27T12:01:11.043Z</time></trkpt><trkpt lat="33.95263" lon="-6.8631567"><ele>93.0</ele><time>2026-04-27T12:01:12.043Z</time></trkpt><trkpt lat="33.9525333" lon="-6.863045"><ele>93.0</ele><time>2026-04-27T12:01:13.043Z</time></trkpt><trkpt lat="33.952435" lon="-6.86292"><ele>93.0</ele><time>2026-04-27T12:01:14.043Z</time></trkpt><trkpt lat="33.9523333" lon="-6.8627967"><ele>93.0</ele><time>2026-04-27T12:01:15.043Z</time></trkpt><trkpt lat="33.952235" lon="-6.8626733"><ele>93.0</ele><time>2026-04-27T12:01:16.043Z</time></trkpt><trkpt lat="33.952145" lon="-6.8625517"><ele>93.0</ele><time>2026-04-27T12:01:17.043Z</time></trkpt><trkpt lat="33.95205" lon="-6.86244"><ele>93.0</ele><time>2026-04-27T12:01:18.043Z</time></trkpt><trkpt lat="33.9519617" lon="-6.8623283"><ele>93.0</ele><time>2026-04-27T12:01:19.043Z</time></trkpt><trkpt lat="33.9518683" lon="-6.86221"><ele>93.0</ele><time>2026-04-27T12:01:20.043Z</time></trkpt><trkpt lat="33.9517717" lon="-6.8620883"><ele>93.0</ele><time>2026-04-27T12:01:21.043Z</time></trkpt><trkpt lat="33.9516683" lon="-6.861965"><ele>93.0</ele><time>2026-04-27T12:01:22.043Z</time></trkpt><trkpt lat="33.9515633" lon="-6.8618417"><ele>93.0</ele><time>2026-04-27T12:01:23.043Z</time></trkpt><trkpt lat="33.9514533" lon="-6.8617167"><ele>91.33333333333333</ele><time>2026-04-27T12:01:24.043Z</time></trkpt><trkpt lat="33.9513483" lon="-6.861585"><ele>89.66666666666666</ele><time>2026-04-27T12:01:25.043Z</time></trkpt><trkpt lat="33.95124" lon="-6.8614517"><ele>88.0</ele><time>2026-04-27T12:01:26.043Z</time></trkpt><trkpt lat="33.9511217" lon="-6.8613233"><ele>88.0</ele><time>2026-04-27T12:01:27.043Z</time></trkpt><trkpt lat="33.9510033" lon="-6.8611983"><ele>88.0</ele><time>2026-04-27T12:01:28.043Z</time></trkpt><trkpt lat="33.950885" lon="-6.8610917"><ele>88.0</ele><time>2026-04-27T12:01:29.043Z</time></trkpt><trkpt lat="33.95076" lon="-6.8609933"><ele>88.66666666666666</ele><time>2026-04-27T12:01:30.043Z</time></trkpt><trkpt lat="33.9506383" lon="-6.8608867"><ele>89.33333333333333</ele><time>2026-04-27T12:01:31.043Z</time></trkpt><trkpt lat="33.95051" lon="-6.8607783"><ele>90.0</ele><time>2026-04-27T12:01:32.042Z</time></trkpt><trkpt lat="33.9503667" lon="-6.8606733"><ele>90.0</ele><time>2026-04-27T12:01:33.043Z</time></trkpt><trkpt lat="33.9502317" lon="-6.860575"><ele>90.0</ele><time>2026-04-27T12:01:34.043Z</time></trkpt><trkpt lat="33.9501233" lon="-6.8604867"><ele>90.0</ele><time>2026-04-27T12:01:35.043Z</time></trkpt><trkpt lat="33.9500167" lon="-6.860435"><ele>90.0</ele><time>2026-04-27T12:01:36.043Z</time></trkpt><trkpt lat="33.94993" lon="-6.8603817"><ele>90.14285714285714</ele><time>2026-04-27T12:01:37.042Z</time></trkpt><trkpt lat="33.9498633" lon="-6.8603367"><ele>90.28571428571429</ele><time>2026-04-27T12:01:38.043Z</time></trkpt><trkpt lat="33.9497983" lon="-6.8603233"><ele>90.42857142857143</ele><time>2026-04-27T12:01:39.043Z</time></trkpt><trkpt lat="33.94973" lon="-6.8603317"><ele>90.57142857142857</ele><time>2026-04-27T12:01:40.043Z</time></trkpt><trkpt lat="33.9496517" lon="-6.8603467"><ele>90.71428571428572</ele><time>2026-04-27T12:01:41.042Z</time></trkpt><trkpt lat="33.9495833" lon="-6.860355"><ele>90.85714285714286</ele><time>2026-04-27T12:01:42.043Z</time></trkpt><trkpt lat="33.9495167" lon="-6.8603383"><ele>91.0</ele><time>2026-04-27T12:01:43.043Z</time></trkpt><trkpt lat="33.9494517" lon="-6.8603067"><ele>91.0</ele><time>2026-04-27T12:01:44.043Z</time></trkpt><trkpt lat="33.9494017" lon="-6.8602433"><ele>91.0</ele><time>2026-04-27T12:01:45.043Z</time></trkpt><trkpt lat="33.949365" lon="-6.8601667"><ele>91.0</ele><time>2026-04-27T12:01:46.042Z</time></trkpt><trkpt lat="33.949345" lon="-6.8600817"><ele>91.0</ele><time>2026-04-27T12:01:47.043Z</time></trkpt><trkpt lat="33.949345" lon="-6.859995"><ele>91.0</ele><time>2026-04-27T12:01:48.043Z</time></trkpt><trkpt lat="33.9493667" lon="-6.8599033"><ele>91.0</ele><time>2026-04-27T12:01:49.043Z</time></trkpt><trkpt lat="33.94941" lon="-6.859805"><ele>91.25</ele><time>2026-04-27T12:01:50.043Z</time></trkpt><trkpt lat="33.94947" lon="-6.8597"><ele>91.5</ele><time>2026-04-27T12:01:51.043Z</time></trkpt><trkpt lat="33.9495467" lon="-6.8595933"><ele>91.75</ele><time>2026-04-27T12:01:52.042Z</time></trkpt><trkpt lat="33.94962" lon="-6.859485"><ele>92.0</ele><time>2026-04-27T12:01:53.043Z</time></trkpt><trkpt lat="33.9496867" lon="-6.8593683"><ele>91.8</ele><time>2026-04-27T12:01:54.043Z</time></trkpt><trkpt lat="33.94973" lon="-6.8592383"><ele>91.6</ele><time>2026-04-27T12:01:55.043Z</time></trkpt><trkpt lat="33.9497733" lon="-6.8591217"><ele>91.39999999999999</ele><time>2026-04-27T12:01:56.043Z</time></trkpt><trkpt lat="33.9498" lon="-6.85902"><ele>91.19999999999999</ele><time>2026-04-27T12:01:57.043Z</time></trkpt><trkpt lat="33.94982" lon="-6.8589033"><ele>91.0</ele><time>2026-04-27T12:01:59.042Z</time></trkpt><trkpt lat="33.94987" lon="-6.8587933"><ele>91.0</ele><time>2026-04-27T12:04:01.043Z</time></trkpt><trkpt lat="33.9499217" lon="-6.8586567"><ele>91.0</ele><time>2026-04-27T12:04:03.043Z</time></trkpt><trkpt lat="33.9499567" lon="-6.8585583"><ele>91.0</ele><time>2026-04-27T12:04:04.043Z</time></trkpt><trkpt lat="33.9500033" lon="-6.8584483"><ele>91.0</ele><time>2026-04-27T12:04:05.043Z</time></trkpt><trkpt lat="33.9500567" lon="-6.858315"><ele>91.0</ele><time>2026-04-27T12:04:06.043Z</time></trkpt><trkpt lat="33.9501167" lon="-6.8581617"><ele>90.66666666666666</ele><time>2026-04-27T12:04:07.043Z</time></trkpt><trkpt lat="33.9501867" lon="-6.8579917"><ele>90.33333333333333</ele><time>2026-04-27T12:04:08.043Z</time></trkpt><trkpt lat="33.950265" lon="-6.857805"><ele>90.0</ele><time>2026-04-27T12:04:09.042Z</time></trkpt><trkpt lat="33.9503483" lon="-6.857605"><ele>89.66666666666667</ele><time>2026-04-27T12:04:10.043Z</time></trkpt><trkpt lat="33.950435" lon="-6.8573967"><ele>89.33333333333334</ele><time>2026-04-27T12:04:11.042Z</time></trkpt><trkpt lat="33.9505217" lon="-6.8571833"><ele>89.0</ele><time>2026-04-27T12:04:12.043Z</time></trkpt><trkpt lat="33.9506083" lon="-6.856965"><ele>89.66666666666667</ele><time>2026-04-27T12:04:13.043Z</time></trkpt><trkpt lat="33.950695" lon="-6.8567633"><ele>90.33333333333333</ele><time>2026-04-27T12:04:14.043Z</time></trkpt><trkpt lat="33.9507717" lon="-6.8565783"><ele>91.0</ele><time>2026-04-27T12:04:15.043Z</time></trkpt><trkpt lat="33.9508333" lon="-6.8564167"><ele>90.8</ele><time>2026-04-27T12:04:16.043Z</time></trkpt><trkpt lat="33.9508867" lon="-6.8562783"><ele>90.6</ele><time>2026-04-27T12:04:17.043Z</time></trkpt><trkpt lat="33.9509283" lon="-6.856175"><ele>90.4</ele><time>2026-04-27T12:04:18.043Z</time></trkpt><trkpt lat="33.950945" lon="-6.8560983"><ele>90.2</ele><time>2026-04-27T12:04:19.043Z</time></trkpt><trkpt lat="33.9509133" lon="-6.8559883"><ele>90.0</ele><time>2026-04-27T12:04:21.043Z</time></trkpt><trkpt lat="33.950825" lon="-6.8558817"><ele>90.0</ele><time>2026-04-27T12:04:23.043Z</time></trkpt><trkpt lat="33.9507583" lon="-6.8558283"><ele>90.0</ele><time>2026-04-27T12:04:24.043Z</time></trkpt><trkpt lat="33.9506933" lon="-6.8557683"><ele>90.0</ele><time>2026-04-27T12:04:25.043Z</time></trkpt><trkpt lat="33.9506217" lon="-6.855705"><ele>90.0</ele><time>2026-04-27T12:04:26.043Z</time></trkpt><trkpt lat="33.950545" lon="-6.8556233"><ele>90.0</ele><time>2026-04-27T12:04:27.043Z</time></trkpt><trkpt lat="33.9504667" lon="-6.85555"><ele>90.0</ele><time>2026-04-27T12:04:28.043Z</time></trkpt><trkpt lat="33.9503983" lon="-6.8554817"><ele>90.0</ele><time>2026-04-27T12:04:29.043Z</time></trkpt><trkpt lat="33.950325" lon="-6.8554117"><ele>90.0</ele><time>2026-04-27T12:04:30.043Z</time></trkpt><trkpt lat="33.9502483" lon="-6.8553483"><ele>90.0</ele><time>2026-04-27T12:04:31.043Z</time></trkpt><trkpt lat="33.9501717" lon="-6.8552867"><ele>90.0</ele><time>2026-04-27T12:04:32.042Z</time></trkpt><trkpt lat="33.9500983" lon="-6.8552167"><ele>89.6</ele><time>2026-04-27T12:04:33.042Z</time></trkpt><trkpt lat="33.9500283" lon="-6.855135"><ele>89.2</ele><time>2026-04-27T12:04:34.043Z</time></trkpt><trkpt lat="33.9499617" lon="-6.8550533"><ele>88.80000000000001</ele><time>2026-04-27T12:04:35.043Z</time></trkpt><trkpt lat="33.94989" lon="-6.85498"><ele>88.4</ele><time>2026-04-27T12:04:36.043Z</time></trkpt><trkpt lat="33.9498117" lon="-6.8549133"><ele>88.0</ele><time>2026-04-27T12:04:37.043Z</time></trkpt><trkpt lat="33.9497517" lon="-6.8548567"><ele>87.83333333333333</ele><time>2026-04-27T12:04:38.042Z</time></trkpt><trkpt lat="33.9496917" lon="-6.8547933"><ele>87.66666666666666</ele><time>2026-04-27T12:04:39.043Z</time></trkpt><trkpt lat="33.94964" lon="-6.85474"><ele>87.5</ele><time>2026-04-27T12:04:40.043Z</time></trkpt><trkpt lat="33.94958" lon="-6.8546883"><ele>87.33333333333333</ele><time>2026-04-27T12:04:42.043Z</time></trkpt><trkpt lat="33.9495067" lon="-6.854635"><ele>87.16666666666667</ele><time>2026-04-27T12:04:46.043Z</time></trkpt><trkpt lat="33.9494433" lon="-6.8545833"><ele>87.0</ele><time>2026-04-27T12:04:49.042Z</time></trkpt><trkpt lat="33.9493767" lon="-6.8546083"><ele>87.0</ele><time>2026-04-27T12:04:52.042Z</time></trkpt><trkpt lat="33.9493217" lon="-6.85468"><ele>87.0</ele><time>2026-04-27T12:04:55.042Z</time></trkpt><trkpt lat="33.9492717" lon="-6.85477"><ele>87.0</ele><time>2026-04-27T12:04:57.041Z</time></trkpt><trkpt lat="33.9492033" lon="-6.854855"><ele>87.0</ele><time>2026-04-27T12:04:59.042Z</time></trkpt><trkpt lat="33.9491533" lon="-6.8549183"><ele>87.0</ele><time>2026-04-27T12:05:01.042Z</time></trkpt><trkpt lat="33.9490983" lon="-6.85496"><ele>87.0</ele><time>2026-04-27T12:05:03.041Z</time></trkpt><trkpt lat="33.9490467" lon="-6.8550183"><ele>86.8</ele><time>2026-04-27T12:05:05.042Z</time></trkpt><trkpt lat="33.9489767" lon="-6.855115"><ele>86.6</ele><time>2026-04-27T12:05:07.041Z</time></trkpt><trkpt lat="33.9489133" lon="-6.855205"><ele>86.39999999999999</ele><time>2026-04-27T12:05:09.041Z</time></trkpt><trkpt lat="33.94886" lon="-6.8552933"><ele>86.19999999999999</ele><time>2026-04-27T12:05:11.042Z</time></trkpt><trkpt lat="33.9488083" lon="-6.8553833"><ele>86.0</ele><time>2026-04-27T12:05:14.042Z</time></trkpt><trkpt lat="33.94873" lon="-6.855395"><ele>86.0</ele><time>2026-04-27T12:05:18.042Z</time></trkpt><trkpt lat="33.9486467" lon="-6.8553733"><ele>86.0</ele><time>2026-04-27T12:05:21.042Z</time></trkpt><trkpt lat="33.9485567" lon="-6.8553767"><ele>86.0</ele><time>2026-04-27T12:05:24.042Z</time></trkpt><trkpt lat="33.9485033" lon="-6.855325"><ele>86.0</ele><time>2026-04-27T12:05:27.041Z</time></trkpt><trkpt lat="33.9484467" lon="-6.8552833"><ele>86.0</ele><time>2026-04-27T12:05:30.042Z</time></trkpt><trkpt lat="33.948375" lon="-6.8553083"><ele>86.0</ele><time>2026-04-27T12:05:33.042Z</time></trkpt><trkpt lat="33.9483067" lon="-6.85531"><ele>86.0</ele><time>2026-04-27T12:05:36.042Z</time></trkpt><trkpt lat="33.9483083" lon="-6.8552283"><ele>86.0</ele><time>2026-04-27T12:05:39.042Z</time></trkpt><trkpt lat="33.9483917" lon="-6.855235"><ele>86.0</ele><time>2026-04-27T12:05:42.042Z</time></trkpt><trkpt lat="33.94846" lon="-6.8552917"><ele>86.0</ele><time>2026-04-27T12:05:44.041Z</time></trkpt><trkpt lat="33.9485117" lon="-6.8553433"><ele>86.0</ele><time>2026-04-27T12:05:46.042Z</time></trkpt><trkpt lat="33.94858" lon="-6.8553883"><ele>86.0</ele><time>2026-04-27T12:05:49.042Z</time></trkpt><trkpt lat="33.9486717" lon="-6.8553917"><ele>85.83333333333334</ele><time>2026-04-27T12:05:52.042Z</time></trkpt><trkpt lat="33.948755" lon="-6.8554217"><ele>85.66666666666667</ele><time>2026-04-27T12:05:55.042Z</time></trkpt><trkpt lat="33.9487467" lon="-6.8554983"><ele>85.5</ele><time>2026-04-27T12:05:58.042Z</time></trkpt><trkpt lat="33.9486767" lon="-6.8555867"><ele>85.33333333333333</ele><time>2026-04-27T12:06:00.042Z</time></trkpt><trkpt lat="33.9486283" lon="-6.8556517"><ele>85.16666666666666</ele><time>2026-04-27T12:06:01.042Z</time></trkpt><trkpt lat="33.94857" lon="-6.8557183"><ele>85.0</ele><time>2026-04-27T12:06:02.042Z</time></trkpt><trkpt lat="33.948525" lon="-6.8557833"><ele>85.0</ele><time>2026-04-27T12:06:03.042Z</time></trkpt><trkpt lat="33.9484667" lon="-6.8558817"><ele>85.0</ele><time>2026-04-27T12:06:05.042Z</time></trkpt><trkpt lat="33.9484167" lon="-6.8559683"><ele>85.0</ele><time>2026-04-27T12:06:07.041Z</time></trkpt><trkpt lat="33.9483717" lon="-6.8560367"><ele>85.0</ele><time>2026-04-27T12:06:09.042Z</time></trkpt><trkpt lat="33.94832" lon="-6.8561033"><ele>85.0</ele><time>2026-04-27T12:06:12.042Z</time></trkpt><trkpt lat="33.9482767" lon="-6.8561733"><ele>85.0</ele><time>2026-04-27T12:06:14.042Z</time></trkpt><trkpt lat="33.9482133" lon="-6.85626"><ele>85.2</ele><time>2026-04-27T12:06:16.042Z</time></trkpt><trkpt lat="33.9481383" lon="-6.8563583"><ele>85.4</ele><time>2026-04-27T12:06:18.042Z</time></trkpt><trkpt lat="33.9480717" lon="-6.8564517"><ele>85.6</ele><time>2026-04-27T12:06:20.042Z</time></trkpt><trkpt lat="33.9480133" lon="-6.8565183"><ele>85.8</ele><time>2026-04-27T12:06:22.042Z</time></trkpt><trkpt lat="33.94795" lon="-6.8565883"><ele>86.0</ele><time>2026-04-27T12:06:24.042Z</time></trkpt><trkpt lat="33.94788" lon="-6.8566483"><ele>86.0</ele><time>2026-04-27T12:06:26.042Z</time></trkpt><trkpt lat="33.94783" lon="-6.8567367"><ele>86.0</ele><time>2026-04-27T12:06:29.042Z</time></trkpt><trkpt lat="33.9477833" lon="-6.8568133"><ele>86.0</ele><time>2026-04-27T12:06:31.042Z</time></trkpt><trkpt lat="33.9477167" lon="-6.8568967"><ele>86.0</ele><time>2026-04-27T12:06:33.042Z</time></trkpt><trkpt lat="33.9476733" lon="-6.8569517"><ele>86.0</ele><time>2026-04-27T12:06:34.042Z</time></trkpt><trkpt lat="33.9475933" lon="-6.8570417"><ele>86.0</ele><time>2026-04-27T12:06:36.042Z</time></trkpt><trkpt lat="33.9475217" lon="-6.85713"><ele>86.0</ele><time>2026-04-27T12:06:38.042Z</time></trkpt><trkpt lat="33.9474467" lon="-6.8572083"><ele>86.0</ele><time>2026-04-27T12:06:40.042Z</time></trkpt><trkpt lat="33.9473817" lon="-6.8572783"><ele>86.0</ele><time>2026-04-27T12:06:42.042Z</time></trkpt><trkpt lat="33.9473383" lon="-6.8573417"><ele>86.0</ele><time>2026-04-27T12:06:44.042Z</time></trkpt><trkpt lat="33.9472733" lon="-6.857355"><ele>86.0</ele><time>2026-04-27T12:06:47.042Z</time></trkpt><trkpt lat="33.9472267" lon="-6.8572883"><ele>86.0</ele><time>2026-04-27T12:06:49.042Z</time></trkpt><trkpt lat="33.947145" lon="-6.8571667"><ele>86.0</ele><time>2026-04-27T12:06:51.042Z</time></trkpt><trkpt lat="33.9471" lon="-6.857095"><ele>86.0</ele><time>2026-04-27T12:06:52.042Z</time></trkpt><trkpt lat="33.9470583" lon="-6.85703"><ele>86.0</ele><time>2026-04-27T12:06:53.042Z</time></trkpt><trkpt lat="33.9469933" lon="-6.8569133"><ele>86.0</ele><time>2026-04-27T12:06:55.042Z</time></trkpt><trkpt lat="33.9468917" lon="-6.856805"><ele>86.0</ele><time>2026-04-27T12:06:57.042Z</time></trkpt><trkpt lat="33.94684" lon="-6.8567417"><ele>86.00000000000001</ele><time>2026-04-27T12:06:58.042Z</time></trkpt><trkpt lat="33.9467983" lon="-6.8566633"><ele>86.0</ele><time>2026-04-27T12:06:59.042Z</time></trkpt><trkpt lat="33.9467517" lon="-6.85659"><ele>86.0</ele><time>2026-04-27T12:07:00.042Z</time></trkpt><trkpt lat="33.9467167" lon="-6.8565183"><ele>86.0</ele><time>2026-04-27T12:07:01.042Z</time></trkpt><trkpt lat="33.9466633" lon="-6.8564583"><ele>86.0</ele><time>2026-04-27T12:07:02.042Z</time></trkpt><trkpt lat="33.9466167" lon="-6.8563967"><ele>86.00000000000001</ele><time>2026-04-27T12:07:03.042Z</time></trkpt><trkpt lat="33.94657" lon="-6.8563367"><ele>86.0</ele><time>2026-04-27T12:07:04.041Z</time></trkpt><trkpt lat="33.9464867" lon="-6.85623"><ele>86.0</ele><time>2026-04-27T12:07:06.042Z</time></trkpt><trkpt lat="33.946405" lon="-6.8561167"><ele>86.0</ele><time>2026-04-27T12:07:08.041Z</time></trkpt><trkpt lat="33.94634" lon="-6.8560133"><ele>86.0</ele><time>2026-04-27T12:07:10.042Z</time></trkpt><trkpt lat="33.9462617" lon="-6.855915"><ele>86.0</ele><time>2026-04-27T12:07:12.042Z</time></trkpt><trkpt lat="33.9462183" lon="-6.85586"><ele>86.0</ele><time>2026-04-27T12:07:13.042Z</time></trkpt><trkpt lat="33.94617" lon="-6.855795"><ele>86.0</ele><time>2026-04-27T12:07:14.042Z</time></trkpt><trkpt lat="33.9461217" lon="-6.8557317"><ele>86.0</ele><time>2026-04-27T12:07:15.042Z</time></trkpt><trkpt lat="33.946065" lon="-6.8556767"><ele>86.0</ele><time>2026-04-27T12:07:16.042Z</time></trkpt><trkpt lat="33.9460083" lon="-6.8556333"><ele>86.0</ele><time>2026-04-27T12:07:17.042Z</time></trkpt><trkpt lat="33.9459267" lon="-6.8555433"><ele>86.0</ele><time>2026-04-27T12:07:19.041Z</time></trkpt><trkpt lat="33.9458417" lon="-6.8554633"><ele>86.0</ele><time>2026-04-27T12:07:21.042Z</time></trkpt><trkpt lat="33.945755" lon="-6.8553783"><ele>86.0</ele><time>2026-04-27T12:07:23.042Z</time></trkpt><trkpt lat="33.9456767" lon="-6.8552833"><ele>86.0</ele><time>2026-04-27T12:07:25.042Z</time></trkpt><trkpt lat="33.9456083" lon="-6.8551817"><ele>86.0</ele><time>2026-04-27T12:07:27.042Z</time></trkpt><trkpt lat="33.9455317" lon="-6.8550783"><ele>86.0</ele><time>2026-04-27T12:07:29.042Z</time></trkpt><trkpt lat="33.9454383" lon="-6.8549733"><ele>86.0</ele><time>2026-04-27T12:07:31.042Z</time></trkpt><trkpt lat="33.9453633" lon="-6.8548817"><ele>86.0</ele><time>2026-04-27T12:07:33.042Z</time></trkpt><trkpt lat="33.9453067" lon="-6.8548183"><ele>86.0</ele><time>2026-04-27T12:07:35.042Z</time></trkpt><trkpt lat="33.9452517" lon="-6.854735"><ele>86.0</ele><time>2026-04-27T12:07:54.042Z</time></trkpt><trkpt lat="33.9451867" lon="-6.8547033"><ele>86.0</ele><time>2026-04-27T12:07:56.042Z</time></trkpt><trkpt lat="33.9451167" lon="-6.8546683"><ele>86.0</ele><time>2026-04-27T12:07:58.042Z</time></trkpt><trkpt lat="33.9450683" lon="-6.854615"><ele>85.8</ele><time>2026-04-27T12:08:00.042Z</time></trkpt><trkpt lat="33.9450367" lon="-6.85451"><ele>85.6</ele><time>2026-04-27T12:08:02.042Z</time></trkpt><trkpt lat="33.944965" lon="-6.8543717"><ele>85.4</ele><time>2026-04-27T12:08:04.042Z</time></trkpt><trkpt lat="33.94491" lon="-6.8542883"><ele>85.2</ele><time>2026-04-27T12:08:05.041Z</time></trkpt><trkpt lat="33.9448517" lon="-6.8541933"><ele>85.0</ele><time>2026-04-27T12:08:06.042Z</time></trkpt><trkpt lat="33.9447883" lon="-6.8541117"><ele>85.0</ele><time>2026-04-27T12:08:07.042Z</time></trkpt><trkpt lat="33.9447217" lon="-6.854025"><ele>85.0</ele><time>2026-04-27T12:08:08.042Z</time></trkpt><trkpt lat="33.9446483" lon="-6.85393"><ele>85.0</ele><time>2026-04-27T12:08:09.042Z</time></trkpt><trkpt lat="33.9445717" lon="-6.8538317"><ele>85.0</ele><time>2026-04-27T12:08:10.042Z</time></trkpt><trkpt lat="33.9445" lon="-6.8537383"><ele>85.0</ele><time>2026-04-27T12:08:11.042Z</time></trkpt><trkpt lat="33.9444183" lon="-6.8536567"><ele>85.0</ele><time>2026-04-27T12:08:12.042Z</time></trkpt><trkpt lat="33.9443467" lon="-6.853585"><ele>85.0</ele><time>2026-04-27T12:08:13.042Z</time></trkpt><trkpt lat="33.9442767" lon="-6.8535233"><ele>85.0</ele><time>2026-04-27T12:08:14.042Z</time></trkpt><trkpt lat="33.9442167" lon="-6.85346"><ele>85.0</ele><time>2026-04-27T12:08:15.042Z</time></trkpt><trkpt lat="33.94416" lon="-6.8533883"><ele>85.0</ele><time>2026-04-27T12:08:16.042Z</time></trkpt><trkpt lat="33.9441033" lon="-6.85331"><ele>85.0</ele><time>2026-04-27T12:08:17.042Z</time></trkpt><trkpt lat="33.9440483" lon="-6.853235"><ele>85.33333333333333</ele><time>2026-04-27T12:08:18.042Z</time></trkpt><trkpt lat="33.9439933" lon="-6.8531533"><ele>85.66666666666666</ele><time>2026-04-27T12:08:19.042Z</time></trkpt><trkpt lat="33.94394" lon="-6.85308"><ele>86.0</ele><time>2026-04-27T12:08:20.042Z</time></trkpt><trkpt lat="33.9438883" lon="-6.8530083"><ele>86.33333333333333</ele><time>2026-04-27T12:08:21.042Z</time></trkpt><trkpt lat="33.9438333" lon="-6.852935"><ele>86.66666666666667</ele><time>2026-04-27T12:08:22.042Z</time></trkpt><trkpt lat="33.9437783" lon="-6.8528633"><ele>87.0</ele><time>2026-04-27T12:08:23.042Z</time></trkpt><trkpt lat="33.9437233" lon="-6.85279"><ele>87.0</ele><time>2026-04-27T12:08:24.042Z</time></trkpt><trkpt lat="33.9436733" lon="-6.85272"><ele>87.0</ele><time>2026-04-27T12:08:25.042Z</time></trkpt><trkpt lat="33.943625" lon="-6.8526533"><ele>87.0</ele><time>2026-04-27T12:08:26.041Z</time></trkpt><trkpt lat="33.943585" lon="-6.8525933"><ele>87.0</ele><time>2026-04-27T12:08:27.042Z</time></trkpt><trkpt lat="33.943545" lon="-6.852525"><ele>87.0</ele><time>2026-04-27T12:08:28.042Z</time></trkpt><trkpt lat="33.9435" lon="-6.8524567"><ele>87.0</ele><time>2026-04-27T12:08:29.042Z</time></trkpt><trkpt lat="33.94346" lon="-6.852395"><ele>87.0</ele><time>2026-04-27T12:08:30.042Z</time></trkpt><trkpt lat="33.9434133" lon="-6.85233"><ele>87.28571428571428</ele><time>2026-04-27T12:08:31.042Z</time></trkpt><trkpt lat="33.9433533" lon="-6.8522567"><ele>87.57142857142857</ele><time>2026-04-27T12:08:32.042Z</time></trkpt><trkpt lat="33.9433" lon="-6.8522033"><ele>87.85714285714286</ele><time>2026-04-27T12:08:33.042Z</time></trkpt><trkpt lat="33.9432483" lon="-6.8521483"><ele>88.14285714285714</ele><time>2026-04-27T12:08:34.042Z</time></trkpt><trkpt lat="33.9432" lon="-6.8520833"><ele>88.42857142857143</ele><time>2026-04-27T12:08:35.042Z</time></trkpt><trkpt lat="33.9431567" lon="-6.8520083"><ele>88.71428571428571</ele><time>2026-04-27T12:08:36.042Z</time></trkpt><trkpt lat="33.9431167" lon="-6.851935"><ele>89.0</ele><time>2026-04-27T12:08:37.042Z</time></trkpt><trkpt lat="33.9430667" lon="-6.851865"><ele>89.0</ele><time>2026-04-27T12:08:38.041Z</time></trkpt><trkpt lat="33.9430133" lon="-6.8517967"><ele>89.0</ele><time>2026-04-27T12:08:39.042Z</time></trkpt><trkpt lat="33.9429617" lon="-6.8517233"><ele>89.0</ele><time>2026-04-27T12:08:40.042Z</time></trkpt><trkpt lat="33.94291" lon="-6.8516567"><ele>89.0</ele><time>2026-04-27T12:08:41.042Z</time></trkpt><trkpt lat="33.942855" lon="-6.8516033"><ele>89.0</ele><time>2026-04-27T12:08:42.042Z</time></trkpt><trkpt lat="33.9428067" lon="-6.8515367"><ele>89.0</ele><time>2026-04-27T12:08:43.042Z</time></trkpt><trkpt lat="33.9427517" lon="-6.8514717"><ele>88.85714285714285</ele><time>2026-04-27T12:08:44.042Z</time></trkpt><trkpt lat="33.9426917" lon="-6.8514017"><ele>88.71428571428571</ele><time>2026-04-27T12:08:45.042Z</time></trkpt><trkpt lat="33.94264" lon="-6.851325"><ele>88.57142857142857</ele><time>2026-04-27T12:08:46.042Z</time></trkpt><trkpt lat="33.9425933" lon="-6.8512633"><ele>88.42857142857142</ele><time>2026-04-27T12:08:47.042Z</time></trkpt><trkpt lat="33.94254" lon="-6.85121"><ele>88.28571428571428</ele><time>2026-04-27T12:08:48.042Z</time></trkpt><trkpt lat="33.9424833" lon="-6.8511583"><ele>88.14285714285714</ele><time>2026-04-27T12:08:49.042Z</time></trkpt><trkpt lat="33.942435" lon="-6.8510917"><ele>88.0</ele><time>2026-04-27T12:08:50.042Z</time></trkpt><trkpt lat="33.9423833" lon="-6.851015"><ele>88.28571428571429</ele><time>2026-04-27T12:08:51.042Z</time></trkpt><trkpt lat="33.9423383" lon="-6.850945"><ele>88.57142857142857</ele><time>2026-04-27T12:08:52.042Z</time></trkpt><trkpt lat="33.9422917" lon="-6.850875"><ele>88.85714285714286</ele><time>2026-04-27T12:08:53.042Z</time></trkpt><trkpt lat="33.9422467" lon="-6.85081"><ele>89.14285714285714</ele><time>2026-04-27T12:08:54.042Z</time></trkpt><trkpt lat="33.942195" lon="-6.850755"><ele>89.42857142857143</ele><time>2026-04-27T12:08:55.042Z</time></trkpt><trkpt lat="33.9421433" lon="-6.8507"><ele>89.71428571428571</ele><time>2026-04-27T12:08:56.042Z</time></trkpt><trkpt lat="33.9420917" lon="-6.85063"><ele>90.0</ele><time>2026-04-27T12:08:57.042Z</time></trkpt><trkpt lat="33.9420417" lon="-6.850555"><ele>90.0</ele><time>2026-04-27T12:08:58.042Z</time></trkpt><trkpt lat="33.94199" lon="-6.8504883"><ele>90.0</ele><time>2026-04-27T12:08:59.042Z</time></trkpt><trkpt lat="33.941935" lon="-6.8504267"><ele>90.0</ele><time>2026-04-27T12:09:00.042Z</time></trkpt><trkpt lat="33.94188" lon="-6.8503633"><ele>90.0</ele><time>2026-04-27T12:09:01.042Z</time></trkpt><trkpt lat="33.94183" lon="-6.8502917"><ele>90.0</ele><time>2026-04-27T12:09:02.042Z</time></trkpt><trkpt lat="33.94177" lon="-6.8502217"><ele>90.0</ele><time>2026-04-27T12:09:03.041Z</time></trkpt><trkpt lat="33.9417083" lon="-6.85015"><ele>90.0</ele><time>2026-04-27T12:09:04.042Z</time></trkpt><trkpt lat="33.94165" lon="-6.8500783"><ele>90.0</ele><time>2026-04-27T12:09:05.042Z</time></trkpt><trkpt lat="33.9415883" lon="-6.850005"><ele>90.0</ele><time>2026-04-27T12:09:06.042Z</time></trkpt><trkpt lat="33.94153" lon="-6.8499333"><ele>90.0</ele><time>2026-04-27T12:09:07.042Z</time></trkpt><trkpt lat="33.9414767" lon="-6.849865"><ele>90.0</ele><time>2026-04-27T12:09:08.042Z</time></trkpt><trkpt lat="33.9414333" lon="-6.8497917"><ele>90.0</ele><time>2026-04-27T12:09:09.042Z</time></trkpt><trkpt lat="33.9413833" lon="-6.8497283"><ele>90.0</ele><time>2026-04-27T12:09:10.042Z</time></trkpt><trkpt lat="33.9413033" lon="-6.8496117"><ele>90.0</ele><time>2026-04-27T12:09:12.042Z</time></trkpt><trkpt lat="33.9412117" lon="-6.84954"><ele>90.0</ele><time>2026-04-27T12:09:14.042Z</time></trkpt><trkpt lat="33.94114" lon="-6.8494867"><ele>90.0</ele><time>2026-04-27T12:09:16.042Z</time></trkpt><trkpt lat="33.9410883" lon="-6.84943"><ele>90.0</ele><time>2026-04-27T12:09:18.042Z</time></trkpt><trkpt lat="33.9410083" lon="-6.849425"><ele>90.0</ele><time>2026-04-27T12:09:21.042Z</time></trkpt><trkpt lat="33.940955" lon="-6.8494933"><ele>90.0</ele><time>2026-04-27T12:09:23.042Z</time></trkpt><trkpt lat="33.9409217" lon="-6.8495717"><ele>90.0</ele><time>2026-04-27T12:09:24.042Z</time></trkpt><trkpt lat="33.9408917" lon="-6.84967"><ele>90.0</ele><time>2026-04-27T12:09:25.041Z</time></trkpt><trkpt lat="33.9408483" lon="-6.8497667"><ele>90.0</ele><time>2026-04-27T12:09:26.042Z</time></trkpt><trkpt lat="33.940815" lon="-6.8498567"><ele>90.0</ele><time>2026-04-27T12:09:27.042Z</time></trkpt><trkpt lat="33.94079" lon="-6.8499383"><ele>90.16666666666667</ele><time>2026-04-27T12:09:28.042Z</time></trkpt><trkpt lat="33.9407683" lon="-6.8500133"><ele>90.33333333333333</ele><time>2026-04-27T12:09:29.042Z</time></trkpt><trkpt lat="33.9407367" lon="-6.8501283"><ele>90.5</ele><time>2026-04-27T12:09:31.042Z</time></trkpt><trkpt lat="33.9407083" lon="-6.850205"><ele>90.66666666666666</ele><time>2026-04-27T12:09:33.042Z</time></trkpt><trkpt lat="33.9406283" lon="-6.850205"><ele>90.83333333333333</ele><time>2026-04-27T12:09:36.042Z</time></trkpt><trkpt lat="33.9405233" lon="-6.8501383"><ele>91.0</ele><time>2026-04-27T12:09:38.042Z</time></trkpt><trkpt lat="33.9404367" lon="-6.8500967"><ele>91.25</ele><time>2026-04-27T12:09:39.042Z</time></trkpt><trkpt lat="33.9403383" lon="-6.8500533"><ele>91.5</ele><time>2026-04-27T12:09:40.042Z</time></trkpt><trkpt lat="33.9402233" lon="-6.8499967"><ele>91.75</ele><time>2026-04-27T12:09:41.042Z</time></trkpt><trkpt lat="33.9401117" lon="-6.8499433"><ele>92.0</ele><time>2026-04-27T12:09:42.042Z</time></trkpt><trkpt lat="33.9400033" lon="-6.8498883"><ele>92.5</ele><time>2026-04-27T12:09:43.042Z</time></trkpt><trkpt lat="33.939895" lon="-6.8498367"><ele>93.0</ele><time>2026-04-27T12:09:44.042Z</time></trkpt><trkpt lat="33.9397867" lon="-6.8497833"><ele>93.5</ele><time>2026-04-27T12:09:45.042Z</time></trkpt><trkpt lat="33.93968" lon="-6.849725"><ele>94.0</ele><time>2026-04-27T12:09:46.042Z</time></trkpt><trkpt lat="33.9395717" lon="-6.8496683"><ele>94.0</ele><time>2026-04-27T12:09:47.041Z</time></trkpt><trkpt lat="33.9394617" lon="-6.84961"><ele>94.0</ele><time>2026-04-27T12:09:48.04Z</time></trkpt><trkpt lat="33.9393433" lon="-6.8495517"><ele>94.0</ele><time>2026-04-27T12:09:49.041Z</time></trkpt><trkpt lat="33.9392267" lon="-6.8494933"><ele>94.0</ele><time>2026-04-27T12:09:50.04Z</time></trkpt><trkpt lat="33.9391183" lon="-6.8494367"><ele>93.5</ele><time>2026-04-27T12:09:51.04Z</time></trkpt><trkpt lat="33.9390083" lon="-6.84938"><ele>93.0</ele><time>2026-04-27T12:09:52.041Z</time></trkpt><trkpt lat="33.9389" lon="-6.8493217"><ele>92.5</ele><time>2026-04-27T12:09:53.041Z</time></trkpt><trkpt lat="33.9387983" lon="-6.84927"><ele>92.0</ele><time>2026-04-27T12:09:54.041Z</time></trkpt><trkpt lat="33.9386967" lon="-6.8492167"><ele>92.0</ele><time>2026-04-27T12:09:55.041Z</time></trkpt><trkpt lat="33.9385983" lon="-6.84917"><ele>92.0</ele><time>2026-04-27T12:09:56.041Z</time></trkpt><trkpt lat="33.9384983" lon="-6.84912"><ele>92.0</ele><time>2026-04-27T12:09:57.041Z</time></trkpt><trkpt lat="33.93838" lon="-6.8490733"><ele>92.0</ele><time>2026-04-27T12:09:58.041Z</time></trkpt><trkpt lat="33.9382717" lon="-6.8490233"><ele>92.0</ele><time>2026-04-27T12:09:59.041Z</time></trkpt><trkpt lat="33.9381717" lon="-6.84897"><ele>92.0</ele><time>2026-04-27T12:10:00.041Z</time></trkpt><trkpt lat="33.9380667" lon="-6.8489167"><ele>92.0</ele><time>2026-04-27T12:10:01.041Z</time></trkpt><trkpt lat="33.9379667" lon="-6.8488633"><ele>92.0</ele><time>2026-04-27T12:10:02.041Z</time></trkpt><trkpt lat="33.9378583" lon="-6.8488083"><ele>92.0</ele><time>2026-04-27T12:10:03.041Z</time></trkpt><trkpt lat="33.93775" lon="-6.8487417"><ele>92.0</ele><time>2026-04-27T12:10:04.041Z</time></trkpt><trkpt lat="33.9376433" lon="-6.8486867"><ele>92.0</ele><time>2026-04-27T12:10:05.041Z</time></trkpt><trkpt lat="33.9375317" lon="-6.84863"><ele>92.0</ele><time>2026-04-27T12:10:06.041Z</time></trkpt><trkpt lat="33.93742" lon="-6.84857"><ele>92.25</ele><time>2026-04-27T12:10:07.04Z</time></trkpt><trkpt lat="33.9373067" lon="-6.8485167"><ele>92.5</ele><time>2026-04-27T12:10:08.041Z</time></trkpt><trkpt lat="33.9371967" lon="-6.84846"><ele>92.75</ele><time>2026-04-27T12:10:09.041Z</time></trkpt><trkpt lat="33.9370817" lon="-6.8484117"><ele>93.0</ele><time>2026-04-27T12:10:10.041Z</time></trkpt><trkpt lat="33.936975" lon="-6.84836"><ele>93.2</ele><time>2026-04-27T12:10:11.041Z</time></trkpt><trkpt lat="33.936875" lon="-6.84832"><ele>93.4</ele><time>2026-04-27T12:10:12.041Z</time></trkpt><trkpt lat="33.9367783" lon="-6.8482867"><ele>93.60000000000001</ele><time>2026-04-27T12:10:13.041Z</time></trkpt><trkpt lat="33.9366883" lon="-6.8482483"><ele>93.80000000000001</ele><time>2026-04-27T12:10:14.041Z</time></trkpt><trkpt lat="33.936605" lon="-6.848215"><ele>94.0</ele><time>2026-04-27T12:10:15.041Z</time></trkpt><trkpt lat="33.936535" lon="-6.84818"><ele>94.0</ele><time>2026-04-27T12:10:16.041Z</time></trkpt><trkpt lat="33.9364533" lon="-6.84815"><ele>94.0</ele><time>2026-04-27T12:10:17.041Z</time></trkpt><trkpt lat="33.9363733" lon="-6.84812"><ele>94.0</ele><time>2026-04-27T12:10:18.04Z</time></trkpt><trkpt lat="33.9362933" lon="-6.8480917"><ele>94.0</ele><time>2026-04-27T12:10:19.041Z</time></trkpt><trkpt lat="33.9362133" lon="-6.8480583"><ele>94.0</ele><time>2026-04-27T12:10:20.041Z</time></trkpt><trkpt lat="33.9361367" lon="-6.8480283"><ele>94.0</ele><time>2026-04-27T12:10:21.041Z</time></trkpt><trkpt lat="33.9360767" lon="-6.8479983"><ele>94.0</ele><time>2026-04-27T12:10:22.041Z</time></trkpt><trkpt lat="33.935975" lon="-6.8479433"><ele>94.0</ele><time>2026-04-27T12:10:24.041Z</time></trkpt><trkpt lat="33.9359" lon="-6.8479067"><ele>94.0</ele><time>2026-04-27T12:10:26.041Z</time></trkpt><trkpt lat="33.935835" lon="-6.847875"><ele>94.0</ele><time>2026-04-27T12:10:29.041Z</time></trkpt><trkpt lat="33.93577" lon="-6.847925"><ele>94.0</ele><time>2026-04-27T12:12:16.041Z</time></trkpt><trkpt lat="33.93582" lon="-6.847975"><ele>94.0</ele><time>2026-04-27T12:12:22.041Z</time></trkpt><trkpt lat="33.9358783" lon="-6.8479067"><ele>94.0</ele><time>2026-04-27T12:12:25.041Z</time></trkpt><trkpt lat="33.935975" lon="-6.847905"><ele>94.0</ele><time>2026-04-27T12:12:27.041Z</time></trkpt><trkpt lat="33.9360483" lon="-6.8479467"><ele>94.0</ele><time>2026-04-27T12:12:28.041Z</time></trkpt><trkpt lat="33.93614" lon="-6.8480033"><ele>94.0</ele><time>2026-04-27T12:12:29.041Z</time></trkpt><trkpt lat="33.936245" lon="-6.8480467"><ele>94.0</ele><time>2026-04-27T12:12:30.041Z</time></trkpt><trkpt lat="33.93636" lon="-6.848095"><ele>94.0</ele><time>2026-04-27T12:12:31.041Z</time></trkpt><trkpt lat="33.9364783" lon="-6.848145"><ele>94.0</ele><time>2026-04-27T12:12:32.04Z</time></trkpt><trkpt lat="33.936595" lon="-6.848185"><ele>94.0</ele><time>2026-04-27T12:12:33.041Z</time></trkpt><trkpt lat="33.9367133" lon="-6.8482283"><ele>94.0</ele><time>2026-04-27T12:12:34.041Z</time></trkpt><trkpt lat="33.9368333" lon="-6.84828"><ele>94.0</ele><time>2026-04-27T12:12:35.041Z</time></trkpt><trkpt lat="33.93696" lon="-6.8483367"><ele>94.0</ele><time>2026-04-27T12:12:36.041Z</time></trkpt><trkpt lat="33.937095" lon="-6.8484"><ele>94.0</ele><time>2026-04-27T12:12:37.041Z</time></trkpt><trkpt lat="33.9372283" lon="-6.848465"><ele>94.0</ele><time>2026-04-27T12:12:38.041Z</time></trkpt><trkpt lat="33.937355" lon="-6.84853"><ele>93.75</ele><time>2026-04-27T12:12:39.041Z</time></trkpt><trkpt lat="33.9374767" lon="-6.8485933"><ele>93.5</ele><time>2026-04-27T12:12:40.041Z</time></trkpt><trkpt lat="33.9375883" lon="-6.848655"><ele>93.25</ele><time>2026-04-27T12:12:41.041Z</time></trkpt><trkpt lat="33.9376967" lon="-6.8487067"><ele>93.0</ele><time>2026-04-27T12:12:42.041Z</time></trkpt><trkpt lat="33.9378033" lon="-6.8487583"><ele>92.75</ele><time>2026-04-27T12:12:43.041Z</time></trkpt><trkpt lat="33.93792" lon="-6.84881"><ele>92.5</ele><time>2026-04-27T12:12:44.041Z</time></trkpt><trkpt lat="33.93804" lon="-6.8488767"><ele>92.25</ele><time>2026-04-27T12:12:45.041Z</time></trkpt><trkpt lat="33.9381733" lon="-6.8489433"><ele>92.0</ele><time>2026-04-27T12:12:46.041Z</time></trkpt><trkpt lat="33.9383" lon="-6.84901"><ele>92.0</ele><time>2026-04-27T12:12:47.041Z</time></trkpt><trkpt lat="33.93842" lon="-6.849085"><ele>92.0</ele><time>2026-04-27T12:12:48.04Z</time></trkpt><trkpt lat="33.9385483" lon="-6.8491483"><ele>92.0</ele><time>2026-04-27T12:12:49.041Z</time></trkpt><trkpt lat="33.93867" lon="-6.8492117"><ele>92.0</ele><time>2026-04-27T12:12:50.041Z</time></trkpt><trkpt lat="33.9387883" lon="-6.8492683"><ele>91.75</ele><time>2026-04-27T12:12:51.041Z</time></trkpt><trkpt lat="33.938905" lon="-6.84933"><ele>91.5</ele><time>2026-04-27T12:12:52.041Z</time></trkpt><trkpt lat="33.9390283" lon="-6.8493917"><ele>91.25</ele><time>2026-04-27T12:12:53.041Z</time></trkpt><trkpt lat="33.9391483" lon="-6.8494567"><ele>91.0</ele><time>2026-04-27T12:12:54.04Z</time></trkpt><trkpt lat="33.9392633" lon="-6.8495117"><ele>91.6</ele><time>2026-04-27T12:12:55.04Z</time></trkpt><trkpt lat="33.939365" lon="-6.8495633"><ele>92.19999999999999</ele><time>2026-04-27T12:12:56.041Z</time></trkpt><trkpt lat="33.939465" lon="-6.849615"><ele>92.80000000000001</ele><time>2026-04-27T12:12:57.04Z</time></trkpt><trkpt lat="33.9395617" lon="-6.8496633"><ele>93.4</ele><time>2026-04-27T12:12:58.041Z</time></trkpt><trkpt lat="33.939655" lon="-6.849715"><ele>94.0</ele><time>2026-04-27T12:12:59.041Z</time></trkpt><trkpt lat="33.9397583" lon="-6.8497683"><ele>94.0</ele><time>2026-04-27T12:13:00.041Z</time></trkpt><trkpt lat="33.9398683" lon="-6.849815"><ele>94.0</ele><time>2026-04-27T12:13:01.041Z</time></trkpt><trkpt lat="33.9399717" lon="-6.84987"><ele>94.0</ele><time>2026-04-27T12:13:02.041Z</time></trkpt><trkpt lat="33.9400683" lon="-6.8499133"><ele>94.0</ele><time>2026-04-27T12:13:03.041Z</time></trkpt><trkpt lat="33.9401633" lon="-6.8499583"><ele>94.0</ele><time>2026-04-27T12:13:04.041Z</time></trkpt><trkpt lat="33.9402533" lon="-6.8500083"><ele>93.66666666666666</ele><time>2026-04-27T12:13:05.041Z</time></trkpt><trkpt lat="33.9403383" lon="-6.8500567"><ele>93.33333333333333</ele><time>2026-04-27T12:13:06.041Z</time></trkpt><trkpt lat="33.9404167" lon="-6.8501017"><ele>93.0</ele><time>2026-04-27T12:13:07.041Z</time></trkpt><trkpt lat="33.940485" lon="-6.8501367"><ele>92.66666666666667</ele><time>2026-04-27T12:13:08.041Z</time></trkpt><trkpt lat="33.940545" lon="-6.8501667"><ele>92.33333333333334</ele><time>2026-04-27T12:13:09.041Z</time></trkpt><trkpt lat="33.9406283" lon="-6.85021"><ele>92.0</ele><time>2026-04-27T12:13:11.041Z</time></trkpt><trkpt lat="33.9407017" lon="-6.8502267"><ele>92.0</ele><time>2026-04-27T12:13:15.041Z</time></trkpt><trkpt lat="33.9407517" lon="-6.850095"><ele>92.0</ele><time>2026-04-27T12:13:18.041Z</time></trkpt><trkpt lat="33.9407867" lon="-6.8499983"><ele>92.0</ele><time>2026-04-27T12:13:19.041Z</time></trkpt><trkpt lat="33.9408167" lon="-6.8498867"><ele>92.0</ele><time>2026-04-27T12:13:20.04Z</time></trkpt><trkpt lat="33.9408567" lon="-6.849755"><ele>92.0</ele><time>2026-04-27T12:13:21.041Z</time></trkpt><trkpt lat="33.9409" lon="-6.8496283"><ele>91.75</ele><time>2026-04-27T12:13:22.041Z</time></trkpt><trkpt lat="33.9409433" lon="-6.8495133"><ele>91.5</ele><time>2026-04-27T12:13:23.041Z</time></trkpt><trkpt lat="33.9409933" lon="-6.849395"><ele>91.25</ele><time>2026-04-27T12:13:24.041Z</time></trkpt><trkpt lat="33.9410383" lon="-6.8492667"><ele>91.0</ele><time>2026-04-27T12:13:25.04Z</time></trkpt><trkpt lat="33.9410833" lon="-6.84913"><ele>91.0</ele><time>2026-04-27T12:13:26.041Z</time></trkpt><trkpt lat="33.9411267" lon="-6.8489983"><ele>91.0</ele><time>2026-04-27T12:13:27.041Z</time></trkpt><trkpt lat="33.9411667" lon="-6.8488783"><ele>91.0</ele><time>2026-04-27T12:13:28.041Z</time></trkpt><trkpt lat="33.9412133" lon="-6.8487533"><ele>91.0</ele><time>2026-04-27T12:13:29.041Z</time></trkpt><trkpt lat="33.94126" lon="-6.84863"><ele>91.0</ele><time>2026-04-27T12:13:30.041Z</time></trkpt><trkpt lat="33.9413" lon="-6.848515"><ele>91.0</ele><time>2026-04-27T12:13:31.041Z</time></trkpt><trkpt lat="33.9413417" lon="-6.8484067"><ele>91.0</ele><time>2026-04-27T12:13:32.041Z</time></trkpt><trkpt lat="33.9413783" lon="-6.8482933"><ele>91.0</ele><time>2026-04-27T12:13:33.041Z</time></trkpt><trkpt lat="33.9414133" lon="-6.8481817"><ele>91.0</ele><time>2026-04-27T12:13:34.041Z</time></trkpt><trkpt lat="33.94145" lon="-6.848065"><ele>91.4</ele><time>2026-04-27T12:13:35.041Z</time></trkpt><trkpt lat="33.9414917" lon="-6.8479367"><ele>91.8</ele><time>2026-04-27T12:13:36.041Z</time></trkpt><trkpt lat="33.94153" lon="-6.8478167"><ele>92.2</ele><time>2026-04-27T12:13:37.041Z</time></trkpt><trkpt lat="33.941575" lon="-6.8476967"><ele>92.60000000000001</ele><time>2026-04-27T12:13:38.041Z</time></trkpt><trkpt lat="33.9416167" lon="-6.8475833"><ele>93.0</ele><time>2026-04-27T12:13:39.041Z</time></trkpt><trkpt lat="33.9416533" lon="-6.8474717"><ele>93.2</ele><time>2026-04-27T12:13:40.041Z</time></trkpt><trkpt lat="33.9416917" lon="-6.8473617"><ele>93.4</ele><time>2026-04-27T12:13:41.041Z</time></trkpt><trkpt lat="33.9417333" lon="-6.8472483"><ele>93.60000000000001</ele><time>2026-04-27T12:13:42.041Z</time></trkpt><trkpt lat="33.9417817" lon="-6.847135"><ele>93.80000000000001</ele><time>2026-04-27T12:13:43.041Z</time></trkpt><trkpt lat="33.9418183" lon="-6.84701"><ele>94.0</ele><time>2026-04-27T12:13:44.041Z</time></trkpt><trkpt lat="33.9418583" lon="-6.8468933"><ele>93.80000000000001</ele><time>2026-04-27T12:13:45.041Z</time></trkpt><trkpt lat="33.941895" lon="-6.8467867"><ele>93.60000000000001</ele><time>2026-04-27T12:13:46.04Z</time></trkpt><trkpt lat="33.941935" lon="-6.8466867"><ele>93.4</ele><time>2026-04-27T12:13:47.041Z</time></trkpt><trkpt lat="33.9419783" lon="-6.8465967"><ele>93.2</ele><time>2026-04-27T12:13:48.041Z</time></trkpt><trkpt lat="33.9420283" lon="-6.84653"><ele>93.0</ele><time>2026-04-27T12:13:49.04Z</time></trkpt><trkpt lat="33.9421517" lon="-6.8464683"><ele>93.0</ele><time>2026-04-27T12:13:51.041Z</time></trkpt><trkpt lat="33.9422267" lon="-6.8464533"><ele>93.0</ele><time>2026-04-27T12:13:52.041Z</time></trkpt><trkpt lat="33.9423083" lon="-6.84644"><ele>93.0</ele><time>2026-04-27T12:13:53.041Z</time></trkpt><trkpt lat="33.9423967" lon="-6.84644"><ele>93.0</ele><time>2026-04-27T12:13:54.041Z</time></trkpt><trkpt lat="33.9424883" lon="-6.8464533"><ele>93.0</ele><time>2026-04-27T12:13:55.041Z</time></trkpt><trkpt lat="33.9425817" lon="-6.8464783"><ele>93.0</ele><time>2026-04-27T12:13:56.041Z</time></trkpt><trkpt lat="33.9426817" lon="-6.8465233"><ele>92.80000000000001</ele><time>2026-04-27T12:13:57.041Z</time></trkpt><trkpt lat="33.9427883" lon="-6.8465733"><ele>92.6</ele><time>2026-04-27T12:13:58.041Z</time></trkpt><trkpt lat="33.942895" lon="-6.846625"><ele>92.4</ele><time>2026-04-27T12:13:59.041Z</time></trkpt><trkpt lat="33.9429967" lon="-6.8466733"><ele>92.19999999999999</ele><time>2026-04-27T12:14:00.041Z</time></trkpt><trkpt lat="33.9430933" lon="-6.8467083"><ele>92.0</ele><time>2026-04-27T12:14:01.041Z</time></trkpt><trkpt lat="33.9431867" lon="-6.846745"><ele>92.0</ele><time>2026-04-27T12:14:02.041Z</time></trkpt><trkpt lat="33.943285" lon="-6.8467833"><ele>92.0</ele><time>2026-04-27T12:14:03.041Z</time></trkpt><trkpt lat="33.943385" lon="-6.84683"><ele>92.0</ele><time>2026-04-27T12:14:04.041Z</time></trkpt><trkpt lat="33.943495" lon="-6.8468667"><ele>92.0</ele><time>2026-04-27T12:14:05.041Z</time></trkpt><trkpt lat="33.943605" lon="-6.8469033"><ele>92.0</ele><time>2026-04-27T12:14:06.041Z</time></trkpt><trkpt lat="33.9437167" lon="-6.8469383"><ele>92.0</ele><time>2026-04-27T12:14:07.041Z</time></trkpt><trkpt lat="33.9438217" lon="-6.846965"><ele>92.0</ele><time>2026-04-27T12:14:08.041Z</time></trkpt><trkpt lat="33.9439217" lon="-6.8469917"><ele>92.0</ele><time>2026-04-27T12:14:09.041Z</time></trkpt><trkpt lat="33.944025" lon="-6.8470183"><ele>92.0</ele><time>2026-04-27T12:14:10.041Z</time></trkpt><trkpt lat="33.9441233" lon="-6.8470433"><ele>92.0</ele><time>2026-04-27T12:14:11.041Z</time></trkpt><trkpt lat="33.9442217" lon="-6.8470683"><ele>91.39999999999999</ele><time>2026-04-27T12:14:12.041Z</time></trkpt><trkpt lat="33.9443183" lon="-6.8470933"><ele>90.8</ele><time>2026-04-27T12:14:13.041Z</time></trkpt><trkpt lat="33.9444217" lon="-6.8471267"><ele>90.2</ele><time>2026-04-27T12:14:14.041Z</time></trkpt><trkpt lat="33.9445267" lon="-6.84715"><ele>89.6</ele><time>2026-04-27T12:14:15.04Z</time></trkpt><trkpt lat="33.9446367" lon="-6.8471717"><ele>89.0</ele><time>2026-04-27T12:14:16.04Z</time></trkpt><trkpt lat="33.9447533" lon="-6.84718"><ele>89.0</ele><time>2026-04-27T12:14:17.041Z</time></trkpt><trkpt lat="33.9448633" lon="-6.8471883"><ele>89.0</ele><time>2026-04-27T12:14:18.041Z</time></trkpt><trkpt lat="33.944975" lon="-6.847205"><ele>89.0</ele><time>2026-04-27T12:14:19.041Z</time></trkpt><trkpt lat="33.9450783" lon="-6.8472233"><ele>89.0</ele><time>2026-04-27T12:14:20.041Z</time></trkpt><trkpt lat="33.9451617" lon="-6.8472467"><ele>89.0</ele><time>2026-04-27T12:14:21.041Z</time></trkpt><trkpt lat="33.9452283" lon="-6.8472717"><ele>88.80000000000001</ele><time>2026-04-27T12:14:22.041Z</time></trkpt><trkpt lat="33.94533" lon="-6.847345"><ele>88.60000000000001</ele><time>2026-04-27T12:14:24.041Z</time></trkpt><trkpt lat="33.9454067" lon="-6.8474567"><ele>88.4</ele><time>2026-04-27T12:14:26.04Z</time></trkpt><trkpt lat="33.9454667" lon="-6.8475067"><ele>88.2</ele><time>2026-04-27T12:14:27.041Z</time></trkpt><trkpt lat="33.9455533" lon="-6.8475467"><ele>88.0</ele><time>2026-04-27T12:14:28.041Z</time></trkpt><trkpt lat="33.945645" lon="-6.8475783"><ele>88.0</ele><time>2026-04-27T12:14:29.041Z</time></trkpt><trkpt lat="33.9457333" lon="-6.8476017"><ele>88.0</ele><time>2026-04-27T12:14:30.041Z</time></trkpt><trkpt lat="33.9458233" lon="-6.8476233"><ele>88.0</ele><time>2026-04-27T12:14:31.041Z</time></trkpt><trkpt lat="33.9459267" lon="-6.8476467"><ele>88.0</ele><time>2026-04-27T12:14:32.041Z</time></trkpt><trkpt lat="33.9460283" lon="-6.8476733"><ele>88.0</ele><time>2026-04-27T12:14:33.041Z</time></trkpt><trkpt lat="33.9461267" lon="-6.8476967"><ele>87.5</ele><time>2026-04-27T12:14:34.041Z</time></trkpt><trkpt lat="33.9462167" lon="-6.8477217"><ele>87.0</ele><time>2026-04-27T12:14:35.041Z</time></trkpt><trkpt lat="33.9463017" lon="-6.84774"><ele>86.5</ele><time>2026-04-27T12:14:36.041Z</time></trkpt><trkpt lat="33.9463817" lon="-6.8477483"><ele>86.0</ele><time>2026-04-27T12:14:37.04Z</time></trkpt><trkpt lat="33.9464517" lon="-6.8477533"><ele>85.5</ele><time>2026-04-27T12:14:38.041Z</time></trkpt><trkpt lat="33.94653" lon="-6.8477383"><ele>85.0</ele><time>2026-04-27T12:14:40.041Z</time></trkpt><trkpt lat="33.9466417" lon="-6.8477433"><ele>85.0</ele><time>2026-04-27T12:16:16.039Z</time></trkpt><trkpt lat="33.946715" lon="-6.8477267"><ele>85.0</ele><time>2026-04-27T12:16:17.04Z</time></trkpt><trkpt lat="33.94679" lon="-6.8477133"><ele>85.0</ele><time>2026-04-27T12:16:18.04Z</time></trkpt><trkpt lat="33.9468767" lon="-6.8477183"><ele>85.0</ele><time>2026-04-27T12:16:19.04Z</time></trkpt><trkpt lat="33.946965" lon="-6.8477383"><ele>85.0</ele><time>2026-04-27T12:16:20.04Z</time></trkpt><trkpt lat="33.9470583" lon="-6.8477833"><ele>85.0</ele><time>2026-04-27T12:16:21.04Z</time></trkpt><trkpt lat="33.947165" lon="-6.8478383"><ele>85.0</ele><time>2026-04-27T12:16:22.04Z</time></trkpt><trkpt lat="33.9472783" lon="-6.8479"><ele>85.0</ele><time>2026-04-27T12:16:23.04Z</time></trkpt><trkpt lat="33.9473967" lon="-6.8479467"><ele>85.0</ele><time>2026-04-27T12:16:24.039Z</time></trkpt><trkpt lat="33.9475117" lon="-6.8479867"><ele>85.0</ele><time>2026-04-27T12:16:25.04Z</time></trkpt><trkpt lat="33.9476217" lon="-6.8480233"><ele>84.8</ele><time>2026-04-27T12:16:26.04Z</time></trkpt><trkpt lat="33.94773" lon="-6.8480533"><ele>84.6</ele><time>2026-04-27T12:16:27.04Z</time></trkpt><trkpt lat="33.9478367" lon="-6.8480783"><ele>84.4</ele><time>2026-04-27T12:16:28.04Z</time></trkpt><trkpt lat="33.9479333" lon="-6.848105"><ele>84.2</ele><time>2026-04-27T12:16:29.04Z</time></trkpt><trkpt lat="33.9480267" lon="-6.8481333"><ele>84.0</ele><time>2026-04-27T12:16:30.04Z</time></trkpt><trkpt lat="33.9481183" lon="-6.848155"><ele>84.0</ele><time>2026-04-27T12:16:31.04Z</time></trkpt><trkpt lat="33.9482117" lon="-6.8481767"><ele>84.0</ele><time>2026-04-27T12:16:32.04Z</time></trkpt><trkpt lat="33.9483017" lon="-6.8481967"><ele>84.0</ele><time>2026-04-27T12:16:33.04Z</time></trkpt><trkpt lat="33.94839" lon="-6.8482167"><ele>84.0</ele><time>2026-04-27T12:16:34.04Z</time></trkpt><trkpt lat="33.9484817" lon="-6.84824"><ele>84.0</ele><time>2026-04-27T12:16:35.04Z</time></trkpt><trkpt lat="33.9485767" lon="-6.8482583"><ele>84.2</ele><time>2026-04-27T12:16:36.04Z</time></trkpt><trkpt lat="33.9486717" lon="-6.8482767"><ele>84.4</ele><time>2026-04-27T12:16:37.039Z</time></trkpt><trkpt lat="33.9487633" lon="-6.8482967"><ele>84.6</ele><time>2026-04-27T12:16:38.04Z</time></trkpt><trkpt lat="33.94885" lon="-6.8483117"><ele>84.8</ele><time>2026-04-27T12:16:39.04Z</time></trkpt><trkpt lat="33.9489367" lon="-6.8483183"><ele>85.0</ele><time>2026-04-27T12:16:40.04Z</time></trkpt><trkpt lat="33.949025" lon="-6.848305"><ele>85.0</ele><time>2026-04-27T12:16:41.04Z</time></trkpt><trkpt lat="33.94911" lon="-6.848285"><ele>85.0</ele><time>2026-04-27T12:16:42.04Z</time></trkpt><trkpt lat="33.949185" lon="-6.8482717"><ele>85.0</ele><time>2026-04-27T12:16:43.04Z</time></trkpt><trkpt lat="33.9492633" lon="-6.8482833"><ele>85.0</ele><time>2026-04-27T12:16:44.04Z</time></trkpt><trkpt lat="33.94933" lon="-6.8483133"><ele>85.0</ele><time>2026-04-27T12:16:45.04Z</time></trkpt><trkpt lat="33.9494" lon="-6.8483683"><ele>85.0</ele><time>2026-04-27T12:16:46.04Z</time></trkpt><trkpt lat="33.9494783" lon="-6.8484283"><ele>85.2</ele><time>2026-04-27T12:16:47.04Z</time></trkpt><trkpt lat="33.9495667" lon="-6.84848"><ele>85.4</ele><time>2026-04-27T12:16:48.04Z</time></trkpt><trkpt lat="33.94967" lon="-6.84852"><ele>85.6</ele><time>2026-04-27T12:16:49.04Z</time></trkpt><trkpt lat="33.9497817" lon="-6.84856"><ele>85.8</ele><time>2026-04-27T12:16:50.04Z</time></trkpt><trkpt lat="33.949895" lon="-6.848595"><ele>86.0</ele><time>2026-04-27T12:16:51.04Z</time></trkpt><trkpt lat="33.9500233" lon="-6.8486283"><ele>85.5</ele><time>2026-04-27T12:16:52.04Z</time></trkpt><trkpt lat="33.95015" lon="-6.8486633"><ele>85.0</ele><time>2026-04-27T12:16:53.04Z</time></trkpt><trkpt lat="33.9502783" lon="-6.8486967"><ele>84.5</ele><time>2026-04-27T12:16:54.04Z</time></trkpt><trkpt lat="33.95041" lon="-6.848725"><ele>84.0</ele><time>2026-04-27T12:16:55.04Z</time></trkpt><trkpt lat="33.9505333" lon="-6.848755"><ele>84.0</ele><time>2026-04-27T12:16:56.04Z</time></trkpt><trkpt lat="33.9506517" lon="-6.8487833"><ele>84.0</ele><time>2026-04-27T12:16:57.04Z</time></trkpt><trkpt lat="33.9507717" lon="-6.8488133"><ele>84.0</ele><time>2026-04-27T12:16:58.039Z</time></trkpt><trkpt lat="33.9508983" lon="-6.8488433"><ele>84.0</ele><time>2026-04-27T12:16:59.04Z</time></trkpt><trkpt lat="33.9510217" lon="-6.84888"><ele>84.0</ele><time>2026-04-27T12:17:00.04Z</time></trkpt><trkpt lat="33.95115" lon="-6.8489117"><ele>84.0</ele><time>2026-04-27T12:17:01.04Z</time></trkpt><trkpt lat="33.9512783" lon="-6.8489417"><ele>84.0</ele><time>2026-04-27T12:17:02.04Z</time></trkpt><trkpt lat="33.9514083" lon="-6.84897"><ele>84.0</ele><time>2026-04-27T12:17:03.04Z</time></trkpt><trkpt lat="33.9515333" lon="-6.849"><ele>84.0</ele><time>2026-04-27T12:17:04.04Z</time></trkpt><trkpt lat="33.9516533" lon="-6.84903"><ele>84.0</ele><time>2026-04-27T12:17:05.04Z</time></trkpt><trkpt lat="33.9517717" lon="-6.8490583"><ele>84.0</ele><time>2026-04-27T12:17:06.04Z</time></trkpt><trkpt lat="33.95189" lon="-6.849085"><ele>84.0</ele><time>2026-04-27T12:17:07.04Z</time></trkpt><trkpt lat="33.95201" lon="-6.849115"><ele>85.0</ele><time>2026-04-27T12:17:08.04Z</time></trkpt><trkpt lat="33.9521333" lon="-6.8491483"><ele>86.0</ele><time>2026-04-27T12:17:09.04Z</time></trkpt><trkpt lat="33.952255" lon="-6.8491767"><ele>87.0</ele><time>2026-04-27T12:17:10.04Z</time></trkpt><trkpt lat="33.95237" lon="-6.8492067"><ele>88.0</ele><time>2026-04-27T12:17:11.04Z</time></trkpt><trkpt lat="33.9524817" lon="-6.849245"><ele>88.0</ele><time>2026-04-27T12:17:12.039Z</time></trkpt><trkpt lat="33.9525833" lon="-6.84927"><ele>88.0</ele><time>2026-04-27T12:17:13.04Z</time></trkpt><trkpt lat="33.9526833" lon="-6.8492833"><ele>88.0</ele><time>2026-04-27T12:17:14.04Z</time></trkpt><trkpt lat="33.952775" lon="-6.8493017"><ele>88.0</ele><time>2026-04-27T12:17:15.039Z</time></trkpt><trkpt lat="33.9528667" lon="-6.8493233"><ele>88.0</ele><time>2026-04-27T12:17:16.039Z</time></trkpt><trkpt lat="33.9529617" lon="-6.84934"><ele>88.0</ele><time>2026-04-27T12:17:17.04Z</time></trkpt><trkpt lat="33.953055" lon="-6.8493533"><ele>88.0</ele><time>2026-04-27T12:17:18.04Z</time></trkpt><trkpt lat="33.953155" lon="-6.849365"><ele>88.0</ele><time>2026-04-27T12:17:19.04Z</time></trkpt><trkpt lat="33.9532433" lon="-6.8493633"><ele>88.0</ele><time>2026-04-27T12:17:20.04Z</time></trkpt><trkpt lat="33.9533117" lon="-6.849355"><ele>88.0</ele><time>2026-04-27T12:17:21.039Z</time></trkpt><trkpt lat="33.9534033" lon="-6.8493417"><ele>88.0</ele><time>2026-04-27T12:17:23.04Z</time></trkpt><trkpt lat="33.9534967" lon="-6.8493133"><ele>87.5</ele><time>2026-04-27T12:17:30.04Z</time></trkpt><trkpt lat="33.9536017" lon="-6.8492017"><ele>87.0</ele><time>2026-04-27T12:17:32.04Z</time></trkpt><trkpt lat="33.9536533" lon="-6.8490733"><ele>86.5</ele><time>2026-04-27T12:17:33.04Z</time></trkpt><trkpt lat="33.9536983" lon="-6.8489117"><ele>86.0</ele><time>2026-04-27T12:17:34.04Z</time></trkpt><trkpt lat="33.9537417" lon="-6.848745"><ele>86.0</ele><time>2026-04-27T12:17:35.04Z</time></trkpt><trkpt lat="33.9537867" lon="-6.8485667"><ele>86.0</ele><time>2026-04-27T12:17:36.04Z</time></trkpt><trkpt lat="33.9538333" lon="-6.8483733"><ele>86.0</ele><time>2026-04-27T12:17:37.04Z</time></trkpt><trkpt lat="33.9538817" lon="-6.848165"><ele>86.0</ele><time>2026-04-27T12:17:38.04Z</time></trkpt><trkpt lat="33.953925" lon="-6.8479383"><ele>86.0</ele><time>2026-04-27T12:17:39.04Z</time></trkpt><trkpt lat="33.9539717" lon="-6.8477167"><ele>86.0</ele><time>2026-04-27T12:17:40.04Z</time></trkpt><trkpt lat="33.9540133" lon="-6.8475017"><ele>86.0</ele><time>2026-04-27T12:17:41.04Z</time></trkpt><trkpt lat="33.9540533" lon="-6.8472983"><ele>86.0</ele><time>2026-04-27T12:17:42.04Z</time></trkpt><trkpt lat="33.9540933" lon="-6.8470967"><ele>86.0</ele><time>2026-04-27T12:17:43.04Z</time></trkpt><trkpt lat="33.9541283" lon="-6.846895"><ele>86.0</ele><time>2026-04-27T12:17:44.04Z</time></trkpt><trkpt lat="33.954165" lon="-6.8466917"><ele>86.0</ele><time>2026-04-27T12:17:45.04Z</time></trkpt><trkpt lat="33.9542033" lon="-6.8464883"><ele>86.0</ele><time>2026-04-27T12:17:46.04Z</time></trkpt><trkpt lat="33.9542467" lon="-6.8462867"><ele>86.33333333333334</ele><time>2026-04-27T12:17:47.04Z</time></trkpt><trkpt lat="33.9542883" lon="-6.8460917"><ele>86.66666666666667</ele><time>2026-04-27T12:17:48.039Z</time></trkpt><trkpt lat="33.9543267" lon="-6.8459033"><ele>87.0</ele><time>2026-04-27T12:17:49.04Z</time></trkpt><trkpt lat="33.954365" lon="-6.845715"><ele>87.0</ele><time>2026-04-27T12:17:50.04Z</time></trkpt><trkpt lat="33.9544033" lon="-6.845525"><ele>87.0</ele><time>2026-04-27T12:17:51.04Z</time></trkpt><trkpt lat="33.9544417" lon="-6.845335"><ele>87.0</ele><time>2026-04-27T12:17:52.04Z</time></trkpt><trkpt lat="33.9544783" lon="-6.8451417"><ele>86.33333333333333</ele><time>2026-04-27T12:17:53.04Z</time></trkpt><trkpt lat="33.954515" lon="-6.84495"><ele>85.66666666666666</ele><time>2026-04-27T12:17:54.04Z</time></trkpt><trkpt lat="33.95455" lon="-6.8447583"><ele>85.0</ele><time>2026-04-27T12:17:55.04Z</time></trkpt><trkpt lat="33.954585" lon="-6.8445783"><ele>85.0</ele><time>2026-04-27T12:17:56.04Z</time></trkpt><trkpt lat="33.9546183" lon="-6.8444"><ele>85.0</ele><time>2026-04-27T12:17:57.04Z</time></trkpt><trkpt lat="33.9546533" lon="-6.8442233"><ele>85.0</ele><time>2026-04-27T12:17:58.04Z</time></trkpt><trkpt lat="33.9546833" lon="-6.8440467"><ele>85.0</ele><time>2026-04-27T12:17:59.04Z</time></trkpt><trkpt lat="33.9547183" lon="-6.8438733"><ele>85.0</ele><time>2026-04-27T12:18:00.04Z</time></trkpt><trkpt lat="33.9547467" lon="-6.8436967"><ele>85.0</ele><time>2026-04-27T12:18:01.04Z</time></trkpt><trkpt lat="33.9547767" lon="-6.84352"><ele>85.0</ele><time>2026-04-27T12:18:02.039Z</time></trkpt><trkpt lat="33.9548083" lon="-6.8433417"><ele>85.33333333333333</ele><time>2026-04-27T12:18:03.04Z</time></trkpt><trkpt lat="33.9548433" lon="-6.8431633"><ele>85.66666666666667</ele><time>2026-04-27T12:18:04.04Z</time></trkpt><trkpt lat="33.95488" lon="-6.842985"><ele>86.0</ele><time>2026-04-27T12:18:05.04Z</time></trkpt><trkpt lat="33.9549167" lon="-6.8428017"><ele>85.66666666666667</ele><time>2026-04-27T12:18:06.04Z</time></trkpt><trkpt lat="33.95495" lon="-6.8426183"><ele>85.33333333333333</ele><time>2026-04-27T12:18:07.04Z</time></trkpt><trkpt lat="33.9549833" lon="-6.8424333"><ele>85.0</ele><time>2026-04-27T12:18:08.039Z</time></trkpt><trkpt lat="33.955015" lon="-6.842245"><ele>85.66666666666666</ele><time>2026-04-27T12:18:09.04Z</time></trkpt><trkpt lat="33.955045" lon="-6.84206"><ele>86.33333333333333</ele><time>2026-04-27T12:18:10.039Z</time></trkpt><trkpt lat="33.9550783" lon="-6.841875"><ele>87.0</ele><time>2026-04-27T12:18:11.04Z</time></trkpt><trkpt lat="33.955115" lon="-6.8416933"><ele>87.66666666666667</ele><time>2026-04-27T12:18:12.04Z</time></trkpt><trkpt lat="33.9551517" lon="-6.8415133"><ele>88.33333333333334</ele><time>2026-04-27T12:18:13.04Z</time></trkpt><trkpt lat="33.95519" lon="-6.8413267"><ele>89.0</ele><time>2026-04-27T12:18:14.04Z</time></trkpt><trkpt lat="33.9552267" lon="-6.8411367"><ele>89.33333333333334</ele><time>2026-04-27T12:18:15.04Z</time></trkpt><trkpt lat="33.95526" lon="-6.8409467"><ele>89.66666666666667</ele><time>2026-04-27T12:18:16.04Z</time></trkpt><trkpt lat="33.9552967" lon="-6.84075"><ele>90.0</ele><time>2026-04-27T12:18:17.04Z</time></trkpt><trkpt lat="33.95533" lon="-6.8405533"><ele>90.0</ele><time>2026-04-27T12:18:18.04Z</time></trkpt><trkpt lat="33.9553617" lon="-6.8403583"><ele>90.0</ele><time>2026-04-27T12:18:19.04Z</time></trkpt><trkpt lat="33.9553967" lon="-6.840165"><ele>90.0</ele><time>2026-04-27T12:18:20.04Z</time></trkpt><trkpt lat="33.9554317" lon="-6.8399733"><ele>89.33333333333333</ele><time>2026-04-27T12:18:21.04Z</time></trkpt><trkpt lat="33.9554633" lon="-6.8397817"><ele>88.66666666666666</ele><time>2026-04-27T12:18:22.04Z</time></trkpt><trkpt lat="33.9555017" lon="-6.8395883"><ele>88.0</ele><time>2026-04-27T12:18:23.04Z</time></trkpt><trkpt lat="33.9555417" lon="-6.8393967"><ele>88.0</ele><time>2026-04-27T12:18:24.04Z</time></trkpt><trkpt lat="33.9555783" lon="-6.8392167"><ele>88.0</ele><time>2026-04-27T12:18:25.04Z</time></trkpt><trkpt lat="33.9556117" lon="-6.8390383"><ele>88.0</ele><time>2026-04-27T12:18:26.04Z</time></trkpt><trkpt lat="33.9556433" lon="-6.8388583"><ele>88.0</ele><time>2026-04-27T12:18:27.04Z</time></trkpt><trkpt lat="33.9556767" lon="-6.838675"><ele>88.0</ele><time>2026-04-27T12:18:28.04Z</time></trkpt><trkpt lat="33.9557117" lon="-6.8384917"><ele>88.0</ele><time>2026-04-27T12:18:29.04Z</time></trkpt><trkpt lat="33.9557483" lon="-6.83831"><ele>88.33333333333333</ele><time>2026-04-27T12:18:30.04Z</time></trkpt><trkpt lat="33.9557833" lon="-6.83813"><ele>88.66666666666667</ele><time>2026-04-27T12:18:31.04Z</time></trkpt><trkpt lat="33.9558217" lon="-6.8379517"><ele>89.0</ele><time>2026-04-27T12:18:32.04Z</time></trkpt><trkpt lat="33.9558617" lon="-6.837775"><ele>89.66666666666667</ele><time>2026-04-27T12:18:33.04Z</time></trkpt><trkpt lat="33.9559" lon="-6.8375983"><ele>90.33333333333333</ele><time>2026-04-27T12:18:34.04Z</time></trkpt><trkpt lat="33.9559383" lon="-6.83742"><ele>91.0</ele><time>2026-04-27T12:18:35.04Z</time></trkpt><trkpt lat="33.955985" lon="-6.8372417"><ele>91.0</ele><time>2026-04-27T12:18:36.04Z</time></trkpt><trkpt lat="33.956025" lon="-6.8370567"><ele>91.0</ele><time>2026-04-27T12:18:37.039Z</time></trkpt><trkpt lat="33.9560683" lon="-6.8368717"><ele>91.0</ele><time>2026-04-27T12:18:38.04Z</time></trkpt><trkpt lat="33.95611" lon="-6.8366883"><ele>91.66666666666666</ele><time>2026-04-27T12:18:39.04Z</time></trkpt><trkpt lat="33.9561517" lon="-6.836505"><ele>92.33333333333333</ele><time>2026-04-27T12:18:40.04Z</time></trkpt><trkpt lat="33.9561933" lon="-6.83632"><ele>93.0</ele><time>2026-04-27T12:18:41.04Z</time></trkpt><trkpt lat="33.9562333" lon="-6.83613"><ele>93.66666666666667</ele><time>2026-04-27T12:18:42.04Z</time></trkpt><trkpt lat="33.9562783" lon="-6.8359367"><ele>94.33333333333334</ele><time>2026-04-27T12:18:43.04Z</time></trkpt><trkpt lat="33.9563267" lon="-6.8357417"><ele>95.0</ele><time>2026-04-27T12:18:44.04Z</time></trkpt><trkpt lat="33.9563717" lon="-6.835545"><ele>95.0</ele><time>2026-04-27T12:18:45.04Z</time></trkpt><trkpt lat="33.9564217" lon="-6.835345"><ele>95.0</ele><time>2026-04-27T12:18:46.04Z</time></trkpt><trkpt lat="33.9564667" lon="-6.8351517"><ele>95.0</ele><time>2026-04-27T12:18:47.04Z</time></trkpt><trkpt lat="33.9565133" lon="-6.8349633"><ele>94.66666666666667</ele><time>2026-04-27T12:18:48.04Z</time></trkpt><trkpt lat="33.9565517" lon="-6.834775"><ele>94.33333333333333</ele><time>2026-04-27T12:18:49.04Z</time></trkpt><trkpt lat="33.9565917" lon="-6.8345867"><ele>94.0</ele><time>2026-04-27T12:18:50.039Z</time></trkpt><trkpt lat="33.956645" lon="-6.8343917"><ele>93.66666666666666</ele><time>2026-04-27T12:18:51.04Z</time></trkpt><trkpt lat="33.9566917" lon="-6.8342"><ele>93.33333333333333</ele><time>2026-04-27T12:18:52.04Z</time></trkpt><trkpt lat="33.9567383" lon="-6.834015"><ele>93.0</ele><time>2026-04-27T12:18:53.04Z</time></trkpt><trkpt lat="33.95678" lon="-6.83383"><ele>93.66666666666667</ele><time>2026-04-27T12:18:54.04Z</time></trkpt><trkpt lat="33.956825" lon="-6.8336433"><ele>94.33333333333334</ele><time>2026-04-27T12:18:55.039Z</time></trkpt><trkpt lat="33.9568767" lon="-6.83346"><ele>95.0</ele><time>2026-04-27T12:18:56.04Z</time></trkpt><trkpt lat="33.95693" lon="-6.8332667"><ele>95.0</ele><time>2026-04-27T12:18:57.04Z</time></trkpt><trkpt lat="33.9569833" lon="-6.8330667"><ele>95.0</ele><time>2026-04-27T12:18:58.039Z</time></trkpt><trkpt lat="33.9570383" lon="-6.8328617"><ele>95.0</ele><time>2026-04-27T12:18:59.039Z</time></trkpt><trkpt lat="33.95709" lon="-6.8326517"><ele>95.0</ele><time>2026-04-27T12:19:00.04Z</time></trkpt><trkpt lat="33.9571417" lon="-6.832445"><ele>95.0</ele><time>2026-04-27T12:19:01.04Z</time></trkpt><trkpt lat="33.9571917" lon="-6.832245"><ele>95.0</ele><time>2026-04-27T12:19:02.039Z</time></trkpt><trkpt lat="33.9572417" lon="-6.8320467"><ele>95.0</ele><time>2026-04-27T12:19:03.04Z</time></trkpt><trkpt lat="33.9572833" lon="-6.8318533"><ele>95.0</ele><time>2026-04-27T12:19:04.04Z</time></trkpt><trkpt lat="33.95733" lon="-6.8316633"><ele>95.0</ele><time>2026-04-27T12:19:05.04Z</time></trkpt><trkpt lat="33.957375" lon="-6.83147"><ele>94.66666666666667</ele><time>2026-04-27T12:19:06.04Z</time></trkpt><trkpt lat="33.95742" lon="-6.831275"><ele>94.33333333333333</ele><time>2026-04-27T12:19:07.039Z</time></trkpt><trkpt lat="33.9574633" lon="-6.8310767"><ele>94.0</ele><time>2026-04-27T12:19:08.04Z</time></trkpt><trkpt lat="33.957515" lon="-6.8308683"><ele>94.0</ele><time>2026-04-27T12:19:09.04Z</time></trkpt><trkpt lat="33.9575683" lon="-6.8306617"><ele>94.0</ele><time>2026-04-27T12:19:10.04Z</time></trkpt><trkpt lat="33.9576167" lon="-6.83045"><ele>94.0</ele><time>2026-04-27T12:19:11.04Z</time></trkpt><trkpt lat="33.957675" lon="-6.8302433"><ele>94.0</ele><time>2026-04-27T12:19:12.04Z</time></trkpt><trkpt lat="33.9577317" lon="-6.8300367"><ele>94.0</ele><time>2026-04-27T12:19:13.04Z</time></trkpt><trkpt lat="33.957785" lon="-6.8298283"><ele>94.0</ele><time>2026-04-27T12:19:14.04Z</time></trkpt><trkpt lat="33.9578383" lon="-6.8296233"><ele>94.0</ele><time>2026-04-27T12:19:15.04Z</time></trkpt><trkpt lat="33.957895" lon="-6.8294317"><ele>94.0</ele><time>2026-04-27T12:19:16.04Z</time></trkpt><trkpt lat="33.9579583" lon="-6.8292517"><ele>94.0</ele><time>2026-04-27T12:19:17.04Z</time></trkpt><trkpt lat="33.9580183" lon="-6.8290717"><ele>93.33333333333333</ele><time>2026-04-27T12:19:18.04Z</time></trkpt><trkpt lat="33.9580817" lon="-6.8288917"><ele>92.66666666666667</ele><time>2026-04-27T12:19:19.04Z</time></trkpt><trkpt lat="33.9581583" lon="-6.8287017"><ele>92.0</ele><time>2026-04-27T12:19:20.04Z</time></trkpt><trkpt lat="33.95824" lon="-6.8285"><ele>91.66666666666667</ele><time>2026-04-27T12:19:21.04Z</time></trkpt><trkpt lat="33.9583183" lon="-6.8282883"><ele>91.33333333333333</ele><time>2026-04-27T12:19:22.04Z</time></trkpt><trkpt lat="33.9584033" lon="-6.8280767"><ele>91.0</ele><time>2026-04-27T12:19:23.04Z</time></trkpt><trkpt lat="33.95849" lon="-6.8278667"><ele>91.66666666666666</ele><time>2026-04-27T12:19:24.04Z</time></trkpt><trkpt lat="33.95858" lon="-6.8276683"><ele>92.33333333333333</ele><time>2026-04-27T12:19:25.04Z</time></trkpt><trkpt lat="33.9586717" lon="-6.82747"><ele>93.0</ele><time>2026-04-27T12:19:26.04Z</time></trkpt><trkpt lat="33.95877" lon="-6.8272633"><ele>93.33333333333333</ele><time>2026-04-27T12:19:27.04Z</time></trkpt><trkpt lat="33.9588783" lon="-6.8270583"><ele>93.66666666666666</ele><time>2026-04-27T12:19:28.04Z</time></trkpt><trkpt lat="33.9589833" lon="-6.8268417"><ele>94.0</ele><time>2026-04-27T12:19:29.04Z</time></trkpt><trkpt lat="33.9590967" lon="-6.8266383"><ele>94.0</ele><time>2026-04-27T12:19:30.039Z</time></trkpt><trkpt lat="33.9592183" lon="-6.8264367"><ele>94.0</ele><time>2026-04-27T12:19:31.039Z</time></trkpt><trkpt lat="33.9593367" lon="-6.8262533"><ele>94.0</ele><time>2026-04-27T12:19:32.039Z</time></trkpt><trkpt lat="33.959455" lon="-6.826075"><ele>94.0</ele><time>2026-04-27T12:19:33.039Z</time></trkpt><trkpt lat="33.9595867" lon="-6.8258783"><ele>94.0</ele><time>2026-04-27T12:19:34.039Z</time></trkpt><trkpt lat="33.9597117" lon="-6.82569"><ele>94.0</ele><time>2026-04-27T12:19:35.039Z</time></trkpt><trkpt lat="33.9598433" lon="-6.8255033"><ele>94.0</ele><time>2026-04-27T12:19:36.039Z</time></trkpt><trkpt lat="33.9599767" lon="-6.8253217"><ele>94.0</ele><time>2026-04-27T12:19:37.039Z</time></trkpt><trkpt lat="33.960115" lon="-6.82515"><ele>94.0</ele><time>2026-04-27T12:19:38.039Z</time></trkpt><trkpt lat="33.9602533" lon="-6.8249733"><ele>92.66666666666666</ele><time>2026-04-27T12:19:39.039Z</time></trkpt><trkpt lat="33.9603967" lon="-6.8248"><ele>91.33333333333333</ele><time>2026-04-27T12:19:40.039Z</time></trkpt><trkpt lat="33.9605433" lon="-6.8246333"><ele>90.0</ele><time>2026-04-27T12:19:41.039Z</time></trkpt><trkpt lat="33.96069" lon="-6.824475"><ele>90.0</ele><time>2026-04-27T12:19:42.039Z</time></trkpt><trkpt lat="33.9608333" lon="-6.82432"><ele>90.0</ele><time>2026-04-27T12:19:43.039Z</time></trkpt><trkpt lat="33.9609817" lon="-6.8241717"><ele>90.0</ele><time>2026-04-27T12:19:44.039Z</time></trkpt><trkpt lat="33.9611367" lon="-6.8240217"><ele>90.0</ele><time>2026-04-27T12:19:45.039Z</time></trkpt><trkpt lat="33.9613" lon="-6.823875"><ele>90.0</ele><time>2026-04-27T12:19:46.038Z</time></trkpt><trkpt lat="33.9614717" lon="-6.8237317"><ele>90.0</ele><time>2026-04-27T12:19:47.039Z</time></trkpt><trkpt lat="33.9616417" lon="-6.82359"><ele>90.33333333333333</ele><time>2026-04-27T12:19:48.039Z</time></trkpt><trkpt lat="33.9618083" lon="-6.8234483"><ele>90.66666666666666</ele><time>2026-04-27T12:19:49.039Z</time></trkpt><trkpt lat="33.961975" lon="-6.8233083"><ele>91.0</ele><time>2026-04-27T12:19:50.039Z</time></trkpt><trkpt lat="33.9621417" lon="-6.82317"><ele>91.0</ele><time>2026-04-27T12:19:51.039Z</time></trkpt><trkpt lat="33.9623083" lon="-6.82303"><ele>91.0</ele><time>2026-04-27T12:19:52.039Z</time></trkpt><trkpt lat="33.96247" lon="-6.822895"><ele>91.0</ele><time>2026-04-27T12:19:53.038Z</time></trkpt><trkpt lat="33.9626267" lon="-6.8227633"><ele>91.0</ele><time>2026-04-27T12:19:54.039Z</time></trkpt><trkpt lat="33.96279" lon="-6.8226383"><ele>91.0</ele><time>2026-04-27T12:19:55.039Z</time></trkpt><trkpt lat="33.96295" lon="-6.8225133"><ele>91.0</ele><time>2026-04-27T12:19:56.039Z</time></trkpt><trkpt lat="33.9631067" lon="-6.82239"><ele>91.0</ele><time>2026-04-27T12:19:57.038Z</time></trkpt><trkpt lat="33.963265" lon="-6.82227"><ele>91.0</ele><time>2026-04-27T12:19:58.038Z</time></trkpt><trkpt lat="33.9634233" lon="-6.8221417"><ele>91.0</ele><time>2026-04-27T12:19:59.039Z</time></trkpt><trkpt lat="33.96358" lon="-6.8220183"><ele>91.66666666666666</ele><time>2026-04-27T12:20:00.039Z</time></trkpt><trkpt lat="33.9637383" lon="-6.82189"><ele>92.33333333333333</ele><time>2026-04-27T12:20:01.039Z</time></trkpt><trkpt lat="33.963895" lon="-6.82176"><ele>93.0</ele><time>2026-04-27T12:20:02.039Z</time></trkpt><trkpt lat="33.96405" lon="-6.8216283"><ele>92.66666666666667</ele><time>2026-04-27T12:20:03.039Z</time></trkpt><trkpt lat="33.9642133" lon="-6.82151"><ele>92.33333333333334</ele><time>2026-04-27T12:20:04.039Z</time></trkpt><trkpt lat="33.9643717" lon="-6.8213917"><ele>92.0</ele><time>2026-04-27T12:20:05.039Z</time></trkpt><trkpt lat="33.9645267" lon="-6.8212767"><ele>92.0</ele><time>2026-04-27T12:20:06.039Z</time></trkpt><trkpt lat="33.9646733" lon="-6.8211533"><ele>92.0</ele><time>2026-04-27T12:20:07.039Z</time></trkpt><trkpt lat="33.9648217" lon="-6.8210333"><ele>92.0</ele><time>2026-04-27T12:20:08.038Z</time></trkpt><trkpt lat="33.9649667" lon="-6.8209167"><ele>91.33333333333334</ele><time>2026-04-27T12:20:09.039Z</time></trkpt><trkpt lat="33.96511" lon="-6.8208133"><ele>90.66666666666667</ele><time>2026-04-27T12:20:10.039Z</time></trkpt><trkpt lat="33.9652467" lon="-6.8207067"><ele>90.0</ele><time>2026-04-27T12:20:11.039Z</time></trkpt><trkpt lat="33.9653867" lon="-6.8206033"><ele>90.0</ele><time>2026-04-27T12:20:12.039Z</time></trkpt><trkpt lat="33.9655267" lon="-6.8204967"><ele>90.0</ele><time>2026-04-27T12:20:13.039Z</time></trkpt><trkpt lat="33.9656717" lon="-6.8203867"><ele>90.0</ele><time>2026-04-27T12:20:14.039Z</time></trkpt><trkpt lat="33.96582" lon="-6.8202767"><ele>91.33333333333333</ele><time>2026-04-27T12:20:15.039Z</time></trkpt><trkpt lat="33.9659583" lon="-6.8201533"><ele>92.66666666666666</ele><time>2026-04-27T12:20:16.039Z</time></trkpt><trkpt lat="33.9661" lon="-6.8200417"><ele>94.0</ele><time>2026-04-27T12:20:17.039Z</time></trkpt><trkpt lat="33.9662433" lon="-6.8199217"><ele>91.33333333333333</ele><time>2026-04-27T12:20:18.039Z</time></trkpt><trkpt lat="33.9663867" lon="-6.81981"><ele>88.66666666666667</ele><time>2026-04-27T12:20:19.039Z</time></trkpt><trkpt lat="33.9665367" lon="-6.8197033"><ele>86.0</ele><time>2026-04-27T12:20:20.039Z</time></trkpt><trkpt lat="33.9666867" lon="-6.81961"><ele>86.0</ele><time>2026-04-27T12:20:21.039Z</time></trkpt><trkpt lat="33.96683" lon="-6.8195067"><ele>86.0</ele><time>2026-04-27T12:20:22.039Z</time></trkpt><trkpt lat="33.9669733" lon="-6.8194067"><ele>86.0</ele><time>2026-04-27T12:20:23.039Z</time></trkpt><trkpt lat="33.967115" lon="-6.8193067"><ele>86.0</ele><time>2026-04-27T12:20:24.039Z</time></trkpt><trkpt lat="33.9672617" lon="-6.8192083"><ele>86.0</ele><time>2026-04-27T12:20:25.039Z</time></trkpt><trkpt lat="33.9674117" lon="-6.81911"><ele>86.0</ele><time>2026-04-27T12:20:26.039Z</time></trkpt><trkpt lat="33.9675617" lon="-6.81901"><ele>87.66666666666667</ele><time>2026-04-27T12:20:27.039Z</time></trkpt><trkpt lat="33.9677133" lon="-6.81891"><ele>89.33333333333333</ele><time>2026-04-27T12:20:28.039Z</time></trkpt><trkpt lat="33.967865" lon="-6.8188117"><ele>91.0</ele><time>2026-04-27T12:20:29.039Z</time></trkpt><trkpt lat="33.9680133" lon="-6.8187133"><ele>91.0</ele><time>2026-04-27T12:20:30.038Z</time></trkpt><trkpt lat="33.9681633" lon="-6.818615"><ele>91.0</ele><time>2026-04-27T12:20:31.038Z</time></trkpt><trkpt lat="33.96832" lon="-6.81851"><ele>91.0</ele><time>2026-04-27T12:20:32.039Z</time></trkpt><trkpt lat="33.9684817" lon="-6.8183883"><ele>89.33333333333333</ele><time>2026-04-27T12:20:33.039Z</time></trkpt><trkpt lat="33.9686433" lon="-6.8182683"><ele>87.66666666666667</ele><time>2026-04-27T12:20:34.038Z</time></trkpt><trkpt lat="33.9688167" lon="-6.8181483"><ele>86.0</ele><time>2026-04-27T12:20:35.039Z</time></trkpt><trkpt lat="33.96899" lon="-6.8180283"><ele>86.0</ele><time>2026-04-27T12:20:36.039Z</time></trkpt><trkpt lat="33.96916" lon="-6.817915"><ele>86.0</ele><time>2026-04-27T12:20:37.039Z</time></trkpt><trkpt lat="33.9693217" lon="-6.8178"><ele>86.0</ele><time>2026-04-27T12:20:38.039Z</time></trkpt><trkpt lat="33.969485" lon="-6.81769"><ele>86.33333333333334</ele><time>2026-04-27T12:20:39.039Z</time></trkpt><trkpt lat="33.96965" lon="-6.8175833"><ele>86.66666666666667</ele><time>2026-04-27T12:20:40.038Z</time></trkpt><trkpt lat="33.9698133" lon="-6.8174583"><ele>87.0</ele><time>2026-04-27T12:20:41.039Z</time></trkpt><trkpt lat="33.9699717" lon="-6.8173117"><ele>86.66666666666667</ele><time>2026-04-27T12:20:42.038Z</time></trkpt><trkpt lat="33.9701317" lon="-6.817145"><ele>86.33333333333334</ele><time>2026-04-27T12:20:43.039Z</time></trkpt><trkpt lat="33.9703" lon="-6.81697"><ele>86.0</ele><time>2026-04-27T12:20:44.039Z</time></trkpt><trkpt lat="33.970465" lon="-6.8167717"><ele>86.0</ele><time>2026-04-27T12:20:45.039Z</time></trkpt><trkpt lat="33.9706017" lon="-6.8165633"><ele>86.0</ele><time>2026-04-27T12:20:46.039Z</time></trkpt><trkpt lat="33.9707233" lon="-6.81636"><ele>86.0</ele><time>2026-04-27T12:20:47.039Z</time></trkpt><trkpt lat="33.9708417" lon="-6.8161533"><ele>86.33333333333334</ele><time>2026-04-27T12:20:48.039Z</time></trkpt><trkpt lat="33.9709567" lon="-6.8159433"><ele>86.66666666666667</ele><time>2026-04-27T12:20:49.039Z</time></trkpt><trkpt lat="33.9710717" lon="-6.8157367"><ele>87.0</ele><time>2026-04-27T12:20:50.039Z</time></trkpt><trkpt lat="33.97119" lon="-6.8155317"><ele>87.0</ele><time>2026-04-27T12:20:51.039Z</time></trkpt><trkpt lat="33.9713017" lon="-6.8153383"><ele>87.0</ele><time>2026-04-27T12:20:52.039Z</time></trkpt><trkpt lat="33.9714183" lon="-6.815145"><ele>87.0</ele><time>2026-04-27T12:20:53.039Z</time></trkpt><trkpt lat="33.9715383" lon="-6.814955"><ele>87.0</ele><time>2026-04-27T12:20:54.039Z</time></trkpt><trkpt lat="33.9716633" lon="-6.8147617"><ele>87.0</ele><time>2026-04-27T12:20:55.039Z</time></trkpt><trkpt lat="33.9717933" lon="-6.8145733"><ele>87.0</ele><time>2026-04-27T12:20:56.039Z</time></trkpt><trkpt lat="33.971935" lon="-6.8143883"><ele>85.33333333333333</ele><time>2026-04-27T12:20:57.039Z</time></trkpt><trkpt lat="33.9720817" lon="-6.8142183"><ele>83.66666666666666</ele><time>2026-04-27T12:20:58.039Z</time></trkpt><trkpt lat="33.97223" lon="-6.8140517"><ele>82.0</ele><time>2026-04-27T12:20:59.039Z</time></trkpt><trkpt lat="33.97238" lon="-6.8138917"><ele>80.66666666666666</ele><time>2026-04-27T12:21:00.039Z</time></trkpt><trkpt lat="33.9725333" lon="-6.8137317"><ele>79.33333333333333</ele><time>2026-04-27T12:21:01.039Z</time></trkpt><trkpt lat="33.97269" lon="-6.813575"><ele>78.0</ele><time>2026-04-27T12:21:02.039Z</time></trkpt><trkpt lat="33.9728517" lon="-6.8134117"><ele>78.0</ele><time>2026-04-27T12:21:03.039Z</time></trkpt><trkpt lat="33.9730167" lon="-6.8132383"><ele>78.0</ele><time>2026-04-27T12:21:04.039Z</time></trkpt><trkpt lat="33.9731867" lon="-6.813065"><ele>78.0</ele><time>2026-04-27T12:21:05.039Z</time></trkpt><trkpt lat="33.97336" lon="-6.812885"><ele>76.5</ele><time>2026-04-27T12:21:06.039Z</time></trkpt><trkpt lat="33.97354" lon="-6.8127067"><ele>75.0</ele><time>2026-04-27T12:21:07.038Z</time></trkpt><trkpt lat="33.97372" lon="-6.8125167"><ele>75.0</ele><time>2026-04-27T12:21:08.039Z</time></trkpt><trkpt lat="33.9738933" lon="-6.8123333"><ele>75.0</ele><time>2026-04-27T12:21:09.039Z</time></trkpt><trkpt lat="33.9740617" lon="-6.812155"><ele>77.0</ele><time>2026-04-27T12:21:10.039Z</time></trkpt><trkpt lat="33.9742233" lon="-6.8119833"><ele>79.0</ele><time>2026-04-27T12:21:11.039Z</time></trkpt><trkpt lat="33.97438" lon="-6.8118067"><ele>81.0</ele><time>2026-04-27T12:21:12.039Z</time></trkpt><trkpt lat="33.97453" lon="-6.8116333"><ele>76.66666666666667</ele><time>2026-04-27T12:21:13.039Z</time></trkpt><trkpt lat="33.97468" lon="-6.8114617"><ele>72.33333333333334</ele><time>2026-04-27T12:21:14.039Z</time></trkpt><trkpt lat="33.9748367" lon="-6.811295"><ele>68.0</ele><time>2026-04-27T12:21:15.039Z</time></trkpt><trkpt lat="33.9750017" lon="-6.811135"><ele>66.33333333333334</ele><time>2026-04-27T12:21:16.039Z</time></trkpt><trkpt lat="33.9751783" lon="-6.8109867"><ele>64.66666666666667</ele><time>2026-04-27T12:21:17.039Z</time></trkpt><trkpt lat="33.9753583" lon="-6.8108517"><ele>63.0</ele><time>2026-04-27T12:21:18.039Z</time></trkpt><trkpt lat="33.97554" lon="-6.8107183"><ele>63.0</ele><time>2026-04-27T12:21:19.039Z</time></trkpt><trkpt lat="33.975725" lon="-6.81058"><ele>63.0</ele><time>2026-04-27T12:21:20.039Z</time></trkpt><trkpt lat="33.9759083" lon="-6.8104383"><ele>63.0</ele><time>2026-04-27T12:21:21.039Z</time></trkpt><trkpt lat="33.9760867" lon="-6.8102817"><ele>57.5</ele><time>2026-04-27T12:21:22.039Z</time></trkpt><trkpt lat="33.9762633" lon="-6.81011"><ele>52.0</ele><time>2026-04-27T12:21:23.039Z</time></trkpt><trkpt lat="33.97643" lon="-6.809915"><ele>52.0</ele><time>2026-04-27T12:21:24.039Z</time></trkpt><trkpt lat="33.97659" lon="-6.8097167"><ele>52.0</ele><time>2026-04-27T12:21:25.039Z</time></trkpt><trkpt lat="33.9767367" lon="-6.80951"><ele>54.666666666666664</ele><time>2026-04-27T12:21:26.039Z</time></trkpt><trkpt lat="33.976865" lon="-6.8092883"><ele>57.33333333333333</ele><time>2026-04-27T12:21:27.039Z</time></trkpt><trkpt lat="33.97698" lon="-6.80907"><ele>60.0</ele><time>2026-04-27T12:21:28.039Z</time></trkpt><trkpt lat="33.9770833" lon="-6.8088433"><ele>60.0</ele><time>2026-04-27T12:21:29.039Z</time></trkpt><trkpt lat="33.9771717" lon="-6.8086167"><ele>60.0</ele><time>2026-04-27T12:21:30.039Z</time></trkpt><trkpt lat="33.9772533" lon="-6.8083867"><ele>60.0</ele><time>2026-04-27T12:21:31.039Z</time></trkpt><trkpt lat="33.9773317" lon="-6.808145"><ele>56.33333333333333</ele><time>2026-04-27T12:21:32.039Z</time></trkpt><trkpt lat="33.9774133" lon="-6.8079067"><ele>52.666666666666664</ele><time>2026-04-27T12:21:33.039Z</time></trkpt><trkpt lat="33.9774983" lon="-6.8076633"><ele>49.0</ele><time>2026-04-27T12:21:34.039Z</time></trkpt><trkpt lat="33.977595" lon="-6.8074233"><ele>49.0</ele><time>2026-04-27T12:21:35.039Z</time></trkpt><trkpt lat="33.9776983" lon="-6.8071767"><ele>49.0</ele><time>2026-04-27T12:21:36.039Z</time></trkpt><trkpt lat="33.97781" lon="-6.80694"><ele>42.5</ele><time>2026-04-27T12:21:37.039Z</time></trkpt><trkpt lat="33.9779267" lon="-6.806705"><ele>36.0</ele><time>2026-04-27T12:21:38.039Z</time></trkpt><trkpt lat="33.9780533" lon="-6.8064767"><ele>36.0</ele><time>2026-04-27T12:21:39.039Z</time></trkpt><trkpt lat="33.9781917" lon="-6.806255"><ele>36.0</ele><time>2026-04-27T12:21:40.039Z</time></trkpt><trkpt lat="33.9783433" lon="-6.8060433"><ele>37.5</ele><time>2026-04-27T12:21:41.038Z</time></trkpt><trkpt lat="33.9785017" lon="-6.80584"><ele>39.0</ele><time>2026-04-27T12:21:42.039Z</time></trkpt><trkpt lat="33.9786683" lon="-6.805645"><ele>39.0</ele><time>2026-04-27T12:21:43.039Z</time></trkpt><trkpt lat="33.9788383" lon="-6.8054583"><ele>39.0</ele><time>2026-04-27T12:21:44.038Z</time></trkpt><trkpt lat="33.9790133" lon="-6.8052767"><ele>33.0</ele><time>2026-04-27T12:21:45.039Z</time></trkpt><trkpt lat="33.979185" lon="-6.8050933"><ele>27.0</ele><time>2026-04-27T12:21:46.039Z</time></trkpt><trkpt lat="33.9793567" lon="-6.8049133"><ele>27.0</ele><time>2026-04-27T12:21:47.039Z</time></trkpt><trkpt lat="33.9795267" lon="-6.8047317"><ele>27.0</ele><time>2026-04-27T12:21:48.039Z</time></trkpt><trkpt lat="33.9796983" lon="-6.804545"><ele>27.0</ele><time>2026-04-27T12:21:49.039Z</time></trkpt><trkpt lat="33.9798717" lon="-6.8043617"><ele>27.0</ele><time>2026-04-27T12:21:50.039Z</time></trkpt><trkpt lat="33.9800417" lon="-6.8041783"><ele>26.5</ele><time>2026-04-27T12:21:51.039Z</time></trkpt><trkpt lat="33.9802183" lon="-6.804"><ele>26.0</ele><time>2026-04-27T12:21:52.038Z</time></trkpt><trkpt lat="33.9803967" lon="-6.8038267"><ele>26.0</ele><time>2026-04-27T12:21:53.039Z</time></trkpt><trkpt lat="33.9805733" lon="-6.80365"><ele>26.0</ele><time>2026-04-27T12:21:54.039Z</time></trkpt><trkpt lat="33.9807483" lon="-6.8034717"><ele>24.5</ele><time>2026-04-27T12:21:55.038Z</time></trkpt><trkpt lat="33.9809217" lon="-6.8032983"><ele>23.0</ele><time>2026-04-27T12:21:56.039Z</time></trkpt><trkpt lat="33.9810983" lon="-6.8031167"><ele>23.0</ele><time>2026-04-27T12:21:57.039Z</time></trkpt><trkpt lat="33.9812683" lon="-6.80294"><ele>23.0</ele><time>2026-04-27T12:21:58.039Z</time></trkpt><trkpt lat="33.9814383" lon="-6.8027617"><ele>22.0</ele><time>2026-04-27T12:21:59.039Z</time></trkpt><trkpt lat="33.9816067" lon="-6.802575"><ele>21.0</ele><time>2026-04-27T12:22:00.039Z</time></trkpt><trkpt lat="33.9817783" lon="-6.8024"><ele>21.0</ele><time>2026-04-27T12:22:01.039Z</time></trkpt><trkpt lat="33.9819467" lon="-6.8022233"><ele>21.0</ele><time>2026-04-27T12:22:02.039Z</time></trkpt><trkpt lat="33.982115" lon="-6.8020467"><ele>21.0</ele><time>2026-04-27T12:22:03.039Z</time></trkpt><trkpt lat="33.982285" lon="-6.8018717"><ele>21.0</ele><time>2026-04-27T12:22:04.039Z</time></trkpt><trkpt lat="33.9824517" lon="-6.8016883"><ele>21.0</ele><time>2026-04-27T12:22:05.039Z</time></trkpt><trkpt lat="33.9826167" lon="-6.8015033"><ele>21.0</ele><time>2026-04-27T12:22:06.039Z</time></trkpt><trkpt lat="33.9827733" lon="-6.8013117"><ele>21.0</ele><time>2026-04-27T12:22:07.038Z</time></trkpt><trkpt lat="33.9829283" lon="-6.8011167"><ele>21.0</ele><time>2026-04-27T12:22:08.039Z</time></trkpt><trkpt lat="33.9830867" lon="-6.8009217"><ele>20.0</ele><time>2026-04-27T12:22:09.039Z</time></trkpt><trkpt lat="33.9832367" lon="-6.8007233"><ele>19.0</ele><time>2026-04-27T12:22:10.039Z</time></trkpt><trkpt lat="33.9833733" lon="-6.800525"><ele>18.0</ele><time>2026-04-27T12:22:11.039Z</time></trkpt><trkpt lat="33.983505" lon="-6.8003233"><ele>16.333333333333332</ele><time>2026-04-27T12:22:12.039Z</time></trkpt><trkpt lat="33.98363" lon="-6.8001117"><ele>14.666666666666666</ele><time>2026-04-27T12:22:13.038Z</time></trkpt><trkpt lat="33.983755" lon="-6.7998967"><ele>13.0</ele><time>2026-04-27T12:22:14.039Z</time></trkpt><trkpt lat="33.983875" lon="-6.7996767"><ele>13.0</ele><time>2026-04-27T12:22:15.039Z</time></trkpt><trkpt lat="33.9839917" lon="-6.7994583"><ele>13.0</ele><time>2026-04-27T12:22:16.038Z</time></trkpt><trkpt lat="33.9841067" lon="-6.7992333"><ele>13.0</ele><time>2026-04-27T12:22:17.039Z</time></trkpt><trkpt lat="33.9842217" lon="-6.7990017"><ele>12.666666666666666</ele><time>2026-04-27T12:22:18.039Z</time></trkpt><trkpt lat="33.9843267" lon="-6.7987633"><ele>12.333333333333332</ele><time>2026-04-27T12:22:19.039Z</time></trkpt><trkpt lat="33.984435" lon="-6.7985267"><ele>12.0</ele><time>2026-04-27T12:22:20.039Z</time></trkpt><trkpt lat="33.9845317" lon="-6.7982883"><ele>12.0</ele><time>2026-04-27T12:22:21.039Z</time></trkpt><trkpt lat="33.9846217" lon="-6.798045"><ele>12.0</ele><time>2026-04-27T12:22:22.039Z</time></trkpt><trkpt lat="33.9847083" lon="-6.7977983"><ele>12.0</ele><time>2026-04-27T12:22:23.039Z</time></trkpt><trkpt lat="33.9847917" lon="-6.797545"><ele>10.666666666666666</ele><time>2026-04-27T12:22:24.039Z</time></trkpt><trkpt lat="33.9848733" lon="-6.7972933"><ele>9.333333333333332</ele><time>2026-04-27T12:22:25.039Z</time></trkpt><trkpt lat="33.98494" lon="-6.79704"><ele>8.0</ele><time>2026-04-27T12:22:26.039Z</time></trkpt><trkpt lat="33.9850033" lon="-6.796785"><ele>7.333333333333333</ele><time>2026-04-27T12:22:27.039Z</time></trkpt><trkpt lat="33.9850667" lon="-6.7965267"><ele>6.666666666666666</ele><time>2026-04-27T12:22:28.039Z</time></trkpt><trkpt lat="33.9851183" lon="-6.7962683"><ele>6.0</ele><time>2026-04-27T12:22:29.039Z</time></trkpt><trkpt lat="33.9851683" lon="-6.7960017"><ele>6.0</ele><time>2026-04-27T12:22:30.039Z</time></trkpt><trkpt lat="33.98522" lon="-6.7957367"><ele>6.0</ele><time>2026-04-27T12:22:31.039Z</time></trkpt><trkpt lat="33.98527" lon="-6.795475"><ele>6.0</ele><time>2026-04-27T12:22:32.039Z</time></trkpt><trkpt lat="33.9853217" lon="-6.7952083"><ele>5.5</ele><time>2026-04-27T12:22:33.039Z</time></trkpt><trkpt lat="33.9853783" lon="-6.7949417"><ele>5.0</ele><time>2026-04-27T12:22:34.039Z</time></trkpt><trkpt lat="33.9854317" lon="-6.79467"><ele>5.0</ele><time>2026-04-27T12:22:35.039Z</time></trkpt><trkpt lat="33.9854917" lon="-6.7944017"><ele>5.0</ele><time>2026-04-27T12:22:36.039Z</time></trkpt><trkpt lat="33.98555" lon="-6.794135"><ele>5.0</ele><time>2026-04-27T12:22:37.039Z</time></trkpt><trkpt lat="33.9856083" lon="-6.7938617"><ele>5.0</ele><time>2026-04-27T12:22:38.039Z</time></trkpt><trkpt lat="33.98567" lon="-6.7935917"><ele>5.333333333333334</ele><time>2026-04-27T12:22:39.039Z</time></trkpt><trkpt lat="33.985725" lon="-6.79333"><ele>5.666666666666667</ele><time>2026-04-27T12:22:40.039Z</time></trkpt><trkpt lat="33.98578" lon="-6.7930717"><ele>6.0</ele><time>2026-04-27T12:22:41.039Z</time></trkpt><trkpt lat="33.9858317" lon="-6.79281"><ele>6.0</ele><time>2026-04-27T12:22:42.039Z</time></trkpt><trkpt lat="33.9858883" lon="-6.79255"><ele>6.0</ele><time>2026-04-27T12:22:43.039Z</time></trkpt><trkpt lat="33.9859383" lon="-6.7922883"><ele>6.0</ele><time>2026-04-27T12:22:44.039Z</time></trkpt><trkpt lat="33.9859883" lon="-6.79203"><ele>6.333333333333334</ele><time>2026-04-27T12:22:45.039Z</time></trkpt><trkpt lat="33.9860367" lon="-6.7917733"><ele>6.666666666666667</ele><time>2026-04-27T12:22:46.039Z</time></trkpt><trkpt lat="33.98609" lon="-6.79151"><ele>7.0</ele><time>2026-04-27T12:22:47.039Z</time></trkpt><trkpt lat="33.986145" lon="-6.79124"><ele>7.5</ele><time>2026-04-27T12:22:48.039Z</time></trkpt><trkpt lat="33.9861967" lon="-6.7909717"><ele>8.0</ele><time>2026-04-27T12:22:49.039Z</time></trkpt><trkpt lat="33.986255" lon="-6.7907117"><ele>8.0</ele><time>2026-04-27T12:22:50.039Z</time></trkpt><trkpt lat="33.98631" lon="-6.7904267"><ele>8.0</ele><time>2026-04-27T12:22:51.039Z</time></trkpt><trkpt lat="33.9863633" lon="-6.7901467"><ele>7.5</ele><time>2026-04-27T12:22:52.039Z</time></trkpt><trkpt lat="33.98642" lon="-6.7898617"><ele>7.0</ele><time>2026-04-27T12:22:53.038Z</time></trkpt><trkpt lat="33.986475" lon="-6.78959"><ele>6.333333333333334</ele><time>2026-04-27T12:22:54.039Z</time></trkpt><trkpt lat="33.9865267" lon="-6.7893233"><ele>5.666666666666667</ele><time>2026-04-27T12:22:55.039Z</time></trkpt><trkpt lat="33.98658" lon="-6.789065"><ele>5.0</ele><time>2026-04-27T12:22:56.039Z</time></trkpt><trkpt lat="33.9866317" lon="-6.78881"><ele>5.0</ele><time>2026-04-27T12:22:57.039Z</time></trkpt><trkpt lat="33.9866833" lon="-6.7885567"><ele>5.0</ele><time>2026-04-27T12:22:58.039Z</time></trkpt><trkpt lat="33.9867333" lon="-6.7883067"><ele>5.0</ele><time>2026-04-27T12:22:59.039Z</time></trkpt><trkpt lat="33.9867833" lon="-6.7880533"><ele>4.666666666666667</ele><time>2026-04-27T12:23:00.039Z</time></trkpt><trkpt lat="33.9868333" lon="-6.7878017"><ele>4.333333333333333</ele><time>2026-04-27T12:23:01.038Z</time></trkpt><trkpt lat="33.9868817" lon="-6.7875533"><ele>4.0</ele><time>2026-04-27T12:23:02.039Z</time></trkpt><trkpt lat="33.9869267" lon="-6.787305"><ele>4.0</ele><time>2026-04-27T12:23:03.039Z</time></trkpt><trkpt lat="33.986975" lon="-6.78706"><ele>4.0</ele><time>2026-04-27T12:23:04.038Z</time></trkpt><trkpt lat="33.987025" lon="-6.7868117"><ele>4.0</ele><time>2026-04-27T12:23:05.039Z</time></trkpt><trkpt lat="33.9870767" lon="-6.7865617"><ele>4.333333333333333</ele><time>2026-04-27T12:23:06.039Z</time></trkpt><trkpt lat="33.9871233" lon="-6.7863117"><ele>4.666666666666667</ele><time>2026-04-27T12:23:07.039Z</time></trkpt><trkpt lat="33.9871733" lon="-6.7860633"><ele>5.0</ele><time>2026-04-27T12:23:08.039Z</time></trkpt><trkpt lat="33.987225" lon="-6.78581"><ele>5.0</ele><time>2026-04-27T12:23:09.039Z</time></trkpt><trkpt lat="33.9872783" lon="-6.7855567"><ele>5.0</ele><time>2026-04-27T12:23:10.039Z</time></trkpt><trkpt lat="33.9873283" lon="-6.7853033"><ele>5.0</ele><time>2026-04-27T12:23:11.039Z</time></trkpt><trkpt lat="33.9873733" lon="-6.7850517"><ele>5.0</ele><time>2026-04-27T12:23:12.039Z</time></trkpt><trkpt lat="33.987425" lon="-6.7847983"><ele>5.0</ele><time>2026-04-27T12:23:13.039Z</time></trkpt><trkpt lat="33.9874733" lon="-6.7845483"><ele>5.0</ele><time>2026-04-27T12:23:14.039Z</time></trkpt><trkpt lat="33.9875233" lon="-6.7843"><ele>5.666666666666667</ele><time>2026-04-27T12:23:15.039Z</time></trkpt><trkpt lat="33.9875683" lon="-6.7840517"><ele>6.333333333333334</ele><time>2026-04-27T12:23:16.039Z</time></trkpt><trkpt lat="33.9876167" lon="-6.7838017"><ele>7.0</ele><time>2026-04-27T12:23:17.039Z</time></trkpt><trkpt lat="33.9876667" lon="-6.7835467"><ele>6.666666666666667</ele><time>2026-04-27T12:23:18.039Z</time></trkpt><trkpt lat="33.9877133" lon="-6.7832933"><ele>6.333333333333334</ele><time>2026-04-27T12:23:19.039Z</time></trkpt><trkpt lat="33.9877667" lon="-6.7830383"><ele>6.0</ele><time>2026-04-27T12:23:20.039Z</time></trkpt><trkpt lat="33.9878233" lon="-6.782785"><ele>6.333333333333334</ele><time>2026-04-27T12:23:21.039Z</time></trkpt><trkpt lat="33.98788" lon="-6.7825283"><ele>6.666666666666667</ele><time>2026-04-27T12:23:22.039Z</time></trkpt><trkpt lat="33.9879333" lon="-6.7822783"><ele>7.0</ele><time>2026-04-27T12:23:23.039Z</time></trkpt><trkpt lat="33.9879833" lon="-6.7820267"><ele>6.666666666666667</ele><time>2026-04-27T12:23:24.039Z</time></trkpt><trkpt lat="33.988035" lon="-6.781775"><ele>6.333333333333334</ele><time>2026-04-27T12:23:25.039Z</time></trkpt><trkpt lat="33.988085" lon="-6.78152"><ele>6.0</ele><time>2026-04-27T12:23:26.039Z</time></trkpt><trkpt lat="33.9881317" lon="-6.781265"><ele>6.0</ele><time>2026-04-27T12:23:27.039Z</time></trkpt><trkpt lat="33.98818" lon="-6.7810133"><ele>6.0</ele><time>2026-04-27T12:23:28.038Z</time></trkpt><trkpt lat="33.9882333" lon="-6.78076"><ele>6.0</ele><time>2026-04-27T12:23:29.039Z</time></trkpt><trkpt lat="33.988285" lon="-6.7805"><ele>6.0</ele><time>2026-04-27T12:23:30.039Z</time></trkpt><trkpt lat="33.9883333" lon="-6.7802417"><ele>6.0</ele><time>2026-04-27T12:23:31.039Z</time></trkpt><trkpt lat="33.988385" lon="-6.7799817"><ele>6.0</ele><time>2026-04-27T12:23:32.039Z</time></trkpt><trkpt lat="33.9884433" lon="-6.779725"><ele>6.0</ele><time>2026-04-27T12:23:33.039Z</time></trkpt><trkpt lat="33.9884967" lon="-6.7794633"><ele>6.0</ele><time>2026-04-27T12:23:34.039Z</time></trkpt><trkpt lat="33.98855" lon="-6.7792017"><ele>6.0</ele><time>2026-04-27T12:23:35.039Z</time></trkpt><trkpt lat="33.988605" lon="-6.7789383"><ele>6.0</ele><time>2026-04-27T12:23:36.039Z</time></trkpt><trkpt lat="33.9886633" lon="-6.7786733"><ele>6.0</ele><time>2026-04-27T12:23:37.039Z</time></trkpt><trkpt lat="33.9887167" lon="-6.77841"><ele>6.5</ele><time>2026-04-27T12:23:38.039Z</time></trkpt><trkpt lat="33.9887717" lon="-6.7781433"><ele>7.0</ele><time>2026-04-27T12:23:39.039Z</time></trkpt><trkpt lat="33.988825" lon="-6.7778733"><ele>7.0</ele><time>2026-04-27T12:23:40.039Z</time></trkpt><trkpt lat="33.988875" lon="-6.7776033"><ele>7.0</ele><time>2026-04-27T12:23:41.039Z</time></trkpt><trkpt lat="33.9889217" lon="-6.77733"><ele>7.0</ele><time>2026-04-27T12:23:42.039Z</time></trkpt><trkpt lat="33.9889667" lon="-6.7770567"><ele>7.0</ele><time>2026-04-27T12:23:43.038Z</time></trkpt><trkpt lat="33.989005" lon="-6.776785"><ele>7.5</ele><time>2026-04-27T12:23:44.039Z</time></trkpt><trkpt lat="33.98904" lon="-6.7765067"><ele>8.0</ele><time>2026-04-27T12:23:45.039Z</time></trkpt><trkpt lat="33.98907" lon="-6.7762333"><ele>7.5</ele><time>2026-04-27T12:23:46.039Z</time></trkpt><trkpt lat="33.989095" lon="-6.7759533"><ele>7.0</ele><time>2026-04-27T12:23:47.038Z</time></trkpt><trkpt lat="33.989115" lon="-6.7756717"><ele>7.0</ele><time>2026-04-27T12:23:48.039Z</time></trkpt><trkpt lat="33.98913" lon="-6.7753933"><ele>7.0</ele><time>2026-04-27T12:23:49.039Z</time></trkpt><trkpt lat="33.98914" lon="-6.7751133"><ele>6.5</ele><time>2026-04-27T12:23:50.038Z</time></trkpt><trkpt lat="33.9891467" lon="-6.7748333"><ele>6.0</ele><time>2026-04-27T12:23:51.039Z</time></trkpt><trkpt lat="33.9891533" lon="-6.7745517"><ele>7.0</ele><time>2026-04-27T12:23:52.039Z</time></trkpt><trkpt lat="33.9891583" lon="-6.774265"><ele>8.0</ele><time>2026-04-27T12:23:53.039Z</time></trkpt><trkpt lat="33.9891583" lon="-6.7739833"><ele>8.0</ele><time>2026-04-27T12:23:54.039Z</time></trkpt><trkpt lat="33.9891533" lon="-6.7737133"><ele>8.0</ele><time>2026-04-27T12:23:55.039Z</time></trkpt><trkpt lat="33.9891433" lon="-6.773445"><ele>8.0</ele><time>2026-04-27T12:23:56.039Z</time></trkpt><trkpt lat="33.9891333" lon="-6.7731817"><ele>7.666666666666666</ele><time>2026-04-27T12:23:57.039Z</time></trkpt><trkpt lat="33.98912" lon="-6.7729167"><ele>7.333333333333334</ele><time>2026-04-27T12:23:58.039Z</time></trkpt><trkpt lat="33.9891067" lon="-6.7726517"><ele>7.0</ele><time>2026-04-27T12:23:59.039Z</time></trkpt><trkpt lat="33.9890983" lon="-6.7723817"><ele>7.0</ele><time>2026-04-27T12:24:00.038Z</time></trkpt><trkpt lat="33.9890883" lon="-6.7721067"><ele>7.0</ele><time>2026-04-27T12:24:01.039Z</time></trkpt><trkpt lat="33.9890783" lon="-6.771835"><ele>7.0</ele><time>2026-04-27T12:24:02.039Z</time></trkpt><trkpt lat="33.9890683" lon="-6.7715717"><ele>7.0</ele><time>2026-04-27T12:24:03.039Z</time></trkpt><trkpt lat="33.9890633" lon="-6.77131"><ele>7.0</ele><time>2026-04-27T12:24:04.039Z</time></trkpt><trkpt lat="33.98906" lon="-6.7710567"><ele>7.0</ele><time>2026-04-27T12:24:05.039Z</time></trkpt><trkpt lat="33.9890533" lon="-6.7708067"><ele>7.0</ele><time>2026-04-27T12:24:06.039Z</time></trkpt><trkpt lat="33.9890483" lon="-6.7705567"><ele>7.0</ele><time>2026-04-27T12:24:07.039Z</time></trkpt><trkpt lat="33.98904" lon="-6.7703067"><ele>7.333333333333334</ele><time>2026-04-27T12:24:08.039Z</time></trkpt><trkpt lat="33.9890333" lon="-6.7700533"><ele>7.666666666666666</ele><time>2026-04-27T12:24:09.038Z</time></trkpt><trkpt lat="33.9890233" lon="-6.7698017"><ele>8.0</ele><time>2026-04-27T12:24:10.039Z</time></trkpt><trkpt lat="33.98902" lon="-6.7695467"><ele>7.666666666666666</ele><time>2026-04-27T12:24:11.039Z</time></trkpt><trkpt lat="33.9890117" lon="-6.76929"><ele>7.333333333333334</ele><time>2026-04-27T12:24:12.039Z</time></trkpt><trkpt lat="33.988995" lon="-6.7690317"><ele>7.0</ele><time>2026-04-27T12:24:13.039Z</time></trkpt><trkpt lat="33.9889817" lon="-6.768765"><ele>6.666666666666667</ele><time>2026-04-27T12:24:14.039Z</time></trkpt><trkpt lat="33.9889717" lon="-6.7685"><ele>6.333333333333334</ele><time>2026-04-27T12:24:15.039Z</time></trkpt><trkpt lat="33.988965" lon="-6.7682317"><ele>6.0</ele><time>2026-04-27T12:24:16.038Z</time></trkpt><trkpt lat="33.9889533" lon="-6.7679717"><ele>6.0</ele><time>2026-04-27T12:24:17.039Z</time></trkpt><trkpt lat="33.988945" lon="-6.76772"><ele>6.0</ele><time>2026-04-27T12:24:18.039Z</time></trkpt><trkpt lat="33.9889367" lon="-6.767465"><ele>6.0</ele><time>2026-04-27T12:24:19.039Z</time></trkpt><trkpt lat="33.9889267" lon="-6.7672083"><ele>4.666666666666667</ele><time>2026-04-27T12:24:20.039Z</time></trkpt><trkpt lat="33.98892" lon="-6.766955"><ele>3.333333333333333</ele><time>2026-04-27T12:24:21.038Z</time></trkpt><trkpt lat="33.9889083" lon="-6.7667117"><ele>2.0</ele><time>2026-04-27T12:24:22.039Z</time></trkpt><trkpt lat="33.9888967" lon="-6.7664733"><ele>2.0</ele><time>2026-04-27T12:24:23.039Z</time></trkpt><trkpt lat="33.9888883" lon="-6.7662433"><ele>2.0</ele><time>2026-04-27T12:24:24.039Z</time></trkpt><trkpt lat="33.9888783" lon="-6.766015"><ele>2.0</ele><time>2026-04-27T12:24:25.038Z</time></trkpt><trkpt lat="33.9888683" lon="-6.76579"><ele>3.333333333333333</ele><time>2026-04-27T12:24:26.039Z</time></trkpt><trkpt lat="33.988855" lon="-6.7655683"><ele>4.666666666666667</ele><time>2026-04-27T12:24:27.039Z</time></trkpt><trkpt lat="33.9888367" lon="-6.7653483"><ele>6.0</ele><time>2026-04-27T12:24:28.038Z</time></trkpt><trkpt lat="33.9888117" lon="-6.7651317"><ele>6.0</ele><time>2026-04-27T12:24:29.039Z</time></trkpt><trkpt lat="33.988775" lon="-6.7649283"><ele>6.0</ele><time>2026-04-27T12:24:30.039Z</time></trkpt><trkpt lat="33.9887217" lon="-6.7647317"><ele>6.0</ele><time>2026-04-27T12:24:31.039Z</time></trkpt><trkpt lat="33.988655" lon="-6.7645433"><ele>6.0</ele><time>2026-04-27T12:24:32.039Z</time></trkpt><trkpt lat="33.9885833" lon="-6.7643617"><ele>6.0</ele><time>2026-04-27T12:24:33.039Z</time></trkpt><trkpt lat="33.9884983" lon="-6.764185"><ele>6.0</ele><time>2026-04-27T12:24:34.039Z</time></trkpt><trkpt lat="33.988405" lon="-6.7640083"><ele>6.0</ele><time>2026-04-27T12:24:35.038Z</time></trkpt><trkpt lat="33.9882983" lon="-6.7638367"><ele>6.0</ele><time>2026-04-27T12:24:36.038Z</time></trkpt><trkpt lat="33.988175" lon="-6.7636767"><ele>6.0</ele><time>2026-04-27T12:24:37.038Z</time></trkpt><trkpt lat="33.988045" lon="-6.7635183"><ele>7.333333333333334</ele><time>2026-04-27T12:24:38.038Z</time></trkpt><trkpt lat="33.9879117" lon="-6.7633583"><ele>8.666666666666668</ele><time>2026-04-27T12:24:39.037Z</time></trkpt><trkpt lat="33.9877817" lon="-6.7632017"><ele>10.0</ele><time>2026-04-27T12:24:40.038Z</time></trkpt><trkpt lat="33.987645" lon="-6.763045"><ele>10.666666666666668</ele><time>2026-04-27T12:24:41.038Z</time></trkpt><trkpt lat="33.9875033" lon="-6.7628883"><ele>11.333333333333334</ele><time>2026-04-27T12:24:42.038Z</time></trkpt><trkpt lat="33.987355" lon="-6.762725"><ele>12.0</ele><time>2026-04-27T12:24:43.038Z</time></trkpt><trkpt lat="33.9872" lon="-6.7625567"><ele>12.0</ele><time>2026-04-27T12:24:44.038Z</time></trkpt><trkpt lat="33.9870483" lon="-6.7623833"><ele>12.0</ele><time>2026-04-27T12:24:45.038Z</time></trkpt><trkpt lat="33.986885" lon="-6.7622033"><ele>12.0</ele><time>2026-04-27T12:24:46.038Z</time></trkpt><trkpt lat="33.98672" lon="-6.762015"><ele>12.5</ele><time>2026-04-27T12:24:47.038Z</time></trkpt><trkpt lat="33.9865517" lon="-6.7618317"><ele>13.0</ele><time>2026-04-27T12:24:48.038Z</time></trkpt><trkpt lat="33.98638" lon="-6.7616417"><ele>13.0</ele><time>2026-04-27T12:24:49.038Z</time></trkpt><trkpt lat="33.9861967" lon="-6.7614533"><ele>13.0</ele><time>2026-04-27T12:24:50.038Z</time></trkpt><trkpt lat="33.9860067" lon="-6.7612583"><ele>12.5</ele><time>2026-04-27T12:24:51.038Z</time></trkpt><trkpt lat="33.9858167" lon="-6.7610633"><ele>12.0</ele><time>2026-04-27T12:24:52.038Z</time></trkpt><trkpt lat="33.9856333" lon="-6.76087"><ele>12.0</ele><time>2026-04-27T12:24:53.038Z</time></trkpt><trkpt lat="33.98546" lon="-6.76069"><ele>12.0</ele><time>2026-04-27T12:24:54.038Z</time></trkpt><trkpt lat="33.9853067" lon="-6.7605133"><ele>12.0</ele><time>2026-04-27T12:24:55.038Z</time></trkpt><trkpt lat="33.98517" lon="-6.7603283"><ele>13.666666666666668</ele><time>2026-04-27T12:24:56.038Z</time></trkpt><trkpt lat="33.9850483" lon="-6.76013"><ele>15.333333333333334</ele><time>2026-04-27T12:24:57.038Z</time></trkpt><trkpt lat="33.9849283" lon="-6.7599217"><ele>17.0</ele><time>2026-04-27T12:24:58.037Z</time></trkpt><trkpt lat="33.9848217" lon="-6.7597033"><ele>17.0</ele><time>2026-04-27T12:24:59.038Z</time></trkpt><trkpt lat="33.984715" lon="-6.75948"><ele>17.0</ele><time>2026-04-27T12:25:00.037Z</time></trkpt><trkpt lat="33.984615" lon="-6.7592433"><ele>17.0</ele><time>2026-04-27T12:25:01.038Z</time></trkpt><trkpt lat="33.9845217" lon="-6.7589983"><ele>23.0</ele><time>2026-04-27T12:25:02.038Z</time></trkpt><trkpt lat="33.9844433" lon="-6.7587483"><ele>29.0</ele><time>2026-04-27T12:25:03.037Z</time></trkpt><trkpt lat="33.98437" lon="-6.7584917"><ele>35.0</ele><time>2026-04-27T12:25:04.038Z</time></trkpt><trkpt lat="33.9843117" lon="-6.75824"><ele>43.666666666666664</ele><time>2026-04-27T12:25:05.038Z</time></trkpt><trkpt lat="33.9842633" lon="-6.757995"><ele>52.33333333333333</ele><time>2026-04-27T12:25:06.038Z</time></trkpt><trkpt lat="33.9842283" lon="-6.7577383"><ele>61.0</ele><time>2026-04-27T12:25:07.037Z</time></trkpt><trkpt lat="33.9842017" lon="-6.7574717"><ele>55.33333333333333</ele><time>2026-04-27T12:25:08.038Z</time></trkpt><trkpt lat="33.9841783" lon="-6.7572083"><ele>49.666666666666664</ele><time>2026-04-27T12:25:09.037Z</time></trkpt><trkpt lat="33.9841683" lon="-6.7569433"><ele>44.0</ele><time>2026-04-27T12:25:10.037Z</time></trkpt><trkpt lat="33.984175" lon="-6.7566783"><ele>64.0</ele><time>2026-04-27T12:25:11.038Z</time></trkpt><trkpt lat="33.9841883" lon="-6.75641"><ele>84.0</ele><time>2026-04-27T12:25:12.037Z</time></trkpt><trkpt lat="33.9842233" lon="-6.7561383"><ele>82.0</ele><time>2026-04-27T12:25:13.038Z</time></trkpt><trkpt lat="33.9842683" lon="-6.7558667"><ele>80.0</ele><time>2026-04-27T12:25:14.038Z</time></trkpt><trkpt lat="33.9843133" lon="-6.7555967"><ele>80.0</ele><time>2026-04-27T12:25:15.038Z</time></trkpt><trkpt lat="33.9843617" lon="-6.75533"><ele>80.0</ele><time>2026-04-27T12:25:16.038Z</time></trkpt><trkpt lat="33.9844067" lon="-6.75508"><ele>80.0</ele><time>2026-04-27T12:25:17.037Z</time></trkpt><trkpt lat="33.9844533" lon="-6.7548333"><ele>74.66666666666667</ele><time>2026-04-27T12:25:18.038Z</time></trkpt><trkpt lat="33.9844867" lon="-6.75458"><ele>69.33333333333333</ele><time>2026-04-27T12:25:19.038Z</time></trkpt><trkpt lat="33.9845167" lon="-6.7543283"><ele>64.0</ele><time>2026-04-27T12:25:20.037Z</time></trkpt><trkpt lat="33.98453" lon="-6.7540683"><ele>63.0</ele><time>2026-04-27T12:25:21.038Z</time></trkpt><trkpt lat="33.9845317" lon="-6.753815"><ele>62.0</ele><time>2026-04-27T12:25:22.038Z</time></trkpt><trkpt lat="33.9845283" lon="-6.753565"><ele>61.0</ele><time>2026-04-27T12:25:23.038Z</time></trkpt><trkpt lat="33.9845167" lon="-6.753315"><ele>66.66666666666666</ele><time>2026-04-27T12:25:24.037Z</time></trkpt><trkpt lat="33.9844933" lon="-6.7530617"><ele>72.33333333333333</ele><time>2026-04-27T12:25:25.037Z</time></trkpt><trkpt lat="33.9844633" lon="-6.7528083"><ele>78.0</ele><time>2026-04-27T12:25:26.037Z</time></trkpt><trkpt lat="33.98444" lon="-6.7525533"><ele>83.33333333333333</ele><time>2026-04-27T12:25:27.038Z</time></trkpt><trkpt lat="33.98442" lon="-6.7522967"><ele>88.66666666666666</ele><time>2026-04-27T12:25:28.037Z</time></trkpt><trkpt lat="33.9844083" lon="-6.7520567"><ele>94.0</ele><time>2026-04-27T12:25:29.038Z</time></trkpt><trkpt lat="33.984405" lon="-6.7518333"><ele>94.33333333333333</ele><time>2026-04-27T12:25:30.038Z</time></trkpt><trkpt lat="33.9844167" lon="-6.7516183"><ele>94.66666666666667</ele><time>2026-04-27T12:25:31.038Z</time></trkpt><trkpt lat="33.9844317" lon="-6.7513983"><ele>95.0</ele><time>2026-04-27T12:25:32.037Z</time></trkpt><trkpt lat="33.9844417" lon="-6.7511867"><ele>95.0</ele><time>2026-04-27T12:25:33.038Z</time></trkpt><trkpt lat="33.9844683" lon="-6.7509717"><ele>95.0</ele><time>2026-04-27T12:25:34.038Z</time></trkpt><trkpt lat="33.9845033" lon="-6.7507533"><ele>95.0</ele><time>2026-04-27T12:25:35.038Z</time></trkpt><trkpt lat="33.984545" lon="-6.7505333"><ele>95.0</ele><time>2026-04-27T12:25:36.038Z</time></trkpt><trkpt lat="33.9845967" lon="-6.7503167"><ele>95.0</ele><time>2026-04-27T12:25:37.038Z</time></trkpt><trkpt lat="33.9846467" lon="-6.75009"><ele>95.0</ele><time>2026-04-27T12:25:38.038Z</time></trkpt><trkpt lat="33.9847" lon="-6.7498533"><ele>94.66666666666667</ele><time>2026-04-27T12:25:39.038Z</time></trkpt><trkpt lat="33.9847583" lon="-6.7496117"><ele>94.33333333333333</ele><time>2026-04-27T12:25:40.038Z</time></trkpt><trkpt lat="33.9848217" lon="-6.7493617"><ele>94.0</ele><time>2026-04-27T12:25:41.037Z</time></trkpt><trkpt lat="33.9848683" lon="-6.7490917"><ele>94.0</ele><time>2026-04-27T12:25:42.038Z</time></trkpt><trkpt lat="33.984915" lon="-6.748815"><ele>94.0</ele><time>2026-04-27T12:25:43.038Z</time></trkpt><trkpt lat="33.98496" lon="-6.748525"><ele>96.5</ele><time>2026-04-27T12:25:44.038Z</time></trkpt><trkpt lat="33.9849867" lon="-6.7482433"><ele>99.0</ele><time>2026-04-27T12:25:45.038Z</time></trkpt><trkpt lat="33.9849967" lon="-6.7479717"><ele>99.0</ele><time>2026-04-27T12:25:46.038Z</time></trkpt><trkpt lat="33.9850067" lon="-6.7477183"><ele>99.0</ele><time>2026-04-27T12:25:47.038Z</time></trkpt><trkpt lat="33.98501" lon="-6.7474667"><ele>99.0</ele><time>2026-04-27T12:25:48.038Z</time></trkpt><trkpt lat="33.98498" lon="-6.7472183"><ele>101.33333333333334</ele><time>2026-04-27T12:25:49.038Z</time></trkpt><trkpt lat="33.98494" lon="-6.7469767"><ele>103.66666666666667</ele><time>2026-04-27T12:25:50.038Z</time></trkpt><trkpt lat="33.98489" lon="-6.746745"><ele>106.0</ele><time>2026-04-27T12:25:51.038Z</time></trkpt><trkpt lat="33.9848267" lon="-6.7465117"><ele>106.66666666666667</ele><time>2026-04-27T12:25:52.038Z</time></trkpt><trkpt lat="33.9847517" lon="-6.746285"><ele>107.33333333333334</ele><time>2026-04-27T12:25:53.038Z</time></trkpt><trkpt lat="33.9846767" lon="-6.7460683"><ele>108.0</ele><time>2026-04-27T12:25:54.038Z</time></trkpt><trkpt lat="33.9846" lon="-6.7458617"><ele>109.0</ele><time>2026-04-27T12:25:55.038Z</time></trkpt><trkpt lat="33.9845167" lon="-6.7456617"><ele>110.0</ele><time>2026-04-27T12:25:56.038Z</time></trkpt><trkpt lat="33.9844217" lon="-6.74546"><ele>111.0</ele><time>2026-04-27T12:25:57.038Z</time></trkpt><trkpt lat="33.9843217" lon="-6.7452667"><ele>113.33333333333334</ele><time>2026-04-27T12:25:58.037Z</time></trkpt><trkpt lat="33.9842017" lon="-6.7450817"><ele>115.66666666666667</ele><time>2026-04-27T12:25:59.038Z</time></trkpt><trkpt lat="33.984065" lon="-6.7449033"><ele>118.0</ele><time>2026-04-27T12:26:00.038Z</time></trkpt><trkpt lat="33.9839067" lon="-6.7447333"><ele>118.0</ele><time>2026-04-27T12:26:01.038Z</time></trkpt><trkpt lat="33.983745" lon="-6.7445583"><ele>118.0</ele><time>2026-04-27T12:26:02.038Z</time></trkpt><trkpt lat="33.9835783" lon="-6.7443867"><ele>118.0</ele><time>2026-04-27T12:26:03.038Z</time></trkpt><trkpt lat="33.9834133" lon="-6.7442183"><ele>118.66666666666667</ele><time>2026-04-27T12:26:04.038Z</time></trkpt><trkpt lat="33.9832617" lon="-6.7440517"><ele>119.33333333333334</ele><time>2026-04-27T12:26:05.038Z</time></trkpt><trkpt lat="33.9831183" lon="-6.7438833"><ele>120.0</ele><time>2026-04-27T12:26:06.038Z</time></trkpt><trkpt lat="33.9829717" lon="-6.743715"><ele>122.33333333333334</ele><time>2026-04-27T12:26:07.038Z</time></trkpt><trkpt lat="33.9828133" lon="-6.74354"><ele>124.66666666666667</ele><time>2026-04-27T12:26:08.038Z</time></trkpt><trkpt lat="33.9826617" lon="-6.743365"><ele>127.0</ele><time>2026-04-27T12:26:09.037Z</time></trkpt><trkpt lat="33.9825183" lon="-6.7431983"><ele>127.66666666666667</ele><time>2026-04-27T12:26:10.038Z</time></trkpt><trkpt lat="33.9823867" lon="-6.7430333"><ele>128.33333333333334</ele><time>2026-04-27T12:26:11.038Z</time></trkpt><trkpt lat="33.982255" lon="-6.7428683"><ele>129.0</ele><time>2026-04-27T12:26:12.037Z</time></trkpt><trkpt lat="33.9821217" lon="-6.742695"><ele>130.0</ele><time>2026-04-27T12:26:13.038Z</time></trkpt><trkpt lat="33.9819967" lon="-6.7425083"><ele>131.0</ele><time>2026-04-27T12:26:14.038Z</time></trkpt><trkpt lat="33.9818817" lon="-6.7423183"><ele>132.0</ele><time>2026-04-27T12:26:15.038Z</time></trkpt><trkpt lat="33.9817767" lon="-6.7421283"><ele>133.0</ele><time>2026-04-27T12:26:16.038Z</time></trkpt><trkpt lat="33.9816717" lon="-6.7419283"><ele>134.0</ele><time>2026-04-27T12:26:17.038Z</time></trkpt><trkpt lat="33.9815683" lon="-6.741725"><ele>135.0</ele><time>2026-04-27T12:26:18.038Z</time></trkpt><trkpt lat="33.9814683" lon="-6.7415133"><ele>135.0</ele><time>2026-04-27T12:26:19.038Z</time></trkpt><trkpt lat="33.9813733" lon="-6.74129"><ele>135.0</ele><time>2026-04-27T12:26:20.038Z</time></trkpt><trkpt lat="33.981285" lon="-6.74106"><ele>135.0</ele><time>2026-04-27T12:26:21.038Z</time></trkpt><trkpt lat="33.9811967" lon="-6.7408317"><ele>136.33333333333334</ele><time>2026-04-27T12:26:22.038Z</time></trkpt><trkpt lat="33.981115" lon="-6.7406033"><ele>137.66666666666669</ele><time>2026-04-27T12:26:23.038Z</time></trkpt><trkpt lat="33.98105" lon="-6.7403867"><ele>139.0</ele><time>2026-04-27T12:26:24.038Z</time></trkpt><trkpt lat="33.9809683" lon="-6.740145"><ele>140.33333333333334</ele><time>2026-04-27T12:26:25.038Z</time></trkpt><trkpt lat="33.9808917" lon="-6.7399067"><ele>141.66666666666666</ele><time>2026-04-27T12:26:26.038Z</time></trkpt><trkpt lat="33.9808183" lon="-6.7396683"><ele>143.0</ele><time>2026-04-27T12:26:27.038Z</time></trkpt><trkpt lat="33.98075" lon="-6.739425"><ele>143.0</ele><time>2026-04-27T12:26:28.038Z</time></trkpt><trkpt lat="33.9806767" lon="-6.7391817"><ele>143.0</ele><time>2026-04-27T12:26:29.038Z</time></trkpt><trkpt lat="33.980605" lon="-6.73894"><ele>143.0</ele><time>2026-04-27T12:26:30.038Z</time></trkpt><trkpt lat="33.9805333" lon="-6.7387033"><ele>143.66666666666666</ele><time>2026-04-27T12:26:31.037Z</time></trkpt><trkpt lat="33.9804667" lon="-6.7384767"><ele>144.33333333333334</ele><time>2026-04-27T12:26:32.038Z</time></trkpt><trkpt lat="33.980405" lon="-6.7382467"><ele>145.0</ele><time>2026-04-27T12:26:33.038Z</time></trkpt><trkpt lat="33.98035" lon="-6.73801"><ele>145.0</ele><time>2026-04-27T12:26:34.038Z</time></trkpt><trkpt lat="33.9803033" lon="-6.7377633"><ele>145.0</ele><time>2026-04-27T12:26:35.038Z</time></trkpt><trkpt lat="33.9802817" lon="-6.7375083"><ele>145.0</ele><time>2026-04-27T12:26:36.038Z</time></trkpt><trkpt lat="33.98027" lon="-6.7372417"><ele>145.5</ele><time>2026-04-27T12:26:37.037Z</time></trkpt><trkpt lat="33.9802667" lon="-6.736965"><ele>146.0</ele><time>2026-04-27T12:26:38.038Z</time></trkpt><trkpt lat="33.98028" lon="-6.7366833"><ele>144.0</ele><time>2026-04-27T12:26:39.038Z</time></trkpt><trkpt lat="33.9803" lon="-6.7364"><ele>142.0</ele><time>2026-04-27T12:26:40.038Z</time></trkpt><trkpt lat="33.9803367" lon="-6.7361217"><ele>141.0</ele><time>2026-04-27T12:26:41.038Z</time></trkpt><trkpt lat="33.9803733" lon="-6.7358533"><ele>140.0</ele><time>2026-04-27T12:26:42.038Z</time></trkpt><trkpt lat="33.980425" lon="-6.735585"><ele>140.0</ele><time>2026-04-27T12:26:43.038Z</time></trkpt><trkpt lat="33.9804933" lon="-6.7353267"><ele>140.0</ele><time>2026-04-27T12:26:44.038Z</time></trkpt><trkpt lat="33.9805583" lon="-6.7350617"><ele>140.0</ele><time>2026-04-27T12:26:45.038Z</time></trkpt><trkpt lat="33.980635" lon="-6.7347867"><ele>140.0</ele><time>2026-04-27T12:26:46.038Z</time></trkpt><trkpt lat="33.9806833" lon="-6.73451"><ele>139.0</ele><time>2026-04-27T12:26:47.038Z</time></trkpt><trkpt lat="33.9807333" lon="-6.73425"><ele>138.0</ele><time>2026-04-27T12:26:48.038Z</time></trkpt><trkpt lat="33.980785" lon="-6.7340033"><ele>137.0</ele><time>2026-04-27T12:26:49.038Z</time></trkpt><trkpt lat="33.9808467" lon="-6.733775"><ele>138.0</ele><time>2026-04-27T12:26:50.037Z</time></trkpt><trkpt lat="33.9809167" lon="-6.733555"><ele>139.0</ele><time>2026-04-27T12:26:51.038Z</time></trkpt><trkpt lat="33.9809967" lon="-6.7333483"><ele>140.0</ele><time>2026-04-27T12:26:52.038Z</time></trkpt><trkpt lat="33.9810833" lon="-6.733145"><ele>140.0</ele><time>2026-04-27T12:26:53.038Z</time></trkpt><trkpt lat="33.9811883" lon="-6.73295"><ele>140.0</ele><time>2026-04-27T12:26:54.037Z</time></trkpt><trkpt lat="33.98131" lon="-6.732765"><ele>140.0</ele><time>2026-04-27T12:26:55.038Z</time></trkpt><trkpt lat="33.9814433" lon="-6.7325867"><ele>140.0</ele><time>2026-04-27T12:26:56.038Z</time></trkpt><trkpt lat="33.9815967" lon="-6.7324317"><ele>140.0</ele><time>2026-04-27T12:26:57.038Z</time></trkpt><trkpt lat="33.9817633" lon="-6.73229"><ele>140.0</ele><time>2026-04-27T12:26:58.038Z</time></trkpt><trkpt lat="33.981935" lon="-6.732175"><ele>139.66666666666666</ele><time>2026-04-27T12:26:59.038Z</time></trkpt><trkpt lat="33.9821033" lon="-6.7320833"><ele>139.33333333333334</ele><time>2026-04-27T12:27:00.038Z</time></trkpt><trkpt lat="33.982285" lon="-6.732005"><ele>139.0</ele><time>2026-04-27T12:27:01.038Z</time></trkpt><trkpt lat="33.9824733" lon="-6.731935"><ele>138.33333333333334</ele><time>2026-04-27T12:27:02.037Z</time></trkpt><trkpt lat="33.98268" lon="-6.73188"><ele>137.66666666666666</ele><time>2026-04-27T12:27:03.038Z</time></trkpt><trkpt lat="33.982885" lon="-6.73184"><ele>137.0</ele><time>2026-04-27T12:27:04.038Z</time></trkpt><trkpt lat="33.9830933" lon="-6.73181"><ele>137.0</ele><time>2026-04-27T12:27:05.038Z</time></trkpt><trkpt lat="33.98331" lon="-6.731775"><ele>137.0</ele><time>2026-04-27T12:27:06.037Z</time></trkpt><trkpt lat="33.9835233" lon="-6.7317317"><ele>137.0</ele><time>2026-04-27T12:27:07.038Z</time></trkpt><trkpt lat="33.9837417" lon="-6.7316767"><ele>138.0</ele><time>2026-04-27T12:27:08.038Z</time></trkpt><trkpt lat="33.9839583" lon="-6.7316117"><ele>139.0</ele><time>2026-04-27T12:27:09.038Z</time></trkpt><trkpt lat="33.98416" lon="-6.7315333"><ele>140.0</ele><time>2026-04-27T12:27:10.038Z</time></trkpt><trkpt lat="33.9843567" lon="-6.7314383"><ele>140.0</ele><time>2026-04-27T12:27:11.038Z</time></trkpt><trkpt lat="33.9845533" lon="-6.7313267"><ele>140.0</ele><time>2026-04-27T12:27:12.038Z</time></trkpt><trkpt lat="33.9847433" lon="-6.73119"><ele>140.0</ele><time>2026-04-27T12:27:13.038Z</time></trkpt><trkpt lat="33.9849283" lon="-6.7310317"><ele>140.0</ele><time>2026-04-27T12:27:14.038Z</time></trkpt><trkpt lat="33.9851167" lon="-6.7308717"><ele>140.0</ele><time>2026-04-27T12:27:15.038Z</time></trkpt><trkpt lat="33.9853083" lon="-6.730715"><ele>140.0</ele><time>2026-04-27T12:27:16.038Z</time></trkpt><trkpt lat="33.9855" lon="-6.7305533"><ele>140.0</ele><time>2026-04-27T12:27:17.037Z</time></trkpt><trkpt lat="33.9856867" lon="-6.7303883"><ele>140.5</ele><time>2026-04-27T12:27:18.038Z</time></trkpt><trkpt lat="33.98587" lon="-6.73023"><ele>141.0</ele><time>2026-04-27T12:27:19.038Z</time></trkpt><trkpt lat="33.986055" lon="-6.7300717"><ele>139.0</ele><time>2026-04-27T12:27:20.038Z</time></trkpt><trkpt lat="33.9862417" lon="-6.7299017"><ele>137.0</ele><time>2026-04-27T12:27:21.038Z</time></trkpt><trkpt lat="33.9864267" lon="-6.7297367"><ele>137.0</ele><time>2026-04-27T12:27:22.038Z</time></trkpt><trkpt lat="33.98661" lon="-6.7295667"><ele>137.0</ele><time>2026-04-27T12:27:23.038Z</time></trkpt><trkpt lat="33.9868" lon="-6.7293983"><ele>137.5</ele><time>2026-04-27T12:27:24.038Z</time></trkpt><trkpt lat="33.9869883" lon="-6.7292333"><ele>138.0</ele><time>2026-04-27T12:27:25.038Z</time></trkpt><trkpt lat="33.987165" lon="-6.729075"><ele>138.0</ele><time>2026-04-27T12:27:26.037Z</time></trkpt><trkpt lat="33.9873433" lon="-6.7289167"><ele>138.0</ele><time>2026-04-27T12:27:27.038Z</time></trkpt><trkpt lat="33.98752" lon="-6.7287633"><ele>138.0</ele><time>2026-04-27T12:27:28.038Z</time></trkpt><trkpt lat="33.987695" lon="-6.728605"><ele>138.0</ele><time>2026-04-27T12:27:29.038Z</time></trkpt><trkpt lat="33.9878733" lon="-6.7284467"><ele>138.0</ele><time>2026-04-27T12:27:30.038Z</time></trkpt><trkpt lat="33.9880533" lon="-6.7282917"><ele>138.0</ele><time>2026-04-27T12:27:31.038Z</time></trkpt><trkpt lat="33.9882383" lon="-6.728135"><ele>139.5</ele><time>2026-04-27T12:27:32.038Z</time></trkpt><trkpt lat="33.9884233" lon="-6.72798"><ele>141.0</ele><time>2026-04-27T12:27:33.038Z</time></trkpt><trkpt lat="33.98861" lon="-6.7278233"><ele>139.5</ele><time>2026-04-27T12:27:34.038Z</time></trkpt><trkpt lat="33.988795" lon="-6.7276667"><ele>138.0</ele><time>2026-04-27T12:27:35.038Z</time></trkpt><trkpt lat="33.988985" lon="-6.727515"><ele>138.0</ele><time>2026-04-27T12:27:36.038Z</time></trkpt><trkpt lat="33.989175" lon="-6.7273567"><ele>138.0</ele><time>2026-04-27T12:27:37.038Z</time></trkpt><trkpt lat="33.9893683" lon="-6.7272"><ele>138.5</ele><time>2026-04-27T12:27:38.038Z</time></trkpt><trkpt lat="33.9895633" lon="-6.7270467"><ele>139.0</ele><time>2026-04-27T12:27:39.038Z</time></trkpt><trkpt lat="33.9897667" lon="-6.7268917"><ele>139.0</ele><time>2026-04-27T12:27:40.038Z</time></trkpt><trkpt lat="33.989975" lon="-6.726735"><ele>139.0</ele><time>2026-04-27T12:27:41.038Z</time></trkpt><trkpt lat="33.99018" lon="-6.72658"><ele>139.0</ele><time>2026-04-27T12:27:42.038Z</time></trkpt><trkpt lat="33.9903833" lon="-6.7264233"><ele>139.0</ele><time>2026-04-27T12:27:43.038Z</time></trkpt><trkpt lat="33.990595" lon="-6.7262733"><ele>139.0</ele><time>2026-04-27T12:27:44.038Z</time></trkpt><trkpt lat="33.99081" lon="-6.7261133"><ele>139.0</ele><time>2026-04-27T12:27:45.038Z</time></trkpt><trkpt lat="33.9910283" lon="-6.7259633"><ele>138.5</ele><time>2026-04-27T12:27:46.038Z</time></trkpt><trkpt lat="33.9912517" lon="-6.725815"><ele>138.0</ele><time>2026-04-27T12:27:47.037Z</time></trkpt><trkpt lat="33.99148" lon="-6.72567"><ele>137.0</ele><time>2026-04-27T12:27:48.038Z</time></trkpt><trkpt lat="33.9917083" lon="-6.7255267"><ele>136.0</ele><time>2026-04-27T12:27:49.038Z</time></trkpt><trkpt lat="33.9919367" lon="-6.725375"><ele>135.5</ele><time>2026-04-27T12:27:50.038Z</time></trkpt><trkpt lat="33.9921617" lon="-6.7252233"><ele>135.0</ele><time>2026-04-27T12:27:51.037Z</time></trkpt><trkpt lat="33.9923933" lon="-6.7250783"><ele>134.5</ele><time>2026-04-27T12:27:52.038Z</time></trkpt><trkpt lat="33.9926217" lon="-6.7249333"><ele>134.0</ele><time>2026-04-27T12:27:53.038Z</time></trkpt><trkpt lat="33.99284" lon="-6.724785"><ele>134.0</ele><time>2026-04-27T12:27:54.038Z</time></trkpt><trkpt lat="33.9930533" lon="-6.72464"><ele>134.0</ele><time>2026-04-27T12:27:55.038Z</time></trkpt><trkpt lat="33.9932733" lon="-6.724505"><ele>134.0</ele><time>2026-04-27T12:27:56.038Z</time></trkpt><trkpt lat="33.9934867" lon="-6.724365"><ele>134.0</ele><time>2026-04-27T12:27:57.038Z</time></trkpt><trkpt lat="33.9937" lon="-6.7242267"><ele>134.0</ele><time>2026-04-27T12:27:58.038Z</time></trkpt><trkpt lat="33.9939167" lon="-6.7240833"><ele>134.0</ele><time>2026-04-27T12:27:59.038Z</time></trkpt><trkpt lat="33.994135" lon="-6.7239417"><ele>133.5</ele><time>2026-04-27T12:28:00.038Z</time></trkpt><trkpt lat="33.994355" lon="-6.723795"><ele>133.0</ele><time>2026-04-27T12:28:01.038Z</time></trkpt><trkpt lat="33.9945783" lon="-6.7236567"><ele>133.0</ele><time>2026-04-27T12:28:02.038Z</time></trkpt><trkpt lat="33.9948" lon="-6.723515"><ele>133.0</ele><time>2026-04-27T12:28:03.038Z</time></trkpt><trkpt lat="33.9950233" lon="-6.7233767"><ele>133.0</ele><time>2026-04-27T12:28:04.038Z</time></trkpt><trkpt lat="33.99524" lon="-6.7232367"><ele>133.0</ele><time>2026-04-27T12:28:05.038Z</time></trkpt><trkpt lat="33.9954617" lon="-6.7230933"><ele>133.0</ele><time>2026-04-27T12:28:06.038Z</time></trkpt><trkpt lat="33.995675" lon="-6.7229567"><ele>133.0</ele><time>2026-04-27T12:28:07.038Z</time></trkpt><trkpt lat="33.995885" lon="-6.7228233"><ele>134.0</ele><time>2026-04-27T12:28:08.038Z</time></trkpt><trkpt lat="33.996095" lon="-6.7226883"><ele>135.0</ele><time>2026-04-27T12:28:09.038Z</time></trkpt><trkpt lat="33.996305" lon="-6.7225483"><ele>135.0</ele><time>2026-04-27T12:28:10.037Z</time></trkpt><trkpt lat="33.996515" lon="-6.7224167"><ele>135.0</ele><time>2026-04-27T12:28:11.038Z</time></trkpt><trkpt lat="33.9967267" lon="-6.7222817"><ele>135.5</ele><time>2026-04-27T12:28:12.038Z</time></trkpt><trkpt lat="33.996935" lon="-6.722145"><ele>136.0</ele><time>2026-04-27T12:28:13.038Z</time></trkpt><trkpt lat="33.997145" lon="-6.7219983"><ele>135.5</ele><time>2026-04-27T12:28:14.038Z</time></trkpt><trkpt lat="33.9973483" lon="-6.7218567"><ele>135.0</ele><time>2026-04-27T12:28:15.038Z</time></trkpt><trkpt lat="33.9975517" lon="-6.7217083"><ele>135.0</ele><time>2026-04-27T12:28:16.038Z</time></trkpt><trkpt lat="33.99775" lon="-6.7215517"><ele>135.0</ele><time>2026-04-27T12:28:17.038Z</time></trkpt><trkpt lat="33.9979517" lon="-6.721395"><ele>135.0</ele><time>2026-04-27T12:28:18.038Z</time></trkpt><trkpt lat="33.9981533" lon="-6.72123"><ele>135.0</ele><time>2026-04-27T12:28:19.038Z</time></trkpt><trkpt lat="33.998355" lon="-6.72106"><ele>134.5</ele><time>2026-04-27T12:28:20.038Z</time></trkpt><trkpt lat="33.99856" lon="-6.7208917"><ele>134.0</ele><time>2026-04-27T12:28:21.038Z</time></trkpt><trkpt lat="33.9987633" lon="-6.72072"><ele>134.0</ele><time>2026-04-27T12:28:22.038Z</time></trkpt><trkpt lat="33.9989617" lon="-6.720545"><ele>134.0</ele><time>2026-04-27T12:28:23.038Z</time></trkpt><trkpt lat="33.9991567" lon="-6.7203783"><ele>135.0</ele><time>2026-04-27T12:28:24.038Z</time></trkpt><trkpt lat="33.99935" lon="-6.7202083"><ele>136.0</ele><time>2026-04-27T12:28:25.038Z</time></trkpt><trkpt lat="33.999535" lon="-6.7200433"><ele>136.0</ele><time>2026-04-27T12:28:26.037Z</time></trkpt><trkpt lat="33.9997183" lon="-6.719885"><ele>136.0</ele><time>2026-04-27T12:28:27.038Z</time></trkpt><trkpt lat="33.9998967" lon="-6.7197233"><ele>136.0</ele><time>2026-04-27T12:28:28.038Z</time></trkpt><trkpt lat="34.0000817" lon="-6.7195633"><ele>136.5</ele><time>2026-04-27T12:28:29.038Z</time></trkpt><trkpt lat="34.0002617" lon="-6.7193917"><ele>137.0</ele><time>2026-04-27T12:28:30.037Z</time></trkpt><trkpt lat="34.000455" lon="-6.7192133"><ele>137.0</ele><time>2026-04-27T12:28:31.038Z</time></trkpt><trkpt lat="34.0006433" lon="-6.7190233"><ele>137.0</ele><time>2026-04-27T12:28:32.038Z</time></trkpt><trkpt lat="34.0008417" lon="-6.7188433"><ele>136.5</ele><time>2026-04-27T12:28:33.038Z</time></trkpt><trkpt lat="34.00104" lon="-6.7186567"><ele>136.0</ele><time>2026-04-27T12:28:34.038Z</time></trkpt><trkpt lat="34.0012333" lon="-6.7184617"><ele>136.0</ele><time>2026-04-27T12:28:35.038Z</time></trkpt><trkpt lat="34.0014233" lon="-6.718265"><ele>136.0</ele><time>2026-04-27T12:28:36.038Z</time></trkpt><trkpt lat="34.001615" lon="-6.7180733"><ele>136.5</ele><time>2026-04-27T12:28:37.037Z</time></trkpt><trkpt lat="34.0018067" lon="-6.717885"><ele>137.0</ele><time>2026-04-27T12:28:38.037Z</time></trkpt><trkpt lat="34.0019983" lon="-6.717695"><ele>137.0</ele><time>2026-04-27T12:28:39.038Z</time></trkpt><trkpt lat="34.0021917" lon="-6.7175067"><ele>137.0</ele><time>2026-04-27T12:28:40.037Z</time></trkpt><trkpt lat="34.0023833" lon="-6.7173183"><ele>135.0</ele><time>2026-04-27T12:28:41.038Z</time></trkpt><trkpt lat="34.0025783" lon="-6.7171317"><ele>133.0</ele><time>2026-04-27T12:28:42.038Z</time></trkpt><trkpt lat="34.0027717" lon="-6.7169533"><ele>135.5</ele><time>2026-04-27T12:28:43.038Z</time></trkpt><trkpt lat="34.0029567" lon="-6.7167783"><ele>138.0</ele><time>2026-04-27T12:28:44.037Z</time></trkpt><trkpt lat="34.00314" lon="-6.716605"><ele>138.0</ele><time>2026-04-27T12:28:45.038Z</time></trkpt><trkpt lat="34.0033217" lon="-6.716435"><ele>138.0</ele><time>2026-04-27T12:28:46.038Z</time></trkpt><trkpt lat="34.0035017" lon="-6.7162633"><ele>138.0</ele><time>2026-04-27T12:28:47.038Z</time></trkpt><trkpt lat="34.003685" lon="-6.7160883"><ele>138.0</ele><time>2026-04-27T12:28:48.038Z</time></trkpt><trkpt lat="34.0038683" lon="-6.7159117"><ele>138.0</ele><time>2026-04-27T12:28:49.038Z</time></trkpt><trkpt lat="34.0040533" lon="-6.715735"><ele>138.0</ele><time>2026-04-27T12:28:50.038Z</time></trkpt><trkpt lat="34.0042367" lon="-6.7155583"><ele>137.0</ele><time>2026-04-27T12:28:51.038Z</time></trkpt><trkpt lat="34.00442" lon="-6.7153883"><ele>136.0</ele><time>2026-04-27T12:28:52.038Z</time></trkpt><trkpt lat="34.004595" lon="-6.7152217"><ele>136.0</ele><time>2026-04-27T12:28:53.038Z</time></trkpt><trkpt lat="34.0047683" lon="-6.7150483"><ele>136.0</ele><time>2026-04-27T12:28:54.038Z</time></trkpt><trkpt lat="34.0049383" lon="-6.7148767"><ele>136.0</ele><time>2026-04-27T12:28:55.038Z</time></trkpt><trkpt lat="34.0051117" lon="-6.714705"><ele>136.0</ele><time>2026-04-27T12:28:56.038Z</time></trkpt><trkpt lat="34.0052917" lon="-6.7145383"><ele>136.0</ele><time>2026-04-27T12:28:57.038Z</time></trkpt><trkpt lat="34.00547" lon="-6.7143667"><ele>135.5</ele><time>2026-04-27T12:28:58.038Z</time></trkpt><trkpt lat="34.00565" lon="-6.7141967"><ele>135.0</ele><time>2026-04-27T12:28:59.038Z</time></trkpt><trkpt lat="34.00583" lon="-6.71402"><ele>136.0</ele><time>2026-04-27T12:29:00.038Z</time></trkpt><trkpt lat="34.0060117" lon="-6.7138433"><ele>137.0</ele><time>2026-04-27T12:29:01.038Z</time></trkpt><trkpt lat="34.0062" lon="-6.7136667"><ele>136.0</ele><time>2026-04-27T12:29:02.038Z</time></trkpt><trkpt lat="34.00639" lon="-6.713485"><ele>135.0</ele><time>2026-04-27T12:29:03.038Z</time></trkpt><trkpt lat="34.0065817" lon="-6.7133017"><ele>135.5</ele><time>2026-04-27T12:29:04.038Z</time></trkpt><trkpt lat="34.0067717" lon="-6.7131167"><ele>136.0</ele><time>2026-04-27T12:29:05.037Z</time></trkpt><trkpt lat="34.0069633" lon="-6.712935"><ele>136.0</ele><time>2026-04-27T12:29:06.038Z</time></trkpt><trkpt lat="34.0071533" lon="-6.712755"><ele>136.0</ele><time>2026-04-27T12:29:07.038Z</time></trkpt><trkpt lat="34.007345" lon="-6.7125717"><ele>136.5</ele><time>2026-04-27T12:29:08.038Z</time></trkpt><trkpt lat="34.0075383" lon="-6.7123917"><ele>137.0</ele><time>2026-04-27T12:29:09.038Z</time></trkpt><trkpt lat="34.0077333" lon="-6.7122033"><ele>137.0</ele><time>2026-04-27T12:29:10.038Z</time></trkpt><trkpt lat="34.00793" lon="-6.7120183"><ele>137.0</ele><time>2026-04-27T12:29:11.038Z</time></trkpt><trkpt lat="34.0081283" lon="-6.711835"><ele>136.5</ele><time>2026-04-27T12:29:12.038Z</time></trkpt><trkpt lat="34.0083233" lon="-6.711645"><ele>136.0</ele><time>2026-04-27T12:29:13.038Z</time></trkpt><trkpt lat="34.0085233" lon="-6.7114667"><ele>136.0</ele><time>2026-04-27T12:29:14.037Z</time></trkpt><trkpt lat="34.0087183" lon="-6.711275"><ele>136.0</ele><time>2026-04-27T12:29:15.038Z</time></trkpt><trkpt lat="34.008925" lon="-6.711095"><ele>136.0</ele><time>2026-04-27T12:29:16.038Z</time></trkpt><trkpt lat="34.0091317" lon="-6.71093"><ele>136.0</ele><time>2026-04-27T12:29:17.038Z</time></trkpt><trkpt lat="34.00934" lon="-6.710765"><ele>137.0</ele><time>2026-04-27T12:29:18.038Z</time></trkpt><trkpt lat="34.0095517" lon="-6.710605"><ele>138.0</ele><time>2026-04-27T12:29:19.037Z</time></trkpt><trkpt lat="34.0097533" lon="-6.710455"><ele>138.0</ele><time>2026-04-27T12:29:20.038Z</time></trkpt><trkpt lat="34.00995" lon="-6.71031"><ele>138.0</ele><time>2026-04-27T12:29:21.038Z</time></trkpt><trkpt lat="34.0101567" lon="-6.710175"><ele>137.5</ele><time>2026-04-27T12:29:22.038Z</time></trkpt><trkpt lat="34.0103667" lon="-6.7100383"><ele>137.0</ele><time>2026-04-27T12:29:23.038Z</time></trkpt><trkpt lat="34.0105767" lon="-6.70991"><ele>137.0</ele><time>2026-04-27T12:29:24.038Z</time></trkpt><trkpt lat="34.010795" lon="-6.709785"><ele>137.0</ele><time>2026-04-27T12:29:25.038Z</time></trkpt><trkpt lat="34.011015" lon="-6.7096667"><ele>138.5</ele><time>2026-04-27T12:29:26.037Z</time></trkpt><trkpt lat="34.01124" lon="-6.709545"><ele>140.0</ele><time>2026-04-27T12:29:27.038Z</time></trkpt><trkpt lat="34.01147" lon="-6.709435"><ele>140.0</ele><time>2026-04-27T12:29:28.038Z</time></trkpt><trkpt lat="34.0117" lon="-6.709325"><ele>140.0</ele><time>2026-04-27T12:29:29.038Z</time></trkpt><trkpt lat="34.0119317" lon="-6.7092217"><ele>140.0</ele><time>2026-04-27T12:29:30.038Z</time></trkpt><trkpt lat="34.0121633" lon="-6.7091167"><ele>140.0</ele><time>2026-04-27T12:29:31.038Z</time></trkpt><trkpt lat="34.0123967" lon="-6.709025"><ele>141.0</ele><time>2026-04-27T12:29:32.038Z</time></trkpt><trkpt lat="34.012635" lon="-6.7089433"><ele>142.0</ele><time>2026-04-27T12:29:33.038Z</time></trkpt><trkpt lat="34.0128767" lon="-6.7088567"><ele>142.0</ele><time>2026-04-27T12:29:34.037Z</time></trkpt><trkpt lat="34.0131267" lon="-6.7087867"><ele>142.0</ele><time>2026-04-27T12:29:35.038Z</time></trkpt><trkpt lat="34.0133817" lon="-6.708715"><ele>145.0</ele><time>2026-04-27T12:29:36.038Z</time></trkpt><trkpt lat="34.013635" lon="-6.7086533"><ele>148.0</ele><time>2026-04-27T12:29:37.038Z</time></trkpt><trkpt lat="34.013875" lon="-6.708605"><ele>147.5</ele><time>2026-04-27T12:29:38.038Z</time></trkpt><trkpt lat="34.0141117" lon="-6.7085633"><ele>147.0</ele><time>2026-04-27T12:29:39.038Z</time></trkpt><trkpt lat="34.0143433" lon="-6.708525"><ele>147.0</ele><time>2026-04-27T12:29:40.037Z</time></trkpt><trkpt lat="34.0145683" lon="-6.7084917"><ele>147.0</ele><time>2026-04-27T12:29:41.038Z</time></trkpt><trkpt lat="34.0147983" lon="-6.7084633"><ele>147.5</ele><time>2026-04-27T12:29:42.038Z</time></trkpt><trkpt lat="34.01503" lon="-6.7084333"><ele>148.0</ele><time>2026-04-27T12:29:43.038Z</time></trkpt><trkpt lat="34.01526" lon="-6.70841"><ele>148.0</ele><time>2026-04-27T12:29:44.038Z</time></trkpt><trkpt lat="34.015485" lon="-6.7083917"><ele>148.0</ele><time>2026-04-27T12:29:45.037Z</time></trkpt><trkpt lat="34.015705" lon="-6.708385"><ele>148.0</ele><time>2026-04-27T12:29:46.038Z</time></trkpt><trkpt lat="34.0159267" lon="-6.70838"><ele>148.0</ele><time>2026-04-27T12:29:47.038Z</time></trkpt><trkpt lat="34.0161483" lon="-6.7083817"><ele>148.0</ele><time>2026-04-27T12:29:48.038Z</time></trkpt><trkpt lat="34.0163633" lon="-6.70839"><ele>148.0</ele><time>2026-04-27T12:29:49.038Z</time></trkpt><trkpt lat="34.0165833" lon="-6.7083983"><ele>147.5</ele><time>2026-04-27T12:29:50.038Z</time></trkpt><trkpt lat="34.0168083" lon="-6.7084133"><ele>147.0</ele><time>2026-04-27T12:29:51.038Z</time></trkpt><trkpt lat="34.0170367" lon="-6.7084283"><ele>147.0</ele><time>2026-04-27T12:29:52.038Z</time></trkpt><trkpt lat="34.0172767" lon="-6.7084533"><ele>147.0</ele><time>2026-04-27T12:29:53.038Z</time></trkpt><trkpt lat="34.0175033" lon="-6.7084867"><ele>145.0</ele><time>2026-04-27T12:29:54.038Z</time></trkpt><trkpt lat="34.01774" lon="-6.7085267"><ele>143.0</ele><time>2026-04-27T12:29:55.038Z</time></trkpt><trkpt lat="34.0179817" lon="-6.7085683"><ele>143.0</ele><time>2026-04-27T12:29:56.038Z</time></trkpt><trkpt lat="34.0182217" lon="-6.7086183"><ele>143.0</ele><time>2026-04-27T12:29:57.038Z</time></trkpt><trkpt lat="34.018465" lon="-6.7086733"><ele>143.0</ele><time>2026-04-27T12:29:58.038Z</time></trkpt><trkpt lat="34.0187067" lon="-6.7087333"><ele>143.0</ele><time>2026-04-27T12:29:59.037Z</time></trkpt><trkpt lat="34.0189433" lon="-6.708795"><ele>142.0</ele><time>2026-04-27T12:30:00.038Z</time></trkpt><trkpt lat="34.0191767" lon="-6.708865"><ele>141.0</ele><time>2026-04-27T12:30:01.038Z</time></trkpt><trkpt lat="34.0194067" lon="-6.70893"><ele>141.0</ele><time>2026-04-27T12:30:02.038Z</time></trkpt><trkpt lat="34.0196333" lon="-6.70899"><ele>141.0</ele><time>2026-04-27T12:30:03.038Z</time></trkpt><trkpt lat="34.0198617" lon="-6.7090467"><ele>139.5</ele><time>2026-04-27T12:30:04.037Z</time></trkpt><trkpt lat="34.0200883" lon="-6.7091067"><ele>138.0</ele><time>2026-04-27T12:30:05.037Z</time></trkpt><trkpt lat="34.020315" lon="-6.709165"><ele>138.0</ele><time>2026-04-27T12:30:06.037Z</time></trkpt><trkpt lat="34.0205383" lon="-6.70922"><ele>138.0</ele><time>2026-04-27T12:30:07.037Z</time></trkpt><trkpt lat="34.020755" lon="-6.709275"><ele>138.0</ele><time>2026-04-27T12:30:08.037Z</time></trkpt><trkpt lat="34.0209733" lon="-6.709335"><ele>137.0</ele><time>2026-04-27T12:30:09.036Z</time></trkpt><trkpt lat="34.0211983" lon="-6.709395"><ele>136.0</ele><time>2026-04-27T12:30:10.037Z</time></trkpt><trkpt lat="34.02143" lon="-6.7094567"><ele>135.5</ele><time>2026-04-27T12:30:11.037Z</time></trkpt><trkpt lat="34.0216517" lon="-6.7095217"><ele>135.0</ele><time>2026-04-27T12:30:12.037Z</time></trkpt><trkpt lat="34.0218683" lon="-6.7095867"><ele>135.0</ele><time>2026-04-27T12:30:13.037Z</time></trkpt><trkpt lat="34.0220783" lon="-6.7096567"><ele>135.0</ele><time>2026-04-27T12:30:14.037Z</time></trkpt><trkpt lat="34.0222917" lon="-6.7097233"><ele>135.0</ele><time>2026-04-27T12:30:15.037Z</time></trkpt><trkpt lat="34.02251" lon="-6.7097883"><ele>134.5</ele><time>2026-04-27T12:30:16.037Z</time></trkpt><trkpt lat="34.022735" lon="-6.709845"><ele>134.0</ele><time>2026-04-27T12:30:17.037Z</time></trkpt><trkpt lat="34.0229717" lon="-6.7098967"><ele>134.0</ele><time>2026-04-27T12:30:18.037Z</time></trkpt><trkpt lat="34.0231983" lon="-6.70995"><ele>134.0</ele><time>2026-04-27T12:30:19.037Z</time></trkpt><trkpt lat="34.023415" lon="-6.71001"><ele>132.66666666666666</ele><time>2026-04-27T12:30:20.037Z</time></trkpt><trkpt lat="34.0236317" lon="-6.7100733"><ele>131.33333333333334</ele><time>2026-04-27T12:30:21.037Z</time></trkpt><trkpt lat="34.0238467" lon="-6.71013"><ele>130.0</ele><time>2026-04-27T12:30:22.037Z</time></trkpt><trkpt lat="34.02407" lon="-6.7101883"><ele>128.0</ele><time>2026-04-27T12:30:23.037Z</time></trkpt><trkpt lat="34.0242917" lon="-6.7102517"><ele>126.0</ele><time>2026-04-27T12:30:24.037Z</time></trkpt><trkpt lat="34.0245117" lon="-6.710315"><ele>126.0</ele><time>2026-04-27T12:30:25.037Z</time></trkpt><trkpt lat="34.0247317" lon="-6.7103717"><ele>126.0</ele><time>2026-04-27T12:30:26.036Z</time></trkpt><trkpt lat="34.02495" lon="-6.7104267"><ele>126.0</ele><time>2026-04-27T12:30:27.037Z</time></trkpt><trkpt lat="34.025165" lon="-6.710485"><ele>125.66666666666666</ele><time>2026-04-27T12:30:28.037Z</time></trkpt><trkpt lat="34.0253717" lon="-6.7105417"><ele>125.33333333333333</ele><time>2026-04-27T12:30:29.037Z</time></trkpt><trkpt lat="34.0255767" lon="-6.7105967"><ele>125.0</ele><time>2026-04-27T12:30:30.037Z</time></trkpt><trkpt lat="34.0257933" lon="-6.7106533"><ele>124.33333333333333</ele><time>2026-04-27T12:30:31.037Z</time></trkpt><trkpt lat="34.02601" lon="-6.7107083"><ele>123.66666666666666</ele><time>2026-04-27T12:30:32.037Z</time></trkpt><trkpt lat="34.02623" lon="-6.7107733"><ele>123.0</ele><time>2026-04-27T12:30:33.037Z</time></trkpt><trkpt lat="34.026455" lon="-6.7108333"><ele>123.33333333333334</ele><time>2026-04-27T12:30:34.037Z</time></trkpt><trkpt lat="34.0266733" lon="-6.71089"><ele>123.66666666666667</ele><time>2026-04-27T12:30:35.037Z</time></trkpt><trkpt lat="34.0268867" lon="-6.71095"><ele>124.0</ele><time>2026-04-27T12:30:36.036Z</time></trkpt><trkpt lat="34.0271167" lon="-6.711005"><ele>124.0</ele><time>2026-04-27T12:30:37.037Z</time></trkpt><trkpt lat="34.027325" lon="-6.7110667"><ele>124.0</ele><time>2026-04-27T12:30:38.037Z</time></trkpt><trkpt lat="34.0275383" lon="-6.711125"><ele>124.0</ele><time>2026-04-27T12:30:39.037Z</time></trkpt><trkpt lat="34.0277517" lon="-6.711185"><ele>123.66666666666667</ele><time>2026-04-27T12:30:40.037Z</time></trkpt><trkpt lat="34.0279667" lon="-6.7112433"><ele>123.33333333333334</ele><time>2026-04-27T12:30:41.037Z</time></trkpt><trkpt lat="34.02817" lon="-6.7112967"><ele>123.0</ele><time>2026-04-27T12:30:42.037Z</time></trkpt><trkpt lat="34.0283833" lon="-6.711355"><ele>123.0</ele><time>2026-04-27T12:30:43.037Z</time></trkpt><trkpt lat="34.0285933" lon="-6.7114117"><ele>123.0</ele><time>2026-04-27T12:30:44.037Z</time></trkpt><trkpt lat="34.028805" lon="-6.7114633"><ele>123.0</ele><time>2026-04-27T12:30:45.037Z</time></trkpt><trkpt lat="34.0290167" lon="-6.7115217"><ele>122.33333333333334</ele><time>2026-04-27T12:30:46.037Z</time></trkpt><trkpt lat="34.0292283" lon="-6.7115767"><ele>121.66666666666667</ele><time>2026-04-27T12:30:47.037Z</time></trkpt><trkpt lat="34.0294367" lon="-6.7116333"><ele>121.0</ele><time>2026-04-27T12:30:48.037Z</time></trkpt><trkpt lat="34.0296383" lon="-6.71168"><ele>121.0</ele><time>2026-04-27T12:30:49.036Z</time></trkpt><trkpt lat="34.029845" lon="-6.71173"><ele>121.0</ele><time>2026-04-27T12:30:50.037Z</time></trkpt><trkpt lat="34.0300567" lon="-6.711775"><ele>121.0</ele><time>2026-04-27T12:30:51.036Z</time></trkpt><trkpt lat="34.0302617" lon="-6.71182"><ele>121.0</ele><time>2026-04-27T12:30:52.036Z</time></trkpt><trkpt lat="34.0304633" lon="-6.71186"><ele>121.0</ele><time>2026-04-27T12:30:53.037Z</time></trkpt><trkpt lat="34.0306633" lon="-6.7119"><ele>121.0</ele><time>2026-04-27T12:30:54.037Z</time></trkpt><trkpt lat="34.03085" lon="-6.7119333"><ele>121.0</ele><time>2026-04-27T12:30:55.037Z</time></trkpt><trkpt lat="34.0310333" lon="-6.71197"><ele>121.0</ele><time>2026-04-27T12:30:56.037Z</time></trkpt><trkpt lat="34.03121" lon="-6.712"><ele>121.0</ele><time>2026-04-27T12:30:57.037Z</time></trkpt><trkpt lat="34.0313883" lon="-6.7120317"><ele>121.0</ele><time>2026-04-27T12:30:58.037Z</time></trkpt><trkpt lat="34.0315817" lon="-6.712065"><ele>121.0</ele><time>2026-04-27T12:30:59.037Z</time></trkpt><trkpt lat="34.0317883" lon="-6.7120933"><ele>121.0</ele><time>2026-04-27T12:31:00.037Z</time></trkpt><trkpt lat="34.0320267" lon="-6.7121067"><ele>122.0</ele><time>2026-04-27T12:31:01.037Z</time></trkpt><trkpt lat="34.03228" lon="-6.7121083"><ele>123.0</ele><time>2026-04-27T12:31:02.037Z</time></trkpt><trkpt lat="34.0325533" lon="-6.712105"><ele>124.0</ele><time>2026-04-27T12:31:03.037Z</time></trkpt><trkpt lat="34.0328267" lon="-6.7121017"><ele>125.0</ele><time>2026-04-27T12:31:04.037Z</time></trkpt><trkpt lat="34.033095" lon="-6.7121"><ele>126.5</ele><time>2026-04-27T12:31:05.037Z</time></trkpt><trkpt lat="34.0333517" lon="-6.712095"><ele>128.0</ele><time>2026-04-27T12:31:06.037Z</time></trkpt><trkpt lat="34.0336067" lon="-6.712085"><ele>128.0</ele><time>2026-04-27T12:31:07.037Z</time></trkpt><trkpt lat="34.0338567" lon="-6.7120767"><ele>128.0</ele><time>2026-04-27T12:31:08.037Z</time></trkpt><trkpt lat="34.034105" lon="-6.7120633"><ele>128.5</ele><time>2026-04-27T12:31:09.037Z</time></trkpt><trkpt lat="34.0343517" lon="-6.7120433"><ele>129.0</ele><time>2026-04-27T12:31:10.037Z</time></trkpt><trkpt lat="34.0345967" lon="-6.712025"><ele>129.0</ele><time>2026-04-27T12:31:11.037Z</time></trkpt><trkpt lat="34.034845" lon="-6.7120033"><ele>129.0</ele><time>2026-04-27T12:31:12.037Z</time></trkpt><trkpt lat="34.03509" lon="-6.711985"><ele>130.0</ele><time>2026-04-27T12:31:13.037Z</time></trkpt><trkpt lat="34.035335" lon="-6.7119683"><ele>131.0</ele><time>2026-04-27T12:31:14.037Z</time></trkpt><trkpt lat="34.0355767" lon="-6.71195"><ele>131.0</ele><time>2026-04-27T12:31:15.037Z</time></trkpt><trkpt lat="34.035815" lon="-6.711935"><ele>131.0</ele><time>2026-04-27T12:31:16.036Z</time></trkpt><trkpt lat="34.0360483" lon="-6.71192"><ele>131.0</ele><time>2026-04-27T12:31:17.037Z</time></trkpt><trkpt lat="34.0362817" lon="-6.7119"><ele>131.0</ele><time>2026-04-27T12:31:18.037Z</time></trkpt><trkpt lat="34.036515" lon="-6.7118733"><ele>131.0</ele><time>2026-04-27T12:31:19.037Z</time></trkpt><trkpt lat="34.0367483" lon="-6.711855"><ele>131.0</ele><time>2026-04-27T12:31:20.037Z</time></trkpt><trkpt lat="34.0369783" lon="-6.7118383"><ele>131.0</ele><time>2026-04-27T12:31:21.037Z</time></trkpt><trkpt lat="34.037205" lon="-6.7118233"><ele>131.0</ele><time>2026-04-27T12:31:22.037Z</time></trkpt><trkpt lat="34.037435" lon="-6.7118083"><ele>130.0</ele><time>2026-04-27T12:31:23.037Z</time></trkpt><trkpt lat="34.03766" lon="-6.7117883"><ele>129.0</ele><time>2026-04-27T12:31:24.037Z</time></trkpt><trkpt lat="34.0378917" lon="-6.711765"><ele>129.0</ele><time>2026-04-27T12:31:25.037Z</time></trkpt><trkpt lat="34.0381183" lon="-6.7117533"><ele>129.0</ele><time>2026-04-27T12:31:26.037Z</time></trkpt><trkpt lat="34.0383467" lon="-6.71174"><ele>129.0</ele><time>2026-04-27T12:31:27.037Z</time></trkpt><trkpt lat="34.0385767" lon="-6.7117267"><ele>129.0</ele><time>2026-04-27T12:31:28.037Z</time></trkpt><trkpt lat="34.03881" lon="-6.7117167"><ele>129.0</ele><time>2026-04-27T12:31:29.037Z</time></trkpt><trkpt lat="34.0390417" lon="-6.7117117"><ele>129.0</ele><time>2026-04-27T12:31:30.036Z</time></trkpt><trkpt lat="34.0392733" lon="-6.7117067"><ele>127.5</ele><time>2026-04-27T12:31:31.037Z</time></trkpt><trkpt lat="34.0395017" lon="-6.7117"><ele>126.0</ele><time>2026-04-27T12:31:32.037Z</time></trkpt><trkpt lat="34.0397383" lon="-6.7116933"><ele>125.0</ele><time>2026-04-27T12:31:33.037Z</time></trkpt><trkpt lat="34.0399733" lon="-6.7116867"><ele>124.0</ele><time>2026-04-27T12:31:34.037Z</time></trkpt><trkpt lat="34.0402" lon="-6.711685"><ele>124.0</ele><time>2026-04-27T12:31:35.037Z</time></trkpt><trkpt lat="34.040425" lon="-6.711685"><ele>124.0</ele><time>2026-04-27T12:31:36.037Z</time></trkpt><trkpt lat="34.04065" lon="-6.711685"><ele>124.0</ele><time>2026-04-27T12:31:37.037Z</time></trkpt><trkpt lat="34.0408783" lon="-6.7116867"><ele>124.0</ele><time>2026-04-27T12:31:38.036Z</time></trkpt><trkpt lat="34.0411133" lon="-6.711685"><ele>124.0</ele><time>2026-04-27T12:31:39.037Z</time></trkpt><trkpt lat="34.0413483" lon="-6.711685"><ele>124.0</ele><time>2026-04-27T12:31:40.037Z</time></trkpt><trkpt lat="34.041585" lon="-6.7116833"><ele>123.0</ele><time>2026-04-27T12:31:41.037Z</time></trkpt><trkpt lat="34.041815" lon="-6.7116933"><ele>122.0</ele><time>2026-04-27T12:31:42.037Z</time></trkpt><trkpt lat="34.04204" lon="-6.7116933"><ele>122.0</ele><time>2026-04-27T12:31:43.037Z</time></trkpt><trkpt lat="34.042265" lon="-6.711695"><ele>122.0</ele><time>2026-04-27T12:31:44.037Z</time></trkpt><trkpt lat="34.0424883" lon="-6.71169"><ele>122.0</ele><time>2026-04-27T12:31:45.037Z</time></trkpt><trkpt lat="34.0427083" lon="-6.7116883"><ele>121.0</ele><time>2026-04-27T12:31:46.037Z</time></trkpt><trkpt lat="34.0429367" lon="-6.7116833"><ele>120.0</ele><time>2026-04-27T12:31:47.037Z</time></trkpt><trkpt lat="34.043165" lon="-6.7116817"><ele>119.0</ele><time>2026-04-27T12:31:48.037Z</time></trkpt><trkpt lat="34.0433917" lon="-6.7116833"><ele>118.0</ele><time>2026-04-27T12:31:49.037Z</time></trkpt><trkpt lat="34.043625" lon="-6.7116867"><ele>118.0</ele><time>2026-04-27T12:31:50.037Z</time></trkpt><trkpt lat="34.04386" lon="-6.7116917"><ele>118.0</ele><time>2026-04-27T12:31:51.037Z</time></trkpt><trkpt lat="34.0440983" lon="-6.71169"><ele>116.5</ele><time>2026-04-27T12:31:52.037Z</time></trkpt><trkpt lat="34.0443317" lon="-6.7116867"><ele>115.0</ele><time>2026-04-27T12:31:53.037Z</time></trkpt><trkpt lat="34.0445633" lon="-6.7116883"><ele>115.0</ele><time>2026-04-27T12:31:54.037Z</time></trkpt><trkpt lat="34.0447917" lon="-6.7116867"><ele>115.0</ele><time>2026-04-27T12:31:55.037Z</time></trkpt><trkpt lat="34.0450183" lon="-6.711685"><ele>115.0</ele><time>2026-04-27T12:31:56.037Z</time></trkpt><trkpt lat="34.045245" lon="-6.7116817"><ele>115.0</ele><time>2026-04-27T12:31:57.037Z</time></trkpt><trkpt lat="34.0454667" lon="-6.7116817"><ele>115.0</ele><time>2026-04-27T12:31:58.037Z</time></trkpt><trkpt lat="34.0456917" lon="-6.7116883"><ele>112.5</ele><time>2026-04-27T12:31:59.037Z</time></trkpt><trkpt lat="34.0459217" lon="-6.7116867"><ele>110.0</ele><time>2026-04-27T12:32:00.037Z</time></trkpt><trkpt lat="34.04615" lon="-6.711685"><ele>110.0</ele><time>2026-04-27T12:32:01.037Z</time></trkpt><trkpt lat="34.0463783" lon="-6.71168"><ele>110.0</ele><time>2026-04-27T12:32:02.036Z</time></trkpt><trkpt lat="34.0466117" lon="-6.7116817"><ele>109.0</ele><time>2026-04-27T12:32:03.037Z</time></trkpt><trkpt lat="34.0468483" lon="-6.711685"><ele>108.0</ele><time>2026-04-27T12:32:04.037Z</time></trkpt><trkpt lat="34.0470833" lon="-6.711685"><ele>108.0</ele><time>2026-04-27T12:32:05.036Z</time></trkpt><trkpt lat="34.0473117" lon="-6.7116867"><ele>108.0</ele><time>2026-04-27T12:32:06.037Z</time></trkpt><trkpt lat="34.047535" lon="-6.7116883"><ele>107.0</ele><time>2026-04-27T12:32:07.037Z</time></trkpt><trkpt lat="34.0477583" lon="-6.7116917"><ele>106.0</ele><time>2026-04-27T12:32:08.037Z</time></trkpt><trkpt lat="34.047985" lon="-6.71169"><ele>106.0</ele><time>2026-04-27T12:32:09.036Z</time></trkpt><trkpt lat="34.0482133" lon="-6.71169"><ele>106.0</ele><time>2026-04-27T12:32:10.037Z</time></trkpt><trkpt lat="34.0484467" lon="-6.7116883"><ele>107.5</ele><time>2026-04-27T12:32:11.037Z</time></trkpt><trkpt lat="34.0486817" lon="-6.7116917"><ele>109.0</ele><time>2026-04-27T12:32:12.037Z</time></trkpt><trkpt lat="34.0489267" lon="-6.7117033"><ele>108.0</ele><time>2026-04-27T12:32:13.037Z</time></trkpt><trkpt lat="34.0491717" lon="-6.7117067"><ele>107.0</ele><time>2026-04-27T12:32:14.037Z</time></trkpt><trkpt lat="34.04942" lon="-6.7117067"><ele>107.0</ele><time>2026-04-27T12:32:15.036Z</time></trkpt><trkpt lat="34.0496717" lon="-6.71171"><ele>107.0</ele><time>2026-04-27T12:32:16.037Z</time></trkpt><trkpt lat="34.0499267" lon="-6.71171"><ele>107.0</ele><time>2026-04-27T12:32:17.037Z</time></trkpt><trkpt lat="34.0501883" lon="-6.7117117"><ele>107.0</ele><time>2026-04-27T12:32:18.036Z</time></trkpt><trkpt lat="34.0504517" lon="-6.7117167"><ele>107.0</ele><time>2026-04-27T12:32:19.037Z</time></trkpt><trkpt lat="34.0507117" lon="-6.7117167"><ele>107.0</ele><time>2026-04-27T12:32:20.037Z</time></trkpt><trkpt lat="34.0509817" lon="-6.7117033"><ele>106.5</ele><time>2026-04-27T12:32:21.037Z</time></trkpt><trkpt lat="34.051245" lon="-6.7116967"><ele>106.0</ele><time>2026-04-27T12:32:22.037Z</time></trkpt><trkpt lat="34.051505" lon="-6.711685"><ele>105.0</ele><time>2026-04-27T12:32:23.037Z</time></trkpt><trkpt lat="34.0517583" lon="-6.71168"><ele>104.0</ele><time>2026-04-27T12:32:24.037Z</time></trkpt><trkpt lat="34.0520067" lon="-6.71168"><ele>104.0</ele><time>2026-04-27T12:32:25.037Z</time></trkpt><trkpt lat="34.0522533" lon="-6.7116767"><ele>104.0</ele><time>2026-04-27T12:32:26.037Z</time></trkpt><trkpt lat="34.0525" lon="-6.7116733"><ele>104.0</ele><time>2026-04-27T12:32:27.037Z</time></trkpt><trkpt lat="34.0527467" lon="-6.7116717"><ele>104.0</ele><time>2026-04-27T12:32:28.037Z</time></trkpt><trkpt lat="34.0529883" lon="-6.711675"><ele>104.0</ele><time>2026-04-27T12:32:29.037Z</time></trkpt><trkpt lat="34.0532317" lon="-6.7116733"><ele>104.0</ele><time>2026-04-27T12:32:30.037Z</time></trkpt><trkpt lat="34.0534783" lon="-6.7116717"><ele>103.0</ele><time>2026-04-27T12:32:31.037Z</time></trkpt><trkpt lat="34.0537217" lon="-6.71167"><ele>102.0</ele><time>2026-04-27T12:32:32.037Z</time></trkpt><trkpt lat="34.053965" lon="-6.7116833"><ele>101.5</ele><time>2026-04-27T12:32:33.037Z</time></trkpt><trkpt lat="34.05421" lon="-6.7116833"><ele>101.0</ele><time>2026-04-27T12:32:34.037Z</time></trkpt><trkpt lat="34.0544567" lon="-6.7116817"><ele>101.0</ele><time>2026-04-27T12:32:35.037Z</time></trkpt><trkpt lat="34.054705" lon="-6.7116833"><ele>101.0</ele><time>2026-04-27T12:32:36.037Z</time></trkpt><trkpt lat="34.054955" lon="-6.71168"><ele>101.5</ele><time>2026-04-27T12:32:37.037Z</time></trkpt><trkpt lat="34.0552067" lon="-6.7116817"><ele>102.0</ele><time>2026-04-27T12:32:38.037Z</time></trkpt><trkpt lat="34.0554667" lon="-6.7116833"><ele>102.0</ele><time>2026-04-27T12:32:39.037Z</time></trkpt><trkpt lat="34.0557367" lon="-6.7116883"><ele>102.0</ele><time>2026-04-27T12:32:40.037Z</time></trkpt><trkpt lat="34.0560067" lon="-6.7116933"><ele>101.0</ele><time>2026-04-27T12:32:41.036Z</time></trkpt><trkpt lat="34.0562683" lon="-6.7117033"><ele>100.0</ele><time>2026-04-27T12:32:42.037Z</time></trkpt><trkpt lat="34.056525" lon="-6.7117067"><ele>99.5</ele><time>2026-04-27T12:32:43.037Z</time></trkpt><trkpt lat="34.0567783" lon="-6.7117083"><ele>99.0</ele><time>2026-04-27T12:32:44.037Z</time></trkpt><trkpt lat="34.0570317" lon="-6.7117"><ele>99.0</ele><time>2026-04-27T12:32:45.037Z</time></trkpt><trkpt lat="34.05728" lon="-6.7116983"><ele>99.0</ele><time>2026-04-27T12:32:46.037Z</time></trkpt><trkpt lat="34.057525" lon="-6.7116983"><ele>99.5</ele><time>2026-04-27T12:32:47.037Z</time></trkpt><trkpt lat="34.0577667" lon="-6.71169"><ele>100.0</ele><time>2026-04-27T12:32:48.037Z</time></trkpt><trkpt lat="34.058015" lon="-6.7116817"><ele>100.0</ele><time>2026-04-27T12:32:49.037Z</time></trkpt><trkpt lat="34.058265" lon="-6.7116717"><ele>100.0</ele><time>2026-04-27T12:32:50.037Z</time></trkpt><trkpt lat="34.0585167" lon="-6.7116667"><ele>99.0</ele><time>2026-04-27T12:32:51.037Z</time></trkpt><trkpt lat="34.0587733" lon="-6.7116667"><ele>98.0</ele><time>2026-04-27T12:32:52.037Z</time></trkpt><trkpt lat="34.0590367" lon="-6.711665"><ele>98.0</ele><time>2026-04-27T12:32:53.036Z</time></trkpt><trkpt lat="34.0593067" lon="-6.7116633"><ele>98.0</ele><time>2026-04-27T12:32:54.036Z</time></trkpt><trkpt lat="34.0595817" lon="-6.7116517"><ele>98.0</ele><time>2026-04-27T12:32:55.037Z</time></trkpt><trkpt lat="34.0598633" lon="-6.7116467"><ele>98.0</ele><time>2026-04-27T12:32:56.037Z</time></trkpt><trkpt lat="34.0601483" lon="-6.7116333"><ele>98.5</ele><time>2026-04-27T12:32:57.037Z</time></trkpt><trkpt lat="34.0604333" lon="-6.7116233"><ele>99.0</ele><time>2026-04-27T12:32:58.037Z</time></trkpt><trkpt lat="34.0607133" lon="-6.711605"><ele>98.5</ele><time>2026-04-27T12:32:59.037Z</time></trkpt><trkpt lat="34.060985" lon="-6.7115733"><ele>98.0</ele><time>2026-04-27T12:33:00.037Z</time></trkpt><trkpt lat="34.061245" lon="-6.7115333"><ele>98.0</ele><time>2026-04-27T12:33:01.037Z</time></trkpt><trkpt lat="34.061505" lon="-6.7114817"><ele>98.0</ele><time>2026-04-27T12:33:02.037Z</time></trkpt><trkpt lat="34.0617617" lon="-6.71143"><ele>96.0</ele><time>2026-04-27T12:33:03.037Z</time></trkpt><trkpt lat="34.0620183" lon="-6.7113767"><ele>94.0</ele><time>2026-04-27T12:33:04.037Z</time></trkpt><trkpt lat="34.06227" lon="-6.7113167"><ele>94.0</ele><time>2026-04-27T12:33:05.037Z</time></trkpt><trkpt lat="34.06252" lon="-6.7112617"><ele>94.0</ele><time>2026-04-27T12:33:06.037Z</time></trkpt><trkpt lat="34.0627717" lon="-6.7112067"><ele>94.0</ele><time>2026-04-27T12:33:07.037Z</time></trkpt><trkpt lat="34.0630183" lon="-6.7111433"><ele>94.0</ele><time>2026-04-27T12:33:08.036Z</time></trkpt><trkpt lat="34.063265" lon="-6.7110783"><ele>94.5</ele><time>2026-04-27T12:33:09.037Z</time></trkpt><trkpt lat="34.06351" lon="-6.7110083"><ele>95.0</ele><time>2026-04-27T12:33:10.037Z</time></trkpt><trkpt lat="34.063755" lon="-6.71093"><ele>95.0</ele><time>2026-04-27T12:33:11.037Z</time></trkpt><trkpt lat="34.063995" lon="-6.7108467"><ele>95.0</ele><time>2026-04-27T12:33:12.036Z</time></trkpt><trkpt lat="34.0642383" lon="-6.7107667"><ele>94.0</ele><time>2026-04-27T12:33:13.036Z</time></trkpt><trkpt lat="34.064485" lon="-6.7106833"><ele>93.0</ele><time>2026-04-27T12:33:14.037Z</time></trkpt><trkpt lat="34.0647283" lon="-6.710595"><ele>92.5</ele><time>2026-04-27T12:33:15.037Z</time></trkpt><trkpt lat="34.0649717" lon="-6.7105"><ele>92.0</ele><time>2026-04-27T12:33:16.037Z</time></trkpt><trkpt lat="34.065215" lon="-6.710405"><ele>92.0</ele><time>2026-04-27T12:33:17.037Z</time></trkpt><trkpt lat="34.0654583" lon="-6.7103"><ele>92.0</ele><time>2026-04-27T12:33:18.037Z</time></trkpt><trkpt lat="34.0656983" lon="-6.71019"><ele>93.5</ele><time>2026-04-27T12:33:19.037Z</time></trkpt><trkpt lat="34.0659417" lon="-6.7100717"><ele>95.0</ele><time>2026-04-27T12:33:20.036Z</time></trkpt><trkpt lat="34.0661833" lon="-6.7099567"><ele>95.0</ele><time>2026-04-27T12:33:21.037Z</time></trkpt><trkpt lat="34.0664233" lon="-6.7098367"><ele>95.0</ele><time>2026-04-27T12:33:22.037Z</time></trkpt><trkpt lat="34.066665" lon="-6.709715"><ele>94.0</ele><time>2026-04-27T12:33:23.037Z</time></trkpt><trkpt lat="34.0668967" lon="-6.7095917"><ele>93.0</ele><time>2026-04-27T12:33:24.037Z</time></trkpt><trkpt lat="34.0671267" lon="-6.7094583"><ele>93.5</ele><time>2026-04-27T12:33:25.037Z</time></trkpt><trkpt lat="34.0673533" lon="-6.70932"><ele>94.0</ele><time>2026-04-27T12:33:26.037Z</time></trkpt><trkpt lat="34.0675767" lon="-6.7091783"><ele>92.5</ele><time>2026-04-27T12:33:27.037Z</time></trkpt><trkpt lat="34.067795" lon="-6.7090317"><ele>91.0</ele><time>2026-04-27T12:33:28.037Z</time></trkpt><trkpt lat="34.0680133" lon="-6.7088833"><ele>91.0</ele><time>2026-04-27T12:33:29.037Z</time></trkpt><trkpt lat="34.0682367" lon="-6.7087317"><ele>91.0</ele><time>2026-04-27T12:33:30.037Z</time></trkpt><trkpt lat="34.0684617" lon="-6.7085767"><ele>91.5</ele><time>2026-04-27T12:33:31.037Z</time></trkpt><trkpt lat="34.068685" lon="-6.7084183"><ele>92.0</ele><time>2026-04-27T12:33:32.037Z</time></trkpt><trkpt lat="34.068905" lon="-6.7082617"><ele>92.5</ele><time>2026-04-27T12:33:33.036Z</time></trkpt><trkpt lat="34.0691283" lon="-6.7080983"><ele>93.0</ele><time>2026-04-27T12:33:34.037Z</time></trkpt><trkpt lat="34.069345" lon="-6.7079217"><ele>93.5</ele><time>2026-04-27T12:33:35.037Z</time></trkpt><trkpt lat="34.0695617" lon="-6.707735"><ele>94.0</ele><time>2026-04-27T12:33:36.037Z</time></trkpt><trkpt lat="34.0697717" lon="-6.7075517"><ele>94.5</ele><time>2026-04-27T12:33:37.037Z</time></trkpt><trkpt lat="34.06998" lon="-6.7073633"><ele>95.0</ele><time>2026-04-27T12:33:38.037Z</time></trkpt><trkpt lat="34.0701867" lon="-6.7071683"><ele>95.0</ele><time>2026-04-27T12:33:39.037Z</time></trkpt><trkpt lat="34.0703933" lon="-6.70697"><ele>95.0</ele><time>2026-04-27T12:33:40.037Z</time></trkpt><trkpt lat="34.0706067" lon="-6.70678"><ele>93.5</ele><time>2026-04-27T12:33:41.037Z</time></trkpt><trkpt lat="34.0708183" lon="-6.7065883"><ele>92.0</ele><time>2026-04-27T12:33:42.037Z</time></trkpt><trkpt lat="34.071035" lon="-6.7064017"><ele>92.0</ele><time>2026-04-27T12:33:43.036Z</time></trkpt><trkpt lat="34.0712417" lon="-6.7062133"><ele>92.0</ele><time>2026-04-27T12:33:44.037Z</time></trkpt><trkpt lat="34.0714517" lon="-6.70602"><ele>92.5</ele><time>2026-04-27T12:33:45.037Z</time></trkpt><trkpt lat="34.07166" lon="-6.7058283"><ele>93.0</ele><time>2026-04-27T12:33:46.037Z</time></trkpt><trkpt lat="34.071865" lon="-6.7056367"><ele>93.0</ele><time>2026-04-27T12:33:47.037Z</time></trkpt><trkpt lat="34.0720683" lon="-6.7054483"><ele>93.0</ele><time>2026-04-27T12:33:48.037Z</time></trkpt><trkpt lat="34.0722733" lon="-6.7052583"><ele>92.5</ele><time>2026-04-27T12:33:49.037Z</time></trkpt><trkpt lat="34.0724783" lon="-6.7050733"><ele>92.0</ele><time>2026-04-27T12:33:50.037Z</time></trkpt><trkpt lat="34.0726833" lon="-6.7048867"><ele>92.0</ele><time>2026-04-27T12:33:51.037Z</time></trkpt><trkpt lat="34.07289" lon="-6.7047"><ele>92.0</ele><time>2026-04-27T12:33:52.037Z</time></trkpt><trkpt lat="34.0730933" lon="-6.70451"><ele>92.0</ele><time>2026-04-27T12:33:53.037Z</time></trkpt><trkpt lat="34.0732983" lon="-6.7043167"><ele>92.0</ele><time>2026-04-27T12:33:54.037Z</time></trkpt><trkpt lat="34.0734983" lon="-6.70413"><ele>92.0</ele><time>2026-04-27T12:33:55.037Z</time></trkpt><trkpt lat="34.0737017" lon="-6.7039433"><ele>92.0</ele><time>2026-04-27T12:33:56.037Z</time></trkpt><trkpt lat="34.073905" lon="-6.7037633"><ele>93.0</ele><time>2026-04-27T12:33:57.037Z</time></trkpt><trkpt lat="34.074105" lon="-6.7035817"><ele>94.0</ele><time>2026-04-27T12:33:58.037Z</time></trkpt><trkpt lat="34.0743083" lon="-6.703395"><ele>94.0</ele><time>2026-04-27T12:33:59.036Z</time></trkpt><trkpt lat="34.074505" lon="-6.7032117"><ele>94.0</ele><time>2026-04-27T12:34:00.036Z</time></trkpt><trkpt lat="34.0747033" lon="-6.703025"><ele>94.0</ele><time>2026-04-27T12:34:01.037Z</time></trkpt><trkpt lat="34.0748967" lon="-6.7028433"><ele>94.0</ele><time>2026-04-27T12:34:02.037Z</time></trkpt><trkpt lat="34.0750933" lon="-6.70266"><ele>93.0</ele><time>2026-04-27T12:34:03.037Z</time></trkpt><trkpt lat="34.0752917" lon="-6.702475"><ele>92.0</ele><time>2026-04-27T12:34:04.037Z</time></trkpt><trkpt lat="34.0754883" lon="-6.702285"><ele>92.0</ele><time>2026-04-27T12:34:05.037Z</time></trkpt><trkpt lat="34.0756867" lon="-6.7021"><ele>92.0</ele><time>2026-04-27T12:34:06.036Z</time></trkpt><trkpt lat="34.075885" lon="-6.701915"><ele>92.0</ele><time>2026-04-27T12:34:07.037Z</time></trkpt><trkpt lat="34.0760867" lon="-6.7017333"><ele>92.0</ele><time>2026-04-27T12:34:08.037Z</time></trkpt><trkpt lat="34.07629" lon="-6.7015483"><ele>92.0</ele><time>2026-04-27T12:34:09.037Z</time></trkpt><trkpt lat="34.0764933" lon="-6.7013633"><ele>92.0</ele><time>2026-04-27T12:34:10.037Z</time></trkpt><trkpt lat="34.0766933" lon="-6.70118"><ele>92.5</ele><time>2026-04-27T12:34:11.036Z</time></trkpt><trkpt lat="34.07689" lon="-6.700995"><ele>93.0</ele><time>2026-04-27T12:34:12.037Z</time></trkpt><trkpt lat="34.0770817" lon="-6.7008117"><ele>93.0</ele><time>2026-04-27T12:34:13.037Z</time></trkpt><trkpt lat="34.07728" lon="-6.7006283"><ele>93.0</ele><time>2026-04-27T12:34:14.037Z</time></trkpt><trkpt lat="34.07748" lon="-6.7004433"><ele>92.5</ele><time>2026-04-27T12:34:15.037Z</time></trkpt><trkpt lat="34.0776783" lon="-6.7002583"><ele>92.0</ele><time>2026-04-27T12:34:16.036Z</time></trkpt><trkpt lat="34.0778817" lon="-6.700075"><ele>92.0</ele><time>2026-04-27T12:34:17.037Z</time></trkpt><trkpt lat="34.0780833" lon="-6.699885"><ele>92.0</ele><time>2026-04-27T12:34:18.037Z</time></trkpt><trkpt lat="34.078285" lon="-6.6996967"><ele>92.0</ele><time>2026-04-27T12:34:19.037Z</time></trkpt><trkpt lat="34.07849" lon="-6.699505"><ele>92.0</ele><time>2026-04-27T12:34:20.037Z</time></trkpt><trkpt lat="34.0786917" lon="-6.6993117"><ele>92.5</ele><time>2026-04-27T12:34:21.036Z</time></trkpt><trkpt lat="34.0788933" lon="-6.6991217"><ele>93.0</ele><time>2026-04-27T12:34:22.037Z</time></trkpt><trkpt lat="34.0790967" lon="-6.69893"><ele>93.0</ele><time>2026-04-27T12:34:23.037Z</time></trkpt><trkpt lat="34.0793" lon="-6.6987383"><ele>93.0</ele><time>2026-04-27T12:34:24.037Z</time></trkpt><trkpt lat="34.079505" lon="-6.69855"><ele>93.0</ele><time>2026-04-27T12:34:25.037Z</time></trkpt><trkpt lat="34.0797117" lon="-6.6983667"><ele>93.0</ele><time>2026-04-27T12:34:26.037Z</time></trkpt><trkpt lat="34.0799217" lon="-6.6981733"><ele>93.0</ele><time>2026-04-27T12:34:27.037Z</time></trkpt><trkpt lat="34.0801283" lon="-6.6979783"><ele>93.0</ele><time>2026-04-27T12:34:28.037Z</time></trkpt><trkpt lat="34.0803383" lon="-6.69778"><ele>93.5</ele><time>2026-04-27T12:34:29.037Z</time></trkpt><trkpt lat="34.0805517" lon="-6.6975867"><ele>94.0</ele><time>2026-04-27T12:34:30.037Z</time></trkpt><trkpt lat="34.0807567" lon="-6.6973917"><ele>93.5</ele><time>2026-04-27T12:34:31.037Z</time></trkpt><trkpt lat="34.080955" lon="-6.69721"><ele>93.0</ele><time>2026-04-27T12:34:32.036Z</time></trkpt><trkpt lat="34.0811483" lon="-6.6970383"><ele>92.5</ele><time>2026-04-27T12:34:33.037Z</time></trkpt><trkpt lat="34.0813333" lon="-6.6968717"><ele>92.0</ele><time>2026-04-27T12:34:34.037Z</time></trkpt><trkpt lat="34.08151" lon="-6.696705"><ele>92.33333333333334</ele><time>2026-04-27T12:34:35.037Z</time></trkpt><trkpt lat="34.0816833" lon="-6.6965383"><ele>92.66666666666667</ele><time>2026-04-27T12:34:36.037Z</time></trkpt><trkpt lat="34.0818617" lon="-6.696375"><ele>93.0</ele><time>2026-04-27T12:34:37.037Z</time></trkpt><trkpt lat="34.0820417" lon="-6.6962117"><ele>92.5</ele><time>2026-04-27T12:34:38.037Z</time></trkpt><trkpt lat="34.0822283" lon="-6.6960467"><ele>92.0</ele><time>2026-04-27T12:34:39.037Z</time></trkpt><trkpt lat="34.0824167" lon="-6.695875"><ele>93.5</ele><time>2026-04-27T12:34:40.037Z</time></trkpt><trkpt lat="34.0826067" lon="-6.6957"><ele>95.0</ele><time>2026-04-27T12:34:41.037Z</time></trkpt><trkpt lat="34.0828033" lon="-6.6955217"><ele>95.0</ele><time>2026-04-27T12:34:42.036Z</time></trkpt><trkpt lat="34.0829983" lon="-6.695345"><ele>95.0</ele><time>2026-04-27T12:34:43.037Z</time></trkpt><trkpt lat="34.0831933" lon="-6.6951667"><ele>93.0</ele><time>2026-04-27T12:34:44.037Z</time></trkpt><trkpt lat="34.0833867" lon="-6.69499"><ele>91.0</ele><time>2026-04-27T12:34:45.037Z</time></trkpt><trkpt lat="34.08358" lon="-6.69481"><ele>91.0</ele><time>2026-04-27T12:34:46.037Z</time></trkpt><trkpt lat="34.0837767" lon="-6.6946317"><ele>91.0</ele><time>2026-04-27T12:34:47.037Z</time></trkpt><trkpt lat="34.0839717" lon="-6.6944517"><ele>91.0</ele><time>2026-04-27T12:34:48.037Z</time></trkpt><trkpt lat="34.0841667" lon="-6.6942617"><ele>91.0</ele><time>2026-04-27T12:34:49.037Z</time></trkpt><trkpt lat="34.08436" lon="-6.69408"><ele>91.0</ele><time>2026-04-27T12:34:50.036Z</time></trkpt><trkpt lat="34.0845567" lon="-6.693895"><ele>91.0</ele><time>2026-04-27T12:34:51.037Z</time></trkpt><trkpt lat="34.0847517" lon="-6.6937117"><ele>92.0</ele><time>2026-04-27T12:34:52.037Z</time></trkpt><trkpt lat="34.08495" lon="-6.6935317"><ele>93.0</ele><time>2026-04-27T12:34:53.037Z</time></trkpt><trkpt lat="34.0851483" lon="-6.693345"><ele>93.0</ele><time>2026-04-27T12:34:54.037Z</time></trkpt><trkpt lat="34.0853517" lon="-6.6931567"><ele>93.0</ele><time>2026-04-27T12:34:55.037Z</time></trkpt><trkpt lat="34.0855583" lon="-6.6929667"><ele>93.0</ele><time>2026-04-27T12:34:56.037Z</time></trkpt><trkpt lat="34.085765" lon="-6.6927833"><ele>93.0</ele><time>2026-04-27T12:34:57.037Z</time></trkpt><trkpt lat="34.08597" lon="-6.6925983"><ele>92.5</ele><time>2026-04-27T12:34:58.036Z</time></trkpt><trkpt lat="34.086175" lon="-6.69241"><ele>92.0</ele><time>2026-04-27T12:34:59.037Z</time></trkpt><trkpt lat="34.0863817" lon="-6.69222"><ele>92.0</ele><time>2026-04-27T12:35:00.037Z</time></trkpt><trkpt lat="34.0865867" lon="-6.6920367"><ele>92.0</ele><time>2026-04-27T12:35:01.037Z</time></trkpt><trkpt lat="34.0867933" lon="-6.69185"><ele>91.5</ele><time>2026-04-27T12:35:02.037Z</time></trkpt><trkpt lat="34.086995" lon="-6.6916633"><ele>91.0</ele><time>2026-04-27T12:35:03.037Z</time></trkpt><trkpt lat="34.0872017" lon="-6.6914783"><ele>91.0</ele><time>2026-04-27T12:35:04.036Z</time></trkpt><trkpt lat="34.087405" lon="-6.6912933"><ele>91.0</ele><time>2026-04-27T12:35:05.037Z</time></trkpt><trkpt lat="34.087605" lon="-6.6911033"><ele>91.5</ele><time>2026-04-27T12:35:06.037Z</time></trkpt><trkpt lat="34.0878033" lon="-6.690915"><ele>92.0</ele><time>2026-04-27T12:35:07.037Z</time></trkpt><trkpt lat="34.0880033" lon="-6.6907283"><ele>92.0</ele><time>2026-04-27T12:35:08.037Z</time></trkpt><trkpt lat="34.0882" lon="-6.69054"><ele>92.0</ele><time>2026-04-27T12:35:09.037Z</time></trkpt><trkpt lat="34.0883967" lon="-6.6903583"><ele>92.0</ele><time>2026-04-27T12:35:10.037Z</time></trkpt><trkpt lat="34.0885817" lon="-6.6901783"><ele>92.0</ele><time>2026-04-27T12:35:11.037Z</time></trkpt><trkpt lat="34.088765" lon="-6.69"><ele>92.0</ele><time>2026-04-27T12:35:12.037Z</time></trkpt><trkpt lat="34.0889533" lon="-6.6898217"><ele>92.0</ele><time>2026-04-27T12:35:13.037Z</time></trkpt><trkpt lat="34.0891467" lon="-6.6896417"><ele>92.0</ele><time>2026-04-27T12:35:14.037Z</time></trkpt><trkpt lat="34.08934" lon="-6.6894683"><ele>92.0</ele><time>2026-04-27T12:35:15.036Z</time></trkpt><trkpt lat="34.089535" lon="-6.6892917"><ele>92.5</ele><time>2026-04-27T12:35:16.036Z</time></trkpt><trkpt lat="34.0897283" lon="-6.6891233"><ele>93.0</ele><time>2026-04-27T12:35:17.037Z</time></trkpt><trkpt lat="34.0899267" lon="-6.6889517"><ele>91.5</ele><time>2026-04-27T12:35:18.037Z</time></trkpt><trkpt lat="34.0901233" lon="-6.6887833"><ele>90.0</ele><time>2026-04-27T12:35:19.037Z</time></trkpt><trkpt lat="34.090315" lon="-6.6886233"><ele>92.0</ele><time>2026-04-27T12:35:20.037Z</time></trkpt><trkpt lat="34.09051" lon="-6.6884683"><ele>94.0</ele><time>2026-04-27T12:35:21.037Z</time></trkpt><trkpt lat="34.090705" lon="-6.6883083"><ele>93.0</ele><time>2026-04-27T12:35:22.037Z</time></trkpt><trkpt lat="34.0909" lon="-6.688155"><ele>92.0</ele><time>2026-04-27T12:35:23.037Z</time></trkpt><trkpt lat="34.09109" lon="-6.6880067"><ele>92.0</ele><time>2026-04-27T12:35:24.037Z</time></trkpt><trkpt lat="34.0912767" lon="-6.687855"><ele>92.0</ele><time>2026-04-27T12:35:25.037Z</time></trkpt><trkpt lat="34.0914583" lon="-6.6877067"><ele>92.0</ele><time>2026-04-27T12:35:26.037Z</time></trkpt><trkpt lat="34.09164" lon="-6.6875683"><ele>91.66666666666667</ele><time>2026-04-27T12:35:27.037Z</time></trkpt><trkpt lat="34.0918083" lon="-6.6874283"><ele>91.33333333333333</ele><time>2026-04-27T12:35:28.037Z</time></trkpt><trkpt lat="34.091975" lon="-6.6872967"><ele>91.0</ele><time>2026-04-27T12:35:29.037Z</time></trkpt><trkpt lat="34.092135" lon="-6.6871733"><ele>91.0</ele><time>2026-04-27T12:35:30.037Z</time></trkpt><trkpt lat="34.092295" lon="-6.6870483"><ele>91.0</ele><time>2026-04-27T12:35:31.037Z</time></trkpt><trkpt lat="34.0924467" lon="-6.6869233"><ele>91.0</ele><time>2026-04-27T12:35:32.037Z</time></trkpt><trkpt lat="34.0925817" lon="-6.68679"><ele>91.66666666666666</ele><time>2026-04-27T12:35:33.037Z</time></trkpt><trkpt lat="34.0927083" lon="-6.68667"><ele>92.33333333333333</ele><time>2026-04-27T12:35:34.037Z</time></trkpt><trkpt lat="34.0928267" lon="-6.6865483"><ele>93.0</ele><time>2026-04-27T12:35:35.037Z</time></trkpt><trkpt lat="34.0929333" lon="-6.6864183"><ele>93.0</ele><time>2026-04-27T12:35:36.037Z</time></trkpt><trkpt lat="34.09303" lon="-6.68629"><ele>93.0</ele><time>2026-04-27T12:35:37.037Z</time></trkpt><trkpt lat="34.0931217" lon="-6.68617"><ele>93.0</ele><time>2026-04-27T12:35:38.037Z</time></trkpt><trkpt lat="34.0932067" lon="-6.6860567"><ele>93.0</ele><time>2026-04-27T12:35:39.037Z</time></trkpt><trkpt lat="34.0932933" lon="-6.68596"><ele>93.4</ele><time>2026-04-27T12:35:40.037Z</time></trkpt><trkpt lat="34.0933683" lon="-6.68587"><ele>93.80000000000001</ele><time>2026-04-27T12:35:41.037Z</time></trkpt><trkpt lat="34.09344" lon="-6.6857883"><ele>94.2</ele><time>2026-04-27T12:35:42.037Z</time></trkpt><trkpt lat="34.0934917" lon="-6.68572"><ele>94.6</ele><time>2026-04-27T12:35:43.037Z</time></trkpt><trkpt lat="34.09357" lon="-6.6856083"><ele>95.0</ele><time>2026-04-27T12:35:45.037Z</time></trkpt><trkpt lat="34.09364" lon="-6.6855217"><ele>95.0</ele><time>2026-04-27T12:35:47.037Z</time></trkpt><trkpt lat="34.0937083" lon="-6.6854467"><ele>95.0</ele><time>2026-04-27T12:35:49.037Z</time></trkpt><trkpt lat="34.0937667" lon="-6.6853733"><ele>95.0</ele><time>2026-04-27T12:35:51.037Z</time></trkpt><trkpt lat="34.0938333" lon="-6.68531"><ele>95.0</ele><time>2026-04-27T12:35:53.036Z</time></trkpt><trkpt lat="34.09388" lon="-6.68525"><ele>95.0</ele><time>2026-04-27T12:35:56.036Z</time></trkpt><trkpt lat="34.093945" lon="-6.685165"><ele>95.0</ele><time>2026-04-27T12:36:52.036Z</time></trkpt><trkpt lat="34.0940033" lon="-6.685075"><ele>95.16666666666667</ele><time>2026-04-27T12:36:55.036Z</time></trkpt><trkpt lat="34.09404" lon="-6.68498"><ele>95.33333333333334</ele><time>2026-04-27T12:36:57.036Z</time></trkpt><trkpt lat="34.0940867" lon="-6.6848817"><ele>95.5</ele><time>2026-04-27T12:36:59.036Z</time></trkpt><trkpt lat="34.0941267" lon="-6.6847967"><ele>95.66666666666667</ele><time>2026-04-27T12:37:01.036Z</time></trkpt><trkpt lat="34.0941633" lon="-6.6847183"><ele>95.83333333333333</ele><time>2026-04-27T12:37:03.036Z</time></trkpt><trkpt lat="34.0942133" lon="-6.6846483"><ele>96.0</ele><time>2026-04-27T12:37:05.036Z</time></trkpt><trkpt lat="34.09427" lon="-6.6845633"><ele>95.66666666666667</ele><time>2026-04-27T12:37:08.036Z</time></trkpt><trkpt lat="34.0943083" lon="-6.68448"><ele>95.33333333333333</ele><time>2026-04-27T12:37:12.036Z</time></trkpt><trkpt lat="34.094355" lon="-6.6844217"><ele>95.0</ele><time>2026-04-27T12:41:03.045Z</time></trkpt><trkpt lat="34.0944483" lon="-6.6843667"><ele>94.66666666666666</ele><time>2026-04-27T12:41:05.045Z</time></trkpt><trkpt lat="34.0945067" lon="-6.68432"><ele>94.33333333333333</ele><time>2026-04-27T12:41:06.045Z</time></trkpt><trkpt lat="34.0945717" lon="-6.68426"><ele>94.0</ele><time>2026-04-27T12:41:07.045Z</time></trkpt><trkpt lat="34.0946383" lon="-6.6841933"><ele>94.0</ele><time>2026-04-27T12:41:08.045Z</time></trkpt><trkpt lat="34.09471" lon="-6.6841183"><ele>94.0</ele><time>2026-04-27T12:41:09.044Z</time></trkpt><trkpt lat="34.0947833" lon="-6.6840433"><ele>94.0</ele><time>2026-04-27T12:41:10.045Z</time></trkpt><trkpt lat="34.09486" lon="-6.683965"><ele>94.0</ele><time>2026-04-27T12:41:11.045Z</time></trkpt><trkpt lat="34.0949317" lon="-6.6838933"><ele>94.0</ele><time>2026-04-27T12:41:12.045Z</time></trkpt><trkpt lat="34.095" lon="-6.6838317"><ele>94.0</ele><time>2026-04-27T12:41:13.045Z</time></trkpt><trkpt lat="34.09506" lon="-6.6837733"><ele>94.0</ele><time>2026-04-27T12:41:14.045Z</time></trkpt><trkpt lat="34.0951117" lon="-6.683715"><ele>94.0</ele><time>2026-04-27T12:41:15.045Z</time></trkpt><trkpt lat="34.0951517" lon="-6.6836233"><ele>94.0</ele><time>2026-04-27T12:41:16.045Z</time></trkpt><trkpt lat="34.095165" lon="-6.6835117"><ele>94.0</ele><time>2026-04-27T12:41:17.045Z</time></trkpt><trkpt lat="34.0951617" lon="-6.6834017"><ele>94.0</ele><time>2026-04-27T12:41:18.045Z</time></trkpt><trkpt lat="34.0951333" lon="-6.6832767"><ele>94.0</ele><time>2026-04-27T12:41:19.045Z</time></trkpt><trkpt lat="34.0950783" lon="-6.6831483"><ele>94.0</ele><time>2026-04-27T12:41:20.045Z</time></trkpt><trkpt lat="34.0949983" lon="-6.6830133"><ele>94.0</ele><time>2026-04-27T12:41:21.044Z</time></trkpt><trkpt lat="34.09491" lon="-6.6828783"><ele>94.0</ele><time>2026-04-27T12:41:22.044Z</time></trkpt><trkpt lat="34.0948233" lon="-6.682755"><ele>94.0</ele><time>2026-04-27T12:41:23.044Z</time></trkpt><trkpt lat="34.094745" lon="-6.6826333"><ele>94.0</ele><time>2026-04-27T12:41:24.044Z</time></trkpt><trkpt lat="34.0946783" lon="-6.6825133"><ele>94.0</ele><time>2026-04-27T12:41:25.044Z</time></trkpt><trkpt lat="34.0946183" lon="-6.68239"><ele>94.0</ele><time>2026-04-27T12:41:26.044Z</time></trkpt><trkpt lat="34.094575" lon="-6.6822567"><ele>94.0</ele><time>2026-04-27T12:41:27.044Z</time></trkpt><trkpt lat="34.09454" lon="-6.6821067"><ele>94.0</ele><time>2026-04-27T12:41:28.044Z</time></trkpt><trkpt lat="34.0945183" lon="-6.6819417"><ele>94.0</ele><time>2026-04-27T12:41:29.044Z</time></trkpt><trkpt lat="34.0945" lon="-6.6817683"><ele>94.0</ele><time>2026-04-27T12:41:30.044Z</time></trkpt><trkpt lat="34.0944917" lon="-6.6815933"><ele>94.5</ele><time>2026-04-27T12:41:31.044Z</time></trkpt><trkpt lat="34.0944883" lon="-6.68142"><ele>95.0</ele><time>2026-04-27T12:41:32.044Z</time></trkpt><trkpt lat="34.0944783" lon="-6.6812483"><ele>95.5</ele><time>2026-04-27T12:41:33.044Z</time></trkpt><trkpt lat="34.0944717" lon="-6.68108"><ele>96.0</ele><time>2026-04-27T12:41:34.044Z</time></trkpt><trkpt lat="34.0944633" lon="-6.68091"><ele>96.5</ele><time>2026-04-27T12:41:35.044Z</time></trkpt><trkpt lat="34.09445" lon="-6.6807433"><ele>97.0</ele><time>2026-04-27T12:41:36.044Z</time></trkpt><trkpt lat="34.094445" lon="-6.680575"><ele>97.5</ele><time>2026-04-27T12:41:37.044Z</time></trkpt><trkpt lat="34.09443" lon="-6.6804067"><ele>98.0</ele><time>2026-04-27T12:41:38.044Z</time></trkpt><trkpt lat="34.0944233" lon="-6.6802383"><ele>98.75</ele><time>2026-04-27T12:41:39.044Z</time></trkpt><trkpt lat="34.0944083" lon="-6.68007"><ele>99.5</ele><time>2026-04-27T12:41:40.044Z</time></trkpt><trkpt lat="34.09439" lon="-6.6799083"><ele>100.25</ele><time>2026-04-27T12:41:41.044Z</time></trkpt><trkpt lat="34.0943583" lon="-6.67976"><ele>101.0</ele><time>2026-04-27T12:41:42.044Z</time></trkpt><trkpt lat="34.0942967" lon="-6.6796367"><ele>101.0</ele><time>2026-04-27T12:41:43.043Z</time></trkpt><trkpt lat="34.09421" lon="-6.6795383"><ele>101.0</ele><time>2026-04-27T12:41:44.044Z</time></trkpt><trkpt lat="34.0941117" lon="-6.679465"><ele>101.0</ele><time>2026-04-27T12:41:45.044Z</time></trkpt><trkpt lat="34.0939867" lon="-6.679425"><ele>101.0</ele><time>2026-04-27T12:41:46.044Z</time></trkpt><trkpt lat="34.0938617" lon="-6.679385"><ele>102.25</ele><time>2026-04-27T12:41:47.044Z</time></trkpt><trkpt lat="34.0937317" lon="-6.67936"><ele>103.5</ele><time>2026-04-27T12:41:48.044Z</time></trkpt><trkpt lat="34.0935883" lon="-6.6793567"><ele>104.75</ele><time>2026-04-27T12:41:49.044Z</time></trkpt><trkpt lat="34.0934467" lon="-6.679355"><ele>106.0</ele><time>2026-04-27T12:41:50.044Z</time></trkpt><trkpt lat="34.0933" lon="-6.6793517"><ele>106.0</ele><time>2026-04-27T12:41:51.044Z</time></trkpt><trkpt lat="34.0931517" lon="-6.6793417"><ele>106.0</ele><time>2026-04-27T12:41:52.044Z</time></trkpt><trkpt lat="34.0930033" lon="-6.6793317"><ele>106.0</ele><time>2026-04-27T12:41:53.044Z</time></trkpt><trkpt lat="34.0928583" lon="-6.6793167"><ele>106.0</ele><time>2026-04-27T12:41:54.043Z</time></trkpt><trkpt lat="34.0927167" lon="-6.67931"><ele>106.0</ele><time>2026-04-27T12:41:55.043Z</time></trkpt><trkpt lat="34.0925683" lon="-6.6793017"><ele>106.0</ele><time>2026-04-27T12:41:56.044Z</time></trkpt><trkpt lat="34.0924183" lon="-6.6792933"><ele>106.0</ele><time>2026-04-27T12:41:57.044Z</time></trkpt><trkpt lat="34.09227" lon="-6.6792767"><ele>106.0</ele><time>2026-04-27T12:41:58.044Z</time></trkpt><trkpt lat="34.0921283" lon="-6.6792667"><ele>106.5</ele><time>2026-04-27T12:41:59.043Z</time></trkpt><trkpt lat="34.0919917" lon="-6.6792583"><ele>107.0</ele><time>2026-04-27T12:42:00.044Z</time></trkpt><trkpt lat="34.0918683" lon="-6.6792333"><ele>107.5</ele><time>2026-04-27T12:42:01.044Z</time></trkpt><trkpt lat="34.09175" lon="-6.6791867"><ele>108.0</ele><time>2026-04-27T12:42:02.044Z</time></trkpt><trkpt lat="34.09164" lon="-6.6791317"><ele>107.75</ele><time>2026-04-27T12:42:03.044Z</time></trkpt><trkpt lat="34.0915267" lon="-6.6790567"><ele>107.5</ele><time>2026-04-27T12:42:04.044Z</time></trkpt><trkpt lat="34.0914267" lon="-6.6789633"><ele>107.25</ele><time>2026-04-27T12:42:05.044Z</time></trkpt><trkpt lat="34.091355" lon="-6.67884"><ele>107.0</ele><time>2026-04-27T12:42:06.043Z</time></trkpt><trkpt lat="34.091295" lon="-6.6787"><ele>107.75</ele><time>2026-04-27T12:42:07.044Z</time></trkpt><trkpt lat="34.0912433" lon="-6.6785517"><ele>108.5</ele><time>2026-04-27T12:42:08.044Z</time></trkpt><trkpt lat="34.0911867" lon="-6.678395"><ele>109.25</ele><time>2026-04-27T12:42:09.044Z</time></trkpt><trkpt lat="34.09112" lon="-6.6782283"><ele>110.0</ele><time>2026-04-27T12:42:10.044Z</time></trkpt><trkpt lat="34.0910633" lon="-6.6780583"><ele>110.0</ele><time>2026-04-27T12:42:11.044Z</time></trkpt><trkpt lat="34.090995" lon="-6.6778833"><ele>110.0</ele><time>2026-04-27T12:42:12.044Z</time></trkpt><trkpt lat="34.090935" lon="-6.6777117"><ele>110.0</ele><time>2026-04-27T12:42:13.044Z</time></trkpt><trkpt lat="34.0908717" lon="-6.6775433"><ele>110.25</ele><time>2026-04-27T12:42:14.044Z</time></trkpt><trkpt lat="34.0908133" lon="-6.6773717"><ele>110.5</ele><time>2026-04-27T12:42:15.044Z</time></trkpt><trkpt lat="34.0907567" lon="-6.6772083"><ele>110.75</ele><time>2026-04-27T12:42:16.044Z</time></trkpt><trkpt lat="34.0907" lon="-6.6770417"><ele>111.0</ele><time>2026-04-27T12:42:17.044Z</time></trkpt><trkpt lat="34.0906417" lon="-6.6768767"><ele>111.75</ele><time>2026-04-27T12:42:18.044Z</time></trkpt><trkpt lat="34.0905817" lon="-6.67672"><ele>112.5</ele><time>2026-04-27T12:42:19.044Z</time></trkpt><trkpt lat="34.09052" lon="-6.67656"><ele>113.25</ele><time>2026-04-27T12:42:20.044Z</time></trkpt><trkpt lat="34.09046" lon="-6.6764"><ele>114.0</ele><time>2026-04-27T12:42:21.044Z</time></trkpt><trkpt lat="34.0903967" lon="-6.6762367"><ele>114.33333333333334</ele><time>2026-04-27T12:42:22.044Z</time></trkpt><trkpt lat="34.090335" lon="-6.6760667"><ele>114.66666666666667</ele><time>2026-04-27T12:42:23.044Z</time></trkpt><trkpt lat="34.0902683" lon="-6.675895"><ele>115.0</ele><time>2026-04-27T12:42:24.044Z</time></trkpt><trkpt lat="34.0902033" lon="-6.6757233"><ele>115.0</ele><time>2026-04-27T12:42:25.044Z</time></trkpt><trkpt lat="34.0901333" lon="-6.6755517"><ele>115.0</ele><time>2026-04-27T12:42:26.044Z</time></trkpt><trkpt lat="34.090065" lon="-6.6753767"><ele>115.0</ele><time>2026-04-27T12:42:27.044Z</time></trkpt><trkpt lat="34.0900017" lon="-6.675195"><ele>115.0</ele><time>2026-04-27T12:42:28.043Z</time></trkpt><trkpt lat="34.0899333" lon="-6.6750083"><ele>115.0</ele><time>2026-04-27T12:42:29.044Z</time></trkpt><trkpt lat="34.0898633" lon="-6.6748167"><ele>115.0</ele><time>2026-04-27T12:42:30.044Z</time></trkpt><trkpt lat="34.08979" lon="-6.67462"><ele>115.66666666666667</ele><time>2026-04-27T12:42:31.044Z</time></trkpt><trkpt lat="34.0897167" lon="-6.67442"><ele>116.33333333333334</ele><time>2026-04-27T12:42:32.044Z</time></trkpt><trkpt lat="34.0896417" lon="-6.6742167"><ele>117.0</ele><time>2026-04-27T12:42:33.044Z</time></trkpt><trkpt lat="34.0895667" lon="-6.6740117"><ele>117.0</ele><time>2026-04-27T12:42:34.044Z</time></trkpt><trkpt lat="34.0894933" lon="-6.6738067"><ele>117.0</ele><time>2026-04-27T12:42:35.043Z</time></trkpt><trkpt lat="34.0894167" lon="-6.6735983"><ele>117.0</ele><time>2026-04-27T12:42:36.044Z</time></trkpt><trkpt lat="34.089335" lon="-6.6733917"><ele>117.33333333333334</ele><time>2026-04-27T12:42:37.044Z</time></trkpt><trkpt lat="34.0892567" lon="-6.6731783"><ele>117.66666666666667</ele><time>2026-04-27T12:42:38.044Z</time></trkpt><trkpt lat="34.0891783" lon="-6.6729667"><ele>118.0</ele><time>2026-04-27T12:42:39.044Z</time></trkpt><trkpt lat="34.0891" lon="-6.672745"><ele>118.66666666666667</ele><time>2026-04-27T12:42:40.044Z</time></trkpt><trkpt lat="34.0890167" lon="-6.6725283"><ele>119.33333333333334</ele><time>2026-04-27T12:42:41.043Z</time></trkpt><trkpt lat="34.088935" lon="-6.6723167"><ele>120.0</ele><time>2026-04-27T12:42:42.044Z</time></trkpt><trkpt lat="34.08885" lon="-6.6720967"><ele>120.0</ele><time>2026-04-27T12:42:43.044Z</time></trkpt><trkpt lat="34.0887633" lon="-6.671875"><ele>120.0</ele><time>2026-04-27T12:42:44.044Z</time></trkpt><trkpt lat="34.08868" lon="-6.67166"><ele>120.0</ele><time>2026-04-27T12:42:45.044Z</time></trkpt><trkpt lat="34.088595" lon="-6.6714433"><ele>120.0</ele><time>2026-04-27T12:42:46.044Z</time></trkpt><trkpt lat="34.088515" lon="-6.6712267"><ele>120.0</ele><time>2026-04-27T12:42:47.044Z</time></trkpt><trkpt lat="34.0884333" lon="-6.6710133"><ele>120.0</ele><time>2026-04-27T12:42:48.044Z</time></trkpt><trkpt lat="34.08835" lon="-6.6707967"><ele>120.33333333333334</ele><time>2026-04-27T12:42:49.044Z</time></trkpt><trkpt lat="34.0882733" lon="-6.67058"><ele>120.66666666666667</ele><time>2026-04-27T12:42:50.044Z</time></trkpt><trkpt lat="34.088195" lon="-6.6703567"><ele>121.0</ele><time>2026-04-27T12:42:51.043Z</time></trkpt><trkpt lat="34.0881133" lon="-6.6701383"><ele>121.66666666666667</ele><time>2026-04-27T12:42:52.044Z</time></trkpt><trkpt lat="34.0880333" lon="-6.6699117"><ele>122.33333333333334</ele><time>2026-04-27T12:42:53.044Z</time></trkpt><trkpt lat="34.0879567" lon="-6.669685"><ele>123.0</ele><time>2026-04-27T12:42:54.044Z</time></trkpt><trkpt lat="34.08787" lon="-6.66946"><ele>124.0</ele><time>2026-04-27T12:42:55.044Z</time></trkpt><trkpt lat="34.0877867" lon="-6.6692383"><ele>125.0</ele><time>2026-04-27T12:42:56.044Z</time></trkpt><trkpt lat="34.0877033" lon="-6.6690083"><ele>126.0</ele><time>2026-04-27T12:42:57.044Z</time></trkpt><trkpt lat="34.0876133" lon="-6.6687817"><ele>127.0</ele><time>2026-04-27T12:42:58.044Z</time></trkpt><trkpt lat="34.0875283" lon="-6.6685567"><ele>128.0</ele><time>2026-04-27T12:42:59.044Z</time></trkpt><trkpt lat="34.087445" lon="-6.6683333"><ele>129.0</ele><time>2026-04-27T12:43:00.044Z</time></trkpt><trkpt lat="34.087365" lon="-6.66811"><ele>129.66666666666666</ele><time>2026-04-27T12:43:01.044Z</time></trkpt><trkpt lat="34.087285" lon="-6.6678867"><ele>130.33333333333331</ele><time>2026-04-27T12:43:02.044Z</time></trkpt><trkpt lat="34.087205" lon="-6.6676683"><ele>131.0</ele><time>2026-04-27T12:43:03.043Z</time></trkpt><trkpt lat="34.0871233" lon="-6.66745"><ele>131.33333333333331</ele><time>2026-04-27T12:43:04.044Z</time></trkpt><trkpt lat="34.08704" lon="-6.6672283"><ele>131.66666666666666</ele><time>2026-04-27T12:43:05.044Z</time></trkpt><trkpt lat="34.0869533" lon="-6.66701"><ele>132.0</ele><time>2026-04-27T12:43:06.044Z</time></trkpt><trkpt lat="34.0868767" lon="-6.6667933"><ele>132.0</ele><time>2026-04-27T12:43:07.044Z</time></trkpt><trkpt lat="34.08679" lon="-6.6665717"><ele>132.0</ele><time>2026-04-27T12:43:08.043Z</time></trkpt><trkpt lat="34.0867033" lon="-6.6663483"><ele>132.0</ele><time>2026-04-27T12:43:09.044Z</time></trkpt><trkpt lat="34.0866217" lon="-6.66612"><ele>131.66666666666666</ele><time>2026-04-27T12:43:10.044Z</time></trkpt><trkpt lat="34.0865383" lon="-6.66589"><ele>131.33333333333331</ele><time>2026-04-27T12:43:11.044Z</time></trkpt><trkpt lat="34.0864517" lon="-6.6656633"><ele>131.0</ele><time>2026-04-27T12:43:12.044Z</time></trkpt><trkpt lat="34.08637" lon="-6.66543"><ele>130.66666666666666</ele><time>2026-04-27T12:43:13.043Z</time></trkpt><trkpt lat="34.0862867" lon="-6.6651967"><ele>130.33333333333334</ele><time>2026-04-27T12:43:14.044Z</time></trkpt><trkpt lat="34.086205" lon="-6.664965"><ele>130.0</ele><time>2026-04-27T12:43:15.044Z</time></trkpt><trkpt lat="34.08612" lon="-6.6647383"><ele>130.0</ele><time>2026-04-27T12:43:16.044Z</time></trkpt><trkpt lat="34.0860333" lon="-6.6645083"><ele>130.0</ele><time>2026-04-27T12:43:17.044Z</time></trkpt><trkpt lat="34.0859483" lon="-6.6642833"><ele>130.0</ele><time>2026-04-27T12:43:18.044Z</time></trkpt><trkpt lat="34.085855" lon="-6.6640533"><ele>129.33333333333334</ele><time>2026-04-27T12:43:19.044Z</time></trkpt><trkpt lat="34.085765" lon="-6.6638167"><ele>128.66666666666666</ele><time>2026-04-27T12:43:20.044Z</time></trkpt><trkpt lat="34.085675" lon="-6.66358"><ele>128.0</ele><time>2026-04-27T12:43:21.044Z</time></trkpt><trkpt lat="34.0855833" lon="-6.66334"><ele>126.0</ele><time>2026-04-27T12:43:22.044Z</time></trkpt><trkpt lat="34.0854933" lon="-6.6631"><ele>124.0</ele><time>2026-04-27T12:43:23.044Z</time></trkpt><trkpt lat="34.0854067" lon="-6.6628533"><ele>122.0</ele><time>2026-04-27T12:43:24.044Z</time></trkpt><trkpt lat="34.0853167" lon="-6.662605"><ele>122.0</ele><time>2026-04-27T12:43:25.044Z</time></trkpt><trkpt lat="34.0852217" lon="-6.662355"><ele>122.0</ele><time>2026-04-27T12:43:26.044Z</time></trkpt><trkpt lat="34.0851283" lon="-6.6621133"><ele>122.0</ele><time>2026-04-27T12:43:27.044Z</time></trkpt><trkpt lat="34.0850367" lon="-6.6618733"><ele>122.33333333333333</ele><time>2026-04-27T12:43:28.044Z</time></trkpt><trkpt lat="34.08495" lon="-6.6616383"><ele>122.66666666666666</ele><time>2026-04-27T12:43:29.044Z</time></trkpt><trkpt lat="34.0848683" lon="-6.6614183"><ele>123.0</ele><time>2026-04-27T12:43:30.044Z</time></trkpt><trkpt lat="34.0847967" lon="-6.6612083"><ele>124.66666666666666</ele><time>2026-04-27T12:43:31.044Z</time></trkpt><trkpt lat="34.084725" lon="-6.6610067"><ele>126.33333333333333</ele><time>2026-04-27T12:43:32.044Z</time></trkpt><trkpt lat="34.08465" lon="-6.6608167"><ele>128.0</ele><time>2026-04-27T12:43:33.044Z</time></trkpt><trkpt lat="34.08458" lon="-6.6606283"><ele>128.0</ele><time>2026-04-27T12:43:34.044Z</time></trkpt><trkpt lat="34.0845117" lon="-6.6604417"><ele>128.0</ele><time>2026-04-27T12:43:35.044Z</time></trkpt><trkpt lat="34.08444" lon="-6.66025"><ele>128.0</ele><time>2026-04-27T12:43:36.044Z</time></trkpt><trkpt lat="34.0843667" lon="-6.660055"><ele>129.0</ele><time>2026-04-27T12:43:37.044Z</time></trkpt><trkpt lat="34.0842933" lon="-6.6598583"><ele>130.0</ele><time>2026-04-27T12:43:38.044Z</time></trkpt><trkpt lat="34.0842183" lon="-6.6596633"><ele>131.0</ele><time>2026-04-27T12:43:39.044Z</time></trkpt><trkpt lat="34.08414" lon="-6.659455"><ele>133.0</ele><time>2026-04-27T12:43:40.044Z</time></trkpt><trkpt lat="34.0840683" lon="-6.6592467"><ele>135.0</ele><time>2026-04-27T12:43:41.043Z</time></trkpt><trkpt lat="34.0839917" lon="-6.6590483"><ele>137.0</ele><time>2026-04-27T12:43:42.044Z</time></trkpt><trkpt lat="34.0839183" lon="-6.6588433"><ele>137.0</ele><time>2026-04-27T12:43:43.043Z</time></trkpt><trkpt lat="34.0838367" lon="-6.6586383"><ele>137.0</ele><time>2026-04-27T12:43:44.044Z</time></trkpt><trkpt lat="34.08376" lon="-6.6584233"><ele>137.0</ele><time>2026-04-27T12:43:45.044Z</time></trkpt><trkpt lat="34.08368" lon="-6.6582083"><ele>137.0</ele><time>2026-04-27T12:43:46.044Z</time></trkpt><trkpt lat="34.0836" lon="-6.657995"><ele>137.0</ele><time>2026-04-27T12:43:47.044Z</time></trkpt><trkpt lat="34.0835217" lon="-6.657785"><ele>137.0</ele><time>2026-04-27T12:43:48.043Z</time></trkpt><trkpt lat="34.08344" lon="-6.65757"><ele>137.66666666666666</ele><time>2026-04-27T12:43:49.044Z</time></trkpt><trkpt lat="34.0833583" lon="-6.6573617"><ele>138.33333333333334</ele><time>2026-04-27T12:43:50.044Z</time></trkpt><trkpt lat="34.08328" lon="-6.6571483"><ele>139.0</ele><time>2026-04-27T12:43:51.044Z</time></trkpt><trkpt lat="34.0832067" lon="-6.6569433"><ele>139.33333333333334</ele><time>2026-04-27T12:43:52.044Z</time></trkpt><trkpt lat="34.083135" lon="-6.6567433"><ele>139.66666666666666</ele><time>2026-04-27T12:43:53.044Z</time></trkpt><trkpt lat="34.083065" lon="-6.6565533"><ele>140.0</ele><time>2026-04-27T12:43:54.044Z</time></trkpt><trkpt lat="34.0829983" lon="-6.6563683"><ele>140.0</ele><time>2026-04-27T12:43:55.044Z</time></trkpt><trkpt lat="34.082925" lon="-6.656185"><ele>140.0</ele><time>2026-04-27T12:43:56.044Z</time></trkpt><trkpt lat="34.0828533" lon="-6.6560083"><ele>140.0</ele><time>2026-04-27T12:43:57.044Z</time></trkpt><trkpt lat="34.082785" lon="-6.6558433"><ele>139.0</ele><time>2026-04-27T12:43:58.043Z</time></trkpt><trkpt lat="34.082725" lon="-6.6556967"><ele>138.0</ele><time>2026-04-27T12:43:59.044Z</time></trkpt><trkpt lat="34.0826717" lon="-6.6555717"><ele>137.0</ele><time>2026-04-27T12:44:00.044Z</time></trkpt><trkpt lat="34.0826267" lon="-6.6554917"><ele>136.0</ele><time>2026-04-27T12:44:01.044Z</time></trkpt><trkpt lat="34.0825633" lon="-6.6554383"><ele>135.0</ele><time>2026-04-27T12:44:02.044Z</time></trkpt><trkpt lat="34.0824883" lon="-6.65538"><ele>134.0</ele><time>2026-04-27T12:44:03.044Z</time></trkpt><trkpt lat="34.0824133" lon="-6.6552983"><ele>133.0</ele><time>2026-04-27T12:44:04.044Z</time></trkpt><trkpt lat="34.0823517" lon="-6.6551767"><ele>132.0</ele><time>2026-04-27T12:44:05.044Z</time></trkpt><trkpt lat="34.0823" lon="-6.6550167"><ele>131.0</ele><time>2026-04-27T12:44:06.044Z</time></trkpt><trkpt lat="34.082255" lon="-6.6548267"><ele>127.66666666666666</ele><time>2026-04-27T12:44:07.044Z</time></trkpt><trkpt lat="34.0822183" lon="-6.654635"><ele>124.33333333333334</ele><time>2026-04-27T12:44:08.044Z</time></trkpt><trkpt lat="34.0821717" lon="-6.6544483"><ele>121.0</ele><time>2026-04-27T12:44:09.044Z</time></trkpt><trkpt lat="34.0821233" lon="-6.654265"><ele>120.66666666666667</ele><time>2026-04-27T12:44:10.044Z</time></trkpt><trkpt lat="34.0820717" lon="-6.654085"><ele>120.33333333333334</ele><time>2026-04-27T12:44:11.044Z</time></trkpt><trkpt lat="34.08202" lon="-6.6539067"><ele>120.0</ele><time>2026-04-27T12:44:12.044Z</time></trkpt><trkpt lat="34.08197" lon="-6.65373"><ele>119.33333333333334</ele><time>2026-04-27T12:44:13.044Z</time></trkpt><trkpt lat="34.0819117" lon="-6.653545"><ele>118.66666666666667</ele><time>2026-04-27T12:44:14.044Z</time></trkpt><trkpt lat="34.0818483" lon="-6.6533567"><ele>118.0</ele><time>2026-04-27T12:44:15.043Z</time></trkpt><trkpt lat="34.0817833" lon="-6.6531683"><ele>118.0</ele><time>2026-04-27T12:44:16.043Z</time></trkpt><trkpt lat="34.0817083" lon="-6.6529817"><ele>118.0</ele><time>2026-04-27T12:44:17.044Z</time></trkpt><trkpt lat="34.081635" lon="-6.65279"><ele>118.0</ele><time>2026-04-27T12:44:18.044Z</time></trkpt><trkpt lat="34.0815633" lon="-6.65259"><ele>114.66666666666667</ele><time>2026-04-27T12:44:19.044Z</time></trkpt><trkpt lat="34.0814933" lon="-6.6523967"><ele>111.33333333333334</ele><time>2026-04-27T12:44:20.044Z</time></trkpt><trkpt lat="34.0814183" lon="-6.6522033"><ele>108.0</ele><time>2026-04-27T12:44:21.044Z</time></trkpt><trkpt lat="34.0813467" lon="-6.652005"><ele>108.0</ele><time>2026-04-27T12:44:22.044Z</time></trkpt><trkpt lat="34.0812733" lon="-6.6518067"><ele>108.0</ele><time>2026-04-27T12:44:23.044Z</time></trkpt><trkpt lat="34.0812083" lon="-6.6516083"><ele>108.0</ele><time>2026-04-27T12:44:24.044Z</time></trkpt><trkpt lat="34.0811417" lon="-6.6514233"><ele>108.0</ele><time>2026-04-27T12:44:25.044Z</time></trkpt><trkpt lat="34.0810717" lon="-6.6512417"><ele>108.0</ele><time>2026-04-27T12:44:26.044Z</time></trkpt><trkpt lat="34.0809983" lon="-6.65106"><ele>108.0</ele><time>2026-04-27T12:44:27.044Z</time></trkpt><trkpt lat="34.0809267" lon="-6.650875"><ele>108.0</ele><time>2026-04-27T12:44:28.043Z</time></trkpt><trkpt lat="34.08086" lon="-6.6506833"><ele>108.0</ele><time>2026-04-27T12:44:29.044Z</time></trkpt><trkpt lat="34.0807917" lon="-6.650485"><ele>108.0</ele><time>2026-04-27T12:44:30.044Z</time></trkpt><trkpt lat="34.0807183" lon="-6.6502933"><ele>109.33333333333334</ele><time>2026-04-27T12:44:31.043Z</time></trkpt><trkpt lat="34.0806483" lon="-6.6501033"><ele>110.66666666666667</ele><time>2026-04-27T12:44:32.044Z</time></trkpt><trkpt lat="34.080575" lon="-6.6499117"><ele>112.0</ele><time>2026-04-27T12:44:33.044Z</time></trkpt><trkpt lat="34.080505" lon="-6.6497183"><ele>112.0</ele><time>2026-04-27T12:44:34.044Z</time></trkpt><trkpt lat="34.08044" lon="-6.6495217"><ele>112.0</ele><time>2026-04-27T12:44:35.044Z</time></trkpt><trkpt lat="34.0803683" lon="-6.6493317"><ele>112.0</ele><time>2026-04-27T12:44:36.044Z</time></trkpt><trkpt lat="34.08029" lon="-6.6491383"><ele>113.0</ele><time>2026-04-27T12:44:37.044Z</time></trkpt><trkpt lat="34.0802233" lon="-6.648945"><ele>114.0</ele><time>2026-04-27T12:44:38.044Z</time></trkpt><trkpt lat="34.080155" lon="-6.6487533"><ele>115.0</ele><time>2026-04-27T12:44:39.044Z</time></trkpt><trkpt lat="34.080085" lon="-6.6485583"><ele>116.66666666666667</ele><time>2026-04-27T12:44:40.044Z</time></trkpt><trkpt lat="34.0800167" lon="-6.6483633"><ele>118.33333333333334</ele><time>2026-04-27T12:44:41.044Z</time></trkpt><trkpt lat="34.0799517" lon="-6.6481667"><ele>120.0</ele><time>2026-04-27T12:44:42.044Z</time></trkpt><trkpt lat="34.0798833" lon="-6.647975"><ele>122.0</ele><time>2026-04-27T12:44:43.044Z</time></trkpt><trkpt lat="34.0798117" lon="-6.6477833"><ele>124.0</ele><time>2026-04-27T12:44:44.043Z</time></trkpt><trkpt lat="34.0797417" lon="-6.64759"><ele>126.0</ele><time>2026-04-27T12:44:45.044Z</time></trkpt><trkpt lat="34.07967" lon="-6.647395"><ele>126.0</ele><time>2026-04-27T12:44:46.044Z</time></trkpt><trkpt lat="34.0795983" lon="-6.6472017"><ele>126.0</ele><time>2026-04-27T12:44:47.044Z</time></trkpt><trkpt lat="34.0795283" lon="-6.6470067"><ele>126.0</ele><time>2026-04-27T12:44:48.044Z</time></trkpt><trkpt lat="34.0794533" lon="-6.646815"><ele>126.33333333333334</ele><time>2026-04-27T12:44:49.044Z</time></trkpt><trkpt lat="34.0793867" lon="-6.646615"><ele>126.66666666666667</ele><time>2026-04-27T12:44:50.044Z</time></trkpt><trkpt lat="34.0793183" lon="-6.6464267"><ele>127.0</ele><time>2026-04-27T12:44:51.044Z</time></trkpt><trkpt lat="34.079245" lon="-6.64623"><ele>128.33333333333334</ele><time>2026-04-27T12:44:52.043Z</time></trkpt><trkpt lat="34.07917" lon="-6.6460317"><ele>129.66666666666666</ele><time>2026-04-27T12:44:53.044Z</time></trkpt><trkpt lat="34.0790983" lon="-6.6458333"><ele>131.0</ele><time>2026-04-27T12:44:54.044Z</time></trkpt><trkpt lat="34.0790283" lon="-6.6456333"><ele>131.0</ele><time>2026-04-27T12:44:55.044Z</time></trkpt><trkpt lat="34.078955" lon="-6.64543"><ele>131.0</ele><time>2026-04-27T12:44:56.044Z</time></trkpt><trkpt lat="34.0788767" lon="-6.645225"><ele>131.0</ele><time>2026-04-27T12:44:57.044Z</time></trkpt><trkpt lat="34.0787967" lon="-6.645015"><ele>130.66666666666666</ele><time>2026-04-27T12:44:58.043Z</time></trkpt><trkpt lat="34.0787133" lon="-6.6447983"><ele>130.33333333333334</ele><time>2026-04-27T12:44:59.044Z</time></trkpt><trkpt lat="34.07863" lon="-6.644575"><ele>130.0</ele><time>2026-04-27T12:45:00.044Z</time></trkpt><trkpt lat="34.078545" lon="-6.6443433"><ele>130.0</ele><time>2026-04-27T12:45:01.044Z</time></trkpt><trkpt lat="34.07847" lon="-6.6441117"><ele>130.0</ele><time>2026-04-27T12:45:02.044Z</time></trkpt><trkpt lat="34.0783817" lon="-6.6438717"><ele>130.0</ele><time>2026-04-27T12:45:03.044Z</time></trkpt><trkpt lat="34.0783033" lon="-6.6436317"><ele>129.33333333333334</ele><time>2026-04-27T12:45:04.044Z</time></trkpt><trkpt lat="34.0782133" lon="-6.6433967"><ele>128.66666666666666</ele><time>2026-04-27T12:45:05.044Z</time></trkpt><trkpt lat="34.078125" lon="-6.6431717"><ele>128.0</ele><time>2026-04-27T12:45:06.043Z</time></trkpt><trkpt lat="34.0780433" lon="-6.6429417"><ele>126.66666666666666</ele><time>2026-04-27T12:45:07.044Z</time></trkpt><trkpt lat="34.0779583" lon="-6.642715"><ele>125.33333333333334</ele><time>2026-04-27T12:45:08.044Z</time></trkpt><trkpt lat="34.0778717" lon="-6.6424883"><ele>124.0</ele><time>2026-04-27T12:45:09.043Z</time></trkpt><trkpt lat="34.0777883" lon="-6.6422533"><ele>124.0</ele><time>2026-04-27T12:45:10.044Z</time></trkpt><trkpt lat="34.0777017" lon="-6.6420183"><ele>124.0</ele><time>2026-04-27T12:45:11.044Z</time></trkpt><trkpt lat="34.0776117" lon="-6.6417783"><ele>124.0</ele><time>2026-04-27T12:45:12.044Z</time></trkpt><trkpt lat="34.0775233" lon="-6.6415317"><ele>124.0</ele><time>2026-04-27T12:45:13.044Z</time></trkpt><trkpt lat="34.0774417" lon="-6.6412983"><ele>124.0</ele><time>2026-04-27T12:45:14.043Z</time></trkpt><trkpt lat="34.0773517" lon="-6.64107"><ele>124.0</ele><time>2026-04-27T12:45:15.044Z</time></trkpt><trkpt lat="34.0772667" lon="-6.6408533"><ele>124.0</ele><time>2026-04-27T12:45:16.044Z</time></trkpt><trkpt lat="34.077185" lon="-6.6406383"><ele>124.0</ele><time>2026-04-27T12:45:17.044Z</time></trkpt><trkpt lat="34.0771083" lon="-6.6404217"><ele>124.0</ele><time>2026-04-27T12:45:18.044Z</time></trkpt><trkpt lat="34.0770367" lon="-6.6402067"><ele>123.0</ele><time>2026-04-27T12:45:19.044Z</time></trkpt><trkpt lat="34.07696" lon="-6.6399967"><ele>122.0</ele><time>2026-04-27T12:45:20.044Z</time></trkpt><trkpt lat="34.0768867" lon="-6.6397967"><ele>121.0</ele><time>2026-04-27T12:45:21.044Z</time></trkpt><trkpt lat="34.076815" lon="-6.639605"><ele>120.66666666666667</ele><time>2026-04-27T12:45:22.044Z</time></trkpt><trkpt lat="34.0767417" lon="-6.639415"><ele>120.33333333333334</ele><time>2026-04-27T12:45:23.044Z</time></trkpt><trkpt lat="34.0766717" lon="-6.6392217"><ele>120.0</ele><time>2026-04-27T12:45:24.044Z</time></trkpt><trkpt lat="34.076605" lon="-6.6390317"><ele>121.0</ele><time>2026-04-27T12:45:25.044Z</time></trkpt><trkpt lat="34.0765333" lon="-6.63884"><ele>122.0</ele><time>2026-04-27T12:45:26.044Z</time></trkpt><trkpt lat="34.07646" lon="-6.638645"><ele>123.0</ele><time>2026-04-27T12:45:27.043Z</time></trkpt><trkpt lat="34.0763933" lon="-6.6384483"><ele>123.0</ele><time>2026-04-27T12:45:28.044Z</time></trkpt><trkpt lat="34.07633" lon="-6.6382533"><ele>123.0</ele><time>2026-04-27T12:45:29.044Z</time></trkpt><trkpt lat="34.0762617" lon="-6.6380683"><ele>123.0</ele><time>2026-04-27T12:45:30.044Z</time></trkpt><trkpt lat="34.0761983" lon="-6.637895"><ele>123.25</ele><time>2026-04-27T12:45:31.042Z</time></trkpt><trkpt lat="34.076145" lon="-6.6377483"><ele>123.5</ele><time>2026-04-27T12:45:32.044Z</time></trkpt><trkpt lat="34.07609" lon="-6.6376067"><ele>123.75</ele><time>2026-04-27T12:45:33.044Z</time></trkpt><trkpt lat="34.0760367" lon="-6.63747"><ele>124.0</ele><time>2026-04-27T12:45:34.044Z</time></trkpt><trkpt lat="34.0759917" lon="-6.6373433"><ele>124.00000000000001</ele><time>2026-04-27T12:45:35.044Z</time></trkpt><trkpt lat="34.0759467" lon="-6.637225"><ele>124.0</ele><time>2026-04-27T12:45:36.044Z</time></trkpt><trkpt lat="34.0759" lon="-6.6371267"><ele>124.0</ele><time>2026-04-27T12:45:37.044Z</time></trkpt><trkpt lat="34.07587" lon="-6.63704"><ele>124.0</ele><time>2026-04-27T12:45:38.044Z</time></trkpt><trkpt lat="34.0758367" lon="-6.6369667"><ele>124.00000000000001</ele><time>2026-04-27T12:45:39.044Z</time></trkpt><trkpt lat="34.0758067" lon="-6.6368583"><ele>124.0</ele><time>2026-04-27T12:45:41.044Z</time></trkpt><trkpt lat="34.0757767" lon="-6.6367533"><ele>124.80000000000001</ele><time>2026-04-27T12:45:43.044Z</time></trkpt><trkpt lat="34.0757333" lon="-6.63665"><ele>125.60000000000001</ele><time>2026-04-27T12:45:45.044Z</time></trkpt><trkpt lat="34.0756817" lon="-6.6365167"><ele>126.4</ele><time>2026-04-27T12:45:47.044Z</time></trkpt><trkpt lat="34.0756533" lon="-6.6364333"><ele>127.2</ele><time>2026-04-27T12:45:48.044Z</time></trkpt><trkpt lat="34.0756217" lon="-6.6363283"><ele>128.0</ele><time>2026-04-27T12:45:49.044Z</time></trkpt><trkpt lat="34.0755833" lon="-6.6362117"><ele>128.75</ele><time>2026-04-27T12:45:50.044Z</time></trkpt><trkpt lat="34.07554" lon="-6.6360917"><ele>129.5</ele><time>2026-04-27T12:45:51.044Z</time></trkpt><trkpt lat="34.0754883" lon="-6.6359633"><ele>130.25</ele><time>2026-04-27T12:45:52.044Z</time></trkpt><trkpt lat="34.07543" lon="-6.6358217"><ele>131.0</ele><time>2026-04-27T12:45:53.044Z</time></trkpt><trkpt lat="34.075375" lon="-6.63567"><ele>131.0</ele><time>2026-04-27T12:45:54.044Z</time></trkpt><trkpt lat="34.0753233" lon="-6.6355217"><ele>131.0</ele><time>2026-04-27T12:45:55.044Z</time></trkpt><trkpt lat="34.07527" lon="-6.6353833"><ele>131.0</ele><time>2026-04-27T12:45:56.044Z</time></trkpt><trkpt lat="34.07522" lon="-6.63525"><ele>131.0</ele><time>2026-04-27T12:45:57.044Z</time></trkpt><trkpt lat="34.07517" lon="-6.6351117"><ele>131.0</ele><time>2026-04-27T12:45:58.043Z</time></trkpt><trkpt lat="34.0751183" lon="-6.6349733"><ele>131.0</ele><time>2026-04-27T12:45:59.044Z</time></trkpt><trkpt lat="34.0750667" lon="-6.6348283"><ele>131.0</ele><time>2026-04-27T12:46:00.044Z</time></trkpt><trkpt lat="34.0750117" lon="-6.6346867"><ele>131.0</ele><time>2026-04-27T12:46:01.044Z</time></trkpt><trkpt lat="34.0749583" lon="-6.6345417"><ele>131.25</ele><time>2026-04-27T12:46:02.044Z</time></trkpt><trkpt lat="34.07491" lon="-6.6343933"><ele>131.5</ele><time>2026-04-27T12:46:03.044Z</time></trkpt><trkpt lat="34.0748567" lon="-6.6342467"><ele>131.75</ele><time>2026-04-27T12:46:04.044Z</time></trkpt><trkpt lat="34.0748017" lon="-6.6340933"><ele>132.0</ele><time>2026-04-27T12:46:05.044Z</time></trkpt><trkpt lat="34.0747433" lon="-6.6339417"><ele>132.0</ele><time>2026-04-27T12:46:06.044Z</time></trkpt><trkpt lat="34.07468" lon="-6.6337917"><ele>132.0</ele><time>2026-04-27T12:46:07.044Z</time></trkpt><trkpt lat="34.07462" lon="-6.6336383"><ele>132.0</ele><time>2026-04-27T12:46:08.044Z</time></trkpt><trkpt lat="34.0745667" lon="-6.6334833"><ele>132.0</ele><time>2026-04-27T12:46:09.044Z</time></trkpt><trkpt lat="34.0745133" lon="-6.6333233"><ele>133.25</ele><time>2026-04-27T12:46:10.044Z</time></trkpt><trkpt lat="34.07446" lon="-6.6331683"><ele>134.5</ele><time>2026-04-27T12:46:11.043Z</time></trkpt><trkpt lat="34.074405" lon="-6.6330167"><ele>135.75</ele><time>2026-04-27T12:46:12.044Z</time></trkpt><trkpt lat="34.0743483" lon="-6.6328617"><ele>137.0</ele><time>2026-04-27T12:46:13.044Z</time></trkpt><trkpt lat="34.0742933" lon="-6.6327133"><ele>137.5</ele><time>2026-04-27T12:46:14.044Z</time></trkpt><trkpt lat="34.0742317" lon="-6.6325617"><ele>138.0</ele><time>2026-04-27T12:46:15.044Z</time></trkpt><trkpt lat="34.0741767" lon="-6.632405"><ele>138.5</ele><time>2026-04-27T12:46:16.043Z</time></trkpt><trkpt lat="34.0741217" lon="-6.632245"><ele>139.0</ele><time>2026-04-27T12:46:17.043Z</time></trkpt><trkpt lat="34.0740617" lon="-6.632085"><ele>140.25</ele><time>2026-04-27T12:46:18.043Z</time></trkpt><trkpt lat="34.0740033" lon="-6.6319333"><ele>141.5</ele><time>2026-04-27T12:46:19.042Z</time></trkpt><trkpt lat="34.0739533" lon="-6.6317867"><ele>142.75</ele><time>2026-04-27T12:46:20.043Z</time></trkpt><trkpt lat="34.0738983" lon="-6.6316383"><ele>144.0</ele><time>2026-04-27T12:46:21.043Z</time></trkpt><trkpt lat="34.0738567" lon="-6.6314933"><ele>144.0</ele><time>2026-04-27T12:46:22.043Z</time></trkpt><trkpt lat="34.0738117" lon="-6.63136"><ele>144.0</ele><time>2026-04-27T12:46:23.043Z</time></trkpt><trkpt lat="34.0737533" lon="-6.63123"><ele>144.0</ele><time>2026-04-27T12:46:24.043Z</time></trkpt><trkpt lat="34.0737033" lon="-6.6311"><ele>144.0</ele><time>2026-04-27T12:46:25.043Z</time></trkpt><trkpt lat="34.073655" lon="-6.6309767"><ele>144.25</ele><time>2026-04-27T12:46:26.043Z</time></trkpt><trkpt lat="34.0736033" lon="-6.63085"><ele>144.5</ele><time>2026-04-27T12:46:27.043Z</time></trkpt><trkpt lat="34.0735533" lon="-6.63072"><ele>144.75</ele><time>2026-04-27T12:46:28.043Z</time></trkpt><trkpt lat="34.0735033" lon="-6.630585"><ele>145.0</ele><time>2026-04-27T12:46:29.043Z</time></trkpt><trkpt lat="34.073455" lon="-6.6304467"><ele>145.25</ele><time>2026-04-27T12:46:30.043Z</time></trkpt><trkpt lat="34.0734033" lon="-6.6303067"><ele>145.5</ele><time>2026-04-27T12:46:31.043Z</time></trkpt><trkpt lat="34.0733517" lon="-6.6301617"><ele>145.75</ele><time>2026-04-27T12:46:32.043Z</time></trkpt><trkpt lat="34.073295" lon="-6.6300167"><ele>146.0</ele><time>2026-04-27T12:46:33.043Z</time></trkpt><trkpt lat="34.07324" lon="-6.6298633"><ele>146.25</ele><time>2026-04-27T12:46:34.043Z</time></trkpt><trkpt lat="34.07319" lon="-6.6297133"><ele>146.5</ele><time>2026-04-27T12:46:35.043Z</time></trkpt><trkpt lat="34.0731267" lon="-6.6295567"><ele>146.75</ele><time>2026-04-27T12:46:36.043Z</time></trkpt><trkpt lat="34.073065" lon="-6.62939"><ele>147.0</ele><time>2026-04-27T12:46:37.043Z</time></trkpt><trkpt lat="34.0730017" lon="-6.62922"><ele>147.66666666666666</ele><time>2026-04-27T12:46:38.043Z</time></trkpt><trkpt lat="34.072935" lon="-6.6290483"><ele>148.33333333333331</ele><time>2026-04-27T12:46:39.043Z</time></trkpt><trkpt lat="34.0728617" lon="-6.628875"><ele>149.0</ele><time>2026-04-27T12:46:40.043Z</time></trkpt><trkpt lat="34.0727983" lon="-6.628695"><ele>149.0</ele><time>2026-04-27T12:46:41.043Z</time></trkpt><trkpt lat="34.0727283" lon="-6.6285117"><ele>149.0</ele><time>2026-04-27T12:46:42.043Z</time></trkpt><trkpt lat="34.072665" lon="-6.628325"><ele>149.0</ele><time>2026-04-27T12:46:43.043Z</time></trkpt><trkpt lat="34.0726017" lon="-6.6281383"><ele>149.0</ele><time>2026-04-27T12:46:44.043Z</time></trkpt><trkpt lat="34.0725383" lon="-6.62795"><ele>149.0</ele><time>2026-04-27T12:46:45.043Z</time></trkpt><trkpt lat="34.0724667" lon="-6.6277633"><ele>149.0</ele><time>2026-04-27T12:46:46.043Z</time></trkpt><trkpt lat="34.072395" lon="-6.627575"><ele>149.66666666666666</ele><time>2026-04-27T12:46:47.043Z</time></trkpt><trkpt lat="34.0723267" lon="-6.62739"><ele>150.33333333333334</ele><time>2026-04-27T12:46:48.043Z</time></trkpt><trkpt lat="34.072265" lon="-6.6271967"><ele>151.0</ele><time>2026-04-27T12:46:49.043Z</time></trkpt><trkpt lat="34.0721983" lon="-6.62701"><ele>151.0</ele><time>2026-04-27T12:46:50.043Z</time></trkpt><trkpt lat="34.072135" lon="-6.626815"><ele>151.0</ele><time>2026-04-27T12:46:51.043Z</time></trkpt><trkpt lat="34.0720667" lon="-6.6266283"><ele>151.0</ele><time>2026-04-27T12:46:52.043Z</time></trkpt><trkpt lat="34.071995" lon="-6.6264517"><ele>151.0</ele><time>2026-04-27T12:46:53.043Z</time></trkpt><trkpt lat="34.0719267" lon="-6.6262783"><ele>151.0</ele><time>2026-04-27T12:46:54.043Z</time></trkpt><trkpt lat="34.0718617" lon="-6.6260933"><ele>151.0</ele><time>2026-04-27T12:46:55.043Z</time></trkpt><trkpt lat="34.071795" lon="-6.62591"><ele>151.0</ele><time>2026-04-27T12:46:56.042Z</time></trkpt><trkpt lat="34.07173" lon="-6.6257233"><ele>151.0</ele><time>2026-04-27T12:46:57.043Z</time></trkpt><trkpt lat="34.071665" lon="-6.6255367"><ele>151.0</ele><time>2026-04-27T12:46:58.043Z</time></trkpt><trkpt lat="34.0715933" lon="-6.6253483"><ele>150.33333333333334</ele><time>2026-04-27T12:46:59.043Z</time></trkpt><trkpt lat="34.0715283" lon="-6.6251617"><ele>149.66666666666666</ele><time>2026-04-27T12:47:00.043Z</time></trkpt><trkpt lat="34.0714633" lon="-6.6249767"><ele>149.0</ele><time>2026-04-27T12:47:01.043Z</time></trkpt><trkpt lat="34.071405" lon="-6.6247983"><ele>149.0</ele><time>2026-04-27T12:47:02.043Z</time></trkpt><trkpt lat="34.07134" lon="-6.6246267"><ele>149.0</ele><time>2026-04-27T12:47:03.043Z</time></trkpt><trkpt lat="34.0712733" lon="-6.6244567"><ele>149.0</ele><time>2026-04-27T12:47:04.043Z</time></trkpt><trkpt lat="34.0712033" lon="-6.62428"><ele>148.33333333333331</ele><time>2026-04-27T12:47:05.042Z</time></trkpt><trkpt lat="34.0711333" lon="-6.6241"><ele>147.66666666666666</ele><time>2026-04-27T12:47:06.043Z</time></trkpt><trkpt lat="34.0710683" lon="-6.6239167"><ele>147.0</ele><time>2026-04-27T12:47:07.042Z</time></trkpt><trkpt lat="34.071" lon="-6.623735"><ele>146.33333333333334</ele><time>2026-04-27T12:47:08.043Z</time></trkpt><trkpt lat="34.07093" lon="-6.62355"><ele>145.66666666666669</ele><time>2026-04-27T12:47:09.043Z</time></trkpt><trkpt lat="34.0708617" lon="-6.6233617"><ele>145.0</ele><time>2026-04-27T12:47:10.043Z</time></trkpt><trkpt lat="34.0707917" lon="-6.6231717"><ele>143.33333333333334</ele><time>2026-04-27T12:47:11.043Z</time></trkpt><trkpt lat="34.0707217" lon="-6.6229817"><ele>141.66666666666666</ele><time>2026-04-27T12:47:12.043Z</time></trkpt><trkpt lat="34.07065" lon="-6.6227867"><ele>140.0</ele><time>2026-04-27T12:47:13.043Z</time></trkpt><trkpt lat="34.07058" lon="-6.6225883"><ele>139.66666666666666</ele><time>2026-04-27T12:47:14.043Z</time></trkpt><trkpt lat="34.07051" lon="-6.622395"><ele>139.33333333333334</ele><time>2026-04-27T12:47:15.043Z</time></trkpt><trkpt lat="34.0704467" lon="-6.6222017"><ele>139.0</ele><time>2026-04-27T12:47:16.043Z</time></trkpt><trkpt lat="34.070385" lon="-6.6220117"><ele>138.0</ele><time>2026-04-27T12:47:17.042Z</time></trkpt><trkpt lat="34.0703367" lon="-6.6218217"><ele>137.0</ele><time>2026-04-27T12:47:18.043Z</time></trkpt><trkpt lat="34.0702733" lon="-6.6216433"><ele>136.0</ele><time>2026-04-27T12:47:19.043Z</time></trkpt><trkpt lat="34.0702067" lon="-6.62147"><ele>136.0</ele><time>2026-04-27T12:47:20.043Z</time></trkpt><trkpt lat="34.07014" lon="-6.6212883"><ele>136.0</ele><time>2026-04-27T12:47:21.043Z</time></trkpt><trkpt lat="34.07008" lon="-6.6211033"><ele>136.0</ele><time>2026-04-27T12:47:22.043Z</time></trkpt><trkpt lat="34.07002" lon="-6.6209167"><ele>135.66666666666669</ele><time>2026-04-27T12:47:23.043Z</time></trkpt><trkpt lat="34.0699567" lon="-6.6207233"><ele>135.33333333333334</ele><time>2026-04-27T12:47:24.043Z</time></trkpt><trkpt lat="34.0698983" lon="-6.62053"><ele>135.0</ele><time>2026-04-27T12:47:25.043Z</time></trkpt><trkpt lat="34.06983" lon="-6.6203333"><ele>133.66666666666666</ele><time>2026-04-27T12:47:26.043Z</time></trkpt><trkpt lat="34.0697567" lon="-6.620135"><ele>132.33333333333331</ele><time>2026-04-27T12:47:27.043Z</time></trkpt><trkpt lat="34.0696783" lon="-6.619935"><ele>131.0</ele><time>2026-04-27T12:47:28.043Z</time></trkpt><trkpt lat="34.069605" lon="-6.6197383"><ele>131.0</ele><time>2026-04-27T12:47:29.043Z</time></trkpt><trkpt lat="34.0695283" lon="-6.6195433"><ele>131.0</ele><time>2026-04-27T12:47:30.043Z</time></trkpt><trkpt lat="34.06945" lon="-6.61935"><ele>131.0</ele><time>2026-04-27T12:47:31.043Z</time></trkpt><trkpt lat="34.06937" lon="-6.6191683"><ele>129.33333333333331</ele><time>2026-04-27T12:47:32.043Z</time></trkpt><trkpt lat="34.0692967" lon="-6.61898"><ele>127.66666666666666</ele><time>2026-04-27T12:47:33.043Z</time></trkpt><trkpt lat="34.0692267" lon="-6.61879"><ele>126.0</ele><time>2026-04-27T12:47:34.043Z</time></trkpt><trkpt lat="34.0691617" lon="-6.6185917"><ele>124.33333333333334</ele><time>2026-04-27T12:47:35.043Z</time></trkpt><trkpt lat="34.0690983" lon="-6.61839"><ele>122.66666666666667</ele><time>2026-04-27T12:47:36.043Z</time></trkpt><trkpt lat="34.0690583" lon="-6.6181883"><ele>121.0</ele><time>2026-04-27T12:47:37.043Z</time></trkpt><trkpt lat="34.0690417" lon="-6.6179817"><ele>120.66666666666667</ele><time>2026-04-27T12:47:38.043Z</time></trkpt><trkpt lat="34.0690417" lon="-6.6177733"><ele>120.33333333333334</ele><time>2026-04-27T12:47:39.042Z</time></trkpt><trkpt lat="34.0690533" lon="-6.61757"><ele>120.0</ele><time>2026-04-27T12:47:40.043Z</time></trkpt><trkpt lat="34.06906" lon="-6.6173683"><ele>120.0</ele><time>2026-04-27T12:47:41.042Z</time></trkpt><trkpt lat="34.0690417" lon="-6.617175"><ele>120.0</ele><time>2026-04-27T12:47:42.043Z</time></trkpt><trkpt lat="34.068995" lon="-6.6169967"><ele>120.0</ele><time>2026-04-27T12:47:43.042Z</time></trkpt><trkpt lat="34.06892" lon="-6.6168433"><ele>118.75</ele><time>2026-04-27T12:47:44.042Z</time></trkpt><trkpt lat="34.068825" lon="-6.6167183"><ele>117.5</ele><time>2026-04-27T12:47:45.043Z</time></trkpt><trkpt lat="34.068705" lon="-6.6166117"><ele>116.25</ele><time>2026-04-27T12:47:46.043Z</time></trkpt><trkpt lat="34.0685883" lon="-6.6165083"><ele>115.0</ele><time>2026-04-27T12:47:47.043Z</time></trkpt><trkpt lat="34.06848" lon="-6.6163933"><ele>115.0</ele><time>2026-04-27T12:47:48.043Z</time></trkpt><trkpt lat="34.0683833" lon="-6.61626"><ele>115.0</ele><time>2026-04-27T12:47:49.043Z</time></trkpt><trkpt lat="34.068305" lon="-6.6161317"><ele>115.0</ele><time>2026-04-27T12:47:50.043Z</time></trkpt><trkpt lat="34.0682417" lon="-6.6160117"><ele>115.0</ele><time>2026-04-27T12:47:51.043Z</time></trkpt><trkpt lat="34.0682033" lon="-6.6159083"><ele>113.8</ele><time>2026-04-27T12:47:52.043Z</time></trkpt><trkpt lat="34.0681783" lon="-6.6158383"><ele>112.6</ele><time>2026-04-27T12:47:53.043Z</time></trkpt><trkpt lat="34.0681583" lon="-6.6156983"><ele>111.4</ele><time>2026-04-27T12:48:35.042Z</time></trkpt><trkpt lat="34.0681467" lon="-6.6155667"><ele>110.2</ele><time>2026-04-27T12:48:37.043Z</time></trkpt><trkpt lat="34.0681333" lon="-6.6154733"><ele>109.0</ele><time>2026-04-27T12:48:38.043Z</time></trkpt><trkpt lat="34.068125" lon="-6.6153617"><ele>109.0</ele><time>2026-04-27T12:48:39.043Z</time></trkpt><trkpt lat="34.068115" lon="-6.6152467"><ele>109.0</ele><time>2026-04-27T12:48:40.043Z</time></trkpt><trkpt lat="34.068105" lon="-6.6151167"><ele>109.0</ele><time>2026-04-27T12:48:41.043Z</time></trkpt><trkpt lat="34.0681" lon="-6.6149767"><ele>109.0</ele><time>2026-04-27T12:48:42.043Z</time></trkpt><trkpt lat="34.0680917" lon="-6.61483"><ele>109.0</ele><time>2026-04-27T12:48:43.043Z</time></trkpt><trkpt lat="34.0680833" lon="-6.6146783"><ele>109.0</ele><time>2026-04-27T12:48:44.043Z</time></trkpt><trkpt lat="34.0680767" lon="-6.6145233"><ele>109.0</ele><time>2026-04-27T12:48:45.043Z</time></trkpt><trkpt lat="34.0680667" lon="-6.6143583"><ele>109.0</ele><time>2026-04-27T12:48:46.042Z</time></trkpt><trkpt lat="34.068055" lon="-6.6141967"><ele>109.0</ele><time>2026-04-27T12:48:47.043Z</time></trkpt><trkpt lat="34.0680467" lon="-6.61403"><ele>110.25</ele><time>2026-04-27T12:48:48.043Z</time></trkpt><trkpt lat="34.06803" lon="-6.6138833"><ele>111.5</ele><time>2026-04-27T12:48:49.043Z</time></trkpt><trkpt lat="34.0680233" lon="-6.6137433"><ele>112.75</ele><time>2026-04-27T12:48:50.043Z</time></trkpt><trkpt lat="34.0680167" lon="-6.6135883"><ele>114.0</ele><time>2026-04-27T12:48:51.043Z</time></trkpt><trkpt lat="34.0680117" lon="-6.6134217"><ele>114.33333333333334</ele><time>2026-04-27T12:48:52.043Z</time></trkpt><trkpt lat="34.068005" lon="-6.6132383"><ele>114.66666666666667</ele><time>2026-04-27T12:48:53.043Z</time></trkpt><trkpt lat="34.0679883" lon="-6.6130567"><ele>115.0</ele><time>2026-04-27T12:48:54.043Z</time></trkpt><trkpt lat="34.0679783" lon="-6.6128783"><ele>116.0</ele><time>2026-04-27T12:48:55.043Z</time></trkpt><trkpt lat="34.06798" lon="-6.6127083"><ele>117.0</ele><time>2026-04-27T12:48:56.043Z</time></trkpt><trkpt lat="34.067965" lon="-6.6125117"><ele>118.0</ele><time>2026-04-27T12:48:57.043Z</time></trkpt><trkpt lat="34.0679533" lon="-6.612325"><ele>118.0</ele><time>2026-04-27T12:48:58.043Z</time></trkpt><trkpt lat="34.06793" lon="-6.6121483"><ele>118.0</ele><time>2026-04-27T12:48:59.042Z</time></trkpt><trkpt lat="34.0679217" lon="-6.6119683"><ele>118.0</ele><time>2026-04-27T12:49:00.043Z</time></trkpt><trkpt lat="34.0679083" lon="-6.6117933"><ele>118.0</ele><time>2026-04-27T12:49:01.042Z</time></trkpt><trkpt lat="34.0679017" lon="-6.61162"><ele>118.5</ele><time>2026-04-27T12:49:02.043Z</time></trkpt><trkpt lat="34.06789" lon="-6.6114517"><ele>119.0</ele><time>2026-04-27T12:49:03.043Z</time></trkpt><trkpt lat="34.067875" lon="-6.6112817"><ele>119.5</ele><time>2026-04-27T12:49:04.043Z</time></trkpt><trkpt lat="34.067865" lon="-6.61111"><ele>120.0</ele><time>2026-04-27T12:49:05.042Z</time></trkpt><trkpt lat="34.0678533" lon="-6.6109333"><ele>121.66666666666666</ele><time>2026-04-27T12:49:06.043Z</time></trkpt><trkpt lat="34.06784" lon="-6.6107433"><ele>123.33333333333333</ele><time>2026-04-27T12:49:07.043Z</time></trkpt><trkpt lat="34.0678267" lon="-6.6105533"><ele>125.0</ele><time>2026-04-27T12:49:08.043Z</time></trkpt><trkpt lat="34.0678167" lon="-6.6103517"><ele>125.33333333333333</ele><time>2026-04-27T12:49:09.043Z</time></trkpt><trkpt lat="34.067815" lon="-6.610145"><ele>125.66666666666666</ele><time>2026-04-27T12:49:10.043Z</time></trkpt><trkpt lat="34.0678133" lon="-6.6099317"><ele>126.0</ele><time>2026-04-27T12:49:11.043Z</time></trkpt><trkpt lat="34.0678033" lon="-6.6097333"><ele>126.0</ele><time>2026-04-27T12:49:12.042Z</time></trkpt><trkpt lat="34.0678017" lon="-6.6095283"><ele>126.0</ele><time>2026-04-27T12:49:13.042Z</time></trkpt><trkpt lat="34.0677967" lon="-6.6093167"><ele>126.0</ele><time>2026-04-27T12:49:14.043Z</time></trkpt><trkpt lat="34.06779" lon="-6.6091067"><ele>126.0</ele><time>2026-04-27T12:49:15.043Z</time></trkpt><trkpt lat="34.0677783" lon="-6.60889"><ele>126.0</ele><time>2026-04-27T12:49:16.043Z</time></trkpt><trkpt lat="34.0677733" lon="-6.6086667"><ele>126.0</ele><time>2026-04-27T12:49:17.043Z</time></trkpt><trkpt lat="34.067765" lon="-6.6084567"><ele>126.0</ele><time>2026-04-27T12:49:18.043Z</time></trkpt><trkpt lat="34.0677533" lon="-6.6082433"><ele>126.0</ele><time>2026-04-27T12:49:19.042Z</time></trkpt><trkpt lat="34.0677417" lon="-6.6080283"><ele>126.0</ele><time>2026-04-27T12:49:20.043Z</time></trkpt><trkpt lat="34.0677317" lon="-6.6078"><ele>126.0</ele><time>2026-04-27T12:49:21.043Z</time></trkpt><trkpt lat="34.0677167" lon="-6.607565"><ele>126.0</ele><time>2026-04-27T12:49:22.043Z</time></trkpt><trkpt lat="34.0677117" lon="-6.6073317"><ele>126.0</ele><time>2026-04-27T12:49:23.043Z</time></trkpt><trkpt lat="34.0677017" lon="-6.6071033"><ele>126.33333333333334</ele><time>2026-04-27T12:49:24.043Z</time></trkpt><trkpt lat="34.06769" lon="-6.6068617"><ele>126.66666666666667</ele><time>2026-04-27T12:49:25.043Z</time></trkpt><trkpt lat="34.0676767" lon="-6.60662"><ele>127.0</ele><time>2026-04-27T12:49:26.043Z</time></trkpt><trkpt lat="34.0676683" lon="-6.6063933"><ele>127.0</ele><time>2026-04-27T12:49:27.043Z</time></trkpt><trkpt lat="34.0676633" lon="-6.6061717"><ele>127.0</ele><time>2026-04-27T12:49:28.043Z</time></trkpt><trkpt lat="34.0676517" lon="-6.6059467"><ele>127.0</ele><time>2026-04-27T12:49:29.043Z</time></trkpt><trkpt lat="34.06764" lon="-6.6057183"><ele>127.66666666666667</ele><time>2026-04-27T12:49:30.043Z</time></trkpt><trkpt lat="34.0676317" lon="-6.6055"><ele>128.33333333333334</ele><time>2026-04-27T12:49:31.043Z</time></trkpt><trkpt lat="34.06762" lon="-6.6052917"><ele>129.0</ele><time>2026-04-27T12:49:32.043Z</time></trkpt><trkpt lat="34.067605" lon="-6.6050783"><ele>129.66666666666666</ele><time>2026-04-27T12:49:33.043Z</time></trkpt><trkpt lat="34.0675933" lon="-6.6048667"><ele>130.33333333333331</ele><time>2026-04-27T12:49:34.043Z</time></trkpt><trkpt lat="34.06759" lon="-6.6046567"><ele>131.0</ele><time>2026-04-27T12:49:35.043Z</time></trkpt><trkpt lat="34.0675833" lon="-6.6044567"><ele>131.5</ele><time>2026-04-27T12:49:36.043Z</time></trkpt><trkpt lat="34.0675717" lon="-6.604275"><ele>132.0</ele><time>2026-04-27T12:49:37.043Z</time></trkpt><trkpt lat="34.0675617" lon="-6.6041083"><ele>132.5</ele><time>2026-04-27T12:49:38.043Z</time></trkpt><trkpt lat="34.0675567" lon="-6.60394"><ele>133.0</ele><time>2026-04-27T12:49:39.043Z</time></trkpt><trkpt lat="34.06755" lon="-6.6037667"><ele>132.0</ele><time>2026-04-27T12:49:40.043Z</time></trkpt><trkpt lat="34.06754" lon="-6.603595"><ele>131.0</ele><time>2026-04-27T12:49:41.043Z</time></trkpt><trkpt lat="34.0675383" lon="-6.6034217"><ele>130.0</ele><time>2026-04-27T12:49:42.043Z</time></trkpt><trkpt lat="34.0675283" lon="-6.6032467"><ele>129.0</ele><time>2026-04-27T12:49:43.043Z</time></trkpt><trkpt lat="34.0675267" lon="-6.6030683"><ele>129.0</ele><time>2026-04-27T12:49:44.043Z</time></trkpt><trkpt lat="34.0675233" lon="-6.602895"><ele>129.0</ele><time>2026-04-27T12:49:45.043Z</time></trkpt><trkpt lat="34.0675183" lon="-6.602725"><ele>129.0</ele><time>2026-04-27T12:49:46.043Z</time></trkpt><trkpt lat="34.0675133" lon="-6.602545"><ele>129.0</ele><time>2026-04-27T12:49:47.043Z</time></trkpt><trkpt lat="34.0675183" lon="-6.6023767"><ele>130.0</ele><time>2026-04-27T12:49:48.042Z</time></trkpt><trkpt lat="34.0675333" lon="-6.6022067"><ele>131.0</ele><time>2026-04-27T12:49:49.043Z</time></trkpt><trkpt lat="34.067565" lon="-6.6020433"><ele>132.0</ele><time>2026-04-27T12:49:50.043Z</time></trkpt><trkpt lat="34.0676183" lon="-6.6018817"><ele>133.0</ele><time>2026-04-27T12:49:51.043Z</time></trkpt><trkpt lat="34.067685" lon="-6.6017217"><ele>135.33333333333334</ele><time>2026-04-27T12:49:52.043Z</time></trkpt><trkpt lat="34.06776" lon="-6.60156"><ele>137.66666666666666</ele><time>2026-04-27T12:49:53.043Z</time></trkpt><trkpt lat="34.067845" lon="-6.6013833"><ele>140.0</ele><time>2026-04-27T12:49:54.042Z</time></trkpt><trkpt lat="34.06793" lon="-6.6012133"><ele>140.0</ele><time>2026-04-27T12:49:55.043Z</time></trkpt><trkpt lat="34.0680033" lon="-6.6010567"><ele>140.0</ele><time>2026-04-27T12:49:56.043Z</time></trkpt><trkpt lat="34.0680783" lon="-6.6009017"><ele>140.0</ele><time>2026-04-27T12:49:57.043Z</time></trkpt><trkpt lat="34.06814" lon="-6.6007517"><ele>140.0</ele><time>2026-04-27T12:49:58.043Z</time></trkpt><trkpt lat="34.068205" lon="-6.6006083"><ele>140.0</ele><time>2026-04-27T12:49:59.043Z</time></trkpt><trkpt lat="34.0682683" lon="-6.6004567"><ele>140.0</ele><time>2026-04-27T12:50:00.043Z</time></trkpt><trkpt lat="34.0683367" lon="-6.6003017"><ele>140.0</ele><time>2026-04-27T12:50:01.043Z</time></trkpt><trkpt lat="34.0684033" lon="-6.600145"><ele>140.0</ele><time>2026-04-27T12:50:02.042Z</time></trkpt><trkpt lat="34.0684783" lon="-6.5999767"><ele>139.66666666666666</ele><time>2026-04-27T12:50:03.043Z</time></trkpt><trkpt lat="34.0685583" lon="-6.59981"><ele>139.33333333333334</ele><time>2026-04-27T12:50:04.043Z</time></trkpt><trkpt lat="34.0686367" lon="-6.5996467"><ele>139.0</ele><time>2026-04-27T12:50:05.042Z</time></trkpt><trkpt lat="34.0687167" lon="-6.5994867"><ele>140.66666666666669</ele><time>2026-04-27T12:50:06.043Z</time></trkpt><trkpt lat="34.068805" lon="-6.5993317"><ele>142.33333333333334</ele><time>2026-04-27T12:50:07.043Z</time></trkpt><trkpt lat="34.0688933" lon="-6.59918"><ele>144.0</ele><time>2026-04-27T12:50:08.043Z</time></trkpt><trkpt lat="34.068975" lon="-6.59902"><ele>144.0</ele><time>2026-04-27T12:50:09.043Z</time></trkpt><trkpt lat="34.0690533" lon="-6.5988683"><ele>144.0</ele><time>2026-04-27T12:50:10.043Z</time></trkpt><trkpt lat="34.0691433" lon="-6.5987333"><ele>144.0</ele><time>2026-04-27T12:50:11.042Z</time></trkpt><trkpt lat="34.0692467" lon="-6.5986083"><ele>144.0</ele><time>2026-04-27T12:50:12.043Z</time></trkpt><trkpt lat="34.0693667" lon="-6.598485"><ele>142.66666666666666</ele><time>2026-04-27T12:50:13.043Z</time></trkpt><trkpt lat="34.0694883" lon="-6.5983567"><ele>141.33333333333331</ele><time>2026-04-27T12:50:14.042Z</time></trkpt><trkpt lat="34.069605" lon="-6.598235"><ele>140.0</ele><time>2026-04-27T12:50:15.043Z</time></trkpt><trkpt lat="34.06972" lon="-6.5981233"><ele>140.0</ele><time>2026-04-27T12:50:16.043Z</time></trkpt><trkpt lat="34.0698433" lon="-6.5980283"><ele>140.0</ele><time>2026-04-27T12:50:17.043Z</time></trkpt><trkpt lat="34.0699717" lon="-6.597935"><ele>140.0</ele><time>2026-04-27T12:50:18.043Z</time></trkpt><trkpt lat="34.070115" lon="-6.597855"><ele>139.66666666666666</ele><time>2026-04-27T12:50:19.043Z</time></trkpt><trkpt lat="34.07026" lon="-6.597785"><ele>139.33333333333334</ele><time>2026-04-27T12:50:20.043Z</time></trkpt><trkpt lat="34.0704" lon="-6.5977133"><ele>139.0</ele><time>2026-04-27T12:50:21.043Z</time></trkpt><trkpt lat="34.0705483" lon="-6.5976267"><ele>139.0</ele><time>2026-04-27T12:50:22.043Z</time></trkpt><trkpt lat="34.07069" lon="-6.59754"><ele>139.0</ele><time>2026-04-27T12:50:23.042Z</time></trkpt><trkpt lat="34.07083" lon="-6.59744"><ele>139.0</ele><time>2026-04-27T12:50:24.043Z</time></trkpt><trkpt lat="34.0709683" lon="-6.59733"><ele>138.33333333333334</ele><time>2026-04-27T12:50:25.043Z</time></trkpt><trkpt lat="34.0711" lon="-6.5972067"><ele>137.66666666666666</ele><time>2026-04-27T12:50:26.043Z</time></trkpt><trkpt lat="34.0712217" lon="-6.5970867"><ele>137.0</ele><time>2026-04-27T12:50:27.043Z</time></trkpt><trkpt lat="34.0713317" lon="-6.5969733"><ele>137.0</ele><time>2026-04-27T12:50:28.043Z</time></trkpt><trkpt lat="34.071445" lon="-6.5968733"><ele>137.0</ele><time>2026-04-27T12:50:29.043Z</time></trkpt><trkpt lat="34.0715617" lon="-6.596765"><ele>137.0</ele><time>2026-04-27T12:50:30.043Z</time></trkpt><trkpt lat="34.0716933" lon="-6.5966583"><ele>137.0</ele><time>2026-04-27T12:50:31.043Z</time></trkpt><trkpt lat="34.071815" lon="-6.5965633"><ele>137.25</ele><time>2026-04-27T12:50:32.043Z</time></trkpt><trkpt lat="34.0719467" lon="-6.5964683"><ele>137.5</ele><time>2026-04-27T12:50:33.043Z</time></trkpt><trkpt lat="34.07207" lon="-6.59637"><ele>137.75</ele><time>2026-04-27T12:50:34.043Z</time></trkpt><trkpt lat="34.0721867" lon="-6.59627"><ele>138.0</ele><time>2026-04-27T12:50:35.042Z</time></trkpt><trkpt lat="34.0722917" lon="-6.5961533"><ele>138.0</ele><time>2026-04-27T12:50:36.042Z</time></trkpt><trkpt lat="34.0723917" lon="-6.5960333"><ele>138.0</ele><time>2026-04-27T12:50:37.043Z</time></trkpt><trkpt lat="34.0724883" lon="-6.5958983"><ele>138.0</ele><time>2026-04-27T12:50:38.043Z</time></trkpt><trkpt lat="34.07258" lon="-6.5957433"><ele>138.0</ele><time>2026-04-27T12:50:39.043Z</time></trkpt><trkpt lat="34.072665" lon="-6.5955667"><ele>138.0</ele><time>2026-04-27T12:50:40.043Z</time></trkpt><trkpt lat="34.0727367" lon="-6.59539"><ele>138.0</ele><time>2026-04-27T12:50:41.043Z</time></trkpt><trkpt lat="34.0728" lon="-6.59522"><ele>138.0</ele><time>2026-04-27T12:50:42.042Z</time></trkpt><trkpt lat="34.07286" lon="-6.5950567"><ele>138.0</ele><time>2026-04-27T12:50:43.043Z</time></trkpt><trkpt lat="34.072915" lon="-6.5948983"><ele>138.0</ele><time>2026-04-27T12:50:44.043Z</time></trkpt><trkpt lat="34.0729633" lon="-6.5947633"><ele>138.0</ele><time>2026-04-27T12:50:45.043Z</time></trkpt><trkpt lat="34.07301" lon="-6.59464"><ele>138.0</ele><time>2026-04-27T12:50:46.043Z</time></trkpt><trkpt lat="34.0730567" lon="-6.59452"><ele>138.4</ele><time>2026-04-27T12:50:47.043Z</time></trkpt><trkpt lat="34.0730967" lon="-6.59441"><ele>138.8</ele><time>2026-04-27T12:50:48.043Z</time></trkpt><trkpt lat="34.0731417" lon="-6.594295"><ele>139.2</ele><time>2026-04-27T12:50:49.043Z</time></trkpt><trkpt lat="34.0731767" lon="-6.5941667"><ele>139.6</ele><time>2026-04-27T12:50:50.043Z</time></trkpt><trkpt lat="34.0732067" lon="-6.5940417"><ele>140.0</ele><time>2026-04-27T12:50:51.042Z</time></trkpt><trkpt lat="34.0732317" lon="-6.59391"><ele>140.0</ele><time>2026-04-27T12:50:52.043Z</time></trkpt><trkpt lat="34.0732533" lon="-6.5937617"><ele>140.0</ele><time>2026-04-27T12:50:53.043Z</time></trkpt><trkpt lat="34.0732667" lon="-6.593605"><ele>140.0</ele><time>2026-04-27T12:50:54.043Z</time></trkpt><trkpt lat="34.0732717" lon="-6.593445"><ele>140.0</ele><time>2026-04-27T12:50:55.043Z</time></trkpt><trkpt lat="34.0732667" lon="-6.593285"><ele>140.5</ele><time>2026-04-27T12:50:56.043Z</time></trkpt><trkpt lat="34.0732433" lon="-6.5931167"><ele>141.0</ele><time>2026-04-27T12:50:57.043Z</time></trkpt><trkpt lat="34.0732117" lon="-6.5929533"><ele>141.5</ele><time>2026-04-27T12:50:58.043Z</time></trkpt><trkpt lat="34.0731817" lon="-6.5927817"><ele>142.0</ele><time>2026-04-27T12:50:59.043Z</time></trkpt><trkpt lat="34.073175" lon="-6.5926267"><ele>142.25</ele><time>2026-04-27T12:51:00.043Z</time></trkpt><trkpt lat="34.0731833" lon="-6.5924783"><ele>142.5</ele><time>2026-04-27T12:51:01.042Z</time></trkpt><trkpt lat="34.0732" lon="-6.5923333"><ele>142.75</ele><time>2026-04-27T12:51:02.043Z</time></trkpt><trkpt lat="34.0732267" lon="-6.5921967"><ele>143.0</ele><time>2026-04-27T12:51:03.043Z</time></trkpt><trkpt lat="34.0732667" lon="-6.592075"><ele>143.0</ele><time>2026-04-27T12:51:04.043Z</time></trkpt><trkpt lat="34.0733133" lon="-6.5919533"><ele>143.0</ele><time>2026-04-27T12:51:05.043Z</time></trkpt><trkpt lat="34.0733683" lon="-6.5918267"><ele>143.0</ele><time>2026-04-27T12:51:06.043Z</time></trkpt><trkpt lat="34.0734283" lon="-6.5916933"><ele>143.0</ele><time>2026-04-27T12:51:07.042Z</time></trkpt><trkpt lat="34.0735" lon="-6.5915517"><ele>143.0</ele><time>2026-04-27T12:51:08.042Z</time></trkpt><trkpt lat="34.0735817" lon="-6.59141"><ele>143.0</ele><time>2026-04-27T12:51:09.042Z</time></trkpt><trkpt lat="34.0736667" lon="-6.5912717"><ele>143.0</ele><time>2026-04-27T12:51:10.042Z</time></trkpt><trkpt lat="34.0737417" lon="-6.5911283"><ele>143.0</ele><time>2026-04-27T12:51:11.042Z</time></trkpt><trkpt lat="34.0738267" lon="-6.59099"><ele>143.66666666666666</ele><time>2026-04-27T12:51:12.042Z</time></trkpt><trkpt lat="34.0739183" lon="-6.59085"><ele>144.33333333333334</ele><time>2026-04-27T12:51:13.042Z</time></trkpt><trkpt lat="34.0740067" lon="-6.5907017"><ele>145.0</ele><time>2026-04-27T12:51:14.042Z</time></trkpt><trkpt lat="34.0741" lon="-6.5905533"><ele>144.66666666666669</ele><time>2026-04-27T12:51:15.042Z</time></trkpt><trkpt lat="34.0741983" lon="-6.590405"><ele>144.33333333333334</ele><time>2026-04-27T12:51:16.042Z</time></trkpt><trkpt lat="34.0743" lon="-6.5902467"><ele>144.0</ele><time>2026-04-27T12:51:17.042Z</time></trkpt><trkpt lat="34.074395" lon="-6.5900883"><ele>144.0</ele><time>2026-04-27T12:51:18.042Z</time></trkpt><trkpt lat="34.0744883" lon="-6.5899333"><ele>144.0</ele><time>2026-04-27T12:51:19.042Z</time></trkpt><trkpt lat="34.0745767" lon="-6.5897883"><ele>144.0</ele><time>2026-04-27T12:51:20.042Z</time></trkpt><trkpt lat="34.0746633" lon="-6.5896317"><ele>144.0</ele><time>2026-04-27T12:51:21.042Z</time></trkpt><trkpt lat="34.0747633" lon="-6.58947"><ele>144.0</ele><time>2026-04-27T12:51:22.042Z</time></trkpt><trkpt lat="34.074865" lon="-6.589315"><ele>144.0</ele><time>2026-04-27T12:51:23.042Z</time></trkpt><trkpt lat="34.0749583" lon="-6.5891567"><ele>143.25</ele><time>2026-04-27T12:51:24.042Z</time></trkpt><trkpt lat="34.0750433" lon="-6.588995"><ele>142.5</ele><time>2026-04-27T12:51:25.042Z</time></trkpt><trkpt lat="34.0751133" lon="-6.5888467"><ele>141.75</ele><time>2026-04-27T12:51:26.041Z</time></trkpt><trkpt lat="34.0751733" lon="-6.5886967"><ele>141.0</ele><time>2026-04-27T12:51:27.042Z</time></trkpt><trkpt lat="34.0752267" lon="-6.5885517"><ele>141.0</ele><time>2026-04-27T12:51:28.042Z</time></trkpt><trkpt lat="34.0752767" lon="-6.5884083"><ele>141.0</ele><time>2026-04-27T12:51:29.041Z</time></trkpt><trkpt lat="34.075335" lon="-6.58827"><ele>141.0</ele><time>2026-04-27T12:51:30.042Z</time></trkpt><trkpt lat="34.0754" lon="-6.5881417"><ele>141.0</ele><time>2026-04-27T12:51:31.042Z</time></trkpt><trkpt lat="34.0754817" lon="-6.58802"><ele>141.0</ele><time>2026-04-27T12:51:32.042Z</time></trkpt><trkpt lat="34.0755683" lon="-6.587905"><ele>141.0</ele><time>2026-04-27T12:51:33.042Z</time></trkpt><trkpt lat="34.0756633" lon="-6.58779"><ele>141.0</ele><time>2026-04-27T12:51:34.042Z</time></trkpt><trkpt lat="34.07577" lon="-6.5876733"><ele>141.0</ele><time>2026-04-27T12:51:35.042Z</time></trkpt><trkpt lat="34.0758933" lon="-6.587555"><ele>140.5</ele><time>2026-04-27T12:51:36.042Z</time></trkpt><trkpt lat="34.076015" lon="-6.5874483"><ele>140.0</ele><time>2026-04-27T12:51:37.041Z</time></trkpt><trkpt lat="34.0761283" lon="-6.5873383"><ele>139.5</ele><time>2026-04-27T12:51:38.042Z</time></trkpt><trkpt lat="34.076245" lon="-6.5872333"><ele>139.0</ele><time>2026-04-27T12:51:39.042Z</time></trkpt><trkpt lat="34.0763683" lon="-6.587125"><ele>139.0</ele><time>2026-04-27T12:51:40.042Z</time></trkpt><trkpt lat="34.0764917" lon="-6.5870117"><ele>139.0</ele><time>2026-04-27T12:51:41.042Z</time></trkpt><trkpt lat="34.0766067" lon="-6.586905"><ele>139.0</ele><time>2026-04-27T12:51:42.042Z</time></trkpt><trkpt lat="34.0738267" lon="-6.59099"><ele>141.0</ele><time>2026-04-27T12:51:12.042Z</time></trkpt><trkpt lat="34.0739183" lon="-6.59085"><ele>143.0</ele><time>2026-04-27T12:51:13.042Z</time></trkpt><trkpt lat="34.0740067" lon="-6.5907017"><ele>145.0</ele><time>2026-04-27T12:51:14.042Z</time></trkpt><trkpt lat="34.0741" lon="-6.5905533"><ele>144.66666666666669</ele><time>2026-04-27T12:51:15.042Z</time></trkpt><trkpt lat="34.0741983" lon="-6.590405"><ele>144.33333333333334</ele><time>2026-04-27T12:51:16.042Z</time></trkpt><trkpt lat="34.0743" lon="-6.5902467"><ele>144.0</ele><time>2026-04-27T12:51:17.042Z</time></trkpt><trkpt lat="34.074395" lon="-6.5900883"><ele>144.0</ele><time>2026-04-27T12:51:18.042Z</time></trkpt><trkpt lat="34.0744883" lon="-6.5899333"><ele>144.0</ele><time>2026-04-27T12:51:19.042Z</time></trkpt><trkpt lat="34.0745767" lon="-6.5897883"><ele>144.0</ele><time>2026-04-27T12:51:20.042Z</time></trkpt><trkpt lat="34.0746633" lon="-6.5896317"><ele>144.0</ele><time>2026-04-27T12:51:21.042Z</time></trkpt><trkpt lat="34.0747633" lon="-6.58947"><ele>144.0</ele><time>2026-04-27T12:51:22.042Z</time></trkpt><trkpt lat="34.074865" lon="-6.589315"><ele>144.0</ele><time>2026-04-27T12:51:23.042Z</time></trkpt><trkpt lat="34.0749583" lon="-6.5891567"><ele>143.25</ele><time>2026-04-27T12:51:24.042Z</time></trkpt><trkpt lat="34.0750433" lon="-6.588995"><ele>142.5</ele><time>2026-04-27T12:51:25.042Z</time></trkpt><trkpt lat="34.0751133" lon="-6.5888467"><ele>141.75</ele><time>2026-04-27T12:51:26.041Z</time></trkpt><trkpt lat="34.0751733" lon="-6.5886967"><ele>141.0</ele><time>2026-04-27T12:51:27.042Z</time></trkpt><trkpt lat="34.0752267" lon="-6.5885517"><ele>141.0</ele><time>2026-04-27T12:51:28.042Z</time></trkpt><trkpt lat="34.0752767" lon="-6.5884083"><ele>141.0</ele><time>2026-04-27T12:51:29.041Z</time></trkpt><trkpt lat="34.075335" lon="-6.58827"><ele>141.0</ele><time>2026-04-27T12:51:30.042Z</time></trkpt><trkpt lat="34.0754" lon="-6.5881417"><ele>141.0</ele><time>2026-04-27T12:51:31.042Z</time></trkpt><trkpt lat="34.0754817" lon="-6.58802"><ele>141.0</ele><time>2026-04-27T12:51:32.042Z</time></trkpt><trkpt lat="34.0755683" lon="-6.587905"><ele>141.0</ele><time>2026-04-27T12:51:33.042Z</time></trkpt><trkpt lat="34.0756633" lon="-6.58779"><ele>141.0</ele><time>2026-04-27T12:51:34.042Z</time></trkpt><trkpt lat="34.07577" lon="-6.5876733"><ele>141.0</ele><time>2026-04-27T12:51:35.042Z</time></trkpt><trkpt lat="34.0758933" lon="-6.587555"><ele>140.5</ele><time>2026-04-27T12:51:36.042Z</time></trkpt><trkpt lat="34.076015" lon="-6.5874483"><ele>140.0</ele><time>2026-04-27T12:51:37.041Z</time></trkpt><trkpt lat="34.0761283" lon="-6.5873383"><ele>139.5</ele><time>2026-04-27T12:51:38.042Z</time></trkpt><trkpt lat="34.076245" lon="-6.5872333"><ele>139.0</ele><time>2026-04-27T12:51:39.042Z</time></trkpt><trkpt lat="34.0763683" lon="-6.587125"><ele>139.0</ele><time>2026-04-27T12:51:40.042Z</time></trkpt><trkpt lat="34.0764917" lon="-6.5870117"><ele>139.0</ele><time>2026-04-27T12:51:41.042Z</time></trkpt><trkpt lat="34.0766067" lon="-6.586905"><ele>139.0</ele><time>2026-04-27T12:51:42.042Z</time></trkpt><trkpt lat="34.07671" lon="-6.5868"><ele>139.0</ele><time>2026-04-27T12:51:43.042Z</time></trkpt><trkpt lat="34.0768233" lon="-6.586695"><ele>139.25</ele><time>2026-04-27T12:51:44.042Z</time></trkpt><trkpt lat="34.0769267" lon="-6.5865983"><ele>139.5</ele><time>2026-04-27T12:51:45.042Z</time></trkpt><trkpt lat="34.07703" lon="-6.586505"><ele>139.75</ele><time>2026-04-27T12:51:46.041Z</time></trkpt><trkpt lat="34.0771333" lon="-6.58641"><ele>140.0</ele><time>2026-04-27T12:51:47.042Z</time></trkpt><trkpt lat="34.0772333" lon="-6.5863133"><ele>140.0</ele><time>2026-04-27T12:51:48.042Z</time></trkpt><trkpt lat="34.0773367" lon="-6.586215"><ele>140.0</ele><time>2026-04-27T12:51:49.042Z</time></trkpt><trkpt lat="34.0774567" lon="-6.5861233"><ele>140.0</ele><time>2026-04-27T12:51:50.042Z</time></trkpt><trkpt lat="34.0775817" lon="-6.5860217"><ele>140.0</ele><time>2026-04-27T12:51:51.042Z</time></trkpt><trkpt lat="34.0777033" lon="-6.5859283"><ele>139.0</ele><time>2026-04-27T12:51:52.042Z</time></trkpt><trkpt lat="34.0778283" lon="-6.58584"><ele>138.0</ele><time>2026-04-27T12:51:53.042Z</time></trkpt><trkpt lat="34.0779617" lon="-6.585755"><ele>137.0</ele><time>2026-04-27T12:51:54.041Z</time></trkpt><trkpt lat="34.078095" lon="-6.5856633"><ele>136.0</ele><time>2026-04-27T12:51:55.042Z</time></trkpt><trkpt lat="34.07823" lon="-6.5855867"><ele>136.0</ele><time>2026-04-27T12:51:56.042Z</time></trkpt><trkpt lat="34.0783567" lon="-6.58551"><ele>136.0</ele><time>2026-04-27T12:51:57.042Z</time></trkpt><trkpt lat="34.078475" lon="-6.5854267"><ele>136.0</ele><time>2026-04-27T12:51:58.042Z</time></trkpt><trkpt lat="34.078585" lon="-6.5853367"><ele>136.0</ele><time>2026-04-27T12:51:59.042Z</time></trkpt><trkpt lat="34.0786917" lon="-6.585255"><ele>135.75</ele><time>2026-04-27T12:52:00.041Z</time></trkpt><trkpt lat="34.0787933" lon="-6.5851567"><ele>135.5</ele><time>2026-04-27T12:52:01.042Z</time></trkpt><trkpt lat="34.078895" lon="-6.585045"><ele>135.25</ele><time>2026-04-27T12:52:02.042Z</time></trkpt><trkpt lat="34.0790017" lon="-6.5849367"><ele>135.0</ele><time>2026-04-27T12:52:03.042Z</time></trkpt><trkpt lat="34.07911" lon="-6.5848283"><ele>135.0</ele><time>2026-04-27T12:52:04.042Z</time></trkpt><trkpt lat="34.07921" lon="-6.58473"><ele>135.0</ele><time>2026-04-27T12:52:05.042Z</time></trkpt><trkpt lat="34.07931" lon="-6.584635"><ele>135.0</ele><time>2026-04-27T12:52:06.042Z</time></trkpt><trkpt lat="34.079415" lon="-6.5845417"><ele>135.0</ele><time>2026-04-27T12:52:07.041Z</time></trkpt><trkpt lat="34.07952" lon="-6.5844533"><ele>136.0</ele><time>2026-04-27T12:52:08.042Z</time></trkpt><trkpt lat="34.07963" lon="-6.5843583"><ele>137.0</ele><time>2026-04-27T12:52:09.042Z</time></trkpt><trkpt lat="34.0797417" lon="-6.5842667"><ele>138.0</ele><time>2026-04-27T12:52:10.042Z</time></trkpt><trkpt lat="34.07985" lon="-6.5841667"><ele>139.0</ele><time>2026-04-27T12:52:11.042Z</time></trkpt><trkpt lat="34.0799567" lon="-6.584065"><ele>139.0</ele><time>2026-04-27T12:52:12.042Z</time></trkpt><trkpt lat="34.0800583" lon="-6.5839667"><ele>139.0</ele><time>2026-04-27T12:52:13.042Z</time></trkpt><trkpt lat="34.0801667" lon="-6.5838633"><ele>139.0</ele><time>2026-04-27T12:52:14.042Z</time></trkpt><trkpt lat="34.0802783" lon="-6.5837617"><ele>139.0</ele><time>2026-04-27T12:52:15.042Z</time></trkpt><trkpt lat="34.0803783" lon="-6.583655"><ele>139.0</ele><time>2026-04-27T12:52:16.042Z</time></trkpt><trkpt lat="34.0804767" lon="-6.5835467"><ele>139.0</ele><time>2026-04-27T12:52:17.042Z</time></trkpt><trkpt lat="34.080575" lon="-6.5834467"><ele>139.0</ele><time>2026-04-27T12:52:18.041Z</time></trkpt><trkpt lat="34.0806767" lon="-6.5833517"><ele>139.0</ele><time>2026-04-27T12:52:19.042Z</time></trkpt><trkpt lat="34.0807767" lon="-6.5832617"><ele>139.0</ele><time>2026-04-27T12:52:20.042Z</time></trkpt><trkpt lat="34.0808767" lon="-6.5831767"><ele>139.0</ele><time>2026-04-27T12:52:21.042Z</time></trkpt><trkpt lat="34.0809833" lon="-6.5830967"><ele>139.0</ele><time>2026-04-27T12:52:22.042Z</time></trkpt><trkpt lat="34.0810883" lon="-6.5830167"><ele>139.0</ele><time>2026-04-27T12:52:23.042Z</time></trkpt><trkpt lat="34.0812033" lon="-6.582935"><ele>139.0</ele><time>2026-04-27T12:52:24.042Z</time></trkpt><trkpt lat="34.0813167" lon="-6.582865"><ele>139.0</ele><time>2026-04-27T12:52:25.042Z</time></trkpt><trkpt lat="34.0814383" lon="-6.5827967"><ele>139.0</ele><time>2026-04-27T12:52:26.042Z</time></trkpt><trkpt lat="34.0815633" lon="-6.5827233"><ele>139.0</ele><time>2026-04-27T12:52:27.042Z</time></trkpt><trkpt lat="34.0816883" lon="-6.582645"><ele>139.25</ele><time>2026-04-27T12:52:28.042Z</time></trkpt><trkpt lat="34.08182" lon="-6.58257"><ele>139.5</ele><time>2026-04-27T12:52:29.042Z</time></trkpt><trkpt lat="34.0819383" lon="-6.58249"><ele>139.75</ele><time>2026-04-27T12:52:30.042Z</time></trkpt><trkpt lat="34.08206" lon="-6.582415"><ele>140.0</ele><time>2026-04-27T12:52:31.041Z</time></trkpt><trkpt lat="34.08219" lon="-6.5823333"><ele>140.0</ele><time>2026-04-27T12:52:32.042Z</time></trkpt><trkpt lat="34.0823183" lon="-6.5822617"><ele>140.0</ele><time>2026-04-27T12:52:33.042Z</time></trkpt><trkpt lat="34.0824383" lon="-6.5821867"><ele>140.0</ele><time>2026-04-27T12:52:34.042Z</time></trkpt><trkpt lat="34.082555" lon="-6.5821133"><ele>140.0</ele><time>2026-04-27T12:52:35.042Z</time></trkpt><trkpt lat="34.0826817" lon="-6.5820283"><ele>139.75</ele><time>2026-04-27T12:52:36.042Z</time></trkpt><trkpt lat="34.0827967" lon="-6.58194"><ele>139.5</ele><time>2026-04-27T12:52:37.042Z</time></trkpt><trkpt lat="34.0829183" lon="-6.5818583"><ele>139.25</ele><time>2026-04-27T12:52:38.041Z</time></trkpt><trkpt lat="34.0830467" lon="-6.5817767"><ele>139.0</ele><time>2026-04-27T12:52:39.041Z</time></trkpt><trkpt lat="34.0831767" lon="-6.5816967"><ele>138.25</ele><time>2026-04-27T12:52:40.042Z</time></trkpt><trkpt lat="34.0833133" lon="-6.5816183"><ele>137.5</ele><time>2026-04-27T12:52:41.042Z</time></trkpt><trkpt lat="34.083435" lon="-6.5815467"><ele>136.75</ele><time>2026-04-27T12:52:42.042Z</time></trkpt><trkpt lat="34.083555" lon="-6.5814667"><ele>136.0</ele><time>2026-04-27T12:52:43.042Z</time></trkpt><trkpt lat="34.083675" lon="-6.5813933"><ele>136.0</ele><time>2026-04-27T12:52:44.041Z</time></trkpt><trkpt lat="34.08379" lon="-6.58131"><ele>136.0</ele><time>2026-04-27T12:52:45.042Z</time></trkpt><trkpt lat="34.0839167" lon="-6.5812367"><ele>136.0</ele><time>2026-04-27T12:52:46.042Z</time></trkpt><trkpt lat="34.0840333" lon="-6.58117"><ele>136.0</ele><time>2026-04-27T12:52:47.042Z</time></trkpt><trkpt lat="34.0841367" lon="-6.5811117"><ele>135.2</ele><time>2026-04-27T12:52:48.042Z</time></trkpt><trkpt lat="34.08423" lon="-6.5810533"><ele>134.39999999999998</ele><time>2026-04-27T12:52:49.042Z</time></trkpt><trkpt lat="34.08432" lon="-6.5810083"><ele>133.6</ele><time>2026-04-27T12:52:50.042Z</time></trkpt><trkpt lat="34.08441" lon="-6.5809683"><ele>132.79999999999998</ele><time>2026-04-27T12:52:51.042Z</time></trkpt><trkpt lat="34.0844933" lon="-6.5809383"><ele>132.0</ele><time>2026-04-27T12:52:52.042Z</time></trkpt><trkpt lat="34.0845783" lon="-6.5809133"><ele>132.0</ele><time>2026-04-27T12:52:53.042Z</time></trkpt><trkpt lat="34.084665" lon="-6.5809133"><ele>132.0</ele><time>2026-04-27T12:52:54.042Z</time></trkpt><trkpt lat="34.0847483" lon="-6.580935"><ele>132.0</ele><time>2026-04-27T12:52:55.041Z</time></trkpt><trkpt lat="34.0848317" lon="-6.580985"><ele>132.0</ele><time>2026-04-27T12:52:56.041Z</time></trkpt><trkpt lat="34.0849133" lon="-6.5810683"><ele>132.0</ele><time>2026-04-27T12:52:57.042Z</time></trkpt><trkpt lat="34.0849917" lon="-6.5811717"><ele>129.75</ele><time>2026-04-27T12:52:58.042Z</time></trkpt><trkpt lat="34.0850717" lon="-6.581285"><ele>127.5</ele><time>2026-04-27T12:52:59.041Z</time></trkpt><trkpt lat="34.085155" lon="-6.5813783"><ele>125.25</ele><time>2026-04-27T12:53:00.042Z</time></trkpt><trkpt lat="34.08524" lon="-6.5814733"><ele>123.0</ele><time>2026-04-27T12:53:01.042Z</time></trkpt><trkpt lat="34.08532" lon="-6.581565"><ele>123.0</ele><time>2026-04-27T12:53:02.042Z</time></trkpt><trkpt lat="34.0853867" lon="-6.5816683"><ele>123.00000000000001</ele><time>2026-04-27T12:53:03.042Z</time></trkpt><trkpt lat="34.0854533" lon="-6.58177"><ele>123.00000000000001</ele><time>2026-04-27T12:53:04.042Z</time></trkpt><trkpt lat="34.085525" lon="-6.5818733"><ele>123.0</ele><time>2026-04-27T12:53:05.042Z</time></trkpt><trkpt lat="34.085595" lon="-6.581975"><ele>123.0</ele><time>2026-04-27T12:53:06.042Z</time></trkpt><trkpt lat="34.085665" lon="-6.58207"><ele>123.25</ele><time>2026-04-27T12:53:07.042Z</time></trkpt><trkpt lat="34.0857317" lon="-6.5821667"><ele>123.5</ele><time>2026-04-27T12:53:08.042Z</time></trkpt><trkpt lat="34.0858017" lon="-6.5822667"><ele>123.75</ele><time>2026-04-27T12:53:09.042Z</time></trkpt><trkpt lat="34.0858783" lon="-6.5823683"><ele>124.0</ele><time>2026-04-27T12:53:10.042Z</time></trkpt><trkpt lat="34.0859683" lon="-6.5824733"><ele>123.0</ele><time>2026-04-27T12:53:11.042Z</time></trkpt><trkpt lat="34.086055" lon="-6.5825867"><ele>122.0</ele><time>2026-04-27T12:53:12.042Z</time></trkpt><trkpt lat="34.0861433" lon="-6.5827033"><ele>121.0</ele><time>2026-04-27T12:53:13.042Z</time></trkpt><trkpt lat="34.086225" lon="-6.5828267"><ele>120.0</ele><time>2026-04-27T12:53:14.042Z</time></trkpt><trkpt lat="34.0863083" lon="-6.58295"><ele>120.0</ele><time>2026-04-27T12:53:15.042Z</time></trkpt><trkpt lat="34.08639" lon="-6.583065"><ele>120.0</ele><time>2026-04-27T12:53:16.042Z</time></trkpt><trkpt lat="34.0864717" lon="-6.58318"><ele>120.0</ele><time>2026-04-27T12:53:17.042Z</time></trkpt><trkpt lat="34.08655" lon="-6.5832967"><ele>120.0</ele><time>2026-04-27T12:53:18.041Z</time></trkpt><trkpt lat="34.0866367" lon="-6.583415"><ele>119.0</ele><time>2026-04-27T12:53:19.042Z</time></trkpt><trkpt lat="34.0867233" lon="-6.5835383"><ele>118.0</ele><time>2026-04-27T12:53:20.041Z</time></trkpt><trkpt lat="34.08682" lon="-6.5836683"><ele>117.0</ele><time>2026-04-27T12:53:21.041Z</time></trkpt><trkpt lat="34.0869167" lon="-6.5837967"><ele>116.0</ele><time>2026-04-27T12:53:22.042Z</time></trkpt><trkpt lat="34.087015" lon="-6.5839283"><ele>115.25</ele><time>2026-04-27T12:53:23.042Z</time></trkpt><trkpt lat="34.087115" lon="-6.5840517"><ele>114.5</ele><time>2026-04-27T12:53:24.042Z</time></trkpt><trkpt lat="34.087215" lon="-6.5841667"><ele>113.75</ele><time>2026-04-27T12:53:25.042Z</time></trkpt><trkpt lat="34.087315" lon="-6.5842983"><ele>113.0</ele><time>2026-04-27T12:53:26.042Z</time></trkpt><trkpt lat="34.0874183" lon="-6.58444"><ele>109.0</ele><time>2026-04-27T12:53:27.042Z</time></trkpt><trkpt lat="34.08753" lon="-6.584595"><ele>105.0</ele><time>2026-04-27T12:53:28.042Z</time></trkpt><trkpt lat="34.08764" lon="-6.5847483"><ele>101.0</ele><time>2026-04-27T12:53:29.041Z</time></trkpt><trkpt lat="34.0877467" lon="-6.5848983"><ele>101.0</ele><time>2026-04-27T12:53:30.042Z</time></trkpt><trkpt lat="34.08785" lon="-6.585045"><ele>101.0</ele><time>2026-04-27T12:53:31.042Z</time></trkpt><trkpt lat="34.0879567" lon="-6.5851867"><ele>101.0</ele><time>2026-04-27T12:53:32.042Z</time></trkpt><trkpt lat="34.0880617" lon="-6.5853267"><ele>99.75</ele><time>2026-04-27T12:53:33.042Z</time></trkpt><trkpt lat="34.08817" lon="-6.585465"><ele>98.5</ele><time>2026-04-27T12:53:34.042Z</time></trkpt><trkpt lat="34.088265" lon="-6.5855983"><ele>97.25</ele><time>2026-04-27T12:53:35.042Z</time></trkpt><trkpt lat="34.088355" lon="-6.5857317"><ele>96.0</ele><time>2026-04-27T12:53:36.042Z</time></trkpt><trkpt lat="34.088445" lon="-6.5858617"><ele>95.75</ele><time>2026-04-27T12:53:37.041Z</time></trkpt><trkpt lat="34.088535" lon="-6.5859883"><ele>95.5</ele><time>2026-04-27T12:53:38.041Z</time></trkpt><trkpt lat="34.0886167" lon="-6.5861133"><ele>95.25</ele><time>2026-04-27T12:53:39.042Z</time></trkpt><trkpt lat="34.0886983" lon="-6.5862383"><ele>95.0</ele><time>2026-04-27T12:53:40.041Z</time></trkpt><trkpt lat="34.088775" lon="-6.586365"><ele>94.75</ele><time>2026-04-27T12:53:41.042Z</time></trkpt><trkpt lat="34.0888617" lon="-6.5864983"><ele>94.5</ele><time>2026-04-27T12:53:42.042Z</time></trkpt><trkpt lat="34.0889417" lon="-6.5866333"><ele>94.25</ele><time>2026-04-27T12:53:43.042Z</time></trkpt><trkpt lat="34.089025" lon="-6.58677"><ele>94.0</ele><time>2026-04-27T12:53:44.042Z</time></trkpt><trkpt lat="34.0891017" lon="-6.5869033"><ele>94.0</ele><time>2026-04-27T12:53:45.042Z</time></trkpt><trkpt lat="34.0891817" lon="-6.58704"><ele>94.0</ele><time>2026-04-27T12:53:46.042Z</time></trkpt><trkpt lat="34.08926" lon="-6.5871833"><ele>94.0</ele><time>2026-04-27T12:53:47.042Z</time></trkpt><trkpt lat="34.0893283" lon="-6.5873217"><ele>94.0</ele><time>2026-04-27T12:53:48.042Z</time></trkpt><trkpt lat="34.0893933" lon="-6.5874533"><ele>94.0</ele><time>2026-04-27T12:53:49.042Z</time></trkpt><trkpt lat="34.0894583" lon="-6.587575"><ele>94.0</ele><time>2026-04-27T12:53:50.042Z</time></trkpt><trkpt lat="34.0895183" lon="-6.5876817"><ele>94.0</ele><time>2026-04-27T12:53:51.042Z</time></trkpt><trkpt lat="34.08957" lon="-6.5877783"><ele>94.0</ele><time>2026-04-27T12:53:52.042Z</time></trkpt><trkpt lat="34.0896183" lon="-6.587855"><ele>94.0</ele><time>2026-04-27T12:53:53.042Z</time></trkpt><trkpt lat="34.0896933" lon="-6.5879233"><ele>94.0</ele><time>2026-04-27T12:53:55.041Z</time></trkpt><trkpt lat="34.0897533" lon="-6.587865"><ele>94.0</ele><time>2026-04-27T12:53:57.042Z</time></trkpt><trkpt lat="34.08977" lon="-6.58779"><ele>94.0</ele><time>2026-04-27T12:53:58.042Z</time></trkpt><trkpt lat="34.0897783" lon="-6.5876967"><ele>94.0</ele><time>2026-04-27T12:53:59.042Z</time></trkpt><trkpt lat="34.08979" lon="-6.5875783"><ele>94.0</ele><time>2026-04-27T12:54:00.042Z</time></trkpt><trkpt lat="34.08981" lon="-6.5874417"><ele>94.0</ele><time>2026-04-27T12:54:01.042Z</time></trkpt><trkpt lat="34.0898567" lon="-6.5873033"><ele>94.0</ele><time>2026-04-27T12:54:02.042Z</time></trkpt><trkpt lat="34.0899067" lon="-6.587165"><ele>94.0</ele><time>2026-04-27T12:54:03.042Z</time></trkpt><trkpt lat="34.0899617" lon="-6.5870333"><ele>94.0</ele><time>2026-04-27T12:54:04.042Z</time></trkpt><trkpt lat="34.0900283" lon="-6.586905"><ele>94.0</ele><time>2026-04-27T12:54:05.042Z</time></trkpt><trkpt lat="34.0901033" lon="-6.586775"><ele>94.0</ele><time>2026-04-27T12:54:06.041Z</time></trkpt><trkpt lat="34.090195" lon="-6.5866617"><ele>94.0</ele><time>2026-04-27T12:54:07.041Z</time></trkpt><trkpt lat="34.0903017" lon="-6.586545"><ele>94.0</ele><time>2026-04-27T12:54:08.042Z</time></trkpt><trkpt lat="34.0904233" lon="-6.5864233"><ele>94.0</ele><time>2026-04-27T12:54:09.042Z</time></trkpt><trkpt lat="34.09056" lon="-6.5863067"><ele>94.0</ele><time>2026-04-27T12:54:10.042Z</time></trkpt><trkpt lat="34.0906983" lon="-6.5861867"><ele>94.0</ele><time>2026-04-27T12:54:11.042Z</time></trkpt><trkpt lat="34.09083" lon="-6.58608"><ele>94.0</ele><time>2026-04-27T12:54:12.042Z</time></trkpt><trkpt lat="34.0909533" lon="-6.58598"><ele>93.75</ele><time>2026-04-27T12:54:13.042Z</time></trkpt><trkpt lat="34.09107" lon="-6.58588"><ele>93.5</ele><time>2026-04-27T12:54:14.042Z</time></trkpt><trkpt lat="34.0911767" lon="-6.5857917"><ele>93.25</ele><time>2026-04-27T12:54:15.042Z</time></trkpt><trkpt lat="34.091265" lon="-6.585705"><ele>93.0</ele><time>2026-04-27T12:54:16.042Z</time></trkpt><trkpt lat="34.0913533" lon="-6.5856283"><ele>93.0</ele><time>2026-04-27T12:54:17.042Z</time></trkpt><trkpt lat="34.0914467" lon="-6.58555"><ele>93.0</ele><time>2026-04-27T12:54:18.042Z</time></trkpt><trkpt lat="34.0915483" lon="-6.5854683"><ele>93.0</ele><time>2026-04-27T12:54:19.042Z</time></trkpt><trkpt lat="34.091655" lon="-6.58538"><ele>93.0</ele><time>2026-04-27T12:54:20.042Z</time></trkpt><trkpt lat="34.09177" lon="-6.5852817"><ele>93.0</ele><time>2026-04-27T12:54:21.042Z</time></trkpt><trkpt lat="34.091885" lon="-6.5851817"><ele>93.0</ele><time>2026-04-27T12:54:22.042Z</time></trkpt><trkpt lat="34.09201" lon="-6.585085"><ele>93.0</ele><time>2026-04-27T12:54:23.042Z</time></trkpt><trkpt lat="34.0921333" lon="-6.58498"><ele>93.0</ele><time>2026-04-27T12:54:24.042Z</time></trkpt><trkpt lat="34.092265" lon="-6.58486"><ele>93.0</ele><time>2026-04-27T12:54:25.042Z</time></trkpt><trkpt lat="34.092395" lon="-6.5847367"><ele>93.0</ele><time>2026-04-27T12:54:26.042Z</time></trkpt><trkpt lat="34.0925283" lon="-6.5846083"><ele>93.0</ele><time>2026-04-27T12:54:27.041Z</time></trkpt><trkpt lat="34.092655" lon="-6.58447"><ele>92.66666666666667</ele><time>2026-04-27T12:54:28.041Z</time></trkpt><trkpt lat="34.0927867" lon="-6.5843267"><ele>92.33333333333334</ele><time>2026-04-27T12:54:29.042Z</time></trkpt><trkpt lat="34.0929117" lon="-6.584175"><ele>92.0</ele><time>2026-04-27T12:54:30.042Z</time></trkpt><trkpt lat="34.09304" lon="-6.584025"><ele>92.0</ele><time>2026-04-27T12:54:31.042Z</time></trkpt><trkpt lat="34.0931667" lon="-6.58388"><ele>92.0</ele><time>2026-04-27T12:54:32.042Z</time></trkpt><trkpt lat="34.0932967" lon="-6.5837367"><ele>92.0</ele><time>2026-04-27T12:54:33.042Z</time></trkpt><trkpt lat="34.0934233" lon="-6.5835933"><ele>92.0</ele><time>2026-04-27T12:54:34.042Z</time></trkpt><trkpt lat="34.0935533" lon="-6.5834433"><ele>92.0</ele><time>2026-04-27T12:54:35.042Z</time></trkpt><trkpt lat="34.0936817" lon="-6.583295"><ele>92.0</ele><time>2026-04-27T12:54:36.042Z</time></trkpt><trkpt lat="34.0938133" lon="-6.5831517"><ele>92.0</ele><time>2026-04-27T12:54:37.042Z</time></trkpt><trkpt lat="34.0939433" lon="-6.58302"><ele>92.0</ele><time>2026-04-27T12:54:38.042Z</time></trkpt><trkpt lat="34.0940733" lon="-6.5828933"><ele>92.0</ele><time>2026-04-27T12:54:39.041Z</time></trkpt><trkpt lat="34.0942083" lon="-6.582775"><ele>91.0</ele><time>2026-04-27T12:54:40.041Z</time></trkpt><trkpt lat="34.094345" lon="-6.58265"><ele>90.0</ele><time>2026-04-27T12:54:41.042Z</time></trkpt><trkpt lat="34.0944867" lon="-6.5825267"><ele>89.0</ele><time>2026-04-27T12:54:42.042Z</time></trkpt><trkpt lat="34.09463" lon="-6.5823967"><ele>89.0</ele><time>2026-04-27T12:54:43.042Z</time></trkpt><trkpt lat="34.09477" lon="-6.5822617"><ele>89.0</ele><time>2026-04-27T12:54:44.041Z</time></trkpt><trkpt lat="34.0949183" lon="-6.58213"><ele>89.0</ele><time>2026-04-27T12:54:45.042Z</time></trkpt><trkpt lat="34.095065" lon="-6.582"><ele>89.0</ele><time>2026-04-27T12:54:46.042Z</time></trkpt><trkpt lat="34.0952067" lon="-6.5818717"><ele>89.0</ele><time>2026-04-27T12:54:47.042Z</time></trkpt><trkpt lat="34.0953383" lon="-6.5817417"><ele>89.0</ele><time>2026-04-27T12:54:48.042Z</time></trkpt><trkpt lat="34.0954667" lon="-6.58162"><ele>89.0</ele><time>2026-04-27T12:54:49.042Z</time></trkpt><trkpt lat="34.0956017" lon="-6.5814967"><ele>89.0</ele><time>2026-04-27T12:54:50.042Z</time></trkpt><trkpt lat="34.0957367" lon="-6.581375"><ele>89.0</ele><time>2026-04-27T12:54:51.042Z</time></trkpt><trkpt lat="34.0958783" lon="-6.5812583"><ele>89.0</ele><time>2026-04-27T12:54:52.042Z</time></trkpt><trkpt lat="34.0960133" lon="-6.5811367"><ele>89.0</ele><time>2026-04-27T12:54:53.042Z</time></trkpt><trkpt lat="34.0961433" lon="-6.5810117"><ele>89.0</ele><time>2026-04-27T12:54:54.041Z</time></trkpt><trkpt lat="34.0962767" lon="-6.5808817"><ele>89.0</ele><time>2026-04-27T12:54:55.042Z</time></trkpt><trkpt lat="34.0964067" lon="-6.5807483"><ele>89.0</ele><time>2026-04-27T12:54:56.042Z</time></trkpt><trkpt lat="34.0965333" lon="-6.580615"><ele>89.0</ele><time>2026-04-27T12:54:57.042Z</time></trkpt><trkpt lat="34.0966517" lon="-6.5804883"><ele>88.33333333333334</ele><time>2026-04-27T12:54:58.042Z</time></trkpt><trkpt lat="34.09676" lon="-6.5803583"><ele>87.66666666666667</ele><time>2026-04-27T12:54:59.042Z</time></trkpt><trkpt lat="34.096865" lon="-6.5802167"><ele>87.0</ele><time>2026-04-27T12:55:00.042Z</time></trkpt><trkpt lat="34.0969583" lon="-6.5800733"><ele>87.0</ele><time>2026-04-27T12:55:01.041Z</time></trkpt><trkpt lat="34.097055" lon="-6.57993"><ele>87.0</ele><time>2026-04-27T12:55:02.041Z</time></trkpt><trkpt lat="34.0971483" lon="-6.5797833"><ele>87.0</ele><time>2026-04-27T12:55:03.041Z</time></trkpt><trkpt lat="34.09724" lon="-6.57964"><ele>87.0</ele><time>2026-04-27T12:55:04.042Z</time></trkpt><trkpt lat="34.0973233" lon="-6.57949"><ele>87.0</ele><time>2026-04-27T12:55:05.042Z</time></trkpt><trkpt lat="34.0974083" lon="-6.5793417"><ele>87.0</ele><time>2026-04-27T12:55:06.042Z</time></trkpt><trkpt lat="34.097495" lon="-6.5791867"><ele>88.0</ele><time>2026-04-27T12:55:07.041Z</time></trkpt><trkpt lat="34.0975917" lon="-6.5790367"><ele>89.0</ele><time>2026-04-27T12:55:08.042Z</time></trkpt><trkpt lat="34.0976917" lon="-6.578885"><ele>90.0</ele><time>2026-04-27T12:55:09.041Z</time></trkpt><trkpt lat="34.0977967" lon="-6.5787283"><ele>89.0</ele><time>2026-04-27T12:55:10.041Z</time></trkpt><trkpt lat="34.097905" lon="-6.57858"><ele>88.0</ele><time>2026-04-27T12:55:11.042Z</time></trkpt><trkpt lat="34.098015" lon="-6.5784317"><ele>87.0</ele><time>2026-04-27T12:55:12.042Z</time></trkpt><trkpt lat="34.0981283" lon="-6.5782833"><ele>87.0</ele><time>2026-04-27T12:55:13.041Z</time></trkpt><trkpt lat="34.098245" lon="-6.57813"><ele>87.0</ele><time>2026-04-27T12:55:14.042Z</time></trkpt><trkpt lat="34.098365" lon="-6.5779867"><ele>87.0</ele><time>2026-04-27T12:55:15.042Z</time></trkpt><trkpt lat="34.0984767" lon="-6.577835"><ele>87.33333333333333</ele><time>2026-04-27T12:55:16.042Z</time></trkpt><trkpt lat="34.0985983" lon="-6.5776833"><ele>87.66666666666666</ele><time>2026-04-27T12:55:17.042Z</time></trkpt><trkpt lat="34.09871" lon="-6.577535"><ele>88.0</ele><time>2026-04-27T12:55:18.042Z</time></trkpt><trkpt lat="34.0988167" lon="-6.5773917"><ele>88.0</ele><time>2026-04-27T12:55:19.042Z</time></trkpt><trkpt lat="34.0989183" lon="-6.5772583"><ele>88.0</ele><time>2026-04-27T12:55:20.042Z</time></trkpt><trkpt lat="34.099015" lon="-6.577125"><ele>88.0</ele><time>2026-04-27T12:55:21.042Z</time></trkpt><trkpt lat="34.0991117" lon="-6.5769933"><ele>88.0</ele><time>2026-04-27T12:55:22.042Z</time></trkpt><trkpt lat="34.0992083" lon="-6.576865"><ele>88.0</ele><time>2026-04-27T12:55:23.042Z</time></trkpt><trkpt lat="34.09931" lon="-6.576745"><ele>88.0</ele><time>2026-04-27T12:55:24.042Z</time></trkpt><trkpt lat="34.0994133" lon="-6.5766217"><ele>88.0</ele><time>2026-04-27T12:55:25.042Z</time></trkpt><trkpt lat="34.09952" lon="-6.576495"><ele>88.0</ele><time>2026-04-27T12:55:26.041Z</time></trkpt><trkpt lat="34.0996267" lon="-6.57637"><ele>88.0</ele><time>2026-04-27T12:55:27.042Z</time></trkpt><trkpt lat="34.099745" lon="-6.57625"><ele>88.0</ele><time>2026-04-27T12:55:28.042Z</time></trkpt><trkpt lat="34.099865" lon="-6.5761367"><ele>88.0</ele><time>2026-04-27T12:55:29.042Z</time></trkpt><trkpt lat="34.100005" lon="-6.5760417"><ele>87.33333333333333</ele><time>2026-04-27T12:55:30.042Z</time></trkpt><trkpt lat="34.10015" lon="-6.57596"><ele>86.66666666666667</ele><time>2026-04-27T12:55:31.042Z</time></trkpt><trkpt lat="34.1003033" lon="-6.5759017"><ele>86.0</ele><time>2026-04-27T12:55:32.041Z</time></trkpt><trkpt lat="34.1004517" lon="-6.5758417"><ele>86.0</ele><time>2026-04-27T12:55:33.042Z</time></trkpt><trkpt lat="34.100615" lon="-6.5757833"><ele>86.0</ele><time>2026-04-27T12:55:34.042Z</time></trkpt><trkpt lat="34.100775" lon="-6.57573"><ele>86.0</ele><time>2026-04-27T12:55:35.042Z</time></trkpt><trkpt lat="34.10093" lon="-6.5756783"><ele>85.75</ele><time>2026-04-27T12:55:36.042Z</time></trkpt><trkpt lat="34.1010783" lon="-6.5756233"><ele>85.5</ele><time>2026-04-27T12:55:37.042Z</time></trkpt><trkpt lat="34.1012217" lon="-6.575575"><ele>85.25</ele><time>2026-04-27T12:55:38.041Z</time></trkpt><trkpt lat="34.1013567" lon="-6.5755333"><ele>85.0</ele><time>2026-04-27T12:55:39.042Z</time></trkpt><trkpt lat="34.10149" lon="-6.5754833"><ele>84.66666666666666</ele><time>2026-04-27T12:55:40.042Z</time></trkpt><trkpt lat="34.1016317" lon="-6.5754317"><ele>84.33333333333333</ele><time>2026-04-27T12:55:41.042Z</time></trkpt><trkpt lat="34.1017767" lon="-6.5753633"><ele>84.0</ele><time>2026-04-27T12:55:42.042Z</time></trkpt><trkpt lat="34.1019167" lon="-6.5752767"><ele>84.0</ele><time>2026-04-27T12:55:43.041Z</time></trkpt><trkpt lat="34.1020483" lon="-6.5751733"><ele>84.0</ele><time>2026-04-27T12:55:44.041Z</time></trkpt><trkpt lat="34.1021733" lon="-6.5750517"><ele>84.0</ele><time>2026-04-27T12:55:45.041Z</time></trkpt><trkpt lat="34.102295" lon="-6.57492"><ele>84.0</ele><time>2026-04-27T12:55:46.041Z</time></trkpt><trkpt lat="34.10241" lon="-6.5747817"><ele>84.0</ele><time>2026-04-27T12:55:47.041Z</time></trkpt><trkpt lat="34.1025283" lon="-6.57465"><ele>84.0</ele><time>2026-04-27T12:55:48.041Z</time></trkpt><trkpt lat="34.10265" lon="-6.574515"><ele>84.33333333333333</ele><time>2026-04-27T12:55:49.041Z</time></trkpt><trkpt lat="34.1027717" lon="-6.574385"><ele>84.66666666666666</ele><time>2026-04-27T12:55:50.041Z</time></trkpt><trkpt lat="34.1028933" lon="-6.5742567"><ele>85.0</ele><time>2026-04-27T12:55:51.04Z</time></trkpt><trkpt lat="34.1030083" lon="-6.5741267"><ele>85.0</ele><time>2026-04-27T12:55:52.041Z</time></trkpt><trkpt lat="34.1031233" lon="-6.574"><ele>85.0</ele><time>2026-04-27T12:55:53.041Z</time></trkpt><trkpt lat="34.10324" lon="-6.57387"><ele>85.0</ele><time>2026-04-27T12:55:54.041Z</time></trkpt><trkpt lat="34.1033517" lon="-6.5737367"><ele>85.33333333333333</ele><time>2026-04-27T12:55:55.041Z</time></trkpt><trkpt lat="34.1034667" lon="-6.57361"><ele>85.66666666666667</ele><time>2026-04-27T12:55:56.041Z</time></trkpt><trkpt lat="34.1035833" lon="-6.573485"><ele>86.0</ele><time>2026-04-27T12:55:57.041Z</time></trkpt><trkpt lat="34.1037083" lon="-6.573355"><ele>86.0</ele><time>2026-04-27T12:55:58.04Z</time></trkpt><trkpt lat="34.1038283" lon="-6.5732217"><ele>86.0</ele><time>2026-04-27T12:55:59.041Z</time></trkpt><trkpt lat="34.1039417" lon="-6.57309"><ele>86.0</ele><time>2026-04-27T12:56:00.041Z</time></trkpt><trkpt lat="34.10406" lon="-6.5729567"><ele>85.33333333333334</ele><time>2026-04-27T12:56:01.041Z</time></trkpt><trkpt lat="34.1041783" lon="-6.5728233"><ele>84.66666666666667</ele><time>2026-04-27T12:56:02.041Z</time></trkpt><trkpt lat="34.104295" lon="-6.5726867"><ele>84.0</ele><time>2026-04-27T12:56:03.041Z</time></trkpt><trkpt lat="34.1044133" lon="-6.5725467"><ele>84.0</ele><time>2026-04-27T12:56:04.041Z</time></trkpt><trkpt lat="34.104525" lon="-6.5724083"><ele>84.0</ele><time>2026-04-27T12:56:05.041Z</time></trkpt><trkpt lat="34.1046433" lon="-6.572275"><ele>84.0</ele><time>2026-04-27T12:56:06.041Z</time></trkpt><trkpt lat="34.1047617" lon="-6.5721433"><ele>84.0</ele><time>2026-04-27T12:56:07.041Z</time></trkpt><trkpt lat="34.1048767" lon="-6.572005"><ele>84.0</ele><time>2026-04-27T12:56:08.041Z</time></trkpt><trkpt lat="34.1049967" lon="-6.5718717"><ele>84.0</ele><time>2026-04-27T12:56:09.041Z</time></trkpt><trkpt lat="34.1051183" lon="-6.5717533"><ele>84.0</ele><time>2026-04-27T12:56:10.041Z</time></trkpt><trkpt lat="34.105245" lon="-6.5716367"><ele>84.0</ele><time>2026-04-27T12:56:11.041Z</time></trkpt><trkpt lat="34.1053767" lon="-6.571525"><ele>84.0</ele><time>2026-04-27T12:56:12.041Z</time></trkpt><trkpt lat="34.1055133" lon="-6.57141"><ele>84.0</ele><time>2026-04-27T12:56:13.041Z</time></trkpt><trkpt lat="34.1056517" lon="-6.5712967"><ele>84.0</ele><time>2026-04-27T12:56:14.041Z</time></trkpt><trkpt lat="34.1057867" lon="-6.5711867"><ele>84.0</ele><time>2026-04-27T12:56:15.041Z</time></trkpt><trkpt lat="34.1059117" lon="-6.57107"><ele>84.0</ele><time>2026-04-27T12:56:16.041Z</time></trkpt><trkpt lat="34.1060317" lon="-6.5709517"><ele>84.0</ele><time>2026-04-27T12:56:17.041Z</time></trkpt><trkpt lat="34.1061567" lon="-6.5708433"><ele>84.0</ele><time>2026-04-27T12:56:18.041Z</time></trkpt><trkpt lat="34.1062867" lon="-6.5707483"><ele>84.0</ele><time>2026-04-27T12:56:19.041Z</time></trkpt><trkpt lat="34.1064167" lon="-6.57066"><ele>84.0</ele><time>2026-04-27T12:56:20.041Z</time></trkpt><trkpt lat="34.106555" lon="-6.5705833"><ele>84.0</ele><time>2026-04-27T12:56:21.041Z</time></trkpt><trkpt lat="34.1066817" lon="-6.570505"><ele>84.0</ele><time>2026-04-27T12:56:22.041Z</time></trkpt><trkpt lat="34.106795" lon="-6.5704317"><ele>84.5</ele><time>2026-04-27T12:56:23.041Z</time></trkpt><trkpt lat="34.10691" lon="-6.57036"><ele>85.0</ele><time>2026-04-27T12:56:24.04Z</time></trkpt><trkpt lat="34.107035" lon="-6.57028"><ele>85.5</ele><time>2026-04-27T12:56:25.041Z</time></trkpt><trkpt lat="34.1071667" lon="-6.5702067"><ele>86.0</ele><time>2026-04-27T12:56:26.04Z</time></trkpt><trkpt lat="34.1072967" lon="-6.5701267"><ele>85.25</ele><time>2026-04-27T12:56:27.041Z</time></trkpt><trkpt lat="34.1074267" lon="-6.5700517"><ele>84.5</ele><time>2026-04-27T12:56:28.041Z</time></trkpt><trkpt lat="34.1075517" lon="-6.569975"><ele>83.75</ele><time>2026-04-27T12:56:29.041Z</time></trkpt><trkpt lat="34.107685" lon="-6.5698983"><ele>83.0</ele><time>2026-04-27T12:56:30.041Z</time></trkpt><trkpt lat="34.10782" lon="-6.5698"><ele>83.0</ele><time>2026-04-27T12:56:31.041Z</time></trkpt><trkpt lat="34.107955" lon="-6.5697"><ele>83.0</ele><time>2026-04-27T12:56:32.041Z</time></trkpt><trkpt lat="34.1081033" lon="-6.569605"><ele>83.0</ele><time>2026-04-27T12:56:33.041Z</time></trkpt><trkpt lat="34.1082467" lon="-6.5695067"><ele>83.33333333333334</ele><time>2026-04-27T12:56:34.041Z</time></trkpt><trkpt lat="34.1083933" lon="-6.5693883"><ele>83.66666666666667</ele><time>2026-04-27T12:56:35.041Z</time></trkpt><trkpt lat="34.1085283" lon="-6.5692733"><ele>84.0</ele><time>2026-04-27T12:56:36.041Z</time></trkpt><trkpt lat="34.10867" lon="-6.5691467"><ele>84.0</ele><time>2026-04-27T12:56:37.041Z</time></trkpt><trkpt lat="34.1088017" lon="-6.5690217"><ele>84.0</ele><time>2026-04-27T12:56:38.041Z</time></trkpt><trkpt lat="34.108925" lon="-6.56889"><ele>84.0</ele><time>2026-04-27T12:56:39.041Z</time></trkpt><trkpt lat="34.1090367" lon="-6.5687667"><ele>82.66666666666667</ele><time>2026-04-27T12:56:40.041Z</time></trkpt><trkpt lat="34.109155" lon="-6.568645"><ele>81.33333333333334</ele><time>2026-04-27T12:56:41.041Z</time></trkpt><trkpt lat="34.109265" lon="-6.56853"><ele>80.0</ele><time>2026-04-27T12:56:42.04Z</time></trkpt><trkpt lat="34.1093817" lon="-6.5684133"><ele>80.0</ele><time>2026-04-27T12:56:43.04Z</time></trkpt><trkpt lat="34.1095017" lon="-6.5682933"><ele>80.0</ele><time>2026-04-27T12:56:44.041Z</time></trkpt><trkpt lat="34.1096167" lon="-6.5681667"><ele>80.0</ele><time>2026-04-27T12:56:45.041Z</time></trkpt><trkpt lat="34.1097283" lon="-6.56804"><ele>80.0</ele><time>2026-04-27T12:56:46.04Z</time></trkpt><trkpt lat="34.1098467" lon="-6.56793"><ele>80.0</ele><time>2026-04-27T12:56:47.041Z</time></trkpt><trkpt lat="34.1099583" lon="-6.56782"><ele>80.0</ele><time>2026-04-27T12:56:48.041Z</time></trkpt><trkpt lat="34.1100583" lon="-6.56771"><ele>80.0</ele><time>2026-04-27T12:56:49.041Z</time></trkpt><trkpt lat="34.1101617" lon="-6.5676"><ele>80.0</ele><time>2026-04-27T12:56:50.04Z</time></trkpt><trkpt lat="34.110265" lon="-6.5674867"><ele>80.0</ele><time>2026-04-27T12:56:51.041Z</time></trkpt><trkpt lat="34.1103733" lon="-6.5673717"><ele>80.0</ele><time>2026-04-27T12:56:52.041Z</time></trkpt><trkpt lat="34.1104833" lon="-6.5672583"><ele>80.0</ele><time>2026-04-27T12:56:53.041Z</time></trkpt><trkpt lat="34.1105983" lon="-6.5671517"><ele>80.0</ele><time>2026-04-27T12:56:54.041Z</time></trkpt><trkpt lat="34.1107033" lon="-6.56703"><ele>80.0</ele><time>2026-04-27T12:56:55.041Z</time></trkpt><trkpt lat="34.1108133" lon="-6.56691"><ele>80.0</ele><time>2026-04-27T12:56:56.041Z</time></trkpt><trkpt lat="34.1109267" lon="-6.5667917"><ele>80.0</ele><time>2026-04-27T12:56:57.041Z</time></trkpt><trkpt lat="34.1110417" lon="-6.5666767"><ele>80.5</ele><time>2026-04-27T12:56:58.041Z</time></trkpt><trkpt lat="34.1111533" lon="-6.5665633"><ele>81.0</ele><time>2026-04-27T12:56:59.04Z</time></trkpt><trkpt lat="34.111265" lon="-6.5664617"><ele>81.5</ele><time>2026-04-27T12:57:00.041Z</time></trkpt><trkpt lat="34.11137" lon="-6.566365"><ele>82.0</ele><time>2026-04-27T12:57:01.041Z</time></trkpt><trkpt lat="34.1114633" lon="-6.56626"><ele>81.75</ele><time>2026-04-27T12:57:02.04Z</time></trkpt><trkpt lat="34.1115533" lon="-6.5661533"><ele>81.5</ele><time>2026-04-27T12:57:03.041Z</time></trkpt><trkpt lat="34.111645" lon="-6.5660483"><ele>81.25</ele><time>2026-04-27T12:57:04.041Z</time></trkpt><trkpt lat="34.1117383" lon="-6.5659433"><ele>81.0</ele><time>2026-04-27T12:57:05.04Z</time></trkpt><trkpt lat="34.111845" lon="-6.5658317"><ele>81.0</ele><time>2026-04-27T12:57:06.041Z</time></trkpt><trkpt lat="34.1119533" lon="-6.5657267"><ele>81.0</ele><time>2026-04-27T12:57:07.041Z</time></trkpt><trkpt lat="34.1120567" lon="-6.565625"><ele>81.0</ele><time>2026-04-27T12:57:08.041Z</time></trkpt><trkpt lat="34.1121567" lon="-6.565525"><ele>81.0</ele><time>2026-04-27T12:57:09.041Z</time></trkpt><trkpt lat="34.1122517" lon="-6.5654233"><ele>80.8</ele><time>2026-04-27T12:57:10.041Z</time></trkpt><trkpt lat="34.1123367" lon="-6.565325"><ele>80.6</ele><time>2026-04-27T12:57:11.041Z</time></trkpt><trkpt lat="34.1124233" lon="-6.5652417"><ele>80.4</ele><time>2026-04-27T12:57:12.041Z</time></trkpt><trkpt lat="34.1125117" lon="-6.565175"><ele>80.2</ele><time>2026-04-27T12:57:13.041Z</time></trkpt><trkpt lat="34.11261" lon="-6.5651233"><ele>80.0</ele><time>2026-04-27T12:57:14.041Z</time></trkpt><trkpt lat="34.1127133" lon="-6.5650867"><ele>80.0</ele><time>2026-04-27T12:57:15.041Z</time></trkpt><trkpt lat="34.112835" lon="-6.5650517"><ele>80.0</ele><time>2026-04-27T12:57:16.041Z</time></trkpt><trkpt lat="34.1129517" lon="-6.5650233"><ele>80.0</ele><time>2026-04-27T12:57:17.04Z</time></trkpt><trkpt lat="34.113065" lon="-6.5649933"><ele>80.0</ele><time>2026-04-27T12:57:18.041Z</time></trkpt><trkpt lat="34.1131767" lon="-6.564965"><ele>80.8</ele><time>2026-04-27T12:57:19.041Z</time></trkpt><trkpt lat="34.113285" lon="-6.564935"><ele>81.6</ele><time>2026-04-27T12:57:20.041Z</time></trkpt><trkpt lat="34.1133933" lon="-6.5649"><ele>82.4</ele><time>2026-04-27T12:57:21.041Z</time></trkpt><trkpt lat="34.113505" lon="-6.564865"><ele>83.2</ele><time>2026-04-27T12:57:22.041Z</time></trkpt><trkpt lat="34.1136083" lon="-6.56482"><ele>84.0</ele><time>2026-04-27T12:57:23.041Z</time></trkpt><trkpt lat="34.113725" lon="-6.5647683"><ele>84.0</ele><time>2026-04-27T12:57:24.041Z</time></trkpt><trkpt lat="34.1138317" lon="-6.5647267"><ele>84.0</ele><time>2026-04-27T12:57:25.041Z</time></trkpt><trkpt lat="34.1139317" lon="-6.56468"><ele>84.0</ele><time>2026-04-27T12:57:26.041Z</time></trkpt><trkpt lat="34.11403" lon="-6.5646433"><ele>84.0</ele><time>2026-04-27T12:57:27.041Z</time></trkpt><trkpt lat="34.11412" lon="-6.5645883"><ele>84.0</ele><time>2026-04-27T12:57:28.041Z</time></trkpt><trkpt lat="34.1142117" lon="-6.5645383"><ele>83.0</ele><time>2026-04-27T12:57:29.041Z</time></trkpt><trkpt lat="34.1143033" lon="-6.564495"><ele>82.0</ele><time>2026-04-27T12:57:30.04Z</time></trkpt><trkpt lat="34.114395" lon="-6.56445"><ele>81.0</ele><time>2026-04-27T12:57:31.041Z</time></trkpt><trkpt lat="34.114485" lon="-6.5644017"><ele>80.0</ele><time>2026-04-27T12:57:32.041Z</time></trkpt><trkpt lat="34.11457" lon="-6.5643483"><ele>79.0</ele><time>2026-04-27T12:57:33.041Z</time></trkpt><trkpt lat="34.114665" lon="-6.5642933"><ele>79.0</ele><time>2026-04-27T12:57:34.041Z</time></trkpt><trkpt lat="34.114745" lon="-6.5642433"><ele>79.0</ele><time>2026-04-27T12:57:35.04Z</time></trkpt><trkpt lat="34.114825" lon="-6.5641983"><ele>79.0</ele><time>2026-04-27T12:57:36.041Z</time></trkpt><trkpt lat="34.1149067" lon="-6.5641517"><ele>79.0</ele><time>2026-04-27T12:57:37.041Z</time></trkpt><trkpt lat="34.1149783" lon="-6.5641"><ele>79.0</ele><time>2026-04-27T12:57:38.04Z</time></trkpt><trkpt lat="34.1150467" lon="-6.56404"><ele>79.0</ele><time>2026-04-27T12:57:39.041Z</time></trkpt><trkpt lat="34.1151117" lon="-6.5639867"><ele>79.66666666666666</ele><time>2026-04-27T12:57:40.041Z</time></trkpt><trkpt lat="34.1151683" lon="-6.5639367"><ele>80.33333333333333</ele><time>2026-04-27T12:57:41.041Z</time></trkpt><trkpt lat="34.1152383" lon="-6.563885"><ele>81.0</ele><time>2026-04-27T12:57:42.041Z</time></trkpt><trkpt lat="34.115315" lon="-6.5638333"><ele>81.66666666666667</ele><time>2026-04-27T12:57:43.041Z</time></trkpt><trkpt lat="34.1153867" lon="-6.563785"><ele>82.33333333333334</ele><time>2026-04-27T12:57:44.041Z</time></trkpt><trkpt lat="34.115475" lon="-6.5637417"><ele>83.0</ele><time>2026-04-27T12:57:45.041Z</time></trkpt><trkpt lat="34.1155767" lon="-6.5636933"><ele>82.25</ele><time>2026-04-27T12:57:46.041Z</time></trkpt><trkpt lat="34.1156883" lon="-6.5636367"><ele>81.5</ele><time>2026-04-27T12:57:47.041Z</time></trkpt><trkpt lat="34.1158033" lon="-6.5635783"><ele>80.75</ele><time>2026-04-27T12:57:48.041Z</time></trkpt><trkpt lat="34.1159233" lon="-6.56352"><ele>80.0</ele><time>2026-04-27T12:57:49.041Z</time></trkpt><trkpt lat="34.1160367" lon="-6.5634583"><ele>80.0</ele><time>2026-04-27T12:57:50.041Z</time></trkpt><trkpt lat="34.11614" lon="-6.5634017"><ele>80.0</ele><time>2026-04-27T12:57:51.041Z</time></trkpt><trkpt lat="34.1162283" lon="-6.5633417"><ele>80.0</ele><time>2026-04-27T12:57:52.041Z</time></trkpt><trkpt lat="34.1162967" lon="-6.5632633"><ele>80.0</ele><time>2026-04-27T12:57:53.041Z</time></trkpt><trkpt lat="34.1163617" lon="-6.5631867"><ele>80.0</ele><time>2026-04-27T12:57:54.041Z</time></trkpt><trkpt lat="34.1164267" lon="-6.5631233"><ele>80.0</ele><time>2026-04-27T12:57:55.041Z</time></trkpt><trkpt lat="34.1164833" lon="-6.5630683"><ele>80.0</ele><time>2026-04-27T12:57:56.041Z</time></trkpt><trkpt lat="34.1165433" lon="-6.5630217"><ele>80.0</ele><time>2026-04-27T12:57:57.041Z</time></trkpt><trkpt lat="34.1166017" lon="-6.5629783"><ele>80.0</ele><time>2026-04-27T12:57:58.041Z</time></trkpt><trkpt lat="34.1166617" lon="-6.56294"><ele>80.0</ele><time>2026-04-27T12:57:59.041Z</time></trkpt><trkpt lat="34.11672" lon="-6.5629067"><ele>80.0</ele><time>2026-04-27T12:58:00.041Z</time></trkpt><trkpt lat="34.1167933" lon="-6.5628633"><ele>80.0</ele><time>2026-04-27T12:58:01.041Z</time></trkpt><trkpt lat="34.116875" lon="-6.5628267"><ele>79.5</ele><time>2026-04-27T12:58:02.041Z</time></trkpt><trkpt lat="34.116955" lon="-6.56279"><ele>79.0</ele><time>2026-04-27T12:58:03.04Z</time></trkpt><trkpt lat="34.11703" lon="-6.56276"><ele>78.5</ele><time>2026-04-27T12:58:04.041Z</time></trkpt><trkpt lat="34.1171217" lon="-6.5627283"><ele>78.0</ele><time>2026-04-27T12:58:06.041Z</time></trkpt><trkpt lat="34.11719" lon="-6.5627"><ele>77.5</ele><time>2026-04-27T12:58:08.041Z</time></trkpt><trkpt lat="34.1172533" lon="-6.5626833"><ele>77.0</ele><time>2026-04-27T12:58:10.041Z</time></trkpt><trkpt lat="34.1173217" lon="-6.5626617"><ele>77.16666666666667</ele><time>2026-04-27T12:58:12.041Z</time></trkpt><trkpt lat="34.11743" lon="-6.5626233"><ele>77.33333333333334</ele><time>2026-04-27T12:58:14.041Z</time></trkpt><trkpt lat="34.11749" lon="-6.562585"><ele>77.5</ele><time>2026-04-27T12:58:15.041Z</time></trkpt><trkpt lat="34.117545" lon="-6.562545"><ele>77.66666666666667</ele><time>2026-04-27T12:58:16.041Z</time></trkpt><trkpt lat="34.1176033" lon="-6.5624983"><ele>77.83333333333333</ele><time>2026-04-27T12:58:17.041Z</time></trkpt><trkpt lat="34.1176617" lon="-6.5624517"><ele>78.0</ele><time>2026-04-27T12:58:18.041Z</time></trkpt><trkpt lat="34.1177133" lon="-6.5623967"><ele>78.0</ele><time>2026-04-27T12:58:19.041Z</time></trkpt><trkpt lat="34.1177633" lon="-6.562335"><ele>78.0</ele><time>2026-04-27T12:58:20.041Z</time></trkpt><trkpt lat="34.11781" lon="-6.5622617"><ele>78.0</ele><time>2026-04-27T12:58:21.041Z</time></trkpt><trkpt lat="34.1178567" lon="-6.5621867"><ele>78.0</ele><time>2026-04-27T12:58:22.041Z</time></trkpt><trkpt lat="34.1179067" lon="-6.562115"><ele>78.0</ele><time>2026-04-27T12:58:23.041Z</time></trkpt><trkpt lat="34.1179517" lon="-6.5620483"><ele>78.0</ele><time>2026-04-27T12:58:24.041Z</time></trkpt><trkpt lat="34.1180283" lon="-6.5619583"><ele>78.0</ele><time>2026-04-27T12:58:26.041Z</time></trkpt><trkpt lat="34.1180833" lon="-6.5619017"><ele>78.0</ele><time>2026-04-27T12:58:28.041Z</time></trkpt><trkpt lat="34.1181317" lon="-6.5618433"><ele>78.0</ele><time>2026-04-27T12:58:30.04Z</time></trkpt><trkpt lat="34.1182017" lon="-6.56178"><ele>78.0</ele><time>2026-04-27T12:58:32.041Z</time></trkpt><trkpt lat="34.1182783" lon="-6.561725"><ele>78.0</ele><time>2026-04-27T12:58:34.041Z</time></trkpt><trkpt lat="34.11838" lon="-6.5616633"><ele>78.0</ele><time>2026-04-27T12:58:36.041Z</time></trkpt><trkpt lat="34.1184417" lon="-6.561635"><ele>78.0</ele><time>2026-04-27T12:58:37.041Z</time></trkpt><trkpt lat="34.1185083" lon="-6.5616117"><ele>78.0</ele><time>2026-04-27T12:58:38.041Z</time></trkpt><trkpt lat="34.1185683" lon="-6.5615867"><ele>78.0</ele><time>2026-04-27T12:58:39.04Z</time></trkpt><trkpt lat="34.1186783" lon="-6.5615483"><ele>78.0</ele><time>2026-04-27T12:58:41.04Z</time></trkpt><trkpt lat="34.118765" lon="-6.561525"><ele>78.0</ele><time>2026-04-27T12:58:43.041Z</time></trkpt><trkpt lat="34.1188417" lon="-6.561485"><ele>78.0</ele><time>2026-04-27T12:58:46.041Z</time></trkpt><trkpt lat="34.118905" lon="-6.5614483"><ele>78.0</ele><time>2026-04-27T12:58:49.041Z</time></trkpt><trkpt lat="34.1189583" lon="-6.5613983"><ele>78.0</ele><time>2026-04-27T12:58:51.041Z</time></trkpt><trkpt lat="34.1190317" lon="-6.5613267"><ele>78.0</ele><time>2026-04-27T12:58:53.041Z</time></trkpt><trkpt lat="34.1191217" lon="-6.5612467"><ele>78.0</ele><time>2026-04-27T12:58:55.041Z</time></trkpt><trkpt lat="34.1192267" lon="-6.5611517"><ele>78.0</ele><time>2026-04-27T12:58:57.041Z</time></trkpt><trkpt lat="34.1192783" lon="-6.5611067"><ele>78.5</ele><time>2026-04-27T12:58:58.04Z</time></trkpt><trkpt lat="34.119355" lon="-6.5610367"><ele>79.0</ele><time>2026-04-27T12:59:00.041Z</time></trkpt><trkpt lat="34.1194283" lon="-6.5609667"><ele>79.5</ele><time>2026-04-27T12:59:02.041Z</time></trkpt><trkpt lat="34.119495" lon="-6.5609067"><ele>80.0</ele><time>2026-04-27T12:59:04.041Z</time></trkpt><trkpt lat="34.11957" lon="-6.56082"><ele>80.5</ele><time>2026-04-27T12:59:06.04Z</time></trkpt><trkpt lat="34.119615" lon="-6.5607667"><ele>81.0</ele><time>2026-04-27T12:59:07.041Z</time></trkpt><trkpt lat="34.1197067" lon="-6.5606917"><ele>81.0</ele><time>2026-04-27T12:59:09.041Z</time></trkpt><trkpt lat="34.1198117" lon="-6.5606167"><ele>81.0</ele><time>2026-04-27T12:59:23.041Z</time></trkpt><trkpt lat="34.1198783" lon="-6.5605483"><ele>81.0</ele><time>2026-04-27T12:59:26.04Z</time></trkpt><trkpt lat="34.1200067" lon="-6.5605083"><ele>81.0</ele><time>2026-04-27T12:59:28.041Z</time></trkpt><trkpt lat="34.1200867" lon="-6.56051"><ele>81.0</ele><time>2026-04-27T12:59:29.041Z</time></trkpt><trkpt lat="34.120175" lon="-6.5605267"><ele>82.0</ele><time>2026-04-27T12:59:30.041Z</time></trkpt><trkpt lat="34.1202567" lon="-6.5605433"><ele>83.0</ele><time>2026-04-27T12:59:31.041Z</time></trkpt><trkpt lat="34.12033" lon="-6.56056"><ele>84.0</ele><time>2026-04-27T12:59:32.041Z</time></trkpt><trkpt lat="34.1203983" lon="-6.5605733"><ele>85.0</ele><time>2026-04-27T12:59:33.041Z</time></trkpt><trkpt lat="34.1204633" lon="-6.5605817"><ele>86.0</ele><time>2026-04-27T12:59:34.04Z</time></trkpt><trkpt lat="34.12056" lon="-6.5605817"><ele>87.0</ele><time>2026-04-27T12:59:36.041Z</time></trkpt><trkpt lat="34.1206417" lon="-6.5605767"><ele>88.0</ele><time>2026-04-27T12:59:39.041Z</time></trkpt><trkpt lat="34.1207517" lon="-6.5606067"><ele>89.0</ele><time>2026-04-27T13:00:01.041Z</time></trkpt><trkpt lat="34.1208183" lon="-6.5606267"><ele>90.0</ele><time>2026-04-27T13:00:02.041Z</time></trkpt><trkpt lat="34.1209017" lon="-6.560645"><ele>91.0</ele><time>2026-04-27T13:00:03.041Z</time></trkpt><trkpt lat="34.1209833" lon="-6.5606583"><ele>92.0</ele><time>2026-04-27T13:00:04.041Z</time></trkpt><trkpt lat="34.1210617" lon="-6.5606683"><ele>93.0</ele><time>2026-04-27T13:00:05.04Z</time></trkpt><trkpt lat="34.1211483" lon="-6.56068"><ele>93.0</ele><time>2026-04-27T13:00:06.04Z</time></trkpt><trkpt lat="34.121245" lon="-6.560695"><ele>93.0</ele><time>2026-04-27T13:00:07.04Z</time></trkpt><trkpt lat="34.1213467" lon="-6.5607083"><ele>93.0</ele><time>2026-04-27T13:00:08.04Z</time></trkpt><trkpt lat="34.121455" lon="-6.56073"><ele>93.0</ele><time>2026-04-27T13:00:09.04Z</time></trkpt><trkpt lat="34.1215583" lon="-6.56075"><ele>93.0</ele><time>2026-04-27T13:00:10.04Z</time></trkpt><trkpt lat="34.1216533" lon="-6.560765"><ele>93.4</ele><time>2026-04-27T13:00:11.039Z</time></trkpt><trkpt lat="34.1217517" lon="-6.5607767"><ele>93.80000000000001</ele><time>2026-04-27T13:00:12.04Z</time></trkpt><trkpt lat="34.121855" lon="-6.5607983"><ele>94.2</ele><time>2026-04-27T13:00:13.039Z</time></trkpt><trkpt lat="34.1219617" lon="-6.5608183"><ele>94.6</ele><time>2026-04-27T13:00:14.04Z</time></trkpt><trkpt lat="34.12207" lon="-6.5608383"><ele>95.0</ele><time>2026-04-27T13:00:15.04Z</time></trkpt><trkpt lat="34.1221817" lon="-6.560855"><ele>95.0</ele><time>2026-04-27T13:00:16.04Z</time></trkpt><trkpt lat="34.1222917" lon="-6.5608717"><ele>95.0</ele><time>2026-04-27T13:00:17.04Z</time></trkpt><trkpt lat="34.1224017" lon="-6.5608817"><ele>95.0</ele><time>2026-04-27T13:00:18.04Z</time></trkpt><trkpt lat="34.1225033" lon="-6.5608967"><ele>95.0</ele><time>2026-04-27T13:00:19.04Z</time></trkpt><trkpt lat="34.1226117" lon="-6.5609117"><ele>95.0</ele><time>2026-04-27T13:00:20.04Z</time></trkpt><trkpt lat="34.1227233" lon="-6.5609333"><ele>96.5</ele><time>2026-04-27T13:00:21.04Z</time></trkpt><trkpt lat="34.12284" lon="-6.5609583"><ele>98.0</ele><time>2026-04-27T13:00:22.04Z</time></trkpt><trkpt lat="34.122955" lon="-6.5609833"><ele>99.5</ele><time>2026-04-27T13:00:23.04Z</time></trkpt><trkpt lat="34.123075" lon="-6.5610117"><ele>101.0</ele><time>2026-04-27T13:00:24.04Z</time></trkpt><trkpt lat="34.1231917" lon="-6.5610333"><ele>102.0</ele><time>2026-04-27T13:00:25.04Z</time></trkpt><trkpt lat="34.1233017" lon="-6.5610483"><ele>103.0</ele><time>2026-04-27T13:00:26.04Z</time></trkpt><trkpt lat="34.1234" lon="-6.5610617"><ele>104.0</ele><time>2026-04-27T13:00:27.04Z</time></trkpt><trkpt lat="34.1235" lon="-6.5610733"><ele>105.0</ele><time>2026-04-27T13:00:28.04Z</time></trkpt><trkpt lat="34.1235983" lon="-6.5610883"><ele>106.0</ele><time>2026-04-27T13:00:29.04Z</time></trkpt><trkpt lat="34.1237" lon="-6.5611067"><ele>106.0</ele><time>2026-04-27T13:00:30.04Z</time></trkpt><trkpt lat="34.1237933" lon="-6.5611267"><ele>106.0</ele><time>2026-04-27T13:00:31.04Z</time></trkpt><trkpt lat="34.12388" lon="-6.56114"><ele>106.0</ele><time>2026-04-27T13:00:32.039Z</time></trkpt><trkpt lat="34.1239733" lon="-6.5611517"><ele>106.0</ele><time>2026-04-27T13:00:33.04Z</time></trkpt><trkpt lat="34.1240633" lon="-6.561165"><ele>106.0</ele><time>2026-04-27T13:00:34.04Z</time></trkpt><trkpt lat="34.1241567" lon="-6.5611833"><ele>106.66666666666667</ele><time>2026-04-27T13:00:35.039Z</time></trkpt><trkpt lat="34.124245" lon="-6.5612033"><ele>107.33333333333334</ele><time>2026-04-27T13:00:36.04Z</time></trkpt><trkpt lat="34.1243267" lon="-6.56122"><ele>108.0</ele><time>2026-04-27T13:00:37.039Z</time></trkpt><trkpt lat="34.12439" lon="-6.5612283"><ele>108.66666666666666</ele><time>2026-04-27T13:00:38.04Z</time></trkpt><trkpt lat="34.1244883" lon="-6.561215"><ele>109.33333333333333</ele><time>2026-04-27T13:00:40.04Z</time></trkpt><trkpt lat="34.12452" lon="-6.561125"><ele>110.0</ele><time>2026-04-27T13:00:43.04Z</time></trkpt><trkpt lat="34.1244867" lon="-6.56099"><ele>109.99999999999999</ele><time>2026-04-27T13:01:25.04Z</time></trkpt><trkpt lat="34.1244117" lon="-6.5609933"><ele>110.0</ele><time>2026-04-27T13:01:28.04Z</time></trkpt><trkpt lat="34.1243983" lon="-6.561075"><ele>110.0</ele><time>2026-04-27T13:01:31.04Z</time></trkpt><trkpt lat="34.1244583" lon="-6.5611033"><ele>110.0</ele><time>2026-04-27T13:01:33.04Z</time></trkpt><trkpt lat="34.1245217" lon="-6.5611183"><ele>109.99999999999999</ele><time>2026-04-27T13:01:35.04Z</time></trkpt><trkpt lat="34.12458" lon="-6.5611983"><ele>110.0</ele><time>2026-04-27T13:01:47.04Z</time></trkpt><trkpt lat="34.1246817" lon="-6.5612633"><ele>110.49999999999999</ele><time>2026-04-27T13:01:49.04Z</time></trkpt><trkpt lat="34.1247583" lon="-6.5612833"><ele>111.0</ele><time>2026-04-27T13:01:50.04Z</time></trkpt><trkpt lat="34.124835" lon="-6.56129"><ele>111.5</ele><time>2026-04-27T13:01:51.04Z</time></trkpt><trkpt lat="34.12492" lon="-6.5612983"><ele>112.0</ele><time>2026-04-27T13:01:52.04Z</time></trkpt><trkpt lat="34.1250167" lon="-6.561315"><ele>112.49999999999999</ele><time>2026-04-27T13:01:53.04Z</time></trkpt><trkpt lat="34.1251233" lon="-6.5613367"><ele>113.0</ele><time>2026-04-27T13:01:54.04Z</time></trkpt><trkpt lat="34.1252317" lon="-6.5613583"><ele>113.80000000000001</ele><time>2026-04-27T13:01:55.04Z</time></trkpt><trkpt lat="34.1253333" lon="-6.56138"><ele>114.60000000000001</ele><time>2026-04-27T13:01:56.04Z</time></trkpt><trkpt lat="34.1254417" lon="-6.5614"><ele>115.39999999999999</ele><time>2026-04-27T13:01:57.04Z</time></trkpt><trkpt lat="34.1255567" lon="-6.5614217"><ele>116.19999999999999</ele><time>2026-04-27T13:01:58.04Z</time></trkpt><trkpt lat="34.1256667" lon="-6.5614433"><ele>117.0</ele><time>2026-04-27T13:01:59.04Z</time></trkpt><trkpt lat="34.125785" lon="-6.5614617"><ele>118.0</ele><time>2026-04-27T13:02:00.039Z</time></trkpt><trkpt lat="34.1259083" lon="-6.56148"><ele>119.0</ele><time>2026-04-27T13:02:01.04Z</time></trkpt><trkpt lat="34.1244867" lon="-6.56099"><ele>117.99999999999999</ele><time>2026-04-27T13:01:25.04Z</time></trkpt><trkpt lat="34.1244117" lon="-6.5609933"><ele>117.0</ele><time>2026-04-27T13:01:28.04Z</time></trkpt><trkpt lat="34.1243983" lon="-6.561075"><ele>116.0</ele><time>2026-04-27T13:01:31.04Z</time></trkpt><trkpt lat="34.1244583" lon="-6.5611033"><ele>115.0</ele><time>2026-04-27T13:01:33.04Z</time></trkpt><trkpt lat="34.1245217" lon="-6.5611183"><ele>113.99999999999999</ele><time>2026-04-27T13:01:35.04Z</time></trkpt><trkpt lat="34.12458" lon="-6.5611983"><ele>113.0</ele><time>2026-04-27T13:01:47.04Z</time></trkpt><trkpt lat="34.1246817" lon="-6.5612633"><ele>112.99999999999999</ele><time>2026-04-27T13:01:49.04Z</time></trkpt><trkpt lat="34.1247583" lon="-6.5612833"><ele>113.0</ele><time>2026-04-27T13:01:50.04Z</time></trkpt><trkpt lat="34.124835" lon="-6.56129"><ele>113.0</ele><time>2026-04-27T13:01:51.04Z</time></trkpt><trkpt lat="34.12492" lon="-6.5612983"><ele>113.0</ele><time>2026-04-27T13:01:52.04Z</time></trkpt><trkpt lat="34.1250167" lon="-6.561315"><ele>112.99999999999999</ele><time>2026-04-27T13:01:53.04Z</time></trkpt><trkpt lat="34.1251233" lon="-6.5613367"><ele>113.0</ele><time>2026-04-27T13:01:54.04Z</time></trkpt><trkpt lat="34.1252317" lon="-6.5613583"><ele>113.80000000000001</ele><time>2026-04-27T13:01:55.04Z</time></trkpt><trkpt lat="34.1253333" lon="-6.56138"><ele>114.60000000000001</ele><time>2026-04-27T13:01:56.04Z</time></trkpt><trkpt lat="34.1254417" lon="-6.5614"><ele>115.39999999999999</ele><time>2026-04-27T13:01:57.04Z</time></trkpt><trkpt lat="34.1255567" lon="-6.5614217"><ele>116.19999999999999</ele><time>2026-04-27T13:01:58.04Z</time></trkpt><trkpt lat="34.1256667" lon="-6.5614433"><ele>117.0</ele><time>2026-04-27T13:01:59.04Z</time></trkpt><trkpt lat="34.125785" lon="-6.5614617"><ele>117.5</ele><time>2026-04-27T13:02:00.039Z</time></trkpt><trkpt lat="34.1259083" lon="-6.56148"><ele>118.0</ele><time>2026-04-27T13:02:01.04Z</time></trkpt><trkpt lat="34.126035" lon="-6.5614967"><ele>118.5</ele><time>2026-04-27T13:02:02.039Z</time></trkpt><trkpt lat="34.12616" lon="-6.5615183"><ele>119.0</ele><time>2026-04-27T13:02:03.04Z</time></trkpt><trkpt lat="34.126285" lon="-6.5615383"><ele>119.0</ele><time>2026-04-27T13:02:04.04Z</time></trkpt><trkpt lat="34.1264083" lon="-6.5615617"><ele>119.0</ele><time>2026-04-27T13:02:05.04Z</time></trkpt><trkpt lat="34.1265383" lon="-6.561585"><ele>119.0</ele><time>2026-04-27T13:02:06.039Z</time></trkpt><trkpt lat="34.1266683" lon="-6.5616083"><ele>119.0</ele><time>2026-04-27T13:02:07.04Z</time></trkpt><trkpt lat="34.1267933" lon="-6.5616283"><ele>119.5</ele><time>2026-04-27T13:02:08.04Z</time></trkpt><trkpt lat="34.1269217" lon="-6.56165"><ele>120.0</ele><time>2026-04-27T13:02:09.04Z</time></trkpt><trkpt lat="34.1270533" lon="-6.5616767"><ele>120.5</ele><time>2026-04-27T13:02:10.04Z</time></trkpt><trkpt lat="34.1271783" lon="-6.5617067"><ele>121.0</ele><time>2026-04-27T13:02:11.04Z</time></trkpt><trkpt lat="34.127295" lon="-6.56173"><ele>121.4</ele><time>2026-04-27T13:02:12.04Z</time></trkpt><trkpt lat="34.1274017" lon="-6.5617533"><ele>121.8</ele><time>2026-04-27T13:02:13.04Z</time></trkpt><trkpt lat="34.1275083" lon="-6.561775"><ele>122.20000000000002</ele><time>2026-04-27T13:02:14.04Z</time></trkpt><trkpt lat="34.127605" lon="-6.5617967"><ele>122.60000000000001</ele><time>2026-04-27T13:02:15.04Z</time></trkpt><trkpt lat="34.127705" lon="-6.561825"><ele>123.0</ele><time>2026-04-27T13:02:16.04Z</time></trkpt><trkpt lat="34.12782" lon="-6.5618517"><ele>123.0</ele><time>2026-04-27T13:02:17.04Z</time></trkpt><trkpt lat="34.12794" lon="-6.56188"><ele>123.0</ele><time>2026-04-27T13:02:18.04Z</time></trkpt><trkpt lat="34.128065" lon="-6.561905"><ele>123.0</ele><time>2026-04-27T13:02:19.04Z</time></trkpt><trkpt lat="34.1281817" lon="-6.5619333"><ele>123.0</ele><time>2026-04-27T13:02:20.04Z</time></trkpt><trkpt lat="34.128295" lon="-6.5619567"><ele>123.0</ele><time>2026-04-27T13:02:21.04Z</time></trkpt><trkpt lat="34.1284033" lon="-6.5619833"><ele>123.00000000000001</ele><time>2026-04-27T13:02:22.04Z</time></trkpt><trkpt lat="34.12851" lon="-6.5620117"><ele>123.00000000000001</ele><time>2026-04-27T13:02:23.04Z</time></trkpt><trkpt lat="34.12861" lon="-6.5620367"><ele>123.0</ele><time>2026-04-27T13:02:24.04Z</time></trkpt><trkpt lat="34.1287" lon="-6.5620633"><ele>123.0</ele><time>2026-04-27T13:02:25.04Z</time></trkpt><trkpt lat="34.1287783" lon="-6.5620833"><ele>123.0</ele><time>2026-04-27T13:02:26.039Z</time></trkpt><trkpt lat="34.1288533" lon="-6.5620967"><ele>123.00000000000001</ele><time>2026-04-27T13:02:27.04Z</time></trkpt><trkpt lat="34.12897" lon="-6.56208"><ele>123.00000000000001</ele><time>2026-04-27T13:02:29.04Z</time></trkpt><trkpt lat="34.12905" lon="-6.561985"><ele>123.0</ele><time>2026-04-27T13:02:31.04Z</time></trkpt><trkpt lat="34.1290817" lon="-6.5618983"><ele>123.0</ele><time>2026-04-27T13:02:32.04Z</time></trkpt><trkpt lat="34.1291133" lon="-6.5617983"><ele>122.83333333333333</ele><time>2026-04-27T13:02:33.04Z</time></trkpt><trkpt lat="34.1291433" lon="-6.5616917"><ele>122.66666666666666</ele><time>2026-04-27T13:02:34.04Z</time></trkpt><trkpt lat="34.129175" lon="-6.561585"><ele>122.5</ele><time>2026-04-27T13:02:35.04Z</time></trkpt><trkpt lat="34.1292083" lon="-6.5614867"><ele>122.33333333333333</ele><time>2026-04-27T13:02:36.04Z</time></trkpt><trkpt lat="34.1292367" lon="-6.5614017"><ele>122.16666666666666</ele><time>2026-04-27T13:02:37.04Z</time></trkpt><trkpt lat="34.1292617" lon="-6.5613233"><ele>122.0</ele><time>2026-04-27T13:02:38.04Z</time></trkpt><trkpt lat="34.1292767" lon="-6.5612483"><ele>122.5</ele><time>2026-04-27T13:02:39.04Z</time></trkpt><trkpt lat="34.12931" lon="-6.561115"><ele>123.0</ele><time>2026-04-27T13:02:41.04Z</time></trkpt><trkpt lat="34.1293433" lon="-6.5609867"><ele>123.5</ele><time>2026-04-27T13:02:43.04Z</time></trkpt><trkpt lat="34.1293817" lon="-6.5608733"><ele>124.0</ele><time>2026-04-27T13:02:45.04Z</time></trkpt><trkpt lat="34.1294267" lon="-6.560735"><ele>124.00000000000001</ele><time>2026-04-27T13:02:47.04Z</time></trkpt><trkpt lat="34.1294533" lon="-6.560655"><ele>124.0</ele><time>2026-04-27T13:02:48.04Z</time></trkpt><trkpt lat="34.129475" lon="-6.560575"><ele>124.0</ele><time>2026-04-27T13:02:49.04Z</time></trkpt><trkpt lat="34.1295017" lon="-6.5605017"><ele>124.0</ele><time>2026-04-27T13:02:50.04Z</time></trkpt><trkpt lat="34.1295517" lon="-6.560385"><ele>124.00000000000001</ele><time>2026-04-27T13:02:52.04Z</time></trkpt><trkpt lat="34.1295883" lon="-6.5602867"><ele>124.0</ele><time>2026-04-27T13:02:54.04Z</time></trkpt><trkpt lat="34.129615" lon="-6.560165"><ele>124.16666666666667</ele><time>2026-04-27T13:02:56.04Z</time></trkpt><trkpt lat="34.129635" lon="-6.5600917"><ele>124.33333333333334</ele><time>2026-04-27T13:02:57.04Z</time></trkpt><trkpt lat="34.1296633" lon="-6.5600117"><ele>124.5</ele><time>2026-04-27T13:02:58.04Z</time></trkpt><trkpt lat="34.1296967" lon="-6.5599233"><ele>124.66666666666666</ele><time>2026-04-27T13:02:59.039Z</time></trkpt><trkpt lat="34.1297333" lon="-6.5598367"><ele>124.83333333333333</ele><time>2026-04-27T13:03:00.039Z</time></trkpt><trkpt lat="34.1297667" lon="-6.559755"><ele>125.0</ele><time>2026-04-27T13:03:01.04Z</time></trkpt><trkpt lat="34.1297933" lon="-6.5596667"><ele>124.99999999999999</ele><time>2026-04-27T13:03:02.04Z</time></trkpt><trkpt lat="34.1298183" lon="-6.5595833"><ele>125.0</ele><time>2026-04-27T13:03:03.04Z</time></trkpt><trkpt lat="34.1298483" lon="-6.559495"><ele>125.0</ele><time>2026-04-27T13:03:04.04Z</time></trkpt><trkpt lat="34.1298783" lon="-6.5594067"><ele>125.0</ele><time>2026-04-27T13:03:05.04Z</time></trkpt><trkpt lat="34.1299017" lon="-6.5593233"><ele>124.99999999999999</ele><time>2026-04-27T13:03:06.04Z</time></trkpt><trkpt lat="34.1299317" lon="-6.5592433"><ele>125.0</ele><time>2026-04-27T13:03:07.04Z</time></trkpt><trkpt lat="34.1299633" lon="-6.5591617"><ele>125.0</ele><time>2026-04-27T13:03:08.04Z</time></trkpt><trkpt lat="34.1299967" lon="-6.559085"><ele>125.0</ele><time>2026-04-27T13:03:09.04Z</time></trkpt><trkpt lat="34.130055" lon="-6.558955"><ele>125.0</ele><time>2026-04-27T13:03:11.04Z</time></trkpt><trkpt lat="34.1301083" lon="-6.5588283"><ele>125.0</ele><time>2026-04-27T13:03:13.04Z</time></trkpt><trkpt lat="34.1301567" lon="-6.5587117"><ele>125.0</ele><time>2026-04-27T13:03:15.04Z</time></trkpt><trkpt lat="34.1302083" lon="-6.5586117"><ele>125.16666666666666</ele><time>2026-04-27T13:03:17.039Z</time></trkpt><trkpt lat="34.1302417" lon="-6.5585283"><ele>125.33333333333333</ele><time>2026-04-27T13:03:19.04Z</time></trkpt><trkpt lat="34.1302783" lon="-6.5584383"><ele>125.5</ele><time>2026-04-27T13:03:22.04Z</time></trkpt><trkpt lat="34.1303217" lon="-6.558355"><ele>125.66666666666666</ele><time>2026-04-27T13:03:25.04Z</time></trkpt><trkpt lat="34.1303583" lon="-6.5582733"><ele>125.83333333333333</ele><time>2026-04-27T13:03:28.04Z</time></trkpt><trkpt lat="34.130395" lon="-6.5581867"><ele>126.0</ele><time>2026-04-27T13:03:31.04Z</time></trkpt><trkpt lat="34.1304467" lon="-6.5580583"><ele>126.0</ele><time>2026-04-27T13:03:33.04Z</time></trkpt><trkpt lat="34.13049" lon="-6.5579483"><ele>126.0</ele><time>2026-04-27T13:03:34.04Z</time></trkpt><trkpt lat="34.1305367" lon="-6.5578267"><ele>126.0</ele><time>2026-04-27T13:03:35.04Z</time></trkpt><trkpt lat="34.1305883" lon="-6.557715"><ele>126.0</ele><time>2026-04-27T13:03:36.04Z</time></trkpt><trkpt lat="34.130645" lon="-6.5576033"><ele>126.0</ele><time>2026-04-27T13:03:37.04Z</time></trkpt><trkpt lat="34.1306967" lon="-6.55748"><ele>126.25</ele><time>2026-04-27T13:03:38.04Z</time></trkpt><trkpt lat="34.130745" lon="-6.5573517"><ele>126.5</ele><time>2026-04-27T13:03:39.04Z</time></trkpt><trkpt lat="34.1307883" lon="-6.5572217"><ele>126.75</ele><time>2026-04-27T13:03:40.04Z</time></trkpt><trkpt lat="34.1308417" lon="-6.5570917"><ele>127.0</ele><time>2026-04-27T13:03:41.039Z</time></trkpt><trkpt lat="34.1309083" lon="-6.5569717"><ele>127.5</ele><time>2026-04-27T13:03:42.04Z</time></trkpt><trkpt lat="34.13098" lon="-6.556865"><ele>128.0</ele><time>2026-04-27T13:03:43.04Z</time></trkpt><trkpt lat="34.13106" lon="-6.5567567"><ele>128.5</ele><time>2026-04-27T13:03:44.04Z</time></trkpt><trkpt lat="34.1311417" lon="-6.5566417"><ele>129.0</ele><time>2026-04-27T13:03:45.04Z</time></trkpt><trkpt lat="34.1312283" lon="-6.5565233"><ele>129.0</ele><time>2026-04-27T13:03:46.04Z</time></trkpt><trkpt lat="34.131325" lon="-6.5564017"><ele>129.0</ele><time>2026-04-27T13:03:47.04Z</time></trkpt><trkpt lat="34.131415" lon="-6.5562717"><ele>129.0</ele><time>2026-04-27T13:03:48.04Z</time></trkpt><trkpt lat="34.1315083" lon="-6.55615"><ele>129.0</ele><time>2026-04-27T13:03:49.039Z</time></trkpt><trkpt lat="34.1315983" lon="-6.556035"><ele>128.25</ele><time>2026-04-27T13:03:50.04Z</time></trkpt><trkpt lat="34.1316917" lon="-6.555915"><ele>127.5</ele><time>2026-04-27T13:03:51.04Z</time></trkpt><trkpt lat="34.1317817" lon="-6.5558017"><ele>126.75</ele><time>2026-04-27T13:03:52.039Z</time></trkpt><trkpt lat="34.1318667" lon="-6.5556933"><ele>126.0</ele><time>2026-04-27T13:03:53.04Z</time></trkpt><trkpt lat="34.13195" lon="-6.5555733"><ele>126.0</ele><time>2026-04-27T13:03:54.039Z</time></trkpt><trkpt lat="34.13203" lon="-6.555455"><ele>126.0</ele><time>2026-04-27T13:03:55.04Z</time></trkpt><trkpt lat="34.132115" lon="-6.5553467"><ele>126.0</ele><time>2026-04-27T13:03:56.04Z</time></trkpt><trkpt lat="34.1322" lon="-6.5552333"><ele>126.0</ele><time>2026-04-27T13:03:57.04Z</time></trkpt><trkpt lat="34.1322817" lon="-6.5551183"><ele>126.0</ele><time>2026-04-27T13:03:58.04Z</time></trkpt><trkpt lat="34.1323717" lon="-6.555"><ele>126.0</ele><time>2026-04-27T13:03:59.04Z</time></trkpt><trkpt lat="34.1324533" lon="-6.5548767"><ele>126.0</ele><time>2026-04-27T13:04:00.04Z</time></trkpt><trkpt lat="34.132535" lon="-6.5547683"><ele>126.0</ele><time>2026-04-27T13:04:01.04Z</time></trkpt><trkpt lat="34.132615" lon="-6.5546717"><ele>126.0</ele><time>2026-04-27T13:04:02.04Z</time></trkpt><trkpt lat="34.13269" lon="-6.55458"><ele>126.0</ele><time>2026-04-27T13:04:03.04Z</time></trkpt><trkpt lat="34.1327767" lon="-6.55448"><ele>126.0</ele><time>2026-04-27T13:04:04.04Z</time></trkpt><trkpt lat="34.1328783" lon="-6.55438"><ele>126.0</ele><time>2026-04-27T13:04:05.04Z</time></trkpt><trkpt lat="34.1330033" lon="-6.5542817"><ele>126.0</ele><time>2026-04-27T13:04:06.04Z</time></trkpt><trkpt lat="34.1331233" lon="-6.554195"><ele>126.0</ele><time>2026-04-27T13:04:07.04Z</time></trkpt><trkpt lat="34.133245" lon="-6.5541017"><ele>126.0</ele><time>2026-04-27T13:04:08.04Z</time></trkpt><trkpt lat="34.133365" lon="-6.5540233"><ele>126.0</ele><time>2026-04-27T13:04:09.039Z</time></trkpt><trkpt lat="34.133485" lon="-6.5539417"><ele>124.75</ele><time>2026-04-27T13:04:10.039Z</time></trkpt><trkpt lat="34.1336017" lon="-6.5538567"><ele>123.5</ele><time>2026-04-27T13:04:11.039Z</time></trkpt><trkpt lat="34.1337183" lon="-6.553775"><ele>122.25</ele><time>2026-04-27T13:04:12.039Z</time></trkpt><trkpt lat="34.1338467" lon="-6.5536933"><ele>121.0</ele><time>2026-04-27T13:04:13.039Z</time></trkpt><trkpt lat="34.133975" lon="-6.5536117"><ele>120.0</ele><time>2026-04-27T13:04:14.039Z</time></trkpt><trkpt lat="34.1341017" lon="-6.5535283"><ele>119.0</ele><time>2026-04-27T13:04:15.039Z</time></trkpt><trkpt lat="34.1342283" lon="-6.553445"><ele>118.0</ele><time>2026-04-27T13:04:16.039Z</time></trkpt><trkpt lat="34.134355" lon="-6.5533583"><ele>117.0</ele><time>2026-04-27T13:04:17.039Z</time></trkpt><trkpt lat="34.1344783" lon="-6.5532817"><ele>117.0</ele><time>2026-04-27T13:04:18.038Z</time></trkpt><trkpt lat="34.134595" lon="-6.553205"><ele>117.0</ele><time>2026-04-27T13:04:19.039Z</time></trkpt><trkpt lat="34.1346967" lon="-6.553135"><ele>117.0</ele><time>2026-04-27T13:04:20.039Z</time></trkpt><trkpt lat="34.1347983" lon="-6.5530633"><ele>117.0</ele><time>2026-04-27T13:04:21.038Z</time></trkpt><trkpt lat="34.1349017" lon="-6.5530017"><ele>117.75</ele><time>2026-04-27T13:04:22.039Z</time></trkpt><trkpt lat="34.1350117" lon="-6.5529467"><ele>118.5</ele><time>2026-04-27T13:04:23.039Z</time></trkpt><trkpt lat="34.135125" lon="-6.5528817"><ele>119.25</ele><time>2026-04-27T13:04:24.039Z</time></trkpt><trkpt lat="34.135245" lon="-6.5528"><ele>120.0</ele><time>2026-04-27T13:04:25.039Z</time></trkpt><trkpt lat="34.1353667" lon="-6.5527233"><ele>120.0</ele><time>2026-04-27T13:04:26.039Z</time></trkpt><trkpt lat="34.1354883" lon="-6.5526433"><ele>120.0</ele><time>2026-04-27T13:04:27.039Z</time></trkpt><trkpt lat="34.1356033" lon="-6.55256"><ele>120.0</ele><time>2026-04-27T13:04:28.039Z</time></trkpt><trkpt lat="34.1357183" lon="-6.5524883"><ele>120.0</ele><time>2026-04-27T13:04:29.039Z</time></trkpt><trkpt lat="34.1358283" lon="-6.5524067"><ele>120.0</ele><time>2026-04-27T13:04:30.039Z</time></trkpt><trkpt lat="34.1359383" lon="-6.5523383"><ele>120.0</ele><time>2026-04-27T13:04:31.039Z</time></trkpt><trkpt lat="34.136045" lon="-6.55226"><ele>120.0</ele><time>2026-04-27T13:04:32.039Z</time></trkpt><trkpt lat="34.1361533" lon="-6.55219"><ele>120.0</ele><time>2026-04-27T13:04:33.039Z</time></trkpt><trkpt lat="34.13626" lon="-6.55212"><ele>120.0</ele><time>2026-04-27T13:04:34.039Z</time></trkpt><trkpt lat="34.136355" lon="-6.55206"><ele>120.0</ele><time>2026-04-27T13:04:35.039Z</time></trkpt><trkpt lat="34.136455" lon="-6.5520017"><ele>120.0</ele><time>2026-04-27T13:04:36.038Z</time></trkpt><trkpt lat="34.1365517" lon="-6.5519367"><ele>120.0</ele><time>2026-04-27T13:04:37.039Z</time></trkpt><trkpt lat="34.1366417" lon="-6.5518733"><ele>120.0</ele><time>2026-04-27T13:04:38.039Z</time></trkpt><trkpt lat="34.1367117" lon="-6.5518267"><ele>120.2</ele><time>2026-04-27T13:04:39.038Z</time></trkpt><trkpt lat="34.136805" lon="-6.5517617"><ele>120.4</ele><time>2026-04-27T13:04:41.039Z</time></trkpt><trkpt lat="34.136885" lon="-6.5517017"><ele>120.6</ele><time>2026-04-27T13:04:43.039Z</time></trkpt><trkpt lat="34.1370033" lon="-6.5516483"><ele>120.8</ele><time>2026-04-27T13:04:45.039Z</time></trkpt><trkpt lat="34.13708" lon="-6.5516067"><ele>121.0</ele><time>2026-04-27T13:04:46.039Z</time></trkpt><trkpt lat="34.1371683" lon="-6.55157"><ele>121.0</ele><time>2026-04-27T13:04:47.039Z</time></trkpt><trkpt lat="34.1372683" lon="-6.5515383"><ele>121.0</ele><time>2026-04-27T13:04:48.038Z</time></trkpt><trkpt lat="34.1373717" lon="-6.5515433"><ele>121.0</ele><time>2026-04-27T13:04:49.039Z</time></trkpt><trkpt lat="34.1374867" lon="-6.5515617"><ele>121.0</ele><time>2026-04-27T13:04:50.038Z</time></trkpt><trkpt lat="34.137605" lon="-6.551595"><ele>121.0</ele><time>2026-04-27T13:04:51.039Z</time></trkpt><trkpt lat="34.1377233" lon="-6.5516267"><ele>121.5</ele><time>2026-04-27T13:04:52.038Z</time></trkpt><trkpt lat="34.1378367" lon="-6.551655"><ele>122.0</ele><time>2026-04-27T13:04:53.039Z</time></trkpt><trkpt lat="34.1379533" lon="-6.5516817"><ele>122.5</ele><time>2026-04-27T13:04:54.039Z</time></trkpt><trkpt lat="34.1380767" lon="-6.55171"><ele>123.0</ele><time>2026-04-27T13:04:55.039Z</time></trkpt><trkpt lat="34.1381967" lon="-6.55174"><ele>123.25</ele><time>2026-04-27T13:04:56.039Z</time></trkpt><trkpt lat="34.1383217" lon="-6.55177"><ele>123.5</ele><time>2026-04-27T13:04:57.039Z</time></trkpt><trkpt lat="34.13845" lon="-6.5518017"><ele>123.75</ele><time>2026-04-27T13:04:58.038Z</time></trkpt><trkpt lat="34.13858" lon="-6.551835"><ele>124.0</ele><time>2026-04-27T13:04:59.039Z</time></trkpt><trkpt lat="34.1387117" lon="-6.5518717"><ele>124.0</ele><time>2026-04-27T13:05:00.039Z</time></trkpt><trkpt lat="34.1388433" lon="-6.5519033"><ele>124.0</ele><time>2026-04-27T13:05:01.039Z</time></trkpt><trkpt lat="34.13898" lon="-6.5519333"><ele>124.0</ele><time>2026-04-27T13:05:02.039Z</time></trkpt><trkpt lat="34.139105" lon="-6.55196"><ele>124.0</ele><time>2026-04-27T13:05:03.039Z</time></trkpt><trkpt lat="34.1392267" lon="-6.551985"><ele>124.25</ele><time>2026-04-27T13:05:04.039Z</time></trkpt><trkpt lat="34.1393517" lon="-6.5519967"><ele>124.5</ele><time>2026-04-27T13:05:05.038Z</time></trkpt><trkpt lat="34.1394683" lon="-6.55201"><ele>124.75</ele><time>2026-04-27T13:05:06.038Z</time></trkpt><trkpt lat="34.139575" lon="-6.5520083"><ele>125.0</ele><time>2026-04-27T13:05:07.039Z</time></trkpt><trkpt lat="34.13968" lon="-6.5519983"><ele>125.0</ele><time>2026-04-27T13:05:08.039Z</time></trkpt><trkpt lat="34.139785" lon="-6.55199"><ele>125.0</ele><time>2026-04-27T13:05:09.039Z</time></trkpt><trkpt lat="34.139885" lon="-6.55198"><ele>125.0</ele><time>2026-04-27T13:05:10.039Z</time></trkpt><trkpt lat="34.1399933" lon="-6.5519817"><ele>125.0</ele><time>2026-04-27T13:05:11.038Z</time></trkpt><trkpt lat="34.14011" lon="-6.5519883"><ele>125.0</ele><time>2026-04-27T13:05:12.039Z</time></trkpt><trkpt lat="34.140245" lon="-6.5520017"><ele>126.0</ele><time>2026-04-27T13:05:13.039Z</time></trkpt><trkpt lat="34.1403883" lon="-6.55202"><ele>127.0</ele><time>2026-04-27T13:05:14.039Z</time></trkpt><trkpt lat="34.1405367" lon="-6.55204"><ele>128.0</ele><time>2026-04-27T13:05:15.039Z</time></trkpt><trkpt lat="34.1407033" lon="-6.5520517"><ele>128.33333333333331</ele><time>2026-04-27T13:05:16.039Z</time></trkpt><trkpt lat="34.1408783" lon="-6.5520617"><ele>128.66666666666666</ele><time>2026-04-27T13:05:17.039Z</time></trkpt><trkpt lat="34.1410633" lon="-6.5520717"><ele>129.0</ele><time>2026-04-27T13:05:18.039Z</time></trkpt><trkpt lat="34.1412517" lon="-6.5520683"><ele>129.0</ele><time>2026-04-27T13:05:19.039Z</time></trkpt><trkpt lat="34.1414217" lon="-6.55205"><ele>129.0</ele><time>2026-04-27T13:05:20.039Z</time></trkpt><trkpt lat="34.1415767" lon="-6.552015"><ele>129.0</ele><time>2026-04-27T13:05:21.039Z</time></trkpt><trkpt lat="34.1417117" lon="-6.5519783"><ele>129.5</ele><time>2026-04-27T13:05:22.039Z</time></trkpt><trkpt lat="34.141835" lon="-6.55194"><ele>130.0</ele><time>2026-04-27T13:05:23.039Z</time></trkpt><trkpt lat="34.141955" lon="-6.5519133"><ele>130.5</ele><time>2026-04-27T13:05:24.039Z</time></trkpt><trkpt lat="34.142075" lon="-6.551895"><ele>131.0</ele><time>2026-04-27T13:05:25.039Z</time></trkpt><trkpt lat="34.1422083" lon="-6.551885"><ele>131.0</ele><time>2026-04-27T13:05:26.038Z</time></trkpt><trkpt lat="34.142345" lon="-6.5518767"><ele>131.0</ele><time>2026-04-27T13:05:27.039Z</time></trkpt><trkpt lat="34.1424933" lon="-6.55186"><ele>131.0</ele><time>2026-04-27T13:05:28.039Z</time></trkpt><trkpt lat="34.14263" lon="-6.55184"><ele>131.0</ele><time>2026-04-27T13:05:29.039Z</time></trkpt><trkpt lat="34.142765" lon="-6.551825"><ele>131.25</ele><time>2026-04-27T13:05:30.039Z</time></trkpt><trkpt lat="34.1429033" lon="-6.5518133"><ele>131.5</ele><time>2026-04-27T13:05:31.039Z</time></trkpt><trkpt lat="34.1430533" lon="-6.551805"><ele>131.75</ele><time>2026-04-27T13:05:32.039Z</time></trkpt><trkpt lat="34.1432083" lon="-6.5517917"><ele>132.0</ele><time>2026-04-27T13:05:33.039Z</time></trkpt><trkpt lat="34.1433533" lon="-6.551775"><ele>131.5</ele><time>2026-04-27T13:05:34.039Z</time></trkpt><trkpt lat="34.1434933" lon="-6.551755"><ele>131.0</ele><time>2026-04-27T13:05:35.039Z</time></trkpt><trkpt lat="34.143625" lon="-6.551745"><ele>130.5</ele><time>2026-04-27T13:05:36.039Z</time></trkpt><trkpt lat="34.1437667" lon="-6.55173"><ele>130.0</ele><time>2026-04-27T13:05:37.039Z</time></trkpt><trkpt lat="34.1439017" lon="-6.5517117"><ele>130.0</ele><time>2026-04-27T13:05:38.038Z</time></trkpt><trkpt lat="34.1440267" lon="-6.5516883"><ele>130.0</ele><time>2026-04-27T13:05:39.038Z</time></trkpt><trkpt lat="34.1441667" lon="-6.55165"><ele>130.0</ele><time>2026-04-27T13:05:40.039Z</time></trkpt><trkpt lat="34.1443033" lon="-6.5515833"><ele>130.0</ele><time>2026-04-27T13:05:41.039Z</time></trkpt><trkpt lat="34.1444367" lon="-6.5515"><ele>129.0</ele><time>2026-04-27T13:05:42.039Z</time></trkpt><trkpt lat="34.1445617" lon="-6.5513967"><ele>128.0</ele><time>2026-04-27T13:05:43.039Z</time></trkpt><trkpt lat="34.1446983" lon="-6.5512867"><ele>127.0</ele><time>2026-04-27T13:05:44.038Z</time></trkpt><trkpt lat="34.1448383" lon="-6.5511933"><ele>126.33333333333334</ele><time>2026-04-27T13:05:45.038Z</time></trkpt><trkpt lat="34.14498" lon="-6.551105"><ele>125.66666666666666</ele><time>2026-04-27T13:05:46.039Z</time></trkpt><trkpt lat="34.145125" lon="-6.5510217"><ele>125.0</ele><time>2026-04-27T13:05:47.039Z</time></trkpt><trkpt lat="34.1452717" lon="-6.5509467"><ele>125.0</ele><time>2026-04-27T13:05:48.039Z</time></trkpt><trkpt lat="34.1454133" lon="-6.5508817"><ele>125.0</ele><time>2026-04-27T13:05:49.039Z</time></trkpt><trkpt lat="34.1455583" lon="-6.5507967"><ele>125.0</ele><time>2026-04-27T13:05:50.039Z</time></trkpt><trkpt lat="34.1457017" lon="-6.550705"><ele>125.33333333333333</ele><time>2026-04-27T13:05:51.039Z</time></trkpt><trkpt lat="34.145845" lon="-6.5506117"><ele>125.66666666666666</ele><time>2026-04-27T13:05:52.039Z</time></trkpt><trkpt lat="34.145975" lon="-6.5505233"><ele>126.0</ele><time>2026-04-27T13:05:53.039Z</time></trkpt><trkpt lat="34.1460917" lon="-6.5504317"><ele>125.75</ele><time>2026-04-27T13:05:54.038Z</time></trkpt><trkpt lat="34.14621" lon="-6.5503283"><ele>125.5</ele><time>2026-04-27T13:05:55.039Z</time></trkpt><trkpt lat="34.14629" lon="-6.55022"><ele>125.25</ele><time>2026-04-27T13:05:56.039Z</time></trkpt><trkpt lat="34.1463567" lon="-6.5500833"><ele>125.0</ele><time>2026-04-27T13:05:57.038Z</time></trkpt><trkpt lat="34.1464033" lon="-6.54994"><ele>125.0</ele><time>2026-04-27T13:05:58.039Z</time></trkpt><trkpt lat="34.1464417" lon="-6.5497967"><ele>125.0</ele><time>2026-04-27T13:05:59.039Z</time></trkpt><trkpt lat="34.1464783" lon="-6.5496583"><ele>125.0</ele><time>2026-04-27T13:06:00.039Z</time></trkpt><trkpt lat="34.1465133" lon="-6.549515"><ele>125.0</ele><time>2026-04-27T13:06:01.039Z</time></trkpt><trkpt lat="34.14656" lon="-6.5493667"><ele>125.25</ele><time>2026-04-27T13:06:02.039Z</time></trkpt><trkpt lat="34.1466133" lon="-6.5492133"><ele>125.5</ele><time>2026-04-27T13:06:03.038Z</time></trkpt><trkpt lat="34.1466767" lon="-6.5490617"><ele>125.75</ele><time>2026-04-27T13:06:04.039Z</time></trkpt><trkpt lat="34.1467533" lon="-6.548915"><ele>126.0</ele><time>2026-04-27T13:06:05.039Z</time></trkpt><trkpt lat="34.1468467" lon="-6.548775"><ele>126.0</ele><time>2026-04-27T13:06:06.039Z</time></trkpt><trkpt lat="34.14695" lon="-6.5486483"><ele>126.0</ele><time>2026-04-27T13:06:07.039Z</time></trkpt><trkpt lat="34.1470533" lon="-6.5485183"><ele>126.0</ele><time>2026-04-27T13:06:08.039Z</time></trkpt><trkpt lat="34.1471517" lon="-6.5483883"><ele>126.0</ele><time>2026-04-27T13:06:09.039Z</time></trkpt><trkpt lat="34.14725" lon="-6.548255"><ele>126.0</ele><time>2026-04-27T13:06:10.039Z</time></trkpt><trkpt lat="34.1473517" lon="-6.54811"><ele>126.0</ele><time>2026-04-27T13:06:11.039Z</time></trkpt><trkpt lat="34.1474483" lon="-6.5479567"><ele>126.0</ele><time>2026-04-27T13:06:12.039Z</time></trkpt><trkpt lat="34.147545" lon="-6.5477967"><ele>128.0</ele><time>2026-04-27T13:06:13.039Z</time></trkpt><trkpt lat="34.147635" lon="-6.5476317"><ele>130.0</ele><time>2026-04-27T13:06:14.039Z</time></trkpt><trkpt lat="34.1477317" lon="-6.5474667"><ele>132.0</ele><time>2026-04-27T13:06:15.039Z</time></trkpt><trkpt lat="34.14782" lon="-6.54731"><ele>132.0</ele><time>2026-04-27T13:06:16.039Z</time></trkpt><trkpt lat="34.147905" lon="-6.54714"><ele>132.0</ele><time>2026-04-27T13:06:17.039Z</time></trkpt><trkpt lat="34.1479967" lon="-6.5469933"><ele>132.0</ele><time>2026-04-27T13:06:18.039Z</time></trkpt><trkpt lat="34.148085" lon="-6.546845"><ele>132.0</ele><time>2026-04-27T13:06:19.039Z</time></trkpt><trkpt lat="34.1481733" lon="-6.546695"><ele>132.0</ele><time>2026-04-27T13:06:20.039Z</time></trkpt><trkpt lat="34.1482617" lon="-6.546545"><ele>132.0</ele><time>2026-04-27T13:06:21.039Z</time></trkpt><trkpt lat="34.1483483" lon="-6.5463867"><ele>132.0</ele><time>2026-04-27T13:06:22.039Z</time></trkpt><trkpt lat="34.148435" lon="-6.54623"><ele>132.0</ele><time>2026-04-27T13:06:23.039Z</time></trkpt><trkpt lat="34.148525" lon="-6.546085"><ele>132.0</ele><time>2026-04-27T13:06:24.039Z</time></trkpt><trkpt lat="34.1486083" lon="-6.5459517"><ele>132.0</ele><time>2026-04-27T13:06:25.039Z</time></trkpt><trkpt lat="34.1486967" lon="-6.545825"><ele>132.0</ele><time>2026-04-27T13:06:26.039Z</time></trkpt><trkpt lat="34.14879" lon="-6.5457067"><ele>132.0</ele><time>2026-04-27T13:06:27.039Z</time></trkpt><trkpt lat="34.1488833" lon="-6.5455883"><ele>132.0</ele><time>2026-04-27T13:06:28.039Z</time></trkpt><trkpt lat="34.14898" lon="-6.545475"><ele>132.0</ele><time>2026-04-27T13:06:29.038Z</time></trkpt><trkpt lat="34.1490767" lon="-6.5453517"><ele>132.5</ele><time>2026-04-27T13:06:30.039Z</time></trkpt><trkpt lat="34.14918" lon="-6.5452517"><ele>133.0</ele><time>2026-04-27T13:06:31.038Z</time></trkpt><trkpt lat="34.14929" lon="-6.54515"><ele>133.5</ele><time>2026-04-27T13:06:32.039Z</time></trkpt><trkpt lat="34.1493983" lon="-6.5450433"><ele>134.0</ele><time>2026-04-27T13:06:33.039Z</time></trkpt><trkpt lat="34.1495033" lon="-6.544935"><ele>134.0</ele><time>2026-04-27T13:06:34.039Z</time></trkpt><trkpt lat="34.1496083" lon="-6.54482"><ele>134.0</ele><time>2026-04-27T13:06:35.039Z</time></trkpt><trkpt lat="34.14971" lon="-6.5446983"><ele>134.0</ele><time>2026-04-27T13:06:36.039Z</time></trkpt><trkpt lat="34.1498217" lon="-6.5445783"><ele>134.0</ele><time>2026-04-27T13:06:37.039Z</time></trkpt><trkpt lat="34.149925" lon="-6.544465"><ele>134.25</ele><time>2026-04-27T13:06:38.039Z</time></trkpt><trkpt lat="34.1500233" lon="-6.5443583"><ele>134.5</ele><time>2026-04-27T13:06:39.039Z</time></trkpt><trkpt lat="34.1501267" lon="-6.5442617"><ele>134.75</ele><time>2026-04-27T13:06:40.039Z</time></trkpt><trkpt lat="34.1502167" lon="-6.54417"><ele>135.0</ele><time>2026-04-27T13:06:41.039Z</time></trkpt><trkpt lat="34.150305" lon="-6.544075"><ele>135.0</ele><time>2026-04-27T13:06:42.039Z</time></trkpt><trkpt lat="34.150395" lon="-6.5439733"><ele>135.0</ele><time>2026-04-27T13:06:43.039Z</time></trkpt><trkpt lat="34.1504883" lon="-6.54387"><ele>135.0</ele><time>2026-04-27T13:06:44.039Z</time></trkpt><trkpt lat="34.150585" lon="-6.543775"><ele>135.0</ele><time>2026-04-27T13:06:45.039Z</time></trkpt><trkpt lat="34.1506817" lon="-6.5436867"><ele>134.2</ele><time>2026-04-27T13:06:46.039Z</time></trkpt><trkpt lat="34.1507733" lon="-6.5436067"><ele>133.4</ele><time>2026-04-27T13:06:47.039Z</time></trkpt><trkpt lat="34.150865" lon="-6.5435317"><ele>132.6</ele><time>2026-04-27T13:06:48.039Z</time></trkpt><trkpt lat="34.150955" lon="-6.5434667"><ele>131.8</ele><time>2026-04-27T13:06:49.039Z</time></trkpt><trkpt lat="34.151045" lon="-6.543405"><ele>131.0</ele><time>2026-04-27T13:06:50.039Z</time></trkpt><trkpt lat="34.1511333" lon="-6.5433433"><ele>131.0</ele><time>2026-04-27T13:06:51.039Z</time></trkpt><trkpt lat="34.1512317" lon="-6.5432783"><ele>131.0</ele><time>2026-04-27T13:06:52.039Z</time></trkpt><trkpt lat="34.15134" lon="-6.5432167"><ele>131.0</ele><time>2026-04-27T13:06:53.039Z</time></trkpt><trkpt lat="34.1514533" lon="-6.5431483"><ele>131.0</ele><time>2026-04-27T13:06:54.039Z</time></trkpt><trkpt lat="34.1515683" lon="-6.5430867"><ele>130.25</ele><time>2026-04-27T13:06:55.039Z</time></trkpt><trkpt lat="34.1516883" lon="-6.5430317"><ele>129.5</ele><time>2026-04-27T13:06:56.039Z</time></trkpt><trkpt lat="34.1517917" lon="-6.5429833"><ele>128.75</ele><time>2026-04-27T13:06:57.039Z</time></trkpt><trkpt lat="34.1518933" lon="-6.5429417"><ele>128.0</ele><time>2026-04-27T13:06:58.039Z</time></trkpt><trkpt lat="34.1519917" lon="-6.5429033"><ele>128.0</ele><time>2026-04-27T13:06:59.039Z</time></trkpt><trkpt lat="34.1520967" lon="-6.5428733"><ele>128.0</ele><time>2026-04-27T13:07:00.039Z</time></trkpt><trkpt lat="34.1522033" lon="-6.5428517"><ele>128.0</ele><time>2026-04-27T13:07:01.038Z</time></trkpt><trkpt lat="34.1523133" lon="-6.5428333"><ele>128.0</ele><time>2026-04-27T13:07:02.039Z</time></trkpt><trkpt lat="34.1524317" lon="-6.5428183"><ele>128.0</ele><time>2026-04-27T13:07:03.038Z</time></trkpt><trkpt lat="34.1525533" lon="-6.5428117"><ele>128.0</ele><time>2026-04-27T13:07:04.039Z</time></trkpt><trkpt lat="34.15267" lon="-6.542805"><ele>128.0</ele><time>2026-04-27T13:07:05.039Z</time></trkpt><trkpt lat="34.1527967" lon="-6.542795"><ele>128.0</ele><time>2026-04-27T13:07:06.039Z</time></trkpt><trkpt lat="34.1529233" lon="-6.5427917"><ele>128.0</ele><time>2026-04-27T13:07:07.039Z</time></trkpt><trkpt lat="34.153055" lon="-6.5428"><ele>128.0</ele><time>2026-04-27T13:07:08.039Z</time></trkpt><trkpt lat="34.153195" lon="-6.5428033"><ele>128.0</ele><time>2026-04-27T13:07:09.039Z</time></trkpt><trkpt lat="34.1533267" lon="-6.5428133"><ele>128.0</ele><time>2026-04-27T13:07:10.039Z</time></trkpt><trkpt lat="34.1534583" lon="-6.54283"><ele>128.0</ele><time>2026-04-27T13:07:11.039Z</time></trkpt><trkpt lat="34.153595" lon="-6.5428483"><ele>127.75</ele><time>2026-04-27T13:07:12.039Z</time></trkpt><trkpt lat="34.1537317" lon="-6.5428733"><ele>127.5</ele><time>2026-04-27T13:07:13.039Z</time></trkpt><trkpt lat="34.1538717" lon="-6.5429017"><ele>127.25</ele><time>2026-04-27T13:07:14.039Z</time></trkpt><trkpt lat="34.1540017" lon="-6.5429217"><ele>127.0</ele><time>2026-04-27T13:07:15.039Z</time></trkpt><trkpt lat="34.154135" lon="-6.5429417"><ele>125.75</ele><time>2026-04-27T13:07:16.039Z</time></trkpt><trkpt lat="34.154265" lon="-6.542965"><ele>124.5</ele><time>2026-04-27T13:07:17.039Z</time></trkpt><trkpt lat="34.1544017" lon="-6.5429983"><ele>123.25</ele><time>2026-04-27T13:07:18.039Z</time></trkpt><trkpt lat="34.1545267" lon="-6.54304"><ele>122.0</ele><time>2026-04-27T13:07:19.039Z</time></trkpt><trkpt lat="34.1546433" lon="-6.543095"><ele>122.0</ele><time>2026-04-27T13:07:20.039Z</time></trkpt><trkpt lat="34.1547517" lon="-6.5431467"><ele>122.0</ele><time>2026-04-27T13:07:21.039Z</time></trkpt><trkpt lat="34.1548633" lon="-6.5432133"><ele>122.0</ele><time>2026-04-27T13:07:22.039Z</time></trkpt><trkpt lat="34.15499" lon="-6.5432817"><ele>122.0</ele><time>2026-04-27T13:07:23.039Z</time></trkpt><trkpt lat="34.1551117" lon="-6.54335"><ele>121.25</ele><time>2026-04-27T13:07:24.039Z</time></trkpt><trkpt lat="34.15524" lon="-6.54342"><ele>120.5</ele><time>2026-04-27T13:07:25.039Z</time></trkpt><trkpt lat="34.1553767" lon="-6.5434967"><ele>119.75</ele><time>2026-04-27T13:07:26.039Z</time></trkpt><trkpt lat="34.15551" lon="-6.5435767"><ele>119.0</ele><time>2026-04-27T13:07:27.039Z</time></trkpt><trkpt lat="34.1556417" lon="-6.5436483"><ele>119.0</ele><time>2026-04-27T13:07:28.039Z</time></trkpt><trkpt lat="34.15577" lon="-6.5437033"><ele>119.0</ele><time>2026-04-27T13:07:29.039Z</time></trkpt><trkpt lat="34.1559" lon="-6.5437467"><ele>119.0</ele><time>2026-04-27T13:07:30.039Z</time></trkpt><trkpt lat="34.15602" lon="-6.543795"><ele>119.0</ele><time>2026-04-27T13:07:31.039Z</time></trkpt><trkpt lat="34.156145" lon="-6.543855"><ele>119.25</ele><time>2026-04-27T13:07:32.039Z</time></trkpt><trkpt lat="34.1562767" lon="-6.5439133"><ele>119.5</ele><time>2026-04-27T13:07:33.039Z</time></trkpt><trkpt lat="34.1564017" lon="-6.5439667"><ele>119.75</ele><time>2026-04-27T13:07:34.039Z</time></trkpt><trkpt lat="34.1565333" lon="-6.5440233"><ele>120.0</ele><time>2026-04-27T13:07:35.038Z</time></trkpt><trkpt lat="34.1566617" lon="-6.54408"><ele>120.0</ele><time>2026-04-27T13:07:36.039Z</time></trkpt><trkpt lat="34.1567867" lon="-6.5441367"><ele>120.0</ele><time>2026-04-27T13:07:37.039Z</time></trkpt><trkpt lat="34.1569167" lon="-6.544195"><ele>120.0</ele><time>2026-04-27T13:07:38.039Z</time></trkpt><trkpt lat="34.15705" lon="-6.544255"><ele>120.0</ele><time>2026-04-27T13:07:39.038Z</time></trkpt><trkpt lat="34.157185" lon="-6.5443183"><ele>120.0</ele><time>2026-04-27T13:07:40.039Z</time></trkpt><trkpt lat="34.1573217" lon="-6.54438"><ele>120.0</ele><time>2026-04-27T13:07:41.039Z</time></trkpt><trkpt lat="34.157465" lon="-6.5444417"><ele>120.0</ele><time>2026-04-27T13:07:42.039Z</time></trkpt><trkpt lat="34.1576" lon="-6.5445033"><ele>120.0</ele><time>2026-04-27T13:07:43.039Z</time></trkpt><trkpt lat="34.1577283" lon="-6.5445683"><ele>119.75</ele><time>2026-04-27T13:07:44.039Z</time></trkpt><trkpt lat="34.1578633" lon="-6.5446433"><ele>119.5</ele><time>2026-04-27T13:07:45.039Z</time></trkpt><trkpt lat="34.158" lon="-6.5447217"><ele>119.25</ele><time>2026-04-27T13:07:46.039Z</time></trkpt><trkpt lat="34.1581317" lon="-6.5448067"><ele>119.0</ele><time>2026-04-27T13:07:47.039Z</time></trkpt><trkpt lat="34.1582683" lon="-6.5448933"><ele>119.5</ele><time>2026-04-27T13:07:48.039Z</time></trkpt><trkpt lat="34.1584017" lon="-6.544975"><ele>120.0</ele><time>2026-04-27T13:07:49.039Z</time></trkpt><trkpt lat="34.15853" lon="-6.5450567"><ele>120.5</ele><time>2026-04-27T13:07:50.039Z</time></trkpt><trkpt lat="34.1586533" lon="-6.5451367"><ele>121.0</ele><time>2026-04-27T13:07:51.038Z</time></trkpt><trkpt lat="34.158785" lon="-6.5452217"><ele>121.0</ele><time>2026-04-27T13:07:52.039Z</time></trkpt><trkpt lat="34.1589117" lon="-6.5453083"><ele>121.0</ele><time>2026-04-27T13:07:53.039Z</time></trkpt><trkpt lat="34.159035" lon="-6.5453983"><ele>121.0</ele><time>2026-04-27T13:07:54.039Z</time></trkpt><trkpt lat="34.15916" lon="-6.5454883"><ele>121.0</ele><time>2026-04-27T13:07:55.039Z</time></trkpt><trkpt lat="34.1592883" lon="-6.5455783"><ele>121.75</ele><time>2026-04-27T13:07:56.039Z</time></trkpt><trkpt lat="34.159415" lon="-6.5456683"><ele>122.5</ele><time>2026-04-27T13:07:57.039Z</time></trkpt><trkpt lat="34.1595483" lon="-6.5457567"><ele>123.25</ele><time>2026-04-27T13:07:58.039Z</time></trkpt><trkpt lat="34.1596783" lon="-6.5458383"><ele>124.0</ele><time>2026-04-27T13:07:59.039Z</time></trkpt><trkpt lat="34.1598117" lon="-6.5459067"><ele>123.75</ele><time>2026-04-27T13:08:00.038Z</time></trkpt><trkpt lat="34.1599417" lon="-6.545985"><ele>123.5</ele><time>2026-04-27T13:08:01.039Z</time></trkpt><trkpt lat="34.1600733" lon="-6.5460533"><ele>123.25</ele><time>2026-04-27T13:08:02.039Z</time></trkpt><trkpt lat="34.1602217" lon="-6.5461167"><ele>123.0</ele><time>2026-04-27T13:08:03.039Z</time></trkpt><trkpt lat="34.1603717" lon="-6.546185"><ele>122.75</ele><time>2026-04-27T13:08:04.039Z</time></trkpt><trkpt lat="34.1605083" lon="-6.5462467"><ele>122.5</ele><time>2026-04-27T13:08:05.039Z</time></trkpt><trkpt lat="34.1606433" lon="-6.546305"><ele>122.25</ele><time>2026-04-27T13:08:06.039Z</time></trkpt><trkpt lat="34.1607767" lon="-6.54636"><ele>122.0</ele><time>2026-04-27T13:08:07.039Z</time></trkpt><trkpt lat="34.1609133" lon="-6.5464117"><ele>121.75</ele><time>2026-04-27T13:08:08.039Z</time></trkpt><trkpt lat="34.1610517" lon="-6.5464667"><ele>121.5</ele><time>2026-04-27T13:08:09.039Z</time></trkpt><trkpt lat="34.1611817" lon="-6.5465233"><ele>121.25</ele><time>2026-04-27T13:08:10.039Z</time></trkpt><trkpt lat="34.1613033" lon="-6.5465867"><ele>121.0</ele><time>2026-04-27T13:08:11.039Z</time></trkpt><trkpt lat="34.1614267" lon="-6.546665"><ele>120.33333333333334</ele><time>2026-04-27T13:08:12.039Z</time></trkpt><trkpt lat="34.1615617" lon="-6.5467567"><ele>119.66666666666666</ele><time>2026-04-27T13:08:13.039Z</time></trkpt><trkpt lat="34.1617" lon="-6.546845"><ele>119.0</ele><time>2026-04-27T13:08:14.039Z</time></trkpt><trkpt lat="34.1618367" lon="-6.5469167"><ele>119.0</ele><time>2026-04-27T13:08:15.039Z</time></trkpt><trkpt lat="34.1619617" lon="-6.5469767"><ele>119.0</ele><time>2026-04-27T13:08:16.039Z</time></trkpt><trkpt lat="34.1620917" lon="-6.5470167"><ele>119.0</ele><time>2026-04-27T13:08:17.039Z</time></trkpt><trkpt lat="34.1622333" lon="-6.5470383"><ele>119.0</ele><time>2026-04-27T13:08:18.038Z</time></trkpt><trkpt lat="34.16238" lon="-6.547045"><ele>117.75</ele><time>2026-04-27T13:08:19.038Z</time></trkpt><trkpt lat="34.16253" lon="-6.547035"><ele>116.5</ele><time>2026-04-27T13:08:20.038Z</time></trkpt><trkpt lat="34.1626783" lon="-6.5470217"><ele>115.25</ele><time>2026-04-27T13:08:21.038Z</time></trkpt><trkpt lat="34.1628183" lon="-6.5470067"><ele>114.0</ele><time>2026-04-27T13:08:22.038Z</time></trkpt><trkpt lat="34.1629517" lon="-6.5469917"><ele>114.0</ele><time>2026-04-27T13:08:23.038Z</time></trkpt><trkpt lat="34.1630783" lon="-6.546985"><ele>114.0</ele><time>2026-04-27T13:08:24.038Z</time></trkpt><trkpt lat="34.1632117" lon="-6.54697"><ele>114.0</ele><time>2026-04-27T13:08:25.038Z</time></trkpt><trkpt lat="34.16336" lon="-6.5469483"><ele>114.0</ele><time>2026-04-27T13:08:26.038Z</time></trkpt><trkpt lat="34.163495" lon="-6.5469333"><ele>112.75</ele><time>2026-04-27T13:08:27.038Z</time></trkpt><trkpt lat="34.163625" lon="-6.5469067"><ele>111.5</ele><time>2026-04-27T13:08:28.037Z</time></trkpt><trkpt lat="34.163765" lon="-6.5468667"><ele>110.25</ele><time>2026-04-27T13:08:29.038Z</time></trkpt><trkpt lat="34.1638983" lon="-6.5468217"><ele>109.0</ele><time>2026-04-27T13:08:30.038Z</time></trkpt><trkpt lat="34.1640317" lon="-6.54676"><ele>107.0</ele><time>2026-04-27T13:08:31.038Z</time></trkpt><trkpt lat="34.164175" lon="-6.54668"><ele>105.0</ele><time>2026-04-27T13:08:32.038Z</time></trkpt><trkpt lat="34.1573217" lon="-6.54438"><ele>108.5</ele><time>2026-04-27T13:07:41.039Z</time></trkpt><trkpt lat="34.157465" lon="-6.5444417"><ele>112.0</ele><time>2026-04-27T13:07:42.039Z</time></trkpt><trkpt lat="34.1576" lon="-6.5445033"><ele>115.5</ele><time>2026-04-27T13:07:43.039Z</time></trkpt><trkpt lat="34.1577283" lon="-6.5445683"><ele>119.0</ele><time>2026-04-27T13:07:44.039Z</time></trkpt><trkpt lat="34.1578633" lon="-6.5446433"><ele>119.0</ele><time>2026-04-27T13:07:45.039Z</time></trkpt><trkpt lat="34.158" lon="-6.5447217"><ele>119.0</ele><time>2026-04-27T13:07:46.039Z</time></trkpt><trkpt lat="34.1581317" lon="-6.5448067"><ele>119.0</ele><time>2026-04-27T13:07:47.039Z</time></trkpt><trkpt lat="34.1582683" lon="-6.5448933"><ele>119.5</ele><time>2026-04-27T13:07:48.039Z</time></trkpt><trkpt lat="34.1584017" lon="-6.544975"><ele>120.0</ele><time>2026-04-27T13:07:49.039Z</time></trkpt><trkpt lat="34.15853" lon="-6.5450567"><ele>120.5</ele><time>2026-04-27T13:07:50.039Z</time></trkpt><trkpt lat="34.1586533" lon="-6.5451367"><ele>121.0</ele><time>2026-04-27T13:07:51.038Z</time></trkpt><trkpt lat="34.158785" lon="-6.5452217"><ele>121.0</ele><time>2026-04-27T13:07:52.039Z</time></trkpt><trkpt lat="34.1589117" lon="-6.5453083"><ele>121.0</ele><time>2026-04-27T13:07:53.039Z</time></trkpt><trkpt lat="34.159035" lon="-6.5453983"><ele>121.0</ele><time>2026-04-27T13:07:54.039Z</time></trkpt><trkpt lat="34.15916" lon="-6.5454883"><ele>121.0</ele><time>2026-04-27T13:07:55.039Z</time></trkpt><trkpt lat="34.1592883" lon="-6.5455783"><ele>121.75</ele><time>2026-04-27T13:07:56.039Z</time></trkpt><trkpt lat="34.159415" lon="-6.5456683"><ele>122.5</ele><time>2026-04-27T13:07:57.039Z</time></trkpt><trkpt lat="34.1595483" lon="-6.5457567"><ele>123.25</ele><time>2026-04-27T13:07:58.039Z</time></trkpt><trkpt lat="34.1596783" lon="-6.5458383"><ele>124.0</ele><time>2026-04-27T13:07:59.039Z</time></trkpt><trkpt lat="34.1598117" lon="-6.5459067"><ele>123.75</ele><time>2026-04-27T13:08:00.038Z</time></trkpt><trkpt lat="34.1599417" lon="-6.545985"><ele>123.5</ele><time>2026-04-27T13:08:01.039Z</time></trkpt><trkpt lat="34.1600733" lon="-6.5460533"><ele>123.25</ele><time>2026-04-27T13:08:02.039Z</time></trkpt><trkpt lat="34.1602217" lon="-6.5461167"><ele>123.0</ele><time>2026-04-27T13:08:03.039Z</time></trkpt><trkpt lat="34.1603717" lon="-6.546185"><ele>122.75</ele><time>2026-04-27T13:08:04.039Z</time></trkpt><trkpt lat="34.1605083" lon="-6.5462467"><ele>122.5</ele><time>2026-04-27T13:08:05.039Z</time></trkpt><trkpt lat="34.1606433" lon="-6.546305"><ele>122.25</ele><time>2026-04-27T13:08:06.039Z</time></trkpt><trkpt lat="34.1607767" lon="-6.54636"><ele>122.0</ele><time>2026-04-27T13:08:07.039Z</time></trkpt><trkpt lat="34.1609133" lon="-6.5464117"><ele>121.75</ele><time>2026-04-27T13:08:08.039Z</time></trkpt><trkpt lat="34.1610517" lon="-6.5464667"><ele>121.5</ele><time>2026-04-27T13:08:09.039Z</time></trkpt><trkpt lat="34.1611817" lon="-6.5465233"><ele>121.25</ele><time>2026-04-27T13:08:10.039Z</time></trkpt><trkpt lat="34.1613033" lon="-6.5465867"><ele>121.0</ele><time>2026-04-27T13:08:11.039Z</time></trkpt><trkpt lat="34.1614267" lon="-6.546665"><ele>120.33333333333334</ele><time>2026-04-27T13:08:12.039Z</time></trkpt><trkpt lat="34.1615617" lon="-6.5467567"><ele>119.66666666666666</ele><time>2026-04-27T13:08:13.039Z</time></trkpt><trkpt lat="34.1617" lon="-6.546845"><ele>119.0</ele><time>2026-04-27T13:08:14.039Z</time></trkpt><trkpt lat="34.1618367" lon="-6.5469167"><ele>119.0</ele><time>2026-04-27T13:08:15.039Z</time></trkpt><trkpt lat="34.1619617" lon="-6.5469767"><ele>119.0</ele><time>2026-04-27T13:08:16.039Z</time></trkpt><trkpt lat="34.1620917" lon="-6.5470167"><ele>119.0</ele><time>2026-04-27T13:08:17.039Z</time></trkpt><trkpt lat="34.1622333" lon="-6.5470383"><ele>119.0</ele><time>2026-04-27T13:08:18.038Z</time></trkpt><trkpt lat="34.16238" lon="-6.547045"><ele>117.75</ele><time>2026-04-27T13:08:19.038Z</time></trkpt><trkpt lat="34.16253" lon="-6.547035"><ele>116.5</ele><time>2026-04-27T13:08:20.038Z</time></trkpt><trkpt lat="34.1626783" lon="-6.5470217"><ele>115.25</ele><time>2026-04-27T13:08:21.038Z</time></trkpt><trkpt lat="34.1628183" lon="-6.5470067"><ele>114.0</ele><time>2026-04-27T13:08:22.038Z</time></trkpt><trkpt lat="34.1629517" lon="-6.5469917"><ele>114.0</ele><time>2026-04-27T13:08:23.038Z</time></trkpt><trkpt lat="34.1630783" lon="-6.546985"><ele>114.0</ele><time>2026-04-27T13:08:24.038Z</time></trkpt><trkpt lat="34.1632117" lon="-6.54697"><ele>114.0</ele><time>2026-04-27T13:08:25.038Z</time></trkpt><trkpt lat="34.16336" lon="-6.5469483"><ele>114.0</ele><time>2026-04-27T13:08:26.038Z</time></trkpt><trkpt lat="34.163495" lon="-6.5469333"><ele>112.75</ele><time>2026-04-27T13:08:27.038Z</time></trkpt><trkpt lat="34.163625" lon="-6.5469067"><ele>111.5</ele><time>2026-04-27T13:08:28.037Z</time></trkpt><trkpt lat="34.163765" lon="-6.5468667"><ele>110.25</ele><time>2026-04-27T13:08:29.038Z</time></trkpt><trkpt lat="34.1638983" lon="-6.5468217"><ele>109.0</ele><time>2026-04-27T13:08:30.038Z</time></trkpt><trkpt lat="34.1640317" lon="-6.54676"><ele>107.66666666666667</ele><time>2026-04-27T13:08:31.038Z</time></trkpt><trkpt lat="34.164175" lon="-6.54668"><ele>106.33333333333334</ele><time>2026-04-27T13:08:32.038Z</time></trkpt><trkpt lat="34.16432" lon="-6.5466083"><ele>105.0</ele><time>2026-04-27T13:08:33.038Z</time></trkpt><trkpt lat="34.1644683" lon="-6.5465467"><ele>105.0</ele><time>2026-04-27T13:08:34.038Z</time></trkpt><trkpt lat="34.1646033" lon="-6.5464683"><ele>105.0</ele><time>2026-04-27T13:08:35.038Z</time></trkpt><trkpt lat="34.164725" lon="-6.546395"><ele>105.0</ele><time>2026-04-27T13:08:36.038Z</time></trkpt><trkpt lat="34.16485" lon="-6.546325"><ele>105.0</ele><time>2026-04-27T13:08:37.038Z</time></trkpt><trkpt lat="34.1649867" lon="-6.5462483"><ele>104.0</ele><time>2026-04-27T13:08:38.038Z</time></trkpt><trkpt lat="34.1651183" lon="-6.5461767"><ele>103.0</ele><time>2026-04-27T13:08:39.038Z</time></trkpt><trkpt lat="34.1652567" lon="-6.5461033"><ele>102.0</ele><time>2026-04-27T13:08:40.038Z</time></trkpt><trkpt lat="34.1654033" lon="-6.546025"><ele>102.0</ele><time>2026-04-27T13:08:41.038Z</time></trkpt><trkpt lat="34.16553" lon="-6.54595"><ele>102.0</ele><time>2026-04-27T13:08:42.038Z</time></trkpt><trkpt lat="34.1656467" lon="-6.5458783"><ele>102.0</ele><time>2026-04-27T13:08:43.038Z</time></trkpt><trkpt lat="34.16575" lon="-6.5457967"><ele>102.0</ele><time>2026-04-27T13:08:44.038Z</time></trkpt><trkpt lat="34.1658483" lon="-6.5457067"><ele>102.25</ele><time>2026-04-27T13:08:45.038Z</time></trkpt><trkpt lat="34.1659333" lon="-6.5455917"><ele>102.5</ele><time>2026-04-27T13:08:46.038Z</time></trkpt><trkpt lat="34.166" lon="-6.545455"><ele>102.75</ele><time>2026-04-27T13:08:47.038Z</time></trkpt><trkpt lat="34.1660533" lon="-6.545315"><ele>103.0</ele><time>2026-04-27T13:08:48.038Z</time></trkpt><trkpt lat="34.1661183" lon="-6.5451683"><ele>103.0</ele><time>2026-04-27T13:08:49.038Z</time></trkpt><trkpt lat="34.1661817" lon="-6.5450117"><ele>103.0</ele><time>2026-04-27T13:08:50.038Z</time></trkpt><trkpt lat="34.1662383" lon="-6.5448467"><ele>103.0</ele><time>2026-04-27T13:08:51.038Z</time></trkpt><trkpt lat="34.1662967" lon="-6.5446817"><ele>103.0</ele><time>2026-04-27T13:08:52.038Z</time></trkpt><trkpt lat="34.1663567" lon="-6.54452"><ele>103.25</ele><time>2026-04-27T13:08:53.038Z</time></trkpt><trkpt lat="34.1664267" lon="-6.5443567"><ele>103.5</ele><time>2026-04-27T13:08:54.038Z</time></trkpt><trkpt lat="34.1665017" lon="-6.5442017"><ele>103.75</ele><time>2026-04-27T13:08:55.037Z</time></trkpt><trkpt lat="34.166575" lon="-6.5440483"><ele>104.0</ele><time>2026-04-27T13:08:56.038Z</time></trkpt><trkpt lat="34.1666517" lon="-6.5439117"><ele>104.0</ele><time>2026-04-27T13:08:57.038Z</time></trkpt><trkpt lat="34.16673" lon="-6.5437817"><ele>104.0</ele><time>2026-04-27T13:08:58.037Z</time></trkpt><trkpt lat="34.1668017" lon="-6.543645"><ele>104.0</ele><time>2026-04-27T13:08:59.038Z</time></trkpt><trkpt lat="34.16688" lon="-6.5435033"><ele>104.0</ele><time>2026-04-27T13:09:00.038Z</time></trkpt><trkpt lat="34.16697" lon="-6.5433617"><ele>104.5</ele><time>2026-04-27T13:09:01.038Z</time></trkpt><trkpt lat="34.167045" lon="-6.5432233"><ele>105.0</ele><time>2026-04-27T13:09:02.038Z</time></trkpt><trkpt lat="34.167125" lon="-6.543085"><ele>105.5</ele><time>2026-04-27T13:09:03.038Z</time></trkpt><trkpt lat="34.167205" lon="-6.5429567"><ele>106.0</ele><time>2026-04-27T13:09:04.038Z</time></trkpt><trkpt lat="34.16729" lon="-6.5428167"><ele>106.5</ele><time>2026-04-27T13:09:05.037Z</time></trkpt><trkpt lat="34.1673667" lon="-6.54268"><ele>107.0</ele><time>2026-04-27T13:09:06.038Z</time></trkpt><trkpt lat="34.1674467" lon="-6.5425433"><ele>107.5</ele><time>2026-04-27T13:09:07.038Z</time></trkpt><trkpt lat="34.1675317" lon="-6.542395"><ele>108.0</ele><time>2026-04-27T13:09:08.038Z</time></trkpt><trkpt lat="34.1676183" lon="-6.5422633"><ele>108.0</ele><time>2026-04-27T13:09:09.037Z</time></trkpt><trkpt lat="34.1677033" lon="-6.542145"><ele>108.0</ele><time>2026-04-27T13:09:10.038Z</time></trkpt><trkpt lat="34.1677817" lon="-6.5420267"><ele>108.0</ele><time>2026-04-27T13:09:11.038Z</time></trkpt><trkpt lat="34.1678717" lon="-6.5419133"><ele>108.0</ele><time>2026-04-27T13:09:12.038Z</time></trkpt><trkpt lat="34.1679583" lon="-6.5417933"><ele>107.75</ele><time>2026-04-27T13:09:13.038Z</time></trkpt><trkpt lat="34.1680467" lon="-6.541675"><ele>107.5</ele><time>2026-04-27T13:09:14.038Z</time></trkpt><trkpt lat="34.168135" lon="-6.541555"><ele>107.25</ele><time>2026-04-27T13:09:15.037Z</time></trkpt><trkpt lat="34.1682183" lon="-6.5414483"><ele>107.0</ele><time>2026-04-27T13:09:16.038Z</time></trkpt><trkpt lat="34.1683117" lon="-6.54134"><ele>107.0</ele><time>2026-04-27T13:09:17.038Z</time></trkpt><trkpt lat="34.168405" lon="-6.5412317"><ele>107.0</ele><time>2026-04-27T13:09:18.037Z</time></trkpt><trkpt lat="34.1684933" lon="-6.54112"><ele>107.0</ele><time>2026-04-27T13:09:19.037Z</time></trkpt><trkpt lat="34.1685917" lon="-6.5410183"><ele>107.0</ele><time>2026-04-27T13:09:20.038Z</time></trkpt><trkpt lat="34.1686933" lon="-6.5409083"><ele>107.0</ele><time>2026-04-27T13:09:21.038Z</time></trkpt><trkpt lat="34.16881" lon="-6.5407983"><ele>107.0</ele><time>2026-04-27T13:09:22.038Z</time></trkpt><trkpt lat="34.1689133" lon="-6.5406883"><ele>107.0</ele><time>2026-04-27T13:09:23.038Z</time></trkpt><trkpt lat="34.1690133" lon="-6.5405717"><ele>107.0</ele><time>2026-04-27T13:09:24.038Z</time></trkpt><trkpt lat="34.1691083" lon="-6.5404683"><ele>107.0</ele><time>2026-04-27T13:09:25.038Z</time></trkpt><trkpt lat="34.1692017" lon="-6.54037"><ele>107.0</ele><time>2026-04-27T13:09:26.038Z</time></trkpt><trkpt lat="34.1692983" lon="-6.5402733"><ele>107.0</ele><time>2026-04-27T13:09:27.038Z</time></trkpt><trkpt lat="34.1693967" lon="-6.540175"><ele>107.0</ele><time>2026-04-27T13:09:28.038Z</time></trkpt><trkpt lat="34.1694883" lon="-6.5400717"><ele>107.0</ele><time>2026-04-27T13:09:29.038Z</time></trkpt><trkpt lat="34.1695783" lon="-6.5399717"><ele>107.0</ele><time>2026-04-27T13:09:30.038Z</time></trkpt><trkpt lat="34.1696683" lon="-6.5398717"><ele>107.0</ele><time>2026-04-27T13:09:31.038Z</time></trkpt><trkpt lat="34.16976" lon="-6.539775"><ele>107.0</ele><time>2026-04-27T13:09:32.038Z</time></trkpt><trkpt lat="34.1698533" lon="-6.5396833"><ele>106.6</ele><time>2026-04-27T13:09:33.038Z</time></trkpt><trkpt lat="34.1699467" lon="-6.539615"><ele>106.19999999999999</ele><time>2026-04-27T13:09:34.038Z</time></trkpt><trkpt lat="34.17004" lon="-6.5395533"><ele>105.8</ele><time>2026-04-27T13:09:35.038Z</time></trkpt><trkpt lat="34.1701317" lon="-6.5395067"><ele>105.4</ele><time>2026-04-27T13:09:36.038Z</time></trkpt><trkpt lat="34.1702367" lon="-6.5394817"><ele>105.0</ele><time>2026-04-27T13:09:37.038Z</time></trkpt><trkpt lat="34.1703433" lon="-6.5394483"><ele>105.0</ele><time>2026-04-27T13:09:38.038Z</time></trkpt><trkpt lat="34.1704467" lon="-6.5394283"><ele>105.0</ele><time>2026-04-27T13:09:39.038Z</time></trkpt><trkpt lat="34.1705433" lon="-6.5394067"><ele>105.0</ele><time>2026-04-27T13:09:40.038Z</time></trkpt><trkpt lat="34.170625" lon="-6.5393917"><ele>105.0</ele><time>2026-04-27T13:09:41.038Z</time></trkpt><trkpt lat="34.1707" lon="-6.5393733"><ele>105.0</ele><time>2026-04-27T13:09:42.038Z</time></trkpt><trkpt lat="34.1707717" lon="-6.5393483"><ele>105.0</ele><time>2026-04-27T13:09:43.038Z</time></trkpt><trkpt lat="34.1708567" lon="-6.5393267"><ele>105.4</ele><time>2026-04-27T13:09:44.038Z</time></trkpt><trkpt lat="34.170955" lon="-6.539295"><ele>105.8</ele><time>2026-04-27T13:09:45.038Z</time></trkpt><trkpt lat="34.1710667" lon="-6.5392717"><ele>106.19999999999999</ele><time>2026-04-27T13:09:46.037Z</time></trkpt><trkpt lat="34.171175" lon="-6.5392367"><ele>106.6</ele><time>2026-04-27T13:09:47.038Z</time></trkpt><trkpt lat="34.1712833" lon="-6.539215"><ele>107.0</ele><time>2026-04-27T13:09:48.038Z</time></trkpt><trkpt lat="34.1713933" lon="-6.5391933"><ele>107.0</ele><time>2026-04-27T13:09:49.038Z</time></trkpt><trkpt lat="34.1715133" lon="-6.5391667"><ele>107.0</ele><time>2026-04-27T13:09:50.038Z</time></trkpt><trkpt lat="34.1716317" lon="-6.5391367"><ele>107.0</ele><time>2026-04-27T13:09:51.038Z</time></trkpt><trkpt lat="34.17175" lon="-6.5391"><ele>107.0</ele><time>2026-04-27T13:09:52.038Z</time></trkpt><trkpt lat="34.1718567" lon="-6.539075"><ele>106.6</ele><time>2026-04-27T13:09:53.038Z</time></trkpt><trkpt lat="34.1719567" lon="-6.5390517"><ele>106.19999999999999</ele><time>2026-04-27T13:09:54.038Z</time></trkpt><trkpt lat="34.1720483" lon="-6.539035"><ele>105.8</ele><time>2026-04-27T13:09:55.037Z</time></trkpt><trkpt lat="34.1721217" lon="-6.5390167"><ele>105.4</ele><time>2026-04-27T13:09:56.038Z</time></trkpt><trkpt lat="34.1722117" lon="-6.53899"><ele>105.0</ele><time>2026-04-27T13:09:58.038Z</time></trkpt><trkpt lat="34.17231" lon="-6.53897"><ele>104.6</ele><time>2026-04-27T13:10:23.038Z</time></trkpt><trkpt lat="34.1723783" lon="-6.5389433"><ele>104.2</ele><time>2026-04-27T13:10:24.038Z</time></trkpt><trkpt lat="34.1724683" lon="-6.5389133"><ele>103.80000000000001</ele><time>2026-04-27T13:10:25.038Z</time></trkpt><trkpt lat="34.1725683" lon="-6.5388933"><ele>103.4</ele><time>2026-04-27T13:10:26.038Z</time></trkpt><trkpt lat="34.1727017" lon="-6.5388867"><ele>103.0</ele><time>2026-04-27T13:10:27.037Z</time></trkpt><trkpt lat="34.172845" lon="-6.538885"><ele>103.0</ele><time>2026-04-27T13:10:28.038Z</time></trkpt><trkpt lat="34.173005" lon="-6.5388867"><ele>103.0</ele><time>2026-04-27T13:10:29.038Z</time></trkpt><trkpt lat="34.17316" lon="-6.5388867"><ele>103.0</ele><time>2026-04-27T13:10:30.038Z</time></trkpt><trkpt lat="34.1732983" lon="-6.5388833"><ele>103.75</ele><time>2026-04-27T13:10:31.038Z</time></trkpt><trkpt lat="34.1734383" lon="-6.5388833"><ele>104.5</ele><time>2026-04-27T13:10:32.038Z</time></trkpt><trkpt lat="34.1735783" lon="-6.5388867"><ele>105.25</ele><time>2026-04-27T13:10:33.037Z</time></trkpt><trkpt lat="34.1737117" lon="-6.5388883"><ele>106.0</ele><time>2026-04-27T13:10:34.038Z</time></trkpt><trkpt lat="34.173835" lon="-6.53889"><ele>106.0</ele><time>2026-04-27T13:10:35.038Z</time></trkpt><trkpt lat="34.17397" lon="-6.5388933"><ele>106.0</ele><time>2026-04-27T13:10:36.038Z</time></trkpt><trkpt lat="34.1741133" lon="-6.5388983"><ele>106.0</ele><time>2026-04-27T13:10:37.038Z</time></trkpt><trkpt lat="34.1742533" lon="-6.5388867"><ele>106.0</ele><time>2026-04-27T13:10:38.038Z</time></trkpt><trkpt lat="34.17438" lon="-6.5388517"><ele>106.0</ele><time>2026-04-27T13:10:39.038Z</time></trkpt><trkpt lat="34.1744933" lon="-6.5388083"><ele>106.0</ele><time>2026-04-27T13:10:40.038Z</time></trkpt><trkpt lat="34.174605" lon="-6.5387567"><ele>106.0</ele><time>2026-04-27T13:10:41.038Z</time></trkpt><trkpt lat="34.1747083" lon="-6.5386967"><ele>106.0</ele><time>2026-04-27T13:10:42.038Z</time></trkpt><trkpt lat="34.1748217" lon="-6.53863"><ele>106.0</ele><time>2026-04-27T13:10:43.038Z</time></trkpt><trkpt lat="34.1749417" lon="-6.5385583"><ele>106.0</ele><time>2026-04-27T13:10:44.038Z</time></trkpt><trkpt lat="34.1750733" lon="-6.5384767"><ele>106.0</ele><time>2026-04-27T13:10:45.038Z</time></trkpt><trkpt lat="34.1751967" lon="-6.5383933"><ele>106.0</ele><time>2026-04-27T13:10:46.038Z</time></trkpt><trkpt lat="34.1753233" lon="-6.5382883"><ele>106.0</ele><time>2026-04-27T13:10:47.038Z</time></trkpt><trkpt lat="34.1754633" lon="-6.53818"><ele>106.0</ele><time>2026-04-27T13:10:48.038Z</time></trkpt><trkpt lat="34.1756017" lon="-6.5380583"><ele>106.0</ele><time>2026-04-27T13:10:49.038Z</time></trkpt><trkpt lat="34.1757433" lon="-6.5379367"><ele>107.0</ele><time>2026-04-27T13:10:50.038Z</time></trkpt><trkpt lat="34.175875" lon="-6.5378233"><ele>108.0</ele><time>2026-04-27T13:10:51.037Z</time></trkpt><trkpt lat="34.1760083" lon="-6.5377133"><ele>109.0</ele><time>2026-04-27T13:10:52.038Z</time></trkpt><trkpt lat="34.176145" lon="-6.537595"><ele>109.0</ele><time>2026-04-27T13:10:53.038Z</time></trkpt><trkpt lat="34.1762817" lon="-6.537475"><ele>109.0</ele><time>2026-04-27T13:10:54.038Z</time></trkpt><trkpt lat="34.17641" lon="-6.53736"><ele>109.0</ele><time>2026-04-27T13:10:55.038Z</time></trkpt><trkpt lat="34.1765233" lon="-6.5372517"><ele>108.33333333333334</ele><time>2026-04-27T13:10:56.038Z</time></trkpt><trkpt lat="34.17665" lon="-6.5371417"><ele>107.66666666666666</ele><time>2026-04-27T13:10:57.038Z</time></trkpt><trkpt lat="34.17679" lon="-6.5370167"><ele>107.0</ele><time>2026-04-27T13:10:58.038Z</time></trkpt><trkpt lat="34.1769517" lon="-6.5368717"><ele>107.0</ele><time>2026-04-27T13:10:59.037Z</time></trkpt><trkpt lat="34.1771267" lon="-6.53672"><ele>107.0</ele><time>2026-04-27T13:11:00.038Z</time></trkpt><trkpt lat="34.1773033" lon="-6.5365517"><ele>107.0</ele><time>2026-04-27T13:11:01.038Z</time></trkpt><trkpt lat="34.1774883" lon="-6.5363867"><ele>106.66666666666666</ele><time>2026-04-27T13:11:02.038Z</time></trkpt><trkpt lat="34.17767" lon="-6.53624"><ele>106.33333333333334</ele><time>2026-04-27T13:11:03.038Z</time></trkpt><trkpt lat="34.17784" lon="-6.5361"><ele>106.0</ele><time>2026-04-27T13:11:04.038Z</time></trkpt><trkpt lat="34.17801" lon="-6.5359467"><ele>106.0</ele><time>2026-04-27T13:11:05.038Z</time></trkpt><trkpt lat="34.1781583" lon="-6.5357783"><ele>106.0</ele><time>2026-04-27T13:11:06.038Z</time></trkpt><trkpt lat="34.1783067" lon="-6.53561"><ele>106.0</ele><time>2026-04-27T13:11:07.037Z</time></trkpt><trkpt lat="34.178445" lon="-6.5354517"><ele>105.66666666666667</ele><time>2026-04-27T13:11:08.038Z</time></trkpt><trkpt lat="34.1785883" lon="-6.53531"><ele>105.33333333333334</ele><time>2026-04-27T13:11:09.038Z</time></trkpt><trkpt lat="34.1787317" lon="-6.53518"><ele>105.0</ele><time>2026-04-27T13:11:10.038Z</time></trkpt><trkpt lat="34.17886" lon="-6.5350517"><ele>105.0</ele><time>2026-04-27T13:11:11.037Z</time></trkpt><trkpt lat="34.17898" lon="-6.5349183"><ele>105.0</ele><time>2026-04-27T13:11:12.037Z</time></trkpt><trkpt lat="34.1790983" lon="-6.5347683"><ele>105.0</ele><time>2026-04-27T13:11:13.038Z</time></trkpt><trkpt lat="34.179205" lon="-6.5346183"><ele>104.0</ele><time>2026-04-27T13:11:14.038Z</time></trkpt><trkpt lat="34.1793283" lon="-6.5344683"><ele>103.0</ele><time>2026-04-27T13:11:15.038Z</time></trkpt><trkpt lat="34.179435" lon="-6.5342867"><ele>102.0</ele><time>2026-04-27T13:11:16.038Z</time></trkpt><trkpt lat="34.1795383" lon="-6.5340783"><ele>102.0</ele><time>2026-04-27T13:11:17.038Z</time></trkpt><trkpt lat="34.179655" lon="-6.5338633"><ele>102.0</ele><time>2026-04-27T13:11:18.037Z</time></trkpt><trkpt lat="34.1797733" lon="-6.5336267"><ele>102.0</ele><time>2026-04-27T13:11:19.038Z</time></trkpt><trkpt lat="34.1798833" lon="-6.5333917"><ele>102.33333333333334</ele><time>2026-04-27T13:11:20.038Z</time></trkpt><trkpt lat="34.1799817" lon="-6.5331883"><ele>102.66666666666667</ele><time>2026-04-27T13:11:21.038Z</time></trkpt><trkpt lat="34.180075" lon="-6.533"><ele>103.0</ele><time>2026-04-27T13:11:22.038Z</time></trkpt><trkpt lat="34.1801667" lon="-6.5328333"><ele>103.80000000000001</ele><time>2026-04-27T13:11:23.037Z</time></trkpt><trkpt lat="34.1802433" lon="-6.5326967"><ele>104.6</ele><time>2026-04-27T13:11:24.037Z</time></trkpt><trkpt lat="34.180315" lon="-6.5325933"><ele>105.39999999999999</ele><time>2026-04-27T13:11:25.038Z</time></trkpt><trkpt lat="34.1803833" lon="-6.5325033"><ele>106.19999999999999</ele><time>2026-04-27T13:11:26.038Z</time></trkpt><trkpt lat="34.18044" lon="-6.5324267"><ele>107.0</ele><time>2026-04-27T13:11:27.038Z</time></trkpt><trkpt lat="34.1804817" lon="-6.5323567"><ele>107.0</ele><time>2026-04-27T13:11:28.037Z</time></trkpt><trkpt lat="34.1805233" lon="-6.5322883"><ele>106.99999999999999</ele><time>2026-04-27T13:11:29.038Z</time></trkpt><trkpt lat="34.1805767" lon="-6.53221"><ele>106.99999999999999</ele><time>2026-04-27T13:11:30.037Z</time></trkpt><trkpt lat="34.1806333" lon="-6.532115"><ele>107.0</ele><time>2026-04-27T13:11:31.038Z</time></trkpt><trkpt lat="34.180695" lon="-6.5320083"><ele>107.0</ele><time>2026-04-27T13:11:32.038Z</time></trkpt><trkpt lat="34.18077" lon="-6.5318917"><ele>108.0</ele><time>2026-04-27T13:11:33.038Z</time></trkpt><trkpt lat="34.18085" lon="-6.531765"><ele>109.0</ele><time>2026-04-27T13:11:34.038Z</time></trkpt><trkpt lat="34.18094" lon="-6.5316267"><ele>110.0</ele><time>2026-04-27T13:11:35.038Z</time></trkpt><trkpt lat="34.18103" lon="-6.5314767"><ele>111.0</ele><time>2026-04-27T13:11:36.038Z</time></trkpt><trkpt lat="34.181115" lon="-6.5313367"><ele>111.0</ele><time>2026-04-27T13:11:37.038Z</time></trkpt><trkpt lat="34.1811983" lon="-6.531205"><ele>111.0</ele><time>2026-04-27T13:11:38.038Z</time></trkpt><trkpt lat="34.1812767" lon="-6.5310783"><ele>111.0</ele><time>2026-04-27T13:11:39.038Z</time></trkpt><trkpt lat="34.1813583" lon="-6.5309517"><ele>111.0</ele><time>2026-04-27T13:11:40.038Z</time></trkpt><trkpt lat="34.181435" lon="-6.5308183"><ele>111.0</ele><time>2026-04-27T13:11:41.038Z</time></trkpt><trkpt lat="34.181515" lon="-6.53068"><ele>111.0</ele><time>2026-04-27T13:11:42.038Z</time></trkpt><trkpt lat="34.18159" lon="-6.5305517"><ele>111.0</ele><time>2026-04-27T13:11:43.038Z</time></trkpt><trkpt lat="34.181665" lon="-6.5304283"><ele>111.0</ele><time>2026-04-27T13:11:44.037Z</time></trkpt><trkpt lat="34.181745" lon="-6.5303167"><ele>111.5</ele><time>2026-04-27T13:11:45.038Z</time></trkpt><trkpt lat="34.1818183" lon="-6.5302067"><ele>112.0</ele><time>2026-04-27T13:11:46.038Z</time></trkpt><trkpt lat="34.1818867" lon="-6.5301067"><ele>112.5</ele><time>2026-04-27T13:11:47.038Z</time></trkpt><trkpt lat="34.1819583" lon="-6.5299983"><ele>113.0</ele><time>2026-04-27T13:11:48.038Z</time></trkpt><trkpt lat="34.1820467" lon="-6.5298783"><ele>113.0</ele><time>2026-04-27T13:11:49.037Z</time></trkpt><trkpt lat="34.1821283" lon="-6.5297483"><ele>113.0</ele><time>2026-04-27T13:11:50.038Z</time></trkpt><trkpt lat="34.1822167" lon="-6.5296133"><ele>113.0</ele><time>2026-04-27T13:11:51.038Z</time></trkpt><trkpt lat="34.1822983" lon="-6.5294767"><ele>113.0</ele><time>2026-04-27T13:11:52.038Z</time></trkpt><trkpt lat="34.1823783" lon="-6.5293383"><ele>111.75</ele><time>2026-04-27T13:11:53.038Z</time></trkpt><trkpt lat="34.1824633" lon="-6.5291967"><ele>110.5</ele><time>2026-04-27T13:11:54.038Z</time></trkpt><trkpt lat="34.1825567" lon="-6.5290533"><ele>109.25</ele><time>2026-04-27T13:11:55.038Z</time></trkpt><trkpt lat="34.1826433" lon="-6.5289167"><ele>108.0</ele><time>2026-04-27T13:11:56.037Z</time></trkpt><trkpt lat="34.1827233" lon="-6.5287917"><ele>108.0</ele><time>2026-04-27T13:11:57.038Z</time></trkpt><trkpt lat="34.1828067" lon="-6.5286733"><ele>108.0</ele><time>2026-04-27T13:11:58.038Z</time></trkpt><trkpt lat="34.1828833" lon="-6.5285567"><ele>108.0</ele><time>2026-04-27T13:11:59.038Z</time></trkpt><trkpt lat="34.1829633" lon="-6.5284367"><ele>108.0</ele><time>2026-04-27T13:12:00.038Z</time></trkpt><trkpt lat="34.1830483" lon="-6.528315"><ele>108.0</ele><time>2026-04-27T13:12:01.038Z</time></trkpt><trkpt lat="34.183135" lon="-6.5281933"><ele>108.0</ele><time>2026-04-27T13:12:02.038Z</time></trkpt><trkpt lat="34.1832183" lon="-6.528065"><ele>108.0</ele><time>2026-04-27T13:12:03.038Z</time></trkpt><trkpt lat="34.1832983" lon="-6.5279383"><ele>108.0</ele><time>2026-04-27T13:12:04.038Z</time></trkpt><trkpt lat="34.1833833" lon="-6.5278117"><ele>108.0</ele><time>2026-04-27T13:12:05.038Z</time></trkpt><trkpt lat="34.183465" lon="-6.5276817"><ele>108.0</ele><time>2026-04-27T13:12:06.038Z</time></trkpt><trkpt lat="34.1835533" lon="-6.52757"><ele>108.0</ele><time>2026-04-27T13:12:07.038Z</time></trkpt><trkpt lat="34.1836433" lon="-6.5274583"><ele>108.0</ele><time>2026-04-27T13:12:08.038Z</time></trkpt><trkpt lat="34.1837267" lon="-6.527345"><ele>108.0</ele><time>2026-04-27T13:12:09.038Z</time></trkpt><trkpt lat="34.1838083" lon="-6.5272417"><ele>108.0</ele><time>2026-04-27T13:12:10.038Z</time></trkpt><trkpt lat="34.1838983" lon="-6.5271383"><ele>108.0</ele><time>2026-04-27T13:12:11.038Z</time></trkpt><trkpt lat="34.1839983" lon="-6.5270617"><ele>108.0</ele><time>2026-04-27T13:12:12.038Z</time></trkpt><trkpt lat="34.184095" lon="-6.5270033"><ele>107.25</ele><time>2026-04-27T13:12:13.038Z</time></trkpt><trkpt lat="34.1841967" lon="-6.5269367"><ele>106.5</ele><time>2026-04-27T13:12:14.037Z</time></trkpt><trkpt lat="34.1842983" lon="-6.5268733"><ele>105.75</ele><time>2026-04-27T13:12:15.037Z</time></trkpt><trkpt lat="34.1844083" lon="-6.5268133"><ele>105.0</ele><time>2026-04-27T13:12:16.038Z</time></trkpt><trkpt lat="34.1845283" lon="-6.526755"><ele>105.0</ele><time>2026-04-27T13:12:17.038Z</time></trkpt><trkpt lat="34.184645" lon="-6.52669"><ele>105.0</ele><time>2026-04-27T13:12:18.038Z</time></trkpt><trkpt lat="34.1847583" lon="-6.5266267"><ele>105.0</ele><time>2026-04-27T13:12:19.038Z</time></trkpt><trkpt lat="34.184865" lon="-6.526575"><ele>105.0</ele><time>2026-04-27T13:12:20.038Z</time></trkpt><trkpt lat="34.184965" lon="-6.52652"><ele>104.2</ele><time>2026-04-27T13:12:21.037Z</time></trkpt><trkpt lat="34.185065" lon="-6.5264683"><ele>103.4</ele><time>2026-04-27T13:12:22.038Z</time></trkpt><trkpt lat="34.18517" lon="-6.5264183"><ele>102.6</ele><time>2026-04-27T13:12:23.038Z</time></trkpt><trkpt lat="34.1852667" lon="-6.526365"><ele>101.8</ele><time>2026-04-27T13:12:24.038Z</time></trkpt><trkpt lat="34.1853667" lon="-6.5263167"><ele>101.0</ele><time>2026-04-27T13:12:25.038Z</time></trkpt><trkpt lat="34.18546" lon="-6.526265"><ele>101.4</ele><time>2026-04-27T13:12:26.037Z</time></trkpt><trkpt lat="34.185555" lon="-6.5262167"><ele>101.8</ele><time>2026-04-27T13:12:27.038Z</time></trkpt><trkpt lat="34.1856483" lon="-6.5261667"><ele>102.2</ele><time>2026-04-27T13:12:28.038Z</time></trkpt><trkpt lat="34.1857467" lon="-6.52611"><ele>102.60000000000001</ele><time>2026-04-27T13:12:29.037Z</time></trkpt><trkpt lat="34.1858517" lon="-6.5260567"><ele>103.0</ele><time>2026-04-27T13:12:30.038Z</time></trkpt><trkpt lat="34.1859567" lon="-6.526"><ele>103.0</ele><time>2026-04-27T13:12:31.037Z</time></trkpt><trkpt lat="34.1860683" lon="-6.5259433"><ele>103.0</ele><time>2026-04-27T13:12:32.037Z</time></trkpt><trkpt lat="34.18618" lon="-6.5258767"><ele>103.0</ele><time>2026-04-27T13:12:33.037Z</time></trkpt><trkpt lat="34.186285" lon="-6.52582"><ele>103.0</ele><time>2026-04-27T13:12:34.037Z</time></trkpt><trkpt lat="34.1863817" lon="-6.5257483"><ele>103.0</ele><time>2026-04-27T13:12:35.037Z</time></trkpt><trkpt lat="34.1864817" lon="-6.5256767"><ele>103.0</ele><time>2026-04-27T13:12:36.037Z</time></trkpt><trkpt lat="34.18658" lon="-6.5255967"><ele>103.0</ele><time>2026-04-27T13:12:37.037Z</time></trkpt><trkpt lat="34.1866767" lon="-6.5255183"><ele>103.0</ele><time>2026-04-27T13:12:38.037Z</time></trkpt><trkpt lat="34.1867817" lon="-6.5254317"><ele>102.25</ele><time>2026-04-27T13:12:39.037Z</time></trkpt><trkpt lat="34.18688" lon="-6.5253517"><ele>101.5</ele><time>2026-04-27T13:12:40.037Z</time></trkpt><trkpt lat="34.1869767" lon="-6.5252667"><ele>100.75</ele><time>2026-04-27T13:12:41.037Z</time></trkpt><trkpt lat="34.1870817" lon="-6.525185"><ele>100.0</ele><time>2026-04-27T13:12:42.036Z</time></trkpt><trkpt lat="34.1871867" lon="-6.5250933"><ele>100.0</ele><time>2026-04-27T13:12:43.037Z</time></trkpt><trkpt lat="34.1872917" lon="-6.5250017"><ele>100.0</ele><time>2026-04-27T13:12:44.037Z</time></trkpt><trkpt lat="34.187405" lon="-6.5249117"><ele>100.0</ele><time>2026-04-27T13:12:45.036Z</time></trkpt><trkpt lat="34.187515" lon="-6.52482"><ele>100.0</ele><time>2026-04-27T13:12:46.037Z</time></trkpt><trkpt lat="34.1876267" lon="-6.5247317"><ele>99.25</ele><time>2026-04-27T13:12:47.037Z</time></trkpt><trkpt lat="34.1877283" lon="-6.524635"><ele>98.5</ele><time>2026-04-27T13:12:48.037Z</time></trkpt><trkpt lat="34.1878333" lon="-6.5245433"><ele>97.75</ele><time>2026-04-27T13:12:49.037Z</time></trkpt><trkpt lat="34.1879383" lon="-6.5244517"><ele>97.0</ele><time>2026-04-27T13:12:50.036Z</time></trkpt><trkpt lat="34.1880433" lon="-6.524355"><ele>96.75</ele><time>2026-04-27T13:12:51.037Z</time></trkpt><trkpt lat="34.1881533" lon="-6.524255"><ele>96.5</ele><time>2026-04-27T13:12:52.037Z</time></trkpt><trkpt lat="34.18825" lon="-6.52415"><ele>96.25</ele><time>2026-04-27T13:12:53.037Z</time></trkpt><trkpt lat="34.1883483" lon="-6.52406"><ele>96.0</ele><time>2026-04-27T13:12:54.037Z</time></trkpt><trkpt lat="34.188445" lon="-6.52397"><ele>95.25</ele><time>2026-04-27T13:12:55.037Z</time></trkpt><trkpt lat="34.1885517" lon="-6.5238783"><ele>94.5</ele><time>2026-04-27T13:12:56.036Z</time></trkpt><trkpt lat="34.188655" lon="-6.5237933"><ele>93.75</ele><time>2026-04-27T13:12:57.037Z</time></trkpt><trkpt lat="34.1887683" lon="-6.5237"><ele>93.0</ele><time>2026-04-27T13:12:58.037Z</time></trkpt><trkpt lat="34.1888733" lon="-6.5236067"><ele>93.0</ele><time>2026-04-27T13:12:59.037Z</time></trkpt><trkpt lat="34.188975" lon="-6.5235183"><ele>93.0</ele><time>2026-04-27T13:13:00.037Z</time></trkpt><trkpt lat="34.1890767" lon="-6.5234283"><ele>93.0</ele><time>2026-04-27T13:13:01.037Z</time></trkpt><trkpt lat="34.189175" lon="-6.5233367"><ele>93.0</ele><time>2026-04-27T13:13:02.037Z</time></trkpt><trkpt lat="34.189275" lon="-6.5232483"><ele>91.5</ele><time>2026-04-27T13:13:03.037Z</time></trkpt><trkpt lat="34.1893683" lon="-6.5231617"><ele>90.0</ele><time>2026-04-27T13:13:04.037Z</time></trkpt><trkpt lat="34.18947" lon="-6.52308"><ele>88.5</ele><time>2026-04-27T13:13:05.037Z</time></trkpt><trkpt lat="34.189575" lon="-6.522995"><ele>87.0</ele><time>2026-04-27T13:13:06.037Z</time></trkpt><trkpt lat="34.1896717" lon="-6.5229"><ele>87.25</ele><time>2026-04-27T13:13:07.037Z</time></trkpt><trkpt lat="34.1897667" lon="-6.5228033"><ele>87.5</ele><time>2026-04-27T13:13:08.036Z</time></trkpt><trkpt lat="34.1898633" lon="-6.5227117"><ele>87.75</ele><time>2026-04-27T13:13:09.037Z</time></trkpt><trkpt lat="34.189955" lon="-6.52262"><ele>88.0</ele><time>2026-04-27T13:13:10.037Z</time></trkpt><trkpt lat="34.190045" lon="-6.5225333"><ele>88.0</ele><time>2026-04-27T13:13:11.037Z</time></trkpt><trkpt lat="34.1901467" lon="-6.5224467"><ele>88.0</ele><time>2026-04-27T13:13:12.037Z</time></trkpt><trkpt lat="34.1902483" lon="-6.52236"><ele>88.0</ele><time>2026-04-27T13:13:13.037Z</time></trkpt><trkpt lat="34.1903617" lon="-6.5222667"><ele>88.0</ele><time>2026-04-27T13:13:14.037Z</time></trkpt><trkpt lat="34.1904767" lon="-6.52217"><ele>88.0</ele><time>2026-04-27T13:13:15.037Z</time></trkpt><trkpt lat="34.1905883" lon="-6.5220683"><ele>88.0</ele><time>2026-04-27T13:13:16.037Z</time></trkpt><trkpt lat="34.19069" lon="-6.5219783"><ele>88.0</ele><time>2026-04-27T13:13:17.037Z</time></trkpt><trkpt lat="34.1907867" lon="-6.5218633"><ele>88.0</ele><time>2026-04-27T13:13:18.037Z</time></trkpt><trkpt lat="34.19088" lon="-6.5217367"><ele>86.5</ele><time>2026-04-27T13:13:19.036Z</time></trkpt><trkpt lat="34.1909817" lon="-6.5216183"><ele>85.0</ele><time>2026-04-27T13:13:20.037Z</time></trkpt><trkpt lat="34.1910767" lon="-6.5215067"><ele>83.5</ele><time>2026-04-27T13:13:21.037Z</time></trkpt><trkpt lat="34.1911583" lon="-6.5213883"><ele>82.0</ele><time>2026-04-27T13:13:22.037Z</time></trkpt><trkpt lat="34.1912433" lon="-6.52127"><ele>82.25</ele><time>2026-04-27T13:13:23.037Z</time></trkpt><trkpt lat="34.191335" lon="-6.52116"><ele>82.5</ele><time>2026-04-27T13:13:24.037Z</time></trkpt><trkpt lat="34.1914267" lon="-6.5210467"><ele>82.75</ele><time>2026-04-27T13:13:25.036Z</time></trkpt><trkpt lat="34.1915217" lon="-6.52093"><ele>83.0</ele><time>2026-04-27T13:13:26.036Z</time></trkpt><trkpt lat="34.1916183" lon="-6.52081"><ele>83.0</ele><time>2026-04-27T13:13:27.037Z</time></trkpt><trkpt lat="34.1917133" lon="-6.5207"><ele>83.0</ele><time>2026-04-27T13:13:28.037Z</time></trkpt><trkpt lat="34.1918067" lon="-6.5206017"><ele>83.0</ele><time>2026-04-27T13:13:29.036Z</time></trkpt><trkpt lat="34.1919117" lon="-6.520515"><ele>83.0</ele><time>2026-04-27T13:13:30.037Z</time></trkpt><trkpt lat="34.1920167" lon="-6.5204233"><ele>83.0</ele><time>2026-04-27T13:13:31.037Z</time></trkpt><trkpt lat="34.1921167" lon="-6.52033"><ele>83.0</ele><time>2026-04-27T13:13:32.037Z</time></trkpt><trkpt lat="34.1922083" lon="-6.520235"><ele>83.0</ele><time>2026-04-27T13:13:33.037Z</time></trkpt><trkpt lat="34.1922967" lon="-6.5201517"><ele>83.0</ele><time>2026-04-27T13:13:34.037Z</time></trkpt><trkpt lat="34.1923817" lon="-6.5200733"><ele>82.0</ele><time>2026-04-27T13:13:35.037Z</time></trkpt><trkpt lat="34.1924767" lon="-6.519985"><ele>81.0</ele><time>2026-04-27T13:13:36.036Z</time></trkpt><trkpt lat="34.1925617" lon="-6.519895"><ele>80.0</ele><time>2026-04-27T13:13:37.037Z</time></trkpt><trkpt lat="34.1926483" lon="-6.51981"><ele>79.0</ele><time>2026-04-27T13:13:38.037Z</time></trkpt><trkpt lat="34.192735" lon="-6.5197317"><ele>79.0</ele><time>2026-04-27T13:13:39.037Z</time></trkpt><trkpt lat="34.1928183" lon="-6.51966"><ele>79.0</ele><time>2026-04-27T13:13:40.037Z</time></trkpt><trkpt lat="34.1928983" lon="-6.5195833"><ele>79.0</ele><time>2026-04-27T13:13:41.037Z</time></trkpt><trkpt lat="34.1929833" lon="-6.5195067"><ele>79.0</ele><time>2026-04-27T13:13:42.037Z</time></trkpt><trkpt lat="34.19307" lon="-6.5194267"><ele>79.0</ele><time>2026-04-27T13:13:43.037Z</time></trkpt><trkpt lat="34.193155" lon="-6.519345"><ele>79.6</ele><time>2026-04-27T13:13:44.037Z</time></trkpt><trkpt lat="34.19323" lon="-6.5192717"><ele>80.2</ele><time>2026-04-27T13:13:45.036Z</time></trkpt><trkpt lat="34.1933117" lon="-6.5192"><ele>80.8</ele><time>2026-04-27T13:13:46.037Z</time></trkpt><trkpt lat="34.193395" lon="-6.5191283"><ele>81.39999999999999</ele><time>2026-04-27T13:13:47.037Z</time></trkpt><trkpt lat="34.1934683" lon="-6.5190567"><ele>82.0</ele><time>2026-04-27T13:13:48.037Z</time></trkpt><trkpt lat="34.1935483" lon="-6.51899"><ele>82.0</ele><time>2026-04-27T13:13:49.037Z</time></trkpt><trkpt lat="34.19363" lon="-6.5189267"><ele>82.0</ele><time>2026-04-27T13:13:50.037Z</time></trkpt><trkpt lat="34.19371" lon="-6.518855"><ele>82.0</ele><time>2026-04-27T13:13:51.037Z</time></trkpt><trkpt lat="34.193795" lon="-6.5187783"><ele>82.0</ele><time>2026-04-27T13:13:52.037Z</time></trkpt><trkpt lat="34.1938817" lon="-6.5186967"><ele>82.0</ele><time>2026-04-27T13:13:53.037Z</time></trkpt><trkpt lat="34.1939683" lon="-6.5186017"><ele>81.0</ele><time>2026-04-27T13:13:54.037Z</time></trkpt><trkpt lat="34.1940617" lon="-6.5185117"><ele>80.0</ele><time>2026-04-27T13:13:55.037Z</time></trkpt><trkpt lat="34.1941567" lon="-6.5184183"><ele>79.0</ele><time>2026-04-27T13:13:56.037Z</time></trkpt><trkpt lat="34.19425" lon="-6.5183417"><ele>78.0</ele><time>2026-04-27T13:13:57.037Z</time></trkpt><trkpt lat="34.194335" lon="-6.5182583"><ele>78.0</ele><time>2026-04-27T13:13:58.037Z</time></trkpt><trkpt lat="34.1944183" lon="-6.5181767"><ele>78.0</ele><time>2026-04-27T13:13:59.037Z</time></trkpt><trkpt lat="34.1945" lon="-6.5180867"><ele>78.0</ele><time>2026-04-27T13:14:00.037Z</time></trkpt><trkpt lat="34.1945733" lon="-6.5179933"><ele>78.0</ele><time>2026-04-27T13:14:01.037Z</time></trkpt><trkpt lat="34.1946517" lon="-6.5179017"><ele>78.0</ele><time>2026-04-27T13:14:02.037Z</time></trkpt><trkpt lat="34.1947183" lon="-6.51781"><ele>78.2</ele><time>2026-04-27T13:14:03.037Z</time></trkpt><trkpt lat="34.1947833" lon="-6.5177133"><ele>78.4</ele><time>2026-04-27T13:14:04.037Z</time></trkpt><trkpt lat="34.1948483" lon="-6.51761"><ele>78.60000000000001</ele><time>2026-04-27T13:14:05.036Z</time></trkpt><trkpt lat="34.1949117" lon="-6.517505"><ele>78.8</ele><time>2026-04-27T13:14:06.037Z</time></trkpt><trkpt lat="34.1949967" lon="-6.5173983"><ele>79.0</ele><time>2026-04-27T13:14:07.037Z</time></trkpt><trkpt lat="34.195065" lon="-6.5172833"><ele>78.5</ele><time>2026-04-27T13:14:08.036Z</time></trkpt><trkpt lat="34.195145" lon="-6.517165"><ele>78.0</ele><time>2026-04-27T13:14:09.037Z</time></trkpt><trkpt lat="34.1952133" lon="-6.5170567"><ele>77.5</ele><time>2026-04-27T13:14:10.037Z</time></trkpt><trkpt lat="34.1952833" lon="-6.516945"><ele>77.0</ele><time>2026-04-27T13:14:11.037Z</time></trkpt><trkpt lat="34.1953583" lon="-6.516825"><ele>76.5</ele><time>2026-04-27T13:14:12.037Z</time></trkpt><trkpt lat="34.195435" lon="-6.5167117"><ele>76.0</ele><time>2026-04-27T13:14:13.037Z</time></trkpt><trkpt lat="34.1955083" lon="-6.5165967"><ele>75.5</ele><time>2026-04-27T13:14:14.037Z</time></trkpt><trkpt lat="34.1955867" lon="-6.5164733"><ele>75.0</ele><time>2026-04-27T13:14:15.037Z</time></trkpt><trkpt lat="34.19567" lon="-6.5163383"><ele>73.5</ele><time>2026-04-27T13:14:16.037Z</time></trkpt><trkpt lat="34.19575" lon="-6.5162083"><ele>72.0</ele><time>2026-04-27T13:14:17.036Z</time></trkpt><trkpt lat="34.1958367" lon="-6.5160733"><ele>70.5</ele><time>2026-04-27T13:14:18.037Z</time></trkpt><trkpt lat="34.1959217" lon="-6.5159367"><ele>69.0</ele><time>2026-04-27T13:14:19.037Z</time></trkpt><trkpt lat="34.1960017" lon="-6.51581"><ele>69.0</ele><time>2026-04-27T13:14:20.037Z</time></trkpt><trkpt lat="34.19608" lon="-6.515695"><ele>69.0</ele><time>2026-04-27T13:14:21.037Z</time></trkpt><trkpt lat="34.19616" lon="-6.51559"><ele>69.0</ele><time>2026-04-27T13:14:22.037Z</time></trkpt><trkpt lat="34.1962317" lon="-6.5154783"><ele>69.0</ele><time>2026-04-27T13:14:23.037Z</time></trkpt><trkpt lat="34.1963017" lon="-6.515355"><ele>69.25</ele><time>2026-04-27T13:14:24.037Z</time></trkpt><trkpt lat="34.1963667" lon="-6.5152367"><ele>69.5</ele><time>2026-04-27T13:14:25.037Z</time></trkpt><trkpt lat="34.1964117" lon="-6.5151117"><ele>69.75</ele><time>2026-04-27T13:14:26.037Z</time></trkpt><trkpt lat="34.1964483" lon="-6.5149767"><ele>70.0</ele><time>2026-04-27T13:14:27.037Z</time></trkpt><trkpt lat="34.19647" lon="-6.514825"><ele>70.0</ele><time>2026-04-27T13:14:28.037Z</time></trkpt><trkpt lat="34.19647" lon="-6.51467"><ele>70.0</ele><time>2026-04-27T13:14:29.037Z</time></trkpt><trkpt lat="34.1964667" lon="-6.514525"><ele>70.0</ele><time>2026-04-27T13:14:30.037Z</time></trkpt><trkpt lat="34.196465" lon="-6.5143833"><ele>70.0</ele><time>2026-04-27T13:14:31.037Z</time></trkpt><trkpt lat="34.1964667" lon="-6.5142383"><ele>70.25</ele><time>2026-04-27T13:14:32.037Z</time></trkpt><trkpt lat="34.196475" lon="-6.5140883"><ele>70.5</ele><time>2026-04-27T13:14:33.036Z</time></trkpt><trkpt lat="34.1964817" lon="-6.513935"><ele>70.75</ele><time>2026-04-27T13:14:34.037Z</time></trkpt><trkpt lat="34.1964917" lon="-6.513785"><ele>71.0</ele><time>2026-04-27T13:14:35.036Z</time></trkpt><trkpt lat="34.1964983" lon="-6.5136367"><ele>71.0</ele><time>2026-04-27T13:14:36.037Z</time></trkpt><trkpt lat="34.19651" lon="-6.5134983"><ele>71.0</ele><time>2026-04-27T13:14:37.036Z</time></trkpt><trkpt lat="34.1965267" lon="-6.5133617"><ele>71.0</ele><time>2026-04-27T13:14:38.036Z</time></trkpt><trkpt lat="34.196555" lon="-6.51322"><ele>71.0</ele><time>2026-04-27T13:14:39.037Z</time></trkpt><trkpt lat="34.1965967" lon="-6.5130733"><ele>71.0</ele><time>2026-04-27T13:14:40.037Z</time></trkpt><trkpt lat="34.1966367" lon="-6.5129267"><ele>71.0</ele><time>2026-04-27T13:14:41.036Z</time></trkpt><trkpt lat="34.196685" lon="-6.5127833"><ele>71.0</ele><time>2026-04-27T13:14:42.036Z</time></trkpt><trkpt lat="34.1967333" lon="-6.5126367"><ele>71.0</ele><time>2026-04-27T13:14:43.037Z</time></trkpt><trkpt lat="34.1967833" lon="-6.5124933"><ele>70.75</ele><time>2026-04-27T13:14:44.037Z</time></trkpt><trkpt lat="34.1968283" lon="-6.5123583"><ele>70.5</ele><time>2026-04-27T13:14:45.037Z</time></trkpt><trkpt lat="34.196875" lon="-6.5122217"><ele>70.25</ele><time>2026-04-27T13:14:46.037Z</time></trkpt><trkpt lat="34.196935" lon="-6.5121033"><ele>70.0</ele><time>2026-04-27T13:14:47.037Z</time></trkpt><trkpt lat="34.1970167" lon="-6.511985"><ele>70.0</ele><time>2026-04-27T13:14:48.037Z</time></trkpt><trkpt lat="34.1971133" lon="-6.5118617"><ele>70.0</ele><time>2026-04-27T13:14:49.037Z</time></trkpt><trkpt lat="34.19722" lon="-6.5117383"><ele>70.0</ele><time>2026-04-27T13:14:50.037Z</time></trkpt><trkpt lat="34.1973217" lon="-6.5116083"><ele>70.0</ele><time>2026-04-27T13:14:51.037Z</time></trkpt><trkpt lat="34.1974283" lon="-6.51147"><ele>69.75</ele><time>2026-04-27T13:14:52.037Z</time></trkpt><trkpt lat="34.1975383" lon="-6.51135"><ele>69.5</ele><time>2026-04-27T13:14:53.037Z</time></trkpt><trkpt lat="34.1976333" lon="-6.51123"><ele>69.25</ele><time>2026-04-27T13:14:54.037Z</time></trkpt><trkpt lat="34.1977033" lon="-6.5111133"><ele>69.0</ele><time>2026-04-27T13:14:55.037Z</time></trkpt><trkpt lat="34.1977667" lon="-6.510985"><ele>69.0</ele><time>2026-04-27T13:14:56.037Z</time></trkpt><trkpt lat="34.1978233" lon="-6.5108533"><ele>69.0</ele><time>2026-04-27T13:14:57.037Z</time></trkpt><trkpt lat="34.197875" lon="-6.5107183"><ele>69.0</ele><time>2026-04-27T13:14:58.037Z</time></trkpt><trkpt lat="34.1979167" lon="-6.510595"><ele>69.0</ele><time>2026-04-27T13:14:59.037Z</time></trkpt><trkpt lat="34.1979567" lon="-6.5104767"><ele>68.75</ele><time>2026-04-27T13:15:00.037Z</time></trkpt><trkpt lat="34.1980017" lon="-6.5103633"><ele>68.5</ele><time>2026-04-27T13:15:01.037Z</time></trkpt><trkpt lat="34.1980533" lon="-6.5102467"><ele>68.25</ele><time>2026-04-27T13:15:02.037Z</time></trkpt><trkpt lat="34.1981167" lon="-6.510115"><ele>68.0</ele><time>2026-04-27T13:15:03.037Z</time></trkpt><trkpt lat="34.1981733" lon="-6.5099783"><ele>67.5</ele><time>2026-04-27T13:15:04.037Z</time></trkpt><trkpt lat="34.198235" lon="-6.5098317"><ele>67.0</ele><time>2026-04-27T13:15:05.037Z</time></trkpt><trkpt lat="34.1983017" lon="-6.5096717"><ele>66.5</ele><time>2026-04-27T13:15:06.037Z</time></trkpt><trkpt lat="34.1983617" lon="-6.5095167"><ele>66.0</ele><time>2026-04-27T13:15:07.037Z</time></trkpt><trkpt lat="34.1984167" lon="-6.5093633"><ele>66.0</ele><time>2026-04-27T13:15:08.037Z</time></trkpt><trkpt lat="34.198445" lon="-6.509215"><ele>66.0</ele><time>2026-04-27T13:15:09.037Z</time></trkpt><trkpt lat="34.1984533" lon="-6.5090717"><ele>66.0</ele><time>2026-04-27T13:15:10.037Z</time></trkpt><trkpt lat="34.1984533" lon="-6.5089217"><ele>66.0</ele><time>2026-04-27T13:15:11.037Z</time></trkpt><trkpt lat="34.1984333" lon="-6.50877"><ele>65.0</ele><time>2026-04-27T13:15:12.037Z</time></trkpt><trkpt lat="34.1984017" lon="-6.508615"><ele>64.0</ele><time>2026-04-27T13:15:13.037Z</time></trkpt><trkpt lat="34.19836" lon="-6.5084567"><ele>63.0</ele><time>2026-04-27T13:15:14.037Z</time></trkpt><trkpt lat="34.1983217" lon="-6.5082933"><ele>62.0</ele><time>2026-04-27T13:15:15.037Z</time></trkpt><trkpt lat="34.1982783" lon="-6.5081333"><ele>62.0</ele><time>2026-04-27T13:15:16.037Z</time></trkpt><trkpt lat="34.1982367" lon="-6.507985"><ele>62.0</ele><time>2026-04-27T13:15:17.037Z</time></trkpt><trkpt lat="34.1982017" lon="-6.50784"><ele>62.0</ele><time>2026-04-27T13:15:18.037Z</time></trkpt><trkpt lat="34.198165" lon="-6.5076933"><ele>62.0</ele><time>2026-04-27T13:15:19.036Z</time></trkpt><trkpt lat="34.1981283" lon="-6.5075417"><ele>62.0</ele><time>2026-04-27T13:15:20.037Z</time></trkpt><trkpt lat="34.1980817" lon="-6.507395"><ele>62.0</ele><time>2026-04-27T13:15:21.037Z</time></trkpt><trkpt lat="34.198035" lon="-6.5072567"><ele>62.0</ele><time>2026-04-27T13:15:22.037Z</time></trkpt><trkpt lat="34.1979817" lon="-6.5071283"><ele>62.0</ele><time>2026-04-27T13:15:23.036Z</time></trkpt><trkpt lat="34.1979283" lon="-6.5070033"><ele>62.0</ele><time>2026-04-27T13:15:24.037Z</time></trkpt><trkpt lat="34.19787" lon="-6.50689"><ele>62.0</ele><time>2026-04-27T13:15:25.037Z</time></trkpt><trkpt lat="34.19782" lon="-6.5067883"><ele>62.0</ele><time>2026-04-27T13:15:26.037Z</time></trkpt><trkpt lat="34.1977667" lon="-6.506705"><ele>62.0</ele><time>2026-04-27T13:15:27.037Z</time></trkpt><trkpt lat="34.1977117" lon="-6.5066267"><ele>62.0</ele><time>2026-04-27T13:15:28.037Z</time></trkpt><trkpt lat="34.1976633" lon="-6.5065583"><ele>62.00000000000001</ele><time>2026-04-27T13:15:29.037Z</time></trkpt><trkpt lat="34.1976167" lon="-6.506495"><ele>62.0</ele><time>2026-04-27T13:15:30.037Z</time></trkpt><trkpt lat="34.1975683" lon="-6.5064367"><ele>62.0</ele><time>2026-04-27T13:15:31.037Z</time></trkpt><trkpt lat="34.19752" lon="-6.5063783"><ele>62.0</ele><time>2026-04-27T13:15:32.037Z</time></trkpt><trkpt lat="34.197475" lon="-6.506325"><ele>62.00000000000001</ele><time>2026-04-27T13:15:33.037Z</time></trkpt><trkpt lat="34.1973967" lon="-6.50621"><ele>62.0</ele><time>2026-04-27T13:15:35.037Z</time></trkpt><trkpt lat="34.197355" lon="-6.5061417"><ele>62.6</ele><time>2026-04-27T13:15:36.037Z</time></trkpt><trkpt lat="34.197305" lon="-6.5060717"><ele>63.2</ele><time>2026-04-27T13:15:37.037Z</time></trkpt><trkpt lat="34.1972433" lon="-6.5059933"><ele>63.8</ele><time>2026-04-27T13:15:38.037Z</time></trkpt><trkpt lat="34.1971817" lon="-6.5059133"><ele>64.4</ele><time>2026-04-27T13:15:39.037Z</time></trkpt><trkpt lat="34.1971083" lon="-6.5058267"><ele>65.0</ele><time>2026-04-27T13:15:40.037Z</time></trkpt><trkpt lat="34.1970333" lon="-6.5057283"><ele>65.0</ele><time>2026-04-27T13:15:41.037Z</time></trkpt><trkpt lat="34.1969633" lon="-6.5056233"><ele>65.0</ele><time>2026-04-27T13:15:42.037Z</time></trkpt><trkpt lat="34.1969083" lon="-6.50553"><ele>65.0</ele><time>2026-04-27T13:15:43.037Z</time></trkpt><trkpt lat="34.1968583" lon="-6.505445"><ele>65.0</ele><time>2026-04-27T13:15:44.037Z</time></trkpt><trkpt lat="34.1968183" lon="-6.505355"><ele>65.0</ele><time>2026-04-27T13:15:45.037Z</time></trkpt><trkpt lat="34.1967917" lon="-6.50527"><ele>64.66666666666667</ele><time>2026-04-27T13:15:46.037Z</time></trkpt><trkpt lat="34.19677" lon="-6.5051817"><ele>64.33333333333334</ele><time>2026-04-27T13:15:47.037Z</time></trkpt><trkpt lat="34.1967683" lon="-6.505085"><ele>64.0</ele><time>2026-04-27T13:15:48.037Z</time></trkpt><trkpt lat="34.1967817" lon="-6.5049833"><ele>63.66666666666667</ele><time>2026-04-27T13:15:49.037Z</time></trkpt><trkpt lat="34.1968" lon="-6.5048767"><ele>63.333333333333336</ele><time>2026-04-27T13:15:50.037Z</time></trkpt><trkpt lat="34.1968267" lon="-6.5047667"><ele>63.0</ele><time>2026-04-27T13:15:51.037Z</time></trkpt><trkpt lat="34.1968467" lon="-6.5046567"><ele>63.8</ele><time>2026-04-27T13:15:52.037Z</time></trkpt><trkpt lat="34.1968667" lon="-6.5045417"><ele>64.6</ele><time>2026-04-27T13:15:53.037Z</time></trkpt><trkpt lat="34.1969" lon="-6.5044183"><ele>65.4</ele><time>2026-04-27T13:15:54.037Z</time></trkpt><trkpt lat="34.1969317" lon="-6.5042933"><ele>66.2</ele><time>2026-04-27T13:15:55.037Z</time></trkpt><trkpt lat="34.1969533" lon="-6.5041783"><ele>67.0</ele><time>2026-04-27T13:15:56.037Z</time></trkpt><trkpt lat="34.1969733" lon="-6.5040617"><ele>67.0</ele><time>2026-04-27T13:15:57.037Z</time></trkpt><trkpt lat="34.1969917" lon="-6.503945"><ele>67.0</ele><time>2026-04-27T13:15:58.037Z</time></trkpt><trkpt lat="34.1970167" lon="-6.5038333"><ele>67.0</ele><time>2026-04-27T13:15:59.037Z</time></trkpt><trkpt lat="34.19705" lon="-6.5037333"><ele>67.0</ele><time>2026-04-27T13:16:00.037Z</time></trkpt><trkpt lat="34.1970883" lon="-6.5036633"><ele>67.0</ele><time>2026-04-27T13:16:01.037Z</time></trkpt><trkpt lat="34.1971317" lon="-6.5036"><ele>67.0</ele><time>2026-04-27T13:16:02.037Z</time></trkpt><trkpt lat="34.197195" lon="-6.503555"><ele>67.2</ele><time>2026-04-27T13:16:03.037Z</time></trkpt><trkpt lat="34.1972733" lon="-6.5035183"><ele>67.4</ele><time>2026-04-27T13:16:04.037Z</time></trkpt><trkpt lat="34.1973633" lon="-6.5034867"><ele>67.6</ele><time>2026-04-27T13:16:05.037Z</time></trkpt><trkpt lat="34.1974617" lon="-6.50345"><ele>67.8</ele><time>2026-04-27T13:16:06.037Z</time></trkpt><trkpt lat="34.1975633" lon="-6.5034217"><ele>68.0</ele><time>2026-04-27T13:16:07.037Z</time></trkpt><trkpt lat="34.1976783" lon="-6.5033883"><ele>67.0</ele><time>2026-04-27T13:16:08.037Z</time></trkpt><trkpt lat="34.197795" lon="-6.5033467"><ele>66.0</ele><time>2026-04-27T13:16:09.037Z</time></trkpt><trkpt lat="34.1979083" lon="-6.5033117"><ele>65.0</ele><time>2026-04-27T13:16:10.037Z</time></trkpt><trkpt lat="34.198015" lon="-6.5032817"><ele>64.0</ele><time>2026-04-27T13:16:11.037Z</time></trkpt><trkpt lat="34.1981183" lon="-6.5032617"><ele>64.0</ele><time>2026-04-27T13:16:12.037Z</time></trkpt><trkpt lat="34.1982283" lon="-6.5032433"><ele>64.0</ele><time>2026-04-27T13:16:13.037Z</time></trkpt><trkpt lat="34.1983433" lon="-6.5032333"><ele>64.0</ele><time>2026-04-27T13:16:14.036Z</time></trkpt><trkpt lat="34.19845" lon="-6.5032283"><ele>64.0</ele><time>2026-04-27T13:16:15.037Z</time></trkpt><trkpt lat="34.19857" lon="-6.503225"><ele>64.0</ele><time>2026-04-27T13:16:16.037Z</time></trkpt><trkpt lat="34.1986867" lon="-6.50322"><ele>64.0</ele><time>2026-04-27T13:16:17.037Z</time></trkpt><trkpt lat="34.1988167" lon="-6.50321"><ele>64.0</ele><time>2026-04-27T13:16:18.036Z</time></trkpt><trkpt lat="34.1989517" lon="-6.5031933"><ele>64.0</ele><time>2026-04-27T13:16:19.037Z</time></trkpt><trkpt lat="34.199085" lon="-6.5031767"><ele>63.0</ele><time>2026-04-27T13:16:20.037Z</time></trkpt><trkpt lat="34.1992267" lon="-6.5031467"><ele>62.0</ele><time>2026-04-27T13:16:21.037Z</time></trkpt><trkpt lat="34.1993767" lon="-6.5031167"><ele>61.0</ele><time>2026-04-27T13:16:22.037Z</time></trkpt><trkpt lat="34.199525" lon="-6.5030867"><ele>60.0</ele><time>2026-04-27T13:16:23.037Z</time></trkpt><trkpt lat="34.1996783" lon="-6.5030483"><ele>60.0</ele><time>2026-04-27T13:16:24.037Z</time></trkpt><trkpt lat="34.1998233" lon="-6.503025"><ele>60.0</ele><time>2026-04-27T13:16:25.036Z</time></trkpt><trkpt lat="34.1999583" lon="-6.5030083"><ele>60.0</ele><time>2026-04-27T13:16:26.037Z</time></trkpt><trkpt lat="34.2000767" lon="-6.5030117"><ele>60.0</ele><time>2026-04-27T13:16:27.036Z</time></trkpt><trkpt lat="34.2001783" lon="-6.5030183"><ele>59.6</ele><time>2026-04-27T13:16:28.037Z</time></trkpt><trkpt lat="34.2002733" lon="-6.5030283"><ele>59.2</ele><time>2026-04-27T13:16:29.036Z</time></trkpt><trkpt lat="34.200365" lon="-6.5030433"><ele>58.8</ele><time>2026-04-27T13:16:30.037Z</time></trkpt><trkpt lat="34.20046" lon="-6.5030617"><ele>58.4</ele><time>2026-04-27T13:16:31.037Z</time></trkpt><trkpt lat="34.2005617" lon="-6.5030667"><ele>58.0</ele><time>2026-04-27T13:16:32.037Z</time></trkpt><trkpt lat="34.2006633" lon="-6.50308"><ele>57.599999999999994</ele><time>2026-04-27T13:16:33.037Z</time></trkpt><trkpt lat="34.200765" lon="-6.50309"><ele>57.199999999999996</ele><time>2026-04-27T13:16:34.037Z</time></trkpt><trkpt lat="34.2008567" lon="-6.5031017"><ele>56.8</ele><time>2026-04-27T13:16:35.037Z</time></trkpt><trkpt lat="34.2009533" lon="-6.5031083"><ele>56.4</ele><time>2026-04-27T13:16:36.037Z</time></trkpt><trkpt lat="34.2010583" lon="-6.5031133"><ele>56.0</ele><time>2026-04-27T13:16:37.037Z</time></trkpt><trkpt lat="34.20117" lon="-6.5031167"><ele>56.0</ele><time>2026-04-27T13:16:38.036Z</time></trkpt><trkpt lat="34.201275" lon="-6.5031167"><ele>55.99999999999999</ele><time>2026-04-27T13:16:39.037Z</time></trkpt><trkpt lat="34.2013767" lon="-6.5031083"><ele>55.99999999999999</ele><time>2026-04-27T13:16:40.037Z</time></trkpt><trkpt lat="34.201485" lon="-6.5031067"><ele>56.0</ele><time>2026-04-27T13:16:41.037Z</time></trkpt><trkpt lat="34.2015967" lon="-6.5031033"><ele>56.0</ele><time>2026-04-27T13:16:42.037Z</time></trkpt><trkpt lat="34.20171" lon="-6.5031033"><ele>55.5</ele><time>2026-04-27T13:16:43.037Z</time></trkpt><trkpt lat="34.201825" lon="-6.5031133"><ele>55.0</ele><time>2026-04-27T13:16:44.037Z</time></trkpt><trkpt lat="34.2019433" lon="-6.5031217"><ele>54.5</ele><time>2026-04-27T13:16:45.037Z</time></trkpt><trkpt lat="34.2020617" lon="-6.5031317"><ele>54.0</ele><time>2026-04-27T13:16:46.037Z</time></trkpt><trkpt lat="34.202185" lon="-6.5031383"><ele>54.0</ele><time>2026-04-27T13:16:47.037Z</time></trkpt><trkpt lat="34.202315" lon="-6.5031567"><ele>54.0</ele><time>2026-04-27T13:16:48.037Z</time></trkpt><trkpt lat="34.202445" lon="-6.5031783"><ele>54.0</ele><time>2026-04-27T13:16:49.037Z</time></trkpt><trkpt lat="34.2025767" lon="-6.503205"><ele>54.0</ele><time>2026-04-27T13:16:50.037Z</time></trkpt><trkpt lat="34.2027083" lon="-6.5032317"><ele>53.75</ele><time>2026-04-27T13:16:51.036Z</time></trkpt><trkpt lat="34.2028433" lon="-6.5032583"><ele>53.5</ele><time>2026-04-27T13:16:52.036Z</time></trkpt><trkpt lat="34.2029817" lon="-6.5032917"><ele>53.25</ele><time>2026-04-27T13:16:53.036Z</time></trkpt><trkpt lat="34.20312" lon="-6.503325"><ele>53.0</ele><time>2026-04-27T13:16:54.036Z</time></trkpt><trkpt lat="34.2032467" lon="-6.5033583"><ele>52.75</ele><time>2026-04-27T13:16:55.036Z</time></trkpt><trkpt lat="34.2033733" lon="-6.5033833"><ele>52.5</ele><time>2026-04-27T13:16:56.036Z</time></trkpt><trkpt lat="34.2034983" lon="-6.5033983"><ele>52.25</ele><time>2026-04-27T13:16:57.036Z</time></trkpt><trkpt lat="34.2036083" lon="-6.50341"><ele>52.0</ele><time>2026-04-27T13:16:58.036Z</time></trkpt><trkpt lat="34.203715" lon="-6.5034217"><ele>52.0</ele><time>2026-04-27T13:16:59.036Z</time></trkpt><trkpt lat="34.2038133" lon="-6.50343"><ele>52.0</ele><time>2026-04-27T13:17:00.036Z</time></trkpt><trkpt lat="34.2039117" lon="-6.50343"><ele>52.0</ele><time>2026-04-27T13:17:01.036Z</time></trkpt><trkpt lat="34.204015" lon="-6.5034233"><ele>52.0</ele><time>2026-04-27T13:17:02.035Z</time></trkpt><trkpt lat="34.204125" lon="-6.5034167"><ele>52.0</ele><time>2026-04-27T13:17:03.036Z</time></trkpt><trkpt lat="34.2042333" lon="-6.503415"><ele>51.75</ele><time>2026-04-27T13:17:04.035Z</time></trkpt><trkpt lat="34.2043483" lon="-6.5034133"><ele>51.5</ele><time>2026-04-27T13:17:05.036Z</time></trkpt><trkpt lat="34.204465" lon="-6.5034183"><ele>51.25</ele><time>2026-04-27T13:17:06.036Z</time></trkpt><trkpt lat="34.2045867" lon="-6.5034317"><ele>51.0</ele><time>2026-04-27T13:17:07.036Z</time></trkpt><trkpt lat="34.2046983" lon="-6.5034533"><ele>51.0</ele><time>2026-04-27T13:17:08.036Z</time></trkpt><trkpt lat="34.2048" lon="-6.5034767"><ele>51.0</ele><time>2026-04-27T13:17:09.036Z</time></trkpt><trkpt lat="34.2049067" lon="-6.503515"><ele>51.0</ele><time>2026-04-27T13:17:10.036Z</time></trkpt><trkpt lat="34.2050217" lon="-6.50357"><ele>51.0</ele><time>2026-04-27T13:17:11.036Z</time></trkpt><trkpt lat="34.205145" lon="-6.50363"><ele>51.25</ele><time>2026-04-27T13:17:12.036Z</time></trkpt><trkpt lat="34.205265" lon="-6.5036917"><ele>51.5</ele><time>2026-04-27T13:17:13.036Z</time></trkpt><trkpt lat="34.20538" lon="-6.5037517"><ele>51.75</ele><time>2026-04-27T13:17:14.036Z</time></trkpt><trkpt lat="34.2054867" lon="-6.50381"><ele>52.0</ele><time>2026-04-27T13:17:15.036Z</time></trkpt><trkpt lat="34.2056" lon="-6.5038717"><ele>51.0</ele><time>2026-04-27T13:17:16.036Z</time></trkpt><trkpt lat="34.20573" lon="-6.5039317"><ele>50.0</ele><time>2026-04-27T13:17:17.036Z</time></trkpt><trkpt lat="34.20587" lon="-6.5039967"><ele>49.0</ele><time>2026-04-27T13:17:18.036Z</time></trkpt><trkpt lat="34.2060133" lon="-6.504065"><ele>48.0</ele><time>2026-04-27T13:17:19.036Z</time></trkpt><trkpt lat="34.2061517" lon="-6.504125"><ele>48.0</ele><time>2026-04-27T13:17:20.036Z</time></trkpt><trkpt lat="34.206285" lon="-6.5041867"><ele>48.0</ele><time>2026-04-27T13:17:21.036Z</time></trkpt><trkpt lat="34.206405" lon="-6.5042433"><ele>48.0</ele><time>2026-04-27T13:17:22.036Z</time></trkpt><trkpt lat="34.2065317" lon="-6.5042983"><ele>48.0</ele><time>2026-04-27T13:17:23.036Z</time></trkpt><trkpt lat="34.206635" lon="-6.5043467"><ele>48.2</ele><time>2026-04-27T13:17:24.036Z</time></trkpt><trkpt lat="34.2067333" lon="-6.5043933"><ele>48.4</ele><time>2026-04-27T13:17:25.036Z</time></trkpt><trkpt lat="34.20683" lon="-6.5044383"><ele>48.6</ele><time>2026-04-27T13:17:26.036Z</time></trkpt><trkpt lat="34.2069267" lon="-6.5044783"><ele>48.800000000000004</ele><time>2026-04-27T13:17:27.036Z</time></trkpt><trkpt lat="34.2070117" lon="-6.5045217"><ele>49.0</ele><time>2026-04-27T13:17:28.036Z</time></trkpt><trkpt lat="34.20709" lon="-6.50456"><ele>48.6</ele><time>2026-04-27T13:17:29.036Z</time></trkpt><trkpt lat="34.2071667" lon="-6.50459"><ele>48.2</ele><time>2026-04-27T13:17:30.036Z</time></trkpt><trkpt lat="34.2072317" lon="-6.50461"><ele>47.800000000000004</ele><time>2026-04-27T13:17:31.036Z</time></trkpt><trkpt lat="34.2073383" lon="-6.5046317"><ele>47.400000000000006</ele><time>2026-04-27T13:17:33.035Z</time></trkpt><trkpt lat="34.2074317" lon="-6.5046533"><ele>47.0</ele><time>2026-04-27T13:17:35.036Z</time></trkpt><trkpt lat="34.2075333" lon="-6.5046783"><ele>46.666666666666664</ele><time>2026-04-27T13:17:37.036Z</time></trkpt><trkpt lat="34.2076467" lon="-6.5046867"><ele>46.33333333333333</ele><time>2026-04-27T13:17:39.036Z</time></trkpt><trkpt lat="34.207715" lon="-6.5046867"><ele>46.0</ele><time>2026-04-27T13:17:40.035Z</time></trkpt><trkpt lat="34.2077883" lon="-6.5046917"><ele>45.666666666666664</ele><time>2026-04-27T13:17:41.036Z</time></trkpt><trkpt lat="34.207855" lon="-6.5047033"><ele>45.333333333333336</ele><time>2026-04-27T13:17:42.035Z</time></trkpt><trkpt lat="34.2079217" lon="-6.504715"><ele>45.0</ele><time>2026-04-27T13:17:43.036Z</time></trkpt><trkpt lat="34.207985" lon="-6.5047217"><ele>45.0</ele><time>2026-04-27T13:17:44.036Z</time></trkpt><trkpt lat="34.2080567" lon="-6.5047317"><ele>45.0</ele><time>2026-04-27T13:17:45.035Z</time></trkpt><trkpt lat="34.2081283" lon="-6.5047383"><ele>45.0</ele><time>2026-04-27T13:17:46.036Z</time></trkpt><trkpt lat="34.2081967" lon="-6.5047483"><ele>45.0</ele><time>2026-04-27T13:17:47.036Z</time></trkpt><trkpt lat="34.2083317" lon="-6.5047767"><ele>45.0</ele><time>2026-04-27T13:17:49.036Z</time></trkpt><trkpt lat="34.2084083" lon="-6.5047917"><ele>45.0</ele><time>2026-04-27T13:17:50.036Z</time></trkpt><trkpt lat="34.2084783" lon="-6.504805"><ele>44.57142857142857</ele><time>2026-04-27T13:17:51.036Z</time></trkpt><trkpt lat="34.2085483" lon="-6.504815"><ele>44.142857142857146</ele><time>2026-04-27T13:17:52.036Z</time></trkpt><trkpt lat="34.2086183" lon="-6.5048167"><ele>43.714285714285715</ele><time>2026-04-27T13:17:53.036Z</time></trkpt><trkpt lat="34.208685" lon="-6.5048117"><ele>43.285714285714285</ele><time>2026-04-27T13:17:54.036Z</time></trkpt><trkpt lat="34.2087567" lon="-6.5048"><ele>42.85714285714286</ele><time>2026-04-27T13:17:55.036Z</time></trkpt><trkpt lat="34.2088283" lon="-6.504795"><ele>42.42857142857143</ele><time>2026-04-27T13:17:56.036Z</time></trkpt><trkpt lat="34.2089" lon="-6.504785"><ele>42.0</ele><time>2026-04-27T13:17:57.036Z</time></trkpt><trkpt lat="34.2089633" lon="-6.50477"><ele>41.57142857142857</ele><time>2026-04-27T13:17:58.036Z</time></trkpt><trkpt lat="34.2090267" lon="-6.504755"><ele>41.14285714285714</ele><time>2026-04-27T13:17:59.036Z</time></trkpt><trkpt lat="34.2090967" lon="-6.5047483"><ele>40.714285714285715</ele><time>2026-04-27T13:18:00.036Z</time></trkpt><trkpt lat="34.2091667" lon="-6.5047467"><ele>40.285714285714285</ele><time>2026-04-27T13:18:01.036Z</time></trkpt><trkpt lat="34.2092433" lon="-6.5047533"><ele>39.857142857142854</ele><time>2026-04-27T13:18:02.036Z</time></trkpt><trkpt lat="34.20932" lon="-6.5047717"><ele>39.42857142857143</ele><time>2026-04-27T13:18:03.036Z</time></trkpt><trkpt lat="34.2094" lon="-6.504795"><ele>39.0</ele><time>2026-04-27T13:18:04.036Z</time></trkpt><trkpt lat="34.2094717" lon="-6.5048233"><ele>39.0</ele><time>2026-04-27T13:18:05.036Z</time></trkpt><trkpt lat="34.20954" lon="-6.5048533"><ele>39.0</ele><time>2026-04-27T13:18:06.036Z</time></trkpt><trkpt lat="34.2096083" lon="-6.5048783"><ele>39.0</ele><time>2026-04-27T13:18:07.036Z</time></trkpt><trkpt lat="34.2096767" lon="-6.5049"><ele>39.0</ele><time>2026-04-27T13:18:08.036Z</time></trkpt><trkpt lat="34.20974" lon="-6.5049217"><ele>39.0</ele><time>2026-04-27T13:18:09.035Z</time></trkpt><trkpt lat="34.2098017" lon="-6.5049433"><ele>39.0</ele><time>2026-04-27T13:18:10.036Z</time></trkpt><trkpt lat="34.2099067" lon="-6.5049817"><ele>37.833333333333336</ele><time>2026-04-27T13:18:12.036Z</time></trkpt><trkpt lat="34.2100283" lon="-6.5050383"><ele>36.666666666666664</ele><time>2026-04-27T13:18:14.036Z</time></trkpt><trkpt lat="34.2100917" lon="-6.5050667"><ele>35.5</ele><time>2026-04-27T13:18:15.036Z</time></trkpt><trkpt lat="34.2101567" lon="-6.5050933"><ele>34.33333333333333</ele><time>2026-04-27T13:18:16.035Z</time></trkpt><trkpt lat="34.2102167" lon="-6.505125"><ele>33.166666666666664</ele><time>2026-04-27T13:18:17.036Z</time></trkpt><trkpt lat="34.2102883" lon="-6.5051517"><ele>32.0</ele><time>2026-04-27T13:18:18.036Z</time></trkpt><trkpt lat="34.2103633" lon="-6.50518"><ele>31.999999999999996</ele><time>2026-04-27T13:18:19.036Z</time></trkpt><trkpt lat="34.2104383" lon="-6.5052117"><ele>32.0</ele><time>2026-04-27T13:18:20.036Z</time></trkpt><trkpt lat="34.2105083" lon="-6.50524"><ele>32.0</ele><time>2026-04-27T13:18:21.036Z</time></trkpt><trkpt lat="34.2105783" lon="-6.505265"><ele>32.0</ele><time>2026-04-27T13:18:22.035Z</time></trkpt><trkpt lat="34.2106533" lon="-6.5052967"><ele>31.999999999999996</ele><time>2026-04-27T13:18:23.035Z</time></trkpt><trkpt lat="34.2107333" lon="-6.5053317"><ele>32.0</ele><time>2026-04-27T13:18:24.036Z</time></trkpt><trkpt lat="34.2108183" lon="-6.5053667"><ele>31.833333333333332</ele><time>2026-04-27T13:18:25.036Z</time></trkpt><trkpt lat="34.2109017" lon="-6.5053917"><ele>31.666666666666664</ele><time>2026-04-27T13:18:26.036Z</time></trkpt><trkpt lat="34.2109867" lon="-6.5054267"><ele>31.5</ele><time>2026-04-27T13:18:27.036Z</time></trkpt><trkpt lat="34.2110733" lon="-6.5054633"><ele>31.333333333333336</ele><time>2026-04-27T13:18:28.036Z</time></trkpt><trkpt lat="34.211155" lon="-6.5055017"><ele>31.166666666666668</ele><time>2026-04-27T13:18:29.036Z</time></trkpt><trkpt lat="34.2112333" lon="-6.5055367"><ele>31.0</ele><time>2026-04-27T13:18:30.036Z</time></trkpt><trkpt lat="34.2113117" lon="-6.5055733"><ele>30.666666666666668</ele><time>2026-04-27T13:18:31.036Z</time></trkpt><trkpt lat="34.2113917" lon="-6.5056133"><ele>30.333333333333336</ele><time>2026-04-27T13:18:32.036Z</time></trkpt><trkpt lat="34.2114733" lon="-6.5056483"><ele>30.0</ele><time>2026-04-27T13:18:33.036Z</time></trkpt><trkpt lat="34.211555" lon="-6.50568"><ele>29.666666666666664</ele><time>2026-04-27T13:18:34.035Z</time></trkpt><trkpt lat="34.21163" lon="-6.5057067"><ele>29.333333333333332</ele><time>2026-04-27T13:18:35.036Z</time></trkpt><trkpt lat="34.21169" lon="-6.505735"><ele>29.0</ele><time>2026-04-27T13:18:36.036Z</time></trkpt><trkpt lat="34.211755" lon="-6.505765"><ele>28.428571428571434</ele><time>2026-04-27T13:18:37.036Z</time></trkpt><trkpt lat="34.21182" lon="-6.5057967"><ele>27.857142857142858</ele><time>2026-04-27T13:18:38.036Z</time></trkpt><trkpt lat="34.2118833" lon="-6.50583"><ele>27.28571428571429</ele><time>2026-04-27T13:18:39.036Z</time></trkpt><trkpt lat="34.211945" lon="-6.5058567"><ele>26.714285714285715</ele><time>2026-04-27T13:18:40.035Z</time></trkpt><trkpt lat="34.2120117" lon="-6.505885"><ele>26.142857142857146</ele><time>2026-04-27T13:18:41.036Z</time></trkpt><trkpt lat="34.2120817" lon="-6.505915"><ele>25.571428571428573</ele><time>2026-04-27T13:18:42.036Z</time></trkpt><trkpt lat="34.2121483" lon="-6.5059517"><ele>25.0</ele><time>2026-04-27T13:18:43.036Z</time></trkpt><trkpt lat="34.2122167" lon="-6.5059883"><ele>25.000000000000004</ele><time>2026-04-27T13:18:44.036Z</time></trkpt><trkpt lat="34.2122867" lon="-6.506025"><ele>25.0</ele><time>2026-04-27T13:18:45.036Z</time></trkpt><trkpt lat="34.2123567" lon="-6.5060667"><ele>25.0</ele><time>2026-04-27T13:18:46.035Z</time></trkpt><trkpt lat="34.2124267" lon="-6.5061083"><ele>25.0</ele><time>2026-04-27T13:18:47.036Z</time></trkpt><trkpt lat="34.2124967" lon="-6.50615"><ele>25.000000000000004</ele><time>2026-04-27T13:18:48.036Z</time></trkpt><trkpt lat="34.2125667" lon="-6.5061917"><ele>25.0</ele><time>2026-04-27T13:18:49.036Z</time></trkpt><trkpt lat="34.2126367" lon="-6.5062283"><ele>25.333333333333336</ele><time>2026-04-27T13:18:50.036Z</time></trkpt><trkpt lat="34.21271" lon="-6.506265"><ele>25.666666666666668</ele><time>2026-04-27T13:18:51.036Z</time></trkpt><trkpt lat="34.2127833" lon="-6.5062967"><ele>26.0</ele><time>2026-04-27T13:18:52.036Z</time></trkpt><trkpt lat="34.2128517" lon="-6.506325"><ele>26.333333333333336</ele><time>2026-04-27T13:18:53.036Z</time></trkpt><trkpt lat="34.21291" lon="-6.506355"><ele>26.666666666666668</ele><time>2026-04-27T13:18:54.036Z</time></trkpt><trkpt lat="34.2130217" lon="-6.5064033"><ele>27.0</ele><time>2026-04-27T13:18:56.036Z</time></trkpt><trkpt lat="34.2131" lon="-6.506455"><ele>26.666666666666668</ele><time>2026-04-27T13:18:58.036Z</time></trkpt><trkpt lat="34.2131967" lon="-6.5065167"><ele>26.333333333333336</ele><time>2026-04-27T13:19:00.036Z</time></trkpt><trkpt lat="34.2132583" lon="-6.506555"><ele>26.0</ele><time>2026-04-27T13:19:01.036Z</time></trkpt><trkpt lat="34.2133317" lon="-6.5065983"><ele>25.666666666666668</ele><time>2026-04-27T13:19:02.035Z</time></trkpt><trkpt lat="34.2134083" lon="-6.5066333"><ele>25.333333333333336</ele><time>2026-04-27T13:19:03.036Z</time></trkpt><trkpt lat="34.2134933" lon="-6.506675"><ele>25.0</ele><time>2026-04-27T13:19:04.036Z</time></trkpt><trkpt lat="34.213595" lon="-6.5067183"><ele>25.0</ele><time>2026-04-27T13:19:05.036Z</time></trkpt><trkpt lat="34.2136917" lon="-6.5067583"><ele>25.0</ele><time>2026-04-27T13:19:06.036Z</time></trkpt><trkpt lat="34.2137917" lon="-6.506795"><ele>25.0</ele><time>2026-04-27T13:19:07.035Z</time></trkpt><trkpt lat="34.2138933" lon="-6.50683"><ele>25.0</ele><time>2026-04-27T13:19:08.035Z</time></trkpt><trkpt lat="34.2139817" lon="-6.50687"><ele>25.0</ele><time>2026-04-27T13:19:09.036Z</time></trkpt><trkpt lat="34.21407" lon="-6.506915"><ele>25.000000000000004</ele><time>2026-04-27T13:19:10.036Z</time></trkpt><trkpt lat="34.2141633" lon="-6.5069517"><ele>25.0</ele><time>2026-04-27T13:19:11.036Z</time></trkpt><trkpt lat="34.214255" lon="-6.506985"><ele>25.0</ele><time>2026-04-27T13:19:12.036Z</time></trkpt><trkpt lat="34.2143383" lon="-6.50701"><ele>25.0</ele><time>2026-04-27T13:19:13.035Z</time></trkpt><trkpt lat="34.2144183" lon="-6.5070367"><ele>25.000000000000004</ele><time>2026-04-27T13:19:14.036Z</time></trkpt><trkpt lat="34.2144933" lon="-6.5070667"><ele>25.0</ele><time>2026-04-27T13:19:15.036Z</time></trkpt><trkpt lat="34.21456" lon="-6.5070917"><ele>25.000000000000004</ele><time>2026-04-27T13:19:16.036Z</time></trkpt><trkpt lat="34.21463" lon="-6.507115"><ele>25.0</ele><time>2026-04-27T13:19:17.036Z</time></trkpt><trkpt lat="34.2147083" lon="-6.5071383"><ele>25.0</ele><time>2026-04-27T13:19:18.036Z</time></trkpt><trkpt lat="34.214785" lon="-6.507165"><ele>25.0</ele><time>2026-04-27T13:19:19.036Z</time></trkpt><trkpt lat="34.2148617" lon="-6.5071983"><ele>25.000000000000004</ele><time>2026-04-27T13:19:20.036Z</time></trkpt><trkpt lat="34.2149383" lon="-6.5072283"><ele>25.0</ele><time>2026-04-27T13:19:21.036Z</time></trkpt><trkpt lat="34.21502" lon="-6.5072517"><ele>25.6</ele><time>2026-04-27T13:19:22.036Z</time></trkpt><trkpt lat="34.2151067" lon="-6.5072767"><ele>26.2</ele><time>2026-04-27T13:19:23.036Z</time></trkpt><trkpt lat="34.21519" lon="-6.5073083"><ele>26.799999999999997</ele><time>2026-04-27T13:19:24.036Z</time></trkpt><trkpt lat="34.2152783" lon="-6.50734"><ele>27.4</ele><time>2026-04-27T13:19:25.036Z</time></trkpt><trkpt lat="34.2153633" lon="-6.5073767"><ele>28.0</ele><time>2026-04-27T13:19:26.036Z</time></trkpt><trkpt lat="34.2154533" lon="-6.507415"><ele>28.000000000000004</ele><time>2026-04-27T13:19:27.036Z</time></trkpt><trkpt lat="34.2155367" lon="-6.50745"><ele>28.0</ele><time>2026-04-27T13:19:28.036Z</time></trkpt><trkpt lat="34.21562" lon="-6.5074817"><ele>28.0</ele><time>2026-04-27T13:19:29.036Z</time></trkpt><trkpt lat="34.2157017" lon="-6.5075117"><ele>28.0</ele><time>2026-04-27T13:19:30.036Z</time></trkpt><trkpt lat="34.2157883" lon="-6.50754"><ele>28.000000000000004</ele><time>2026-04-27T13:19:31.036Z</time></trkpt><trkpt lat="34.21587" lon="-6.5075717"><ele>28.0</ele><time>2026-04-27T13:19:32.036Z</time></trkpt><trkpt lat="34.2159433" lon="-6.5076083"><ele>28.0</ele><time>2026-04-27T13:19:33.035Z</time></trkpt><trkpt lat="34.2160083" lon="-6.50764"><ele>27.999999999999996</ele><time>2026-04-27T13:19:34.036Z</time></trkpt><trkpt lat="34.21607" lon="-6.50767"><ele>27.999999999999996</ele><time>2026-04-27T13:19:35.036Z</time></trkpt><trkpt lat="34.21618" lon="-6.50769"><ele>28.0</ele><time>2026-04-27T13:19:37.036Z</time></trkpt><trkpt lat="34.2162783" lon="-6.507675"><ele>28.0</ele><time>2026-04-27T13:19:39.036Z</time></trkpt><trkpt lat="34.2163883" lon="-6.5077283"><ele>28.000000000000004</ele><time>2026-04-27T13:19:41.036Z</time></trkpt><trkpt lat="34.2164567" lon="-6.507785"><ele>28.0</ele><time>2026-04-27T13:19:42.036Z</time></trkpt><trkpt lat="34.21653" lon="-6.50785"><ele>28.0</ele><time>2026-04-27T13:19:43.036Z</time></trkpt><trkpt lat="34.2166" lon="-6.5078967"><ele>28.0</ele><time>2026-04-27T13:19:44.036Z</time></trkpt><trkpt lat="34.2166667" lon="-6.50793"><ele>28.000000000000004</ele><time>2026-04-27T13:19:45.036Z</time></trkpt><trkpt lat="34.21674" lon="-6.5079717"><ele>28.0</ele><time>2026-04-27T13:19:46.035Z</time></trkpt><trkpt lat="34.216805" lon="-6.5080067"><ele>28.166666666666668</ele><time>2026-04-27T13:19:47.036Z</time></trkpt><trkpt lat="34.2168683" lon="-6.5080367"><ele>28.333333333333336</ele><time>2026-04-27T13:19:48.036Z</time></trkpt><trkpt lat="34.2169367" lon="-6.50807"><ele>28.5</ele><time>2026-04-27T13:19:49.036Z</time></trkpt><trkpt lat="34.21701" lon="-6.5080983"><ele>28.666666666666664</ele><time>2026-04-27T13:19:50.036Z</time></trkpt><trkpt lat="34.2170883" lon="-6.5081267"><ele>28.833333333333332</ele><time>2026-04-27T13:19:51.036Z</time></trkpt><trkpt lat="34.2171633" lon="-6.5081567"><ele>29.0</ele><time>2026-04-27T13:19:52.036Z</time></trkpt><trkpt lat="34.21724" lon="-6.5081817"><ele>28.999999999999996</ele><time>2026-04-27T13:19:53.036Z</time></trkpt><trkpt lat="34.2173033" lon="-6.5082083"><ele>29.0</ele><time>2026-04-27T13:19:54.036Z</time></trkpt><trkpt lat="34.217365" lon="-6.5082283"><ele>29.0</ele><time>2026-04-27T13:19:55.036Z</time></trkpt><trkpt lat="34.2174333" lon="-6.508255"><ele>29.0</ele><time>2026-04-27T13:19:56.036Z</time></trkpt><trkpt lat="34.2175083" lon="-6.5082867"><ele>28.999999999999996</ele><time>2026-04-27T13:19:57.036Z</time></trkpt><trkpt lat="34.217595" lon="-6.5083217"><ele>29.0</ele><time>2026-04-27T13:19:58.036Z</time></trkpt><trkpt lat="34.217695" lon="-6.508365"><ele>28.4</ele><time>2026-04-27T13:19:59.036Z</time></trkpt><trkpt lat="34.2178017" lon="-6.50841"><ele>27.799999999999997</ele><time>2026-04-27T13:20:00.036Z</time></trkpt><trkpt lat="34.2178983" lon="-6.50845"><ele>27.200000000000003</ele><time>2026-04-27T13:20:01.035Z</time></trkpt><trkpt lat="34.21799" lon="-6.50849"><ele>26.6</ele><time>2026-04-27T13:20:02.036Z</time></trkpt><trkpt lat="34.2180767" lon="-6.508525"><ele>26.0</ele><time>2026-04-27T13:20:03.036Z</time></trkpt><trkpt lat="34.2181567" lon="-6.50856"><ele>26.0</ele><time>2026-04-27T13:20:04.036Z</time></trkpt><trkpt lat="34.2182417" lon="-6.508595"><ele>26.0</ele><time>2026-04-27T13:20:05.036Z</time></trkpt><trkpt lat="34.218335" lon="-6.5086383"><ele>26.0</ele><time>2026-04-27T13:20:06.036Z</time></trkpt><trkpt lat="34.2184433" lon="-6.5086867"><ele>26.0</ele><time>2026-04-27T13:20:07.035Z</time></trkpt><trkpt lat="34.2185433" lon="-6.508735"><ele>26.0</ele><time>2026-04-27T13:20:08.036Z</time></trkpt><trkpt lat="34.21865" lon="-6.50878"><ele>26.0</ele><time>2026-04-27T13:20:09.036Z</time></trkpt><trkpt lat="34.2187583" lon="-6.5088217"><ele>26.0</ele><time>2026-04-27T13:20:10.036Z</time></trkpt><trkpt lat="34.2188667" lon="-6.5088617"><ele>26.0</ele><time>2026-04-27T13:20:11.035Z</time></trkpt><trkpt lat="34.2189633" lon="-6.5089033"><ele>26.0</ele><time>2026-04-27T13:20:12.035Z</time></trkpt><trkpt lat="34.2190533" lon="-6.5089433"><ele>26.0</ele><time>2026-04-27T13:20:13.036Z</time></trkpt><trkpt lat="34.2191433" lon="-6.5089867"><ele>25.0</ele><time>2026-04-27T13:20:14.036Z</time></trkpt><trkpt lat="34.2192367" lon="-6.5090367"><ele>24.0</ele><time>2026-04-27T13:20:15.036Z</time></trkpt><trkpt lat="34.2193333" lon="-6.5090933"><ele>23.0</ele><time>2026-04-27T13:20:16.036Z</time></trkpt><trkpt lat="34.2194267" lon="-6.5091717"><ele>22.0</ele><time>2026-04-27T13:20:17.036Z</time></trkpt><trkpt lat="34.2195217" lon="-6.5092583"><ele>21.0</ele><time>2026-04-27T13:20:18.036Z</time></trkpt><trkpt lat="34.2196117" lon="-6.509355"><ele>21.0</ele><time>2026-04-27T13:20:19.036Z</time></trkpt><trkpt lat="34.2197017" lon="-6.5094533"><ele>21.0</ele><time>2026-04-27T13:20:20.036Z</time></trkpt><trkpt lat="34.2198" lon="-6.509555"><ele>21.0</ele><time>2026-04-27T13:20:21.036Z</time></trkpt><trkpt lat="34.2199" lon="-6.5096483"><ele>21.0</ele><time>2026-04-27T13:20:22.036Z</time></trkpt><trkpt lat="34.220005" lon="-6.50973"><ele>20.75</ele><time>2026-04-27T13:20:23.036Z</time></trkpt><trkpt lat="34.2201167" lon="-6.509805"><ele>20.5</ele><time>2026-04-27T13:20:24.036Z</time></trkpt><trkpt lat="34.2202333" lon="-6.5098667"><ele>20.25</ele><time>2026-04-27T13:20:25.036Z</time></trkpt><trkpt lat="34.2203667" lon="-6.509905"><ele>20.0</ele><time>2026-04-27T13:20:26.036Z</time></trkpt><trkpt lat="34.2205183" lon="-6.509905"><ele>21.0</ele><time>2026-04-27T13:20:27.036Z</time></trkpt><trkpt lat="34.220665" lon="-6.5098967"><ele>22.0</ele><time>2026-04-27T13:20:28.036Z</time></trkpt><trkpt lat="34.2208133" lon="-6.50987"><ele>23.0</ele><time>2026-04-27T13:20:29.036Z</time></trkpt><trkpt lat="34.2209467" lon="-6.5098433"><ele>24.0</ele><time>2026-04-27T13:20:30.036Z</time></trkpt><trkpt lat="34.2210733" lon="-6.50982"><ele>24.0</ele><time>2026-04-27T13:20:31.036Z</time></trkpt><trkpt lat="34.2211933" lon="-6.5098017"><ele>24.0</ele><time>2026-04-27T13:20:32.036Z</time></trkpt><trkpt lat="34.2213133" lon="-6.5097833"><ele>24.0</ele><time>2026-04-27T13:20:33.036Z</time></trkpt><trkpt lat="34.2214283" lon="-6.5097683"><ele>24.0</ele><time>2026-04-27T13:20:34.036Z</time></trkpt><trkpt lat="34.2215433" lon="-6.50975"><ele>24.5</ele><time>2026-04-27T13:20:35.036Z</time></trkpt><trkpt lat="34.221655" lon="-6.5097317"><ele>25.0</ele><time>2026-04-27T13:20:36.036Z</time></trkpt><trkpt lat="34.22177" lon="-6.5097133"><ele>25.5</ele><time>2026-04-27T13:20:37.036Z</time></trkpt><trkpt lat="34.22189" lon="-6.5096967"><ele>26.0</ele><time>2026-04-27T13:20:38.035Z</time></trkpt><trkpt lat="34.2220083" lon="-6.5096767"><ele>26.0</ele><time>2026-04-27T13:20:39.036Z</time></trkpt><trkpt lat="34.22213" lon="-6.5096633"><ele>26.0</ele><time>2026-04-27T13:20:40.036Z</time></trkpt><trkpt lat="34.2222567" lon="-6.5096583"><ele>26.0</ele><time>2026-04-27T13:20:41.036Z</time></trkpt><trkpt lat="34.22238" lon="-6.509675"><ele>26.0</ele><time>2026-04-27T13:20:42.036Z</time></trkpt><trkpt lat="34.22249" lon="-6.5097067"><ele>26.200000000000003</ele><time>2026-04-27T13:20:43.036Z</time></trkpt><trkpt lat="34.22258" lon="-6.50975"><ele>26.400000000000002</ele><time>2026-04-27T13:20:44.035Z</time></trkpt><trkpt lat="34.2226517" lon="-6.5098"><ele>26.6</ele><time>2026-04-27T13:20:45.035Z</time></trkpt><trkpt lat="34.2227333" lon="-6.5098617"><ele>26.8</ele><time>2026-04-27T13:20:46.036Z</time></trkpt><trkpt lat="34.222805" lon="-6.5099483"><ele>27.0</ele><time>2026-04-27T13:20:47.036Z</time></trkpt><trkpt lat="34.2228683" lon="-6.5100467"><ele>27.0</ele><time>2026-04-27T13:20:48.036Z</time></trkpt><trkpt lat="34.22293" lon="-6.5101417"><ele>27.0</ele><time>2026-04-27T13:20:49.036Z</time></trkpt><trkpt lat="34.222985" lon="-6.5102267"><ele>27.0</ele><time>2026-04-27T13:20:50.035Z</time></trkpt><trkpt lat="34.2230317" lon="-6.510315"><ele>27.0</ele><time>2026-04-27T13:20:51.036Z</time></trkpt><trkpt lat="34.22308" lon="-6.5104"><ele>27.0</ele><time>2026-04-27T13:20:52.036Z</time></trkpt><trkpt lat="34.2231233" lon="-6.510485"><ele>27.0</ele><time>2026-04-27T13:20:53.035Z</time></trkpt><trkpt lat="34.2231717" lon="-6.5105617"><ele>27.166666666666668</ele><time>2026-04-27T13:20:54.036Z</time></trkpt><trkpt lat="34.2232217" lon="-6.510635"><ele>27.333333333333336</ele><time>2026-04-27T13:20:55.035Z</time></trkpt><trkpt lat="34.223265" lon="-6.5107033"><ele>27.5</ele><time>2026-04-27T13:20:56.036Z</time></trkpt><trkpt lat="34.223305" lon="-6.5107717"><ele>27.666666666666668</ele><time>2026-04-27T13:20:57.036Z</time></trkpt><trkpt lat="34.2233467" lon="-6.5108433"><ele>27.833333333333336</ele><time>2026-04-27T13:20:58.035Z</time></trkpt><trkpt lat="34.22339" lon="-6.510925"><ele>28.0</ele><time>2026-04-27T13:20:59.036Z</time></trkpt><trkpt lat="34.2234283" lon="-6.5110117"><ele>28.0</ele><time>2026-04-27T13:21:00.036Z</time></trkpt><trkpt lat="34.223485" lon="-6.5111"><ele>27.999999999999996</ele><time>2026-04-27T13:21:01.036Z</time></trkpt><trkpt lat="34.2235367" lon="-6.5111933"><ele>27.999999999999996</ele><time>2026-04-27T13:21:02.036Z</time></trkpt><trkpt lat="34.223595" lon="-6.5112883"><ele>28.0</ele><time>2026-04-27T13:21:03.036Z</time></trkpt><trkpt lat="34.2236517" lon="-6.5113867"><ele>28.0</ele><time>2026-04-27T13:21:04.036Z</time></trkpt><trkpt lat="34.2237083" lon="-6.5114917"><ele>28.2</ele><time>2026-04-27T13:21:05.036Z</time></trkpt><trkpt lat="34.2237633" lon="-6.51159"><ele>28.4</ele><time>2026-04-27T13:21:06.035Z</time></trkpt><trkpt lat="34.2238217" lon="-6.5116767"><ele>28.599999999999998</ele><time>2026-04-27T13:21:07.035Z</time></trkpt><trkpt lat="34.2238733" lon="-6.51177"><ele>28.799999999999997</ele><time>2026-04-27T13:21:08.035Z</time></trkpt><trkpt lat="34.223925" lon="-6.5118667"><ele>29.0</ele><time>2026-04-27T13:21:09.035Z</time></trkpt><trkpt lat="34.2239767" lon="-6.5119617"><ele>29.4</ele><time>2026-04-27T13:21:10.034Z</time></trkpt><trkpt lat="34.2240283" lon="-6.5120583"><ele>29.799999999999997</ele><time>2026-04-27T13:21:11.035Z</time></trkpt><trkpt lat="34.2240783" lon="-6.5121483"><ele>30.200000000000003</ele><time>2026-04-27T13:21:12.035Z</time></trkpt><trkpt lat="34.2241267" lon="-6.5122417"><ele>30.6</ele><time>2026-04-27T13:21:13.035Z</time></trkpt><trkpt lat="34.224175" lon="-6.5123383"><ele>31.0</ele><time>2026-04-27T13:21:14.035Z</time></trkpt><trkpt lat="34.22423" lon="-6.51243"><ele>31.0</ele><time>2026-04-27T13:21:15.035Z</time></trkpt><trkpt lat="34.2242833" lon="-6.5125283"><ele>31.0</ele><time>2026-04-27T13:21:16.035Z</time></trkpt><trkpt lat="34.2243483" lon="-6.5126283"><ele>31.0</ele><time>2026-04-27T13:21:17.035Z</time></trkpt><trkpt lat="34.22441" lon="-6.51273"><ele>31.0</ele><time>2026-04-27T13:21:18.035Z</time></trkpt><trkpt lat="34.224475" lon="-6.512835"><ele>31.0</ele><time>2026-04-27T13:21:19.035Z</time></trkpt><trkpt lat="34.2245383" lon="-6.512945"><ele>30.8</ele><time>2026-04-27T13:21:20.035Z</time></trkpt><trkpt lat="34.2245967" lon="-6.513055"><ele>30.6</ele><time>2026-04-27T13:21:21.035Z</time></trkpt><trkpt lat="34.2246583" lon="-6.5131567"><ele>30.4</ele><time>2026-04-27T13:21:22.035Z</time></trkpt><trkpt lat="34.2247167" lon="-6.5132617"><ele>30.2</ele><time>2026-04-27T13:21:23.035Z</time></trkpt><trkpt lat="34.224775" lon="-6.5133717"><ele>30.0</ele><time>2026-04-27T13:21:24.035Z</time></trkpt><trkpt lat="34.22484" lon="-6.5134767"><ele>29.75</ele><time>2026-04-27T13:21:25.035Z</time></trkpt><trkpt lat="34.2249017" lon="-6.5135817"><ele>29.5</ele><time>2026-04-27T13:21:26.035Z</time></trkpt><trkpt lat="34.22496" lon="-6.5136917"><ele>29.25</ele><time>2026-04-27T13:21:27.035Z</time></trkpt><trkpt lat="34.2250317" lon="-6.5138033"><ele>29.0</ele><time>2026-04-27T13:21:28.035Z</time></trkpt><trkpt lat="34.2251" lon="-6.51392"><ele>28.75</ele><time>2026-04-27T13:21:29.035Z</time></trkpt><trkpt lat="34.2251667" lon="-6.5140433"><ele>28.5</ele><time>2026-04-27T13:21:30.035Z</time></trkpt><trkpt lat="34.225235" lon="-6.5141667"><ele>28.25</ele><time>2026-04-27T13:21:31.035Z</time></trkpt><trkpt lat="34.2253033" lon="-6.5142833"><ele>28.0</ele><time>2026-04-27T13:21:32.035Z</time></trkpt><trkpt lat="34.2253667" lon="-6.5143933"><ele>28.0</ele><time>2026-04-27T13:21:33.035Z</time></trkpt><trkpt lat="34.2254267" lon="-6.5145033"><ele>27.999999999999996</ele><time>2026-04-27T13:21:34.035Z</time></trkpt><trkpt lat="34.22549" lon="-6.5146133"><ele>27.999999999999996</ele><time>2026-04-27T13:21:35.035Z</time></trkpt><trkpt lat="34.2255533" lon="-6.5147283"><ele>28.0</ele><time>2026-04-27T13:21:36.035Z</time></trkpt><trkpt lat="34.2256167" lon="-6.5148433"><ele>28.0</ele><time>2026-04-27T13:21:37.035Z</time></trkpt><trkpt lat="34.225685" lon="-6.5149583"><ele>28.5</ele><time>2026-04-27T13:21:38.035Z</time></trkpt><trkpt lat="34.2257517" lon="-6.5150767"><ele>29.0</ele><time>2026-04-27T13:21:39.035Z</time></trkpt><trkpt lat="34.2258267" lon="-6.5151967"><ele>29.5</ele><time>2026-04-27T13:21:40.035Z</time></trkpt><trkpt lat="34.22589" lon="-6.5153117"><ele>30.0</ele><time>2026-04-27T13:21:41.035Z</time></trkpt><trkpt lat="34.2259517" lon="-6.51542"><ele>30.2</ele><time>2026-04-27T13:21:42.035Z</time></trkpt><trkpt lat="34.2260167" lon="-6.51553"><ele>30.4</ele><time>2026-04-27T13:21:43.035Z</time></trkpt><trkpt lat="34.226075" lon="-6.5156417"><ele>30.6</ele><time>2026-04-27T13:21:44.035Z</time></trkpt><trkpt lat="34.22614" lon="-6.5157517"><ele>30.8</ele><time>2026-04-27T13:21:45.035Z</time></trkpt><trkpt lat="34.2262033" lon="-6.5158617"><ele>31.0</ele><time>2026-04-27T13:21:46.035Z</time></trkpt><trkpt lat="34.2262683" lon="-6.5159767"><ele>31.0</ele><time>2026-04-27T13:21:47.035Z</time></trkpt><trkpt lat="34.2263383" lon="-6.5160917"><ele>31.0</ele><time>2026-04-27T13:21:48.034Z</time></trkpt><trkpt lat="34.226405" lon="-6.51621"><ele>31.0</ele><time>2026-04-27T13:21:49.035Z</time></trkpt><trkpt lat="34.2264733" lon="-6.5163267"><ele>31.0</ele><time>2026-04-27T13:21:50.035Z</time></trkpt><trkpt lat="34.2265383" lon="-6.516445"><ele>31.25</ele><time>2026-04-27T13:21:51.035Z</time></trkpt><trkpt lat="34.2266033" lon="-6.5165633"><ele>31.5</ele><time>2026-04-27T13:21:52.034Z</time></trkpt><trkpt lat="34.226665" lon="-6.5166833"><ele>31.75</ele><time>2026-04-27T13:21:53.035Z</time></trkpt><trkpt lat="34.22673" lon="-6.5167983"><ele>32.0</ele><time>2026-04-27T13:21:54.035Z</time></trkpt><trkpt lat="34.2267917" lon="-6.5169067"><ele>32.0</ele><time>2026-04-27T13:21:55.034Z</time></trkpt><trkpt lat="34.2268567" lon="-6.51701"><ele>32.0</ele><time>2026-04-27T13:21:56.035Z</time></trkpt><trkpt lat="34.2269217" lon="-6.5171167"><ele>32.0</ele><time>2026-04-27T13:21:57.035Z</time></trkpt><trkpt lat="34.2269833" lon="-6.5172217"><ele>32.0</ele><time>2026-04-27T13:21:58.035Z</time></trkpt><trkpt lat="34.227045" lon="-6.517335"><ele>32.0</ele><time>2026-04-27T13:21:59.035Z</time></trkpt><trkpt lat="34.22711" lon="-6.5174483"><ele>32.0</ele><time>2026-04-27T13:22:00.035Z</time></trkpt><trkpt lat="34.22718" lon="-6.51757"><ele>32.0</ele><time>2026-04-27T13:22:01.035Z</time></trkpt><trkpt lat="34.227255" lon="-6.517695"><ele>32.0</ele><time>2026-04-27T13:22:02.035Z</time></trkpt><trkpt lat="34.2273317" lon="-6.517825"><ele>32.0</ele><time>2026-04-27T13:22:03.035Z</time></trkpt><trkpt lat="34.2274033" lon="-6.5179583"><ele>31.0</ele><time>2026-04-27T13:22:04.034Z</time></trkpt><trkpt lat="34.2274733" lon="-6.5180917"><ele>30.0</ele><time>2026-04-27T13:22:05.035Z</time></trkpt><trkpt lat="34.227545" lon="-6.5182133"><ele>29.0</ele><time>2026-04-27T13:22:06.035Z</time></trkpt><trkpt lat="34.227605" lon="-6.5183267"><ele>28.0</ele><time>2026-04-27T13:22:07.035Z</time></trkpt><trkpt lat="34.2276633" lon="-6.51844"><ele>28.0</ele><time>2026-04-27T13:22:08.035Z</time></trkpt><trkpt lat="34.2277233" lon="-6.5185517"><ele>27.999999999999996</ele><time>2026-04-27T13:22:09.035Z</time></trkpt><trkpt lat="34.2277933" lon="-6.5186567"><ele>27.999999999999996</ele><time>2026-04-27T13:22:10.035Z</time></trkpt><trkpt lat="34.2278567" lon="-6.5187667"><ele>28.0</ele><time>2026-04-27T13:22:11.035Z</time></trkpt><trkpt lat="34.227915" lon="-6.518875"><ele>28.0</ele><time>2026-04-27T13:22:12.035Z</time></trkpt><trkpt lat="34.2279683" lon="-6.51898"><ele>27.599999999999998</ele><time>2026-04-27T13:22:13.035Z</time></trkpt><trkpt lat="34.2280267" lon="-6.51909"><ele>27.199999999999996</ele><time>2026-04-27T13:22:14.035Z</time></trkpt><trkpt lat="34.228085" lon="-6.5192"><ele>26.8</ele><time>2026-04-27T13:22:15.035Z</time></trkpt><trkpt lat="34.228145" lon="-6.5193033"><ele>26.4</ele><time>2026-04-27T13:22:16.035Z</time></trkpt><trkpt lat="34.2281933" lon="-6.5194067"><ele>26.0</ele><time>2026-04-27T13:22:17.035Z</time></trkpt><trkpt lat="34.2282383" lon="-6.5195"><ele>26.8</ele><time>2026-04-27T13:22:18.035Z</time></trkpt><trkpt lat="34.22828" lon="-6.51959"><ele>27.6</ele><time>2026-04-27T13:22:19.035Z</time></trkpt><trkpt lat="34.2283317" lon="-6.5197217"><ele>28.4</ele><time>2026-04-27T13:22:21.035Z</time></trkpt><trkpt lat="34.22836" lon="-6.51982"><ele>29.2</ele><time>2026-04-27T13:22:23.035Z</time></trkpt><trkpt lat="34.22838" lon="-6.5199117"><ele>30.0</ele><time>2026-04-27T13:22:25.035Z</time></trkpt><trkpt lat="34.2284117" lon="-6.520035"><ele>30.0</ele><time>2026-04-27T13:22:27.034Z</time></trkpt><trkpt lat="34.2284367" lon="-6.520165"><ele>30.0</ele><time>2026-04-27T13:22:29.035Z</time></trkpt><trkpt lat="34.2284483" lon="-6.5202867"><ele>30.0</ele><time>2026-04-27T13:22:31.035Z</time></trkpt><trkpt lat="34.2284617" lon="-6.5204067"><ele>30.0</ele><time>2026-04-27T13:22:33.035Z</time></trkpt><trkpt lat="34.2284683" lon="-6.520515"><ele>30.0</ele><time>2026-04-27T13:22:35.035Z</time></trkpt><trkpt lat="34.22847" lon="-6.5206433"><ele>29.4</ele><time>2026-04-27T13:22:37.035Z</time></trkpt><trkpt lat="34.2284667" lon="-6.5207933"><ele>28.8</ele><time>2026-04-27T13:22:39.035Z</time></trkpt><trkpt lat="34.2284633" lon="-6.5208767"><ele>28.200000000000003</ele><time>2026-04-27T13:22:40.035Z</time></trkpt><trkpt lat="34.2284717" lon="-6.5209783"><ele>27.6</ele><time>2026-04-27T13:22:41.035Z</time></trkpt><trkpt lat="34.2284733" lon="-6.5210967"><ele>27.0</ele><time>2026-04-27T13:22:42.035Z</time></trkpt><trkpt lat="34.228465" lon="-6.52123"><ele>27.400000000000002</ele><time>2026-04-27T13:22:43.034Z</time></trkpt><trkpt lat="34.22845" lon="-6.5213667"><ele>27.800000000000004</ele><time>2026-04-27T13:22:44.035Z</time></trkpt><trkpt lat="34.2284383" lon="-6.5214867"><ele>28.2</ele><time>2026-04-27T13:22:45.035Z</time></trkpt><trkpt lat="34.2284167" lon="-6.521595"><ele>28.6</ele><time>2026-04-27T13:22:46.035Z</time></trkpt><trkpt lat="34.228395" lon="-6.5217017"><ele>29.0</ele><time>2026-04-27T13:22:47.034Z</time></trkpt><trkpt lat="34.22837" lon="-6.5218"><ele>29.0</ele><time>2026-04-27T13:22:48.035Z</time></trkpt><trkpt lat="34.228345" lon="-6.52189"><ele>29.0</ele><time>2026-04-27T13:22:49.035Z</time></trkpt><trkpt lat="34.2283183" lon="-6.5219833"><ele>29.0</ele><time>2026-04-27T13:22:50.035Z</time></trkpt><trkpt lat="34.2282733" lon="-6.5220817"><ele>29.0</ele><time>2026-04-27T13:22:51.035Z</time></trkpt><trkpt lat="34.22822" lon="-6.5221933"><ele>29.0</ele><time>2026-04-27T13:22:52.035Z</time></trkpt><trkpt lat="34.2281617" lon="-6.5223233"><ele>29.5</ele><time>2026-04-27T13:22:53.035Z</time></trkpt><trkpt lat="34.2280933" lon="-6.5224667"><ele>30.0</ele><time>2026-04-27T13:22:54.034Z</time></trkpt><trkpt lat="34.2280267" lon="-6.5226317"><ele>30.5</ele><time>2026-04-27T13:22:55.035Z</time></trkpt><trkpt lat="34.2279633" lon="-6.52281"><ele>31.0</ele><time>2026-04-27T13:22:56.035Z</time></trkpt><trkpt lat="34.2279033" lon="-6.52298"><ele>31.0</ele><time>2026-04-27T13:22:57.035Z</time></trkpt><trkpt lat="34.2278433" lon="-6.5231317"><ele>31.0</ele><time>2026-04-27T13:22:58.035Z</time></trkpt><trkpt lat="34.227775" lon="-6.523285"><ele>31.0</ele><time>2026-04-27T13:22:59.035Z</time></trkpt><trkpt lat="34.2277067" lon="-6.5234483"><ele>31.0</ele><time>2026-04-27T13:23:00.035Z</time></trkpt><trkpt lat="34.2276467" lon="-6.5235983"><ele>31.200000000000003</ele><time>2026-04-27T13:23:01.035Z</time></trkpt><trkpt lat="34.2276017" lon="-6.5237367"><ele>31.400000000000002</ele><time>2026-04-27T13:23:02.035Z</time></trkpt><trkpt lat="34.2275717" lon="-6.5238583"><ele>31.6</ele><time>2026-04-27T13:23:03.035Z</time></trkpt><trkpt lat="34.2275533" lon="-6.523945"><ele>31.8</ele><time>2026-04-27T13:23:04.035Z</time></trkpt><trkpt lat="34.2275333" lon="-6.52404"><ele>32.0</ele><time>2026-04-27T13:23:06.035Z</time></trkpt><trkpt lat="34.2275733" lon="-6.524145"><ele>31.999999999999996</ele><time>2026-04-27T13:23:10.035Z</time></trkpt><trkpt lat="34.2276483" lon="-6.5242167"><ele>32.0</ele><time>2026-04-27T13:23:12.035Z</time></trkpt><trkpt lat="34.2277117" lon="-6.524235"><ele>32.0</ele><time>2026-04-27T13:23:13.035Z</time></trkpt><trkpt lat="34.227775" lon="-6.524245"><ele>32.0</ele><time>2026-04-27T13:23:14.034Z</time></trkpt><trkpt lat="34.227845" lon="-6.5242517"><ele>31.999999999999996</ele><time>2026-04-27T13:23:15.035Z</time></trkpt><trkpt lat="34.2279267" lon="-6.524245"><ele>32.0</ele><time>2026-04-27T13:23:16.035Z</time></trkpt><trkpt lat="34.228015" lon="-6.524235"><ele>32.0</ele><time>2026-04-27T13:23:17.035Z</time></trkpt><trkpt lat="34.2281083" lon="-6.5242067"><ele>32.0</ele><time>2026-04-27T13:23:18.034Z</time></trkpt><trkpt lat="34.2282033" lon="-6.5241667"><ele>32.0</ele><time>2026-04-27T13:23:19.035Z</time></trkpt><trkpt lat="34.2282917" lon="-6.5241183"><ele>32.0</ele><time>2026-04-27T13:23:20.035Z</time></trkpt><trkpt lat="34.2283783" lon="-6.5240517"><ele>32.0</ele><time>2026-04-27T13:23:21.035Z</time></trkpt><trkpt lat="34.228465" lon="-6.52397"><ele>31.75</ele><time>2026-04-27T13:23:22.035Z</time></trkpt><trkpt lat="34.2285517" lon="-6.52387"><ele>31.5</ele><time>2026-04-27T13:23:23.035Z</time></trkpt><trkpt lat="34.22864" lon="-6.5237683"><ele>31.25</ele><time>2026-04-27T13:23:24.035Z</time></trkpt><trkpt lat="34.2287383" lon="-6.5236633"><ele>31.0</ele><time>2026-04-27T13:23:25.035Z</time></trkpt><trkpt lat="34.2288317" lon="-6.5235583"><ele>31.0</ele><time>2026-04-27T13:23:26.035Z</time></trkpt><trkpt lat="34.22892" lon="-6.5234567"><ele>31.0</ele><time>2026-04-27T13:23:27.035Z</time></trkpt><trkpt lat="34.2290117" lon="-6.5233517"><ele>31.0</ele><time>2026-04-27T13:23:28.035Z</time></trkpt><trkpt lat="34.229105" lon="-6.523255"><ele>31.0</ele><time>2026-04-27T13:23:29.035Z</time></trkpt><trkpt lat="34.229205" lon="-6.5231467"><ele>30.0</ele><time>2026-04-27T13:23:30.034Z</time></trkpt><trkpt lat="34.229305" lon="-6.5230317"><ele>29.0</ele><time>2026-04-27T13:23:31.035Z</time></trkpt><trkpt lat="34.2294117" lon="-6.5229117"><ele>28.0</ele><time>2026-04-27T13:23:32.035Z</time></trkpt><trkpt lat="34.2295217" lon="-6.5227883"><ele>27.0</ele><time>2026-04-27T13:23:33.035Z</time></trkpt><trkpt lat="34.229635" lon="-6.5226567"><ele>27.0</ele><time>2026-04-27T13:23:34.035Z</time></trkpt><trkpt lat="34.22975" lon="-6.5225217"><ele>27.0</ele><time>2026-04-27T13:23:35.035Z</time></trkpt><trkpt lat="34.2298733" lon="-6.5223933"><ele>27.0</ele><time>2026-04-27T13:23:36.035Z</time></trkpt><trkpt lat="34.23" lon="-6.5222583"><ele>27.0</ele><time>2026-04-27T13:23:37.035Z</time></trkpt><trkpt lat="34.2301267" lon="-6.5221217"><ele>27.0</ele><time>2026-04-27T13:23:38.035Z</time></trkpt><trkpt lat="34.2302567" lon="-6.521995"><ele>27.0</ele><time>2026-04-27T13:23:39.035Z</time></trkpt><trkpt lat="34.2303883" lon="-6.5218883"><ele>27.333333333333336</ele><time>2026-04-27T13:23:40.035Z</time></trkpt><trkpt lat="34.23052" lon="-6.5217867"><ele>27.666666666666668</ele><time>2026-04-27T13:23:41.035Z</time></trkpt><trkpt lat="34.2306583" lon="-6.5216917"><ele>28.0</ele><time>2026-04-27T13:23:42.035Z</time></trkpt><trkpt lat="34.2308" lon="-6.5215967"><ele>27.0</ele><time>2026-04-27T13:23:43.035Z</time></trkpt><trkpt lat="34.23095" lon="-6.521505"><ele>26.0</ele><time>2026-04-27T13:23:44.035Z</time></trkpt><trkpt lat="34.231105" lon="-6.5214117"><ele>25.0</ele><time>2026-04-27T13:23:45.035Z</time></trkpt><trkpt lat="34.23126" lon="-6.5213217"><ele>25.333333333333336</ele><time>2026-04-27T13:23:46.034Z</time></trkpt><trkpt lat="34.2314167" lon="-6.521225"><ele>25.666666666666664</ele><time>2026-04-27T13:23:47.035Z</time></trkpt><trkpt lat="34.2315733" lon="-6.5211333"><ele>26.0</ele><time>2026-04-27T13:23:48.035Z</time></trkpt><trkpt lat="34.2317367" lon="-6.5210383"><ele>26.0</ele><time>2026-04-27T13:23:49.035Z</time></trkpt><trkpt lat="34.2318967" lon="-6.5209383"><ele>26.0</ele><time>2026-04-27T13:23:50.035Z</time></trkpt><trkpt lat="34.2320583" lon="-6.5208333"><ele>26.0</ele><time>2026-04-27T13:23:51.035Z</time></trkpt><trkpt lat="34.23222" lon="-6.5207283"><ele>25.0</ele><time>2026-04-27T13:23:52.035Z</time></trkpt><trkpt lat="34.232385" lon="-6.520615"><ele>24.0</ele><time>2026-04-27T13:23:53.035Z</time></trkpt><trkpt lat="34.2325467" lon="-6.5205083"><ele>23.0</ele><time>2026-04-27T13:23:54.035Z</time></trkpt><trkpt lat="34.2327133" lon="-6.5204"><ele>23.0</ele><time>2026-04-27T13:23:55.035Z</time></trkpt><trkpt lat="34.2328833" lon="-6.52029"><ele>23.0</ele><time>2026-04-27T13:23:56.034Z</time></trkpt><trkpt lat="34.2330583" lon="-6.5201783"><ele>23.0</ele><time>2026-04-27T13:23:57.035Z</time></trkpt><trkpt lat="34.23323" lon="-6.520075"><ele>23.0</ele><time>2026-04-27T13:23:58.035Z</time></trkpt><trkpt lat="34.23339" lon="-6.51997"><ele>23.0</ele><time>2026-04-27T13:23:59.035Z</time></trkpt><trkpt lat="34.2335617" lon="-6.51987"><ele>23.0</ele><time>2026-04-27T13:24:00.035Z</time></trkpt><trkpt lat="34.2337433" lon="-6.5197633"><ele>23.0</ele><time>2026-04-27T13:24:01.035Z</time></trkpt><trkpt lat="34.2339217" lon="-6.51967"><ele>23.0</ele><time>2026-04-27T13:24:02.034Z</time></trkpt><trkpt lat="34.2341017" lon="-6.5195733"><ele>23.0</ele><time>2026-04-27T13:24:03.034Z</time></trkpt><trkpt lat="34.2342933" lon="-6.5194767"><ele>23.0</ele><time>2026-04-27T13:24:04.035Z</time></trkpt><trkpt lat="34.234485" lon="-6.5193883"><ele>23.0</ele><time>2026-04-27T13:24:05.035Z</time></trkpt><trkpt lat="34.234675" lon="-6.519315"><ele>23.0</ele><time>2026-04-27T13:24:06.035Z</time></trkpt><trkpt lat="34.2348567" lon="-6.5192383"><ele>22.333333333333336</ele><time>2026-04-27T13:24:07.035Z</time></trkpt><trkpt lat="34.2350417" lon="-6.5191683"><ele>21.666666666666668</ele><time>2026-04-27T13:24:08.035Z</time></trkpt><trkpt lat="34.2352283" lon="-6.5190883"><ele>21.0</ele><time>2026-04-27T13:24:09.035Z</time></trkpt><trkpt lat="34.2354233" lon="-6.519015"><ele>21.0</ele><time>2026-04-27T13:24:10.035Z</time></trkpt><trkpt lat="34.2356217" lon="-6.518945"><ele>21.0</ele><time>2026-04-27T13:24:11.035Z</time></trkpt><trkpt lat="34.235825" lon="-6.5188767"><ele>21.0</ele><time>2026-04-27T13:24:12.035Z</time></trkpt><trkpt lat="34.23603" lon="-6.518815"><ele>21.0</ele><time>2026-04-27T13:24:13.035Z</time></trkpt><trkpt lat="34.2362333" lon="-6.5187533"><ele>21.0</ele><time>2026-04-27T13:24:14.035Z</time></trkpt><trkpt lat="34.2364317" lon="-6.518695"><ele>21.0</ele><time>2026-04-27T13:24:15.035Z</time></trkpt><trkpt lat="34.236625" lon="-6.5186383"><ele>20.666666666666668</ele><time>2026-04-27T13:24:16.035Z</time></trkpt><trkpt lat="34.2368183" lon="-6.5185833"><ele>20.333333333333336</ele><time>2026-04-27T13:24:17.034Z</time></trkpt><trkpt lat="34.23702" lon="-6.51853"><ele>20.0</ele><time>2026-04-27T13:24:18.035Z</time></trkpt><trkpt lat="34.2372267" lon="-6.5184817"><ele>19.0</ele><time>2026-04-27T13:24:19.035Z</time></trkpt><trkpt lat="34.2374333" lon="-6.5184433"><ele>18.0</ele><time>2026-04-27T13:24:20.035Z</time></trkpt><trkpt lat="34.2376433" lon="-6.5184083"><ele>17.0</ele><time>2026-04-27T13:24:21.034Z</time></trkpt><trkpt lat="34.2378533" lon="-6.518365"><ele>17.0</ele><time>2026-04-27T13:24:22.035Z</time></trkpt><trkpt lat="34.238065" lon="-6.518325"><ele>17.0</ele><time>2026-04-27T13:24:23.035Z</time></trkpt><trkpt lat="34.23827" lon="-6.51829"><ele>17.0</ele><time>2026-04-27T13:24:24.035Z</time></trkpt><trkpt lat="34.2384783" lon="-6.5182617"><ele>16.0</ele><time>2026-04-27T13:24:25.035Z</time></trkpt><trkpt lat="34.23869" lon="-6.518235"><ele>15.0</ele><time>2026-04-27T13:24:26.034Z</time></trkpt><trkpt lat="34.238905" lon="-6.5182083"><ele>14.0</ele><time>2026-04-27T13:24:27.035Z</time></trkpt><trkpt lat="34.23912" lon="-6.5181833"><ele>13.5</ele><time>2026-04-27T13:24:28.035Z</time></trkpt><trkpt lat="34.2393417" lon="-6.5181517"><ele>13.0</ele><time>2026-04-27T13:24:29.035Z</time></trkpt><trkpt lat="34.2395667" lon="-6.5181183"><ele>13.0</ele><time>2026-04-27T13:24:30.035Z</time></trkpt><trkpt lat="34.239795" lon="-6.518085"><ele>13.0</ele><time>2026-04-27T13:24:31.035Z</time></trkpt><trkpt lat="34.2400267" lon="-6.51805"><ele>11.5</ele><time>2026-04-27T13:24:32.034Z</time></trkpt><trkpt lat="34.2402617" lon="-6.5180117"><ele>10.0</ele><time>2026-04-27T13:24:33.035Z</time></trkpt><trkpt lat="34.2405" lon="-6.5179733"><ele>9.0</ele><time>2026-04-27T13:24:34.035Z</time></trkpt><trkpt lat="34.24074" lon="-6.517935"><ele>8.0</ele><time>2026-04-27T13:24:35.034Z</time></trkpt><trkpt lat="34.24098" lon="-6.517895"><ele>8.0</ele><time>2026-04-27T13:24:36.035Z</time></trkpt><trkpt lat="34.24122" lon="-6.5178533"><ele>8.0</ele><time>2026-04-27T13:24:37.035Z</time></trkpt><trkpt lat="34.2414633" lon="-6.5178083"><ele>8.0</ele><time>2026-04-27T13:24:38.035Z</time></trkpt><trkpt lat="34.2417067" lon="-6.5177617"><ele>8.0</ele><time>2026-04-27T13:24:39.035Z</time></trkpt><trkpt lat="34.2419517" lon="-6.51772"><ele>8.0</ele><time>2026-04-27T13:24:40.035Z</time></trkpt><trkpt lat="34.2421967" lon="-6.5176833"><ele>8.0</ele><time>2026-04-27T13:24:41.035Z</time></trkpt><trkpt lat="34.2424433" lon="-6.517645"><ele>7.5</ele><time>2026-04-27T13:24:42.035Z</time></trkpt><trkpt lat="34.242685" lon="-6.5176083"><ele>7.0</ele><time>2026-04-27T13:24:43.035Z</time></trkpt><trkpt lat="34.2429283" lon="-6.517575"><ele>8.5</ele><time>2026-04-27T13:24:44.035Z</time></trkpt><trkpt lat="34.243175" lon="-6.5175333"><ele>10.0</ele><time>2026-04-27T13:24:45.035Z</time></trkpt><trkpt lat="34.2434183" lon="-6.5174917"><ele>10.0</ele><time>2026-04-27T13:24:46.035Z</time></trkpt><trkpt lat="34.243665" lon="-6.51745"><ele>10.0</ele><time>2026-04-27T13:24:47.035Z</time></trkpt><trkpt lat="34.2439083" lon="-6.51741"><ele>10.5</ele><time>2026-04-27T13:24:48.035Z</time></trkpt><trkpt lat="34.2441517" lon="-6.5173717"><ele>11.0</ele><time>2026-04-27T13:24:49.035Z</time></trkpt><trkpt lat="34.244385" lon="-6.5173433"><ele>11.0</ele><time>2026-04-27T13:24:50.035Z</time></trkpt><trkpt lat="34.2446117" lon="-6.5173083"><ele>11.0</ele><time>2026-04-27T13:24:51.035Z</time></trkpt><trkpt lat="34.2448383" lon="-6.5172733"><ele>11.5</ele><time>2026-04-27T13:24:52.035Z</time></trkpt><trkpt lat="34.2450667" lon="-6.5172367"><ele>12.0</ele><time>2026-04-27T13:24:53.035Z</time></trkpt><trkpt lat="34.2452933" lon="-6.5172017"><ele>12.0</ele><time>2026-04-27T13:24:54.035Z</time></trkpt><trkpt lat="34.245515" lon="-6.517165"><ele>12.0</ele><time>2026-04-27T13:24:55.035Z</time></trkpt><trkpt lat="34.2457367" lon="-6.5171317"><ele>12.0</ele><time>2026-04-27T13:24:56.035Z</time></trkpt><trkpt lat="34.2459583" lon="-6.5170983"><ele>11.0</ele><time>2026-04-27T13:24:57.035Z</time></trkpt><trkpt lat="34.2461833" lon="-6.5170633"><ele>10.0</ele><time>2026-04-27T13:24:58.035Z</time></trkpt><trkpt lat="34.2464067" lon="-6.5170267"><ele>11.5</ele><time>2026-04-27T13:24:59.035Z</time></trkpt><trkpt lat="34.246635" lon="-6.5169883"><ele>13.0</ele><time>2026-04-27T13:25:00.035Z</time></trkpt><trkpt lat="34.2468633" lon="-6.5169483"><ele>13.0</ele><time>2026-04-27T13:25:01.035Z</time></trkpt><trkpt lat="34.2470933" lon="-6.5169083"><ele>13.0</ele><time>2026-04-27T13:25:02.035Z</time></trkpt><trkpt lat="34.24732" lon="-6.5168717"><ele>13.5</ele><time>2026-04-27T13:25:03.035Z</time></trkpt><trkpt lat="34.2475483" lon="-6.516835"><ele>14.0</ele><time>2026-04-27T13:25:04.035Z</time></trkpt><trkpt lat="34.2477717" lon="-6.5167933"><ele>14.0</ele><time>2026-04-27T13:25:05.035Z</time></trkpt><trkpt lat="34.2479983" lon="-6.51675"><ele>14.0</ele><time>2026-04-27T13:25:06.035Z</time></trkpt><trkpt lat="34.24822" lon="-6.5167083"><ele>15.0</ele><time>2026-04-27T13:25:07.035Z</time></trkpt><trkpt lat="34.24844" lon="-6.516665"><ele>16.0</ele><time>2026-04-27T13:25:08.035Z</time></trkpt><trkpt lat="34.2486583" lon="-6.5166167"><ele>17.0</ele><time>2026-04-27T13:25:09.035Z</time></trkpt><trkpt lat="34.248875" lon="-6.51657"><ele>16.666666666666668</ele><time>2026-04-27T13:25:10.035Z</time></trkpt><trkpt lat="34.2490883" lon="-6.51652"><ele>16.333333333333332</ele><time>2026-04-27T13:25:11.035Z</time></trkpt><trkpt lat="34.2493017" lon="-6.51647"><ele>16.0</ele><time>2026-04-27T13:25:12.035Z</time></trkpt><trkpt lat="34.24951" lon="-6.5164183"><ele>16.0</ele><time>2026-04-27T13:25:13.034Z</time></trkpt><trkpt lat="34.2497217" lon="-6.51637"><ele>16.0</ele><time>2026-04-27T13:25:14.034Z</time></trkpt><trkpt lat="34.24994" lon="-6.51632"><ele>16.0</ele><time>2026-04-27T13:25:15.035Z</time></trkpt><trkpt lat="34.25015" lon="-6.5162617"><ele>15.666666666666666</ele><time>2026-04-27T13:25:16.035Z</time></trkpt><trkpt lat="34.250365" lon="-6.516205"><ele>15.333333333333332</ele><time>2026-04-27T13:25:17.034Z</time></trkpt><trkpt lat="34.2505817" lon="-6.516145"><ele>15.0</ele><time>2026-04-27T13:25:18.034Z</time></trkpt><trkpt lat="34.2507983" lon="-6.5160883"><ele>15.666666666666668</ele><time>2026-04-27T13:25:19.034Z</time></trkpt><trkpt lat="34.2510083" lon="-6.516035"><ele>16.333333333333336</ele><time>2026-04-27T13:25:20.034Z</time></trkpt><trkpt lat="34.2512167" lon="-6.515975"><ele>17.0</ele><time>2026-04-27T13:25:21.034Z</time></trkpt><trkpt lat="34.2514267" lon="-6.5159133"><ele>16.666666666666668</ele><time>2026-04-27T13:25:22.034Z</time></trkpt><trkpt lat="34.251645" lon="-6.5158533"><ele>16.333333333333332</ele><time>2026-04-27T13:25:23.034Z</time></trkpt><trkpt lat="34.25186" lon="-6.5157817"><ele>16.0</ele><time>2026-04-27T13:25:24.034Z</time></trkpt><trkpt lat="34.2520783" lon="-6.5157117"><ele>15.5</ele><time>2026-04-27T13:25:25.034Z</time></trkpt><trkpt lat="34.2523033" lon="-6.5156417"><ele>15.0</ele><time>2026-04-27T13:25:26.034Z</time></trkpt><trkpt lat="34.25253" lon="-6.5155717"><ele>15.0</ele><time>2026-04-27T13:25:27.034Z</time></trkpt><trkpt lat="34.25276" lon="-6.5155017"><ele>15.0</ele><time>2026-04-27T13:25:28.033Z</time></trkpt><trkpt lat="34.2529933" lon="-6.5154267"><ele>17.0</ele><time>2026-04-27T13:25:29.034Z</time></trkpt><trkpt lat="34.2532267" lon="-6.51535"><ele>19.0</ele><time>2026-04-27T13:25:30.034Z</time></trkpt><trkpt lat="34.253465" lon="-6.515275"><ele>19.0</ele><time>2026-04-27T13:25:31.034Z</time></trkpt><trkpt lat="34.253705" lon="-6.515195"><ele>19.0</ele><time>2026-04-27T13:25:32.034Z</time></trkpt><trkpt lat="34.2539433" lon="-6.5151133"><ele>18.5</ele><time>2026-04-27T13:25:33.034Z</time></trkpt><trkpt lat="34.2541817" lon="-6.5150183"><ele>18.0</ele><time>2026-04-27T13:25:34.034Z</time></trkpt><trkpt lat="34.2544183" lon="-6.514925"><ele>18.0</ele><time>2026-04-27T13:25:35.034Z</time></trkpt><trkpt lat="34.254655" lon="-6.5148283"><ele>18.0</ele><time>2026-04-27T13:25:36.034Z</time></trkpt><trkpt lat="34.25489" lon="-6.5147317"><ele>17.5</ele><time>2026-04-27T13:25:37.034Z</time></trkpt><trkpt lat="34.25512" lon="-6.514635"><ele>17.0</ele><time>2026-04-27T13:25:38.034Z</time></trkpt><trkpt lat="34.2553533" lon="-6.5145383"><ele>16.5</ele><time>2026-04-27T13:25:39.033Z</time></trkpt><trkpt lat="34.2555867" lon="-6.51444"><ele>16.0</ele><time>2026-04-27T13:25:40.033Z</time></trkpt><trkpt lat="34.2558183" lon="-6.5143417"><ele>16.0</ele><time>2026-04-27T13:25:41.034Z</time></trkpt><trkpt lat="34.2560417" lon="-6.5142417"><ele>16.0</ele><time>2026-04-27T13:25:42.034Z</time></trkpt><trkpt lat="34.2562733" lon="-6.5141433"><ele>15.0</ele><time>2026-04-27T13:25:43.034Z</time></trkpt><trkpt lat="34.25651" lon="-6.514045"><ele>14.0</ele><time>2026-04-27T13:25:44.034Z</time></trkpt><trkpt lat="34.2567433" lon="-6.5139467"><ele>14.0</ele><time>2026-04-27T13:25:45.034Z</time></trkpt><trkpt lat="34.2569783" lon="-6.51385"><ele>14.0</ele><time>2026-04-27T13:25:46.034Z</time></trkpt><trkpt lat="34.2572133" lon="-6.513745"><ele>13.0</ele><time>2026-04-27T13:25:47.034Z</time></trkpt><trkpt lat="34.25745" lon="-6.5136483"><ele>12.0</ele><time>2026-04-27T13:25:48.034Z</time></trkpt><trkpt lat="34.257685" lon="-6.5135433"><ele>12.0</ele><time>2026-04-27T13:25:49.034Z</time></trkpt><trkpt lat="34.25791" lon="-6.513445"><ele>12.0</ele><time>2026-04-27T13:25:50.034Z</time></trkpt><trkpt lat="34.2581233" lon="-6.513355"><ele>12.0</ele><time>2026-04-27T13:25:51.034Z</time></trkpt><trkpt lat="34.25834" lon="-6.513265"><ele>12.0</ele><time>2026-04-27T13:25:52.034Z</time></trkpt><trkpt lat="34.2585567" lon="-6.5131733"><ele>12.0</ele><time>2026-04-27T13:25:53.034Z</time></trkpt><trkpt lat="34.258775" lon="-6.5130867"><ele>12.0</ele><time>2026-04-27T13:25:54.034Z</time></trkpt><trkpt lat="34.2589983" lon="-6.5129983"><ele>13.0</ele><time>2026-04-27T13:25:55.034Z</time></trkpt><trkpt lat="34.2592217" lon="-6.5129117"><ele>14.0</ele><time>2026-04-27T13:25:56.034Z</time></trkpt><trkpt lat="34.2594467" lon="-6.5128183"><ele>15.0</ele><time>2026-04-27T13:25:57.034Z</time></trkpt><trkpt lat="34.2596767" lon="-6.5127183"><ele>16.0</ele><time>2026-04-27T13:25:58.034Z</time></trkpt><trkpt lat="34.25991" lon="-6.512615"><ele>16.0</ele><time>2026-04-27T13:25:59.034Z</time></trkpt><trkpt lat="34.2601433" lon="-6.5125133"><ele>16.0</ele><time>2026-04-27T13:26:00.034Z</time></trkpt><trkpt lat="34.2603817" lon="-6.512415"><ele>16.0</ele><time>2026-04-27T13:26:01.034Z</time></trkpt><trkpt lat="34.2606083" lon="-6.5123167"><ele>16.0</ele><time>2026-04-27T13:26:02.034Z</time></trkpt><trkpt lat="34.2608317" lon="-6.512225"><ele>17.0</ele><time>2026-04-27T13:26:03.034Z</time></trkpt><trkpt lat="34.261055" lon="-6.51213"><ele>18.0</ele><time>2026-04-27T13:26:04.034Z</time></trkpt><trkpt lat="34.2612783" lon="-6.5120367"><ele>19.0</ele><time>2026-04-27T13:26:05.034Z</time></trkpt><trkpt lat="34.2615033" lon="-6.5119417"><ele>20.0</ele><time>2026-04-27T13:26:06.034Z</time></trkpt><trkpt lat="34.2617233" lon="-6.5118483"><ele>20.0</ele><time>2026-04-27T13:26:07.033Z</time></trkpt><trkpt lat="34.2619433" lon="-6.5117517"><ele>20.0</ele><time>2026-04-27T13:26:08.034Z</time></trkpt><trkpt lat="34.2621667" lon="-6.5116567"><ele>20.0</ele><time>2026-04-27T13:26:09.034Z</time></trkpt><trkpt lat="34.2623917" lon="-6.5115617"><ele>20.0</ele><time>2026-04-27T13:26:10.033Z</time></trkpt><trkpt lat="34.2626167" lon="-6.511465"><ele>20.0</ele><time>2026-04-27T13:26:11.034Z</time></trkpt><trkpt lat="34.2628417" lon="-6.51137"><ele>20.0</ele><time>2026-04-27T13:26:12.034Z</time></trkpt><trkpt lat="34.2630667" lon="-6.5112767"><ele>19.0</ele><time>2026-04-27T13:26:13.034Z</time></trkpt><trkpt lat="34.2632867" lon="-6.5111817"><ele>18.0</ele><time>2026-04-27T13:26:14.034Z</time></trkpt><trkpt lat="34.26351" lon="-6.511085"><ele>18.0</ele><time>2026-04-27T13:26:15.033Z</time></trkpt><trkpt lat="34.2637333" lon="-6.5109833"><ele>18.0</ele><time>2026-04-27T13:26:16.034Z</time></trkpt><trkpt lat="34.26396" lon="-6.510885"><ele>17.5</ele><time>2026-04-27T13:26:17.034Z</time></trkpt><trkpt lat="34.2641867" lon="-6.5107883"><ele>17.0</ele><time>2026-04-27T13:26:18.034Z</time></trkpt><trkpt lat="34.2644133" lon="-6.510695"><ele>17.0</ele><time>2026-04-27T13:26:19.034Z</time></trkpt><trkpt lat="34.2646367" lon="-6.5105983"><ele>17.0</ele><time>2026-04-27T13:26:20.034Z</time></trkpt><trkpt lat="34.2648617" lon="-6.5105067"><ele>17.5</ele><time>2026-04-27T13:26:21.034Z</time></trkpt><trkpt lat="34.2650833" lon="-6.510415"><ele>18.0</ele><time>2026-04-27T13:26:22.034Z</time></trkpt><trkpt lat="34.2653067" lon="-6.5103233"><ele>19.0</ele><time>2026-04-27T13:26:23.034Z</time></trkpt><trkpt lat="34.26553" lon="-6.51023"><ele>20.0</ele><time>2026-04-27T13:26:24.034Z</time></trkpt><trkpt lat="34.265755" lon="-6.5101383"><ele>20.0</ele><time>2026-04-27T13:26:25.034Z</time></trkpt><trkpt lat="34.2659783" lon="-6.5100433"><ele>20.0</ele><time>2026-04-27T13:26:26.034Z</time></trkpt><trkpt lat="34.2662033" lon="-6.5099483"><ele>20.0</ele><time>2026-04-27T13:26:27.034Z</time></trkpt><trkpt lat="34.26643" lon="-6.5098517"><ele>20.0</ele><time>2026-04-27T13:26:28.034Z</time></trkpt><trkpt lat="34.2666533" lon="-6.509755"><ele>18.5</ele><time>2026-04-27T13:26:29.034Z</time></trkpt><trkpt lat="34.26688" lon="-6.5096583"><ele>17.0</ele><time>2026-04-27T13:26:30.034Z</time></trkpt><trkpt lat="34.267105" lon="-6.5095633"><ele>15.5</ele><time>2026-04-27T13:26:31.034Z</time></trkpt><trkpt lat="34.2673267" lon="-6.5094667"><ele>14.0</ele><time>2026-04-27T13:26:32.034Z</time></trkpt><trkpt lat="34.26755" lon="-6.509375"><ele>14.0</ele><time>2026-04-27T13:26:33.034Z</time></trkpt><trkpt lat="34.267775" lon="-6.5092817"><ele>14.0</ele><time>2026-04-27T13:26:34.034Z</time></trkpt><trkpt lat="34.268" lon="-6.509185"><ele>14.5</ele><time>2026-04-27T13:26:35.034Z</time></trkpt><trkpt lat="34.2682233" lon="-6.50909"><ele>15.0</ele><time>2026-04-27T13:26:36.034Z</time></trkpt><trkpt lat="34.268445" lon="-6.5089967"><ele>15.0</ele><time>2026-04-27T13:26:37.034Z</time></trkpt><trkpt lat="34.268665" lon="-6.5089033"><ele>15.0</ele><time>2026-04-27T13:26:38.034Z</time></trkpt><trkpt lat="34.26889" lon="-6.5088067"><ele>16.5</ele><time>2026-04-27T13:26:39.034Z</time></trkpt><trkpt lat="34.269115" lon="-6.5087083"><ele>18.0</ele><time>2026-04-27T13:26:40.034Z</time></trkpt><trkpt lat="34.2693417" lon="-6.5086117"><ele>18.0</ele><time>2026-04-27T13:26:41.034Z</time></trkpt><trkpt lat="34.2695617" lon="-6.5085183"><ele>18.0</ele><time>2026-04-27T13:26:42.034Z</time></trkpt><trkpt lat="34.2697833" lon="-6.508425"><ele>17.5</ele><time>2026-04-27T13:26:43.034Z</time></trkpt><trkpt lat="34.2700033" lon="-6.5083333"><ele>17.0</ele><time>2026-04-27T13:26:44.034Z</time></trkpt><trkpt lat="34.2702267" lon="-6.5082333"><ele>17.0</ele><time>2026-04-27T13:26:45.034Z</time></trkpt><trkpt lat="34.27045" lon="-6.5081367"><ele>17.0</ele><time>2026-04-27T13:26:46.034Z</time></trkpt><trkpt lat="34.2706767" lon="-6.5080383"><ele>17.0</ele><time>2026-04-27T13:26:47.034Z</time></trkpt><trkpt lat="34.2709017" lon="-6.5079433"><ele>17.0</ele><time>2026-04-27T13:26:48.034Z</time></trkpt><trkpt lat="34.2711233" lon="-6.5078517"><ele>17.5</ele><time>2026-04-27T13:26:49.034Z</time></trkpt><trkpt lat="34.2713467" lon="-6.50776"><ele>18.0</ele><time>2026-04-27T13:26:50.033Z</time></trkpt><trkpt lat="34.2715717" lon="-6.507665"><ele>18.0</ele><time>2026-04-27T13:26:51.034Z</time></trkpt><trkpt lat="34.2717967" lon="-6.507575"><ele>18.0</ele><time>2026-04-27T13:26:52.034Z</time></trkpt><trkpt lat="34.2720233" lon="-6.5074817"><ele>18.0</ele><time>2026-04-27T13:26:53.034Z</time></trkpt><trkpt lat="34.27225" lon="-6.507385"><ele>18.0</ele><time>2026-04-27T13:26:54.034Z</time></trkpt><trkpt lat="34.2724767" lon="-6.5072933"><ele>18.0</ele><time>2026-04-27T13:26:55.034Z</time></trkpt><trkpt lat="34.272705" lon="-6.507195"><ele>18.0</ele><time>2026-04-27T13:26:56.034Z</time></trkpt><trkpt lat="34.272925" lon="-6.5070983"><ele>18.5</ele><time>2026-04-27T13:26:57.034Z</time></trkpt><trkpt lat="34.2731467" lon="-6.5070033"><ele>19.0</ele><time>2026-04-27T13:26:58.034Z</time></trkpt><trkpt lat="34.2733683" lon="-6.5069083"><ele>19.0</ele><time>2026-04-27T13:26:59.034Z</time></trkpt><trkpt lat="34.2735933" lon="-6.5068117"><ele>19.0</ele><time>2026-04-27T13:27:00.034Z</time></trkpt><trkpt lat="34.2738183" lon="-6.5067217"><ele>17.0</ele><time>2026-04-27T13:27:01.034Z</time></trkpt><trkpt lat="34.27404" lon="-6.5066317"><ele>15.0</ele><time>2026-04-27T13:27:02.034Z</time></trkpt><trkpt lat="34.2742667" lon="-6.5065367"><ele>15.0</ele><time>2026-04-27T13:27:03.034Z</time></trkpt><trkpt lat="34.2744967" lon="-6.5064417"><ele>15.0</ele><time>2026-04-27T13:27:04.034Z</time></trkpt><trkpt lat="34.27472" lon="-6.506345"><ele>16.0</ele><time>2026-04-27T13:27:05.034Z</time></trkpt><trkpt lat="34.2749467" lon="-6.5062517"><ele>17.0</ele><time>2026-04-27T13:27:06.034Z</time></trkpt><trkpt lat="34.2751683" lon="-6.5061567"><ele>17.0</ele><time>2026-04-27T13:27:07.034Z</time></trkpt><trkpt lat="34.2753867" lon="-6.5060633"><ele>17.0</ele><time>2026-04-27T13:27:08.034Z</time></trkpt><trkpt lat="34.27561" lon="-6.5059667"><ele>17.0</ele><time>2026-04-27T13:27:09.034Z</time></trkpt><trkpt lat="34.2758367" lon="-6.5058683"><ele>17.0</ele><time>2026-04-27T13:27:10.034Z</time></trkpt><trkpt lat="34.2760583" lon="-6.50577"><ele>17.0</ele><time>2026-04-27T13:27:11.034Z</time></trkpt><trkpt lat="34.2762817" lon="-6.5056783"><ele>17.0</ele><time>2026-04-27T13:27:12.034Z</time></trkpt><trkpt lat="34.2765083" lon="-6.50558"><ele>17.5</ele><time>2026-04-27T13:27:13.034Z</time></trkpt><trkpt lat="34.2767333" lon="-6.5054883"><ele>18.0</ele><time>2026-04-27T13:27:14.034Z</time></trkpt><trkpt lat="34.2769617" lon="-6.5054033"><ele>18.0</ele><time>2026-04-27T13:27:15.033Z</time></trkpt><trkpt lat="34.2771933" lon="-6.505315"><ele>18.0</ele><time>2026-04-27T13:27:16.034Z</time></trkpt><trkpt lat="34.277415" lon="-6.5052317"><ele>19.0</ele><time>2026-04-27T13:27:17.034Z</time></trkpt><trkpt lat="34.27764" lon="-6.5051467"><ele>20.0</ele><time>2026-04-27T13:27:18.034Z</time></trkpt><trkpt lat="34.2778633" lon="-6.505065"><ele>20.0</ele><time>2026-04-27T13:27:19.034Z</time></trkpt><trkpt lat="34.278085" lon="-6.50498"><ele>20.0</ele><time>2026-04-27T13:27:20.034Z</time></trkpt><trkpt lat="34.2783117" lon="-6.5049033"><ele>20.5</ele><time>2026-04-27T13:27:21.034Z</time></trkpt><trkpt lat="34.2785417" lon="-6.5048217"><ele>21.0</ele><time>2026-04-27T13:27:22.034Z</time></trkpt><trkpt lat="34.2787683" lon="-6.5047517"><ele>21.0</ele><time>2026-04-27T13:27:23.034Z</time></trkpt><trkpt lat="34.279" lon="-6.50468"><ele>21.0</ele><time>2026-04-27T13:27:24.034Z</time></trkpt><trkpt lat="34.279225" lon="-6.5046083"><ele>21.0</ele><time>2026-04-27T13:27:25.034Z</time></trkpt><trkpt lat="34.2794533" lon="-6.504535"><ele>21.0</ele><time>2026-04-27T13:27:26.034Z</time></trkpt><trkpt lat="34.279685" lon="-6.5044667"><ele>21.5</ele><time>2026-04-27T13:27:27.034Z</time></trkpt><trkpt lat="34.2799167" lon="-6.5044017"><ele>22.0</ele><time>2026-04-27T13:27:28.034Z</time></trkpt><trkpt lat="34.28015" lon="-6.5043333"><ele>22.0</ele><time>2026-04-27T13:27:29.034Z</time></trkpt><trkpt lat="34.2803767" lon="-6.504265"><ele>22.0</ele><time>2026-04-27T13:27:30.034Z</time></trkpt><trkpt lat="34.280615" lon="-6.504195"><ele>21.5</ele><time>2026-04-27T13:27:31.034Z</time></trkpt><trkpt lat="34.2808433" lon="-6.5041283"><ele>21.0</ele><time>2026-04-27T13:27:32.034Z</time></trkpt><trkpt lat="34.2810767" lon="-6.5040683"><ele>21.0</ele><time>2026-04-27T13:27:33.034Z</time></trkpt><trkpt lat="34.2813067" lon="-6.504005"><ele>21.0</ele><time>2026-04-27T13:27:34.034Z</time></trkpt><trkpt lat="34.2815417" lon="-6.5039433"><ele>20.0</ele><time>2026-04-27T13:27:35.034Z</time></trkpt><trkpt lat="34.2817733" lon="-6.5038883"><ele>19.0</ele><time>2026-04-27T13:27:36.034Z</time></trkpt><trkpt lat="34.28201" lon="-6.50383"><ele>19.0</ele><time>2026-04-27T13:27:37.034Z</time></trkpt><trkpt lat="34.2822417" lon="-6.5037767"><ele>19.0</ele><time>2026-04-27T13:27:38.034Z</time></trkpt><trkpt lat="34.2824717" lon="-6.5037233"><ele>20.5</ele><time>2026-04-27T13:27:39.034Z</time></trkpt><trkpt lat="34.2827017" lon="-6.50367"><ele>22.0</ele><time>2026-04-27T13:27:40.034Z</time></trkpt><trkpt lat="34.2829367" lon="-6.50362"><ele>18.5</ele><time>2026-04-27T13:27:41.034Z</time></trkpt><trkpt lat="34.2831683" lon="-6.5035667"><ele>15.0</ele><time>2026-04-27T13:27:42.033Z</time></trkpt><trkpt lat="34.2833983" lon="-6.503515"><ele>15.0</ele><time>2026-04-27T13:27:43.033Z</time></trkpt><trkpt lat="34.28363" lon="-6.5034617"><ele>15.0</ele><time>2026-04-27T13:27:44.034Z</time></trkpt><trkpt lat="34.2838617" lon="-6.5034067"><ele>14.5</ele><time>2026-04-27T13:27:45.034Z</time></trkpt><trkpt lat="34.2840983" lon="-6.5033517"><ele>14.0</ele><time>2026-04-27T13:27:46.034Z</time></trkpt><trkpt lat="34.2843317" lon="-6.5032933"><ele>14.0</ele><time>2026-04-27T13:27:47.034Z</time></trkpt><trkpt lat="34.2845667" lon="-6.5032333"><ele>14.0</ele><time>2026-04-27T13:27:48.034Z</time></trkpt><trkpt lat="34.2848017" lon="-6.5031767"><ele>14.0</ele><time>2026-04-27T13:27:49.034Z</time></trkpt><trkpt lat="34.285035" lon="-6.503125"><ele>14.0</ele><time>2026-04-27T13:27:50.034Z</time></trkpt><trkpt lat="34.285265" lon="-6.5030667"><ele>14.0</ele><time>2026-04-27T13:27:51.034Z</time></trkpt><trkpt lat="34.2854967" lon="-6.50301"><ele>14.0</ele><time>2026-04-27T13:27:52.034Z</time></trkpt><trkpt lat="34.2857283" lon="-6.5029567"><ele>15.5</ele><time>2026-04-27T13:27:53.033Z</time></trkpt><trkpt lat="34.285965" lon="-6.50291"><ele>17.0</ele><time>2026-04-27T13:27:54.033Z</time></trkpt><trkpt lat="34.286195" lon="-6.5028583"><ele>16.0</ele><time>2026-04-27T13:27:55.034Z</time></trkpt><trkpt lat="34.28643" lon="-6.502805"><ele>15.0</ele><time>2026-04-27T13:27:56.034Z</time></trkpt><trkpt lat="34.28666" lon="-6.50275"><ele>15.0</ele><time>2026-04-27T13:27:57.034Z</time></trkpt><trkpt lat="34.2868883" lon="-6.5026867"><ele>15.0</ele><time>2026-04-27T13:27:58.034Z</time></trkpt><trkpt lat="34.2871117" lon="-6.5026267"><ele>13.5</ele><time>2026-04-27T13:27:59.034Z</time></trkpt><trkpt lat="34.287345" lon="-6.50257"><ele>12.0</ele><time>2026-04-27T13:28:00.034Z</time></trkpt><trkpt lat="34.287575" lon="-6.5025233"><ele>12.0</ele><time>2026-04-27T13:28:01.034Z</time></trkpt><trkpt lat="34.2878067" lon="-6.5024717"><ele>12.0</ele><time>2026-04-27T13:28:02.034Z</time></trkpt><trkpt lat="34.2880383" lon="-6.502425"><ele>12.5</ele><time>2026-04-27T13:28:03.034Z</time></trkpt><trkpt lat="34.2882733" lon="-6.5023817"><ele>13.0</ele><time>2026-04-27T13:28:04.034Z</time></trkpt><trkpt lat="34.2885117" lon="-6.5023417"><ele>13.0</ele><time>2026-04-27T13:28:05.034Z</time></trkpt><trkpt lat="34.2887517" lon="-6.5023"><ele>13.0</ele><time>2026-04-27T13:28:06.034Z</time></trkpt><trkpt lat="34.2889867" lon="-6.5022567"><ele>13.5</ele><time>2026-04-27T13:28:07.034Z</time></trkpt><trkpt lat="34.2892233" lon="-6.502215"><ele>14.0</ele><time>2026-04-27T13:28:08.034Z</time></trkpt><trkpt lat="34.2894617" lon="-6.5021767"><ele>14.0</ele><time>2026-04-27T13:28:09.034Z</time></trkpt><trkpt lat="34.2896983" lon="-6.50214"><ele>14.0</ele><time>2026-04-27T13:28:10.034Z</time></trkpt><trkpt lat="34.2899367" lon="-6.50211"><ele>12.0</ele><time>2026-04-27T13:28:11.034Z</time></trkpt><trkpt lat="34.290175" lon="-6.5020833"><ele>10.0</ele><time>2026-04-27T13:28:12.034Z</time></trkpt><trkpt lat="34.29041" lon="-6.5020533"><ele>9.0</ele><time>2026-04-27T13:28:13.034Z</time></trkpt><trkpt lat="34.2906417" lon="-6.5020333"><ele>8.0</ele><time>2026-04-27T13:28:14.034Z</time></trkpt><trkpt lat="34.2908767" lon="-6.502015"><ele>8.0</ele><time>2026-04-27T13:28:15.034Z</time></trkpt><trkpt lat="34.2911117" lon="-6.502005"><ele>8.0</ele><time>2026-04-27T13:28:16.034Z</time></trkpt><trkpt lat="34.2913533" lon="-6.5020017"><ele>9.5</ele><time>2026-04-27T13:28:17.034Z</time></trkpt><trkpt lat="34.2915967" lon="-6.5019967"><ele>11.0</ele><time>2026-04-27T13:28:18.034Z</time></trkpt><trkpt lat="34.29183" lon="-6.5019933"><ele>11.0</ele><time>2026-04-27T13:28:19.034Z</time></trkpt><trkpt lat="34.292065" lon="-6.50199"><ele>11.0</ele><time>2026-04-27T13:28:20.034Z</time></trkpt><trkpt lat="34.2923017" lon="-6.5019883"><ele>10.5</ele><time>2026-04-27T13:28:21.034Z</time></trkpt><trkpt lat="34.2925383" lon="-6.5019983"><ele>10.0</ele><time>2026-04-27T13:28:22.034Z</time></trkpt><trkpt lat="34.2927733" lon="-6.5020133"><ele>10.0</ele><time>2026-04-27T13:28:23.034Z</time></trkpt><trkpt lat="34.2930083" lon="-6.5020283"><ele>10.0</ele><time>2026-04-27T13:28:24.034Z</time></trkpt><trkpt lat="34.2932383" lon="-6.5020467"><ele>8.5</ele><time>2026-04-27T13:28:25.033Z</time></trkpt><trkpt lat="34.2934767" lon="-6.5020667"><ele>7.0</ele><time>2026-04-27T13:28:26.034Z</time></trkpt><trkpt lat="34.2937133" lon="-6.502085"><ele>7.5</ele><time>2026-04-27T13:28:27.034Z</time></trkpt><trkpt lat="34.2939517" lon="-6.502115"><ele>8.0</ele><time>2026-04-27T13:28:28.034Z</time></trkpt><trkpt lat="34.2941867" lon="-6.5021467"><ele>8.0</ele><time>2026-04-27T13:28:29.033Z</time></trkpt><trkpt lat="34.29442" lon="-6.5021917"><ele>8.0</ele><time>2026-04-27T13:28:30.033Z</time></trkpt><trkpt lat="34.294655" lon="-6.5022367"><ele>8.0</ele><time>2026-04-27T13:28:31.034Z</time></trkpt><trkpt lat="34.29489" lon="-6.5022867"><ele>8.0</ele><time>2026-04-27T13:28:32.033Z</time></trkpt><trkpt lat="34.2951233" lon="-6.5023333"><ele>8.0</ele><time>2026-04-27T13:28:33.034Z</time></trkpt><trkpt lat="34.2953517" lon="-6.5023833"><ele>8.0</ele><time>2026-04-27T13:28:34.034Z</time></trkpt><trkpt lat="34.295585" lon="-6.5024367"><ele>9.5</ele><time>2026-04-27T13:28:35.033Z</time></trkpt><trkpt lat="34.29581" lon="-6.5024983"><ele>11.0</ele><time>2026-04-27T13:28:36.034Z</time></trkpt><trkpt lat="34.2960417" lon="-6.5025667"><ele>11.0</ele><time>2026-04-27T13:28:37.034Z</time></trkpt><trkpt lat="34.2962717" lon="-6.502635"><ele>11.0</ele><time>2026-04-27T13:28:38.034Z</time></trkpt><trkpt lat="34.2965017" lon="-6.5027083"><ele>12.5</ele><time>2026-04-27T13:28:39.034Z</time></trkpt><trkpt lat="34.2967317" lon="-6.5027817"><ele>14.0</ele><time>2026-04-27T13:28:40.034Z</time></trkpt><trkpt lat="34.2969633" lon="-6.502855"><ele>14.0</ele><time>2026-04-27T13:28:41.034Z</time></trkpt><trkpt lat="34.2971933" lon="-6.502935"><ele>14.0</ele><time>2026-04-27T13:28:42.034Z</time></trkpt><trkpt lat="34.2974183" lon="-6.50302"><ele>14.0</ele><time>2026-04-27T13:28:43.034Z</time></trkpt><trkpt lat="34.2976417" lon="-6.5031117"><ele>14.0</ele><time>2026-04-27T13:28:44.034Z</time></trkpt><trkpt lat="34.2978717" lon="-6.5032017"><ele>14.5</ele><time>2026-04-27T13:28:45.034Z</time></trkpt><trkpt lat="34.2980933" lon="-6.5032983"><ele>15.0</ele><time>2026-04-27T13:28:46.034Z</time></trkpt><trkpt lat="34.2983133" lon="-6.5033983"><ele>15.0</ele><time>2026-04-27T13:28:47.034Z</time></trkpt><trkpt lat="34.2985367" lon="-6.5035033"><ele>15.0</ele><time>2026-04-27T13:28:48.034Z</time></trkpt><trkpt lat="34.29876" lon="-6.5036083"><ele>14.5</ele><time>2026-04-27T13:28:49.034Z</time></trkpt><trkpt lat="34.29898" lon="-6.5037183"><ele>14.0</ele><time>2026-04-27T13:28:50.034Z</time></trkpt><trkpt lat="34.2992" lon="-6.50383"><ele>14.0</ele><time>2026-04-27T13:28:51.034Z</time></trkpt><trkpt lat="34.2994183" lon="-6.5039417"><ele>14.0</ele><time>2026-04-27T13:28:52.034Z</time></trkpt><trkpt lat="34.2996383" lon="-6.50406"><ele>14.0</ele><time>2026-04-27T13:28:53.034Z</time></trkpt><trkpt lat="34.299855" lon="-6.5041833"><ele>14.0</ele><time>2026-04-27T13:28:54.034Z</time></trkpt><trkpt lat="34.30007" lon="-6.5043033"><ele>14.0</ele><time>2026-04-27T13:28:55.034Z</time></trkpt><trkpt lat="34.3002867" lon="-6.504425"><ele>14.0</ele><time>2026-04-27T13:28:56.033Z</time></trkpt><trkpt lat="34.300495" lon="-6.5045417"><ele>15.0</ele><time>2026-04-27T13:28:57.034Z</time></trkpt><trkpt lat="34.300695" lon="-6.5046567"><ele>16.0</ele><time>2026-04-27T13:28:58.034Z</time></trkpt><trkpt lat="34.3009033" lon="-6.5047683"><ele>17.0</ele><time>2026-04-27T13:28:59.034Z</time></trkpt><trkpt lat="34.301115" lon="-6.5048867"><ele>17.0</ele><time>2026-04-27T13:29:00.034Z</time></trkpt><trkpt lat="34.3013367" lon="-6.5050117"><ele>17.0</ele><time>2026-04-27T13:29:01.034Z</time></trkpt><trkpt lat="34.3015533" lon="-6.5051317"><ele>17.333333333333336</ele><time>2026-04-27T13:29:02.033Z</time></trkpt><trkpt lat="34.3017567" lon="-6.50525"><ele>17.666666666666668</ele><time>2026-04-27T13:29:03.034Z</time></trkpt><trkpt lat="34.3019467" lon="-6.5053633"><ele>18.0</ele><time>2026-04-27T13:29:04.034Z</time></trkpt><trkpt lat="34.3021283" lon="-6.5054717"><ele>17.333333333333332</ele><time>2026-04-27T13:29:05.034Z</time></trkpt><trkpt lat="34.3023067" lon="-6.5055733"><ele>16.666666666666664</ele><time>2026-04-27T13:29:06.033Z</time></trkpt><trkpt lat="34.3024767" lon="-6.505675"><ele>16.0</ele><time>2026-04-27T13:29:07.034Z</time></trkpt><trkpt lat="34.302645" lon="-6.5057717"><ele>16.0</ele><time>2026-04-27T13:29:08.034Z</time></trkpt><trkpt lat="34.3028" lon="-6.505865"><ele>16.0</ele><time>2026-04-27T13:29:09.034Z</time></trkpt><trkpt lat="34.3029533" lon="-6.5059583"><ele>16.0</ele><time>2026-04-27T13:29:10.034Z</time></trkpt><trkpt lat="34.3030983" lon="-6.50604"><ele>16.333333333333332</ele><time>2026-04-27T13:29:11.034Z</time></trkpt><trkpt lat="34.303245" lon="-6.50612"><ele>16.666666666666668</ele><time>2026-04-27T13:29:12.034Z</time></trkpt><trkpt lat="34.3034" lon="-6.5062067"><ele>17.0</ele><time>2026-04-27T13:29:13.034Z</time></trkpt><trkpt lat="34.30355" lon="-6.50629"><ele>17.0</ele><time>2026-04-27T13:29:14.034Z</time></trkpt><trkpt lat="34.3036967" lon="-6.506375"><ele>17.0</ele><time>2026-04-27T13:29:15.034Z</time></trkpt><trkpt lat="34.3038417" lon="-6.5064617"><ele>17.0</ele><time>2026-04-27T13:29:16.033Z</time></trkpt><trkpt lat="34.3039867" lon="-6.5065433"><ele>16.0</ele><time>2026-04-27T13:29:17.034Z</time></trkpt><trkpt lat="34.3041267" lon="-6.5066217"><ele>15.0</ele><time>2026-04-27T13:29:18.034Z</time></trkpt><trkpt lat="34.3042667" lon="-6.5067"><ele>14.0</ele><time>2026-04-27T13:29:19.034Z</time></trkpt><trkpt lat="34.3044117" lon="-6.506775"><ele>14.0</ele><time>2026-04-27T13:29:20.033Z</time></trkpt><trkpt lat="34.304555" lon="-6.5068483"><ele>14.0</ele><time>2026-04-27T13:29:21.034Z</time></trkpt><trkpt lat="34.3046933" lon="-6.5069233"><ele>14.0</ele><time>2026-04-27T13:29:22.034Z</time></trkpt><trkpt lat="34.304825" lon="-6.5069917"><ele>14.5</ele><time>2026-04-27T13:29:23.034Z</time></trkpt><trkpt lat="34.30495" lon="-6.50706"><ele>15.0</ele><time>2026-04-27T13:29:24.034Z</time></trkpt><trkpt lat="34.305075" lon="-6.5071183"><ele>15.5</ele><time>2026-04-27T13:29:25.034Z</time></trkpt><trkpt lat="34.3052033" lon="-6.507175"><ele>16.0</ele><time>2026-04-27T13:29:26.034Z</time></trkpt><trkpt lat="34.305335" lon="-6.507235"><ele>16.25</ele><time>2026-04-27T13:29:27.034Z</time></trkpt><trkpt lat="34.3054617" lon="-6.50729"><ele>16.5</ele><time>2026-04-27T13:29:28.034Z</time></trkpt><trkpt lat="34.3055817" lon="-6.50735"><ele>16.75</ele><time>2026-04-27T13:29:29.034Z</time></trkpt><trkpt lat="34.3057017" lon="-6.5074067"><ele>17.0</ele><time>2026-04-27T13:29:30.034Z</time></trkpt><trkpt lat="34.3058217" lon="-6.5074633"><ele>17.5</ele><time>2026-04-27T13:29:31.033Z</time></trkpt><trkpt lat="34.3059433" lon="-6.50752"><ele>18.0</ele><time>2026-04-27T13:29:32.034Z</time></trkpt><trkpt lat="34.30606" lon="-6.507575"><ele>18.5</ele><time>2026-04-27T13:29:33.034Z</time></trkpt><trkpt lat="34.306165" lon="-6.507625"><ele>19.0</ele><time>2026-04-27T13:29:34.034Z</time></trkpt><trkpt lat="34.3062667" lon="-6.5076783"><ele>19.0</ele><time>2026-04-27T13:29:35.034Z</time></trkpt><trkpt lat="34.30637" lon="-6.5077283"><ele>19.0</ele><time>2026-04-27T13:29:36.033Z</time></trkpt><trkpt lat="34.3064783" lon="-6.5077783"><ele>19.0</ele><time>2026-04-27T13:29:37.033Z</time></trkpt><trkpt lat="34.3065817" lon="-6.50783"><ele>19.0</ele><time>2026-04-27T13:29:38.033Z</time></trkpt><trkpt lat="34.3066817" lon="-6.5078817"><ele>19.0</ele><time>2026-04-27T13:29:39.033Z</time></trkpt><trkpt lat="34.3067767" lon="-6.50793"><ele>19.4</ele><time>2026-04-27T13:29:40.033Z</time></trkpt><trkpt lat="34.3068683" lon="-6.507975"><ele>19.799999999999997</ele><time>2026-04-27T13:29:41.033Z</time></trkpt><trkpt lat="34.3069633" lon="-6.5080217"><ele>20.200000000000003</ele><time>2026-04-27T13:29:42.033Z</time></trkpt><trkpt lat="34.307065" lon="-6.5080683"><ele>20.6</ele><time>2026-04-27T13:29:43.033Z</time></trkpt><trkpt lat="34.307165" lon="-6.5081167"><ele>21.0</ele><time>2026-04-27T13:29:44.033Z</time></trkpt><trkpt lat="34.3072633" lon="-6.50816"><ele>21.0</ele><time>2026-04-27T13:29:45.032Z</time></trkpt><trkpt lat="34.3073617" lon="-6.5081967"><ele>21.0</ele><time>2026-04-27T13:29:46.033Z</time></trkpt><trkpt lat="34.3074617" lon="-6.50823"><ele>21.0</ele><time>2026-04-27T13:29:47.033Z</time></trkpt><trkpt lat="34.30755" lon="-6.5082583"><ele>21.0</ele><time>2026-04-27T13:29:48.033Z</time></trkpt><trkpt lat="34.3076267" lon="-6.5082833"><ele>21.0</ele><time>2026-04-27T13:29:49.033Z</time></trkpt><trkpt lat="34.3076933" lon="-6.5083067"><ele>21.0</ele><time>2026-04-27T13:29:50.032Z</time></trkpt><trkpt lat="34.307755" lon="-6.5083333"><ele>21.0</ele><time>2026-04-27T13:29:51.033Z</time></trkpt><trkpt lat="34.30784" lon="-6.5083817"><ele>21.0</ele><time>2026-04-27T13:29:53.033Z</time></trkpt><trkpt lat="34.3078983" lon="-6.5084183"><ele>21.0</ele><time>2026-04-27T13:29:55.033Z</time></trkpt><trkpt lat="34.3079633" lon="-6.5084583"><ele>21.0</ele><time>2026-04-27T13:29:58.033Z</time></trkpt><trkpt lat="34.3080467" lon="-6.5084917"><ele>21.0</ele><time>2026-04-27T13:30:36.033Z</time></trkpt><trkpt lat="34.3081117" lon="-6.5085267"><ele>21.0</ele><time>2026-04-27T13:30:37.033Z</time></trkpt><trkpt lat="34.3081817" lon="-6.5085633"><ele>21.166666666666668</ele><time>2026-04-27T13:30:38.033Z</time></trkpt><trkpt lat="34.3082867" lon="-6.5086067"><ele>21.333333333333332</ele><time>2026-04-27T13:30:40.033Z</time></trkpt><trkpt lat="34.3083517" lon="-6.5086517"><ele>21.5</ele><time>2026-04-27T13:30:43.033Z</time></trkpt><trkpt lat="34.3084133" lon="-6.508685"><ele>21.666666666666664</ele><time>2026-04-27T13:32:09.032Z</time></trkpt><trkpt lat="34.3084817" lon="-6.5087467"><ele>21.833333333333332</ele><time>2026-04-27T13:32:10.033Z</time></trkpt><trkpt lat="34.3085467" lon="-6.5088117"><ele>22.0</ele><time>2026-04-27T13:32:11.033Z</time></trkpt><trkpt lat="34.3086067" lon="-6.50888"><ele>22.0</ele><time>2026-04-27T13:32:12.033Z</time></trkpt><trkpt lat="34.3086833" lon="-6.5089367"><ele>22.0</ele><time>2026-04-27T13:32:13.033Z</time></trkpt><trkpt lat="34.30877" lon="-6.509"><ele>22.0</ele><time>2026-04-27T13:32:14.033Z</time></trkpt><trkpt lat="34.308865" lon="-6.509065"><ele>22.0</ele><time>2026-04-27T13:32:15.033Z</time></trkpt><trkpt lat="34.3089667" lon="-6.50914"><ele>22.0</ele><time>2026-04-27T13:32:16.033Z</time></trkpt><trkpt lat="34.309075" lon="-6.50922"><ele>22.25</ele><time>2026-04-27T13:32:17.033Z</time></trkpt><trkpt lat="34.3091817" lon="-6.5093017"><ele>22.5</ele><time>2026-04-27T13:32:18.033Z</time></trkpt><trkpt lat="34.3092933" lon="-6.5093917"><ele>22.75</ele><time>2026-04-27T13:32:19.033Z</time></trkpt><trkpt lat="34.3094133" lon="-6.509485"><ele>23.0</ele><time>2026-04-27T13:32:20.033Z</time></trkpt><trkpt lat="34.3095417" lon="-6.509575"><ele>22.0</ele><time>2026-04-27T13:32:21.033Z</time></trkpt><trkpt lat="34.3096733" lon="-6.50967"><ele>21.0</ele><time>2026-04-27T13:32:22.033Z</time></trkpt><trkpt lat="34.3098117" lon="-6.5097633"><ele>20.0</ele><time>2026-04-27T13:32:23.033Z</time></trkpt><trkpt lat="34.309955" lon="-6.509855"><ele>19.333333333333336</ele><time>2026-04-27T13:32:24.033Z</time></trkpt><trkpt lat="34.31011" lon="-6.509945"><ele>18.666666666666668</ele><time>2026-04-27T13:32:25.033Z</time></trkpt><trkpt lat="34.3102617" lon="-6.5100433"><ele>18.0</ele><time>2026-04-27T13:32:26.032Z</time></trkpt><trkpt lat="34.3104167" lon="-6.510145"><ele>18.0</ele><time>2026-04-27T13:32:27.033Z</time></trkpt><trkpt lat="34.3105717" lon="-6.5102483"><ele>18.0</ele><time>2026-04-27T13:32:28.033Z</time></trkpt><trkpt lat="34.31074" lon="-6.5103483"><ele>18.0</ele><time>2026-04-27T13:32:29.033Z</time></trkpt><trkpt lat="34.31091" lon="-6.5104483"><ele>17.333333333333332</ele><time>2026-04-27T13:32:30.033Z</time></trkpt><trkpt lat="34.3110783" lon="-6.51055"><ele>16.666666666666664</ele><time>2026-04-27T13:32:31.033Z</time></trkpt><trkpt lat="34.3112567" lon="-6.51065"><ele>16.0</ele><time>2026-04-27T13:32:32.033Z</time></trkpt><trkpt lat="34.3114367" lon="-6.510745"><ele>16.0</ele><time>2026-04-27T13:32:33.033Z</time></trkpt><trkpt lat="34.3116183" lon="-6.51084"><ele>16.0</ele><time>2026-04-27T13:32:34.033Z</time></trkpt><trkpt lat="34.311805" lon="-6.510935"><ele>16.0</ele><time>2026-04-27T13:32:35.032Z</time></trkpt><trkpt lat="34.31199" lon="-6.5110267"><ele>16.0</ele><time>2026-04-27T13:32:36.033Z</time></trkpt><trkpt lat="34.312185" lon="-6.5111067"><ele>16.0</ele><time>2026-04-27T13:32:37.033Z</time></trkpt><trkpt lat="34.31238" lon="-6.5111833"><ele>16.0</ele><time>2026-04-27T13:32:38.032Z</time></trkpt><trkpt lat="34.3125817" lon="-6.511255"><ele>15.333333333333332</ele><time>2026-04-27T13:32:39.033Z</time></trkpt><trkpt lat="34.31278" lon="-6.5113267"><ele>14.666666666666668</ele><time>2026-04-27T13:32:40.033Z</time></trkpt><trkpt lat="34.3129783" lon="-6.511395"><ele>14.0</ele><time>2026-04-27T13:32:41.033Z</time></trkpt><trkpt lat="34.3131617" lon="-6.5114583"><ele>13.333333333333334</ele><time>2026-04-27T13:32:42.033Z</time></trkpt><trkpt lat="34.3133417" lon="-6.511515"><ele>12.666666666666668</ele><time>2026-04-27T13:32:43.033Z</time></trkpt><trkpt lat="34.3135217" lon="-6.5115667"><ele>12.0</ele><time>2026-04-27T13:32:44.033Z</time></trkpt><trkpt lat="34.3137017" lon="-6.51161"><ele>12.0</ele><time>2026-04-27T13:32:45.033Z</time></trkpt><trkpt lat="34.3138783" lon="-6.5116533"><ele>12.0</ele><time>2026-04-27T13:32:46.033Z</time></trkpt><trkpt lat="34.3140583" lon="-6.511695"><ele>12.0</ele><time>2026-04-27T13:32:47.032Z</time></trkpt><trkpt lat="34.31424" lon="-6.5117367"><ele>11.666666666666666</ele><time>2026-04-27T13:32:48.033Z</time></trkpt><trkpt lat="34.3144217" lon="-6.5117783"><ele>11.333333333333332</ele><time>2026-04-27T13:32:49.033Z</time></trkpt><trkpt lat="34.3146067" lon="-6.5118133"><ele>11.0</ele><time>2026-04-27T13:32:50.033Z</time></trkpt><trkpt lat="34.314795" lon="-6.511845"><ele>11.0</ele><time>2026-04-27T13:32:51.033Z</time></trkpt><trkpt lat="34.3149833" lon="-6.511875"><ele>11.0</ele><time>2026-04-27T13:32:52.032Z</time></trkpt><trkpt lat="34.315175" lon="-6.5119"><ele>11.0</ele><time>2026-04-27T13:32:53.033Z</time></trkpt><trkpt lat="34.3153733" lon="-6.5119183"><ele>11.0</ele><time>2026-04-27T13:32:54.033Z</time></trkpt><trkpt lat="34.31557" lon="-6.51194"><ele>11.0</ele><time>2026-04-27T13:32:55.033Z</time></trkpt><trkpt lat="34.3157633" lon="-6.5119617"><ele>11.0</ele><time>2026-04-27T13:32:56.033Z</time></trkpt><trkpt lat="34.3159633" lon="-6.5119767"><ele>10.0</ele><time>2026-04-27T13:32:57.033Z</time></trkpt><trkpt lat="34.3161717" lon="-6.5119867"><ele>9.0</ele><time>2026-04-27T13:32:58.033Z</time></trkpt><trkpt lat="34.316385" lon="-6.51199"><ele>8.0</ele><time>2026-04-27T13:32:59.033Z</time></trkpt><trkpt lat="34.316605" lon="-6.51199"><ele>8.0</ele><time>2026-04-27T13:33:00.033Z</time></trkpt><trkpt lat="34.316835" lon="-6.511985"><ele>8.0</ele><time>2026-04-27T13:33:01.033Z</time></trkpt><trkpt lat="34.3170683" lon="-6.5119767"><ele>8.5</ele><time>2026-04-27T13:33:02.032Z</time></trkpt><trkpt lat="34.3173033" lon="-6.5119633"><ele>9.0</ele><time>2026-04-27T13:33:03.033Z</time></trkpt><trkpt lat="34.3175433" lon="-6.5119433"><ele>9.0</ele><time>2026-04-27T13:33:04.033Z</time></trkpt><trkpt lat="34.3177867" lon="-6.5119183"><ele>9.0</ele><time>2026-04-27T13:33:05.033Z</time></trkpt><trkpt lat="34.318035" lon="-6.5118917"><ele>9.0</ele><time>2026-04-27T13:33:06.033Z</time></trkpt><trkpt lat="34.31828" lon="-6.5118633"><ele>9.0</ele><time>2026-04-27T13:33:07.033Z</time></trkpt><trkpt lat="34.3185267" lon="-6.5118283"><ele>9.0</ele><time>2026-04-27T13:33:08.033Z</time></trkpt><trkpt lat="34.318775" lon="-6.511795"><ele>9.0</ele><time>2026-04-27T13:33:09.033Z</time></trkpt><trkpt lat="34.3190333" lon="-6.5117567"><ele>9.0</ele><time>2026-04-27T13:33:10.033Z</time></trkpt><trkpt lat="34.3192917" lon="-6.51172"><ele>9.0</ele><time>2026-04-27T13:33:11.033Z</time></trkpt><trkpt lat="34.3195467" lon="-6.5116817"><ele>8.5</ele><time>2026-04-27T13:33:12.033Z</time></trkpt><trkpt lat="34.319805" lon="-6.5116417"><ele>8.0</ele><time>2026-04-27T13:33:13.033Z</time></trkpt><trkpt lat="34.3200633" lon="-6.5115967"><ele>8.0</ele><time>2026-04-27T13:33:14.033Z</time></trkpt><trkpt lat="34.3203267" lon="-6.5115583"><ele>8.0</ele><time>2026-04-27T13:33:15.033Z</time></trkpt><trkpt lat="34.3205917" lon="-6.5115183"><ele>8.0</ele><time>2026-04-27T13:33:16.033Z</time></trkpt><trkpt lat="34.32086" lon="-6.5114767"><ele>8.0</ele><time>2026-04-27T13:33:17.033Z</time></trkpt><trkpt lat="34.321125" lon="-6.5114383"><ele>8.0</ele><time>2026-04-27T13:33:18.033Z</time></trkpt><trkpt lat="34.3213883" lon="-6.5113983"><ele>8.0</ele><time>2026-04-27T13:33:19.033Z</time></trkpt><trkpt lat="34.321655" lon="-6.5113533"><ele>7.5</ele><time>2026-04-27T13:33:20.033Z</time></trkpt><trkpt lat="34.321925" lon="-6.511305"><ele>7.0</ele><time>2026-04-27T13:33:21.033Z</time></trkpt><trkpt lat="34.322195" lon="-6.5112617"><ele>7.5</ele><time>2026-04-27T13:33:22.033Z</time></trkpt><trkpt lat="34.3224683" lon="-6.51122"><ele>8.0</ele><time>2026-04-27T13:33:23.033Z</time></trkpt><trkpt lat="34.3227433" lon="-6.511175"><ele>8.0</ele><time>2026-04-27T13:33:24.033Z</time></trkpt><trkpt lat="34.3230217" lon="-6.5111333"><ele>8.0</ele><time>2026-04-27T13:33:25.033Z</time></trkpt><trkpt lat="34.3233017" lon="-6.511085"><ele>7.5</ele><time>2026-04-27T13:33:26.033Z</time></trkpt><trkpt lat="34.323585" lon="-6.51104"><ele>7.0</ele><time>2026-04-27T13:33:27.033Z</time></trkpt><trkpt lat="34.3238633" lon="-6.510995"><ele>8.0</ele><time>2026-04-27T13:33:28.033Z</time></trkpt><trkpt lat="34.3241433" lon="-6.51095"><ele>9.0</ele><time>2026-04-27T13:33:29.033Z</time></trkpt><trkpt lat="34.3244283" lon="-6.5109"><ele>9.0</ele><time>2026-04-27T13:33:30.033Z</time></trkpt><trkpt lat="34.3247133" lon="-6.5108533"><ele>9.0</ele><time>2026-04-27T13:33:31.033Z</time></trkpt><trkpt lat="34.3249967" lon="-6.5108083"><ele>8.5</ele><time>2026-04-27T13:33:32.033Z</time></trkpt><trkpt lat="34.32528" lon="-6.51076"><ele>8.0</ele><time>2026-04-27T13:33:33.033Z</time></trkpt><trkpt lat="34.3255617" lon="-6.5107117"><ele>8.0</ele><time>2026-04-27T13:33:34.033Z</time></trkpt><trkpt lat="34.3258467" lon="-6.5106633"><ele>8.0</ele><time>2026-04-27T13:33:35.033Z</time></trkpt><trkpt lat="34.3261317" lon="-6.5106183"><ele>7.0</ele><time>2026-04-27T13:33:36.033Z</time></trkpt><trkpt lat="34.32642" lon="-6.5105683"><ele>6.0</ele><time>2026-04-27T13:33:37.033Z</time></trkpt><trkpt lat="34.3267083" lon="-6.5105233"><ele>6.0</ele><time>2026-04-27T13:33:38.033Z</time></trkpt><trkpt lat="34.3269967" lon="-6.51048"><ele>6.0</ele><time>2026-04-27T13:33:39.033Z</time></trkpt><trkpt lat="34.3272883" lon="-6.510435"><ele>5.5</ele><time>2026-04-27T13:33:40.033Z</time></trkpt><trkpt lat="34.32758" lon="-6.5103883"><ele>5.0</ele><time>2026-04-27T13:33:41.033Z</time></trkpt><trkpt lat="34.32787" lon="-6.5103467"><ele>5.0</ele><time>2026-04-27T13:33:42.033Z</time></trkpt><trkpt lat="34.32816" lon="-6.5103"><ele>5.0</ele><time>2026-04-27T13:33:43.033Z</time></trkpt><trkpt lat="34.3284483" lon="-6.5102567"><ele>5.0</ele><time>2026-04-27T13:33:44.033Z</time></trkpt><trkpt lat="34.3287383" lon="-6.5102167"><ele>5.0</ele><time>2026-04-27T13:33:45.032Z</time></trkpt><trkpt lat="34.3290267" lon="-6.5101733"><ele>5.5</ele><time>2026-04-27T13:33:46.033Z</time></trkpt><trkpt lat="34.3293167" lon="-6.510125"><ele>6.0</ele><time>2026-04-27T13:33:47.033Z</time></trkpt><trkpt lat="34.3296083" lon="-6.5100767"><ele>5.5</ele><time>2026-04-27T13:33:48.033Z</time></trkpt><trkpt lat="34.329905" lon="-6.510025"><ele>5.0</ele><time>2026-04-27T13:33:49.033Z</time></trkpt><trkpt lat="34.3302033" lon="-6.50998"><ele>5.0</ele><time>2026-04-27T13:33:50.033Z</time></trkpt><trkpt lat="34.3304967" lon="-6.509935"><ele>5.0</ele><time>2026-04-27T13:33:51.033Z</time></trkpt><trkpt lat="34.3307917" lon="-6.5098883"><ele>6.0</ele><time>2026-04-27T13:33:52.032Z</time></trkpt><trkpt lat="34.3310833" lon="-6.50984"><ele>7.0</ele><time>2026-04-27T13:33:53.032Z</time></trkpt><trkpt lat="34.3313783" lon="-6.509795"><ele>6.5</ele><time>2026-04-27T13:33:54.032Z</time></trkpt><trkpt lat="34.33167" lon="-6.50975"><ele>6.0</ele><time>2026-04-27T13:33:55.032Z</time></trkpt><trkpt lat="34.3319633" lon="-6.509705"><ele>7.0</ele><time>2026-04-27T13:33:56.032Z</time></trkpt><trkpt lat="34.332255" lon="-6.5096633"><ele>8.0</ele><time>2026-04-27T13:33:57.032Z</time></trkpt><trkpt lat="34.3325483" lon="-6.509625"><ele>8.0</ele><time>2026-04-27T13:33:58.031Z</time></trkpt><trkpt lat="34.3328417" lon="-6.5095867"><ele>8.0</ele><time>2026-04-27T13:33:59.031Z</time></trkpt><trkpt lat="34.3331317" lon="-6.5095467"><ele>7.0</ele><time>2026-04-27T13:34:00.032Z</time></trkpt><trkpt lat="34.33342" lon="-6.5095"><ele>6.0</ele><time>2026-04-27T13:34:01.032Z</time></trkpt><trkpt lat="34.33371" lon="-6.509455"><ele>5.0</ele><time>2026-04-27T13:34:02.032Z</time></trkpt><trkpt lat="34.3340017" lon="-6.5094083"><ele>4.0</ele><time>2026-04-27T13:34:03.032Z</time></trkpt><trkpt lat="34.3342917" lon="-6.5093617"><ele>4.0</ele><time>2026-04-27T13:34:04.032Z</time></trkpt><trkpt lat="34.3345883" lon="-6.5093167"><ele>4.0</ele><time>2026-04-27T13:34:05.032Z</time></trkpt><trkpt lat="34.33488" lon="-6.5092717"><ele>2.5</ele><time>2026-04-27T13:34:06.032Z</time></trkpt><trkpt lat="34.3351717" lon="-6.5092233"><ele>1.0</ele><time>2026-04-27T13:34:07.032Z</time></trkpt><trkpt lat="34.33546" lon="-6.50918"><ele>2.0</ele><time>2026-04-27T13:34:08.032Z</time></trkpt><trkpt lat="34.3357433" lon="-6.5091367"><ele>3.0</ele><time>2026-04-27T13:34:09.032Z</time></trkpt><trkpt lat="34.3360233" lon="-6.50909"><ele>3.0</ele><time>2026-04-27T13:34:10.032Z</time></trkpt><trkpt lat="34.3363117" lon="-6.5090433"><ele>3.0</ele><time>2026-04-27T13:34:11.032Z</time></trkpt><trkpt lat="34.3366" lon="-6.50899"><ele>5.5</ele><time>2026-04-27T13:34:12.032Z</time></trkpt><trkpt lat="34.33689" lon="-6.508935"><ele>8.0</ele><time>2026-04-27T13:34:13.032Z</time></trkpt><trkpt lat="34.3371767" lon="-6.5088817"><ele>7.5</ele><time>2026-04-27T13:34:14.032Z</time></trkpt><trkpt lat="34.337465" lon="-6.50883"><ele>7.0</ele><time>2026-04-27T13:34:15.032Z</time></trkpt><trkpt lat="34.3377533" lon="-6.5087783"><ele>7.0</ele><time>2026-04-27T13:34:16.032Z</time></trkpt><trkpt lat="34.3380417" lon="-6.50873"><ele>7.0</ele><time>2026-04-27T13:34:17.032Z</time></trkpt><trkpt lat="34.33833" lon="-6.5086817"><ele>7.0</ele><time>2026-04-27T13:34:18.032Z</time></trkpt><trkpt lat="34.338615" lon="-6.5086367"><ele>7.0</ele><time>2026-04-27T13:34:19.031Z</time></trkpt><trkpt lat="34.3389017" lon="-6.50859"><ele>7.0</ele><time>2026-04-27T13:34:20.032Z</time></trkpt><trkpt lat="34.3391867" lon="-6.5085467"><ele>7.0</ele><time>2026-04-27T13:34:21.032Z</time></trkpt><trkpt lat="34.3394683" lon="-6.5085033"><ele>6.5</ele><time>2026-04-27T13:34:22.032Z</time></trkpt><trkpt lat="34.3397483" lon="-6.50846"><ele>6.0</ele><time>2026-04-27T13:34:23.032Z</time></trkpt><trkpt lat="34.3400233" lon="-6.5084283"><ele>6.0</ele><time>2026-04-27T13:34:24.032Z</time></trkpt><trkpt lat="34.3403" lon="-6.5083983"><ele>6.0</ele><time>2026-04-27T13:34:25.031Z</time></trkpt><trkpt lat="34.340575" lon="-6.5083733"><ele>6.5</ele><time>2026-04-27T13:34:26.032Z</time></trkpt><trkpt lat="34.3408467" lon="-6.5083533"><ele>7.0</ele><time>2026-04-27T13:34:27.032Z</time></trkpt><trkpt lat="34.3411183" lon="-6.5083467"><ele>8.0</ele><time>2026-04-27T13:34:28.032Z</time></trkpt><trkpt lat="34.3413883" lon="-6.5083467"><ele>9.0</ele><time>2026-04-27T13:34:29.032Z</time></trkpt><trkpt lat="34.3416583" lon="-6.5083467"><ele>9.0</ele><time>2026-04-27T13:34:30.032Z</time></trkpt><trkpt lat="34.3419283" lon="-6.5083567"><ele>9.0</ele><time>2026-04-27T13:34:31.032Z</time></trkpt><trkpt lat="34.3421983" lon="-6.5083683"><ele>8.5</ele><time>2026-04-27T13:34:32.032Z</time></trkpt><trkpt lat="34.3424717" lon="-6.5083867"><ele>8.0</ele><time>2026-04-27T13:34:33.032Z</time></trkpt><trkpt lat="34.3427433" lon="-6.5084183"><ele>8.0</ele><time>2026-04-27T13:34:34.032Z</time></trkpt><trkpt lat="34.343015" lon="-6.5084533"><ele>8.0</ele><time>2026-04-27T13:34:35.032Z</time></trkpt><trkpt lat="34.343285" lon="-6.5085"><ele>7.0</ele><time>2026-04-27T13:34:36.032Z</time></trkpt><trkpt lat="34.34356" lon="-6.50855"><ele>6.0</ele><time>2026-04-27T13:34:37.032Z</time></trkpt><trkpt lat="34.3438317" lon="-6.5086017"><ele>6.0</ele><time>2026-04-27T13:34:38.032Z</time></trkpt><trkpt lat="34.3441" lon="-6.50866"><ele>6.0</ele><time>2026-04-27T13:34:39.032Z</time></trkpt><trkpt lat="34.344375" lon="-6.5087267"><ele>6.0</ele><time>2026-04-27T13:34:40.032Z</time></trkpt><trkpt lat="34.3446483" lon="-6.5088"><ele>6.0</ele><time>2026-04-27T13:34:41.032Z</time></trkpt><trkpt lat="34.34492" lon="-6.5088833"><ele>6.0</ele><time>2026-04-27T13:34:42.032Z</time></trkpt><trkpt lat="34.3451867" lon="-6.508975"><ele>6.0</ele><time>2026-04-27T13:34:43.032Z</time></trkpt><trkpt lat="34.3454533" lon="-6.5090717"><ele>6.0</ele><time>2026-04-27T13:34:44.032Z</time></trkpt><trkpt lat="34.3457133" lon="-6.509175"><ele>6.0</ele><time>2026-04-27T13:34:45.032Z</time></trkpt><trkpt lat="34.3459733" lon="-6.509285"><ele>6.0</ele><time>2026-04-27T13:34:46.032Z</time></trkpt><trkpt lat="34.3462367" lon="-6.5093983"><ele>6.0</ele><time>2026-04-27T13:34:47.032Z</time></trkpt><trkpt lat="34.3465017" lon="-6.5095133"><ele>6.0</ele><time>2026-04-27T13:34:48.032Z</time></trkpt><trkpt lat="34.346765" lon="-6.50963"><ele>6.0</ele><time>2026-04-27T13:34:49.032Z</time></trkpt><trkpt lat="34.3470267" lon="-6.5097517"><ele>6.5</ele><time>2026-04-27T13:34:50.032Z</time></trkpt><trkpt lat="34.3472883" lon="-6.5098783"><ele>7.0</ele><time>2026-04-27T13:34:51.032Z</time></trkpt><trkpt lat="34.3475467" lon="-6.5100067"><ele>7.0</ele><time>2026-04-27T13:34:52.031Z</time></trkpt><trkpt lat="34.3478033" lon="-6.5101383"><ele>7.0</ele><time>2026-04-27T13:34:53.032Z</time></trkpt><trkpt lat="34.3480633" lon="-6.51027"><ele>6.0</ele><time>2026-04-27T13:34:54.031Z</time></trkpt><trkpt lat="34.3483167" lon="-6.5104017"><ele>5.0</ele><time>2026-04-27T13:34:55.032Z</time></trkpt><trkpt lat="34.348575" lon="-6.5105333"><ele>5.0</ele><time>2026-04-27T13:34:56.032Z</time></trkpt><trkpt lat="34.3488333" lon="-6.5106667"><ele>5.0</ele><time>2026-04-27T13:34:57.032Z</time></trkpt><trkpt lat="34.3490933" lon="-6.510795"><ele>6.5</ele><time>2026-04-27T13:34:58.031Z</time></trkpt><trkpt lat="34.3493467" lon="-6.51092"><ele>8.0</ele><time>2026-04-27T13:34:59.031Z</time></trkpt><trkpt lat="34.3496033" lon="-6.511045"><ele>7.5</ele><time>2026-04-27T13:35:00.032Z</time></trkpt><trkpt lat="34.3498617" lon="-6.51117"><ele>7.0</ele><time>2026-04-27T13:35:01.032Z</time></trkpt><trkpt lat="34.35012" lon="-6.5112983"><ele>7.0</ele><time>2026-04-27T13:35:02.032Z</time></trkpt><trkpt lat="34.3503783" lon="-6.5114267"><ele>7.0</ele><time>2026-04-27T13:35:03.032Z</time></trkpt><trkpt lat="34.3506367" lon="-6.5115533"><ele>7.0</ele><time>2026-04-27T13:35:04.031Z</time></trkpt><trkpt lat="34.350895" lon="-6.5116867"><ele>7.0</ele><time>2026-04-27T13:35:05.032Z</time></trkpt><trkpt lat="34.35115" lon="-6.5118133"><ele>7.5</ele><time>2026-04-27T13:35:06.032Z</time></trkpt><trkpt lat="34.351405" lon="-6.5119433"><ele>8.0</ele><time>2026-04-27T13:35:07.032Z</time></trkpt><trkpt lat="34.3516583" lon="-6.5120717"><ele>8.0</ele><time>2026-04-27T13:35:08.032Z</time></trkpt><trkpt lat="34.351915" lon="-6.5121983"><ele>8.0</ele><time>2026-04-27T13:35:09.032Z</time></trkpt><trkpt lat="34.35217" lon="-6.5123233"><ele>8.0</ele><time>2026-04-27T13:35:10.032Z</time></trkpt><trkpt lat="34.3524233" lon="-6.5124517"><ele>8.0</ele><time>2026-04-27T13:35:11.032Z</time></trkpt><trkpt lat="34.3526783" lon="-6.5125767"><ele>8.0</ele><time>2026-04-27T13:35:12.032Z</time></trkpt><trkpt lat="34.352935" lon="-6.512705"><ele>8.0</ele><time>2026-04-27T13:35:13.032Z</time></trkpt><trkpt lat="34.35319" lon="-6.5128317"><ele>7.0</ele><time>2026-04-27T13:35:14.032Z</time></trkpt><trkpt lat="34.3534417" lon="-6.5129617"><ele>6.0</ele><time>2026-04-27T13:35:15.032Z</time></trkpt><trkpt lat="34.3536933" lon="-6.51309"><ele>5.5</ele><time>2026-04-27T13:35:16.032Z</time></trkpt><trkpt lat="34.353945" lon="-6.5132183"><ele>5.0</ele><time>2026-04-27T13:35:17.032Z</time></trkpt><trkpt lat="34.3541967" lon="-6.5133483"><ele>5.0</ele><time>2026-04-27T13:35:18.032Z</time></trkpt><trkpt lat="34.35445" lon="-6.5134783"><ele>5.0</ele><time>2026-04-27T13:35:19.032Z</time></trkpt><trkpt lat="34.354705" lon="-6.5136067"><ele>5.0</ele><time>2026-04-27T13:35:20.032Z</time></trkpt><trkpt lat="34.3549583" lon="-6.5137333"><ele>5.0</ele><time>2026-04-27T13:35:21.032Z</time></trkpt><trkpt lat="34.3552133" lon="-6.5138617"><ele>5.0</ele><time>2026-04-27T13:35:22.032Z</time></trkpt><trkpt lat="34.3554667" lon="-6.51399"><ele>5.0</ele><time>2026-04-27T13:35:23.032Z</time></trkpt><trkpt lat="34.3557183" lon="-6.51412"><ele>5.0</ele><time>2026-04-27T13:35:24.032Z</time></trkpt><trkpt lat="34.3559733" lon="-6.514245"><ele>5.0</ele><time>2026-04-27T13:35:25.032Z</time></trkpt><trkpt lat="34.3562317" lon="-6.51437"><ele>5.0</ele><time>2026-04-27T13:35:26.032Z</time></trkpt><trkpt lat="34.3564833" lon="-6.5144967"><ele>5.0</ele><time>2026-04-27T13:35:27.031Z</time></trkpt><trkpt lat="34.35674" lon="-6.5146233"><ele>5.5</ele><time>2026-04-27T13:35:28.032Z</time></trkpt><trkpt lat="34.3569967" lon="-6.51475"><ele>6.0</ele><time>2026-04-27T13:35:29.032Z</time></trkpt><trkpt lat="34.3572533" lon="-6.51488"><ele>6.0</ele><time>2026-04-27T13:35:30.032Z</time></trkpt><trkpt lat="34.3575133" lon="-6.5150083"><ele>6.0</ele><time>2026-04-27T13:35:31.032Z</time></trkpt><trkpt lat="34.35777" lon="-6.515135"><ele>6.0</ele><time>2026-04-27T13:35:32.032Z</time></trkpt><trkpt lat="34.3580267" lon="-6.5152617"><ele>6.0</ele><time>2026-04-27T13:35:33.032Z</time></trkpt><trkpt lat="34.358285" lon="-6.5153933"><ele>6.0</ele><time>2026-04-27T13:35:34.031Z</time></trkpt><trkpt lat="34.3585433" lon="-6.5155233"><ele>6.0</ele><time>2026-04-27T13:35:35.032Z</time></trkpt><trkpt lat="34.3588033" lon="-6.5156533"><ele>7.5</ele><time>2026-04-27T13:35:36.032Z</time></trkpt><trkpt lat="34.3590617" lon="-6.5157833"><ele>9.0</ele><time>2026-04-27T13:35:37.032Z</time></trkpt><trkpt lat="34.3593183" lon="-6.5159117"><ele>9.0</ele><time>2026-04-27T13:35:38.031Z</time></trkpt><trkpt lat="34.3595783" lon="-6.5160417"><ele>9.0</ele><time>2026-04-27T13:35:39.032Z</time></trkpt><trkpt lat="34.3598383" lon="-6.5161717"><ele>8.0</ele><time>2026-04-27T13:35:40.031Z</time></trkpt><trkpt lat="34.3601" lon="-6.5163033"><ele>7.0</ele><time>2026-04-27T13:35:41.032Z</time></trkpt><trkpt lat="34.3603583" lon="-6.5164333"><ele>7.5</ele><time>2026-04-27T13:35:42.032Z</time></trkpt><trkpt lat="34.3606167" lon="-6.516565"><ele>8.0</ele><time>2026-04-27T13:35:43.032Z</time></trkpt><trkpt lat="34.3608767" lon="-6.5167"><ele>8.0</ele><time>2026-04-27T13:35:44.032Z</time></trkpt><trkpt lat="34.3611383" lon="-6.5168317"><ele>8.0</ele><time>2026-04-27T13:35:45.032Z</time></trkpt><trkpt lat="34.3614" lon="-6.5169667"><ele>9.0</ele><time>2026-04-27T13:35:46.032Z</time></trkpt><trkpt lat="34.3616617" lon="-6.5170983"><ele>10.0</ele><time>2026-04-27T13:35:47.032Z</time></trkpt><trkpt lat="34.361925" lon="-6.51723"><ele>10.0</ele><time>2026-04-27T13:35:48.031Z</time></trkpt><trkpt lat="34.36219" lon="-6.5173583"><ele>10.0</ele><time>2026-04-27T13:35:49.032Z</time></trkpt><trkpt lat="34.36245" lon="-6.5174917"><ele>9.5</ele><time>2026-04-27T13:35:50.031Z</time></trkpt><trkpt lat="34.3627133" lon="-6.5176217"><ele>9.0</ele><time>2026-04-27T13:35:51.032Z</time></trkpt><trkpt lat="34.3629783" lon="-6.517755"><ele>9.0</ele><time>2026-04-27T13:35:52.032Z</time></trkpt><trkpt lat="34.3632433" lon="-6.5178883"><ele>9.0</ele><time>2026-04-27T13:35:53.032Z</time></trkpt><trkpt lat="34.363505" lon="-6.51802"><ele>9.0</ele><time>2026-04-27T13:35:54.032Z</time></trkpt><trkpt lat="34.3637717" lon="-6.5181533"><ele>9.0</ele><time>2026-04-27T13:35:55.032Z</time></trkpt><trkpt lat="34.364035" lon="-6.5182867"><ele>9.0</ele><time>2026-04-27T13:35:56.031Z</time></trkpt><trkpt lat="34.3643017" lon="-6.51842"><ele>9.0</ele><time>2026-04-27T13:35:57.032Z</time></trkpt><trkpt lat="34.364565" lon="-6.51855"><ele>8.5</ele><time>2026-04-27T13:35:58.032Z</time></trkpt><trkpt lat="34.364825" lon="-6.5186717"><ele>8.0</ele><time>2026-04-27T13:35:59.032Z</time></trkpt><trkpt lat="34.3650717" lon="-6.5187833"><ele>8.0</ele><time>2026-04-27T13:36:00.032Z</time></trkpt><trkpt lat="34.365315" lon="-6.5188917"><ele>8.0</ele><time>2026-04-27T13:36:01.032Z</time></trkpt><trkpt lat="34.365565" lon="-6.5189983"><ele>8.0</ele><time>2026-04-27T13:36:02.032Z</time></trkpt><trkpt lat="34.3658183" lon="-6.5190967"><ele>8.0</ele><time>2026-04-27T13:36:03.031Z</time></trkpt><trkpt lat="34.3660767" lon="-6.5191883"><ele>8.0</ele><time>2026-04-27T13:36:04.032Z</time></trkpt><trkpt lat="34.36635" lon="-6.5192717"><ele>8.0</ele><time>2026-04-27T13:36:05.032Z</time></trkpt><trkpt lat="34.3666217" lon="-6.5193517"><ele>8.5</ele><time>2026-04-27T13:36:06.032Z</time></trkpt><trkpt lat="34.3668967" lon="-6.51943"><ele>9.0</ele><time>2026-04-27T13:36:07.032Z</time></trkpt><trkpt lat="34.3671717" lon="-6.5195017"><ele>8.5</ele><time>2026-04-27T13:36:08.032Z</time></trkpt><trkpt lat="34.36745" lon="-6.51957"><ele>8.0</ele><time>2026-04-27T13:36:09.032Z</time></trkpt><trkpt lat="34.3677283" lon="-6.5196333"><ele>8.0</ele><time>2026-04-27T13:36:10.032Z</time></trkpt><trkpt lat="34.3679933" lon="-6.5196983"><ele>8.0</ele><time>2026-04-27T13:36:11.032Z</time></trkpt><trkpt lat="34.3682667" lon="-6.5197517"><ele>7.5</ele><time>2026-04-27T13:36:12.032Z</time></trkpt><trkpt lat="34.3685417" lon="-6.5198"><ele>7.0</ele><time>2026-04-27T13:36:13.032Z</time></trkpt><trkpt lat="34.3688317" lon="-6.5198233"><ele>6.5</ele><time>2026-04-27T13:36:14.032Z</time></trkpt><trkpt lat="34.3691267" lon="-6.51983"><ele>6.0</ele><time>2026-04-27T13:36:15.031Z</time></trkpt><trkpt lat="34.3694133" lon="-6.5198267"><ele>6.0</ele><time>2026-04-27T13:36:16.031Z</time></trkpt><trkpt lat="34.3696983" lon="-6.51983"><ele>6.0</ele><time>2026-04-27T13:36:17.032Z</time></trkpt><trkpt lat="34.3699717" lon="-6.51983"><ele>6.0</ele><time>2026-04-27T13:36:18.032Z</time></trkpt><trkpt lat="34.3702417" lon="-6.5198267"><ele>6.0</ele><time>2026-04-27T13:36:19.032Z</time></trkpt><trkpt lat="34.37051" lon="-6.5198117"><ele>6.0</ele><time>2026-04-27T13:36:20.031Z</time></trkpt><trkpt lat="34.3707783" lon="-6.5197933"><ele>6.0</ele><time>2026-04-27T13:36:21.032Z</time></trkpt><trkpt lat="34.3710517" lon="-6.5197617"><ele>6.0</ele><time>2026-04-27T13:36:22.032Z</time></trkpt><trkpt lat="34.3713217" lon="-6.51973"><ele>6.0</ele><time>2026-04-27T13:36:23.031Z</time></trkpt><trkpt lat="34.3715967" lon="-6.5196967"><ele>6.0</ele><time>2026-04-27T13:36:24.032Z</time></trkpt><trkpt lat="34.371865" lon="-6.5196533"><ele>6.0</ele><time>2026-04-27T13:36:25.032Z</time></trkpt><trkpt lat="34.3721367" lon="-6.519605"><ele>6.5</ele><time>2026-04-27T13:36:26.032Z</time></trkpt><trkpt lat="34.3724083" lon="-6.5195467"><ele>7.0</ele><time>2026-04-27T13:36:27.032Z</time></trkpt><trkpt lat="34.37268" lon="-6.5194833"><ele>7.0</ele><time>2026-04-27T13:36:28.032Z</time></trkpt><trkpt lat="34.3729533" lon="-6.5194083"><ele>7.0</ele><time>2026-04-27T13:36:29.032Z</time></trkpt><trkpt lat="34.3732233" lon="-6.519335"><ele>7.5</ele><time>2026-04-27T13:36:30.032Z</time></trkpt><trkpt lat="34.3734933" lon="-6.5192567"><ele>8.0</ele><time>2026-04-27T13:36:31.032Z</time></trkpt><trkpt lat="34.373755" lon="-6.519165"><ele>7.5</ele><time>2026-04-27T13:36:32.032Z</time></trkpt><trkpt lat="34.3740217" lon="-6.5190767"><ele>7.0</ele><time>2026-04-27T13:36:33.032Z</time></trkpt><trkpt lat="34.3742833" lon="-6.5189917"><ele>7.0</ele><time>2026-04-27T13:36:34.032Z</time></trkpt><trkpt lat="34.3745433" lon="-6.5189067"><ele>7.0</ele><time>2026-04-27T13:36:35.032Z</time></trkpt><trkpt lat="34.3747983" lon="-6.5188183"><ele>7.0</ele><time>2026-04-27T13:36:36.031Z</time></trkpt><trkpt lat="34.3750567" lon="-6.51873"><ele>7.0</ele><time>2026-04-27T13:36:37.032Z</time></trkpt><trkpt lat="34.3753167" lon="-6.5186467"><ele>6.5</ele><time>2026-04-27T13:36:38.032Z</time></trkpt><trkpt lat="34.37557" lon="-6.5185633"><ele>6.0</ele><time>2026-04-27T13:36:39.032Z</time></trkpt><trkpt lat="34.37582" lon="-6.5184833"><ele>6.0</ele><time>2026-04-27T13:36:40.032Z</time></trkpt><trkpt lat="34.3760667" lon="-6.5184017"><ele>6.0</ele><time>2026-04-27T13:36:41.032Z</time></trkpt><trkpt lat="34.376315" lon="-6.5183133"><ele>6.0</ele><time>2026-04-27T13:36:42.032Z</time></trkpt><trkpt lat="34.3765617" lon="-6.5182317"><ele>6.0</ele><time>2026-04-27T13:36:43.032Z</time></trkpt><trkpt lat="34.376815" lon="-6.51815"><ele>6.0</ele><time>2026-04-27T13:36:44.032Z</time></trkpt><trkpt lat="34.37707" lon="-6.518065"><ele>6.0</ele><time>2026-04-27T13:36:45.032Z</time></trkpt><trkpt lat="34.3773283" lon="-6.5179733"><ele>6.0</ele><time>2026-04-27T13:36:46.032Z</time></trkpt><trkpt lat="34.37759" lon="-6.5178867"><ele>6.0</ele><time>2026-04-27T13:36:47.032Z</time></trkpt><trkpt lat="34.3778483" lon="-6.5178083"><ele>6.0</ele><time>2026-04-27T13:36:48.032Z</time></trkpt><trkpt lat="34.3781" lon="-6.5177233"><ele>6.0</ele><time>2026-04-27T13:36:49.031Z</time></trkpt><trkpt lat="34.3783533" lon="-6.5176367"><ele>6.0</ele><time>2026-04-27T13:36:50.032Z</time></trkpt><trkpt lat="34.378605" lon="-6.51755"><ele>6.0</ele><time>2026-04-27T13:36:51.032Z</time></trkpt><trkpt lat="34.3788583" lon="-6.5174717"><ele>6.0</ele><time>2026-04-27T13:36:52.032Z</time></trkpt><trkpt lat="34.3791133" lon="-6.5173883"><ele>6.0</ele><time>2026-04-27T13:36:53.032Z</time></trkpt><trkpt lat="34.3793667" lon="-6.517305"><ele>6.0</ele><time>2026-04-27T13:36:54.032Z</time></trkpt><trkpt lat="34.3796283" lon="-6.5172167"><ele>6.0</ele><time>2026-04-27T13:36:55.031Z</time></trkpt><trkpt lat="34.3798917" lon="-6.5171283"><ele>6.5</ele><time>2026-04-27T13:36:56.032Z</time></trkpt><trkpt lat="34.380165" lon="-6.51704"><ele>7.0</ele><time>2026-04-27T13:36:57.032Z</time></trkpt><trkpt lat="34.38044" lon="-6.5169517"><ele>7.0</ele><time>2026-04-27T13:36:58.032Z</time></trkpt><trkpt lat="34.3807167" lon="-6.51686"><ele>7.0</ele><time>2026-04-27T13:36:59.032Z</time></trkpt><trkpt lat="34.3809983" lon="-6.5167667"><ele>7.0</ele><time>2026-04-27T13:37:00.032Z</time></trkpt><trkpt lat="34.3812817" lon="-6.51667"><ele>7.0</ele><time>2026-04-27T13:37:01.032Z</time></trkpt><trkpt lat="34.3815617" lon="-6.516575"><ele>7.0</ele><time>2026-04-27T13:37:02.032Z</time></trkpt><trkpt lat="34.381845" lon="-6.5164817"><ele>7.0</ele><time>2026-04-27T13:37:03.032Z</time></trkpt><trkpt lat="34.382125" lon="-6.51639"><ele>7.0</ele><time>2026-04-27T13:37:04.032Z</time></trkpt><trkpt lat="34.3824067" lon="-6.5162933"><ele>7.0</ele><time>2026-04-27T13:37:05.032Z</time></trkpt><trkpt lat="34.38269" lon="-6.5161983"><ele>7.0</ele><time>2026-04-27T13:37:06.032Z</time></trkpt><trkpt lat="34.382975" lon="-6.5161033"><ele>7.0</ele><time>2026-04-27T13:37:07.032Z</time></trkpt><trkpt lat="34.383255" lon="-6.51601"><ele>7.5</ele><time>2026-04-27T13:37:08.032Z</time></trkpt><trkpt lat="34.3835333" lon="-6.51592"><ele>8.0</ele><time>2026-04-27T13:37:09.032Z</time></trkpt><trkpt lat="34.3838083" lon="-6.5158267"><ele>7.5</ele><time>2026-04-27T13:37:10.032Z</time></trkpt><trkpt lat="34.3840833" lon="-6.51574"><ele>7.0</ele><time>2026-04-27T13:37:11.031Z</time></trkpt><trkpt lat="34.3843467" lon="-6.5156533"><ele>7.0</ele><time>2026-04-27T13:37:12.032Z</time></trkpt><trkpt lat="34.3846133" lon="-6.515565"><ele>7.0</ele><time>2026-04-27T13:37:13.032Z</time></trkpt><trkpt lat="34.38488" lon="-6.5154733"><ele>5.5</ele><time>2026-04-27T13:37:14.032Z</time></trkpt><trkpt lat="34.3851483" lon="-6.515385"><ele>4.0</ele><time>2026-04-27T13:37:15.032Z</time></trkpt><trkpt lat="34.3854217" lon="-6.5152967"><ele>5.5</ele><time>2026-04-27T13:37:16.032Z</time></trkpt><trkpt lat="34.385695" lon="-6.515205"><ele>7.0</ele><time>2026-04-27T13:37:17.032Z</time></trkpt><trkpt lat="34.3859667" lon="-6.5151133"><ele>7.0</ele><time>2026-04-27T13:37:18.031Z</time></trkpt><trkpt lat="34.38624" lon="-6.515025"><ele>7.0</ele><time>2026-04-27T13:37:19.032Z</time></trkpt><trkpt lat="34.3865133" lon="-6.5149417"><ele>9.0</ele><time>2026-04-27T13:37:20.032Z</time></trkpt><trkpt lat="34.3867883" lon="-6.5148617"><ele>11.0</ele><time>2026-04-27T13:37:21.032Z</time></trkpt><trkpt lat="34.38706" lon="-6.5147833"><ele>9.0</ele><time>2026-04-27T13:37:22.032Z</time></trkpt><trkpt lat="34.3873333" lon="-6.514715"><ele>7.0</ele><time>2026-04-27T13:37:23.032Z</time></trkpt><trkpt lat="34.38761" lon="-6.5146517"><ele>7.0</ele><time>2026-04-27T13:37:24.032Z</time></trkpt><trkpt lat="34.3878867" lon="-6.5145983"><ele>7.0</ele><time>2026-04-27T13:37:25.032Z</time></trkpt><trkpt lat="34.3881667" lon="-6.5145517"><ele>6.0</ele><time>2026-04-27T13:37:26.032Z</time></trkpt><trkpt lat="34.3884467" lon="-6.514515"><ele>5.0</ele><time>2026-04-27T13:37:27.032Z</time></trkpt><trkpt lat="34.38873" lon="-6.5144817"><ele>6.0</ele><time>2026-04-27T13:37:28.032Z</time></trkpt><trkpt lat="34.38901" lon="-6.514455"><ele>7.0</ele><time>2026-04-27T13:37:29.032Z</time></trkpt><trkpt lat="34.3892917" lon="-6.51444"><ele>7.0</ele><time>2026-04-27T13:37:30.032Z</time></trkpt><trkpt lat="34.3895683" lon="-6.5144267"><ele>7.0</ele><time>2026-04-27T13:37:31.032Z</time></trkpt><trkpt lat="34.3898483" lon="-6.5144183"><ele>7.0</ele><time>2026-04-27T13:37:32.032Z</time></trkpt><trkpt lat="34.3901267" lon="-6.51442"><ele>7.0</ele><time>2026-04-27T13:37:33.032Z</time></trkpt><trkpt lat="34.3904" lon="-6.5144283"><ele>7.0</ele><time>2026-04-27T13:37:34.032Z</time></trkpt><trkpt lat="34.39067" lon="-6.5144433"><ele>7.0</ele><time>2026-04-27T13:37:35.032Z</time></trkpt><trkpt lat="34.39094" lon="-6.5144633"><ele>7.0</ele><time>2026-04-27T13:37:36.031Z</time></trkpt><trkpt lat="34.391205" lon="-6.5144917"><ele>7.0</ele><time>2026-04-27T13:37:37.032Z</time></trkpt><trkpt lat="34.39147" lon="-6.51453"><ele>7.0</ele><time>2026-04-27T13:37:38.032Z</time></trkpt><trkpt lat="34.391735" lon="-6.5145683"><ele>7.0</ele><time>2026-04-27T13:37:39.032Z</time></trkpt><trkpt lat="34.3920033" lon="-6.5146133"><ele>7.5</ele><time>2026-04-27T13:37:40.032Z</time></trkpt><trkpt lat="34.392275" lon="-6.514665"><ele>8.0</ele><time>2026-04-27T13:37:41.032Z</time></trkpt><trkpt lat="34.3925483" lon="-6.5147217"><ele>8.0</ele><time>2026-04-27T13:37:42.032Z</time></trkpt><trkpt lat="34.3928133" lon="-6.5147933"><ele>8.0</ele><time>2026-04-27T13:37:43.032Z</time></trkpt><trkpt lat="34.3930767" lon="-6.5148717"><ele>8.5</ele><time>2026-04-27T13:37:44.032Z</time></trkpt><trkpt lat="34.3933417" lon="-6.5149533"><ele>9.0</ele><time>2026-04-27T13:37:45.032Z</time></trkpt><trkpt lat="34.3936033" lon="-6.5150383"><ele>9.5</ele><time>2026-04-27T13:37:46.031Z</time></trkpt><trkpt lat="34.3938667" lon="-6.5151333"><ele>10.0</ele><time>2026-04-27T13:37:47.032Z</time></trkpt><trkpt lat="34.3941317" lon="-6.5152317"><ele>10.0</ele><time>2026-04-27T13:37:48.032Z</time></trkpt><trkpt lat="34.3943967" lon="-6.5153367"><ele>10.0</ele><time>2026-04-27T13:37:49.032Z</time></trkpt><trkpt lat="34.39466" lon="-6.5154483"><ele>10.0</ele><time>2026-04-27T13:37:50.032Z</time></trkpt><trkpt lat="34.3949217" lon="-6.5155667"><ele>10.0</ele><time>2026-04-27T13:37:51.031Z</time></trkpt><trkpt lat="34.395185" lon="-6.5156933"><ele>10.0</ele><time>2026-04-27T13:37:52.032Z</time></trkpt><trkpt lat="34.395445" lon="-6.5158283"><ele>10.0</ele><time>2026-04-27T13:37:53.032Z</time></trkpt><trkpt lat="34.3957033" lon="-6.5159717"><ele>10.0</ele><time>2026-04-27T13:37:54.032Z</time></trkpt><trkpt lat="34.3959567" lon="-6.5161183"><ele>10.0</ele><time>2026-04-27T13:37:55.032Z</time></trkpt><trkpt lat="34.3962117" lon="-6.51627"><ele>9.0</ele><time>2026-04-27T13:37:56.032Z</time></trkpt><trkpt lat="34.396465" lon="-6.5164267"><ele>8.0</ele><time>2026-04-27T13:37:57.032Z</time></trkpt><trkpt lat="34.39671" lon="-6.51659"><ele>8.0</ele><time>2026-04-27T13:37:58.031Z</time></trkpt><trkpt lat="34.3969567" lon="-6.5167533"><ele>8.0</ele><time>2026-04-27T13:37:59.032Z</time></trkpt><trkpt lat="34.3972017" lon="-6.5169167"><ele>9.0</ele><time>2026-04-27T13:38:00.032Z</time></trkpt><trkpt lat="34.397445" lon="-6.5170817"><ele>10.0</ele><time>2026-04-27T13:38:01.032Z</time></trkpt><trkpt lat="34.39769" lon="-6.5172467"><ele>10.0</ele><time>2026-04-27T13:38:02.032Z</time></trkpt><trkpt lat="34.3979267" lon="-6.5174117"><ele>10.0</ele><time>2026-04-27T13:38:03.032Z</time></trkpt><trkpt lat="34.3981683" lon="-6.5175783"><ele>10.0</ele><time>2026-04-27T13:38:04.032Z</time></trkpt><trkpt lat="34.3984067" lon="-6.5177417"><ele>10.0</ele><time>2026-04-27T13:38:05.032Z</time></trkpt><trkpt lat="34.3986433" lon="-6.5179067"><ele>10.0</ele><time>2026-04-27T13:38:06.031Z</time></trkpt><trkpt lat="34.398885" lon="-6.5180667"><ele>10.0</ele><time>2026-04-27T13:38:07.032Z</time></trkpt><trkpt lat="34.3991267" lon="-6.518225"><ele>10.0</ele><time>2026-04-27T13:38:08.032Z</time></trkpt><trkpt lat="34.39937" lon="-6.5183867"><ele>10.0</ele><time>2026-04-27T13:38:09.032Z</time></trkpt><trkpt lat="34.3996133" lon="-6.518545"><ele>10.0</ele><time>2026-04-27T13:38:10.032Z</time></trkpt><trkpt lat="34.3998567" lon="-6.5187083"><ele>10.0</ele><time>2026-04-27T13:38:11.032Z</time></trkpt><trkpt lat="34.4000967" lon="-6.518875"><ele>10.0</ele><time>2026-04-27T13:38:12.032Z</time></trkpt><trkpt lat="34.400335" lon="-6.51904"><ele>10.0</ele><time>2026-04-27T13:38:13.031Z</time></trkpt><trkpt lat="34.400575" lon="-6.519205"><ele>10.0</ele><time>2026-04-27T13:38:14.031Z</time></trkpt><trkpt lat="34.4008167" lon="-6.51937"><ele>10.0</ele><time>2026-04-27T13:38:15.031Z</time></trkpt><trkpt lat="34.4010567" lon="-6.519535"><ele>9.5</ele><time>2026-04-27T13:38:16.031Z</time></trkpt><trkpt lat="34.4012983" lon="-6.5197"><ele>9.0</ele><time>2026-04-27T13:38:17.031Z</time></trkpt><trkpt lat="34.4015433" lon="-6.5198633"><ele>10.0</ele><time>2026-04-27T13:38:18.03Z</time></trkpt><trkpt lat="34.40179" lon="-6.52003"><ele>11.0</ele><time>2026-04-27T13:38:19.031Z</time></trkpt><trkpt lat="34.4020317" lon="-6.5201967"><ele>10.5</ele><time>2026-04-27T13:38:20.031Z</time></trkpt><trkpt lat="34.4022767" lon="-6.5203633"><ele>10.0</ele><time>2026-04-27T13:38:21.031Z</time></trkpt><trkpt lat="34.4025183" lon="-6.5205317"><ele>10.0</ele><time>2026-04-27T13:38:22.031Z</time></trkpt><trkpt lat="34.40276" lon="-6.5206983"><ele>10.0</ele><time>2026-04-27T13:38:23.031Z</time></trkpt><trkpt lat="34.403005" lon="-6.52086"><ele>10.5</ele><time>2026-04-27T13:38:24.031Z</time></trkpt><trkpt lat="34.4032517" lon="-6.521025"><ele>11.0</ele><time>2026-04-27T13:38:25.03Z</time></trkpt><trkpt lat="34.4034983" lon="-6.5211933"><ele>11.0</ele><time>2026-04-27T13:38:26.031Z</time></trkpt><trkpt lat="34.403745" lon="-6.5213617"><ele>11.0</ele><time>2026-04-27T13:38:27.031Z</time></trkpt><trkpt lat="34.4039917" lon="-6.5215267"><ele>10.5</ele><time>2026-04-27T13:38:28.031Z</time></trkpt><trkpt lat="34.4042433" lon="-6.52169"><ele>10.0</ele><time>2026-04-27T13:38:29.03Z</time></trkpt><trkpt lat="34.4044917" lon="-6.5218567"><ele>10.0</ele><time>2026-04-27T13:38:30.031Z</time></trkpt><trkpt lat="34.40474" lon="-6.5220167"><ele>10.0</ele><time>2026-04-27T13:38:31.031Z</time></trkpt><trkpt lat="34.4049933" lon="-6.522175"><ele>10.0</ele><time>2026-04-27T13:38:32.031Z</time></trkpt><trkpt lat="34.4052517" lon="-6.5223283"><ele>10.0</ele><time>2026-04-27T13:38:33.031Z</time></trkpt><trkpt lat="34.4055083" lon="-6.5224733"><ele>10.5</ele><time>2026-04-27T13:38:34.031Z</time></trkpt><trkpt lat="34.4057533" lon="-6.522605"><ele>11.0</ele><time>2026-04-27T13:38:35.031Z</time></trkpt><trkpt lat="34.4059933" lon="-6.522725"><ele>11.0</ele><time>2026-04-27T13:38:36.031Z</time></trkpt><trkpt lat="34.406235" lon="-6.52284"><ele>11.0</ele><time>2026-04-27T13:38:37.031Z</time></trkpt><trkpt lat="34.4064783" lon="-6.5229517"><ele>9.0</ele><time>2026-04-27T13:38:38.031Z</time></trkpt><trkpt lat="34.4067267" lon="-6.523065"><ele>7.0</ele><time>2026-04-27T13:38:39.031Z</time></trkpt><trkpt lat="34.4069817" lon="-6.5231733"><ele>8.0</ele><time>2026-04-27T13:38:40.031Z</time></trkpt><trkpt lat="34.4072367" lon="-6.523275"><ele>9.0</ele><time>2026-04-27T13:38:41.031Z</time></trkpt><trkpt lat="34.4074983" lon="-6.52337"><ele>9.0</ele><time>2026-04-27T13:38:42.031Z</time></trkpt><trkpt lat="34.4077617" lon="-6.5234567"><ele>9.0</ele><time>2026-04-27T13:38:43.031Z</time></trkpt><trkpt lat="34.4080267" lon="-6.52354"><ele>9.0</ele><time>2026-04-27T13:38:44.03Z</time></trkpt><trkpt lat="34.4082917" lon="-6.5236133"><ele>9.0</ele><time>2026-04-27T13:38:45.031Z</time></trkpt><trkpt lat="34.4085617" lon="-6.5236833"><ele>8.0</ele><time>2026-04-27T13:38:46.031Z</time></trkpt><trkpt lat="34.408835" lon="-6.5237433"><ele>7.0</ele><time>2026-04-27T13:38:47.031Z</time></trkpt><trkpt lat="34.4091083" lon="-6.5237983"><ele>7.0</ele><time>2026-04-27T13:38:48.03Z</time></trkpt><trkpt lat="34.4093817" lon="-6.52384"><ele>7.0</ele><time>2026-04-27T13:38:49.031Z</time></trkpt><trkpt lat="34.409655" lon="-6.5238833"><ele>7.5</ele><time>2026-04-27T13:38:50.03Z</time></trkpt><trkpt lat="34.40993" lon="-6.5239183"><ele>8.0</ele><time>2026-04-27T13:38:51.031Z</time></trkpt><trkpt lat="34.4102083" lon="-6.5239467"><ele>8.0</ele><time>2026-04-27T13:38:52.03Z</time></trkpt><trkpt lat="34.410485" lon="-6.5239717"><ele>8.0</ele><time>2026-04-27T13:38:53.031Z</time></trkpt><trkpt lat="34.4107633" lon="-6.52399"><ele>7.5</ele><time>2026-04-27T13:38:54.031Z</time></trkpt><trkpt lat="34.4110417" lon="-6.5239967"><ele>7.0</ele><time>2026-04-27T13:38:55.031Z</time></trkpt><trkpt lat="34.4113233" lon="-6.5239967"><ele>8.0</ele><time>2026-04-27T13:38:56.031Z</time></trkpt><trkpt lat="34.411605" lon="-6.5239883"><ele>9.0</ele><time>2026-04-27T13:38:57.031Z</time></trkpt><trkpt lat="34.41189" lon="-6.523975"><ele>9.5</ele><time>2026-04-27T13:38:58.031Z</time></trkpt><trkpt lat="34.41217" lon="-6.5239567"><ele>10.0</ele><time>2026-04-27T13:38:59.031Z</time></trkpt><trkpt lat="34.41245" lon="-6.5239317"><ele>10.0</ele><time>2026-04-27T13:39:00.031Z</time></trkpt><trkpt lat="34.41273" lon="-6.5238917"><ele>10.0</ele><time>2026-04-27T13:39:01.031Z</time></trkpt><trkpt lat="34.41301" lon="-6.5238467"><ele>11.0</ele><time>2026-04-27T13:39:02.031Z</time></trkpt><trkpt lat="34.4132833" lon="-6.5237967"><ele>12.0</ele><time>2026-04-27T13:39:03.031Z</time></trkpt><trkpt lat="34.4135467" lon="-6.5237383"><ele>11.0</ele><time>2026-04-27T13:39:04.031Z</time></trkpt><trkpt lat="34.4138" lon="-6.5236783"><ele>10.0</ele><time>2026-04-27T13:39:05.031Z</time></trkpt><trkpt lat="34.41406" lon="-6.5236167"><ele>10.0</ele><time>2026-04-27T13:39:06.031Z</time></trkpt><trkpt lat="34.4143217" lon="-6.523545"><ele>10.0</ele><time>2026-04-27T13:39:07.031Z</time></trkpt><trkpt lat="34.41458" lon="-6.5234667"><ele>10.0</ele><time>2026-04-27T13:39:08.031Z</time></trkpt><trkpt lat="34.4148467" lon="-6.523385"><ele>10.0</ele><time>2026-04-27T13:39:09.031Z</time></trkpt><trkpt lat="34.415115" lon="-6.5232917"><ele>10.0</ele><time>2026-04-27T13:39:10.031Z</time></trkpt><trkpt lat="34.41538" lon="-6.523195"><ele>10.0</ele><time>2026-04-27T13:39:11.031Z</time></trkpt><trkpt lat="34.4156417" lon="-6.523095"><ele>11.5</ele><time>2026-04-27T13:39:12.031Z</time></trkpt><trkpt lat="34.4159067" lon="-6.52299"><ele>13.0</ele><time>2026-04-27T13:39:13.031Z</time></trkpt><trkpt lat="34.41617" lon="-6.5228767"><ele>14.0</ele><time>2026-04-27T13:39:14.03Z</time></trkpt><trkpt lat="34.4164317" lon="-6.5227633"><ele>15.0</ele><time>2026-04-27T13:39:15.031Z</time></trkpt><trkpt lat="34.41669" lon="-6.5226533"><ele>15.0</ele><time>2026-04-27T13:39:16.031Z</time></trkpt><trkpt lat="34.4169483" lon="-6.5225433"><ele>15.0</ele><time>2026-04-27T13:39:17.031Z</time></trkpt><trkpt lat="34.4172067" lon="-6.5224333"><ele>15.5</ele><time>2026-04-27T13:39:18.031Z</time></trkpt><trkpt lat="34.4174617" lon="-6.5223233"><ele>16.0</ele><time>2026-04-27T13:39:19.031Z</time></trkpt><trkpt lat="34.417715" lon="-6.5222083"><ele>16.0</ele><time>2026-04-27T13:39:20.031Z</time></trkpt><trkpt lat="34.417965" lon="-6.5221067"><ele>16.0</ele><time>2026-04-27T13:39:21.031Z</time></trkpt><trkpt lat="34.418215" lon="-6.5219983"><ele>16.0</ele><time>2026-04-27T13:39:22.03Z</time></trkpt><trkpt lat="34.418465" lon="-6.5218967"><ele>16.0</ele><time>2026-04-27T13:39:23.031Z</time></trkpt><trkpt lat="34.4187117" lon="-6.5217917"><ele>17.0</ele><time>2026-04-27T13:39:24.031Z</time></trkpt><trkpt lat="34.4189633" lon="-6.521685"><ele>18.0</ele><time>2026-04-27T13:39:25.031Z</time></trkpt><trkpt lat="34.419215" lon="-6.52158"><ele>18.0</ele><time>2026-04-27T13:39:26.03Z</time></trkpt><trkpt lat="34.419465" lon="-6.5214717"><ele>18.0</ele><time>2026-04-27T13:39:27.031Z</time></trkpt><trkpt lat="34.4197133" lon="-6.5213667"><ele>19.0</ele><time>2026-04-27T13:39:28.031Z</time></trkpt><trkpt lat="34.419965" lon="-6.5212517"><ele>20.0</ele><time>2026-04-27T13:39:29.03Z</time></trkpt><trkpt lat="34.42022" lon="-6.5211417"><ele>20.0</ele><time>2026-04-27T13:39:30.031Z</time></trkpt><trkpt lat="34.4204783" lon="-6.5210283"><ele>20.0</ele><time>2026-04-27T13:39:31.031Z</time></trkpt><trkpt lat="34.4207417" lon="-6.5209183"><ele>22.0</ele><time>2026-04-27T13:39:32.031Z</time></trkpt><trkpt lat="34.4210083" lon="-6.520805"><ele>24.0</ele><time>2026-04-27T13:39:33.031Z</time></trkpt><trkpt lat="34.4212783" lon="-6.5206917"><ele>26.0</ele><time>2026-04-27T13:39:34.031Z</time></trkpt><trkpt lat="34.4215483" lon="-6.5205767"><ele>28.0</ele><time>2026-04-27T13:39:35.031Z</time></trkpt><trkpt lat="34.4218183" lon="-6.5204583"><ele>27.5</ele><time>2026-04-27T13:39:36.031Z</time></trkpt><trkpt lat="34.422085" lon="-6.52034"><ele>27.0</ele><time>2026-04-27T13:39:37.031Z</time></trkpt><trkpt lat="34.4223567" lon="-6.5202267"><ele>27.0</ele><time>2026-04-27T13:39:38.031Z</time></trkpt><trkpt lat="34.4226283" lon="-6.5201117"><ele>27.0</ele><time>2026-04-27T13:39:39.03Z</time></trkpt><trkpt lat="34.4229" lon="-6.5199933"><ele>27.0</ele><time>2026-04-27T13:39:40.031Z</time></trkpt><trkpt lat="34.4231767" lon="-6.5198733"><ele>27.0</ele><time>2026-04-27T13:39:41.031Z</time></trkpt><trkpt lat="34.423455" lon="-6.5197517"><ele>27.0</ele><time>2026-04-27T13:39:42.031Z</time></trkpt><trkpt lat="34.4237317" lon="-6.519635"><ele>27.0</ele><time>2026-04-27T13:39:43.03Z</time></trkpt><trkpt lat="34.4240083" lon="-6.5195117"><ele>26.0</ele><time>2026-04-27T13:39:44.031Z</time></trkpt><trkpt lat="34.424275" lon="-6.5193967"><ele>25.0</ele><time>2026-04-27T13:39:45.031Z</time></trkpt><trkpt lat="34.424535" lon="-6.51928"><ele>24.5</ele><time>2026-04-27T13:39:46.031Z</time></trkpt><trkpt lat="34.424795" lon="-6.5191633"><ele>24.0</ele><time>2026-04-27T13:39:47.031Z</time></trkpt><trkpt lat="34.42506" lon="-6.5190517"><ele>24.0</ele><time>2026-04-27T13:39:48.031Z</time></trkpt><trkpt lat="34.4253233" lon="-6.51894"><ele>24.0</ele><time>2026-04-27T13:39:49.031Z</time></trkpt><trkpt lat="34.4255867" lon="-6.5188233"><ele>23.0</ele><time>2026-04-27T13:39:50.031Z</time></trkpt><trkpt lat="34.4258517" lon="-6.518705"><ele>22.0</ele><time>2026-04-27T13:39:51.031Z</time></trkpt><trkpt lat="34.4261167" lon="-6.5185883"><ele>22.5</ele><time>2026-04-27T13:39:52.03Z</time></trkpt><trkpt lat="34.4263833" lon="-6.5184717"><ele>23.0</ele><time>2026-04-27T13:39:53.03Z</time></trkpt><trkpt lat="34.4266533" lon="-6.5183517"><ele>23.0</ele><time>2026-04-27T13:39:54.031Z</time></trkpt><trkpt lat="34.4269167" lon="-6.5182267"><ele>23.0</ele><time>2026-04-27T13:39:55.031Z</time></trkpt><trkpt lat="34.4271783" lon="-6.5180933"><ele>23.0</ele><time>2026-04-27T13:39:56.03Z</time></trkpt><trkpt lat="34.42744" lon="-6.5179583"><ele>23.0</ele><time>2026-04-27T13:39:57.031Z</time></trkpt><trkpt lat="34.4276967" lon="-6.5178183"><ele>21.5</ele><time>2026-04-27T13:39:58.031Z</time></trkpt><trkpt lat="34.4279367" lon="-6.517675"><ele>20.0</ele><time>2026-04-27T13:39:59.031Z</time></trkpt><trkpt lat="34.4281733" lon="-6.5175317"><ele>19.0</ele><time>2026-04-27T13:40:00.031Z</time></trkpt><trkpt lat="34.42841" lon="-6.5173767"><ele>18.0</ele><time>2026-04-27T13:40:01.031Z</time></trkpt><trkpt lat="34.428645" lon="-6.5172217"><ele>18.0</ele><time>2026-04-27T13:40:02.031Z</time></trkpt><trkpt lat="34.4288767" lon="-6.517065"><ele>18.0</ele><time>2026-04-27T13:40:03.031Z</time></trkpt><trkpt lat="34.4291083" lon="-6.5168983"><ele>18.0</ele><time>2026-04-27T13:40:04.031Z</time></trkpt><trkpt lat="34.42934" lon="-6.5167333"><ele>18.0</ele><time>2026-04-27T13:40:05.031Z</time></trkpt><trkpt lat="34.4295633" lon="-6.5165567"><ele>18.5</ele><time>2026-04-27T13:40:06.031Z</time></trkpt><trkpt lat="34.42979" lon="-6.5163783"><ele>19.0</ele><time>2026-04-27T13:40:07.031Z</time></trkpt><trkpt lat="34.4300133" lon="-6.5161983"><ele>17.5</ele><time>2026-04-27T13:40:08.031Z</time></trkpt><trkpt lat="34.430235" lon="-6.5160083"><ele>16.0</ele><time>2026-04-27T13:40:09.03Z</time></trkpt><trkpt lat="34.4304533" lon="-6.5158217"><ele>16.5</ele><time>2026-04-27T13:40:10.031Z</time></trkpt><trkpt lat="34.4306733" lon="-6.5156283"><ele>17.0</ele><time>2026-04-27T13:40:11.031Z</time></trkpt><trkpt lat="34.43089" lon="-6.5154317"><ele>17.0</ele><time>2026-04-27T13:40:12.031Z</time></trkpt><trkpt lat="34.4311083" lon="-6.5152317"><ele>17.0</ele><time>2026-04-27T13:40:13.031Z</time></trkpt><trkpt lat="34.4313217" lon="-6.51503"><ele>18.0</ele><time>2026-04-27T13:40:14.031Z</time></trkpt><trkpt lat="34.431535" lon="-6.5148217"><ele>19.0</ele><time>2026-04-27T13:40:15.031Z</time></trkpt><trkpt lat="34.4317383" lon="-6.5146067"><ele>19.5</ele><time>2026-04-27T13:40:16.031Z</time></trkpt><trkpt lat="34.4319483" lon="-6.514395"><ele>20.0</ele><time>2026-04-27T13:40:17.03Z</time></trkpt><trkpt lat="34.4321567" lon="-6.5141833"><ele>20.0</ele><time>2026-04-27T13:40:18.031Z</time></trkpt><trkpt lat="34.432365" lon="-6.5139717"><ele>20.0</ele><time>2026-04-27T13:40:19.031Z</time></trkpt><trkpt lat="34.4325733" lon="-6.5137583"><ele>19.5</ele><time>2026-04-27T13:40:20.03Z</time></trkpt><trkpt lat="34.4327833" lon="-6.51355"><ele>19.0</ele><time>2026-04-27T13:40:21.031Z</time></trkpt><trkpt lat="34.4329917" lon="-6.5133383"><ele>22.0</ele><time>2026-04-27T13:40:22.031Z</time></trkpt><trkpt lat="34.4332" lon="-6.5131283"><ele>25.0</ele><time>2026-04-27T13:40:23.031Z</time></trkpt><trkpt lat="34.4334067" lon="-6.5129217"><ele>25.5</ele><time>2026-04-27T13:40:24.031Z</time></trkpt><trkpt lat="34.4336117" lon="-6.512715"><ele>26.0</ele><time>2026-04-27T13:40:25.031Z</time></trkpt><trkpt lat="34.43382" lon="-6.5125067"><ele>26.0</ele><time>2026-04-27T13:40:26.03Z</time></trkpt><trkpt lat="34.4340283" lon="-6.512305"><ele>26.0</ele><time>2026-04-27T13:40:27.031Z</time></trkpt><trkpt lat="34.43424" lon="-6.512105"><ele>25.0</ele><time>2026-04-27T13:40:28.031Z</time></trkpt><trkpt lat="34.434455" lon="-6.5119067"><ele>24.0</ele><time>2026-04-27T13:40:29.031Z</time></trkpt><trkpt lat="34.434675" lon="-6.5117183"><ele>24.0</ele><time>2026-04-27T13:40:30.031Z</time></trkpt><trkpt lat="34.4349017" lon="-6.51154"><ele>24.0</ele><time>2026-04-27T13:40:31.031Z</time></trkpt><trkpt lat="34.43512" lon="-6.51136"><ele>23.5</ele><time>2026-04-27T13:40:32.031Z</time></trkpt><trkpt lat="34.4353433" lon="-6.5111833"><ele>23.0</ele><time>2026-04-27T13:40:33.031Z</time></trkpt><trkpt lat="34.4355717" lon="-6.51101"><ele>23.0</ele><time>2026-04-27T13:40:34.031Z</time></trkpt><trkpt lat="34.4358033" lon="-6.51084"><ele>23.0</ele><time>2026-04-27T13:40:35.031Z</time></trkpt><trkpt lat="34.4360317" lon="-6.5106717"><ele>23.0</ele><time>2026-04-27T13:40:36.03Z</time></trkpt><trkpt lat="34.4362633" lon="-6.5105167"><ele>23.0</ele><time>2026-04-27T13:40:37.031Z</time></trkpt><trkpt lat="34.4365033" lon="-6.5103633"><ele>23.0</ele><time>2026-04-27T13:40:38.031Z</time></trkpt><trkpt lat="34.4367483" lon="-6.5102133"><ele>23.0</ele><time>2026-04-27T13:40:39.031Z</time></trkpt><trkpt lat="34.4369933" lon="-6.5100617"><ele>22.5</ele><time>2026-04-27T13:40:40.031Z</time></trkpt><trkpt lat="34.4372467" lon="-6.5099133"><ele>22.0</ele><time>2026-04-27T13:40:41.031Z</time></trkpt><trkpt lat="34.4375067" lon="-6.509765"><ele>22.0</ele><time>2026-04-27T13:40:42.031Z</time></trkpt><trkpt lat="34.4377733" lon="-6.509625"><ele>22.0</ele><time>2026-04-27T13:40:43.031Z</time></trkpt><trkpt lat="34.4380367" lon="-6.509485"><ele>21.0</ele><time>2026-04-27T13:40:44.03Z</time></trkpt><trkpt lat="34.4383033" lon="-6.5093467"><ele>20.0</ele><time>2026-04-27T13:40:45.031Z</time></trkpt><trkpt lat="34.438575" lon="-6.5092233"><ele>21.5</ele><time>2026-04-27T13:40:46.031Z</time></trkpt><trkpt lat="34.43885" lon="-6.5090983"><ele>23.0</ele><time>2026-04-27T13:40:47.031Z</time></trkpt><trkpt lat="34.4391267" lon="-6.5089767"><ele>23.0</ele><time>2026-04-27T13:40:48.03Z</time></trkpt><trkpt lat="34.4394067" lon="-6.5088633"><ele>23.0</ele><time>2026-04-27T13:40:49.031Z</time></trkpt><trkpt lat="34.43969" lon="-6.5087533"><ele>21.5</ele><time>2026-04-27T13:40:50.031Z</time></trkpt><trkpt lat="34.4399733" lon="-6.5086433"><ele>20.0</ele><time>2026-04-27T13:40:51.03Z</time></trkpt><trkpt lat="34.4402583" lon="-6.5085383"><ele>21.5</ele><time>2026-04-27T13:40:52.031Z</time></trkpt><trkpt lat="34.4405467" lon="-6.508435"><ele>23.0</ele><time>2026-04-27T13:40:53.03Z</time></trkpt><trkpt lat="34.4408333" lon="-6.5083283"><ele>23.0</ele><time>2026-04-27T13:40:54.031Z</time></trkpt><trkpt lat="34.44112" lon="-6.5082217"><ele>23.0</ele><time>2026-04-27T13:40:55.03Z</time></trkpt><trkpt lat="34.4414067" lon="-6.508115"><ele>23.0</ele><time>2026-04-27T13:40:56.031Z</time></trkpt><trkpt lat="34.4416983" lon="-6.5080083"><ele>23.0</ele><time>2026-04-27T13:40:57.031Z</time></trkpt><trkpt lat="34.441985" lon="-6.5079067"><ele>20.5</ele><time>2026-04-27T13:40:58.031Z</time></trkpt><trkpt lat="34.4422717" lon="-6.5078017"><ele>18.0</ele><time>2026-04-27T13:40:59.031Z</time></trkpt><trkpt lat="34.44256" lon="-6.5077"><ele>18.0</ele><time>2026-04-27T13:41:00.031Z</time></trkpt><trkpt lat="34.4428483" lon="-6.5075933"><ele>18.0</ele><time>2026-04-27T13:41:01.031Z</time></trkpt><trkpt lat="34.4431333" lon="-6.50749"><ele>18.5</ele><time>2026-04-27T13:41:02.031Z</time></trkpt><trkpt lat="34.4434167" lon="-6.5073783"><ele>19.0</ele><time>2026-04-27T13:41:03.031Z</time></trkpt><trkpt lat="34.4437017" lon="-6.50725"><ele>19.5</ele><time>2026-04-27T13:41:04.031Z</time></trkpt><trkpt lat="34.4439783" lon="-6.5071233"><ele>20.0</ele><time>2026-04-27T13:41:05.031Z</time></trkpt><trkpt lat="34.444255" lon="-6.5069867"><ele>20.0</ele><time>2026-04-27T13:41:06.031Z</time></trkpt><trkpt lat="34.4445267" lon="-6.50685"><ele>20.0</ele><time>2026-04-27T13:41:07.031Z</time></trkpt><trkpt lat="34.4447833" lon="-6.50671"><ele>20.0</ele><time>2026-04-27T13:41:08.031Z</time></trkpt><trkpt lat="34.4450267" lon="-6.5065683"><ele>20.0</ele><time>2026-04-27T13:41:09.031Z</time></trkpt><trkpt lat="34.4452667" lon="-6.506425"><ele>20.0</ele><time>2026-04-27T13:41:10.031Z</time></trkpt><trkpt lat="34.4455033" lon="-6.5062833"><ele>20.0</ele><time>2026-04-27T13:41:11.031Z</time></trkpt><trkpt lat="34.4457417" lon="-6.5061333"><ele>18.0</ele><time>2026-04-27T13:41:12.03Z</time></trkpt><trkpt lat="34.4459817" lon="-6.505985"><ele>16.0</ele><time>2026-04-27T13:41:13.031Z</time></trkpt><trkpt lat="34.4462183" lon="-6.5058333"><ele>17.5</ele><time>2026-04-27T13:41:14.031Z</time></trkpt><trkpt lat="34.4464567" lon="-6.5056767"><ele>19.0</ele><time>2026-04-27T13:41:15.031Z</time></trkpt><trkpt lat="34.4466983" lon="-6.5055183"><ele>18.5</ele><time>2026-04-27T13:41:16.031Z</time></trkpt><trkpt lat="34.446935" lon="-6.5053517"><ele>18.0</ele><time>2026-04-27T13:41:17.031Z</time></trkpt><trkpt lat="34.4471783" lon="-6.50518"><ele>19.5</ele><time>2026-04-27T13:41:18.031Z</time></trkpt><trkpt lat="34.4474183" lon="-6.505005"><ele>21.0</ele><time>2026-04-27T13:41:19.031Z</time></trkpt><trkpt lat="34.4476633" lon="-6.5048283"><ele>21.0</ele><time>2026-04-27T13:41:20.031Z</time></trkpt><trkpt lat="34.44791" lon="-6.5046517"><ele>21.0</ele><time>2026-04-27T13:41:21.031Z</time></trkpt><trkpt lat="34.448155" lon="-6.50448"><ele>22.0</ele><time>2026-04-27T13:41:22.031Z</time></trkpt><trkpt lat="34.448395" lon="-6.50431"><ele>23.0</ele><time>2026-04-27T13:41:23.031Z</time></trkpt><trkpt lat="34.448635" lon="-6.5041383"><ele>24.5</ele><time>2026-04-27T13:41:24.031Z</time></trkpt><trkpt lat="34.4488717" lon="-6.5039617"><ele>26.0</ele><time>2026-04-27T13:41:25.031Z</time></trkpt><trkpt lat="34.449115" lon="-6.503785"><ele>23.0</ele><time>2026-04-27T13:41:26.031Z</time></trkpt><trkpt lat="34.44936" lon="-6.5036033"><ele>20.0</ele><time>2026-04-27T13:41:27.031Z</time></trkpt><trkpt lat="34.4496167" lon="-6.5034283"><ele>21.5</ele><time>2026-04-27T13:41:28.031Z</time></trkpt><trkpt lat="34.4498783" lon="-6.5032517"><ele>23.0</ele><time>2026-04-27T13:41:29.031Z</time></trkpt><trkpt lat="34.45014" lon="-6.5030783"><ele>23.0</ele><time>2026-04-27T13:41:30.031Z</time></trkpt><trkpt lat="34.4503983" lon="-6.5029217"><ele>23.0</ele><time>2026-04-27T13:41:31.03Z</time></trkpt><trkpt lat="34.4506467" lon="-6.5027767"><ele>23.0</ele><time>2026-04-27T13:41:32.031Z</time></trkpt><trkpt lat="34.4508833" lon="-6.5026333"><ele>23.0</ele><time>2026-04-27T13:41:33.031Z</time></trkpt><trkpt lat="34.451125" lon="-6.5024967"><ele>24.5</ele><time>2026-04-27T13:41:34.031Z</time></trkpt><trkpt lat="34.4513717" lon="-6.50236"><ele>26.0</ele><time>2026-04-27T13:41:35.031Z</time></trkpt><trkpt lat="34.4516233" lon="-6.5022267"><ele>26.0</ele><time>2026-04-27T13:41:36.031Z</time></trkpt><trkpt lat="34.4518733" lon="-6.5021017"><ele>26.0</ele><time>2026-04-27T13:41:37.031Z</time></trkpt><trkpt lat="34.452125" lon="-6.5019833"><ele>24.0</ele><time>2026-04-27T13:41:38.031Z</time></trkpt><trkpt lat="34.4523667" lon="-6.5018767"><ele>22.0</ele><time>2026-04-27T13:41:39.031Z</time></trkpt><trkpt lat="34.45257" lon="-6.5017817"><ele>22.0</ele><time>2026-04-27T13:41:40.031Z</time></trkpt><trkpt lat="34.4527483" lon="-6.50171"><ele>22.0</ele><time>2026-04-27T13:41:41.031Z</time></trkpt><trkpt lat="34.4529067" lon="-6.5016683"><ele>22.0</ele><time>2026-04-27T13:41:42.031Z</time></trkpt><trkpt lat="34.4530333" lon="-6.501655"><ele>22.200000000000003</ele><time>2026-04-27T13:41:43.031Z</time></trkpt><trkpt lat="34.453155" lon="-6.50165"><ele>22.4</ele><time>2026-04-27T13:41:44.031Z</time></trkpt><trkpt lat="34.4532633" lon="-6.501655"><ele>22.6</ele><time>2026-04-27T13:41:45.031Z</time></trkpt><trkpt lat="34.45336" lon="-6.501655"><ele>22.799999999999997</ele><time>2026-04-27T13:41:46.031Z</time></trkpt><trkpt lat="34.4534483" lon="-6.5016483"><ele>23.0</ele><time>2026-04-27T13:41:47.031Z</time></trkpt><trkpt lat="34.45353" lon="-6.5016283"><ele>23.0</ele><time>2026-04-27T13:41:48.031Z</time></trkpt><trkpt lat="34.45361" lon="-6.5016033"><ele>23.0</ele><time>2026-04-27T13:41:49.031Z</time></trkpt><trkpt lat="34.4536983" lon="-6.5015733"><ele>23.0</ele><time>2026-04-27T13:41:50.031Z</time></trkpt><trkpt lat="34.4538" lon="-6.5015383"><ele>23.0</ele><time>2026-04-27T13:41:51.031Z</time></trkpt><trkpt lat="34.4539017" lon="-6.5015017"><ele>23.0</ele><time>2026-04-27T13:41:52.031Z</time></trkpt><trkpt lat="34.4540067" lon="-6.5014617"><ele>23.75</ele><time>2026-04-27T13:41:53.031Z</time></trkpt><trkpt lat="34.4541183" lon="-6.501425"><ele>24.5</ele><time>2026-04-27T13:41:54.031Z</time></trkpt><trkpt lat="34.4542367" lon="-6.50139"><ele>25.25</ele><time>2026-04-27T13:41:55.03Z</time></trkpt><trkpt lat="34.454355" lon="-6.5013533"><ele>26.0</ele><time>2026-04-27T13:41:56.031Z</time></trkpt><trkpt lat="34.45448" lon="-6.5013167"><ele>26.0</ele><time>2026-04-27T13:41:57.031Z</time></trkpt><trkpt lat="34.454605" lon="-6.501285"><ele>26.0</ele><time>2026-04-27T13:41:58.03Z</time></trkpt><trkpt lat="34.4547383" lon="-6.5012483"><ele>26.0</ele><time>2026-04-27T13:41:59.03Z</time></trkpt><trkpt lat="34.4548717" lon="-6.5012133"><ele>26.0</ele><time>2026-04-27T13:42:00.031Z</time></trkpt><trkpt lat="34.4550017" lon="-6.501175"><ele>25.25</ele><time>2026-04-27T13:42:01.031Z</time></trkpt><trkpt lat="34.4551233" lon="-6.50114"><ele>24.5</ele><time>2026-04-27T13:42:02.031Z</time></trkpt><trkpt lat="34.4552483" lon="-6.5011133"><ele>23.75</ele><time>2026-04-27T13:42:03.031Z</time></trkpt><trkpt lat="34.4553733" lon="-6.50109"><ele>23.0</ele><time>2026-04-27T13:42:04.031Z</time></trkpt><trkpt lat="34.4555033" lon="-6.5010617"><ele>22.75</ele><time>2026-04-27T13:42:05.031Z</time></trkpt><trkpt lat="34.4556383" lon="-6.50103"><ele>22.5</ele><time>2026-04-27T13:42:06.031Z</time></trkpt><trkpt lat="34.4557667" lon="-6.5010017"><ele>22.25</ele><time>2026-04-27T13:42:07.031Z</time></trkpt><trkpt lat="34.4558967" lon="-6.500975"><ele>22.0</ele><time>2026-04-27T13:42:08.031Z</time></trkpt><trkpt lat="34.45603" lon="-6.5009433"><ele>22.0</ele><time>2026-04-27T13:42:09.03Z</time></trkpt><trkpt lat="34.4561633" lon="-6.500905"><ele>22.0</ele><time>2026-04-27T13:42:10.031Z</time></trkpt><trkpt lat="34.4562917" lon="-6.5008833"><ele>22.0</ele><time>2026-04-27T13:42:11.031Z</time></trkpt><trkpt lat="34.4564217" lon="-6.5008567"><ele>22.0</ele><time>2026-04-27T13:42:12.031Z</time></trkpt><trkpt lat="34.4565583" lon="-6.5008333"><ele>21.75</ele><time>2026-04-27T13:42:13.031Z</time></trkpt><trkpt lat="34.456705" lon="-6.5008"><ele>21.5</ele><time>2026-04-27T13:42:14.031Z</time></trkpt><trkpt lat="34.4568483" lon="-6.5007717"><ele>21.25</ele><time>2026-04-27T13:42:15.031Z</time></trkpt><trkpt lat="34.45699" lon="-6.5007383"><ele>21.0</ele><time>2026-04-27T13:42:16.031Z</time></trkpt><trkpt lat="34.4571267" lon="-6.5007067"><ele>21.0</ele><time>2026-04-27T13:42:17.031Z</time></trkpt><trkpt lat="34.4572617" lon="-6.500675"><ele>21.0</ele><time>2026-04-27T13:42:18.031Z</time></trkpt><trkpt lat="34.4573917" lon="-6.5006467"><ele>21.0</ele><time>2026-04-27T13:42:19.031Z</time></trkpt><trkpt lat="34.4575333" lon="-6.5006183"><ele>21.0</ele><time>2026-04-27T13:42:20.031Z</time></trkpt><trkpt lat="34.4576717" lon="-6.500585"><ele>21.0</ele><time>2026-04-27T13:42:21.031Z</time></trkpt><trkpt lat="34.45781" lon="-6.500565"><ele>21.0</ele><time>2026-04-27T13:42:22.031Z</time></trkpt><trkpt lat="34.4579483" lon="-6.50053"><ele>21.0</ele><time>2026-04-27T13:42:23.031Z</time></trkpt><trkpt lat="34.458085" lon="-6.5004967"><ele>21.0</ele><time>2026-04-27T13:42:24.031Z</time></trkpt><trkpt lat="34.458225" lon="-6.500465"><ele>21.0</ele><time>2026-04-27T13:42:25.031Z</time></trkpt><trkpt lat="34.4583667" lon="-6.500435"><ele>21.0</ele><time>2026-04-27T13:42:26.031Z</time></trkpt><trkpt lat="34.4585083" lon="-6.5004083"><ele>21.0</ele><time>2026-04-27T13:42:27.03Z</time></trkpt><trkpt lat="34.4586533" lon="-6.5003817"><ele>21.0</ele><time>2026-04-27T13:42:28.031Z</time></trkpt><trkpt lat="34.4587967" lon="-6.5003533"><ele>21.0</ele><time>2026-04-27T13:42:29.031Z</time></trkpt><trkpt lat="34.4589483" lon="-6.5003217"><ele>21.0</ele><time>2026-04-27T13:42:30.031Z</time></trkpt><trkpt lat="34.4591" lon="-6.5002867"><ele>21.0</ele><time>2026-04-27T13:42:31.031Z</time></trkpt><trkpt lat="34.4592517" lon="-6.500255"><ele>21.0</ele><time>2026-04-27T13:42:32.031Z</time></trkpt><trkpt lat="34.4594017" lon="-6.5002267"><ele>21.0</ele><time>2026-04-27T13:42:33.031Z</time></trkpt><trkpt lat="34.4595617" lon="-6.500195"><ele>21.0</ele><time>2026-04-27T13:42:34.031Z</time></trkpt><trkpt lat="34.45972" lon="-6.500165"><ele>20.666666666666668</ele><time>2026-04-27T13:42:35.031Z</time></trkpt><trkpt lat="34.4598817" lon="-6.50013"><ele>20.333333333333336</ele><time>2026-04-27T13:42:36.031Z</time></trkpt><trkpt lat="34.4600467" lon="-6.5000917"><ele>20.0</ele><time>2026-04-27T13:42:37.031Z</time></trkpt><trkpt lat="34.46022" lon="-6.50005"><ele>20.0</ele><time>2026-04-27T13:42:38.031Z</time></trkpt><trkpt lat="34.4604" lon="-6.5000117"><ele>20.0</ele><time>2026-04-27T13:42:39.031Z</time></trkpt><trkpt lat="34.4605783" lon="-6.4999717"><ele>20.0</ele><time>2026-04-27T13:42:40.031Z</time></trkpt><trkpt lat="34.460755" lon="-6.4999283"><ele>20.333333333333336</ele><time>2026-04-27T13:42:41.031Z</time></trkpt><trkpt lat="34.4609333" lon="-6.4998883"><ele>20.666666666666668</ele><time>2026-04-27T13:42:42.031Z</time></trkpt><trkpt lat="34.4611167" lon="-6.4998467"><ele>21.0</ele><time>2026-04-27T13:42:43.031Z</time></trkpt><trkpt lat="34.4613" lon="-6.4998033"><ele>21.333333333333332</ele><time>2026-04-27T13:42:44.031Z</time></trkpt><trkpt lat="34.4614883" lon="-6.499765"><ele>21.666666666666664</ele><time>2026-04-27T13:42:45.031Z</time></trkpt><trkpt lat="34.4616733" lon="-6.4997317"><ele>22.0</ele><time>2026-04-27T13:42:46.031Z</time></trkpt><trkpt lat="34.4618533" lon="-6.499695"><ele>22.0</ele><time>2026-04-27T13:42:47.031Z</time></trkpt><trkpt lat="34.4620283" lon="-6.4996617"><ele>22.0</ele><time>2026-04-27T13:42:48.03Z</time></trkpt><trkpt lat="34.4622083" lon="-6.4996233"><ele>22.0</ele><time>2026-04-27T13:42:49.03Z</time></trkpt><trkpt lat="34.462385" lon="-6.4995833"><ele>21.666666666666664</ele><time>2026-04-27T13:42:50.031Z</time></trkpt><trkpt lat="34.4625617" lon="-6.49954"><ele>21.333333333333332</ele><time>2026-04-27T13:42:51.031Z</time></trkpt><trkpt lat="34.4627433" lon="-6.499505"><ele>21.0</ele><time>2026-04-27T13:42:52.03Z</time></trkpt><trkpt lat="34.4629267" lon="-6.4994667"><ele>21.666666666666668</ele><time>2026-04-27T13:42:53.031Z</time></trkpt><trkpt lat="34.46311" lon="-6.4994233"><ele>22.333333333333336</ele><time>2026-04-27T13:42:54.031Z</time></trkpt><trkpt lat="34.4632983" lon="-6.4993767"><ele>23.0</ele><time>2026-04-27T13:42:55.031Z</time></trkpt><trkpt lat="34.4634833" lon="-6.499335"><ele>23.0</ele><time>2026-04-27T13:42:56.031Z</time></trkpt><trkpt lat="34.463675" lon="-6.4992917"><ele>23.0</ele><time>2026-04-27T13:42:57.031Z</time></trkpt><trkpt lat="34.4638667" lon="-6.4992517"><ele>23.0</ele><time>2026-04-27T13:42:58.031Z</time></trkpt><trkpt lat="34.4640517" lon="-6.4992183"><ele>22.666666666666668</ele><time>2026-04-27T13:42:59.031Z</time></trkpt><trkpt lat="34.4642233" lon="-6.4991783"><ele>22.333333333333332</ele><time>2026-04-27T13:43:00.031Z</time></trkpt><trkpt lat="34.46439" lon="-6.4991417"><ele>22.0</ele><time>2026-04-27T13:43:01.031Z</time></trkpt><trkpt lat="34.46456" lon="-6.49911"><ele>22.666666666666664</ele><time>2026-04-27T13:43:02.031Z</time></trkpt><trkpt lat="34.46473" lon="-6.4990767"><ele>23.333333333333332</ele><time>2026-04-27T13:43:03.031Z</time></trkpt><trkpt lat="34.4649" lon="-6.4990417"><ele>24.0</ele><time>2026-04-27T13:43:04.03Z</time></trkpt><trkpt lat="34.46507" lon="-6.4990067"><ele>24.0</ele><time>2026-04-27T13:43:05.031Z</time></trkpt><trkpt lat="34.4652417" lon="-6.4989683"><ele>24.0</ele><time>2026-04-27T13:43:06.031Z</time></trkpt><trkpt lat="34.4654133" lon="-6.4989233"><ele>24.0</ele><time>2026-04-27T13:43:07.031Z</time></trkpt><trkpt lat="34.4655883" lon="-6.498885"><ele>24.333333333333336</ele><time>2026-04-27T13:43:08.031Z</time></trkpt><trkpt lat="34.4657683" lon="-6.4988467"><ele>24.666666666666668</ele><time>2026-04-27T13:43:09.031Z</time></trkpt><trkpt lat="34.465945" lon="-6.49881"><ele>25.0</ele><time>2026-04-27T13:43:10.03Z</time></trkpt><trkpt lat="34.4661267" lon="-6.4987683"><ele>23.333333333333336</ele><time>2026-04-27T13:43:11.03Z</time></trkpt><trkpt lat="34.4663083" lon="-6.4987367"><ele>21.666666666666668</ele><time>2026-04-27T13:43:12.03Z</time></trkpt><trkpt lat="34.4664833" lon="-6.498705"><ele>20.0</ele><time>2026-04-27T13:43:13.029Z</time></trkpt><trkpt lat="34.4666533" lon="-6.49867"><ele>20.0</ele><time>2026-04-27T13:43:14.029Z</time></trkpt><trkpt lat="34.466815" lon="-6.4986317"><ele>20.0</ele><time>2026-04-27T13:43:15.03Z</time></trkpt><trkpt lat="34.4669717" lon="-6.498595"><ele>20.0</ele><time>2026-04-27T13:43:16.03Z</time></trkpt><trkpt lat="34.4671317" lon="-6.49856"><ele>20.666666666666668</ele><time>2026-04-27T13:43:17.03Z</time></trkpt><trkpt lat="34.4672967" lon="-6.498525"><ele>21.333333333333332</ele><time>2026-04-27T13:43:18.03Z</time></trkpt><trkpt lat="34.4674633" lon="-6.4984967"><ele>22.0</ele><time>2026-04-27T13:43:19.03Z</time></trkpt><trkpt lat="34.4676267" lon="-6.49846"><ele>22.0</ele><time>2026-04-27T13:43:20.03Z</time></trkpt><trkpt lat="34.46779" lon="-6.4984233"><ele>22.0</ele><time>2026-04-27T13:43:21.029Z</time></trkpt><trkpt lat="34.4679517" lon="-6.4983867"><ele>22.0</ele><time>2026-04-27T13:43:22.03Z</time></trkpt><trkpt lat="34.4681133" lon="-6.4983433"><ele>22.0</ele><time>2026-04-27T13:43:23.03Z</time></trkpt><trkpt lat="34.468275" lon="-6.4982983"><ele>22.0</ele><time>2026-04-27T13:43:24.03Z</time></trkpt><trkpt lat="34.4684433" lon="-6.49825"><ele>22.0</ele><time>2026-04-27T13:43:25.03Z</time></trkpt><trkpt lat="34.4686133" lon="-6.4982"><ele>22.333333333333332</ele><time>2026-04-27T13:43:26.03Z</time></trkpt><trkpt lat="34.4687883" lon="-6.4981467"><ele>22.666666666666668</ele><time>2026-04-27T13:43:27.03Z</time></trkpt><trkpt lat="34.4689667" lon="-6.4980883"><ele>23.0</ele><time>2026-04-27T13:43:28.029Z</time></trkpt><trkpt lat="34.469145" lon="-6.49803"><ele>23.0</ele><time>2026-04-27T13:43:29.03Z</time></trkpt><trkpt lat="34.4693167" lon="-6.4979717"><ele>23.0</ele><time>2026-04-27T13:43:30.03Z</time></trkpt><trkpt lat="34.4694867" lon="-6.4979117"><ele>23.0</ele><time>2026-04-27T13:43:31.03Z</time></trkpt><trkpt lat="34.4696567" lon="-6.4978483"><ele>22.0</ele><time>2026-04-27T13:43:32.03Z</time></trkpt><trkpt lat="34.4698283" lon="-6.4977833"><ele>21.0</ele><time>2026-04-27T13:43:33.03Z</time></trkpt><trkpt lat="34.4699983" lon="-6.4977167"><ele>20.0</ele><time>2026-04-27T13:43:34.03Z</time></trkpt><trkpt lat="34.4701633" lon="-6.4976517"><ele>20.0</ele><time>2026-04-27T13:43:35.03Z</time></trkpt><trkpt lat="34.4703233" lon="-6.49758"><ele>20.0</ele><time>2026-04-27T13:43:36.03Z</time></trkpt><trkpt lat="34.4704867" lon="-6.4975067"><ele>20.0</ele><time>2026-04-27T13:43:37.03Z</time></trkpt><trkpt lat="34.4706483" lon="-6.4974317"><ele>20.333333333333336</ele><time>2026-04-27T13:43:38.03Z</time></trkpt><trkpt lat="34.4708033" lon="-6.4973583"><ele>20.666666666666668</ele><time>2026-04-27T13:43:39.03Z</time></trkpt><trkpt lat="34.470955" lon="-6.4972833"><ele>21.0</ele><time>2026-04-27T13:43:40.03Z</time></trkpt><trkpt lat="34.4711067" lon="-6.497205"><ele>21.0</ele><time>2026-04-27T13:43:41.03Z</time></trkpt><trkpt lat="34.4712583" lon="-6.497125"><ele>21.0</ele><time>2026-04-27T13:43:42.03Z</time></trkpt><trkpt lat="34.4714133" lon="-6.4970417"><ele>21.0</ele><time>2026-04-27T13:43:43.03Z</time></trkpt><trkpt lat="34.47157" lon="-6.4969567"><ele>20.333333333333332</ele><time>2026-04-27T13:43:44.03Z</time></trkpt><trkpt lat="34.471735" lon="-6.4968733"><ele>19.666666666666664</ele><time>2026-04-27T13:43:45.03Z</time></trkpt><trkpt lat="34.4719017" lon="-6.4967867"><ele>19.0</ele><time>2026-04-27T13:43:46.03Z</time></trkpt><trkpt lat="34.4720667" lon="-6.4967"><ele>19.666666666666664</ele><time>2026-04-27T13:43:47.03Z</time></trkpt><trkpt lat="34.4722317" lon="-6.49661"><ele>20.333333333333332</ele><time>2026-04-27T13:43:48.03Z</time></trkpt><trkpt lat="34.4723967" lon="-6.4965133"><ele>21.0</ele><time>2026-04-27T13:43:49.03Z</time></trkpt><trkpt lat="34.47256" lon="-6.4964117"><ele>21.0</ele><time>2026-04-27T13:43:50.03Z</time></trkpt><trkpt lat="34.4727283" lon="-6.4963067"><ele>21.0</ele><time>2026-04-27T13:43:51.03Z</time></trkpt><trkpt lat="34.4728917" lon="-6.4961983"><ele>21.0</ele><time>2026-04-27T13:43:52.03Z</time></trkpt><trkpt lat="34.47306" lon="-6.4960867"><ele>20.0</ele><time>2026-04-27T13:43:53.03Z</time></trkpt><trkpt lat="34.473225" lon="-6.49597"><ele>19.0</ele><time>2026-04-27T13:43:54.03Z</time></trkpt><trkpt lat="34.4733917" lon="-6.49585"><ele>18.0</ele><time>2026-04-27T13:43:55.029Z</time></trkpt><trkpt lat="34.47356" lon="-6.495735"><ele>18.0</ele><time>2026-04-27T13:43:56.03Z</time></trkpt><trkpt lat="34.4737283" lon="-6.495615"><ele>18.0</ele><time>2026-04-27T13:43:57.03Z</time></trkpt><trkpt lat="34.4738933" lon="-6.49549"><ele>18.0</ele><time>2026-04-27T13:43:58.03Z</time></trkpt><trkpt lat="34.4740567" lon="-6.49536"><ele>19.0</ele><time>2026-04-27T13:43:59.03Z</time></trkpt><trkpt lat="34.4742217" lon="-6.49523"><ele>20.0</ele><time>2026-04-27T13:44:00.029Z</time></trkpt><trkpt lat="34.4743883" lon="-6.4950967"><ele>21.0</ele><time>2026-04-27T13:44:01.03Z</time></trkpt><trkpt lat="34.47456" lon="-6.4949617"><ele>21.0</ele><time>2026-04-27T13:44:02.03Z</time></trkpt><trkpt lat="34.4747317" lon="-6.494815"><ele>21.0</ele><time>2026-04-27T13:44:03.03Z</time></trkpt><trkpt lat="34.4749067" lon="-6.4946633"><ele>21.0</ele><time>2026-04-27T13:44:04.03Z</time></trkpt><trkpt lat="34.475085" lon="-6.494505"><ele>21.0</ele><time>2026-04-27T13:44:05.03Z</time></trkpt><trkpt lat="34.4752617" lon="-6.49434"><ele>21.0</ele><time>2026-04-27T13:44:06.03Z</time></trkpt><trkpt lat="34.4754433" lon="-6.4941683"><ele>22.0</ele><time>2026-04-27T13:44:07.03Z</time></trkpt><trkpt lat="34.475625" lon="-6.4939883"><ele>23.0</ele><time>2026-04-27T13:44:08.03Z</time></trkpt><trkpt lat="34.47581" lon="-6.4938083"><ele>23.0</ele><time>2026-04-27T13:44:09.03Z</time></trkpt><trkpt lat="34.4759833" lon="-6.4936317"><ele>23.0</ele><time>2026-04-27T13:44:10.03Z</time></trkpt><trkpt lat="34.4761517" lon="-6.493455"><ele>23.0</ele><time>2026-04-27T13:44:11.03Z</time></trkpt><trkpt lat="34.4763117" lon="-6.4932767"><ele>23.666666666666668</ele><time>2026-04-27T13:44:12.03Z</time></trkpt><trkpt lat="34.4764767" lon="-6.4930983"><ele>24.333333333333336</ele><time>2026-04-27T13:44:13.029Z</time></trkpt><trkpt lat="34.476645" lon="-6.4929183"><ele>25.0</ele><time>2026-04-27T13:44:14.03Z</time></trkpt><trkpt lat="34.47681" lon="-6.4927367"><ele>25.0</ele><time>2026-04-27T13:44:15.03Z</time></trkpt><trkpt lat="34.4769767" lon="-6.4925483"><ele>25.0</ele><time>2026-04-27T13:44:16.029Z</time></trkpt><trkpt lat="34.47715" lon="-6.49237"><ele>25.5</ele><time>2026-04-27T13:44:17.03Z</time></trkpt><trkpt lat="34.4773233" lon="-6.4921867"><ele>26.0</ele><time>2026-04-27T13:44:18.03Z</time></trkpt><trkpt lat="34.4774933" lon="-6.4920083"><ele>26.333333333333332</ele><time>2026-04-27T13:44:19.029Z</time></trkpt><trkpt lat="34.47765" lon="-6.4918367"><ele>26.666666666666664</ele><time>2026-04-27T13:44:20.03Z</time></trkpt><trkpt lat="34.4778067" lon="-6.4916667"><ele>27.0</ele><time>2026-04-27T13:44:21.03Z</time></trkpt><trkpt lat="34.4779583" lon="-6.4915033"><ele>27.333333333333336</ele><time>2026-04-27T13:44:22.03Z</time></trkpt><trkpt lat="34.47811" lon="-6.4913433"><ele>27.666666666666668</ele><time>2026-04-27T13:44:23.03Z</time></trkpt><trkpt lat="34.4782567" lon="-6.4911833"><ele>28.0</ele><time>2026-04-27T13:44:24.03Z</time></trkpt><trkpt lat="34.4783983" lon="-6.491025"><ele>28.0</ele><time>2026-04-27T13:44:25.03Z</time></trkpt><trkpt lat="34.4785467" lon="-6.4908767"><ele>28.0</ele><time>2026-04-27T13:44:26.03Z</time></trkpt><trkpt lat="34.4786967" lon="-6.4907217"><ele>28.0</ele><time>2026-04-27T13:44:27.03Z</time></trkpt><trkpt lat="34.4788467" lon="-6.4905633"><ele>27.333333333333336</ele><time>2026-04-27T13:44:28.029Z</time></trkpt><trkpt lat="34.478995" lon="-6.4904033"><ele>26.666666666666664</ele><time>2026-04-27T13:44:29.03Z</time></trkpt><trkpt lat="34.4791483" lon="-6.4902467"><ele>26.0</ele><time>2026-04-27T13:44:30.03Z</time></trkpt><trkpt lat="34.4793067" lon="-6.4900933"><ele>26.0</ele><time>2026-04-27T13:44:31.03Z</time></trkpt><trkpt lat="34.4794617" lon="-6.4899483"><ele>26.0</ele><time>2026-04-27T13:44:32.029Z</time></trkpt><trkpt lat="34.4796117" lon="-6.4898083"><ele>26.0</ele><time>2026-04-27T13:44:33.03Z</time></trkpt><trkpt lat="34.4797583" lon="-6.4896783"><ele>25.333333333333332</ele><time>2026-04-27T13:44:34.03Z</time></trkpt><trkpt lat="34.4799083" lon="-6.4895517"><ele>24.666666666666664</ele><time>2026-04-27T13:44:35.03Z</time></trkpt><trkpt lat="34.4800567" lon="-6.4894233"><ele>24.0</ele><time>2026-04-27T13:44:36.03Z</time></trkpt><trkpt lat="34.4802083" lon="-6.489295"><ele>24.0</ele><time>2026-04-27T13:44:37.03Z</time></trkpt><trkpt lat="34.4803617" lon="-6.4891667"><ele>24.0</ele><time>2026-04-27T13:44:38.03Z</time></trkpt><trkpt lat="34.48052" lon="-6.4890367"><ele>24.0</ele><time>2026-04-27T13:44:39.03Z</time></trkpt><trkpt lat="34.480685" lon="-6.4889067"><ele>24.333333333333336</ele><time>2026-04-27T13:44:40.03Z</time></trkpt><trkpt lat="34.4808533" lon="-6.4887767"><ele>24.666666666666668</ele><time>2026-04-27T13:44:41.03Z</time></trkpt><trkpt lat="34.4810233" lon="-6.4886467"><ele>25.0</ele><time>2026-04-27T13:44:42.03Z</time></trkpt><trkpt lat="34.4811917" lon="-6.48852"><ele>25.0</ele><time>2026-04-27T13:44:43.029Z</time></trkpt><trkpt lat="34.4813617" lon="-6.4883917"><ele>25.0</ele><time>2026-04-27T13:44:44.03Z</time></trkpt><trkpt lat="34.4815367" lon="-6.4882667"><ele>25.0</ele><time>2026-04-27T13:44:45.029Z</time></trkpt><trkpt lat="34.4817183" lon="-6.4881433"><ele>25.0</ele><time>2026-04-27T13:44:46.029Z</time></trkpt><trkpt lat="34.4819083" lon="-6.4880217"><ele>25.0</ele><time>2026-04-27T13:44:47.03Z</time></trkpt><trkpt lat="34.4820983" lon="-6.4879017"><ele>25.0</ele><time>2026-04-27T13:44:48.03Z</time></trkpt><trkpt lat="34.4822983" lon="-6.4877783"><ele>24.5</ele><time>2026-04-27T13:44:49.03Z</time></trkpt><trkpt lat="34.4825033" lon="-6.48766"><ele>24.0</ele><time>2026-04-27T13:44:50.03Z</time></trkpt><trkpt lat="34.4827117" lon="-6.4875383"><ele>24.0</ele><time>2026-04-27T13:44:51.03Z</time></trkpt><trkpt lat="34.4829217" lon="-6.48742"><ele>24.0</ele><time>2026-04-27T13:44:52.03Z</time></trkpt><trkpt lat="34.4831317" lon="-6.4872983"><ele>24.5</ele><time>2026-04-27T13:44:53.03Z</time></trkpt><trkpt lat="34.4833467" lon="-6.48718"><ele>25.0</ele><time>2026-04-27T13:44:54.03Z</time></trkpt><trkpt lat="34.483565" lon="-6.4870683"><ele>24.0</ele><time>2026-04-27T13:44:55.03Z</time></trkpt><trkpt lat="34.4837917" lon="-6.4869583"><ele>23.0</ele><time>2026-04-27T13:44:56.03Z</time></trkpt><trkpt lat="34.484025" lon="-6.48685"><ele>23.0</ele><time>2026-04-27T13:44:57.03Z</time></trkpt><trkpt lat="34.4842583" lon="-6.4867467"><ele>23.0</ele><time>2026-04-27T13:44:58.029Z</time></trkpt><trkpt lat="34.4844933" lon="-6.486645"><ele>23.5</ele><time>2026-04-27T13:44:59.03Z</time></trkpt><trkpt lat="34.4847283" lon="-6.4865467"><ele>24.0</ele><time>2026-04-27T13:45:00.03Z</time></trkpt><trkpt lat="34.4849583" lon="-6.4864533"><ele>24.0</ele><time>2026-04-27T13:45:01.03Z</time></trkpt><trkpt lat="34.4851717" lon="-6.486365"><ele>24.0</ele><time>2026-04-27T13:45:02.029Z</time></trkpt><trkpt lat="34.4853783" lon="-6.4862833"><ele>24.0</ele><time>2026-04-27T13:45:03.029Z</time></trkpt><trkpt lat="34.4855783" lon="-6.48621"><ele>23.666666666666668</ele><time>2026-04-27T13:45:04.03Z</time></trkpt><trkpt lat="34.4857717" lon="-6.486145"><ele>23.333333333333336</ele><time>2026-04-27T13:45:05.03Z</time></trkpt><trkpt lat="34.48596" lon="-6.486085"><ele>23.0</ele><time>2026-04-27T13:45:06.03Z</time></trkpt><trkpt lat="34.48614" lon="-6.4860233"><ele>23.666666666666668</ele><time>2026-04-27T13:45:07.03Z</time></trkpt><trkpt lat="34.48632" lon="-6.4859683"><ele>24.333333333333336</ele><time>2026-04-27T13:45:08.03Z</time></trkpt><trkpt lat="34.4865033" lon="-6.4859217"><ele>25.0</ele><time>2026-04-27T13:45:09.03Z</time></trkpt><trkpt lat="34.4866883" lon="-6.4858683"><ele>25.0</ele><time>2026-04-27T13:45:10.03Z</time></trkpt><trkpt lat="34.4868733" lon="-6.485815"><ele>25.0</ele><time>2026-04-27T13:45:11.03Z</time></trkpt><trkpt lat="34.4870617" lon="-6.4857583"><ele>25.0</ele><time>2026-04-27T13:45:12.03Z</time></trkpt><trkpt lat="34.4872517" lon="-6.485705"><ele>24.666666666666668</ele><time>2026-04-27T13:45:13.03Z</time></trkpt><trkpt lat="34.48745" lon="-6.48565"><ele>24.333333333333336</ele><time>2026-04-27T13:45:14.03Z</time></trkpt><trkpt lat="34.487645" lon="-6.4855983"><ele>24.0</ele><time>2026-04-27T13:45:15.03Z</time></trkpt><trkpt lat="34.4878433" lon="-6.4855433"><ele>23.333333333333332</ele><time>2026-04-27T13:45:16.03Z</time></trkpt><trkpt lat="34.488035" lon="-6.4854967"><ele>22.666666666666664</ele><time>2026-04-27T13:45:17.03Z</time></trkpt><trkpt lat="34.48822" lon="-6.4854467"><ele>22.0</ele><time>2026-04-27T13:45:18.03Z</time></trkpt><trkpt lat="34.4883917" lon="-6.4853967"><ele>21.5</ele><time>2026-04-27T13:45:19.03Z</time></trkpt><trkpt lat="34.4885533" lon="-6.48535"><ele>21.0</ele><time>2026-04-27T13:45:20.03Z</time></trkpt><trkpt lat="34.4886967" lon="-6.4853133"><ele>20.5</ele><time>2026-04-27T13:45:21.029Z</time></trkpt><trkpt lat="34.4888183" lon="-6.4852817"><ele>20.0</ele><time>2026-04-27T13:45:22.03Z</time></trkpt><trkpt lat="34.4889267" lon="-6.4852517"><ele>20.0</ele><time>2026-04-27T13:45:23.03Z</time></trkpt><trkpt lat="34.489025" lon="-6.48522"><ele>20.0</ele><time>2026-04-27T13:45:24.03Z</time></trkpt><trkpt lat="34.489115" lon="-6.4851917"><ele>20.0</ele><time>2026-04-27T13:45:25.029Z</time></trkpt><trkpt lat="34.4892033" lon="-6.4851633"><ele>20.0</ele><time>2026-04-27T13:45:26.03Z</time></trkpt><trkpt lat="34.4892817" lon="-6.4851333"><ele>20.0</ele><time>2026-04-27T13:45:27.03Z</time></trkpt><trkpt lat="34.4893633" lon="-6.4850917"><ele>20.0</ele><time>2026-04-27T13:45:28.03Z</time></trkpt><trkpt lat="34.48943" lon="-6.4850417"><ele>20.0</ele><time>2026-04-27T13:45:29.03Z</time></trkpt><trkpt lat="34.4894917" lon="-6.4849917"><ele>20.0</ele><time>2026-04-27T13:45:30.03Z</time></trkpt><trkpt lat="34.4896" lon="-6.4849133"><ele>20.0</ele><time>2026-04-27T13:45:32.03Z</time></trkpt><trkpt lat="34.48967" lon="-6.4848717"><ele>20.0</ele><time>2026-04-27T13:45:33.03Z</time></trkpt><trkpt lat="34.4897567" lon="-6.48483"><ele>19.25</ele><time>2026-04-27T13:45:34.03Z</time></trkpt><trkpt lat="34.4898633" lon="-6.48479"><ele>18.5</ele><time>2026-04-27T13:45:35.03Z</time></trkpt><trkpt lat="34.489985" lon="-6.4847517"><ele>17.75</ele><time>2026-04-27T13:45:36.029Z</time></trkpt><trkpt lat="34.4901217" lon="-6.484715"><ele>17.0</ele><time>2026-04-27T13:45:37.03Z</time></trkpt><trkpt lat="34.4902783" lon="-6.4846733"><ele>18.0</ele><time>2026-04-27T13:45:38.029Z</time></trkpt><trkpt lat="34.4904483" lon="-6.4846283"><ele>19.0</ele><time>2026-04-27T13:45:39.03Z</time></trkpt><trkpt lat="34.4906383" lon="-6.484585"><ele>20.0</ele><time>2026-04-27T13:45:40.03Z</time></trkpt><trkpt lat="34.490835" lon="-6.4845317"><ele>20.0</ele><time>2026-04-27T13:45:41.03Z</time></trkpt><trkpt lat="34.491045" lon="-6.4844717"><ele>20.0</ele><time>2026-04-27T13:45:42.03Z</time></trkpt><trkpt lat="34.4912667" lon="-6.484405"><ele>20.0</ele><time>2026-04-27T13:45:43.03Z</time></trkpt><trkpt lat="34.4914933" lon="-6.4843317"><ele>22.0</ele><time>2026-04-27T13:45:44.03Z</time></trkpt><trkpt lat="34.4917283" lon="-6.4842583"><ele>24.0</ele><time>2026-04-27T13:45:45.03Z</time></trkpt><trkpt lat="34.4919733" lon="-6.4841883"><ele>24.0</ele><time>2026-04-27T13:45:46.03Z</time></trkpt><trkpt lat="34.4922267" lon="-6.4841183"><ele>24.0</ele><time>2026-04-27T13:45:47.03Z</time></trkpt><trkpt lat="34.492485" lon="-6.484045"><ele>24.0</ele><time>2026-04-27T13:45:48.03Z</time></trkpt><trkpt lat="34.4927467" lon="-6.48397"><ele>24.0</ele><time>2026-04-27T13:45:49.03Z</time></trkpt><trkpt lat="34.4930133" lon="-6.483895"><ele>24.0</ele><time>2026-04-27T13:45:50.03Z</time></trkpt><trkpt lat="34.493285" lon="-6.483815"><ele>24.0</ele><time>2026-04-27T13:45:51.03Z</time></trkpt><trkpt lat="34.4935633" lon="-6.4837383"><ele>23.5</ele><time>2026-04-27T13:45:52.03Z</time></trkpt><trkpt lat="34.4938417" lon="-6.48366"><ele>23.0</ele><time>2026-04-27T13:45:53.029Z</time></trkpt><trkpt lat="34.4941167" lon="-6.4835833"><ele>23.0</ele><time>2026-04-27T13:45:54.03Z</time></trkpt><trkpt lat="34.4943883" lon="-6.48351"><ele>23.0</ele><time>2026-04-27T13:45:55.03Z</time></trkpt><trkpt lat="34.4946517" lon="-6.48344"><ele>22.5</ele><time>2026-04-27T13:45:56.03Z</time></trkpt><trkpt lat="34.4949167" lon="-6.483365"><ele>22.0</ele><time>2026-04-27T13:45:57.03Z</time></trkpt><trkpt lat="34.4951817" lon="-6.4832883"><ele>23.5</ele><time>2026-04-27T13:45:58.03Z</time></trkpt><trkpt lat="34.495445" lon="-6.4832117"><ele>25.0</ele><time>2026-04-27T13:45:59.03Z</time></trkpt><trkpt lat="34.49571" lon="-6.483135"><ele>25.0</ele><time>2026-04-27T13:46:00.03Z</time></trkpt><trkpt lat="34.4959767" lon="-6.4830617"><ele>25.0</ele><time>2026-04-27T13:46:01.03Z</time></trkpt><trkpt lat="34.4962433" lon="-6.4829917"><ele>24.0</ele><time>2026-04-27T13:46:02.03Z</time></trkpt><trkpt lat="34.4965117" lon="-6.4829167"><ele>23.0</ele><time>2026-04-27T13:46:03.03Z</time></trkpt><trkpt lat="34.4967817" lon="-6.4828417"><ele>23.0</ele><time>2026-04-27T13:46:04.029Z</time></trkpt><trkpt lat="34.4970517" lon="-6.482765"><ele>23.0</ele><time>2026-04-27T13:46:05.03Z</time></trkpt><trkpt lat="34.4973233" lon="-6.48269"><ele>24.0</ele><time>2026-04-27T13:46:06.03Z</time></trkpt><trkpt lat="34.497595" lon="-6.482615"><ele>25.0</ele><time>2026-04-27T13:46:07.03Z</time></trkpt><trkpt lat="34.49787" lon="-6.4825367"><ele>24.5</ele><time>2026-04-27T13:46:08.03Z</time></trkpt><trkpt lat="34.4981467" lon="-6.4824617"><ele>24.0</ele><time>2026-04-27T13:46:09.03Z</time></trkpt><trkpt lat="34.498425" lon="-6.4823833"><ele>24.0</ele><time>2026-04-27T13:46:10.03Z</time></trkpt><trkpt lat="34.4987083" lon="-6.48231"><ele>24.0</ele><time>2026-04-27T13:46:11.03Z</time></trkpt><trkpt lat="34.4989933" lon="-6.4822317"><ele>24.5</ele><time>2026-04-27T13:46:12.03Z</time></trkpt><trkpt lat="34.499275" lon="-6.4821567"><ele>25.0</ele><time>2026-04-27T13:46:13.03Z</time></trkpt><trkpt lat="34.4995633" lon="-6.48207"><ele>23.0</ele><time>2026-04-27T13:46:14.03Z</time></trkpt><trkpt lat="34.4998533" lon="-6.4819833"><ele>21.0</ele><time>2026-04-27T13:46:15.03Z</time></trkpt><trkpt lat="34.5001383" lon="-6.4818867"><ele>21.5</ele><time>2026-04-27T13:46:16.03Z</time></trkpt><trkpt lat="34.5004233" lon="-6.4817867"><ele>22.0</ele><time>2026-04-27T13:46:17.03Z</time></trkpt><trkpt lat="34.500705" lon="-6.481685"><ele>22.0</ele><time>2026-04-27T13:46:18.03Z</time></trkpt><trkpt lat="34.50098" lon="-6.481585"><ele>22.0</ele><time>2026-04-27T13:46:19.03Z</time></trkpt><trkpt lat="34.50125" lon="-6.4814833"><ele>22.0</ele><time>2026-04-27T13:46:20.03Z</time></trkpt><trkpt lat="34.5015217" lon="-6.4813783"><ele>22.0</ele><time>2026-04-27T13:46:21.03Z</time></trkpt><trkpt lat="34.5018" lon="-6.4812617"><ele>23.5</ele><time>2026-04-27T13:46:22.03Z</time></trkpt><trkpt lat="34.5020833" lon="-6.48114"><ele>25.0</ele><time>2026-04-27T13:46:23.03Z</time></trkpt><trkpt lat="34.5023717" lon="-6.481005"><ele>25.0</ele><time>2026-04-27T13:46:24.03Z</time></trkpt><trkpt lat="34.5026567" lon="-6.4808667"><ele>25.0</ele><time>2026-04-27T13:46:25.03Z</time></trkpt><trkpt lat="34.5029367" lon="-6.480725"><ele>27.5</ele><time>2026-04-27T13:46:26.03Z</time></trkpt><trkpt lat="34.5031983" lon="-6.4805917"><ele>30.0</ele><time>2026-04-27T13:46:27.03Z</time></trkpt><trkpt lat="34.5034567" lon="-6.4804583"><ele>30.0</ele><time>2026-04-27T13:46:28.03Z</time></trkpt><trkpt lat="34.5037133" lon="-6.48032"><ele>30.0</ele><time>2026-04-27T13:46:29.03Z</time></trkpt><trkpt lat="34.5039683" lon="-6.4801717"><ele>29.0</ele><time>2026-04-27T13:46:30.03Z</time></trkpt><trkpt lat="34.5042283" lon="-6.4800167"><ele>28.0</ele><time>2026-04-27T13:46:31.03Z</time></trkpt><trkpt lat="34.5044883" lon="-6.47986"><ele>29.0</ele><time>2026-04-27T13:46:32.03Z</time></trkpt><trkpt lat="34.5047483" lon="-6.4796983"><ele>30.0</ele><time>2026-04-27T13:46:33.03Z</time></trkpt><trkpt lat="34.5050083" lon="-6.47953"><ele>30.0</ele><time>2026-04-27T13:46:34.03Z</time></trkpt><trkpt lat="34.5052733" lon="-6.479355"><ele>30.0</ele><time>2026-04-27T13:46:35.03Z</time></trkpt><trkpt lat="34.5055367" lon="-6.4791767"><ele>30.5</ele><time>2026-04-27T13:46:36.03Z</time></trkpt><trkpt lat="34.505805" lon="-6.479"><ele>31.0</ele><time>2026-04-27T13:46:37.03Z</time></trkpt><trkpt lat="34.5060717" lon="-6.4788217"><ele>31.0</ele><time>2026-04-27T13:46:38.03Z</time></trkpt><trkpt lat="34.506335" lon="-6.4786483"><ele>31.0</ele><time>2026-04-27T13:46:39.03Z</time></trkpt><trkpt lat="34.5065833" lon="-6.4784817"><ele>31.0</ele><time>2026-04-27T13:46:40.029Z</time></trkpt><trkpt lat="34.5068283" lon="-6.4783183"><ele>31.0</ele><time>2026-04-27T13:46:41.03Z</time></trkpt><trkpt lat="34.507075" lon="-6.47815"><ele>31.5</ele><time>2026-04-27T13:46:42.03Z</time></trkpt><trkpt lat="34.5073267" lon="-6.4779867"><ele>32.0</ele><time>2026-04-27T13:46:43.029Z</time></trkpt><trkpt lat="34.507575" lon="-6.4778217"><ele>32.0</ele><time>2026-04-27T13:46:44.03Z</time></trkpt><trkpt lat="34.5078267" lon="-6.47766"><ele>32.0</ele><time>2026-04-27T13:46:45.03Z</time></trkpt><trkpt lat="34.5080783" lon="-6.4774983"><ele>32.0</ele><time>2026-04-27T13:46:46.03Z</time></trkpt><trkpt lat="34.508335" lon="-6.477335"><ele>32.0</ele><time>2026-04-27T13:46:47.03Z</time></trkpt><trkpt lat="34.5085883" lon="-6.477165"><ele>32.0</ele><time>2026-04-27T13:46:48.03Z</time></trkpt><trkpt lat="34.5088417" lon="-6.476995"><ele>32.0</ele><time>2026-04-27T13:46:49.03Z</time></trkpt><trkpt lat="34.5090917" lon="-6.4768267"><ele>32.0</ele><time>2026-04-27T13:46:50.03Z</time></trkpt><trkpt lat="34.5093433" lon="-6.4766583"><ele>32.0</ele><time>2026-04-27T13:46:51.03Z</time></trkpt><trkpt lat="34.5095933" lon="-6.4764933"><ele>31.5</ele><time>2026-04-27T13:46:52.03Z</time></trkpt><trkpt lat="34.5098483" lon="-6.4763233"><ele>31.0</ele><time>2026-04-27T13:46:53.03Z</time></trkpt><trkpt lat="34.5101" lon="-6.47615"><ele>30.5</ele><time>2026-04-27T13:46:54.03Z</time></trkpt><trkpt lat="34.5103533" lon="-6.4759833"><ele>30.0</ele><time>2026-04-27T13:46:55.03Z</time></trkpt><trkpt lat="34.5106083" lon="-6.475815"><ele>30.0</ele><time>2026-04-27T13:46:56.03Z</time></trkpt><trkpt lat="34.5108633" lon="-6.4756533"><ele>30.0</ele><time>2026-04-27T13:46:57.03Z</time></trkpt><trkpt lat="34.511115" lon="-6.4754867"><ele>31.5</ele><time>2026-04-27T13:46:58.029Z</time></trkpt><trkpt lat="34.51137" lon="-6.47532"><ele>33.0</ele><time>2026-04-27T13:46:59.03Z</time></trkpt><trkpt lat="34.5116233" lon="-6.4751483"><ele>33.0</ele><time>2026-04-27T13:47:00.03Z</time></trkpt><trkpt lat="34.511875" lon="-6.4749767"><ele>33.0</ele><time>2026-04-27T13:47:01.029Z</time></trkpt><trkpt lat="34.512125" lon="-6.474805"><ele>32.0</ele><time>2026-04-27T13:47:02.03Z</time></trkpt><trkpt lat="34.5123783" lon="-6.4746383"><ele>31.0</ele><time>2026-04-27T13:47:03.03Z</time></trkpt><trkpt lat="34.51264" lon="-6.4744767"><ele>30.0</ele><time>2026-04-27T13:47:04.029Z</time></trkpt><trkpt lat="34.5128983" lon="-6.4743167"><ele>29.0</ele><time>2026-04-27T13:47:05.03Z</time></trkpt><trkpt lat="34.513165" lon="-6.474165"><ele>29.0</ele><time>2026-04-27T13:47:06.03Z</time></trkpt><trkpt lat="34.5134267" lon="-6.4740233"><ele>29.0</ele><time>2026-04-27T13:47:07.03Z</time></trkpt><trkpt lat="34.5136767" lon="-6.4738883"><ele>27.5</ele><time>2026-04-27T13:47:08.03Z</time></trkpt><trkpt lat="34.5139383" lon="-6.4737567"><ele>26.0</ele><time>2026-04-27T13:47:09.03Z</time></trkpt><trkpt lat="34.514195" lon="-6.473625"><ele>26.0</ele><time>2026-04-27T13:47:10.03Z</time></trkpt><trkpt lat="34.51446" lon="-6.4734967"><ele>26.0</ele><time>2026-04-27T13:47:11.03Z</time></trkpt><trkpt lat="34.514725" lon="-6.4733683"><ele>28.0</ele><time>2026-04-27T13:47:12.03Z</time></trkpt><trkpt lat="34.514995" lon="-6.4732417"><ele>30.0</ele><time>2026-04-27T13:47:13.03Z</time></trkpt><trkpt lat="34.51527" lon="-6.4731217"><ele>29.5</ele><time>2026-04-27T13:47:14.03Z</time></trkpt><trkpt lat="34.5155533" lon="-6.4730017"><ele>29.0</ele><time>2026-04-27T13:47:15.03Z</time></trkpt><trkpt lat="34.5158383" lon="-6.4728833"><ele>29.0</ele><time>2026-04-27T13:47:16.03Z</time></trkpt><trkpt lat="34.5161317" lon="-6.472775"><ele>29.0</ele><time>2026-04-27T13:47:17.029Z</time></trkpt><trkpt lat="34.516415" lon="-6.4726767"><ele>28.5</ele><time>2026-04-27T13:47:18.03Z</time></trkpt><trkpt lat="34.516695" lon="-6.472575"><ele>28.0</ele><time>2026-04-27T13:47:19.03Z</time></trkpt><trkpt lat="34.5169717" lon="-6.4724683"><ele>28.0</ele><time>2026-04-27T13:47:20.03Z</time></trkpt><trkpt lat="34.5172433" lon="-6.4723617"><ele>28.0</ele><time>2026-04-27T13:47:21.03Z</time></trkpt><trkpt lat="34.517515" lon="-6.472245"><ele>28.0</ele><time>2026-04-27T13:47:22.03Z</time></trkpt><trkpt lat="34.5177917" lon="-6.4721417"><ele>28.0</ele><time>2026-04-27T13:47:23.029Z</time></trkpt><trkpt lat="34.5180683" lon="-6.4720233"><ele>28.5</ele><time>2026-04-27T13:47:24.029Z</time></trkpt><trkpt lat="34.5183467" lon="-6.4719067"><ele>29.0</ele><time>2026-04-27T13:47:25.029Z</time></trkpt><trkpt lat="34.51863" lon="-6.4717967"><ele>29.0</ele><time>2026-04-27T13:47:26.03Z</time></trkpt><trkpt lat="34.51891" lon="-6.471685"><ele>29.0</ele><time>2026-04-27T13:47:27.03Z</time></trkpt><trkpt lat="34.5191867" lon="-6.471575"><ele>29.0</ele><time>2026-04-27T13:47:28.03Z</time></trkpt><trkpt lat="34.5194683" lon="-6.471465"><ele>29.0</ele><time>2026-04-27T13:47:29.029Z</time></trkpt><trkpt lat="34.5197417" lon="-6.4713583"><ele>28.5</ele><time>2026-04-27T13:47:30.03Z</time></trkpt><trkpt lat="34.5200117" lon="-6.47125"><ele>28.0</ele><time>2026-04-27T13:47:31.029Z</time></trkpt><trkpt lat="34.52028" lon="-6.47114"><ele>28.0</ele><time>2026-04-27T13:47:32.03Z</time></trkpt><trkpt lat="34.52055" lon="-6.471035"><ele>28.0</ele><time>2026-04-27T13:47:33.03Z</time></trkpt><trkpt lat="34.52082" lon="-6.47093"><ele>28.0</ele><time>2026-04-27T13:47:34.03Z</time></trkpt><trkpt lat="34.5210883" lon="-6.470825"><ele>28.0</ele><time>2026-04-27T13:47:35.03Z</time></trkpt><trkpt lat="34.5213533" lon="-6.47073"><ele>27.5</ele><time>2026-04-27T13:47:36.029Z</time></trkpt><trkpt lat="34.52162" lon="-6.47063"><ele>27.0</ele><time>2026-04-27T13:47:37.03Z</time></trkpt><trkpt lat="34.5218783" lon="-6.4705333"><ele>25.5</ele><time>2026-04-27T13:47:38.03Z</time></trkpt><trkpt lat="34.5221417" lon="-6.4704383"><ele>24.0</ele><time>2026-04-27T13:47:39.03Z</time></trkpt><trkpt lat="34.5224033" lon="-6.4703433"><ele>24.0</ele><time>2026-04-27T13:47:40.03Z</time></trkpt><trkpt lat="34.5226617" lon="-6.470245"><ele>24.0</ele><time>2026-04-27T13:47:41.03Z</time></trkpt><trkpt lat="34.5229183" lon="-6.4701483"><ele>24.5</ele><time>2026-04-27T13:47:42.03Z</time></trkpt><trkpt lat="34.5231767" lon="-6.4700517"><ele>25.0</ele><time>2026-04-27T13:47:43.03Z</time></trkpt><trkpt lat="34.5234283" lon="-6.4699533"><ele>25.0</ele><time>2026-04-27T13:47:44.03Z</time></trkpt><trkpt lat="34.5236817" lon="-6.46985"><ele>25.0</ele><time>2026-04-27T13:47:45.03Z</time></trkpt><trkpt lat="34.5239383" lon="-6.4697417"><ele>25.0</ele><time>2026-04-27T13:47:46.03Z</time></trkpt><trkpt lat="34.5241917" lon="-6.46964"><ele>25.0</ele><time>2026-04-27T13:47:47.03Z</time></trkpt><trkpt lat="34.5244583" lon="-6.4695417"><ele>23.0</ele><time>2026-04-27T13:47:48.03Z</time></trkpt><trkpt lat="34.5247333" lon="-6.4694317"><ele>21.0</ele><time>2026-04-27T13:47:49.029Z</time></trkpt><trkpt lat="34.5250033" lon="-6.46932"><ele>21.0</ele><time>2026-04-27T13:47:50.03Z</time></trkpt><trkpt lat="34.525275" lon="-6.4692033"><ele>21.0</ele><time>2026-04-27T13:47:51.03Z</time></trkpt><trkpt lat="34.5255567" lon="-6.469085"><ele>21.5</ele><time>2026-04-27T13:47:52.03Z</time></trkpt><trkpt lat="34.5258383" lon="-6.4689717"><ele>22.0</ele><time>2026-04-27T13:47:53.03Z</time></trkpt><trkpt lat="34.5261183" lon="-6.4688617"><ele>23.5</ele><time>2026-04-27T13:47:54.03Z</time></trkpt><trkpt lat="34.526405" lon="-6.4687517"><ele>25.0</ele><time>2026-04-27T13:47:55.029Z</time></trkpt><trkpt lat="34.5266933" lon="-6.46864"><ele>25.0</ele><time>2026-04-27T13:47:56.029Z</time></trkpt><trkpt lat="34.5269767" lon="-6.4685233"><ele>25.0</ele><time>2026-04-27T13:47:57.03Z</time></trkpt><trkpt lat="34.527265" lon="-6.46841"><ele>25.0</ele><time>2026-04-27T13:47:58.03Z</time></trkpt><trkpt lat="34.5275567" lon="-6.4683017"><ele>25.0</ele><time>2026-04-27T13:47:59.029Z</time></trkpt><trkpt lat="34.527855" lon="-6.4681917"><ele>22.0</ele><time>2026-04-27T13:48:00.03Z</time></trkpt><trkpt lat="34.5281467" lon="-6.4680783"><ele>19.0</ele><time>2026-04-27T13:48:01.03Z</time></trkpt><trkpt lat="34.5284383" lon="-6.4679667"><ele>19.5</ele><time>2026-04-27T13:48:02.03Z</time></trkpt><trkpt lat="34.5287233" lon="-6.46786"><ele>20.0</ele><time>2026-04-27T13:48:03.029Z</time></trkpt><trkpt lat="34.5290033" lon="-6.467745"><ele>20.0</ele><time>2026-04-27T13:48:04.03Z</time></trkpt><trkpt lat="34.5292833" lon="-6.4676367"><ele>20.0</ele><time>2026-04-27T13:48:05.03Z</time></trkpt><trkpt lat="34.529555" lon="-6.4675267"><ele>21.5</ele><time>2026-04-27T13:48:06.03Z</time></trkpt><trkpt lat="34.5298183" lon="-6.46742"><ele>23.0</ele><time>2026-04-27T13:48:07.03Z</time></trkpt><trkpt lat="34.530075" lon="-6.4673133"><ele>23.0</ele><time>2026-04-27T13:48:08.03Z</time></trkpt><trkpt lat="34.5303383" lon="-6.467195"><ele>23.0</ele><time>2026-04-27T13:48:09.03Z</time></trkpt><trkpt lat="34.5305967" lon="-6.4670683"><ele>23.0</ele><time>2026-04-27T13:48:10.03Z</time></trkpt><trkpt lat="34.5308583" lon="-6.4669417"><ele>23.0</ele><time>2026-04-27T13:48:11.029Z</time></trkpt><trkpt lat="34.5311167" lon="-6.466805"><ele>21.5</ele><time>2026-04-27T13:48:12.03Z</time></trkpt><trkpt lat="34.5313783" lon="-6.4666583"><ele>20.0</ele><time>2026-04-27T13:48:13.03Z</time></trkpt><trkpt lat="34.531655" lon="-6.4665217"><ele>20.0</ele><time>2026-04-27T13:48:14.029Z</time></trkpt><trkpt lat="34.531925" lon="-6.46638"><ele>20.0</ele><time>2026-04-27T13:48:15.03Z</time></trkpt><trkpt lat="34.5321983" lon="-6.4662267"><ele>20.0</ele><time>2026-04-27T13:48:16.03Z</time></trkpt><trkpt lat="34.53248" lon="-6.4660567"><ele>20.0</ele><time>2026-04-27T13:48:17.03Z</time></trkpt><trkpt lat="34.5327567" lon="-6.46589"><ele>23.0</ele><time>2026-04-27T13:48:18.03Z</time></trkpt><trkpt lat="34.5330283" lon="-6.4657267"><ele>26.0</ele><time>2026-04-27T13:48:19.03Z</time></trkpt><trkpt lat="34.5332833" lon="-6.4655617"><ele>27.0</ele><time>2026-04-27T13:48:20.03Z</time></trkpt><trkpt lat="34.5335433" lon="-6.4654"><ele>28.0</ele><time>2026-04-27T13:48:21.03Z</time></trkpt><trkpt lat="34.5338" lon="-6.465225"><ele>24.5</ele><time>2026-04-27T13:48:22.03Z</time></trkpt><trkpt lat="34.5340483" lon="-6.4650433"><ele>21.0</ele><time>2026-04-27T13:48:23.03Z</time></trkpt><trkpt lat="34.5342917" lon="-6.4648583"><ele>21.0</ele><time>2026-04-27T13:48:24.03Z</time></trkpt><trkpt lat="34.5345283" lon="-6.464675"><ele>21.0</ele><time>2026-04-27T13:48:25.03Z</time></trkpt><trkpt lat="34.5347633" lon="-6.4644917"><ele>22.0</ele><time>2026-04-27T13:48:26.03Z</time></trkpt><trkpt lat="34.5349917" lon="-6.4643083"><ele>23.0</ele><time>2026-04-27T13:48:27.03Z</time></trkpt><trkpt lat="34.53522" lon="-6.4641283"><ele>23.0</ele><time>2026-04-27T13:48:28.03Z</time></trkpt><trkpt lat="34.5354533" lon="-6.463945"><ele>23.0</ele><time>2026-04-27T13:48:29.029Z</time></trkpt><trkpt lat="34.5356817" lon="-6.463765"><ele>24.5</ele><time>2026-04-27T13:48:30.03Z</time></trkpt><trkpt lat="34.5359167" lon="-6.4635833"><ele>26.0</ele><time>2026-04-27T13:48:31.03Z</time></trkpt><trkpt lat="34.5361517" lon="-6.46341"><ele>27.0</ele><time>2026-04-27T13:48:32.03Z</time></trkpt><trkpt lat="34.5363933" lon="-6.46324"><ele>28.0</ele><time>2026-04-27T13:48:33.03Z</time></trkpt><trkpt lat="34.5366383" lon="-6.46307"><ele>28.5</ele><time>2026-04-27T13:48:34.029Z</time></trkpt><trkpt lat="34.5368817" lon="-6.462905"><ele>29.0</ele><time>2026-04-27T13:48:35.029Z</time></trkpt><trkpt lat="34.5371267" lon="-6.4627433"><ele>27.5</ele><time>2026-04-27T13:48:36.029Z</time></trkpt><trkpt lat="34.5373717" lon="-6.4625883"><ele>26.0</ele><time>2026-04-27T13:48:37.03Z</time></trkpt><trkpt lat="34.5376183" lon="-6.4624417"><ele>26.0</ele><time>2026-04-27T13:48:38.03Z</time></trkpt><trkpt lat="34.53786" lon="-6.4622983"><ele>26.0</ele><time>2026-04-27T13:48:39.029Z</time></trkpt><trkpt lat="34.5381" lon="-6.4621583"><ele>27.5</ele><time>2026-04-27T13:48:40.029Z</time></trkpt><trkpt lat="34.5383417" lon="-6.4620183"><ele>29.0</ele><time>2026-04-27T13:48:41.029Z</time></trkpt><trkpt lat="34.5385867" lon="-6.4618833"><ele>28.0</ele><time>2026-04-27T13:48:42.029Z</time></trkpt><trkpt lat="34.5388367" lon="-6.461745"><ele>27.0</ele><time>2026-04-27T13:48:43.029Z</time></trkpt><trkpt lat="34.5390817" lon="-6.4616217"><ele>27.0</ele><time>2026-04-27T13:48:44.029Z</time></trkpt><trkpt lat="34.5393417" lon="-6.46151"><ele>27.0</ele><time>2026-04-27T13:48:45.029Z</time></trkpt><trkpt lat="34.5396083" lon="-6.4613917"><ele>28.0</ele><time>2026-04-27T13:48:46.029Z</time></trkpt><trkpt lat="34.539885" lon="-6.46127"><ele>29.0</ele><time>2026-04-27T13:48:47.029Z</time></trkpt><trkpt lat="34.5401617" lon="-6.4611533"><ele>28.5</ele><time>2026-04-27T13:48:48.028Z</time></trkpt><trkpt lat="34.5404467" lon="-6.4610417"><ele>28.0</ele><time>2026-04-27T13:48:49.029Z</time></trkpt><trkpt lat="34.5407333" lon="-6.460935"><ele>28.0</ele><time>2026-04-27T13:48:50.029Z</time></trkpt><trkpt lat="34.5410317" lon="-6.460845"><ele>28.0</ele><time>2026-04-27T13:48:51.029Z</time></trkpt><trkpt lat="34.541335" lon="-6.4607617"><ele>27.5</ele><time>2026-04-27T13:48:52.029Z</time></trkpt><trkpt lat="34.5416433" lon="-6.460675"><ele>27.0</ele><time>2026-04-27T13:48:53.029Z</time></trkpt><trkpt lat="34.5419367" lon="-6.4606033"><ele>28.5</ele><time>2026-04-27T13:48:54.028Z</time></trkpt><trkpt lat="34.542225" lon="-6.460535"><ele>30.0</ele><time>2026-04-27T13:48:55.029Z</time></trkpt><trkpt lat="34.5425133" lon="-6.46047"><ele>30.5</ele><time>2026-04-27T13:48:56.029Z</time></trkpt><trkpt lat="34.5427983" lon="-6.46041"><ele>31.0</ele><time>2026-04-27T13:48:57.029Z</time></trkpt><trkpt lat="34.5430883" lon="-6.460355"><ele>31.0</ele><time>2026-04-27T13:48:58.029Z</time></trkpt><trkpt lat="34.5433817" lon="-6.4603083"><ele>31.0</ele><time>2026-04-27T13:48:59.029Z</time></trkpt><trkpt lat="34.543675" lon="-6.4602667"><ele>29.0</ele><time>2026-04-27T13:49:00.029Z</time></trkpt><trkpt lat="34.5439683" lon="-6.4602283"><ele>27.0</ele><time>2026-04-27T13:49:01.029Z</time></trkpt><trkpt lat="34.544265" lon="-6.4601833"><ele>26.0</ele><time>2026-04-27T13:49:02.029Z</time></trkpt><trkpt lat="34.54456" lon="-6.4601383"><ele>25.0</ele><time>2026-04-27T13:49:03.029Z</time></trkpt><trkpt lat="34.54485" lon="-6.4600967"><ele>25.0</ele><time>2026-04-27T13:49:04.029Z</time></trkpt><trkpt lat="34.5451417" lon="-6.4600583"><ele>25.0</ele><time>2026-04-27T13:49:05.029Z</time></trkpt><trkpt lat="34.5454317" lon="-6.4600183"><ele>24.0</ele><time>2026-04-27T13:49:06.028Z</time></trkpt><trkpt lat="34.5457233" lon="-6.4599733"><ele>23.0</ele><time>2026-04-27T13:49:07.029Z</time></trkpt><trkpt lat="34.5460133" lon="-6.4599333"><ele>22.5</ele><time>2026-04-27T13:49:08.028Z</time></trkpt><trkpt lat="34.5463" lon="-6.4598883"><ele>22.0</ele><time>2026-04-27T13:49:09.029Z</time></trkpt><trkpt lat="34.54659" lon="-6.4598433"><ele>22.0</ele><time>2026-04-27T13:49:10.029Z</time></trkpt><trkpt lat="34.546875" lon="-6.4598033"><ele>22.0</ele><time>2026-04-27T13:49:11.028Z</time></trkpt><trkpt lat="34.5471667" lon="-6.4597617"><ele>19.5</ele><time>2026-04-27T13:49:12.029Z</time></trkpt><trkpt lat="34.5474583" lon="-6.4597233"><ele>17.0</ele><time>2026-04-27T13:49:13.029Z</time></trkpt><trkpt lat="34.547745" lon="-6.4596933"><ele>15.0</ele><time>2026-04-27T13:49:14.028Z</time></trkpt><trkpt lat="34.5480317" lon="-6.45966"><ele>13.0</ele><time>2026-04-27T13:49:15.028Z</time></trkpt><trkpt lat="34.548315" lon="-6.4596217"><ele>12.5</ele><time>2026-04-27T13:49:16.029Z</time></trkpt><trkpt lat="34.5486" lon="-6.4595867"><ele>12.0</ele><time>2026-04-27T13:49:17.029Z</time></trkpt><trkpt lat="34.5488867" lon="-6.4595467"><ele>11.5</ele><time>2026-04-27T13:49:18.029Z</time></trkpt><trkpt lat="34.5491733" lon="-6.459505"><ele>11.0</ele><time>2026-04-27T13:49:19.029Z</time></trkpt><trkpt lat="34.5494533" lon="-6.4594667"><ele>11.0</ele><time>2026-04-27T13:49:20.029Z</time></trkpt><trkpt lat="34.549715" lon="-6.4594267"><ele>11.0</ele><time>2026-04-27T13:49:21.029Z</time></trkpt><trkpt lat="34.5499717" lon="-6.4593917"><ele>11.0</ele><time>2026-04-27T13:49:22.029Z</time></trkpt><trkpt lat="34.5502283" lon="-6.4593583"><ele>11.0</ele><time>2026-04-27T13:49:23.029Z</time></trkpt><trkpt lat="34.55048" lon="-6.459325"><ele>11.0</ele><time>2026-04-27T13:49:24.028Z</time></trkpt><trkpt lat="34.550725" lon="-6.4592917"><ele>11.0</ele><time>2026-04-27T13:49:25.029Z</time></trkpt><trkpt lat="34.5509533" lon="-6.4592583"><ele>11.0</ele><time>2026-04-27T13:49:26.029Z</time></trkpt><trkpt lat="34.551175" lon="-6.4592183"><ele>11.0</ele><time>2026-04-27T13:49:27.029Z</time></trkpt><trkpt lat="34.551395" lon="-6.4591817"><ele>11.0</ele><time>2026-04-27T13:49:28.029Z</time></trkpt><trkpt lat="34.55161" lon="-6.45914"><ele>11.5</ele><time>2026-04-27T13:49:29.029Z</time></trkpt><trkpt lat="34.55183" lon="-6.4591"><ele>12.0</ele><time>2026-04-27T13:49:30.029Z</time></trkpt><trkpt lat="34.5520583" lon="-6.4590533"><ele>12.5</ele><time>2026-04-27T13:49:31.029Z</time></trkpt><trkpt lat="34.5522933" lon="-6.459005"><ele>13.0</ele><time>2026-04-27T13:49:32.028Z</time></trkpt><trkpt lat="34.5525417" lon="-6.458945"><ele>13.0</ele><time>2026-04-27T13:49:33.029Z</time></trkpt><trkpt lat="34.5527917" lon="-6.458885"><ele>13.0</ele><time>2026-04-27T13:49:34.028Z</time></trkpt><trkpt lat="34.5530483" lon="-6.4588183"><ele>12.0</ele><time>2026-04-27T13:49:35.029Z</time></trkpt><trkpt lat="34.5533083" lon="-6.458755"><ele>11.0</ele><time>2026-04-27T13:49:36.029Z</time></trkpt><trkpt lat="34.5535717" lon="-6.4586817"><ele>11.5</ele><time>2026-04-27T13:49:37.029Z</time></trkpt><trkpt lat="34.553845" lon="-6.4585983"><ele>12.0</ele><time>2026-04-27T13:49:38.029Z</time></trkpt><trkpt lat="34.5541233" lon="-6.4585133"><ele>12.0</ele><time>2026-04-27T13:49:39.029Z</time></trkpt><trkpt lat="34.55439" lon="-6.4584183"><ele>12.0</ele><time>2026-04-27T13:49:40.029Z</time></trkpt><trkpt lat="34.5546633" lon="-6.4583283"><ele>13.0</ele><time>2026-04-27T13:49:41.029Z</time></trkpt><trkpt lat="34.554945" lon="-6.4582267"><ele>14.0</ele><time>2026-04-27T13:49:42.029Z</time></trkpt><trkpt lat="34.5552233" lon="-6.45812"><ele>13.5</ele><time>2026-04-27T13:49:43.029Z</time></trkpt><trkpt lat="34.5554933" lon="-6.4580133"><ele>13.0</ele><time>2026-04-27T13:49:44.029Z</time></trkpt><trkpt lat="34.55575" lon="-6.4579"><ele>13.0</ele><time>2026-04-27T13:49:45.028Z</time></trkpt><trkpt lat="34.5560117" lon="-6.4577817"><ele>13.0</ele><time>2026-04-27T13:49:46.029Z</time></trkpt><trkpt lat="34.5562783" lon="-6.457655"><ele>13.0</ele><time>2026-04-27T13:49:47.029Z</time></trkpt><trkpt lat="34.55655" lon="-6.4575283"><ele>13.0</ele><time>2026-04-27T13:49:48.029Z</time></trkpt><trkpt lat="34.5568283" lon="-6.4573917"><ele>13.5</ele><time>2026-04-27T13:49:49.028Z</time></trkpt><trkpt lat="34.5571067" lon="-6.457245"><ele>14.0</ele><time>2026-04-27T13:49:50.029Z</time></trkpt><trkpt lat="34.5573783" lon="-6.4571"><ele>14.0</ele><time>2026-04-27T13:49:51.029Z</time></trkpt><trkpt lat="34.55764" lon="-6.456965"><ele>14.0</ele><time>2026-04-27T13:49:52.029Z</time></trkpt><trkpt lat="34.5579" lon="-6.456835"><ele>14.0</ele><time>2026-04-27T13:49:53.029Z</time></trkpt><trkpt lat="34.55816" lon="-6.4567"><ele>14.0</ele><time>2026-04-27T13:49:54.029Z</time></trkpt><trkpt lat="34.55842" lon="-6.4565683"><ele>14.0</ele><time>2026-04-27T13:49:55.029Z</time></trkpt><trkpt lat="34.5586817" lon="-6.4564367"><ele>14.0</ele><time>2026-04-27T13:49:56.029Z</time></trkpt><trkpt lat="34.5589383" lon="-6.456305"><ele>13.5</ele><time>2026-04-27T13:49:57.028Z</time></trkpt><trkpt lat="34.5591917" lon="-6.4561833"><ele>13.0</ele><time>2026-04-27T13:49:58.028Z</time></trkpt><trkpt lat="34.5594433" lon="-6.4560633"><ele>13.5</ele><time>2026-04-27T13:49:59.029Z</time></trkpt><trkpt lat="34.5596933" lon="-6.4559417"><ele>14.0</ele><time>2026-04-27T13:50:00.029Z</time></trkpt><trkpt lat="34.5599383" lon="-6.4558233"><ele>14.0</ele><time>2026-04-27T13:50:01.029Z</time></trkpt><trkpt lat="34.5601917" lon="-6.4557083"><ele>14.0</ele><time>2026-04-27T13:50:02.029Z</time></trkpt><trkpt lat="34.5604567" lon="-6.4555917"><ele>13.5</ele><time>2026-04-27T13:50:03.029Z</time></trkpt><trkpt lat="34.56073" lon="-6.4554733"><ele>13.0</ele><time>2026-04-27T13:50:04.028Z</time></trkpt><trkpt lat="34.5610217" lon="-6.455365"><ele>15.0</ele><time>2026-04-27T13:50:05.028Z</time></trkpt><trkpt lat="34.561325" lon="-6.45526"><ele>17.0</ele><time>2026-04-27T13:50:06.029Z</time></trkpt><trkpt lat="34.56164" lon="-6.4551533"><ele>17.0</ele><time>2026-04-27T13:50:07.029Z</time></trkpt><trkpt lat="34.561965" lon="-6.4550483"><ele>17.0</ele><time>2026-04-27T13:50:08.029Z</time></trkpt><trkpt lat="34.5622883" lon="-6.4549483"><ele>16.5</ele><time>2026-04-27T13:50:09.029Z</time></trkpt><trkpt lat="34.5626" lon="-6.4548567"><ele>16.0</ele><time>2026-04-27T13:50:10.029Z</time></trkpt><trkpt lat="34.5628967" lon="-6.454775"><ele>17.5</ele><time>2026-04-27T13:50:11.029Z</time></trkpt><trkpt lat="34.5631767" lon="-6.4547017"><ele>19.0</ele><time>2026-04-27T13:50:12.029Z</time></trkpt><trkpt lat="34.5634533" lon="-6.454635"><ele>18.5</ele><time>2026-04-27T13:50:13.029Z</time></trkpt><trkpt lat="34.56373" lon="-6.454565"><ele>18.0</ele><time>2026-04-27T13:50:14.029Z</time></trkpt><trkpt lat="34.5640133" lon="-6.4544983"><ele>18.0</ele><time>2026-04-27T13:50:15.029Z</time></trkpt><trkpt lat="34.5642967" lon="-6.4544333"><ele>18.0</ele><time>2026-04-27T13:50:16.029Z</time></trkpt><trkpt lat="34.5645817" lon="-6.4543633"><ele>18.5</ele><time>2026-04-27T13:50:17.029Z</time></trkpt><trkpt lat="34.56487" lon="-6.4542933"><ele>19.0</ele><time>2026-04-27T13:50:18.029Z</time></trkpt><trkpt lat="34.5651617" lon="-6.45422"><ele>19.5</ele><time>2026-04-27T13:50:19.028Z</time></trkpt><trkpt lat="34.5654483" lon="-6.454145"><ele>20.0</ele><time>2026-04-27T13:50:20.029Z</time></trkpt><trkpt lat="34.5657333" lon="-6.4540733"><ele>20.0</ele><time>2026-04-27T13:50:21.029Z</time></trkpt><trkpt lat="34.5660133" lon="-6.4540033"><ele>20.0</ele><time>2026-04-27T13:50:22.028Z</time></trkpt><trkpt lat="34.5662917" lon="-6.4539383"><ele>20.5</ele><time>2026-04-27T13:50:23.029Z</time></trkpt><trkpt lat="34.5665717" lon="-6.45387"><ele>21.0</ele><time>2026-04-27T13:50:24.028Z</time></trkpt><trkpt lat="34.56685" lon="-6.4538017"><ele>20.0</ele><time>2026-04-27T13:50:25.029Z</time></trkpt><trkpt lat="34.567125" lon="-6.45373"><ele>19.0</ele><time>2026-04-27T13:50:26.029Z</time></trkpt><trkpt lat="34.567405" lon="-6.453645"><ele>19.0</ele><time>2026-04-27T13:50:27.029Z</time></trkpt><trkpt lat="34.567675" lon="-6.4535533"><ele>19.0</ele><time>2026-04-27T13:50:28.029Z</time></trkpt><trkpt lat="34.5679517" lon="-6.453455"><ele>19.0</ele><time>2026-04-27T13:50:29.028Z</time></trkpt><trkpt lat="34.5682267" lon="-6.45335"><ele>19.0</ele><time>2026-04-27T13:50:30.029Z</time></trkpt><trkpt lat="34.5684967" lon="-6.45325"><ele>18.5</ele><time>2026-04-27T13:50:31.028Z</time></trkpt><trkpt lat="34.5687617" lon="-6.4531417"><ele>18.0</ele><time>2026-04-27T13:50:32.029Z</time></trkpt><trkpt lat="34.5690217" lon="-6.4530383"><ele>20.5</ele><time>2026-04-27T13:50:33.029Z</time></trkpt><trkpt lat="34.5692783" lon="-6.4529267"><ele>23.0</ele><time>2026-04-27T13:50:34.029Z</time></trkpt><trkpt lat="34.5695383" lon="-6.452815"><ele>23.0</ele><time>2026-04-27T13:50:35.029Z</time></trkpt><trkpt lat="34.5698033" lon="-6.4526983"><ele>23.0</ele><time>2026-04-27T13:50:36.029Z</time></trkpt><trkpt lat="34.5700733" lon="-6.4525783"><ele>23.0</ele><time>2026-04-27T13:50:37.029Z</time></trkpt><trkpt lat="34.5703467" lon="-6.4524483"><ele>23.0</ele><time>2026-04-27T13:50:38.028Z</time></trkpt><trkpt lat="34.570625" lon="-6.4523167"><ele>23.5</ele><time>2026-04-27T13:50:39.029Z</time></trkpt><trkpt lat="34.5709083" lon="-6.4521783"><ele>24.0</ele><time>2026-04-27T13:50:40.029Z</time></trkpt><trkpt lat="34.5711867" lon="-6.4520333"><ele>23.0</ele><time>2026-04-27T13:50:41.028Z</time></trkpt><trkpt lat="34.5714483" lon="-6.451885"><ele>22.0</ele><time>2026-04-27T13:50:42.029Z</time></trkpt><trkpt lat="34.5716983" lon="-6.45174"><ele>22.0</ele><time>2026-04-27T13:50:43.029Z</time></trkpt><trkpt lat="34.571945" lon="-6.4515917"><ele>22.0</ele><time>2026-04-27T13:50:44.028Z</time></trkpt><trkpt lat="34.5722067" lon="-6.4514317"><ele>23.5</ele><time>2026-04-27T13:50:45.029Z</time></trkpt><trkpt lat="34.5724717" lon="-6.4512617"><ele>25.0</ele><time>2026-04-27T13:50:46.029Z</time></trkpt><trkpt lat="34.57274" lon="-6.4510833"><ele>25.0</ele><time>2026-04-27T13:50:47.029Z</time></trkpt><trkpt lat="34.573005" lon="-6.4509033"><ele>25.0</ele><time>2026-04-27T13:50:48.029Z</time></trkpt><trkpt lat="34.57326" lon="-6.4507283"><ele>25.0</ele><time>2026-04-27T13:50:49.029Z</time></trkpt><trkpt lat="34.5734967" lon="-6.4505633"><ele>25.0</ele><time>2026-04-27T13:50:50.029Z</time></trkpt><trkpt lat="34.5737333" lon="-6.4504033"><ele>23.0</ele><time>2026-04-27T13:50:51.029Z</time></trkpt><trkpt lat="34.5739783" lon="-6.450245"><ele>21.0</ele><time>2026-04-27T13:50:52.029Z</time></trkpt><trkpt lat="34.5742283" lon="-6.4500817"><ele>21.0</ele><time>2026-04-27T13:50:53.029Z</time></trkpt><trkpt lat="34.5744767" lon="-6.4499233"><ele>21.0</ele><time>2026-04-27T13:50:54.029Z</time></trkpt><trkpt lat="34.5747267" lon="-6.4497583"><ele>20.0</ele><time>2026-04-27T13:50:55.029Z</time></trkpt><trkpt lat="34.5749783" lon="-6.449595"><ele>19.0</ele><time>2026-04-27T13:50:56.029Z</time></trkpt><trkpt lat="34.5752317" lon="-6.4494317"><ele>21.0</ele><time>2026-04-27T13:50:57.029Z</time></trkpt><trkpt lat="34.575485" lon="-6.4492683"><ele>23.0</ele><time>2026-04-27T13:50:58.029Z</time></trkpt><trkpt lat="34.5757283" lon="-6.4491017"><ele>23.0</ele><time>2026-04-27T13:50:59.029Z</time></trkpt><trkpt lat="34.5759667" lon="-6.4489383"><ele>23.0</ele><time>2026-04-27T13:51:00.029Z</time></trkpt><trkpt lat="34.576205" lon="-6.4487767"><ele>23.0</ele><time>2026-04-27T13:51:01.029Z</time></trkpt><trkpt lat="34.5764383" lon="-6.4486233"><ele>23.0</ele><time>2026-04-27T13:51:02.029Z</time></trkpt><trkpt lat="34.5766767" lon="-6.4484733"><ele>23.0</ele><time>2026-04-27T13:51:03.029Z</time></trkpt><trkpt lat="34.5769117" lon="-6.4483217"><ele>23.0</ele><time>2026-04-27T13:51:04.029Z</time></trkpt><trkpt lat="34.5771533" lon="-6.4481667"><ele>24.0</ele><time>2026-04-27T13:51:05.029Z</time></trkpt><trkpt lat="34.5774" lon="-6.448015"><ele>25.0</ele><time>2026-04-27T13:51:06.028Z</time></trkpt><trkpt lat="34.5776467" lon="-6.4478667"><ele>27.0</ele><time>2026-04-27T13:51:07.029Z</time></trkpt><trkpt lat="34.5779" lon="-6.4477267"><ele>29.0</ele><time>2026-04-27T13:51:08.029Z</time></trkpt><trkpt lat="34.5781517" lon="-6.4475883"><ele>29.0</ele><time>2026-04-27T13:51:09.029Z</time></trkpt><trkpt lat="34.5784083" lon="-6.4474467"><ele>29.0</ele><time>2026-04-27T13:51:10.029Z</time></trkpt><trkpt lat="34.5786667" lon="-6.4473133"><ele>29.5</ele><time>2026-04-27T13:51:11.029Z</time></trkpt><trkpt lat="34.5789283" lon="-6.4471783"><ele>30.0</ele><time>2026-04-27T13:51:12.029Z</time></trkpt><trkpt lat="34.5792" lon="-6.4470483"><ele>29.5</ele><time>2026-04-27T13:51:13.029Z</time></trkpt><trkpt lat="34.57947" lon="-6.446915"><ele>29.0</ele><time>2026-04-27T13:51:14.029Z</time></trkpt><trkpt lat="34.579735" lon="-6.4467917"><ele>29.0</ele><time>2026-04-27T13:51:15.028Z</time></trkpt><trkpt lat="34.5800033" lon="-6.44667"><ele>29.0</ele><time>2026-04-27T13:51:16.029Z</time></trkpt><trkpt lat="34.58028" lon="-6.4465533"><ele>29.0</ele><time>2026-04-27T13:51:17.029Z</time></trkpt><trkpt lat="34.5805517" lon="-6.4464367"><ele>29.0</ele><time>2026-04-27T13:51:18.029Z</time></trkpt><trkpt lat="34.5808317" lon="-6.4463217"><ele>28.0</ele><time>2026-04-27T13:51:19.029Z</time></trkpt><trkpt lat="34.58112" lon="-6.4462117"><ele>27.0</ele><time>2026-04-27T13:51:20.029Z</time></trkpt><trkpt lat="34.5814117" lon="-6.4461033"><ele>27.0</ele><time>2026-04-27T13:51:21.029Z</time></trkpt><trkpt lat="34.5817067" lon="-6.4459933"><ele>27.0</ele><time>2026-04-27T13:51:22.029Z</time></trkpt><trkpt lat="34.5819983" lon="-6.4458817"><ele>26.0</ele><time>2026-04-27T13:51:23.029Z</time></trkpt><trkpt lat="34.58228" lon="-6.4457833"><ele>25.0</ele><time>2026-04-27T13:51:24.029Z</time></trkpt><trkpt lat="34.582565" lon="-6.44568"><ele>25.0</ele><time>2026-04-27T13:51:25.029Z</time></trkpt><trkpt lat="34.5828567" lon="-6.44558"><ele>25.0</ele><time>2026-04-27T13:51:26.029Z</time></trkpt><trkpt lat="34.5831383" lon="-6.445485"><ele>24.0</ele><time>2026-04-27T13:51:27.029Z</time></trkpt><trkpt lat="34.5834117" lon="-6.4453933"><ele>23.0</ele><time>2026-04-27T13:51:28.029Z</time></trkpt><trkpt lat="34.5836783" lon="-6.445305"><ele>22.0</ele><time>2026-04-27T13:51:29.029Z</time></trkpt><trkpt lat="34.5839367" lon="-6.445215"><ele>21.0</ele><time>2026-04-27T13:51:30.029Z</time></trkpt><trkpt lat="34.5841967" lon="-6.4451317"><ele>21.0</ele><time>2026-04-27T13:51:31.029Z</time></trkpt><trkpt lat="34.5844517" lon="-6.4450433"><ele>21.0</ele><time>2026-04-27T13:51:32.029Z</time></trkpt><trkpt lat="34.584705" lon="-6.4449617"><ele>22.0</ele><time>2026-04-27T13:51:33.028Z</time></trkpt><trkpt lat="34.5849633" lon="-6.4448833"><ele>23.0</ele><time>2026-04-27T13:51:34.029Z</time></trkpt><trkpt lat="34.5852233" lon="-6.4448017"><ele>23.5</ele><time>2026-04-27T13:51:35.029Z</time></trkpt><trkpt lat="34.5854867" lon="-6.44472"><ele>24.0</ele><time>2026-04-27T13:51:36.029Z</time></trkpt><trkpt lat="34.5857583" lon="-6.4446333"><ele>23.0</ele><time>2026-04-27T13:51:37.029Z</time></trkpt><trkpt lat="34.5860283" lon="-6.4445467"><ele>22.0</ele><time>2026-04-27T13:51:38.029Z</time></trkpt><trkpt lat="34.5863033" lon="-6.4444583"><ele>22.0</ele><time>2026-04-27T13:51:39.029Z</time></trkpt><trkpt lat="34.5865867" lon="-6.4443683"><ele>22.0</ele><time>2026-04-27T13:51:40.028Z</time></trkpt><trkpt lat="34.5868683" lon="-6.4442783"><ele>22.5</ele><time>2026-04-27T13:51:41.029Z</time></trkpt><trkpt lat="34.5871533" lon="-6.4441833"><ele>23.0</ele><time>2026-04-27T13:51:42.029Z</time></trkpt><trkpt lat="34.5874333" lon="-6.4440783"><ele>23.0</ele><time>2026-04-27T13:51:43.029Z</time></trkpt><trkpt lat="34.587715" lon="-6.4439667"><ele>23.0</ele><time>2026-04-27T13:51:44.028Z</time></trkpt><trkpt lat="34.5879917" lon="-6.443855"><ele>22.5</ele><time>2026-04-27T13:51:45.028Z</time></trkpt><trkpt lat="34.5882717" lon="-6.443735"><ele>22.0</ele><time>2026-04-27T13:51:46.029Z</time></trkpt><trkpt lat="34.5885433" lon="-6.443615"><ele>23.0</ele><time>2026-04-27T13:51:47.029Z</time></trkpt><trkpt lat="34.5888133" lon="-6.44349"><ele>24.0</ele><time>2026-04-27T13:51:48.029Z</time></trkpt><trkpt lat="34.5890833" lon="-6.4433633"><ele>24.0</ele><time>2026-04-27T13:51:49.029Z</time></trkpt><trkpt lat="34.58935" lon="-6.44323"><ele>24.0</ele><time>2026-04-27T13:51:50.029Z</time></trkpt><trkpt lat="34.589615" lon="-6.443095"><ele>24.0</ele><time>2026-04-27T13:51:51.029Z</time></trkpt><trkpt lat="34.5898783" lon="-6.44296"><ele>24.0</ele><time>2026-04-27T13:51:52.029Z</time></trkpt><trkpt lat="34.5901433" lon="-6.4428183"><ele>24.0</ele><time>2026-04-27T13:51:53.028Z</time></trkpt><trkpt lat="34.5904083" lon="-6.4426733"><ele>24.0</ele><time>2026-04-27T13:51:54.029Z</time></trkpt><trkpt lat="34.5906733" lon="-6.4425267"><ele>24.0</ele><time>2026-04-27T13:51:55.028Z</time></trkpt><trkpt lat="34.5909383" lon="-6.442375"><ele>24.0</ele><time>2026-04-27T13:51:56.029Z</time></trkpt><trkpt lat="34.5912" lon="-6.4422117"><ele>23.0</ele><time>2026-04-27T13:51:57.029Z</time></trkpt><trkpt lat="34.5914583" lon="-6.4420417"><ele>22.0</ele><time>2026-04-27T13:51:58.029Z</time></trkpt><trkpt lat="34.5917233" lon="-6.4418717"><ele>22.0</ele><time>2026-04-27T13:51:59.029Z</time></trkpt><trkpt lat="34.5919833" lon="-6.441705"><ele>22.0</ele><time>2026-04-27T13:52:00.029Z</time></trkpt><trkpt lat="34.5922433" lon="-6.4415283"><ele>21.5</ele><time>2026-04-27T13:52:01.029Z</time></trkpt><trkpt lat="34.5925033" lon="-6.4413583"><ele>21.0</ele><time>2026-04-27T13:52:02.029Z</time></trkpt><trkpt lat="34.5927617" lon="-6.4411867"><ele>21.5</ele><time>2026-04-27T13:52:03.029Z</time></trkpt><trkpt lat="34.5930183" lon="-6.441015"><ele>22.0</ele><time>2026-04-27T13:52:04.029Z</time></trkpt><trkpt lat="34.5932733" lon="-6.440845"><ele>22.0</ele><time>2026-04-27T13:52:05.028Z</time></trkpt><trkpt lat="34.5935233" lon="-6.4406817"><ele>22.0</ele><time>2026-04-27T13:52:06.029Z</time></trkpt><trkpt lat="34.59377" lon="-6.440515"><ele>21.0</ele><time>2026-04-27T13:52:07.029Z</time></trkpt><trkpt lat="34.5940133" lon="-6.4403517"><ele>20.0</ele><time>2026-04-27T13:52:08.029Z</time></trkpt><trkpt lat="34.5942617" lon="-6.4401867"><ele>21.0</ele><time>2026-04-27T13:52:09.029Z</time></trkpt><trkpt lat="34.59451" lon="-6.4400283"><ele>22.0</ele><time>2026-04-27T13:52:10.028Z</time></trkpt><trkpt lat="34.59476" lon="-6.4398683"><ele>22.0</ele><time>2026-04-27T13:52:11.029Z</time></trkpt><trkpt lat="34.59501" lon="-6.4397"><ele>22.0</ele><time>2026-04-27T13:52:12.028Z</time></trkpt><trkpt lat="34.5952567" lon="-6.4395367"><ele>21.0</ele><time>2026-04-27T13:52:13.029Z</time></trkpt><trkpt lat="34.595505" lon="-6.4393733"><ele>20.0</ele><time>2026-04-27T13:52:14.029Z</time></trkpt><trkpt lat="34.5957533" lon="-6.4392117"><ele>20.0</ele><time>2026-04-27T13:52:15.029Z</time></trkpt><trkpt lat="34.5960033" lon="-6.4390467"><ele>20.0</ele><time>2026-04-27T13:52:16.028Z</time></trkpt><trkpt lat="34.5962567" lon="-6.438885"><ele>20.0</ele><time>2026-04-27T13:52:17.029Z</time></trkpt><trkpt lat="34.5965083" lon="-6.43872"><ele>20.0</ele><time>2026-04-27T13:52:18.029Z</time></trkpt><trkpt lat="34.596765" lon="-6.4385517"><ele>20.0</ele><time>2026-04-27T13:52:19.029Z</time></trkpt><trkpt lat="34.5970183" lon="-6.438385"><ele>20.0</ele><time>2026-04-27T13:52:20.029Z</time></trkpt><trkpt lat="34.5972767" lon="-6.438215"><ele>20.0</ele><time>2026-04-27T13:52:21.029Z</time></trkpt><trkpt lat="34.5975317" lon="-6.4380433"><ele>20.0</ele><time>2026-04-27T13:52:22.029Z</time></trkpt><trkpt lat="34.5977833" lon="-6.437875"><ele>20.5</ele><time>2026-04-27T13:52:23.029Z</time></trkpt><trkpt lat="34.59804" lon="-6.4377017"><ele>21.0</ele><time>2026-04-27T13:52:24.029Z</time></trkpt><trkpt lat="34.5982967" lon="-6.4375333"><ele>21.0</ele><time>2026-04-27T13:52:25.029Z</time></trkpt><trkpt lat="34.5985533" lon="-6.4373667"><ele>21.0</ele><time>2026-04-27T13:52:26.029Z</time></trkpt><trkpt lat="34.5988033" lon="-6.4372"><ele>21.0</ele><time>2026-04-27T13:52:27.029Z</time></trkpt><trkpt lat="34.5990533" lon="-6.437035"><ele>21.0</ele><time>2026-04-27T13:52:28.029Z</time></trkpt><trkpt lat="34.5993033" lon="-6.436875"><ele>22.0</ele><time>2026-04-27T13:52:29.029Z</time></trkpt><trkpt lat="34.5995517" lon="-6.4367183"><ele>23.0</ele><time>2026-04-27T13:52:30.029Z</time></trkpt><trkpt lat="34.5998017" lon="-6.436555"><ele>23.0</ele><time>2026-04-27T13:52:31.029Z</time></trkpt><trkpt lat="34.6000533" lon="-6.4363817"><ele>23.0</ele><time>2026-04-27T13:52:32.029Z</time></trkpt><trkpt lat="34.600305" lon="-6.4362117"><ele>22.5</ele><time>2026-04-27T13:52:33.029Z</time></trkpt><trkpt lat="34.6005617" lon="-6.43604"><ele>22.0</ele><time>2026-04-27T13:52:34.029Z</time></trkpt><trkpt lat="34.6008217" lon="-6.4358717"><ele>22.0</ele><time>2026-04-27T13:52:35.029Z</time></trkpt><trkpt lat="34.6010817" lon="-6.4357017"><ele>22.0</ele><time>2026-04-27T13:52:36.029Z</time></trkpt><trkpt lat="34.60134" lon="-6.4355333"><ele>21.5</ele><time>2026-04-27T13:52:37.029Z</time></trkpt><trkpt lat="34.6015933" lon="-6.43536"><ele>21.0</ele><time>2026-04-27T13:52:38.029Z</time></trkpt><trkpt lat="34.6018483" lon="-6.4351917"><ele>22.5</ele><time>2026-04-27T13:52:39.029Z</time></trkpt><trkpt lat="34.6020933" lon="-6.4350283"><ele>24.0</ele><time>2026-04-27T13:52:40.029Z</time></trkpt><trkpt lat="34.6023367" lon="-6.4348683"><ele>24.0</ele><time>2026-04-27T13:52:41.029Z</time></trkpt><trkpt lat="34.6025867" lon="-6.434715"><ele>24.0</ele><time>2026-04-27T13:52:42.029Z</time></trkpt><trkpt lat="34.602835" lon="-6.434555"><ele>22.5</ele><time>2026-04-27T13:52:43.029Z</time></trkpt><trkpt lat="34.6030867" lon="-6.4344033"><ele>21.0</ele><time>2026-04-27T13:52:44.029Z</time></trkpt><trkpt lat="34.6033483" lon="-6.4342583"><ele>21.0</ele><time>2026-04-27T13:52:45.029Z</time></trkpt><trkpt lat="34.6036067" lon="-6.4341167"><ele>21.0</ele><time>2026-04-27T13:52:46.029Z</time></trkpt><trkpt lat="34.6038683" lon="-6.4339767"><ele>21.0</ele><time>2026-04-27T13:52:47.029Z</time></trkpt><trkpt lat="34.6041283" lon="-6.4338417"><ele>21.0</ele><time>2026-04-27T13:52:48.029Z</time></trkpt><trkpt lat="34.604395" lon="-6.433705"><ele>21.0</ele><time>2026-04-27T13:52:49.029Z</time></trkpt><trkpt lat="34.604655" lon="-6.4335817"><ele>21.0</ele><time>2026-04-27T13:52:50.029Z</time></trkpt><trkpt lat="34.604905" lon="-6.4334617"><ele>21.0</ele><time>2026-04-27T13:52:51.029Z</time></trkpt><trkpt lat="34.605165" lon="-6.4333533"><ele>21.0</ele><time>2026-04-27T13:52:52.029Z</time></trkpt><trkpt lat="34.6054267" lon="-6.43325"><ele>21.5</ele><time>2026-04-27T13:52:53.029Z</time></trkpt><trkpt lat="34.6056883" lon="-6.4331417"><ele>22.0</ele><time>2026-04-27T13:52:54.028Z</time></trkpt><trkpt lat="34.605955" lon="-6.433035"><ele>22.0</ele><time>2026-04-27T13:52:55.029Z</time></trkpt><trkpt lat="34.6062183" lon="-6.4329333"><ele>22.0</ele><time>2026-04-27T13:52:56.029Z</time></trkpt><trkpt lat="34.6064867" lon="-6.432835"><ele>22.0</ele><time>2026-04-27T13:52:57.029Z</time></trkpt><trkpt lat="34.6067567" lon="-6.4327433"><ele>22.0</ele><time>2026-04-27T13:52:58.029Z</time></trkpt><trkpt lat="34.6070283" lon="-6.4326567"><ele>21.5</ele><time>2026-04-27T13:52:59.029Z</time></trkpt><trkpt lat="34.6073" lon="-6.4325667"><ele>21.0</ele><time>2026-04-27T13:53:00.029Z</time></trkpt><trkpt lat="34.60757" lon="-6.43248"><ele>21.5</ele><time>2026-04-27T13:53:01.029Z</time></trkpt><trkpt lat="34.6078383" lon="-6.4323933"><ele>22.0</ele><time>2026-04-27T13:53:02.028Z</time></trkpt><trkpt lat="34.608115" lon="-6.43231"><ele>22.0</ele><time>2026-04-27T13:53:03.029Z</time></trkpt><trkpt lat="34.6083917" lon="-6.43222"><ele>22.0</ele><time>2026-04-27T13:53:04.029Z</time></trkpt><trkpt lat="34.6086667" lon="-6.4321317"><ele>21.5</ele><time>2026-04-27T13:53:05.029Z</time></trkpt><trkpt lat="34.608945" lon="-6.4320433"><ele>21.0</ele><time>2026-04-27T13:53:06.029Z</time></trkpt><trkpt lat="34.6092217" lon="-6.4319567"><ele>21.5</ele><time>2026-04-27T13:53:07.029Z</time></trkpt><trkpt lat="34.6094967" lon="-6.4318683"><ele>22.0</ele><time>2026-04-27T13:53:08.029Z</time></trkpt><trkpt lat="34.609775" lon="-6.4317767"><ele>22.0</ele><time>2026-04-27T13:53:09.029Z</time></trkpt><trkpt lat="34.61005" lon="-6.431685"><ele>22.0</ele><time>2026-04-27T13:53:10.029Z</time></trkpt><trkpt lat="34.6103317" lon="-6.4315933"><ele>22.5</ele><time>2026-04-27T13:53:11.029Z</time></trkpt><trkpt lat="34.61061" lon="-6.4314933"><ele>23.0</ele><time>2026-04-27T13:53:12.029Z</time></trkpt><trkpt lat="34.6108917" lon="-6.431395"><ele>22.0</ele><time>2026-04-27T13:53:13.029Z</time></trkpt><trkpt lat="34.6111683" lon="-6.4312883"><ele>21.0</ele><time>2026-04-27T13:53:14.029Z</time></trkpt><trkpt lat="34.6114467" lon="-6.4311733"><ele>21.0</ele><time>2026-04-27T13:53:15.029Z</time></trkpt><trkpt lat="34.6117217" lon="-6.4310567"><ele>21.0</ele><time>2026-04-27T13:53:16.029Z</time></trkpt><trkpt lat="34.6120033" lon="-6.4309417"><ele>22.0</ele><time>2026-04-27T13:53:17.029Z</time></trkpt><trkpt lat="34.6122817" lon="-6.4308133"><ele>23.0</ele><time>2026-04-27T13:53:18.029Z</time></trkpt><trkpt lat="34.6125533" lon="-6.430685"><ele>23.0</ele><time>2026-04-27T13:53:19.029Z</time></trkpt><trkpt lat="34.6128283" lon="-6.4305483"><ele>23.0</ele><time>2026-04-27T13:53:20.029Z</time></trkpt><trkpt lat="34.6131033" lon="-6.4304067"><ele>22.5</ele><time>2026-04-27T13:53:21.029Z</time></trkpt><trkpt lat="34.6133667" lon="-6.4302467"><ele>22.0</ele><time>2026-04-27T13:53:22.029Z</time></trkpt><trkpt lat="34.6136217" lon="-6.4300817"><ele>22.0</ele><time>2026-04-27T13:53:23.029Z</time></trkpt><trkpt lat="34.613885" lon="-6.4299283"><ele>22.0</ele><time>2026-04-27T13:53:24.029Z</time></trkpt><trkpt lat="34.61415" lon="-6.4297617"><ele>20.5</ele><time>2026-04-27T13:53:25.029Z</time></trkpt><trkpt lat="34.6144083" lon="-6.4295867"><ele>19.0</ele><time>2026-04-27T13:53:26.029Z</time></trkpt><trkpt lat="34.61466" lon="-6.429405"><ele>19.0</ele><time>2026-04-27T13:53:27.029Z</time></trkpt><trkpt lat="34.614915" lon="-6.4292167"><ele>19.0</ele><time>2026-04-27T13:53:28.028Z</time></trkpt><trkpt lat="34.6151533" lon="-6.429035"><ele>19.5</ele><time>2026-04-27T13:53:29.029Z</time></trkpt><trkpt lat="34.6153833" lon="-6.4288533"><ele>20.0</ele><time>2026-04-27T13:53:30.029Z</time></trkpt><trkpt lat="34.61561" lon="-6.4286683"><ele>20.0</ele><time>2026-04-27T13:53:31.029Z</time></trkpt><trkpt lat="34.6158367" lon="-6.42848"><ele>20.0</ele><time>2026-04-27T13:53:32.029Z</time></trkpt><trkpt lat="34.6160567" lon="-6.4282867"><ele>20.5</ele><time>2026-04-27T13:53:33.029Z</time></trkpt><trkpt lat="34.61628" lon="-6.4280917"><ele>21.0</ele><time>2026-04-27T13:53:34.029Z</time></trkpt><trkpt lat="34.6164983" lon="-6.427895"><ele>21.0</ele><time>2026-04-27T13:53:35.028Z</time></trkpt><trkpt lat="34.61672" lon="-6.4276867"><ele>21.0</ele><time>2026-04-27T13:53:36.029Z</time></trkpt><trkpt lat="34.6169383" lon="-6.42748"><ele>21.0</ele><time>2026-04-27T13:53:37.028Z</time></trkpt><trkpt lat="34.6171633" lon="-6.4272667"><ele>21.0</ele><time>2026-04-27T13:53:38.029Z</time></trkpt><trkpt lat="34.6173833" lon="-6.4270517"><ele>21.0</ele><time>2026-04-27T13:53:39.029Z</time></trkpt><trkpt lat="34.617605" lon="-6.4268367"><ele>21.0</ele><time>2026-04-27T13:53:40.029Z</time></trkpt><trkpt lat="34.61783" lon="-6.4266233"><ele>21.0</ele><time>2026-04-27T13:53:41.029Z</time></trkpt><trkpt lat="34.6180533" lon="-6.4264083"><ele>21.0</ele><time>2026-04-27T13:53:42.029Z</time></trkpt><trkpt lat="34.618275" lon="-6.4261933"><ele>21.0</ele><time>2026-04-27T13:53:43.029Z</time></trkpt><trkpt lat="34.618505" lon="-6.4259733"><ele>21.0</ele><time>2026-04-27T13:53:44.029Z</time></trkpt><trkpt lat="34.6187333" lon="-6.425755"><ele>21.5</ele><time>2026-04-27T13:53:45.029Z</time></trkpt><trkpt lat="34.6189633" lon="-6.42554"><ele>22.0</ele><time>2026-04-27T13:53:46.029Z</time></trkpt><trkpt lat="34.6191983" lon="-6.42533"><ele>22.0</ele><time>2026-04-27T13:53:47.029Z</time></trkpt><trkpt lat="34.6194317" lon="-6.4251233"><ele>22.0</ele><time>2026-04-27T13:53:48.029Z</time></trkpt><trkpt lat="34.6196717" lon="-6.4249233"><ele>22.0</ele><time>2026-04-27T13:53:49.029Z</time></trkpt><trkpt lat="34.6199117" lon="-6.4247317"><ele>22.0</ele><time>2026-04-27T13:53:50.029Z</time></trkpt><trkpt lat="34.62015" lon="-6.42454"><ele>22.0</ele><time>2026-04-27T13:53:51.029Z</time></trkpt><trkpt lat="34.62039" lon="-6.4243517"><ele>22.0</ele><time>2026-04-27T13:53:52.029Z</time></trkpt><trkpt lat="34.6206333" lon="-6.4241667"><ele>22.0</ele><time>2026-04-27T13:53:53.028Z</time></trkpt><trkpt lat="34.6208767" lon="-6.42398"><ele>22.0</ele><time>2026-04-27T13:53:54.029Z</time></trkpt><trkpt lat="34.62112" lon="-6.4238033"><ele>21.0</ele><time>2026-04-27T13:53:55.029Z</time></trkpt><trkpt lat="34.621365" lon="-6.4236367"><ele>20.0</ele><time>2026-04-27T13:53:56.029Z</time></trkpt><trkpt lat="34.62161" lon="-6.4234683"><ele>20.0</ele><time>2026-04-27T13:53:57.029Z</time></trkpt><trkpt lat="34.6218617" lon="-6.4233017"><ele>20.0</ele><time>2026-04-27T13:53:58.029Z</time></trkpt><trkpt lat="34.6221117" lon="-6.42314"><ele>20.0</ele><time>2026-04-27T13:53:59.029Z</time></trkpt><trkpt lat="34.622365" lon="-6.4229817"><ele>20.0</ele><time>2026-04-27T13:54:00.028Z</time></trkpt><trkpt lat="34.622615" lon="-6.422825"><ele>19.5</ele><time>2026-04-27T13:54:01.029Z</time></trkpt><trkpt lat="34.6228683" lon="-6.4226667"><ele>19.0</ele><time>2026-04-27T13:54:02.028Z</time></trkpt><trkpt lat="34.623125" lon="-6.42251"><ele>19.0</ele><time>2026-04-27T13:54:03.029Z</time></trkpt><trkpt lat="34.6233733" lon="-6.4223567"><ele>19.0</ele><time>2026-04-27T13:54:04.029Z</time></trkpt><trkpt lat="34.623625" lon="-6.4222017"><ele>19.0</ele><time>2026-04-27T13:54:05.029Z</time></trkpt><trkpt lat="34.623875" lon="-6.4220433"><ele>19.0</ele><time>2026-04-27T13:54:06.029Z</time></trkpt><trkpt lat="34.6241283" lon="-6.4218817"><ele>19.0</ele><time>2026-04-27T13:54:07.028Z</time></trkpt><trkpt lat="34.6243783" lon="-6.4217183"><ele>19.0</ele><time>2026-04-27T13:54:08.029Z</time></trkpt><trkpt lat="34.6246267" lon="-6.4215617"><ele>20.0</ele><time>2026-04-27T13:54:09.029Z</time></trkpt><trkpt lat="34.624875" lon="-6.4214067"><ele>21.0</ele><time>2026-04-27T13:54:10.029Z</time></trkpt><trkpt lat="34.6251217" lon="-6.4212483"><ele>20.0</ele><time>2026-04-27T13:54:11.029Z</time></trkpt><trkpt lat="34.6253467" lon="-6.4210933"><ele>19.0</ele><time>2026-04-27T13:54:12.029Z</time></trkpt><trkpt lat="34.6255567" lon="-6.4209383"><ele>19.0</ele><time>2026-04-27T13:54:13.029Z</time></trkpt><trkpt lat="34.6257483" lon="-6.4207883"><ele>19.0</ele><time>2026-04-27T13:54:14.029Z</time></trkpt><trkpt lat="34.6259167" lon="-6.4206483"><ele>19.0</ele><time>2026-04-27T13:54:15.029Z</time></trkpt><trkpt lat="34.626075" lon="-6.4205117"><ele>19.666666666666664</ele><time>2026-04-27T13:54:16.029Z</time></trkpt><trkpt lat="34.6262267" lon="-6.4203817"><ele>20.333333333333332</ele><time>2026-04-27T13:54:17.029Z</time></trkpt><trkpt lat="34.6263733" lon="-6.4202533"><ele>21.0</ele><time>2026-04-27T13:54:18.029Z</time></trkpt><trkpt lat="34.62651" lon="-6.4201367"><ele>21.0</ele><time>2026-04-27T13:54:19.029Z</time></trkpt><trkpt lat="34.6266417" lon="-6.4200133"><ele>21.0</ele><time>2026-04-27T13:54:20.029Z</time></trkpt><trkpt lat="34.62676" lon="-6.4198767"><ele>21.0</ele><time>2026-04-27T13:54:21.029Z</time></trkpt><trkpt lat="34.62686" lon="-6.4197283"><ele>21.666666666666668</ele><time>2026-04-27T13:54:22.029Z</time></trkpt><trkpt lat="34.6269433" lon="-6.4195667"><ele>22.333333333333336</ele><time>2026-04-27T13:54:23.029Z</time></trkpt><trkpt lat="34.627005" lon="-6.4193833"><ele>23.0</ele><time>2026-04-27T13:54:24.029Z</time></trkpt><trkpt lat="34.627055" lon="-6.41919"><ele>23.0</ele><time>2026-04-27T13:54:25.028Z</time></trkpt><trkpt lat="34.6270667" lon="-6.4189767"><ele>23.0</ele><time>2026-04-27T13:54:26.029Z</time></trkpt><trkpt lat="34.627065" lon="-6.4187667"><ele>23.0</ele><time>2026-04-27T13:54:27.029Z</time></trkpt><trkpt lat="34.6270467" lon="-6.4185533"><ele>22.333333333333336</ele><time>2026-04-27T13:54:28.029Z</time></trkpt><trkpt lat="34.62703" lon="-6.418335"><ele>21.666666666666668</ele><time>2026-04-27T13:54:29.029Z</time></trkpt><trkpt lat="34.62701" lon="-6.4181183"><ele>21.0</ele><time>2026-04-27T13:54:30.029Z</time></trkpt><trkpt lat="34.6270133" lon="-6.4179133"><ele>19.666666666666668</ele><time>2026-04-27T13:54:31.029Z</time></trkpt><trkpt lat="34.6270283" lon="-6.4177117"><ele>18.333333333333336</ele><time>2026-04-27T13:54:32.029Z</time></trkpt><trkpt lat="34.6270617" lon="-6.4175067"><ele>17.0</ele><time>2026-04-27T13:54:33.029Z</time></trkpt><trkpt lat="34.6271167" lon="-6.4172983"><ele>15.666666666666668</ele><time>2026-04-27T13:54:34.029Z</time></trkpt><trkpt lat="34.6271933" lon="-6.4170867"><ele>14.333333333333332</ele><time>2026-04-27T13:54:35.029Z</time></trkpt><trkpt lat="34.6272883" lon="-6.416885"><ele>13.0</ele><time>2026-04-27T13:54:36.028Z</time></trkpt><trkpt lat="34.6273917" lon="-6.4167033"><ele>13.0</ele><time>2026-04-27T13:54:37.029Z</time></trkpt><trkpt lat="34.6275117" lon="-6.4165417"><ele>13.0</ele><time>2026-04-27T13:54:38.029Z</time></trkpt><trkpt lat="34.6276317" lon="-6.4163933"><ele>13.0</ele><time>2026-04-27T13:54:39.029Z</time></trkpt><trkpt lat="34.62776" lon="-6.4162583"><ele>12.333333333333332</ele><time>2026-04-27T13:54:40.029Z</time></trkpt><trkpt lat="34.62789" lon="-6.4161367"><ele>11.666666666666666</ele><time>2026-04-27T13:54:41.028Z</time></trkpt><trkpt lat="34.6280183" lon="-6.416015"><ele>11.0</ele><time>2026-04-27T13:54:42.029Z</time></trkpt><trkpt lat="34.6281467" lon="-6.4158967"><ele>11.0</ele><time>2026-04-27T13:54:43.029Z</time></trkpt><trkpt lat="34.62828" lon="-6.4157767"><ele>11.0</ele><time>2026-04-27T13:54:44.029Z</time></trkpt><trkpt lat="34.6284083" lon="-6.415655"><ele>11.0</ele><time>2026-04-27T13:54:45.029Z</time></trkpt><trkpt lat="34.628535" lon="-6.41555"><ele>11.25</ele><time>2026-04-27T13:54:46.029Z</time></trkpt><trkpt lat="34.628655" lon="-6.4154417"><ele>11.5</ele><time>2026-04-27T13:54:47.029Z</time></trkpt><trkpt lat="34.628775" lon="-6.4153383"><ele>11.75</ele><time>2026-04-27T13:54:48.029Z</time></trkpt><trkpt lat="34.628885" lon="-6.4152367"><ele>12.0</ele><time>2026-04-27T13:54:49.029Z</time></trkpt><trkpt lat="34.6289833" lon="-6.4151383"><ele>12.0</ele><time>2026-04-27T13:54:50.029Z</time></trkpt><trkpt lat="34.6290767" lon="-6.4150483"><ele>12.0</ele><time>2026-04-27T13:54:51.028Z</time></trkpt><trkpt lat="34.6291633" lon="-6.4149633"><ele>12.0</ele><time>2026-04-27T13:54:52.029Z</time></trkpt><trkpt lat="34.62924" lon="-6.4148867"><ele>12.0</ele><time>2026-04-27T13:54:53.029Z</time></trkpt><trkpt lat="34.6293033" lon="-6.41482"><ele>12.0</ele><time>2026-04-27T13:54:54.028Z</time></trkpt><trkpt lat="34.6293567" lon="-6.4147667"><ele>12.0</ele><time>2026-04-27T13:54:55.028Z</time></trkpt><trkpt lat="34.62942" lon="-6.4146983"><ele>12.0</ele><time>2026-04-27T13:54:57.029Z</time></trkpt><trkpt lat="34.6294767" lon="-6.4146467"><ele>12.0</ele><time>2026-04-27T13:55:00.028Z</time></trkpt><trkpt lat="34.6295917" lon="-6.4145133"><ele>12.0</ele><time>2026-04-27T13:57:14.028Z</time></trkpt><trkpt lat="34.62966" lon="-6.4144567"><ele>12.0</ele><time>2026-04-27T13:57:16.028Z</time></trkpt><trkpt lat="34.6297167" lon="-6.4144033"><ele>12.333333333333334</ele><time>2026-04-27T13:57:18.028Z</time></trkpt><trkpt lat="34.629785" lon="-6.4143467"><ele>12.666666666666668</ele><time>2026-04-27T13:57:21.028Z</time></trkpt><trkpt lat="34.629835" lon="-6.4142933"><ele>13.0</ele><time>2026-04-27T13:57:24.028Z</time></trkpt><trkpt lat="34.62992" lon="-6.4142067"><ele>13.333333333333334</ele><time>2026-04-27T13:57:59.027Z</time></trkpt><trkpt lat="34.6299833" lon="-6.4141717"><ele>13.666666666666668</ele><time>2026-04-27T13:58:00.028Z</time></trkpt><trkpt lat="34.6300433" lon="-6.4141233"><ele>14.0</ele><time>2026-04-27T13:58:01.028Z</time></trkpt><trkpt lat="34.6301083" lon="-6.4140683"><ele>14.0</ele><time>2026-04-27T13:58:02.028Z</time></trkpt><trkpt lat="34.6301833" lon="-6.4140067"><ele>13.999999999999998</ele><time>2026-04-27T13:58:03.028Z</time></trkpt><trkpt lat="34.6302667" lon="-6.41393"><ele>13.999999999999998</ele><time>2026-04-27T13:58:04.028Z</time></trkpt><trkpt lat="34.6303533" lon="-6.4138467"><ele>14.0</ele><time>2026-04-27T13:58:05.028Z</time></trkpt><trkpt lat="34.63044" lon="-6.4137683"><ele>14.0</ele><time>2026-04-27T13:58:06.028Z</time></trkpt><trkpt lat="34.63052" lon="-6.4136967"><ele>14.0</ele><time>2026-04-27T13:58:07.027Z</time></trkpt><trkpt lat="34.630595" lon="-6.4136217"><ele>13.999999999999998</ele><time>2026-04-27T13:58:08.027Z</time></trkpt><trkpt lat="34.6306767" lon="-6.4135433"><ele>13.999999999999998</ele><time>2026-04-27T13:58:09.027Z</time></trkpt><trkpt lat="34.6307633" lon="-6.4134633"><ele>14.0</ele><time>2026-04-27T13:58:10.027Z</time></trkpt><trkpt lat="34.6308567" lon="-6.4133833"><ele>14.0</ele><time>2026-04-27T13:58:11.028Z</time></trkpt><trkpt lat="34.63095" lon="-6.4132933"><ele>14.000000000000002</ele><time>2026-04-27T13:58:12.028Z</time></trkpt><trkpt lat="34.631025" lon="-6.4132033"><ele>14.0</ele><time>2026-04-27T13:58:13.028Z</time></trkpt><trkpt lat="34.6310717" lon="-6.4131117"><ele>14.0</ele><time>2026-04-27T13:58:14.028Z</time></trkpt><trkpt lat="34.631085" lon="-6.4130117"><ele>14.0</ele><time>2026-04-27T13:58:15.028Z</time></trkpt><trkpt lat="34.6310717" lon="-6.41292"><ele>14.000000000000002</ele><time>2026-04-27T13:58:16.028Z</time></trkpt><trkpt lat="34.63104" lon="-6.41284"><ele>14.0</ele><time>2026-04-27T13:58:17.028Z</time></trkpt><trkpt lat="34.6309983" lon="-6.412765"><ele>14.0</ele><time>2026-04-27T13:58:19.028Z</time></trkpt><trkpt lat="34.6309667" lon="-6.4126617"><ele>13.999999999999998</ele><time>2026-04-27T13:58:22.028Z</time></trkpt><trkpt lat="34.631015" lon="-6.41255"><ele>13.999999999999998</ele><time>2026-04-27T13:58:24.027Z</time></trkpt><trkpt lat="34.63107" lon="-6.4124833"><ele>14.0</ele><time>2026-04-27T13:58:25.028Z</time></trkpt><trkpt lat="34.63114" lon="-6.41242"><ele>14.0</ele><time>2026-04-27T13:58:26.028Z</time></trkpt><trkpt lat="34.6312267" lon="-6.4123533"><ele>14.2</ele><time>2026-04-27T13:58:27.028Z</time></trkpt><trkpt lat="34.6313233" lon="-6.4122867"><ele>14.399999999999999</ele><time>2026-04-27T13:58:28.028Z</time></trkpt><trkpt lat="34.6314133" lon="-6.4122233"><ele>14.6</ele><time>2026-04-27T13:58:29.028Z</time></trkpt><trkpt lat="34.631495" lon="-6.4121567"><ele>14.8</ele><time>2026-04-27T13:58:30.028Z</time></trkpt><trkpt lat="34.63157" lon="-6.4120883"><ele>15.0</ele><time>2026-04-27T13:58:31.028Z</time></trkpt><trkpt lat="34.63164" lon="-6.4120283"><ele>15.0</ele><time>2026-04-27T13:58:32.028Z</time></trkpt><trkpt lat="34.6317133" lon="-6.4119583"><ele>15.0</ele><time>2026-04-27T13:58:33.028Z</time></trkpt><trkpt lat="34.6317833" lon="-6.4118867"><ele>15.0</ele><time>2026-04-27T13:58:34.028Z</time></trkpt><trkpt lat="34.6318517" lon="-6.41181"><ele>15.0</ele><time>2026-04-27T13:58:35.028Z</time></trkpt><trkpt lat="34.63193" lon="-6.4117367"><ele>15.0</ele><time>2026-04-27T13:58:36.028Z</time></trkpt><trkpt lat="34.6320083" lon="-6.41166"><ele>15.2</ele><time>2026-04-27T13:58:37.028Z</time></trkpt><trkpt lat="34.6320883" lon="-6.4115783"><ele>15.4</ele><time>2026-04-27T13:58:38.027Z</time></trkpt><trkpt lat="34.632175" lon="-6.4115017"><ele>15.600000000000001</ele><time>2026-04-27T13:58:39.028Z</time></trkpt><trkpt lat="34.6322633" lon="-6.4114233"><ele>15.8</ele><time>2026-04-27T13:58:40.028Z</time></trkpt><trkpt lat="34.632355" lon="-6.4113383"><ele>16.0</ele><time>2026-04-27T13:58:41.028Z</time></trkpt><trkpt lat="34.63245" lon="-6.4112583"><ele>15.4</ele><time>2026-04-27T13:58:42.028Z</time></trkpt><trkpt lat="34.63254" lon="-6.411185"><ele>14.8</ele><time>2026-04-27T13:58:43.028Z</time></trkpt><trkpt lat="34.632625" lon="-6.41111"><ele>14.200000000000001</ele><time>2026-04-27T13:58:44.028Z</time></trkpt><trkpt lat="34.6327117" lon="-6.4110317"><ele>13.600000000000001</ele><time>2026-04-27T13:58:45.028Z</time></trkpt><trkpt lat="34.6327817" lon="-6.4109717"><ele>13.0</ele><time>2026-04-27T13:58:46.028Z</time></trkpt><trkpt lat="34.63287" lon="-6.4109"><ele>12.999999999999998</ele><time>2026-04-27T13:58:48.027Z</time></trkpt><trkpt lat="34.6329233" lon="-6.410855"><ele>13.0</ele><time>2026-04-27T13:58:50.028Z</time></trkpt><trkpt lat="34.6329883" lon="-6.4108083"><ele>13.0</ele><time>2026-04-27T13:58:52.028Z</time></trkpt><trkpt lat="34.6330733" lon="-6.4107333"><ele>13.0</ele><time>2026-04-27T13:58:54.028Z</time></trkpt><trkpt lat="34.6331267" lon="-6.4106817"><ele>12.999999999999998</ele><time>2026-04-27T13:58:55.028Z</time></trkpt><trkpt lat="34.6332017" lon="-6.410625"><ele>13.0</ele><time>2026-04-27T13:58:56.028Z</time></trkpt><trkpt lat="34.6332833" lon="-6.4105567"><ele>12.75</ele><time>2026-04-27T13:58:57.028Z</time></trkpt><trkpt lat="34.6333767" lon="-6.4104783"><ele>12.5</ele><time>2026-04-27T13:58:58.028Z</time></trkpt><trkpt lat="34.6334783" lon="-6.410395"><ele>12.25</ele><time>2026-04-27T13:58:59.028Z</time></trkpt><trkpt lat="34.63358" lon="-6.4103133"><ele>12.0</ele><time>2026-04-27T13:59:00.028Z</time></trkpt><trkpt lat="34.633675" lon="-6.4102317"><ele>12.0</ele><time>2026-04-27T13:59:01.028Z</time></trkpt><trkpt lat="34.6337767" lon="-6.4101533"><ele>12.0</ele><time>2026-04-27T13:59:02.028Z</time></trkpt><trkpt lat="34.6338717" lon="-6.4100717"><ele>12.0</ele><time>2026-04-27T13:59:03.028Z</time></trkpt><trkpt lat="34.6339733" lon="-6.4099817"><ele>12.0</ele><time>2026-04-27T13:59:04.028Z</time></trkpt><trkpt lat="34.6340783" lon="-6.4098917"><ele>12.0</ele><time>2026-04-27T13:59:05.028Z</time></trkpt><trkpt lat="34.63419" lon="-6.409795"><ele>12.0</ele><time>2026-04-27T13:59:06.028Z</time></trkpt><trkpt lat="34.6343067" lon="-6.4096967"><ele>12.0</ele><time>2026-04-27T13:59:07.028Z</time></trkpt><trkpt lat="34.6344267" lon="-6.4095967"><ele>12.0</ele><time>2026-04-27T13:59:08.028Z</time></trkpt><trkpt lat="34.6345483" lon="-6.4094967"><ele>11.5</ele><time>2026-04-27T13:59:09.028Z</time></trkpt><trkpt lat="34.6346833" lon="-6.4093983"><ele>11.0</ele><time>2026-04-27T13:59:10.028Z</time></trkpt><trkpt lat="34.634805" lon="-6.4093"><ele>10.5</ele><time>2026-04-27T13:59:11.027Z</time></trkpt><trkpt lat="34.63492" lon="-6.4092133"><ele>10.0</ele><time>2026-04-27T13:59:12.028Z</time></trkpt><trkpt lat="34.635035" lon="-6.4091133"><ele>10.0</ele><time>2026-04-27T13:59:13.028Z</time></trkpt><trkpt lat="34.63515" lon="-6.4090183"><ele>10.0</ele><time>2026-04-27T13:59:14.027Z</time></trkpt><trkpt lat="34.6352683" lon="-6.4089283"><ele>10.0</ele><time>2026-04-27T13:59:15.028Z</time></trkpt><trkpt lat="34.6353833" lon="-6.4088417"><ele>10.0</ele><time>2026-04-27T13:59:16.028Z</time></trkpt><trkpt lat="34.6355083" lon="-6.4087583"><ele>9.5</ele><time>2026-04-27T13:59:17.028Z</time></trkpt><trkpt lat="34.6356333" lon="-6.408675"><ele>9.0</ele><time>2026-04-27T13:59:18.028Z</time></trkpt><trkpt lat="34.63576" lon="-6.408595"><ele>8.5</ele><time>2026-04-27T13:59:19.028Z</time></trkpt><trkpt lat="34.6358917" lon="-6.4085133"><ele>8.0</ele><time>2026-04-27T13:59:20.028Z</time></trkpt><trkpt lat="34.6360283" lon="-6.408425"><ele>8.666666666666666</ele><time>2026-04-27T13:59:21.028Z</time></trkpt><trkpt lat="34.63617" lon="-6.4083417"><ele>9.333333333333334</ele><time>2026-04-27T13:59:22.028Z</time></trkpt><trkpt lat="34.63632" lon="-6.4082517"><ele>10.0</ele><time>2026-04-27T13:59:23.028Z</time></trkpt><trkpt lat="34.63646" lon="-6.408155"><ele>10.0</ele><time>2026-04-27T13:59:24.028Z</time></trkpt><trkpt lat="34.6366033" lon="-6.4080567"><ele>10.0</ele><time>2026-04-27T13:59:25.028Z</time></trkpt><trkpt lat="34.6367467" lon="-6.407965"><ele>10.0</ele><time>2026-04-27T13:59:26.028Z</time></trkpt><trkpt lat="34.636885" lon="-6.4078667"><ele>9.666666666666668</ele><time>2026-04-27T13:59:27.028Z</time></trkpt><trkpt lat="34.6370283" lon="-6.4077767"><ele>9.333333333333334</ele><time>2026-04-27T13:59:28.028Z</time></trkpt><trkpt lat="34.637175" lon="-6.40769"><ele>9.0</ele><time>2026-04-27T13:59:29.028Z</time></trkpt><trkpt lat="34.637315" lon="-6.4076033"><ele>9.0</ele><time>2026-04-27T13:59:30.028Z</time></trkpt><trkpt lat="34.6374617" lon="-6.4075167"><ele>9.0</ele><time>2026-04-27T13:59:31.028Z</time></trkpt><trkpt lat="34.63761" lon="-6.4074333"><ele>9.0</ele><time>2026-04-27T13:59:32.028Z</time></trkpt><trkpt lat="34.637755" lon="-6.4073617"><ele>8.666666666666666</ele><time>2026-04-27T13:59:33.028Z</time></trkpt><trkpt lat="34.6379067" lon="-6.40729"><ele>8.333333333333332</ele><time>2026-04-27T13:59:34.028Z</time></trkpt><trkpt lat="34.6380533" lon="-6.4072283"><ele>8.0</ele><time>2026-04-27T13:59:35.028Z</time></trkpt><trkpt lat="34.6381933" lon="-6.4071733"><ele>7.5</ele><time>2026-04-27T13:59:36.028Z</time></trkpt><trkpt lat="34.6383367" lon="-6.4071133"><ele>7.0</ele><time>2026-04-27T13:59:37.028Z</time></trkpt><trkpt lat="34.6384783" lon="-6.40706"><ele>6.5</ele><time>2026-04-27T13:59:38.028Z</time></trkpt><trkpt lat="34.6386217" lon="-6.40701"><ele>6.0</ele><time>2026-04-27T13:59:39.028Z</time></trkpt><trkpt lat="34.638775" lon="-6.40696"><ele>6.0</ele><time>2026-04-27T13:59:40.028Z</time></trkpt><trkpt lat="34.63893" lon="-6.406915"><ele>6.0</ele><time>2026-04-27T13:59:41.028Z</time></trkpt><trkpt lat="34.63909" lon="-6.4068683"><ele>6.0</ele><time>2026-04-27T13:59:42.027Z</time></trkpt><trkpt lat="34.63926" lon="-6.4068167"><ele>6.0</ele><time>2026-04-27T13:59:43.028Z</time></trkpt><trkpt lat="34.6394267" lon="-6.4067683"><ele>6.0</ele><time>2026-04-27T13:59:44.027Z</time></trkpt><trkpt lat="34.6395867" lon="-6.4067233"><ele>6.0</ele><time>2026-04-27T13:59:45.028Z</time></trkpt><trkpt lat="34.63974" lon="-6.4066767"><ele>6.333333333333334</ele><time>2026-04-27T13:59:46.028Z</time></trkpt><trkpt lat="34.6398883" lon="-6.4066333"><ele>6.666666666666667</ele><time>2026-04-27T13:59:47.027Z</time></trkpt><trkpt lat="34.6400333" lon="-6.4065817"><ele>7.0</ele><time>2026-04-27T13:59:48.027Z</time></trkpt><trkpt lat="34.6401783" lon="-6.40653"><ele>7.333333333333334</ele><time>2026-04-27T13:59:49.028Z</time></trkpt><trkpt lat="34.6403183" lon="-6.40648"><ele>7.666666666666666</ele><time>2026-04-27T13:59:50.028Z</time></trkpt><trkpt lat="34.64047" lon="-6.4064317"><ele>8.0</ele><time>2026-04-27T13:59:51.028Z</time></trkpt><trkpt lat="34.6406217" lon="-6.40638"><ele>7.333333333333333</ele><time>2026-04-27T13:59:52.028Z</time></trkpt><trkpt lat="34.6407767" lon="-6.4063233"><ele>6.666666666666666</ele><time>2026-04-27T13:59:53.028Z</time></trkpt><trkpt lat="34.6409333" lon="-6.4062533"><ele>6.0</ele><time>2026-04-27T13:59:54.028Z</time></trkpt><trkpt lat="34.6410817" lon="-6.4061717"><ele>7.666666666666666</ele><time>2026-04-27T13:59:55.028Z</time></trkpt><trkpt lat="34.6412333" lon="-6.4060733"><ele>9.333333333333332</ele><time>2026-04-27T13:59:56.028Z</time></trkpt><trkpt lat="34.6413883" lon="-6.405965"><ele>11.0</ele><time>2026-04-27T13:59:57.028Z</time></trkpt><trkpt lat="34.6415367" lon="-6.405845"><ele>11.0</ele><time>2026-04-27T13:59:58.028Z</time></trkpt><trkpt lat="34.6416883" lon="-6.4057267"><ele>11.0</ele><time>2026-04-27T13:59:59.027Z</time></trkpt><trkpt lat="34.6418517" lon="-6.4056067"><ele>11.0</ele><time>2026-04-27T14:00:00.028Z</time></trkpt><trkpt lat="34.64201" lon="-6.4054883"><ele>10.0</ele><time>2026-04-27T14:00:01.028Z</time></trkpt><trkpt lat="34.64217" lon="-6.4053633"><ele>9.0</ele><time>2026-04-27T14:00:02.028Z</time></trkpt><trkpt lat="34.6423217" lon="-6.40525"><ele>8.0</ele><time>2026-04-27T14:00:03.028Z</time></trkpt><trkpt lat="34.6424783" lon="-6.4051317"><ele>8.0</ele><time>2026-04-27T14:00:04.028Z</time></trkpt><trkpt lat="34.6426333" lon="-6.4050233"><ele>8.0</ele><time>2026-04-27T14:00:05.028Z</time></trkpt><trkpt lat="34.6427867" lon="-6.40491"><ele>8.0</ele><time>2026-04-27T14:00:06.028Z</time></trkpt><trkpt lat="34.64294" lon="-6.4047967"><ele>8.0</ele><time>2026-04-27T14:00:07.027Z</time></trkpt><trkpt lat="34.643085" lon="-6.40469"><ele>8.0</ele><time>2026-04-27T14:00:08.028Z</time></trkpt><trkpt lat="34.6432233" lon="-6.40459"><ele>8.0</ele><time>2026-04-27T14:00:09.028Z</time></trkpt><trkpt lat="34.6433667" lon="-6.4044917"><ele>8.0</ele><time>2026-04-27T14:00:10.028Z</time></trkpt><trkpt lat="34.6435083" lon="-6.404385"><ele>8.0</ele><time>2026-04-27T14:00:11.027Z</time></trkpt><trkpt lat="34.6436517" lon="-6.4042683"><ele>8.0</ele><time>2026-04-27T14:00:12.027Z</time></trkpt><trkpt lat="34.6438" lon="-6.404155"><ele>8.666666666666666</ele><time>2026-04-27T14:00:13.028Z</time></trkpt><trkpt lat="34.6439517" lon="-6.404045"><ele>9.333333333333334</ele><time>2026-04-27T14:00:14.028Z</time></trkpt><trkpt lat="34.6441033" lon="-6.40393"><ele>10.0</ele><time>2026-04-27T14:00:15.028Z</time></trkpt><trkpt lat="34.6442567" lon="-6.40381"><ele>8.666666666666668</ele><time>2026-04-27T14:00:16.028Z</time></trkpt><trkpt lat="34.64441" lon="-6.403695"><ele>7.333333333333334</ele><time>2026-04-27T14:00:17.028Z</time></trkpt><trkpt lat="34.6445683" lon="-6.4035767"><ele>6.0</ele><time>2026-04-27T14:00:18.028Z</time></trkpt><trkpt lat="34.6447267" lon="-6.4034633"><ele>6.0</ele><time>2026-04-27T14:00:19.028Z</time></trkpt><trkpt lat="34.644885" lon="-6.40335"><ele>6.0</ele><time>2026-04-27T14:00:20.028Z</time></trkpt><trkpt lat="34.6450417" lon="-6.40323"><ele>6.0</ele><time>2026-04-27T14:00:21.028Z</time></trkpt><trkpt lat="34.6452033" lon="-6.4031117"><ele>6.0</ele><time>2026-04-27T14:00:22.028Z</time></trkpt><trkpt lat="34.6453617" lon="-6.402995"><ele>6.0</ele><time>2026-04-27T14:00:23.028Z</time></trkpt><trkpt lat="34.64552" lon="-6.4028783"><ele>6.0</ele><time>2026-04-27T14:00:24.028Z</time></trkpt><trkpt lat="34.6456783" lon="-6.4027633"><ele>6.0</ele><time>2026-04-27T14:00:25.028Z</time></trkpt><trkpt lat="34.645835" lon="-6.402645"><ele>6.0</ele><time>2026-04-27T14:00:26.028Z</time></trkpt><trkpt lat="34.6459917" lon="-6.4025267"><ele>6.0</ele><time>2026-04-27T14:00:27.027Z</time></trkpt><trkpt lat="34.646145" lon="-6.4024083"><ele>6.333333333333334</ele><time>2026-04-27T14:00:28.028Z</time></trkpt><trkpt lat="34.6463033" lon="-6.40229"><ele>6.666666666666667</ele><time>2026-04-27T14:00:29.028Z</time></trkpt><trkpt lat="34.64646" lon="-6.4021783"><ele>7.0</ele><time>2026-04-27T14:00:30.028Z</time></trkpt><trkpt lat="34.6466167" lon="-6.4020667"><ele>7.0</ele><time>2026-04-27T14:00:31.027Z</time></trkpt><trkpt lat="34.6467683" lon="-6.4019433"><ele>7.0</ele><time>2026-04-27T14:00:32.027Z</time></trkpt><trkpt lat="34.6469267" lon="-6.4018233"><ele>7.0</ele><time>2026-04-27T14:00:33.027Z</time></trkpt><trkpt lat="34.6470917" lon="-6.4017033"><ele>8.333333333333334</ele><time>2026-04-27T14:00:34.027Z</time></trkpt><trkpt lat="34.647255" lon="-6.4015833"><ele>9.666666666666666</ele><time>2026-04-27T14:00:35.027Z</time></trkpt><trkpt lat="34.6474067" lon="-6.4014683"><ele>11.0</ele><time>2026-04-27T14:00:36.027Z</time></trkpt><trkpt lat="34.6475517" lon="-6.4013567"><ele>11.333333333333332</ele><time>2026-04-27T14:00:37.027Z</time></trkpt><trkpt lat="34.64769" lon="-6.4012417"><ele>11.666666666666666</ele><time>2026-04-27T14:00:38.027Z</time></trkpt><trkpt lat="34.6478233" lon="-6.4011367"><ele>12.0</ele><time>2026-04-27T14:00:39.027Z</time></trkpt><trkpt lat="34.64795" lon="-6.4010433"><ele>12.0</ele><time>2026-04-27T14:00:40.027Z</time></trkpt><trkpt lat="34.6480767" lon="-6.4009433"><ele>12.0</ele><time>2026-04-27T14:00:41.027Z</time></trkpt><trkpt lat="34.648225" lon="-6.4008317"><ele>12.0</ele><time>2026-04-27T14:00:42.027Z</time></trkpt><trkpt lat="34.64838" lon="-6.4007067"><ele>12.0</ele><time>2026-04-27T14:00:43.027Z</time></trkpt><trkpt lat="34.6485367" lon="-6.400595"><ele>12.0</ele><time>2026-04-27T14:00:44.027Z</time></trkpt><trkpt lat="34.64869" lon="-6.40049"><ele>12.0</ele><time>2026-04-27T14:00:45.027Z</time></trkpt><trkpt lat="34.648845" lon="-6.4003817"><ele>11.666666666666666</ele><time>2026-04-27T14:00:46.027Z</time></trkpt><trkpt lat="34.6490083" lon="-6.4002683"><ele>11.333333333333332</ele><time>2026-04-27T14:00:47.027Z</time></trkpt><trkpt lat="34.64918" lon="-6.4001417"><ele>11.0</ele><time>2026-04-27T14:00:48.027Z</time></trkpt><trkpt lat="34.6493617" lon="-6.4"><ele>15.5</ele><time>2026-04-27T14:00:49.027Z</time></trkpt><trkpt lat="34.64956" lon="-6.3998467"><ele>20.0</ele><time>2026-04-27T14:00:50.027Z</time></trkpt><trkpt lat="34.649765" lon="-6.3996933"><ele>14.0</ele><time>2026-04-27T14:00:51.027Z</time></trkpt><trkpt lat="34.649975" lon="-6.3995283"><ele>8.0</ele><time>2026-04-27T14:00:52.027Z</time></trkpt><trkpt lat="34.650185" lon="-6.3993633"><ele>13.5</ele><time>2026-04-27T14:00:53.027Z</time></trkpt><trkpt lat="34.6503833" lon="-6.399205"><ele>19.0</ele><time>2026-04-27T14:00:54.027Z</time></trkpt><trkpt lat="34.650575" lon="-6.3990517"><ele>19.0</ele><time>2026-04-27T14:00:55.027Z</time></trkpt><trkpt lat="34.650775" lon="-6.3988983"><ele>19.0</ele><time>2026-04-27T14:00:56.027Z</time></trkpt><trkpt lat="34.6509767" lon="-6.398735"><ele>16.0</ele><time>2026-04-27T14:00:57.027Z</time></trkpt><trkpt lat="34.6511767" lon="-6.398575"><ele>13.0</ele><time>2026-04-27T14:00:58.027Z</time></trkpt><trkpt lat="34.6513667" lon="-6.3984283"><ele>13.0</ele><time>2026-04-27T14:00:59.027Z</time></trkpt><trkpt lat="34.6515467" lon="-6.398285"><ele>13.0</ele><time>2026-04-27T14:01:00.027Z</time></trkpt><trkpt lat="34.651725" lon="-6.398145"><ele>13.0</ele><time>2026-04-27T14:01:01.027Z</time></trkpt><trkpt lat="34.65191" lon="-6.398"><ele>11.0</ele><time>2026-04-27T14:01:02.027Z</time></trkpt><trkpt lat="34.6520983" lon="-6.397855"><ele>9.0</ele><time>2026-04-27T14:01:03.027Z</time></trkpt><trkpt lat="34.6522917" lon="-6.3977067"><ele>9.0</ele><time>2026-04-27T14:01:04.027Z</time></trkpt><trkpt lat="34.6524933" lon="-6.3975567"><ele>9.0</ele><time>2026-04-27T14:01:05.027Z</time></trkpt><trkpt lat="34.6526883" lon="-6.3974183"><ele>8.333333333333334</ele><time>2026-04-27T14:01:06.027Z</time></trkpt><trkpt lat="34.6528717" lon="-6.3972883"><ele>7.666666666666667</ele><time>2026-04-27T14:01:07.027Z</time></trkpt><trkpt lat="34.6530467" lon="-6.397165"><ele>7.0</ele><time>2026-04-27T14:01:08.027Z</time></trkpt><trkpt lat="34.6532083" lon="-6.39705"><ele>7.0</ele><time>2026-04-27T14:01:09.026Z</time></trkpt><trkpt lat="34.6533567" lon="-6.396935"><ele>7.0</ele><time>2026-04-27T14:01:10.027Z</time></trkpt><trkpt lat="34.6534933" lon="-6.3968283"><ele>7.0</ele><time>2026-04-27T14:01:11.027Z</time></trkpt><trkpt lat="34.6536217" lon="-6.3967333"><ele>8.0</ele><time>2026-04-27T14:01:12.027Z</time></trkpt><trkpt lat="34.6537467" lon="-6.3966417"><ele>9.0</ele><time>2026-04-27T14:01:13.027Z</time></trkpt><trkpt lat="34.6538617" lon="-6.3965533"><ele>10.0</ele><time>2026-04-27T14:01:14.027Z</time></trkpt><trkpt lat="34.6539783" lon="-6.3964717"><ele>11.0</ele><time>2026-04-27T14:01:15.027Z</time></trkpt><trkpt lat="34.6540833" lon="-6.39638"><ele>10.333333333333332</ele><time>2026-04-27T14:01:16.027Z</time></trkpt><trkpt lat="34.65421" lon="-6.39628"><ele>9.666666666666666</ele><time>2026-04-27T14:01:17.027Z</time></trkpt><trkpt lat="34.6543533" lon="-6.3961717"><ele>9.0</ele><time>2026-04-27T14:01:18.027Z</time></trkpt><trkpt lat="34.6545117" lon="-6.3960667"><ele>9.0</ele><time>2026-04-27T14:01:19.027Z</time></trkpt><trkpt lat="34.654675" lon="-6.3959617"><ele>9.0</ele><time>2026-04-27T14:01:20.027Z</time></trkpt><trkpt lat="34.65485" lon="-6.3958467"><ele>9.0</ele><time>2026-04-27T14:01:21.027Z</time></trkpt><trkpt lat="34.6550267" lon="-6.3957167"><ele>9.0</ele><time>2026-04-27T14:01:22.027Z</time></trkpt><trkpt lat="34.6552167" lon="-6.395585"><ele>9.0</ele><time>2026-04-27T14:01:23.027Z</time></trkpt><trkpt lat="34.6554117" lon="-6.3954483"><ele>9.0</ele><time>2026-04-27T14:01:24.026Z</time></trkpt><trkpt lat="34.65561" lon="-6.3953"><ele>8.666666666666666</ele><time>2026-04-27T14:01:25.027Z</time></trkpt><trkpt lat="34.6558033" lon="-6.3951533"><ele>8.333333333333332</ele><time>2026-04-27T14:01:26.027Z</time></trkpt><trkpt lat="34.6559817" lon="-6.39502"><ele>8.0</ele><time>2026-04-27T14:01:27.027Z</time></trkpt><trkpt lat="34.6561517" lon="-6.3948883"><ele>8.0</ele><time>2026-04-27T14:01:28.027Z</time></trkpt><trkpt lat="34.65631" lon="-6.394765"><ele>8.0</ele><time>2026-04-27T14:01:29.027Z</time></trkpt><trkpt lat="34.6564567" lon="-6.3946417"><ele>8.0</ele><time>2026-04-27T14:01:30.027Z</time></trkpt><trkpt lat="34.656605" lon="-6.3945267"><ele>8.0</ele><time>2026-04-27T14:01:31.027Z</time></trkpt><trkpt lat="34.6567667" lon="-6.394405"><ele>8.0</ele><time>2026-04-27T14:01:32.027Z</time></trkpt><trkpt lat="34.6569283" lon="-6.39428"><ele>8.0</ele><time>2026-04-27T14:01:33.027Z</time></trkpt><trkpt lat="34.6570967" lon="-6.3941467"><ele>8.0</ele><time>2026-04-27T14:01:34.027Z</time></trkpt><trkpt lat="34.657275" lon="-6.3940133"><ele>8.0</ele><time>2026-04-27T14:01:35.027Z</time></trkpt><trkpt lat="34.65746" lon="-6.3938817"><ele>8.0</ele><time>2026-04-27T14:01:36.027Z</time></trkpt><trkpt lat="34.657655" lon="-6.3937583"><ele>8.666666666666666</ele><time>2026-04-27T14:01:37.026Z</time></trkpt><trkpt lat="34.6578433" lon="-6.3936367"><ele>9.333333333333334</ele><time>2026-04-27T14:01:38.027Z</time></trkpt><trkpt lat="34.6580233" lon="-6.3935183"><ele>10.0</ele><time>2026-04-27T14:01:39.027Z</time></trkpt><trkpt lat="34.6582017" lon="-6.3933967"><ele>10.0</ele><time>2026-04-27T14:01:40.027Z</time></trkpt><trkpt lat="34.658385" lon="-6.3932733"><ele>10.0</ele><time>2026-04-27T14:01:41.027Z</time></trkpt><trkpt lat="34.6585667" lon="-6.39315"><ele>10.0</ele><time>2026-04-27T14:01:42.026Z</time></trkpt><trkpt lat="34.658755" lon="-6.3930283"><ele>10.666666666666668</ele><time>2026-04-27T14:01:43.027Z</time></trkpt><trkpt lat="34.6589383" lon="-6.3929133"><ele>11.333333333333334</ele><time>2026-04-27T14:01:44.027Z</time></trkpt><trkpt lat="34.659125" lon="-6.3928017"><ele>12.0</ele><time>2026-04-27T14:01:45.027Z</time></trkpt><trkpt lat="34.65932" lon="-6.3926833"><ele>15.333333333333332</ele><time>2026-04-27T14:01:46.027Z</time></trkpt><trkpt lat="34.6595067" lon="-6.3925717"><ele>18.666666666666664</ele><time>2026-04-27T14:01:47.027Z</time></trkpt><trkpt lat="34.6596833" lon="-6.39246"><ele>22.0</ele><time>2026-04-27T14:01:48.026Z</time></trkpt><trkpt lat="34.6598583" lon="-6.3923533"><ele>22.0</ele><time>2026-04-27T14:01:49.027Z</time></trkpt><trkpt lat="34.6600217" lon="-6.3922383"><ele>22.0</ele><time>2026-04-27T14:01:50.027Z</time></trkpt><trkpt lat="34.66019" lon="-6.3921283"><ele>22.0</ele><time>2026-04-27T14:01:51.026Z</time></trkpt><trkpt lat="34.6603617" lon="-6.3920167"><ele>23.333333333333332</ele><time>2026-04-27T14:01:52.027Z</time></trkpt><trkpt lat="34.66053" lon="-6.3919"><ele>24.666666666666664</ele><time>2026-04-27T14:01:53.027Z</time></trkpt><trkpt lat="34.6607017" lon="-6.3917783"><ele>26.0</ele><time>2026-04-27T14:01:54.027Z</time></trkpt><trkpt lat="34.660875" lon="-6.3916667"><ele>26.0</ele><time>2026-04-27T14:01:55.027Z</time></trkpt><trkpt lat="34.6610383" lon="-6.3915633"><ele>26.0</ele><time>2026-04-27T14:01:56.027Z</time></trkpt><trkpt lat="34.66119" lon="-6.391465"><ele>26.0</ele><time>2026-04-27T14:01:57.027Z</time></trkpt><trkpt lat="34.6613367" lon="-6.391375"><ele>23.5</ele><time>2026-04-27T14:01:58.027Z</time></trkpt><trkpt lat="34.6614733" lon="-6.3912917"><ele>21.0</ele><time>2026-04-27T14:01:59.026Z</time></trkpt><trkpt lat="34.6616017" lon="-6.391215"><ele>18.5</ele><time>2026-04-27T14:02:00.027Z</time></trkpt><trkpt lat="34.661725" lon="-6.39115"><ele>16.0</ele><time>2026-04-27T14:02:01.027Z</time></trkpt><trkpt lat="34.6618417" lon="-6.3910983"><ele>16.5</ele><time>2026-04-27T14:02:02.027Z</time></trkpt><trkpt lat="34.6619583" lon="-6.391045"><ele>17.0</ele><time>2026-04-27T14:02:03.027Z</time></trkpt><trkpt lat="34.6620833" lon="-6.3909867"><ele>17.5</ele><time>2026-04-27T14:02:04.026Z</time></trkpt><trkpt lat="34.6622" lon="-6.3909183"><ele>18.0</ele><time>2026-04-27T14:02:05.027Z</time></trkpt><trkpt lat="34.6623333" lon="-6.3908417"><ele>18.0</ele><time>2026-04-27T14:02:06.027Z</time></trkpt><trkpt lat="34.6624867" lon="-6.390745"><ele>18.0</ele><time>2026-04-27T14:02:07.027Z</time></trkpt><trkpt lat="34.6626467" lon="-6.39065"><ele>18.0</ele><time>2026-04-27T14:02:08.027Z</time></trkpt><trkpt lat="34.662835" lon="-6.3905567"><ele>17.333333333333332</ele><time>2026-04-27T14:02:09.026Z</time></trkpt><trkpt lat="34.6630333" lon="-6.3904467"><ele>16.666666666666664</ele><time>2026-04-27T14:02:10.027Z</time></trkpt><trkpt lat="34.6632283" lon="-6.39034"><ele>16.0</ele><time>2026-04-27T14:02:11.027Z</time></trkpt><trkpt lat="34.6634117" lon="-6.3902383"><ele>16.0</ele><time>2026-04-27T14:02:12.027Z</time></trkpt><trkpt lat="34.66359" lon="-6.3901367"><ele>16.0</ele><time>2026-04-27T14:02:13.027Z</time></trkpt><trkpt lat="34.663775" lon="-6.3900367"><ele>16.0</ele><time>2026-04-27T14:02:14.026Z</time></trkpt><trkpt lat="34.6639567" lon="-6.389935"><ele>16.0</ele><time>2026-04-27T14:02:15.027Z</time></trkpt><trkpt lat="34.6641283" lon="-6.3898417"><ele>16.0</ele><time>2026-04-27T14:02:16.027Z</time></trkpt><trkpt lat="34.664295" lon="-6.3897483"><ele>16.0</ele><time>2026-04-27T14:02:17.027Z</time></trkpt><trkpt lat="34.6644467" lon="-6.38966"><ele>16.0</ele><time>2026-04-27T14:02:18.027Z</time></trkpt><trkpt lat="34.6645933" lon="-6.3895733"><ele>16.0</ele><time>2026-04-27T14:02:19.027Z</time></trkpt><trkpt lat="34.6647417" lon="-6.3894933"><ele>16.0</ele><time>2026-04-27T14:02:20.027Z</time></trkpt><trkpt lat="34.664885" lon="-6.3894167"><ele>16.0</ele><time>2026-04-27T14:02:21.027Z</time></trkpt><trkpt lat="34.6650183" lon="-6.3893467"><ele>16.0</ele><time>2026-04-27T14:02:22.027Z</time></trkpt><trkpt lat="34.66515" lon="-6.3892783"><ele>16.0</ele><time>2026-04-27T14:02:23.027Z</time></trkpt><trkpt lat="34.66527" lon="-6.3892117"><ele>16.0</ele><time>2026-04-27T14:02:24.027Z</time></trkpt><trkpt lat="34.6653983" lon="-6.3891517"><ele>16.333333333333332</ele><time>2026-04-27T14:02:25.027Z</time></trkpt><trkpt lat="34.6655433" lon="-6.3890917"><ele>16.666666666666668</ele><time>2026-04-27T14:02:26.027Z</time></trkpt><trkpt lat="34.665695" lon="-6.3890267"><ele>17.0</ele><time>2026-04-27T14:02:27.027Z</time></trkpt><trkpt lat="34.6658417" lon="-6.38897"><ele>17.0</ele><time>2026-04-27T14:02:28.027Z</time></trkpt><trkpt lat="34.6659883" lon="-6.3889067"><ele>17.0</ele><time>2026-04-27T14:02:29.026Z</time></trkpt><trkpt lat="34.6661467" lon="-6.3888417"><ele>17.0</ele><time>2026-04-27T14:02:30.027Z</time></trkpt><trkpt lat="34.6663133" lon="-6.388765"><ele>17.0</ele><time>2026-04-27T14:02:31.027Z</time></trkpt><trkpt lat="34.6664667" lon="-6.3886883"><ele>17.0</ele><time>2026-04-27T14:02:32.027Z</time></trkpt><trkpt lat="34.6665917" lon="-6.3886217"><ele>17.0</ele><time>2026-04-27T14:02:33.027Z</time></trkpt><trkpt lat="34.6666933" lon="-6.38856"><ele>17.0</ele><time>2026-04-27T14:02:34.027Z</time></trkpt><trkpt lat="34.6667933" lon="-6.38851"><ele>17.0</ele><time>2026-04-27T14:02:35.026Z</time></trkpt><trkpt lat="34.6669117" lon="-6.388455"><ele>17.0</ele><time>2026-04-27T14:02:36.027Z</time></trkpt><trkpt lat="34.6670383" lon="-6.3884017"><ele>17.0</ele><time>2026-04-27T14:02:37.026Z</time></trkpt><trkpt lat="34.6671633" lon="-6.3883467"><ele>17.0</ele><time>2026-04-27T14:02:38.027Z</time></trkpt><trkpt lat="34.667295" lon="-6.3882883"><ele>17.0</ele><time>2026-04-27T14:02:39.027Z</time></trkpt><trkpt lat="34.6674333" lon="-6.3882267"><ele>17.0</ele><time>2026-04-27T14:02:40.027Z</time></trkpt><trkpt lat="34.6675733" lon="-6.3881617"><ele>17.0</ele><time>2026-04-27T14:02:41.027Z</time></trkpt><trkpt lat="34.6677133" lon="-6.3881033"><ele>17.0</ele><time>2026-04-27T14:02:42.026Z</time></trkpt><trkpt lat="34.66787" lon="-6.38804"><ele>16.333333333333336</ele><time>2026-04-27T14:02:43.027Z</time></trkpt><trkpt lat="34.6680317" lon="-6.3879767"><ele>15.666666666666668</ele><time>2026-04-27T14:02:44.027Z</time></trkpt><trkpt lat="34.6682033" lon="-6.38791"><ele>15.0</ele><time>2026-04-27T14:02:45.027Z</time></trkpt><trkpt lat="34.6683683" lon="-6.3878433"><ele>15.0</ele><time>2026-04-27T14:02:46.027Z</time></trkpt><trkpt lat="34.6685267" lon="-6.3877883"><ele>15.0</ele><time>2026-04-27T14:02:47.027Z</time></trkpt><trkpt lat="34.66869" lon="-6.3877233"><ele>15.0</ele><time>2026-04-27T14:02:48.027Z</time></trkpt><trkpt lat="34.6688433" lon="-6.38766"><ele>15.0</ele><time>2026-04-27T14:02:49.027Z</time></trkpt><trkpt lat="34.6689933" lon="-6.3875933"><ele>15.0</ele><time>2026-04-27T14:02:50.027Z</time></trkpt><trkpt lat="34.6691267" lon="-6.387535"><ele>15.0</ele><time>2026-04-27T14:02:51.027Z</time></trkpt><trkpt lat="34.669235" lon="-6.38748"><ele>15.0</ele><time>2026-04-27T14:02:52.027Z</time></trkpt><trkpt lat="34.6693183" lon="-6.3874417"><ele>15.0</ele><time>2026-04-27T14:02:53.026Z</time></trkpt><trkpt lat="34.6694" lon="-6.3874167"><ele>15.0</ele><time>2026-04-27T14:02:54.027Z</time></trkpt><trkpt lat="34.6694933" lon="-6.387385"><ele>15.0</ele><time>2026-04-27T14:02:55.027Z</time></trkpt><trkpt lat="34.6696017" lon="-6.38733"><ele>15.0</ele><time>2026-04-27T14:02:56.027Z</time></trkpt><trkpt lat="34.6697267" lon="-6.3872483"><ele>15.0</ele><time>2026-04-27T14:02:57.026Z</time></trkpt><trkpt lat="34.6698817" lon="-6.3871717"><ele>14.0</ele><time>2026-04-27T14:02:58.027Z</time></trkpt><trkpt lat="34.6700617" lon="-6.38708"><ele>13.0</ele><time>2026-04-27T14:02:59.027Z</time></trkpt><trkpt lat="34.67024" lon="-6.3869917"><ele>12.0</ele><time>2026-04-27T14:03:00.027Z</time></trkpt><trkpt lat="34.6704083" lon="-6.3869083"><ele>12.0</ele><time>2026-04-27T14:03:01.027Z</time></trkpt><trkpt lat="34.670565" lon="-6.386835"><ele>12.0</ele><time>2026-04-27T14:03:02.027Z</time></trkpt><trkpt lat="34.6707267" lon="-6.3867533"><ele>12.0</ele><time>2026-04-27T14:03:03.027Z</time></trkpt><trkpt lat="34.6708717" lon="-6.3866767"><ele>12.0</ele><time>2026-04-27T14:03:04.027Z</time></trkpt><trkpt lat="34.67104" lon="-6.3866067"><ele>12.0</ele><time>2026-04-27T14:03:05.026Z</time></trkpt><trkpt lat="34.671215" lon="-6.3865267"><ele>12.0</ele><time>2026-04-27T14:03:06.027Z</time></trkpt><trkpt lat="34.67141" lon="-6.3864383"><ele>11.333333333333334</ele><time>2026-04-27T14:03:07.027Z</time></trkpt><trkpt lat="34.6716083" lon="-6.3863367"><ele>10.666666666666668</ele><time>2026-04-27T14:03:08.027Z</time></trkpt><trkpt lat="34.6717983" lon="-6.38624"><ele>10.0</ele><time>2026-04-27T14:03:09.027Z</time></trkpt><trkpt lat="34.6719717" lon="-6.3861533"><ele>10.0</ele><time>2026-04-27T14:03:10.026Z</time></trkpt><trkpt lat="34.6721417" lon="-6.386075"><ele>10.0</ele><time>2026-04-27T14:03:11.027Z</time></trkpt><trkpt lat="34.672315" lon="-6.3859883"><ele>10.0</ele><time>2026-04-27T14:03:12.027Z</time></trkpt><trkpt lat="34.672495" lon="-6.3859"><ele>10.0</ele><time>2026-04-27T14:03:13.027Z</time></trkpt><trkpt lat="34.6726817" lon="-6.38581"><ele>10.0</ele><time>2026-04-27T14:03:14.027Z</time></trkpt><trkpt lat="34.672875" lon="-6.3857233"><ele>10.0</ele><time>2026-04-27T14:03:15.027Z</time></trkpt><trkpt lat="34.6730717" lon="-6.38563"><ele>10.0</ele><time>2026-04-27T14:03:16.027Z</time></trkpt><trkpt lat="34.6732467" lon="-6.38554"><ele>10.0</ele><time>2026-04-27T14:03:17.027Z</time></trkpt><trkpt lat="34.6734117" lon="-6.3854633"><ele>10.0</ele><time>2026-04-27T14:03:18.026Z</time></trkpt><trkpt lat="34.6735767" lon="-6.385385"><ele>10.333333333333334</ele><time>2026-04-27T14:03:19.027Z</time></trkpt><trkpt lat="34.67374" lon="-6.3853"><ele>10.666666666666666</ele><time>2026-04-27T14:03:20.027Z</time></trkpt><trkpt lat="34.6739117" lon="-6.3852133"><ele>11.0</ele><time>2026-04-27T14:03:21.027Z</time></trkpt><trkpt lat="34.674085" lon="-6.3851217"><ele>11.0</ele><time>2026-04-27T14:03:22.027Z</time></trkpt><trkpt lat="34.6742617" lon="-6.385035"><ele>11.0</ele><time>2026-04-27T14:03:23.027Z</time></trkpt><trkpt lat="34.6744433" lon="-6.38495"><ele>11.0</ele><time>2026-04-27T14:03:24.027Z</time></trkpt><trkpt lat="34.67461" lon="-6.3848783"><ele>11.666666666666666</ele><time>2026-04-27T14:03:25.027Z</time></trkpt><trkpt lat="34.6747783" lon="-6.3848133"><ele>12.333333333333332</ele><time>2026-04-27T14:03:26.027Z</time></trkpt><trkpt lat="34.674945" lon="-6.3847567"><ele>13.0</ele><time>2026-04-27T14:03:27.027Z</time></trkpt><trkpt lat="34.675105" lon="-6.3846983"><ele>12.0</ele><time>2026-04-27T14:03:28.027Z</time></trkpt><trkpt lat="34.6752617" lon="-6.3846417"><ele>11.0</ele><time>2026-04-27T14:03:29.027Z</time></trkpt><trkpt lat="34.6754233" lon="-6.3845833"><ele>10.0</ele><time>2026-04-27T14:03:30.027Z</time></trkpt><trkpt lat="34.6755917" lon="-6.3845283"><ele>10.0</ele><time>2026-04-27T14:03:31.027Z</time></trkpt><trkpt lat="34.6757667" lon="-6.3844683"><ele>10.0</ele><time>2026-04-27T14:03:32.027Z</time></trkpt><trkpt lat="34.6759583" lon="-6.3844017"><ele>10.0</ele><time>2026-04-27T14:03:33.027Z</time></trkpt><trkpt lat="34.676155" lon="-6.3843367"><ele>10.333333333333334</ele><time>2026-04-27T14:03:34.027Z</time></trkpt><trkpt lat="34.6763367" lon="-6.3842767"><ele>10.666666666666666</ele><time>2026-04-27T14:03:35.027Z</time></trkpt><trkpt lat="34.676505" lon="-6.38422"><ele>11.0</ele><time>2026-04-27T14:03:36.027Z</time></trkpt><trkpt lat="34.6766783" lon="-6.384165"><ele>11.0</ele><time>2026-04-27T14:03:37.027Z</time></trkpt><trkpt lat="34.676855" lon="-6.3841067"><ele>11.0</ele><time>2026-04-27T14:03:38.027Z</time></trkpt><trkpt lat="34.6770333" lon="-6.384045"><ele>11.0</ele><time>2026-04-27T14:03:39.027Z</time></trkpt><trkpt lat="34.6772133" lon="-6.3839883"><ele>11.0</ele><time>2026-04-27T14:03:40.027Z</time></trkpt><trkpt lat="34.67738" lon="-6.3839317"><ele>11.0</ele><time>2026-04-27T14:03:41.027Z</time></trkpt><trkpt lat="34.6775467" lon="-6.3838717"><ele>11.0</ele><time>2026-04-27T14:03:42.027Z</time></trkpt><trkpt lat="34.677715" lon="-6.3838167"><ele>11.333333333333332</ele><time>2026-04-27T14:03:43.027Z</time></trkpt><trkpt lat="34.67789" lon="-6.3837633"><ele>11.666666666666666</ele><time>2026-04-27T14:03:44.027Z</time></trkpt><trkpt lat="34.6780733" lon="-6.38371"><ele>12.0</ele><time>2026-04-27T14:03:45.026Z</time></trkpt><trkpt lat="34.6782483" lon="-6.3836533"><ele>12.0</ele><time>2026-04-27T14:03:46.027Z</time></trkpt><trkpt lat="34.67841" lon="-6.3835967"><ele>12.0</ele><time>2026-04-27T14:03:47.027Z</time></trkpt><trkpt lat="34.6785683" lon="-6.38354"><ele>12.0</ele><time>2026-04-27T14:03:48.026Z</time></trkpt><trkpt lat="34.678725" lon="-6.3834867"><ele>12.0</ele><time>2026-04-27T14:03:49.027Z</time></trkpt><trkpt lat="34.6788817" lon="-6.3834283"><ele>12.0</ele><time>2026-04-27T14:03:50.026Z</time></trkpt><trkpt lat="34.6790383" lon="-6.3833667"><ele>12.0</ele><time>2026-04-27T14:03:51.027Z</time></trkpt><trkpt lat="34.67919" lon="-6.3833083"><ele>12.0</ele><time>2026-04-27T14:03:52.027Z</time></trkpt><trkpt lat="34.6793467" lon="-6.3832567"><ele>12.0</ele><time>2026-04-27T14:03:53.027Z</time></trkpt><trkpt lat="34.679505" lon="-6.383205"><ele>12.0</ele><time>2026-04-27T14:03:54.027Z</time></trkpt><trkpt lat="34.6796533" lon="-6.3831517"><ele>12.0</ele><time>2026-04-27T14:03:55.027Z</time></trkpt><trkpt lat="34.6797967" lon="-6.3831033"><ele>12.0</ele><time>2026-04-27T14:03:56.027Z</time></trkpt><trkpt lat="34.6799467" lon="-6.3830567"><ele>12.0</ele><time>2026-04-27T14:03:57.026Z</time></trkpt><trkpt lat="34.6800917" lon="-6.38301"><ele>11.333333333333334</ele><time>2026-04-27T14:03:58.027Z</time></trkpt><trkpt lat="34.6802567" lon="-6.3829617"><ele>10.666666666666668</ele><time>2026-04-27T14:03:59.027Z</time></trkpt><trkpt lat="34.6804367" lon="-6.382905"><ele>10.0</ele><time>2026-04-27T14:04:00.027Z</time></trkpt><trkpt lat="34.6806317" lon="-6.3828417"><ele>10.0</ele><time>2026-04-27T14:04:01.027Z</time></trkpt><trkpt lat="34.6808333" lon="-6.382765"><ele>10.0</ele><time>2026-04-27T14:04:02.027Z</time></trkpt><trkpt lat="34.68104" lon="-6.38268"><ele>10.0</ele><time>2026-04-27T14:04:03.027Z</time></trkpt><trkpt lat="34.68123" lon="-6.3825917"><ele>10.0</ele><time>2026-04-27T14:04:04.027Z</time></trkpt><trkpt lat="34.6814083" lon="-6.3824967"><ele>10.0</ele><time>2026-04-27T14:04:05.027Z</time></trkpt><trkpt lat="34.6815883" lon="-6.3824083"><ele>10.0</ele><time>2026-04-27T14:04:06.027Z</time></trkpt><trkpt lat="34.681755" lon="-6.382325"><ele>10.0</ele><time>2026-04-27T14:04:07.027Z</time></trkpt><trkpt lat="34.681915" lon="-6.3822517"><ele>10.0</ele><time>2026-04-27T14:04:08.027Z</time></trkpt><trkpt lat="34.6820733" lon="-6.3821683"><ele>10.0</ele><time>2026-04-27T14:04:09.027Z</time></trkpt><trkpt lat="34.6822333" lon="-6.3820867"><ele>9.333333333333334</ele><time>2026-04-27T14:04:10.027Z</time></trkpt><trkpt lat="34.6824" lon="-6.382"><ele>8.666666666666666</ele><time>2026-04-27T14:04:11.027Z</time></trkpt><trkpt lat="34.6825683" lon="-6.3819183"><ele>8.0</ele><time>2026-04-27T14:04:12.027Z</time></trkpt><trkpt lat="34.68274" lon="-6.38184"><ele>8.333333333333332</ele><time>2026-04-27T14:04:13.026Z</time></trkpt><trkpt lat="34.6829217" lon="-6.3817567"><ele>8.666666666666666</ele><time>2026-04-27T14:04:14.026Z</time></trkpt><trkpt lat="34.6831067" lon="-6.3816617"><ele>9.0</ele><time>2026-04-27T14:04:15.027Z</time></trkpt><trkpt lat="34.6832817" lon="-6.3815767"><ele>9.0</ele><time>2026-04-27T14:04:16.027Z</time></trkpt><trkpt lat="34.6834517" lon="-6.381495"><ele>9.0</ele><time>2026-04-27T14:04:17.027Z</time></trkpt><trkpt lat="34.68362" lon="-6.38142"><ele>9.0</ele><time>2026-04-27T14:04:18.027Z</time></trkpt><trkpt lat="34.683785" lon="-6.3813417"><ele>8.333333333333334</ele><time>2026-04-27T14:04:19.027Z</time></trkpt><trkpt lat="34.6839483" lon="-6.381265"><ele>7.666666666666667</ele><time>2026-04-27T14:04:20.027Z</time></trkpt><trkpt lat="34.6841133" lon="-6.3811867"><ele>7.0</ele><time>2026-04-27T14:04:21.027Z</time></trkpt><trkpt lat="34.6842783" lon="-6.3811083"><ele>7.666666666666667</ele><time>2026-04-27T14:04:22.027Z</time></trkpt><trkpt lat="34.684435" lon="-6.381035"><ele>8.333333333333334</ele><time>2026-04-27T14:04:23.027Z</time></trkpt><trkpt lat="34.6845883" lon="-6.380965"><ele>9.0</ele><time>2026-04-27T14:04:24.027Z</time></trkpt><trkpt lat="34.6847517" lon="-6.380895"><ele>9.0</ele><time>2026-04-27T14:04:25.027Z</time></trkpt><trkpt lat="34.6849133" lon="-6.3808133"><ele>9.0</ele><time>2026-04-27T14:04:26.027Z</time></trkpt><trkpt lat="34.6850767" lon="-6.38073"><ele>9.0</ele><time>2026-04-27T14:04:27.027Z</time></trkpt><trkpt lat="34.685245" lon="-6.3806383"><ele>9.0</ele><time>2026-04-27T14:04:28.027Z</time></trkpt><trkpt lat="34.685415" lon="-6.3805417"><ele>9.0</ele><time>2026-04-27T14:04:29.027Z</time></trkpt><trkpt lat="34.6855767" lon="-6.38045"><ele>9.0</ele><time>2026-04-27T14:04:30.027Z</time></trkpt><trkpt lat="34.685735" lon="-6.3803683"><ele>9.0</ele><time>2026-04-27T14:04:31.026Z</time></trkpt><trkpt lat="34.68589" lon="-6.3802817"><ele>9.0</ele><time>2026-04-27T14:04:32.027Z</time></trkpt><trkpt lat="34.686045" lon="-6.3801933"><ele>9.0</ele><time>2026-04-27T14:04:33.027Z</time></trkpt><trkpt lat="34.6861917" lon="-6.3801067"><ele>9.333333333333334</ele><time>2026-04-27T14:04:34.027Z</time></trkpt><trkpt lat="34.6863317" lon="-6.3800217"><ele>9.666666666666668</ele><time>2026-04-27T14:04:35.027Z</time></trkpt><trkpt lat="34.686485" lon="-6.37993"><ele>10.0</ele><time>2026-04-27T14:04:36.027Z</time></trkpt><trkpt lat="34.68664" lon="-6.37984"><ele>10.0</ele><time>2026-04-27T14:04:37.027Z</time></trkpt><trkpt lat="34.6868017" lon="-6.3797417"><ele>10.0</ele><time>2026-04-27T14:04:38.027Z</time></trkpt><trkpt lat="34.6869683" lon="-6.3796467"><ele>10.0</ele><time>2026-04-27T14:04:39.027Z</time></trkpt><trkpt lat="34.6871283" lon="-6.379555"><ele>9.666666666666668</ele><time>2026-04-27T14:04:40.027Z</time></trkpt><trkpt lat="34.68728" lon="-6.3794667"><ele>9.333333333333334</ele><time>2026-04-27T14:04:41.027Z</time></trkpt><trkpt lat="34.68742" lon="-6.3793783"><ele>9.0</ele><time>2026-04-27T14:04:42.027Z</time></trkpt><trkpt lat="34.6875583" lon="-6.3792933"><ele>9.0</ele><time>2026-04-27T14:04:43.026Z</time></trkpt><trkpt lat="34.6876967" lon="-6.3792117"><ele>9.0</ele><time>2026-04-27T14:04:44.027Z</time></trkpt><trkpt lat="34.6878417" lon="-6.3791283"><ele>9.0</ele><time>2026-04-27T14:04:45.027Z</time></trkpt><trkpt lat="34.6879917" lon="-6.3790383"><ele>9.0</ele><time>2026-04-27T14:04:46.027Z</time></trkpt><trkpt lat="34.6881433" lon="-6.3789483"><ele>9.0</ele><time>2026-04-27T14:04:47.027Z</time></trkpt><trkpt lat="34.6882867" lon="-6.3788667"><ele>9.0</ele><time>2026-04-27T14:04:48.027Z</time></trkpt><trkpt lat="34.6884167" lon="-6.3787883"><ele>9.0</ele><time>2026-04-27T14:04:49.027Z</time></trkpt><trkpt lat="34.6885433" lon="-6.3787067"><ele>9.0</ele><time>2026-04-27T14:04:50.027Z</time></trkpt><trkpt lat="34.6886583" lon="-6.3786267"><ele>9.0</ele><time>2026-04-27T14:04:51.027Z</time></trkpt><trkpt lat="34.6887817" lon="-6.3785517"><ele>9.0</ele><time>2026-04-27T14:04:52.027Z</time></trkpt><trkpt lat="34.6889" lon="-6.3784733"><ele>9.75</ele><time>2026-04-27T14:04:53.027Z</time></trkpt><trkpt lat="34.68902" lon="-6.3783967"><ele>10.5</ele><time>2026-04-27T14:04:54.027Z</time></trkpt><trkpt lat="34.6891417" lon="-6.3783267"><ele>11.25</ele><time>2026-04-27T14:04:55.026Z</time></trkpt><trkpt lat="34.689265" lon="-6.3782617"><ele>12.0</ele><time>2026-04-27T14:04:56.027Z</time></trkpt><trkpt lat="34.68939" lon="-6.37819"><ele>12.666666666666668</ele><time>2026-04-27T14:04:57.027Z</time></trkpt><trkpt lat="34.68952" lon="-6.378115"><ele>13.333333333333334</ele><time>2026-04-27T14:04:58.027Z</time></trkpt><trkpt lat="34.6896633" lon="-6.378045"><ele>14.0</ele><time>2026-04-27T14:04:59.027Z</time></trkpt><trkpt lat="34.68981" lon="-6.3779683"><ele>12.666666666666668</ele><time>2026-04-27T14:05:00.027Z</time></trkpt><trkpt lat="34.6899567" lon="-6.3778833"><ele>11.333333333333334</ele><time>2026-04-27T14:05:01.027Z</time></trkpt><trkpt lat="34.690095" lon="-6.3778017"><ele>10.0</ele><time>2026-04-27T14:05:02.027Z</time></trkpt><trkpt lat="34.6902283" lon="-6.3777117"><ele>10.0</ele><time>2026-04-27T14:05:03.027Z</time></trkpt><trkpt lat="34.690375" lon="-6.3776267"><ele>10.0</ele><time>2026-04-27T14:05:04.027Z</time></trkpt><trkpt lat="34.690525" lon="-6.3775367"><ele>10.0</ele><time>2026-04-27T14:05:05.027Z</time></trkpt><trkpt lat="34.6906767" lon="-6.37745"><ele>10.0</ele><time>2026-04-27T14:05:06.027Z</time></trkpt><trkpt lat="34.690825" lon="-6.3773633"><ele>10.0</ele><time>2026-04-27T14:05:07.026Z</time></trkpt><trkpt lat="34.6909783" lon="-6.3772733"><ele>10.0</ele><time>2026-04-27T14:05:08.027Z</time></trkpt><trkpt lat="34.69114" lon="-6.3771783"><ele>10.0</ele><time>2026-04-27T14:05:09.027Z</time></trkpt><trkpt lat="34.6912917" lon="-6.3770867"><ele>10.0</ele><time>2026-04-27T14:05:10.027Z</time></trkpt><trkpt lat="34.6914383" lon="-6.3769967"><ele>10.0</ele><time>2026-04-27T14:05:11.027Z</time></trkpt><trkpt lat="34.691585" lon="-6.3769033"><ele>10.0</ele><time>2026-04-27T14:05:12.027Z</time></trkpt><trkpt lat="34.691735" lon="-6.3768117"><ele>10.0</ele><time>2026-04-27T14:05:13.027Z</time></trkpt><trkpt lat="34.6918817" lon="-6.3767333"><ele>10.0</ele><time>2026-04-27T14:05:14.027Z</time></trkpt><trkpt lat="34.6920233" lon="-6.3766567"><ele>10.0</ele><time>2026-04-27T14:05:15.026Z</time></trkpt><trkpt lat="34.6921633" lon="-6.3765783"><ele>10.0</ele><time>2026-04-27T14:05:16.027Z</time></trkpt><trkpt lat="34.6923033" lon="-6.3764983"><ele>10.0</ele><time>2026-04-27T14:05:17.027Z</time></trkpt><trkpt lat="34.69244" lon="-6.37641"><ele>10.0</ele><time>2026-04-27T14:05:18.027Z</time></trkpt><trkpt lat="34.692575" lon="-6.3763267"><ele>10.0</ele><time>2026-04-27T14:05:19.027Z</time></trkpt><trkpt lat="34.6927183" lon="-6.3762433"><ele>10.0</ele><time>2026-04-27T14:05:20.027Z</time></trkpt><trkpt lat="34.692865" lon="-6.37616"><ele>10.0</ele><time>2026-04-27T14:05:21.027Z</time></trkpt><trkpt lat="34.693015" lon="-6.3760683"><ele>10.0</ele><time>2026-04-27T14:05:22.026Z</time></trkpt><trkpt lat="34.6931617" lon="-6.37598"><ele>10.0</ele><time>2026-04-27T14:05:23.027Z</time></trkpt><trkpt lat="34.6933033" lon="-6.3758983"><ele>10.0</ele><time>2026-04-27T14:05:24.027Z</time></trkpt><trkpt lat="34.6934267" lon="-6.375815"><ele>10.0</ele><time>2026-04-27T14:05:25.026Z</time></trkpt><trkpt lat="34.693545" lon="-6.37575"><ele>10.0</ele><time>2026-04-27T14:05:26.027Z</time></trkpt><trkpt lat="34.6936667" lon="-6.375685"><ele>10.0</ele><time>2026-04-27T14:05:27.027Z</time></trkpt><trkpt lat="34.6938033" lon="-6.3756183"><ele>10.333333333333334</ele><time>2026-04-27T14:05:28.027Z</time></trkpt><trkpt lat="34.69396" lon="-6.3755333"><ele>10.666666666666666</ele><time>2026-04-27T14:05:29.027Z</time></trkpt><trkpt lat="34.6941283" lon="-6.3754467"><ele>11.0</ele><time>2026-04-27T14:05:30.027Z</time></trkpt><trkpt lat="34.6943" lon="-6.3753317"><ele>11.666666666666666</ele><time>2026-04-27T14:05:31.027Z</time></trkpt><trkpt lat="34.69447" lon="-6.37521"><ele>12.333333333333332</ele><time>2026-04-27T14:05:32.027Z</time></trkpt><trkpt lat="34.69464" lon="-6.3751067"><ele>13.0</ele><time>2026-04-27T14:05:33.027Z</time></trkpt><trkpt lat="34.6948033" lon="-6.3750117"><ele>13.0</ele><time>2026-04-27T14:05:34.027Z</time></trkpt><trkpt lat="34.6949583" lon="-6.3749183"><ele>13.0</ele><time>2026-04-27T14:05:35.027Z</time></trkpt><trkpt lat="34.69511" lon="-6.37483"><ele>13.0</ele><time>2026-04-27T14:05:36.027Z</time></trkpt><trkpt lat="34.6952633" lon="-6.374745"><ele>13.666666666666666</ele><time>2026-04-27T14:05:37.027Z</time></trkpt><trkpt lat="34.6954133" lon="-6.3746517"><ele>14.333333333333332</ele><time>2026-04-27T14:05:38.027Z</time></trkpt><trkpt lat="34.695565" lon="-6.3745667"><ele>15.0</ele><time>2026-04-27T14:05:39.027Z</time></trkpt><trkpt lat="34.6957117" lon="-6.3744717"><ele>15.0</ele><time>2026-04-27T14:05:40.026Z</time></trkpt><trkpt lat="34.6958667" lon="-6.37438"><ele>15.0</ele><time>2026-04-27T14:05:41.026Z</time></trkpt><trkpt lat="34.6960183" lon="-6.3742917"><ele>15.0</ele><time>2026-04-27T14:05:42.026Z</time></trkpt><trkpt lat="34.6961717" lon="-6.3742"><ele>15.333333333333332</ele><time>2026-04-27T14:05:43.026Z</time></trkpt><trkpt lat="34.6963267" lon="-6.3741067"><ele>15.666666666666666</ele><time>2026-04-27T14:05:44.025Z</time></trkpt><trkpt lat="34.69648" lon="-6.37401"><ele>16.0</ele><time>2026-04-27T14:05:45.026Z</time></trkpt><trkpt lat="34.696625" lon="-6.3739183"><ele>15.333333333333332</ele><time>2026-04-27T14:05:46.026Z</time></trkpt><trkpt lat="34.6967683" lon="-6.37383"><ele>14.666666666666668</ele><time>2026-04-27T14:05:47.026Z</time></trkpt><trkpt lat="34.6969183" lon="-6.3737383"><ele>14.0</ele><time>2026-04-27T14:05:48.026Z</time></trkpt><trkpt lat="34.6970683" lon="-6.3736467"><ele>15.333333333333334</ele><time>2026-04-27T14:05:49.026Z</time></trkpt><trkpt lat="34.697225" lon="-6.3735583"><ele>16.666666666666668</ele><time>2026-04-27T14:05:50.026Z</time></trkpt><trkpt lat="34.6973817" lon="-6.3734683"><ele>18.0</ele><time>2026-04-27T14:05:51.026Z</time></trkpt><trkpt lat="34.6975367" lon="-6.3733783"><ele>18.0</ele><time>2026-04-27T14:05:52.026Z</time></trkpt><trkpt lat="34.6976967" lon="-6.3732933"><ele>18.0</ele><time>2026-04-27T14:05:53.026Z</time></trkpt><trkpt lat="34.6978567" lon="-6.3732"><ele>18.0</ele><time>2026-04-27T14:05:54.026Z</time></trkpt><trkpt lat="34.6980167" lon="-6.3731083"><ele>17.333333333333332</ele><time>2026-04-27T14:05:55.026Z</time></trkpt><trkpt lat="34.6981817" lon="-6.373015"><ele>16.666666666666664</ele><time>2026-04-27T14:05:56.026Z</time></trkpt><trkpt lat="34.6983483" lon="-6.3729167"><ele>16.0</ele><time>2026-04-27T14:05:57.026Z</time></trkpt><trkpt lat="34.6985183" lon="-6.37282"><ele>17.666666666666664</ele><time>2026-04-27T14:05:58.026Z</time></trkpt><trkpt lat="34.6986767" lon="-6.372725"><ele>19.333333333333332</ele><time>2026-04-27T14:05:59.026Z</time></trkpt><trkpt lat="34.6988267" lon="-6.37263"><ele>21.0</ele><time>2026-04-27T14:06:00.026Z</time></trkpt><trkpt lat="34.6989817" lon="-6.3725367"><ele>21.0</ele><time>2026-04-27T14:06:01.026Z</time></trkpt><trkpt lat="34.69913" lon="-6.372445"><ele>21.0</ele><time>2026-04-27T14:06:02.026Z</time></trkpt><trkpt lat="34.6992833" lon="-6.3723567"><ele>21.0</ele><time>2026-04-27T14:06:03.026Z</time></trkpt><trkpt lat="34.6994317" lon="-6.3722617"><ele>20.333333333333332</ele><time>2026-04-27T14:06:04.025Z</time></trkpt><trkpt lat="34.6995883" lon="-6.3721717"><ele>19.666666666666664</ele><time>2026-04-27T14:06:05.026Z</time></trkpt><trkpt lat="34.69975" lon="-6.3720867"><ele>19.0</ele><time>2026-04-27T14:06:06.025Z</time></trkpt><trkpt lat="34.69991" lon="-6.3719983"><ele>19.0</ele><time>2026-04-27T14:06:07.026Z</time></trkpt><trkpt lat="34.7000783" lon="-6.37191"><ele>19.0</ele><time>2026-04-27T14:06:08.026Z</time></trkpt><trkpt lat="34.7002467" lon="-6.371825"><ele>19.0</ele><time>2026-04-27T14:06:09.025Z</time></trkpt><trkpt lat="34.7004233" lon="-6.3717417"><ele>19.666666666666664</ele><time>2026-04-27T14:06:10.026Z</time></trkpt><trkpt lat="34.7006017" lon="-6.3716683"><ele>20.333333333333332</ele><time>2026-04-27T14:06:11.026Z</time></trkpt><trkpt lat="34.7007783" lon="-6.3715917"><ele>21.0</ele><time>2026-04-27T14:06:12.026Z</time></trkpt><trkpt lat="34.7009567" lon="-6.3715167"><ele>20.333333333333332</ele><time>2026-04-27T14:06:13.026Z</time></trkpt><trkpt lat="34.701125" lon="-6.37144"><ele>19.666666666666664</ele><time>2026-04-27T14:06:14.026Z</time></trkpt><trkpt lat="34.7012817" lon="-6.371375"><ele>19.0</ele><time>2026-04-27T14:06:15.026Z</time></trkpt><trkpt lat="34.7014283" lon="-6.3713"><ele>18.333333333333332</ele><time>2026-04-27T14:06:16.026Z</time></trkpt><trkpt lat="34.7015833" lon="-6.3712383"><ele>17.666666666666668</ele><time>2026-04-27T14:06:17.026Z</time></trkpt><trkpt lat="34.7017433" lon="-6.3711717"><ele>17.0</ele><time>2026-04-27T14:06:18.026Z</time></trkpt><trkpt lat="34.7019033" lon="-6.371095"><ele>16.666666666666668</ele><time>2026-04-27T14:06:19.026Z</time></trkpt><trkpt lat="34.7020667" lon="-6.3710217"><ele>16.333333333333332</ele><time>2026-04-27T14:06:20.026Z</time></trkpt><trkpt lat="34.702235" lon="-6.3709483"><ele>16.0</ele><time>2026-04-27T14:06:21.026Z</time></trkpt><trkpt lat="34.7024017" lon="-6.3708767"><ele>16.0</ele><time>2026-04-27T14:06:22.026Z</time></trkpt><trkpt lat="34.7025617" lon="-6.3708067"><ele>16.0</ele><time>2026-04-27T14:06:23.026Z</time></trkpt><trkpt lat="34.7027117" lon="-6.37074"><ele>16.0</ele><time>2026-04-27T14:06:24.025Z</time></trkpt><trkpt lat="34.7028517" lon="-6.37068"><ele>16.0</ele><time>2026-04-27T14:06:25.026Z</time></trkpt><trkpt lat="34.702995" lon="-6.3706183"><ele>16.0</ele><time>2026-04-27T14:06:26.026Z</time></trkpt><trkpt lat="34.7031383" lon="-6.3705517"><ele>16.0</ele><time>2026-04-27T14:06:27.026Z</time></trkpt><trkpt lat="34.7032883" lon="-6.37049"><ele>15.666666666666666</ele><time>2026-04-27T14:06:28.026Z</time></trkpt><trkpt lat="34.703445" lon="-6.3704233"><ele>15.333333333333332</ele><time>2026-04-27T14:06:29.026Z</time></trkpt><trkpt lat="34.7036067" lon="-6.3703483"><ele>15.0</ele><time>2026-04-27T14:06:30.026Z</time></trkpt><trkpt lat="34.7037717" lon="-6.37028"><ele>15.0</ele><time>2026-04-27T14:06:31.026Z</time></trkpt><trkpt lat="34.7039367" lon="-6.3702117"><ele>15.0</ele><time>2026-04-27T14:06:32.026Z</time></trkpt><trkpt lat="34.7040967" lon="-6.3701433"><ele>15.0</ele><time>2026-04-27T14:06:33.026Z</time></trkpt><trkpt lat="34.7042583" lon="-6.3700767"><ele>15.0</ele><time>2026-04-27T14:06:34.026Z</time></trkpt><trkpt lat="34.7044" lon="-6.3700167"><ele>15.0</ele><time>2026-04-27T14:06:35.026Z</time></trkpt><trkpt lat="34.7045267" lon="-6.3699567"><ele>15.0</ele><time>2026-04-27T14:06:36.026Z</time></trkpt><trkpt lat="34.7046383" lon="-6.3699017"><ele>15.0</ele><time>2026-04-27T14:06:37.026Z</time></trkpt><trkpt lat="34.7047383" lon="-6.3698533"><ele>15.166666666666666</ele><time>2026-04-27T14:06:38.026Z</time></trkpt><trkpt lat="34.7048267" lon="-6.3698083"><ele>15.333333333333332</ele><time>2026-04-27T14:06:39.026Z</time></trkpt><trkpt lat="34.704905" lon="-6.3697717"><ele>15.5</ele><time>2026-04-27T14:06:40.026Z</time></trkpt><trkpt lat="34.7049767" lon="-6.3697417"><ele>15.666666666666666</ele><time>2026-04-27T14:06:41.026Z</time></trkpt><trkpt lat="34.7050417" lon="-6.3697167"><ele>15.833333333333332</ele><time>2026-04-27T14:06:42.026Z</time></trkpt><trkpt lat="34.70511" lon="-6.3696967"><ele>16.0</ele><time>2026-04-27T14:06:43.026Z</time></trkpt><trkpt lat="34.7051883" lon="-6.3696767"><ele>15.4</ele><time>2026-04-27T14:06:44.026Z</time></trkpt><trkpt lat="34.70528" lon="-6.3696467"><ele>14.8</ele><time>2026-04-27T14:06:45.026Z</time></trkpt><trkpt lat="34.7053717" lon="-6.3695967"><ele>14.200000000000001</ele><time>2026-04-27T14:06:46.026Z</time></trkpt><trkpt lat="34.70547" lon="-6.3695433"><ele>13.600000000000001</ele><time>2026-04-27T14:06:47.026Z</time></trkpt><trkpt lat="34.70557" lon="-6.369495"><ele>13.0</ele><time>2026-04-27T14:06:48.026Z</time></trkpt><trkpt lat="34.7056717" lon="-6.3694517"><ele>13.0</ele><time>2026-04-27T14:06:49.026Z</time></trkpt><trkpt lat="34.705785" lon="-6.3694133"><ele>13.0</ele><time>2026-04-27T14:06:50.026Z</time></trkpt><trkpt lat="34.7059067" lon="-6.3693667"><ele>13.0</ele><time>2026-04-27T14:06:51.025Z</time></trkpt><trkpt lat="34.7060283" lon="-6.3693183"><ele>13.0</ele><time>2026-04-27T14:06:52.026Z</time></trkpt><trkpt lat="34.7061483" lon="-6.3692683"><ele>13.75</ele><time>2026-04-27T14:06:53.026Z</time></trkpt><trkpt lat="34.7062617" lon="-6.369215"><ele>14.5</ele><time>2026-04-27T14:06:54.026Z</time></trkpt><trkpt lat="34.7063783" lon="-6.369165"><ele>15.25</ele><time>2026-04-27T14:06:55.025Z</time></trkpt><trkpt lat="34.7064983" lon="-6.36911"><ele>16.0</ele><time>2026-04-27T14:06:56.026Z</time></trkpt><trkpt lat="34.7066233" lon="-6.3690583"><ele>16.0</ele><time>2026-04-27T14:06:57.026Z</time></trkpt><trkpt lat="34.7067567" lon="-6.368995"><ele>16.0</ele><time>2026-04-27T14:06:58.026Z</time></trkpt><trkpt lat="34.706895" lon="-6.3689367"><ele>16.0</ele><time>2026-04-27T14:06:59.026Z</time></trkpt><trkpt lat="34.707035" lon="-6.3688717"><ele>16.0</ele><time>2026-04-27T14:07:00.026Z</time></trkpt><trkpt lat="34.7071767" lon="-6.3688083"><ele>16.0</ele><time>2026-04-27T14:07:01.026Z</time></trkpt><trkpt lat="34.7073167" lon="-6.36875"><ele>16.0</ele><time>2026-04-27T14:07:02.025Z</time></trkpt><trkpt lat="34.70746" lon="-6.36869"><ele>16.0</ele><time>2026-04-27T14:07:03.026Z</time></trkpt><trkpt lat="34.7076083" lon="-6.36863"><ele>17.0</ele><time>2026-04-27T14:07:04.026Z</time></trkpt><trkpt lat="34.7077567" lon="-6.3685717"><ele>18.0</ele><time>2026-04-27T14:07:05.026Z</time></trkpt><trkpt lat="34.7079017" lon="-6.36851"><ele>19.0</ele><time>2026-04-27T14:07:06.025Z</time></trkpt><trkpt lat="34.7080467" lon="-6.3684533"><ele>19.0</ele><time>2026-04-27T14:07:07.026Z</time></trkpt><trkpt lat="34.7081933" lon="-6.3683983"><ele>19.0</ele><time>2026-04-27T14:07:08.026Z</time></trkpt><trkpt lat="34.7083517" lon="-6.36834"><ele>19.0</ele><time>2026-04-27T14:07:09.026Z</time></trkpt><trkpt lat="34.7085167" lon="-6.3682767"><ele>19.333333333333332</ele><time>2026-04-27T14:07:10.026Z</time></trkpt><trkpt lat="34.7086883" lon="-6.3682067"><ele>19.666666666666668</ele><time>2026-04-27T14:07:11.026Z</time></trkpt><trkpt lat="34.7088617" lon="-6.368145"><ele>20.0</ele><time>2026-04-27T14:07:12.026Z</time></trkpt><trkpt lat="34.7090333" lon="-6.3680833"><ele>19.333333333333336</ele><time>2026-04-27T14:07:13.026Z</time></trkpt><trkpt lat="34.7092017" lon="-6.368025"><ele>18.666666666666668</ele><time>2026-04-27T14:07:14.026Z</time></trkpt><trkpt lat="34.7093733" lon="-6.36796"><ele>18.0</ele><time>2026-04-27T14:07:15.026Z</time></trkpt><trkpt lat="34.7095417" lon="-6.367895"><ele>18.0</ele><time>2026-04-27T14:07:16.026Z</time></trkpt><trkpt lat="34.7097133" lon="-6.3678333"><ele>18.0</ele><time>2026-04-27T14:07:17.026Z</time></trkpt><trkpt lat="34.7098867" lon="-6.36777"><ele>18.0</ele><time>2026-04-27T14:07:18.026Z</time></trkpt><trkpt lat="34.710065" lon="-6.3677067"><ele>18.333333333333332</ele><time>2026-04-27T14:07:19.026Z</time></trkpt><trkpt lat="34.7102467" lon="-6.36764"><ele>18.666666666666664</ele><time>2026-04-27T14:07:20.026Z</time></trkpt><trkpt lat="34.7104283" lon="-6.367575"><ele>19.0</ele><time>2026-04-27T14:07:21.026Z</time></trkpt><trkpt lat="34.7106167" lon="-6.36751"><ele>19.0</ele><time>2026-04-27T14:07:22.026Z</time></trkpt><trkpt lat="34.7108033" lon="-6.3674417"><ele>19.0</ele><time>2026-04-27T14:07:23.025Z</time></trkpt><trkpt lat="34.7109917" lon="-6.36737"><ele>19.0</ele><time>2026-04-27T14:07:24.026Z</time></trkpt><trkpt lat="34.7111833" lon="-6.3672983"><ele>19.333333333333332</ele><time>2026-04-27T14:07:25.026Z</time></trkpt><trkpt lat="34.7113733" lon="-6.3672283"><ele>19.666666666666668</ele><time>2026-04-27T14:07:26.026Z</time></trkpt><trkpt lat="34.711565" lon="-6.3671617"><ele>20.0</ele><time>2026-04-27T14:07:27.026Z</time></trkpt><trkpt lat="34.711765" lon="-6.3670933"><ele>19.666666666666668</ele><time>2026-04-27T14:07:28.026Z</time></trkpt><trkpt lat="34.711955" lon="-6.3670317"><ele>19.333333333333332</ele><time>2026-04-27T14:07:29.026Z</time></trkpt><trkpt lat="34.7121333" lon="-6.366965"><ele>19.0</ele><time>2026-04-27T14:07:30.026Z</time></trkpt><trkpt lat="34.7123133" lon="-6.3668883"><ele>19.0</ele><time>2026-04-27T14:07:31.026Z</time></trkpt><trkpt lat="34.7124967" lon="-6.3668083"><ele>19.0</ele><time>2026-04-27T14:07:32.026Z</time></trkpt><trkpt lat="34.7126817" lon="-6.36672"><ele>19.0</ele><time>2026-04-27T14:07:33.026Z</time></trkpt><trkpt lat="34.71285" lon="-6.3666267"><ele>19.0</ele><time>2026-04-27T14:07:34.026Z</time></trkpt><trkpt lat="34.7130083" lon="-6.3665317"><ele>19.0</ele><time>2026-04-27T14:07:35.026Z</time></trkpt><trkpt lat="34.7131633" lon="-6.36643"><ele>19.0</ele><time>2026-04-27T14:07:36.026Z</time></trkpt><trkpt lat="34.71333" lon="-6.3663233"><ele>18.666666666666664</ele><time>2026-04-27T14:07:37.026Z</time></trkpt><trkpt lat="34.7135" lon="-6.3662183"><ele>18.333333333333332</ele><time>2026-04-27T14:07:38.026Z</time></trkpt><trkpt lat="34.713675" lon="-6.3661133"><ele>18.0</ele><time>2026-04-27T14:07:39.026Z</time></trkpt><trkpt lat="34.7138483" lon="-6.3660067"><ele>18.0</ele><time>2026-04-27T14:07:40.026Z</time></trkpt><trkpt lat="34.7140133" lon="-6.365905"><ele>18.0</ele><time>2026-04-27T14:07:41.026Z</time></trkpt><trkpt lat="34.7141733" lon="-6.36581"><ele>18.0</ele><time>2026-04-27T14:07:42.026Z</time></trkpt><trkpt lat="34.714335" lon="-6.3657117"><ele>19.0</ele><time>2026-04-27T14:07:43.026Z</time></trkpt><trkpt lat="34.7145033" lon="-6.3656183"><ele>20.0</ele><time>2026-04-27T14:07:44.026Z</time></trkpt><trkpt lat="34.7146683" lon="-6.36552"><ele>21.0</ele><time>2026-04-27T14:07:45.025Z</time></trkpt><trkpt lat="34.71482" lon="-6.3654217"><ele>18.666666666666668</ele><time>2026-04-27T14:07:46.026Z</time></trkpt><trkpt lat="34.7149783" lon="-6.3653217"><ele>16.333333333333336</ele><time>2026-04-27T14:07:47.026Z</time></trkpt><trkpt lat="34.715145" lon="-6.36522"><ele>14.0</ele><time>2026-04-27T14:07:48.026Z</time></trkpt><trkpt lat="34.715315" lon="-6.365115"><ele>14.0</ele><time>2026-04-27T14:07:49.025Z</time></trkpt><trkpt lat="34.715485" lon="-6.365015"><ele>14.0</ele><time>2026-04-27T14:07:50.026Z</time></trkpt><trkpt lat="34.7156583" lon="-6.3649083"><ele>14.0</ele><time>2026-04-27T14:07:51.026Z</time></trkpt><trkpt lat="34.7158333" lon="-6.3648033"><ele>14.0</ele><time>2026-04-27T14:07:52.026Z</time></trkpt><trkpt lat="34.7160167" lon="-6.3647083"><ele>14.0</ele><time>2026-04-27T14:07:53.026Z</time></trkpt><trkpt lat="34.7161833" lon="-6.3646017"><ele>14.0</ele><time>2026-04-27T14:07:54.026Z</time></trkpt><trkpt lat="34.7163483" lon="-6.364495"><ele>14.0</ele><time>2026-04-27T14:07:55.026Z</time></trkpt><trkpt lat="34.7165167" lon="-6.3643917"><ele>14.0</ele><time>2026-04-27T14:07:56.026Z</time></trkpt><trkpt lat="34.7166867" lon="-6.3642933"><ele>14.0</ele><time>2026-04-27T14:07:57.026Z</time></trkpt><trkpt lat="34.71684" lon="-6.3641967"><ele>15.0</ele><time>2026-04-27T14:07:58.026Z</time></trkpt><trkpt lat="34.7169983" lon="-6.3641"><ele>16.0</ele><time>2026-04-27T14:07:59.026Z</time></trkpt><trkpt lat="34.717165" lon="-6.364"><ele>17.0</ele><time>2026-04-27T14:08:00.026Z</time></trkpt><trkpt lat="34.7173417" lon="-6.3639017"><ele>16.333333333333336</ele><time>2026-04-27T14:08:01.026Z</time></trkpt><trkpt lat="34.717515" lon="-6.3638167"><ele>15.666666666666668</ele><time>2026-04-27T14:08:02.026Z</time></trkpt><trkpt lat="34.717675" lon="-6.3637433"><ele>15.0</ele><time>2026-04-27T14:08:03.026Z</time></trkpt><trkpt lat="34.7178367" lon="-6.3636683"><ele>15.0</ele><time>2026-04-27T14:08:04.026Z</time></trkpt><trkpt lat="34.7180083" lon="-6.3635983"><ele>15.0</ele><time>2026-04-27T14:08:05.026Z</time></trkpt><trkpt lat="34.7181867" lon="-6.3635167"><ele>15.0</ele><time>2026-04-27T14:08:06.026Z</time></trkpt><trkpt lat="34.71837" lon="-6.3634483"><ele>15.0</ele><time>2026-04-27T14:08:07.026Z</time></trkpt><trkpt lat="34.7185517" lon="-6.363365"><ele>15.0</ele><time>2026-04-27T14:08:08.026Z</time></trkpt><trkpt lat="34.7187267" lon="-6.3632867"><ele>15.0</ele><time>2026-04-27T14:08:09.026Z</time></trkpt><trkpt lat="34.7188967" lon="-6.3632117"><ele>15.333333333333332</ele><time>2026-04-27T14:08:10.026Z</time></trkpt><trkpt lat="34.71907" lon="-6.3631383"><ele>15.666666666666666</ele><time>2026-04-27T14:08:11.026Z</time></trkpt><trkpt lat="34.7192467" lon="-6.363065"><ele>16.0</ele><time>2026-04-27T14:08:12.026Z</time></trkpt><trkpt lat="34.7194267" lon="-6.36299"><ele>15.333333333333332</ele><time>2026-04-27T14:08:13.026Z</time></trkpt><trkpt lat="34.7196117" lon="-6.3629133"><ele>14.666666666666668</ele><time>2026-04-27T14:08:14.026Z</time></trkpt><trkpt lat="34.7197933" lon="-6.362835"><ele>14.0</ele><time>2026-04-27T14:08:15.026Z</time></trkpt><trkpt lat="34.71998" lon="-6.362755"><ele>14.0</ele><time>2026-04-27T14:08:16.026Z</time></trkpt><trkpt lat="34.720165" lon="-6.3626833"><ele>14.0</ele><time>2026-04-27T14:08:17.026Z</time></trkpt><trkpt lat="34.7203417" lon="-6.362615"><ele>14.0</ele><time>2026-04-27T14:08:18.026Z</time></trkpt><trkpt lat="34.720515" lon="-6.3625417"><ele>14.0</ele><time>2026-04-27T14:08:19.026Z</time></trkpt><trkpt lat="34.72069" lon="-6.3624683"><ele>14.0</ele><time>2026-04-27T14:08:20.026Z</time></trkpt><trkpt lat="34.7208583" lon="-6.3623983"><ele>14.0</ele><time>2026-04-27T14:08:21.026Z</time></trkpt><trkpt lat="34.72103" lon="-6.3623267"><ele>14.333333333333334</ele><time>2026-04-27T14:08:22.026Z</time></trkpt><trkpt lat="34.7211983" lon="-6.362255"><ele>14.666666666666668</ele><time>2026-04-27T14:08:23.026Z</time></trkpt><trkpt lat="34.7213717" lon="-6.3621867"><ele>15.0</ele><time>2026-04-27T14:08:24.026Z</time></trkpt><trkpt lat="34.7215467" lon="-6.3621167"><ele>15.666666666666668</ele><time>2026-04-27T14:08:25.025Z</time></trkpt><trkpt lat="34.7217233" lon="-6.362035"><ele>16.333333333333336</ele><time>2026-04-27T14:08:26.026Z</time></trkpt><trkpt lat="34.7219" lon="-6.361955"><ele>17.0</ele><time>2026-04-27T14:08:27.026Z</time></trkpt><trkpt lat="34.72208" lon="-6.3618783"><ele>17.0</ele><time>2026-04-27T14:08:28.026Z</time></trkpt><trkpt lat="34.7222617" lon="-6.3618033"><ele>17.0</ele><time>2026-04-27T14:08:29.026Z</time></trkpt><trkpt lat="34.7224433" lon="-6.361725"><ele>17.0</ele><time>2026-04-27T14:08:30.026Z</time></trkpt><trkpt lat="34.7226283" lon="-6.3616433"><ele>17.333333333333336</ele><time>2026-04-27T14:08:31.026Z</time></trkpt><trkpt lat="34.7228083" lon="-6.361555"><ele>17.666666666666668</ele><time>2026-04-27T14:08:32.026Z</time></trkpt><trkpt lat="34.7229933" lon="-6.3614633"><ele>18.0</ele><time>2026-04-27T14:08:33.026Z</time></trkpt><trkpt lat="34.7231767" lon="-6.3613717"><ele>18.333333333333332</ele><time>2026-04-27T14:08:34.026Z</time></trkpt><trkpt lat="34.723355" lon="-6.361275"><ele>18.666666666666664</ele><time>2026-04-27T14:08:35.026Z</time></trkpt><trkpt lat="34.7235233" lon="-6.3611833"><ele>19.0</ele><time>2026-04-27T14:08:36.026Z</time></trkpt><trkpt lat="34.7236833" lon="-6.3610933"><ele>19.0</ele><time>2026-04-27T14:08:37.026Z</time></trkpt><trkpt lat="34.723845" lon="-6.361"><ele>19.0</ele><time>2026-04-27T14:08:38.026Z</time></trkpt><trkpt lat="34.7240083" lon="-6.36091"><ele>19.0</ele><time>2026-04-27T14:08:39.026Z</time></trkpt><trkpt lat="34.7241783" lon="-6.3608217"><ele>19.0</ele><time>2026-04-27T14:08:40.026Z</time></trkpt><trkpt lat="34.7243483" lon="-6.3607317"><ele>19.0</ele><time>2026-04-27T14:08:41.025Z</time></trkpt><trkpt lat="34.7245233" lon="-6.36064"><ele>19.0</ele><time>2026-04-27T14:08:42.025Z</time></trkpt><trkpt lat="34.724695" lon="-6.3605467"><ele>17.666666666666664</ele><time>2026-04-27T14:08:43.026Z</time></trkpt><trkpt lat="34.7248633" lon="-6.36046"><ele>16.333333333333332</ele><time>2026-04-27T14:08:44.026Z</time></trkpt><trkpt lat="34.7250183" lon="-6.3603767"><ele>15.0</ele><time>2026-04-27T14:08:45.026Z</time></trkpt><trkpt lat="34.7251667" lon="-6.3602983"><ele>15.666666666666668</ele><time>2026-04-27T14:08:46.025Z</time></trkpt><trkpt lat="34.7253083" lon="-6.3602217"><ele>16.333333333333336</ele><time>2026-04-27T14:08:47.026Z</time></trkpt><trkpt lat="34.72545" lon="-6.36015"><ele>17.0</ele><time>2026-04-27T14:08:48.026Z</time></trkpt><trkpt lat="34.7255867" lon="-6.3600817"><ele>17.0</ele><time>2026-04-27T14:08:49.026Z</time></trkpt><trkpt lat="34.725735" lon="-6.3600117"><ele>17.0</ele><time>2026-04-27T14:08:50.026Z</time></trkpt><trkpt lat="34.72589" lon="-6.3599233"><ele>17.0</ele><time>2026-04-27T14:08:51.026Z</time></trkpt><trkpt lat="34.7260467" lon="-6.3598267"><ele>17.0</ele><time>2026-04-27T14:08:52.026Z</time></trkpt><trkpt lat="34.726205" lon="-6.3597383"><ele>17.0</ele><time>2026-04-27T14:08:53.026Z</time></trkpt><trkpt lat="34.7263717" lon="-6.359655"><ele>17.0</ele><time>2026-04-27T14:08:54.026Z</time></trkpt><trkpt lat="34.7265417" lon="-6.3595633"><ele>17.0</ele><time>2026-04-27T14:08:55.026Z</time></trkpt><trkpt lat="34.7267117" lon="-6.35947"><ele>17.0</ele><time>2026-04-27T14:08:56.026Z</time></trkpt><trkpt lat="34.7268733" lon="-6.3593783"><ele>17.0</ele><time>2026-04-27T14:08:57.026Z</time></trkpt><trkpt lat="34.72703" lon="-6.3592933"><ele>17.0</ele><time>2026-04-27T14:08:58.026Z</time></trkpt><trkpt lat="34.7271883" lon="-6.3592033"><ele>17.0</ele><time>2026-04-27T14:08:59.026Z</time></trkpt><trkpt lat="34.7273483" lon="-6.3591083"><ele>17.0</ele><time>2026-04-27T14:09:00.026Z</time></trkpt><trkpt lat="34.7275167" lon="-6.3590217"><ele>17.0</ele><time>2026-04-27T14:09:01.026Z</time></trkpt><trkpt lat="34.7276867" lon="-6.35893"><ele>17.0</ele><time>2026-04-27T14:09:02.026Z</time></trkpt><trkpt lat="34.727855" lon="-6.358835"><ele>17.0</ele><time>2026-04-27T14:09:03.026Z</time></trkpt><trkpt lat="34.728025" lon="-6.3587467"><ele>18.0</ele><time>2026-04-27T14:09:04.026Z</time></trkpt><trkpt lat="34.7281867" lon="-6.3586633"><ele>19.0</ele><time>2026-04-27T14:09:05.026Z</time></trkpt><trkpt lat="34.7283367" lon="-6.3585783"><ele>20.0</ele><time>2026-04-27T14:09:06.026Z</time></trkpt><trkpt lat="34.7284917" lon="-6.35849"><ele>21.0</ele><time>2026-04-27T14:09:07.026Z</time></trkpt><trkpt lat="34.7286483" lon="-6.3584017"><ele>22.0</ele><time>2026-04-27T14:09:08.026Z</time></trkpt><trkpt lat="34.7288117" lon="-6.3583183"><ele>23.0</ele><time>2026-04-27T14:09:09.026Z</time></trkpt><trkpt lat="34.7289783" lon="-6.3582267"><ele>23.0</ele><time>2026-04-27T14:09:10.026Z</time></trkpt><trkpt lat="34.7291567" lon="-6.3581433"><ele>23.0</ele><time>2026-04-27T14:09:11.026Z</time></trkpt><trkpt lat="34.7293217" lon="-6.3580467"><ele>23.0</ele><time>2026-04-27T14:09:12.026Z</time></trkpt><trkpt lat="34.7294867" lon="-6.3579483"><ele>22.666666666666668</ele><time>2026-04-27T14:09:13.026Z</time></trkpt><trkpt lat="34.7296567" lon="-6.3578583"><ele>22.333333333333332</ele><time>2026-04-27T14:09:14.026Z</time></trkpt><trkpt lat="34.7298183" lon="-6.3577717"><ele>22.0</ele><time>2026-04-27T14:09:15.026Z</time></trkpt><trkpt lat="34.7299833" lon="-6.3576783"><ele>22.0</ele><time>2026-04-27T14:09:16.026Z</time></trkpt><trkpt lat="34.7301483" lon="-6.3575817"><ele>22.0</ele><time>2026-04-27T14:09:17.026Z</time></trkpt><trkpt lat="34.7302967" lon="-6.3574867"><ele>22.0</ele><time>2026-04-27T14:09:18.026Z</time></trkpt><trkpt lat="34.7304583" lon="-6.357395"><ele>23.666666666666664</ele><time>2026-04-27T14:09:19.026Z</time></trkpt><trkpt lat="34.7306183" lon="-6.357295"><ele>25.333333333333332</ele><time>2026-04-27T14:09:20.026Z</time></trkpt><trkpt lat="34.7307783" lon="-6.3571967"><ele>27.0</ele><time>2026-04-27T14:09:21.026Z</time></trkpt><trkpt lat="34.730935" lon="-6.3571067"><ele>24.666666666666668</ele><time>2026-04-27T14:09:22.026Z</time></trkpt><trkpt lat="34.7310983" lon="-6.3570183"><ele>22.333333333333336</ele><time>2026-04-27T14:09:23.026Z</time></trkpt><trkpt lat="34.7312667" lon="-6.3569233"><ele>20.0</ele><time>2026-04-27T14:09:24.026Z</time></trkpt><trkpt lat="34.7314333" lon="-6.3568283"><ele>20.0</ele><time>2026-04-27T14:09:25.026Z</time></trkpt><trkpt lat="34.73159" lon="-6.3567233"><ele>20.0</ele><time>2026-04-27T14:09:26.026Z</time></trkpt><trkpt lat="34.7317383" lon="-6.35663"><ele>20.0</ele><time>2026-04-27T14:09:27.026Z</time></trkpt><trkpt lat="34.7318917" lon="-6.3565267"><ele>19.0</ele><time>2026-04-27T14:09:28.026Z</time></trkpt><trkpt lat="34.73205" lon="-6.3564283"><ele>18.0</ele><time>2026-04-27T14:09:29.026Z</time></trkpt><trkpt lat="34.73222" lon="-6.3563333"><ele>17.0</ele><time>2026-04-27T14:09:30.026Z</time></trkpt><trkpt lat="34.7323883" lon="-6.35625"><ele>17.0</ele><time>2026-04-27T14:09:31.026Z</time></trkpt><trkpt lat="34.7325517" lon="-6.356165"><ele>17.0</ele><time>2026-04-27T14:09:32.026Z</time></trkpt><trkpt lat="34.7327033" lon="-6.3560883"><ele>17.0</ele><time>2026-04-27T14:09:33.026Z</time></trkpt><trkpt lat="34.7328617" lon="-6.3560183"><ele>17.0</ele><time>2026-04-27T14:09:34.026Z</time></trkpt><trkpt lat="34.73302" lon="-6.3559533"><ele>17.0</ele><time>2026-04-27T14:09:35.026Z</time></trkpt><trkpt lat="34.7331783" lon="-6.3558933"><ele>17.0</ele><time>2026-04-27T14:09:36.026Z</time></trkpt><trkpt lat="34.7333367" lon="-6.3558367"><ele>17.0</ele><time>2026-04-27T14:09:37.026Z</time></trkpt><trkpt lat="34.73349" lon="-6.355775"><ele>17.0</ele><time>2026-04-27T14:09:38.026Z</time></trkpt><trkpt lat="34.73364" lon="-6.3557033"><ele>17.0</ele><time>2026-04-27T14:09:39.026Z</time></trkpt><trkpt lat="34.7337883" lon="-6.3556367"><ele>16.333333333333336</ele><time>2026-04-27T14:09:40.025Z</time></trkpt><trkpt lat="34.7339383" lon="-6.35557"><ele>15.666666666666668</ele><time>2026-04-27T14:09:41.026Z</time></trkpt><trkpt lat="34.73409" lon="-6.3555067"><ele>15.0</ele><time>2026-04-27T14:09:42.026Z</time></trkpt><trkpt lat="34.7342317" lon="-6.3554483"><ele>14.75</ele><time>2026-04-27T14:09:43.026Z</time></trkpt><trkpt lat="34.73437" lon="-6.3553917"><ele>14.5</ele><time>2026-04-27T14:09:44.026Z</time></trkpt><trkpt lat="34.734505" lon="-6.3553333"><ele>14.25</ele><time>2026-04-27T14:09:45.025Z</time></trkpt><trkpt lat="34.7346367" lon="-6.3552767"><ele>14.0</ele><time>2026-04-27T14:09:46.025Z</time></trkpt><trkpt lat="34.73477" lon="-6.3552183"><ele>14.0</ele><time>2026-04-27T14:09:47.026Z</time></trkpt><trkpt lat="34.7349083" lon="-6.35516"><ele>14.0</ele><time>2026-04-27T14:09:48.026Z</time></trkpt><trkpt lat="34.7350467" lon="-6.3550967"><ele>14.0</ele><time>2026-04-27T14:09:49.026Z</time></trkpt><trkpt lat="34.7351933" lon="-6.355035"><ele>14.0</ele><time>2026-04-27T14:09:50.025Z</time></trkpt><trkpt lat="34.7353383" lon="-6.3549783"><ele>14.0</ele><time>2026-04-27T14:09:51.026Z</time></trkpt><trkpt lat="34.7354867" lon="-6.3549167"><ele>14.0</ele><time>2026-04-27T14:09:52.026Z</time></trkpt><trkpt lat="34.735635" lon="-6.3548583"><ele>14.0</ele><time>2026-04-27T14:09:53.026Z</time></trkpt><trkpt lat="34.7357867" lon="-6.354795"><ele>14.0</ele><time>2026-04-27T14:09:54.026Z</time></trkpt><trkpt lat="34.735945" lon="-6.3547317"><ele>14.0</ele><time>2026-04-27T14:09:55.026Z</time></trkpt><trkpt lat="34.7360983" lon="-6.3546667"><ele>14.0</ele><time>2026-04-27T14:09:56.026Z</time></trkpt><trkpt lat="34.7362767" lon="-6.3546"><ele>13.333333333333334</ele><time>2026-04-27T14:09:57.026Z</time></trkpt><trkpt lat="34.7364517" lon="-6.3545283"><ele>12.666666666666668</ele><time>2026-04-27T14:09:58.026Z</time></trkpt><trkpt lat="34.7366267" lon="-6.3544583"><ele>12.0</ele><time>2026-04-27T14:09:59.026Z</time></trkpt><trkpt lat="34.73679" lon="-6.3543917"><ele>13.333333333333332</ele><time>2026-04-27T14:10:00.026Z</time></trkpt><trkpt lat="34.73694" lon="-6.3543267"><ele>14.666666666666666</ele><time>2026-04-27T14:10:01.026Z</time></trkpt><trkpt lat="34.7370917" lon="-6.3542517"><ele>16.0</ele><time>2026-04-27T14:10:02.026Z</time></trkpt><trkpt lat="34.7372417" lon="-6.35417"><ele>16.0</ele><time>2026-04-27T14:10:03.026Z</time></trkpt><trkpt lat="34.7373967" lon="-6.3540783"><ele>16.0</ele><time>2026-04-27T14:10:04.026Z</time></trkpt><trkpt lat="34.7375517" lon="-6.35398"><ele>16.0</ele><time>2026-04-27T14:10:05.025Z</time></trkpt><trkpt lat="34.7377017" lon="-6.35387"><ele>15.333333333333332</ele><time>2026-04-27T14:10:06.026Z</time></trkpt><trkpt lat="34.7378517" lon="-6.3537517"><ele>14.666666666666668</ele><time>2026-04-27T14:10:07.026Z</time></trkpt><trkpt lat="34.738005" lon="-6.3536333"><ele>14.0</ele><time>2026-04-27T14:10:08.025Z</time></trkpt><trkpt lat="34.73815" lon="-6.3535167"><ele>14.0</ele><time>2026-04-27T14:10:09.026Z</time></trkpt><trkpt lat="34.7383017" lon="-6.35341"><ele>14.0</ele><time>2026-04-27T14:10:10.026Z</time></trkpt><trkpt lat="34.738445" lon="-6.3533083"><ele>14.0</ele><time>2026-04-27T14:10:11.026Z</time></trkpt><trkpt lat="34.7385817" lon="-6.35321"><ele>13.666666666666668</ele><time>2026-04-27T14:10:12.026Z</time></trkpt><trkpt lat="34.73872" lon="-6.353115"><ele>13.333333333333332</ele><time>2026-04-27T14:10:13.026Z</time></trkpt><trkpt lat="34.738855" lon="-6.3530167"><ele>13.0</ele><time>2026-04-27T14:10:14.025Z</time></trkpt><trkpt lat="34.7389883" lon="-6.3529217"><ele>13.0</ele><time>2026-04-27T14:10:15.026Z</time></trkpt><trkpt lat="34.7391167" lon="-6.352825"><ele>13.0</ele><time>2026-04-27T14:10:16.025Z</time></trkpt><trkpt lat="34.7392433" lon="-6.352735"><ele>13.0</ele><time>2026-04-27T14:10:17.025Z</time></trkpt><trkpt lat="34.739365" lon="-6.3526433"><ele>13.0</ele><time>2026-04-27T14:10:18.026Z</time></trkpt><trkpt lat="34.73948" lon="-6.3525517"><ele>13.75</ele><time>2026-04-27T14:10:19.026Z</time></trkpt><trkpt lat="34.739595" lon="-6.3524733"><ele>14.5</ele><time>2026-04-27T14:10:20.026Z</time></trkpt><trkpt lat="34.7397117" lon="-6.3523933"><ele>15.25</ele><time>2026-04-27T14:10:21.026Z</time></trkpt><trkpt lat="34.7398317" lon="-6.3523133"><ele>16.0</ele><time>2026-04-27T14:10:22.026Z</time></trkpt><trkpt lat="34.739945" lon="-6.35223"><ele>15.5</ele><time>2026-04-27T14:10:23.026Z</time></trkpt><trkpt lat="34.7400583" lon="-6.35215"><ele>15.0</ele><time>2026-04-27T14:10:24.026Z</time></trkpt><trkpt lat="34.74018" lon="-6.352065"><ele>14.5</ele><time>2026-04-27T14:10:25.026Z</time></trkpt><trkpt lat="34.7403017" lon="-6.35198"><ele>14.0</ele><time>2026-04-27T14:10:26.026Z</time></trkpt><trkpt lat="34.740425" lon="-6.3518983"><ele>14.0</ele><time>2026-04-27T14:10:27.026Z</time></trkpt><trkpt lat="34.740545" lon="-6.351805"><ele>14.0</ele><time>2026-04-27T14:10:28.026Z</time></trkpt><trkpt lat="34.7406667" lon="-6.3517133"><ele>14.0</ele><time>2026-04-27T14:10:29.026Z</time></trkpt><trkpt lat="34.740785" lon="-6.3516167"><ele>14.0</ele><time>2026-04-27T14:10:30.026Z</time></trkpt><trkpt lat="34.7409033" lon="-6.351515"><ele>14.0</ele><time>2026-04-27T14:10:31.026Z</time></trkpt><trkpt lat="34.7410217" lon="-6.35141"><ele>14.0</ele><time>2026-04-27T14:10:32.026Z</time></trkpt><trkpt lat="34.7411367" lon="-6.351295"><ele>14.0</ele><time>2026-04-27T14:10:33.026Z</time></trkpt><trkpt lat="34.7412533" lon="-6.3511767"><ele>14.0</ele><time>2026-04-27T14:10:34.025Z</time></trkpt><trkpt lat="34.7413767" lon="-6.3510617"><ele>14.333333333333334</ele><time>2026-04-27T14:10:35.026Z</time></trkpt><trkpt lat="34.7415067" lon="-6.350955"><ele>14.666666666666668</ele><time>2026-04-27T14:10:36.026Z</time></trkpt><trkpt lat="34.7416383" lon="-6.3508517"><ele>15.0</ele><time>2026-04-27T14:10:37.026Z</time></trkpt><trkpt lat="34.7417667" lon="-6.3507367"><ele>15.0</ele><time>2026-04-27T14:10:38.026Z</time></trkpt><trkpt lat="34.74189" lon="-6.35061"><ele>15.0</ele><time>2026-04-27T14:10:39.026Z</time></trkpt><trkpt lat="34.742015" lon="-6.350495"><ele>15.0</ele><time>2026-04-27T14:10:40.026Z</time></trkpt><trkpt lat="34.74214" lon="-6.3503833"><ele>15.0</ele><time>2026-04-27T14:10:41.025Z</time></trkpt><trkpt lat="34.74227" lon="-6.350265"><ele>15.0</ele><time>2026-04-27T14:10:42.026Z</time></trkpt><trkpt lat="34.7424067" lon="-6.3501533"><ele>15.0</ele><time>2026-04-27T14:10:43.026Z</time></trkpt><trkpt lat="34.74254" lon="-6.35003"><ele>15.0</ele><time>2026-04-27T14:10:44.026Z</time></trkpt><trkpt lat="34.7426733" lon="-6.349905"><ele>15.0</ele><time>2026-04-27T14:10:45.026Z</time></trkpt><trkpt lat="34.7428033" lon="-6.3497767"><ele>15.0</ele><time>2026-04-27T14:10:46.025Z</time></trkpt><trkpt lat="34.7429417" lon="-6.3496583"><ele>16.0</ele><time>2026-04-27T14:10:47.025Z</time></trkpt><trkpt lat="34.7430817" lon="-6.3495367"><ele>17.0</ele><time>2026-04-27T14:10:48.024Z</time></trkpt><trkpt lat="34.74322" lon="-6.3494017"><ele>18.0</ele><time>2026-04-27T14:10:49.024Z</time></trkpt><trkpt lat="34.7433567" lon="-6.349275"><ele>18.0</ele><time>2026-04-27T14:10:50.025Z</time></trkpt><trkpt lat="34.743495" lon="-6.34915"><ele>18.0</ele><time>2026-04-27T14:10:51.025Z</time></trkpt><trkpt lat="34.7436333" lon="-6.3490167"><ele>18.0</ele><time>2026-04-27T14:10:52.025Z</time></trkpt><trkpt lat="34.7437717" lon="-6.3488933"><ele>15.666666666666666</ele><time>2026-04-27T14:10:53.025Z</time></trkpt><trkpt lat="34.7439167" lon="-6.3487767"><ele>13.333333333333332</ele><time>2026-04-27T14:10:54.025Z</time></trkpt><trkpt lat="34.74406" lon="-6.3486533"><ele>11.0</ele><time>2026-04-27T14:10:55.025Z</time></trkpt><trkpt lat="34.7442" lon="-6.3485533"><ele>11.0</ele><time>2026-04-27T14:10:56.025Z</time></trkpt><trkpt lat="34.7443467" lon="-6.3484617"><ele>11.0</ele><time>2026-04-27T14:10:57.025Z</time></trkpt><trkpt lat="34.7444933" lon="-6.3483667"><ele>11.0</ele><time>2026-04-27T14:10:58.025Z</time></trkpt><trkpt lat="34.7446483" lon="-6.34828"><ele>11.0</ele><time>2026-04-27T14:10:59.025Z</time></trkpt><trkpt lat="34.7448033" lon="-6.348185"><ele>11.0</ele><time>2026-04-27T14:11:00.025Z</time></trkpt><trkpt lat="34.7449683" lon="-6.3480883"><ele>11.0</ele><time>2026-04-27T14:11:01.025Z</time></trkpt><trkpt lat="34.7451367" lon="-6.3479867"><ele>12.0</ele><time>2026-04-27T14:11:02.025Z</time></trkpt><trkpt lat="34.7453083" lon="-6.3478883"><ele>13.0</ele><time>2026-04-27T14:11:03.025Z</time></trkpt><trkpt lat="34.7454733" lon="-6.3477933"><ele>14.0</ele><time>2026-04-27T14:11:04.025Z</time></trkpt><trkpt lat="34.7456267" lon="-6.3477"><ele>14.0</ele><time>2026-04-27T14:11:05.024Z</time></trkpt><trkpt lat="34.7457767" lon="-6.34761"><ele>14.0</ele><time>2026-04-27T14:11:06.024Z</time></trkpt><trkpt lat="34.74593" lon="-6.3475217"><ele>14.0</ele><time>2026-04-27T14:11:07.025Z</time></trkpt><trkpt lat="34.7460933" lon="-6.34743"><ele>14.0</ele><time>2026-04-27T14:11:08.025Z</time></trkpt><trkpt lat="34.7462483" lon="-6.3473317"><ele>14.0</ele><time>2026-04-27T14:11:09.025Z</time></trkpt><trkpt lat="34.7464167" lon="-6.3472333"><ele>14.0</ele><time>2026-04-27T14:11:10.025Z</time></trkpt><trkpt lat="34.74659" lon="-6.3471283"><ele>14.0</ele><time>2026-04-27T14:11:11.025Z</time></trkpt><trkpt lat="34.7467717" lon="-6.34703"><ele>14.0</ele><time>2026-04-27T14:11:12.024Z</time></trkpt><trkpt lat="34.746945" lon="-6.3469283"><ele>14.0</ele><time>2026-04-27T14:11:13.025Z</time></trkpt><trkpt lat="34.74712" lon="-6.3468317"><ele>14.666666666666668</ele><time>2026-04-27T14:11:14.025Z</time></trkpt><trkpt lat="34.7472883" lon="-6.3467267"><ele>15.333333333333332</ele><time>2026-04-27T14:11:15.024Z</time></trkpt><trkpt lat="34.7474617" lon="-6.34662"><ele>16.0</ele><time>2026-04-27T14:11:16.025Z</time></trkpt><trkpt lat="34.7476333" lon="-6.3465167"><ele>15.666666666666666</ele><time>2026-04-27T14:11:17.025Z</time></trkpt><trkpt lat="34.7478017" lon="-6.346415"><ele>15.333333333333332</ele><time>2026-04-27T14:11:18.025Z</time></trkpt><trkpt lat="34.7479683" lon="-6.34632"><ele>15.0</ele><time>2026-04-27T14:11:19.025Z</time></trkpt><trkpt lat="34.7481333" lon="-6.3462233"><ele>14.0</ele><time>2026-04-27T14:11:20.025Z</time></trkpt><trkpt lat="34.748305" lon="-6.3461217"><ele>13.0</ele><time>2026-04-27T14:11:21.025Z</time></trkpt><trkpt lat="34.748475" lon="-6.3460183"><ele>12.0</ele><time>2026-04-27T14:11:22.025Z</time></trkpt><trkpt lat="34.7486517" lon="-6.3459133"><ele>12.0</ele><time>2026-04-27T14:11:23.025Z</time></trkpt><trkpt lat="34.74882" lon="-6.3457983"><ele>12.0</ele><time>2026-04-27T14:11:24.025Z</time></trkpt><trkpt lat="34.74899" lon="-6.3456833"><ele>12.0</ele><time>2026-04-27T14:11:25.025Z</time></trkpt><trkpt lat="34.74916" lon="-6.34555"><ele>11.666666666666666</ele><time>2026-04-27T14:11:26.025Z</time></trkpt><trkpt lat="34.749325" lon="-6.3454133"><ele>11.333333333333332</ele><time>2026-04-27T14:11:27.025Z</time></trkpt><trkpt lat="34.749495" lon="-6.3452767"><ele>11.0</ele><time>2026-04-27T14:11:28.025Z</time></trkpt><trkpt lat="34.7496583" lon="-6.34514"><ele>11.0</ele><time>2026-04-27T14:11:29.025Z</time></trkpt><trkpt lat="34.7498017" lon="-6.34501"><ele>11.0</ele><time>2026-04-27T14:11:30.025Z</time></trkpt><trkpt lat="34.7499617" lon="-6.3448817"><ele>11.0</ele><time>2026-04-27T14:11:31.025Z</time></trkpt><trkpt lat="34.75011" lon="-6.3447567"><ele>10.666666666666666</ele><time>2026-04-27T14:11:32.025Z</time></trkpt><trkpt lat="34.7502567" lon="-6.34463"><ele>10.333333333333334</ele><time>2026-04-27T14:11:33.025Z</time></trkpt><trkpt lat="34.7504017" lon="-6.344505"><ele>10.0</ele><time>2026-04-27T14:11:34.025Z</time></trkpt><trkpt lat="34.7505533" lon="-6.3443833"><ele>10.0</ele><time>2026-04-27T14:11:35.025Z</time></trkpt><trkpt lat="34.7507183" lon="-6.34426"><ele>10.0</ele><time>2026-04-27T14:11:36.025Z</time></trkpt><trkpt lat="34.750875" lon="-6.3441317"><ele>10.0</ele><time>2026-04-27T14:11:37.025Z</time></trkpt><trkpt lat="34.7510333" lon="-6.3440017"><ele>10.0</ele><time>2026-04-27T14:11:38.025Z</time></trkpt><trkpt lat="34.7512" lon="-6.3438733"><ele>10.0</ele><time>2026-04-27T14:11:39.025Z</time></trkpt><trkpt lat="34.751365" lon="-6.3437483"><ele>10.0</ele><time>2026-04-27T14:11:40.025Z</time></trkpt><trkpt lat="34.75152" lon="-6.343625"><ele>10.0</ele><time>2026-04-27T14:11:41.025Z</time></trkpt><trkpt lat="34.7516617" lon="-6.3434933"><ele>10.0</ele><time>2026-04-27T14:11:42.025Z</time></trkpt><trkpt lat="34.751795" lon="-6.343365"><ele>10.0</ele><time>2026-04-27T14:11:43.025Z</time></trkpt><trkpt lat="34.7519317" lon="-6.343255"><ele>11.0</ele><time>2026-04-27T14:11:44.024Z</time></trkpt><trkpt lat="34.75207" lon="-6.34315"><ele>12.0</ele><time>2026-04-27T14:11:45.025Z</time></trkpt><trkpt lat="34.75221" lon="-6.343045"><ele>13.0</ele><time>2026-04-27T14:11:46.025Z</time></trkpt><trkpt lat="34.7523467" lon="-6.3429367"><ele>13.0</ele><time>2026-04-27T14:11:47.025Z</time></trkpt><trkpt lat="34.7524767" lon="-6.3428117"><ele>13.0</ele><time>2026-04-27T14:11:48.025Z</time></trkpt><trkpt lat="34.752595" lon="-6.3426667"><ele>13.0</ele><time>2026-04-27T14:11:49.025Z</time></trkpt><trkpt lat="34.75271" lon="-6.3425117"><ele>13.0</ele><time>2026-04-27T14:11:50.025Z</time></trkpt><trkpt lat="34.75281" lon="-6.3423383"><ele>13.0</ele><time>2026-04-27T14:11:51.025Z</time></trkpt><trkpt lat="34.7529067" lon="-6.34217"><ele>13.0</ele><time>2026-04-27T14:11:52.025Z</time></trkpt><trkpt lat="34.7529983" lon="-6.3420083"><ele>11.5</ele><time>2026-04-27T14:11:53.025Z</time></trkpt><trkpt lat="34.7530867" lon="-6.3418517"><ele>10.0</ele><time>2026-04-27T14:11:54.025Z</time></trkpt><trkpt lat="34.7531783" lon="-6.3417033"><ele>8.5</ele><time>2026-04-27T14:11:55.025Z</time></trkpt><trkpt lat="34.75327" lon="-6.3415817"><ele>7.0</ele><time>2026-04-27T14:11:56.025Z</time></trkpt><trkpt lat="34.7533717" lon="-6.3414867"><ele>7.0</ele><time>2026-04-27T14:11:57.025Z</time></trkpt><trkpt lat="34.75349" lon="-6.3414333"><ele>7.0</ele><time>2026-04-27T14:11:58.024Z</time></trkpt><trkpt lat="34.7536117" lon="-6.3413967"><ele>7.0</ele><time>2026-04-27T14:11:59.025Z</time></trkpt><trkpt lat="34.7537383" lon="-6.3413833"><ele>7.0</ele><time>2026-04-27T14:12:00.025Z</time></trkpt><trkpt lat="34.753855" lon="-6.3413967"><ele>7.199999999999999</ele><time>2026-04-27T14:12:01.024Z</time></trkpt><trkpt lat="34.7539633" lon="-6.341425"><ele>7.3999999999999995</ele><time>2026-04-27T14:12:02.025Z</time></trkpt><trkpt lat="34.75407" lon="-6.34146"><ele>7.6000000000000005</ele><time>2026-04-27T14:12:03.025Z</time></trkpt><trkpt lat="34.754165" lon="-6.3415"><ele>7.800000000000001</ele><time>2026-04-27T14:12:04.025Z</time></trkpt><trkpt lat="34.754245" lon="-6.341535"><ele>8.0</ele><time>2026-04-27T14:12:05.025Z</time></trkpt><trkpt lat="34.7543283" lon="-6.3415717"><ele>8.5</ele><time>2026-04-27T14:12:06.025Z</time></trkpt><trkpt lat="34.7543967" lon="-6.3415933"><ele>9.0</ele><time>2026-04-27T14:12:07.025Z</time></trkpt><trkpt lat="34.7544817" lon="-6.3416183"><ele>9.5</ele><time>2026-04-27T14:12:08.025Z</time></trkpt><trkpt lat="34.754575" lon="-6.341635"><ele>10.0</ele><time>2026-04-27T14:12:09.025Z</time></trkpt><trkpt lat="34.7546683" lon="-6.3416567"><ele>10.5</ele><time>2026-04-27T14:12:10.025Z</time></trkpt><trkpt lat="34.7547517" lon="-6.3416683"><ele>11.0</ele><time>2026-04-27T14:12:11.025Z</time></trkpt><trkpt lat="34.7548317" lon="-6.3416733"><ele>11.0</ele><time>2026-04-27T14:12:12.025Z</time></trkpt><trkpt lat="34.7549033" lon="-6.3416567"><ele>11.0</ele><time>2026-04-27T14:12:13.025Z</time></trkpt><trkpt lat="34.7549617" lon="-6.341625"><ele>11.0</ele><time>2026-04-27T14:12:14.025Z</time></trkpt><trkpt lat="34.7550767" lon="-6.3415183"><ele>11.0</ele><time>2026-04-27T14:12:16.025Z</time></trkpt><trkpt lat="34.7551567" lon="-6.34143"><ele>11.0</ele><time>2026-04-27T14:12:17.025Z</time></trkpt><trkpt lat="34.75525" lon="-6.34132"><ele>11.25</ele><time>2026-04-27T14:12:18.025Z</time></trkpt><trkpt lat="34.7553367" lon="-6.3412067"><ele>11.5</ele><time>2026-04-27T14:12:19.025Z</time></trkpt><trkpt lat="34.7554117" lon="-6.3410833"><ele>11.75</ele><time>2026-04-27T14:12:20.025Z</time></trkpt><trkpt lat="34.755475" lon="-6.3409317"><ele>12.0</ele><time>2026-04-27T14:12:21.025Z</time></trkpt><trkpt lat="34.75554" lon="-6.3407683"><ele>12.0</ele><time>2026-04-27T14:12:22.025Z</time></trkpt><trkpt lat="34.7556233" lon="-6.3406"><ele>12.0</ele><time>2026-04-27T14:12:23.025Z</time></trkpt><trkpt lat="34.7557333" lon="-6.3404233"><ele>12.0</ele><time>2026-04-27T14:12:24.024Z</time></trkpt><trkpt lat="34.75586" lon="-6.3402533"><ele>12.666666666666668</ele><time>2026-04-27T14:12:25.025Z</time></trkpt><trkpt lat="34.7560067" lon="-6.3400867"><ele>13.333333333333334</ele><time>2026-04-27T14:12:26.025Z</time></trkpt><trkpt lat="34.7561383" lon="-6.3399433"><ele>14.0</ele><time>2026-04-27T14:12:27.024Z</time></trkpt><trkpt lat="34.756255" lon="-6.3398167"><ele>13.666666666666668</ele><time>2026-04-27T14:12:28.025Z</time></trkpt><trkpt lat="34.7563717" lon="-6.3396967"><ele>13.333333333333332</ele><time>2026-04-27T14:12:29.025Z</time></trkpt><trkpt lat="34.756495" lon="-6.33958"><ele>13.0</ele><time>2026-04-27T14:12:30.025Z</time></trkpt><trkpt lat="34.75662" lon="-6.339455"><ele>13.0</ele><time>2026-04-27T14:12:31.025Z</time></trkpt><trkpt lat="34.7567483" lon="-6.3393317"><ele>13.0</ele><time>2026-04-27T14:12:32.024Z</time></trkpt><trkpt lat="34.7568667" lon="-6.3392033"><ele>13.0</ele><time>2026-04-27T14:12:33.024Z</time></trkpt><trkpt lat="34.7569883" lon="-6.339085"><ele>12.333333333333332</ele><time>2026-04-27T14:12:34.025Z</time></trkpt><trkpt lat="34.7571167" lon="-6.3389517"><ele>11.666666666666666</ele><time>2026-04-27T14:12:35.025Z</time></trkpt><trkpt lat="34.7572433" lon="-6.33882"><ele>11.0</ele><time>2026-04-27T14:12:36.024Z</time></trkpt><trkpt lat="34.7573817" lon="-6.3386817"><ele>11.0</ele><time>2026-04-27T14:12:37.025Z</time></trkpt><trkpt lat="34.7575217" lon="-6.3385417"><ele>11.0</ele><time>2026-04-27T14:12:38.025Z</time></trkpt><trkpt lat="34.757655" lon="-6.3384017"><ele>11.0</ele><time>2026-04-27T14:12:39.025Z</time></trkpt><trkpt lat="34.7577883" lon="-6.338255"><ele>12.333333333333332</ele><time>2026-04-27T14:12:40.025Z</time></trkpt><trkpt lat="34.7579267" lon="-6.3380983"><ele>13.666666666666666</ele><time>2026-04-27T14:12:41.025Z</time></trkpt><trkpt lat="34.758065" lon="-6.3379333"><ele>15.0</ele><time>2026-04-27T14:12:42.025Z</time></trkpt><trkpt lat="34.7582117" lon="-6.3377717"><ele>15.0</ele><time>2026-04-27T14:12:43.025Z</time></trkpt><trkpt lat="34.75836" lon="-6.3376083"><ele>15.0</ele><time>2026-04-27T14:12:44.025Z</time></trkpt><trkpt lat="34.7585" lon="-6.337455"><ele>15.0</ele><time>2026-04-27T14:12:45.025Z</time></trkpt><trkpt lat="34.7586233" lon="-6.3373217"><ele>18.0</ele><time>2026-04-27T14:12:46.024Z</time></trkpt><trkpt lat="34.75875" lon="-6.3371867"><ele>21.0</ele><time>2026-04-27T14:12:47.024Z</time></trkpt><trkpt lat="34.7588733" lon="-6.3370367"><ele>24.0</ele><time>2026-04-27T14:12:48.025Z</time></trkpt><trkpt lat="34.75901" lon="-6.3368883"><ele>24.0</ele><time>2026-04-27T14:12:49.025Z</time></trkpt><trkpt lat="34.7591567" lon="-6.3367283"><ele>24.0</ele><time>2026-04-27T14:12:50.025Z</time></trkpt><trkpt lat="34.7593033" lon="-6.3365633"><ele>24.0</ele><time>2026-04-27T14:12:51.025Z</time></trkpt><trkpt lat="34.7594467" lon="-6.3363967"><ele>24.666666666666664</ele><time>2026-04-27T14:12:52.025Z</time></trkpt><trkpt lat="34.7595983" lon="-6.33622"><ele>25.333333333333332</ele><time>2026-04-27T14:12:53.025Z</time></trkpt><trkpt lat="34.7597517" lon="-6.3360417"><ele>26.0</ele><time>2026-04-27T14:12:54.025Z</time></trkpt><trkpt lat="34.7599033" lon="-6.335875"><ele>26.0</ele><time>2026-04-27T14:12:55.025Z</time></trkpt><trkpt lat="34.7600517" lon="-6.3357067"><ele>26.0</ele><time>2026-04-27T14:12:56.025Z</time></trkpt><trkpt lat="34.7601983" lon="-6.3355417"><ele>26.0</ele><time>2026-04-27T14:12:57.025Z</time></trkpt><trkpt lat="34.7603467" lon="-6.3353783"><ele>26.333333333333332</ele><time>2026-04-27T14:12:58.024Z</time></trkpt><trkpt lat="34.76049" lon="-6.33522"><ele>26.666666666666664</ele><time>2026-04-27T14:12:59.025Z</time></trkpt><trkpt lat="34.7606233" lon="-6.335055"><ele>27.0</ele><time>2026-04-27T14:13:00.025Z</time></trkpt><trkpt lat="34.7607633" lon="-6.3349083"><ele>27.0</ele><time>2026-04-27T14:13:01.025Z</time></trkpt><trkpt lat="34.7608933" lon="-6.3347567"><ele>27.0</ele><time>2026-04-27T14:13:02.025Z</time></trkpt><trkpt lat="34.7610267" lon="-6.3346083"><ele>27.0</ele><time>2026-04-27T14:13:03.025Z</time></trkpt><trkpt lat="34.7611583" lon="-6.3344617"><ele>27.666666666666664</ele><time>2026-04-27T14:13:04.025Z</time></trkpt><trkpt lat="34.76129" lon="-6.3343167"><ele>28.333333333333332</ele><time>2026-04-27T14:13:05.025Z</time></trkpt><trkpt lat="34.7614233" lon="-6.33417"><ele>29.0</ele><time>2026-04-27T14:13:06.025Z</time></trkpt><trkpt lat="34.7615567" lon="-6.3340167"><ele>29.333333333333332</ele><time>2026-04-27T14:13:07.025Z</time></trkpt><trkpt lat="34.7616917" lon="-6.3338633"><ele>29.666666666666664</ele><time>2026-04-27T14:13:08.025Z</time></trkpt><trkpt lat="34.7618267" lon="-6.3337133"><ele>30.0</ele><time>2026-04-27T14:13:09.024Z</time></trkpt><trkpt lat="34.76196" lon="-6.3335617"><ele>30.0</ele><time>2026-04-27T14:13:10.025Z</time></trkpt><trkpt lat="34.762095" lon="-6.3333967"><ele>30.0</ele><time>2026-04-27T14:13:11.024Z</time></trkpt><trkpt lat="34.7622317" lon="-6.3332317"><ele>30.0</ele><time>2026-04-27T14:13:12.025Z</time></trkpt><trkpt lat="34.7623717" lon="-6.3330683"><ele>30.666666666666664</ele><time>2026-04-27T14:13:13.025Z</time></trkpt><trkpt lat="34.7625133" lon="-6.3329067"><ele>31.333333333333332</ele><time>2026-04-27T14:13:14.025Z</time></trkpt><trkpt lat="34.7626567" lon="-6.3327517"><ele>32.0</ele><time>2026-04-27T14:13:15.025Z</time></trkpt><trkpt lat="34.76279" lon="-6.3325983"><ele>30.333333333333332</ele><time>2026-04-27T14:13:16.025Z</time></trkpt><trkpt lat="34.7629167" lon="-6.33244"><ele>28.666666666666664</ele><time>2026-04-27T14:13:17.025Z</time></trkpt><trkpt lat="34.7630367" lon="-6.3322717"><ele>27.0</ele><time>2026-04-27T14:13:18.025Z</time></trkpt><trkpt lat="34.7631333" lon="-6.332085"><ele>26.666666666666664</ele><time>2026-04-27T14:13:19.025Z</time></trkpt><trkpt lat="34.7632267" lon="-6.33188"><ele>26.333333333333332</ele><time>2026-04-27T14:13:20.025Z</time></trkpt><trkpt lat="34.7633133" lon="-6.3316633"><ele>26.0</ele><time>2026-04-27T14:13:21.025Z</time></trkpt><trkpt lat="34.763385" lon="-6.3314433"><ele>23.333333333333332</ele><time>2026-04-27T14:13:22.025Z</time></trkpt><trkpt lat="34.763435" lon="-6.3312367"><ele>20.666666666666664</ele><time>2026-04-27T14:13:23.025Z</time></trkpt><trkpt lat="34.7634717" lon="-6.3310233"><ele>18.0</ele><time>2026-04-27T14:13:24.025Z</time></trkpt><trkpt lat="34.7635217" lon="-6.330825"><ele>18.333333333333332</ele><time>2026-04-27T14:13:25.025Z</time></trkpt><trkpt lat="34.7635717" lon="-6.3306317"><ele>18.666666666666664</ele><time>2026-04-27T14:13:26.025Z</time></trkpt><trkpt lat="34.763625" lon="-6.3304483"><ele>19.0</ele><time>2026-04-27T14:13:27.025Z</time></trkpt><trkpt lat="34.7636967" lon="-6.3302817"><ele>19.0</ele><time>2026-04-27T14:13:28.025Z</time></trkpt><trkpt lat="34.7637767" lon="-6.3301267"><ele>19.0</ele><time>2026-04-27T14:13:29.025Z</time></trkpt><trkpt lat="34.7638883" lon="-6.3299983"><ele>19.0</ele><time>2026-04-27T14:13:30.025Z</time></trkpt><trkpt lat="34.7640167" lon="-6.3298883"><ele>19.0</ele><time>2026-04-27T14:13:31.025Z</time></trkpt><trkpt lat="34.7641533" lon="-6.32981"><ele>19.0</ele><time>2026-04-27T14:13:32.025Z</time></trkpt><trkpt lat="34.7642983" lon="-6.3297617"><ele>19.0</ele><time>2026-04-27T14:13:33.025Z</time></trkpt><trkpt lat="34.7644583" lon="-6.32974"><ele>23.333333333333332</ele><time>2026-04-27T14:13:34.025Z</time></trkpt><trkpt lat="34.7646333" lon="-6.3297433"><ele>27.666666666666664</ele><time>2026-04-27T14:13:35.025Z</time></trkpt><trkpt lat="34.7648033" lon="-6.3297533"><ele>32.0</ele><time>2026-04-27T14:13:36.025Z</time></trkpt><trkpt lat="34.764965" lon="-6.3297617"><ele>32.0</ele><time>2026-04-27T14:13:37.024Z</time></trkpt><trkpt lat="34.7651233" lon="-6.329755"><ele>32.0</ele><time>2026-04-27T14:13:38.025Z</time></trkpt><trkpt lat="34.7652817" lon="-6.3297117"><ele>32.0</ele><time>2026-04-27T14:13:39.025Z</time></trkpt><trkpt lat="34.76544" lon="-6.3296517"><ele>32.33333333333333</ele><time>2026-04-27T14:13:40.025Z</time></trkpt><trkpt lat="34.7655883" lon="-6.3295783"><ele>32.666666666666664</ele><time>2026-04-27T14:13:41.025Z</time></trkpt><trkpt lat="34.7657417" lon="-6.329495"><ele>33.0</ele><time>2026-04-27T14:13:42.025Z</time></trkpt><trkpt lat="34.7659" lon="-6.329425"><ele>34.0</ele><time>2026-04-27T14:13:43.025Z</time></trkpt><trkpt lat="34.7660683" lon="-6.329365"><ele>35.0</ele><time>2026-04-27T14:13:44.025Z</time></trkpt><trkpt lat="34.7662333" lon="-6.3293317"><ele>36.0</ele><time>2026-04-27T14:13:45.025Z</time></trkpt><trkpt lat="34.7663883" lon="-6.3293217"><ele>36.0</ele><time>2026-04-27T14:13:46.025Z</time></trkpt><trkpt lat="34.7665383" lon="-6.3292983"><ele>36.0</ele><time>2026-04-27T14:13:47.025Z</time></trkpt><trkpt lat="34.7666883" lon="-6.329275"><ele>36.0</ele><time>2026-04-27T14:13:48.025Z</time></trkpt><trkpt lat="34.7668383" lon="-6.3292483"><ele>35.0</ele><time>2026-04-27T14:13:49.025Z</time></trkpt><trkpt lat="34.767005" lon="-6.32923"><ele>34.0</ele><time>2026-04-27T14:13:50.025Z</time></trkpt><trkpt lat="34.7671783" lon="-6.3292083"><ele>33.0</ele><time>2026-04-27T14:13:51.025Z</time></trkpt><trkpt lat="34.7673533" lon="-6.3291833"><ele>33.0</ele><time>2026-04-27T14:13:52.024Z</time></trkpt><trkpt lat="34.7675383" lon="-6.329155"><ele>33.0</ele><time>2026-04-27T14:13:53.025Z</time></trkpt><trkpt lat="34.7677283" lon="-6.3291283"><ele>33.0</ele><time>2026-04-27T14:13:54.025Z</time></trkpt><trkpt lat="34.7679183" lon="-6.3291"><ele>33.666666666666664</ele><time>2026-04-27T14:13:55.025Z</time></trkpt><trkpt lat="34.7681083" lon="-6.3290767"><ele>34.33333333333333</ele><time>2026-04-27T14:13:56.025Z</time></trkpt><trkpt lat="34.7682933" lon="-6.3290483"><ele>35.0</ele><time>2026-04-27T14:13:57.025Z</time></trkpt><trkpt lat="34.7684733" lon="-6.3290233"><ele>34.33333333333333</ele><time>2026-04-27T14:13:58.025Z</time></trkpt><trkpt lat="34.7686383" lon="-6.3290067"><ele>33.666666666666664</ele><time>2026-04-27T14:13:59.025Z</time></trkpt><trkpt lat="34.7688" lon="-6.3289783"><ele>33.0</ele><time>2026-04-27T14:14:00.024Z</time></trkpt><trkpt lat="34.7689667" lon="-6.3289517"><ele>33.0</ele><time>2026-04-27T14:14:01.025Z</time></trkpt><trkpt lat="34.7691333" lon="-6.3289333"><ele>33.0</ele><time>2026-04-27T14:14:02.025Z</time></trkpt><trkpt lat="34.769305" lon="-6.3289133"><ele>33.0</ele><time>2026-04-27T14:14:03.025Z</time></trkpt><trkpt lat="34.7694683" lon="-6.3288933"><ele>31.666666666666664</ele><time>2026-04-27T14:14:04.025Z</time></trkpt><trkpt lat="34.7696317" lon="-6.3288717"><ele>30.333333333333332</ele><time>2026-04-27T14:14:05.025Z</time></trkpt><trkpt lat="34.7697967" lon="-6.3288467"><ele>29.0</ele><time>2026-04-27T14:14:06.025Z</time></trkpt><trkpt lat="34.769975" lon="-6.3288183"><ele>29.0</ele><time>2026-04-27T14:14:07.025Z</time></trkpt><trkpt lat="34.770155" lon="-6.328785"><ele>29.0</ele><time>2026-04-27T14:14:08.024Z</time></trkpt><trkpt lat="34.7703333" lon="-6.328755"><ele>29.0</ele><time>2026-04-27T14:14:09.025Z</time></trkpt><trkpt lat="34.770515" lon="-6.3287233"><ele>30.333333333333332</ele><time>2026-04-27T14:14:10.025Z</time></trkpt><trkpt lat="34.770695" lon="-6.3286967"><ele>31.666666666666664</ele><time>2026-04-27T14:14:11.025Z</time></trkpt><trkpt lat="34.770875" lon="-6.328675"><ele>33.0</ele><time>2026-04-27T14:14:12.025Z</time></trkpt><trkpt lat="34.7710583" lon="-6.328655"><ele>34.333333333333336</ele><time>2026-04-27T14:14:13.025Z</time></trkpt><trkpt lat="34.7712333" lon="-6.3286283"><ele>35.66666666666667</ele><time>2026-04-27T14:14:14.025Z</time></trkpt><trkpt lat="34.7713983" lon="-6.328585"><ele>37.0</ele><time>2026-04-27T14:14:15.025Z</time></trkpt><trkpt lat="34.771555" lon="-6.32854"><ele>37.0</ele><time>2026-04-27T14:14:16.025Z</time></trkpt><trkpt lat="34.771715" lon="-6.3284867"><ele>37.0</ele><time>2026-04-27T14:14:17.025Z</time></trkpt><trkpt lat="34.7718767" lon="-6.3284117"><ele>37.0</ele><time>2026-04-27T14:14:18.025Z</time></trkpt><trkpt lat="34.77202" lon="-6.32832"><ele>37.0</ele><time>2026-04-27T14:14:19.025Z</time></trkpt><trkpt lat="34.7721483" lon="-6.3282217"><ele>37.0</ele><time>2026-04-27T14:14:20.025Z</time></trkpt><trkpt lat="34.772265" lon="-6.3281217"><ele>37.0</ele><time>2026-04-27T14:14:21.025Z</time></trkpt><trkpt lat="34.7723933" lon="-6.3280167"><ele>37.0</ele><time>2026-04-27T14:14:22.025Z</time></trkpt><trkpt lat="34.772515" lon="-6.3278983"><ele>37.0</ele><time>2026-04-27T14:14:23.025Z</time></trkpt><trkpt lat="34.7726233" lon="-6.3277633"><ele>37.0</ele><time>2026-04-27T14:14:24.025Z</time></trkpt><trkpt lat="34.7727367" lon="-6.3276167"><ele>37.0</ele><time>2026-04-27T14:14:25.025Z</time></trkpt><trkpt lat="34.7728383" lon="-6.3274667"><ele>34.333333333333336</ele><time>2026-04-27T14:14:26.025Z</time></trkpt><trkpt lat="34.7729317" lon="-6.3273067"><ele>31.666666666666664</ele><time>2026-04-27T14:14:27.025Z</time></trkpt><trkpt lat="34.7730217" lon="-6.32714"><ele>29.0</ele><time>2026-04-27T14:14:28.025Z</time></trkpt><trkpt lat="34.7731083" lon="-6.3269583"><ele>29.0</ele><time>2026-04-27T14:14:29.025Z</time></trkpt><trkpt lat="34.773185" lon="-6.3267633"><ele>29.0</ele><time>2026-04-27T14:14:30.025Z</time></trkpt><trkpt lat="34.773255" lon="-6.326565"><ele>29.0</ele><time>2026-04-27T14:14:31.025Z</time></trkpt><trkpt lat="34.7733317" lon="-6.3263567"><ele>28.333333333333332</ele><time>2026-04-27T14:14:32.025Z</time></trkpt><trkpt lat="34.7734133" lon="-6.32615"><ele>27.666666666666664</ele><time>2026-04-27T14:14:33.025Z</time></trkpt><trkpt lat="34.7734883" lon="-6.32594"><ele>27.0</ele><time>2026-04-27T14:14:34.024Z</time></trkpt><trkpt lat="34.7735717" lon="-6.32572"><ele>28.0</ele><time>2026-04-27T14:14:35.024Z</time></trkpt><trkpt lat="34.7736583" lon="-6.325495"><ele>29.0</ele><time>2026-04-27T14:14:36.025Z</time></trkpt><trkpt lat="34.773745" lon="-6.3252733"><ele>30.0</ele><time>2026-04-27T14:14:37.025Z</time></trkpt><trkpt lat="34.77382" lon="-6.325055"><ele>30.0</ele><time>2026-04-27T14:14:38.025Z</time></trkpt><trkpt lat="34.7739" lon="-6.324845"><ele>30.0</ele><time>2026-04-27T14:14:39.025Z</time></trkpt><trkpt lat="34.7739767" lon="-6.3246367"><ele>30.0</ele><time>2026-04-27T14:14:40.025Z</time></trkpt><trkpt lat="34.774045" lon="-6.3244283"><ele>30.333333333333336</ele><time>2026-04-27T14:14:41.024Z</time></trkpt><trkpt lat="34.774115" lon="-6.324215"><ele>30.666666666666668</ele><time>2026-04-27T14:14:42.025Z</time></trkpt><trkpt lat="34.774195" lon="-6.32401"><ele>31.0</ele><time>2026-04-27T14:14:43.024Z</time></trkpt><trkpt lat="34.77428" lon="-6.3238033"><ele>32.333333333333336</ele><time>2026-04-27T14:14:44.025Z</time></trkpt><trkpt lat="34.7743667" lon="-6.323595"><ele>33.666666666666664</ele><time>2026-04-27T14:14:45.025Z</time></trkpt><trkpt lat="34.7744517" lon="-6.3233833"><ele>35.0</ele><time>2026-04-27T14:14:46.025Z</time></trkpt><trkpt lat="34.7745317" lon="-6.3231717"><ele>35.0</ele><time>2026-04-27T14:14:47.025Z</time></trkpt><trkpt lat="34.7746117" lon="-6.3229583"><ele>35.0</ele><time>2026-04-27T14:14:48.025Z</time></trkpt><trkpt lat="34.7746983" lon="-6.32275"><ele>35.0</ele><time>2026-04-27T14:14:49.025Z</time></trkpt><trkpt lat="34.77478" lon="-6.322535"><ele>35.0</ele><time>2026-04-27T14:14:50.025Z</time></trkpt><trkpt lat="34.7748567" lon="-6.3223267"><ele>35.0</ele><time>2026-04-27T14:14:51.025Z</time></trkpt><trkpt lat="34.7749333" lon="-6.3221217"><ele>35.0</ele><time>2026-04-27T14:14:52.025Z</time></trkpt><trkpt lat="34.7750067" lon="-6.3219283"><ele>35.0</ele><time>2026-04-27T14:14:53.025Z</time></trkpt><trkpt lat="34.7750733" lon="-6.3217567"><ele>35.0</ele><time>2026-04-27T14:14:54.025Z</time></trkpt><trkpt lat="34.7751367" lon="-6.3215933"><ele>35.0</ele><time>2026-04-27T14:14:55.025Z</time></trkpt><trkpt lat="34.7751917" lon="-6.3214333"><ele>35.0</ele><time>2026-04-27T14:14:56.025Z</time></trkpt><trkpt lat="34.7752417" lon="-6.3212767"><ele>34.5</ele><time>2026-04-27T14:14:57.025Z</time></trkpt><trkpt lat="34.7753033" lon="-6.321125"><ele>34.0</ele><time>2026-04-27T14:14:58.025Z</time></trkpt><trkpt lat="34.7753633" lon="-6.320965"><ele>33.5</ele><time>2026-04-27T14:14:59.025Z</time></trkpt><trkpt lat="34.7754317" lon="-6.3208033"><ele>33.0</ele><time>2026-04-27T14:15:00.025Z</time></trkpt><trkpt lat="34.7755133" lon="-6.3206333"><ele>30.666666666666664</ele><time>2026-04-27T14:15:01.025Z</time></trkpt><trkpt lat="34.775605" lon="-6.3204583"><ele>28.333333333333332</ele><time>2026-04-27T14:15:02.025Z</time></trkpt><trkpt lat="34.7757117" lon="-6.320295"><ele>26.0</ele><time>2026-04-27T14:15:03.025Z</time></trkpt><trkpt lat="34.77583" lon="-6.3201367"><ele>26.0</ele><time>2026-04-27T14:15:04.025Z</time></trkpt><trkpt lat="34.7759483" lon="-6.3199967"><ele>26.0</ele><time>2026-04-27T14:15:05.025Z</time></trkpt><trkpt lat="34.7760633" lon="-6.3198717"><ele>26.0</ele><time>2026-04-27T14:15:06.024Z</time></trkpt><trkpt lat="34.7761767" lon="-6.3197533"><ele>26.0</ele><time>2026-04-27T14:15:07.025Z</time></trkpt><trkpt lat="34.7762983" lon="-6.3196517"><ele>26.0</ele><time>2026-04-27T14:15:08.025Z</time></trkpt><trkpt lat="34.7764233" lon="-6.3195533"><ele>26.0</ele><time>2026-04-27T14:15:09.024Z</time></trkpt><trkpt lat="34.7765483" lon="-6.3194617"><ele>26.0</ele><time>2026-04-27T14:15:10.025Z</time></trkpt><trkpt lat="34.7766833" lon="-6.3193767"><ele>26.0</ele><time>2026-04-27T14:15:11.025Z</time></trkpt><trkpt lat="34.7768067" lon="-6.3192983"><ele>26.0</ele><time>2026-04-27T14:15:12.024Z</time></trkpt><trkpt lat="34.7769267" lon="-6.3192267"><ele>26.0</ele><time>2026-04-27T14:15:13.024Z</time></trkpt><trkpt lat="34.77704" lon="-6.3191567"><ele>26.0</ele><time>2026-04-27T14:15:14.025Z</time></trkpt><trkpt lat="34.7771583" lon="-6.3190833"><ele>27.333333333333332</ele><time>2026-04-27T14:15:15.025Z</time></trkpt><trkpt lat="34.7772883" lon="-6.3190083"><ele>28.666666666666664</ele><time>2026-04-27T14:15:16.025Z</time></trkpt><trkpt lat="34.7774283" lon="-6.3189267"><ele>30.0</ele><time>2026-04-27T14:15:17.025Z</time></trkpt><trkpt lat="34.7775717" lon="-6.318845"><ele>30.0</ele><time>2026-04-27T14:15:18.025Z</time></trkpt><trkpt lat="34.77771" lon="-6.318755"><ele>30.0</ele><time>2026-04-27T14:15:19.025Z</time></trkpt><trkpt lat="34.77784" lon="-6.3186767"><ele>30.0</ele><time>2026-04-27T14:15:20.025Z</time></trkpt><trkpt lat="34.777965" lon="-6.3186017"><ele>30.0</ele><time>2026-04-27T14:15:21.025Z</time></trkpt><trkpt lat="34.7780817" lon="-6.3185367"><ele>30.0</ele><time>2026-04-27T14:15:22.025Z</time></trkpt><trkpt lat="34.778195" lon="-6.3184683"><ele>30.0</ele><time>2026-04-27T14:15:23.025Z</time></trkpt><trkpt lat="34.778305" lon="-6.3183933"><ele>30.0</ele><time>2026-04-27T14:15:24.025Z</time></trkpt><trkpt lat="34.778415" lon="-6.318325"><ele>30.0</ele><time>2026-04-27T14:15:25.025Z</time></trkpt><trkpt lat="34.778515" lon="-6.31826"><ele>28.75</ele><time>2026-04-27T14:15:26.024Z</time></trkpt><trkpt lat="34.7786233" lon="-6.3181933"><ele>27.5</ele><time>2026-04-27T14:15:27.025Z</time></trkpt><trkpt lat="34.7787433" lon="-6.3181217"><ele>26.25</ele><time>2026-04-27T14:15:28.025Z</time></trkpt><trkpt lat="34.7788717" lon="-6.31805"><ele>25.0</ele><time>2026-04-27T14:15:29.025Z</time></trkpt><trkpt lat="34.7790067" lon="-6.3179683"><ele>25.0</ele><time>2026-04-27T14:15:30.025Z</time></trkpt><trkpt lat="34.7791417" lon="-6.317885"><ele>25.0</ele><time>2026-04-27T14:15:31.025Z</time></trkpt><trkpt lat="34.7792767" lon="-6.31781"><ele>25.0</ele><time>2026-04-27T14:15:32.025Z</time></trkpt><trkpt lat="34.7794183" lon="-6.3177267"><ele>27.666666666666668</ele><time>2026-04-27T14:15:33.025Z</time></trkpt><trkpt lat="34.7795617" lon="-6.31764"><ele>30.333333333333336</ele><time>2026-04-27T14:15:34.025Z</time></trkpt><trkpt lat="34.7797067" lon="-6.3175517"><ele>33.0</ele><time>2026-04-27T14:15:35.025Z</time></trkpt><trkpt lat="34.7798433" lon="-6.31746"><ele>33.0</ele><time>2026-04-27T14:15:36.025Z</time></trkpt><trkpt lat="34.7799867" lon="-6.3173817"><ele>33.0</ele><time>2026-04-27T14:15:37.025Z</time></trkpt><trkpt lat="34.7801317" lon="-6.3173067"><ele>33.0</ele><time>2026-04-27T14:15:38.025Z</time></trkpt><trkpt lat="34.7802983" lon="-6.3172367"><ele>29.666666666666668</ele><time>2026-04-27T14:15:39.025Z</time></trkpt><trkpt lat="34.7804833" lon="-6.31717"><ele>26.333333333333336</ele><time>2026-04-27T14:15:40.025Z</time></trkpt><trkpt lat="34.7806767" lon="-6.3170933"><ele>23.0</ele><time>2026-04-27T14:15:41.025Z</time></trkpt><trkpt lat="34.7808733" lon="-6.3170167"><ele>23.333333333333336</ele><time>2026-04-27T14:15:42.025Z</time></trkpt><trkpt lat="34.7810633" lon="-6.3169333"><ele>23.666666666666668</ele><time>2026-04-27T14:15:43.025Z</time></trkpt><trkpt lat="34.7812433" lon="-6.3168517"><ele>24.0</ele><time>2026-04-27T14:15:44.025Z</time></trkpt><trkpt lat="34.7814117" lon="-6.3167817"><ele>24.0</ele><time>2026-04-27T14:15:45.025Z</time></trkpt><trkpt lat="34.7815817" lon="-6.3167233"><ele>24.0</ele><time>2026-04-27T14:15:46.025Z</time></trkpt><trkpt lat="34.78174" lon="-6.3166533"><ele>24.0</ele><time>2026-04-27T14:15:47.025Z</time></trkpt><trkpt lat="34.7819" lon="-6.3165933"><ele>22.333333333333332</ele><time>2026-04-27T14:15:48.025Z</time></trkpt><trkpt lat="34.7820583" lon="-6.316525"><ele>20.666666666666664</ele><time>2026-04-27T14:15:49.025Z</time></trkpt><trkpt lat="34.78222" lon="-6.3164567"><ele>19.0</ele><time>2026-04-27T14:15:50.025Z</time></trkpt><trkpt lat="34.7823917" lon="-6.3163967"><ele>17.666666666666664</ele><time>2026-04-27T14:15:51.025Z</time></trkpt><trkpt lat="34.7825767" lon="-6.31634"><ele>16.333333333333332</ele><time>2026-04-27T14:15:52.025Z</time></trkpt><trkpt lat="34.7827717" lon="-6.3162867"><ele>15.0</ele><time>2026-04-27T14:15:53.025Z</time></trkpt><trkpt lat="34.7829583" lon="-6.3162417"><ele>14.666666666666668</ele><time>2026-04-27T14:15:54.025Z</time></trkpt><trkpt lat="34.7831383" lon="-6.3162117"><ele>14.333333333333334</ele><time>2026-04-27T14:15:55.025Z</time></trkpt><trkpt lat="34.7833083" lon="-6.3161933"><ele>14.0</ele><time>2026-04-27T14:15:56.025Z</time></trkpt><trkpt lat="34.7834717" lon="-6.316185"><ele>14.0</ele><time>2026-04-27T14:15:57.023Z</time></trkpt><trkpt lat="34.7836217" lon="-6.3161767"><ele>14.0</ele><time>2026-04-27T14:15:58.024Z</time></trkpt><trkpt lat="34.783765" lon="-6.316175"><ele>14.0</ele><time>2026-04-27T14:15:59.024Z</time></trkpt><trkpt lat="34.7839067" lon="-6.3161667"><ele>14.0</ele><time>2026-04-27T14:16:00.024Z</time></trkpt><trkpt lat="34.7840417" lon="-6.3161617"><ele>14.0</ele><time>2026-04-27T14:16:01.024Z</time></trkpt><trkpt lat="34.7841517" lon="-6.3161533"><ele>13.999999999999998</ele><time>2026-04-27T14:16:02.024Z</time></trkpt><trkpt lat="34.78424" lon="-6.31615"><ele>13.999999999999998</ele><time>2026-04-27T14:16:03.024Z</time></trkpt><trkpt lat="34.78433" lon="-6.3161433"><ele>14.0</ele><time>2026-04-27T14:16:04.023Z</time></trkpt><trkpt lat="34.7844167" lon="-6.31614"><ele>14.0</ele><time>2026-04-27T14:16:05.024Z</time></trkpt><trkpt lat="34.784505" lon="-6.31614"><ele>14.000000000000002</ele><time>2026-04-27T14:16:06.024Z</time></trkpt><trkpt lat="34.7845867" lon="-6.31614"><ele>14.0</ele><time>2026-04-27T14:16:07.024Z</time></trkpt><trkpt lat="34.7846733" lon="-6.3161283"><ele>14.0</ele><time>2026-04-27T14:16:08.024Z</time></trkpt><trkpt lat="34.7847533" lon="-6.3161167"><ele>14.0</ele><time>2026-04-27T14:16:09.024Z</time></trkpt><trkpt lat="34.784835" lon="-6.316105"><ele>14.000000000000002</ele><time>2026-04-27T14:16:10.024Z</time></trkpt><trkpt lat="34.7849167" lon="-6.3161017"><ele>14.0</ele><time>2026-04-27T14:16:11.024Z</time></trkpt><trkpt lat="34.784995" lon="-6.3161017"><ele>14.0</ele><time>2026-04-27T14:16:12.024Z</time></trkpt><trkpt lat="34.7850683" lon="-6.3161017"><ele>14.0</ele><time>2026-04-27T14:16:13.023Z</time></trkpt><trkpt lat="34.7851383" lon="-6.3161"><ele>14.0</ele><time>2026-04-27T14:16:14.024Z</time></trkpt><trkpt lat="34.7852033" lon="-6.3160917"><ele>14.0</ele><time>2026-04-27T14:16:15.024Z</time></trkpt><trkpt lat="34.785275" lon="-6.3160833"><ele>14.0</ele><time>2026-04-27T14:16:16.024Z</time></trkpt><trkpt lat="34.785345" lon="-6.3160767"><ele>14.0</ele><time>2026-04-27T14:16:17.024Z</time></trkpt><trkpt lat="34.7854233" lon="-6.3160733"><ele>14.0</ele><time>2026-04-27T14:16:18.024Z</time></trkpt><trkpt lat="34.785495" lon="-6.3160683"><ele>14.666666666666668</ele><time>2026-04-27T14:16:19.024Z</time></trkpt><trkpt lat="34.7855717" lon="-6.3160633"><ele>15.333333333333334</ele><time>2026-04-27T14:16:20.024Z</time></trkpt><trkpt lat="34.7856517" lon="-6.3160567"><ele>16.0</ele><time>2026-04-27T14:16:21.023Z</time></trkpt><trkpt lat="34.7857217" lon="-6.3160567"><ele>16.666666666666668</ele><time>2026-04-27T14:16:22.024Z</time></trkpt><trkpt lat="34.7857933" lon="-6.3160617"><ele>17.333333333333332</ele><time>2026-04-27T14:16:23.024Z</time></trkpt><trkpt lat="34.7858683" lon="-6.3160733"><ele>18.0</ele><time>2026-04-27T14:16:24.024Z</time></trkpt><trkpt lat="34.78595" lon="-6.3160717"><ele>18.5</ele><time>2026-04-27T14:16:25.024Z</time></trkpt><trkpt lat="34.7860333" lon="-6.31606"><ele>19.0</ele><time>2026-04-27T14:16:26.024Z</time></trkpt><trkpt lat="34.7861133" lon="-6.3160483"><ele>19.5</ele><time>2026-04-27T14:16:27.023Z</time></trkpt><trkpt lat="34.7862017" lon="-6.3160417"><ele>20.0</ele><time>2026-04-27T14:16:28.023Z</time></trkpt><trkpt lat="34.7862933" lon="-6.31603"><ele>20.5</ele><time>2026-04-27T14:16:29.024Z</time></trkpt><trkpt lat="34.7863783" lon="-6.316025"><ele>21.0</ele><time>2026-04-27T14:16:30.024Z</time></trkpt><trkpt lat="34.7864567" lon="-6.3160217"><ele>21.0</ele><time>2026-04-27T14:16:31.024Z</time></trkpt><trkpt lat="34.7865383" lon="-6.3160183"><ele>21.0</ele><time>2026-04-27T14:16:32.024Z</time></trkpt><trkpt lat="34.7866233" lon="-6.31602"><ele>21.0</ele><time>2026-04-27T14:16:33.023Z</time></trkpt><trkpt lat="34.7867117" lon="-6.3160167"><ele>21.0</ele><time>2026-04-27T14:16:34.024Z</time></trkpt><trkpt lat="34.7868033" lon="-6.3160133"><ele>21.0</ele><time>2026-04-27T14:16:35.024Z</time></trkpt><trkpt lat="34.786895" lon="-6.3160117"><ele>21.0</ele><time>2026-04-27T14:16:36.024Z</time></trkpt><trkpt lat="34.7869933" lon="-6.31601"><ele>21.8</ele><time>2026-04-27T14:16:37.024Z</time></trkpt><trkpt lat="34.78709" lon="-6.316005"><ele>22.6</ele><time>2026-04-27T14:16:38.024Z</time></trkpt><trkpt lat="34.78719" lon="-6.31599"><ele>23.4</ele><time>2026-04-27T14:16:39.024Z</time></trkpt><trkpt lat="34.7872867" lon="-6.3159767"><ele>24.2</ele><time>2026-04-27T14:16:40.024Z</time></trkpt><trkpt lat="34.7873767" lon="-6.3159717"><ele>25.0</ele><time>2026-04-27T14:16:41.024Z</time></trkpt><trkpt lat="34.78746" lon="-6.3159617"><ele>25.000000000000004</ele><time>2026-04-27T14:16:42.024Z</time></trkpt><trkpt lat="34.7875383" lon="-6.315945"><ele>25.0</ele><time>2026-04-27T14:16:43.024Z</time></trkpt><trkpt lat="34.78761" lon="-6.3159183"><ele>25.0</ele><time>2026-04-27T14:16:44.024Z</time></trkpt><trkpt lat="34.7876817" lon="-6.3158867"><ele>25.0</ele><time>2026-04-27T14:16:45.024Z</time></trkpt><trkpt lat="34.787745" lon="-6.3158433"><ele>25.000000000000004</ele><time>2026-04-27T14:16:46.024Z</time></trkpt><trkpt lat="34.7878067" lon="-6.3157967"><ele>25.0</ele><time>2026-04-27T14:16:47.024Z</time></trkpt><trkpt lat="34.7878717" lon="-6.3157367"><ele>24.000000000000004</ele><time>2026-04-27T14:16:48.023Z</time></trkpt><trkpt lat="34.7879317" lon="-6.3156667"><ele>23.0</ele><time>2026-04-27T14:16:49.024Z</time></trkpt><trkpt lat="34.787985" lon="-6.3155917"><ele>22.0</ele><time>2026-04-27T14:16:50.024Z</time></trkpt><trkpt lat="34.78803" lon="-6.3155083"><ele>21.0</ele><time>2026-04-27T14:16:51.024Z</time></trkpt><trkpt lat="34.7880717" lon="-6.315415"><ele>20.0</ele><time>2026-04-27T14:16:52.023Z</time></trkpt><trkpt lat="34.7881017" lon="-6.3152967"><ele>19.0</ele><time>2026-04-27T14:16:53.024Z</time></trkpt><trkpt lat="34.7881217" lon="-6.3151833"><ele>19.0</ele><time>2026-04-27T14:16:54.024Z</time></trkpt><trkpt lat="34.7881283" lon="-6.3150767"><ele>19.0</ele><time>2026-04-27T14:16:55.024Z</time></trkpt><trkpt lat="34.78814" lon="-6.3149983"><ele>19.0</ele><time>2026-04-27T14:16:56.024Z</time></trkpt><trkpt lat="34.788165" lon="-6.3148567"><ele>19.0</ele><time>2026-04-27T14:16:58.024Z</time></trkpt><trkpt lat="34.78816" lon="-6.314705"><ele>19.0</ele><time>2026-04-27T14:17:00.024Z</time></trkpt><trkpt lat="34.7881583" lon="-6.3146083"><ele>17.2</ele><time>2026-04-27T14:17:01.024Z</time></trkpt><trkpt lat="34.788145" lon="-6.3145"><ele>15.399999999999999</ele><time>2026-04-27T14:17:02.024Z</time></trkpt><trkpt lat="34.7881183" lon="-6.31439"><ele>13.6</ele><time>2026-04-27T14:17:03.024Z</time></trkpt><trkpt lat="34.788095" lon="-6.314265"><ele>11.8</ele><time>2026-04-27T14:17:04.024Z</time></trkpt><trkpt lat="34.7880733" lon="-6.3141367"><ele>10.0</ele><time>2026-04-27T14:17:05.023Z</time></trkpt><trkpt lat="34.788055" lon="-6.3140133"><ele>11.6</ele><time>2026-04-27T14:17:06.023Z</time></trkpt><trkpt lat="34.7880283" lon="-6.3138917"><ele>13.2</ele><time>2026-04-27T14:17:07.024Z</time></trkpt><trkpt lat="34.78801" lon="-6.31377"><ele>14.8</ele><time>2026-04-27T14:17:08.024Z</time></trkpt><trkpt lat="34.787995" lon="-6.3136433"><ele>16.4</ele><time>2026-04-27T14:17:09.024Z</time></trkpt><trkpt lat="34.7879817" lon="-6.313505"><ele>18.0</ele><time>2026-04-27T14:17:10.024Z</time></trkpt><trkpt lat="34.78797" lon="-6.3133617"><ele>18.0</ele><time>2026-04-27T14:17:11.024Z</time></trkpt><trkpt lat="34.78795" lon="-6.3132167"><ele>18.0</ele><time>2026-04-27T14:17:12.024Z</time></trkpt><trkpt lat="34.7879333" lon="-6.3130783"><ele>18.0</ele><time>2026-04-27T14:17:13.024Z</time></trkpt><trkpt lat="34.7879233" lon="-6.312945"><ele>18.0</ele><time>2026-04-27T14:17:14.023Z</time></trkpt><trkpt lat="34.7879117" lon="-6.31282"><ele>18.0</ele><time>2026-04-27T14:17:15.024Z</time></trkpt><trkpt lat="34.7878933" lon="-6.31269"><ele>18.75</ele><time>2026-04-27T14:17:16.024Z</time></trkpt><trkpt lat="34.7878767" lon="-6.3125567"><ele>19.5</ele><time>2026-04-27T14:17:17.024Z</time></trkpt><trkpt lat="34.7878567" lon="-6.3124267"><ele>20.25</ele><time>2026-04-27T14:17:18.024Z</time></trkpt><trkpt lat="34.787835" lon="-6.3122933"><ele>21.0</ele><time>2026-04-27T14:17:19.024Z</time></trkpt><trkpt lat="34.7878117" lon="-6.31215"><ele>18.25</ele><time>2026-04-27T14:17:20.024Z</time></trkpt><trkpt lat="34.7877867" lon="-6.312"><ele>15.5</ele><time>2026-04-27T14:17:21.024Z</time></trkpt><trkpt lat="34.787775" lon="-6.311845"><ele>12.75</ele><time>2026-04-27T14:17:22.024Z</time></trkpt><trkpt lat="34.7877517" lon="-6.3116833"><ele>10.0</ele><time>2026-04-27T14:17:23.024Z</time></trkpt><trkpt lat="34.7877317" lon="-6.31153"><ele>9.5</ele><time>2026-04-27T14:17:24.024Z</time></trkpt><trkpt lat="34.7877067" lon="-6.311375"><ele>9.0</ele><time>2026-04-27T14:17:25.023Z</time></trkpt><trkpt lat="34.787685" lon="-6.3112267"><ele>8.5</ele><time>2026-04-27T14:17:26.024Z</time></trkpt><trkpt lat="34.7876667" lon="-6.3110867"><ele>8.0</ele><time>2026-04-27T14:17:27.024Z</time></trkpt><trkpt lat="34.78765" lon="-6.3109517"><ele>8.0</ele><time>2026-04-27T14:17:28.024Z</time></trkpt><trkpt lat="34.7876383" lon="-6.310805"><ele>8.0</ele><time>2026-04-27T14:17:29.024Z</time></trkpt><trkpt lat="34.787615" lon="-6.3106667"><ele>8.0</ele><time>2026-04-27T14:17:30.023Z</time></trkpt><trkpt lat="34.7875917" lon="-6.3105333"><ele>8.0</ele><time>2026-04-27T14:17:31.024Z</time></trkpt><trkpt lat="34.7875717" lon="-6.3103983"><ele>8.0</ele><time>2026-04-27T14:17:32.024Z</time></trkpt><trkpt lat="34.7875583" lon="-6.3102533"><ele>8.0</ele><time>2026-04-27T14:17:33.024Z</time></trkpt><trkpt lat="34.7875383" lon="-6.310095"><ele>8.0</ele><time>2026-04-27T14:17:34.024Z</time></trkpt><trkpt lat="34.787515" lon="-6.3099233"><ele>8.0</ele><time>2026-04-27T14:17:35.024Z</time></trkpt><trkpt lat="34.787495" lon="-6.30975"><ele>8.75</ele><time>2026-04-27T14:17:36.024Z</time></trkpt><trkpt lat="34.7874767" lon="-6.3095783"><ele>9.5</ele><time>2026-04-27T14:17:37.024Z</time></trkpt><trkpt lat="34.7874633" lon="-6.3094183"><ele>10.25</ele><time>2026-04-27T14:17:38.024Z</time></trkpt><trkpt lat="34.7874533" lon="-6.3092583"><ele>11.0</ele><time>2026-04-27T14:17:39.024Z</time></trkpt><trkpt lat="34.7874517" lon="-6.3090967"><ele>11.0</ele><time>2026-04-27T14:17:40.024Z</time></trkpt><trkpt lat="34.78746" lon="-6.3089367"><ele>11.0</ele><time>2026-04-27T14:17:41.024Z</time></trkpt><trkpt lat="34.7874683" lon="-6.3087917"><ele>11.0</ele><time>2026-04-27T14:17:42.024Z</time></trkpt><trkpt lat="34.7874783" lon="-6.3086633"><ele>11.0</ele><time>2026-04-27T14:17:43.024Z</time></trkpt><trkpt lat="34.7874933" lon="-6.3085567"><ele>11.0</ele><time>2026-04-27T14:17:44.023Z</time></trkpt><trkpt lat="34.787515" lon="-6.3084583"><ele>11.666666666666666</ele><time>2026-04-27T14:17:45.024Z</time></trkpt><trkpt lat="34.7875383" lon="-6.308365"><ele>12.333333333333332</ele><time>2026-04-27T14:17:46.024Z</time></trkpt><trkpt lat="34.7875567" lon="-6.3082667"><ele>13.0</ele><time>2026-04-27T14:17:47.024Z</time></trkpt><trkpt lat="34.7875767" lon="-6.3081633"><ele>13.666666666666666</ele><time>2026-04-27T14:17:48.024Z</time></trkpt><trkpt lat="34.7876" lon="-6.3080517"><ele>14.333333333333334</ele><time>2026-04-27T14:17:49.024Z</time></trkpt><trkpt lat="34.7876333" lon="-6.3079483"><ele>15.0</ele><time>2026-04-27T14:17:50.024Z</time></trkpt><trkpt lat="34.7876733" lon="-6.3078417"><ele>14.25</ele><time>2026-04-27T14:17:51.024Z</time></trkpt><trkpt lat="34.787715" lon="-6.3077333"><ele>13.5</ele><time>2026-04-27T14:17:52.024Z</time></trkpt><trkpt lat="34.7877717" lon="-6.3076133"><ele>12.75</ele><time>2026-04-27T14:17:53.024Z</time></trkpt><trkpt lat="34.787835" lon="-6.307485"><ele>12.0</ele><time>2026-04-27T14:17:54.024Z</time></trkpt><trkpt lat="34.7878983" lon="-6.30736"><ele>13.399999999999999</ele><time>2026-04-27T14:17:55.024Z</time></trkpt><trkpt lat="34.7879667" lon="-6.3072433"><ele>14.799999999999999</ele><time>2026-04-27T14:17:56.023Z</time></trkpt><trkpt lat="34.7880333" lon="-6.3071383"><ele>16.2</ele><time>2026-04-27T14:17:57.024Z</time></trkpt><trkpt lat="34.7881017" lon="-6.3070417"><ele>17.599999999999998</ele><time>2026-04-27T14:17:58.024Z</time></trkpt><trkpt lat="34.78817" lon="-6.3069567"><ele>19.0</ele><time>2026-04-27T14:17:59.024Z</time></trkpt><trkpt lat="34.78824" lon="-6.3068783"><ele>19.0</ele><time>2026-04-27T14:18:00.024Z</time></trkpt><trkpt lat="34.7883067" lon="-6.3068083"><ele>19.0</ele><time>2026-04-27T14:18:01.024Z</time></trkpt><trkpt lat="34.7883667" lon="-6.3067417"><ele>19.0</ele><time>2026-04-27T14:18:02.024Z</time></trkpt><trkpt lat="34.7884183" lon="-6.3066817"><ele>19.0</ele><time>2026-04-27T14:18:03.024Z</time></trkpt><trkpt lat="34.788465" lon="-6.3066167"><ele>19.0</ele><time>2026-04-27T14:18:04.024Z</time></trkpt><trkpt lat="34.7885583" lon="-6.3065133"><ele>19.0</ele><time>2026-04-27T14:18:06.024Z</time></trkpt><trkpt lat="34.78864" lon="-6.3064217"><ele>18.333333333333332</ele><time>2026-04-27T14:18:08.024Z</time></trkpt><trkpt lat="34.78869" lon="-6.3063667"><ele>17.666666666666664</ele><time>2026-04-27T14:18:09.024Z</time></trkpt><trkpt lat="34.78874" lon="-6.3062983"><ele>17.0</ele><time>2026-04-27T14:18:10.024Z</time></trkpt><trkpt lat="34.788795" lon="-6.3062183"><ele>16.333333333333332</ele><time>2026-04-27T14:18:11.024Z</time></trkpt><trkpt lat="34.7888617" lon="-6.306125"><ele>15.666666666666666</ele><time>2026-04-27T14:18:12.024Z</time></trkpt><trkpt lat="34.7889433" lon="-6.306025"><ele>15.0</ele><time>2026-04-27T14:18:13.024Z</time></trkpt><trkpt lat="34.78903" lon="-6.30592"><ele>15.0</ele><time>2026-04-27T14:18:14.024Z</time></trkpt><trkpt lat="34.789125" lon="-6.3058133"><ele>15.0</ele><time>2026-04-27T14:18:15.024Z</time></trkpt><trkpt lat="34.7892183" lon="-6.3057083"><ele>15.0</ele><time>2026-04-27T14:18:16.024Z</time></trkpt><trkpt lat="34.789305" lon="-6.3056017"><ele>15.0</ele><time>2026-04-27T14:18:17.024Z</time></trkpt><trkpt lat="34.7894017" lon="-6.305495"><ele>15.75</ele><time>2026-04-27T14:18:18.024Z</time></trkpt><trkpt lat="34.7894967" lon="-6.3053833"><ele>16.5</ele><time>2026-04-27T14:18:19.024Z</time></trkpt><trkpt lat="34.789595" lon="-6.3052783"><ele>17.25</ele><time>2026-04-27T14:18:20.024Z</time></trkpt><trkpt lat="34.789695" lon="-6.305165"><ele>18.0</ele><time>2026-04-27T14:18:21.024Z</time></trkpt><trkpt lat="34.7898033" lon="-6.30505"><ele>18.0</ele><time>2026-04-27T14:18:22.024Z</time></trkpt><trkpt lat="34.7899133" lon="-6.3049283"><ele>18.0</ele><time>2026-04-27T14:18:23.024Z</time></trkpt><trkpt lat="34.7900217" lon="-6.3048083"><ele>18.0</ele><time>2026-04-27T14:18:24.024Z</time></trkpt><trkpt lat="34.7901217" lon="-6.3046933"><ele>18.0</ele><time>2026-04-27T14:18:25.024Z</time></trkpt><trkpt lat="34.7902117" lon="-6.3045783"><ele>17.6</ele><time>2026-04-27T14:18:26.023Z</time></trkpt><trkpt lat="34.7902967" lon="-6.3044683"><ele>17.200000000000003</ele><time>2026-04-27T14:18:27.023Z</time></trkpt><trkpt lat="34.79037" lon="-6.3043667"><ele>16.8</ele><time>2026-04-27T14:18:28.024Z</time></trkpt><trkpt lat="34.7904383" lon="-6.30428"><ele>16.400000000000002</ele><time>2026-04-27T14:18:29.024Z</time></trkpt><trkpt lat="34.7904967" lon="-6.304215"><ele>16.0</ele><time>2026-04-27T14:18:30.024Z</time></trkpt><trkpt lat="34.79055" lon="-6.30416"><ele>16.0</ele><time>2026-04-27T14:18:31.024Z</time></trkpt><trkpt lat="34.790615" lon="-6.3040667"><ele>16.0</ele><time>2026-04-27T14:18:33.024Z</time></trkpt><trkpt lat="34.7906833" lon="-6.303975"><ele>16.0</ele><time>2026-04-27T14:18:35.024Z</time></trkpt><trkpt lat="34.790735" lon="-6.3039167"><ele>16.0</ele><time>2026-04-27T14:18:36.024Z</time></trkpt><trkpt lat="34.7908067" lon="-6.3038467"><ele>16.0</ele><time>2026-04-27T14:18:37.024Z</time></trkpt><trkpt lat="34.7908883" lon="-6.303755"><ele>16.25</ele><time>2026-04-27T14:18:38.024Z</time></trkpt><trkpt lat="34.7909817" lon="-6.30365"><ele>16.5</ele><time>2026-04-27T14:18:39.024Z</time></trkpt><trkpt lat="34.7910833" lon="-6.3035333"><ele>16.75</ele><time>2026-04-27T14:18:40.024Z</time></trkpt><trkpt lat="34.791195" lon="-6.3034133"><ele>17.0</ele><time>2026-04-27T14:18:41.024Z</time></trkpt><trkpt lat="34.7913117" lon="-6.3032767"><ele>17.0</ele><time>2026-04-27T14:18:42.024Z</time></trkpt><trkpt lat="34.7914333" lon="-6.3031367"><ele>17.0</ele><time>2026-04-27T14:18:43.024Z</time></trkpt><trkpt lat="34.7915467" lon="-6.303"><ele>17.0</ele><time>2026-04-27T14:18:44.024Z</time></trkpt><trkpt lat="34.7916517" lon="-6.3028667"><ele>17.5</ele><time>2026-04-27T14:18:45.024Z</time></trkpt><trkpt lat="34.7917583" lon="-6.3027467"><ele>18.0</ele><time>2026-04-27T14:18:46.023Z</time></trkpt><trkpt lat="34.7918667" lon="-6.3026233"><ele>18.5</ele><time>2026-04-27T14:18:47.024Z</time></trkpt><trkpt lat="34.791975" lon="-6.30249"><ele>19.0</ele><time>2026-04-27T14:18:48.024Z</time></trkpt><trkpt lat="34.7920817" lon="-6.3023533"><ele>19.666666666666664</ele><time>2026-04-27T14:18:49.024Z</time></trkpt><trkpt lat="34.7921917" lon="-6.30222"><ele>20.333333333333332</ele><time>2026-04-27T14:18:50.024Z</time></trkpt><trkpt lat="34.7923067" lon="-6.3020917"><ele>21.0</ele><time>2026-04-27T14:18:51.023Z</time></trkpt><trkpt lat="34.7924167" lon="-6.3019533"><ele>21.0</ele><time>2026-04-27T14:18:52.024Z</time></trkpt><trkpt lat="34.7925283" lon="-6.3018067"><ele>21.0</ele><time>2026-04-27T14:18:53.024Z</time></trkpt><trkpt lat="34.792635" lon="-6.30166"><ele>21.0</ele><time>2026-04-27T14:18:54.024Z</time></trkpt><trkpt lat="34.7927417" lon="-6.301515"><ele>21.0</ele><time>2026-04-27T14:18:55.024Z</time></trkpt><trkpt lat="34.79284" lon="-6.3013717"><ele>21.0</ele><time>2026-04-27T14:18:56.024Z</time></trkpt><trkpt lat="34.79293" lon="-6.301215"><ele>21.0</ele><time>2026-04-27T14:18:57.023Z</time></trkpt><trkpt lat="34.7930117" lon="-6.301055"><ele>21.0</ele><time>2026-04-27T14:18:58.024Z</time></trkpt><trkpt lat="34.7930933" lon="-6.3008933"><ele>21.0</ele><time>2026-04-27T14:18:59.023Z</time></trkpt><trkpt lat="34.7931733" lon="-6.300725"><ele>21.0</ele><time>2026-04-27T14:19:00.024Z</time></trkpt><trkpt lat="34.7932533" lon="-6.3005483"><ele>22.333333333333336</ele><time>2026-04-27T14:19:01.024Z</time></trkpt><trkpt lat="34.79333" lon="-6.3003617"><ele>23.666666666666668</ele><time>2026-04-27T14:19:02.023Z</time></trkpt><trkpt lat="34.793405" lon="-6.3001567"><ele>25.0</ele><time>2026-04-27T14:19:03.024Z</time></trkpt><trkpt lat="34.79348" lon="-6.2999417"><ele>25.333333333333336</ele><time>2026-04-27T14:19:04.024Z</time></trkpt><trkpt lat="34.7935517" lon="-6.2997083"><ele>25.666666666666664</ele><time>2026-04-27T14:19:05.024Z</time></trkpt><trkpt lat="34.7936167" lon="-6.2994633"><ele>26.0</ele><time>2026-04-27T14:19:06.024Z</time></trkpt><trkpt lat="34.79368" lon="-6.2992083"><ele>26.0</ele><time>2026-04-27T14:19:07.024Z</time></trkpt><trkpt lat="34.79375" lon="-6.2989467"><ele>26.0</ele><time>2026-04-27T14:19:08.024Z</time></trkpt><trkpt lat="34.7938233" lon="-6.298675"><ele>26.0</ele><time>2026-04-27T14:19:09.024Z</time></trkpt><trkpt lat="34.7939017" lon="-6.298405"><ele>26.0</ele><time>2026-04-27T14:19:10.024Z</time></trkpt><trkpt lat="34.7939783" lon="-6.2981483"><ele>26.0</ele><time>2026-04-27T14:19:11.024Z</time></trkpt><trkpt lat="34.7940417" lon="-6.2979017"><ele>26.0</ele><time>2026-04-27T14:19:12.024Z</time></trkpt><trkpt lat="34.7941033" lon="-6.297665"><ele>26.0</ele><time>2026-04-27T14:19:13.023Z</time></trkpt><trkpt lat="34.794175" lon="-6.2974333"><ele>25.666666666666664</ele><time>2026-04-27T14:19:14.024Z</time></trkpt><trkpt lat="34.7942433" lon="-6.2971967"><ele>25.333333333333336</ele><time>2026-04-27T14:19:15.024Z</time></trkpt><trkpt lat="34.7943133" lon="-6.2969583"><ele>25.0</ele><time>2026-04-27T14:19:16.024Z</time></trkpt><trkpt lat="34.79438" lon="-6.2967167"><ele>25.0</ele><time>2026-04-27T14:19:17.024Z</time></trkpt><trkpt lat="34.7944417" lon="-6.2964717"><ele>25.0</ele><time>2026-04-27T14:19:18.024Z</time></trkpt><trkpt lat="34.79452" lon="-6.2962267"><ele>25.0</ele><time>2026-04-27T14:19:19.023Z</time></trkpt><trkpt lat="34.7945933" lon="-6.2959783"><ele>24.333333333333336</ele><time>2026-04-27T14:19:20.024Z</time></trkpt><trkpt lat="34.79466" lon="-6.2957267"><ele>23.666666666666668</ele><time>2026-04-27T14:19:21.024Z</time></trkpt><trkpt lat="34.79472" lon="-6.2954717"><ele>23.0</ele><time>2026-04-27T14:19:22.024Z</time></trkpt><trkpt lat="34.7947867" lon="-6.2952183"><ele>23.0</ele><time>2026-04-27T14:19:23.024Z</time></trkpt><trkpt lat="34.7948583" lon="-6.2949667"><ele>23.0</ele><time>2026-04-27T14:19:24.024Z</time></trkpt><trkpt lat="34.794935" lon="-6.2947067"><ele>23.0</ele><time>2026-04-27T14:19:25.024Z</time></trkpt><trkpt lat="34.7950083" lon="-6.2944433"><ele>23.0</ele><time>2026-04-27T14:19:26.023Z</time></trkpt><trkpt lat="34.79508" lon="-6.2941867"><ele>23.0</ele><time>2026-04-27T14:19:27.024Z</time></trkpt><trkpt lat="34.79515" lon="-6.2939267"><ele>23.0</ele><time>2026-04-27T14:19:28.024Z</time></trkpt><trkpt lat="34.7952133" lon="-6.29368"><ele>22.666666666666668</ele><time>2026-04-27T14:19:29.024Z</time></trkpt><trkpt lat="34.7952767" lon="-6.2934417"><ele>22.333333333333332</ele><time>2026-04-27T14:19:30.024Z</time></trkpt><trkpt lat="34.7953383" lon="-6.293205"><ele>22.0</ele><time>2026-04-27T14:19:31.024Z</time></trkpt><trkpt lat="34.7954017" lon="-6.2929617"><ele>21.666666666666664</ele><time>2026-04-27T14:19:32.024Z</time></trkpt><trkpt lat="34.7954683" lon="-6.2927217"><ele>21.333333333333332</ele><time>2026-04-27T14:19:33.024Z</time></trkpt><trkpt lat="34.7955333" lon="-6.292475"><ele>21.0</ele><time>2026-04-27T14:19:34.024Z</time></trkpt><trkpt lat="34.7956017" lon="-6.2922233"><ele>21.666666666666668</ele><time>2026-04-27T14:19:35.024Z</time></trkpt><trkpt lat="34.79567" lon="-6.2919683"><ele>22.333333333333336</ele><time>2026-04-27T14:19:36.024Z</time></trkpt><trkpt lat="34.79575" lon="-6.2917117"><ele>23.0</ele><time>2026-04-27T14:19:37.024Z</time></trkpt><trkpt lat="34.7958183" lon="-6.2914533"><ele>23.0</ele><time>2026-04-27T14:19:38.023Z</time></trkpt><trkpt lat="34.79589" lon="-6.2911933"><ele>23.0</ele><time>2026-04-27T14:19:39.024Z</time></trkpt><trkpt lat="34.795965" lon="-6.290925"><ele>21.666666666666668</ele><time>2026-04-27T14:19:40.024Z</time></trkpt><trkpt lat="34.7960383" lon="-6.29067"><ele>20.333333333333332</ele><time>2026-04-27T14:19:41.024Z</time></trkpt><trkpt lat="34.7961017" lon="-6.2904217"><ele>19.0</ele><time>2026-04-27T14:19:42.024Z</time></trkpt><trkpt lat="34.7961667" lon="-6.2901767"><ele>18.666666666666664</ele><time>2026-04-27T14:19:43.024Z</time></trkpt><trkpt lat="34.7962317" lon="-6.2899333"><ele>18.333333333333332</ele><time>2026-04-27T14:19:44.024Z</time></trkpt><trkpt lat="34.796295" lon="-6.2896917"><ele>18.0</ele><time>2026-04-27T14:19:45.023Z</time></trkpt><trkpt lat="34.7963567" lon="-6.289455"><ele>18.666666666666668</ele><time>2026-04-27T14:19:46.023Z</time></trkpt><trkpt lat="34.79641" lon="-6.289245"><ele>19.333333333333336</ele><time>2026-04-27T14:19:47.024Z</time></trkpt><trkpt lat="34.7964617" lon="-6.2890483"><ele>20.0</ele><time>2026-04-27T14:19:48.024Z</time></trkpt><trkpt lat="34.7965183" lon="-6.28885"><ele>20.333333333333336</ele><time>2026-04-27T14:19:49.024Z</time></trkpt><trkpt lat="34.7965717" lon="-6.2886683"><ele>20.666666666666668</ele><time>2026-04-27T14:19:50.024Z</time></trkpt><trkpt lat="34.7966233" lon="-6.2884933"><ele>21.0</ele><time>2026-04-27T14:19:51.024Z</time></trkpt><trkpt lat="34.7966717" lon="-6.2883233"><ele>21.0</ele><time>2026-04-27T14:19:52.024Z</time></trkpt><trkpt lat="34.7967183" lon="-6.28816"><ele>21.0</ele><time>2026-04-27T14:19:53.024Z</time></trkpt><trkpt lat="34.7967617" lon="-6.288005"><ele>21.0</ele><time>2026-04-27T14:19:54.024Z</time></trkpt><trkpt lat="34.7967983" lon="-6.2878767"><ele>21.0</ele><time>2026-04-27T14:19:55.023Z</time></trkpt><trkpt lat="34.7968317" lon="-6.287755"><ele>20.2</ele><time>2026-04-27T14:19:56.024Z</time></trkpt><trkpt lat="34.7968633" lon="-6.2876383"><ele>19.400000000000002</ele><time>2026-04-27T14:19:57.024Z</time></trkpt><trkpt lat="34.7968883" lon="-6.2875217"><ele>18.6</ele><time>2026-04-27T14:19:58.024Z</time></trkpt><trkpt lat="34.7969217" lon="-6.2873983"><ele>17.8</ele><time>2026-04-27T14:19:59.024Z</time></trkpt><trkpt lat="34.7969517" lon="-6.2872717"><ele>17.0</ele><time>2026-04-27T14:20:00.024Z</time></trkpt><trkpt lat="34.7969867" lon="-6.2871417"><ele>17.0</ele><time>2026-04-27T14:20:01.024Z</time></trkpt><trkpt lat="34.7970133" lon="-6.2870017"><ele>17.0</ele><time>2026-04-27T14:20:02.023Z</time></trkpt><trkpt lat="34.7970533" lon="-6.286875"><ele>17.0</ele><time>2026-04-27T14:20:03.024Z</time></trkpt><trkpt lat="34.7970967" lon="-6.28674"><ele>17.0</ele><time>2026-04-27T14:20:04.024Z</time></trkpt><trkpt lat="34.7971483" lon="-6.286585"><ele>17.25</ele><time>2026-04-27T14:20:05.023Z</time></trkpt><trkpt lat="34.7972033" lon="-6.2864267"><ele>17.5</ele><time>2026-04-27T14:20:06.024Z</time></trkpt><trkpt lat="34.7972467" lon="-6.286265"><ele>17.75</ele><time>2026-04-27T14:20:07.024Z</time></trkpt><trkpt lat="34.7972867" lon="-6.2861017"><ele>18.0</ele><time>2026-04-27T14:20:08.024Z</time></trkpt><trkpt lat="34.79733" lon="-6.2859417"><ele>18.0</ele><time>2026-04-27T14:20:09.024Z</time></trkpt><trkpt lat="34.797375" lon="-6.2857767"><ele>18.0</ele><time>2026-04-27T14:20:10.024Z</time></trkpt><trkpt lat="34.7974233" lon="-6.2855983"><ele>18.0</ele><time>2026-04-27T14:20:11.024Z</time></trkpt><trkpt lat="34.7974683" lon="-6.2854267"><ele>18.0</ele><time>2026-04-27T14:20:12.024Z</time></trkpt><trkpt lat="34.7975117" lon="-6.2852633"><ele>17.5</ele><time>2026-04-27T14:20:13.024Z</time></trkpt><trkpt lat="34.7975617" lon="-6.2851067"><ele>17.0</ele><time>2026-04-27T14:20:14.024Z</time></trkpt><trkpt lat="34.7976083" lon="-6.2849433"><ele>16.5</ele><time>2026-04-27T14:20:15.024Z</time></trkpt><trkpt lat="34.7976517" lon="-6.284775"><ele>16.0</ele><time>2026-04-27T14:20:16.024Z</time></trkpt><trkpt lat="34.7976983" lon="-6.2846017"><ele>15.666666666666666</ele><time>2026-04-27T14:20:17.024Z</time></trkpt><trkpt lat="34.7977433" lon="-6.28443"><ele>15.333333333333332</ele><time>2026-04-27T14:20:18.024Z</time></trkpt><trkpt lat="34.79779" lon="-6.2842567"><ele>15.0</ele><time>2026-04-27T14:20:19.023Z</time></trkpt><trkpt lat="34.79784" lon="-6.2840817"><ele>15.0</ele><time>2026-04-27T14:20:20.024Z</time></trkpt><trkpt lat="34.79789" lon="-6.2839067"><ele>15.0</ele><time>2026-04-27T14:20:21.024Z</time></trkpt><trkpt lat="34.7979317" lon="-6.28373"><ele>15.0</ele><time>2026-04-27T14:20:22.023Z</time></trkpt><trkpt lat="34.7979767" lon="-6.2835583"><ele>15.0</ele><time>2026-04-27T14:20:23.024Z</time></trkpt><trkpt lat="34.7980183" lon="-6.2833917"><ele>15.0</ele><time>2026-04-27T14:20:24.024Z</time></trkpt><trkpt lat="34.7980633" lon="-6.2832217"><ele>15.0</ele><time>2026-04-27T14:20:25.024Z</time></trkpt><trkpt lat="34.7981083" lon="-6.283055"><ele>15.0</ele><time>2026-04-27T14:20:26.024Z</time></trkpt><trkpt lat="34.7981583" lon="-6.282885"><ele>14.666666666666668</ele><time>2026-04-27T14:20:27.024Z</time></trkpt><trkpt lat="34.7982167" lon="-6.2827017"><ele>14.333333333333334</ele><time>2026-04-27T14:20:28.024Z</time></trkpt><trkpt lat="34.79828" lon="-6.2825183"><ele>14.0</ele><time>2026-04-27T14:20:29.024Z</time></trkpt><trkpt lat="34.7983483" lon="-6.2823317"><ele>14.0</ele><time>2026-04-27T14:20:30.024Z</time></trkpt><trkpt lat="34.7984267" lon="-6.2821417"><ele>14.0</ele><time>2026-04-27T14:20:31.024Z</time></trkpt><trkpt lat="34.7985033" lon="-6.2819417"><ele>14.0</ele><time>2026-04-27T14:20:32.024Z</time></trkpt><trkpt lat="34.7985867" lon="-6.2817433"><ele>14.0</ele><time>2026-04-27T14:20:33.023Z</time></trkpt><trkpt lat="34.798675" lon="-6.2815667"><ele>14.0</ele><time>2026-04-27T14:20:34.024Z</time></trkpt><trkpt lat="34.7987667" lon="-6.2813983"><ele>14.0</ele><time>2026-04-27T14:20:35.024Z</time></trkpt><trkpt lat="34.7988417" lon="-6.2812267"><ele>14.0</ele><time>2026-04-27T14:20:36.024Z</time></trkpt><trkpt lat="34.7989117" lon="-6.2810683"><ele>14.0</ele><time>2026-04-27T14:20:37.024Z</time></trkpt><trkpt lat="34.798985" lon="-6.2809117"><ele>14.0</ele><time>2026-04-27T14:20:38.024Z</time></trkpt><trkpt lat="34.799055" lon="-6.28076"><ele>14.0</ele><time>2026-04-27T14:20:39.023Z</time></trkpt><trkpt lat="34.799125" lon="-6.2806117"><ele>14.0</ele><time>2026-04-27T14:20:40.024Z</time></trkpt><trkpt lat="34.7991933" lon="-6.2804783"><ele>14.0</ele><time>2026-04-27T14:20:41.024Z</time></trkpt><trkpt lat="34.7992633" lon="-6.2803383"><ele>14.0</ele><time>2026-04-27T14:20:42.024Z</time></trkpt><trkpt lat="34.7993267" lon="-6.2802083"><ele>14.0</ele><time>2026-04-27T14:20:43.024Z</time></trkpt><trkpt lat="34.7993867" lon="-6.2800783"><ele>13.75</ele><time>2026-04-27T14:20:44.024Z</time></trkpt><trkpt lat="34.7994567" lon="-6.2799483"><ele>13.5</ele><time>2026-04-27T14:20:45.024Z</time></trkpt><trkpt lat="34.7995283" lon="-6.2798133"><ele>13.25</ele><time>2026-04-27T14:20:46.024Z</time></trkpt><trkpt lat="34.7995883" lon="-6.27968"><ele>13.0</ele><time>2026-04-27T14:20:47.024Z</time></trkpt><trkpt lat="34.7996517" lon="-6.27955"><ele>13.0</ele><time>2026-04-27T14:20:48.023Z</time></trkpt><trkpt lat="34.7997133" lon="-6.2794133"><ele>13.0</ele><time>2026-04-27T14:20:49.024Z</time></trkpt><trkpt lat="34.79978" lon="-6.2792733"><ele>13.0</ele><time>2026-04-27T14:20:50.024Z</time></trkpt><trkpt lat="34.7998467" lon="-6.2791333"><ele>13.0</ele><time>2026-04-27T14:20:51.024Z</time></trkpt><trkpt lat="34.79991" lon="-6.2789983"><ele>13.0</ele><time>2026-04-27T14:20:52.023Z</time></trkpt><trkpt lat="34.799975" lon="-6.2788617"><ele>13.0</ele><time>2026-04-27T14:20:53.024Z</time></trkpt><trkpt lat="34.8000333" lon="-6.2787383"><ele>13.0</ele><time>2026-04-27T14:20:54.023Z</time></trkpt><trkpt lat="34.80009" lon="-6.2786183"><ele>13.0</ele><time>2026-04-27T14:20:55.023Z</time></trkpt><trkpt lat="34.8001533" lon="-6.2784867"><ele>12.75</ele><time>2026-04-27T14:20:56.022Z</time></trkpt><trkpt lat="34.8002333" lon="-6.27834"><ele>12.5</ele><time>2026-04-27T14:20:57.023Z</time></trkpt><trkpt lat="34.8003167" lon="-6.2781917"><ele>12.25</ele><time>2026-04-27T14:20:58.023Z</time></trkpt><trkpt lat="34.8003883" lon="-6.2780417"><ele>12.0</ele><time>2026-04-27T14:20:59.023Z</time></trkpt><trkpt lat="34.8004583" lon="-6.2778967"><ele>11.75</ele><time>2026-04-27T14:21:00.022Z</time></trkpt><trkpt lat="34.8005267" lon="-6.2777617"><ele>11.5</ele><time>2026-04-27T14:21:01.023Z</time></trkpt><trkpt lat="34.800585" lon="-6.2776233"><ele>11.25</ele><time>2026-04-27T14:21:02.023Z</time></trkpt><trkpt lat="34.800645" lon="-6.27748"><ele>11.0</ele><time>2026-04-27T14:21:03.023Z</time></trkpt><trkpt lat="34.80071" lon="-6.2773283"><ele>11.25</ele><time>2026-04-27T14:21:04.023Z</time></trkpt><trkpt lat="34.8007717" lon="-6.2771883"><ele>11.5</ele><time>2026-04-27T14:21:05.023Z</time></trkpt><trkpt lat="34.800825" lon="-6.27705"><ele>11.75</ele><time>2026-04-27T14:21:06.023Z</time></trkpt><trkpt lat="34.800875" lon="-6.27692"><ele>12.0</ele><time>2026-04-27T14:21:07.023Z</time></trkpt><trkpt lat="34.8009233" lon="-6.2767783"><ele>12.0</ele><time>2026-04-27T14:21:08.023Z</time></trkpt><trkpt lat="34.80097" lon="-6.2766417"><ele>12.0</ele><time>2026-04-27T14:21:09.023Z</time></trkpt><trkpt lat="34.801025" lon="-6.2765083"><ele>12.0</ele><time>2026-04-27T14:21:10.023Z</time></trkpt><trkpt lat="34.8010667" lon="-6.2763967"><ele>12.0</ele><time>2026-04-27T14:21:11.023Z</time></trkpt><trkpt lat="34.801095" lon="-6.276295"><ele>12.0</ele><time>2026-04-27T14:21:12.023Z</time></trkpt><trkpt lat="34.8011167" lon="-6.2762083"><ele>11.666666666666666</ele><time>2026-04-27T14:21:13.023Z</time></trkpt><trkpt lat="34.80114" lon="-6.2761283"><ele>11.333333333333334</ele><time>2026-04-27T14:21:14.023Z</time></trkpt><trkpt lat="34.8011567" lon="-6.2760517"><ele>11.0</ele><time>2026-04-27T14:21:15.023Z</time></trkpt><trkpt lat="34.8011817" lon="-6.2759167"><ele>10.666666666666668</ele><time>2026-04-27T14:21:17.023Z</time></trkpt><trkpt lat="34.8012033" lon="-6.2758367"><ele>10.333333333333334</ele><time>2026-04-27T14:21:19.023Z</time></trkpt><trkpt lat="34.8012233" lon="-6.27573"><ele>10.0</ele><time>2026-04-27T14:21:21.023Z</time></trkpt><trkpt lat="34.80124" lon="-6.2756433"><ele>10.4</ele><time>2026-04-27T14:21:22.023Z</time></trkpt><trkpt lat="34.80126" lon="-6.2755467"><ele>10.8</ele><time>2026-04-27T14:21:23.023Z</time></trkpt><trkpt lat="34.8012833" lon="-6.2754367"><ele>11.2</ele><time>2026-04-27T14:21:24.023Z</time></trkpt><trkpt lat="34.8013117" lon="-6.2753233"><ele>11.6</ele><time>2026-04-27T14:21:25.023Z</time></trkpt><trkpt lat="34.80134" lon="-6.2751967"><ele>12.0</ele><time>2026-04-27T14:21:26.023Z</time></trkpt><trkpt lat="34.801365" lon="-6.275075"><ele>12.0</ele><time>2026-04-27T14:21:27.023Z</time></trkpt><trkpt lat="34.80139" lon="-6.274955"><ele>12.0</ele><time>2026-04-27T14:21:28.023Z</time></trkpt><trkpt lat="34.80142" lon="-6.27483"><ele>12.0</ele><time>2026-04-27T14:21:29.023Z</time></trkpt><trkpt lat="34.8014467" lon="-6.2747083"><ele>12.0</ele><time>2026-04-27T14:21:30.023Z</time></trkpt><trkpt lat="34.8014733" lon="-6.2745833"><ele>12.0</ele><time>2026-04-27T14:21:31.023Z</time></trkpt><trkpt lat="34.8015033" lon="-6.27445"><ele>12.5</ele><time>2026-04-27T14:21:32.022Z</time></trkpt><trkpt lat="34.801535" lon="-6.2743117"><ele>13.0</ele><time>2026-04-27T14:21:33.022Z</time></trkpt><trkpt lat="34.8015717" lon="-6.274155"><ele>13.5</ele><time>2026-04-27T14:21:34.023Z</time></trkpt><trkpt lat="34.801605" lon="-6.2739883"><ele>14.0</ele><time>2026-04-27T14:21:35.023Z</time></trkpt><trkpt lat="34.8016383" lon="-6.2738233"><ele>14.25</ele><time>2026-04-27T14:21:36.023Z</time></trkpt><trkpt lat="34.80168" lon="-6.2736517"><ele>14.5</ele><time>2026-04-27T14:21:37.023Z</time></trkpt><trkpt lat="34.8017183" lon="-6.273475"><ele>14.75</ele><time>2026-04-27T14:21:38.023Z</time></trkpt><trkpt lat="34.801755" lon="-6.2732967"><ele>15.0</ele><time>2026-04-27T14:21:39.023Z</time></trkpt><trkpt lat="34.8017933" lon="-6.2731217"><ele>15.0</ele><time>2026-04-27T14:21:40.023Z</time></trkpt><trkpt lat="34.8018233" lon="-6.2729583"><ele>15.0</ele><time>2026-04-27T14:21:41.023Z</time></trkpt><trkpt lat="34.8018483" lon="-6.2728067"><ele>15.0</ele><time>2026-04-27T14:21:42.023Z</time></trkpt><trkpt lat="34.8018783" lon="-6.2726683"><ele>15.0</ele><time>2026-04-27T14:21:43.023Z</time></trkpt><trkpt lat="34.8019067" lon="-6.2725217"><ele>15.0</ele><time>2026-04-27T14:21:44.022Z</time></trkpt><trkpt lat="34.801945" lon="-6.2723617"><ele>15.0</ele><time>2026-04-27T14:21:45.023Z</time></trkpt><trkpt lat="34.8019917" lon="-6.272195"><ele>15.0</ele><time>2026-04-27T14:21:46.023Z</time></trkpt><trkpt lat="34.8020417" lon="-6.2720117"><ele>15.0</ele><time>2026-04-27T14:21:47.023Z</time></trkpt><trkpt lat="34.8020933" lon="-6.27181"><ele>15.333333333333332</ele><time>2026-04-27T14:21:48.023Z</time></trkpt><trkpt lat="34.80213" lon="-6.27159"><ele>15.666666666666666</ele><time>2026-04-27T14:21:49.023Z</time></trkpt><trkpt lat="34.8021717" lon="-6.2713517"><ele>16.0</ele><time>2026-04-27T14:21:50.023Z</time></trkpt><trkpt lat="34.802215" lon="-6.2711017"><ele>16.333333333333332</ele><time>2026-04-27T14:21:51.023Z</time></trkpt><trkpt lat="34.8022617" lon="-6.2708517"><ele>16.666666666666668</ele><time>2026-04-27T14:21:52.023Z</time></trkpt><trkpt lat="34.8023133" lon="-6.2706133"><ele>17.0</ele><time>2026-04-27T14:21:53.023Z</time></trkpt><trkpt lat="34.80237" lon="-6.2703767"><ele>17.0</ele><time>2026-04-27T14:21:54.023Z</time></trkpt><trkpt lat="34.8024233" lon="-6.2701317"><ele>17.0</ele><time>2026-04-27T14:21:55.022Z</time></trkpt><trkpt lat="34.8024783" lon="-6.2698917"><ele>17.0</ele><time>2026-04-27T14:21:56.023Z</time></trkpt><trkpt lat="34.802525" lon="-6.2696667"><ele>17.0</ele><time>2026-04-27T14:21:57.023Z</time></trkpt><trkpt lat="34.802575" lon="-6.2694483"><ele>17.0</ele><time>2026-04-27T14:21:58.023Z</time></trkpt><trkpt lat="34.802625" lon="-6.2692367"><ele>17.0</ele><time>2026-04-27T14:21:59.023Z</time></trkpt><trkpt lat="34.80267" lon="-6.2690283"><ele>16.0</ele><time>2026-04-27T14:22:00.023Z</time></trkpt><trkpt lat="34.8027167" lon="-6.2688167"><ele>15.0</ele><time>2026-04-27T14:22:01.023Z</time></trkpt><trkpt lat="34.8027583" lon="-6.2686"><ele>14.0</ele><time>2026-04-27T14:22:02.023Z</time></trkpt><trkpt lat="34.8028017" lon="-6.2683833"><ele>14.0</ele><time>2026-04-27T14:22:03.022Z</time></trkpt><trkpt lat="34.8028467" lon="-6.268165"><ele>14.0</ele><time>2026-04-27T14:22:04.023Z</time></trkpt><trkpt lat="34.8028967" lon="-6.2679433"><ele>14.0</ele><time>2026-04-27T14:22:05.023Z</time></trkpt><trkpt lat="34.802945" lon="-6.2677217"><ele>14.0</ele><time>2026-04-27T14:22:06.023Z</time></trkpt><trkpt lat="34.8029933" lon="-6.26751"><ele>14.0</ele><time>2026-04-27T14:22:07.022Z</time></trkpt><trkpt lat="34.803035" lon="-6.2673017"><ele>14.0</ele><time>2026-04-27T14:22:08.023Z</time></trkpt><trkpt lat="34.8030833" lon="-6.2670983"><ele>13.666666666666668</ele><time>2026-04-27T14:22:09.022Z</time></trkpt><trkpt lat="34.8031283" lon="-6.2669"><ele>13.333333333333332</ele><time>2026-04-27T14:22:10.023Z</time></trkpt><trkpt lat="34.8031783" lon="-6.2667"><ele>13.0</ele><time>2026-04-27T14:22:11.023Z</time></trkpt><trkpt lat="34.8032267" lon="-6.26651"><ele>13.0</ele><time>2026-04-27T14:22:12.023Z</time></trkpt><trkpt lat="34.80327" lon="-6.266355"><ele>13.0</ele><time>2026-04-27T14:22:13.023Z</time></trkpt><trkpt lat="34.8033067" lon="-6.2662233"><ele>13.0</ele><time>2026-04-27T14:22:14.023Z</time></trkpt><trkpt lat="34.80334" lon="-6.2661133"><ele>13.0</ele><time>2026-04-27T14:22:15.023Z</time></trkpt><trkpt lat="34.8033783" lon="-6.2660183"><ele>13.0</ele><time>2026-04-27T14:22:16.023Z</time></trkpt><trkpt lat="34.8034217" lon="-6.2659217"><ele>13.0</ele><time>2026-04-27T14:22:17.022Z</time></trkpt><trkpt lat="34.8034783" lon="-6.2658133"><ele>13.0</ele><time>2026-04-27T14:22:18.023Z</time></trkpt><trkpt lat="34.8035467" lon="-6.2657017"><ele>13.0</ele><time>2026-04-27T14:22:19.022Z</time></trkpt><trkpt lat="34.8036217" lon="-6.2655733"><ele>13.0</ele><time>2026-04-27T14:22:20.023Z</time></trkpt><trkpt lat="34.8036983" lon="-6.265425"><ele>12.333333333333332</ele><time>2026-04-27T14:22:21.023Z</time></trkpt><trkpt lat="34.8037817" lon="-6.26526"><ele>11.666666666666666</ele><time>2026-04-27T14:22:22.023Z</time></trkpt><trkpt lat="34.8038683" lon="-6.2650967"><ele>11.0</ele><time>2026-04-27T14:22:23.023Z</time></trkpt><trkpt lat="34.8039583" lon="-6.2649467"><ele>11.0</ele><time>2026-04-27T14:22:24.023Z</time></trkpt><trkpt lat="34.8040433" lon="-6.264795"><ele>11.0</ele><time>2026-04-27T14:22:25.023Z</time></trkpt><trkpt lat="34.804125" lon="-6.264645"><ele>11.0</ele><time>2026-04-27T14:22:26.023Z</time></trkpt><trkpt lat="34.8042083" lon="-6.264505"><ele>11.0</ele><time>2026-04-27T14:22:27.023Z</time></trkpt><trkpt lat="34.8042983" lon="-6.264355"><ele>10.333333333333332</ele><time>2026-04-27T14:22:28.023Z</time></trkpt><trkpt lat="34.8043917" lon="-6.2642"><ele>9.666666666666666</ele><time>2026-04-27T14:22:29.023Z</time></trkpt><trkpt lat="34.80448" lon="-6.2640533"><ele>9.0</ele><time>2026-04-27T14:22:30.023Z</time></trkpt><trkpt lat="34.8045633" lon="-6.26391"><ele>8.75</ele><time>2026-04-27T14:22:31.023Z</time></trkpt><trkpt lat="34.804645" lon="-6.2637667"><ele>8.5</ele><time>2026-04-27T14:22:32.023Z</time></trkpt><trkpt lat="34.8047133" lon="-6.2636233"><ele>8.25</ele><time>2026-04-27T14:22:33.023Z</time></trkpt><trkpt lat="34.8047833" lon="-6.2634833"><ele>8.0</ele><time>2026-04-27T14:22:34.023Z</time></trkpt><trkpt lat="34.80486" lon="-6.26335"><ele>8.0</ele><time>2026-04-27T14:22:35.023Z</time></trkpt><trkpt lat="34.8049367" lon="-6.263215"><ele>8.0</ele><time>2026-04-27T14:22:36.023Z</time></trkpt><trkpt lat="34.8050133" lon="-6.263085"><ele>8.0</ele><time>2026-04-27T14:22:37.023Z</time></trkpt><trkpt lat="34.8050883" lon="-6.2629533"><ele>8.0</ele><time>2026-04-27T14:22:38.023Z</time></trkpt><trkpt lat="34.80516" lon="-6.26281"><ele>8.0</ele><time>2026-04-27T14:22:39.023Z</time></trkpt><trkpt lat="34.8052383" lon="-6.26267"><ele>8.0</ele><time>2026-04-27T14:22:40.023Z</time></trkpt><trkpt lat="34.8053167" lon="-6.262525"><ele>8.0</ele><time>2026-04-27T14:22:41.023Z</time></trkpt><trkpt lat="34.8053983" lon="-6.262375"><ele>8.0</ele><time>2026-04-27T14:22:42.023Z</time></trkpt><trkpt lat="34.8054783" lon="-6.2622283"><ele>8.5</ele><time>2026-04-27T14:22:43.023Z</time></trkpt><trkpt lat="34.8055633" lon="-6.2620833"><ele>9.0</ele><time>2026-04-27T14:22:44.023Z</time></trkpt><trkpt lat="34.80565" lon="-6.2619317"><ele>9.5</ele><time>2026-04-27T14:22:45.022Z</time></trkpt><trkpt lat="34.8057367" lon="-6.2617867"><ele>10.0</ele><time>2026-04-27T14:22:46.023Z</time></trkpt><trkpt lat="34.8058133" lon="-6.2616583"><ele>10.0</ele><time>2026-04-27T14:22:47.023Z</time></trkpt><trkpt lat="34.8058817" lon="-6.2615417"><ele>10.0</ele><time>2026-04-27T14:22:48.023Z</time></trkpt><trkpt lat="34.8059417" lon="-6.2614283"><ele>10.0</ele><time>2026-04-27T14:22:49.022Z</time></trkpt><trkpt lat="34.806" lon="-6.2613333"><ele>10.0</ele><time>2026-04-27T14:22:50.023Z</time></trkpt><trkpt lat="34.8060517" lon="-6.2612567"><ele>10.0</ele><time>2026-04-27T14:22:51.023Z</time></trkpt><trkpt lat="34.8060933" lon="-6.2611867"><ele>10.2</ele><time>2026-04-27T14:22:52.023Z</time></trkpt><trkpt lat="34.8061383" lon="-6.2611117"><ele>10.4</ele><time>2026-04-27T14:22:53.022Z</time></trkpt><trkpt lat="34.8061817" lon="-6.2610217"><ele>10.600000000000001</ele><time>2026-04-27T14:22:54.023Z</time></trkpt><trkpt lat="34.806235" lon="-6.2609233"><ele>10.8</ele><time>2026-04-27T14:22:55.023Z</time></trkpt><trkpt lat="34.8062933" lon="-6.26081"><ele>11.0</ele><time>2026-04-27T14:22:56.023Z</time></trkpt><trkpt lat="34.806355" lon="-6.260695"><ele>11.0</ele><time>2026-04-27T14:22:57.023Z</time></trkpt><trkpt lat="34.8064167" lon="-6.2605767"><ele>11.0</ele><time>2026-04-27T14:22:58.023Z</time></trkpt><trkpt lat="34.8064733" lon="-6.2604683"><ele>11.0</ele><time>2026-04-27T14:22:59.023Z</time></trkpt><trkpt lat="34.80653" lon="-6.260365"><ele>11.0</ele><time>2026-04-27T14:23:00.023Z</time></trkpt><trkpt lat="34.8065783" lon="-6.2602817"><ele>11.0</ele><time>2026-04-27T14:23:01.023Z</time></trkpt><trkpt lat="34.806625" lon="-6.2602167"><ele>11.0</ele><time>2026-04-27T14:23:02.023Z</time></trkpt><trkpt lat="34.806665" lon="-6.2601533"><ele>11.0</ele><time>2026-04-27T14:23:03.023Z</time></trkpt><trkpt lat="34.8066967" lon="-6.260085"><ele>11.0</ele><time>2026-04-27T14:23:04.023Z</time></trkpt><trkpt lat="34.8067383" lon="-6.260015"><ele>11.0</ele><time>2026-04-27T14:23:05.023Z</time></trkpt><trkpt lat="34.80679" lon="-6.2599167"><ele>11.0</ele><time>2026-04-27T14:23:06.023Z</time></trkpt><trkpt lat="34.80685" lon="-6.2598033"><ele>11.0</ele><time>2026-04-27T14:23:07.023Z</time></trkpt><trkpt lat="34.8069117" lon="-6.2596933"><ele>10.600000000000001</ele><time>2026-04-27T14:23:08.023Z</time></trkpt><trkpt lat="34.806975" lon="-6.2595933"><ele>10.200000000000001</ele><time>2026-04-27T14:23:09.022Z</time></trkpt><trkpt lat="34.8070317" lon="-6.2594933"><ele>9.8</ele><time>2026-04-27T14:23:10.022Z</time></trkpt><trkpt lat="34.80709" lon="-6.2593867"><ele>9.4</ele><time>2026-04-27T14:23:11.023Z</time></trkpt><trkpt lat="34.8071567" lon="-6.2592783"><ele>9.0</ele><time>2026-04-27T14:23:12.023Z</time></trkpt><trkpt lat="34.8072117" lon="-6.2591683"><ele>9.0</ele><time>2026-04-27T14:23:13.023Z</time></trkpt><trkpt lat="34.80726" lon="-6.259065"><ele>9.0</ele><time>2026-04-27T14:23:14.023Z</time></trkpt><trkpt lat="34.80731" lon="-6.2589717"><ele>9.0</ele><time>2026-04-27T14:23:15.023Z</time></trkpt><trkpt lat="34.8073583" lon="-6.2589"><ele>9.0</ele><time>2026-04-27T14:23:16.023Z</time></trkpt><trkpt lat="34.8074" lon="-6.2588383"><ele>9.0</ele><time>2026-04-27T14:23:17.023Z</time></trkpt><trkpt lat="34.8074517" lon="-6.25876"><ele>9.0</ele><time>2026-04-27T14:23:19.023Z</time></trkpt><trkpt lat="34.8074917" lon="-6.2586767"><ele>9.0</ele><time>2026-04-27T14:23:22.023Z</time></trkpt><trkpt lat="34.8075367" lon="-6.2585933"><ele>9.0</ele><time>2026-04-27T14:23:26.023Z</time></trkpt><trkpt lat="34.8075717" lon="-6.25852"><ele>9.0</ele><time>2026-04-27T14:23:29.022Z</time></trkpt><trkpt lat="34.807625" lon="-6.2584383"><ele>9.0</ele><time>2026-04-27T14:23:31.022Z</time></trkpt><trkpt lat="34.807665" lon="-6.25837"><ele>9.0</ele><time>2026-04-27T14:23:32.023Z</time></trkpt><trkpt lat="34.8077233" lon="-6.2582733"><ele>9.0</ele><time>2026-04-27T14:23:33.023Z</time></trkpt><trkpt lat="34.8077933" lon="-6.2581567"><ele>9.4</ele><time>2026-04-27T14:23:34.023Z</time></trkpt><trkpt lat="34.8078633" lon="-6.258045"><ele>9.8</ele><time>2026-04-27T14:23:35.023Z</time></trkpt><trkpt lat="34.8079217" lon="-6.257935"><ele>10.200000000000001</ele><time>2026-04-27T14:23:36.022Z</time></trkpt><trkpt lat="34.8079733" lon="-6.2578317"><ele>10.600000000000001</ele><time>2026-04-27T14:23:37.023Z</time></trkpt><trkpt lat="34.808015" lon="-6.257745"><ele>11.0</ele><time>2026-04-27T14:23:38.023Z</time></trkpt><trkpt lat="34.80805" lon="-6.2576733"><ele>11.0</ele><time>2026-04-27T14:23:39.023Z</time></trkpt><trkpt lat="34.808085" lon="-6.257605"><ele>11.0</ele><time>2026-04-27T14:23:40.023Z</time></trkpt><trkpt lat="34.8081317" lon="-6.2575283"><ele>11.0</ele><time>2026-04-27T14:23:41.023Z</time></trkpt><trkpt lat="34.8081983" lon="-6.25743"><ele>11.0</ele><time>2026-04-27T14:23:42.023Z</time></trkpt><trkpt lat="34.8082883" lon="-6.2572867"><ele>11.0</ele><time>2026-04-27T14:23:43.023Z</time></trkpt><trkpt lat="34.8084067" lon="-6.2570983"><ele>11.333333333333332</ele><time>2026-04-27T14:23:44.023Z</time></trkpt><trkpt lat="34.8085317" lon="-6.2568717"><ele>11.666666666666666</ele><time>2026-04-27T14:23:45.023Z</time></trkpt><trkpt lat="34.8086483" lon="-6.25665"><ele>12.0</ele><time>2026-04-27T14:23:46.023Z</time></trkpt><trkpt lat="34.8087717" lon="-6.25643"><ele>12.666666666666668</ele><time>2026-04-27T14:23:47.023Z</time></trkpt><trkpt lat="34.8088917" lon="-6.2562167"><ele>13.333333333333334</ele><time>2026-04-27T14:23:48.023Z</time></trkpt><trkpt lat="34.808995" lon="-6.2560033"><ele>14.0</ele><time>2026-04-27T14:23:49.023Z</time></trkpt><trkpt lat="34.8091" lon="-6.2557967"><ele>15.666666666666668</ele><time>2026-04-27T14:23:50.023Z</time></trkpt><trkpt lat="34.8092083" lon="-6.255595"><ele>17.333333333333332</ele><time>2026-04-27T14:23:51.023Z</time></trkpt><trkpt lat="34.809325" lon="-6.2554033"><ele>19.0</ele><time>2026-04-27T14:23:52.022Z</time></trkpt><trkpt lat="34.8094383" lon="-6.2552033"><ele>19.0</ele><time>2026-04-27T14:23:53.023Z</time></trkpt><trkpt lat="34.8095483" lon="-6.255015"><ele>19.0</ele><time>2026-04-27T14:23:54.023Z</time></trkpt><trkpt lat="34.80965" lon="-6.2548333"><ele>19.0</ele><time>2026-04-27T14:23:55.023Z</time></trkpt><trkpt lat="34.8097483" lon="-6.2546583"><ele>21.0</ele><time>2026-04-27T14:23:56.023Z</time></trkpt><trkpt lat="34.80985" lon="-6.25448"><ele>23.0</ele><time>2026-04-27T14:23:57.022Z</time></trkpt><trkpt lat="34.8099517" lon="-6.2542983"><ele>25.0</ele><time>2026-04-27T14:23:58.023Z</time></trkpt><trkpt lat="34.8100567" lon="-6.254105"><ele>26.0</ele><time>2026-04-27T14:23:59.023Z</time></trkpt><trkpt lat="34.8101633" lon="-6.2539167"><ele>27.0</ele><time>2026-04-27T14:24:00.022Z</time></trkpt><trkpt lat="34.8102733" lon="-6.2537167"><ele>28.0</ele><time>2026-04-27T14:24:01.023Z</time></trkpt><trkpt lat="34.8103867" lon="-6.2535167"><ele>28.0</ele><time>2026-04-27T14:24:02.023Z</time></trkpt><trkpt lat="34.8104983" lon="-6.2533183"><ele>28.0</ele><time>2026-04-27T14:24:03.023Z</time></trkpt><trkpt lat="34.81061" lon="-6.25311"><ele>28.0</ele><time>2026-04-27T14:24:04.023Z</time></trkpt><trkpt lat="34.81072" lon="-6.2529083"><ele>27.333333333333336</ele><time>2026-04-27T14:24:05.023Z</time></trkpt><trkpt lat="34.8108283" lon="-6.2527017"><ele>26.666666666666664</ele><time>2026-04-27T14:24:06.023Z</time></trkpt><trkpt lat="34.8109283" lon="-6.2525117"><ele>26.0</ele><time>2026-04-27T14:24:07.022Z</time></trkpt><trkpt lat="34.81102" lon="-6.252305"><ele>25.333333333333332</ele><time>2026-04-27T14:24:08.023Z</time></trkpt><trkpt lat="34.8111133" lon="-6.2521"><ele>24.666666666666664</ele><time>2026-04-27T14:24:09.023Z</time></trkpt><trkpt lat="34.8112017" lon="-6.2518817"><ele>24.0</ele><time>2026-04-27T14:24:10.023Z</time></trkpt><trkpt lat="34.8112867" lon="-6.25166"><ele>24.333333333333336</ele><time>2026-04-27T14:24:11.023Z</time></trkpt><trkpt lat="34.811375" lon="-6.25143"><ele>24.666666666666668</ele><time>2026-04-27T14:24:12.023Z</time></trkpt><trkpt lat="34.8114517" lon="-6.2511967"><ele>25.0</ele><time>2026-04-27T14:24:13.023Z</time></trkpt><trkpt lat="34.81152" lon="-6.2509733"><ele>25.0</ele><time>2026-04-27T14:24:14.023Z</time></trkpt><trkpt lat="34.811565" lon="-6.2507667"><ele>25.0</ele><time>2026-04-27T14:24:15.023Z</time></trkpt><trkpt lat="34.8116133" lon="-6.2505633"><ele>25.0</ele><time>2026-04-27T14:24:16.023Z</time></trkpt><trkpt lat="34.8116617" lon="-6.2503583"><ele>25.666666666666668</ele><time>2026-04-27T14:24:17.023Z</time></trkpt><trkpt lat="34.8117067" lon="-6.2501533"><ele>26.333333333333336</ele><time>2026-04-27T14:24:18.022Z</time></trkpt><trkpt lat="34.8117517" lon="-6.2499533"><ele>27.0</ele><time>2026-04-27T14:24:19.023Z</time></trkpt><trkpt lat="34.8117967" lon="-6.2497583"><ele>26.333333333333336</ele><time>2026-04-27T14:24:20.023Z</time></trkpt><trkpt lat="34.8118417" lon="-6.24957"><ele>25.666666666666668</ele><time>2026-04-27T14:24:21.023Z</time></trkpt><trkpt lat="34.8118917" lon="-6.2493783"><ele>25.0</ele><time>2026-04-27T14:24:22.023Z</time></trkpt><trkpt lat="34.811935" lon="-6.2491933"><ele>25.0</ele><time>2026-04-27T14:24:23.023Z</time></trkpt><trkpt lat="34.8119767" lon="-6.2490033"><ele>25.0</ele><time>2026-04-27T14:24:24.023Z</time></trkpt><trkpt lat="34.8120333" lon="-6.2488183"><ele>25.0</ele><time>2026-04-27T14:24:25.023Z</time></trkpt><trkpt lat="34.812075" lon="-6.2486333"><ele>24.4</ele><time>2026-04-27T14:24:26.023Z</time></trkpt><trkpt lat="34.8121083" lon="-6.248485"><ele>23.8</ele><time>2026-04-27T14:24:27.023Z</time></trkpt><trkpt lat="34.8121267" lon="-6.2483533"><ele>23.200000000000003</ele><time>2026-04-27T14:24:28.022Z</time></trkpt><trkpt lat="34.812155" lon="-6.248255"><ele>22.6</ele><time>2026-04-27T14:24:29.023Z</time></trkpt><trkpt lat="34.8121717" lon="-6.2481583"><ele>22.0</ele><time>2026-04-27T14:24:30.023Z</time></trkpt><trkpt lat="34.8121867" lon="-6.24808"><ele>21.8</ele><time>2026-04-27T14:24:31.022Z</time></trkpt><trkpt lat="34.8122067" lon="-6.248"><ele>21.6</ele><time>2026-04-27T14:24:32.023Z</time></trkpt><trkpt lat="34.8122267" lon="-6.24791"><ele>21.400000000000002</ele><time>2026-04-27T14:24:33.023Z</time></trkpt><trkpt lat="34.8122567" lon="-6.2478117"><ele>21.200000000000003</ele><time>2026-04-27T14:24:34.023Z</time></trkpt><trkpt lat="34.8122933" lon="-6.2476917"><ele>21.0</ele><time>2026-04-27T14:24:35.023Z</time></trkpt><trkpt lat="34.8123283" lon="-6.24754"><ele>21.0</ele><time>2026-04-27T14:24:36.023Z</time></trkpt><trkpt lat="34.8123567" lon="-6.24739"><ele>21.0</ele><time>2026-04-27T14:24:37.022Z</time></trkpt><trkpt lat="34.8123917" lon="-6.2472467"><ele>21.0</ele><time>2026-04-27T14:24:38.023Z</time></trkpt><trkpt lat="34.812435" lon="-6.2471083"><ele>21.0</ele><time>2026-04-27T14:24:39.023Z</time></trkpt><trkpt lat="34.8124933" lon="-6.2469617"><ele>20.666666666666668</ele><time>2026-04-27T14:24:40.023Z</time></trkpt><trkpt lat="34.8125533" lon="-6.2467917"><ele>20.333333333333336</ele><time>2026-04-27T14:24:41.023Z</time></trkpt><trkpt lat="34.8126367" lon="-6.2466083"><ele>20.0</ele><time>2026-04-27T14:24:42.023Z</time></trkpt><trkpt lat="34.81274" lon="-6.24643"><ele>21.333333333333336</ele><time>2026-04-27T14:24:43.023Z</time></trkpt><trkpt lat="34.8128667" lon="-6.2462533"><ele>22.666666666666668</ele><time>2026-04-27T14:24:44.023Z</time></trkpt><trkpt lat="34.8130083" lon="-6.246085"><ele>24.0</ele><time>2026-04-27T14:24:45.023Z</time></trkpt><trkpt lat="34.8131617" lon="-6.2459083"><ele>24.0</ele><time>2026-04-27T14:24:46.023Z</time></trkpt><trkpt lat="34.8133133" lon="-6.2457467"><ele>24.0</ele><time>2026-04-27T14:24:47.023Z</time></trkpt><trkpt lat="34.81347" lon="-6.2455983"><ele>24.0</ele><time>2026-04-27T14:24:48.023Z</time></trkpt><trkpt lat="34.81365" lon="-6.2454717"><ele>22.333333333333332</ele><time>2026-04-27T14:24:49.023Z</time></trkpt><trkpt lat="34.8138383" lon="-6.245345"><ele>20.666666666666664</ele><time>2026-04-27T14:24:50.023Z</time></trkpt><trkpt lat="34.8140283" lon="-6.24523"><ele>19.0</ele><time>2026-04-27T14:24:51.023Z</time></trkpt><trkpt lat="34.814205" lon="-6.2451233"><ele>19.0</ele><time>2026-04-27T14:24:52.023Z</time></trkpt><trkpt lat="34.8143867" lon="-6.24503"><ele>19.0</ele><time>2026-04-27T14:24:53.023Z</time></trkpt><trkpt lat="34.814585" lon="-6.244925"><ele>19.0</ele><time>2026-04-27T14:24:54.023Z</time></trkpt><trkpt lat="34.8147717" lon="-6.2448233"><ele>19.0</ele><time>2026-04-27T14:24:55.023Z</time></trkpt><trkpt lat="34.8149517" lon="-6.24473"><ele>19.0</ele><time>2026-04-27T14:24:56.023Z</time></trkpt><trkpt lat="34.8151183" lon="-6.24464"><ele>19.0</ele><time>2026-04-27T14:24:57.023Z</time></trkpt><trkpt lat="34.8152783" lon="-6.2445567"><ele>18.666666666666664</ele><time>2026-04-27T14:24:58.023Z</time></trkpt><trkpt lat="34.81543" lon="-6.2444733"><ele>18.333333333333332</ele><time>2026-04-27T14:24:59.023Z</time></trkpt><trkpt lat="34.81558" lon="-6.2443967"><ele>18.0</ele><time>2026-04-27T14:25:00.023Z</time></trkpt><trkpt lat="34.81572" lon="-6.24432"><ele>18.0</ele><time>2026-04-27T14:25:01.023Z</time></trkpt><trkpt lat="34.8158583" lon="-6.244245"><ele>18.0</ele><time>2026-04-27T14:25:02.023Z</time></trkpt><trkpt lat="34.8159967" lon="-6.2441683"><ele>18.0</ele><time>2026-04-27T14:25:03.023Z</time></trkpt><trkpt lat="34.816135" lon="-6.2440933"><ele>17.666666666666668</ele><time>2026-04-27T14:25:04.023Z</time></trkpt><trkpt lat="34.816285" lon="-6.24402"><ele>17.333333333333336</ele><time>2026-04-27T14:25:05.023Z</time></trkpt><trkpt lat="34.8164333" lon="-6.2439483"><ele>17.0</ele><time>2026-04-27T14:25:06.023Z</time></trkpt><trkpt lat="34.816575" lon="-6.2438683"><ele>17.0</ele><time>2026-04-27T14:25:07.022Z</time></trkpt><trkpt lat="34.81672" lon="-6.24379"><ele>17.0</ele><time>2026-04-27T14:25:08.022Z</time></trkpt><trkpt lat="34.81687" lon="-6.2437067"><ele>17.0</ele><time>2026-04-27T14:25:09.023Z</time></trkpt><trkpt lat="34.817015" lon="-6.2436283"><ele>17.0</ele><time>2026-04-27T14:25:10.023Z</time></trkpt><trkpt lat="34.817155" lon="-6.2435583"><ele>17.0</ele><time>2026-04-27T14:25:11.023Z</time></trkpt><trkpt lat="34.8172833" lon="-6.2434867"><ele>17.0</ele><time>2026-04-27T14:25:12.023Z</time></trkpt><trkpt lat="34.8174167" lon="-6.243415"><ele>17.0</ele><time>2026-04-27T14:25:13.023Z</time></trkpt><trkpt lat="34.8175517" lon="-6.2433383"><ele>16.75</ele><time>2026-04-27T14:25:14.023Z</time></trkpt><trkpt lat="34.8176783" lon="-6.24327"><ele>16.5</ele><time>2026-04-27T14:25:15.023Z</time></trkpt><trkpt lat="34.8177967" lon="-6.2431983"><ele>16.25</ele><time>2026-04-27T14:25:16.022Z</time></trkpt><trkpt lat="34.8178933" lon="-6.243135"><ele>16.0</ele><time>2026-04-27T14:25:17.023Z</time></trkpt><trkpt lat="34.8180083" lon="-6.2430833"><ele>15.8</ele><time>2026-04-27T14:25:18.023Z</time></trkpt><trkpt lat="34.818105" lon="-6.2430283"><ele>15.600000000000001</ele><time>2026-04-27T14:25:19.023Z</time></trkpt><trkpt lat="34.8182" lon="-6.2429867"><ele>15.4</ele><time>2026-04-27T14:25:20.023Z</time></trkpt><trkpt lat="34.8183033" lon="-6.2429383"><ele>15.2</ele><time>2026-04-27T14:25:21.023Z</time></trkpt><trkpt lat="34.8184017" lon="-6.2428933"><ele>15.0</ele><time>2026-04-27T14:25:22.023Z</time></trkpt><trkpt lat="34.818515" lon="-6.2428483"><ele>14.75</ele><time>2026-04-27T14:25:23.023Z</time></trkpt><trkpt lat="34.8186333" lon="-6.2428167"><ele>14.5</ele><time>2026-04-27T14:25:24.023Z</time></trkpt><trkpt lat="34.81875" lon="-6.24278"><ele>14.25</ele><time>2026-04-27T14:25:25.023Z</time></trkpt><trkpt lat="34.8188617" lon="-6.2427533"><ele>14.0</ele><time>2026-04-27T14:25:26.023Z</time></trkpt><trkpt lat="34.8189767" lon="-6.2427333"><ele>14.0</ele><time>2026-04-27T14:25:27.023Z</time></trkpt><trkpt lat="34.8190917" lon="-6.2427233"><ele>13.999999999999998</ele><time>2026-04-27T14:25:28.023Z</time></trkpt><trkpt lat="34.8192067" lon="-6.2427283"><ele>13.999999999999998</ele><time>2026-04-27T14:25:29.023Z</time></trkpt><trkpt lat="34.81932" lon="-6.2427367"><ele>14.0</ele><time>2026-04-27T14:25:30.023Z</time></trkpt><trkpt lat="34.819425" lon="-6.2427467"><ele>14.0</ele><time>2026-04-27T14:25:31.023Z</time></trkpt><trkpt lat="34.81953" lon="-6.242765"><ele>14.166666666666668</ele><time>2026-04-27T14:25:32.023Z</time></trkpt><trkpt lat="34.81963" lon="-6.242785"><ele>14.333333333333334</ele><time>2026-04-27T14:25:33.023Z</time></trkpt><trkpt lat="34.8197217" lon="-6.2428083"><ele>14.5</ele><time>2026-04-27T14:25:34.023Z</time></trkpt><trkpt lat="34.819805" lon="-6.2428267"><ele>14.666666666666668</ele><time>2026-04-27T14:25:35.023Z</time></trkpt><trkpt lat="34.8198833" lon="-6.2428583"><ele>14.833333333333334</ele><time>2026-04-27T14:25:36.023Z</time></trkpt><trkpt lat="34.819955" lon="-6.2428817"><ele>15.0</ele><time>2026-04-27T14:25:37.023Z</time></trkpt><trkpt lat="34.8200233" lon="-6.2428983"><ele>15.0</ele><time>2026-04-27T14:25:38.023Z</time></trkpt><trkpt lat="34.8201183" lon="-6.2429017"><ele>15.0</ele><time>2026-04-27T14:25:40.023Z</time></trkpt><trkpt lat="34.8201867" lon="-6.2429167"><ele>15.0</ele><time>2026-04-27T14:25:42.023Z</time></trkpt><trkpt lat="34.820255" lon="-6.242935"><ele>15.0</ele><time>2026-04-27T14:25:44.023Z</time></trkpt><trkpt lat="34.8203183" lon="-6.24296"><ele>15.0</ele><time>2026-04-27T14:25:46.023Z</time></trkpt><trkpt lat="34.8203933" lon="-6.2429883"><ele>15.0</ele><time>2026-04-27T14:25:48.022Z</time></trkpt><trkpt lat="34.8204667" lon="-6.2430167"><ele>14.833333333333334</ele><time>2026-04-27T14:25:50.022Z</time></trkpt><trkpt lat="34.8205467" lon="-6.2430433"><ele>14.666666666666668</ele><time>2026-04-27T14:25:53.022Z</time></trkpt><trkpt lat="34.8206433" lon="-6.243085"><ele>14.5</ele><time>2026-04-27T14:25:55.022Z</time></trkpt><trkpt lat="34.8207067" lon="-6.2431167"><ele>14.333333333333334</ele><time>2026-04-27T14:25:56.022Z</time></trkpt><trkpt lat="34.8207733" lon="-6.24315"><ele>14.166666666666668</ele><time>2026-04-27T14:25:57.022Z</time></trkpt><trkpt lat="34.8208517" lon="-6.24318"><ele>14.0</ele><time>2026-04-27T14:25:58.022Z</time></trkpt><trkpt lat="34.8209417" lon="-6.243205"><ele>13.500000000000002</ele><time>2026-04-27T14:25:59.022Z</time></trkpt><trkpt lat="34.8210317" lon="-6.24323"><ele>13.0</ele><time>2026-04-27T14:26:00.022Z</time></trkpt><trkpt lat="34.8211117" lon="-6.2432517"><ele>12.5</ele><time>2026-04-27T14:26:01.021Z</time></trkpt><trkpt lat="34.8211867" lon="-6.2432667"><ele>12.0</ele><time>2026-04-27T14:26:02.022Z</time></trkpt><trkpt lat="34.8212533" lon="-6.2432883"><ele>11.5</ele><time>2026-04-27T14:26:03.022Z</time></trkpt><trkpt lat="34.82132" lon="-6.2433133"><ele>11.0</ele><time>2026-04-27T14:26:04.022Z</time></trkpt><trkpt lat="34.8214383" lon="-6.2433283"><ele>11.0</ele><time>2026-04-27T14:26:06.022Z</time></trkpt><trkpt lat="34.82151" lon="-6.2433217"><ele>11.0</ele><time>2026-04-27T14:26:07.022Z</time></trkpt><trkpt lat="34.82159" lon="-6.2433117"><ele>11.0</ele><time>2026-04-27T14:26:08.022Z</time></trkpt><trkpt lat="34.8216767" lon="-6.2433117"><ele>11.0</ele><time>2026-04-27T14:26:09.022Z</time></trkpt><trkpt lat="34.8217567" lon="-6.2433083"><ele>11.0</ele><time>2026-04-27T14:26:10.022Z</time></trkpt><trkpt lat="34.821835" lon="-6.2433033"><ele>11.0</ele><time>2026-04-27T14:26:11.022Z</time></trkpt><trkpt lat="34.821925" lon="-6.243305"><ele>11.166666666666666</ele><time>2026-04-27T14:26:12.022Z</time></trkpt><trkpt lat="34.8220067" lon="-6.2433117"><ele>11.333333333333332</ele><time>2026-04-27T14:26:13.022Z</time></trkpt><trkpt lat="34.8220817" lon="-6.2433217"><ele>11.5</ele><time>2026-04-27T14:26:14.022Z</time></trkpt><trkpt lat="34.8221617" lon="-6.2433283"><ele>11.666666666666666</ele><time>2026-04-27T14:26:15.022Z</time></trkpt><trkpt lat="34.82224" lon="-6.2433367"><ele>11.833333333333334</ele><time>2026-04-27T14:26:16.022Z</time></trkpt><trkpt lat="34.8223267" lon="-6.2433433"><ele>12.0</ele><time>2026-04-27T14:26:17.022Z</time></trkpt><trkpt lat="34.82242" lon="-6.24335"><ele>12.0</ele><time>2026-04-27T14:26:18.022Z</time></trkpt><trkpt lat="34.8225033" lon="-6.2433533"><ele>12.0</ele><time>2026-04-27T14:26:19.022Z</time></trkpt><trkpt lat="34.82258" lon="-6.2433533"><ele>12.0</ele><time>2026-04-27T14:26:20.022Z</time></trkpt><trkpt lat="34.8226517" lon="-6.2433517"><ele>12.0</ele><time>2026-04-27T14:26:21.022Z</time></trkpt><trkpt lat="34.82273" lon="-6.24335"><ele>12.0</ele><time>2026-04-27T14:26:22.021Z</time></trkpt><trkpt lat="34.8228183" lon="-6.2433517"><ele>12.0</ele><time>2026-04-27T14:26:23.022Z</time></trkpt><trkpt lat="34.8229133" lon="-6.243355"><ele>12.0</ele><time>2026-04-27T14:26:24.022Z</time></trkpt><trkpt lat="34.8230133" lon="-6.2433467"><ele>12.0</ele><time>2026-04-27T14:26:25.022Z</time></trkpt><trkpt lat="34.8231183" lon="-6.24335"><ele>12.0</ele><time>2026-04-27T14:26:26.022Z</time></trkpt><trkpt lat="34.82323" lon="-6.243345"><ele>12.0</ele><time>2026-04-27T14:26:27.022Z</time></trkpt><trkpt lat="34.823335" lon="-6.2433367"><ele>12.0</ele><time>2026-04-27T14:26:28.022Z</time></trkpt><trkpt lat="34.8234367" lon="-6.24331"><ele>11.8</ele><time>2026-04-27T14:26:29.022Z</time></trkpt><trkpt lat="34.8235367" lon="-6.24328"><ele>11.6</ele><time>2026-04-27T14:26:30.022Z</time></trkpt><trkpt lat="34.8236367" lon="-6.2432483"><ele>11.4</ele><time>2026-04-27T14:26:31.022Z</time></trkpt><trkpt lat="34.82373" lon="-6.2432183"><ele>11.200000000000001</ele><time>2026-04-27T14:26:32.022Z</time></trkpt><trkpt lat="34.823825" lon="-6.2431933"><ele>11.0</ele><time>2026-04-27T14:26:33.022Z</time></trkpt><trkpt lat="34.8239117" lon="-6.2431667"><ele>11.0</ele><time>2026-04-27T14:26:34.022Z</time></trkpt><trkpt lat="34.8239917" lon="-6.2431367"><ele>11.0</ele><time>2026-04-27T14:26:35.022Z</time></trkpt><trkpt lat="34.8240617" lon="-6.2431"><ele>11.0</ele><time>2026-04-27T14:26:36.022Z</time></trkpt><trkpt lat="34.8241367" lon="-6.2430633"><ele>11.0</ele><time>2026-04-27T14:26:37.022Z</time></trkpt><trkpt lat="34.8242083" lon="-6.2430167"><ele>11.0</ele><time>2026-04-27T14:26:38.022Z</time></trkpt><trkpt lat="34.8242817" lon="-6.242975"><ele>11.0</ele><time>2026-04-27T14:26:39.022Z</time></trkpt><trkpt lat="34.8243433" lon="-6.24294"><ele>10.833333333333332</ele><time>2026-04-27T14:26:40.021Z</time></trkpt><trkpt lat="34.8244167" lon="-6.24289"><ele>10.666666666666666</ele><time>2026-04-27T14:26:42.022Z</time></trkpt><trkpt lat="34.82449" lon="-6.2428533"><ele>10.5</ele><time>2026-04-27T14:26:44.022Z</time></trkpt><trkpt lat="34.8245767" lon="-6.24279"><ele>10.333333333333334</ele><time>2026-04-27T14:26:46.022Z</time></trkpt><trkpt lat="34.824625" lon="-6.2427283"><ele>10.166666666666668</ele><time>2026-04-27T14:26:47.022Z</time></trkpt><trkpt lat="34.8246783" lon="-6.2426483"><ele>10.0</ele><time>2026-04-27T14:26:48.022Z</time></trkpt><trkpt lat="34.8247333" lon="-6.2425783"><ele>10.0</ele><time>2026-04-27T14:26:49.021Z</time></trkpt><trkpt lat="34.82479" lon="-6.24251"><ele>10.0</ele><time>2026-04-27T14:26:50.021Z</time></trkpt><trkpt lat="34.8248467" lon="-6.2424433"><ele>10.0</ele><time>2026-04-27T14:26:51.022Z</time></trkpt><trkpt lat="34.8249083" lon="-6.2423767"><ele>10.0</ele><time>2026-04-27T14:26:52.021Z</time></trkpt><trkpt lat="34.8249667" lon="-6.24231"><ele>10.0</ele><time>2026-04-27T14:26:53.022Z</time></trkpt><trkpt lat="34.825025" lon="-6.2422533"><ele>10.0</ele><time>2026-04-27T14:26:54.022Z</time></trkpt><trkpt lat="34.825075" lon="-6.2422017"><ele>10.0</ele><time>2026-04-27T14:26:55.022Z</time></trkpt><trkpt lat="34.825135" lon="-6.2421517"><ele>10.0</ele><time>2026-04-27T14:26:56.021Z</time></trkpt><trkpt lat="34.8251917" lon="-6.2420983"><ele>10.0</ele><time>2026-04-27T14:26:57.022Z</time></trkpt><trkpt lat="34.82525" lon="-6.2420367"><ele>10.0</ele><time>2026-04-27T14:26:58.022Z</time></trkpt><trkpt lat="34.8253133" lon="-6.24197"><ele>10.0</ele><time>2026-04-27T14:26:59.022Z</time></trkpt><trkpt lat="34.8253783" lon="-6.2418817"><ele>10.0</ele><time>2026-04-27T14:27:00.022Z</time></trkpt><trkpt lat="34.8254517" lon="-6.2417783"><ele>10.0</ele><time>2026-04-27T14:27:01.022Z</time></trkpt><trkpt lat="34.8255267" lon="-6.24168"><ele>10.0</ele><time>2026-04-27T14:27:02.022Z</time></trkpt><trkpt lat="34.8255867" lon="-6.2415933"><ele>10.0</ele><time>2026-04-27T14:27:03.022Z</time></trkpt><trkpt lat="34.8256483" lon="-6.2415033"><ele>10.0</ele><time>2026-04-27T14:27:04.022Z</time></trkpt><trkpt lat="34.825705" lon="-6.241425"><ele>10.0</ele><time>2026-04-27T14:27:05.022Z</time></trkpt><trkpt lat="34.8257617" lon="-6.241355"><ele>10.0</ele><time>2026-04-27T14:27:06.021Z</time></trkpt><trkpt lat="34.82581" lon="-6.2412883"><ele>10.0</ele><time>2026-04-27T14:27:07.022Z</time></trkpt><trkpt lat="34.8258833" lon="-6.241195"><ele>10.0</ele><time>2026-04-27T14:27:09.022Z</time></trkpt><trkpt lat="34.8259333" lon="-6.2411317"><ele>10.0</ele><time>2026-04-27T14:27:11.022Z</time></trkpt><trkpt lat="34.8260367" lon="-6.2410233"><ele>10.0</ele><time>2026-04-27T14:27:13.022Z</time></trkpt><trkpt lat="34.82611" lon="-6.2409367"><ele>10.0</ele><time>2026-04-27T14:27:14.022Z</time></trkpt><trkpt lat="34.8261833" lon="-6.240845"><ele>10.0</ele><time>2026-04-27T14:27:15.022Z</time></trkpt><trkpt lat="34.8262633" lon="-6.2407517"><ele>10.0</ele><time>2026-04-27T14:27:16.022Z</time></trkpt><trkpt lat="34.8263417" lon="-6.240665"><ele>10.0</ele><time>2026-04-27T14:27:17.021Z</time></trkpt><trkpt lat="34.8264267" lon="-6.240575"><ele>10.0</ele><time>2026-04-27T14:27:18.022Z</time></trkpt><trkpt lat="34.8265083" lon="-6.240485"><ele>10.0</ele><time>2026-04-27T14:27:19.022Z</time></trkpt><trkpt lat="34.826585" lon="-6.24039"><ele>10.0</ele><time>2026-04-27T14:27:20.021Z</time></trkpt><trkpt lat="34.8266633" lon="-6.2402933"><ele>10.0</ele><time>2026-04-27T14:27:21.022Z</time></trkpt><trkpt lat="34.8267417" lon="-6.2401933"><ele>10.0</ele><time>2026-04-27T14:27:22.022Z</time></trkpt><trkpt lat="34.8268233" lon="-6.2400983"><ele>10.0</ele><time>2026-04-27T14:27:23.022Z</time></trkpt><trkpt lat="34.8269083" lon="-6.2399983"><ele>10.0</ele><time>2026-04-27T14:27:24.022Z</time></trkpt><trkpt lat="34.8269883" lon="-6.2399067"><ele>10.0</ele><time>2026-04-27T14:27:25.022Z</time></trkpt><trkpt lat="34.827055" lon="-6.239815"><ele>10.0</ele><time>2026-04-27T14:27:26.022Z</time></trkpt><trkpt lat="34.8271133" lon="-6.239735"><ele>10.0</ele><time>2026-04-27T14:27:27.021Z</time></trkpt><trkpt lat="34.82717" lon="-6.2396683"><ele>10.0</ele><time>2026-04-27T14:27:28.022Z</time></trkpt><trkpt lat="34.8272217" lon="-6.2396167"><ele>10.0</ele><time>2026-04-27T14:27:29.022Z</time></trkpt><trkpt lat="34.8272717" lon="-6.2395683"><ele>10.4</ele><time>2026-04-27T14:27:30.022Z</time></trkpt><trkpt lat="34.8273567" lon="-6.23949"><ele>10.8</ele><time>2026-04-27T14:27:32.022Z</time></trkpt><trkpt lat="34.8274117" lon="-6.2394333"><ele>11.2</ele><time>2026-04-27T14:27:33.022Z</time></trkpt><trkpt lat="34.8274767" lon="-6.2393517"><ele>11.6</ele><time>2026-04-27T14:27:34.022Z</time></trkpt><trkpt lat="34.827555" lon="-6.239265"><ele>12.0</ele><time>2026-04-27T14:27:35.022Z</time></trkpt><trkpt lat="34.827635" lon="-6.239175"><ele>12.0</ele><time>2026-04-27T14:27:36.022Z</time></trkpt><trkpt lat="34.8277233" lon="-6.239085"><ele>12.0</ele><time>2026-04-27T14:27:37.022Z</time></trkpt><trkpt lat="34.8278217" lon="-6.23899"><ele>12.0</ele><time>2026-04-27T14:27:38.021Z</time></trkpt><trkpt lat="34.82793" lon="-6.238885"><ele>12.0</ele><time>2026-04-27T14:27:39.022Z</time></trkpt><trkpt lat="34.8280433" lon="-6.2387817"><ele>12.0</ele><time>2026-04-27T14:27:40.022Z</time></trkpt><trkpt lat="34.828155" lon="-6.2386817"><ele>12.0</ele><time>2026-04-27T14:27:41.022Z</time></trkpt><trkpt lat="34.82826" lon="-6.2385833"><ele>12.0</ele><time>2026-04-27T14:27:42.022Z</time></trkpt><trkpt lat="34.828365" lon="-6.2384817"><ele>12.0</ele><time>2026-04-27T14:27:43.022Z</time></trkpt><trkpt lat="34.8284717" lon="-6.23839"><ele>12.0</ele><time>2026-04-27T14:27:44.022Z</time></trkpt><trkpt lat="34.828575" lon="-6.2382883"><ele>12.0</ele><time>2026-04-27T14:27:45.022Z</time></trkpt><trkpt lat="34.828685" lon="-6.23818"><ele>12.0</ele><time>2026-04-27T14:27:46.022Z</time></trkpt><trkpt lat="34.8287967" lon="-6.2380717"><ele>12.0</ele><time>2026-04-27T14:27:47.022Z</time></trkpt><trkpt lat="34.8289183" lon="-6.2379633"><ele>12.0</ele><time>2026-04-27T14:27:48.022Z</time></trkpt><trkpt lat="34.829045" lon="-6.2378533"><ele>12.0</ele><time>2026-04-27T14:27:49.022Z</time></trkpt><trkpt lat="34.8291683" lon="-6.2377367"><ele>12.0</ele><time>2026-04-27T14:27:50.022Z</time></trkpt><trkpt lat="34.8292967" lon="-6.2376117"><ele>12.0</ele><time>2026-04-27T14:27:51.022Z</time></trkpt><trkpt lat="34.8294233" lon="-6.23749"><ele>12.0</ele><time>2026-04-27T14:27:52.022Z</time></trkpt><trkpt lat="34.8295567" lon="-6.237365"><ele>12.0</ele><time>2026-04-27T14:27:53.022Z</time></trkpt><trkpt lat="34.8296817" lon="-6.237235"><ele>12.0</ele><time>2026-04-27T14:27:54.022Z</time></trkpt><trkpt lat="34.8298033" lon="-6.237105"><ele>12.0</ele><time>2026-04-27T14:27:55.022Z</time></trkpt><trkpt lat="34.829935" lon="-6.2369817"><ele>12.0</ele><time>2026-04-27T14:27:56.022Z</time></trkpt><trkpt lat="34.8300667" lon="-6.2368567"><ele>12.333333333333332</ele><time>2026-04-27T14:27:57.021Z</time></trkpt><trkpt lat="34.8302017" lon="-6.2367317"><ele>12.666666666666666</ele><time>2026-04-27T14:27:58.022Z</time></trkpt><trkpt lat="34.8303383" lon="-6.2366033"><ele>13.0</ele><time>2026-04-27T14:27:59.022Z</time></trkpt><trkpt lat="34.830475" lon="-6.2364767"><ele>13.0</ele><time>2026-04-27T14:28:00.022Z</time></trkpt><trkpt lat="34.8306083" lon="-6.2363517"><ele>13.0</ele><time>2026-04-27T14:28:01.022Z</time></trkpt><trkpt lat="34.8307433" lon="-6.2362233"><ele>13.0</ele><time>2026-04-27T14:28:02.022Z</time></trkpt><trkpt lat="34.8308783" lon="-6.2360917"><ele>13.666666666666666</ele><time>2026-04-27T14:28:03.022Z</time></trkpt><trkpt lat="34.8310183" lon="-6.235955"><ele>14.333333333333332</ele><time>2026-04-27T14:28:04.022Z</time></trkpt><trkpt lat="34.8311633" lon="-6.23582"><ele>15.0</ele><time>2026-04-27T14:28:05.022Z</time></trkpt><trkpt lat="34.83131" lon="-6.2356917"><ele>15.666666666666668</ele><time>2026-04-27T14:28:06.022Z</time></trkpt><trkpt lat="34.8314467" lon="-6.2355683"><ele>16.333333333333336</ele><time>2026-04-27T14:28:07.022Z</time></trkpt><trkpt lat="34.8315767" lon="-6.235455"><ele>17.0</ele><time>2026-04-27T14:28:08.022Z</time></trkpt><trkpt lat="34.83169" lon="-6.235335"><ele>16.666666666666668</ele><time>2026-04-27T14:28:09.022Z</time></trkpt><trkpt lat="34.8318083" lon="-6.2352167"><ele>16.333333333333332</ele><time>2026-04-27T14:28:10.022Z</time></trkpt><trkpt lat="34.8319217" lon="-6.2351033"><ele>16.0</ele><time>2026-04-27T14:28:11.022Z</time></trkpt><trkpt lat="34.8320417" lon="-6.2349867"><ele>16.0</ele><time>2026-04-27T14:28:12.022Z</time></trkpt><trkpt lat="34.832165" lon="-6.2348667"><ele>16.0</ele><time>2026-04-27T14:28:13.022Z</time></trkpt><trkpt lat="34.832285" lon="-6.234745"><ele>16.0</ele><time>2026-04-27T14:28:14.022Z</time></trkpt><trkpt lat="34.8324017" lon="-6.2346367"><ele>17.0</ele><time>2026-04-27T14:28:15.022Z</time></trkpt><trkpt lat="34.8325167" lon="-6.23453"><ele>18.0</ele><time>2026-04-27T14:28:16.022Z</time></trkpt><trkpt lat="34.8326233" lon="-6.2344267"><ele>19.0</ele><time>2026-04-27T14:28:17.022Z</time></trkpt><trkpt lat="34.8327217" lon="-6.2343333"><ele>20.0</ele><time>2026-04-27T14:28:18.021Z</time></trkpt><trkpt lat="34.83282" lon="-6.2342333"><ele>20.0</ele><time>2026-04-27T14:28:19.022Z</time></trkpt><trkpt lat="34.8329167" lon="-6.234135"><ele>20.0</ele><time>2026-04-27T14:28:20.022Z</time></trkpt><trkpt lat="34.8330167" lon="-6.2340367"><ele>20.0</ele><time>2026-04-27T14:28:21.022Z</time></trkpt><trkpt lat="34.833115" lon="-6.23394"><ele>20.0</ele><time>2026-04-27T14:28:22.022Z</time></trkpt><trkpt lat="34.8332167" lon="-6.2338433"><ele>20.6</ele><time>2026-04-27T14:28:23.022Z</time></trkpt><trkpt lat="34.8333133" lon="-6.2337583"><ele>21.2</ele><time>2026-04-27T14:28:24.022Z</time></trkpt><trkpt lat="34.8334017" lon="-6.2336833"><ele>21.799999999999997</ele><time>2026-04-27T14:28:25.022Z</time></trkpt><trkpt lat="34.83348" lon="-6.2336017"><ele>22.4</ele><time>2026-04-27T14:28:26.022Z</time></trkpt><trkpt lat="34.8335583" lon="-6.23352"><ele>23.0</ele><time>2026-04-27T14:28:27.022Z</time></trkpt><trkpt lat="34.83364" lon="-6.2334433"><ele>23.0</ele><time>2026-04-27T14:28:28.022Z</time></trkpt><trkpt lat="34.8337217" lon="-6.2333667"><ele>23.0</ele><time>2026-04-27T14:28:29.022Z</time></trkpt><trkpt lat="34.8338017" lon="-6.2332983"><ele>23.0</ele><time>2026-04-27T14:28:30.022Z</time></trkpt><trkpt lat="34.833875" lon="-6.2332383"><ele>23.0</ele><time>2026-04-27T14:28:31.022Z</time></trkpt><trkpt lat="34.833935" lon="-6.2331817"><ele>23.0</ele><time>2026-04-27T14:28:32.022Z</time></trkpt><trkpt lat="34.8339883" lon="-6.2331367"><ele>23.0</ele><time>2026-04-27T14:28:33.022Z</time></trkpt><trkpt lat="34.834045" lon="-6.23307"><ele>23.2</ele><time>2026-04-27T14:28:35.022Z</time></trkpt><trkpt lat="34.8340967" lon="-6.2330083"><ele>23.4</ele><time>2026-04-27T14:28:38.022Z</time></trkpt><trkpt lat="34.834165" lon="-6.2329367"><ele>23.599999999999998</ele><time>2026-04-27T14:28:41.022Z</time></trkpt><trkpt lat="34.8342683" lon="-6.2328533"><ele>23.799999999999997</ele><time>2026-04-27T14:28:43.022Z</time></trkpt><trkpt lat="34.8343433" lon="-6.2327867"><ele>24.0</ele><time>2026-04-27T14:28:44.022Z</time></trkpt><trkpt lat="34.834435" lon="-6.2327067"><ele>24.0</ele><time>2026-04-27T14:28:45.022Z</time></trkpt><trkpt lat="34.8345383" lon="-6.23261"><ele>24.0</ele><time>2026-04-27T14:28:46.022Z</time></trkpt><trkpt lat="34.8346517" lon="-6.2324933"><ele>24.0</ele><time>2026-04-27T14:28:47.022Z</time></trkpt><trkpt lat="34.83478" lon="-6.23237"><ele>24.0</ele><time>2026-04-27T14:28:48.022Z</time></trkpt><trkpt lat="34.8349083" lon="-6.2322533"><ele>24.666666666666664</ele><time>2026-04-27T14:28:49.022Z</time></trkpt><trkpt lat="34.8350383" lon="-6.2321417"><ele>25.333333333333332</ele><time>2026-04-27T14:28:50.022Z</time></trkpt><trkpt lat="34.835175" lon="-6.232015"><ele>26.0</ele><time>2026-04-27T14:28:51.022Z</time></trkpt><trkpt lat="34.8353083" lon="-6.231885"><ele>26.0</ele><time>2026-04-27T14:28:52.022Z</time></trkpt><trkpt lat="34.83543" lon="-6.2317517"><ele>26.0</ele><time>2026-04-27T14:28:53.022Z</time></trkpt><trkpt lat="34.8355667" lon="-6.2316117"><ele>26.0</ele><time>2026-04-27T14:28:54.022Z</time></trkpt><trkpt lat="34.8357233" lon="-6.2314567"><ele>25.333333333333332</ele><time>2026-04-27T14:28:55.022Z</time></trkpt><trkpt lat="34.8358917" lon="-6.23129"><ele>24.666666666666664</ele><time>2026-04-27T14:28:56.022Z</time></trkpt><trkpt lat="34.8360533" lon="-6.2311283"><ele>24.0</ele><time>2026-04-27T14:28:57.022Z</time></trkpt><trkpt lat="34.8362117" lon="-6.2309817"><ele>24.0</ele><time>2026-04-27T14:28:58.022Z</time></trkpt><trkpt lat="34.8363683" lon="-6.2308233"><ele>24.0</ele><time>2026-04-27T14:28:59.022Z</time></trkpt><trkpt lat="34.8365333" lon="-6.2306633"><ele>24.0</ele><time>2026-04-27T14:29:00.022Z</time></trkpt><trkpt lat="34.8367033" lon="-6.2304933"><ele>24.0</ele><time>2026-04-27T14:29:01.022Z</time></trkpt><trkpt lat="34.8368667" lon="-6.2303283"><ele>24.0</ele><time>2026-04-27T14:29:02.021Z</time></trkpt><trkpt lat="34.8370233" lon="-6.2301733"><ele>24.0</ele><time>2026-04-27T14:29:03.022Z</time></trkpt><trkpt lat="34.83717" lon="-6.2300317"><ele>24.0</ele><time>2026-04-27T14:29:04.022Z</time></trkpt><trkpt lat="34.8373167" lon="-6.229895"><ele>24.0</ele><time>2026-04-27T14:29:05.022Z</time></trkpt><trkpt lat="34.8374583" lon="-6.2297633"><ele>24.0</ele><time>2026-04-27T14:29:06.022Z</time></trkpt><trkpt lat="34.8376017" lon="-6.22963"><ele>23.333333333333332</ele><time>2026-04-27T14:29:07.022Z</time></trkpt><trkpt lat="34.8377383" lon="-6.2294967"><ele>22.666666666666664</ele><time>2026-04-27T14:29:08.022Z</time></trkpt><trkpt lat="34.8378683" lon="-6.2293583"><ele>22.0</ele><time>2026-04-27T14:29:09.022Z</time></trkpt><trkpt lat="34.8379917" lon="-6.229225"><ele>22.0</ele><time>2026-04-27T14:29:10.022Z</time></trkpt><trkpt lat="34.8381017" lon="-6.2290983"><ele>22.0</ele><time>2026-04-27T14:29:11.022Z</time></trkpt><trkpt lat="34.8382033" lon="-6.2289817"><ele>22.0</ele><time>2026-04-27T14:29:12.022Z</time></trkpt><trkpt lat="34.8382883" lon="-6.2288617"><ele>22.0</ele><time>2026-04-27T14:29:13.021Z</time></trkpt><trkpt lat="34.8383467" lon="-6.2287467"><ele>22.400000000000002</ele><time>2026-04-27T14:29:14.021Z</time></trkpt><trkpt lat="34.8383917" lon="-6.22862"><ele>22.8</ele><time>2026-04-27T14:29:15.022Z</time></trkpt><trkpt lat="34.8384183" lon="-6.2284983"><ele>23.2</ele><time>2026-04-27T14:29:16.022Z</time></trkpt><trkpt lat="34.8384383" lon="-6.2283717"><ele>23.6</ele><time>2026-04-27T14:29:17.022Z</time></trkpt><trkpt lat="34.83845" lon="-6.228245"><ele>24.0</ele><time>2026-04-27T14:29:18.022Z</time></trkpt><trkpt lat="34.8384683" lon="-6.2281283"><ele>24.0</ele><time>2026-04-27T14:29:19.022Z</time></trkpt><trkpt lat="34.8384883" lon="-6.228"><ele>24.0</ele><time>2026-04-27T14:29:20.022Z</time></trkpt><trkpt lat="34.8385" lon="-6.2278683"><ele>24.0</ele><time>2026-04-27T14:29:21.022Z</time></trkpt><trkpt lat="34.8385183" lon="-6.2277383"><ele>24.0</ele><time>2026-04-27T14:29:22.022Z</time></trkpt><trkpt lat="34.8385267" lon="-6.2276117"><ele>24.0</ele><time>2026-04-27T14:29:23.022Z</time></trkpt><trkpt lat="34.8385417" lon="-6.227505"><ele>24.0</ele><time>2026-04-27T14:29:24.022Z</time></trkpt><trkpt lat="34.8385583" lon="-6.2273867"><ele>24.0</ele><time>2026-04-27T14:29:25.021Z</time></trkpt><trkpt lat="34.8385783" lon="-6.2272717"><ele>24.0</ele><time>2026-04-27T14:29:26.022Z</time></trkpt><trkpt lat="34.838605" lon="-6.2271617"><ele>24.0</ele><time>2026-04-27T14:29:27.022Z</time></trkpt><trkpt lat="34.8386217" lon="-6.2270583"><ele>24.0</ele><time>2026-04-27T14:29:28.022Z</time></trkpt><trkpt lat="34.83864" lon="-6.2269417"><ele>25.0</ele><time>2026-04-27T14:29:29.022Z</time></trkpt><trkpt lat="34.8386567" lon="-6.2268267"><ele>26.0</ele><time>2026-04-27T14:29:30.022Z</time></trkpt><trkpt lat="34.8386867" lon="-6.2267067"><ele>27.0</ele><time>2026-04-27T14:29:31.022Z</time></trkpt><trkpt lat="34.8387367" lon="-6.22659"><ele>28.0</ele><time>2026-04-27T14:29:32.022Z</time></trkpt><trkpt lat="34.8388017" lon="-6.2264717"><ele>29.0</ele><time>2026-04-27T14:29:33.022Z</time></trkpt><trkpt lat="34.8388783" lon="-6.2263517"><ele>29.25</ele><time>2026-04-27T14:29:34.022Z</time></trkpt><trkpt lat="34.8389733" lon="-6.226265"><ele>29.5</ele><time>2026-04-27T14:29:35.022Z</time></trkpt><trkpt lat="34.8390667" lon="-6.226195"><ele>29.75</ele><time>2026-04-27T14:29:36.022Z</time></trkpt><trkpt lat="34.8391783" lon="-6.2261367"><ele>30.0</ele><time>2026-04-27T14:29:37.022Z</time></trkpt><trkpt lat="34.8393117" lon="-6.22609"><ele>30.0</ele><time>2026-04-27T14:29:38.022Z</time></trkpt><trkpt lat="34.8394633" lon="-6.226045"><ele>30.0</ele><time>2026-04-27T14:29:39.022Z</time></trkpt><trkpt lat="34.8396417" lon="-6.2260017"><ele>30.0</ele><time>2026-04-27T14:29:40.022Z</time></trkpt><trkpt lat="34.8398267" lon="-6.225965"><ele>30.0</ele><time>2026-04-27T14:29:41.022Z</time></trkpt><trkpt lat="34.840005" lon="-6.2259367"><ele>30.0</ele><time>2026-04-27T14:29:42.022Z</time></trkpt><trkpt lat="34.84017" lon="-6.225905"><ele>30.0</ele><time>2026-04-27T14:29:43.022Z</time></trkpt><trkpt lat="34.8403183" lon="-6.22587"><ele>29.5</ele><time>2026-04-27T14:29:44.022Z</time></trkpt><trkpt lat="34.84045" lon="-6.2258217"><ele>29.0</ele><time>2026-04-27T14:29:45.022Z</time></trkpt><trkpt lat="34.8405767" lon="-6.2257467"><ele>28.5</ele><time>2026-04-27T14:29:46.022Z</time></trkpt><trkpt lat="34.8406917" lon="-6.2256583"><ele>28.0</ele><time>2026-04-27T14:29:47.022Z</time></trkpt><trkpt lat="34.8408" lon="-6.2255517"><ele>28.0</ele><time>2026-04-27T14:29:48.022Z</time></trkpt><trkpt lat="34.8408983" lon="-6.225425"><ele>28.0</ele><time>2026-04-27T14:29:49.022Z</time></trkpt><trkpt lat="34.8409983" lon="-6.225275"><ele>28.0</ele><time>2026-04-27T14:29:50.022Z</time></trkpt><trkpt lat="34.8411067" lon="-6.2251183"><ele>26.666666666666668</ele><time>2026-04-27T14:29:51.022Z</time></trkpt><trkpt lat="34.841215" lon="-6.2249667"><ele>25.333333333333336</ele><time>2026-04-27T14:29:52.022Z</time></trkpt><trkpt lat="34.84132" lon="-6.224825"><ele>24.0</ele><time>2026-04-27T14:29:53.022Z</time></trkpt><trkpt lat="34.8414233" lon="-6.2246817"><ele>24.0</ele><time>2026-04-27T14:29:54.022Z</time></trkpt><trkpt lat="34.8415367" lon="-6.22454"><ele>24.0</ele><time>2026-04-27T14:29:55.022Z</time></trkpt><trkpt lat="34.8416583" lon="-6.2243867"><ele>24.0</ele><time>2026-04-27T14:29:56.022Z</time></trkpt><trkpt lat="34.8417867" lon="-6.2242217"><ele>23.333333333333332</ele><time>2026-04-27T14:29:57.022Z</time></trkpt><trkpt lat="34.841915" lon="-6.224055"><ele>22.666666666666664</ele><time>2026-04-27T14:29:58.022Z</time></trkpt><trkpt lat="34.842035" lon="-6.2238967"><ele>22.0</ele><time>2026-04-27T14:29:59.022Z</time></trkpt><trkpt lat="34.842155" lon="-6.2237433"><ele>22.0</ele><time>2026-04-27T14:30:00.022Z</time></trkpt><trkpt lat="34.8422717" lon="-6.22359"><ele>22.0</ele><time>2026-04-27T14:30:01.022Z</time></trkpt><trkpt lat="34.8423917" lon="-6.2234383"><ele>22.0</ele><time>2026-04-27T14:30:02.021Z</time></trkpt><trkpt lat="34.8425133" lon="-6.22328"><ele>20.666666666666664</ele><time>2026-04-27T14:30:03.022Z</time></trkpt><trkpt lat="34.8426317" lon="-6.2231267"><ele>19.333333333333332</ele><time>2026-04-27T14:30:04.022Z</time></trkpt><trkpt lat="34.842755" lon="-6.2229667"><ele>18.0</ele><time>2026-04-27T14:30:05.021Z</time></trkpt><trkpt lat="34.842875" lon="-6.222815"><ele>18.0</ele><time>2026-04-27T14:30:06.022Z</time></trkpt><trkpt lat="34.8429817" lon="-6.22267"><ele>18.0</ele><time>2026-04-27T14:30:07.022Z</time></trkpt><trkpt lat="34.8430833" lon="-6.22253"><ele>18.0</ele><time>2026-04-27T14:30:08.022Z</time></trkpt><trkpt lat="34.8431833" lon="-6.2223967"><ele>18.0</ele><time>2026-04-27T14:30:09.022Z</time></trkpt><trkpt lat="34.8432867" lon="-6.222265"><ele>18.0</ele><time>2026-04-27T14:30:10.022Z</time></trkpt><trkpt lat="34.84339" lon="-6.2221383"><ele>18.0</ele><time>2026-04-27T14:30:11.022Z</time></trkpt><trkpt lat="34.8434883" lon="-6.222015"><ele>18.0</ele><time>2026-04-27T14:30:12.022Z</time></trkpt><trkpt lat="34.8435867" lon="-6.2218883"><ele>18.0</ele><time>2026-04-27T14:30:13.022Z</time></trkpt><trkpt lat="34.8436783" lon="-6.2217683"><ele>18.0</ele><time>2026-04-27T14:30:14.022Z</time></trkpt><trkpt lat="34.843765" lon="-6.2216517"><ele>18.0</ele><time>2026-04-27T14:30:15.022Z</time></trkpt><trkpt lat="34.8438417" lon="-6.2215467"><ele>18.0</ele><time>2026-04-27T14:30:16.022Z</time></trkpt><trkpt lat="34.8439183" lon="-6.2214467"><ele>18.0</ele><time>2026-04-27T14:30:17.022Z</time></trkpt><trkpt lat="34.8439917" lon="-6.221345"><ele>18.0</ele><time>2026-04-27T14:30:18.021Z</time></trkpt><trkpt lat="34.8440617" lon="-6.2212317"><ele>18.0</ele><time>2026-04-27T14:30:19.022Z</time></trkpt><trkpt lat="34.8441417" lon="-6.221125"><ele>18.0</ele><time>2026-04-27T14:30:20.022Z</time></trkpt><trkpt lat="34.8442167" lon="-6.221015"><ele>18.0</ele><time>2026-04-27T14:30:21.022Z</time></trkpt><trkpt lat="34.844285" lon="-6.2209133"><ele>18.0</ele><time>2026-04-27T14:30:22.022Z</time></trkpt><trkpt lat="34.84435" lon="-6.22082"><ele>18.0</ele><time>2026-04-27T14:30:23.022Z</time></trkpt><trkpt lat="34.8444067" lon="-6.22072"><ele>18.0</ele><time>2026-04-27T14:30:24.022Z</time></trkpt><trkpt lat="34.844465" lon="-6.220615"><ele>18.0</ele><time>2026-04-27T14:30:25.021Z</time></trkpt><trkpt lat="34.8445167" lon="-6.220505"><ele>18.0</ele><time>2026-04-27T14:30:26.022Z</time></trkpt><trkpt lat="34.8445633" lon="-6.22041"><ele>18.0</ele><time>2026-04-27T14:30:27.022Z</time></trkpt><trkpt lat="34.8446133" lon="-6.2203117"><ele>18.0</ele><time>2026-04-27T14:30:28.022Z</time></trkpt><trkpt lat="34.8446583" lon="-6.2202067"><ele>18.0</ele><time>2026-04-27T14:30:29.021Z</time></trkpt><trkpt lat="34.8447033" lon="-6.220105"><ele>18.0</ele><time>2026-04-27T14:30:30.022Z</time></trkpt><trkpt lat="34.84474" lon="-6.2199967"><ele>18.0</ele><time>2026-04-27T14:30:31.022Z</time></trkpt><trkpt lat="34.8447767" lon="-6.2198883"><ele>18.0</ele><time>2026-04-27T14:30:32.022Z</time></trkpt><trkpt lat="34.84481" lon="-6.2197833"><ele>18.0</ele><time>2026-04-27T14:30:33.022Z</time></trkpt><trkpt lat="34.84484" lon="-6.2196717"><ele>18.0</ele><time>2026-04-27T14:30:34.022Z</time></trkpt><trkpt lat="34.8448633" lon="-6.21956"><ele>18.0</ele><time>2026-04-27T14:30:35.022Z</time></trkpt><trkpt lat="34.8448883" lon="-6.2194517"><ele>17.8</ele><time>2026-04-27T14:30:36.022Z</time></trkpt><trkpt lat="34.84491" lon="-6.219345"><ele>17.6</ele><time>2026-04-27T14:30:37.022Z</time></trkpt><trkpt lat="34.8449183" lon="-6.21923"><ele>17.4</ele><time>2026-04-27T14:30:38.022Z</time></trkpt><trkpt lat="34.8449217" lon="-6.219105"><ele>17.2</ele><time>2026-04-27T14:30:39.022Z</time></trkpt><trkpt lat="34.8449233" lon="-6.218985"><ele>17.0</ele><time>2026-04-27T14:30:40.022Z</time></trkpt><trkpt lat="34.8449283" lon="-6.21887"><ele>16.666666666666668</ele><time>2026-04-27T14:30:41.022Z</time></trkpt><trkpt lat="34.844935" lon="-6.2187617"><ele>16.333333333333336</ele><time>2026-04-27T14:30:42.022Z</time></trkpt><trkpt lat="34.8449367" lon="-6.2186617"><ele>16.0</ele><time>2026-04-27T14:30:43.021Z</time></trkpt><trkpt lat="34.8449433" lon="-6.2185767"><ele>15.666666666666668</ele><time>2026-04-27T14:30:44.021Z</time></trkpt><trkpt lat="34.844945" lon="-6.21849"><ele>15.333333333333334</ele><time>2026-04-27T14:30:45.021Z</time></trkpt><trkpt lat="34.84494" lon="-6.2183917"><ele>15.0</ele><time>2026-04-27T14:30:46.021Z</time></trkpt><trkpt lat="34.8449433" lon="-6.21829"><ele>15.0</ele><time>2026-04-27T14:30:47.021Z</time></trkpt><trkpt lat="34.8449467" lon="-6.2181933"><ele>15.0</ele><time>2026-04-27T14:30:48.021Z</time></trkpt><trkpt lat="34.8449517" lon="-6.218095"><ele>15.0</ele><time>2026-04-27T14:30:49.021Z</time></trkpt><trkpt lat="34.844955" lon="-6.217985"><ele>15.0</ele><time>2026-04-27T14:30:50.021Z</time></trkpt><trkpt lat="34.84496" lon="-6.21787"><ele>15.0</ele><time>2026-04-27T14:30:51.021Z</time></trkpt><trkpt lat="34.8449633" lon="-6.2177583"><ele>15.0</ele><time>2026-04-27T14:30:52.021Z</time></trkpt><trkpt lat="34.84497" lon="-6.2176583"><ele>15.0</ele><time>2026-04-27T14:30:53.021Z</time></trkpt><trkpt lat="34.8449817" lon="-6.2175617"><ele>15.0</ele><time>2026-04-27T14:30:54.02Z</time></trkpt><trkpt lat="34.8449867" lon="-6.2174583"><ele>15.0</ele><time>2026-04-27T14:30:55.021Z</time></trkpt><trkpt lat="34.84499" lon="-6.217355"><ele>15.0</ele><time>2026-04-27T14:30:56.021Z</time></trkpt><trkpt lat="34.844995" lon="-6.21725"><ele>15.0</ele><time>2026-04-27T14:30:57.021Z</time></trkpt><trkpt lat="34.844995" lon="-6.21715"><ele>15.0</ele><time>2026-04-27T14:30:58.021Z</time></trkpt><trkpt lat="34.84499" lon="-6.2170583"><ele>15.285714285714286</ele><time>2026-04-27T14:30:59.021Z</time></trkpt><trkpt lat="34.8449917" lon="-6.2169733"><ele>15.57142857142857</ele><time>2026-04-27T14:31:00.021Z</time></trkpt><trkpt lat="34.8449833" lon="-6.216895"><ele>15.857142857142856</ele><time>2026-04-27T14:31:01.021Z</time></trkpt><trkpt lat="34.844985" lon="-6.2168183"><ele>16.142857142857142</ele><time>2026-04-27T14:31:02.021Z</time></trkpt><trkpt lat="34.8449883" lon="-6.2167367"><ele>16.428571428571427</ele><time>2026-04-27T14:31:03.021Z</time></trkpt><trkpt lat="34.844985" lon="-6.2166467"><ele>16.71428571428571</ele><time>2026-04-27T14:31:04.021Z</time></trkpt><trkpt lat="34.844985" lon="-6.2165567"><ele>17.0</ele><time>2026-04-27T14:31:05.02Z</time></trkpt><trkpt lat="34.8449817" lon="-6.2164633"><ele>17.0</ele><time>2026-04-27T14:31:06.021Z</time></trkpt><trkpt lat="34.844985" lon="-6.21638"><ele>17.0</ele><time>2026-04-27T14:31:07.021Z</time></trkpt><trkpt lat="34.8450267" lon="-6.2162667"><ele>17.0</ele><time>2026-04-27T14:31:09.02Z</time></trkpt><trkpt lat="34.845105" lon="-6.216255"><ele>17.0</ele><time>2026-04-27T14:31:11.021Z</time></trkpt><trkpt lat="34.8452" lon="-6.2163217"><ele>17.0</ele><time>2026-04-27T14:31:13.021Z</time></trkpt><trkpt lat="34.8452683" lon="-6.2163467"><ele>17.0</ele><time>2026-04-27T14:31:14.021Z</time></trkpt><trkpt lat="34.845345" lon="-6.21636"><ele>17.2</ele><time>2026-04-27T14:31:15.021Z</time></trkpt><trkpt lat="34.8454117" lon="-6.216365"><ele>17.4</ele><time>2026-04-27T14:31:16.021Z</time></trkpt><trkpt lat="34.845535" lon="-6.216385"><ele>17.6</ele><time>2026-04-27T14:31:18.021Z</time></trkpt><trkpt lat="34.8455983" lon="-6.2163867"><ele>17.8</ele><time>2026-04-27T14:31:19.021Z</time></trkpt><trkpt lat="34.8457067" lon="-6.21639"><ele>18.0</ele><time>2026-04-27T14:31:21.021Z</time></trkpt><trkpt lat="34.8458183" lon="-6.2163983"><ele>18.0</ele><time>2026-04-27T14:31:23.021Z</time></trkpt><trkpt lat="34.8459367" lon="-6.21641"><ele>18.0</ele><time>2026-04-27T14:31:25.021Z</time></trkpt><trkpt lat="34.84603" lon="-6.21642"><ele>18.0</ele><time>2026-04-27T14:31:28.021Z</time></trkpt><trkpt lat="34.8461017" lon="-6.2164217"><ele>18.0</ele><time>2026-04-27T14:31:34.021Z</time></trkpt><trkpt lat="34.8461917" lon="-6.2164367"><ele>18.0</ele><time>2026-04-27T14:31:38.021Z</time></trkpt><trkpt lat="34.846295" lon="-6.2164517"><ele>18.0</ele><time>2026-04-27T14:31:40.021Z</time></trkpt><trkpt lat="34.846385" lon="-6.216455"><ele>18.0</ele><time>2026-04-27T14:31:42.02Z</time></trkpt><trkpt lat="34.84646" lon="-6.216465"><ele>18.0</ele><time>2026-04-27T14:31:46.021Z</time></trkpt><trkpt lat="34.8465567" lon="-6.2164733"><ele>18.0</ele><time>2026-04-27T14:31:49.021Z</time></trkpt><trkpt lat="34.84665" lon="-6.2164833"><ele>18.0</ele><time>2026-04-27T14:31:51.021Z</time></trkpt><trkpt lat="34.8467533" lon="-6.216495"><ele>18.0</ele><time>2026-04-27T14:31:53.021Z</time></trkpt><trkpt lat="34.846885" lon="-6.2165017"><ele>18.0</ele><time>2026-04-27T14:31:55.021Z</time></trkpt><trkpt lat="34.84696" lon="-6.2165117"><ele>18.0</ele><time>2026-04-27T14:31:56.021Z</time></trkpt><trkpt lat="34.84704" lon="-6.21653"><ele>18.0</ele><time>2026-04-27T14:31:57.021Z</time></trkpt><trkpt lat="34.8471167" lon="-6.21655"><ele>18.0</ele><time>2026-04-27T14:31:58.021Z</time></trkpt><trkpt lat="34.847195" lon="-6.2165683"><ele>18.0</ele><time>2026-04-27T14:31:59.021Z</time></trkpt><trkpt lat="34.8472767" lon="-6.2165883"><ele>18.000000000000004</ele><time>2026-04-27T14:32:00.021Z</time></trkpt><trkpt lat="34.84735" lon="-6.216605"><ele>18.0</ele><time>2026-04-27T14:32:01.021Z</time></trkpt><trkpt lat="34.84742" lon="-6.216615"><ele>18.0</ele><time>2026-04-27T14:32:02.021Z</time></trkpt><trkpt lat="34.84749" lon="-6.2166283"><ele>18.0</ele><time>2026-04-27T14:32:03.021Z</time></trkpt><trkpt lat="34.8475617" lon="-6.216635"><ele>18.0</ele><time>2026-04-27T14:32:04.02Z</time></trkpt><trkpt lat="34.8476333" lon="-6.2166467"><ele>18.000000000000004</ele><time>2026-04-27T14:32:05.021Z</time></trkpt><trkpt lat="34.8477083" lon="-6.21665"><ele>18.0</ele><time>2026-04-27T14:32:06.021Z</time></trkpt><trkpt lat="34.8477883" lon="-6.2166517"><ele>18.0</ele><time>2026-04-27T14:32:07.021Z</time></trkpt><trkpt lat="34.8478717" lon="-6.21666"><ele>18.0</ele><time>2026-04-27T14:32:08.021Z</time></trkpt><trkpt lat="34.8479417" lon="-6.2166683"><ele>18.0</ele><time>2026-04-27T14:32:09.02Z</time></trkpt><trkpt lat="34.8480133" lon="-6.2166817"><ele>18.0</ele><time>2026-04-27T14:32:10.021Z</time></trkpt><trkpt lat="34.8480767" lon="-6.2166883"><ele>18.0</ele><time>2026-04-27T14:32:11.021Z</time></trkpt><trkpt lat="34.8481967" lon="-6.216705"><ele>18.0</ele><time>2026-04-27T14:32:13.02Z</time></trkpt><trkpt lat="34.8483083" lon="-6.216715"><ele>18.0</ele><time>2026-04-27T14:32:15.02Z</time></trkpt><trkpt lat="34.8484433" lon="-6.2167233"><ele>18.0</ele><time>2026-04-27T14:32:17.02Z</time></trkpt><trkpt lat="34.848525" lon="-6.2167267"><ele>18.0</ele><time>2026-04-27T14:32:18.021Z</time></trkpt><trkpt lat="34.84862" lon="-6.21673"><ele>18.0</ele><time>2026-04-27T14:32:19.021Z</time></trkpt><trkpt lat="34.84872" lon="-6.2167367"><ele>18.0</ele><time>2026-04-27T14:32:20.021Z</time></trkpt><trkpt lat="34.84883" lon="-6.2167583"><ele>17.6</ele><time>2026-04-27T14:32:21.021Z</time></trkpt><trkpt lat="34.8489367" lon="-6.2167783"><ele>17.200000000000003</ele><time>2026-04-27T14:32:22.021Z</time></trkpt><trkpt lat="34.8490367" lon="-6.216785"><ele>16.8</ele><time>2026-04-27T14:32:23.021Z</time></trkpt><trkpt lat="34.8491267" lon="-6.2167933"><ele>16.400000000000002</ele><time>2026-04-27T14:32:24.021Z</time></trkpt><trkpt lat="34.8492167" lon="-6.216805"><ele>16.0</ele><time>2026-04-27T14:32:25.021Z</time></trkpt><trkpt lat="34.8493167" lon="-6.21682"><ele>15.499999999999998</ele><time>2026-04-27T14:32:26.021Z</time></trkpt><trkpt lat="34.849405" lon="-6.21683"><ele>15.0</ele><time>2026-04-27T14:32:27.021Z</time></trkpt><trkpt lat="34.8494867" lon="-6.2168383"><ele>14.5</ele><time>2026-04-27T14:32:28.021Z</time></trkpt><trkpt lat="34.84958" lon="-6.21685"><ele>14.0</ele><time>2026-04-27T14:32:29.021Z</time></trkpt><trkpt lat="34.84967" lon="-6.2168617"><ele>13.499999999999998</ele><time>2026-04-27T14:32:30.021Z</time></trkpt><trkpt lat="34.8497517" lon="-6.2168717"><ele>13.0</ele><time>2026-04-27T14:32:31.021Z</time></trkpt><trkpt lat="34.8498317" lon="-6.216875"><ele>12.999999999999998</ele><time>2026-04-27T14:32:32.021Z</time></trkpt><trkpt lat="34.8499117" lon="-6.2168867"><ele>13.0</ele><time>2026-04-27T14:32:33.021Z</time></trkpt><trkpt lat="34.8500017" lon="-6.2168967"><ele>13.0</ele><time>2026-04-27T14:32:34.02Z</time></trkpt><trkpt lat="34.850095" lon="-6.2169083"><ele>13.0</ele><time>2026-04-27T14:32:35.021Z</time></trkpt><trkpt lat="34.8501867" lon="-6.2169167"><ele>12.999999999999998</ele><time>2026-04-27T14:32:36.021Z</time></trkpt><trkpt lat="34.8502617" lon="-6.216925"><ele>13.0</ele><time>2026-04-27T14:32:37.021Z</time></trkpt><trkpt lat="34.8503417" lon="-6.2169367"><ele>12.999999999999998</ele><time>2026-04-27T14:32:38.021Z</time></trkpt><trkpt lat="34.8504183" lon="-6.2169583"><ele>13.0</ele><time>2026-04-27T14:32:39.021Z</time></trkpt><trkpt lat="34.8505017" lon="-6.216965"><ele>13.0</ele><time>2026-04-27T14:32:40.02Z</time></trkpt><trkpt lat="34.8505783" lon="-6.21697"><ele>13.0</ele><time>2026-04-27T14:32:41.02Z</time></trkpt><trkpt lat="34.85066" lon="-6.21697"><ele>12.999999999999998</ele><time>2026-04-27T14:32:42.021Z</time></trkpt><trkpt lat="34.85074" lon="-6.2169733"><ele>13.0</ele><time>2026-04-27T14:32:43.021Z</time></trkpt><trkpt lat="34.8508117" lon="-6.2169733"><ele>13.0</ele><time>2026-04-27T14:32:44.021Z</time></trkpt><trkpt lat="34.8509417" lon="-6.21699"><ele>13.0</ele><time>2026-04-27T14:32:46.021Z</time></trkpt><trkpt lat="34.8510217" lon="-6.217005"><ele>13.0</ele><time>2026-04-27T14:32:47.021Z</time></trkpt><trkpt lat="34.8511133" lon="-6.2170167"><ele>13.0</ele><time>2026-04-27T14:32:48.02Z</time></trkpt><trkpt lat="34.8512133" lon="-6.21704"><ele>13.0</ele><time>2026-04-27T14:32:49.021Z</time></trkpt><trkpt lat="34.8513283" lon="-6.2170617"><ele>12.5</ele><time>2026-04-27T14:32:50.021Z</time></trkpt><trkpt lat="34.851445" lon="-6.217085"><ele>12.0</ele><time>2026-04-27T14:32:51.021Z</time></trkpt><trkpt lat="34.85155" lon="-6.2171183"><ele>11.5</ele><time>2026-04-27T14:32:52.021Z</time></trkpt><trkpt lat="34.8516583" lon="-6.2171483"><ele>11.0</ele><time>2026-04-27T14:32:53.021Z</time></trkpt><trkpt lat="34.85177" lon="-6.2171917"><ele>10.25</ele><time>2026-04-27T14:32:54.021Z</time></trkpt><trkpt lat="34.851875" lon="-6.21723"><ele>9.5</ele><time>2026-04-27T14:32:55.021Z</time></trkpt><trkpt lat="34.851985" lon="-6.2172817"><ele>8.75</ele><time>2026-04-27T14:32:56.021Z</time></trkpt><trkpt lat="34.8520917" lon="-6.2173433"><ele>8.0</ele><time>2026-04-27T14:32:57.021Z</time></trkpt><trkpt lat="34.8521933" lon="-6.2174083"><ele>8.0</ele><time>2026-04-27T14:32:58.021Z</time></trkpt><trkpt lat="34.852295" lon="-6.21748"><ele>8.0</ele><time>2026-04-27T14:32:59.021Z</time></trkpt><trkpt lat="34.852395" lon="-6.21756"><ele>8.0</ele><time>2026-04-27T14:33:00.021Z</time></trkpt><trkpt lat="34.8524917" lon="-6.21765"><ele>8.0</ele><time>2026-04-27T14:33:01.02Z</time></trkpt><trkpt lat="34.8525817" lon="-6.2177383"><ele>7.25</ele><time>2026-04-27T14:33:02.021Z</time></trkpt><trkpt lat="34.85268" lon="-6.2178367"><ele>6.5</ele><time>2026-04-27T14:33:03.021Z</time></trkpt><trkpt lat="34.852785" lon="-6.2179517"><ele>5.75</ele><time>2026-04-27T14:33:04.021Z</time></trkpt><trkpt lat="34.8528833" lon="-6.2180633"><ele>5.0</ele><time>2026-04-27T14:33:05.021Z</time></trkpt><trkpt lat="34.8529733" lon="-6.2181817"><ele>5.0</ele><time>2026-04-27T14:33:06.021Z</time></trkpt><trkpt lat="34.853065" lon="-6.2183217"><ele>5.0</ele><time>2026-04-27T14:33:07.021Z</time></trkpt><trkpt lat="34.85317" lon="-6.21849"><ele>5.0</ele><time>2026-04-27T14:33:08.021Z</time></trkpt><trkpt lat="34.8532983" lon="-6.2186983"><ele>5.0</ele><time>2026-04-27T14:33:09.021Z</time></trkpt><trkpt lat="34.8534133" lon="-6.218895"><ele>5.0</ele><time>2026-04-27T14:33:10.021Z</time></trkpt><trkpt lat="34.85351" lon="-6.2190983"><ele>5.0</ele><time>2026-04-27T14:33:11.021Z</time></trkpt><trkpt lat="34.853595" lon="-6.2193067"><ele>5.333333333333334</ele><time>2026-04-27T14:33:12.021Z</time></trkpt><trkpt lat="34.8536767" lon="-6.2195133"><ele>5.666666666666667</ele><time>2026-04-27T14:33:13.021Z</time></trkpt><trkpt lat="34.8537333" lon="-6.219705"><ele>6.0</ele><time>2026-04-27T14:33:14.021Z</time></trkpt><trkpt lat="34.85378" lon="-6.2198883"><ele>6.25</ele><time>2026-04-27T14:33:15.021Z</time></trkpt><trkpt lat="34.8538117" lon="-6.2200617"><ele>6.5</ele><time>2026-04-27T14:33:16.021Z</time></trkpt><trkpt lat="34.8538433" lon="-6.2202083"><ele>6.75</ele><time>2026-04-27T14:33:17.021Z</time></trkpt><trkpt lat="34.853865" lon="-6.220335"><ele>7.0</ele><time>2026-04-27T14:33:18.021Z</time></trkpt><trkpt lat="34.85389" lon="-6.2204467"><ele>7.0</ele><time>2026-04-27T14:33:19.021Z</time></trkpt><trkpt lat="34.85391" lon="-6.2205567"><ele>6.999999999999999</ele><time>2026-04-27T14:33:20.02Z</time></trkpt><trkpt lat="34.8539383" lon="-6.220665"><ele>6.999999999999999</ele><time>2026-04-27T14:33:21.021Z</time></trkpt><trkpt lat="34.853965" lon="-6.2207867"><ele>7.0</ele><time>2026-04-27T14:33:22.021Z</time></trkpt><trkpt lat="34.8539967" lon="-6.2209183"><ele>7.0</ele><time>2026-04-27T14:33:23.021Z</time></trkpt><trkpt lat="34.85402" lon="-6.221055"><ele>7.0</ele><time>2026-04-27T14:33:24.021Z</time></trkpt><trkpt lat="34.8540467" lon="-6.2211983"><ele>7.0</ele><time>2026-04-27T14:33:25.021Z</time></trkpt><trkpt lat="34.8540717" lon="-6.2213483"><ele>7.0</ele><time>2026-04-27T14:33:26.02Z</time></trkpt><trkpt lat="34.8541" lon="-6.2215017"><ele>7.0</ele><time>2026-04-27T14:33:27.021Z</time></trkpt><trkpt lat="34.8541267" lon="-6.2216567"><ele>7.25</ele><time>2026-04-27T14:33:28.021Z</time></trkpt><trkpt lat="34.8541617" lon="-6.2218133"><ele>7.5</ele><time>2026-04-27T14:33:29.02Z</time></trkpt><trkpt lat="34.8541917" lon="-6.2219517"><ele>7.75</ele><time>2026-04-27T14:33:30.021Z</time></trkpt><trkpt lat="34.854235" lon="-6.2221067"><ele>8.0</ele><time>2026-04-27T14:33:31.021Z</time></trkpt><trkpt lat="34.8542867" lon="-6.2222617"><ele>7.5</ele><time>2026-04-27T14:33:32.021Z</time></trkpt><trkpt lat="34.8543433" lon="-6.2224033"><ele>7.0</ele><time>2026-04-27T14:33:33.021Z</time></trkpt><trkpt lat="34.8544083" lon="-6.2225433"><ele>6.5</ele><time>2026-04-27T14:33:34.021Z</time></trkpt><trkpt lat="34.8544717" lon="-6.2226767"><ele>6.0</ele><time>2026-04-27T14:33:35.021Z</time></trkpt><trkpt lat="34.8545317" lon="-6.2228033"><ele>6.0</ele><time>2026-04-27T14:33:36.021Z</time></trkpt><trkpt lat="34.854595" lon="-6.2229183"><ele>6.0</ele><time>2026-04-27T14:33:37.02Z</time></trkpt><trkpt lat="34.8546633" lon="-6.22301"><ele>6.0</ele><time>2026-04-27T14:33:38.021Z</time></trkpt><trkpt lat="34.85473" lon="-6.2231033"><ele>6.0</ele><time>2026-04-27T14:33:39.021Z</time></trkpt><trkpt lat="34.8548083" lon="-6.223195"><ele>6.0</ele><time>2026-04-27T14:33:40.021Z</time></trkpt><trkpt lat="34.8548767" lon="-6.2232817"><ele>6.166666666666667</ele><time>2026-04-27T14:33:41.02Z</time></trkpt><trkpt lat="34.8549533" lon="-6.2233683"><ele>6.333333333333334</ele><time>2026-04-27T14:33:42.021Z</time></trkpt><trkpt lat="34.8550233" lon="-6.22345"><ele>6.5</ele><time>2026-04-27T14:33:43.021Z</time></trkpt><trkpt lat="34.85506" lon="-6.2235217"><ele>6.666666666666667</ele><time>2026-04-27T14:33:44.021Z</time></trkpt><trkpt lat="34.8551167" lon="-6.2235717"><ele>6.833333333333334</ele><time>2026-04-27T14:33:45.02Z</time></trkpt><trkpt lat="34.855165" lon="-6.2236233"><ele>7.0</ele><time>2026-04-27T14:33:46.021Z</time></trkpt><trkpt lat="34.855255" lon="-6.22368"><ele>7.0</ele><time>2026-04-27T14:33:48.021Z</time></trkpt><trkpt lat="34.85531" lon="-6.2237233"><ele>6.999999999999999</ele><time>2026-04-27T14:33:50.021Z</time></trkpt><trkpt lat="34.8553883" lon="-6.2237717"><ele>6.999999999999999</ele><time>2026-04-27T14:33:53.021Z</time></trkpt><trkpt lat="34.855455" lon="-6.2238133"><ele>7.0</ele><time>2026-04-27T14:33:55.02Z</time></trkpt><trkpt lat="34.855565" lon="-6.223895"><ele>7.0</ele><time>2026-04-27T14:33:57.021Z</time></trkpt><trkpt lat="34.855655" lon="-6.2239633"><ele>6.333333333333334</ele><time>2026-04-27T14:33:58.021Z</time></trkpt><trkpt lat="34.855765" lon="-6.224055"><ele>5.666666666666667</ele><time>2026-04-27T14:33:59.021Z</time></trkpt><trkpt lat="34.855905" lon="-6.2241517"><ele>5.0</ele><time>2026-04-27T14:34:00.021Z</time></trkpt><trkpt lat="34.856045" lon="-6.2242467"><ele>4.666666666666667</ele><time>2026-04-27T14:34:01.021Z</time></trkpt><trkpt lat="34.8561833" lon="-6.2243317"><ele>4.333333333333333</ele><time>2026-04-27T14:34:02.021Z</time></trkpt><trkpt lat="34.8563367" lon="-6.2244283"><ele>4.0</ele><time>2026-04-27T14:34:03.021Z</time></trkpt><trkpt lat="34.856505" lon="-6.2245467"><ele>4.0</ele><time>2026-04-27T14:34:04.021Z</time></trkpt><trkpt lat="34.85668" lon="-6.224655"><ele>4.0</ele><time>2026-04-27T14:34:05.021Z</time></trkpt><trkpt lat="34.85684" lon="-6.2247517"><ele>4.0</ele><time>2026-04-27T14:34:06.021Z</time></trkpt><trkpt lat="34.8569867" lon="-6.2248417"><ele>4.0</ele><time>2026-04-27T14:34:07.02Z</time></trkpt><trkpt lat="34.8571333" lon="-6.2249217"><ele>4.0</ele><time>2026-04-27T14:34:08.02Z</time></trkpt><trkpt lat="34.8572883" lon="-6.2250133"><ele>4.0</ele><time>2026-04-27T14:34:09.021Z</time></trkpt><trkpt lat="34.8574533" lon="-6.225105"><ele>4.333333333333333</ele><time>2026-04-27T14:34:10.021Z</time></trkpt><trkpt lat="34.857625" lon="-6.22521"><ele>4.666666666666667</ele><time>2026-04-27T14:34:11.021Z</time></trkpt><trkpt lat="34.857795" lon="-6.225315"><ele>5.0</ele><time>2026-04-27T14:34:12.021Z</time></trkpt><trkpt lat="34.8579517" lon="-6.22541"><ele>5.0</ele><time>2026-04-27T14:34:13.02Z</time></trkpt><trkpt lat="34.8581017" lon="-6.2255"><ele>5.0</ele><time>2026-04-27T14:34:14.021Z</time></trkpt><trkpt lat="34.8582383" lon="-6.2255867"><ele>5.0</ele><time>2026-04-27T14:34:15.021Z</time></trkpt><trkpt lat="34.8583733" lon="-6.22567"><ele>4.666666666666667</ele><time>2026-04-27T14:34:16.021Z</time></trkpt><trkpt lat="34.8585117" lon="-6.22575"><ele>4.333333333333333</ele><time>2026-04-27T14:34:17.021Z</time></trkpt><trkpt lat="34.85865" lon="-6.225835"><ele>4.0</ele><time>2026-04-27T14:34:18.021Z</time></trkpt><trkpt lat="34.8587867" lon="-6.225915"><ele>4.0</ele><time>2026-04-27T14:34:19.021Z</time></trkpt><trkpt lat="34.858915" lon="-6.2259983"><ele>4.0</ele><time>2026-04-27T14:34:20.021Z</time></trkpt><trkpt lat="34.859035" lon="-6.2260733"><ele>4.0</ele><time>2026-04-27T14:34:21.021Z</time></trkpt><trkpt lat="34.85914" lon="-6.22614"><ele>4.0</ele><time>2026-04-27T14:34:22.021Z</time></trkpt><trkpt lat="34.8592433" lon="-6.2262083"><ele>4.333333333333333</ele><time>2026-04-27T14:34:23.021Z</time></trkpt><trkpt lat="34.8593333" lon="-6.2262667"><ele>4.666666666666666</ele><time>2026-04-27T14:34:24.021Z</time></trkpt><trkpt lat="34.85941" lon="-6.2263167"><ele>5.0</ele><time>2026-04-27T14:34:25.021Z</time></trkpt><trkpt lat="34.859475" lon="-6.2263583"><ele>5.333333333333333</ele><time>2026-04-27T14:34:26.021Z</time></trkpt><trkpt lat="34.8595633" lon="-6.2264133"><ele>5.666666666666667</ele><time>2026-04-27T14:34:28.02Z</time></trkpt><trkpt lat="34.8596233" lon="-6.22644"><ele>6.0</ele><time>2026-04-27T14:34:31.021Z</time></trkpt><trkpt lat="34.85972" lon="-6.2264733"><ele>5.8</ele><time>2026-04-27T14:34:40.021Z</time></trkpt><trkpt lat="34.8598083" lon="-6.2265"><ele>5.6</ele><time>2026-04-27T14:34:42.021Z</time></trkpt><trkpt lat="34.8598783" lon="-6.2265267"><ele>5.4</ele><time>2026-04-27T14:34:44.021Z</time></trkpt><trkpt lat="34.8599483" lon="-6.2266133"><ele>5.2</ele><time>2026-04-27T14:34:46.021Z</time></trkpt><trkpt lat="34.8599883" lon="-6.22674"><ele>5.0</ele><time>2026-04-27T14:34:48.021Z</time></trkpt><trkpt lat="34.8600083" lon="-6.22683"><ele>5.0</ele><time>2026-04-27T14:34:49.021Z</time></trkpt><trkpt lat="34.86003" lon="-6.2269317"><ele>5.0</ele><time>2026-04-27T14:34:50.021Z</time></trkpt><trkpt lat="34.8600733" lon="-6.2270433"><ele>5.0</ele><time>2026-04-27T14:34:51.021Z</time></trkpt><trkpt lat="34.8601533" lon="-6.22718"><ele>5.0</ele><time>2026-04-27T14:34:52.021Z</time></trkpt><trkpt lat="34.8602617" lon="-6.22734"><ele>5.666666666666667</ele><time>2026-04-27T14:34:53.021Z</time></trkpt><trkpt lat="34.860385" lon="-6.22751"><ele>6.333333333333334</ele><time>2026-04-27T14:34:54.021Z</time></trkpt><trkpt lat="34.8605167" lon="-6.2276833"><ele>7.0</ele><time>2026-04-27T14:34:55.021Z</time></trkpt><trkpt lat="34.8606333" lon="-6.227855"><ele>7.0</ele><time>2026-04-27T14:34:56.021Z</time></trkpt><trkpt lat="34.8607533" lon="-6.2280267"><ele>7.0</ele><time>2026-04-27T14:34:57.021Z</time></trkpt><trkpt lat="34.8608683" lon="-6.228195"><ele>7.0</ele><time>2026-04-27T14:34:58.02Z</time></trkpt><trkpt lat="34.86098" lon="-6.228355"><ele>7.333333333333334</ele><time>2026-04-27T14:34:59.021Z</time></trkpt><trkpt lat="34.8610933" lon="-6.2285167"><ele>7.666666666666666</ele><time>2026-04-27T14:35:00.021Z</time></trkpt><trkpt lat="34.861195" lon="-6.228685"><ele>8.0</ele><time>2026-04-27T14:35:01.021Z</time></trkpt><trkpt lat="34.861305" lon="-6.2288567"><ele>8.0</ele><time>2026-04-27T14:35:02.021Z</time></trkpt><trkpt lat="34.8614217" lon="-6.2290333"><ele>8.0</ele><time>2026-04-27T14:35:03.021Z</time></trkpt><trkpt lat="34.8615433" lon="-6.2292117"><ele>8.0</ele><time>2026-04-27T14:35:04.021Z</time></trkpt><trkpt lat="34.8616717" lon="-6.2294017"><ele>8.0</ele><time>2026-04-27T14:35:05.021Z</time></trkpt><trkpt lat="34.8618033" lon="-6.2295917"><ele>8.0</ele><time>2026-04-27T14:35:06.021Z</time></trkpt><trkpt lat="34.86193" lon="-6.2297817"><ele>8.0</ele><time>2026-04-27T14:35:07.021Z</time></trkpt><trkpt lat="34.86205" lon="-6.229955"><ele>8.333333333333332</ele><time>2026-04-27T14:35:08.021Z</time></trkpt><trkpt lat="34.86216" lon="-6.23012"><ele>8.666666666666666</ele><time>2026-04-27T14:35:09.021Z</time></trkpt><trkpt lat="34.862265" lon="-6.230275"><ele>9.0</ele><time>2026-04-27T14:35:10.021Z</time></trkpt><trkpt lat="34.86236" lon="-6.23042"><ele>9.0</ele><time>2026-04-27T14:35:11.021Z</time></trkpt><trkpt lat="34.8624467" lon="-6.2305417"><ele>9.0</ele><time>2026-04-27T14:35:12.021Z</time></trkpt><trkpt lat="34.862525" lon="-6.2306333"><ele>9.0</ele><time>2026-04-27T14:35:13.021Z</time></trkpt><trkpt lat="34.862605" lon="-6.2306917"><ele>9.0</ele><time>2026-04-27T14:35:14.021Z</time></trkpt><trkpt lat="34.8626867" lon="-6.2307267"><ele>9.0</ele><time>2026-04-27T14:35:15.021Z</time></trkpt><trkpt lat="34.8627867" lon="-6.2307367"><ele>9.5</ele><time>2026-04-27T14:35:16.021Z</time></trkpt><trkpt lat="34.8629" lon="-6.230735"><ele>10.0</ele><time>2026-04-27T14:35:17.021Z</time></trkpt><trkpt lat="34.863035" lon="-6.2307183"><ele>10.5</ele><time>2026-04-27T14:35:18.021Z</time></trkpt><trkpt lat="34.8631817" lon="-6.2307083"><ele>11.0</ele><time>2026-04-27T14:35:19.021Z</time></trkpt><trkpt lat="34.86332" lon="-6.230705"><ele>11.0</ele><time>2026-04-27T14:35:20.021Z</time></trkpt><trkpt lat="34.8634467" lon="-6.2307"><ele>11.0</ele><time>2026-04-27T14:35:21.021Z</time></trkpt><trkpt lat="34.8635617" lon="-6.230695"><ele>11.0</ele><time>2026-04-27T14:35:22.02Z</time></trkpt><trkpt lat="34.86367" lon="-6.2306967"><ele>11.0</ele><time>2026-04-27T14:35:23.021Z</time></trkpt><trkpt lat="34.8637767" lon="-6.2306967"><ele>10.5</ele><time>2026-04-27T14:35:24.019Z</time></trkpt><trkpt lat="34.8638967" lon="-6.2307083"><ele>10.0</ele><time>2026-04-27T14:35:25.02Z</time></trkpt><trkpt lat="34.8640283" lon="-6.2307217"><ele>9.5</ele><time>2026-04-27T14:35:26.02Z</time></trkpt><trkpt lat="34.864175" lon="-6.2307283"><ele>9.0</ele><time>2026-04-27T14:35:27.02Z</time></trkpt><trkpt lat="34.8643183" lon="-6.2307317"><ele>9.0</ele><time>2026-04-27T14:35:28.02Z</time></trkpt><trkpt lat="34.864455" lon="-6.230735"><ele>9.0</ele><time>2026-04-27T14:35:29.019Z</time></trkpt><trkpt lat="34.8645883" lon="-6.230735"><ele>9.0</ele><time>2026-04-27T14:35:30.02Z</time></trkpt><trkpt lat="34.8647333" lon="-6.2307367"><ele>9.0</ele><time>2026-04-27T14:35:31.02Z</time></trkpt><trkpt lat="34.864885" lon="-6.230735"><ele>9.0</ele><time>2026-04-27T14:35:32.02Z</time></trkpt><trkpt lat="34.8650367" lon="-6.2307383"><ele>9.0</ele><time>2026-04-27T14:35:33.02Z</time></trkpt><trkpt lat="34.8651733" lon="-6.2307467"><ele>9.0</ele><time>2026-04-27T14:35:34.02Z</time></trkpt><trkpt lat="34.86529" lon="-6.2307517"><ele>9.0</ele><time>2026-04-27T14:35:35.02Z</time></trkpt><trkpt lat="34.8653867" lon="-6.230755"><ele>9.6</ele><time>2026-04-27T14:35:36.019Z</time></trkpt><trkpt lat="34.8654617" lon="-6.2307483"><ele>10.2</ele><time>2026-04-27T14:35:37.02Z</time></trkpt><trkpt lat="34.86553" lon="-6.2307433"><ele>10.799999999999999</ele><time>2026-04-27T14:35:39.02Z</time></trkpt><trkpt lat="34.8656267" lon="-6.2307483"><ele>11.4</ele><time>2026-04-27T14:35:43.02Z</time></trkpt><trkpt lat="34.8657583" lon="-6.23075"><ele>12.0</ele><time>2026-04-27T14:35:45.02Z</time></trkpt><trkpt lat="34.86588" lon="-6.230755"><ele>12.5</ele><time>2026-04-27T14:35:47.02Z</time></trkpt><trkpt lat="34.8660217" lon="-6.2307733"><ele>13.0</ele><time>2026-04-27T14:35:49.02Z</time></trkpt><trkpt lat="34.86612" lon="-6.230785"><ele>13.5</ele><time>2026-04-27T14:35:50.02Z</time></trkpt><trkpt lat="34.8662467" lon="-6.2307917"><ele>14.0</ele><time>2026-04-27T14:35:51.02Z</time></trkpt><trkpt lat="34.8664067" lon="-6.2307933"><ele>14.0</ele><time>2026-04-27T14:35:52.02Z</time></trkpt><trkpt lat="34.8665917" lon="-6.2307783"><ele>14.0</ele><time>2026-04-27T14:35:53.02Z</time></trkpt><trkpt lat="34.866795" lon="-6.2307683"><ele>14.0</ele><time>2026-04-27T14:35:54.02Z</time></trkpt><trkpt lat="34.86699" lon="-6.2307633"><ele>14.666666666666668</ele><time>2026-04-27T14:35:55.02Z</time></trkpt><trkpt lat="34.86717" lon="-6.2307683"><ele>15.333333333333332</ele><time>2026-04-27T14:35:56.02Z</time></trkpt><trkpt lat="34.867355" lon="-6.23077"><ele>16.0</ele><time>2026-04-27T14:35:57.02Z</time></trkpt><trkpt lat="34.8675433" lon="-6.2307717"><ele>15.666666666666666</ele><time>2026-04-27T14:35:58.02Z</time></trkpt><trkpt lat="34.86773" lon="-6.230775"><ele>15.333333333333332</ele><time>2026-04-27T14:35:59.019Z</time></trkpt><trkpt lat="34.8679067" lon="-6.2307783"><ele>15.0</ele><time>2026-04-27T14:36:00.02Z</time></trkpt><trkpt lat="34.868105" lon="-6.23078"><ele>15.0</ele><time>2026-04-27T14:36:01.02Z</time></trkpt><trkpt lat="34.8683033" lon="-6.2307817"><ele>15.0</ele><time>2026-04-27T14:36:02.02Z</time></trkpt><trkpt lat="34.8685033" lon="-6.2307883"><ele>15.0</ele><time>2026-04-27T14:36:03.02Z</time></trkpt><trkpt lat="34.86871" lon="-6.2307833"><ele>14.666666666666668</ele><time>2026-04-27T14:36:04.02Z</time></trkpt><trkpt lat="34.868925" lon="-6.2307917"><ele>14.333333333333334</ele><time>2026-04-27T14:36:05.02Z</time></trkpt><trkpt lat="34.8691367" lon="-6.2307967"><ele>14.0</ele><time>2026-04-27T14:36:06.019Z</time></trkpt><trkpt lat="34.8693467" lon="-6.2307933"><ele>14.0</ele><time>2026-04-27T14:36:07.02Z</time></trkpt><trkpt lat="34.8695467" lon="-6.2307917"><ele>14.0</ele><time>2026-04-27T14:36:08.02Z</time></trkpt><trkpt lat="34.869745" lon="-6.230795"><ele>14.0</ele><time>2026-04-27T14:36:09.02Z</time></trkpt><trkpt lat="34.86995" lon="-6.2308"><ele>14.0</ele><time>2026-04-27T14:36:10.02Z</time></trkpt><trkpt lat="34.8701567" lon="-6.2308"><ele>14.0</ele><time>2026-04-27T14:36:11.02Z</time></trkpt><trkpt lat="34.870365" lon="-6.2307983"><ele>14.0</ele><time>2026-04-27T14:36:12.019Z</time></trkpt><trkpt lat="34.870575" lon="-6.230795"><ele>14.0</ele><time>2026-04-27T14:36:13.02Z</time></trkpt><trkpt lat="34.87079" lon="-6.2307983"><ele>14.0</ele><time>2026-04-27T14:36:14.02Z</time></trkpt><trkpt lat="34.8709883" lon="-6.230795"><ele>14.0</ele><time>2026-04-27T14:36:15.02Z</time></trkpt><trkpt lat="34.87118" lon="-6.2307967"><ele>14.333333333333334</ele><time>2026-04-27T14:36:16.02Z</time></trkpt><trkpt lat="34.8713667" lon="-6.2308067"><ele>14.666666666666668</ele><time>2026-04-27T14:36:17.02Z</time></trkpt><trkpt lat="34.871555" lon="-6.2308083"><ele>15.0</ele><time>2026-04-27T14:36:18.019Z</time></trkpt><trkpt lat="34.871745" lon="-6.23081"><ele>15.0</ele><time>2026-04-27T14:36:19.02Z</time></trkpt><trkpt lat="34.87193" lon="-6.230815"><ele>15.0</ele><time>2026-04-27T14:36:20.02Z</time></trkpt><trkpt lat="34.8721067" lon="-6.23081"><ele>15.0</ele><time>2026-04-27T14:36:21.02Z</time></trkpt><trkpt lat="34.87228" lon="-6.2308067"><ele>15.0</ele><time>2026-04-27T14:36:22.02Z</time></trkpt><trkpt lat="34.8724467" lon="-6.2308067"><ele>15.0</ele><time>2026-04-27T14:36:23.02Z</time></trkpt><trkpt lat="34.8725983" lon="-6.2308117"><ele>15.0</ele><time>2026-04-27T14:36:24.02Z</time></trkpt><trkpt lat="34.872735" lon="-6.2308133"><ele>15.0</ele><time>2026-04-27T14:36:25.02Z</time></trkpt><trkpt lat="34.872865" lon="-6.23082"><ele>15.0</ele><time>2026-04-27T14:36:26.02Z</time></trkpt><trkpt lat="34.872985" lon="-6.2308167"><ele>15.0</ele><time>2026-04-27T14:36:27.02Z</time></trkpt><trkpt lat="34.8731117" lon="-6.2308083"><ele>15.0</ele><time>2026-04-27T14:36:28.02Z</time></trkpt><trkpt lat="34.8732483" lon="-6.2308083"><ele>15.0</ele><time>2026-04-27T14:36:29.019Z</time></trkpt><trkpt lat="34.873395" lon="-6.230805"><ele>15.0</ele><time>2026-04-27T14:36:30.02Z</time></trkpt><trkpt lat="34.8735483" lon="-6.2308067"><ele>15.0</ele><time>2026-04-27T14:36:31.02Z</time></trkpt><trkpt lat="34.8737033" lon="-6.2308083"><ele>15.0</ele><time>2026-04-27T14:36:32.02Z</time></trkpt><trkpt lat="34.8738717" lon="-6.2308083"><ele>15.0</ele><time>2026-04-27T14:36:33.02Z</time></trkpt><trkpt lat="34.8740567" lon="-6.2308183"><ele>15.0</ele><time>2026-04-27T14:36:34.02Z</time></trkpt><trkpt lat="34.8742717" lon="-6.2308233"><ele>16.0</ele><time>2026-04-27T14:36:35.02Z</time></trkpt><trkpt lat="34.8744833" lon="-6.2308283"><ele>17.0</ele><time>2026-04-27T14:36:36.02Z</time></trkpt><trkpt lat="34.8746933" lon="-6.2308333"><ele>18.0</ele><time>2026-04-27T14:36:37.02Z</time></trkpt><trkpt lat="34.8749067" lon="-6.230835"><ele>18.333333333333332</ele><time>2026-04-27T14:36:38.02Z</time></trkpt><trkpt lat="34.87511" lon="-6.2308333"><ele>18.666666666666664</ele><time>2026-04-27T14:36:39.02Z</time></trkpt><trkpt lat="34.8753083" lon="-6.230835"><ele>19.0</ele><time>2026-04-27T14:36:40.02Z</time></trkpt><trkpt lat="34.8755183" lon="-6.2308367"><ele>19.0</ele><time>2026-04-27T14:36:41.02Z</time></trkpt><trkpt lat="34.8757267" lon="-6.2308383"><ele>19.0</ele><time>2026-04-27T14:36:42.02Z</time></trkpt><trkpt lat="34.8759417" lon="-6.2308383"><ele>19.0</ele><time>2026-04-27T14:36:43.02Z</time></trkpt><trkpt lat="34.8761667" lon="-6.2308383"><ele>18.666666666666664</ele><time>2026-04-27T14:36:44.02Z</time></trkpt><trkpt lat="34.8763783" lon="-6.23085"><ele>18.333333333333332</ele><time>2026-04-27T14:36:45.02Z</time></trkpt><trkpt lat="34.8766083" lon="-6.2308467"><ele>18.0</ele><time>2026-04-27T14:36:46.02Z</time></trkpt><trkpt lat="34.8768417" lon="-6.2308517"><ele>18.0</ele><time>2026-04-27T14:36:47.019Z</time></trkpt><trkpt lat="34.877075" lon="-6.2308567"><ele>18.0</ele><time>2026-04-27T14:36:48.019Z</time></trkpt><trkpt lat="34.877305" lon="-6.2308583"><ele>18.0</ele><time>2026-04-27T14:36:49.02Z</time></trkpt><trkpt lat="34.8775283" lon="-6.2308583"><ele>18.0</ele><time>2026-04-27T14:36:50.02Z</time></trkpt><trkpt lat="34.8777383" lon="-6.2308567"><ele>18.0</ele><time>2026-04-27T14:36:51.02Z</time></trkpt><trkpt lat="34.8779567" lon="-6.23085"><ele>18.0</ele><time>2026-04-27T14:36:52.02Z</time></trkpt><trkpt lat="34.8781717" lon="-6.2308433"><ele>18.0</ele><time>2026-04-27T14:36:53.02Z</time></trkpt><trkpt lat="34.8783767" lon="-6.230845"><ele>18.0</ele><time>2026-04-27T14:36:54.02Z</time></trkpt><trkpt lat="34.8785817" lon="-6.2308483"><ele>18.0</ele><time>2026-04-27T14:36:55.02Z</time></trkpt><trkpt lat="34.8787883" lon="-6.230855"><ele>18.0</ele><time>2026-04-27T14:36:56.02Z</time></trkpt><trkpt lat="34.879" lon="-6.2308617"><ele>18.0</ele><time>2026-04-27T14:36:57.02Z</time></trkpt><trkpt lat="34.8792133" lon="-6.2308683"><ele>18.666666666666668</ele><time>2026-04-27T14:36:58.02Z</time></trkpt><trkpt lat="34.8794217" lon="-6.2308733"><ele>19.333333333333336</ele><time>2026-04-27T14:36:59.02Z</time></trkpt><trkpt lat="34.8796217" lon="-6.2308717"><ele>20.0</ele><time>2026-04-27T14:37:00.02Z</time></trkpt><trkpt lat="34.8798233" lon="-6.23087"><ele>20.0</ele><time>2026-04-27T14:37:01.02Z</time></trkpt><trkpt lat="34.880025" lon="-6.230865"><ele>20.0</ele><time>2026-04-27T14:37:02.02Z</time></trkpt><trkpt lat="34.880225" lon="-6.2308633"><ele>20.0</ele><time>2026-04-27T14:37:03.02Z</time></trkpt><trkpt lat="34.8804267" lon="-6.2308633"><ele>20.333333333333336</ele><time>2026-04-27T14:37:04.02Z</time></trkpt><trkpt lat="34.8806333" lon="-6.2308633"><ele>20.666666666666668</ele><time>2026-04-27T14:37:05.02Z</time></trkpt><trkpt lat="34.8808417" lon="-6.23087"><ele>21.0</ele><time>2026-04-27T14:37:06.02Z</time></trkpt><trkpt lat="34.881055" lon="-6.2308733"><ele>21.0</ele><time>2026-04-27T14:37:07.019Z</time></trkpt><trkpt lat="34.8812683" lon="-6.2308783"><ele>21.0</ele><time>2026-04-27T14:37:08.02Z</time></trkpt><trkpt lat="34.8814917" lon="-6.2308783"><ele>21.0</ele><time>2026-04-27T14:37:09.02Z</time></trkpt><trkpt lat="34.881715" lon="-6.2308867"><ele>21.0</ele><time>2026-04-27T14:37:10.02Z</time></trkpt><trkpt lat="34.8819417" lon="-6.2308883"><ele>21.0</ele><time>2026-04-27T14:37:11.02Z</time></trkpt><trkpt lat="34.8821683" lon="-6.23089"><ele>21.0</ele><time>2026-04-27T14:37:12.019Z</time></trkpt><trkpt lat="34.8823833" lon="-6.2308883"><ele>21.0</ele><time>2026-04-27T14:37:13.02Z</time></trkpt><trkpt lat="34.882595" lon="-6.23089"><ele>21.0</ele><time>2026-04-27T14:37:14.02Z</time></trkpt><trkpt lat="34.8828067" lon="-6.2308967"><ele>21.0</ele><time>2026-04-27T14:37:15.02Z</time></trkpt><trkpt lat="34.8830217" lon="-6.230905"><ele>21.0</ele><time>2026-04-27T14:37:16.02Z</time></trkpt><trkpt lat="34.8832317" lon="-6.23091"><ele>21.0</ele><time>2026-04-27T14:37:17.02Z</time></trkpt><trkpt lat="34.8834433" lon="-6.2309117"><ele>21.0</ele><time>2026-04-27T14:37:18.02Z</time></trkpt><trkpt lat="34.88365" lon="-6.2309183"><ele>21.0</ele><time>2026-04-27T14:37:19.02Z</time></trkpt><trkpt lat="34.88385" lon="-6.2309233"><ele>21.0</ele><time>2026-04-27T14:37:20.02Z</time></trkpt><trkpt lat="34.8840483" lon="-6.230925"><ele>21.0</ele><time>2026-04-27T14:37:21.019Z</time></trkpt><trkpt lat="34.88425" lon="-6.230925"><ele>21.0</ele><time>2026-04-27T14:37:22.019Z</time></trkpt><trkpt lat="34.8844533" lon="-6.230925"><ele>21.0</ele><time>2026-04-27T14:37:23.02Z</time></trkpt><trkpt lat="34.88466" lon="-6.2309267"><ele>21.333333333333332</ele><time>2026-04-27T14:37:24.02Z</time></trkpt><trkpt lat="34.8848667" lon="-6.230925"><ele>21.666666666666664</ele><time>2026-04-27T14:37:25.02Z</time></trkpt><trkpt lat="34.8850717" lon="-6.2309183"><ele>22.0</ele><time>2026-04-27T14:37:26.02Z</time></trkpt><trkpt lat="34.8852783" lon="-6.23092"><ele>22.0</ele><time>2026-04-27T14:37:27.019Z</time></trkpt><trkpt lat="34.8854917" lon="-6.2309217"><ele>22.0</ele><time>2026-04-27T14:37:28.02Z</time></trkpt><trkpt lat="34.8857017" lon="-6.2309283"><ele>22.0</ele><time>2026-04-27T14:37:29.019Z</time></trkpt><trkpt lat="34.8859017" lon="-6.2309367"><ele>22.333333333333332</ele><time>2026-04-27T14:37:30.02Z</time></trkpt><trkpt lat="34.8860883" lon="-6.23094"><ele>22.666666666666668</ele><time>2026-04-27T14:37:31.02Z</time></trkpt><trkpt lat="34.88627" lon="-6.2309383"><ele>23.0</ele><time>2026-04-27T14:37:32.02Z</time></trkpt><trkpt lat="34.8864433" lon="-6.2309367"><ele>23.0</ele><time>2026-04-27T14:37:33.02Z</time></trkpt><trkpt lat="34.8866133" lon="-6.23093"><ele>23.0</ele><time>2026-04-27T14:37:34.02Z</time></trkpt><trkpt lat="34.8867817" lon="-6.23093"><ele>23.0</ele><time>2026-04-27T14:37:35.02Z</time></trkpt><trkpt lat="34.88695" lon="-6.2309283"><ele>23.0</ele><time>2026-04-27T14:37:36.02Z</time></trkpt><trkpt lat="34.8871183" lon="-6.23093"><ele>23.0</ele><time>2026-04-27T14:37:37.02Z</time></trkpt><trkpt lat="34.8872833" lon="-6.230935"><ele>23.0</ele><time>2026-04-27T14:37:38.02Z</time></trkpt><trkpt lat="34.8874483" lon="-6.2309333"><ele>22.666666666666668</ele><time>2026-04-27T14:37:39.02Z</time></trkpt><trkpt lat="34.8876133" lon="-6.2309367"><ele>22.333333333333332</ele><time>2026-04-27T14:37:40.02Z</time></trkpt><trkpt lat="34.8877967" lon="-6.2309467"><ele>22.0</ele><time>2026-04-27T14:37:41.019Z</time></trkpt><trkpt lat="34.8879767" lon="-6.2309583"><ele>22.0</ele><time>2026-04-27T14:37:42.02Z</time></trkpt><trkpt lat="34.8881517" lon="-6.2309617"><ele>22.0</ele><time>2026-04-27T14:37:43.02Z</time></trkpt><trkpt lat="34.8883217" lon="-6.230965"><ele>22.0</ele><time>2026-04-27T14:37:44.02Z</time></trkpt><trkpt lat="34.8884817" lon="-6.2309667"><ele>22.25</ele><time>2026-04-27T14:37:45.019Z</time></trkpt><trkpt lat="34.88863" lon="-6.2309717"><ele>22.5</ele><time>2026-04-27T14:37:46.02Z</time></trkpt><trkpt lat="34.888775" lon="-6.230985"><ele>22.75</ele><time>2026-04-27T14:37:47.019Z</time></trkpt><trkpt lat="34.888915" lon="-6.2309933"><ele>23.0</ele><time>2026-04-27T14:37:48.02Z</time></trkpt><trkpt lat="34.8890633" lon="-6.2310017"><ele>23.0</ele><time>2026-04-27T14:37:49.02Z</time></trkpt><trkpt lat="34.8892217" lon="-6.2310017"><ele>23.0</ele><time>2026-04-27T14:37:50.02Z</time></trkpt><trkpt lat="34.8893883" lon="-6.2309967"><ele>23.0</ele><time>2026-04-27T14:37:51.02Z</time></trkpt><trkpt lat="34.88954" lon="-6.2309883"><ele>23.0</ele><time>2026-04-27T14:37:52.02Z</time></trkpt><trkpt lat="34.88969" lon="-6.2309833"><ele>23.0</ele><time>2026-04-27T14:37:53.02Z</time></trkpt><trkpt lat="34.8898367" lon="-6.2309833"><ele>23.0</ele><time>2026-04-27T14:37:54.019Z</time></trkpt><trkpt lat="34.889985" lon="-6.23098"><ele>23.0</ele><time>2026-04-27T14:37:55.02Z</time></trkpt><trkpt lat="34.89014" lon="-6.2309783"><ele>23.0</ele><time>2026-04-27T14:37:56.02Z</time></trkpt><trkpt lat="34.8902983" lon="-6.230975"><ele>23.0</ele><time>2026-04-27T14:37:57.02Z</time></trkpt><trkpt lat="34.8904467" lon="-6.2309733"><ele>23.0</ele><time>2026-04-27T14:37:58.02Z</time></trkpt><trkpt lat="34.8906017" lon="-6.2309683"><ele>23.0</ele><time>2026-04-27T14:37:59.02Z</time></trkpt><trkpt lat="34.8907633" lon="-6.2309617"><ele>23.0</ele><time>2026-04-27T14:38:00.02Z</time></trkpt><trkpt lat="34.89093" lon="-6.2309683"><ele>23.0</ele><time>2026-04-27T14:38:01.02Z</time></trkpt><trkpt lat="34.8911133" lon="-6.23097"><ele>23.0</ele><time>2026-04-27T14:38:02.019Z</time></trkpt><trkpt lat="34.891295" lon="-6.2309833"><ele>23.0</ele><time>2026-04-27T14:38:03.02Z</time></trkpt><trkpt lat="34.8914717" lon="-6.2309883"><ele>23.0</ele><time>2026-04-27T14:38:04.019Z</time></trkpt><trkpt lat="34.891655" lon="-6.2309883"><ele>23.333333333333336</ele><time>2026-04-27T14:38:05.02Z</time></trkpt><trkpt lat="34.89184" lon="-6.2309917"><ele>23.666666666666668</ele><time>2026-04-27T14:38:06.02Z</time></trkpt><trkpt lat="34.8920233" lon="-6.2309967"><ele>24.0</ele><time>2026-04-27T14:38:07.019Z</time></trkpt><trkpt lat="34.8921983" lon="-6.2309967"><ele>24.0</ele><time>2026-04-27T14:38:08.02Z</time></trkpt><trkpt lat="34.89237" lon="-6.2309983"><ele>24.0</ele><time>2026-04-27T14:38:09.02Z</time></trkpt><trkpt lat="34.8925467" lon="-6.2310017"><ele>24.0</ele><time>2026-04-27T14:38:10.02Z</time></trkpt><trkpt lat="34.892735" lon="-6.2309967"><ele>24.0</ele><time>2026-04-27T14:38:11.02Z</time></trkpt><trkpt lat="34.89293" lon="-6.2309933"><ele>24.0</ele><time>2026-04-27T14:38:12.02Z</time></trkpt><trkpt lat="34.8931117" lon="-6.231"><ele>24.0</ele><time>2026-04-27T14:38:13.02Z</time></trkpt><trkpt lat="34.8932883" lon="-6.2310083"><ele>24.333333333333336</ele><time>2026-04-27T14:38:14.019Z</time></trkpt><trkpt lat="34.8934683" lon="-6.2310067"><ele>24.666666666666668</ele><time>2026-04-27T14:38:15.02Z</time></trkpt><trkpt lat="34.8936617" lon="-6.23101"><ele>25.0</ele><time>2026-04-27T14:38:16.02Z</time></trkpt><trkpt lat="34.89386" lon="-6.23101"><ele>25.0</ele><time>2026-04-27T14:38:17.019Z</time></trkpt><trkpt lat="34.8940467" lon="-6.2310067"><ele>25.0</ele><time>2026-04-27T14:38:18.019Z</time></trkpt><trkpt lat="34.8942217" lon="-6.2310033"><ele>25.0</ele><time>2026-04-27T14:38:19.02Z</time></trkpt><trkpt lat="34.8943883" lon="-6.2310033"><ele>25.25</ele><time>2026-04-27T14:38:20.02Z</time></trkpt><trkpt lat="34.89454" lon="-6.2310033"><ele>25.5</ele><time>2026-04-27T14:38:21.02Z</time></trkpt><trkpt lat="34.8946833" lon="-6.2310067"><ele>25.75</ele><time>2026-04-27T14:38:22.02Z</time></trkpt><trkpt lat="34.8948233" lon="-6.23101"><ele>26.0</ele><time>2026-04-27T14:38:23.019Z</time></trkpt><trkpt lat="34.894975" lon="-6.2310167"><ele>26.0</ele><time>2026-04-27T14:38:24.02Z</time></trkpt><trkpt lat="34.89512" lon="-6.2310283"><ele>26.0</ele><time>2026-04-27T14:38:25.02Z</time></trkpt><trkpt lat="34.8952583" lon="-6.2310367"><ele>26.0</ele><time>2026-04-27T14:38:26.02Z</time></trkpt><trkpt lat="34.8953933" lon="-6.2310467"><ele>26.0</ele><time>2026-04-27T14:38:27.02Z</time></trkpt><trkpt lat="34.895555" lon="-6.2310583"><ele>26.0</ele><time>2026-04-27T14:38:28.02Z</time></trkpt><trkpt lat="34.895735" lon="-6.231065"><ele>26.0</ele><time>2026-04-27T14:38:29.02Z</time></trkpt><trkpt lat="34.8959017" lon="-6.2310617"><ele>26.0</ele><time>2026-04-27T14:38:30.02Z</time></trkpt><trkpt lat="34.8960633" lon="-6.2310433"><ele>26.333333333333332</ele><time>2026-04-27T14:38:31.02Z</time></trkpt><trkpt lat="34.896225" lon="-6.23103"><ele>26.666666666666664</ele><time>2026-04-27T14:38:32.02Z</time></trkpt><trkpt lat="34.8964" lon="-6.23103"><ele>27.0</ele><time>2026-04-27T14:38:33.02Z</time></trkpt><trkpt lat="34.896575" lon="-6.2310283"><ele>27.0</ele><time>2026-04-27T14:38:34.02Z</time></trkpt><trkpt lat="34.8967383" lon="-6.2310283"><ele>27.0</ele><time>2026-04-27T14:38:35.02Z</time></trkpt><trkpt lat="34.896905" lon="-6.23103"><ele>27.0</ele><time>2026-04-27T14:38:36.02Z</time></trkpt><trkpt lat="34.8970783" lon="-6.2310317"><ele>27.0</ele><time>2026-04-27T14:38:37.02Z</time></trkpt><trkpt lat="34.89726" lon="-6.2310417"><ele>27.0</ele><time>2026-04-27T14:38:38.02Z</time></trkpt><trkpt lat="34.8974567" lon="-6.2310433"><ele>27.0</ele><time>2026-04-27T14:38:39.02Z</time></trkpt><trkpt lat="34.8976433" lon="-6.23105"><ele>26.666666666666664</ele><time>2026-04-27T14:38:40.02Z</time></trkpt><trkpt lat="34.8978217" lon="-6.2310483"><ele>26.333333333333332</ele><time>2026-04-27T14:38:41.02Z</time></trkpt><trkpt lat="34.898005" lon="-6.2310467"><ele>26.0</ele><time>2026-04-27T14:38:42.02Z</time></trkpt><trkpt lat="34.8981933" lon="-6.2310467"><ele>26.0</ele><time>2026-04-27T14:38:43.02Z</time></trkpt><trkpt lat="34.89839" lon="-6.23105"><ele>26.0</ele><time>2026-04-27T14:38:44.02Z</time></trkpt><trkpt lat="34.8985867" lon="-6.2310533"><ele>26.0</ele><time>2026-04-27T14:38:45.02Z</time></trkpt><trkpt lat="34.8987917" lon="-6.2310567"><ele>26.0</ele><time>2026-04-27T14:38:46.02Z</time></trkpt><trkpt lat="34.899" lon="-6.231055"><ele>26.0</ele><time>2026-04-27T14:38:47.02Z</time></trkpt><trkpt lat="34.899215" lon="-6.2310517"><ele>26.0</ele><time>2026-04-27T14:38:48.02Z</time></trkpt><trkpt lat="34.8994233" lon="-6.2310583"><ele>26.666666666666664</ele><time>2026-04-27T14:38:49.02Z</time></trkpt><trkpt lat="34.89962" lon="-6.231065"><ele>27.333333333333336</ele><time>2026-04-27T14:38:50.02Z</time></trkpt><trkpt lat="34.8998033" lon="-6.2310717"><ele>28.0</ele><time>2026-04-27T14:38:51.02Z</time></trkpt><trkpt lat="34.899985" lon="-6.23107"><ele>28.0</ele><time>2026-04-27T14:38:52.02Z</time></trkpt><trkpt lat="34.9001533" lon="-6.2310717"><ele>28.0</ele><time>2026-04-27T14:38:53.02Z</time></trkpt><trkpt lat="34.9003217" lon="-6.231065"><ele>28.0</ele><time>2026-04-27T14:38:54.02Z</time></trkpt><trkpt lat="34.9004883" lon="-6.23106"><ele>28.0</ele><time>2026-04-27T14:38:55.019Z</time></trkpt><trkpt lat="34.9006567" lon="-6.2310567"><ele>28.0</ele><time>2026-04-27T14:38:56.02Z</time></trkpt><trkpt lat="34.90083" lon="-6.23106"><ele>28.0</ele><time>2026-04-27T14:38:57.019Z</time></trkpt><trkpt lat="34.9010067" lon="-6.231055"><ele>27.666666666666668</ele><time>2026-04-27T14:38:58.02Z</time></trkpt><trkpt lat="34.901175" lon="-6.2310583"><ele>27.333333333333336</ele><time>2026-04-27T14:38:59.02Z</time></trkpt><trkpt lat="34.9013333" lon="-6.231065"><ele>27.0</ele><time>2026-04-27T14:39:00.02Z</time></trkpt><trkpt lat="34.90148" lon="-6.231055"><ele>27.0</ele><time>2026-04-27T14:39:01.02Z</time></trkpt><trkpt lat="34.9016133" lon="-6.2310533"><ele>27.0</ele><time>2026-04-27T14:39:02.02Z</time></trkpt><trkpt lat="34.9017283" lon="-6.2310533"><ele>27.0</ele><time>2026-04-27T14:39:03.02Z</time></trkpt><trkpt lat="34.901835" lon="-6.231055"><ele>27.0</ele><time>2026-04-27T14:39:04.02Z</time></trkpt><trkpt lat="34.9019333" lon="-6.2310617"><ele>27.0</ele><time>2026-04-27T14:39:05.02Z</time></trkpt><trkpt lat="34.9020233" lon="-6.2310667"><ele>27.0</ele><time>2026-04-27T14:39:06.02Z</time></trkpt><trkpt lat="34.90211" lon="-6.2310683"><ele>27.0</ele><time>2026-04-27T14:39:07.02Z</time></trkpt><trkpt lat="34.9021933" lon="-6.2310767"><ele>27.0</ele><time>2026-04-27T14:39:08.02Z</time></trkpt><trkpt lat="34.90228" lon="-6.2310933"><ele>27.0</ele><time>2026-04-27T14:39:09.02Z</time></trkpt><trkpt lat="34.9023617" lon="-6.2310983"><ele>27.0</ele><time>2026-04-27T14:39:10.02Z</time></trkpt><trkpt lat="34.9024417" lon="-6.2311"><ele>27.0</ele><time>2026-04-27T14:39:11.019Z</time></trkpt><trkpt lat="34.9025283" lon="-6.231105"><ele>27.000000000000004</ele><time>2026-04-27T14:39:12.02Z</time></trkpt><trkpt lat="34.9026283" lon="-6.2311083"><ele>27.000000000000004</ele><time>2026-04-27T14:39:13.02Z</time></trkpt><trkpt lat="34.9027317" lon="-6.2311067"><ele>27.0</ele><time>2026-04-27T14:39:14.02Z</time></trkpt><trkpt lat="34.90283" lon="-6.2310967"><ele>27.0</ele><time>2026-04-27T14:39:15.02Z</time></trkpt><trkpt lat="34.9029333" lon="-6.231095"><ele>27.200000000000003</ele><time>2026-04-27T14:39:16.02Z</time></trkpt><trkpt lat="34.9030317" lon="-6.2310917"><ele>27.400000000000002</ele><time>2026-04-27T14:39:17.02Z</time></trkpt><trkpt lat="34.903135" lon="-6.2310933"><ele>27.599999999999998</ele><time>2026-04-27T14:39:18.02Z</time></trkpt><trkpt lat="34.9032433" lon="-6.23109"><ele>27.799999999999997</ele><time>2026-04-27T14:39:19.02Z</time></trkpt><trkpt lat="34.9033617" lon="-6.2310883"><ele>28.0</ele><time>2026-04-27T14:39:20.019Z</time></trkpt><trkpt lat="34.90348" lon="-6.2310833"><ele>27.5</ele><time>2026-04-27T14:39:21.02Z</time></trkpt><trkpt lat="34.9036" lon="-6.231085"><ele>27.0</ele><time>2026-04-27T14:39:22.02Z</time></trkpt><trkpt lat="34.9037083" lon="-6.2310883"><ele>26.5</ele><time>2026-04-27T14:39:23.02Z</time></trkpt><trkpt lat="34.9038167" lon="-6.2310883"><ele>26.0</ele><time>2026-04-27T14:39:24.02Z</time></trkpt><trkpt lat="34.9039383" lon="-6.2310933"><ele>26.0</ele><time>2026-04-27T14:39:25.02Z</time></trkpt><trkpt lat="34.9040583" lon="-6.2311017"><ele>26.0</ele><time>2026-04-27T14:39:26.02Z</time></trkpt><trkpt lat="34.9041817" lon="-6.2311117"><ele>26.0</ele><time>2026-04-27T14:39:27.019Z</time></trkpt><trkpt lat="34.9043083" lon="-6.231115"><ele>26.0</ele><time>2026-04-27T14:39:28.02Z</time></trkpt><trkpt lat="34.904445" lon="-6.2311083"><ele>26.0</ele><time>2026-04-27T14:39:29.02Z</time></trkpt><trkpt lat="34.9045933" lon="-6.2311033"><ele>26.0</ele><time>2026-04-27T14:39:30.019Z</time></trkpt><trkpt lat="34.9047533" lon="-6.2311017"><ele>26.0</ele><time>2026-04-27T14:39:31.02Z</time></trkpt><trkpt lat="34.904905" lon="-6.2311017"><ele>26.0</ele><time>2026-04-27T14:39:32.02Z</time></trkpt><trkpt lat="34.905055" lon="-6.2311033"><ele>26.0</ele><time>2026-04-27T14:39:33.02Z</time></trkpt><trkpt lat="34.9052117" lon="-6.231105"><ele>26.0</ele><time>2026-04-27T14:39:34.02Z</time></trkpt><trkpt lat="34.9053583" lon="-6.2311083"><ele>26.5</ele><time>2026-04-27T14:39:35.02Z</time></trkpt><trkpt lat="34.9055067" lon="-6.2311083"><ele>27.0</ele><time>2026-04-27T14:39:36.02Z</time></trkpt><trkpt lat="34.905655" lon="-6.2311117"><ele>27.5</ele><time>2026-04-27T14:39:37.02Z</time></trkpt><trkpt lat="34.905805" lon="-6.231115"><ele>28.0</ele><time>2026-04-27T14:39:38.02Z</time></trkpt><trkpt lat="34.9059617" lon="-6.2311133"><ele>28.0</ele><time>2026-04-27T14:39:39.02Z</time></trkpt><trkpt lat="34.90612" lon="-6.2311133"><ele>28.0</ele><time>2026-04-27T14:39:40.02Z</time></trkpt><trkpt lat="34.9062733" lon="-6.2311183"><ele>28.0</ele><time>2026-04-27T14:39:41.02Z</time></trkpt><trkpt lat="34.906425" lon="-6.2311117"><ele>28.0</ele><time>2026-04-27T14:39:42.02Z</time></trkpt><trkpt lat="34.9065733" lon="-6.23112"><ele>28.0</ele><time>2026-04-27T14:39:43.02Z</time></trkpt><trkpt lat="34.9067183" lon="-6.2311217"><ele>28.0</ele><time>2026-04-27T14:39:44.02Z</time></trkpt><trkpt lat="34.90686" lon="-6.2311267"><ele>28.0</ele><time>2026-04-27T14:39:45.02Z</time></trkpt><trkpt lat="34.9069883" lon="-6.2311317"><ele>27.799999999999997</ele><time>2026-04-27T14:39:46.019Z</time></trkpt><trkpt lat="34.9071067" lon="-6.2311283"><ele>27.599999999999998</ele><time>2026-04-27T14:39:47.02Z</time></trkpt><trkpt lat="34.90721" lon="-6.2311217"><ele>27.400000000000002</ele><time>2026-04-27T14:39:48.019Z</time></trkpt><trkpt lat="34.9073017" lon="-6.23112"><ele>27.200000000000003</ele><time>2026-04-27T14:39:49.02Z</time></trkpt><trkpt lat="34.9073883" lon="-6.23112"><ele>27.0</ele><time>2026-04-27T14:39:50.02Z</time></trkpt><trkpt lat="34.907485" lon="-6.2311233"><ele>26.400000000000002</ele><time>2026-04-27T14:39:51.02Z</time></trkpt><trkpt lat="34.9075933" lon="-6.231125"><ele>25.800000000000004</ele><time>2026-04-27T14:39:52.02Z</time></trkpt><trkpt lat="34.90771" lon="-6.2311333"><ele>25.2</ele><time>2026-04-27T14:39:53.02Z</time></trkpt><trkpt lat="34.90782" lon="-6.2311367"><ele>24.6</ele><time>2026-04-27T14:39:54.02Z</time></trkpt><trkpt lat="34.9079267" lon="-6.23114"><ele>24.0</ele><time>2026-04-27T14:39:55.02Z</time></trkpt><trkpt lat="34.9080217" lon="-6.2311367"><ele>24.0</ele><time>2026-04-27T14:39:56.02Z</time></trkpt><trkpt lat="34.90812" lon="-6.2311383"><ele>24.0</ele><time>2026-04-27T14:39:57.02Z</time></trkpt><trkpt lat="34.908235" lon="-6.2311433"><ele>24.0</ele><time>2026-04-27T14:39:58.02Z</time></trkpt><trkpt lat="34.9083533" lon="-6.23114"><ele>24.0</ele><time>2026-04-27T14:39:59.02Z</time></trkpt><trkpt lat="34.9084767" lon="-6.2311367"><ele>24.5</ele><time>2026-04-27T14:40:00.02Z</time></trkpt><trkpt lat="34.908605" lon="-6.23113"><ele>25.0</ele><time>2026-04-27T14:40:01.02Z</time></trkpt><trkpt lat="34.9087317" lon="-6.2311233"><ele>25.5</ele><time>2026-04-27T14:40:02.02Z</time></trkpt><trkpt lat="34.9088517" lon="-6.2311283"><ele>26.0</ele><time>2026-04-27T14:40:03.02Z</time></trkpt><trkpt lat="34.9089767" lon="-6.2311383"><ele>26.0</ele><time>2026-04-27T14:40:04.02Z</time></trkpt><trkpt lat="34.909115" lon="-6.231145"><ele>26.0</ele><time>2026-04-27T14:40:05.02Z</time></trkpt><trkpt lat="34.909265" lon="-6.2311583"><ele>26.0</ele><time>2026-04-27T14:40:06.019Z</time></trkpt><trkpt lat="34.9094367" lon="-6.2311717"><ele>25.333333333333332</ele><time>2026-04-27T14:40:07.019Z</time></trkpt><trkpt lat="34.9096217" lon="-6.2311767"><ele>24.666666666666664</ele><time>2026-04-27T14:40:08.019Z</time></trkpt><trkpt lat="34.90982" lon="-6.2311783"><ele>24.0</ele><time>2026-04-27T14:40:09.018Z</time></trkpt><trkpt lat="34.9100233" lon="-6.2311667"><ele>24.333333333333336</ele><time>2026-04-27T14:40:10.019Z</time></trkpt><trkpt lat="34.9102133" lon="-6.23116"><ele>24.666666666666668</ele><time>2026-04-27T14:40:11.019Z</time></trkpt><trkpt lat="34.9103933" lon="-6.2311683"><ele>25.0</ele><time>2026-04-27T14:40:12.019Z</time></trkpt><trkpt lat="34.9105667" lon="-6.23117"><ele>25.0</ele><time>2026-04-27T14:40:13.019Z</time></trkpt><trkpt lat="34.910735" lon="-6.2311717"><ele>25.0</ele><time>2026-04-27T14:40:14.019Z</time></trkpt><trkpt lat="34.9109067" lon="-6.231175"><ele>25.0</ele><time>2026-04-27T14:40:15.019Z</time></trkpt><trkpt lat="34.911075" lon="-6.231175"><ele>25.0</ele><time>2026-04-27T14:40:16.019Z</time></trkpt><trkpt lat="34.9112283" lon="-6.2311683"><ele>25.0</ele><time>2026-04-27T14:40:17.019Z</time></trkpt><trkpt lat="34.91137" lon="-6.2311683"><ele>25.0</ele><time>2026-04-27T14:40:18.018Z</time></trkpt><trkpt lat="34.9115083" lon="-6.2311667"><ele>25.0</ele><time>2026-04-27T14:40:19.019Z</time></trkpt><trkpt lat="34.9116317" lon="-6.2311667"><ele>25.2</ele><time>2026-04-27T14:40:20.019Z</time></trkpt><trkpt lat="34.9117483" lon="-6.2311667"><ele>25.4</ele><time>2026-04-27T14:40:21.019Z</time></trkpt><trkpt lat="34.9118467" lon="-6.23118"><ele>25.6</ele><time>2026-04-27T14:40:22.019Z</time></trkpt><trkpt lat="34.9119533" lon="-6.2311967"><ele>25.8</ele><time>2026-04-27T14:40:23.019Z</time></trkpt><trkpt lat="34.9120633" lon="-6.2312083"><ele>26.0</ele><time>2026-04-27T14:40:24.019Z</time></trkpt><trkpt lat="34.9121567" lon="-6.2312033"><ele>26.0</ele><time>2026-04-27T14:40:25.018Z</time></trkpt><trkpt lat="34.912235" lon="-6.2311967"><ele>26.0</ele><time>2026-04-27T14:40:26.019Z</time></trkpt><trkpt lat="34.91232" lon="-6.2312033"><ele>26.0</ele><time>2026-04-27T14:40:27.019Z</time></trkpt><trkpt lat="34.9124183" lon="-6.2312067"><ele>26.0</ele><time>2026-04-27T14:40:28.019Z</time></trkpt><trkpt lat="34.912535" lon="-6.2311983"><ele>26.0</ele><time>2026-04-27T14:40:29.019Z</time></trkpt><trkpt lat="34.9126667" lon="-6.231195"><ele>26.666666666666664</ele><time>2026-04-27T14:40:30.019Z</time></trkpt><trkpt lat="34.9128167" lon="-6.2311983"><ele>27.333333333333336</ele><time>2026-04-27T14:40:31.019Z</time></trkpt><trkpt lat="34.9129733" lon="-6.231205"><ele>28.0</ele><time>2026-04-27T14:40:32.019Z</time></trkpt><trkpt lat="34.9131383" lon="-6.23121"><ele>28.0</ele><time>2026-04-27T14:40:33.019Z</time></trkpt><trkpt lat="34.913315" lon="-6.2312117"><ele>28.0</ele><time>2026-04-27T14:40:34.019Z</time></trkpt><trkpt lat="34.9135017" lon="-6.2312117"><ele>28.0</ele><time>2026-04-27T14:40:35.019Z</time></trkpt><trkpt lat="34.9136833" lon="-6.23122"><ele>28.0</ele><time>2026-04-27T14:40:36.019Z</time></trkpt><trkpt lat="34.91387" lon="-6.231225"><ele>28.0</ele><time>2026-04-27T14:40:37.019Z</time></trkpt><trkpt lat="34.914045" lon="-6.2312333"><ele>28.0</ele><time>2026-04-27T14:40:38.019Z</time></trkpt><trkpt lat="34.9142217" lon="-6.2312333"><ele>27.333333333333336</ele><time>2026-04-27T14:40:39.019Z</time></trkpt><trkpt lat="34.9144067" lon="-6.2312267"><ele>26.666666666666664</ele><time>2026-04-27T14:40:40.019Z</time></trkpt><trkpt lat="34.9145967" lon="-6.2312233"><ele>26.0</ele><time>2026-04-27T14:40:41.019Z</time></trkpt><trkpt lat="34.9147833" lon="-6.2312083"><ele>26.0</ele><time>2026-04-27T14:40:42.019Z</time></trkpt><trkpt lat="34.9149633" lon="-6.2312083"><ele>26.0</ele><time>2026-04-27T14:40:43.018Z</time></trkpt><trkpt lat="34.9151467" lon="-6.2312167"><ele>26.0</ele><time>2026-04-27T14:40:44.019Z</time></trkpt><trkpt lat="34.9153417" lon="-6.2312233"><ele>25.666666666666664</ele><time>2026-04-27T14:40:45.018Z</time></trkpt><trkpt lat="34.915525" lon="-6.2312217"><ele>25.333333333333336</ele><time>2026-04-27T14:40:46.019Z</time></trkpt><trkpt lat="34.9157083" lon="-6.231225"><ele>25.0</ele><time>2026-04-27T14:40:47.018Z</time></trkpt><trkpt lat="34.9158967" lon="-6.2312233"><ele>25.0</ele><time>2026-04-27T14:40:48.019Z</time></trkpt><trkpt lat="34.9160867" lon="-6.2312233"><ele>25.0</ele><time>2026-04-27T14:40:49.019Z</time></trkpt><trkpt lat="34.9162783" lon="-6.2312217"><ele>25.0</ele><time>2026-04-27T14:40:50.019Z</time></trkpt><trkpt lat="34.9164767" lon="-6.2312167"><ele>25.0</ele><time>2026-04-27T14:40:51.019Z</time></trkpt><trkpt lat="34.916675" lon="-6.2312167"><ele>25.0</ele><time>2026-04-27T14:40:52.019Z</time></trkpt><trkpt lat="34.9168633" lon="-6.23122"><ele>25.0</ele><time>2026-04-27T14:40:53.018Z</time></trkpt><trkpt lat="34.9170417" lon="-6.2312233"><ele>24.666666666666668</ele><time>2026-04-27T14:40:54.018Z</time></trkpt><trkpt lat="34.917225" lon="-6.2312283"><ele>24.333333333333336</ele><time>2026-04-27T14:40:55.019Z</time></trkpt><trkpt lat="34.917415" lon="-6.2312267"><ele>24.0</ele><time>2026-04-27T14:40:56.019Z</time></trkpt><trkpt lat="34.9176083" lon="-6.23123"><ele>24.0</ele><time>2026-04-27T14:40:57.019Z</time></trkpt><trkpt lat="34.917815" lon="-6.23123"><ele>24.0</ele><time>2026-04-27T14:40:58.018Z</time></trkpt><trkpt lat="34.9180117" lon="-6.2312383"><ele>24.0</ele><time>2026-04-27T14:40:59.019Z</time></trkpt><trkpt lat="34.9182083" lon="-6.2312367"><ele>23.666666666666668</ele><time>2026-04-27T14:41:00.019Z</time></trkpt><trkpt lat="34.9184067" lon="-6.2312383"><ele>23.333333333333336</ele><time>2026-04-27T14:41:01.019Z</time></trkpt><trkpt lat="34.9186033" lon="-6.23124"><ele>23.0</ele><time>2026-04-27T14:41:02.019Z</time></trkpt><trkpt lat="34.9188017" lon="-6.2312417"><ele>23.0</ele><time>2026-04-27T14:41:03.019Z</time></trkpt><trkpt lat="34.9190017" lon="-6.231245"><ele>23.0</ele><time>2026-04-27T14:41:04.019Z</time></trkpt><trkpt lat="34.9192083" lon="-6.23125"><ele>23.0</ele><time>2026-04-27T14:41:05.019Z</time></trkpt><trkpt lat="34.9194183" lon="-6.2312517"><ele>23.666666666666668</ele><time>2026-04-27T14:41:06.019Z</time></trkpt><trkpt lat="34.9196283" lon="-6.2312583"><ele>24.333333333333336</ele><time>2026-04-27T14:41:07.019Z</time></trkpt><trkpt lat="34.91984" lon="-6.23126"><ele>25.0</ele><time>2026-04-27T14:41:08.019Z</time></trkpt><trkpt lat="34.92005" lon="-6.2312583"><ele>25.666666666666668</ele><time>2026-04-27T14:41:09.019Z</time></trkpt><trkpt lat="34.9202683" lon="-6.2312617"><ele>26.333333333333336</ele><time>2026-04-27T14:41:10.019Z</time></trkpt><trkpt lat="34.920485" lon="-6.2312683"><ele>27.0</ele><time>2026-04-27T14:41:11.019Z</time></trkpt><trkpt lat="34.9207117" lon="-6.2312767"><ele>28.0</ele><time>2026-04-27T14:41:12.019Z</time></trkpt><trkpt lat="34.9209333" lon="-6.231285"><ele>29.0</ele><time>2026-04-27T14:41:13.019Z</time></trkpt><trkpt lat="34.9211617" lon="-6.2312883"><ele>29.0</ele><time>2026-04-27T14:41:14.019Z</time></trkpt><trkpt lat="34.9213917" lon="-6.2312983"><ele>29.0</ele><time>2026-04-27T14:41:15.019Z</time></trkpt><trkpt lat="34.921625" lon="-6.231305"><ele>29.5</ele><time>2026-04-27T14:41:16.019Z</time></trkpt><trkpt lat="34.9218533" lon="-6.2312983"><ele>30.0</ele><time>2026-04-27T14:41:17.019Z</time></trkpt><trkpt lat="34.9220833" lon="-6.2312933"><ele>30.0</ele><time>2026-04-27T14:41:18.019Z</time></trkpt><trkpt lat="34.922315" lon="-6.23129"><ele>30.0</ele><time>2026-04-27T14:41:19.019Z</time></trkpt><trkpt lat="34.922545" lon="-6.2312883"><ele>30.0</ele><time>2026-04-27T14:41:20.018Z</time></trkpt><trkpt lat="34.9227683" lon="-6.23129"><ele>30.0</ele><time>2026-04-27T14:41:21.019Z</time></trkpt><trkpt lat="34.922995" lon="-6.2312917"><ele>30.0</ele><time>2026-04-27T14:41:22.019Z</time></trkpt><trkpt lat="34.9232233" lon="-6.2313"><ele>30.0</ele><time>2026-04-27T14:41:23.018Z</time></trkpt><trkpt lat="34.92345" lon="-6.231305"><ele>30.0</ele><time>2026-04-27T14:41:24.019Z</time></trkpt><trkpt lat="34.9236733" lon="-6.2313067"><ele>30.0</ele><time>2026-04-27T14:41:25.019Z</time></trkpt><trkpt lat="34.923895" lon="-6.2313017"><ele>30.0</ele><time>2026-04-27T14:41:26.019Z</time></trkpt><trkpt lat="34.9241167" lon="-6.2313083"><ele>30.333333333333336</ele><time>2026-04-27T14:41:27.018Z</time></trkpt><trkpt lat="34.924335" lon="-6.2313067"><ele>30.666666666666668</ele><time>2026-04-27T14:41:28.019Z</time></trkpt><trkpt lat="34.9245517" lon="-6.2313067"><ele>31.0</ele><time>2026-04-27T14:41:29.019Z</time></trkpt><trkpt lat="34.924765" lon="-6.231315"><ele>31.0</ele><time>2026-04-27T14:41:30.019Z</time></trkpt><trkpt lat="34.9249783" lon="-6.2313133"><ele>31.0</ele><time>2026-04-27T14:41:31.019Z</time></trkpt><trkpt lat="34.9251883" lon="-6.2313183"><ele>31.0</ele><time>2026-04-27T14:41:32.018Z</time></trkpt><trkpt lat="34.9253967" lon="-6.231325"><ele>32.0</ele><time>2026-04-27T14:41:33.019Z</time></trkpt><trkpt lat="34.925605" lon="-6.2313333"><ele>33.0</ele><time>2026-04-27T14:41:34.019Z</time></trkpt><trkpt lat="34.925815" lon="-6.2313417"><ele>34.0</ele><time>2026-04-27T14:41:35.019Z</time></trkpt><trkpt lat="34.9260267" lon="-6.2313433"><ele>35.333333333333336</ele><time>2026-04-27T14:41:36.019Z</time></trkpt><trkpt lat="34.9262317" lon="-6.2313383"><ele>36.666666666666664</ele><time>2026-04-27T14:41:37.019Z</time></trkpt><trkpt lat="34.9264317" lon="-6.2313317"><ele>38.0</ele><time>2026-04-27T14:41:38.019Z</time></trkpt><trkpt lat="34.9266283" lon="-6.2313183"><ele>39.0</ele><time>2026-04-27T14:41:39.019Z</time></trkpt><trkpt lat="34.926825" lon="-6.2312883"><ele>40.0</ele><time>2026-04-27T14:41:40.019Z</time></trkpt><trkpt lat="34.9270367" lon="-6.231245"><ele>41.0</ele><time>2026-04-27T14:41:41.018Z</time></trkpt><trkpt lat="34.9272483" lon="-6.2311867"><ele>41.0</ele><time>2026-04-27T14:41:42.019Z</time></trkpt><trkpt lat="34.927465" lon="-6.2311283"><ele>41.0</ele><time>2026-04-27T14:41:43.019Z</time></trkpt><trkpt lat="34.92768" lon="-6.2310517"><ele>41.0</ele><time>2026-04-27T14:41:44.019Z</time></trkpt><trkpt lat="34.9278967" lon="-6.23096"><ele>43.5</ele><time>2026-04-27T14:41:45.018Z</time></trkpt><trkpt lat="34.9281133" lon="-6.23087"><ele>46.0</ele><time>2026-04-27T14:41:46.019Z</time></trkpt><trkpt lat="34.9283283" lon="-6.23078"><ele>48.0</ele><time>2026-04-27T14:41:47.019Z</time></trkpt><trkpt lat="34.9285433" lon="-6.2306883"><ele>50.0</ele><time>2026-04-27T14:41:48.019Z</time></trkpt><trkpt lat="34.9287533" lon="-6.2305917"><ele>50.333333333333336</ele><time>2026-04-27T14:41:49.018Z</time></trkpt><trkpt lat="34.9289483" lon="-6.2305067"><ele>50.66666666666667</ele><time>2026-04-27T14:41:50.019Z</time></trkpt><trkpt lat="34.9291417" lon="-6.230425"><ele>51.0</ele><time>2026-04-27T14:41:51.019Z</time></trkpt><trkpt lat="34.929335" lon="-6.2303383"><ele>52.66666666666667</ele><time>2026-04-27T14:41:52.018Z</time></trkpt><trkpt lat="34.929535" lon="-6.2302517"><ele>54.333333333333336</ele><time>2026-04-27T14:41:53.019Z</time></trkpt><trkpt lat="34.9297383" lon="-6.2301667"><ele>56.0</ele><time>2026-04-27T14:41:54.018Z</time></trkpt><trkpt lat="34.92994" lon="-6.2300783"><ele>57.0</ele><time>2026-04-27T14:41:55.019Z</time></trkpt><trkpt lat="34.9301467" lon="-6.2299917"><ele>58.0</ele><time>2026-04-27T14:41:56.019Z</time></trkpt><trkpt lat="34.9303483" lon="-6.2299017"><ele>59.0</ele><time>2026-04-27T14:41:57.019Z</time></trkpt><trkpt lat="34.930535" lon="-6.2298117"><ele>60.0</ele><time>2026-04-27T14:41:58.018Z</time></trkpt><trkpt lat="34.9307117" lon="-6.2297317"><ele>61.0</ele><time>2026-04-27T14:41:59.019Z</time></trkpt><trkpt lat="34.9308883" lon="-6.2296617"><ele>62.0</ele><time>2026-04-27T14:42:00.019Z</time></trkpt><trkpt lat="34.9310467" lon="-6.2296"><ele>62.333333333333336</ele><time>2026-04-27T14:42:01.019Z</time></trkpt><trkpt lat="34.931195" lon="-6.22954"><ele>62.66666666666667</ele><time>2026-04-27T14:42:02.019Z</time></trkpt><trkpt lat="34.9313383" lon="-6.2294767"><ele>63.0</ele><time>2026-04-27T14:42:03.019Z</time></trkpt><trkpt lat="34.9314733" lon="-6.2294167"><ele>63.0</ele><time>2026-04-27T14:42:04.019Z</time></trkpt><trkpt lat="34.9316117" lon="-6.22936"><ele>63.0</ele><time>2026-04-27T14:42:05.019Z</time></trkpt><trkpt lat="34.931765" lon="-6.2293067"><ele>63.0</ele><time>2026-04-27T14:42:06.019Z</time></trkpt><trkpt lat="34.9319267" lon="-6.2292467"><ele>62.33333333333333</ele><time>2026-04-27T14:42:07.019Z</time></trkpt><trkpt lat="34.9320967" lon="-6.22917"><ele>61.666666666666664</ele><time>2026-04-27T14:42:08.019Z</time></trkpt><trkpt lat="34.9322717" lon="-6.2290833"><ele>61.0</ele><time>2026-04-27T14:42:09.019Z</time></trkpt><trkpt lat="34.9324567" lon="-6.2289917"><ele>63.0</ele><time>2026-04-27T14:42:10.019Z</time></trkpt><trkpt lat="34.93265" lon="-6.2289033"><ele>65.0</ele><time>2026-04-27T14:42:11.019Z</time></trkpt><trkpt lat="34.9328483" lon="-6.2288167"><ele>67.0</ele><time>2026-04-27T14:42:12.019Z</time></trkpt><trkpt lat="34.93305" lon="-6.2287283"><ele>67.0</ele><time>2026-04-27T14:42:13.019Z</time></trkpt><trkpt lat="34.933255" lon="-6.2286333"><ele>67.0</ele><time>2026-04-27T14:42:14.019Z</time></trkpt><trkpt lat="34.933465" lon="-6.2285417"><ele>67.0</ele><time>2026-04-27T14:42:15.019Z</time></trkpt><trkpt lat="34.9336767" lon="-6.2284467"><ele>67.0</ele><time>2026-04-27T14:42:16.019Z</time></trkpt><trkpt lat="34.933895" lon="-6.2283533"><ele>67.0</ele><time>2026-04-27T14:42:17.019Z</time></trkpt><trkpt lat="34.9341167" lon="-6.2282583"><ele>68.0</ele><time>2026-04-27T14:42:18.019Z</time></trkpt><trkpt lat="34.934335" lon="-6.22817"><ele>69.0</ele><time>2026-04-27T14:42:19.019Z</time></trkpt><trkpt lat="34.934535" lon="-6.2280783"><ele>70.0</ele><time>2026-04-27T14:42:20.019Z</time></trkpt><trkpt lat="34.9347333" lon="-6.22799"><ele>71.0</ele><time>2026-04-27T14:42:21.019Z</time></trkpt><trkpt lat="34.93493" lon="-6.2279033"><ele>72.0</ele><time>2026-04-27T14:42:22.018Z</time></trkpt><trkpt lat="34.93513" lon="-6.2278183"><ele>73.0</ele><time>2026-04-27T14:42:23.019Z</time></trkpt><trkpt lat="34.9353317" lon="-6.2277217"><ele>73.33333333333333</ele><time>2026-04-27T14:42:24.019Z</time></trkpt><trkpt lat="34.9355383" lon="-6.2276317"><ele>73.66666666666667</ele><time>2026-04-27T14:42:25.019Z</time></trkpt><trkpt lat="34.9357317" lon="-6.2275533"><ele>74.0</ele><time>2026-04-27T14:42:26.019Z</time></trkpt><trkpt lat="34.9359133" lon="-6.2274767"><ele>74.0</ele><time>2026-04-27T14:42:27.019Z</time></trkpt><trkpt lat="34.9361017" lon="-6.227395"><ele>74.0</ele><time>2026-04-27T14:42:28.019Z</time></trkpt><trkpt lat="34.93629" lon="-6.2273083"><ele>74.0</ele><time>2026-04-27T14:42:29.019Z</time></trkpt><trkpt lat="34.9364917" lon="-6.2272217"><ele>74.66666666666667</ele><time>2026-04-27T14:42:30.019Z</time></trkpt><trkpt lat="34.9366967" lon="-6.2271367"><ele>75.33333333333333</ele><time>2026-04-27T14:42:31.019Z</time></trkpt><trkpt lat="34.9368983" lon="-6.2270483"><ele>76.0</ele><time>2026-04-27T14:42:32.019Z</time></trkpt><trkpt lat="34.9370983" lon="-6.22696"><ele>76.0</ele><time>2026-04-27T14:42:33.019Z</time></trkpt><trkpt lat="34.9373067" lon="-6.2268717"><ele>76.0</ele><time>2026-04-27T14:42:34.019Z</time></trkpt><trkpt lat="34.9375167" lon="-6.22678"><ele>76.0</ele><time>2026-04-27T14:42:35.019Z</time></trkpt><trkpt lat="34.93773" lon="-6.2266867"><ele>75.33333333333333</ele><time>2026-04-27T14:42:36.019Z</time></trkpt><trkpt lat="34.937945" lon="-6.2266"><ele>74.66666666666667</ele><time>2026-04-27T14:42:37.019Z</time></trkpt><trkpt lat="34.9381483" lon="-6.2265183"><ele>74.0</ele><time>2026-04-27T14:42:38.019Z</time></trkpt><trkpt lat="34.9383383" lon="-6.2264383"><ele>74.0</ele><time>2026-04-27T14:42:39.018Z</time></trkpt><trkpt lat="34.9385217" lon="-6.2263683"><ele>74.0</ele><time>2026-04-27T14:42:40.019Z</time></trkpt><trkpt lat="34.9387017" lon="-6.226285"><ele>74.0</ele><time>2026-04-27T14:42:41.019Z</time></trkpt><trkpt lat="34.9388883" lon="-6.2262"><ele>74.0</ele><time>2026-04-27T14:42:42.018Z</time></trkpt><trkpt lat="34.93908" lon="-6.2261167"><ele>74.0</ele><time>2026-04-27T14:42:43.019Z</time></trkpt><trkpt lat="34.9392717" lon="-6.22603"><ele>74.0</ele><time>2026-04-27T14:42:44.019Z</time></trkpt><trkpt lat="34.9394583" lon="-6.225955"><ele>74.0</ele><time>2026-04-27T14:42:45.019Z</time></trkpt><trkpt lat="34.9396317" lon="-6.2258817"><ele>74.0</ele><time>2026-04-27T14:42:46.019Z</time></trkpt><trkpt lat="34.9397917" lon="-6.22581"><ele>74.0</ele><time>2026-04-27T14:42:47.019Z</time></trkpt><trkpt lat="34.9399583" lon="-6.2257367"><ele>74.0</ele><time>2026-04-27T14:42:48.019Z</time></trkpt><trkpt lat="34.9401317" lon="-6.2256633"><ele>74.0</ele><time>2026-04-27T14:42:49.019Z</time></trkpt><trkpt lat="34.9403117" lon="-6.225585"><ele>74.0</ele><time>2026-04-27T14:42:50.019Z</time></trkpt><trkpt lat="34.9404983" lon="-6.2255017"><ele>74.33333333333334</ele><time>2026-04-27T14:42:51.019Z</time></trkpt><trkpt lat="34.940685" lon="-6.22542"><ele>74.66666666666667</ele><time>2026-04-27T14:42:52.019Z</time></trkpt><trkpt lat="34.9408733" lon="-6.2253383"><ele>75.0</ele><time>2026-04-27T14:42:53.019Z</time></trkpt><trkpt lat="34.9410517" lon="-6.2252667"><ele>75.0</ele><time>2026-04-27T14:42:54.019Z</time></trkpt><trkpt lat="34.94123" lon="-6.2251783"><ele>75.0</ele><time>2026-04-27T14:42:55.019Z</time></trkpt><trkpt lat="34.941415" lon="-6.2250933"><ele>75.0</ele><time>2026-04-27T14:42:56.019Z</time></trkpt><trkpt lat="34.9416083" lon="-6.225005"><ele>75.0</ele><time>2026-04-27T14:42:57.019Z</time></trkpt><trkpt lat="34.9418117" lon="-6.224925"><ele>75.0</ele><time>2026-04-27T14:42:58.018Z</time></trkpt><trkpt lat="34.9419967" lon="-6.2248417"><ele>75.0</ele><time>2026-04-27T14:42:59.019Z</time></trkpt><trkpt lat="34.9421817" lon="-6.22476"><ele>75.0</ele><time>2026-04-27T14:43:00.019Z</time></trkpt><trkpt lat="34.94238" lon="-6.224675"><ele>75.0</ele><time>2026-04-27T14:43:01.019Z</time></trkpt><trkpt lat="34.9425817" lon="-6.2245917"><ele>75.0</ele><time>2026-04-27T14:43:02.019Z</time></trkpt><trkpt lat="34.9427883" lon="-6.2245067"><ele>74.33333333333333</ele><time>2026-04-27T14:43:03.019Z</time></trkpt><trkpt lat="34.9429883" lon="-6.22442"><ele>73.66666666666666</ele><time>2026-04-27T14:43:04.019Z</time></trkpt><trkpt lat="34.9431717" lon="-6.22434"><ele>73.0</ele><time>2026-04-27T14:43:05.019Z</time></trkpt><trkpt lat="34.943365" lon="-6.2242567"><ele>72.66666666666666</ele><time>2026-04-27T14:43:06.019Z</time></trkpt><trkpt lat="34.9435517" lon="-6.2241733"><ele>72.33333333333333</ele><time>2026-04-27T14:43:07.019Z</time></trkpt><trkpt lat="34.943745" lon="-6.22409"><ele>72.0</ele><time>2026-04-27T14:43:08.019Z</time></trkpt><trkpt lat="34.94393" lon="-6.2240083"><ele>72.0</ele><time>2026-04-27T14:43:09.019Z</time></trkpt><trkpt lat="34.944115" lon="-6.223925"><ele>72.0</ele><time>2026-04-27T14:43:10.019Z</time></trkpt><trkpt lat="34.9443" lon="-6.2238433"><ele>72.0</ele><time>2026-04-27T14:43:11.019Z</time></trkpt><trkpt lat="34.9444933" lon="-6.2237583"><ele>72.0</ele><time>2026-04-27T14:43:12.019Z</time></trkpt><trkpt lat="34.944685" lon="-6.223675"><ele>72.0</ele><time>2026-04-27T14:43:13.019Z</time></trkpt><trkpt lat="34.9448783" lon="-6.2235833"><ele>72.0</ele><time>2026-04-27T14:43:14.019Z</time></trkpt><trkpt lat="34.9450733" lon="-6.2234917"><ele>71.66666666666667</ele><time>2026-04-27T14:43:15.019Z</time></trkpt><trkpt lat="34.9452817" lon="-6.2234033"><ele>71.33333333333334</ele><time>2026-04-27T14:43:16.019Z</time></trkpt><trkpt lat="34.9454933" lon="-6.2233133"><ele>71.0</ele><time>2026-04-27T14:43:17.018Z</time></trkpt><trkpt lat="34.9457083" lon="-6.2232217"><ele>71.0</ele><time>2026-04-27T14:43:18.019Z</time></trkpt><trkpt lat="34.9459217" lon="-6.223135"><ele>71.0</ele><time>2026-04-27T14:43:19.019Z</time></trkpt><trkpt lat="34.9461283" lon="-6.22305"><ele>71.0</ele><time>2026-04-27T14:43:20.019Z</time></trkpt><trkpt lat="34.946325" lon="-6.2229617"><ele>71.0</ele><time>2026-04-27T14:43:21.019Z</time></trkpt><trkpt lat="34.946525" lon="-6.22287"><ele>71.0</ele><time>2026-04-27T14:43:22.019Z</time></trkpt><trkpt lat="34.9467317" lon="-6.222785"><ele>71.0</ele><time>2026-04-27T14:43:23.019Z</time></trkpt><trkpt lat="34.9469383" lon="-6.2226967"><ele>71.0</ele><time>2026-04-27T14:43:24.019Z</time></trkpt><trkpt lat="34.9471433" lon="-6.2226067"><ele>71.0</ele><time>2026-04-27T14:43:25.019Z</time></trkpt><trkpt lat="34.94735" lon="-6.222515"><ele>71.0</ele><time>2026-04-27T14:43:26.019Z</time></trkpt><trkpt lat="34.947555" lon="-6.2224133"><ele>70.5</ele><time>2026-04-27T14:43:27.019Z</time></trkpt><trkpt lat="34.947765" lon="-6.2223117"><ele>70.0</ele><time>2026-04-27T14:43:28.019Z</time></trkpt><trkpt lat="34.94798" lon="-6.22222"><ele>70.0</ele><time>2026-04-27T14:43:29.019Z</time></trkpt><trkpt lat="34.9481917" lon="-6.2221317"><ele>70.0</ele><time>2026-04-27T14:43:30.019Z</time></trkpt><trkpt lat="34.9483933" lon="-6.2220617"><ele>70.0</ele><time>2026-04-27T14:43:31.019Z</time></trkpt><trkpt lat="34.9485933" lon="-6.221985"><ele>69.33333333333333</ele><time>2026-04-27T14:43:32.018Z</time></trkpt><trkpt lat="34.9487783" lon="-6.2219"><ele>68.66666666666667</ele><time>2026-04-27T14:43:33.019Z</time></trkpt><trkpt lat="34.9489633" lon="-6.2218167"><ele>68.0</ele><time>2026-04-27T14:43:34.019Z</time></trkpt><trkpt lat="34.9491583" lon="-6.221725"><ele>67.66666666666667</ele><time>2026-04-27T14:43:35.019Z</time></trkpt><trkpt lat="34.9493567" lon="-6.2216333"><ele>67.33333333333333</ele><time>2026-04-27T14:43:36.019Z</time></trkpt><trkpt lat="34.9495617" lon="-6.2215417"><ele>67.0</ele><time>2026-04-27T14:43:37.019Z</time></trkpt><trkpt lat="34.9497683" lon="-6.221455"><ele>67.0</ele><time>2026-04-27T14:43:38.019Z</time></trkpt><trkpt lat="34.9499767" lon="-6.221365"><ele>67.0</ele><time>2026-04-27T14:43:39.019Z</time></trkpt><trkpt lat="34.9501933" lon="-6.2212717"><ele>65.0</ele><time>2026-04-27T14:43:40.019Z</time></trkpt><trkpt lat="34.9504083" lon="-6.22118"><ele>63.0</ele><time>2026-04-27T14:43:41.019Z</time></trkpt><trkpt lat="34.9506283" lon="-6.221085"><ele>63.0</ele><time>2026-04-27T14:43:42.019Z</time></trkpt><trkpt lat="34.95085" lon="-6.22099"><ele>63.0</ele><time>2026-04-27T14:43:43.019Z</time></trkpt><trkpt lat="34.95108" lon="-6.2208933"><ele>62.0</ele><time>2026-04-27T14:43:44.019Z</time></trkpt><trkpt lat="34.9513133" lon="-6.2207917"><ele>61.0</ele><time>2026-04-27T14:43:45.019Z</time></trkpt><trkpt lat="34.9515317" lon="-6.2206917"><ele>61.33333333333333</ele><time>2026-04-27T14:43:46.018Z</time></trkpt><trkpt lat="34.9517367" lon="-6.2205983"><ele>61.66666666666667</ele><time>2026-04-27T14:43:47.019Z</time></trkpt><trkpt lat="34.9519317" lon="-6.2205133"><ele>62.0</ele><time>2026-04-27T14:43:48.019Z</time></trkpt><trkpt lat="34.9521267" lon="-6.22043"><ele>62.0</ele><time>2026-04-27T14:43:49.019Z</time></trkpt><trkpt lat="34.9523233" lon="-6.2203517"><ele>62.0</ele><time>2026-04-27T14:43:50.019Z</time></trkpt><trkpt lat="34.9525017" lon="-6.220285"><ele>62.0</ele><time>2026-04-27T14:43:51.019Z</time></trkpt><trkpt lat="34.95266" lon="-6.2202217"><ele>62.333333333333336</ele><time>2026-04-27T14:43:52.019Z</time></trkpt><trkpt lat="34.9528067" lon="-6.2201583"><ele>62.66666666666667</ele><time>2026-04-27T14:43:53.019Z</time></trkpt><trkpt lat="34.9529617" lon="-6.2200917"><ele>63.0</ele><time>2026-04-27T14:43:54.019Z</time></trkpt><trkpt lat="34.95312" lon="-6.220015"><ele>63.0</ele><time>2026-04-27T14:43:55.019Z</time></trkpt><trkpt lat="34.9532767" lon="-6.2199417"><ele>63.0</ele><time>2026-04-27T14:43:56.019Z</time></trkpt><trkpt lat="34.9534267" lon="-6.2198733"><ele>63.0</ele><time>2026-04-27T14:43:57.019Z</time></trkpt><trkpt lat="34.95358" lon="-6.2198017"><ele>63.0</ele><time>2026-04-27T14:43:58.019Z</time></trkpt><trkpt lat="34.9537467" lon="-6.2197317"><ele>63.0</ele><time>2026-04-27T14:43:59.019Z</time></trkpt><trkpt lat="34.9539233" lon="-6.2196517"><ele>63.0</ele><time>2026-04-27T14:44:00.019Z</time></trkpt><trkpt lat="34.9541117" lon="-6.219575"><ele>62.66666666666667</ele><time>2026-04-27T14:44:01.019Z</time></trkpt><trkpt lat="34.954295" lon="-6.2194967"><ele>62.333333333333336</ele><time>2026-04-27T14:44:02.019Z</time></trkpt><trkpt lat="34.9544883" lon="-6.2194083"><ele>62.0</ele><time>2026-04-27T14:44:03.019Z</time></trkpt><trkpt lat="34.95468" lon="-6.2193217"><ele>62.0</ele><time>2026-04-27T14:44:04.019Z</time></trkpt><trkpt lat="34.9548567" lon="-6.21924"><ele>62.0</ele><time>2026-04-27T14:44:05.019Z</time></trkpt><trkpt lat="34.9550333" lon="-6.2191683"><ele>62.0</ele><time>2026-04-27T14:44:06.019Z</time></trkpt><trkpt lat="34.9552183" lon="-6.219095"><ele>61.333333333333336</ele><time>2026-04-27T14:44:07.019Z</time></trkpt><trkpt lat="34.955405" lon="-6.2190117"><ele>60.66666666666667</ele><time>2026-04-27T14:44:08.019Z</time></trkpt><trkpt lat="34.9555967" lon="-6.21893"><ele>60.0</ele><time>2026-04-27T14:44:09.018Z</time></trkpt><trkpt lat="34.9557933" lon="-6.2188383"><ele>61.33333333333333</ele><time>2026-04-27T14:44:10.019Z</time></trkpt><trkpt lat="34.9559917" lon="-6.2187467"><ele>62.666666666666664</ele><time>2026-04-27T14:44:11.019Z</time></trkpt><trkpt lat="34.9561917" lon="-6.218655"><ele>64.0</ele><time>2026-04-27T14:44:12.019Z</time></trkpt><trkpt lat="34.9563983" lon="-6.2185683"><ele>64.0</ele><time>2026-04-27T14:44:13.019Z</time></trkpt><trkpt lat="34.9566067" lon="-6.218475"><ele>64.0</ele><time>2026-04-27T14:44:14.019Z</time></trkpt><trkpt lat="34.9568267" lon="-6.2183833"><ele>62.0</ele><time>2026-04-27T14:44:15.019Z</time></trkpt><trkpt lat="34.9570483" lon="-6.2182883"><ele>60.0</ele><time>2026-04-27T14:44:16.018Z</time></trkpt><trkpt lat="34.95728" lon="-6.2181867"><ele>61.0</ele><time>2026-04-27T14:44:17.019Z</time></trkpt><trkpt lat="34.9575167" lon="-6.2180867"><ele>62.0</ele><time>2026-04-27T14:44:18.019Z</time></trkpt><trkpt lat="34.9577483" lon="-6.21799"><ele>62.0</ele><time>2026-04-27T14:44:19.019Z</time></trkpt><trkpt lat="34.9579617" lon="-6.2179"><ele>62.0</ele><time>2026-04-27T14:44:20.019Z</time></trkpt><trkpt lat="34.9581767" lon="-6.2178067"><ele>62.0</ele><time>2026-04-27T14:44:21.019Z</time></trkpt><trkpt lat="34.9583967" lon="-6.2177117"><ele>62.0</ele><time>2026-04-27T14:44:22.019Z</time></trkpt><trkpt lat="34.9586183" lon="-6.2176133"><ele>62.0</ele><time>2026-04-27T14:44:23.019Z</time></trkpt><trkpt lat="34.95885" lon="-6.217515"><ele>62.0</ele><time>2026-04-27T14:44:24.019Z</time></trkpt><trkpt lat="34.959065" lon="-6.2174233"><ele>61.66666666666667</ele><time>2026-04-27T14:44:25.019Z</time></trkpt><trkpt lat="34.9592533" lon="-6.2173367"><ele>61.33333333333333</ele><time>2026-04-27T14:44:26.019Z</time></trkpt><trkpt lat="34.9594167" lon="-6.21727"><ele>61.0</ele><time>2026-04-27T14:44:27.019Z</time></trkpt><trkpt lat="34.9595833" lon="-6.2172017"><ele>61.0</ele><time>2026-04-27T14:44:28.019Z</time></trkpt><trkpt lat="34.9597567" lon="-6.2171267"><ele>61.0</ele><time>2026-04-27T14:44:29.019Z</time></trkpt><trkpt lat="34.9599217" lon="-6.217055"><ele>61.0</ele><time>2026-04-27T14:44:30.019Z</time></trkpt><trkpt lat="34.9600833" lon="-6.2169817"><ele>59.33333333333333</ele><time>2026-04-27T14:44:31.019Z</time></trkpt><trkpt lat="34.9602483" lon="-6.2169067"><ele>57.66666666666667</ele><time>2026-04-27T14:44:32.018Z</time></trkpt><trkpt lat="34.9604233" lon="-6.21683"><ele>56.0</ele><time>2026-04-27T14:44:33.019Z</time></trkpt><trkpt lat="34.96061" lon="-6.216755"><ele>56.0</ele><time>2026-04-27T14:44:34.019Z</time></trkpt><trkpt lat="34.960795" lon="-6.2166783"><ele>56.0</ele><time>2026-04-27T14:44:35.019Z</time></trkpt><trkpt lat="34.9609783" lon="-6.2166"><ele>56.0</ele><time>2026-04-27T14:44:36.019Z</time></trkpt><trkpt lat="34.9611483" lon="-6.2165283"><ele>54.0</ele><time>2026-04-27T14:44:37.019Z</time></trkpt><trkpt lat="34.9613017" lon="-6.2164617"><ele>52.0</ele><time>2026-04-27T14:44:38.019Z</time></trkpt><trkpt lat="34.9614417" lon="-6.2164033"><ele>50.0</ele><time>2026-04-27T14:44:39.019Z</time></trkpt><trkpt lat="34.96158" lon="-6.2163433"><ele>48.25</ele><time>2026-04-27T14:44:40.019Z</time></trkpt><trkpt lat="34.9617117" lon="-6.21629"><ele>46.5</ele><time>2026-04-27T14:44:41.019Z</time></trkpt><trkpt lat="34.9618433" lon="-6.216245"><ele>44.75</ele><time>2026-04-27T14:44:42.019Z</time></trkpt><trkpt lat="34.9619717" lon="-6.2161933"><ele>43.0</ele><time>2026-04-27T14:44:43.019Z</time></trkpt><trkpt lat="34.9621017" lon="-6.21613"><ele>43.0</ele><time>2026-04-27T14:44:44.019Z</time></trkpt><trkpt lat="34.962245" lon="-6.2160667"><ele>43.0</ele><time>2026-04-27T14:44:45.019Z</time></trkpt><trkpt lat="34.9624017" lon="-6.21599"><ele>43.0</ele><time>2026-04-27T14:44:46.019Z</time></trkpt><trkpt lat="34.96256" lon="-6.215915"><ele>43.0</ele><time>2026-04-27T14:44:47.019Z</time></trkpt><trkpt lat="34.9627267" lon="-6.215845"><ele>43.0</ele><time>2026-04-27T14:44:48.019Z</time></trkpt><trkpt lat="34.9629117" lon="-6.2157583"><ele>43.0</ele><time>2026-04-27T14:44:49.019Z</time></trkpt><trkpt lat="34.9631067" lon="-6.21567"><ele>42.333333333333336</ele><time>2026-04-27T14:44:50.019Z</time></trkpt><trkpt lat="34.9633133" lon="-6.2155817"><ele>41.666666666666664</ele><time>2026-04-27T14:44:51.018Z</time></trkpt><trkpt lat="34.9635267" lon="-6.2154833"><ele>41.0</ele><time>2026-04-27T14:44:52.018Z</time></trkpt><trkpt lat="34.9637467" lon="-6.2153867"><ele>41.0</ele><time>2026-04-27T14:44:53.018Z</time></trkpt><trkpt lat="34.9639817" lon="-6.2152933"><ele>41.0</ele><time>2026-04-27T14:44:54.018Z</time></trkpt><trkpt lat="34.9642083" lon="-6.2151983"><ele>41.0</ele><time>2026-04-27T14:44:55.018Z</time></trkpt><trkpt lat="34.9644217" lon="-6.2150983"><ele>41.0</ele><time>2026-04-27T14:44:56.018Z</time></trkpt><trkpt lat="34.96463" lon="-6.2150083"><ele>41.0</ele><time>2026-04-27T14:44:57.018Z</time></trkpt><trkpt lat="34.9648367" lon="-6.2149133"><ele>41.0</ele><time>2026-04-27T14:44:58.018Z</time></trkpt><trkpt lat="34.9650483" lon="-6.2148217"><ele>41.0</ele><time>2026-04-27T14:44:59.018Z</time></trkpt><trkpt lat="34.9652533" lon="-6.2147383"><ele>41.0</ele><time>2026-04-27T14:45:00.018Z</time></trkpt><trkpt lat="34.9654533" lon="-6.21465"><ele>41.0</ele><time>2026-04-27T14:45:01.018Z</time></trkpt><trkpt lat="34.9656517" lon="-6.2145667"><ele>41.0</ele><time>2026-04-27T14:45:02.018Z</time></trkpt><trkpt lat="34.96585" lon="-6.2144817"><ele>40.33333333333333</ele><time>2026-04-27T14:45:03.017Z</time></trkpt><trkpt lat="34.9660533" lon="-6.2144"><ele>39.666666666666664</ele><time>2026-04-27T14:45:04.018Z</time></trkpt><trkpt lat="34.9662517" lon="-6.2143033"><ele>39.0</ele><time>2026-04-27T14:45:05.018Z</time></trkpt><trkpt lat="34.9664533" lon="-6.2142133"><ele>39.0</ele><time>2026-04-27T14:45:06.017Z</time></trkpt><trkpt lat="34.9666533" lon="-6.2141217"><ele>39.0</ele><time>2026-04-27T14:45:07.018Z</time></trkpt><trkpt lat="34.966845" lon="-6.2140367"><ele>39.0</ele><time>2026-04-27T14:45:08.018Z</time></trkpt><trkpt lat="34.9670367" lon="-6.213945"><ele>39.0</ele><time>2026-04-27T14:45:09.018Z</time></trkpt><trkpt lat="34.96723" lon="-6.2138567"><ele>39.0</ele><time>2026-04-27T14:45:10.018Z</time></trkpt><trkpt lat="34.967425" lon="-6.21377"><ele>39.0</ele><time>2026-04-27T14:45:11.018Z</time></trkpt><trkpt lat="34.9676267" lon="-6.2136767"><ele>37.666666666666664</ele><time>2026-04-27T14:45:12.018Z</time></trkpt><trkpt lat="34.9678317" lon="-6.2135867"><ele>36.33333333333333</ele><time>2026-04-27T14:45:13.018Z</time></trkpt><trkpt lat="34.9680383" lon="-6.2135"><ele>35.0</ele><time>2026-04-27T14:45:14.018Z</time></trkpt><trkpt lat="34.9682433" lon="-6.2134133"><ele>34.666666666666664</ele><time>2026-04-27T14:45:15.018Z</time></trkpt><trkpt lat="34.968445" lon="-6.2133317"><ele>34.333333333333336</ele><time>2026-04-27T14:45:16.018Z</time></trkpt><trkpt lat="34.96864" lon="-6.2132483"><ele>34.0</ele><time>2026-04-27T14:45:17.018Z</time></trkpt><trkpt lat="34.9688267" lon="-6.213165"><ele>34.66666666666667</ele><time>2026-04-27T14:45:18.018Z</time></trkpt><trkpt lat="34.969015" lon="-6.2130867"><ele>35.333333333333336</ele><time>2026-04-27T14:45:19.018Z</time></trkpt><trkpt lat="34.9692017" lon="-6.2130067"><ele>36.0</ele><time>2026-04-27T14:45:20.018Z</time></trkpt><trkpt lat="34.96939" lon="-6.212925"><ele>36.0</ele><time>2026-04-27T14:45:21.018Z</time></trkpt><trkpt lat="34.9695767" lon="-6.21283"><ele>36.0</ele><time>2026-04-27T14:45:22.018Z</time></trkpt><trkpt lat="34.9697717" lon="-6.2127383"><ele>36.0</ele><time>2026-04-27T14:45:23.018Z</time></trkpt><trkpt lat="34.9699617" lon="-6.2126533"><ele>36.0</ele><time>2026-04-27T14:45:24.018Z</time></trkpt><trkpt lat="34.9701583" lon="-6.2125667"><ele>36.0</ele><time>2026-04-27T14:45:25.017Z</time></trkpt><trkpt lat="34.9703583" lon="-6.21248"><ele>36.0</ele><time>2026-04-27T14:45:26.018Z</time></trkpt><trkpt lat="34.9705583" lon="-6.2123967"><ele>36.0</ele><time>2026-04-27T14:45:27.018Z</time></trkpt><trkpt lat="34.9707433" lon="-6.2123183"><ele>36.0</ele><time>2026-04-27T14:45:28.018Z</time></trkpt><trkpt lat="34.9709233" lon="-6.2122433"><ele>36.0</ele><time>2026-04-27T14:45:29.018Z</time></trkpt><trkpt lat="34.9711" lon="-6.21216"><ele>37.0</ele><time>2026-04-27T14:45:30.018Z</time></trkpt><trkpt lat="34.9712783" lon="-6.2120867"><ele>38.0</ele><time>2026-04-27T14:45:31.018Z</time></trkpt><trkpt lat="34.971445" lon="-6.2120167"><ele>39.0</ele><time>2026-04-27T14:45:32.018Z</time></trkpt><trkpt lat="34.9716117" lon="-6.2119517"><ele>38.333333333333336</ele><time>2026-04-27T14:45:33.018Z</time></trkpt><trkpt lat="34.9717683" lon="-6.21189"><ele>37.66666666666667</ele><time>2026-04-27T14:45:34.018Z</time></trkpt><trkpt lat="34.971915" lon="-6.21183"><ele>37.0</ele><time>2026-04-27T14:45:35.017Z</time></trkpt><trkpt lat="34.9720483" lon="-6.2117683"><ele>37.0</ele><time>2026-04-27T14:45:36.018Z</time></trkpt><trkpt lat="34.97218" lon="-6.211705"><ele>37.0</ele><time>2026-04-27T14:45:37.018Z</time></trkpt><trkpt lat="34.9723233" lon="-6.2116467"><ele>37.0</ele><time>2026-04-27T14:45:38.017Z</time></trkpt><trkpt lat="34.9724717" lon="-6.2115817"><ele>37.333333333333336</ele><time>2026-04-27T14:45:39.018Z</time></trkpt><trkpt lat="34.9726367" lon="-6.2115133"><ele>37.666666666666664</ele><time>2026-04-27T14:45:40.018Z</time></trkpt><trkpt lat="34.972805" lon="-6.211435"><ele>38.0</ele><time>2026-04-27T14:45:41.018Z</time></trkpt><trkpt lat="34.97298" lon="-6.21136"><ele>38.0</ele><time>2026-04-27T14:45:42.017Z</time></trkpt><trkpt lat="34.9731617" lon="-6.2112783"><ele>38.0</ele><time>2026-04-27T14:45:43.018Z</time></trkpt><trkpt lat="34.973355" lon="-6.211195"><ele>38.0</ele><time>2026-04-27T14:45:44.017Z</time></trkpt><trkpt lat="34.9735433" lon="-6.2111167"><ele>37.33333333333333</ele><time>2026-04-27T14:45:45.018Z</time></trkpt><trkpt lat="34.9737333" lon="-6.21104"><ele>36.666666666666664</ele><time>2026-04-27T14:45:46.018Z</time></trkpt><trkpt lat="34.9739233" lon="-6.2109567"><ele>36.0</ele><time>2026-04-27T14:45:47.018Z</time></trkpt><trkpt lat="34.9741133" lon="-6.21088"><ele>36.333333333333336</ele><time>2026-04-27T14:45:48.018Z</time></trkpt><trkpt lat="34.9742917" lon="-6.2107967"><ele>36.66666666666667</ele><time>2026-04-27T14:45:49.018Z</time></trkpt><trkpt lat="34.97448" lon="-6.2107183"><ele>37.0</ele><time>2026-04-27T14:45:50.018Z</time></trkpt><trkpt lat="34.974665" lon="-6.2106283"><ele>37.0</ele><time>2026-04-27T14:45:51.018Z</time></trkpt><trkpt lat="34.9748517" lon="-6.2105433"><ele>37.0</ele><time>2026-04-27T14:45:52.018Z</time></trkpt><trkpt lat="34.97504" lon="-6.2104567"><ele>37.0</ele><time>2026-04-27T14:45:53.018Z</time></trkpt><trkpt lat="34.9752283" lon="-6.2103733"><ele>37.0</ele><time>2026-04-27T14:45:54.018Z</time></trkpt><trkpt lat="34.9754133" lon="-6.21029"><ele>37.0</ele><time>2026-04-27T14:45:55.018Z</time></trkpt><trkpt lat="34.9756017" lon="-6.2102067"><ele>37.0</ele><time>2026-04-27T14:45:56.018Z</time></trkpt><trkpt lat="34.9757933" lon="-6.2101267"><ele>36.66666666666667</ele><time>2026-04-27T14:45:57.018Z</time></trkpt><trkpt lat="34.9759867" lon="-6.210045"><ele>36.333333333333336</ele><time>2026-04-27T14:45:58.017Z</time></trkpt><trkpt lat="34.9761783" lon="-6.2099617"><ele>36.0</ele><time>2026-04-27T14:45:59.018Z</time></trkpt><trkpt lat="34.9763683" lon="-6.2098817"><ele>36.0</ele><time>2026-04-27T14:46:00.018Z</time></trkpt><trkpt lat="34.9765633" lon="-6.2098033"><ele>36.0</ele><time>2026-04-27T14:46:01.017Z</time></trkpt><trkpt lat="34.97676" lon="-6.2097283"><ele>36.0</ele><time>2026-04-27T14:46:02.018Z</time></trkpt><trkpt lat="34.97695" lon="-6.20964"><ele>36.333333333333336</ele><time>2026-04-27T14:46:03.018Z</time></trkpt><trkpt lat="34.977125" lon="-6.2095667"><ele>36.66666666666667</ele><time>2026-04-27T14:46:04.018Z</time></trkpt><trkpt lat="34.9772983" lon="-6.2094917"><ele>37.0</ele><time>2026-04-27T14:46:05.018Z</time></trkpt><trkpt lat="34.9774683" lon="-6.20941"><ele>37.333333333333336</ele><time>2026-04-27T14:46:06.018Z</time></trkpt><trkpt lat="34.9776517" lon="-6.2093333"><ele>37.666666666666664</ele><time>2026-04-27T14:46:07.018Z</time></trkpt><trkpt lat="34.9778367" lon="-6.2092483"><ele>38.0</ele><time>2026-04-27T14:46:08.018Z</time></trkpt><trkpt lat="34.978025" lon="-6.209165"><ele>38.0</ele><time>2026-04-27T14:46:09.018Z</time></trkpt><trkpt lat="34.9782017" lon="-6.2090883"><ele>38.0</ele><time>2026-04-27T14:46:10.018Z</time></trkpt><trkpt lat="34.97837" lon="-6.209015"><ele>38.0</ele><time>2026-04-27T14:46:11.018Z</time></trkpt><trkpt lat="34.9785383" lon="-6.2089383"><ele>38.0</ele><time>2026-04-27T14:46:12.018Z</time></trkpt><trkpt lat="34.9787167" lon="-6.2088617"><ele>38.0</ele><time>2026-04-27T14:46:13.018Z</time></trkpt><trkpt lat="34.978905" lon="-6.20878"><ele>38.0</ele><time>2026-04-27T14:46:14.018Z</time></trkpt><trkpt lat="34.979105" lon="-6.2086967"><ele>38.0</ele><time>2026-04-27T14:46:15.017Z</time></trkpt><trkpt lat="34.9793117" lon="-6.2086017"><ele>38.0</ele><time>2026-04-27T14:46:16.018Z</time></trkpt><trkpt lat="34.97953" lon="-6.2085167"><ele>38.0</ele><time>2026-04-27T14:46:17.018Z</time></trkpt><trkpt lat="34.9797483" lon="-6.2084267"><ele>38.0</ele><time>2026-04-27T14:46:18.018Z</time></trkpt><trkpt lat="34.9799617" lon="-6.20834"><ele>38.33333333333333</ele><time>2026-04-27T14:46:19.018Z</time></trkpt><trkpt lat="34.98016" lon="-6.20825"><ele>38.666666666666664</ele><time>2026-04-27T14:46:20.018Z</time></trkpt><trkpt lat="34.980345" lon="-6.2081667"><ele>39.0</ele><time>2026-04-27T14:46:21.018Z</time></trkpt><trkpt lat="34.9805333" lon="-6.2080867"><ele>39.333333333333336</ele><time>2026-04-27T14:46:22.018Z</time></trkpt><trkpt lat="34.9807317" lon="-6.2080017"><ele>39.66666666666667</ele><time>2026-04-27T14:46:23.018Z</time></trkpt><trkpt lat="34.980935" lon="-6.2079167"><ele>40.0</ele><time>2026-04-27T14:46:24.017Z</time></trkpt><trkpt lat="34.9811283" lon="-6.2078333"><ele>39.333333333333336</ele><time>2026-04-27T14:46:25.018Z</time></trkpt><trkpt lat="34.98132" lon="-6.2077467"><ele>38.666666666666664</ele><time>2026-04-27T14:46:26.018Z</time></trkpt><trkpt lat="34.98151" lon="-6.207665"><ele>38.0</ele><time>2026-04-27T14:46:27.018Z</time></trkpt><trkpt lat="34.9816933" lon="-6.20759"><ele>38.0</ele><time>2026-04-27T14:46:28.018Z</time></trkpt><trkpt lat="34.9818717" lon="-6.20751"><ele>38.0</ele><time>2026-04-27T14:46:29.018Z</time></trkpt><trkpt lat="34.9820467" lon="-6.2074317"><ele>38.0</ele><time>2026-04-27T14:46:30.017Z</time></trkpt><trkpt lat="34.9822233" lon="-6.2073517"><ele>38.33333333333333</ele><time>2026-04-27T14:46:31.018Z</time></trkpt><trkpt lat="34.9824033" lon="-6.2072733"><ele>38.666666666666664</ele><time>2026-04-27T14:46:32.018Z</time></trkpt><trkpt lat="34.9825917" lon="-6.2072"><ele>39.0</ele><time>2026-04-27T14:46:33.017Z</time></trkpt><trkpt lat="34.9827867" lon="-6.2071183"><ele>39.333333333333336</ele><time>2026-04-27T14:46:34.018Z</time></trkpt><trkpt lat="34.9829883" lon="-6.20702"><ele>39.66666666666667</ele><time>2026-04-27T14:46:35.018Z</time></trkpt><trkpt lat="34.9832" lon="-6.2069167"><ele>40.0</ele><time>2026-04-27T14:46:36.018Z</time></trkpt><trkpt lat="34.9834133" lon="-6.20682"><ele>40.0</ele><time>2026-04-27T14:46:37.018Z</time></trkpt><trkpt lat="34.9836333" lon="-6.2067217"><ele>40.0</ele><time>2026-04-27T14:46:38.018Z</time></trkpt><trkpt lat="34.9838467" lon="-6.2066283"><ele>40.0</ele><time>2026-04-27T14:46:39.018Z</time></trkpt><trkpt lat="34.984045" lon="-6.20654"><ele>40.0</ele><time>2026-04-27T14:46:40.017Z</time></trkpt><trkpt lat="34.9842367" lon="-6.2064533"><ele>40.0</ele><time>2026-04-27T14:46:41.018Z</time></trkpt><trkpt lat="34.9844317" lon="-6.2063683"><ele>40.0</ele><time>2026-04-27T14:46:42.018Z</time></trkpt><trkpt lat="34.9846333" lon="-6.2062767"><ele>40.0</ele><time>2026-04-27T14:46:43.018Z</time></trkpt><trkpt lat="34.98484" lon="-6.2061833"><ele>40.0</ele><time>2026-04-27T14:46:44.018Z</time></trkpt><trkpt lat="34.9850417" lon="-6.2060933"><ele>40.0</ele><time>2026-04-27T14:46:45.018Z</time></trkpt><trkpt lat="34.985235" lon="-6.2060133"><ele>40.0</ele><time>2026-04-27T14:46:46.018Z</time></trkpt><trkpt lat="34.98542" lon="-6.20593"><ele>40.0</ele><time>2026-04-27T14:46:47.018Z</time></trkpt><trkpt lat="34.985605" lon="-6.2058467"><ele>40.0</ele><time>2026-04-27T14:46:48.018Z</time></trkpt><trkpt lat="34.985785" lon="-6.2057667"><ele>40.0</ele><time>2026-04-27T14:46:49.018Z</time></trkpt><trkpt lat="34.98597" lon="-6.2056883"><ele>40.0</ele><time>2026-04-27T14:46:50.018Z</time></trkpt><trkpt lat="34.9861583" lon="-6.2056067"><ele>41.333333333333336</ele><time>2026-04-27T14:46:51.018Z</time></trkpt><trkpt lat="34.98635" lon="-6.205515"><ele>42.666666666666664</ele><time>2026-04-27T14:46:52.018Z</time></trkpt><trkpt lat="34.98654" lon="-6.2054317"><ele>44.0</ele><time>2026-04-27T14:46:53.018Z</time></trkpt><trkpt lat="34.9867333" lon="-6.2053483"><ele>44.0</ele><time>2026-04-27T14:46:54.018Z</time></trkpt><trkpt lat="34.9869283" lon="-6.2052667"><ele>44.0</ele><time>2026-04-27T14:46:55.018Z</time></trkpt><trkpt lat="34.987125" lon="-6.2051883"><ele>44.0</ele><time>2026-04-27T14:46:56.018Z</time></trkpt><trkpt lat="34.987325" lon="-6.205105"><ele>44.33333333333333</ele><time>2026-04-27T14:46:57.018Z</time></trkpt><trkpt lat="34.987525" lon="-6.205015"><ele>44.666666666666664</ele><time>2026-04-27T14:46:58.018Z</time></trkpt><trkpt lat="34.9877267" lon="-6.204925"><ele>45.0</ele><time>2026-04-27T14:46:59.018Z</time></trkpt><trkpt lat="34.987935" lon="-6.204835"><ele>45.333333333333336</ele><time>2026-04-27T14:47:00.018Z</time></trkpt><trkpt lat="34.9881433" lon="-6.2047417"><ele>45.66666666666667</ele><time>2026-04-27T14:47:01.018Z</time></trkpt><trkpt lat="34.9883483" lon="-6.2046483"><ele>46.0</ele><time>2026-04-27T14:47:02.017Z</time></trkpt><trkpt lat="34.9885567" lon="-6.2045567"><ele>46.0</ele><time>2026-04-27T14:47:03.017Z</time></trkpt><trkpt lat="34.988765" lon="-6.2044717"><ele>46.0</ele><time>2026-04-27T14:47:04.018Z</time></trkpt><trkpt lat="34.9889733" lon="-6.2043867"><ele>46.0</ele><time>2026-04-27T14:47:05.018Z</time></trkpt><trkpt lat="34.9891817" lon="-6.2043017"><ele>45.66666666666667</ele><time>2026-04-27T14:47:06.018Z</time></trkpt><trkpt lat="34.9893867" lon="-6.2042217"><ele>45.333333333333336</ele><time>2026-04-27T14:47:07.018Z</time></trkpt><trkpt lat="34.9895767" lon="-6.2041433"><ele>45.0</ele><time>2026-04-27T14:47:08.018Z</time></trkpt><trkpt lat="34.9897533" lon="-6.204065"><ele>45.666666666666664</ele><time>2026-04-27T14:47:09.018Z</time></trkpt><trkpt lat="34.9899267" lon="-6.20399"><ele>46.33333333333333</ele><time>2026-04-27T14:47:10.017Z</time></trkpt><trkpt lat="34.9900883" lon="-6.2039117"><ele>47.0</ele><time>2026-04-27T14:47:11.017Z</time></trkpt><trkpt lat="34.99024" lon="-6.203835"><ele>47.0</ele><time>2026-04-27T14:47:12.018Z</time></trkpt><trkpt lat="34.9903783" lon="-6.203775"><ele>47.0</ele><time>2026-04-27T14:47:13.018Z</time></trkpt><trkpt lat="34.9905" lon="-6.20372"><ele>47.0</ele><time>2026-04-27T14:47:14.018Z</time></trkpt><trkpt lat="34.9906" lon="-6.2036883"><ele>47.0</ele><time>2026-04-27T14:47:15.018Z</time></trkpt><trkpt lat="34.990675" lon="-6.203685"><ele>47.0</ele><time>2026-04-27T14:47:16.018Z</time></trkpt><trkpt lat="34.9907417" lon="-6.203695"><ele>47.0</ele><time>2026-04-27T14:47:17.018Z</time></trkpt><trkpt lat="34.99082" lon="-6.203805"><ele>47.0</ele><time>2026-04-27T14:47:19.018Z</time></trkpt><trkpt lat="34.990845" lon="-6.2039083"><ele>47.0</ele><time>2026-04-27T14:47:20.018Z</time></trkpt><trkpt lat="34.9908717" lon="-6.2040483"><ele>47.0</ele><time>2026-04-27T14:47:21.018Z</time></trkpt><trkpt lat="34.9909117" lon="-6.2042133"><ele>44.75</ele><time>2026-04-27T14:47:22.017Z</time></trkpt><trkpt lat="34.990955" lon="-6.204375"><ele>42.5</ele><time>2026-04-27T14:47:23.018Z</time></trkpt><trkpt lat="34.991" lon="-6.2045267"><ele>40.25</ele><time>2026-04-27T14:47:24.018Z</time></trkpt><trkpt lat="34.99105" lon="-6.2046883"><ele>38.0</ele><time>2026-04-27T14:47:25.018Z</time></trkpt><trkpt lat="34.9910883" lon="-6.2048533"><ele>38.0</ele><time>2026-04-27T14:47:26.018Z</time></trkpt><trkpt lat="34.9911317" lon="-6.2050117"><ele>38.0</ele><time>2026-04-27T14:47:27.018Z</time></trkpt><trkpt lat="34.991165" lon="-6.2051717"><ele>38.0</ele><time>2026-04-27T14:47:28.018Z</time></trkpt><trkpt lat="34.9912133" lon="-6.2053333"><ele>38.0</ele><time>2026-04-27T14:47:29.018Z</time></trkpt><trkpt lat="34.9912983" lon="-6.205495"><ele>38.0</ele><time>2026-04-27T14:47:30.018Z</time></trkpt><trkpt lat="34.991395" lon="-6.20565"><ele>38.0</ele><time>2026-04-27T14:47:31.018Z</time></trkpt><trkpt lat="34.9915017" lon="-6.2057833"><ele>38.0</ele><time>2026-04-27T14:47:32.018Z</time></trkpt><trkpt lat="34.9916217" lon="-6.20589"><ele>38.0</ele><time>2026-04-27T14:47:33.018Z</time></trkpt><trkpt lat="34.9917583" lon="-6.2059817"><ele>38.0</ele><time>2026-04-27T14:47:34.018Z</time></trkpt><trkpt lat="34.991915" lon="-6.2060467"><ele>38.0</ele><time>2026-04-27T14:47:35.018Z</time></trkpt><trkpt lat="34.9920717" lon="-6.206085"><ele>38.0</ele><time>2026-04-27T14:47:36.018Z</time></trkpt><trkpt lat="34.992245" lon="-6.2061033"><ele>38.0</ele><time>2026-04-27T14:47:37.018Z</time></trkpt><trkpt lat="34.99242" lon="-6.2060867"><ele>38.0</ele><time>2026-04-27T14:47:38.018Z</time></trkpt><trkpt lat="34.992605" lon="-6.2060383"><ele>37.0</ele><time>2026-04-27T14:47:39.018Z</time></trkpt><trkpt lat="34.9927667" lon="-6.20596"><ele>36.0</ele><time>2026-04-27T14:47:40.018Z</time></trkpt><trkpt lat="34.992925" lon="-6.2058567"><ele>35.0</ele><time>2026-04-27T14:47:41.018Z</time></trkpt><trkpt lat="34.9930883" lon="-6.20574"><ele>34.666666666666664</ele><time>2026-04-27T14:47:42.017Z</time></trkpt><trkpt lat="34.99325" lon="-6.2056233"><ele>34.333333333333336</ele><time>2026-04-27T14:47:43.017Z</time></trkpt><trkpt lat="34.9934" lon="-6.2054933"><ele>34.0</ele><time>2026-04-27T14:47:44.018Z</time></trkpt><trkpt lat="34.99355" lon="-6.2053683"><ele>34.0</ele><time>2026-04-27T14:47:45.017Z</time></trkpt><trkpt lat="34.993695" lon="-6.2052433"><ele>34.0</ele><time>2026-04-27T14:47:46.018Z</time></trkpt><trkpt lat="34.9938267" lon="-6.2051183"><ele>34.0</ele><time>2026-04-27T14:47:47.018Z</time></trkpt><trkpt lat="34.9939533" lon="-6.2049717"><ele>36.333333333333336</ele><time>2026-04-27T14:47:48.017Z</time></trkpt><trkpt lat="34.994065" lon="-6.2048283"><ele>38.666666666666664</ele><time>2026-04-27T14:47:49.018Z</time></trkpt><trkpt lat="34.9941683" lon="-6.204665"><ele>41.0</ele><time>2026-04-27T14:47:50.018Z</time></trkpt><trkpt lat="34.9942667" lon="-6.20448"><ele>42.0</ele><time>2026-04-27T14:47:51.018Z</time></trkpt><trkpt lat="34.9943533" lon="-6.204305"><ele>43.0</ele><time>2026-04-27T14:47:52.018Z</time></trkpt><trkpt lat="34.9944467" lon="-6.2041467"><ele>44.0</ele><time>2026-04-27T14:47:53.018Z</time></trkpt><trkpt lat="34.9945283" lon="-6.2040033"><ele>44.6</ele><time>2026-04-27T14:47:54.018Z</time></trkpt><trkpt lat="34.9946" lon="-6.203875"><ele>45.2</ele><time>2026-04-27T14:47:55.018Z</time></trkpt><trkpt lat="34.9946617" lon="-6.2037617"><ele>45.800000000000004</ele><time>2026-04-27T14:47:56.018Z</time></trkpt><trkpt lat="34.994715" lon="-6.20368"><ele>46.400000000000006</ele><time>2026-04-27T14:47:57.018Z</time></trkpt><trkpt lat="34.9947717" lon="-6.2036167"><ele>47.0</ele><time>2026-04-27T14:47:58.018Z</time></trkpt><trkpt lat="34.9948317" lon="-6.2035817"><ele>47.0</ele><time>2026-04-27T14:47:59.018Z</time></trkpt><trkpt lat="34.9948967" lon="-6.2035867"><ele>47.0</ele><time>2026-04-27T14:48:00.018Z</time></trkpt><trkpt lat="34.9949717" lon="-6.20362"><ele>47.0</ele><time>2026-04-27T14:48:01.018Z</time></trkpt><trkpt lat="34.99506" lon="-6.2036683"><ele>47.0</ele><time>2026-04-27T14:48:02.018Z</time></trkpt><trkpt lat="34.9951633" lon="-6.2037267"><ele>47.0</ele><time>2026-04-27T14:48:03.018Z</time></trkpt><trkpt lat="34.9952817" lon="-6.203785"><ele>46.75</ele><time>2026-04-27T14:48:04.018Z</time></trkpt><trkpt lat="34.9954083" lon="-6.2038483"><ele>46.5</ele><time>2026-04-27T14:48:05.018Z</time></trkpt><trkpt lat="34.9955383" lon="-6.2039217"><ele>46.25</ele><time>2026-04-27T14:48:06.017Z</time></trkpt><trkpt lat="34.9956783" lon="-6.204005"><ele>46.0</ele><time>2026-04-27T14:48:07.018Z</time></trkpt><trkpt lat="34.9958083" lon="-6.2040883"><ele>46.66666666666667</ele><time>2026-04-27T14:48:08.018Z</time></trkpt><trkpt lat="34.995935" lon="-6.2041733"><ele>47.333333333333336</ele><time>2026-04-27T14:48:09.018Z</time></trkpt><trkpt lat="34.9960717" lon="-6.2042583"><ele>48.0</ele><time>2026-04-27T14:48:10.018Z</time></trkpt><trkpt lat="34.99621" lon="-6.20435"><ele>48.0</ele><time>2026-04-27T14:48:11.017Z</time></trkpt><trkpt lat="34.996365" lon="-6.2044417"><ele>48.0</ele><time>2026-04-27T14:48:12.017Z</time></trkpt><trkpt lat="34.9965233" lon="-6.20454"><ele>48.0</ele><time>2026-04-27T14:48:13.018Z</time></trkpt><trkpt lat="34.9966783" lon="-6.2046383"><ele>48.25</ele><time>2026-04-27T14:48:14.018Z</time></trkpt><trkpt lat="34.9968217" lon="-6.2047317"><ele>48.5</ele><time>2026-04-27T14:48:15.018Z</time></trkpt><trkpt lat="34.99695" lon="-6.2048033"><ele>48.75</ele><time>2026-04-27T14:48:16.018Z</time></trkpt><trkpt lat="34.9970667" lon="-6.2048567"><ele>49.0</ele><time>2026-04-27T14:48:17.018Z</time></trkpt><trkpt lat="34.99717" lon="-6.2048817"><ele>49.0</ele><time>2026-04-27T14:48:18.017Z</time></trkpt><trkpt lat="34.99727" lon="-6.2048867"><ele>49.0</ele><time>2026-04-27T14:48:19.018Z</time></trkpt><trkpt lat="34.9973583" lon="-6.2048633"><ele>49.0</ele><time>2026-04-27T14:48:20.018Z</time></trkpt><trkpt lat="34.9974283" lon="-6.20482"><ele>49.0</ele><time>2026-04-27T14:48:21.018Z</time></trkpt><trkpt lat="34.99749" lon="-6.204755"><ele>49.0</ele><time>2026-04-27T14:48:22.018Z</time></trkpt><trkpt lat="34.9975533" lon="-6.20466"><ele>49.25</ele><time>2026-04-27T14:48:23.018Z</time></trkpt><trkpt lat="34.997625" lon="-6.204535"><ele>49.5</ele><time>2026-04-27T14:48:24.018Z</time></trkpt><trkpt lat="34.997705" lon="-6.2043883"><ele>49.75</ele><time>2026-04-27T14:48:25.018Z</time></trkpt><trkpt lat="34.9977983" lon="-6.2042267"><ele>50.0</ele><time>2026-04-27T14:48:26.018Z</time></trkpt><trkpt lat="34.9979033" lon="-6.20404"><ele>50.66666666666667</ele><time>2026-04-27T14:48:27.018Z</time></trkpt><trkpt lat="34.9980217" lon="-6.2038367"><ele>51.33333333333333</ele><time>2026-04-27T14:48:28.018Z</time></trkpt><trkpt lat="34.998135" lon="-6.2036383"><ele>52.0</ele><time>2026-04-27T14:48:29.018Z</time></trkpt><trkpt lat="34.99824" lon="-6.2034517"><ele>52.0</ele><time>2026-04-27T14:48:30.018Z</time></trkpt><trkpt lat="34.9983433" lon="-6.203275"><ele>52.0</ele><time>2026-04-27T14:48:31.018Z</time></trkpt><trkpt lat="34.9984433" lon="-6.203085"><ele>52.0</ele><time>2026-04-27T14:48:32.018Z</time></trkpt><trkpt lat="34.9985533" lon="-6.2029"><ele>52.0</ele><time>2026-04-27T14:48:33.018Z</time></trkpt><trkpt lat="34.9986667" lon="-6.2027"><ele>52.0</ele><time>2026-04-27T14:48:34.018Z</time></trkpt><trkpt lat="34.9987783" lon="-6.2025117"><ele>52.0</ele><time>2026-04-27T14:48:35.018Z</time></trkpt><trkpt lat="34.99888" lon="-6.2023183"><ele>51.666666666666664</ele><time>2026-04-27T14:48:36.018Z</time></trkpt><trkpt lat="34.9989833" lon="-6.20213"><ele>51.33333333333333</ele><time>2026-04-27T14:48:37.017Z</time></trkpt><trkpt lat="34.99909" lon="-6.2019467"><ele>51.0</ele><time>2026-04-27T14:48:38.018Z</time></trkpt><trkpt lat="34.9992" lon="-6.2017583"><ele>51.0</ele><time>2026-04-27T14:48:39.018Z</time></trkpt><trkpt lat="34.9993117" lon="-6.2015667"><ele>51.0</ele><time>2026-04-27T14:48:40.018Z</time></trkpt><trkpt lat="34.99942" lon="-6.2013717"><ele>51.0</ele><time>2026-04-27T14:48:41.018Z</time></trkpt><trkpt lat="34.9995333" lon="-6.2011717"><ele>51.33333333333333</ele><time>2026-04-27T14:48:42.017Z</time></trkpt><trkpt lat="34.99965" lon="-6.200975"><ele>51.666666666666664</ele><time>2026-04-27T14:48:43.018Z</time></trkpt><trkpt lat="34.9997617" lon="-6.20078"><ele>52.0</ele><time>2026-04-27T14:48:44.018Z</time></trkpt><trkpt lat="34.9998683" lon="-6.200595"><ele>52.0</ele><time>2026-04-27T14:48:45.018Z</time></trkpt><trkpt lat="34.9999683" lon="-6.2004233"><ele>52.0</ele><time>2026-04-27T14:48:46.018Z</time></trkpt><trkpt lat="35.0000583" lon="-6.200265"><ele>52.0</ele><time>2026-04-27T14:48:47.018Z</time></trkpt><trkpt lat="35.0001467" lon="-6.2001167"><ele>52.0</ele><time>2026-04-27T14:48:48.018Z</time></trkpt><trkpt lat="35.0002317" lon="-6.1999567"><ele>52.0</ele><time>2026-04-27T14:48:49.018Z</time></trkpt><trkpt lat="35.00032" lon="-6.1998033"><ele>52.0</ele><time>2026-04-27T14:48:50.017Z</time></trkpt><trkpt lat="35.00041" lon="-6.1996417"><ele>51.666666666666664</ele><time>2026-04-27T14:48:51.018Z</time></trkpt><trkpt lat="35.0005033" lon="-6.19948"><ele>51.33333333333333</ele><time>2026-04-27T14:48:52.018Z</time></trkpt><trkpt lat="35.0005967" lon="-6.1993133"><ele>51.0</ele><time>2026-04-27T14:48:53.018Z</time></trkpt><trkpt lat="35.00069" lon="-6.1991433"><ele>51.33333333333333</ele><time>2026-04-27T14:48:54.018Z</time></trkpt><trkpt lat="35.00079" lon="-6.1989767"><ele>51.666666666666664</ele><time>2026-04-27T14:48:55.017Z</time></trkpt><trkpt lat="35.0008917" lon="-6.1988033"><ele>52.0</ele><time>2026-04-27T14:48:56.018Z</time></trkpt><trkpt lat="35.0010017" lon="-6.19862"><ele>52.666666666666664</ele><time>2026-04-27T14:48:57.018Z</time></trkpt><trkpt lat="35.0011067" lon="-6.19842"><ele>53.33333333333333</ele><time>2026-04-27T14:48:58.018Z</time></trkpt><trkpt lat="35.0012183" lon="-6.1982233"><ele>54.0</ele><time>2026-04-27T14:48:59.018Z</time></trkpt><trkpt lat="35.0013333" lon="-6.1980217"><ele>54.66666666666667</ele><time>2026-04-27T14:49:00.018Z</time></trkpt><trkpt lat="35.0014517" lon="-6.1978133"><ele>55.333333333333336</ele><time>2026-04-27T14:49:01.018Z</time></trkpt><trkpt lat="35.00157" lon="-6.1976033"><ele>56.0</ele><time>2026-04-27T14:49:02.018Z</time></trkpt><trkpt lat="35.0016883" lon="-6.1973883"><ele>57.66666666666667</ele><time>2026-04-27T14:49:03.018Z</time></trkpt><trkpt lat="35.00181" lon="-6.197175"><ele>59.33333333333333</ele><time>2026-04-27T14:49:04.018Z</time></trkpt><trkpt lat="35.00193" lon="-6.196955"><ele>61.0</ele><time>2026-04-27T14:49:05.018Z</time></trkpt><trkpt lat="35.0020467" lon="-6.19675"><ele>61.0</ele><time>2026-04-27T14:49:06.018Z</time></trkpt><trkpt lat="35.00215" lon="-6.1965633"><ele>61.0</ele><time>2026-04-27T14:49:07.018Z</time></trkpt><trkpt lat="35.0022367" lon="-6.1964083"><ele>61.0</ele><time>2026-04-27T14:49:08.018Z</time></trkpt><trkpt lat="35.0023167" lon="-6.196265"><ele>61.0</ele><time>2026-04-27T14:49:09.018Z</time></trkpt><trkpt lat="35.002395" lon="-6.19613"><ele>61.0</ele><time>2026-04-27T14:49:10.018Z</time></trkpt><trkpt lat="35.002475" lon="-6.1959883"><ele>61.0</ele><time>2026-04-27T14:49:11.018Z</time></trkpt><trkpt lat="35.0025533" lon="-6.1958633"><ele>61.0</ele><time>2026-04-27T14:49:12.018Z</time></trkpt><trkpt lat="35.0026383" lon="-6.1957283"><ele>61.0</ele><time>2026-04-27T14:49:13.018Z</time></trkpt><trkpt lat="35.0027267" lon="-6.1955883"><ele>61.0</ele><time>2026-04-27T14:49:14.017Z</time></trkpt><trkpt lat="35.002815" lon="-6.1954317"><ele>61.0</ele><time>2026-04-27T14:49:15.018Z</time></trkpt><trkpt lat="35.0029033" lon="-6.195265"><ele>61.0</ele><time>2026-04-27T14:49:16.017Z</time></trkpt><trkpt lat="35.00299" lon="-6.1950983"><ele>61.0</ele><time>2026-04-27T14:49:17.018Z</time></trkpt><trkpt lat="35.003075" lon="-6.1949383"><ele>61.0</ele><time>2026-04-27T14:49:18.017Z</time></trkpt><trkpt lat="35.0031617" lon="-6.1947817"><ele>60.75</ele><time>2026-04-27T14:49:19.018Z</time></trkpt><trkpt lat="35.0032483" lon="-6.19463"><ele>60.5</ele><time>2026-04-27T14:49:20.018Z</time></trkpt><trkpt lat="35.003335" lon="-6.1944833"><ele>60.25</ele><time>2026-04-27T14:49:21.018Z</time></trkpt><trkpt lat="35.0034133" lon="-6.1943417"><ele>60.0</ele><time>2026-04-27T14:49:22.018Z</time></trkpt><trkpt lat="35.0034867" lon="-6.1941967"><ele>60.0</ele><time>2026-04-27T14:49:23.017Z</time></trkpt><trkpt lat="35.0035633" lon="-6.194055"><ele>60.0</ele><time>2026-04-27T14:49:24.018Z</time></trkpt><trkpt lat="35.00364" lon="-6.1939033"><ele>60.0</ele><time>2026-04-27T14:49:25.018Z</time></trkpt><trkpt lat="35.00373" lon="-6.193765"><ele>60.0</ele><time>2026-04-27T14:49:26.018Z</time></trkpt><trkpt lat="35.0038133" lon="-6.193615"><ele>59.5</ele><time>2026-04-27T14:49:27.017Z</time></trkpt><trkpt lat="35.0039" lon="-6.1934683"><ele>59.0</ele><time>2026-04-27T14:49:28.018Z</time></trkpt><trkpt lat="35.00398" lon="-6.19333"><ele>58.5</ele><time>2026-04-27T14:49:29.017Z</time></trkpt><trkpt lat="35.0040583" lon="-6.1931967"><ele>58.0</ele><time>2026-04-27T14:49:30.018Z</time></trkpt><trkpt lat="35.00414" lon="-6.19307"><ele>58.5</ele><time>2026-04-27T14:49:31.018Z</time></trkpt><trkpt lat="35.0042167" lon="-6.1929417"><ele>59.0</ele><time>2026-04-27T14:49:32.018Z</time></trkpt><trkpt lat="35.0042917" lon="-6.192815"><ele>59.5</ele><time>2026-04-27T14:49:33.018Z</time></trkpt><trkpt lat="35.004365" lon="-6.1926933"><ele>60.0</ele><time>2026-04-27T14:49:34.018Z</time></trkpt><trkpt lat="35.00443" lon="-6.1925717"><ele>60.0</ele><time>2026-04-27T14:49:35.017Z</time></trkpt><trkpt lat="35.004505" lon="-6.1924483"><ele>60.0</ele><time>2026-04-27T14:49:36.017Z</time></trkpt><trkpt lat="35.0045767" lon="-6.1923183"><ele>60.0</ele><time>2026-04-27T14:49:37.016Z</time></trkpt><trkpt lat="35.00465" lon="-6.1921967"><ele>60.0</ele><time>2026-04-27T14:49:38.017Z</time></trkpt><trkpt lat="35.00472" lon="-6.19208"><ele>59.6</ele><time>2026-04-27T14:49:39.017Z</time></trkpt><trkpt lat="35.0047783" lon="-6.191965"><ele>59.2</ele><time>2026-04-27T14:49:40.017Z</time></trkpt><trkpt lat="35.0048367" lon="-6.191855"><ele>58.8</ele><time>2026-04-27T14:49:41.017Z</time></trkpt><trkpt lat="35.0048767" lon="-6.19174"><ele>58.4</ele><time>2026-04-27T14:49:42.017Z</time></trkpt><trkpt lat="35.00492" lon="-6.1916483"><ele>58.0</ele><time>2026-04-27T14:49:43.017Z</time></trkpt><trkpt lat="35.0049533" lon="-6.19157"><ele>57.666666666666664</ele><time>2026-04-27T14:49:44.017Z</time></trkpt><trkpt lat="35.004995" lon="-6.1914983"><ele>57.33333333333333</ele><time>2026-04-27T14:49:45.017Z</time></trkpt><trkpt lat="35.0050717" lon="-6.1913617"><ele>57.0</ele><time>2026-04-27T14:49:47.017Z</time></trkpt><trkpt lat="35.0051117" lon="-6.1912783"><ele>56.66666666666667</ele><time>2026-04-27T14:49:48.017Z</time></trkpt><trkpt lat="35.0051567" lon="-6.19119"><ele>56.333333333333336</ele><time>2026-04-27T14:49:49.017Z</time></trkpt><trkpt lat="35.0051967" lon="-6.1911283"><ele>56.0</ele><time>2026-04-27T14:49:50.017Z</time></trkpt><trkpt lat="35.0052383" lon="-6.1910667"><ele>56.00000000000001</ele><time>2026-04-27T14:49:51.017Z</time></trkpt><trkpt lat="35.0052833" lon="-6.1910033"><ele>56.0</ele><time>2026-04-27T14:49:52.017Z</time></trkpt><trkpt lat="35.00534" lon="-6.19094"><ele>56.0</ele><time>2026-04-27T14:49:53.017Z</time></trkpt><trkpt lat="35.005405" lon="-6.1908833"><ele>56.0</ele><time>2026-04-27T14:49:54.017Z</time></trkpt><trkpt lat="35.0054817" lon="-6.1908383"><ele>56.00000000000001</ele><time>2026-04-27T14:49:55.017Z</time></trkpt><trkpt lat="35.005575" lon="-6.1907917"><ele>56.0</ele><time>2026-04-27T14:49:56.017Z</time></trkpt><trkpt lat="35.0056783" lon="-6.1907467"><ele>56.0</ele><time>2026-04-27T14:49:57.017Z</time></trkpt><trkpt lat="35.0057767" lon="-6.1907083"><ele>55.99999999999999</ele><time>2026-04-27T14:49:58.017Z</time></trkpt><trkpt lat="35.0058633" lon="-6.1906783"><ele>55.99999999999999</ele><time>2026-04-27T14:49:59.017Z</time></trkpt><trkpt lat="35.0059433" lon="-6.1906467"><ele>56.0</ele><time>2026-04-27T14:50:00.016Z</time></trkpt><trkpt lat="35.006025" lon="-6.1906133"><ele>56.0</ele><time>2026-04-27T14:50:01.017Z</time></trkpt><trkpt lat="35.006105" lon="-6.1905683"><ele>56.00000000000001</ele><time>2026-04-27T14:50:02.017Z</time></trkpt><trkpt lat="35.0061817" lon="-6.1905083"><ele>56.0</ele><time>2026-04-27T14:50:03.017Z</time></trkpt><trkpt lat="35.0062483" lon="-6.1904383"><ele>56.0</ele><time>2026-04-27T14:50:04.017Z</time></trkpt><trkpt lat="35.0062983" lon="-6.1903667"><ele>56.0</ele><time>2026-04-27T14:50:05.017Z</time></trkpt><trkpt lat="35.0063383" lon="-6.1902883"><ele>56.00000000000001</ele><time>2026-04-27T14:50:06.017Z</time></trkpt><trkpt lat="35.0063733" lon="-6.1901933"><ele>56.0</ele><time>2026-04-27T14:50:07.017Z</time></trkpt><trkpt lat="35.0064" lon="-6.190095"><ele>56.00000000000001</ele><time>2026-04-27T14:50:08.017Z</time></trkpt><trkpt lat="35.0064183" lon="-6.1899967"><ele>56.0</ele><time>2026-04-27T14:50:09.017Z</time></trkpt><trkpt lat="35.0064217" lon="-6.189895"><ele>56.0</ele><time>2026-04-27T14:50:10.016Z</time></trkpt><trkpt lat="35.0064167" lon="-6.1897833"><ele>56.0</ele><time>2026-04-27T14:50:11.016Z</time></trkpt><trkpt lat="35.0064067" lon="-6.1896667"><ele>56.00000000000001</ele><time>2026-04-27T14:50:12.017Z</time></trkpt><trkpt lat="35.006405" lon="-6.1895517"><ele>56.0</ele><time>2026-04-27T14:50:13.017Z</time></trkpt><trkpt lat="35.006415" lon="-6.1894233"><ele>56.0</ele><time>2026-04-27T14:50:14.017Z</time></trkpt><trkpt lat="35.00645" lon="-6.189265"><ele>56.0</ele><time>2026-04-27T14:50:15.017Z</time></trkpt><trkpt lat="35.0065067" lon="-6.189085"><ele>56.0</ele><time>2026-04-27T14:50:16.017Z</time></trkpt><trkpt lat="35.0065867" lon="-6.1888883"><ele>56.0</ele><time>2026-04-27T14:50:17.017Z</time></trkpt><trkpt lat="35.0066833" lon="-6.1886783"><ele>56.0</ele><time>2026-04-27T14:50:18.017Z</time></trkpt><trkpt lat="35.0067883" lon="-6.1884783"><ele>56.0</ele><time>2026-04-27T14:50:19.017Z</time></trkpt><trkpt lat="35.006875" lon="-6.1882933"><ele>56.66666666666667</ele><time>2026-04-27T14:50:20.017Z</time></trkpt><trkpt lat="35.0069567" lon="-6.188115"><ele>57.33333333333333</ele><time>2026-04-27T14:50:21.017Z</time></trkpt><trkpt lat="35.0070433" lon="-6.1879567"><ele>58.0</ele><time>2026-04-27T14:50:22.017Z</time></trkpt><trkpt lat="35.007135" lon="-6.1877867"><ele>58.0</ele><time>2026-04-27T14:50:23.017Z</time></trkpt><trkpt lat="35.0072233" lon="-6.1876283"><ele>58.0</ele><time>2026-04-27T14:50:24.017Z</time></trkpt><trkpt lat="35.007315" lon="-6.187465"><ele>58.0</ele><time>2026-04-27T14:50:25.017Z</time></trkpt><trkpt lat="35.0074067" lon="-6.1873"><ele>58.0</ele><time>2026-04-27T14:50:26.017Z</time></trkpt><trkpt lat="35.0075033" lon="-6.1871317"><ele>58.0</ele><time>2026-04-27T14:50:27.017Z</time></trkpt><trkpt lat="35.0076" lon="-6.18695"><ele>58.0</ele><time>2026-04-27T14:50:28.017Z</time></trkpt><trkpt lat="35.0077033" lon="-6.1867617"><ele>58.0</ele><time>2026-04-27T14:50:29.017Z</time></trkpt><trkpt lat="35.0078083" lon="-6.1865783"><ele>58.0</ele><time>2026-04-27T14:50:30.017Z</time></trkpt><trkpt lat="35.00791" lon="-6.186405"><ele>58.0</ele><time>2026-04-27T14:50:31.017Z</time></trkpt><trkpt lat="35.0080017" lon="-6.1862417"><ele>58.75</ele><time>2026-04-27T14:50:32.017Z</time></trkpt><trkpt lat="35.0080883" lon="-6.1860883"><ele>59.5</ele><time>2026-04-27T14:50:33.017Z</time></trkpt><trkpt lat="35.0081783" lon="-6.1859417"><ele>60.25</ele><time>2026-04-27T14:50:34.017Z</time></trkpt><trkpt lat="35.00826" lon="-6.1857933"><ele>61.0</ele><time>2026-04-27T14:50:35.017Z</time></trkpt><trkpt lat="35.0083417" lon="-6.1856333"><ele>61.666666666666664</ele><time>2026-04-27T14:50:36.017Z</time></trkpt><trkpt lat="35.0084267" lon="-6.1854767"><ele>62.33333333333333</ele><time>2026-04-27T14:50:37.017Z</time></trkpt><trkpt lat="35.0085167" lon="-6.185325"><ele>63.0</ele><time>2026-04-27T14:50:38.017Z</time></trkpt><trkpt lat="35.008605" lon="-6.1851683"><ele>63.0</ele><time>2026-04-27T14:50:39.017Z</time></trkpt><trkpt lat="35.0087017" lon="-6.1850133"><ele>63.0</ele><time>2026-04-27T14:50:40.017Z</time></trkpt><trkpt lat="35.0087933" lon="-6.1848533"><ele>63.0</ele><time>2026-04-27T14:50:41.017Z</time></trkpt><trkpt lat="35.0088833" lon="-6.1846933"><ele>62.66666666666667</ele><time>2026-04-27T14:50:42.017Z</time></trkpt><trkpt lat="35.0089717" lon="-6.184535"><ele>62.333333333333336</ele><time>2026-04-27T14:50:43.016Z</time></trkpt><trkpt lat="35.0090583" lon="-6.1843717"><ele>62.0</ele><time>2026-04-27T14:50:44.017Z</time></trkpt><trkpt lat="35.00915" lon="-6.18421"><ele>62.0</ele><time>2026-04-27T14:50:45.017Z</time></trkpt><trkpt lat="35.0092467" lon="-6.184045"><ele>62.0</ele><time>2026-04-27T14:50:46.017Z</time></trkpt><trkpt lat="35.0093417" lon="-6.1838867"><ele>62.0</ele><time>2026-04-27T14:50:47.017Z</time></trkpt><trkpt lat="35.009425" lon="-6.1837283"><ele>62.0</ele><time>2026-04-27T14:50:48.017Z</time></trkpt><trkpt lat="35.0095133" lon="-6.1835767"><ele>62.0</ele><time>2026-04-27T14:50:49.017Z</time></trkpt><trkpt lat="35.0096017" lon="-6.18342"><ele>62.0</ele><time>2026-04-27T14:50:50.017Z</time></trkpt><trkpt lat="35.00969" lon="-6.1832683"><ele>61.5</ele><time>2026-04-27T14:50:51.017Z</time></trkpt><trkpt lat="35.0097767" lon="-6.1831233"><ele>61.0</ele><time>2026-04-27T14:50:52.017Z</time></trkpt><trkpt lat="35.00986" lon="-6.1829833"><ele>60.5</ele><time>2026-04-27T14:50:53.017Z</time></trkpt><trkpt lat="35.0099433" lon="-6.18284"><ele>60.0</ele><time>2026-04-27T14:50:54.017Z</time></trkpt><trkpt lat="35.01002" lon="-6.1826883"><ele>60.0</ele><time>2026-04-27T14:50:55.017Z</time></trkpt><trkpt lat="35.0101017" lon="-6.1825467"><ele>60.0</ele><time>2026-04-27T14:50:56.017Z</time></trkpt><trkpt lat="35.0101833" lon="-6.182405"><ele>60.0</ele><time>2026-04-27T14:50:57.017Z</time></trkpt><trkpt lat="35.0102667" lon="-6.182255"><ele>60.0</ele><time>2026-04-27T14:50:58.017Z</time></trkpt><trkpt lat="35.01035" lon="-6.182105"><ele>59.75</ele><time>2026-04-27T14:50:59.017Z</time></trkpt><trkpt lat="35.0104283" lon="-6.181945"><ele>59.5</ele><time>2026-04-27T14:51:00.017Z</time></trkpt><trkpt lat="35.0105083" lon="-6.181795"><ele>59.25</ele><time>2026-04-27T14:51:01.017Z</time></trkpt><trkpt lat="35.01059" lon="-6.1816567"><ele>59.0</ele><time>2026-04-27T14:51:02.016Z</time></trkpt><trkpt lat="35.0106667" lon="-6.1815417"><ele>58.5</ele><time>2026-04-27T14:51:03.017Z</time></trkpt><trkpt lat="35.0107467" lon="-6.18142"><ele>58.0</ele><time>2026-04-27T14:51:04.017Z</time></trkpt><trkpt lat="35.0108283" lon="-6.1813017"><ele>57.5</ele><time>2026-04-27T14:51:05.017Z</time></trkpt><trkpt lat="35.010905" lon="-6.1811617"><ele>57.0</ele><time>2026-04-27T14:51:06.017Z</time></trkpt><trkpt lat="35.0109917" lon="-6.181005"><ele>57.0</ele><time>2026-04-27T14:51:07.017Z</time></trkpt><trkpt lat="35.0110767" lon="-6.18084"><ele>57.0</ele><time>2026-04-27T14:51:08.017Z</time></trkpt><trkpt lat="35.0111617" lon="-6.1806783"><ele>57.0</ele><time>2026-04-27T14:51:09.017Z</time></trkpt><trkpt lat="35.0112533" lon="-6.1805183"><ele>57.33333333333333</ele><time>2026-04-27T14:51:10.017Z</time></trkpt><trkpt lat="35.0113467" lon="-6.1803517"><ele>57.666666666666664</ele><time>2026-04-27T14:51:11.017Z</time></trkpt><trkpt lat="35.0114433" lon="-6.1801833"><ele>58.0</ele><time>2026-04-27T14:51:12.017Z</time></trkpt><trkpt lat="35.0115383" lon="-6.180015"><ele>58.33333333333333</ele><time>2026-04-27T14:51:13.017Z</time></trkpt><trkpt lat="35.0116367" lon="-6.1798417"><ele>58.66666666666667</ele><time>2026-04-27T14:51:14.017Z</time></trkpt><trkpt lat="35.011735" lon="-6.1796683"><ele>59.0</ele><time>2026-04-27T14:51:15.017Z</time></trkpt><trkpt lat="35.011835" lon="-6.1795083"><ele>59.333333333333336</ele><time>2026-04-27T14:51:16.017Z</time></trkpt><trkpt lat="35.0119367" lon="-6.1793317"><ele>59.66666666666667</ele><time>2026-04-27T14:51:17.017Z</time></trkpt><trkpt lat="35.0120433" lon="-6.1791467"><ele>60.0</ele><time>2026-04-27T14:51:18.016Z</time></trkpt><trkpt lat="35.01214" lon="-6.1789617"><ele>62.0</ele><time>2026-04-27T14:51:19.017Z</time></trkpt><trkpt lat="35.0122333" lon="-6.178795"><ele>64.0</ele><time>2026-04-27T14:51:20.017Z</time></trkpt><trkpt lat="35.0123217" lon="-6.1786283"><ele>66.0</ele><time>2026-04-27T14:51:21.017Z</time></trkpt><trkpt lat="35.0124033" lon="-6.1784767"><ele>66.0</ele><time>2026-04-27T14:51:22.017Z</time></trkpt><trkpt lat="35.0124767" lon="-6.17834"><ele>66.0</ele><time>2026-04-27T14:51:23.017Z</time></trkpt><trkpt lat="35.0125533" lon="-6.1782083"><ele>66.0</ele><time>2026-04-27T14:51:24.016Z</time></trkpt><trkpt lat="35.0126233" lon="-6.178085"><ele>66.0</ele><time>2026-04-27T14:51:25.017Z</time></trkpt><trkpt lat="35.0126867" lon="-6.17797"><ele>66.6</ele><time>2026-04-27T14:51:26.017Z</time></trkpt><trkpt lat="35.0127467" lon="-6.1778617"><ele>67.19999999999999</ele><time>2026-04-27T14:51:27.017Z</time></trkpt><trkpt lat="35.012795" lon="-6.177765"><ele>67.80000000000001</ele><time>2026-04-27T14:51:28.017Z</time></trkpt><trkpt lat="35.0128317" lon="-6.1776933"><ele>68.4</ele><time>2026-04-27T14:51:29.017Z</time></trkpt><trkpt lat="35.0128967" lon="-6.1775733"><ele>69.0</ele><time>2026-04-27T14:51:31.017Z</time></trkpt><trkpt lat="35.0129633" lon="-6.1774533"><ele>69.5</ele><time>2026-04-27T14:51:33.017Z</time></trkpt><trkpt lat="35.013035" lon="-6.1773283"><ele>70.0</ele><time>2026-04-27T14:51:35.017Z</time></trkpt><trkpt lat="35.0130733" lon="-6.177265"><ele>70.5</ele><time>2026-04-27T14:51:36.017Z</time></trkpt><trkpt lat="35.013115" lon="-6.1771917"><ele>71.0</ele><time>2026-04-27T14:51:37.017Z</time></trkpt><trkpt lat="35.01316" lon="-6.177105"><ele>71.5</ele><time>2026-04-27T14:51:38.017Z</time></trkpt><trkpt lat="35.013205" lon="-6.177025"><ele>72.0</ele><time>2026-04-27T14:51:39.017Z</time></trkpt><trkpt lat="35.0132433" lon="-6.1769533"><ele>72.0</ele><time>2026-04-27T14:51:40.016Z</time></trkpt><trkpt lat="35.0132833" lon="-6.1768817"><ele>72.0</ele><time>2026-04-27T14:51:41.017Z</time></trkpt><trkpt lat="35.0133267" lon="-6.17681"><ele>72.0</ele><time>2026-04-27T14:51:42.017Z</time></trkpt><trkpt lat="35.0133717" lon="-6.17673"><ele>72.0</ele><time>2026-04-27T14:51:43.016Z</time></trkpt><trkpt lat="35.013415" lon="-6.1766667"><ele>72.0</ele><time>2026-04-27T14:51:44.017Z</time></trkpt><trkpt lat="35.0134533" lon="-6.176605"><ele>72.0</ele><time>2026-04-27T14:51:45.017Z</time></trkpt><trkpt lat="35.0135083" lon="-6.1764933"><ele>72.8</ele><time>2026-04-27T14:51:47.017Z</time></trkpt><trkpt lat="35.0135367" lon="-6.1764133"><ele>73.6</ele><time>2026-04-27T14:51:50.017Z</time></trkpt><trkpt lat="35.0135717" lon="-6.176325"><ele>74.39999999999999</ele><time>2026-04-27T14:51:54.017Z</time></trkpt><trkpt lat="35.0136567" lon="-6.1762033"><ele>75.2</ele><time>2026-04-27T14:51:56.017Z</time></trkpt><trkpt lat="35.0137117" lon="-6.1761217"><ele>76.0</ele><time>2026-04-27T14:51:57.017Z</time></trkpt><trkpt lat="35.013765" lon="-6.1760167"><ele>76.0</ele><time>2026-04-27T14:51:58.017Z</time></trkpt><trkpt lat="35.0138283" lon="-6.1758983"><ele>76.0</ele><time>2026-04-27T14:51:59.017Z</time></trkpt><trkpt lat="35.01389" lon="-6.1757883"><ele>76.0</ele><time>2026-04-27T14:52:00.017Z</time></trkpt><trkpt lat="35.0139517" lon="-6.1756767"><ele>76.0</ele><time>2026-04-27T14:52:01.017Z</time></trkpt><trkpt lat="35.0140183" lon="-6.1755567"><ele>77.25</ele><time>2026-04-27T14:52:02.017Z</time></trkpt><trkpt lat="35.0140867" lon="-6.1754283"><ele>78.5</ele><time>2026-04-27T14:52:03.016Z</time></trkpt><trkpt lat="35.0141583" lon="-6.1752967"><ele>79.75</ele><time>2026-04-27T14:52:04.016Z</time></trkpt><trkpt lat="35.0142417" lon="-6.1751583"><ele>81.0</ele><time>2026-04-27T14:52:05.017Z</time></trkpt><trkpt lat="35.01432" lon="-6.17502"><ele>81.0</ele><time>2026-04-27T14:52:06.017Z</time></trkpt><trkpt lat="35.0143967" lon="-6.1748967"><ele>81.0</ele><time>2026-04-27T14:52:07.017Z</time></trkpt><trkpt lat="35.0144767" lon="-6.1747617"><ele>81.0</ele><time>2026-04-27T14:52:08.017Z</time></trkpt><trkpt lat="35.014565" lon="-6.1746117"><ele>81.0</ele><time>2026-04-27T14:52:09.017Z</time></trkpt><trkpt lat="35.0146517" lon="-6.174445"><ele>82.66666666666667</ele><time>2026-04-27T14:52:10.016Z</time></trkpt><trkpt lat="35.0147483" lon="-6.174275"><ele>84.33333333333334</ele><time>2026-04-27T14:52:11.017Z</time></trkpt><trkpt lat="35.0148483" lon="-6.1741017"><ele>86.0</ele><time>2026-04-27T14:52:12.017Z</time></trkpt><trkpt lat="35.014945" lon="-6.1739333"><ele>86.66666666666667</ele><time>2026-04-27T14:52:13.017Z</time></trkpt><trkpt lat="35.015035" lon="-6.1737783"><ele>87.33333333333333</ele><time>2026-04-27T14:52:14.017Z</time></trkpt><trkpt lat="35.0151217" lon="-6.1736233"><ele>88.0</ele><time>2026-04-27T14:52:15.017Z</time></trkpt><trkpt lat="35.0152067" lon="-6.1734667"><ele>88.0</ele><time>2026-04-27T14:52:16.017Z</time></trkpt><trkpt lat="35.0152883" lon="-6.1733217"><ele>88.0</ele><time>2026-04-27T14:52:17.017Z</time></trkpt><trkpt lat="35.01536" lon="-6.173195"><ele>88.0</ele><time>2026-04-27T14:52:18.017Z</time></trkpt><trkpt lat="35.015425" lon="-6.1730733"><ele>88.0</ele><time>2026-04-27T14:52:19.016Z</time></trkpt><trkpt lat="35.0154883" lon="-6.1729583"><ele>87.80000000000001</ele><time>2026-04-27T14:52:20.017Z</time></trkpt><trkpt lat="35.0155483" lon="-6.1728517"><ele>87.6</ele><time>2026-04-27T14:52:21.017Z</time></trkpt><trkpt lat="35.0156067" lon="-6.1727483"><ele>87.4</ele><time>2026-04-27T14:52:22.017Z</time></trkpt><trkpt lat="35.015665" lon="-6.17266"><ele>87.19999999999999</ele><time>2026-04-27T14:52:23.016Z</time></trkpt><trkpt lat="35.0157317" lon="-6.172555"><ele>87.0</ele><time>2026-04-27T14:52:24.017Z</time></trkpt><trkpt lat="35.0158" lon="-6.17245"><ele>87.25</ele><time>2026-04-27T14:52:25.017Z</time></trkpt><trkpt lat="35.015875" lon="-6.1723417"><ele>87.5</ele><time>2026-04-27T14:52:26.017Z</time></trkpt><trkpt lat="35.015945" lon="-6.1722167"><ele>87.75</ele><time>2026-04-27T14:52:27.017Z</time></trkpt><trkpt lat="35.0160183" lon="-6.1720833"><ele>88.0</ele><time>2026-04-27T14:52:28.017Z</time></trkpt><trkpt lat="35.016085" lon="-6.1719517"><ele>88.0</ele><time>2026-04-27T14:52:29.017Z</time></trkpt><trkpt lat="35.0161567" lon="-6.17183"><ele>88.0</ele><time>2026-04-27T14:52:30.017Z</time></trkpt><trkpt lat="35.01622" lon="-6.1717233"><ele>88.0</ele><time>2026-04-27T14:52:31.017Z</time></trkpt><trkpt lat="35.01628" lon="-6.1716217"><ele>88.0</ele><time>2026-04-27T14:52:32.017Z</time></trkpt><trkpt lat="35.0163317" lon="-6.17152"><ele>88.0</ele><time>2026-04-27T14:52:33.017Z</time></trkpt><trkpt lat="35.0163783" lon="-6.1714383"><ele>88.0</ele><time>2026-04-27T14:52:34.016Z</time></trkpt><trkpt lat="35.01643" lon="-6.17136"><ele>88.0</ele><time>2026-04-27T14:52:35.017Z</time></trkpt><trkpt lat="35.01648" lon="-6.1712883"><ele>88.0</ele><time>2026-04-27T14:52:36.017Z</time></trkpt><trkpt lat="35.016535" lon="-6.17121"><ele>88.0</ele><time>2026-04-27T14:52:37.017Z</time></trkpt><trkpt lat="35.0165917" lon="-6.17111"><ele>88.0</ele><time>2026-04-27T14:52:38.016Z</time></trkpt><trkpt lat="35.0166533" lon="-6.1709883"><ele>88.5</ele><time>2026-04-27T14:52:39.017Z</time></trkpt><trkpt lat="35.0167217" lon="-6.1708567"><ele>89.0</ele><time>2026-04-27T14:52:40.017Z</time></trkpt><trkpt lat="35.0167933" lon="-6.170735"><ele>89.5</ele><time>2026-04-27T14:52:41.017Z</time></trkpt><trkpt lat="35.016855" lon="-6.17061"><ele>90.0</ele><time>2026-04-27T14:52:42.017Z</time></trkpt><trkpt lat="35.0169217" lon="-6.1704817"><ele>90.25</ele><time>2026-04-27T14:52:43.017Z</time></trkpt><trkpt lat="35.017" lon="-6.1703433"><ele>90.5</ele><time>2026-04-27T14:52:44.017Z</time></trkpt><trkpt lat="35.01708" lon="-6.1701967"><ele>90.75</ele><time>2026-04-27T14:52:45.017Z</time></trkpt><trkpt lat="35.0171583" lon="-6.1700617"><ele>91.0</ele><time>2026-04-27T14:52:46.017Z</time></trkpt><trkpt lat="35.0172267" lon="-6.169935"><ele>91.4</ele><time>2026-04-27T14:52:47.017Z</time></trkpt><trkpt lat="35.0172867" lon="-6.1698183"><ele>91.8</ele><time>2026-04-27T14:52:48.017Z</time></trkpt><trkpt lat="35.0173467" lon="-6.1697167"><ele>92.2</ele><time>2026-04-27T14:52:49.017Z</time></trkpt><trkpt lat="35.0174" lon="-6.1696133"><ele>92.60000000000001</ele><time>2026-04-27T14:52:50.017Z</time></trkpt><trkpt lat="35.0174567" lon="-6.1695067"><ele>93.0</ele><time>2026-04-27T14:52:51.017Z</time></trkpt><trkpt lat="35.0175333" lon="-6.1693817"><ele>93.0</ele><time>2026-04-27T14:52:52.017Z</time></trkpt><trkpt lat="35.01762" lon="-6.1692433"><ele>93.0</ele><time>2026-04-27T14:52:53.017Z</time></trkpt><trkpt lat="35.017705" lon="-6.1691"><ele>93.0</ele><time>2026-04-27T14:52:54.017Z</time></trkpt><trkpt lat="35.01779" lon="-6.1689417"><ele>93.0</ele><time>2026-04-27T14:52:55.017Z</time></trkpt><trkpt lat="35.0178867" lon="-6.16877"><ele>93.33333333333333</ele><time>2026-04-27T14:52:56.016Z</time></trkpt><trkpt lat="35.0179833" lon="-6.16859"><ele>93.66666666666666</ele><time>2026-04-27T14:52:57.017Z</time></trkpt><trkpt lat="35.0180817" lon="-6.1684183"><ele>94.0</ele><time>2026-04-27T14:52:58.017Z</time></trkpt><trkpt lat="35.018175" lon="-6.1682533"><ele>94.66666666666666</ele><time>2026-04-27T14:52:59.016Z</time></trkpt><trkpt lat="35.0182733" lon="-6.1680867"><ele>95.33333333333333</ele><time>2026-04-27T14:53:00.017Z</time></trkpt><trkpt lat="35.0183683" lon="-6.1679217"><ele>96.0</ele><time>2026-04-27T14:53:01.017Z</time></trkpt><trkpt lat="35.01847" lon="-6.167755"><ele>96.33333333333334</ele><time>2026-04-27T14:53:02.017Z</time></trkpt><trkpt lat="35.0185733" lon="-6.167575"><ele>96.66666666666667</ele><time>2026-04-27T14:53:03.016Z</time></trkpt><trkpt lat="35.01867" lon="-6.1674017"><ele>97.0</ele><time>2026-04-27T14:53:04.017Z</time></trkpt><trkpt lat="35.01877" lon="-6.1672133"><ele>97.0</ele><time>2026-04-27T14:53:05.017Z</time></trkpt><trkpt lat="35.0188633" lon="-6.1670283"><ele>97.0</ele><time>2026-04-27T14:53:06.017Z</time></trkpt><trkpt lat="35.0189683" lon="-6.1668383"><ele>97.0</ele><time>2026-04-27T14:53:07.017Z</time></trkpt><trkpt lat="35.0190733" lon="-6.1666517"><ele>97.66666666666667</ele><time>2026-04-27T14:53:08.017Z</time></trkpt><trkpt lat="35.01918" lon="-6.1664717"><ele>98.33333333333334</ele><time>2026-04-27T14:53:09.017Z</time></trkpt><trkpt lat="35.0192817" lon="-6.1663"><ele>99.0</ele><time>2026-04-27T14:53:10.017Z</time></trkpt><trkpt lat="35.019375" lon="-6.1661417"><ele>99.0</ele><time>2026-04-27T14:53:11.016Z</time></trkpt><trkpt lat="35.0194633" lon="-6.165995"><ele>99.0</ele><time>2026-04-27T14:53:12.016Z</time></trkpt><trkpt lat="35.019555" lon="-6.1658433"><ele>99.0</ele><time>2026-04-27T14:53:13.017Z</time></trkpt><trkpt lat="35.0196467" lon="-6.16568"><ele>99.66666666666666</ele><time>2026-04-27T14:53:14.017Z</time></trkpt><trkpt lat="35.0197467" lon="-6.1655083"><ele>100.33333333333333</ele><time>2026-04-27T14:53:15.017Z</time></trkpt><trkpt lat="35.0198417" lon="-6.1653433"><ele>101.0</ele><time>2026-04-27T14:53:16.017Z</time></trkpt><trkpt lat="35.0199317" lon="-6.1651833"><ele>101.0</ele><time>2026-04-27T14:53:17.017Z</time></trkpt><trkpt lat="35.0200233" lon="-6.1650183"><ele>101.0</ele><time>2026-04-27T14:53:18.017Z</time></trkpt><trkpt lat="35.0201167" lon="-6.16485"><ele>101.0</ele><time>2026-04-27T14:53:19.017Z</time></trkpt><trkpt lat="35.0202183" lon="-6.1646767"><ele>101.0</ele><time>2026-04-27T14:53:20.017Z</time></trkpt><trkpt lat="35.0203133" lon="-6.1645"><ele>101.0</ele><time>2026-04-27T14:53:21.017Z</time></trkpt><trkpt lat="35.0204083" lon="-6.1643283"><ele>101.0</ele><time>2026-04-27T14:53:22.017Z</time></trkpt><trkpt lat="35.0205033" lon="-6.164155"><ele>101.33333333333333</ele><time>2026-04-27T14:53:23.017Z</time></trkpt><trkpt lat="35.020595" lon="-6.1639917"><ele>101.66666666666666</ele><time>2026-04-27T14:53:24.017Z</time></trkpt><trkpt lat="35.02069" lon="-6.16382"><ele>102.0</ele><time>2026-04-27T14:53:25.017Z</time></trkpt><trkpt lat="35.020785" lon="-6.1636467"><ele>102.33333333333334</ele><time>2026-04-27T14:53:26.017Z</time></trkpt><trkpt lat="35.0208817" lon="-6.1634783"><ele>102.66666666666667</ele><time>2026-04-27T14:53:27.017Z</time></trkpt><trkpt lat="35.0209833" lon="-6.1633067"><ele>103.0</ele><time>2026-04-27T14:53:28.016Z</time></trkpt><trkpt lat="35.021085" lon="-6.1631317"><ele>104.33333333333334</ele><time>2026-04-27T14:53:29.017Z</time></trkpt><trkpt lat="35.021185" lon="-6.16295"><ele>105.66666666666666</ele><time>2026-04-27T14:53:30.017Z</time></trkpt><trkpt lat="35.0212883" lon="-6.16277"><ele>107.0</ele><time>2026-04-27T14:53:31.017Z</time></trkpt><trkpt lat="35.0213867" lon="-6.162585"><ele>107.0</ele><time>2026-04-27T14:53:32.017Z</time></trkpt><trkpt lat="35.02149" lon="-6.1624017"><ele>107.0</ele><time>2026-04-27T14:53:33.017Z</time></trkpt><trkpt lat="35.0215983" lon="-6.16222"><ele>107.0</ele><time>2026-04-27T14:53:34.017Z</time></trkpt><trkpt lat="35.02171" lon="-6.1620317"><ele>106.0</ele><time>2026-04-27T14:53:35.016Z</time></trkpt><trkpt lat="35.0218183" lon="-6.1618433"><ele>105.0</ele><time>2026-04-27T14:53:36.017Z</time></trkpt><trkpt lat="35.0219317" lon="-6.161645"><ele>104.0</ele><time>2026-04-27T14:53:37.017Z</time></trkpt><trkpt lat="35.0220467" lon="-6.16144"><ele>104.0</ele><time>2026-04-27T14:53:38.017Z</time></trkpt><trkpt lat="35.0221667" lon="-6.1612283"><ele>104.0</ele><time>2026-04-27T14:53:39.016Z</time></trkpt><trkpt lat="35.0222867" lon="-6.1610167"><ele>104.0</ele><time>2026-04-27T14:53:40.017Z</time></trkpt><trkpt lat="35.02241" lon="-6.160795"><ele>103.33333333333333</ele><time>2026-04-27T14:53:41.017Z</time></trkpt><trkpt lat="35.02254" lon="-6.1605733"><ele>102.66666666666666</ele><time>2026-04-27T14:53:42.016Z</time></trkpt><trkpt lat="35.0226667" lon="-6.160345"><ele>102.0</ele><time>2026-04-27T14:53:43.017Z</time></trkpt><trkpt lat="35.0227933" lon="-6.16012"><ele>102.0</ele><time>2026-04-27T14:53:44.017Z</time></trkpt><trkpt lat="35.02292" lon="-6.1598867"><ele>102.0</ele><time>2026-04-27T14:53:45.017Z</time></trkpt><trkpt lat="35.02305" lon="-6.159655"><ele>103.0</ele><time>2026-04-27T14:53:46.017Z</time></trkpt><trkpt lat="35.023175" lon="-6.1594167"><ele>104.0</ele><time>2026-04-27T14:53:47.017Z</time></trkpt><trkpt lat="35.0233067" lon="-6.1591767"><ele>104.0</ele><time>2026-04-27T14:53:48.016Z</time></trkpt><trkpt lat="35.0234283" lon="-6.1589517"><ele>104.0</ele><time>2026-04-27T14:53:49.017Z</time></trkpt><trkpt lat="35.0235517" lon="-6.1587433"><ele>104.0</ele><time>2026-04-27T14:53:50.017Z</time></trkpt><trkpt lat="35.023665" lon="-6.1585433"><ele>104.0</ele><time>2026-04-27T14:53:51.017Z</time></trkpt><trkpt lat="35.0237817" lon="-6.1583483"><ele>104.0</ele><time>2026-04-27T14:53:52.017Z</time></trkpt><trkpt lat="35.0238933" lon="-6.1581517"><ele>104.0</ele><time>2026-04-27T14:53:53.017Z</time></trkpt><trkpt lat="35.0239983" lon="-6.1579667"><ele>104.0</ele><time>2026-04-27T14:53:54.017Z</time></trkpt><trkpt lat="35.0241067" lon="-6.1577917"><ele>104.0</ele><time>2026-04-27T14:53:55.017Z</time></trkpt><trkpt lat="35.0242117" lon="-6.1576083"><ele>104.0</ele><time>2026-04-27T14:53:56.016Z</time></trkpt><trkpt lat="35.0243133" lon="-6.1574333"><ele>103.75</ele><time>2026-04-27T14:53:57.017Z</time></trkpt><trkpt lat="35.02441" lon="-6.1572583"><ele>103.5</ele><time>2026-04-27T14:53:58.017Z</time></trkpt><trkpt lat="35.0244933" lon="-6.1571067"><ele>103.25</ele><time>2026-04-27T14:53:59.017Z</time></trkpt><trkpt lat="35.0245567" lon="-6.1569933"><ele>103.0</ele><time>2026-04-27T14:54:00.017Z</time></trkpt><trkpt lat="35.024595" lon="-6.1569217"><ele>103.0</ele><time>2026-04-27T14:54:01.017Z</time></trkpt><trkpt lat="35.02464" lon="-6.1568433"><ele>103.0</ele><time>2026-04-27T14:54:03.017Z</time></trkpt><trkpt lat="35.0247217" lon="-6.1567383"><ele>103.0</ele><time>2026-04-27T14:54:05.017Z</time></trkpt><trkpt lat="35.0247783" lon="-6.15664"><ele>103.0</ele><time>2026-04-27T14:54:06.017Z</time></trkpt><trkpt lat="35.0248417" lon="-6.1565083"><ele>103.0</ele><time>2026-04-27T14:54:07.015Z</time></trkpt><trkpt lat="35.0249217" lon="-6.1563533"><ele>103.33333333333334</ele><time>2026-04-27T14:54:08.015Z</time></trkpt><trkpt lat="35.02501" lon="-6.1561833"><ele>103.66666666666666</ele><time>2026-04-27T14:54:09.016Z</time></trkpt><trkpt lat="35.0251133" lon="-6.1560017"><ele>104.0</ele><time>2026-04-27T14:54:10.016Z</time></trkpt><trkpt lat="35.0252267" lon="-6.1558117"><ele>104.33333333333333</ele><time>2026-04-27T14:54:11.016Z</time></trkpt><trkpt lat="35.025345" lon="-6.155605"><ele>104.66666666666666</ele><time>2026-04-27T14:54:12.015Z</time></trkpt><trkpt lat="35.0254717" lon="-6.1553933"><ele>105.0</ele><time>2026-04-27T14:54:13.015Z</time></trkpt><trkpt lat="35.0256" lon="-6.15518"><ele>105.0</ele><time>2026-04-27T14:54:14.016Z</time></trkpt><trkpt lat="35.0257217" lon="-6.154965"><ele>105.0</ele><time>2026-04-27T14:54:15.016Z</time></trkpt><trkpt lat="35.02584" lon="-6.15475"><ele>105.0</ele><time>2026-04-27T14:54:16.016Z</time></trkpt><trkpt lat="35.02595" lon="-6.15455"><ele>105.33333333333334</ele><time>2026-04-27T14:54:17.016Z</time></trkpt><trkpt lat="35.02606" lon="-6.1543517"><ele>105.66666666666667</ele><time>2026-04-27T14:54:18.016Z</time></trkpt><trkpt lat="35.02617" lon="-6.1541517"><ele>106.0</ele><time>2026-04-27T14:54:19.016Z</time></trkpt><trkpt lat="35.0262883" lon="-6.153935"><ele>106.0</ele><time>2026-04-27T14:54:20.016Z</time></trkpt><trkpt lat="35.0264217" lon="-6.1537017"><ele>106.0</ele><time>2026-04-27T14:54:21.015Z</time></trkpt><trkpt lat="35.0265617" lon="-6.153455"><ele>105.0</ele><time>2026-04-27T14:54:22.016Z</time></trkpt><trkpt lat="35.02669" lon="-6.153225"><ele>104.0</ele><time>2026-04-27T14:54:23.015Z</time></trkpt><trkpt lat="35.026815" lon="-6.1530183"><ele>103.0</ele><time>2026-04-27T14:54:24.016Z</time></trkpt><trkpt lat="35.0269317" lon="-6.15282"><ele>103.0</ele><time>2026-04-27T14:54:25.016Z</time></trkpt><trkpt lat="35.0270417" lon="-6.1526333"><ele>103.0</ele><time>2026-04-27T14:54:26.016Z</time></trkpt><trkpt lat="35.0271417" lon="-6.152455"><ele>103.0</ele><time>2026-04-27T14:54:27.016Z</time></trkpt><trkpt lat="35.027235" lon="-6.152275"><ele>103.33333333333334</ele><time>2026-04-27T14:54:28.016Z</time></trkpt><trkpt lat="35.0273317" lon="-6.1521067"><ele>103.66666666666666</ele><time>2026-04-27T14:54:29.016Z</time></trkpt><trkpt lat="35.0274183" lon="-6.1519333"><ele>104.0</ele><time>2026-04-27T14:54:30.016Z</time></trkpt><trkpt lat="35.0275167" lon="-6.1517633"><ele>103.0</ele><time>2026-04-27T14:54:31.016Z</time></trkpt><trkpt lat="35.0276133" lon="-6.1516017"><ele>102.0</ele><time>2026-04-27T14:54:32.016Z</time></trkpt><trkpt lat="35.027705" lon="-6.1514383"><ele>101.0</ele><time>2026-04-27T14:54:33.016Z</time></trkpt><trkpt lat="35.027795" lon="-6.1512667"><ele>100.66666666666666</ele><time>2026-04-27T14:54:34.016Z</time></trkpt><trkpt lat="35.0278867" lon="-6.1511017"><ele>100.33333333333334</ele><time>2026-04-27T14:54:35.015Z</time></trkpt><trkpt lat="35.0279817" lon="-6.1509433"><ele>100.0</ele><time>2026-04-27T14:54:36.016Z</time></trkpt><trkpt lat="35.0280683" lon="-6.1507933"><ele>100.0</ele><time>2026-04-27T14:54:37.016Z</time></trkpt><trkpt lat="35.0281517" lon="-6.1506383"><ele>100.0</ele><time>2026-04-27T14:54:38.016Z</time></trkpt><trkpt lat="35.02824" lon="-6.1504817"><ele>100.0</ele><time>2026-04-27T14:54:39.016Z</time></trkpt><trkpt lat="35.0283233" lon="-6.1503367"><ele>100.0</ele><time>2026-04-27T14:54:40.016Z</time></trkpt><trkpt lat="35.0283983" lon="-6.1501967"><ele>100.0</ele><time>2026-04-27T14:54:41.016Z</time></trkpt><trkpt lat="35.0284683" lon="-6.1500783"><ele>100.0</ele><time>2026-04-27T14:54:42.016Z</time></trkpt><trkpt lat="35.0285283" lon="-6.1499683"><ele>100.0</ele><time>2026-04-27T14:54:43.016Z</time></trkpt><trkpt lat="35.028575" lon="-6.1498817"><ele>100.16666666666667</ele><time>2026-04-27T14:54:44.016Z</time></trkpt><trkpt lat="35.0286083" lon="-6.149815"><ele>100.33333333333334</ele><time>2026-04-27T14:54:45.016Z</time></trkpt><trkpt lat="35.0286483" lon="-6.14971"><ele>100.5</ele><time>2026-04-27T14:54:47.016Z</time></trkpt><trkpt lat="35.02866" lon="-6.1496267"><ele>100.66666666666666</ele><time>2026-04-27T14:54:49.016Z</time></trkpt><trkpt lat="35.028655" lon="-6.1495367"><ele>100.83333333333333</ele><time>2026-04-27T14:54:51.016Z</time></trkpt><trkpt lat="35.0286433" lon="-6.1494317"><ele>101.0</ele><time>2026-04-27T14:54:53.016Z</time></trkpt><trkpt lat="35.028635" lon="-6.1493383"><ele>100.99999999999999</ele><time>2026-04-27T14:54:55.016Z</time></trkpt><trkpt lat="35.028615" lon="-6.1492317"><ele>101.0</ele><time>2026-04-27T14:54:58.016Z</time></trkpt><trkpt lat="35.028625" lon="-6.1491533"><ele>101.0</ele><time>2026-04-27T14:55:00.015Z</time></trkpt><trkpt lat="35.0286633" lon="-6.149055"><ele>101.0</ele><time>2026-04-27T14:55:03.016Z</time></trkpt><trkpt lat="35.0287083" lon="-6.1489983"><ele>100.99999999999999</ele><time>2026-04-27T14:55:06.016Z</time></trkpt><trkpt lat="35.0287967" lon="-6.1490017"><ele>101.0</ele><time>2026-04-27T14:55:10.016Z</time></trkpt><trkpt lat="35.028805" lon="-6.1491"><ele>101.0</ele><time>2026-04-27T14:55:13.016Z</time></trkpt><trkpt lat="35.02877" lon="-6.1491917"><ele>101.0</ele><time>2026-04-27T14:55:16.016Z</time></trkpt><trkpt lat="35.0287567" lon="-6.1493083"><ele>101.0</ele><time>2026-04-27T14:55:19.016Z</time></trkpt><trkpt lat="35.02876" lon="-6.1494333"><ele>101.0</ele><time>2026-04-27T14:55:21.015Z</time></trkpt><trkpt lat="35.0287567" lon="-6.14958"><ele>101.0</ele><time>2026-04-27T14:55:23.016Z</time></trkpt><trkpt lat="35.0287983" lon="-6.1496917"><ele>101.0</ele><time>2026-04-27T14:55:25.016Z</time></trkpt><trkpt lat="35.0288833" lon="-6.1497817"><ele>101.0</ele><time>2026-04-27T14:55:27.016Z</time></trkpt><trkpt lat="35.0289767" lon="-6.1498317"><ele>101.0</ele><time>2026-04-27T14:55:29.016Z</time></trkpt><trkpt lat="35.0290767" lon="-6.1498983"><ele>101.0</ele><time>2026-04-27T14:55:31.016Z</time></trkpt><trkpt lat="35.02916" lon="-6.1499733"><ele>101.0</ele><time>2026-04-27T14:55:33.016Z</time></trkpt><trkpt lat="35.0292317" lon="-6.1500333"><ele>100.16666666666666</ele><time>2026-04-27T14:55:35.016Z</time></trkpt><trkpt lat="35.0292883" lon="-6.1500817"><ele>99.33333333333333</ele><time>2026-04-27T14:55:38.016Z</time></trkpt><trkpt lat="35.02937" lon="-6.1501467"><ele>98.5</ele><time>2026-04-27T14:55:49.016Z</time></trkpt><trkpt lat="35.0294317" lon="-6.1502"><ele>97.66666666666666</ele><time>2026-04-27T14:55:50.016Z</time></trkpt><trkpt lat="35.0294983" lon="-6.1502617"><ele>96.83333333333333</ele><time>2026-04-27T14:55:51.015Z</time></trkpt><trkpt lat="35.0295783" lon="-6.1503267"><ele>96.0</ele><time>2026-04-27T14:55:52.016Z</time></trkpt><trkpt lat="35.029665" lon="-6.1503967"><ele>96.0</ele><time>2026-04-27T14:55:53.016Z</time></trkpt><trkpt lat="35.0297617" lon="-6.1504767"><ele>96.0</ele><time>2026-04-27T14:55:54.016Z</time></trkpt><trkpt lat="35.02986" lon="-6.150555"><ele>96.0</ele><time>2026-04-27T14:55:55.016Z</time></trkpt><trkpt lat="35.0299617" lon="-6.1506317"><ele>96.0</ele><time>2026-04-27T14:55:56.016Z</time></trkpt><trkpt lat="35.0300533" lon="-6.1507017"><ele>94.5</ele><time>2026-04-27T14:55:57.016Z</time></trkpt><trkpt lat="35.03014" lon="-6.1507767"><ele>93.0</ele><time>2026-04-27T14:55:58.016Z</time></trkpt><trkpt lat="35.0302317" lon="-6.1508567"><ele>91.5</ele><time>2026-04-27T14:55:59.016Z</time></trkpt><trkpt lat="35.0303317" lon="-6.1509483"><ele>90.0</ele><time>2026-04-27T14:56:00.016Z</time></trkpt><trkpt lat="35.030445" lon="-6.1510483"><ele>90.0</ele><time>2026-04-27T14:56:01.016Z</time></trkpt><trkpt lat="35.030565" lon="-6.1511567"><ele>90.0</ele><time>2026-04-27T14:56:02.016Z</time></trkpt><trkpt lat="35.0306967" lon="-6.1512683"><ele>90.0</ele><time>2026-04-27T14:56:03.016Z</time></trkpt><trkpt lat="35.0308383" lon="-6.1513867"><ele>89.66666666666667</ele><time>2026-04-27T14:56:04.015Z</time></trkpt><trkpt lat="35.0309817" lon="-6.1515017"><ele>89.33333333333334</ele><time>2026-04-27T14:56:05.016Z</time></trkpt><trkpt lat="35.031115" lon="-6.1516167"><ele>89.0</ele><time>2026-04-27T14:56:06.016Z</time></trkpt><trkpt lat="35.0312483" lon="-6.1517333"><ele>88.66666666666667</ele><time>2026-04-27T14:56:07.016Z</time></trkpt><trkpt lat="35.0313767" lon="-6.1518417"><ele>88.33333333333333</ele><time>2026-04-27T14:56:08.016Z</time></trkpt><trkpt lat="35.0314967" lon="-6.1519433"><ele>88.0</ele><time>2026-04-27T14:56:09.016Z</time></trkpt><trkpt lat="35.03162" lon="-6.1520533"><ele>87.66666666666666</ele><time>2026-04-27T14:56:10.015Z</time></trkpt><trkpt lat="35.0317467" lon="-6.1521617"><ele>87.33333333333333</ele><time>2026-04-27T14:56:11.016Z</time></trkpt><trkpt lat="35.031875" lon="-6.1522767"><ele>87.0</ele><time>2026-04-27T14:56:12.016Z</time></trkpt><trkpt lat="35.032" lon="-6.1523983"><ele>87.0</ele><time>2026-04-27T14:56:13.016Z</time></trkpt><trkpt lat="35.032135" lon="-6.1525183"><ele>87.0</ele><time>2026-04-27T14:56:14.015Z</time></trkpt><trkpt lat="35.0322767" lon="-6.1526333"><ele>87.0</ele><time>2026-04-27T14:56:15.016Z</time></trkpt><trkpt lat="35.0324217" lon="-6.152745"><ele>86.0</ele><time>2026-04-27T14:56:16.016Z</time></trkpt><trkpt lat="35.0325717" lon="-6.15286"><ele>85.0</ele><time>2026-04-27T14:56:17.016Z</time></trkpt><trkpt lat="35.032725" lon="-6.15298"><ele>84.0</ele><time>2026-04-27T14:56:18.016Z</time></trkpt><trkpt lat="35.03287" lon="-6.1530933"><ele>84.66666666666667</ele><time>2026-04-27T14:56:19.016Z</time></trkpt><trkpt lat="35.0330133" lon="-6.1532067"><ele>85.33333333333334</ele><time>2026-04-27T14:56:20.016Z</time></trkpt><trkpt lat="35.0331517" lon="-6.1533233"><ele>86.0</ele><time>2026-04-27T14:56:21.016Z</time></trkpt><trkpt lat="35.0332867" lon="-6.153435"><ele>85.25</ele><time>2026-04-27T14:56:22.016Z</time></trkpt><trkpt lat="35.033415" lon="-6.1535383"><ele>84.5</ele><time>2026-04-27T14:56:23.016Z</time></trkpt><trkpt lat="35.0335383" lon="-6.153635"><ele>83.75</ele><time>2026-04-27T14:56:24.016Z</time></trkpt><trkpt lat="35.0336567" lon="-6.153735"><ele>83.0</ele><time>2026-04-27T14:56:25.016Z</time></trkpt><trkpt lat="35.0337767" lon="-6.1538467"><ele>83.0</ele><time>2026-04-27T14:56:26.016Z</time></trkpt><trkpt lat="35.033895" lon="-6.153955"><ele>83.0</ele><time>2026-04-27T14:56:27.015Z</time></trkpt><trkpt lat="35.0340217" lon="-6.1540667"><ele>83.0</ele><time>2026-04-27T14:56:28.016Z</time></trkpt><trkpt lat="35.0341533" lon="-6.1541817"><ele>84.0</ele><time>2026-04-27T14:56:29.016Z</time></trkpt><trkpt lat="35.034295" lon="-6.1542933"><ele>85.0</ele><time>2026-04-27T14:56:30.016Z</time></trkpt><trkpt lat="35.0344417" lon="-6.15441"><ele>86.0</ele><time>2026-04-27T14:56:31.016Z</time></trkpt><trkpt lat="35.0345917" lon="-6.1545317"><ele>86.0</ele><time>2026-04-27T14:56:32.016Z</time></trkpt><trkpt lat="35.0347417" lon="-6.1546517"><ele>86.0</ele><time>2026-04-27T14:56:33.016Z</time></trkpt><trkpt lat="35.0348967" lon="-6.15478"><ele>86.0</ele><time>2026-04-27T14:56:34.016Z</time></trkpt><trkpt lat="35.0350517" lon="-6.1549117"><ele>85.33333333333334</ele><time>2026-04-27T14:56:35.016Z</time></trkpt><trkpt lat="35.03521" lon="-6.1550467"><ele>84.66666666666667</ele><time>2026-04-27T14:56:36.016Z</time></trkpt><trkpt lat="35.0353667" lon="-6.15519"><ele>84.0</ele><time>2026-04-27T14:56:37.016Z</time></trkpt><trkpt lat="35.03553" lon="-6.155325"><ele>84.0</ele><time>2026-04-27T14:56:38.016Z</time></trkpt><trkpt lat="35.035695" lon="-6.155465"><ele>84.0</ele><time>2026-04-27T14:56:39.016Z</time></trkpt><trkpt lat="35.0358583" lon="-6.15561"><ele>84.0</ele><time>2026-04-27T14:56:40.015Z</time></trkpt><trkpt lat="35.03602" lon="-6.15575"><ele>84.33333333333333</ele><time>2026-04-27T14:56:41.016Z</time></trkpt><trkpt lat="35.03618" lon="-6.1558783"><ele>84.66666666666666</ele><time>2026-04-27T14:56:42.016Z</time></trkpt><trkpt lat="35.036325" lon="-6.155995"><ele>85.0</ele><time>2026-04-27T14:56:43.016Z</time></trkpt><trkpt lat="35.0364783" lon="-6.156115"><ele>85.0</ele><time>2026-04-27T14:56:44.016Z</time></trkpt><trkpt lat="35.03663" lon="-6.1562383"><ele>85.0</ele><time>2026-04-27T14:56:45.016Z</time></trkpt><trkpt lat="35.0367817" lon="-6.1563633"><ele>85.0</ele><time>2026-04-27T14:56:46.016Z</time></trkpt><trkpt lat="35.0369283" lon="-6.1564867"><ele>83.66666666666666</ele><time>2026-04-27T14:56:47.016Z</time></trkpt><trkpt lat="35.0370667" lon="-6.15661"><ele>82.33333333333333</ele><time>2026-04-27T14:56:48.016Z</time></trkpt><trkpt lat="35.0371983" lon="-6.1567217"><ele>81.0</ele><time>2026-04-27T14:56:49.016Z</time></trkpt><trkpt lat="35.03733" lon="-6.156825"><ele>81.0</ele><time>2026-04-27T14:56:50.016Z</time></trkpt><trkpt lat="35.0374483" lon="-6.1569183"><ele>81.0</ele><time>2026-04-27T14:56:51.016Z</time></trkpt><trkpt lat="35.03755" lon="-6.1570067"><ele>81.0</ele><time>2026-04-27T14:56:52.016Z</time></trkpt><trkpt lat="35.03764" lon="-6.157085"><ele>81.0</ele><time>2026-04-27T14:56:53.016Z</time></trkpt><trkpt lat="35.0377167" lon="-6.15715"><ele>81.0</ele><time>2026-04-27T14:56:54.015Z</time></trkpt><trkpt lat="35.0377767" lon="-6.1571983"><ele>81.0</ele><time>2026-04-27T14:56:55.016Z</time></trkpt><trkpt lat="35.037845" lon="-6.1572617"><ele>81.0</ele><time>2026-04-27T14:56:57.016Z</time></trkpt><trkpt lat="35.0379017" lon="-6.1573267"><ele>81.0</ele><time>2026-04-27T14:57:00.015Z</time></trkpt><trkpt lat="35.03796" lon="-6.1573733"><ele>81.0</ele><time>2026-04-27T14:57:02.016Z</time></trkpt><trkpt lat="35.0380583" lon="-6.1574617"><ele>81.0</ele><time>2026-04-27T14:57:04.016Z</time></trkpt><trkpt lat="35.0381217" lon="-6.1575217"><ele>81.0</ele><time>2026-04-27T14:57:05.016Z</time></trkpt><trkpt lat="35.0382067" lon="-6.15759"><ele>81.0</ele><time>2026-04-27T14:57:06.016Z</time></trkpt><trkpt lat="35.03832" lon="-6.1576817"><ele>81.0</ele><time>2026-04-27T14:57:07.015Z</time></trkpt><trkpt lat="35.0384417" lon="-6.1577767"><ele>81.0</ele><time>2026-04-27T14:57:08.016Z</time></trkpt><trkpt lat="35.03856" lon="-6.157875"><ele>80.75</ele><time>2026-04-27T14:57:09.016Z</time></trkpt><trkpt lat="35.0386733" lon="-6.1579617"><ele>80.5</ele><time>2026-04-27T14:57:10.016Z</time></trkpt><trkpt lat="35.03878" lon="-6.158045"><ele>80.25</ele><time>2026-04-27T14:57:11.016Z</time></trkpt><trkpt lat="35.0388833" lon="-6.1581233"><ele>80.0</ele><time>2026-04-27T14:57:12.016Z</time></trkpt><trkpt lat="35.0389933" lon="-6.158215"><ele>80.0</ele><time>2026-04-27T14:57:13.015Z</time></trkpt><trkpt lat="35.0391117" lon="-6.15831"><ele>80.0</ele><time>2026-04-27T14:57:14.016Z</time></trkpt><trkpt lat="35.039235" lon="-6.1584133"><ele>80.0</ele><time>2026-04-27T14:57:15.016Z</time></trkpt><trkpt lat="35.0393567" lon="-6.15851"><ele>80.0</ele><time>2026-04-27T14:57:16.015Z</time></trkpt><trkpt lat="35.0394833" lon="-6.158615"><ele>79.33333333333334</ele><time>2026-04-27T14:57:17.015Z</time></trkpt><trkpt lat="35.0396167" lon="-6.1587267"><ele>78.66666666666667</ele><time>2026-04-27T14:57:18.016Z</time></trkpt><trkpt lat="35.0397567" lon="-6.1588417"><ele>78.0</ele><time>2026-04-27T14:57:19.015Z</time></trkpt><trkpt lat="35.0398883" lon="-6.1589533"><ele>77.66666666666667</ele><time>2026-04-27T14:57:20.016Z</time></trkpt><trkpt lat="35.0400217" lon="-6.1590667"><ele>77.33333333333334</ele><time>2026-04-27T14:57:21.016Z</time></trkpt><trkpt lat="35.0401583" lon="-6.1591817"><ele>77.0</ele><time>2026-04-27T14:57:22.016Z</time></trkpt><trkpt lat="35.040295" lon="-6.1592983"><ele>77.0</ele><time>2026-04-27T14:57:23.016Z</time></trkpt><trkpt lat="35.0404367" lon="-6.1594217"><ele>77.0</ele><time>2026-04-27T14:57:24.016Z</time></trkpt><trkpt lat="35.04058" lon="-6.1595483"><ele>77.0</ele><time>2026-04-27T14:57:25.016Z</time></trkpt><trkpt lat="35.0407333" lon="-6.1596767"><ele>76.66666666666667</ele><time>2026-04-27T14:57:26.015Z</time></trkpt><trkpt lat="35.040885" lon="-6.1598033"><ele>76.33333333333333</ele><time>2026-04-27T14:57:27.016Z</time></trkpt><trkpt lat="35.0410267" lon="-6.1599233"><ele>76.0</ele><time>2026-04-27T14:57:28.016Z</time></trkpt><trkpt lat="35.0411617" lon="-6.16003"><ele>76.5</ele><time>2026-04-27T14:57:29.016Z</time></trkpt><trkpt lat="35.041285" lon="-6.1601383"><ele>77.0</ele><time>2026-04-27T14:57:30.016Z</time></trkpt><trkpt lat="35.0413983" lon="-6.1602333"><ele>77.5</ele><time>2026-04-27T14:57:31.016Z</time></trkpt><trkpt lat="35.041505" lon="-6.1603267"><ele>78.0</ele><time>2026-04-27T14:57:32.016Z</time></trkpt><trkpt lat="35.0416067" lon="-6.1604133"><ele>77.83333333333333</ele><time>2026-04-27T14:57:33.016Z</time></trkpt><trkpt lat="35.0416967" lon="-6.1604917"><ele>77.66666666666667</ele><time>2026-04-27T14:57:34.016Z</time></trkpt><trkpt lat="35.04178" lon="-6.1605633"><ele>77.5</ele><time>2026-04-27T14:57:35.016Z</time></trkpt><trkpt lat="35.04185" lon="-6.1606217"><ele>77.33333333333334</ele><time>2026-04-27T14:57:36.016Z</time></trkpt><trkpt lat="35.041915" lon="-6.16067"><ele>77.16666666666667</ele><time>2026-04-27T14:57:37.016Z</time></trkpt><trkpt lat="35.041975" lon="-6.1607033"><ele>77.0</ele><time>2026-04-27T14:57:38.016Z</time></trkpt><trkpt lat="35.0420783" lon="-6.160695"><ele>77.0</ele><time>2026-04-27T14:57:40.016Z</time></trkpt><trkpt lat="35.0421633" lon="-6.1606"><ele>77.0</ele><time>2026-04-27T14:57:42.016Z</time></trkpt><trkpt lat="35.0421933" lon="-6.1605117"><ele>77.0</ele><time>2026-04-27T14:57:43.016Z</time></trkpt><trkpt lat="35.0422233" lon="-6.1603967"><ele>77.0</ele><time>2026-04-27T14:57:44.015Z</time></trkpt><trkpt lat="35.0422817" lon="-6.1602583"><ele>77.0</ele><time>2026-04-27T14:57:45.016Z</time></trkpt><trkpt lat="35.0423517" lon="-6.1600917"><ele>77.0</ele><time>2026-04-27T14:57:46.016Z</time></trkpt><trkpt lat="35.04244" lon="-6.1599233"><ele>77.0</ele><time>2026-04-27T14:57:47.015Z</time></trkpt><trkpt lat="35.04253" lon="-6.159745"><ele>77.0</ele><time>2026-04-27T14:57:48.015Z</time></trkpt><trkpt lat="35.0426433" lon="-6.1595533"><ele>77.33333333333334</ele><time>2026-04-27T14:57:49.016Z</time></trkpt><trkpt lat="35.04275" lon="-6.159365"><ele>77.66666666666667</ele><time>2026-04-27T14:57:50.016Z</time></trkpt><trkpt lat="35.0428583" lon="-6.159175"><ele>78.0</ele><time>2026-04-27T14:57:51.016Z</time></trkpt><trkpt lat="35.0429783" lon="-6.1589783"><ele>78.0</ele><time>2026-04-27T14:57:52.016Z</time></trkpt><trkpt lat="35.0431083" lon="-6.1587683"><ele>78.0</ele><time>2026-04-27T14:57:53.016Z</time></trkpt><trkpt lat="35.0432417" lon="-6.1585367"><ele>78.0</ele><time>2026-04-27T14:57:54.016Z</time></trkpt><trkpt lat="35.0433717" lon="-6.1583"><ele>77.0</ele><time>2026-04-27T14:57:55.016Z</time></trkpt><trkpt lat="35.043495" lon="-6.15808"><ele>76.0</ele><time>2026-04-27T14:57:56.016Z</time></trkpt><trkpt lat="35.0436183" lon="-6.157865"><ele>75.0</ele><time>2026-04-27T14:57:57.016Z</time></trkpt><trkpt lat="35.0437417" lon="-6.1576483"><ele>75.0</ele><time>2026-04-27T14:57:58.016Z</time></trkpt><trkpt lat="35.0438683" lon="-6.15743"><ele>75.0</ele><time>2026-04-27T14:57:59.016Z</time></trkpt><trkpt lat="35.0440017" lon="-6.157215"><ele>75.0</ele><time>2026-04-27T14:58:00.016Z</time></trkpt><trkpt lat="35.0441367" lon="-6.1569867"><ele>75.0</ele><time>2026-04-27T14:58:01.015Z</time></trkpt><trkpt lat="35.0442783" lon="-6.15675"><ele>75.0</ele><time>2026-04-27T14:58:02.016Z</time></trkpt><trkpt lat="35.044415" lon="-6.156505"><ele>74.5</ele><time>2026-04-27T14:58:03.016Z</time></trkpt><trkpt lat="35.0445533" lon="-6.156255"><ele>74.0</ele><time>2026-04-27T14:58:04.016Z</time></trkpt><trkpt lat="35.0446917" lon="-6.1560017"><ele>74.0</ele><time>2026-04-27T14:58:05.016Z</time></trkpt><trkpt lat="35.0448233" lon="-6.1557717"><ele>74.0</ele><time>2026-04-27T14:58:06.016Z</time></trkpt><trkpt lat="35.0449567" lon="-6.1555467"><ele>73.66666666666667</ele><time>2026-04-27T14:58:07.016Z</time></trkpt><trkpt lat="35.0450867" lon="-6.1553217"><ele>73.33333333333333</ele><time>2026-04-27T14:58:08.016Z</time></trkpt><trkpt lat="35.0452133" lon="-6.1551083"><ele>73.0</ele><time>2026-04-27T14:58:09.016Z</time></trkpt><trkpt lat="35.0453233" lon="-6.15489"><ele>73.0</ele><time>2026-04-27T14:58:10.016Z</time></trkpt><trkpt lat="35.0454483" lon="-6.1546717"><ele>73.0</ele><time>2026-04-27T14:58:11.016Z</time></trkpt><trkpt lat="35.04557" lon="-6.1544567"><ele>73.0</ele><time>2026-04-27T14:58:12.016Z</time></trkpt><trkpt lat="35.0456817" lon="-6.1542533"><ele>73.0</ele><time>2026-04-27T14:58:13.016Z</time></trkpt><trkpt lat="35.0457933" lon="-6.15406"><ele>73.0</ele><time>2026-04-27T14:58:14.016Z</time></trkpt><trkpt lat="35.04589" lon="-6.1538817"><ele>73.0</ele><time>2026-04-27T14:58:15.015Z</time></trkpt><trkpt lat="35.0459883" lon="-6.1537083"><ele>72.33333333333333</ele><time>2026-04-27T14:58:16.016Z</time></trkpt><trkpt lat="35.046085" lon="-6.1535433"><ele>71.66666666666667</ele><time>2026-04-27T14:58:17.016Z</time></trkpt><trkpt lat="35.04618" lon="-6.153395"><ele>71.0</ele><time>2026-04-27T14:58:18.016Z</time></trkpt><trkpt lat="35.0462683" lon="-6.1532433"><ele>71.25</ele><time>2026-04-27T14:58:19.016Z</time></trkpt><trkpt lat="35.0463533" lon="-6.1530983"><ele>71.5</ele><time>2026-04-27T14:58:20.015Z</time></trkpt><trkpt lat="35.0464283" lon="-6.152965"><ele>71.75</ele><time>2026-04-27T14:58:21.016Z</time></trkpt><trkpt lat="35.0464917" lon="-6.152845"><ele>72.0</ele><time>2026-04-27T14:58:22.016Z</time></trkpt><trkpt lat="35.046545" lon="-6.1527367"><ele>72.0</ele><time>2026-04-27T14:58:23.016Z</time></trkpt><trkpt lat="35.0465917" lon="-6.1526417"><ele>72.0</ele><time>2026-04-27T14:58:24.016Z</time></trkpt><trkpt lat="35.0466333" lon="-6.152545"><ele>72.0</ele><time>2026-04-27T14:58:25.016Z</time></trkpt><trkpt lat="35.0466883" lon="-6.1524667"><ele>72.0</ele><time>2026-04-27T14:58:26.016Z</time></trkpt><trkpt lat="35.046745" lon="-6.152385"><ele>72.0</ele><time>2026-04-27T14:58:27.016Z</time></trkpt><trkpt lat="35.0468" lon="-6.1523067"><ele>72.0</ele><time>2026-04-27T14:58:28.016Z</time></trkpt><trkpt lat="35.0468467" lon="-6.1522267"><ele>71.8</ele><time>2026-04-27T14:58:29.016Z</time></trkpt><trkpt lat="35.0468983" lon="-6.152145"><ele>71.6</ele><time>2026-04-27T14:58:30.016Z</time></trkpt><trkpt lat="35.0469533" lon="-6.1520517"><ele>71.39999999999999</ele><time>2026-04-27T14:58:31.015Z</time></trkpt><trkpt lat="35.0470133" lon="-6.151945"><ele>71.2</ele><time>2026-04-27T14:58:32.016Z</time></trkpt><trkpt lat="35.0470833" lon="-6.15183"><ele>71.0</ele><time>2026-04-27T14:58:33.015Z</time></trkpt><trkpt lat="35.04716" lon="-6.151705"><ele>71.0</ele><time>2026-04-27T14:58:34.015Z</time></trkpt><trkpt lat="35.0472317" lon="-6.1515733"><ele>71.0</ele><time>2026-04-27T14:58:35.015Z</time></trkpt><trkpt lat="35.0473017" lon="-6.1514483"><ele>71.0</ele><time>2026-04-27T14:58:36.015Z</time></trkpt><trkpt lat="35.04737" lon="-6.1513267"><ele>71.0</ele><time>2026-04-27T14:58:37.015Z</time></trkpt><trkpt lat="35.0474367" lon="-6.1511967"><ele>70.33333333333334</ele><time>2026-04-27T14:58:38.015Z</time></trkpt><trkpt lat="35.0475283" lon="-6.1510517"><ele>69.66666666666667</ele><time>2026-04-27T14:58:39.015Z</time></trkpt><trkpt lat="35.047615" lon="-6.1508933"><ele>69.0</ele><time>2026-04-27T14:58:40.015Z</time></trkpt><trkpt lat="35.047705" lon="-6.1507417"><ele>69.25</ele><time>2026-04-27T14:58:41.015Z</time></trkpt><trkpt lat="35.0477883" lon="-6.150595"><ele>69.5</ele><time>2026-04-27T14:58:42.015Z</time></trkpt><trkpt lat="35.0478683" lon="-6.1504533"><ele>69.75</ele><time>2026-04-27T14:58:43.015Z</time></trkpt><trkpt lat="35.0479517" lon="-6.1503133"><ele>70.0</ele><time>2026-04-27T14:58:44.015Z</time></trkpt><trkpt lat="35.048045" lon="-6.150165"><ele>70.0</ele><time>2026-04-27T14:58:45.015Z</time></trkpt><trkpt lat="35.0481583" lon="-6.1499833"><ele>70.0</ele><time>2026-04-27T14:58:46.015Z</time></trkpt><trkpt lat="35.048275" lon="-6.14978"><ele>70.0</ele><time>2026-04-27T14:58:47.014Z</time></trkpt><trkpt lat="35.0484" lon="-6.1495483"><ele>69.0</ele><time>2026-04-27T14:58:48.015Z</time></trkpt><trkpt lat="35.0485317" lon="-6.1493"><ele>68.0</ele><time>2026-04-27T14:58:49.015Z</time></trkpt><trkpt lat="35.048675" lon="-6.149035"><ele>67.5</ele><time>2026-04-27T14:58:50.015Z</time></trkpt><trkpt lat="35.0488267" lon="-6.1487783"><ele>67.0</ele><time>2026-04-27T14:58:51.014Z</time></trkpt><trkpt lat="35.04897" lon="-6.148535"><ele>67.0</ele><time>2026-04-27T14:58:52.015Z</time></trkpt><trkpt lat="35.0490983" lon="-6.1483117"><ele>67.0</ele><time>2026-04-27T14:58:53.015Z</time></trkpt><trkpt lat="35.0492217" lon="-6.148095"><ele>67.0</ele><time>2026-04-27T14:58:54.014Z</time></trkpt><trkpt lat="35.0493283" lon="-6.1478967"><ele>67.0</ele><time>2026-04-27T14:58:55.015Z</time></trkpt><trkpt lat="35.04943" lon="-6.1476967"><ele>67.0</ele><time>2026-04-27T14:58:56.015Z</time></trkpt><trkpt lat="35.0495267" lon="-6.147515"><ele>67.0</ele><time>2026-04-27T14:58:57.015Z</time></trkpt><trkpt lat="35.0496267" lon="-6.14734"><ele>67.33333333333333</ele><time>2026-04-27T14:58:58.015Z</time></trkpt><trkpt lat="35.0497417" lon="-6.14717"><ele>67.66666666666667</ele><time>2026-04-27T14:58:59.015Z</time></trkpt><trkpt lat="35.0498583" lon="-6.1469783"><ele>68.0</ele><time>2026-04-27T14:59:00.015Z</time></trkpt><trkpt lat="35.0499833" lon="-6.14678"><ele>67.66666666666667</ele><time>2026-04-27T14:59:01.014Z</time></trkpt><trkpt lat="35.050105" lon="-6.1465533"><ele>67.33333333333333</ele><time>2026-04-27T14:59:02.015Z</time></trkpt><trkpt lat="35.0502233" lon="-6.1463217"><ele>67.0</ele><time>2026-04-27T14:59:03.015Z</time></trkpt><trkpt lat="35.0503483" lon="-6.14608"><ele>67.0</ele><time>2026-04-27T14:59:04.015Z</time></trkpt><trkpt lat="35.0504833" lon="-6.145825"><ele>67.0</ele><time>2026-04-27T14:59:05.015Z</time></trkpt><trkpt lat="35.0506133" lon="-6.14559"><ele>67.0</ele><time>2026-04-27T14:59:06.015Z</time></trkpt><trkpt lat="35.0507367" lon="-6.1453683"><ele>67.0</ele><time>2026-04-27T14:59:07.015Z</time></trkpt><trkpt lat="35.0508533" lon="-6.1451667"><ele>67.0</ele><time>2026-04-27T14:59:08.015Z</time></trkpt><trkpt lat="35.05096" lon="-6.144965"><ele>67.66666666666666</ele><time>2026-04-27T14:59:09.014Z</time></trkpt><trkpt lat="35.051075" lon="-6.1447567"><ele>68.33333333333333</ele><time>2026-04-27T14:59:10.015Z</time></trkpt><trkpt lat="35.0511917" lon="-6.1445483"><ele>69.0</ele><time>2026-04-27T14:59:11.015Z</time></trkpt><trkpt lat="35.05131" lon="-6.144335"><ele>69.0</ele><time>2026-04-27T14:59:12.015Z</time></trkpt><trkpt lat="35.0514367" lon="-6.144115"><ele>69.0</ele><time>2026-04-27T14:59:13.014Z</time></trkpt><trkpt lat="35.0515633" lon="-6.1439"><ele>69.0</ele><time>2026-04-27T14:59:14.015Z</time></trkpt><trkpt lat="35.051695" lon="-6.1436767"><ele>68.5</ele><time>2026-04-27T14:59:15.015Z</time></trkpt><trkpt lat="35.0518283" lon="-6.1434517"><ele>68.0</ele><time>2026-04-27T14:59:16.015Z</time></trkpt><trkpt lat="35.0519583" lon="-6.143215"><ele>68.5</ele><time>2026-04-27T14:59:17.015Z</time></trkpt><trkpt lat="35.0520933" lon="-6.1429867"><ele>69.0</ele><time>2026-04-27T14:59:18.015Z</time></trkpt><trkpt lat="35.0522267" lon="-6.1427517"><ele>69.0</ele><time>2026-04-27T14:59:19.015Z</time></trkpt><trkpt lat="35.0523583" lon="-6.1425233"><ele>69.0</ele><time>2026-04-27T14:59:20.014Z</time></trkpt><trkpt lat="35.05248" lon="-6.14231"><ele>69.0</ele><time>2026-04-27T14:59:21.015Z</time></trkpt><trkpt lat="35.0526" lon="-6.1420983"><ele>69.0</ele><time>2026-04-27T14:59:22.015Z</time></trkpt><trkpt lat="35.0527183" lon="-6.141885"><ele>69.0</ele><time>2026-04-27T14:59:23.014Z</time></trkpt><trkpt lat="35.0528367" lon="-6.141675"><ele>69.0</ele><time>2026-04-27T14:59:24.014Z</time></trkpt><trkpt lat="35.0529483" lon="-6.1414767"><ele>69.0</ele><time>2026-04-27T14:59:25.014Z</time></trkpt><trkpt lat="35.0530517" lon="-6.14128"><ele>69.0</ele><time>2026-04-27T14:59:26.015Z</time></trkpt><trkpt lat="35.0531617" lon="-6.1410833"><ele>69.0</ele><time>2026-04-27T14:59:27.015Z</time></trkpt><trkpt lat="35.053275" lon="-6.140885"><ele>68.33333333333333</ele><time>2026-04-27T14:59:28.015Z</time></trkpt><trkpt lat="35.05339" lon="-6.1406817"><ele>67.66666666666666</ele><time>2026-04-27T14:59:29.015Z</time></trkpt><trkpt lat="35.0535067" lon="-6.1404767"><ele>67.0</ele><time>2026-04-27T14:59:30.015Z</time></trkpt><trkpt lat="35.05363" lon="-6.1402633"><ele>67.0</ele><time>2026-04-27T14:59:31.015Z</time></trkpt><trkpt lat="35.05376" lon="-6.140045"><ele>67.0</ele><time>2026-04-27T14:59:32.015Z</time></trkpt><trkpt lat="35.053895" lon="-6.1398217"><ele>67.0</ele><time>2026-04-27T14:59:33.015Z</time></trkpt><trkpt lat="35.0540367" lon="-6.1395867"><ele>68.0</ele><time>2026-04-27T14:59:34.015Z</time></trkpt><trkpt lat="35.0541867" lon="-6.1393317"><ele>69.0</ele><time>2026-04-27T14:59:35.015Z</time></trkpt><trkpt lat="35.0543283" lon="-6.1390733"><ele>68.5</ele><time>2026-04-27T14:59:36.015Z</time></trkpt><trkpt lat="35.0544633" lon="-6.1388233"><ele>68.0</ele><time>2026-04-27T14:59:37.015Z</time></trkpt><trkpt lat="35.0545883" lon="-6.1385817"><ele>68.0</ele><time>2026-04-27T14:59:38.015Z</time></trkpt><trkpt lat="35.0547133" lon="-6.1383567"><ele>68.0</ele><time>2026-04-27T14:59:39.015Z</time></trkpt><trkpt lat="35.0548433" lon="-6.1381483"><ele>68.0</ele><time>2026-04-27T14:59:40.015Z</time></trkpt><trkpt lat="35.0549683" lon="-6.1379267"><ele>66.5</ele><time>2026-04-27T14:59:41.015Z</time></trkpt><trkpt lat="35.0551" lon="-6.1376933"><ele>65.0</ele><time>2026-04-27T14:59:42.015Z</time></trkpt><trkpt lat="35.0552333" lon="-6.1374467"><ele>65.0</ele><time>2026-04-27T14:59:43.015Z</time></trkpt><trkpt lat="35.055375" lon="-6.1371983"><ele>65.0</ele><time>2026-04-27T14:59:44.014Z</time></trkpt><trkpt lat="35.0555167" lon="-6.1369417"><ele>65.0</ele><time>2026-04-27T14:59:45.015Z</time></trkpt><trkpt lat="35.0556617" lon="-6.136675"><ele>65.0</ele><time>2026-04-27T14:59:46.015Z</time></trkpt><trkpt lat="35.0558" lon="-6.1364217"><ele>64.0</ele><time>2026-04-27T14:59:47.014Z</time></trkpt><trkpt lat="35.0559267" lon="-6.136185"><ele>63.0</ele><time>2026-04-27T14:59:48.015Z</time></trkpt><trkpt lat="35.0560533" lon="-6.13596"><ele>63.0</ele><time>2026-04-27T14:59:49.015Z</time></trkpt><trkpt lat="35.0561783" lon="-6.1357383"><ele>63.0</ele><time>2026-04-27T14:59:50.015Z</time></trkpt><trkpt lat="35.0563067" lon="-6.135515"><ele>63.0</ele><time>2026-04-27T14:59:51.015Z</time></trkpt><trkpt lat="35.056435" lon="-6.1352783"><ele>63.0</ele><time>2026-04-27T14:59:52.015Z</time></trkpt><trkpt lat="35.0565617" lon="-6.1350483"><ele>63.0</ele><time>2026-04-27T14:59:53.015Z</time></trkpt><trkpt lat="35.056695" lon="-6.1348117"><ele>62.5</ele><time>2026-04-27T14:59:54.015Z</time></trkpt><trkpt lat="35.0568333" lon="-6.1345717"><ele>62.0</ele><time>2026-04-27T14:59:55.014Z</time></trkpt><trkpt lat="35.0569767" lon="-6.1343183"><ele>62.0</ele><time>2026-04-27T14:59:56.015Z</time></trkpt><trkpt lat="35.0571217" lon="-6.1340617"><ele>62.0</ele><time>2026-04-27T14:59:57.015Z</time></trkpt><trkpt lat="35.057265" lon="-6.1337933"><ele>63.0</ele><time>2026-04-27T14:59:58.015Z</time></trkpt><trkpt lat="35.0573983" lon="-6.1335433"><ele>64.0</ele><time>2026-04-27T14:59:59.015Z</time></trkpt><trkpt lat="35.057535" lon="-6.1333017"><ele>64.0</ele><time>2026-04-27T15:00:00.015Z</time></trkpt><trkpt lat="35.057675" lon="-6.1330633"><ele>64.0</ele><time>2026-04-27T15:00:01.015Z</time></trkpt><trkpt lat="35.057815" lon="-6.1328333"><ele>64.0</ele><time>2026-04-27T15:00:02.014Z</time></trkpt><trkpt lat="35.0579467" lon="-6.1326067"><ele>64.0</ele><time>2026-04-27T15:00:03.015Z</time></trkpt><trkpt lat="35.05808" lon="-6.1323783"><ele>64.0</ele><time>2026-04-27T15:00:04.015Z</time></trkpt><trkpt lat="35.0582117" lon="-6.13214"><ele>64.0</ele><time>2026-04-27T15:00:05.015Z</time></trkpt><trkpt lat="35.0583517" lon="-6.1319017"><ele>64.0</ele><time>2026-04-27T15:00:06.015Z</time></trkpt><trkpt lat="35.0584933" lon="-6.1316583"><ele>64.0</ele><time>2026-04-27T15:00:07.015Z</time></trkpt><trkpt lat="35.05863" lon="-6.1314133"><ele>64.66666666666666</ele><time>2026-04-27T15:00:08.015Z</time></trkpt><trkpt lat="35.058755" lon="-6.1311817"><ele>65.33333333333333</ele><time>2026-04-27T15:00:09.015Z</time></trkpt><trkpt lat="35.05887" lon="-6.130955"><ele>66.0</ele><time>2026-04-27T15:00:10.015Z</time></trkpt><trkpt lat="35.05899" lon="-6.1307417"><ele>65.66666666666667</ele><time>2026-04-27T15:00:11.015Z</time></trkpt><trkpt lat="35.0591117" lon="-6.1305283"><ele>65.33333333333334</ele><time>2026-04-27T15:00:12.015Z</time></trkpt><trkpt lat="35.0592267" lon="-6.13031"><ele>65.0</ele><time>2026-04-27T15:00:13.015Z</time></trkpt><trkpt lat="35.0593433" lon="-6.130105"><ele>64.66666666666667</ele><time>2026-04-27T15:00:14.015Z</time></trkpt><trkpt lat="35.0594633" lon="-6.1299067"><ele>64.33333333333333</ele><time>2026-04-27T15:00:15.015Z</time></trkpt><trkpt lat="35.05958" lon="-6.1297133"><ele>64.0</ele><time>2026-04-27T15:00:16.015Z</time></trkpt><trkpt lat="35.05969" lon="-6.1295167"><ele>64.0</ele><time>2026-04-27T15:00:17.015Z</time></trkpt><trkpt lat="35.0598083" lon="-6.1293233"><ele>64.0</ele><time>2026-04-27T15:00:18.015Z</time></trkpt><trkpt lat="35.0599267" lon="-6.1291217"><ele>64.0</ele><time>2026-04-27T15:00:19.015Z</time></trkpt><trkpt lat="35.0600367" lon="-6.1289267"><ele>63.33333333333333</ele><time>2026-04-27T15:00:20.015Z</time></trkpt><trkpt lat="35.060145" lon="-6.1287383"><ele>62.66666666666667</ele><time>2026-04-27T15:00:21.015Z</time></trkpt><trkpt lat="35.060245" lon="-6.1285483"><ele>62.0</ele><time>2026-04-27T15:00:22.015Z</time></trkpt><trkpt lat="35.0603467" lon="-6.128375"><ele>61.66666666666667</ele><time>2026-04-27T15:00:23.014Z</time></trkpt><trkpt lat="35.0604483" lon="-6.1282067"><ele>61.33333333333333</ele><time>2026-04-27T15:00:24.015Z</time></trkpt><trkpt lat="35.0605467" lon="-6.1280317"><ele>61.0</ele><time>2026-04-27T15:00:25.015Z</time></trkpt><trkpt lat="35.0606467" lon="-6.1278467"><ele>61.0</ele><time>2026-04-27T15:00:26.015Z</time></trkpt><trkpt lat="35.0607567" lon="-6.1276617"><ele>61.0</ele><time>2026-04-27T15:00:27.014Z</time></trkpt><trkpt lat="35.0608683" lon="-6.12747"><ele>61.0</ele><time>2026-04-27T15:00:28.014Z</time></trkpt><trkpt lat="35.0609933" lon="-6.1272567"><ele>61.0</ele><time>2026-04-27T15:00:29.015Z</time></trkpt><trkpt lat="35.0611167" lon="-6.1270383"><ele>61.0</ele><time>2026-04-27T15:00:30.015Z</time></trkpt><trkpt lat="35.0612333" lon="-6.1268333"><ele>61.0</ele><time>2026-04-27T15:00:31.015Z</time></trkpt><trkpt lat="35.0613417" lon="-6.1266383"><ele>61.0</ele><time>2026-04-27T15:00:32.015Z</time></trkpt><trkpt lat="35.0614433" lon="-6.1264533"><ele>61.0</ele><time>2026-04-27T15:00:33.015Z</time></trkpt><trkpt lat="35.0615483" lon="-6.12627"><ele>61.0</ele><time>2026-04-27T15:00:34.015Z</time></trkpt><trkpt lat="35.061645" lon="-6.1260833"><ele>60.33333333333333</ele><time>2026-04-27T15:00:35.015Z</time></trkpt><trkpt lat="35.0617433" lon="-6.1259"><ele>59.66666666666667</ele><time>2026-04-27T15:00:36.015Z</time></trkpt><trkpt lat="35.0618433" lon="-6.12572"><ele>59.0</ele><time>2026-04-27T15:00:37.014Z</time></trkpt><trkpt lat="35.0619433" lon="-6.1255483"><ele>58.66666666666667</ele><time>2026-04-27T15:00:38.015Z</time></trkpt><trkpt lat="35.0620417" lon="-6.1253733"><ele>58.33333333333333</ele><time>2026-04-27T15:00:39.015Z</time></trkpt><trkpt lat="35.062145" lon="-6.1252033"><ele>58.0</ele><time>2026-04-27T15:00:40.015Z</time></trkpt><trkpt lat="35.0622467" lon="-6.125025"><ele>58.0</ele><time>2026-04-27T15:00:41.015Z</time></trkpt><trkpt lat="35.06235" lon="-6.124845"><ele>58.0</ele><time>2026-04-27T15:00:42.015Z</time></trkpt><trkpt lat="35.0624533" lon="-6.1246617"><ele>58.0</ele><time>2026-04-27T15:00:43.015Z</time></trkpt><trkpt lat="35.062555" lon="-6.12448"><ele>58.33333333333333</ele><time>2026-04-27T15:00:44.015Z</time></trkpt><trkpt lat="35.0626533" lon="-6.124305"><ele>58.66666666666667</ele><time>2026-04-27T15:00:45.015Z</time></trkpt><trkpt lat="35.06275" lon="-6.1241333"><ele>59.0</ele><time>2026-04-27T15:00:46.015Z</time></trkpt><trkpt lat="35.0628433" lon="-6.1239533"><ele>59.0</ele><time>2026-04-27T15:00:47.015Z</time></trkpt><trkpt lat="35.0629383" lon="-6.1237767"><ele>59.0</ele><time>2026-04-27T15:00:48.015Z</time></trkpt><trkpt lat="35.0630417" lon="-6.1235933"><ele>59.0</ele><time>2026-04-27T15:00:49.015Z</time></trkpt><trkpt lat="35.0631517" lon="-6.1234083"><ele>58.66666666666667</ele><time>2026-04-27T15:00:50.015Z</time></trkpt><trkpt lat="35.0632633" lon="-6.12321"><ele>58.33333333333333</ele><time>2026-04-27T15:00:51.014Z</time></trkpt><trkpt lat="35.06338" lon="-6.12301"><ele>58.0</ele><time>2026-04-27T15:00:52.015Z</time></trkpt><trkpt lat="35.0635017" lon="-6.1228083"><ele>58.0</ele><time>2026-04-27T15:00:53.015Z</time></trkpt><trkpt lat="35.0636167" lon="-6.122605"><ele>58.0</ele><time>2026-04-27T15:00:54.015Z</time></trkpt><trkpt lat="35.0637283" lon="-6.1223983"><ele>58.0</ele><time>2026-04-27T15:00:55.015Z</time></trkpt><trkpt lat="35.0638383" lon="-6.122205"><ele>58.0</ele><time>2026-04-27T15:00:56.015Z</time></trkpt><trkpt lat="35.0639467" lon="-6.1220167"><ele>58.0</ele><time>2026-04-27T15:00:57.015Z</time></trkpt><trkpt lat="35.064055" lon="-6.12183"><ele>58.0</ele><time>2026-04-27T15:00:58.015Z</time></trkpt><trkpt lat="35.0641683" lon="-6.1216433"><ele>58.666666666666664</ele><time>2026-04-27T15:00:59.015Z</time></trkpt><trkpt lat="35.0642767" lon="-6.12145"><ele>59.33333333333333</ele><time>2026-04-27T15:01:00.015Z</time></trkpt><trkpt lat="35.06439" lon="-6.1212583"><ele>60.0</ele><time>2026-04-27T15:01:01.015Z</time></trkpt><trkpt lat="35.0644967" lon="-6.1210583"><ele>60.0</ele><time>2026-04-27T15:01:02.015Z</time></trkpt><trkpt lat="35.0646033" lon="-6.1208533"><ele>60.0</ele><time>2026-04-27T15:01:03.014Z</time></trkpt><trkpt lat="35.0647133" lon="-6.12065"><ele>60.0</ele><time>2026-04-27T15:01:04.015Z</time></trkpt><trkpt lat="35.0648217" lon="-6.12045"><ele>60.0</ele><time>2026-04-27T15:01:05.015Z</time></trkpt><trkpt lat="35.0649383" lon="-6.1202517"><ele>60.0</ele><time>2026-04-27T15:01:06.015Z</time></trkpt><trkpt lat="35.0650533" lon="-6.1200467"><ele>60.0</ele><time>2026-04-27T15:01:07.015Z</time></trkpt><trkpt lat="35.0651667" lon="-6.1198483"><ele>59.66666666666667</ele><time>2026-04-27T15:01:08.015Z</time></trkpt><trkpt lat="35.0652833" lon="-6.119645"><ele>59.333333333333336</ele><time>2026-04-27T15:01:09.015Z</time></trkpt><trkpt lat="35.0654033" lon="-6.1194417"><ele>59.0</ele><time>2026-04-27T15:01:10.015Z</time></trkpt><trkpt lat="35.0655283" lon="-6.1192383"><ele>58.66666666666667</ele><time>2026-04-27T15:01:11.015Z</time></trkpt><trkpt lat="35.0656467" lon="-6.1190283"><ele>58.33333333333333</ele><time>2026-04-27T15:01:12.015Z</time></trkpt><trkpt lat="35.0657633" lon="-6.1188067"><ele>58.0</ele><time>2026-04-27T15:01:13.015Z</time></trkpt><trkpt lat="35.0658833" lon="-6.1186033"><ele>58.0</ele><time>2026-04-27T15:01:14.015Z</time></trkpt><trkpt lat="35.0659917" lon="-6.1184067"><ele>58.0</ele><time>2026-04-27T15:01:15.015Z</time></trkpt><trkpt lat="35.066095" lon="-6.1182267"><ele>58.0</ele><time>2026-04-27T15:01:16.015Z</time></trkpt><trkpt lat="35.0661983" lon="-6.1180483"><ele>57.33333333333333</ele><time>2026-04-27T15:01:17.015Z</time></trkpt><trkpt lat="35.0663033" lon="-6.1178633"><ele>56.66666666666667</ele><time>2026-04-27T15:01:18.015Z</time></trkpt><trkpt lat="35.0664117" lon="-6.1176767"><ele>56.0</ele><time>2026-04-27T15:01:19.015Z</time></trkpt><trkpt lat="35.0665233" lon="-6.1174783"><ele>55.66666666666667</ele><time>2026-04-27T15:01:20.015Z</time></trkpt><trkpt lat="35.0666333" lon="-6.117275"><ele>55.33333333333333</ele><time>2026-04-27T15:01:21.015Z</time></trkpt><trkpt lat="35.066745" lon="-6.117075"><ele>55.0</ele><time>2026-04-27T15:01:22.015Z</time></trkpt><trkpt lat="35.0668567" lon="-6.116885"><ele>55.0</ele><time>2026-04-27T15:01:23.015Z</time></trkpt><trkpt lat="35.0669633" lon="-6.1167033"><ele>55.0</ele><time>2026-04-27T15:01:24.014Z</time></trkpt><trkpt lat="35.067065" lon="-6.1165183"><ele>55.0</ele><time>2026-04-27T15:01:25.015Z</time></trkpt><trkpt lat="35.06717" lon="-6.1163317"><ele>55.666666666666664</ele><time>2026-04-27T15:01:26.015Z</time></trkpt><trkpt lat="35.067275" lon="-6.1161467"><ele>56.33333333333333</ele><time>2026-04-27T15:01:27.015Z</time></trkpt><trkpt lat="35.06738" lon="-6.1159633"><ele>57.0</ele><time>2026-04-27T15:01:28.015Z</time></trkpt><trkpt lat="35.067485" lon="-6.1157783"><ele>57.0</ele><time>2026-04-27T15:01:29.015Z</time></trkpt><trkpt lat="35.067595" lon="-6.11559"><ele>57.0</ele><time>2026-04-27T15:01:30.015Z</time></trkpt><trkpt lat="35.0676967" lon="-6.1154067"><ele>57.0</ele><time>2026-04-27T15:01:31.015Z</time></trkpt><trkpt lat="35.0677833" lon="-6.1152267"><ele>57.0</ele><time>2026-04-27T15:01:32.015Z</time></trkpt><trkpt lat="35.0678717" lon="-6.11506"><ele>57.0</ele><time>2026-04-27T15:01:33.015Z</time></trkpt><trkpt lat="35.0679567" lon="-6.11491"><ele>57.0</ele><time>2026-04-27T15:01:34.015Z</time></trkpt><trkpt lat="35.06803" lon="-6.114775"><ele>57.0</ele><time>2026-04-27T15:01:35.015Z</time></trkpt><trkpt lat="35.06809" lon="-6.1146633"><ele>57.0</ele><time>2026-04-27T15:01:36.014Z</time></trkpt><trkpt lat="35.0681417" lon="-6.1145733"><ele>57.0</ele><time>2026-04-27T15:01:37.014Z</time></trkpt><trkpt lat="35.06818" lon="-6.11451"><ele>57.0</ele><time>2026-04-27T15:01:38.015Z</time></trkpt><trkpt lat="35.06823" lon="-6.1144267"><ele>57.0</ele><time>2026-04-27T15:01:40.015Z</time></trkpt><trkpt lat="35.0682817" lon="-6.1143367"><ele>57.0</ele><time>2026-04-27T15:01:43.015Z</time></trkpt><trkpt lat="35.0683317" lon="-6.11426"><ele>57.0</ele><time>2026-04-27T15:01:45.015Z</time></trkpt><trkpt lat="35.0683983" lon="-6.11414"><ele>57.0</ele><time>2026-04-27T15:01:47.015Z</time></trkpt><trkpt lat="35.0684383" lon="-6.1140733"><ele>57.0</ele><time>2026-04-27T15:01:48.015Z</time></trkpt><trkpt lat="35.0684767" lon="-6.1140067"><ele>57.0</ele><time>2026-04-27T15:01:49.015Z</time></trkpt><trkpt lat="35.068555" lon="-6.1138717"><ele>57.0</ele><time>2026-04-27T15:01:51.015Z</time></trkpt><trkpt lat="35.0685967" lon="-6.1137967"><ele>57.0</ele><time>2026-04-27T15:01:52.015Z</time></trkpt><trkpt lat="35.0686417" lon="-6.1137133"><ele>57.0</ele><time>2026-04-27T15:01:53.015Z</time></trkpt><trkpt lat="35.0686833" lon="-6.1136333"><ele>56.6</ele><time>2026-04-27T15:01:54.015Z</time></trkpt><trkpt lat="35.0687333" lon="-6.1135533"><ele>56.2</ele><time>2026-04-27T15:01:55.015Z</time></trkpt><trkpt lat="35.068785" lon="-6.113465"><ele>55.8</ele><time>2026-04-27T15:01:56.015Z</time></trkpt><trkpt lat="35.0688483" lon="-6.1133617"><ele>55.4</ele><time>2026-04-27T15:01:57.015Z</time></trkpt><trkpt lat="35.0689233" lon="-6.1132417"><ele>55.0</ele><time>2026-04-27T15:01:58.015Z</time></trkpt><trkpt lat="35.0690033" lon="-6.113125"><ele>54.75</ele><time>2026-04-27T15:01:59.015Z</time></trkpt><trkpt lat="35.0690817" lon="-6.1129983"><ele>54.5</ele><time>2026-04-27T15:02:00.015Z</time></trkpt><trkpt lat="35.0691633" lon="-6.1128517"><ele>54.25</ele><time>2026-04-27T15:02:01.015Z</time></trkpt><trkpt lat="35.0692533" lon="-6.1126783"><ele>54.0</ele><time>2026-04-27T15:02:02.015Z</time></trkpt><trkpt lat="35.06936" lon="-6.11248"><ele>54.0</ele><time>2026-04-27T15:02:03.015Z</time></trkpt><trkpt lat="35.069485" lon="-6.1122633"><ele>54.0</ele><time>2026-04-27T15:02:04.015Z</time></trkpt><trkpt lat="35.069605" lon="-6.112045"><ele>54.0</ele><time>2026-04-27T15:02:05.015Z</time></trkpt><trkpt lat="35.069725" lon="-6.1118433"><ele>54.0</ele><time>2026-04-27T15:02:06.015Z</time></trkpt><trkpt lat="35.0698267" lon="-6.1116583"><ele>54.0</ele><time>2026-04-27T15:02:07.015Z</time></trkpt><trkpt lat="35.06993" lon="-6.1114717"><ele>54.0</ele><time>2026-04-27T15:02:08.015Z</time></trkpt><trkpt lat="35.0700367" lon="-6.111285"><ele>53.33333333333333</ele><time>2026-04-27T15:02:09.014Z</time></trkpt><trkpt lat="35.0701433" lon="-6.11109"><ele>52.666666666666664</ele><time>2026-04-27T15:02:10.015Z</time></trkpt><trkpt lat="35.0702533" lon="-6.1108983"><ele>52.0</ele><time>2026-04-27T15:02:11.014Z</time></trkpt><trkpt lat="35.070365" lon="-6.1107"><ele>51.33333333333333</ele><time>2026-04-27T15:02:12.015Z</time></trkpt><trkpt lat="35.07047" lon="-6.110505"><ele>50.66666666666667</ele><time>2026-04-27T15:02:13.014Z</time></trkpt><trkpt lat="35.0705733" lon="-6.1103233"><ele>50.0</ele><time>2026-04-27T15:02:14.015Z</time></trkpt><trkpt lat="35.0706717" lon="-6.1101467"><ele>50.0</ele><time>2026-04-27T15:02:15.015Z</time></trkpt><trkpt lat="35.070765" lon="-6.109975"><ele>50.0</ele><time>2026-04-27T15:02:16.015Z</time></trkpt><trkpt lat="35.0708583" lon="-6.1098"><ele>50.0</ele><time>2026-04-27T15:02:17.014Z</time></trkpt><trkpt lat="35.0709567" lon="-6.1096333"><ele>50.0</ele><time>2026-04-27T15:02:18.015Z</time></trkpt><trkpt lat="35.071055" lon="-6.1094617"><ele>50.0</ele><time>2026-04-27T15:02:19.015Z</time></trkpt><trkpt lat="35.0711633" lon="-6.1092817"><ele>50.0</ele><time>2026-04-27T15:02:20.015Z</time></trkpt><trkpt lat="35.0712683" lon="-6.1090967"><ele>49.66666666666667</ele><time>2026-04-27T15:02:21.015Z</time></trkpt><trkpt lat="35.0713717" lon="-6.1089117"><ele>49.33333333333333</ele><time>2026-04-27T15:02:22.015Z</time></trkpt><trkpt lat="35.0714767" lon="-6.1087333"><ele>49.0</ele><time>2026-04-27T15:02:23.015Z</time></trkpt><trkpt lat="35.071575" lon="-6.108555"><ele>49.33333333333333</ele><time>2026-04-27T15:02:24.015Z</time></trkpt><trkpt lat="35.0716733" lon="-6.1083733"><ele>49.66666666666667</ele><time>2026-04-27T15:02:25.015Z</time></trkpt><trkpt lat="35.07178" lon="-6.1081867"><ele>50.0</ele><time>2026-04-27T15:02:26.015Z</time></trkpt><trkpt lat="35.0718883" lon="-6.1079933"><ele>50.0</ele><time>2026-04-27T15:02:27.015Z</time></trkpt><trkpt lat="35.072" lon="-6.10779"><ele>50.0</ele><time>2026-04-27T15:02:28.015Z</time></trkpt><trkpt lat="35.0721167" lon="-6.1075767"><ele>50.0</ele><time>2026-04-27T15:02:29.015Z</time></trkpt><trkpt lat="35.07224" lon="-6.107355"><ele>49.66666666666667</ele><time>2026-04-27T15:02:30.014Z</time></trkpt><trkpt lat="35.0723667" lon="-6.1071267"><ele>49.33333333333333</ele><time>2026-04-27T15:02:31.015Z</time></trkpt><trkpt lat="35.0724933" lon="-6.106905"><ele>49.0</ele><time>2026-04-27T15:02:32.015Z</time></trkpt><trkpt lat="35.0726133" lon="-6.1066933"><ele>49.0</ele><time>2026-04-27T15:02:33.015Z</time></trkpt><trkpt lat="35.072725" lon="-6.10649"><ele>49.0</ele><time>2026-04-27T15:02:34.015Z</time></trkpt><trkpt lat="35.0728417" lon="-6.1062767"><ele>49.0</ele><time>2026-04-27T15:02:35.015Z</time></trkpt><trkpt lat="35.072965" lon="-6.1060633"><ele>49.0</ele><time>2026-04-27T15:02:36.015Z</time></trkpt><trkpt lat="35.073085" lon="-6.1058417"><ele>49.0</ele><time>2026-04-27T15:02:37.015Z</time></trkpt><trkpt lat="35.0731967" lon="-6.105635"><ele>49.0</ele><time>2026-04-27T15:02:38.015Z</time></trkpt><trkpt lat="35.0733067" lon="-6.1054467"><ele>48.33333333333333</ele><time>2026-04-27T15:02:39.015Z</time></trkpt><trkpt lat="35.0734117" lon="-6.1052633"><ele>47.666666666666664</ele><time>2026-04-27T15:02:40.015Z</time></trkpt><trkpt lat="35.0735217" lon="-6.1050783"><ele>47.0</ele><time>2026-04-27T15:02:41.015Z</time></trkpt><trkpt lat="35.07362" lon="-6.1048967"><ele>46.33333333333333</ele><time>2026-04-27T15:02:42.014Z</time></trkpt><trkpt lat="35.0737217" lon="-6.104725"><ele>45.666666666666664</ele><time>2026-04-27T15:02:43.015Z</time></trkpt><trkpt lat="35.0738267" lon="-6.104545"><ele>45.0</ele><time>2026-04-27T15:02:44.015Z</time></trkpt><trkpt lat="35.0739333" lon="-6.104355"><ele>45.0</ele><time>2026-04-27T15:02:45.015Z</time></trkpt><trkpt lat="35.0740383" lon="-6.1041717"><ele>45.0</ele><time>2026-04-27T15:02:46.015Z</time></trkpt><trkpt lat="35.0741383" lon="-6.1039917"><ele>45.0</ele><time>2026-04-27T15:02:47.015Z</time></trkpt><trkpt lat="35.07424" lon="-6.103805"><ele>45.666666666666664</ele><time>2026-04-27T15:02:48.015Z</time></trkpt><trkpt lat="35.074345" lon="-6.1036117"><ele>46.33333333333333</ele><time>2026-04-27T15:02:49.015Z</time></trkpt><trkpt lat="35.07446" lon="-6.1034067"><ele>47.0</ele><time>2026-04-27T15:02:50.015Z</time></trkpt><trkpt lat="35.07458" lon="-6.1032033"><ele>47.0</ele><time>2026-04-27T15:02:51.015Z</time></trkpt><trkpt lat="35.0746883" lon="-6.1029983"><ele>47.0</ele><time>2026-04-27T15:02:52.015Z</time></trkpt><trkpt lat="35.0747917" lon="-6.1028017"><ele>47.0</ele><time>2026-04-27T15:02:53.014Z</time></trkpt><trkpt lat="35.0748933" lon="-6.102605"><ele>46.666666666666664</ele><time>2026-04-27T15:02:54.015Z</time></trkpt><trkpt lat="35.0749983" lon="-6.102415"><ele>46.333333333333336</ele><time>2026-04-27T15:02:55.015Z</time></trkpt><trkpt lat="35.075105" lon="-6.102225"><ele>46.0</ele><time>2026-04-27T15:02:56.015Z</time></trkpt><trkpt lat="35.075215" lon="-6.1020317"><ele>46.0</ele><time>2026-04-27T15:02:57.015Z</time></trkpt><trkpt lat="35.07533" lon="-6.1018383"><ele>46.0</ele><time>2026-04-27T15:02:58.015Z</time></trkpt><trkpt lat="35.0754433" lon="-6.101645"><ele>46.0</ele><time>2026-04-27T15:02:59.014Z</time></trkpt><trkpt lat="35.0755583" lon="-6.1014483"><ele>46.0</ele><time>2026-04-27T15:03:00.014Z</time></trkpt><trkpt lat="35.0756767" lon="-6.1012517"><ele>46.0</ele><time>2026-04-27T15:03:01.014Z</time></trkpt><trkpt lat="35.0757833" lon="-6.1010517"><ele>46.0</ele><time>2026-04-27T15:03:02.014Z</time></trkpt><trkpt lat="35.07589" lon="-6.100855"><ele>45.0</ele><time>2026-04-27T15:03:03.014Z</time></trkpt><trkpt lat="35.0760017" lon="-6.1006567"><ele>44.0</ele><time>2026-04-27T15:03:04.014Z</time></trkpt><trkpt lat="35.0761183" lon="-6.1004483"><ele>43.0</ele><time>2026-04-27T15:03:05.014Z</time></trkpt><trkpt lat="35.07624" lon="-6.1002383"><ele>43.0</ele><time>2026-04-27T15:03:06.014Z</time></trkpt><trkpt lat="35.0763617" lon="-6.1000217"><ele>43.0</ele><time>2026-04-27T15:03:07.014Z</time></trkpt><trkpt lat="35.0764817" lon="-6.0998067"><ele>43.0</ele><time>2026-04-27T15:03:08.014Z</time></trkpt><trkpt lat="35.0765917" lon="-6.0996083"><ele>43.333333333333336</ele><time>2026-04-27T15:03:09.014Z</time></trkpt><trkpt lat="35.0766967" lon="-6.09942"><ele>43.666666666666664</ele><time>2026-04-27T15:03:10.013Z</time></trkpt><trkpt lat="35.0767983" lon="-6.0992467"><ele>44.0</ele><time>2026-04-27T15:03:11.014Z</time></trkpt><trkpt lat="35.07689" lon="-6.099085"><ele>44.0</ele><time>2026-04-27T15:03:12.013Z</time></trkpt><trkpt lat="35.0769767" lon="-6.098935"><ele>44.0</ele><time>2026-04-27T15:03:13.014Z</time></trkpt><trkpt lat="35.0770583" lon="-6.09879"><ele>44.0</ele><time>2026-04-27T15:03:14.014Z</time></trkpt><trkpt lat="35.0771383" lon="-6.0986483"><ele>44.0</ele><time>2026-04-27T15:03:15.014Z</time></trkpt><trkpt lat="35.0772133" lon="-6.0985067"><ele>44.0</ele><time>2026-04-27T15:03:16.014Z</time></trkpt><trkpt lat="35.077285" lon="-6.098375"><ele>44.0</ele><time>2026-04-27T15:03:17.014Z</time></trkpt><trkpt lat="35.0773533" lon="-6.0982517"><ele>44.0</ele><time>2026-04-27T15:03:18.014Z</time></trkpt><trkpt lat="35.0774133" lon="-6.0981333"><ele>44.0</ele><time>2026-04-27T15:03:19.014Z</time></trkpt><trkpt lat="35.0774633" lon="-6.0980383"><ele>43.6</ele><time>2026-04-27T15:03:20.014Z</time></trkpt><trkpt lat="35.0774967" lon="-6.0979667"><ele>43.2</ele><time>2026-04-27T15:03:21.014Z</time></trkpt><trkpt lat="35.0775383" lon="-6.0978483"><ele>42.800000000000004</ele><time>2026-04-27T15:03:23.014Z</time></trkpt><trkpt lat="35.0775617" lon="-6.09774"><ele>42.400000000000006</ele><time>2026-04-27T15:03:25.014Z</time></trkpt><trkpt lat="35.0775833" lon="-6.097625"><ele>42.0</ele><time>2026-04-27T15:03:27.014Z</time></trkpt><trkpt lat="35.07766" lon="-6.0975283"><ele>42.0</ele><time>2026-04-27T15:03:29.013Z</time></trkpt><trkpt lat="35.0777733" lon="-6.0975267"><ele>42.0</ele><time>2026-04-27T15:03:31.014Z</time></trkpt><trkpt lat="35.0778267" lon="-6.0975733"><ele>42.0</ele><time>2026-04-27T15:03:32.014Z</time></trkpt><trkpt lat="35.07789" lon="-6.0976433"><ele>42.0</ele><time>2026-04-27T15:03:33.014Z</time></trkpt><trkpt lat="35.0779667" lon="-6.0977367"><ele>42.0</ele><time>2026-04-27T15:03:34.014Z</time></trkpt><trkpt lat="35.0780533" lon="-6.0978533"><ele>42.0</ele><time>2026-04-27T15:03:35.014Z</time></trkpt><trkpt lat="35.0781617" lon="-6.09797"><ele>42.0</ele><time>2026-04-27T15:03:36.014Z</time></trkpt><trkpt lat="35.0782933" lon="-6.098085"><ele>42.0</ele><time>2026-04-27T15:03:37.014Z</time></trkpt><trkpt lat="35.078435" lon="-6.0982033"><ele>42.0</ele><time>2026-04-27T15:03:38.014Z</time></trkpt><trkpt lat="35.0785917" lon="-6.09833"><ele>42.0</ele><time>2026-04-27T15:03:39.014Z</time></trkpt><trkpt lat="35.0787533" lon="-6.0984683"><ele>42.0</ele><time>2026-04-27T15:03:40.013Z</time></trkpt><trkpt lat="35.0789283" lon="-6.0986167"><ele>43.0</ele><time>2026-04-27T15:03:41.013Z</time></trkpt><trkpt lat="35.0791117" lon="-6.0987733"><ele>44.0</ele><time>2026-04-27T15:03:42.014Z</time></trkpt><trkpt lat="35.0793" lon="-6.0989383"><ele>43.5</ele><time>2026-04-27T15:03:43.013Z</time></trkpt><trkpt lat="35.079495" lon="-6.0991083"><ele>43.0</ele><time>2026-04-27T15:03:44.014Z</time></trkpt><trkpt lat="35.0796933" lon="-6.09928"><ele>43.0</ele><time>2026-04-27T15:03:45.014Z</time></trkpt><trkpt lat="35.079905" lon="-6.0994583"><ele>43.0</ele><time>2026-04-27T15:03:46.014Z</time></trkpt><trkpt lat="35.080125" lon="-6.0996417"><ele>43.0</ele><time>2026-04-27T15:03:47.014Z</time></trkpt><trkpt lat="35.080345" lon="-6.0998183"><ele>43.0</ele><time>2026-04-27T15:03:48.013Z</time></trkpt><trkpt lat="35.08057" lon="-6.0999967"><ele>45.0</ele><time>2026-04-27T15:03:49.013Z</time></trkpt><trkpt lat="35.08079" lon="-6.100175"><ele>47.0</ele><time>2026-04-27T15:03:50.014Z</time></trkpt><trkpt lat="35.0810017" lon="-6.1003433"><ele>47.0</ele><time>2026-04-27T15:03:51.014Z</time></trkpt><trkpt lat="35.0812083" lon="-6.1005117"><ele>47.0</ele><time>2026-04-27T15:03:52.014Z</time></trkpt><trkpt lat="35.08141" lon="-6.1006783"><ele>47.0</ele><time>2026-04-27T15:03:53.014Z</time></trkpt><trkpt lat="35.0816033" lon="-6.10084"><ele>47.0</ele><time>2026-04-27T15:03:54.014Z</time></trkpt><trkpt lat="35.0817917" lon="-6.1009967"><ele>47.0</ele><time>2026-04-27T15:03:55.014Z</time></trkpt><trkpt lat="35.0819767" lon="-6.101155"><ele>47.0</ele><time>2026-04-27T15:03:56.014Z</time></trkpt><trkpt lat="35.0821633" lon="-6.10131"><ele>47.0</ele><time>2026-04-27T15:03:57.014Z</time></trkpt><trkpt lat="35.08235" lon="-6.1014683"><ele>47.0</ele><time>2026-04-27T15:03:58.014Z</time></trkpt><trkpt lat="35.0825367" lon="-6.1016283"><ele>47.0</ele><time>2026-04-27T15:03:59.014Z</time></trkpt><trkpt lat="35.0827283" lon="-6.1017883"><ele>47.0</ele><time>2026-04-27T15:04:00.014Z</time></trkpt><trkpt lat="35.0829167" lon="-6.1019467"><ele>47.0</ele><time>2026-04-27T15:04:01.014Z</time></trkpt><trkpt lat="35.08311" lon="-6.1021117"><ele>47.0</ele><time>2026-04-27T15:04:02.014Z</time></trkpt><trkpt lat="35.0833017" lon="-6.102275"><ele>47.0</ele><time>2026-04-27T15:04:03.014Z</time></trkpt><trkpt lat="35.083495" lon="-6.1024333"><ele>47.0</ele><time>2026-04-27T15:04:04.014Z</time></trkpt><trkpt lat="35.0836933" lon="-6.1025967"><ele>47.0</ele><time>2026-04-27T15:04:05.014Z</time></trkpt><trkpt lat="35.0838917" lon="-6.1027567"><ele>47.0</ele><time>2026-04-27T15:04:06.014Z</time></trkpt><trkpt lat="35.0840883" lon="-6.1029183"><ele>49.0</ele><time>2026-04-27T15:04:07.014Z</time></trkpt><trkpt lat="35.084285" lon="-6.1030817"><ele>51.0</ele><time>2026-04-27T15:04:08.014Z</time></trkpt><trkpt lat="35.0844883" lon="-6.103245"><ele>50.0</ele><time>2026-04-27T15:04:09.013Z</time></trkpt><trkpt lat="35.08469" lon="-6.1034083"><ele>49.0</ele><time>2026-04-27T15:04:10.014Z</time></trkpt><trkpt lat="35.0848917" lon="-6.10357"><ele>51.0</ele><time>2026-04-27T15:04:11.014Z</time></trkpt><trkpt lat="35.08509" lon="-6.1037383"><ele>53.0</ele><time>2026-04-27T15:04:12.013Z</time></trkpt><trkpt lat="35.085285" lon="-6.103905"><ele>53.0</ele><time>2026-04-27T15:04:13.014Z</time></trkpt><trkpt lat="35.08548" lon="-6.10407"><ele>53.0</ele><time>2026-04-27T15:04:14.014Z</time></trkpt><trkpt lat="35.08568" lon="-6.1042367"><ele>51.5</ele><time>2026-04-27T15:04:15.013Z</time></trkpt><trkpt lat="35.08588" lon="-6.1044033"><ele>50.0</ele><time>2026-04-27T15:04:16.014Z</time></trkpt><trkpt lat="35.0860767" lon="-6.1045683"><ele>50.0</ele><time>2026-04-27T15:04:17.014Z</time></trkpt><trkpt lat="35.0862633" lon="-6.10473"><ele>50.0</ele><time>2026-04-27T15:04:18.014Z</time></trkpt><trkpt lat="35.0864483" lon="-6.1048917"><ele>48.0</ele><time>2026-04-27T15:04:19.014Z</time></trkpt><trkpt lat="35.0866367" lon="-6.1050533"><ele>46.0</ele><time>2026-04-27T15:04:20.014Z</time></trkpt><trkpt lat="35.086825" lon="-6.105215"><ele>46.0</ele><time>2026-04-27T15:04:21.014Z</time></trkpt><trkpt lat="35.0870183" lon="-6.1053767"><ele>46.0</ele><time>2026-04-27T15:04:22.014Z</time></trkpt><trkpt lat="35.0872167" lon="-6.1055367"><ele>46.0</ele><time>2026-04-27T15:04:23.014Z</time></trkpt><trkpt lat="35.087415" lon="-6.1057033"><ele>46.0</ele><time>2026-04-27T15:04:24.014Z</time></trkpt><trkpt lat="35.087615" lon="-6.1058633"><ele>46.0</ele><time>2026-04-27T15:04:25.014Z</time></trkpt><trkpt lat="35.0878183" lon="-6.1060233"><ele>46.0</ele><time>2026-04-27T15:04:26.014Z</time></trkpt><trkpt lat="35.0880217" lon="-6.106195"><ele>46.0</ele><time>2026-04-27T15:04:27.014Z</time></trkpt><trkpt lat="35.0882233" lon="-6.1063633"><ele>46.0</ele><time>2026-04-27T15:04:28.014Z</time></trkpt><trkpt lat="35.0884133" lon="-6.1065217"><ele>46.5</ele><time>2026-04-27T15:04:29.014Z</time></trkpt><trkpt lat="35.0886" lon="-6.1066717"><ele>47.0</ele><time>2026-04-27T15:04:30.014Z</time></trkpt><trkpt lat="35.0887883" lon="-6.106825"><ele>47.0</ele><time>2026-04-27T15:04:31.014Z</time></trkpt><trkpt lat="35.088975" lon="-6.1069883"><ele>47.0</ele><time>2026-04-27T15:04:32.013Z</time></trkpt><trkpt lat="35.08917" lon="-6.1071483"><ele>47.0</ele><time>2026-04-27T15:04:33.014Z</time></trkpt><trkpt lat="35.089365" lon="-6.1073083"><ele>47.0</ele><time>2026-04-27T15:04:34.014Z</time></trkpt><trkpt lat="35.089565" lon="-6.1074617"><ele>46.5</ele><time>2026-04-27T15:04:35.014Z</time></trkpt><trkpt lat="35.089765" lon="-6.1076267"><ele>46.0</ele><time>2026-04-27T15:04:36.014Z</time></trkpt><trkpt lat="35.0899667" lon="-6.1077917"><ele>46.0</ele><time>2026-04-27T15:04:37.014Z</time></trkpt><trkpt lat="35.0901733" lon="-6.1079633"><ele>46.0</ele><time>2026-04-27T15:04:38.013Z</time></trkpt><trkpt lat="35.0903767" lon="-6.10813"><ele>46.0</ele><time>2026-04-27T15:04:39.014Z</time></trkpt><trkpt lat="35.09057" lon="-6.1083"><ele>46.0</ele><time>2026-04-27T15:04:40.013Z</time></trkpt><trkpt lat="35.09076" lon="-6.1084633"><ele>46.0</ele><time>2026-04-27T15:04:41.014Z</time></trkpt><trkpt lat="35.0909483" lon="-6.10862"><ele>46.0</ele><time>2026-04-27T15:04:42.014Z</time></trkpt><trkpt lat="35.0911417" lon="-6.10878"><ele>46.0</ele><time>2026-04-27T15:04:43.014Z</time></trkpt><trkpt lat="35.09134" lon="-6.1089433"><ele>46.0</ele><time>2026-04-27T15:04:44.014Z</time></trkpt><trkpt lat="35.09154" lon="-6.1091067"><ele>46.5</ele><time>2026-04-27T15:04:45.014Z</time></trkpt><trkpt lat="35.0917417" lon="-6.1092683"><ele>47.0</ele><time>2026-04-27T15:04:46.014Z</time></trkpt><trkpt lat="35.09194" lon="-6.10943"><ele>47.0</ele><time>2026-04-27T15:04:47.014Z</time></trkpt><trkpt lat="35.09214" lon="-6.109595"><ele>47.0</ele><time>2026-04-27T15:04:48.014Z</time></trkpt><trkpt lat="35.0923383" lon="-6.109765"><ele>45.0</ele><time>2026-04-27T15:04:49.014Z</time></trkpt><trkpt lat="35.0925417" lon="-6.109935"><ele>43.0</ele><time>2026-04-27T15:04:50.014Z</time></trkpt><trkpt lat="35.0927433" lon="-6.1101"><ele>43.0</ele><time>2026-04-27T15:04:51.014Z</time></trkpt><trkpt lat="35.0929333" lon="-6.1102617"><ele>43.0</ele><time>2026-04-27T15:04:52.014Z</time></trkpt><trkpt lat="35.0931217" lon="-6.1104167"><ele>43.5</ele><time>2026-04-27T15:04:53.014Z</time></trkpt><trkpt lat="35.09331" lon="-6.1105733"><ele>44.0</ele><time>2026-04-27T15:04:54.014Z</time></trkpt><trkpt lat="35.0935" lon="-6.1107333"><ele>42.0</ele><time>2026-04-27T15:04:55.014Z</time></trkpt><trkpt lat="35.0936933" lon="-6.1108917"><ele>40.0</ele><time>2026-04-27T15:04:56.014Z</time></trkpt><trkpt lat="35.09389" lon="-6.1110583"><ele>40.5</ele><time>2026-04-27T15:04:57.014Z</time></trkpt><trkpt lat="35.0940883" lon="-6.1112217"><ele>41.0</ele><time>2026-04-27T15:04:58.014Z</time></trkpt><trkpt lat="35.0942883" lon="-6.1113867"><ele>41.0</ele><time>2026-04-27T15:04:59.014Z</time></trkpt><trkpt lat="35.0944883" lon="-6.1115517"><ele>41.0</ele><time>2026-04-27T15:05:00.014Z</time></trkpt><trkpt lat="35.0946917" lon="-6.1117183"><ele>41.5</ele><time>2026-04-27T15:05:01.014Z</time></trkpt><trkpt lat="35.0948917" lon="-6.111885"><ele>42.0</ele><time>2026-04-27T15:05:02.014Z</time></trkpt><trkpt lat="35.09508" lon="-6.1120517"><ele>43.0</ele><time>2026-04-27T15:05:03.014Z</time></trkpt><trkpt lat="35.0952667" lon="-6.1122083"><ele>44.0</ele><time>2026-04-27T15:05:04.014Z</time></trkpt><trkpt lat="35.095455" lon="-6.1123617"><ele>44.0</ele><time>2026-04-27T15:05:05.014Z</time></trkpt><trkpt lat="35.0956517" lon="-6.11252"><ele>44.0</ele><time>2026-04-27T15:05:06.014Z</time></trkpt><trkpt lat="35.0958467" lon="-6.1126783"><ele>44.0</ele><time>2026-04-27T15:05:07.014Z</time></trkpt><trkpt lat="35.0960417" lon="-6.1128433"><ele>44.0</ele><time>2026-04-27T15:05:08.014Z</time></trkpt><trkpt lat="35.0962383" lon="-6.11301"><ele>44.0</ele><time>2026-04-27T15:05:09.014Z</time></trkpt><trkpt lat="35.096435" lon="-6.1131817"><ele>44.0</ele><time>2026-04-27T15:05:10.014Z</time></trkpt><trkpt lat="35.0966367" lon="-6.1133533"><ele>42.5</ele><time>2026-04-27T15:05:11.014Z</time></trkpt><trkpt lat="35.0968433" lon="-6.11352"><ele>41.0</ele><time>2026-04-27T15:05:12.014Z</time></trkpt><trkpt lat="35.097045" lon="-6.1136867"><ele>41.0</ele><time>2026-04-27T15:05:13.014Z</time></trkpt><trkpt lat="35.0972383" lon="-6.1138467"><ele>41.0</ele><time>2026-04-27T15:05:14.013Z</time></trkpt><trkpt lat="35.0974267" lon="-6.114005"><ele>39.0</ele><time>2026-04-27T15:05:15.014Z</time></trkpt><trkpt lat="35.0976217" lon="-6.1141667"><ele>37.0</ele><time>2026-04-27T15:05:16.014Z</time></trkpt><trkpt lat="35.0978183" lon="-6.1143267"><ele>37.0</ele><time>2026-04-27T15:05:17.014Z</time></trkpt><trkpt lat="35.0980217" lon="-6.114495"><ele>37.0</ele><time>2026-04-27T15:05:18.014Z</time></trkpt><trkpt lat="35.0982267" lon="-6.11466"><ele>37.0</ele><time>2026-04-27T15:05:19.014Z</time></trkpt><trkpt lat="35.0984167" lon="-6.11482"><ele>37.0</ele><time>2026-04-27T15:05:20.014Z</time></trkpt><trkpt lat="35.0986067" lon="-6.1149733"><ele>37.0</ele><time>2026-04-27T15:05:21.014Z</time></trkpt><trkpt lat="35.0987983" lon="-6.1151333"><ele>37.0</ele><time>2026-04-27T15:05:22.014Z</time></trkpt><trkpt lat="35.098995" lon="-6.1152917"><ele>37.5</ele><time>2026-04-27T15:05:23.014Z</time></trkpt><trkpt lat="35.0991867" lon="-6.1154483"><ele>38.0</ele><time>2026-04-27T15:05:24.014Z</time></trkpt><trkpt lat="35.0993717" lon="-6.1156033"><ele>37.5</ele><time>2026-04-27T15:05:25.013Z</time></trkpt><trkpt lat="35.0995567" lon="-6.1157667"><ele>37.0</ele><time>2026-04-27T15:05:26.014Z</time></trkpt><trkpt lat="35.0997417" lon="-6.1159217"><ele>37.0</ele><time>2026-04-27T15:05:27.014Z</time></trkpt><trkpt lat="35.0999167" lon="-6.1160617"><ele>37.0</ele><time>2026-04-27T15:05:28.014Z</time></trkpt><trkpt lat="35.1000783" lon="-6.1161967"><ele>37.0</ele><time>2026-04-27T15:05:29.014Z</time></trkpt><trkpt lat="35.1002333" lon="-6.116325"><ele>37.333333333333336</ele><time>2026-04-27T15:05:30.014Z</time></trkpt><trkpt lat="35.1003817" lon="-6.1164483"><ele>37.666666666666664</ele><time>2026-04-27T15:05:31.014Z</time></trkpt><trkpt lat="35.100535" lon="-6.1165733"><ele>38.0</ele><time>2026-04-27T15:05:32.013Z</time></trkpt><trkpt lat="35.1006817" lon="-6.1166967"><ele>39.666666666666664</ele><time>2026-04-27T15:05:33.014Z</time></trkpt><trkpt lat="35.1008233" lon="-6.1168183"><ele>41.333333333333336</ele><time>2026-04-27T15:05:34.014Z</time></trkpt><trkpt lat="35.1009683" lon="-6.1169467"><ele>43.0</ele><time>2026-04-27T15:05:35.014Z</time></trkpt><trkpt lat="35.10112" lon="-6.1170783"><ele>43.0</ele><time>2026-04-27T15:05:36.014Z</time></trkpt><trkpt lat="35.101285" lon="-6.1172183"><ele>43.0</ele><time>2026-04-27T15:05:37.014Z</time></trkpt><trkpt lat="35.10145" lon="-6.1173633"><ele>43.0</ele><time>2026-04-27T15:05:38.013Z</time></trkpt><trkpt lat="35.1016233" lon="-6.1175133"><ele>41.0</ele><time>2026-04-27T15:05:39.014Z</time></trkpt><trkpt lat="35.1018083" lon="-6.117665"><ele>39.0</ele><time>2026-04-27T15:05:40.014Z</time></trkpt><trkpt lat="35.102" lon="-6.1178133"><ele>39.0</ele><time>2026-04-27T15:05:41.014Z</time></trkpt><trkpt lat="35.1021933" lon="-6.1179683"><ele>39.0</ele><time>2026-04-27T15:05:42.014Z</time></trkpt><trkpt lat="35.1023783" lon="-6.11811"><ele>39.0</ele><time>2026-04-27T15:05:43.014Z</time></trkpt><trkpt lat="35.10255" lon="-6.1182517"><ele>37.333333333333336</ele><time>2026-04-27T15:05:44.013Z</time></trkpt><trkpt lat="35.102715" lon="-6.1183917"><ele>35.66666666666667</ele><time>2026-04-27T15:05:45.013Z</time></trkpt><trkpt lat="35.10287" lon="-6.1185133"><ele>34.0</ele><time>2026-04-27T15:05:46.014Z</time></trkpt><trkpt lat="35.1030233" lon="-6.11863"><ele>34.0</ele><time>2026-04-27T15:05:47.014Z</time></trkpt><trkpt lat="35.1031917" lon="-6.11876"><ele>34.0</ele><time>2026-04-27T15:05:48.014Z</time></trkpt><trkpt lat="35.1033733" lon="-6.1189083"><ele>34.0</ele><time>2026-04-27T15:05:49.013Z</time></trkpt><trkpt lat="35.103565" lon="-6.1190767"><ele>33.0</ele><time>2026-04-27T15:05:50.013Z</time></trkpt><trkpt lat="35.1037717" lon="-6.1192583"><ele>32.0</ele><time>2026-04-27T15:05:51.013Z</time></trkpt><trkpt lat="35.1039833" lon="-6.1194467"><ele>31.5</ele><time>2026-04-27T15:05:52.014Z</time></trkpt><trkpt lat="35.104195" lon="-6.119625"><ele>31.0</ele><time>2026-04-27T15:05:53.014Z</time></trkpt><trkpt lat="35.1043967" lon="-6.119795"><ele>31.5</ele><time>2026-04-27T15:05:54.014Z</time></trkpt><trkpt lat="35.1046017" lon="-6.119965"><ele>32.0</ele><time>2026-04-27T15:05:55.014Z</time></trkpt><trkpt lat="35.104815" lon="-6.1201383"><ele>31.5</ele><time>2026-04-27T15:05:56.014Z</time></trkpt><trkpt lat="35.1050317" lon="-6.1203167"><ele>31.0</ele><time>2026-04-27T15:05:57.014Z</time></trkpt><trkpt lat="35.1052417" lon="-6.1204933"><ele>31.0</ele><time>2026-04-27T15:05:58.014Z</time></trkpt><trkpt lat="35.1054417" lon="-6.1206583"><ele>31.0</ele><time>2026-04-27T15:05:59.014Z</time></trkpt><trkpt lat="35.1056383" lon="-6.120825"><ele>30.5</ele><time>2026-04-27T15:06:00.014Z</time></trkpt><trkpt lat="35.105835" lon="-6.121"><ele>30.0</ele><time>2026-04-27T15:06:01.014Z</time></trkpt><trkpt lat="35.1060383" lon="-6.1211867"><ele>30.0</ele><time>2026-04-27T15:06:02.014Z</time></trkpt><trkpt lat="35.1062367" lon="-6.1213967"><ele>30.0</ele><time>2026-04-27T15:06:03.014Z</time></trkpt><trkpt lat="35.1064233" lon="-6.1216267"><ele>27.5</ele><time>2026-04-27T15:06:04.014Z</time></trkpt><trkpt lat="35.1066017" lon="-6.1218617"><ele>25.0</ele><time>2026-04-27T15:06:05.014Z</time></trkpt><trkpt lat="35.1067667" lon="-6.1221017"><ele>25.0</ele><time>2026-04-27T15:06:06.014Z</time></trkpt><trkpt lat="35.1069233" lon="-6.122355"><ele>25.0</ele><time>2026-04-27T15:06:07.014Z</time></trkpt><trkpt lat="35.1070683" lon="-6.1226133"><ele>23.5</ele><time>2026-04-27T15:06:08.014Z</time></trkpt><trkpt lat="35.107205" lon="-6.1228717"><ele>22.0</ele><time>2026-04-27T15:06:09.014Z</time></trkpt><trkpt lat="35.1073383" lon="-6.1231183"><ele>21.0</ele><time>2026-04-27T15:06:10.014Z</time></trkpt><trkpt lat="35.10747" lon="-6.12337"><ele>20.0</ele><time>2026-04-27T15:06:11.014Z</time></trkpt><trkpt lat="35.1076017" lon="-6.1236167"><ele>20.0</ele><time>2026-04-27T15:06:12.014Z</time></trkpt><trkpt lat="35.107735" lon="-6.12385"><ele>20.0</ele><time>2026-04-27T15:06:13.014Z</time></trkpt><trkpt lat="35.1078783" lon="-6.1240783"><ele>20.5</ele><time>2026-04-27T15:06:14.014Z</time></trkpt><trkpt lat="35.1080367" lon="-6.12431"><ele>21.0</ele><time>2026-04-27T15:06:15.014Z</time></trkpt><trkpt lat="35.1082017" lon="-6.1245367"><ele>22.5</ele><time>2026-04-27T15:06:16.014Z</time></trkpt><trkpt lat="35.1083767" lon="-6.1247583"><ele>24.0</ele><time>2026-04-27T15:06:17.014Z</time></trkpt><trkpt lat="35.108555" lon="-6.124975"><ele>24.0</ele><time>2026-04-27T15:06:18.014Z</time></trkpt><trkpt lat="35.1087367" lon="-6.12519"><ele>24.0</ele><time>2026-04-27T15:06:19.014Z</time></trkpt><trkpt lat="35.1089183" lon="-6.125395"><ele>24.5</ele><time>2026-04-27T15:06:20.014Z</time></trkpt><trkpt lat="35.1091033" lon="-6.1255917"><ele>25.0</ele><time>2026-04-27T15:06:21.014Z</time></trkpt><trkpt lat="35.1092883" lon="-6.12579"><ele>25.0</ele><time>2026-04-27T15:06:22.014Z</time></trkpt><trkpt lat="35.10948" lon="-6.1259983"><ele>25.0</ele><time>2026-04-27T15:06:23.014Z</time></trkpt><trkpt lat="35.10967" lon="-6.1262083"><ele>25.0</ele><time>2026-04-27T15:06:24.013Z</time></trkpt><trkpt lat="35.1098533" lon="-6.1264083"><ele>25.0</ele><time>2026-04-27T15:06:25.014Z</time></trkpt><trkpt lat="35.110035" lon="-6.1266017"><ele>26.5</ele><time>2026-04-27T15:06:26.014Z</time></trkpt><trkpt lat="35.1102167" lon="-6.1268"><ele>28.0</ele><time>2026-04-27T15:06:27.014Z</time></trkpt><trkpt lat="35.1104017" lon="-6.1270067"><ele>28.0</ele><time>2026-04-27T15:06:28.014Z</time></trkpt><trkpt lat="35.110585" lon="-6.1272083"><ele>28.0</ele><time>2026-04-27T15:06:29.014Z</time></trkpt><trkpt lat="35.1107617" lon="-6.127405"><ele>27.666666666666668</ele><time>2026-04-27T15:06:30.014Z</time></trkpt><trkpt lat="35.1109267" lon="-6.12759"><ele>27.333333333333336</ele><time>2026-04-27T15:06:31.013Z</time></trkpt><trkpt lat="35.111085" lon="-6.1277683"><ele>27.0</ele><time>2026-04-27T15:06:32.014Z</time></trkpt><trkpt lat="35.1112383" lon="-6.1279467"><ele>27.0</ele><time>2026-04-27T15:06:33.014Z</time></trkpt><trkpt lat="35.1113867" lon="-6.1281117"><ele>27.0</ele><time>2026-04-27T15:06:34.014Z</time></trkpt><trkpt lat="35.1115267" lon="-6.128265"><ele>27.0</ele><time>2026-04-27T15:06:35.014Z</time></trkpt><trkpt lat="35.1116633" lon="-6.1284117"><ele>26.333333333333336</ele><time>2026-04-27T15:06:36.014Z</time></trkpt><trkpt lat="35.11179" lon="-6.128555"><ele>25.666666666666668</ele><time>2026-04-27T15:06:37.014Z</time></trkpt><trkpt lat="35.1119117" lon="-6.1286883"><ele>25.0</ele><time>2026-04-27T15:06:38.014Z</time></trkpt><trkpt lat="35.112025" lon="-6.1288067"><ele>25.0</ele><time>2026-04-27T15:06:39.014Z</time></trkpt><trkpt lat="35.112125" lon="-6.128915"><ele>25.0</ele><time>2026-04-27T15:06:40.014Z</time></trkpt><trkpt lat="35.1122283" lon="-6.1290183"><ele>25.0</ele><time>2026-04-27T15:06:41.013Z</time></trkpt><trkpt lat="35.1123267" lon="-6.1291117"><ele>25.0</ele><time>2026-04-27T15:06:42.014Z</time></trkpt><trkpt lat="35.1124333" lon="-6.1291983"><ele>25.0</ele><time>2026-04-27T15:06:43.014Z</time></trkpt><trkpt lat="35.1125567" lon="-6.1292767"><ele>25.0</ele><time>2026-04-27T15:06:44.013Z</time></trkpt><trkpt lat="35.1126767" lon="-6.1293517"><ele>25.0</ele><time>2026-04-27T15:06:45.014Z</time></trkpt><trkpt lat="35.1127683" lon="-6.1294467"><ele>25.0</ele><time>2026-04-27T15:06:46.014Z</time></trkpt><trkpt lat="35.1128533" lon="-6.1295733"><ele>25.0</ele><time>2026-04-27T15:06:47.014Z</time></trkpt><trkpt lat="35.112945" lon="-6.1297183"><ele>25.0</ele><time>2026-04-27T15:06:48.014Z</time></trkpt><trkpt lat="35.1130433" lon="-6.1298967"><ele>25.0</ele><time>2026-04-27T15:06:49.014Z</time></trkpt><trkpt lat="35.1131767" lon="-6.1300783"><ele>25.0</ele><time>2026-04-27T15:06:50.014Z</time></trkpt><trkpt lat="35.11333" lon="-6.13027"><ele>25.0</ele><time>2026-04-27T15:06:51.014Z</time></trkpt><trkpt lat="35.113505" lon="-6.130465"><ele>25.0</ele><time>2026-04-27T15:06:52.013Z</time></trkpt><trkpt lat="35.1136967" lon="-6.1306583"><ele>25.0</ele><time>2026-04-27T15:06:53.014Z</time></trkpt><trkpt lat="35.11389" lon="-6.1308667"><ele>25.0</ele><time>2026-04-27T15:06:54.014Z</time></trkpt><trkpt lat="35.1140867" lon="-6.1310833"><ele>25.0</ele><time>2026-04-27T15:06:55.014Z</time></trkpt><trkpt lat="35.114275" lon="-6.1313"><ele>25.0</ele><time>2026-04-27T15:06:56.014Z</time></trkpt><trkpt lat="35.1144667" lon="-6.13152"><ele>25.0</ele><time>2026-04-27T15:06:57.014Z</time></trkpt><trkpt lat="35.1146633" lon="-6.1317367"><ele>24.5</ele><time>2026-04-27T15:06:58.014Z</time></trkpt><trkpt lat="35.114865" lon="-6.1319567"><ele>24.0</ele><time>2026-04-27T15:06:59.014Z</time></trkpt><trkpt lat="35.11507" lon="-6.1321817"><ele>22.5</ele><time>2026-04-27T15:07:00.014Z</time></trkpt><trkpt lat="35.115275" lon="-6.1324083"><ele>21.0</ele><time>2026-04-27T15:07:01.014Z</time></trkpt><trkpt lat="35.1154683" lon="-6.1326217"><ele>21.0</ele><time>2026-04-27T15:07:02.014Z</time></trkpt><trkpt lat="35.115655" lon="-6.13283"><ele>21.0</ele><time>2026-04-27T15:07:03.014Z</time></trkpt><trkpt lat="35.1158417" lon="-6.1330367"><ele>21.5</ele><time>2026-04-27T15:07:04.014Z</time></trkpt><trkpt lat="35.116025" lon="-6.1332383"><ele>22.0</ele><time>2026-04-27T15:07:05.013Z</time></trkpt><trkpt lat="35.1162083" lon="-6.13344"><ele>22.0</ele><time>2026-04-27T15:07:06.014Z</time></trkpt><trkpt lat="35.11639" lon="-6.1336367"><ele>22.0</ele><time>2026-04-27T15:07:07.014Z</time></trkpt><trkpt lat="35.1165617" lon="-6.1338267"><ele>23.5</ele><time>2026-04-27T15:07:08.014Z</time></trkpt><trkpt lat="35.1167317" lon="-6.13402"><ele>25.0</ele><time>2026-04-27T15:07:09.014Z</time></trkpt><trkpt lat="35.116905" lon="-6.1342117"><ele>25.5</ele><time>2026-04-27T15:07:10.014Z</time></trkpt><trkpt lat="35.117075" lon="-6.1344033"><ele>26.0</ele><time>2026-04-27T15:07:11.014Z</time></trkpt><trkpt lat="35.1172467" lon="-6.1345883"><ele>25.666666666666664</ele><time>2026-04-27T15:07:12.014Z</time></trkpt><trkpt lat="35.1174133" lon="-6.1347717"><ele>25.333333333333336</ele><time>2026-04-27T15:07:13.013Z</time></trkpt><trkpt lat="35.1175767" lon="-6.1349567"><ele>25.0</ele><time>2026-04-27T15:07:14.014Z</time></trkpt><trkpt lat="35.1177433" lon="-6.1351417"><ele>25.0</ele><time>2026-04-27T15:07:15.014Z</time></trkpt><trkpt lat="35.11791" lon="-6.135325"><ele>25.0</ele><time>2026-04-27T15:07:16.014Z</time></trkpt><trkpt lat="35.1180717" lon="-6.1355083"><ele>25.0</ele><time>2026-04-27T15:07:17.014Z</time></trkpt><trkpt lat="35.1182283" lon="-6.1356867"><ele>25.333333333333336</ele><time>2026-04-27T15:07:18.014Z</time></trkpt><trkpt lat="35.1183833" lon="-6.1358583"><ele>25.666666666666664</ele><time>2026-04-27T15:07:19.014Z</time></trkpt><trkpt lat="35.11854" lon="-6.1360283"><ele>26.0</ele><time>2026-04-27T15:07:20.013Z</time></trkpt><trkpt lat="35.1186933" lon="-6.1362"><ele>26.0</ele><time>2026-04-27T15:07:21.014Z</time></trkpt><trkpt lat="35.1188367" lon="-6.1363667"><ele>26.0</ele><time>2026-04-27T15:07:22.014Z</time></trkpt><trkpt lat="35.118975" lon="-6.13653"><ele>26.0</ele><time>2026-04-27T15:07:23.013Z</time></trkpt><trkpt lat="35.1191233" lon="-6.136695"><ele>26.0</ele><time>2026-04-27T15:07:24.014Z</time></trkpt><trkpt lat="35.119285" lon="-6.1368667"><ele>26.0</ele><time>2026-04-27T15:07:25.014Z</time></trkpt><trkpt lat="35.1194533" lon="-6.13705"><ele>26.0</ele><time>2026-04-27T15:07:26.014Z</time></trkpt><trkpt lat="35.1196233" lon="-6.137245"><ele>26.0</ele><time>2026-04-27T15:07:27.013Z</time></trkpt><trkpt lat="35.1198017" lon="-6.1374417"><ele>26.0</ele><time>2026-04-27T15:07:28.014Z</time></trkpt><trkpt lat="35.11998" lon="-6.1376467"><ele>26.0</ele><time>2026-04-27T15:07:29.013Z</time></trkpt><trkpt lat="35.12017" lon="-6.1378567"><ele>26.0</ele><time>2026-04-27T15:07:30.014Z</time></trkpt><trkpt lat="35.120355" lon="-6.1380617"><ele>26.5</ele><time>2026-04-27T15:07:31.014Z</time></trkpt><trkpt lat="35.1205267" lon="-6.1382583"><ele>27.0</ele><time>2026-04-27T15:07:32.014Z</time></trkpt><trkpt lat="35.1206917" lon="-6.1384417"><ele>27.5</ele><time>2026-04-27T15:07:33.014Z</time></trkpt><trkpt lat="35.12086" lon="-6.13862"><ele>28.0</ele><time>2026-04-27T15:07:34.014Z</time></trkpt><trkpt lat="35.1210333" lon="-6.1388"><ele>28.0</ele><time>2026-04-27T15:07:35.014Z</time></trkpt><trkpt lat="35.1212217" lon="-6.1389833"><ele>28.0</ele><time>2026-04-27T15:07:36.014Z</time></trkpt><trkpt lat="35.1214217" lon="-6.139145"><ele>27.5</ele><time>2026-04-27T15:07:37.014Z</time></trkpt><trkpt lat="35.12163" lon="-6.139295"><ele>27.0</ele><time>2026-04-27T15:07:38.014Z</time></trkpt><trkpt lat="35.121835" lon="-6.1394217"><ele>27.0</ele><time>2026-04-27T15:07:39.013Z</time></trkpt><trkpt lat="35.1220433" lon="-6.1395283"><ele>27.0</ele><time>2026-04-27T15:07:40.014Z</time></trkpt><trkpt lat="35.1222533" lon="-6.1396217"><ele>27.0</ele><time>2026-04-27T15:07:41.014Z</time></trkpt><trkpt lat="35.12247" lon="-6.1397"><ele>27.0</ele><time>2026-04-27T15:07:42.014Z</time></trkpt><trkpt lat="35.1226917" lon="-6.1397683"><ele>27.0</ele><time>2026-04-27T15:07:43.013Z</time></trkpt><trkpt lat="35.12291" lon="-6.139815"><ele>27.0</ele><time>2026-04-27T15:07:44.013Z</time></trkpt><trkpt lat="35.12313" lon="-6.13985"><ele>27.0</ele><time>2026-04-27T15:07:45.013Z</time></trkpt><trkpt lat="35.1233583" lon="-6.1398833"><ele>26.5</ele><time>2026-04-27T15:07:46.013Z</time></trkpt><trkpt lat="35.1235933" lon="-6.1399117"><ele>26.0</ele><time>2026-04-27T15:07:47.013Z</time></trkpt><trkpt lat="35.1238333" lon="-6.1399333"><ele>26.0</ele><time>2026-04-27T15:07:48.013Z</time></trkpt><trkpt lat="35.1240783" lon="-6.13996"><ele>26.0</ele><time>2026-04-27T15:07:49.013Z</time></trkpt><trkpt lat="35.1243267" lon="-6.139985"><ele>26.0</ele><time>2026-04-27T15:07:50.013Z</time></trkpt><trkpt lat="35.1245783" lon="-6.1400133"><ele>26.0</ele><time>2026-04-27T15:07:51.012Z</time></trkpt><trkpt lat="35.1248367" lon="-6.1400383"><ele>26.5</ele><time>2026-04-27T15:07:52.013Z</time></trkpt><trkpt lat="35.1250967" lon="-6.14006"><ele>27.0</ele><time>2026-04-27T15:07:53.013Z</time></trkpt><trkpt lat="35.1253583" lon="-6.140075"><ele>27.0</ele><time>2026-04-27T15:07:54.013Z</time></trkpt><trkpt lat="35.1256167" lon="-6.1400933"><ele>27.0</ele><time>2026-04-27T15:07:55.013Z</time></trkpt><trkpt lat="35.1258767" lon="-6.140115"><ele>26.5</ele><time>2026-04-27T15:07:56.013Z</time></trkpt><trkpt lat="35.1261333" lon="-6.1401417"><ele>26.0</ele><time>2026-04-27T15:07:57.013Z</time></trkpt><trkpt lat="35.1263867" lon="-6.1401767"><ele>26.5</ele><time>2026-04-27T15:07:58.013Z</time></trkpt><trkpt lat="35.1266367" lon="-6.1402017"><ele>27.0</ele><time>2026-04-27T15:07:59.013Z</time></trkpt><trkpt lat="35.1268867" lon="-6.14023"><ele>27.0</ele><time>2026-04-27T15:08:00.013Z</time></trkpt><trkpt lat="35.12714" lon="-6.14025"><ele>27.0</ele><time>2026-04-27T15:08:01.013Z</time></trkpt><trkpt lat="35.1273917" lon="-6.1402733"><ele>26.0</ele><time>2026-04-27T15:08:02.013Z</time></trkpt><trkpt lat="35.12764" lon="-6.1402917"><ele>25.0</ele><time>2026-04-27T15:08:03.013Z</time></trkpt><trkpt lat="35.1278917" lon="-6.1403133"><ele>25.0</ele><time>2026-04-27T15:08:04.013Z</time></trkpt><trkpt lat="35.128155" lon="-6.1403433"><ele>25.0</ele><time>2026-04-27T15:08:05.013Z</time></trkpt><trkpt lat="35.1284117" lon="-6.14037"><ele>26.5</ele><time>2026-04-27T15:08:06.013Z</time></trkpt><trkpt lat="35.1286517" lon="-6.1403933"><ele>28.0</ele><time>2026-04-27T15:08:07.013Z</time></trkpt><trkpt lat="35.1288817" lon="-6.1404183"><ele>27.333333333333336</ele><time>2026-04-27T15:08:08.012Z</time></trkpt><trkpt lat="35.1290967" lon="-6.140435"><ele>26.666666666666664</ele><time>2026-04-27T15:08:09.013Z</time></trkpt><trkpt lat="35.1293017" lon="-6.1404667"><ele>26.0</ele><time>2026-04-27T15:08:10.013Z</time></trkpt><trkpt lat="35.1295" lon="-6.1404817"><ele>26.0</ele><time>2026-04-27T15:08:11.013Z</time></trkpt><trkpt lat="35.1297017" lon="-6.140505"><ele>26.0</ele><time>2026-04-27T15:08:12.013Z</time></trkpt><trkpt lat="35.129905" lon="-6.1405217"><ele>26.0</ele><time>2026-04-27T15:08:13.013Z</time></trkpt><trkpt lat="35.1301033" lon="-6.1405383"><ele>25.333333333333332</ele><time>2026-04-27T15:08:14.013Z</time></trkpt><trkpt lat="35.1302933" lon="-6.1405567"><ele>24.666666666666664</ele><time>2026-04-27T15:08:15.013Z</time></trkpt><trkpt lat="35.13047" lon="-6.1405633"><ele>24.0</ele><time>2026-04-27T15:08:16.013Z</time></trkpt><trkpt lat="35.130625" lon="-6.1405633"><ele>24.25</ele><time>2026-04-27T15:08:17.013Z</time></trkpt><trkpt lat="35.1307733" lon="-6.14056"><ele>24.5</ele><time>2026-04-27T15:08:18.013Z</time></trkpt><trkpt lat="35.1309183" lon="-6.1405417"><ele>24.75</ele><time>2026-04-27T15:08:19.013Z</time></trkpt><trkpt lat="35.1310417" lon="-6.1405133"><ele>25.0</ele><time>2026-04-27T15:08:20.013Z</time></trkpt><trkpt lat="35.1311533" lon="-6.140485"><ele>25.0</ele><time>2026-04-27T15:08:21.013Z</time></trkpt><trkpt lat="35.1312583" lon="-6.140475"><ele>25.0</ele><time>2026-04-27T15:08:22.013Z</time></trkpt><trkpt lat="35.1313667" lon="-6.1404933"><ele>25.0</ele><time>2026-04-27T15:08:23.013Z</time></trkpt><trkpt lat="35.1314833" lon="-6.140525"><ele>25.0</ele><time>2026-04-27T15:08:24.013Z</time></trkpt><trkpt lat="35.131615" lon="-6.1405633"><ele>24.5</ele><time>2026-04-27T15:08:25.013Z</time></trkpt><trkpt lat="35.1317583" lon="-6.1406"><ele>24.0</ele><time>2026-04-27T15:08:26.013Z</time></trkpt><trkpt lat="35.1319067" lon="-6.14064"><ele>23.5</ele><time>2026-04-27T15:08:27.013Z</time></trkpt><trkpt lat="35.13205" lon="-6.1406817"><ele>23.0</ele><time>2026-04-27T15:08:28.013Z</time></trkpt><trkpt lat="35.1322033" lon="-6.1407217"><ele>24.0</ele><time>2026-04-27T15:08:29.013Z</time></trkpt><trkpt lat="35.1323833" lon="-6.140755"><ele>25.0</ele><time>2026-04-27T15:08:30.013Z</time></trkpt><trkpt lat="35.132585" lon="-6.14078"><ele>26.0</ele><time>2026-04-27T15:08:31.013Z</time></trkpt><trkpt lat="35.1328033" lon="-6.1408017"><ele>26.0</ele><time>2026-04-27T15:08:32.013Z</time></trkpt><trkpt lat="35.13303" lon="-6.1408233"><ele>26.0</ele><time>2026-04-27T15:08:33.013Z</time></trkpt><trkpt lat="35.13325" lon="-6.1408433"><ele>26.0</ele><time>2026-04-27T15:08:34.012Z</time></trkpt><trkpt lat="35.13346" lon="-6.1408633"><ele>26.333333333333332</ele><time>2026-04-27T15:08:35.013Z</time></trkpt><trkpt lat="35.1336783" lon="-6.1408833"><ele>26.666666666666664</ele><time>2026-04-27T15:08:36.013Z</time></trkpt><trkpt lat="35.133905" lon="-6.1409067"><ele>27.0</ele><time>2026-04-27T15:08:37.013Z</time></trkpt><trkpt lat="35.1341383" lon="-6.1409333"><ele>27.0</ele><time>2026-04-27T15:08:38.013Z</time></trkpt><trkpt lat="35.1343883" lon="-6.1409583"><ele>27.0</ele><time>2026-04-27T15:08:39.013Z</time></trkpt><trkpt lat="35.1346433" lon="-6.140985"><ele>26.5</ele><time>2026-04-27T15:08:40.012Z</time></trkpt><trkpt lat="35.1349" lon="-6.1410067"><ele>26.0</ele><time>2026-04-27T15:08:41.013Z</time></trkpt><trkpt lat="35.13514" lon="-6.1410317"><ele>26.0</ele><time>2026-04-27T15:08:42.012Z</time></trkpt><trkpt lat="35.1353767" lon="-6.1410567"><ele>26.0</ele><time>2026-04-27T15:08:43.013Z</time></trkpt><trkpt lat="35.1356183" lon="-6.1410817"><ele>25.5</ele><time>2026-04-27T15:08:44.012Z</time></trkpt><trkpt lat="35.1358633" lon="-6.14111"><ele>25.0</ele><time>2026-04-27T15:08:45.013Z</time></trkpt><trkpt lat="35.1361167" lon="-6.1411283"><ele>25.0</ele><time>2026-04-27T15:08:46.013Z</time></trkpt><trkpt lat="35.1363583" lon="-6.14115"><ele>25.0</ele><time>2026-04-27T15:08:47.012Z</time></trkpt><trkpt lat="35.1365817" lon="-6.141175"><ele>25.0</ele><time>2026-04-27T15:08:48.013Z</time></trkpt><trkpt lat="35.1367883" lon="-6.1412"><ele>25.0</ele><time>2026-04-27T15:08:49.013Z</time></trkpt><trkpt lat="35.1369983" lon="-6.1412217"><ele>25.0</ele><time>2026-04-27T15:08:50.013Z</time></trkpt><trkpt lat="35.137215" lon="-6.1412283"><ele>26.0</ele><time>2026-04-27T15:08:51.013Z</time></trkpt><trkpt lat="35.1374183" lon="-6.1412383"><ele>27.0</ele><time>2026-04-27T15:08:52.013Z</time></trkpt><trkpt lat="35.1376083" lon="-6.1412533"><ele>28.0</ele><time>2026-04-27T15:08:53.013Z</time></trkpt><trkpt lat="35.1377917" lon="-6.141255"><ele>28.0</ele><time>2026-04-27T15:08:54.013Z</time></trkpt><trkpt lat="35.137965" lon="-6.1412583"><ele>28.0</ele><time>2026-04-27T15:08:55.013Z</time></trkpt><trkpt lat="35.1381417" lon="-6.14126"><ele>28.0</ele><time>2026-04-27T15:08:56.013Z</time></trkpt><trkpt lat="35.13831" lon="-6.1412583"><ele>29.0</ele><time>2026-04-27T15:08:57.013Z</time></trkpt><trkpt lat="35.1384733" lon="-6.1412683"><ele>30.0</ele><time>2026-04-27T15:08:58.013Z</time></trkpt><trkpt lat="35.1386217" lon="-6.1412783"><ele>31.0</ele><time>2026-04-27T15:08:59.013Z</time></trkpt><trkpt lat="35.1387583" lon="-6.1413017"><ele>31.0</ele><time>2026-04-27T15:09:00.013Z</time></trkpt><trkpt lat="35.13888" lon="-6.1413283"><ele>31.0</ele><time>2026-04-27T15:09:01.013Z</time></trkpt><trkpt lat="35.138995" lon="-6.141345"><ele>31.0</ele><time>2026-04-27T15:09:02.013Z</time></trkpt><trkpt lat="35.1390933" lon="-6.1413533"><ele>31.0</ele><time>2026-04-27T15:09:03.013Z</time></trkpt><trkpt lat="35.1391783" lon="-6.1413417"><ele>31.0</ele><time>2026-04-27T15:09:04.013Z</time></trkpt><trkpt lat="35.1392433" lon="-6.141325"><ele>30.6</ele><time>2026-04-27T15:09:05.013Z</time></trkpt><trkpt lat="35.139365" lon="-6.1413033"><ele>30.200000000000003</ele><time>2026-04-27T15:09:07.013Z</time></trkpt><trkpt lat="35.1394317" lon="-6.1413117"><ele>29.799999999999997</ele><time>2026-04-27T15:09:08.012Z</time></trkpt><trkpt lat="35.1394983" lon="-6.14134"><ele>29.4</ele><time>2026-04-27T15:09:09.013Z</time></trkpt><trkpt lat="35.1395817" lon="-6.14139"><ele>29.0</ele><time>2026-04-27T15:09:10.013Z</time></trkpt><trkpt lat="35.13968" lon="-6.14144"><ele>29.0</ele><time>2026-04-27T15:09:11.013Z</time></trkpt><trkpt lat="35.13979" lon="-6.1414817"><ele>29.0</ele><time>2026-04-27T15:09:12.013Z</time></trkpt><trkpt lat="35.1399117" lon="-6.1414967"><ele>29.0</ele><time>2026-04-27T15:09:13.013Z</time></trkpt><trkpt lat="35.140035" lon="-6.1414983"><ele>29.0</ele><time>2026-04-27T15:09:14.013Z</time></trkpt><trkpt lat="35.1401567" lon="-6.1414983"><ele>28.6</ele><time>2026-04-27T15:09:15.013Z</time></trkpt><trkpt lat="35.140275" lon="-6.1415067"><ele>28.2</ele><time>2026-04-27T15:09:16.013Z</time></trkpt><trkpt lat="35.14039" lon="-6.1415117"><ele>27.800000000000004</ele><time>2026-04-27T15:09:17.013Z</time></trkpt><trkpt lat="35.14049" lon="-6.1415167"><ele>27.400000000000002</ele><time>2026-04-27T15:09:18.013Z</time></trkpt><trkpt lat="35.1405867" lon="-6.1415233"><ele>27.0</ele><time>2026-04-27T15:09:19.013Z</time></trkpt><trkpt lat="35.140675" lon="-6.1415367"><ele>27.0</ele><time>2026-04-27T15:09:20.013Z</time></trkpt><trkpt lat="35.1407717" lon="-6.1415433"><ele>27.0</ele><time>2026-04-27T15:09:21.012Z</time></trkpt><trkpt lat="35.1408567" lon="-6.1415467"><ele>27.0</ele><time>2026-04-27T15:09:22.013Z</time></trkpt><trkpt lat="35.1409317" lon="-6.14155"><ele>27.0</ele><time>2026-04-27T15:09:23.013Z</time></trkpt><trkpt lat="35.1409983" lon="-6.14156"><ele>27.0</ele><time>2026-04-27T15:09:24.013Z</time></trkpt><trkpt lat="35.1410717" lon="-6.1415667"><ele>27.0</ele><time>2026-04-27T15:09:25.013Z</time></trkpt><trkpt lat="35.1411433" lon="-6.141575"><ele>27.0</ele><time>2026-04-27T15:09:26.013Z</time></trkpt><trkpt lat="35.1412117" lon="-6.1415767"><ele>27.0</ele><time>2026-04-27T15:09:27.013Z</time></trkpt><trkpt lat="35.14128" lon="-6.14157"><ele>27.0</ele><time>2026-04-27T15:09:28.012Z</time></trkpt><trkpt lat="35.141385" lon="-6.14155"><ele>27.0</ele><time>2026-04-27T15:09:30.013Z</time></trkpt><trkpt lat="35.1414333" lon="-6.1415"><ele>27.0</ele><time>2026-04-27T15:09:32.013Z</time></trkpt><trkpt lat="35.1414467" lon="-6.1414117"><ele>27.0</ele><time>2026-04-27T15:09:35.013Z</time></trkpt><trkpt lat="35.1414883" lon="-6.1413333"><ele>27.833333333333332</ele><time>2026-04-27T15:09:38.013Z</time></trkpt><trkpt lat="35.14155" lon="-6.1412767"><ele>28.666666666666664</ele><time>2026-04-27T15:09:41.013Z</time></trkpt><trkpt lat="35.141605" lon="-6.1412233"><ele>29.5</ele><time>2026-04-27T15:09:44.013Z</time></trkpt><trkpt lat="35.14168" lon="-6.1412383"><ele>30.333333333333332</ele><time>2026-04-27T15:10:10.013Z</time></trkpt><trkpt lat="35.1417033" lon="-6.1413283"><ele>31.166666666666664</ele><time>2026-04-27T15:10:12.013Z</time></trkpt><trkpt lat="35.1416667" lon="-6.1414017"><ele>32.0</ele><time>2026-04-27T15:10:14.013Z</time></trkpt><trkpt lat="35.141585" lon="-6.1414133"><ele>32.0</ele><time>2026-04-27T15:10:16.013Z</time></trkpt><trkpt lat="35.1415167" lon="-6.141345"><ele>29.0</ele><time>2026-04-27T15:10:18.013Z</time></trkpt><trkpt lat="35.1415283" lon="-6.14126"><ele>29.0</ele><time>2026-04-27T15:10:20.013Z</time></trkpt></trkseg><trkseg><trkpt lat="35.1416367" lon="-6.1412433"><ele>32.0</ele><time>2026-04-27T16:06:56.006Z</time></trkpt><trkpt lat="35.1416967" lon="-6.14131"><ele>31.999999999999996</ele><time>2026-04-27T16:06:58.006Z</time></trkpt><trkpt lat="35.1416817" lon="-6.1413883"><ele>32.0</ele><time>2026-04-27T16:07:00.006Z</time></trkpt><trkpt lat="35.1416183" lon="-6.1414117"><ele>32.0</ele><time>2026-04-27T16:07:02.006Z</time></trkpt><trkpt lat="35.14154" lon="-6.1414033"><ele>31.999999999999996</ele><time>2026-04-27T16:07:04.006Z</time></trkpt><trkpt lat="35.141485" lon="-6.1414533"><ele>32.0</ele><time>2026-04-27T16:07:06.005Z</time></trkpt><trkpt lat="35.1415167" lon="-6.1415417"><ele>32.0</ele><time>2026-04-27T16:07:09.006Z</time></trkpt><trkpt lat="35.1415967" lon="-6.1415917"><ele>31.400000000000002</ele><time>2026-04-27T16:07:11.006Z</time></trkpt><trkpt lat="35.14172" lon="-6.1416033"><ele>30.800000000000004</ele><time>2026-04-27T16:07:13.006Z</time></trkpt><trkpt lat="35.1418567" lon="-6.14162"><ele>30.2</ele><time>2026-04-27T16:07:15.006Z</time></trkpt><trkpt lat="35.141935" lon="-6.1416283"><ele>29.6</ele><time>2026-04-27T16:07:16.006Z</time></trkpt><trkpt lat="35.142015" lon="-6.1416367"><ele>29.0</ele><time>2026-04-27T16:07:17.006Z</time></trkpt><trkpt lat="35.142085" lon="-6.1416433"><ele>29.0</ele><time>2026-04-27T16:07:18.006Z</time></trkpt><trkpt lat="35.14215" lon="-6.141655"><ele>29.0</ele><time>2026-04-27T16:07:19.006Z</time></trkpt><trkpt lat="35.14226" lon="-6.1416633"><ele>29.0</ele><time>2026-04-27T16:07:21.006Z</time></trkpt><trkpt lat="35.1423583" lon="-6.14168"><ele>29.0</ele><time>2026-04-27T16:07:23.006Z</time></trkpt><trkpt lat="35.1424767" lon="-6.141685"><ele>29.0</ele><time>2026-04-27T16:07:25.006Z</time></trkpt><trkpt lat="35.1425483" lon="-6.1416867"><ele>28.799999999999997</ele><time>2026-04-27T16:07:26.006Z</time></trkpt><trkpt lat="35.1426267" lon="-6.1416983"><ele>28.599999999999998</ele><time>2026-04-27T16:07:27.006Z</time></trkpt><trkpt lat="35.1427167" lon="-6.14171"><ele>28.4</ele><time>2026-04-27T16:07:28.006Z</time></trkpt><trkpt lat="35.1428083" lon="-6.1417083"><ele>28.2</ele><time>2026-04-27T16:07:29.006Z</time></trkpt><trkpt lat="35.14291" lon="-6.1417083"><ele>28.0</ele><time>2026-04-27T16:07:30.006Z</time></trkpt><trkpt lat="35.1430183" lon="-6.141715"><ele>28.0</ele><time>2026-04-27T16:07:31.006Z</time></trkpt><trkpt lat="35.1431283" lon="-6.1417283"><ele>28.0</ele><time>2026-04-27T16:07:32.006Z</time></trkpt><trkpt lat="35.1432433" lon="-6.141735"><ele>28.0</ele><time>2026-04-27T16:07:33.006Z</time></trkpt><trkpt lat="35.1433583" lon="-6.141745"><ele>28.0</ele><time>2026-04-27T16:07:34.006Z</time></trkpt><trkpt lat="35.14348" lon="-6.141755"><ele>28.5</ele><time>2026-04-27T16:07:35.006Z</time></trkpt><trkpt lat="35.1436117" lon="-6.14177"><ele>29.0</ele><time>2026-04-27T16:07:36.006Z</time></trkpt><trkpt lat="35.14375" lon="-6.14178"><ele>29.5</ele><time>2026-04-27T16:07:37.006Z</time></trkpt><trkpt lat="35.143895" lon="-6.1417917"><ele>30.0</ele><time>2026-04-27T16:07:38.006Z</time></trkpt><trkpt lat="35.1440467" lon="-6.1418067"><ele>29.666666666666664</ele><time>2026-04-27T16:07:39.006Z</time></trkpt><trkpt lat="35.1442067" lon="-6.1418233"><ele>29.333333333333332</ele><time>2026-04-27T16:07:40.006Z</time></trkpt><trkpt lat="35.1443583" lon="-6.14184"><ele>29.0</ele><time>2026-04-27T16:07:41.006Z</time></trkpt><trkpt lat="35.1445067" lon="-6.1418533"><ele>29.0</ele><time>2026-04-27T16:07:42.006Z</time></trkpt><trkpt lat="35.1446467" lon="-6.14187"><ele>29.0</ele><time>2026-04-27T16:07:43.006Z</time></trkpt><trkpt lat="35.1447883" lon="-6.1418767"><ele>29.0</ele><time>2026-04-27T16:07:44.006Z</time></trkpt><trkpt lat="35.144935" lon="-6.1418917"><ele>29.0</ele><time>2026-04-27T16:07:45.006Z</time></trkpt><trkpt lat="35.1450817" lon="-6.141905"><ele>28.5</ele><time>2026-04-27T16:07:46.006Z</time></trkpt><trkpt lat="35.1452267" lon="-6.1419233"><ele>28.0</ele><time>2026-04-27T16:07:47.006Z</time></trkpt><trkpt lat="35.1453733" lon="-6.141935"><ele>27.5</ele><time>2026-04-27T16:07:48.005Z</time></trkpt><trkpt lat="35.1455267" lon="-6.1419467"><ele>27.0</ele><time>2026-04-27T16:07:49.006Z</time></trkpt><trkpt lat="35.1456767" lon="-6.14196"><ele>25.666666666666668</ele><time>2026-04-27T16:07:50.006Z</time></trkpt><trkpt lat="35.1458333" lon="-6.1419767"><ele>24.333333333333336</ele><time>2026-04-27T16:07:51.006Z</time></trkpt><trkpt lat="35.1459933" lon="-6.14199"><ele>23.0</ele><time>2026-04-27T16:07:52.006Z</time></trkpt><trkpt lat="35.1461583" lon="-6.1420083"><ele>23.0</ele><time>2026-04-27T16:07:53.006Z</time></trkpt><trkpt lat="35.146325" lon="-6.142025"><ele>23.0</ele><time>2026-04-27T16:07:54.006Z</time></trkpt><trkpt lat="35.146495" lon="-6.1420383"><ele>23.0</ele><time>2026-04-27T16:07:55.006Z</time></trkpt><trkpt lat="35.1466717" lon="-6.14206"><ele>23.666666666666668</ele><time>2026-04-27T16:07:56.006Z</time></trkpt><trkpt lat="35.1468317" lon="-6.1420817"><ele>24.333333333333336</ele><time>2026-04-27T16:07:57.006Z</time></trkpt><trkpt lat="35.14699" lon="-6.142105"><ele>25.0</ele><time>2026-04-27T16:07:58.005Z</time></trkpt><trkpt lat="35.1471417" lon="-6.14212"><ele>25.0</ele><time>2026-04-27T16:07:59.006Z</time></trkpt><trkpt lat="35.147295" lon="-6.1421333"><ele>25.0</ele><time>2026-04-27T16:08:00.006Z</time></trkpt><trkpt lat="35.1474383" lon="-6.1421433"><ele>25.0</ele><time>2026-04-27T16:08:01.006Z</time></trkpt><trkpt lat="35.1475783" lon="-6.1421583"><ele>25.0</ele><time>2026-04-27T16:08:02.006Z</time></trkpt><trkpt lat="35.1477167" lon="-6.1421717"><ele>25.0</ele><time>2026-04-27T16:08:03.006Z</time></trkpt><trkpt lat="35.1478467" lon="-6.14218"><ele>25.0</ele><time>2026-04-27T16:08:04.006Z</time></trkpt><trkpt lat="35.147965" lon="-6.142195"><ele>25.0</ele><time>2026-04-27T16:08:05.006Z</time></trkpt><trkpt lat="35.1480817" lon="-6.1422"><ele>25.0</ele><time>2026-04-27T16:08:06.006Z</time></trkpt><trkpt lat="35.14819" lon="-6.1422067"><ele>25.000000000000004</ele><time>2026-04-27T16:08:07.006Z</time></trkpt><trkpt lat="35.1482817" lon="-6.1422183"><ele>25.0</ele><time>2026-04-27T16:08:08.006Z</time></trkpt><trkpt lat="35.1483717" lon="-6.1422283"><ele>25.0</ele><time>2026-04-27T16:08:09.006Z</time></trkpt><trkpt lat="35.1484583" lon="-6.1422383"><ele>25.0</ele><time>2026-04-27T16:08:10.006Z</time></trkpt><trkpt lat="35.1485433" lon="-6.142245"><ele>25.000000000000004</ele><time>2026-04-27T16:08:11.006Z</time></trkpt><trkpt lat="35.148635" lon="-6.1422583"><ele>25.0</ele><time>2026-04-27T16:08:12.006Z</time></trkpt><trkpt lat="35.14872" lon="-6.1422717"><ele>25.0</ele><time>2026-04-27T16:08:13.006Z</time></trkpt><trkpt lat="35.1488083" lon="-6.1422833"><ele>25.0</ele><time>2026-04-27T16:08:14.006Z</time></trkpt><trkpt lat="35.1489033" lon="-6.1422933"><ele>25.0</ele><time>2026-04-27T16:08:15.006Z</time></trkpt><trkpt lat="35.1489983" lon="-6.1422983"><ele>25.0</ele><time>2026-04-27T16:08:16.006Z</time></trkpt><trkpt lat="35.1490917" lon="-6.1423067"><ele>25.0</ele><time>2026-04-27T16:08:17.006Z</time></trkpt><trkpt lat="35.1491767" lon="-6.1423133"><ele>25.000000000000004</ele><time>2026-04-27T16:08:18.006Z</time></trkpt><trkpt lat="35.1492583" lon="-6.1423083"><ele>25.0</ele><time>2026-04-27T16:08:19.006Z</time></trkpt><trkpt lat="35.149335" lon="-6.1423033"><ele>25.0</ele><time>2026-04-27T16:08:20.006Z</time></trkpt><trkpt lat="35.149415" lon="-6.142295"><ele>25.0</ele><time>2026-04-27T16:08:21.006Z</time></trkpt><trkpt lat="35.1495083" lon="-6.1422883"><ele>25.000000000000004</ele><time>2026-04-27T16:08:22.005Z</time></trkpt><trkpt lat="35.1496017" lon="-6.1423067"><ele>25.0</ele><time>2026-04-27T16:08:23.006Z</time></trkpt><trkpt lat="35.149705" lon="-6.1423283"><ele>25.0</ele><time>2026-04-27T16:08:24.006Z</time></trkpt><trkpt lat="35.149825" lon="-6.1423533"><ele>25.0</ele><time>2026-04-27T16:08:25.006Z</time></trkpt><trkpt lat="35.14995" lon="-6.142375"><ele>25.0</ele><time>2026-04-27T16:08:26.006Z</time></trkpt><trkpt lat="35.150075" lon="-6.1423933"><ele>25.0</ele><time>2026-04-27T16:08:27.006Z</time></trkpt><trkpt lat="35.1502017" lon="-6.1424083"><ele>25.6</ele><time>2026-04-27T16:08:28.006Z</time></trkpt><trkpt lat="35.1503183" lon="-6.1424217"><ele>26.2</ele><time>2026-04-27T16:08:29.006Z</time></trkpt><trkpt lat="35.150425" lon="-6.14243"><ele>26.799999999999997</ele><time>2026-04-27T16:08:30.006Z</time></trkpt><trkpt lat="35.1505283" lon="-6.142445"><ele>27.4</ele><time>2026-04-27T16:08:31.006Z</time></trkpt><trkpt lat="35.15064" lon="-6.14246"><ele>28.0</ele><time>2026-04-27T16:08:32.006Z</time></trkpt><trkpt lat="35.150755" lon="-6.1424767"><ele>28.0</ele><time>2026-04-27T16:08:33.006Z</time></trkpt><trkpt lat="35.1508783" lon="-6.1424883"><ele>28.0</ele><time>2026-04-27T16:08:34.006Z</time></trkpt><trkpt lat="35.1510117" lon="-6.1425033"><ele>28.0</ele><time>2026-04-27T16:08:35.006Z</time></trkpt><trkpt lat="35.151155" lon="-6.1425117"><ele>28.0</ele><time>2026-04-27T16:08:36.006Z</time></trkpt><trkpt lat="35.1513033" lon="-6.142525"><ele>28.0</ele><time>2026-04-27T16:08:37.006Z</time></trkpt><trkpt lat="35.1514517" lon="-6.1425417"><ele>28.0</ele><time>2026-04-27T16:08:38.006Z</time></trkpt><trkpt lat="35.151615" lon="-6.1425533"><ele>28.0</ele><time>2026-04-27T16:08:39.006Z</time></trkpt><trkpt lat="35.15178" lon="-6.14257"><ele>27.666666666666668</ele><time>2026-04-27T16:08:40.006Z</time></trkpt><trkpt lat="35.1519433" lon="-6.142585"><ele>27.333333333333336</ele><time>2026-04-27T16:08:41.006Z</time></trkpt><trkpt lat="35.1521067" lon="-6.1426067"><ele>27.0</ele><time>2026-04-27T16:08:42.006Z</time></trkpt><trkpt lat="35.1522583" lon="-6.1426217"><ele>26.25</ele><time>2026-04-27T16:08:43.005Z</time></trkpt><trkpt lat="35.1524083" lon="-6.1426367"><ele>25.5</ele><time>2026-04-27T16:08:44.006Z</time></trkpt><trkpt lat="35.1525567" lon="-6.1426433"><ele>24.75</ele><time>2026-04-27T16:08:45.005Z</time></trkpt><trkpt lat="35.1527033" lon="-6.1426567"><ele>24.0</ele><time>2026-04-27T16:08:46.006Z</time></trkpt><trkpt lat="35.152855" lon="-6.1426733"><ele>24.0</ele><time>2026-04-27T16:08:47.005Z</time></trkpt><trkpt lat="35.153005" lon="-6.1426883"><ele>24.0</ele><time>2026-04-27T16:08:48.006Z</time></trkpt><trkpt lat="35.153155" lon="-6.1427033"><ele>24.0</ele><time>2026-04-27T16:08:49.006Z</time></trkpt><trkpt lat="35.1533133" lon="-6.142715"><ele>23.75</ele><time>2026-04-27T16:08:50.006Z</time></trkpt><trkpt lat="35.1534633" lon="-6.1427283"><ele>23.5</ele><time>2026-04-27T16:08:51.006Z</time></trkpt><trkpt lat="35.153605" lon="-6.142735"><ele>23.25</ele><time>2026-04-27T16:08:52.005Z</time></trkpt><trkpt lat="35.1537483" lon="-6.1427417"><ele>23.0</ele><time>2026-04-27T16:08:53.006Z</time></trkpt><trkpt lat="35.1538883" lon="-6.1427483"><ele>23.0</ele><time>2026-04-27T16:08:54.005Z</time></trkpt><trkpt lat="35.1540367" lon="-6.1427633"><ele>23.0</ele><time>2026-04-27T16:08:55.006Z</time></trkpt><trkpt lat="35.1541833" lon="-6.1427767"><ele>23.0</ele><time>2026-04-27T16:08:56.006Z</time></trkpt><trkpt lat="35.1543267" lon="-6.1427883"><ele>23.0</ele><time>2026-04-27T16:08:57.006Z</time></trkpt><trkpt lat="35.1544717" lon="-6.1428033"><ele>23.0</ele><time>2026-04-27T16:08:58.006Z</time></trkpt><trkpt lat="35.15461" lon="-6.14282"><ele>23.0</ele><time>2026-04-27T16:08:59.006Z</time></trkpt><trkpt lat="35.1547583" lon="-6.1428367"><ele>23.0</ele><time>2026-04-27T16:09:00.006Z</time></trkpt><trkpt lat="35.1548967" lon="-6.14286"><ele>23.0</ele><time>2026-04-27T16:09:01.006Z</time></trkpt><trkpt lat="35.155045" lon="-6.1428733"><ele>22.75</ele><time>2026-04-27T16:09:02.006Z</time></trkpt><trkpt lat="35.1551833" lon="-6.14289"><ele>22.5</ele><time>2026-04-27T16:09:03.006Z</time></trkpt><trkpt lat="35.15532" lon="-6.142905"><ele>22.25</ele><time>2026-04-27T16:09:04.006Z</time></trkpt><trkpt lat="35.1554667" lon="-6.142915"><ele>22.0</ele><time>2026-04-27T16:09:05.006Z</time></trkpt><trkpt lat="35.1556117" lon="-6.142925"><ele>22.25</ele><time>2026-04-27T16:09:06.006Z</time></trkpt><trkpt lat="35.155755" lon="-6.1429383"><ele>22.5</ele><time>2026-04-27T16:09:07.006Z</time></trkpt><trkpt lat="35.1558933" lon="-6.1429517"><ele>22.75</ele><time>2026-04-27T16:09:08.005Z</time></trkpt><trkpt lat="35.1560317" lon="-6.142975"><ele>23.0</ele><time>2026-04-27T16:09:09.006Z</time></trkpt><trkpt lat="35.1561667" lon="-6.1429933"><ele>23.0</ele><time>2026-04-27T16:09:10.006Z</time></trkpt><trkpt lat="35.156305" lon="-6.143005"><ele>23.0</ele><time>2026-04-27T16:09:11.006Z</time></trkpt><trkpt lat="35.156445" lon="-6.14302"><ele>23.0</ele><time>2026-04-27T16:09:12.006Z</time></trkpt><trkpt lat="35.15659" lon="-6.1430317"><ele>23.0</ele><time>2026-04-27T16:09:13.006Z</time></trkpt><trkpt lat="35.156735" lon="-6.1430467"><ele>23.333333333333336</ele><time>2026-04-27T16:09:14.005Z</time></trkpt><trkpt lat="35.156885" lon="-6.143055"><ele>23.666666666666668</ele><time>2026-04-27T16:09:15.006Z</time></trkpt><trkpt lat="35.15704" lon="-6.14307"><ele>24.0</ele><time>2026-04-27T16:09:16.005Z</time></trkpt><trkpt lat="35.157185" lon="-6.1430817"><ele>24.0</ele><time>2026-04-27T16:09:17.006Z</time></trkpt><trkpt lat="35.157325" lon="-6.1430967"><ele>24.0</ele><time>2026-04-27T16:09:18.005Z</time></trkpt><trkpt lat="35.1574667" lon="-6.1431067"><ele>24.0</ele><time>2026-04-27T16:09:19.006Z</time></trkpt><trkpt lat="35.1576067" lon="-6.1431183"><ele>24.0</ele><time>2026-04-27T16:09:20.006Z</time></trkpt><trkpt lat="35.15775" lon="-6.1431383"><ele>24.0</ele><time>2026-04-27T16:09:21.006Z</time></trkpt><trkpt lat="35.1578917" lon="-6.1431533"><ele>24.0</ele><time>2026-04-27T16:09:22.006Z</time></trkpt><trkpt lat="35.1580317" lon="-6.1431683"><ele>24.0</ele><time>2026-04-27T16:09:23.006Z</time></trkpt><trkpt lat="35.1581733" lon="-6.14318"><ele>24.0</ele><time>2026-04-27T16:09:24.006Z</time></trkpt><trkpt lat="35.1583167" lon="-6.14319"><ele>25.0</ele><time>2026-04-27T16:09:25.006Z</time></trkpt><trkpt lat="35.158455" lon="-6.1432017"><ele>26.0</ele><time>2026-04-27T16:09:26.006Z</time></trkpt><trkpt lat="35.1585833" lon="-6.143215"><ele>27.0</ele><time>2026-04-27T16:09:27.006Z</time></trkpt><trkpt lat="35.1587067" lon="-6.1432283"><ele>28.0</ele><time>2026-04-27T16:09:28.006Z</time></trkpt><trkpt lat="35.1588283" lon="-6.143245"><ele>28.75</ele><time>2026-04-27T16:09:29.006Z</time></trkpt><trkpt lat="35.1589567" lon="-6.1432567"><ele>29.5</ele><time>2026-04-27T16:09:30.006Z</time></trkpt><trkpt lat="35.1590833" lon="-6.14327"><ele>30.25</ele><time>2026-04-27T16:09:31.006Z</time></trkpt><trkpt lat="35.1592067" lon="-6.1432783"><ele>31.0</ele><time>2026-04-27T16:09:32.006Z</time></trkpt><trkpt lat="35.1593333" lon="-6.143285"><ele>32.0</ele><time>2026-04-27T16:09:33.006Z</time></trkpt><trkpt lat="35.159455" lon="-6.1432967"><ele>33.0</ele><time>2026-04-27T16:09:34.006Z</time></trkpt><trkpt lat="35.1595833" lon="-6.14331"><ele>34.0</ele><time>2026-04-27T16:09:35.006Z</time></trkpt><trkpt lat="35.1597183" lon="-6.1433217"><ele>35.0</ele><time>2026-04-27T16:09:36.006Z</time></trkpt><trkpt lat="35.1598533" lon="-6.14334"><ele>35.25</ele><time>2026-04-27T16:09:37.006Z</time></trkpt><trkpt lat="35.1599817" lon="-6.1433583"><ele>35.5</ele><time>2026-04-27T16:09:38.006Z</time></trkpt><trkpt lat="35.16011" lon="-6.143365"><ele>35.75</ele><time>2026-04-27T16:09:39.005Z</time></trkpt><trkpt lat="35.1602367" lon="-6.1433717"><ele>36.0</ele><time>2026-04-27T16:09:40.006Z</time></trkpt><trkpt lat="35.1603583" lon="-6.143385"><ele>36.0</ele><time>2026-04-27T16:09:41.006Z</time></trkpt><trkpt lat="35.1604767" lon="-6.143395"><ele>36.0</ele><time>2026-04-27T16:09:42.006Z</time></trkpt><trkpt lat="35.1605933" lon="-6.1434083"><ele>36.0</ele><time>2026-04-27T16:09:43.006Z</time></trkpt><trkpt lat="35.16071" lon="-6.1434267"><ele>36.0</ele><time>2026-04-27T16:09:44.006Z</time></trkpt><trkpt lat="35.1608317" lon="-6.1434367"><ele>35.5</ele><time>2026-04-27T16:09:45.006Z</time></trkpt><trkpt lat="35.1609517" lon="-6.1434467"><ele>35.0</ele><time>2026-04-27T16:09:46.006Z</time></trkpt><trkpt lat="35.1610733" lon="-6.1434567"><ele>34.5</ele><time>2026-04-27T16:09:47.006Z</time></trkpt><trkpt lat="35.16119" lon="-6.1434683"><ele>34.0</ele><time>2026-04-27T16:09:48.006Z</time></trkpt><trkpt lat="35.1613083" lon="-6.14348"><ele>34.0</ele><time>2026-04-27T16:09:49.006Z</time></trkpt><trkpt lat="35.161425" lon="-6.1434933"><ele>34.0</ele><time>2026-04-27T16:09:50.006Z</time></trkpt><trkpt lat="35.1615467" lon="-6.1435033"><ele>34.0</ele><time>2026-04-27T16:09:51.006Z</time></trkpt><trkpt lat="35.161675" lon="-6.14351"><ele>34.0</ele><time>2026-04-27T16:09:52.006Z</time></trkpt><trkpt lat="35.1618" lon="-6.1435183"><ele>33.75</ele><time>2026-04-27T16:09:53.006Z</time></trkpt><trkpt lat="35.1619233" lon="-6.1435317"><ele>33.5</ele><time>2026-04-27T16:09:54.005Z</time></trkpt><trkpt lat="35.162045" lon="-6.1435467"><ele>33.25</ele><time>2026-04-27T16:09:55.006Z</time></trkpt><trkpt lat="35.1621617" lon="-6.14356"><ele>33.0</ele><time>2026-04-27T16:09:56.006Z</time></trkpt><trkpt lat="35.1622783" lon="-6.1435717"><ele>32.5</ele><time>2026-04-27T16:09:57.006Z</time></trkpt><trkpt lat="35.1623983" lon="-6.1435817"><ele>32.0</ele><time>2026-04-27T16:09:58.006Z</time></trkpt><trkpt lat="35.162515" lon="-6.1435917"><ele>31.5</ele><time>2026-04-27T16:09:59.006Z</time></trkpt><trkpt lat="35.1626367" lon="-6.1436"><ele>31.0</ele><time>2026-04-27T16:10:00.006Z</time></trkpt><trkpt lat="35.1627533" lon="-6.14361"><ele>31.0</ele><time>2026-04-27T16:10:01.006Z</time></trkpt><trkpt lat="35.162865" lon="-6.1436217"><ele>31.0</ele><time>2026-04-27T16:10:02.006Z</time></trkpt><trkpt lat="35.1629767" lon="-6.1436283"><ele>31.0</ele><time>2026-04-27T16:10:03.006Z</time></trkpt><trkpt lat="35.1630867" lon="-6.1436383"><ele>31.0</ele><time>2026-04-27T16:10:04.006Z</time></trkpt><trkpt lat="35.16319" lon="-6.1436483"><ele>31.0</ele><time>2026-04-27T16:10:05.006Z</time></trkpt><trkpt lat="35.1632933" lon="-6.1436567"><ele>31.000000000000004</ele><time>2026-04-27T16:10:06.006Z</time></trkpt><trkpt lat="35.1633967" lon="-6.1436617"><ele>31.0</ele><time>2026-04-27T16:10:07.006Z</time></trkpt><trkpt lat="35.1634933" lon="-6.1436717"><ele>31.0</ele><time>2026-04-27T16:10:08.006Z</time></trkpt><trkpt lat="35.1635767" lon="-6.1436767"><ele>31.0</ele><time>2026-04-27T16:10:09.006Z</time></trkpt><trkpt lat="35.163665" lon="-6.1436733"><ele>31.000000000000004</ele><time>2026-04-27T16:10:10.006Z</time></trkpt><trkpt lat="35.1637383" lon="-6.143665"><ele>31.0</ele><time>2026-04-27T16:10:11.006Z</time></trkpt><trkpt lat="35.1638083" lon="-6.143645"><ele>31.000000000000004</ele><time>2026-04-27T16:10:12.006Z</time></trkpt><trkpt lat="35.1638767" lon="-6.143635"><ele>31.0</ele><time>2026-04-27T16:10:13.006Z</time></trkpt><trkpt lat="35.163945" lon="-6.14363"><ele>31.0</ele><time>2026-04-27T16:10:14.006Z</time></trkpt><trkpt lat="35.1640083" lon="-6.1436467"><ele>31.0</ele><time>2026-04-27T16:10:15.006Z</time></trkpt><trkpt lat="35.1640783" lon="-6.14367"><ele>31.000000000000004</ele><time>2026-04-27T16:10:16.006Z</time></trkpt><trkpt lat="35.16416" lon="-6.1436967"><ele>31.0</ele><time>2026-04-27T16:10:17.006Z</time></trkpt><trkpt lat="35.1642483" lon="-6.1437283"><ele>30.6</ele><time>2026-04-27T16:10:18.006Z</time></trkpt><trkpt lat="35.16433" lon="-6.1437567"><ele>30.200000000000003</ele><time>2026-04-27T16:10:19.006Z</time></trkpt><trkpt lat="35.16442" lon="-6.1437833"><ele>29.799999999999997</ele><time>2026-04-27T16:10:20.005Z</time></trkpt><trkpt lat="35.1645167" lon="-6.1437967"><ele>29.4</ele><time>2026-04-27T16:10:21.006Z</time></trkpt><trkpt lat="35.164625" lon="-6.143805"><ele>29.0</ele><time>2026-04-27T16:10:22.005Z</time></trkpt><trkpt lat="35.1647317" lon="-6.1438117"><ele>29.0</ele><time>2026-04-27T16:10:23.006Z</time></trkpt><trkpt lat="35.164835" lon="-6.1438267"><ele>29.0</ele><time>2026-04-27T16:10:24.006Z</time></trkpt><trkpt lat="35.1649533" lon="-6.1438317"><ele>29.0</ele><time>2026-04-27T16:10:25.006Z</time></trkpt><trkpt lat="35.1650617" lon="-6.143845"><ele>29.0</ele><time>2026-04-27T16:10:26.006Z</time></trkpt><trkpt lat="35.1651683" lon="-6.1438567"><ele>29.0</ele><time>2026-04-27T16:10:27.006Z</time></trkpt><trkpt lat="35.1652683" lon="-6.14387"><ele>29.799999999999997</ele><time>2026-04-27T16:10:28.006Z</time></trkpt><trkpt lat="35.1653733" lon="-6.14388"><ele>30.599999999999998</ele><time>2026-04-27T16:10:29.006Z</time></trkpt><trkpt lat="35.165485" lon="-6.14389"><ele>31.4</ele><time>2026-04-27T16:10:30.006Z</time></trkpt><trkpt lat="35.1656017" lon="-6.1439"><ele>32.199999999999996</ele><time>2026-04-27T16:10:31.006Z</time></trkpt><trkpt lat="35.1657133" lon="-6.1439133"><ele>33.0</ele><time>2026-04-27T16:10:32.006Z</time></trkpt><trkpt lat="35.16582" lon="-6.1439267"><ele>33.8</ele><time>2026-04-27T16:10:33.005Z</time></trkpt><trkpt lat="35.1659217" lon="-6.14394"><ele>34.599999999999994</ele><time>2026-04-27T16:10:34.006Z</time></trkpt><trkpt lat="35.1660217" lon="-6.1439483"><ele>35.400000000000006</ele><time>2026-04-27T16:10:35.006Z</time></trkpt><trkpt lat="35.166115" lon="-6.1439583"><ele>36.2</ele><time>2026-04-27T16:10:36.006Z</time></trkpt><trkpt lat="35.1662067" lon="-6.1439683"><ele>37.0</ele><time>2026-04-27T16:10:37.006Z</time></trkpt><trkpt lat="35.1663" lon="-6.143975"><ele>37.0</ele><time>2026-04-27T16:10:38.006Z</time></trkpt><trkpt lat="35.1663967" lon="-6.143985"><ele>37.0</ele><time>2026-04-27T16:10:39.006Z</time></trkpt><trkpt lat="35.1664883" lon="-6.1439917"><ele>37.0</ele><time>2026-04-27T16:10:40.006Z</time></trkpt><trkpt lat="35.1665883" lon="-6.143995"><ele>37.0</ele><time>2026-04-27T16:10:41.006Z</time></trkpt><trkpt lat="35.1666933" lon="-6.1439983"><ele>37.0</ele><time>2026-04-27T16:10:42.006Z</time></trkpt><trkpt lat="35.1667933" lon="-6.1440167"><ele>38.0</ele><time>2026-04-27T16:10:43.005Z</time></trkpt><trkpt lat="35.1669" lon="-6.1440367"><ele>39.0</ele><time>2026-04-27T16:10:44.006Z</time></trkpt><trkpt lat="35.1670133" lon="-6.1440317"><ele>40.0</ele><time>2026-04-27T16:10:45.006Z</time></trkpt><trkpt lat="35.1671283" lon="-6.1440433"><ele>41.0</ele><time>2026-04-27T16:10:46.006Z</time></trkpt><trkpt lat="35.1672433" lon="-6.14405"><ele>41.0</ele><time>2026-04-27T16:10:47.006Z</time></trkpt><trkpt lat="35.1673533" lon="-6.14406"><ele>41.0</ele><time>2026-04-27T16:10:48.006Z</time></trkpt><trkpt lat="35.16747" lon="-6.1440683"><ele>41.0</ele><time>2026-04-27T16:10:49.006Z</time></trkpt><trkpt lat="35.1675883" lon="-6.1440833"><ele>41.0</ele><time>2026-04-27T16:10:50.006Z</time></trkpt><trkpt lat="35.1677133" lon="-6.1440983"><ele>41.25</ele><time>2026-04-27T16:10:51.005Z</time></trkpt><trkpt lat="35.1678483" lon="-6.1441217"><ele>41.5</ele><time>2026-04-27T16:10:52.006Z</time></trkpt><trkpt lat="35.1679917" lon="-6.1441433"><ele>41.75</ele><time>2026-04-27T16:10:53.006Z</time></trkpt><trkpt lat="35.1681383" lon="-6.144165"><ele>42.0</ele><time>2026-04-27T16:10:54.005Z</time></trkpt><trkpt lat="35.16829" lon="-6.14418"><ele>43.0</ele><time>2026-04-27T16:10:55.006Z</time></trkpt><trkpt lat="35.16845" lon="-6.14419"><ele>44.0</ele><time>2026-04-27T16:10:56.006Z</time></trkpt><trkpt lat="35.1686133" lon="-6.1441967"><ele>45.0</ele><time>2026-04-27T16:10:57.006Z</time></trkpt><trkpt lat="35.168765" lon="-6.1442067"><ele>45.0</ele><time>2026-04-27T16:10:58.006Z</time></trkpt><trkpt lat="35.1689033" lon="-6.14422"><ele>45.0</ele><time>2026-04-27T16:10:59.005Z</time></trkpt><trkpt lat="35.16903" lon="-6.1442417"><ele>45.0</ele><time>2026-04-27T16:11:00.006Z</time></trkpt><trkpt lat="35.1691467" lon="-6.144255"><ele>45.0</ele><time>2026-04-27T16:11:01.006Z</time></trkpt><trkpt lat="35.169265" lon="-6.1442667"><ele>45.25</ele><time>2026-04-27T16:11:02.006Z</time></trkpt><trkpt lat="35.1693867" lon="-6.1442817"><ele>45.5</ele><time>2026-04-27T16:11:03.006Z</time></trkpt><trkpt lat="35.1695183" lon="-6.144295"><ele>45.75</ele><time>2026-04-27T16:11:04.006Z</time></trkpt><trkpt lat="35.1696483" lon="-6.1443033"><ele>46.0</ele><time>2026-04-27T16:11:05.006Z</time></trkpt><trkpt lat="35.16978" lon="-6.1443167"><ele>46.0</ele><time>2026-04-27T16:11:06.006Z</time></trkpt><trkpt lat="35.1699133" lon="-6.1443217"><ele>46.0</ele><time>2026-04-27T16:11:07.006Z</time></trkpt><trkpt lat="35.17004" lon="-6.1443333"><ele>46.0</ele><time>2026-04-27T16:11:08.006Z</time></trkpt><trkpt lat="35.1701617" lon="-6.1443467"><ele>46.0</ele><time>2026-04-27T16:11:09.006Z</time></trkpt><trkpt lat="35.1702767" lon="-6.14436"><ele>46.0</ele><time>2026-04-27T16:11:10.005Z</time></trkpt><trkpt lat="35.1703917" lon="-6.14437"><ele>46.0</ele><time>2026-04-27T16:11:11.006Z</time></trkpt><trkpt lat="35.1705067" lon="-6.1443833"><ele>46.0</ele><time>2026-04-27T16:11:12.006Z</time></trkpt><trkpt lat="35.170615" lon="-6.144395"><ele>46.0</ele><time>2026-04-27T16:11:13.006Z</time></trkpt><trkpt lat="35.1707167" lon="-6.1444033"><ele>46.0</ele><time>2026-04-27T16:11:14.006Z</time></trkpt><trkpt lat="35.1708133" lon="-6.1444083"><ele>46.599999999999994</ele><time>2026-04-27T16:11:15.005Z</time></trkpt><trkpt lat="35.17091" lon="-6.1444033"><ele>47.2</ele><time>2026-04-27T16:11:16.006Z</time></trkpt><trkpt lat="35.171015" lon="-6.1444"><ele>47.8</ele><time>2026-04-27T16:11:17.006Z</time></trkpt><trkpt lat="35.171115" lon="-6.1443983"><ele>48.400000000000006</ele><time>2026-04-27T16:11:18.006Z</time></trkpt><trkpt lat="35.1712167" lon="-6.1444067"><ele>49.0</ele><time>2026-04-27T16:11:19.006Z</time></trkpt><trkpt lat="35.1713117" lon="-6.1444167"><ele>48.99999999999999</ele><time>2026-04-27T16:11:20.006Z</time></trkpt><trkpt lat="35.171395" lon="-6.1444317"><ele>49.0</ele><time>2026-04-27T16:11:21.006Z</time></trkpt><trkpt lat="35.1714833" lon="-6.1444383"><ele>49.0</ele><time>2026-04-27T16:11:22.005Z</time></trkpt><trkpt lat="35.17156" lon="-6.1444433"><ele>49.0</ele><time>2026-04-27T16:11:23.006Z</time></trkpt><trkpt lat="35.1716267" lon="-6.1444467"><ele>48.99999999999999</ele><time>2026-04-27T16:11:24.005Z</time></trkpt><trkpt lat="35.1717183" lon="-6.1444217"><ele>49.0</ele><time>2026-04-27T16:11:26.006Z</time></trkpt><trkpt lat="35.1717933" lon="-6.14439"><ele>48.6</ele><time>2026-04-27T16:11:28.006Z</time></trkpt><trkpt lat="35.1718567" lon="-6.14438"><ele>48.2</ele><time>2026-04-27T16:11:31.005Z</time></trkpt><trkpt lat="35.1719333" lon="-6.1444033"><ele>47.800000000000004</ele><time>2026-04-27T16:11:33.005Z</time></trkpt><trkpt lat="35.172045" lon="-6.1444683"><ele>47.400000000000006</ele><time>2026-04-27T16:11:35.005Z</time></trkpt><trkpt lat="35.17218" lon="-6.1445067"><ele>47.0</ele><time>2026-04-27T16:11:37.005Z</time></trkpt><trkpt lat="35.1722617" lon="-6.1445217"><ele>47.0</ele><time>2026-04-27T16:11:38.006Z</time></trkpt><trkpt lat="35.172355" lon="-6.1445317"><ele>47.0</ele><time>2026-04-27T16:11:39.006Z</time></trkpt><trkpt lat="35.1724583" lon="-6.1445417"><ele>47.0</ele><time>2026-04-27T16:11:40.006Z</time></trkpt><trkpt lat="35.1725667" lon="-6.1445567"><ele>47.0</ele><time>2026-04-27T16:11:41.006Z</time></trkpt><trkpt lat="35.172675" lon="-6.1445717"><ele>47.0</ele><time>2026-04-27T16:11:42.006Z</time></trkpt><trkpt lat="35.172785" lon="-6.1445833"><ele>47.0</ele><time>2026-04-27T16:11:43.005Z</time></trkpt><trkpt lat="35.1728967" lon="-6.144595"><ele>47.0</ele><time>2026-04-27T16:11:44.006Z</time></trkpt><trkpt lat="35.17301" lon="-6.1446083"><ele>47.0</ele><time>2026-04-27T16:11:45.006Z</time></trkpt><trkpt lat="35.1731317" lon="-6.1446233"><ele>47.0</ele><time>2026-04-27T16:11:46.006Z</time></trkpt><trkpt lat="35.1732567" lon="-6.1446383"><ele>47.0</ele><time>2026-04-27T16:11:47.006Z</time></trkpt><trkpt lat="35.1733833" lon="-6.144655"><ele>47.0</ele><time>2026-04-27T16:11:48.006Z</time></trkpt><trkpt lat="35.17351" lon="-6.1446717"><ele>47.0</ele><time>2026-04-27T16:11:49.006Z</time></trkpt><trkpt lat="35.1736417" lon="-6.1446883"><ele>47.0</ele><time>2026-04-27T16:11:50.006Z</time></trkpt><trkpt lat="35.17377" lon="-6.1447017"><ele>47.0</ele><time>2026-04-27T16:11:51.006Z</time></trkpt><trkpt lat="35.1738933" lon="-6.1447083"><ele>47.0</ele><time>2026-04-27T16:11:52.006Z</time></trkpt><trkpt lat="35.17401" lon="-6.1447167"><ele>47.0</ele><time>2026-04-27T16:11:53.006Z</time></trkpt><trkpt lat="35.1741217" lon="-6.1447267"><ele>47.0</ele><time>2026-04-27T16:11:54.006Z</time></trkpt><trkpt lat="35.1742267" lon="-6.1447383"><ele>47.0</ele><time>2026-04-27T16:11:55.006Z</time></trkpt><trkpt lat="35.1743267" lon="-6.1447533"><ele>47.0</ele><time>2026-04-27T16:11:56.005Z</time></trkpt><trkpt lat="35.1744233" lon="-6.14476"><ele>47.0</ele><time>2026-04-27T16:11:57.004Z</time></trkpt><trkpt lat="35.1745167" lon="-6.144765"><ele>47.0</ele><time>2026-04-27T16:11:58.005Z</time></trkpt><trkpt lat="35.1746033" lon="-6.1447733"><ele>47.0</ele><time>2026-04-27T16:11:59.005Z</time></trkpt><trkpt lat="35.174695" lon="-6.1447733"><ele>47.0</ele><time>2026-04-27T16:12:00.005Z</time></trkpt><trkpt lat="35.1747917" lon="-6.14478"><ele>47.0</ele><time>2026-04-27T16:12:01.005Z</time></trkpt><trkpt lat="35.17489" lon="-6.14479"><ele>47.0</ele><time>2026-04-27T16:12:02.005Z</time></trkpt><trkpt lat="35.1749883" lon="-6.1447983"><ele>47.0</ele><time>2026-04-27T16:12:03.005Z</time></trkpt><trkpt lat="35.1750867" lon="-6.14481"><ele>47.0</ele><time>2026-04-27T16:12:04.005Z</time></trkpt><trkpt lat="35.1751833" lon="-6.1448217"><ele>47.0</ele><time>2026-04-27T16:12:05.005Z</time></trkpt><trkpt lat="35.17528" lon="-6.1448333"><ele>47.0</ele><time>2026-04-27T16:12:06.005Z</time></trkpt><trkpt lat="35.17538" lon="-6.1448433"><ele>47.0</ele><time>2026-04-27T16:12:07.005Z</time></trkpt><trkpt lat="35.175475" lon="-6.144855"><ele>47.0</ele><time>2026-04-27T16:12:08.005Z</time></trkpt><trkpt lat="35.1755683" lon="-6.1448633"><ele>47.0</ele><time>2026-04-27T16:12:09.005Z</time></trkpt><trkpt lat="35.17566" lon="-6.1448717"><ele>47.0</ele><time>2026-04-27T16:12:10.005Z</time></trkpt><trkpt lat="35.17575" lon="-6.1448817"><ele>47.0</ele><time>2026-04-27T16:12:11.005Z</time></trkpt><trkpt lat="35.17584" lon="-6.14489"><ele>47.0</ele><time>2026-04-27T16:12:12.005Z</time></trkpt><trkpt lat="35.17593" lon="-6.1448967"><ele>47.0</ele><time>2026-04-27T16:12:13.005Z</time></trkpt><trkpt lat="35.17602" lon="-6.144905"><ele>47.0</ele><time>2026-04-27T16:12:14.005Z</time></trkpt><trkpt lat="35.176105" lon="-6.1449133"><ele>47.0</ele><time>2026-04-27T16:12:15.005Z</time></trkpt><trkpt lat="35.1761883" lon="-6.14492"><ele>47.0</ele><time>2026-04-27T16:12:16.005Z</time></trkpt><trkpt lat="35.1762667" lon="-6.14492"><ele>47.0</ele><time>2026-04-27T16:12:17.005Z</time></trkpt><trkpt lat="35.176345" lon="-6.1449167"><ele>47.0</ele><time>2026-04-27T16:12:18.005Z</time></trkpt><trkpt lat="35.176415" lon="-6.1449183"><ele>47.0</ele><time>2026-04-27T16:12:19.005Z</time></trkpt><trkpt lat="35.1764917" lon="-6.1449183"><ele>47.0</ele><time>2026-04-27T16:12:20.005Z</time></trkpt><trkpt lat="35.1765683" lon="-6.1449333"><ele>47.0</ele><time>2026-04-27T16:12:21.005Z</time></trkpt><trkpt lat="35.1766567" lon="-6.14495"><ele>47.166666666666664</ele><time>2026-04-27T16:12:22.005Z</time></trkpt><trkpt lat="35.1767517" lon="-6.14496"><ele>47.33333333333333</ele><time>2026-04-27T16:12:23.005Z</time></trkpt><trkpt lat="35.1768433" lon="-6.1449717"><ele>47.5</ele><time>2026-04-27T16:12:24.005Z</time></trkpt><trkpt lat="35.1769267" lon="-6.144985"><ele>47.666666666666664</ele><time>2026-04-27T16:12:25.004Z</time></trkpt><trkpt lat="35.1770017" lon="-6.1450017"><ele>47.833333333333336</ele><time>2026-04-27T16:12:26.005Z</time></trkpt><trkpt lat="35.1770783" lon="-6.1450133"><ele>48.0</ele><time>2026-04-27T16:12:27.005Z</time></trkpt><trkpt lat="35.1771517" lon="-6.1450233"><ele>48.0</ele><time>2026-04-27T16:12:28.005Z</time></trkpt><trkpt lat="35.1772317" lon="-6.1450283"><ele>48.0</ele><time>2026-04-27T16:12:29.005Z</time></trkpt><trkpt lat="35.1773133" lon="-6.1450317"><ele>48.0</ele><time>2026-04-27T16:12:30.005Z</time></trkpt><trkpt lat="35.177395" lon="-6.1450367"><ele>48.0</ele><time>2026-04-27T16:12:31.005Z</time></trkpt><trkpt lat="35.177485" lon="-6.1450483"><ele>48.0</ele><time>2026-04-27T16:12:32.005Z</time></trkpt><trkpt lat="35.1775817" lon="-6.145055"><ele>48.0</ele><time>2026-04-27T16:12:33.005Z</time></trkpt><trkpt lat="35.1776767" lon="-6.1450583"><ele>47.599999999999994</ele><time>2026-04-27T16:12:34.005Z</time></trkpt><trkpt lat="35.1777733" lon="-6.1450667"><ele>47.199999999999996</ele><time>2026-04-27T16:12:35.005Z</time></trkpt><trkpt lat="35.17787" lon="-6.14509"><ele>46.8</ele><time>2026-04-27T16:12:36.005Z</time></trkpt><trkpt lat="35.17796" lon="-6.14511"><ele>46.4</ele><time>2026-04-27T16:12:37.005Z</time></trkpt><trkpt lat="35.1780517" lon="-6.145115"><ele>46.0</ele><time>2026-04-27T16:12:38.005Z</time></trkpt><trkpt lat="35.1781417" lon="-6.1451167"><ele>46.199999999999996</ele><time>2026-04-27T16:12:39.005Z</time></trkpt><trkpt lat="35.178245" lon="-6.145125"><ele>46.4</ele><time>2026-04-27T16:12:40.004Z</time></trkpt><trkpt lat="35.1783467" lon="-6.1451367"><ele>46.6</ele><time>2026-04-27T16:12:41.004Z</time></trkpt><trkpt lat="35.1784483" lon="-6.1451433"><ele>46.8</ele><time>2026-04-27T16:12:42.005Z</time></trkpt><trkpt lat="35.1785583" lon="-6.1451433"><ele>47.0</ele><time>2026-04-27T16:12:43.005Z</time></trkpt><trkpt lat="35.178665" lon="-6.1451533"><ele>47.0</ele><time>2026-04-27T16:12:44.005Z</time></trkpt><trkpt lat="35.1787683" lon="-6.1451617"><ele>47.0</ele><time>2026-04-27T16:12:45.004Z</time></trkpt><trkpt lat="35.1788783" lon="-6.1451733"><ele>47.0</ele><time>2026-04-27T16:12:46.005Z</time></trkpt><trkpt lat="35.178995" lon="-6.1451817"><ele>47.0</ele><time>2026-04-27T16:12:47.005Z</time></trkpt><trkpt lat="35.1791117" lon="-6.145185"><ele>47.0</ele><time>2026-04-27T16:12:48.005Z</time></trkpt><trkpt lat="35.179225" lon="-6.1451817"><ele>47.2</ele><time>2026-04-27T16:12:49.005Z</time></trkpt><trkpt lat="35.17933" lon="-6.1451883"><ele>47.400000000000006</ele><time>2026-04-27T16:12:50.005Z</time></trkpt><trkpt lat="35.1794333" lon="-6.1451933"><ele>47.599999999999994</ele><time>2026-04-27T16:12:51.005Z</time></trkpt><trkpt lat="35.1795367" lon="-6.1452183"><ele>47.8</ele><time>2026-04-27T16:12:52.005Z</time></trkpt><trkpt lat="35.1796317" lon="-6.145225"><ele>48.0</ele><time>2026-04-27T16:12:53.005Z</time></trkpt><trkpt lat="35.1797233" lon="-6.14525"><ele>48.0</ele><time>2026-04-27T16:12:54.005Z</time></trkpt><trkpt lat="35.1798167" lon="-6.145275"><ele>48.0</ele><time>2026-04-27T16:12:55.005Z</time></trkpt><trkpt lat="35.1799133" lon="-6.1453117"><ele>48.0</ele><time>2026-04-27T16:12:56.005Z</time></trkpt><trkpt lat="35.1800117" lon="-6.1453517"><ele>48.0</ele><time>2026-04-27T16:12:57.005Z</time></trkpt><trkpt lat="35.1801067" lon="-6.1454067"><ele>48.0</ele><time>2026-04-27T16:12:58.005Z</time></trkpt><trkpt lat="35.1802" lon="-6.14545"><ele>48.166666666666664</ele><time>2026-04-27T16:12:59.005Z</time></trkpt><trkpt lat="35.180285" lon="-6.14549"><ele>48.33333333333333</ele><time>2026-04-27T16:13:00.004Z</time></trkpt><trkpt lat="35.1803583" lon="-6.14552"><ele>48.5</ele><time>2026-04-27T16:13:01.005Z</time></trkpt><trkpt lat="35.18042" lon="-6.1455467"><ele>48.666666666666664</ele><time>2026-04-27T16:13:02.005Z</time></trkpt><trkpt lat="35.1804833" lon="-6.14558"><ele>48.83333333333333</ele><time>2026-04-27T16:13:04.005Z</time></trkpt><trkpt lat="35.18057" lon="-6.1456117"><ele>49.0</ele><time>2026-04-27T16:13:08.005Z</time></trkpt><trkpt lat="35.1806433" lon="-6.1456383"><ele>48.83333333333333</ele><time>2026-04-27T16:13:10.005Z</time></trkpt><trkpt lat="35.1807367" lon="-6.1456867"><ele>48.666666666666664</ele><time>2026-04-27T16:13:12.005Z</time></trkpt><trkpt lat="35.1807983" lon="-6.1457083"><ele>48.5</ele><time>2026-04-27T16:13:13.005Z</time></trkpt><trkpt lat="35.1808617" lon="-6.1457333"><ele>48.33333333333333</ele><time>2026-04-27T16:13:14.004Z</time></trkpt><trkpt lat="35.180935" lon="-6.1457483"><ele>48.166666666666664</ele><time>2026-04-27T16:13:15.005Z</time></trkpt><trkpt lat="35.181015" lon="-6.1457767"><ele>48.0</ele><time>2026-04-27T16:13:16.005Z</time></trkpt><trkpt lat="35.1811" lon="-6.1458"><ele>48.0</ele><time>2026-04-27T16:13:17.005Z</time></trkpt><trkpt lat="35.1811833" lon="-6.14582"><ele>48.0</ele><time>2026-04-27T16:13:18.005Z</time></trkpt><trkpt lat="35.1812733" lon="-6.1458333"><ele>48.0</ele><time>2026-04-27T16:13:19.005Z</time></trkpt><trkpt lat="35.1813667" lon="-6.1458433"><ele>48.0</ele><time>2026-04-27T16:13:20.005Z</time></trkpt><trkpt lat="35.1814567" lon="-6.1458433"><ele>48.0</ele><time>2026-04-27T16:13:21.005Z</time></trkpt><trkpt lat="35.18155" lon="-6.1458583"><ele>48.0</ele><time>2026-04-27T16:13:22.005Z</time></trkpt><trkpt lat="35.1816467" lon="-6.1458783"><ele>48.0</ele><time>2026-04-27T16:13:23.005Z</time></trkpt><trkpt lat="35.1817483" lon="-6.145895"><ele>48.0</ele><time>2026-04-27T16:13:24.005Z</time></trkpt><trkpt lat="35.1818483" lon="-6.1459083"><ele>48.0</ele><time>2026-04-27T16:13:25.005Z</time></trkpt><trkpt lat="35.1819533" lon="-6.14592"><ele>48.0</ele><time>2026-04-27T16:13:26.005Z</time></trkpt><trkpt lat="35.182065" lon="-6.1459317"><ele>48.0</ele><time>2026-04-27T16:13:27.005Z</time></trkpt><trkpt lat="35.1821667" lon="-6.1459417"><ele>48.0</ele><time>2026-04-27T16:13:28.004Z</time></trkpt><trkpt lat="35.1822583" lon="-6.1459533"><ele>48.0</ele><time>2026-04-27T16:13:29.005Z</time></trkpt><trkpt lat="35.182355" lon="-6.1459617"><ele>48.0</ele><time>2026-04-27T16:13:30.005Z</time></trkpt><trkpt lat="35.1824433" lon="-6.145975"><ele>48.0</ele><time>2026-04-27T16:13:31.005Z</time></trkpt><trkpt lat="35.1825317" lon="-6.1459883"><ele>47.8</ele><time>2026-04-27T16:13:32.005Z</time></trkpt><trkpt lat="35.1826217" lon="-6.1459967"><ele>47.599999999999994</ele><time>2026-04-27T16:13:33.005Z</time></trkpt><trkpt lat="35.1827167" lon="-6.1460033"><ele>47.400000000000006</ele><time>2026-04-27T16:13:34.005Z</time></trkpt><trkpt lat="35.18281" lon="-6.1460133"><ele>47.2</ele><time>2026-04-27T16:13:35.005Z</time></trkpt><trkpt lat="35.1828983" lon="-6.14602"><ele>47.0</ele><time>2026-04-27T16:13:36.005Z</time></trkpt><trkpt lat="35.1829933" lon="-6.1460233"><ele>47.0</ele><time>2026-04-27T16:13:37.005Z</time></trkpt><trkpt lat="35.183085" lon="-6.1460317"><ele>47.0</ele><time>2026-04-27T16:13:38.005Z</time></trkpt><trkpt lat="35.1831767" lon="-6.1460383"><ele>47.0</ele><time>2026-04-27T16:13:39.005Z</time></trkpt><trkpt lat="35.1832733" lon="-6.14605"><ele>47.0</ele><time>2026-04-27T16:13:40.005Z</time></trkpt><trkpt lat="35.18337" lon="-6.1460583"><ele>47.0</ele><time>2026-04-27T16:13:41.005Z</time></trkpt><trkpt lat="35.18347" lon="-6.146065"><ele>47.25</ele><time>2026-04-27T16:13:42.005Z</time></trkpt><trkpt lat="35.1835733" lon="-6.1460783"><ele>47.5</ele><time>2026-04-27T16:13:43.005Z</time></trkpt><trkpt lat="35.1836883" lon="-6.1460917"><ele>47.75</ele><time>2026-04-27T16:13:44.004Z</time></trkpt><trkpt lat="35.1838167" lon="-6.146105"><ele>48.0</ele><time>2026-04-27T16:13:45.004Z</time></trkpt><trkpt lat="35.1839417" lon="-6.1461233"><ele>49.0</ele><time>2026-04-27T16:13:46.005Z</time></trkpt><trkpt lat="35.1840667" lon="-6.14614"><ele>50.0</ele><time>2026-04-27T16:13:47.005Z</time></trkpt><trkpt lat="35.1841917" lon="-6.146155"><ele>51.0</ele><time>2026-04-27T16:13:48.005Z</time></trkpt><trkpt lat="35.18432" lon="-6.1461617"><ele>52.0</ele><time>2026-04-27T16:13:49.004Z</time></trkpt><trkpt lat="35.1844483" lon="-6.1461717"><ele>52.0</ele><time>2026-04-27T16:13:50.005Z</time></trkpt><trkpt lat="35.18457" lon="-6.146185"><ele>52.0</ele><time>2026-04-27T16:13:51.005Z</time></trkpt><trkpt lat="35.18469" lon="-6.1461983"><ele>52.0</ele><time>2026-04-27T16:13:52.005Z</time></trkpt><trkpt lat="35.1848117" lon="-6.1462167"><ele>52.0</ele><time>2026-04-27T16:13:53.005Z</time></trkpt><trkpt lat="35.184925" lon="-6.1462367"><ele>52.8</ele><time>2026-04-27T16:13:54.005Z</time></trkpt><trkpt lat="35.1850333" lon="-6.14625"><ele>53.6</ele><time>2026-04-27T16:13:55.005Z</time></trkpt><trkpt lat="35.185145" lon="-6.1462717"><ele>54.39999999999999</ele><time>2026-04-27T16:13:56.004Z</time></trkpt><trkpt lat="35.185255" lon="-6.1463083"><ele>55.199999999999996</ele><time>2026-04-27T16:13:57.005Z</time></trkpt><trkpt lat="35.1853567" lon="-6.1463483"><ele>56.0</ele><time>2026-04-27T16:13:58.005Z</time></trkpt><trkpt lat="35.1854567" lon="-6.1463833"><ele>56.0</ele><time>2026-04-27T16:13:59.005Z</time></trkpt><trkpt lat="35.1855483" lon="-6.14642"><ele>55.99999999999999</ele><time>2026-04-27T16:14:00.005Z</time></trkpt><trkpt lat="35.1856367" lon="-6.146455"><ele>55.99999999999999</ele><time>2026-04-27T16:14:01.005Z</time></trkpt><trkpt lat="35.1857217" lon="-6.1464883"><ele>56.0</ele><time>2026-04-27T16:14:02.005Z</time></trkpt><trkpt lat="35.185805" lon="-6.1465183"><ele>56.0</ele><time>2026-04-27T16:14:03.005Z</time></trkpt><trkpt lat="35.18589" lon="-6.1465467"><ele>55.833333333333336</ele><time>2026-04-27T16:14:04.005Z</time></trkpt><trkpt lat="35.1859717" lon="-6.146575"><ele>55.66666666666667</ele><time>2026-04-27T16:14:05.005Z</time></trkpt><trkpt lat="35.1860483" lon="-6.146605"><ele>55.5</ele><time>2026-04-27T16:14:06.005Z</time></trkpt><trkpt lat="35.1861167" lon="-6.1466333"><ele>55.33333333333333</ele><time>2026-04-27T16:14:07.005Z</time></trkpt><trkpt lat="35.1862217" lon="-6.1466733"><ele>55.166666666666664</ele><time>2026-04-27T16:14:09.005Z</time></trkpt><trkpt lat="35.18632" lon="-6.1467"><ele>55.0</ele><time>2026-04-27T16:14:11.005Z</time></trkpt><trkpt lat="35.1864133" lon="-6.1467267"><ele>55.0</ele><time>2026-04-27T16:14:13.005Z</time></trkpt><trkpt lat="35.1865017" lon="-6.1467967"><ele>55.0</ele><time>2026-04-27T16:14:15.005Z</time></trkpt><trkpt lat="35.1865767" lon="-6.1468867"><ele>55.0</ele><time>2026-04-27T16:14:17.004Z</time></trkpt><trkpt lat="35.186635" lon="-6.1469683"><ele>55.0</ele><time>2026-04-27T16:14:19.005Z</time></trkpt><trkpt lat="35.186725" lon="-6.1470317"><ele>55.0</ele><time>2026-04-27T16:14:21.005Z</time></trkpt><trkpt lat="35.1868317" lon="-6.1471017"><ele>54.83333333333333</ele><time>2026-04-27T16:14:23.004Z</time></trkpt><trkpt lat="35.18689" lon="-6.147135"><ele>54.666666666666664</ele><time>2026-04-27T16:14:24.005Z</time></trkpt><trkpt lat="35.1869517" lon="-6.1471733"><ele>54.5</ele><time>2026-04-27T16:14:25.004Z</time></trkpt><trkpt lat="35.18702" lon="-6.1472167"><ele>54.33333333333333</ele><time>2026-04-27T16:14:26.005Z</time></trkpt><trkpt lat="35.187095" lon="-6.147255"><ele>54.166666666666664</ele><time>2026-04-27T16:14:27.005Z</time></trkpt><trkpt lat="35.1871667" lon="-6.1472933"><ele>54.0</ele><time>2026-04-27T16:14:28.005Z</time></trkpt><trkpt lat="35.1872433" lon="-6.147345"><ele>54.0</ele><time>2026-04-27T16:14:29.005Z</time></trkpt><trkpt lat="35.187315" lon="-6.1474017"><ele>54.00000000000001</ele><time>2026-04-27T16:14:30.005Z</time></trkpt><trkpt lat="35.1873967" lon="-6.1474633"><ele>54.00000000000001</ele><time>2026-04-27T16:14:31.005Z</time></trkpt><trkpt lat="35.1874867" lon="-6.14753"><ele>54.0</ele><time>2026-04-27T16:14:32.005Z</time></trkpt><trkpt lat="35.18758" lon="-6.1475783"><ele>54.0</ele><time>2026-04-27T16:14:33.005Z</time></trkpt><trkpt lat="35.1876717" lon="-6.1476233"><ele>53.5</ele><time>2026-04-27T16:14:34.005Z</time></trkpt><trkpt lat="35.187765" lon="-6.1476733"><ele>53.0</ele><time>2026-04-27T16:14:35.005Z</time></trkpt><trkpt lat="35.18785" lon="-6.14772"><ele>52.5</ele><time>2026-04-27T16:14:36.005Z</time></trkpt><trkpt lat="35.1879317" lon="-6.14776"><ele>52.0</ele><time>2026-04-27T16:14:37.005Z</time></trkpt><trkpt lat="35.18801" lon="-6.14779"><ele>51.5</ele><time>2026-04-27T16:14:38.005Z</time></trkpt><trkpt lat="35.18809" lon="-6.1478133"><ele>51.0</ele><time>2026-04-27T16:14:39.005Z</time></trkpt><trkpt lat="35.1881633" lon="-6.147855"><ele>51.166666666666664</ele><time>2026-04-27T16:14:40.005Z</time></trkpt><trkpt lat="35.1882367" lon="-6.1478933"><ele>51.33333333333333</ele><time>2026-04-27T16:14:41.005Z</time></trkpt><trkpt lat="35.188315" lon="-6.1479317"><ele>51.5</ele><time>2026-04-27T16:14:42.005Z</time></trkpt><trkpt lat="35.188385" lon="-6.1479733"><ele>51.666666666666664</ele><time>2026-04-27T16:14:43.005Z</time></trkpt><trkpt lat="35.1884483" lon="-6.1480117"><ele>51.83333333333333</ele><time>2026-04-27T16:14:44.005Z</time></trkpt><trkpt lat="35.1885067" lon="-6.148045"><ele>52.0</ele><time>2026-04-27T16:14:45.005Z</time></trkpt><trkpt lat="35.1885717" lon="-6.1480867"><ele>52.0</ele><time>2026-04-27T16:14:46.005Z</time></trkpt><trkpt lat="35.1886367" lon="-6.14812"><ele>52.0</ele><time>2026-04-27T16:14:47.005Z</time></trkpt><trkpt lat="35.18871" lon="-6.1481517"><ele>52.0</ele><time>2026-04-27T16:14:48.005Z</time></trkpt><trkpt lat="35.18878" lon="-6.148185"><ele>52.0</ele><time>2026-04-27T16:14:49.005Z</time></trkpt><trkpt lat="35.1888417" lon="-6.148205"><ele>52.0</ele><time>2026-04-27T16:14:50.005Z</time></trkpt><trkpt lat="35.1889133" lon="-6.1482267"><ele>52.0</ele><time>2026-04-27T16:14:53.005Z</time></trkpt><trkpt lat="35.1889833" lon="-6.1482367"><ele>52.0</ele><time>2026-04-27T16:14:56.005Z</time></trkpt><trkpt lat="35.1890783" lon="-6.14827"><ele>51.99999999999999</ele><time>2026-04-27T16:14:59.005Z</time></trkpt><trkpt lat="35.1891817" lon="-6.1483083"><ele>52.0</ele><time>2026-04-27T16:15:01.005Z</time></trkpt><trkpt lat="35.1892483" lon="-6.1483267"><ele>52.0</ele><time>2026-04-27T16:15:02.005Z</time></trkpt><trkpt lat="35.1893133" lon="-6.1483533"><ele>52.0</ele><time>2026-04-27T16:15:03.005Z</time></trkpt><trkpt lat="35.18939" lon="-6.1483683"><ele>51.99999999999999</ele><time>2026-04-27T16:15:04.005Z</time></trkpt><trkpt lat="35.1894733" lon="-6.148385"><ele>52.0</ele><time>2026-04-27T16:15:05.005Z</time></trkpt><trkpt lat="35.18956" lon="-6.1484033"><ele>51.99999999999999</ele><time>2026-04-27T16:15:06.005Z</time></trkpt><trkpt lat="35.1896567" lon="-6.14841"><ele>52.0</ele><time>2026-04-27T16:15:07.005Z</time></trkpt><trkpt lat="35.1897483" lon="-6.1484083"><ele>52.0</ele><time>2026-04-27T16:15:08.004Z</time></trkpt><trkpt lat="35.1898333" lon="-6.1484033"><ele>52.0</ele><time>2026-04-27T16:15:09.005Z</time></trkpt><trkpt lat="35.1899083" lon="-6.1483917"><ele>51.99999999999999</ele><time>2026-04-27T16:15:10.005Z</time></trkpt><trkpt lat="35.1899783" lon="-6.14838"><ele>52.0</ele><time>2026-04-27T16:15:11.005Z</time></trkpt><trkpt lat="35.19005" lon="-6.1483617"><ele>51.33333333333333</ele><time>2026-04-27T16:15:12.005Z</time></trkpt><trkpt lat="35.1901217" lon="-6.1483417"><ele>50.666666666666664</ele><time>2026-04-27T16:15:13.005Z</time></trkpt><trkpt lat="35.1901883" lon="-6.148325"><ele>50.0</ele><time>2026-04-27T16:15:14.004Z</time></trkpt><trkpt lat="35.1902633" lon="-6.1482933"><ele>49.33333333333333</ele><time>2026-04-27T16:15:15.005Z</time></trkpt><trkpt lat="35.1903417" lon="-6.148265"><ele>48.666666666666664</ele><time>2026-04-27T16:15:16.004Z</time></trkpt><trkpt lat="35.190425" lon="-6.1482367"><ele>48.0</ele><time>2026-04-27T16:15:17.005Z</time></trkpt><trkpt lat="35.19051" lon="-6.148205"><ele>47.0</ele><time>2026-04-27T16:15:18.004Z</time></trkpt><trkpt lat="35.1906" lon="-6.1481733"><ele>46.0</ele><time>2026-04-27T16:15:19.005Z</time></trkpt><trkpt lat="35.190695" lon="-6.1481417"><ele>45.0</ele><time>2026-04-27T16:15:20.005Z</time></trkpt><trkpt lat="35.190785" lon="-6.148105"><ele>44.0</ele><time>2026-04-27T16:15:21.005Z</time></trkpt><trkpt lat="35.1908833" lon="-6.1480733"><ele>43.0</ele><time>2026-04-27T16:15:22.005Z</time></trkpt><trkpt lat="35.1909783" lon="-6.1480483"><ele>41.4</ele><time>2026-04-27T16:15:23.005Z</time></trkpt><trkpt lat="35.19108" lon="-6.1480233"><ele>39.8</ele><time>2026-04-27T16:15:24.004Z</time></trkpt><trkpt lat="35.1911767" lon="-6.1479967"><ele>38.2</ele><time>2026-04-27T16:15:25.005Z</time></trkpt><trkpt lat="35.1912733" lon="-6.14797"><ele>36.6</ele><time>2026-04-27T16:15:26.005Z</time></trkpt><trkpt lat="35.191365" lon="-6.1479433"><ele>35.0</ele><time>2026-04-27T16:15:27.004Z</time></trkpt><trkpt lat="35.1914567" lon="-6.1479167"><ele>34.2</ele><time>2026-04-27T16:15:28.005Z</time></trkpt><trkpt lat="35.1915483" lon="-6.14789"><ele>33.4</ele><time>2026-04-27T16:15:29.005Z</time></trkpt><trkpt lat="35.19164" lon="-6.14786"><ele>32.6</ele><time>2026-04-27T16:15:30.005Z</time></trkpt><trkpt lat="35.19173" lon="-6.1478217"><ele>31.8</ele><time>2026-04-27T16:15:31.004Z</time></trkpt><trkpt lat="35.19182" lon="-6.1477933"><ele>31.0</ele><time>2026-04-27T16:15:32.005Z</time></trkpt><trkpt lat="35.1919067" lon="-6.1477667"><ele>31.000000000000004</ele><time>2026-04-27T16:15:33.005Z</time></trkpt><trkpt lat="35.191995" lon="-6.1477433"><ele>31.0</ele><time>2026-04-27T16:15:34.005Z</time></trkpt><trkpt lat="35.1920783" lon="-6.147715"><ele>31.0</ele><time>2026-04-27T16:15:35.005Z</time></trkpt><trkpt lat="35.1921683" lon="-6.1476883"><ele>31.0</ele><time>2026-04-27T16:15:36.005Z</time></trkpt><trkpt lat="35.192255" lon="-6.147655"><ele>31.000000000000004</ele><time>2026-04-27T16:15:37.004Z</time></trkpt><trkpt lat="35.19234" lon="-6.1476367"><ele>31.0</ele><time>2026-04-27T16:15:38.005Z</time></trkpt><trkpt lat="35.192425" lon="-6.1476167"><ele>31.200000000000003</ele><time>2026-04-27T16:15:39.005Z</time></trkpt><trkpt lat="35.192505" lon="-6.14759"><ele>31.400000000000002</ele><time>2026-04-27T16:15:40.005Z</time></trkpt><trkpt lat="35.192595" lon="-6.1475567"><ele>31.6</ele><time>2026-04-27T16:15:41.005Z</time></trkpt><trkpt lat="35.1926983" lon="-6.1475217"><ele>31.8</ele><time>2026-04-27T16:15:42.005Z</time></trkpt><trkpt lat="35.1928033" lon="-6.14749"><ele>32.0</ele><time>2026-04-27T16:15:43.005Z</time></trkpt><trkpt lat="35.1929017" lon="-6.1474617"><ele>32.0</ele><time>2026-04-27T16:15:44.005Z</time></trkpt><trkpt lat="35.1930017" lon="-6.14742"><ele>32.0</ele><time>2026-04-27T16:15:45.005Z</time></trkpt><trkpt lat="35.1931033" lon="-6.1473733"><ele>32.0</ele><time>2026-04-27T16:15:46.005Z</time></trkpt><trkpt lat="35.1932" lon="-6.1473167"><ele>32.0</ele><time>2026-04-27T16:15:47.005Z</time></trkpt><trkpt lat="35.1932883" lon="-6.1472417"><ele>32.0</ele><time>2026-04-27T16:15:48.005Z</time></trkpt><trkpt lat="35.1933683" lon="-6.14716"><ele>30.0</ele><time>2026-04-27T16:15:49.005Z</time></trkpt><trkpt lat="35.1934433" lon="-6.1470817"><ele>28.000000000000004</ele><time>2026-04-27T16:15:50.005Z</time></trkpt><trkpt lat="35.193515" lon="-6.146985"><ele>26.0</ele><time>2026-04-27T16:15:51.004Z</time></trkpt><trkpt lat="35.193585" lon="-6.1468917"><ele>24.0</ele><time>2026-04-27T16:15:52.005Z</time></trkpt><trkpt lat="35.193655" lon="-6.1468"><ele>22.0</ele><time>2026-04-27T16:15:53.004Z</time></trkpt><trkpt lat="35.19372" lon="-6.1467067"><ele>22.0</ele><time>2026-04-27T16:15:54.004Z</time></trkpt><trkpt lat="35.193785" lon="-6.14661"><ele>22.0</ele><time>2026-04-27T16:15:55.005Z</time></trkpt><trkpt lat="35.19385" lon="-6.14652"><ele>22.0</ele><time>2026-04-27T16:15:56.005Z</time></trkpt><trkpt lat="35.1939183" lon="-6.1464333"><ele>22.0</ele><time>2026-04-27T16:15:57.004Z</time></trkpt><trkpt lat="35.19399" lon="-6.1463417"><ele>22.0</ele><time>2026-04-27T16:15:58.004Z</time></trkpt><trkpt lat="35.1940633" lon="-6.1462517"><ele>19.0</ele><time>2026-04-27T16:15:59.005Z</time></trkpt><trkpt lat="35.1941367" lon="-6.1461617"><ele>16.0</ele><time>2026-04-27T16:16:00.005Z</time></trkpt><trkpt lat="35.1942017" lon="-6.1460683"><ele>13.0</ele><time>2026-04-27T16:16:01.005Z</time></trkpt><trkpt lat="35.19427" lon="-6.1459783"><ele>10.0</ele><time>2026-04-27T16:16:02.005Z</time></trkpt><trkpt lat="35.1943417" lon="-6.1458867"><ele>7.0</ele><time>2026-04-27T16:16:03.005Z</time></trkpt><trkpt lat="35.194415" lon="-6.1457983"><ele>6.6</ele><time>2026-04-27T16:16:04.005Z</time></trkpt><trkpt lat="35.1944833" lon="-6.14571"><ele>6.199999999999999</ele><time>2026-04-27T16:16:05.005Z</time></trkpt><trkpt lat="35.194555" lon="-6.1456233"><ele>5.8</ele><time>2026-04-27T16:16:06.005Z</time></trkpt><trkpt lat="35.1946267" lon="-6.1455417"><ele>5.4</ele><time>2026-04-27T16:16:07.005Z</time></trkpt><trkpt lat="35.1947" lon="-6.1454567"><ele>5.0</ele><time>2026-04-27T16:16:08.005Z</time></trkpt><trkpt lat="35.1947617" lon="-6.1453667"><ele>5.0</ele><time>2026-04-27T16:16:09.005Z</time></trkpt><trkpt lat="35.1948117" lon="-6.14527"><ele>5.0</ele><time>2026-04-27T16:16:10.005Z</time></trkpt><trkpt lat="35.194835" lon="-6.1451683"><ele>5.0</ele><time>2026-04-27T16:16:11.005Z</time></trkpt><trkpt lat="35.1948467" lon="-6.1450583"><ele>5.0</ele><time>2026-04-27T16:16:12.005Z</time></trkpt><trkpt lat="35.1948333" lon="-6.14494"><ele>5.0</ele><time>2026-04-27T16:16:13.004Z</time></trkpt><trkpt lat="35.1947917" lon="-6.1448367"><ele>4.8</ele><time>2026-04-27T16:16:14.005Z</time></trkpt><trkpt lat="35.19475" lon="-6.1447583"><ele>4.6</ele><time>2026-04-27T16:16:15.005Z</time></trkpt><trkpt lat="35.1946783" lon="-6.1446933"><ele>4.4</ele><time>2026-04-27T16:16:16.005Z</time></trkpt><trkpt lat="35.1945883" lon="-6.1446533"><ele>4.2</ele><time>2026-04-27T16:16:17.005Z</time></trkpt><trkpt lat="35.1944883" lon="-6.144615"><ele>4.0</ele><time>2026-04-27T16:16:18.005Z</time></trkpt><trkpt lat="35.1943883" lon="-6.1445783"><ele>4.0</ele><time>2026-04-27T16:16:19.005Z</time></trkpt><trkpt lat="35.1942917" lon="-6.1445483"><ele>4.0</ele><time>2026-04-27T16:16:20.004Z</time></trkpt><trkpt lat="35.194195" lon="-6.1445133"><ele>4.0</ele><time>2026-04-27T16:16:21.005Z</time></trkpt><trkpt lat="35.1941033" lon="-6.144485"><ele>4.0</ele><time>2026-04-27T16:16:22.005Z</time></trkpt><trkpt lat="35.1940167" lon="-6.1444617"><ele>4.0</ele><time>2026-04-27T16:16:23.005Z</time></trkpt><trkpt lat="35.193935" lon="-6.1444417"><ele>4.333333333333333</ele><time>2026-04-27T16:16:24.005Z</time></trkpt><trkpt lat="35.1938533" lon="-6.1444267"><ele>4.666666666666666</ele><time>2026-04-27T16:16:25.005Z</time></trkpt><trkpt lat="35.1937667" lon="-6.1444117"><ele>5.0</ele><time>2026-04-27T16:16:26.005Z</time></trkpt><trkpt lat="35.19368" lon="-6.144395"><ele>5.333333333333333</ele><time>2026-04-27T16:16:27.005Z</time></trkpt><trkpt lat="35.1936" lon="-6.1443817"><ele>5.666666666666667</ele><time>2026-04-27T16:16:28.005Z</time></trkpt><trkpt lat="35.1935233" lon="-6.1443933"><ele>6.0</ele><time>2026-04-27T16:16:29.005Z</time></trkpt><trkpt lat="35.193435" lon="-6.1443967"><ele>6.0</ele><time>2026-04-27T16:16:31.005Z</time></trkpt><trkpt lat="35.19333" lon="-6.1443717"><ele>6.0</ele><time>2026-04-27T16:16:52.004Z</time></trkpt><trkpt lat="35.193235" lon="-6.1443283"><ele>6.0</ele><time>2026-04-27T16:16:53.004Z</time></trkpt><trkpt lat="35.19313" lon="-6.1442833"><ele>6.0</ele><time>2026-04-27T16:16:54.003Z</time></trkpt><trkpt lat="35.1929983" lon="-6.1442267"><ele>5.5</ele><time>2026-04-27T16:16:55.004Z</time></trkpt><trkpt lat="35.1928683" lon="-6.1441633"><ele>5.0</ele><time>2026-04-27T16:16:56.004Z</time></trkpt><trkpt lat="35.1927417" lon="-6.1441017"><ele>4.5</ele><time>2026-04-27T16:16:57.004Z</time></trkpt><trkpt lat="35.1926283" lon="-6.1440433"><ele>4.0</ele><time>2026-04-27T16:16:58.003Z</time></trkpt><trkpt lat="35.1925267" lon="-6.1439867"><ele>3.8000000000000003</ele><time>2026-04-27T16:16:59.004Z</time></trkpt><trkpt lat="35.19243" lon="-6.1439383"><ele>3.6000000000000005</ele><time>2026-04-27T16:17:00.003Z</time></trkpt><trkpt lat="35.192345" lon="-6.1438783"><ele>3.4</ele><time>2026-04-27T16:17:01.004Z</time></trkpt><trkpt lat="35.192255" lon="-6.1438083"><ele>3.2</ele><time>2026-04-27T16:17:02.004Z</time></trkpt><trkpt lat="35.19217" lon="-6.1437367"><ele>3.0</ele><time>2026-04-27T16:17:03.004Z</time></trkpt><trkpt lat="35.1920767" lon="-6.1436717"><ele>3.0</ele><time>2026-04-27T16:17:04.004Z</time></trkpt><trkpt lat="35.19199" lon="-6.143585"><ele>3.0</ele><time>2026-04-27T16:17:05.004Z</time></trkpt><trkpt lat="35.1918983" lon="-6.1434933"><ele>3.0</ele><time>2026-04-27T16:17:06.004Z</time></trkpt><trkpt lat="35.1918" lon="-6.1434"><ele>3.0</ele><time>2026-04-27T16:17:07.004Z</time></trkpt><trkpt lat="35.1916867" lon="-6.143305"><ele>3.0</ele><time>2026-04-27T16:17:08.004Z</time></trkpt><trkpt lat="35.1915783" lon="-6.1431967"><ele>3.0</ele><time>2026-04-27T16:17:09.004Z</time></trkpt><trkpt lat="35.191475" lon="-6.1430867"><ele>3.0</ele><time>2026-04-27T16:17:10.004Z</time></trkpt><trkpt lat="35.19137" lon="-6.1429817"><ele>3.0</ele><time>2026-04-27T16:17:11.004Z</time></trkpt><trkpt lat="35.19127" lon="-6.1428667"><ele>3.5</ele><time>2026-04-27T16:17:12.004Z</time></trkpt><trkpt lat="35.1911867" lon="-6.1427417"><ele>4.0</ele><time>2026-04-27T16:17:13.004Z</time></trkpt><trkpt lat="35.1911117" lon="-6.1426083"><ele>4.5</ele><time>2026-04-27T16:17:14.004Z</time></trkpt><trkpt lat="35.19105" lon="-6.142455"><ele>5.0</ele><time>2026-04-27T16:17:15.004Z</time></trkpt><trkpt lat="35.1909983" lon="-6.1423033"><ele>5.0</ele><time>2026-04-27T16:17:16.004Z</time></trkpt><trkpt lat="35.19096" lon="-6.1421433"><ele>5.0</ele><time>2026-04-27T16:17:17.004Z</time></trkpt><trkpt lat="35.1909383" lon="-6.1419717"><ele>5.0</ele><time>2026-04-27T16:17:18.004Z</time></trkpt><trkpt lat="35.190925" lon="-6.1417967"><ele>5.0</ele><time>2026-04-27T16:17:19.004Z</time></trkpt><trkpt lat="35.1909317" lon="-6.1416183"><ele>4.0</ele><time>2026-04-27T16:17:20.004Z</time></trkpt><trkpt lat="35.1909483" lon="-6.1414383"><ele>3.0</ele><time>2026-04-27T16:17:21.004Z</time></trkpt><trkpt lat="35.19098" lon="-6.1412583"><ele>2.0</ele><time>2026-04-27T16:17:22.004Z</time></trkpt><trkpt lat="35.1910183" lon="-6.1410617"><ele>2.0</ele><time>2026-04-27T16:17:23.004Z</time></trkpt><trkpt lat="35.1910733" lon="-6.1408417"><ele>2.0</ele><time>2026-04-27T16:17:24.004Z</time></trkpt><trkpt lat="35.1911383" lon="-6.1406067"><ele>2.0</ele><time>2026-04-27T16:17:25.004Z</time></trkpt><trkpt lat="35.1912083" lon="-6.1403717"><ele>2.6666666666666665</ele><time>2026-04-27T16:17:26.004Z</time></trkpt><trkpt lat="35.1912733" lon="-6.14015"><ele>3.333333333333333</ele><time>2026-04-27T16:17:27.004Z</time></trkpt><trkpt lat="35.191325" lon="-6.1399433"><ele>4.0</ele><time>2026-04-27T16:17:28.004Z</time></trkpt><trkpt lat="35.1913717" lon="-6.139745"><ele>4.0</ele><time>2026-04-27T16:17:29.004Z</time></trkpt><trkpt lat="35.1914117" lon="-6.1395567"><ele>4.0</ele><time>2026-04-27T16:17:30.004Z</time></trkpt><trkpt lat="35.1914433" lon="-6.139375"><ele>4.0</ele><time>2026-04-27T16:17:31.004Z</time></trkpt><trkpt lat="35.1914717" lon="-6.1391983"><ele>4.25</ele><time>2026-04-27T16:17:32.004Z</time></trkpt><trkpt lat="35.1915017" lon="-6.139035"><ele>4.5</ele><time>2026-04-27T16:17:33.004Z</time></trkpt><trkpt lat="35.1915467" lon="-6.13887"><ele>4.75</ele><time>2026-04-27T16:17:34.004Z</time></trkpt><trkpt lat="35.1915983" lon="-6.1386967"><ele>5.0</ele><time>2026-04-27T16:17:35.004Z</time></trkpt><trkpt lat="35.19165" lon="-6.13852"><ele>5.0</ele><time>2026-04-27T16:17:36.004Z</time></trkpt><trkpt lat="35.1916917" lon="-6.138345"><ele>5.0</ele><time>2026-04-27T16:17:37.004Z</time></trkpt><trkpt lat="35.1917283" lon="-6.1381767"><ele>5.0</ele><time>2026-04-27T16:17:38.004Z</time></trkpt><trkpt lat="35.19177" lon="-6.13802"><ele>5.0</ele><time>2026-04-27T16:17:39.004Z</time></trkpt><trkpt lat="35.1918067" lon="-6.1378733"><ele>4.75</ele><time>2026-04-27T16:17:40.004Z</time></trkpt><trkpt lat="35.191845" lon="-6.137725"><ele>4.5</ele><time>2026-04-27T16:17:41.004Z</time></trkpt><trkpt lat="35.1918767" lon="-6.13759"><ele>4.25</ele><time>2026-04-27T16:17:42.004Z</time></trkpt><trkpt lat="35.1918967" lon="-6.1374467"><ele>4.0</ele><time>2026-04-27T16:17:43.004Z</time></trkpt><trkpt lat="35.1919117" lon="-6.137325"><ele>4.0</ele><time>2026-04-27T16:17:44.004Z</time></trkpt><trkpt lat="35.1919383" lon="-6.1372083"><ele>4.0</ele><time>2026-04-27T16:17:45.004Z</time></trkpt><trkpt lat="35.1919867" lon="-6.137085"><ele>4.0</ele><time>2026-04-27T16:17:46.004Z</time></trkpt><trkpt lat="35.192045" lon="-6.1369667"><ele>4.0</ele><time>2026-04-27T16:17:47.004Z</time></trkpt><trkpt lat="35.1920917" lon="-6.13683"><ele>4.0</ele><time>2026-04-27T16:17:48.004Z</time></trkpt><trkpt lat="35.192135" lon="-6.1366933"><ele>4.0</ele><time>2026-04-27T16:17:49.003Z</time></trkpt><trkpt lat="35.1921683" lon="-6.1365617"><ele>4.0</ele><time>2026-04-27T16:17:50.004Z</time></trkpt><trkpt lat="35.1922017" lon="-6.1364333"><ele>4.0</ele><time>2026-04-27T16:17:51.004Z</time></trkpt><trkpt lat="35.19223" lon="-6.136305"><ele>4.0</ele><time>2026-04-27T16:17:52.004Z</time></trkpt><trkpt lat="35.19226" lon="-6.13618"><ele>4.0</ele><time>2026-04-27T16:17:53.004Z</time></trkpt><trkpt lat="35.1922983" lon="-6.1360567"><ele>4.4</ele><time>2026-04-27T16:17:54.004Z</time></trkpt><trkpt lat="35.1923317" lon="-6.135935"><ele>4.800000000000001</ele><time>2026-04-27T16:17:55.003Z</time></trkpt><trkpt lat="35.1923617" lon="-6.1358133"><ele>5.199999999999999</ele><time>2026-04-27T16:17:56.004Z</time></trkpt><trkpt lat="35.192395" lon="-6.1357"><ele>5.6</ele><time>2026-04-27T16:17:57.004Z</time></trkpt><trkpt lat="35.1924267" lon="-6.1355867"><ele>6.0</ele><time>2026-04-27T16:17:58.003Z</time></trkpt><trkpt lat="35.19246" lon="-6.13547"><ele>6.0</ele><time>2026-04-27T16:17:59.004Z</time></trkpt><trkpt lat="35.1924933" lon="-6.1353533"><ele>6.0</ele><time>2026-04-27T16:18:00.004Z</time></trkpt><trkpt lat="35.1925217" lon="-6.1352417"><ele>6.0</ele><time>2026-04-27T16:18:01.004Z</time></trkpt><trkpt lat="35.192545" lon="-6.1351367"><ele>6.0</ele><time>2026-04-27T16:18:02.004Z</time></trkpt><trkpt lat="35.192565" lon="-6.1350383"><ele>6.0</ele><time>2026-04-27T16:18:03.003Z</time></trkpt><trkpt lat="35.1925917" lon="-6.134945"><ele>6.0</ele><time>2026-04-27T16:18:04.004Z</time></trkpt><trkpt lat="35.192615" lon="-6.134845"><ele>6.0</ele><time>2026-04-27T16:18:05.004Z</time></trkpt><trkpt lat="35.1926433" lon="-6.1347333"><ele>6.0</ele><time>2026-04-27T16:18:06.004Z</time></trkpt><trkpt lat="35.1926733" lon="-6.1346233"><ele>6.0</ele><time>2026-04-27T16:18:07.004Z</time></trkpt><trkpt lat="35.1927033" lon="-6.1345033"><ele>6.0</ele><time>2026-04-27T16:18:08.004Z</time></trkpt><trkpt lat="35.1927367" lon="-6.1343817"><ele>6.0</ele><time>2026-04-27T16:18:09.004Z</time></trkpt><trkpt lat="35.19277" lon="-6.1342583"><ele>6.0</ele><time>2026-04-27T16:18:10.004Z</time></trkpt><trkpt lat="35.1928" lon="-6.1341267"><ele>6.0</ele><time>2026-04-27T16:18:11.004Z</time></trkpt><trkpt lat="35.192835" lon="-6.133995"><ele>6.0</ele><time>2026-04-27T16:18:12.004Z</time></trkpt><trkpt lat="35.1928667" lon="-6.13386"><ele>6.0</ele><time>2026-04-27T16:18:13.004Z</time></trkpt><trkpt lat="35.1928967" lon="-6.1337267"><ele>5.0</ele><time>2026-04-27T16:18:14.004Z</time></trkpt><trkpt lat="35.19293" lon="-6.1335933"><ele>4.0</ele><time>2026-04-27T16:18:15.004Z</time></trkpt><trkpt lat="35.1929667" lon="-6.13346"><ele>3.0</ele><time>2026-04-27T16:18:16.004Z</time></trkpt><trkpt lat="35.1930033" lon="-6.1333267"><ele>2.0</ele><time>2026-04-27T16:18:17.004Z</time></trkpt><trkpt lat="35.193045" lon="-6.1331883"><ele>2.0</ele><time>2026-04-27T16:18:18.004Z</time></trkpt><trkpt lat="35.19308" lon="-6.1330533"><ele>2.0</ele><time>2026-04-27T16:18:19.003Z</time></trkpt><trkpt lat="35.1931133" lon="-6.1329083"><ele>2.0</ele><time>2026-04-27T16:18:20.004Z</time></trkpt><trkpt lat="35.193155" lon="-6.13276"><ele>2.0</ele><time>2026-04-27T16:18:21.004Z</time></trkpt><trkpt lat="35.1931917" lon="-6.1326067"><ele>2.0</ele><time>2026-04-27T16:18:22.004Z</time></trkpt><trkpt lat="35.193235" lon="-6.1324533"><ele>2.0</ele><time>2026-04-27T16:18:23.004Z</time></trkpt><trkpt lat="35.1932783" lon="-6.1322967"><ele>2.0</ele><time>2026-04-27T16:18:24.004Z</time></trkpt><trkpt lat="35.1933183" lon="-6.1321333"><ele>2.0</ele><time>2026-04-27T16:18:25.004Z</time></trkpt><trkpt lat="35.193365" lon="-6.13197"><ele>1.25</ele><time>2026-04-27T16:18:26.004Z</time></trkpt><trkpt lat="35.1934017" lon="-6.1318083"><ele>0.5</ele><time>2026-04-27T16:18:27.004Z</time></trkpt><trkpt lat="35.193435" lon="-6.131665"><ele>-0.25</ele><time>2026-04-27T16:18:28.004Z</time></trkpt><trkpt lat="35.1934683" lon="-6.1315317"><ele>-1.0</ele><time>2026-04-27T16:18:29.004Z</time></trkpt><trkpt lat="35.1935033" lon="-6.1313967"><ele>-1.0</ele><time>2026-04-27T16:18:30.004Z</time></trkpt><trkpt lat="35.19354" lon="-6.1312633"><ele>-1.0</ele><time>2026-04-27T16:18:31.004Z</time></trkpt><trkpt lat="35.1935733" lon="-6.1311183"><ele>-1.0</ele><time>2026-04-27T16:18:32.003Z</time></trkpt><trkpt lat="35.193605" lon="-6.1309917"><ele>-1.0</ele><time>2026-04-27T16:18:33.004Z</time></trkpt><trkpt lat="35.1936417" lon="-6.1308667"><ele>-1.0</ele><time>2026-04-27T16:18:34.003Z</time></trkpt><trkpt lat="35.1936833" lon="-6.13074"><ele>-1.0</ele><time>2026-04-27T16:18:35.004Z</time></trkpt><trkpt lat="35.1937183" lon="-6.1306117"><ele>-1.0</ele><time>2026-04-27T16:18:36.004Z</time></trkpt><trkpt lat="35.19375" lon="-6.13048"><ele>-1.0</ele><time>2026-04-27T16:18:37.004Z</time></trkpt><trkpt lat="35.1937883" lon="-6.1303383"><ele>-0.75</ele><time>2026-04-27T16:18:38.004Z</time></trkpt><trkpt lat="35.1938233" lon="-6.1301983"><ele>-0.5</ele><time>2026-04-27T16:18:39.004Z</time></trkpt><trkpt lat="35.1938617" lon="-6.1300483"><ele>-0.25</ele><time>2026-04-27T16:18:40.004Z</time></trkpt><trkpt lat="35.193895" lon="-6.1298933"><ele>0.0</ele><time>2026-04-27T16:18:41.004Z</time></trkpt><trkpt lat="35.1939233" lon="-6.1297283"><ele>0.0</ele><time>2026-04-27T16:18:42.003Z</time></trkpt><trkpt lat="35.19396" lon="-6.129565"><ele>0.0</ele><time>2026-04-27T16:18:43.004Z</time></trkpt><trkpt lat="35.194" lon="-6.129395"><ele>0.0</ele><time>2026-04-27T16:18:44.004Z</time></trkpt><trkpt lat="35.19405" lon="-6.12922"><ele>0.0</ele><time>2026-04-27T16:18:45.004Z</time></trkpt><trkpt lat="35.1940983" lon="-6.1290317"><ele>0.3333333333333333</ele><time>2026-04-27T16:18:46.004Z</time></trkpt><trkpt lat="35.1941483" lon="-6.12884"><ele>0.6666666666666666</ele><time>2026-04-27T16:18:47.004Z</time></trkpt><trkpt lat="35.1941967" lon="-6.1286417"><ele>1.0</ele><time>2026-04-27T16:18:48.004Z</time></trkpt><trkpt lat="35.19425" lon="-6.1284367"><ele>1.0</ele><time>2026-04-27T16:18:49.004Z</time></trkpt><trkpt lat="35.194305" lon="-6.1282333"><ele>1.0</ele><time>2026-04-27T16:18:50.004Z</time></trkpt><trkpt lat="35.19436" lon="-6.1280167"><ele>1.0</ele><time>2026-04-27T16:18:51.004Z</time></trkpt><trkpt lat="35.1944117" lon="-6.1278033"><ele>0.6666666666666666</ele><time>2026-04-27T16:18:52.004Z</time></trkpt><trkpt lat="35.1944733" lon="-6.1275817"><ele>0.3333333333333333</ele><time>2026-04-27T16:18:53.004Z</time></trkpt><trkpt lat="35.19453" lon="-6.1273517"><ele>0.0</ele><time>2026-04-27T16:18:54.004Z</time></trkpt><trkpt lat="35.194585" lon="-6.1271283"><ele>0.6666666666666666</ele><time>2026-04-27T16:18:55.004Z</time></trkpt><trkpt lat="35.1946333" lon="-6.126915"><ele>1.3333333333333333</ele><time>2026-04-27T16:18:56.004Z</time></trkpt><trkpt lat="35.194685" lon="-6.126715"><ele>2.0</ele><time>2026-04-27T16:18:57.004Z</time></trkpt><trkpt lat="35.194735" lon="-6.12652"><ele>2.0</ele><time>2026-04-27T16:18:58.003Z</time></trkpt><trkpt lat="35.1947867" lon="-6.1263217"><ele>2.0</ele><time>2026-04-27T16:18:59.004Z</time></trkpt><trkpt lat="35.1948433" lon="-6.1261333"><ele>2.0</ele><time>2026-04-27T16:19:00.004Z</time></trkpt><trkpt lat="35.1948917" lon="-6.1259383"><ele>2.0</ele><time>2026-04-27T16:19:01.004Z</time></trkpt><trkpt lat="35.1949433" lon="-6.1257483"><ele>2.0</ele><time>2026-04-27T16:19:02.004Z</time></trkpt><trkpt lat="35.194985" lon="-6.125555"><ele>2.0</ele><time>2026-04-27T16:19:03.004Z</time></trkpt><trkpt lat="35.19503" lon="-6.125365"><ele>2.0</ele><time>2026-04-27T16:19:04.004Z</time></trkpt><trkpt lat="35.19508" lon="-6.1251867"><ele>2.0</ele><time>2026-04-27T16:19:05.004Z</time></trkpt><trkpt lat="35.1951283" lon="-6.1250117"><ele>2.0</ele><time>2026-04-27T16:19:06.004Z</time></trkpt><trkpt lat="35.1951683" lon="-6.1248517"><ele>2.0</ele><time>2026-04-27T16:19:07.004Z</time></trkpt><trkpt lat="35.19521" lon="-6.1246967"><ele>2.5</ele><time>2026-04-27T16:19:08.004Z</time></trkpt><trkpt lat="35.19525" lon="-6.124545"><ele>3.0</ele><time>2026-04-27T16:19:09.004Z</time></trkpt><trkpt lat="35.1952883" lon="-6.1243983"><ele>3.5</ele><time>2026-04-27T16:19:10.004Z</time></trkpt><trkpt lat="35.1953233" lon="-6.1242567"><ele>4.0</ele><time>2026-04-27T16:19:11.004Z</time></trkpt><trkpt lat="35.1953567" lon="-6.12411"><ele>4.0</ele><time>2026-04-27T16:19:12.003Z</time></trkpt><trkpt lat="35.195395" lon="-6.123965"><ele>4.0</ele><time>2026-04-27T16:19:13.004Z</time></trkpt><trkpt lat="35.1954383" lon="-6.1238167"><ele>4.0</ele><time>2026-04-27T16:19:14.004Z</time></trkpt><trkpt lat="35.1954783" lon="-6.1236667"><ele>4.0</ele><time>2026-04-27T16:19:15.004Z</time></trkpt><trkpt lat="35.19552" lon="-6.1235167"><ele>4.0</ele><time>2026-04-27T16:19:16.003Z</time></trkpt><trkpt lat="35.1955633" lon="-6.1233717"><ele>4.0</ele><time>2026-04-27T16:19:17.004Z</time></trkpt><trkpt lat="35.1956067" lon="-6.1232233"><ele>4.0</ele><time>2026-04-27T16:19:18.004Z</time></trkpt><trkpt lat="35.195645" lon="-6.1230717"><ele>4.0</ele><time>2026-04-27T16:19:19.004Z</time></trkpt><trkpt lat="35.19568" lon="-6.1229267"><ele>2.75</ele><time>2026-04-27T16:19:20.003Z</time></trkpt><trkpt lat="35.1957167" lon="-6.1227867"><ele>1.5</ele><time>2026-04-27T16:19:21.004Z</time></trkpt><trkpt lat="35.1957533" lon="-6.12265"><ele>0.25</ele><time>2026-04-27T16:19:22.004Z</time></trkpt><trkpt lat="35.1957817" lon="-6.1225133"><ele>-1.0</ele><time>2026-04-27T16:19:23.004Z</time></trkpt><trkpt lat="35.1958133" lon="-6.1223683"><ele>-1.5</ele><time>2026-04-27T16:19:24.004Z</time></trkpt><trkpt lat="35.195845" lon="-6.1222217"><ele>-2.0</ele><time>2026-04-27T16:19:25.004Z</time></trkpt><trkpt lat="35.19588" lon="-6.12207"><ele>-2.5</ele><time>2026-04-27T16:19:26.004Z</time></trkpt><trkpt lat="35.1959117" lon="-6.1219133"><ele>-3.0</ele><time>2026-04-27T16:19:27.004Z</time></trkpt><trkpt lat="35.195945" lon="-6.12176"><ele>-3.0</ele><time>2026-04-27T16:19:28.004Z</time></trkpt><trkpt lat="35.1959767" lon="-6.121595"><ele>-3.0</ele><time>2026-04-27T16:19:29.004Z</time></trkpt><trkpt lat="35.196" lon="-6.1214233"><ele>-3.0</ele><time>2026-04-27T16:19:30.003Z</time></trkpt><trkpt lat="35.196015" lon="-6.1212517"><ele>-3.0</ele><time>2026-04-27T16:19:31.004Z</time></trkpt><trkpt lat="35.1960317" lon="-6.1210767"><ele>-2.25</ele><time>2026-04-27T16:19:32.004Z</time></trkpt><trkpt lat="35.196045" lon="-6.1209033"><ele>-1.5</ele><time>2026-04-27T16:19:33.004Z</time></trkpt><trkpt lat="35.1960583" lon="-6.120725"><ele>-0.75</ele><time>2026-04-27T16:19:34.004Z</time></trkpt><trkpt lat="35.19607" lon="-6.1205433"><ele>0.0</ele><time>2026-04-27T16:19:35.003Z</time></trkpt><trkpt lat="35.1960833" lon="-6.1203617"><ele>0.0</ele><time>2026-04-27T16:19:36.004Z</time></trkpt><trkpt lat="35.1960933" lon="-6.1201833"><ele>0.0</ele><time>2026-04-27T16:19:37.004Z</time></trkpt><trkpt lat="35.1961017" lon="-6.1200033"><ele>0.0</ele><time>2026-04-27T16:19:38.004Z</time></trkpt><trkpt lat="35.196115" lon="-6.1198183"><ele>0.0</ele><time>2026-04-27T16:19:39.004Z</time></trkpt><trkpt lat="35.196125" lon="-6.1196333"><ele>0.0</ele><time>2026-04-27T16:19:40.004Z</time></trkpt><trkpt lat="35.196135" lon="-6.119445"><ele>0.0</ele><time>2026-04-27T16:19:41.003Z</time></trkpt><trkpt lat="35.19615" lon="-6.1192617"><ele>0.0</ele><time>2026-04-27T16:19:42.004Z</time></trkpt><trkpt lat="35.19616" lon="-6.1190733"><ele>0.0</ele><time>2026-04-27T16:19:43.004Z</time></trkpt><trkpt lat="35.196175" lon="-6.1188867"><ele>0.0</ele><time>2026-04-27T16:19:44.004Z</time></trkpt><trkpt lat="35.19619" lon="-6.118695"><ele>0.0</ele><time>2026-04-27T16:19:45.004Z</time></trkpt><trkpt lat="35.196205" lon="-6.1185033"><ele>0.0</ele><time>2026-04-27T16:19:46.004Z</time></trkpt><trkpt lat="35.1962183" lon="-6.1183133"><ele>0.0</ele><time>2026-04-27T16:19:47.004Z</time></trkpt><trkpt lat="35.19623" lon="-6.1181317"><ele>0.0</ele><time>2026-04-27T16:19:48.004Z</time></trkpt><trkpt lat="35.196235" lon="-6.1179583"><ele>0.0</ele><time>2026-04-27T16:19:49.003Z</time></trkpt><trkpt lat="35.1962417" lon="-6.1177917"><ele>0.0</ele><time>2026-04-27T16:19:50.004Z</time></trkpt><trkpt lat="35.1962517" lon="-6.117645"><ele>0.0</ele><time>2026-04-27T16:19:51.004Z</time></trkpt><trkpt lat="35.1962617" lon="-6.1175167"><ele>0.0</ele><time>2026-04-27T16:19:52.004Z</time></trkpt><trkpt lat="35.1962683" lon="-6.1174033"><ele>0.0</ele><time>2026-04-27T16:19:53.004Z</time></trkpt><trkpt lat="35.1962717" lon="-6.1173117"><ele>0.0</ele><time>2026-04-27T16:19:54.004Z</time></trkpt><trkpt lat="35.196275" lon="-6.117185"><ele>-0.16666666666666666</ele><time>2026-04-27T16:19:56.003Z</time></trkpt><trkpt lat="35.196285" lon="-6.1171"><ele>-0.3333333333333333</ele><time>2026-04-27T16:19:58.003Z</time></trkpt><trkpt lat="35.1962717" lon="-6.11702"><ele>-0.5</ele><time>2026-04-27T16:20:48.004Z</time></trkpt><trkpt lat="35.1962417" lon="-6.116895"><ele>-0.6666666666666666</ele><time>2026-04-27T16:20:51.004Z</time></trkpt><trkpt lat="35.1962417" lon="-6.1167683"><ele>-0.8333333333333333</ele><time>2026-04-27T16:20:53.003Z</time></trkpt><trkpt lat="35.1962533" lon="-6.1166733"><ele>-1.0</ele><time>2026-04-27T16:20:54.004Z</time></trkpt><trkpt lat="35.1962683" lon="-6.11656"><ele>-1.0</ele><time>2026-04-27T16:20:55.004Z</time></trkpt><trkpt lat="35.1962733" lon="-6.116435"><ele>-1.0</ele><time>2026-04-27T16:20:56.004Z</time></trkpt><trkpt lat="35.1962817" lon="-6.1163117"><ele>-1.0</ele><time>2026-04-27T16:20:57.004Z</time></trkpt><trkpt lat="35.1962917" lon="-6.1161933"><ele>-1.0</ele><time>2026-04-27T16:20:58.004Z</time></trkpt><trkpt lat="35.1963" lon="-6.1160767"><ele>-1.0</ele><time>2026-04-27T16:20:59.004Z</time></trkpt><trkpt lat="35.1963" lon="-6.1159583"><ele>-1.0</ele><time>2026-04-27T16:21:00.004Z</time></trkpt><trkpt lat="35.1962983" lon="-6.11583"><ele>-1.0</ele><time>2026-04-27T16:21:01.004Z</time></trkpt><trkpt lat="35.1963067" lon="-6.1157"><ele>-1.0</ele><time>2026-04-27T16:21:02.004Z</time></trkpt><trkpt lat="35.1963167" lon="-6.1155717"><ele>-1.0</ele><time>2026-04-27T16:21:03.004Z</time></trkpt><trkpt lat="35.1963283" lon="-6.1154417"><ele>-1.0</ele><time>2026-04-27T16:21:04.004Z</time></trkpt><trkpt lat="35.1963333" lon="-6.1153183"><ele>-0.8333333333333333</ele><time>2026-04-27T16:21:05.004Z</time></trkpt><trkpt lat="35.1963417" lon="-6.1152033"><ele>-0.6666666666666666</ele><time>2026-04-27T16:21:06.004Z</time></trkpt><trkpt lat="35.1963483" lon="-6.11509"><ele>-0.5</ele><time>2026-04-27T16:21:07.004Z</time></trkpt><trkpt lat="35.196355" lon="-6.1149817"><ele>-0.3333333333333333</ele><time>2026-04-27T16:21:08.004Z</time></trkpt><trkpt lat="35.196355" lon="-6.1148867"><ele>-0.16666666666666666</ele><time>2026-04-27T16:21:09.004Z</time></trkpt><trkpt lat="35.1963583" lon="-6.114795"><ele>0.0</ele><time>2026-04-27T16:21:10.004Z</time></trkpt><trkpt lat="35.1963617" lon="-6.1147167"><ele>0.0</ele><time>2026-04-27T16:21:11.004Z</time></trkpt><trkpt lat="35.1963767" lon="-6.1145867"><ele>0.0</ele><time>2026-04-27T16:21:13.004Z</time></trkpt><trkpt lat="35.1964017" lon="-6.11445"><ele>0.0</ele><time>2026-04-27T16:21:15.004Z</time></trkpt><trkpt lat="35.196415" lon="-6.1143617"><ele>0.0</ele><time>2026-04-27T16:21:16.003Z</time></trkpt><trkpt lat="35.1964317" lon="-6.1142533"><ele>0.0</ele><time>2026-04-27T16:21:17.003Z</time></trkpt><trkpt lat="35.1964533" lon="-6.114125"><ele>0.3333333333333333</ele><time>2026-04-27T16:21:18.003Z</time></trkpt><trkpt lat="35.1964767" lon="-6.11397"><ele>0.6666666666666666</ele><time>2026-04-27T16:21:19.003Z</time></trkpt><trkpt lat="35.1964933" lon="-6.113785"><ele>1.0</ele><time>2026-04-27T16:21:20.003Z</time></trkpt><trkpt lat="35.1965133" lon="-6.1135633"><ele>1.0</ele><time>2026-04-27T16:21:21.003Z</time></trkpt><trkpt lat="35.19653" lon="-6.1133417"><ele>1.0</ele><time>2026-04-27T16:21:22.003Z</time></trkpt><trkpt lat="35.1965483" lon="-6.1131383"><ele>1.0</ele><time>2026-04-27T16:21:23.003Z</time></trkpt><trkpt lat="35.1965633" lon="-6.1129467"><ele>1.25</ele><time>2026-04-27T16:21:24.003Z</time></trkpt><trkpt lat="35.1965817" lon="-6.112765"><ele>1.5</ele><time>2026-04-27T16:21:25.003Z</time></trkpt><trkpt lat="35.1965933" lon="-6.1125917"><ele>1.75</ele><time>2026-04-27T16:21:26.003Z</time></trkpt><trkpt lat="35.196605" lon="-6.1124217"><ele>2.0</ele><time>2026-04-27T16:21:27.003Z</time></trkpt><trkpt lat="35.196615" lon="-6.1122483"><ele>2.5</ele><time>2026-04-27T16:21:28.003Z</time></trkpt><trkpt lat="35.1966217" lon="-6.1120817"><ele>3.0</ele><time>2026-04-27T16:21:29.003Z</time></trkpt><trkpt lat="35.1966283" lon="-6.1119133"><ele>3.5</ele><time>2026-04-27T16:21:30.003Z</time></trkpt><trkpt lat="35.1966333" lon="-6.1117483"><ele>4.0</ele><time>2026-04-27T16:21:31.003Z</time></trkpt><trkpt lat="35.19665" lon="-6.111575"><ele>4.666666666666666</ele><time>2026-04-27T16:21:32.003Z</time></trkpt><trkpt lat="35.1966683" lon="-6.1113883"><ele>5.333333333333333</ele><time>2026-04-27T16:21:33.003Z</time></trkpt><trkpt lat="35.1966983" lon="-6.111165"><ele>6.0</ele><time>2026-04-27T16:21:34.003Z</time></trkpt><trkpt lat="35.196725" lon="-6.1108817"><ele>6.0</ele><time>2026-04-27T16:21:35.002Z</time></trkpt><trkpt lat="35.19675" lon="-6.1105533"><ele>6.0</ele><time>2026-04-27T16:21:36.003Z</time></trkpt><trkpt lat="35.1967717" lon="-6.1102333"><ele>6.0</ele><time>2026-04-27T16:21:37.003Z</time></trkpt><trkpt lat="35.1967933" lon="-6.1099467"><ele>6.0</ele><time>2026-04-27T16:21:38.003Z</time></trkpt><trkpt lat="35.1968217" lon="-6.1096833"><ele>5.666666666666667</ele><time>2026-04-27T16:21:39.003Z</time></trkpt><trkpt lat="35.1968517" lon="-6.10944"><ele>5.333333333333334</ele><time>2026-04-27T16:21:40.003Z</time></trkpt><trkpt lat="35.1968733" lon="-6.1092217"><ele>5.0</ele><time>2026-04-27T16:21:41.003Z</time></trkpt><trkpt lat="35.1969067" lon="-6.1090183"><ele>4.333333333333334</ele><time>2026-04-27T16:21:42.003Z</time></trkpt><trkpt lat="35.19695" lon="-6.10882"><ele>3.666666666666667</ele><time>2026-04-27T16:21:43.003Z</time></trkpt><trkpt lat="35.1970167" lon="-6.10861"><ele>3.0</ele><time>2026-04-27T16:21:44.003Z</time></trkpt><trkpt lat="35.1970983" lon="-6.1084233"><ele>3.0</ele><time>2026-04-27T16:21:45.003Z</time></trkpt><trkpt lat="35.1971867" lon="-6.1082567"><ele>3.0</ele><time>2026-04-27T16:21:46.003Z</time></trkpt><trkpt lat="35.1972717" lon="-6.1081083"><ele>3.0</ele><time>2026-04-27T16:21:47.003Z</time></trkpt><trkpt lat="35.19736" lon="-6.107965"><ele>4.0</ele><time>2026-04-27T16:21:48.003Z</time></trkpt><trkpt lat="35.197455" lon="-6.10783"><ele>5.0</ele><time>2026-04-27T16:21:49.003Z</time></trkpt><trkpt lat="35.1975667" lon="-6.1076667"><ele>6.0</ele><time>2026-04-27T16:21:50.003Z</time></trkpt><trkpt lat="35.1976917" lon="-6.107475"><ele>5.0</ele><time>2026-04-27T16:21:51.003Z</time></trkpt><trkpt lat="35.197825" lon="-6.1072633"><ele>4.0</ele><time>2026-04-27T16:21:52.003Z</time></trkpt><trkpt lat="35.1979533" lon="-6.1070417"><ele>3.0</ele><time>2026-04-27T16:21:53.002Z</time></trkpt><trkpt lat="35.1980767" lon="-6.106815"><ele>3.333333333333333</ele><time>2026-04-27T16:21:54.003Z</time></trkpt><trkpt lat="35.1982067" lon="-6.10659"><ele>3.6666666666666665</ele><time>2026-04-27T16:21:55.003Z</time></trkpt><trkpt lat="35.1983317" lon="-6.106385"><ele>4.0</ele><time>2026-04-27T16:21:56.003Z</time></trkpt><trkpt lat="35.1984533" lon="-6.1061817"><ele>4.0</ele><time>2026-04-27T16:21:57.003Z</time></trkpt><trkpt lat="35.19858" lon="-6.1059717"><ele>4.0</ele><time>2026-04-27T16:21:58.003Z</time></trkpt><trkpt lat="35.1987133" lon="-6.1057567"><ele>4.0</ele><time>2026-04-27T16:21:59.003Z</time></trkpt><trkpt lat="35.1988467" lon="-6.105545"><ele>3.333333333333333</ele><time>2026-04-27T16:22:00.003Z</time></trkpt><trkpt lat="35.1989717" lon="-6.1053467"><ele>2.6666666666666665</ele><time>2026-04-27T16:22:01.002Z</time></trkpt><trkpt lat="35.199095" lon="-6.1051483"><ele>2.0</ele><time>2026-04-27T16:22:02.003Z</time></trkpt><trkpt lat="35.1992217" lon="-6.1049417"><ele>3.0</ele><time>2026-04-27T16:22:03.003Z</time></trkpt><trkpt lat="35.1993517" lon="-6.104735"><ele>4.0</ele><time>2026-04-27T16:22:04.002Z</time></trkpt><trkpt lat="35.1994817" lon="-6.10453"><ele>5.0</ele><time>2026-04-27T16:22:05.003Z</time></trkpt><trkpt lat="35.1996083" lon="-6.1043233"><ele>5.0</ele><time>2026-04-27T16:22:06.003Z</time></trkpt><trkpt lat="35.199725" lon="-6.10413"><ele>5.0</ele><time>2026-04-27T16:22:07.002Z</time></trkpt><trkpt lat="35.199835" lon="-6.1039433"><ele>5.0</ele><time>2026-04-27T16:22:08.003Z</time></trkpt><trkpt lat="35.19994" lon="-6.103765"><ele>4.666666666666667</ele><time>2026-04-27T16:22:09.003Z</time></trkpt><trkpt lat="35.2000467" lon="-6.1035917"><ele>4.333333333333333</ele><time>2026-04-27T16:22:10.003Z</time></trkpt><trkpt lat="35.2001517" lon="-6.103415"><ele>4.0</ele><time>2026-04-27T16:22:11.003Z</time></trkpt><trkpt lat="35.2002433" lon="-6.1032417"><ele>3.6666666666666665</ele><time>2026-04-27T16:22:12.003Z</time></trkpt><trkpt lat="35.20032" lon="-6.1030683"><ele>3.333333333333333</ele><time>2026-04-27T16:22:13.003Z</time></trkpt><trkpt lat="35.20039" lon="-6.1028883"><ele>3.0</ele><time>2026-04-27T16:22:14.003Z</time></trkpt><trkpt lat="35.2004433" lon="-6.10271"><ele>3.0</ele><time>2026-04-27T16:22:15.003Z</time></trkpt><trkpt lat="35.2004883" lon="-6.102525"><ele>3.0</ele><time>2026-04-27T16:22:16.003Z</time></trkpt><trkpt lat="35.2005217" lon="-6.102325"><ele>3.0</ele><time>2026-04-27T16:22:17.003Z</time></trkpt><trkpt lat="35.2005417" lon="-6.1021233"><ele>3.333333333333333</ele><time>2026-04-27T16:22:18.003Z</time></trkpt><trkpt lat="35.200565" lon="-6.1019367"><ele>3.6666666666666665</ele><time>2026-04-27T16:22:19.003Z</time></trkpt><trkpt lat="35.2005867" lon="-6.1017383"><ele>4.0</ele><time>2026-04-27T16:22:20.003Z</time></trkpt><trkpt lat="35.2006083" lon="-6.1015417"><ele>4.333333333333333</ele><time>2026-04-27T16:22:21.003Z</time></trkpt><trkpt lat="35.2006367" lon="-6.1013483"><ele>4.666666666666667</ele><time>2026-04-27T16:22:22.003Z</time></trkpt><trkpt lat="35.2006633" lon="-6.101165"><ele>5.0</ele><time>2026-04-27T16:22:23.003Z</time></trkpt><trkpt lat="35.2007017" lon="-6.1009917"><ele>5.75</ele><time>2026-04-27T16:22:24.003Z</time></trkpt><trkpt lat="35.2007417" lon="-6.1008217"><ele>6.5</ele><time>2026-04-27T16:22:25.003Z</time></trkpt><trkpt lat="35.2007833" lon="-6.10065"><ele>7.25</ele><time>2026-04-27T16:22:26.003Z</time></trkpt><trkpt lat="35.200835" lon="-6.100475"><ele>8.0</ele><time>2026-04-27T16:22:27.003Z</time></trkpt><trkpt lat="35.2008817" lon="-6.1003"><ele>8.0</ele><time>2026-04-27T16:22:28.003Z</time></trkpt><trkpt lat="35.2009217" lon="-6.1001267"><ele>8.0</ele><time>2026-04-27T16:22:29.003Z</time></trkpt><trkpt lat="35.2009717" lon="-6.0999567"><ele>8.0</ele><time>2026-04-27T16:22:30.003Z</time></trkpt><trkpt lat="35.2010183" lon="-6.0997867"><ele>8.0</ele><time>2026-04-27T16:22:31.003Z</time></trkpt><trkpt lat="35.201065" lon="-6.0996217"><ele>8.0</ele><time>2026-04-27T16:22:32.003Z</time></trkpt><trkpt lat="35.2011033" lon="-6.0994683"><ele>8.0</ele><time>2026-04-27T16:22:33.003Z</time></trkpt><trkpt lat="35.20115" lon="-6.09932"><ele>8.0</ele><time>2026-04-27T16:22:34.003Z</time></trkpt><trkpt lat="35.201195" lon="-6.09917"><ele>8.0</ele><time>2026-04-27T16:22:35.003Z</time></trkpt><trkpt lat="35.2012383" lon="-6.09902"><ele>8.5</ele><time>2026-04-27T16:22:36.003Z</time></trkpt><trkpt lat="35.20129" lon="-6.098865"><ele>9.0</ele><time>2026-04-27T16:22:37.003Z</time></trkpt><trkpt lat="35.2013333" lon="-6.09871"><ele>9.5</ele><time>2026-04-27T16:22:38.003Z</time></trkpt><trkpt lat="35.2013817" lon="-6.09856"><ele>10.0</ele><time>2026-04-27T16:22:39.003Z</time></trkpt><trkpt lat="35.2014233" lon="-6.0984083"><ele>10.0</ele><time>2026-04-27T16:22:40.003Z</time></trkpt><trkpt lat="35.201465" lon="-6.0982533"><ele>10.0</ele><time>2026-04-27T16:22:41.003Z</time></trkpt><trkpt lat="35.2015033" lon="-6.0981"><ele>10.0</ele><time>2026-04-27T16:22:42.003Z</time></trkpt><trkpt lat="35.20154" lon="-6.097945"><ele>10.0</ele><time>2026-04-27T16:22:43.003Z</time></trkpt><trkpt lat="35.20157" lon="-6.0977967"><ele>10.0</ele><time>2026-04-27T16:22:44.002Z</time></trkpt><trkpt lat="35.2015933" lon="-6.097665"><ele>10.0</ele><time>2026-04-27T16:22:45.003Z</time></trkpt><trkpt lat="35.20161" lon="-6.0975567"><ele>10.0</ele><time>2026-04-27T16:22:46.003Z</time></trkpt><trkpt lat="35.2016233" lon="-6.0974767"><ele>10.0</ele><time>2026-04-27T16:22:47.003Z</time></trkpt><trkpt lat="35.201635" lon="-6.0973667"><ele>10.0</ele><time>2026-04-27T16:22:49.003Z</time></trkpt><trkpt lat="35.2016283" lon="-6.0972667"><ele>10.0</ele><time>2026-04-27T16:22:51.003Z</time></trkpt><trkpt lat="35.2016367" lon="-6.0971167"><ele>9.8</ele><time>2026-04-27T16:22:53.003Z</time></trkpt><trkpt lat="35.20166" lon="-6.097035"><ele>9.6</ele><time>2026-04-27T16:22:54.003Z</time></trkpt><trkpt lat="35.2017083" lon="-6.0969433"><ele>9.4</ele><time>2026-04-27T16:22:55.003Z</time></trkpt><trkpt lat="35.2017733" lon="-6.0968533"><ele>9.2</ele><time>2026-04-27T16:22:56.003Z</time></trkpt><trkpt lat="35.2018383" lon="-6.0967567"><ele>9.0</ele><time>2026-04-27T16:22:57.003Z</time></trkpt><trkpt lat="35.2019017" lon="-6.0966367"><ele>8.75</ele><time>2026-04-27T16:22:58.003Z</time></trkpt><trkpt lat="35.2019633" lon="-6.0964967"><ele>8.5</ele><time>2026-04-27T16:22:59.002Z</time></trkpt><trkpt lat="35.20203" lon="-6.096335"><ele>8.25</ele><time>2026-04-27T16:23:00.003Z</time></trkpt><trkpt lat="35.2021" lon="-6.0961683"><ele>8.0</ele><time>2026-04-27T16:23:01.003Z</time></trkpt><trkpt lat="35.202175" lon="-6.0959933"><ele>8.0</ele><time>2026-04-27T16:23:02.002Z</time></trkpt><trkpt lat="35.2022517" lon="-6.095825"><ele>8.0</ele><time>2026-04-27T16:23:03.002Z</time></trkpt><trkpt lat="35.202325" lon="-6.0956567"><ele>8.0</ele><time>2026-04-27T16:23:04.003Z</time></trkpt><trkpt lat="35.2024017" lon="-6.0954883"><ele>8.666666666666666</ele><time>2026-04-27T16:23:05.003Z</time></trkpt><trkpt lat="35.2024917" lon="-6.0953167"><ele>9.333333333333334</ele><time>2026-04-27T16:23:06.003Z</time></trkpt><trkpt lat="35.2025833" lon="-6.095135"><ele>10.0</ele><time>2026-04-27T16:23:07.003Z</time></trkpt><trkpt lat="35.202685" lon="-6.0949367"><ele>10.333333333333334</ele><time>2026-04-27T16:23:08.003Z</time></trkpt><trkpt lat="35.202795" lon="-6.094735"><ele>10.666666666666666</ele><time>2026-04-27T16:23:09.002Z</time></trkpt><trkpt lat="35.202905" lon="-6.0945233"><ele>11.0</ele><time>2026-04-27T16:23:10.003Z</time></trkpt><trkpt lat="35.2030233" lon="-6.094305"><ele>10.333333333333332</ele><time>2026-04-27T16:23:11.003Z</time></trkpt><trkpt lat="35.2031433" lon="-6.0940767"><ele>9.666666666666666</ele><time>2026-04-27T16:23:12.003Z</time></trkpt><trkpt lat="35.2032583" lon="-6.0938533"><ele>9.0</ele><time>2026-04-27T16:23:13.003Z</time></trkpt><trkpt lat="35.2033733" lon="-6.0936383"><ele>9.333333333333334</ele><time>2026-04-27T16:23:14.003Z</time></trkpt><trkpt lat="35.2034883" lon="-6.09343"><ele>9.666666666666668</ele><time>2026-04-27T16:23:15.003Z</time></trkpt><trkpt lat="35.2036" lon="-6.0932383"><ele>10.0</ele><time>2026-04-27T16:23:16.003Z</time></trkpt><trkpt lat="35.2037117" lon="-6.093045"><ele>10.0</ele><time>2026-04-27T16:23:17.003Z</time></trkpt><trkpt lat="35.2038167" lon="-6.0928583"><ele>10.0</ele><time>2026-04-27T16:23:18.003Z</time></trkpt><trkpt lat="35.2039167" lon="-6.09267"><ele>10.0</ele><time>2026-04-27T16:23:19.003Z</time></trkpt><trkpt lat="35.2040217" lon="-6.092475"><ele>12.0</ele><time>2026-04-27T16:23:20.003Z</time></trkpt><trkpt lat="35.2041267" lon="-6.0922817"><ele>14.0</ele><time>2026-04-27T16:23:21.003Z</time></trkpt><trkpt lat="35.204235" lon="-6.092095"><ele>16.0</ele><time>2026-04-27T16:23:22.003Z</time></trkpt><trkpt lat="35.20434" lon="-6.0919033"><ele>16.0</ele><time>2026-04-27T16:23:23.003Z</time></trkpt><trkpt lat="35.2044383" lon="-6.09172"><ele>16.0</ele><time>2026-04-27T16:23:24.003Z</time></trkpt><trkpt lat="35.2045467" lon="-6.091545"><ele>16.0</ele><time>2026-04-27T16:23:25.003Z</time></trkpt><trkpt lat="35.2046567" lon="-6.091375"><ele>17.0</ele><time>2026-04-27T16:23:26.003Z</time></trkpt><trkpt lat="35.2047583" lon="-6.0912133"><ele>18.0</ele><time>2026-04-27T16:23:27.003Z</time></trkpt><trkpt lat="35.2048633" lon="-6.091045"><ele>19.0</ele><time>2026-04-27T16:23:28.003Z</time></trkpt><trkpt lat="35.2049717" lon="-6.0908817"><ele>17.333333333333332</ele><time>2026-04-27T16:23:29.003Z</time></trkpt><trkpt lat="35.205085" lon="-6.0907183"><ele>15.666666666666668</ele><time>2026-04-27T16:23:30.003Z</time></trkpt><trkpt lat="35.2052067" lon="-6.0905567"><ele>14.0</ele><time>2026-04-27T16:23:31.002Z</time></trkpt><trkpt lat="35.2053383" lon="-6.0904167"><ele>14.0</ele><time>2026-04-27T16:23:32.003Z</time></trkpt><trkpt lat="35.2054783" lon="-6.0902883"><ele>14.0</ele><time>2026-04-27T16:23:33.002Z</time></trkpt><trkpt lat="35.2056317" lon="-6.0901717"><ele>14.0</ele><time>2026-04-27T16:23:34.003Z</time></trkpt><trkpt lat="35.2057917" lon="-6.0900567"><ele>13.333333333333334</ele><time>2026-04-27T16:23:35.003Z</time></trkpt><trkpt lat="35.2059567" lon="-6.08993"><ele>12.666666666666668</ele><time>2026-04-27T16:23:36.003Z</time></trkpt><trkpt lat="35.2061333" lon="-6.0898183"><ele>12.0</ele><time>2026-04-27T16:23:37.003Z</time></trkpt><trkpt lat="35.2063233" lon="-6.0897267"><ele>13.333333333333332</ele><time>2026-04-27T16:23:38.003Z</time></trkpt><trkpt lat="35.2065283" lon="-6.089645"><ele>14.666666666666666</ele><time>2026-04-27T16:23:39.003Z</time></trkpt><trkpt lat="35.2067433" lon="-6.0895783"><ele>16.0</ele><time>2026-04-27T16:23:40.003Z</time></trkpt><trkpt lat="35.206975" lon="-6.08952"><ele>16.0</ele><time>2026-04-27T16:23:41.003Z</time></trkpt><trkpt lat="35.2072233" lon="-6.0894633"><ele>16.0</ele><time>2026-04-27T16:23:42.002Z</time></trkpt><trkpt lat="35.2074717" lon="-6.0894067"><ele>17.5</ele><time>2026-04-27T16:23:43.003Z</time></trkpt><trkpt lat="35.20771" lon="-6.089335"><ele>19.0</ele><time>2026-04-27T16:23:44.003Z</time></trkpt><trkpt lat="35.2079367" lon="-6.0892633"><ele>20.0</ele><time>2026-04-27T16:23:45.003Z</time></trkpt><trkpt lat="35.2081633" lon="-6.0891933"><ele>21.0</ele><time>2026-04-27T16:23:46.003Z</time></trkpt><trkpt lat="35.2083883" lon="-6.08914"><ele>21.0</ele><time>2026-04-27T16:23:47.003Z</time></trkpt><trkpt lat="35.2086017" lon="-6.089095"><ele>21.0</ele><time>2026-04-27T16:23:48.003Z</time></trkpt><trkpt lat="35.208815" lon="-6.08906"><ele>21.0</ele><time>2026-04-27T16:23:49.003Z</time></trkpt><trkpt lat="35.2090267" lon="-6.0890333"><ele>20.333333333333332</ele><time>2026-04-27T16:23:50.002Z</time></trkpt><trkpt lat="35.2092483" lon="-6.0890117"><ele>19.666666666666664</ele><time>2026-04-27T16:23:51.003Z</time></trkpt><trkpt lat="35.209475" lon="-6.0890083"><ele>19.0</ele><time>2026-04-27T16:23:52.003Z</time></trkpt><trkpt lat="35.2097033" lon="-6.089005"><ele>20.5</ele><time>2026-04-27T16:23:53.003Z</time></trkpt><trkpt lat="35.2099383" lon="-6.0890083"><ele>22.0</ele><time>2026-04-27T16:23:54.003Z</time></trkpt><trkpt lat="35.2101767" lon="-6.0890017"><ele>22.0</ele><time>2026-04-27T16:23:55.002Z</time></trkpt><trkpt lat="35.2104167" lon="-6.08899"><ele>22.0</ele><time>2026-04-27T16:23:56.002Z</time></trkpt><trkpt lat="35.2106567" lon="-6.0889767"><ele>21.0</ele><time>2026-04-27T16:23:57.003Z</time></trkpt><trkpt lat="35.21089" lon="-6.088975"><ele>20.0</ele><time>2026-04-27T16:23:58.003Z</time></trkpt><trkpt lat="35.2111167" lon="-6.0889683"><ele>20.0</ele><time>2026-04-27T16:23:59.003Z</time></trkpt><trkpt lat="35.21135" lon="-6.0889583"><ele>20.0</ele><time>2026-04-27T16:24:00.003Z</time></trkpt><trkpt lat="35.2115767" lon="-6.0889517"><ele>19.333333333333336</ele><time>2026-04-27T16:24:01.003Z</time></trkpt><trkpt lat="35.2117933" lon="-6.0889467"><ele>18.666666666666668</ele><time>2026-04-27T16:24:02.003Z</time></trkpt><trkpt lat="35.21201" lon="-6.0889383"><ele>18.0</ele><time>2026-04-27T16:24:03.002Z</time></trkpt><trkpt lat="35.2122183" lon="-6.08893"><ele>18.666666666666668</ele><time>2026-04-27T16:24:04.003Z</time></trkpt><trkpt lat="35.2124233" lon="-6.0889233"><ele>19.333333333333336</ele><time>2026-04-27T16:24:05.003Z</time></trkpt><trkpt lat="35.21263" lon="-6.0889183"><ele>20.0</ele><time>2026-04-27T16:24:06.003Z</time></trkpt><trkpt lat="35.2128333" lon="-6.0889183"><ele>20.0</ele><time>2026-04-27T16:24:07.003Z</time></trkpt><trkpt lat="35.21304" lon="-6.08892"><ele>20.0</ele><time>2026-04-27T16:24:08.003Z</time></trkpt><trkpt lat="35.2132567" lon="-6.08892"><ele>20.0</ele><time>2026-04-27T16:24:09.003Z</time></trkpt><trkpt lat="35.2134683" lon="-6.088945"><ele>20.333333333333336</ele><time>2026-04-27T16:24:10.003Z</time></trkpt><trkpt lat="35.2136817" lon="-6.089005"><ele>20.666666666666668</ele><time>2026-04-27T16:24:11.003Z</time></trkpt><trkpt lat="35.2139033" lon="-6.0890783"><ele>21.0</ele><time>2026-04-27T16:24:12.003Z</time></trkpt><trkpt lat="35.2141183" lon="-6.0891717"><ele>25.0</ele><time>2026-04-27T16:24:13.003Z</time></trkpt><trkpt lat="35.2143383" lon="-6.0892633"><ele>29.0</ele><time>2026-04-27T16:24:14.003Z</time></trkpt><trkpt lat="35.21455" lon="-6.0893533"><ele>29.0</ele><time>2026-04-27T16:24:15.003Z</time></trkpt><trkpt lat="35.2147533" lon="-6.0894367"><ele>29.0</ele><time>2026-04-27T16:24:16.003Z</time></trkpt><trkpt lat="35.2149467" lon="-6.0895183"><ele>29.0</ele><time>2026-04-27T16:24:17.002Z</time></trkpt><trkpt lat="35.2151433" lon="-6.0895983"><ele>29.333333333333332</ele><time>2026-04-27T16:24:18.003Z</time></trkpt><trkpt lat="35.2153367" lon="-6.0896867"><ele>29.666666666666664</ele><time>2026-04-27T16:24:19.003Z</time></trkpt><trkpt lat="35.2155317" lon="-6.089765"><ele>30.0</ele><time>2026-04-27T16:24:20.003Z</time></trkpt><trkpt lat="35.21572" lon="-6.0898517"><ele>33.666666666666664</ele><time>2026-04-27T16:24:21.003Z</time></trkpt><trkpt lat="35.2159033" lon="-6.0899367"><ele>37.33333333333333</ele><time>2026-04-27T16:24:22.003Z</time></trkpt><trkpt lat="35.2160833" lon="-6.09002"><ele>41.0</ele><time>2026-04-27T16:24:23.003Z</time></trkpt><trkpt lat="35.216265" lon="-6.0900967"><ele>41.0</ele><time>2026-04-27T16:24:24.002Z</time></trkpt><trkpt lat="35.2164583" lon="-6.09016"><ele>41.0</ele><time>2026-04-27T16:24:25.003Z</time></trkpt><trkpt lat="35.2166617" lon="-6.09022"><ele>41.0</ele><time>2026-04-27T16:24:26.003Z</time></trkpt><trkpt lat="35.21687" lon="-6.0902717"><ele>42.0</ele><time>2026-04-27T16:24:27.003Z</time></trkpt><trkpt lat="35.2170883" lon="-6.0903217"><ele>43.0</ele><time>2026-04-27T16:24:28.003Z</time></trkpt><trkpt lat="35.2173133" lon="-6.09037"><ele>43.5</ele><time>2026-04-27T16:24:29.003Z</time></trkpt><trkpt lat="35.2175433" lon="-6.090415"><ele>44.0</ele><time>2026-04-27T16:24:30.003Z</time></trkpt><trkpt lat="35.217765" lon="-6.0904667"><ele>44.0</ele><time>2026-04-27T16:24:31.003Z</time></trkpt><trkpt lat="35.2179817" lon="-6.0905167"><ele>44.0</ele><time>2026-04-27T16:24:32.003Z</time></trkpt><trkpt lat="35.21819" lon="-6.0905933"><ele>44.0</ele><time>2026-04-27T16:24:33.003Z</time></trkpt><trkpt lat="35.218395" lon="-6.0906767"><ele>48.0</ele><time>2026-04-27T16:24:34.003Z</time></trkpt><trkpt lat="35.2185933" lon="-6.0907817"><ele>52.0</ele><time>2026-04-27T16:24:35.003Z</time></trkpt><trkpt lat="35.2187883" lon="-6.0909117"><ele>56.0</ele><time>2026-04-27T16:24:36.003Z</time></trkpt><trkpt lat="35.2189683" lon="-6.0910633"><ele>54.5</ele><time>2026-04-27T16:24:37.003Z</time></trkpt><trkpt lat="35.2191433" lon="-6.0912317"><ele>53.0</ele><time>2026-04-27T16:24:38.003Z</time></trkpt><trkpt lat="35.2193117" lon="-6.091425"><ele>57.5</ele><time>2026-04-27T16:24:39.003Z</time></trkpt><trkpt lat="35.2194783" lon="-6.0916367"><ele>62.0</ele><time>2026-04-27T16:24:40.003Z</time></trkpt><trkpt lat="35.2196383" lon="-6.09186"><ele>62.0</ele><time>2026-04-27T16:24:41.002Z</time></trkpt><trkpt lat="35.219795" lon="-6.0920833"><ele>62.0</ele><time>2026-04-27T16:24:42.003Z</time></trkpt><trkpt lat="35.2199433" lon="-6.092305"><ele>62.66666666666667</ele><time>2026-04-27T16:24:43.002Z</time></trkpt><trkpt lat="35.2200833" lon="-6.092515"><ele>63.33333333333333</ele><time>2026-04-27T16:24:44.003Z</time></trkpt><trkpt lat="35.2202233" lon="-6.0927333"><ele>64.0</ele><time>2026-04-27T16:24:45.003Z</time></trkpt><trkpt lat="35.2203667" lon="-6.092965"><ele>64.0</ele><time>2026-04-27T16:24:46.003Z</time></trkpt><trkpt lat="35.2205117" lon="-6.0931933"><ele>64.0</ele><time>2026-04-27T16:24:47.003Z</time></trkpt><trkpt lat="35.2206667" lon="-6.093425"><ele>65.5</ele><time>2026-04-27T16:24:48.003Z</time></trkpt><trkpt lat="35.2208217" lon="-6.0936533"><ele>67.0</ele><time>2026-04-27T16:24:49.003Z</time></trkpt><trkpt lat="35.2209883" lon="-6.0938833"><ele>73.0</ele><time>2026-04-27T16:24:50.003Z</time></trkpt><trkpt lat="35.221155" lon="-6.09412"><ele>79.0</ele><time>2026-04-27T16:24:51.003Z</time></trkpt><trkpt lat="35.221325" lon="-6.0943267"><ele>77.0</ele><time>2026-04-27T16:24:52.003Z</time></trkpt><trkpt lat="35.221495" lon="-6.0945117"><ele>75.0</ele><time>2026-04-27T16:24:53.003Z</time></trkpt><trkpt lat="35.2216533" lon="-6.0946817"><ele>73.0</ele><time>2026-04-27T16:24:54.003Z</time></trkpt><trkpt lat="35.2218067" lon="-6.09483"><ele>77.0</ele><time>2026-04-27T16:24:55.003Z</time></trkpt><trkpt lat="35.2219483" lon="-6.0949717"><ele>81.0</ele><time>2026-04-27T16:24:56.002Z</time></trkpt><trkpt lat="35.2220967" lon="-6.0951133"><ele>85.0</ele><time>2026-04-27T16:24:57.003Z</time></trkpt><trkpt lat="35.222245" lon="-6.0952617"><ele>82.0</ele><time>2026-04-27T16:24:58.002Z</time></trkpt><trkpt lat="35.2224117" lon="-6.0953917"><ele>79.0</ele><time>2026-04-27T16:24:59.003Z</time></trkpt><trkpt lat="35.222575" lon="-6.095515"><ele>76.0</ele><time>2026-04-27T16:25:00.003Z</time></trkpt><trkpt lat="35.22274" lon="-6.0956283"><ele>76.0</ele><time>2026-04-27T16:25:01.003Z</time></trkpt><trkpt lat="35.2229083" lon="-6.0957433"><ele>76.0</ele><time>2026-04-27T16:25:02.003Z</time></trkpt><trkpt lat="35.2230933" lon="-6.0958533"><ele>76.0</ele><time>2026-04-27T16:25:03.003Z</time></trkpt><trkpt lat="35.2232967" lon="-6.095955"><ele>79.5</ele><time>2026-04-27T16:25:04.003Z</time></trkpt><trkpt lat="35.2235117" lon="-6.0960517"><ele>83.0</ele><time>2026-04-27T16:25:05.003Z</time></trkpt><trkpt lat="35.22373" lon="-6.0961583"><ele>83.0</ele><time>2026-04-27T16:25:06.002Z</time></trkpt><trkpt lat="35.223965" lon="-6.0962583"><ele>83.0</ele><time>2026-04-27T16:25:07.003Z</time></trkpt><trkpt lat="35.2242" lon="-6.0963717"><ele>80.0</ele><time>2026-04-27T16:25:08.002Z</time></trkpt><trkpt lat="35.2244317" lon="-6.0964933"><ele>77.0</ele><time>2026-04-27T16:25:09.003Z</time></trkpt><trkpt lat="35.22465" lon="-6.0966167"><ele>84.0</ele><time>2026-04-27T16:25:10.003Z</time></trkpt><trkpt lat="35.2248667" lon="-6.0967333"><ele>91.0</ele><time>2026-04-27T16:25:11.003Z</time></trkpt><trkpt lat="35.2250983" lon="-6.0968433"><ele>91.0</ele><time>2026-04-27T16:25:12.002Z</time></trkpt><trkpt lat="35.2253283" lon="-6.0969417"><ele>91.0</ele><time>2026-04-27T16:25:13.003Z</time></trkpt><trkpt lat="35.225565" lon="-6.0970233"><ele>89.5</ele><time>2026-04-27T16:25:14.003Z</time></trkpt><trkpt lat="35.2257967" lon="-6.097095"><ele>88.0</ele><time>2026-04-27T16:25:15.003Z</time></trkpt><trkpt lat="35.22602" lon="-6.0971583"><ele>88.0</ele><time>2026-04-27T16:25:16.003Z</time></trkpt><trkpt lat="35.22623" lon="-6.0972233"><ele>88.0</ele><time>2026-04-27T16:25:17.003Z</time></trkpt><trkpt lat="35.2264383" lon="-6.097295"><ele>88.0</ele><time>2026-04-27T16:25:18.003Z</time></trkpt><trkpt lat="35.22666" lon="-6.0973683"><ele>96.0</ele><time>2026-04-27T16:25:19.002Z</time></trkpt><trkpt lat="35.2268917" lon="-6.0974567"><ele>104.0</ele><time>2026-04-27T16:25:20.003Z</time></trkpt><trkpt lat="35.2271267" lon="-6.0975583"><ele>104.0</ele><time>2026-04-27T16:25:21.003Z</time></trkpt><trkpt lat="35.2273567" lon="-6.09768"><ele>104.0</ele><time>2026-04-27T16:25:22.002Z</time></trkpt><trkpt lat="35.2275733" lon="-6.0978133"><ele>104.0</ele><time>2026-04-27T16:25:23.003Z</time></trkpt><trkpt lat="35.227775" lon="-6.0979617"><ele>104.0</ele><time>2026-04-27T16:25:24.003Z</time></trkpt><trkpt lat="35.2279783" lon="-6.09812"><ele>107.33333333333333</ele><time>2026-04-27T16:25:25.003Z</time></trkpt><trkpt lat="35.22817" lon="-6.0982767"><ele>110.66666666666666</ele><time>2026-04-27T16:25:26.003Z</time></trkpt><trkpt lat="35.2283467" lon="-6.0984317"><ele>114.0</ele><time>2026-04-27T16:25:27.003Z</time></trkpt><trkpt lat="35.2285117" lon="-6.098575"><ele>114.0</ele><time>2026-04-27T16:25:28.003Z</time></trkpt><trkpt lat="35.22867" lon="-6.0987067"><ele>114.0</ele><time>2026-04-27T16:25:29.003Z</time></trkpt><trkpt lat="35.2288217" lon="-6.0988367"><ele>114.0</ele><time>2026-04-27T16:25:30.003Z</time></trkpt><trkpt lat="35.22897" lon="-6.0989567"><ele>113.33333333333334</ele><time>2026-04-27T16:25:31.003Z</time></trkpt><trkpt lat="35.22912" lon="-6.0990717"><ele>112.66666666666667</ele><time>2026-04-27T16:25:32.003Z</time></trkpt><trkpt lat="35.2292833" lon="-6.09917"><ele>112.0</ele><time>2026-04-27T16:25:33.003Z</time></trkpt><trkpt lat="35.229445" lon="-6.0992533"><ele>115.0</ele><time>2026-04-27T16:25:34.003Z</time></trkpt><trkpt lat="35.2296117" lon="-6.0993217"><ele>118.0</ele><time>2026-04-27T16:25:35.003Z</time></trkpt><trkpt lat="35.229775" lon="-6.099385"><ele>121.0</ele><time>2026-04-27T16:25:36.003Z</time></trkpt><trkpt lat="35.2299383" lon="-6.09944"><ele>122.66666666666667</ele><time>2026-04-27T16:25:37.003Z</time></trkpt><trkpt lat="35.2300883" lon="-6.0994967"><ele>124.33333333333334</ele><time>2026-04-27T16:25:38.003Z</time></trkpt><trkpt lat="35.2302367" lon="-6.099545"><ele>126.0</ele><time>2026-04-27T16:25:39.003Z</time></trkpt><trkpt lat="35.2303767" lon="-6.0995833"><ele>126.0</ele><time>2026-04-27T16:25:40.002Z</time></trkpt><trkpt lat="35.23051" lon="-6.0996183"><ele>126.0</ele><time>2026-04-27T16:25:41.003Z</time></trkpt><trkpt lat="35.2306333" lon="-6.09965"><ele>126.0</ele><time>2026-04-27T16:25:42.003Z</time></trkpt><trkpt lat="35.23076" lon="-6.0996817"><ele>126.0</ele><time>2026-04-27T16:25:43.003Z</time></trkpt><trkpt lat="35.2308883" lon="-6.09971"><ele>126.0</ele><time>2026-04-27T16:25:44.003Z</time></trkpt><trkpt lat="35.2310183" lon="-6.0997333"><ele>126.0</ele><time>2026-04-27T16:25:45.003Z</time></trkpt><trkpt lat="35.2311533" lon="-6.0997483"><ele>126.0</ele><time>2026-04-27T16:25:46.003Z</time></trkpt><trkpt lat="35.2312917" lon="-6.0997667"><ele>126.0</ele><time>2026-04-27T16:25:47.003Z</time></trkpt><trkpt lat="35.2314333" lon="-6.099765"><ele>127.0</ele><time>2026-04-27T16:25:48.003Z</time></trkpt><trkpt lat="35.2315817" lon="-6.099765"><ele>128.0</ele><time>2026-04-27T16:25:49.003Z</time></trkpt><trkpt lat="35.2317433" lon="-6.0997517"><ele>129.0</ele><time>2026-04-27T16:25:50.003Z</time></trkpt><trkpt lat="35.2319133" lon="-6.0997267"><ele>129.0</ele><time>2026-04-27T16:25:51.002Z</time></trkpt><trkpt lat="35.232085" lon="-6.0996933"><ele>129.0</ele><time>2026-04-27T16:25:52.003Z</time></trkpt><trkpt lat="35.2322467" lon="-6.0996633"><ele>129.0</ele><time>2026-04-27T16:25:53.003Z</time></trkpt><trkpt lat="35.232405" lon="-6.0996317"><ele>129.66666666666666</ele><time>2026-04-27T16:25:54.003Z</time></trkpt><trkpt lat="35.2325617" lon="-6.099605"><ele>130.33333333333331</ele><time>2026-04-27T16:25:55.003Z</time></trkpt><trkpt lat="35.23274" lon="-6.099575"><ele>131.0</ele><time>2026-04-27T16:25:56.003Z</time></trkpt><trkpt lat="35.232935" lon="-6.0995383"><ele>131.0</ele><time>2026-04-27T16:25:57.003Z</time></trkpt><trkpt lat="35.2331367" lon="-6.0994983"><ele>131.0</ele><time>2026-04-27T16:25:58.003Z</time></trkpt><trkpt lat="35.2333467" lon="-6.0994533"><ele>131.0</ele><time>2026-04-27T16:25:59.003Z</time></trkpt><trkpt lat="35.2335617" lon="-6.0994133"><ele>131.66666666666666</ele><time>2026-04-27T16:26:00.003Z</time></trkpt><trkpt lat="35.2337733" lon="-6.099365"><ele>132.33333333333334</ele><time>2026-04-27T16:26:01.002Z</time></trkpt><trkpt lat="35.23396" lon="-6.0993217"><ele>133.0</ele><time>2026-04-27T16:26:02.003Z</time></trkpt><trkpt lat="35.2341367" lon="-6.099265"><ele>134.0</ele><time>2026-04-27T16:26:03.003Z</time></trkpt><trkpt lat="35.2343067" lon="-6.0992117"><ele>135.0</ele><time>2026-04-27T16:26:04.003Z</time></trkpt><trkpt lat="35.2344783" lon="-6.0991617"><ele>136.0</ele><time>2026-04-27T16:26:05.003Z</time></trkpt><trkpt lat="35.2346583" lon="-6.09912"><ele>136.33333333333334</ele><time>2026-04-27T16:26:06.003Z</time></trkpt><trkpt lat="35.2348383" lon="-6.0990867"><ele>136.66666666666666</ele><time>2026-04-27T16:26:07.003Z</time></trkpt><trkpt lat="35.2350133" lon="-6.0990467"><ele>137.0</ele><time>2026-04-27T16:26:08.003Z</time></trkpt><trkpt lat="35.2352" lon="-6.0990117"><ele>137.0</ele><time>2026-04-27T16:26:09.002Z</time></trkpt><trkpt lat="35.2353967" lon="-6.0989833"><ele>137.0</ele><time>2026-04-27T16:26:10.003Z</time></trkpt><trkpt lat="35.2356083" lon="-6.098945"><ele>137.0</ele><time>2026-04-27T16:26:11.003Z</time></trkpt><trkpt lat="35.2358233" lon="-6.0989"><ele>138.0</ele><time>2026-04-27T16:26:12.003Z</time></trkpt><trkpt lat="35.2360467" lon="-6.0988517"><ele>139.0</ele><time>2026-04-27T16:26:13.003Z</time></trkpt><trkpt lat="35.2362783" lon="-6.0988"><ele>140.0</ele><time>2026-04-27T16:26:14.003Z</time></trkpt><trkpt lat="35.23651" lon="-6.0987483"><ele>141.0</ele><time>2026-04-27T16:26:15.003Z</time></trkpt><trkpt lat="35.2367283" lon="-6.0987"><ele>141.0</ele><time>2026-04-27T16:26:16.003Z</time></trkpt><trkpt lat="35.2369317" lon="-6.098645"><ele>141.0</ele><time>2026-04-27T16:26:17.003Z</time></trkpt><trkpt lat="35.2371233" lon="-6.0985867"><ele>141.0</ele><time>2026-04-27T16:26:18.003Z</time></trkpt><trkpt lat="35.2373117" lon="-6.0985317"><ele>142.0</ele><time>2026-04-27T16:26:19.001Z</time></trkpt><trkpt lat="35.2374933" lon="-6.09847"><ele>143.0</ele><time>2026-04-27T16:26:20.001Z</time></trkpt><trkpt lat="35.2376683" lon="-6.0983933"><ele>144.0</ele><time>2026-04-27T16:26:21.002Z</time></trkpt><trkpt lat="35.2378467" lon="-6.098305"><ele>145.0</ele><time>2026-04-27T16:26:22.002Z</time></trkpt><trkpt lat="35.23802" lon="-6.098205"><ele>146.0</ele><time>2026-04-27T16:26:23.002Z</time></trkpt><trkpt lat="35.2381967" lon="-6.0980917"><ele>147.0</ele><time>2026-04-27T16:26:24.002Z</time></trkpt><trkpt lat="35.2383817" lon="-6.097975"><ele>147.0</ele><time>2026-04-27T16:26:25.002Z</time></trkpt><trkpt lat="35.2385767" lon="-6.0978567"><ele>147.0</ele><time>2026-04-27T16:26:26.001Z</time></trkpt><trkpt lat="35.238785" lon="-6.097735"><ele>147.0</ele><time>2026-04-27T16:26:27.002Z</time></trkpt><trkpt lat="35.2390033" lon="-6.0976217"><ele>149.5</ele><time>2026-04-27T16:26:28.002Z</time></trkpt><trkpt lat="35.239225" lon="-6.0975017"><ele>152.0</ele><time>2026-04-27T16:26:29.002Z</time></trkpt><trkpt lat="35.2394567" lon="-6.097365"><ele>152.0</ele><time>2026-04-27T16:26:30.002Z</time></trkpt><trkpt lat="35.23969" lon="-6.0972233"><ele>152.0</ele><time>2026-04-27T16:26:31.002Z</time></trkpt><trkpt lat="35.2399067" lon="-6.09708"><ele>152.33333333333331</ele><time>2026-04-27T16:26:32.001Z</time></trkpt><trkpt lat="35.240105" lon="-6.09696"><ele>152.66666666666666</ele><time>2026-04-27T16:26:33.002Z</time></trkpt><trkpt lat="35.2402933" lon="-6.0968467"><ele>153.0</ele><time>2026-04-27T16:26:34.001Z</time></trkpt><trkpt lat="35.2404733" lon="-6.0967383"><ele>152.66666666666666</ele><time>2026-04-27T16:26:35.002Z</time></trkpt><trkpt lat="35.2406467" lon="-6.096635"><ele>152.33333333333331</ele><time>2026-04-27T16:26:36.002Z</time></trkpt><trkpt lat="35.2408217" lon="-6.0965233"><ele>152.0</ele><time>2026-04-27T16:26:37.002Z</time></trkpt><trkpt lat="35.241005" lon="-6.0964083"><ele>152.0</ele><time>2026-04-27T16:26:38.002Z</time></trkpt><trkpt lat="35.2411933" lon="-6.096285"><ele>152.0</ele><time>2026-04-27T16:26:39.002Z</time></trkpt><trkpt lat="35.24139" lon="-6.096165"><ele>152.0</ele><time>2026-04-27T16:26:40.002Z</time></trkpt><trkpt lat="35.241575" lon="-6.09605"><ele>150.66666666666666</ele><time>2026-04-27T16:26:41.002Z</time></trkpt><trkpt lat="35.2417617" lon="-6.0959383"><ele>149.33333333333334</ele><time>2026-04-27T16:26:42.002Z</time></trkpt><trkpt lat="35.2419583" lon="-6.09583"><ele>148.0</ele><time>2026-04-27T16:26:43.002Z</time></trkpt><trkpt lat="35.242165" lon="-6.0957317"><ele>144.5</ele><time>2026-04-27T16:26:44.002Z</time></trkpt><trkpt lat="35.2423833" lon="-6.095645"><ele>141.0</ele><time>2026-04-27T16:26:45.002Z</time></trkpt><trkpt lat="35.242615" lon="-6.0955817"><ele>141.0</ele><time>2026-04-27T16:26:46.002Z</time></trkpt><trkpt lat="35.2428583" lon="-6.0955217"><ele>141.0</ele><time>2026-04-27T16:26:47.002Z</time></trkpt><trkpt lat="35.2431117" lon="-6.0954733"><ele>141.5</ele><time>2026-04-27T16:26:48.002Z</time></trkpt><trkpt lat="35.243355" lon="-6.0954283"><ele>142.0</ele><time>2026-04-27T16:26:49.002Z</time></trkpt><trkpt lat="35.2435767" lon="-6.0953917"><ele>142.0</ele><time>2026-04-27T16:26:50.002Z</time></trkpt><trkpt lat="35.2437783" lon="-6.0953567"><ele>142.0</ele><time>2026-04-27T16:26:51.002Z</time></trkpt><trkpt lat="35.24396" lon="-6.0953033"><ele>142.0</ele><time>2026-04-27T16:26:52.002Z</time></trkpt><trkpt lat="35.2441433" lon="-6.0952333"><ele>144.0</ele><time>2026-04-27T16:26:53.002Z</time></trkpt><trkpt lat="35.244315" lon="-6.0951167"><ele>146.0</ele><time>2026-04-27T16:26:54.002Z</time></trkpt><trkpt lat="35.2444567" lon="-6.0949733"><ele>148.0</ele><time>2026-04-27T16:26:55.002Z</time></trkpt><trkpt lat="35.244565" lon="-6.094785"><ele>149.0</ele><time>2026-04-27T16:26:56.002Z</time></trkpt><trkpt lat="35.2446533" lon="-6.09457"><ele>150.0</ele><time>2026-04-27T16:26:57.002Z</time></trkpt><trkpt lat="35.24471" lon="-6.0943317"><ele>151.0</ele><time>2026-04-27T16:26:58.002Z</time></trkpt><trkpt lat="35.2447317" lon="-6.0940783"><ele>152.66666666666669</ele><time>2026-04-27T16:26:59.002Z</time></trkpt><trkpt lat="35.2447267" lon="-6.093815"><ele>154.33333333333334</ele><time>2026-04-27T16:27:00.002Z</time></trkpt><trkpt lat="35.2447067" lon="-6.0935533"><ele>156.0</ele><time>2026-04-27T16:27:01.002Z</time></trkpt><trkpt lat="35.2447067" lon="-6.0932867"><ele>158.5</ele><time>2026-04-27T16:27:02.002Z</time></trkpt><trkpt lat="35.24473" lon="-6.0930117"><ele>161.0</ele><time>2026-04-27T16:27:03.001Z</time></trkpt><trkpt lat="35.2447733" lon="-6.0927367"><ele>161.5</ele><time>2026-04-27T16:27:04.002Z</time></trkpt><trkpt lat="35.2448517" lon="-6.0924583"><ele>162.0</ele><time>2026-04-27T16:27:05.002Z</time></trkpt><trkpt lat="35.244955" lon="-6.0921933"><ele>167.0</ele><time>2026-04-27T16:27:06.002Z</time></trkpt><trkpt lat="35.245095" lon="-6.0919283"><ele>172.0</ele><time>2026-04-27T16:27:07.002Z</time></trkpt><trkpt lat="35.2452583" lon="-6.0916567"><ele>177.5</ele><time>2026-04-27T16:27:08.002Z</time></trkpt><trkpt lat="35.2454283" lon="-6.09137"><ele>183.0</ele><time>2026-04-27T16:27:09.001Z</time></trkpt><trkpt lat="35.2455883" lon="-6.091085"><ele>182.5</ele><time>2026-04-27T16:27:10.002Z</time></trkpt><trkpt lat="35.2457283" lon="-6.0908067"><ele>182.0</ele><time>2026-04-27T16:27:11.002Z</time></trkpt><trkpt lat="35.2458567" lon="-6.0905483"><ele>182.0</ele><time>2026-04-27T16:27:12.001Z</time></trkpt><trkpt lat="35.2459767" lon="-6.0902967"><ele>182.0</ele><time>2026-04-27T16:27:13.002Z</time></trkpt><trkpt lat="35.2460917" lon="-6.09005"><ele>182.66666666666666</ele><time>2026-04-27T16:27:14.002Z</time></trkpt><trkpt lat="35.2462067" lon="-6.0898167"><ele>183.33333333333334</ele><time>2026-04-27T16:27:15.002Z</time></trkpt><trkpt lat="35.24633" lon="-6.0896083"><ele>184.0</ele><time>2026-04-27T16:27:16.002Z</time></trkpt><trkpt lat="35.24648" lon="-6.0894283"><ele>184.0</ele><time>2026-04-27T16:27:17.002Z</time></trkpt><trkpt lat="35.2466567" lon="-6.089275"><ele>184.0</ele><time>2026-04-27T16:27:18.002Z</time></trkpt><trkpt lat="35.2468583" lon="-6.0891617"><ele>184.0</ele><time>2026-04-27T16:27:19.002Z</time></trkpt><trkpt lat="35.2470733" lon="-6.0890717"><ele>183.0</ele><time>2026-04-27T16:27:20.002Z</time></trkpt><trkpt lat="35.2473017" lon="-6.0889817"><ele>182.0</ele><time>2026-04-27T16:27:21.002Z</time></trkpt><trkpt lat="35.2475283" lon="-6.088885"><ele>182.0</ele><time>2026-04-27T16:27:22.002Z</time></trkpt><trkpt lat="35.247735" lon="-6.0887933"><ele>182.0</ele><time>2026-04-27T16:27:23.002Z</time></trkpt><trkpt lat="35.2479317" lon="-6.0887167"><ele>182.0</ele><time>2026-04-27T16:27:24.002Z</time></trkpt><trkpt lat="35.248115" lon="-6.0886483"><ele>184.66666666666666</ele><time>2026-04-27T16:27:25.001Z</time></trkpt><trkpt lat="35.24828" lon="-6.088595"><ele>187.33333333333334</ele><time>2026-04-27T16:27:26.002Z</time></trkpt><trkpt lat="35.248435" lon="-6.088535"><ele>190.0</ele><time>2026-04-27T16:27:27.002Z</time></trkpt><trkpt lat="35.2485883" lon="-6.08848"><ele>190.0</ele><time>2026-04-27T16:27:28.002Z</time></trkpt><trkpt lat="35.2487383" lon="-6.0884283"><ele>190.0</ele><time>2026-04-27T16:27:29.002Z</time></trkpt><trkpt lat="35.248875" lon="-6.0883767"><ele>190.0</ele><time>2026-04-27T16:27:30.002Z</time></trkpt><trkpt lat="35.2490117" lon="-6.0883267"><ele>190.0</ele><time>2026-04-27T16:27:31.002Z</time></trkpt><trkpt lat="35.249135" lon="-6.0882767"><ele>189.66666666666669</ele><time>2026-04-27T16:27:32.001Z</time></trkpt><trkpt lat="35.2492383" lon="-6.0882333"><ele>189.33333333333334</ele><time>2026-04-27T16:27:33.002Z</time></trkpt><trkpt lat="35.2493183" lon="-6.0882067"><ele>189.0</ele><time>2026-04-27T16:27:34.001Z</time></trkpt><trkpt lat="35.2493883" lon="-6.0881833"><ele>188.66666666666666</ele><time>2026-04-27T16:27:35.002Z</time></trkpt><trkpt lat="35.2494567" lon="-6.0881517"><ele>188.33333333333331</ele><time>2026-04-27T16:27:36.002Z</time></trkpt><trkpt lat="35.2495267" lon="-6.0881267"><ele>188.0</ele><time>2026-04-27T16:27:37.001Z</time></trkpt><trkpt lat="35.2496067" lon="-6.0880933"><ele>188.0</ele><time>2026-04-27T16:27:38.001Z</time></trkpt><trkpt lat="35.2496917" lon="-6.0880533"><ele>188.0</ele><time>2026-04-27T16:27:39.002Z</time></trkpt><trkpt lat="35.2497833" lon="-6.0880233"><ele>188.0</ele><time>2026-04-27T16:27:40.002Z</time></trkpt><trkpt lat="35.2498767" lon="-6.0879917"><ele>188.0</ele><time>2026-04-27T16:27:41.002Z</time></trkpt><trkpt lat="35.2499783" lon="-6.0879567"><ele>188.0</ele><time>2026-04-27T16:27:42.002Z</time></trkpt><trkpt lat="35.25008" lon="-6.0879167"><ele>188.60000000000002</ele><time>2026-04-27T16:27:43.002Z</time></trkpt><trkpt lat="35.2501817" lon="-6.08787"><ele>189.20000000000002</ele><time>2026-04-27T16:27:44.002Z</time></trkpt><trkpt lat="35.25028" lon="-6.0878283"><ele>189.8</ele><time>2026-04-27T16:27:45.002Z</time></trkpt><trkpt lat="35.2503833" lon="-6.0877883"><ele>190.4</ele><time>2026-04-27T16:27:46.002Z</time></trkpt><trkpt lat="35.2504783" lon="-6.087755"><ele>191.0</ele><time>2026-04-27T16:27:47.002Z</time></trkpt><trkpt lat="35.2505717" lon="-6.08772"><ele>190.20000000000002</ele><time>2026-04-27T16:27:48.002Z</time></trkpt><trkpt lat="35.2506633" lon="-6.087685"><ele>189.4</ele><time>2026-04-27T16:27:49.002Z</time></trkpt><trkpt lat="35.2507483" lon="-6.0876467"><ele>188.6</ele><time>2026-04-27T16:27:50.002Z</time></trkpt><trkpt lat="35.2508283" lon="-6.0875983"><ele>187.8</ele><time>2026-04-27T16:27:51.002Z</time></trkpt><trkpt lat="35.250905" lon="-6.0875317"><ele>187.0</ele><time>2026-04-27T16:27:52.002Z</time></trkpt><trkpt lat="35.2509833" lon="-6.0874517"><ele>186.0</ele><time>2026-04-27T16:27:53.001Z</time></trkpt><trkpt lat="35.25105" lon="-6.0873567"><ele>185.0</ele><time>2026-04-27T16:27:54.002Z</time></trkpt><trkpt lat="35.2511083" lon="-6.0872583"><ele>184.0</ele><time>2026-04-27T16:27:55.001Z</time></trkpt><trkpt lat="35.25116" lon="-6.0871567"><ele>183.0</ele><time>2026-04-27T16:27:56.002Z</time></trkpt><trkpt lat="35.2511967" lon="-6.08705"><ele>182.0</ele><time>2026-04-27T16:27:57.001Z</time></trkpt><trkpt lat="35.2512183" lon="-6.0869433"><ele>182.0</ele><time>2026-04-27T16:27:58.002Z</time></trkpt><trkpt lat="35.25124" lon="-6.0868383"><ele>182.0</ele><time>2026-04-27T16:27:59.002Z</time></trkpt><trkpt lat="35.2512583" lon="-6.0867383"><ele>182.0</ele><time>2026-04-27T16:28:00.002Z</time></trkpt><trkpt lat="35.251285" lon="-6.086625"><ele>182.0</ele><time>2026-04-27T16:28:01.002Z</time></trkpt><trkpt lat="35.251315" lon="-6.0864883"><ele>182.0</ele><time>2026-04-27T16:28:02.002Z</time></trkpt><trkpt lat="35.2513467" lon="-6.0863367"><ele>183.5</ele><time>2026-04-27T16:28:03.002Z</time></trkpt><trkpt lat="35.25137" lon="-6.08618"><ele>185.0</ele><time>2026-04-27T16:28:04.002Z</time></trkpt><trkpt lat="35.2513867" lon="-6.0860267"><ele>186.5</ele><time>2026-04-27T16:28:05.002Z</time></trkpt><trkpt lat="35.251405" lon="-6.08588"><ele>188.0</ele><time>2026-04-27T16:28:06.002Z</time></trkpt><trkpt lat="35.2514317" lon="-6.0857417"><ele>188.4</ele><time>2026-04-27T16:28:07.002Z</time></trkpt><trkpt lat="35.2514517" lon="-6.08561"><ele>188.8</ele><time>2026-04-27T16:28:08.002Z</time></trkpt><trkpt lat="35.251475" lon="-6.085485"><ele>189.2</ele><time>2026-04-27T16:28:09.002Z</time></trkpt><trkpt lat="35.251495" lon="-6.0853667"><ele>189.6</ele><time>2026-04-27T16:28:10.002Z</time></trkpt><trkpt lat="35.25152" lon="-6.0852517"><ele>190.0</ele><time>2026-04-27T16:28:11.002Z</time></trkpt><trkpt lat="35.2515383" lon="-6.0851383"><ele>189.0</ele><time>2026-04-27T16:28:12.002Z</time></trkpt><trkpt lat="35.251555" lon="-6.0850283"><ele>188.0</ele><time>2026-04-27T16:28:13.002Z</time></trkpt><trkpt lat="35.2515733" lon="-6.0849133"><ele>187.0</ele><time>2026-04-27T16:28:14.002Z</time></trkpt><trkpt lat="35.2515867" lon="-6.0847917"><ele>186.0</ele><time>2026-04-27T16:28:15.002Z</time></trkpt><trkpt lat="35.2516033" lon="-6.08466"><ele>185.0</ele><time>2026-04-27T16:28:16.002Z</time></trkpt><trkpt lat="35.2516267" lon="-6.084525"><ele>185.0</ele><time>2026-04-27T16:28:17.002Z</time></trkpt><trkpt lat="35.2516467" lon="-6.0843933"><ele>185.0</ele><time>2026-04-27T16:28:18.002Z</time></trkpt><trkpt lat="35.2516667" lon="-6.0842633"><ele>185.0</ele><time>2026-04-27T16:28:19.002Z</time></trkpt><trkpt lat="35.2516917" lon="-6.0841417"><ele>185.0</ele><time>2026-04-27T16:28:20.002Z</time></trkpt><trkpt lat="35.2517167" lon="-6.084025"><ele>185.0</ele><time>2026-04-27T16:28:21.002Z</time></trkpt><trkpt lat="35.25175" lon="-6.0839067"><ele>185.4</ele><time>2026-04-27T16:28:22.002Z</time></trkpt><trkpt lat="35.25179" lon="-6.0837867"><ele>185.8</ele><time>2026-04-27T16:28:23.002Z</time></trkpt><trkpt lat="35.2518333" lon="-6.0836717"><ele>186.2</ele><time>2026-04-27T16:28:24.001Z</time></trkpt><trkpt lat="35.2518817" lon="-6.0835467"><ele>186.6</ele><time>2026-04-27T16:28:25.002Z</time></trkpt><trkpt lat="35.2519433" lon="-6.0834267"><ele>187.0</ele><time>2026-04-27T16:28:26.001Z</time></trkpt><trkpt lat="35.2520117" lon="-6.0833017"><ele>186.5</ele><time>2026-04-27T16:28:27.002Z</time></trkpt><trkpt lat="35.25209" lon="-6.0831767"><ele>186.0</ele><time>2026-04-27T16:28:28.002Z</time></trkpt><trkpt lat="35.252175" lon="-6.0830517"><ele>185.5</ele><time>2026-04-27T16:28:29.002Z</time></trkpt><trkpt lat="35.2522617" lon="-6.08293"><ele>185.0</ele><time>2026-04-27T16:28:30.002Z</time></trkpt><trkpt lat="35.2523467" lon="-6.08281"><ele>185.0</ele><time>2026-04-27T16:28:31.002Z</time></trkpt><trkpt lat="35.2524233" lon="-6.0826933"><ele>185.0</ele><time>2026-04-27T16:28:32.002Z</time></trkpt><trkpt lat="35.2524983" lon="-6.0825783"><ele>185.0</ele><time>2026-04-27T16:28:33.002Z</time></trkpt><trkpt lat="35.252565" lon="-6.0824767"><ele>185.0</ele><time>2026-04-27T16:28:34.002Z</time></trkpt><trkpt lat="35.2526167" lon="-6.0823833"><ele>185.0</ele><time>2026-04-27T16:28:35.002Z</time></trkpt><trkpt lat="35.252675" lon="-6.0823"><ele>184.4</ele><time>2026-04-27T16:28:36.001Z</time></trkpt><trkpt lat="35.2527333" lon="-6.0822217"><ele>183.8</ele><time>2026-04-27T16:28:37.002Z</time></trkpt><trkpt lat="35.25279" lon="-6.0821383"><ele>183.2</ele><time>2026-04-27T16:28:38.001Z</time></trkpt><trkpt lat="35.2528417" lon="-6.0820467"><ele>182.6</ele><time>2026-04-27T16:28:39.002Z</time></trkpt><trkpt lat="35.2529" lon="-6.0819617"><ele>182.0</ele><time>2026-04-27T16:28:40.002Z</time></trkpt><trkpt lat="35.252955" lon="-6.0818633"><ele>182.0</ele><time>2026-04-27T16:28:41.002Z</time></trkpt><trkpt lat="35.2530167" lon="-6.0817533"><ele>182.0</ele><time>2026-04-27T16:28:42.002Z</time></trkpt><trkpt lat="35.253085" lon="-6.0816433"><ele>182.0</ele><time>2026-04-27T16:28:43.002Z</time></trkpt><trkpt lat="35.2531667" lon="-6.08153"><ele>182.0</ele><time>2026-04-27T16:28:44.002Z</time></trkpt><trkpt lat="35.2532433" lon="-6.0814167"><ele>181.75</ele><time>2026-04-27T16:28:45.002Z</time></trkpt><trkpt lat="35.2533217" lon="-6.0813017"><ele>181.5</ele><time>2026-04-27T16:28:46.002Z</time></trkpt><trkpt lat="35.2533983" lon="-6.08119"><ele>181.25</ele><time>2026-04-27T16:28:47.001Z</time></trkpt><trkpt lat="35.253475" lon="-6.0810767"><ele>181.0</ele><time>2026-04-27T16:28:48.002Z</time></trkpt><trkpt lat="35.25356" lon="-6.08097"><ele>181.0</ele><time>2026-04-27T16:28:49.002Z</time></trkpt><trkpt lat="35.2536517" lon="-6.0808717"><ele>181.0</ele><time>2026-04-27T16:28:50.002Z</time></trkpt><trkpt lat="35.2537383" lon="-6.0807683"><ele>181.0</ele><time>2026-04-27T16:28:51.002Z</time></trkpt><trkpt lat="35.2538233" lon="-6.0806633"><ele>181.0</ele><time>2026-04-27T16:28:52.002Z</time></trkpt><trkpt lat="35.2539133" lon="-6.08057"><ele>180.75</ele><time>2026-04-27T16:28:53.002Z</time></trkpt><trkpt lat="35.254" lon="-6.0804733"><ele>180.5</ele><time>2026-04-27T16:28:54.002Z</time></trkpt><trkpt lat="35.2540883" lon="-6.0803817"><ele>180.25</ele><time>2026-04-27T16:28:55.002Z</time></trkpt><trkpt lat="35.2541933" lon="-6.0802967"><ele>180.0</ele><time>2026-04-27T16:28:56.001Z</time></trkpt><trkpt lat="35.2542983" lon="-6.0802083"><ele>180.0</ele><time>2026-04-27T16:28:57.001Z</time></trkpt><trkpt lat="35.2544117" lon="-6.08013"><ele>180.0</ele><time>2026-04-27T16:28:58.002Z</time></trkpt><trkpt lat="35.2545283" lon="-6.0800467"><ele>180.0</ele><time>2026-04-27T16:28:59.001Z</time></trkpt><trkpt lat="35.2546533" lon="-6.0799683"><ele>180.0</ele><time>2026-04-27T16:29:00.002Z</time></trkpt><trkpt lat="35.2547783" lon="-6.079885"><ele>180.75</ele><time>2026-04-27T16:29:01.002Z</time></trkpt><trkpt lat="35.2549083" lon="-6.07981"><ele>181.5</ele><time>2026-04-27T16:29:02.002Z</time></trkpt><trkpt lat="35.255035" lon="-6.07972"><ele>182.25</ele><time>2026-04-27T16:29:03.002Z</time></trkpt><trkpt lat="35.2551567" lon="-6.0796383"><ele>183.0</ele><time>2026-04-27T16:29:04.002Z</time></trkpt><trkpt lat="35.2552717" lon="-6.07956"><ele>183.0</ele><time>2026-04-27T16:29:05.001Z</time></trkpt><trkpt lat="35.2553867" lon="-6.079485"><ele>183.0</ele><time>2026-04-27T16:29:06.002Z</time></trkpt><trkpt lat="35.2555083" lon="-6.0794167"><ele>183.0</ele><time>2026-04-27T16:29:07.002Z</time></trkpt><trkpt lat="35.2556333" lon="-6.07934"><ele>183.0</ele><time>2026-04-27T16:29:08.002Z</time></trkpt><trkpt lat="35.255745" lon="-6.07926"><ele>182.5</ele><time>2026-04-27T16:29:09.002Z</time></trkpt><trkpt lat="35.2558667" lon="-6.079185"><ele>182.0</ele><time>2026-04-27T16:29:10.002Z</time></trkpt><trkpt lat="35.255975" lon="-6.079125"><ele>181.5</ele><time>2026-04-27T16:29:11.002Z</time></trkpt><trkpt lat="35.2560867" lon="-6.0790633"><ele>181.0</ele><time>2026-04-27T16:29:12.002Z</time></trkpt><trkpt lat="35.256195" lon="-6.0789883"><ele>181.0</ele><time>2026-04-27T16:29:13.002Z</time></trkpt><trkpt lat="35.2563017" lon="-6.0789133"><ele>181.0</ele><time>2026-04-27T16:29:14.001Z</time></trkpt><trkpt lat="35.2564067" lon="-6.0788467"><ele>181.0</ele><time>2026-04-27T16:29:15.002Z</time></trkpt><trkpt lat="35.25651" lon="-6.078775"><ele>181.0</ele><time>2026-04-27T16:29:16.002Z</time></trkpt><trkpt lat="35.25661" lon="-6.078705"><ele>181.25</ele><time>2026-04-27T16:29:17.001Z</time></trkpt><trkpt lat="35.2567067" lon="-6.078625"><ele>181.5</ele><time>2026-04-27T16:29:18.002Z</time></trkpt><trkpt lat="35.2568083" lon="-6.0785267"><ele>181.75</ele><time>2026-04-27T16:29:19.002Z</time></trkpt><trkpt lat="35.2569083" lon="-6.0784233"><ele>182.0</ele><time>2026-04-27T16:29:20.002Z</time></trkpt><trkpt lat="35.2570117" lon="-6.0783133"><ele>182.0</ele><time>2026-04-27T16:29:21.002Z</time></trkpt><trkpt lat="35.2571267" lon="-6.0781917"><ele>182.0</ele><time>2026-04-27T16:29:22.002Z</time></trkpt><trkpt lat="35.2572433" lon="-6.0780667"><ele>182.0</ele><time>2026-04-27T16:29:23.002Z</time></trkpt><trkpt lat="35.2573567" lon="-6.07795"><ele>181.75</ele><time>2026-04-27T16:29:24.002Z</time></trkpt><trkpt lat="35.2574617" lon="-6.0778167"><ele>181.5</ele><time>2026-04-27T16:29:25.002Z</time></trkpt><trkpt lat="35.2575667" lon="-6.077695"><ele>181.25</ele><time>2026-04-27T16:29:26.002Z</time></trkpt><trkpt lat="35.2576683" lon="-6.077575"><ele>181.0</ele><time>2026-04-27T16:29:27.002Z</time></trkpt><trkpt lat="35.2577783" lon="-6.0774483"><ele>180.75</ele><time>2026-04-27T16:29:28.002Z</time></trkpt><trkpt lat="35.2578883" lon="-6.077325"><ele>180.5</ele><time>2026-04-27T16:29:29.002Z</time></trkpt><trkpt lat="35.2579983" lon="-6.077205"><ele>180.25</ele><time>2026-04-27T16:29:30.002Z</time></trkpt><trkpt lat="35.2581133" lon="-6.07709"><ele>180.0</ele><time>2026-04-27T16:29:31.002Z</time></trkpt><trkpt lat="35.25823" lon="-6.0769667"><ele>179.66666666666666</ele><time>2026-04-27T16:29:32.002Z</time></trkpt><trkpt lat="35.2583433" lon="-6.07684"><ele>179.33333333333331</ele><time>2026-04-27T16:29:33.002Z</time></trkpt><trkpt lat="35.2584583" lon="-6.076715"><ele>179.0</ele><time>2026-04-27T16:29:34.002Z</time></trkpt><trkpt lat="35.258575" lon="-6.0765883"><ele>179.0</ele><time>2026-04-27T16:29:35.002Z</time></trkpt><trkpt lat="35.2586867" lon="-6.076465"><ele>179.0</ele><time>2026-04-27T16:29:36.002Z</time></trkpt><trkpt lat="35.2587983" lon="-6.07634"><ele>179.0</ele><time>2026-04-27T16:29:37.002Z</time></trkpt><trkpt lat="35.258905" lon="-6.07622"><ele>179.0</ele><time>2026-04-27T16:29:38.002Z</time></trkpt><trkpt lat="35.2590083" lon="-6.0761083"><ele>179.25</ele><time>2026-04-27T16:29:39.001Z</time></trkpt><trkpt lat="35.2591083" lon="-6.0760133"><ele>179.5</ele><time>2026-04-27T16:29:40.002Z</time></trkpt><trkpt lat="35.259205" lon="-6.0759233"><ele>179.75</ele><time>2026-04-27T16:29:41.002Z</time></trkpt><trkpt lat="35.2593017" lon="-6.07583"><ele>180.0</ele><time>2026-04-27T16:29:42.001Z</time></trkpt><trkpt lat="35.2593933" lon="-6.0757233"><ele>180.75</ele><time>2026-04-27T16:29:43.002Z</time></trkpt><trkpt lat="35.2594967" lon="-6.0756217"><ele>181.5</ele><time>2026-04-27T16:29:44.002Z</time></trkpt><trkpt lat="35.25959" lon="-6.0755067"><ele>182.25</ele><time>2026-04-27T16:29:45.002Z</time></trkpt><trkpt lat="35.2596817" lon="-6.0753833"><ele>183.0</ele><time>2026-04-27T16:29:46.002Z</time></trkpt><trkpt lat="35.25978" lon="-6.0752683"><ele>182.75</ele><time>2026-04-27T16:29:47.002Z</time></trkpt><trkpt lat="35.2598667" lon="-6.0751617"><ele>182.5</ele><time>2026-04-27T16:29:48.002Z</time></trkpt><trkpt lat="35.2599533" lon="-6.07506"><ele>182.25</ele><time>2026-04-27T16:29:49.002Z</time></trkpt><trkpt lat="35.2600533" lon="-6.0749617"><ele>182.0</ele><time>2026-04-27T16:29:50.001Z</time></trkpt><trkpt lat="35.2601483" lon="-6.0748633"><ele>183.75</ele><time>2026-04-27T16:29:51.002Z</time></trkpt><trkpt lat="35.2602467" lon="-6.0747533"><ele>185.5</ele><time>2026-04-27T16:29:52.001Z</time></trkpt><trkpt lat="35.2603533" lon="-6.0746367"><ele>187.25</ele><time>2026-04-27T16:29:53.002Z</time></trkpt><trkpt lat="35.26047" lon="-6.0745133"><ele>189.0</ele><time>2026-04-27T16:29:54.002Z</time></trkpt><trkpt lat="35.2605983" lon="-6.074385"><ele>189.0</ele><time>2026-04-27T16:29:55.002Z</time></trkpt><trkpt lat="35.2607333" lon="-6.074255"><ele>189.0</ele><time>2026-04-27T16:29:56.002Z</time></trkpt><trkpt lat="35.26087" lon="-6.07411"><ele>189.0</ele><time>2026-04-27T16:29:57.002Z</time></trkpt><trkpt lat="35.2610067" lon="-6.0739467"><ele>189.0</ele><time>2026-04-27T16:29:58.002Z</time></trkpt><trkpt lat="35.2611517" lon="-6.0737867"><ele>189.0</ele><time>2026-04-27T16:29:59.002Z</time></trkpt><trkpt lat="35.2612967" lon="-6.07363"><ele>189.0</ele><time>2026-04-27T16:30:00.002Z</time></trkpt><trkpt lat="35.261445" lon="-6.0734983"><ele>187.33333333333334</ele><time>2026-04-27T16:30:01.002Z</time></trkpt><trkpt lat="35.2616017" lon="-6.0733817"><ele>185.66666666666669</ele><time>2026-04-27T16:30:02.002Z</time></trkpt><trkpt lat="35.2617633" lon="-6.0732683"><ele>184.0</ele><time>2026-04-27T16:30:03.002Z</time></trkpt><trkpt lat="35.2619333" lon="-6.0731617"><ele>183.66666666666669</ele><time>2026-04-27T16:30:04.002Z</time></trkpt><trkpt lat="35.2621067" lon="-6.07307"><ele>183.33333333333334</ele><time>2026-04-27T16:30:05.002Z</time></trkpt><trkpt lat="35.262285" lon="-6.0729983"><ele>183.0</ele><time>2026-04-27T16:30:06.001Z</time></trkpt><trkpt lat="35.2624733" lon="-6.0729167"><ele>183.66666666666666</ele><time>2026-04-27T16:30:07.002Z</time></trkpt><trkpt lat="35.26267" lon="-6.07282"><ele>184.33333333333331</ele><time>2026-04-27T16:30:08.002Z</time></trkpt><trkpt lat="35.26287" lon="-6.07272"><ele>185.0</ele><time>2026-04-27T16:30:09.002Z</time></trkpt><trkpt lat="35.26306" lon="-6.0726333"><ele>185.0</ele><time>2026-04-27T16:30:10.002Z</time></trkpt><trkpt lat="35.2632533" lon="-6.072545"><ele>185.0</ele><time>2026-04-27T16:30:11.001Z</time></trkpt><trkpt lat="35.2634467" lon="-6.07245"><ele>185.0</ele><time>2026-04-27T16:30:12.002Z</time></trkpt><trkpt lat="35.26365" lon="-6.0723467"><ele>184.66666666666666</ele><time>2026-04-27T16:30:13.002Z</time></trkpt><trkpt lat="35.263845" lon="-6.0722517"><ele>184.33333333333334</ele><time>2026-04-27T16:30:14.001Z</time></trkpt><trkpt lat="35.2640233" lon="-6.0721717"><ele>184.0</ele><time>2026-04-27T16:30:15.002Z</time></trkpt><trkpt lat="35.26419" lon="-6.0721067"><ele>183.66666666666669</ele><time>2026-04-27T16:30:16.002Z</time></trkpt><trkpt lat="35.26436" lon="-6.07203"><ele>183.33333333333334</ele><time>2026-04-27T16:30:17.002Z</time></trkpt><trkpt lat="35.264545" lon="-6.0719433"><ele>183.0</ele><time>2026-04-27T16:30:18.002Z</time></trkpt><trkpt lat="35.2647283" lon="-6.07184"><ele>184.0</ele><time>2026-04-27T16:30:19.001Z</time></trkpt><trkpt lat="35.2649067" lon="-6.0717433"><ele>185.0</ele><time>2026-04-27T16:30:20.002Z</time></trkpt><trkpt lat="35.26507" lon="-6.07165"><ele>186.0</ele><time>2026-04-27T16:30:21.001Z</time></trkpt><trkpt lat="35.2652317" lon="-6.0715717"><ele>186.66666666666666</ele><time>2026-04-27T16:30:22.002Z</time></trkpt><trkpt lat="35.2654" lon="-6.0714833"><ele>187.33333333333331</ele><time>2026-04-27T16:30:23.002Z</time></trkpt><trkpt lat="35.26558" lon="-6.0714033"><ele>188.0</ele><time>2026-04-27T16:30:24.002Z</time></trkpt><trkpt lat="35.26576" lon="-6.071315"><ele>188.66666666666666</ele><time>2026-04-27T16:30:25.002Z</time></trkpt><trkpt lat="35.26594" lon="-6.0712267"><ele>189.33333333333334</ele><time>2026-04-27T16:30:26.002Z</time></trkpt><trkpt lat="35.2661133" lon="-6.07114"><ele>190.0</ele><time>2026-04-27T16:30:27.002Z</time></trkpt><trkpt lat="35.2662867" lon="-6.071055"><ele>189.33333333333334</ele><time>2026-04-27T16:30:28.002Z</time></trkpt><trkpt lat="35.266465" lon="-6.0709717"><ele>188.66666666666666</ele><time>2026-04-27T16:30:29.002Z</time></trkpt><trkpt lat="35.26664" lon="-6.0708867"><ele>188.0</ele><time>2026-04-27T16:30:30.002Z</time></trkpt><trkpt lat="35.2668117" lon="-6.0708083"><ele>188.66666666666666</ele><time>2026-04-27T16:30:31.002Z</time></trkpt><trkpt lat="35.2669867" lon="-6.0707233"><ele>189.33333333333334</ele><time>2026-04-27T16:30:32.002Z</time></trkpt><trkpt lat="35.2671683" lon="-6.0706317"><ele>190.0</ele><time>2026-04-27T16:30:33.002Z</time></trkpt><trkpt lat="35.2673567" lon="-6.070535"><ele>190.33333333333334</ele><time>2026-04-27T16:30:34.002Z</time></trkpt><trkpt lat="35.2675383" lon="-6.070445"><ele>190.66666666666666</ele><time>2026-04-27T16:30:35.002Z</time></trkpt><trkpt lat="35.2677117" lon="-6.0703567"><ele>191.0</ele><time>2026-04-27T16:30:36.002Z</time></trkpt><trkpt lat="35.267885" lon="-6.0702733"><ele>191.0</ele><time>2026-04-27T16:30:37.002Z</time></trkpt><trkpt lat="35.2680533" lon="-6.070195"><ele>191.0</ele><time>2026-04-27T16:30:38.002Z</time></trkpt><trkpt lat="35.268215" lon="-6.0701183"><ele>191.0</ele><time>2026-04-27T16:30:39.001Z</time></trkpt><trkpt lat="35.2683717" lon="-6.0700433"><ele>191.33333333333331</ele><time>2026-04-27T16:30:40.002Z</time></trkpt><trkpt lat="35.2685317" lon="-6.0699667"><ele>191.66666666666666</ele><time>2026-04-27T16:30:41.002Z</time></trkpt><trkpt lat="35.2687117" lon="-6.0698933"><ele>192.0</ele><time>2026-04-27T16:30:42.002Z</time></trkpt><trkpt lat="35.2688933" lon="-6.0698117"><ele>192.0</ele><time>2026-04-27T16:30:43.002Z</time></trkpt><trkpt lat="35.2690783" lon="-6.0697217"><ele>192.0</ele><time>2026-04-27T16:30:44.002Z</time></trkpt><trkpt lat="35.2692583" lon="-6.0696317"><ele>192.0</ele><time>2026-04-27T16:30:45.001Z</time></trkpt><trkpt lat="35.26944" lon="-6.0695383"><ele>192.0</ele><time>2026-04-27T16:30:46.002Z</time></trkpt><trkpt lat="35.269615" lon="-6.0694333"><ele>192.0</ele><time>2026-04-27T16:30:47.002Z</time></trkpt><trkpt lat="35.26979" lon="-6.0693383"><ele>192.0</ele><time>2026-04-27T16:30:48.002Z</time></trkpt><trkpt lat="35.2699617" lon="-6.0692533"><ele>192.66666666666669</ele><time>2026-04-27T16:30:49.002Z</time></trkpt><trkpt lat="35.270135" lon="-6.069175"><ele>193.33333333333334</ele><time>2026-04-27T16:30:50.002Z</time></trkpt><trkpt lat="35.270305" lon="-6.0690967"><ele>194.0</ele><time>2026-04-27T16:30:51.002Z</time></trkpt><trkpt lat="35.2704833" lon="-6.06902"><ele>193.66666666666669</ele><time>2026-04-27T16:30:52.002Z</time></trkpt><trkpt lat="35.2706667" lon="-6.06895"><ele>193.33333333333331</ele><time>2026-04-27T16:30:53.002Z</time></trkpt><trkpt lat="35.27085" lon="-6.0689033"><ele>193.0</ele><time>2026-04-27T16:30:54.002Z</time></trkpt><trkpt lat="35.27104" lon="-6.0688767"><ele>193.0</ele><time>2026-04-27T16:30:55.002Z</time></trkpt><trkpt lat="35.2712267" lon="-6.0688683"><ele>193.0</ele><time>2026-04-27T16:30:56.002Z</time></trkpt><trkpt lat="35.271415" lon="-6.0688833"><ele>193.0</ele><time>2026-04-27T16:30:57.002Z</time></trkpt><trkpt lat="35.2716" lon="-6.068915"><ele>193.0</ele><time>2026-04-27T16:30:58.001Z</time></trkpt><trkpt lat="35.2717717" lon="-6.0689683"><ele>193.0</ele><time>2026-04-27T16:30:59.002Z</time></trkpt><trkpt lat="35.2719383" lon="-6.0690133"><ele>193.0</ele><time>2026-04-27T16:31:00.002Z</time></trkpt><trkpt lat="35.2721067" lon="-6.06906"><ele>193.0</ele><time>2026-04-27T16:31:01.002Z</time></trkpt><trkpt lat="35.2722683" lon="-6.0691017"><ele>193.0</ele><time>2026-04-27T16:31:02.001Z</time></trkpt><trkpt lat="35.2724367" lon="-6.0691533"><ele>193.0</ele><time>2026-04-27T16:31:03.002Z</time></trkpt><trkpt lat="35.2726033" lon="-6.06921"><ele>194.0</ele><time>2026-04-27T16:31:04.002Z</time></trkpt><trkpt lat="35.272775" lon="-6.0692617"><ele>195.0</ele><time>2026-04-27T16:31:05.002Z</time></trkpt><trkpt lat="35.272945" lon="-6.06932"><ele>196.0</ele><time>2026-04-27T16:31:06.002Z</time></trkpt><trkpt lat="35.2731167" lon="-6.069385"><ele>196.0</ele><time>2026-04-27T16:31:07.002Z</time></trkpt><trkpt lat="35.273295" lon="-6.0694483"><ele>196.0</ele><time>2026-04-27T16:31:08.002Z</time></trkpt><trkpt lat="35.2734717" lon="-6.06951"><ele>196.0</ele><time>2026-04-27T16:31:09.002Z</time></trkpt><trkpt lat="35.2736417" lon="-6.0695683"><ele>196.0</ele><time>2026-04-27T16:31:10.002Z</time></trkpt><trkpt lat="35.2738017" lon="-6.06962"><ele>196.0</ele><time>2026-04-27T16:31:11.002Z</time></trkpt><trkpt lat="35.273965" lon="-6.06966"><ele>196.0</ele><time>2026-04-27T16:31:12.002Z</time></trkpt><trkpt lat="35.2741433" lon="-6.069685"><ele>194.66666666666666</ele><time>2026-04-27T16:31:13.002Z</time></trkpt><trkpt lat="35.2743267" lon="-6.0696967"><ele>193.33333333333331</ele><time>2026-04-27T16:31:14.002Z</time></trkpt><trkpt lat="35.2745083" lon="-6.0696883"><ele>192.0</ele><time>2026-04-27T16:31:15.002Z</time></trkpt><trkpt lat="35.2747033" lon="-6.0696583"><ele>192.0</ele><time>2026-04-27T16:31:16.001Z</time></trkpt><trkpt lat="35.2749083" lon="-6.0696133"><ele>192.0</ele><time>2026-04-27T16:31:17.002Z</time></trkpt><trkpt lat="35.2751167" lon="-6.0695633"><ele>192.0</ele><time>2026-04-27T16:31:18.002Z</time></trkpt><trkpt lat="35.2753183" lon="-6.0695233"><ele>192.0</ele><time>2026-04-27T16:31:19.001Z</time></trkpt><trkpt lat="35.275505" lon="-6.0694917"><ele>192.0</ele><time>2026-04-27T16:31:20.002Z</time></trkpt><trkpt lat="35.275685" lon="-6.0694683"><ele>192.0</ele><time>2026-04-27T16:31:21.002Z</time></trkpt><trkpt lat="35.2758617" lon="-6.06942"><ele>191.66666666666666</ele><time>2026-04-27T16:31:22.002Z</time></trkpt><trkpt lat="35.2760417" lon="-6.06939"><ele>191.33333333333331</ele><time>2026-04-27T16:31:23.002Z</time></trkpt><trkpt lat="35.27621" lon="-6.069365"><ele>191.0</ele><time>2026-04-27T16:31:24.002Z</time></trkpt><trkpt lat="35.2763667" lon="-6.06933"><ele>190.66666666666666</ele><time>2026-04-27T16:31:25.002Z</time></trkpt><trkpt lat="35.276525" lon="-6.0693"><ele>190.33333333333334</ele><time>2026-04-27T16:31:26.002Z</time></trkpt><trkpt lat="35.2766883" lon="-6.0692617"><ele>190.0</ele><time>2026-04-27T16:31:27.002Z</time></trkpt><trkpt lat="35.276855" lon="-6.06922"><ele>190.0</ele><time>2026-04-27T16:31:28.002Z</time></trkpt><trkpt lat="35.2770183" lon="-6.0691667"><ele>190.0</ele><time>2026-04-27T16:31:29.002Z</time></trkpt><trkpt lat="35.2771767" lon="-6.0691017"><ele>190.0</ele><time>2026-04-27T16:31:30.002Z</time></trkpt><trkpt lat="35.2773367" lon="-6.0690167"><ele>189.33333333333334</ele><time>2026-04-27T16:31:31.002Z</time></trkpt><trkpt lat="35.2774917" lon="-6.068915"><ele>188.66666666666666</ele><time>2026-04-27T16:31:32.002Z</time></trkpt><trkpt lat="35.27764" lon="-6.0687917"><ele>188.0</ele><time>2026-04-27T16:31:33.002Z</time></trkpt><trkpt lat="35.27778" lon="-6.068655"><ele>188.0</ele><time>2026-04-27T16:31:34.002Z</time></trkpt><trkpt lat="35.2779133" lon="-6.0685"><ele>188.0</ele><time>2026-04-27T16:31:35.001Z</time></trkpt><trkpt lat="35.27804" lon="-6.068335"><ele>188.0</ele><time>2026-04-27T16:31:36.002Z</time></trkpt><trkpt lat="35.2781667" lon="-6.0681633"><ele>188.33333333333331</ele><time>2026-04-27T16:31:37.002Z</time></trkpt><trkpt lat="35.2782767" lon="-6.0679817"><ele>188.66666666666666</ele><time>2026-04-27T16:31:38.001Z</time></trkpt><trkpt lat="35.278395" lon="-6.0678"><ele>189.0</ele><time>2026-04-27T16:31:39.002Z</time></trkpt><trkpt lat="35.278525" lon="-6.0676233"><ele>189.0</ele><time>2026-04-27T16:31:40.002Z</time></trkpt><trkpt lat="35.2786517" lon="-6.06745"><ele>189.0</ele><time>2026-04-27T16:31:41.002Z</time></trkpt><trkpt lat="35.2787783" lon="-6.0672767"><ele>189.0</ele><time>2026-04-27T16:31:42.001Z</time></trkpt><trkpt lat="35.2789017" lon="-6.067105"><ele>191.0</ele><time>2026-04-27T16:31:43.002Z</time></trkpt><trkpt lat="35.279025" lon="-6.0669333"><ele>193.0</ele><time>2026-04-27T16:31:44.002Z</time></trkpt><trkpt lat="35.2791517" lon="-6.0667567"><ele>195.0</ele><time>2026-04-27T16:31:45.002Z</time></trkpt><trkpt lat="35.2792783" lon="-6.0665783"><ele>195.0</ele><time>2026-04-27T16:31:46.002Z</time></trkpt><trkpt lat="35.2794067" lon="-6.0664017"><ele>195.0</ele><time>2026-04-27T16:31:47.001Z</time></trkpt><trkpt lat="35.2795383" lon="-6.066225"><ele>195.0</ele><time>2026-04-27T16:31:48.002Z</time></trkpt><trkpt lat="35.2796667" lon="-6.0660517"><ele>197.0</ele><time>2026-04-27T16:31:49.002Z</time></trkpt><trkpt lat="35.2798017" lon="-6.06588"><ele>199.0</ele><time>2026-04-27T16:31:50.002Z</time></trkpt><trkpt lat="35.279935" lon="-6.065715"><ele>201.0</ele><time>2026-04-27T16:31:51.002Z</time></trkpt><trkpt lat="35.2800717" lon="-6.0655467"><ele>201.0</ele><time>2026-04-27T16:31:52.002Z</time></trkpt><trkpt lat="35.2802183" lon="-6.06538"><ele>201.0</ele><time>2026-04-27T16:31:53.001Z</time></trkpt><trkpt lat="35.28038" lon="-6.065215"><ele>201.0</ele><time>2026-04-27T16:31:54.002Z</time></trkpt><trkpt lat="35.2805617" lon="-6.0650467"><ele>200.0</ele><time>2026-04-27T16:31:55.002Z</time></trkpt><trkpt lat="35.2807517" lon="-6.06487"><ele>199.0</ele><time>2026-04-27T16:31:56.002Z</time></trkpt><trkpt lat="35.280955" lon="-6.06469"><ele>199.0</ele><time>2026-04-27T16:31:57.002Z</time></trkpt><trkpt lat="35.28117" lon="-6.0645033"><ele>199.0</ele><time>2026-04-27T16:31:58.001Z</time></trkpt><trkpt lat="35.2813817" lon="-6.06432"><ele>199.0</ele><time>2026-04-27T16:31:59.001Z</time></trkpt><trkpt lat="35.281585" lon="-6.064145"><ele>199.0</ele><time>2026-04-27T16:32:00.001Z</time></trkpt><trkpt lat="35.281785" lon="-6.06398"><ele>199.0</ele><time>2026-04-27T16:32:01Z</time></trkpt><trkpt lat="35.2819717" lon="-6.06382"><ele>199.0</ele><time>2026-04-27T16:32:02.001Z</time></trkpt><trkpt lat="35.2821567" lon="-6.0636567"><ele>199.0</ele><time>2026-04-27T16:32:03.001Z</time></trkpt><trkpt lat="35.2823317" lon="-6.0634917"><ele>199.0</ele><time>2026-04-27T16:32:04.001Z</time></trkpt><trkpt lat="35.2825117" lon="-6.0633367"><ele>199.0</ele><time>2026-04-27T16:32:05.001Z</time></trkpt><trkpt lat="35.28268" lon="-6.06318"><ele>199.0</ele><time>2026-04-27T16:32:06.001Z</time></trkpt><trkpt lat="35.2828367" lon="-6.0630217"><ele>199.0</ele><time>2026-04-27T16:32:07.001Z</time></trkpt><trkpt lat="35.2829767" lon="-6.0628433"><ele>199.0</ele><time>2026-04-27T16:32:08.001Z</time></trkpt><trkpt lat="35.2831167" lon="-6.062665"><ele>200.0</ele><time>2026-04-27T16:32:09.001Z</time></trkpt><trkpt lat="35.2832467" lon="-6.0624733"><ele>201.0</ele><time>2026-04-27T16:32:10Z</time></trkpt><trkpt lat="35.28336" lon="-6.0622567"><ele>202.0</ele><time>2026-04-27T16:32:11.001Z</time></trkpt><trkpt lat="35.2834717" lon="-6.0620317"><ele>202.0</ele><time>2026-04-27T16:32:12.001Z</time></trkpt><trkpt lat="35.2835833" lon="-6.0618"><ele>202.0</ele><time>2026-04-27T16:32:13.001Z</time></trkpt><trkpt lat="35.28369" lon="-6.0615683"><ele>202.0</ele><time>2026-04-27T16:32:14.001Z</time></trkpt><trkpt lat="35.2837967" lon="-6.0613333"><ele>202.33333333333331</ele><time>2026-04-27T16:32:15.001Z</time></trkpt><trkpt lat="35.2839067" lon="-6.061105"><ele>202.66666666666669</ele><time>2026-04-27T16:32:16.001Z</time></trkpt><trkpt lat="35.2840167" lon="-6.0608833"><ele>203.0</ele><time>2026-04-27T16:32:17.001Z</time></trkpt><trkpt lat="35.28413" lon="-6.06065"><ele>203.66666666666669</ele><time>2026-04-27T16:32:18.001Z</time></trkpt><trkpt lat="35.28424" lon="-6.0604217"><ele>204.33333333333331</ele><time>2026-04-27T16:32:19.001Z</time></trkpt><trkpt lat="35.2843517" lon="-6.06019"><ele>205.0</ele><time>2026-04-27T16:32:20.001Z</time></trkpt><trkpt lat="35.284465" lon="-6.0599583"><ele>204.0</ele><time>2026-04-27T16:32:21.001Z</time></trkpt><trkpt lat="35.2845783" lon="-6.0597217"><ele>203.0</ele><time>2026-04-27T16:32:22.001Z</time></trkpt><trkpt lat="35.2846967" lon="-6.05948"><ele>204.66666666666669</ele><time>2026-04-27T16:32:23.001Z</time></trkpt><trkpt lat="35.2848067" lon="-6.059245"><ele>206.33333333333331</ele><time>2026-04-27T16:32:24.001Z</time></trkpt><trkpt lat="35.284915" lon="-6.059005"><ele>208.0</ele><time>2026-04-27T16:32:25.001Z</time></trkpt><trkpt lat="35.285025" lon="-6.05876"><ele>208.0</ele><time>2026-04-27T16:32:26.001Z</time></trkpt><trkpt lat="35.28513" lon="-6.058515"><ele>208.0</ele><time>2026-04-27T16:32:27.001Z</time></trkpt><trkpt lat="35.2852317" lon="-6.05826"><ele>206.0</ele><time>2026-04-27T16:32:28.001Z</time></trkpt><trkpt lat="35.28534" lon="-6.0579983"><ele>204.0</ele><time>2026-04-27T16:32:29.001Z</time></trkpt><trkpt lat="35.2854517" lon="-6.0577383"><ele>204.0</ele><time>2026-04-27T16:32:30Z</time></trkpt><trkpt lat="35.2855667" lon="-6.0574867"><ele>204.0</ele><time>2026-04-27T16:32:31.001Z</time></trkpt><trkpt lat="35.2856683" lon="-6.0572333"><ele>204.66666666666669</ele><time>2026-04-27T16:32:32.001Z</time></trkpt><trkpt lat="35.2857583" lon="-6.0569917"><ele>205.33333333333334</ele><time>2026-04-27T16:32:33.001Z</time></trkpt><trkpt lat="35.2858567" lon="-6.0567633"><ele>206.0</ele><time>2026-04-27T16:32:34.001Z</time></trkpt><trkpt lat="35.28595" lon="-6.056535"><ele>206.0</ele><time>2026-04-27T16:32:35.001Z</time></trkpt><trkpt lat="35.2860483" lon="-6.05632"><ele>206.0</ele><time>2026-04-27T16:32:36.001Z</time></trkpt><trkpt lat="35.2861383" lon="-6.0561067"><ele>206.0</ele><time>2026-04-27T16:32:37.001Z</time></trkpt><trkpt lat="35.2862217" lon="-6.055895"><ele>205.66666666666669</ele><time>2026-04-27T16:32:38.001Z</time></trkpt><trkpt lat="35.2862917" lon="-6.0556767"><ele>205.33333333333331</ele><time>2026-04-27T16:32:39.001Z</time></trkpt><trkpt lat="35.2863483" lon="-6.0554567"><ele>205.0</ele><time>2026-04-27T16:32:40.001Z</time></trkpt><trkpt lat="35.2863883" lon="-6.055225"><ele>205.0</ele><time>2026-04-27T16:32:41Z</time></trkpt><trkpt lat="35.2864067" lon="-6.05499"><ele>205.0</ele><time>2026-04-27T16:32:42Z</time></trkpt><trkpt lat="35.2864067" lon="-6.0547467"><ele>205.0</ele><time>2026-04-27T16:32:43.001Z</time></trkpt><trkpt lat="35.2863983" lon="-6.0544917"><ele>205.0</ele><time>2026-04-27T16:32:44.001Z</time></trkpt><trkpt lat="35.2863717" lon="-6.0542317"><ele>205.0</ele><time>2026-04-27T16:32:45.001Z</time></trkpt><trkpt lat="35.2863533" lon="-6.0539617"><ele>205.0</ele><time>2026-04-27T16:32:46.001Z</time></trkpt><trkpt lat="35.2863317" lon="-6.053685"><ele>204.5</ele><time>2026-04-27T16:32:47Z</time></trkpt><trkpt lat="35.2863167" lon="-6.053405"><ele>204.0</ele><time>2026-04-27T16:32:48.001Z</time></trkpt><trkpt lat="35.2862883" lon="-6.053115"><ele>204.0</ele><time>2026-04-27T16:32:49.001Z</time></trkpt><trkpt lat="35.2862617" lon="-6.0528133"><ele>204.0</ele><time>2026-04-27T16:32:50.001Z</time></trkpt><trkpt lat="35.2862367" lon="-6.0525283"><ele>202.5</ele><time>2026-04-27T16:32:51.001Z</time></trkpt><trkpt lat="35.2862067" lon="-6.05223"><ele>201.0</ele><time>2026-04-27T16:32:52.001Z</time></trkpt><trkpt lat="35.2861767" lon="-6.0519317"><ele>200.0</ele><time>2026-04-27T16:32:53.001Z</time></trkpt><trkpt lat="35.28615" lon="-6.0516217"><ele>199.0</ele><time>2026-04-27T16:32:54.001Z</time></trkpt><trkpt lat="35.28612" lon="-6.051295"><ele>199.0</ele><time>2026-04-27T16:32:55Z</time></trkpt><trkpt lat="35.286095" lon="-6.0509567"><ele>199.0</ele><time>2026-04-27T16:32:56.001Z</time></trkpt><trkpt lat="35.2860667" lon="-6.05061"><ele>199.0</ele><time>2026-04-27T16:32:57.001Z</time></trkpt><trkpt lat="35.2860417" lon="-6.0502717"><ele>199.0</ele><time>2026-04-27T16:32:58.001Z</time></trkpt><trkpt lat="35.28602" lon="-6.0499533"><ele>198.5</ele><time>2026-04-27T16:32:59.001Z</time></trkpt><trkpt lat="35.285995" lon="-6.0496433"><ele>198.0</ele><time>2026-04-27T16:33:00.001Z</time></trkpt><trkpt lat="35.2859667" lon="-6.0493483"><ele>196.5</ele><time>2026-04-27T16:33:01.001Z</time></trkpt><trkpt lat="35.2859417" lon="-6.0490533"><ele>195.0</ele><time>2026-04-27T16:33:02.001Z</time></trkpt><trkpt lat="35.2859133" lon="-6.0487617"><ele>195.0</ele><time>2026-04-27T16:33:03.001Z</time></trkpt><trkpt lat="35.28589" lon="-6.0484583"><ele>195.0</ele><time>2026-04-27T16:33:04.001Z</time></trkpt><trkpt lat="35.285865" lon="-6.0481633"><ele>195.0</ele><time>2026-04-27T16:33:05.001Z</time></trkpt><trkpt lat="35.2858333" lon="-6.0478883"><ele>195.0</ele><time>2026-04-27T16:33:06.001Z</time></trkpt><trkpt lat="35.285805" lon="-6.0476167"><ele>196.0</ele><time>2026-04-27T16:33:07Z</time></trkpt><trkpt lat="35.2857883" lon="-6.0473467"><ele>197.0</ele><time>2026-04-27T16:33:08.001Z</time></trkpt><trkpt lat="35.2857817" lon="-6.0470917"><ele>198.0</ele><time>2026-04-27T16:33:09.001Z</time></trkpt><trkpt lat="35.2857917" lon="-6.0468283"><ele>197.66666666666669</ele><time>2026-04-27T16:33:10.001Z</time></trkpt><trkpt lat="35.2858283" lon="-6.0465617"><ele>197.33333333333334</ele><time>2026-04-27T16:33:11.001Z</time></trkpt><trkpt lat="35.2858883" lon="-6.0462933"><ele>197.0</ele><time>2026-04-27T16:33:12.001Z</time></trkpt><trkpt lat="35.285975" lon="-6.0460167"><ele>197.5</ele><time>2026-04-27T16:33:13.001Z</time></trkpt><trkpt lat="35.28607" lon="-6.0457517"><ele>198.0</ele><time>2026-04-27T16:33:14.001Z</time></trkpt><trkpt lat="35.286175" lon="-6.0454833"><ele>198.0</ele><time>2026-04-27T16:33:15.001Z</time></trkpt><trkpt lat="35.28628" lon="-6.0452183"><ele>198.0</ele><time>2026-04-27T16:33:16.001Z</time></trkpt><trkpt lat="35.2863933" lon="-6.0449417"><ele>200.0</ele><time>2026-04-27T16:33:17.001Z</time></trkpt><trkpt lat="35.2865017" lon="-6.0446683"><ele>202.0</ele><time>2026-04-27T16:33:18.001Z</time></trkpt><trkpt lat="35.28661" lon="-6.0444133"><ele>202.0</ele><time>2026-04-27T16:33:19.001Z</time></trkpt><trkpt lat="35.2867183" lon="-6.04416"><ele>202.0</ele><time>2026-04-27T16:33:20.001Z</time></trkpt><trkpt lat="35.2868117" lon="-6.0439133"><ele>202.66666666666666</ele><time>2026-04-27T16:33:21Z</time></trkpt><trkpt lat="35.2869017" lon="-6.0436667"><ele>203.33333333333331</ele><time>2026-04-27T16:33:22.001Z</time></trkpt><trkpt lat="35.2869933" lon="-6.0434217"><ele>204.0</ele><time>2026-04-27T16:33:23.001Z</time></trkpt><trkpt lat="35.2870867" lon="-6.0431833"><ele>203.66666666666669</ele><time>2026-04-27T16:33:24.001Z</time></trkpt><trkpt lat="35.2871867" lon="-6.0429433"><ele>203.33333333333334</ele><time>2026-04-27T16:33:25.001Z</time></trkpt><trkpt lat="35.2872967" lon="-6.042705"><ele>203.0</ele><time>2026-04-27T16:33:26.001Z</time></trkpt><trkpt lat="35.28742" lon="-6.0424767"><ele>201.5</ele><time>2026-04-27T16:33:27.001Z</time></trkpt><trkpt lat="35.2875583" lon="-6.0422583"><ele>200.0</ele><time>2026-04-27T16:33:28.001Z</time></trkpt><trkpt lat="35.2877133" lon="-6.0420467"><ele>200.0</ele><time>2026-04-27T16:33:29.001Z</time></trkpt><trkpt lat="35.2878783" lon="-6.0418483"><ele>200.0</ele><time>2026-04-27T16:33:30.001Z</time></trkpt><trkpt lat="35.2880533" lon="-6.041645"><ele>200.66666666666669</ele><time>2026-04-27T16:33:31.001Z</time></trkpt><trkpt lat="35.288235" lon="-6.041465"><ele>201.33333333333331</ele><time>2026-04-27T16:33:32.001Z</time></trkpt><trkpt lat="35.2884033" lon="-6.041305"><ele>202.0</ele><time>2026-04-27T16:33:33.001Z</time></trkpt><trkpt lat="35.28856" lon="-6.0411467"><ele>202.0</ele><time>2026-04-27T16:33:34Z</time></trkpt><trkpt lat="35.2887067" lon="-6.0409967"><ele>202.0</ele><time>2026-04-27T16:33:35Z</time></trkpt><trkpt lat="35.28885" lon="-6.0408433"><ele>202.0</ele><time>2026-04-27T16:33:36.001Z</time></trkpt><trkpt lat="35.2889933" lon="-6.0406917"><ele>202.33333333333331</ele><time>2026-04-27T16:33:37.001Z</time></trkpt><trkpt lat="35.28914" lon="-6.040545"><ele>202.66666666666669</ele><time>2026-04-27T16:33:38.001Z</time></trkpt><trkpt lat="35.2892867" lon="-6.040395"><ele>203.0</ele><time>2026-04-27T16:33:39.001Z</time></trkpt><trkpt lat="35.28943" lon="-6.04025"><ele>203.0</ele><time>2026-04-27T16:33:40.001Z</time></trkpt><trkpt lat="35.289575" lon="-6.040105"><ele>203.0</ele><time>2026-04-27T16:33:41.001Z</time></trkpt><trkpt lat="35.2897267" lon="-6.0399517"><ele>203.0</ele><time>2026-04-27T16:33:42.001Z</time></trkpt><trkpt lat="35.2898767" lon="-6.039805"><ele>203.33333333333334</ele><time>2026-04-27T16:33:43.001Z</time></trkpt><trkpt lat="35.2900267" lon="-6.0396567"><ele>203.66666666666669</ele><time>2026-04-27T16:33:44.001Z</time></trkpt><trkpt lat="35.2901767" lon="-6.0395067"><ele>204.0</ele><time>2026-04-27T16:33:45Z</time></trkpt><trkpt lat="35.2903333" lon="-6.039375"><ele>204.0</ele><time>2026-04-27T16:33:46.001Z</time></trkpt><trkpt lat="35.290495" lon="-6.03925"><ele>204.0</ele><time>2026-04-27T16:33:47Z</time></trkpt><trkpt lat="35.29066" lon="-6.0391267"><ele>204.0</ele><time>2026-04-27T16:33:48.001Z</time></trkpt><trkpt lat="35.2908367" lon="-6.0390183"><ele>202.33333333333331</ele><time>2026-04-27T16:33:49.001Z</time></trkpt><trkpt lat="35.2910133" lon="-6.0389233"><ele>200.66666666666666</ele><time>2026-04-27T16:33:50.001Z</time></trkpt><trkpt lat="35.2911933" lon="-6.0388217"><ele>199.0</ele><time>2026-04-27T16:33:51.001Z</time></trkpt><trkpt lat="35.2913683" lon="-6.038715"><ele>200.0</ele><time>2026-04-27T16:33:52.001Z</time></trkpt><trkpt lat="35.2915417" lon="-6.0386133"><ele>201.0</ele><time>2026-04-27T16:33:53Z</time></trkpt><trkpt lat="35.2917183" lon="-6.0385"><ele>202.0</ele><time>2026-04-27T16:33:54.001Z</time></trkpt><trkpt lat="35.2918983" lon="-6.0383867"><ele>199.66666666666666</ele><time>2026-04-27T16:33:55.001Z</time></trkpt><trkpt lat="35.2920833" lon="-6.0382733"><ele>197.33333333333331</ele><time>2026-04-27T16:33:56.001Z</time></trkpt><trkpt lat="35.29227" lon="-6.03816"><ele>195.0</ele><time>2026-04-27T16:33:57Z</time></trkpt><trkpt lat="35.292465" lon="-6.0380517"><ele>195.0</ele><time>2026-04-27T16:33:58.001Z</time></trkpt><trkpt lat="35.29266" lon="-6.0379433"><ele>195.0</ele><time>2026-04-27T16:33:59Z</time></trkpt><trkpt lat="35.2928633" lon="-6.0378167"><ele>195.0</ele><time>2026-04-27T16:34:00.001Z</time></trkpt><trkpt lat="35.2930633" lon="-6.037695"><ele>196.0</ele><time>2026-04-27T16:34:01Z</time></trkpt><trkpt lat="35.29325" lon="-6.03757"><ele>197.0</ele><time>2026-04-27T16:34:02.001Z</time></trkpt><trkpt lat="35.2934283" lon="-6.0374367"><ele>198.0</ele><time>2026-04-27T16:34:03.001Z</time></trkpt><trkpt lat="35.2935883" lon="-6.03727"><ele>197.33333333333331</ele><time>2026-04-27T16:34:04Z</time></trkpt><trkpt lat="35.293735" lon="-6.0370833"><ele>196.66666666666666</ele><time>2026-04-27T16:34:05.001Z</time></trkpt><trkpt lat="35.2938667" lon="-6.0368767"><ele>196.0</ele><time>2026-04-27T16:34:06.001Z</time></trkpt><trkpt lat="35.29396" lon="-6.0366367"><ele>196.5</ele><time>2026-04-27T16:34:07Z</time></trkpt><trkpt lat="35.2940183" lon="-6.0363617"><ele>197.0</ele><time>2026-04-27T16:34:08.001Z</time></trkpt><trkpt lat="35.2940533" lon="-6.0360817"><ele>197.5</ele><time>2026-04-27T16:34:09Z</time></trkpt><trkpt lat="35.294085" lon="-6.0357983"><ele>198.0</ele><time>2026-04-27T16:34:10Z</time></trkpt><trkpt lat="35.2941167" lon="-6.0355317"><ele>198.0</ele><time>2026-04-27T16:34:11.001Z</time></trkpt><trkpt lat="35.294145" lon="-6.03528"><ele>198.0</ele><time>2026-04-27T16:34:12.001Z</time></trkpt><trkpt lat="35.29417" lon="-6.03503"><ele>198.0</ele><time>2026-04-27T16:34:13.001Z</time></trkpt><trkpt lat="35.2942017" lon="-6.034785"><ele>198.0</ele><time>2026-04-27T16:34:14.001Z</time></trkpt><trkpt lat="35.2942417" lon="-6.034535"><ele>198.0</ele><time>2026-04-27T16:34:15.001Z</time></trkpt><trkpt lat="35.29429" lon="-6.0342817"><ele>198.0</ele><time>2026-04-27T16:34:16.001Z</time></trkpt><trkpt lat="35.2943467" lon="-6.0340317"><ele>198.0</ele><time>2026-04-27T16:34:17.001Z</time></trkpt><trkpt lat="35.294425" lon="-6.03379"><ele>198.0</ele><time>2026-04-27T16:34:18.001Z</time></trkpt><trkpt lat="35.294515" lon="-6.0335583"><ele>198.0</ele><time>2026-04-27T16:34:19.001Z</time></trkpt><trkpt lat="35.294615" lon="-6.033325"><ele>199.33333333333331</ele><time>2026-04-27T16:34:20.001Z</time></trkpt><trkpt lat="35.294715" lon="-6.0331017"><ele>200.66666666666666</ele><time>2026-04-27T16:34:21.001Z</time></trkpt><trkpt lat="35.2948117" lon="-6.032875"><ele>202.0</ele><time>2026-04-27T16:34:22.001Z</time></trkpt><trkpt lat="35.2949033" lon="-6.0326433"><ele>203.0</ele><time>2026-04-27T16:34:23.001Z</time></trkpt><trkpt lat="35.294995" lon="-6.0324"><ele>204.0</ele><time>2026-04-27T16:34:24.001Z</time></trkpt><trkpt lat="35.2950917" lon="-6.0321617"><ele>205.0</ele><time>2026-04-27T16:34:25.001Z</time></trkpt><trkpt lat="35.295185" lon="-6.03193"><ele>205.0</ele><time>2026-04-27T16:34:26.001Z</time></trkpt><trkpt lat="35.2952867" lon="-6.0317117"><ele>205.0</ele><time>2026-04-27T16:34:27.001Z</time></trkpt><trkpt lat="35.2953983" lon="-6.0315183"><ele>205.0</ele><time>2026-04-27T16:34:28.001Z</time></trkpt><trkpt lat="35.2955183" lon="-6.031345"><ele>201.66666666666666</ele><time>2026-04-27T16:34:29.001Z</time></trkpt><trkpt lat="35.2956533" lon="-6.0311933"><ele>198.33333333333331</ele><time>2026-04-27T16:34:30.001Z</time></trkpt><trkpt lat="35.2958017" lon="-6.0310417"><ele>195.0</ele><time>2026-04-27T16:34:31.001Z</time></trkpt><trkpt lat="35.2959667" lon="-6.0309217"><ele>194.33333333333331</ele><time>2026-04-27T16:34:32.001Z</time></trkpt><trkpt lat="35.2961517" lon="-6.0308033"><ele>193.66666666666666</ele><time>2026-04-27T16:34:33.001Z</time></trkpt><trkpt lat="35.2963467" lon="-6.030685"><ele>193.0</ele><time>2026-04-27T16:34:34.001Z</time></trkpt><trkpt lat="35.2965333" lon="-6.0305633"><ele>193.0</ele><time>2026-04-27T16:34:35.001Z</time></trkpt><trkpt lat="35.29671" lon="-6.0304367"><ele>193.0</ele><time>2026-04-27T16:34:36.001Z</time></trkpt><trkpt lat="35.296895" lon="-6.0303233"><ele>193.0</ele><time>2026-04-27T16:34:37.001Z</time></trkpt><trkpt lat="35.2971" lon="-6.0302217"><ele>192.0</ele><time>2026-04-27T16:34:38.001Z</time></trkpt><trkpt lat="35.297315" lon="-6.03013"><ele>191.0</ele><time>2026-04-27T16:34:39.001Z</time></trkpt><trkpt lat="35.29754" lon="-6.0300583"><ele>191.0</ele><time>2026-04-27T16:34:40Z</time></trkpt><trkpt lat="35.297775" lon="-6.0300067"><ele>191.0</ele><time>2026-04-27T16:34:41.001Z</time></trkpt><trkpt lat="35.2980183" lon="-6.029975"><ele>185.0</ele><time>2026-04-27T16:34:42.001Z</time></trkpt><trkpt lat="35.2982717" lon="-6.02995"><ele>179.0</ele><time>2026-04-27T16:34:43.001Z</time></trkpt><trkpt lat="35.2985283" lon="-6.02992"><ele>179.0</ele><time>2026-04-27T16:34:44.001Z</time></trkpt><trkpt lat="35.2987883" lon="-6.029885"><ele>179.0</ele><time>2026-04-27T16:34:45.001Z</time></trkpt><trkpt lat="35.2990533" lon="-6.02984"><ele>177.0</ele><time>2026-04-27T16:34:46.001Z</time></trkpt><trkpt lat="35.299315" lon="-6.0297867"><ele>175.0</ele><time>2026-04-27T16:34:47.001Z</time></trkpt><trkpt lat="35.299575" lon="-6.02972"><ele>173.5</ele><time>2026-04-27T16:34:48.001Z</time></trkpt><trkpt lat="35.2998217" lon="-6.0296383"><ele>172.0</ele><time>2026-04-27T16:34:49.001Z</time></trkpt><trkpt lat="35.300065" lon="-6.029555"><ele>172.0</ele><time>2026-04-27T16:34:50.001Z</time></trkpt><trkpt lat="35.3003117" lon="-6.0294717"><ele>172.0</ele><time>2026-04-27T16:34:51.001Z</time></trkpt><trkpt lat="35.3005617" lon="-6.0293867"><ele>172.5</ele><time>2026-04-27T16:34:52.001Z</time></trkpt><trkpt lat="35.3008133" lon="-6.029315"><ele>173.0</ele><time>2026-04-27T16:34:53.001Z</time></trkpt><trkpt lat="35.301065" lon="-6.02924"><ele>173.0</ele><time>2026-04-27T16:34:54.001Z</time></trkpt><trkpt lat="35.3013167" lon="-6.029165"><ele>173.0</ele><time>2026-04-27T16:34:55.001Z</time></trkpt><trkpt lat="35.3015717" lon="-6.0290833"><ele>168.0</ele><time>2026-04-27T16:34:56.001Z</time></trkpt><trkpt lat="35.3018283" lon="-6.0290083"><ele>163.0</ele><time>2026-04-27T16:34:57.001Z</time></trkpt><trkpt lat="35.3020783" lon="-6.0289317"><ele>163.0</ele><time>2026-04-27T16:34:58.001Z</time></trkpt><trkpt lat="35.3023183" lon="-6.0288583"><ele>163.0</ele><time>2026-04-27T16:34:59.001Z</time></trkpt><trkpt lat="35.302555" lon="-6.0287833"><ele>163.0</ele><time>2026-04-27T16:35:00.001Z</time></trkpt><trkpt lat="35.3027917" lon="-6.028705"><ele>163.0</ele><time>2026-04-27T16:35:01.001Z</time></trkpt><trkpt lat="35.3030267" lon="-6.0286283"><ele>163.5</ele><time>2026-04-27T16:35:02.001Z</time></trkpt><trkpt lat="35.3032733" lon="-6.02855"><ele>164.0</ele><time>2026-04-27T16:35:03.001Z</time></trkpt><trkpt lat="35.30351" lon="-6.0284733"><ele>164.0</ele><time>2026-04-27T16:35:04Z</time></trkpt><trkpt lat="35.3037367" lon="-6.0283967"><ele>164.0</ele><time>2026-04-27T16:35:05.001Z</time></trkpt><trkpt lat="35.3039467" lon="-6.02833"><ele>160.0</ele><time>2026-04-27T16:35:06.001Z</time></trkpt><trkpt lat="35.3041533" lon="-6.0282617"><ele>156.0</ele><time>2026-04-27T16:35:07.001Z</time></trkpt><trkpt lat="35.3043567" lon="-6.02817"><ele>152.0</ele><time>2026-04-27T16:35:08.001Z</time></trkpt><trkpt lat="35.3045483" lon="-6.0280283"><ele>152.0</ele><time>2026-04-27T16:35:09Z</time></trkpt><trkpt lat="35.3047117" lon="-6.02785"><ele>152.0</ele><time>2026-04-27T16:35:10Z</time></trkpt><trkpt lat="35.3048467" lon="-6.0276433"><ele>152.0</ele><time>2026-04-27T16:35:11.001Z</time></trkpt><trkpt lat="35.3049567" lon="-6.0274"><ele>153.5</ele><time>2026-04-27T16:35:12Z</time></trkpt><trkpt lat="35.3050367" lon="-6.0271167"><ele>155.0</ele><time>2026-04-27T16:35:13.001Z</time></trkpt><trkpt lat="35.3051" lon="-6.0268267"><ele>152.5</ele><time>2026-04-27T16:35:14.001Z</time></trkpt><trkpt lat="35.3051533" lon="-6.026535"><ele>150.0</ele><time>2026-04-27T16:35:15Z</time></trkpt><trkpt lat="35.3052017" lon="-6.0262517"><ele>150.0</ele><time>2026-04-27T16:35:16.001Z</time></trkpt><trkpt lat="35.3052517" lon="-6.0259783"><ele>150.0</ele><time>2026-04-27T16:35:17Z</time></trkpt><trkpt lat="35.3053017" lon="-6.0257167"><ele>150.0</ele><time>2026-04-27T16:35:18Z</time></trkpt><trkpt lat="35.3053517" lon="-6.0254633"><ele>148.0</ele><time>2026-04-27T16:35:19.001Z</time></trkpt><trkpt lat="35.3054133" lon="-6.0252033"><ele>146.0</ele><time>2026-04-27T16:35:20Z</time></trkpt><trkpt lat="35.30549" lon="-6.0249433"><ele>144.0</ele><time>2026-04-27T16:35:21.001Z</time></trkpt><trkpt lat="35.3055633" lon="-6.0246867"><ele>144.5</ele><time>2026-04-27T16:35:22.001Z</time></trkpt><trkpt lat="35.3056383" lon="-6.0244133"><ele>145.0</ele><time>2026-04-27T16:35:23.001Z</time></trkpt><trkpt lat="35.30571" lon="-6.0241483"><ele>142.0</ele><time>2026-04-27T16:35:24.001Z</time></trkpt><trkpt lat="35.3057983" lon="-6.0238933"><ele>139.0</ele><time>2026-04-27T16:35:25.001Z</time></trkpt><trkpt lat="35.305895" lon="-6.0236417"><ele>139.0</ele><time>2026-04-27T16:35:26.001Z</time></trkpt><trkpt lat="35.3060067" lon="-6.0234017"><ele>139.0</ele><time>2026-04-27T16:35:27Z</time></trkpt><trkpt lat="35.3061383" lon="-6.023175"><ele>135.5</ele><time>2026-04-27T16:35:28.001Z</time></trkpt><trkpt lat="35.3062717" lon="-6.0229383"><ele>132.0</ele><time>2026-04-27T16:35:29.001Z</time></trkpt><trkpt lat="35.30641" lon="-6.0227167"><ele>131.66666666666666</ele><time>2026-04-27T16:35:30.001Z</time></trkpt><trkpt lat="35.3065433" lon="-6.022495"><ele>131.33333333333331</ele><time>2026-04-27T16:35:31.001Z</time></trkpt><trkpt lat="35.30667" lon="-6.022285"><ele>131.0</ele><time>2026-04-27T16:35:32.001Z</time></trkpt><trkpt lat="35.3067983" lon="-6.0220817"><ele>131.0</ele><time>2026-04-27T16:35:33.001Z</time></trkpt><trkpt lat="35.3069317" lon="-6.021885"><ele>131.0</ele><time>2026-04-27T16:35:34.001Z</time></trkpt><trkpt lat="35.3070767" lon="-6.0216967"><ele>131.0</ele><time>2026-04-27T16:35:35.001Z</time></trkpt><trkpt lat="35.30724" lon="-6.0215167"><ele>128.0</ele><time>2026-04-27T16:35:36.001Z</time></trkpt><trkpt lat="35.307415" lon="-6.0213383"><ele>125.0</ele><time>2026-04-27T16:35:37Z</time></trkpt><trkpt lat="35.30761" lon="-6.02117"><ele>125.0</ele><time>2026-04-27T16:35:38.001Z</time></trkpt><trkpt lat="35.3078117" lon="-6.0210117"><ele>125.0</ele><time>2026-04-27T16:35:39.001Z</time></trkpt><trkpt lat="35.3080217" lon="-6.020875"><ele>121.5</ele><time>2026-04-27T16:35:40.001Z</time></trkpt><trkpt lat="35.3082417" lon="-6.0207533"><ele>118.0</ele><time>2026-04-27T16:35:41.001Z</time></trkpt><trkpt lat="35.3084633" lon="-6.02065"><ele>118.0</ele><time>2026-04-27T16:35:42.001Z</time></trkpt><trkpt lat="35.308685" lon="-6.020545"><ele>118.0</ele><time>2026-04-27T16:35:43.001Z</time></trkpt><trkpt lat="35.30891" lon="-6.0204467"><ele>117.0</ele><time>2026-04-27T16:35:44.001Z</time></trkpt><trkpt lat="35.3091367" lon="-6.0203367"><ele>116.0</ele><time>2026-04-27T16:35:45.001Z</time></trkpt><trkpt lat="35.3093667" lon="-6.0202283"><ele>116.0</ele><time>2026-04-27T16:35:46.001Z</time></trkpt><trkpt lat="35.3095917" lon="-6.0201133"><ele>116.0</ele><time>2026-04-27T16:35:47.001Z</time></trkpt><trkpt lat="35.3098117" lon="-6.0200117"><ele>116.0</ele><time>2026-04-27T16:35:48.001Z</time></trkpt><trkpt lat="35.3100283" lon="-6.0198983"><ele>116.0</ele><time>2026-04-27T16:35:49.001Z</time></trkpt><trkpt lat="35.3102467" lon="-6.0198067"><ele>116.0</ele><time>2026-04-27T16:35:50.001Z</time></trkpt><trkpt lat="35.310465" lon="-6.0197417"><ele>116.0</ele><time>2026-04-27T16:35:51.001Z</time></trkpt><trkpt lat="35.31069" lon="-6.0197033"><ele>118.5</ele><time>2026-04-27T16:35:52.001Z</time></trkpt><trkpt lat="35.31091" lon="-6.0196617"><ele>121.0</ele><time>2026-04-27T16:35:53.001Z</time></trkpt><trkpt lat="35.31114" lon="-6.0196233"><ele>121.0</ele><time>2026-04-27T16:35:54.001Z</time></trkpt><trkpt lat="35.3113667" lon="-6.0195883"><ele>121.0</ele><time>2026-04-27T16:35:55.001Z</time></trkpt><trkpt lat="35.3115983" lon="-6.0195517"><ele>123.0</ele><time>2026-04-27T16:35:56.001Z</time></trkpt><trkpt lat="35.3118333" lon="-6.0195067"><ele>125.0</ele><time>2026-04-27T16:35:57.001Z</time></trkpt><trkpt lat="35.3120767" lon="-6.019455"><ele>124.5</ele><time>2026-04-27T16:35:58.001Z</time></trkpt><trkpt lat="35.31232" lon="-6.0194017"><ele>124.0</ele><time>2026-04-27T16:35:59Z</time></trkpt><trkpt lat="35.3125667" lon="-6.0193433"><ele>124.0</ele><time>2026-04-27T16:36:00.001Z</time></trkpt><trkpt lat="35.312815" lon="-6.0192783"><ele>124.0</ele><time>2026-04-27T16:36:01.001Z</time></trkpt><trkpt lat="35.31307" lon="-6.0192183"><ele>125.0</ele><time>2026-04-27T16:36:02.001Z</time></trkpt><trkpt lat="35.3133317" lon="-6.01916"><ele>126.0</ele><time>2026-04-27T16:36:03.001Z</time></trkpt><trkpt lat="35.3135933" lon="-6.0191067"><ele>128.5</ele><time>2026-04-27T16:36:04.001Z</time></trkpt><trkpt lat="35.3138583" lon="-6.0190583"><ele>131.0</ele><time>2026-04-27T16:36:05.001Z</time></trkpt><trkpt lat="35.3141267" lon="-6.0190167"><ele>134.0</ele><time>2026-04-27T16:36:06.001Z</time></trkpt><trkpt lat="35.3143933" lon="-6.0189733"><ele>137.0</ele><time>2026-04-27T16:36:07.001Z</time></trkpt><trkpt lat="35.314635" lon="-6.0189383"><ele>137.5</ele><time>2026-04-27T16:36:08.001Z</time></trkpt><trkpt lat="35.31486" lon="-6.0188917"><ele>138.0</ele><time>2026-04-27T16:36:09.001Z</time></trkpt><trkpt lat="35.3150833" lon="-6.01882"><ele>138.0</ele><time>2026-04-27T16:36:10.001Z</time></trkpt><trkpt lat="35.31531" lon="-6.0187267"><ele>138.0</ele><time>2026-04-27T16:36:11.001Z</time></trkpt><trkpt lat="35.31554" lon="-6.0186233"><ele>137.0</ele><time>2026-04-27T16:36:12.001Z</time></trkpt><trkpt lat="35.3157717" lon="-6.0185217"><ele>136.0</ele><time>2026-04-27T16:36:13.001Z</time></trkpt><trkpt lat="35.3159933" lon="-6.0184317"><ele>136.0</ele><time>2026-04-27T16:36:14.001Z</time></trkpt><trkpt lat="35.316205" lon="-6.0183517"><ele>136.0</ele><time>2026-04-27T16:36:15.001Z</time></trkpt><trkpt lat="35.3164217" lon="-6.018285"><ele>136.0</ele><time>2026-04-27T16:36:16.001Z</time></trkpt><trkpt lat="35.31663" lon="-6.0182233"><ele>136.5</ele><time>2026-04-27T16:36:17Z</time></trkpt><trkpt lat="35.31685" lon="-6.0181683"><ele>137.0</ele><time>2026-04-27T16:36:18.001Z</time></trkpt><trkpt lat="35.3170717" lon="-6.0180983"><ele>136.5</ele><time>2026-04-27T16:36:19.001Z</time></trkpt><trkpt lat="35.3173033" lon="-6.018025"><ele>136.0</ele><time>2026-04-27T16:36:20.001Z</time></trkpt><trkpt lat="35.3175333" lon="-6.017955"><ele>136.0</ele><time>2026-04-27T16:36:21.001Z</time></trkpt><trkpt lat="35.3177567" lon="-6.0178883"><ele>136.0</ele><time>2026-04-27T16:36:22.001Z</time></trkpt><trkpt lat="35.3179667" lon="-6.017825"><ele>136.0</ele><time>2026-04-27T16:36:23Z</time></trkpt><trkpt lat="35.3181733" lon="-6.0177683"><ele>136.66666666666669</ele><time>2026-04-27T16:36:24Z</time></trkpt><trkpt lat="35.3183833" lon="-6.0177033"><ele>137.33333333333334</ele><time>2026-04-27T16:36:25.001Z</time></trkpt><trkpt lat="35.3185967" lon="-6.0176417"><ele>138.0</ele><time>2026-04-27T16:36:26.001Z</time></trkpt><trkpt lat="35.3188183" lon="-6.0175833"><ele>139.5</ele><time>2026-04-27T16:36:27.001Z</time></trkpt><trkpt lat="35.3190417" lon="-6.01753"><ele>141.0</ele><time>2026-04-27T16:36:28.001Z</time></trkpt><trkpt lat="35.31927" lon="-6.0174767"><ele>137.0</ele><time>2026-04-27T16:36:29.001Z</time></trkpt><trkpt lat="35.3195" lon="-6.01742"><ele>133.0</ele><time>2026-04-27T16:36:30.001Z</time></trkpt><trkpt lat="35.3197283" lon="-6.017365"><ele>133.5</ele><time>2026-04-27T16:36:31.001Z</time></trkpt><trkpt lat="35.3199533" lon="-6.0173133"><ele>134.0</ele><time>2026-04-27T16:36:32.001Z</time></trkpt><trkpt lat="35.3201833" lon="-6.01727"><ele>134.0</ele><time>2026-04-27T16:36:33.001Z</time></trkpt><trkpt lat="35.3204133" lon="-6.0172317"><ele>134.0</ele><time>2026-04-27T16:36:34.001Z</time></trkpt><trkpt lat="35.32064" lon="-6.0172017"><ele>133.5</ele><time>2026-04-27T16:36:35.001Z</time></trkpt><trkpt lat="35.3208667" lon="-6.01717"><ele>133.0</ele><time>2026-04-27T16:36:36.001Z</time></trkpt><trkpt lat="35.321095" lon="-6.01712"><ele>133.0</ele><time>2026-04-27T16:36:37Z</time></trkpt><trkpt lat="35.321325" lon="-6.0170533"><ele>133.0</ele><time>2026-04-27T16:36:38.001Z</time></trkpt><trkpt lat="35.3215517" lon="-6.0169667"><ele>132.0</ele><time>2026-04-27T16:36:39.001Z</time></trkpt><trkpt lat="35.3217783" lon="-6.016865"><ele>131.0</ele><time>2026-04-27T16:36:40.001Z</time></trkpt><trkpt lat="35.322005" lon="-6.0167333"><ele>127.5</ele><time>2026-04-27T16:36:41.001Z</time></trkpt><trkpt lat="35.3222233" lon="-6.01661"><ele>124.0</ele><time>2026-04-27T16:36:42.001Z</time></trkpt><trkpt lat="35.3224517" lon="-6.0164817"><ele>124.0</ele><time>2026-04-27T16:36:43Z</time></trkpt><trkpt lat="35.3226783" lon="-6.0163767"><ele>124.0</ele><time>2026-04-27T16:36:44.001Z</time></trkpt><trkpt lat="35.32291" lon="-6.0162867"><ele>124.5</ele><time>2026-04-27T16:36:45Z</time></trkpt><trkpt lat="35.3231467" lon="-6.016205"><ele>125.0</ele><time>2026-04-27T16:36:46Z</time></trkpt><trkpt lat="35.3233833" lon="-6.0161333"><ele>125.0</ele><time>2026-04-27T16:36:47.001Z</time></trkpt><trkpt lat="35.3236083" lon="-6.0160567"><ele>125.0</ele><time>2026-04-27T16:36:48.001Z</time></trkpt><trkpt lat="35.3238267" lon="-6.0159833"><ele>124.0</ele><time>2026-04-27T16:36:49.001Z</time></trkpt><trkpt lat="35.3240417" lon="-6.0159067"><ele>123.0</ele><time>2026-04-27T16:36:50.001Z</time></trkpt><trkpt lat="35.3242567" lon="-6.0158167"><ele>120.5</ele><time>2026-04-27T16:36:51.001Z</time></trkpt><trkpt lat="35.32447" lon="-6.0157167"><ele>118.0</ele><time>2026-04-27T16:36:52.001Z</time></trkpt><trkpt lat="35.3246767" lon="-6.015595"><ele>119.33333333333334</ele><time>2026-04-27T16:36:53.001Z</time></trkpt><trkpt lat="35.3248733" lon="-6.0154633"><ele>120.66666666666666</ele><time>2026-04-27T16:36:54.001Z</time></trkpt><trkpt lat="35.3250667" lon="-6.0153217"><ele>122.0</ele><time>2026-04-27T16:36:55.001Z</time></trkpt><trkpt lat="35.3252633" lon="-6.01519"><ele>122.0</ele><time>2026-04-27T16:36:56.001Z</time></trkpt><trkpt lat="35.3254717" lon="-6.01508"><ele>122.0</ele><time>2026-04-27T16:36:57.001Z</time></trkpt><trkpt lat="35.3256917" lon="-6.014985"><ele>119.0</ele><time>2026-04-27T16:36:58.001Z</time></trkpt><trkpt lat="35.3259117" lon="-6.0149083"><ele>116.0</ele><time>2026-04-27T16:36:59.001Z</time></trkpt><trkpt lat="35.3261417" lon="-6.0148283"><ele>116.0</ele><time>2026-04-27T16:37:00.001Z</time></trkpt><trkpt lat="35.3263717" lon="-6.0147583"><ele>116.0</ele><time>2026-04-27T16:37:01.001Z</time></trkpt><trkpt lat="35.3265883" lon="-6.014695"><ele>116.5</ele><time>2026-04-27T16:37:02Z</time></trkpt><trkpt lat="35.3268167" lon="-6.01462"><ele>117.0</ele><time>2026-04-27T16:37:03.001Z</time></trkpt><trkpt lat="35.3270433" lon="-6.01455"><ele>116.5</ele><time>2026-04-27T16:37:04.001Z</time></trkpt><trkpt lat="35.32727" lon="-6.014485"><ele>116.0</ele><time>2026-04-27T16:37:05.001Z</time></trkpt><trkpt lat="35.3274933" lon="-6.0144167"><ele>116.0</ele><time>2026-04-27T16:37:06.001Z</time></trkpt><trkpt lat="35.327715" lon="-6.01435"><ele>116.0</ele><time>2026-04-27T16:37:07.001Z</time></trkpt><trkpt lat="35.3279467" lon="-6.0142717"><ele>115.0</ele><time>2026-04-27T16:37:08.001Z</time></trkpt><trkpt lat="35.3281817" lon="-6.014195"><ele>114.0</ele><time>2026-04-27T16:37:09.001Z</time></trkpt><trkpt lat="35.3284233" lon="-6.0141133"><ele>114.0</ele><time>2026-04-27T16:37:10.001Z</time></trkpt><trkpt lat="35.3286733" lon="-6.01403"><ele>114.0</ele><time>2026-04-27T16:37:11.001Z</time></trkpt><trkpt lat="35.328925" lon="-6.0139417"><ele>112.5</ele><time>2026-04-27T16:37:12.001Z</time></trkpt><trkpt lat="35.3291667" lon="-6.01386"><ele>111.0</ele><time>2026-04-27T16:37:13.001Z</time></trkpt><trkpt lat="35.329395" lon="-6.0137817"><ele>111.0</ele><time>2026-04-27T16:37:14.001Z</time></trkpt><trkpt lat="35.329625" lon="-6.0136867"><ele>111.0</ele><time>2026-04-27T16:37:15.001Z</time></trkpt><trkpt lat="35.3298483" lon="-6.0135683"><ele>111.0</ele><time>2026-04-27T16:37:16.001Z</time></trkpt><trkpt lat="35.3300717" lon="-6.0134317"><ele>111.0</ele><time>2026-04-27T16:37:17Z</time></trkpt><trkpt lat="35.3302767" lon="-6.0132767"><ele>111.0</ele><time>2026-04-27T16:37:18.001Z</time></trkpt><trkpt lat="35.33046" lon="-6.01312"><ele>111.0</ele><time>2026-04-27T16:37:19.001Z</time></trkpt><trkpt lat="35.3306233" lon="-6.0129417"><ele>111.0</ele><time>2026-04-27T16:37:20.001Z</time></trkpt><trkpt lat="35.3307917" lon="-6.0127433"><ele>110.0</ele><time>2026-04-27T16:37:21.001Z</time></trkpt><trkpt lat="35.33095" lon="-6.012545"><ele>109.0</ele><time>2026-04-27T16:37:22.001Z</time></trkpt><trkpt lat="35.33108" lon="-6.012325"><ele>108.0</ele><time>2026-04-27T16:37:23Z</time></trkpt><trkpt lat="35.3311933" lon="-6.0121017"><ele>108.0</ele><time>2026-04-27T16:37:24.001Z</time></trkpt><trkpt lat="35.3312917" lon="-6.0118883"><ele>108.0</ele><time>2026-04-27T16:37:25.001Z</time></trkpt><trkpt lat="35.331375" lon="-6.0116967"><ele>108.0</ele><time>2026-04-27T16:37:26.001Z</time></trkpt><trkpt lat="35.3314383" lon="-6.0115183"><ele>107.0</ele><time>2026-04-27T16:37:27.001Z</time></trkpt><trkpt lat="35.3314883" lon="-6.0113533"><ele>106.0</ele><time>2026-04-27T16:37:28.001Z</time></trkpt><trkpt lat="35.3315267" lon="-6.0111917"><ele>105.0</ele><time>2026-04-27T16:37:29.001Z</time></trkpt><trkpt lat="35.3315567" lon="-6.011035"><ele>104.0</ele><time>2026-04-27T16:37:30.001Z</time></trkpt><trkpt lat="35.331575" lon="-6.0108817"><ele>104.2</ele><time>2026-04-27T16:37:31.001Z</time></trkpt><trkpt lat="35.3315833" lon="-6.0107417"><ele>104.4</ele><time>2026-04-27T16:37:32.001Z</time></trkpt><trkpt lat="35.331575" lon="-6.0106033"><ele>104.6</ele><time>2026-04-27T16:37:33.001Z</time></trkpt><trkpt lat="35.3315433" lon="-6.0104833"><ele>104.8</ele><time>2026-04-27T16:37:34Z</time></trkpt><trkpt lat="35.3315067" lon="-6.010375"><ele>105.0</ele><time>2026-04-27T16:37:35.001Z</time></trkpt><trkpt lat="35.331485" lon="-6.0102733"><ele>105.0</ele><time>2026-04-27T16:37:36.001Z</time></trkpt><trkpt lat="35.3314817" lon="-6.0101717"><ele>105.0</ele><time>2026-04-27T16:37:37.001Z</time></trkpt><trkpt lat="35.3315" lon="-6.0100583"><ele>105.0</ele><time>2026-04-27T16:37:38.001Z</time></trkpt><trkpt lat="35.3315517" lon="-6.009965"><ele>105.0</ele><time>2026-04-27T16:37:39.001Z</time></trkpt><trkpt lat="35.3316217" lon="-6.0098883"><ele>105.0</ele><time>2026-04-27T16:37:40.001Z</time></trkpt><trkpt lat="35.3317083" lon="-6.00981"><ele>103.75</ele><time>2026-04-27T16:37:41.001Z</time></trkpt><trkpt lat="35.3317917" lon="-6.0097183"><ele>102.5</ele><time>2026-04-27T16:37:42.001Z</time></trkpt><trkpt lat="35.331855" lon="-6.0095833"><ele>101.25</ele><time>2026-04-27T16:37:43Z</time></trkpt><trkpt lat="35.33191" lon="-6.0094217"><ele>100.0</ele><time>2026-04-27T16:37:44.001Z</time></trkpt><trkpt lat="35.3319483" lon="-6.009255"><ele>99.33333333333334</ele><time>2026-04-27T16:37:45.001Z</time></trkpt><trkpt lat="35.331985" lon="-6.0090667"><ele>98.66666666666666</ele><time>2026-04-27T16:37:46.001Z</time></trkpt><trkpt lat="35.3320117" lon="-6.0088717"><ele>98.0</ele><time>2026-04-27T16:37:47.001Z</time></trkpt><trkpt lat="35.332035" lon="-6.0086933"><ele>98.0</ele><time>2026-04-27T16:37:48.001Z</time></trkpt><trkpt lat="35.3320667" lon="-6.008525"><ele>98.0</ele><time>2026-04-27T16:37:49.001Z</time></trkpt><trkpt lat="35.3321033" lon="-6.0083683"><ele>98.0</ele><time>2026-04-27T16:37:50.001Z</time></trkpt><trkpt lat="35.3321417" lon="-6.00821"><ele>98.0</ele><time>2026-04-27T16:37:51.001Z</time></trkpt><trkpt lat="35.3321767" lon="-6.0080483"><ele>97.75</ele><time>2026-04-27T16:37:52.001Z</time></trkpt><trkpt lat="35.3322117" lon="-6.0078883"><ele>97.5</ele><time>2026-04-27T16:37:53.001Z</time></trkpt><trkpt lat="35.33225" lon="-6.007725"><ele>97.25</ele><time>2026-04-27T16:37:54.001Z</time></trkpt><trkpt lat="35.3322867" lon="-6.00757"><ele>97.0</ele><time>2026-04-27T16:37:55.001Z</time></trkpt><trkpt lat="35.332315" lon="-6.0074167"><ele>97.66666666666667</ele><time>2026-04-27T16:37:56.001Z</time></trkpt><trkpt lat="35.332345" lon="-6.0072783"><ele>98.33333333333334</ele><time>2026-04-27T16:37:57.001Z</time></trkpt><trkpt lat="35.332365" lon="-6.00716"><ele>99.0</ele><time>2026-04-27T16:37:58.001Z</time></trkpt><trkpt lat="35.332385" lon="-6.0070533"><ele>99.66666666666666</ele><time>2026-04-27T16:37:59.001Z</time></trkpt><trkpt lat="35.3323983" lon="-6.0069583"><ele>100.33333333333333</ele><time>2026-04-27T16:38:00.001Z</time></trkpt><trkpt lat="35.3323983" lon="-6.00688"><ele>101.0</ele><time>2026-04-27T16:38:01.001Z</time></trkpt><trkpt lat="35.3323967" lon="-6.006735"><ele>101.19999999999999</ele><time>2026-04-27T16:38:03Z</time></trkpt><trkpt lat="35.332395" lon="-6.0066033"><ele>101.39999999999999</ele><time>2026-04-27T16:38:05Z</time></trkpt><trkpt lat="35.3324033" lon="-6.006465"><ele>101.6</ele><time>2026-04-27T16:38:07.001Z</time></trkpt><trkpt lat="35.33242" lon="-6.00639"><ele>101.8</ele><time>2026-04-27T16:38:08.001Z</time></trkpt><trkpt lat="35.3325067" lon="-6.006315"><ele>102.0</ele><time>2026-04-27T16:38:10.001Z</time></trkpt><trkpt lat="35.3325733" lon="-6.0063183"><ele>102.0</ele><time>2026-04-27T16:38:11.001Z</time></trkpt><trkpt lat="35.332645" lon="-6.0063417"><ele>102.0</ele><time>2026-04-27T16:38:12.001Z</time></trkpt><trkpt lat="35.3327133" lon="-6.006395"><ele>102.0</ele><time>2026-04-27T16:38:13.001Z</time></trkpt><trkpt lat="35.3327833" lon="-6.0064817"><ele>102.0</ele><time>2026-04-27T16:38:14.001Z</time></trkpt><trkpt lat="35.332865" lon="-6.0065783"><ele>102.0</ele><time>2026-04-27T16:38:15.001Z</time></trkpt><trkpt lat="35.33295" lon="-6.006675"><ele>102.0</ele><time>2026-04-27T16:38:16.001Z</time></trkpt><trkpt lat="35.3330533" lon="-6.0067533"><ele>102.0</ele><time>2026-04-27T16:38:17.001Z</time></trkpt><trkpt lat="35.3331917" lon="-6.0068183"><ele>102.0</ele><time>2026-04-27T16:38:18.001Z</time></trkpt><trkpt lat="35.33335" lon="-6.0068733"><ele>102.0</ele><time>2026-04-27T16:38:19.001Z</time></trkpt><trkpt lat="35.333525" lon="-6.0069367"><ele>102.0</ele><time>2026-04-27T16:38:20.001Z</time></trkpt><trkpt lat="35.3337017" lon="-6.0070033"><ele>102.0</ele><time>2026-04-27T16:38:21Z</time></trkpt><trkpt lat="35.333875" lon="-6.007065"><ele>102.0</ele><time>2026-04-27T16:38:22.001Z</time></trkpt><trkpt lat="35.3340417" lon="-6.00712"><ele>102.0</ele><time>2026-04-27T16:38:23Z</time></trkpt><trkpt lat="35.3342067" lon="-6.007165"><ele>102.0</ele><time>2026-04-27T16:38:24.001Z</time></trkpt><trkpt lat="35.334375" lon="-6.0072"><ele>102.0</ele><time>2026-04-27T16:38:25Z</time></trkpt><trkpt lat="35.33455" lon="-6.00723"><ele>102.66666666666666</ele><time>2026-04-27T16:38:26.001Z</time></trkpt><trkpt lat="35.3347283" lon="-6.0072617"><ele>103.33333333333333</ele><time>2026-04-27T16:38:27.001Z</time></trkpt><trkpt lat="35.33491" lon="-6.007295"><ele>104.0</ele><time>2026-04-27T16:38:28.001Z</time></trkpt><trkpt lat="35.3351" lon="-6.007315"><ele>104.0</ele><time>2026-04-27T16:38:29.001Z</time></trkpt><trkpt lat="35.335295" lon="-6.0073333"><ele>104.0</ele><time>2026-04-27T16:38:30Z</time></trkpt><trkpt lat="35.3354983" lon="-6.0073467"><ele>104.0</ele><time>2026-04-27T16:38:31.001Z</time></trkpt><trkpt lat="35.3357133" lon="-6.0073367"><ele>104.0</ele><time>2026-04-27T16:38:32.001Z</time></trkpt><trkpt lat="35.33593" lon="-6.0073233"><ele>104.0</ele><time>2026-04-27T16:38:33.001Z</time></trkpt><trkpt lat="35.33616" lon="-6.0072933"><ele>104.0</ele><time>2026-04-27T16:38:34.001Z</time></trkpt><trkpt lat="35.3363983" lon="-6.007255"><ele>103.0</ele><time>2026-04-27T16:38:35.001Z</time></trkpt><trkpt lat="35.3366283" lon="-6.0072217"><ele>102.0</ele><time>2026-04-27T16:38:36.001Z</time></trkpt><trkpt lat="35.336845" lon="-6.0072"><ele>101.0</ele><time>2026-04-27T16:38:37.001Z</time></trkpt><trkpt lat="35.3370567" lon="-6.0071867"><ele>100.0</ele><time>2026-04-27T16:38:38.001Z</time></trkpt><trkpt lat="35.337255" lon="-6.007165"><ele>99.0</ele><time>2026-04-27T16:38:39.001Z</time></trkpt><trkpt lat="35.3374483" lon="-6.0071467"><ele>98.0</ele><time>2026-04-27T16:38:40.001Z</time></trkpt><trkpt lat="35.3376467" lon="-6.0071267"><ele>98.0</ele><time>2026-04-27T16:38:41.001Z</time></trkpt><trkpt lat="35.337855" lon="-6.0071183"><ele>98.0</ele><time>2026-04-27T16:38:42.001Z</time></trkpt><trkpt lat="35.3380683" lon="-6.0071117"><ele>98.0</ele><time>2026-04-27T16:38:43Z</time></trkpt><trkpt lat="35.3382983" lon="-6.0071017"><ele>97.5</ele><time>2026-04-27T16:38:44Z</time></trkpt><trkpt lat="35.3385333" lon="-6.007095"><ele>97.0</ele><time>2026-04-27T16:38:45Z</time></trkpt><trkpt lat="35.338775" lon="-6.007085"><ele>96.5</ele><time>2026-04-27T16:38:46Z</time></trkpt><trkpt lat="35.3390183" lon="-6.0070883"><ele>96.0</ele><time>2026-04-27T16:38:47Z</time></trkpt><trkpt lat="35.3392567" lon="-6.007105"><ele>96.0</ele><time>2026-04-27T16:38:48Z</time></trkpt><trkpt lat="35.339495" lon="-6.007135"><ele>96.0</ele><time>2026-04-27T16:38:49Z</time></trkpt><trkpt lat="35.33974" lon="-6.0071817"><ele>96.5</ele><time>2026-04-27T16:38:50Z</time></trkpt><trkpt lat="35.3399883" lon="-6.0072433"><ele>97.0</ele><time>2026-04-27T16:38:51Z</time></trkpt><trkpt lat="35.3402467" lon="-6.00732"><ele>97.0</ele><time>2026-04-27T16:38:52Z</time></trkpt><trkpt lat="35.34051" lon="-6.0074033"><ele>97.0</ele><time>2026-04-27T16:38:53Z</time></trkpt><trkpt lat="35.3407633" lon="-6.0074983"><ele>96.0</ele><time>2026-04-27T16:38:54Z</time></trkpt><trkpt lat="35.341" lon="-6.007585"><ele>95.0</ele><time>2026-04-27T16:38:55Z</time></trkpt><trkpt lat="35.34124" lon="-6.007675"><ele>94.0</ele><time>2026-04-27T16:38:55.999Z</time></trkpt><trkpt lat="35.3414833" lon="-6.0077683"><ele>93.0</ele><time>2026-04-27T16:38:57Z</time></trkpt><trkpt lat="35.3417367" lon="-6.007865"><ele>93.0</ele><time>2026-04-27T16:38:58Z</time></trkpt><trkpt lat="35.3419967" lon="-6.007965"><ele>93.0</ele><time>2026-04-27T16:38:59Z</time></trkpt><trkpt lat="35.3422633" lon="-6.0080567"><ele>91.0</ele><time>2026-04-27T16:39:00Z</time></trkpt><trkpt lat="35.3425183" lon="-6.0081483"><ele>89.0</ele><time>2026-04-27T16:39:01Z</time></trkpt><trkpt lat="35.3427733" lon="-6.0082533"><ele>89.0</ele><time>2026-04-27T16:39:02Z</time></trkpt><trkpt lat="35.3430217" lon="-6.0083767"><ele>89.0</ele><time>2026-04-27T16:39:03Z</time></trkpt><trkpt lat="35.3432433" lon="-6.0085"><ele>88.0</ele><time>2026-04-27T16:39:04Z</time></trkpt><trkpt lat="35.3434633" lon="-6.0086333"><ele>87.0</ele><time>2026-04-27T16:39:05Z</time></trkpt><trkpt lat="35.343675" lon="-6.0087833"><ele>87.0</ele><time>2026-04-27T16:39:06Z</time></trkpt><trkpt lat="35.3438833" lon="-6.0089483"><ele>87.0</ele><time>2026-04-27T16:39:07Z</time></trkpt><trkpt lat="35.3440883" lon="-6.009115"><ele>87.0</ele><time>2026-04-27T16:39:08Z</time></trkpt><trkpt lat="35.3442967" lon="-6.00928"><ele>87.0</ele><time>2026-04-27T16:39:09Z</time></trkpt><trkpt lat="35.34451" lon="-6.0094367"><ele>87.0</ele><time>2026-04-27T16:39:09.999Z</time></trkpt><trkpt lat="35.3447233" lon="-6.009595"><ele>87.0</ele><time>2026-04-27T16:39:10.999Z</time></trkpt><trkpt lat="35.344935" lon="-6.0097483"><ele>87.0</ele><time>2026-04-27T16:39:12Z</time></trkpt><trkpt lat="35.3451433" lon="-6.00991"><ele>87.0</ele><time>2026-04-27T16:39:13Z</time></trkpt><trkpt lat="35.3453517" lon="-6.0100733"><ele>88.0</ele><time>2026-04-27T16:39:14Z</time></trkpt><trkpt lat="35.345565" lon="-6.0102417"><ele>89.0</ele><time>2026-04-27T16:39:15Z</time></trkpt><trkpt lat="35.345785" lon="-6.0104067"><ele>89.0</ele><time>2026-04-27T16:39:16Z</time></trkpt><trkpt lat="35.3460083" lon="-6.010565"><ele>89.0</ele><time>2026-04-27T16:39:17Z</time></trkpt><trkpt lat="35.3462367" lon="-6.010715"><ele>88.5</ele><time>2026-04-27T16:39:18Z</time></trkpt><trkpt lat="35.346475" lon="-6.01085"><ele>88.0</ele><time>2026-04-27T16:39:19Z</time></trkpt><trkpt lat="35.3467183" lon="-6.0109767"><ele>88.0</ele><time>2026-04-27T16:39:20Z</time></trkpt><trkpt lat="35.346965" lon="-6.0110917"><ele>88.0</ele><time>2026-04-27T16:39:21Z</time></trkpt><trkpt lat="35.3472167" lon="-6.0111933"><ele>88.0</ele><time>2026-04-27T16:39:22Z</time></trkpt><trkpt lat="35.3474683" lon="-6.0112833"><ele>88.0</ele><time>2026-04-27T16:39:23Z</time></trkpt><trkpt lat="35.3477283" lon="-6.0113583"><ele>88.0</ele><time>2026-04-27T16:39:24Z</time></trkpt><trkpt lat="35.347985" lon="-6.0114167"><ele>88.0</ele><time>2026-04-27T16:39:25Z</time></trkpt><trkpt lat="35.3482417" lon="-6.0114617"><ele>89.0</ele><time>2026-04-27T16:39:25.999Z</time></trkpt><trkpt lat="35.3484983" lon="-6.0114917"><ele>90.0</ele><time>2026-04-27T16:39:27Z</time></trkpt><trkpt lat="35.3487617" lon="-6.01152"><ele>91.0</ele><time>2026-04-27T16:39:28Z</time></trkpt><trkpt lat="35.3490283" lon="-6.0115317"><ele>92.0</ele><time>2026-04-27T16:39:29Z</time></trkpt><trkpt lat="35.3492983" lon="-6.0115283"><ele>92.0</ele><time>2026-04-27T16:39:30Z</time></trkpt><trkpt lat="35.3495683" lon="-6.0115117"><ele>92.0</ele><time>2026-04-27T16:39:31Z</time></trkpt><trkpt lat="35.3498383" lon="-6.01149"><ele>92.5</ele><time>2026-04-27T16:39:32Z</time></trkpt><trkpt lat="35.35011" lon="-6.0114617"><ele>93.0</ele><time>2026-04-27T16:39:33Z</time></trkpt><trkpt lat="35.3503817" lon="-6.0114367"><ele>94.0</ele><time>2026-04-27T16:39:34Z</time></trkpt><trkpt lat="35.350655" lon="-6.0114117"><ele>95.0</ele><time>2026-04-27T16:39:35Z</time></trkpt><trkpt lat="35.3509283" lon="-6.011385"><ele>95.0</ele><time>2026-04-27T16:39:36Z</time></trkpt><trkpt lat="35.3512" lon="-6.011355"><ele>95.0</ele><time>2026-04-27T16:39:37Z</time></trkpt><trkpt lat="35.351475" lon="-6.011325"><ele>95.0</ele><time>2026-04-27T16:39:38Z</time></trkpt><trkpt lat="35.3517483" lon="-6.0112967"><ele>95.0</ele><time>2026-04-27T16:39:39Z</time></trkpt><trkpt lat="35.352025" lon="-6.0112667"><ele>97.0</ele><time>2026-04-27T16:39:40Z</time></trkpt><trkpt lat="35.352295" lon="-6.0112433"><ele>99.0</ele><time>2026-04-27T16:39:41Z</time></trkpt><trkpt lat="35.3525717" lon="-6.011215"><ele>99.0</ele><time>2026-04-27T16:39:42Z</time></trkpt><trkpt lat="35.35285" lon="-6.011185"><ele>99.0</ele><time>2026-04-27T16:39:42.999Z</time></trkpt><trkpt lat="35.353125" lon="-6.011155"><ele>100.0</ele><time>2026-04-27T16:39:44Z</time></trkpt><trkpt lat="35.3534" lon="-6.0111283"><ele>101.0</ele><time>2026-04-27T16:39:44.999Z</time></trkpt><trkpt lat="35.3536767" lon="-6.011095"><ele>101.0</ele><time>2026-04-27T16:39:46Z</time></trkpt><trkpt lat="35.3539567" lon="-6.0110733"><ele>101.0</ele><time>2026-04-27T16:39:47Z</time></trkpt><trkpt lat="35.354235" lon="-6.0110567"><ele>101.0</ele><time>2026-04-27T16:39:48Z</time></trkpt><trkpt lat="35.354505" lon="-6.0110583"><ele>101.0</ele><time>2026-04-27T16:39:49Z</time></trkpt><trkpt lat="35.3547683" lon="-6.0110783"><ele>100.5</ele><time>2026-04-27T16:39:50Z</time></trkpt><trkpt lat="35.3550333" lon="-6.0111017"><ele>100.0</ele><time>2026-04-27T16:39:51Z</time></trkpt><trkpt lat="35.3553017" lon="-6.0111333"><ele>101.0</ele><time>2026-04-27T16:39:51.999Z</time></trkpt><trkpt lat="35.3555733" lon="-6.0111683"><ele>102.0</ele><time>2026-04-27T16:39:53Z</time></trkpt><trkpt lat="35.355845" lon="-6.011215"><ele>102.0</ele><time>2026-04-27T16:39:54Z</time></trkpt><trkpt lat="35.3561167" lon="-6.0112733"><ele>102.0</ele><time>2026-04-27T16:39:55Z</time></trkpt><trkpt lat="35.3563783" lon="-6.0113467"><ele>103.5</ele><time>2026-04-27T16:39:56Z</time></trkpt><trkpt lat="35.3566317" lon="-6.0114283"><ele>105.0</ele><time>2026-04-27T16:39:57Z</time></trkpt><trkpt lat="35.3568683" lon="-6.0115217"><ele>105.0</ele><time>2026-04-27T16:39:58Z</time></trkpt><trkpt lat="35.3570933" lon="-6.0116183"><ele>105.0</ele><time>2026-04-27T16:39:59Z</time></trkpt><trkpt lat="35.3573083" lon="-6.0117117"><ele>104.33333333333334</ele><time>2026-04-27T16:40:00Z</time></trkpt><trkpt lat="35.3575117" lon="-6.0118033"><ele>103.66666666666667</ele><time>2026-04-27T16:40:01Z</time></trkpt><trkpt lat="35.35771" lon="-6.0118933"><ele>103.0</ele><time>2026-04-27T16:40:02Z</time></trkpt><trkpt lat="35.3579017" lon="-6.0119933"><ele>103.0</ele><time>2026-04-27T16:40:03Z</time></trkpt><trkpt lat="35.358095" lon="-6.01209"><ele>103.0</ele><time>2026-04-27T16:40:04Z</time></trkpt><trkpt lat="35.3582883" lon="-6.012195"><ele>103.0</ele><time>2026-04-27T16:40:05Z</time></trkpt><trkpt lat="35.3584817" lon="-6.0123117"><ele>103.0</ele><time>2026-04-27T16:40:05.999Z</time></trkpt><trkpt lat="35.3586783" lon="-6.012435"><ele>103.0</ele><time>2026-04-27T16:40:07Z</time></trkpt><trkpt lat="35.3588783" lon="-6.0125733"><ele>104.5</ele><time>2026-04-27T16:40:08Z</time></trkpt><trkpt lat="35.35908" lon="-6.01272"><ele>106.0</ele><time>2026-04-27T16:40:09Z</time></trkpt><trkpt lat="35.3592867" lon="-6.0128683"><ele>106.0</ele><time>2026-04-27T16:40:10Z</time></trkpt><trkpt lat="35.3595083" lon="-6.013015"><ele>106.0</ele><time>2026-04-27T16:40:10.999Z</time></trkpt><trkpt lat="35.3597333" lon="-6.0131667"><ele>105.0</ele><time>2026-04-27T16:40:12Z</time></trkpt><trkpt lat="35.35996" lon="-6.013325"><ele>104.0</ele><time>2026-04-27T16:40:13Z</time></trkpt><trkpt lat="35.3601917" lon="-6.0134933"><ele>104.0</ele><time>2026-04-27T16:40:14Z</time></trkpt><trkpt lat="35.360435" lon="-6.013665"><ele>104.0</ele><time>2026-04-27T16:40:15Z</time></trkpt><trkpt lat="35.360685" lon="-6.0138467"><ele>104.5</ele><time>2026-04-27T16:40:16Z</time></trkpt><trkpt lat="35.3609367" lon="-6.0140333"><ele>105.0</ele><time>2026-04-27T16:40:17Z</time></trkpt><trkpt lat="35.3611767" lon="-6.01421"><ele>105.0</ele><time>2026-04-27T16:40:18Z</time></trkpt><trkpt lat="35.36141" lon="-6.014365"><ele>105.0</ele><time>2026-04-27T16:40:19Z</time></trkpt><trkpt lat="35.3616417" lon="-6.0145233"><ele>105.0</ele><time>2026-04-27T16:40:20Z</time></trkpt><trkpt lat="35.3618717" lon="-6.0146783"><ele>105.0</ele><time>2026-04-27T16:40:20.999Z</time></trkpt><trkpt lat="35.3620917" lon="-6.0148333"><ele>104.5</ele><time>2026-04-27T16:40:22Z</time></trkpt><trkpt lat="35.3623033" lon="-6.014985"><ele>104.0</ele><time>2026-04-27T16:40:23Z</time></trkpt><trkpt lat="35.3625267" lon="-6.0151317"><ele>104.0</ele><time>2026-04-27T16:40:24Z</time></trkpt><trkpt lat="35.3627467" lon="-6.015285"><ele>104.0</ele><time>2026-04-27T16:40:25Z</time></trkpt><trkpt lat="35.3629733" lon="-6.0154267"><ele>107.0</ele><time>2026-04-27T16:40:26Z</time></trkpt><trkpt lat="35.36321" lon="-6.0155567"><ele>110.0</ele><time>2026-04-27T16:40:27Z</time></trkpt><trkpt lat="35.3634617" lon="-6.01567"><ele>110.0</ele><time>2026-04-27T16:40:28Z</time></trkpt><trkpt lat="35.3637133" lon="-6.0157733"><ele>110.0</ele><time>2026-04-27T16:40:29Z</time></trkpt><trkpt lat="35.36397" lon="-6.0158717"><ele>107.5</ele><time>2026-04-27T16:40:30Z</time></trkpt><trkpt lat="35.3642283" lon="-6.0159617"><ele>105.0</ele><time>2026-04-27T16:40:31Z</time></trkpt><trkpt lat="35.364485" lon="-6.0160383"><ele>106.0</ele><time>2026-04-27T16:40:32Z</time></trkpt><trkpt lat="35.364735" lon="-6.0161033"><ele>107.0</ele><time>2026-04-27T16:40:33Z</time></trkpt><trkpt lat="35.3649833" lon="-6.0161517"><ele>107.0</ele><time>2026-04-27T16:40:33.999Z</time></trkpt><trkpt lat="35.365225" lon="-6.0161883"><ele>107.0</ele><time>2026-04-27T16:40:35Z</time></trkpt><trkpt lat="35.3654617" lon="-6.0162133"><ele>108.0</ele><time>2026-04-27T16:40:36Z</time></trkpt><trkpt lat="35.3656983" lon="-6.0162283"><ele>109.0</ele><time>2026-04-27T16:40:37Z</time></trkpt><trkpt lat="35.3659317" lon="-6.016235"><ele>109.0</ele><time>2026-04-27T16:40:38Z</time></trkpt><trkpt lat="35.3661683" lon="-6.0162283"><ele>109.0</ele><time>2026-04-27T16:40:39Z</time></trkpt><trkpt lat="35.3664133" lon="-6.0162133"><ele>108.5</ele><time>2026-04-27T16:40:40Z</time></trkpt><trkpt lat="35.3666667" lon="-6.0161817"><ele>108.0</ele><time>2026-04-27T16:40:41Z</time></trkpt><trkpt lat="35.36691" lon="-6.0161533"><ele>108.0</ele><time>2026-04-27T16:40:42Z</time></trkpt><trkpt lat="35.3671383" lon="-6.0161133"><ele>108.0</ele><time>2026-04-27T16:40:43Z</time></trkpt><trkpt lat="35.3673667" lon="-6.0160517"><ele>107.5</ele><time>2026-04-27T16:40:44Z</time></trkpt><trkpt lat="35.3675967" lon="-6.0159733"><ele>107.0</ele><time>2026-04-27T16:40:45Z</time></trkpt><trkpt lat="35.3678183" lon="-6.0158833"><ele>108.0</ele><time>2026-04-27T16:40:46Z</time></trkpt><trkpt lat="35.3680417" lon="-6.01579"><ele>109.0</ele><time>2026-04-27T16:40:47Z</time></trkpt><trkpt lat="35.3682667" lon="-6.0156983"><ele>109.0</ele><time>2026-04-27T16:40:48Z</time></trkpt><trkpt lat="35.368495" lon="-6.0156033"><ele>109.0</ele><time>2026-04-27T16:40:49Z</time></trkpt><trkpt lat="35.368725" lon="-6.0154983"><ele>109.0</ele><time>2026-04-27T16:40:50Z</time></trkpt><trkpt lat="35.368955" lon="-6.0153933"><ele>109.0</ele><time>2026-04-27T16:40:51Z</time></trkpt><trkpt lat="35.3691733" lon="-6.0152883"><ele>109.0</ele><time>2026-04-27T16:40:52Z</time></trkpt><trkpt lat="35.36939" lon="-6.0151833"><ele>109.0</ele><time>2026-04-27T16:40:53Z</time></trkpt><trkpt lat="35.3696033" lon="-6.0150817"><ele>110.5</ele><time>2026-04-27T16:40:54Z</time></trkpt><trkpt lat="35.36982" lon="-6.0149817"><ele>112.0</ele><time>2026-04-27T16:40:54.999Z</time></trkpt><trkpt lat="35.370045" lon="-6.0148833"><ele>112.0</ele><time>2026-04-27T16:40:55.999Z</time></trkpt><trkpt lat="35.3702767" lon="-6.0147933"><ele>112.0</ele><time>2026-04-27T16:40:57Z</time></trkpt><trkpt lat="35.3705133" lon="-6.0147083"><ele>109.0</ele><time>2026-04-27T16:40:57.999Z</time></trkpt><trkpt lat="35.3707617" lon="-6.0146333"><ele>106.0</ele><time>2026-04-27T16:40:58.999Z</time></trkpt><trkpt lat="35.3710083" lon="-6.01457"><ele>106.0</ele><time>2026-04-27T16:41:00Z</time></trkpt><trkpt lat="35.3712483" lon="-6.0145133"><ele>106.0</ele><time>2026-04-27T16:41:01Z</time></trkpt><trkpt lat="35.3715017" lon="-6.0144683"><ele>104.5</ele><time>2026-04-27T16:41:02Z</time></trkpt><trkpt lat="35.3717667" lon="-6.0144167"><ele>103.0</ele><time>2026-04-27T16:41:03Z</time></trkpt><trkpt lat="35.37203" lon="-6.0143783"><ele>103.5</ele><time>2026-04-27T16:41:04Z</time></trkpt><trkpt lat="35.372285" lon="-6.0143583"><ele>104.0</ele><time>2026-04-27T16:41:05Z</time></trkpt><trkpt lat="35.3725317" lon="-6.0143433"><ele>104.0</ele><time>2026-04-27T16:41:06Z</time></trkpt><trkpt lat="35.3727833" lon="-6.0143367"><ele>104.0</ele><time>2026-04-27T16:41:07Z</time></trkpt><trkpt lat="35.3730367" lon="-6.0143383"><ele>102.0</ele><time>2026-04-27T16:41:08Z</time></trkpt><trkpt lat="35.3732917" lon="-6.0143467"><ele>100.0</ele><time>2026-04-27T16:41:09Z</time></trkpt><trkpt lat="35.37354" lon="-6.014365"><ele>100.0</ele><time>2026-04-27T16:41:10Z</time></trkpt><trkpt lat="35.3737833" lon="-6.0143917"><ele>100.0</ele><time>2026-04-27T16:41:11Z</time></trkpt><trkpt lat="35.3740217" lon="-6.014425"><ele>98.0</ele><time>2026-04-27T16:41:12Z</time></trkpt><trkpt lat="35.374265" lon="-6.0144633"><ele>96.0</ele><time>2026-04-27T16:41:13Z</time></trkpt><trkpt lat="35.37451" lon="-6.01451"><ele>98.5</ele><time>2026-04-27T16:41:14Z</time></trkpt><trkpt lat="35.374755" lon="-6.0145667"><ele>101.0</ele><time>2026-04-27T16:41:15Z</time></trkpt><trkpt lat="35.3749983" lon="-6.0146283"><ele>101.0</ele><time>2026-04-27T16:41:15.999Z</time></trkpt><trkpt lat="35.3752483" lon="-6.0147"><ele>101.0</ele><time>2026-04-27T16:41:17Z</time></trkpt><trkpt lat="35.3754967" lon="-6.01478"><ele>101.5</ele><time>2026-04-27T16:41:18Z</time></trkpt><trkpt lat="35.3757383" lon="-6.01487"><ele>102.0</ele><time>2026-04-27T16:41:19Z</time></trkpt><trkpt lat="35.37598" lon="-6.014975"><ele>101.0</ele><time>2026-04-27T16:41:20Z</time></trkpt><trkpt lat="35.3762233" lon="-6.0150883"><ele>100.0</ele><time>2026-04-27T16:41:21Z</time></trkpt><trkpt lat="35.37646" lon="-6.0152183"><ele>100.0</ele><time>2026-04-27T16:41:22Z</time></trkpt><trkpt lat="35.3766967" lon="-6.0153533"><ele>100.0</ele><time>2026-04-27T16:41:23Z</time></trkpt><trkpt lat="35.3769183" lon="-6.0154917"><ele>100.0</ele><time>2026-04-27T16:41:24Z</time></trkpt><trkpt lat="35.37713" lon="-6.0156283"><ele>100.0</ele><time>2026-04-27T16:41:25Z</time></trkpt><trkpt lat="35.377345" lon="-6.0157683"><ele>99.0</ele><time>2026-04-27T16:41:26Z</time></trkpt><trkpt lat="35.3775567" lon="-6.015915"><ele>98.0</ele><time>2026-04-27T16:41:26.999Z</time></trkpt><trkpt lat="35.3777667" lon="-6.0160667"><ele>98.0</ele><time>2026-04-27T16:41:28Z</time></trkpt><trkpt lat="35.3779717" lon="-6.0162283"><ele>98.0</ele><time>2026-04-27T16:41:29Z</time></trkpt><trkpt lat="35.378175" lon="-6.0163917"><ele>94.5</ele><time>2026-04-27T16:41:30Z</time></trkpt><trkpt lat="35.3783683" lon="-6.016565"><ele>91.0</ele><time>2026-04-27T16:41:31Z</time></trkpt><trkpt lat="35.37856" lon="-6.0167367"><ele>91.0</ele><time>2026-04-27T16:41:31.999Z</time></trkpt><trkpt lat="35.378735" lon="-6.0169233"><ele>91.0</ele><time>2026-04-27T16:41:33Z</time></trkpt><trkpt lat="35.3789083" lon="-6.0171167"><ele>90.0</ele><time>2026-04-27T16:41:34Z</time></trkpt><trkpt lat="35.3790817" lon="-6.017315"><ele>89.0</ele><time>2026-04-27T16:41:35Z</time></trkpt><trkpt lat="35.3792517" lon="-6.0175133"><ele>89.0</ele><time>2026-04-27T16:41:36Z</time></trkpt><trkpt lat="35.379425" lon="-6.0177067"><ele>89.0</ele><time>2026-04-27T16:41:37Z</time></trkpt><trkpt lat="35.3795967" lon="-6.0179017"><ele>86.5</ele><time>2026-04-27T16:41:38Z</time></trkpt><trkpt lat="35.37977" lon="-6.0181"><ele>84.0</ele><time>2026-04-27T16:41:39Z</time></trkpt><trkpt lat="35.37995" lon="-6.0183033"><ele>89.5</ele><time>2026-04-27T16:41:39.999Z</time></trkpt><trkpt lat="35.3801333" lon="-6.0185133"><ele>95.0</ele><time>2026-04-27T16:41:41Z</time></trkpt><trkpt lat="35.3803217" lon="-6.018725"><ele>95.0</ele><time>2026-04-27T16:41:42Z</time></trkpt><trkpt lat="35.38051" lon="-6.0189317"><ele>95.0</ele><time>2026-04-27T16:41:43Z</time></trkpt><trkpt lat="35.380705" lon="-6.019135"><ele>94.5</ele><time>2026-04-27T16:41:44Z</time></trkpt><trkpt lat="35.38091" lon="-6.0193433"><ele>94.0</ele><time>2026-04-27T16:41:45Z</time></trkpt><trkpt lat="35.3811183" lon="-6.0195467"><ele>94.0</ele><time>2026-04-27T16:41:46Z</time></trkpt><trkpt lat="35.3813417" lon="-6.0197467"><ele>94.0</ele><time>2026-04-27T16:41:47Z</time></trkpt><trkpt lat="35.3815683" lon="-6.019945"><ele>89.0</ele><time>2026-04-27T16:41:48Z</time></trkpt><trkpt lat="35.3818083" lon="-6.020135"><ele>84.0</ele><time>2026-04-27T16:41:49Z</time></trkpt><trkpt lat="35.3820467" lon="-6.020325"><ele>81.0</ele><time>2026-04-27T16:41:50Z</time></trkpt><trkpt lat="35.382285" lon="-6.020495"><ele>78.0</ele><time>2026-04-27T16:41:51Z</time></trkpt><trkpt lat="35.3825283" lon="-6.020655"><ele>76.5</ele><time>2026-04-27T16:41:52Z</time></trkpt><trkpt lat="35.382775" lon="-6.02082"><ele>75.0</ele><time>2026-04-27T16:41:53Z</time></trkpt><trkpt lat="35.38302" lon="-6.0209867"><ele>75.0</ele><time>2026-04-27T16:41:54Z</time></trkpt><trkpt lat="35.3832583" lon="-6.0211333"><ele>75.0</ele><time>2026-04-27T16:41:55Z</time></trkpt><trkpt lat="35.3834983" lon="-6.021265"><ele>75.0</ele><time>2026-04-27T16:41:56Z</time></trkpt><trkpt lat="35.3837433" lon="-6.021385"><ele>75.0</ele><time>2026-04-27T16:41:57Z</time></trkpt><trkpt lat="35.3839967" lon="-6.0214967"><ele>72.0</ele><time>2026-04-27T16:41:58Z</time></trkpt><trkpt lat="35.3842583" lon="-6.0216067"><ele>69.0</ele><time>2026-04-27T16:41:59Z</time></trkpt><trkpt lat="35.3845083" lon="-6.0217117"><ele>66.0</ele><time>2026-04-27T16:42:00Z</time></trkpt><trkpt lat="35.3847533" lon="-6.021805"><ele>63.0</ele><time>2026-04-27T16:42:01Z</time></trkpt><trkpt lat="35.38499" lon="-6.021895"><ele>63.0</ele><time>2026-04-27T16:42:02Z</time></trkpt><trkpt lat="35.3852333" lon="-6.02198"><ele>63.0</ele><time>2026-04-27T16:42:03Z</time></trkpt><trkpt lat="35.385475" lon="-6.0220617"><ele>64.0</ele><time>2026-04-27T16:42:04Z</time></trkpt><trkpt lat="35.3857167" lon="-6.02213"><ele>65.0</ele><time>2026-04-27T16:42:04.999Z</time></trkpt><trkpt lat="35.3859533" lon="-6.02219"><ele>65.0</ele><time>2026-04-27T16:42:06Z</time></trkpt><trkpt lat="35.386185" lon="-6.02224"><ele>65.0</ele><time>2026-04-27T16:42:07Z</time></trkpt><trkpt lat="35.3864217" lon="-6.0222833"><ele>66.0</ele><time>2026-04-27T16:42:08Z</time></trkpt><trkpt lat="35.38666" lon="-6.0223183"><ele>67.0</ele><time>2026-04-27T16:42:09Z</time></trkpt><trkpt lat="35.3869017" lon="-6.0223467"><ele>67.0</ele><time>2026-04-27T16:42:10Z</time></trkpt><trkpt lat="35.3871517" lon="-6.02237"><ele>67.0</ele><time>2026-04-27T16:42:11Z</time></trkpt><trkpt lat="35.3874067" lon="-6.0223983"><ele>70.0</ele><time>2026-04-27T16:42:11.999Z</time></trkpt><trkpt lat="35.3876667" lon="-6.022415"><ele>73.0</ele><time>2026-04-27T16:42:13Z</time></trkpt><trkpt lat="35.38792" lon="-6.0224267"><ele>73.5</ele><time>2026-04-27T16:42:14Z</time></trkpt><trkpt lat="35.3881633" lon="-6.0224383"><ele>74.0</ele><time>2026-04-27T16:42:15Z</time></trkpt><trkpt lat="35.3884" lon="-6.022445"><ele>74.0</ele><time>2026-04-27T16:42:16Z</time></trkpt><trkpt lat="35.38863" lon="-6.0224433"><ele>74.0</ele><time>2026-04-27T16:42:17Z</time></trkpt><trkpt lat="35.388865" lon="-6.0224283"><ele>72.5</ele><time>2026-04-27T16:42:18Z</time></trkpt><trkpt lat="35.3891017" lon="-6.0224033"><ele>71.0</ele><time>2026-04-27T16:42:18.999Z</time></trkpt><trkpt lat="35.38934" lon="-6.0223767"><ele>71.0</ele><time>2026-04-27T16:42:20Z</time></trkpt><trkpt lat="35.38958" lon="-6.0223517"><ele>71.0</ele><time>2026-04-27T16:42:21Z</time></trkpt><trkpt lat="35.38982" lon="-6.0223133"><ele>67.0</ele><time>2026-04-27T16:42:22Z</time></trkpt><trkpt lat="35.3900617" lon="-6.0222633"><ele>63.0</ele><time>2026-04-27T16:42:23Z</time></trkpt><trkpt lat="35.3903083" lon="-6.0222117"><ele>61.5</ele><time>2026-04-27T16:42:24Z</time></trkpt><trkpt lat="35.3905517" lon="-6.022145"><ele>60.0</ele><time>2026-04-27T16:42:25Z</time></trkpt><trkpt lat="35.3907967" lon="-6.0220733"><ele>60.0</ele><time>2026-04-27T16:42:25.999Z</time></trkpt><trkpt lat="35.391045" lon="-6.0219983"><ele>60.0</ele><time>2026-04-27T16:42:27Z</time></trkpt><trkpt lat="35.3912917" lon="-6.0219167"><ele>61.0</ele><time>2026-04-27T16:42:28Z</time></trkpt><trkpt lat="35.391535" lon="-6.021825"><ele>62.0</ele><time>2026-04-27T16:42:29Z</time></trkpt><trkpt lat="35.39178" lon="-6.021725"><ele>63.0</ele><time>2026-04-27T16:42:30Z</time></trkpt><trkpt lat="35.3920317" lon="-6.0216183"><ele>64.0</ele><time>2026-04-27T16:42:31Z</time></trkpt><trkpt lat="35.392285" lon="-6.0215117"><ele>64.0</ele><time>2026-04-27T16:42:32Z</time></trkpt><trkpt lat="35.39254" lon="-6.0214"><ele>64.0</ele><time>2026-04-27T16:42:33Z</time></trkpt><trkpt lat="35.3927983" lon="-6.021295"><ele>61.0</ele><time>2026-04-27T16:42:34Z</time></trkpt><trkpt lat="35.39305" lon="-6.0211917"><ele>58.0</ele><time>2026-04-27T16:42:35Z</time></trkpt><trkpt lat="35.3932917" lon="-6.0210917"><ele>58.0</ele><time>2026-04-27T16:42:36Z</time></trkpt><trkpt lat="35.3935333" lon="-6.0209867"><ele>58.0</ele><time>2026-04-27T16:42:37Z</time></trkpt><trkpt lat="35.393775" lon="-6.0208817"><ele>60.5</ele><time>2026-04-27T16:42:38Z</time></trkpt><trkpt lat="35.3940183" lon="-6.02078"><ele>63.0</ele><time>2026-04-27T16:42:39Z</time></trkpt><trkpt lat="35.3942617" lon="-6.020675"><ele>63.0</ele><time>2026-04-27T16:42:40Z</time></trkpt><trkpt lat="35.394515" lon="-6.020575"><ele>63.0</ele><time>2026-04-27T16:42:41Z</time></trkpt><trkpt lat="35.3947733" lon="-6.0204867"><ele>63.0</ele><time>2026-04-27T16:42:42Z</time></trkpt><trkpt lat="35.3950367" lon="-6.0204067"><ele>63.0</ele><time>2026-04-27T16:42:43Z</time></trkpt><trkpt lat="35.3953083" lon="-6.0203383"><ele>59.5</ele><time>2026-04-27T16:42:44Z</time></trkpt><trkpt lat="35.3955783" lon="-6.02028"><ele>56.0</ele><time>2026-04-27T16:42:45Z</time></trkpt><trkpt lat="35.3958583" lon="-6.020235"><ele>56.0</ele><time>2026-04-27T16:42:46Z</time></trkpt><trkpt lat="35.396145" lon="-6.020195"><ele>56.0</ele><time>2026-04-27T16:42:47Z</time></trkpt><trkpt lat="35.3964367" lon="-6.0201617"><ele>55.5</ele><time>2026-04-27T16:42:48Z</time></trkpt><trkpt lat="35.3967317" lon="-6.0201333"><ele>55.0</ele><time>2026-04-27T16:42:49Z</time></trkpt><trkpt lat="35.3970117" lon="-6.0201167"><ele>54.5</ele><time>2026-04-27T16:42:49.999Z</time></trkpt><trkpt lat="35.3972733" lon="-6.0200983"><ele>54.0</ele><time>2026-04-27T16:42:51Z</time></trkpt><trkpt lat="35.3975283" lon="-6.02008"><ele>54.0</ele><time>2026-04-27T16:42:52Z</time></trkpt><trkpt lat="35.3977783" lon="-6.02006"><ele>54.0</ele><time>2026-04-27T16:42:53Z</time></trkpt><trkpt lat="35.39803" lon="-6.02004"><ele>54.0</ele><time>2026-04-27T16:42:53.999Z</time></trkpt><trkpt lat="35.39828" lon="-6.02002"><ele>54.0</ele><time>2026-04-27T16:42:55Z</time></trkpt><trkpt lat="35.3985317" lon="-6.0199933"><ele>57.0</ele><time>2026-04-27T16:42:55.999Z</time></trkpt><trkpt lat="35.3987817" lon="-6.0199733"><ele>60.0</ele><time>2026-04-27T16:42:57Z</time></trkpt><trkpt lat="35.399035" lon="-6.0199517"><ele>60.0</ele><time>2026-04-27T16:42:58Z</time></trkpt><trkpt lat="35.39929" lon="-6.019925"><ele>60.0</ele><time>2026-04-27T16:42:59Z</time></trkpt><trkpt lat="35.3995467" lon="-6.0199083"><ele>60.5</ele><time>2026-04-27T16:43:00Z</time></trkpt><trkpt lat="35.399805" lon="-6.0198867"><ele>61.0</ele><time>2026-04-27T16:43:00.999Z</time></trkpt><trkpt lat="35.4000667" lon="-6.019865"><ele>61.0</ele><time>2026-04-27T16:43:02Z</time></trkpt><trkpt lat="35.4003317" lon="-6.019845"><ele>61.0</ele><time>2026-04-27T16:43:03Z</time></trkpt><trkpt lat="35.4006017" lon="-6.0198233"><ele>60.5</ele><time>2026-04-27T16:43:04Z</time></trkpt><trkpt lat="35.4008817" lon="-6.0198083"><ele>60.0</ele><time>2026-04-27T16:43:05Z</time></trkpt><trkpt lat="35.4011717" lon="-6.0198067"><ele>59.5</ele><time>2026-04-27T16:43:06Z</time></trkpt><trkpt lat="35.4014683" lon="-6.0198183"><ele>59.0</ele><time>2026-04-27T16:43:06.999Z</time></trkpt><trkpt lat="35.4017567" lon="-6.0198317"><ele>59.0</ele><time>2026-04-27T16:43:08Z</time></trkpt><trkpt lat="35.4020383" lon="-6.0198483"><ele>59.0</ele><time>2026-04-27T16:43:09Z</time></trkpt><trkpt lat="35.40231" lon="-6.01987"><ele>58.5</ele><time>2026-04-27T16:43:09.999Z</time></trkpt><trkpt lat="35.4025917" lon="-6.0198883"><ele>58.0</ele><time>2026-04-27T16:43:11Z</time></trkpt><trkpt lat="35.4028667" lon="-6.0199083"><ele>57.0</ele><time>2026-04-27T16:43:12Z</time></trkpt><trkpt lat="35.403145" lon="-6.0199367"><ele>56.0</ele><time>2026-04-27T16:43:13Z</time></trkpt><trkpt lat="35.4034183" lon="-6.0199617"><ele>54.5</ele><time>2026-04-27T16:43:14Z</time></trkpt><trkpt lat="35.403705" lon="-6.0199933"><ele>53.0</ele><time>2026-04-27T16:43:15Z</time></trkpt><trkpt lat="35.4040067" lon="-6.0200117"><ele>52.5</ele><time>2026-04-27T16:43:16Z</time></trkpt><trkpt lat="35.4043117" lon="-6.0200267"><ele>52.0</ele><time>2026-04-27T16:43:17Z</time></trkpt><trkpt lat="35.404625" lon="-6.0200333"><ele>51.0</ele><time>2026-04-27T16:43:18Z</time></trkpt><trkpt lat="35.4049267" lon="-6.0200383"><ele>50.0</ele><time>2026-04-27T16:43:18.999Z</time></trkpt><trkpt lat="35.4052283" lon="-6.02005"><ele>49.5</ele><time>2026-04-27T16:43:20Z</time></trkpt><trkpt lat="35.4055283" lon="-6.0200583"><ele>49.0</ele><time>2026-04-27T16:43:21Z</time></trkpt><trkpt lat="35.4058267" lon="-6.0200767"><ele>49.0</ele><time>2026-04-27T16:43:22Z</time></trkpt><trkpt lat="35.4061183" lon="-6.0200967"><ele>49.0</ele><time>2026-04-27T16:43:23Z</time></trkpt><trkpt lat="35.4063983" lon="-6.020115"><ele>48.5</ele><time>2026-04-27T16:43:24Z</time></trkpt><trkpt lat="35.4066767" lon="-6.020135"><ele>48.0</ele><time>2026-04-27T16:43:25Z</time></trkpt><trkpt lat="35.4069533" lon="-6.0201567"><ele>47.5</ele><time>2026-04-27T16:43:26Z</time></trkpt><trkpt lat="35.4072117" lon="-6.0201883"><ele>47.0</ele><time>2026-04-27T16:43:27Z</time></trkpt><trkpt lat="35.407455" lon="-6.02023"><ele>47.0</ele><time>2026-04-27T16:43:28Z</time></trkpt><trkpt lat="35.40769" lon="-6.020285"><ele>47.0</ele><time>2026-04-27T16:43:29Z</time></trkpt><trkpt lat="35.40792" lon="-6.0203367"><ele>49.0</ele><time>2026-04-27T16:43:30Z</time></trkpt><trkpt lat="35.4081417" lon="-6.0203967"><ele>51.0</ele><time>2026-04-27T16:43:31Z</time></trkpt><trkpt lat="35.4083683" lon="-6.0204583"><ele>51.0</ele><time>2026-04-27T16:43:31.999Z</time></trkpt><trkpt lat="35.40861" lon="-6.0205167"><ele>51.0</ele><time>2026-04-27T16:43:33Z</time></trkpt><trkpt lat="35.4088433" lon="-6.0205883"><ele>56.0</ele><time>2026-04-27T16:43:34Z</time></trkpt><trkpt lat="35.40909" lon="-6.0206533"><ele>61.0</ele><time>2026-04-27T16:43:35Z</time></trkpt><trkpt lat="35.4093533" lon="-6.0207217"><ele>61.0</ele><time>2026-04-27T16:43:36Z</time></trkpt><trkpt lat="35.40963" lon="-6.0207867"><ele>61.0</ele><time>2026-04-27T16:43:37Z</time></trkpt><trkpt lat="35.4098983" lon="-6.02086"><ele>57.0</ele><time>2026-04-27T16:43:38Z</time></trkpt><trkpt lat="35.4101783" lon="-6.0209317"><ele>53.0</ele><time>2026-04-27T16:43:39Z</time></trkpt><trkpt lat="35.41046" lon="-6.0210083"><ele>53.0</ele><time>2026-04-27T16:43:40Z</time></trkpt><trkpt lat="35.4107483" lon="-6.0210783"><ele>53.0</ele><time>2026-04-27T16:43:41Z</time></trkpt><trkpt lat="35.4110317" lon="-6.0211567"><ele>53.0</ele><time>2026-04-27T16:43:42Z</time></trkpt><trkpt lat="35.4113" lon="-6.02123"><ele>53.0</ele><time>2026-04-27T16:43:43Z</time></trkpt><trkpt lat="35.41155" lon="-6.021305"><ele>54.5</ele><time>2026-04-27T16:43:44Z</time></trkpt><trkpt lat="35.411785" lon="-6.02137"><ele>56.0</ele><time>2026-04-27T16:43:44.999Z</time></trkpt><trkpt lat="35.412015" lon="-6.0214317"><ele>55.5</ele><time>2026-04-27T16:43:46Z</time></trkpt><trkpt lat="35.4122533" lon="-6.0214983"><ele>55.0</ele><time>2026-04-27T16:43:47Z</time></trkpt><trkpt lat="35.4124933" lon="-6.0215683"><ele>55.0</ele><time>2026-04-27T16:43:48Z</time></trkpt><trkpt lat="35.41273" lon="-6.02163"><ele>55.0</ele><time>2026-04-27T16:43:49Z</time></trkpt><trkpt lat="35.412965" lon="-6.0216933"><ele>53.5</ele><time>2026-04-27T16:43:50Z</time></trkpt><trkpt lat="35.4132067" lon="-6.0217517"><ele>52.0</ele><time>2026-04-27T16:43:51Z</time></trkpt><trkpt lat="35.4134483" lon="-6.02182"><ele>52.0</ele><time>2026-04-27T16:43:52Z</time></trkpt><trkpt lat="35.4136867" lon="-6.02188"><ele>52.0</ele><time>2026-04-27T16:43:53Z</time></trkpt><trkpt lat="35.41391" lon="-6.0219467"><ele>52.666666666666664</ele><time>2026-04-27T16:43:54Z</time></trkpt><trkpt lat="35.4141233" lon="-6.0220083"><ele>53.33333333333333</ele><time>2026-04-27T16:43:55Z</time></trkpt><trkpt lat="35.41434" lon="-6.0220667"><ele>54.0</ele><time>2026-04-27T16:43:55.999Z</time></trkpt><trkpt lat="35.414545" lon="-6.0221217"><ele>54.0</ele><time>2026-04-27T16:43:57Z</time></trkpt><trkpt lat="35.4147417" lon="-6.0221667"><ele>54.0</ele><time>2026-04-27T16:43:58Z</time></trkpt><trkpt lat="35.4149467" lon="-6.0222267"><ele>54.0</ele><time>2026-04-27T16:43:59Z</time></trkpt><trkpt lat="35.4151667" lon="-6.0222867"><ele>54.0</ele><time>2026-04-27T16:44:00Z</time></trkpt><trkpt lat="35.4153933" lon="-6.0223433"><ele>54.0</ele><time>2026-04-27T16:44:01Z</time></trkpt><trkpt lat="35.4156317" lon="-6.02241"><ele>53.5</ele><time>2026-04-27T16:44:02Z</time></trkpt><trkpt lat="35.4158867" lon="-6.022475"><ele>53.0</ele><time>2026-04-27T16:44:03Z</time></trkpt><trkpt lat="35.4161483" lon="-6.022535"><ele>53.5</ele><time>2026-04-27T16:44:04Z</time></trkpt><trkpt lat="35.41641" lon="-6.022595"><ele>54.0</ele><time>2026-04-27T16:44:05Z</time></trkpt><trkpt lat="35.4166533" lon="-6.022655"><ele>54.0</ele><time>2026-04-27T16:44:06Z</time></trkpt><trkpt lat="35.416885" lon="-6.0227167"><ele>54.0</ele><time>2026-04-27T16:44:07Z</time></trkpt><trkpt lat="35.4171067" lon="-6.02278"><ele>52.5</ele><time>2026-04-27T16:44:08Z</time></trkpt><trkpt lat="35.4173283" lon="-6.0228483"><ele>51.0</ele><time>2026-04-27T16:44:09Z</time></trkpt><trkpt lat="35.4175483" lon="-6.0229217"><ele>51.0</ele><time>2026-04-27T16:44:10Z</time></trkpt><trkpt lat="35.4177617" lon="-6.0230067"><ele>51.0</ele><time>2026-04-27T16:44:11Z</time></trkpt><trkpt lat="35.417965" lon="-6.023095"><ele>51.0</ele><time>2026-04-27T16:44:12Z</time></trkpt><trkpt lat="35.4181617" lon="-6.02319"><ele>49.333333333333336</ele><time>2026-04-27T16:44:13Z</time></trkpt><trkpt lat="35.4183483" lon="-6.0232883"><ele>47.66666666666667</ele><time>2026-04-27T16:44:14Z</time></trkpt><trkpt lat="35.4185367" lon="-6.0234133"><ele>46.0</ele><time>2026-04-27T16:44:15Z</time></trkpt><trkpt lat="35.4187167" lon="-6.023545"><ele>45.333333333333336</ele><time>2026-04-27T16:44:16Z</time></trkpt><trkpt lat="35.4188933" lon="-6.02368"><ele>44.666666666666664</ele><time>2026-04-27T16:44:16.999Z</time></trkpt><trkpt lat="35.419055" lon="-6.02382"><ele>44.0</ele><time>2026-04-27T16:44:18Z</time></trkpt><trkpt lat="35.41922" lon="-6.0239617"><ele>44.0</ele><time>2026-04-27T16:44:18.999Z</time></trkpt><trkpt lat="35.4193683" lon="-6.0241267"><ele>44.0</ele><time>2026-04-27T16:44:20Z</time></trkpt><trkpt lat="35.4195133" lon="-6.0242917"><ele>44.0</ele><time>2026-04-27T16:44:21Z</time></trkpt><trkpt lat="35.419655" lon="-6.024465"><ele>42.0</ele><time>2026-04-27T16:44:21.999Z</time></trkpt><trkpt lat="35.4197933" lon="-6.0246567"><ele>40.0</ele><time>2026-04-27T16:44:23Z</time></trkpt><trkpt lat="35.4199217" lon="-6.02486"><ele>38.0</ele><time>2026-04-27T16:44:24Z</time></trkpt><trkpt lat="35.420065" lon="-6.0250633"><ele>37.5</ele><time>2026-04-27T16:44:25Z</time></trkpt><trkpt lat="35.4202067" lon="-6.0252783"><ele>37.0</ele><time>2026-04-27T16:44:26Z</time></trkpt><trkpt lat="35.42035" lon="-6.02553"><ele>35.0</ele><time>2026-04-27T16:44:27Z</time></trkpt><trkpt lat="35.42051" lon="-6.0257733"><ele>33.0</ele><time>2026-04-27T16:44:27.999Z</time></trkpt><trkpt lat="35.4206783" lon="-6.0260233"><ele>33.0</ele><time>2026-04-27T16:44:29Z</time></trkpt><trkpt lat="35.4208483" lon="-6.0262817"><ele>33.0</ele><time>2026-04-27T16:44:30Z</time></trkpt><trkpt lat="35.42102" lon="-6.0265517"><ele>35.5</ele><time>2026-04-27T16:44:31Z</time></trkpt><trkpt lat="35.421195" lon="-6.0268233"><ele>38.0</ele><time>2026-04-27T16:44:32Z</time></trkpt><trkpt lat="35.421375" lon="-6.0271033"><ele>38.0</ele><time>2026-04-27T16:44:33Z</time></trkpt><trkpt lat="35.4215583" lon="-6.0273917"><ele>38.0</ele><time>2026-04-27T16:44:34Z</time></trkpt><trkpt lat="35.4217433" lon="-6.0276833"><ele>41.5</ele><time>2026-04-27T16:44:35Z</time></trkpt><trkpt lat="35.4219333" lon="-6.0279783"><ele>45.0</ele><time>2026-04-27T16:44:36Z</time></trkpt><trkpt lat="35.4221217" lon="-6.0282783"><ele>42.5</ele><time>2026-04-27T16:44:37Z</time></trkpt><trkpt lat="35.4222983" lon="-6.0285767"><ele>40.0</ele><time>2026-04-27T16:44:38Z</time></trkpt><trkpt lat="35.4224683" lon="-6.0288717"><ele>44.0</ele><time>2026-04-27T16:44:39Z</time></trkpt><trkpt lat="35.42263" lon="-6.0291683"><ele>48.0</ele><time>2026-04-27T16:44:40Z</time></trkpt><trkpt lat="35.42279" lon="-6.0294733"><ele>48.0</ele><time>2026-04-27T16:44:41Z</time></trkpt><trkpt lat="35.422945" lon="-6.029765"><ele>48.0</ele><time>2026-04-27T16:44:42Z</time></trkpt><trkpt lat="35.4230967" lon="-6.0300617"><ele>44.5</ele><time>2026-04-27T16:44:43Z</time></trkpt><trkpt lat="35.4232517" lon="-6.03036"><ele>41.0</ele><time>2026-04-27T16:44:43.999Z</time></trkpt><trkpt lat="35.423405" lon="-6.030665"><ele>43.0</ele><time>2026-04-27T16:44:45Z</time></trkpt><trkpt lat="35.4235567" lon="-6.0309733"><ele>45.0</ele><time>2026-04-27T16:44:46Z</time></trkpt><trkpt lat="35.423705" lon="-6.0312617"><ele>46.5</ele><time>2026-04-27T16:44:47Z</time></trkpt><trkpt lat="35.42384" lon="-6.0315283"><ele>48.0</ele><time>2026-04-27T16:44:48Z</time></trkpt><trkpt lat="35.423965" lon="-6.0317733"><ele>49.33333333333333</ele><time>2026-04-27T16:44:48.999Z</time></trkpt><trkpt lat="35.4240817" lon="-6.0320033"><ele>50.666666666666664</ele><time>2026-04-27T16:44:50Z</time></trkpt><trkpt lat="35.4241883" lon="-6.032225"><ele>52.0</ele><time>2026-04-27T16:44:51Z</time></trkpt><trkpt lat="35.424295" lon="-6.03243"><ele>52.0</ele><time>2026-04-27T16:44:52Z</time></trkpt><trkpt lat="35.4243967" lon="-6.03263"><ele>52.0</ele><time>2026-04-27T16:44:53Z</time></trkpt><trkpt lat="35.4244967" lon="-6.032825"><ele>52.0</ele><time>2026-04-27T16:44:54Z</time></trkpt><trkpt lat="35.424595" lon="-6.0330167"><ele>55.33333333333333</ele><time>2026-04-27T16:44:55Z</time></trkpt><trkpt lat="35.4246933" lon="-6.0332"><ele>58.66666666666667</ele><time>2026-04-27T16:44:56Z</time></trkpt><trkpt lat="35.4248033" lon="-6.0333783"><ele>62.0</ele><time>2026-04-27T16:44:57Z</time></trkpt><trkpt lat="35.4249233" lon="-6.0335467"><ele>63.0</ele><time>2026-04-27T16:44:58Z</time></trkpt><trkpt lat="35.4250567" lon="-6.0337083"><ele>64.0</ele><time>2026-04-27T16:44:59Z</time></trkpt><trkpt lat="35.4251983" lon="-6.0338533"><ele>65.0</ele><time>2026-04-27T16:45:00Z</time></trkpt><trkpt lat="35.4253283" lon="-6.0339917"><ele>65.0</ele><time>2026-04-27T16:45:01Z</time></trkpt><trkpt lat="35.4254517" lon="-6.03412"><ele>65.0</ele><time>2026-04-27T16:45:02Z</time></trkpt><trkpt lat="35.42557" lon="-6.034235"><ele>65.0</ele><time>2026-04-27T16:45:03Z</time></trkpt><trkpt lat="35.4256833" lon="-6.03434"><ele>66.75</ele><time>2026-04-27T16:45:04Z</time></trkpt><trkpt lat="35.42581" lon="-6.0344317"><ele>68.5</ele><time>2026-04-27T16:45:05Z</time></trkpt><trkpt lat="35.4259333" lon="-6.03453"><ele>70.25</ele><time>2026-04-27T16:45:06Z</time></trkpt><trkpt lat="35.4260617" lon="-6.0346183"><ele>72.0</ele><time>2026-04-27T16:45:07Z</time></trkpt><trkpt lat="35.4261917" lon="-6.034705"><ele>73.5</ele><time>2026-04-27T16:45:08Z</time></trkpt><trkpt lat="35.4263233" lon="-6.03478"><ele>75.0</ele><time>2026-04-27T16:45:08.999Z</time></trkpt><trkpt lat="35.426445" lon="-6.0348583"><ele>76.5</ele><time>2026-04-27T16:45:10Z</time></trkpt><trkpt lat="35.4265617" lon="-6.0349267"><ele>78.0</ele><time>2026-04-27T16:45:11Z</time></trkpt><trkpt lat="35.42667" lon="-6.0349833"><ele>78.0</ele><time>2026-04-27T16:45:11.999Z</time></trkpt><trkpt lat="35.42678" lon="-6.0350383"><ele>78.0</ele><time>2026-04-27T16:45:13Z</time></trkpt><trkpt lat="35.4269017" lon="-6.0350783"><ele>78.0</ele><time>2026-04-27T16:45:14Z</time></trkpt><trkpt lat="35.427035" lon="-6.035125"><ele>78.0</ele><time>2026-04-27T16:45:15Z</time></trkpt><trkpt lat="35.427175" lon="-6.035165"><ele>79.66666666666667</ele><time>2026-04-27T16:45:16Z</time></trkpt><trkpt lat="35.4273333" lon="-6.0352033"><ele>81.33333333333334</ele><time>2026-04-27T16:45:17Z</time></trkpt><trkpt lat="35.4274967" lon="-6.0352467"><ele>83.0</ele><time>2026-04-27T16:45:18Z</time></trkpt><trkpt lat="35.4276483" lon="-6.0352933"><ele>83.0</ele><time>2026-04-27T16:45:19Z</time></trkpt><trkpt lat="35.4277783" lon="-6.035345"><ele>83.0</ele><time>2026-04-27T16:45:20Z</time></trkpt><trkpt lat="35.4279067" lon="-6.0353883"><ele>83.0</ele><time>2026-04-27T16:45:21Z</time></trkpt><trkpt lat="35.4280417" lon="-6.035425"><ele>83.0</ele><time>2026-04-27T16:45:21.999Z</time></trkpt><trkpt lat="35.42817" lon="-6.035465"><ele>83.5</ele><time>2026-04-27T16:45:22.999Z</time></trkpt><trkpt lat="35.4283017" lon="-6.0355083"><ele>84.0</ele><time>2026-04-27T16:45:24Z</time></trkpt><trkpt lat="35.4284417" lon="-6.0355467"><ele>84.5</ele><time>2026-04-27T16:45:25Z</time></trkpt><trkpt lat="35.42858" lon="-6.03559"><ele>85.0</ele><time>2026-04-27T16:45:26Z</time></trkpt><trkpt lat="35.42872" lon="-6.0356317"><ele>84.75</ele><time>2026-04-27T16:45:27Z</time></trkpt><trkpt lat="35.428865" lon="-6.0356667"><ele>84.5</ele><time>2026-04-27T16:45:27.999Z</time></trkpt><trkpt lat="35.4290133" lon="-6.035705"><ele>84.25</ele><time>2026-04-27T16:45:29Z</time></trkpt><trkpt lat="35.4291583" lon="-6.03575"><ele>84.0</ele><time>2026-04-27T16:45:30Z</time></trkpt><trkpt lat="35.4293083" lon="-6.0358033"><ele>84.33333333333333</ele><time>2026-04-27T16:45:31Z</time></trkpt><trkpt lat="35.42946" lon="-6.03586"><ele>84.66666666666666</ele><time>2026-04-27T16:45:32Z</time></trkpt><trkpt lat="35.429615" lon="-6.035915"><ele>85.0</ele><time>2026-04-27T16:45:33Z</time></trkpt><trkpt lat="35.4297683" lon="-6.0359733"><ele>85.66666666666666</ele><time>2026-04-27T16:45:34Z</time></trkpt><trkpt lat="35.4299233" lon="-6.0360367"><ele>86.33333333333333</ele><time>2026-04-27T16:45:34.999Z</time></trkpt><trkpt lat="35.4300833" lon="-6.0360983"><ele>87.0</ele><time>2026-04-27T16:45:36Z</time></trkpt><trkpt lat="35.43024" lon="-6.0361583"><ele>87.0</ele><time>2026-04-27T16:45:37Z</time></trkpt><trkpt lat="35.43038" lon="-6.0362167"><ele>87.0</ele><time>2026-04-27T16:45:37.999Z</time></trkpt><trkpt lat="35.4305133" lon="-6.0362717"><ele>87.0</ele><time>2026-04-27T16:45:39Z</time></trkpt><trkpt lat="35.43064" lon="-6.036335"><ele>87.0</ele><time>2026-04-27T16:45:40Z</time></trkpt><trkpt lat="35.4307567" lon="-6.0363933"><ele>87.25</ele><time>2026-04-27T16:45:41Z</time></trkpt><trkpt lat="35.430865" lon="-6.036445"><ele>87.5</ele><time>2026-04-27T16:45:42Z</time></trkpt><trkpt lat="35.4309767" lon="-6.036495"><ele>87.75</ele><time>2026-04-27T16:45:43Z</time></trkpt><trkpt lat="35.4310933" lon="-6.0365417"><ele>88.0</ele><time>2026-04-27T16:45:44Z</time></trkpt><trkpt lat="35.4312117" lon="-6.036595"><ele>88.25</ele><time>2026-04-27T16:45:45Z</time></trkpt><trkpt lat="35.431335" lon="-6.03665"><ele>88.5</ele><time>2026-04-27T16:45:46Z</time></trkpt><trkpt lat="35.4314567" lon="-6.0367067"><ele>88.75</ele><time>2026-04-27T16:45:47Z</time></trkpt><trkpt lat="35.4315883" lon="-6.03676"><ele>89.0</ele><time>2026-04-27T16:45:48Z</time></trkpt><trkpt lat="35.431715" lon="-6.0368217"><ele>89.0</ele><time>2026-04-27T16:45:49Z</time></trkpt><trkpt lat="35.4318517" lon="-6.0368783"><ele>89.0</ele><time>2026-04-27T16:45:50Z</time></trkpt><trkpt lat="35.431985" lon="-6.0369367"><ele>89.0</ele><time>2026-04-27T16:45:51Z</time></trkpt><trkpt lat="35.4321233" lon="-6.0370017"><ele>89.0</ele><time>2026-04-27T16:45:51.999Z</time></trkpt><trkpt lat="35.4322683" lon="-6.0370633"><ele>88.5</ele><time>2026-04-27T16:45:53Z</time></trkpt><trkpt lat="35.4324017" lon="-6.03713"><ele>88.0</ele><time>2026-04-27T16:45:54Z</time></trkpt><trkpt lat="35.432535" lon="-6.03719"><ele>87.5</ele><time>2026-04-27T16:45:55Z</time></trkpt><trkpt lat="35.4326583" lon="-6.0372517"><ele>87.0</ele><time>2026-04-27T16:45:56Z</time></trkpt><trkpt lat="35.432775" lon="-6.0373"><ele>87.0</ele><time>2026-04-27T16:45:57Z</time></trkpt><trkpt lat="35.4328867" lon="-6.0373483"><ele>87.0</ele><time>2026-04-27T16:45:58Z</time></trkpt><trkpt lat="35.432995" lon="-6.0373967"><ele>87.0</ele><time>2026-04-27T16:45:59Z</time></trkpt><trkpt lat="35.4331033" lon="-6.0374417"><ele>87.0</ele><time>2026-04-27T16:46:00Z</time></trkpt><trkpt lat="35.4332067" lon="-6.0374867"><ele>87.0</ele><time>2026-04-27T16:46:01Z</time></trkpt><trkpt lat="35.4333083" lon="-6.0375333"><ele>87.0</ele><time>2026-04-27T16:46:02Z</time></trkpt><trkpt lat="35.4334083" lon="-6.0375767"><ele>87.0</ele><time>2026-04-27T16:46:03Z</time></trkpt><trkpt lat="35.4335083" lon="-6.0376217"><ele>87.0</ele><time>2026-04-27T16:46:04Z</time></trkpt><trkpt lat="35.4336167" lon="-6.037655"><ele>87.0</ele><time>2026-04-27T16:46:05Z</time></trkpt><trkpt lat="35.4337167" lon="-6.0376733"><ele>86.39999999999999</ele><time>2026-04-27T16:46:06Z</time></trkpt><trkpt lat="35.43382" lon="-6.0376883"><ele>85.8</ele><time>2026-04-27T16:46:07Z</time></trkpt><trkpt lat="35.4339183" lon="-6.0377317"><ele>85.2</ele><time>2026-04-27T16:46:08Z</time></trkpt><trkpt lat="35.434005" lon="-6.0377983"><ele>84.6</ele><time>2026-04-27T16:46:09Z</time></trkpt><trkpt lat="35.43409" lon="-6.0378683"><ele>84.0</ele><time>2026-04-27T16:46:10Z</time></trkpt><trkpt lat="35.4341983" lon="-6.0379317"><ele>84.0</ele><time>2026-04-27T16:46:10.999Z</time></trkpt><trkpt lat="35.4343183" lon="-6.0379933"><ele>84.0</ele><time>2026-04-27T16:46:12Z</time></trkpt><trkpt lat="35.43445" lon="-6.0380517"><ele>84.0</ele><time>2026-04-27T16:46:13Z</time></trkpt><trkpt lat="35.434595" lon="-6.03811"><ele>84.0</ele><time>2026-04-27T16:46:14Z</time></trkpt><trkpt lat="35.4347317" lon="-6.0381683"><ele>84.25</ele><time>2026-04-27T16:46:15Z</time></trkpt><trkpt lat="35.4348617" lon="-6.0382333"><ele>84.5</ele><time>2026-04-27T16:46:16Z</time></trkpt><trkpt lat="35.4349867" lon="-6.0382867"><ele>84.75</ele><time>2026-04-27T16:46:17Z</time></trkpt><trkpt lat="35.4351033" lon="-6.0383383"><ele>85.0</ele><time>2026-04-27T16:46:18Z</time></trkpt><trkpt lat="35.4352183" lon="-6.0383917"><ele>85.0</ele><time>2026-04-27T16:46:19Z</time></trkpt><trkpt lat="35.4353217" lon="-6.0384417"><ele>85.0</ele><time>2026-04-27T16:46:20Z</time></trkpt><trkpt lat="35.4354267" lon="-6.0384867"><ele>85.0</ele><time>2026-04-27T16:46:21Z</time></trkpt><trkpt lat="35.4355283" lon="-6.0385367"><ele>85.0</ele><time>2026-04-27T16:46:22Z</time></trkpt><trkpt lat="35.4356317" lon="-6.0385817"><ele>85.0</ele><time>2026-04-27T16:46:23Z</time></trkpt><trkpt lat="35.4357283" lon="-6.0386217"><ele>83.75</ele><time>2026-04-27T16:46:24Z</time></trkpt><trkpt lat="35.4358317" lon="-6.038665"><ele>82.5</ele><time>2026-04-27T16:46:25Z</time></trkpt><trkpt lat="35.43595" lon="-6.03872"><ele>81.25</ele><time>2026-04-27T16:46:26Z</time></trkpt><trkpt lat="35.4360733" lon="-6.03878"><ele>80.0</ele><time>2026-04-27T16:46:27Z</time></trkpt><trkpt lat="35.43621" lon="-6.0388483"><ele>78.66666666666667</ele><time>2026-04-27T16:46:28Z</time></trkpt><trkpt lat="35.4363633" lon="-6.0389217"><ele>77.33333333333333</ele><time>2026-04-27T16:46:29Z</time></trkpt><trkpt lat="35.4365317" lon="-6.0390017"><ele>76.0</ele><time>2026-04-27T16:46:30Z</time></trkpt><trkpt lat="35.4366983" lon="-6.039075"><ele>78.0</ele><time>2026-04-27T16:46:31Z</time></trkpt><trkpt lat="35.436855" lon="-6.039155"><ele>80.0</ele><time>2026-04-27T16:46:32Z</time></trkpt><trkpt lat="35.4370067" lon="-6.039225"><ele>82.0</ele><time>2026-04-27T16:46:33Z</time></trkpt><trkpt lat="35.43715" lon="-6.039295"><ele>82.0</ele><time>2026-04-27T16:46:34Z</time></trkpt><trkpt lat="35.4372883" lon="-6.0393583"><ele>82.0</ele><time>2026-04-27T16:46:35Z</time></trkpt><trkpt lat="35.4374183" lon="-6.03942"><ele>82.0</ele><time>2026-04-27T16:46:36Z</time></trkpt><trkpt lat="35.43754" lon="-6.0394867"><ele>82.0</ele><time>2026-04-27T16:46:37Z</time></trkpt><trkpt lat="35.43767" lon="-6.0395483"><ele>82.0</ele><time>2026-04-27T16:46:38Z</time></trkpt><trkpt lat="35.4378133" lon="-6.0396067"><ele>82.0</ele><time>2026-04-27T16:46:39Z</time></trkpt><trkpt lat="35.4379667" lon="-6.0396667"><ele>82.0</ele><time>2026-04-27T16:46:40Z</time></trkpt><trkpt lat="35.4381283" lon="-6.0397217"><ele>81.0</ele><time>2026-04-27T16:46:41Z</time></trkpt><trkpt lat="35.43831" lon="-6.0397717"><ele>80.0</ele><time>2026-04-27T16:46:42Z</time></trkpt><trkpt lat="35.438495" lon="-6.0398233"><ele>79.0</ele><time>2026-04-27T16:46:43Z</time></trkpt><trkpt lat="35.438685" lon="-6.0398667"><ele>79.0</ele><time>2026-04-27T16:46:44Z</time></trkpt><trkpt lat="35.4388817" lon="-6.0399067"><ele>79.0</ele><time>2026-04-27T16:46:45Z</time></trkpt><trkpt lat="35.4390817" lon="-6.0399367"><ele>79.0</ele><time>2026-04-27T16:46:46Z</time></trkpt><trkpt lat="35.43928" lon="-6.03996"><ele>78.66666666666666</ele><time>2026-04-27T16:46:47Z</time></trkpt><trkpt lat="35.439485" lon="-6.0399783"><ele>78.33333333333333</ele><time>2026-04-27T16:46:48Z</time></trkpt><trkpt lat="35.43969" lon="-6.0399967"><ele>78.0</ele><time>2026-04-27T16:46:49Z</time></trkpt><trkpt lat="35.4398883" lon="-6.0400117"><ele>77.0</ele><time>2026-04-27T16:46:50Z</time></trkpt><trkpt lat="35.440085" lon="-6.0400133"><ele>76.0</ele><time>2026-04-27T16:46:50.999Z</time></trkpt><trkpt lat="35.4402683" lon="-6.0400183"><ele>75.0</ele><time>2026-04-27T16:46:52Z</time></trkpt><trkpt lat="35.440445" lon="-6.040015"><ele>74.66666666666667</ele><time>2026-04-27T16:46:53Z</time></trkpt><trkpt lat="35.4406117" lon="-6.0400067"><ele>74.33333333333334</ele><time>2026-04-27T16:46:54Z</time></trkpt><trkpt lat="35.440775" lon="-6.0399833"><ele>74.0</ele><time>2026-04-27T16:46:55Z</time></trkpt><trkpt lat="35.4409317" lon="-6.0399633"><ele>73.75</ele><time>2026-04-27T16:46:56Z</time></trkpt><trkpt lat="35.44108" lon="-6.039945"><ele>73.5</ele><time>2026-04-27T16:46:57Z</time></trkpt><trkpt lat="35.4412283" lon="-6.039925"><ele>73.25</ele><time>2026-04-27T16:46:58Z</time></trkpt><trkpt lat="35.4413717" lon="-6.0399"><ele>73.0</ele><time>2026-04-27T16:46:59Z</time></trkpt><trkpt lat="35.4415083" lon="-6.0398617"><ele>71.66666666666666</ele><time>2026-04-27T16:47:00Z</time></trkpt><trkpt lat="35.4416533" lon="-6.0398217"><ele>70.33333333333333</ele><time>2026-04-27T16:47:00.998Z</time></trkpt><trkpt lat="35.4418" lon="-6.039775"><ele>69.0</ele><time>2026-04-27T16:47:01.999Z</time></trkpt><trkpt lat="35.4419483" lon="-6.039725"><ele>69.0</ele><time>2026-04-27T16:47:02.998Z</time></trkpt><trkpt lat="35.4421" lon="-6.0396733"><ele>69.0</ele><time>2026-04-27T16:47:03.999Z</time></trkpt><trkpt lat="35.4422583" lon="-6.0396117"><ele>69.0</ele><time>2026-04-27T16:47:04.999Z</time></trkpt><trkpt lat="35.4424217" lon="-6.03954"><ele>69.66666666666667</ele><time>2026-04-27T16:47:05.999Z</time></trkpt><trkpt lat="35.4425917" lon="-6.0394617"><ele>70.33333333333334</ele><time>2026-04-27T16:47:06.999Z</time></trkpt><trkpt lat="35.442765" lon="-6.0393767"><ele>71.0</ele><time>2026-04-27T16:47:07.999Z</time></trkpt><trkpt lat="35.4429267" lon="-6.0393"><ele>71.33333333333334</ele><time>2026-04-27T16:47:08.999Z</time></trkpt><trkpt lat="35.4430767" lon="-6.039215"><ele>71.66666666666667</ele><time>2026-04-27T16:47:09.999Z</time></trkpt><trkpt lat="35.44322" lon="-6.0391317"><ele>72.0</ele><time>2026-04-27T16:47:10.999Z</time></trkpt><trkpt lat="35.443365" lon="-6.039045"><ele>71.66666666666667</ele><time>2026-04-27T16:47:11.999Z</time></trkpt><trkpt lat="35.4435167" lon="-6.038955"><ele>71.33333333333334</ele><time>2026-04-27T16:47:12.999Z</time></trkpt><trkpt lat="35.443665" lon="-6.0388667"><ele>71.0</ele><time>2026-04-27T16:47:13.999Z</time></trkpt><trkpt lat="35.4438183" lon="-6.0387733"><ele>71.0</ele><time>2026-04-27T16:47:14.998Z</time></trkpt><trkpt lat="35.4439717" lon="-6.0386783"><ele>71.0</ele><time>2026-04-27T16:47:15.999Z</time></trkpt><trkpt lat="35.444125" lon="-6.0385767"><ele>71.0</ele><time>2026-04-27T16:47:16.999Z</time></trkpt><trkpt lat="35.4442783" lon="-6.0384817"><ele>71.0</ele><time>2026-04-27T16:47:17.999Z</time></trkpt><trkpt lat="35.4444333" lon="-6.038385"><ele>71.0</ele><time>2026-04-27T16:47:18.999Z</time></trkpt><trkpt lat="35.4445917" lon="-6.038285"><ele>71.0</ele><time>2026-04-27T16:47:19.999Z</time></trkpt><trkpt lat="35.4447533" lon="-6.03818"><ele>70.66666666666667</ele><time>2026-04-27T16:47:20.999Z</time></trkpt><trkpt lat="35.4449133" lon="-6.0380733"><ele>70.33333333333333</ele><time>2026-04-27T16:47:21.999Z</time></trkpt><trkpt lat="35.4450767" lon="-6.0379567"><ele>70.0</ele><time>2026-04-27T16:47:22.999Z</time></trkpt><trkpt lat="35.445245" lon="-6.0378433"><ele>70.0</ele><time>2026-04-27T16:47:23.999Z</time></trkpt><trkpt lat="35.4454167" lon="-6.0377267"><ele>70.0</ele><time>2026-04-27T16:47:24.999Z</time></trkpt><trkpt lat="35.4455983" lon="-6.0376067"><ele>70.0</ele><time>2026-04-27T16:47:25.999Z</time></trkpt><trkpt lat="35.4457783" lon="-6.03749"><ele>70.0</ele><time>2026-04-27T16:47:26.999Z</time></trkpt><trkpt lat="35.4459617" lon="-6.0373717"><ele>70.0</ele><time>2026-04-27T16:47:27.999Z</time></trkpt><trkpt lat="35.44615" lon="-6.0372517"><ele>70.0</ele><time>2026-04-27T16:47:28.999Z</time></trkpt><trkpt lat="35.446335" lon="-6.03713"><ele>68.66666666666666</ele><time>2026-04-27T16:47:29.999Z</time></trkpt><trkpt lat="35.4465267" lon="-6.0370067"><ele>67.33333333333333</ele><time>2026-04-27T16:47:30.999Z</time></trkpt><trkpt lat="35.4467133" lon="-6.0368883"><ele>66.0</ele><time>2026-04-27T16:47:31.999Z</time></trkpt><trkpt lat="35.44689" lon="-6.0367767"><ele>66.0</ele><time>2026-04-27T16:47:32.999Z</time></trkpt><trkpt lat="35.4470617" lon="-6.0366817"><ele>66.0</ele><time>2026-04-27T16:47:33.999Z</time></trkpt><trkpt lat="35.4472167" lon="-6.0365817"><ele>66.0</ele><time>2026-04-27T16:47:34.999Z</time></trkpt><trkpt lat="35.4473683" lon="-6.0364833"><ele>65.33333333333333</ele><time>2026-04-27T16:47:35.999Z</time></trkpt><trkpt lat="35.447515" lon="-6.0363883"><ele>64.66666666666666</ele><time>2026-04-27T16:47:36.999Z</time></trkpt><trkpt lat="35.4476533" lon="-6.0362967"><ele>64.0</ele><time>2026-04-27T16:47:37.999Z</time></trkpt><trkpt lat="35.44779" lon="-6.0362083"><ele>64.0</ele><time>2026-04-27T16:47:38.999Z</time></trkpt><trkpt lat="35.4479267" lon="-6.03612"><ele>64.0</ele><time>2026-04-27T16:47:39.999Z</time></trkpt><trkpt lat="35.4480683" lon="-6.0360333"><ele>64.0</ele><time>2026-04-27T16:47:40.999Z</time></trkpt><trkpt lat="35.4482083" lon="-6.03594"><ele>63.0</ele><time>2026-04-27T16:47:41.999Z</time></trkpt><trkpt lat="35.448355" lon="-6.0358483"><ele>62.0</ele><time>2026-04-27T16:47:42.999Z</time></trkpt><trkpt lat="35.4484983" lon="-6.0357533"><ele>61.0</ele><time>2026-04-27T16:47:43.999Z</time></trkpt><trkpt lat="35.4486433" lon="-6.0356633"><ele>60.666666666666664</ele><time>2026-04-27T16:47:44.999Z</time></trkpt><trkpt lat="35.44879" lon="-6.03557"><ele>60.33333333333333</ele><time>2026-04-27T16:47:45.999Z</time></trkpt><trkpt lat="35.4489383" lon="-6.035475"><ele>60.0</ele><time>2026-04-27T16:47:46.999Z</time></trkpt><trkpt lat="35.449085" lon="-6.035385"><ele>60.0</ele><time>2026-04-27T16:47:47.999Z</time></trkpt><trkpt lat="35.44923" lon="-6.035295"><ele>60.0</ele><time>2026-04-27T16:47:48.999Z</time></trkpt><trkpt lat="35.449365" lon="-6.0352033"><ele>60.0</ele><time>2026-04-27T16:47:49.999Z</time></trkpt><trkpt lat="35.4494933" lon="-6.0351183"><ele>60.0</ele><time>2026-04-27T16:47:50.999Z</time></trkpt><trkpt lat="35.4496017" lon="-6.03502"><ele>60.0</ele><time>2026-04-27T16:47:51.999Z</time></trkpt><trkpt lat="35.4496933" lon="-6.0349217"><ele>60.0</ele><time>2026-04-27T16:47:52.999Z</time></trkpt><trkpt lat="35.44978" lon="-6.0348183"><ele>60.0</ele><time>2026-04-27T16:47:53.999Z</time></trkpt><trkpt lat="35.4498433" lon="-6.0347117"><ele>59.833333333333336</ele><time>2026-04-27T16:47:54.999Z</time></trkpt><trkpt lat="35.4499017" lon="-6.034625"><ele>59.66666666666667</ele><time>2026-04-27T16:47:55.999Z</time></trkpt><trkpt lat="35.449965" lon="-6.0345667"><ele>59.5</ele><time>2026-04-27T16:47:56.999Z</time></trkpt><trkpt lat="35.4500383" lon="-6.0345283"><ele>59.333333333333336</ele><time>2026-04-27T16:47:57.999Z</time></trkpt><trkpt lat="35.45011" lon="-6.03452"><ele>59.16666666666667</ele><time>2026-04-27T16:47:58.999Z</time></trkpt><trkpt lat="35.4501883" lon="-6.03455"><ele>59.0</ele><time>2026-04-27T16:47:59.999Z</time></trkpt><trkpt lat="35.45026" lon="-6.0345917"><ele>59.0</ele><time>2026-04-27T16:48:00.999Z</time></trkpt><trkpt lat="35.4503433" lon="-6.0346317"><ele>59.00000000000001</ele><time>2026-04-27T16:48:01.999Z</time></trkpt><trkpt lat="35.4504467" lon="-6.03465"><ele>59.00000000000001</ele><time>2026-04-27T16:48:02.999Z</time></trkpt><trkpt lat="35.4505617" lon="-6.03466"><ele>59.0</ele><time>2026-04-27T16:48:03.998Z</time></trkpt><trkpt lat="35.4506883" lon="-6.0346533"><ele>59.0</ele><time>2026-04-27T16:48:04.999Z</time></trkpt><trkpt lat="35.45083" lon="-6.0346283"><ele>58.333333333333336</ele><time>2026-04-27T16:48:05.999Z</time></trkpt><trkpt lat="35.4509883" lon="-6.0345833"><ele>57.66666666666667</ele><time>2026-04-27T16:48:06.999Z</time></trkpt><trkpt lat="35.45115" lon="-6.03452"><ele>57.0</ele><time>2026-04-27T16:48:07.998Z</time></trkpt><trkpt lat="35.4512983" lon="-6.0344533"><ele>56.5</ele><time>2026-04-27T16:48:08.999Z</time></trkpt><trkpt lat="35.4514333" lon="-6.0344"><ele>56.0</ele><time>2026-04-27T16:48:09.999Z</time></trkpt><trkpt lat="35.4515617" lon="-6.0343567"><ele>55.5</ele><time>2026-04-27T16:48:10.999Z</time></trkpt><trkpt lat="35.451685" lon="-6.0343133"><ele>55.0</ele><time>2026-04-27T16:48:11.999Z</time></trkpt><trkpt lat="35.4518083" lon="-6.03427"><ele>55.0</ele><time>2026-04-27T16:48:12.999Z</time></trkpt><trkpt lat="35.45194" lon="-6.0342183"><ele>55.0</ele><time>2026-04-27T16:48:13.999Z</time></trkpt><trkpt lat="35.45208" lon="-6.0341683"><ele>55.0</ele><time>2026-04-27T16:48:14.999Z</time></trkpt><trkpt lat="35.45223" lon="-6.0341233"><ele>55.0</ele><time>2026-04-27T16:48:15.998Z</time></trkpt><trkpt lat="35.452385" lon="-6.0340833"><ele>54.666666666666664</ele><time>2026-04-27T16:48:16.999Z</time></trkpt><trkpt lat="35.4525317" lon="-6.0340383"><ele>54.33333333333333</ele><time>2026-04-27T16:48:17.999Z</time></trkpt><trkpt lat="35.4526767" lon="-6.0339833"><ele>54.0</ele><time>2026-04-27T16:48:18.999Z</time></trkpt><trkpt lat="35.452825" lon="-6.033945"><ele>54.0</ele><time>2026-04-27T16:48:19.999Z</time></trkpt><trkpt lat="35.4529733" lon="-6.0339017"><ele>54.0</ele><time>2026-04-27T16:48:20.999Z</time></trkpt><trkpt lat="35.453115" lon="-6.0338533"><ele>54.0</ele><time>2026-04-27T16:48:21.998Z</time></trkpt><trkpt lat="35.4532633" lon="-6.0338017"><ele>54.0</ele><time>2026-04-27T16:48:22.999Z</time></trkpt><trkpt lat="35.4534117" lon="-6.0337483"><ele>54.0</ele><time>2026-04-27T16:48:23.999Z</time></trkpt><trkpt lat="35.45355" lon="-6.0337"><ele>54.0</ele><time>2026-04-27T16:48:24.999Z</time></trkpt><trkpt lat="35.45369" lon="-6.03365"><ele>54.0</ele><time>2026-04-27T16:48:25.999Z</time></trkpt><trkpt lat="35.453835" lon="-6.0335967"><ele>53.75</ele><time>2026-04-27T16:48:26.999Z</time></trkpt><trkpt lat="35.4539817" lon="-6.033545"><ele>53.5</ele><time>2026-04-27T16:48:27.998Z</time></trkpt><trkpt lat="35.45413" lon="-6.0334983"><ele>53.25</ele><time>2026-04-27T16:48:28.999Z</time></trkpt><trkpt lat="35.4542683" lon="-6.03345"><ele>53.0</ele><time>2026-04-27T16:48:29.999Z</time></trkpt><trkpt lat="35.4544067" lon="-6.033405"><ele>53.0</ele><time>2026-04-27T16:48:30.999Z</time></trkpt><trkpt lat="35.4545383" lon="-6.033355"><ele>53.0</ele><time>2026-04-27T16:48:31.998Z</time></trkpt><trkpt lat="35.4546717" lon="-6.03331"><ele>53.0</ele><time>2026-04-27T16:48:32.998Z</time></trkpt><trkpt lat="35.4547933" lon="-6.0332667"><ele>53.0</ele><time>2026-04-27T16:48:33.999Z</time></trkpt><trkpt lat="35.4549117" lon="-6.03323"><ele>52.8</ele><time>2026-04-27T16:48:34.999Z</time></trkpt><trkpt lat="35.4550333" lon="-6.033195"><ele>52.599999999999994</ele><time>2026-04-27T16:48:35.999Z</time></trkpt><trkpt lat="35.4551417" lon="-6.0331667"><ele>52.400000000000006</ele><time>2026-04-27T16:48:36.999Z</time></trkpt><trkpt lat="35.4552433" lon="-6.0331317"><ele>52.2</ele><time>2026-04-27T16:48:37.998Z</time></trkpt><trkpt lat="35.455335" lon="-6.0331"><ele>52.0</ele><time>2026-04-27T16:48:38.999Z</time></trkpt><trkpt lat="35.4554233" lon="-6.0330683"><ele>52.83333333333333</ele><time>2026-04-27T16:48:39.998Z</time></trkpt><trkpt lat="35.4555" lon="-6.0330367"><ele>53.666666666666664</ele><time>2026-04-27T16:48:40.999Z</time></trkpt><trkpt lat="35.455575" lon="-6.0330117"><ele>54.5</ele><time>2026-04-27T16:48:41.999Z</time></trkpt><trkpt lat="35.4556433" lon="-6.03299"><ele>55.33333333333333</ele><time>2026-04-27T16:48:42.999Z</time></trkpt><trkpt lat="35.4557283" lon="-6.032965"><ele>56.166666666666664</ele><time>2026-04-27T16:48:44.998Z</time></trkpt><trkpt lat="35.45581" lon="-6.0329517"><ele>57.0</ele><time>2026-04-27T16:48:48.999Z</time></trkpt><trkpt lat="35.455875" lon="-6.0329283"><ele>57.0</ele><time>2026-04-27T16:48:50.999Z</time></trkpt><trkpt lat="35.4559667" lon="-6.0329017"><ele>57.0</ele><time>2026-04-27T16:48:52.999Z</time></trkpt><trkpt lat="35.4560833" lon="-6.03286"><ele>57.0</ele><time>2026-04-27T16:48:54.999Z</time></trkpt><trkpt lat="35.4561617" lon="-6.0328283"><ele>57.0</ele><time>2026-04-27T16:48:55.999Z</time></trkpt><trkpt lat="35.4562483" lon="-6.0327967"><ele>57.0</ele><time>2026-04-27T16:48:56.999Z</time></trkpt><trkpt lat="35.4563483" lon="-6.0327567"><ele>57.400000000000006</ele><time>2026-04-27T16:48:57.998Z</time></trkpt><trkpt lat="35.4564567" lon="-6.0327117"><ele>57.800000000000004</ele><time>2026-04-27T16:48:58.998Z</time></trkpt><trkpt lat="35.4565567" lon="-6.0326733"><ele>58.2</ele><time>2026-04-27T16:48:59.999Z</time></trkpt><trkpt lat="35.4566617" lon="-6.03264"><ele>58.6</ele><time>2026-04-27T16:49:00.999Z</time></trkpt><trkpt lat="35.4567617" lon="-6.0326067"><ele>59.0</ele><time>2026-04-27T16:49:01.999Z</time></trkpt><trkpt lat="35.4568567" lon="-6.032575"><ele>59.0</ele><time>2026-04-27T16:49:02.999Z</time></trkpt><trkpt lat="35.456955" lon="-6.032535"><ele>59.00000000000001</ele><time>2026-04-27T16:49:03.999Z</time></trkpt><trkpt lat="35.4570517" lon="-6.0324983"><ele>59.00000000000001</ele><time>2026-04-27T16:49:04.999Z</time></trkpt><trkpt lat="35.4571533" lon="-6.0324633"><ele>59.0</ele><time>2026-04-27T16:49:05.999Z</time></trkpt><trkpt lat="35.4572583" lon="-6.0324183"><ele>59.0</ele><time>2026-04-27T16:49:06.999Z</time></trkpt><trkpt lat="35.457365" lon="-6.0323733"><ele>58.0</ele><time>2026-04-27T16:49:07.999Z</time></trkpt><trkpt lat="35.4574683" lon="-6.032325"><ele>57.00000000000001</ele><time>2026-04-27T16:49:08.999Z</time></trkpt><trkpt lat="35.4575767" lon="-6.03228"><ele>56.00000000000001</ele><time>2026-04-27T16:49:09.999Z</time></trkpt><trkpt lat="35.4576733" lon="-6.032235"><ele>55.0</ele><time>2026-04-27T16:49:10.999Z</time></trkpt><trkpt lat="35.4577717" lon="-6.0321933"><ele>54.0</ele><time>2026-04-27T16:49:11.999Z</time></trkpt><trkpt lat="35.4578667" lon="-6.0321417"><ele>53.2</ele><time>2026-04-27T16:49:12.999Z</time></trkpt><trkpt lat="35.457965" lon="-6.032085"><ele>52.400000000000006</ele><time>2026-04-27T16:49:13.999Z</time></trkpt><trkpt lat="35.4580567" lon="-6.03203"><ele>51.6</ele><time>2026-04-27T16:49:14.999Z</time></trkpt><trkpt lat="35.4581467" lon="-6.031975"><ele>50.8</ele><time>2026-04-27T16:49:15.999Z</time></trkpt><trkpt lat="35.458245" lon="-6.03192"><ele>50.0</ele><time>2026-04-27T16:49:16.999Z</time></trkpt><trkpt lat="35.4583467" lon="-6.0318733"><ele>50.0</ele><time>2026-04-27T16:49:17.998Z</time></trkpt><trkpt lat="35.4584517" lon="-6.0318183"><ele>50.0</ele><time>2026-04-27T16:49:18.999Z</time></trkpt><trkpt lat="35.4585633" lon="-6.0317633"><ele>50.0</ele><time>2026-04-27T16:49:19.999Z</time></trkpt><trkpt lat="35.4586733" lon="-6.03171"><ele>50.0</ele><time>2026-04-27T16:49:20.998Z</time></trkpt><trkpt lat="35.4587833" lon="-6.03165"><ele>48.75</ele><time>2026-04-27T16:49:21.998Z</time></trkpt><trkpt lat="35.4588967" lon="-6.0315967"><ele>47.5</ele><time>2026-04-27T16:49:22.999Z</time></trkpt><trkpt lat="35.4590183" lon="-6.031545"><ele>46.25</ele><time>2026-04-27T16:49:23.999Z</time></trkpt><trkpt lat="35.4591367" lon="-6.0314933"><ele>45.0</ele><time>2026-04-27T16:49:24.999Z</time></trkpt><trkpt lat="35.4592683" lon="-6.0314467"><ele>45.0</ele><time>2026-04-27T16:49:25.999Z</time></trkpt><trkpt lat="35.4593983" lon="-6.0314167"><ele>45.0</ele><time>2026-04-27T16:49:26.999Z</time></trkpt><trkpt lat="35.4595367" lon="-6.03139"><ele>45.0</ele><time>2026-04-27T16:49:27.999Z</time></trkpt><trkpt lat="35.45966" lon="-6.0313717"><ele>45.0</ele><time>2026-04-27T16:49:28.999Z</time></trkpt><trkpt lat="35.4597817" lon="-6.0313567"><ele>45.0</ele><time>2026-04-27T16:49:29.999Z</time></trkpt><trkpt lat="35.4598983" lon="-6.0313417"><ele>45.0</ele><time>2026-04-27T16:49:30.999Z</time></trkpt><trkpt lat="35.460015" lon="-6.031325"><ele>45.0</ele><time>2026-04-27T16:49:31.999Z</time></trkpt><trkpt lat="35.4601217" lon="-6.0313167"><ele>45.0</ele><time>2026-04-27T16:49:32.999Z</time></trkpt><trkpt lat="35.4602217" lon="-6.0313117"><ele>45.0</ele><time>2026-04-27T16:49:33.999Z</time></trkpt><trkpt lat="35.4603283" lon="-6.0312917"><ele>45.0</ele><time>2026-04-27T16:49:34.999Z</time></trkpt><trkpt lat="35.46043" lon="-6.03128"><ele>45.0</ele><time>2026-04-27T16:49:35.999Z</time></trkpt><trkpt lat="35.4605333" lon="-6.0312717"><ele>45.0</ele><time>2026-04-27T16:49:36.999Z</time></trkpt><trkpt lat="35.4606383" lon="-6.0312633"><ele>45.0</ele><time>2026-04-27T16:49:37.999Z</time></trkpt><trkpt lat="35.460735" lon="-6.031255"><ele>45.0</ele><time>2026-04-27T16:49:38.999Z</time></trkpt><trkpt lat="35.4608317" lon="-6.0312367"><ele>44.833333333333336</ele><time>2026-04-27T16:49:39.999Z</time></trkpt><trkpt lat="35.46092" lon="-6.0312267"><ele>44.666666666666664</ele><time>2026-04-27T16:49:40.999Z</time></trkpt><trkpt lat="35.461005" lon="-6.0312117"><ele>44.5</ele><time>2026-04-27T16:49:41.999Z</time></trkpt><trkpt lat="35.4610817" lon="-6.03119"><ele>44.33333333333333</ele><time>2026-04-27T16:49:42.999Z</time></trkpt><trkpt lat="35.46115" lon="-6.03117"><ele>44.166666666666664</ele><time>2026-04-27T16:49:43.998Z</time></trkpt><trkpt lat="35.4612367" lon="-6.0311467"><ele>44.0</ele><time>2026-04-27T16:49:45.999Z</time></trkpt><trkpt lat="35.4613217" lon="-6.0311233"><ele>43.33333333333333</ele><time>2026-04-27T16:49:48.999Z</time></trkpt><trkpt lat="35.4613917" lon="-6.0311183"><ele>42.666666666666664</ele><time>2026-04-27T16:49:59.999Z</time></trkpt><trkpt lat="35.4614717" lon="-6.0310983"><ele>42.0</ele><time>2026-04-27T16:50:01.999Z</time></trkpt><trkpt lat="35.46156" lon="-6.0311117"><ele>41.333333333333336</ele><time>2026-04-27T16:50:03.999Z</time></trkpt><trkpt lat="35.4616433" lon="-6.031185"><ele>40.66666666666667</ele><time>2026-04-27T16:50:05.998Z</time></trkpt><trkpt lat="35.461685" lon="-6.0312467"><ele>40.0</ele><time>2026-04-27T16:50:06.999Z</time></trkpt><trkpt lat="35.461725" lon="-6.0313117"><ele>40.0</ele><time>2026-04-27T16:50:07.999Z</time></trkpt><trkpt lat="35.461765" lon="-6.0313817"><ele>40.0</ele><time>2026-04-27T16:50:08.999Z</time></trkpt><trkpt lat="35.461805" lon="-6.0314483"><ele>40.0</ele><time>2026-04-27T16:50:09.999Z</time></trkpt><trkpt lat="35.46185" lon="-6.03152"><ele>40.0</ele><time>2026-04-27T16:50:10.999Z</time></trkpt><trkpt lat="35.4618883" lon="-6.0315983"><ele>40.0</ele><time>2026-04-27T16:50:11.999Z</time></trkpt><trkpt lat="35.4619333" lon="-6.0316783"><ele>40.0</ele><time>2026-04-27T16:50:12.998Z</time></trkpt><trkpt lat="35.4619767" lon="-6.0317533"><ele>40.0</ele><time>2026-04-27T16:50:13.999Z</time></trkpt><trkpt lat="35.46202" lon="-6.0318233"><ele>39.66666666666667</ele><time>2026-04-27T16:50:14.999Z</time></trkpt><trkpt lat="35.4620683" lon="-6.0318967"><ele>39.333333333333336</ele><time>2026-04-27T16:50:15.999Z</time></trkpt><trkpt lat="35.4621183" lon="-6.0319767"><ele>39.0</ele><time>2026-04-27T16:50:16.999Z</time></trkpt><trkpt lat="35.4621683" lon="-6.0320583"><ele>38.666666666666664</ele><time>2026-04-27T16:50:17.999Z</time></trkpt><trkpt lat="35.462225" lon="-6.0321467"><ele>38.33333333333333</ele><time>2026-04-27T16:50:18.998Z</time></trkpt><trkpt lat="35.4622767" lon="-6.0322367"><ele>38.0</ele><time>2026-04-27T16:50:19.999Z</time></trkpt><trkpt lat="35.462335" lon="-6.032335"><ele>37.4</ele><time>2026-04-27T16:50:20.999Z</time></trkpt><trkpt lat="35.4623883" lon="-6.0324383"><ele>36.8</ele><time>2026-04-27T16:50:21.999Z</time></trkpt><trkpt lat="35.4624433" lon="-6.0325533"><ele>36.2</ele><time>2026-04-27T16:50:22.999Z</time></trkpt><trkpt lat="35.462495" lon="-6.0326733"><ele>35.6</ele><time>2026-04-27T16:50:23.999Z</time></trkpt><trkpt lat="35.46254" lon="-6.0328"><ele>35.0</ele><time>2026-04-27T16:50:24.999Z</time></trkpt><trkpt lat="35.4625867" lon="-6.03292"><ele>34.2</ele><time>2026-04-27T16:50:25.999Z</time></trkpt><trkpt lat="35.4626317" lon="-6.0330333"><ele>33.4</ele><time>2026-04-27T16:50:26.999Z</time></trkpt><trkpt lat="35.4626767" lon="-6.0331467"><ele>32.6</ele><time>2026-04-27T16:50:27.999Z</time></trkpt><trkpt lat="35.4627217" lon="-6.0332517"><ele>31.8</ele><time>2026-04-27T16:50:28.999Z</time></trkpt><trkpt lat="35.4627667" lon="-6.0333533"><ele>31.0</ele><time>2026-04-27T16:50:29.999Z</time></trkpt><trkpt lat="35.4628133" lon="-6.0334517"><ele>30.166666666666668</ele><time>2026-04-27T16:50:30.999Z</time></trkpt><trkpt lat="35.4628617" lon="-6.0335517"><ele>29.333333333333336</ele><time>2026-04-27T16:50:31.999Z</time></trkpt><trkpt lat="35.4629167" lon="-6.0336367"><ele>28.5</ele><time>2026-04-27T16:50:32.999Z</time></trkpt><trkpt lat="35.46298" lon="-6.0337117"><ele>27.666666666666664</ele><time>2026-04-27T16:50:33.998Z</time></trkpt><trkpt lat="35.4630367" lon="-6.0337817"><ele>26.833333333333332</ele><time>2026-04-27T16:50:34.999Z</time></trkpt><trkpt lat="35.4631017" lon="-6.0338433"><ele>26.0</ele><time>2026-04-27T16:50:35.999Z</time></trkpt><trkpt lat="35.46317" lon="-6.0338917"><ele>25.499999999999996</ele><time>2026-04-27T16:50:36.999Z</time></trkpt><trkpt lat="35.4632433" lon="-6.0339217"><ele>25.0</ele><time>2026-04-27T16:50:37.998Z</time></trkpt><trkpt lat="35.463315" lon="-6.033955"><ele>24.5</ele><time>2026-04-27T16:50:38.999Z</time></trkpt><trkpt lat="35.463385" lon="-6.0339817"><ele>24.0</ele><time>2026-04-27T16:50:39.999Z</time></trkpt><trkpt lat="35.4634617" lon="-6.034005"><ele>23.5</ele><time>2026-04-27T16:50:40.999Z</time></trkpt><trkpt lat="35.463535" lon="-6.0340433"><ele>23.0</ele><time>2026-04-27T16:50:41.998Z</time></trkpt><trkpt lat="35.4636117" lon="-6.0340733"><ele>23.0</ele><time>2026-04-27T16:50:42.999Z</time></trkpt><trkpt lat="35.46369" lon="-6.0341017"><ele>23.0</ele><time>2026-04-27T16:50:43.999Z</time></trkpt><trkpt lat="35.4637633" lon="-6.03414"><ele>23.0</ele><time>2026-04-27T16:50:44.999Z</time></trkpt><trkpt lat="35.4638317" lon="-6.0341883"><ele>23.0</ele><time>2026-04-27T16:50:45.999Z</time></trkpt><trkpt lat="35.4638933" lon="-6.0342417"><ele>23.0</ele><time>2026-04-27T16:50:46.999Z</time></trkpt><trkpt lat="35.4639533" lon="-6.0342867"><ele>23.0</ele><time>2026-04-27T16:50:47.999Z</time></trkpt><trkpt lat="35.4640017" lon="-6.0343383"><ele>22.2</ele><time>2026-04-27T16:50:48.999Z</time></trkpt><trkpt lat="35.4641133" lon="-6.0344167"><ele>21.4</ele><time>2026-04-27T16:50:50.999Z</time></trkpt><trkpt lat="35.464165" lon="-6.0344617"><ele>20.599999999999998</ele><time>2026-04-27T16:50:51.999Z</time></trkpt><trkpt lat="35.4642517" lon="-6.03453"><ele>19.799999999999997</ele><time>2026-04-27T16:50:53.999Z</time></trkpt><trkpt lat="35.4643217" lon="-6.0345883"><ele>19.0</ele><time>2026-04-27T16:50:55.999Z</time></trkpt><trkpt lat="35.46439" lon="-6.0346483"><ele>19.0</ele><time>2026-04-27T16:50:57.998Z</time></trkpt><trkpt lat="35.4644567" lon="-6.0347033"><ele>19.0</ele><time>2026-04-27T16:50:59.999Z</time></trkpt><trkpt lat="35.46452" lon="-6.03473"><ele>19.0</ele><time>2026-04-27T16:51:01.999Z</time></trkpt><trkpt lat="35.4645833" lon="-6.0347617"><ele>19.0</ele><time>2026-04-27T16:51:03.999Z</time></trkpt><trkpt lat="35.4646567" lon="-6.0348067"><ele>19.0</ele><time>2026-04-27T16:51:05.999Z</time></trkpt><trkpt lat="35.4647433" lon="-6.0348533"><ele>19.0</ele><time>2026-04-27T16:51:07.998Z</time></trkpt><trkpt lat="35.464835" lon="-6.03492"><ele>18.666666666666664</ele><time>2026-04-27T16:51:09.999Z</time></trkpt><trkpt lat="35.4649433" lon="-6.0349867"><ele>18.333333333333332</ele><time>2026-04-27T16:51:11.999Z</time></trkpt><trkpt lat="35.4650133" lon="-6.0350217"><ele>18.0</ele><time>2026-04-27T16:51:12.999Z</time></trkpt><trkpt lat="35.4650817" lon="-6.0350567"><ele>17.666666666666668</ele><time>2026-04-27T16:51:13.999Z</time></trkpt><trkpt lat="35.4651467" lon="-6.0350967"><ele>17.333333333333336</ele><time>2026-04-27T16:51:14.999Z</time></trkpt><trkpt lat="35.4651983" lon="-6.0351433"><ele>17.0</ele><time>2026-04-27T16:51:15.999Z</time></trkpt><trkpt lat="35.4652583" lon="-6.0351817"><ele>17.0</ele><time>2026-04-27T16:51:16.999Z</time></trkpt><trkpt lat="35.4653617" lon="-6.035275"><ele>17.0</ele><time>2026-04-27T16:51:18.998Z</time></trkpt><trkpt lat="35.4654067" lon="-6.0353317"><ele>17.0</ele><time>2026-04-27T16:51:19.999Z</time></trkpt><trkpt lat="35.4654617" lon="-6.0353733"><ele>17.0</ele><time>2026-04-27T16:51:20.998Z</time></trkpt><trkpt lat="35.46556" lon="-6.035455"><ele>17.0</ele><time>2026-04-27T16:51:22.999Z</time></trkpt><trkpt lat="35.4656367" lon="-6.0355083"><ele>16.5</ele><time>2026-04-27T16:51:24.998Z</time></trkpt><trkpt lat="35.4657167" lon="-6.03555"><ele>16.0</ele><time>2026-04-27T16:51:26.999Z</time></trkpt><trkpt lat="35.4658067" lon="-6.0356"><ele>15.5</ele><time>2026-04-27T16:51:28.999Z</time></trkpt><trkpt lat="35.46589" lon="-6.0356583"><ele>15.0</ele><time>2026-04-27T16:51:30.999Z</time></trkpt><trkpt lat="35.4659633" lon="-6.03571"><ele>14.500000000000002</ele><time>2026-04-27T16:51:32.999Z</time></trkpt><trkpt lat="35.4660233" lon="-6.0357483"><ele>14.0</ele><time>2026-04-27T16:51:36.998Z</time></trkpt><trkpt lat="35.466085" lon="-6.035795"><ele>13.833333333333334</ele><time>2026-04-27T16:51:40.998Z</time></trkpt><trkpt lat="35.46616" lon="-6.0358367"><ele>13.666666666666668</ele><time>2026-04-27T16:51:43.999Z</time></trkpt><trkpt lat="35.46622" lon="-6.0358717"><ele>13.5</ele><time>2026-04-27T16:51:46.999Z</time></trkpt><trkpt lat="35.4662983" lon="-6.0358567"><ele>13.333333333333332</ele><time>2026-04-27T16:51:49.999Z</time></trkpt><trkpt lat="35.4663717" lon="-6.0358533"><ele>13.166666666666666</ele><time>2026-04-27T16:51:51.999Z</time></trkpt><trkpt lat="35.4664417" lon="-6.0358767"><ele>13.0</ele><time>2026-04-27T16:51:54.999Z</time></trkpt><trkpt lat="35.4665183" lon="-6.0359033"><ele>12.499999999999998</ele><time>2026-04-27T16:51:58.998Z</time></trkpt><trkpt lat="35.4665933" lon="-6.03596"><ele>12.0</ele><time>2026-04-27T16:52:00.999Z</time></trkpt><trkpt lat="35.4666867" lon="-6.0360267"><ele>11.5</ele><time>2026-04-27T16:52:02.999Z</time></trkpt><trkpt lat="35.4667633" lon="-6.0360833"><ele>11.0</ele><time>2026-04-27T16:52:04.998Z</time></trkpt><trkpt lat="35.4667983" lon="-6.03618"><ele>10.5</ele><time>2026-04-27T16:52:07.998Z</time></trkpt><trkpt lat="35.466765" lon="-6.036255"><ele>10.0</ele><time>2026-04-27T16:52:09.999Z</time></trkpt><trkpt lat="35.4667117" lon="-6.0363283"><ele>10.0</ele><time>2026-04-27T16:58:29.998Z</time></trkpt><trkpt lat="35.4667133" lon="-6.0362417"><ele>10.0</ele><time>2026-04-27T16:58:45.997Z</time></trkpt><trkpt lat="35.4667283" lon="-6.0361617"><ele>10.0</ele><time>2026-04-27T16:58:59.997Z</time></trkpt><trkpt lat="35.466665" lon="-6.0361033"><ele>10.0</ele><time>2026-04-27T16:59:03.998Z</time></trkpt><trkpt lat="35.4666067" lon="-6.03603"><ele>10.0</ele><time>2026-04-27T16:59:08.997Z</time></trkpt><trkpt lat="35.4665517" lon="-6.0359667"><ele>10.0</ele><time>2026-04-27T16:59:11.998Z</time></trkpt><trkpt lat="35.466495" lon="-6.0359217"><ele>10.0</ele><time>2026-04-27T16:59:13.998Z</time></trkpt><trkpt lat="35.4664317" lon="-6.0358767"><ele>10.0</ele><time>2026-04-27T16:59:15.998Z</time></trkpt><trkpt lat="35.46638" lon="-6.0358217"><ele>10.0</ele><time>2026-04-27T16:59:17.997Z</time></trkpt><trkpt lat="35.4663067" lon="-6.0357733"><ele>10.0</ele><time>2026-04-27T16:59:20.998Z</time></trkpt><trkpt lat="35.466255" lon="-6.035865"><ele>10.0</ele><time>2026-04-27T17:00:02.998Z</time></trkpt><trkpt lat="35.4661683" lon="-6.035895"><ele>10.0</ele><time>2026-04-27T17:00:05.998Z</time></trkpt><trkpt lat="35.4661" lon="-6.0358633"><ele>10.0</ele><time>2026-04-27T17:00:07.998Z</time></trkpt><trkpt lat="35.4660167" lon="-6.0358133"><ele>10.8</ele><time>2026-04-27T17:00:09.998Z</time></trkpt><trkpt lat="35.4659383" lon="-6.0357483"><ele>11.6</ele><time>2026-04-27T17:00:11.998Z</time></trkpt><trkpt lat="35.46584" lon="-6.03569"><ele>12.399999999999999</ele><time>2026-04-27T17:00:13.998Z</time></trkpt><trkpt lat="35.4657633" lon="-6.0356367"><ele>13.2</ele><time>2026-04-27T17:00:15.998Z</time></trkpt><trkpt lat="35.4656733" lon="-6.0355917"><ele>14.0</ele><time>2026-04-27T17:00:17.997Z</time></trkpt><trkpt lat="35.4655867" lon="-6.0355283"><ele>14.0</ele><time>2026-04-27T17:00:19.998Z</time></trkpt><trkpt lat="35.4655033" lon="-6.0354667"><ele>13.999999999999998</ele><time>2026-04-27T17:00:21.998Z</time></trkpt><trkpt lat="35.4654183" lon="-6.0354133"><ele>13.999999999999998</ele><time>2026-04-27T17:00:23.998Z</time></trkpt><trkpt lat="35.46533" lon="-6.035355"><ele>14.0</ele><time>2026-04-27T17:00:25.998Z</time></trkpt><trkpt lat="35.4652433" lon="-6.0352967"><ele>14.0</ele><time>2026-04-27T17:00:27.998Z</time></trkpt><trkpt lat="35.465155" lon="-6.0352333"><ele>14.500000000000002</ele><time>2026-04-27T17:00:29.998Z</time></trkpt><trkpt lat="35.4650433" lon="-6.0351583"><ele>15.0</ele><time>2026-04-27T17:00:31.998Z</time></trkpt><trkpt lat="35.464975" lon="-6.0351117"><ele>15.5</ele><time>2026-04-27T17:00:32.998Z</time></trkpt><trkpt lat="35.464905" lon="-6.0350683"><ele>16.0</ele><time>2026-04-27T17:00:33.998Z</time></trkpt><trkpt lat="35.4648433" lon="-6.0350267"><ele>16.5</ele><time>2026-04-27T17:00:34.998Z</time></trkpt><trkpt lat="35.46479" lon="-6.034975"><ele>17.0</ele><time>2026-04-27T17:00:35.997Z</time></trkpt><trkpt lat="35.4647233" lon="-6.0349067"><ele>17.0</ele><time>2026-04-27T17:00:37.998Z</time></trkpt><trkpt lat="35.4646683" lon="-6.034865"><ele>17.0</ele><time>2026-04-27T17:00:39.998Z</time></trkpt><trkpt lat="35.464685" lon="-6.0347783"><ele>17.0</ele><time>2026-04-27T17:00:42.998Z</time></trkpt><trkpt lat="35.4647583" lon="-6.0348383"><ele>17.0</ele><time>2026-04-27T17:00:45.998Z</time></trkpt><trkpt lat="35.46483" lon="-6.0349417"><ele>17.0</ele><time>2026-04-27T17:00:47.998Z</time></trkpt><trkpt lat="35.464905" lon="-6.0349967"><ele>17.0</ele><time>2026-04-27T17:00:48.998Z</time></trkpt><trkpt lat="35.4649933" lon="-6.03505"><ele>17.0</ele><time>2026-04-27T17:00:49.998Z</time></trkpt><trkpt lat="35.4650833" lon="-6.0350917"><ele>17.0</ele><time>2026-04-27T17:00:50.998Z</time></trkpt><trkpt lat="35.4651667" lon="-6.0351417"><ele>17.0</ele><time>2026-04-27T17:00:51.998Z</time></trkpt><trkpt lat="35.46523" lon="-6.035195"><ele>17.0</ele><time>2026-04-27T17:00:52.998Z</time></trkpt><trkpt lat="35.4652883" lon="-6.035235"><ele>17.0</ele><time>2026-04-27T17:00:53.998Z</time></trkpt><trkpt lat="35.46538" lon="-6.0353017"><ele>17.0</ele><time>2026-04-27T17:00:55.998Z</time></trkpt><trkpt lat="35.4654683" lon="-6.0353983"><ele>17.0</ele><time>2026-04-27T17:00:58.998Z</time></trkpt><trkpt lat="35.4654517" lon="-6.0355117"><ele>17.0</ele><time>2026-04-27T17:01:01.998Z</time></trkpt><trkpt lat="35.4654083" lon="-6.0356283"><ele>17.0</ele><time>2026-04-27T17:01:03.998Z</time></trkpt><trkpt lat="35.465355" lon="-6.0357717"><ele>17.0</ele><time>2026-04-27T17:01:05.998Z</time></trkpt><trkpt lat="35.4653333" lon="-6.0358483"><ele>17.0</ele><time>2026-04-27T17:01:06.998Z</time></trkpt><trkpt lat="35.4653067" lon="-6.035925"><ele>17.0</ele><time>2026-04-27T17:01:07.998Z</time></trkpt><trkpt lat="35.4652783" lon="-6.0359967"><ele>17.0</ele><time>2026-04-27T17:01:08.998Z</time></trkpt><trkpt lat="35.465245" lon="-6.036065"><ele>17.0</ele><time>2026-04-27T17:01:09.998Z</time></trkpt><trkpt lat="35.4651783" lon="-6.03617"><ele>17.0</ele><time>2026-04-27T17:01:11.998Z</time></trkpt><trkpt lat="35.4651317" lon="-6.03627"><ele>17.0</ele><time>2026-04-27T17:01:13.998Z</time></trkpt><trkpt lat="35.465085" lon="-6.0363433"><ele>17.0</ele><time>2026-04-27T17:01:15.998Z</time></trkpt><trkpt lat="35.4650333" lon="-6.036425"><ele>16.999999999999996</ele><time>2026-04-27T17:01:18.998Z</time></trkpt><trkpt lat="35.4649917" lon="-6.0364983"><ele>17.0</ele><time>2026-04-27T17:01:21.998Z</time></trkpt><trkpt lat="35.4649617" lon="-6.0365733"><ele>17.0</ele><time>2026-04-27T17:01:24.998Z</time></trkpt><trkpt lat="35.464925" lon="-6.0366467"><ele>17.0</ele><time>2026-04-27T17:01:28.998Z</time></trkpt><trkpt lat="35.4648667" lon="-6.0367233"><ele>17.0</ele><time>2026-04-27T17:01:32.998Z</time></trkpt><trkpt lat="35.4647933" lon="-6.0367083"><ele>16.999999999999996</ele><time>2026-04-27T17:01:36.998Z</time></trkpt><trkpt lat="35.4647267" lon="-6.0366583"><ele>17.0</ele><time>2026-04-27T17:01:39.998Z</time></trkpt><trkpt lat="35.4646817" lon="-6.03658"><ele>17.0</ele><time>2026-04-27T17:01:43.998Z</time></trkpt><trkpt lat="35.46464" lon="-6.0365017"><ele>17.0</ele><time>2026-04-27T17:01:46.998Z</time></trkpt><trkpt lat="35.4645683" lon="-6.036475"><ele>17.0</ele><time>2026-04-27T17:01:48.998Z</time></trkpt><trkpt lat="35.46447" lon="-6.03646"><ele>17.0</ele><time>2026-04-27T17:01:50.998Z</time></trkpt><trkpt lat="35.4643733" lon="-6.0364517"><ele>17.0</ele><time>2026-04-27T17:01:52.997Z</time></trkpt><trkpt lat="35.4642933" lon="-6.03643"><ele>17.0</ele><time>2026-04-27T17:01:54.997Z</time></trkpt><trkpt lat="35.4642" lon="-6.036405"><ele>17.5</ele><time>2026-04-27T17:01:56.997Z</time></trkpt><trkpt lat="35.464125" lon="-6.0363883"><ele>18.0</ele><time>2026-04-27T17:01:58.997Z</time></trkpt><trkpt lat="35.4639867" lon="-6.0363933"><ele>18.5</ele><time>2026-04-27T17:03:34.997Z</time></trkpt><trkpt lat="35.4639467" lon="-6.0364567"><ele>19.0</ele><time>2026-04-27T17:03:53.996Z</time></trkpt><trkpt lat="35.463875" lon="-6.0364167"><ele>19.5</ele><time>2026-04-27T17:03:59.997Z</time></trkpt><trkpt lat="35.463912" lon="-6.0364872"><ele>20.0</ele><time>2026-04-27T17:07:46.121Z</time></trkpt><trkpt lat="35.4639589" lon="-6.0365391"><ele>20.0</ele><time>2026-04-27T17:07:58.082Z</time></trkpt><trkpt lat="35.4639359" lon="-6.0366317"><ele>20.0</ele><time>2026-04-27T17:08:19.091Z</time></trkpt><trkpt lat="35.4639332" lon="-6.0367199"><ele>20.0</ele><time>2026-04-27T17:08:29.142Z</time></trkpt><trkpt lat="35.4639442" lon="-6.0368103"><ele>20.0</ele><time>2026-04-27T17:08:35.073Z</time></trkpt><trkpt lat="35.4639331" lon="-6.0368884"><ele>20.0</ele><time>2026-04-27T17:08:40.099Z</time></trkpt><trkpt lat="35.4639772" lon="-6.0369756"><ele>20.0</ele><time>2026-04-27T17:08:57.085Z</time></trkpt><trkpt lat="35.4639782" lon="-6.0370555"><ele>20.0</ele><time>2026-04-27T17:09:01.106Z</time></trkpt><trkpt lat="35.4639689" lon="-6.0371416"><ele>19.666666666666668</ele><time>2026-04-27T17:09:10.051Z</time></trkpt><trkpt lat="35.4639646" lon="-6.0372285"><ele>19.333333333333336</ele><time>2026-04-27T17:09:16.081Z</time></trkpt><trkpt lat="35.4639626" lon="-6.0373085"><ele>19.0</ele><time>2026-04-27T17:09:23.061Z</time></trkpt><trkpt lat="35.4639714" lon="-6.0374018"><ele>18.666666666666668</ele><time>2026-04-27T17:09:33.069Z</time></trkpt><trkpt lat="35.4639662" lon="-6.0374812"><ele>18.333333333333332</ele><time>2026-04-27T17:09:38.094Z</time></trkpt><trkpt lat="35.4639618" lon="-6.0375838"><ele>18.0</ele><time>2026-04-27T17:09:44.125Z</time></trkpt><trkpt lat="35.4639622" lon="-6.037709"><ele>16.0</ele><time>2026-04-27T17:09:51.06Z</time></trkpt></trkseg><trkseg><trkpt lat="35.4639367" lon="-6.036445"><ele>20.0</ele><time>2026-04-28T09:25:49.043Z</time></trkpt><trkpt lat="35.4639867" lon="-6.0363833"><ele>20.0</ele><time>2026-04-28T09:25:58.043Z</time></trkpt><trkpt lat="35.4640267" lon="-6.03625"><ele>20.0</ele><time>2026-04-28T09:31:22.042Z</time></trkpt><trkpt lat="35.4640633" lon="-6.036165"><ele>20.0</ele><time>2026-04-28T09:31:25.042Z</time></trkpt><trkpt lat="35.4640967" lon="-6.036065"><ele>20.0</ele><time>2026-04-28T09:31:28.041Z</time></trkpt><trkpt lat="35.46413" lon="-6.0359817"><ele>20.0</ele><time>2026-04-28T09:31:31.041Z</time></trkpt><trkpt lat="35.4641817" lon="-6.0358933"><ele>20.0</ele><time>2026-04-28T09:31:34.042Z</time></trkpt><trkpt lat="35.4642067" lon="-6.0358183"><ele>20.0</ele><time>2026-04-28T09:31:36.042Z</time></trkpt><trkpt lat="35.4642433" lon="-6.035735"><ele>20.0</ele><time>2026-04-28T09:31:38.042Z</time></trkpt><trkpt lat="35.4643" lon="-6.0356333"><ele>20.0</ele><time>2026-04-28T09:31:40.042Z</time></trkpt><trkpt lat="35.4643633" lon="-6.0355133"><ele>20.0</ele><time>2026-04-28T09:31:42.042Z</time></trkpt><trkpt lat="35.4644317" lon="-6.0353783"><ele>20.0</ele><time>2026-04-28T09:31:44.042Z</time></trkpt><trkpt lat="35.4644683" lon="-6.0352967"><ele>20.0</ele><time>2026-04-28T09:31:45.042Z</time></trkpt><trkpt lat="35.4645017" lon="-6.0352167"><ele>20.0</ele><time>2026-04-28T09:31:46.042Z</time></trkpt><trkpt lat="35.4645567" lon="-6.0350883"><ele>20.0</ele><time>2026-04-28T09:31:48.042Z</time></trkpt><trkpt lat="35.4645983" lon="-6.03498"><ele>20.0</ele><time>2026-04-28T09:31:50.042Z</time></trkpt><trkpt lat="35.4646283" lon="-6.0349067"><ele>20.0</ele><time>2026-04-28T09:31:52.042Z</time></trkpt><trkpt lat="35.4646867" lon="-6.0348483"><ele>19.5</ele><time>2026-04-28T09:31:55.042Z</time></trkpt><trkpt lat="35.4647633" lon="-6.0348667"><ele>19.0</ele><time>2026-04-28T09:31:57.042Z</time></trkpt><trkpt lat="35.4648567" lon="-6.0349333"><ele>18.5</ele><time>2026-04-28T09:31:59.042Z</time></trkpt><trkpt lat="35.4649167" lon="-6.0349767"><ele>18.0</ele><time>2026-04-28T09:32:00.042Z</time></trkpt><trkpt lat="35.4649933" lon="-6.035035"><ele>17.5</ele><time>2026-04-28T09:32:01.042Z</time></trkpt><trkpt lat="35.4650667" lon="-6.03508"><ele>17.0</ele><time>2026-04-28T09:32:02.042Z</time></trkpt><trkpt lat="35.4651333" lon="-6.0351233"><ele>16.999999999999996</ele><time>2026-04-28T09:32:03.042Z</time></trkpt><trkpt lat="35.4651967" lon="-6.0351667"><ele>17.0</ele><time>2026-04-28T09:32:04.042Z</time></trkpt><trkpt lat="35.4652633" lon="-6.0352117"><ele>17.0</ele><time>2026-04-28T09:32:05.042Z</time></trkpt><trkpt lat="35.46532" lon="-6.03526"><ele>17.0</ele><time>2026-04-28T09:32:06.042Z</time></trkpt><trkpt lat="35.4653783" lon="-6.0353117"><ele>17.0</ele><time>2026-04-28T09:32:07.042Z</time></trkpt><trkpt lat="35.4654383" lon="-6.0353683"><ele>16.999999999999996</ele><time>2026-04-28T09:32:08.042Z</time></trkpt><trkpt lat="35.4655017" lon="-6.035415"><ele>17.0</ele><time>2026-04-28T09:32:09.042Z</time></trkpt><trkpt lat="35.4655717" lon="-6.0354633"><ele>16.5</ele><time>2026-04-28T09:32:10.042Z</time></trkpt><trkpt lat="35.4656383" lon="-6.0355133"><ele>16.0</ele><time>2026-04-28T09:32:11.042Z</time></trkpt><trkpt lat="35.4657017" lon="-6.03556"><ele>15.5</ele><time>2026-04-28T09:32:12.042Z</time></trkpt><trkpt lat="35.4657733" lon="-6.0356017"><ele>15.0</ele><time>2026-04-28T09:32:13.042Z</time></trkpt><trkpt lat="35.4658317" lon="-6.0356483"><ele>14.500000000000002</ele><time>2026-04-28T09:32:14.042Z</time></trkpt><trkpt lat="35.4658933" lon="-6.0357017"><ele>14.0</ele><time>2026-04-28T09:32:15.042Z</time></trkpt><trkpt lat="35.4659633" lon="-6.0357367"><ele>14.000000000000002</ele><time>2026-04-28T09:32:16.042Z</time></trkpt><trkpt lat="35.4660233" lon="-6.035785"><ele>14.0</ele><time>2026-04-28T09:32:17.042Z</time></trkpt><trkpt lat="35.4660767" lon="-6.0358267"><ele>14.0</ele><time>2026-04-28T09:32:18.042Z</time></trkpt><trkpt lat="35.4661333" lon="-6.0358633"><ele>14.0</ele><time>2026-04-28T09:32:19.042Z</time></trkpt><trkpt lat="35.4662233" lon="-6.0359133"><ele>14.000000000000002</ele><time>2026-04-28T09:32:21.042Z</time></trkpt><trkpt lat="35.4663233" lon="-6.035885"><ele>14.0</ele><time>2026-04-28T09:32:23.042Z</time></trkpt><trkpt lat="35.4664267" lon="-6.03588"><ele>13.333333333333334</ele><time>2026-04-28T09:32:25.042Z</time></trkpt><trkpt lat="35.4665183" lon="-6.0359333"><ele>12.666666666666668</ele><time>2026-04-28T09:32:27.042Z</time></trkpt><trkpt lat="35.4666083" lon="-6.036025"><ele>12.0</ele><time>2026-04-28T09:32:29.042Z</time></trkpt><trkpt lat="35.46666" lon="-6.0360733"><ele>11.333333333333334</ele><time>2026-04-28T09:32:30.042Z</time></trkpt><trkpt lat="35.4667183" lon="-6.0361183"><ele>10.666666666666668</ele><time>2026-04-28T09:32:31.042Z</time></trkpt><trkpt lat="35.4667717" lon="-6.0361617"><ele>10.0</ele><time>2026-04-28T09:32:32.041Z</time></trkpt><trkpt lat="35.4668833" lon="-6.0361867"><ele>10.0</ele><time>2026-04-28T09:32:34.042Z</time></trkpt><trkpt lat="35.4670033" lon="-6.0361417"><ele>10.0</ele><time>2026-04-28T09:32:36.042Z</time></trkpt><trkpt lat="35.467065" lon="-6.0360833"><ele>10.0</ele><time>2026-04-28T09:32:37.042Z</time></trkpt><trkpt lat="35.4671267" lon="-6.0360167"><ele>10.0</ele><time>2026-04-28T09:32:38.042Z</time></trkpt><trkpt lat="35.4671833" lon="-6.0359483"><ele>10.0</ele><time>2026-04-28T09:32:39.042Z</time></trkpt><trkpt lat="35.4672433" lon="-6.0358867"><ele>10.0</ele><time>2026-04-28T09:32:40.042Z</time></trkpt><trkpt lat="35.4673083" lon="-6.035815"><ele>9.833333333333334</ele><time>2026-04-28T09:32:41.042Z</time></trkpt><trkpt lat="35.4673633" lon="-6.03573"><ele>9.666666666666668</ele><time>2026-04-28T09:32:42.041Z</time></trkpt><trkpt lat="35.46742" lon="-6.0356483"><ele>9.5</ele><time>2026-04-28T09:32:43.042Z</time></trkpt><trkpt lat="35.4674717" lon="-6.0355583"><ele>9.333333333333334</ele><time>2026-04-28T09:32:44.042Z</time></trkpt><trkpt lat="35.4675233" lon="-6.03547"><ele>9.166666666666666</ele><time>2026-04-28T09:32:45.042Z</time></trkpt><trkpt lat="35.4675783" lon="-6.0353867"><ele>9.0</ele><time>2026-04-28T09:32:46.041Z</time></trkpt><trkpt lat="35.4676333" lon="-6.0353067"><ele>9.0</ele><time>2026-04-28T09:32:47.042Z</time></trkpt><trkpt lat="35.4676883" lon="-6.0352267"><ele>9.0</ele><time>2026-04-28T09:32:48.041Z</time></trkpt><trkpt lat="35.4677467" lon="-6.03515"><ele>9.0</ele><time>2026-04-28T09:32:49.042Z</time></trkpt><trkpt lat="35.4678" lon="-6.03507"><ele>9.0</ele><time>2026-04-28T09:32:50.042Z</time></trkpt><trkpt lat="35.4678583" lon="-6.03499"><ele>9.0</ele><time>2026-04-28T09:32:51.042Z</time></trkpt><trkpt lat="35.4679133" lon="-6.0349117"><ele>9.0</ele><time>2026-04-28T09:32:52.042Z</time></trkpt><trkpt lat="35.4679683" lon="-6.034825"><ele>8.833333333333334</ele><time>2026-04-28T09:32:53.042Z</time></trkpt><trkpt lat="35.4680183" lon="-6.0347317"><ele>8.666666666666666</ele><time>2026-04-28T09:32:54.042Z</time></trkpt><trkpt lat="35.4680717" lon="-6.0346533"><ele>8.5</ele><time>2026-04-28T09:32:55.042Z</time></trkpt><trkpt lat="35.4681283" lon="-6.0345717"><ele>8.333333333333332</ele><time>2026-04-28T09:32:56.042Z</time></trkpt><trkpt lat="35.468185" lon="-6.0344867"><ele>8.166666666666666</ele><time>2026-04-28T09:32:57.042Z</time></trkpt><trkpt lat="35.46824" lon="-6.0344033"><ele>8.0</ele><time>2026-04-28T09:32:58.042Z</time></trkpt><trkpt lat="35.4682917" lon="-6.034315"><ele>7.999999999999999</ele><time>2026-04-28T09:32:59.042Z</time></trkpt><trkpt lat="35.4683433" lon="-6.03423"><ele>8.0</ele><time>2026-04-28T09:33:00.042Z</time></trkpt><trkpt lat="35.4683933" lon="-6.03415"><ele>8.0</ele><time>2026-04-28T09:33:01.042Z</time></trkpt><trkpt lat="35.46845" lon="-6.0340717"><ele>8.0</ele><time>2026-04-28T09:33:02.042Z</time></trkpt><trkpt lat="35.4685083" lon="-6.03399"><ele>7.999999999999999</ele><time>2026-04-28T09:33:03.042Z</time></trkpt><trkpt lat="35.4685683" lon="-6.033915"><ele>8.0</ele><time>2026-04-28T09:33:04.042Z</time></trkpt><trkpt lat="35.46864" lon="-6.0338483"><ele>7.999999999999999</ele><time>2026-04-28T09:33:05.042Z</time></trkpt><trkpt lat="35.468705" lon="-6.0337783"><ele>8.0</ele><time>2026-04-28T09:33:06.042Z</time></trkpt><trkpt lat="35.4687683" lon="-6.03371"><ele>8.0</ele><time>2026-04-28T09:33:07.041Z</time></trkpt><trkpt lat="35.4688367" lon="-6.0336483"><ele>8.0</ele><time>2026-04-28T09:33:08.042Z</time></trkpt><trkpt lat="35.4689017" lon="-6.033575"><ele>7.999999999999999</ele><time>2026-04-28T09:33:09.042Z</time></trkpt><trkpt lat="35.46896" lon="-6.0334983"><ele>8.0</ele><time>2026-04-28T09:33:10.042Z</time></trkpt><trkpt lat="35.4690133" lon="-6.0334233"><ele>7.999999999999999</ele><time>2026-04-28T09:33:11.042Z</time></trkpt><trkpt lat="35.4690717" lon="-6.03335"><ele>8.0</ele><time>2026-04-28T09:33:12.042Z</time></trkpt><trkpt lat="35.4691317" lon="-6.0332767"><ele>8.0</ele><time>2026-04-28T09:33:13.042Z</time></trkpt><trkpt lat="35.4691867" lon="-6.033195"><ele>8.0</ele><time>2026-04-28T09:33:14.042Z</time></trkpt><trkpt lat="35.4692367" lon="-6.0331133"><ele>7.999999999999999</ele><time>2026-04-28T09:33:15.042Z</time></trkpt><trkpt lat="35.4692867" lon="-6.0330417"><ele>8.0</ele><time>2026-04-28T09:33:16.042Z</time></trkpt><trkpt lat="35.4693383" lon="-6.03298"><ele>7.999999999999999</ele><time>2026-04-28T09:33:17.042Z</time></trkpt><trkpt lat="35.46939" lon="-6.0329183"><ele>8.0</ele><time>2026-04-28T09:33:18.042Z</time></trkpt><trkpt lat="35.4694417" lon="-6.0328567"><ele>8.0</ele><time>2026-04-28T09:33:19.042Z</time></trkpt><trkpt lat="35.4694917" lon="-6.03279"><ele>8.0</ele><time>2026-04-28T09:33:20.042Z</time></trkpt><trkpt lat="35.46954" lon="-6.0327183"><ele>7.999999999999999</ele><time>2026-04-28T09:33:21.041Z</time></trkpt><trkpt lat="35.4695883" lon="-6.0326433"><ele>8.0</ele><time>2026-04-28T09:33:22.042Z</time></trkpt><trkpt lat="35.4696367" lon="-6.0325667"><ele>7.833333333333333</ele><time>2026-04-28T09:33:23.042Z</time></trkpt><trkpt lat="35.46969" lon="-6.032495"><ele>7.666666666666666</ele><time>2026-04-28T09:33:24.042Z</time></trkpt><trkpt lat="35.4697533" lon="-6.032435"><ele>7.5</ele><time>2026-04-28T09:33:25.042Z</time></trkpt><trkpt lat="35.4698083" lon="-6.032365"><ele>7.333333333333334</ele><time>2026-04-28T09:33:26.042Z</time></trkpt><trkpt lat="35.4698617" lon="-6.032295"><ele>7.166666666666667</ele><time>2026-04-28T09:33:27.042Z</time></trkpt><trkpt lat="35.4699267" lon="-6.032225"><ele>7.0</ele><time>2026-04-28T09:33:28.042Z</time></trkpt><trkpt lat="35.46999" lon="-6.032145"><ele>7.0</ele><time>2026-04-28T09:33:29.042Z</time></trkpt><trkpt lat="35.4700517" lon="-6.03206"><ele>6.999999999999999</ele><time>2026-04-28T09:33:30.042Z</time></trkpt><trkpt lat="35.4701183" lon="-6.0319717"><ele>6.999999999999999</ele><time>2026-04-28T09:33:31.042Z</time></trkpt><trkpt lat="35.4701833" lon="-6.0318817"><ele>7.0</ele><time>2026-04-28T09:33:32.042Z</time></trkpt><trkpt lat="35.4702467" lon="-6.0317883"><ele>7.0</ele><time>2026-04-28T09:33:33.042Z</time></trkpt><trkpt lat="35.4703067" lon="-6.031695"><ele>7.333333333333334</ele><time>2026-04-28T09:33:34.042Z</time></trkpt><trkpt lat="35.4703683" lon="-6.031605"><ele>7.666666666666667</ele><time>2026-04-28T09:33:35.042Z</time></trkpt><trkpt lat="35.47043" lon="-6.0315233"><ele>8.0</ele><time>2026-04-28T09:33:36.042Z</time></trkpt><trkpt lat="35.4704883" lon="-6.031445"><ele>8.333333333333334</ele><time>2026-04-28T09:33:37.042Z</time></trkpt><trkpt lat="35.4705483" lon="-6.0313717"><ele>8.666666666666666</ele><time>2026-04-28T09:33:38.042Z</time></trkpt><trkpt lat="35.4706" lon="-6.0312933"><ele>9.0</ele><time>2026-04-28T09:33:39.042Z</time></trkpt><trkpt lat="35.4706567" lon="-6.0312217"><ele>8.666666666666666</ele><time>2026-04-28T09:33:40.042Z</time></trkpt><trkpt lat="35.4707117" lon="-6.0311417"><ele>8.333333333333334</ele><time>2026-04-28T09:33:41.042Z</time></trkpt><trkpt lat="35.47077" lon="-6.031065"><ele>8.0</ele><time>2026-04-28T09:33:42.042Z</time></trkpt><trkpt lat="35.47083" lon="-6.03099"><ele>7.666666666666667</ele><time>2026-04-28T09:33:43.042Z</time></trkpt><trkpt lat="35.4708867" lon="-6.0309217"><ele>7.333333333333334</ele><time>2026-04-28T09:33:44.042Z</time></trkpt><trkpt lat="35.4709333" lon="-6.0308517"><ele>7.0</ele><time>2026-04-28T09:33:45.042Z</time></trkpt><trkpt lat="35.4709767" lon="-6.03079"><ele>7.000000000000001</ele><time>2026-04-28T09:33:46.042Z</time></trkpt><trkpt lat="35.4710217" lon="-6.030725"><ele>7.0</ele><time>2026-04-28T09:33:47.042Z</time></trkpt><trkpt lat="35.4710733" lon="-6.0306533"><ele>7.0</ele><time>2026-04-28T09:33:48.042Z</time></trkpt><trkpt lat="35.471125" lon="-6.030585"><ele>7.0</ele><time>2026-04-28T09:33:49.042Z</time></trkpt><trkpt lat="35.4711767" lon="-6.030515"><ele>7.000000000000001</ele><time>2026-04-28T09:33:50.042Z</time></trkpt><trkpt lat="35.471225" lon="-6.03044"><ele>7.0</ele><time>2026-04-28T09:33:51.042Z</time></trkpt><trkpt lat="35.47127" lon="-6.03036"><ele>7.166666666666667</ele><time>2026-04-28T09:33:52.042Z</time></trkpt><trkpt lat="35.4713183" lon="-6.0302767"><ele>7.333333333333334</ele><time>2026-04-28T09:33:53.042Z</time></trkpt><trkpt lat="35.4713733" lon="-6.0301983"><ele>7.5</ele><time>2026-04-28T09:33:54.042Z</time></trkpt><trkpt lat="35.4714367" lon="-6.0301267"><ele>7.666666666666666</ele><time>2026-04-28T09:33:55.042Z</time></trkpt><trkpt lat="35.4715033" lon="-6.0300583"><ele>7.833333333333333</ele><time>2026-04-28T09:33:56.042Z</time></trkpt><trkpt lat="35.4715767" lon="-6.0300067"><ele>8.0</ele><time>2026-04-28T09:33:57.042Z</time></trkpt><trkpt lat="35.471645" lon="-6.0299567"><ele>7.999999999999999</ele><time>2026-04-28T09:33:58.041Z</time></trkpt><trkpt lat="35.4717067" lon="-6.0299117"><ele>8.0</ele><time>2026-04-28T09:33:59.042Z</time></trkpt><trkpt lat="35.4717733" lon="-6.029865"><ele>8.0</ele><time>2026-04-28T09:34:00.042Z</time></trkpt><trkpt lat="35.47184" lon="-6.0298167"><ele>8.0</ele><time>2026-04-28T09:34:01.042Z</time></trkpt><trkpt lat="35.471905" lon="-6.029765"><ele>7.999999999999999</ele><time>2026-04-28T09:34:02.042Z</time></trkpt><trkpt lat="35.4719683" lon="-6.02971"><ele>8.0</ele><time>2026-04-28T09:34:03.042Z</time></trkpt><trkpt lat="35.4720367" lon="-6.0296517"><ele>7.999999999999999</ele><time>2026-04-28T09:34:04.042Z</time></trkpt><trkpt lat="35.4721017" lon="-6.0295883"><ele>8.0</ele><time>2026-04-28T09:34:05.042Z</time></trkpt><trkpt lat="35.4721717" lon="-6.02952"><ele>8.0</ele><time>2026-04-28T09:34:06.041Z</time></trkpt><trkpt lat="35.47224" lon="-6.0294483"><ele>8.0</ele><time>2026-04-28T09:34:07.042Z</time></trkpt><trkpt lat="35.47231" lon="-6.0293767"><ele>7.999999999999999</ele><time>2026-04-28T09:34:08.042Z</time></trkpt><trkpt lat="35.4723817" lon="-6.0293017"><ele>8.0</ele><time>2026-04-28T09:34:09.042Z</time></trkpt><trkpt lat="35.472455" lon="-6.0292267"><ele>7.999999999999999</ele><time>2026-04-28T09:34:10.042Z</time></trkpt><trkpt lat="35.4725283" lon="-6.0291533"><ele>8.0</ele><time>2026-04-28T09:34:11.042Z</time></trkpt><trkpt lat="35.4726" lon="-6.029085"><ele>8.0</ele><time>2026-04-28T09:34:12.042Z</time></trkpt><trkpt lat="35.472665" lon="-6.0290117"><ele>8.0</ele><time>2026-04-28T09:34:13.042Z</time></trkpt><trkpt lat="35.4727283" lon="-6.0289383"><ele>7.999999999999999</ele><time>2026-04-28T09:34:14.042Z</time></trkpt><trkpt lat="35.4727917" lon="-6.0288683"><ele>8.0</ele><time>2026-04-28T09:34:15.042Z</time></trkpt><trkpt lat="35.47286" lon="-6.0287917"><ele>7.999999999999999</ele><time>2026-04-28T09:34:16.042Z</time></trkpt><trkpt lat="35.4729317" lon="-6.0287167"><ele>8.0</ele><time>2026-04-28T09:34:17.042Z</time></trkpt><trkpt lat="35.4730017" lon="-6.0286433"><ele>8.0</ele><time>2026-04-28T09:34:18.042Z</time></trkpt><trkpt lat="35.4730667" lon="-6.0285717"><ele>8.0</ele><time>2026-04-28T09:34:19.041Z</time></trkpt><trkpt lat="35.4731217" lon="-6.0284933"><ele>7.999999999999999</ele><time>2026-04-28T09:34:20.041Z</time></trkpt><trkpt lat="35.4731767" lon="-6.02842"><ele>8.0</ele><time>2026-04-28T09:34:21.042Z</time></trkpt><trkpt lat="35.4732283" lon="-6.028345"><ele>7.666666666666666</ele><time>2026-04-28T09:34:22.041Z</time></trkpt><trkpt lat="35.4732767" lon="-6.0282767"><ele>7.333333333333333</ele><time>2026-04-28T09:34:23.041Z</time></trkpt><trkpt lat="35.473325" lon="-6.0282033"><ele>7.0</ele><time>2026-04-28T09:34:24.041Z</time></trkpt><trkpt lat="35.4733767" lon="-6.0281317"><ele>6.666666666666666</ele><time>2026-04-28T09:34:25.041Z</time></trkpt><trkpt lat="35.4734267" lon="-6.028055"><ele>6.333333333333333</ele><time>2026-04-28T09:34:26.041Z</time></trkpt><trkpt lat="35.4734733" lon="-6.02798"><ele>6.0</ele><time>2026-04-28T09:34:27.041Z</time></trkpt><trkpt lat="35.4735217" lon="-6.027905"><ele>6.0</ele><time>2026-04-28T09:34:28.041Z</time></trkpt><trkpt lat="35.4735667" lon="-6.0278233"><ele>6.0</ele><time>2026-04-28T09:34:29.041Z</time></trkpt><trkpt lat="35.4736133" lon="-6.0277517"><ele>6.0</ele><time>2026-04-28T09:34:30.041Z</time></trkpt><trkpt lat="35.4736617" lon="-6.027675"><ele>6.0</ele><time>2026-04-28T09:34:31.041Z</time></trkpt><trkpt lat="35.473705" lon="-6.0275983"><ele>6.0</ele><time>2026-04-28T09:34:32.041Z</time></trkpt><trkpt lat="35.473735" lon="-6.0275117"><ele>6.0</ele><time>2026-04-28T09:34:33.041Z</time></trkpt><trkpt lat="35.4737633" lon="-6.0274217"><ele>6.166666666666667</ele><time>2026-04-28T09:34:34.041Z</time></trkpt><trkpt lat="35.473785" lon="-6.0273217"><ele>6.333333333333334</ele><time>2026-04-28T09:34:35.041Z</time></trkpt><trkpt lat="35.4738067" lon="-6.027225"><ele>6.5</ele><time>2026-04-28T09:34:36.041Z</time></trkpt><trkpt lat="35.4738217" lon="-6.027135"><ele>6.666666666666667</ele><time>2026-04-28T09:34:37.041Z</time></trkpt><trkpt lat="35.4738283" lon="-6.027045"><ele>6.833333333333334</ele><time>2026-04-28T09:34:38.041Z</time></trkpt><trkpt lat="35.4738267" lon="-6.026955"><ele>7.0</ele><time>2026-04-28T09:34:39.041Z</time></trkpt><trkpt lat="35.473805" lon="-6.0268683"><ele>7.0</ele><time>2026-04-28T09:34:40.041Z</time></trkpt><trkpt lat="35.473775" lon="-6.0267967"><ele>7.0</ele><time>2026-04-28T09:34:41.041Z</time></trkpt><trkpt lat="35.47374" lon="-6.0267283"><ele>7.0</ele><time>2026-04-28T09:34:42.041Z</time></trkpt><trkpt lat="35.47371" lon="-6.026645"><ele>7.0</ele><time>2026-04-28T09:34:43.041Z</time></trkpt><trkpt lat="35.473695" lon="-6.0265483"><ele>7.0</ele><time>2026-04-28T09:34:44.041Z</time></trkpt><trkpt lat="35.4736983" lon="-6.0264517"><ele>7.0</ele><time>2026-04-28T09:34:45.041Z</time></trkpt><trkpt lat="35.4737233" lon="-6.0263717"><ele>7.0</ele><time>2026-04-28T09:34:46.041Z</time></trkpt><trkpt lat="35.4737617" lon="-6.0263"><ele>6.833333333333334</ele><time>2026-04-28T09:34:47.04Z</time></trkpt><trkpt lat="35.4738217" lon="-6.026255"><ele>6.666666666666667</ele><time>2026-04-28T09:34:48.041Z</time></trkpt><trkpt lat="35.4739033" lon="-6.026235"><ele>6.5</ele><time>2026-04-28T09:34:49.041Z</time></trkpt><trkpt lat="35.4739917" lon="-6.02624"><ele>6.333333333333334</ele><time>2026-04-28T09:34:50.041Z</time></trkpt><trkpt lat="35.4740717" lon="-6.0262633"><ele>6.166666666666667</ele><time>2026-04-28T09:34:51.041Z</time></trkpt><trkpt lat="35.4741517" lon="-6.0262833"><ele>6.0</ele><time>2026-04-28T09:34:52.041Z</time></trkpt><trkpt lat="35.47423" lon="-6.0263017"><ele>6.0</ele><time>2026-04-28T09:34:53.041Z</time></trkpt><trkpt lat="35.4743083" lon="-6.0263167"><ele>6.0</ele><time>2026-04-28T09:34:54.041Z</time></trkpt><trkpt lat="35.474385" lon="-6.026325"><ele>6.0</ele><time>2026-04-28T09:34:55.041Z</time></trkpt><trkpt lat="35.47446" lon="-6.0263267"><ele>6.0</ele><time>2026-04-28T09:34:56.041Z</time></trkpt><trkpt lat="35.4745433" lon="-6.0263283"><ele>6.0</ele><time>2026-04-28T09:34:57.041Z</time></trkpt><trkpt lat="35.4746283" lon="-6.0263183"><ele>6.0</ele><time>2026-04-28T09:34:58.041Z</time></trkpt><trkpt lat="35.47471" lon="-6.0263017"><ele>6.4</ele><time>2026-04-28T09:34:59.041Z</time></trkpt><trkpt lat="35.4747917" lon="-6.026285"><ele>6.8</ele><time>2026-04-28T09:35:00.041Z</time></trkpt><trkpt lat="35.4748867" lon="-6.0262667"><ele>7.200000000000001</ele><time>2026-04-28T09:35:01.041Z</time></trkpt><trkpt lat="35.474985" lon="-6.0262483"><ele>7.6000000000000005</ele><time>2026-04-28T09:35:02.041Z</time></trkpt><trkpt lat="35.4750917" lon="-6.0262267"><ele>8.0</ele><time>2026-04-28T09:35:03.041Z</time></trkpt><trkpt lat="35.4752017" lon="-6.0262067"><ele>8.0</ele><time>2026-04-28T09:35:04.041Z</time></trkpt><trkpt lat="35.4753167" lon="-6.02618"><ele>8.0</ele><time>2026-04-28T09:35:05.041Z</time></trkpt><trkpt lat="35.475445" lon="-6.0261467"><ele>8.0</ele><time>2026-04-28T09:35:06.041Z</time></trkpt><trkpt lat="35.4755767" lon="-6.026125"><ele>8.0</ele><time>2026-04-28T09:35:07.041Z</time></trkpt><trkpt lat="35.4757117" lon="-6.0261033"><ele>7.75</ele><time>2026-04-28T09:35:08.041Z</time></trkpt><trkpt lat="35.475845" lon="-6.0260717"><ele>7.5</ele><time>2026-04-28T09:35:09.04Z</time></trkpt><trkpt lat="35.4759733" lon="-6.02605"><ele>7.25</ele><time>2026-04-28T09:35:10.041Z</time></trkpt><trkpt lat="35.4760967" lon="-6.0260317"><ele>7.0</ele><time>2026-04-28T09:35:11.041Z</time></trkpt><trkpt lat="35.4762133" lon="-6.0260217"><ele>7.199999999999999</ele><time>2026-04-28T09:35:12.041Z</time></trkpt><trkpt lat="35.476325" lon="-6.026005"><ele>7.3999999999999995</ele><time>2026-04-28T09:35:13.041Z</time></trkpt><trkpt lat="35.47643" lon="-6.0259867"><ele>7.6000000000000005</ele><time>2026-04-28T09:35:14.041Z</time></trkpt><trkpt lat="35.4765283" lon="-6.02596"><ele>7.800000000000001</ele><time>2026-04-28T09:35:15.041Z</time></trkpt><trkpt lat="35.4766233" lon="-6.025925"><ele>8.0</ele><time>2026-04-28T09:35:16.041Z</time></trkpt><trkpt lat="35.4767117" lon="-6.0258867"><ele>8.0</ele><time>2026-04-28T09:35:17.041Z</time></trkpt><trkpt lat="35.4768" lon="-6.0258583"><ele>8.0</ele><time>2026-04-28T09:35:18.041Z</time></trkpt><trkpt lat="35.476895" lon="-6.02584"><ele>8.0</ele><time>2026-04-28T09:35:19.041Z</time></trkpt><trkpt lat="35.47699" lon="-6.02584"><ele>8.0</ele><time>2026-04-28T09:35:20.04Z</time></trkpt><trkpt lat="35.4770883" lon="-6.0258417"><ele>8.0</ele><time>2026-04-28T09:35:21.041Z</time></trkpt><trkpt lat="35.4771867" lon="-6.0258367"><ele>7.800000000000001</ele><time>2026-04-28T09:35:22.041Z</time></trkpt><trkpt lat="35.4772883" lon="-6.0258267"><ele>7.6000000000000005</ele><time>2026-04-28T09:35:23.041Z</time></trkpt><trkpt lat="35.4773883" lon="-6.02582"><ele>7.3999999999999995</ele><time>2026-04-28T09:35:24.041Z</time></trkpt><trkpt lat="35.4774933" lon="-6.0258017"><ele>7.199999999999999</ele><time>2026-04-28T09:35:25.041Z</time></trkpt><trkpt lat="35.4775967" lon="-6.025785"><ele>7.0</ele><time>2026-04-28T09:35:26.041Z</time></trkpt><trkpt lat="35.4777067" lon="-6.02576"><ele>7.0</ele><time>2026-04-28T09:35:27.041Z</time></trkpt><trkpt lat="35.4778117" lon="-6.0257333"><ele>6.999999999999999</ele><time>2026-04-28T09:35:28.041Z</time></trkpt><trkpt lat="35.4779167" lon="-6.0257067"><ele>6.999999999999999</ele><time>2026-04-28T09:35:29.04Z</time></trkpt><trkpt lat="35.47801" lon="-6.0256833"><ele>7.0</ele><time>2026-04-28T09:35:30.041Z</time></trkpt><trkpt lat="35.478095" lon="-6.0256583"><ele>7.0</ele><time>2026-04-28T09:35:31.041Z</time></trkpt><trkpt lat="35.4781617" lon="-6.0256433"><ele>7.000000000000001</ele><time>2026-04-28T09:35:32.041Z</time></trkpt><trkpt lat="35.4782383" lon="-6.025625"><ele>7.0</ele><time>2026-04-28T09:35:34.041Z</time></trkpt><trkpt lat="35.478315" lon="-6.0256117"><ele>7.0</ele><time>2026-04-28T09:37:53.04Z</time></trkpt><trkpt lat="35.4784" lon="-6.025585"><ele>7.0</ele><time>2026-04-28T09:37:55.04Z</time></trkpt><trkpt lat="35.4785167" lon="-6.0255533"><ele>7.000000000000001</ele><time>2026-04-28T09:37:57.041Z</time></trkpt><trkpt lat="35.4785967" lon="-6.0255283"><ele>7.0</ele><time>2026-04-28T09:37:58.041Z</time></trkpt><trkpt lat="35.4786883" lon="-6.0254983"><ele>7.25</ele><time>2026-04-28T09:37:59.04Z</time></trkpt><trkpt lat="35.478795" lon="-6.025465"><ele>7.5</ele><time>2026-04-28T09:38:00.041Z</time></trkpt><trkpt lat="35.47891" lon="-6.02543"><ele>7.75</ele><time>2026-04-28T09:38:01.041Z</time></trkpt><trkpt lat="35.4790333" lon="-6.0253867"><ele>8.0</ele><time>2026-04-28T09:38:02.041Z</time></trkpt><trkpt lat="35.4791483" lon="-6.0253467"><ele>8.0</ele><time>2026-04-28T09:38:03.041Z</time></trkpt><trkpt lat="35.47926" lon="-6.0252983"><ele>8.0</ele><time>2026-04-28T09:38:04.041Z</time></trkpt><trkpt lat="35.4793867" lon="-6.0252517"><ele>8.0</ele><time>2026-04-28T09:38:05.041Z</time></trkpt><trkpt lat="35.4795167" lon="-6.0252033"><ele>8.0</ele><time>2026-04-28T09:38:06.041Z</time></trkpt><trkpt lat="35.4796467" lon="-6.025155"><ele>8.0</ele><time>2026-04-28T09:38:07.041Z</time></trkpt><trkpt lat="35.4797833" lon="-6.0251033"><ele>8.0</ele><time>2026-04-28T09:38:08.041Z</time></trkpt><trkpt lat="35.47992" lon="-6.025055"><ele>8.0</ele><time>2026-04-28T09:38:09.04Z</time></trkpt><trkpt lat="35.480055" lon="-6.0250017"><ele>8.0</ele><time>2026-04-28T09:38:10.041Z</time></trkpt><trkpt lat="35.4801933" lon="-6.02494"><ele>8.0</ele><time>2026-04-28T09:38:11.041Z</time></trkpt><trkpt lat="35.4803367" lon="-6.0248817"><ele>8.0</ele><time>2026-04-28T09:38:12.041Z</time></trkpt><trkpt lat="35.4804817" lon="-6.0248217"><ele>8.0</ele><time>2026-04-28T09:38:13.041Z</time></trkpt><trkpt lat="35.4806267" lon="-6.024755"><ele>8.0</ele><time>2026-04-28T09:38:14.041Z</time></trkpt><trkpt lat="35.4807717" lon="-6.0246967"><ele>8.0</ele><time>2026-04-28T09:38:15.041Z</time></trkpt><trkpt lat="35.48092" lon="-6.0246383"><ele>8.0</ele><time>2026-04-28T09:38:16.041Z</time></trkpt><trkpt lat="35.48107" lon="-6.0245767"><ele>8.0</ele><time>2026-04-28T09:38:17.04Z</time></trkpt><trkpt lat="35.48122" lon="-6.0245233"><ele>8.0</ele><time>2026-04-28T09:38:18.041Z</time></trkpt><trkpt lat="35.4813633" lon="-6.02447"><ele>8.0</ele><time>2026-04-28T09:38:19.041Z</time></trkpt><trkpt lat="35.4815067" lon="-6.0244117"><ele>7.25</ele><time>2026-04-28T09:38:20.041Z</time></trkpt><trkpt lat="35.4816483" lon="-6.0243517"><ele>6.5</ele><time>2026-04-28T09:38:21.041Z</time></trkpt><trkpt lat="35.4817883" lon="-6.02429"><ele>5.75</ele><time>2026-04-28T09:38:22.041Z</time></trkpt><trkpt lat="35.4819267" lon="-6.0242333"><ele>5.0</ele><time>2026-04-28T09:38:23.041Z</time></trkpt><trkpt lat="35.4820683" lon="-6.02418"><ele>6.75</ele><time>2026-04-28T09:38:24.041Z</time></trkpt><trkpt lat="35.4822067" lon="-6.024115"><ele>8.5</ele><time>2026-04-28T09:38:25.041Z</time></trkpt><trkpt lat="35.4823417" lon="-6.024065"><ele>10.25</ele><time>2026-04-28T09:38:26.041Z</time></trkpt><trkpt lat="35.48246" lon="-6.0240133"><ele>12.0</ele><time>2026-04-28T09:38:27.041Z</time></trkpt><trkpt lat="35.4825833" lon="-6.0239617"><ele>12.0</ele><time>2026-04-28T09:38:28.041Z</time></trkpt><trkpt lat="35.4827117" lon="-6.0239117"><ele>12.0</ele><time>2026-04-28T09:38:29.041Z</time></trkpt><trkpt lat="35.4828383" lon="-6.0238583"><ele>12.0</ele><time>2026-04-28T09:38:30.041Z</time></trkpt><trkpt lat="35.48297" lon="-6.0238083"><ele>12.0</ele><time>2026-04-28T09:38:31.04Z</time></trkpt><trkpt lat="35.483095" lon="-6.0237567"><ele>11.0</ele><time>2026-04-28T09:38:32.041Z</time></trkpt><trkpt lat="35.48323" lon="-6.0237067"><ele>10.0</ele><time>2026-04-28T09:38:33.041Z</time></trkpt><trkpt lat="35.4833667" lon="-6.0236583"><ele>9.0</ele><time>2026-04-28T09:38:34.041Z</time></trkpt><trkpt lat="35.4835" lon="-6.0236"><ele>8.0</ele><time>2026-04-28T09:38:35.041Z</time></trkpt><trkpt lat="35.4836283" lon="-6.0235467"><ele>8.0</ele><time>2026-04-28T09:38:36.041Z</time></trkpt><trkpt lat="35.4837617" lon="-6.0234883"><ele>8.0</ele><time>2026-04-28T09:38:37.04Z</time></trkpt><trkpt lat="35.483895" lon="-6.02344"><ele>8.0</ele><time>2026-04-28T09:38:38.041Z</time></trkpt><trkpt lat="35.484035" lon="-6.0233817"><ele>8.0</ele><time>2026-04-28T09:38:39.041Z</time></trkpt><trkpt lat="35.4841717" lon="-6.0233233"><ele>8.0</ele><time>2026-04-28T09:38:40.041Z</time></trkpt><trkpt lat="35.4843033" lon="-6.0232717"><ele>8.0</ele><time>2026-04-28T09:38:41.041Z</time></trkpt><trkpt lat="35.484435" lon="-6.0232117"><ele>8.0</ele><time>2026-04-28T09:38:42.041Z</time></trkpt><trkpt lat="35.4845733" lon="-6.0231583"><ele>8.0</ele><time>2026-04-28T09:38:43.041Z</time></trkpt><trkpt lat="35.48471" lon="-6.0231083"><ele>8.25</ele><time>2026-04-28T09:38:44.041Z</time></trkpt><trkpt lat="35.4848483" lon="-6.023055"><ele>8.5</ele><time>2026-04-28T09:38:45.041Z</time></trkpt><trkpt lat="35.484985" lon="-6.0230067"><ele>8.75</ele><time>2026-04-28T09:38:46.041Z</time></trkpt><trkpt lat="35.4851217" lon="-6.0229533"><ele>9.0</ele><time>2026-04-28T09:38:47.041Z</time></trkpt><trkpt lat="35.4852583" lon="-6.022895"><ele>9.0</ele><time>2026-04-28T09:38:48.041Z</time></trkpt><trkpt lat="35.4853967" lon="-6.0228383"><ele>9.0</ele><time>2026-04-28T09:38:49.041Z</time></trkpt><trkpt lat="35.4855367" lon="-6.02278"><ele>9.0</ele><time>2026-04-28T09:38:50.041Z</time></trkpt><trkpt lat="35.48568" lon="-6.0227183"><ele>9.0</ele><time>2026-04-28T09:38:51.04Z</time></trkpt><trkpt lat="35.4858183" lon="-6.0226567"><ele>8.75</ele><time>2026-04-28T09:38:52.041Z</time></trkpt><trkpt lat="35.485955" lon="-6.0225983"><ele>8.5</ele><time>2026-04-28T09:38:53.041Z</time></trkpt><trkpt lat="35.4860967" lon="-6.0225367"><ele>8.25</ele><time>2026-04-28T09:38:54.041Z</time></trkpt><trkpt lat="35.48623" lon="-6.0224833"><ele>8.0</ele><time>2026-04-28T09:38:55.041Z</time></trkpt><trkpt lat="35.4863683" lon="-6.0224367"><ele>8.666666666666666</ele><time>2026-04-28T09:38:56.04Z</time></trkpt><trkpt lat="35.4865083" lon="-6.0223767"><ele>9.333333333333334</ele><time>2026-04-28T09:38:57.041Z</time></trkpt><trkpt lat="35.4866533" lon="-6.02231"><ele>10.0</ele><time>2026-04-28T09:38:58.041Z</time></trkpt><trkpt lat="35.4867983" lon="-6.0222533"><ele>10.0</ele><time>2026-04-28T09:38:59.041Z</time></trkpt><trkpt lat="35.4869417" lon="-6.0221933"><ele>10.0</ele><time>2026-04-28T09:39:00.041Z</time></trkpt><trkpt lat="35.4870883" lon="-6.0221367"><ele>10.0</ele><time>2026-04-28T09:39:01.041Z</time></trkpt><trkpt lat="35.48723" lon="-6.0220833"><ele>9.25</ele><time>2026-04-28T09:39:02.04Z</time></trkpt><trkpt lat="35.487365" lon="-6.0220283"><ele>8.5</ele><time>2026-04-28T09:39:03.041Z</time></trkpt><trkpt lat="35.4874867" lon="-6.0219717"><ele>7.75</ele><time>2026-04-28T09:39:04.041Z</time></trkpt><trkpt lat="35.4876067" lon="-6.0219183"><ele>7.0</ele><time>2026-04-28T09:39:05.041Z</time></trkpt><trkpt lat="35.4877083" lon="-6.0218683"><ele>7.0</ele><time>2026-04-28T09:39:06.041Z</time></trkpt><trkpt lat="35.4878067" lon="-6.021815"><ele>6.999999999999999</ele><time>2026-04-28T09:39:07.041Z</time></trkpt><trkpt lat="35.4878933" lon="-6.02176"><ele>6.999999999999999</ele><time>2026-04-28T09:39:08.041Z</time></trkpt><trkpt lat="35.487975" lon="-6.0216967"><ele>7.0</ele><time>2026-04-28T09:39:09.041Z</time></trkpt><trkpt lat="35.4880583" lon="-6.021655"><ele>7.0</ele><time>2026-04-28T09:39:10.041Z</time></trkpt><trkpt lat="35.488145" lon="-6.0216317"><ele>7.199999999999999</ele><time>2026-04-28T09:39:11.041Z</time></trkpt><trkpt lat="35.4882333" lon="-6.02161"><ele>7.3999999999999995</ele><time>2026-04-28T09:39:12.041Z</time></trkpt><trkpt lat="35.4883333" lon="-6.0215833"><ele>7.6000000000000005</ele><time>2026-04-28T09:39:13.041Z</time></trkpt><trkpt lat="35.4884417" lon="-6.0215467"><ele>7.800000000000001</ele><time>2026-04-28T09:39:14.041Z</time></trkpt><trkpt lat="35.48856" lon="-6.021505"><ele>8.0</ele><time>2026-04-28T09:39:15.041Z</time></trkpt><trkpt lat="35.4886783" lon="-6.0214517"><ele>8.0</ele><time>2026-04-28T09:39:16.041Z</time></trkpt><trkpt lat="35.488795" lon="-6.0213967"><ele>8.0</ele><time>2026-04-28T09:39:17.041Z</time></trkpt><trkpt lat="35.4889233" lon="-6.021335"><ele>8.0</ele><time>2026-04-28T09:39:18.041Z</time></trkpt><trkpt lat="35.4890617" lon="-6.0212717"><ele>8.0</ele><time>2026-04-28T09:39:19.04Z</time></trkpt><trkpt lat="35.489205" lon="-6.0212033"><ele>8.0</ele><time>2026-04-28T09:39:20.04Z</time></trkpt><trkpt lat="35.48935" lon="-6.0211283"><ele>8.0</ele><time>2026-04-28T09:39:21.041Z</time></trkpt><trkpt lat="35.4894967" lon="-6.02106"><ele>8.0</ele><time>2026-04-28T09:39:22.041Z</time></trkpt><trkpt lat="35.4896417" lon="-6.0209867"><ele>8.0</ele><time>2026-04-28T09:39:23.041Z</time></trkpt><trkpt lat="35.4897783" lon="-6.02091"><ele>8.0</ele><time>2026-04-28T09:39:24.041Z</time></trkpt><trkpt lat="35.4899133" lon="-6.0208267"><ele>8.0</ele><time>2026-04-28T09:39:25.041Z</time></trkpt><trkpt lat="35.4900417" lon="-6.0207433"><ele>8.0</ele><time>2026-04-28T09:39:26.041Z</time></trkpt><trkpt lat="35.4901767" lon="-6.020665"><ele>8.0</ele><time>2026-04-28T09:39:27.04Z</time></trkpt><trkpt lat="35.4903067" lon="-6.0205833"><ele>8.0</ele><time>2026-04-28T09:39:28.04Z</time></trkpt><trkpt lat="35.49044" lon="-6.0205017"><ele>8.0</ele><time>2026-04-28T09:39:29.041Z</time></trkpt><trkpt lat="35.4905633" lon="-6.0204183"><ele>8.0</ele><time>2026-04-28T09:39:30.041Z</time></trkpt><trkpt lat="35.4906883" lon="-6.0203333"><ele>7.75</ele><time>2026-04-28T09:39:31.041Z</time></trkpt><trkpt lat="35.490815" lon="-6.0202517"><ele>7.5</ele><time>2026-04-28T09:39:32.041Z</time></trkpt><trkpt lat="35.49094" lon="-6.020165"><ele>7.25</ele><time>2026-04-28T09:39:33.041Z</time></trkpt><trkpt lat="35.4910617" lon="-6.0200783"><ele>7.0</ele><time>2026-04-28T09:39:34.041Z</time></trkpt><trkpt lat="35.4911867" lon="-6.0199867"><ele>6.666666666666667</ele><time>2026-04-28T09:39:35.041Z</time></trkpt><trkpt lat="35.4913117" lon="-6.0198883"><ele>6.333333333333334</ele><time>2026-04-28T09:39:36.041Z</time></trkpt><trkpt lat="35.49144" lon="-6.019795"><ele>6.0</ele><time>2026-04-28T09:39:37.041Z</time></trkpt><trkpt lat="35.4915717" lon="-6.0197"><ele>6.0</ele><time>2026-04-28T09:39:38.041Z</time></trkpt><trkpt lat="35.4916983" lon="-6.0196083"><ele>6.0</ele><time>2026-04-28T09:39:39.041Z</time></trkpt><trkpt lat="35.491825" lon="-6.019515"><ele>6.0</ele><time>2026-04-28T09:39:40.041Z</time></trkpt><trkpt lat="35.4919483" lon="-6.0194217"><ele>6.0</ele><time>2026-04-28T09:39:41.041Z</time></trkpt><trkpt lat="35.492075" lon="-6.0193217"><ele>5.5</ele><time>2026-04-28T09:39:42.041Z</time></trkpt><trkpt lat="35.4921983" lon="-6.0192167"><ele>5.0</ele><time>2026-04-28T09:39:43.04Z</time></trkpt><trkpt lat="35.4923183" lon="-6.0191183"><ele>4.5</ele><time>2026-04-28T09:39:44.041Z</time></trkpt><trkpt lat="35.4924367" lon="-6.019015"><ele>4.0</ele><time>2026-04-28T09:39:45.041Z</time></trkpt><trkpt lat="35.492555" lon="-6.01891"><ele>5.0</ele><time>2026-04-28T09:39:46.041Z</time></trkpt><trkpt lat="35.492675" lon="-6.018805"><ele>6.0</ele><time>2026-04-28T09:39:47.041Z</time></trkpt><trkpt lat="35.4927933" lon="-6.0186967"><ele>7.0</ele><time>2026-04-28T09:39:48.041Z</time></trkpt><trkpt lat="35.492915" lon="-6.0185867"><ele>8.0</ele><time>2026-04-28T09:39:49.041Z</time></trkpt><trkpt lat="35.4930317" lon="-6.0184767"><ele>8.25</ele><time>2026-04-28T09:39:50.041Z</time></trkpt><trkpt lat="35.4931483" lon="-6.0183633"><ele>8.5</ele><time>2026-04-28T09:39:51.04Z</time></trkpt><trkpt lat="35.493265" lon="-6.01826"><ele>8.75</ele><time>2026-04-28T09:39:52.041Z</time></trkpt><trkpt lat="35.4933817" lon="-6.01815"><ele>9.0</ele><time>2026-04-28T09:39:53.04Z</time></trkpt><trkpt lat="35.4934967" lon="-6.0180333"><ele>9.0</ele><time>2026-04-28T09:39:54.041Z</time></trkpt><trkpt lat="35.4936117" lon="-6.0179167"><ele>9.0</ele><time>2026-04-28T09:39:55.041Z</time></trkpt><trkpt lat="35.4937267" lon="-6.017805"><ele>9.0</ele><time>2026-04-28T09:39:56.041Z</time></trkpt><trkpt lat="35.49384" lon="-6.01769"><ele>9.0</ele><time>2026-04-28T09:39:57.04Z</time></trkpt><trkpt lat="35.4939517" lon="-6.0175667"><ele>10.75</ele><time>2026-04-28T09:39:58.041Z</time></trkpt><trkpt lat="35.494065" lon="-6.0174517"><ele>12.5</ele><time>2026-04-28T09:39:59.041Z</time></trkpt><trkpt lat="35.494175" lon="-6.017325"><ele>14.25</ele><time>2026-04-28T09:40:00.041Z</time></trkpt><trkpt lat="35.49428" lon="-6.0172083"><ele>16.0</ele><time>2026-04-28T09:40:01.041Z</time></trkpt><trkpt lat="35.4943933" lon="-6.017085"><ele>16.0</ele><time>2026-04-28T09:40:02.041Z</time></trkpt><trkpt lat="35.4945017" lon="-6.0169617"><ele>16.0</ele><time>2026-04-28T09:40:03.041Z</time></trkpt><trkpt lat="35.4946117" lon="-6.0168383"><ele>16.0</ele><time>2026-04-28T09:40:04.041Z</time></trkpt><trkpt lat="35.4947217" lon="-6.0167117"><ele>16.0</ele><time>2026-04-28T09:40:05.041Z</time></trkpt><trkpt lat="35.49482" lon="-6.016585"><ele>15.600000000000001</ele><time>2026-04-28T09:40:06.041Z</time></trkpt><trkpt lat="35.4949017" lon="-6.0164633"><ele>15.200000000000001</ele><time>2026-04-28T09:40:07.041Z</time></trkpt><trkpt lat="35.4949733" lon="-6.0163483"><ele>14.799999999999999</ele><time>2026-04-28T09:40:08.041Z</time></trkpt><trkpt lat="35.4950317" lon="-6.0162383"><ele>14.399999999999999</ele><time>2026-04-28T09:40:09.041Z</time></trkpt><trkpt lat="35.495085" lon="-6.0161483"><ele>14.0</ele><time>2026-04-28T09:40:10.041Z</time></trkpt><trkpt lat="35.4951367" lon="-6.0160783"><ele>14.000000000000002</ele><time>2026-04-28T09:40:11.041Z</time></trkpt><trkpt lat="35.4951933" lon="-6.0160233"><ele>14.0</ele><time>2026-04-28T09:40:12.041Z</time></trkpt><trkpt lat="35.4952517" lon="-6.015985"><ele>14.0</ele><time>2026-04-28T09:40:13.041Z</time></trkpt><trkpt lat="35.4953517" lon="-6.0159183"><ele>14.0</ele><time>2026-04-28T09:40:15.041Z</time></trkpt><trkpt lat="35.49545" lon="-6.01585"><ele>14.000000000000002</ele><time>2026-04-28T09:40:17.041Z</time></trkpt><trkpt lat="35.4955183" lon="-6.0158333"><ele>14.0</ele><time>2026-04-28T09:40:19.04Z</time></trkpt><trkpt lat="35.4955783" lon="-6.0158617"><ele>13.6</ele><time>2026-04-28T09:40:21.041Z</time></trkpt><trkpt lat="35.495635" lon="-6.0159233"><ele>13.2</ele><time>2026-04-28T09:40:24.041Z</time></trkpt><trkpt lat="35.4957417" lon="-6.0158367"><ele>12.799999999999999</ele><time>2026-04-28T09:46:41.04Z</time></trkpt><trkpt lat="35.4956583" lon="-6.01569"><ele>12.399999999999999</ele><time>2026-04-28T09:47:24.046Z</time></trkpt><trkpt lat="35.49562" lon="-6.0156167"><ele>12.0</ele><time>2026-04-28T09:47:29.046Z</time></trkpt><trkpt lat="35.495595" lon="-6.015525"><ele>11.0</ele><time>2026-04-28T09:47:33.046Z</time></trkpt><trkpt lat="35.49563" lon="-6.01546"><ele>11.0</ele><time>2026-04-28T09:47:43.046Z</time></trkpt></trkseg><trkseg><trkpt lat="35.5088633" lon="-6.000045"><ele>3.0</ele><time>2026-04-28T09:53:42.545Z</time></trkpt><trkpt lat="35.50932" lon="-5.999745"><ele>3.0</ele><time>2026-04-28T09:53:45.045Z</time></trkpt><trkpt lat="35.5094967" lon="-5.9996217"><ele>3.0</ele><time>2026-04-28T09:53:46.045Z</time></trkpt><trkpt lat="35.50967" lon="-5.9994967"><ele>3.0</ele><time>2026-04-28T09:53:47.045Z</time></trkpt><trkpt lat="35.5098483" lon="-5.9993717"><ele>2.6666666666666665</ele><time>2026-04-28T09:53:48.045Z</time></trkpt><trkpt lat="35.5100233" lon="-5.9992567"><ele>2.333333333333333</ele><time>2026-04-28T09:53:49.045Z</time></trkpt><trkpt lat="35.5101983" lon="-5.9991383"><ele>2.0</ele><time>2026-04-28T09:53:50.045Z</time></trkpt><trkpt lat="35.510375" lon="-5.99903"><ele>2.0</ele><time>2026-04-28T09:53:51.045Z</time></trkpt><trkpt lat="35.5105517" lon="-5.9989167"><ele>2.0</ele><time>2026-04-28T09:53:52.044Z</time></trkpt><trkpt lat="35.51073" lon="-5.9988117"><ele>2.0</ele><time>2026-04-28T09:53:53.045Z</time></trkpt><trkpt lat="35.5109067" lon="-5.9987083"><ele>2.0</ele><time>2026-04-28T09:53:54.045Z</time></trkpt><trkpt lat="35.51109" lon="-5.99861"><ele>2.0</ele><time>2026-04-28T09:53:55.044Z</time></trkpt><trkpt lat="35.5112783" lon="-5.9985217"><ele>2.0</ele><time>2026-04-28T09:53:56.045Z</time></trkpt><trkpt lat="35.5114633" lon="-5.998435"><ele>2.0</ele><time>2026-04-28T09:53:57.044Z</time></trkpt><trkpt lat="35.5116567" lon="-5.9983483"><ele>2.0</ele><time>2026-04-28T09:53:58.044Z</time></trkpt><trkpt lat="35.5118483" lon="-5.9982817"><ele>2.0</ele><time>2026-04-28T09:53:59.045Z</time></trkpt><trkpt lat="35.5120333" lon="-5.9982167"><ele>2.333333333333333</ele><time>2026-04-28T09:54:00.044Z</time></trkpt><trkpt lat="35.512225" lon="-5.9981533"><ele>2.6666666666666665</ele><time>2026-04-28T09:54:01.045Z</time></trkpt><trkpt lat="35.5124233" lon="-5.9981017"><ele>3.0</ele><time>2026-04-28T09:54:02.045Z</time></trkpt><trkpt lat="35.5126167" lon="-5.9980617"><ele>3.0</ele><time>2026-04-28T09:54:03.045Z</time></trkpt><trkpt lat="35.5128117" lon="-5.9980267"><ele>3.0</ele><time>2026-04-28T09:54:04.045Z</time></trkpt><trkpt lat="35.5130083" lon="-5.9979967"><ele>3.0</ele><time>2026-04-28T09:54:05.044Z</time></trkpt><trkpt lat="35.513205" lon="-5.99797"><ele>3.0</ele><time>2026-04-28T09:54:06.044Z</time></trkpt><trkpt lat="35.5134" lon="-5.9979467"><ele>3.0</ele><time>2026-04-28T09:54:07.044Z</time></trkpt><trkpt lat="35.513595" lon="-5.9979317"><ele>3.0</ele><time>2026-04-28T09:54:08.045Z</time></trkpt><trkpt lat="35.5137933" lon="-5.99792"><ele>3.333333333333333</ele><time>2026-04-28T09:54:09.045Z</time></trkpt><trkpt lat="35.5139917" lon="-5.99792"><ele>3.6666666666666665</ele><time>2026-04-28T09:54:10.045Z</time></trkpt><trkpt lat="35.5141917" lon="-5.9979283"><ele>4.0</ele><time>2026-04-28T09:54:11.045Z</time></trkpt><trkpt lat="35.5143917" lon="-5.99795"><ele>4.333333333333333</ele><time>2026-04-28T09:54:12.045Z</time></trkpt><trkpt lat="35.5145883" lon="-5.9979733"><ele>4.666666666666667</ele><time>2026-04-28T09:54:13.045Z</time></trkpt><trkpt lat="35.51479" lon="-5.998005"><ele>5.0</ele><time>2026-04-28T09:54:14.045Z</time></trkpt><trkpt lat="35.5149917" lon="-5.9980317"><ele>5.0</ele><time>2026-04-28T09:54:15.045Z</time></trkpt><trkpt lat="35.5151883" lon="-5.9980617"><ele>5.0</ele><time>2026-04-28T09:54:16.045Z</time></trkpt><trkpt lat="35.5153867" lon="-5.9980967"><ele>5.0</ele><time>2026-04-28T09:54:17.045Z</time></trkpt><trkpt lat="35.5155817" lon="-5.998135"><ele>5.666666666666667</ele><time>2026-04-28T09:54:18.045Z</time></trkpt><trkpt lat="35.5157767" lon="-5.9981733"><ele>6.333333333333334</ele><time>2026-04-28T09:54:19.045Z</time></trkpt><trkpt lat="35.5159733" lon="-5.998205"><ele>7.0</ele><time>2026-04-28T09:54:20.044Z</time></trkpt><trkpt lat="35.51617" lon="-5.9982383"><ele>8.333333333333334</ele><time>2026-04-28T09:54:21.045Z</time></trkpt><trkpt lat="35.5163717" lon="-5.9982683"><ele>9.666666666666666</ele><time>2026-04-28T09:54:22.045Z</time></trkpt><trkpt lat="35.5165717" lon="-5.9982967"><ele>11.0</ele><time>2026-04-28T09:54:23.045Z</time></trkpt><trkpt lat="35.516775" lon="-5.9983133"><ele>11.0</ele><time>2026-04-28T09:54:24.045Z</time></trkpt><trkpt lat="35.5169733" lon="-5.9983267"><ele>11.0</ele><time>2026-04-28T09:54:25.044Z</time></trkpt><trkpt lat="35.5171717" lon="-5.9983317"><ele>11.0</ele><time>2026-04-28T09:54:26.045Z</time></trkpt><trkpt lat="35.5173667" lon="-5.99833"><ele>11.0</ele><time>2026-04-28T09:54:27.045Z</time></trkpt><trkpt lat="35.5175617" lon="-5.99832"><ele>11.0</ele><time>2026-04-28T09:54:28.045Z</time></trkpt><trkpt lat="35.5177567" lon="-5.9983033"><ele>11.0</ele><time>2026-04-28T09:54:29.045Z</time></trkpt><trkpt lat="35.517955" lon="-5.9982833"><ele>11.0</ele><time>2026-04-28T09:54:30.045Z</time></trkpt><trkpt lat="35.51815" lon="-5.9982583"><ele>11.0</ele><time>2026-04-28T09:54:31.045Z</time></trkpt><trkpt lat="35.5183433" lon="-5.998225"><ele>11.0</ele><time>2026-04-28T09:54:32.045Z</time></trkpt><trkpt lat="35.51854" lon="-5.998195"><ele>10.0</ele><time>2026-04-28T09:54:33.045Z</time></trkpt><trkpt lat="35.518735" lon="-5.9981533"><ele>9.0</ele><time>2026-04-28T09:54:34.045Z</time></trkpt><trkpt lat="35.5189283" lon="-5.9981017"><ele>8.0</ele><time>2026-04-28T09:54:35.045Z</time></trkpt><trkpt lat="35.5191183" lon="-5.9980417"><ele>8.0</ele><time>2026-04-28T09:54:36.044Z</time></trkpt><trkpt lat="35.5193067" lon="-5.9979683"><ele>8.0</ele><time>2026-04-28T09:54:37.045Z</time></trkpt><trkpt lat="35.5194933" lon="-5.99789"><ele>8.0</ele><time>2026-04-28T09:54:38.045Z</time></trkpt><trkpt lat="35.51968" lon="-5.9978017"><ele>6.333333333333333</ele><time>2026-04-28T09:54:39.044Z</time></trkpt><trkpt lat="35.519865" lon="-5.99771"><ele>4.666666666666666</ele><time>2026-04-28T09:54:40.045Z</time></trkpt><trkpt lat="35.52005" lon="-5.9976183"><ele>3.0</ele><time>2026-04-28T09:54:41.045Z</time></trkpt><trkpt lat="35.5202317" lon="-5.9975217"><ele>5.666666666666666</ele><time>2026-04-28T09:54:42.045Z</time></trkpt><trkpt lat="35.52041" lon="-5.99743"><ele>8.333333333333332</ele><time>2026-04-28T09:54:43.045Z</time></trkpt><trkpt lat="35.5205917" lon="-5.9973333"><ele>11.0</ele><time>2026-04-28T09:54:44.045Z</time></trkpt><trkpt lat="35.52077" lon="-5.997245"><ele>11.0</ele><time>2026-04-28T09:54:45.045Z</time></trkpt><trkpt lat="35.520955" lon="-5.9971483"><ele>11.0</ele><time>2026-04-28T09:54:46.045Z</time></trkpt><trkpt lat="35.5211367" lon="-5.9970533"><ele>11.0</ele><time>2026-04-28T09:54:47.045Z</time></trkpt><trkpt lat="35.5213217" lon="-5.9969617"><ele>13.666666666666666</ele><time>2026-04-28T09:54:48.045Z</time></trkpt><trkpt lat="35.5215083" lon="-5.9968683"><ele>16.333333333333332</ele><time>2026-04-28T09:54:49.044Z</time></trkpt><trkpt lat="35.5216933" lon="-5.9967867"><ele>19.0</ele><time>2026-04-28T09:54:50.044Z</time></trkpt><trkpt lat="35.521885" lon="-5.9967117"><ele>21.666666666666664</ele><time>2026-04-28T09:54:51.044Z</time></trkpt><trkpt lat="35.5220783" lon="-5.9966533"><ele>24.333333333333332</ele><time>2026-04-28T09:54:52.045Z</time></trkpt><trkpt lat="35.522275" lon="-5.9966183"><ele>27.0</ele><time>2026-04-28T09:54:53.045Z</time></trkpt><trkpt lat="35.522475" lon="-5.9965983"><ele>27.0</ele><time>2026-04-28T09:54:54.045Z</time></trkpt><trkpt lat="35.5226733" lon="-5.99659"><ele>27.0</ele><time>2026-04-28T09:54:55.045Z</time></trkpt><trkpt lat="35.5228717" lon="-5.9965933"><ele>27.0</ele><time>2026-04-28T09:54:56.044Z</time></trkpt><trkpt lat="35.5230717" lon="-5.9966133"><ele>28.333333333333336</ele><time>2026-04-28T09:54:57.045Z</time></trkpt><trkpt lat="35.523265" lon="-5.9966467"><ele>29.666666666666668</ele><time>2026-04-28T09:54:58.045Z</time></trkpt><trkpt lat="35.5234467" lon="-5.9966817"><ele>31.0</ele><time>2026-04-28T09:54:59.045Z</time></trkpt><trkpt lat="35.5236167" lon="-5.99673"><ele>33.333333333333336</ele><time>2026-04-28T09:55:00.045Z</time></trkpt><trkpt lat="35.5237817" lon="-5.996785"><ele>35.666666666666664</ele><time>2026-04-28T09:55:01.045Z</time></trkpt><trkpt lat="35.5239433" lon="-5.9968467"><ele>38.0</ele><time>2026-04-28T09:55:02.045Z</time></trkpt><trkpt lat="35.5240917" lon="-5.996915"><ele>38.0</ele><time>2026-04-28T09:55:03.045Z</time></trkpt><trkpt lat="35.52424" lon="-5.9969833"><ele>38.0</ele><time>2026-04-28T09:55:04.045Z</time></trkpt><trkpt lat="35.524375" lon="-5.9970583"><ele>38.0</ele><time>2026-04-28T09:55:05.045Z</time></trkpt><trkpt lat="35.5245067" lon="-5.9971283"><ele>38.0</ele><time>2026-04-28T09:55:06.045Z</time></trkpt><trkpt lat="35.5246333" lon="-5.9971983"><ele>38.0</ele><time>2026-04-28T09:55:07.045Z</time></trkpt><trkpt lat="35.5247567" lon="-5.997265"><ele>38.0</ele><time>2026-04-28T09:55:08.045Z</time></trkpt><trkpt lat="35.5248867" lon="-5.9973383"><ele>38.0</ele><time>2026-04-28T09:55:09.045Z</time></trkpt><trkpt lat="35.5250117" lon="-5.9974117"><ele>38.0</ele><time>2026-04-28T09:55:10.045Z</time></trkpt><trkpt lat="35.5251367" lon="-5.9974833"><ele>38.0</ele><time>2026-04-28T09:55:11.044Z</time></trkpt><trkpt lat="35.52526" lon="-5.9975533"><ele>38.0</ele><time>2026-04-28T09:55:12.045Z</time></trkpt><trkpt lat="35.5253783" lon="-5.997615"><ele>38.0</ele><time>2026-04-28T09:55:13.045Z</time></trkpt><trkpt lat="35.525495" lon="-5.997675"><ele>38.25</ele><time>2026-04-28T09:55:14.045Z</time></trkpt><trkpt lat="35.5256117" lon="-5.9977417"><ele>38.5</ele><time>2026-04-28T09:55:15.045Z</time></trkpt><trkpt lat="35.52573" lon="-5.997805"><ele>38.75</ele><time>2026-04-28T09:55:16.045Z</time></trkpt><trkpt lat="35.5258433" lon="-5.9978683"><ele>39.0</ele><time>2026-04-28T09:55:17.045Z</time></trkpt><trkpt lat="35.5259483" lon="-5.9979283"><ele>39.0</ele><time>2026-04-28T09:55:18.045Z</time></trkpt><trkpt lat="35.5260517" lon="-5.9979883"><ele>39.0</ele><time>2026-04-28T09:55:19.045Z</time></trkpt><trkpt lat="35.5261583" lon="-5.9980483"><ele>39.0</ele><time>2026-04-28T09:55:20.045Z</time></trkpt><trkpt lat="35.5262667" lon="-5.9981033"><ele>39.0</ele><time>2026-04-28T09:55:21.045Z</time></trkpt><trkpt lat="35.526365" lon="-5.9981517"><ele>38.5</ele><time>2026-04-28T09:55:22.045Z</time></trkpt><trkpt lat="35.5264517" lon="-5.998195"><ele>38.0</ele><time>2026-04-28T09:55:23.045Z</time></trkpt><trkpt lat="35.5265367" lon="-5.9982383"><ele>37.5</ele><time>2026-04-28T09:55:24.045Z</time></trkpt><trkpt lat="35.5266167" lon="-5.9982717"><ele>37.0</ele><time>2026-04-28T09:55:25.045Z</time></trkpt><trkpt lat="35.5266967" lon="-5.998305"><ele>36.5</ele><time>2026-04-28T09:55:26.045Z</time></trkpt><trkpt lat="35.5267733" lon="-5.9983433"><ele>36.0</ele><time>2026-04-28T09:55:27.045Z</time></trkpt><trkpt lat="35.5268617" lon="-5.9983783"><ele>36.0</ele><time>2026-04-28T09:55:28.045Z</time></trkpt><trkpt lat="35.5269567" lon="-5.998415"><ele>36.0</ele><time>2026-04-28T09:55:29.045Z</time></trkpt><trkpt lat="35.5270433" lon="-5.9984583"><ele>36.0</ele><time>2026-04-28T09:55:30.045Z</time></trkpt><trkpt lat="35.5271283" lon="-5.9984967"><ele>36.0</ele><time>2026-04-28T09:55:31.045Z</time></trkpt><trkpt lat="35.5272117" lon="-5.99853"><ele>36.0</ele><time>2026-04-28T09:55:32.044Z</time></trkpt><trkpt lat="35.5272917" lon="-5.99856"><ele>36.0</ele><time>2026-04-28T09:55:33.045Z</time></trkpt><trkpt lat="35.52737" lon="-5.9985867"><ele>36.0</ele><time>2026-04-28T09:55:34.045Z</time></trkpt><trkpt lat="35.5274517" lon="-5.9986117"><ele>36.0</ele><time>2026-04-28T09:55:35.045Z</time></trkpt><trkpt lat="35.52753" lon="-5.9986367"><ele>36.0</ele><time>2026-04-28T09:55:36.045Z</time></trkpt><trkpt lat="35.527615" lon="-5.9986617"><ele>36.0</ele><time>2026-04-28T09:55:37.045Z</time></trkpt><trkpt lat="35.5276983" lon="-5.9986883"><ele>36.0</ele><time>2026-04-28T09:55:38.045Z</time></trkpt><trkpt lat="35.5277817" lon="-5.9987133"><ele>36.0</ele><time>2026-04-28T09:55:39.045Z</time></trkpt><trkpt lat="35.5278717" lon="-5.998735"><ele>36.0</ele><time>2026-04-28T09:55:40.045Z</time></trkpt><trkpt lat="35.5279667" lon="-5.9987583"><ele>36.0</ele><time>2026-04-28T09:55:41.045Z</time></trkpt><trkpt lat="35.52806" lon="-5.99879"><ele>36.0</ele><time>2026-04-28T09:55:42.045Z</time></trkpt><trkpt lat="35.528155" lon="-5.9988183"><ele>36.0</ele><time>2026-04-28T09:55:43.045Z</time></trkpt><trkpt lat="35.528265" lon="-5.99885"><ele>36.0</ele><time>2026-04-28T09:55:44.045Z</time></trkpt><trkpt lat="35.5283817" lon="-5.9988833"><ele>36.0</ele><time>2026-04-28T09:55:45.045Z</time></trkpt><trkpt lat="35.5284967" lon="-5.9989133"><ele>36.0</ele><time>2026-04-28T09:55:46.045Z</time></trkpt><trkpt lat="35.528615" lon="-5.998945"><ele>36.0</ele><time>2026-04-28T09:55:47.044Z</time></trkpt><trkpt lat="35.5287333" lon="-5.9989767"><ele>36.25</ele><time>2026-04-28T09:55:48.044Z</time></trkpt><trkpt lat="35.5288483" lon="-5.9990017"><ele>36.5</ele><time>2026-04-28T09:55:49.044Z</time></trkpt><trkpt lat="35.5289617" lon="-5.999025"><ele>36.75</ele><time>2026-04-28T09:55:50.044Z</time></trkpt><trkpt lat="35.52907" lon="-5.9990433"><ele>37.0</ele><time>2026-04-28T09:55:51.044Z</time></trkpt><trkpt lat="35.529185" lon="-5.9990617"><ele>37.0</ele><time>2026-04-28T09:55:52.043Z</time></trkpt><trkpt lat="35.5292983" lon="-5.9990767"><ele>37.0</ele><time>2026-04-28T09:55:53.044Z</time></trkpt><trkpt lat="35.5294183" lon="-5.9990883"><ele>37.0</ele><time>2026-04-28T09:55:54.044Z</time></trkpt><trkpt lat="35.5295333" lon="-5.999095"><ele>37.0</ele><time>2026-04-28T09:55:55.044Z</time></trkpt><trkpt lat="35.529655" lon="-5.99911"><ele>37.25</ele><time>2026-04-28T09:55:56.044Z</time></trkpt><trkpt lat="35.5297733" lon="-5.9991183"><ele>37.5</ele><time>2026-04-28T09:55:57.043Z</time></trkpt><trkpt lat="35.5298967" lon="-5.9991283"><ele>37.75</ele><time>2026-04-28T09:55:58.044Z</time></trkpt><trkpt lat="35.5300167" lon="-5.9991367"><ele>38.0</ele><time>2026-04-28T09:55:59.044Z</time></trkpt><trkpt lat="35.53015" lon="-5.999145"><ele>38.0</ele><time>2026-04-28T09:56:00.044Z</time></trkpt><trkpt lat="35.5302983" lon="-5.9991517"><ele>38.0</ele><time>2026-04-28T09:56:01.044Z</time></trkpt><trkpt lat="35.530465" lon="-5.99915"><ele>38.0</ele><time>2026-04-28T09:56:02.044Z</time></trkpt><trkpt lat="35.5306367" lon="-5.99914"><ele>39.0</ele><time>2026-04-28T09:56:03.044Z</time></trkpt><trkpt lat="35.5308233" lon="-5.9991233"><ele>40.0</ele><time>2026-04-28T09:56:04.044Z</time></trkpt><trkpt lat="35.5310183" lon="-5.9991033"><ele>41.0</ele><time>2026-04-28T09:56:05.044Z</time></trkpt><trkpt lat="35.53122" lon="-5.9990833"><ele>39.666666666666664</ele><time>2026-04-28T09:56:06.044Z</time></trkpt><trkpt lat="35.5314267" lon="-5.9990617"><ele>38.333333333333336</ele><time>2026-04-28T09:56:07.044Z</time></trkpt><trkpt lat="35.5316283" lon="-5.9990483"><ele>37.0</ele><time>2026-04-28T09:56:08.044Z</time></trkpt><trkpt lat="35.5318233" lon="-5.999025"><ele>37.0</ele><time>2026-04-28T09:56:09.044Z</time></trkpt><trkpt lat="35.5320167" lon="-5.9990067"><ele>37.0</ele><time>2026-04-28T09:56:10.044Z</time></trkpt><trkpt lat="35.5321967" lon="-5.9989917"><ele>37.0</ele><time>2026-04-28T09:56:11.044Z</time></trkpt><trkpt lat="35.5323733" lon="-5.9989717"><ele>36.333333333333336</ele><time>2026-04-28T09:56:12.044Z</time></trkpt><trkpt lat="35.5325433" lon="-5.998935"><ele>35.666666666666664</ele><time>2026-04-28T09:56:13.044Z</time></trkpt><trkpt lat="35.5327" lon="-5.9989017"><ele>35.0</ele><time>2026-04-28T09:56:14.043Z</time></trkpt><trkpt lat="35.532855" lon="-5.99888"><ele>35.666666666666664</ele><time>2026-04-28T09:56:15.044Z</time></trkpt><trkpt lat="35.5330067" lon="-5.9988483"><ele>36.333333333333336</ele><time>2026-04-28T09:56:16.044Z</time></trkpt><trkpt lat="35.5331633" lon="-5.9988083"><ele>37.0</ele><time>2026-04-28T09:56:17.044Z</time></trkpt><trkpt lat="35.5333167" lon="-5.9987717"><ele>37.0</ele><time>2026-04-28T09:56:18.044Z</time></trkpt><trkpt lat="35.5334683" lon="-5.9987383"><ele>37.0</ele><time>2026-04-28T09:56:19.043Z</time></trkpt><trkpt lat="35.5336217" lon="-5.9986967"><ele>37.0</ele><time>2026-04-28T09:56:20.044Z</time></trkpt><trkpt lat="35.5337817" lon="-5.9986533"><ele>38.0</ele><time>2026-04-28T09:56:21.044Z</time></trkpt><trkpt lat="35.533935" lon="-5.9986067"><ele>39.0</ele><time>2026-04-28T09:56:22.044Z</time></trkpt><trkpt lat="35.53409" lon="-5.9985583"><ele>40.0</ele><time>2026-04-28T09:56:23.043Z</time></trkpt><trkpt lat="35.5342467" lon="-5.99851"><ele>40.0</ele><time>2026-04-28T09:56:24.044Z</time></trkpt><trkpt lat="35.5344033" lon="-5.99847"><ele>40.0</ele><time>2026-04-28T09:56:25.044Z</time></trkpt><trkpt lat="35.53456" lon="-5.9984167"><ele>40.0</ele><time>2026-04-28T09:56:26.044Z</time></trkpt><trkpt lat="35.5347167" lon="-5.998365"><ele>41.66666666666667</ele><time>2026-04-28T09:56:27.044Z</time></trkpt><trkpt lat="35.5348767" lon="-5.9983183"><ele>43.333333333333336</ele><time>2026-04-28T09:56:28.044Z</time></trkpt><trkpt lat="35.5350317" lon="-5.9982617"><ele>45.0</ele><time>2026-04-28T09:56:29.044Z</time></trkpt><trkpt lat="35.5351883" lon="-5.99821"><ele>45.0</ele><time>2026-04-28T09:56:30.044Z</time></trkpt><trkpt lat="35.535335" lon="-5.9981533"><ele>45.0</ele><time>2026-04-28T09:56:31.044Z</time></trkpt><trkpt lat="35.535475" lon="-5.9981"><ele>45.0</ele><time>2026-04-28T09:56:32.044Z</time></trkpt><trkpt lat="35.535615" lon="-5.9980533"><ele>45.0</ele><time>2026-04-28T09:56:33.044Z</time></trkpt><trkpt lat="35.535745" lon="-5.9980033"><ele>44.25</ele><time>2026-04-28T09:56:34.044Z</time></trkpt><trkpt lat="35.5358717" lon="-5.99795"><ele>43.5</ele><time>2026-04-28T09:56:35.044Z</time></trkpt><trkpt lat="35.535995" lon="-5.9979"><ele>42.75</ele><time>2026-04-28T09:56:36.044Z</time></trkpt><trkpt lat="35.5361167" lon="-5.9978433"><ele>42.0</ele><time>2026-04-28T09:56:37.044Z</time></trkpt><trkpt lat="35.5362367" lon="-5.9977833"><ele>41.5</ele><time>2026-04-28T09:56:38.044Z</time></trkpt><trkpt lat="35.53636" lon="-5.9977333"><ele>41.0</ele><time>2026-04-28T09:56:39.044Z</time></trkpt><trkpt lat="35.5364967" lon="-5.9976833"><ele>40.5</ele><time>2026-04-28T09:56:40.044Z</time></trkpt><trkpt lat="35.5366433" lon="-5.9976183"><ele>40.0</ele><time>2026-04-28T09:56:41.044Z</time></trkpt><trkpt lat="35.5368" lon="-5.997545"><ele>39.66666666666667</ele><time>2026-04-28T09:56:42.044Z</time></trkpt><trkpt lat="35.536965" lon="-5.9974533"><ele>39.333333333333336</ele><time>2026-04-28T09:56:43.044Z</time></trkpt><trkpt lat="35.5371267" lon="-5.99736"><ele>39.0</ele><time>2026-04-28T09:56:44.043Z</time></trkpt><trkpt lat="35.5372817" lon="-5.997265"><ele>39.0</ele><time>2026-04-28T09:56:45.044Z</time></trkpt><trkpt lat="35.537435" lon="-5.9971767"><ele>39.0</ele><time>2026-04-28T09:56:46.044Z</time></trkpt><trkpt lat="35.5375783" lon="-5.9970933"><ele>39.0</ele><time>2026-04-28T09:56:47.044Z</time></trkpt><trkpt lat="35.5377167" lon="-5.99701"><ele>39.0</ele><time>2026-04-28T09:56:48.044Z</time></trkpt><trkpt lat="35.53785" lon="-5.9969267"><ele>39.0</ele><time>2026-04-28T09:56:49.044Z</time></trkpt><trkpt lat="35.5379817" lon="-5.996845"><ele>39.0</ele><time>2026-04-28T09:56:50.044Z</time></trkpt><trkpt lat="35.5381117" lon="-5.99676"><ele>39.0</ele><time>2026-04-28T09:56:51.044Z</time></trkpt><trkpt lat="35.538245" lon="-5.9966817"><ele>39.25</ele><time>2026-04-28T09:56:52.044Z</time></trkpt><trkpt lat="35.5383767" lon="-5.9966033"><ele>39.5</ele><time>2026-04-28T09:56:53.044Z</time></trkpt><trkpt lat="35.5385067" lon="-5.9965233"><ele>39.75</ele><time>2026-04-28T09:56:54.044Z</time></trkpt><trkpt lat="35.5386367" lon="-5.9964433"><ele>40.0</ele><time>2026-04-28T09:56:55.044Z</time></trkpt><trkpt lat="35.53877" lon="-5.9963617"><ele>41.25</ele><time>2026-04-28T09:56:56.044Z</time></trkpt><trkpt lat="35.5388983" lon="-5.99629"><ele>42.5</ele><time>2026-04-28T09:56:57.043Z</time></trkpt><trkpt lat="35.5390183" lon="-5.9962167"><ele>43.75</ele><time>2026-04-28T09:56:58.043Z</time></trkpt><trkpt lat="35.5391367" lon="-5.9961467"><ele>45.0</ele><time>2026-04-28T09:56:59.043Z</time></trkpt><trkpt lat="35.53925" lon="-5.996075"><ele>45.0</ele><time>2026-04-28T09:57:00.044Z</time></trkpt><trkpt lat="35.5393617" lon="-5.9960083"><ele>45.0</ele><time>2026-04-28T09:57:01.044Z</time></trkpt><trkpt lat="35.5394767" lon="-5.9959417"><ele>45.0</ele><time>2026-04-28T09:57:02.044Z</time></trkpt><trkpt lat="35.5395833" lon="-5.9958767"><ele>45.0</ele><time>2026-04-28T09:57:03.044Z</time></trkpt><trkpt lat="35.5396867" lon="-5.9958167"><ele>45.0</ele><time>2026-04-28T09:57:04.044Z</time></trkpt><trkpt lat="35.53978" lon="-5.995755"><ele>45.0</ele><time>2026-04-28T09:57:05.044Z</time></trkpt><trkpt lat="35.539875" lon="-5.9956933"><ele>45.0</ele><time>2026-04-28T09:57:06.043Z</time></trkpt><trkpt lat="35.5399667" lon="-5.99564"><ele>45.0</ele><time>2026-04-28T09:57:07.043Z</time></trkpt><trkpt lat="35.5400583" lon="-5.9955933"><ele>45.0</ele><time>2026-04-28T09:57:08.044Z</time></trkpt><trkpt lat="35.5401467" lon="-5.9955417"><ele>45.0</ele><time>2026-04-28T09:57:09.044Z</time></trkpt><trkpt lat="35.540235" lon="-5.995495"><ele>45.0</ele><time>2026-04-28T09:57:10.044Z</time></trkpt><trkpt lat="35.540325" lon="-5.9954483"><ele>45.0</ele><time>2026-04-28T09:57:11.044Z</time></trkpt><trkpt lat="35.540415" lon="-5.995405"><ele>45.0</ele><time>2026-04-28T09:57:12.044Z</time></trkpt><trkpt lat="35.5405083" lon="-5.99536"><ele>45.0</ele><time>2026-04-28T09:57:13.044Z</time></trkpt><trkpt lat="35.540605" lon="-5.99531"><ele>45.0</ele><time>2026-04-28T09:57:14.044Z</time></trkpt><trkpt lat="35.5407033" lon="-5.9952567"><ele>45.0</ele><time>2026-04-28T09:57:15.044Z</time></trkpt><trkpt lat="35.540805" lon="-5.9952"><ele>45.0</ele><time>2026-04-28T09:57:16.044Z</time></trkpt><trkpt lat="35.5409117" lon="-5.9951433"><ele>45.0</ele><time>2026-04-28T09:57:17.044Z</time></trkpt><trkpt lat="35.54102" lon="-5.99509"><ele>45.0</ele><time>2026-04-28T09:57:18.044Z</time></trkpt><trkpt lat="35.5411333" lon="-5.99505"><ele>45.0</ele><time>2026-04-28T09:57:19.044Z</time></trkpt><trkpt lat="35.5412467" lon="-5.9950083"><ele>45.0</ele><time>2026-04-28T09:57:20.044Z</time></trkpt><trkpt lat="35.5413583" lon="-5.9949617"><ele>45.0</ele><time>2026-04-28T09:57:21.044Z</time></trkpt><trkpt lat="35.54147" lon="-5.9949183"><ele>44.25</ele><time>2026-04-28T09:57:22.044Z</time></trkpt><trkpt lat="35.541585" lon="-5.99488"><ele>43.5</ele><time>2026-04-28T09:57:23.044Z</time></trkpt><trkpt lat="35.5417017" lon="-5.99484"><ele>42.75</ele><time>2026-04-28T09:57:24.044Z</time></trkpt><trkpt lat="35.5418283" lon="-5.9948017"><ele>42.0</ele><time>2026-04-28T09:57:25.044Z</time></trkpt><trkpt lat="35.5419533" lon="-5.994765"><ele>42.0</ele><time>2026-04-28T09:57:26.044Z</time></trkpt><trkpt lat="35.542085" lon="-5.9947333"><ele>42.0</ele><time>2026-04-28T09:57:27.044Z</time></trkpt><trkpt lat="35.54222" lon="-5.994705"><ele>42.0</ele><time>2026-04-28T09:57:28.044Z</time></trkpt><trkpt lat="35.5423467" lon="-5.99468"><ele>42.0</ele><time>2026-04-28T09:57:29.043Z</time></trkpt><trkpt lat="35.542465" lon="-5.9946567"><ele>42.0</ele><time>2026-04-28T09:57:30.044Z</time></trkpt><trkpt lat="35.542585" lon="-5.99463"><ele>42.0</ele><time>2026-04-28T09:57:31.044Z</time></trkpt><trkpt lat="35.54271" lon="-5.9946067"><ele>42.0</ele><time>2026-04-28T09:57:32.044Z</time></trkpt><trkpt lat="35.5428417" lon="-5.9945833"><ele>42.0</ele><time>2026-04-28T09:57:33.044Z</time></trkpt><trkpt lat="35.5429767" lon="-5.994565"><ele>40.75</ele><time>2026-04-28T09:57:34.044Z</time></trkpt><trkpt lat="35.54311" lon="-5.9945433"><ele>39.5</ele><time>2026-04-28T09:57:35.044Z</time></trkpt><trkpt lat="35.543245" lon="-5.994525"><ele>38.25</ele><time>2026-04-28T09:57:36.044Z</time></trkpt><trkpt lat="35.5433783" lon="-5.9945133"><ele>37.0</ele><time>2026-04-28T09:57:37.043Z</time></trkpt><trkpt lat="35.5435067" lon="-5.994505"><ele>37.0</ele><time>2026-04-28T09:57:38.044Z</time></trkpt><trkpt lat="35.5436367" lon="-5.9944983"><ele>37.0</ele><time>2026-04-28T09:57:39.044Z</time></trkpt><trkpt lat="35.5437633" lon="-5.994495"><ele>37.0</ele><time>2026-04-28T09:57:40.044Z</time></trkpt><trkpt lat="35.5438967" lon="-5.9944867"><ele>37.0</ele><time>2026-04-28T09:57:41.044Z</time></trkpt><trkpt lat="35.5440417" lon="-5.99449"><ele>36.333333333333336</ele><time>2026-04-28T09:57:42.044Z</time></trkpt><trkpt lat="35.544205" lon="-5.9945017"><ele>35.666666666666664</ele><time>2026-04-28T09:57:43.044Z</time></trkpt><trkpt lat="35.54439" lon="-5.99451"><ele>35.0</ele><time>2026-04-28T09:57:44.044Z</time></trkpt><trkpt lat="35.54458" lon="-5.99452"><ele>33.666666666666664</ele><time>2026-04-28T09:57:45.044Z</time></trkpt><trkpt lat="35.5447567" lon="-5.994535"><ele>32.333333333333336</ele><time>2026-04-28T09:57:46.044Z</time></trkpt><trkpt lat="35.5449383" lon="-5.9945517"><ele>31.0</ele><time>2026-04-28T09:57:47.044Z</time></trkpt><trkpt lat="35.5451183" lon="-5.994575"><ele>31.0</ele><time>2026-04-28T09:57:48.044Z</time></trkpt><trkpt lat="35.5452967" lon="-5.9945967"><ele>31.0</ele><time>2026-04-28T09:57:49.044Z</time></trkpt><trkpt lat="35.545475" lon="-5.99463"><ele>31.0</ele><time>2026-04-28T09:57:50.044Z</time></trkpt><trkpt lat="35.5456483" lon="-5.9946633"><ele>31.666666666666668</ele><time>2026-04-28T09:57:51.044Z</time></trkpt><trkpt lat="35.545825" lon="-5.9946983"><ele>32.333333333333336</ele><time>2026-04-28T09:57:52.044Z</time></trkpt><trkpt lat="35.5459967" lon="-5.9947333"><ele>33.0</ele><time>2026-04-28T09:57:53.044Z</time></trkpt><trkpt lat="35.5461683" lon="-5.9947683"><ele>34.666666666666664</ele><time>2026-04-28T09:57:54.044Z</time></trkpt><trkpt lat="35.5463417" lon="-5.9947983"><ele>36.33333333333333</ele><time>2026-04-28T09:57:55.044Z</time></trkpt><trkpt lat="35.546515" lon="-5.99483"><ele>38.0</ele><time>2026-04-28T09:57:56.044Z</time></trkpt><trkpt lat="35.5466917" lon="-5.99487"><ele>38.0</ele><time>2026-04-28T09:57:57.044Z</time></trkpt><trkpt lat="35.5468667" lon="-5.9949117"><ele>38.0</ele><time>2026-04-28T09:57:58.044Z</time></trkpt><trkpt lat="35.5470433" lon="-5.994945"><ele>38.0</ele><time>2026-04-28T09:57:59.044Z</time></trkpt><trkpt lat="35.5472067" lon="-5.9949833"><ele>35.666666666666664</ele><time>2026-04-28T09:58:00.044Z</time></trkpt><trkpt lat="35.5473667" lon="-5.995025"><ele>33.333333333333336</ele><time>2026-04-28T09:58:01.043Z</time></trkpt><trkpt lat="35.5475267" lon="-5.9950517"><ele>31.0</ele><time>2026-04-28T09:58:02.043Z</time></trkpt><trkpt lat="35.547685" lon="-5.9950833"><ele>31.0</ele><time>2026-04-28T09:58:03.044Z</time></trkpt><trkpt lat="35.5478467" lon="-5.9951117"><ele>31.0</ele><time>2026-04-28T09:58:04.044Z</time></trkpt><trkpt lat="35.5480083" lon="-5.9951417"><ele>31.0</ele><time>2026-04-28T09:58:05.044Z</time></trkpt><trkpt lat="35.5481717" lon="-5.99518"><ele>30.333333333333336</ele><time>2026-04-28T09:58:06.044Z</time></trkpt><trkpt lat="35.5483367" lon="-5.99522"><ele>29.666666666666664</ele><time>2026-04-28T09:58:07.044Z</time></trkpt><trkpt lat="35.5485083" lon="-5.9952583"><ele>29.0</ele><time>2026-04-28T09:58:08.044Z</time></trkpt><trkpt lat="35.5486783" lon="-5.9952917"><ele>28.666666666666664</ele><time>2026-04-28T09:58:09.044Z</time></trkpt><trkpt lat="35.54885" lon="-5.9953217"><ele>28.333333333333336</ele><time>2026-04-28T09:58:10.044Z</time></trkpt><trkpt lat="35.5490217" lon="-5.9953533"><ele>28.0</ele><time>2026-04-28T09:58:11.044Z</time></trkpt><trkpt lat="35.5491867" lon="-5.9953833"><ele>28.0</ele><time>2026-04-28T09:58:12.044Z</time></trkpt><trkpt lat="35.5493483" lon="-5.9954117"><ele>28.0</ele><time>2026-04-28T09:58:13.044Z</time></trkpt><trkpt lat="35.5495067" lon="-5.9954317"><ele>28.0</ele><time>2026-04-28T09:58:14.044Z</time></trkpt><trkpt lat="35.5496667" lon="-5.9954533"><ele>27.666666666666668</ele><time>2026-04-28T09:58:15.044Z</time></trkpt><trkpt lat="35.5498283" lon="-5.995475"><ele>27.333333333333336</ele><time>2026-04-28T09:58:16.044Z</time></trkpt><trkpt lat="35.5499933" lon="-5.9955033"><ele>27.0</ele><time>2026-04-28T09:58:17.044Z</time></trkpt><trkpt lat="35.5501567" lon="-5.9955233"><ele>27.0</ele><time>2026-04-28T09:58:18.044Z</time></trkpt><trkpt lat="35.55032" lon="-5.9955467"><ele>27.0</ele><time>2026-04-28T09:58:19.044Z</time></trkpt><trkpt lat="35.550485" lon="-5.995565"><ele>27.0</ele><time>2026-04-28T09:58:20.044Z</time></trkpt><trkpt lat="35.5506467" lon="-5.9955783"><ele>26.0</ele><time>2026-04-28T09:58:21.043Z</time></trkpt><trkpt lat="35.5508083" lon="-5.995595"><ele>25.0</ele><time>2026-04-28T09:58:22.044Z</time></trkpt><trkpt lat="35.5509783" lon="-5.9956083"><ele>24.0</ele><time>2026-04-28T09:58:23.044Z</time></trkpt><trkpt lat="35.5511417" lon="-5.9956233"><ele>22.333333333333332</ele><time>2026-04-28T09:58:24.044Z</time></trkpt><trkpt lat="35.5513" lon="-5.9956317"><ele>20.666666666666664</ele><time>2026-04-28T09:58:25.044Z</time></trkpt><trkpt lat="35.5514567" lon="-5.9956367"><ele>19.0</ele><time>2026-04-28T09:58:26.044Z</time></trkpt><trkpt lat="35.55161" lon="-5.99564"><ele>19.0</ele><time>2026-04-28T09:58:27.044Z</time></trkpt><trkpt lat="35.55176" lon="-5.9956467"><ele>19.0</ele><time>2026-04-28T09:58:28.044Z</time></trkpt><trkpt lat="35.551905" lon="-5.99565"><ele>19.0</ele><time>2026-04-28T09:58:29.044Z</time></trkpt><trkpt lat="35.552055" lon="-5.9956433"><ele>19.0</ele><time>2026-04-28T09:58:30.044Z</time></trkpt><trkpt lat="35.5522083" lon="-5.9956433"><ele>18.333333333333332</ele><time>2026-04-28T09:58:31.044Z</time></trkpt><trkpt lat="35.55236" lon="-5.9956417"><ele>17.666666666666668</ele><time>2026-04-28T09:58:32.044Z</time></trkpt><trkpt lat="35.55251" lon="-5.9956367"><ele>17.0</ele><time>2026-04-28T09:58:33.044Z</time></trkpt><trkpt lat="35.5526583" lon="-5.9956333"><ele>17.0</ele><time>2026-04-28T09:58:34.043Z</time></trkpt><trkpt lat="35.5528083" lon="-5.9956267"><ele>17.0</ele><time>2026-04-28T09:58:35.044Z</time></trkpt><trkpt lat="35.5529633" lon="-5.995615"><ele>17.0</ele><time>2026-04-28T09:58:36.044Z</time></trkpt><trkpt lat="35.553115" lon="-5.9956033"><ele>16.0</ele><time>2026-04-28T09:58:37.044Z</time></trkpt><trkpt lat="35.5532633" lon="-5.9955967"><ele>15.0</ele><time>2026-04-28T09:58:38.043Z</time></trkpt><trkpt lat="35.5534083" lon="-5.995585"><ele>14.0</ele><time>2026-04-28T09:58:39.043Z</time></trkpt><trkpt lat="35.5535617" lon="-5.9955717"><ele>13.0</ele><time>2026-04-28T09:58:40.044Z</time></trkpt><trkpt lat="35.5537133" lon="-5.9955517"><ele>12.75</ele><time>2026-04-28T09:58:41.044Z</time></trkpt><trkpt lat="35.5538633" lon="-5.99553"><ele>12.5</ele><time>2026-04-28T09:58:42.044Z</time></trkpt><trkpt lat="35.5540133" lon="-5.99551"><ele>12.25</ele><time>2026-04-28T09:58:43.044Z</time></trkpt><trkpt lat="35.55416" lon="-5.9954917"><ele>12.0</ele><time>2026-04-28T09:58:44.044Z</time></trkpt><trkpt lat="35.5543067" lon="-5.9954717"><ele>12.0</ele><time>2026-04-28T09:58:45.044Z</time></trkpt><trkpt lat="35.5544567" lon="-5.9954483"><ele>12.0</ele><time>2026-04-28T09:58:46.044Z</time></trkpt><trkpt lat="35.5546033" lon="-5.9954267"><ele>12.0</ele><time>2026-04-28T09:58:47.044Z</time></trkpt><trkpt lat="35.55475" lon="-5.9953967"><ele>12.0</ele><time>2026-04-28T09:58:48.044Z</time></trkpt><trkpt lat="35.5548967" lon="-5.9953733"><ele>11.333333333333334</ele><time>2026-04-28T09:58:49.044Z</time></trkpt><trkpt lat="35.55505" lon="-5.995345"><ele>10.666666666666668</ele><time>2026-04-28T09:58:50.044Z</time></trkpt><trkpt lat="35.5552" lon="-5.9953183"><ele>10.0</ele><time>2026-04-28T09:58:51.044Z</time></trkpt><trkpt lat="35.5553583" lon="-5.9952917"><ele>10.0</ele><time>2026-04-28T09:58:52.043Z</time></trkpt><trkpt lat="35.555515" lon="-5.9952633"><ele>10.0</ele><time>2026-04-28T09:58:53.043Z</time></trkpt><trkpt lat="35.555675" lon="-5.9952417"><ele>10.0</ele><time>2026-04-28T09:58:54.043Z</time></trkpt><trkpt lat="35.5558333" lon="-5.9952183"><ele>10.0</ele><time>2026-04-28T09:58:55.044Z</time></trkpt><trkpt lat="35.5559983" lon="-5.9951917"><ele>10.0</ele><time>2026-04-28T09:58:56.044Z</time></trkpt><trkpt lat="35.55616" lon="-5.99516"><ele>10.0</ele><time>2026-04-28T09:58:57.044Z</time></trkpt><trkpt lat="35.5563267" lon="-5.9951217"><ele>9.0</ele><time>2026-04-28T09:58:58.044Z</time></trkpt><trkpt lat="35.556495" lon="-5.995085"><ele>8.0</ele><time>2026-04-28T09:58:59.044Z</time></trkpt><trkpt lat="35.5566567" lon="-5.9950483"><ele>7.0</ele><time>2026-04-28T09:59:00.044Z</time></trkpt><trkpt lat="35.5568233" lon="-5.9950133"><ele>7.333333333333334</ele><time>2026-04-28T09:59:01.044Z</time></trkpt><trkpt lat="35.55699" lon="-5.99498"><ele>7.666666666666666</ele><time>2026-04-28T09:59:02.044Z</time></trkpt><trkpt lat="35.55716" lon="-5.9949567"><ele>8.0</ele><time>2026-04-28T09:59:03.044Z</time></trkpt><trkpt lat="35.5573183" lon="-5.9949283"><ele>8.0</ele><time>2026-04-28T09:59:04.044Z</time></trkpt><trkpt lat="35.5574783" lon="-5.9949033"><ele>8.0</ele><time>2026-04-28T09:59:05.044Z</time></trkpt><trkpt lat="35.5576417" lon="-5.994875"><ele>8.0</ele><time>2026-04-28T09:59:06.044Z</time></trkpt><trkpt lat="35.5578" lon="-5.9948483"><ele>8.666666666666666</ele><time>2026-04-28T09:59:07.044Z</time></trkpt><trkpt lat="35.5579617" lon="-5.9948133"><ele>9.333333333333334</ele><time>2026-04-28T09:59:08.044Z</time></trkpt><trkpt lat="35.55812" lon="-5.9947817"><ele>10.0</ele><time>2026-04-28T09:59:09.044Z</time></trkpt><trkpt lat="35.5582783" lon="-5.9947517"><ele>10.0</ele><time>2026-04-28T09:59:10.044Z</time></trkpt><trkpt lat="35.5584383" lon="-5.9947217"><ele>10.0</ele><time>2026-04-28T09:59:11.044Z</time></trkpt><trkpt lat="35.558595" lon="-5.99469"><ele>10.0</ele><time>2026-04-28T09:59:12.044Z</time></trkpt><trkpt lat="35.55876" lon="-5.9946583"><ele>9.333333333333334</ele><time>2026-04-28T09:59:13.044Z</time></trkpt><trkpt lat="35.558915" lon="-5.9946283"><ele>8.666666666666666</ele><time>2026-04-28T09:59:14.044Z</time></trkpt><trkpt lat="35.5590733" lon="-5.9946017"><ele>8.0</ele><time>2026-04-28T09:59:15.044Z</time></trkpt><trkpt lat="35.5592367" lon="-5.9945783"><ele>8.0</ele><time>2026-04-28T09:59:16.044Z</time></trkpt><trkpt lat="35.5593983" lon="-5.9945517"><ele>8.0</ele><time>2026-04-28T09:59:17.044Z</time></trkpt><trkpt lat="35.5595533" lon="-5.9945233"><ele>8.0</ele><time>2026-04-28T09:59:18.043Z</time></trkpt><trkpt lat="35.55971" lon="-5.9944967"><ele>7.666666666666666</ele><time>2026-04-28T09:59:19.044Z</time></trkpt><trkpt lat="35.5598683" lon="-5.9944683"><ele>7.333333333333334</ele><time>2026-04-28T09:59:20.044Z</time></trkpt><trkpt lat="35.5600233" lon="-5.9944367"><ele>7.0</ele><time>2026-04-28T09:59:21.044Z</time></trkpt><trkpt lat="35.5601833" lon="-5.9944117"><ele>7.0</ele><time>2026-04-28T09:59:22.044Z</time></trkpt><trkpt lat="35.560345" lon="-5.99438"><ele>7.0</ele><time>2026-04-28T09:59:23.044Z</time></trkpt><trkpt lat="35.5605033" lon="-5.9943483"><ele>7.0</ele><time>2026-04-28T09:59:24.044Z</time></trkpt><trkpt lat="35.5606633" lon="-5.994315"><ele>7.0</ele><time>2026-04-28T09:59:25.044Z</time></trkpt><trkpt lat="35.5608267" lon="-5.9942867"><ele>7.0</ele><time>2026-04-28T09:59:26.044Z</time></trkpt><trkpt lat="35.5609817" lon="-5.99426"><ele>7.0</ele><time>2026-04-28T09:59:27.044Z</time></trkpt><trkpt lat="35.5611383" lon="-5.994235"><ele>7.0</ele><time>2026-04-28T09:59:28.043Z</time></trkpt><trkpt lat="35.5612967" lon="-5.994205"><ele>7.0</ele><time>2026-04-28T09:59:29.044Z</time></trkpt><trkpt lat="35.5614483" lon="-5.99417"><ele>7.0</ele><time>2026-04-28T09:59:30.044Z</time></trkpt><trkpt lat="35.5616017" lon="-5.9941417"><ele>7.0</ele><time>2026-04-28T09:59:31.044Z</time></trkpt><trkpt lat="35.561755" lon="-5.9941117"><ele>7.0</ele><time>2026-04-28T09:59:32.044Z</time></trkpt><trkpt lat="35.5619133" lon="-5.9940817"><ele>7.0</ele><time>2026-04-28T09:59:33.044Z</time></trkpt><trkpt lat="35.56207" lon="-5.9940517"><ele>7.0</ele><time>2026-04-28T09:59:34.044Z</time></trkpt><trkpt lat="35.562225" lon="-5.9940217"><ele>7.0</ele><time>2026-04-28T09:59:35.044Z</time></trkpt><trkpt lat="35.5623833" lon="-5.9939883"><ele>7.0</ele><time>2026-04-28T09:59:36.044Z</time></trkpt><trkpt lat="35.5625417" lon="-5.99396"><ele>7.0</ele><time>2026-04-28T09:59:37.043Z</time></trkpt><trkpt lat="35.5626983" lon="-5.9939283"><ele>7.0</ele><time>2026-04-28T09:59:38.044Z</time></trkpt><trkpt lat="35.5628567" lon="-5.9938917"><ele>7.0</ele><time>2026-04-28T09:59:39.044Z</time></trkpt><trkpt lat="35.5630083" lon="-5.9938517"><ele>8.0</ele><time>2026-04-28T09:59:40.044Z</time></trkpt><trkpt lat="35.5631683" lon="-5.9938133"><ele>9.0</ele><time>2026-04-28T09:59:41.044Z</time></trkpt><trkpt lat="35.5633233" lon="-5.993775"><ele>10.0</ele><time>2026-04-28T09:59:42.044Z</time></trkpt><trkpt lat="35.5634783" lon="-5.9937367"><ele>10.0</ele><time>2026-04-28T09:59:43.044Z</time></trkpt><trkpt lat="35.5636317" lon="-5.9936933"><ele>10.0</ele><time>2026-04-28T09:59:44.044Z</time></trkpt><trkpt lat="35.5637867" lon="-5.9936417"><ele>10.0</ele><time>2026-04-28T09:59:45.044Z</time></trkpt><trkpt lat="35.56394" lon="-5.9935917"><ele>10.0</ele><time>2026-04-28T09:59:46.044Z</time></trkpt><trkpt lat="35.5640983" lon="-5.993545"><ele>10.0</ele><time>2026-04-28T09:59:47.044Z</time></trkpt><trkpt lat="35.5642567" lon="-5.993495"><ele>10.0</ele><time>2026-04-28T09:59:48.044Z</time></trkpt><trkpt lat="35.5644133" lon="-5.9934483"><ele>10.333333333333334</ele><time>2026-04-28T09:59:49.044Z</time></trkpt><trkpt lat="35.5645683" lon="-5.993405"><ele>10.666666666666666</ele><time>2026-04-28T09:59:50.044Z</time></trkpt><trkpt lat="35.5647233" lon="-5.993355"><ele>11.0</ele><time>2026-04-28T09:59:51.044Z</time></trkpt><trkpt lat="35.5648817" lon="-5.9932983"><ele>11.0</ele><time>2026-04-28T09:59:52.044Z</time></trkpt><trkpt lat="35.5650417" lon="-5.9932417"><ele>11.0</ele><time>2026-04-28T09:59:53.043Z</time></trkpt><trkpt lat="35.5651983" lon="-5.9931833"><ele>11.0</ele><time>2026-04-28T09:59:54.044Z</time></trkpt><trkpt lat="35.5653533" lon="-5.9931283"><ele>10.666666666666666</ele><time>2026-04-28T09:59:55.044Z</time></trkpt><trkpt lat="35.56551" lon="-5.9930717"><ele>10.333333333333334</ele><time>2026-04-28T09:59:56.044Z</time></trkpt><trkpt lat="35.5656683" lon="-5.9930117"><ele>10.0</ele><time>2026-04-28T09:59:57.044Z</time></trkpt><trkpt lat="35.56583" lon="-5.9929517"><ele>10.0</ele><time>2026-04-28T09:59:58.044Z</time></trkpt><trkpt lat="35.5659883" lon="-5.992885"><ele>10.0</ele><time>2026-04-28T09:59:59.044Z</time></trkpt><trkpt lat="35.56615" lon="-5.9928183"><ele>10.0</ele><time>2026-04-28T10:00:00.044Z</time></trkpt><trkpt lat="35.5663133" lon="-5.9927483"><ele>10.333333333333334</ele><time>2026-04-28T10:00:01.044Z</time></trkpt><trkpt lat="35.5664717" lon="-5.9926867"><ele>10.666666666666666</ele><time>2026-04-28T10:00:02.044Z</time></trkpt><trkpt lat="35.5666333" lon="-5.9926183"><ele>11.0</ele><time>2026-04-28T10:00:03.044Z</time></trkpt><trkpt lat="35.56678" lon="-5.99255"><ele>11.0</ele><time>2026-04-28T10:00:04.044Z</time></trkpt><trkpt lat="35.5669317" lon="-5.9924833"><ele>11.0</ele><time>2026-04-28T10:00:05.044Z</time></trkpt><trkpt lat="35.567085" lon="-5.9924083"><ele>11.0</ele><time>2026-04-28T10:00:06.044Z</time></trkpt><trkpt lat="35.56724" lon="-5.9923367"><ele>11.0</ele><time>2026-04-28T10:00:07.044Z</time></trkpt><trkpt lat="35.5673917" lon="-5.9922717"><ele>11.0</ele><time>2026-04-28T10:00:08.044Z</time></trkpt><trkpt lat="35.5675467" lon="-5.9922017"><ele>11.0</ele><time>2026-04-28T10:00:09.044Z</time></trkpt><trkpt lat="35.5676983" lon="-5.9921267"><ele>11.0</ele><time>2026-04-28T10:00:10.043Z</time></trkpt><trkpt lat="35.56785" lon="-5.9920483"><ele>11.0</ele><time>2026-04-28T10:00:11.044Z</time></trkpt><trkpt lat="35.5679967" lon="-5.9919783"><ele>11.0</ele><time>2026-04-28T10:00:12.044Z</time></trkpt><trkpt lat="35.5681417" lon="-5.9919033"><ele>11.333333333333332</ele><time>2026-04-28T10:00:13.044Z</time></trkpt><trkpt lat="35.5682833" lon="-5.9918317"><ele>11.666666666666666</ele><time>2026-04-28T10:00:14.043Z</time></trkpt><trkpt lat="35.5684283" lon="-5.9917583"><ele>12.0</ele><time>2026-04-28T10:00:15.044Z</time></trkpt><trkpt lat="35.56857" lon="-5.9916833"><ele>11.333333333333334</ele><time>2026-04-28T10:00:16.044Z</time></trkpt><trkpt lat="35.5687083" lon="-5.9916117"><ele>10.666666666666668</ele><time>2026-04-28T10:00:17.044Z</time></trkpt><trkpt lat="35.56885" lon="-5.99153"><ele>10.0</ele><time>2026-04-28T10:00:18.044Z</time></trkpt><trkpt lat="35.56899" lon="-5.9914483"><ele>10.0</ele><time>2026-04-28T10:00:19.043Z</time></trkpt><trkpt lat="35.569125" lon="-5.99137"><ele>10.0</ele><time>2026-04-28T10:00:20.044Z</time></trkpt><trkpt lat="35.5692583" lon="-5.9912933"><ele>10.0</ele><time>2026-04-28T10:00:21.044Z</time></trkpt><trkpt lat="35.5693917" lon="-5.9912167"><ele>10.0</ele><time>2026-04-28T10:00:22.044Z</time></trkpt><trkpt lat="35.5695283" lon="-5.9911383"><ele>9.25</ele><time>2026-04-28T10:00:23.044Z</time></trkpt><trkpt lat="35.5696667" lon="-5.9910667"><ele>8.5</ele><time>2026-04-28T10:00:24.044Z</time></trkpt><trkpt lat="35.5698017" lon="-5.990985"><ele>7.75</ele><time>2026-04-28T10:00:25.044Z</time></trkpt><trkpt lat="35.5699317" lon="-5.9909067"><ele>7.0</ele><time>2026-04-28T10:00:26.044Z</time></trkpt><trkpt lat="35.570055" lon="-5.990825"><ele>6.75</ele><time>2026-04-28T10:00:27.044Z</time></trkpt><trkpt lat="35.5701717" lon="-5.9907483"><ele>6.5</ele><time>2026-04-28T10:00:28.044Z</time></trkpt><trkpt lat="35.570285" lon="-5.99068"><ele>6.25</ele><time>2026-04-28T10:00:29.044Z</time></trkpt><trkpt lat="35.57039" lon="-5.990605"><ele>6.0</ele><time>2026-04-28T10:00:30.044Z</time></trkpt><trkpt lat="35.5704983" lon="-5.990535"><ele>5.25</ele><time>2026-04-28T10:00:31.044Z</time></trkpt><trkpt lat="35.5706033" lon="-5.9904667"><ele>4.5</ele><time>2026-04-28T10:00:32.044Z</time></trkpt><trkpt lat="35.5707083" lon="-5.9904"><ele>3.75</ele><time>2026-04-28T10:00:33.043Z</time></trkpt><trkpt lat="35.5708083" lon="-5.9903317"><ele>3.0</ele><time>2026-04-28T10:00:34.044Z</time></trkpt><trkpt lat="35.5709083" lon="-5.9902683"><ele>3.0</ele><time>2026-04-28T10:00:35.043Z</time></trkpt><trkpt lat="35.57101" lon="-5.9901983"><ele>3.0</ele><time>2026-04-28T10:00:36.044Z</time></trkpt><trkpt lat="35.57111" lon="-5.9901333"><ele>3.0</ele><time>2026-04-28T10:00:37.044Z</time></trkpt><trkpt lat="35.5712083" lon="-5.990065"><ele>3.0</ele><time>2026-04-28T10:00:38.044Z</time></trkpt><trkpt lat="35.57131" lon="-5.9899967"><ele>3.25</ele><time>2026-04-28T10:00:39.043Z</time></trkpt><trkpt lat="35.571405" lon="-5.9899267"><ele>3.5</ele><time>2026-04-28T10:00:40.044Z</time></trkpt><trkpt lat="35.5715083" lon="-5.989855"><ele>3.75</ele><time>2026-04-28T10:00:41.044Z</time></trkpt><trkpt lat="35.57161" lon="-5.9897867"><ele>4.0</ele><time>2026-04-28T10:00:42.044Z</time></trkpt><trkpt lat="35.5717117" lon="-5.9897167"><ele>4.0</ele><time>2026-04-28T10:00:43.044Z</time></trkpt><trkpt lat="35.5718183" lon="-5.9896467"><ele>4.0</ele><time>2026-04-28T10:00:44.044Z</time></trkpt><trkpt lat="35.5719267" lon="-5.9895783"><ele>4.0</ele><time>2026-04-28T10:00:45.044Z</time></trkpt><trkpt lat="35.5720317" lon="-5.989515"><ele>4.0</ele><time>2026-04-28T10:00:46.044Z</time></trkpt><trkpt lat="35.57214" lon="-5.98944"><ele>4.0</ele><time>2026-04-28T10:00:47.044Z</time></trkpt><trkpt lat="35.572245" lon="-5.9893683"><ele>4.0</ele><time>2026-04-28T10:00:48.044Z</time></trkpt><trkpt lat="35.5723517" lon="-5.9892967"><ele>4.0</ele><time>2026-04-28T10:00:49.043Z</time></trkpt><trkpt lat="35.572465" lon="-5.9892233"><ele>4.0</ele><time>2026-04-28T10:00:50.044Z</time></trkpt><trkpt lat="35.5725767" lon="-5.9891483"><ele>4.0</ele><time>2026-04-28T10:00:51.044Z</time></trkpt><trkpt lat="35.5726883" lon="-5.9890717"><ele>4.0</ele><time>2026-04-28T10:00:52.044Z</time></trkpt><trkpt lat="35.5728067" lon="-5.9889917"><ele>4.0</ele><time>2026-04-28T10:00:53.044Z</time></trkpt><trkpt lat="35.5729217" lon="-5.9889167"><ele>4.0</ele><time>2026-04-28T10:00:54.044Z</time></trkpt><trkpt lat="35.5730333" lon="-5.988835"><ele>4.5</ele><time>2026-04-28T10:00:55.044Z</time></trkpt><trkpt lat="35.57315" lon="-5.98876"><ele>5.0</ele><time>2026-04-28T10:00:56.044Z</time></trkpt><trkpt lat="35.5732667" lon="-5.9886833"><ele>5.5</ele><time>2026-04-28T10:00:57.044Z</time></trkpt><trkpt lat="35.5733883" lon="-5.9886017"><ele>6.0</ele><time>2026-04-28T10:00:58.044Z</time></trkpt><trkpt lat="35.573505" lon="-5.9885267"><ele>6.0</ele><time>2026-04-28T10:00:59.044Z</time></trkpt><trkpt lat="35.5736217" lon="-5.9884483"><ele>6.0</ele><time>2026-04-28T10:01:00.044Z</time></trkpt><trkpt lat="35.57374" lon="-5.9883667"><ele>6.0</ele><time>2026-04-28T10:01:01.044Z</time></trkpt><trkpt lat="35.57386" lon="-5.9882917"><ele>6.0</ele><time>2026-04-28T10:01:02.044Z</time></trkpt><trkpt lat="35.5739767" lon="-5.9882083"><ele>6.25</ele><time>2026-04-28T10:01:03.044Z</time></trkpt><trkpt lat="35.5741017" lon="-5.9881283"><ele>6.5</ele><time>2026-04-28T10:01:04.043Z</time></trkpt><trkpt lat="35.5742267" lon="-5.9880433"><ele>6.75</ele><time>2026-04-28T10:01:05.044Z</time></trkpt><trkpt lat="35.5743517" lon="-5.98796"><ele>7.0</ele><time>2026-04-28T10:01:06.044Z</time></trkpt><trkpt lat="35.5744783" lon="-5.987875"><ele>6.0</ele><time>2026-04-28T10:01:07.044Z</time></trkpt><trkpt lat="35.5746" lon="-5.9877983"><ele>5.0</ele><time>2026-04-28T10:01:08.044Z</time></trkpt><trkpt lat="35.5747167" lon="-5.987725"><ele>4.0</ele><time>2026-04-28T10:01:09.044Z</time></trkpt><trkpt lat="35.57483" lon="-5.987645"><ele>3.0</ele><time>2026-04-28T10:01:10.044Z</time></trkpt><trkpt lat="35.5749433" lon="-5.98757"><ele>2.75</ele><time>2026-04-28T10:01:11.044Z</time></trkpt><trkpt lat="35.57506" lon="-5.98749"><ele>2.5</ele><time>2026-04-28T10:01:12.044Z</time></trkpt><trkpt lat="35.5751783" lon="-5.9874133"><ele>2.25</ele><time>2026-04-28T10:01:13.044Z</time></trkpt><trkpt lat="35.5752933" lon="-5.9873383"><ele>2.0</ele><time>2026-04-28T10:01:14.044Z</time></trkpt><trkpt lat="35.5754017" lon="-5.9872617"><ele>1.5</ele><time>2026-04-28T10:01:15.044Z</time></trkpt><trkpt lat="35.5755167" lon="-5.987185"><ele>1.0</ele><time>2026-04-28T10:01:16.044Z</time></trkpt><trkpt lat="35.5756317" lon="-5.98711"><ele>0.5</ele><time>2026-04-28T10:01:17.044Z</time></trkpt><trkpt lat="35.5757517" lon="-5.9870317"><ele>0.0</ele><time>2026-04-28T10:01:18.044Z</time></trkpt><trkpt lat="35.575875" lon="-5.986955"><ele>0.0</ele><time>2026-04-28T10:01:19.044Z</time></trkpt><trkpt lat="35.576" lon="-5.9868717"><ele>0.0</ele><time>2026-04-28T10:01:20.044Z</time></trkpt><trkpt lat="35.5761267" lon="-5.98678"><ele>0.0</ele><time>2026-04-28T10:01:21.044Z</time></trkpt><trkpt lat="35.5762583" lon="-5.9866933"><ele>0.0</ele><time>2026-04-28T10:01:22.044Z</time></trkpt><trkpt lat="35.5763933" lon="-5.986605"><ele>0.6666666666666666</ele><time>2026-04-28T10:01:23.044Z</time></trkpt><trkpt lat="35.5765317" lon="-5.9865183"><ele>1.3333333333333333</ele><time>2026-04-28T10:01:24.044Z</time></trkpt><trkpt lat="35.57667" lon="-5.98643"><ele>2.0</ele><time>2026-04-28T10:01:25.044Z</time></trkpt><trkpt lat="35.57681" lon="-5.98634"><ele>2.0</ele><time>2026-04-28T10:01:26.044Z</time></trkpt><trkpt lat="35.5769433" lon="-5.986245"><ele>2.0</ele><time>2026-04-28T10:01:27.044Z</time></trkpt><trkpt lat="35.5770733" lon="-5.9861533"><ele>2.0</ele><time>2026-04-28T10:01:28.044Z</time></trkpt><trkpt lat="35.5772033" lon="-5.9860667"><ele>2.0</ele><time>2026-04-28T10:01:29.044Z</time></trkpt><trkpt lat="35.577335" lon="-5.9859867"><ele>2.0</ele><time>2026-04-28T10:01:30.044Z</time></trkpt><trkpt lat="35.57747" lon="-5.9858967"><ele>2.0</ele><time>2026-04-28T10:01:31.044Z</time></trkpt><trkpt lat="35.5776017" lon="-5.9858017"><ele>2.333333333333333</ele><time>2026-04-28T10:01:32.044Z</time></trkpt><trkpt lat="35.57773" lon="-5.9857133"><ele>2.6666666666666665</ele><time>2026-04-28T10:01:33.044Z</time></trkpt><trkpt lat="35.577865" lon="-5.98563"><ele>3.0</ele><time>2026-04-28T10:01:34.044Z</time></trkpt><trkpt lat="35.5780067" lon="-5.9855383"><ele>3.0</ele><time>2026-04-28T10:01:35.044Z</time></trkpt><trkpt lat="35.5781567" lon="-5.9854483"><ele>3.0</ele><time>2026-04-28T10:01:36.044Z</time></trkpt><trkpt lat="35.5783083" lon="-5.98537"><ele>3.0</ele><time>2026-04-28T10:01:37.044Z</time></trkpt><trkpt lat="35.5784617" lon="-5.9853"><ele>3.0</ele><time>2026-04-28T10:01:38.044Z</time></trkpt><trkpt lat="35.578625" lon="-5.9852417"><ele>3.0</ele><time>2026-04-28T10:01:39.044Z</time></trkpt><trkpt lat="35.5787933" lon="-5.9852"><ele>3.0</ele><time>2026-04-28T10:01:40.044Z</time></trkpt><trkpt lat="35.578965" lon="-5.9851617"><ele>2.6666666666666665</ele><time>2026-04-28T10:01:41.044Z</time></trkpt><trkpt lat="35.5791383" lon="-5.985145"><ele>2.333333333333333</ele><time>2026-04-28T10:01:42.044Z</time></trkpt><trkpt lat="35.5793117" lon="-5.985135"><ele>2.0</ele><time>2026-04-28T10:01:43.044Z</time></trkpt><trkpt lat="35.579485" lon="-5.9851433"><ele>1.6666666666666665</ele><time>2026-04-28T10:01:44.043Z</time></trkpt><trkpt lat="35.5796567" lon="-5.9851567"><ele>1.3333333333333333</ele><time>2026-04-28T10:01:45.044Z</time></trkpt><trkpt lat="35.5798333" lon="-5.9851933"><ele>1.0</ele><time>2026-04-28T10:01:46.044Z</time></trkpt><trkpt lat="35.5800083" lon="-5.98525"><ele>1.0</ele><time>2026-04-28T10:01:47.044Z</time></trkpt><trkpt lat="35.5801767" lon="-5.9853117"><ele>1.0</ele><time>2026-04-28T10:01:48.044Z</time></trkpt><trkpt lat="35.5803383" lon="-5.985385"><ele>1.0</ele><time>2026-04-28T10:01:49.044Z</time></trkpt><trkpt lat="35.580485" lon="-5.98547"><ele>1.0</ele><time>2026-04-28T10:01:50.044Z</time></trkpt><trkpt lat="35.5806283" lon="-5.9855633"><ele>1.0</ele><time>2026-04-28T10:01:51.044Z</time></trkpt><trkpt lat="35.5807567" lon="-5.9856533"><ele>1.0</ele><time>2026-04-28T10:01:52.044Z</time></trkpt><trkpt lat="35.58088" lon="-5.9857483"><ele>1.0</ele><time>2026-04-28T10:01:53.044Z</time></trkpt><trkpt lat="35.580995" lon="-5.9858417"><ele>1.0</ele><time>2026-04-28T10:01:54.044Z</time></trkpt><trkpt lat="35.5811083" lon="-5.985925"><ele>1.0</ele><time>2026-04-28T10:01:55.044Z</time></trkpt><trkpt lat="35.5812183" lon="-5.98601"><ele>1.0</ele><time>2026-04-28T10:01:56.043Z</time></trkpt><trkpt lat="35.5813217" lon="-5.9860917"><ele>0.75</ele><time>2026-04-28T10:01:57.044Z</time></trkpt><trkpt lat="35.5814283" lon="-5.9861783"><ele>0.5</ele><time>2026-04-28T10:01:58.043Z</time></trkpt><trkpt lat="35.58153" lon="-5.9862617"><ele>0.25</ele><time>2026-04-28T10:01:59.044Z</time></trkpt><trkpt lat="35.5816333" lon="-5.9863467"><ele>0.0</ele><time>2026-04-28T10:02:00.044Z</time></trkpt><trkpt lat="35.5817383" lon="-5.9864283"><ele>0.0</ele><time>2026-04-28T10:02:01.044Z</time></trkpt><trkpt lat="35.5818433" lon="-5.9865067"><ele>0.0</ele><time>2026-04-28T10:02:02.044Z</time></trkpt><trkpt lat="35.5819433" lon="-5.9865867"><ele>0.0</ele><time>2026-04-28T10:02:03.044Z</time></trkpt><trkpt lat="35.5820433" lon="-5.98667"><ele>0.0</ele><time>2026-04-28T10:02:04.044Z</time></trkpt><trkpt lat="35.58214" lon="-5.98675"><ele>0.0</ele><time>2026-04-28T10:02:05.044Z</time></trkpt><trkpt lat="35.5822383" lon="-5.9868317"><ele>0.0</ele><time>2026-04-28T10:02:06.044Z</time></trkpt><trkpt lat="35.5823333" lon="-5.9869117"><ele>0.0</ele><time>2026-04-28T10:02:07.044Z</time></trkpt><trkpt lat="35.5824333" lon="-5.9869917"><ele>0.0</ele><time>2026-04-28T10:02:08.044Z</time></trkpt><trkpt lat="35.582535" lon="-5.987075"><ele>0.0</ele><time>2026-04-28T10:02:09.044Z</time></trkpt><trkpt lat="35.582635" lon="-5.9871583"><ele>0.0</ele><time>2026-04-28T10:02:10.044Z</time></trkpt><trkpt lat="35.582735" lon="-5.9872367"><ele>0.0</ele><time>2026-04-28T10:02:11.044Z</time></trkpt><trkpt lat="35.582835" lon="-5.9873217"><ele>0.0</ele><time>2026-04-28T10:02:12.044Z</time></trkpt><trkpt lat="35.58294" lon="-5.9874033"><ele>0.0</ele><time>2026-04-28T10:02:13.044Z</time></trkpt><trkpt lat="35.5830433" lon="-5.9874817"><ele>0.0</ele><time>2026-04-28T10:02:14.044Z</time></trkpt><trkpt lat="35.583145" lon="-5.987565"><ele>0.0</ele><time>2026-04-28T10:02:15.044Z</time></trkpt><trkpt lat="35.583245" lon="-5.987645"><ele>0.0</ele><time>2026-04-28T10:02:16.044Z</time></trkpt><trkpt lat="35.5833417" lon="-5.9877283"><ele>0.0</ele><time>2026-04-28T10:02:17.044Z</time></trkpt><trkpt lat="35.5834417" lon="-5.9878067"><ele>0.0</ele><time>2026-04-28T10:02:18.044Z</time></trkpt><trkpt lat="35.58354" lon="-5.9878833"><ele>0.0</ele><time>2026-04-28T10:02:19.044Z</time></trkpt><trkpt lat="35.5836467" lon="-5.9879683"><ele>0.0</ele><time>2026-04-28T10:02:20.044Z</time></trkpt><trkpt lat="35.5837583" lon="-5.9880533"><ele>0.5</ele><time>2026-04-28T10:02:21.044Z</time></trkpt><trkpt lat="35.5838667" lon="-5.98814"><ele>1.0</ele><time>2026-04-28T10:02:22.044Z</time></trkpt><trkpt lat="35.583975" lon="-5.98823"><ele>1.5</ele><time>2026-04-28T10:02:23.044Z</time></trkpt><trkpt lat="35.584085" lon="-5.9883167"><ele>2.0</ele><time>2026-04-28T10:02:24.044Z</time></trkpt><trkpt lat="35.5842" lon="-5.9883983"><ele>3.0</ele><time>2026-04-28T10:02:25.044Z</time></trkpt><trkpt lat="35.5843233" lon="-5.9884733"><ele>4.0</ele><time>2026-04-28T10:02:26.044Z</time></trkpt><trkpt lat="35.5844467" lon="-5.9885517"><ele>5.0</ele><time>2026-04-28T10:02:27.044Z</time></trkpt><trkpt lat="35.5845783" lon="-5.9886233"><ele>6.0</ele><time>2026-04-28T10:02:28.044Z</time></trkpt><trkpt lat="35.584705" lon="-5.98869"><ele>6.25</ele><time>2026-04-28T10:02:29.044Z</time></trkpt><trkpt lat="35.5848317" lon="-5.9887617"><ele>6.5</ele><time>2026-04-28T10:02:30.044Z</time></trkpt><trkpt lat="35.5849633" lon="-5.98883"><ele>6.75</ele><time>2026-04-28T10:02:31.044Z</time></trkpt><trkpt lat="35.5850917" lon="-5.9888967"><ele>7.0</ele><time>2026-04-28T10:02:32.043Z</time></trkpt><trkpt lat="35.585225" lon="-5.98896"><ele>7.0</ele><time>2026-04-28T10:02:33.044Z</time></trkpt><trkpt lat="35.5853633" lon="-5.98903"><ele>7.0</ele><time>2026-04-28T10:02:34.044Z</time></trkpt><trkpt lat="35.5855" lon="-5.989085"><ele>7.0</ele><time>2026-04-28T10:02:35.044Z</time></trkpt><trkpt lat="35.5856383" lon="-5.9891333"><ele>7.0</ele><time>2026-04-28T10:02:36.044Z</time></trkpt><trkpt lat="35.5857767" lon="-5.9891817"><ele>6.75</ele><time>2026-04-28T10:02:37.044Z</time></trkpt><trkpt lat="35.5859183" lon="-5.9892267"><ele>6.5</ele><time>2026-04-28T10:02:38.044Z</time></trkpt><trkpt lat="35.58606" lon="-5.989275"><ele>6.25</ele><time>2026-04-28T10:02:39.044Z</time></trkpt><trkpt lat="35.586205" lon="-5.989325"><ele>6.0</ele><time>2026-04-28T10:02:40.044Z</time></trkpt><trkpt lat="35.5863467" lon="-5.9893633"><ele>6.0</ele><time>2026-04-28T10:02:41.044Z</time></trkpt><trkpt lat="35.5864967" lon="-5.9893967"><ele>6.0</ele><time>2026-04-28T10:02:42.044Z</time></trkpt><trkpt lat="35.5866433" lon="-5.9894233"><ele>6.0</ele><time>2026-04-28T10:02:43.043Z</time></trkpt><trkpt lat="35.5867933" lon="-5.9894483"><ele>6.0</ele><time>2026-04-28T10:02:44.044Z</time></trkpt><trkpt lat="35.586945" lon="-5.9894717"><ele>6.0</ele><time>2026-04-28T10:02:45.044Z</time></trkpt><trkpt lat="35.5870917" lon="-5.989495"><ele>6.0</ele><time>2026-04-28T10:02:46.044Z</time></trkpt><trkpt lat="35.58724" lon="-5.9895083"><ele>6.0</ele><time>2026-04-28T10:02:47.043Z</time></trkpt><trkpt lat="35.5873917" lon="-5.9895183"><ele>6.0</ele><time>2026-04-28T10:02:48.044Z</time></trkpt><trkpt lat="35.58755" lon="-5.989525"><ele>6.0</ele><time>2026-04-28T10:02:49.044Z</time></trkpt><trkpt lat="35.5877083" lon="-5.989525"><ele>6.0</ele><time>2026-04-28T10:02:50.044Z</time></trkpt><trkpt lat="35.5878633" lon="-5.9895283"><ele>6.333333333333334</ele><time>2026-04-28T10:02:51.043Z</time></trkpt><trkpt lat="35.58802" lon="-5.989515"><ele>6.666666666666667</ele><time>2026-04-28T10:02:52.044Z</time></trkpt><trkpt lat="35.58817" lon="-5.989505"><ele>7.0</ele><time>2026-04-28T10:02:53.044Z</time></trkpt><trkpt lat="35.588325" lon="-5.9894917"><ele>7.0</ele><time>2026-04-28T10:02:54.044Z</time></trkpt><trkpt lat="35.588475" lon="-5.98947"><ele>7.0</ele><time>2026-04-28T10:02:55.044Z</time></trkpt><trkpt lat="35.5886317" lon="-5.98945"><ele>7.0</ele><time>2026-04-28T10:02:56.044Z</time></trkpt><trkpt lat="35.5887967" lon="-5.989425"><ele>6.666666666666667</ele><time>2026-04-28T10:02:57.044Z</time></trkpt><trkpt lat="35.5889517" lon="-5.9893933"><ele>6.333333333333334</ele><time>2026-04-28T10:02:58.044Z</time></trkpt><trkpt lat="35.5891167" lon="-5.98936"><ele>6.0</ele><time>2026-04-28T10:02:59.044Z</time></trkpt><trkpt lat="35.58928" lon="-5.989315"><ele>6.0</ele><time>2026-04-28T10:03:00.044Z</time></trkpt><trkpt lat="35.5894433" lon="-5.989275"><ele>6.0</ele><time>2026-04-28T10:03:01.044Z</time></trkpt><trkpt lat="35.5896117" lon="-5.9892267"><ele>6.0</ele><time>2026-04-28T10:03:02.044Z</time></trkpt><trkpt lat="35.5897783" lon="-5.9891733"><ele>5.666666666666667</ele><time>2026-04-28T10:03:03.044Z</time></trkpt><trkpt lat="35.5899417" lon="-5.98912"><ele>5.333333333333334</ele><time>2026-04-28T10:03:04.043Z</time></trkpt><trkpt lat="35.59011" lon="-5.9890733"><ele>5.0</ele><time>2026-04-28T10:03:05.044Z</time></trkpt><trkpt lat="35.5902683" lon="-5.9890183"><ele>4.666666666666667</ele><time>2026-04-28T10:03:06.044Z</time></trkpt><trkpt lat="35.5904233" lon="-5.9889633"><ele>4.333333333333333</ele><time>2026-04-28T10:03:07.044Z</time></trkpt><trkpt lat="35.590585" lon="-5.98891"><ele>4.0</ele><time>2026-04-28T10:03:08.044Z</time></trkpt><trkpt lat="35.5907483" lon="-5.9888617"><ele>4.0</ele><time>2026-04-28T10:03:09.044Z</time></trkpt><trkpt lat="35.5909167" lon="-5.9888083"><ele>4.0</ele><time>2026-04-28T10:03:10.044Z</time></trkpt><trkpt lat="35.5910783" lon="-5.988765"><ele>4.0</ele><time>2026-04-28T10:03:11.044Z</time></trkpt><trkpt lat="35.5912467" lon="-5.9887167"><ele>5.0</ele><time>2026-04-28T10:03:12.044Z</time></trkpt><trkpt lat="35.5914183" lon="-5.9886683"><ele>6.0</ele><time>2026-04-28T10:03:13.044Z</time></trkpt><trkpt lat="35.591585" lon="-5.9886167"><ele>7.0</ele><time>2026-04-28T10:03:14.044Z</time></trkpt><trkpt lat="35.59175" lon="-5.9885667"><ele>7.0</ele><time>2026-04-28T10:03:15.044Z</time></trkpt><trkpt lat="35.591915" lon="-5.9885117"><ele>7.0</ele><time>2026-04-28T10:03:16.044Z</time></trkpt><trkpt lat="35.5920667" lon="-5.9884617"><ele>7.0</ele><time>2026-04-28T10:03:17.044Z</time></trkpt><trkpt lat="35.5922217" lon="-5.9884133"><ele>7.333333333333334</ele><time>2026-04-28T10:03:18.044Z</time></trkpt><trkpt lat="35.5923783" lon="-5.98837"><ele>7.666666666666666</ele><time>2026-04-28T10:03:19.044Z</time></trkpt><trkpt lat="35.5925333" lon="-5.988325"><ele>8.0</ele><time>2026-04-28T10:03:20.044Z</time></trkpt><trkpt lat="35.592695" lon="-5.98827"><ele>7.666666666666666</ele><time>2026-04-28T10:03:21.043Z</time></trkpt><trkpt lat="35.5928567" lon="-5.9882217"><ele>7.333333333333334</ele><time>2026-04-28T10:03:22.044Z</time></trkpt><trkpt lat="35.593015" lon="-5.9881767"><ele>7.0</ele><time>2026-04-28T10:03:23.043Z</time></trkpt><trkpt lat="35.5931683" lon="-5.9881283"><ele>7.0</ele><time>2026-04-28T10:03:24.044Z</time></trkpt><trkpt lat="35.59332" lon="-5.9880767"><ele>7.0</ele><time>2026-04-28T10:03:25.044Z</time></trkpt><trkpt lat="35.593475" lon="-5.9880267"><ele>7.0</ele><time>2026-04-28T10:03:26.043Z</time></trkpt><trkpt lat="35.5936267" lon="-5.9879733"><ele>7.333333333333334</ele><time>2026-04-28T10:03:27.044Z</time></trkpt><trkpt lat="35.5937767" lon="-5.9879267"><ele>7.666666666666666</ele><time>2026-04-28T10:03:28.044Z</time></trkpt><trkpt lat="35.5939217" lon="-5.9878783"><ele>8.0</ele><time>2026-04-28T10:03:29.044Z</time></trkpt><trkpt lat="35.594065" lon="-5.98784"><ele>8.0</ele><time>2026-04-28T10:03:30.044Z</time></trkpt><trkpt lat="35.5942067" lon="-5.9877967"><ele>8.0</ele><time>2026-04-28T10:03:31.044Z</time></trkpt><trkpt lat="35.5943417" lon="-5.987755"><ele>8.0</ele><time>2026-04-28T10:03:32.044Z</time></trkpt><trkpt lat="35.594475" lon="-5.9877133"><ele>8.0</ele><time>2026-04-28T10:03:33.044Z</time></trkpt><trkpt lat="35.5946067" lon="-5.9876667"><ele>8.0</ele><time>2026-04-28T10:03:34.044Z</time></trkpt><trkpt lat="35.59474" lon="-5.9876267"><ele>8.0</ele><time>2026-04-28T10:03:35.044Z</time></trkpt><trkpt lat="35.594865" lon="-5.9875883"><ele>8.0</ele><time>2026-04-28T10:03:36.044Z</time></trkpt><trkpt lat="35.594995" lon="-5.98755"><ele>8.0</ele><time>2026-04-28T10:03:37.044Z</time></trkpt><trkpt lat="35.595125" lon="-5.9875033"><ele>8.0</ele><time>2026-04-28T10:03:38.043Z</time></trkpt><trkpt lat="35.5952633" lon="-5.9874533"><ele>8.0</ele><time>2026-04-28T10:03:39.044Z</time></trkpt><trkpt lat="35.5954067" lon="-5.9874083"><ele>8.0</ele><time>2026-04-28T10:03:40.044Z</time></trkpt><trkpt lat="35.5955483" lon="-5.987365"><ele>8.0</ele><time>2026-04-28T10:03:41.044Z</time></trkpt><trkpt lat="35.595695" lon="-5.98732"><ele>7.666666666666666</ele><time>2026-04-28T10:03:42.044Z</time></trkpt><trkpt lat="35.5958467" lon="-5.9872733"><ele>7.333333333333334</ele><time>2026-04-28T10:03:43.044Z</time></trkpt><trkpt lat="35.5959933" lon="-5.9872283"><ele>7.0</ele><time>2026-04-28T10:03:44.044Z</time></trkpt><trkpt lat="35.5961467" lon="-5.9871817"><ele>7.0</ele><time>2026-04-28T10:03:45.044Z</time></trkpt><trkpt lat="35.5962983" lon="-5.9871283"><ele>7.0</ele><time>2026-04-28T10:03:46.043Z</time></trkpt><trkpt lat="35.59645" lon="-5.9870733"><ele>7.0</ele><time>2026-04-28T10:03:47.044Z</time></trkpt><trkpt lat="35.5966067" lon="-5.9870233"><ele>7.0</ele><time>2026-04-28T10:03:48.044Z</time></trkpt><trkpt lat="35.5967617" lon="-5.9869717"><ele>7.0</ele><time>2026-04-28T10:03:49.044Z</time></trkpt><trkpt lat="35.596915" lon="-5.9869183"><ele>7.0</ele><time>2026-04-28T10:03:50.044Z</time></trkpt><trkpt lat="35.5970733" lon="-5.98687"><ele>7.333333333333334</ele><time>2026-04-28T10:03:51.044Z</time></trkpt><trkpt lat="35.5972283" lon="-5.9868133"><ele>7.666666666666666</ele><time>2026-04-28T10:03:52.044Z</time></trkpt><trkpt lat="35.59739" lon="-5.9867517"><ele>8.0</ele><time>2026-04-28T10:03:53.044Z</time></trkpt><trkpt lat="35.5975417" lon="-5.9867067"><ele>8.0</ele><time>2026-04-28T10:03:54.044Z</time></trkpt><trkpt lat="35.597705" lon="-5.9866517"><ele>8.0</ele><time>2026-04-28T10:03:55.044Z</time></trkpt><trkpt lat="35.597865" lon="-5.9865967"><ele>8.0</ele><time>2026-04-28T10:03:56.044Z</time></trkpt><trkpt lat="35.5980267" lon="-5.9865367"><ele>7.0</ele><time>2026-04-28T10:03:57.044Z</time></trkpt><trkpt lat="35.5981933" lon="-5.98648"><ele>6.0</ele><time>2026-04-28T10:03:58.044Z</time></trkpt><trkpt lat="35.59836" lon="-5.9864317"><ele>5.0</ele><time>2026-04-28T10:03:59.044Z</time></trkpt><trkpt lat="35.59852" lon="-5.9863783"><ele>5.0</ele><time>2026-04-28T10:04:00.044Z</time></trkpt><trkpt lat="35.59868" lon="-5.98632"><ele>5.0</ele><time>2026-04-28T10:04:01.044Z</time></trkpt><trkpt lat="35.5988383" lon="-5.9862583"><ele>5.0</ele><time>2026-04-28T10:04:02.044Z</time></trkpt><trkpt lat="35.5990017" lon="-5.9862"><ele>5.0</ele><time>2026-04-28T10:04:03.043Z</time></trkpt><trkpt lat="35.5991667" lon="-5.98614"><ele>5.0</ele><time>2026-04-28T10:04:04.044Z</time></trkpt><trkpt lat="35.5993267" lon="-5.9860717"><ele>5.0</ele><time>2026-04-28T10:04:05.044Z</time></trkpt><trkpt lat="35.59949" lon="-5.98601"><ele>5.666666666666667</ele><time>2026-04-28T10:04:06.044Z</time></trkpt><trkpt lat="35.5996533" lon="-5.9859583"><ele>6.333333333333334</ele><time>2026-04-28T10:04:07.044Z</time></trkpt><trkpt lat="35.5998167" lon="-5.9859"><ele>7.0</ele><time>2026-04-28T10:04:08.044Z</time></trkpt><trkpt lat="35.5999833" lon="-5.9858467"><ele>7.0</ele><time>2026-04-28T10:04:09.044Z</time></trkpt><trkpt lat="35.6001467" lon="-5.98579"><ele>7.0</ele><time>2026-04-28T10:04:10.044Z</time></trkpt><trkpt lat="35.60031" lon="-5.9857317"><ele>7.0</ele><time>2026-04-28T10:04:11.044Z</time></trkpt><trkpt lat="35.6004767" lon="-5.9856667"><ele>7.333333333333334</ele><time>2026-04-28T10:04:12.044Z</time></trkpt><trkpt lat="35.6006383" lon="-5.985605"><ele>7.666666666666666</ele><time>2026-04-28T10:04:13.044Z</time></trkpt><trkpt lat="35.6007933" lon="-5.9855483"><ele>8.0</ele><time>2026-04-28T10:04:14.044Z</time></trkpt><trkpt lat="35.6009517" lon="-5.9854933"><ele>8.0</ele><time>2026-04-28T10:04:15.044Z</time></trkpt><trkpt lat="35.6011117" lon="-5.9854383"><ele>8.0</ele><time>2026-04-28T10:04:16.044Z</time></trkpt><trkpt lat="35.6012667" lon="-5.98538"><ele>8.0</ele><time>2026-04-28T10:04:17.044Z</time></trkpt><trkpt lat="35.601425" lon="-5.9853183"><ele>8.0</ele><time>2026-04-28T10:04:18.043Z</time></trkpt><trkpt lat="35.6015817" lon="-5.9852567"><ele>8.0</ele><time>2026-04-28T10:04:19.044Z</time></trkpt><trkpt lat="35.601745" lon="-5.9852017"><ele>8.0</ele><time>2026-04-28T10:04:20.044Z</time></trkpt><trkpt lat="35.6019017" lon="-5.985145"><ele>8.0</ele><time>2026-04-28T10:04:21.044Z</time></trkpt><trkpt lat="35.6020633" lon="-5.9850833"><ele>8.0</ele><time>2026-04-28T10:04:22.044Z</time></trkpt><trkpt lat="35.60223" lon="-5.9850233"><ele>8.0</ele><time>2026-04-28T10:04:23.044Z</time></trkpt><trkpt lat="35.6023933" lon="-5.9849617"><ele>8.0</ele><time>2026-04-28T10:04:24.044Z</time></trkpt><trkpt lat="35.6025533" lon="-5.9849"><ele>8.0</ele><time>2026-04-28T10:04:25.044Z</time></trkpt><trkpt lat="35.602715" lon="-5.9848317"><ele>8.0</ele><time>2026-04-28T10:04:26.044Z</time></trkpt><trkpt lat="35.6028733" lon="-5.9847733"><ele>8.0</ele><time>2026-04-28T10:04:27.044Z</time></trkpt><trkpt lat="35.6030333" lon="-5.9847067"><ele>8.0</ele><time>2026-04-28T10:04:28.043Z</time></trkpt><trkpt lat="35.6031917" lon="-5.98464"><ele>8.0</ele><time>2026-04-28T10:04:29.044Z</time></trkpt><trkpt lat="35.6033567" lon="-5.9845767"><ele>8.0</ele><time>2026-04-28T10:04:30.044Z</time></trkpt><trkpt lat="35.6035233" lon="-5.984525"><ele>8.0</ele><time>2026-04-28T10:04:31.044Z</time></trkpt><trkpt lat="35.603685" lon="-5.9844667"><ele>8.0</ele><time>2026-04-28T10:04:32.044Z</time></trkpt><trkpt lat="35.6038417" lon="-5.984405"><ele>7.333333333333333</ele><time>2026-04-28T10:04:33.044Z</time></trkpt><trkpt lat="35.6040017" lon="-5.98434"><ele>6.666666666666666</ele><time>2026-04-28T10:04:34.044Z</time></trkpt><trkpt lat="35.6041617" lon="-5.9842717"><ele>6.0</ele><time>2026-04-28T10:04:35.044Z</time></trkpt><trkpt lat="35.6043267" lon="-5.9842033"><ele>6.0</ele><time>2026-04-28T10:04:36.044Z</time></trkpt><trkpt lat="35.604485" lon="-5.984135"><ele>6.0</ele><time>2026-04-28T10:04:37.044Z</time></trkpt><trkpt lat="35.6046467" lon="-5.9840683"><ele>6.0</ele><time>2026-04-28T10:04:38.044Z</time></trkpt><trkpt lat="35.6048067" lon="-5.984005"><ele>6.0</ele><time>2026-04-28T10:04:39.044Z</time></trkpt><trkpt lat="35.6049683" lon="-5.9839433"><ele>6.0</ele><time>2026-04-28T10:04:40.044Z</time></trkpt><trkpt lat="35.6051317" lon="-5.9838867"><ele>6.0</ele><time>2026-04-28T10:04:41.043Z</time></trkpt><trkpt lat="35.605295" lon="-5.9838217"><ele>6.0</ele><time>2026-04-28T10:04:42.044Z</time></trkpt><trkpt lat="35.605455" lon="-5.98376"><ele>6.0</ele><time>2026-04-28T10:04:43.044Z</time></trkpt><trkpt lat="35.6056167" lon="-5.9836917"><ele>6.0</ele><time>2026-04-28T10:04:44.044Z</time></trkpt><trkpt lat="35.6057783" lon="-5.9836283"><ele>6.0</ele><time>2026-04-28T10:04:45.043Z</time></trkpt><trkpt lat="35.6059417" lon="-5.9835667"><ele>6.0</ele><time>2026-04-28T10:04:46.044Z</time></trkpt><trkpt lat="35.6061" lon="-5.9835033"><ele>6.0</ele><time>2026-04-28T10:04:47.044Z</time></trkpt><trkpt lat="35.6062583" lon="-5.9834317"><ele>6.333333333333334</ele><time>2026-04-28T10:04:48.044Z</time></trkpt><trkpt lat="35.6064183" lon="-5.983365"><ele>6.666666666666667</ele><time>2026-04-28T10:04:49.044Z</time></trkpt><trkpt lat="35.6065817" lon="-5.9833017"><ele>7.0</ele><time>2026-04-28T10:04:50.044Z</time></trkpt><trkpt lat="35.6067433" lon="-5.983235"><ele>7.666666666666667</ele><time>2026-04-28T10:04:51.044Z</time></trkpt><trkpt lat="35.6069" lon="-5.9831717"><ele>8.333333333333334</ele><time>2026-04-28T10:04:52.043Z</time></trkpt><trkpt lat="35.6070467" lon="-5.9831067"><ele>9.0</ele><time>2026-04-28T10:04:53.044Z</time></trkpt><trkpt lat="35.6071933" lon="-5.9830467"><ele>7.666666666666667</ele><time>2026-04-28T10:04:54.044Z</time></trkpt><trkpt lat="35.60734" lon="-5.9829883"><ele>6.333333333333334</ele><time>2026-04-28T10:04:55.044Z</time></trkpt><trkpt lat="35.60749" lon="-5.98293"><ele>5.0</ele><time>2026-04-28T10:04:56.044Z</time></trkpt><trkpt lat="35.607635" lon="-5.9828717"><ele>5.0</ele><time>2026-04-28T10:04:57.044Z</time></trkpt><trkpt lat="35.6077833" lon="-5.9828117"><ele>5.0</ele><time>2026-04-28T10:04:58.044Z</time></trkpt><trkpt lat="35.6079217" lon="-5.98274"><ele>5.0</ele><time>2026-04-28T10:04:59.044Z</time></trkpt><trkpt lat="35.6080617" lon="-5.982675"><ele>5.333333333333334</ele><time>2026-04-28T10:05:00.044Z</time></trkpt><trkpt lat="35.6082083" lon="-5.98262"><ele>5.666666666666667</ele><time>2026-04-28T10:05:01.044Z</time></trkpt><trkpt lat="35.6083617" lon="-5.982555"><ele>6.0</ele><time>2026-04-28T10:05:02.044Z</time></trkpt><trkpt lat="35.6085117" lon="-5.9824933"><ele>5.0</ele><time>2026-04-28T10:05:03.044Z</time></trkpt><trkpt lat="35.608665" lon="-5.982425"><ele>4.0</ele><time>2026-04-28T10:05:04.044Z</time></trkpt><trkpt lat="35.6088217" lon="-5.982355"><ele>3.0</ele><time>2026-04-28T10:05:05.044Z</time></trkpt><trkpt lat="35.6089767" lon="-5.982285"><ele>3.0</ele><time>2026-04-28T10:05:06.044Z</time></trkpt><trkpt lat="35.60913" lon="-5.9822167"><ele>3.0</ele><time>2026-04-28T10:05:07.044Z</time></trkpt><trkpt lat="35.60929" lon="-5.9821533"><ele>3.0</ele><time>2026-04-28T10:05:08.043Z</time></trkpt><trkpt lat="35.6094483" lon="-5.9820817"><ele>3.666666666666667</ele><time>2026-04-28T10:05:09.044Z</time></trkpt><trkpt lat="35.6096117" lon="-5.9820067"><ele>4.333333333333334</ele><time>2026-04-28T10:05:10.044Z</time></trkpt><trkpt lat="35.60977" lon="-5.9819317"><ele>5.0</ele><time>2026-04-28T10:05:11.043Z</time></trkpt><trkpt lat="35.6099283" lon="-5.981865"><ele>5.0</ele><time>2026-04-28T10:05:12.044Z</time></trkpt><trkpt lat="35.6100817" lon="-5.981795"><ele>5.0</ele><time>2026-04-28T10:05:13.044Z</time></trkpt><trkpt lat="35.61024" lon="-5.9817233"><ele>5.0</ele><time>2026-04-28T10:05:14.044Z</time></trkpt><trkpt lat="35.6104" lon="-5.9816533"><ele>4.666666666666667</ele><time>2026-04-28T10:05:15.044Z</time></trkpt><trkpt lat="35.6105633" lon="-5.9815817"><ele>4.333333333333333</ele><time>2026-04-28T10:05:16.044Z</time></trkpt><trkpt lat="35.61073" lon="-5.981515"><ele>4.0</ele><time>2026-04-28T10:05:17.044Z</time></trkpt><trkpt lat="35.6108967" lon="-5.98144"><ele>4.0</ele><time>2026-04-28T10:05:18.044Z</time></trkpt><trkpt lat="35.61106" lon="-5.9813667"><ele>4.0</ele><time>2026-04-28T10:05:19.044Z</time></trkpt><trkpt lat="35.6112233" lon="-5.9812867"><ele>4.0</ele><time>2026-04-28T10:05:20.044Z</time></trkpt><trkpt lat="35.611395" lon="-5.9812183"><ele>3.6666666666666665</ele><time>2026-04-28T10:05:21.044Z</time></trkpt><trkpt lat="35.611565" lon="-5.9811433"><ele>3.333333333333333</ele><time>2026-04-28T10:05:22.044Z</time></trkpt><trkpt lat="35.6117367" lon="-5.9810717"><ele>3.0</ele><time>2026-04-28T10:05:23.044Z</time></trkpt><trkpt lat="35.6119017" lon="-5.980995"><ele>3.666666666666667</ele><time>2026-04-28T10:05:24.044Z</time></trkpt><trkpt lat="35.6120717" lon="-5.9809133"><ele>4.333333333333334</ele><time>2026-04-28T10:05:25.043Z</time></trkpt><trkpt lat="35.6122467" lon="-5.98083"><ele>5.0</ele><time>2026-04-28T10:05:26.044Z</time></trkpt><trkpt lat="35.6124183" lon="-5.980755"><ele>5.0</ele><time>2026-04-28T10:05:27.044Z</time></trkpt><trkpt lat="35.6125783" lon="-5.9806783"><ele>5.0</ele><time>2026-04-28T10:05:28.044Z</time></trkpt><trkpt lat="35.6127383" lon="-5.980605"><ele>5.0</ele><time>2026-04-28T10:05:29.043Z</time></trkpt><trkpt lat="35.612895" lon="-5.98053"><ele>5.0</ele><time>2026-04-28T10:05:30.044Z</time></trkpt><trkpt lat="35.6130533" lon="-5.9804567"><ele>5.0</ele><time>2026-04-28T10:05:31.044Z</time></trkpt><trkpt lat="35.61321" lon="-5.9803767"><ele>5.0</ele><time>2026-04-28T10:05:32.044Z</time></trkpt><trkpt lat="35.6133717" lon="-5.9803"><ele>5.0</ele><time>2026-04-28T10:05:33.044Z</time></trkpt><trkpt lat="35.613535" lon="-5.98023"><ele>5.0</ele><time>2026-04-28T10:05:34.044Z</time></trkpt><trkpt lat="35.6136983" lon="-5.9801533"><ele>5.0</ele><time>2026-04-28T10:05:35.043Z</time></trkpt><trkpt lat="35.613855" lon="-5.98008"><ele>5.333333333333334</ele><time>2026-04-28T10:05:36.044Z</time></trkpt><trkpt lat="35.6140117" lon="-5.980005"><ele>5.666666666666667</ele><time>2026-04-28T10:05:37.044Z</time></trkpt><trkpt lat="35.6141767" lon="-5.97992"><ele>6.0</ele><time>2026-04-28T10:05:38.044Z</time></trkpt><trkpt lat="35.6143417" lon="-5.9798383"><ele>5.666666666666667</ele><time>2026-04-28T10:05:39.044Z</time></trkpt><trkpt lat="35.6145067" lon="-5.979755"><ele>5.333333333333334</ele><time>2026-04-28T10:05:40.044Z</time></trkpt><trkpt lat="35.6146717" lon="-5.979685"><ele>5.0</ele><time>2026-04-28T10:05:41.044Z</time></trkpt><trkpt lat="35.6148367" lon="-5.9796033"><ele>5.0</ele><time>2026-04-28T10:05:42.044Z</time></trkpt><trkpt lat="35.6150083" lon="-5.9795167"><ele>5.0</ele><time>2026-04-28T10:05:43.043Z</time></trkpt><trkpt lat="35.6151783" lon="-5.9794317"><ele>5.0</ele><time>2026-04-28T10:05:44.044Z</time></trkpt><trkpt lat="35.6153533" lon="-5.979355"><ele>5.0</ele><time>2026-04-28T10:05:45.043Z</time></trkpt><trkpt lat="35.6155283" lon="-5.979275"><ele>5.0</ele><time>2026-04-28T10:05:46.044Z</time></trkpt><trkpt lat="35.615705" lon="-5.9791917"><ele>5.0</ele><time>2026-04-28T10:05:47.044Z</time></trkpt><trkpt lat="35.61588" lon="-5.9791067"><ele>5.0</ele><time>2026-04-28T10:05:48.044Z</time></trkpt><trkpt lat="35.6160567" lon="-5.9790133"><ele>5.0</ele><time>2026-04-28T10:05:49.044Z</time></trkpt><trkpt lat="35.616235" lon="-5.9789233"><ele>5.0</ele><time>2026-04-28T10:05:50.044Z</time></trkpt><trkpt lat="35.61641" lon="-5.978835"><ele>4.666666666666667</ele><time>2026-04-28T10:05:51.044Z</time></trkpt><trkpt lat="35.6165917" lon="-5.97875"><ele>4.333333333333333</ele><time>2026-04-28T10:05:52.044Z</time></trkpt><trkpt lat="35.6167683" lon="-5.978665"><ele>4.0</ele><time>2026-04-28T10:05:53.044Z</time></trkpt><trkpt lat="35.6169417" lon="-5.9785767"><ele>3.6666666666666665</ele><time>2026-04-28T10:05:54.044Z</time></trkpt><trkpt lat="35.6171117" lon="-5.9784967"><ele>3.333333333333333</ele><time>2026-04-28T10:05:55.044Z</time></trkpt><trkpt lat="35.617275" lon="-5.9784167"><ele>3.0</ele><time>2026-04-28T10:05:56.043Z</time></trkpt><trkpt lat="35.6174383" lon="-5.9783367"><ele>3.666666666666667</ele><time>2026-04-28T10:05:57.042Z</time></trkpt><trkpt lat="35.617595" lon="-5.9782617"><ele>4.333333333333334</ele><time>2026-04-28T10:05:58.043Z</time></trkpt><trkpt lat="35.61775" lon="-5.97819"><ele>5.0</ele><time>2026-04-28T10:05:59.043Z</time></trkpt><trkpt lat="35.617905" lon="-5.97811"><ele>6.333333333333334</ele><time>2026-04-28T10:06:00.043Z</time></trkpt><trkpt lat="35.61806" lon="-5.9780333"><ele>7.666666666666667</ele><time>2026-04-28T10:06:01.043Z</time></trkpt><trkpt lat="35.61822" lon="-5.977945"><ele>9.0</ele><time>2026-04-28T10:06:02.043Z</time></trkpt><trkpt lat="35.6183783" lon="-5.9778683"><ele>9.0</ele><time>2026-04-28T10:06:03.043Z</time></trkpt><trkpt lat="35.6185333" lon="-5.9777933"><ele>9.0</ele><time>2026-04-28T10:06:04.043Z</time></trkpt><trkpt lat="35.61869" lon="-5.9777283"><ele>9.0</ele><time>2026-04-28T10:06:05.043Z</time></trkpt><trkpt lat="35.6188417" lon="-5.977655"><ele>9.666666666666666</ele><time>2026-04-28T10:06:06.043Z</time></trkpt><trkpt lat="35.6189933" lon="-5.9775883"><ele>10.333333333333332</ele><time>2026-04-28T10:06:07.043Z</time></trkpt><trkpt lat="35.61914" lon="-5.9775183"><ele>11.0</ele><time>2026-04-28T10:06:08.042Z</time></trkpt><trkpt lat="35.6192817" lon="-5.9774433"><ele>11.333333333333332</ele><time>2026-04-28T10:06:09.043Z</time></trkpt><trkpt lat="35.619425" lon="-5.9773733"><ele>11.666666666666666</ele><time>2026-04-28T10:06:10.043Z</time></trkpt><trkpt lat="35.6195683" lon="-5.97731"><ele>12.0</ele><time>2026-04-28T10:06:11.043Z</time></trkpt><trkpt lat="35.6197083" lon="-5.9772433"><ele>12.0</ele><time>2026-04-28T10:06:12.042Z</time></trkpt><trkpt lat="35.61985" lon="-5.9771783"><ele>12.0</ele><time>2026-04-28T10:06:13.043Z</time></trkpt><trkpt lat="35.6199883" lon="-5.977115"><ele>12.0</ele><time>2026-04-28T10:06:14.043Z</time></trkpt><trkpt lat="35.62012" lon="-5.97705"><ele>12.0</ele><time>2026-04-28T10:06:15.043Z</time></trkpt><trkpt lat="35.6202517" lon="-5.97699"><ele>11.25</ele><time>2026-04-28T10:06:16.043Z</time></trkpt><trkpt lat="35.6203783" lon="-5.976935"><ele>10.5</ele><time>2026-04-28T10:06:17.043Z</time></trkpt><trkpt lat="35.6205083" lon="-5.9768783"><ele>9.75</ele><time>2026-04-28T10:06:18.043Z</time></trkpt><trkpt lat="35.6206417" lon="-5.9768217"><ele>9.0</ele><time>2026-04-28T10:06:19.043Z</time></trkpt><trkpt lat="35.620775" lon="-5.9767567"><ele>9.0</ele><time>2026-04-28T10:06:20.043Z</time></trkpt><trkpt lat="35.6209033" lon="-5.9766933"><ele>9.0</ele><time>2026-04-28T10:06:21.042Z</time></trkpt><trkpt lat="35.6210333" lon="-5.97663"><ele>9.0</ele><time>2026-04-28T10:06:22.043Z</time></trkpt><trkpt lat="35.6211683" lon="-5.9765733"><ele>9.0</ele><time>2026-04-28T10:06:23.043Z</time></trkpt><trkpt lat="35.6212933" lon="-5.9765133"><ele>9.75</ele><time>2026-04-28T10:06:24.043Z</time></trkpt><trkpt lat="35.62142" lon="-5.9764633"><ele>10.5</ele><time>2026-04-28T10:06:25.043Z</time></trkpt><trkpt lat="35.62155" lon="-5.97641"><ele>11.25</ele><time>2026-04-28T10:06:26.043Z</time></trkpt><trkpt lat="35.621675" lon="-5.9763533"><ele>12.0</ele><time>2026-04-28T10:06:27.043Z</time></trkpt><trkpt lat="35.6218017" lon="-5.9763083"><ele>12.0</ele><time>2026-04-28T10:06:28.043Z</time></trkpt><trkpt lat="35.621925" lon="-5.976255"><ele>12.0</ele><time>2026-04-28T10:06:29.043Z</time></trkpt><trkpt lat="35.6220467" lon="-5.9762"><ele>12.0</ele><time>2026-04-28T10:06:30.043Z</time></trkpt><trkpt lat="35.6221667" lon="-5.97615"><ele>12.0</ele><time>2026-04-28T10:06:31.043Z</time></trkpt><trkpt lat="35.6222833" lon="-5.9761033"><ele>11.5</ele><time>2026-04-28T10:06:32.043Z</time></trkpt><trkpt lat="35.6224017" lon="-5.97606"><ele>11.0</ele><time>2026-04-28T10:06:33.042Z</time></trkpt><trkpt lat="35.622515" lon="-5.976015"><ele>10.5</ele><time>2026-04-28T10:06:34.043Z</time></trkpt><trkpt lat="35.6226233" lon="-5.9759717"><ele>10.0</ele><time>2026-04-28T10:06:35.043Z</time></trkpt><trkpt lat="35.622725" lon="-5.9759267"><ele>9.5</ele><time>2026-04-28T10:06:36.043Z</time></trkpt><trkpt lat="35.62283" lon="-5.9758817"><ele>9.0</ele><time>2026-04-28T10:06:37.043Z</time></trkpt><trkpt lat="35.6229383" lon="-5.9758367"><ele>8.5</ele><time>2026-04-28T10:06:38.043Z</time></trkpt><trkpt lat="35.623045" lon="-5.975785"><ele>8.0</ele><time>2026-04-28T10:06:39.043Z</time></trkpt><trkpt lat="35.6231617" lon="-5.9757333"><ele>8.0</ele><time>2026-04-28T10:06:40.043Z</time></trkpt><trkpt lat="35.6232817" lon="-5.9756867"><ele>8.0</ele><time>2026-04-28T10:06:41.042Z</time></trkpt><trkpt lat="35.6233933" lon="-5.9756467"><ele>8.0</ele><time>2026-04-28T10:06:42.043Z</time></trkpt><trkpt lat="35.6235067" lon="-5.975605"><ele>8.0</ele><time>2026-04-28T10:06:43.043Z</time></trkpt><trkpt lat="35.62362" lon="-5.9755633"><ele>7.75</ele><time>2026-04-28T10:06:44.043Z</time></trkpt><trkpt lat="35.62373" lon="-5.97552"><ele>7.5</ele><time>2026-04-28T10:06:45.043Z</time></trkpt><trkpt lat="35.62385" lon="-5.9754767"><ele>7.25</ele><time>2026-04-28T10:06:46.043Z</time></trkpt><trkpt lat="35.6239783" lon="-5.975425"><ele>7.0</ele><time>2026-04-28T10:06:47.043Z</time></trkpt><trkpt lat="35.6241167" lon="-5.9753667"><ele>7.0</ele><time>2026-04-28T10:06:48.043Z</time></trkpt><trkpt lat="35.6242583" lon="-5.97531"><ele>7.0</ele><time>2026-04-28T10:06:49.043Z</time></trkpt><trkpt lat="35.6244017" lon="-5.9752533"><ele>7.0</ele><time>2026-04-28T10:06:50.043Z</time></trkpt><trkpt lat="35.6245383" lon="-5.9751983"><ele>7.0</ele><time>2026-04-28T10:06:51.043Z</time></trkpt><trkpt lat="35.6246733" lon="-5.9751467"><ele>7.25</ele><time>2026-04-28T10:06:52.042Z</time></trkpt><trkpt lat="35.62481" lon="-5.975095"><ele>7.5</ele><time>2026-04-28T10:06:53.043Z</time></trkpt><trkpt lat="35.62495" lon="-5.975045"><ele>7.75</ele><time>2026-04-28T10:06:54.043Z</time></trkpt><trkpt lat="35.6250967" lon="-5.9749933"><ele>8.0</ele><time>2026-04-28T10:06:55.043Z</time></trkpt><trkpt lat="35.625255" lon="-5.97494"><ele>9.0</ele><time>2026-04-28T10:06:56.042Z</time></trkpt><trkpt lat="35.6254133" lon="-5.9748817"><ele>10.0</ele><time>2026-04-28T10:06:57.043Z</time></trkpt><trkpt lat="35.6255617" lon="-5.9748333"><ele>11.0</ele><time>2026-04-28T10:06:58.043Z</time></trkpt><trkpt lat="35.6257117" lon="-5.9747833"><ele>11.0</ele><time>2026-04-28T10:06:59.043Z</time></trkpt><trkpt lat="35.6258517" lon="-5.974735"><ele>11.0</ele><time>2026-04-28T10:07:00.043Z</time></trkpt><trkpt lat="35.6259983" lon="-5.97468"><ele>11.0</ele><time>2026-04-28T10:07:01.043Z</time></trkpt><trkpt lat="35.6261417" lon="-5.97463"><ele>11.0</ele><time>2026-04-28T10:07:02.043Z</time></trkpt><trkpt lat="35.626285" lon="-5.9745867"><ele>10.5</ele><time>2026-04-28T10:07:03.043Z</time></trkpt><trkpt lat="35.6264183" lon="-5.9745417"><ele>10.0</ele><time>2026-04-28T10:07:04.043Z</time></trkpt><trkpt lat="35.626545" lon="-5.9744983"><ele>9.5</ele><time>2026-04-28T10:07:05.043Z</time></trkpt><trkpt lat="35.6266667" lon="-5.974455"><ele>9.0</ele><time>2026-04-28T10:07:06.043Z</time></trkpt><trkpt lat="35.6267917" lon="-5.97441"><ele>9.0</ele><time>2026-04-28T10:07:07.043Z</time></trkpt><trkpt lat="35.6269183" lon="-5.9743667"><ele>9.0</ele><time>2026-04-28T10:07:08.042Z</time></trkpt><trkpt lat="35.6270383" lon="-5.974325"><ele>9.0</ele><time>2026-04-28T10:07:09.043Z</time></trkpt><trkpt lat="35.6271533" lon="-5.9742883"><ele>9.0</ele><time>2026-04-28T10:07:10.043Z</time></trkpt><trkpt lat="35.627265" lon="-5.9742517"><ele>8.6</ele><time>2026-04-28T10:07:11.042Z</time></trkpt><trkpt lat="35.627375" lon="-5.97422"><ele>8.2</ele><time>2026-04-28T10:07:12.042Z</time></trkpt><trkpt lat="35.627485" lon="-5.9741883"><ele>7.799999999999999</ele><time>2026-04-28T10:07:13.043Z</time></trkpt><trkpt lat="35.6275933" lon="-5.974155"><ele>7.3999999999999995</ele><time>2026-04-28T10:07:14.043Z</time></trkpt><trkpt lat="35.6276933" lon="-5.9741167"><ele>7.0</ele><time>2026-04-28T10:07:15.043Z</time></trkpt><trkpt lat="35.6277917" lon="-5.97409"><ele>7.8</ele><time>2026-04-28T10:07:16.043Z</time></trkpt><trkpt lat="35.6278867" lon="-5.974075"><ele>8.6</ele><time>2026-04-28T10:07:17.043Z</time></trkpt><trkpt lat="35.6279783" lon="-5.974065"><ele>9.4</ele><time>2026-04-28T10:07:18.043Z</time></trkpt><trkpt lat="35.6280483" lon="-5.9740583"><ele>10.200000000000001</ele><time>2026-04-28T10:07:19.043Z</time></trkpt><trkpt lat="35.6281583" lon="-5.97405"><ele>11.0</ele><time>2026-04-28T10:07:21.043Z</time></trkpt><trkpt lat="35.628245" lon="-5.974045"><ele>11.0</ele><time>2026-04-28T10:07:23.043Z</time></trkpt><trkpt lat="35.6283133" lon="-5.97403"><ele>11.0</ele><time>2026-04-28T10:07:25.043Z</time></trkpt><trkpt lat="35.6283833" lon="-5.9740283"><ele>11.0</ele><time>2026-04-28T10:07:28.043Z</time></trkpt><trkpt lat="35.6284817" lon="-5.9739833"><ele>11.0</ele><time>2026-04-28T10:11:12.043Z</time></trkpt><trkpt lat="35.628585" lon="-5.97395"><ele>11.0</ele><time>2026-04-28T10:11:14.043Z</time></trkpt><trkpt lat="35.628665" lon="-5.973945"><ele>11.0</ele><time>2026-04-28T10:11:16.043Z</time></trkpt><trkpt lat="35.62874" lon="-5.9739767"><ele>10.4</ele><time>2026-04-28T10:11:18.043Z</time></trkpt><trkpt lat="35.6288183" lon="-5.9740367"><ele>9.8</ele><time>2026-04-28T10:11:20.042Z</time></trkpt><trkpt lat="35.628885" lon="-5.974115"><ele>9.200000000000001</ele><time>2026-04-28T10:11:22.043Z</time></trkpt><trkpt lat="35.628955" lon="-5.9741883"><ele>8.600000000000001</ele><time>2026-04-28T10:11:24.043Z</time></trkpt><trkpt lat="35.6290317" lon="-5.97425"><ele>8.0</ele><time>2026-04-28T10:11:26.043Z</time></trkpt><trkpt lat="35.62911" lon="-5.9743367"><ele>7.666666666666666</ele><time>2026-04-28T10:11:28.043Z</time></trkpt><trkpt lat="35.6291667" lon="-5.9744533"><ele>7.333333333333333</ele><time>2026-04-28T10:11:30.043Z</time></trkpt><trkpt lat="35.6291767" lon="-5.97456"><ele>7.0</ele><time>2026-04-28T10:11:32.043Z</time></trkpt><trkpt lat="35.629155" lon="-5.9746467"><ele>6.666666666666666</ele><time>2026-04-28T10:11:34.043Z</time></trkpt><trkpt lat="35.629115" lon="-5.974735"><ele>6.333333333333333</ele><time>2026-04-28T10:11:36.043Z</time></trkpt><trkpt lat="35.629075" lon="-5.974825"><ele>6.0</ele><time>2026-04-28T10:11:38.043Z</time></trkpt><trkpt lat="35.6290517" lon="-5.9749567"><ele>5.833333333333333</ele><time>2026-04-28T10:11:40.043Z</time></trkpt><trkpt lat="35.6290617" lon="-5.975125"><ele>5.666666666666667</ele><time>2026-04-28T10:11:42.043Z</time></trkpt><trkpt lat="35.6290767" lon="-5.9752117"><ele>5.5</ele><time>2026-04-28T10:11:43.043Z</time></trkpt><trkpt lat="35.629085" lon="-5.9752933"><ele>5.333333333333334</ele><time>2026-04-28T10:11:44.043Z</time></trkpt><trkpt lat="35.629095" lon="-5.9753717"><ele>5.166666666666667</ele><time>2026-04-28T10:11:45.043Z</time></trkpt><trkpt lat="35.6291083" lon="-5.97545"><ele>5.0</ele><time>2026-04-28T10:11:46.043Z</time></trkpt><trkpt lat="35.6291367" lon="-5.9755833"><ele>5.0</ele><time>2026-04-28T10:11:48.043Z</time></trkpt><trkpt lat="35.6291733" lon="-5.975705"><ele>5.0</ele><time>2026-04-28T10:11:50.043Z</time></trkpt><trkpt lat="35.6292117" lon="-5.97583"><ele>5.0</ele><time>2026-04-28T10:11:52.043Z</time></trkpt><trkpt lat="35.6292583" lon="-5.9759467"><ele>5.0</ele><time>2026-04-28T10:11:54.043Z</time></trkpt><trkpt lat="35.6293033" lon="-5.97607"><ele>5.0</ele><time>2026-04-28T10:11:56.043Z</time></trkpt><trkpt lat="35.629335" lon="-5.9761933"><ele>4.666666666666667</ele><time>2026-04-28T10:11:58.043Z</time></trkpt><trkpt lat="35.6293583" lon="-5.9762867"><ele>4.333333333333334</ele><time>2026-04-28T10:12:00.043Z</time></trkpt><trkpt lat="35.629375" lon="-5.976405"><ele>4.0</ele><time>2026-04-28T10:12:03.043Z</time></trkpt><trkpt lat="35.6293933" lon="-5.9764967"><ele>3.666666666666667</ele><time>2026-04-28T10:12:05.043Z</time></trkpt><trkpt lat="35.6294183" lon="-5.9765933"><ele>3.3333333333333335</ele><time>2026-04-28T10:12:07.043Z</time></trkpt><trkpt lat="35.6294433" lon="-5.9766767"><ele>3.0</ele><time>2026-04-28T10:12:09.043Z</time></trkpt><trkpt lat="35.6294783" lon="-5.976785"><ele>3.0</ele><time>2026-04-28T10:12:12.043Z</time></trkpt><trkpt lat="35.62951" lon="-5.9768833"><ele>3.0</ele><time>2026-04-28T10:12:15.042Z</time></trkpt><trkpt lat="35.62959" lon="-5.976915"><ele>3.0</ele><time>2026-04-28T10:12:19.043Z</time></trkpt><trkpt lat="35.6296717" lon="-5.9769167"><ele>3.0</ele><time>2026-04-28T10:12:22.043Z</time></trkpt><trkpt lat="35.629685" lon="-5.977015"><ele>3.0</ele><time>2026-04-28T10:12:26.043Z</time></trkpt><trkpt lat="35.6296867" lon="-5.9771133"><ele>3.0</ele><time>2026-04-28T10:12:29.043Z</time></trkpt><trkpt lat="35.6297033" lon="-5.97722"><ele>3.0</ele><time>2026-04-28T10:12:32.043Z</time></trkpt><trkpt lat="35.6297683" lon="-5.9773233"><ele>3.0</ele><time>2026-04-28T10:12:34.043Z</time></trkpt><trkpt lat="35.62981" lon="-5.9773983"><ele>3.0</ele><time>2026-04-28T10:12:35.043Z</time></trkpt><trkpt lat="35.6298467" lon="-5.9774817"><ele>3.0</ele><time>2026-04-28T10:12:36.042Z</time></trkpt><trkpt lat="35.6298817" lon="-5.9775633"><ele>3.0</ele><time>2026-04-28T10:12:37.043Z</time></trkpt><trkpt lat="35.62992" lon="-5.977635"><ele>3.0</ele><time>2026-04-28T10:12:38.043Z</time></trkpt><trkpt lat="35.6299583" lon="-5.977705"><ele>2.4285714285714284</ele><time>2026-04-28T10:12:39.042Z</time></trkpt><trkpt lat="35.63" lon="-5.97778"><ele>1.8571428571428572</ele><time>2026-04-28T10:12:40.043Z</time></trkpt><trkpt lat="35.63004" lon="-5.9778483"><ele>1.2857142857142856</ele><time>2026-04-28T10:12:41.043Z</time></trkpt><trkpt lat="35.63008" lon="-5.9779183"><ele>0.7142857142857142</ele><time>2026-04-28T10:12:42.043Z</time></trkpt><trkpt lat="35.6301283" lon="-5.9779917"><ele>0.1428571428571429</ele><time>2026-04-28T10:12:43.043Z</time></trkpt><trkpt lat="35.6301683" lon="-5.9780633"><ele>-0.42857142857142855</ele><time>2026-04-28T10:12:44.043Z</time></trkpt><trkpt lat="35.6302033" lon="-5.97814"><ele>-1.0</ele><time>2026-04-28T10:12:45.043Z</time></trkpt><trkpt lat="35.63023" lon="-5.9782167"><ele>-0.9999999999999999</ele><time>2026-04-28T10:12:46.043Z</time></trkpt><trkpt lat="35.6302633" lon="-5.97829"><ele>-1.0</ele><time>2026-04-28T10:12:47.043Z</time></trkpt><trkpt lat="35.630305" lon="-5.9784167"><ele>-1.0</ele><time>2026-04-28T10:12:49.043Z</time></trkpt><trkpt lat="35.6303583" lon="-5.9783617"><ele>-1.0</ele><time>2026-04-28T10:28:23.041Z</time></trkpt><trkpt lat="35.63029" lon="-5.978345"><ele>-0.9999999999999999</ele><time>2026-04-28T10:29:11.041Z</time></trkpt><trkpt lat="35.63025" lon="-5.9782283"><ele>-1.0</ele><time>2026-04-28T10:29:14.041Z</time></trkpt><trkpt lat="35.6302083" lon="-5.978135"><ele>-1.0</ele><time>2026-04-28T10:29:16.041Z</time></trkpt><trkpt lat="35.6301583" lon="-5.97802"><ele>-1.0</ele><time>2026-04-28T10:29:18.041Z</time></trkpt><trkpt lat="35.6301083" lon="-5.9779517"><ele>-1.0</ele><time>2026-04-28T10:29:19.041Z</time></trkpt><trkpt lat="35.6300517" lon="-5.9778733"><ele>-1.0</ele><time>2026-04-28T10:29:20.04Z</time></trkpt><trkpt lat="35.6299417" lon="-5.9777317"><ele>-1.0</ele><time>2026-04-28T10:29:22.041Z</time></trkpt><trkpt lat="35.6298783" lon="-5.977635"><ele>-0.9999999999999999</ele><time>2026-04-28T10:29:24.041Z</time></trkpt><trkpt lat="35.6298517" lon="-5.9775383"><ele>-1.0</ele><time>2026-04-28T10:33:43.04Z</time></trkpt><trkpt lat="35.6298417" lon="-5.9774333"><ele>-1.0</ele><time>2026-04-28T10:33:45.04Z</time></trkpt><trkpt lat="35.629805" lon="-5.9773467"><ele>-1.0</ele><time>2026-04-28T10:33:47.04Z</time></trkpt><trkpt lat="35.629755" lon="-5.97728"><ele>-0.9999999999999999</ele><time>2026-04-28T10:33:49.04Z</time></trkpt><trkpt lat="35.62971" lon="-5.9772117"><ele>-1.0</ele><time>2026-04-28T10:33:51.04Z</time></trkpt><trkpt lat="35.6296733" lon="-5.977105"><ele>-0.33333333333333326</ele><time>2026-04-28T10:33:54.04Z</time></trkpt><trkpt lat="35.62969" lon="-5.9770233"><ele>0.33333333333333337</ele><time>2026-04-28T10:33:56.04Z</time></trkpt><trkpt lat="35.6297017" lon="-5.9769183"><ele>1.0</ele><time>2026-04-28T10:33:59.04Z</time></trkpt><trkpt lat="35.629685" lon="-5.9768167"><ele>1.6666666666666667</ele><time>2026-04-28T10:34:02.04Z</time></trkpt><trkpt lat="35.629715" lon="-5.97673"><ele>2.3333333333333335</ele><time>2026-04-28T10:34:04.04Z</time></trkpt><trkpt lat="35.6297583" lon="-5.9766433"><ele>3.0</ele><time>2026-04-28T10:34:06.04Z</time></trkpt><trkpt lat="35.6297517" lon="-5.9765517"><ele>3.0</ele><time>2026-04-28T10:34:08.04Z</time></trkpt><trkpt lat="35.6297" lon="-5.9764833"><ele>3.0</ele><time>2026-04-28T10:34:10.04Z</time></trkpt><trkpt lat="35.6296267" lon="-5.97643"><ele>3.0</ele><time>2026-04-28T10:34:12.04Z</time></trkpt><trkpt lat="35.6295567" lon="-5.97637"><ele>3.0</ele><time>2026-04-28T10:34:14.04Z</time></trkpt><trkpt lat="35.629495" lon="-5.976285"><ele>3.0</ele><time>2026-04-28T10:34:16.04Z</time></trkpt><trkpt lat="35.6294333" lon="-5.9761783"><ele>3.0</ele><time>2026-04-28T10:34:18.04Z</time></trkpt><trkpt lat="35.6293667" lon="-5.9760933"><ele>2.8333333333333335</ele><time>2026-04-28T10:34:20.04Z</time></trkpt><trkpt lat="35.6293233" lon="-5.9760233"><ele>2.6666666666666665</ele><time>2026-04-28T10:34:22.04Z</time></trkpt><trkpt lat="35.6292817" lon="-5.9759417"><ele>2.5</ele><time>2026-04-28T10:34:24.039Z</time></trkpt><trkpt lat="35.6292383" lon="-5.975855"><ele>2.333333333333333</ele><time>2026-04-28T10:34:26.04Z</time></trkpt><trkpt lat="35.62919" lon="-5.9757667"><ele>2.1666666666666665</ele><time>2026-04-28T10:34:28.04Z</time></trkpt><trkpt lat="35.6291633" lon="-5.97566"><ele>2.0</ele><time>2026-04-28T10:34:30.04Z</time></trkpt><trkpt lat="35.629135" lon="-5.9755283"><ele>2.6</ele><time>2026-04-28T10:34:32.04Z</time></trkpt><trkpt lat="35.6291083" lon="-5.9753867"><ele>3.2</ele><time>2026-04-28T10:34:34.04Z</time></trkpt><trkpt lat="35.6291" lon="-5.9753083"><ele>3.8</ele><time>2026-04-28T10:34:35.04Z</time></trkpt><trkpt lat="35.629075" lon="-5.97516"><ele>4.4</ele><time>2026-04-28T10:34:37.039Z</time></trkpt><trkpt lat="35.6290633" lon="-5.9750167"><ele>5.0</ele><time>2026-04-28T10:34:39.039Z</time></trkpt><trkpt lat="35.629075" lon="-5.9748767"><ele>5.166666666666667</ele><time>2026-04-28T10:34:41.04Z</time></trkpt><trkpt lat="35.6291017" lon="-5.9747533"><ele>5.333333333333334</ele><time>2026-04-28T10:34:43.04Z</time></trkpt><trkpt lat="35.62913" lon="-5.974645"><ele>5.5</ele><time>2026-04-28T10:34:45.04Z</time></trkpt><trkpt lat="35.6291517" lon="-5.9745467"><ele>5.666666666666667</ele><time>2026-04-28T10:34:47.04Z</time></trkpt><trkpt lat="35.6291333" lon="-5.9744683"><ele>5.833333333333333</ele><time>2026-04-28T10:34:49.04Z</time></trkpt><trkpt lat="35.6291083" lon="-5.97437"><ele>6.0</ele><time>2026-04-28T10:34:51.039Z</time></trkpt><trkpt lat="35.629055" lon="-5.974245"><ele>6.333333333333333</ele><time>2026-04-28T10:34:53.04Z</time></trkpt><trkpt lat="35.62897" lon="-5.9741567"><ele>6.666666666666666</ele><time>2026-04-28T10:34:55.04Z</time></trkpt><trkpt lat="35.6288817" lon="-5.9740833"><ele>7.0</ele><time>2026-04-28T10:34:57.039Z</time></trkpt><trkpt lat="35.6288117" lon="-5.9740233"><ele>7.333333333333333</ele><time>2026-04-28T10:34:59.04Z</time></trkpt><trkpt lat="35.6287683" lon="-5.9739667"><ele>7.666666666666666</ele><time>2026-04-28T10:35:01.04Z</time></trkpt><trkpt lat="35.6287133" lon="-5.97392"><ele>8.0</ele><time>2026-04-28T10:35:04.04Z</time></trkpt><trkpt lat="35.6286767" lon="-5.973845"><ele>7.999999999999999</ele><time>2026-04-28T10:35:17.04Z</time></trkpt><trkpt lat="35.6287017" lon="-5.9737683"><ele>8.0</ele><time>2026-04-28T10:35:20.04Z</time></trkpt><trkpt lat="35.6287717" lon="-5.9737417"><ele>8.0</ele><time>2026-04-28T10:35:23.04Z</time></trkpt><trkpt lat="35.628845" lon="-5.9737267"><ele>8.0</ele><time>2026-04-28T10:35:27.039Z</time></trkpt><trkpt lat="35.62895" lon="-5.9736983"><ele>7.999999999999999</ele><time>2026-04-28T10:36:05.04Z</time></trkpt><trkpt lat="35.6290667" lon="-5.9736683"><ele>8.0</ele><time>2026-04-28T10:36:07.04Z</time></trkpt><trkpt lat="35.6291333" lon="-5.9736517"><ele>8.0</ele><time>2026-04-28T10:36:08.04Z</time></trkpt><trkpt lat="35.6292083" lon="-5.97364"><ele>8.0</ele><time>2026-04-28T10:36:09.04Z</time></trkpt><trkpt lat="35.6292967" lon="-5.9736283"><ele>8.0</ele><time>2026-04-28T10:36:10.04Z</time></trkpt><trkpt lat="35.6293933" lon="-5.9736083"><ele>8.0</ele><time>2026-04-28T10:36:11.04Z</time></trkpt><trkpt lat="35.6294983" lon="-5.973575"><ele>8.0</ele><time>2026-04-28T10:36:12.04Z</time></trkpt><trkpt lat="35.629605" lon="-5.9735333"><ele>7.5</ele><time>2026-04-28T10:36:13.039Z</time></trkpt><trkpt lat="35.6297183" lon="-5.9734883"><ele>7.0</ele><time>2026-04-28T10:36:14.04Z</time></trkpt><trkpt lat="35.629845" lon="-5.9734517"><ele>6.5</ele><time>2026-04-28T10:36:15.04Z</time></trkpt><trkpt lat="35.6299733" lon="-5.97342"><ele>6.0</ele><time>2026-04-28T10:36:16.04Z</time></trkpt><trkpt lat="35.630105" lon="-5.9733833"><ele>6.0</ele><time>2026-04-28T10:36:17.04Z</time></trkpt><trkpt lat="35.6302417" lon="-5.9733433"><ele>6.0</ele><time>2026-04-28T10:36:18.04Z</time></trkpt><trkpt lat="35.6303867" lon="-5.973305"><ele>6.0</ele><time>2026-04-28T10:36:19.04Z</time></trkpt><trkpt lat="35.6305317" lon="-5.973265"><ele>6.0</ele><time>2026-04-28T10:36:20.04Z</time></trkpt><trkpt lat="35.63068" lon="-5.973225"><ele>6.0</ele><time>2026-04-28T10:36:21.04Z</time></trkpt><trkpt lat="35.6308317" lon="-5.9731883"><ele>6.0</ele><time>2026-04-28T10:36:22.04Z</time></trkpt><trkpt lat="35.6309883" lon="-5.9731533"><ele>6.0</ele><time>2026-04-28T10:36:23.04Z</time></trkpt><trkpt lat="35.631145" lon="-5.973115"><ele>6.0</ele><time>2026-04-28T10:36:24.04Z</time></trkpt><trkpt lat="35.6313033" lon="-5.9730833"><ele>6.0</ele><time>2026-04-28T10:36:25.04Z</time></trkpt><trkpt lat="35.6314567" lon="-5.973045"><ele>6.0</ele><time>2026-04-28T10:36:26.04Z</time></trkpt><trkpt lat="35.6316083" lon="-5.9730017"><ele>6.0</ele><time>2026-04-28T10:36:27.04Z</time></trkpt><trkpt lat="35.6317633" lon="-5.9729567"><ele>6.0</ele><time>2026-04-28T10:36:28.04Z</time></trkpt><trkpt lat="35.6319167" lon="-5.9729233"><ele>6.0</ele><time>2026-04-28T10:36:29.04Z</time></trkpt><trkpt lat="35.6320733" lon="-5.9728883"><ele>6.0</ele><time>2026-04-28T10:36:30.04Z</time></trkpt><trkpt lat="35.6322317" lon="-5.9728517"><ele>6.0</ele><time>2026-04-28T10:36:31.04Z</time></trkpt><trkpt lat="35.632395" lon="-5.9728167"><ele>6.0</ele><time>2026-04-28T10:36:32.04Z</time></trkpt><trkpt lat="35.6325617" lon="-5.972775"><ele>6.0</ele><time>2026-04-28T10:36:33.04Z</time></trkpt><trkpt lat="35.6327283" lon="-5.9727383"><ele>6.0</ele><time>2026-04-28T10:36:34.04Z</time></trkpt><trkpt lat="35.6328983" lon="-5.9727"><ele>6.0</ele><time>2026-04-28T10:36:35.04Z</time></trkpt><trkpt lat="35.6330733" lon="-5.972665"><ele>6.666666666666666</ele><time>2026-04-28T10:36:36.039Z</time></trkpt><trkpt lat="35.63325" lon="-5.972635"><ele>7.333333333333333</ele><time>2026-04-28T10:36:37.04Z</time></trkpt><trkpt lat="35.6334233" lon="-5.9726"><ele>8.0</ele><time>2026-04-28T10:36:38.04Z</time></trkpt><trkpt lat="35.6335983" lon="-5.9725583"><ele>9.666666666666666</ele><time>2026-04-28T10:36:39.04Z</time></trkpt><trkpt lat="35.6337817" lon="-5.9725217"><ele>11.333333333333332</ele><time>2026-04-28T10:36:40.04Z</time></trkpt><trkpt lat="35.6339617" lon="-5.9724867"><ele>13.0</ele><time>2026-04-28T10:36:41.04Z</time></trkpt><trkpt lat="35.6341467" lon="-5.97245"><ele>13.0</ele><time>2026-04-28T10:36:42.04Z</time></trkpt><trkpt lat="35.6343283" lon="-5.9724133"><ele>13.0</ele><time>2026-04-28T10:36:43.04Z</time></trkpt><trkpt lat="35.6345083" lon="-5.9723817"><ele>13.0</ele><time>2026-04-28T10:36:44.04Z</time></trkpt><trkpt lat="35.634685" lon="-5.9723483"><ele>13.0</ele><time>2026-04-28T10:36:45.04Z</time></trkpt><trkpt lat="35.6348483" lon="-5.9723083"><ele>13.0</ele><time>2026-04-28T10:36:46.039Z</time></trkpt><trkpt lat="35.6350117" lon="-5.97227"><ele>13.0</ele><time>2026-04-28T10:36:47.04Z</time></trkpt><trkpt lat="35.635175" lon="-5.9722467"><ele>12.333333333333332</ele><time>2026-04-28T10:36:48.04Z</time></trkpt><trkpt lat="35.635335" lon="-5.972225"><ele>11.666666666666666</ele><time>2026-04-28T10:36:49.04Z</time></trkpt><trkpt lat="35.6354967" lon="-5.9722"><ele>11.0</ele><time>2026-04-28T10:36:50.04Z</time></trkpt><trkpt lat="35.6356617" lon="-5.972175"><ele>11.0</ele><time>2026-04-28T10:36:51.04Z</time></trkpt><trkpt lat="35.63583" lon="-5.9721517"><ele>11.0</ele><time>2026-04-28T10:36:52.04Z</time></trkpt><trkpt lat="35.6360017" lon="-5.9721217"><ele>11.0</ele><time>2026-04-28T10:36:53.04Z</time></trkpt><trkpt lat="35.6361683" lon="-5.9720983"><ele>10.666666666666666</ele><time>2026-04-28T10:36:54.039Z</time></trkpt><trkpt lat="35.6363417" lon="-5.97207"><ele>10.333333333333334</ele><time>2026-04-28T10:36:55.04Z</time></trkpt><trkpt lat="35.636515" lon="-5.9720467"><ele>10.0</ele><time>2026-04-28T10:36:56.04Z</time></trkpt><trkpt lat="35.6366917" lon="-5.9720133"><ele>10.0</ele><time>2026-04-28T10:36:57.04Z</time></trkpt><trkpt lat="35.636865" lon="-5.971985"><ele>10.0</ele><time>2026-04-28T10:36:58.04Z</time></trkpt><trkpt lat="35.63704" lon="-5.9719483"><ele>10.0</ele><time>2026-04-28T10:36:59.039Z</time></trkpt><trkpt lat="35.6372183" lon="-5.9719183"><ele>10.0</ele><time>2026-04-28T10:37:00.04Z</time></trkpt><trkpt lat="35.6373933" lon="-5.9718917"><ele>10.0</ele><time>2026-04-28T10:37:01.04Z</time></trkpt><trkpt lat="35.6375733" lon="-5.9718633"><ele>10.0</ele><time>2026-04-28T10:37:02.04Z</time></trkpt><trkpt lat="35.63775" lon="-5.97184"><ele>9.666666666666668</ele><time>2026-04-28T10:37:03.04Z</time></trkpt><trkpt lat="35.6379283" lon="-5.9718167"><ele>9.333333333333334</ele><time>2026-04-28T10:37:04.04Z</time></trkpt><trkpt lat="35.6381067" lon="-5.9717983"><ele>9.0</ele><time>2026-04-28T10:37:05.04Z</time></trkpt><trkpt lat="35.6382817" lon="-5.971775"><ele>9.0</ele><time>2026-04-28T10:37:06.04Z</time></trkpt><trkpt lat="35.63846" lon="-5.9717467"><ele>9.0</ele><time>2026-04-28T10:37:07.04Z</time></trkpt><trkpt lat="35.638635" lon="-5.9717217"><ele>9.0</ele><time>2026-04-28T10:37:08.04Z</time></trkpt><trkpt lat="35.6388167" lon="-5.9717017"><ele>9.666666666666666</ele><time>2026-04-28T10:37:09.04Z</time></trkpt><trkpt lat="35.6390033" lon="-5.9716783"><ele>10.333333333333332</ele><time>2026-04-28T10:37:10.04Z</time></trkpt><trkpt lat="35.6391867" lon="-5.9716633"><ele>11.0</ele><time>2026-04-28T10:37:11.04Z</time></trkpt><trkpt lat="35.63937" lon="-5.971645"><ele>11.0</ele><time>2026-04-28T10:37:12.04Z</time></trkpt><trkpt lat="35.6395567" lon="-5.9716383"><ele>11.0</ele><time>2026-04-28T10:37:13.04Z</time></trkpt><trkpt lat="35.6397433" lon="-5.9716133"><ele>11.0</ele><time>2026-04-28T10:37:14.04Z</time></trkpt><trkpt lat="35.639925" lon="-5.9715983"><ele>11.0</ele><time>2026-04-28T10:37:15.039Z</time></trkpt><trkpt lat="35.6401117" lon="-5.9715783"><ele>11.0</ele><time>2026-04-28T10:37:16.04Z</time></trkpt><trkpt lat="35.6402933" lon="-5.9715617"><ele>11.0</ele><time>2026-04-28T10:37:17.04Z</time></trkpt><trkpt lat="35.6404783" lon="-5.971545"><ele>11.0</ele><time>2026-04-28T10:37:18.04Z</time></trkpt><trkpt lat="35.6406633" lon="-5.9715317"><ele>11.0</ele><time>2026-04-28T10:37:19.04Z</time></trkpt><trkpt lat="35.6408483" lon="-5.971515"><ele>11.0</ele><time>2026-04-28T10:37:20.04Z</time></trkpt><trkpt lat="35.6410367" lon="-5.971505"><ele>10.666666666666666</ele><time>2026-04-28T10:37:21.04Z</time></trkpt><trkpt lat="35.6412267" lon="-5.9714883"><ele>10.333333333333334</ele><time>2026-04-28T10:37:22.04Z</time></trkpt><trkpt lat="35.6414167" lon="-5.9714717"><ele>10.0</ele><time>2026-04-28T10:37:23.04Z</time></trkpt><trkpt lat="35.6416117" lon="-5.971455"><ele>10.0</ele><time>2026-04-28T10:37:24.04Z</time></trkpt><trkpt lat="35.6418033" lon="-5.97144"><ele>10.0</ele><time>2026-04-28T10:37:25.039Z</time></trkpt><trkpt lat="35.6419967" lon="-5.97142"><ele>10.0</ele><time>2026-04-28T10:37:26.04Z</time></trkpt><trkpt lat="35.6421867" lon="-5.9714067"><ele>9.666666666666668</ele><time>2026-04-28T10:37:27.04Z</time></trkpt><trkpt lat="35.6423767" lon="-5.9713967"><ele>9.333333333333334</ele><time>2026-04-28T10:37:28.04Z</time></trkpt><trkpt lat="35.64257" lon="-5.9713883"><ele>9.0</ele><time>2026-04-28T10:37:29.04Z</time></trkpt><trkpt lat="35.642765" lon="-5.9713767"><ele>9.0</ele><time>2026-04-28T10:37:30.04Z</time></trkpt><trkpt lat="35.6429567" lon="-5.9713667"><ele>9.0</ele><time>2026-04-28T10:37:31.04Z</time></trkpt><trkpt lat="35.643155" lon="-5.9713567"><ele>9.0</ele><time>2026-04-28T10:37:32.04Z</time></trkpt><trkpt lat="35.6433517" lon="-5.971345"><ele>9.0</ele><time>2026-04-28T10:37:33.04Z</time></trkpt><trkpt lat="35.6435483" lon="-5.971335"><ele>9.0</ele><time>2026-04-28T10:37:34.04Z</time></trkpt><trkpt lat="35.6437417" lon="-5.97133"><ele>9.0</ele><time>2026-04-28T10:37:35.04Z</time></trkpt><trkpt lat="35.6439367" lon="-5.97132"><ele>8.666666666666666</ele><time>2026-04-28T10:37:36.04Z</time></trkpt><trkpt lat="35.6441283" lon="-5.9713117"><ele>8.333333333333332</ele><time>2026-04-28T10:37:37.04Z</time></trkpt><trkpt lat="35.6443217" lon="-5.9713017"><ele>8.0</ele><time>2026-04-28T10:37:38.04Z</time></trkpt><trkpt lat="35.6445167" lon="-5.971295"><ele>7.666666666666666</ele><time>2026-04-28T10:37:39.04Z</time></trkpt><trkpt lat="35.6447117" lon="-5.971285"><ele>7.333333333333334</ele><time>2026-04-28T10:37:40.04Z</time></trkpt><trkpt lat="35.644905" lon="-5.9712717"><ele>7.0</ele><time>2026-04-28T10:37:41.04Z</time></trkpt><trkpt lat="35.6450983" lon="-5.9712667"><ele>7.0</ele><time>2026-04-28T10:37:42.04Z</time></trkpt><trkpt lat="35.6452883" lon="-5.971265"><ele>7.0</ele><time>2026-04-28T10:37:43.04Z</time></trkpt><trkpt lat="35.645475" lon="-5.9712583"><ele>7.0</ele><time>2026-04-28T10:37:44.04Z</time></trkpt><trkpt lat="35.64566" lon="-5.9712483"><ele>7.0</ele><time>2026-04-28T10:37:45.039Z</time></trkpt><trkpt lat="35.6458483" lon="-5.971235"><ele>7.0</ele><time>2026-04-28T10:37:46.04Z</time></trkpt><trkpt lat="35.646035" lon="-5.97123"><ele>7.0</ele><time>2026-04-28T10:37:47.04Z</time></trkpt><trkpt lat="35.6462217" lon="-5.9712183"><ele>7.0</ele><time>2026-04-28T10:37:48.04Z</time></trkpt><trkpt lat="35.6464067" lon="-5.971205"><ele>7.0</ele><time>2026-04-28T10:37:49.04Z</time></trkpt><trkpt lat="35.6465933" lon="-5.971195"><ele>7.0</ele><time>2026-04-28T10:37:50.04Z</time></trkpt><trkpt lat="35.6467783" lon="-5.97119"><ele>7.0</ele><time>2026-04-28T10:37:51.04Z</time></trkpt><trkpt lat="35.6469667" lon="-5.9711883"><ele>7.0</ele><time>2026-04-28T10:37:52.04Z</time></trkpt><trkpt lat="35.64715" lon="-5.9711733"><ele>7.0</ele><time>2026-04-28T10:37:53.039Z</time></trkpt><trkpt lat="35.6473383" lon="-5.971165"><ele>7.0</ele><time>2026-04-28T10:37:54.04Z</time></trkpt><trkpt lat="35.647525" lon="-5.97116"><ele>7.0</ele><time>2026-04-28T10:37:55.04Z</time></trkpt><trkpt lat="35.6477167" lon="-5.97115"><ele>7.0</ele><time>2026-04-28T10:37:56.04Z</time></trkpt><trkpt lat="35.6479033" lon="-5.97114"><ele>7.666666666666667</ele><time>2026-04-28T10:37:57.04Z</time></trkpt><trkpt lat="35.6480917" lon="-5.9711317"><ele>8.333333333333334</ele><time>2026-04-28T10:37:58.04Z</time></trkpt><trkpt lat="35.6482783" lon="-5.9711217"><ele>9.0</ele><time>2026-04-28T10:37:59.04Z</time></trkpt><trkpt lat="35.6484683" lon="-5.9711133"><ele>9.0</ele><time>2026-04-28T10:38:00.04Z</time></trkpt><trkpt lat="35.6486617" lon="-5.9711033"><ele>9.0</ele><time>2026-04-28T10:38:01.04Z</time></trkpt><trkpt lat="35.6488483" lon="-5.9710983"><ele>9.0</ele><time>2026-04-28T10:38:02.04Z</time></trkpt><trkpt lat="35.6490383" lon="-5.9710833"><ele>9.0</ele><time>2026-04-28T10:38:03.04Z</time></trkpt><trkpt lat="35.649225" lon="-5.9710717"><ele>9.0</ele><time>2026-04-28T10:38:04.039Z</time></trkpt><trkpt lat="35.6494133" lon="-5.9710617"><ele>9.0</ele><time>2026-04-28T10:38:05.04Z</time></trkpt><trkpt lat="35.6496083" lon="-5.9710467"><ele>8.333333333333334</ele><time>2026-04-28T10:38:06.04Z</time></trkpt><trkpt lat="35.6498" lon="-5.971025"><ele>7.666666666666667</ele><time>2026-04-28T10:38:07.039Z</time></trkpt><trkpt lat="35.6499917" lon="-5.9710017"><ele>7.0</ele><time>2026-04-28T10:38:08.04Z</time></trkpt><trkpt lat="35.650185" lon="-5.9709717"><ele>7.0</ele><time>2026-04-28T10:38:09.04Z</time></trkpt><trkpt lat="35.6503667" lon="-5.970935"><ele>7.0</ele><time>2026-04-28T10:38:10.04Z</time></trkpt><trkpt lat="35.65056" lon="-5.9708917"><ele>7.0</ele><time>2026-04-28T10:38:11.04Z</time></trkpt><trkpt lat="35.6507533" lon="-5.9708367"><ele>7.0</ele><time>2026-04-28T10:38:12.04Z</time></trkpt><trkpt lat="35.650935" lon="-5.9707817"><ele>7.0</ele><time>2026-04-28T10:38:13.04Z</time></trkpt><trkpt lat="35.65112" lon="-5.9707233"><ele>7.0</ele><time>2026-04-28T10:38:14.039Z</time></trkpt><trkpt lat="35.6513067" lon="-5.97066"><ele>7.333333333333334</ele><time>2026-04-28T10:38:15.04Z</time></trkpt><trkpt lat="35.65149" lon="-5.9705883"><ele>7.666666666666666</ele><time>2026-04-28T10:38:16.04Z</time></trkpt><trkpt lat="35.6516733" lon="-5.9705183"><ele>8.0</ele><time>2026-04-28T10:38:17.04Z</time></trkpt><trkpt lat="35.6518533" lon="-5.9704383"><ele>8.0</ele><time>2026-04-28T10:38:18.04Z</time></trkpt><trkpt lat="35.65203" lon="-5.970355"><ele>8.0</ele><time>2026-04-28T10:38:19.04Z</time></trkpt><trkpt lat="35.65221" lon="-5.9702717"><ele>8.0</ele><time>2026-04-28T10:38:20.04Z</time></trkpt><trkpt lat="35.65239" lon="-5.9701833"><ele>8.0</ele><time>2026-04-28T10:38:21.04Z</time></trkpt><trkpt lat="35.652565" lon="-5.9700883"><ele>8.0</ele><time>2026-04-28T10:38:22.04Z</time></trkpt><trkpt lat="35.6527383" lon="-5.9699933"><ele>8.0</ele><time>2026-04-28T10:38:23.04Z</time></trkpt><trkpt lat="35.6529133" lon="-5.9698917"><ele>7.666666666666666</ele><time>2026-04-28T10:38:24.039Z</time></trkpt><trkpt lat="35.6530867" lon="-5.9697867"><ele>7.333333333333334</ele><time>2026-04-28T10:38:25.04Z</time></trkpt><trkpt lat="35.653245" lon="-5.9696833"><ele>7.0</ele><time>2026-04-28T10:38:26.039Z</time></trkpt><trkpt lat="35.65339" lon="-5.9695767"><ele>7.0</ele><time>2026-04-28T10:38:27.04Z</time></trkpt><trkpt lat="35.653525" lon="-5.9694633"><ele>7.0</ele><time>2026-04-28T10:38:28.039Z</time></trkpt><trkpt lat="35.6536583" lon="-5.9693583"><ele>7.0</ele><time>2026-04-28T10:38:29.039Z</time></trkpt><trkpt lat="35.6537883" lon="-5.9692583"><ele>7.75</ele><time>2026-04-28T10:38:30.04Z</time></trkpt><trkpt lat="35.6539117" lon="-5.9691583"><ele>8.5</ele><time>2026-04-28T10:38:31.04Z</time></trkpt><trkpt lat="35.6540317" lon="-5.9690567"><ele>9.25</ele><time>2026-04-28T10:38:32.04Z</time></trkpt><trkpt lat="35.6541467" lon="-5.9689533"><ele>10.0</ele><time>2026-04-28T10:38:33.039Z</time></trkpt><trkpt lat="35.6542567" lon="-5.96885"><ele>10.0</ele><time>2026-04-28T10:38:34.04Z</time></trkpt><trkpt lat="35.6543617" lon="-5.968745"><ele>10.0</ele><time>2026-04-28T10:38:35.04Z</time></trkpt><trkpt lat="35.654465" lon="-5.96864"><ele>10.0</ele><time>2026-04-28T10:38:36.04Z</time></trkpt><trkpt lat="35.65457" lon="-5.9685317"><ele>10.0</ele><time>2026-04-28T10:38:37.04Z</time></trkpt><trkpt lat="35.6546817" lon="-5.96842"><ele>9.0</ele><time>2026-04-28T10:38:38.04Z</time></trkpt><trkpt lat="35.6547883" lon="-5.9683033"><ele>8.0</ele><time>2026-04-28T10:38:39.039Z</time></trkpt><trkpt lat="35.6548883" lon="-5.96818"><ele>7.0</ele><time>2026-04-28T10:38:40.039Z</time></trkpt><trkpt lat="35.65499" lon="-5.9680583"><ele>6.0</ele><time>2026-04-28T10:38:41.04Z</time></trkpt><trkpt lat="35.6550967" lon="-5.9679333"><ele>6.0</ele><time>2026-04-28T10:38:42.039Z</time></trkpt><trkpt lat="35.6552033" lon="-5.967805"><ele>6.0</ele><time>2026-04-28T10:38:43.039Z</time></trkpt><trkpt lat="35.6553083" lon="-5.967675"><ele>6.0</ele><time>2026-04-28T10:38:44.04Z</time></trkpt><trkpt lat="35.6554083" lon="-5.967545"><ele>6.0</ele><time>2026-04-28T10:38:45.04Z</time></trkpt><trkpt lat="35.6555117" lon="-5.96741"><ele>6.0</ele><time>2026-04-28T10:38:46.04Z</time></trkpt><trkpt lat="35.6556183" lon="-5.967275"><ele>6.0</ele><time>2026-04-28T10:38:47.04Z</time></trkpt><trkpt lat="35.6557233" lon="-5.9671283"><ele>6.0</ele><time>2026-04-28T10:38:48.04Z</time></trkpt><trkpt lat="35.65582" lon="-5.9669783"><ele>6.0</ele><time>2026-04-28T10:38:49.04Z</time></trkpt><trkpt lat="35.6559117" lon="-5.9668283"><ele>6.0</ele><time>2026-04-28T10:38:50.039Z</time></trkpt><trkpt lat="35.656005" lon="-5.96667"><ele>6.0</ele><time>2026-04-28T10:38:51.04Z</time></trkpt><trkpt lat="35.6561067" lon="-5.9665133"><ele>5.666666666666667</ele><time>2026-04-28T10:38:52.04Z</time></trkpt><trkpt lat="35.6562067" lon="-5.9663517"><ele>5.333333333333334</ele><time>2026-04-28T10:38:53.04Z</time></trkpt><trkpt lat="35.656305" lon="-5.9661817"><ele>5.0</ele><time>2026-04-28T10:38:54.04Z</time></trkpt><trkpt lat="35.6564033" lon="-5.96601"><ele>5.0</ele><time>2026-04-28T10:38:55.04Z</time></trkpt><trkpt lat="35.6564983" lon="-5.96583"><ele>5.0</ele><time>2026-04-28T10:38:56.04Z</time></trkpt><trkpt lat="35.65659" lon="-5.96565"><ele>5.0</ele><time>2026-04-28T10:38:57.04Z</time></trkpt><trkpt lat="35.6566767" lon="-5.9654717"><ele>5.0</ele><time>2026-04-28T10:38:58.04Z</time></trkpt><trkpt lat="35.6567583" lon="-5.9652883"><ele>5.0</ele><time>2026-04-28T10:38:59.04Z</time></trkpt><trkpt lat="35.6568333" lon="-5.9651067"><ele>5.0</ele><time>2026-04-28T10:39:00.04Z</time></trkpt><trkpt lat="35.6569067" lon="-5.9649217"><ele>5.333333333333334</ele><time>2026-04-28T10:39:01.04Z</time></trkpt><trkpt lat="35.6569767" lon="-5.96473"><ele>5.666666666666667</ele><time>2026-04-28T10:39:02.04Z</time></trkpt><trkpt lat="35.6570467" lon="-5.9645317"><ele>6.0</ele><time>2026-04-28T10:39:03.04Z</time></trkpt><trkpt lat="35.657115" lon="-5.9643267"><ele>6.333333333333334</ele><time>2026-04-28T10:39:04.04Z</time></trkpt><trkpt lat="35.65719" lon="-5.9641283"><ele>6.666666666666667</ele><time>2026-04-28T10:39:05.04Z</time></trkpt><trkpt lat="35.6572633" lon="-5.9639283"><ele>7.0</ele><time>2026-04-28T10:39:06.04Z</time></trkpt><trkpt lat="35.6573367" lon="-5.96373"><ele>7.0</ele><time>2026-04-28T10:39:07.04Z</time></trkpt><trkpt lat="35.657415" lon="-5.9635333"><ele>7.0</ele><time>2026-04-28T10:39:08.04Z</time></trkpt><trkpt lat="35.6574917" lon="-5.9633267"><ele>7.0</ele><time>2026-04-28T10:39:09.04Z</time></trkpt><trkpt lat="35.6575683" lon="-5.9631217"><ele>7.666666666666667</ele><time>2026-04-28T10:39:10.04Z</time></trkpt><trkpt lat="35.6576483" lon="-5.9629233"><ele>8.333333333333334</ele><time>2026-04-28T10:39:11.04Z</time></trkpt><trkpt lat="35.6577233" lon="-5.9627217"><ele>9.0</ele><time>2026-04-28T10:39:12.04Z</time></trkpt><trkpt lat="35.6577983" lon="-5.9625083"><ele>9.333333333333334</ele><time>2026-04-28T10:39:13.04Z</time></trkpt><trkpt lat="35.6578767" lon="-5.9622967"><ele>9.666666666666668</ele><time>2026-04-28T10:39:14.039Z</time></trkpt><trkpt lat="35.6579583" lon="-5.96209"><ele>10.0</ele><time>2026-04-28T10:39:15.04Z</time></trkpt><trkpt lat="35.6580333" lon="-5.9618783"><ele>10.333333333333334</ele><time>2026-04-28T10:39:16.04Z</time></trkpt><trkpt lat="35.6581083" lon="-5.961665"><ele>10.666666666666666</ele><time>2026-04-28T10:39:17.039Z</time></trkpt><trkpt lat="35.658185" lon="-5.9614567"><ele>11.0</ele><time>2026-04-28T10:39:18.04Z</time></trkpt><trkpt lat="35.6582617" lon="-5.9612467"><ele>11.0</ele><time>2026-04-28T10:39:19.04Z</time></trkpt><trkpt lat="35.6583383" lon="-5.9610417"><ele>11.0</ele><time>2026-04-28T10:39:20.04Z</time></trkpt><trkpt lat="35.658415" lon="-5.9608317"><ele>11.0</ele><time>2026-04-28T10:39:21.04Z</time></trkpt><trkpt lat="35.6584883" lon="-5.9606317"><ele>10.666666666666666</ele><time>2026-04-28T10:39:22.04Z</time></trkpt><trkpt lat="35.6585583" lon="-5.9604317"><ele>10.333333333333334</ele><time>2026-04-28T10:39:23.04Z</time></trkpt><trkpt lat="35.6586283" lon="-5.96024"><ele>10.0</ele><time>2026-04-28T10:39:24.04Z</time></trkpt><trkpt lat="35.6586967" lon="-5.9600533"><ele>12.333333333333334</ele><time>2026-04-28T10:39:25.04Z</time></trkpt><trkpt lat="35.6587683" lon="-5.9598617"><ele>14.666666666666668</ele><time>2026-04-28T10:39:26.039Z</time></trkpt><trkpt lat="35.6588417" lon="-5.9596667"><ele>17.0</ele><time>2026-04-28T10:39:27.04Z</time></trkpt><trkpt lat="35.65892" lon="-5.9594883"><ele>17.0</ele><time>2026-04-28T10:39:28.04Z</time></trkpt><trkpt lat="35.6589933" lon="-5.95931"><ele>17.0</ele><time>2026-04-28T10:39:29.04Z</time></trkpt><trkpt lat="35.6590583" lon="-5.9591467"><ele>17.0</ele><time>2026-04-28T10:39:30.04Z</time></trkpt><trkpt lat="35.6591067" lon="-5.959"><ele>17.0</ele><time>2026-04-28T10:39:31.04Z</time></trkpt><trkpt lat="35.659155" lon="-5.9588683"><ele>17.25</ele><time>2026-04-28T10:39:32.04Z</time></trkpt><trkpt lat="35.6592033" lon="-5.9587417"><ele>17.5</ele><time>2026-04-28T10:39:33.04Z</time></trkpt><trkpt lat="35.6592533" lon="-5.9586183"><ele>17.75</ele><time>2026-04-28T10:39:34.04Z</time></trkpt><trkpt lat="35.65931" lon="-5.958485"><ele>18.0</ele><time>2026-04-28T10:39:35.04Z</time></trkpt><trkpt lat="35.6593683" lon="-5.9583467"><ele>18.5</ele><time>2026-04-28T10:39:36.039Z</time></trkpt><trkpt lat="35.6594333" lon="-5.9582017"><ele>19.0</ele><time>2026-04-28T10:39:37.04Z</time></trkpt><trkpt lat="35.6594933" lon="-5.9580417"><ele>19.5</ele><time>2026-04-28T10:39:38.04Z</time></trkpt><trkpt lat="35.65956" lon="-5.9578717"><ele>20.0</ele><time>2026-04-28T10:39:39.04Z</time></trkpt><trkpt lat="35.6596333" lon="-5.9576833"><ele>21.333333333333336</ele><time>2026-04-28T10:39:40.04Z</time></trkpt><trkpt lat="35.659705" lon="-5.9574833"><ele>22.666666666666668</ele><time>2026-04-28T10:39:41.04Z</time></trkpt><trkpt lat="35.659775" lon="-5.9572833"><ele>24.0</ele><time>2026-04-28T10:39:42.04Z</time></trkpt><trkpt lat="35.6598383" lon="-5.9570833"><ele>24.0</ele><time>2026-04-28T10:39:43.04Z</time></trkpt><trkpt lat="35.659895" lon="-5.9569083"><ele>24.0</ele><time>2026-04-28T10:39:44.04Z</time></trkpt><trkpt lat="35.65995" lon="-5.9567283"><ele>24.0</ele><time>2026-04-28T10:39:45.04Z</time></trkpt><trkpt lat="35.6600083" lon="-5.9565517"><ele>24.666666666666664</ele><time>2026-04-28T10:39:46.04Z</time></trkpt><trkpt lat="35.66007" lon="-5.95638"><ele>25.333333333333332</ele><time>2026-04-28T10:39:47.04Z</time></trkpt><trkpt lat="35.6601317" lon="-5.9562033"><ele>26.0</ele><time>2026-04-28T10:39:48.039Z</time></trkpt><trkpt lat="35.6601833" lon="-5.956035"><ele>26.0</ele><time>2026-04-28T10:39:49.039Z</time></trkpt><trkpt lat="35.6602367" lon="-5.9558717"><ele>26.0</ele><time>2026-04-28T10:39:50.04Z</time></trkpt><trkpt lat="35.6602933" lon="-5.9557217"><ele>26.0</ele><time>2026-04-28T10:39:51.039Z</time></trkpt><trkpt lat="35.6603533" lon="-5.9555783"><ele>26.0</ele><time>2026-04-28T10:39:52.04Z</time></trkpt><trkpt lat="35.6604117" lon="-5.955435"><ele>24.0</ele><time>2026-04-28T10:39:53.04Z</time></trkpt><trkpt lat="35.6604583" lon="-5.9552883"><ele>22.0</ele><time>2026-04-28T10:39:54.04Z</time></trkpt><trkpt lat="35.66051" lon="-5.955135"><ele>20.0</ele><time>2026-04-28T10:39:55.04Z</time></trkpt><trkpt lat="35.6605667" lon="-5.954975"><ele>18.0</ele><time>2026-04-28T10:39:56.04Z</time></trkpt><trkpt lat="35.6606217" lon="-5.9548133"><ele>18.0</ele><time>2026-04-28T10:39:57.04Z</time></trkpt><trkpt lat="35.6606817" lon="-5.95465"><ele>18.0</ele><time>2026-04-28T10:39:58.04Z</time></trkpt><trkpt lat="35.66074" lon="-5.95447"><ele>18.0</ele><time>2026-04-28T10:39:59.039Z</time></trkpt><trkpt lat="35.660805" lon="-5.9542883"><ele>19.5</ele><time>2026-04-28T10:40:00.04Z</time></trkpt><trkpt lat="35.6608767" lon="-5.9541267"><ele>21.0</ele><time>2026-04-28T10:40:01.04Z</time></trkpt><trkpt lat="35.660945" lon="-5.9539683"><ele>22.5</ele><time>2026-04-28T10:40:02.04Z</time></trkpt><trkpt lat="35.66101" lon="-5.9537983"><ele>24.0</ele><time>2026-04-28T10:40:03.04Z</time></trkpt><trkpt lat="35.6610833" lon="-5.9536283"><ele>20.666666666666668</ele><time>2026-04-28T10:40:04.04Z</time></trkpt><trkpt lat="35.6611483" lon="-5.9534633"><ele>17.333333333333336</ele><time>2026-04-28T10:40:05.04Z</time></trkpt><trkpt lat="35.6612167" lon="-5.9532967"><ele>14.0</ele><time>2026-04-28T10:40:06.04Z</time></trkpt><trkpt lat="35.66128" lon="-5.95312"><ele>14.0</ele><time>2026-04-28T10:40:07.04Z</time></trkpt><trkpt lat="35.6613417" lon="-5.9529417"><ele>14.0</ele><time>2026-04-28T10:40:08.04Z</time></trkpt><trkpt lat="35.6614033" lon="-5.9527667"><ele>14.0</ele><time>2026-04-28T10:40:09.04Z</time></trkpt><trkpt lat="35.6614683" lon="-5.95259"><ele>16.333333333333336</ele><time>2026-04-28T10:40:10.04Z</time></trkpt><trkpt lat="35.661535" lon="-5.9524183"><ele>18.666666666666668</ele><time>2026-04-28T10:40:11.04Z</time></trkpt><trkpt lat="35.6615983" lon="-5.9522467"><ele>21.0</ele><time>2026-04-28T10:40:12.04Z</time></trkpt><trkpt lat="35.661665" lon="-5.9520767"><ele>21.0</ele><time>2026-04-28T10:40:13.04Z</time></trkpt><trkpt lat="35.66173" lon="-5.951905"><ele>21.0</ele><time>2026-04-28T10:40:14.04Z</time></trkpt><trkpt lat="35.661795" lon="-5.9517383"><ele>21.0</ele><time>2026-04-28T10:40:15.04Z</time></trkpt><trkpt lat="35.661855" lon="-5.9515717"><ele>22.75</ele><time>2026-04-28T10:40:16.04Z</time></trkpt><trkpt lat="35.661915" lon="-5.9514067"><ele>24.5</ele><time>2026-04-28T10:40:17.04Z</time></trkpt><trkpt lat="35.6619783" lon="-5.951245"><ele>26.25</ele><time>2026-04-28T10:40:18.04Z</time></trkpt><trkpt lat="35.6620433" lon="-5.9510767"><ele>28.0</ele><time>2026-04-28T10:40:19.04Z</time></trkpt><trkpt lat="35.6621" lon="-5.950905"><ele>23.0</ele><time>2026-04-28T10:40:20.04Z</time></trkpt><trkpt lat="35.6621683" lon="-5.9507383"><ele>18.0</ele><time>2026-04-28T10:40:21.039Z</time></trkpt><trkpt lat="35.6622317" lon="-5.950565"><ele>13.0</ele><time>2026-04-28T10:40:22.039Z</time></trkpt><trkpt lat="35.662305" lon="-5.9503917"><ele>13.0</ele><time>2026-04-28T10:40:23.04Z</time></trkpt><trkpt lat="35.6623767" lon="-5.9502133"><ele>13.0</ele><time>2026-04-28T10:40:24.04Z</time></trkpt><trkpt lat="35.6624533" lon="-5.9500367"><ele>13.0</ele><time>2026-04-28T10:40:25.04Z</time></trkpt><trkpt lat="35.66253" lon="-5.949855"><ele>14.333333333333332</ele><time>2026-04-28T10:40:26.04Z</time></trkpt><trkpt lat="35.662605" lon="-5.9496733"><ele>15.666666666666668</ele><time>2026-04-28T10:40:27.04Z</time></trkpt><trkpt lat="35.6626833" lon="-5.94949"><ele>17.0</ele><time>2026-04-28T10:40:28.04Z</time></trkpt><trkpt lat="35.66276" lon="-5.9493017"><ele>15.666666666666668</ele><time>2026-04-28T10:40:29.04Z</time></trkpt><trkpt lat="35.662845" lon="-5.949115"><ele>14.333333333333332</ele><time>2026-04-28T10:40:30.04Z</time></trkpt><trkpt lat="35.66293" lon="-5.9489283"><ele>13.0</ele><time>2026-04-28T10:40:31.04Z</time></trkpt><trkpt lat="35.6630133" lon="-5.9487367"><ele>13.0</ele><time>2026-04-28T10:40:32.04Z</time></trkpt><trkpt lat="35.6630983" lon="-5.9485483"><ele>13.0</ele><time>2026-04-28T10:40:33.04Z</time></trkpt><trkpt lat="35.66318" lon="-5.9483567"><ele>13.0</ele><time>2026-04-28T10:40:34.04Z</time></trkpt><trkpt lat="35.6632767" lon="-5.9481633"><ele>14.0</ele><time>2026-04-28T10:40:35.039Z</time></trkpt><trkpt lat="35.6633683" lon="-5.9479717"><ele>15.0</ele><time>2026-04-28T10:40:36.04Z</time></trkpt><trkpt lat="35.6634583" lon="-5.9477783"><ele>16.0</ele><time>2026-04-28T10:40:37.04Z</time></trkpt><trkpt lat="35.663555" lon="-5.9475883"><ele>16.333333333333332</ele><time>2026-04-28T10:40:38.04Z</time></trkpt><trkpt lat="35.6636467" lon="-5.947395"><ele>16.666666666666668</ele><time>2026-04-28T10:40:39.04Z</time></trkpt><trkpt lat="35.663745" lon="-5.94721"><ele>17.0</ele><time>2026-04-28T10:40:40.04Z</time></trkpt><trkpt lat="35.6638383" lon="-5.9470283"><ele>17.0</ele><time>2026-04-28T10:40:41.04Z</time></trkpt><trkpt lat="35.663935" lon="-5.9468533"><ele>17.0</ele><time>2026-04-28T10:40:42.039Z</time></trkpt><trkpt lat="35.6640267" lon="-5.9466783"><ele>17.0</ele><time>2026-04-28T10:40:43.04Z</time></trkpt><trkpt lat="35.6641183" lon="-5.9465017"><ele>18.0</ele><time>2026-04-28T10:40:44.04Z</time></trkpt><trkpt lat="35.6642083" lon="-5.9463283"><ele>19.0</ele><time>2026-04-28T10:40:45.04Z</time></trkpt><trkpt lat="35.664305" lon="-5.9461517"><ele>20.0</ele><time>2026-04-28T10:40:46.04Z</time></trkpt><trkpt lat="35.6644033" lon="-5.9459783"><ele>19.666666666666668</ele><time>2026-04-28T10:40:47.04Z</time></trkpt><trkpt lat="35.6645017" lon="-5.9458083"><ele>19.333333333333332</ele><time>2026-04-28T10:40:48.04Z</time></trkpt><trkpt lat="35.6646017" lon="-5.945635"><ele>19.0</ele><time>2026-04-28T10:40:49.04Z</time></trkpt><trkpt lat="35.664705" lon="-5.9454633"><ele>19.0</ele><time>2026-04-28T10:40:50.04Z</time></trkpt><trkpt lat="35.6647983" lon="-5.94529"><ele>19.0</ele><time>2026-04-28T10:40:51.04Z</time></trkpt><trkpt lat="35.6648983" lon="-5.9451183"><ele>19.0</ele><time>2026-04-28T10:40:52.04Z</time></trkpt><trkpt lat="35.6650033" lon="-5.9449533"><ele>19.666666666666664</ele><time>2026-04-28T10:40:53.04Z</time></trkpt><trkpt lat="35.6651083" lon="-5.9447917"><ele>20.333333333333332</ele><time>2026-04-28T10:40:54.04Z</time></trkpt><trkpt lat="35.6652133" lon="-5.9446267"><ele>21.0</ele><time>2026-04-28T10:40:55.04Z</time></trkpt><trkpt lat="35.6653183" lon="-5.94446"><ele>21.0</ele><time>2026-04-28T10:40:56.04Z</time></trkpt><trkpt lat="35.6654283" lon="-5.9442933"><ele>21.0</ele><time>2026-04-28T10:40:57.04Z</time></trkpt><trkpt lat="35.665535" lon="-5.9441317"><ele>21.0</ele><time>2026-04-28T10:40:58.04Z</time></trkpt><trkpt lat="35.665645" lon="-5.9439617"><ele>21.0</ele><time>2026-04-28T10:40:59.04Z</time></trkpt><trkpt lat="35.665755" lon="-5.9437917"><ele>21.0</ele><time>2026-04-28T10:41:00.04Z</time></trkpt><trkpt lat="35.66586" lon="-5.9436267"><ele>21.0</ele><time>2026-04-28T10:41:01.04Z</time></trkpt><trkpt lat="35.6659733" lon="-5.9434633"><ele>21.0</ele><time>2026-04-28T10:41:02.04Z</time></trkpt><trkpt lat="35.6660833" lon="-5.9433033"><ele>21.0</ele><time>2026-04-28T10:41:03.039Z</time></trkpt><trkpt lat="35.6662" lon="-5.9431433"><ele>21.0</ele><time>2026-04-28T10:41:04.04Z</time></trkpt><trkpt lat="35.6663117" lon="-5.9429917"><ele>21.0</ele><time>2026-04-28T10:41:05.04Z</time></trkpt><trkpt lat="35.66643" lon="-5.9428283"><ele>21.0</ele><time>2026-04-28T10:41:06.04Z</time></trkpt><trkpt lat="35.6665467" lon="-5.94267"><ele>21.0</ele><time>2026-04-28T10:41:07.04Z</time></trkpt><trkpt lat="35.6666617" lon="-5.9425133"><ele>21.666666666666668</ele><time>2026-04-28T10:41:08.04Z</time></trkpt><trkpt lat="35.6667767" lon="-5.942355"><ele>22.333333333333336</ele><time>2026-04-28T10:41:09.04Z</time></trkpt><trkpt lat="35.6669017" lon="-5.9421967"><ele>23.0</ele><time>2026-04-28T10:41:10.04Z</time></trkpt><trkpt lat="35.6670217" lon="-5.9420417"><ele>23.0</ele><time>2026-04-28T10:41:11.04Z</time></trkpt><trkpt lat="35.6671433" lon="-5.9418867"><ele>23.0</ele><time>2026-04-28T10:41:12.04Z</time></trkpt><trkpt lat="35.6672667" lon="-5.941735"><ele>23.0</ele><time>2026-04-28T10:41:13.04Z</time></trkpt><trkpt lat="35.6673883" lon="-5.9415767"><ele>23.333333333333336</ele><time>2026-04-28T10:41:14.04Z</time></trkpt><trkpt lat="35.6675083" lon="-5.9414283"><ele>23.666666666666668</ele><time>2026-04-28T10:41:15.04Z</time></trkpt><trkpt lat="35.6676283" lon="-5.94128"><ele>24.0</ele><time>2026-04-28T10:41:16.04Z</time></trkpt><trkpt lat="35.66775" lon="-5.94114"><ele>23.666666666666668</ele><time>2026-04-28T10:41:17.04Z</time></trkpt><trkpt lat="35.6678633" lon="-5.941005"><ele>23.333333333333336</ele><time>2026-04-28T10:41:18.04Z</time></trkpt><trkpt lat="35.66797" lon="-5.940875"><ele>23.0</ele><time>2026-04-28T10:41:19.04Z</time></trkpt><trkpt lat="35.6680817" lon="-5.9407417"><ele>23.666666666666668</ele><time>2026-04-28T10:41:20.04Z</time></trkpt><trkpt lat="35.668195" lon="-5.940615"><ele>24.333333333333336</ele><time>2026-04-28T10:41:21.04Z</time></trkpt><trkpt lat="35.6683117" lon="-5.9404833"><ele>25.0</ele><time>2026-04-28T10:41:22.039Z</time></trkpt><trkpt lat="35.6684267" lon="-5.9403533"><ele>25.0</ele><time>2026-04-28T10:41:23.04Z</time></trkpt><trkpt lat="35.6685467" lon="-5.9402167"><ele>25.0</ele><time>2026-04-28T10:41:24.04Z</time></trkpt><trkpt lat="35.6686717" lon="-5.9400867"><ele>25.0</ele><time>2026-04-28T10:41:25.04Z</time></trkpt><trkpt lat="35.6687933" lon="-5.9399517"><ele>25.666666666666668</ele><time>2026-04-28T10:41:26.04Z</time></trkpt><trkpt lat="35.66892" lon="-5.9398217"><ele>26.333333333333336</ele><time>2026-04-28T10:41:27.04Z</time></trkpt><trkpt lat="35.66905" lon="-5.9396883"><ele>27.0</ele><time>2026-04-28T10:41:28.04Z</time></trkpt><trkpt lat="35.6691783" lon="-5.9395517"><ele>27.0</ele><time>2026-04-28T10:41:29.04Z</time></trkpt><trkpt lat="35.6693117" lon="-5.9394117"><ele>27.0</ele><time>2026-04-28T10:41:30.04Z</time></trkpt><trkpt lat="35.6694517" lon="-5.9392817"><ele>27.0</ele><time>2026-04-28T10:41:31.039Z</time></trkpt><trkpt lat="35.669595" lon="-5.939155"><ele>27.0</ele><time>2026-04-28T10:41:32.04Z</time></trkpt><trkpt lat="35.6697433" lon="-5.9390383"><ele>27.0</ele><time>2026-04-28T10:41:33.04Z</time></trkpt><trkpt lat="35.6698967" lon="-5.9389367"><ele>27.0</ele><time>2026-04-28T10:41:34.04Z</time></trkpt><trkpt lat="35.6700567" lon="-5.9388417"><ele>27.0</ele><time>2026-04-28T10:41:35.04Z</time></trkpt><trkpt lat="35.6702183" lon="-5.9387517"><ele>27.0</ele><time>2026-04-28T10:41:36.04Z</time></trkpt><trkpt lat="35.6703867" lon="-5.9386733"><ele>27.0</ele><time>2026-04-28T10:41:37.039Z</time></trkpt><trkpt lat="35.6705633" lon="-5.9386033"><ele>27.666666666666664</ele><time>2026-04-28T10:41:38.04Z</time></trkpt><trkpt lat="35.6707333" lon="-5.9385383"><ele>28.333333333333332</ele><time>2026-04-28T10:41:39.04Z</time></trkpt><trkpt lat="35.6709133" lon="-5.938485"><ele>29.0</ele><time>2026-04-28T10:41:40.039Z</time></trkpt><trkpt lat="35.6710933" lon="-5.9384417"><ele>28.666666666666664</ele><time>2026-04-28T10:41:41.039Z</time></trkpt><trkpt lat="35.671275" lon="-5.938405"><ele>28.333333333333336</ele><time>2026-04-28T10:41:42.04Z</time></trkpt><trkpt lat="35.67146" lon="-5.9383617"><ele>28.0</ele><time>2026-04-28T10:41:43.04Z</time></trkpt><trkpt lat="35.6716483" lon="-5.93832"><ele>27.333333333333336</ele><time>2026-04-28T10:41:44.04Z</time></trkpt><trkpt lat="35.67183" lon="-5.9382817"><ele>26.666666666666664</ele><time>2026-04-28T10:41:45.04Z</time></trkpt><trkpt lat="35.67201" lon="-5.93825"><ele>26.0</ele><time>2026-04-28T10:41:46.04Z</time></trkpt><trkpt lat="35.6722" lon="-5.938215"><ele>26.0</ele><time>2026-04-28T10:41:47.04Z</time></trkpt><trkpt lat="35.672385" lon="-5.9381767"><ele>26.0</ele><time>2026-04-28T10:41:48.04Z</time></trkpt><trkpt lat="35.6725717" lon="-5.9381383"><ele>26.0</ele><time>2026-04-28T10:41:49.04Z</time></trkpt><trkpt lat="35.6727567" lon="-5.9380967"><ele>26.333333333333332</ele><time>2026-04-28T10:41:50.039Z</time></trkpt><trkpt lat="35.672945" lon="-5.9380467"><ele>26.666666666666664</ele><time>2026-04-28T10:41:51.04Z</time></trkpt><trkpt lat="35.6731317" lon="-5.9379867"><ele>27.0</ele><time>2026-04-28T10:41:52.04Z</time></trkpt><trkpt lat="35.6733183" lon="-5.937915"><ele>27.0</ele><time>2026-04-28T10:41:53.04Z</time></trkpt><trkpt lat="35.6734967" lon="-5.9378267"><ele>27.0</ele><time>2026-04-28T10:41:54.04Z</time></trkpt><trkpt lat="35.67367" lon="-5.93772"><ele>27.0</ele><time>2026-04-28T10:41:55.04Z</time></trkpt><trkpt lat="35.6738333" lon="-5.937605"><ele>25.666666666666668</ele><time>2026-04-28T10:41:56.04Z</time></trkpt><trkpt lat="35.673995" lon="-5.9374683"><ele>24.333333333333336</ele><time>2026-04-28T10:41:57.04Z</time></trkpt><trkpt lat="35.6741533" lon="-5.9373267"><ele>23.0</ele><time>2026-04-28T10:41:58.04Z</time></trkpt><trkpt lat="35.67431" lon="-5.93718"><ele>22.333333333333336</ele><time>2026-04-28T10:41:59.04Z</time></trkpt><trkpt lat="35.674455" lon="-5.937025"><ele>21.666666666666668</ele><time>2026-04-28T10:42:00.039Z</time></trkpt><trkpt lat="35.6745933" lon="-5.93686"><ele>21.0</ele><time>2026-04-28T10:42:01.04Z</time></trkpt><trkpt lat="35.67472" lon="-5.936685"><ele>21.0</ele><time>2026-04-28T10:42:02.04Z</time></trkpt><trkpt lat="35.674835" lon="-5.9365033"><ele>21.0</ele><time>2026-04-28T10:42:03.04Z</time></trkpt><trkpt lat="35.674945" lon="-5.9363167"><ele>21.0</ele><time>2026-04-28T10:42:04.04Z</time></trkpt><trkpt lat="35.6750517" lon="-5.936115"><ele>21.0</ele><time>2026-04-28T10:42:05.04Z</time></trkpt><trkpt lat="35.675145" lon="-5.9359033"><ele>21.0</ele><time>2026-04-28T10:42:06.04Z</time></trkpt><trkpt lat="35.6752283" lon="-5.935695"><ele>21.0</ele><time>2026-04-28T10:42:07.04Z</time></trkpt><trkpt lat="35.6753017" lon="-5.9354817"><ele>21.0</ele><time>2026-04-28T10:42:08.04Z</time></trkpt><trkpt lat="35.67537" lon="-5.9352683"><ele>21.0</ele><time>2026-04-28T10:42:09.039Z</time></trkpt><trkpt lat="35.6754333" lon="-5.9350483"><ele>21.0</ele><time>2026-04-28T10:42:10.039Z</time></trkpt><trkpt lat="35.6754917" lon="-5.9348217"><ele>20.0</ele><time>2026-04-28T10:42:11.04Z</time></trkpt><trkpt lat="35.6755517" lon="-5.9345933"><ele>19.0</ele><time>2026-04-28T10:42:12.04Z</time></trkpt><trkpt lat="35.6756117" lon="-5.9343633"><ele>18.0</ele><time>2026-04-28T10:42:13.04Z</time></trkpt><trkpt lat="35.6756733" lon="-5.9341333"><ele>18.0</ele><time>2026-04-28T10:42:14.04Z</time></trkpt><trkpt lat="35.6757283" lon="-5.9339033"><ele>18.0</ele><time>2026-04-28T10:42:15.04Z</time></trkpt><trkpt lat="35.6757833" lon="-5.9336783"><ele>18.0</ele><time>2026-04-28T10:42:16.04Z</time></trkpt><trkpt lat="35.6758383" lon="-5.9334467"><ele>18.333333333333332</ele><time>2026-04-28T10:42:17.04Z</time></trkpt><trkpt lat="35.6758983" lon="-5.9332217"><ele>18.666666666666664</ele><time>2026-04-28T10:42:18.04Z</time></trkpt><trkpt lat="35.675965" lon="-5.9329983"><ele>19.0</ele><time>2026-04-28T10:42:19.04Z</time></trkpt><trkpt lat="35.6760333" lon="-5.932785"><ele>18.666666666666664</ele><time>2026-04-28T10:42:20.04Z</time></trkpt><trkpt lat="35.676105" lon="-5.9325667"><ele>18.333333333333332</ele><time>2026-04-28T10:42:21.04Z</time></trkpt><trkpt lat="35.6761867" lon="-5.93235"><ele>18.0</ele><time>2026-04-28T10:42:22.04Z</time></trkpt><trkpt lat="35.6762783" lon="-5.9321417"><ele>19.0</ele><time>2026-04-28T10:42:23.04Z</time></trkpt><trkpt lat="35.6763767" lon="-5.931935"><ele>20.0</ele><time>2026-04-28T10:42:24.039Z</time></trkpt><trkpt lat="35.67648" lon="-5.931735"><ele>21.0</ele><time>2026-04-28T10:42:25.039Z</time></trkpt><trkpt lat="35.6765883" lon="-5.9315367"><ele>21.333333333333332</ele><time>2026-04-28T10:42:26.039Z</time></trkpt><trkpt lat="35.6767033" lon="-5.9313383"><ele>21.666666666666664</ele><time>2026-04-28T10:42:27.039Z</time></trkpt><trkpt lat="35.67682" lon="-5.931145"><ele>22.0</ele><time>2026-04-28T10:42:28.038Z</time></trkpt><trkpt lat="35.6769367" lon="-5.9309567"><ele>21.333333333333332</ele><time>2026-04-28T10:42:29.039Z</time></trkpt><trkpt lat="35.67706" lon="-5.9307633"><ele>20.666666666666668</ele><time>2026-04-28T10:42:30.039Z</time></trkpt><trkpt lat="35.67718" lon="-5.9305733"><ele>20.0</ele><time>2026-04-28T10:42:31.039Z</time></trkpt><trkpt lat="35.6773017" lon="-5.9303783"><ele>20.0</ele><time>2026-04-28T10:42:32.039Z</time></trkpt><trkpt lat="35.6774317" lon="-5.9301933"><ele>20.0</ele><time>2026-04-28T10:42:33.039Z</time></trkpt><trkpt lat="35.67756" lon="-5.9300017"><ele>20.0</ele><time>2026-04-28T10:42:34.039Z</time></trkpt><trkpt lat="35.67768" lon="-5.92981"><ele>19.666666666666668</ele><time>2026-04-28T10:42:35.039Z</time></trkpt><trkpt lat="35.677795" lon="-5.92961"><ele>19.333333333333332</ele><time>2026-04-28T10:42:36.039Z</time></trkpt><trkpt lat="35.6779133" lon="-5.9294133"><ele>19.0</ele><time>2026-04-28T10:42:37.039Z</time></trkpt><trkpt lat="35.67803" lon="-5.929215"><ele>19.666666666666664</ele><time>2026-04-28T10:42:38.038Z</time></trkpt><trkpt lat="35.6781417" lon="-5.9290083"><ele>20.333333333333332</ele><time>2026-04-28T10:42:39.038Z</time></trkpt><trkpt lat="35.678255" lon="-5.9288067"><ele>21.0</ele><time>2026-04-28T10:42:40.039Z</time></trkpt><trkpt lat="35.6783667" lon="-5.92861"><ele>21.0</ele><time>2026-04-28T10:42:41.038Z</time></trkpt><trkpt lat="35.6784767" lon="-5.9284183"><ele>21.0</ele><time>2026-04-28T10:42:42.039Z</time></trkpt><trkpt lat="35.678575" lon="-5.9282267"><ele>21.0</ele><time>2026-04-28T10:42:43.038Z</time></trkpt><trkpt lat="35.67868" lon="-5.9280383"><ele>20.333333333333332</ele><time>2026-04-28T10:42:44.039Z</time></trkpt><trkpt lat="35.67878" lon="-5.9278567"><ele>19.666666666666664</ele><time>2026-04-28T10:42:45.039Z</time></trkpt><trkpt lat="35.6788833" lon="-5.9276733"><ele>19.0</ele><time>2026-04-28T10:42:46.039Z</time></trkpt><trkpt lat="35.6789833" lon="-5.9274983"><ele>19.0</ele><time>2026-04-28T10:42:47.038Z</time></trkpt><trkpt lat="35.6790733" lon="-5.92732"><ele>19.0</ele><time>2026-04-28T10:42:48.038Z</time></trkpt><trkpt lat="35.679165" lon="-5.9271467"><ele>19.0</ele><time>2026-04-28T10:42:49.038Z</time></trkpt><trkpt lat="35.6792617" lon="-5.92698"><ele>19.0</ele><time>2026-04-28T10:42:50.039Z</time></trkpt><trkpt lat="35.6793583" lon="-5.9268167"><ele>19.0</ele><time>2026-04-28T10:42:51.039Z</time></trkpt><trkpt lat="35.67945" lon="-5.9266467"><ele>19.0</ele><time>2026-04-28T10:42:52.039Z</time></trkpt><trkpt lat="35.679545" lon="-5.9264867"><ele>17.333333333333332</ele><time>2026-04-28T10:42:53.039Z</time></trkpt><trkpt lat="35.6796367" lon="-5.9263217"><ele>15.666666666666668</ele><time>2026-04-28T10:42:54.039Z</time></trkpt><trkpt lat="35.6797267" lon="-5.9261583"><ele>14.0</ele><time>2026-04-28T10:42:55.039Z</time></trkpt><trkpt lat="35.6798167" lon="-5.926005"><ele>14.0</ele><time>2026-04-28T10:42:56.038Z</time></trkpt><trkpt lat="35.6799083" lon="-5.9258467"><ele>14.0</ele><time>2026-04-28T10:42:57.038Z</time></trkpt><trkpt lat="35.6800017" lon="-5.9257"><ele>14.0</ele><time>2026-04-28T10:42:58.038Z</time></trkpt><trkpt lat="35.6800983" lon="-5.925555"><ele>14.0</ele><time>2026-04-28T10:42:59.039Z</time></trkpt><trkpt lat="35.680205" lon="-5.92542"><ele>14.0</ele><time>2026-04-28T10:43:00.039Z</time></trkpt><trkpt lat="35.68031" lon="-5.9252883"><ele>14.0</ele><time>2026-04-28T10:43:01.039Z</time></trkpt><trkpt lat="35.6804133" lon="-5.925165"><ele>14.0</ele><time>2026-04-28T10:43:02.039Z</time></trkpt><trkpt lat="35.680515" lon="-5.9250533"><ele>14.5</ele><time>2026-04-28T10:43:03.039Z</time></trkpt><trkpt lat="35.6806167" lon="-5.92495"><ele>15.0</ele><time>2026-04-28T10:43:04.039Z</time></trkpt><trkpt lat="35.6807183" lon="-5.924855"><ele>15.5</ele><time>2026-04-28T10:43:05.039Z</time></trkpt><trkpt lat="35.680815" lon="-5.924765"><ele>16.0</ele><time>2026-04-28T10:43:06.039Z</time></trkpt><trkpt lat="35.6809167" lon="-5.9246783"><ele>16.0</ele><time>2026-04-28T10:43:07.039Z</time></trkpt><trkpt lat="35.6810117" lon="-5.92459"><ele>16.0</ele><time>2026-04-28T10:43:08.039Z</time></trkpt><trkpt lat="35.6811067" lon="-5.9245033"><ele>16.0</ele><time>2026-04-28T10:43:09.039Z</time></trkpt><trkpt lat="35.681195" lon="-5.9244133"><ele>16.0</ele><time>2026-04-28T10:43:10.039Z</time></trkpt><trkpt lat="35.68126" lon="-5.9243333"><ele>16.0</ele><time>2026-04-28T10:43:11.039Z</time></trkpt><trkpt lat="35.6812967" lon="-5.92423"><ele>16.166666666666664</ele><time>2026-04-28T10:43:12.038Z</time></trkpt><trkpt lat="35.6813383" lon="-5.9241433"><ele>16.333333333333332</ele><time>2026-04-28T10:43:13.039Z</time></trkpt><trkpt lat="35.6813883" lon="-5.9240583"><ele>16.5</ele><time>2026-04-28T10:43:14.039Z</time></trkpt><trkpt lat="35.68145" lon="-5.9239933"><ele>16.666666666666668</ele><time>2026-04-28T10:43:15.039Z</time></trkpt><trkpt lat="35.6815267" lon="-5.92396"><ele>16.833333333333336</ele><time>2026-04-28T10:43:16.039Z</time></trkpt><trkpt lat="35.6816117" lon="-5.9239417"><ele>17.0</ele><time>2026-04-28T10:43:17.038Z</time></trkpt><trkpt lat="35.6816983" lon="-5.9239083"><ele>17.0</ele><time>2026-04-28T10:43:18.039Z</time></trkpt><trkpt lat="35.681785" lon="-5.9238533"><ele>17.0</ele><time>2026-04-28T10:43:19.039Z</time></trkpt><trkpt lat="35.6818617" lon="-5.9237683"><ele>17.0</ele><time>2026-04-28T10:43:20.039Z</time></trkpt><trkpt lat="35.6819217" lon="-5.9236767"><ele>17.0</ele><time>2026-04-28T10:43:21.039Z</time></trkpt><trkpt lat="35.6819683" lon="-5.9235683"><ele>17.0</ele><time>2026-04-28T10:43:22.039Z</time></trkpt><trkpt lat="35.682015" lon="-5.923445"><ele>18.0</ele><time>2026-04-28T10:43:23.039Z</time></trkpt><trkpt lat="35.68205" lon="-5.9233167"><ele>19.0</ele><time>2026-04-28T10:43:24.039Z</time></trkpt><trkpt lat="35.6820767" lon="-5.923175"><ele>20.0</ele><time>2026-04-28T10:43:25.039Z</time></trkpt><trkpt lat="35.6820983" lon="-5.9230333"><ele>21.0</ele><time>2026-04-28T10:43:26.039Z</time></trkpt><trkpt lat="35.68211" lon="-5.9228867"><ele>21.0</ele><time>2026-04-28T10:43:27.039Z</time></trkpt><trkpt lat="35.6821117" lon="-5.92275"><ele>21.0</ele><time>2026-04-28T10:43:28.039Z</time></trkpt><trkpt lat="35.6821" lon="-5.9226033"><ele>21.0</ele><time>2026-04-28T10:43:29.038Z</time></trkpt><trkpt lat="35.6820817" lon="-5.9224683"><ele>21.0</ele><time>2026-04-28T10:43:30.039Z</time></trkpt><trkpt lat="35.6820483" lon="-5.92234"><ele>20.400000000000002</ele><time>2026-04-28T10:43:31.039Z</time></trkpt><trkpt lat="35.6820133" lon="-5.9222217"><ele>19.8</ele><time>2026-04-28T10:43:32.038Z</time></trkpt><trkpt lat="35.68198" lon="-5.9221133"><ele>19.200000000000003</ele><time>2026-04-28T10:43:33.039Z</time></trkpt><trkpt lat="35.6819333" lon="-5.9220133"><ele>18.6</ele><time>2026-04-28T10:43:34.039Z</time></trkpt><trkpt lat="35.68188" lon="-5.9219217"><ele>18.0</ele><time>2026-04-28T10:43:35.039Z</time></trkpt><trkpt lat="35.681825" lon="-5.9218483"><ele>17.833333333333332</ele><time>2026-04-28T10:43:36.038Z</time></trkpt><trkpt lat="35.681775" lon="-5.9217733"><ele>17.666666666666668</ele><time>2026-04-28T10:43:37.039Z</time></trkpt><trkpt lat="35.6817233" lon="-5.921715"><ele>17.5</ele><time>2026-04-28T10:43:38.039Z</time></trkpt><trkpt lat="35.68167" lon="-5.921665"><ele>17.333333333333336</ele><time>2026-04-28T10:43:39.039Z</time></trkpt><trkpt lat="35.68157" lon="-5.9215833"><ele>17.166666666666668</ele><time>2026-04-28T10:43:41.039Z</time></trkpt><trkpt lat="35.681485" lon="-5.9214983"><ele>17.0</ele><time>2026-04-28T10:43:43.039Z</time></trkpt><trkpt lat="35.6814283" lon="-5.9213683"><ele>17.0</ele><time>2026-04-28T10:43:45.038Z</time></trkpt><trkpt lat="35.681425" lon="-5.9212883"><ele>17.0</ele><time>2026-04-28T10:43:46.039Z</time></trkpt><trkpt lat="35.6814783" lon="-5.9211533"><ele>17.0</ele><time>2026-04-28T10:43:48.039Z</time></trkpt><trkpt lat="35.6815733" lon="-5.9210683"><ele>17.0</ele><time>2026-04-28T10:43:50.039Z</time></trkpt><trkpt lat="35.6816733" lon="-5.92104"><ele>17.0</ele><time>2026-04-28T10:43:52.039Z</time></trkpt><trkpt lat="35.6817617" lon="-5.9210283"><ele>17.0</ele><time>2026-04-28T10:43:54.039Z</time></trkpt><trkpt lat="35.6818567" lon="-5.9210067"><ele>17.0</ele><time>2026-04-28T10:43:56.038Z</time></trkpt><trkpt lat="35.681965" lon="-5.9209683"><ele>17.0</ele><time>2026-04-28T10:43:58.039Z</time></trkpt><trkpt lat="35.68207" lon="-5.920905"><ele>17.0</ele><time>2026-04-28T10:44:00.038Z</time></trkpt><trkpt lat="35.6821233" lon="-5.9208567"><ele>17.0</ele><time>2026-04-28T10:44:01.038Z</time></trkpt><trkpt lat="35.6821783" lon="-5.9208017"><ele>16.4</ele><time>2026-04-28T10:44:02.039Z</time></trkpt><trkpt lat="35.68223" lon="-5.9207517"><ele>15.799999999999999</ele><time>2026-04-28T10:44:03.039Z</time></trkpt><trkpt lat="35.68232" lon="-5.920685"><ele>15.2</ele><time>2026-04-28T10:44:05.039Z</time></trkpt><trkpt lat="35.6824067" lon="-5.9206233"><ele>14.6</ele><time>2026-04-28T10:44:07.039Z</time></trkpt><trkpt lat="35.682505" lon="-5.9205483"><ele>14.0</ele><time>2026-04-28T10:44:09.039Z</time></trkpt><trkpt lat="35.6825667" lon="-5.9204933"><ele>14.0</ele><time>2026-04-28T10:44:10.039Z</time></trkpt><trkpt lat="35.682635" lon="-5.9204367"><ele>13.999999999999998</ele><time>2026-04-28T10:44:11.039Z</time></trkpt><trkpt lat="35.682715" lon="-5.9203717"><ele>13.999999999999998</ele><time>2026-04-28T10:44:12.039Z</time></trkpt><trkpt lat="35.6828033" lon="-5.9202933"><ele>14.0</ele><time>2026-04-28T10:44:13.039Z</time></trkpt><trkpt lat="35.6828967" lon="-5.9202033"><ele>14.0</ele><time>2026-04-28T10:44:14.038Z</time></trkpt><trkpt lat="35.682995" lon="-5.9201083"><ele>14.25</ele><time>2026-04-28T10:44:15.039Z</time></trkpt><trkpt lat="35.6830983" lon="-5.9200117"><ele>14.5</ele><time>2026-04-28T10:44:16.039Z</time></trkpt><trkpt lat="35.6832067" lon="-5.919915"><ele>14.75</ele><time>2026-04-28T10:44:17.039Z</time></trkpt><trkpt lat="35.6833217" lon="-5.9198133"><ele>15.0</ele><time>2026-04-28T10:44:18.039Z</time></trkpt><trkpt lat="35.6834467" lon="-5.91971"><ele>15.0</ele><time>2026-04-28T10:44:19.039Z</time></trkpt><trkpt lat="35.683575" lon="-5.9195983"><ele>15.0</ele><time>2026-04-28T10:44:20.039Z</time></trkpt><trkpt lat="35.6837067" lon="-5.919485"><ele>15.0</ele><time>2026-04-28T10:44:21.039Z</time></trkpt><trkpt lat="35.6838433" lon="-5.919365"><ele>15.0</ele><time>2026-04-28T10:44:22.039Z</time></trkpt><trkpt lat="35.6839833" lon="-5.91925"><ele>15.0</ele><time>2026-04-28T10:44:23.039Z</time></trkpt><trkpt lat="35.6841267" lon="-5.9191417"><ele>15.0</ele><time>2026-04-28T10:44:24.039Z</time></trkpt><trkpt lat="35.684265" lon="-5.9190383"><ele>15.0</ele><time>2026-04-28T10:44:25.039Z</time></trkpt><trkpt lat="35.6844017" lon="-5.9189417"><ele>15.0</ele><time>2026-04-28T10:44:26.039Z</time></trkpt><trkpt lat="35.684535" lon="-5.9188433"><ele>15.0</ele><time>2026-04-28T10:44:27.039Z</time></trkpt><trkpt lat="35.684665" lon="-5.9187517"><ele>15.0</ele><time>2026-04-28T10:44:28.039Z</time></trkpt><trkpt lat="35.6847917" lon="-5.9186567"><ele>15.0</ele><time>2026-04-28T10:44:29.039Z</time></trkpt><trkpt lat="35.684925" lon="-5.91857"><ele>15.0</ele><time>2026-04-28T10:44:30.039Z</time></trkpt><trkpt lat="35.6850617" lon="-5.9184883"><ele>15.0</ele><time>2026-04-28T10:44:31.039Z</time></trkpt><trkpt lat="35.6851933" lon="-5.9184083"><ele>15.0</ele><time>2026-04-28T10:44:32.039Z</time></trkpt><trkpt lat="35.68532" lon="-5.9183217"><ele>15.0</ele><time>2026-04-28T10:44:33.039Z</time></trkpt><trkpt lat="35.68545" lon="-5.9182467"><ele>15.0</ele><time>2026-04-28T10:44:34.039Z</time></trkpt><trkpt lat="35.685585" lon="-5.9181667"><ele>15.0</ele><time>2026-04-28T10:44:35.039Z</time></trkpt><trkpt lat="35.68572" lon="-5.9180917"><ele>15.0</ele><time>2026-04-28T10:44:36.039Z</time></trkpt><trkpt lat="35.6858567" lon="-5.9180133"><ele>15.0</ele><time>2026-04-28T10:44:37.039Z</time></trkpt><trkpt lat="35.6859917" lon="-5.9179433"><ele>15.0</ele><time>2026-04-28T10:44:38.038Z</time></trkpt><trkpt lat="35.686125" lon="-5.91787"><ele>15.0</ele><time>2026-04-28T10:44:39.039Z</time></trkpt><trkpt lat="35.6862683" lon="-5.917795"><ele>15.0</ele><time>2026-04-28T10:44:40.038Z</time></trkpt><trkpt lat="35.68641" lon="-5.91772"><ele>15.0</ele><time>2026-04-28T10:44:41.039Z</time></trkpt><trkpt lat="35.6865617" lon="-5.91764"><ele>15.0</ele><time>2026-04-28T10:44:42.039Z</time></trkpt><trkpt lat="35.686715" lon="-5.91757"><ele>15.0</ele><time>2026-04-28T10:44:43.038Z</time></trkpt><trkpt lat="35.6868717" lon="-5.9174967"><ele>15.0</ele><time>2026-04-28T10:44:44.039Z</time></trkpt><trkpt lat="35.687035" lon="-5.9174283"><ele>15.333333333333332</ele><time>2026-04-28T10:44:45.039Z</time></trkpt><trkpt lat="35.6871967" lon="-5.9173683"><ele>15.666666666666666</ele><time>2026-04-28T10:44:46.039Z</time></trkpt><trkpt lat="35.6873567" lon="-5.91731"><ele>16.0</ele><time>2026-04-28T10:44:47.039Z</time></trkpt><trkpt lat="35.68751" lon="-5.9172517"><ele>16.0</ele><time>2026-04-28T10:44:48.039Z</time></trkpt><trkpt lat="35.68766" lon="-5.9171917"><ele>16.0</ele><time>2026-04-28T10:44:49.039Z</time></trkpt><trkpt lat="35.6878067" lon="-5.9171367"><ele>16.0</ele><time>2026-04-28T10:44:50.038Z</time></trkpt><trkpt lat="35.6879533" lon="-5.917085"><ele>16.0</ele><time>2026-04-28T10:44:51.039Z</time></trkpt><trkpt lat="35.6881017" lon="-5.9170283"><ele>16.0</ele><time>2026-04-28T10:44:52.039Z</time></trkpt><trkpt lat="35.6882533" lon="-5.9169783"><ele>16.0</ele><time>2026-04-28T10:44:53.038Z</time></trkpt><trkpt lat="35.68841" lon="-5.91693"><ele>16.0</ele><time>2026-04-28T10:44:54.039Z</time></trkpt><trkpt lat="35.6885633" lon="-5.91689"><ele>16.0</ele><time>2026-04-28T10:44:55.039Z</time></trkpt><trkpt lat="35.68872" lon="-5.9168533"><ele>16.0</ele><time>2026-04-28T10:44:56.039Z</time></trkpt><trkpt lat="35.6888767" lon="-5.9168217"><ele>16.0</ele><time>2026-04-28T10:44:57.039Z</time></trkpt><trkpt lat="35.6890383" lon="-5.9167867"><ele>16.0</ele><time>2026-04-28T10:44:58.039Z</time></trkpt><trkpt lat="35.6892017" lon="-5.9167583"><ele>16.0</ele><time>2026-04-28T10:44:59.039Z</time></trkpt><trkpt lat="35.689365" lon="-5.9167267"><ele>15.666666666666666</ele><time>2026-04-28T10:45:00.038Z</time></trkpt><trkpt lat="35.689525" lon="-5.9166917"><ele>15.333333333333332</ele><time>2026-04-28T10:45:01.039Z</time></trkpt><trkpt lat="35.6897017" lon="-5.916665"><ele>15.0</ele><time>2026-04-28T10:45:02.039Z</time></trkpt><trkpt lat="35.6898667" lon="-5.9166317"><ele>15.0</ele><time>2026-04-28T10:45:03.038Z</time></trkpt><trkpt lat="35.6900383" lon="-5.9166083"><ele>15.0</ele><time>2026-04-28T10:45:04.039Z</time></trkpt><trkpt lat="35.6902083" lon="-5.9165867"><ele>15.0</ele><time>2026-04-28T10:45:05.039Z</time></trkpt><trkpt lat="35.6903867" lon="-5.9165767"><ele>16.0</ele><time>2026-04-28T10:45:06.039Z</time></trkpt><trkpt lat="35.6905633" lon="-5.91656"><ele>17.0</ele><time>2026-04-28T10:45:07.039Z</time></trkpt><trkpt lat="35.6907417" lon="-5.9165483"><ele>18.0</ele><time>2026-04-28T10:45:08.039Z</time></trkpt><trkpt lat="35.6909283" lon="-5.9165383"><ele>18.0</ele><time>2026-04-28T10:45:09.039Z</time></trkpt><trkpt lat="35.6911167" lon="-5.9165283"><ele>18.0</ele><time>2026-04-28T10:45:10.039Z</time></trkpt><trkpt lat="35.691305" lon="-5.916515"><ele>18.0</ele><time>2026-04-28T10:45:11.039Z</time></trkpt><trkpt lat="35.6914933" lon="-5.9165083"><ele>18.0</ele><time>2026-04-28T10:45:12.039Z</time></trkpt><trkpt lat="35.6916767" lon="-5.9164967"><ele>18.0</ele><time>2026-04-28T10:45:13.039Z</time></trkpt><trkpt lat="35.691855" lon="-5.9164833"><ele>18.0</ele><time>2026-04-28T10:45:14.038Z</time></trkpt><trkpt lat="35.6920383" lon="-5.9164783"><ele>18.0</ele><time>2026-04-28T10:45:15.038Z</time></trkpt><trkpt lat="35.6922183" lon="-5.916475"><ele>18.0</ele><time>2026-04-28T10:45:16.039Z</time></trkpt><trkpt lat="35.6924033" lon="-5.9164733"><ele>18.0</ele><time>2026-04-28T10:45:17.038Z</time></trkpt><trkpt lat="35.692595" lon="-5.9164683"><ele>18.0</ele><time>2026-04-28T10:45:18.039Z</time></trkpt><trkpt lat="35.69278" lon="-5.9164617"><ele>18.0</ele><time>2026-04-28T10:45:19.039Z</time></trkpt><trkpt lat="35.6929667" lon="-5.91646"><ele>18.0</ele><time>2026-04-28T10:45:20.039Z</time></trkpt><trkpt lat="35.69316" lon="-5.9164533"><ele>18.0</ele><time>2026-04-28T10:45:21.039Z</time></trkpt><trkpt lat="35.6933483" lon="-5.9164483"><ele>18.0</ele><time>2026-04-28T10:45:22.039Z</time></trkpt><trkpt lat="35.6935383" lon="-5.91644"><ele>18.0</ele><time>2026-04-28T10:45:23.039Z</time></trkpt><trkpt lat="35.6937167" lon="-5.916435"><ele>18.0</ele><time>2026-04-28T10:45:24.038Z</time></trkpt><trkpt lat="35.693885" lon="-5.91643"><ele>18.0</ele><time>2026-04-28T10:45:25.039Z</time></trkpt><trkpt lat="35.694055" lon="-5.9164183"><ele>18.0</ele><time>2026-04-28T10:45:26.039Z</time></trkpt><trkpt lat="35.694225" lon="-5.9164017"><ele>18.0</ele><time>2026-04-28T10:45:27.039Z</time></trkpt><trkpt lat="35.6943917" lon="-5.916395"><ele>18.0</ele><time>2026-04-28T10:45:28.039Z</time></trkpt><trkpt lat="35.69456" lon="-5.9163867"><ele>18.0</ele><time>2026-04-28T10:45:29.039Z</time></trkpt><trkpt lat="35.6947283" lon="-5.91638"><ele>18.333333333333332</ele><time>2026-04-28T10:45:30.039Z</time></trkpt><trkpt lat="35.6948933" lon="-5.9163717"><ele>18.666666666666664</ele><time>2026-04-28T10:45:31.039Z</time></trkpt><trkpt lat="35.6950483" lon="-5.916365"><ele>19.0</ele><time>2026-04-28T10:45:32.038Z</time></trkpt><trkpt lat="35.6951917" lon="-5.91636"><ele>18.25</ele><time>2026-04-28T10:45:33.038Z</time></trkpt><trkpt lat="35.6953383" lon="-5.9163467"><ele>17.5</ele><time>2026-04-28T10:45:34.039Z</time></trkpt><trkpt lat="35.6954817" lon="-5.916335"><ele>16.75</ele><time>2026-04-28T10:45:35.038Z</time></trkpt><trkpt lat="35.6956133" lon="-5.9163283"><ele>16.0</ele><time>2026-04-28T10:45:36.039Z</time></trkpt><trkpt lat="35.69575" lon="-5.9163117"><ele>16.0</ele><time>2026-04-28T10:45:37.039Z</time></trkpt><trkpt lat="35.695885" lon="-5.9163033"><ele>16.0</ele><time>2026-04-28T10:45:38.039Z</time></trkpt><trkpt lat="35.6960167" lon="-5.9162933"><ele>16.0</ele><time>2026-04-28T10:45:39.039Z</time></trkpt><trkpt lat="35.696145" lon="-5.91628"><ele>16.0</ele><time>2026-04-28T10:45:40.039Z</time></trkpt><trkpt lat="35.69627" lon="-5.91627"><ele>16.400000000000002</ele><time>2026-04-28T10:45:41.039Z</time></trkpt><trkpt lat="35.6963717" lon="-5.9162533"><ele>16.8</ele><time>2026-04-28T10:45:42.039Z</time></trkpt><trkpt lat="35.6964667" lon="-5.9162467"><ele>17.200000000000003</ele><time>2026-04-28T10:45:43.039Z</time></trkpt><trkpt lat="35.6965667" lon="-5.9162383"><ele>17.6</ele><time>2026-04-28T10:45:44.039Z</time></trkpt><trkpt lat="35.6966767" lon="-5.9162367"><ele>18.0</ele><time>2026-04-28T10:45:45.039Z</time></trkpt><trkpt lat="35.6967917" lon="-5.9162383"><ele>18.0</ele><time>2026-04-28T10:45:46.039Z</time></trkpt><trkpt lat="35.696905" lon="-5.9162467"><ele>18.0</ele><time>2026-04-28T10:45:47.038Z</time></trkpt><trkpt lat="35.697025" lon="-5.9162567"><ele>18.0</ele><time>2026-04-28T10:45:48.038Z</time></trkpt><trkpt lat="35.6971467" lon="-5.9162567"><ele>18.0</ele><time>2026-04-28T10:45:49.039Z</time></trkpt><trkpt lat="35.697265" lon="-5.9162667"><ele>18.0</ele><time>2026-04-28T10:45:50.039Z</time></trkpt><trkpt lat="35.697395" lon="-5.91627"><ele>18.0</ele><time>2026-04-28T10:45:51.039Z</time></trkpt><trkpt lat="35.6975217" lon="-5.916275"><ele>18.0</ele><time>2026-04-28T10:45:52.039Z</time></trkpt><trkpt lat="35.6976533" lon="-5.916275"><ele>18.0</ele><time>2026-04-28T10:45:53.039Z</time></trkpt><trkpt lat="35.6977867" lon="-5.9162683"><ele>17.75</ele><time>2026-04-28T10:45:54.039Z</time></trkpt><trkpt lat="35.69792" lon="-5.9162583"><ele>17.5</ele><time>2026-04-28T10:45:55.039Z</time></trkpt><trkpt lat="35.69806" lon="-5.916245"><ele>17.25</ele><time>2026-04-28T10:45:56.039Z</time></trkpt><trkpt lat="35.6981983" lon="-5.916235"><ele>17.0</ele><time>2026-04-28T10:45:57.039Z</time></trkpt><trkpt lat="35.698335" lon="-5.916215"><ele>17.0</ele><time>2026-04-28T10:45:58.039Z</time></trkpt><trkpt lat="35.6984717" lon="-5.9161933"><ele>17.0</ele><time>2026-04-28T10:45:59.039Z</time></trkpt><trkpt lat="35.69861" lon="-5.91616"><ele>17.0</ele><time>2026-04-28T10:46:00.039Z</time></trkpt><trkpt lat="35.698745" lon="-5.916115"><ele>17.0</ele><time>2026-04-28T10:46:01.038Z</time></trkpt><trkpt lat="35.69888" lon="-5.91606"><ele>17.25</ele><time>2026-04-28T10:46:02.039Z</time></trkpt><trkpt lat="35.6990167" lon="-5.9159933"><ele>17.5</ele><time>2026-04-28T10:46:03.039Z</time></trkpt><trkpt lat="35.6991433" lon="-5.9159167"><ele>17.75</ele><time>2026-04-28T10:46:04.039Z</time></trkpt><trkpt lat="35.6992667" lon="-5.9158383"><ele>18.0</ele><time>2026-04-28T10:46:05.039Z</time></trkpt><trkpt lat="35.699385" lon="-5.915755"><ele>18.25</ele><time>2026-04-28T10:46:06.039Z</time></trkpt><trkpt lat="35.69951" lon="-5.9156633"><ele>18.5</ele><time>2026-04-28T10:46:07.038Z</time></trkpt><trkpt lat="35.6996233" lon="-5.9155567"><ele>18.75</ele><time>2026-04-28T10:46:08.039Z</time></trkpt><trkpt lat="35.69974" lon="-5.9154467"><ele>19.0</ele><time>2026-04-28T10:46:09.039Z</time></trkpt><trkpt lat="35.6998483" lon="-5.9153383"><ele>19.0</ele><time>2026-04-28T10:46:10.039Z</time></trkpt><trkpt lat="35.6999617" lon="-5.91523"><ele>19.0</ele><time>2026-04-28T10:46:11.039Z</time></trkpt><trkpt lat="35.7000667" lon="-5.9151233"><ele>19.0</ele><time>2026-04-28T10:46:12.039Z</time></trkpt><trkpt lat="35.7001817" lon="-5.9150183"><ele>19.0</ele><time>2026-04-28T10:46:13.039Z</time></trkpt><trkpt lat="35.7002917" lon="-5.914915"><ele>19.333333333333332</ele><time>2026-04-28T10:46:14.039Z</time></trkpt><trkpt lat="35.7004167" lon="-5.9147967"><ele>19.666666666666668</ele><time>2026-04-28T10:46:15.039Z</time></trkpt><trkpt lat="35.70054" lon="-5.914675"><ele>20.0</ele><time>2026-04-28T10:46:16.039Z</time></trkpt><trkpt lat="35.70067" lon="-5.914555"><ele>20.0</ele><time>2026-04-28T10:46:17.039Z</time></trkpt><trkpt lat="35.7008" lon="-5.91443"><ele>20.0</ele><time>2026-04-28T10:46:18.038Z</time></trkpt><trkpt lat="35.7009283" lon="-5.9142983"><ele>20.0</ele><time>2026-04-28T10:46:19.039Z</time></trkpt><trkpt lat="35.7010633" lon="-5.9141683"><ele>20.333333333333336</ele><time>2026-04-28T10:46:20.038Z</time></trkpt><trkpt lat="35.701195" lon="-5.9140433"><ele>20.666666666666668</ele><time>2026-04-28T10:46:21.038Z</time></trkpt><trkpt lat="35.7013283" lon="-5.913915"><ele>21.0</ele><time>2026-04-28T10:46:22.039Z</time></trkpt><trkpt lat="35.7014517" lon="-5.9137933"><ele>21.0</ele><time>2026-04-28T10:46:23.039Z</time></trkpt><trkpt lat="35.7015783" lon="-5.913675"><ele>21.0</ele><time>2026-04-28T10:46:24.039Z</time></trkpt><trkpt lat="35.7016933" lon="-5.9135617"><ele>21.0</ele><time>2026-04-28T10:46:25.039Z</time></trkpt><trkpt lat="35.7017983" lon="-5.91346"><ele>21.0</ele><time>2026-04-28T10:46:26.039Z</time></trkpt><trkpt lat="35.7019017" lon="-5.9133683"><ele>21.5</ele><time>2026-04-28T10:46:27.039Z</time></trkpt><trkpt lat="35.7020033" lon="-5.9132767"><ele>22.0</ele><time>2026-04-28T10:46:28.039Z</time></trkpt><trkpt lat="35.7021133" lon="-5.9131833"><ele>22.5</ele><time>2026-04-28T10:46:29.038Z</time></trkpt><trkpt lat="35.702225" lon="-5.9130917"><ele>23.0</ele><time>2026-04-28T10:46:30.039Z</time></trkpt><trkpt lat="35.7023333" lon="-5.9129933"><ele>23.0</ele><time>2026-04-28T10:46:31.039Z</time></trkpt><trkpt lat="35.7024383" lon="-5.91289"><ele>23.0</ele><time>2026-04-28T10:46:32.039Z</time></trkpt><trkpt lat="35.702545" lon="-5.9127867"><ele>23.0</ele><time>2026-04-28T10:46:33.039Z</time></trkpt><trkpt lat="35.702645" lon="-5.912685"><ele>23.0</ele><time>2026-04-28T10:46:34.039Z</time></trkpt><trkpt lat="35.7027517" lon="-5.9125817"><ele>23.25</ele><time>2026-04-28T10:46:35.039Z</time></trkpt><trkpt lat="35.7028533" lon="-5.912475"><ele>23.5</ele><time>2026-04-28T10:46:36.039Z</time></trkpt><trkpt lat="35.7029567" lon="-5.9123667"><ele>23.75</ele><time>2026-04-28T10:46:37.039Z</time></trkpt><trkpt lat="35.7030617" lon="-5.9122533"><ele>24.0</ele><time>2026-04-28T10:46:38.039Z</time></trkpt><trkpt lat="35.7031717" lon="-5.91215"><ele>24.0</ele><time>2026-04-28T10:46:39.039Z</time></trkpt><trkpt lat="35.7032767" lon="-5.912045"><ele>24.0</ele><time>2026-04-28T10:46:40.039Z</time></trkpt><trkpt lat="35.703385" lon="-5.9119383"><ele>24.0</ele><time>2026-04-28T10:46:41.039Z</time></trkpt><trkpt lat="35.7034917" lon="-5.911835"><ele>24.0</ele><time>2026-04-28T10:46:42.038Z</time></trkpt><trkpt lat="35.7036033" lon="-5.911745"><ele>23.5</ele><time>2026-04-28T10:46:43.039Z</time></trkpt><trkpt lat="35.7037" lon="-5.9116567"><ele>23.0</ele><time>2026-04-28T10:46:44.039Z</time></trkpt><trkpt lat="35.703795" lon="-5.91156"><ele>22.5</ele><time>2026-04-28T10:46:45.039Z</time></trkpt><trkpt lat="35.703895" lon="-5.91147"><ele>22.0</ele><time>2026-04-28T10:46:46.039Z</time></trkpt><trkpt lat="35.7040033" lon="-5.9113733"><ele>22.0</ele><time>2026-04-28T10:46:47.039Z</time></trkpt><trkpt lat="35.7041167" lon="-5.9112767"><ele>22.0</ele><time>2026-04-28T10:46:48.039Z</time></trkpt><trkpt lat="35.7042367" lon="-5.9111733"><ele>22.0</ele><time>2026-04-28T10:46:49.039Z</time></trkpt><trkpt lat="35.70435" lon="-5.911065"><ele>22.0</ele><time>2026-04-28T10:46:50.039Z</time></trkpt><trkpt lat="35.70447" lon="-5.9109483"><ele>23.0</ele><time>2026-04-28T10:46:51.039Z</time></trkpt><trkpt lat="35.7045867" lon="-5.9108367"><ele>24.0</ele><time>2026-04-28T10:46:52.039Z</time></trkpt><trkpt lat="35.7047033" lon="-5.91072"><ele>25.0</ele><time>2026-04-28T10:46:53.038Z</time></trkpt><trkpt lat="35.70482" lon="-5.91061"><ele>26.0</ele><time>2026-04-28T10:46:54.039Z</time></trkpt><trkpt lat="35.7049467" lon="-5.91049"><ele>26.0</ele><time>2026-04-28T10:46:55.039Z</time></trkpt><trkpt lat="35.7050717" lon="-5.9103733"><ele>26.0</ele><time>2026-04-28T10:46:56.039Z</time></trkpt><trkpt lat="35.7051983" lon="-5.9102467"><ele>26.0</ele><time>2026-04-28T10:46:57.039Z</time></trkpt><trkpt lat="35.7053283" lon="-5.91012"><ele>25.333333333333332</ele><time>2026-04-28T10:46:58.039Z</time></trkpt><trkpt lat="35.70546" lon="-5.9099917"><ele>24.666666666666664</ele><time>2026-04-28T10:46:59.039Z</time></trkpt><trkpt lat="35.7055933" lon="-5.9098617"><ele>24.0</ele><time>2026-04-28T10:47:00.039Z</time></trkpt><trkpt lat="35.7057283" lon="-5.909725"><ele>24.0</ele><time>2026-04-28T10:47:01.039Z</time></trkpt><trkpt lat="35.7058617" lon="-5.9095867"><ele>24.0</ele><time>2026-04-28T10:47:02.039Z</time></trkpt><trkpt lat="35.7059917" lon="-5.90945"><ele>24.0</ele><time>2026-04-28T10:47:03.039Z</time></trkpt><trkpt lat="35.70613" lon="-5.909315"><ele>24.333333333333336</ele><time>2026-04-28T10:47:04.039Z</time></trkpt><trkpt lat="35.706255" lon="-5.90919"><ele>24.666666666666668</ele><time>2026-04-28T10:47:05.039Z</time></trkpt><trkpt lat="35.7063833" lon="-5.9090767"><ele>25.0</ele><time>2026-04-28T10:47:06.039Z</time></trkpt><trkpt lat="35.7065383" lon="-5.908965"><ele>25.0</ele><time>2026-04-28T10:47:07.039Z</time></trkpt><trkpt lat="35.7066567" lon="-5.9088317"><ele>25.0</ele><time>2026-04-28T10:47:08.039Z</time></trkpt><trkpt lat="35.7067617" lon="-5.9087033"><ele>25.0</ele><time>2026-04-28T10:47:09.039Z</time></trkpt><trkpt lat="35.7068583" lon="-5.908565"><ele>25.25</ele><time>2026-04-28T10:47:10.039Z</time></trkpt><trkpt lat="35.70694" lon="-5.90844"><ele>25.5</ele><time>2026-04-28T10:47:11.039Z</time></trkpt><trkpt lat="35.7070417" lon="-5.9083183"><ele>25.75</ele><time>2026-04-28T10:47:12.038Z</time></trkpt><trkpt lat="35.7071567" lon="-5.9081983"><ele>26.0</ele><time>2026-04-28T10:47:13.039Z</time></trkpt><trkpt lat="35.707265" lon="-5.90808"><ele>26.0</ele><time>2026-04-28T10:47:14.038Z</time></trkpt><trkpt lat="35.707375" lon="-5.9079583"><ele>26.0</ele><time>2026-04-28T10:47:15.039Z</time></trkpt><trkpt lat="35.7074767" lon="-5.90787"><ele>26.0</ele><time>2026-04-28T10:47:16.039Z</time></trkpt><trkpt lat="35.707685" lon="-5.9077767"><ele>27.0</ele><time>2026-04-28T10:47:17.039Z</time></trkpt><trkpt lat="35.7078233" lon="-5.9076533"><ele>28.0</ele><time>2026-04-28T10:47:18.039Z</time></trkpt><trkpt lat="35.7079567" lon="-5.9075367"><ele>29.0</ele><time>2026-04-28T10:47:19.038Z</time></trkpt><trkpt lat="35.7080933" lon="-5.9074217"><ele>29.0</ele><time>2026-04-28T10:47:20.039Z</time></trkpt><trkpt lat="35.7082383" lon="-5.9073183"><ele>29.0</ele><time>2026-04-28T10:47:21.039Z</time></trkpt><trkpt lat="35.7083383" lon="-5.9071833"><ele>29.0</ele><time>2026-04-28T10:47:22.039Z</time></trkpt><trkpt lat="35.7084367" lon="-5.9070433"><ele>29.0</ele><time>2026-04-28T10:47:23.039Z</time></trkpt><trkpt lat="35.708565" lon="-5.9069417"><ele>29.0</ele><time>2026-04-28T10:47:24.039Z</time></trkpt><trkpt lat="35.7087033" lon="-5.9068217"><ele>29.0</ele><time>2026-04-28T10:47:25.039Z</time></trkpt><trkpt lat="35.708835" lon="-5.906695"><ele>29.333333333333332</ele><time>2026-04-28T10:47:26.039Z</time></trkpt><trkpt lat="35.7089583" lon="-5.90657"><ele>29.666666666666664</ele><time>2026-04-28T10:47:27.038Z</time></trkpt><trkpt lat="35.709085" lon="-5.9064633"><ele>30.0</ele><time>2026-04-28T10:47:28.039Z</time></trkpt><trkpt lat="35.709205" lon="-5.9063617"><ele>30.0</ele><time>2026-04-28T10:47:29.039Z</time></trkpt><trkpt lat="35.7093317" lon="-5.90626"><ele>30.0</ele><time>2026-04-28T10:47:30.039Z</time></trkpt><trkpt lat="35.709455" lon="-5.9061617"><ele>30.0</ele><time>2026-04-28T10:47:31.039Z</time></trkpt><trkpt lat="35.70958" lon="-5.9060667"><ele>30.0</ele><time>2026-04-28T10:47:32.038Z</time></trkpt><trkpt lat="35.709705" lon="-5.9059633"><ele>29.333333333333336</ele><time>2026-04-28T10:47:33.038Z</time></trkpt><trkpt lat="35.7098317" lon="-5.9058567"><ele>28.666666666666668</ele><time>2026-04-28T10:47:34.038Z</time></trkpt><trkpt lat="35.7099583" lon="-5.9057433"><ele>28.0</ele><time>2026-04-28T10:47:35.039Z</time></trkpt><trkpt lat="35.7100767" lon="-5.9056317"><ele>28.0</ele><time>2026-04-28T10:47:36.039Z</time></trkpt><trkpt lat="35.7101983" lon="-5.9055183"><ele>28.0</ele><time>2026-04-28T10:47:37.039Z</time></trkpt><trkpt lat="35.71032" lon="-5.905405"><ele>28.0</ele><time>2026-04-28T10:47:38.039Z</time></trkpt><trkpt lat="35.7104383" lon="-5.90529"><ele>28.0</ele><time>2026-04-28T10:47:39.039Z</time></trkpt><trkpt lat="35.7105583" lon="-5.9051767"><ele>28.0</ele><time>2026-04-28T10:47:40.039Z</time></trkpt><trkpt lat="35.7106817" lon="-5.9050583"><ele>28.0</ele><time>2026-04-28T10:47:41.039Z</time></trkpt><trkpt lat="35.7108033" lon="-5.9049433"><ele>28.333333333333336</ele><time>2026-04-28T10:47:42.039Z</time></trkpt><trkpt lat="35.7109317" lon="-5.9048267"><ele>28.666666666666664</ele><time>2026-04-28T10:47:43.039Z</time></trkpt><trkpt lat="35.711055" lon="-5.90471"><ele>29.0</ele><time>2026-04-28T10:47:44.039Z</time></trkpt><trkpt lat="35.711185" lon="-5.9045967"><ele>29.0</ele><time>2026-04-28T10:47:45.039Z</time></trkpt><trkpt lat="35.7113083" lon="-5.90448"><ele>29.0</ele><time>2026-04-28T10:47:46.039Z</time></trkpt><trkpt lat="35.7114367" lon="-5.9043617"><ele>29.0</ele><time>2026-04-28T10:47:47.039Z</time></trkpt><trkpt lat="35.7115617" lon="-5.90424"><ele>29.0</ele><time>2026-04-28T10:47:48.039Z</time></trkpt><trkpt lat="35.7116917" lon="-5.9041183"><ele>29.0</ele><time>2026-04-28T10:47:49.039Z</time></trkpt><trkpt lat="35.71182" lon="-5.9040017"><ele>29.0</ele><time>2026-04-28T10:47:50.039Z</time></trkpt><trkpt lat="35.7119533" lon="-5.90389"><ele>29.333333333333332</ele><time>2026-04-28T10:47:51.039Z</time></trkpt><trkpt lat="35.7120933" lon="-5.9037883"><ele>29.666666666666664</ele><time>2026-04-28T10:47:52.039Z</time></trkpt><trkpt lat="35.7122367" lon="-5.9036933"><ele>30.0</ele><time>2026-04-28T10:47:53.039Z</time></trkpt><trkpt lat="35.712385" lon="-5.903615"><ele>30.0</ele><time>2026-04-28T10:47:54.039Z</time></trkpt><trkpt lat="35.71254" lon="-5.9035383"><ele>30.0</ele><time>2026-04-28T10:47:55.039Z</time></trkpt><trkpt lat="35.7127017" lon="-5.9034733"><ele>30.0</ele><time>2026-04-28T10:47:56.039Z</time></trkpt><trkpt lat="35.71287" lon="-5.9034267"><ele>27.666666666666668</ele><time>2026-04-28T10:47:57.039Z</time></trkpt><trkpt lat="35.713045" lon="-5.90339"><ele>25.333333333333336</ele><time>2026-04-28T10:47:58.039Z</time></trkpt><trkpt lat="35.713225" lon="-5.9033717"><ele>23.0</ele><time>2026-04-28T10:47:59.039Z</time></trkpt><trkpt lat="35.713395" lon="-5.9033667"><ele>23.0</ele><time>2026-04-28T10:48:00.039Z</time></trkpt><trkpt lat="35.71356" lon="-5.9033783"><ele>23.0</ele><time>2026-04-28T10:48:01.039Z</time></trkpt><trkpt lat="35.7137267" lon="-5.903385"><ele>23.0</ele><time>2026-04-28T10:48:02.039Z</time></trkpt><trkpt lat="35.713895" lon="-5.9034083"><ele>23.333333333333336</ele><time>2026-04-28T10:48:03.039Z</time></trkpt><trkpt lat="35.7140683" lon="-5.903435"><ele>23.666666666666668</ele><time>2026-04-28T10:48:04.039Z</time></trkpt><trkpt lat="35.7142417" lon="-5.903465"><ele>24.0</ele><time>2026-04-28T10:48:05.039Z</time></trkpt><trkpt lat="35.7144167" lon="-5.9035083"><ele>24.0</ele><time>2026-04-28T10:48:06.039Z</time></trkpt><trkpt lat="35.714585" lon="-5.903555"><ele>24.0</ele><time>2026-04-28T10:48:07.039Z</time></trkpt><trkpt lat="35.71475" lon="-5.903595"><ele>24.0</ele><time>2026-04-28T10:48:08.039Z</time></trkpt><trkpt lat="35.714915" lon="-5.9036317"><ele>24.0</ele><time>2026-04-28T10:48:09.039Z</time></trkpt><trkpt lat="35.7150833" lon="-5.90367"><ele>24.0</ele><time>2026-04-28T10:48:10.039Z</time></trkpt><trkpt lat="35.7152533" lon="-5.903705"><ele>24.0</ele><time>2026-04-28T10:48:11.039Z</time></trkpt><trkpt lat="35.7154217" lon="-5.9037533"><ele>23.333333333333332</ele><time>2026-04-28T10:48:12.039Z</time></trkpt><trkpt lat="35.7155933" lon="-5.9038033"><ele>22.666666666666664</ele><time>2026-04-28T10:48:13.039Z</time></trkpt><trkpt lat="35.7157633" lon="-5.90386"><ele>22.0</ele><time>2026-04-28T10:48:14.039Z</time></trkpt><trkpt lat="35.7159183" lon="-5.9039017"><ele>21.666666666666664</ele><time>2026-04-28T10:48:15.039Z</time></trkpt><trkpt lat="35.716085" lon="-5.9039383"><ele>21.333333333333332</ele><time>2026-04-28T10:48:16.039Z</time></trkpt><trkpt lat="35.71624" lon="-5.9039667"><ele>21.0</ele><time>2026-04-28T10:48:17.039Z</time></trkpt><trkpt lat="35.7163933" lon="-5.9039917"><ele>21.0</ele><time>2026-04-28T10:48:18.039Z</time></trkpt><trkpt lat="35.7165483" lon="-5.9040233"><ele>21.0</ele><time>2026-04-28T10:48:19.039Z</time></trkpt><trkpt lat="35.7167117" lon="-5.9040583"><ele>21.0</ele><time>2026-04-28T10:48:20.039Z</time></trkpt><trkpt lat="35.7168767" lon="-5.9040933"><ele>21.333333333333332</ele><time>2026-04-28T10:48:21.039Z</time></trkpt><trkpt lat="35.7170433" lon="-5.904115"><ele>21.666666666666664</ele><time>2026-04-28T10:48:22.039Z</time></trkpt><trkpt lat="35.7172133" lon="-5.9041233"><ele>22.0</ele><time>2026-04-28T10:48:23.039Z</time></trkpt><trkpt lat="35.71738" lon="-5.9041217"><ele>22.0</ele><time>2026-04-28T10:48:24.039Z</time></trkpt><trkpt lat="35.7175417" lon="-5.9041083"><ele>22.0</ele><time>2026-04-28T10:48:25.039Z</time></trkpt><trkpt lat="35.7176967" lon="-5.90409"><ele>22.0</ele><time>2026-04-28T10:48:26.039Z</time></trkpt><trkpt lat="35.7178517" lon="-5.9040667"><ele>21.666666666666664</ele><time>2026-04-28T10:48:27.039Z</time></trkpt><trkpt lat="35.7180067" lon="-5.9040333"><ele>21.333333333333332</ele><time>2026-04-28T10:48:28.039Z</time></trkpt><trkpt lat="35.7181583" lon="-5.9039933"><ele>21.0</ele><time>2026-04-28T10:48:29.039Z</time></trkpt><trkpt lat="35.7183083" lon="-5.903945"><ele>21.0</ele><time>2026-04-28T10:48:30.039Z</time></trkpt><trkpt lat="35.7184567" lon="-5.9038833"><ele>21.0</ele><time>2026-04-28T10:48:31.039Z</time></trkpt><trkpt lat="35.718605" lon="-5.9038183"><ele>21.0</ele><time>2026-04-28T10:48:32.038Z</time></trkpt><trkpt lat="35.7187417" lon="-5.9037517"><ele>19.666666666666668</ele><time>2026-04-28T10:48:33.039Z</time></trkpt><trkpt lat="35.7188817" lon="-5.90367"><ele>18.333333333333336</ele><time>2026-04-28T10:48:34.039Z</time></trkpt><trkpt lat="35.7190183" lon="-5.9035783"><ele>17.0</ele><time>2026-04-28T10:48:35.039Z</time></trkpt><trkpt lat="35.7191583" lon="-5.9034833"><ele>16.333333333333336</ele><time>2026-04-28T10:48:36.038Z</time></trkpt><trkpt lat="35.7192917" lon="-5.9033767"><ele>15.666666666666668</ele><time>2026-04-28T10:48:37.039Z</time></trkpt><trkpt lat="35.7194183" lon="-5.903265"><ele>15.0</ele><time>2026-04-28T10:48:38.038Z</time></trkpt><trkpt lat="35.71954" lon="-5.9031433"><ele>15.0</ele><time>2026-04-28T10:48:39.039Z</time></trkpt><trkpt lat="35.71966" lon="-5.9030183"><ele>15.0</ele><time>2026-04-28T10:48:40.039Z</time></trkpt><trkpt lat="35.71978" lon="-5.90289"><ele>15.0</ele><time>2026-04-28T10:48:41.039Z</time></trkpt><trkpt lat="35.719895" lon="-5.9027533"><ele>15.0</ele><time>2026-04-28T10:48:42.039Z</time></trkpt><trkpt lat="35.720005" lon="-5.9026167"><ele>15.0</ele><time>2026-04-28T10:48:43.039Z</time></trkpt><trkpt lat="35.720115" lon="-5.9024733"><ele>15.0</ele><time>2026-04-28T10:48:44.039Z</time></trkpt><trkpt lat="35.7202217" lon="-5.9023267"><ele>15.333333333333332</ele><time>2026-04-28T10:48:45.039Z</time></trkpt><trkpt lat="35.7203267" lon="-5.9021783"><ele>15.666666666666666</ele><time>2026-04-28T10:48:46.039Z</time></trkpt><trkpt lat="35.7204317" lon="-5.9020267"><ele>16.0</ele><time>2026-04-28T10:48:47.039Z</time></trkpt><trkpt lat="35.7205317" lon="-5.90187"><ele>16.666666666666664</ele><time>2026-04-28T10:48:48.038Z</time></trkpt><trkpt lat="35.72064" lon="-5.90172"><ele>17.333333333333332</ele><time>2026-04-28T10:48:49.039Z</time></trkpt><trkpt lat="35.7207483" lon="-5.9015683"><ele>18.0</ele><time>2026-04-28T10:48:50.039Z</time></trkpt><trkpt lat="35.720855" lon="-5.9014217"><ele>18.0</ele><time>2026-04-28T10:48:51.039Z</time></trkpt><trkpt lat="35.7209683" lon="-5.9012783"><ele>18.0</ele><time>2026-04-28T10:48:52.039Z</time></trkpt><trkpt lat="35.7210783" lon="-5.901135"><ele>18.0</ele><time>2026-04-28T10:48:53.039Z</time></trkpt><trkpt lat="35.7211817" lon="-5.90099"><ele>18.333333333333332</ele><time>2026-04-28T10:48:54.039Z</time></trkpt><trkpt lat="35.7212817" lon="-5.900845"><ele>18.666666666666664</ele><time>2026-04-28T10:48:55.039Z</time></trkpt><trkpt lat="35.721385" lon="-5.9006983"><ele>19.0</ele><time>2026-04-28T10:48:56.039Z</time></trkpt><trkpt lat="35.7214883" lon="-5.9005583"><ele>19.0</ele><time>2026-04-28T10:48:57.039Z</time></trkpt><trkpt lat="35.7215883" lon="-5.9004133"><ele>19.0</ele><time>2026-04-28T10:48:58.039Z</time></trkpt><trkpt lat="35.7216883" lon="-5.9002733"><ele>19.0</ele><time>2026-04-28T10:48:59.039Z</time></trkpt><trkpt lat="35.7217833" lon="-5.9001283"><ele>19.25</ele><time>2026-04-28T10:49:00.039Z</time></trkpt><trkpt lat="35.7218833" lon="-5.8999917"><ele>19.5</ele><time>2026-04-28T10:49:01.039Z</time></trkpt><trkpt lat="35.721975" lon="-5.89985"><ele>19.75</ele><time>2026-04-28T10:49:02.039Z</time></trkpt><trkpt lat="35.72206" lon="-5.8997283"><ele>20.0</ele><time>2026-04-28T10:49:03.038Z</time></trkpt><trkpt lat="35.722135" lon="-5.8996317"><ele>19.833333333333336</ele><time>2026-04-28T10:49:04.039Z</time></trkpt><trkpt lat="35.7222" lon="-5.899545"><ele>19.666666666666668</ele><time>2026-04-28T10:49:05.039Z</time></trkpt><trkpt lat="35.722255" lon="-5.8994667"><ele>19.5</ele><time>2026-04-28T10:49:06.039Z</time></trkpt><trkpt lat="35.7223067" lon="-5.8993967"><ele>19.333333333333332</ele><time>2026-04-28T10:49:07.039Z</time></trkpt><trkpt lat="35.7223483" lon="-5.8993333"><ele>19.166666666666664</ele><time>2026-04-28T10:49:08.039Z</time></trkpt><trkpt lat="35.72241" lon="-5.8992333"><ele>19.0</ele><time>2026-04-28T10:49:10.039Z</time></trkpt><trkpt lat="35.7224583" lon="-5.8991583"><ele>19.0</ele><time>2026-04-28T10:49:12.039Z</time></trkpt><trkpt lat="35.7225083" lon="-5.8990867"><ele>19.0</ele><time>2026-04-28T10:49:14.039Z</time></trkpt><trkpt lat="35.7225683" lon="-5.899005"><ele>19.0</ele><time>2026-04-28T10:49:17.039Z</time></trkpt><trkpt lat="35.7226117" lon="-5.8989417"><ele>19.0</ele><time>2026-04-28T10:49:20.039Z</time></trkpt><trkpt lat="35.72266" lon="-5.8988817"><ele>19.0</ele><time>2026-04-28T10:49:23.039Z</time></trkpt><trkpt lat="35.7227033" lon="-5.89882"><ele>19.0</ele><time>2026-04-28T10:49:26.038Z</time></trkpt><trkpt lat="35.7227417" lon="-5.8987517"><ele>19.0</ele><time>2026-04-28T10:49:29.039Z</time></trkpt><trkpt lat="35.72279" lon="-5.8986817"><ele>19.0</ele><time>2026-04-28T10:49:32.039Z</time></trkpt><trkpt lat="35.7228567" lon="-5.8985933"><ele>19.0</ele><time>2026-04-28T10:49:35.039Z</time></trkpt><trkpt lat="35.7229233" lon="-5.8985083"><ele>19.0</ele><time>2026-04-28T10:49:37.039Z</time></trkpt><trkpt lat="35.7229767" lon="-5.8984367"><ele>19.0</ele><time>2026-04-28T10:49:39.039Z</time></trkpt><trkpt lat="35.72303" lon="-5.898365"><ele>19.0</ele><time>2026-04-28T10:49:41.039Z</time></trkpt><trkpt lat="35.7231083" lon="-5.8982467"><ele>19.0</ele><time>2026-04-28T10:49:43.039Z</time></trkpt><trkpt lat="35.7231533" lon="-5.8981767"><ele>19.0</ele><time>2026-04-28T10:49:44.039Z</time></trkpt><trkpt lat="35.723205" lon="-5.8981067"><ele>19.0</ele><time>2026-04-28T10:49:45.039Z</time></trkpt><trkpt lat="35.7232633" lon="-5.8980267"><ele>19.0</ele><time>2026-04-28T10:49:46.039Z</time></trkpt><trkpt lat="35.7233333" lon="-5.8979333"><ele>19.0</ele><time>2026-04-28T10:49:47.039Z</time></trkpt><trkpt lat="35.72341" lon="-5.897825"><ele>19.0</ele><time>2026-04-28T10:49:48.039Z</time></trkpt><trkpt lat="35.7234883" lon="-5.8977067"><ele>19.0</ele><time>2026-04-28T10:49:49.039Z</time></trkpt><trkpt lat="35.7235683" lon="-5.89759"><ele>19.0</ele><time>2026-04-28T10:49:50.039Z</time></trkpt><trkpt lat="35.7236433" lon="-5.8974533"><ele>19.0</ele><time>2026-04-28T10:49:51.039Z</time></trkpt><trkpt lat="35.7237133" lon="-5.8973167"><ele>18.75</ele><time>2026-04-28T10:49:52.039Z</time></trkpt><trkpt lat="35.7237883" lon="-5.8971817"><ele>18.5</ele><time>2026-04-28T10:49:53.039Z</time></trkpt><trkpt lat="35.7238567" lon="-5.8970333"><ele>18.25</ele><time>2026-04-28T10:49:54.039Z</time></trkpt><trkpt lat="35.72393" lon="-5.8968983"><ele>18.0</ele><time>2026-04-28T10:49:55.039Z</time></trkpt><trkpt lat="35.72399" lon="-5.896755"><ele>18.25</ele><time>2026-04-28T10:49:56.038Z</time></trkpt><trkpt lat="35.7240567" lon="-5.896605"><ele>18.5</ele><time>2026-04-28T10:49:57.039Z</time></trkpt><trkpt lat="35.724115" lon="-5.89645"><ele>18.75</ele><time>2026-04-28T10:49:58.039Z</time></trkpt><trkpt lat="35.7241633" lon="-5.8962867"><ele>19.0</ele><time>2026-04-28T10:49:59.039Z</time></trkpt><trkpt lat="35.724205" lon="-5.896125"><ele>19.0</ele><time>2026-04-28T10:50:00.039Z</time></trkpt><trkpt lat="35.72425" lon="-5.8959733"><ele>19.0</ele><time>2026-04-28T10:50:01.039Z</time></trkpt><trkpt lat="35.724295" lon="-5.8958333"><ele>19.0</ele><time>2026-04-28T10:50:02.039Z</time></trkpt><trkpt lat="35.7243333" lon="-5.895695"><ele>19.0</ele><time>2026-04-28T10:50:03.039Z</time></trkpt><trkpt lat="35.7243717" lon="-5.8955683"><ele>18.8</ele><time>2026-04-28T10:50:04.039Z</time></trkpt><trkpt lat="35.7244033" lon="-5.8954667"><ele>18.599999999999998</ele><time>2026-04-28T10:50:05.038Z</time></trkpt><trkpt lat="35.7244283" lon="-5.8953833"><ele>18.4</ele><time>2026-04-28T10:50:06.039Z</time></trkpt><trkpt lat="35.72446" lon="-5.895275"><ele>18.2</ele><time>2026-04-28T10:50:08.038Z</time></trkpt><trkpt lat="35.7244817" lon="-5.8951383"><ele>18.0</ele><time>2026-04-28T10:50:28.038Z</time></trkpt><trkpt lat="35.7245117" lon="-5.8950233"><ele>18.833333333333332</ele><time>2026-04-28T10:50:30.038Z</time></trkpt><trkpt lat="35.72455" lon="-5.8949017"><ele>19.666666666666668</ele><time>2026-04-28T10:50:32.038Z</time></trkpt><trkpt lat="35.7245717" lon="-5.8948133"><ele>20.5</ele><time>2026-04-28T10:50:34.037Z</time></trkpt><trkpt lat="35.724585" lon="-5.8947367"><ele>21.333333333333336</ele><time>2026-04-28T10:50:36.038Z</time></trkpt><trkpt lat="35.7246" lon="-5.8946367"><ele>22.166666666666668</ele><time>2026-04-28T10:50:38.037Z</time></trkpt><trkpt lat="35.7246183" lon="-5.89456"><ele>23.0</ele><time>2026-04-28T10:50:39.038Z</time></trkpt><trkpt lat="35.72468" lon="-5.8944333"><ele>23.0</ele><time>2026-04-28T10:50:41.038Z</time></trkpt><trkpt lat="35.7247233" lon="-5.89437"><ele>23.0</ele><time>2026-04-28T10:50:42.038Z</time></trkpt><trkpt lat="35.7247667" lon="-5.894295"><ele>23.0</ele><time>2026-04-28T10:50:43.038Z</time></trkpt><trkpt lat="35.7248067" lon="-5.8942067"><ele>23.0</ele><time>2026-04-28T10:50:44.038Z</time></trkpt><trkpt lat="35.72485" lon="-5.8941033"><ele>23.0</ele><time>2026-04-28T10:50:45.038Z</time></trkpt><trkpt lat="35.724895" lon="-5.89399"><ele>23.0</ele><time>2026-04-28T10:50:46.038Z</time></trkpt><trkpt lat="35.72494" lon="-5.89387"><ele>23.25</ele><time>2026-04-28T10:50:47.038Z</time></trkpt><trkpt lat="35.7249867" lon="-5.8937383"><ele>23.5</ele><time>2026-04-28T10:50:48.038Z</time></trkpt><trkpt lat="35.7250333" lon="-5.8936"><ele>23.75</ele><time>2026-04-28T10:50:49.038Z</time></trkpt><trkpt lat="35.7250817" lon="-5.8934567"><ele>24.0</ele><time>2026-04-28T10:50:50.038Z</time></trkpt><trkpt lat="35.7251283" lon="-5.8933033"><ele>24.0</ele><time>2026-04-28T10:50:51.038Z</time></trkpt><trkpt lat="35.7251817" lon="-5.893155"><ele>24.0</ele><time>2026-04-28T10:50:52.038Z</time></trkpt><trkpt lat="35.7252317" lon="-5.8929983"><ele>24.0</ele><time>2026-04-28T10:50:53.037Z</time></trkpt><trkpt lat="35.7252867" lon="-5.892835"><ele>24.0</ele><time>2026-04-28T10:50:54.038Z</time></trkpt><trkpt lat="35.7253367" lon="-5.8926667"><ele>22.333333333333332</ele><time>2026-04-28T10:50:55.038Z</time></trkpt><trkpt lat="35.7253917" lon="-5.8924917"><ele>20.666666666666664</ele><time>2026-04-28T10:50:56.038Z</time></trkpt><trkpt lat="35.7254517" lon="-5.892315"><ele>19.0</ele><time>2026-04-28T10:50:57.038Z</time></trkpt><trkpt lat="35.725505" lon="-5.8921383"><ele>19.0</ele><time>2026-04-28T10:50:58.038Z</time></trkpt><trkpt lat="35.7255517" lon="-5.8919717"><ele>19.0</ele><time>2026-04-28T10:50:59.038Z</time></trkpt><trkpt lat="35.7256067" lon="-5.891805"><ele>19.0</ele><time>2026-04-28T10:51:00.038Z</time></trkpt><trkpt lat="35.72567" lon="-5.8916417"><ele>19.0</ele><time>2026-04-28T10:51:01.038Z</time></trkpt><trkpt lat="35.7257233" lon="-5.8914883"><ele>19.0</ele><time>2026-04-28T10:51:02.038Z</time></trkpt><trkpt lat="35.7257683" lon="-5.8913267"><ele>19.0</ele><time>2026-04-28T10:51:03.038Z</time></trkpt><trkpt lat="35.72582" lon="-5.8911583"><ele>19.0</ele><time>2026-04-28T10:51:04.038Z</time></trkpt><trkpt lat="35.7258667" lon="-5.8909967"><ele>19.0</ele><time>2026-04-28T10:51:05.038Z</time></trkpt><trkpt lat="35.72592" lon="-5.8908333"><ele>19.0</ele><time>2026-04-28T10:51:06.038Z</time></trkpt><trkpt lat="35.725975" lon="-5.8906733"><ele>19.0</ele><time>2026-04-28T10:51:07.038Z</time></trkpt><trkpt lat="35.7260317" lon="-5.8905133"><ele>19.0</ele><time>2026-04-28T10:51:08.038Z</time></trkpt><trkpt lat="35.726085" lon="-5.8903483"><ele>19.0</ele><time>2026-04-28T10:51:09.038Z</time></trkpt><trkpt lat="35.7261417" lon="-5.8901833"><ele>19.5</ele><time>2026-04-28T10:51:10.038Z</time></trkpt><trkpt lat="35.7261917" lon="-5.890015"><ele>20.0</ele><time>2026-04-28T10:51:11.038Z</time></trkpt><trkpt lat="35.7262433" lon="-5.8898517"><ele>20.5</ele><time>2026-04-28T10:51:12.038Z</time></trkpt><trkpt lat="35.726295" lon="-5.889685"><ele>21.0</ele><time>2026-04-28T10:51:13.038Z</time></trkpt><trkpt lat="35.7263483" lon="-5.8895183"><ele>21.0</ele><time>2026-04-28T10:51:14.038Z</time></trkpt><trkpt lat="35.7264" lon="-5.8893567"><ele>21.0</ele><time>2026-04-28T10:51:15.038Z</time></trkpt><trkpt lat="35.7264517" lon="-5.8891967"><ele>21.0</ele><time>2026-04-28T10:51:16.038Z</time></trkpt><trkpt lat="35.726505" lon="-5.8890283"><ele>21.0</ele><time>2026-04-28T10:51:17.038Z</time></trkpt><trkpt lat="35.7265583" lon="-5.8888633"><ele>21.25</ele><time>2026-04-28T10:51:18.038Z</time></trkpt><trkpt lat="35.7266067" lon="-5.8887017"><ele>21.5</ele><time>2026-04-28T10:51:19.038Z</time></trkpt><trkpt lat="35.726665" lon="-5.88854"><ele>21.75</ele><time>2026-04-28T10:51:20.038Z</time></trkpt><trkpt lat="35.7267133" lon="-5.88837"><ele>22.0</ele><time>2026-04-28T10:51:21.038Z</time></trkpt><trkpt lat="35.7267667" lon="-5.8882067"><ele>22.0</ele><time>2026-04-28T10:51:22.038Z</time></trkpt><trkpt lat="35.7268217" lon="-5.8880433"><ele>22.0</ele><time>2026-04-28T10:51:23.038Z</time></trkpt><trkpt lat="35.7268783" lon="-5.887875"><ele>22.0</ele><time>2026-04-28T10:51:24.038Z</time></trkpt><trkpt lat="35.7269317" lon="-5.8877083"><ele>22.0</ele><time>2026-04-28T10:51:25.037Z</time></trkpt><trkpt lat="35.7269817" lon="-5.8875383"><ele>22.25</ele><time>2026-04-28T10:51:26.038Z</time></trkpt><trkpt lat="35.7270367" lon="-5.8873783"><ele>22.5</ele><time>2026-04-28T10:51:27.038Z</time></trkpt><trkpt lat="35.7270917" lon="-5.8872133"><ele>22.75</ele><time>2026-04-28T10:51:28.038Z</time></trkpt><trkpt lat="35.72715" lon="-5.8870533"><ele>23.0</ele><time>2026-04-28T10:51:29.038Z</time></trkpt><trkpt lat="35.727205" lon="-5.8868967"><ele>23.0</ele><time>2026-04-28T10:51:30.038Z</time></trkpt><trkpt lat="35.727255" lon="-5.88674"><ele>23.0</ele><time>2026-04-28T10:51:31.038Z</time></trkpt><trkpt lat="35.727305" lon="-5.8865817"><ele>23.0</ele><time>2026-04-28T10:51:32.038Z</time></trkpt><trkpt lat="35.727355" lon="-5.8864233"><ele>23.0</ele><time>2026-04-28T10:51:33.038Z</time></trkpt><trkpt lat="35.7274067" lon="-5.8862667"><ele>23.0</ele><time>2026-04-28T10:51:34.037Z</time></trkpt><trkpt lat="35.7274633" lon="-5.8861117"><ele>23.0</ele><time>2026-04-28T10:51:35.038Z</time></trkpt><trkpt lat="35.727515" lon="-5.8859533"><ele>23.0</ele><time>2026-04-28T10:51:36.038Z</time></trkpt><trkpt lat="35.7275633" lon="-5.8858"><ele>23.0</ele><time>2026-04-28T10:51:37.038Z</time></trkpt><trkpt lat="35.72761" lon="-5.885635"><ele>23.5</ele><time>2026-04-28T10:51:38.038Z</time></trkpt><trkpt lat="35.727665" lon="-5.8854817"><ele>24.0</ele><time>2026-04-28T10:51:39.038Z</time></trkpt><trkpt lat="35.7277133" lon="-5.885325"><ele>24.5</ele><time>2026-04-28T10:51:40.038Z</time></trkpt><trkpt lat="35.7277583" lon="-5.885165"><ele>25.0</ele><time>2026-04-28T10:51:41.037Z</time></trkpt><trkpt lat="35.7278083" lon="-5.8850133"><ele>25.25</ele><time>2026-04-28T10:51:42.038Z</time></trkpt><trkpt lat="35.7278533" lon="-5.8848683"><ele>25.5</ele><time>2026-04-28T10:51:43.038Z</time></trkpt><trkpt lat="35.7279033" lon="-5.8847317"><ele>25.75</ele><time>2026-04-28T10:51:44.038Z</time></trkpt><trkpt lat="35.7279483" lon="-5.884595"><ele>26.0</ele><time>2026-04-28T10:51:45.037Z</time></trkpt><trkpt lat="35.7279883" lon="-5.884465"><ele>26.0</ele><time>2026-04-28T10:51:46.038Z</time></trkpt><trkpt lat="35.7280233" lon="-5.8843367"><ele>26.0</ele><time>2026-04-28T10:51:47.038Z</time></trkpt><trkpt lat="35.72806" lon="-5.8842133"><ele>26.0</ele><time>2026-04-28T10:51:48.038Z</time></trkpt><trkpt lat="35.728095" lon="-5.8840933"><ele>26.0</ele><time>2026-04-28T10:51:49.038Z</time></trkpt><trkpt lat="35.7281283" lon="-5.883965"><ele>26.0</ele><time>2026-04-28T10:51:50.038Z</time></trkpt><trkpt lat="35.7281633" lon="-5.8838367"><ele>26.0</ele><time>2026-04-28T10:51:51.038Z</time></trkpt><trkpt lat="35.728195" lon="-5.8837167"><ele>26.0</ele><time>2026-04-28T10:51:52.038Z</time></trkpt><trkpt lat="35.7282217" lon="-5.8835967"><ele>26.0</ele><time>2026-04-28T10:51:53.038Z</time></trkpt><trkpt lat="35.7282467" lon="-5.8834833"><ele>26.0</ele><time>2026-04-28T10:51:54.038Z</time></trkpt><trkpt lat="35.7282667" lon="-5.8833767"><ele>26.0</ele><time>2026-04-28T10:51:55.038Z</time></trkpt><trkpt lat="35.7282817" lon="-5.8832833"><ele>26.0</ele><time>2026-04-28T10:51:56.038Z</time></trkpt><trkpt lat="35.7282917" lon="-5.8831383"><ele>26.0</ele><time>2026-04-28T10:51:58.038Z</time></trkpt><trkpt lat="35.7282917" lon="-5.88302"><ele>26.0</ele><time>2026-04-28T10:52:00.037Z</time></trkpt><trkpt lat="35.7282933" lon="-5.88292"><ele>26.0</ele><time>2026-04-28T10:52:02.038Z</time></trkpt><trkpt lat="35.7283217" lon="-5.882815"><ele>26.0</ele><time>2026-04-28T10:52:04.038Z</time></trkpt><trkpt lat="35.7283917" lon="-5.8826833"><ele>26.0</ele><time>2026-04-28T10:52:06.038Z</time></trkpt><trkpt lat="35.7284433" lon="-5.882595"><ele>26.0</ele><time>2026-04-28T10:52:07.038Z</time></trkpt><trkpt lat="35.7284917" lon="-5.882495"><ele>26.0</ele><time>2026-04-28T10:52:08.038Z</time></trkpt><trkpt lat="35.728535" lon="-5.8823883"><ele>26.0</ele><time>2026-04-28T10:52:09.038Z</time></trkpt><trkpt lat="35.7285917" lon="-5.882265"><ele>26.0</ele><time>2026-04-28T10:52:10.038Z</time></trkpt><trkpt lat="35.7286583" lon="-5.8821283"><ele>27.0</ele><time>2026-04-28T10:52:11.038Z</time></trkpt><trkpt lat="35.7287267" lon="-5.8819817"><ele>28.0</ele><time>2026-04-28T10:52:12.038Z</time></trkpt><trkpt lat="35.72879" lon="-5.881845"><ele>29.0</ele><time>2026-04-28T10:52:13.038Z</time></trkpt><trkpt lat="35.728845" lon="-5.8817067"><ele>30.0</ele><time>2026-04-28T10:52:14.038Z</time></trkpt><trkpt lat="35.7288983" lon="-5.8815583"><ele>30.0</ele><time>2026-04-28T10:52:15.038Z</time></trkpt><trkpt lat="35.7289517" lon="-5.88141"><ele>30.0</ele><time>2026-04-28T10:52:16.037Z</time></trkpt><trkpt lat="35.729" lon="-5.8812533"><ele>30.0</ele><time>2026-04-28T10:52:17.038Z</time></trkpt><trkpt lat="35.72905" lon="-5.8811017"><ele>30.0</ele><time>2026-04-28T10:52:18.038Z</time></trkpt><trkpt lat="35.7290983" lon="-5.880955"><ele>30.25</ele><time>2026-04-28T10:52:19.037Z</time></trkpt><trkpt lat="35.729145" lon="-5.8808067"><ele>30.5</ele><time>2026-04-28T10:52:20.038Z</time></trkpt><trkpt lat="35.72919" lon="-5.88066"><ele>30.75</ele><time>2026-04-28T10:52:21.038Z</time></trkpt><trkpt lat="35.729235" lon="-5.8805083"><ele>31.0</ele><time>2026-04-28T10:52:22.038Z</time></trkpt><trkpt lat="35.7292833" lon="-5.880355"><ele>31.0</ele><time>2026-04-28T10:52:23.038Z</time></trkpt><trkpt lat="35.729335" lon="-5.8802033"><ele>31.0</ele><time>2026-04-28T10:52:24.038Z</time></trkpt><trkpt lat="35.7293833" lon="-5.8800583"><ele>31.0</ele><time>2026-04-28T10:52:25.038Z</time></trkpt><trkpt lat="35.729425" lon="-5.87991"><ele>31.0</ele><time>2026-04-28T10:52:26.038Z</time></trkpt><trkpt lat="35.7294733" lon="-5.8797567"><ele>31.5</ele><time>2026-04-28T10:52:27.037Z</time></trkpt><trkpt lat="35.7295183" lon="-5.8796033"><ele>32.0</ele><time>2026-04-28T10:52:28.038Z</time></trkpt><trkpt lat="35.7295617" lon="-5.879455"><ele>32.5</ele><time>2026-04-28T10:52:29.038Z</time></trkpt><trkpt lat="35.7296133" lon="-5.8793067"><ele>33.0</ele><time>2026-04-28T10:52:30.038Z</time></trkpt><trkpt lat="35.7296667" lon="-5.8791517"><ele>33.0</ele><time>2026-04-28T10:52:31.038Z</time></trkpt><trkpt lat="35.7297167" lon="-5.8789917"><ele>33.0</ele><time>2026-04-28T10:52:32.038Z</time></trkpt><trkpt lat="35.72977" lon="-5.8788333"><ele>33.0</ele><time>2026-04-28T10:52:33.038Z</time></trkpt><trkpt lat="35.7298133" lon="-5.878675"><ele>33.0</ele><time>2026-04-28T10:52:34.038Z</time></trkpt><trkpt lat="35.7298617" lon="-5.8785167"><ele>33.75</ele><time>2026-04-28T10:52:35.038Z</time></trkpt><trkpt lat="35.7299117" lon="-5.8783567"><ele>34.5</ele><time>2026-04-28T10:52:36.038Z</time></trkpt><trkpt lat="35.72996" lon="-5.878195"><ele>35.25</ele><time>2026-04-28T10:52:37.038Z</time></trkpt><trkpt lat="35.73001" lon="-5.878035"><ele>36.0</ele><time>2026-04-28T10:52:38.038Z</time></trkpt><trkpt lat="35.7300617" lon="-5.8778767"><ele>36.0</ele><time>2026-04-28T10:52:39.038Z</time></trkpt><trkpt lat="35.7301167" lon="-5.8777167"><ele>36.0</ele><time>2026-04-28T10:52:40.038Z</time></trkpt><trkpt lat="35.7301683" lon="-5.8775533"><ele>36.0</ele><time>2026-04-28T10:52:41.038Z</time></trkpt><trkpt lat="35.73022" lon="-5.8773917"><ele>36.0</ele><time>2026-04-28T10:52:42.038Z</time></trkpt><trkpt lat="35.7302733" lon="-5.8772267"><ele>36.25</ele><time>2026-04-28T10:52:43.038Z</time></trkpt><trkpt lat="35.730325" lon="-5.8770617"><ele>36.5</ele><time>2026-04-28T10:52:44.038Z</time></trkpt><trkpt lat="35.730375" lon="-5.8768967"><ele>36.75</ele><time>2026-04-28T10:52:45.038Z</time></trkpt><trkpt lat="35.73043" lon="-5.8767283"><ele>37.0</ele><time>2026-04-28T10:52:46.038Z</time></trkpt><trkpt lat="35.7304833" lon="-5.8765583"><ele>37.0</ele><time>2026-04-28T10:52:47.038Z</time></trkpt><trkpt lat="35.7305333" lon="-5.8763933"><ele>37.0</ele><time>2026-04-28T10:52:48.038Z</time></trkpt><trkpt lat="35.7305867" lon="-5.876225"><ele>37.0</ele><time>2026-04-28T10:52:49.038Z</time></trkpt><trkpt lat="35.7306383" lon="-5.8760617"><ele>37.0</ele><time>2026-04-28T10:52:50.038Z</time></trkpt><trkpt lat="35.73069" lon="-5.8759"><ele>36.75</ele><time>2026-04-28T10:52:51.037Z</time></trkpt><trkpt lat="35.73074" lon="-5.8757467"><ele>36.5</ele><time>2026-04-28T10:52:52.038Z</time></trkpt><trkpt lat="35.73079" lon="-5.8755967"><ele>36.25</ele><time>2026-04-28T10:52:53.038Z</time></trkpt><trkpt lat="35.7308433" lon="-5.8754417"><ele>36.0</ele><time>2026-04-28T10:52:54.038Z</time></trkpt><trkpt lat="35.73089" lon="-5.8752833"><ele>36.0</ele><time>2026-04-28T10:52:55.038Z</time></trkpt><trkpt lat="35.7309333" lon="-5.8751267"><ele>36.0</ele><time>2026-04-28T10:52:56.038Z</time></trkpt><trkpt lat="35.7309817" lon="-5.8749683"><ele>36.0</ele><time>2026-04-28T10:52:57.038Z</time></trkpt><trkpt lat="35.7310267" lon="-5.874815"><ele>36.0</ele><time>2026-04-28T10:52:58.037Z</time></trkpt><trkpt lat="35.7310733" lon="-5.87466"><ele>36.25</ele><time>2026-04-28T10:52:59.038Z</time></trkpt><trkpt lat="35.7311217" lon="-5.874515"><ele>36.5</ele><time>2026-04-28T10:53:00.038Z</time></trkpt><trkpt lat="35.7311583" lon="-5.8743667"><ele>36.75</ele><time>2026-04-28T10:53:01.037Z</time></trkpt><trkpt lat="35.7311917" lon="-5.87423"><ele>37.0</ele><time>2026-04-28T10:53:02.038Z</time></trkpt><trkpt lat="35.7312233" lon="-5.8741"><ele>37.2</ele><time>2026-04-28T10:53:03.038Z</time></trkpt><trkpt lat="35.7312433" lon="-5.87399"><ele>37.400000000000006</ele><time>2026-04-28T10:53:04.038Z</time></trkpt><trkpt lat="35.7312633" lon="-5.873885"><ele>37.599999999999994</ele><time>2026-04-28T10:53:05.038Z</time></trkpt><trkpt lat="35.7312883" lon="-5.8737733"><ele>37.8</ele><time>2026-04-28T10:53:06.038Z</time></trkpt><trkpt lat="35.7313233" lon="-5.87367"><ele>38.0</ele><time>2026-04-28T10:53:07.038Z</time></trkpt><trkpt lat="35.7313683" lon="-5.8735667"><ele>38.0</ele><time>2026-04-28T10:53:08.038Z</time></trkpt><trkpt lat="35.7314167" lon="-5.873465"><ele>38.0</ele><time>2026-04-28T10:53:09.038Z</time></trkpt><trkpt lat="35.7314633" lon="-5.873355"><ele>38.0</ele><time>2026-04-28T10:53:10.038Z</time></trkpt><trkpt lat="35.7315133" lon="-5.873235"><ele>38.0</ele><time>2026-04-28T10:53:11.038Z</time></trkpt><trkpt lat="35.73156" lon="-5.8731017"><ele>38.0</ele><time>2026-04-28T10:53:12.038Z</time></trkpt><trkpt lat="35.7316067" lon="-5.8729633"><ele>38.0</ele><time>2026-04-28T10:53:13.038Z</time></trkpt><trkpt lat="35.73165" lon="-5.872815"><ele>38.0</ele><time>2026-04-28T10:53:14.038Z</time></trkpt><trkpt lat="35.7316967" lon="-5.8726717"><ele>38.0</ele><time>2026-04-28T10:53:15.038Z</time></trkpt><trkpt lat="35.7317433" lon="-5.8725233"><ele>38.0</ele><time>2026-04-28T10:53:16.038Z</time></trkpt><trkpt lat="35.7317933" lon="-5.8723733"><ele>38.0</ele><time>2026-04-28T10:53:17.038Z</time></trkpt><trkpt lat="35.7318417" lon="-5.872215"><ele>38.0</ele><time>2026-04-28T10:53:18.038Z</time></trkpt><trkpt lat="35.7318917" lon="-5.8720567"><ele>38.0</ele><time>2026-04-28T10:53:19.038Z</time></trkpt><trkpt lat="35.731945" lon="-5.8718917"><ele>38.0</ele><time>2026-04-28T10:53:20.038Z</time></trkpt><trkpt lat="35.7319983" lon="-5.8717233"><ele>39.5</ele><time>2026-04-28T10:53:21.038Z</time></trkpt><trkpt lat="35.732055" lon="-5.871555"><ele>41.0</ele><time>2026-04-28T10:53:22.038Z</time></trkpt><trkpt lat="35.7321117" lon="-5.8713817"><ele>42.5</ele><time>2026-04-28T10:53:23.038Z</time></trkpt><trkpt lat="35.7321617" lon="-5.8712083"><ele>44.0</ele><time>2026-04-28T10:53:24.038Z</time></trkpt><trkpt lat="35.7322133" lon="-5.8710367"><ele>44.33333333333333</ele><time>2026-04-28T10:53:25.038Z</time></trkpt><trkpt lat="35.7322683" lon="-5.870865"><ele>44.666666666666664</ele><time>2026-04-28T10:53:26.038Z</time></trkpt><trkpt lat="35.7323217" lon="-5.8706883"><ele>45.0</ele><time>2026-04-28T10:53:27.038Z</time></trkpt><trkpt lat="35.73238" lon="-5.8705083"><ele>45.0</ele><time>2026-04-28T10:53:28.038Z</time></trkpt><trkpt lat="35.7324367" lon="-5.87033"><ele>45.0</ele><time>2026-04-28T10:53:29.038Z</time></trkpt><trkpt lat="35.7324983" lon="-5.8701533"><ele>45.0</ele><time>2026-04-28T10:53:30.038Z</time></trkpt><trkpt lat="35.7325517" lon="-5.869985"><ele>45.25</ele><time>2026-04-28T10:53:31.038Z</time></trkpt><trkpt lat="35.732605" lon="-5.86982"><ele>45.5</ele><time>2026-04-28T10:53:32.038Z</time></trkpt><trkpt lat="35.73265" lon="-5.86966"><ele>45.75</ele><time>2026-04-28T10:53:33.038Z</time></trkpt><trkpt lat="35.7327" lon="-5.8695083"><ele>46.0</ele><time>2026-04-28T10:53:34.038Z</time></trkpt><trkpt lat="35.73275" lon="-5.8693633"><ele>47.199999999999996</ele><time>2026-04-28T10:53:35.038Z</time></trkpt><trkpt lat="35.732795" lon="-5.8692233"><ele>48.4</ele><time>2026-04-28T10:53:36.038Z</time></trkpt><trkpt lat="35.7328383" lon="-5.8690917"><ele>49.6</ele><time>2026-04-28T10:53:37.038Z</time></trkpt><trkpt lat="35.7328783" lon="-5.8689683"><ele>50.8</ele><time>2026-04-28T10:53:38.038Z</time></trkpt><trkpt lat="35.73291" lon="-5.86886"><ele>52.0</ele><time>2026-04-28T10:53:39.038Z</time></trkpt><trkpt lat="35.73294" lon="-5.8687683"><ele>51.99999999999999</ele><time>2026-04-28T10:53:40.038Z</time></trkpt><trkpt lat="35.7329683" lon="-5.868695"><ele>52.0</ele><time>2026-04-28T10:53:41.037Z</time></trkpt><trkpt lat="35.7329933" lon="-5.8686183"><ele>52.0</ele><time>2026-04-28T10:53:42.038Z</time></trkpt><trkpt lat="35.7330333" lon="-5.8684983"><ele>52.0</ele><time>2026-04-28T10:53:44.038Z</time></trkpt><trkpt lat="35.733065" lon="-5.8684167"><ele>51.99999999999999</ele><time>2026-04-28T10:53:46.038Z</time></trkpt><trkpt lat="35.7331183" lon="-5.8682933"><ele>52.0</ele><time>2026-04-28T10:54:12.038Z</time></trkpt><trkpt lat="35.7331633" lon="-5.8681933"><ele>51.2</ele><time>2026-04-28T10:54:14.038Z</time></trkpt><trkpt lat="35.73319" lon="-5.8681033"><ele>50.400000000000006</ele><time>2026-04-28T10:54:16.038Z</time></trkpt><trkpt lat="35.7332233" lon="-5.8680033"><ele>49.599999999999994</ele><time>2026-04-28T10:54:18.038Z</time></trkpt><trkpt lat="35.7332667" lon="-5.8678517"><ele>48.8</ele><time>2026-04-28T10:54:20.038Z</time></trkpt><trkpt lat="35.7332867" lon="-5.8677533"><ele>48.0</ele><time>2026-04-28T10:54:21.038Z</time></trkpt><trkpt lat="35.733305" lon="-5.8676617"><ele>47.8</ele><time>2026-04-28T10:54:22.038Z</time></trkpt><trkpt lat="35.7333333" lon="-5.8675783"><ele>47.599999999999994</ele><time>2026-04-28T10:54:23.037Z</time></trkpt><trkpt lat="35.7333783" lon="-5.8674933"><ele>47.400000000000006</ele><time>2026-04-28T10:54:24.037Z</time></trkpt><trkpt lat="35.7334317" lon="-5.8674017"><ele>47.2</ele><time>2026-04-28T10:54:25.038Z</time></trkpt><trkpt lat="35.73349" lon="-5.8673017"><ele>47.0</ele><time>2026-04-28T10:54:26.038Z</time></trkpt><trkpt lat="35.7335467" lon="-5.8671883"><ele>47.5</ele><time>2026-04-28T10:54:27.037Z</time></trkpt><trkpt lat="35.7336" lon="-5.86706"><ele>48.0</ele><time>2026-04-28T10:54:28.038Z</time></trkpt><trkpt lat="35.733655" lon="-5.8669283"><ele>48.5</ele><time>2026-04-28T10:54:29.038Z</time></trkpt><trkpt lat="35.7337083" lon="-5.8667867"><ele>49.0</ele><time>2026-04-28T10:54:30.038Z</time></trkpt><trkpt lat="35.7337667" lon="-5.866635"><ele>49.0</ele><time>2026-04-28T10:54:31.038Z</time></trkpt><trkpt lat="35.733835" lon="-5.86648"><ele>49.0</ele><time>2026-04-28T10:54:32.037Z</time></trkpt><trkpt lat="35.7339" lon="-5.8663167"><ele>49.0</ele><time>2026-04-28T10:54:33.038Z</time></trkpt><trkpt lat="35.7339717" lon="-5.8661533"><ele>49.0</ele><time>2026-04-28T10:54:34.038Z</time></trkpt><trkpt lat="35.7340417" lon="-5.865985"><ele>49.0</ele><time>2026-04-28T10:54:35.038Z</time></trkpt><trkpt lat="35.73411" lon="-5.865815"><ele>49.0</ele><time>2026-04-28T10:54:36.038Z</time></trkpt><trkpt lat="35.734185" lon="-5.8656517"><ele>49.0</ele><time>2026-04-28T10:54:37.038Z</time></trkpt><trkpt lat="35.7342617" lon="-5.8654717"><ele>49.0</ele><time>2026-04-28T10:54:38.038Z</time></trkpt><trkpt lat="35.7343367" lon="-5.8652867"><ele>49.0</ele><time>2026-04-28T10:54:39.038Z</time></trkpt><trkpt lat="35.7344117" lon="-5.8651017"><ele>49.0</ele><time>2026-04-28T10:54:40.038Z</time></trkpt><trkpt lat="35.734485" lon="-5.8649267"><ele>50.666666666666664</ele><time>2026-04-28T10:54:41.038Z</time></trkpt><trkpt lat="35.734555" lon="-5.8647583"><ele>52.33333333333333</ele><time>2026-04-28T10:54:42.038Z</time></trkpt><trkpt lat="35.7346233" lon="-5.864595"><ele>54.0</ele><time>2026-04-28T10:54:43.038Z</time></trkpt><trkpt lat="35.7346917" lon="-5.8644233"><ele>53.0</ele><time>2026-04-28T10:54:44.038Z</time></trkpt><trkpt lat="35.7347583" lon="-5.864255"><ele>52.0</ele><time>2026-04-28T10:54:45.037Z</time></trkpt><trkpt lat="35.7348267" lon="-5.8640933"><ele>51.0</ele><time>2026-04-28T10:54:46.038Z</time></trkpt><trkpt lat="35.734895" lon="-5.863925"><ele>51.0</ele><time>2026-04-28T10:54:47.038Z</time></trkpt><trkpt lat="35.7349667" lon="-5.8637567"><ele>51.0</ele><time>2026-04-28T10:54:48.038Z</time></trkpt><trkpt lat="35.735035" lon="-5.8635867"><ele>51.0</ele><time>2026-04-28T10:54:49.038Z</time></trkpt><trkpt lat="35.735105" lon="-5.8634183"><ele>50.66666666666667</ele><time>2026-04-28T10:54:50.038Z</time></trkpt><trkpt lat="35.7351767" lon="-5.8632467"><ele>50.333333333333336</ele><time>2026-04-28T10:54:51.038Z</time></trkpt><trkpt lat="35.7352433" lon="-5.8630667"><ele>50.0</ele><time>2026-04-28T10:54:52.037Z</time></trkpt><trkpt lat="35.7353133" lon="-5.8628883"><ele>51.333333333333336</ele><time>2026-04-28T10:54:53.038Z</time></trkpt><trkpt lat="35.7353883" lon="-5.862715"><ele>52.66666666666667</ele><time>2026-04-28T10:54:54.038Z</time></trkpt><trkpt lat="35.7354617" lon="-5.86254"><ele>54.0</ele><time>2026-04-28T10:54:55.038Z</time></trkpt><trkpt lat="35.7355317" lon="-5.86236"><ele>54.66666666666667</ele><time>2026-04-28T10:54:56.037Z</time></trkpt><trkpt lat="35.7356033" lon="-5.862185"><ele>55.333333333333336</ele><time>2026-04-28T10:54:57.038Z</time></trkpt><trkpt lat="35.7356717" lon="-5.8620083"><ele>56.0</ele><time>2026-04-28T10:54:58.038Z</time></trkpt><trkpt lat="35.735745" lon="-5.86183"><ele>55.66666666666667</ele><time>2026-04-28T10:54:59.037Z</time></trkpt><trkpt lat="35.7358117" lon="-5.8616533"><ele>55.33333333333333</ele><time>2026-04-28T10:55:00.038Z</time></trkpt><trkpt lat="35.7358867" lon="-5.8614767"><ele>55.0</ele><time>2026-04-28T10:55:01.038Z</time></trkpt><trkpt lat="35.73596" lon="-5.8613033"><ele>55.0</ele><time>2026-04-28T10:55:02.038Z</time></trkpt><trkpt lat="35.7360317" lon="-5.861125"><ele>55.0</ele><time>2026-04-28T10:55:03.038Z</time></trkpt><trkpt lat="35.7361" lon="-5.8609533"><ele>55.0</ele><time>2026-04-28T10:55:04.038Z</time></trkpt><trkpt lat="35.7361683" lon="-5.8607767"><ele>56.33333333333333</ele><time>2026-04-28T10:55:05.038Z</time></trkpt><trkpt lat="35.7362333" lon="-5.8606"><ele>57.66666666666667</ele><time>2026-04-28T10:55:06.038Z</time></trkpt><trkpt lat="35.736295" lon="-5.8604167"><ele>59.0</ele><time>2026-04-28T10:55:07.038Z</time></trkpt><trkpt lat="35.7363583" lon="-5.8602333"><ele>59.66666666666667</ele><time>2026-04-28T10:55:08.038Z</time></trkpt><trkpt lat="35.7364267" lon="-5.860055"><ele>60.33333333333333</ele><time>2026-04-28T10:55:09.038Z</time></trkpt><trkpt lat="35.7364933" lon="-5.85988"><ele>61.0</ele><time>2026-04-28T10:55:10.038Z</time></trkpt><trkpt lat="35.736565" lon="-5.8597017"><ele>61.0</ele><time>2026-04-28T10:55:11.037Z</time></trkpt><trkpt lat="35.73663" lon="-5.859525"><ele>61.0</ele><time>2026-04-28T10:55:12.038Z</time></trkpt><trkpt lat="35.73669" lon="-5.8593517"><ele>61.0</ele><time>2026-04-28T10:55:13.038Z</time></trkpt><trkpt lat="35.7367483" lon="-5.8591867"><ele>60.0</ele><time>2026-04-28T10:55:14.038Z</time></trkpt><trkpt lat="35.7368" lon="-5.8590267"><ele>59.0</ele><time>2026-04-28T10:55:15.038Z</time></trkpt><trkpt lat="35.73685" lon="-5.8588617"><ele>58.0</ele><time>2026-04-28T10:55:16.038Z</time></trkpt><trkpt lat="35.7368983" lon="-5.8587083"><ele>57.0</ele><time>2026-04-28T10:55:17.037Z</time></trkpt><trkpt lat="35.736945" lon="-5.858555"><ele>58.75</ele><time>2026-04-28T10:55:18.038Z</time></trkpt><trkpt lat="35.7369883" lon="-5.858405"><ele>60.5</ele><time>2026-04-28T10:55:19.038Z</time></trkpt><trkpt lat="35.73703" lon="-5.85826"><ele>62.25</ele><time>2026-04-28T10:55:20.038Z</time></trkpt><trkpt lat="35.7370667" lon="-5.858125"><ele>64.0</ele><time>2026-04-28T10:55:21.037Z</time></trkpt><trkpt lat="35.7371" lon="-5.85801"><ele>63.99999999999999</ele><time>2026-04-28T10:55:22.038Z</time></trkpt><trkpt lat="35.7371267" lon="-5.8579033"><ele>64.0</ele><time>2026-04-28T10:55:23.038Z</time></trkpt><trkpt lat="35.73715" lon="-5.857815"><ele>64.0</ele><time>2026-04-28T10:55:24.038Z</time></trkpt><trkpt lat="35.7371733" lon="-5.857735"><ele>64.0</ele><time>2026-04-28T10:55:25.038Z</time></trkpt><trkpt lat="35.73719" lon="-5.85766"><ele>63.99999999999999</ele><time>2026-04-28T10:55:26.037Z</time></trkpt><trkpt lat="35.7372033" lon="-5.8575667"><ele>64.0</ele><time>2026-04-28T10:55:28.038Z</time></trkpt><trkpt lat="35.7372133" lon="-5.8574633"><ele>63.400000000000006</ele><time>2026-04-28T10:55:30.038Z</time></trkpt><trkpt lat="35.7372267" lon="-5.85735"><ele>62.800000000000004</ele><time>2026-04-28T10:55:32.038Z</time></trkpt><trkpt lat="35.7372683" lon="-5.8571967"><ele>62.199999999999996</ele><time>2026-04-28T10:55:34.038Z</time></trkpt><trkpt lat="35.737305" lon="-5.8571017"><ele>61.599999999999994</ele><time>2026-04-28T10:55:35.038Z</time></trkpt><trkpt lat="35.73735" lon="-5.856995"><ele>61.0</ele><time>2026-04-28T10:55:36.038Z</time></trkpt><trkpt lat="35.7374" lon="-5.8568717"><ele>61.75</ele><time>2026-04-28T10:55:37.038Z</time></trkpt><trkpt lat="35.7374517" lon="-5.8567283"><ele>62.5</ele><time>2026-04-28T10:55:38.038Z</time></trkpt><trkpt lat="35.7374933" lon="-5.8565633"><ele>63.25</ele><time>2026-04-28T10:55:39.038Z</time></trkpt><trkpt lat="35.73754" lon="-5.8563883"><ele>64.0</ele><time>2026-04-28T10:55:40.038Z</time></trkpt><trkpt lat="35.7375917" lon="-5.8562017"><ele>64.0</ele><time>2026-04-28T10:55:41.038Z</time></trkpt><trkpt lat="35.7376367" lon="-5.85601"><ele>64.0</ele><time>2026-04-28T10:55:42.038Z</time></trkpt><trkpt lat="35.7376767" lon="-5.8558217"><ele>64.0</ele><time>2026-04-28T10:55:43.038Z</time></trkpt><trkpt lat="35.7377167" lon="-5.8556433"><ele>64.75</ele><time>2026-04-28T10:55:44.038Z</time></trkpt><trkpt lat="35.7377517" lon="-5.8554767"><ele>65.5</ele><time>2026-04-28T10:55:45.038Z</time></trkpt><trkpt lat="35.7377867" lon="-5.8553133"><ele>66.25</ele><time>2026-04-28T10:55:46.036Z</time></trkpt><trkpt lat="35.737825" lon="-5.8551567"><ele>67.0</ele><time>2026-04-28T10:55:47.037Z</time></trkpt><trkpt lat="35.737865" lon="-5.8549983"><ele>67.0</ele><time>2026-04-28T10:55:48.037Z</time></trkpt><trkpt lat="35.7379017" lon="-5.854845"><ele>67.0</ele><time>2026-04-28T10:55:49.037Z</time></trkpt><trkpt lat="35.7379383" lon="-5.854695"><ele>67.0</ele><time>2026-04-28T10:55:50.037Z</time></trkpt><trkpt lat="35.737975" lon="-5.854555"><ele>67.0</ele><time>2026-04-28T10:55:51.037Z</time></trkpt><trkpt lat="35.7380067" lon="-5.8544233"><ele>67.0</ele><time>2026-04-28T10:55:52.037Z</time></trkpt><trkpt lat="35.7380383" lon="-5.8542933"><ele>67.0</ele><time>2026-04-28T10:55:53.037Z</time></trkpt><trkpt lat="35.7380683" lon="-5.8541717"><ele>67.0</ele><time>2026-04-28T10:55:54.037Z</time></trkpt><trkpt lat="35.7380967" lon="-5.8540467"><ele>67.0</ele><time>2026-04-28T10:55:55.037Z</time></trkpt><trkpt lat="35.7381183" lon="-5.8539233"><ele>67.0</ele><time>2026-04-28T10:55:56.037Z</time></trkpt><trkpt lat="35.73815" lon="-5.8538133"><ele>66.6</ele><time>2026-04-28T10:55:57.037Z</time></trkpt><trkpt lat="35.7381833" lon="-5.8537067"><ele>66.2</ele><time>2026-04-28T10:55:58.037Z</time></trkpt><trkpt lat="35.73821" lon="-5.8535983"><ele>65.8</ele><time>2026-04-28T10:55:59.037Z</time></trkpt><trkpt lat="35.73823" lon="-5.8534983"><ele>65.4</ele><time>2026-04-28T10:56:00.037Z</time></trkpt><trkpt lat="35.738245" lon="-5.8534083"><ele>65.0</ele><time>2026-04-28T10:56:01.037Z</time></trkpt><trkpt lat="35.7382567" lon="-5.8532767"><ele>64.83333333333334</ele><time>2026-04-28T10:56:03.037Z</time></trkpt><trkpt lat="35.7382417" lon="-5.8531717"><ele>64.66666666666667</ele><time>2026-04-28T10:56:05.037Z</time></trkpt><trkpt lat="35.7382367" lon="-5.8530817"><ele>64.5</ele><time>2026-04-28T10:56:07.037Z</time></trkpt><trkpt lat="35.7382733" lon="-5.85298"><ele>64.33333333333333</ele><time>2026-04-28T10:56:10.037Z</time></trkpt><trkpt lat="35.7383383" lon="-5.8528667"><ele>64.16666666666666</ele><time>2026-04-28T10:56:12.037Z</time></trkpt><trkpt lat="35.7383767" lon="-5.852785"><ele>64.0</ele><time>2026-04-28T10:56:13.037Z</time></trkpt><trkpt lat="35.7384167" lon="-5.8526917"><ele>64.0</ele><time>2026-04-28T10:56:14.037Z</time></trkpt><trkpt lat="35.73846" lon="-5.852575"><ele>64.0</ele><time>2026-04-28T10:56:15.037Z</time></trkpt><trkpt lat="35.73851" lon="-5.8524283"><ele>64.0</ele><time>2026-04-28T10:56:16.037Z</time></trkpt><trkpt lat="35.738555" lon="-5.8522717"><ele>64.0</ele><time>2026-04-28T10:56:17.037Z</time></trkpt><trkpt lat="35.7386" lon="-5.8520933"><ele>64.0</ele><time>2026-04-28T10:56:18.037Z</time></trkpt><trkpt lat="35.7386467" lon="-5.8519017"><ele>64.0</ele><time>2026-04-28T10:56:19.036Z</time></trkpt><trkpt lat="35.738705" lon="-5.851695"><ele>64.0</ele><time>2026-04-28T10:56:20.036Z</time></trkpt><trkpt lat="35.738755" lon="-5.8515017"><ele>64.0</ele><time>2026-04-28T10:56:21.037Z</time></trkpt><trkpt lat="35.7388017" lon="-5.8513117"><ele>64.0</ele><time>2026-04-28T10:56:22.037Z</time></trkpt><trkpt lat="35.738845" lon="-5.8511333"><ele>64.0</ele><time>2026-04-28T10:56:23.037Z</time></trkpt><trkpt lat="35.7388867" lon="-5.8509567"><ele>63.75</ele><time>2026-04-28T10:56:24.036Z</time></trkpt><trkpt lat="35.738925" lon="-5.8507917"><ele>63.5</ele><time>2026-04-28T10:56:25.037Z</time></trkpt><trkpt lat="35.7389667" lon="-5.8506333"><ele>63.25</ele><time>2026-04-28T10:56:26.037Z</time></trkpt><trkpt lat="35.739005" lon="-5.8504667"><ele>63.0</ele><time>2026-04-28T10:56:27.037Z</time></trkpt><trkpt lat="35.739045" lon="-5.850305"><ele>63.0</ele><time>2026-04-28T10:56:28.037Z</time></trkpt><trkpt lat="35.7390883" lon="-5.8501467"><ele>63.0</ele><time>2026-04-28T10:56:29.037Z</time></trkpt><trkpt lat="35.7391283" lon="-5.8499883"><ele>63.0</ele><time>2026-04-28T10:56:30.037Z</time></trkpt><trkpt lat="35.7391683" lon="-5.84983"><ele>63.0</ele><time>2026-04-28T10:56:31.037Z</time></trkpt><trkpt lat="35.73921" lon="-5.849675"><ele>62.75</ele><time>2026-04-28T10:56:32.037Z</time></trkpt><trkpt lat="35.73925" lon="-5.8495183"><ele>62.5</ele><time>2026-04-28T10:56:33.037Z</time></trkpt><trkpt lat="35.7392917" lon="-5.8493667"><ele>62.25</ele><time>2026-04-28T10:56:34.037Z</time></trkpt><trkpt lat="35.7393317" lon="-5.8492267"><ele>62.0</ele><time>2026-04-28T10:56:35.037Z</time></trkpt><trkpt lat="35.739375" lon="-5.8490933"><ele>62.75</ele><time>2026-04-28T10:56:36.037Z</time></trkpt><trkpt lat="35.73942" lon="-5.8489567"><ele>63.5</ele><time>2026-04-28T10:56:37.036Z</time></trkpt><trkpt lat="35.7394667" lon="-5.8488233"><ele>64.25</ele><time>2026-04-28T10:56:38.037Z</time></trkpt><trkpt lat="35.7395117" lon="-5.84869"><ele>65.0</ele><time>2026-04-28T10:56:39.037Z</time></trkpt><trkpt lat="35.7395617" lon="-5.848555"><ele>65.0</ele><time>2026-04-28T10:56:40.037Z</time></trkpt><trkpt lat="35.7396133" lon="-5.8484283"><ele>65.0</ele><time>2026-04-28T10:56:41.037Z</time></trkpt><trkpt lat="35.73967" lon="-5.8483033"><ele>65.0</ele><time>2026-04-28T10:56:42.036Z</time></trkpt><trkpt lat="35.73973" lon="-5.8481833"><ele>65.0</ele><time>2026-04-28T10:56:43.037Z</time></trkpt><trkpt lat="35.739795" lon="-5.848065"><ele>65.0</ele><time>2026-04-28T10:56:44.037Z</time></trkpt><trkpt lat="35.7398667" lon="-5.84795"><ele>65.0</ele><time>2026-04-28T10:56:45.037Z</time></trkpt><trkpt lat="35.7399383" lon="-5.8478433"><ele>65.0</ele><time>2026-04-28T10:56:46.037Z</time></trkpt><trkpt lat="35.7400133" lon="-5.847725"><ele>65.0</ele><time>2026-04-28T10:56:47.037Z</time></trkpt><trkpt lat="35.74009" lon="-5.84761"><ele>65.25</ele><time>2026-04-28T10:56:48.037Z</time></trkpt><trkpt lat="35.740165" lon="-5.8474933"><ele>65.5</ele><time>2026-04-28T10:56:49.037Z</time></trkpt><trkpt lat="35.7402433" lon="-5.8473783"><ele>65.75</ele><time>2026-04-28T10:56:50.037Z</time></trkpt><trkpt lat="35.7403267" lon="-5.8472633"><ele>66.0</ele><time>2026-04-28T10:56:51.037Z</time></trkpt><trkpt lat="35.7404133" lon="-5.8471583"><ele>66.0</ele><time>2026-04-28T10:56:52.037Z</time></trkpt><trkpt lat="35.7405033" lon="-5.84705"><ele>66.0</ele><time>2026-04-28T10:56:53.037Z</time></trkpt><trkpt lat="35.7405983" lon="-5.8469417"><ele>66.0</ele><time>2026-04-28T10:56:54.037Z</time></trkpt><trkpt lat="35.7407" lon="-5.8468467"><ele>66.0</ele><time>2026-04-28T10:56:55.037Z</time></trkpt><trkpt lat="35.7408033" lon="-5.8467433"><ele>65.0</ele><time>2026-04-28T10:56:56.037Z</time></trkpt><trkpt lat="35.7409017" lon="-5.8466433"><ele>64.0</ele><time>2026-04-28T10:56:57.037Z</time></trkpt><trkpt lat="35.74101" lon="-5.8465483"><ele>63.0</ele><time>2026-04-28T10:56:58.037Z</time></trkpt><trkpt lat="35.741115" lon="-5.84646"><ele>62.0</ele><time>2026-04-28T10:56:59.037Z</time></trkpt><trkpt lat="35.7412217" lon="-5.846375"><ele>61.5</ele><time>2026-04-28T10:57:00.037Z</time></trkpt><trkpt lat="35.7413283" lon="-5.8462883"><ele>61.0</ele><time>2026-04-28T10:57:01.037Z</time></trkpt><trkpt lat="35.741435" lon="-5.8462033"><ele>60.5</ele><time>2026-04-28T10:57:02.037Z</time></trkpt><trkpt lat="35.741525" lon="-5.8461333"><ele>60.0</ele><time>2026-04-28T10:57:03.037Z</time></trkpt><trkpt lat="35.7416117" lon="-5.84606"><ele>60.0</ele><time>2026-04-28T10:57:04.037Z</time></trkpt><trkpt lat="35.7417" lon="-5.8459883"><ele>60.0</ele><time>2026-04-28T10:57:05.036Z</time></trkpt><trkpt lat="35.7417867" lon="-5.84592"><ele>60.0</ele><time>2026-04-28T10:57:06.037Z</time></trkpt><trkpt lat="35.7418733" lon="-5.845855"><ele>60.0</ele><time>2026-04-28T10:57:07.037Z</time></trkpt><trkpt lat="35.74195" lon="-5.8457983"><ele>60.0</ele><time>2026-04-28T10:57:08.037Z</time></trkpt><trkpt lat="35.7420217" lon="-5.8457467"><ele>59.833333333333336</ele><time>2026-04-28T10:57:09.037Z</time></trkpt><trkpt lat="35.742075" lon="-5.8457033"><ele>59.66666666666667</ele><time>2026-04-28T10:57:10.037Z</time></trkpt><trkpt lat="35.742145" lon="-5.8456433"><ele>59.5</ele><time>2026-04-28T10:57:12.036Z</time></trkpt><trkpt lat="35.74221" lon="-5.8455917"><ele>59.333333333333336</ele><time>2026-04-28T10:57:14.037Z</time></trkpt><trkpt lat="35.7422767" lon="-5.8455417"><ele>59.16666666666667</ele><time>2026-04-28T10:57:17.037Z</time></trkpt><trkpt lat="35.7423483" lon="-5.84547"><ele>59.0</ele><time>2026-04-28T10:57:26.037Z</time></trkpt><trkpt lat="35.742425" lon="-5.845405"><ele>59.00000000000001</ele><time>2026-04-28T10:57:29.036Z</time></trkpt><trkpt lat="35.742485" lon="-5.8453467"><ele>59.0</ele><time>2026-04-28T10:57:32.037Z</time></trkpt><trkpt lat="35.742565" lon="-5.845295"><ele>59.0</ele><time>2026-04-28T10:57:35.037Z</time></trkpt><trkpt lat="35.7426317" lon="-5.8452317"><ele>59.0</ele><time>2026-04-28T10:57:37.037Z</time></trkpt><trkpt lat="35.742705" lon="-5.8451733"><ele>59.00000000000001</ele><time>2026-04-28T10:57:39.037Z</time></trkpt><trkpt lat="35.7427717" lon="-5.8450983"><ele>59.0</ele><time>2026-04-28T10:57:42.037Z</time></trkpt><trkpt lat="35.7428217" lon="-5.8450367"><ele>59.00000000000001</ele><time>2026-04-28T10:57:44.037Z</time></trkpt><trkpt lat="35.7428733" lon="-5.8449683"><ele>59.0</ele><time>2026-04-28T10:57:47.037Z</time></trkpt><trkpt lat="35.742935" lon="-5.84493"><ele>59.0</ele><time>2026-04-28T10:57:50.037Z</time></trkpt><trkpt lat="35.743005" lon="-5.844875"><ele>59.0</ele><time>2026-04-28T10:57:53.037Z</time></trkpt><trkpt lat="35.7430767" lon="-5.8448117"><ele>59.00000000000001</ele><time>2026-04-28T10:57:56.037Z</time></trkpt><trkpt lat="35.7431633" lon="-5.8447633"><ele>59.0</ele><time>2026-04-28T10:57:59.037Z</time></trkpt><trkpt lat="35.7432483" lon="-5.8447117"><ele>59.00000000000001</ele><time>2026-04-28T10:58:01.037Z</time></trkpt><trkpt lat="35.7433283" lon="-5.844655"><ele>59.0</ele><time>2026-04-28T10:58:03.037Z</time></trkpt><trkpt lat="35.7433933" lon="-5.844615"><ele>59.0</ele><time>2026-04-28T10:58:05.036Z</time></trkpt><trkpt lat="35.743485" lon="-5.8445583"><ele>59.0</ele><time>2026-04-28T10:58:07.037Z</time></trkpt><trkpt lat="35.743535" lon="-5.84451"><ele>59.00000000000001</ele><time>2026-04-28T10:58:08.037Z</time></trkpt><trkpt lat="35.743615" lon="-5.8444433"><ele>59.0</ele><time>2026-04-28T10:58:10.037Z</time></trkpt><trkpt lat="35.743705" lon="-5.8444217"><ele>58.75</ele><time>2026-04-28T10:58:39.037Z</time></trkpt><trkpt lat="35.7437767" lon="-5.84435"><ele>58.5</ele><time>2026-04-28T10:58:41.036Z</time></trkpt><trkpt lat="35.7438533" lon="-5.844255"><ele>58.25</ele><time>2026-04-28T10:58:43.037Z</time></trkpt><trkpt lat="35.7439483" lon="-5.8441717"><ele>58.0</ele><time>2026-04-28T10:58:45.037Z</time></trkpt><trkpt lat="35.7440517" lon="-5.8440683"><ele>57.99999999999999</ele><time>2026-04-28T10:58:47.037Z</time></trkpt><trkpt lat="35.7441083" lon="-5.8440067"><ele>58.0</ele><time>2026-04-28T10:58:48.036Z</time></trkpt><trkpt lat="35.7441567" lon="-5.84395"><ele>58.0</ele><time>2026-04-28T10:58:49.037Z</time></trkpt><trkpt lat="35.7442067" lon="-5.84389"><ele>58.0</ele><time>2026-04-28T10:58:50.037Z</time></trkpt><trkpt lat="35.7442667" lon="-5.8437967"><ele>57.99999999999999</ele><time>2026-04-28T10:58:52.036Z</time></trkpt><trkpt lat="35.74435" lon="-5.84374"><ele>58.0</ele><time>2026-04-28T10:58:54.037Z</time></trkpt><trkpt lat="35.74441" lon="-5.8437117"><ele>58.0</ele><time>2026-04-28T10:58:55.036Z</time></trkpt><trkpt lat="35.744485" lon="-5.8436667"><ele>58.0</ele><time>2026-04-28T10:58:56.037Z</time></trkpt><trkpt lat="35.744585" lon="-5.8436017"><ele>58.0</ele><time>2026-04-28T10:58:57.037Z</time></trkpt><trkpt lat="35.7447033" lon="-5.8435233"><ele>58.0</ele><time>2026-04-28T10:58:58.037Z</time></trkpt><trkpt lat="35.7448333" lon="-5.84343"><ele>57.33333333333333</ele><time>2026-04-28T10:58:59.037Z</time></trkpt><trkpt lat="35.7449783" lon="-5.8433267"><ele>56.66666666666667</ele><time>2026-04-28T10:59:00.037Z</time></trkpt><trkpt lat="35.7451217" lon="-5.8432167"><ele>56.0</ele><time>2026-04-28T10:59:01.037Z</time></trkpt><trkpt lat="35.745265" lon="-5.84311"><ele>55.66666666666667</ele><time>2026-04-28T10:59:02.037Z</time></trkpt><trkpt lat="35.7454" lon="-5.8430067"><ele>55.33333333333333</ele><time>2026-04-28T10:59:03.037Z</time></trkpt><trkpt lat="35.745545" lon="-5.84292"><ele>55.0</ele><time>2026-04-28T10:59:04.036Z</time></trkpt><trkpt lat="35.74567" lon="-5.842825"><ele>55.0</ele><time>2026-04-28T10:59:05.037Z</time></trkpt><trkpt lat="35.7457933" lon="-5.8427333"><ele>55.0</ele><time>2026-04-28T10:59:06.037Z</time></trkpt><trkpt lat="35.745915" lon="-5.84264"><ele>55.0</ele><time>2026-04-28T10:59:07.037Z</time></trkpt><trkpt lat="35.7460367" lon="-5.842545"><ele>55.0</ele><time>2026-04-28T10:59:08.037Z</time></trkpt><trkpt lat="35.7461533" lon="-5.842455"><ele>54.25</ele><time>2026-04-28T10:59:09.037Z</time></trkpt><trkpt lat="35.7462733" lon="-5.8423583"><ele>53.5</ele><time>2026-04-28T10:59:10.037Z</time></trkpt><trkpt lat="35.746395" lon="-5.842265"><ele>52.75</ele><time>2026-04-28T10:59:11.037Z</time></trkpt><trkpt lat="35.7465217" lon="-5.8421667"><ele>52.0</ele><time>2026-04-28T10:59:12.037Z</time></trkpt><trkpt lat="35.7466533" lon="-5.84206"><ele>52.0</ele><time>2026-04-28T10:59:13.037Z</time></trkpt><trkpt lat="35.7467767" lon="-5.8419517"><ele>52.0</ele><time>2026-04-28T10:59:14.037Z</time></trkpt><trkpt lat="35.7469017" lon="-5.8418483"><ele>52.0</ele><time>2026-04-28T10:59:15.037Z</time></trkpt><trkpt lat="35.7470217" lon="-5.8417467"><ele>52.0</ele><time>2026-04-28T10:59:16.037Z</time></trkpt><trkpt lat="35.7471467" lon="-5.8416417"><ele>52.0</ele><time>2026-04-28T10:59:17.037Z</time></trkpt><trkpt lat="35.7472667" lon="-5.84154"><ele>52.0</ele><time>2026-04-28T10:59:18.037Z</time></trkpt><trkpt lat="35.7473867" lon="-5.8414367"><ele>52.0</ele><time>2026-04-28T10:59:19.036Z</time></trkpt><trkpt lat="35.7475233" lon="-5.84133"><ele>52.0</ele><time>2026-04-28T10:59:20.037Z</time></trkpt><trkpt lat="35.74765" lon="-5.841225"><ele>52.0</ele><time>2026-04-28T10:59:21.037Z</time></trkpt><trkpt lat="35.7477783" lon="-5.841115"><ele>52.0</ele><time>2026-04-28T10:59:22.037Z</time></trkpt><trkpt lat="35.747915" lon="-5.8410167"><ele>52.33333333333333</ele><time>2026-04-28T10:59:23.037Z</time></trkpt><trkpt lat="35.7480483" lon="-5.84091"><ele>52.66666666666667</ele><time>2026-04-28T10:59:24.037Z</time></trkpt><trkpt lat="35.7481667" lon="-5.8407933"><ele>53.0</ele><time>2026-04-28T10:59:25.037Z</time></trkpt><trkpt lat="35.7483017" lon="-5.8406833"><ele>53.0</ele><time>2026-04-28T10:59:26.037Z</time></trkpt><trkpt lat="35.7484283" lon="-5.84057"><ele>53.0</ele><time>2026-04-28T10:59:27.037Z</time></trkpt><trkpt lat="35.7485517" lon="-5.8404583"><ele>53.0</ele><time>2026-04-28T10:59:28.037Z</time></trkpt><trkpt lat="35.7486883" lon="-5.840345"><ele>52.66666666666667</ele><time>2026-04-28T10:59:29.036Z</time></trkpt><trkpt lat="35.7488083" lon="-5.8402233"><ele>52.33333333333333</ele><time>2026-04-28T10:59:30.037Z</time></trkpt><trkpt lat="35.748925" lon="-5.8401033"><ele>52.0</ele><time>2026-04-28T10:59:31.037Z</time></trkpt><trkpt lat="35.74904" lon="-5.839975"><ele>53.0</ele><time>2026-04-28T10:59:32.037Z</time></trkpt><trkpt lat="35.749145" lon="-5.83984"><ele>54.0</ele><time>2026-04-28T10:59:33.037Z</time></trkpt><trkpt lat="35.7492567" lon="-5.839705"><ele>55.0</ele><time>2026-04-28T10:59:34.037Z</time></trkpt><trkpt lat="35.7493633" lon="-5.8395767"><ele>54.25</ele><time>2026-04-28T10:59:35.037Z</time></trkpt><trkpt lat="35.74943" lon="-5.8394267"><ele>53.5</ele><time>2026-04-28T10:59:36.037Z</time></trkpt><trkpt lat="35.749505" lon="-5.8392733"><ele>52.75</ele><time>2026-04-28T10:59:37.037Z</time></trkpt><trkpt lat="35.7495817" lon="-5.8391283"><ele>52.0</ele><time>2026-04-28T10:59:38.037Z</time></trkpt><trkpt lat="35.7496417" lon="-5.8389733"><ele>52.0</ele><time>2026-04-28T10:59:39.037Z</time></trkpt><trkpt lat="35.74969" lon="-5.8388267"><ele>52.0</ele><time>2026-04-28T10:59:40.037Z</time></trkpt><trkpt lat="35.749735" lon="-5.8386783"><ele>52.0</ele><time>2026-04-28T10:59:41.037Z</time></trkpt><trkpt lat="35.7497767" lon="-5.8385233"><ele>52.0</ele><time>2026-04-28T10:59:42.037Z</time></trkpt><trkpt lat="35.74981" lon="-5.8383683"><ele>52.75</ele><time>2026-04-28T10:59:43.037Z</time></trkpt><trkpt lat="35.7498383" lon="-5.8382083"><ele>53.5</ele><time>2026-04-28T10:59:44.037Z</time></trkpt><trkpt lat="35.74987" lon="-5.83805"><ele>54.25</ele><time>2026-04-28T10:59:45.037Z</time></trkpt><trkpt lat="35.7498933" lon="-5.8378917"><ele>55.0</ele><time>2026-04-28T10:59:46.037Z</time></trkpt><trkpt lat="35.749915" lon="-5.8377667"><ele>54.99999999999999</ele><time>2026-04-28T10:59:47.037Z</time></trkpt><trkpt lat="35.7499283" lon="-5.8376517"><ele>55.0</ele><time>2026-04-28T10:59:48.037Z</time></trkpt><trkpt lat="35.7499417" lon="-5.8375533"><ele>55.0</ele><time>2026-04-28T10:59:49.037Z</time></trkpt><trkpt lat="35.7499567" lon="-5.83746"><ele>55.0</ele><time>2026-04-28T10:59:50.037Z</time></trkpt><trkpt lat="35.7499667" lon="-5.83737"><ele>54.99999999999999</ele><time>2026-04-28T10:59:51.037Z</time></trkpt><trkpt lat="35.749975" lon="-5.83727"><ele>55.0</ele><time>2026-04-28T10:59:52.037Z</time></trkpt><trkpt lat="35.7499883" lon="-5.8371633"><ele>55.0</ele><time>2026-04-28T10:59:53.037Z</time></trkpt><trkpt lat="35.7500067" lon="-5.837045"><ele>55.0</ele><time>2026-04-28T10:59:54.037Z</time></trkpt><trkpt lat="35.75003" lon="-5.8369167"><ele>55.0</ele><time>2026-04-28T10:59:55.037Z</time></trkpt><trkpt lat="35.7500517" lon="-5.8367767"><ele>55.0</ele><time>2026-04-28T10:59:56.037Z</time></trkpt><trkpt lat="35.750075" lon="-5.83663"><ele>55.0</ele><time>2026-04-28T10:59:57.037Z</time></trkpt><trkpt lat="35.7500967" lon="-5.8364717"><ele>55.0</ele><time>2026-04-28T10:59:58.037Z</time></trkpt><trkpt lat="35.7501233" lon="-5.8363067"><ele>55.0</ele><time>2026-04-28T10:59:59.037Z</time></trkpt><trkpt lat="35.7501483" lon="-5.836135"><ele>55.0</ele><time>2026-04-28T11:00:00.037Z</time></trkpt><trkpt lat="35.7501867" lon="-5.8359583"><ele>55.0</ele><time>2026-04-28T11:00:01.037Z</time></trkpt><trkpt lat="35.7502317" lon="-5.8357817"><ele>57.25</ele><time>2026-04-28T11:00:02.037Z</time></trkpt><trkpt lat="35.7502817" lon="-5.8356033"><ele>59.5</ele><time>2026-04-28T11:00:03.037Z</time></trkpt><trkpt lat="35.7503367" lon="-5.83544"><ele>61.75</ele><time>2026-04-28T11:00:04.037Z</time></trkpt><trkpt lat="35.7503967" lon="-5.8352833"><ele>64.0</ele><time>2026-04-28T11:00:05.037Z</time></trkpt><trkpt lat="35.7504633" lon="-5.8351467"><ele>63.0</ele><time>2026-04-28T11:00:06.037Z</time></trkpt><trkpt lat="35.7505317" lon="-5.835015"><ele>62.0</ele><time>2026-04-28T11:00:07.036Z</time></trkpt><trkpt lat="35.750605" lon="-5.8348933"><ele>61.0</ele><time>2026-04-28T11:00:08.037Z</time></trkpt><trkpt lat="35.7506817" lon="-5.8347767"><ele>60.0</ele><time>2026-04-28T11:00:09.037Z</time></trkpt><trkpt lat="35.7507583" lon="-5.834665"><ele>60.0</ele><time>2026-04-28T11:00:10.037Z</time></trkpt><trkpt lat="35.7508333" lon="-5.834555"><ele>60.0</ele><time>2026-04-28T11:00:11.037Z</time></trkpt><trkpt lat="35.7509117" lon="-5.834455"><ele>60.0</ele><time>2026-04-28T11:00:12.037Z</time></trkpt><trkpt lat="35.7509867" lon="-5.83437"><ele>60.0</ele><time>2026-04-28T11:00:13.037Z</time></trkpt><trkpt lat="35.7510467" lon="-5.8343067"><ele>60.0</ele><time>2026-04-28T11:00:14.037Z</time></trkpt><trkpt lat="35.7511217" lon="-5.8342283"><ele>59.333333333333336</ele><time>2026-04-28T11:00:16.037Z</time></trkpt><trkpt lat="35.75117" lon="-5.8341717"><ele>58.66666666666667</ele><time>2026-04-28T11:00:53.036Z</time></trkpt><trkpt lat="35.7512567" lon="-5.83409"><ele>58.0</ele><time>2026-04-28T11:00:55.036Z</time></trkpt><trkpt lat="35.7513567" lon="-5.8339967"><ele>57.333333333333336</ele><time>2026-04-28T11:00:57.036Z</time></trkpt><trkpt lat="35.7514033" lon="-5.8339417"><ele>56.66666666666667</ele><time>2026-04-28T11:00:58.036Z</time></trkpt><trkpt lat="35.7514533" lon="-5.8338883"><ele>56.0</ele><time>2026-04-28T11:00:59.036Z</time></trkpt><trkpt lat="35.7515033" lon="-5.8338383"><ele>56.00000000000001</ele><time>2026-04-28T11:01:00.036Z</time></trkpt><trkpt lat="35.7516117" lon="-5.833765"><ele>56.0</ele><time>2026-04-28T11:01:02.036Z</time></trkpt><trkpt lat="35.7516767" lon="-5.8337467"><ele>56.0</ele><time>2026-04-28T11:01:03.036Z</time></trkpt><trkpt lat="35.7517517" lon="-5.833725"><ele>56.0</ele><time>2026-04-28T11:01:04.036Z</time></trkpt><trkpt lat="35.7518367" lon="-5.8336983"><ele>56.00000000000001</ele><time>2026-04-28T11:01:05.036Z</time></trkpt><trkpt lat="35.7519267" lon="-5.8336683"><ele>56.0</ele><time>2026-04-28T11:01:06.036Z</time></trkpt><trkpt lat="35.7520233" lon="-5.83363"><ele>56.5</ele><time>2026-04-28T11:01:07.036Z</time></trkpt><trkpt lat="35.7521283" lon="-5.8335783"><ele>57.0</ele><time>2026-04-28T11:01:08.036Z</time></trkpt><trkpt lat="35.75224" lon="-5.8335133"><ele>57.5</ele><time>2026-04-28T11:01:09.036Z</time></trkpt><trkpt lat="35.7523583" lon="-5.8334483"><ele>58.0</ele><time>2026-04-28T11:01:10.036Z</time></trkpt><trkpt lat="35.7524817" lon="-5.8333767"><ele>55.75</ele><time>2026-04-28T11:01:11.036Z</time></trkpt><trkpt lat="35.752605" lon="-5.8333117"><ele>53.5</ele><time>2026-04-28T11:01:12.035Z</time></trkpt><trkpt lat="35.7527283" lon="-5.8332367"><ele>51.25</ele><time>2026-04-28T11:01:13.036Z</time></trkpt><trkpt lat="35.7528483" lon="-5.8331617"><ele>49.0</ele><time>2026-04-28T11:01:14.036Z</time></trkpt><trkpt lat="35.7529717" lon="-5.833085"><ele>48.75</ele><time>2026-04-28T11:01:15.036Z</time></trkpt><trkpt lat="35.7530967" lon="-5.8330183"><ele>48.5</ele><time>2026-04-28T11:01:16.035Z</time></trkpt><trkpt lat="35.7532167" lon="-5.83295"><ele>48.25</ele><time>2026-04-28T11:01:17.036Z</time></trkpt><trkpt lat="35.753335" lon="-5.8328867"><ele>48.0</ele><time>2026-04-28T11:01:18.036Z</time></trkpt><trkpt lat="35.7534567" lon="-5.83282"><ele>47.25</ele><time>2026-04-28T11:01:19.035Z</time></trkpt><trkpt lat="35.753575" lon="-5.8327517"><ele>46.5</ele><time>2026-04-28T11:01:20.036Z</time></trkpt><trkpt lat="35.7536883" lon="-5.8326783"><ele>45.75</ele><time>2026-04-28T11:01:21.036Z</time></trkpt><trkpt lat="35.7538033" lon="-5.8326133"><ele>45.0</ele><time>2026-04-28T11:01:22.036Z</time></trkpt><trkpt lat="35.75392" lon="-5.83255"><ele>45.0</ele><time>2026-04-28T11:01:23.036Z</time></trkpt><trkpt lat="35.7540317" lon="-5.832485"><ele>45.0</ele><time>2026-04-28T11:01:24.036Z</time></trkpt><trkpt lat="35.7541433" lon="-5.8324183"><ele>45.0</ele><time>2026-04-28T11:01:25.036Z</time></trkpt><trkpt lat="35.7542567" lon="-5.8323483"><ele>45.0</ele><time>2026-04-28T11:01:26.036Z</time></trkpt><trkpt lat="35.7543717" lon="-5.8322983"><ele>44.6</ele><time>2026-04-28T11:01:27.035Z</time></trkpt><trkpt lat="35.75448" lon="-5.83223"><ele>44.2</ele><time>2026-04-28T11:01:28.036Z</time></trkpt><trkpt lat="35.754585" lon="-5.8321583"><ele>43.8</ele><time>2026-04-28T11:01:29.036Z</time></trkpt><trkpt lat="35.7546767" lon="-5.8320817"><ele>43.4</ele><time>2026-04-28T11:01:30.036Z</time></trkpt><trkpt lat="35.754755" lon="-5.832015"><ele>43.0</ele><time>2026-04-28T11:01:31.036Z</time></trkpt><trkpt lat="35.7548333" lon="-5.8319483"><ele>43.0</ele><time>2026-04-28T11:01:32.036Z</time></trkpt><trkpt lat="35.7549183" lon="-5.8319017"><ele>43.0</ele><time>2026-04-28T11:01:33.036Z</time></trkpt><trkpt lat="35.7550067" lon="-5.8318617"><ele>43.0</ele><time>2026-04-28T11:01:34.036Z</time></trkpt><trkpt lat="35.7551017" lon="-5.83182"><ele>43.0</ele><time>2026-04-28T11:01:35.036Z</time></trkpt><trkpt lat="35.7552017" lon="-5.8317617"><ele>43.0</ele><time>2026-04-28T11:01:36.036Z</time></trkpt><trkpt lat="35.7553017" lon="-5.8316967"><ele>42.5</ele><time>2026-04-28T11:01:37.036Z</time></trkpt><trkpt lat="35.755405" lon="-5.8316233"><ele>42.0</ele><time>2026-04-28T11:01:38.036Z</time></trkpt><trkpt lat="35.7555117" lon="-5.831555"><ele>41.5</ele><time>2026-04-28T11:01:39.036Z</time></trkpt><trkpt lat="35.7556183" lon="-5.8314783"><ele>41.0</ele><time>2026-04-28T11:01:40.036Z</time></trkpt><trkpt lat="35.755735" lon="-5.8314017"><ele>41.0</ele><time>2026-04-28T11:01:41.036Z</time></trkpt><trkpt lat="35.75585" lon="-5.83132"><ele>41.0</ele><time>2026-04-28T11:01:42.036Z</time></trkpt><trkpt lat="35.7559717" lon="-5.83124"><ele>41.0</ele><time>2026-04-28T11:01:43.036Z</time></trkpt><trkpt lat="35.7560917" lon="-5.831145"><ele>41.0</ele><time>2026-04-28T11:01:44.036Z</time></trkpt><trkpt lat="35.756215" lon="-5.8310517"><ele>39.5</ele><time>2026-04-28T11:01:45.036Z</time></trkpt><trkpt lat="35.7563367" lon="-5.8309417"><ele>38.0</ele><time>2026-04-28T11:01:46.036Z</time></trkpt><trkpt lat="35.75645" lon="-5.8308367"><ele>36.5</ele><time>2026-04-28T11:01:47.036Z</time></trkpt><trkpt lat="35.756565" lon="-5.8307283"><ele>35.0</ele><time>2026-04-28T11:01:48.036Z</time></trkpt><trkpt lat="35.75668" lon="-5.83063"><ele>35.0</ele><time>2026-04-28T11:01:49.036Z</time></trkpt><trkpt lat="35.75679" lon="-5.830535"><ele>35.0</ele><time>2026-04-28T11:01:50.036Z</time></trkpt><trkpt lat="35.7569017" lon="-5.83045"><ele>35.0</ele><time>2026-04-28T11:01:51.036Z</time></trkpt><trkpt lat="35.7570117" lon="-5.8303583"><ele>35.0</ele><time>2026-04-28T11:01:52.036Z</time></trkpt><trkpt lat="35.7571183" lon="-5.8302733"><ele>35.75</ele><time>2026-04-28T11:01:53.035Z</time></trkpt><trkpt lat="35.7572233" lon="-5.830185"><ele>36.5</ele><time>2026-04-28T11:01:54.036Z</time></trkpt><trkpt lat="35.7573283" lon="-5.8300933"><ele>37.25</ele><time>2026-04-28T11:01:55.036Z</time></trkpt><trkpt lat="35.7574333" lon="-5.8300033"><ele>38.0</ele><time>2026-04-28T11:01:56.036Z</time></trkpt><trkpt lat="35.75754" lon="-5.8299183"><ele>36.25</ele><time>2026-04-28T11:01:57.036Z</time></trkpt><trkpt lat="35.7576417" lon="-5.82983"><ele>34.5</ele><time>2026-04-28T11:01:58.036Z</time></trkpt><trkpt lat="35.7577483" lon="-5.8297433"><ele>32.75</ele><time>2026-04-28T11:01:59.035Z</time></trkpt><trkpt lat="35.7578533" lon="-5.82965"><ele>31.0</ele><time>2026-04-28T11:02:00.036Z</time></trkpt><trkpt lat="35.7579567" lon="-5.82956"><ele>31.0</ele><time>2026-04-28T11:02:01.035Z</time></trkpt><trkpt lat="35.758065" lon="-5.8294767"><ele>31.0</ele><time>2026-04-28T11:02:02.036Z</time></trkpt><trkpt lat="35.7581633" lon="-5.829385"><ele>31.0</ele><time>2026-04-28T11:02:03.036Z</time></trkpt><trkpt lat="35.7582617" lon="-5.829285"><ele>31.0</ele><time>2026-04-28T11:02:04.036Z</time></trkpt><trkpt lat="35.7583617" lon="-5.8291983"><ele>31.0</ele><time>2026-04-28T11:02:05.036Z</time></trkpt><trkpt lat="35.7584517" lon="-5.8291183"><ele>31.0</ele><time>2026-04-28T11:02:06.036Z</time></trkpt><trkpt lat="35.758535" lon="-5.8290333"><ele>31.0</ele><time>2026-04-28T11:02:07.036Z</time></trkpt><trkpt lat="35.7586233" lon="-5.828945"><ele>31.0</ele><time>2026-04-28T11:02:08.036Z</time></trkpt><trkpt lat="35.75871" lon="-5.8288417"><ele>31.0</ele><time>2026-04-28T11:02:09.036Z</time></trkpt><trkpt lat="35.7587783" lon="-5.82873"><ele>31.0</ele><time>2026-04-28T11:02:10.036Z</time></trkpt><trkpt lat="35.758855" lon="-5.8286183"><ele>31.0</ele><time>2026-04-28T11:02:11.036Z</time></trkpt><trkpt lat="35.7589133" lon="-5.8284917"><ele>31.0</ele><time>2026-04-28T11:02:12.036Z</time></trkpt><trkpt lat="35.758965" lon="-5.8283617"><ele>31.25</ele><time>2026-04-28T11:02:13.036Z</time></trkpt><trkpt lat="35.7589917" lon="-5.8282233"><ele>31.5</ele><time>2026-04-28T11:02:14.036Z</time></trkpt><trkpt lat="35.7590233" lon="-5.8280917"><ele>31.75</ele><time>2026-04-28T11:02:15.036Z</time></trkpt><trkpt lat="35.7590467" lon="-5.827955"><ele>32.0</ele><time>2026-04-28T11:02:16.036Z</time></trkpt><trkpt lat="35.7590733" lon="-5.8278233"><ele>32.0</ele><time>2026-04-28T11:02:17.036Z</time></trkpt><trkpt lat="35.7591033" lon="-5.827695"><ele>32.0</ele><time>2026-04-28T11:02:18.036Z</time></trkpt><trkpt lat="35.7591283" lon="-5.82756"><ele>32.0</ele><time>2026-04-28T11:02:19.035Z</time></trkpt><trkpt lat="35.7591517" lon="-5.82742"><ele>32.0</ele><time>2026-04-28T11:02:20.036Z</time></trkpt><trkpt lat="35.7591783" lon="-5.8272783"><ele>32.25</ele><time>2026-04-28T11:02:21.036Z</time></trkpt><trkpt lat="35.7591933" lon="-5.82713"><ele>32.5</ele><time>2026-04-28T11:02:22.036Z</time></trkpt><trkpt lat="35.7592067" lon="-5.8269767"><ele>32.75</ele><time>2026-04-28T11:02:23.036Z</time></trkpt><trkpt lat="35.7592083" lon="-5.8268167"><ele>33.0</ele><time>2026-04-28T11:02:24.036Z</time></trkpt><trkpt lat="35.75921" lon="-5.82666"><ele>33.0</ele><time>2026-04-28T11:02:25.036Z</time></trkpt><trkpt lat="35.7592083" lon="-5.8265033"><ele>33.0</ele><time>2026-04-28T11:02:26.036Z</time></trkpt><trkpt lat="35.7592033" lon="-5.8263517"><ele>33.0</ele><time>2026-04-28T11:02:27.035Z</time></trkpt><trkpt lat="35.7592" lon="-5.8262067"><ele>33.0</ele><time>2026-04-28T11:02:28.036Z</time></trkpt><trkpt lat="35.7591933" lon="-5.8260683"><ele>33.0</ele><time>2026-04-28T11:02:29.035Z</time></trkpt><trkpt lat="35.75918" lon="-5.82594"><ele>33.0</ele><time>2026-04-28T11:02:30.036Z</time></trkpt><trkpt lat="35.7591683" lon="-5.8258133"><ele>33.0</ele><time>2026-04-28T11:02:31.036Z</time></trkpt><trkpt lat="35.75916" lon="-5.82568"><ele>33.0</ele><time>2026-04-28T11:02:32.036Z</time></trkpt><trkpt lat="35.7591467" lon="-5.82555"><ele>33.0</ele><time>2026-04-28T11:02:33.036Z</time></trkpt><trkpt lat="35.7591333" lon="-5.8254167"><ele>33.0</ele><time>2026-04-28T11:02:34.035Z</time></trkpt><trkpt lat="35.7591217" lon="-5.825275"><ele>33.0</ele><time>2026-04-28T11:02:35.036Z</time></trkpt><trkpt lat="35.7591133" lon="-5.8251317"><ele>33.0</ele><time>2026-04-28T11:02:36.036Z</time></trkpt><trkpt lat="35.759105" lon="-5.82499"><ele>33.0</ele><time>2026-04-28T11:02:37.035Z</time></trkpt><trkpt lat="35.7590933" lon="-5.82484"><ele>33.0</ele><time>2026-04-28T11:02:38.036Z</time></trkpt><trkpt lat="35.7590817" lon="-5.82469"><ele>33.0</ele><time>2026-04-28T11:02:39.036Z</time></trkpt><trkpt lat="35.7590733" lon="-5.8245383"><ele>33.0</ele><time>2026-04-28T11:02:40.036Z</time></trkpt><trkpt lat="35.7590667" lon="-5.824385"><ele>33.0</ele><time>2026-04-28T11:02:41.036Z</time></trkpt><trkpt lat="35.7590583" lon="-5.8242367"><ele>32.75</ele><time>2026-04-28T11:02:42.036Z</time></trkpt><trkpt lat="35.7590517" lon="-5.82409"><ele>32.5</ele><time>2026-04-28T11:02:43.036Z</time></trkpt><trkpt lat="35.7590467" lon="-5.823935"><ele>32.25</ele><time>2026-04-28T11:02:44.036Z</time></trkpt><trkpt lat="35.7590417" lon="-5.8237833"><ele>32.0</ele><time>2026-04-28T11:02:45.036Z</time></trkpt><trkpt lat="35.7590433" lon="-5.8236383"><ele>32.0</ele><time>2026-04-28T11:02:46.035Z</time></trkpt><trkpt lat="35.7590467" lon="-5.8234933"><ele>32.0</ele><time>2026-04-28T11:02:47.036Z</time></trkpt><trkpt lat="35.759055" lon="-5.8233517"><ele>32.0</ele><time>2026-04-28T11:02:48.036Z</time></trkpt><trkpt lat="35.7590733" lon="-5.8232033"><ele>32.0</ele><time>2026-04-28T11:02:49.036Z</time></trkpt><trkpt lat="35.7590917" lon="-5.8230667"><ele>31.200000000000003</ele><time>2026-04-28T11:02:50.036Z</time></trkpt><trkpt lat="35.7591117" lon="-5.8229383"><ele>30.400000000000002</ele><time>2026-04-28T11:02:51.036Z</time></trkpt><trkpt lat="35.7591367" lon="-5.8228183"><ele>29.599999999999998</ele><time>2026-04-28T11:02:52.036Z</time></trkpt><trkpt lat="35.7591567" lon="-5.8226983"><ele>28.799999999999997</ele><time>2026-04-28T11:02:53.036Z</time></trkpt><trkpt lat="35.75918" lon="-5.8225817"><ele>28.0</ele><time>2026-04-28T11:02:54.036Z</time></trkpt><trkpt lat="35.7592117" lon="-5.8224717"><ele>27.799999999999997</ele><time>2026-04-28T11:02:55.036Z</time></trkpt><trkpt lat="35.75924" lon="-5.8223567"><ele>27.599999999999998</ele><time>2026-04-28T11:02:56.036Z</time></trkpt><trkpt lat="35.7592683" lon="-5.82225"><ele>27.400000000000002</ele><time>2026-04-28T11:02:57.036Z</time></trkpt><trkpt lat="35.7592983" lon="-5.8221483"><ele>27.200000000000003</ele><time>2026-04-28T11:02:58.036Z</time></trkpt><trkpt lat="35.7593317" lon="-5.8220383"><ele>27.0</ele><time>2026-04-28T11:02:59.036Z</time></trkpt><trkpt lat="35.75937" lon="-5.8219267"><ele>26.400000000000002</ele><time>2026-04-28T11:03:00.036Z</time></trkpt><trkpt lat="35.759405" lon="-5.8218067"><ele>25.800000000000004</ele><time>2026-04-28T11:03:01.035Z</time></trkpt><trkpt lat="35.7594433" lon="-5.82168"><ele>25.2</ele><time>2026-04-28T11:03:02.036Z</time></trkpt><trkpt lat="35.7594883" lon="-5.821545"><ele>24.6</ele><time>2026-04-28T11:03:03.036Z</time></trkpt><trkpt lat="35.7595367" lon="-5.8214133"><ele>24.0</ele><time>2026-04-28T11:03:04.036Z</time></trkpt><trkpt lat="35.7595933" lon="-5.8212783"><ele>24.0</ele><time>2026-04-28T11:03:05.036Z</time></trkpt><trkpt lat="35.7596567" lon="-5.8211367"><ele>24.0</ele><time>2026-04-28T11:03:06.036Z</time></trkpt><trkpt lat="35.7597233" lon="-5.820995"><ele>24.0</ele><time>2026-04-28T11:03:07.036Z</time></trkpt><trkpt lat="35.759795" lon="-5.8208467"><ele>24.0</ele><time>2026-04-28T11:03:08.036Z</time></trkpt><trkpt lat="35.75987" lon="-5.8207033"><ele>23.0</ele><time>2026-04-28T11:03:09.036Z</time></trkpt><trkpt lat="35.7599517" lon="-5.8205617"><ele>22.0</ele><time>2026-04-28T11:03:10.036Z</time></trkpt><trkpt lat="35.760035" lon="-5.8204183"><ele>21.0</ele><time>2026-04-28T11:03:11.036Z</time></trkpt><trkpt lat="35.7601267" lon="-5.8202883"><ele>20.0</ele><time>2026-04-28T11:03:12.036Z</time></trkpt><trkpt lat="35.760225" lon="-5.820155"><ele>20.0</ele><time>2026-04-28T11:03:13.036Z</time></trkpt><trkpt lat="35.7603217" lon="-5.8200167"><ele>20.0</ele><time>2026-04-28T11:03:14.036Z</time></trkpt><trkpt lat="35.7604217" lon="-5.8198867"><ele>20.0</ele><time>2026-04-28T11:03:15.036Z</time></trkpt><trkpt lat="35.760525" lon="-5.819755"><ele>20.0</ele><time>2026-04-28T11:03:16.036Z</time></trkpt><trkpt lat="35.7606317" lon="-5.8196333"><ele>20.0</ele><time>2026-04-28T11:03:17.036Z</time></trkpt><trkpt lat="35.7607367" lon="-5.8195217"><ele>20.0</ele><time>2026-04-28T11:03:18.035Z</time></trkpt><trkpt lat="35.7608367" lon="-5.8194183"><ele>20.0</ele><time>2026-04-28T11:03:19.036Z</time></trkpt><trkpt lat="35.7609383" lon="-5.8193167"><ele>20.0</ele><time>2026-04-28T11:03:20.036Z</time></trkpt><trkpt lat="35.7610383" lon="-5.8192133"><ele>19.75</ele><time>2026-04-28T11:03:21.036Z</time></trkpt><trkpt lat="35.7611367" lon="-5.8191117"><ele>19.5</ele><time>2026-04-28T11:03:22.036Z</time></trkpt><trkpt lat="35.7612367" lon="-5.8190167"><ele>19.25</ele><time>2026-04-28T11:03:23.036Z</time></trkpt><trkpt lat="35.761335" lon="-5.81892"><ele>19.0</ele><time>2026-04-28T11:03:24.036Z</time></trkpt><trkpt lat="35.7614383" lon="-5.8188167"><ele>19.0</ele><time>2026-04-28T11:03:25.036Z</time></trkpt><trkpt lat="35.7615417" lon="-5.8187133"><ele>19.0</ele><time>2026-04-28T11:03:26.036Z</time></trkpt><trkpt lat="35.7616467" lon="-5.81861"><ele>19.0</ele><time>2026-04-28T11:03:27.036Z</time></trkpt><trkpt lat="35.76175" lon="-5.8185117"><ele>19.0</ele><time>2026-04-28T11:03:28.036Z</time></trkpt><trkpt lat="35.7618483" lon="-5.8184117"><ele>18.5</ele><time>2026-04-28T11:03:29.036Z</time></trkpt><trkpt lat="35.76195" lon="-5.8183167"><ele>18.0</ele><time>2026-04-28T11:03:30.036Z</time></trkpt><trkpt lat="35.7620433" lon="-5.8182217"><ele>17.5</ele><time>2026-04-28T11:03:31.036Z</time></trkpt><trkpt lat="35.7621383" lon="-5.81813"><ele>17.0</ele><time>2026-04-28T11:03:32.035Z</time></trkpt><trkpt lat="35.7622317" lon="-5.8180367"><ele>17.0</ele><time>2026-04-28T11:03:33.036Z</time></trkpt><trkpt lat="35.7623233" lon="-5.81795"><ele>17.0</ele><time>2026-04-28T11:03:34.036Z</time></trkpt><trkpt lat="35.7624133" lon="-5.817855"><ele>17.0</ele><time>2026-04-28T11:03:35.036Z</time></trkpt><trkpt lat="35.7625067" lon="-5.81776"><ele>17.0</ele><time>2026-04-28T11:03:36.035Z</time></trkpt><trkpt lat="35.7626067" lon="-5.81767"><ele>17.0</ele><time>2026-04-28T11:03:37.035Z</time></trkpt><trkpt lat="35.7627033" lon="-5.817575"><ele>17.0</ele><time>2026-04-28T11:03:38.036Z</time></trkpt><trkpt lat="35.7627983" lon="-5.8174833"><ele>17.0</ele><time>2026-04-28T11:03:39.036Z</time></trkpt><trkpt lat="35.7628967" lon="-5.817385"><ele>17.0</ele><time>2026-04-28T11:03:40.036Z</time></trkpt><trkpt lat="35.7629983" lon="-5.8172883"><ele>17.0</ele><time>2026-04-28T11:03:41.036Z</time></trkpt><trkpt lat="35.7630983" lon="-5.8171833"><ele>17.0</ele><time>2026-04-28T11:03:42.035Z</time></trkpt><trkpt lat="35.7631983" lon="-5.8170783"><ele>17.0</ele><time>2026-04-28T11:03:43.036Z</time></trkpt><trkpt lat="35.763295" lon="-5.8169633"><ele>17.0</ele><time>2026-04-28T11:03:44.036Z</time></trkpt><trkpt lat="35.763385" lon="-5.8168383"><ele>17.0</ele><time>2026-04-28T11:03:45.036Z</time></trkpt><trkpt lat="35.7634683" lon="-5.81671"><ele>17.0</ele><time>2026-04-28T11:03:46.035Z</time></trkpt><trkpt lat="35.7635433" lon="-5.8165833"><ele>17.0</ele><time>2026-04-28T11:03:47.036Z</time></trkpt><trkpt lat="35.763615" lon="-5.8164567"><ele>17.0</ele><time>2026-04-28T11:03:48.036Z</time></trkpt><trkpt lat="35.7636833" lon="-5.816325"><ele>17.5</ele><time>2026-04-28T11:03:49.036Z</time></trkpt><trkpt lat="35.76375" lon="-5.8161933"><ele>18.0</ele><time>2026-04-28T11:03:50.035Z</time></trkpt><trkpt lat="35.76381" lon="-5.81606"><ele>18.5</ele><time>2026-04-28T11:03:51.036Z</time></trkpt><trkpt lat="35.7638767" lon="-5.8159183"><ele>19.0</ele><time>2026-04-28T11:03:52.036Z</time></trkpt><trkpt lat="35.7639233" lon="-5.81576"><ele>19.0</ele><time>2026-04-28T11:03:53.036Z</time></trkpt><trkpt lat="35.7639583" lon="-5.8156033"><ele>19.0</ele><time>2026-04-28T11:03:54.036Z</time></trkpt><trkpt lat="35.764" lon="-5.8154433"><ele>19.0</ele><time>2026-04-28T11:03:55.036Z</time></trkpt><trkpt lat="35.7640333" lon="-5.81528"><ele>19.0</ele><time>2026-04-28T11:03:56.036Z</time></trkpt><trkpt lat="35.76406" lon="-5.8151067"><ele>19.0</ele><time>2026-04-28T11:03:57.035Z</time></trkpt><trkpt lat="35.7640867" lon="-5.8149333"><ele>19.0</ele><time>2026-04-28T11:03:58.036Z</time></trkpt><trkpt lat="35.7641133" lon="-5.8147517"><ele>19.0</ele><time>2026-04-28T11:03:59.036Z</time></trkpt><trkpt lat="35.7641483" lon="-5.8145717"><ele>19.0</ele><time>2026-04-28T11:04:00.035Z</time></trkpt><trkpt lat="35.7641833" lon="-5.814395"><ele>19.25</ele><time>2026-04-28T11:04:01.036Z</time></trkpt><trkpt lat="35.7642283" lon="-5.8142267"><ele>19.5</ele><time>2026-04-28T11:04:02.036Z</time></trkpt><trkpt lat="35.7642717" lon="-5.814055"><ele>19.75</ele><time>2026-04-28T11:04:03.036Z</time></trkpt><trkpt lat="35.764305" lon="-5.8138767"><ele>20.0</ele><time>2026-04-28T11:04:04.036Z</time></trkpt><trkpt lat="35.764345" lon="-5.8136983"><ele>18.0</ele><time>2026-04-28T11:04:05.036Z</time></trkpt><trkpt lat="35.764385" lon="-5.8135183"><ele>16.0</ele><time>2026-04-28T11:04:06.036Z</time></trkpt><trkpt lat="35.76443" lon="-5.813335"><ele>14.0</ele><time>2026-04-28T11:04:07.035Z</time></trkpt><trkpt lat="35.7644583" lon="-5.813155"><ele>14.0</ele><time>2026-04-28T11:04:08.036Z</time></trkpt><trkpt lat="35.7645083" lon="-5.812975"><ele>14.0</ele><time>2026-04-28T11:04:09.036Z</time></trkpt><trkpt lat="35.7645617" lon="-5.8127867"><ele>14.0</ele><time>2026-04-28T11:04:10.036Z</time></trkpt><trkpt lat="35.7646033" lon="-5.8126117"><ele>14.25</ele><time>2026-04-28T11:04:11.036Z</time></trkpt><trkpt lat="35.764645" lon="-5.8124483"><ele>14.5</ele><time>2026-04-28T11:04:12.036Z</time></trkpt><trkpt lat="35.7646717" lon="-5.812285"><ele>14.75</ele><time>2026-04-28T11:04:13.036Z</time></trkpt><trkpt lat="35.76471" lon="-5.8121267"><ele>15.0</ele><time>2026-04-28T11:04:14.036Z</time></trkpt><trkpt lat="35.7647667" lon="-5.8119733"><ele>14.0</ele><time>2026-04-28T11:04:15.036Z</time></trkpt><trkpt lat="35.7648133" lon="-5.8118233"><ele>13.0</ele><time>2026-04-28T11:04:16.036Z</time></trkpt><trkpt lat="35.7648667" lon="-5.8116767"><ele>12.0</ele><time>2026-04-28T11:04:17.035Z</time></trkpt><trkpt lat="35.7649283" lon="-5.8115383"><ele>11.0</ele><time>2026-04-28T11:04:18.036Z</time></trkpt><trkpt lat="35.7650017" lon="-5.8114017"><ele>11.0</ele><time>2026-04-28T11:04:19.036Z</time></trkpt><trkpt lat="35.7650783" lon="-5.8112683"><ele>11.0</ele><time>2026-04-28T11:04:20.036Z</time></trkpt><trkpt lat="35.765155" lon="-5.8111333"><ele>11.0</ele><time>2026-04-28T11:04:21.036Z</time></trkpt><trkpt lat="35.765225" lon="-5.811005"><ele>11.0</ele><time>2026-04-28T11:04:22.036Z</time></trkpt><trkpt lat="35.765295" lon="-5.81088"><ele>11.0</ele><time>2026-04-28T11:04:23.036Z</time></trkpt><trkpt lat="35.7653683" lon="-5.8107617"><ele>11.0</ele><time>2026-04-28T11:04:24.036Z</time></trkpt><trkpt lat="35.7654417" lon="-5.8106367"><ele>11.0</ele><time>2026-04-28T11:04:25.035Z</time></trkpt><trkpt lat="35.7655117" lon="-5.8105167"><ele>11.0</ele><time>2026-04-28T11:04:26.036Z</time></trkpt><trkpt lat="35.7655767" lon="-5.810405"><ele>11.0</ele><time>2026-04-28T11:04:27.036Z</time></trkpt><trkpt lat="35.7656383" lon="-5.8102933"><ele>11.0</ele><time>2026-04-28T11:04:28.036Z</time></trkpt><trkpt lat="35.7657017" lon="-5.8101917"><ele>11.0</ele><time>2026-04-28T11:04:29.036Z</time></trkpt><trkpt lat="35.7657583" lon="-5.8100917"><ele>11.0</ele><time>2026-04-28T11:04:30.036Z</time></trkpt><trkpt lat="35.7658117" lon="-5.8100033"><ele>11.0</ele><time>2026-04-28T11:04:31.036Z</time></trkpt><trkpt lat="35.765855" lon="-5.8099383"><ele>11.333333333333332</ele><time>2026-04-28T11:04:32.036Z</time></trkpt><trkpt lat="35.7659067" lon="-5.80985"><ele>11.666666666666666</ele><time>2026-04-28T11:04:34.036Z</time></trkpt><trkpt lat="35.7659533" lon="-5.8097667"><ele>12.0</ele><time>2026-04-28T11:04:37.036Z</time></trkpt><trkpt lat="35.766005" lon="-5.809685"><ele>12.333333333333332</ele><time>2026-04-28T11:04:55.036Z</time></trkpt><trkpt lat="35.7660267" lon="-5.80961"><ele>12.666666666666666</ele><time>2026-04-28T11:05:06.034Z</time></trkpt><trkpt lat="35.7660983" lon="-5.8095133"><ele>13.0</ele><time>2026-04-28T11:05:08.035Z</time></trkpt><trkpt lat="35.7661417" lon="-5.80945"><ele>13.2</ele><time>2026-04-28T11:05:09.035Z</time></trkpt><trkpt lat="35.766205" lon="-5.80933"><ele>13.4</ele><time>2026-04-28T11:05:11.035Z</time></trkpt><trkpt lat="35.7662533" lon="-5.80922"><ele>13.599999999999998</ele><time>2026-04-28T11:05:13.035Z</time></trkpt><trkpt lat="35.766315" lon="-5.80911"><ele>13.799999999999999</ele><time>2026-04-28T11:05:15.035Z</time></trkpt><trkpt lat="35.7663567" lon="-5.8090517"><ele>14.0</ele><time>2026-04-28T11:05:16.035Z</time></trkpt><trkpt lat="35.766395" lon="-5.8089867"><ele>14.0</ele><time>2026-04-28T11:05:17.035Z</time></trkpt><trkpt lat="35.76643" lon="-5.80892"><ele>14.0</ele><time>2026-04-28T11:05:18.035Z</time></trkpt><trkpt lat="35.76647" lon="-5.8088483"><ele>14.0</ele><time>2026-04-28T11:05:19.034Z</time></trkpt><trkpt lat="35.7665083" lon="-5.8087733"><ele>14.0</ele><time>2026-04-28T11:05:20.035Z</time></trkpt><trkpt lat="35.76655" lon="-5.8087033"><ele>14.0</ele><time>2026-04-28T11:05:21.035Z</time></trkpt><trkpt lat="35.7665933" lon="-5.808635"><ele>14.0</ele><time>2026-04-28T11:05:22.035Z</time></trkpt><trkpt lat="35.7666333" lon="-5.8085717"><ele>14.0</ele><time>2026-04-28T11:05:23.035Z</time></trkpt><trkpt lat="35.76667" lon="-5.8085083"><ele>14.399999999999999</ele><time>2026-04-28T11:05:24.035Z</time></trkpt><trkpt lat="35.7667417" lon="-5.808395"><ele>14.799999999999999</ele><time>2026-04-28T11:05:26.035Z</time></trkpt><trkpt lat="35.7668183" lon="-5.8082967"><ele>15.200000000000001</ele><time>2026-04-28T11:05:28.035Z</time></trkpt><trkpt lat="35.7669" lon="-5.8081833"><ele>15.600000000000001</ele><time>2026-04-28T11:05:30.035Z</time></trkpt><trkpt lat="35.76695" lon="-5.8081133"><ele>16.0</ele><time>2026-04-28T11:05:31.035Z</time></trkpt><trkpt lat="35.7670017" lon="-5.8080383"><ele>15.999999999999998</ele><time>2026-04-28T11:05:32.035Z</time></trkpt><trkpt lat="35.76705" lon="-5.8079617"><ele>16.0</ele><time>2026-04-28T11:05:33.035Z</time></trkpt><trkpt lat="35.767095" lon="-5.8078883"><ele>16.0</ele><time>2026-04-28T11:05:34.035Z</time></trkpt><trkpt lat="35.7671417" lon="-5.8078167"><ele>16.0</ele><time>2026-04-28T11:05:35.035Z</time></trkpt><trkpt lat="35.7671833" lon="-5.8077467"><ele>15.999999999999998</ele><time>2026-04-28T11:05:36.035Z</time></trkpt><trkpt lat="35.7672217" lon="-5.807685"><ele>16.0</ele><time>2026-04-28T11:05:37.035Z</time></trkpt><trkpt lat="35.767315" lon="-5.8075733"><ele>16.333333333333332</ele><time>2026-04-28T11:05:39.035Z</time></trkpt><trkpt lat="35.7673617" lon="-5.8075117"><ele>16.666666666666664</ele><time>2026-04-28T11:05:40.035Z</time></trkpt><trkpt lat="35.7674167" lon="-5.807425"><ele>17.0</ele><time>2026-04-28T11:05:42.035Z</time></trkpt><trkpt lat="35.7674683" lon="-5.8073633"><ele>17.333333333333332</ele><time>2026-04-28T11:05:45.035Z</time></trkpt><trkpt lat="35.7675133" lon="-5.80726"><ele>17.666666666666668</ele><time>2026-04-28T11:05:47.035Z</time></trkpt><trkpt lat="35.7675617" lon="-5.807135"><ele>18.0</ele><time>2026-04-28T11:05:49.034Z</time></trkpt><trkpt lat="35.7675833" lon="-5.8070617"><ele>18.0</ele><time>2026-04-28T11:05:50.035Z</time></trkpt><trkpt lat="35.7676167" lon="-5.8069233"><ele>18.0</ele><time>2026-04-28T11:05:52.035Z</time></trkpt><trkpt lat="35.7676583" lon="-5.8067983"><ele>18.0</ele><time>2026-04-28T11:05:54.035Z</time></trkpt><trkpt lat="35.767695" lon="-5.8067233"><ele>18.0</ele><time>2026-04-28T11:05:56.035Z</time></trkpt><trkpt lat="35.7677467" lon="-5.8066367"><ele>18.0</ele><time>2026-04-28T11:05:59.035Z</time></trkpt><trkpt lat="35.7677883" lon="-5.8065617"><ele>18.4</ele><time>2026-04-28T11:06:01.035Z</time></trkpt><trkpt lat="35.76786" lon="-5.8064533"><ele>18.8</ele><time>2026-04-28T11:06:03.035Z</time></trkpt><trkpt lat="35.7679" lon="-5.8063817"><ele>19.2</ele><time>2026-04-28T11:06:04.035Z</time></trkpt><trkpt lat="35.7679467" lon="-5.8063"><ele>19.6</ele><time>2026-04-28T11:06:05.035Z</time></trkpt><trkpt lat="35.7680033" lon="-5.8062083"><ele>20.0</ele><time>2026-04-28T11:06:06.035Z</time></trkpt><trkpt lat="35.7680633" lon="-5.8061117"><ele>20.0</ele><time>2026-04-28T11:06:07.034Z</time></trkpt><trkpt lat="35.768125" lon="-5.8060067"><ele>20.0</ele><time>2026-04-28T11:06:08.035Z</time></trkpt><trkpt lat="35.7681917" lon="-5.80589"><ele>20.0</ele><time>2026-04-28T11:06:09.034Z</time></trkpt><trkpt lat="35.76826" lon="-5.8057717"><ele>20.0</ele><time>2026-04-28T11:06:10.035Z</time></trkpt><trkpt lat="35.768335" lon="-5.805655"><ele>19.0</ele><time>2026-04-28T11:06:11.034Z</time></trkpt><trkpt lat="35.76843" lon="-5.8055383"><ele>18.0</ele><time>2026-04-28T11:06:12.035Z</time></trkpt><trkpt lat="35.7685" lon="-5.8054133"><ele>17.0</ele><time>2026-04-28T11:06:13.035Z</time></trkpt><trkpt lat="35.76857" lon="-5.805275"><ele>16.0</ele><time>2026-04-28T11:06:14.035Z</time></trkpt><trkpt lat="35.76865" lon="-5.80514"><ele>15.0</ele><time>2026-04-28T11:06:15.035Z</time></trkpt><trkpt lat="35.7687433" lon="-5.8050083"><ele>14.0</ele><time>2026-04-28T11:06:16.035Z</time></trkpt><trkpt lat="35.7688367" lon="-5.8048883"><ele>13.0</ele><time>2026-04-28T11:06:17.035Z</time></trkpt><trkpt lat="35.7689433" lon="-5.8047633"><ele>12.0</ele><time>2026-04-28T11:06:18.035Z</time></trkpt><trkpt lat="35.7690333" lon="-5.8046367"><ele>12.0</ele><time>2026-04-28T11:06:19.035Z</time></trkpt><trkpt lat="35.76912" lon="-5.8044967"><ele>12.0</ele><time>2026-04-28T11:06:20.035Z</time></trkpt><trkpt lat="35.7692183" lon="-5.80436"><ele>12.0</ele><time>2026-04-28T11:06:21.035Z</time></trkpt><trkpt lat="35.7693083" lon="-5.8042217"><ele>12.0</ele><time>2026-04-28T11:06:22.035Z</time></trkpt><trkpt lat="35.7693883" lon="-5.8040817"><ele>11.5</ele><time>2026-04-28T11:06:23.035Z</time></trkpt><trkpt lat="35.7694683" lon="-5.803945"><ele>11.0</ele><time>2026-04-28T11:06:24.035Z</time></trkpt><trkpt lat="35.7695533" lon="-5.8038117"><ele>10.5</ele><time>2026-04-28T11:06:25.035Z</time></trkpt><trkpt lat="35.7696417" lon="-5.8036833"><ele>10.0</ele><time>2026-04-28T11:06:26.035Z</time></trkpt><trkpt lat="35.7697083" lon="-5.8035283"><ele>10.0</ele><time>2026-04-28T11:06:27.035Z</time></trkpt><trkpt lat="35.7698117" lon="-5.8034283"><ele>10.0</ele><time>2026-04-28T11:06:28.035Z</time></trkpt><trkpt lat="35.7699167" lon="-5.8033433"><ele>10.0</ele><time>2026-04-28T11:06:29.035Z</time></trkpt><trkpt lat="35.7700283" lon="-5.8032717"><ele>10.0</ele><time>2026-04-28T11:06:30.035Z</time></trkpt><trkpt lat="35.770135" lon="-5.8031983"><ele>10.25</ele><time>2026-04-28T11:06:31.035Z</time></trkpt><trkpt lat="35.770255" lon="-5.8031083"><ele>10.5</ele><time>2026-04-28T11:06:32.035Z</time></trkpt><trkpt lat="35.7703633" lon="-5.803035"><ele>10.75</ele><time>2026-04-28T11:06:33.035Z</time></trkpt><trkpt lat="35.77047" lon="-5.80299"><ele>11.0</ele><time>2026-04-28T11:06:34.035Z</time></trkpt><trkpt lat="35.770585" lon="-5.80294"><ele>11.0</ele><time>2026-04-28T11:06:35.035Z</time></trkpt><trkpt lat="35.7707033" lon="-5.8028833"><ele>11.0</ele><time>2026-04-28T11:06:36.035Z</time></trkpt><trkpt lat="35.7708217" lon="-5.8028267"><ele>11.0</ele><time>2026-04-28T11:06:37.035Z</time></trkpt><trkpt lat="35.770945" lon="-5.80277"><ele>11.0</ele><time>2026-04-28T11:06:38.035Z</time></trkpt><trkpt lat="35.771065" lon="-5.802715"><ele>11.0</ele><time>2026-04-28T11:06:39.035Z</time></trkpt><trkpt lat="35.7711867" lon="-5.8026567"><ele>11.0</ele><time>2026-04-28T11:06:40.035Z</time></trkpt><trkpt lat="35.771305" lon="-5.8025867"><ele>11.0</ele><time>2026-04-28T11:06:41.035Z</time></trkpt><trkpt lat="35.7714167" lon="-5.8025183"><ele>11.0</ele><time>2026-04-28T11:06:42.035Z</time></trkpt><trkpt lat="35.771525" lon="-5.8024533"><ele>11.0</ele><time>2026-04-28T11:06:43.035Z</time></trkpt><trkpt lat="35.771625" lon="-5.8023917"><ele>11.0</ele><time>2026-04-28T11:06:44.034Z</time></trkpt><trkpt lat="35.77172" lon="-5.802325"><ele>11.0</ele><time>2026-04-28T11:06:45.035Z</time></trkpt><trkpt lat="35.77182" lon="-5.8022667"><ele>11.0</ele><time>2026-04-28T11:06:46.035Z</time></trkpt><trkpt lat="35.7719167" lon="-5.8022217"><ele>11.0</ele><time>2026-04-28T11:06:47.035Z</time></trkpt><trkpt lat="35.7720067" lon="-5.80217"><ele>12.833333333333332</ele><time>2026-04-28T11:06:48.035Z</time></trkpt><trkpt lat="35.7721017" lon="-5.8021317"><ele>14.666666666666666</ele><time>2026-04-28T11:06:49.035Z</time></trkpt><trkpt lat="35.7721883" lon="-5.8021067"><ele>16.5</ele><time>2026-04-28T11:06:50.035Z</time></trkpt><trkpt lat="35.7722617" lon="-5.80208"><ele>18.333333333333332</ele><time>2026-04-28T11:06:51.035Z</time></trkpt><trkpt lat="35.772325" lon="-5.8020567"><ele>20.166666666666664</ele><time>2026-04-28T11:06:52.035Z</time></trkpt><trkpt lat="35.772425" lon="-5.8020217"><ele>22.0</ele><time>2026-04-28T11:06:54.035Z</time></trkpt><trkpt lat="35.7724917" lon="-5.802"><ele>22.0</ele><time>2026-04-28T11:06:56.035Z</time></trkpt><trkpt lat="35.772555" lon="-5.801985"><ele>22.0</ele><time>2026-04-28T11:07:00.035Z</time></trkpt><trkpt lat="35.772635" lon="-5.80197"><ele>22.0</ele><time>2026-04-28T11:07:04.035Z</time></trkpt><trkpt lat="35.7727" lon="-5.8019467"><ele>22.0</ele><time>2026-04-28T11:07:06.035Z</time></trkpt><trkpt lat="35.7727667" lon="-5.8019167"><ele>22.0</ele><time>2026-04-28T11:07:08.034Z</time></trkpt><trkpt lat="35.7728433" lon="-5.801905"><ele>22.0</ele><time>2026-04-28T11:07:10.035Z</time></trkpt><trkpt lat="35.77292" lon="-5.8019267"><ele>22.0</ele><time>2026-04-28T11:07:12.035Z</time></trkpt><trkpt lat="35.7729683" lon="-5.8019767"><ele>21.400000000000002</ele><time>2026-04-28T11:07:14.034Z</time></trkpt><trkpt lat="35.773015" lon="-5.8020333"><ele>20.8</ele><time>2026-04-28T11:07:16.035Z</time></trkpt><trkpt lat="35.7730783" lon="-5.8020783"><ele>20.2</ele><time>2026-04-28T11:07:18.035Z</time></trkpt><trkpt lat="35.7731983" lon="-5.8021667"><ele>19.6</ele><time>2026-04-28T11:07:47.034Z</time></trkpt><trkpt lat="35.7732983" lon="-5.8022133"><ele>19.0</ele><time>2026-04-28T11:07:49.034Z</time></trkpt><trkpt lat="35.77342" lon="-5.8022383"><ele>19.0</ele><time>2026-04-28T11:07:51.035Z</time></trkpt><trkpt lat="35.7734833" lon="-5.802235"><ele>19.0</ele><time>2026-04-28T11:07:52.035Z</time></trkpt><trkpt lat="35.7735533" lon="-5.80223"><ele>19.0</ele><time>2026-04-28T11:07:53.035Z</time></trkpt><trkpt lat="35.7736267" lon="-5.8022317"><ele>19.0</ele><time>2026-04-28T11:07:54.035Z</time></trkpt><trkpt lat="35.773695" lon="-5.8022367"><ele>19.0</ele><time>2026-04-28T11:07:55.035Z</time></trkpt><trkpt lat="35.7738133" lon="-5.80225"><ele>19.0</ele><time>2026-04-28T11:07:57.035Z</time></trkpt><trkpt lat="35.773925" lon="-5.8022633"><ele>19.0</ele><time>2026-04-28T11:07:59.035Z</time></trkpt><trkpt lat="35.7740033" lon="-5.8022517"><ele>19.0</ele><time>2026-04-28T11:08:01.035Z</time></trkpt><trkpt lat="35.77407" lon="-5.8022683"><ele>19.0</ele><time>2026-04-28T11:08:05.035Z</time></trkpt><trkpt lat="35.7741367" lon="-5.8022633"><ele>19.0</ele><time>2026-04-28T11:08:08.035Z</time></trkpt><trkpt lat="35.77421" lon="-5.8022633"><ele>19.0</ele><time>2026-04-28T11:08:10.035Z</time></trkpt><trkpt lat="35.7742883" lon="-5.80226"><ele>19.0</ele><time>2026-04-28T11:08:12.035Z</time></trkpt><trkpt lat="35.7743683" lon="-5.802265"><ele>19.0</ele><time>2026-04-28T11:08:14.035Z</time></trkpt><trkpt lat="35.7744367" lon="-5.8022633"><ele>19.0</ele><time>2026-04-28T11:08:16.035Z</time></trkpt><trkpt lat="35.774505" lon="-5.8022617"><ele>19.0</ele><time>2026-04-28T11:08:18.035Z</time></trkpt><trkpt lat="35.7745833" lon="-5.80228"><ele>19.0</ele><time>2026-04-28T11:08:21.035Z</time></trkpt><trkpt lat="35.774655" lon="-5.802285"><ele>19.0</ele><time>2026-04-28T11:08:24.035Z</time></trkpt><trkpt lat="35.77474" lon="-5.8023033"><ele>19.0</ele><time>2026-04-28T11:08:27.035Z</time></trkpt><trkpt lat="35.7748117" lon="-5.8023033"><ele>19.0</ele><time>2026-04-28T11:08:29.035Z</time></trkpt><trkpt lat="35.7749" lon="-5.802305"><ele>19.0</ele><time>2026-04-28T11:08:31.034Z</time></trkpt><trkpt lat="35.7749817" lon="-5.8023017"><ele>19.0</ele><time>2026-04-28T11:08:34.035Z</time></trkpt><trkpt lat="35.7750567" lon="-5.8022833"><ele>19.0</ele><time>2026-04-28T11:08:38.035Z</time></trkpt><trkpt lat="35.7751217" lon="-5.8023233"><ele>19.0</ele><time>2026-04-28T11:09:22.035Z</time></trkpt><trkpt lat="35.775185" lon="-5.8023383"><ele>19.0</ele><time>2026-04-28T11:09:23.035Z</time></trkpt><trkpt lat="35.77525" lon="-5.8023433"><ele>19.0</ele><time>2026-04-28T11:09:24.034Z</time></trkpt><trkpt lat="35.775365" lon="-5.8023417"><ele>20.799999999999997</ele><time>2026-04-28T11:09:26.033Z</time></trkpt><trkpt lat="35.7754583" lon="-5.8023283"><ele>22.599999999999998</ele><time>2026-04-28T11:09:28.034Z</time></trkpt><trkpt lat="35.7755567" lon="-5.8023167"><ele>24.4</ele><time>2026-04-28T11:09:30.034Z</time></trkpt><trkpt lat="35.775655" lon="-5.8023083"><ele>26.2</ele><time>2026-04-28T11:09:32.034Z</time></trkpt><trkpt lat="35.7757483" lon="-5.8023267"><ele>28.0</ele><time>2026-04-28T11:09:35.034Z</time></trkpt><trkpt lat="35.7759033" lon="-5.8022867"><ele>28.0</ele><time>2026-04-28T11:10:42.034Z</time></trkpt><trkpt lat="35.7760083" lon="-5.802285"><ele>27.999999999999996</ele><time>2026-04-28T11:10:44.034Z</time></trkpt><trkpt lat="35.7760817" lon="-5.8022867"><ele>27.999999999999996</ele><time>2026-04-28T11:10:45.034Z</time></trkpt><trkpt lat="35.7761767" lon="-5.8022933"><ele>28.0</ele><time>2026-04-28T11:10:46.034Z</time></trkpt><trkpt lat="35.7762817" lon="-5.8022833"><ele>28.0</ele><time>2026-04-28T11:10:47.033Z</time></trkpt><trkpt lat="35.77639" lon="-5.8022833"><ele>26.5</ele><time>2026-04-28T11:10:48.033Z</time></trkpt><trkpt lat="35.7765317" lon="-5.8023083"><ele>25.0</ele><time>2026-04-28T11:10:49.034Z</time></trkpt><trkpt lat="35.776645" lon="-5.8023183"><ele>23.5</ele><time>2026-04-28T11:10:50.033Z</time></trkpt><trkpt lat="35.7767567" lon="-5.8023283"><ele>22.0</ele><time>2026-04-28T11:10:51.034Z</time></trkpt><trkpt lat="35.7768617" lon="-5.8023667"><ele>22.0</ele><time>2026-04-28T11:10:52.034Z</time></trkpt><trkpt lat="35.7769467" lon="-5.802415"><ele>22.0</ele><time>2026-04-28T11:10:53.034Z</time></trkpt><trkpt lat="35.77703" lon="-5.802445"><ele>22.0</ele><time>2026-04-28T11:10:54.034Z</time></trkpt><trkpt lat="35.7771017" lon="-5.8024683"><ele>22.0</ele><time>2026-04-28T11:10:55.034Z</time></trkpt><trkpt lat="35.7772033" lon="-5.802485"><ele>22.0</ele><time>2026-04-28T11:10:57.034Z</time></trkpt><trkpt lat="35.77728" lon="-5.8025033"><ele>22.0</ele><time>2026-04-28T11:11:00.034Z</time></trkpt><trkpt lat="35.77738" lon="-5.8025017"><ele>22.0</ele><time>2026-04-28T11:11:02.034Z</time></trkpt><trkpt lat="35.7774533" lon="-5.8025017"><ele>22.0</ele><time>2026-04-28T11:11:03.034Z</time></trkpt><trkpt lat="35.777545" lon="-5.8025067"><ele>22.0</ele><time>2026-04-28T11:11:04.033Z</time></trkpt><trkpt lat="35.7776433" lon="-5.8025133"><ele>22.0</ele><time>2026-04-28T11:11:05.033Z</time></trkpt><trkpt lat="35.7777333" lon="-5.802535"><ele>22.0</ele><time>2026-04-28T11:11:06.034Z</time></trkpt><trkpt lat="35.777825" lon="-5.8025417"><ele>22.0</ele><time>2026-04-28T11:11:07.034Z</time></trkpt><trkpt lat="35.777915" lon="-5.802545"><ele>21.666666666666664</ele><time>2026-04-28T11:11:08.034Z</time></trkpt><trkpt lat="35.778005" lon="-5.8025467"><ele>21.333333333333332</ele><time>2026-04-28T11:11:09.033Z</time></trkpt><trkpt lat="35.77808" lon="-5.80255"><ele>21.0</ele><time>2026-04-28T11:11:10.034Z</time></trkpt><trkpt lat="35.7781633" lon="-5.80255"><ele>20.666666666666668</ele><time>2026-04-28T11:11:11.034Z</time></trkpt><trkpt lat="35.7782433" lon="-5.8025483"><ele>20.333333333333336</ele><time>2026-04-28T11:11:12.034Z</time></trkpt><trkpt lat="35.7783183" lon="-5.802545"><ele>20.0</ele><time>2026-04-28T11:11:13.034Z</time></trkpt><trkpt lat="35.7784" lon="-5.802545"><ele>20.0</ele><time>2026-04-28T11:11:14.034Z</time></trkpt><trkpt lat="35.7784783" lon="-5.8025467"><ele>20.0</ele><time>2026-04-28T11:11:15.034Z</time></trkpt><trkpt lat="35.778555" lon="-5.8025467"><ele>20.0</ele><time>2026-04-28T11:11:16.034Z</time></trkpt><trkpt lat="35.7786283" lon="-5.8025517"><ele>20.0</ele><time>2026-04-28T11:11:17.034Z</time></trkpt><trkpt lat="35.7786983" lon="-5.802555"><ele>20.0</ele><time>2026-04-28T11:11:18.034Z</time></trkpt><trkpt lat="35.7787667" lon="-5.8025617"><ele>20.0</ele><time>2026-04-28T11:11:19.034Z</time></trkpt><trkpt lat="35.7788367" lon="-5.80257"><ele>20.0</ele><time>2026-04-28T11:11:20.034Z</time></trkpt><trkpt lat="35.7789017" lon="-5.8025817"><ele>18.2</ele><time>2026-04-28T11:11:21.034Z</time></trkpt><trkpt lat="35.77897" lon="-5.802585"><ele>16.4</ele><time>2026-04-28T11:11:22.034Z</time></trkpt><trkpt lat="35.7790333" lon="-5.802575"><ele>14.600000000000001</ele><time>2026-04-28T11:11:23.034Z</time></trkpt><trkpt lat="35.7791267" lon="-5.80259"><ele>12.8</ele><time>2026-04-28T11:11:25.034Z</time></trkpt><trkpt lat="35.7792467" lon="-5.8025883"><ele>11.0</ele><time>2026-04-28T11:11:46.034Z</time></trkpt><trkpt lat="35.779375" lon="-5.8026067"><ele>10.25</ele><time>2026-04-28T11:11:48.034Z</time></trkpt><trkpt lat="35.77943" lon="-5.8026583"><ele>9.5</ele><time>2026-04-28T11:11:49.034Z</time></trkpt><trkpt lat="35.7794733" lon="-5.802735"><ele>8.75</ele><time>2026-04-28T11:11:50.033Z</time></trkpt><trkpt lat="35.7795367" lon="-5.802895"><ele>8.0</ele><time>2026-04-28T11:11:51.034Z</time></trkpt><trkpt lat="35.7796083" lon="-5.803075"><ele>8.0</ele><time>2026-04-28T11:11:52.034Z</time></trkpt><trkpt lat="35.779675" lon="-5.803235"><ele>8.0</ele><time>2026-04-28T11:11:53.034Z</time></trkpt><trkpt lat="35.7797417" lon="-5.80338"><ele>8.0</ele><time>2026-04-28T11:11:54.033Z</time></trkpt><trkpt lat="35.7798017" lon="-5.8035217"><ele>8.0</ele><time>2026-04-28T11:11:55.034Z</time></trkpt><trkpt lat="35.7798667" lon="-5.8036533"><ele>9.75</ele><time>2026-04-28T11:11:56.034Z</time></trkpt><trkpt lat="35.7799317" lon="-5.8037817"><ele>11.5</ele><time>2026-04-28T11:11:57.034Z</time></trkpt><trkpt lat="35.7800083" lon="-5.803905"><ele>13.25</ele><time>2026-04-28T11:11:58.034Z</time></trkpt><trkpt lat="35.7800883" lon="-5.804035"><ele>15.0</ele><time>2026-04-28T11:11:59.034Z</time></trkpt><trkpt lat="35.780155" lon="-5.8041667"><ele>13.0</ele><time>2026-04-28T11:12:00.034Z</time></trkpt><trkpt lat="35.7802317" lon="-5.8043"><ele>11.0</ele><time>2026-04-28T11:12:01.034Z</time></trkpt><trkpt lat="35.7803" lon="-5.8044367"><ele>9.0</ele><time>2026-04-28T11:12:02.034Z</time></trkpt><trkpt lat="35.7803767" lon="-5.80458"><ele>7.0</ele><time>2026-04-28T11:12:03.034Z</time></trkpt><trkpt lat="35.7804483" lon="-5.8047267"><ele>7.0</ele><time>2026-04-28T11:12:04.034Z</time></trkpt><trkpt lat="35.7805233" lon="-5.8048683"><ele>7.0</ele><time>2026-04-28T11:12:05.034Z</time></trkpt><trkpt lat="35.7806017" lon="-5.8050183"><ele>7.0</ele><time>2026-04-28T11:12:06.034Z</time></trkpt><trkpt lat="35.7806667" lon="-5.8051683"><ele>7.0</ele><time>2026-04-28T11:12:07.034Z</time></trkpt><trkpt lat="35.7807383" lon="-5.80531"><ele>6.5</ele><time>2026-04-28T11:12:08.034Z</time></trkpt><trkpt lat="35.7808083" lon="-5.8054533"><ele>6.0</ele><time>2026-04-28T11:12:09.033Z</time></trkpt><trkpt lat="35.78088" lon="-5.8055933"><ele>5.5</ele><time>2026-04-28T11:12:10.034Z</time></trkpt><trkpt lat="35.7809567" lon="-5.8057367"><ele>5.0</ele><time>2026-04-28T11:12:11.034Z</time></trkpt><trkpt lat="35.781035" lon="-5.8058817"><ele>5.75</ele><time>2026-04-28T11:12:12.034Z</time></trkpt><trkpt lat="35.78111" lon="-5.8060217"><ele>6.5</ele><time>2026-04-28T11:12:13.033Z</time></trkpt><trkpt lat="35.7811883" lon="-5.80616"><ele>7.25</ele><time>2026-04-28T11:12:14.034Z</time></trkpt><trkpt lat="35.7812683" lon="-5.8062917"><ele>8.0</ele><time>2026-04-28T11:12:15.034Z</time></trkpt><trkpt lat="35.7813533" lon="-5.806415"><ele>8.0</ele><time>2026-04-28T11:12:16.034Z</time></trkpt><trkpt lat="35.7814467" lon="-5.8065383"><ele>8.0</ele><time>2026-04-28T11:12:17.033Z</time></trkpt><trkpt lat="35.78154" lon="-5.8066567"><ele>8.0</ele><time>2026-04-28T11:12:18.034Z</time></trkpt><trkpt lat="35.781645" lon="-5.8067683"><ele>8.0</ele><time>2026-04-28T11:12:19.034Z</time></trkpt><trkpt lat="35.7817467" lon="-5.8068667"><ele>7.5</ele><time>2026-04-28T11:12:20.034Z</time></trkpt><trkpt lat="35.7818517" lon="-5.806955"><ele>7.0</ele><time>2026-04-28T11:12:21.034Z</time></trkpt><trkpt lat="35.7819517" lon="-5.8070383"><ele>6.5</ele><time>2026-04-28T11:12:22.034Z</time></trkpt><trkpt lat="35.782055" lon="-5.8071133"><ele>6.0</ele><time>2026-04-28T11:12:23.034Z</time></trkpt><trkpt lat="35.782155" lon="-5.8071767"><ele>6.0</ele><time>2026-04-28T11:12:24.034Z</time></trkpt><trkpt lat="35.782255" lon="-5.8072317"><ele>6.0</ele><time>2026-04-28T11:12:25.034Z</time></trkpt><trkpt lat="35.7823467" lon="-5.8072917"><ele>6.0</ele><time>2026-04-28T11:12:26.034Z</time></trkpt><trkpt lat="35.7824367" lon="-5.8073417"><ele>6.0</ele><time>2026-04-28T11:12:27.034Z</time></trkpt><trkpt lat="35.7825183" lon="-5.8073917"><ele>6.0</ele><time>2026-04-28T11:12:28.034Z</time></trkpt><trkpt lat="35.782595" lon="-5.8074267"><ele>6.0</ele><time>2026-04-28T11:12:29.034Z</time></trkpt><trkpt lat="35.7826667" lon="-5.807445"><ele>6.0</ele><time>2026-04-28T11:12:30.033Z</time></trkpt><trkpt lat="35.7827367" lon="-5.807455"><ele>6.0</ele><time>2026-04-28T11:12:31.034Z</time></trkpt><trkpt lat="35.782815" lon="-5.807475"><ele>6.0</ele><time>2026-04-28T11:12:32.034Z</time></trkpt><trkpt lat="35.7829" lon="-5.80751"><ele>6.0</ele><time>2026-04-28T11:12:33.034Z</time></trkpt><trkpt lat="35.78299" lon="-5.8075433"><ele>6.0</ele><time>2026-04-28T11:12:34.034Z</time></trkpt><trkpt lat="35.7830833" lon="-5.8075783"><ele>5.8</ele><time>2026-04-28T11:12:35.034Z</time></trkpt><trkpt lat="35.783175" lon="-5.80761"><ele>5.6</ele><time>2026-04-28T11:12:36.034Z</time></trkpt><trkpt lat="35.7832833" lon="-5.8076283"><ele>5.4</ele><time>2026-04-28T11:12:37.034Z</time></trkpt><trkpt lat="35.7833917" lon="-5.8076383"><ele>5.2</ele><time>2026-04-28T11:12:38.034Z</time></trkpt><trkpt lat="35.7834967" lon="-5.807645"><ele>5.0</ele><time>2026-04-28T11:12:39.034Z</time></trkpt><trkpt lat="35.7836" lon="-5.8076517"><ele>6.0</ele><time>2026-04-28T11:12:40.034Z</time></trkpt><trkpt lat="35.7836983" lon="-5.8076617"><ele>7.0</ele><time>2026-04-28T11:12:41.034Z</time></trkpt><trkpt lat="35.7837933" lon="-5.8076733"><ele>8.0</ele><time>2026-04-28T11:12:42.034Z</time></trkpt><trkpt lat="35.7838867" lon="-5.8076767"><ele>9.0</ele><time>2026-04-28T11:12:43.034Z</time></trkpt><trkpt lat="35.7839767" lon="-5.80768"><ele>10.0</ele><time>2026-04-28T11:12:44.034Z</time></trkpt><trkpt lat="35.7840683" lon="-5.807685"><ele>10.0</ele><time>2026-04-28T11:12:45.034Z</time></trkpt><trkpt lat="35.7841567" lon="-5.807695"><ele>10.0</ele><time>2026-04-28T11:12:46.034Z</time></trkpt><trkpt lat="35.78424" lon="-5.8077067"><ele>10.0</ele><time>2026-04-28T11:12:47.033Z</time></trkpt><trkpt lat="35.7843267" lon="-5.80772"><ele>10.0</ele><time>2026-04-28T11:12:48.034Z</time></trkpt><trkpt lat="35.7844167" lon="-5.8077217"><ele>10.0</ele><time>2026-04-28T11:12:49.034Z</time></trkpt><trkpt lat="35.7845083" lon="-5.8077283"><ele>10.0</ele><time>2026-04-28T11:12:50.034Z</time></trkpt><trkpt lat="35.784605" lon="-5.80774"><ele>10.4</ele><time>2026-04-28T11:12:51.034Z</time></trkpt><trkpt lat="35.7846983" lon="-5.8077483"><ele>10.8</ele><time>2026-04-28T11:12:52.034Z</time></trkpt><trkpt lat="35.78479" lon="-5.8077617"><ele>11.2</ele><time>2026-04-28T11:12:53.034Z</time></trkpt><trkpt lat="35.7848817" lon="-5.8077667"><ele>11.6</ele><time>2026-04-28T11:12:54.034Z</time></trkpt><trkpt lat="35.7849767" lon="-5.8077767"><ele>12.0</ele><time>2026-04-28T11:12:55.034Z</time></trkpt><trkpt lat="35.7850733" lon="-5.807795"><ele>12.0</ele><time>2026-04-28T11:12:56.033Z</time></trkpt><trkpt lat="35.7851683" lon="-5.8078067"><ele>12.0</ele><time>2026-04-28T11:12:57.034Z</time></trkpt><trkpt lat="35.785265" lon="-5.807825"><ele>12.0</ele><time>2026-04-28T11:12:58.034Z</time></trkpt><trkpt lat="35.7853617" lon="-5.8078367"><ele>12.0</ele><time>2026-04-28T11:12:59.034Z</time></trkpt><trkpt lat="35.7854533" lon="-5.8078517"><ele>12.0</ele><time>2026-04-28T11:13:00.033Z</time></trkpt><trkpt lat="35.785545" lon="-5.8078583"><ele>11.2</ele><time>2026-04-28T11:13:01.034Z</time></trkpt><trkpt lat="35.785635" lon="-5.8078683"><ele>10.399999999999999</ele><time>2026-04-28T11:13:02.034Z</time></trkpt><trkpt lat="35.785725" lon="-5.8078783"><ele>9.600000000000001</ele><time>2026-04-28T11:13:03.034Z</time></trkpt><trkpt lat="35.785815" lon="-5.807885"><ele>8.8</ele><time>2026-04-28T11:13:04.034Z</time></trkpt><trkpt lat="35.7859067" lon="-5.8079"><ele>8.0</ele><time>2026-04-28T11:13:05.034Z</time></trkpt><trkpt lat="35.7859967" lon="-5.80791"><ele>7.666666666666666</ele><time>2026-04-28T11:13:06.034Z</time></trkpt><trkpt lat="35.7860817" lon="-5.807925"><ele>7.333333333333333</ele><time>2026-04-28T11:13:07.034Z</time></trkpt><trkpt lat="35.78616" lon="-5.807935"><ele>7.0</ele><time>2026-04-28T11:13:08.034Z</time></trkpt><trkpt lat="35.7862367" lon="-5.8079467"><ele>6.666666666666666</ele><time>2026-04-28T11:13:09.034Z</time></trkpt><trkpt lat="35.7863167" lon="-5.8079583"><ele>6.333333333333333</ele><time>2026-04-28T11:13:10.034Z</time></trkpt><trkpt lat="35.7864" lon="-5.8079767"><ele>6.0</ele><time>2026-04-28T11:13:11.034Z</time></trkpt><trkpt lat="35.786485" lon="-5.8079967"><ele>6.0</ele><time>2026-04-28T11:13:12.034Z</time></trkpt><trkpt lat="35.786575" lon="-5.8080167"><ele>6.0</ele><time>2026-04-28T11:13:13.034Z</time></trkpt><trkpt lat="35.786665" lon="-5.808035"><ele>6.0</ele><time>2026-04-28T11:13:14.034Z</time></trkpt><trkpt lat="35.7867583" lon="-5.8080567"><ele>6.0</ele><time>2026-04-28T11:13:15.034Z</time></trkpt><trkpt lat="35.7868533" lon="-5.8080783"><ele>6.0</ele><time>2026-04-28T11:13:16.034Z</time></trkpt><trkpt lat="35.786945" lon="-5.8080917"><ele>5.6</ele><time>2026-04-28T11:13:17.034Z</time></trkpt><trkpt lat="35.787045" lon="-5.8081033"><ele>5.199999999999999</ele><time>2026-04-28T11:13:18.034Z</time></trkpt><trkpt lat="35.7871483" lon="-5.808115"><ele>4.800000000000001</ele><time>2026-04-28T11:13:19.034Z</time></trkpt><trkpt lat="35.78725" lon="-5.8081233"><ele>4.4</ele><time>2026-04-28T11:13:20.034Z</time></trkpt><trkpt lat="35.7873383" lon="-5.8081133"><ele>4.0</ele><time>2026-04-28T11:13:21.034Z</time></trkpt><trkpt lat="35.78743" lon="-5.8081033"><ele>3.9999999999999996</ele><time>2026-04-28T11:13:22.034Z</time></trkpt><trkpt lat="35.787515" lon="-5.8080883"><ele>4.0</ele><time>2026-04-28T11:13:23.034Z</time></trkpt><trkpt lat="35.7876017" lon="-5.8080683"><ele>4.0</ele><time>2026-04-28T11:13:24.034Z</time></trkpt><trkpt lat="35.7876867" lon="-5.8080417"><ele>4.0</ele><time>2026-04-28T11:13:25.033Z</time></trkpt><trkpt lat="35.7877633" lon="-5.8080033"><ele>3.9999999999999996</ele><time>2026-04-28T11:13:26.034Z</time></trkpt><trkpt lat="35.78784" lon="-5.8079533"><ele>4.0</ele><time>2026-04-28T11:13:27.034Z</time></trkpt><trkpt lat="35.78791" lon="-5.8079017"><ele>3.9999999999999996</ele><time>2026-04-28T11:13:28.034Z</time></trkpt><trkpt lat="35.7879817" lon="-5.8078467"><ele>4.0</ele><time>2026-04-28T11:13:29.034Z</time></trkpt><trkpt lat="35.7880517" lon="-5.8077917"><ele>4.0</ele><time>2026-04-28T11:13:30.034Z</time></trkpt><trkpt lat="35.78812" lon="-5.8077367"><ele>4.0</ele><time>2026-04-28T11:13:31.034Z</time></trkpt><trkpt lat="35.7881883" lon="-5.80768"><ele>3.9999999999999996</ele><time>2026-04-28T11:13:32.034Z</time></trkpt><trkpt lat="35.7882483" lon="-5.8076233"><ele>4.0</ele><time>2026-04-28T11:13:33.034Z</time></trkpt><trkpt lat="35.7883033" lon="-5.80756"><ele>3.9999999999999996</ele><time>2026-04-28T11:13:34.034Z</time></trkpt><trkpt lat="35.78836" lon="-5.807495"><ele>4.0</ele><time>2026-04-28T11:13:35.034Z</time></trkpt><trkpt lat="35.788415" lon="-5.8074283"><ele>4.0</ele><time>2026-04-28T11:13:36.034Z</time></trkpt><trkpt lat="35.7884683" lon="-5.8073583"><ele>4.0</ele><time>2026-04-28T11:13:37.034Z</time></trkpt><trkpt lat="35.7885167" lon="-5.8072867"><ele>3.9999999999999996</ele><time>2026-04-28T11:13:38.034Z</time></trkpt><trkpt lat="35.78857" lon="-5.80722"><ele>4.0</ele><time>2026-04-28T11:13:39.034Z</time></trkpt><trkpt lat="35.7886333" lon="-5.8071783"><ele>3.4000000000000004</ele><time>2026-04-28T11:13:40.034Z</time></trkpt><trkpt lat="35.7887033" lon="-5.8071683"><ele>2.8000000000000003</ele><time>2026-04-28T11:13:41.034Z</time></trkpt><trkpt lat="35.788775" lon="-5.8071717"><ele>2.2</ele><time>2026-04-28T11:13:42.033Z</time></trkpt><trkpt lat="35.78887" lon="-5.8072517"><ele>1.6</ele><time>2026-04-28T11:13:44.034Z</time></trkpt><trkpt lat="35.7888833" lon="-5.807405"><ele>1.0</ele><time>2026-04-28T11:13:46.034Z</time></trkpt><trkpt lat="35.7888583" lon="-5.807485"><ele>1.0</ele><time>2026-04-28T11:13:47.034Z</time></trkpt><trkpt lat="35.78883" lon="-5.80756"><ele>1.0</ele><time>2026-04-28T11:13:48.034Z</time></trkpt><trkpt lat="35.7887483" lon="-5.807665"><ele>1.0</ele><time>2026-04-28T11:13:50.033Z</time></trkpt><trkpt lat="35.7886217" lon="-5.8077083"><ele>1.0</ele><time>2026-04-28T11:13:52.033Z</time></trkpt><trkpt lat="35.7885517" lon="-5.8077117"><ele>1.0</ele><time>2026-04-28T11:13:53.033Z</time></trkpt><trkpt lat="35.788485" lon="-5.807715"><ele>2.333333333333333</ele><time>2026-04-28T11:13:54.033Z</time></trkpt><trkpt lat="35.7884217" lon="-5.8077183"><ele>3.6666666666666665</ele><time>2026-04-28T11:13:55.033Z</time></trkpt><trkpt lat="35.78833" lon="-5.8077633"><ele>5.0</ele><time>2026-04-28T11:13:57.032Z</time></trkpt><trkpt lat="35.7883383" lon="-5.807865"><ele>6.333333333333333</ele><time>2026-04-28T11:14:00.033Z</time></trkpt><trkpt lat="35.7884033" lon="-5.80791"><ele>7.666666666666667</ele><time>2026-04-28T11:14:03.033Z</time></trkpt><trkpt lat="35.788485" lon="-5.8079167"><ele>9.0</ele><time>2026-04-28T11:38:15.027Z</time></trkpt><trkpt lat="35.7884617" lon="-5.808005"><ele>9.0</ele><time>2026-04-28T11:38:19.028Z</time></trkpt><trkpt lat="35.788395" lon="-5.8079933"><ele>9.0</ele><time>2026-04-28T11:38:22.028Z</time></trkpt><trkpt lat="35.7883483" lon="-5.8078983"><ele>9.0</ele><time>2026-04-28T11:38:39.028Z</time></trkpt><trkpt lat="35.7882767" lon="-5.8078733"><ele>9.0</ele><time>2026-04-28T11:38:49.027Z</time></trkpt><trkpt lat="35.7881817" lon="-5.8078833"><ele>9.0</ele><time>2026-04-28T11:38:51.028Z</time></trkpt><trkpt lat="35.7880867" lon="-5.807845"><ele>9.0</ele><time>2026-04-28T11:38:53.028Z</time></trkpt><trkpt lat="35.788065" lon="-5.8077583"><ele>7.75</ele><time>2026-04-28T11:38:55.028Z</time></trkpt><trkpt lat="35.788125" lon="-5.8076517"><ele>6.5</ele><time>2026-04-28T11:38:57.028Z</time></trkpt><trkpt lat="35.7882067" lon="-5.8075633"><ele>5.25</ele><time>2026-04-28T11:38:59.028Z</time></trkpt><trkpt lat="35.7882967" lon="-5.8074683"><ele>4.0</ele><time>2026-04-28T11:39:01.028Z</time></trkpt><trkpt lat="35.78839" lon="-5.8073567"><ele>3.9999999999999996</ele><time>2026-04-28T11:39:03.028Z</time></trkpt><trkpt lat="35.78844" lon="-5.8072933"><ele>4.0</ele><time>2026-04-28T11:39:04.028Z</time></trkpt><trkpt lat="35.78849" lon="-5.8072367"><ele>4.0</ele><time>2026-04-28T11:39:05.028Z</time></trkpt><trkpt lat="35.7885433" lon="-5.807195"><ele>4.0</ele><time>2026-04-28T11:39:06.028Z</time></trkpt><trkpt lat="35.7886483" lon="-5.8071283"><ele>3.9999999999999996</ele><time>2026-04-28T11:39:08.028Z</time></trkpt><trkpt lat="35.7887617" lon="-5.8071233"><ele>4.0</ele><time>2026-04-28T11:39:10.027Z</time></trkpt><trkpt lat="35.7888433" lon="-5.8071933"><ele>3.714285714285714</ele><time>2026-04-28T11:39:12.027Z</time></trkpt><trkpt lat="35.78888" lon="-5.8072583"><ele>3.428571428571428</ele><time>2026-04-28T11:39:13.028Z</time></trkpt><trkpt lat="35.7889033" lon="-5.8073433"><ele>3.142857142857143</ele><time>2026-04-28T11:39:14.028Z</time></trkpt><trkpt lat="35.78891" lon="-5.807435"><ele>2.8571428571428568</ele><time>2026-04-28T11:39:15.028Z</time></trkpt><trkpt lat="35.7888967" lon="-5.807525"><ele>2.571428571428571</ele><time>2026-04-28T11:39:16.028Z</time></trkpt><trkpt lat="35.7888683" lon="-5.8076217"><ele>2.2857142857142856</ele><time>2026-04-28T11:39:17.028Z</time></trkpt><trkpt lat="35.7888383" lon="-5.8077117"><ele>2.0</ele><time>2026-04-28T11:39:18.028Z</time></trkpt><trkpt lat="35.78883" lon="-5.80782"><ele>1.9999999999999998</ele><time>2026-04-28T11:39:19.028Z</time></trkpt><trkpt lat="35.7888383" lon="-5.8079283"><ele>2.0</ele><time>2026-04-28T11:39:20.028Z</time></trkpt><trkpt lat="35.7888583" lon="-5.8080367"><ele>2.0</ele><time>2026-04-28T11:39:21.028Z</time></trkpt><trkpt lat="35.7888767" lon="-5.8081417"><ele>2.0</ele><time>2026-04-28T11:39:22.028Z</time></trkpt><trkpt lat="35.7888933" lon="-5.8082433"><ele>1.9999999999999998</ele><time>2026-04-28T11:39:23.028Z</time></trkpt><trkpt lat="35.78891" lon="-5.808345"><ele>2.0</ele><time>2026-04-28T11:39:24.028Z</time></trkpt><trkpt lat="35.7889333" lon="-5.8084533"><ele>2.8</ele><time>2026-04-28T11:39:25.028Z</time></trkpt><trkpt lat="35.7889567" lon="-5.808565"><ele>3.6</ele><time>2026-04-28T11:39:26.028Z</time></trkpt><trkpt lat="35.7889833" lon="-5.808675"><ele>4.3999999999999995</ele><time>2026-04-28T11:39:27.028Z</time></trkpt><trkpt lat="35.789005" lon="-5.808795"><ele>5.2</ele><time>2026-04-28T11:39:28.028Z</time></trkpt><trkpt lat="35.7890333" lon="-5.808915"><ele>6.0</ele><time>2026-04-28T11:39:29.028Z</time></trkpt><trkpt lat="35.78905" lon="-5.8090333"><ele>6.0</ele><time>2026-04-28T11:39:30.028Z</time></trkpt><trkpt lat="35.78907" lon="-5.8091517"><ele>6.0</ele><time>2026-04-28T11:39:31.028Z</time></trkpt><trkpt lat="35.78909" lon="-5.8092783"><ele>6.0</ele><time>2026-04-28T11:39:32.028Z</time></trkpt><trkpt lat="35.7891133" lon="-5.8093983"><ele>6.0</ele><time>2026-04-28T11:39:33.028Z</time></trkpt><trkpt lat="35.7891433" lon="-5.80952"><ele>6.0</ele><time>2026-04-28T11:39:34.028Z</time></trkpt><trkpt lat="35.789175" lon="-5.80964"><ele>6.4</ele><time>2026-04-28T11:39:35.028Z</time></trkpt><trkpt lat="35.78921" lon="-5.8097567"><ele>6.8</ele><time>2026-04-28T11:39:36.028Z</time></trkpt><trkpt lat="35.7892483" lon="-5.8098817"><ele>7.200000000000001</ele><time>2026-04-28T11:39:37.028Z</time></trkpt><trkpt lat="35.7892917" lon="-5.8100017"><ele>7.6000000000000005</ele><time>2026-04-28T11:39:38.028Z</time></trkpt><trkpt lat="35.789335" lon="-5.8101167"><ele>8.0</ele><time>2026-04-28T11:39:39.028Z</time></trkpt><trkpt lat="35.7893867" lon="-5.8102383"><ele>7.166666666666666</ele><time>2026-04-28T11:39:40.028Z</time></trkpt><trkpt lat="35.7894383" lon="-5.8103433"><ele>6.333333333333333</ele><time>2026-04-28T11:39:41.027Z</time></trkpt><trkpt lat="35.789485" lon="-5.8104417"><ele>5.5</ele><time>2026-04-28T11:39:42.028Z</time></trkpt><trkpt lat="35.7895267" lon="-5.8105233"><ele>4.666666666666666</ele><time>2026-04-28T11:39:43.028Z</time></trkpt><trkpt lat="35.7895667" lon="-5.8106"><ele>3.833333333333333</ele><time>2026-04-28T11:39:44.028Z</time></trkpt><trkpt lat="35.7896117" lon="-5.8106717"><ele>3.0</ele><time>2026-04-28T11:39:45.028Z</time></trkpt><trkpt lat="35.78966" lon="-5.8107433"><ele>3.0</ele><time>2026-04-28T11:39:46.028Z</time></trkpt><trkpt lat="35.7897133" lon="-5.8108267"><ele>3.0</ele><time>2026-04-28T11:39:47.028Z</time></trkpt><trkpt lat="35.7897717" lon="-5.81092"><ele>3.0</ele><time>2026-04-28T11:39:48.028Z</time></trkpt><trkpt lat="35.7898317" lon="-5.811015"><ele>3.0</ele><time>2026-04-28T11:39:49.027Z</time></trkpt><trkpt lat="35.7898883" lon="-5.8111133"><ele>3.0</ele><time>2026-04-28T11:39:50.028Z</time></trkpt><trkpt lat="35.7899483" lon="-5.8112167"><ele>2.4</ele><time>2026-04-28T11:39:51.028Z</time></trkpt><trkpt lat="35.79001" lon="-5.8113233"><ele>1.7999999999999998</ele><time>2026-04-28T11:39:52.028Z</time></trkpt><trkpt lat="35.7900717" lon="-5.8114317"><ele>1.2</ele><time>2026-04-28T11:39:53.028Z</time></trkpt><trkpt lat="35.7901333" lon="-5.8115367"><ele>0.6</ele><time>2026-04-28T11:39:54.028Z</time></trkpt><trkpt lat="35.790205" lon="-5.81164"><ele>0.0</ele><time>2026-04-28T11:39:55.028Z</time></trkpt><trkpt lat="35.790265" lon="-5.8117467"><ele>0.0</ele><time>2026-04-28T11:39:56.028Z</time></trkpt><trkpt lat="35.7903217" lon="-5.8118533"><ele>0.0</ele><time>2026-04-28T11:39:57.028Z</time></trkpt><trkpt lat="35.7903683" lon="-5.8119667"><ele>0.0</ele><time>2026-04-28T11:39:58.028Z</time></trkpt><trkpt lat="35.7904033" lon="-5.8120783"><ele>0.0</ele><time>2026-04-28T11:39:59.028Z</time></trkpt><trkpt lat="35.790435" lon="-5.8121983"><ele>0.0</ele><time>2026-04-28T11:40:00.028Z</time></trkpt><trkpt lat="35.790455" lon="-5.8123233"><ele>0.0</ele><time>2026-04-28T11:40:01.028Z</time></trkpt><trkpt lat="35.7904783" lon="-5.812455"><ele>0.0</ele><time>2026-04-28T11:40:02.028Z</time></trkpt><trkpt lat="35.790485" lon="-5.8125867"><ele>0.0</ele><time>2026-04-28T11:40:03.028Z</time></trkpt><trkpt lat="35.79049" lon="-5.81272"><ele>0.0</ele><time>2026-04-28T11:40:04.028Z</time></trkpt><trkpt lat="35.7904967" lon="-5.8128567"><ele>0.0</ele><time>2026-04-28T11:40:05.028Z</time></trkpt><trkpt lat="35.7905117" lon="-5.8129967"><ele>0.25</ele><time>2026-04-28T11:40:06.028Z</time></trkpt><trkpt lat="35.7905317" lon="-5.8131367"><ele>0.5</ele><time>2026-04-28T11:40:07.028Z</time></trkpt><trkpt lat="35.7905583" lon="-5.8132767"><ele>0.75</ele><time>2026-04-28T11:40:08.028Z</time></trkpt><trkpt lat="35.7905917" lon="-5.813415"><ele>1.0</ele><time>2026-04-28T11:40:09.028Z</time></trkpt><trkpt lat="35.7906383" lon="-5.8135483"><ele>1.0</ele><time>2026-04-28T11:40:10.028Z</time></trkpt><trkpt lat="35.7906883" lon="-5.81368"><ele>1.0</ele><time>2026-04-28T11:40:11.028Z</time></trkpt><trkpt lat="35.79074" lon="-5.8138133"><ele>1.0</ele><time>2026-04-28T11:40:12.028Z</time></trkpt><trkpt lat="35.79078" lon="-5.8139517"><ele>1.0</ele><time>2026-04-28T11:40:13.028Z</time></trkpt><trkpt lat="35.7908117" lon="-5.8140817"><ele>1.0</ele><time>2026-04-28T11:40:14.028Z</time></trkpt><trkpt lat="35.7908417" lon="-5.8142083"><ele>1.0</ele><time>2026-04-28T11:40:15.027Z</time></trkpt><trkpt lat="35.7908683" lon="-5.8143333"><ele>1.0</ele><time>2026-04-28T11:40:16.028Z</time></trkpt><trkpt lat="35.790885" lon="-5.814455"><ele>1.0</ele><time>2026-04-28T11:40:17.028Z</time></trkpt><trkpt lat="35.7908983" lon="-5.8145683"><ele>1.0</ele><time>2026-04-28T11:40:18.028Z</time></trkpt><trkpt lat="35.79091" lon="-5.8146767"><ele>1.6666666666666665</ele><time>2026-04-28T11:40:19.028Z</time></trkpt><trkpt lat="35.7909217" lon="-5.814785"><ele>2.3333333333333335</ele><time>2026-04-28T11:40:20.028Z</time></trkpt><trkpt lat="35.7909333" lon="-5.81489"><ele>3.0</ele><time>2026-04-28T11:40:21.028Z</time></trkpt><trkpt lat="35.79094" lon="-5.814985"><ele>3.666666666666667</ele><time>2026-04-28T11:40:22.028Z</time></trkpt><trkpt lat="35.7909433" lon="-5.8150833"><ele>4.333333333333334</ele><time>2026-04-28T11:40:23.028Z</time></trkpt><trkpt lat="35.7909467" lon="-5.81518"><ele>5.0</ele><time>2026-04-28T11:40:24.028Z</time></trkpt><trkpt lat="35.7909617" lon="-5.8152833"><ele>4.0</ele><time>2026-04-28T11:40:25.028Z</time></trkpt><trkpt lat="35.7909817" lon="-5.81539"><ele>3.0</ele><time>2026-04-28T11:40:26.028Z</time></trkpt><trkpt lat="35.7910067" lon="-5.8154883"><ele>2.0</ele><time>2026-04-28T11:40:27.028Z</time></trkpt><trkpt lat="35.7910417" lon="-5.8155917"><ele>1.0</ele><time>2026-04-28T11:40:28.028Z</time></trkpt><trkpt lat="35.7910783" lon="-5.8157017"><ele>0.0</ele><time>2026-04-28T11:40:29.028Z</time></trkpt><trkpt lat="35.7911167" lon="-5.8158083"><ele>0.0</ele><time>2026-04-28T11:40:30.028Z</time></trkpt><trkpt lat="35.791155" lon="-5.8159083"><ele>0.0</ele><time>2026-04-28T11:40:31.028Z</time></trkpt><trkpt lat="35.7911917" lon="-5.8160117"><ele>0.0</ele><time>2026-04-28T11:40:32.028Z</time></trkpt><trkpt lat="35.79123" lon="-5.816115"><ele>0.0</ele><time>2026-04-28T11:40:33.028Z</time></trkpt><trkpt lat="35.7912633" lon="-5.8162233"><ele>0.0</ele><time>2026-04-28T11:40:34.028Z</time></trkpt><trkpt lat="35.7913" lon="-5.81633"><ele>0.4</ele><time>2026-04-28T11:40:35.028Z</time></trkpt><trkpt lat="35.7913367" lon="-5.816435"><ele>0.8</ele><time>2026-04-28T11:40:36.028Z</time></trkpt><trkpt lat="35.7913767" lon="-5.8165517"><ele>1.2000000000000002</ele><time>2026-04-28T11:40:37.028Z</time></trkpt><trkpt lat="35.7914117" lon="-5.81666"><ele>1.6</ele><time>2026-04-28T11:40:38.028Z</time></trkpt><trkpt lat="35.7914467" lon="-5.8167717"><ele>2.0</ele><time>2026-04-28T11:40:39.028Z</time></trkpt><trkpt lat="35.7914817" lon="-5.816885"><ele>2.6</ele><time>2026-04-28T11:40:40.028Z</time></trkpt><trkpt lat="35.791525" lon="-5.8170017"><ele>3.2</ele><time>2026-04-28T11:40:41.028Z</time></trkpt><trkpt lat="35.791565" lon="-5.8171133"><ele>3.8</ele><time>2026-04-28T11:40:42.028Z</time></trkpt><trkpt lat="35.7916083" lon="-5.8172283"><ele>4.4</ele><time>2026-04-28T11:40:43.028Z</time></trkpt><trkpt lat="35.791645" lon="-5.8173383"><ele>5.0</ele><time>2026-04-28T11:40:44.028Z</time></trkpt><trkpt lat="35.7916783" lon="-5.8174433"><ele>5.0</ele><time>2026-04-28T11:40:45.028Z</time></trkpt><trkpt lat="35.7917017" lon="-5.8175367"><ele>5.0</ele><time>2026-04-28T11:40:46.028Z</time></trkpt><trkpt lat="35.791725" lon="-5.8176217"><ele>5.0</ele><time>2026-04-28T11:40:47.028Z</time></trkpt><trkpt lat="35.7917617" lon="-5.8177517"><ele>5.0</ele><time>2026-04-28T11:40:49.028Z</time></trkpt><trkpt lat="35.7917833" lon="-5.8178483"><ele>5.0</ele><time>2026-04-28T11:40:51.028Z</time></trkpt><trkpt lat="35.79179" lon="-5.8179267"><ele>5.0</ele><time>2026-04-28T11:40:53.028Z</time></trkpt><trkpt lat="35.7917867" lon="-5.818025"><ele>5.6</ele><time>2026-04-28T11:40:55.028Z</time></trkpt><trkpt lat="35.7917783" lon="-5.81814"><ele>6.2</ele><time>2026-04-28T11:40:57.028Z</time></trkpt><trkpt lat="35.7917783" lon="-5.81828"><ele>6.800000000000001</ele><time>2026-04-28T11:40:59.028Z</time></trkpt><trkpt lat="35.7917733" lon="-5.8183667"><ele>7.4</ele><time>2026-04-28T11:41:00.028Z</time></trkpt><trkpt lat="35.79177" lon="-5.818475"><ele>8.0</ele><time>2026-04-28T11:41:01.028Z</time></trkpt><trkpt lat="35.7917717" lon="-5.818595"><ele>9.0</ele><time>2026-04-28T11:41:02.028Z</time></trkpt><trkpt lat="35.7917817" lon="-5.8187183"><ele>10.0</ele><time>2026-04-28T11:41:03.028Z</time></trkpt><trkpt lat="35.7917983" lon="-5.8188483"><ele>11.0</ele><time>2026-04-28T11:41:04.028Z</time></trkpt><trkpt lat="35.7918217" lon="-5.818995"><ele>12.0</ele><time>2026-04-28T11:41:05.028Z</time></trkpt><trkpt lat="35.7918583" lon="-5.8191417"><ele>9.0</ele><time>2026-04-28T11:41:06.028Z</time></trkpt><trkpt lat="35.7918933" lon="-5.8192833"><ele>6.0</ele><time>2026-04-28T11:41:07.028Z</time></trkpt><trkpt lat="35.7919333" lon="-5.8194267"><ele>3.0</ele><time>2026-04-28T11:41:08.028Z</time></trkpt><trkpt lat="35.7919733" lon="-5.819575"><ele>0.0</ele><time>2026-04-28T11:41:09.028Z</time></trkpt><trkpt lat="35.7920117" lon="-5.819715"><ele>0.0</ele><time>2026-04-28T11:41:10.028Z</time></trkpt><trkpt lat="35.792045" lon="-5.8198617"><ele>0.0</ele><time>2026-04-28T11:41:11.028Z</time></trkpt><trkpt lat="35.7920783" lon="-5.8200067"><ele>0.0</ele><time>2026-04-28T11:41:12.028Z</time></trkpt><trkpt lat="35.7921117" lon="-5.8201467"><ele>0.0</ele><time>2026-04-28T11:41:13.027Z</time></trkpt><trkpt lat="35.7921467" lon="-5.8202917"><ele>0.0</ele><time>2026-04-28T11:41:14.027Z</time></trkpt><trkpt lat="35.7921833" lon="-5.82044"><ele>0.0</ele><time>2026-04-28T11:41:15.027Z</time></trkpt><trkpt lat="35.79222" lon="-5.8205917"><ele>0.0</ele><time>2026-04-28T11:41:16.028Z</time></trkpt><trkpt lat="35.7922517" lon="-5.820735"><ele>0.0</ele><time>2026-04-28T11:41:17.028Z</time></trkpt><trkpt lat="35.79229" lon="-5.8208817"><ele>0.5</ele><time>2026-04-28T11:41:18.028Z</time></trkpt><trkpt lat="35.7923267" lon="-5.8210233"><ele>1.0</ele><time>2026-04-28T11:41:19.028Z</time></trkpt><trkpt lat="35.7923617" lon="-5.82117"><ele>1.5</ele><time>2026-04-28T11:41:20.028Z</time></trkpt><trkpt lat="35.7924" lon="-5.8213183"><ele>2.0</ele><time>2026-04-28T11:41:21.028Z</time></trkpt><trkpt lat="35.7924383" lon="-5.8214633"><ele>2.0</ele><time>2026-04-28T11:41:22.028Z</time></trkpt><trkpt lat="35.7924783" lon="-5.821605"><ele>2.0</ele><time>2026-04-28T11:41:23.027Z</time></trkpt><trkpt lat="35.79252" lon="-5.821745"><ele>2.0</ele><time>2026-04-28T11:41:24.027Z</time></trkpt><trkpt lat="35.7925667" lon="-5.8218883"><ele>2.0</ele><time>2026-04-28T11:41:25.028Z</time></trkpt><trkpt lat="35.792615" lon="-5.822025"><ele>1.5</ele><time>2026-04-28T11:41:26.027Z</time></trkpt><trkpt lat="35.792665" lon="-5.822165"><ele>1.0</ele><time>2026-04-28T11:41:27.027Z</time></trkpt><trkpt lat="35.7927167" lon="-5.8223033"><ele>0.5</ele><time>2026-04-28T11:41:28.028Z</time></trkpt><trkpt lat="35.7927733" lon="-5.82244"><ele>0.0</ele><time>2026-04-28T11:41:29.028Z</time></trkpt><trkpt lat="35.79283" lon="-5.82257"><ele>1.25</ele><time>2026-04-28T11:41:30.028Z</time></trkpt><trkpt lat="35.7928917" lon="-5.8226967"><ele>2.5</ele><time>2026-04-28T11:41:31.028Z</time></trkpt><trkpt lat="35.7929683" lon="-5.82281"><ele>3.75</ele><time>2026-04-28T11:41:32.027Z</time></trkpt><trkpt lat="35.79306" lon="-5.8229"><ele>5.0</ele><time>2026-04-28T11:41:33.028Z</time></trkpt><trkpt lat="35.7931717" lon="-5.8229767"><ele>5.0</ele><time>2026-04-28T11:41:34.028Z</time></trkpt><trkpt lat="35.793285" lon="-5.8230583"><ele>5.0</ele><time>2026-04-28T11:41:35.028Z</time></trkpt><trkpt lat="35.7933833" lon="-5.8231567"><ele>5.0</ele><time>2026-04-28T11:41:36.028Z</time></trkpt><trkpt lat="35.793465" lon="-5.8232717"><ele>5.0</ele><time>2026-04-28T11:41:37.028Z</time></trkpt><trkpt lat="35.793545" lon="-5.82339"><ele>4.0</ele><time>2026-04-28T11:41:38.028Z</time></trkpt><trkpt lat="35.79362" lon="-5.8235133"><ele>3.0</ele><time>2026-04-28T11:41:39.028Z</time></trkpt><trkpt lat="35.7936933" lon="-5.8236283"><ele>2.0</ele><time>2026-04-28T11:41:40.028Z</time></trkpt><trkpt lat="35.793755" lon="-5.8237583"><ele>1.0</ele><time>2026-04-28T11:41:41.028Z</time></trkpt><trkpt lat="35.79381" lon="-5.8238967"><ele>1.0</ele><time>2026-04-28T11:41:42.028Z</time></trkpt><trkpt lat="35.7938533" lon="-5.8240283"><ele>1.0</ele><time>2026-04-28T11:41:43.028Z</time></trkpt><trkpt lat="35.79389" lon="-5.8241633"><ele>1.0</ele><time>2026-04-28T11:41:44.028Z</time></trkpt><trkpt lat="35.7939267" lon="-5.8242983"><ele>1.0</ele><time>2026-04-28T11:41:45.028Z</time></trkpt><trkpt lat="35.7939633" lon="-5.82443"><ele>3.2</ele><time>2026-04-28T11:41:46.028Z</time></trkpt><trkpt lat="35.794005" lon="-5.82456"><ele>5.4</ele><time>2026-04-28T11:41:47.028Z</time></trkpt><trkpt lat="35.794045" lon="-5.8246733"><ele>7.6</ele><time>2026-04-28T11:41:48.028Z</time></trkpt><trkpt lat="35.7941" lon="-5.82478"><ele>9.799999999999999</ele><time>2026-04-28T11:41:49.027Z</time></trkpt><trkpt lat="35.7941783" lon="-5.8248717"><ele>12.0</ele><time>2026-04-28T11:41:50.028Z</time></trkpt><trkpt lat="35.7942717" lon="-5.8249333"><ele>9.6</ele><time>2026-04-28T11:41:51.028Z</time></trkpt><trkpt lat="35.7943767" lon="-5.82498"><ele>7.199999999999999</ele><time>2026-04-28T11:41:52.027Z</time></trkpt><trkpt lat="35.7944817" lon="-5.82501"><ele>4.8</ele><time>2026-04-28T11:41:53.027Z</time></trkpt><trkpt lat="35.7945817" lon="-5.8250467"><ele>2.4</ele><time>2026-04-28T11:41:54.028Z</time></trkpt><trkpt lat="35.7946783" lon="-5.8250833"><ele>0.0</ele><time>2026-04-28T11:41:55.028Z</time></trkpt><trkpt lat="35.7947617" lon="-5.8251283"><ele>0.0</ele><time>2026-04-28T11:41:56.028Z</time></trkpt><trkpt lat="35.794845" lon="-5.8251883"><ele>0.0</ele><time>2026-04-28T11:41:57.028Z</time></trkpt><trkpt lat="35.794915" lon="-5.82527"><ele>0.0</ele><time>2026-04-28T11:41:58.028Z</time></trkpt><trkpt lat="35.7949717" lon="-5.8253617"><ele>0.0</ele><time>2026-04-28T11:41:59.028Z</time></trkpt><trkpt lat="35.7950133" lon="-5.8254667"><ele>0.0</ele><time>2026-04-28T11:42:00.028Z</time></trkpt><trkpt lat="35.795045" lon="-5.8255767"><ele>0.0</ele><time>2026-04-28T11:42:01.028Z</time></trkpt><trkpt lat="35.795065" lon="-5.8256983"><ele>0.0</ele><time>2026-04-28T11:42:02.028Z</time></trkpt><trkpt lat="35.79508" lon="-5.8258183"><ele>0.0</ele><time>2026-04-28T11:42:03.027Z</time></trkpt><trkpt lat="35.7950833" lon="-5.8259267"><ele>0.0</ele><time>2026-04-28T11:42:04.028Z</time></trkpt><trkpt lat="35.79508" lon="-5.8260333"><ele>0.0</ele><time>2026-04-28T11:42:05.028Z</time></trkpt><trkpt lat="35.79508" lon="-5.826145"><ele>0.8333333333333334</ele><time>2026-04-28T11:42:06.028Z</time></trkpt><trkpt lat="35.7950783" lon="-5.82625"><ele>1.6666666666666667</ele><time>2026-04-28T11:42:07.028Z</time></trkpt><trkpt lat="35.7950717" lon="-5.8263583"><ele>2.5</ele><time>2026-04-28T11:42:08.028Z</time></trkpt><trkpt lat="35.79507" lon="-5.8264617"><ele>3.3333333333333335</ele><time>2026-04-28T11:42:09.028Z</time></trkpt><trkpt lat="35.79507" lon="-5.82656"><ele>4.166666666666667</ele><time>2026-04-28T11:42:10.028Z</time></trkpt><trkpt lat="35.7950733" lon="-5.82665"><ele>5.0</ele><time>2026-04-28T11:42:11.027Z</time></trkpt><trkpt lat="35.7950767" lon="-5.82673"><ele>5.166666666666667</ele><time>2026-04-28T11:42:12.028Z</time></trkpt><trkpt lat="35.7950933" lon="-5.8268533"><ele>5.333333333333334</ele><time>2026-04-28T11:42:14.027Z</time></trkpt><trkpt lat="35.795125" lon="-5.82693"><ele>5.5</ele><time>2026-04-28T11:42:17.027Z</time></trkpt><trkpt lat="35.7951" lon="-5.827015"><ele>5.666666666666667</ele><time>2026-04-28T11:43:56.027Z</time></trkpt><trkpt lat="35.7950367" lon="-5.8270083"><ele>5.833333333333333</ele><time>2026-04-28T11:43:59.027Z</time></trkpt><trkpt lat="35.79502" lon="-5.8269033"><ele>6.0</ele><time>2026-04-28T11:44:01.027Z</time></trkpt><trkpt lat="35.7950183" lon="-5.8268117"><ele>5.8</ele><time>2026-04-28T11:44:02.027Z</time></trkpt><trkpt lat="35.79502" lon="-5.82671"><ele>5.6</ele><time>2026-04-28T11:44:03.027Z</time></trkpt><trkpt lat="35.7950167" lon="-5.8266033"><ele>5.4</ele><time>2026-04-28T11:44:04.027Z</time></trkpt><trkpt lat="35.7950117" lon="-5.8264917"><ele>5.2</ele><time>2026-04-28T11:44:05.027Z</time></trkpt><trkpt lat="35.7950083" lon="-5.8263733"><ele>5.0</ele><time>2026-04-28T11:44:06.026Z</time></trkpt><trkpt lat="35.7950017" lon="-5.826255"><ele>5.0</ele><time>2026-04-28T11:44:07.027Z</time></trkpt><trkpt lat="35.7949967" lon="-5.8261417"><ele>5.0</ele><time>2026-04-28T11:44:08.027Z</time></trkpt><trkpt lat="35.7949917" lon="-5.82603"><ele>5.0</ele><time>2026-04-28T11:44:09.027Z</time></trkpt><trkpt lat="35.7949883" lon="-5.8259183"><ele>5.0</ele><time>2026-04-28T11:44:10.027Z</time></trkpt><trkpt lat="35.794985" lon="-5.8258017"><ele>5.0</ele><time>2026-04-28T11:44:11.027Z</time></trkpt><trkpt lat="35.7949833" lon="-5.8256967"><ele>4.0</ele><time>2026-04-28T11:44:12.027Z</time></trkpt><trkpt lat="35.794965" lon="-5.82559"><ele>3.0</ele><time>2026-04-28T11:44:13.027Z</time></trkpt><trkpt lat="35.79493" lon="-5.8254883"><ele>2.0</ele><time>2026-04-28T11:44:14.027Z</time></trkpt><trkpt lat="35.794895" lon="-5.8253917"><ele>1.0</ele><time>2026-04-28T11:44:15.027Z</time></trkpt><trkpt lat="35.7948367" lon="-5.8253033"><ele>0.0</ele><time>2026-04-28T11:44:16.027Z</time></trkpt><trkpt lat="35.7947567" lon="-5.8252233"><ele>0.0</ele><time>2026-04-28T11:44:17.027Z</time></trkpt><trkpt lat="35.7946667" lon="-5.8251617"><ele>0.0</ele><time>2026-04-28T11:44:18.027Z</time></trkpt><trkpt lat="35.794575" lon="-5.825125"><ele>0.0</ele><time>2026-04-28T11:44:19.027Z</time></trkpt><trkpt lat="35.7944817" lon="-5.8250917"><ele>0.0</ele><time>2026-04-28T11:44:20.027Z</time></trkpt><trkpt lat="35.7943833" lon="-5.82506"><ele>0.0</ele><time>2026-04-28T11:44:21.027Z</time></trkpt><trkpt lat="35.7942883" lon="-5.8250283"><ele>2.4</ele><time>2026-04-28T11:44:22.027Z</time></trkpt><trkpt lat="35.79419" lon="-5.82499"><ele>4.8</ele><time>2026-04-28T11:44:23.027Z</time></trkpt><trkpt lat="35.794095" lon="-5.8249267"><ele>7.199999999999999</ele><time>2026-04-28T11:44:24.027Z</time></trkpt><trkpt lat="35.794005" lon="-5.8248367"><ele>9.6</ele><time>2026-04-28T11:44:25.027Z</time></trkpt><trkpt lat="35.7939383" lon="-5.8247183"><ele>12.0</ele><time>2026-04-28T11:44:26.027Z</time></trkpt><trkpt lat="35.7938883" lon="-5.8245817"><ele>12.0</ele><time>2026-04-28T11:44:27.027Z</time></trkpt><trkpt lat="35.7938517" lon="-5.8244483"><ele>12.0</ele><time>2026-04-28T11:44:28.027Z</time></trkpt><trkpt lat="35.7938283" lon="-5.82432"><ele>12.0</ele><time>2026-04-28T11:44:29.027Z</time></trkpt><trkpt lat="35.7938067" lon="-5.8241767"><ele>12.0</ele><time>2026-04-28T11:44:30.027Z</time></trkpt><trkpt lat="35.7937767" lon="-5.824035"><ele>9.25</ele><time>2026-04-28T11:44:31.027Z</time></trkpt><trkpt lat="35.7937217" lon="-5.8238917"><ele>6.5</ele><time>2026-04-28T11:44:32.027Z</time></trkpt><trkpt lat="35.79367" lon="-5.82377"><ele>3.75</ele><time>2026-04-28T11:44:33.027Z</time></trkpt><trkpt lat="35.7936183" lon="-5.82365"><ele>1.0</ele><time>2026-04-28T11:44:34.027Z</time></trkpt><trkpt lat="35.7935533" lon="-5.8235333"><ele>1.8</ele><time>2026-04-28T11:44:35.027Z</time></trkpt><trkpt lat="35.793485" lon="-5.823425"><ele>2.6</ele><time>2026-04-28T11:44:36.027Z</time></trkpt><trkpt lat="35.7934133" lon="-5.823325"><ele>3.4</ele><time>2026-04-28T11:44:37.027Z</time></trkpt><trkpt lat="35.79333" lon="-5.8232267"><ele>4.2</ele><time>2026-04-28T11:44:38.027Z</time></trkpt><trkpt lat="35.7932417" lon="-5.8231417"><ele>5.0</ele><time>2026-04-28T11:44:39.027Z</time></trkpt><trkpt lat="35.7931433" lon="-5.82306"><ele>5.0</ele><time>2026-04-28T11:44:40.027Z</time></trkpt><trkpt lat="35.7930383" lon="-5.8229883"><ele>5.0</ele><time>2026-04-28T11:44:41.027Z</time></trkpt><trkpt lat="35.7929417" lon="-5.822915"><ele>5.0</ele><time>2026-04-28T11:44:42.027Z</time></trkpt><trkpt lat="35.7928583" lon="-5.8228233"><ele>5.0</ele><time>2026-04-28T11:44:43.027Z</time></trkpt><trkpt lat="35.792785" lon="-5.8227"><ele>5.75</ele><time>2026-04-28T11:44:44.027Z</time></trkpt><trkpt lat="35.792725" lon="-5.8225517"><ele>6.5</ele><time>2026-04-28T11:44:45.027Z</time></trkpt><trkpt lat="35.7926617" lon="-5.8223833"><ele>7.25</ele><time>2026-04-28T11:44:46.027Z</time></trkpt><trkpt lat="35.7925983" lon="-5.8222083"><ele>8.0</ele><time>2026-04-28T11:44:47.027Z</time></trkpt><trkpt lat="35.792525" lon="-5.8220433"><ele>8.0</ele><time>2026-04-28T11:44:48.027Z</time></trkpt><trkpt lat="35.7924683" lon="-5.82187"><ele>8.0</ele><time>2026-04-28T11:44:49.027Z</time></trkpt><trkpt lat="35.7924183" lon="-5.8216817"><ele>8.0</ele><time>2026-04-28T11:44:50.027Z</time></trkpt><trkpt lat="35.7923767" lon="-5.82149"><ele>6.0</ele><time>2026-04-28T11:44:51.026Z</time></trkpt><trkpt lat="35.7923333" lon="-5.821285"><ele>4.0</ele><time>2026-04-28T11:44:52.027Z</time></trkpt><trkpt lat="35.7922833" lon="-5.821075"><ele>2.0</ele><time>2026-04-28T11:44:53.027Z</time></trkpt><trkpt lat="35.79224" lon="-5.82087"><ele>1.3333333333333333</ele><time>2026-04-28T11:44:54.027Z</time></trkpt><trkpt lat="35.79219" lon="-5.8206733"><ele>0.6666666666666666</ele><time>2026-04-28T11:44:55.027Z</time></trkpt><trkpt lat="35.7921417" lon="-5.82049"><ele>0.0</ele><time>2026-04-28T11:44:56.027Z</time></trkpt><trkpt lat="35.7920933" lon="-5.8203167"><ele>0.0</ele><time>2026-04-28T11:44:57.027Z</time></trkpt><trkpt lat="35.7920433" lon="-5.8201417"><ele>0.0</ele><time>2026-04-28T11:44:58.027Z</time></trkpt><trkpt lat="35.7919983" lon="-5.8199583"><ele>0.0</ele><time>2026-04-28T11:44:59.027Z</time></trkpt><trkpt lat="35.79195" lon="-5.8197633"><ele>0.0</ele><time>2026-04-28T11:45:00.027Z</time></trkpt><trkpt lat="35.7919083" lon="-5.8195667"><ele>0.0</ele><time>2026-04-28T11:45:01.027Z</time></trkpt><trkpt lat="35.7918667" lon="-5.8193833"><ele>0.0</ele><time>2026-04-28T11:45:02.027Z</time></trkpt><trkpt lat="35.7918233" lon="-5.8192033"><ele>3.0</ele><time>2026-04-28T11:45:03.027Z</time></trkpt><trkpt lat="35.791785" lon="-5.8190333"><ele>6.0</ele><time>2026-04-28T11:45:04.027Z</time></trkpt><trkpt lat="35.7917483" lon="-5.818865"><ele>9.0</ele><time>2026-04-28T11:45:05.027Z</time></trkpt><trkpt lat="35.7917183" lon="-5.8186967"><ele>12.0</ele><time>2026-04-28T11:45:06.027Z</time></trkpt><trkpt lat="35.791705" lon="-5.81852"><ele>11.0</ele><time>2026-04-28T11:45:07.027Z</time></trkpt><trkpt lat="35.7917033" lon="-5.8183467"><ele>10.0</ele><time>2026-04-28T11:45:08.027Z</time></trkpt><trkpt lat="35.7917033" lon="-5.8181717"><ele>9.0</ele><time>2026-04-28T11:45:09.026Z</time></trkpt><trkpt lat="35.7917" lon="-5.8180117"><ele>8.0</ele><time>2026-04-28T11:45:10.027Z</time></trkpt><trkpt lat="35.791685" lon="-5.8178533"><ele>8.0</ele><time>2026-04-28T11:45:11.026Z</time></trkpt><trkpt lat="35.7916667" lon="-5.817705"><ele>8.0</ele><time>2026-04-28T11:45:12.027Z</time></trkpt><trkpt lat="35.7916333" lon="-5.8175583"><ele>8.0</ele><time>2026-04-28T11:45:13.027Z</time></trkpt><trkpt lat="35.791595" lon="-5.8174083"><ele>8.0</ele><time>2026-04-28T11:45:14.027Z</time></trkpt><trkpt lat="35.7915467" lon="-5.8172533"><ele>7.25</ele><time>2026-04-28T11:45:15.027Z</time></trkpt><trkpt lat="35.79149" lon="-5.8170917"><ele>6.5</ele><time>2026-04-28T11:45:16.027Z</time></trkpt><trkpt lat="35.791435" lon="-5.8169317"><ele>5.75</ele><time>2026-04-28T11:45:17.027Z</time></trkpt><trkpt lat="35.7913817" lon="-5.8167683"><ele>5.0</ele><time>2026-04-28T11:45:18.027Z</time></trkpt><trkpt lat="35.7913267" lon="-5.8166"><ele>4.25</ele><time>2026-04-28T11:45:19.027Z</time></trkpt><trkpt lat="35.79127" lon="-5.8164333"><ele>3.5</ele><time>2026-04-28T11:45:20.027Z</time></trkpt><trkpt lat="35.7912117" lon="-5.8162667"><ele>2.75</ele><time>2026-04-28T11:45:21.026Z</time></trkpt><trkpt lat="35.7911583" lon="-5.8161033"><ele>2.0</ele><time>2026-04-28T11:45:22.027Z</time></trkpt><trkpt lat="35.7911" lon="-5.815955"><ele>1.5</ele><time>2026-04-28T11:45:23.027Z</time></trkpt><trkpt lat="35.7910517" lon="-5.815815"><ele>1.0</ele><time>2026-04-28T11:45:24.027Z</time></trkpt><trkpt lat="35.7910117" lon="-5.8156817"><ele>0.5</ele><time>2026-04-28T11:45:25.027Z</time></trkpt><trkpt lat="35.7909683" lon="-5.8155517"><ele>0.0</ele><time>2026-04-28T11:45:26.027Z</time></trkpt><trkpt lat="35.7909317" lon="-5.8154283"><ele>1.0</ele><time>2026-04-28T11:45:27.027Z</time></trkpt><trkpt lat="35.7908917" lon="-5.8153033"><ele>2.0</ele><time>2026-04-28T11:45:28.027Z</time></trkpt><trkpt lat="35.7908633" lon="-5.81518"><ele>3.0</ele><time>2026-04-28T11:45:29.026Z</time></trkpt><trkpt lat="35.7908267" lon="-5.815065"><ele>4.0</ele><time>2026-04-28T11:45:30.027Z</time></trkpt><trkpt lat="35.7907933" lon="-5.8149667"><ele>5.0</ele><time>2026-04-28T11:45:31.026Z</time></trkpt><trkpt lat="35.790775" lon="-5.8148767"><ele>5.0</ele><time>2026-04-28T11:45:32.027Z</time></trkpt><trkpt lat="35.7907667" lon="-5.8147383"><ele>5.0</ele><time>2026-04-28T11:45:34.027Z</time></trkpt><trkpt lat="35.7907683" lon="-5.8145783"><ele>5.0</ele><time>2026-04-28T11:45:36.027Z</time></trkpt><trkpt lat="35.790775" lon="-5.8144917"><ele>5.0</ele><time>2026-04-28T11:45:37.027Z</time></trkpt><trkpt lat="35.7907867" lon="-5.81439"><ele>5.0</ele><time>2026-04-28T11:45:38.027Z</time></trkpt><trkpt lat="35.7908017" lon="-5.814285"><ele>4.333333333333334</ele><time>2026-04-28T11:45:39.027Z</time></trkpt><trkpt lat="35.7907867" lon="-5.8141817"><ele>3.666666666666667</ele><time>2026-04-28T11:45:40.027Z</time></trkpt><trkpt lat="35.79076" lon="-5.814075"><ele>3.0</ele><time>2026-04-28T11:45:41.027Z</time></trkpt><trkpt lat="35.7907283" lon="-5.8139717"><ele>2.3333333333333335</ele><time>2026-04-28T11:45:42.026Z</time></trkpt><trkpt lat="35.790695" lon="-5.8138767"><ele>1.6666666666666665</ele><time>2026-04-28T11:45:43.027Z</time></trkpt><trkpt lat="35.7906567" lon="-5.813775"><ele>1.0</ele><time>2026-04-28T11:45:44.027Z</time></trkpt><trkpt lat="35.790615" lon="-5.81367"><ele>1.0</ele><time>2026-04-28T11:45:45.027Z</time></trkpt><trkpt lat="35.7905767" lon="-5.8135567"><ele>1.0</ele><time>2026-04-28T11:45:46.027Z</time></trkpt><trkpt lat="35.790535" lon="-5.81344"><ele>1.0</ele><time>2026-04-28T11:45:47.027Z</time></trkpt><trkpt lat="35.7905033" lon="-5.8133217"><ele>1.0</ele><time>2026-04-28T11:45:48.027Z</time></trkpt><trkpt lat="35.7904767" lon="-5.8132"><ele>1.0</ele><time>2026-04-28T11:45:49.027Z</time></trkpt><trkpt lat="35.79046" lon="-5.8130717"><ele>1.0</ele><time>2026-04-28T11:45:50.027Z</time></trkpt><trkpt lat="35.790445" lon="-5.812945"><ele>1.0</ele><time>2026-04-28T11:45:51.027Z</time></trkpt><trkpt lat="35.7904333" lon="-5.8128267"><ele>1.0</ele><time>2026-04-28T11:45:52.027Z</time></trkpt><trkpt lat="35.7904233" lon="-5.8127033"><ele>1.0</ele><time>2026-04-28T11:45:53.027Z</time></trkpt><trkpt lat="35.7904117" lon="-5.81258"><ele>1.0</ele><time>2026-04-28T11:45:54.027Z</time></trkpt><trkpt lat="35.7904017" lon="-5.812455"><ele>0.8</ele><time>2026-04-28T11:45:55.027Z</time></trkpt><trkpt lat="35.790385" lon="-5.8123383"><ele>0.6000000000000001</ele><time>2026-04-28T11:45:56.027Z</time></trkpt><trkpt lat="35.790365" lon="-5.8122217"><ele>0.4</ele><time>2026-04-28T11:45:57.027Z</time></trkpt><trkpt lat="35.79034" lon="-5.812115"><ele>0.2</ele><time>2026-04-28T11:45:58.027Z</time></trkpt><trkpt lat="35.7903083" lon="-5.8120167"><ele>0.0</ele><time>2026-04-28T11:45:59.027Z</time></trkpt><trkpt lat="35.79027" lon="-5.8119217"><ele>0.0</ele><time>2026-04-28T11:46:00.027Z</time></trkpt><trkpt lat="35.79023" lon="-5.81183"><ele>0.0</ele><time>2026-04-28T11:46:01.027Z</time></trkpt><trkpt lat="35.7901783" lon="-5.811735"><ele>0.0</ele><time>2026-04-28T11:46:02.027Z</time></trkpt><trkpt lat="35.79012" lon="-5.811635"><ele>0.0</ele><time>2026-04-28T11:46:03.027Z</time></trkpt><trkpt lat="35.7900567" lon="-5.81153"><ele>0.0</ele><time>2026-04-28T11:46:04.027Z</time></trkpt><trkpt lat="35.78999" lon="-5.8114083"><ele>0.75</ele><time>2026-04-28T11:46:05.027Z</time></trkpt><trkpt lat="35.7899167" lon="-5.8112833"><ele>1.5</ele><time>2026-04-28T11:46:06.027Z</time></trkpt><trkpt lat="35.789835" lon="-5.8111467"><ele>2.25</ele><time>2026-04-28T11:46:07.027Z</time></trkpt><trkpt lat="35.789745" lon="-5.811015"><ele>3.0</ele><time>2026-04-28T11:46:08.027Z</time></trkpt><trkpt lat="35.78965" lon="-5.8108967"><ele>3.0</ele><time>2026-04-28T11:46:09.027Z</time></trkpt><trkpt lat="35.7895633" lon="-5.810775"><ele>3.0</ele><time>2026-04-28T11:46:10.027Z</time></trkpt><trkpt lat="35.7894833" lon="-5.8106533"><ele>3.0</ele><time>2026-04-28T11:46:11.027Z</time></trkpt><trkpt lat="35.7894117" lon="-5.8105167"><ele>3.0</ele><time>2026-04-28T11:46:12.027Z</time></trkpt><trkpt lat="35.7893433" lon="-5.810355"><ele>4.666666666666666</ele><time>2026-04-28T11:46:13.027Z</time></trkpt><trkpt lat="35.7892783" lon="-5.8101717"><ele>6.333333333333333</ele><time>2026-04-28T11:46:14.027Z</time></trkpt><trkpt lat="35.7892083" lon="-5.809975"><ele>8.0</ele><time>2026-04-28T11:46:15.027Z</time></trkpt><trkpt lat="35.7891417" lon="-5.80978"><ele>8.0</ele><time>2026-04-28T11:46:16.027Z</time></trkpt><trkpt lat="35.789095" lon="-5.8095933"><ele>8.0</ele><time>2026-04-28T11:46:17.027Z</time></trkpt><trkpt lat="35.7890517" lon="-5.80942"><ele>8.0</ele><time>2026-04-28T11:46:18.027Z</time></trkpt><trkpt lat="35.7890167" lon="-5.8092567"><ele>8.0</ele><time>2026-04-28T11:46:19.027Z</time></trkpt><trkpt lat="35.788985" lon="-5.8091"><ele>7.5</ele><time>2026-04-28T11:46:20.027Z</time></trkpt><trkpt lat="35.7889583" lon="-5.8089483"><ele>7.0</ele><time>2026-04-28T11:46:21.027Z</time></trkpt><trkpt lat="35.7889317" lon="-5.808805"><ele>6.5</ele><time>2026-04-28T11:46:22.027Z</time></trkpt><trkpt lat="35.788905" lon="-5.8086683"><ele>6.0</ele><time>2026-04-28T11:46:23.027Z</time></trkpt><trkpt lat="35.7888767" lon="-5.8085367"><ele>5.333333333333333</ele><time>2026-04-28T11:46:24.027Z</time></trkpt><trkpt lat="35.7888517" lon="-5.8084183"><ele>4.666666666666667</ele><time>2026-04-28T11:46:25.027Z</time></trkpt><trkpt lat="35.78883" lon="-5.80831"><ele>4.0</ele><time>2026-04-28T11:46:26.027Z</time></trkpt><trkpt lat="35.7888083" lon="-5.8082083"><ele>3.333333333333333</ele><time>2026-04-28T11:46:27.027Z</time></trkpt><trkpt lat="35.788785" lon="-5.8081133"><ele>2.6666666666666665</ele><time>2026-04-28T11:46:28.027Z</time></trkpt><trkpt lat="35.7887467" lon="-5.808025"><ele>2.0</ele><time>2026-04-28T11:46:29.027Z</time></trkpt><trkpt lat="35.7886917" lon="-5.807945"><ele>2.0</ele><time>2026-04-28T11:46:30.027Z</time></trkpt><trkpt lat="35.7886183" lon="-5.80788"><ele>2.0</ele><time>2026-04-28T11:46:31.027Z</time></trkpt><trkpt lat="35.7885383" lon="-5.8078433"><ele>2.0</ele><time>2026-04-28T11:46:32.027Z</time></trkpt><trkpt lat="35.7884433" lon="-5.807825"><ele>2.0</ele><time>2026-04-28T11:46:34.027Z</time></trkpt><trkpt lat="35.7883583" lon="-5.8078733"><ele>2.0</ele><time>2026-04-28T11:46:37.026Z</time></trkpt><trkpt lat="35.7882633" lon="-5.80791"><ele>3.1666666666666665</ele><time>2026-04-28T11:46:39.027Z</time></trkpt><trkpt lat="35.7881517" lon="-5.80797"><ele>4.333333333333333</ele><time>2026-04-28T11:46:41.027Z</time></trkpt><trkpt lat="35.7880917" lon="-5.8080183"><ele>5.5</ele><time>2026-04-28T11:46:42.027Z</time></trkpt><trkpt lat="35.788025" lon="-5.8080683"><ele>6.666666666666667</ele><time>2026-04-28T11:46:43.027Z</time></trkpt><trkpt lat="35.787955" lon="-5.8081217"><ele>7.833333333333333</ele><time>2026-04-28T11:46:44.027Z</time></trkpt><trkpt lat="35.787875" lon="-5.808165"><ele>9.0</ele><time>2026-04-28T11:46:45.027Z</time></trkpt><trkpt lat="35.7877983" lon="-5.8082"><ele>9.0</ele><time>2026-04-28T11:46:46.027Z</time></trkpt><trkpt lat="35.7877133" lon="-5.80823"><ele>9.0</ele><time>2026-04-28T11:46:47.027Z</time></trkpt><trkpt lat="35.78762" lon="-5.8082583"><ele>9.0</ele><time>2026-04-28T11:46:48.025Z</time></trkpt><trkpt lat="35.7875233" lon="-5.808285"><ele>9.0</ele><time>2026-04-28T11:46:49.026Z</time></trkpt><trkpt lat="35.787425" lon="-5.8082967"><ele>9.0</ele><time>2026-04-28T11:46:50.025Z</time></trkpt><trkpt lat="35.78733" lon="-5.8083"><ele>8.0</ele><time>2026-04-28T11:46:51.026Z</time></trkpt><trkpt lat="35.78723" lon="-5.8083033"><ele>7.0</ele><time>2026-04-28T11:46:52.026Z</time></trkpt><trkpt lat="35.7871367" lon="-5.8082967"><ele>6.0</ele><time>2026-04-28T11:46:53.026Z</time></trkpt><trkpt lat="35.7870417" lon="-5.8082833"><ele>5.0</ele><time>2026-04-28T11:46:54.026Z</time></trkpt><trkpt lat="35.786945" lon="-5.80826"><ele>4.0</ele><time>2026-04-28T11:46:55.026Z</time></trkpt><trkpt lat="35.786845" lon="-5.8082283"><ele>4.4</ele><time>2026-04-28T11:46:56.026Z</time></trkpt><trkpt lat="35.7867433" lon="-5.8082033"><ele>4.800000000000001</ele><time>2026-04-28T11:46:57.026Z</time></trkpt><trkpt lat="35.7866483" lon="-5.8081783"><ele>5.199999999999999</ele><time>2026-04-28T11:46:58.026Z</time></trkpt><trkpt lat="35.7865617" lon="-5.8081667"><ele>5.6</ele><time>2026-04-28T11:46:59.025Z</time></trkpt><trkpt lat="35.7864667" lon="-5.80815"><ele>6.0</ele><time>2026-04-28T11:47:00.026Z</time></trkpt><trkpt lat="35.7863667" lon="-5.8081283"><ele>6.0</ele><time>2026-04-28T11:47:01.026Z</time></trkpt><trkpt lat="35.786265" lon="-5.8081183"><ele>6.0</ele><time>2026-04-28T11:47:02.026Z</time></trkpt><trkpt lat="35.7861617" lon="-5.8081033"><ele>6.0</ele><time>2026-04-28T11:47:03.026Z</time></trkpt><trkpt lat="35.7860533" lon="-5.8080867"><ele>6.0</ele><time>2026-04-28T11:47:04.026Z</time></trkpt><trkpt lat="35.7859467" lon="-5.8080683"><ele>6.0</ele><time>2026-04-28T11:47:05.026Z</time></trkpt><trkpt lat="35.7858383" lon="-5.8080467"><ele>6.5</ele><time>2026-04-28T11:47:06.026Z</time></trkpt><trkpt lat="35.7857267" lon="-5.8080283"><ele>7.0</ele><time>2026-04-28T11:47:07.026Z</time></trkpt><trkpt lat="35.7856067" lon="-5.8080167"><ele>7.5</ele><time>2026-04-28T11:47:08.026Z</time></trkpt><trkpt lat="35.7854933" lon="-5.808005"><ele>8.0</ele><time>2026-04-28T11:47:09.026Z</time></trkpt><trkpt lat="35.7853783" lon="-5.808"><ele>8.0</ele><time>2026-04-28T11:47:10.026Z</time></trkpt><trkpt lat="35.7852683" lon="-5.808"><ele>8.0</ele><time>2026-04-28T11:47:11.026Z</time></trkpt><trkpt lat="35.785155" lon="-5.80799"><ele>8.0</ele><time>2026-04-28T11:47:12.026Z</time></trkpt><trkpt lat="35.7850517" lon="-5.807985"><ele>8.0</ele><time>2026-04-28T11:47:13.026Z</time></trkpt><trkpt lat="35.7849533" lon="-5.807975"><ele>8.0</ele><time>2026-04-28T11:47:14.025Z</time></trkpt><trkpt lat="35.7848617" lon="-5.807965"><ele>8.666666666666666</ele><time>2026-04-28T11:47:15.025Z</time></trkpt><trkpt lat="35.7847733" lon="-5.80796"><ele>9.333333333333332</ele><time>2026-04-28T11:47:16.026Z</time></trkpt><trkpt lat="35.7846833" lon="-5.8079517"><ele>10.0</ele><time>2026-04-28T11:47:17.026Z</time></trkpt><trkpt lat="35.7845967" lon="-5.8079383"><ele>10.666666666666666</ele><time>2026-04-28T11:47:18.026Z</time></trkpt><trkpt lat="35.7845183" lon="-5.807935"><ele>11.333333333333334</ele><time>2026-04-28T11:47:19.026Z</time></trkpt><trkpt lat="35.7844483" lon="-5.8079317"><ele>12.0</ele><time>2026-04-28T11:47:20.026Z</time></trkpt><trkpt lat="35.7843833" lon="-5.8079267"><ele>11.666666666666666</ele><time>2026-04-28T11:47:21.026Z</time></trkpt><trkpt lat="35.78432" lon="-5.8079217"><ele>11.333333333333334</ele><time>2026-04-28T11:47:22.026Z</time></trkpt><trkpt lat="35.7842067" lon="-5.8079183"><ele>11.0</ele><time>2026-04-28T11:47:24.025Z</time></trkpt><trkpt lat="35.7841433" lon="-5.807915"><ele>10.666666666666668</ele><time>2026-04-28T11:47:25.026Z</time></trkpt><trkpt lat="35.7840283" lon="-5.8079083"><ele>10.333333333333334</ele><time>2026-04-28T11:47:27.026Z</time></trkpt><trkpt lat="35.7839633" lon="-5.807905"><ele>10.0</ele><time>2026-04-28T11:47:28.026Z</time></trkpt><trkpt lat="35.7838483" lon="-5.8078733"><ele>10.0</ele><time>2026-04-28T11:47:30.026Z</time></trkpt><trkpt lat="35.7837417" lon="-5.8078383"><ele>10.0</ele><time>2026-04-28T11:47:32.026Z</time></trkpt><trkpt lat="35.78364" lon="-5.807845"><ele>10.0</ele><time>2026-04-28T11:47:34.026Z</time></trkpt><trkpt lat="35.78353" lon="-5.8078417"><ele>10.0</ele><time>2026-04-28T11:47:36.026Z</time></trkpt><trkpt lat="35.7834233" lon="-5.80783"><ele>10.0</ele><time>2026-04-28T11:47:38.026Z</time></trkpt><trkpt lat="35.7833283" lon="-5.8078267"><ele>10.4</ele><time>2026-04-28T11:47:40.025Z</time></trkpt><trkpt lat="35.7832117" lon="-5.8078217"><ele>10.8</ele><time>2026-04-28T11:47:42.026Z</time></trkpt><trkpt lat="35.7831167" lon="-5.8078217"><ele>11.2</ele><time>2026-04-28T11:47:44.026Z</time></trkpt><trkpt lat="35.783035" lon="-5.807835"><ele>11.6</ele><time>2026-04-28T11:47:47.026Z</time></trkpt><trkpt lat="35.7829483" lon="-5.8078333"><ele>12.0</ele><time>2026-04-28T11:47:57.026Z</time></trkpt><trkpt lat="35.7828767" lon="-5.8078767"><ele>12.0</ele><time>2026-04-28T11:47:59.026Z</time></trkpt><trkpt lat="35.78283" lon="-5.80793"><ele>12.0</ele><time>2026-04-28T11:48:01.026Z</time></trkpt><trkpt lat="35.782815" lon="-5.80803"><ele>12.0</ele><time>2026-04-28T11:48:04.026Z</time></trkpt><trkpt lat="35.7828117" lon="-5.80814"><ele>12.0</ele><time>2026-04-28T11:48:06.026Z</time></trkpt><trkpt lat="35.78281" lon="-5.80826"><ele>12.0</ele><time>2026-04-28T11:48:08.026Z</time></trkpt><trkpt lat="35.78281" lon="-5.8083567"><ele>12.0</ele><time>2026-04-28T11:48:10.026Z</time></trkpt><trkpt lat="35.78281" lon="-5.8084683"><ele>14.8</ele><time>2026-04-28T11:48:12.026Z</time></trkpt><trkpt lat="35.782815" lon="-5.8085917"><ele>17.6</ele><time>2026-04-28T11:48:14.026Z</time></trkpt><trkpt lat="35.7828033" lon="-5.8087167"><ele>20.400000000000002</ele><time>2026-04-28T11:48:16.026Z</time></trkpt><trkpt lat="35.7827933" lon="-5.80884"><ele>23.2</ele><time>2026-04-28T11:48:18.026Z</time></trkpt><trkpt lat="35.7828017" lon="-5.8089617"><ele>26.0</ele><time>2026-04-28T11:48:20.026Z</time></trkpt><trkpt lat="35.782805" lon="-5.8090833"><ele>25.999999999999996</ele><time>2026-04-28T11:48:22.026Z</time></trkpt><trkpt lat="35.7827617" lon="-5.8091833"><ele>26.0</ele><time>2026-04-28T11:48:24.026Z</time></trkpt><trkpt lat="35.782765" lon="-5.8092883"><ele>26.0</ele><time>2026-04-28T11:48:26.026Z</time></trkpt><trkpt lat="35.7827783" lon="-5.8094067"><ele>26.0</ele><time>2026-04-28T11:48:28.026Z</time></trkpt><trkpt lat="35.782795" lon="-5.8095233"><ele>25.999999999999996</ele><time>2026-04-28T11:48:30.026Z</time></trkpt><trkpt lat="35.7828083" lon="-5.8096083"><ele>26.0</ele><time>2026-04-28T11:48:32.026Z</time></trkpt><trkpt lat="35.782825" lon="-5.80971"><ele>27.333333333333332</ele><time>2026-04-28T11:48:34.026Z</time></trkpt><trkpt lat="35.7828517" lon="-5.8098067"><ele>28.666666666666664</ele><time>2026-04-28T11:48:36.026Z</time></trkpt><trkpt lat="35.782905" lon="-5.8099017"><ele>30.0</ele><time>2026-04-28T11:48:38.026Z</time></trkpt><trkpt lat="35.78293" lon="-5.8100083"><ele>31.333333333333336</ele><time>2026-04-28T11:48:40.026Z</time></trkpt><trkpt lat="35.7829733" lon="-5.8100967"><ele>32.66666666666667</ele><time>2026-04-28T11:48:42.026Z</time></trkpt><trkpt lat="35.783025" lon="-5.810185"><ele>34.0</ele><time>2026-04-28T11:48:44.026Z</time></trkpt><trkpt lat="35.78308" lon="-5.8102783"><ele>35.4</ele><time>2026-04-28T11:48:46.026Z</time></trkpt><trkpt lat="35.7831317" lon="-5.8103833"><ele>36.8</ele><time>2026-04-28T11:48:48.026Z</time></trkpt><trkpt lat="35.7831767" lon="-5.8105033"><ele>38.199999999999996</ele><time>2026-04-28T11:48:50.025Z</time></trkpt><trkpt lat="35.7832167" lon="-5.810635"><ele>39.599999999999994</ele><time>2026-04-28T11:48:52.026Z</time></trkpt><trkpt lat="35.7832633" lon="-5.8107633"><ele>41.0</ele><time>2026-04-28T11:48:54.026Z</time></trkpt><trkpt lat="35.7833033" lon="-5.8108917"><ele>41.0</ele><time>2026-04-28T11:48:56.026Z</time></trkpt><trkpt lat="35.7833383" lon="-5.8109933"><ele>41.0</ele><time>2026-04-28T11:48:58.025Z</time></trkpt><trkpt lat="35.7833683" lon="-5.811075"><ele>41.0</ele><time>2026-04-28T11:49:00.026Z</time></trkpt><trkpt lat="35.7833917" lon="-5.8111583"><ele>41.0</ele><time>2026-04-28T11:49:08.026Z</time></trkpt><trkpt lat="35.7834383" lon="-5.8112217"><ele>41.0</ele><time>2026-04-28T11:49:10.026Z</time></trkpt><trkpt lat="35.7835233" lon="-5.8113017"><ele>41.0</ele><time>2026-04-28T11:49:12.026Z</time></trkpt><trkpt lat="35.7835933" lon="-5.8113783"><ele>42.0</ele><time>2026-04-28T11:49:14.025Z</time></trkpt><trkpt lat="35.7836817" lon="-5.8114817"><ele>43.0</ele><time>2026-04-28T11:49:16.026Z</time></trkpt><trkpt lat="35.78378" lon="-5.8115667"><ele>44.0</ele><time>2026-04-28T11:49:18.026Z</time></trkpt><trkpt lat="35.783845" lon="-5.8116267"><ele>45.0</ele><time>2026-04-28T11:49:20.026Z</time></trkpt><trkpt lat="35.7839033" lon="-5.8116883"><ele>46.0</ele><time>2026-04-28T11:49:22.026Z</time></trkpt><trkpt lat="35.7839517" lon="-5.8117467"><ele>46.0</ele><time>2026-04-28T11:49:24.026Z</time></trkpt><trkpt lat="35.7840067" lon="-5.8118067"><ele>46.0</ele><time>2026-04-28T11:49:26.026Z</time></trkpt><trkpt lat="35.7840633" lon="-5.8118767"><ele>46.0</ele><time>2026-04-28T11:49:29.026Z</time></trkpt><trkpt lat="35.7841317" lon="-5.811955"><ele>46.0</ele><time>2026-04-28T11:49:39.026Z</time></trkpt><trkpt lat="35.7841717" lon="-5.8120533"><ele>46.0</ele><time>2026-04-28T11:49:46.026Z</time></trkpt><trkpt lat="35.7842417" lon="-5.812135"><ele>46.0</ele><time>2026-04-28T11:49:49.026Z</time></trkpt><trkpt lat="35.7843117" lon="-5.8122067"><ele>45.833333333333336</ele><time>2026-04-28T11:49:52.026Z</time></trkpt><trkpt lat="35.7843467" lon="-5.81229"><ele>45.66666666666667</ele><time>2026-04-28T11:49:55.026Z</time></trkpt><trkpt lat="35.7843767" lon="-5.8123683"><ele>45.5</ele><time>2026-04-28T11:49:58.026Z</time></trkpt><trkpt lat="35.7844167" lon="-5.8124317"><ele>45.333333333333336</ele><time>2026-04-28T11:50:01.026Z</time></trkpt><trkpt lat="35.784495" lon="-5.81257"><ele>45.166666666666664</ele><time>2026-04-28T11:50:15.026Z</time></trkpt><trkpt lat="35.7845367" lon="-5.81263"><ele>45.0</ele><time>2026-04-28T11:50:19.026Z</time></trkpt><trkpt lat="35.7845767" lon="-5.812705"><ele>45.0</ele><time>2026-04-28T11:50:25.026Z</time></trkpt><trkpt lat="35.78459" lon="-5.8128017"><ele>45.0</ele><time>2026-04-28T11:50:30.026Z</time></trkpt><trkpt lat="35.784615" lon="-5.812875"><ele>45.0</ele><time>2026-04-28T11:50:32.026Z</time></trkpt><trkpt lat="35.7846317" lon="-5.8129667"><ele>45.0</ele><time>2026-04-28T11:50:34.025Z</time></trkpt><trkpt lat="35.7846183" lon="-5.8130867"><ele>45.0</ele><time>2026-04-28T11:50:37.026Z</time></trkpt><trkpt lat="35.7845983" lon="-5.81318"><ele>45.0</ele><time>2026-04-28T11:50:39.026Z</time></trkpt><trkpt lat="35.7845817" lon="-5.8132767"><ele>45.0</ele><time>2026-04-28T11:50:41.025Z</time></trkpt><trkpt lat="35.7845717" lon="-5.8133733"><ele>45.0</ele><time>2026-04-28T11:50:43.026Z</time></trkpt><trkpt lat="35.7845367" lon="-5.81347"><ele>45.0</ele><time>2026-04-28T11:50:45.026Z</time></trkpt><trkpt lat="35.78448" lon="-5.813555"><ele>45.0</ele><time>2026-04-28T11:50:47.026Z</time></trkpt><trkpt lat="35.78439" lon="-5.8136"><ele>45.0</ele><time>2026-04-28T11:50:49.026Z</time></trkpt><trkpt lat="35.784325" lon="-5.8136"><ele>45.0</ele><time>2026-04-28T11:50:50.026Z</time></trkpt><trkpt lat="35.7842017" lon="-5.8135783"><ele>45.8</ele><time>2026-04-28T11:50:52.026Z</time></trkpt><trkpt lat="35.7841167" lon="-5.8135283"><ele>46.6</ele><time>2026-04-28T11:50:54.026Z</time></trkpt><trkpt lat="35.784065" lon="-5.8134517"><ele>47.400000000000006</ele><time>2026-04-28T11:50:57.026Z</time></trkpt><trkpt lat="35.7840233" lon="-5.8133567"><ele>48.2</ele><time>2026-04-28T11:51:01.026Z</time></trkpt><trkpt lat="35.7840167" lon="-5.8132633"><ele>49.0</ele><time>2026-04-28T11:51:04.026Z</time></trkpt><trkpt lat="35.783955" lon="-5.8131417"><ele>49.0</ele><time>2026-04-28T11:51:13.026Z</time></trkpt><trkpt lat="35.7839433" lon="-5.8130617"><ele>49.0</ele><time>2026-04-28T11:51:16.026Z</time></trkpt><trkpt lat="35.783945" lon="-5.8129833"><ele>49.0</ele><time>2026-04-28T11:51:19.026Z</time></trkpt><trkpt lat="35.7839917" lon="-5.8129283"><ele>49.0</ele><time>2026-04-28T11:51:22.025Z</time></trkpt><trkpt lat="35.783935" lon="-5.81298"><ele>49.0</ele><time>2026-04-28T11:55:43.025Z</time></trkpt><trkpt lat="35.7838767" lon="-5.8130167"><ele>49.0</ele><time>2026-04-28T11:55:50.024Z</time></trkpt><trkpt lat="35.7839367" lon="-5.8130767"><ele>49.0</ele><time>2026-04-28T11:56:01.024Z</time></trkpt><trkpt lat="35.7839" lon="-5.8130033"><ele>49.0</ele><time>2026-04-28T12:29:17.023Z</time></trkpt><trkpt lat="35.78397" lon="-5.812925"><ele>49.0</ele><time>2026-04-28T12:29:47.023Z</time></trkpt><trkpt lat="35.784065" lon="-5.8128933"><ele>49.0</ele><time>2026-04-28T12:34:20.023Z</time></trkpt><trkpt lat="35.7841533" lon="-5.81286"><ele>49.0</ele><time>2026-04-28T12:35:18.023Z</time></trkpt><trkpt lat="35.78428" lon="-5.81283"><ele>49.0</ele><time>2026-04-28T12:35:38.023Z</time></trkpt><trkpt lat="35.78439" lon="-5.8127883"><ele>48.33333333333333</ele><time>2026-04-28T12:35:52.022Z</time></trkpt><trkpt lat="35.7844533" lon="-5.812757"><ele>47.666666666666664</ele><time>2026-04-28T12:36:22.115Z</time></trkpt><trkpt lat="35.7845338" lon="-5.8127655"><ele>47.0</ele><time>2026-04-28T12:36:35.091Z</time></trkpt><trkpt lat="35.78459" lon="-5.8128083"><ele>46.33333333333333</ele><time>2026-04-28T12:36:43.132Z</time></trkpt><trkpt lat="35.7846088" lon="-5.8128835"><ele>45.666666666666664</ele><time>2026-04-28T12:36:50.175Z</time></trkpt><trkpt lat="35.7846726" lon="-5.8129212"><ele>45.0</ele><time>2026-04-28T12:37:01.077Z</time></trkpt><trkpt lat="35.7848057" lon="-5.8129215"><ele>45.0</ele><time>2026-04-28T12:37:29.065Z</time></trkpt><trkpt lat="35.7848988" lon="-5.8128767"><ele>45.0</ele><time>2026-04-28T12:38:45.154Z</time></trkpt><trkpt lat="35.7849467" lon="-5.8128092"><ele>45.0</ele><time>2026-04-28T12:40:27.977Z</time></trkpt><trkpt lat="35.7850099" lon="-5.8127968"><ele>45.0</ele><time>2026-04-28T12:40:38.131Z</time></trkpt><trkpt lat="35.7849869" lon="-5.8127199"><ele>45.0</ele><time>2026-04-28T12:44:14.134Z</time></trkpt><trkpt lat="35.7849719" lon="-5.8126403"><ele>45.0</ele><time>2026-04-28T12:44:24.075Z</time></trkpt><trkpt lat="35.7849868" lon="-5.8125616"><ele>45.0</ele><time>2026-04-28T12:44:43.987Z</time></trkpt><trkpt lat="35.7850133" lon="-5.8124848"><ele>44.714285714285715</ele><time>2026-04-28T12:45:07.106Z</time></trkpt><trkpt lat="35.7850469" lon="-5.8124175"><ele>44.42857142857143</ele><time>2026-04-28T12:45:16.052Z</time></trkpt><trkpt lat="35.7850863" lon="-5.8123505"><ele>44.142857142857146</ele><time>2026-04-28T12:45:24.093Z</time></trkpt><trkpt lat="35.7851283" lon="-5.812286"><ele>43.85714285714286</ele><time>2026-04-28T12:45:34.045Z</time></trkpt><trkpt lat="35.7851147" lon="-5.8122081"><ele>43.57142857142857</ele><time>2026-04-28T12:47:02.097Z</time></trkpt><trkpt lat="35.7851133" lon="-5.8121298"><ele>43.28571428571429</ele><time>2026-04-28T12:48:46.132Z</time></trkpt><trkpt lat="35.7851202" lon="-5.8120466"><ele>43.0</ele><time>2026-04-28T12:49:23.112Z</time></trkpt><trkpt lat="35.7851133" lon="-5.8119677"><ele>43.0</ele><time>2026-04-28T12:49:40.034Z</time></trkpt><trkpt lat="35.7851538" lon="-5.8119079"><ele>43.0</ele><time>2026-04-28T12:49:51.065Z</time></trkpt><trkpt lat="35.78522" lon="-5.8117983"><ele>43.0</ele><time>2026-04-28T12:49:56.022Z</time></trkpt><trkpt lat="35.7852667" lon="-5.8117183"><ele>43.0</ele><time>2026-04-28T12:50:08.022Z</time></trkpt><trkpt lat="35.7852283" lon="-5.8115933"><ele>43.0</ele><time>2026-04-28T12:50:28.022Z</time></trkpt><trkpt lat="35.7852833" lon="-5.8115217"><ele>43.0</ele><time>2026-04-28T12:50:45.022Z</time></trkpt><trkpt lat="35.7853333" lon="-5.8114017"><ele>41.8</ele><time>2026-04-28T12:51:04.022Z</time></trkpt><trkpt lat="35.7853933" lon="-5.811245"><ele>40.599999999999994</ele><time>2026-04-28T12:52:12.022Z</time></trkpt><trkpt lat="35.7853217" lon="-5.8112767"><ele>39.400000000000006</ele><time>2026-04-28T12:52:55.022Z</time></trkpt><trkpt lat="35.7854317" lon="-5.81125"><ele>38.2</ele><time>2026-04-28T12:53:36.022Z</time></trkpt><trkpt lat="35.7854517" lon="-5.8111583"><ele>37.0</ele><time>2026-04-28T12:53:58.022Z</time></trkpt><trkpt lat="35.7855017" lon="-5.810945"><ele>36.4</ele><time>2026-04-28T12:54:26.022Z</time></trkpt><trkpt lat="35.7855033" lon="-5.8108167"><ele>35.800000000000004</ele><time>2026-04-28T12:54:44.022Z</time></trkpt><trkpt lat="35.7855733" lon="-5.8106917"><ele>35.2</ele><time>2026-04-28T12:55:03.022Z</time></trkpt><trkpt lat="35.78559" lon="-5.8105767"><ele>34.6</ele><time>2026-04-28T12:55:12.022Z</time></trkpt><trkpt lat="35.7854933" lon="-5.8105467"><ele>34.0</ele><time>2026-04-28T12:55:42.022Z</time></trkpt><trkpt lat="35.7855767" lon="-5.8104733"><ele>34.0</ele><time>2026-04-28T12:56:10.022Z</time></trkpt><trkpt lat="35.785525" lon="-5.8105383"><ele>34.0</ele><time>2026-04-28T12:56:33.022Z</time></trkpt><trkpt lat="35.78554" lon="-5.8104333"><ele>34.0</ele><time>2026-04-28T12:57:36.022Z</time></trkpt><trkpt lat="35.78561" lon="-5.810345"><ele>34.0</ele><time>2026-04-28T12:58:07.022Z</time></trkpt><trkpt lat="35.7856917" lon="-5.8102433"><ele>34.0</ele><time>2026-04-28T12:58:21.022Z</time></trkpt><trkpt lat="35.785705" lon="-5.8101583"><ele>34.0</ele><time>2026-04-28T12:59:26.02Z</time></trkpt><trkpt lat="35.7857617" lon="-5.8100967"><ele>33.0</ele><time>2026-04-28T13:00:14.021Z</time></trkpt><trkpt lat="35.7857433" lon="-5.810005"><ele>32.0</ele><time>2026-04-28T13:04:32.021Z</time></trkpt><trkpt lat="35.78583" lon="-5.81"><ele>31.0</ele><time>2026-04-28T13:05:21.021Z</time></trkpt><trkpt lat="35.785805" lon="-5.8099133"><ele>30.0</ele><time>2026-04-28T13:06:41.021Z</time></trkpt><trkpt lat="35.7858183" lon="-5.8097617"><ele>29.0</ele><time>2026-04-28T13:06:55.021Z</time></trkpt><trkpt lat="35.7859433" lon="-5.8096917"><ele>29.0</ele><time>2026-04-28T13:07:14.021Z</time></trkpt><trkpt lat="35.7860067" lon="-5.8095917"><ele>29.0</ele><time>2026-04-28T13:07:33.02Z</time></trkpt><trkpt lat="35.786035" lon="-5.8095183"><ele>29.0</ele><time>2026-04-28T13:07:41.021Z</time></trkpt><trkpt lat="35.7861033" lon="-5.8094183"><ele>29.0</ele><time>2026-04-28T13:08:05.021Z</time></trkpt><trkpt lat="35.7861183" lon="-5.8092883"><ele>29.0</ele><time>2026-04-28T13:08:30.021Z</time></trkpt><trkpt lat="35.7860483" lon="-5.8094533"><ele>29.0</ele><time>2026-04-28T13:28:59.02Z</time></trkpt><trkpt lat="35.78598" lon="-5.8095517"><ele>29.0</ele><time>2026-04-28T13:29:16.02Z</time></trkpt><trkpt lat="35.78593" lon="-5.80967"><ele>29.0</ele><time>2026-04-28T13:29:39.02Z</time></trkpt><trkpt lat="35.78586" lon="-5.8097883"><ele>29.0</ele><time>2026-04-28T13:29:56.02Z</time></trkpt><trkpt lat="35.7857967" lon="-5.8098583"><ele>29.0</ele><time>2026-04-28T13:30:07.019Z</time></trkpt><trkpt lat="35.7857917" lon="-5.8099583"><ele>29.0</ele><time>2026-04-28T13:30:16.02Z</time></trkpt><trkpt lat="35.7857467" lon="-5.81005"><ele>29.0</ele><time>2026-04-28T13:30:25.02Z</time></trkpt><trkpt lat="35.78569" lon="-5.8101767"><ele>29.0</ele><time>2026-04-28T13:36:35.019Z</time></trkpt><trkpt lat="35.7856433" lon="-5.8102783"><ele>29.0</ele><time>2026-04-28T13:37:16.019Z</time></trkpt><trkpt lat="35.785605" lon="-5.81039"><ele>29.0</ele><time>2026-04-28T13:37:31.019Z</time></trkpt><trkpt lat="35.7855667" lon="-5.8105233"><ele>30.0</ele><time>2026-04-28T13:37:48.019Z</time></trkpt><trkpt lat="35.7855833" lon="-5.810645"><ele>31.0</ele><time>2026-04-28T13:38:03.019Z</time></trkpt><trkpt lat="35.785575" lon="-5.8107967"><ele>32.0</ele><time>2026-04-28T13:38:27.019Z</time></trkpt><trkpt lat="35.7855333" lon="-5.81091"><ele>33.0</ele><time>2026-04-28T13:38:46.019Z</time></trkpt><trkpt lat="35.7854467" lon="-5.8109917"><ele>34.0</ele><time>2026-04-28T13:39:02.019Z</time></trkpt><trkpt lat="35.7854217" lon="-5.811105"><ele>34.6</ele><time>2026-04-28T13:39:09.019Z</time></trkpt><trkpt lat="35.7853467" lon="-5.811225"><ele>35.2</ele><time>2026-04-28T13:39:54.019Z</time></trkpt><trkpt lat="35.7853083" lon="-5.8113"><ele>35.800000000000004</ele><time>2026-04-28T13:40:03.019Z</time></trkpt><trkpt lat="35.785285" lon="-5.811435"><ele>36.4</ele><time>2026-04-28T13:40:36.019Z</time></trkpt><trkpt lat="35.7852967" lon="-5.81155"><ele>37.0</ele><time>2026-04-28T13:41:31.019Z</time></trkpt><trkpt lat="35.785295" lon="-5.8116633"><ele>37.0</ele><time>2026-04-28T13:42:09.019Z</time></trkpt><trkpt lat="35.78524" lon="-5.811765"><ele>37.0</ele><time>2026-04-28T13:43:56.019Z</time></trkpt><trkpt lat="35.785195" lon="-5.8118231"><ele>37.0</ele><time>2026-04-28T13:44:12.052Z</time></trkpt><trkpt lat="35.7851738" lon="-5.8119022"><ele>37.0</ele><time>2026-04-28T13:44:20.093Z</time></trkpt><trkpt lat="35.7851239" lon="-5.8119697"><ele>37.0</ele><time>2026-04-28T13:44:29.044Z</time></trkpt><trkpt lat="35.7851013" lon="-5.8120491"><ele>37.0</ele><time>2026-04-28T13:44:37.09Z</time></trkpt><trkpt lat="35.7850799" lon="-5.8121224"><ele>37.0</ele><time>2026-04-28T13:44:46.136Z</time></trkpt><trkpt lat="35.7850839" lon="-5.8122042"><ele>38.0</ele><time>2026-04-28T13:44:54.077Z</time></trkpt><trkpt lat="35.7850832" lon="-5.8122963"><ele>39.0</ele><time>2026-04-28T13:45:06.139Z</time></trkpt><trkpt lat="35.7850501" lon="-5.8123648"><ele>40.0</ele><time>2026-04-28T13:45:11.065Z</time></trkpt><trkpt lat="35.7850378" lon="-5.812442"><ele>41.0</ele><time>2026-04-28T13:46:20.121Z</time></trkpt><trkpt lat="35.7849767" lon="-5.8125467"><ele>42.0</ele><time>2026-04-28T13:48:49.019Z</time></trkpt><trkpt lat="35.7849266" lon="-5.8126027"><ele>43.0</ele><time>2026-04-28T13:49:14.12Z</time></trkpt><trkpt lat="35.7848835" lon="-5.8124885"><ele>43.0</ele><time>2026-04-28T13:49:38.482Z</time></trkpt><trkpt lat="35.7849433" lon="-5.8125539"><ele>43.0</ele><time>2026-04-28T13:49:40.684Z</time></trkpt><trkpt lat="35.7848843" lon="-5.8125174"><ele>43.0</ele><time>2026-04-28T13:50:05.084Z</time></trkpt><trkpt lat="35.7848059" lon="-5.8124864"><ele>43.0</ele><time>2026-04-28T13:50:25.087Z</time></trkpt><trkpt lat="35.7844483" lon="-5.8126938"><ele>45.0</ele><time>2026-04-28T13:50:32.123Z</time></trkpt><trkpt lat="35.7841639" lon="-5.8128866"><ele>47.0</ele><time>2026-04-28T13:50:33.128Z</time></trkpt><trkpt lat="35.7841051" lon="-5.8129221"><ele>49.0</ele><time>2026-04-28T13:50:35.138Z</time></trkpt><trkpt lat="35.7841667" lon="-5.812835"><ele>48.99999999999999</ele><time>2026-04-28T13:55:37.018Z</time></trkpt><trkpt lat="35.7841917" lon="-5.8127367"><ele>49.0</ele><time>2026-04-28T13:55:41.018Z</time></trkpt><trkpt lat="35.7842167" lon="-5.8126483"><ele>49.0</ele><time>2026-04-28T13:55:43.018Z</time></trkpt><trkpt lat="35.7842333" lon="-5.8125417"><ele>49.0</ele><time>2026-04-28T13:55:45.018Z</time></trkpt><trkpt lat="35.7842517" lon="-5.8124283"><ele>48.99999999999999</ele><time>2026-04-28T13:55:47.018Z</time></trkpt><trkpt lat="35.784265" lon="-5.8123433"><ele>49.0</ele><time>2026-04-28T13:55:49.018Z</time></trkpt><trkpt lat="35.7843433" lon="-5.8123517"><ele>48.33333333333333</ele><time>2026-04-28T13:55:54.018Z</time></trkpt><trkpt lat="35.7843767" lon="-5.81242"><ele>47.666666666666664</ele><time>2026-04-28T13:56:00.018Z</time></trkpt><trkpt lat="35.7844333" lon="-5.8124667"><ele>47.0</ele><time>2026-04-28T13:56:05.018Z</time></trkpt><trkpt lat="35.7844983" lon="-5.8125317"><ele>46.33333333333333</ele><time>2026-04-28T13:56:17.017Z</time></trkpt><trkpt lat="35.784555" lon="-5.812625"><ele>45.666666666666664</ele><time>2026-04-28T13:56:20.018Z</time></trkpt><trkpt lat="35.7845783" lon="-5.812715"><ele>45.0</ele><time>2026-04-28T13:56:24.018Z</time></trkpt><trkpt lat="35.7846033" lon="-5.8128"><ele>45.0</ele><time>2026-04-28T13:56:26.018Z</time></trkpt><trkpt lat="35.7846283" lon="-5.81294"><ele>45.0</ele><time>2026-04-28T13:56:28.018Z</time></trkpt><trkpt lat="35.7846317" lon="-5.8130833"><ele>45.0</ele><time>2026-04-28T13:56:30.018Z</time></trkpt><trkpt lat="35.7846117" lon="-5.8132133"><ele>45.0</ele><time>2026-04-28T13:56:32.018Z</time></trkpt><trkpt lat="35.7845917" lon="-5.8132883"><ele>45.0</ele><time>2026-04-28T13:56:34.018Z</time></trkpt><trkpt lat="35.7845617" lon="-5.8133917"><ele>45.166666666666664</ele><time>2026-04-28T13:56:38.018Z</time></trkpt><trkpt lat="35.7845167" lon="-5.813495"><ele>45.333333333333336</ele><time>2026-04-28T13:56:41.018Z</time></trkpt><trkpt lat="35.7844617" lon="-5.813565"><ele>45.5</ele><time>2026-04-28T13:56:43.018Z</time></trkpt><trkpt lat="35.784405" lon="-5.8136333"><ele>45.66666666666667</ele><time>2026-04-28T13:56:45.018Z</time></trkpt><trkpt lat="35.7843667" lon="-5.8137"><ele>45.833333333333336</ele><time>2026-04-28T13:56:47.018Z</time></trkpt><trkpt lat="35.7843333" lon="-5.8137767"><ele>46.0</ele><time>2026-04-28T13:56:49.018Z</time></trkpt><trkpt lat="35.7843017" lon="-5.8138567"><ele>47.0</ele><time>2026-04-28T13:56:51.018Z</time></trkpt><trkpt lat="35.7842633" lon="-5.8139617"><ele>48.0</ele><time>2026-04-28T13:56:53.018Z</time></trkpt><trkpt lat="35.78421" lon="-5.8140533"><ele>49.0</ele><time>2026-04-28T13:56:55.018Z</time></trkpt><trkpt lat="35.7841633" lon="-5.8141467"><ele>50.0</ele><time>2026-04-28T13:56:58.018Z</time></trkpt><trkpt lat="35.7841333" lon="-5.8142317"><ele>51.0</ele><time>2026-04-28T13:57:00.018Z</time></trkpt><trkpt lat="35.7840767" lon="-5.8144017"><ele>52.599999999999994</ele><time>2026-04-28T13:58:16.017Z</time></trkpt><trkpt lat="35.7840333" lon="-5.81448"><ele>54.2</ele><time>2026-04-28T13:58:18.017Z</time></trkpt><trkpt lat="35.783985" lon="-5.81456"><ele>55.800000000000004</ele><time>2026-04-28T13:58:20.017Z</time></trkpt><trkpt lat="35.783935" lon="-5.814675"><ele>57.400000000000006</ele><time>2026-04-28T13:58:29.016Z</time></trkpt><trkpt lat="35.783875" lon="-5.8147683"><ele>59.0</ele><time>2026-04-28T13:58:31.017Z</time></trkpt><trkpt lat="35.783805" lon="-5.8148717"><ele>59.0</ele><time>2026-04-28T13:58:33.017Z</time></trkpt><trkpt lat="35.7837683" lon="-5.814935"><ele>59.00000000000001</ele><time>2026-04-28T13:58:34.016Z</time></trkpt><trkpt lat="35.7837133" lon="-5.8150617"><ele>59.00000000000001</ele><time>2026-04-28T13:58:36.017Z</time></trkpt><trkpt lat="35.7836617" lon="-5.8151867"><ele>59.0</ele><time>2026-04-28T13:58:38.017Z</time></trkpt><trkpt lat="35.7836117" lon="-5.8153317"><ele>59.0</ele><time>2026-04-28T13:58:40.016Z</time></trkpt><trkpt lat="35.78359" lon="-5.815405"><ele>59.50000000000001</ele><time>2026-04-28T13:58:41.017Z</time></trkpt><trkpt lat="35.7835683" lon="-5.8154817"><ele>60.0</ele><time>2026-04-28T13:58:42.017Z</time></trkpt><trkpt lat="35.78355" lon="-5.8155633"><ele>60.5</ele><time>2026-04-28T13:58:43.017Z</time></trkpt><trkpt lat="35.7835183" lon="-5.8157033"><ele>61.0</ele><time>2026-04-28T13:58:45.017Z</time></trkpt><trkpt lat="35.7834983" lon="-5.8157983"><ele>61.50000000000001</ele><time>2026-04-28T13:58:47.017Z</time></trkpt><trkpt lat="35.783465" lon="-5.815885"><ele>62.0</ele><time>2026-04-28T13:58:49.017Z</time></trkpt><trkpt lat="35.7834333" lon="-5.815985"><ele>63.00000000000001</ele><time>2026-04-28T13:58:52.017Z</time></trkpt><trkpt lat="35.783405" lon="-5.816075"><ele>64.0</ele><time>2026-04-28T13:58:55.017Z</time></trkpt><trkpt lat="35.783385" lon="-5.8161633"><ele>65.0</ele><time>2026-04-28T13:58:58.017Z</time></trkpt><trkpt lat="35.783365" lon="-5.8162617"><ele>66.0</ele><time>2026-04-28T13:59:02.017Z</time></trkpt><trkpt lat="35.7833533" lon="-5.8163417"><ele>67.0</ele><time>2026-04-28T13:59:05.017Z</time></trkpt><trkpt lat="35.7833317" lon="-5.81644"><ele>68.0</ele><time>2026-04-28T13:59:08.017Z</time></trkpt><trkpt lat="35.7833017" lon="-5.8165467"><ele>68.0</ele><time>2026-04-28T13:59:11.017Z</time></trkpt><trkpt lat="35.7832617" lon="-5.8166733"><ele>68.0</ele><time>2026-04-28T13:59:14.017Z</time></trkpt><trkpt lat="35.78322" lon="-5.8167867"><ele>68.0</ele><time>2026-04-28T13:59:16.017Z</time></trkpt><trkpt lat="35.78319" lon="-5.81688"><ele>68.0</ele><time>2026-04-28T13:59:18.016Z</time></trkpt><trkpt lat="35.7831667" lon="-5.816955"><ele>68.0</ele><time>2026-04-28T13:59:20.016Z</time></trkpt><trkpt lat="35.7831433" lon="-5.8170367"><ele>68.0</ele><time>2026-04-28T13:59:23.017Z</time></trkpt><trkpt lat="35.78308" lon="-5.817095"><ele>68.4</ele><time>2026-04-28T13:59:26.017Z</time></trkpt><trkpt lat="35.78302" lon="-5.8171467"><ele>68.8</ele><time>2026-04-28T13:59:41.017Z</time></trkpt><trkpt lat="35.7829467" lon="-5.8172367"><ele>69.2</ele><time>2026-04-28T13:59:43.017Z</time></trkpt><trkpt lat="35.78287" lon="-5.8173417"><ele>69.6</ele><time>2026-04-28T13:59:45.017Z</time></trkpt><trkpt lat="35.7827817" lon="-5.8174533"><ele>70.0</ele><time>2026-04-28T13:59:47.017Z</time></trkpt><trkpt lat="35.7826933" lon="-5.817545"><ele>70.66666666666666</ele><time>2026-04-28T13:59:49.017Z</time></trkpt><trkpt lat="35.7826233" lon="-5.8176167"><ele>71.33333333333333</ele><time>2026-04-28T13:59:51.017Z</time></trkpt><trkpt lat="35.7825717" lon="-5.8176783"><ele>72.0</ele><time>2026-04-28T13:59:53.017Z</time></trkpt><trkpt lat="35.7825117" lon="-5.8177283"><ele>72.66666666666667</ele><time>2026-04-28T13:59:55.017Z</time></trkpt><trkpt lat="35.78243" lon="-5.8177917"><ele>73.33333333333334</ele><time>2026-04-28T13:59:57.017Z</time></trkpt><trkpt lat="35.782345" lon="-5.817825"><ele>74.0</ele><time>2026-04-28T13:59:59.017Z</time></trkpt><trkpt lat="35.7822833" lon="-5.817845"><ele>74.33333333333334</ele><time>2026-04-28T14:00:01.017Z</time></trkpt><trkpt lat="35.7821783" lon="-5.8178417"><ele>74.66666666666667</ele><time>2026-04-28T14:00:04.017Z</time></trkpt><trkpt lat="35.7820667" lon="-5.8177967"><ele>75.0</ele><time>2026-04-28T14:00:06.016Z</time></trkpt><trkpt lat="35.7819967" lon="-5.8177583"><ele>75.33333333333333</ele><time>2026-04-28T14:00:07.017Z</time></trkpt><trkpt lat="35.7819317" lon="-5.8177233"><ele>75.66666666666666</ele><time>2026-04-28T14:00:08.017Z</time></trkpt><trkpt lat="35.7818717" lon="-5.8176817"><ele>76.0</ele><time>2026-04-28T14:00:09.016Z</time></trkpt><trkpt lat="35.7818083" lon="-5.8176467"><ele>76.0</ele><time>2026-04-28T14:00:10.017Z</time></trkpt><trkpt lat="35.7817" lon="-5.8175783"><ele>76.0</ele><time>2026-04-28T14:00:12.017Z</time></trkpt><trkpt lat="35.7815783" lon="-5.8175267"><ele>76.0</ele><time>2026-04-28T14:00:14.016Z</time></trkpt><trkpt lat="35.7814817" lon="-5.8174817"><ele>76.0</ele><time>2026-04-28T14:00:16.017Z</time></trkpt><trkpt lat="35.7814167" lon="-5.8174417"><ele>76.0</ele><time>2026-04-28T14:00:18.017Z</time></trkpt><trkpt lat="35.78134" lon="-5.81734"><ele>76.0</ele><time>2026-04-28T14:00:53.017Z</time></trkpt><trkpt lat="35.7812433" lon="-5.8172917"><ele>76.0</ele><time>2026-04-28T14:00:55.017Z</time></trkpt><trkpt lat="35.7811467" lon="-5.8172317"><ele>76.0</ele><time>2026-04-28T14:00:57.017Z</time></trkpt><trkpt lat="35.7811" lon="-5.8171783"><ele>76.0</ele><time>2026-04-28T14:00:58.017Z</time></trkpt><trkpt lat="35.7810617" lon="-5.8171133"><ele>76.0</ele><time>2026-04-28T14:00:59.017Z</time></trkpt><trkpt lat="35.78102" lon="-5.817055"><ele>76.0</ele><time>2026-04-28T14:01:00.017Z</time></trkpt><trkpt lat="35.78096" lon="-5.8169133"><ele>76.14285714285714</ele><time>2026-04-28T14:01:02.017Z</time></trkpt><trkpt lat="35.7809433" lon="-5.8168333"><ele>76.28571428571429</ele><time>2026-04-28T14:01:03.017Z</time></trkpt><trkpt lat="35.7809317" lon="-5.8167483"><ele>76.42857142857143</ele><time>2026-04-28T14:01:04.017Z</time></trkpt><trkpt lat="35.78092" lon="-5.81666"><ele>76.57142857142857</ele><time>2026-04-28T14:01:05.016Z</time></trkpt><trkpt lat="35.7809067" lon="-5.81657"><ele>76.71428571428572</ele><time>2026-04-28T14:01:06.017Z</time></trkpt><trkpt lat="35.7808917" lon="-5.8164833"><ele>76.85714285714286</ele><time>2026-04-28T14:01:07.017Z</time></trkpt><trkpt lat="35.78088" lon="-5.8164017"><ele>77.0</ele><time>2026-04-28T14:01:08.017Z</time></trkpt><trkpt lat="35.7808683" lon="-5.8163133"><ele>77.14285714285714</ele><time>2026-04-28T14:01:09.017Z</time></trkpt><trkpt lat="35.780865" lon="-5.8162217"><ele>77.28571428571428</ele><time>2026-04-28T14:01:10.017Z</time></trkpt><trkpt lat="35.780855" lon="-5.8161333"><ele>77.42857142857143</ele><time>2026-04-28T14:01:11.017Z</time></trkpt><trkpt lat="35.78085" lon="-5.8160533"><ele>77.57142857142857</ele><time>2026-04-28T14:01:12.017Z</time></trkpt><trkpt lat="35.7808417" lon="-5.815975"><ele>77.71428571428571</ele><time>2026-04-28T14:01:13.016Z</time></trkpt><trkpt lat="35.7808317" lon="-5.8158917"><ele>77.85714285714286</ele><time>2026-04-28T14:01:14.017Z</time></trkpt><trkpt lat="35.78082" lon="-5.8158033"><ele>78.0</ele><time>2026-04-28T14:01:15.017Z</time></trkpt><trkpt lat="35.7808067" lon="-5.8157117"><ele>79.0</ele><time>2026-04-28T14:01:16.017Z</time></trkpt><trkpt lat="35.7807933" lon="-5.81563"><ele>80.0</ele><time>2026-04-28T14:01:17.017Z</time></trkpt><trkpt lat="35.7807883" lon="-5.8155483"><ele>81.0</ele><time>2026-04-28T14:01:18.016Z</time></trkpt><trkpt lat="35.78078" lon="-5.815425"><ele>82.0</ele><time>2026-04-28T14:01:20.017Z</time></trkpt><trkpt lat="35.780765" lon="-5.8153383"><ele>83.0</ele><time>2026-04-28T14:01:22.017Z</time></trkpt><trkpt lat="35.78076" lon="-5.8152583"><ele>84.0</ele><time>2026-04-28T14:01:24.017Z</time></trkpt><trkpt lat="35.7807483" lon="-5.8151617"><ele>83.0</ele><time>2026-04-28T14:01:28.017Z</time></trkpt><trkpt lat="35.780685" lon="-5.815095"><ele>82.0</ele><time>2026-04-28T14:01:38.017Z</time></trkpt><trkpt lat="35.780655" lon="-5.8149783"><ele>81.0</ele><time>2026-04-28T14:01:41.017Z</time></trkpt><trkpt lat="35.78064" lon="-5.8148983"><ele>80.0</ele><time>2026-04-28T14:01:43.017Z</time></trkpt><trkpt lat="35.7806117" lon="-5.8148233"><ele>79.0</ele><time>2026-04-28T14:01:47.017Z</time></trkpt><trkpt lat="35.7805883" lon="-5.81474"><ele>78.0</ele><time>2026-04-28T14:01:56.017Z</time></trkpt><trkpt lat="35.7805883" lon="-5.8146517"><ele>78.0</ele><time>2026-04-28T14:01:59.017Z</time></trkpt><trkpt lat="35.7805833" lon="-5.81457"><ele>78.0</ele><time>2026-04-28T14:02:02.017Z</time></trkpt><trkpt lat="35.7805933" lon="-5.814475"><ele>78.0</ele><time>2026-04-28T14:02:06.017Z</time></trkpt><trkpt lat="35.78059" lon="-5.814395"><ele>78.0</ele><time>2026-04-28T14:02:09.016Z</time></trkpt><trkpt lat="35.780575" lon="-5.8142933"><ele>78.0</ele><time>2026-04-28T14:02:13.016Z</time></trkpt><trkpt lat="35.7805717" lon="-5.8142017"><ele>78.0</ele><time>2026-04-28T14:02:16.017Z</time></trkpt><trkpt lat="35.7805717" lon="-5.8140983"><ele>77.16666666666667</ele><time>2026-04-28T14:02:19.017Z</time></trkpt><trkpt lat="35.7805683" lon="-5.81399"><ele>76.33333333333333</ele><time>2026-04-28T14:02:22.017Z</time></trkpt><trkpt lat="35.78055" lon="-5.813885"><ele>75.5</ele><time>2026-04-28T14:02:25.017Z</time></trkpt><trkpt lat="35.7805467" lon="-5.813795"><ele>74.66666666666666</ele><time>2026-04-28T14:02:28.017Z</time></trkpt><trkpt lat="35.780545" lon="-5.8136917"><ele>73.83333333333333</ele><time>2026-04-28T14:02:32.016Z</time></trkpt><trkpt lat="35.7805783" lon="-5.81358"><ele>73.0</ele><time>2026-04-28T14:02:35.016Z</time></trkpt><trkpt lat="35.7806" lon="-5.813485"><ele>72.42857142857143</ele><time>2026-04-28T14:02:37.016Z</time></trkpt><trkpt lat="35.78063" lon="-5.8134017"><ele>71.85714285714286</ele><time>2026-04-28T14:02:39.016Z</time></trkpt><trkpt lat="35.780645" lon="-5.8133167"><ele>71.28571428571429</ele><time>2026-04-28T14:02:42.016Z</time></trkpt><trkpt lat="35.780675" lon="-5.8132383"><ele>70.71428571428572</ele><time>2026-04-28T14:02:46.016Z</time></trkpt><trkpt lat="35.7807067" lon="-5.813165"><ele>70.14285714285715</ele><time>2026-04-28T14:02:49.016Z</time></trkpt><trkpt lat="35.7807167" lon="-5.8130833"><ele>69.57142857142857</ele><time>2026-04-28T14:02:51.016Z</time></trkpt><trkpt lat="35.78075" lon="-5.8129683"><ele>69.0</ele><time>2026-04-28T14:02:53.016Z</time></trkpt><trkpt lat="35.7807717" lon="-5.8128783"><ele>69.0</ele><time>2026-04-28T14:02:55.016Z</time></trkpt><trkpt lat="35.7808017" lon="-5.8128017"><ele>69.0</ele><time>2026-04-28T14:02:57.016Z</time></trkpt><trkpt lat="35.7808317" lon="-5.8127117"><ele>69.0</ele><time>2026-04-28T14:02:59.016Z</time></trkpt><trkpt lat="35.78084" lon="-5.812615"><ele>69.0</ele><time>2026-04-28T14:03:02.016Z</time></trkpt><trkpt lat="35.7808583" lon="-5.8125267"><ele>69.0</ele><time>2026-04-28T14:03:04.015Z</time></trkpt><trkpt lat="35.780875" lon="-5.812435"><ele>69.0</ele><time>2026-04-28T14:03:06.016Z</time></trkpt><trkpt lat="35.7809117" lon="-5.8122467"><ele>68.66666666666667</ele><time>2026-04-28T14:03:24.016Z</time></trkpt><trkpt lat="35.7808567" lon="-5.8121367"><ele>68.33333333333333</ele><time>2026-04-28T14:03:34.016Z</time></trkpt><trkpt lat="35.7808167" lon="-5.8120333"><ele>68.0</ele><time>2026-04-28T14:03:37.016Z</time></trkpt><trkpt lat="35.78078" lon="-5.8119583"><ele>67.66666666666666</ele><time>2026-04-28T14:03:39.016Z</time></trkpt><trkpt lat="35.780745" lon="-5.8118733"><ele>67.33333333333333</ele><time>2026-04-28T14:03:43.016Z</time></trkpt><trkpt lat="35.7807217" lon="-5.8117917"><ele>67.0</ele><time>2026-04-28T14:03:47.016Z</time></trkpt><trkpt lat="35.7806917" lon="-5.8117217"><ele>66.33333333333333</ele><time>2026-04-28T14:03:50.016Z</time></trkpt><trkpt lat="35.7806567" lon="-5.8116467"><ele>65.66666666666666</ele><time>2026-04-28T14:03:53.016Z</time></trkpt><trkpt lat="35.7806317" lon="-5.81153"><ele>65.0</ele><time>2026-04-28T14:04:14.016Z</time></trkpt><trkpt lat="35.7805883" lon="-5.8114567"><ele>64.33333333333333</ele><time>2026-04-28T14:04:19.016Z</time></trkpt><trkpt lat="35.7805483" lon="-5.8113733"><ele>63.666666666666664</ele><time>2026-04-28T14:04:21.016Z</time></trkpt><trkpt lat="35.7805167" lon="-5.811305"><ele>63.0</ele><time>2026-04-28T14:04:22.016Z</time></trkpt><trkpt lat="35.7804867" lon="-5.81121"><ele>63.0</ele><time>2026-04-28T14:04:23.016Z</time></trkpt><trkpt lat="35.78046" lon="-5.8111067"><ele>63.0</ele><time>2026-04-28T14:04:24.016Z</time></trkpt><trkpt lat="35.7804517" lon="-5.8110033"><ele>63.0</ele><time>2026-04-28T14:04:25.016Z</time></trkpt><trkpt lat="35.78044" lon="-5.8109033"><ele>63.0</ele><time>2026-04-28T14:04:26.016Z</time></trkpt><trkpt lat="35.7804217" lon="-5.810805"><ele>63.0</ele><time>2026-04-28T14:04:27.016Z</time></trkpt><trkpt lat="35.7803983" lon="-5.8107133"><ele>63.0</ele><time>2026-04-28T14:04:28.016Z</time></trkpt><trkpt lat="35.7803667" lon="-5.8106317"><ele>62.8</ele><time>2026-04-28T14:04:29.016Z</time></trkpt><trkpt lat="35.7803333" lon="-5.8105167"><ele>62.599999999999994</ele><time>2026-04-28T14:04:31.016Z</time></trkpt><trkpt lat="35.7803117" lon="-5.8104417"><ele>62.400000000000006</ele><time>2026-04-28T14:04:34.016Z</time></trkpt><trkpt lat="35.7802717" lon="-5.810325"><ele>62.2</ele><time>2026-04-28T14:04:37.016Z</time></trkpt><trkpt lat="35.7802267" lon="-5.810215"><ele>62.0</ele><time>2026-04-28T14:04:39.016Z</time></trkpt><trkpt lat="35.7801767" lon="-5.8100883"><ele>63.400000000000006</ele><time>2026-04-28T14:04:41.016Z</time></trkpt><trkpt lat="35.7801167" lon="-5.8099533"><ele>64.80000000000001</ele><time>2026-04-28T14:04:43.016Z</time></trkpt><trkpt lat="35.7800633" lon="-5.8098083"><ele>66.2</ele><time>2026-04-28T14:04:45.016Z</time></trkpt><trkpt lat="35.7800333" lon="-5.8097333"><ele>67.60000000000001</ele><time>2026-04-28T14:04:46.016Z</time></trkpt><trkpt lat="35.780005" lon="-5.809655"><ele>69.0</ele><time>2026-04-28T14:04:47.016Z</time></trkpt><trkpt lat="35.77998" lon="-5.8095817"><ele>69.0</ele><time>2026-04-28T14:04:48.016Z</time></trkpt><trkpt lat="35.7799583" lon="-5.8095017"><ele>69.0</ele><time>2026-04-28T14:04:49.016Z</time></trkpt><trkpt lat="35.77993" lon="-5.8094217"><ele>69.0</ele><time>2026-04-28T14:04:50.016Z</time></trkpt><trkpt lat="35.7799117" lon="-5.8093283"><ele>69.0</ele><time>2026-04-28T14:04:51.015Z</time></trkpt><trkpt lat="35.7798933" lon="-5.80923"><ele>69.0</ele><time>2026-04-28T14:04:52.016Z</time></trkpt><trkpt lat="35.7798767" lon="-5.8091333"><ele>69.0</ele><time>2026-04-28T14:04:53.016Z</time></trkpt><trkpt lat="35.7798517" lon="-5.8090383"><ele>68.5</ele><time>2026-04-28T14:04:54.016Z</time></trkpt><trkpt lat="35.7798283" lon="-5.8089533"><ele>68.0</ele><time>2026-04-28T14:04:55.016Z</time></trkpt><trkpt lat="35.7798033" lon="-5.8088767"><ele>67.5</ele><time>2026-04-28T14:04:56.016Z</time></trkpt><trkpt lat="35.77977" lon="-5.80876"><ele>67.0</ele><time>2026-04-28T14:04:58.016Z</time></trkpt><trkpt lat="35.7796983" lon="-5.808705"><ele>66.5</ele><time>2026-04-28T14:05:01.016Z</time></trkpt><trkpt lat="35.779685" lon="-5.8086233"><ele>66.0</ele><time>2026-04-28T14:05:12.015Z</time></trkpt><trkpt lat="35.7797317" lon="-5.808535"><ele>64.16666666666667</ele><time>2026-04-28T14:05:15.016Z</time></trkpt><trkpt lat="35.77979" lon="-5.808445"><ele>62.33333333333333</ele><time>2026-04-28T14:05:18.015Z</time></trkpt><trkpt lat="35.7798317" lon="-5.808375"><ele>60.5</ele><time>2026-04-28T14:05:20.016Z</time></trkpt><trkpt lat="35.7798767" lon="-5.8083133"><ele>58.666666666666664</ele><time>2026-04-28T14:05:22.015Z</time></trkpt><trkpt lat="35.7799183" lon="-5.80822"><ele>56.83333333333333</ele><time>2026-04-28T14:05:25.015Z</time></trkpt><trkpt lat="35.77996" lon="-5.80813"><ele>55.0</ele><time>2026-04-28T14:05:28.016Z</time></trkpt><trkpt lat="35.7800033" lon="-5.8080567"><ele>54.99999999999999</ele><time>2026-04-28T14:05:32.015Z</time></trkpt><trkpt lat="35.7800633" lon="-5.8079767"><ele>55.0</ele><time>2026-04-28T14:05:42.016Z</time></trkpt><trkpt lat="35.7801167" lon="-5.80791"><ele>55.0</ele><time>2026-04-28T14:05:44.016Z</time></trkpt><trkpt lat="35.7801633" lon="-5.8078233"><ele>55.0</ele><time>2026-04-28T14:05:46.016Z</time></trkpt><trkpt lat="35.7801933" lon="-5.8077267"><ele>54.99999999999999</ele><time>2026-04-28T14:05:48.016Z</time></trkpt><trkpt lat="35.7802283" lon="-5.8076417"><ele>55.0</ele><time>2026-04-28T14:05:50.016Z</time></trkpt><trkpt lat="35.7802567" lon="-5.80757"><ele>51.14285714285714</ele><time>2026-04-28T14:05:52.016Z</time></trkpt><trkpt lat="35.7802967" lon="-5.8074817"><ele>47.285714285714285</ele><time>2026-04-28T14:05:55.016Z</time></trkpt><trkpt lat="35.7803433" lon="-5.8074067"><ele>43.42857142857143</ele><time>2026-04-28T14:05:59.016Z</time></trkpt><trkpt lat="35.7803467" lon="-5.8073267"><ele>39.57142857142857</ele><time>2026-04-28T14:06:02.016Z</time></trkpt><trkpt lat="35.7803167" lon="-5.807255"><ele>35.714285714285715</ele><time>2026-04-28T14:06:04.016Z</time></trkpt><trkpt lat="35.7803133" lon="-5.8071733"><ele>31.857142857142858</ele><time>2026-04-28T14:06:06.016Z</time></trkpt><trkpt lat="35.780335" lon="-5.8070783"><ele>28.0</ele><time>2026-04-28T14:06:08.016Z</time></trkpt><trkpt lat="35.7803517" lon="-5.8069933"><ele>28.000000000000004</ele><time>2026-04-28T14:06:10.016Z</time></trkpt><trkpt lat="35.7804017" lon="-5.80687"><ele>28.0</ele><time>2026-04-28T14:06:12.015Z</time></trkpt><trkpt lat="35.7804217" lon="-5.8067917"><ele>28.0</ele><time>2026-04-28T14:06:13.016Z</time></trkpt><trkpt lat="35.7804433" lon="-5.806675"><ele>28.0</ele><time>2026-04-28T14:06:15.016Z</time></trkpt><trkpt lat="35.78048" lon="-5.8065767"><ele>28.000000000000004</ele><time>2026-04-28T14:06:17.016Z</time></trkpt><trkpt lat="35.7805167" lon="-5.8065083"><ele>28.0</ele><time>2026-04-28T14:06:19.016Z</time></trkpt><trkpt lat="35.7805717" lon="-5.8064267"><ele>26.500000000000004</ele><time>2026-04-28T14:06:21.016Z</time></trkpt><trkpt lat="35.7806367" lon="-5.8063483"><ele>25.0</ele><time>2026-04-28T14:06:23.016Z</time></trkpt><trkpt lat="35.78069" lon="-5.8062633"><ele>23.5</ele><time>2026-04-28T14:06:25.016Z</time></trkpt><trkpt lat="35.7807433" lon="-5.806195"><ele>22.0</ele><time>2026-04-28T14:06:27.015Z</time></trkpt><trkpt lat="35.780785" lon="-5.806125"><ele>20.5</ele><time>2026-04-28T14:06:29.016Z</time></trkpt><trkpt lat="35.7808333" lon="-5.8060533"><ele>19.0</ele><time>2026-04-28T14:06:33.016Z</time></trkpt><trkpt lat="35.7808517" lon="-5.8059767"><ele>18.5</ele><time>2026-04-28T14:06:36.016Z</time></trkpt><trkpt lat="35.7808567" lon="-5.8058983"><ele>18.0</ele><time>2026-04-28T14:06:38.016Z</time></trkpt><trkpt lat="35.7808283" lon="-5.8058267"><ele>17.5</ele><time>2026-04-28T14:06:40.016Z</time></trkpt><trkpt lat="35.7807683" lon="-5.8057333"><ele>17.0</ele><time>2026-04-28T14:06:43.016Z</time></trkpt><trkpt lat="35.7807017" lon="-5.80563"><ele>16.5</ele><time>2026-04-28T14:06:45.016Z</time></trkpt><trkpt lat="35.780625" lon="-5.805525"><ele>16.0</ele><time>2026-04-28T14:06:47.015Z</time></trkpt><trkpt lat="35.78058" lon="-5.8054567"><ele>16.0</ele><time>2026-04-28T14:06:48.015Z</time></trkpt><trkpt lat="35.7805367" lon="-5.8053683"><ele>16.0</ele><time>2026-04-28T14:06:49.015Z</time></trkpt><trkpt lat="35.78049" lon="-5.8052717"><ele>16.0</ele><time>2026-04-28T14:06:50.015Z</time></trkpt><trkpt lat="35.780445" lon="-5.8051583"><ele>16.0</ele><time>2026-04-28T14:06:51.015Z</time></trkpt><trkpt lat="35.7803983" lon="-5.8050417"><ele>16.0</ele><time>2026-04-28T14:06:52.015Z</time></trkpt><trkpt lat="35.7803367" lon="-5.804935"><ele>14.200000000000001</ele><time>2026-04-28T14:06:53.015Z</time></trkpt><trkpt lat="35.780295" lon="-5.8048283"><ele>12.400000000000002</ele><time>2026-04-28T14:06:54.015Z</time></trkpt><trkpt lat="35.7802567" lon="-5.8047167"><ele>10.6</ele><time>2026-04-28T14:06:55.015Z</time></trkpt><trkpt lat="35.7802117" lon="-5.80461"><ele>8.8</ele><time>2026-04-28T14:06:56.015Z</time></trkpt><trkpt lat="35.7801567" lon="-5.8045133"><ele>7.0</ele><time>2026-04-28T14:06:57.015Z</time></trkpt><trkpt lat="35.7801033" lon="-5.8044167"><ele>8.6</ele><time>2026-04-28T14:06:58.015Z</time></trkpt><trkpt lat="35.780065" lon="-5.804305"><ele>10.2</ele><time>2026-04-28T14:06:59.015Z</time></trkpt><trkpt lat="35.78003" lon="-5.8041983"><ele>11.8</ele><time>2026-04-28T14:07:00.015Z</time></trkpt><trkpt lat="35.779985" lon="-5.8040917"><ele>13.4</ele><time>2026-04-28T14:07:01.015Z</time></trkpt><trkpt lat="35.7799367" lon="-5.8039833"><ele>15.0</ele><time>2026-04-28T14:07:02.015Z</time></trkpt><trkpt lat="35.779885" lon="-5.8038867"><ele>15.0</ele><time>2026-04-28T14:07:03.015Z</time></trkpt><trkpt lat="35.7798283" lon="-5.8037883"><ele>15.0</ele><time>2026-04-28T14:07:04.015Z</time></trkpt><trkpt lat="35.779785" lon="-5.80369"><ele>15.0</ele><time>2026-04-28T14:07:05.015Z</time></trkpt><trkpt lat="35.77974" lon="-5.8035967"><ele>15.0</ele><time>2026-04-28T14:07:06.015Z</time></trkpt><trkpt lat="35.77969" lon="-5.8035133"><ele>15.0</ele><time>2026-04-28T14:07:07.015Z</time></trkpt><trkpt lat="35.779645" lon="-5.80343"><ele>15.0</ele><time>2026-04-28T14:07:08.015Z</time></trkpt><trkpt lat="35.7795967" lon="-5.80336"><ele>13.833333333333334</ele><time>2026-04-28T14:07:09.015Z</time></trkpt><trkpt lat="35.7795267" lon="-5.80326"><ele>12.666666666666666</ele><time>2026-04-28T14:07:11.015Z</time></trkpt><trkpt lat="35.7794617" lon="-5.8032067"><ele>11.5</ele><time>2026-04-28T14:07:14.014Z</time></trkpt><trkpt lat="35.7794183" lon="-5.8031417"><ele>10.333333333333332</ele><time>2026-04-28T14:07:17.015Z</time></trkpt><trkpt lat="35.779385" lon="-5.8030717"><ele>9.166666666666666</ele><time>2026-04-28T14:07:20.015Z</time></trkpt><trkpt lat="35.77933" lon="-5.8029967"><ele>8.0</ele><time>2026-04-28T14:07:23.015Z</time></trkpt><trkpt lat="35.77928" lon="-5.802915"><ele>8.5</ele><time>2026-04-28T14:07:27.015Z</time></trkpt><trkpt lat="35.7792283" lon="-5.80286"><ele>9.0</ele><time>2026-04-28T14:07:29.015Z</time></trkpt><trkpt lat="35.7791867" lon="-5.802795"><ele>9.5</ele><time>2026-04-28T14:07:31.014Z</time></trkpt><trkpt lat="35.77917" lon="-5.8026967"><ele>10.0</ele><time>2026-04-28T14:07:33.015Z</time></trkpt><trkpt lat="35.7791433" lon="-5.8025783"><ele>10.5</ele><time>2026-04-28T14:07:35.015Z</time></trkpt><trkpt lat="35.7790967" lon="-5.80244"><ele>11.0</ele><time>2026-04-28T14:07:37.015Z</time></trkpt><trkpt lat="35.7790617" lon="-5.8023733"><ele>11.0</ele><time>2026-04-28T14:07:38.015Z</time></trkpt><trkpt lat="35.77902" lon="-5.802295"><ele>11.0</ele><time>2026-04-28T14:07:39.015Z</time></trkpt><trkpt lat="35.7789783" lon="-5.80221"><ele>11.0</ele><time>2026-04-28T14:07:40.015Z</time></trkpt><trkpt lat="35.7789433" lon="-5.802125"><ele>11.0</ele><time>2026-04-28T14:07:41.015Z</time></trkpt><trkpt lat="35.7788967" lon="-5.8020383"><ele>11.0</ele><time>2026-04-28T14:07:42.015Z</time></trkpt><trkpt lat="35.7788383" lon="-5.8019533"><ele>11.0</ele><time>2026-04-28T14:07:43.015Z</time></trkpt><trkpt lat="35.7788017" lon="-5.801845"><ele>9.600000000000001</ele><time>2026-04-28T14:07:44.015Z</time></trkpt><trkpt lat="35.7787633" lon="-5.8017383"><ele>8.200000000000001</ele><time>2026-04-28T14:07:45.015Z</time></trkpt><trkpt lat="35.7787283" lon="-5.801625"><ele>6.800000000000001</ele><time>2026-04-28T14:07:46.014Z</time></trkpt><trkpt lat="35.7786783" lon="-5.8015067"><ele>5.4</ele><time>2026-04-28T14:07:47.015Z</time></trkpt><trkpt lat="35.7786217" lon="-5.80138"><ele>4.0</ele><time>2026-04-28T14:07:48.015Z</time></trkpt><trkpt lat="35.77856" lon="-5.8012433"><ele>5.0</ele><time>2026-04-28T14:07:49.015Z</time></trkpt><trkpt lat="35.7785017" lon="-5.8010933"><ele>6.0</ele><time>2026-04-28T14:07:50.014Z</time></trkpt><trkpt lat="35.7784333" lon="-5.8009383"><ele>7.0</ele><time>2026-04-28T14:07:51.015Z</time></trkpt><trkpt lat="35.778365" lon="-5.8007917"><ele>8.0</ele><time>2026-04-28T14:07:52.015Z</time></trkpt><trkpt lat="35.7782917" lon="-5.8006617"><ele>8.0</ele><time>2026-04-28T14:07:53.015Z</time></trkpt><trkpt lat="35.7782133" lon="-5.8005417"><ele>8.0</ele><time>2026-04-28T14:07:54.015Z</time></trkpt><trkpt lat="35.7781383" lon="-5.8004167"><ele>8.0</ele><time>2026-04-28T14:07:55.015Z</time></trkpt><trkpt lat="35.77808" lon="-5.8002817"><ele>8.0</ele><time>2026-04-28T14:07:56.014Z</time></trkpt><trkpt lat="35.778" lon="-5.800155"><ele>8.0</ele><time>2026-04-28T14:07:57.015Z</time></trkpt><trkpt lat="35.7779283" lon="-5.8000317"><ele>8.0</ele><time>2026-04-28T14:07:58.015Z</time></trkpt><trkpt lat="35.7778633" lon="-5.79992"><ele>8.0</ele><time>2026-04-28T14:07:59.015Z</time></trkpt><trkpt lat="35.7778033" lon="-5.7998167"><ele>8.0</ele><time>2026-04-28T14:08:00.015Z</time></trkpt><trkpt lat="35.7777383" lon="-5.79972"><ele>8.0</ele><time>2026-04-28T14:08:01.015Z</time></trkpt><trkpt lat="35.77769" lon="-5.799635"><ele>7.999999999999999</ele><time>2026-04-28T14:08:02.015Z</time></trkpt><trkpt lat="35.7776517" lon="-5.79955"><ele>8.0</ele><time>2026-04-28T14:08:03.015Z</time></trkpt><trkpt lat="35.7776067" lon="-5.7994767"><ele>8.0</ele><time>2026-04-28T14:08:04.015Z</time></trkpt><trkpt lat="35.7775667" lon="-5.799395"><ele>8.0</ele><time>2026-04-28T14:08:05.015Z</time></trkpt><trkpt lat="35.7775283" lon="-5.7993033"><ele>7.999999999999999</ele><time>2026-04-28T14:08:06.015Z</time></trkpt><trkpt lat="35.777495" lon="-5.7992083"><ele>8.0</ele><time>2026-04-28T14:08:07.015Z</time></trkpt><trkpt lat="35.7774717" lon="-5.799105"><ele>7.999999999999999</ele><time>2026-04-28T14:08:08.015Z</time></trkpt><trkpt lat="35.7774333" lon="-5.799005"><ele>8.0</ele><time>2026-04-28T14:08:09.015Z</time></trkpt><trkpt lat="35.777405" lon="-5.7989067"><ele>8.0</ele><time>2026-04-28T14:08:10.015Z</time></trkpt><trkpt lat="35.777375" lon="-5.7988017"><ele>8.0</ele><time>2026-04-28T14:08:11.015Z</time></trkpt><trkpt lat="35.777345" lon="-5.7986983"><ele>7.999999999999999</ele><time>2026-04-28T14:08:12.015Z</time></trkpt><trkpt lat="35.777305" lon="-5.7985933"><ele>8.0</ele><time>2026-04-28T14:08:13.015Z</time></trkpt><trkpt lat="35.7772683" lon="-5.7984867"><ele>7.4</ele><time>2026-04-28T14:08:14.015Z</time></trkpt><trkpt lat="35.7772333" lon="-5.7983717"><ele>6.800000000000001</ele><time>2026-04-28T14:08:15.015Z</time></trkpt><trkpt lat="35.7771933" lon="-5.798245"><ele>6.2</ele><time>2026-04-28T14:08:16.015Z</time></trkpt><trkpt lat="35.77715" lon="-5.798115"><ele>5.6</ele><time>2026-04-28T14:08:17.015Z</time></trkpt><trkpt lat="35.7771067" lon="-5.7979817"><ele>5.0</ele><time>2026-04-28T14:08:18.015Z</time></trkpt><trkpt lat="35.7770667" lon="-5.797835"><ele>5.0</ele><time>2026-04-28T14:08:19.015Z</time></trkpt><trkpt lat="35.77702" lon="-5.797695"><ele>5.0</ele><time>2026-04-28T14:08:20.015Z</time></trkpt><trkpt lat="35.7769533" lon="-5.7975583"><ele>5.0</ele><time>2026-04-28T14:08:21.015Z</time></trkpt><trkpt lat="35.7769017" lon="-5.79741"><ele>5.0</ele><time>2026-04-28T14:08:22.015Z</time></trkpt><trkpt lat="35.7768617" lon="-5.797255"><ele>5.75</ele><time>2026-04-28T14:08:23.015Z</time></trkpt><trkpt lat="35.7768217" lon="-5.7971083"><ele>6.5</ele><time>2026-04-28T14:08:24.015Z</time></trkpt><trkpt lat="35.7767833" lon="-5.7969683"><ele>7.25</ele><time>2026-04-28T14:08:25.015Z</time></trkpt><trkpt lat="35.7767317" lon="-5.7968283"><ele>8.0</ele><time>2026-04-28T14:08:26.015Z</time></trkpt><trkpt lat="35.7766767" lon="-5.7966883"><ele>8.0</ele><time>2026-04-28T14:08:27.014Z</time></trkpt><trkpt lat="35.7766267" lon="-5.7965567"><ele>8.0</ele><time>2026-04-28T14:08:28.015Z</time></trkpt><trkpt lat="35.7765767" lon="-5.79642"><ele>8.0</ele><time>2026-04-28T14:08:29.015Z</time></trkpt><trkpt lat="35.7765383" lon="-5.7962817"><ele>8.0</ele><time>2026-04-28T14:08:30.015Z</time></trkpt><trkpt lat="35.7764917" lon="-5.79614"><ele>7.0</ele><time>2026-04-28T14:08:31.015Z</time></trkpt><trkpt lat="35.77644" lon="-5.795995"><ele>6.0</ele><time>2026-04-28T14:08:32.015Z</time></trkpt><trkpt lat="35.7763867" lon="-5.795855"><ele>5.0</ele><time>2026-04-28T14:08:33.015Z</time></trkpt><trkpt lat="35.776325" lon="-5.7957033"><ele>4.0</ele><time>2026-04-28T14:08:34.014Z</time></trkpt><trkpt lat="35.77627" lon="-5.7955483"><ele>4.0</ele><time>2026-04-28T14:08:35.015Z</time></trkpt><trkpt lat="35.776215" lon="-5.7953817"><ele>4.0</ele><time>2026-04-28T14:08:36.015Z</time></trkpt><trkpt lat="35.7761683" lon="-5.79521"><ele>4.0</ele><time>2026-04-28T14:08:37.015Z</time></trkpt><trkpt lat="35.7761267" lon="-5.7950283"><ele>4.0</ele><time>2026-04-28T14:08:38.015Z</time></trkpt><trkpt lat="35.77607" lon="-5.794855"><ele>4.333333333333333</ele><time>2026-04-28T14:08:39.015Z</time></trkpt><trkpt lat="35.7760117" lon="-5.79468"><ele>4.666666666666667</ele><time>2026-04-28T14:08:40.015Z</time></trkpt><trkpt lat="35.7759533" lon="-5.794505"><ele>5.0</ele><time>2026-04-28T14:08:41.015Z</time></trkpt><trkpt lat="35.77589" lon="-5.794335"><ele>5.0</ele><time>2026-04-28T14:08:42.015Z</time></trkpt><trkpt lat="35.77582" lon="-5.794175"><ele>5.0</ele><time>2026-04-28T14:08:43.015Z</time></trkpt><trkpt lat="35.7757583" lon="-5.79402"><ele>5.0</ele><time>2026-04-28T14:08:44.015Z</time></trkpt><trkpt lat="35.775705" lon="-5.7938633"><ele>5.0</ele><time>2026-04-28T14:08:45.015Z</time></trkpt><trkpt lat="35.7756717" lon="-5.7937167"><ele>5.0</ele><time>2026-04-28T14:08:46.015Z</time></trkpt><trkpt lat="35.7756217" lon="-5.7935767"><ele>5.0</ele><time>2026-04-28T14:08:47.015Z</time></trkpt><trkpt lat="35.77557" lon="-5.7934467"><ele>5.0</ele><time>2026-04-28T14:08:48.015Z</time></trkpt><trkpt lat="35.775525" lon="-5.7933283"><ele>5.0</ele><time>2026-04-28T14:08:49.015Z</time></trkpt><trkpt lat="35.7754717" lon="-5.7932167"><ele>5.166666666666667</ele><time>2026-04-28T14:08:50.015Z</time></trkpt><trkpt lat="35.77543" lon="-5.7931267"><ele>5.333333333333334</ele><time>2026-04-28T14:08:51.014Z</time></trkpt><trkpt lat="35.7753967" lon="-5.793055"><ele>5.5</ele><time>2026-04-28T14:08:52.015Z</time></trkpt><trkpt lat="35.7753433" lon="-5.7929483"><ele>5.666666666666667</ele><time>2026-04-28T14:08:54.015Z</time></trkpt><trkpt lat="35.775285" lon="-5.79283"><ele>5.833333333333333</ele><time>2026-04-28T14:08:56.015Z</time></trkpt><trkpt lat="35.77525" lon="-5.7927567"><ele>6.0</ele><time>2026-04-28T14:08:57.015Z</time></trkpt><trkpt lat="35.775215" lon="-5.79266"><ele>6.0</ele><time>2026-04-28T14:08:58.015Z</time></trkpt><trkpt lat="35.7751933" lon="-5.792555"><ele>6.0</ele><time>2026-04-28T14:08:59.015Z</time></trkpt><trkpt lat="35.7751767" lon="-5.7924417"><ele>6.0</ele><time>2026-04-28T14:09:00.015Z</time></trkpt><trkpt lat="35.7751733" lon="-5.7923233"><ele>6.0</ele><time>2026-04-28T14:09:01.015Z</time></trkpt><trkpt lat="35.775175" lon="-5.7921917"><ele>6.0</ele><time>2026-04-28T14:09:02.015Z</time></trkpt><trkpt lat="35.7751833" lon="-5.7920517"><ele>6.0</ele><time>2026-04-28T14:09:03.015Z</time></trkpt><trkpt lat="35.7751917" lon="-5.7919217"><ele>6.0</ele><time>2026-04-28T14:09:04.015Z</time></trkpt><trkpt lat="35.77519" lon="-5.791785"><ele>6.0</ele><time>2026-04-28T14:09:05.015Z</time></trkpt><trkpt lat="35.7751867" lon="-5.7916483"><ele>6.0</ele><time>2026-04-28T14:09:06.015Z</time></trkpt><trkpt lat="35.7751833" lon="-5.79151"><ele>6.0</ele><time>2026-04-28T14:09:07.015Z</time></trkpt><trkpt lat="35.7751817" lon="-5.7913633"><ele>5.75</ele><time>2026-04-28T14:09:08.015Z</time></trkpt><trkpt lat="35.77519" lon="-5.7912"><ele>5.5</ele><time>2026-04-28T14:09:09.015Z</time></trkpt><trkpt lat="35.7752017" lon="-5.79102"><ele>5.25</ele><time>2026-04-28T14:09:10.015Z</time></trkpt><trkpt lat="35.7752183" lon="-5.7908317"><ele>5.0</ele><time>2026-04-28T14:09:11.015Z</time></trkpt><trkpt lat="35.77523" lon="-5.7906317"><ele>5.0</ele><time>2026-04-28T14:09:12.015Z</time></trkpt><trkpt lat="35.7752517" lon="-5.79045"><ele>5.0</ele><time>2026-04-28T14:09:13.015Z</time></trkpt><trkpt lat="35.7752633" lon="-5.79027"><ele>5.0</ele><time>2026-04-28T14:09:14.015Z</time></trkpt><trkpt lat="35.77528" lon="-5.7900967"><ele>5.0</ele><time>2026-04-28T14:09:15.015Z</time></trkpt><trkpt lat="35.775315" lon="-5.78993"><ele>5.0</ele><time>2026-04-28T14:09:16.015Z</time></trkpt><trkpt lat="35.7753317" lon="-5.789775"><ele>5.0</ele><time>2026-04-28T14:09:17.015Z</time></trkpt><trkpt lat="35.7753367" lon="-5.7896367"><ele>5.0</ele><time>2026-04-28T14:09:18.015Z</time></trkpt><trkpt lat="35.7753417" lon="-5.789505"><ele>5.0</ele><time>2026-04-28T14:09:19.015Z</time></trkpt><trkpt lat="35.7753533" lon="-5.78938"><ele>5.0</ele><time>2026-04-28T14:09:20.015Z</time></trkpt><trkpt lat="35.7753667" lon="-5.7892517"><ele>4.5</ele><time>2026-04-28T14:09:21.015Z</time></trkpt><trkpt lat="35.7753717" lon="-5.789135"><ele>4.0</ele><time>2026-04-28T14:09:22.015Z</time></trkpt><trkpt lat="35.7753783" lon="-5.7890317"><ele>3.5</ele><time>2026-04-28T14:09:23.015Z</time></trkpt><trkpt lat="35.775375" lon="-5.7889533"><ele>3.0</ele><time>2026-04-28T14:09:24.015Z</time></trkpt><trkpt lat="35.7753617" lon="-5.7888167"><ele>2.5</ele><time>2026-04-28T14:09:26.015Z</time></trkpt><trkpt lat="35.7753617" lon="-5.78871"><ele>2.0</ele><time>2026-04-28T14:09:28.015Z</time></trkpt><trkpt lat="35.7753683" lon="-5.7886067"><ele>1.9999999999999998</ele><time>2026-04-28T14:09:30.015Z</time></trkpt><trkpt lat="35.7753833" lon="-5.7885083"><ele>2.0</ele><time>2026-04-28T14:09:32.015Z</time></trkpt><trkpt lat="35.7753933" lon="-5.7884117"><ele>2.0</ele><time>2026-04-28T14:09:38.015Z</time></trkpt><trkpt lat="35.7754133" lon="-5.7883367"><ele>2.0</ele><time>2026-04-28T14:09:40.015Z</time></trkpt><trkpt lat="35.7754267" lon="-5.7882467"><ele>1.9999999999999998</ele><time>2026-04-28T14:09:41.015Z</time></trkpt><trkpt lat="35.7754317" lon="-5.7881217"><ele>2.0</ele><time>2026-04-28T14:09:42.015Z</time></trkpt><trkpt lat="35.77543" lon="-5.787975"><ele>2.0</ele><time>2026-04-28T14:09:43.015Z</time></trkpt><trkpt lat="35.7754167" lon="-5.7878183"><ele>2.0</ele><time>2026-04-28T14:09:44.015Z</time></trkpt><trkpt lat="35.7754017" lon="-5.7876717"><ele>2.0</ele><time>2026-04-28T14:09:45.015Z</time></trkpt><trkpt lat="35.775385" lon="-5.787545"><ele>2.0</ele><time>2026-04-28T14:09:46.014Z</time></trkpt><trkpt lat="35.775365" lon="-5.7874217"><ele>2.2</ele><time>2026-04-28T14:09:47.015Z</time></trkpt><trkpt lat="35.7753433" lon="-5.787305"><ele>2.4000000000000004</ele><time>2026-04-28T14:09:48.015Z</time></trkpt><trkpt lat="35.7753167" lon="-5.78719"><ele>2.5999999999999996</ele><time>2026-04-28T14:09:49.015Z</time></trkpt><trkpt lat="35.7752867" lon="-5.787075"><ele>2.8</ele><time>2026-04-28T14:09:50.015Z</time></trkpt><trkpt lat="35.7752583" lon="-5.7869633"><ele>3.0</ele><time>2026-04-28T14:09:51.015Z</time></trkpt><trkpt lat="35.775225" lon="-5.78685"><ele>3.4</ele><time>2026-04-28T14:09:52.014Z</time></trkpt><trkpt lat="35.7751967" lon="-5.7867317"><ele>3.8</ele><time>2026-04-28T14:09:53.015Z</time></trkpt><trkpt lat="35.7751617" lon="-5.7866117"><ele>4.2</ele><time>2026-04-28T14:09:54.015Z</time></trkpt><trkpt lat="35.7751267" lon="-5.7864917"><ele>4.6</ele><time>2026-04-28T14:09:55.015Z</time></trkpt><trkpt lat="35.7750883" lon="-5.78637"><ele>5.0</ele><time>2026-04-28T14:09:56.015Z</time></trkpt><trkpt lat="35.7750483" lon="-5.78624"><ele>5.0</ele><time>2026-04-28T14:09:57.015Z</time></trkpt><trkpt lat="35.7749983" lon="-5.7861167"><ele>5.0</ele><time>2026-04-28T14:09:58.015Z</time></trkpt><trkpt lat="35.774955" lon="-5.7859917"><ele>5.0</ele><time>2026-04-28T14:09:59.015Z</time></trkpt><trkpt lat="35.7749183" lon="-5.785865"><ele>5.0</ele><time>2026-04-28T14:10:00.015Z</time></trkpt><trkpt lat="35.7748783" lon="-5.7857417"><ele>5.0</ele><time>2026-04-28T14:10:01.015Z</time></trkpt><trkpt lat="35.7748417" lon="-5.78562"><ele>5.0</ele><time>2026-04-28T14:10:02.015Z</time></trkpt><trkpt lat="35.7748033" lon="-5.7854933"><ele>5.0</ele><time>2026-04-28T14:10:03.014Z</time></trkpt><trkpt lat="35.7747733" lon="-5.785365"><ele>5.0</ele><time>2026-04-28T14:10:04.015Z</time></trkpt><trkpt lat="35.7747467" lon="-5.785235"><ele>5.0</ele><time>2026-04-28T14:10:05.015Z</time></trkpt><trkpt lat="35.7747183" lon="-5.7851033"><ele>5.0</ele><time>2026-04-28T14:10:06.015Z</time></trkpt><trkpt lat="35.7746933" lon="-5.78497"><ele>6.0</ele><time>2026-04-28T14:10:07.015Z</time></trkpt><trkpt lat="35.7746733" lon="-5.784835"><ele>7.0</ele><time>2026-04-28T14:10:08.015Z</time></trkpt><trkpt lat="35.7746567" lon="-5.7846967"><ele>8.0</ele><time>2026-04-28T14:10:09.015Z</time></trkpt><trkpt lat="35.7746367" lon="-5.7845633"><ele>9.0</ele><time>2026-04-28T14:10:10.015Z</time></trkpt><trkpt lat="35.7746283" lon="-5.78442"><ele>10.0</ele><time>2026-04-28T14:10:11.015Z</time></trkpt><trkpt lat="35.7746167" lon="-5.7842817"><ele>11.0</ele><time>2026-04-28T14:10:12.015Z</time></trkpt><trkpt lat="35.7746033" lon="-5.784145"><ele>12.0</ele><time>2026-04-28T14:10:13.014Z</time></trkpt><trkpt lat="35.77459" lon="-5.7840083"><ele>13.0</ele><time>2026-04-28T14:10:14.015Z</time></trkpt><trkpt lat="35.7745767" lon="-5.7838683"><ele>13.0</ele><time>2026-04-28T14:10:15.015Z</time></trkpt><trkpt lat="35.774575" lon="-5.783725"><ele>13.0</ele><time>2026-04-28T14:10:16.015Z</time></trkpt><trkpt lat="35.7745733" lon="-5.783585"><ele>13.0</ele><time>2026-04-28T14:10:17.015Z</time></trkpt><trkpt lat="35.77457" lon="-5.7834517"><ele>13.0</ele><time>2026-04-28T14:10:18.015Z</time></trkpt><trkpt lat="35.774565" lon="-5.78331"><ele>11.0</ele><time>2026-04-28T14:10:19.015Z</time></trkpt><trkpt lat="35.7745633" lon="-5.78317"><ele>9.0</ele><time>2026-04-28T14:10:20.015Z</time></trkpt><trkpt lat="35.7745667" lon="-5.7830333"><ele>7.0</ele><time>2026-04-28T14:10:21.015Z</time></trkpt><trkpt lat="35.77458" lon="-5.7828933"><ele>5.0</ele><time>2026-04-28T14:10:22.015Z</time></trkpt><trkpt lat="35.77459" lon="-5.782755"><ele>5.0</ele><time>2026-04-28T14:10:23.015Z</time></trkpt><trkpt lat="35.7746083" lon="-5.782615"><ele>5.0</ele><time>2026-04-28T14:10:24.015Z</time></trkpt><trkpt lat="35.7746233" lon="-5.7824683"><ele>5.0</ele><time>2026-04-28T14:10:25.015Z</time></trkpt><trkpt lat="35.7746433" lon="-5.782325"><ele>5.0</ele><time>2026-04-28T14:10:26.015Z</time></trkpt><trkpt lat="35.7746667" lon="-5.7821783"><ele>5.0</ele><time>2026-04-28T14:10:27.015Z</time></trkpt><trkpt lat="35.7746883" lon="-5.7820417"><ele>5.0</ele><time>2026-04-28T14:10:28.015Z</time></trkpt><trkpt lat="35.7747133" lon="-5.7819067"><ele>5.0</ele><time>2026-04-28T14:10:29.015Z</time></trkpt><trkpt lat="35.7747417" lon="-5.781775"><ele>5.0</ele><time>2026-04-28T14:10:30.015Z</time></trkpt><trkpt lat="35.7747683" lon="-5.7816467"><ele>5.0</ele><time>2026-04-28T14:10:31.015Z</time></trkpt><trkpt lat="35.7748017" lon="-5.781515"><ele>4.75</ele><time>2026-04-28T14:10:32.014Z</time></trkpt><trkpt lat="35.7748483" lon="-5.781375"><ele>4.5</ele><time>2026-04-28T14:10:33.015Z</time></trkpt><trkpt lat="35.77489" lon="-5.7812383"><ele>4.25</ele><time>2026-04-28T14:10:34.015Z</time></trkpt><trkpt lat="35.7749383" lon="-5.7810933"><ele>4.0</ele><time>2026-04-28T14:10:35.015Z</time></trkpt><trkpt lat="35.7749833" lon="-5.78095"><ele>4.0</ele><time>2026-04-28T14:10:36.015Z</time></trkpt><trkpt lat="35.7750283" lon="-5.7808033"><ele>4.0</ele><time>2026-04-28T14:10:37.015Z</time></trkpt><trkpt lat="35.7750767" lon="-5.78065"><ele>4.0</ele><time>2026-04-28T14:10:38.015Z</time></trkpt><trkpt lat="35.775125" lon="-5.78049"><ele>4.0</ele><time>2026-04-28T14:10:39.015Z</time></trkpt><trkpt lat="35.7751867" lon="-5.780325"><ele>3.75</ele><time>2026-04-28T14:10:40.014Z</time></trkpt><trkpt lat="35.7752633" lon="-5.780165"><ele>3.5</ele><time>2026-04-28T14:10:41.014Z</time></trkpt><trkpt lat="35.775345" lon="-5.7800117"><ele>3.25</ele><time>2026-04-28T14:10:42.015Z</time></trkpt><trkpt lat="35.775425" lon="-5.7798567"><ele>3.0</ele><time>2026-04-28T14:10:43.015Z</time></trkpt><trkpt lat="35.7755083" lon="-5.7797133"><ele>3.0</ele><time>2026-04-28T14:10:44.015Z</time></trkpt><trkpt lat="35.7755967" lon="-5.779565"><ele>3.0</ele><time>2026-04-28T14:10:45.015Z</time></trkpt><trkpt lat="35.7756883" lon="-5.7794167"><ele>3.0</ele><time>2026-04-28T14:10:46.015Z</time></trkpt><trkpt lat="35.775775" lon="-5.779265"><ele>3.0</ele><time>2026-04-28T14:10:47.015Z</time></trkpt><trkpt lat="35.7758717" lon="-5.77911"><ele>3.0</ele><time>2026-04-28T14:10:48.015Z</time></trkpt><trkpt lat="35.7759717" lon="-5.7789583"><ele>3.0</ele><time>2026-04-28T14:10:49.015Z</time></trkpt><trkpt lat="35.7760767" lon="-5.7788217"><ele>2.6666666666666665</ele><time>2026-04-28T14:10:50.015Z</time></trkpt><trkpt lat="35.7761783" lon="-5.7786833"><ele>2.333333333333333</ele><time>2026-04-28T14:10:51.015Z</time></trkpt><trkpt lat="35.7762783" lon="-5.7785433"><ele>2.0</ele><time>2026-04-28T14:10:52.015Z</time></trkpt><trkpt lat="35.776375" lon="-5.7784017"><ele>2.0</ele><time>2026-04-28T14:10:53.015Z</time></trkpt><trkpt lat="35.776465" lon="-5.7782633"><ele>2.0</ele><time>2026-04-28T14:10:54.015Z</time></trkpt><trkpt lat="35.7765417" lon="-5.778115"><ele>2.0</ele><time>2026-04-28T14:10:55.015Z</time></trkpt><trkpt lat="35.77663" lon="-5.7779733"><ele>2.0</ele><time>2026-04-28T14:10:56.015Z</time></trkpt><trkpt lat="35.7767133" lon="-5.7778317"><ele>2.0</ele><time>2026-04-28T14:10:57.015Z</time></trkpt><trkpt lat="35.7767983" lon="-5.7776933"><ele>2.0</ele><time>2026-04-28T14:10:58.015Z</time></trkpt><trkpt lat="35.776885" lon="-5.77756"><ele>2.0</ele><time>2026-04-28T14:10:59.015Z</time></trkpt><trkpt lat="35.7769667" lon="-5.77742"><ele>2.0</ele><time>2026-04-28T14:11:00.015Z</time></trkpt><trkpt lat="35.77704" lon="-5.777275"><ele>2.25</ele><time>2026-04-28T14:11:01.015Z</time></trkpt><trkpt lat="35.7771117" lon="-5.77713"><ele>2.5</ele><time>2026-04-28T14:11:02.015Z</time></trkpt><trkpt lat="35.7771833" lon="-5.7769867"><ele>2.75</ele><time>2026-04-28T14:11:03.015Z</time></trkpt><trkpt lat="35.77725" lon="-5.7768433"><ele>3.0</ele><time>2026-04-28T14:11:04.015Z</time></trkpt><trkpt lat="35.77732" lon="-5.7766917"><ele>3.0</ele><time>2026-04-28T14:11:05.015Z</time></trkpt><trkpt lat="35.7773933" lon="-5.7765467"><ele>3.0</ele><time>2026-04-28T14:11:06.015Z</time></trkpt><trkpt lat="35.7774633" lon="-5.7764033"><ele>3.0</ele><time>2026-04-28T14:11:07.014Z</time></trkpt><trkpt lat="35.777535" lon="-5.7762583"><ele>3.0</ele><time>2026-04-28T14:11:08.014Z</time></trkpt><trkpt lat="35.7775983" lon="-5.7761083"><ele>3.0</ele><time>2026-04-28T14:11:09.014Z</time></trkpt><trkpt lat="35.7776617" lon="-5.7759583"><ele>3.0</ele><time>2026-04-28T14:11:10.014Z</time></trkpt><trkpt lat="35.7777317" lon="-5.7758083"><ele>3.0</ele><time>2026-04-28T14:11:11.014Z</time></trkpt><trkpt lat="35.7778017" lon="-5.7756667"><ele>3.0</ele><time>2026-04-28T14:11:12.014Z</time></trkpt><trkpt lat="35.77786" lon="-5.7755217"><ele>3.0</ele><time>2026-04-28T14:11:13.014Z</time></trkpt><trkpt lat="35.777915" lon="-5.7753867"><ele>3.0</ele><time>2026-04-28T14:11:14.014Z</time></trkpt><trkpt lat="35.7779633" lon="-5.7752483"><ele>3.0</ele><time>2026-04-28T14:11:15.014Z</time></trkpt><trkpt lat="35.7780167" lon="-5.7751267"><ele>3.0</ele><time>2026-04-28T14:11:16.013Z</time></trkpt><trkpt lat="35.778085" lon="-5.7750183"><ele>3.0</ele><time>2026-04-28T14:11:17.014Z</time></trkpt><trkpt lat="35.77817" lon="-5.7749117"><ele>3.0</ele><time>2026-04-28T14:11:18.014Z</time></trkpt><trkpt lat="35.7782567" lon="-5.7747967"><ele>3.0</ele><time>2026-04-28T14:11:19.014Z</time></trkpt><trkpt lat="35.77834" lon="-5.7746717"><ele>3.0</ele><time>2026-04-28T14:11:20.014Z</time></trkpt><trkpt lat="35.7784267" lon="-5.774535"><ele>3.0</ele><time>2026-04-28T14:11:21.014Z</time></trkpt><trkpt lat="35.7785117" lon="-5.7743883"><ele>3.0</ele><time>2026-04-28T14:11:22.014Z</time></trkpt><trkpt lat="35.7785933" lon="-5.7742417"><ele>3.0</ele><time>2026-04-28T14:11:23.014Z</time></trkpt><trkpt lat="35.7786783" lon="-5.77409"><ele>3.0</ele><time>2026-04-28T14:11:24.013Z</time></trkpt><trkpt lat="35.7787633" lon="-5.7739367"><ele>3.333333333333333</ele><time>2026-04-28T14:11:25.014Z</time></trkpt><trkpt lat="35.7788417" lon="-5.77376"><ele>3.6666666666666665</ele><time>2026-04-28T14:11:26.013Z</time></trkpt><trkpt lat="35.77893" lon="-5.7735983"><ele>4.0</ele><time>2026-04-28T14:11:27.013Z</time></trkpt><trkpt lat="35.7790183" lon="-5.7734317"><ele>4.0</ele><time>2026-04-28T14:11:28.013Z</time></trkpt><trkpt lat="35.7791117" lon="-5.7732717"><ele>4.0</ele><time>2026-04-28T14:11:29.014Z</time></trkpt><trkpt lat="35.7792067" lon="-5.773105"><ele>4.0</ele><time>2026-04-28T14:11:30.014Z</time></trkpt><trkpt lat="35.7793" lon="-5.7729417"><ele>3.333333333333333</ele><time>2026-04-28T14:11:31.014Z</time></trkpt><trkpt lat="35.7793933" lon="-5.77278"><ele>2.6666666666666665</ele><time>2026-04-28T14:11:32.014Z</time></trkpt><trkpt lat="35.7794783" lon="-5.7726183"><ele>2.0</ele><time>2026-04-28T14:11:33.014Z</time></trkpt><trkpt lat="35.7795633" lon="-5.7724517"><ele>2.0</ele><time>2026-04-28T14:11:34.014Z</time></trkpt><trkpt lat="35.779655" lon="-5.772285"><ele>2.0</ele><time>2026-04-28T14:11:35.014Z</time></trkpt><trkpt lat="35.77975" lon="-5.7721183"><ele>2.0</ele><time>2026-04-28T14:11:36.014Z</time></trkpt><trkpt lat="35.7798417" lon="-5.7719633"><ele>2.333333333333333</ele><time>2026-04-28T14:11:37.014Z</time></trkpt><trkpt lat="35.7799283" lon="-5.7718033"><ele>2.6666666666666665</ele><time>2026-04-28T14:11:38.014Z</time></trkpt><trkpt lat="35.7800167" lon="-5.7716317"><ele>3.0</ele><time>2026-04-28T14:11:39.013Z</time></trkpt><trkpt lat="35.780105" lon="-5.7714583"><ele>2.6666666666666665</ele><time>2026-04-28T14:11:40.014Z</time></trkpt><trkpt lat="35.780195" lon="-5.7712967"><ele>2.333333333333333</ele><time>2026-04-28T14:11:41.014Z</time></trkpt><trkpt lat="35.780285" lon="-5.771135"><ele>2.0</ele><time>2026-04-28T14:11:42.014Z</time></trkpt><trkpt lat="35.7803733" lon="-5.7709717"><ele>2.0</ele><time>2026-04-28T14:11:43.014Z</time></trkpt><trkpt lat="35.78046" lon="-5.7707967"><ele>2.0</ele><time>2026-04-28T14:11:44.013Z</time></trkpt><trkpt lat="35.7805483" lon="-5.7706317"><ele>2.0</ele><time>2026-04-28T14:11:45.014Z</time></trkpt><trkpt lat="35.780635" lon="-5.7704633"><ele>2.0</ele><time>2026-04-28T14:11:46.014Z</time></trkpt><trkpt lat="35.7807217" lon="-5.7703"><ele>2.0</ele><time>2026-04-28T14:11:47.013Z</time></trkpt><trkpt lat="35.780805" lon="-5.77013"><ele>2.0</ele><time>2026-04-28T14:11:48.014Z</time></trkpt><trkpt lat="35.7808917" lon="-5.769965"><ele>2.0</ele><time>2026-04-28T14:11:49.014Z</time></trkpt><trkpt lat="35.78098" lon="-5.7697967"><ele>2.0</ele><time>2026-04-28T14:11:50.014Z</time></trkpt><trkpt lat="35.7810617" lon="-5.7696283"><ele>2.0</ele><time>2026-04-28T14:11:51.014Z</time></trkpt><trkpt lat="35.7811433" lon="-5.7694583"><ele>1.3333333333333333</ele><time>2026-04-28T14:11:52.014Z</time></trkpt><trkpt lat="35.78122" lon="-5.7692883"><ele>0.6666666666666666</ele><time>2026-04-28T14:11:53.014Z</time></trkpt><trkpt lat="35.7813" lon="-5.7691117"><ele>0.0</ele><time>2026-04-28T14:11:54.014Z</time></trkpt><trkpt lat="35.781375" lon="-5.7689383"><ele>0.0</ele><time>2026-04-28T14:11:55.014Z</time></trkpt><trkpt lat="35.78145" lon="-5.76878"><ele>0.0</ele><time>2026-04-28T14:11:56.014Z</time></trkpt><trkpt lat="35.7815233" lon="-5.76863"><ele>0.0</ele><time>2026-04-28T14:11:57.014Z</time></trkpt><trkpt lat="35.781595" lon="-5.7684833"><ele>0.0</ele><time>2026-04-28T14:11:58.013Z</time></trkpt><trkpt lat="35.7816633" lon="-5.7683417"><ele>0.0</ele><time>2026-04-28T14:11:59.014Z</time></trkpt><trkpt lat="35.7817317" lon="-5.7682017"><ele>0.0</ele><time>2026-04-28T14:12:00.014Z</time></trkpt><trkpt lat="35.7818017" lon="-5.7680683"><ele>0.0</ele><time>2026-04-28T14:12:01.014Z</time></trkpt><trkpt lat="35.781865" lon="-5.7679367"><ele>0.0</ele><time>2026-04-28T14:12:02.014Z</time></trkpt><trkpt lat="35.7819167" lon="-5.7678117"><ele>0.6</ele><time>2026-04-28T14:12:03.014Z</time></trkpt><trkpt lat="35.7819667" lon="-5.7676867"><ele>1.2</ele><time>2026-04-28T14:12:04.014Z</time></trkpt><trkpt lat="35.7820083" lon="-5.7675733"><ele>1.7999999999999998</ele><time>2026-04-28T14:12:05.014Z</time></trkpt><trkpt lat="35.7820383" lon="-5.7674517"><ele>2.4</ele><time>2026-04-28T14:12:06.014Z</time></trkpt><trkpt lat="35.782075" lon="-5.767335"><ele>3.0</ele><time>2026-04-28T14:12:07.014Z</time></trkpt><trkpt lat="35.782125" lon="-5.76722"><ele>3.0</ele><time>2026-04-28T14:12:08.014Z</time></trkpt><trkpt lat="35.7821983" lon="-5.767105"><ele>3.0</ele><time>2026-04-28T14:12:09.014Z</time></trkpt><trkpt lat="35.7822767" lon="-5.7669817"><ele>3.0</ele><time>2026-04-28T14:12:10.014Z</time></trkpt><trkpt lat="35.7823567" lon="-5.766845"><ele>3.0</ele><time>2026-04-28T14:12:11.014Z</time></trkpt><trkpt lat="35.78244" lon="-5.76669"><ele>3.25</ele><time>2026-04-28T14:12:12.014Z</time></trkpt><trkpt lat="35.7825233" lon="-5.7665333"><ele>3.5</ele><time>2026-04-28T14:12:13.014Z</time></trkpt><trkpt lat="35.782605" lon="-5.7663883"><ele>3.75</ele><time>2026-04-28T14:12:14.014Z</time></trkpt><trkpt lat="35.7826883" lon="-5.766245"><ele>4.0</ele><time>2026-04-28T14:12:15.014Z</time></trkpt><trkpt lat="35.7827617" lon="-5.7661067"><ele>4.0</ele><time>2026-04-28T14:12:16.014Z</time></trkpt><trkpt lat="35.7828267" lon="-5.7659683"><ele>4.0</ele><time>2026-04-28T14:12:17.014Z</time></trkpt><trkpt lat="35.7828933" lon="-5.7658183"><ele>4.0</ele><time>2026-04-28T14:12:18.014Z</time></trkpt><trkpt lat="35.782965" lon="-5.7656767"><ele>4.0</ele><time>2026-04-28T14:12:19.014Z</time></trkpt><trkpt lat="35.7830433" lon="-5.76554"><ele>4.0</ele><time>2026-04-28T14:12:20.014Z</time></trkpt><trkpt lat="35.7831133" lon="-5.7654067"><ele>4.0</ele><time>2026-04-28T14:12:21.014Z</time></trkpt><trkpt lat="35.7831967" lon="-5.7652667"><ele>4.0</ele><time>2026-04-28T14:12:22.014Z</time></trkpt><trkpt lat="35.7832733" lon="-5.76513"><ele>4.0</ele><time>2026-04-28T14:12:23.014Z</time></trkpt><trkpt lat="35.7833533" lon="-5.76499"><ele>4.25</ele><time>2026-04-28T14:12:24.013Z</time></trkpt><trkpt lat="35.7834233" lon="-5.764845"><ele>4.5</ele><time>2026-04-28T14:12:25.013Z</time></trkpt><trkpt lat="35.783495" lon="-5.7647133"><ele>4.75</ele><time>2026-04-28T14:12:26.013Z</time></trkpt><trkpt lat="35.7835667" lon="-5.7645817"><ele>5.0</ele><time>2026-04-28T14:12:27.014Z</time></trkpt><trkpt lat="35.783645" lon="-5.76445"><ele>6.0</ele><time>2026-04-28T14:12:28.014Z</time></trkpt><trkpt lat="35.7837133" lon="-5.7643067"><ele>7.0</ele><time>2026-04-28T14:12:29.014Z</time></trkpt><trkpt lat="35.7837967" lon="-5.7641683"><ele>8.0</ele><time>2026-04-28T14:12:30.014Z</time></trkpt><trkpt lat="35.7838683" lon="-5.7640283"><ele>9.0</ele><time>2026-04-28T14:12:31.014Z</time></trkpt><trkpt lat="35.7839367" lon="-5.76389"><ele>9.0</ele><time>2026-04-28T14:12:32.014Z</time></trkpt><trkpt lat="35.784" lon="-5.7637433"><ele>9.0</ele><time>2026-04-28T14:12:33.014Z</time></trkpt><trkpt lat="35.784065" lon="-5.7635983"><ele>9.0</ele><time>2026-04-28T14:12:34.014Z</time></trkpt><trkpt lat="35.7841317" lon="-5.76345"><ele>9.0</ele><time>2026-04-28T14:12:35.014Z</time></trkpt><trkpt lat="35.7841967" lon="-5.7632983"><ele>8.25</ele><time>2026-04-28T14:12:36.014Z</time></trkpt><trkpt lat="35.7842617" lon="-5.76315"><ele>7.5</ele><time>2026-04-28T14:12:37.013Z</time></trkpt><trkpt lat="35.7843317" lon="-5.76301"><ele>6.75</ele><time>2026-04-28T14:12:38.013Z</time></trkpt><trkpt lat="35.7844033" lon="-5.7628683"><ele>6.0</ele><time>2026-04-28T14:12:39.014Z</time></trkpt><trkpt lat="35.7844733" lon="-5.7627167"><ele>5.0</ele><time>2026-04-28T14:12:40.014Z</time></trkpt><trkpt lat="35.7845417" lon="-5.7625667"><ele>4.0</ele><time>2026-04-28T14:12:41.014Z</time></trkpt><trkpt lat="35.7846083" lon="-5.76242"><ele>3.0</ele><time>2026-04-28T14:12:42.014Z</time></trkpt><trkpt lat="35.7846633" lon="-5.7622767"><ele>2.0</ele><time>2026-04-28T14:12:43.014Z</time></trkpt><trkpt lat="35.7847217" lon="-5.7621383"><ele>2.0</ele><time>2026-04-28T14:12:44.014Z</time></trkpt><trkpt lat="35.784775" lon="-5.7620067"><ele>2.0</ele><time>2026-04-28T14:12:45.014Z</time></trkpt><trkpt lat="35.7848233" lon="-5.7618867"><ele>2.0</ele><time>2026-04-28T14:12:46.014Z</time></trkpt><trkpt lat="35.78486" lon="-5.76177"><ele>2.0</ele><time>2026-04-28T14:12:47.014Z</time></trkpt><trkpt lat="35.7848883" lon="-5.7616683"><ele>2.0</ele><time>2026-04-28T14:12:48.014Z</time></trkpt><trkpt lat="35.7849217" lon="-5.76159"><ele>2.4000000000000004</ele><time>2026-04-28T14:12:49.014Z</time></trkpt><trkpt lat="35.7850083" lon="-5.7615067"><ele>2.8000000000000003</ele><time>2026-04-28T14:12:51.014Z</time></trkpt><trkpt lat="35.7850817" lon="-5.7614933"><ele>3.2</ele><time>2026-04-28T14:12:52.014Z</time></trkpt><trkpt lat="35.7851717" lon="-5.7615083"><ele>3.6</ele><time>2026-04-28T14:12:53.014Z</time></trkpt><trkpt lat="35.7852817" lon="-5.76151"><ele>4.0</ele><time>2026-04-28T14:12:54.014Z</time></trkpt><trkpt lat="35.78539" lon="-5.7615017"><ele>4.0</ele><time>2026-04-28T14:12:55.014Z</time></trkpt><trkpt lat="35.7854917" lon="-5.7614767"><ele>4.0</ele><time>2026-04-28T14:12:56.014Z</time></trkpt><trkpt lat="35.7855983" lon="-5.761425"><ele>4.0</ele><time>2026-04-28T14:12:57.013Z</time></trkpt><trkpt lat="35.7857067" lon="-5.7613683"><ele>4.0</ele><time>2026-04-28T14:12:58.014Z</time></trkpt><trkpt lat="35.785805" lon="-5.7613167"><ele>4.0</ele><time>2026-04-28T14:12:59.013Z</time></trkpt><trkpt lat="35.785895" lon="-5.761255"><ele>4.0</ele><time>2026-04-28T14:13:00.014Z</time></trkpt><trkpt lat="35.7859833" lon="-5.761195"><ele>4.0</ele><time>2026-04-28T14:13:01.013Z</time></trkpt><trkpt lat="35.786065" lon="-5.7611217"><ele>4.0</ele><time>2026-04-28T14:13:02.014Z</time></trkpt><trkpt lat="35.78614" lon="-5.761045"><ele>4.0</ele><time>2026-04-28T14:13:03.014Z</time></trkpt><trkpt lat="35.786215" lon="-5.7609683"><ele>4.0</ele><time>2026-04-28T14:13:04.014Z</time></trkpt><trkpt lat="35.7862817" lon="-5.7608917"><ele>3.833333333333333</ele><time>2026-04-28T14:13:05.014Z</time></trkpt><trkpt lat="35.7863467" lon="-5.7608183"><ele>3.6666666666666665</ele><time>2026-04-28T14:13:06.014Z</time></trkpt><trkpt lat="35.7864133" lon="-5.7607433"><ele>3.5</ele><time>2026-04-28T14:13:07.014Z</time></trkpt><trkpt lat="35.7864817" lon="-5.7606667"><ele>3.333333333333333</ele><time>2026-04-28T14:13:08.014Z</time></trkpt><trkpt lat="35.78654" lon="-5.76059"><ele>3.1666666666666665</ele><time>2026-04-28T14:13:09.014Z</time></trkpt><trkpt lat="35.7866" lon="-5.760515"><ele>3.0</ele><time>2026-04-28T14:13:10.014Z</time></trkpt><trkpt lat="35.7866567" lon="-5.7604317"><ele>3.0</ele><time>2026-04-28T14:13:11.014Z</time></trkpt><trkpt lat="35.7867233" lon="-5.7603417"><ele>3.0</ele><time>2026-04-28T14:13:12.014Z</time></trkpt><trkpt lat="35.7867817" lon="-5.7602483"><ele>3.0</ele><time>2026-04-28T14:13:13.014Z</time></trkpt><trkpt lat="35.78683" lon="-5.76014"><ele>3.0</ele><time>2026-04-28T14:13:14.014Z</time></trkpt><trkpt lat="35.7868717" lon="-5.7600167"><ele>3.0</ele><time>2026-04-28T14:13:15.014Z</time></trkpt><trkpt lat="35.7869233" lon="-5.7599033"><ele>4.0</ele><time>2026-04-28T14:13:16.014Z</time></trkpt><trkpt lat="35.7869733" lon="-5.759785"><ele>5.0</ele><time>2026-04-28T14:13:17.014Z</time></trkpt><trkpt lat="35.7870233" lon="-5.7596767"><ele>6.000000000000001</ele><time>2026-04-28T14:13:18.014Z</time></trkpt><trkpt lat="35.7870733" lon="-5.7595583"><ele>7.0</ele><time>2026-04-28T14:13:19.014Z</time></trkpt><trkpt lat="35.7871217" lon="-5.7594417"><ele>8.0</ele><time>2026-04-28T14:13:20.014Z</time></trkpt><trkpt lat="35.787165" lon="-5.7593283"><ele>8.8</ele><time>2026-04-28T14:13:21.014Z</time></trkpt><trkpt lat="35.7872017" lon="-5.7592133"><ele>9.600000000000001</ele><time>2026-04-28T14:13:22.014Z</time></trkpt><trkpt lat="35.7872317" lon="-5.7590917"><ele>10.399999999999999</ele><time>2026-04-28T14:13:23.014Z</time></trkpt><trkpt lat="35.7872567" lon="-5.7589633"><ele>11.2</ele><time>2026-04-28T14:13:24.014Z</time></trkpt><trkpt lat="35.7872833" lon="-5.758835"><ele>12.0</ele><time>2026-04-28T14:13:25.014Z</time></trkpt><trkpt lat="35.7873033" lon="-5.7587083"><ele>12.0</ele><time>2026-04-28T14:13:26.014Z</time></trkpt><trkpt lat="35.787325" lon="-5.7585833"><ele>12.0</ele><time>2026-04-28T14:13:27.014Z</time></trkpt><trkpt lat="35.7873483" lon="-5.7584583"><ele>12.0</ele><time>2026-04-28T14:13:28.014Z</time></trkpt><trkpt lat="35.7873617" lon="-5.7583317"><ele>12.0</ele><time>2026-04-28T14:13:29.014Z</time></trkpt><trkpt lat="35.7873783" lon="-5.7582"><ele>12.0</ele><time>2026-04-28T14:13:30.014Z</time></trkpt><trkpt lat="35.7874033" lon="-5.7580667"><ele>13.0</ele><time>2026-04-28T14:13:31.014Z</time></trkpt><trkpt lat="35.78743" lon="-5.7579267"><ele>14.0</ele><time>2026-04-28T14:13:32.014Z</time></trkpt><trkpt lat="35.787465" lon="-5.7577933"><ele>15.0</ele><time>2026-04-28T14:13:33.014Z</time></trkpt><trkpt lat="35.787515" lon="-5.7576617"><ele>16.0</ele><time>2026-04-28T14:13:34.014Z</time></trkpt><trkpt lat="35.7875733" lon="-5.7575233"><ele>17.0</ele><time>2026-04-28T14:13:35.014Z</time></trkpt><trkpt lat="35.7876367" lon="-5.7574"><ele>18.0</ele><time>2026-04-28T14:13:36.014Z</time></trkpt><trkpt lat="35.787695" lon="-5.7572817"><ele>19.0</ele><time>2026-04-28T14:13:37.014Z</time></trkpt><trkpt lat="35.7877583" lon="-5.7571533"><ele>20.0</ele><time>2026-04-28T14:13:38.014Z</time></trkpt><trkpt lat="35.7878333" lon="-5.7570167"><ele>20.333333333333336</ele><time>2026-04-28T14:13:39.014Z</time></trkpt><trkpt lat="35.78792" lon="-5.75687"><ele>20.666666666666668</ele><time>2026-04-28T14:13:40.014Z</time></trkpt><trkpt lat="35.7880133" lon="-5.7567267"><ele>21.0</ele><time>2026-04-28T14:13:41.014Z</time></trkpt><trkpt lat="35.7881133" lon="-5.7565783"><ele>21.666666666666668</ele><time>2026-04-28T14:13:42.013Z</time></trkpt><trkpt lat="35.7882117" lon="-5.7564233"><ele>22.333333333333336</ele><time>2026-04-28T14:13:43.014Z</time></trkpt><trkpt lat="35.7883067" lon="-5.75626"><ele>23.0</ele><time>2026-04-28T14:13:44.014Z</time></trkpt><trkpt lat="35.7884017" lon="-5.7560883"><ele>25.0</ele><time>2026-04-28T14:13:45.014Z</time></trkpt><trkpt lat="35.7885" lon="-5.7559117"><ele>27.0</ele><time>2026-04-28T14:13:46.014Z</time></trkpt><trkpt lat="35.7885917" lon="-5.7557417"><ele>29.0</ele><time>2026-04-28T14:13:47.014Z</time></trkpt><trkpt lat="35.7886667" lon="-5.7555767"><ele>30.25</ele><time>2026-04-28T14:13:48.014Z</time></trkpt><trkpt lat="35.788735" lon="-5.755415"><ele>31.5</ele><time>2026-04-28T14:13:49.013Z</time></trkpt><trkpt lat="35.788775" lon="-5.7552567"><ele>32.75</ele><time>2026-04-28T14:13:50.014Z</time></trkpt><trkpt lat="35.7888067" lon="-5.755105"><ele>34.0</ele><time>2026-04-28T14:13:51.014Z</time></trkpt><trkpt lat="35.7888133" lon="-5.7549817"><ele>35.4</ele><time>2026-04-28T14:13:52.014Z</time></trkpt><trkpt lat="35.7887967" lon="-5.7548817"><ele>36.8</ele><time>2026-04-28T14:13:53.014Z</time></trkpt><trkpt lat="35.788775" lon="-5.7548033"><ele>38.199999999999996</ele><time>2026-04-28T14:13:54.014Z</time></trkpt><trkpt lat="35.78871" lon="-5.7546983"><ele>39.599999999999994</ele><time>2026-04-28T14:13:56.014Z</time></trkpt><trkpt lat="35.7886433" lon="-5.7546167"><ele>41.0</ele><time>2026-04-28T14:13:58.014Z</time></trkpt><trkpt lat="35.7886067" lon="-5.7544967"><ele>41.0</ele><time>2026-04-28T14:14:00.014Z</time></trkpt><trkpt lat="35.7886533" lon="-5.7543833"><ele>41.0</ele><time>2026-04-28T14:14:02.014Z</time></trkpt><trkpt lat="35.7887783" lon="-5.754335"><ele>41.0</ele><time>2026-04-28T14:14:04.014Z</time></trkpt><trkpt lat="35.7888683" lon="-5.7543283"><ele>41.0</ele><time>2026-04-28T14:14:05.013Z</time></trkpt><trkpt lat="35.78898" lon="-5.7543167"><ele>41.0</ele><time>2026-04-28T14:14:06.014Z</time></trkpt><trkpt lat="35.7890983" lon="-5.7542767"><ele>41.5</ele><time>2026-04-28T14:14:07.014Z</time></trkpt><trkpt lat="35.7892233" lon="-5.7542133"><ele>42.0</ele><time>2026-04-28T14:14:08.014Z</time></trkpt><trkpt lat="35.7893583" lon="-5.7541233"><ele>42.5</ele><time>2026-04-28T14:14:09.014Z</time></trkpt><trkpt lat="35.7894867" lon="-5.754025"><ele>43.0</ele><time>2026-04-28T14:14:10.014Z</time></trkpt><trkpt lat="35.7896133" lon="-5.7539383"><ele>44.0</ele><time>2026-04-28T14:14:11.014Z</time></trkpt><trkpt lat="35.7897367" lon="-5.7538567"><ele>45.0</ele><time>2026-04-28T14:14:12.014Z</time></trkpt><trkpt lat="35.7898483" lon="-5.7537783"><ele>46.0</ele><time>2026-04-28T14:14:13.014Z</time></trkpt><trkpt lat="35.78996" lon="-5.7536867"><ele>47.0</ele><time>2026-04-28T14:14:14.014Z</time></trkpt><trkpt lat="35.7900717" lon="-5.7535933"><ele>49.75</ele><time>2026-04-28T14:14:15.013Z</time></trkpt><trkpt lat="35.790185" lon="-5.7535067"><ele>52.5</ele><time>2026-04-28T14:14:16.014Z</time></trkpt><trkpt lat="35.790295" lon="-5.7534167"><ele>55.25</ele><time>2026-04-28T14:14:17.014Z</time></trkpt><trkpt lat="35.79039" lon="-5.753345"><ele>58.0</ele><time>2026-04-28T14:14:18.014Z</time></trkpt><trkpt lat="35.7904833" lon="-5.753275"><ele>57.99999999999999</ele><time>2026-04-28T14:14:19.014Z</time></trkpt><trkpt lat="35.7905683" lon="-5.753215"><ele>58.0</ele><time>2026-04-28T14:14:20.014Z</time></trkpt><trkpt lat="35.790645" lon="-5.7531533"><ele>58.0</ele><time>2026-04-28T14:14:21.014Z</time></trkpt><trkpt lat="35.79071" lon="-5.753105"><ele>58.0</ele><time>2026-04-28T14:14:22.014Z</time></trkpt><trkpt lat="35.7907683" lon="-5.75306"><ele>57.99999999999999</ele><time>2026-04-28T14:14:23.014Z</time></trkpt><trkpt lat="35.79086" lon="-5.752975"><ele>58.0</ele><time>2026-04-28T14:14:25.014Z</time></trkpt><trkpt lat="35.79092" lon="-5.7529233"><ele>58.0</ele><time>2026-04-28T14:14:27.014Z</time></trkpt><trkpt lat="35.7909983" lon="-5.752845"><ele>58.0</ele><time>2026-04-28T14:14:30.014Z</time></trkpt><trkpt lat="35.7910967" lon="-5.7527317"><ele>58.0</ele><time>2026-04-28T14:14:32.013Z</time></trkpt><trkpt lat="35.79118" lon="-5.7526583"><ele>58.0</ele><time>2026-04-28T14:14:33.014Z</time></trkpt><trkpt lat="35.7912733" lon="-5.752575"><ele>60.0</ele><time>2026-04-28T14:14:34.013Z</time></trkpt><trkpt lat="35.7913717" lon="-5.7524817"><ele>62.0</ele><time>2026-04-28T14:14:35.014Z</time></trkpt><trkpt lat="35.7914883" lon="-5.7523733"><ele>64.0</ele><time>2026-04-28T14:14:36.014Z</time></trkpt><trkpt lat="35.7916017" lon="-5.752265"><ele>66.0</ele><time>2026-04-28T14:14:37.014Z</time></trkpt><trkpt lat="35.7917217" lon="-5.752145"><ele>68.0</ele><time>2026-04-28T14:14:38.014Z</time></trkpt><trkpt lat="35.791845" lon="-5.75202"><ele>70.0</ele><time>2026-04-28T14:14:39.014Z</time></trkpt><trkpt lat="35.791975" lon="-5.751885"><ele>72.0</ele><time>2026-04-28T14:14:40.013Z</time></trkpt><trkpt lat="35.7921033" lon="-5.7517433"><ele>73.0</ele><time>2026-04-28T14:14:41.013Z</time></trkpt><trkpt lat="35.7922233" lon="-5.7515967"><ele>74.0</ele><time>2026-04-28T14:14:42.013Z</time></trkpt><trkpt lat="35.7923417" lon="-5.75145"><ele>75.0</ele><time>2026-04-28T14:14:43.014Z</time></trkpt><trkpt lat="35.79244" lon="-5.751315"><ele>75.0</ele><time>2026-04-28T14:14:44.013Z</time></trkpt><trkpt lat="35.7925233" lon="-5.7511933"><ele>75.0</ele><time>2026-04-28T14:14:45.013Z</time></trkpt><trkpt lat="35.79259" lon="-5.751085"><ele>75.0</ele><time>2026-04-28T14:14:46.014Z</time></trkpt><trkpt lat="35.792655" lon="-5.7509833"><ele>75.0</ele><time>2026-04-28T14:14:47.014Z</time></trkpt><trkpt lat="35.7927167" lon="-5.7508883"><ele>75.0</ele><time>2026-04-28T14:14:48.014Z</time></trkpt><trkpt lat="35.7927833" lon="-5.7507983"><ele>76.5</ele><time>2026-04-28T14:14:49.014Z</time></trkpt><trkpt lat="35.7928583" lon="-5.7507067"><ele>78.0</ele><time>2026-04-28T14:14:50.014Z</time></trkpt><trkpt lat="35.792935" lon="-5.7506083"><ele>79.5</ele><time>2026-04-28T14:14:51.014Z</time></trkpt><trkpt lat="35.7930167" lon="-5.7504967"><ele>81.0</ele><time>2026-04-28T14:14:52.014Z</time></trkpt><trkpt lat="35.7930983" lon="-5.75038"><ele>81.0</ele><time>2026-04-28T14:14:53.014Z</time></trkpt><trkpt lat="35.7931767" lon="-5.7502533"><ele>81.0</ele><time>2026-04-28T14:14:54.014Z</time></trkpt><trkpt lat="35.7932633" lon="-5.75012"><ele>81.0</ele><time>2026-04-28T14:14:55.014Z</time></trkpt><trkpt lat="35.7933567" lon="-5.74999"><ele>81.0</ele><time>2026-04-28T14:14:56.014Z</time></trkpt><trkpt lat="35.7934517" lon="-5.7498533"><ele>81.0</ele><time>2026-04-28T14:14:57.013Z</time></trkpt><trkpt lat="35.7935517" lon="-5.7497167"><ele>81.0</ele><time>2026-04-28T14:14:58.014Z</time></trkpt><trkpt lat="35.79365" lon="-5.7495783"><ele>81.0</ele><time>2026-04-28T14:14:59.014Z</time></trkpt><trkpt lat="35.793735" lon="-5.7494433"><ele>81.0</ele><time>2026-04-28T14:15:00.014Z</time></trkpt><trkpt lat="35.7938217" lon="-5.7493183"><ele>81.25</ele><time>2026-04-28T14:15:01.014Z</time></trkpt><trkpt lat="35.7939033" lon="-5.7491883"><ele>81.5</ele><time>2026-04-28T14:15:02.014Z</time></trkpt><trkpt lat="35.79399" lon="-5.7490667"><ele>81.75</ele><time>2026-04-28T14:15:03.014Z</time></trkpt><trkpt lat="35.7940733" lon="-5.7489467"><ele>82.0</ele><time>2026-04-28T14:15:04.014Z</time></trkpt><trkpt lat="35.7941583" lon="-5.7488217"><ele>82.0</ele><time>2026-04-28T14:15:05.014Z</time></trkpt><trkpt lat="35.7942417" lon="-5.7486983"><ele>82.0</ele><time>2026-04-28T14:15:06.014Z</time></trkpt><trkpt lat="35.7943233" lon="-5.748575"><ele>82.0</ele><time>2026-04-28T14:15:07.014Z</time></trkpt><trkpt lat="35.794405" lon="-5.7484567"><ele>82.0</ele><time>2026-04-28T14:15:08.014Z</time></trkpt><trkpt lat="35.7944867" lon="-5.7483333"><ele>82.0</ele><time>2026-04-28T14:15:09.013Z</time></trkpt><trkpt lat="35.7945733" lon="-5.74821"><ele>82.0</ele><time>2026-04-28T14:15:10.014Z</time></trkpt><trkpt lat="35.7946633" lon="-5.7480917"><ele>82.0</ele><time>2026-04-28T14:15:11.014Z</time></trkpt><trkpt lat="35.7947583" lon="-5.7479783"><ele>82.0</ele><time>2026-04-28T14:15:12.014Z</time></trkpt><trkpt lat="35.79486" lon="-5.7478683"><ele>82.0</ele><time>2026-04-28T14:15:13.014Z</time></trkpt><trkpt lat="35.7949683" lon="-5.7477633"><ele>82.0</ele><time>2026-04-28T14:15:14.014Z</time></trkpt><trkpt lat="35.795075" lon="-5.747655"><ele>82.0</ele><time>2026-04-28T14:15:15.014Z</time></trkpt><trkpt lat="35.7951833" lon="-5.7475433"><ele>82.0</ele><time>2026-04-28T14:15:16.014Z</time></trkpt><trkpt lat="35.79529" lon="-5.7474383"><ele>79.75</ele><time>2026-04-28T14:15:17.014Z</time></trkpt><trkpt lat="35.7954083" lon="-5.7473317"><ele>77.5</ele><time>2026-04-28T14:15:18.014Z</time></trkpt><trkpt lat="35.7955317" lon="-5.7472317"><ele>75.25</ele><time>2026-04-28T14:15:19.014Z</time></trkpt><trkpt lat="35.7956533" lon="-5.7471317"><ele>73.0</ele><time>2026-04-28T14:15:20.014Z</time></trkpt><trkpt lat="35.7957833" lon="-5.7470333"><ele>73.0</ele><time>2026-04-28T14:15:21.014Z</time></trkpt><trkpt lat="35.795915" lon="-5.746945"><ele>73.0</ele><time>2026-04-28T14:15:22.014Z</time></trkpt><trkpt lat="35.7960467" lon="-5.7468533"><ele>73.0</ele><time>2026-04-28T14:15:23.014Z</time></trkpt><trkpt lat="35.7961833" lon="-5.7467567"><ele>74.5</ele><time>2026-04-28T14:15:24.014Z</time></trkpt><trkpt lat="35.7963183" lon="-5.7466683"><ele>76.0</ele><time>2026-04-28T14:15:25.014Z</time></trkpt><trkpt lat="35.79645" lon="-5.7465833"><ele>77.5</ele><time>2026-04-28T14:15:26.014Z</time></trkpt><trkpt lat="35.7965833" lon="-5.7465067"><ele>79.0</ele><time>2026-04-28T14:15:27.013Z</time></trkpt><trkpt lat="35.796715" lon="-5.7464317"><ele>79.0</ele><time>2026-04-28T14:15:28.014Z</time></trkpt><trkpt lat="35.796835" lon="-5.7463533"><ele>79.0</ele><time>2026-04-28T14:15:29.014Z</time></trkpt><trkpt lat="35.79696" lon="-5.7462733"><ele>79.0</ele><time>2026-04-28T14:15:30.014Z</time></trkpt><trkpt lat="35.7970817" lon="-5.7461933"><ele>79.0</ele><time>2026-04-28T14:15:31.014Z</time></trkpt><trkpt lat="35.7972083" lon="-5.7461167"><ele>80.25</ele><time>2026-04-28T14:15:32.014Z</time></trkpt><trkpt lat="35.7973317" lon="-5.7460433"><ele>81.5</ele><time>2026-04-28T14:15:33.014Z</time></trkpt><trkpt lat="35.7974633" lon="-5.7459633"><ele>82.75</ele><time>2026-04-28T14:15:34.014Z</time></trkpt><trkpt lat="35.7975883" lon="-5.74589"><ele>84.0</ele><time>2026-04-28T14:15:35.013Z</time></trkpt><trkpt lat="35.7977133" lon="-5.74582"><ele>84.0</ele><time>2026-04-28T14:15:36.014Z</time></trkpt><trkpt lat="35.7978383" lon="-5.7457517"><ele>84.0</ele><time>2026-04-28T14:15:37.014Z</time></trkpt><trkpt lat="35.79796" lon="-5.7456633"><ele>84.0</ele><time>2026-04-28T14:15:38.014Z</time></trkpt><trkpt lat="35.7980917" lon="-5.745585"><ele>84.0</ele><time>2026-04-28T14:15:39.014Z</time></trkpt><trkpt lat="35.7982283" lon="-5.7455067"><ele>84.0</ele><time>2026-04-28T14:15:40.014Z</time></trkpt><trkpt lat="35.7983683" lon="-5.74543"><ele>84.0</ele><time>2026-04-28T14:15:41.014Z</time></trkpt><trkpt lat="35.7985083" lon="-5.7453567"><ele>84.0</ele><time>2026-04-28T14:15:42.013Z</time></trkpt><trkpt lat="35.7986467" lon="-5.7452833"><ele>84.0</ele><time>2026-04-28T14:15:43.014Z</time></trkpt><trkpt lat="35.79879" lon="-5.74522"><ele>84.0</ele><time>2026-04-28T14:15:44.014Z</time></trkpt><trkpt lat="35.7989383" lon="-5.7451583"><ele>84.0</ele><time>2026-04-28T14:15:45.014Z</time></trkpt><trkpt lat="35.7990867" lon="-5.745095"><ele>84.0</ele><time>2026-04-28T14:15:46.014Z</time></trkpt><trkpt lat="35.7992367" lon="-5.74503"><ele>84.0</ele><time>2026-04-28T14:15:47.014Z</time></trkpt><trkpt lat="35.7993817" lon="-5.7449567"><ele>84.0</ele><time>2026-04-28T14:15:48.014Z</time></trkpt><trkpt lat="35.7995167" lon="-5.7448833"><ele>83.25</ele><time>2026-04-28T14:15:49.014Z</time></trkpt><trkpt lat="35.799645" lon="-5.74479"><ele>82.5</ele><time>2026-04-28T14:15:50.013Z</time></trkpt><trkpt lat="35.7997583" lon="-5.744685"><ele>81.75</ele><time>2026-04-28T14:15:51.014Z</time></trkpt><trkpt lat="35.7998667" lon="-5.744575"><ele>81.0</ele><time>2026-04-28T14:15:52.014Z</time></trkpt><trkpt lat="35.79997" lon="-5.7444567"><ele>82.0</ele><time>2026-04-28T14:15:53.013Z</time></trkpt><trkpt lat="35.800075" lon="-5.744345"><ele>83.0</ele><time>2026-04-28T14:15:54.013Z</time></trkpt><trkpt lat="35.80019" lon="-5.7442383"><ele>84.0</ele><time>2026-04-28T14:15:55.013Z</time></trkpt><trkpt lat="35.8003133" lon="-5.7441433"><ele>85.0</ele><time>2026-04-28T14:15:56.013Z</time></trkpt><trkpt lat="35.8004383" lon="-5.7440583"><ele>80.25</ele><time>2026-04-28T14:15:57.013Z</time></trkpt><trkpt lat="35.80057" lon="-5.7439817"><ele>75.5</ele><time>2026-04-28T14:15:58.013Z</time></trkpt><trkpt lat="35.8007" lon="-5.7439183"><ele>70.75</ele><time>2026-04-28T14:15:59.013Z</time></trkpt><trkpt lat="35.8008367" lon="-5.7438717"><ele>66.0</ele><time>2026-04-28T14:16:00.013Z</time></trkpt><trkpt lat="35.80098" lon="-5.7438417"><ele>67.75</ele><time>2026-04-28T14:16:01.013Z</time></trkpt><trkpt lat="35.8011233" lon="-5.7438317"><ele>69.5</ele><time>2026-04-28T14:16:02.013Z</time></trkpt><trkpt lat="35.8012633" lon="-5.7438217"><ele>71.25</ele><time>2026-04-28T14:16:03.012Z</time></trkpt><trkpt lat="35.8014" lon="-5.743825"><ele>73.0</ele><time>2026-04-28T14:16:04.013Z</time></trkpt><trkpt lat="35.8015283" lon="-5.7438433"><ele>73.0</ele><time>2026-04-28T14:16:05.013Z</time></trkpt><trkpt lat="35.8016617" lon="-5.7438667"><ele>73.0</ele><time>2026-04-28T14:16:06.013Z</time></trkpt><trkpt lat="35.8017983" lon="-5.7438883"><ele>73.0</ele><time>2026-04-28T14:16:07.013Z</time></trkpt><trkpt lat="35.8019183" lon="-5.743915"><ele>73.0</ele><time>2026-04-28T14:16:08.013Z</time></trkpt><trkpt lat="35.802035" lon="-5.74394"><ele>74.6</ele><time>2026-04-28T14:16:09.013Z</time></trkpt><trkpt lat="35.8021433" lon="-5.7439567"><ele>76.19999999999999</ele><time>2026-04-28T14:16:10.013Z</time></trkpt><trkpt lat="35.80225" lon="-5.7439617"><ele>77.8</ele><time>2026-04-28T14:16:11.012Z</time></trkpt><trkpt lat="35.8023383" lon="-5.743965"><ele>79.39999999999999</ele><time>2026-04-28T14:16:12.012Z</time></trkpt><trkpt lat="35.8024233" lon="-5.7439567"><ele>81.0</ele><time>2026-04-28T14:16:13.013Z</time></trkpt><trkpt lat="35.8025183" lon="-5.7439433"><ele>81.0</ele><time>2026-04-28T14:16:14.013Z</time></trkpt><trkpt lat="35.80261" lon="-5.7439233"><ele>81.0</ele><time>2026-04-28T14:16:15.013Z</time></trkpt><trkpt lat="35.8027" lon="-5.74389"><ele>81.0</ele><time>2026-04-28T14:16:16.012Z</time></trkpt><trkpt lat="35.8027917" lon="-5.7438583"><ele>81.0</ele><time>2026-04-28T14:16:17.013Z</time></trkpt><trkpt lat="35.802885" lon="-5.7438117"><ele>81.0</ele><time>2026-04-28T14:16:18.013Z</time></trkpt><trkpt lat="35.802975" lon="-5.7437517"><ele>81.4</ele><time>2026-04-28T14:16:19.013Z</time></trkpt><trkpt lat="35.8030617" lon="-5.7436917"><ele>81.8</ele><time>2026-04-28T14:16:20.013Z</time></trkpt><trkpt lat="35.80315" lon="-5.7436267"><ele>82.2</ele><time>2026-04-28T14:16:21.013Z</time></trkpt><trkpt lat="35.803245" lon="-5.74356"><ele>82.60000000000001</ele><time>2026-04-28T14:16:22.012Z</time></trkpt><trkpt lat="35.8033467" lon="-5.7434883"><ele>83.0</ele><time>2026-04-28T14:16:23.013Z</time></trkpt><trkpt lat="35.8034533" lon="-5.7434133"><ele>80.75</ele><time>2026-04-28T14:16:24.013Z</time></trkpt><trkpt lat="35.8035583" lon="-5.7433383"><ele>78.5</ele><time>2026-04-28T14:16:25.012Z</time></trkpt><trkpt lat="35.8036717" lon="-5.7432633"><ele>76.25</ele><time>2026-04-28T14:16:26.013Z</time></trkpt><trkpt lat="35.8037833" lon="-5.7431917"><ele>74.0</ele><time>2026-04-28T14:16:27.012Z</time></trkpt><trkpt lat="35.8039033" lon="-5.74312"><ele>74.0</ele><time>2026-04-28T14:16:28.013Z</time></trkpt><trkpt lat="35.8040183" lon="-5.74305"><ele>74.0</ele><time>2026-04-28T14:16:29.013Z</time></trkpt><trkpt lat="35.8041283" lon="-5.742975"><ele>74.0</ele><time>2026-04-28T14:16:30.013Z</time></trkpt><trkpt lat="35.8042367" lon="-5.7429017"><ele>74.0</ele><time>2026-04-28T14:16:31.013Z</time></trkpt><trkpt lat="35.804345" lon="-5.7428283"><ele>73.75</ele><time>2026-04-28T14:16:32.013Z</time></trkpt><trkpt lat="35.80446" lon="-5.7427683"><ele>73.5</ele><time>2026-04-28T14:16:33.013Z</time></trkpt><trkpt lat="35.8045783" lon="-5.7427167"><ele>73.25</ele><time>2026-04-28T14:16:34.013Z</time></trkpt><trkpt lat="35.8046983" lon="-5.7426767"><ele>73.0</ele><time>2026-04-28T14:16:35.012Z</time></trkpt><trkpt lat="35.8048233" lon="-5.7426583"><ele>73.0</ele><time>2026-04-28T14:16:36.012Z</time></trkpt><trkpt lat="35.80495" lon="-5.742645"><ele>73.0</ele><time>2026-04-28T14:16:37.013Z</time></trkpt><trkpt lat="35.80509" lon="-5.7426233"><ele>73.0</ele><time>2026-04-28T14:16:38.013Z</time></trkpt><trkpt lat="35.8052367" lon="-5.7426033"><ele>73.0</ele><time>2026-04-28T14:16:39.013Z</time></trkpt><trkpt lat="35.8053883" lon="-5.742575"><ele>70.5</ele><time>2026-04-28T14:16:40.013Z</time></trkpt><trkpt lat="35.8055383" lon="-5.7425517"><ele>68.0</ele><time>2026-04-28T14:16:41.013Z</time></trkpt><trkpt lat="35.805685" lon="-5.7425317"><ele>65.5</ele><time>2026-04-28T14:16:42.013Z</time></trkpt><trkpt lat="35.805825" lon="-5.74251"><ele>63.0</ele><time>2026-04-28T14:16:43.013Z</time></trkpt><trkpt lat="35.8059683" lon="-5.7424883"><ele>63.25</ele><time>2026-04-28T14:16:44.013Z</time></trkpt><trkpt lat="35.8061" lon="-5.7424683"><ele>63.5</ele><time>2026-04-28T14:16:45.013Z</time></trkpt><trkpt lat="35.8062283" lon="-5.7424517"><ele>63.75</ele><time>2026-04-28T14:16:46.013Z</time></trkpt><trkpt lat="35.8063567" lon="-5.7424317"><ele>64.0</ele><time>2026-04-28T14:16:47.013Z</time></trkpt><trkpt lat="35.8064883" lon="-5.7424067"><ele>64.0</ele><time>2026-04-28T14:16:48.012Z</time></trkpt><trkpt lat="35.8066217" lon="-5.7423717"><ele>64.0</ele><time>2026-04-28T14:16:49.013Z</time></trkpt><trkpt lat="35.80675" lon="-5.7423233"><ele>64.0</ele><time>2026-04-28T14:16:50.013Z</time></trkpt><trkpt lat="35.8068783" lon="-5.7422667"><ele>64.0</ele><time>2026-04-28T14:16:51.013Z</time></trkpt><trkpt lat="35.8070067" lon="-5.7421917"><ele>66.75</ele><time>2026-04-28T14:16:52.013Z</time></trkpt><trkpt lat="35.80713" lon="-5.7420983"><ele>69.5</ele><time>2026-04-28T14:16:53.013Z</time></trkpt><trkpt lat="35.80725" lon="-5.7419933"><ele>72.25</ele><time>2026-04-28T14:16:54.013Z</time></trkpt><trkpt lat="35.8073683" lon="-5.7418767"><ele>75.0</ele><time>2026-04-28T14:16:55.013Z</time></trkpt><trkpt lat="35.8074883" lon="-5.741755"><ele>75.0</ele><time>2026-04-28T14:16:56.013Z</time></trkpt><trkpt lat="35.807605" lon="-5.74162"><ele>75.0</ele><time>2026-04-28T14:16:57.013Z</time></trkpt><trkpt lat="35.8077033" lon="-5.7414833"><ele>75.0</ele><time>2026-04-28T14:16:58.013Z</time></trkpt><trkpt lat="35.8077867" lon="-5.7413517"><ele>75.0</ele><time>2026-04-28T14:16:59.013Z</time></trkpt><trkpt lat="35.80786" lon="-5.7412233"><ele>79.25</ele><time>2026-04-28T14:17:00.013Z</time></trkpt><trkpt lat="35.8079283" lon="-5.7410967"><ele>83.5</ele><time>2026-04-28T14:17:01.013Z</time></trkpt><trkpt lat="35.8079883" lon="-5.7409683"><ele>87.75</ele><time>2026-04-28T14:17:02.013Z</time></trkpt><trkpt lat="35.8080533" lon="-5.74085"><ele>92.0</ele><time>2026-04-28T14:17:03.013Z</time></trkpt><trkpt lat="35.8081017" lon="-5.74072"><ele>92.0</ele><time>2026-04-28T14:17:04.012Z</time></trkpt><trkpt lat="35.8081483" lon="-5.7405967"><ele>92.0</ele><time>2026-04-28T14:17:05.013Z</time></trkpt><trkpt lat="35.8082033" lon="-5.7404783"><ele>92.0</ele><time>2026-04-28T14:17:06.012Z</time></trkpt><trkpt lat="35.8082617" lon="-5.7403633"><ele>92.0</ele><time>2026-04-28T14:17:07.013Z</time></trkpt><trkpt lat="35.8083283" lon="-5.7402483"><ele>92.0</ele><time>2026-04-28T14:17:08.013Z</time></trkpt><trkpt lat="35.8084067" lon="-5.740145"><ele>91.0</ele><time>2026-04-28T14:17:09.013Z</time></trkpt><trkpt lat="35.80849" lon="-5.7400517"><ele>90.0</ele><time>2026-04-28T14:17:10.013Z</time></trkpt><trkpt lat="35.8085833" lon="-5.73998"><ele>89.0</ele><time>2026-04-28T14:17:11.013Z</time></trkpt><trkpt lat="35.8086933" lon="-5.7399133"><ele>88.0</ele><time>2026-04-28T14:17:12.013Z</time></trkpt><trkpt lat="35.808815" lon="-5.7398517"><ele>90.66666666666666</ele><time>2026-04-28T14:17:13.013Z</time></trkpt><trkpt lat="35.8089517" lon="-5.7397917"><ele>93.33333333333333</ele><time>2026-04-28T14:17:14.012Z</time></trkpt><trkpt lat="35.8090983" lon="-5.7397317"><ele>96.0</ele><time>2026-04-28T14:17:15.013Z</time></trkpt><trkpt lat="35.8092483" lon="-5.7396717"><ele>96.0</ele><time>2026-04-28T14:17:16.012Z</time></trkpt><trkpt lat="35.8093983" lon="-5.7396017"><ele>96.0</ele><time>2026-04-28T14:17:17.013Z</time></trkpt><trkpt lat="35.8095467" lon="-5.7395283"><ele>96.0</ele><time>2026-04-28T14:17:18.012Z</time></trkpt><trkpt lat="35.8096983" lon="-5.739445"><ele>97.33333333333334</ele><time>2026-04-28T14:17:19.013Z</time></trkpt><trkpt lat="35.8098567" lon="-5.7393567"><ele>98.66666666666667</ele><time>2026-04-28T14:17:20.013Z</time></trkpt><trkpt lat="35.8100017" lon="-5.7392767"><ele>100.0</ele><time>2026-04-28T14:17:21.013Z</time></trkpt><trkpt lat="35.8101433" lon="-5.7391933"><ele>99.5</ele><time>2026-04-28T14:17:22.012Z</time></trkpt><trkpt lat="35.81028" lon="-5.7391183"><ele>99.0</ele><time>2026-04-28T14:17:23.013Z</time></trkpt><trkpt lat="35.8104067" lon="-5.73905"><ele>98.5</ele><time>2026-04-28T14:17:24.013Z</time></trkpt><trkpt lat="35.8105233" lon="-5.7389767"><ele>98.0</ele><time>2026-04-28T14:17:25.012Z</time></trkpt><trkpt lat="35.8106333" lon="-5.7388983"><ele>98.0</ele><time>2026-04-28T14:17:26.012Z</time></trkpt><trkpt lat="35.8107417" lon="-5.7388317"><ele>98.0</ele><time>2026-04-28T14:17:27.013Z</time></trkpt><trkpt lat="35.8108583" lon="-5.7387617"><ele>98.0</ele><time>2026-04-28T14:17:28.013Z</time></trkpt><trkpt lat="35.8109783" lon="-5.7387033"><ele>98.0</ele><time>2026-04-28T14:17:29.013Z</time></trkpt><trkpt lat="35.8111" lon="-5.7386583"><ele>97.25</ele><time>2026-04-28T14:17:30.013Z</time></trkpt><trkpt lat="35.811215" lon="-5.7386033"><ele>96.5</ele><time>2026-04-28T14:17:31.013Z</time></trkpt><trkpt lat="35.81133" lon="-5.7385533"><ele>95.75</ele><time>2026-04-28T14:17:32.013Z</time></trkpt><trkpt lat="35.8114383" lon="-5.73849"><ele>95.0</ele><time>2026-04-28T14:17:33.013Z</time></trkpt><trkpt lat="35.8115483" lon="-5.7384267"><ele>95.0</ele><time>2026-04-28T14:17:34.013Z</time></trkpt><trkpt lat="35.8116533" lon="-5.7383667"><ele>95.0</ele><time>2026-04-28T14:17:35.013Z</time></trkpt><trkpt lat="35.8117483" lon="-5.73829"><ele>95.0</ele><time>2026-04-28T14:17:36.013Z</time></trkpt><trkpt lat="35.8118317" lon="-5.7382133"><ele>95.0</ele><time>2026-04-28T14:17:37.013Z</time></trkpt><trkpt lat="35.8119" lon="-5.7381283"><ele>95.0</ele><time>2026-04-28T14:17:38.013Z</time></trkpt><trkpt lat="35.8119767" lon="-5.7380283"><ele>94.5</ele><time>2026-04-28T14:17:39.013Z</time></trkpt><trkpt lat="35.8120517" lon="-5.7379"><ele>94.0</ele><time>2026-04-28T14:17:40.013Z</time></trkpt><trkpt lat="35.8121283" lon="-5.7377633"><ele>93.5</ele><time>2026-04-28T14:17:41.013Z</time></trkpt><trkpt lat="35.8121967" lon="-5.737625"><ele>93.0</ele><time>2026-04-28T14:17:42.013Z</time></trkpt><trkpt lat="35.81226" lon="-5.7374917"><ele>93.0</ele><time>2026-04-28T14:17:43.013Z</time></trkpt><trkpt lat="35.81232" lon="-5.7373583"><ele>93.0</ele><time>2026-04-28T14:17:44.013Z</time></trkpt><trkpt lat="35.8123833" lon="-5.7372317"><ele>93.0</ele><time>2026-04-28T14:17:45.013Z</time></trkpt><trkpt lat="35.81244" lon="-5.7371"><ele>93.0</ele><time>2026-04-28T14:17:46.013Z</time></trkpt><trkpt lat="35.8124933" lon="-5.73696"><ele>93.25</ele><time>2026-04-28T14:17:47.013Z</time></trkpt><trkpt lat="35.81254" lon="-5.736815"><ele>93.5</ele><time>2026-04-28T14:17:48.013Z</time></trkpt><trkpt lat="35.8125817" lon="-5.7366583"><ele>93.75</ele><time>2026-04-28T14:17:49.012Z</time></trkpt><trkpt lat="35.8126117" lon="-5.7364917"><ele>94.0</ele><time>2026-04-28T14:17:50.013Z</time></trkpt><trkpt lat="35.8126283" lon="-5.7363133"><ele>94.0</ele><time>2026-04-28T14:17:51.013Z</time></trkpt><trkpt lat="35.8126367" lon="-5.73613"><ele>94.0</ele><time>2026-04-28T14:17:52.013Z</time></trkpt><trkpt lat="35.8126383" lon="-5.7359533"><ele>94.0</ele><time>2026-04-28T14:17:53.012Z</time></trkpt><trkpt lat="35.8126383" lon="-5.73577"><ele>94.0</ele><time>2026-04-28T14:17:54.013Z</time></trkpt><trkpt lat="35.81263" lon="-5.7355817"><ele>94.0</ele><time>2026-04-28T14:17:55.012Z</time></trkpt><trkpt lat="35.8126183" lon="-5.7353867"><ele>94.0</ele><time>2026-04-28T14:17:56.013Z</time></trkpt><trkpt lat="35.812605" lon="-5.7351783"><ele>94.0</ele><time>2026-04-28T14:17:57.013Z</time></trkpt><trkpt lat="35.81259" lon="-5.7349633"><ele>94.0</ele><time>2026-04-28T14:17:58.013Z</time></trkpt><trkpt lat="35.8125783" lon="-5.7347517"><ele>94.0</ele><time>2026-04-28T14:17:59.013Z</time></trkpt><trkpt lat="35.8125617" lon="-5.7345517"><ele>94.0</ele><time>2026-04-28T14:18:00.013Z</time></trkpt><trkpt lat="35.8125417" lon="-5.7343567"><ele>94.33333333333333</ele><time>2026-04-28T14:18:01.013Z</time></trkpt><trkpt lat="35.8125417" lon="-5.7341717"><ele>94.66666666666667</ele><time>2026-04-28T14:18:02.013Z</time></trkpt><trkpt lat="35.8125483" lon="-5.7339867"><ele>95.0</ele><time>2026-04-28T14:18:03.013Z</time></trkpt><trkpt lat="35.812575" lon="-5.7337967"><ele>95.0</ele><time>2026-04-28T14:18:04.013Z</time></trkpt><trkpt lat="35.812625" lon="-5.7336267"><ele>95.0</ele><time>2026-04-28T14:18:05.013Z</time></trkpt><trkpt lat="35.8127017" lon="-5.7334733"><ele>95.0</ele><time>2026-04-28T14:18:06.013Z</time></trkpt><trkpt lat="35.8127967" lon="-5.7333233"><ele>95.0</ele><time>2026-04-28T14:18:07.012Z</time></trkpt><trkpt lat="35.8128983" lon="-5.7331933"><ele>96.0</ele><time>2026-04-28T14:18:08.013Z</time></trkpt><trkpt lat="35.813005" lon="-5.733065"><ele>97.0</ele><time>2026-04-28T14:18:09.013Z</time></trkpt><trkpt lat="35.8131133" lon="-5.7329433"><ele>98.0</ele><time>2026-04-28T14:18:10.013Z</time></trkpt><trkpt lat="35.8132117" lon="-5.7328183"><ele>99.0</ele><time>2026-04-28T14:18:11.013Z</time></trkpt><trkpt lat="35.8133133" lon="-5.7326883"><ele>99.0</ele><time>2026-04-28T14:18:12.012Z</time></trkpt><trkpt lat="35.8134167" lon="-5.7325533"><ele>99.0</ele><time>2026-04-28T14:18:13.013Z</time></trkpt><trkpt lat="35.8135167" lon="-5.7324217"><ele>99.0</ele><time>2026-04-28T14:18:14.013Z</time></trkpt><trkpt lat="35.8136167" lon="-5.7322817"><ele>99.0</ele><time>2026-04-28T14:18:15.013Z</time></trkpt><trkpt lat="35.813705" lon="-5.73213"><ele>98.25</ele><time>2026-04-28T14:18:16.013Z</time></trkpt><trkpt lat="35.8137717" lon="-5.73198"><ele>97.5</ele><time>2026-04-28T14:18:17.013Z</time></trkpt><trkpt lat="35.8138183" lon="-5.731825"><ele>96.75</ele><time>2026-04-28T14:18:18.013Z</time></trkpt><trkpt lat="35.81385" lon="-5.7316617"><ele>96.0</ele><time>2026-04-28T14:18:19.013Z</time></trkpt><trkpt lat="35.8138467" lon="-5.731485"><ele>96.0</ele><time>2026-04-28T14:18:20.013Z</time></trkpt><trkpt lat="35.8138283" lon="-5.7312983"><ele>96.0</ele><time>2026-04-28T14:18:21.012Z</time></trkpt><trkpt lat="35.8137933" lon="-5.731115"><ele>96.0</ele><time>2026-04-28T14:18:22.013Z</time></trkpt><trkpt lat="35.8137583" lon="-5.730935"><ele>94.33333333333333</ele><time>2026-04-28T14:18:23.013Z</time></trkpt><trkpt lat="35.8137217" lon="-5.7307467"><ele>92.66666666666666</ele><time>2026-04-28T14:18:24.013Z</time></trkpt><trkpt lat="35.813695" lon="-5.7305533"><ele>91.0</ele><time>2026-04-28T14:18:25.013Z</time></trkpt><trkpt lat="35.8136867" lon="-5.7303617"><ele>88.0</ele><time>2026-04-28T14:18:26.012Z</time></trkpt><trkpt lat="35.8136917" lon="-5.7301817"><ele>85.0</ele><time>2026-04-28T14:18:27.013Z</time></trkpt><trkpt lat="35.8137083" lon="-5.7300033"><ele>82.0</ele><time>2026-04-28T14:18:28.013Z</time></trkpt><trkpt lat="35.8137333" lon="-5.72983"><ele>79.0</ele><time>2026-04-28T14:18:29.013Z</time></trkpt><trkpt lat="35.8137767" lon="-5.7296633"><ele>79.0</ele><time>2026-04-28T14:18:30.013Z</time></trkpt><trkpt lat="35.813825" lon="-5.7294917"><ele>79.0</ele><time>2026-04-28T14:18:31.012Z</time></trkpt><trkpt lat="35.81389" lon="-5.7293333"><ele>79.0</ele><time>2026-04-28T14:18:32.013Z</time></trkpt><trkpt lat="35.8139683" lon="-5.72918"><ele>79.0</ele><time>2026-04-28T14:18:33.013Z</time></trkpt><trkpt lat="35.8140633" lon="-5.729035"><ele>79.66666666666666</ele><time>2026-04-28T14:18:34.013Z</time></trkpt><trkpt lat="35.8141733" lon="-5.7289117"><ele>80.33333333333333</ele><time>2026-04-28T14:18:35.013Z</time></trkpt><trkpt lat="35.81429" lon="-5.72879"><ele>81.0</ele><time>2026-04-28T14:18:36.013Z</time></trkpt><trkpt lat="35.8144167" lon="-5.7286833"><ele>81.0</ele><time>2026-04-28T14:18:37.013Z</time></trkpt><trkpt lat="35.8145483" lon="-5.7285967"><ele>81.0</ele><time>2026-04-28T14:18:38.013Z</time></trkpt><trkpt lat="35.8146833" lon="-5.72852"><ele>81.0</ele><time>2026-04-28T14:18:39.013Z</time></trkpt><trkpt lat="35.8148233" lon="-5.7284633"><ele>81.0</ele><time>2026-04-28T14:18:40.013Z</time></trkpt><trkpt lat="35.8149717" lon="-5.7284117"><ele>85.66666666666667</ele><time>2026-04-28T14:18:41.013Z</time></trkpt><trkpt lat="35.8151217" lon="-5.7283683"><ele>90.33333333333334</ele><time>2026-04-28T14:18:42.013Z</time></trkpt><trkpt lat="35.815275" lon="-5.7283317"><ele>95.0</ele><time>2026-04-28T14:18:43.013Z</time></trkpt><trkpt lat="35.8154233" lon="-5.72829"><ele>95.0</ele><time>2026-04-28T14:18:44.012Z</time></trkpt><trkpt lat="35.8155667" lon="-5.7282333"><ele>95.0</ele><time>2026-04-28T14:18:45.012Z</time></trkpt><trkpt lat="35.8157017" lon="-5.7281617"><ele>95.0</ele><time>2026-04-28T14:18:46.013Z</time></trkpt><trkpt lat="35.8158217" lon="-5.7280817"><ele>95.0</ele><time>2026-04-28T14:18:47.013Z</time></trkpt><trkpt lat="35.815925" lon="-5.7279783"><ele>94.0</ele><time>2026-04-28T14:18:48.013Z</time></trkpt><trkpt lat="35.81601" lon="-5.7278583"><ele>93.0</ele><time>2026-04-28T14:18:49.013Z</time></trkpt><trkpt lat="35.8160683" lon="-5.7277233"><ele>92.0</ele><time>2026-04-28T14:18:50.012Z</time></trkpt><trkpt lat="35.8161133" lon="-5.7275767"><ele>91.0</ele><time>2026-04-28T14:18:51.013Z</time></trkpt><trkpt lat="35.8161417" lon="-5.7274133"><ele>90.75</ele><time>2026-04-28T14:18:52.012Z</time></trkpt><trkpt lat="35.8161483" lon="-5.7272433"><ele>90.5</ele><time>2026-04-28T14:18:53.013Z</time></trkpt><trkpt lat="35.81615" lon="-5.7270717"><ele>90.25</ele><time>2026-04-28T14:18:54.013Z</time></trkpt><trkpt lat="35.8161467" lon="-5.7269"><ele>90.0</ele><time>2026-04-28T14:18:55.013Z</time></trkpt><trkpt lat="35.8161417" lon="-5.726725"><ele>90.5</ele><time>2026-04-28T14:18:56.013Z</time></trkpt><trkpt lat="35.81615" lon="-5.726545"><ele>91.0</ele><time>2026-04-28T14:18:57.013Z</time></trkpt><trkpt lat="35.81617" lon="-5.726365"><ele>91.5</ele><time>2026-04-28T14:18:58.013Z</time></trkpt><trkpt lat="35.8161983" lon="-5.7262017"><ele>92.0</ele><time>2026-04-28T14:18:59.013Z</time></trkpt><trkpt lat="35.81623" lon="-5.7260467"><ele>93.25</ele><time>2026-04-28T14:19:00.013Z</time></trkpt><trkpt lat="35.81626" lon="-5.7259117"><ele>94.5</ele><time>2026-04-28T14:19:01.013Z</time></trkpt><trkpt lat="35.8162867" lon="-5.7257783"><ele>95.75</ele><time>2026-04-28T14:19:02.012Z</time></trkpt><trkpt lat="35.8163117" lon="-5.725645"><ele>97.0</ele><time>2026-04-28T14:19:03.013Z</time></trkpt><trkpt lat="35.8163367" lon="-5.7255067"><ele>97.0</ele><time>2026-04-28T14:19:04.013Z</time></trkpt><trkpt lat="35.8163583" lon="-5.7253683"><ele>97.0</ele><time>2026-04-28T14:19:05.013Z</time></trkpt><trkpt lat="35.8163783" lon="-5.7252067"><ele>97.0</ele><time>2026-04-28T14:19:06.013Z</time></trkpt><trkpt lat="35.8163883" lon="-5.7250233"><ele>97.0</ele><time>2026-04-28T14:19:07.013Z</time></trkpt><trkpt lat="35.81639" lon="-5.7248317"><ele>97.33333333333334</ele><time>2026-04-28T14:19:08.013Z</time></trkpt><trkpt lat="35.8163817" lon="-5.7246383"><ele>97.66666666666666</ele><time>2026-04-28T14:19:09.013Z</time></trkpt><trkpt lat="35.81637" lon="-5.7244533"><ele>98.0</ele><time>2026-04-28T14:19:10.013Z</time></trkpt><trkpt lat="35.816355" lon="-5.7242717"><ele>98.0</ele><time>2026-04-28T14:19:11.013Z</time></trkpt><trkpt lat="35.8163317" lon="-5.72409"><ele>98.0</ele><time>2026-04-28T14:19:12.012Z</time></trkpt><trkpt lat="35.816305" lon="-5.7239117"><ele>98.0</ele><time>2026-04-28T14:19:13.013Z</time></trkpt><trkpt lat="35.8162767" lon="-5.7237367"><ele>98.0</ele><time>2026-04-28T14:19:14.013Z</time></trkpt><trkpt lat="35.8162417" lon="-5.723565"><ele>97.5</ele><time>2026-04-28T14:19:15.013Z</time></trkpt><trkpt lat="35.8162" lon="-5.72339"><ele>97.0</ele><time>2026-04-28T14:19:16.013Z</time></trkpt><trkpt lat="35.8161567" lon="-5.7232183"><ele>96.5</ele><time>2026-04-28T14:19:17.013Z</time></trkpt><trkpt lat="35.8161133" lon="-5.7230417"><ele>96.0</ele><time>2026-04-28T14:19:18.013Z</time></trkpt><trkpt lat="35.8160683" lon="-5.7228667"><ele>96.0</ele><time>2026-04-28T14:19:19.013Z</time></trkpt><trkpt lat="35.8160167" lon="-5.7226967"><ele>96.0</ele><time>2026-04-28T14:19:20.013Z</time></trkpt><trkpt lat="35.8159683" lon="-5.7225283"><ele>96.0</ele><time>2026-04-28T14:19:21.013Z</time></trkpt><trkpt lat="35.8159167" lon="-5.7223617"><ele>96.0</ele><time>2026-04-28T14:19:22.013Z</time></trkpt><trkpt lat="35.815855" lon="-5.7222017"><ele>97.25</ele><time>2026-04-28T14:19:23.013Z</time></trkpt><trkpt lat="35.8157833" lon="-5.7220483"><ele>98.5</ele><time>2026-04-28T14:19:24.013Z</time></trkpt><trkpt lat="35.8157067" lon="-5.721895"><ele>99.75</ele><time>2026-04-28T14:19:25.012Z</time></trkpt><trkpt lat="35.815625" lon="-5.7217367"><ele>101.0</ele><time>2026-04-28T14:19:26.013Z</time></trkpt><trkpt lat="35.8155367" lon="-5.7215867"><ele>101.0</ele><time>2026-04-28T14:19:27.013Z</time></trkpt><trkpt lat="35.8154467" lon="-5.72144"><ele>101.0</ele><time>2026-04-28T14:19:28.013Z</time></trkpt><trkpt lat="35.8153583" lon="-5.721285"><ele>101.0</ele><time>2026-04-28T14:19:29.013Z</time></trkpt><trkpt lat="35.8152667" lon="-5.7211233"><ele>103.0</ele><time>2026-04-28T14:19:30.013Z</time></trkpt><trkpt lat="35.8151767" lon="-5.720965"><ele>105.0</ele><time>2026-04-28T14:19:31.013Z</time></trkpt><trkpt lat="35.8150867" lon="-5.7208067"><ele>107.0</ele><time>2026-04-28T14:19:32.013Z</time></trkpt><trkpt lat="35.814995" lon="-5.7206517"><ele>107.0</ele><time>2026-04-28T14:19:33.013Z</time></trkpt><trkpt lat="35.8149033" lon="-5.7204917"><ele>107.0</ele><time>2026-04-28T14:19:34.013Z</time></trkpt><trkpt lat="35.8148133" lon="-5.72033"><ele>107.0</ele><time>2026-04-28T14:19:35.012Z</time></trkpt><trkpt lat="35.8147217" lon="-5.72017"><ele>103.33333333333333</ele><time>2026-04-28T14:19:36.013Z</time></trkpt><trkpt lat="35.8146267" lon="-5.7200067"><ele>99.66666666666666</ele><time>2026-04-28T14:19:37.013Z</time></trkpt><trkpt lat="35.814535" lon="-5.7198433"><ele>96.0</ele><time>2026-04-28T14:19:38.013Z</time></trkpt><trkpt lat="35.8144383" lon="-5.7196817"><ele>96.0</ele><time>2026-04-28T14:19:39.013Z</time></trkpt><trkpt lat="35.8143517" lon="-5.7195283"><ele>96.0</ele><time>2026-04-28T14:19:40.013Z</time></trkpt><trkpt lat="35.8142683" lon="-5.7193733"><ele>96.0</ele><time>2026-04-28T14:19:41.013Z</time></trkpt><trkpt lat="35.8141883" lon="-5.7192233"><ele>96.0</ele><time>2026-04-28T14:19:42.013Z</time></trkpt><trkpt lat="35.8141217" lon="-5.7190683"><ele>96.0</ele><time>2026-04-28T14:19:43.013Z</time></trkpt><trkpt lat="35.8140667" lon="-5.7189117"><ele>96.0</ele><time>2026-04-28T14:19:44.012Z</time></trkpt><trkpt lat="35.8140217" lon="-5.7187467"><ele>96.0</ele><time>2026-04-28T14:19:45.012Z</time></trkpt><trkpt lat="35.8139933" lon="-5.7185767"><ele>96.0</ele><time>2026-04-28T14:19:46.013Z</time></trkpt><trkpt lat="35.81399" lon="-5.7183983"><ele>96.0</ele><time>2026-04-28T14:19:47.013Z</time></trkpt><trkpt lat="35.8139967" lon="-5.7182133"><ele>96.0</ele><time>2026-04-28T14:19:48.013Z</time></trkpt><trkpt lat="35.8140167" lon="-5.7180283"><ele>96.0</ele><time>2026-04-28T14:19:49.013Z</time></trkpt><trkpt lat="35.8140517" lon="-5.7178533"><ele>96.0</ele><time>2026-04-28T14:19:50.013Z</time></trkpt><trkpt lat="35.8141083" lon="-5.717685"><ele>95.66666666666667</ele><time>2026-04-28T14:19:51.013Z</time></trkpt><trkpt lat="35.814185" lon="-5.7175183"><ele>95.33333333333334</ele><time>2026-04-28T14:19:52.013Z</time></trkpt><trkpt lat="35.814275" lon="-5.71736"><ele>95.0</ele><time>2026-04-28T14:19:53.013Z</time></trkpt><trkpt lat="35.814385" lon="-5.717205"><ele>91.33333333333334</ele><time>2026-04-28T14:19:54.012Z</time></trkpt><trkpt lat="35.81451" lon="-5.717075"><ele>87.66666666666667</ele><time>2026-04-28T14:19:55.012Z</time></trkpt><trkpt lat="35.8146467" lon="-5.7169667"><ele>84.0</ele><time>2026-04-28T14:19:56.013Z</time></trkpt><trkpt lat="35.8147917" lon="-5.716875"><ele>84.0</ele><time>2026-04-28T14:19:57.013Z</time></trkpt><trkpt lat="35.8149317" lon="-5.7167867"><ele>84.0</ele><time>2026-04-28T14:19:58.013Z</time></trkpt><trkpt lat="35.81507" lon="-5.7166867"><ele>84.0</ele><time>2026-04-28T14:19:59.013Z</time></trkpt><trkpt lat="35.815195" lon="-5.71656"><ele>83.0</ele><time>2026-04-28T14:20:00.013Z</time></trkpt><trkpt lat="35.8152883" lon="-5.71641"><ele>82.0</ele><time>2026-04-28T14:20:01.013Z</time></trkpt><trkpt lat="35.8153483" lon="-5.7162417"><ele>81.0</ele><time>2026-04-28T14:20:02.013Z</time></trkpt><trkpt lat="35.8153883" lon="-5.7160617"><ele>78.0</ele><time>2026-04-28T14:20:03.013Z</time></trkpt><trkpt lat="35.8154017" lon="-5.7158767"><ele>75.0</ele><time>2026-04-28T14:20:04.013Z</time></trkpt><trkpt lat="35.8153817" lon="-5.7156817"><ele>72.0</ele><time>2026-04-28T14:20:05.013Z</time></trkpt><trkpt lat="35.8153333" lon="-5.715505"><ele>72.0</ele><time>2026-04-28T14:20:06.013Z</time></trkpt><trkpt lat="35.8152567" lon="-5.7153333"><ele>72.0</ele><time>2026-04-28T14:20:07.013Z</time></trkpt><trkpt lat="35.81515" lon="-5.7151783"><ele>72.0</ele><time>2026-04-28T14:20:08.013Z</time></trkpt><trkpt lat="35.81502" lon="-5.7150533"><ele>69.0</ele><time>2026-04-28T14:20:09.013Z</time></trkpt><trkpt lat="35.8148767" lon="-5.71495"><ele>66.0</ele><time>2026-04-28T14:20:10.013Z</time></trkpt><trkpt lat="35.8147267" lon="-5.71485"><ele>63.0</ele><time>2026-04-28T14:20:11.013Z</time></trkpt><trkpt lat="35.8145817" lon="-5.7147383"><ele>63.0</ele><time>2026-04-28T14:20:12.013Z</time></trkpt><trkpt lat="35.8144467" lon="-5.714615"><ele>63.0</ele><time>2026-04-28T14:20:13.012Z</time></trkpt><trkpt lat="35.814325" lon="-5.7144767"><ele>63.0</ele><time>2026-04-28T14:20:14.013Z</time></trkpt><trkpt lat="35.81421" lon="-5.7143267"><ele>61.66666666666667</ele><time>2026-04-28T14:20:15.013Z</time></trkpt><trkpt lat="35.8140983" lon="-5.7141667"><ele>60.333333333333336</ele><time>2026-04-28T14:20:16.013Z</time></trkpt><trkpt lat="35.813995" lon="-5.7139967"><ele>59.0</ele><time>2026-04-28T14:20:17.013Z</time></trkpt><trkpt lat="35.8139033" lon="-5.7138183"><ele>59.0</ele><time>2026-04-28T14:20:18.013Z</time></trkpt><trkpt lat="35.8138283" lon="-5.71363"><ele>59.0</ele><time>2026-04-28T14:20:19.013Z</time></trkpt><trkpt lat="35.8137617" lon="-5.7134317"><ele>59.0</ele><time>2026-04-28T14:20:20.013Z</time></trkpt><trkpt lat="35.813705" lon="-5.7132383"><ele>57.66666666666667</ele><time>2026-04-28T14:20:21.013Z</time></trkpt><trkpt lat="35.81366" lon="-5.7130367"><ele>56.33333333333333</ele><time>2026-04-28T14:20:22.013Z</time></trkpt><trkpt lat="35.81363" lon="-5.71283"><ele>55.0</ele><time>2026-04-28T14:20:23.013Z</time></trkpt><trkpt lat="35.81361" lon="-5.7126283"><ele>59.0</ele><time>2026-04-28T14:20:24.012Z</time></trkpt><trkpt lat="35.81361" lon="-5.7124267"><ele>63.0</ele><time>2026-04-28T14:20:25.013Z</time></trkpt><trkpt lat="35.8136267" lon="-5.71222"><ele>67.0</ele><time>2026-04-28T14:20:26.012Z</time></trkpt><trkpt lat="35.8136567" lon="-5.7120117"><ele>70.0</ele><time>2026-04-28T14:20:27.013Z</time></trkpt><trkpt lat="35.8136967" lon="-5.71181"><ele>73.0</ele><time>2026-04-28T14:20:28.013Z</time></trkpt><trkpt lat="35.8137483" lon="-5.7116167"><ele>76.0</ele><time>2026-04-28T14:20:29.012Z</time></trkpt><trkpt lat="35.81381" lon="-5.7114333"><ele>76.0</ele><time>2026-04-28T14:20:30.013Z</time></trkpt><trkpt lat="35.813875" lon="-5.711255"><ele>76.0</ele><time>2026-04-28T14:20:31.013Z</time></trkpt><trkpt lat="35.8139517" lon="-5.7110683"><ele>76.0</ele><time>2026-04-28T14:20:32.013Z</time></trkpt><trkpt lat="35.8140233" lon="-5.7108767"><ele>76.0</ele><time>2026-04-28T14:20:33.013Z</time></trkpt><trkpt lat="35.81409" lon="-5.7106867"><ele>76.0</ele><time>2026-04-28T14:20:34.013Z</time></trkpt><trkpt lat="35.8141567" lon="-5.7104967"><ele>76.0</ele><time>2026-04-28T14:20:35.013Z</time></trkpt><trkpt lat="35.8142333" lon="-5.71031"><ele>78.0</ele><time>2026-04-28T14:20:36.013Z</time></trkpt><trkpt lat="35.8143267" lon="-5.71013"><ele>80.0</ele><time>2026-04-28T14:20:37.013Z</time></trkpt><trkpt lat="35.81443" lon="-5.709955"><ele>82.0</ele><time>2026-04-28T14:20:38.013Z</time></trkpt><trkpt lat="35.8145483" lon="-5.7098067"><ele>82.0</ele><time>2026-04-28T14:20:39.013Z</time></trkpt><trkpt lat="35.8146783" lon="-5.7096867"><ele>82.0</ele><time>2026-04-28T14:20:40.013Z</time></trkpt><trkpt lat="35.8148217" lon="-5.7096183"><ele>82.0</ele><time>2026-04-28T14:20:41.013Z</time></trkpt><trkpt lat="35.8149667" lon="-5.7095917"><ele>82.0</ele><time>2026-04-28T14:20:42.012Z</time></trkpt><trkpt lat="35.8151217" lon="-5.7095883"><ele>82.0</ele><time>2026-04-28T14:20:43.013Z</time></trkpt><trkpt lat="35.81528" lon="-5.70961"><ele>82.0</ele><time>2026-04-28T14:20:44.013Z</time></trkpt><trkpt lat="35.81545" lon="-5.7096517"><ele>84.66666666666666</ele><time>2026-04-28T14:20:45.013Z</time></trkpt><trkpt lat="35.81562" lon="-5.7097017"><ele>87.33333333333333</ele><time>2026-04-28T14:20:46.013Z</time></trkpt><trkpt lat="35.8158017" lon="-5.70976"><ele>90.0</ele><time>2026-04-28T14:20:47.013Z</time></trkpt><trkpt lat="35.81599" lon="-5.7098183"><ele>91.0</ele><time>2026-04-28T14:20:48.013Z</time></trkpt><trkpt lat="35.816165" lon="-5.7098733"><ele>92.0</ele><time>2026-04-28T14:20:49.013Z</time></trkpt><trkpt lat="35.8163333" lon="-5.7099267"><ele>93.0</ele><time>2026-04-28T14:20:50.013Z</time></trkpt><trkpt lat="35.8165" lon="-5.7099767"><ele>93.0</ele><time>2026-04-28T14:20:51.013Z</time></trkpt><trkpt lat="35.816665" lon="-5.7100267"><ele>93.0</ele><time>2026-04-28T14:20:52.013Z</time></trkpt><trkpt lat="35.8168383" lon="-5.7100717"><ele>93.0</ele><time>2026-04-28T14:20:53.013Z</time></trkpt><trkpt lat="35.8170033" lon="-5.71013"><ele>91.33333333333333</ele><time>2026-04-28T14:20:54.013Z</time></trkpt><trkpt lat="35.8171567" lon="-5.7102017"><ele>89.66666666666666</ele><time>2026-04-28T14:20:55.013Z</time></trkpt><trkpt lat="35.8172917" lon="-5.710295"><ele>88.0</ele><time>2026-04-28T14:20:56.013Z</time></trkpt><trkpt lat="35.8174233" lon="-5.7104017"><ele>88.0</ele><time>2026-04-28T14:20:57.013Z</time></trkpt><trkpt lat="35.8175533" lon="-5.71052"><ele>88.0</ele><time>2026-04-28T14:20:58.013Z</time></trkpt><trkpt lat="35.8176767" lon="-5.7106417"><ele>88.0</ele><time>2026-04-28T14:20:59.012Z</time></trkpt><trkpt lat="35.8177983" lon="-5.710765"><ele>85.0</ele><time>2026-04-28T14:21:00.013Z</time></trkpt><trkpt lat="35.8179233" lon="-5.7108867"><ele>82.0</ele><time>2026-04-28T14:21:01.013Z</time></trkpt><trkpt lat="35.81805" lon="-5.7110033"><ele>79.0</ele><time>2026-04-28T14:21:02.013Z</time></trkpt><trkpt lat="35.8181767" lon="-5.7111117"><ele>79.0</ele><time>2026-04-28T14:21:03.013Z</time></trkpt><trkpt lat="35.81832" lon="-5.7112017"><ele>79.0</ele><time>2026-04-28T14:21:04.013Z</time></trkpt><trkpt lat="35.81847" lon="-5.7112667"><ele>79.0</ele><time>2026-04-28T14:21:05.013Z</time></trkpt><trkpt lat="35.8186167" lon="-5.711315"><ele>78.25</ele><time>2026-04-28T14:21:06.013Z</time></trkpt><trkpt lat="35.8187733" lon="-5.7113433"><ele>77.5</ele><time>2026-04-28T14:21:07.013Z</time></trkpt><trkpt lat="35.8189217" lon="-5.7113567"><ele>76.75</ele><time>2026-04-28T14:21:08.013Z</time></trkpt><trkpt lat="35.81905" lon="-5.71135"><ele>76.0</ele><time>2026-04-28T14:21:09.013Z</time></trkpt><trkpt lat="35.8191583" lon="-5.711325"><ele>76.0</ele><time>2026-04-28T14:21:10.013Z</time></trkpt><trkpt lat="35.8192433" lon="-5.7113"><ele>76.0</ele><time>2026-04-28T14:21:11.013Z</time></trkpt><trkpt lat="35.8193117" lon="-5.71127"><ele>76.0</ele><time>2026-04-28T14:21:12.013Z</time></trkpt><trkpt lat="35.81939" lon="-5.7112333"><ele>76.0</ele><time>2026-04-28T14:21:13.013Z</time></trkpt><trkpt lat="35.8194883" lon="-5.7111917"><ele>76.0</ele><time>2026-04-28T14:21:14.012Z</time></trkpt><trkpt lat="35.8195917" lon="-5.7111367"><ele>72.5</ele><time>2026-04-28T14:21:15.013Z</time></trkpt><trkpt lat="35.8197133" lon="-5.7110667"><ele>69.0</ele><time>2026-04-28T14:21:16.012Z</time></trkpt><trkpt lat="35.81984" lon="-5.710985"><ele>65.5</ele><time>2026-04-28T14:21:17.013Z</time></trkpt><trkpt lat="35.8199717" lon="-5.7109117"><ele>62.0</ele><time>2026-04-28T14:21:18.012Z</time></trkpt><trkpt lat="35.8201017" lon="-5.7108383"><ele>61.5</ele><time>2026-04-28T14:21:19.013Z</time></trkpt><trkpt lat="35.82023" lon="-5.7107633"><ele>61.0</ele><time>2026-04-28T14:21:20.013Z</time></trkpt><trkpt lat="35.8203567" lon="-5.7106967"><ele>60.5</ele><time>2026-04-28T14:21:21.013Z</time></trkpt><trkpt lat="35.8204767" lon="-5.7106283"><ele>60.0</ele><time>2026-04-28T14:21:22.013Z</time></trkpt><trkpt lat="35.8206" lon="-5.710555"><ele>60.0</ele><time>2026-04-28T14:21:23.013Z</time></trkpt><trkpt lat="35.8207183" lon="-5.7104767"><ele>60.0</ele><time>2026-04-28T14:21:24.013Z</time></trkpt><trkpt lat="35.8208383" lon="-5.7104033"><ele>60.0</ele><time>2026-04-28T14:21:25.013Z</time></trkpt><trkpt lat="35.820955" lon="-5.7103317"><ele>60.0</ele><time>2026-04-28T14:21:26.013Z</time></trkpt><trkpt lat="35.8210717" lon="-5.7102617"><ele>56.75</ele><time>2026-04-28T14:21:27.013Z</time></trkpt><trkpt lat="35.821195" lon="-5.7101883"><ele>53.5</ele><time>2026-04-28T14:21:28.013Z</time></trkpt><trkpt lat="35.82132" lon="-5.7101133"><ele>50.25</ele><time>2026-04-28T14:21:29.013Z</time></trkpt><trkpt lat="35.8214417" lon="-5.7100417"><ele>47.0</ele><time>2026-04-28T14:21:30.013Z</time></trkpt><trkpt lat="35.82156" lon="-5.70997"><ele>47.0</ele><time>2026-04-28T14:21:31.013Z</time></trkpt><trkpt lat="35.821675" lon="-5.7098983"><ele>47.0</ele><time>2026-04-28T14:21:32.013Z</time></trkpt><trkpt lat="35.8217917" lon="-5.7098333"><ele>47.0</ele><time>2026-04-28T14:21:33.013Z</time></trkpt><trkpt lat="35.821905" lon="-5.7097683"><ele>47.0</ele><time>2026-04-28T14:21:34.013Z</time></trkpt><trkpt lat="35.8220167" lon="-5.7097033"><ele>48.25</ele><time>2026-04-28T14:21:35.013Z</time></trkpt><trkpt lat="35.8221317" lon="-5.709635"><ele>49.5</ele><time>2026-04-28T14:21:36.013Z</time></trkpt><trkpt lat="35.822245" lon="-5.70957"><ele>50.75</ele><time>2026-04-28T14:21:37.013Z</time></trkpt><trkpt lat="35.8223533" lon="-5.709505"><ele>52.0</ele><time>2026-04-28T14:21:38.012Z</time></trkpt><trkpt lat="35.82247" lon="-5.7094417"><ele>47.0</ele><time>2026-04-28T14:21:39.012Z</time></trkpt><trkpt lat="35.822595" lon="-5.7093767"><ele>42.0</ele><time>2026-04-28T14:21:40.012Z</time></trkpt><trkpt lat="35.8227417" lon="-5.7093133"><ele>37.0</ele><time>2026-04-28T14:21:41.012Z</time></trkpt><trkpt lat="35.8229067" lon="-5.7092417"><ele>36.0</ele><time>2026-04-28T14:21:42.012Z</time></trkpt><trkpt lat="35.8230833" lon="-5.7091733"><ele>35.0</ele><time>2026-04-28T14:21:43.012Z</time></trkpt><trkpt lat="35.82328" lon="-5.7091067"><ele>34.0</ele><time>2026-04-28T14:21:44.012Z</time></trkpt><trkpt lat="35.8234917" lon="-5.7090533"><ele>31.666666666666668</ele><time>2026-04-28T14:21:45.012Z</time></trkpt><trkpt lat="35.8237033" lon="-5.7089817"><ele>29.333333333333336</ele><time>2026-04-28T14:21:46.012Z</time></trkpt><trkpt lat="35.8239083" lon="-5.7089167"><ele>27.0</ele><time>2026-04-28T14:21:47.012Z</time></trkpt><trkpt lat="35.8240967" lon="-5.7088633"><ele>27.0</ele><time>2026-04-28T14:21:48.012Z</time></trkpt><trkpt lat="35.82429" lon="-5.708815"><ele>27.0</ele><time>2026-04-28T14:21:49.011Z</time></trkpt><trkpt lat="35.8244733" lon="-5.708765"><ele>27.0</ele><time>2026-04-28T14:21:50.012Z</time></trkpt><trkpt lat="35.8246567" lon="-5.7087083"><ele>26.666666666666664</ele><time>2026-04-28T14:21:51.011Z</time></trkpt><trkpt lat="35.82485" lon="-5.7086517"><ele>26.333333333333332</ele><time>2026-04-28T14:21:52.011Z</time></trkpt><trkpt lat="35.82504" lon="-5.7085933"><ele>26.0</ele><time>2026-04-28T14:21:53.012Z</time></trkpt><trkpt lat="35.8252167" lon="-5.70854"><ele>26.0</ele><time>2026-04-28T14:21:54.012Z</time></trkpt><trkpt lat="35.8254033" lon="-5.7084783"><ele>26.0</ele><time>2026-04-28T14:21:55.012Z</time></trkpt><trkpt lat="35.8255817" lon="-5.7084117"><ele>26.0</ele><time>2026-04-28T14:21:56.012Z</time></trkpt><trkpt lat="35.8257517" lon="-5.70834"><ele>26.0</ele><time>2026-04-28T14:21:57.012Z</time></trkpt><trkpt lat="35.8259233" lon="-5.7082517"><ele>26.0</ele><time>2026-04-28T14:21:58.012Z</time></trkpt><trkpt lat="35.82609" lon="-5.7081583"><ele>26.0</ele><time>2026-04-28T14:21:59.012Z</time></trkpt><trkpt lat="35.826265" lon="-5.7080483"><ele>28.333333333333332</ele><time>2026-04-28T14:22:00.012Z</time></trkpt><trkpt lat="35.8264367" lon="-5.70793"><ele>30.666666666666664</ele><time>2026-04-28T14:22:01.012Z</time></trkpt><trkpt lat="35.8265933" lon="-5.7078067"><ele>33.0</ele><time>2026-04-28T14:22:02.012Z</time></trkpt><trkpt lat="35.8267483" lon="-5.7076917"><ele>28.333333333333332</ele><time>2026-04-28T14:22:03.012Z</time></trkpt><trkpt lat="35.8269083" lon="-5.707565"><ele>23.666666666666664</ele><time>2026-04-28T14:22:04.012Z</time></trkpt><trkpt lat="35.82706" lon="-5.7074167"><ele>19.0</ele><time>2026-04-28T14:22:05.012Z</time></trkpt><trkpt lat="35.82721" lon="-5.7072617"><ele>19.0</ele><time>2026-04-28T14:22:06.012Z</time></trkpt><trkpt lat="35.8273517" lon="-5.707105"><ele>19.0</ele><time>2026-04-28T14:22:07.011Z</time></trkpt><trkpt lat="35.8274883" lon="-5.7069467"><ele>19.0</ele><time>2026-04-28T14:22:08.012Z</time></trkpt><trkpt lat="35.8276233" lon="-5.7067783"><ele>14.0</ele><time>2026-04-28T14:22:09.012Z</time></trkpt><trkpt lat="35.82775" lon="-5.706615"><ele>9.0</ele><time>2026-04-28T14:22:10.012Z</time></trkpt><trkpt lat="35.8278667" lon="-5.7064467"><ele>4.0</ele><time>2026-04-28T14:22:11.012Z</time></trkpt><trkpt lat="35.8279817" lon="-5.70628"><ele>4.0</ele><time>2026-04-28T14:22:12.012Z</time></trkpt><trkpt lat="35.8280883" lon="-5.7061117"><ele>4.0</ele><time>2026-04-28T14:22:13.012Z</time></trkpt><trkpt lat="35.8281867" lon="-5.7059383"><ele>4.0</ele><time>2026-04-28T14:22:14.012Z</time></trkpt><trkpt lat="35.8282783" lon="-5.705765"><ele>4.25</ele><time>2026-04-28T14:22:15.012Z</time></trkpt><trkpt lat="35.8283633" lon="-5.7056017"><ele>4.5</ele><time>2026-04-28T14:22:16.012Z</time></trkpt><trkpt lat="35.8284267" lon="-5.7054483"><ele>4.75</ele><time>2026-04-28T14:22:17.012Z</time></trkpt><trkpt lat="35.8284817" lon="-5.7053183"><ele>5.0</ele><time>2026-04-28T14:22:18.011Z</time></trkpt><trkpt lat="35.8285217" lon="-5.7052017"><ele>6.0</ele><time>2026-04-28T14:22:19.012Z</time></trkpt><trkpt lat="35.8285533" lon="-5.7050983"><ele>7.0</ele><time>2026-04-28T14:22:20.011Z</time></trkpt><trkpt lat="35.82859" lon="-5.7050117"><ele>8.0</ele><time>2026-04-28T14:22:21.012Z</time></trkpt><trkpt lat="35.8286183" lon="-5.7049283"><ele>9.0</ele><time>2026-04-28T14:22:22.012Z</time></trkpt><trkpt lat="35.8286433" lon="-5.704855"><ele>10.0</ele><time>2026-04-28T14:22:23.012Z</time></trkpt><trkpt lat="35.8286983" lon="-5.704715"><ele>11.0</ele><time>2026-04-28T14:22:25.012Z</time></trkpt><trkpt lat="35.8287283" lon="-5.70463"><ele>11.0</ele><time>2026-04-28T14:22:26.012Z</time></trkpt><trkpt lat="35.82876" lon="-5.7045283"><ele>11.0</ele><time>2026-04-28T14:22:27.012Z</time></trkpt><trkpt lat="35.8287933" lon="-5.704415"><ele>11.0</ele><time>2026-04-28T14:22:28.012Z</time></trkpt><trkpt lat="35.828825" lon="-5.7043017"><ele>11.0</ele><time>2026-04-28T14:22:29.012Z</time></trkpt><trkpt lat="35.82885" lon="-5.704195"><ele>11.0</ele><time>2026-04-28T14:22:30.012Z</time></trkpt><trkpt lat="35.8288717" lon="-5.7040983"><ele>11.8</ele><time>2026-04-28T14:22:31.011Z</time></trkpt><trkpt lat="35.8288917" lon="-5.7039867"><ele>12.600000000000001</ele><time>2026-04-28T14:22:32.012Z</time></trkpt><trkpt lat="35.8289183" lon="-5.70387"><ele>13.4</ele><time>2026-04-28T14:22:33.012Z</time></trkpt><trkpt lat="35.8289483" lon="-5.703735"><ele>14.2</ele><time>2026-04-28T14:22:34.012Z</time></trkpt><trkpt lat="35.82898" lon="-5.703585"><ele>15.0</ele><time>2026-04-28T14:22:35.012Z</time></trkpt><trkpt lat="35.8290067" lon="-5.70342"><ele>16.0</ele><time>2026-04-28T14:22:36.012Z</time></trkpt><trkpt lat="35.82903" lon="-5.7032367"><ele>17.0</ele><time>2026-04-28T14:22:37.011Z</time></trkpt><trkpt lat="35.829055" lon="-5.7030417"><ele>18.0</ele><time>2026-04-28T14:22:38.011Z</time></trkpt><trkpt lat="35.82907" lon="-5.7028383"><ele>17.0</ele><time>2026-04-28T14:22:39.012Z</time></trkpt><trkpt lat="35.82908" lon="-5.7026417"><ele>16.0</ele><time>2026-04-28T14:22:40.012Z</time></trkpt><trkpt lat="35.82908" lon="-5.70245"><ele>15.0</ele><time>2026-04-28T14:22:41.012Z</time></trkpt><trkpt lat="35.8290817" lon="-5.70227"><ele>15.0</ele><time>2026-04-28T14:22:42.012Z</time></trkpt><trkpt lat="35.8290817" lon="-5.702095"><ele>15.0</ele><time>2026-04-28T14:22:43.012Z</time></trkpt><trkpt lat="35.82908" lon="-5.7019133"><ele>15.0</ele><time>2026-04-28T14:22:44.012Z</time></trkpt><trkpt lat="35.82908" lon="-5.7017267"><ele>15.0</ele><time>2026-04-28T14:22:45.012Z</time></trkpt><trkpt lat="35.8290783" lon="-5.70155"><ele>14.25</ele><time>2026-04-28T14:22:46.011Z</time></trkpt><trkpt lat="35.82908" lon="-5.7013833"><ele>13.5</ele><time>2026-04-28T14:22:47.012Z</time></trkpt><trkpt lat="35.82907" lon="-5.701215"><ele>12.75</ele><time>2026-04-28T14:22:48.012Z</time></trkpt><trkpt lat="35.8290617" lon="-5.7010583"><ele>12.0</ele><time>2026-04-28T14:22:49.012Z</time></trkpt><trkpt lat="35.82906" lon="-5.7008983"><ele>11.0</ele><time>2026-04-28T14:22:50.012Z</time></trkpt><trkpt lat="35.829055" lon="-5.7007433"><ele>10.0</ele><time>2026-04-28T14:22:51.012Z</time></trkpt><trkpt lat="35.8290517" lon="-5.7005883"><ele>9.0</ele><time>2026-04-28T14:22:52.012Z</time></trkpt><trkpt lat="35.8290567" lon="-5.7004383"><ele>8.0</ele><time>2026-04-28T14:22:53.012Z</time></trkpt><trkpt lat="35.829065" lon="-5.7002883"><ele>7.25</ele><time>2026-04-28T14:22:54.012Z</time></trkpt><trkpt lat="35.8290667" lon="-5.7001317"><ele>6.5</ele><time>2026-04-28T14:22:55.012Z</time></trkpt><trkpt lat="35.8290667" lon="-5.6999717"><ele>5.75</ele><time>2026-04-28T14:22:56.012Z</time></trkpt><trkpt lat="35.8290683" lon="-5.69981"><ele>5.0</ele><time>2026-04-28T14:22:57.012Z</time></trkpt><trkpt lat="35.8290617" lon="-5.6996517"><ele>5.0</ele><time>2026-04-28T14:22:58.012Z</time></trkpt><trkpt lat="35.8290533" lon="-5.6994767"><ele>5.0</ele><time>2026-04-28T14:22:59.011Z</time></trkpt><trkpt lat="35.8290417" lon="-5.6992967"><ele>5.0</ele><time>2026-04-28T14:23:00.012Z</time></trkpt><trkpt lat="35.8290183" lon="-5.6991133"><ele>5.0</ele><time>2026-04-28T14:23:01.012Z</time></trkpt><trkpt lat="35.8289983" lon="-5.6989233"><ele>7.333333333333334</ele><time>2026-04-28T14:23:02.012Z</time></trkpt><trkpt lat="35.8289617" lon="-5.6987283"><ele>9.666666666666666</ele><time>2026-04-28T14:23:03.012Z</time></trkpt><trkpt lat="35.8289267" lon="-5.698535"><ele>12.0</ele><time>2026-04-28T14:23:04.012Z</time></trkpt><trkpt lat="35.8288783" lon="-5.6983383"><ele>14.666666666666668</ele><time>2026-04-28T14:23:05.011Z</time></trkpt><trkpt lat="35.8288267" lon="-5.6981433"><ele>17.333333333333336</ele><time>2026-04-28T14:23:06.011Z</time></trkpt><trkpt lat="35.8287633" lon="-5.6979483"><ele>20.0</ele><time>2026-04-28T14:23:07.012Z</time></trkpt><trkpt lat="35.8287" lon="-5.6977617"><ele>22.666666666666668</ele><time>2026-04-28T14:23:08.012Z</time></trkpt><trkpt lat="35.82863" lon="-5.6975817"><ele>25.333333333333336</ele><time>2026-04-28T14:23:09.012Z</time></trkpt><trkpt lat="35.8285617" lon="-5.6974083"><ele>28.0</ele><time>2026-04-28T14:23:10.012Z</time></trkpt><trkpt lat="35.828495" lon="-5.69724"><ele>27.333333333333336</ele><time>2026-04-28T14:23:11.012Z</time></trkpt><trkpt lat="35.8284283" lon="-5.6970667"><ele>26.666666666666664</ele><time>2026-04-28T14:23:12.012Z</time></trkpt><trkpt lat="35.8283617" lon="-5.6969033"><ele>26.0</ele><time>2026-04-28T14:23:13.012Z</time></trkpt><trkpt lat="35.8283" lon="-5.6967367"><ele>26.0</ele><time>2026-04-28T14:23:14.012Z</time></trkpt><trkpt lat="35.8282383" lon="-5.696575"><ele>26.0</ele><time>2026-04-28T14:23:15.012Z</time></trkpt><trkpt lat="35.8281783" lon="-5.696405"><ele>26.0</ele><time>2026-04-28T14:23:16.012Z</time></trkpt><trkpt lat="35.828115" lon="-5.6962367"><ele>26.0</ele><time>2026-04-28T14:23:17.012Z</time></trkpt><trkpt lat="35.8280583" lon="-5.69607"><ele>29.333333333333332</ele><time>2026-04-28T14:23:18.012Z</time></trkpt><trkpt lat="35.8280083" lon="-5.695895"><ele>32.666666666666664</ele><time>2026-04-28T14:23:19.012Z</time></trkpt><trkpt lat="35.827965" lon="-5.6957183"><ele>36.0</ele><time>2026-04-28T14:23:20.012Z</time></trkpt><trkpt lat="35.8279333" lon="-5.6955267"><ele>36.0</ele><time>2026-04-28T14:23:21.012Z</time></trkpt><trkpt lat="35.8279067" lon="-5.695335"><ele>36.0</ele><time>2026-04-28T14:23:22.012Z</time></trkpt><trkpt lat="35.8278817" lon="-5.6951367"><ele>36.0</ele><time>2026-04-28T14:23:23.012Z</time></trkpt><trkpt lat="35.8278617" lon="-5.69493"><ele>38.333333333333336</ele><time>2026-04-28T14:23:24.012Z</time></trkpt><trkpt lat="35.827835" lon="-5.6947283"><ele>40.66666666666667</ele><time>2026-04-28T14:23:25.012Z</time></trkpt><trkpt lat="35.8278167" lon="-5.694525"><ele>43.0</ele><time>2026-04-28T14:23:26.012Z</time></trkpt><trkpt lat="35.8277983" lon="-5.6943233"><ele>44.333333333333336</ele><time>2026-04-28T14:23:27.011Z</time></trkpt><trkpt lat="35.827785" lon="-5.6941183"><ele>45.666666666666664</ele><time>2026-04-28T14:23:28.012Z</time></trkpt><trkpt lat="35.8277767" lon="-5.6939117"><ele>47.0</ele><time>2026-04-28T14:23:29.012Z</time></trkpt><trkpt lat="35.827765" lon="-5.6937"><ele>48.666666666666664</ele><time>2026-04-28T14:23:30.012Z</time></trkpt><trkpt lat="35.8277467" lon="-5.6934917"><ele>50.33333333333333</ele><time>2026-04-28T14:23:31.012Z</time></trkpt><trkpt lat="35.827725" lon="-5.6932883"><ele>52.0</ele><time>2026-04-28T14:23:32.012Z</time></trkpt><trkpt lat="35.8277017" lon="-5.6930767"><ele>52.0</ele><time>2026-04-28T14:23:33.012Z</time></trkpt><trkpt lat="35.827675" lon="-5.6928667"><ele>52.0</ele><time>2026-04-28T14:23:34.012Z</time></trkpt><trkpt lat="35.8276517" lon="-5.6926583"><ele>52.0</ele><time>2026-04-28T14:23:35.012Z</time></trkpt><trkpt lat="35.8276317" lon="-5.69245"><ele>52.666666666666664</ele><time>2026-04-28T14:23:36.012Z</time></trkpt><trkpt lat="35.827605" lon="-5.6922333"><ele>53.33333333333333</ele><time>2026-04-28T14:23:37.012Z</time></trkpt><trkpt lat="35.8275817" lon="-5.69202"><ele>54.0</ele><time>2026-04-28T14:23:38.012Z</time></trkpt><trkpt lat="35.827555" lon="-5.69181"><ele>54.0</ele><time>2026-04-28T14:23:39.012Z</time></trkpt><trkpt lat="35.8275283" lon="-5.6915967"><ele>54.0</ele><time>2026-04-28T14:23:40.012Z</time></trkpt><trkpt lat="35.827505" lon="-5.6913783"><ele>54.0</ele><time>2026-04-28T14:23:41.012Z</time></trkpt><trkpt lat="35.827485" lon="-5.691165"><ele>54.66666666666667</ele><time>2026-04-28T14:23:42.012Z</time></trkpt><trkpt lat="35.82747" lon="-5.6909467"><ele>55.333333333333336</ele><time>2026-04-28T14:23:43.012Z</time></trkpt><trkpt lat="35.8274583" lon="-5.6907367"><ele>56.0</ele><time>2026-04-28T14:23:44.012Z</time></trkpt><trkpt lat="35.82745" lon="-5.690525"><ele>56.0</ele><time>2026-04-28T14:23:45.012Z</time></trkpt><trkpt lat="35.8274433" lon="-5.6903133"><ele>56.0</ele><time>2026-04-28T14:23:46.012Z</time></trkpt><trkpt lat="35.8274567" lon="-5.6901"><ele>56.0</ele><time>2026-04-28T14:23:47.012Z</time></trkpt><trkpt lat="35.8274783" lon="-5.6898867"><ele>57.66666666666667</ele><time>2026-04-28T14:23:48.012Z</time></trkpt><trkpt lat="35.82752" lon="-5.689675"><ele>59.33333333333333</ele><time>2026-04-28T14:23:49.012Z</time></trkpt><trkpt lat="35.8275817" lon="-5.6894817"><ele>61.0</ele><time>2026-04-28T14:23:50.012Z</time></trkpt><trkpt lat="35.8276567" lon="-5.6893017"><ele>63.33333333333333</ele><time>2026-04-28T14:23:51.012Z</time></trkpt><trkpt lat="35.8277467" lon="-5.6891167"><ele>65.66666666666667</ele><time>2026-04-28T14:23:52.012Z</time></trkpt><trkpt lat="35.82785" lon="-5.6889483"><ele>68.0</ele><time>2026-04-28T14:23:53.012Z</time></trkpt><trkpt lat="35.827965" lon="-5.6887917"><ele>68.0</ele><time>2026-04-28T14:23:54.012Z</time></trkpt><trkpt lat="35.8280967" lon="-5.6886417"><ele>68.0</ele><time>2026-04-28T14:23:55.012Z</time></trkpt><trkpt lat="35.8282367" lon="-5.68849"><ele>68.0</ele><time>2026-04-28T14:23:56.012Z</time></trkpt><trkpt lat="35.828385" lon="-5.6883417"><ele>71.33333333333334</ele><time>2026-04-28T14:23:57.012Z</time></trkpt><trkpt lat="35.8285367" lon="-5.68819"><ele>74.66666666666667</ele><time>2026-04-28T14:23:58.012Z</time></trkpt><trkpt lat="35.828695" lon="-5.688035"><ele>78.0</ele><time>2026-04-28T14:23:59.012Z</time></trkpt><trkpt lat="35.8288517" lon="-5.6878717"><ele>80.33333333333333</ele><time>2026-04-28T14:24:00.012Z</time></trkpt><trkpt lat="35.8289983" lon="-5.68771"><ele>82.66666666666666</ele><time>2026-04-28T14:24:01.012Z</time></trkpt><trkpt lat="35.829135" lon="-5.68754"><ele>85.0</ele><time>2026-04-28T14:24:02.011Z</time></trkpt><trkpt lat="35.82925" lon="-5.6873517"><ele>85.0</ele><time>2026-04-28T14:24:03.012Z</time></trkpt><trkpt lat="35.8293533" lon="-5.6871483"><ele>85.0</ele><time>2026-04-28T14:24:04.012Z</time></trkpt><trkpt lat="35.829435" lon="-5.68694"><ele>85.0</ele><time>2026-04-28T14:24:05.011Z</time></trkpt><trkpt lat="35.8294983" lon="-5.6867267"><ele>85.0</ele><time>2026-04-28T14:24:06.012Z</time></trkpt><trkpt lat="35.8295433" lon="-5.686505"><ele>85.0</ele><time>2026-04-28T14:24:07.012Z</time></trkpt><trkpt lat="35.8295667" lon="-5.6862883"><ele>85.0</ele><time>2026-04-28T14:24:08.012Z</time></trkpt><trkpt lat="35.8295683" lon="-5.686075"><ele>87.66666666666666</ele><time>2026-04-28T14:24:09.012Z</time></trkpt><trkpt lat="35.829555" lon="-5.6858533"><ele>90.33333333333333</ele><time>2026-04-28T14:24:10.012Z</time></trkpt><trkpt lat="35.829525" lon="-5.68564"><ele>93.0</ele><time>2026-04-28T14:24:11.012Z</time></trkpt><trkpt lat="35.82948" lon="-5.6854283"><ele>95.0</ele><time>2026-04-28T14:24:12.011Z</time></trkpt><trkpt lat="35.8294117" lon="-5.685225"><ele>97.0</ele><time>2026-04-28T14:24:13.012Z</time></trkpt><trkpt lat="35.8293317" lon="-5.6850333"><ele>99.0</ele><time>2026-04-28T14:24:14.012Z</time></trkpt><trkpt lat="35.8292333" lon="-5.6848517"><ele>102.0</ele><time>2026-04-28T14:24:15.012Z</time></trkpt><trkpt lat="35.8291267" lon="-5.6846867"><ele>105.0</ele><time>2026-04-28T14:24:16.012Z</time></trkpt><trkpt lat="35.8290017" lon="-5.68453"><ele>108.0</ele><time>2026-04-28T14:24:17.012Z</time></trkpt><trkpt lat="35.8288783" lon="-5.684375"><ele>108.0</ele><time>2026-04-28T14:24:18.012Z</time></trkpt><trkpt lat="35.82875" lon="-5.684225"><ele>108.0</ele><time>2026-04-28T14:24:19.012Z</time></trkpt><trkpt lat="35.8286267" lon="-5.684075"><ele>108.0</ele><time>2026-04-28T14:24:20.012Z</time></trkpt><trkpt lat="35.8284983" lon="-5.68392"><ele>112.66666666666666</ele><time>2026-04-28T14:24:21.012Z</time></trkpt><trkpt lat="35.8283717" lon="-5.683765"><ele>117.33333333333333</ele><time>2026-04-28T14:24:22.012Z</time></trkpt><trkpt lat="35.828245" lon="-5.6836083"><ele>122.0</ele><time>2026-04-28T14:24:23.012Z</time></trkpt><trkpt lat="35.8281183" lon="-5.6834433"><ele>122.0</ele><time>2026-04-28T14:24:24.012Z</time></trkpt><trkpt lat="35.8279867" lon="-5.6832767"><ele>122.0</ele><time>2026-04-28T14:24:25.012Z</time></trkpt><trkpt lat="35.8278533" lon="-5.6831133"><ele>122.0</ele><time>2026-04-28T14:24:26.012Z</time></trkpt><trkpt lat="35.8277133" lon="-5.682945"><ele>124.0</ele><time>2026-04-28T14:24:27.012Z</time></trkpt><trkpt lat="35.8275733" lon="-5.682775"><ele>126.0</ele><time>2026-04-28T14:24:28.012Z</time></trkpt><trkpt lat="35.8274433" lon="-5.682605"><ele>128.0</ele><time>2026-04-28T14:24:29.012Z</time></trkpt><trkpt lat="35.8273233" lon="-5.6824417"><ele>128.0</ele><time>2026-04-28T14:24:30.012Z</time></trkpt><trkpt lat="35.827215" lon="-5.6822833"><ele>128.0</ele><time>2026-04-28T14:24:31.012Z</time></trkpt><trkpt lat="35.82712" lon="-5.68212"><ele>128.0</ele><time>2026-04-28T14:24:32.012Z</time></trkpt><trkpt lat="35.82704" lon="-5.68194"><ele>123.66666666666666</ele><time>2026-04-28T14:24:33.012Z</time></trkpt><trkpt lat="35.8269767" lon="-5.681745"><ele>119.33333333333334</ele><time>2026-04-28T14:24:34.012Z</time></trkpt><trkpt lat="35.826945" lon="-5.6815467"><ele>115.0</ele><time>2026-04-28T14:24:35.012Z</time></trkpt><trkpt lat="35.826935" lon="-5.6813417"><ele>115.0</ele><time>2026-04-28T14:24:36.012Z</time></trkpt><trkpt lat="35.826945" lon="-5.6811267"><ele>115.0</ele><time>2026-04-28T14:24:37.012Z</time></trkpt><trkpt lat="35.8269683" lon="-5.6808983"><ele>115.0</ele><time>2026-04-28T14:24:38.012Z</time></trkpt><trkpt lat="35.8270167" lon="-5.680675"><ele>116.0</ele><time>2026-04-28T14:24:39.012Z</time></trkpt><trkpt lat="35.8270817" lon="-5.680475"><ele>117.0</ele><time>2026-04-28T14:24:40.012Z</time></trkpt><trkpt lat="35.82717" lon="-5.6802883"><ele>118.0</ele><time>2026-04-28T14:24:41.012Z</time></trkpt><trkpt lat="35.82727" lon="-5.6801167"><ele>118.0</ele><time>2026-04-28T14:24:42.012Z</time></trkpt><trkpt lat="35.8273933" lon="-5.67997"><ele>118.0</ele><time>2026-04-28T14:24:43.012Z</time></trkpt><trkpt lat="35.8275333" lon="-5.6798367"><ele>118.0</ele><time>2026-04-28T14:24:44.012Z</time></trkpt><trkpt lat="35.8276817" lon="-5.67972"><ele>117.0</ele><time>2026-04-28T14:24:45.012Z</time></trkpt><trkpt lat="35.827835" lon="-5.6796033"><ele>116.0</ele><time>2026-04-28T14:24:46.012Z</time></trkpt><trkpt lat="35.8279783" lon="-5.679495"><ele>115.0</ele><time>2026-04-28T14:24:47.012Z</time></trkpt><trkpt lat="35.8281167" lon="-5.6793833"><ele>115.0</ele><time>2026-04-28T14:24:48.012Z</time></trkpt><trkpt lat="35.8282517" lon="-5.67927"><ele>115.0</ele><time>2026-04-28T14:24:49.012Z</time></trkpt><trkpt lat="35.8283883" lon="-5.679155"><ele>115.0</ele><time>2026-04-28T14:24:50.012Z</time></trkpt><trkpt lat="35.8285167" lon="-5.6790367"><ele>112.0</ele><time>2026-04-28T14:24:51.012Z</time></trkpt><trkpt lat="35.8286317" lon="-5.678895"><ele>109.0</ele><time>2026-04-28T14:24:52.012Z</time></trkpt><trkpt lat="35.8287133" lon="-5.678735"><ele>106.0</ele><time>2026-04-28T14:24:53.012Z</time></trkpt><trkpt lat="35.8287733" lon="-5.6785633"><ele>106.0</ele><time>2026-04-28T14:24:54.012Z</time></trkpt><trkpt lat="35.8288117" lon="-5.6783767"><ele>106.0</ele><time>2026-04-28T14:24:55.012Z</time></trkpt><trkpt lat="35.82882" lon="-5.6781817"><ele>106.0</ele><time>2026-04-28T14:24:56.012Z</time></trkpt><trkpt lat="35.82881" lon="-5.6779867"><ele>106.0</ele><time>2026-04-28T14:24:57.012Z</time></trkpt><trkpt lat="35.828775" lon="-5.6777933"><ele>106.0</ele><time>2026-04-28T14:24:58.012Z</time></trkpt><trkpt lat="35.828715" lon="-5.6776233"><ele>106.0</ele><time>2026-04-28T14:24:59.011Z</time></trkpt><trkpt lat="35.8286317" lon="-5.6774567"><ele>111.0</ele><time>2026-04-28T14:25:00.012Z</time></trkpt><trkpt lat="35.82854" lon="-5.6772883"><ele>116.0</ele><time>2026-04-28T14:25:01.012Z</time></trkpt><trkpt lat="35.82845" lon="-5.6771267"><ele>121.0</ele><time>2026-04-28T14:25:02.011Z</time></trkpt><trkpt lat="35.8283583" lon="-5.676965"><ele>117.0</ele><time>2026-04-28T14:25:03.012Z</time></trkpt><trkpt lat="35.828265" lon="-5.6768"><ele>113.0</ele><time>2026-04-28T14:25:04.012Z</time></trkpt><trkpt lat="35.82817" lon="-5.6766367"><ele>109.0</ele><time>2026-04-28T14:25:05.012Z</time></trkpt><trkpt lat="35.828065" lon="-5.67648"><ele>109.0</ele><time>2026-04-28T14:25:06.012Z</time></trkpt><trkpt lat="35.8279617" lon="-5.67633"><ele>109.0</ele><time>2026-04-28T14:25:07.012Z</time></trkpt><trkpt lat="35.8278467" lon="-5.6761867"><ele>109.0</ele><time>2026-04-28T14:25:08.012Z</time></trkpt><trkpt lat="35.82772" lon="-5.6760533"><ele>111.0</ele><time>2026-04-28T14:25:09.012Z</time></trkpt><trkpt lat="35.8275933" lon="-5.6759267"><ele>113.0</ele><time>2026-04-28T14:25:10.012Z</time></trkpt><trkpt lat="35.8274683" lon="-5.6758017"><ele>115.0</ele><time>2026-04-28T14:25:11.012Z</time></trkpt><trkpt lat="35.8273383" lon="-5.6756867"><ele>115.0</ele><time>2026-04-28T14:25:12.012Z</time></trkpt><trkpt lat="35.8272017" lon="-5.6755817"><ele>115.0</ele><time>2026-04-28T14:25:13.011Z</time></trkpt><trkpt lat="35.827055" lon="-5.6754783"><ele>115.0</ele><time>2026-04-28T14:25:14.012Z</time></trkpt><trkpt lat="35.8269083" lon="-5.6753683"><ele>112.66666666666667</ele><time>2026-04-28T14:25:15.012Z</time></trkpt><trkpt lat="35.8267617" lon="-5.67526"><ele>110.33333333333334</ele><time>2026-04-28T14:25:16.012Z</time></trkpt><trkpt lat="35.826615" lon="-5.6751467"><ele>108.0</ele><time>2026-04-28T14:25:17.012Z</time></trkpt><trkpt lat="35.82646" lon="-5.675035"><ele>108.0</ele><time>2026-04-28T14:25:18.011Z</time></trkpt><trkpt lat="35.8262983" lon="-5.67492"><ele>108.0</ele><time>2026-04-28T14:25:19.012Z</time></trkpt><trkpt lat="35.8261417" lon="-5.6748017"><ele>108.0</ele><time>2026-04-28T14:25:20.012Z</time></trkpt><trkpt lat="35.825985" lon="-5.6746833"><ele>104.33333333333334</ele><time>2026-04-28T14:25:21.012Z</time></trkpt><trkpt lat="35.8258317" lon="-5.6745683"><ele>100.66666666666667</ele><time>2026-04-28T14:25:22.012Z</time></trkpt><trkpt lat="35.8256833" lon="-5.674455"><ele>97.0</ele><time>2026-04-28T14:25:23.012Z</time></trkpt><trkpt lat="35.825535" lon="-5.6743367"><ele>97.0</ele><time>2026-04-28T14:25:24.012Z</time></trkpt><trkpt lat="35.8253833" lon="-5.67422"><ele>97.0</ele><time>2026-04-28T14:25:25.012Z</time></trkpt><trkpt lat="35.8252283" lon="-5.6741083"><ele>97.0</ele><time>2026-04-28T14:25:26.012Z</time></trkpt><trkpt lat="35.8250783" lon="-5.6739933"><ele>102.33333333333334</ele><time>2026-04-28T14:25:27.012Z</time></trkpt><trkpt lat="35.8249333" lon="-5.6738767"><ele>107.66666666666666</ele><time>2026-04-28T14:25:28.012Z</time></trkpt><trkpt lat="35.8247917" lon="-5.673775"><ele>113.0</ele><time>2026-04-28T14:25:29.012Z</time></trkpt><trkpt lat="35.8246583" lon="-5.6736733"><ele>111.66666666666666</ele><time>2026-04-28T14:25:30.012Z</time></trkpt><trkpt lat="35.824525" lon="-5.6735683"><ele>110.33333333333334</ele><time>2026-04-28T14:25:31.012Z</time></trkpt><trkpt lat="35.824405" lon="-5.67344"><ele>109.0</ele><time>2026-04-28T14:25:32.012Z</time></trkpt><trkpt lat="35.824295" lon="-5.673295"><ele>109.0</ele><time>2026-04-28T14:25:33.012Z</time></trkpt><trkpt lat="35.8241983" lon="-5.673135"><ele>109.0</ele><time>2026-04-28T14:25:34.012Z</time></trkpt><trkpt lat="35.824115" lon="-5.6729567"><ele>109.0</ele><time>2026-04-28T14:25:35.012Z</time></trkpt><trkpt lat="35.824045" lon="-5.67277"><ele>105.33333333333334</ele><time>2026-04-28T14:25:36.012Z</time></trkpt><trkpt lat="35.823995" lon="-5.6725617"><ele>101.66666666666666</ele><time>2026-04-28T14:25:37.012Z</time></trkpt><trkpt lat="35.82396" lon="-5.672335"><ele>98.0</ele><time>2026-04-28T14:25:38.012Z</time></trkpt><trkpt lat="35.82395" lon="-5.6721067"><ele>96.0</ele><time>2026-04-28T14:25:39.012Z</time></trkpt><trkpt lat="35.8239683" lon="-5.6718717"><ele>94.0</ele><time>2026-04-28T14:25:40.011Z</time></trkpt><trkpt lat="35.8240117" lon="-5.6716333"><ele>92.0</ele><time>2026-04-28T14:25:41.012Z</time></trkpt><trkpt lat="35.82408" lon="-5.6714017"><ele>92.0</ele><time>2026-04-28T14:25:42.012Z</time></trkpt><trkpt lat="35.8241867" lon="-5.6711733"><ele>92.0</ele><time>2026-04-28T14:25:43.012Z</time></trkpt><trkpt lat="35.82432" lon="-5.6709433"><ele>92.0</ele><time>2026-04-28T14:25:44.012Z</time></trkpt><trkpt lat="35.8244733" lon="-5.670735"><ele>90.66666666666667</ele><time>2026-04-28T14:25:45.011Z</time></trkpt><trkpt lat="35.8246433" lon="-5.670555"><ele>89.33333333333333</ele><time>2026-04-28T14:25:46.012Z</time></trkpt><trkpt lat="35.8248" lon="-5.6703967"><ele>88.0</ele><time>2026-04-28T14:25:47.012Z</time></trkpt><trkpt lat="35.8249317" lon="-5.67024"><ele>88.33333333333333</ele><time>2026-04-28T14:25:48.012Z</time></trkpt><trkpt lat="35.825055" lon="-5.6700783"><ele>88.66666666666667</ele><time>2026-04-28T14:25:49.012Z</time></trkpt><trkpt lat="35.8251783" lon="-5.6699133"><ele>89.0</ele><time>2026-04-28T14:25:50.012Z</time></trkpt><trkpt lat="35.8253117" lon="-5.6697517"><ele>89.0</ele><time>2026-04-28T14:25:51.012Z</time></trkpt><trkpt lat="35.8254467" lon="-5.6695817"><ele>89.0</ele><time>2026-04-28T14:25:52.012Z</time></trkpt><trkpt lat="35.825585" lon="-5.6694183"><ele>89.0</ele><time>2026-04-28T14:25:53.012Z</time></trkpt><trkpt lat="35.8257033" lon="-5.6692583"><ele>92.66666666666667</ele><time>2026-04-28T14:25:54.012Z</time></trkpt><trkpt lat="35.8258133" lon="-5.6690933"><ele>96.33333333333334</ele><time>2026-04-28T14:25:55.012Z</time></trkpt><trkpt lat="35.8259083" lon="-5.6689283"><ele>100.0</ele><time>2026-04-28T14:25:56.012Z</time></trkpt><trkpt lat="35.826" lon="-5.6687583"><ele>94.66666666666667</ele><time>2026-04-28T14:25:57.012Z</time></trkpt><trkpt lat="35.8260767" lon="-5.6685883"><ele>89.33333333333334</ele><time>2026-04-28T14:25:58.012Z</time></trkpt><trkpt lat="35.8261317" lon="-5.668395"><ele>84.0</ele><time>2026-04-28T14:25:59.012Z</time></trkpt><trkpt lat="35.8261617" lon="-5.6682"><ele>84.0</ele><time>2026-04-28T14:26:00.012Z</time></trkpt><trkpt lat="35.8261667" lon="-5.6680033"><ele>84.0</ele><time>2026-04-28T14:26:01.012Z</time></trkpt><trkpt lat="35.8261483" lon="-5.667805"><ele>84.0</ele><time>2026-04-28T14:26:02.012Z</time></trkpt><trkpt lat="35.8261017" lon="-5.6675983"><ele>85.33333333333333</ele><time>2026-04-28T14:26:03.011Z</time></trkpt><trkpt lat="35.8260283" lon="-5.667415"><ele>86.66666666666666</ele><time>2026-04-28T14:26:04.012Z</time></trkpt><trkpt lat="35.82594" lon="-5.6672667"><ele>88.0</ele><time>2026-04-28T14:26:05.012Z</time></trkpt><trkpt lat="35.8258467" lon="-5.6671433"><ele>88.33333333333333</ele><time>2026-04-28T14:26:06.012Z</time></trkpt><trkpt lat="35.8257417" lon="-5.66702"><ele>88.66666666666667</ele><time>2026-04-28T14:26:07.012Z</time></trkpt><trkpt lat="35.8256033" lon="-5.666905"><ele>89.0</ele><time>2026-04-28T14:26:08.012Z</time></trkpt><trkpt lat="35.82546" lon="-5.666795"><ele>89.0</ele><time>2026-04-28T14:26:09.012Z</time></trkpt><trkpt lat="35.8253083" lon="-5.6666683"><ele>89.0</ele><time>2026-04-28T14:26:10.012Z</time></trkpt><trkpt lat="35.825155" lon="-5.6665267"><ele>89.0</ele><time>2026-04-28T14:26:11.012Z</time></trkpt><trkpt lat="35.8250117" lon="-5.666375"><ele>87.33333333333334</ele><time>2026-04-28T14:26:12.012Z</time></trkpt><trkpt lat="35.8248783" lon="-5.6662167"><ele>85.66666666666667</ele><time>2026-04-28T14:26:13.012Z</time></trkpt><trkpt lat="35.8247583" lon="-5.6660583"><ele>84.0</ele><time>2026-04-28T14:26:14.012Z</time></trkpt><trkpt lat="35.8246433" lon="-5.665895"><ele>84.0</ele><time>2026-04-28T14:26:15.011Z</time></trkpt><trkpt lat="35.8245283" lon="-5.665735"><ele>84.0</ele><time>2026-04-28T14:26:16.012Z</time></trkpt><trkpt lat="35.824415" lon="-5.66558"><ele>84.0</ele><time>2026-04-28T14:26:17.012Z</time></trkpt><trkpt lat="35.8242967" lon="-5.6654283"><ele>85.66666666666667</ele><time>2026-04-28T14:26:18.012Z</time></trkpt><trkpt lat="35.8241733" lon="-5.6652783"><ele>87.33333333333334</ele><time>2026-04-28T14:26:19.012Z</time></trkpt><trkpt lat="35.8240433" lon="-5.6651367"><ele>89.0</ele><time>2026-04-28T14:26:20.012Z</time></trkpt><trkpt lat="35.82391" lon="-5.665"><ele>89.0</ele><time>2026-04-28T14:26:21.012Z</time></trkpt><trkpt lat="35.8237683" lon="-5.664865"><ele>89.0</ele><time>2026-04-28T14:26:22.012Z</time></trkpt><trkpt lat="35.8236283" lon="-5.6647317"><ele>89.0</ele><time>2026-04-28T14:26:23.012Z</time></trkpt><trkpt lat="35.8234833" lon="-5.6645917"><ele>86.33333333333334</ele><time>2026-04-28T14:26:24.012Z</time></trkpt><trkpt lat="35.823335" lon="-5.66445"><ele>83.66666666666667</ele><time>2026-04-28T14:26:25.012Z</time></trkpt><trkpt lat="35.8231917" lon="-5.664305"><ele>81.0</ele><time>2026-04-28T14:26:26.012Z</time></trkpt><trkpt lat="35.823045" lon="-5.664165"><ele>81.0</ele><time>2026-04-28T14:26:27.012Z</time></trkpt><trkpt lat="35.8228933" lon="-5.66403"><ele>81.0</ele><time>2026-04-28T14:26:28.012Z</time></trkpt><trkpt lat="35.822745" lon="-5.6638883"><ele>81.0</ele><time>2026-04-28T14:26:29.012Z</time></trkpt><trkpt lat="35.8226133" lon="-5.663735"><ele>77.33333333333333</ele><time>2026-04-28T14:26:30.012Z</time></trkpt><trkpt lat="35.8224967" lon="-5.6635533"><ele>73.66666666666666</ele><time>2026-04-28T14:26:31.012Z</time></trkpt><trkpt lat="35.822405" lon="-5.6633583"><ele>70.0</ele><time>2026-04-28T14:26:32.011Z</time></trkpt><trkpt lat="35.8223467" lon="-5.6631367"><ele>70.0</ele><time>2026-04-28T14:26:33.012Z</time></trkpt><trkpt lat="35.822325" lon="-5.6629033"><ele>70.0</ele><time>2026-04-28T14:26:34.012Z</time></trkpt><trkpt lat="35.82233" lon="-5.6626767"><ele>70.0</ele><time>2026-04-28T14:26:35.012Z</time></trkpt><trkpt lat="35.82237" lon="-5.66246"><ele>69.0</ele><time>2026-04-28T14:26:36.011Z</time></trkpt><trkpt lat="35.82244" lon="-5.6622517"><ele>68.0</ele><time>2026-04-28T14:26:37.012Z</time></trkpt><trkpt lat="35.82253" lon="-5.6620583"><ele>67.0</ele><time>2026-04-28T14:26:38.011Z</time></trkpt><trkpt lat="35.8226417" lon="-5.661885"><ele>68.33333333333333</ele><time>2026-04-28T14:26:39.012Z</time></trkpt><trkpt lat="35.8227733" lon="-5.6617333"><ele>69.66666666666667</ele><time>2026-04-28T14:26:40.012Z</time></trkpt><trkpt lat="35.8229233" lon="-5.661615"><ele>71.0</ele><time>2026-04-28T14:26:41.011Z</time></trkpt><trkpt lat="35.8230833" lon="-5.66154"><ele>71.0</ele><time>2026-04-28T14:26:42.012Z</time></trkpt><trkpt lat="35.8232617" lon="-5.6614867"><ele>71.0</ele><time>2026-04-28T14:26:43.012Z</time></trkpt><trkpt lat="35.8234533" lon="-5.6614533"><ele>71.0</ele><time>2026-04-28T14:26:44.012Z</time></trkpt><trkpt lat="35.823655" lon="-5.6614367"><ele>69.0</ele><time>2026-04-28T14:26:45.012Z</time></trkpt><trkpt lat="35.8238633" lon="-5.6614217"><ele>67.0</ele><time>2026-04-28T14:26:46.012Z</time></trkpt><trkpt lat="35.8240733" lon="-5.6613983"><ele>65.0</ele><time>2026-04-28T14:26:47.012Z</time></trkpt><trkpt lat="35.8242667" lon="-5.661385"><ele>62.333333333333336</ele><time>2026-04-28T14:26:48.011Z</time></trkpt><trkpt lat="35.8244567" lon="-5.6613667"><ele>59.66666666666667</ele><time>2026-04-28T14:26:49.012Z</time></trkpt><trkpt lat="35.824645" lon="-5.6613517"><ele>57.0</ele><time>2026-04-28T14:26:50.012Z</time></trkpt><trkpt lat="35.8248267" lon="-5.6613233"><ele>57.0</ele><time>2026-04-28T14:26:51.012Z</time></trkpt><trkpt lat="35.8250033" lon="-5.66127"><ele>57.0</ele><time>2026-04-28T14:26:52.012Z</time></trkpt><trkpt lat="35.825175" lon="-5.6611933"><ele>57.0</ele><time>2026-04-28T14:26:53.012Z</time></trkpt><trkpt lat="35.8253367" lon="-5.6611"><ele>60.0</ele><time>2026-04-28T14:26:54.012Z</time></trkpt><trkpt lat="35.8254933" lon="-5.660995"><ele>63.0</ele><time>2026-04-28T14:26:55.012Z</time></trkpt><trkpt lat="35.8256333" lon="-5.6608717"><ele>66.0</ele><time>2026-04-28T14:26:56.012Z</time></trkpt><trkpt lat="35.8257583" lon="-5.6607383"><ele>66.0</ele><time>2026-04-28T14:26:57.012Z</time></trkpt><trkpt lat="35.8258617" lon="-5.6605883"><ele>66.0</ele><time>2026-04-28T14:26:58.011Z</time></trkpt><trkpt lat="35.825955" lon="-5.6604417"><ele>66.0</ele><time>2026-04-28T14:26:59.012Z</time></trkpt><trkpt lat="35.826035" lon="-5.6602983"><ele>64.0</ele><time>2026-04-28T14:27:00.012Z</time></trkpt><trkpt lat="35.826105" lon="-5.660145"><ele>62.0</ele><time>2026-04-28T14:27:01.012Z</time></trkpt><trkpt lat="35.8261633" lon="-5.659985"><ele>60.0</ele><time>2026-04-28T14:27:02.011Z</time></trkpt><trkpt lat="35.826215" lon="-5.6598183"><ele>58.0</ele><time>2026-04-28T14:27:03.012Z</time></trkpt><trkpt lat="35.82625" lon="-5.6596433"><ele>58.0</ele><time>2026-04-28T14:27:04.012Z</time></trkpt><trkpt lat="35.8262767" lon="-5.6594617"><ele>58.0</ele><time>2026-04-28T14:27:05.012Z</time></trkpt><trkpt lat="35.8262983" lon="-5.6592767"><ele>58.0</ele><time>2026-04-28T14:27:06.012Z</time></trkpt><trkpt lat="35.8263017" lon="-5.6590617"><ele>56.33333333333333</ele><time>2026-04-28T14:27:07.011Z</time></trkpt><trkpt lat="35.8262917" lon="-5.658845"><ele>54.66666666666667</ele><time>2026-04-28T14:27:08.012Z</time></trkpt><trkpt lat="35.826265" lon="-5.6586317"><ele>53.0</ele><time>2026-04-28T14:27:09.012Z</time></trkpt><trkpt lat="35.8262267" lon="-5.65842"><ele>53.0</ele><time>2026-04-28T14:27:10.012Z</time></trkpt><trkpt lat="35.82616" lon="-5.6581933"><ele>53.0</ele><time>2026-04-28T14:27:11.012Z</time></trkpt><trkpt lat="35.8260683" lon="-5.65798"><ele>53.0</ele><time>2026-04-28T14:27:12.012Z</time></trkpt><trkpt lat="35.8259667" lon="-5.6577667"><ele>53.0</ele><time>2026-04-28T14:27:13.012Z</time></trkpt><trkpt lat="35.8258733" lon="-5.6575467"><ele>53.0</ele><time>2026-04-28T14:27:14.012Z</time></trkpt><trkpt lat="35.8257767" lon="-5.6573283"><ele>53.0</ele><time>2026-04-28T14:27:15.011Z</time></trkpt><trkpt lat="35.825685" lon="-5.6571083"><ele>50.0</ele><time>2026-04-28T14:27:16.012Z</time></trkpt><trkpt lat="35.8255967" lon="-5.6568967"><ele>47.0</ele><time>2026-04-28T14:27:17.012Z</time></trkpt><trkpt lat="35.8255117" lon="-5.6566883"><ele>44.0</ele><time>2026-04-28T14:27:18.012Z</time></trkpt><trkpt lat="35.8254283" lon="-5.6564817"><ele>44.0</ele><time>2026-04-28T14:27:19.012Z</time></trkpt><trkpt lat="35.82534" lon="-5.6562833"><ele>44.0</ele><time>2026-04-28T14:27:20.012Z</time></trkpt><trkpt lat="35.8252533" lon="-5.6560883"><ele>44.0</ele><time>2026-04-28T14:27:21.011Z</time></trkpt><trkpt lat="35.8251683" lon="-5.6558967"><ele>43.0</ele><time>2026-04-28T14:27:22.012Z</time></trkpt><trkpt lat="35.8250783" lon="-5.6557133"><ele>42.0</ele><time>2026-04-28T14:27:23.012Z</time></trkpt><trkpt lat="35.82497" lon="-5.6555433"><ele>41.0</ele><time>2026-04-28T14:27:24.012Z</time></trkpt><trkpt lat="35.8248517" lon="-5.6553833"><ele>38.666666666666664</ele><time>2026-04-28T14:27:25.012Z</time></trkpt><trkpt lat="35.82472" lon="-5.6552283"><ele>36.333333333333336</ele><time>2026-04-28T14:27:26.012Z</time></trkpt><trkpt lat="35.8245767" lon="-5.65509"><ele>34.0</ele><time>2026-04-28T14:27:27.011Z</time></trkpt><trkpt lat="35.824435" lon="-5.6549633"><ele>35.66666666666667</ele><time>2026-04-28T14:27:28.012Z</time></trkpt><trkpt lat="35.8242783" lon="-5.6548533"><ele>37.333333333333336</ele><time>2026-04-28T14:27:29.012Z</time></trkpt><trkpt lat="35.8241083" lon="-5.6547483"><ele>39.0</ele><time>2026-04-28T14:27:30.012Z</time></trkpt><trkpt lat="35.823955" lon="-5.65466"><ele>39.0</ele><time>2026-04-28T14:27:31.012Z</time></trkpt><trkpt lat="35.8238067" lon="-5.6545517"><ele>39.0</ele><time>2026-04-28T14:27:32.011Z</time></trkpt><trkpt lat="35.8236567" lon="-5.6544367"><ele>39.0</ele><time>2026-04-28T14:27:33.012Z</time></trkpt><trkpt lat="35.823515" lon="-5.6543083"><ele>35.333333333333336</ele><time>2026-04-28T14:27:34.011Z</time></trkpt><trkpt lat="35.8233783" lon="-5.65416"><ele>31.666666666666668</ele><time>2026-04-28T14:27:35.011Z</time></trkpt><trkpt lat="35.8232567" lon="-5.653995"><ele>28.0</ele><time>2026-04-28T14:27:36.012Z</time></trkpt><trkpt lat="35.823145" lon="-5.6538167"><ele>28.0</ele><time>2026-04-28T14:27:37.012Z</time></trkpt><trkpt lat="35.82304" lon="-5.6536233"><ele>28.0</ele><time>2026-04-28T14:27:38.011Z</time></trkpt><trkpt lat="35.8229583" lon="-5.65343"><ele>28.0</ele><time>2026-04-28T14:27:39.012Z</time></trkpt><trkpt lat="35.822895" lon="-5.6532317"><ele>24.666666666666668</ele><time>2026-04-28T14:27:40.012Z</time></trkpt><trkpt lat="35.822835" lon="-5.6530267"><ele>21.333333333333336</ele><time>2026-04-28T14:27:41.011Z</time></trkpt><trkpt lat="35.8227733" lon="-5.652825"><ele>18.0</ele><time>2026-04-28T14:27:42.012Z</time></trkpt><trkpt lat="35.8227" lon="-5.65262"><ele>18.666666666666668</ele><time>2026-04-28T14:27:43.012Z</time></trkpt><trkpt lat="35.8226317" lon="-5.6524033"><ele>19.333333333333336</ele><time>2026-04-28T14:27:44.012Z</time></trkpt><trkpt lat="35.822565" lon="-5.6521883"><ele>20.0</ele><time>2026-04-28T14:27:45.012Z</time></trkpt><trkpt lat="35.8225" lon="-5.65197"><ele>17.0</ele><time>2026-04-28T14:27:46.012Z</time></trkpt><trkpt lat="35.8224283" lon="-5.651755"><ele>14.0</ele><time>2026-04-28T14:27:47.012Z</time></trkpt><trkpt lat="35.8223567" lon="-5.651545"><ele>11.0</ele><time>2026-04-28T14:27:48.012Z</time></trkpt><trkpt lat="35.8222917" lon="-5.6513333"><ele>11.0</ele><time>2026-04-28T14:27:49.011Z</time></trkpt><trkpt lat="35.8222233" lon="-5.6511267"><ele>11.0</ele><time>2026-04-28T14:27:50.012Z</time></trkpt><trkpt lat="35.8221583" lon="-5.6509183"><ele>11.0</ele><time>2026-04-28T14:27:51.012Z</time></trkpt><trkpt lat="35.8220967" lon="-5.6507133"><ele>9.0</ele><time>2026-04-28T14:27:52.012Z</time></trkpt><trkpt lat="35.822035" lon="-5.65051"><ele>7.0</ele><time>2026-04-28T14:27:53.012Z</time></trkpt><trkpt lat="35.821975" lon="-5.65031"><ele>5.0</ele><time>2026-04-28T14:27:54.012Z</time></trkpt><trkpt lat="35.82191" lon="-5.6501133"><ele>4.0</ele><time>2026-04-28T14:27:55.012Z</time></trkpt><trkpt lat="35.821845" lon="-5.6499233"><ele>3.0</ele><time>2026-04-28T14:27:56.012Z</time></trkpt><trkpt lat="35.8217567" lon="-5.6497417"><ele>2.0</ele><time>2026-04-28T14:27:57.012Z</time></trkpt><trkpt lat="35.8216533" lon="-5.6495667"><ele>5.333333333333333</ele><time>2026-04-28T14:27:58.011Z</time></trkpt><trkpt lat="35.82153" lon="-5.6494017"><ele>8.666666666666666</ele><time>2026-04-28T14:27:59.012Z</time></trkpt><trkpt lat="35.8213883" lon="-5.649245"><ele>12.0</ele><time>2026-04-28T14:28:00.012Z</time></trkpt><trkpt lat="35.8212417" lon="-5.6491083"><ele>12.0</ele><time>2026-04-28T14:28:01.012Z</time></trkpt><trkpt lat="35.8210883" lon="-5.6489817"><ele>12.0</ele><time>2026-04-28T14:28:02.012Z</time></trkpt><trkpt lat="35.820925" lon="-5.648865"><ele>12.0</ele><time>2026-04-28T14:28:03.012Z</time></trkpt><trkpt lat="35.820775" lon="-5.6487483"><ele>14.0</ele><time>2026-04-28T14:28:04.012Z</time></trkpt><trkpt lat="35.8206367" lon="-5.64864"><ele>16.0</ele><time>2026-04-28T14:28:05.011Z</time></trkpt><trkpt lat="35.8205067" lon="-5.6485267"><ele>18.0</ele><time>2026-04-28T14:28:06.012Z</time></trkpt><trkpt lat="35.8203867" lon="-5.6484033"><ele>18.0</ele><time>2026-04-28T14:28:07.012Z</time></trkpt><trkpt lat="35.820285" lon="-5.6482817"><ele>18.0</ele><time>2026-04-28T14:28:08.012Z</time></trkpt><trkpt lat="35.8201967" lon="-5.64816"><ele>18.0</ele><time>2026-04-28T14:28:09.012Z</time></trkpt><trkpt lat="35.820125" lon="-5.6480383"><ele>18.0</ele><time>2026-04-28T14:28:10.012Z</time></trkpt><trkpt lat="35.8200617" lon="-5.6479183"><ele>17.6</ele><time>2026-04-28T14:28:11.012Z</time></trkpt><trkpt lat="35.8200067" lon="-5.6477983"><ele>17.200000000000003</ele><time>2026-04-28T14:28:12.012Z</time></trkpt><trkpt lat="35.81996" lon="-5.6476767"><ele>16.8</ele><time>2026-04-28T14:28:13.012Z</time></trkpt><trkpt lat="35.8199133" lon="-5.6475617"><ele>16.400000000000002</ele><time>2026-04-28T14:28:14.012Z</time></trkpt><trkpt lat="35.81988" lon="-5.6474433"><ele>16.0</ele><time>2026-04-28T14:28:15.012Z</time></trkpt><trkpt lat="35.8198467" lon="-5.647325"><ele>16.0</ele><time>2026-04-28T14:28:16.011Z</time></trkpt><trkpt lat="35.8198233" lon="-5.6472067"><ele>16.0</ele><time>2026-04-28T14:28:17.012Z</time></trkpt><trkpt lat="35.8198133" lon="-5.6470883"><ele>16.0</ele><time>2026-04-28T14:28:18.012Z</time></trkpt><trkpt lat="35.8198033" lon="-5.64696"><ele>16.0</ele><time>2026-04-28T14:28:19.012Z</time></trkpt><trkpt lat="35.8198" lon="-5.6468183"><ele>16.0</ele><time>2026-04-28T14:28:20.012Z</time></trkpt><trkpt lat="35.819795" lon="-5.646675"><ele>13.5</ele><time>2026-04-28T14:28:21.012Z</time></trkpt><trkpt lat="35.8198" lon="-5.646525"><ele>11.0</ele><time>2026-04-28T14:28:22.012Z</time></trkpt><trkpt lat="35.819805" lon="-5.64638"><ele>8.5</ele><time>2026-04-28T14:28:23.012Z</time></trkpt><trkpt lat="35.8198017" lon="-5.6462283"><ele>6.0</ele><time>2026-04-28T14:28:24.012Z</time></trkpt><trkpt lat="35.8198067" lon="-5.6460683"><ele>4.666666666666667</ele><time>2026-04-28T14:28:25.012Z</time></trkpt><trkpt lat="35.8198167" lon="-5.6458933"><ele>3.333333333333333</ele><time>2026-04-28T14:28:26.012Z</time></trkpt><trkpt lat="35.8198233" lon="-5.6456917"><ele>2.0</ele><time>2026-04-28T14:28:27.012Z</time></trkpt><trkpt lat="35.8198267" lon="-5.645455"><ele>1.3333333333333333</ele><time>2026-04-28T14:28:28.012Z</time></trkpt><trkpt lat="35.8198233" lon="-5.6452033"><ele>0.6666666666666666</ele><time>2026-04-28T14:28:29.012Z</time></trkpt><trkpt lat="35.81982" lon="-5.644945"><ele>0.0</ele><time>2026-04-28T14:28:30.012Z</time></trkpt><trkpt lat="35.8198233" lon="-5.644705"><ele>0.0</ele><time>2026-04-28T14:28:31.012Z</time></trkpt><trkpt lat="35.8198317" lon="-5.6444767"><ele>0.0</ele><time>2026-04-28T14:28:32.012Z</time></trkpt><trkpt lat="35.81984" lon="-5.6442433"><ele>0.0</ele><time>2026-04-28T14:28:33.012Z</time></trkpt><trkpt lat="35.8198383" lon="-5.6440133"><ele>0.0</ele><time>2026-04-28T14:28:34.012Z</time></trkpt><trkpt lat="35.8198383" lon="-5.6437917"><ele>0.0</ele><time>2026-04-28T14:28:35.012Z</time></trkpt><trkpt lat="35.8198383" lon="-5.6435667"><ele>0.0</ele><time>2026-04-28T14:28:36.012Z</time></trkpt><trkpt lat="35.8198417" lon="-5.64334"><ele>0.3333333333333333</ele><time>2026-04-28T14:28:37.012Z</time></trkpt><trkpt lat="35.8198417" lon="-5.64311"><ele>0.6666666666666666</ele><time>2026-04-28T14:28:38.012Z</time></trkpt><trkpt lat="35.819845" lon="-5.6428783"><ele>1.0</ele><time>2026-04-28T14:28:39.012Z</time></trkpt><trkpt lat="35.8198483" lon="-5.642645"><ele>1.0</ele><time>2026-04-28T14:28:40.012Z</time></trkpt><trkpt lat="35.8198467" lon="-5.6424167"><ele>1.0</ele><time>2026-04-28T14:28:41.012Z</time></trkpt><trkpt lat="35.8198517" lon="-5.64219"><ele>1.0</ele><time>2026-04-28T14:28:42.011Z</time></trkpt><trkpt lat="35.81985" lon="-5.641965"><ele>1.6666666666666665</ele><time>2026-04-28T14:28:43.012Z</time></trkpt><trkpt lat="35.8198367" lon="-5.6417417"><ele>2.3333333333333335</ele><time>2026-04-28T14:28:44.012Z</time></trkpt><trkpt lat="35.8198233" lon="-5.64152"><ele>3.0</ele><time>2026-04-28T14:28:45.012Z</time></trkpt><trkpt lat="35.8198017" lon="-5.6412983"><ele>4.0</ele><time>2026-04-28T14:28:46.012Z</time></trkpt><trkpt lat="35.81977" lon="-5.641075"><ele>5.0</ele><time>2026-04-28T14:28:47.012Z</time></trkpt><trkpt lat="35.8197317" lon="-5.6408567"><ele>6.0</ele><time>2026-04-28T14:28:48.012Z</time></trkpt><trkpt lat="35.8196817" lon="-5.640635"><ele>6.0</ele><time>2026-04-28T14:28:49.012Z</time></trkpt><trkpt lat="35.8196267" lon="-5.6404217"><ele>6.0</ele><time>2026-04-28T14:28:50.012Z</time></trkpt><trkpt lat="35.8195617" lon="-5.6402067"><ele>6.0</ele><time>2026-04-28T14:28:51.012Z</time></trkpt><trkpt lat="35.8194867" lon="-5.64"><ele>6.0</ele><time>2026-04-28T14:28:52.012Z</time></trkpt><trkpt lat="35.8194" lon="-5.6397933"><ele>6.0</ele><time>2026-04-28T14:28:53.012Z</time></trkpt><trkpt lat="35.81931" lon="-5.639585"><ele>6.0</ele><time>2026-04-28T14:28:54.012Z</time></trkpt><trkpt lat="35.8192067" lon="-5.6393833"><ele>9.333333333333332</ele><time>2026-04-28T14:28:55.011Z</time></trkpt><trkpt lat="35.8190983" lon="-5.6391967"><ele>12.666666666666666</ele><time>2026-04-28T14:28:56.01Z</time></trkpt><trkpt lat="35.818985" lon="-5.6390067"><ele>16.0</ele><time>2026-04-28T14:28:57.011Z</time></trkpt><trkpt lat="35.8188767" lon="-5.63882"><ele>19.666666666666664</ele><time>2026-04-28T14:28:58.011Z</time></trkpt><trkpt lat="35.81877" lon="-5.6386333"><ele>23.333333333333332</ele><time>2026-04-28T14:28:59.011Z</time></trkpt><trkpt lat="35.8186633" lon="-5.6384467"><ele>27.0</ele><time>2026-04-28T14:29:00.01Z</time></trkpt><trkpt lat="35.8185583" lon="-5.6382633"><ele>28.666666666666664</ele><time>2026-04-28T14:29:01.011Z</time></trkpt><trkpt lat="35.81845" lon="-5.638085"><ele>30.333333333333332</ele><time>2026-04-28T14:29:02.011Z</time></trkpt><trkpt lat="35.81834" lon="-5.6379033"><ele>32.0</ele><time>2026-04-28T14:29:03.011Z</time></trkpt><trkpt lat="35.8182333" lon="-5.6377283"><ele>32.0</ele><time>2026-04-28T14:29:04.011Z</time></trkpt><trkpt lat="35.8181083" lon="-5.6375733"><ele>32.0</ele><time>2026-04-28T14:29:05.011Z</time></trkpt><trkpt lat="35.817965" lon="-5.637445"><ele>32.0</ele><time>2026-04-28T14:29:06.011Z</time></trkpt><trkpt lat="35.817805" lon="-5.6373417"><ele>31.333333333333332</ele><time>2026-04-28T14:29:07.011Z</time></trkpt><trkpt lat="35.8176383" lon="-5.6372683"><ele>30.666666666666664</ele><time>2026-04-28T14:29:08.011Z</time></trkpt><trkpt lat="35.8174733" lon="-5.6372283"><ele>30.0</ele><time>2026-04-28T14:29:09.01Z</time></trkpt><trkpt lat="35.817305" lon="-5.6372167"><ele>30.0</ele><time>2026-04-28T14:29:10.011Z</time></trkpt><trkpt lat="35.817125" lon="-5.63723"><ele>30.0</ele><time>2026-04-28T14:29:11.011Z</time></trkpt><trkpt lat="35.8169467" lon="-5.6372367"><ele>30.0</ele><time>2026-04-28T14:29:12.011Z</time></trkpt><trkpt lat="35.8167817" lon="-5.63721"><ele>31.0</ele><time>2026-04-28T14:29:13.011Z</time></trkpt><trkpt lat="35.8166217" lon="-5.6371467"><ele>32.0</ele><time>2026-04-28T14:29:14.011Z</time></trkpt><trkpt lat="35.81648" lon="-5.637045"><ele>33.0</ele><time>2026-04-28T14:29:15.011Z</time></trkpt><trkpt lat="35.81635" lon="-5.63691"><ele>37.0</ele><time>2026-04-28T14:29:16.011Z</time></trkpt><trkpt lat="35.81626" lon="-5.6367467"><ele>41.0</ele><time>2026-04-28T14:29:17.011Z</time></trkpt><trkpt lat="35.8161967" lon="-5.6365567"><ele>45.0</ele><time>2026-04-28T14:29:18.011Z</time></trkpt><trkpt lat="35.8161683" lon="-5.6363433"><ele>47.66666666666667</ele><time>2026-04-28T14:29:19.011Z</time></trkpt><trkpt lat="35.8161767" lon="-5.6361233"><ele>50.333333333333336</ele><time>2026-04-28T14:29:20.011Z</time></trkpt><trkpt lat="35.8162233" lon="-5.6359267"><ele>53.0</ele><time>2026-04-28T14:29:21.011Z</time></trkpt><trkpt lat="35.8163167" lon="-5.6357467"><ele>53.0</ele><time>2026-04-28T14:29:22.011Z</time></trkpt><trkpt lat="35.816435" lon="-5.6356067"><ele>53.0</ele><time>2026-04-28T14:29:23.011Z</time></trkpt><trkpt lat="35.816585" lon="-5.63551"><ele>53.0</ele><time>2026-04-28T14:29:24.011Z</time></trkpt><trkpt lat="35.8167517" lon="-5.6354483"><ele>53.66666666666667</ele><time>2026-04-28T14:29:25.011Z</time></trkpt><trkpt lat="35.8169267" lon="-5.6354317"><ele>54.33333333333333</ele><time>2026-04-28T14:29:26.011Z</time></trkpt><trkpt lat="35.8171117" lon="-5.63545"><ele>55.0</ele><time>2026-04-28T14:29:27.011Z</time></trkpt><trkpt lat="35.8172967" lon="-5.635485"><ele>55.0</ele><time>2026-04-28T14:29:28.01Z</time></trkpt><trkpt lat="35.8174833" lon="-5.63553"><ele>55.0</ele><time>2026-04-28T14:29:29.011Z</time></trkpt><trkpt lat="35.8176733" lon="-5.635575"><ele>55.0</ele><time>2026-04-28T14:29:30.011Z</time></trkpt><trkpt lat="35.8178633" lon="-5.635615"><ele>58.33333333333333</ele><time>2026-04-28T14:29:31.011Z</time></trkpt><trkpt lat="35.8180433" lon="-5.6356533"><ele>61.66666666666667</ele><time>2026-04-28T14:29:32.01Z</time></trkpt><trkpt lat="35.818225" lon="-5.6356917"><ele>65.0</ele><time>2026-04-28T14:29:33.011Z</time></trkpt><trkpt lat="35.81841" lon="-5.6357283"><ele>69.66666666666667</ele><time>2026-04-28T14:29:34.01Z</time></trkpt><trkpt lat="35.8185883" lon="-5.6357667"><ele>74.33333333333333</ele><time>2026-04-28T14:29:35.011Z</time></trkpt><trkpt lat="35.8187567" lon="-5.6358017"><ele>79.0</ele><time>2026-04-28T14:29:36.011Z</time></trkpt><trkpt lat="35.8189133" lon="-5.6358317"><ele>79.0</ele><time>2026-04-28T14:29:37.011Z</time></trkpt><trkpt lat="35.8190683" lon="-5.6358567"><ele>79.0</ele><time>2026-04-28T14:29:38.011Z</time></trkpt><trkpt lat="35.8192317" lon="-5.6358683"><ele>79.0</ele><time>2026-04-28T14:29:39.011Z</time></trkpt><trkpt lat="35.8193917" lon="-5.6358667"><ele>81.0</ele><time>2026-04-28T14:29:40.011Z</time></trkpt><trkpt lat="35.8195533" lon="-5.6358333"><ele>83.0</ele><time>2026-04-28T14:29:41.011Z</time></trkpt><trkpt lat="35.8197283" lon="-5.635755"><ele>85.0</ele><time>2026-04-28T14:29:42.011Z</time></trkpt><trkpt lat="35.8199067" lon="-5.6356717"><ele>85.0</ele><time>2026-04-28T14:29:43.011Z</time></trkpt><trkpt lat="35.8200917" lon="-5.635605"><ele>85.0</ele><time>2026-04-28T14:29:44.011Z</time></trkpt><trkpt lat="35.8202733" lon="-5.6355683"><ele>85.0</ele><time>2026-04-28T14:29:45.011Z</time></trkpt><trkpt lat="35.8204733" lon="-5.6355933"><ele>87.66666666666666</ele><time>2026-04-28T14:29:46.011Z</time></trkpt><trkpt lat="35.8206667" lon="-5.635665"><ele>90.33333333333333</ele><time>2026-04-28T14:29:47.011Z</time></trkpt><trkpt lat="35.8208633" lon="-5.63576"><ele>93.0</ele><time>2026-04-28T14:29:48.011Z</time></trkpt><trkpt lat="35.8210683" lon="-5.6358433"><ele>95.33333333333334</ele><time>2026-04-28T14:29:49.011Z</time></trkpt><trkpt lat="35.821275" lon="-5.6358833"><ele>97.66666666666667</ele><time>2026-04-28T14:29:50.011Z</time></trkpt><trkpt lat="35.8214667" lon="-5.6358583"><ele>100.0</ele><time>2026-04-28T14:29:51.011Z</time></trkpt><trkpt lat="35.8216467" lon="-5.635775"><ele>92.0</ele><time>2026-04-28T14:29:52.011Z</time></trkpt><trkpt lat="35.8218383" lon="-5.63564"><ele>84.0</ele><time>2026-04-28T14:29:53.011Z</time></trkpt><trkpt lat="35.8220283" lon="-5.6354633"><ele>93.33333333333334</ele><time>2026-04-28T14:29:54.011Z</time></trkpt><trkpt lat="35.8222067" lon="-5.635295"><ele>102.66666666666667</ele><time>2026-04-28T14:29:55.011Z</time></trkpt><trkpt lat="35.8223667" lon="-5.6351367"><ele>112.0</ele><time>2026-04-28T14:29:56.011Z</time></trkpt><trkpt lat="35.822525" lon="-5.63498"><ele>106.0</ele><time>2026-04-28T14:29:57.011Z</time></trkpt><trkpt lat="35.82268" lon="-5.63483"><ele>100.0</ele><time>2026-04-28T14:29:58.01Z</time></trkpt><trkpt lat="35.822825" lon="-5.634695"><ele>94.0</ele><time>2026-04-28T14:29:59.011Z</time></trkpt><trkpt lat="35.8229667" lon="-5.63455"><ele>100.66666666666666</ele><time>2026-04-28T14:30:00.011Z</time></trkpt><trkpt lat="35.823095" lon="-5.6343883"><ele>107.33333333333333</ele><time>2026-04-28T14:30:01.011Z</time></trkpt><trkpt lat="35.8232067" lon="-5.63421"><ele>114.0</ele><time>2026-04-28T14:30:02.011Z</time></trkpt><trkpt lat="35.823305" lon="-5.6340083"><ele>114.0</ele><time>2026-04-28T14:30:03.011Z</time></trkpt><trkpt lat="35.82338" lon="-5.6338"><ele>114.0</ele><time>2026-04-28T14:30:04.011Z</time></trkpt><trkpt lat="35.8234383" lon="-5.633595"><ele>114.0</ele><time>2026-04-28T14:30:05.011Z</time></trkpt><trkpt lat="35.8234683" lon="-5.63339"><ele>118.33333333333334</ele><time>2026-04-28T14:30:06.011Z</time></trkpt><trkpt lat="35.8234783" lon="-5.6331667"><ele>122.66666666666667</ele><time>2026-04-28T14:30:07.011Z</time></trkpt><trkpt lat="35.823445" lon="-5.6329467"><ele>127.0</ele><time>2026-04-28T14:30:08.011Z</time></trkpt><trkpt lat="35.8233717" lon="-5.632755"><ele>127.0</ele><time>2026-04-28T14:30:09.011Z</time></trkpt><trkpt lat="35.823265" lon="-5.6325883"><ele>127.0</ele><time>2026-04-28T14:30:10.011Z</time></trkpt><trkpt lat="35.8231317" lon="-5.6324167"><ele>127.0</ele><time>2026-04-28T14:30:11.011Z</time></trkpt><trkpt lat="35.8229717" lon="-5.6322617"><ele>127.0</ele><time>2026-04-28T14:30:12.011Z</time></trkpt><trkpt lat="35.8228183" lon="-5.63212"><ele>127.0</ele><time>2026-04-28T14:30:13.011Z</time></trkpt><trkpt lat="35.8226867" lon="-5.6319767"><ele>127.0</ele><time>2026-04-28T14:30:14.011Z</time></trkpt><trkpt lat="35.8225683" lon="-5.6318317"><ele>125.66666666666667</ele><time>2026-04-28T14:30:15.011Z</time></trkpt><trkpt lat="35.8224533" lon="-5.6316717"><ele>124.33333333333334</ele><time>2026-04-28T14:30:16.011Z</time></trkpt><trkpt lat="35.8223467" lon="-5.6315017"><ele>123.0</ele><time>2026-04-28T14:30:17.011Z</time></trkpt><trkpt lat="35.8222467" lon="-5.631305"><ele>123.0</ele><time>2026-04-28T14:30:18.011Z</time></trkpt><trkpt lat="35.822155" lon="-5.631095"><ele>123.0</ele><time>2026-04-28T14:30:19.011Z</time></trkpt><trkpt lat="35.8220717" lon="-5.6308717"><ele>123.0</ele><time>2026-04-28T14:30:20.011Z</time></trkpt><trkpt lat="35.8219883" lon="-5.6306417"><ele>123.0</ele><time>2026-04-28T14:30:21.011Z</time></trkpt><trkpt lat="35.8219067" lon="-5.6304117"><ele>123.0</ele><time>2026-04-28T14:30:22.011Z</time></trkpt><trkpt lat="35.821825" lon="-5.6301917"><ele>123.0</ele><time>2026-04-28T14:30:23.011Z</time></trkpt><trkpt lat="35.8217433" lon="-5.6299683"><ele>124.0</ele><time>2026-04-28T14:30:24.011Z</time></trkpt><trkpt lat="35.8216567" lon="-5.6297417"><ele>125.0</ele><time>2026-04-28T14:30:25.01Z</time></trkpt><trkpt lat="35.8215767" lon="-5.6295117"><ele>126.0</ele><time>2026-04-28T14:30:26.011Z</time></trkpt><trkpt lat="35.8215067" lon="-5.629285"><ele>126.33333333333334</ele><time>2026-04-28T14:30:27.011Z</time></trkpt><trkpt lat="35.8214533" lon="-5.6290583"><ele>126.66666666666667</ele><time>2026-04-28T14:30:28.011Z</time></trkpt><trkpt lat="35.8214" lon="-5.6288417"><ele>127.0</ele><time>2026-04-28T14:30:29.01Z</time></trkpt><trkpt lat="35.8213533" lon="-5.6286233"><ele>127.0</ele><time>2026-04-28T14:30:30.011Z</time></trkpt><trkpt lat="35.8213017" lon="-5.6284117"><ele>127.0</ele><time>2026-04-28T14:30:31.011Z</time></trkpt><trkpt lat="35.821245" lon="-5.6282"><ele>127.0</ele><time>2026-04-28T14:30:32.01Z</time></trkpt><trkpt lat="35.8211833" lon="-5.6279933"><ele>128.0</ele><time>2026-04-28T14:30:33.011Z</time></trkpt><trkpt lat="35.8211167" lon="-5.6277867"><ele>129.0</ele><time>2026-04-28T14:30:34.011Z</time></trkpt><trkpt lat="35.8210417" lon="-5.6275833"><ele>130.0</ele><time>2026-04-28T14:30:35.011Z</time></trkpt><trkpt lat="35.82096" lon="-5.6273717"><ele>130.0</ele><time>2026-04-28T14:30:36.011Z</time></trkpt><trkpt lat="35.8208767" lon="-5.6271633"><ele>130.0</ele><time>2026-04-28T14:30:37.011Z</time></trkpt><trkpt lat="35.8208117" lon="-5.6269433"><ele>130.0</ele><time>2026-04-28T14:30:38.011Z</time></trkpt><trkpt lat="35.8207583" lon="-5.6267183"><ele>130.33333333333334</ele><time>2026-04-28T14:30:39.01Z</time></trkpt><trkpt lat="35.8207133" lon="-5.62648"><ele>130.66666666666666</ele><time>2026-04-28T14:30:40.011Z</time></trkpt><trkpt lat="35.8206783" lon="-5.6262367"><ele>131.0</ele><time>2026-04-28T14:30:41.011Z</time></trkpt><trkpt lat="35.820655" lon="-5.6259967"><ele>131.0</ele><time>2026-04-28T14:30:42.011Z</time></trkpt><trkpt lat="35.8206417" lon="-5.6257533"><ele>131.0</ele><time>2026-04-28T14:30:43.011Z</time></trkpt><trkpt lat="35.8206367" lon="-5.6255067"><ele>131.0</ele><time>2026-04-28T14:30:44.011Z</time></trkpt><trkpt lat="35.8206383" lon="-5.6252633"><ele>134.0</ele><time>2026-04-28T14:30:45.011Z</time></trkpt><trkpt lat="35.8206467" lon="-5.6250167"><ele>137.0</ele><time>2026-04-28T14:30:46.011Z</time></trkpt><trkpt lat="35.8206533" lon="-5.624775"><ele>140.0</ele><time>2026-04-28T14:30:47.011Z</time></trkpt><trkpt lat="35.82066" lon="-5.62454"><ele>141.66666666666666</ele><time>2026-04-28T14:30:48.011Z</time></trkpt><trkpt lat="35.8206733" lon="-5.624305"><ele>143.33333333333334</ele><time>2026-04-28T14:30:49.011Z</time></trkpt><trkpt lat="35.820675" lon="-5.6240733"><ele>145.0</ele><time>2026-04-28T14:30:50.011Z</time></trkpt><trkpt lat="35.8206567" lon="-5.62384"><ele>148.0</ele><time>2026-04-28T14:30:51.011Z</time></trkpt><trkpt lat="35.820615" lon="-5.6236183"><ele>151.0</ele><time>2026-04-28T14:30:52.011Z</time></trkpt><trkpt lat="35.8205367" lon="-5.6234033"><ele>154.0</ele><time>2026-04-28T14:30:53.011Z</time></trkpt><trkpt lat="35.8204267" lon="-5.6232133"><ele>154.0</ele><time>2026-04-28T14:30:54.011Z</time></trkpt><trkpt lat="35.8202967" lon="-5.6230533"><ele>154.0</ele><time>2026-04-28T14:30:55.011Z</time></trkpt><trkpt lat="35.8201583" lon="-5.6229167"><ele>154.0</ele><time>2026-04-28T14:30:56.011Z</time></trkpt><trkpt lat="35.8200233" lon="-5.6227883"><ele>155.0</ele><time>2026-04-28T14:30:57.01Z</time></trkpt><trkpt lat="35.81989" lon="-5.6226683"><ele>156.0</ele><time>2026-04-28T14:30:58.01Z</time></trkpt><trkpt lat="35.819765" lon="-5.6225517"><ele>157.0</ele><time>2026-04-28T14:30:59.011Z</time></trkpt><trkpt lat="35.8196467" lon="-5.62243"><ele>157.0</ele><time>2026-04-28T14:31:00.011Z</time></trkpt><trkpt lat="35.8195283" lon="-5.6223033"><ele>157.0</ele><time>2026-04-28T14:31:01.011Z</time></trkpt><trkpt lat="35.8194017" lon="-5.6221717"><ele>157.0</ele><time>2026-04-28T14:31:02.011Z</time></trkpt><trkpt lat="35.8192767" lon="-5.6220433"><ele>157.66666666666669</ele><time>2026-04-28T14:31:03.01Z</time></trkpt><trkpt lat="35.8191467" lon="-5.6219267"><ele>158.33333333333334</ele><time>2026-04-28T14:31:04.01Z</time></trkpt><trkpt lat="35.8190083" lon="-5.6218233"><ele>159.0</ele><time>2026-04-28T14:31:05.011Z</time></trkpt><trkpt lat="35.8188683" lon="-5.6217267"><ele>159.0</ele><time>2026-04-28T14:31:06.011Z</time></trkpt><trkpt lat="35.8187217" lon="-5.62164"><ele>159.0</ele><time>2026-04-28T14:31:07.011Z</time></trkpt><trkpt lat="35.8185667" lon="-5.6215617"><ele>159.0</ele><time>2026-04-28T14:31:08.011Z</time></trkpt><trkpt lat="35.8184167" lon="-5.6214833"><ele>158.0</ele><time>2026-04-28T14:31:09.011Z</time></trkpt><trkpt lat="35.81826" lon="-5.6214033"><ele>157.0</ele><time>2026-04-28T14:31:10.01Z</time></trkpt><trkpt lat="35.8181067" lon="-5.6213267"><ele>156.0</ele><time>2026-04-28T14:31:11.01Z</time></trkpt><trkpt lat="35.8179517" lon="-5.62125"><ele>156.0</ele><time>2026-04-28T14:31:12.011Z</time></trkpt><trkpt lat="35.817795" lon="-5.62117"><ele>156.0</ele><time>2026-04-28T14:31:13.011Z</time></trkpt><trkpt lat="35.817635" lon="-5.6210983"><ele>156.0</ele><time>2026-04-28T14:31:14.011Z</time></trkpt><trkpt lat="35.8174683" lon="-5.6210283"><ele>155.0</ele><time>2026-04-28T14:31:15.011Z</time></trkpt><trkpt lat="35.8173017" lon="-5.620965"><ele>154.0</ele><time>2026-04-28T14:31:16.011Z</time></trkpt><trkpt lat="35.81713" lon="-5.6209"><ele>153.0</ele><time>2026-04-28T14:31:17.011Z</time></trkpt><trkpt lat="35.81696" lon="-5.62085"><ele>154.33333333333334</ele><time>2026-04-28T14:31:18.011Z</time></trkpt><trkpt lat="35.8167883" lon="-5.6208017"><ele>155.66666666666669</ele><time>2026-04-28T14:31:19.011Z</time></trkpt><trkpt lat="35.8166083" lon="-5.620755"><ele>157.0</ele><time>2026-04-28T14:31:20.011Z</time></trkpt><trkpt lat="35.8164183" lon="-5.6207083"><ele>157.0</ele><time>2026-04-28T14:31:21.011Z</time></trkpt><trkpt lat="35.8162317" lon="-5.620655"><ele>157.0</ele><time>2026-04-28T14:31:22.011Z</time></trkpt><trkpt lat="35.8160483" lon="-5.6205833"><ele>157.0</ele><time>2026-04-28T14:31:23.011Z</time></trkpt><trkpt lat="35.81587" lon="-5.6205"><ele>154.66666666666669</ele><time>2026-04-28T14:31:24.011Z</time></trkpt><trkpt lat="35.8156883" lon="-5.6203983"><ele>152.33333333333334</ele><time>2026-04-28T14:31:25.011Z</time></trkpt><trkpt lat="35.8155133" lon="-5.6202833"><ele>150.0</ele><time>2026-04-28T14:31:26.011Z</time></trkpt><trkpt lat="35.8153367" lon="-5.6201583"><ele>152.0</ele><time>2026-04-28T14:31:27.011Z</time></trkpt><trkpt lat="35.8151617" lon="-5.6200317"><ele>154.0</ele><time>2026-04-28T14:31:28.011Z</time></trkpt><trkpt lat="35.8149867" lon="-5.6199"><ele>156.0</ele><time>2026-04-28T14:31:29.01Z</time></trkpt><trkpt lat="35.814815" lon="-5.619765"><ele>156.0</ele><time>2026-04-28T14:31:30.011Z</time></trkpt><trkpt lat="35.8146417" lon="-5.6196333"><ele>156.0</ele><time>2026-04-28T14:31:31.011Z</time></trkpt><trkpt lat="35.814475" lon="-5.6195067"><ele>156.0</ele><time>2026-04-28T14:31:32.011Z</time></trkpt><trkpt lat="35.8143133" lon="-5.619385"><ele>155.0</ele><time>2026-04-28T14:31:33.01Z</time></trkpt><trkpt lat="35.814155" lon="-5.619265"><ele>154.0</ele><time>2026-04-28T14:31:34.011Z</time></trkpt><trkpt lat="35.8139933" lon="-5.61916"><ele>153.0</ele><time>2026-04-28T14:31:35.011Z</time></trkpt><trkpt lat="35.8138367" lon="-5.6190483"><ele>153.0</ele><time>2026-04-28T14:31:36.011Z</time></trkpt><trkpt lat="35.8136767" lon="-5.618935"><ele>153.0</ele><time>2026-04-28T14:31:37.011Z</time></trkpt><trkpt lat="35.8135083" lon="-5.6188217"><ele>153.0</ele><time>2026-04-28T14:31:38.011Z</time></trkpt><trkpt lat="35.8133467" lon="-5.61871"><ele>149.33333333333334</ele><time>2026-04-28T14:31:39.011Z</time></trkpt><trkpt lat="35.8131867" lon="-5.6186"><ele>145.66666666666669</ele><time>2026-04-28T14:31:40.011Z</time></trkpt><trkpt lat="35.8130383" lon="-5.61848"><ele>142.0</ele><time>2026-04-28T14:31:41.011Z</time></trkpt><trkpt lat="35.8128917" lon="-5.6183583"><ele>142.0</ele><time>2026-04-28T14:31:42.011Z</time></trkpt><trkpt lat="35.8127517" lon="-5.6182367"><ele>142.0</ele><time>2026-04-28T14:31:43.011Z</time></trkpt><trkpt lat="35.81263" lon="-5.618105"><ele>142.0</ele><time>2026-04-28T14:31:44.011Z</time></trkpt><trkpt lat="35.8125283" lon="-5.6179733"><ele>143.25</ele><time>2026-04-28T14:31:45.011Z</time></trkpt><trkpt lat="35.8124533" lon="-5.6178267"><ele>144.5</ele><time>2026-04-28T14:31:46.01Z</time></trkpt><trkpt lat="35.8124033" lon="-5.6176733"><ele>145.75</ele><time>2026-04-28T14:31:47.011Z</time></trkpt><trkpt lat="35.8123733" lon="-5.61751"><ele>147.0</ele><time>2026-04-28T14:31:48.011Z</time></trkpt><trkpt lat="35.8123483" lon="-5.6173467"><ele>144.0</ele><time>2026-04-28T14:31:49.011Z</time></trkpt><trkpt lat="35.8123267" lon="-5.6171717"><ele>141.0</ele><time>2026-04-28T14:31:50.01Z</time></trkpt><trkpt lat="35.8123117" lon="-5.6170017"><ele>138.0</ele><time>2026-04-28T14:31:51.011Z</time></trkpt><trkpt lat="35.8122883" lon="-5.6168333"><ele>135.0</ele><time>2026-04-28T14:31:52.011Z</time></trkpt><trkpt lat="35.812245" lon="-5.616665"><ele>130.0</ele><time>2026-04-28T14:31:53.011Z</time></trkpt><trkpt lat="35.8121867" lon="-5.6164983"><ele>125.0</ele><time>2026-04-28T14:31:54.011Z</time></trkpt><trkpt lat="35.8120967" lon="-5.616335"><ele>120.0</ele><time>2026-04-28T14:31:55.011Z</time></trkpt><trkpt lat="35.811985" lon="-5.6162"><ele>120.0</ele><time>2026-04-28T14:31:56.011Z</time></trkpt><trkpt lat="35.8118517" lon="-5.6160817"><ele>120.0</ele><time>2026-04-28T14:31:57.011Z</time></trkpt><trkpt lat="35.81171" lon="-5.6159717"><ele>120.0</ele><time>2026-04-28T14:31:58.011Z</time></trkpt><trkpt lat="35.81157" lon="-5.61587"><ele>120.0</ele><time>2026-04-28T14:31:59.011Z</time></trkpt><trkpt lat="35.8114383" lon="-5.6157633"><ele>120.0</ele><time>2026-04-28T14:32:00.011Z</time></trkpt><trkpt lat="35.8113133" lon="-5.6156467"><ele>120.0</ele><time>2026-04-28T14:32:01.011Z</time></trkpt><trkpt lat="35.8112033" lon="-5.615505"><ele>120.0</ele><time>2026-04-28T14:32:02.011Z</time></trkpt><trkpt lat="35.811125" lon="-5.6153483"><ele>120.0</ele><time>2026-04-28T14:32:03.011Z</time></trkpt><trkpt lat="35.8110733" lon="-5.6151583"><ele>120.0</ele><time>2026-04-28T14:32:04.011Z</time></trkpt><trkpt lat="35.8110367" lon="-5.6149233"><ele>115.0</ele><time>2026-04-28T14:32:05.011Z</time></trkpt><trkpt lat="35.811015" lon="-5.614635"><ele>110.0</ele><time>2026-04-28T14:32:06.011Z</time></trkpt><trkpt lat="35.81099" lon="-5.6143267"><ele>110.0</ele><time>2026-04-28T14:32:07.011Z</time></trkpt><trkpt lat="35.8109517" lon="-5.614035"><ele>110.0</ele><time>2026-04-28T14:32:08.011Z</time></trkpt><trkpt lat="35.8109133" lon="-5.61376"><ele>107.0</ele><time>2026-04-28T14:32:09.011Z</time></trkpt><trkpt lat="35.8108783" lon="-5.6135"><ele>104.0</ele><time>2026-04-28T14:32:10.011Z</time></trkpt><trkpt lat="35.8108433" lon="-5.61325"><ele>101.0</ele><time>2026-04-28T14:32:11.011Z</time></trkpt><trkpt lat="35.8108233" lon="-5.6130067"><ele>99.33333333333333</ele><time>2026-04-28T14:32:12.011Z</time></trkpt><trkpt lat="35.8108183" lon="-5.612775"><ele>97.66666666666666</ele><time>2026-04-28T14:32:13.011Z</time></trkpt><trkpt lat="35.8108417" lon="-5.6125633"><ele>96.0</ele><time>2026-04-28T14:32:14.011Z</time></trkpt><trkpt lat="35.81089" lon="-5.6123617"><ele>96.0</ele><time>2026-04-28T14:32:15.011Z</time></trkpt><trkpt lat="35.8109817" lon="-5.6121867"><ele>96.0</ele><time>2026-04-28T14:32:16.011Z</time></trkpt><trkpt lat="35.8111017" lon="-5.612045"><ele>96.0</ele><time>2026-04-28T14:32:17.011Z</time></trkpt><trkpt lat="35.81124" lon="-5.61194"><ele>95.33333333333333</ele><time>2026-04-28T14:32:18.011Z</time></trkpt><trkpt lat="35.8114033" lon="-5.61188"><ele>94.66666666666666</ele><time>2026-04-28T14:32:19.01Z</time></trkpt><trkpt lat="35.8115783" lon="-5.61186"><ele>94.0</ele><time>2026-04-28T14:32:20.011Z</time></trkpt><trkpt lat="35.8117517" lon="-5.6118783"><ele>95.66666666666666</ele><time>2026-04-28T14:32:21.011Z</time></trkpt><trkpt lat="35.8119067" lon="-5.6119583"><ele>97.33333333333333</ele><time>2026-04-28T14:32:22.011Z</time></trkpt><trkpt lat="35.8120483" lon="-5.6120767"><ele>99.0</ele><time>2026-04-28T14:32:23.011Z</time></trkpt><trkpt lat="35.8121717" lon="-5.6122233"><ele>95.66666666666667</ele><time>2026-04-28T14:32:24.011Z</time></trkpt><trkpt lat="35.8122933" lon="-5.6124083"><ele>92.33333333333334</ele><time>2026-04-28T14:32:25.01Z</time></trkpt><trkpt lat="35.8124217" lon="-5.612595"><ele>89.0</ele><time>2026-04-28T14:32:26.011Z</time></trkpt><trkpt lat="35.8125517" lon="-5.6127717"><ele>86.0</ele><time>2026-04-28T14:32:27.011Z</time></trkpt><trkpt lat="35.8126833" lon="-5.6129367"><ele>83.0</ele><time>2026-04-28T14:32:28.011Z</time></trkpt><trkpt lat="35.812835" lon="-5.61308"><ele>80.0</ele><time>2026-04-28T14:32:29.011Z</time></trkpt><trkpt lat="35.8130083" lon="-5.61319"><ele>80.0</ele><time>2026-04-28T14:32:30.011Z</time></trkpt><trkpt lat="35.8131883" lon="-5.6132717"><ele>80.0</ele><time>2026-04-28T14:32:31.011Z</time></trkpt><trkpt lat="35.8133733" lon="-5.613325"><ele>80.0</ele><time>2026-04-28T14:32:32.011Z</time></trkpt><trkpt lat="35.81356" lon="-5.6133533"><ele>78.0</ele><time>2026-04-28T14:32:33.01Z</time></trkpt><trkpt lat="35.8137517" lon="-5.6133567"><ele>76.0</ele><time>2026-04-28T14:32:34.011Z</time></trkpt><trkpt lat="35.8139383" lon="-5.613335"><ele>74.0</ele><time>2026-04-28T14:32:35.011Z</time></trkpt><trkpt lat="35.8141283" lon="-5.6132917"><ele>74.0</ele><time>2026-04-28T14:32:36.011Z</time></trkpt><trkpt lat="35.81432" lon="-5.6132417"><ele>74.0</ele><time>2026-04-28T14:32:37.011Z</time></trkpt><trkpt lat="35.8145183" lon="-5.6131867"><ele>74.0</ele><time>2026-04-28T14:32:38.011Z</time></trkpt><trkpt lat="35.81471" lon="-5.6131383"><ele>71.33333333333334</ele><time>2026-04-28T14:32:39.011Z</time></trkpt><trkpt lat="35.8149067" lon="-5.613095"><ele>68.66666666666667</ele><time>2026-04-28T14:32:40.011Z</time></trkpt><trkpt lat="35.8151033" lon="-5.6130533"><ele>66.0</ele><time>2026-04-28T14:32:41.011Z</time></trkpt><trkpt lat="35.8152917" lon="-5.6130083"><ele>64.66666666666667</ele><time>2026-04-28T14:32:42.011Z</time></trkpt><trkpt lat="35.8154817" lon="-5.612965"><ele>63.333333333333336</ele><time>2026-04-28T14:32:43.011Z</time></trkpt><trkpt lat="35.815675" lon="-5.61292"><ele>62.0</ele><time>2026-04-28T14:32:44.011Z</time></trkpt><trkpt lat="35.8158683" lon="-5.6128733"><ele>61.333333333333336</ele><time>2026-04-28T14:32:45.011Z</time></trkpt><trkpt lat="35.8160617" lon="-5.6128233"><ele>60.66666666666667</ele><time>2026-04-28T14:32:46.01Z</time></trkpt><trkpt lat="35.8162567" lon="-5.6127767"><ele>60.0</ele><time>2026-04-28T14:32:47.011Z</time></trkpt><trkpt lat="35.816445" lon="-5.612735"><ele>60.33333333333333</ele><time>2026-04-28T14:32:48.011Z</time></trkpt><trkpt lat="35.8166367" lon="-5.612685"><ele>60.666666666666664</ele><time>2026-04-28T14:32:49.01Z</time></trkpt><trkpt lat="35.8168283" lon="-5.6126367"><ele>61.0</ele><time>2026-04-28T14:32:50.011Z</time></trkpt><trkpt lat="35.8170167" lon="-5.6125983"><ele>61.0</ele><time>2026-04-28T14:32:51.011Z</time></trkpt><trkpt lat="35.8172133" lon="-5.6125633"><ele>61.0</ele><time>2026-04-28T14:32:52.01Z</time></trkpt><trkpt lat="35.8174067" lon="-5.6125367"><ele>61.0</ele><time>2026-04-28T14:32:53.011Z</time></trkpt><trkpt lat="35.817605" lon="-5.6125167"><ele>61.0</ele><time>2026-04-28T14:32:54.011Z</time></trkpt><trkpt lat="35.8177983" lon="-5.61251"><ele>61.0</ele><time>2026-04-28T14:32:55.011Z</time></trkpt><trkpt lat="35.8179933" lon="-5.6125083"><ele>61.0</ele><time>2026-04-28T14:32:56.011Z</time></trkpt><trkpt lat="35.8181833" lon="-5.61251"><ele>61.0</ele><time>2026-04-28T14:32:57.011Z</time></trkpt><trkpt lat="35.8183783" lon="-5.6125117"><ele>61.0</ele><time>2026-04-28T14:32:58.011Z</time></trkpt><trkpt lat="35.8185783" lon="-5.6125133"><ele>61.0</ele><time>2026-04-28T14:32:59.011Z</time></trkpt><trkpt lat="35.8187767" lon="-5.6125117"><ele>60.0</ele><time>2026-04-28T14:33:00.011Z</time></trkpt><trkpt lat="35.8189733" lon="-5.6125033"><ele>59.0</ele><time>2026-04-28T14:33:01.011Z</time></trkpt><trkpt lat="35.8191683" lon="-5.6124833"><ele>58.0</ele><time>2026-04-28T14:33:02.011Z</time></trkpt><trkpt lat="35.8193617" lon="-5.6124517"><ele>56.33333333333333</ele><time>2026-04-28T14:33:03.011Z</time></trkpt><trkpt lat="35.8195517" lon="-5.6124083"><ele>54.66666666666667</ele><time>2026-04-28T14:33:04.011Z</time></trkpt><trkpt lat="35.819745" lon="-5.612375"><ele>53.0</ele><time>2026-04-28T14:33:05.011Z</time></trkpt><trkpt lat="35.8199383" lon="-5.6123333"><ele>53.0</ele><time>2026-04-28T14:33:06.011Z</time></trkpt><trkpt lat="35.8201283" lon="-5.6122867"><ele>53.0</ele><time>2026-04-28T14:33:07.01Z</time></trkpt><trkpt lat="35.82032" lon="-5.6122467"><ele>53.0</ele><time>2026-04-28T14:33:08.011Z</time></trkpt><trkpt lat="35.8205117" lon="-5.6122117"><ele>51.333333333333336</ele><time>2026-04-28T14:33:09.011Z</time></trkpt><trkpt lat="35.8207" lon="-5.61218"><ele>49.66666666666667</ele><time>2026-04-28T14:33:10.011Z</time></trkpt><trkpt lat="35.82089" lon="-5.6121483"><ele>48.0</ele><time>2026-04-28T14:33:11.011Z</time></trkpt><trkpt lat="35.821085" lon="-5.6121167"><ele>47.333333333333336</ele><time>2026-04-28T14:33:12.011Z</time></trkpt><trkpt lat="35.8212833" lon="-5.6121033"><ele>46.66666666666667</ele><time>2026-04-28T14:33:13.011Z</time></trkpt><trkpt lat="35.8214833" lon="-5.6121017"><ele>46.0</ele><time>2026-04-28T14:33:14.011Z</time></trkpt><trkpt lat="35.82168" lon="-5.6121083"><ele>46.66666666666667</ele><time>2026-04-28T14:33:15.011Z</time></trkpt><trkpt lat="35.82188" lon="-5.61212"><ele>47.333333333333336</ele><time>2026-04-28T14:33:16.011Z</time></trkpt><trkpt lat="35.82208" lon="-5.6121433"><ele>48.0</ele><time>2026-04-28T14:33:17.011Z</time></trkpt><trkpt lat="35.822275" lon="-5.612165"><ele>48.0</ele><time>2026-04-28T14:33:18.011Z</time></trkpt><trkpt lat="35.8224717" lon="-5.612185"><ele>48.0</ele><time>2026-04-28T14:33:19.011Z</time></trkpt><trkpt lat="35.8226717" lon="-5.6122033"><ele>48.0</ele><time>2026-04-28T14:33:20.011Z</time></trkpt><trkpt lat="35.822865" lon="-5.6122133"><ele>48.0</ele><time>2026-04-28T14:33:21.011Z</time></trkpt><trkpt lat="35.8230583" lon="-5.6122317"><ele>48.0</ele><time>2026-04-28T14:33:22.011Z</time></trkpt><trkpt lat="35.8232517" lon="-5.6122433"><ele>48.0</ele><time>2026-04-28T14:33:23.011Z</time></trkpt><trkpt lat="35.82345" lon="-5.6122483"><ele>46.666666666666664</ele><time>2026-04-28T14:33:24.011Z</time></trkpt><trkpt lat="35.82365" lon="-5.612245"><ele>45.33333333333333</ele><time>2026-04-28T14:33:25.011Z</time></trkpt><trkpt lat="35.8238433" lon="-5.61223"><ele>44.0</ele><time>2026-04-28T14:33:26.011Z</time></trkpt><trkpt lat="35.824035" lon="-5.6122067"><ele>44.0</ele><time>2026-04-28T14:33:27.011Z</time></trkpt><trkpt lat="35.824225" lon="-5.6121733"><ele>44.0</ele><time>2026-04-28T14:33:28.011Z</time></trkpt><trkpt lat="35.8244183" lon="-5.6121417"><ele>44.0</ele><time>2026-04-28T14:33:29.011Z</time></trkpt><trkpt lat="35.8246083" lon="-5.6121033"><ele>43.0</ele><time>2026-04-28T14:33:30.011Z</time></trkpt><trkpt lat="35.8248033" lon="-5.6120683"><ele>42.0</ele><time>2026-04-28T14:33:31.01Z</time></trkpt><trkpt lat="35.8249983" lon="-5.6120283"><ele>41.0</ele><time>2026-04-28T14:33:32.011Z</time></trkpt><trkpt lat="35.8251917" lon="-5.611985"><ele>43.33333333333333</ele><time>2026-04-28T14:33:33.011Z</time></trkpt><trkpt lat="35.8253833" lon="-5.6119267"><ele>45.666666666666664</ele><time>2026-04-28T14:33:34.011Z</time></trkpt><trkpt lat="35.8255717" lon="-5.6118533"><ele>48.0</ele><time>2026-04-28T14:33:35.011Z</time></trkpt><trkpt lat="35.825755" lon="-5.6117667"><ele>48.0</ele><time>2026-04-28T14:33:36.011Z</time></trkpt><trkpt lat="35.825935" lon="-5.611675"><ele>48.0</ele><time>2026-04-28T14:33:37.011Z</time></trkpt><trkpt lat="35.8261083" lon="-5.6115767"><ele>48.0</ele><time>2026-04-28T14:33:38.011Z</time></trkpt><trkpt lat="35.8262883" lon="-5.6114817"><ele>45.666666666666664</ele><time>2026-04-28T14:33:39.011Z</time></trkpt><trkpt lat="35.826475" lon="-5.611395"><ele>43.33333333333333</ele><time>2026-04-28T14:33:40.011Z</time></trkpt><trkpt lat="35.8266567" lon="-5.6113083"><ele>41.0</ele><time>2026-04-28T14:33:41.011Z</time></trkpt><trkpt lat="35.82684" lon="-5.6112133"><ele>43.0</ele><time>2026-04-28T14:33:42.011Z</time></trkpt><trkpt lat="35.8270183" lon="-5.6111183"><ele>45.0</ele><time>2026-04-28T14:33:43.011Z</time></trkpt><trkpt lat="35.827195" lon="-5.6110117"><ele>47.0</ele><time>2026-04-28T14:33:44.011Z</time></trkpt><trkpt lat="35.8273683" lon="-5.61091"><ele>47.0</ele><time>2026-04-28T14:33:45.011Z</time></trkpt><trkpt lat="35.82754" lon="-5.6108067"><ele>47.0</ele><time>2026-04-28T14:33:46.011Z</time></trkpt><trkpt lat="35.827715" lon="-5.6107"><ele>47.0</ele><time>2026-04-28T14:33:47.011Z</time></trkpt><trkpt lat="35.8278783" lon="-5.6105817"><ele>45.666666666666664</ele><time>2026-04-28T14:33:48.011Z</time></trkpt><trkpt lat="35.828035" lon="-5.6104617"><ele>44.333333333333336</ele><time>2026-04-28T14:33:49.011Z</time></trkpt><trkpt lat="35.8281917" lon="-5.6103183"><ele>43.0</ele><time>2026-04-28T14:33:50.011Z</time></trkpt><trkpt lat="35.82834" lon="-5.6101617"><ele>44.333333333333336</ele><time>2026-04-28T14:33:51.011Z</time></trkpt><trkpt lat="35.8284883" lon="-5.6100033"><ele>45.666666666666664</ele><time>2026-04-28T14:33:52.011Z</time></trkpt><trkpt lat="35.8286383" lon="-5.60984"><ele>47.0</ele><time>2026-04-28T14:33:53.011Z</time></trkpt><trkpt lat="35.82878" lon="-5.609685"><ele>47.0</ele><time>2026-04-28T14:33:54.01Z</time></trkpt><trkpt lat="35.82891" lon="-5.60953"><ele>47.0</ele><time>2026-04-28T14:33:55.011Z</time></trkpt><trkpt lat="35.829015" lon="-5.60938"><ele>47.0</ele><time>2026-04-28T14:33:56.011Z</time></trkpt><trkpt lat="35.8291083" lon="-5.6092317"><ele>49.75</ele><time>2026-04-28T14:33:57.011Z</time></trkpt><trkpt lat="35.8291833" lon="-5.6090817"><ele>52.5</ele><time>2026-04-28T14:33:58.011Z</time></trkpt><trkpt lat="35.82924" lon="-5.6089317"><ele>55.25</ele><time>2026-04-28T14:33:59.011Z</time></trkpt><trkpt lat="35.8292783" lon="-5.6087733"><ele>58.0</ele><time>2026-04-28T14:34:00.011Z</time></trkpt><trkpt lat="35.829305" lon="-5.6086367"><ele>55.25</ele><time>2026-04-28T14:34:01.011Z</time></trkpt><trkpt lat="35.8293183" lon="-5.6084983"><ele>52.5</ele><time>2026-04-28T14:34:02.011Z</time></trkpt><trkpt lat="35.8293267" lon="-5.60836"><ele>49.75</ele><time>2026-04-28T14:34:03.011Z</time></trkpt><trkpt lat="35.8293283" lon="-5.60822"><ele>47.0</ele><time>2026-04-28T14:34:04.011Z</time></trkpt><trkpt lat="35.8293283" lon="-5.6080783"><ele>47.0</ele><time>2026-04-28T14:34:05.011Z</time></trkpt><trkpt lat="35.82931" lon="-5.6079383"><ele>47.0</ele><time>2026-04-28T14:34:06.011Z</time></trkpt><trkpt lat="35.8292883" lon="-5.6077967"><ele>47.0</ele><time>2026-04-28T14:34:07.01Z</time></trkpt><trkpt lat="35.82926" lon="-5.6076683"><ele>47.0</ele><time>2026-04-28T14:34:08.011Z</time></trkpt><trkpt lat="35.8292183" lon="-5.6075433"><ele>47.0</ele><time>2026-04-28T14:34:09.01Z</time></trkpt><trkpt lat="35.82917" lon="-5.6074167"><ele>48.75</ele><time>2026-04-28T14:34:10.011Z</time></trkpt><trkpt lat="35.8291" lon="-5.6072967"><ele>50.5</ele><time>2026-04-28T14:34:11.011Z</time></trkpt><trkpt lat="35.8290317" lon="-5.6071783"><ele>52.25</ele><time>2026-04-28T14:34:12.011Z</time></trkpt><trkpt lat="35.8289533" lon="-5.60706"><ele>54.0</ele><time>2026-04-28T14:34:13.011Z</time></trkpt><trkpt lat="35.828865" lon="-5.6069533"><ele>54.0</ele><time>2026-04-28T14:34:14.011Z</time></trkpt><trkpt lat="35.8287617" lon="-5.606855"><ele>54.0</ele><time>2026-04-28T14:34:15.01Z</time></trkpt><trkpt lat="35.828655" lon="-5.60677"><ele>54.0</ele><time>2026-04-28T14:34:16.011Z</time></trkpt><trkpt lat="35.8285367" lon="-5.6066983"><ele>54.0</ele><time>2026-04-28T14:34:17.011Z</time></trkpt><trkpt lat="35.82841" lon="-5.606645"><ele>55.5</ele><time>2026-04-28T14:34:18.011Z</time></trkpt><trkpt lat="35.8282883" lon="-5.6065867"><ele>57.0</ele><time>2026-04-28T14:34:19.011Z</time></trkpt><trkpt lat="35.8281583" lon="-5.606555"><ele>58.5</ele><time>2026-04-28T14:34:20.011Z</time></trkpt><trkpt lat="35.8280283" lon="-5.6065317"><ele>60.0</ele><time>2026-04-28T14:34:21.011Z</time></trkpt><trkpt lat="35.8279017" lon="-5.6065183"><ele>60.0</ele><time>2026-04-28T14:34:22.011Z</time></trkpt><trkpt lat="35.82777" lon="-5.60653"><ele>60.0</ele><time>2026-04-28T14:34:23.011Z</time></trkpt><trkpt lat="35.82763" lon="-5.6065433"><ele>60.0</ele><time>2026-04-28T14:34:24.011Z</time></trkpt><trkpt lat="35.827495" lon="-5.6065583"><ele>60.0</ele><time>2026-04-28T14:34:25.011Z</time></trkpt><trkpt lat="35.82736" lon="-5.60657"><ele>60.0</ele><time>2026-04-28T14:34:26.011Z</time></trkpt><trkpt lat="35.82723" lon="-5.606575"><ele>60.0</ele><time>2026-04-28T14:34:27.011Z</time></trkpt><trkpt lat="35.8271133" lon="-5.6065733"><ele>60.0</ele><time>2026-04-28T14:34:28.011Z</time></trkpt><trkpt lat="35.82699" lon="-5.60656"><ele>60.0</ele><time>2026-04-28T14:34:29.011Z</time></trkpt><trkpt lat="35.8268617" lon="-5.6065333"><ele>60.25</ele><time>2026-04-28T14:34:30.01Z</time></trkpt><trkpt lat="35.8267267" lon="-5.6064783"><ele>60.5</ele><time>2026-04-28T14:34:31.011Z</time></trkpt><trkpt lat="35.8265983" lon="-5.6063917"><ele>60.75</ele><time>2026-04-28T14:34:32.011Z</time></trkpt><trkpt lat="35.8264817" lon="-5.60628"><ele>61.0</ele><time>2026-04-28T14:34:33.011Z</time></trkpt><trkpt lat="35.8263833" lon="-5.6061383"><ele>58.0</ele><time>2026-04-28T14:34:34.011Z</time></trkpt><trkpt lat="35.8263" lon="-5.6059783"><ele>55.0</ele><time>2026-04-28T14:34:35.01Z</time></trkpt><trkpt lat="35.8262417" lon="-5.6058167"><ele>52.0</ele><time>2026-04-28T14:34:36.01Z</time></trkpt><trkpt lat="35.8262033" lon="-5.605655"><ele>49.0</ele><time>2026-04-28T14:34:37.011Z</time></trkpt><trkpt lat="35.8261917" lon="-5.6054783"><ele>48.5</ele><time>2026-04-28T14:34:38.011Z</time></trkpt><trkpt lat="35.8261983" lon="-5.6053"><ele>48.0</ele><time>2026-04-28T14:34:39.011Z</time></trkpt><trkpt lat="35.82624" lon="-5.605115"><ele>47.5</ele><time>2026-04-28T14:34:40.011Z</time></trkpt><trkpt lat="35.826295" lon="-5.60495"><ele>47.0</ele><time>2026-04-28T14:34:41.011Z</time></trkpt><trkpt lat="35.8263583" lon="-5.6048017"><ele>47.0</ele><time>2026-04-28T14:34:42.011Z</time></trkpt><trkpt lat="35.8264267" lon="-5.60465"><ele>47.0</ele><time>2026-04-28T14:34:43.011Z</time></trkpt><trkpt lat="35.8265067" lon="-5.6045083"><ele>47.0</ele><time>2026-04-28T14:34:44.011Z</time></trkpt><trkpt lat="35.8265867" lon="-5.604365"><ele>47.0</ele><time>2026-04-28T14:34:45.011Z</time></trkpt><trkpt lat="35.8266667" lon="-5.6042233"><ele>48.0</ele><time>2026-04-28T14:34:46.011Z</time></trkpt><trkpt lat="35.8267467" lon="-5.6040883"><ele>49.0</ele><time>2026-04-28T14:34:47.011Z</time></trkpt><trkpt lat="35.8268217" lon="-5.6039467"><ele>50.0</ele><time>2026-04-28T14:34:48.011Z</time></trkpt><trkpt lat="35.8268883" lon="-5.6038117"><ele>51.0</ele><time>2026-04-28T14:34:49.011Z</time></trkpt><trkpt lat="35.826945" lon="-5.6036933"><ele>49.8</ele><time>2026-04-28T14:34:50.011Z</time></trkpt><trkpt lat="35.8269883" lon="-5.6035617"><ele>48.599999999999994</ele><time>2026-04-28T14:34:51.011Z</time></trkpt><trkpt lat="35.8270233" lon="-5.6034333"><ele>47.4</ele><time>2026-04-28T14:34:52.011Z</time></trkpt><trkpt lat="35.8270483" lon="-5.6033017"><ele>46.2</ele><time>2026-04-28T14:34:53.011Z</time></trkpt><trkpt lat="35.827055" lon="-5.6031733"><ele>45.0</ele><time>2026-04-28T14:34:54.011Z</time></trkpt><trkpt lat="35.8270417" lon="-5.6030367"><ele>45.0</ele><time>2026-04-28T14:34:55.011Z</time></trkpt><trkpt lat="35.8270117" lon="-5.602905"><ele>45.0</ele><time>2026-04-28T14:34:56.011Z</time></trkpt><trkpt lat="35.826975" lon="-5.602775"><ele>45.0</ele><time>2026-04-28T14:34:57.01Z</time></trkpt><trkpt lat="35.8269267" lon="-5.6026417"><ele>45.0</ele><time>2026-04-28T14:34:58.01Z</time></trkpt><trkpt lat="35.8268767" lon="-5.602505"><ele>45.5</ele><time>2026-04-28T14:34:59.011Z</time></trkpt><trkpt lat="35.82682" lon="-5.6023633"><ele>46.0</ele><time>2026-04-28T14:35:00.011Z</time></trkpt><trkpt lat="35.8267633" lon="-5.6022167"><ele>46.5</ele><time>2026-04-28T14:35:01.011Z</time></trkpt><trkpt lat="35.8267017" lon="-5.6020717"><ele>47.0</ele><time>2026-04-28T14:35:02.011Z</time></trkpt><trkpt lat="35.826645" lon="-5.6019333"><ele>48.5</ele><time>2026-04-28T14:35:03.011Z</time></trkpt><trkpt lat="35.8265917" lon="-5.6017967"><ele>50.0</ele><time>2026-04-28T14:35:04.011Z</time></trkpt><trkpt lat="35.8265367" lon="-5.6016567"><ele>51.5</ele><time>2026-04-28T14:35:05.011Z</time></trkpt><trkpt lat="35.826485" lon="-5.6015217"><ele>53.0</ele><time>2026-04-28T14:35:06.011Z</time></trkpt><trkpt lat="35.8264383" lon="-5.601385"><ele>53.0</ele><time>2026-04-28T14:35:07.011Z</time></trkpt><trkpt lat="35.82641" lon="-5.6012383"><ele>53.0</ele><time>2026-04-28T14:35:08.011Z</time></trkpt><trkpt lat="35.82641" lon="-5.6010767"><ele>53.0</ele><time>2026-04-28T14:35:09.011Z</time></trkpt><trkpt lat="35.82642" lon="-5.6009117"><ele>53.0</ele><time>2026-04-28T14:35:10.011Z</time></trkpt><trkpt lat="35.8264533" lon="-5.6007583"><ele>51.75</ele><time>2026-04-28T14:35:11.011Z</time></trkpt><trkpt lat="35.8265017" lon="-5.60062"><ele>50.5</ele><time>2026-04-28T14:35:12.011Z</time></trkpt><trkpt lat="35.8265667" lon="-5.6004933"><ele>49.25</ele><time>2026-04-28T14:35:13.011Z</time></trkpt><trkpt lat="35.826655" lon="-5.6003783"><ele>48.0</ele><time>2026-04-28T14:35:14.011Z</time></trkpt><trkpt lat="35.8267617" lon="-5.6002967"><ele>47.5</ele><time>2026-04-28T14:35:15.011Z</time></trkpt><trkpt lat="35.8268833" lon="-5.6002383"><ele>47.0</ele><time>2026-04-28T14:35:16.011Z</time></trkpt><trkpt lat="35.8270067" lon="-5.6002033"><ele>46.5</ele><time>2026-04-28T14:35:17.01Z</time></trkpt><trkpt lat="35.827135" lon="-5.6001683"><ele>46.0</ele><time>2026-04-28T14:35:18.011Z</time></trkpt><trkpt lat="35.827265" lon="-5.600155"><ele>46.0</ele><time>2026-04-28T14:35:19.011Z</time></trkpt><trkpt lat="35.8273967" lon="-5.6001383"><ele>46.0</ele><time>2026-04-28T14:35:20.011Z</time></trkpt><trkpt lat="35.827535" lon="-5.6001267"><ele>46.0</ele><time>2026-04-28T14:35:21.011Z</time></trkpt><trkpt lat="35.82768" lon="-5.6001133"><ele>46.0</ele><time>2026-04-28T14:35:22.011Z</time></trkpt><trkpt lat="35.8278283" lon="-5.6001017"><ele>44.25</ele><time>2026-04-28T14:35:23.011Z</time></trkpt><trkpt lat="35.8279667" lon="-5.6000867"><ele>42.5</ele><time>2026-04-28T14:35:24.011Z</time></trkpt><trkpt lat="35.8281033" lon="-5.6000567"><ele>40.75</ele><time>2026-04-28T14:35:25.011Z</time></trkpt><trkpt lat="35.8282333" lon="-5.60001"><ele>39.0</ele><time>2026-04-28T14:35:26.011Z</time></trkpt><trkpt lat="35.8283617" lon="-5.5999433"><ele>36.25</ele><time>2026-04-28T14:35:27.011Z</time></trkpt><trkpt lat="35.82848" lon="-5.5998517"><ele>33.5</ele><time>2026-04-28T14:35:28.011Z</time></trkpt><trkpt lat="35.8285817" lon="-5.5997367"><ele>30.75</ele><time>2026-04-28T14:35:29.011Z</time></trkpt><trkpt lat="35.8286717" lon="-5.5996117"><ele>28.0</ele><time>2026-04-28T14:35:30.011Z</time></trkpt><trkpt lat="35.8287383" lon="-5.599465"><ele>27.75</ele><time>2026-04-28T14:35:31.011Z</time></trkpt><trkpt lat="35.8287967" lon="-5.5993183"><ele>27.5</ele><time>2026-04-28T14:35:32.011Z</time></trkpt><trkpt lat="35.828855" lon="-5.5991733"><ele>27.25</ele><time>2026-04-28T14:35:33.011Z</time></trkpt><trkpt lat="35.8289167" lon="-5.5990217"><ele>27.0</ele><time>2026-04-28T14:35:34.011Z</time></trkpt><trkpt lat="35.82898" lon="-5.5988633"><ele>27.0</ele><time>2026-04-28T14:35:35.011Z</time></trkpt><trkpt lat="35.8290533" lon="-5.598705"><ele>27.0</ele><time>2026-04-28T14:35:36.011Z</time></trkpt><trkpt lat="35.8291317" lon="-5.5985417"><ele>27.0</ele><time>2026-04-28T14:35:37.01Z</time></trkpt><trkpt lat="35.829215" lon="-5.5983767"><ele>24.0</ele><time>2026-04-28T14:35:38.011Z</time></trkpt><trkpt lat="35.829315" lon="-5.5982267"><ele>21.0</ele><time>2026-04-28T14:35:39.011Z</time></trkpt><trkpt lat="35.829415" lon="-5.5980733"><ele>18.0</ele><time>2026-04-28T14:35:40.011Z</time></trkpt><trkpt lat="35.8295233" lon="-5.597925"><ele>19.333333333333332</ele><time>2026-04-28T14:35:41.01Z</time></trkpt><trkpt lat="35.8296267" lon="-5.5977783"><ele>20.666666666666664</ele><time>2026-04-28T14:35:42.011Z</time></trkpt><trkpt lat="35.829735" lon="-5.5976433"><ele>22.0</ele><time>2026-04-28T14:35:43.01Z</time></trkpt><trkpt lat="35.8298417" lon="-5.59751"><ele>22.0</ele><time>2026-04-28T14:35:44.011Z</time></trkpt><trkpt lat="35.8299517" lon="-5.5973683"><ele>22.0</ele><time>2026-04-28T14:35:45.011Z</time></trkpt><trkpt lat="35.830065" lon="-5.5972267"><ele>22.0</ele><time>2026-04-28T14:35:46.011Z</time></trkpt><trkpt lat="35.830175" lon="-5.5970783"><ele>20.333333333333332</ele><time>2026-04-28T14:35:47.011Z</time></trkpt><trkpt lat="35.8302733" lon="-5.59692"><ele>18.666666666666668</ele><time>2026-04-28T14:35:48.01Z</time></trkpt><trkpt lat="35.8303633" lon="-5.596755"><ele>17.0</ele><time>2026-04-28T14:35:49.011Z</time></trkpt><trkpt lat="35.8304417" lon="-5.5965783"><ele>17.0</ele><time>2026-04-28T14:35:50.01Z</time></trkpt><trkpt lat="35.8305083" lon="-5.5964"><ele>17.0</ele><time>2026-04-28T14:35:51.011Z</time></trkpt><trkpt lat="35.83057" lon="-5.596215"><ele>17.0</ele><time>2026-04-28T14:35:52.009Z</time></trkpt><trkpt lat="35.830615" lon="-5.5960317"><ele>17.666666666666668</ele><time>2026-04-28T14:35:53.01Z</time></trkpt><trkpt lat="35.830655" lon="-5.595845"><ele>18.333333333333332</ele><time>2026-04-28T14:35:54.009Z</time></trkpt><trkpt lat="35.8306933" lon="-5.5956567"><ele>19.0</ele><time>2026-04-28T14:35:55.01Z</time></trkpt><trkpt lat="35.8307317" lon="-5.595465"><ele>19.666666666666664</ele><time>2026-04-28T14:35:56.01Z</time></trkpt><trkpt lat="35.8307617" lon="-5.5952817"><ele>20.333333333333332</ele><time>2026-04-28T14:35:57.01Z</time></trkpt><trkpt lat="35.830795" lon="-5.5950983"><ele>21.0</ele><time>2026-04-28T14:35:58.01Z</time></trkpt><trkpt lat="35.8308317" lon="-5.59492"><ele>21.0</ele><time>2026-04-28T14:35:59.01Z</time></trkpt><trkpt lat="35.8308683" lon="-5.5947383"><ele>21.0</ele><time>2026-04-28T14:36:00.01Z</time></trkpt><trkpt lat="35.830905" lon="-5.59456"><ele>21.0</ele><time>2026-04-28T14:36:01.01Z</time></trkpt><trkpt lat="35.8309383" lon="-5.594385"><ele>21.0</ele><time>2026-04-28T14:36:02.01Z</time></trkpt><trkpt lat="35.8309717" lon="-5.5942117"><ele>20.0</ele><time>2026-04-28T14:36:03.01Z</time></trkpt><trkpt lat="35.8310083" lon="-5.594045"><ele>19.0</ele><time>2026-04-28T14:36:04.01Z</time></trkpt><trkpt lat="35.83105" lon="-5.593875"><ele>18.0</ele><time>2026-04-28T14:36:05.01Z</time></trkpt><trkpt lat="35.8310917" lon="-5.593715"><ele>17.0</ele><time>2026-04-28T14:36:06.01Z</time></trkpt><trkpt lat="35.8311267" lon="-5.593555"><ele>17.0</ele><time>2026-04-28T14:36:07.01Z</time></trkpt><trkpt lat="35.8311533" lon="-5.5934033"><ele>17.0</ele><time>2026-04-28T14:36:08.01Z</time></trkpt><trkpt lat="35.83118" lon="-5.5932583"><ele>17.0</ele><time>2026-04-28T14:36:09.01Z</time></trkpt><trkpt lat="35.8312033" lon="-5.59312"><ele>17.0</ele><time>2026-04-28T14:36:10.01Z</time></trkpt><trkpt lat="35.8312383" lon="-5.5929767"><ele>17.25</ele><time>2026-04-28T14:36:11.01Z</time></trkpt><trkpt lat="35.831275" lon="-5.5928317"><ele>17.5</ele><time>2026-04-28T14:36:12.01Z</time></trkpt><trkpt lat="35.831305" lon="-5.592675"><ele>17.75</ele><time>2026-04-28T14:36:13.009Z</time></trkpt><trkpt lat="35.8313267" lon="-5.5925167"><ele>18.0</ele><time>2026-04-28T14:36:14.01Z</time></trkpt><trkpt lat="35.83135" lon="-5.5923417"><ele>18.0</ele><time>2026-04-28T14:36:15.01Z</time></trkpt><trkpt lat="35.8313833" lon="-5.5921683"><ele>18.0</ele><time>2026-04-28T14:36:16.01Z</time></trkpt><trkpt lat="35.831425" lon="-5.591995"><ele>18.0</ele><time>2026-04-28T14:36:17.01Z</time></trkpt><trkpt lat="35.8314633" lon="-5.5918083"><ele>18.0</ele><time>2026-04-28T14:36:18.01Z</time></trkpt><trkpt lat="35.8314883" lon="-5.5916183"><ele>18.333333333333332</ele><time>2026-04-28T14:36:19.01Z</time></trkpt><trkpt lat="35.831495" lon="-5.59142"><ele>18.666666666666664</ele><time>2026-04-28T14:36:20.01Z</time></trkpt><trkpt lat="35.8314933" lon="-5.5912133"><ele>19.0</ele><time>2026-04-28T14:36:21.01Z</time></trkpt><trkpt lat="35.8314833" lon="-5.59101"><ele>18.333333333333332</ele><time>2026-04-28T14:36:22.01Z</time></trkpt><trkpt lat="35.831455" lon="-5.5907967"><ele>17.666666666666668</ele><time>2026-04-28T14:36:23.01Z</time></trkpt><trkpt lat="35.83141" lon="-5.5905883"><ele>17.0</ele><time>2026-04-28T14:36:24.01Z</time></trkpt><trkpt lat="35.8313567" lon="-5.5903867"><ele>18.333333333333336</ele><time>2026-04-28T14:36:25.01Z</time></trkpt><trkpt lat="35.831305" lon="-5.5901867"><ele>19.666666666666668</ele><time>2026-04-28T14:36:26.01Z</time></trkpt><trkpt lat="35.831255" lon="-5.5899867"><ele>21.0</ele><time>2026-04-28T14:36:27.01Z</time></trkpt><trkpt lat="35.8311983" lon="-5.5897933"><ele>21.0</ele><time>2026-04-28T14:36:28.01Z</time></trkpt><trkpt lat="35.8311433" lon="-5.5896033"><ele>21.0</ele><time>2026-04-28T14:36:29.01Z</time></trkpt><trkpt lat="35.83109" lon="-5.5894167"><ele>21.0</ele><time>2026-04-28T14:36:30.01Z</time></trkpt><trkpt lat="35.831045" lon="-5.5892283"><ele>21.0</ele><time>2026-04-28T14:36:31.01Z</time></trkpt><trkpt lat="35.8310033" lon="-5.5890433"><ele>21.0</ele><time>2026-04-28T14:36:32.01Z</time></trkpt><trkpt lat="35.8309683" lon="-5.5888517"><ele>21.0</ele><time>2026-04-28T14:36:33.01Z</time></trkpt><trkpt lat="35.8309333" lon="-5.5886633"><ele>21.0</ele><time>2026-04-28T14:36:34.01Z</time></trkpt><trkpt lat="35.8308933" lon="-5.5884717"><ele>21.0</ele><time>2026-04-28T14:36:35.009Z</time></trkpt><trkpt lat="35.8308483" lon="-5.5882833"><ele>21.0</ele><time>2026-04-28T14:36:36.01Z</time></trkpt><trkpt lat="35.8308017" lon="-5.5880933"><ele>21.0</ele><time>2026-04-28T14:36:37.01Z</time></trkpt><trkpt lat="35.830745" lon="-5.587905"><ele>21.0</ele><time>2026-04-28T14:36:38.01Z</time></trkpt><trkpt lat="35.8306833" lon="-5.5877217"><ele>21.0</ele><time>2026-04-28T14:36:39.01Z</time></trkpt><trkpt lat="35.8306083" lon="-5.5875317"><ele>19.0</ele><time>2026-04-28T14:36:40.01Z</time></trkpt><trkpt lat="35.8305267" lon="-5.5873433"><ele>17.0</ele><time>2026-04-28T14:36:41.01Z</time></trkpt><trkpt lat="35.8304383" lon="-5.5871633"><ele>15.0</ele><time>2026-04-28T14:36:42.01Z</time></trkpt><trkpt lat="35.8303567" lon="-5.586985"><ele>16.333333333333332</ele><time>2026-04-28T14:36:43.01Z</time></trkpt><trkpt lat="35.8302767" lon="-5.58682"><ele>17.666666666666664</ele><time>2026-04-28T14:36:44.01Z</time></trkpt><trkpt lat="35.83019" lon="-5.5866667"><ele>19.0</ele><time>2026-04-28T14:36:45.01Z</time></trkpt><trkpt lat="35.8301083" lon="-5.5865133"><ele>19.0</ele><time>2026-04-28T14:36:46.01Z</time></trkpt><trkpt lat="35.83004" lon="-5.5863567"><ele>19.0</ele><time>2026-04-28T14:36:47.01Z</time></trkpt><trkpt lat="35.829975" lon="-5.5861967"><ele>19.0</ele><time>2026-04-28T14:36:48.01Z</time></trkpt><trkpt lat="35.8299283" lon="-5.5860233"><ele>19.0</ele><time>2026-04-28T14:36:49.01Z</time></trkpt><trkpt lat="35.8299017" lon="-5.5858367"><ele>17.25</ele><time>2026-04-28T14:36:50.01Z</time></trkpt><trkpt lat="35.82989" lon="-5.5856517"><ele>15.5</ele><time>2026-04-28T14:36:51.01Z</time></trkpt><trkpt lat="35.8299017" lon="-5.5854667"><ele>13.75</ele><time>2026-04-28T14:36:52.01Z</time></trkpt><trkpt lat="35.8299283" lon="-5.5852867"><ele>12.0</ele><time>2026-04-28T14:36:53.01Z</time></trkpt><trkpt lat="35.8299733" lon="-5.5851217"><ele>12.0</ele><time>2026-04-28T14:36:54.01Z</time></trkpt><trkpt lat="35.8300333" lon="-5.5849833"><ele>12.0</ele><time>2026-04-28T14:36:55.01Z</time></trkpt><trkpt lat="35.8301083" lon="-5.584855"><ele>12.0</ele><time>2026-04-28T14:36:56.01Z</time></trkpt><trkpt lat="35.8301983" lon="-5.5847333"><ele>12.0</ele><time>2026-04-28T14:36:57.009Z</time></trkpt><trkpt lat="35.8302933" lon="-5.5846217"><ele>11.333333333333334</ele><time>2026-04-28T14:36:58.01Z</time></trkpt><trkpt lat="35.8304233" lon="-5.58452"><ele>10.666666666666668</ele><time>2026-04-28T14:36:59.01Z</time></trkpt><trkpt lat="35.8306" lon="-5.5844217"><ele>10.0</ele><time>2026-04-28T14:37:00.01Z</time></trkpt><trkpt lat="35.8307917" lon="-5.5843283"><ele>12.666666666666668</ele><time>2026-04-28T14:37:01.01Z</time></trkpt><trkpt lat="35.8309767" lon="-5.584255"><ele>15.333333333333334</ele><time>2026-04-28T14:37:02.01Z</time></trkpt><trkpt lat="35.8311583" lon="-5.584195"><ele>18.0</ele><time>2026-04-28T14:37:03.01Z</time></trkpt><trkpt lat="35.83134" lon="-5.584135"><ele>18.0</ele><time>2026-04-28T14:37:04.01Z</time></trkpt><trkpt lat="35.8315317" lon="-5.584065"><ele>18.0</ele><time>2026-04-28T14:37:05.01Z</time></trkpt><trkpt lat="35.8317183" lon="-5.58398"><ele>18.0</ele><time>2026-04-28T14:37:06.01Z</time></trkpt><trkpt lat="35.831895" lon="-5.5838767"><ele>18.0</ele><time>2026-04-28T14:37:07.01Z</time></trkpt><trkpt lat="35.83207" lon="-5.583765"><ele>18.0</ele><time>2026-04-28T14:37:08.01Z</time></trkpt><trkpt lat="35.832245" lon="-5.5836383"><ele>18.0</ele><time>2026-04-28T14:37:09.01Z</time></trkpt><trkpt lat="35.8324183" lon="-5.5835067"><ele>20.333333333333336</ele><time>2026-04-28T14:37:10.01Z</time></trkpt><trkpt lat="35.8325883" lon="-5.5833683"><ele>22.666666666666668</ele><time>2026-04-28T14:37:11.01Z</time></trkpt><trkpt lat="35.8327517" lon="-5.58322"><ele>25.0</ele><time>2026-04-28T14:37:12.009Z</time></trkpt><trkpt lat="35.83292" lon="-5.5830667"><ele>25.0</ele><time>2026-04-28T14:37:13.01Z</time></trkpt><trkpt lat="35.83309" lon="-5.582915"><ele>25.0</ele><time>2026-04-28T14:37:14.01Z</time></trkpt><trkpt lat="35.833265" lon="-5.5827583"><ele>25.0</ele><time>2026-04-28T14:37:15.01Z</time></trkpt><trkpt lat="35.8334367" lon="-5.582605"><ele>24.666666666666668</ele><time>2026-04-28T14:37:16.01Z</time></trkpt><trkpt lat="35.8336017" lon="-5.5824633"><ele>24.333333333333336</ele><time>2026-04-28T14:37:17.01Z</time></trkpt><trkpt lat="35.8337617" lon="-5.5823067"><ele>24.0</ele><time>2026-04-28T14:37:18.01Z</time></trkpt><trkpt lat="35.8339183" lon="-5.5821483"><ele>22.666666666666668</ele><time>2026-04-28T14:37:19.01Z</time></trkpt><trkpt lat="35.834075" lon="-5.5819883"><ele>21.333333333333336</ele><time>2026-04-28T14:37:20.01Z</time></trkpt><trkpt lat="35.83423" lon="-5.58182"><ele>20.0</ele><time>2026-04-28T14:37:21.01Z</time></trkpt><trkpt lat="35.83438" lon="-5.5816467"><ele>20.0</ele><time>2026-04-28T14:37:22.009Z</time></trkpt><trkpt lat="35.8345283" lon="-5.5814667"><ele>20.0</ele><time>2026-04-28T14:37:23.01Z</time></trkpt><trkpt lat="35.8346767" lon="-5.5812833"><ele>20.0</ele><time>2026-04-28T14:37:24.01Z</time></trkpt><trkpt lat="35.8348233" lon="-5.5810967"><ele>19.0</ele><time>2026-04-28T14:37:25.01Z</time></trkpt><trkpt lat="35.8349667" lon="-5.5809133"><ele>18.0</ele><time>2026-04-28T14:37:26.01Z</time></trkpt><trkpt lat="35.8351067" lon="-5.5807367"><ele>17.0</ele><time>2026-04-28T14:37:27.01Z</time></trkpt><trkpt lat="35.8352467" lon="-5.5805667"><ele>17.0</ele><time>2026-04-28T14:37:28.01Z</time></trkpt><trkpt lat="35.8353867" lon="-5.5804033"><ele>17.0</ele><time>2026-04-28T14:37:29.01Z</time></trkpt><trkpt lat="35.8355233" lon="-5.580235"><ele>17.0</ele><time>2026-04-28T14:37:30.01Z</time></trkpt><trkpt lat="35.8356633" lon="-5.5800683"><ele>17.0</ele><time>2026-04-28T14:37:31.01Z</time></trkpt><trkpt lat="35.8358" lon="-5.5799"><ele>17.0</ele><time>2026-04-28T14:37:32.01Z</time></trkpt><trkpt lat="35.83594" lon="-5.5797367"><ele>17.0</ele><time>2026-04-28T14:37:33.01Z</time></trkpt><trkpt lat="35.8360767" lon="-5.57957"><ele>21.333333333333336</ele><time>2026-04-28T14:37:34.01Z</time></trkpt><trkpt lat="35.836215" lon="-5.5794067"><ele>25.666666666666668</ele><time>2026-04-28T14:37:35.01Z</time></trkpt><trkpt lat="35.8363533" lon="-5.5792417"><ele>30.0</ele><time>2026-04-28T14:37:36.009Z</time></trkpt><trkpt lat="35.8364867" lon="-5.5790783"><ele>30.0</ele><time>2026-04-28T14:37:37.01Z</time></trkpt><trkpt lat="35.83661" lon="-5.5789167"><ele>30.0</ele><time>2026-04-28T14:37:38.01Z</time></trkpt><trkpt lat="35.8367133" lon="-5.5787533"><ele>30.0</ele><time>2026-04-28T14:37:39.01Z</time></trkpt><trkpt lat="35.836805" lon="-5.5785833"><ele>27.333333333333332</ele><time>2026-04-28T14:37:40.01Z</time></trkpt><trkpt lat="35.8368667" lon="-5.5783917"><ele>24.666666666666664</ele><time>2026-04-28T14:37:41.01Z</time></trkpt><trkpt lat="35.8369117" lon="-5.578185"><ele>22.0</ele><time>2026-04-28T14:37:42.01Z</time></trkpt><trkpt lat="35.8369333" lon="-5.5779833"><ele>23.0</ele><time>2026-04-28T14:37:43.01Z</time></trkpt><trkpt lat="35.8369283" lon="-5.57778"><ele>24.0</ele><time>2026-04-28T14:37:44.01Z</time></trkpt><trkpt lat="35.836895" lon="-5.57757"><ele>25.0</ele><time>2026-04-28T14:37:45.01Z</time></trkpt><trkpt lat="35.836855" lon="-5.57737"><ele>25.0</ele><time>2026-04-28T14:37:46.01Z</time></trkpt><trkpt lat="35.8368083" lon="-5.577165"><ele>25.0</ele><time>2026-04-28T14:37:47.01Z</time></trkpt><trkpt lat="35.8367667" lon="-5.5769583"><ele>25.0</ele><time>2026-04-28T14:37:48.01Z</time></trkpt><trkpt lat="35.8367267" lon="-5.5767567"><ele>29.333333333333336</ele><time>2026-04-28T14:37:49.01Z</time></trkpt><trkpt lat="35.8366883" lon="-5.5765517"><ele>33.666666666666664</ele><time>2026-04-28T14:37:50.01Z</time></trkpt><trkpt lat="35.8366483" lon="-5.57634"><ele>38.0</ele><time>2026-04-28T14:37:51.01Z</time></trkpt><trkpt lat="35.8366117" lon="-5.5761267"><ele>38.0</ele><time>2026-04-28T14:37:52.01Z</time></trkpt><trkpt lat="35.83657" lon="-5.5759067"><ele>38.0</ele><time>2026-04-28T14:37:53.01Z</time></trkpt><trkpt lat="35.8365233" lon="-5.5756967"><ele>38.0</ele><time>2026-04-28T14:37:54.01Z</time></trkpt><trkpt lat="35.836475" lon="-5.5755017"><ele>36.0</ele><time>2026-04-28T14:37:55.01Z</time></trkpt><trkpt lat="35.8364217" lon="-5.5753117"><ele>34.0</ele><time>2026-04-28T14:37:56.01Z</time></trkpt><trkpt lat="35.83635" lon="-5.5751283"><ele>32.0</ele><time>2026-04-28T14:37:57.01Z</time></trkpt><trkpt lat="35.8362583" lon="-5.5749567"><ele>32.0</ele><time>2026-04-28T14:37:58.01Z</time></trkpt><trkpt lat="35.83616" lon="-5.5748"><ele>32.0</ele><time>2026-04-28T14:37:59.01Z</time></trkpt><trkpt lat="35.836045" lon="-5.5746633"><ele>32.0</ele><time>2026-04-28T14:38:00.01Z</time></trkpt><trkpt lat="35.83592" lon="-5.574535"><ele>32.0</ele><time>2026-04-28T14:38:01.01Z</time></trkpt><trkpt lat="35.8358" lon="-5.57441"><ele>32.0</ele><time>2026-04-28T14:38:02.01Z</time></trkpt><trkpt lat="35.8356867" lon="-5.5742833"><ele>32.0</ele><time>2026-04-28T14:38:03.01Z</time></trkpt><trkpt lat="35.83558" lon="-5.5741533"><ele>32.0</ele><time>2026-04-28T14:38:04.01Z</time></trkpt><trkpt lat="35.83548" lon="-5.5740183"><ele>32.0</ele><time>2026-04-28T14:38:05.01Z</time></trkpt><trkpt lat="35.8354" lon="-5.5738733"><ele>32.0</ele><time>2026-04-28T14:38:06.01Z</time></trkpt><trkpt lat="35.83533" lon="-5.5737283"><ele>32.0</ele><time>2026-04-28T14:38:07.01Z</time></trkpt><trkpt lat="35.83527" lon="-5.5735833"><ele>31.400000000000002</ele><time>2026-04-28T14:38:08.01Z</time></trkpt><trkpt lat="35.8352067" lon="-5.5734383"><ele>30.800000000000004</ele><time>2026-04-28T14:38:09.01Z</time></trkpt><trkpt lat="35.8351533" lon="-5.5733133"><ele>30.2</ele><time>2026-04-28T14:38:10.01Z</time></trkpt><trkpt lat="35.8351333" lon="-5.573195"><ele>29.6</ele><time>2026-04-28T14:38:11.01Z</time></trkpt><trkpt lat="35.8351533" lon="-5.5730917"><ele>29.0</ele><time>2026-04-28T14:38:12.01Z</time></trkpt><trkpt lat="35.8351933" lon="-5.57301"><ele>28.0</ele><time>2026-04-28T14:38:13.01Z</time></trkpt><trkpt lat="35.8352417" lon="-5.5729417"><ele>27.0</ele><time>2026-04-28T14:38:14.01Z</time></trkpt><trkpt lat="35.8352983" lon="-5.5728417"><ele>26.0</ele><time>2026-04-28T14:38:15.01Z</time></trkpt><trkpt lat="35.8353633" lon="-5.5727083"><ele>25.0</ele><time>2026-04-28T14:38:16.01Z</time></trkpt><trkpt lat="35.8354317" lon="-5.57253"><ele>25.0</ele><time>2026-04-28T14:38:17.01Z</time></trkpt><trkpt lat="35.835495" lon="-5.572355"><ele>25.0</ele><time>2026-04-28T14:38:18.01Z</time></trkpt><trkpt lat="35.8355633" lon="-5.572195"><ele>25.0</ele><time>2026-04-28T14:38:19.01Z</time></trkpt><trkpt lat="35.835645" lon="-5.57204"><ele>26.666666666666668</ele><time>2026-04-28T14:38:20.01Z</time></trkpt><trkpt lat="35.8357383" lon="-5.571875"><ele>28.333333333333336</ele><time>2026-04-28T14:38:21.01Z</time></trkpt><trkpt lat="35.8358367" lon="-5.5717117"><ele>30.0</ele><time>2026-04-28T14:38:22.01Z</time></trkpt><trkpt lat="35.8359383" lon="-5.571575"><ele>30.666666666666664</ele><time>2026-04-28T14:38:23.01Z</time></trkpt><trkpt lat="35.8360483" lon="-5.5714517"><ele>31.333333333333332</ele><time>2026-04-28T14:38:24.01Z</time></trkpt><trkpt lat="35.836175" lon="-5.5713417"><ele>32.0</ele><time>2026-04-28T14:38:25.01Z</time></trkpt><trkpt lat="35.8363117" lon="-5.5712617"><ele>32.0</ele><time>2026-04-28T14:38:26.01Z</time></trkpt><trkpt lat="35.8364533" lon="-5.5711933"><ele>32.0</ele><time>2026-04-28T14:38:27.01Z</time></trkpt><trkpt lat="35.836595" lon="-5.5711467"><ele>32.0</ele><time>2026-04-28T14:38:28.01Z</time></trkpt><trkpt lat="35.8367417" lon="-5.5711183"><ele>32.0</ele><time>2026-04-28T14:38:29.01Z</time></trkpt><trkpt lat="35.836895" lon="-5.5710967"><ele>36.33333333333333</ele><time>2026-04-28T14:38:30.01Z</time></trkpt><trkpt lat="35.8370533" lon="-5.5710883"><ele>40.666666666666664</ele><time>2026-04-28T14:38:31.01Z</time></trkpt><trkpt lat="35.8372133" lon="-5.5710833"><ele>45.0</ele><time>2026-04-28T14:38:32.01Z</time></trkpt><trkpt lat="35.83737" lon="-5.5710633"><ele>45.0</ele><time>2026-04-28T14:38:33.01Z</time></trkpt><trkpt lat="35.83752" lon="-5.5710167"><ele>45.0</ele><time>2026-04-28T14:38:34.01Z</time></trkpt><trkpt lat="35.8376667" lon="-5.570935"><ele>45.0</ele><time>2026-04-28T14:38:35.01Z</time></trkpt><trkpt lat="35.8378017" lon="-5.5708283"><ele>45.333333333333336</ele><time>2026-04-28T14:38:36.01Z</time></trkpt><trkpt lat="35.83793" lon="-5.5706967"><ele>45.66666666666667</ele><time>2026-04-28T14:38:37.01Z</time></trkpt><trkpt lat="35.8380383" lon="-5.5705267"><ele>46.0</ele><time>2026-04-28T14:38:38.01Z</time></trkpt><trkpt lat="35.8381333" lon="-5.570335"><ele>46.0</ele><time>2026-04-28T14:38:39.01Z</time></trkpt><trkpt lat="35.8381967" lon="-5.5701233"><ele>46.0</ele><time>2026-04-28T14:38:40.01Z</time></trkpt><trkpt lat="35.8382083" lon="-5.5699133"><ele>46.0</ele><time>2026-04-28T14:38:41.009Z</time></trkpt><trkpt lat="35.8382083" lon="-5.5696867"><ele>47.333333333333336</ele><time>2026-04-28T14:38:42.01Z</time></trkpt><trkpt lat="35.8381983" lon="-5.5694333"><ele>48.66666666666667</ele><time>2026-04-28T14:38:43.01Z</time></trkpt><trkpt lat="35.83819" lon="-5.5691933"><ele>50.0</ele><time>2026-04-28T14:38:44.01Z</time></trkpt><trkpt lat="35.83819" lon="-5.5689733"><ele>50.0</ele><time>2026-04-28T14:38:45.01Z</time></trkpt><trkpt lat="35.8382017" lon="-5.5687633"><ele>50.0</ele><time>2026-04-28T14:38:46.01Z</time></trkpt><trkpt lat="35.8382467" lon="-5.5685483"><ele>50.0</ele><time>2026-04-28T14:38:47.01Z</time></trkpt><trkpt lat="35.838315" lon="-5.5683383"><ele>51.0</ele><time>2026-04-28T14:38:48.01Z</time></trkpt><trkpt lat="35.8383967" lon="-5.5681483"><ele>52.0</ele><time>2026-04-28T14:38:49.01Z</time></trkpt><trkpt lat="35.8384883" lon="-5.567955"><ele>53.0</ele><time>2026-04-28T14:38:50.01Z</time></trkpt><trkpt lat="35.8385767" lon="-5.5677567"><ele>50.0</ele><time>2026-04-28T14:38:51.01Z</time></trkpt><trkpt lat="35.8386783" lon="-5.5675467"><ele>47.0</ele><time>2026-04-28T14:38:52.01Z</time></trkpt><trkpt lat="35.8387817" lon="-5.5673367"><ele>44.0</ele><time>2026-04-28T14:38:53.01Z</time></trkpt><trkpt lat="35.8388917" lon="-5.5671283"><ele>44.33333333333333</ele><time>2026-04-28T14:38:54.01Z</time></trkpt><trkpt lat="35.8390067" lon="-5.56692"><ele>44.666666666666664</ele><time>2026-04-28T14:38:55.01Z</time></trkpt><trkpt lat="35.8391217" lon="-5.5667067"><ele>45.0</ele><time>2026-04-28T14:38:56.01Z</time></trkpt><trkpt lat="35.83924" lon="-5.5664933"><ele>42.333333333333336</ele><time>2026-04-28T14:38:57.01Z</time></trkpt><trkpt lat="35.839365" lon="-5.5662733"><ele>39.66666666666667</ele><time>2026-04-28T14:38:58.009Z</time></trkpt><trkpt lat="35.8394867" lon="-5.5660567"><ele>37.0</ele><time>2026-04-28T14:38:59.01Z</time></trkpt><trkpt lat="35.839615" lon="-5.56584"><ele>37.0</ele><time>2026-04-28T14:39:00.01Z</time></trkpt><trkpt lat="35.8397317" lon="-5.5656283"><ele>37.0</ele><time>2026-04-28T14:39:01.01Z</time></trkpt><trkpt lat="35.8398433" lon="-5.5654217"><ele>37.0</ele><time>2026-04-28T14:39:02.01Z</time></trkpt><trkpt lat="35.8399517" lon="-5.56523"><ele>37.333333333333336</ele><time>2026-04-28T14:39:03.01Z</time></trkpt><trkpt lat="35.8400717" lon="-5.5650517"><ele>37.666666666666664</ele><time>2026-04-28T14:39:04.01Z</time></trkpt><trkpt lat="35.8401967" lon="-5.5648967"><ele>38.0</ele><time>2026-04-28T14:39:05.01Z</time></trkpt><trkpt lat="35.8403333" lon="-5.5647717"><ele>35.666666666666664</ele><time>2026-04-28T14:39:06.01Z</time></trkpt><trkpt lat="35.8404867" lon="-5.56469"><ele>33.333333333333336</ele><time>2026-04-28T14:39:07.01Z</time></trkpt><trkpt lat="35.84065" lon="-5.56465"><ele>31.0</ele><time>2026-04-28T14:39:08.01Z</time></trkpt><trkpt lat="35.8408133" lon="-5.564645"><ele>31.0</ele><time>2026-04-28T14:39:09.01Z</time></trkpt><trkpt lat="35.8409767" lon="-5.5646767"><ele>31.0</ele><time>2026-04-28T14:39:10.01Z</time></trkpt><trkpt lat="35.841135" lon="-5.5647233"><ele>31.0</ele><time>2026-04-28T14:39:11.01Z</time></trkpt><trkpt lat="35.8412883" lon="-5.5647833"><ele>31.0</ele><time>2026-04-28T14:39:12.01Z</time></trkpt><trkpt lat="35.8414517" lon="-5.5648617"><ele>31.0</ele><time>2026-04-28T14:39:13.01Z</time></trkpt><trkpt lat="35.8416133" lon="-5.5649417"><ele>31.0</ele><time>2026-04-28T14:39:14.01Z</time></trkpt><trkpt lat="35.8417767" lon="-5.5650217"><ele>31.333333333333336</ele><time>2026-04-28T14:39:15.01Z</time></trkpt><trkpt lat="35.8419283" lon="-5.5651"><ele>31.666666666666664</ele><time>2026-04-28T14:39:16.01Z</time></trkpt><trkpt lat="35.8420833" lon="-5.565175"><ele>32.0</ele><time>2026-04-28T14:39:17.01Z</time></trkpt><trkpt lat="35.8422433" lon="-5.5652533"><ele>32.0</ele><time>2026-04-28T14:39:18.01Z</time></trkpt><trkpt lat="35.8424067" lon="-5.56533"><ele>32.0</ele><time>2026-04-28T14:39:19.01Z</time></trkpt><trkpt lat="35.8425767" lon="-5.5653983"><ele>32.0</ele><time>2026-04-28T14:39:20.01Z</time></trkpt><trkpt lat="35.8427467" lon="-5.5654617"><ele>25.0</ele><time>2026-04-28T14:39:21.009Z</time></trkpt><trkpt lat="35.8429267" lon="-5.5655167"><ele>18.0</ele><time>2026-04-28T14:39:22.01Z</time></trkpt><trkpt lat="35.8431033" lon="-5.5655633"><ele>11.0</ele><time>2026-04-28T14:39:23.01Z</time></trkpt><trkpt lat="35.84328" lon="-5.565595"><ele>11.0</ele><time>2026-04-28T14:39:24.01Z</time></trkpt><trkpt lat="35.84346" lon="-5.56561"><ele>11.0</ele><time>2026-04-28T14:39:25.01Z</time></trkpt><trkpt lat="35.8436417" lon="-5.5656067"><ele>11.0</ele><time>2026-04-28T14:39:26.01Z</time></trkpt><trkpt lat="35.8438333" lon="-5.5655833"><ele>9.666666666666666</ele><time>2026-04-28T14:39:27.01Z</time></trkpt><trkpt lat="35.8440233" lon="-5.565545"><ele>8.333333333333334</ele><time>2026-04-28T14:39:28.01Z</time></trkpt><trkpt lat="35.8442167" lon="-5.5654933"><ele>7.0</ele><time>2026-04-28T14:39:29.009Z</time></trkpt><trkpt lat="35.8444083" lon="-5.5654233"><ele>10.0</ele><time>2026-04-28T14:39:30.01Z</time></trkpt><trkpt lat="35.8445933" lon="-5.5653467"><ele>13.0</ele><time>2026-04-28T14:39:31.01Z</time></trkpt><trkpt lat="35.8447667" lon="-5.565255"><ele>16.0</ele><time>2026-04-28T14:39:32.01Z</time></trkpt><trkpt lat="35.8449333" lon="-5.56515"><ele>16.0</ele><time>2026-04-28T14:39:33.01Z</time></trkpt><trkpt lat="35.8450933" lon="-5.56506"><ele>16.0</ele><time>2026-04-28T14:39:34.01Z</time></trkpt><trkpt lat="35.8452383" lon="-5.564955"><ele>16.0</ele><time>2026-04-28T14:39:35.01Z</time></trkpt><trkpt lat="35.8453667" lon="-5.5648333"><ele>14.0</ele><time>2026-04-28T14:39:36.01Z</time></trkpt><trkpt lat="35.8454867" lon="-5.5647"><ele>12.0</ele><time>2026-04-28T14:39:37.01Z</time></trkpt><trkpt lat="35.8455883" lon="-5.5645483"><ele>10.0</ele><time>2026-04-28T14:39:38.01Z</time></trkpt><trkpt lat="35.845665" lon="-5.5643883"><ele>10.0</ele><time>2026-04-28T14:39:39.01Z</time></trkpt><trkpt lat="35.8457367" lon="-5.5642433"><ele>10.0</ele><time>2026-04-28T14:39:40.01Z</time></trkpt><trkpt lat="35.8457867" lon="-5.5640967"><ele>10.0</ele><time>2026-04-28T14:39:41.01Z</time></trkpt><trkpt lat="35.8458283" lon="-5.5639633"><ele>10.0</ele><time>2026-04-28T14:39:42.01Z</time></trkpt><trkpt lat="35.84586" lon="-5.5638333"><ele>10.0</ele><time>2026-04-28T14:39:43.01Z</time></trkpt><trkpt lat="35.8458933" lon="-5.5637083"><ele>10.0</ele><time>2026-04-28T14:39:44.01Z</time></trkpt><trkpt lat="35.8459233" lon="-5.56357"><ele>10.0</ele><time>2026-04-28T14:39:45.01Z</time></trkpt><trkpt lat="35.8459567" lon="-5.5634267"><ele>10.0</ele><time>2026-04-28T14:39:46.009Z</time></trkpt><trkpt lat="35.8459917" lon="-5.5632817"><ele>10.5</ele><time>2026-04-28T14:39:47.009Z</time></trkpt><trkpt lat="35.8460233" lon="-5.563155"><ele>11.0</ele><time>2026-04-28T14:39:48.009Z</time></trkpt><trkpt lat="35.8460517" lon="-5.563045"><ele>11.5</ele><time>2026-04-28T14:39:49.01Z</time></trkpt><trkpt lat="35.8460783" lon="-5.5629433"><ele>12.0</ele><time>2026-04-28T14:39:50.01Z</time></trkpt><trkpt lat="35.846105" lon="-5.5628517"><ele>12.499999999999998</ele><time>2026-04-28T14:39:51.01Z</time></trkpt><trkpt lat="35.846125" lon="-5.562765"><ele>13.0</ele><time>2026-04-28T14:39:52.01Z</time></trkpt><trkpt lat="35.8461433" lon="-5.5626767"><ele>13.0</ele><time>2026-04-28T14:39:53.009Z</time></trkpt><trkpt lat="35.8461583" lon="-5.56259"><ele>13.0</ele><time>2026-04-28T14:39:54.01Z</time></trkpt><trkpt lat="35.84617" lon="-5.5625133"><ele>13.0</ele><time>2026-04-28T14:39:55.009Z</time></trkpt><trkpt lat="35.846175" lon="-5.5624317"><ele>13.0</ele><time>2026-04-28T14:39:56.009Z</time></trkpt><trkpt lat="35.8461683" lon="-5.5623483"><ele>13.0</ele><time>2026-04-28T14:39:57.01Z</time></trkpt><trkpt lat="35.8461517" lon="-5.5622633"><ele>13.0</ele><time>2026-04-28T14:39:58.01Z</time></trkpt><trkpt lat="35.8461283" lon="-5.56218"><ele>13.0</ele><time>2026-04-28T14:39:59.01Z</time></trkpt><trkpt lat="35.8460967" lon="-5.562095"><ele>13.499999999999998</ele><time>2026-04-28T14:40:00.01Z</time></trkpt><trkpt lat="35.8460517" lon="-5.5620183"><ele>14.0</ele><time>2026-04-28T14:40:01.01Z</time></trkpt><trkpt lat="35.8459833" lon="-5.5619567"><ele>14.5</ele><time>2026-04-28T14:40:02.01Z</time></trkpt><trkpt lat="35.8459083" lon="-5.5619033"><ele>15.0</ele><time>2026-04-28T14:40:03.01Z</time></trkpt><trkpt lat="35.8458233" lon="-5.5618617"><ele>15.499999999999998</ele><time>2026-04-28T14:40:04.01Z</time></trkpt><trkpt lat="35.8457367" lon="-5.5618333"><ele>16.0</ele><time>2026-04-28T14:40:05.009Z</time></trkpt><trkpt lat="35.8456367" lon="-5.561815"><ele>17.200000000000003</ele><time>2026-04-28T14:40:06.01Z</time></trkpt><trkpt lat="35.845535" lon="-5.561795"><ele>18.400000000000002</ele><time>2026-04-28T14:40:07.01Z</time></trkpt><trkpt lat="35.845445" lon="-5.5617717"><ele>19.6</ele><time>2026-04-28T14:40:08.01Z</time></trkpt><trkpt lat="35.8453533" lon="-5.561755"><ele>20.8</ele><time>2026-04-28T14:40:09.01Z</time></trkpt><trkpt lat="35.8452683" lon="-5.5617367"><ele>22.0</ele><time>2026-04-28T14:40:10.01Z</time></trkpt><trkpt lat="35.8451867" lon="-5.5617217"><ele>22.833333333333332</ele><time>2026-04-28T14:40:11.01Z</time></trkpt><trkpt lat="35.845105" lon="-5.5617017"><ele>23.666666666666664</ele><time>2026-04-28T14:40:12.01Z</time></trkpt><trkpt lat="35.8450167" lon="-5.5616967"><ele>24.5</ele><time>2026-04-28T14:40:13.01Z</time></trkpt><trkpt lat="35.8449283" lon="-5.5616983"><ele>25.333333333333332</ele><time>2026-04-28T14:40:14.01Z</time></trkpt><trkpt lat="35.8448483" lon="-5.5617"><ele>26.166666666666668</ele><time>2026-04-28T14:40:15.01Z</time></trkpt><trkpt lat="35.844765" lon="-5.5617"><ele>27.0</ele><time>2026-04-28T14:40:16.009Z</time></trkpt><trkpt lat="35.8446733" lon="-5.5616883"><ele>27.0</ele><time>2026-04-28T14:40:17.01Z</time></trkpt><trkpt lat="35.844575" lon="-5.5616633"><ele>27.0</ele><time>2026-04-28T14:40:18.01Z</time></trkpt><trkpt lat="35.8444867" lon="-5.5616467"><ele>27.0</ele><time>2026-04-28T14:40:19.009Z</time></trkpt><trkpt lat="35.8443967" lon="-5.561625"><ele>27.0</ele><time>2026-04-28T14:40:20.01Z</time></trkpt><trkpt lat="35.8443183" lon="-5.561605"><ele>27.0</ele><time>2026-04-28T14:40:21.01Z</time></trkpt><trkpt lat="35.8442383" lon="-5.56158"><ele>27.0</ele><time>2026-04-28T14:40:22.01Z</time></trkpt><trkpt lat="35.8441583" lon="-5.5615533"><ele>27.333333333333332</ele><time>2026-04-28T14:40:23.01Z</time></trkpt><trkpt lat="35.8440817" lon="-5.56152"><ele>27.666666666666664</ele><time>2026-04-28T14:40:24.01Z</time></trkpt><trkpt lat="35.844" lon="-5.56149"><ele>28.0</ele><time>2026-04-28T14:40:25.01Z</time></trkpt><trkpt lat="35.8439217" lon="-5.561465"><ele>28.333333333333332</ele><time>2026-04-28T14:40:26.009Z</time></trkpt><trkpt lat="35.8438583" lon="-5.5614417"><ele>28.666666666666664</ele><time>2026-04-28T14:40:27.01Z</time></trkpt><trkpt lat="35.8437617" lon="-5.5614033"><ele>29.0</ele><time>2026-04-28T14:40:29.01Z</time></trkpt><trkpt lat="35.84366" lon="-5.5613767"><ele>29.000000000000004</ele><time>2026-04-28T14:40:31.01Z</time></trkpt><trkpt lat="35.8435817" lon="-5.5613333"><ele>29.0</ele><time>2026-04-28T14:40:33.01Z</time></trkpt><trkpt lat="35.8435283" lon="-5.5612783"><ele>29.000000000000004</ele><time>2026-04-28T14:40:35.01Z</time></trkpt><trkpt lat="35.8434617" lon="-5.5612683"><ele>29.000000000000004</ele><time>2026-04-28T14:40:38.009Z</time></trkpt><trkpt lat="35.8433833" lon="-5.5612667"><ele>29.0</ele><time>2026-04-28T14:40:49.01Z</time></trkpt><trkpt lat="35.8433133" lon="-5.561255"><ele>29.000000000000004</ele><time>2026-04-28T15:11:58.008Z</time></trkpt><trkpt lat="35.8432417" lon="-5.561265"><ele>29.000000000000004</ele><time>2026-04-28T15:12:00.008Z</time></trkpt><trkpt lat="35.8431633" lon="-5.5612583"><ele>29.999999999999996</ele><time>2026-04-28T15:12:03.008Z</time></trkpt><trkpt lat="35.8430983" lon="-5.561245"><ele>31.0</ele><time>2026-04-28T15:12:05.008Z</time></trkpt><trkpt lat="35.8430317" lon="-5.56123"><ele>32.0</ele><time>2026-04-28T15:12:07.008Z</time></trkpt><trkpt lat="35.8429433" lon="-5.5612033"><ele>33.0</ele><time>2026-04-28T15:12:09.008Z</time></trkpt><trkpt lat="35.84286" lon="-5.561185"><ele>34.0</ele><time>2026-04-28T15:12:11.008Z</time></trkpt><trkpt lat="35.842795" lon="-5.5611733"><ele>35.0</ele><time>2026-04-28T15:12:13.008Z</time></trkpt><trkpt lat="35.8426933" lon="-5.5611583"><ele>30.0</ele><time>2026-04-28T15:12:21.008Z</time></trkpt><trkpt lat="35.8426017" lon="-5.5611083"><ele>25.0</ele><time>2026-04-28T15:12:23.008Z</time></trkpt><trkpt lat="35.8424917" lon="-5.56107"><ele>20.0</ele><time>2026-04-28T15:12:25.008Z</time></trkpt><trkpt lat="35.8423833" lon="-5.5610633"><ele>15.0</ele><time>2026-04-28T15:12:27.008Z</time></trkpt><trkpt lat="35.8422767" lon="-5.5610633"><ele>10.0</ele><time>2026-04-28T15:12:29.008Z</time></trkpt><trkpt lat="35.8421717" lon="-5.5610883"><ele>10.0</ele><time>2026-04-28T15:12:31.008Z</time></trkpt><trkpt lat="35.8420767" lon="-5.5611217"><ele>10.0</ele><time>2026-04-28T15:12:33.008Z</time></trkpt><trkpt lat="35.841975" lon="-5.5611383"><ele>10.0</ele><time>2026-04-28T15:12:35.008Z</time></trkpt><trkpt lat="35.8419083" lon="-5.5610783"><ele>10.0</ele><time>2026-04-28T15:12:37.008Z</time></trkpt><trkpt lat="35.8418883" lon="-5.560985"><ele>10.0</ele><time>2026-04-28T15:12:39.008Z</time></trkpt><trkpt lat="35.84187" lon="-5.5608867"><ele>10.0</ele><time>2026-04-28T15:12:41.007Z</time></trkpt><trkpt lat="35.8418333" lon="-5.5607683"><ele>9.0</ele><time>2026-04-28T15:12:43.008Z</time></trkpt><trkpt lat="35.84178" lon="-5.560645"><ele>8.0</ele><time>2026-04-28T15:12:45.008Z</time></trkpt><trkpt lat="35.8417283" lon="-5.5605067"><ele>7.0</ele><time>2026-04-28T15:12:47.008Z</time></trkpt><trkpt lat="35.8417017" lon="-5.5604267"><ele>6.0</ele><time>2026-04-28T15:12:48.008Z</time></trkpt><trkpt lat="35.8416717" lon="-5.5603567"><ele>5.0</ele><time>2026-04-28T15:12:49.008Z</time></trkpt><trkpt lat="35.84164" lon="-5.560285"><ele>4.0</ele><time>2026-04-28T15:12:50.008Z</time></trkpt><trkpt lat="35.84161" lon="-5.5602167"><ele>3.6</ele><time>2026-04-28T15:12:51.008Z</time></trkpt><trkpt lat="35.84156" lon="-5.5600883"><ele>3.2</ele><time>2026-04-28T15:12:53.008Z</time></trkpt><trkpt lat="35.8415217" lon="-5.559975"><ele>2.8000000000000003</ele><time>2026-04-28T15:12:55.008Z</time></trkpt><trkpt lat="35.841475" lon="-5.559875"><ele>2.4000000000000004</ele><time>2026-04-28T15:12:57.008Z</time></trkpt><trkpt lat="35.8414283" lon="-5.5597767"><ele>2.0</ele><time>2026-04-28T15:12:59.008Z</time></trkpt><trkpt lat="35.841375" lon="-5.5596867"><ele>1.9999999999999998</ele><time>2026-04-28T15:13:01.007Z</time></trkpt><trkpt lat="35.8413433" lon="-5.5596033"><ele>2.0</ele><time>2026-04-28T15:13:03.008Z</time></trkpt><trkpt lat="35.8413167" lon="-5.5595233"><ele>2.0</ele><time>2026-04-28T15:13:05.008Z</time></trkpt><trkpt lat="35.8412817" lon="-5.5594533"><ele>2.0</ele><time>2026-04-28T15:13:07.008Z</time></trkpt><trkpt lat="35.8412383" lon="-5.5593633"><ele>1.9999999999999998</ele><time>2026-04-28T15:13:10.008Z</time></trkpt><trkpt lat="35.8411983" lon="-5.5592367"><ele>2.0</ele><time>2026-04-28T15:13:13.008Z</time></trkpt><trkpt lat="35.8411733" lon="-5.559145"><ele>1.9999999999999998</ele><time>2026-04-28T15:13:14.008Z</time></trkpt><trkpt lat="35.8411383" lon="-5.5590433"><ele>2.0</ele><time>2026-04-28T15:13:15.008Z</time></trkpt><trkpt lat="35.8411033" lon="-5.558945"><ele>2.0</ele><time>2026-04-28T15:13:16.008Z</time></trkpt><trkpt lat="35.8410683" lon="-5.5588517"><ele>2.0</ele><time>2026-04-28T15:13:17.008Z</time></trkpt><trkpt lat="35.8410317" lon="-5.5587617"><ele>1.9999999999999998</ele><time>2026-04-28T15:13:18.008Z</time></trkpt><trkpt lat="35.8409967" lon="-5.5586717"><ele>2.0</ele><time>2026-04-28T15:13:19.008Z</time></trkpt><trkpt lat="35.8409633" lon="-5.558585"><ele>1.9999999999999998</ele><time>2026-04-28T15:13:20.008Z</time></trkpt><trkpt lat="35.8409333" lon="-5.5584967"><ele>2.0</ele><time>2026-04-28T15:13:21.008Z</time></trkpt><trkpt lat="35.8409067" lon="-5.55841"><ele>2.0</ele><time>2026-04-28T15:13:22.008Z</time></trkpt><trkpt lat="35.8408783" lon="-5.5583217"><ele>2.0</ele><time>2026-04-28T15:13:23.008Z</time></trkpt><trkpt lat="35.8408533" lon="-5.5582283"><ele>1.9999999999999998</ele><time>2026-04-28T15:13:24.007Z</time></trkpt><trkpt lat="35.8408283" lon="-5.558135"><ele>2.0</ele><time>2026-04-28T15:13:25.008Z</time></trkpt><trkpt lat="35.840805" lon="-5.5580483"><ele>1.9999999999999998</ele><time>2026-04-28T15:13:26.008Z</time></trkpt><trkpt lat="35.8407767" lon="-5.5579233"><ele>2.0</ele><time>2026-04-28T15:13:28.008Z</time></trkpt><trkpt lat="35.840755" lon="-5.5578467"><ele>2.0</ele><time>2026-04-28T15:13:30.008Z</time></trkpt><trkpt lat="35.8407383" lon="-5.55775"><ele>2.0</ele><time>2026-04-28T15:13:32.008Z</time></trkpt><trkpt lat="35.840735" lon="-5.5576567"><ele>1.9999999999999998</ele><time>2026-04-28T15:13:34.008Z</time></trkpt><trkpt lat="35.8406917" lon="-5.55755"><ele>2.0</ele><time>2026-04-28T15:13:36.008Z</time></trkpt><trkpt lat="35.8406517" lon="-5.5574433"><ele>1.8333333333333333</ele><time>2026-04-28T15:13:38.008Z</time></trkpt><trkpt lat="35.8406717" lon="-5.557315"><ele>1.6666666666666665</ele><time>2026-04-28T15:13:40.007Z</time></trkpt><trkpt lat="35.8407083" lon="-5.5572483"><ele>1.5</ele><time>2026-04-28T15:13:41.007Z</time></trkpt><trkpt lat="35.8407483" lon="-5.5571717"><ele>1.3333333333333333</ele><time>2026-04-28T15:13:42.008Z</time></trkpt><trkpt lat="35.8407833" lon="-5.5570817"><ele>1.1666666666666665</ele><time>2026-04-28T15:13:43.008Z</time></trkpt><trkpt lat="35.840815" lon="-5.556995"><ele>1.0</ele><time>2026-04-28T15:13:44.008Z</time></trkpt><trkpt lat="35.84084" lon="-5.5569167"><ele>1.7142857142857142</ele><time>2026-04-28T15:13:45.008Z</time></trkpt><trkpt lat="35.8408667" lon="-5.5568417"><ele>2.4285714285714284</ele><time>2026-04-28T15:13:46.008Z</time></trkpt><trkpt lat="35.8408883" lon="-5.5567633"><ele>3.1428571428571423</ele><time>2026-04-28T15:13:47.008Z</time></trkpt><trkpt lat="35.8409067" lon="-5.5566783"><ele>3.8571428571428568</ele><time>2026-04-28T15:13:48.008Z</time></trkpt><trkpt lat="35.8409383" lon="-5.5565967"><ele>4.571428571428571</ele><time>2026-04-28T15:13:49.008Z</time></trkpt><trkpt lat="35.840975" lon="-5.5565133"><ele>5.285714285714286</ele><time>2026-04-28T15:13:50.008Z</time></trkpt><trkpt lat="35.8410183" lon="-5.5564333"><ele>6.0</ele><time>2026-04-28T15:13:51.008Z</time></trkpt><trkpt lat="35.841065" lon="-5.5563533"><ele>6.0</ele><time>2026-04-28T15:13:52.008Z</time></trkpt><trkpt lat="35.841125" lon="-5.55625"><ele>6.0</ele><time>2026-04-28T15:13:53.008Z</time></trkpt><trkpt lat="35.8412017" lon="-5.5561083"><ele>6.0</ele><time>2026-04-28T15:13:54.008Z</time></trkpt><trkpt lat="35.8412683" lon="-5.5559617"><ele>6.0</ele><time>2026-04-28T15:13:55.007Z</time></trkpt><trkpt lat="35.8413333" lon="-5.5558183"><ele>7.5</ele><time>2026-04-28T15:13:56.008Z</time></trkpt><trkpt lat="35.841395" lon="-5.555685"><ele>9.0</ele><time>2026-04-28T15:13:57.008Z</time></trkpt><trkpt lat="35.841455" lon="-5.5555717"><ele>10.5</ele><time>2026-04-28T15:13:58.008Z</time></trkpt><trkpt lat="35.8415183" lon="-5.5554617"><ele>12.0</ele><time>2026-04-28T15:13:59.008Z</time></trkpt><trkpt lat="35.8415817" lon="-5.5553483"><ele>13.8</ele><time>2026-04-28T15:14:00.008Z</time></trkpt><trkpt lat="35.841635" lon="-5.55524"><ele>15.6</ele><time>2026-04-28T15:14:01.008Z</time></trkpt><trkpt lat="35.84168" lon="-5.55515"><ele>17.400000000000002</ele><time>2026-04-28T15:14:02.008Z</time></trkpt><trkpt lat="35.84172" lon="-5.5550517"><ele>19.2</ele><time>2026-04-28T15:14:03.008Z</time></trkpt><trkpt lat="35.8417583" lon="-5.5549517"><ele>21.0</ele><time>2026-04-28T15:14:04.008Z</time></trkpt><trkpt lat="35.841795" lon="-5.5548467"><ele>20.5</ele><time>2026-04-28T15:14:05.008Z</time></trkpt><trkpt lat="35.8418433" lon="-5.5547517"><ele>20.0</ele><time>2026-04-28T15:14:06.008Z</time></trkpt><trkpt lat="35.8418917" lon="-5.55467"><ele>19.5</ele><time>2026-04-28T15:14:07.008Z</time></trkpt><trkpt lat="35.8419383" lon="-5.5546117"><ele>19.0</ele><time>2026-04-28T15:14:08.007Z</time></trkpt><trkpt lat="35.8419817" lon="-5.55455"><ele>18.5</ele><time>2026-04-28T15:14:09.008Z</time></trkpt><trkpt lat="35.84202" lon="-5.5544867"><ele>18.0</ele><time>2026-04-28T15:14:10.008Z</time></trkpt><trkpt lat="35.84208" lon="-5.5543483"><ele>18.0</ele><time>2026-04-28T15:14:12.008Z</time></trkpt><trkpt lat="35.8421167" lon="-5.55427"><ele>18.0</ele><time>2026-04-28T15:14:13.008Z</time></trkpt><trkpt lat="35.8421617" lon="-5.55418"><ele>18.0</ele><time>2026-04-28T15:14:14.008Z</time></trkpt><trkpt lat="35.84221" lon="-5.55408"><ele>18.0</ele><time>2026-04-28T15:14:15.008Z</time></trkpt><trkpt lat="35.842265" lon="-5.5539783"><ele>18.0</ele><time>2026-04-28T15:14:16.008Z</time></trkpt><trkpt lat="35.842325" lon="-5.5538717"><ele>18.0</ele><time>2026-04-28T15:14:17.008Z</time></trkpt><trkpt lat="35.8423867" lon="-5.55376"><ele>18.0</ele><time>2026-04-28T15:14:18.008Z</time></trkpt><trkpt lat="35.842445" lon="-5.553645"><ele>18.0</ele><time>2026-04-28T15:14:19.007Z</time></trkpt><trkpt lat="35.8425233" lon="-5.55352"><ele>18.0</ele><time>2026-04-28T15:14:20.008Z</time></trkpt><trkpt lat="35.8426033" lon="-5.553405"><ele>17.75</ele><time>2026-04-28T15:14:21.008Z</time></trkpt><trkpt lat="35.8426767" lon="-5.5532883"><ele>17.5</ele><time>2026-04-28T15:14:22.008Z</time></trkpt><trkpt lat="35.8427383" lon="-5.55318"><ele>17.25</ele><time>2026-04-28T15:14:23.008Z</time></trkpt><trkpt lat="35.84281" lon="-5.5530717"><ele>17.0</ele><time>2026-04-28T15:14:24.008Z</time></trkpt><trkpt lat="35.8428733" lon="-5.5529583"><ele>19.5</ele><time>2026-04-28T15:14:25.008Z</time></trkpt><trkpt lat="35.8429533" lon="-5.552855"><ele>22.0</ele><time>2026-04-28T15:14:26.008Z</time></trkpt><trkpt lat="35.8430467" lon="-5.5527467"><ele>24.5</ele><time>2026-04-28T15:14:27.008Z</time></trkpt><trkpt lat="35.84314" lon="-5.5526467"><ele>27.0</ele><time>2026-04-28T15:14:28.008Z</time></trkpt><trkpt lat="35.843235" lon="-5.552545"><ele>27.0</ele><time>2026-04-28T15:14:29.008Z</time></trkpt><trkpt lat="35.84333" lon="-5.5524367"><ele>27.0</ele><time>2026-04-28T15:14:30.008Z</time></trkpt><trkpt lat="35.8434333" lon="-5.5523267"><ele>27.0</ele><time>2026-04-28T15:14:31.007Z</time></trkpt><trkpt lat="35.8435367" lon="-5.5522267"><ele>27.0</ele><time>2026-04-28T15:14:32.008Z</time></trkpt><trkpt lat="35.8436433" lon="-5.5521333"><ele>26.25</ele><time>2026-04-28T15:14:33.008Z</time></trkpt><trkpt lat="35.8437517" lon="-5.55205"><ele>25.5</ele><time>2026-04-28T15:14:34.008Z</time></trkpt><trkpt lat="35.8438583" lon="-5.5519717"><ele>24.75</ele><time>2026-04-28T15:14:35.008Z</time></trkpt><trkpt lat="35.8439683" lon="-5.55189"><ele>24.0</ele><time>2026-04-28T15:14:36.008Z</time></trkpt><trkpt lat="35.8440767" lon="-5.551805"><ele>24.0</ele><time>2026-04-28T15:14:37.008Z</time></trkpt><trkpt lat="35.8441917" lon="-5.551725"><ele>24.0</ele><time>2026-04-28T15:14:38.008Z</time></trkpt><trkpt lat="35.844305" lon="-5.5516433"><ele>24.0</ele><time>2026-04-28T15:14:39.008Z</time></trkpt><trkpt lat="35.8444167" lon="-5.551565"><ele>24.0</ele><time>2026-04-28T15:14:40.008Z</time></trkpt><trkpt lat="35.8445233" lon="-5.5514883"><ele>24.6</ele><time>2026-04-28T15:14:41.008Z</time></trkpt><trkpt lat="35.8446267" lon="-5.5514167"><ele>25.2</ele><time>2026-04-28T15:14:42.008Z</time></trkpt><trkpt lat="35.8447167" lon="-5.5513367"><ele>25.800000000000004</ele><time>2026-04-28T15:14:43.008Z</time></trkpt><trkpt lat="35.844805" lon="-5.551265"><ele>26.400000000000002</ele><time>2026-04-28T15:14:44.008Z</time></trkpt><trkpt lat="35.8448917" lon="-5.5511983"><ele>27.0</ele><time>2026-04-28T15:14:45.007Z</time></trkpt><trkpt lat="35.844975" lon="-5.5511383"><ele>27.0</ele><time>2026-04-28T15:14:46.008Z</time></trkpt><trkpt lat="35.8450517" lon="-5.5510783"><ele>27.0</ele><time>2026-04-28T15:14:47.008Z</time></trkpt><trkpt lat="35.8451267" lon="-5.55101"><ele>27.0</ele><time>2026-04-28T15:14:48.008Z</time></trkpt><trkpt lat="35.84519" lon="-5.55095"><ele>27.0</ele><time>2026-04-28T15:14:49.008Z</time></trkpt><trkpt lat="35.8452483" lon="-5.5508883"><ele>27.0</ele><time>2026-04-28T15:14:50.008Z</time></trkpt><trkpt lat="35.8453083" lon="-5.5508283"><ele>27.0</ele><time>2026-04-28T15:14:51.008Z</time></trkpt><trkpt lat="35.8453683" lon="-5.5507683"><ele>26.0</ele><time>2026-04-28T15:14:52.008Z</time></trkpt><trkpt lat="35.8454317" lon="-5.5506983"><ele>25.000000000000004</ele><time>2026-04-28T15:14:53.008Z</time></trkpt><trkpt lat="35.8454917" lon="-5.550615"><ele>24.0</ele><time>2026-04-28T15:14:54.008Z</time></trkpt><trkpt lat="35.84555" lon="-5.5505333"><ele>23.0</ele><time>2026-04-28T15:14:55.008Z</time></trkpt><trkpt lat="35.8456133" lon="-5.55045"><ele>22.0</ele><time>2026-04-28T15:14:56.008Z</time></trkpt><trkpt lat="35.8456917" lon="-5.55036"><ele>22.0</ele><time>2026-04-28T15:14:57.008Z</time></trkpt><trkpt lat="35.8457783" lon="-5.550275"><ele>22.0</ele><time>2026-04-28T15:14:58.008Z</time></trkpt><trkpt lat="35.8458633" lon="-5.55019"><ele>22.0</ele><time>2026-04-28T15:14:59.008Z</time></trkpt><trkpt lat="35.8459533" lon="-5.5501033"><ele>22.0</ele><time>2026-04-28T15:15:00.008Z</time></trkpt><trkpt lat="35.8460383" lon="-5.55002"><ele>22.0</ele><time>2026-04-28T15:15:01.008Z</time></trkpt><trkpt lat="35.84613" lon="-5.5499267"><ele>19.5</ele><time>2026-04-28T15:15:02.008Z</time></trkpt><trkpt lat="35.8462217" lon="-5.5498267"><ele>17.0</ele><time>2026-04-28T15:15:03.008Z</time></trkpt><trkpt lat="35.8463167" lon="-5.5497317"><ele>14.5</ele><time>2026-04-28T15:15:04.008Z</time></trkpt><trkpt lat="35.8464" lon="-5.5496367"><ele>12.0</ele><time>2026-04-28T15:15:05.008Z</time></trkpt><trkpt lat="35.8464783" lon="-5.5495533"><ele>11.4</ele><time>2026-04-28T15:15:06.008Z</time></trkpt><trkpt lat="35.8465633" lon="-5.5494717"><ele>10.799999999999999</ele><time>2026-04-28T15:15:07.007Z</time></trkpt><trkpt lat="35.846645" lon="-5.5493817"><ele>10.2</ele><time>2026-04-28T15:15:08.008Z</time></trkpt><trkpt lat="35.8467267" lon="-5.5492883"><ele>9.6</ele><time>2026-04-28T15:15:09.008Z</time></trkpt><trkpt lat="35.8468083" lon="-5.5492017"><ele>9.0</ele><time>2026-04-28T15:15:10.008Z</time></trkpt><trkpt lat="35.8468817" lon="-5.54912"><ele>9.0</ele><time>2026-04-28T15:15:11.008Z</time></trkpt><trkpt lat="35.8469517" lon="-5.5490417"><ele>9.0</ele><time>2026-04-28T15:15:12.008Z</time></trkpt><trkpt lat="35.8470167" lon="-5.54897"><ele>9.0</ele><time>2026-04-28T15:15:13.008Z</time></trkpt><trkpt lat="35.8470833" lon="-5.5488967"><ele>9.0</ele><time>2026-04-28T15:15:14.008Z</time></trkpt><trkpt lat="35.8471417" lon="-5.5488217"><ele>9.0</ele><time>2026-04-28T15:15:15.008Z</time></trkpt><trkpt lat="35.847205" lon="-5.5487417"><ele>9.0</ele><time>2026-04-28T15:15:16.008Z</time></trkpt><trkpt lat="35.8472733" lon="-5.5486617"><ele>9.6</ele><time>2026-04-28T15:15:17.007Z</time></trkpt><trkpt lat="35.8473417" lon="-5.5485833"><ele>10.2</ele><time>2026-04-28T15:15:18.008Z</time></trkpt><trkpt lat="35.847415" lon="-5.5484967"><ele>10.799999999999999</ele><time>2026-04-28T15:15:19.008Z</time></trkpt><trkpt lat="35.847495" lon="-5.548415"><ele>11.4</ele><time>2026-04-28T15:15:20.008Z</time></trkpt><trkpt lat="35.847585" lon="-5.5483333"><ele>12.0</ele><time>2026-04-28T15:15:21.008Z</time></trkpt><trkpt lat="35.8476683" lon="-5.5482433"><ele>12.0</ele><time>2026-04-28T15:15:22.008Z</time></trkpt><trkpt lat="35.8477567" lon="-5.54815"><ele>12.0</ele><time>2026-04-28T15:15:23.008Z</time></trkpt><trkpt lat="35.847855" lon="-5.5480567"><ele>12.0</ele><time>2026-04-28T15:15:24.007Z</time></trkpt><trkpt lat="35.8479483" lon="-5.5479617"><ele>12.0</ele><time>2026-04-28T15:15:25.007Z</time></trkpt><trkpt lat="35.84804" lon="-5.5478617"><ele>13.75</ele><time>2026-04-28T15:15:26.008Z</time></trkpt><trkpt lat="35.8481283" lon="-5.5477567"><ele>15.5</ele><time>2026-04-28T15:15:27.008Z</time></trkpt><trkpt lat="35.84821" lon="-5.54765"><ele>17.25</ele><time>2026-04-28T15:15:28.008Z</time></trkpt><trkpt lat="35.8482883" lon="-5.54755"><ele>19.0</ele><time>2026-04-28T15:15:29.008Z</time></trkpt><trkpt lat="35.8483667" lon="-5.54745"><ele>19.0</ele><time>2026-04-28T15:15:30.008Z</time></trkpt><trkpt lat="35.8484567" lon="-5.547345"><ele>19.0</ele><time>2026-04-28T15:15:31.007Z</time></trkpt><trkpt lat="35.8485567" lon="-5.5472417"><ele>19.0</ele><time>2026-04-28T15:15:32.008Z</time></trkpt><trkpt lat="35.84865" lon="-5.5471317"><ele>19.0</ele><time>2026-04-28T15:15:33.007Z</time></trkpt><trkpt lat="35.8487433" lon="-5.54703"><ele>17.75</ele><time>2026-04-28T15:15:34.008Z</time></trkpt><trkpt lat="35.8488433" lon="-5.5469183"><ele>16.5</ele><time>2026-04-28T15:15:35.008Z</time></trkpt><trkpt lat="35.84894" lon="-5.54681"><ele>15.25</ele><time>2026-04-28T15:15:36.008Z</time></trkpt><trkpt lat="35.84903" lon="-5.5467133"><ele>14.0</ele><time>2026-04-28T15:15:37.008Z</time></trkpt><trkpt lat="35.8491267" lon="-5.546595"><ele>14.0</ele><time>2026-04-28T15:15:38.008Z</time></trkpt><trkpt lat="35.8492233" lon="-5.5464683"><ele>14.0</ele><time>2026-04-28T15:15:39.007Z</time></trkpt><trkpt lat="35.8493317" lon="-5.54634"><ele>14.0</ele><time>2026-04-28T15:15:40.008Z</time></trkpt><trkpt lat="35.8494333" lon="-5.5462033"><ele>14.0</ele><time>2026-04-28T15:15:41.008Z</time></trkpt><trkpt lat="35.8495233" lon="-5.5460817"><ele>13.0</ele><time>2026-04-28T15:15:42.007Z</time></trkpt><trkpt lat="35.8496083" lon="-5.5459617"><ele>12.0</ele><time>2026-04-28T15:15:43.007Z</time></trkpt><trkpt lat="35.8496917" lon="-5.5458333"><ele>11.0</ele><time>2026-04-28T15:15:44.008Z</time></trkpt><trkpt lat="35.8497733" lon="-5.54571"><ele>10.0</ele><time>2026-04-28T15:15:45.008Z</time></trkpt><trkpt lat="35.8498567" lon="-5.5455833"><ele>10.0</ele><time>2026-04-28T15:15:46.008Z</time></trkpt><trkpt lat="35.84994" lon="-5.5454633"><ele>10.0</ele><time>2026-04-28T15:15:47.008Z</time></trkpt><trkpt lat="35.850025" lon="-5.545335"><ele>10.0</ele><time>2026-04-28T15:15:48.008Z</time></trkpt><trkpt lat="35.8501117" lon="-5.54521"><ele>10.0</ele><time>2026-04-28T15:15:49.007Z</time></trkpt><trkpt lat="35.85019" lon="-5.5450917"><ele>10.0</ele><time>2026-04-28T15:15:50.008Z</time></trkpt><trkpt lat="35.8502617" lon="-5.5449833"><ele>10.0</ele><time>2026-04-28T15:15:51.008Z</time></trkpt><trkpt lat="35.8503367" lon="-5.5448783"><ele>10.0</ele><time>2026-04-28T15:15:52.007Z</time></trkpt><trkpt lat="35.85041" lon="-5.54477"><ele>10.0</ele><time>2026-04-28T15:15:53.007Z</time></trkpt><trkpt lat="35.85048" lon="-5.54465"><ele>11.75</ele><time>2026-04-28T15:15:54.007Z</time></trkpt><trkpt lat="35.8505483" lon="-5.54453"><ele>13.5</ele><time>2026-04-28T15:15:55.007Z</time></trkpt><trkpt lat="35.8506133" lon="-5.5444017"><ele>15.25</ele><time>2026-04-28T15:15:56.007Z</time></trkpt><trkpt lat="35.8506683" lon="-5.54428"><ele>17.0</ele><time>2026-04-28T15:15:57.007Z</time></trkpt><trkpt lat="35.8507233" lon="-5.5441583"><ele>17.0</ele><time>2026-04-28T15:15:58.007Z</time></trkpt><trkpt lat="35.8507867" lon="-5.5440483"><ele>17.0</ele><time>2026-04-28T15:15:59.006Z</time></trkpt><trkpt lat="35.8508467" lon="-5.543955"><ele>17.0</ele><time>2026-04-28T15:16:00.007Z</time></trkpt><trkpt lat="35.850915" lon="-5.54387"><ele>17.0</ele><time>2026-04-28T15:16:01.007Z</time></trkpt><trkpt lat="35.8509733" lon="-5.5437817"><ele>17.0</ele><time>2026-04-28T15:16:02.007Z</time></trkpt><trkpt lat="35.851025" lon="-5.5436967"><ele>16.5</ele><time>2026-04-28T15:16:03.006Z</time></trkpt><trkpt lat="35.8510717" lon="-5.5436233"><ele>16.0</ele><time>2026-04-28T15:16:04.007Z</time></trkpt><trkpt lat="35.85112" lon="-5.5435433"><ele>15.5</ele><time>2026-04-28T15:16:05.007Z</time></trkpt><trkpt lat="35.8511667" lon="-5.5434517"><ele>15.0</ele><time>2026-04-28T15:16:06.007Z</time></trkpt><trkpt lat="35.8512117" lon="-5.5433467"><ele>14.500000000000002</ele><time>2026-04-28T15:16:07.007Z</time></trkpt><trkpt lat="35.851255" lon="-5.5432317"><ele>14.0</ele><time>2026-04-28T15:16:08.006Z</time></trkpt><trkpt lat="35.8513117" lon="-5.5431117"><ele>14.0</ele><time>2026-04-28T15:16:09.007Z</time></trkpt><trkpt lat="35.8513633" lon="-5.54299"><ele>13.999999999999998</ele><time>2026-04-28T15:16:10.007Z</time></trkpt><trkpt lat="35.8514233" lon="-5.5428767"><ele>13.999999999999998</ele><time>2026-04-28T15:16:11.007Z</time></trkpt><trkpt lat="35.851475" lon="-5.5427617"><ele>14.0</ele><time>2026-04-28T15:16:12.007Z</time></trkpt><trkpt lat="35.8515433" lon="-5.5426517"><ele>14.0</ele><time>2026-04-28T15:16:13.007Z</time></trkpt><trkpt lat="35.8515933" lon="-5.54254"><ele>14.799999999999999</ele><time>2026-04-28T15:16:14.007Z</time></trkpt><trkpt lat="35.8516433" lon="-5.54243"><ele>15.599999999999998</ele><time>2026-04-28T15:16:15.007Z</time></trkpt><trkpt lat="35.851695" lon="-5.54231"><ele>16.4</ele><time>2026-04-28T15:16:16.007Z</time></trkpt><trkpt lat="35.8517567" lon="-5.542185"><ele>17.2</ele><time>2026-04-28T15:16:17.007Z</time></trkpt><trkpt lat="35.8518133" lon="-5.542065"><ele>18.0</ele><time>2026-04-28T15:16:18.007Z</time></trkpt><trkpt lat="35.8518717" lon="-5.54195"><ele>16.4</ele><time>2026-04-28T15:16:19.007Z</time></trkpt><trkpt lat="35.8519367" lon="-5.5418367"><ele>14.8</ele><time>2026-04-28T15:16:20.007Z</time></trkpt><trkpt lat="35.8519967" lon="-5.5417217"><ele>13.2</ele><time>2026-04-28T15:16:21.006Z</time></trkpt><trkpt lat="35.8520433" lon="-5.5416133"><ele>11.6</ele><time>2026-04-28T15:16:22.007Z</time></trkpt><trkpt lat="35.8520767" lon="-5.541525"><ele>10.0</ele><time>2026-04-28T15:16:23.007Z</time></trkpt><trkpt lat="35.8521067" lon="-5.5414533"><ele>10.0</ele><time>2026-04-28T15:16:24.006Z</time></trkpt><trkpt lat="35.852145" lon="-5.541335"><ele>10.0</ele><time>2026-04-28T15:16:26.007Z</time></trkpt><trkpt lat="35.8521617" lon="-5.5412533"><ele>10.0</ele><time>2026-04-28T15:16:28.007Z</time></trkpt><trkpt lat="35.852165" lon="-5.5411667"><ele>10.0</ele><time>2026-04-28T15:16:31.007Z</time></trkpt><trkpt lat="35.8521283" lon="-5.541095"><ele>10.0</ele><time>2026-04-28T15:16:33.007Z</time></trkpt><trkpt lat="35.8520367" lon="-5.540985"><ele>10.0</ele><time>2026-04-28T15:16:35.007Z</time></trkpt><trkpt lat="35.85198" lon="-5.5408983"><ele>8.75</ele><time>2026-04-28T15:16:36.007Z</time></trkpt><trkpt lat="35.8519083" lon="-5.54078"><ele>7.5</ele><time>2026-04-28T15:16:37.007Z</time></trkpt><trkpt lat="35.8518333" lon="-5.5406433"><ele>6.25</ele><time>2026-04-28T15:16:38.007Z</time></trkpt><trkpt lat="35.8517633" lon="-5.5405083"><ele>5.0</ele><time>2026-04-28T15:16:39.007Z</time></trkpt><trkpt lat="35.8516883" lon="-5.540385"><ele>5.4</ele><time>2026-04-28T15:16:40.007Z</time></trkpt><trkpt lat="35.85162" lon="-5.54028"><ele>5.8</ele><time>2026-04-28T15:16:41.007Z</time></trkpt><trkpt lat="35.8515517" lon="-5.540185"><ele>6.199999999999999</ele><time>2026-04-28T15:16:42.007Z</time></trkpt><trkpt lat="35.8514917" lon="-5.54009"><ele>6.6</ele><time>2026-04-28T15:16:43.007Z</time></trkpt><trkpt lat="35.8514333" lon="-5.54"><ele>7.0</ele><time>2026-04-28T15:16:44.007Z</time></trkpt><trkpt lat="35.8513783" lon="-5.5399217"><ele>7.000000000000001</ele><time>2026-04-28T15:16:45.007Z</time></trkpt><trkpt lat="35.8513417" lon="-5.5398383"><ele>7.0</ele><time>2026-04-28T15:16:46.007Z</time></trkpt><trkpt lat="35.8513383" lon="-5.5397583"><ele>7.0</ele><time>2026-04-28T15:16:47.007Z</time></trkpt><trkpt lat="35.8513517" lon="-5.5396767"><ele>7.0</ele><time>2026-04-28T15:16:48.007Z</time></trkpt><trkpt lat="35.85138" lon="-5.5395833"><ele>7.000000000000001</ele><time>2026-04-28T15:16:49.007Z</time></trkpt><trkpt lat="35.8514317" lon="-5.5394883"><ele>7.0</ele><time>2026-04-28T15:16:50.007Z</time></trkpt><trkpt lat="35.8515083" lon="-5.5394"><ele>6.5</ele><time>2026-04-28T15:16:51.006Z</time></trkpt><trkpt lat="35.85161" lon="-5.5393167"><ele>6.0</ele><time>2026-04-28T15:16:52.007Z</time></trkpt><trkpt lat="35.8517183" lon="-5.53923"><ele>5.5</ele><time>2026-04-28T15:16:53.007Z</time></trkpt><trkpt lat="35.851835" lon="-5.5391417"><ele>5.0</ele><time>2026-04-28T15:16:54.007Z</time></trkpt><trkpt lat="35.851945" lon="-5.53905"><ele>5.4</ele><time>2026-04-28T15:16:55.007Z</time></trkpt><trkpt lat="35.852015" lon="-5.53894"><ele>5.8</ele><time>2026-04-28T15:16:56.007Z</time></trkpt><trkpt lat="35.8520467" lon="-5.5388233"><ele>6.199999999999999</ele><time>2026-04-28T15:16:57.007Z</time></trkpt><trkpt lat="35.85208" lon="-5.5387083"><ele>6.6</ele><time>2026-04-28T15:16:58.007Z</time></trkpt><trkpt lat="35.8521283" lon="-5.5386033"><ele>7.0</ele><time>2026-04-28T15:16:59.007Z</time></trkpt><trkpt lat="35.8521817" lon="-5.5385133"><ele>7.0</ele><time>2026-04-28T15:17:00.007Z</time></trkpt><trkpt lat="35.8522567" lon="-5.5384317"><ele>7.0</ele><time>2026-04-28T15:17:01.006Z</time></trkpt><trkpt lat="35.8523567" lon="-5.5383533"><ele>7.0</ele><time>2026-04-28T15:17:02.006Z</time></trkpt><trkpt lat="35.8524617" lon="-5.5382767"><ele>7.0</ele><time>2026-04-28T15:17:03.007Z</time></trkpt><trkpt lat="35.8525683" lon="-5.5382117"><ele>8.5</ele><time>2026-04-28T15:17:04.007Z</time></trkpt><trkpt lat="35.8526767" lon="-5.5381617"><ele>10.0</ele><time>2026-04-28T15:17:05.006Z</time></trkpt><trkpt lat="35.8527933" lon="-5.5381483"><ele>11.5</ele><time>2026-04-28T15:17:06.006Z</time></trkpt><trkpt lat="35.8529083" lon="-5.5381483"><ele>13.0</ele><time>2026-04-28T15:17:07.007Z</time></trkpt><trkpt lat="35.8530167" lon="-5.53812"><ele>13.0</ele><time>2026-04-28T15:17:08.007Z</time></trkpt><trkpt lat="35.8531183" lon="-5.5380633"><ele>13.0</ele><time>2026-04-28T15:17:09.007Z</time></trkpt><trkpt lat="35.8532133" lon="-5.537965"><ele>13.0</ele><time>2026-04-28T15:17:10.006Z</time></trkpt><trkpt lat="35.8533183" lon="-5.53786"><ele>13.0</ele><time>2026-04-28T15:17:11.007Z</time></trkpt><trkpt lat="35.853405" lon="-5.5377517"><ele>14.833333333333332</ele><time>2026-04-28T15:17:12.007Z</time></trkpt><trkpt lat="35.8534683" lon="-5.5376517"><ele>16.666666666666664</ele><time>2026-04-28T15:17:13.007Z</time></trkpt><trkpt lat="35.8534983" lon="-5.5375517"><ele>18.5</ele><time>2026-04-28T15:17:14.007Z</time></trkpt><trkpt lat="35.85351" lon="-5.5374467"><ele>20.333333333333332</ele><time>2026-04-28T15:17:15.007Z</time></trkpt><trkpt lat="35.8535167" lon="-5.537355"><ele>22.166666666666668</ele><time>2026-04-28T15:17:16.007Z</time></trkpt><trkpt lat="35.8535517" lon="-5.5372567"><ele>24.0</ele><time>2026-04-28T15:17:17.007Z</time></trkpt><trkpt lat="35.853605" lon="-5.53717"><ele>24.0</ele><time>2026-04-28T15:17:18.006Z</time></trkpt><trkpt lat="35.8536933" lon="-5.5370883"><ele>24.0</ele><time>2026-04-28T15:17:19.007Z</time></trkpt><trkpt lat="35.8537983" lon="-5.5370083"><ele>24.0</ele><time>2026-04-28T15:17:20.007Z</time></trkpt><trkpt lat="35.8539133" lon="-5.5369183"><ele>24.0</ele><time>2026-04-28T15:17:21.007Z</time></trkpt><trkpt lat="35.854045" lon="-5.53682"><ele>24.0</ele><time>2026-04-28T15:17:22.007Z</time></trkpt><trkpt lat="35.854185" lon="-5.53672"><ele>24.0</ele><time>2026-04-28T15:17:23.006Z</time></trkpt><trkpt lat="35.8543217" lon="-5.5366217"><ele>24.0</ele><time>2026-04-28T15:17:24.007Z</time></trkpt><trkpt lat="35.854455" lon="-5.5365233"><ele>24.0</ele><time>2026-04-28T15:17:25.007Z</time></trkpt><trkpt lat="35.854585" lon="-5.5364333"><ele>24.0</ele><time>2026-04-28T15:17:26.007Z</time></trkpt><trkpt lat="35.8547" lon="-5.5363467"><ele>24.0</ele><time>2026-04-28T15:17:27.007Z</time></trkpt><trkpt lat="35.8548117" lon="-5.5362583"><ele>24.0</ele><time>2026-04-28T15:17:28.006Z</time></trkpt><trkpt lat="35.8549183" lon="-5.5361783"><ele>24.0</ele><time>2026-04-28T15:17:29.007Z</time></trkpt><trkpt lat="35.8550233" lon="-5.536105"><ele>24.0</ele><time>2026-04-28T15:17:30.006Z</time></trkpt><trkpt lat="35.85513" lon="-5.5360317"><ele>24.0</ele><time>2026-04-28T15:17:31.007Z</time></trkpt><trkpt lat="35.8552317" lon="-5.53596"><ele>24.0</ele><time>2026-04-28T15:17:32.007Z</time></trkpt><trkpt lat="35.8553333" lon="-5.5358833"><ele>24.0</ele><time>2026-04-28T15:17:33.006Z</time></trkpt><trkpt lat="35.85543" lon="-5.5358117"><ele>24.0</ele><time>2026-04-28T15:17:34.006Z</time></trkpt><trkpt lat="35.8555367" lon="-5.5357367"><ele>24.0</ele><time>2026-04-28T15:17:35.007Z</time></trkpt><trkpt lat="35.85563" lon="-5.5356683"><ele>24.0</ele><time>2026-04-28T15:17:36.007Z</time></trkpt><trkpt lat="35.85573" lon="-5.5356017"><ele>24.0</ele><time>2026-04-28T15:17:37.007Z</time></trkpt><trkpt lat="35.855825" lon="-5.5355317"><ele>24.0</ele><time>2026-04-28T15:17:38.007Z</time></trkpt><trkpt lat="35.8559117" lon="-5.5354617"><ele>24.0</ele><time>2026-04-28T15:17:39.007Z</time></trkpt><trkpt lat="35.855995" lon="-5.5353867"><ele>24.0</ele><time>2026-04-28T15:17:40.007Z</time></trkpt><trkpt lat="35.8560683" lon="-5.5353083"><ele>24.0</ele><time>2026-04-28T15:17:41.007Z</time></trkpt><trkpt lat="35.8561367" lon="-5.53522"><ele>23.333333333333332</ele><time>2026-04-28T15:17:42.007Z</time></trkpt><trkpt lat="35.8561867" lon="-5.5351483"><ele>22.666666666666668</ele><time>2026-04-28T15:17:43.006Z</time></trkpt><trkpt lat="35.8562633" lon="-5.5350483"><ele>22.0</ele><time>2026-04-28T15:17:45.007Z</time></trkpt><trkpt lat="35.85631" lon="-5.53498"><ele>21.333333333333336</ele><time>2026-04-28T15:17:47.007Z</time></trkpt><trkpt lat="35.8563567" lon="-5.534905"><ele>20.666666666666668</ele><time>2026-04-28T15:17:50.007Z</time></trkpt><trkpt lat="35.8563517" lon="-5.53482"><ele>20.0</ele><time>2026-04-28T15:17:52.006Z</time></trkpt><trkpt lat="35.856305" lon="-5.5347"><ele>20.0</ele><time>2026-04-28T15:17:54.007Z</time></trkpt><trkpt lat="35.85627" lon="-5.5346317"><ele>20.0</ele><time>2026-04-28T15:17:55.007Z</time></trkpt><trkpt lat="35.85625" lon="-5.5345567"><ele>20.0</ele><time>2026-04-28T15:17:56.007Z</time></trkpt><trkpt lat="35.8562533" lon="-5.5344767"><ele>20.0</ele><time>2026-04-28T15:17:57.007Z</time></trkpt><trkpt lat="35.8562817" lon="-5.5344067"><ele>20.0</ele><time>2026-04-28T15:17:58.007Z</time></trkpt><trkpt lat="35.856335" lon="-5.53436"><ele>20.0</ele><time>2026-04-28T15:17:59.007Z</time></trkpt><trkpt lat="35.8564033" lon="-5.5343383"><ele>20.0</ele><time>2026-04-28T15:18:00.007Z</time></trkpt><trkpt lat="35.8564817" lon="-5.5343433"><ele>21.2</ele><time>2026-04-28T15:18:01.006Z</time></trkpt><trkpt lat="35.8565633" lon="-5.5343683"><ele>22.4</ele><time>2026-04-28T15:18:02.007Z</time></trkpt><trkpt lat="35.8566483" lon="-5.5343933"><ele>23.6</ele><time>2026-04-28T15:18:03.007Z</time></trkpt><trkpt lat="35.856745" lon="-5.534405"><ele>24.8</ele><time>2026-04-28T15:18:04.007Z</time></trkpt><trkpt lat="35.8568567" lon="-5.5344"><ele>26.0</ele><time>2026-04-28T15:18:05.007Z</time></trkpt><trkpt lat="35.8569767" lon="-5.5343833"><ele>26.0</ele><time>2026-04-28T15:18:06.007Z</time></trkpt><trkpt lat="35.8570883" lon="-5.5343533"><ele>26.0</ele><time>2026-04-28T15:18:07.007Z</time></trkpt><trkpt lat="35.8572" lon="-5.5343133"><ele>26.0</ele><time>2026-04-28T15:18:08.007Z</time></trkpt><trkpt lat="35.8573" lon="-5.5342717"><ele>26.0</ele><time>2026-04-28T15:18:09.007Z</time></trkpt><trkpt lat="35.8573883" lon="-5.5342233"><ele>26.0</ele><time>2026-04-28T15:18:10.007Z</time></trkpt><trkpt lat="35.8574767" lon="-5.5341783"><ele>25.999999999999996</ele><time>2026-04-28T15:18:11.006Z</time></trkpt><trkpt lat="35.85756" lon="-5.534135"><ele>26.0</ele><time>2026-04-28T15:18:12.007Z</time></trkpt><trkpt lat="35.857635" lon="-5.534085"><ele>26.0</ele><time>2026-04-28T15:18:13.007Z</time></trkpt><trkpt lat="35.8577" lon="-5.5340417"><ele>26.0</ele><time>2026-04-28T15:18:14.007Z</time></trkpt><trkpt lat="35.8577667" lon="-5.533995"><ele>25.999999999999996</ele><time>2026-04-28T15:18:15.007Z</time></trkpt><trkpt lat="35.857825" lon="-5.53395"><ele>26.0</ele><time>2026-04-28T15:18:16.007Z</time></trkpt><trkpt lat="35.8578817" lon="-5.5339067"><ele>25.166666666666664</ele><time>2026-04-28T15:18:17.007Z</time></trkpt><trkpt lat="35.8579333" lon="-5.5338617"><ele>24.333333333333332</ele><time>2026-04-28T15:18:18.007Z</time></trkpt><trkpt lat="35.8580367" lon="-5.5337767"><ele>23.5</ele><time>2026-04-28T15:18:20.006Z</time></trkpt><trkpt lat="35.858095" lon="-5.5337267"><ele>22.666666666666664</ele><time>2026-04-28T15:18:21.007Z</time></trkpt><trkpt lat="35.85816" lon="-5.5336733"><ele>21.833333333333332</ele><time>2026-04-28T15:18:22.007Z</time></trkpt><trkpt lat="35.8582267" lon="-5.53362"><ele>21.0</ele><time>2026-04-28T15:18:23.007Z</time></trkpt><trkpt lat="35.85829" lon="-5.5335667"><ele>21.833333333333332</ele><time>2026-04-28T15:18:24.007Z</time></trkpt><trkpt lat="35.85836" lon="-5.5335133"><ele>22.666666666666664</ele><time>2026-04-28T15:18:25.007Z</time></trkpt><trkpt lat="35.8584283" lon="-5.53346"><ele>23.5</ele><time>2026-04-28T15:18:26.007Z</time></trkpt><trkpt lat="35.8584983" lon="-5.533405"><ele>24.333333333333332</ele><time>2026-04-28T15:18:27.007Z</time></trkpt><trkpt lat="35.85857" lon="-5.53335"><ele>25.166666666666664</ele><time>2026-04-28T15:18:28.007Z</time></trkpt><trkpt lat="35.85864" lon="-5.5332917"><ele>26.0</ele><time>2026-04-28T15:18:29.007Z</time></trkpt><trkpt lat="35.8587067" lon="-5.5332317"><ele>26.0</ele><time>2026-04-28T15:18:30.007Z</time></trkpt><trkpt lat="35.8587817" lon="-5.53317"><ele>26.0</ele><time>2026-04-28T15:18:31.007Z</time></trkpt><trkpt lat="35.858865" lon="-5.5331083"><ele>26.0</ele><time>2026-04-28T15:18:32.007Z</time></trkpt><trkpt lat="35.8589533" lon="-5.5330433"><ele>26.0</ele><time>2026-04-28T15:18:33.007Z</time></trkpt><trkpt lat="35.859035" lon="-5.532975"><ele>26.0</ele><time>2026-04-28T15:18:34.007Z</time></trkpt><trkpt lat="35.8591167" lon="-5.532905"><ele>26.4</ele><time>2026-04-28T15:18:35.007Z</time></trkpt><trkpt lat="35.8591933" lon="-5.53284"><ele>26.8</ele><time>2026-04-28T15:18:36.007Z</time></trkpt><trkpt lat="35.85927" lon="-5.53277"><ele>27.199999999999996</ele><time>2026-04-28T15:18:37.007Z</time></trkpt><trkpt lat="35.85935" lon="-5.532705"><ele>27.599999999999998</ele><time>2026-04-28T15:18:38.007Z</time></trkpt><trkpt lat="35.8594317" lon="-5.5326333"><ele>28.0</ele><time>2026-04-28T15:18:39.007Z</time></trkpt><trkpt lat="35.8595117" lon="-5.53257"><ele>28.0</ele><time>2026-04-28T15:18:40.006Z</time></trkpt><trkpt lat="35.8595933" lon="-5.5325"><ele>27.999999999999996</ele><time>2026-04-28T15:18:41.007Z</time></trkpt><trkpt lat="35.8596817" lon="-5.5324267"><ele>27.999999999999996</ele><time>2026-04-28T15:18:42.007Z</time></trkpt><trkpt lat="35.8597633" lon="-5.53236"><ele>28.0</ele><time>2026-04-28T15:18:43.007Z</time></trkpt><trkpt lat="35.8598433" lon="-5.5322933"><ele>28.0</ele><time>2026-04-28T15:18:44.007Z</time></trkpt><trkpt lat="35.859925" lon="-5.5322267"><ele>28.0</ele><time>2026-04-28T15:18:45.006Z</time></trkpt><trkpt lat="35.8600067" lon="-5.5321633"><ele>27.999999999999996</ele><time>2026-04-28T15:18:46.006Z</time></trkpt><trkpt lat="35.8600883" lon="-5.5321"><ele>27.999999999999996</ele><time>2026-04-28T15:18:47.007Z</time></trkpt><trkpt lat="35.8601717" lon="-5.5320317"><ele>28.0</ele><time>2026-04-28T15:18:48.006Z</time></trkpt><trkpt lat="35.8602533" lon="-5.5319617"><ele>28.0</ele><time>2026-04-28T15:18:49.007Z</time></trkpt><trkpt lat="35.8603333" lon="-5.53188"><ele>28.4</ele><time>2026-04-28T15:18:50.007Z</time></trkpt><trkpt lat="35.860415" lon="-5.5318083"><ele>28.799999999999997</ele><time>2026-04-28T15:18:51.006Z</time></trkpt><trkpt lat="35.860495" lon="-5.531735"><ele>29.2</ele><time>2026-04-28T15:18:52.007Z</time></trkpt><trkpt lat="35.86058" lon="-5.5316567"><ele>29.6</ele><time>2026-04-28T15:18:53.007Z</time></trkpt><trkpt lat="35.8606683" lon="-5.5315817"><ele>30.0</ele><time>2026-04-28T15:18:54.007Z</time></trkpt><trkpt lat="35.860755" lon="-5.531495"><ele>30.0</ele><time>2026-04-28T15:18:55.006Z</time></trkpt><trkpt lat="35.8608533" lon="-5.5314217"><ele>30.0</ele><time>2026-04-28T15:18:56.007Z</time></trkpt><trkpt lat="35.8609533" lon="-5.53135"><ele>30.0</ele><time>2026-04-28T15:18:57.007Z</time></trkpt><trkpt lat="35.8610533" lon="-5.5312733"><ele>30.0</ele><time>2026-04-28T15:18:58.007Z</time></trkpt><trkpt lat="35.861155" lon="-5.5311983"><ele>29.5</ele><time>2026-04-28T15:18:59.007Z</time></trkpt><trkpt lat="35.8612617" lon="-5.531115"><ele>29.0</ele><time>2026-04-28T15:19:00.007Z</time></trkpt><trkpt lat="35.8613617" lon="-5.5310217"><ele>28.5</ele><time>2026-04-28T15:19:01.007Z</time></trkpt><trkpt lat="35.8614633" lon="-5.5309317"><ele>28.0</ele><time>2026-04-28T15:19:02.007Z</time></trkpt><trkpt lat="35.86157" lon="-5.5308417"><ele>28.0</ele><time>2026-04-28T15:19:03.007Z</time></trkpt><trkpt lat="35.8616767" lon="-5.53075"><ele>28.0</ele><time>2026-04-28T15:19:04.006Z</time></trkpt><trkpt lat="35.861785" lon="-5.5306517"><ele>28.0</ele><time>2026-04-28T15:19:05.007Z</time></trkpt><trkpt lat="35.8618983" lon="-5.530555"><ele>28.0</ele><time>2026-04-28T15:19:06.007Z</time></trkpt><trkpt lat="35.8620133" lon="-5.5304533"><ele>28.5</ele><time>2026-04-28T15:19:07.007Z</time></trkpt><trkpt lat="35.862125" lon="-5.530355"><ele>29.0</ele><time>2026-04-28T15:19:08.007Z</time></trkpt><trkpt lat="35.86224" lon="-5.5302533"><ele>29.5</ele><time>2026-04-28T15:19:09.007Z</time></trkpt><trkpt lat="35.8623533" lon="-5.5301567"><ele>30.0</ele><time>2026-04-28T15:19:10.006Z</time></trkpt><trkpt lat="35.862475" lon="-5.5300583"><ele>30.0</ele><time>2026-04-28T15:19:11.006Z</time></trkpt><trkpt lat="35.8625967" lon="-5.52996"><ele>30.0</ele><time>2026-04-28T15:19:12.007Z</time></trkpt><trkpt lat="35.862715" lon="-5.52986"><ele>30.0</ele><time>2026-04-28T15:19:13.006Z</time></trkpt><trkpt lat="35.8628317" lon="-5.5297533"><ele>30.0</ele><time>2026-04-28T15:19:14.007Z</time></trkpt><trkpt lat="35.862955" lon="-5.52965"><ele>32.333333333333336</ele><time>2026-04-28T15:19:15.007Z</time></trkpt><trkpt lat="35.8630783" lon="-5.5295483"><ele>34.66666666666667</ele><time>2026-04-28T15:19:16.007Z</time></trkpt><trkpt lat="35.8632083" lon="-5.5294467"><ele>37.0</ele><time>2026-04-28T15:19:17.006Z</time></trkpt><trkpt lat="35.863335" lon="-5.5293533"><ele>30.333333333333336</ele><time>2026-04-28T15:19:18.007Z</time></trkpt><trkpt lat="35.86346" lon="-5.529255"><ele>23.666666666666668</ele><time>2026-04-28T15:19:19.007Z</time></trkpt><trkpt lat="35.863585" lon="-5.5291517"><ele>17.0</ele><time>2026-04-28T15:19:20.007Z</time></trkpt><trkpt lat="35.8637117" lon="-5.5290483"><ele>17.0</ele><time>2026-04-28T15:19:21.007Z</time></trkpt><trkpt lat="35.8638333" lon="-5.5289467"><ele>17.0</ele><time>2026-04-28T15:19:22.006Z</time></trkpt><trkpt lat="35.8639533" lon="-5.5288483"><ele>17.0</ele><time>2026-04-28T15:19:23.007Z</time></trkpt><trkpt lat="35.8640567" lon="-5.5287417"><ele>17.0</ele><time>2026-04-28T15:19:24.007Z</time></trkpt><trkpt lat="35.8641783" lon="-5.5286367"><ele>19.0</ele><time>2026-04-28T15:19:25.007Z</time></trkpt><trkpt lat="35.8643017" lon="-5.5285417"><ele>21.0</ele><time>2026-04-28T15:19:26.007Z</time></trkpt><trkpt lat="35.8644233" lon="-5.5284483"><ele>23.0</ele><time>2026-04-28T15:19:27.007Z</time></trkpt><trkpt lat="35.86454" lon="-5.5283517"><ele>25.0</ele><time>2026-04-28T15:19:28.007Z</time></trkpt><trkpt lat="35.8646517" lon="-5.5282583"><ele>25.0</ele><time>2026-04-28T15:19:29.007Z</time></trkpt><trkpt lat="35.86477" lon="-5.5281617"><ele>25.0</ele><time>2026-04-28T15:19:30.007Z</time></trkpt><trkpt lat="35.8648933" lon="-5.5280617"><ele>25.0</ele><time>2026-04-28T15:19:31.007Z</time></trkpt><trkpt lat="35.8650217" lon="-5.52796"><ele>25.0</ele><time>2026-04-28T15:19:32.007Z</time></trkpt><trkpt lat="35.8651567" lon="-5.5278533"><ele>25.0</ele><time>2026-04-28T15:19:33.007Z</time></trkpt><trkpt lat="35.8652967" lon="-5.5277383"><ele>25.0</ele><time>2026-04-28T15:19:34.007Z</time></trkpt><trkpt lat="35.865435" lon="-5.5276267"><ele>25.0</ele><time>2026-04-28T15:19:35.007Z</time></trkpt><trkpt lat="35.8655733" lon="-5.5275183"><ele>25.0</ele><time>2026-04-28T15:19:36.007Z</time></trkpt><trkpt lat="35.8657083" lon="-5.5274033"><ele>25.0</ele><time>2026-04-28T15:19:37.007Z</time></trkpt><trkpt lat="35.8658433" lon="-5.5272917"><ele>25.0</ele><time>2026-04-28T15:19:38.006Z</time></trkpt><trkpt lat="35.8659933" lon="-5.5271633"><ele>22.0</ele><time>2026-04-28T15:19:39.007Z</time></trkpt><trkpt lat="35.8661383" lon="-5.527045"><ele>19.0</ele><time>2026-04-28T15:19:40.007Z</time></trkpt><trkpt lat="35.8662733" lon="-5.5269267"><ele>16.0</ele><time>2026-04-28T15:19:41.007Z</time></trkpt><trkpt lat="35.8664033" lon="-5.5268067"><ele>16.0</ele><time>2026-04-28T15:19:42.007Z</time></trkpt><trkpt lat="35.8665283" lon="-5.5266817"><ele>16.0</ele><time>2026-04-28T15:19:43.006Z</time></trkpt><trkpt lat="35.86666" lon="-5.526555"><ele>16.0</ele><time>2026-04-28T15:19:44.007Z</time></trkpt><trkpt lat="35.8667917" lon="-5.5264133"><ele>17.666666666666664</ele><time>2026-04-28T15:19:45.007Z</time></trkpt><trkpt lat="35.8669233" lon="-5.5262683"><ele>19.333333333333332</ele><time>2026-04-28T15:19:46.007Z</time></trkpt><trkpt lat="35.8670517" lon="-5.5261167"><ele>21.0</ele><time>2026-04-28T15:19:47.007Z</time></trkpt><trkpt lat="35.8671833" lon="-5.5259667"><ele>24.666666666666664</ele><time>2026-04-28T15:19:48.007Z</time></trkpt><trkpt lat="35.86731" lon="-5.525795"><ele>28.333333333333332</ele><time>2026-04-28T15:19:49.007Z</time></trkpt><trkpt lat="35.8674283" lon="-5.5256317"><ele>32.0</ele><time>2026-04-28T15:19:50.007Z</time></trkpt><trkpt lat="35.867545" lon="-5.5254633"><ele>36.33333333333333</ele><time>2026-04-28T15:19:51.007Z</time></trkpt><trkpt lat="35.8676567" lon="-5.5252917"><ele>40.666666666666664</ele><time>2026-04-28T15:19:52.007Z</time></trkpt><trkpt lat="35.8677567" lon="-5.5251283"><ele>45.0</ele><time>2026-04-28T15:19:53.007Z</time></trkpt><trkpt lat="35.867855" lon="-5.52497"><ele>45.0</ele><time>2026-04-28T15:19:54.006Z</time></trkpt><trkpt lat="35.8679467" lon="-5.5248117"><ele>45.0</ele><time>2026-04-28T15:19:55.007Z</time></trkpt><trkpt lat="35.86803" lon="-5.5246483"><ele>45.0</ele><time>2026-04-28T15:19:56.007Z</time></trkpt><trkpt lat="35.8681083" lon="-5.5244883"><ele>47.25</ele><time>2026-04-28T15:19:57.007Z</time></trkpt><trkpt lat="35.8681767" lon="-5.524345"><ele>49.5</ele><time>2026-04-28T15:19:58.007Z</time></trkpt><trkpt lat="35.8682367" lon="-5.524215"><ele>51.75</ele><time>2026-04-28T15:19:59.007Z</time></trkpt><trkpt lat="35.8682833" lon="-5.524095"><ele>54.0</ele><time>2026-04-28T15:20:00.007Z</time></trkpt><trkpt lat="35.8683033" lon="-5.5239867"><ele>54.0</ele><time>2026-04-28T15:20:01.007Z</time></trkpt><trkpt lat="35.868315" lon="-5.5238983"><ele>54.00000000000001</ele><time>2026-04-28T15:20:02.007Z</time></trkpt><trkpt lat="35.8683267" lon="-5.5238167"><ele>54.00000000000001</ele><time>2026-04-28T15:20:03.007Z</time></trkpt><trkpt lat="35.8684017" lon="-5.5237183"><ele>54.0</ele><time>2026-04-28T15:20:05.007Z</time></trkpt><trkpt lat="35.86853" lon="-5.523745"><ele>54.0</ele><time>2026-04-28T15:20:07.007Z</time></trkpt><trkpt lat="35.8685983" lon="-5.5237917"><ele>51.333333333333336</ele><time>2026-04-28T15:20:08.007Z</time></trkpt><trkpt lat="35.8686633" lon="-5.5238233"><ele>48.666666666666664</ele><time>2026-04-28T15:20:09.007Z</time></trkpt><trkpt lat="35.8687317" lon="-5.5238233"><ele>46.0</ele><time>2026-04-28T15:20:10.006Z</time></trkpt><trkpt lat="35.868825" lon="-5.52377"><ele>43.33333333333333</ele><time>2026-04-28T15:20:12.007Z</time></trkpt><trkpt lat="35.86887" lon="-5.5236983"><ele>40.666666666666664</ele><time>2026-04-28T15:20:14.007Z</time></trkpt><trkpt lat="35.86889" lon="-5.5235817"><ele>38.0</ele><time>2026-04-28T15:20:59.007Z</time></trkpt><trkpt lat="35.8689383" lon="-5.523505"><ele>38.0</ele><time>2026-04-28T15:21:02.007Z</time></trkpt><trkpt lat="35.8689917" lon="-5.5234617"><ele>38.0</ele><time>2026-04-28T15:21:22.007Z</time></trkpt><trkpt lat="35.869025" lon="-5.5233767"><ele>38.0</ele><time>2026-04-28T15:21:25.007Z</time></trkpt><trkpt lat="35.869055" lon="-5.5232583"><ele>38.0</ele><time>2026-04-28T15:21:27.007Z</time></trkpt><trkpt lat="35.869085" lon="-5.5231183"><ele>38.0</ele><time>2026-04-28T15:21:29.007Z</time></trkpt><trkpt lat="35.8691183" lon="-5.5229933"><ele>38.666666666666664</ele><time>2026-04-28T15:21:31.007Z</time></trkpt><trkpt lat="35.8691517" lon="-5.5228767"><ele>39.33333333333333</ele><time>2026-04-28T15:21:33.007Z</time></trkpt><trkpt lat="35.8691833" lon="-5.522765"><ele>40.0</ele><time>2026-04-28T15:21:35.007Z</time></trkpt><trkpt lat="35.8692133" lon="-5.5226483"><ele>40.666666666666664</ele><time>2026-04-28T15:21:37.007Z</time></trkpt><trkpt lat="35.8692467" lon="-5.52255"><ele>41.333333333333336</ele><time>2026-04-28T15:21:39.007Z</time></trkpt><trkpt lat="35.86927" lon="-5.5224733"><ele>42.0</ele><time>2026-04-28T15:21:41.007Z</time></trkpt><trkpt lat="35.86931" lon="-5.52238"><ele>42.0</ele><time>2026-04-28T15:21:44.007Z</time></trkpt><trkpt lat="35.8693417" lon="-5.5223083"><ele>42.0</ele><time>2026-04-28T15:21:47.007Z</time></trkpt><trkpt lat="35.8693517" lon="-5.5221867"><ele>42.0</ele><time>2026-04-28T15:21:50.007Z</time></trkpt><trkpt lat="35.8693583" lon="-5.52209"><ele>42.0</ele><time>2026-04-28T15:21:52.007Z</time></trkpt><trkpt lat="35.86938" lon="-5.5219967"><ele>42.0</ele><time>2026-04-28T15:21:54.007Z</time></trkpt><trkpt lat="35.869415" lon="-5.5218783"><ele>42.0</ele><time>2026-04-28T15:21:56.007Z</time></trkpt><trkpt lat="35.869455" lon="-5.521765"><ele>42.0</ele><time>2026-04-28T15:21:58.007Z</time></trkpt><trkpt lat="35.8694717" lon="-5.5216617"><ele>42.0</ele><time>2026-04-28T15:22:00.007Z</time></trkpt><trkpt lat="35.86949" lon="-5.5215733"><ele>42.0</ele><time>2026-04-28T15:22:02.007Z</time></trkpt><trkpt lat="35.869535" lon="-5.52146"><ele>42.0</ele><time>2026-04-28T15:22:04.007Z</time></trkpt><trkpt lat="35.8695917" lon="-5.5213517"><ele>42.0</ele><time>2026-04-28T15:22:06.007Z</time></trkpt><trkpt lat="35.8696483" lon="-5.5212683"><ele>44.8</ele><time>2026-04-28T15:22:08.007Z</time></trkpt><trkpt lat="35.8697083" lon="-5.5211817"><ele>47.6</ele><time>2026-04-28T15:22:10.007Z</time></trkpt><trkpt lat="35.8697633" lon="-5.5210717"><ele>50.39999999999999</ele><time>2026-04-28T15:22:12.007Z</time></trkpt><trkpt lat="35.8698167" lon="-5.5209667"><ele>53.199999999999996</ele><time>2026-04-28T15:22:14.007Z</time></trkpt><trkpt lat="35.8698467" lon="-5.5208617"><ele>56.0</ele><time>2026-04-28T15:22:16.007Z</time></trkpt><trkpt lat="35.8698767" lon="-5.5207433"><ele>56.00000000000001</ele><time>2026-04-28T15:22:18.007Z</time></trkpt><trkpt lat="35.869905" lon="-5.520635"><ele>56.0</ele><time>2026-04-28T15:22:20.007Z</time></trkpt><trkpt lat="35.8699283" lon="-5.52054"><ele>56.0</ele><time>2026-04-28T15:22:22.007Z</time></trkpt><trkpt lat="35.869965" lon="-5.5204617"><ele>56.0</ele><time>2026-04-28T15:22:24.007Z</time></trkpt><trkpt lat="35.8700233" lon="-5.5204283"><ele>56.00000000000001</ele><time>2026-04-28T15:22:26.007Z</time></trkpt><trkpt lat="35.870105" lon="-5.520395"><ele>56.0</ele><time>2026-04-28T15:22:29.007Z</time></trkpt><trkpt lat="35.8701533" lon="-5.52031"><ele>49.0</ele><time>2026-04-28T15:22:32.007Z</time></trkpt><trkpt lat="35.8702083" lon="-5.5202417"><ele>49.0</ele><time>2026-04-28T15:22:35.007Z</time></trkpt></trkseg><trkseg><trkpt lat="35.8703167" lon="-5.5201817"><ele>48.99999999999999</ele><time>2026-04-28T15:35:09.045Z</time></trkpt><trkpt lat="35.87037" lon="-5.5202367"><ele>49.0</ele><time>2026-04-28T15:35:11.045Z</time></trkpt><trkpt lat="35.8704467" lon="-5.52029"><ele>49.0</ele><time>2026-04-28T15:35:14.045Z</time></trkpt><trkpt lat="35.87052" lon="-5.5202533"><ele>49.0</ele><time>2026-04-28T15:35:17.045Z</time></trkpt><trkpt lat="35.87056" lon="-5.5201917"><ele>48.99999999999999</ele><time>2026-04-28T15:35:19.045Z</time></trkpt><trkpt lat="35.8706133" lon="-5.5201067"><ele>49.0</ele><time>2026-04-28T15:35:22.045Z</time></trkpt><trkpt lat="35.870665" lon="-5.5200167"><ele>48.99999999999999</ele><time>2026-04-28T15:35:25.045Z</time></trkpt><trkpt lat="35.8707067" lon="-5.5199283"><ele>49.0</ele><time>2026-04-28T15:35:28.045Z</time></trkpt><trkpt lat="35.8707467" lon="-5.519835"><ele>49.0</ele><time>2026-04-28T15:35:31.045Z</time></trkpt><trkpt lat="35.8707883" lon="-5.519755"><ele>49.0</ele><time>2026-04-28T15:35:34.045Z</time></trkpt><trkpt lat="35.8708283" lon="-5.5196683"><ele>48.99999999999999</ele><time>2026-04-28T15:35:37.045Z</time></trkpt><trkpt lat="35.8708783" lon="-5.51959"><ele>49.0</ele><time>2026-04-28T15:35:40.045Z</time></trkpt><trkpt lat="35.8709117" lon="-5.5195083"><ele>47.33333333333333</ele><time>2026-04-28T15:35:43.045Z</time></trkpt><trkpt lat="35.8709467" lon="-5.5194317"><ele>45.666666666666664</ele><time>2026-04-28T15:35:46.045Z</time></trkpt><trkpt lat="35.870995" lon="-5.5193817"><ele>44.0</ele><time>2026-04-28T15:35:50.045Z</time></trkpt><trkpt lat="35.8710617" lon="-5.5193233"><ele>42.33333333333333</ele><time>2026-04-28T15:36:05.044Z</time></trkpt><trkpt lat="35.8711033" lon="-5.5192417"><ele>40.666666666666664</ele><time>2026-04-28T15:36:07.045Z</time></trkpt><trkpt lat="35.8711583" lon="-5.5191367"><ele>39.0</ele><time>2026-04-28T15:36:09.045Z</time></trkpt><trkpt lat="35.87121" lon="-5.5190283"><ele>39.0</ele><time>2026-04-28T15:36:11.044Z</time></trkpt><trkpt lat="35.871255" lon="-5.5189517"><ele>39.0</ele><time>2026-04-28T15:36:13.045Z</time></trkpt><trkpt lat="35.871315" lon="-5.5189217"><ele>39.0</ele><time>2026-04-28T15:36:21.045Z</time></trkpt><trkpt lat="35.871355" lon="-5.5189933"><ele>39.0</ele><time>2026-04-28T15:37:14.045Z</time></trkpt><trkpt lat="35.87133" lon="-5.5190867"><ele>39.0</ele><time>2026-04-28T15:37:16.045Z</time></trkpt><trkpt lat="35.8712933" lon="-5.519155"><ele>39.0</ele><time>2026-04-28T15:37:18.045Z</time></trkpt><trkpt lat="35.8712367" lon="-5.5191983"><ele>39.0</ele><time>2026-04-28T15:37:20.045Z</time></trkpt><trkpt lat="35.8711733" lon="-5.5192"><ele>39.0</ele><time>2026-04-28T15:37:23.045Z</time></trkpt><trkpt lat="35.8711533" lon="-5.519115"><ele>39.0</ele><time>2026-04-28T15:37:26.045Z</time></trkpt><trkpt lat="35.87123" lon="-5.5190483"><ele>39.0</ele><time>2026-04-28T15:37:28.045Z</time></trkpt><trkpt lat="35.8713333" lon="-5.5190067"><ele>39.0</ele><time>2026-04-28T15:37:30.045Z</time></trkpt><trkpt lat="35.87142" lon="-5.518965"><ele>39.0</ele><time>2026-04-28T15:37:32.045Z</time></trkpt><trkpt lat="35.8715117" lon="-5.5188917"><ele>39.0</ele><time>2026-04-28T15:37:34.045Z</time></trkpt><trkpt lat="35.8716" lon="-5.5187817"><ele>39.0</ele><time>2026-04-28T15:37:36.045Z</time></trkpt><trkpt lat="35.871645" lon="-5.518715"><ele>39.0</ele><time>2026-04-28T15:37:37.045Z</time></trkpt><trkpt lat="35.8716917" lon="-5.5186383"><ele>39.0</ele><time>2026-04-28T15:37:38.045Z</time></trkpt><trkpt lat="35.8717417" lon="-5.5185617"><ele>39.0</ele><time>2026-04-28T15:37:39.044Z</time></trkpt><trkpt lat="35.87179" lon="-5.518485"><ele>39.0</ele><time>2026-04-28T15:37:40.045Z</time></trkpt><trkpt lat="35.8718367" lon="-5.5184167"><ele>38.4</ele><time>2026-04-28T15:37:41.045Z</time></trkpt><trkpt lat="35.871885" lon="-5.518355"><ele>37.8</ele><time>2026-04-28T15:37:42.044Z</time></trkpt><trkpt lat="35.8719333" lon="-5.5182983"><ele>37.2</ele><time>2026-04-28T15:37:43.045Z</time></trkpt><trkpt lat="35.8720233" lon="-5.5181917"><ele>36.6</ele><time>2026-04-28T15:37:45.044Z</time></trkpt><trkpt lat="35.8721183" lon="-5.5181167"><ele>36.0</ele><time>2026-04-28T15:37:47.045Z</time></trkpt><trkpt lat="35.8721817" lon="-5.5180433"><ele>36.0</ele><time>2026-04-28T15:37:49.045Z</time></trkpt><trkpt lat="35.87227" lon="-5.5179833"><ele>36.0</ele><time>2026-04-28T15:38:01.045Z</time></trkpt><trkpt lat="35.8723233" lon="-5.5179233"><ele>36.0</ele><time>2026-04-28T15:38:04.044Z</time></trkpt><trkpt lat="35.8723683" lon="-5.517815"><ele>36.0</ele><time>2026-04-28T15:38:06.045Z</time></trkpt><trkpt lat="35.8723717" lon="-5.5177233"><ele>36.0</ele><time>2026-04-28T15:38:07.045Z</time></trkpt><trkpt lat="35.8723733" lon="-5.517575"><ele>37.0</ele><time>2026-04-28T15:38:09.045Z</time></trkpt><trkpt lat="35.8723667" lon="-5.517485"><ele>38.0</ele><time>2026-04-28T15:38:10.045Z</time></trkpt><trkpt lat="35.872355" lon="-5.517405"><ele>39.0</ele><time>2026-04-28T15:38:11.045Z</time></trkpt><trkpt lat="35.8723483" lon="-5.51728"><ele>40.0</ele><time>2026-04-28T15:38:13.045Z</time></trkpt><trkpt lat="35.8723483" lon="-5.5171867"><ele>41.0</ele><time>2026-04-28T15:38:15.045Z</time></trkpt><trkpt lat="35.872345" lon="-5.51707"><ele>42.0</ele><time>2026-04-28T15:38:18.045Z</time></trkpt><trkpt lat="35.87235" lon="-5.5169733"><ele>43.0</ele><time>2026-04-28T15:38:20.044Z</time></trkpt><trkpt lat="35.87238" lon="-5.5168883"><ele>44.0</ele><time>2026-04-28T15:38:22.044Z</time></trkpt><trkpt lat="35.8724217" lon="-5.51683"><ele>45.0</ele><time>2026-04-28T15:38:24.045Z</time></trkpt><trkpt lat="35.8724867" lon="-5.5167333"><ele>46.0</ele><time>2026-04-28T15:38:27.044Z</time></trkpt><trkpt lat="35.8725333" lon="-5.5166133"><ele>47.0</ele><time>2026-04-28T15:38:29.045Z</time></trkpt><trkpt lat="35.87259" lon="-5.5165567"><ele>48.0</ele><time>2026-04-28T15:38:30.045Z</time></trkpt><trkpt lat="35.87265" lon="-5.5164983"><ele>47.333333333333336</ele><time>2026-04-28T15:38:31.045Z</time></trkpt><trkpt lat="35.8727017" lon="-5.5164417"><ele>46.666666666666664</ele><time>2026-04-28T15:38:32.045Z</time></trkpt><trkpt lat="35.87275" lon="-5.51639"><ele>46.0</ele><time>2026-04-28T15:38:33.045Z</time></trkpt><trkpt lat="35.8728083" lon="-5.516325"><ele>45.33333333333333</ele><time>2026-04-28T15:38:34.045Z</time></trkpt><trkpt lat="35.87287" lon="-5.51627"><ele>44.666666666666664</ele><time>2026-04-28T15:38:35.045Z</time></trkpt><trkpt lat="35.8729217" lon="-5.516225"><ele>44.0</ele><time>2026-04-28T15:38:36.045Z</time></trkpt><trkpt lat="35.8730067" lon="-5.5161283"><ele>44.0</ele><time>2026-04-28T15:38:38.045Z</time></trkpt><trkpt lat="35.873055" lon="-5.516075"><ele>44.0</ele><time>2026-04-28T15:38:39.045Z</time></trkpt><trkpt lat="35.8731033" lon="-5.5160167"><ele>44.0</ele><time>2026-04-28T15:38:40.045Z</time></trkpt><trkpt lat="35.8731517" lon="-5.515955"><ele>44.0</ele><time>2026-04-28T15:38:41.045Z</time></trkpt><trkpt lat="35.8731983" lon="-5.5158967"><ele>44.0</ele><time>2026-04-28T15:38:42.045Z</time></trkpt><trkpt lat="35.873245" lon="-5.5158367"><ele>44.0</ele><time>2026-04-28T15:38:43.045Z</time></trkpt><trkpt lat="35.8733017" lon="-5.5157717"><ele>44.0</ele><time>2026-04-28T15:38:44.045Z</time></trkpt><trkpt lat="35.87336" lon="-5.5157"><ele>44.0</ele><time>2026-04-28T15:38:45.045Z</time></trkpt><trkpt lat="35.8734267" lon="-5.5156067"><ele>44.0</ele><time>2026-04-28T15:38:46.045Z</time></trkpt><trkpt lat="35.8734883" lon="-5.5155117"><ele>44.0</ele><time>2026-04-28T15:38:47.045Z</time></trkpt><trkpt lat="35.8735583" lon="-5.5154183"><ele>44.0</ele><time>2026-04-28T15:38:48.045Z</time></trkpt><trkpt lat="35.8736267" lon="-5.515325"><ele>44.0</ele><time>2026-04-28T15:38:49.045Z</time></trkpt><trkpt lat="35.8736967" lon="-5.51524"><ele>44.2</ele><time>2026-04-28T15:38:50.044Z</time></trkpt><trkpt lat="35.8737683" lon="-5.5151617"><ele>44.400000000000006</ele><time>2026-04-28T15:38:51.045Z</time></trkpt><trkpt lat="35.8738367" lon="-5.5150783"><ele>44.6</ele><time>2026-04-28T15:38:52.045Z</time></trkpt><trkpt lat="35.8739083" lon="-5.5149967"><ele>44.8</ele><time>2026-04-28T15:38:53.045Z</time></trkpt><trkpt lat="35.873985" lon="-5.5149133"><ele>45.0</ele><time>2026-04-28T15:38:54.045Z</time></trkpt><trkpt lat="35.8740683" lon="-5.5148367"><ele>45.0</ele><time>2026-04-28T15:38:55.045Z</time></trkpt><trkpt lat="35.8741517" lon="-5.5147667"><ele>45.0</ele><time>2026-04-28T15:38:56.045Z</time></trkpt><trkpt lat="35.874235" lon="-5.5146983"><ele>45.0</ele><time>2026-04-28T15:38:57.045Z</time></trkpt><trkpt lat="35.8743233" lon="-5.5146317"><ele>45.0</ele><time>2026-04-28T15:38:58.045Z</time></trkpt><trkpt lat="35.8744117" lon="-5.5145683"><ele>45.0</ele><time>2026-04-28T15:38:59.045Z</time></trkpt><trkpt lat="35.8744983" lon="-5.5145"><ele>43.2</ele><time>2026-04-28T15:39:00.045Z</time></trkpt><trkpt lat="35.8745867" lon="-5.5144267"><ele>41.4</ele><time>2026-04-28T15:39:01.045Z</time></trkpt><trkpt lat="35.8746767" lon="-5.5143583"><ele>39.6</ele><time>2026-04-28T15:39:02.045Z</time></trkpt><trkpt lat="35.87477" lon="-5.5142867"><ele>37.8</ele><time>2026-04-28T15:39:03.045Z</time></trkpt><trkpt lat="35.874855" lon="-5.51421"><ele>36.0</ele><time>2026-04-28T15:39:04.045Z</time></trkpt><trkpt lat="35.8749417" lon="-5.5141183"><ele>36.0</ele><time>2026-04-28T15:39:05.045Z</time></trkpt><trkpt lat="35.8750267" lon="-5.5140283"><ele>36.0</ele><time>2026-04-28T15:39:06.045Z</time></trkpt><trkpt lat="35.8750983" lon="-5.5139433"><ele>36.0</ele><time>2026-04-28T15:39:07.045Z</time></trkpt><trkpt lat="35.8751633" lon="-5.5138617"><ele>36.0</ele><time>2026-04-28T15:39:08.045Z</time></trkpt><trkpt lat="35.8752183" lon="-5.5137867"><ele>36.0</ele><time>2026-04-28T15:39:09.045Z</time></trkpt><trkpt lat="35.8752583" lon="-5.513715"><ele>32.666666666666664</ele><time>2026-04-28T15:39:10.045Z</time></trkpt><trkpt lat="35.8753033" lon="-5.5136483"><ele>29.333333333333332</ele><time>2026-04-28T15:39:11.045Z</time></trkpt><trkpt lat="35.8753567" lon="-5.51358"><ele>26.0</ele><time>2026-04-28T15:39:12.045Z</time></trkpt><trkpt lat="35.8754183" lon="-5.5135133"><ele>22.666666666666664</ele><time>2026-04-28T15:39:13.045Z</time></trkpt><trkpt lat="35.87548" lon="-5.513435"><ele>19.333333333333332</ele><time>2026-04-28T15:39:14.045Z</time></trkpt><trkpt lat="35.87555" lon="-5.5133433"><ele>16.0</ele><time>2026-04-28T15:39:15.045Z</time></trkpt><trkpt lat="35.8756167" lon="-5.5132433"><ele>16.0</ele><time>2026-04-28T15:39:16.044Z</time></trkpt><trkpt lat="35.87568" lon="-5.5131533"><ele>16.0</ele><time>2026-04-28T15:39:17.045Z</time></trkpt><trkpt lat="35.8757417" lon="-5.513065"><ele>16.0</ele><time>2026-04-28T15:39:18.045Z</time></trkpt><trkpt lat="35.875795" lon="-5.51297"><ele>16.0</ele><time>2026-04-28T15:39:19.045Z</time></trkpt><trkpt lat="35.8758483" lon="-5.512875"><ele>16.0</ele><time>2026-04-28T15:39:20.045Z</time></trkpt><trkpt lat="35.8759033" lon="-5.51277"><ele>16.400000000000002</ele><time>2026-04-28T15:39:21.045Z</time></trkpt><trkpt lat="35.87596" lon="-5.5126667"><ele>16.8</ele><time>2026-04-28T15:39:22.045Z</time></trkpt><trkpt lat="35.8760217" lon="-5.5125667"><ele>17.200000000000003</ele><time>2026-04-28T15:39:23.045Z</time></trkpt><trkpt lat="35.87608" lon="-5.5124617"><ele>17.6</ele><time>2026-04-28T15:39:24.045Z</time></trkpt><trkpt lat="35.876145" lon="-5.5123567"><ele>18.0</ele><time>2026-04-28T15:39:25.045Z</time></trkpt><trkpt lat="35.8762083" lon="-5.5122517"><ele>18.0</ele><time>2026-04-28T15:39:26.045Z</time></trkpt><trkpt lat="35.87627" lon="-5.5121433"><ele>18.0</ele><time>2026-04-28T15:39:27.045Z</time></trkpt><trkpt lat="35.87633" lon="-5.51203"><ele>18.0</ele><time>2026-04-28T15:39:28.045Z</time></trkpt><trkpt lat="35.8763933" lon="-5.5119167"><ele>18.0</ele><time>2026-04-28T15:39:29.045Z</time></trkpt><trkpt lat="35.87646" lon="-5.5117983"><ele>18.0</ele><time>2026-04-28T15:39:30.045Z</time></trkpt><trkpt lat="35.8765267" lon="-5.5116833"><ele>19.5</ele><time>2026-04-28T15:39:31.045Z</time></trkpt><trkpt lat="35.87659" lon="-5.511565"><ele>21.0</ele><time>2026-04-28T15:39:32.045Z</time></trkpt><trkpt lat="35.8766567" lon="-5.51145"><ele>22.5</ele><time>2026-04-28T15:39:33.045Z</time></trkpt><trkpt lat="35.876725" lon="-5.5113317"><ele>24.0</ele><time>2026-04-28T15:39:34.045Z</time></trkpt><trkpt lat="35.8767917" lon="-5.5112133"><ele>24.0</ele><time>2026-04-28T15:39:35.045Z</time></trkpt><trkpt lat="35.8768617" lon="-5.5110967"><ele>24.0</ele><time>2026-04-28T15:39:36.045Z</time></trkpt><trkpt lat="35.87694" lon="-5.5109783"><ele>24.0</ele><time>2026-04-28T15:39:37.045Z</time></trkpt><trkpt lat="35.8770233" lon="-5.5108667"><ele>24.0</ele><time>2026-04-28T15:39:38.044Z</time></trkpt><trkpt lat="35.87711" lon="-5.510755"><ele>24.0</ele><time>2026-04-28T15:39:39.044Z</time></trkpt><trkpt lat="35.8771917" lon="-5.510645"><ele>24.0</ele><time>2026-04-28T15:39:40.045Z</time></trkpt><trkpt lat="35.8772833" lon="-5.51053"><ele>24.0</ele><time>2026-04-28T15:39:41.045Z</time></trkpt><trkpt lat="35.8773667" lon="-5.5104167"><ele>24.0</ele><time>2026-04-28T15:39:42.045Z</time></trkpt><trkpt lat="35.8774467" lon="-5.51031"><ele>25.0</ele><time>2026-04-28T15:39:43.045Z</time></trkpt><trkpt lat="35.877535" lon="-5.5102117"><ele>26.0</ele><time>2026-04-28T15:39:44.045Z</time></trkpt><trkpt lat="35.8776217" lon="-5.5101067"><ele>27.0</ele><time>2026-04-28T15:39:45.045Z</time></trkpt><trkpt lat="35.8777033" lon="-5.509995"><ele>28.0</ele><time>2026-04-28T15:39:46.045Z</time></trkpt><trkpt lat="35.8777867" lon="-5.5098917"><ele>28.0</ele><time>2026-04-28T15:39:47.045Z</time></trkpt><trkpt lat="35.8778683" lon="-5.50979"><ele>28.0</ele><time>2026-04-28T15:39:48.045Z</time></trkpt><trkpt lat="35.8779483" lon="-5.509685"><ele>28.0</ele><time>2026-04-28T15:39:49.045Z</time></trkpt><trkpt lat="35.87803" lon="-5.5095917"><ele>28.0</ele><time>2026-04-28T15:39:50.045Z</time></trkpt><trkpt lat="35.878115" lon="-5.5095"><ele>28.0</ele><time>2026-04-28T15:39:51.044Z</time></trkpt><trkpt lat="35.8782083" lon="-5.50941"><ele>28.0</ele><time>2026-04-28T15:39:52.045Z</time></trkpt><trkpt lat="35.8782933" lon="-5.5093233"><ele>28.0</ele><time>2026-04-28T15:39:53.044Z</time></trkpt><trkpt lat="35.8783817" lon="-5.5092383"><ele>28.0</ele><time>2026-04-28T15:39:54.045Z</time></trkpt><trkpt lat="35.8784783" lon="-5.50915"><ele>28.0</ele><time>2026-04-28T15:39:55.045Z</time></trkpt><trkpt lat="35.878575" lon="-5.5090583"><ele>28.0</ele><time>2026-04-28T15:39:56.045Z</time></trkpt><trkpt lat="35.8786733" lon="-5.5089717"><ele>28.0</ele><time>2026-04-28T15:39:57.045Z</time></trkpt><trkpt lat="35.8787833" lon="-5.508895"><ele>28.0</ele><time>2026-04-28T15:39:58.045Z</time></trkpt><trkpt lat="35.8789017" lon="-5.5088233"><ele>28.0</ele><time>2026-04-28T15:39:59.045Z</time></trkpt><trkpt lat="35.8790217" lon="-5.5087633"><ele>28.0</ele><time>2026-04-28T15:40:00.045Z</time></trkpt><trkpt lat="35.879145" lon="-5.5087217"><ele>28.0</ele><time>2026-04-28T15:40:01.045Z</time></trkpt><trkpt lat="35.8792633" lon="-5.5086933"><ele>28.0</ele><time>2026-04-28T15:40:02.045Z</time></trkpt><trkpt lat="35.8793717" lon="-5.508685"><ele>28.25</ele><time>2026-04-28T15:40:03.044Z</time></trkpt><trkpt lat="35.879505" lon="-5.5086617"><ele>28.5</ele><time>2026-04-28T15:40:04.044Z</time></trkpt><trkpt lat="35.8796433" lon="-5.5086417"><ele>28.75</ele><time>2026-04-28T15:40:05.044Z</time></trkpt><trkpt lat="35.8797667" lon="-5.5086283"><ele>29.0</ele><time>2026-04-28T15:40:06.045Z</time></trkpt><trkpt lat="35.87988" lon="-5.5086017"><ele>28.999999999999996</ele><time>2026-04-28T15:40:07.045Z</time></trkpt><trkpt lat="35.8799717" lon="-5.5085683"><ele>29.0</ele><time>2026-04-28T15:40:08.045Z</time></trkpt><trkpt lat="35.8800483" lon="-5.5085367"><ele>29.0</ele><time>2026-04-28T15:40:09.045Z</time></trkpt><trkpt lat="35.880105" lon="-5.5085017"><ele>29.0</ele><time>2026-04-28T15:40:10.045Z</time></trkpt><trkpt lat="35.8801717" lon="-5.5084467"><ele>28.999999999999996</ele><time>2026-04-28T15:40:12.045Z</time></trkpt><trkpt lat="35.8802217" lon="-5.508385"><ele>29.0</ele><time>2026-04-28T15:40:14.045Z</time></trkpt><trkpt lat="35.88027" lon="-5.5083133"><ele>28.166666666666664</ele><time>2026-04-28T15:40:16.045Z</time></trkpt><trkpt lat="35.8803117" lon="-5.5082517"><ele>27.333333333333332</ele><time>2026-04-28T15:40:18.045Z</time></trkpt><trkpt lat="35.8803683" lon="-5.5081633"><ele>26.5</ele><time>2026-04-28T15:40:21.045Z</time></trkpt><trkpt lat="35.880415" lon="-5.50807"><ele>25.666666666666664</ele><time>2026-04-28T15:40:24.045Z</time></trkpt><trkpt lat="35.8804483" lon="-5.5079917"><ele>24.833333333333332</ele><time>2026-04-28T15:40:26.045Z</time></trkpt><trkpt lat="35.880485" lon="-5.5078967"><ele>24.0</ele><time>2026-04-28T15:40:29.045Z</time></trkpt><trkpt lat="35.8805133" lon="-5.50782"><ele>25.666666666666668</ele><time>2026-04-28T15:40:31.045Z</time></trkpt><trkpt lat="35.8805667" lon="-5.5077483"><ele>27.333333333333336</ele><time>2026-04-28T15:40:33.045Z</time></trkpt><trkpt lat="35.8806417" lon="-5.5076817"><ele>29.0</ele><time>2026-04-28T15:40:35.045Z</time></trkpt><trkpt lat="35.8807167" lon="-5.5076317"><ele>30.666666666666668</ele><time>2026-04-28T15:40:37.045Z</time></trkpt><trkpt lat="35.8807883" lon="-5.5075833"><ele>32.333333333333336</ele><time>2026-04-28T15:40:39.045Z</time></trkpt><trkpt lat="35.8808633" lon="-5.5075517"><ele>34.0</ele><time>2026-04-28T15:40:41.044Z</time></trkpt><trkpt lat="35.880925" lon="-5.5075017"><ele>32.0</ele><time>2026-04-28T15:40:43.045Z</time></trkpt><trkpt lat="35.8809833" lon="-5.50745"><ele>30.0</ele><time>2026-04-28T15:40:45.044Z</time></trkpt><trkpt lat="35.8810617" lon="-5.5073983"><ele>28.0</ele><time>2026-04-28T15:40:47.045Z</time></trkpt><trkpt lat="35.8811583" lon="-5.5073583"><ele>26.0</ele><time>2026-04-28T15:40:49.045Z</time></trkpt><trkpt lat="35.8812533" lon="-5.5073217"><ele>24.0</ele><time>2026-04-28T15:40:51.045Z</time></trkpt><trkpt lat="35.8813483" lon="-5.5072567"><ele>24.0</ele><time>2026-04-28T15:40:53.045Z</time></trkpt><trkpt lat="35.8814367" lon="-5.5071883"><ele>24.0</ele><time>2026-04-28T15:40:55.045Z</time></trkpt><trkpt lat="35.8815133" lon="-5.5071267"><ele>24.0</ele><time>2026-04-28T15:40:57.045Z</time></trkpt><trkpt lat="35.8816017" lon="-5.5070833"><ele>24.0</ele><time>2026-04-28T15:40:59.045Z</time></trkpt><trkpt lat="35.8816717" lon="-5.5070567"><ele>24.0</ele><time>2026-04-28T15:41:01.044Z</time></trkpt><trkpt lat="35.8817583" lon="-5.5070133"><ele>24.166666666666668</ele><time>2026-04-28T15:41:04.045Z</time></trkpt><trkpt lat="35.8818267" lon="-5.5069733"><ele>24.333333333333336</ele><time>2026-04-28T15:41:07.045Z</time></trkpt><trkpt lat="35.881875" lon="-5.5069167"><ele>24.5</ele><time>2026-04-28T15:41:11.045Z</time></trkpt><trkpt lat="35.8818983" lon="-5.5067867"><ele>24.666666666666668</ele><time>2026-04-28T15:41:30.044Z</time></trkpt><trkpt lat="35.881975" lon="-5.5067767"><ele>24.833333333333336</ele><time>2026-04-28T15:44:40.044Z</time></trkpt><trkpt lat="35.8820567" lon="-5.5067167"><ele>25.0</ele><time>2026-04-28T15:44:43.044Z</time></trkpt><trkpt lat="35.88211" lon="-5.50667"><ele>25.000000000000004</ele><time>2026-04-28T15:44:45.044Z</time></trkpt><trkpt lat="35.8821683" lon="-5.50663"><ele>25.0</ele><time>2026-04-28T15:44:47.044Z</time></trkpt><trkpt lat="35.8822333" lon="-5.5066083"><ele>25.0</ele><time>2026-04-28T15:44:49.044Z</time></trkpt><trkpt lat="35.8823033" lon="-5.506595"><ele>25.0</ele><time>2026-04-28T15:44:51.043Z</time></trkpt><trkpt lat="35.8823767" lon="-5.506595"><ele>25.0</ele><time>2026-04-28T15:44:54.044Z</time></trkpt><trkpt lat="35.8824483" lon="-5.5065683"><ele>25.000000000000004</ele><time>2026-04-28T15:44:59.044Z</time></trkpt><trkpt lat="35.8824817" lon="-5.5064933"><ele>25.0</ele><time>2026-04-28T15:45:37.044Z</time></trkpt><trkpt lat="35.8824533" lon="-5.50642"><ele>25.000000000000004</ele><time>2026-04-28T15:45:40.044Z</time></trkpt><trkpt lat="35.8825217" lon="-5.5063767"><ele>25.0</ele><time>2026-04-28T15:48:40.044Z</time></trkpt><trkpt lat="35.8825733" lon="-5.50632"><ele>25.0</ele><time>2026-04-28T15:48:43.044Z</time></trkpt><trkpt lat="35.8826133" lon="-5.50625"><ele>25.0</ele><time>2026-04-28T15:48:47.044Z</time></trkpt><trkpt lat="35.8826633" lon="-5.5061283"><ele>25.000000000000004</ele><time>2026-04-28T15:51:38.043Z</time></trkpt><trkpt lat="35.8827283" lon="-5.5060917"><ele>25.0</ele><time>2026-04-28T15:51:40.043Z</time></trkpt><trkpt lat="35.8828067" lon="-5.506085"><ele>25.714285714285715</ele><time>2026-04-28T15:51:42.043Z</time></trkpt><trkpt lat="35.8828733" lon="-5.5061317"><ele>26.42857142857143</ele><time>2026-04-28T15:51:44.042Z</time></trkpt><trkpt lat="35.88293" lon="-5.5061817"><ele>27.142857142857146</ele><time>2026-04-28T15:51:46.043Z</time></trkpt><trkpt lat="35.8830117" lon="-5.5062"><ele>27.857142857142858</ele><time>2026-04-28T15:51:49.043Z</time></trkpt><trkpt lat="35.8830683" lon="-5.5061417"><ele>28.57142857142857</ele><time>2026-04-28T15:51:53.043Z</time></trkpt><trkpt lat="35.883115" lon="-5.5060867"><ele>29.28571428571429</ele><time>2026-04-28T15:51:57.043Z</time></trkpt><trkpt lat="35.883185" lon="-5.5060367"><ele>30.0</ele><time>2026-04-28T15:58:28.042Z</time></trkpt><trkpt lat="35.8832617" lon="-5.50601"><ele>30.0</ele><time>2026-04-28T15:58:31.042Z</time></trkpt><trkpt lat="35.883325" lon="-5.50596"><ele>30.0</ele><time>2026-04-28T15:58:35.042Z</time></trkpt><trkpt lat="35.8834133" lon="-5.50589"><ele>30.0</ele><time>2026-04-28T15:58:38.042Z</time></trkpt><trkpt lat="35.8834667" lon="-5.5058133"><ele>30.0</ele><time>2026-04-28T15:58:40.042Z</time></trkpt><trkpt lat="35.8834933" lon="-5.5057367"><ele>30.0</ele><time>2026-04-28T15:58:42.042Z</time></trkpt><trkpt lat="35.8834933" lon="-5.5056567"><ele>30.0</ele><time>2026-04-28T15:58:45.042Z</time></trkpt><trkpt lat="35.883465" lon="-5.5055817"><ele>23.0</ele><time>2026-04-28T15:58:48.042Z</time></trkpt><trkpt lat="35.8834217" lon="-5.5054517"><ele>30.0</ele><time>2026-04-28T16:00:08.042Z</time></trkpt><trkpt lat="35.8833867" lon="-5.5055817"><ele>30.0</ele><time>2026-04-28T16:06:26.041Z</time></trkpt></trkseg><trkseg><trkpt lat="35.8827414" lon="-5.5056361"><ele>30.0</ele><time>2026-04-28T17:27:55.161Z</time></trkpt><trkpt lat="35.8827512" lon="-5.5057144"><ele>30.0</ele><time>2026-04-28T17:28:10.138Z</time></trkpt><trkpt lat="35.8828067" lon="-5.5056517"><ele>30.0</ele><time>2026-04-28T17:28:59.098Z</time></trkpt><trkpt lat="35.8828717" lon="-5.5056133"><ele>30.0</ele><time>2026-04-28T17:29:03.097Z</time></trkpt><trkpt lat="35.8829283" lon="-5.50557"><ele>30.0</ele><time>2026-04-28T17:29:08.098Z</time></trkpt><trkpt lat="35.8829917" lon="-5.5055383"><ele>30.0</ele><time>2026-04-28T17:29:13.098Z</time></trkpt><trkpt lat="35.8830483" lon="-5.5055033"><ele>30.0</ele><time>2026-04-28T17:29:23.097Z</time></trkpt><trkpt lat="35.8831033" lon="-5.505445"><ele>30.5</ele><time>2026-04-28T17:35:16.097Z</time></trkpt><trkpt lat="35.883185" lon="-5.5054017"><ele>31.0</ele><time>2026-04-28T17:35:19.098Z</time></trkpt><trkpt lat="35.8832767" lon="-5.5053717"><ele>31.5</ele><time>2026-04-28T17:35:22.097Z</time></trkpt><trkpt lat="35.8833533" lon="-5.5053717"><ele>32.0</ele><time>2026-04-28T17:35:24.097Z</time></trkpt><trkpt lat="35.88344" lon="-5.5054017"><ele>32.5</ele><time>2026-04-28T17:35:26.098Z</time></trkpt><trkpt lat="35.8834983" lon="-5.5054567"><ele>33.0</ele><time>2026-04-28T17:35:28.097Z</time></trkpt><trkpt lat="35.883545" lon="-5.5055233"><ele>31.0</ele><time>2026-04-28T17:35:30.098Z</time></trkpt><trkpt lat="35.883595" lon="-5.5056033"><ele>28.999999999999996</ele><time>2026-04-28T17:35:32.097Z</time></trkpt><trkpt lat="35.8836583" lon="-5.5056683"><ele>27.0</ele><time>2026-04-28T17:35:34.098Z</time></trkpt><trkpt lat="35.8837517" lon="-5.50567"><ele>25.0</ele><time>2026-04-28T17:35:36.098Z</time></trkpt><trkpt lat="35.88388" lon="-5.5056417"><ele>23.0</ele><time>2026-04-28T17:35:38.097Z</time></trkpt><trkpt lat="35.883945" lon="-5.5056333"><ele>23.0</ele><time>2026-04-28T17:35:39.098Z</time></trkpt><trkpt lat="35.88406" lon="-5.5056233"><ele>23.0</ele><time>2026-04-28T17:35:41.097Z</time></trkpt><trkpt lat="35.8841733" lon="-5.50562"><ele>23.0</ele><time>2026-04-28T17:35:43.097Z</time></trkpt><trkpt lat="35.88427" lon="-5.5056767"><ele>23.0</ele><time>2026-04-28T17:35:45.098Z</time></trkpt><trkpt lat="35.8842783" lon="-5.505785"><ele>23.0</ele><time>2026-04-28T17:35:47.098Z</time></trkpt><trkpt lat="35.8841983" lon="-5.5058983"><ele>23.0</ele><time>2026-04-28T17:35:49.098Z</time></trkpt><trkpt lat="35.88414" lon="-5.50595"><ele>23.0</ele><time>2026-04-28T17:35:50.097Z</time></trkpt><trkpt lat="35.8840633" lon="-5.5060217"><ele>23.0</ele><time>2026-04-28T17:35:51.098Z</time></trkpt><trkpt lat="35.8839767" lon="-5.506085"><ele>23.0</ele><time>2026-04-28T17:35:52.097Z</time></trkpt><trkpt lat="35.8838883" lon="-5.506155"><ele>23.0</ele><time>2026-04-28T17:35:53.097Z</time></trkpt><trkpt lat="35.8838017" lon="-5.5062233"><ele>22.0</ele><time>2026-04-28T17:35:54.098Z</time></trkpt><trkpt lat="35.88372" lon="-5.506295"><ele>21.0</ele><time>2026-04-28T17:35:55.097Z</time></trkpt><trkpt lat="35.88364" lon="-5.50636"><ele>20.0</ele><time>2026-04-28T17:35:56.098Z</time></trkpt><trkpt lat="35.8835617" lon="-5.5064267"><ele>19.0</ele><time>2026-04-28T17:35:57.098Z</time></trkpt><trkpt lat="35.8834833" lon="-5.506495"><ele>18.0</ele><time>2026-04-28T17:35:58.097Z</time></trkpt><trkpt lat="35.883405" lon="-5.5065517"><ele>18.0</ele><time>2026-04-28T17:35:59.098Z</time></trkpt><trkpt lat="35.883325" lon="-5.506605"><ele>18.0</ele><time>2026-04-28T17:36:00.097Z</time></trkpt><trkpt lat="35.8832383" lon="-5.506655"><ele>18.0</ele><time>2026-04-28T17:36:01.097Z</time></trkpt><trkpt lat="35.88315" lon="-5.5067083"><ele>18.0</ele><time>2026-04-28T17:36:02.097Z</time></trkpt><trkpt lat="35.8830617" lon="-5.5067717"><ele>18.0</ele><time>2026-04-28T17:36:03.097Z</time></trkpt><trkpt lat="35.8829717" lon="-5.5068333"><ele>18.0</ele><time>2026-04-28T17:36:04.097Z</time></trkpt><trkpt lat="35.882885" lon="-5.506895"><ele>18.0</ele><time>2026-04-28T17:36:05.097Z</time></trkpt><trkpt lat="35.8827983" lon="-5.5069533"><ele>18.0</ele><time>2026-04-28T17:36:06.097Z</time></trkpt><trkpt lat="35.8827133" lon="-5.50701"><ele>18.0</ele><time>2026-04-28T17:36:07.097Z</time></trkpt><trkpt lat="35.8826333" lon="-5.5070683"><ele>18.0</ele><time>2026-04-28T17:36:08.098Z</time></trkpt><trkpt lat="35.8825483" lon="-5.5071233"><ele>16.6</ele><time>2026-04-28T17:36:09.097Z</time></trkpt><trkpt lat="35.8824633" lon="-5.5071817"><ele>15.200000000000001</ele><time>2026-04-28T17:36:10.097Z</time></trkpt><trkpt lat="35.8823733" lon="-5.5072417"><ele>13.8</ele><time>2026-04-28T17:36:11.097Z</time></trkpt><trkpt lat="35.88228" lon="-5.5073033"><ele>12.4</ele><time>2026-04-28T17:36:12.098Z</time></trkpt><trkpt lat="35.882185" lon="-5.5073583"><ele>11.0</ele><time>2026-04-28T17:36:13.097Z</time></trkpt><trkpt lat="35.88209" lon="-5.5074217"><ele>11.0</ele><time>2026-04-28T17:36:14.097Z</time></trkpt><trkpt lat="35.8819967" lon="-5.5074833"><ele>11.0</ele><time>2026-04-28T17:36:15.097Z</time></trkpt><trkpt lat="35.8819017" lon="-5.5075517"><ele>11.0</ele><time>2026-04-28T17:36:16.098Z</time></trkpt><trkpt lat="35.8818017" lon="-5.5076133"><ele>11.0</ele><time>2026-04-28T17:36:17.097Z</time></trkpt><trkpt lat="35.8817033" lon="-5.50767"><ele>11.0</ele><time>2026-04-28T17:36:18.097Z</time></trkpt><trkpt lat="35.8816067" lon="-5.5077367"><ele>11.4</ele><time>2026-04-28T17:36:19.098Z</time></trkpt><trkpt lat="35.88151" lon="-5.5077967"><ele>11.8</ele><time>2026-04-28T17:36:20.098Z</time></trkpt><trkpt lat="35.8814167" lon="-5.50785"><ele>12.200000000000001</ele><time>2026-04-28T17:36:21.098Z</time></trkpt><trkpt lat="35.8813133" lon="-5.5079167"><ele>12.600000000000001</ele><time>2026-04-28T17:36:22.098Z</time></trkpt><trkpt lat="35.88121" lon="-5.5079817"><ele>13.0</ele><time>2026-04-28T17:36:23.098Z</time></trkpt><trkpt lat="35.8811083" lon="-5.50805"><ele>13.0</ele><time>2026-04-28T17:36:24.098Z</time></trkpt><trkpt lat="35.8810133" lon="-5.5081183"><ele>13.0</ele><time>2026-04-28T17:36:25.097Z</time></trkpt><trkpt lat="35.8809167" lon="-5.5081767"><ele>13.0</ele><time>2026-04-28T17:36:26.097Z</time></trkpt><trkpt lat="35.8808283" lon="-5.50823"><ele>13.0</ele><time>2026-04-28T17:36:27.097Z</time></trkpt><trkpt lat="35.88075" lon="-5.5082833"><ele>13.0</ele><time>2026-04-28T17:36:28.097Z</time></trkpt><trkpt lat="35.88067" lon="-5.5083367"><ele>15.2</ele><time>2026-04-28T17:36:29.098Z</time></trkpt><trkpt lat="35.88058" lon="-5.50839"><ele>17.4</ele><time>2026-04-28T17:36:30.097Z</time></trkpt><trkpt lat="35.8804917" lon="-5.5084517"><ele>19.599999999999998</ele><time>2026-04-28T17:36:31.097Z</time></trkpt><trkpt lat="35.8804" lon="-5.508515"><ele>21.8</ele><time>2026-04-28T17:36:32.098Z</time></trkpt><trkpt lat="35.8803" lon="-5.50858"><ele>24.0</ele><time>2026-04-28T17:36:33.097Z</time></trkpt><trkpt lat="35.8802" lon="-5.5086467"><ele>24.0</ele><time>2026-04-28T17:36:34.097Z</time></trkpt><trkpt lat="35.8801017" lon="-5.5087267"><ele>24.0</ele><time>2026-04-28T17:36:35.097Z</time></trkpt><trkpt lat="35.8800033" lon="-5.5088017"><ele>24.0</ele><time>2026-04-28T17:36:36.098Z</time></trkpt><trkpt lat="35.879905" lon="-5.5088717"><ele>24.0</ele><time>2026-04-28T17:36:37.097Z</time></trkpt><trkpt lat="35.8798033" lon="-5.508945"><ele>22.75</ele><time>2026-04-28T17:36:38.097Z</time></trkpt><trkpt lat="35.8797067" lon="-5.5090183"><ele>21.5</ele><time>2026-04-28T17:36:39.097Z</time></trkpt><trkpt lat="35.8796017" lon="-5.5090933"><ele>20.25</ele><time>2026-04-28T17:36:40.097Z</time></trkpt><trkpt lat="35.8794933" lon="-5.50916"><ele>19.0</ele><time>2026-04-28T17:36:41.098Z</time></trkpt><trkpt lat="35.87939" lon="-5.509235"><ele>19.0</ele><time>2026-04-28T17:36:42.097Z</time></trkpt><trkpt lat="35.8792867" lon="-5.5093017"><ele>19.0</ele><time>2026-04-28T17:36:43.097Z</time></trkpt><trkpt lat="35.87919" lon="-5.509365"><ele>19.0</ele><time>2026-04-28T17:36:44.097Z</time></trkpt><trkpt lat="35.879095" lon="-5.5094283"><ele>19.0</ele><time>2026-04-28T17:36:45.097Z</time></trkpt><trkpt lat="35.879005" lon="-5.5094883"><ele>19.0</ele><time>2026-04-28T17:36:46.098Z</time></trkpt><trkpt lat="35.8789217" lon="-5.509545"><ele>18.166666666666664</ele><time>2026-04-28T17:36:47.097Z</time></trkpt><trkpt lat="35.8788483" lon="-5.5095967"><ele>17.333333333333332</ele><time>2026-04-28T17:36:48.098Z</time></trkpt><trkpt lat="35.878785" lon="-5.509645"><ele>16.5</ele><time>2026-04-28T17:36:49.097Z</time></trkpt><trkpt lat="35.8787217" lon="-5.509685"><ele>15.666666666666668</ele><time>2026-04-28T17:36:50.097Z</time></trkpt><trkpt lat="35.878655" lon="-5.50973"><ele>14.833333333333334</ele><time>2026-04-28T17:36:51.098Z</time></trkpt><trkpt lat="35.8785833" lon="-5.5097867"><ele>14.0</ele><time>2026-04-28T17:36:52.098Z</time></trkpt><trkpt lat="35.8785033" lon="-5.50985"><ele>16.799999999999997</ele><time>2026-04-28T17:36:53.097Z</time></trkpt><trkpt lat="35.87842" lon="-5.50992"><ele>19.599999999999998</ele><time>2026-04-28T17:36:54.098Z</time></trkpt><trkpt lat="35.8783417" lon="-5.50999"><ele>22.4</ele><time>2026-04-28T17:36:55.098Z</time></trkpt><trkpt lat="35.8782583" lon="-5.5100533"><ele>25.2</ele><time>2026-04-28T17:36:56.098Z</time></trkpt><trkpt lat="35.8781817" lon="-5.5101183"><ele>28.0</ele><time>2026-04-28T17:36:57.098Z</time></trkpt><trkpt lat="35.8781133" lon="-5.5101867"><ele>28.0</ele><time>2026-04-28T17:36:58.097Z</time></trkpt><trkpt lat="35.87806" lon="-5.5102617"><ele>27.999999999999996</ele><time>2026-04-28T17:36:59.097Z</time></trkpt><trkpt lat="35.87803" lon="-5.510335"><ele>27.999999999999996</ele><time>2026-04-28T17:37:00.097Z</time></trkpt><trkpt lat="35.8780583" lon="-5.5104783"><ele>28.0</ele><time>2026-04-28T17:37:02.097Z</time></trkpt><trkpt lat="35.8781267" lon="-5.5106067"><ele>28.0</ele><time>2026-04-28T17:37:04.097Z</time></trkpt><trkpt lat="35.8781733" lon="-5.5106683"><ele>25.0</ele><time>2026-04-28T17:37:05.097Z</time></trkpt><trkpt lat="35.878235" lon="-5.51073"><ele>21.999999999999996</ele><time>2026-04-28T17:37:06.097Z</time></trkpt><trkpt lat="35.8782667" lon="-5.510815"><ele>19.0</ele><time>2026-04-28T17:37:07.097Z</time></trkpt><trkpt lat="35.8783233" lon="-5.51093"><ele>16.0</ele><time>2026-04-28T17:37:08.097Z</time></trkpt><trkpt lat="35.8783883" lon="-5.5110667"><ele>13.0</ele><time>2026-04-28T17:37:09.097Z</time></trkpt><trkpt lat="35.87844" lon="-5.51121"><ele>10.0</ele><time>2026-04-28T17:37:10.097Z</time></trkpt><trkpt lat="35.878475" lon="-5.5113517"><ele>7.0</ele><time>2026-04-28T17:37:11.098Z</time></trkpt><trkpt lat="35.8785033" lon="-5.51149"><ele>4.0</ele><time>2026-04-28T17:37:12.098Z</time></trkpt><trkpt lat="35.8785317" lon="-5.5116317"><ele>1.0</ele><time>2026-04-28T17:37:13.098Z</time></trkpt><trkpt lat="35.8786017" lon="-5.5117633"><ele>1.0</ele><time>2026-04-28T17:37:14.097Z</time></trkpt><trkpt lat="35.8786633" lon="-5.5118883"><ele>1.0</ele><time>2026-04-28T17:37:15.097Z</time></trkpt><trkpt lat="35.8787317" lon="-5.5120017"><ele>1.0</ele><time>2026-04-28T17:37:16.097Z</time></trkpt><trkpt lat="35.878815" lon="-5.51211"><ele>1.0</ele><time>2026-04-28T17:37:17.097Z</time></trkpt><trkpt lat="35.8788833" lon="-5.5122167"><ele>0.75</ele><time>2026-04-28T17:37:18.097Z</time></trkpt><trkpt lat="35.87896" lon="-5.5123283"><ele>0.5</ele><time>2026-04-28T17:37:19.098Z</time></trkpt><trkpt lat="35.8790433" lon="-5.5124517"><ele>0.25</ele><time>2026-04-28T17:37:20.098Z</time></trkpt><trkpt lat="35.8791133" lon="-5.5125683"><ele>0.0</ele><time>2026-04-28T17:37:21.098Z</time></trkpt><trkpt lat="35.8791667" lon="-5.5126667"><ele>0.0</ele><time>2026-04-28T17:37:22.098Z</time></trkpt><trkpt lat="35.8792083" lon="-5.5127533"><ele>0.0</ele><time>2026-04-28T17:37:23.097Z</time></trkpt><trkpt lat="35.8792417" lon="-5.5128233"><ele>0.0</ele><time>2026-04-28T17:37:24.098Z</time></trkpt><trkpt lat="35.8792883" lon="-5.51292"><ele>0.0</ele><time>2026-04-28T17:37:26.097Z</time></trkpt><trkpt lat="35.8793633" lon="-5.5129783"><ele>0.0</ele><time>2026-04-28T17:37:28.097Z</time></trkpt><trkpt lat="35.8794583" lon="-5.513005"><ele>0.0</ele><time>2026-04-28T17:37:30.098Z</time></trkpt><trkpt lat="35.8795583" lon="-5.5129867"><ele>0.0</ele><time>2026-04-28T17:37:32.098Z</time></trkpt><trkpt lat="35.8796683" lon="-5.5129433"><ele>0.0</ele><time>2026-04-28T17:37:34.098Z</time></trkpt><trkpt lat="35.8797717" lon="-5.5129017"><ele>0.0</ele><time>2026-04-28T17:37:36.097Z</time></trkpt><trkpt lat="35.879845" lon="-5.51289"><ele>0.0</ele><time>2026-04-28T17:37:38.097Z</time></trkpt><trkpt lat="35.8799167" lon="-5.5129583"><ele>0.0</ele><time>2026-04-28T17:37:41.097Z</time></trkpt><trkpt lat="35.879925" lon="-5.513065"><ele>0.0</ele><time>2026-04-28T17:37:43.097Z</time></trkpt><trkpt lat="35.87992" lon="-5.513185"><ele>0.0</ele><time>2026-04-28T17:37:45.098Z</time></trkpt><trkpt lat="35.879955" lon="-5.513325"><ele>0.0</ele><time>2026-04-28T17:37:48.098Z</time></trkpt><trkpt lat="35.8799733" lon="-5.513405"><ele>0.0</ele><time>2026-04-28T17:37:50.098Z</time></trkpt><trkpt lat="35.8799767" lon="-5.513495"><ele>0.0</ele><time>2026-04-28T17:37:53.097Z</time></trkpt><trkpt lat="35.8799067" lon="-5.5134533"><ele>0.0</ele><time>2026-04-28T17:38:02.097Z</time></trkpt><trkpt lat="35.8798883" lon="-5.5133117"><ele>0.0</ele><time>2026-04-28T17:38:04.097Z</time></trkpt><trkpt lat="35.8798717" lon="-5.51318"><ele>0.0</ele><time>2026-04-28T17:38:06.098Z</time></trkpt><trkpt lat="35.8798533" lon="-5.51304"><ele>0.0</ele><time>2026-04-28T17:38:09.098Z</time></trkpt><trkpt lat="35.87986" lon="-5.5129533"><ele>0.0</ele><time>2026-04-28T17:38:12.098Z</time></trkpt><trkpt lat="35.8799133" lon="-5.51289"><ele>0.0</ele><time>2026-04-28T17:38:15.097Z</time></trkpt><trkpt lat="35.8799867" lon="-5.51284"><ele>0.0</ele><time>2026-04-28T17:38:18.098Z</time></trkpt><trkpt lat="35.88006" lon="-5.5128233"><ele>0.0</ele><time>2026-04-28T17:38:20.098Z</time></trkpt><trkpt lat="35.8801517" lon="-5.5127983"><ele>0.0</ele><time>2026-04-28T17:38:22.097Z</time></trkpt><trkpt lat="35.8802417" lon="-5.512775"><ele>0.0</ele><time>2026-04-28T17:38:24.097Z</time></trkpt><trkpt lat="35.8803183" lon="-5.5127517"><ele>0.0</ele><time>2026-04-28T17:38:26.097Z</time></trkpt><trkpt lat="35.8804167" lon="-5.5127217"><ele>0.0</ele><time>2026-04-28T17:38:28.097Z</time></trkpt><trkpt lat="35.88052" lon="-5.5126717"><ele>0.0</ele><time>2026-04-28T17:38:30.098Z</time></trkpt><trkpt lat="35.8806183" lon="-5.5126317"><ele>0.0</ele><time>2026-04-28T17:38:32.097Z</time></trkpt><trkpt lat="35.8807217" lon="-5.5125817"><ele>0.0</ele><time>2026-04-28T17:38:34.097Z</time></trkpt><trkpt lat="35.880825" lon="-5.512565"><ele>0.0</ele><time>2026-04-28T17:38:36.097Z</time></trkpt><trkpt lat="35.8809217" lon="-5.512595"><ele>0.0</ele><time>2026-04-28T17:38:38.097Z</time></trkpt><trkpt lat="35.8809917" lon="-5.5126317"><ele>0.0</ele><time>2026-04-28T17:38:40.098Z</time></trkpt><trkpt lat="35.8810667" lon="-5.5126583"><ele>0.0</ele><time>2026-04-28T17:38:43.097Z</time></trkpt><trkpt lat="35.88117" lon="-5.5126833"><ele>0.0</ele><time>2026-04-28T17:39:31.098Z</time></trkpt><trkpt lat="35.8812933" lon="-5.51269"><ele>0.0</ele><time>2026-04-28T17:39:33.097Z</time></trkpt><trkpt lat="35.8813667" lon="-5.51269"><ele>0.0</ele><time>2026-04-28T17:39:34.098Z</time></trkpt><trkpt lat="35.8814517" lon="-5.5127017"><ele>0.0</ele><time>2026-04-28T17:39:35.097Z</time></trkpt><trkpt lat="35.8815383" lon="-5.5127133"><ele>0.0</ele><time>2026-04-28T17:39:36.097Z</time></trkpt><trkpt lat="35.8816217" lon="-5.5127283"><ele>0.0</ele><time>2026-04-28T17:39:37.097Z</time></trkpt><trkpt lat="35.8817" lon="-5.5127467"><ele>0.0</ele><time>2026-04-28T17:39:38.098Z</time></trkpt><trkpt lat="35.8817783" lon="-5.5127667"><ele>0.0</ele><time>2026-04-28T17:39:39.097Z</time></trkpt><trkpt lat="35.88184" lon="-5.512805"><ele>0.0</ele><time>2026-04-28T17:39:40.098Z</time></trkpt><trkpt lat="35.8818933" lon="-5.5128583"><ele>0.0</ele><time>2026-04-28T17:39:41.098Z</time></trkpt><trkpt lat="35.8819633" lon="-5.5129733"><ele>0.0</ele><time>2026-04-28T17:39:43.097Z</time></trkpt><trkpt lat="35.8819783" lon="-5.5131"><ele>0.0</ele><time>2026-04-28T17:39:46.098Z</time></trkpt><trkpt lat="35.8819683" lon="-5.5132133"><ele>0.0</ele><time>2026-04-28T17:39:49.097Z</time></trkpt><trkpt lat="35.8819617" lon="-5.5133233"><ele>0.0</ele><time>2026-04-28T17:39:51.098Z</time></trkpt><trkpt lat="35.881955" lon="-5.51344"><ele>0.0</ele><time>2026-04-28T17:39:53.098Z</time></trkpt><trkpt lat="35.8819467" lon="-5.5135483"><ele>0.0</ele><time>2026-04-28T17:39:55.098Z</time></trkpt><trkpt lat="35.8819417" lon="-5.513645"><ele>0.0</ele><time>2026-04-28T17:39:57.097Z</time></trkpt><trkpt lat="35.8819333" lon="-5.5137417"><ele>0.0</ele><time>2026-04-28T17:39:59.098Z</time></trkpt><trkpt lat="35.8819233" lon="-5.5138333"><ele>0.0</ele><time>2026-04-28T17:40:01.098Z</time></trkpt><trkpt lat="35.8819117" lon="-5.51392"><ele>0.0</ele><time>2026-04-28T17:40:03.097Z</time></trkpt><trkpt lat="35.881905" lon="-5.51401"><ele>0.0</ele><time>2026-04-28T17:40:05.097Z</time></trkpt><trkpt lat="35.8818917" lon="-5.5141067"><ele>0.0</ele><time>2026-04-28T17:40:08.098Z</time></trkpt><trkpt lat="35.8818617" lon="-5.5142083"><ele>0.0</ele><time>2026-04-28T17:40:38.098Z</time></trkpt><trkpt lat="35.8818083" lon="-5.5143333"><ele>0.0</ele><time>2026-04-28T17:44:18.098Z</time></trkpt><trkpt lat="35.8818333" lon="-5.5144617"><ele>0.0</ele><time>2026-04-28T17:46:46.097Z</time></trkpt><trkpt lat="35.8817967" lon="-5.5145333"><ele>0.0</ele><time>2026-04-28T17:46:51.097Z</time></trkpt><trkpt lat="35.8817583" lon="-5.5145967"><ele>0.0</ele><time>2026-04-28T17:47:34.098Z</time></trkpt><trkpt lat="35.8817667" lon="-5.5147017"><ele>0.0</ele><time>2026-04-28T17:47:36.097Z</time></trkpt><trkpt lat="35.8817917" lon="-5.5147883"><ele>0.0</ele><time>2026-04-28T17:47:38.098Z</time></trkpt><trkpt lat="35.8818017" lon="-5.5148817"><ele>0.0</ele><time>2026-04-28T17:47:42.097Z</time></trkpt><trkpt lat="35.8818033" lon="-5.5149983"><ele>0.0</ele><time>2026-04-28T17:47:45.096Z</time></trkpt><trkpt lat="35.88181" lon="-5.515085"><ele>0.0</ele><time>2026-04-28T17:47:48.096Z</time></trkpt><trkpt lat="35.8818717" lon="-5.5151167"><ele>0.0</ele><time>2026-04-28T17:48:02.096Z</time></trkpt><trkpt lat="35.8820095" lon="-5.5139389"><ele>0.0</ele><time>2026-04-28T17:53:54.343Z</time></trkpt><trkpt lat="35.8807147" lon="-5.5140224"><ele>0.0</ele><time>2026-04-28T17:54:58.454Z</time></trkpt><trkpt lat="35.8799767" lon="-5.5140947"><ele>0.0</ele><time>2026-04-28T17:55:04.1Z</time></trkpt><trkpt lat="35.8795728" lon="-5.514136"><ele>0.0</ele><time>2026-04-28T17:55:09.915Z</time></trkpt><trkpt lat="35.881915" lon="-5.51511"><ele>0.0</ele><time>2026-04-28T17:55:51.101Z</time></trkpt><trkpt lat="35.8819063" lon="-5.5150267"><ele>0.0</ele><time>2026-04-28T17:56:12.106Z</time></trkpt><trkpt lat="35.8820035" lon="-5.5149472"><ele>0.0</ele><time>2026-04-28T17:56:14.116Z</time></trkpt><trkpt lat="35.881837" lon="-5.5150096"><ele>0.0</ele><time>2026-04-28T17:56:36.128Z</time></trkpt><trkpt lat="35.8817748" lon="-5.5150386"><ele>0.0</ele><time>2026-04-28T17:56:38.145Z</time></trkpt><trkpt lat="35.8817169" lon="-5.5150862"><ele>0.0</ele><time>2026-04-28T17:56:47.19Z</time></trkpt><trkpt lat="35.8814913" lon="-5.5152798"><ele>0.0</ele><time>2026-04-28T17:57:40.103Z</time></trkpt><trkpt lat="35.8817726" lon="-5.5153688"><ele>0.0</ele><time>2026-04-28T17:57:41.102Z</time></trkpt><trkpt lat="35.8816925" lon="-5.515426"><ele>0.0</ele><time>2026-04-28T17:58:59.107Z</time></trkpt><trkpt lat="35.8817501" lon="-5.5153946"><ele>0.0</ele><time>2026-04-28T18:10:33.188Z</time></trkpt><trkpt lat="35.8816841" lon="-5.5154162"><ele>0.0</ele><time>2026-04-28T18:20:08.091Z</time></trkpt><trkpt lat="35.881598" lon="-5.5154303"><ele>0.0</ele><time>2026-04-28T18:21:05.191Z</time></trkpt><trkpt lat="35.8815024" lon="-5.5154452"><ele>0.0</ele><time>2026-04-28T18:22:11.138Z</time></trkpt></trkseg><trkseg><trkpt lat="36.2788059" lon="-2.9399138"><ele>0.0</ele><time>2026-04-29T06:46:35.098Z</time></trkpt><trkpt lat="36.2788717" lon="-2.9394328"><ele>0.0</ele><time>2026-04-29T06:46:37.098Z</time></trkpt><trkpt lat="36.2788799" lon="-2.9393226"><ele>0.0</ele><time>2026-04-29T06:46:38.098Z</time></trkpt><trkpt lat="36.2788797" lon="-2.9392177"><ele>0.0</ele><time>2026-04-29T06:46:39.098Z</time></trkpt><trkpt lat="36.2789017" lon="-2.9391126"><ele>0.0</ele><time>2026-04-29T06:46:40.099Z</time></trkpt><trkpt lat="36.2789268" lon="-2.9390071"><ele>0.0</ele><time>2026-04-29T06:46:41.098Z</time></trkpt><trkpt lat="36.2789604" lon="-2.9389061"><ele>0.0</ele><time>2026-04-29T06:46:42.099Z</time></trkpt><trkpt lat="36.2789852" lon="-2.9388031"><ele>0.0</ele><time>2026-04-29T06:46:43.099Z</time></trkpt><trkpt lat="36.2790185" lon="-2.9386971"><ele>0.0</ele><time>2026-04-29T06:46:44.098Z</time></trkpt><trkpt lat="36.2790154" lon="-2.9385888"><ele>0.0</ele><time>2026-04-29T06:46:45.098Z</time></trkpt><trkpt lat="36.2790346" lon="-2.9384763"><ele>0.0</ele><time>2026-04-29T06:46:46.098Z</time></trkpt><trkpt lat="36.2790616" lon="-2.9383657"><ele>0.0</ele><time>2026-04-29T06:46:47.098Z</time></trkpt><trkpt lat="36.2790815" lon="-2.9382573"><ele>0.0</ele><time>2026-04-29T06:46:48.098Z</time></trkpt><trkpt lat="36.2791155" lon="-2.938146"><ele>0.0</ele><time>2026-04-29T06:46:49.099Z</time></trkpt><trkpt lat="36.2791475" lon="-2.9380371"><ele>0.0</ele><time>2026-04-29T06:46:50.098Z</time></trkpt><trkpt lat="36.2791694" lon="-2.9379342"><ele>0.0</ele><time>2026-04-29T06:46:51.098Z</time></trkpt><trkpt lat="36.2791879" lon="-2.9378314"><ele>0.0</ele><time>2026-04-29T06:46:52.099Z</time></trkpt><trkpt lat="36.2792062" lon="-2.9377254"><ele>0.0</ele><time>2026-04-29T06:46:53.098Z</time></trkpt><trkpt lat="36.2792178" lon="-2.9376189"><ele>0.0</ele><time>2026-04-29T06:46:54.098Z</time></trkpt><trkpt lat="36.2792211" lon="-2.9375124"><ele>0.0</ele><time>2026-04-29T06:46:55.098Z</time></trkpt><trkpt lat="36.2791952" lon="-2.9374042"><ele>0.0</ele><time>2026-04-29T06:46:56.099Z</time></trkpt><trkpt lat="36.2792255" lon="-2.937195"><ele>0.0</ele><time>2026-04-29T06:46:58.099Z</time></trkpt><trkpt lat="36.2792464" lon="-2.9370942"><ele>0.0</ele><time>2026-04-29T06:46:59.099Z</time></trkpt><trkpt lat="36.279264" lon="-2.9369916"><ele>0.0</ele><time>2026-04-29T06:47:00.098Z</time></trkpt><trkpt lat="36.2792879" lon="-2.9368858"><ele>0.0</ele><time>2026-04-29T06:47:01.098Z</time></trkpt><trkpt lat="36.2793186" lon="-2.9367818"><ele>0.0</ele><time>2026-04-29T06:47:02.098Z</time></trkpt><trkpt lat="36.2793499" lon="-2.9366782"><ele>0.0</ele><time>2026-04-29T06:47:03.098Z</time></trkpt><trkpt lat="36.279369" lon="-2.9365776"><ele>0.0</ele><time>2026-04-29T06:47:04.098Z</time></trkpt><trkpt lat="36.2793985" lon="-2.9364751"><ele>0.0</ele><time>2026-04-29T06:47:05.099Z</time></trkpt><trkpt lat="36.2794285" lon="-2.9363775"><ele>0.0</ele><time>2026-04-29T06:47:06.099Z</time></trkpt><trkpt lat="36.2794585" lon="-2.9362891"><ele>0.0</ele><time>2026-04-29T06:47:07.099Z</time></trkpt><trkpt lat="36.2794885" lon="-2.9361938"><ele>0.0</ele><time>2026-04-29T06:47:08.098Z</time></trkpt><trkpt lat="36.2795143" lon="-2.9360945"><ele>0.0</ele><time>2026-04-29T06:47:09.098Z</time></trkpt><trkpt lat="36.2795449" lon="-2.9359904"><ele>0.0</ele><time>2026-04-29T06:47:10.098Z</time></trkpt><trkpt lat="36.2795823" lon="-2.935884"><ele>0.0</ele><time>2026-04-29T06:47:11.099Z</time></trkpt><trkpt lat="36.2796205" lon="-2.9357786"><ele>0.0</ele><time>2026-04-29T06:47:12.098Z</time></trkpt><trkpt lat="36.2796559" lon="-2.9356754"><ele>0.0</ele><time>2026-04-29T06:47:13.099Z</time></trkpt><trkpt lat="36.2796767" lon="-2.9355691"><ele>0.0</ele><time>2026-04-29T06:47:14.098Z</time></trkpt><trkpt lat="36.2797008" lon="-2.935461"><ele>0.0</ele><time>2026-04-29T06:47:15.098Z</time></trkpt><trkpt lat="36.2797142" lon="-2.935358"><ele>0.0</ele><time>2026-04-29T06:47:16.098Z</time></trkpt><trkpt lat="36.2797334" lon="-2.9352575"><ele>0.0</ele><time>2026-04-29T06:47:17.099Z</time></trkpt><trkpt lat="36.279777" lon="-2.9350636"><ele>0.0</ele><time>2026-04-29T06:47:19.098Z</time></trkpt><trkpt lat="36.2797937" lon="-2.9349674"><ele>0.0</ele><time>2026-04-29T06:47:20.099Z</time></trkpt><trkpt lat="36.2798191" lon="-2.9348723"><ele>0.0</ele><time>2026-04-29T06:47:21.099Z</time></trkpt><trkpt lat="36.2798428" lon="-2.9347685"><ele>0.0</ele><time>2026-04-29T06:47:22.099Z</time></trkpt><trkpt lat="36.2798694" lon="-2.934665"><ele>0.0</ele><time>2026-04-29T06:47:23.098Z</time></trkpt><trkpt lat="36.2798957" lon="-2.9345599"><ele>0.0</ele><time>2026-04-29T06:47:24.099Z</time></trkpt><trkpt lat="36.2799155" lon="-2.934465"><ele>0.0</ele><time>2026-04-29T06:47:25.098Z</time></trkpt><trkpt lat="36.2799369" lon="-2.9343678"><ele>0.0</ele><time>2026-04-29T06:47:26.099Z</time></trkpt><trkpt lat="36.2799641" lon="-2.9342722"><ele>0.0</ele><time>2026-04-29T06:47:27.099Z</time></trkpt><trkpt lat="36.2800021" lon="-2.934166"><ele>0.0</ele><time>2026-04-29T06:47:28.099Z</time></trkpt><trkpt lat="36.2800321" lon="-2.9340558"><ele>0.0</ele><time>2026-04-29T06:47:29.098Z</time></trkpt><trkpt lat="36.2800535" lon="-2.9339457"><ele>0.0</ele><time>2026-04-29T06:47:30.098Z</time></trkpt><trkpt lat="36.2800707" lon="-2.9338373"><ele>0.0</ele><time>2026-04-29T06:47:31.098Z</time></trkpt><trkpt lat="36.2800877" lon="-2.9337304"><ele>0.0</ele><time>2026-04-29T06:47:32.098Z</time></trkpt><trkpt lat="36.2801072" lon="-2.9336268"><ele>0.0</ele><time>2026-04-29T06:47:33.099Z</time></trkpt><trkpt lat="36.2801327" lon="-2.933522"><ele>0.0</ele><time>2026-04-29T06:47:34.099Z</time></trkpt><trkpt lat="36.2801623" lon="-2.9334199"><ele>0.0</ele><time>2026-04-29T06:47:35.098Z</time></trkpt><trkpt lat="36.2801867" lon="-2.9333141"><ele>0.0</ele><time>2026-04-29T06:47:36.099Z</time></trkpt><trkpt lat="36.2802184" lon="-2.933213"><ele>0.0</ele><time>2026-04-29T06:47:37.098Z</time></trkpt><trkpt lat="36.2802474" lon="-2.9331156"><ele>0.0</ele><time>2026-04-29T06:47:38.098Z</time></trkpt><trkpt lat="36.2802847" lon="-2.9329178"><ele>0.0</ele><time>2026-04-29T06:47:40.099Z</time></trkpt><trkpt lat="36.2803153" lon="-2.9328136"><ele>0.0</ele><time>2026-04-29T06:47:41.098Z</time></trkpt><trkpt lat="36.2803402" lon="-2.9327161"><ele>0.0</ele><time>2026-04-29T06:47:42.099Z</time></trkpt><trkpt lat="36.2803593" lon="-2.932618"><ele>0.0</ele><time>2026-04-29T06:47:43.099Z</time></trkpt><trkpt lat="36.2803873" lon="-2.932518"><ele>0.0</ele><time>2026-04-29T06:47:44.098Z</time></trkpt><trkpt lat="36.2804113" lon="-2.9324238"><ele>0.0</ele><time>2026-04-29T06:47:45.098Z</time></trkpt><trkpt lat="36.2804348" lon="-2.9323222"><ele>0.0</ele><time>2026-04-29T06:47:46.099Z</time></trkpt><trkpt lat="36.2804581" lon="-2.9322186"><ele>0.0</ele><time>2026-04-29T06:47:47.098Z</time></trkpt><trkpt lat="36.2804742" lon="-2.9321178"><ele>0.0</ele><time>2026-04-29T06:47:48.098Z</time></trkpt><trkpt lat="36.2804933" lon="-2.9320137"><ele>0.0</ele><time>2026-04-29T06:47:49.098Z</time></trkpt><trkpt lat="36.2805077" lon="-2.9319119"><ele>0.0</ele><time>2026-04-29T06:47:50.098Z</time></trkpt><trkpt lat="36.280524" lon="-2.9318044"><ele>0.0</ele><time>2026-04-29T06:47:51.099Z</time></trkpt><trkpt lat="36.2805419" lon="-2.931696"><ele>0.0</ele><time>2026-04-29T06:47:52.099Z</time></trkpt><trkpt lat="36.2805545" lon="-2.9315886"><ele>0.0</ele><time>2026-04-29T06:47:53.099Z</time></trkpt><trkpt lat="36.2805662" lon="-2.9314846"><ele>0.0</ele><time>2026-04-29T06:47:54.098Z</time></trkpt><trkpt lat="36.2805764" lon="-2.9313814"><ele>0.0</ele><time>2026-04-29T06:47:55.098Z</time></trkpt><trkpt lat="36.2805991" lon="-2.9312856"><ele>0.0</ele><time>2026-04-29T06:47:56.099Z</time></trkpt><trkpt lat="36.2806166" lon="-2.9311837"><ele>0.0</ele><time>2026-04-29T06:47:57.098Z</time></trkpt><trkpt lat="36.2806348" lon="-2.9310863"><ele>0.0</ele><time>2026-04-29T06:47:58.098Z</time></trkpt><trkpt lat="36.2806479" lon="-2.9309939"><ele>0.0</ele><time>2026-04-29T06:47:59.098Z</time></trkpt><trkpt lat="36.2806819" lon="-2.9307873"><ele>0.0</ele><time>2026-04-29T06:48:01.098Z</time></trkpt><trkpt lat="36.2806976" lon="-2.930689"><ele>0.0</ele><time>2026-04-29T06:48:02.099Z</time></trkpt><trkpt lat="36.2807123" lon="-2.9305892"><ele>0.0</ele><time>2026-04-29T06:48:03.099Z</time></trkpt><trkpt lat="36.2807302" lon="-2.9304864"><ele>0.0</ele><time>2026-04-29T06:48:04.099Z</time></trkpt><trkpt lat="36.2807514" lon="-2.9303832"><ele>0.0</ele><time>2026-04-29T06:48:05.098Z</time></trkpt><trkpt lat="36.2807788" lon="-2.9302744"><ele>0.0</ele><time>2026-04-29T06:48:06.099Z</time></trkpt><trkpt lat="36.2807983" lon="-2.9301743"><ele>0.0</ele><time>2026-04-29T06:48:07.098Z</time></trkpt><trkpt lat="36.2808126" lon="-2.9300758"><ele>0.0</ele><time>2026-04-29T06:48:08.099Z</time></trkpt><trkpt lat="36.2808288" lon="-2.9299775"><ele>0.0</ele><time>2026-04-29T06:48:09.098Z</time></trkpt><trkpt lat="36.2808539" lon="-2.9298723"><ele>0.0</ele><time>2026-04-29T06:48:10.099Z</time></trkpt><trkpt lat="36.2808732" lon="-2.9297686"><ele>0.0</ele><time>2026-04-29T06:48:11.098Z</time></trkpt><trkpt lat="36.280903" lon="-2.9296593"><ele>0.0</ele><time>2026-04-29T06:48:12.098Z</time></trkpt><trkpt lat="36.2809287" lon="-2.9295451"><ele>0.0</ele><time>2026-04-29T06:48:13.098Z</time></trkpt><trkpt lat="36.2809512" lon="-2.9294414"><ele>0.0</ele><time>2026-04-29T06:48:14.098Z</time></trkpt><trkpt lat="36.2809717" lon="-2.9293441"><ele>0.0</ele><time>2026-04-29T06:48:15.098Z</time></trkpt><trkpt lat="36.2809941" lon="-2.9292449"><ele>0.0</ele><time>2026-04-29T06:48:16.098Z</time></trkpt><trkpt lat="36.2810132" lon="-2.9291465"><ele>0.0</ele><time>2026-04-29T06:48:17.098Z</time></trkpt><trkpt lat="36.2810373" lon="-2.9290467"><ele>0.0</ele><time>2026-04-29T06:48:18.099Z</time></trkpt><trkpt lat="36.2810637" lon="-2.928945"><ele>0.0</ele><time>2026-04-29T06:48:19.098Z</time></trkpt><trkpt lat="36.2810524" lon="-2.9288501"><ele>0.0</ele><time>2026-04-29T06:48:20.098Z</time></trkpt><trkpt lat="36.2810391" lon="-2.9286746"><ele>0.0</ele><time>2026-04-29T06:48:22.098Z</time></trkpt><trkpt lat="36.2810427" lon="-2.928579"><ele>0.0</ele><time>2026-04-29T06:48:23.099Z</time></trkpt><trkpt lat="36.2810532" lon="-2.928468"><ele>0.0</ele><time>2026-04-29T06:48:24.098Z</time></trkpt><trkpt lat="36.2810643" lon="-2.9283648"><ele>0.0</ele><time>2026-04-29T06:48:25.098Z</time></trkpt><trkpt lat="36.2810886" lon="-2.928253"><ele>0.0</ele><time>2026-04-29T06:48:26.098Z</time></trkpt><trkpt lat="36.2811133" lon="-2.928137"><ele>0.0</ele><time>2026-04-29T06:48:27.098Z</time></trkpt><trkpt lat="36.281134" lon="-2.9280301"><ele>0.0</ele><time>2026-04-29T06:48:28.098Z</time></trkpt><trkpt lat="36.2811558" lon="-2.9279309"><ele>0.0</ele><time>2026-04-29T06:48:29.099Z</time></trkpt><trkpt lat="36.2811777" lon="-2.9278271"><ele>0.0</ele><time>2026-04-29T06:48:30.098Z</time></trkpt><trkpt lat="36.2812048" lon="-2.9277065"><ele>0.0</ele><time>2026-04-29T06:48:31.098Z</time></trkpt><trkpt lat="36.281215" lon="-2.927575"><ele>0.0</ele><time>2026-04-29T06:48:32.099Z</time></trkpt><trkpt lat="36.2812236" lon="-2.9274631"><ele>0.0</ele><time>2026-04-29T06:48:33.098Z</time></trkpt><trkpt lat="36.2812274" lon="-2.9273529"><ele>0.0</ele><time>2026-04-29T06:48:34.099Z</time></trkpt><trkpt lat="36.2812448" lon="-2.92725"><ele>0.0</ele><time>2026-04-29T06:48:35.099Z</time></trkpt><trkpt lat="36.2812377" lon="-2.9271554"><ele>0.0</ele><time>2026-04-29T06:48:36.098Z</time></trkpt><trkpt lat="36.2812512" lon="-2.9270589"><ele>0.0</ele><time>2026-04-29T06:48:37.098Z</time></trkpt><trkpt lat="36.2812658" lon="-2.9269536"><ele>0.0</ele><time>2026-04-29T06:48:38.098Z</time></trkpt><trkpt lat="36.2812848" lon="-2.9268599"><ele>0.0</ele><time>2026-04-29T06:48:39.098Z</time></trkpt><trkpt lat="36.2812819" lon="-2.9267682"><ele>0.0</ele><time>2026-04-29T06:48:40.098Z</time></trkpt><trkpt lat="36.281284" lon="-2.9266752"><ele>0.0</ele><time>2026-04-29T06:48:41.098Z</time></trkpt><trkpt lat="36.2812968" lon="-2.9264862"><ele>0.0</ele><time>2026-04-29T06:48:43.098Z</time></trkpt><trkpt lat="36.2813244" lon="-2.9263866"><ele>0.0</ele><time>2026-04-29T06:48:44.098Z</time></trkpt><trkpt lat="36.2813618" lon="-2.9262807"><ele>0.0</ele><time>2026-04-29T06:48:45.098Z</time></trkpt><trkpt lat="36.2814031" lon="-2.9261697"><ele>0.0</ele><time>2026-04-29T06:48:46.099Z</time></trkpt><trkpt lat="36.2814274" lon="-2.9260626"><ele>0.0</ele><time>2026-04-29T06:48:47.099Z</time></trkpt><trkpt lat="36.2814496" lon="-2.9259494"><ele>0.0</ele><time>2026-04-29T06:48:48.099Z</time></trkpt><trkpt lat="36.2814714" lon="-2.9258446"><ele>0.0</ele><time>2026-04-29T06:48:49.098Z</time></trkpt><trkpt lat="36.2814972" lon="-2.9257328"><ele>0.0</ele><time>2026-04-29T06:48:50.098Z</time></trkpt><trkpt lat="36.2815338" lon="-2.925621"><ele>0.0</ele><time>2026-04-29T06:48:51.098Z</time></trkpt><trkpt lat="36.2815522" lon="-2.9255122"><ele>0.0</ele><time>2026-04-29T06:48:52.099Z</time></trkpt><trkpt lat="36.2815788" lon="-2.9254026"><ele>0.0</ele><time>2026-04-29T06:48:53.098Z</time></trkpt><trkpt lat="36.2816086" lon="-2.9252973"><ele>0.0</ele><time>2026-04-29T06:48:54.098Z</time></trkpt><trkpt lat="36.2816539" lon="-2.9252009"><ele>0.0</ele><time>2026-04-29T06:48:55.098Z</time></trkpt><trkpt lat="36.2817087" lon="-2.9250575"><ele>0.0</ele><time>2026-04-29T06:48:56.099Z</time></trkpt><trkpt lat="36.2817437" lon="-2.9249327"><ele>0.0</ele><time>2026-04-29T06:48:57.098Z</time></trkpt><trkpt lat="36.2817786" lon="-2.9248143"><ele>0.0</ele><time>2026-04-29T06:48:58.098Z</time></trkpt><trkpt lat="36.2818068" lon="-2.9247056"><ele>0.0</ele><time>2026-04-29T06:48:59.099Z</time></trkpt><trkpt lat="36.2818267" lon="-2.9245956"><ele>0.0</ele><time>2026-04-29T06:49:00.098Z</time></trkpt><trkpt lat="36.2818466" lon="-2.9244904"><ele>0.0</ele><time>2026-04-29T06:49:01.099Z</time></trkpt><trkpt lat="36.2818766" lon="-2.9243809"><ele>0.0</ele><time>2026-04-29T06:49:02.098Z</time></trkpt><trkpt lat="36.281898" lon="-2.9241751"><ele>0.0</ele><time>2026-04-29T06:49:04.099Z</time></trkpt><trkpt lat="36.281909" lon="-2.9240661"><ele>0.0</ele><time>2026-04-29T06:49:05.098Z</time></trkpt><trkpt lat="36.2819461" lon="-2.9239671"><ele>0.0</ele><time>2026-04-29T06:49:06.098Z</time></trkpt><trkpt lat="36.2819804" lon="-2.9238604"><ele>0.0</ele><time>2026-04-29T06:49:07.098Z</time></trkpt><trkpt lat="36.2820038" lon="-2.9237594"><ele>0.0</ele><time>2026-04-29T06:49:08.098Z</time></trkpt><trkpt lat="36.2820315" lon="-2.9236625"><ele>0.0</ele><time>2026-04-29T06:49:09.098Z</time></trkpt><trkpt lat="36.2820673" lon="-2.9235712"><ele>0.0</ele><time>2026-04-29T06:49:10.098Z</time></trkpt><trkpt lat="36.2821009" lon="-2.9234816"><ele>0.0</ele><time>2026-04-29T06:49:11.098Z</time></trkpt><trkpt lat="36.282136" lon="-2.9233762"><ele>0.0</ele><time>2026-04-29T06:49:12.098Z</time></trkpt><trkpt lat="36.2821726" lon="-2.9232679"><ele>0.0</ele><time>2026-04-29T06:49:13.099Z</time></trkpt><trkpt lat="36.2821882" lon="-2.9231706"><ele>0.0</ele><time>2026-04-29T06:49:14.098Z</time></trkpt><trkpt lat="36.2822157" lon="-2.9230643"><ele>0.0</ele><time>2026-04-29T06:49:15.098Z</time></trkpt><trkpt lat="36.282238" lon="-2.9229573"><ele>0.0</ele><time>2026-04-29T06:49:16.099Z</time></trkpt><trkpt lat="36.2822568" lon="-2.9228604"><ele>0.0</ele><time>2026-04-29T06:49:17.098Z</time></trkpt><trkpt lat="36.2822735" lon="-2.9227639"><ele>0.0</ele><time>2026-04-29T06:49:18.098Z</time></trkpt><trkpt lat="36.2822873" lon="-2.9226634"><ele>0.0</ele><time>2026-04-29T06:49:19.099Z</time></trkpt><trkpt lat="36.2823066" lon="-2.9225673"><ele>0.0</ele><time>2026-04-29T06:49:20.099Z</time></trkpt><trkpt lat="36.2823125" lon="-2.9224755"><ele>0.0</ele><time>2026-04-29T06:49:21.098Z</time></trkpt><trkpt lat="36.2823062" lon="-2.9223802"><ele>0.0</ele><time>2026-04-29T06:49:22.098Z</time></trkpt><trkpt lat="36.2822912" lon="-2.9222736"><ele>0.0</ele><time>2026-04-29T06:49:23.099Z</time></trkpt><trkpt lat="36.2823002" lon="-2.9220543"><ele>0.0</ele><time>2026-04-29T06:49:25.099Z</time></trkpt><trkpt lat="36.2823128" lon="-2.9219563"><ele>0.0</ele><time>2026-04-29T06:49:26.099Z</time></trkpt><trkpt lat="36.2823288" lon="-2.9218495"><ele>0.0</ele><time>2026-04-29T06:49:27.098Z</time></trkpt><trkpt lat="36.282344" lon="-2.9217394"><ele>0.0</ele><time>2026-04-29T06:49:28.098Z</time></trkpt><trkpt lat="36.2823576" lon="-2.9216332"><ele>0.0</ele><time>2026-04-29T06:49:29.098Z</time></trkpt><trkpt lat="36.2823653" lon="-2.9215321"><ele>0.0</ele><time>2026-04-29T06:49:30.099Z</time></trkpt><trkpt lat="36.2823862" lon="-2.9214211"><ele>0.0</ele><time>2026-04-29T06:49:31.098Z</time></trkpt><trkpt lat="36.2824037" lon="-2.9213119"><ele>0.0</ele><time>2026-04-29T06:49:32.099Z</time></trkpt><trkpt lat="36.2824303" lon="-2.9211974"><ele>0.0</ele><time>2026-04-29T06:49:33.099Z</time></trkpt><trkpt lat="36.2824487" lon="-2.9210797"><ele>0.0</ele><time>2026-04-29T06:49:34.098Z</time></trkpt><trkpt lat="36.2824668" lon="-2.9209674"><ele>0.0</ele><time>2026-04-29T06:49:35.099Z</time></trkpt><trkpt lat="36.2824952" lon="-2.9208642"><ele>0.0</ele><time>2026-04-29T06:49:36.098Z</time></trkpt><trkpt lat="36.2825276" lon="-2.9207673"><ele>0.0</ele><time>2026-04-29T06:49:37.098Z</time></trkpt><trkpt lat="36.2825444" lon="-2.9206612"><ele>0.0</ele><time>2026-04-29T06:49:38.099Z</time></trkpt><trkpt lat="36.2825634" lon="-2.920557"><ele>0.0</ele><time>2026-04-29T06:49:39.099Z</time></trkpt><trkpt lat="36.2825878" lon="-2.920451"><ele>0.0</ele><time>2026-04-29T06:49:40.099Z</time></trkpt><trkpt lat="36.2825972" lon="-2.9203401"><ele>0.0</ele><time>2026-04-29T06:49:41.099Z</time></trkpt><trkpt lat="36.2826053" lon="-2.9202425"><ele>0.0</ele><time>2026-04-29T06:49:42.098Z</time></trkpt><trkpt lat="36.2826151" lon="-2.9201335"><ele>0.0</ele><time>2026-04-29T06:49:43.098Z</time></trkpt><trkpt lat="36.2826147" lon="-2.9200327"><ele>0.0</ele><time>2026-04-29T06:49:44.098Z</time></trkpt><trkpt lat="36.2826096" lon="-2.9198417"><ele>0.0</ele><time>2026-04-29T06:49:46.099Z</time></trkpt><trkpt lat="36.2826202" lon="-2.9197283"><ele>0.0</ele><time>2026-04-29T06:49:47.098Z</time></trkpt><trkpt lat="36.2826379" lon="-2.9196144"><ele>0.0</ele><time>2026-04-29T06:49:48.098Z</time></trkpt><trkpt lat="36.2826533" lon="-2.9195048"><ele>0.0</ele><time>2026-04-29T06:49:49.099Z</time></trkpt><trkpt lat="36.2826794" lon="-2.9193969"><ele>0.0</ele><time>2026-04-29T06:49:50.099Z</time></trkpt><trkpt lat="36.2827187" lon="-2.9192941"><ele>0.0</ele><time>2026-04-29T06:49:51.098Z</time></trkpt><trkpt lat="36.2827566" lon="-2.9191899"><ele>0.0</ele><time>2026-04-29T06:49:52.098Z</time></trkpt><trkpt lat="36.2827777" lon="-2.9190835"><ele>0.0</ele><time>2026-04-29T06:49:53.099Z</time></trkpt><trkpt lat="36.2827995" lon="-2.9189802"><ele>0.0</ele><time>2026-04-29T06:49:54.099Z</time></trkpt><trkpt lat="36.2827986" lon="-2.9188799"><ele>0.0</ele><time>2026-04-29T06:49:55.098Z</time></trkpt><trkpt lat="36.2828052" lon="-2.9187755"><ele>0.0</ele><time>2026-04-29T06:49:56.098Z</time></trkpt><trkpt lat="36.2828232" lon="-2.9186732"><ele>0.0</ele><time>2026-04-29T06:49:57.098Z</time></trkpt><trkpt lat="36.2828207" lon="-2.9185794"><ele>0.0</ele><time>2026-04-29T06:49:58.099Z</time></trkpt><trkpt lat="36.2828313" lon="-2.9184734"><ele>0.0</ele><time>2026-04-29T06:49:59.099Z</time></trkpt><trkpt lat="36.2828228" lon="-2.918384"><ele>0.0</ele><time>2026-04-29T06:50:00.099Z</time></trkpt><trkpt lat="36.2828321" lon="-2.9182772"><ele>0.0</ele><time>2026-04-29T06:50:01.099Z</time></trkpt><trkpt lat="36.2828474" lon="-2.9181731"><ele>0.0</ele><time>2026-04-29T06:50:02.098Z</time></trkpt><trkpt lat="36.2828883" lon="-2.9180671"><ele>0.0</ele><time>2026-04-29T06:50:03.098Z</time></trkpt><trkpt lat="36.2829077" lon="-2.9179575"><ele>0.0</ele><time>2026-04-29T06:50:04.099Z</time></trkpt><trkpt lat="36.2829304" lon="-2.9178545"><ele>0.0</ele><time>2026-04-29T06:50:05.099Z</time></trkpt><trkpt lat="36.282973" lon="-2.9176459"><ele>0.0</ele><time>2026-04-29T06:50:07.099Z</time></trkpt><trkpt lat="36.2829908" lon="-2.9175333"><ele>0.0</ele><time>2026-04-29T06:50:08.099Z</time></trkpt><trkpt lat="36.2830131" lon="-2.9174229"><ele>0.0</ele><time>2026-04-29T06:50:09.099Z</time></trkpt><trkpt lat="36.2830409" lon="-2.9173189"><ele>0.0</ele><time>2026-04-29T06:50:10.098Z</time></trkpt><trkpt lat="36.2830536" lon="-2.9172183"><ele>0.0</ele><time>2026-04-29T06:50:11.098Z</time></trkpt><trkpt lat="36.2830723" lon="-2.9171096"><ele>0.0</ele><time>2026-04-29T06:50:12.098Z</time></trkpt><trkpt lat="36.2830917" lon="-2.9169936"><ele>0.0</ele><time>2026-04-29T06:50:13.099Z</time></trkpt><trkpt lat="36.283117" lon="-2.9168854"><ele>0.0</ele><time>2026-04-29T06:50:14.098Z</time></trkpt><trkpt lat="36.2831282" lon="-2.9167828"><ele>0.0</ele><time>2026-04-29T06:50:15.099Z</time></trkpt><trkpt lat="36.2831282" lon="-2.9166885"><ele>0.0</ele><time>2026-04-29T06:50:16.099Z</time></trkpt><trkpt lat="36.2831306" lon="-2.916585"><ele>0.0</ele><time>2026-04-29T06:50:17.098Z</time></trkpt><trkpt lat="36.2831463" lon="-2.9164743"><ele>0.0</ele><time>2026-04-29T06:50:18.099Z</time></trkpt><trkpt lat="36.283152" lon="-2.9163755"><ele>0.0</ele><time>2026-04-29T06:50:19.098Z</time></trkpt><trkpt lat="36.2831697" lon="-2.9162733"><ele>0.0</ele><time>2026-04-29T06:50:20.098Z</time></trkpt><trkpt lat="36.2831911" lon="-2.91617"><ele>0.0</ele><time>2026-04-29T06:50:21.098Z</time></trkpt><trkpt lat="36.2832142" lon="-2.9160627"><ele>0.0</ele><time>2026-04-29T06:50:22.098Z</time></trkpt><trkpt lat="36.2832371" lon="-2.9159301"><ele>0.0</ele><time>2026-04-29T06:50:23.098Z</time></trkpt><trkpt lat="36.2832559" lon="-2.9158072"><ele>0.0</ele><time>2026-04-29T06:50:24.099Z</time></trkpt><trkpt lat="36.2832841" lon="-2.9156953"><ele>0.0</ele><time>2026-04-29T06:50:25.098Z</time></trkpt><trkpt lat="36.2833094" lon="-2.9155879"><ele>0.0</ele><time>2026-04-29T06:50:26.098Z</time></trkpt><trkpt lat="36.2833621" lon="-2.9153847"><ele>0.0</ele><time>2026-04-29T06:50:28.099Z</time></trkpt><trkpt lat="36.2833857" lon="-2.9152812"><ele>0.0</ele><time>2026-04-29T06:50:29.099Z</time></trkpt><trkpt lat="36.2834048" lon="-2.9151838"><ele>0.0</ele><time>2026-04-29T06:50:30.099Z</time></trkpt><trkpt lat="36.2834185" lon="-2.9150845"><ele>0.0</ele><time>2026-04-29T06:50:31.098Z</time></trkpt><trkpt lat="36.2834364" lon="-2.9149842"><ele>0.0</ele><time>2026-04-29T06:50:32.098Z</time></trkpt><trkpt lat="36.2834519" lon="-2.9148813"><ele>0.0</ele><time>2026-04-29T06:50:33.098Z</time></trkpt><trkpt lat="36.2834666" lon="-2.9147776"><ele>0.0</ele><time>2026-04-29T06:50:34.099Z</time></trkpt><trkpt lat="36.2834862" lon="-2.9146703"><ele>0.0</ele><time>2026-04-29T06:50:35.098Z</time></trkpt><trkpt lat="36.2835077" lon="-2.9145635"><ele>0.0</ele><time>2026-04-29T06:50:36.099Z</time></trkpt><trkpt lat="36.2835281" lon="-2.9144642"><ele>0.0</ele><time>2026-04-29T06:50:37.098Z</time></trkpt><trkpt lat="36.2835593" lon="-2.9143601"><ele>0.0</ele><time>2026-04-29T06:50:38.099Z</time></trkpt><trkpt lat="36.2835797" lon="-2.9142639"><ele>0.0</ele><time>2026-04-29T06:50:39.098Z</time></trkpt><trkpt lat="36.2835998" lon="-2.9141605"><ele>0.0</ele><time>2026-04-29T06:50:40.098Z</time></trkpt><trkpt lat="36.2836172" lon="-2.9140539"><ele>0.0</ele><time>2026-04-29T06:50:41.098Z</time></trkpt><trkpt lat="36.2836405" lon="-2.9139485"><ele>0.0</ele><time>2026-04-29T06:50:42.099Z</time></trkpt><trkpt lat="36.2836614" lon="-2.913845"><ele>0.0</ele><time>2026-04-29T06:50:43.099Z</time></trkpt><trkpt lat="36.2836839" lon="-2.9137414"><ele>0.0</ele><time>2026-04-29T06:50:44.098Z</time></trkpt><trkpt lat="36.2837042" lon="-2.9136413"><ele>0.0</ele><time>2026-04-29T06:50:45.099Z</time></trkpt><trkpt lat="36.283733" lon="-2.9135385"><ele>0.0</ele><time>2026-04-29T06:50:46.099Z</time></trkpt><trkpt lat="36.2837605" lon="-2.9134351"><ele>0.0</ele><time>2026-04-29T06:50:47.098Z</time></trkpt><trkpt lat="36.2838196" lon="-2.9132235"><ele>0.0</ele><time>2026-04-29T06:50:49.098Z</time></trkpt><trkpt lat="36.2838431" lon="-2.91312"><ele>0.0</ele><time>2026-04-29T06:50:50.098Z</time></trkpt><trkpt lat="36.2838648" lon="-2.9130182"><ele>0.0</ele><time>2026-04-29T06:50:51.099Z</time></trkpt><trkpt lat="36.2838822" lon="-2.912914"><ele>0.0</ele><time>2026-04-29T06:50:52.098Z</time></trkpt><trkpt lat="36.2839002" lon="-2.9128059"><ele>0.0</ele><time>2026-04-29T06:50:53.099Z</time></trkpt><trkpt lat="36.2839113" lon="-2.9127016"><ele>0.0</ele><time>2026-04-29T06:50:54.098Z</time></trkpt><trkpt lat="36.2839315" lon="-2.9125982"><ele>0.0</ele><time>2026-04-29T06:50:55.099Z</time></trkpt><trkpt lat="36.2839483" lon="-2.9124934"><ele>0.0</ele><time>2026-04-29T06:50:56.099Z</time></trkpt><trkpt lat="36.2839637" lon="-2.9123884"><ele>0.0</ele><time>2026-04-29T06:50:57.098Z</time></trkpt><trkpt lat="36.2839862" lon="-2.9122863"><ele>0.0</ele><time>2026-04-29T06:50:58.098Z</time></trkpt><trkpt lat="36.2840055" lon="-2.912196"><ele>0.0</ele><time>2026-04-29T06:50:59.098Z</time></trkpt><trkpt lat="36.2840242" lon="-2.9121003"><ele>0.0</ele><time>2026-04-29T06:51:00.098Z</time></trkpt><trkpt lat="36.2840507" lon="-2.9119968"><ele>0.0</ele><time>2026-04-29T06:51:01.098Z</time></trkpt><trkpt lat="36.2840735" lon="-2.9118963"><ele>0.0</ele><time>2026-04-29T06:51:02.098Z</time></trkpt><trkpt lat="36.2840981" lon="-2.9117949"><ele>0.0</ele><time>2026-04-29T06:51:03.098Z</time></trkpt><trkpt lat="36.284117" lon="-2.9116919"><ele>0.0</ele><time>2026-04-29T06:51:04.099Z</time></trkpt><trkpt lat="36.2841212" lon="-2.9115802"><ele>0.0</ele><time>2026-04-29T06:51:05.098Z</time></trkpt><trkpt lat="36.2841217" lon="-2.9114694"><ele>0.0</ele><time>2026-04-29T06:51:06.098Z</time></trkpt><trkpt lat="36.2841242" lon="-2.9113637"><ele>0.0</ele><time>2026-04-29T06:51:07.098Z</time></trkpt><trkpt lat="36.2841301" lon="-2.9112533"><ele>0.0</ele><time>2026-04-29T06:51:08.099Z</time></trkpt><trkpt lat="36.2841344" lon="-2.9110475"><ele>0.0</ele><time>2026-04-29T06:51:10.098Z</time></trkpt><trkpt lat="36.2841463" lon="-2.9109464"><ele>0.0</ele><time>2026-04-29T06:51:11.099Z</time></trkpt><trkpt lat="36.2841707" lon="-2.9108478"><ele>0.0</ele><time>2026-04-29T06:51:12.098Z</time></trkpt><trkpt lat="36.2841872" lon="-2.9107477"><ele>0.0</ele><time>2026-04-29T06:51:13.098Z</time></trkpt><trkpt lat="36.2842134" lon="-2.9106437"><ele>0.0</ele><time>2026-04-29T06:51:14.099Z</time></trkpt><trkpt lat="36.2842404" lon="-2.9105342"><ele>0.0</ele><time>2026-04-29T06:51:15.098Z</time></trkpt><trkpt lat="36.2842646" lon="-2.9104316"><ele>0.0</ele><time>2026-04-29T06:51:16.098Z</time></trkpt><trkpt lat="36.2842823" lon="-2.9103269"><ele>0.0</ele><time>2026-04-29T06:51:17.099Z</time></trkpt><trkpt lat="36.2843" lon="-2.9102233"><ele>0.0</ele><time>2026-04-29T06:51:18.099Z</time></trkpt><trkpt lat="36.2843211" lon="-2.91012"><ele>0.0</ele><time>2026-04-29T06:51:19.099Z</time></trkpt><trkpt lat="36.2843428" lon="-2.9100155"><ele>0.0</ele><time>2026-04-29T06:51:20.098Z</time></trkpt><trkpt lat="36.2843676" lon="-2.909906"><ele>0.0</ele><time>2026-04-29T06:51:21.098Z</time></trkpt><trkpt lat="36.2843873" lon="-2.9097972"><ele>0.0</ele><time>2026-04-29T06:51:22.099Z</time></trkpt><trkpt lat="36.2844081" lon="-2.9096874"><ele>0.0</ele><time>2026-04-29T06:51:23.098Z</time></trkpt><trkpt lat="36.2844357" lon="-2.9095806"><ele>0.0</ele><time>2026-04-29T06:51:24.098Z</time></trkpt><trkpt lat="36.2844565" lon="-2.9094705"><ele>0.0</ele><time>2026-04-29T06:51:25.098Z</time></trkpt><trkpt lat="36.284482" lon="-2.9093633"><ele>0.0</ele><time>2026-04-29T06:51:26.098Z</time></trkpt><trkpt lat="36.2845043" lon="-2.9092565"><ele>0.0</ele><time>2026-04-29T06:51:27.098Z</time></trkpt><trkpt lat="36.2845176" lon="-2.9091498"><ele>0.0</ele><time>2026-04-29T06:51:28.099Z</time></trkpt><trkpt lat="36.2845278" lon="-2.9090463"><ele>0.0</ele><time>2026-04-29T06:51:29.099Z</time></trkpt><trkpt lat="36.284551" lon="-2.9088318"><ele>0.0</ele><time>2026-04-29T06:51:31.099Z</time></trkpt><trkpt lat="36.2845637" lon="-2.9087268"><ele>0.0</ele><time>2026-04-29T06:51:32.099Z</time></trkpt><trkpt lat="36.2845746" lon="-2.9086245"><ele>0.0</ele><time>2026-04-29T06:51:33.099Z</time></trkpt><trkpt lat="36.2845829" lon="-2.9085298"><ele>0.0</ele><time>2026-04-29T06:51:34.098Z</time></trkpt><trkpt lat="36.2846043" lon="-2.9084311"><ele>0.0</ele><time>2026-04-29T06:51:35.098Z</time></trkpt><trkpt lat="36.2846249" lon="-2.9083272"><ele>0.0</ele><time>2026-04-29T06:51:36.099Z</time></trkpt><trkpt lat="36.2846461" lon="-2.9082203"><ele>0.0</ele><time>2026-04-29T06:51:37.098Z</time></trkpt><trkpt lat="36.2846745" lon="-2.9081122"><ele>0.0</ele><time>2026-04-29T06:51:38.098Z</time></trkpt><trkpt lat="36.2847029" lon="-2.9080064"><ele>0.0</ele><time>2026-04-29T06:51:39.098Z</time></trkpt><trkpt lat="36.2847256" lon="-2.9079029"><ele>0.0</ele><time>2026-04-29T06:51:40.098Z</time></trkpt><trkpt lat="36.2847471" lon="-2.9077985"><ele>0.0</ele><time>2026-04-29T06:51:41.098Z</time></trkpt><trkpt lat="36.2847677" lon="-2.9076924"><ele>0.0</ele><time>2026-04-29T06:51:42.099Z</time></trkpt><trkpt lat="36.2848008" lon="-2.9075869"><ele>0.0</ele><time>2026-04-29T06:51:43.099Z</time></trkpt><trkpt lat="36.2848261" lon="-2.9074833"><ele>0.0</ele><time>2026-04-29T06:51:44.099Z</time></trkpt><trkpt lat="36.284848" lon="-2.9073802"><ele>0.0</ele><time>2026-04-29T06:51:45.098Z</time></trkpt><trkpt lat="36.2848681" lon="-2.9072741"><ele>0.0</ele><time>2026-04-29T06:51:46.099Z</time></trkpt><trkpt lat="36.2848912" lon="-2.9071702"><ele>0.0</ele><time>2026-04-29T06:51:47.098Z</time></trkpt><trkpt lat="36.2849104" lon="-2.9070715"><ele>0.0</ele><time>2026-04-29T06:51:48.099Z</time></trkpt><trkpt lat="36.2849369" lon="-2.9069702"><ele>0.0</ele><time>2026-04-29T06:51:49.098Z</time></trkpt><trkpt lat="36.2849581" lon="-2.9068683"><ele>0.0</ele><time>2026-04-29T06:51:50.099Z</time></trkpt><trkpt lat="36.284989" lon="-2.9066551"><ele>0.0</ele><time>2026-04-29T06:51:52.098Z</time></trkpt><trkpt lat="36.2850021" lon="-2.9065469"><ele>0.0</ele><time>2026-04-29T06:51:53.098Z</time></trkpt><trkpt lat="36.2850141" lon="-2.9064359"><ele>0.0</ele><time>2026-04-29T06:51:54.098Z</time></trkpt><trkpt lat="36.2850299" lon="-2.906327"><ele>0.0</ele><time>2026-04-29T06:51:55.099Z</time></trkpt><trkpt lat="36.2850452" lon="-2.906213"><ele>0.0</ele><time>2026-04-29T06:51:56.098Z</time></trkpt><trkpt lat="36.2850658" lon="-2.9061022"><ele>0.0</ele><time>2026-04-29T06:51:57.098Z</time></trkpt><trkpt lat="36.2850863" lon="-2.9059965"><ele>0.0</ele><time>2026-04-29T06:51:58.099Z</time></trkpt><trkpt lat="36.2851077" lon="-2.9058915"><ele>0.0</ele><time>2026-04-29T06:51:59.099Z</time></trkpt><trkpt lat="36.2851349" lon="-2.9057837"><ele>0.0</ele><time>2026-04-29T06:52:00.098Z</time></trkpt><trkpt lat="36.285161" lon="-2.9056826"><ele>0.0</ele><time>2026-04-29T06:52:01.098Z</time></trkpt><trkpt lat="36.2851788" lon="-2.90558"><ele>0.0</ele><time>2026-04-29T06:52:02.098Z</time></trkpt><trkpt lat="36.2852025" lon="-2.9054797"><ele>0.0</ele><time>2026-04-29T06:52:03.098Z</time></trkpt><trkpt lat="36.2852263" lon="-2.9053783"><ele>0.0</ele><time>2026-04-29T06:52:04.098Z</time></trkpt><trkpt lat="36.2852514" lon="-2.9052739"><ele>0.0</ele><time>2026-04-29T06:52:05.098Z</time></trkpt><trkpt lat="36.285261" lon="-2.9051677"><ele>0.0</ele><time>2026-04-29T06:52:06.099Z</time></trkpt><trkpt lat="36.2852733" lon="-2.9050606"><ele>0.0</ele><time>2026-04-29T06:52:07.098Z</time></trkpt><trkpt lat="36.285292" lon="-2.9049498"><ele>0.0</ele><time>2026-04-29T06:52:08.099Z</time></trkpt><trkpt lat="36.2853066" lon="-2.9048397"><ele>0.0</ele><time>2026-04-29T06:52:09.099Z</time></trkpt><trkpt lat="36.2853184" lon="-2.9047294"><ele>0.0</ele><time>2026-04-29T06:52:10.098Z</time></trkpt><trkpt lat="36.2853297" lon="-2.9046169"><ele>0.0</ele><time>2026-04-29T06:52:11.098Z</time></trkpt><trkpt lat="36.2853569" lon="-2.9044048"><ele>0.0</ele><time>2026-04-29T06:52:13.098Z</time></trkpt><trkpt lat="36.2853667" lon="-2.9043018"><ele>0.0</ele><time>2026-04-29T06:52:14.098Z</time></trkpt><trkpt lat="36.2853764" lon="-2.9041985"><ele>0.0</ele><time>2026-04-29T06:52:15.098Z</time></trkpt><trkpt lat="36.2853807" lon="-2.9040924"><ele>0.0</ele><time>2026-04-29T06:52:16.098Z</time></trkpt><trkpt lat="36.2853958" lon="-2.903984"><ele>0.0</ele><time>2026-04-29T06:52:17.098Z</time></trkpt><trkpt lat="36.2854094" lon="-2.9038754"><ele>0.0</ele><time>2026-04-29T06:52:18.099Z</time></trkpt><trkpt lat="36.2854235" lon="-2.9037683"><ele>0.0</ele><time>2026-04-29T06:52:19.098Z</time></trkpt><trkpt lat="36.2854344" lon="-2.9036614"><ele>0.0</ele><time>2026-04-29T06:52:20.098Z</time></trkpt><trkpt lat="36.2854273" lon="-2.9035575"><ele>0.0</ele><time>2026-04-29T06:52:21.099Z</time></trkpt><trkpt lat="36.2854345" lon="-2.9034528"><ele>0.0</ele><time>2026-04-29T06:52:22.098Z</time></trkpt><trkpt lat="36.2854454" lon="-2.9033525"><ele>0.0</ele><time>2026-04-29T06:52:23.099Z</time></trkpt><trkpt lat="36.2854582" lon="-2.9032497"><ele>0.0</ele><time>2026-04-29T06:52:24.098Z</time></trkpt><trkpt lat="36.2854733" lon="-2.9031476"><ele>0.0</ele><time>2026-04-29T06:52:25.099Z</time></trkpt><trkpt lat="36.2855008" lon="-2.9030401"><ele>0.0</ele><time>2026-04-29T06:52:26.098Z</time></trkpt><trkpt lat="36.2855207" lon="-2.9029314"><ele>0.0</ele><time>2026-04-29T06:52:27.098Z</time></trkpt><trkpt lat="36.2855422" lon="-2.9028231"><ele>0.0</ele><time>2026-04-29T06:52:28.098Z</time></trkpt><trkpt lat="36.2855639" lon="-2.9027195"><ele>0.0</ele><time>2026-04-29T06:52:29.098Z</time></trkpt><trkpt lat="36.2855844" lon="-2.9026154"><ele>0.0</ele><time>2026-04-29T06:52:30.099Z</time></trkpt><trkpt lat="36.285601" lon="-2.902512"><ele>0.0</ele><time>2026-04-29T06:52:31.098Z</time></trkpt><trkpt lat="36.2856248" lon="-2.9024004"><ele>0.0</ele><time>2026-04-29T06:52:32.098Z</time></trkpt><trkpt lat="36.2856793" lon="-2.9021734"><ele>0.0</ele><time>2026-04-29T06:52:34.098Z</time></trkpt><trkpt lat="36.2857003" lon="-2.902067"><ele>0.0</ele><time>2026-04-29T06:52:35.098Z</time></trkpt><trkpt lat="36.2857246" lon="-2.9019578"><ele>0.0</ele><time>2026-04-29T06:52:36.099Z</time></trkpt><trkpt lat="36.2857438" lon="-2.9018466"><ele>0.0</ele><time>2026-04-29T06:52:37.098Z</time></trkpt><trkpt lat="36.2857636" lon="-2.9017345"><ele>0.0</ele><time>2026-04-29T06:52:38.098Z</time></trkpt><trkpt lat="36.2857835" lon="-2.901623"><ele>0.0</ele><time>2026-04-29T06:52:39.099Z</time></trkpt><trkpt lat="36.2857812" lon="-2.9015071"><ele>0.0</ele><time>2026-04-29T06:52:40.098Z</time></trkpt><trkpt lat="36.2857832" lon="-2.9013931"><ele>0.0</ele><time>2026-04-29T06:52:41.099Z</time></trkpt><trkpt lat="36.2857976" lon="-2.901281"><ele>0.0</ele><time>2026-04-29T06:52:42.099Z</time></trkpt><trkpt lat="36.2858192" lon="-2.9011704"><ele>0.0</ele><time>2026-04-29T06:52:43.098Z</time></trkpt><trkpt lat="36.2858424" lon="-2.9010633"><ele>0.0</ele><time>2026-04-29T06:52:44.098Z</time></trkpt><trkpt lat="36.2858615" lon="-2.9009567"><ele>0.0</ele><time>2026-04-29T06:52:45.099Z</time></trkpt><trkpt lat="36.2858769" lon="-2.9008514"><ele>0.0</ele><time>2026-04-29T06:52:46.099Z</time></trkpt><trkpt lat="36.2858903" lon="-2.9007435"><ele>0.0</ele><time>2026-04-29T06:52:47.099Z</time></trkpt><trkpt lat="36.2859009" lon="-2.9006349"><ele>0.0</ele><time>2026-04-29T06:52:48.098Z</time></trkpt><trkpt lat="36.285911" lon="-2.9005306"><ele>0.0</ele><time>2026-04-29T06:52:49.098Z</time></trkpt><trkpt lat="36.2859201" lon="-2.9004234"><ele>0.0</ele><time>2026-04-29T06:52:50.098Z</time></trkpt><trkpt lat="36.2859558" lon="-2.9003193"><ele>0.0</ele><time>2026-04-29T06:52:51.098Z</time></trkpt><trkpt lat="36.2859741" lon="-2.9002103"><ele>0.0</ele><time>2026-04-29T06:52:52.099Z</time></trkpt><trkpt lat="36.2859864" lon="-2.9001005"><ele>0.0</ele><time>2026-04-29T06:52:53.098Z</time></trkpt><trkpt lat="36.28601" lon="-2.8998871"><ele>0.0</ele><time>2026-04-29T06:52:55.099Z</time></trkpt><trkpt lat="36.2860394" lon="-2.8997787"><ele>0.0</ele><time>2026-04-29T06:52:56.099Z</time></trkpt><trkpt lat="36.2860556" lon="-2.8996705"><ele>0.0</ele><time>2026-04-29T06:52:57.099Z</time></trkpt><trkpt lat="36.2860802" lon="-2.8995653"><ele>0.0</ele><time>2026-04-29T06:52:58.099Z</time></trkpt><trkpt lat="36.2861001" lon="-2.8994575"><ele>0.0</ele><time>2026-04-29T06:52:59.099Z</time></trkpt><trkpt lat="36.2861161" lon="-2.8993506"><ele>0.0</ele><time>2026-04-29T06:53:00.098Z</time></trkpt><trkpt lat="36.2861343" lon="-2.899244"><ele>0.0</ele><time>2026-04-29T06:53:01.099Z</time></trkpt><trkpt lat="36.286148" lon="-2.8991387"><ele>0.0</ele><time>2026-04-29T06:53:02.099Z</time></trkpt><trkpt lat="36.2861639" lon="-2.8990324"><ele>0.0</ele><time>2026-04-29T06:53:03.098Z</time></trkpt><trkpt lat="36.2861807" lon="-2.8989215"><ele>0.0</ele><time>2026-04-29T06:53:04.098Z</time></trkpt><trkpt lat="36.2862002" lon="-2.8988111"><ele>0.0</ele><time>2026-04-29T06:53:05.099Z</time></trkpt><trkpt lat="36.2862217" lon="-2.8986994"><ele>0.0</ele><time>2026-04-29T06:53:06.098Z</time></trkpt><trkpt lat="36.2862402" lon="-2.8985935"><ele>0.0</ele><time>2026-04-29T06:53:07.098Z</time></trkpt><trkpt lat="36.2862686" lon="-2.8984917"><ele>0.0</ele><time>2026-04-29T06:53:08.098Z</time></trkpt><trkpt lat="36.2862904" lon="-2.8983853"><ele>0.0</ele><time>2026-04-29T06:53:09.098Z</time></trkpt><trkpt lat="36.2863253" lon="-2.8982783"><ele>0.0</ele><time>2026-04-29T06:53:10.099Z</time></trkpt><trkpt lat="36.2863567" lon="-2.8981702"><ele>0.0</ele><time>2026-04-29T06:53:11.099Z</time></trkpt><trkpt lat="36.2863694" lon="-2.8980629"><ele>0.0</ele><time>2026-04-29T06:53:12.098Z</time></trkpt><trkpt lat="36.2863822" lon="-2.8979552"><ele>0.0</ele><time>2026-04-29T06:53:13.099Z</time></trkpt><trkpt lat="36.2863909" lon="-2.897848"><ele>0.0</ele><time>2026-04-29T06:53:14.099Z</time></trkpt><trkpt lat="36.286401" lon="-2.8976397"><ele>0.0</ele><time>2026-04-29T06:53:16.098Z</time></trkpt><trkpt lat="36.2864058" lon="-2.897536"><ele>0.0</ele><time>2026-04-29T06:53:17.099Z</time></trkpt><trkpt lat="36.2864082" lon="-2.8974312"><ele>0.0</ele><time>2026-04-29T06:53:18.099Z</time></trkpt><trkpt lat="36.2863899" lon="-2.8973205"><ele>0.0</ele><time>2026-04-29T06:53:19.099Z</time></trkpt><trkpt lat="36.2863723" lon="-2.8972063"><ele>0.0</ele><time>2026-04-29T06:53:20.098Z</time></trkpt><trkpt lat="36.2863772" lon="-2.897098"><ele>0.0</ele><time>2026-04-29T06:53:21.099Z</time></trkpt><trkpt lat="36.2863668" lon="-2.8969841"><ele>0.0</ele><time>2026-04-29T06:53:22.098Z</time></trkpt><trkpt lat="36.2863754" lon="-2.8968749"><ele>0.0</ele><time>2026-04-29T06:53:23.099Z</time></trkpt><trkpt lat="36.2863913" lon="-2.8967698"><ele>0.0</ele><time>2026-04-29T06:53:24.098Z</time></trkpt><trkpt lat="36.2864092" lon="-2.8966648"><ele>0.0</ele><time>2026-04-29T06:53:25.099Z</time></trkpt><trkpt lat="36.2864317" lon="-2.8965584"><ele>0.0</ele><time>2026-04-29T06:53:26.099Z</time></trkpt><trkpt lat="36.2864424" lon="-2.8964519"><ele>0.0</ele><time>2026-04-29T06:53:27.098Z</time></trkpt><trkpt lat="36.2864594" lon="-2.8963466"><ele>0.0</ele><time>2026-04-29T06:53:28.099Z</time></trkpt><trkpt lat="36.2864844" lon="-2.8962414"><ele>0.0</ele><time>2026-04-29T06:53:29.098Z</time></trkpt><trkpt lat="36.2865058" lon="-2.8961366"><ele>0.0</ele><time>2026-04-29T06:53:30.098Z</time></trkpt><trkpt lat="36.28653" lon="-2.896033"><ele>0.0</ele><time>2026-04-29T06:53:31.099Z</time></trkpt><trkpt lat="36.2865554" lon="-2.8959266"><ele>0.0</ele><time>2026-04-29T06:53:32.098Z</time></trkpt><trkpt lat="36.2865804" lon="-2.8958258"><ele>0.0</ele><time>2026-04-29T06:53:33.099Z</time></trkpt><trkpt lat="36.2866052" lon="-2.8957214"><ele>0.0</ele><time>2026-04-29T06:53:34.098Z</time></trkpt><trkpt lat="36.2866275" lon="-2.8956194"><ele>0.0</ele><time>2026-04-29T06:53:35.098Z</time></trkpt><trkpt lat="36.2866666" lon="-2.8954143"><ele>0.0</ele><time>2026-04-29T06:53:37.098Z</time></trkpt><trkpt lat="36.2866866" lon="-2.8953098"><ele>0.0</ele><time>2026-04-29T06:53:38.099Z</time></trkpt><trkpt lat="36.2867066" lon="-2.8952066"><ele>0.0</ele><time>2026-04-29T06:53:39.098Z</time></trkpt><trkpt lat="36.2867247" lon="-2.8951018"><ele>0.0</ele><time>2026-04-29T06:53:40.099Z</time></trkpt><trkpt lat="36.2867346" lon="-2.8949951"><ele>0.0</ele><time>2026-04-29T06:53:41.099Z</time></trkpt><trkpt lat="36.2867536" lon="-2.8948886"><ele>0.0</ele><time>2026-04-29T06:53:42.099Z</time></trkpt><trkpt lat="36.2867721" lon="-2.8947848"><ele>0.0</ele><time>2026-04-29T06:53:43.099Z</time></trkpt><trkpt lat="36.2867915" lon="-2.8946799"><ele>0.0</ele><time>2026-04-29T06:53:44.099Z</time></trkpt><trkpt lat="36.2867946" lon="-2.8945723"><ele>0.0</ele><time>2026-04-29T06:53:45.098Z</time></trkpt><trkpt lat="36.2867992" lon="-2.8944652"><ele>0.0</ele><time>2026-04-29T06:53:46.099Z</time></trkpt><trkpt lat="36.2868177" lon="-2.8943612"><ele>0.0</ele><time>2026-04-29T06:53:47.099Z</time></trkpt><trkpt lat="36.2868478" lon="-2.8942595"><ele>0.0</ele><time>2026-04-29T06:53:48.099Z</time></trkpt><trkpt lat="36.2868734" lon="-2.8941562"><ele>0.0</ele><time>2026-04-29T06:53:49.098Z</time></trkpt><trkpt lat="36.2868973" lon="-2.8940543"><ele>0.0</ele><time>2026-04-29T06:53:50.099Z</time></trkpt><trkpt lat="36.286931" lon="-2.8939502"><ele>0.0</ele><time>2026-04-29T06:53:51.098Z</time></trkpt><trkpt lat="36.2869662" lon="-2.893848"><ele>0.0</ele><time>2026-04-29T06:53:52.098Z</time></trkpt><trkpt lat="36.2869898" lon="-2.8937418"><ele>0.0</ele><time>2026-04-29T06:53:53.098Z</time></trkpt><trkpt lat="36.2870199" lon="-2.8936409"><ele>0.0</ele><time>2026-04-29T06:53:54.099Z</time></trkpt><trkpt lat="36.2870502" lon="-2.8935354"><ele>0.0</ele><time>2026-04-29T06:53:55.099Z</time></trkpt><trkpt lat="36.2870791" lon="-2.8934315"><ele>0.0</ele><time>2026-04-29T06:53:56.098Z</time></trkpt><trkpt lat="36.2871232" lon="-2.8932281"><ele>0.0</ele><time>2026-04-29T06:53:58.099Z</time></trkpt><trkpt lat="36.2871414" lon="-2.8931233"><ele>0.0</ele><time>2026-04-29T06:53:59.098Z</time></trkpt><trkpt lat="36.2871558" lon="-2.8930172"><ele>0.0</ele><time>2026-04-29T06:54:00.098Z</time></trkpt><trkpt lat="36.2871765" lon="-2.8929149"><ele>0.0</ele><time>2026-04-29T06:54:01.098Z</time></trkpt><trkpt lat="36.2871985" lon="-2.8928133"><ele>0.0</ele><time>2026-04-29T06:54:02.099Z</time></trkpt><trkpt lat="36.2872169" lon="-2.8927101"><ele>0.0</ele><time>2026-04-29T06:54:03.099Z</time></trkpt><trkpt lat="36.2872284" lon="-2.8926037"><ele>0.0</ele><time>2026-04-29T06:54:04.098Z</time></trkpt><trkpt lat="36.2872438" lon="-2.8924984"><ele>0.0</ele><time>2026-04-29T06:54:05.099Z</time></trkpt><trkpt lat="36.2872365" lon="-2.8923877"><ele>0.0</ele><time>2026-04-29T06:54:06.098Z</time></trkpt><trkpt lat="36.2872535" lon="-2.8922787"><ele>0.0</ele><time>2026-04-29T06:54:07.098Z</time></trkpt><trkpt lat="36.2872684" lon="-2.8921717"><ele>0.0</ele><time>2026-04-29T06:54:08.099Z</time></trkpt><trkpt lat="36.2872905" lon="-2.8920664"><ele>0.0</ele><time>2026-04-29T06:54:09.098Z</time></trkpt><trkpt lat="36.2873097" lon="-2.891963"><ele>0.0</ele><time>2026-04-29T06:54:10.099Z</time></trkpt><trkpt lat="36.2873339" lon="-2.8918653"><ele>0.0</ele><time>2026-04-29T06:54:11.099Z</time></trkpt><trkpt lat="36.2873603" lon="-2.8917619"><ele>0.0</ele><time>2026-04-29T06:54:12.099Z</time></trkpt><trkpt lat="36.2873895" lon="-2.8916594"><ele>0.0</ele><time>2026-04-29T06:54:13.098Z</time></trkpt><trkpt lat="36.2874196" lon="-2.8915534"><ele>0.0</ele><time>2026-04-29T06:54:14.098Z</time></trkpt><trkpt lat="36.2874471" lon="-2.8914429"><ele>0.0</ele><time>2026-04-29T06:54:15.098Z</time></trkpt><trkpt lat="36.2874638" lon="-2.8913353"><ele>0.0</ele><time>2026-04-29T06:54:16.098Z</time></trkpt><trkpt lat="36.2874898" lon="-2.8911238"><ele>0.0</ele><time>2026-04-29T06:54:18.099Z</time></trkpt><trkpt lat="36.287506" lon="-2.8910244"><ele>0.0</ele><time>2026-04-29T06:54:19.099Z</time></trkpt><trkpt lat="36.287521" lon="-2.8909219"><ele>0.0</ele><time>2026-04-29T06:54:20.099Z</time></trkpt><trkpt lat="36.2875348" lon="-2.8908199"><ele>0.0</ele><time>2026-04-29T06:54:21.098Z</time></trkpt><trkpt lat="36.2875434" lon="-2.890718"><ele>0.0</ele><time>2026-04-29T06:54:22.098Z</time></trkpt><trkpt lat="36.2875771" lon="-2.8906147"><ele>0.0</ele><time>2026-04-29T06:54:23.099Z</time></trkpt><trkpt lat="36.2875937" lon="-2.8905066"><ele>0.0</ele><time>2026-04-29T06:54:24.099Z</time></trkpt><trkpt lat="36.2876084" lon="-2.8903997"><ele>0.0</ele><time>2026-04-29T06:54:25.099Z</time></trkpt><trkpt lat="36.2876177" lon="-2.8902907"><ele>0.0</ele><time>2026-04-29T06:54:26.098Z</time></trkpt><trkpt lat="36.2876391" lon="-2.890185"><ele>0.0</ele><time>2026-04-29T06:54:27.099Z</time></trkpt><trkpt lat="36.2876516" lon="-2.8900799"><ele>0.0</ele><time>2026-04-29T06:54:28.099Z</time></trkpt><trkpt lat="36.2876742" lon="-2.8899765"><ele>0.0</ele><time>2026-04-29T06:54:29.099Z</time></trkpt><trkpt lat="36.2876935" lon="-2.8898719"><ele>0.0</ele><time>2026-04-29T06:54:30.099Z</time></trkpt><trkpt lat="36.2877077" lon="-2.8897597"><ele>0.0</ele><time>2026-04-29T06:54:31.098Z</time></trkpt><trkpt lat="36.2877223" lon="-2.8896506"><ele>0.0</ele><time>2026-04-29T06:54:32.099Z</time></trkpt><trkpt lat="36.2877356" lon="-2.8895391"><ele>0.0</ele><time>2026-04-29T06:54:33.098Z</time></trkpt><trkpt lat="36.2877542" lon="-2.8894288"><ele>0.0</ele><time>2026-04-29T06:54:34.099Z</time></trkpt><trkpt lat="36.2877689" lon="-2.8893218"><ele>0.0</ele><time>2026-04-29T06:54:35.098Z</time></trkpt><trkpt lat="36.2877837" lon="-2.8892135"><ele>0.0</ele><time>2026-04-29T06:54:36.098Z</time></trkpt><trkpt lat="36.2878017" lon="-2.8891081"><ele>0.0</ele><time>2026-04-29T06:54:37.098Z</time></trkpt><trkpt lat="36.2878344" lon="-2.8888997"><ele>0.0</ele><time>2026-04-29T06:54:39.098Z</time></trkpt><trkpt lat="36.2878534" lon="-2.8887976"><ele>0.0</ele><time>2026-04-29T06:54:40.099Z</time></trkpt><trkpt lat="36.2878705" lon="-2.8886988"><ele>0.0</ele><time>2026-04-29T06:54:41.098Z</time></trkpt><trkpt lat="36.2878898" lon="-2.8885947"><ele>0.0</ele><time>2026-04-29T06:54:42.098Z</time></trkpt><trkpt lat="36.2879123" lon="-2.8884925"><ele>0.0</ele><time>2026-04-29T06:54:43.098Z</time></trkpt><trkpt lat="36.2879324" lon="-2.8883894"><ele>0.0</ele><time>2026-04-29T06:54:44.098Z</time></trkpt><trkpt lat="36.2879526" lon="-2.8882849"><ele>0.0</ele><time>2026-04-29T06:54:45.099Z</time></trkpt><trkpt lat="36.2879741" lon="-2.8881817"><ele>0.0</ele><time>2026-04-29T06:54:46.098Z</time></trkpt><trkpt lat="36.2879924" lon="-2.888074"><ele>0.0</ele><time>2026-04-29T06:54:47.098Z</time></trkpt><trkpt lat="36.2880074" lon="-2.8879666"><ele>0.0</ele><time>2026-04-29T06:54:48.098Z</time></trkpt><trkpt lat="36.2880221" lon="-2.88786"><ele>0.0</ele><time>2026-04-29T06:54:49.098Z</time></trkpt><trkpt lat="36.2880332" lon="-2.8877565"><ele>0.0</ele><time>2026-04-29T06:54:50.098Z</time></trkpt><trkpt lat="36.2880487" lon="-2.8876572"><ele>0.0</ele><time>2026-04-29T06:54:51.098Z</time></trkpt><trkpt lat="36.2880564" lon="-2.8875474"><ele>0.0</ele><time>2026-04-29T06:54:52.099Z</time></trkpt><trkpt lat="36.2880705" lon="-2.8874387"><ele>0.0</ele><time>2026-04-29T06:54:53.098Z</time></trkpt><trkpt lat="36.2880914" lon="-2.887335"><ele>0.0</ele><time>2026-04-29T06:54:54.098Z</time></trkpt><trkpt lat="36.2881046" lon="-2.8872289"><ele>0.0</ele><time>2026-04-29T06:54:55.098Z</time></trkpt><trkpt lat="36.2881263" lon="-2.8871236"><ele>0.0</ele><time>2026-04-29T06:54:56.098Z</time></trkpt><trkpt lat="36.2881579" lon="-2.8870179"><ele>0.0</ele><time>2026-04-29T06:54:57.099Z</time></trkpt><trkpt lat="36.2882006" lon="-2.8869158"><ele>0.0</ele><time>2026-04-29T06:54:58.098Z</time></trkpt><trkpt lat="36.2882451" lon="-2.8867034"><ele>0.0</ele><time>2026-04-29T06:55:00.098Z</time></trkpt><trkpt lat="36.2882588" lon="-2.8865995"><ele>0.0</ele><time>2026-04-29T06:55:01.098Z</time></trkpt><trkpt lat="36.2882774" lon="-2.8864978"><ele>0.0</ele><time>2026-04-29T06:55:02.098Z</time></trkpt><trkpt lat="36.2882994" lon="-2.8863949"><ele>0.0</ele><time>2026-04-29T06:55:03.098Z</time></trkpt><trkpt lat="36.2883141" lon="-2.88629"><ele>0.0</ele><time>2026-04-29T06:55:04.099Z</time></trkpt><trkpt lat="36.2883329" lon="-2.8861852"><ele>0.0</ele><time>2026-04-29T06:55:05.098Z</time></trkpt><trkpt lat="36.2883558" lon="-2.8860831"><ele>0.0</ele><time>2026-04-29T06:55:06.099Z</time></trkpt><trkpt lat="36.2883763" lon="-2.8859796"><ele>0.0</ele><time>2026-04-29T06:55:07.098Z</time></trkpt><trkpt lat="36.2883906" lon="-2.8858765"><ele>0.0</ele><time>2026-04-29T06:55:08.098Z</time></trkpt><trkpt lat="36.2884067" lon="-2.8857703"><ele>0.0</ele><time>2026-04-29T06:55:09.099Z</time></trkpt><trkpt lat="36.2884245" lon="-2.8856633"><ele>0.0</ele><time>2026-04-29T06:55:10.099Z</time></trkpt><trkpt lat="36.2884416" lon="-2.8855613"><ele>0.0</ele><time>2026-04-29T06:55:11.098Z</time></trkpt><trkpt lat="36.2884599" lon="-2.885454"><ele>0.0</ele><time>2026-04-29T06:55:12.098Z</time></trkpt><trkpt lat="36.2884858" lon="-2.8853473"><ele>0.0</ele><time>2026-04-29T06:55:13.099Z</time></trkpt><trkpt lat="36.2885057" lon="-2.8852377"><ele>0.0</ele><time>2026-04-29T06:55:14.099Z</time></trkpt><trkpt lat="36.2885283" lon="-2.8851263"><ele>0.0</ele><time>2026-04-29T06:55:15.098Z</time></trkpt><trkpt lat="36.2885501" lon="-2.8850201"><ele>0.0</ele><time>2026-04-29T06:55:16.099Z</time></trkpt><trkpt lat="36.2885643" lon="-2.8849207"><ele>0.0</ele><time>2026-04-29T06:55:17.099Z</time></trkpt><trkpt lat="36.2885831" lon="-2.8848183"><ele>0.0</ele><time>2026-04-29T06:55:18.099Z</time></trkpt><trkpt lat="36.2886058" lon="-2.8847133"><ele>0.0</ele><time>2026-04-29T06:55:19.098Z</time></trkpt><trkpt lat="36.2886447" lon="-2.8845063"><ele>0.0</ele><time>2026-04-29T06:55:21.098Z</time></trkpt><trkpt lat="36.2886677" lon="-2.884403"><ele>0.0</ele><time>2026-04-29T06:55:22.098Z</time></trkpt><trkpt lat="36.2886884" lon="-2.8842981"><ele>0.0</ele><time>2026-04-29T06:55:23.099Z</time></trkpt><trkpt lat="36.2887027" lon="-2.8841945"><ele>0.0</ele><time>2026-04-29T06:55:24.098Z</time></trkpt><trkpt lat="36.288719" lon="-2.8840903"><ele>0.0</ele><time>2026-04-29T06:55:25.099Z</time></trkpt><trkpt lat="36.2887368" lon="-2.883985"><ele>0.0</ele><time>2026-04-29T06:55:26.098Z</time></trkpt><trkpt lat="36.2887562" lon="-2.8838782"><ele>0.0</ele><time>2026-04-29T06:55:27.098Z</time></trkpt><trkpt lat="36.2887679" lon="-2.8837746"><ele>0.0</ele><time>2026-04-29T06:55:28.099Z</time></trkpt><trkpt lat="36.2887906" lon="-2.8836712"><ele>0.0</ele><time>2026-04-29T06:55:29.098Z</time></trkpt><trkpt lat="36.2888054" lon="-2.8835634"><ele>0.0</ele><time>2026-04-29T06:55:30.099Z</time></trkpt><trkpt lat="36.2888236" lon="-2.883457"><ele>0.0</ele><time>2026-04-29T06:55:31.098Z</time></trkpt><trkpt lat="36.2888367" lon="-2.8833462"><ele>0.0</ele><time>2026-04-29T06:55:32.098Z</time></trkpt><trkpt lat="36.2888587" lon="-2.8832414"><ele>0.0</ele><time>2026-04-29T06:55:33.099Z</time></trkpt><trkpt lat="36.2888772" lon="-2.8831409"><ele>0.0</ele><time>2026-04-29T06:55:34.098Z</time></trkpt><trkpt lat="36.2888971" lon="-2.8830394"><ele>0.0</ele><time>2026-04-29T06:55:35.098Z</time></trkpt><trkpt lat="36.2889111" lon="-2.882933"><ele>0.0</ele><time>2026-04-29T06:55:36.098Z</time></trkpt><trkpt lat="36.2889172" lon="-2.8828281"><ele>0.0</ele><time>2026-04-29T06:55:37.098Z</time></trkpt><trkpt lat="36.2889304" lon="-2.8827217"><ele>0.0</ele><time>2026-04-29T06:55:38.098Z</time></trkpt><trkpt lat="36.2889491" lon="-2.8826235"><ele>0.0</ele><time>2026-04-29T06:55:39.099Z</time></trkpt><trkpt lat="36.2889691" lon="-2.8825182"><ele>0.0</ele><time>2026-04-29T06:55:40.099Z</time></trkpt><trkpt lat="36.2889944" lon="-2.8823078"><ele>0.0</ele><time>2026-04-29T06:55:42.098Z</time></trkpt><trkpt lat="36.2890059" lon="-2.882202"><ele>0.0</ele><time>2026-04-29T06:55:43.098Z</time></trkpt><trkpt lat="36.2890174" lon="-2.8820978"><ele>0.0</ele><time>2026-04-29T06:55:44.099Z</time></trkpt><trkpt lat="36.2890263" lon="-2.8819933"><ele>0.0</ele><time>2026-04-29T06:55:45.098Z</time></trkpt><trkpt lat="36.2890388" lon="-2.8818912"><ele>0.0</ele><time>2026-04-29T06:55:46.098Z</time></trkpt><trkpt lat="36.2890548" lon="-2.8817852"><ele>0.0</ele><time>2026-04-29T06:55:47.099Z</time></trkpt><trkpt lat="36.2890683" lon="-2.8816785"><ele>0.0</ele><time>2026-04-29T06:55:48.098Z</time></trkpt><trkpt lat="36.2890805" lon="-2.8815705"><ele>0.0</ele><time>2026-04-29T06:55:49.098Z</time></trkpt><trkpt lat="36.2890881" lon="-2.8814608"><ele>0.0</ele><time>2026-04-29T06:55:50.098Z</time></trkpt><trkpt lat="36.2890981" lon="-2.8813509"><ele>0.0</ele><time>2026-04-29T06:55:51.098Z</time></trkpt><trkpt lat="36.2891093" lon="-2.8812436"><ele>0.0</ele><time>2026-04-29T06:55:52.099Z</time></trkpt><trkpt lat="36.2891209" lon="-2.8811368"><ele>0.0</ele><time>2026-04-29T06:55:53.098Z</time></trkpt><trkpt lat="36.2891321" lon="-2.8810317"><ele>0.0</ele><time>2026-04-29T06:55:54.098Z</time></trkpt><trkpt lat="36.2891439" lon="-2.8809268"><ele>0.0</ele><time>2026-04-29T06:55:55.099Z</time></trkpt><trkpt lat="36.2891631" lon="-2.8808202"><ele>0.0</ele><time>2026-04-29T06:55:56.099Z</time></trkpt><trkpt lat="36.2891771" lon="-2.8807121"><ele>0.0</ele><time>2026-04-29T06:55:57.098Z</time></trkpt><trkpt lat="36.2891946" lon="-2.8806035"><ele>0.0</ele><time>2026-04-29T06:55:58.098Z</time></trkpt><trkpt lat="36.2892161" lon="-2.8804955"><ele>0.0</ele><time>2026-04-29T06:55:59.098Z</time></trkpt><trkpt lat="36.2892408" lon="-2.8803885"><ele>0.0</ele><time>2026-04-29T06:56:00.099Z</time></trkpt><trkpt lat="36.2892673" lon="-2.8802863"><ele>0.0</ele><time>2026-04-29T06:56:01.098Z</time></trkpt><trkpt lat="36.2893027" lon="-2.8800749"><ele>0.0</ele><time>2026-04-29T06:56:03.099Z</time></trkpt><trkpt lat="36.2893229" lon="-2.8799699"><ele>0.0</ele><time>2026-04-29T06:56:04.098Z</time></trkpt><trkpt lat="36.2893458" lon="-2.879865"><ele>0.0</ele><time>2026-04-29T06:56:05.099Z</time></trkpt><trkpt lat="36.2893705" lon="-2.8797585"><ele>0.0</ele><time>2026-04-29T06:56:06.098Z</time></trkpt><trkpt lat="36.289394" lon="-2.8796519"><ele>0.0</ele><time>2026-04-29T06:56:07.098Z</time></trkpt><trkpt lat="36.2894134" lon="-2.8795452"><ele>0.0</ele><time>2026-04-29T06:56:08.098Z</time></trkpt><trkpt lat="36.2894364" lon="-2.8794386"><ele>0.0</ele><time>2026-04-29T06:56:09.098Z</time></trkpt><trkpt lat="36.2894588" lon="-2.8793338"><ele>0.0</ele><time>2026-04-29T06:56:10.098Z</time></trkpt><trkpt lat="36.2894734" lon="-2.8792256"><ele>0.0</ele><time>2026-04-29T06:56:11.098Z</time></trkpt><trkpt lat="36.2894808" lon="-2.8791185"><ele>0.0</ele><time>2026-04-29T06:56:12.098Z</time></trkpt><trkpt lat="36.2894926" lon="-2.8790131"><ele>0.0</ele><time>2026-04-29T06:56:13.098Z</time></trkpt><trkpt lat="36.2895071" lon="-2.8789052"><ele>0.0</ele><time>2026-04-29T06:56:14.098Z</time></trkpt><trkpt lat="36.2895204" lon="-2.8787997"><ele>0.0</ele><time>2026-04-29T06:56:15.098Z</time></trkpt><trkpt lat="36.2895351" lon="-2.8786932"><ele>0.0</ele><time>2026-04-29T06:56:16.099Z</time></trkpt><trkpt lat="36.2895471" lon="-2.8785864"><ele>0.0</ele><time>2026-04-29T06:56:17.098Z</time></trkpt><trkpt lat="36.2895589" lon="-2.8784829"><ele>0.0</ele><time>2026-04-29T06:56:18.098Z</time></trkpt><trkpt lat="36.2895767" lon="-2.8783813"><ele>0.0</ele><time>2026-04-29T06:56:19.098Z</time></trkpt><trkpt lat="36.2895964" lon="-2.8782793"><ele>0.0</ele><time>2026-04-29T06:56:20.099Z</time></trkpt><trkpt lat="36.2896194" lon="-2.8781748"><ele>0.0</ele><time>2026-04-29T06:56:21.098Z</time></trkpt><trkpt lat="36.2896427" lon="-2.8780727"><ele>0.0</ele><time>2026-04-29T06:56:22.098Z</time></trkpt><trkpt lat="36.2896891" lon="-2.8778586"><ele>0.0</ele><time>2026-04-29T06:56:24.098Z</time></trkpt><trkpt lat="36.2897282" lon="-2.877756"><ele>0.0</ele><time>2026-04-29T06:56:25.099Z</time></trkpt><trkpt lat="36.2897522" lon="-2.8776529"><ele>0.0</ele><time>2026-04-29T06:56:26.099Z</time></trkpt><trkpt lat="36.2897823" lon="-2.877551"><ele>0.0</ele><time>2026-04-29T06:56:27.099Z</time></trkpt><trkpt lat="36.2898019" lon="-2.8774483"><ele>0.0</ele><time>2026-04-29T06:56:28.098Z</time></trkpt><trkpt lat="36.2898191" lon="-2.8773452"><ele>0.0</ele><time>2026-04-29T06:56:29.099Z</time></trkpt><trkpt lat="36.2898285" lon="-2.8772403"><ele>0.0</ele><time>2026-04-29T06:56:30.099Z</time></trkpt><trkpt lat="36.2898427" lon="-2.8771335"><ele>0.0</ele><time>2026-04-29T06:56:31.099Z</time></trkpt><trkpt lat="36.2898557" lon="-2.877028"><ele>0.0</ele><time>2026-04-29T06:56:32.098Z</time></trkpt><trkpt lat="36.2898687" lon="-2.8769245"><ele>0.0</ele><time>2026-04-29T06:56:33.099Z</time></trkpt><trkpt lat="36.2898792" lon="-2.8768183"><ele>0.0</ele><time>2026-04-29T06:56:34.098Z</time></trkpt><trkpt lat="36.2898993" lon="-2.8767104"><ele>0.0</ele><time>2026-04-29T06:56:35.099Z</time></trkpt><trkpt lat="36.2899168" lon="-2.8766037"><ele>0.0</ele><time>2026-04-29T06:56:36.098Z</time></trkpt><trkpt lat="36.289939" lon="-2.8764971"><ele>0.0</ele><time>2026-04-29T06:56:37.098Z</time></trkpt><trkpt lat="36.2899513" lon="-2.8763917"><ele>0.0</ele><time>2026-04-29T06:56:38.099Z</time></trkpt><trkpt lat="36.2899576" lon="-2.8762867"><ele>0.0</ele><time>2026-04-29T06:56:39.098Z</time></trkpt><trkpt lat="36.2899622" lon="-2.8761773"><ele>0.0</ele><time>2026-04-29T06:56:40.098Z</time></trkpt><trkpt lat="36.2899697" lon="-2.8760731"><ele>0.0</ele><time>2026-04-29T06:56:41.099Z</time></trkpt><trkpt lat="36.2899807" lon="-2.8759681"><ele>0.0</ele><time>2026-04-29T06:56:42.098Z</time></trkpt><trkpt lat="36.2899992" lon="-2.8758615"><ele>0.0</ele><time>2026-04-29T06:56:43.098Z</time></trkpt><trkpt lat="36.2900266" lon="-2.875654"><ele>0.0</ele><time>2026-04-29T06:56:45.099Z</time></trkpt><trkpt lat="36.2900498" lon="-2.8755523"><ele>0.0</ele><time>2026-04-29T06:56:46.098Z</time></trkpt><trkpt lat="36.2900781" lon="-2.8754493"><ele>0.0</ele><time>2026-04-29T06:56:47.099Z</time></trkpt><trkpt lat="36.2901117" lon="-2.8753433"><ele>0.0</ele><time>2026-04-29T06:56:48.098Z</time></trkpt><trkpt lat="36.2901352" lon="-2.8752381"><ele>0.0</ele><time>2026-04-29T06:56:49.098Z</time></trkpt><trkpt lat="36.2901526" lon="-2.875129"><ele>0.0</ele><time>2026-04-29T06:56:50.099Z</time></trkpt><trkpt lat="36.2901737" lon="-2.875019"><ele>0.0</ele><time>2026-04-29T06:56:51.098Z</time></trkpt><trkpt lat="36.2901871" lon="-2.8749114"><ele>0.0</ele><time>2026-04-29T06:56:52.098Z</time></trkpt><trkpt lat="36.2902056" lon="-2.8748047"><ele>0.0</ele><time>2026-04-29T06:56:53.099Z</time></trkpt><trkpt lat="36.2902216" lon="-2.8746997"><ele>0.0</ele><time>2026-04-29T06:56:54.099Z</time></trkpt><trkpt lat="36.2902412" lon="-2.8745918"><ele>0.0</ele><time>2026-04-29T06:56:55.098Z</time></trkpt><trkpt lat="36.290255" lon="-2.8744891"><ele>0.0</ele><time>2026-04-29T06:56:56.098Z</time></trkpt><trkpt lat="36.2902797" lon="-2.8743846"><ele>0.0</ele><time>2026-04-29T06:56:57.098Z</time></trkpt><trkpt lat="36.2902934" lon="-2.874278"><ele>0.0</ele><time>2026-04-29T06:56:58.099Z</time></trkpt><trkpt lat="36.290307" lon="-2.8741703"><ele>0.0</ele><time>2026-04-29T06:56:59.099Z</time></trkpt><trkpt lat="36.2903177" lon="-2.8740636"><ele>0.0</ele><time>2026-04-29T06:57:00.098Z</time></trkpt><trkpt lat="36.2903306" lon="-2.8739597"><ele>0.0</ele><time>2026-04-29T06:57:01.098Z</time></trkpt><trkpt lat="36.2903468" lon="-2.8738533"><ele>0.0</ele><time>2026-04-29T06:57:02.098Z</time></trkpt><trkpt lat="36.2903634" lon="-2.8737451"><ele>0.0</ele><time>2026-04-29T06:57:03.098Z</time></trkpt><trkpt lat="36.2903794" lon="-2.8736358"><ele>0.0</ele><time>2026-04-29T06:57:04.098Z</time></trkpt><trkpt lat="36.2904181" lon="-2.873415"><ele>0.0</ele><time>2026-04-29T06:57:06.099Z</time></trkpt><trkpt lat="36.2904407" lon="-2.8733055"><ele>0.0</ele><time>2026-04-29T06:57:07.098Z</time></trkpt><trkpt lat="36.290458" lon="-2.8731969"><ele>0.0</ele><time>2026-04-29T06:57:08.099Z</time></trkpt><trkpt lat="36.290468" lon="-2.8730911"><ele>0.0</ele><time>2026-04-29T06:57:09.099Z</time></trkpt><trkpt lat="36.2904835" lon="-2.8729865"><ele>0.0</ele><time>2026-04-29T06:57:10.099Z</time></trkpt><trkpt lat="36.2904945" lon="-2.8728775"><ele>0.0</ele><time>2026-04-29T06:57:11.098Z</time></trkpt><trkpt lat="36.290513" lon="-2.87277"><ele>0.0</ele><time>2026-04-29T06:57:12.099Z</time></trkpt><trkpt lat="36.2905319" lon="-2.8726647"><ele>0.0</ele><time>2026-04-29T06:57:13.099Z</time></trkpt><trkpt lat="36.290549" lon="-2.8725627"><ele>0.0</ele><time>2026-04-29T06:57:14.099Z</time></trkpt><trkpt lat="36.290563" lon="-2.8724582"><ele>0.0</ele><time>2026-04-29T06:57:15.098Z</time></trkpt><trkpt lat="36.2905787" lon="-2.8723523"><ele>0.0</ele><time>2026-04-29T06:57:16.098Z</time></trkpt><trkpt lat="36.2905979" lon="-2.8722466"><ele>0.0</ele><time>2026-04-29T06:57:17.098Z</time></trkpt><trkpt lat="36.2906219" lon="-2.8721387"><ele>0.0</ele><time>2026-04-29T06:57:18.098Z</time></trkpt><trkpt lat="36.2906483" lon="-2.8720316"><ele>0.0</ele><time>2026-04-29T06:57:19.099Z</time></trkpt><trkpt lat="36.2906711" lon="-2.8719278"><ele>0.0</ele><time>2026-04-29T06:57:20.098Z</time></trkpt><trkpt lat="36.2906911" lon="-2.8718229"><ele>0.0</ele><time>2026-04-29T06:57:21.098Z</time></trkpt><trkpt lat="36.2907114" lon="-2.8717166"><ele>0.0</ele><time>2026-04-29T06:57:22.099Z</time></trkpt><trkpt lat="36.2907271" lon="-2.8716075"><ele>0.0</ele><time>2026-04-29T06:57:23.099Z</time></trkpt><trkpt lat="36.2907422" lon="-2.8714934"><ele>0.0</ele><time>2026-04-29T06:57:24.098Z</time></trkpt><trkpt lat="36.2907521" lon="-2.8713866"><ele>0.0</ele><time>2026-04-29T06:57:25.098Z</time></trkpt><trkpt lat="36.2907733" lon="-2.8711748"><ele>0.0</ele><time>2026-04-29T06:57:27.098Z</time></trkpt><trkpt lat="36.2907834" lon="-2.8710699"><ele>0.0</ele><time>2026-04-29T06:57:28.098Z</time></trkpt><trkpt lat="36.2908032" lon="-2.8709668"><ele>0.0</ele><time>2026-04-29T06:57:29.098Z</time></trkpt><trkpt lat="36.290819" lon="-2.8708603"><ele>0.0</ele><time>2026-04-29T06:57:30.099Z</time></trkpt><trkpt lat="36.290833" lon="-2.8707536"><ele>0.0</ele><time>2026-04-29T06:57:31.098Z</time></trkpt><trkpt lat="36.2908478" lon="-2.8706484"><ele>0.0</ele><time>2026-04-29T06:57:32.099Z</time></trkpt><trkpt lat="36.2908683" lon="-2.870541"><ele>0.0</ele><time>2026-04-29T06:57:33.098Z</time></trkpt><trkpt lat="36.2908877" lon="-2.8704334"><ele>0.0</ele><time>2026-04-29T06:57:34.098Z</time></trkpt><trkpt lat="36.2909131" lon="-2.8703256"><ele>0.0</ele><time>2026-04-29T06:57:35.099Z</time></trkpt><trkpt lat="36.2909354" lon="-2.8702215"><ele>0.0</ele><time>2026-04-29T06:57:36.099Z</time></trkpt><trkpt lat="36.2909574" lon="-2.8701195"><ele>0.0</ele><time>2026-04-29T06:57:37.098Z</time></trkpt><trkpt lat="36.2909775" lon="-2.8700118"><ele>0.0</ele><time>2026-04-29T06:57:38.098Z</time></trkpt><trkpt lat="36.2909946" lon="-2.8699054"><ele>0.0</ele><time>2026-04-29T06:57:39.099Z</time></trkpt><trkpt lat="36.2910143" lon="-2.8698045"><ele>0.0</ele><time>2026-04-29T06:57:40.098Z</time></trkpt><trkpt lat="36.2910239" lon="-2.8696996"><ele>0.0</ele><time>2026-04-29T06:57:41.098Z</time></trkpt><trkpt lat="36.2910431" lon="-2.8695934"><ele>0.0</ele><time>2026-04-29T06:57:42.098Z</time></trkpt><trkpt lat="36.2910612" lon="-2.869488"><ele>0.0</ele><time>2026-04-29T06:57:43.098Z</time></trkpt><trkpt lat="36.2910795" lon="-2.8693843"><ele>0.0</ele><time>2026-04-29T06:57:44.099Z</time></trkpt><trkpt lat="36.2911087" lon="-2.8692808"><ele>0.0</ele><time>2026-04-29T06:57:45.098Z</time></trkpt><trkpt lat="36.2911248" lon="-2.8691773"><ele>0.0</ele><time>2026-04-29T06:57:46.098Z</time></trkpt><trkpt lat="36.291166" lon="-2.8689649"><ele>0.0</ele><time>2026-04-29T06:57:48.099Z</time></trkpt><trkpt lat="36.2911868" lon="-2.8688537"><ele>0.0</ele><time>2026-04-29T06:57:49.098Z</time></trkpt><trkpt lat="36.2912027" lon="-2.8687422"><ele>0.0</ele><time>2026-04-29T06:57:50.098Z</time></trkpt><trkpt lat="36.2912169" lon="-2.8686366"><ele>0.0</ele><time>2026-04-29T06:57:51.099Z</time></trkpt><trkpt lat="36.2912263" lon="-2.8685299"><ele>0.0</ele><time>2026-04-29T06:57:52.098Z</time></trkpt><trkpt lat="36.291243" lon="-2.8684234"><ele>0.0</ele><time>2026-04-29T06:57:53.098Z</time></trkpt><trkpt lat="36.2912557" lon="-2.8683154"><ele>0.0</ele><time>2026-04-29T06:57:54.098Z</time></trkpt><trkpt lat="36.2912706" lon="-2.8682041"><ele>0.0</ele><time>2026-04-29T06:57:55.099Z</time></trkpt><trkpt lat="36.2912688" lon="-2.8680915"><ele>0.0</ele><time>2026-04-29T06:57:56.098Z</time></trkpt><trkpt lat="36.2912796" lon="-2.8679837"><ele>0.0</ele><time>2026-04-29T06:57:57.099Z</time></trkpt><trkpt lat="36.29129" lon="-2.8678756"><ele>0.0</ele><time>2026-04-29T06:57:58.099Z</time></trkpt><trkpt lat="36.2912931" lon="-2.8677688"><ele>0.0</ele><time>2026-04-29T06:57:59.098Z</time></trkpt><trkpt lat="36.2913062" lon="-2.8676649"><ele>0.0</ele><time>2026-04-29T06:58:00.099Z</time></trkpt><trkpt lat="36.2913211" lon="-2.8675587"><ele>0.0</ele><time>2026-04-29T06:58:01.098Z</time></trkpt><trkpt lat="36.2913415" lon="-2.8674534"><ele>0.0</ele><time>2026-04-29T06:58:02.099Z</time></trkpt><trkpt lat="36.2913602" lon="-2.8673498"><ele>0.0</ele><time>2026-04-29T06:58:03.099Z</time></trkpt><trkpt lat="36.291383" lon="-2.8672493"><ele>0.0</ele><time>2026-04-29T06:58:04.099Z</time></trkpt><trkpt lat="36.2914063" lon="-2.8671464"><ele>0.0</ele><time>2026-04-29T06:58:05.098Z</time></trkpt><trkpt lat="36.2914276" lon="-2.8670389"><ele>0.0</ele><time>2026-04-29T06:58:06.099Z</time></trkpt><trkpt lat="36.2914531" lon="-2.8669304"><ele>0.0</ele><time>2026-04-29T06:58:07.099Z</time></trkpt><trkpt lat="36.291486" lon="-2.8667102"><ele>0.0</ele><time>2026-04-29T06:58:09.099Z</time></trkpt><trkpt lat="36.2914967" lon="-2.8666031"><ele>0.0</ele><time>2026-04-29T06:58:10.099Z</time></trkpt><trkpt lat="36.2915113" lon="-2.8664922"><ele>0.0</ele><time>2026-04-29T06:58:11.099Z</time></trkpt><trkpt lat="36.2915245" lon="-2.866381"><ele>0.0</ele><time>2026-04-29T06:58:12.098Z</time></trkpt><trkpt lat="36.2915348" lon="-2.8662706"><ele>0.0</ele><time>2026-04-29T06:58:13.099Z</time></trkpt><trkpt lat="36.2915446" lon="-2.8661661"><ele>0.0</ele><time>2026-04-29T06:58:14.098Z</time></trkpt><trkpt lat="36.2915578" lon="-2.8660627"><ele>0.0</ele><time>2026-04-29T06:58:15.098Z</time></trkpt><trkpt lat="36.2915719" lon="-2.8659595"><ele>0.0</ele><time>2026-04-29T06:58:16.098Z</time></trkpt><trkpt lat="36.291591" lon="-2.8658517"><ele>0.0</ele><time>2026-04-29T06:58:17.098Z</time></trkpt><trkpt lat="36.2916096" lon="-2.8657493"><ele>0.0</ele><time>2026-04-29T06:58:18.098Z</time></trkpt><trkpt lat="36.2916309" lon="-2.8656445"><ele>0.0</ele><time>2026-04-29T06:58:19.099Z</time></trkpt><trkpt lat="36.2916555" lon="-2.86554"><ele>0.0</ele><time>2026-04-29T06:58:20.098Z</time></trkpt><trkpt lat="36.2916689" lon="-2.8654334"><ele>0.0</ele><time>2026-04-29T06:58:21.098Z</time></trkpt><trkpt lat="36.2916849" lon="-2.8653237"><ele>0.0</ele><time>2026-04-29T06:58:22.099Z</time></trkpt><trkpt lat="36.2917073" lon="-2.8652193"><ele>0.0</ele><time>2026-04-29T06:58:23.098Z</time></trkpt><trkpt lat="36.2917274" lon="-2.8651147"><ele>0.0</ele><time>2026-04-29T06:58:24.098Z</time></trkpt><trkpt lat="36.2917501" lon="-2.8650081"><ele>0.0</ele><time>2026-04-29T06:58:25.098Z</time></trkpt><trkpt lat="36.2917733" lon="-2.8649012"><ele>0.0</ele><time>2026-04-29T06:58:26.098Z</time></trkpt><trkpt lat="36.2918236" lon="-2.8648004"><ele>0.0</ele><time>2026-04-29T06:58:27.099Z</time></trkpt><trkpt lat="36.2918598" lon="-2.8646948"><ele>0.0</ele><time>2026-04-29T06:58:28.098Z</time></trkpt><trkpt lat="36.2919027" lon="-2.8644869"><ele>0.0</ele><time>2026-04-29T06:58:30.099Z</time></trkpt><trkpt lat="36.2919229" lon="-2.8643774"><ele>0.0</ele><time>2026-04-29T06:58:31.099Z</time></trkpt><trkpt lat="36.2919432" lon="-2.8642689"><ele>0.0</ele><time>2026-04-29T06:58:32.099Z</time></trkpt><trkpt lat="36.2919594" lon="-2.8641578"><ele>0.0</ele><time>2026-04-29T06:58:33.098Z</time></trkpt><trkpt lat="36.2919773" lon="-2.864049"><ele>0.0</ele><time>2026-04-29T06:58:34.099Z</time></trkpt><trkpt lat="36.291993" lon="-2.8639405"><ele>0.0</ele><time>2026-04-29T06:58:35.098Z</time></trkpt><trkpt lat="36.2919788" lon="-2.8638255"><ele>0.0</ele><time>2026-04-29T06:58:36.098Z</time></trkpt><trkpt lat="36.2919857" lon="-2.8637142"><ele>0.0</ele><time>2026-04-29T06:58:37.098Z</time></trkpt><trkpt lat="36.2919898" lon="-2.8636056"><ele>0.0</ele><time>2026-04-29T06:58:38.098Z</time></trkpt><trkpt lat="36.2920057" lon="-2.8634958"><ele>0.0</ele><time>2026-04-29T06:58:39.098Z</time></trkpt><trkpt lat="36.2920222" lon="-2.8633901"><ele>0.0</ele><time>2026-04-29T06:58:40.098Z</time></trkpt><trkpt lat="36.2920405" lon="-2.8632865"><ele>0.0</ele><time>2026-04-29T06:58:41.099Z</time></trkpt><trkpt lat="36.2920588" lon="-2.8631802"><ele>0.0</ele><time>2026-04-29T06:58:42.098Z</time></trkpt><trkpt lat="36.2920816" lon="-2.8630751"><ele>0.0</ele><time>2026-04-29T06:58:43.099Z</time></trkpt><trkpt lat="36.292095" lon="-2.862974"><ele>0.0</ele><time>2026-04-29T06:58:44.098Z</time></trkpt><trkpt lat="36.2921097" lon="-2.8628699"><ele>0.0</ele><time>2026-04-29T06:58:45.099Z</time></trkpt><trkpt lat="36.2921314" lon="-2.8627661"><ele>0.0</ele><time>2026-04-29T06:58:46.099Z</time></trkpt><trkpt lat="36.292137" lon="-2.8626583"><ele>0.0</ele><time>2026-04-29T06:58:47.099Z</time></trkpt><trkpt lat="36.2921476" lon="-2.8625557"><ele>0.0</ele><time>2026-04-29T06:58:48.098Z</time></trkpt><trkpt lat="36.2921645" lon="-2.8624523"><ele>0.0</ele><time>2026-04-29T06:58:49.098Z</time></trkpt><trkpt lat="36.2921887" lon="-2.8622459"><ele>0.0</ele><time>2026-04-29T06:58:51.099Z</time></trkpt><trkpt lat="36.2922074" lon="-2.8621384"><ele>0.0</ele><time>2026-04-29T06:58:52.098Z</time></trkpt><trkpt lat="36.2922259" lon="-2.8620282"><ele>0.0</ele><time>2026-04-29T06:58:53.099Z</time></trkpt><trkpt lat="36.2922416" lon="-2.86192"><ele>0.0</ele><time>2026-04-29T06:58:54.098Z</time></trkpt><trkpt lat="36.2922567" lon="-2.8618134"><ele>0.0</ele><time>2026-04-29T06:58:55.098Z</time></trkpt><trkpt lat="36.2922783" lon="-2.8617065"><ele>0.0</ele><time>2026-04-29T06:58:56.099Z</time></trkpt><trkpt lat="36.2923018" lon="-2.8616013"><ele>0.0</ele><time>2026-04-29T06:58:57.098Z</time></trkpt><trkpt lat="36.2923212" lon="-2.8614977"><ele>0.0</ele><time>2026-04-29T06:58:58.098Z</time></trkpt><trkpt lat="36.2923429" lon="-2.8613918"><ele>0.0</ele><time>2026-04-29T06:58:59.099Z</time></trkpt><trkpt lat="36.2923636" lon="-2.8612867"><ele>0.0</ele><time>2026-04-29T06:59:00.098Z</time></trkpt><trkpt lat="36.2923866" lon="-2.8611819"><ele>0.0</ele><time>2026-04-29T06:59:01.098Z</time></trkpt><trkpt lat="36.2924071" lon="-2.8610754"><ele>0.0</ele><time>2026-04-29T06:59:02.098Z</time></trkpt><trkpt lat="36.2924287" lon="-2.8609703"><ele>0.0</ele><time>2026-04-29T06:59:03.098Z</time></trkpt><trkpt lat="36.292418" lon="-2.8608568"><ele>0.0</ele><time>2026-04-29T06:59:04.098Z</time></trkpt><trkpt lat="36.2924074" lon="-2.8607433"><ele>0.0</ele><time>2026-04-29T06:59:05.099Z</time></trkpt><trkpt lat="36.2924188" lon="-2.8606312"><ele>0.0</ele><time>2026-04-29T06:59:06.099Z</time></trkpt><trkpt lat="36.292437" lon="-2.8605222"><ele>0.0</ele><time>2026-04-29T06:59:07.098Z</time></trkpt><trkpt lat="36.2924565" lon="-2.8604121"><ele>0.0</ele><time>2026-04-29T06:59:08.098Z</time></trkpt><trkpt lat="36.2924778" lon="-2.8603052"><ele>0.0</ele><time>2026-04-29T06:59:09.098Z</time></trkpt><trkpt lat="36.2924999" lon="-2.8601982"><ele>0.0</ele><time>2026-04-29T06:59:10.099Z</time></trkpt><trkpt lat="36.2925461" lon="-2.8599922"><ele>0.0</ele><time>2026-04-29T06:59:12.098Z</time></trkpt><trkpt lat="36.2925691" lon="-2.8598894"><ele>0.0</ele><time>2026-04-29T06:59:13.099Z</time></trkpt><trkpt lat="36.2925921" lon="-2.859786"><ele>0.0</ele><time>2026-04-29T06:59:14.098Z</time></trkpt><trkpt lat="36.2926136" lon="-2.8596824"><ele>0.0</ele><time>2026-04-29T06:59:15.099Z</time></trkpt><trkpt lat="36.2926338" lon="-2.859582"><ele>0.0</ele><time>2026-04-29T06:59:16.098Z</time></trkpt><trkpt lat="36.2926685" lon="-2.8594761"><ele>0.0</ele><time>2026-04-29T06:59:17.099Z</time></trkpt><trkpt lat="36.2926904" lon="-2.8593692"><ele>0.0</ele><time>2026-04-29T06:59:18.099Z</time></trkpt><trkpt lat="36.292718" lon="-2.8592631"><ele>0.0</ele><time>2026-04-29T06:59:19.098Z</time></trkpt><trkpt lat="36.2927405" lon="-2.8591576"><ele>0.0</ele><time>2026-04-29T06:59:20.099Z</time></trkpt><trkpt lat="36.2927676" lon="-2.8590514"><ele>0.0</ele><time>2026-04-29T06:59:21.099Z</time></trkpt><trkpt lat="36.2927904" lon="-2.8589448"><ele>0.0</ele><time>2026-04-29T06:59:22.098Z</time></trkpt><trkpt lat="36.2928179" lon="-2.8588381"><ele>0.0</ele><time>2026-04-29T06:59:23.098Z</time></trkpt><trkpt lat="36.2928426" lon="-2.8587318"><ele>0.0</ele><time>2026-04-29T06:59:24.098Z</time></trkpt><trkpt lat="36.2928663" lon="-2.8586235"><ele>0.0</ele><time>2026-04-29T06:59:25.099Z</time></trkpt><trkpt lat="36.2928856" lon="-2.8585153"><ele>0.0</ele><time>2026-04-29T06:59:26.099Z</time></trkpt><trkpt lat="36.2929025" lon="-2.8584071"><ele>0.0</ele><time>2026-04-29T06:59:27.099Z</time></trkpt><trkpt lat="36.2929263" lon="-2.8583017"><ele>0.0</ele><time>2026-04-29T06:59:28.099Z</time></trkpt><trkpt lat="36.2929473" lon="-2.8581981"><ele>0.0</ele><time>2026-04-29T06:59:29.098Z</time></trkpt><trkpt lat="36.2929704" lon="-2.8580937"><ele>0.0</ele><time>2026-04-29T06:59:30.098Z</time></trkpt><trkpt lat="36.2929937" lon="-2.8579886"><ele>0.0</ele><time>2026-04-29T06:59:31.099Z</time></trkpt><trkpt lat="36.2930228" lon="-2.8577739"><ele>0.0</ele><time>2026-04-29T06:59:33.099Z</time></trkpt><trkpt lat="36.293044" lon="-2.8576675"><ele>0.0</ele><time>2026-04-29T06:59:34.099Z</time></trkpt><trkpt lat="36.2930671" lon="-2.8575592"><ele>0.0</ele><time>2026-04-29T06:59:35.098Z</time></trkpt><trkpt lat="36.2930872" lon="-2.8574505"><ele>0.0</ele><time>2026-04-29T06:59:36.098Z</time></trkpt><trkpt lat="36.2931041" lon="-2.8573407"><ele>0.0</ele><time>2026-04-29T06:59:37.098Z</time></trkpt><trkpt lat="36.2931208" lon="-2.8572321"><ele>0.0</ele><time>2026-04-29T06:59:38.098Z</time></trkpt><trkpt lat="36.2931232" lon="-2.8571223"><ele>0.0</ele><time>2026-04-29T06:59:39.099Z</time></trkpt><trkpt lat="36.2931332" lon="-2.8570151"><ele>0.0</ele><time>2026-04-29T06:59:40.099Z</time></trkpt><trkpt lat="36.2931425" lon="-2.8569097"><ele>0.0</ele><time>2026-04-29T06:59:41.099Z</time></trkpt><trkpt lat="36.2931535" lon="-2.856806"><ele>0.0</ele><time>2026-04-29T06:59:42.098Z</time></trkpt><trkpt lat="36.2931668" lon="-2.8567012"><ele>0.0</ele><time>2026-04-29T06:59:43.098Z</time></trkpt><trkpt lat="36.293174" lon="-2.8565972"><ele>0.0</ele><time>2026-04-29T06:59:44.099Z</time></trkpt><trkpt lat="36.2931876" lon="-2.8564938"><ele>0.0</ele><time>2026-04-29T06:59:45.098Z</time></trkpt><trkpt lat="36.2931842" lon="-2.8563823"><ele>0.0</ele><time>2026-04-29T06:59:46.099Z</time></trkpt><trkpt lat="36.2931893" lon="-2.8562733"><ele>0.0</ele><time>2026-04-29T06:59:47.099Z</time></trkpt><trkpt lat="36.2932026" lon="-2.8561736"><ele>0.0</ele><time>2026-04-29T06:59:48.099Z</time></trkpt><trkpt lat="36.2932178" lon="-2.8560664"><ele>0.0</ele><time>2026-04-29T06:59:49.098Z</time></trkpt><trkpt lat="36.2932325" lon="-2.855953"><ele>0.0</ele><time>2026-04-29T06:59:50.099Z</time></trkpt><trkpt lat="36.2932452" lon="-2.8558451"><ele>0.0</ele><time>2026-04-29T06:59:51.099Z</time></trkpt><trkpt lat="36.2932596" lon="-2.8557309"><ele>0.0</ele><time>2026-04-29T06:59:52.098Z</time></trkpt><trkpt lat="36.2932925" lon="-2.8555154"><ele>0.0</ele><time>2026-04-29T06:59:54.098Z</time></trkpt><trkpt lat="36.2933139" lon="-2.8554112"><ele>0.0</ele><time>2026-04-29T06:59:55.098Z</time></trkpt><trkpt lat="36.2933339" lon="-2.8553062"><ele>0.0</ele><time>2026-04-29T06:59:56.098Z</time></trkpt><trkpt lat="36.2933529" lon="-2.8552026"><ele>0.0</ele><time>2026-04-29T06:59:57.098Z</time></trkpt><trkpt lat="36.2933683" lon="-2.8550936"><ele>0.0</ele><time>2026-04-29T06:59:58.099Z</time></trkpt><trkpt lat="36.2933907" lon="-2.8549893"><ele>0.0</ele><time>2026-04-29T06:59:59.098Z</time></trkpt><trkpt lat="36.2934067" lon="-2.8548935"><ele>0.0</ele><time>2026-04-29T07:00:00.098Z</time></trkpt><trkpt lat="36.2934233" lon="-2.8547897"><ele>0.0</ele><time>2026-04-29T07:00:01.098Z</time></trkpt><trkpt lat="36.293437" lon="-2.8546862"><ele>0.0</ele><time>2026-04-29T07:00:02.098Z</time></trkpt><trkpt lat="36.2934534" lon="-2.8545839"><ele>0.0</ele><time>2026-04-29T07:00:03.099Z</time></trkpt><trkpt lat="36.2934655" lon="-2.8544811"><ele>0.0</ele><time>2026-04-29T07:00:04.099Z</time></trkpt><trkpt lat="36.2934827" lon="-2.8543735"><ele>0.0</ele><time>2026-04-29T07:00:05.099Z</time></trkpt><trkpt lat="36.2934997" lon="-2.8542624"><ele>0.0</ele><time>2026-04-29T07:00:06.098Z</time></trkpt><trkpt lat="36.2935211" lon="-2.8541535"><ele>0.0</ele><time>2026-04-29T07:00:07.098Z</time></trkpt><trkpt lat="36.2935411" lon="-2.8540451"><ele>0.0</ele><time>2026-04-29T07:00:08.098Z</time></trkpt><trkpt lat="36.2935738" lon="-2.8539342"><ele>0.0</ele><time>2026-04-29T07:00:09.098Z</time></trkpt><trkpt lat="36.2936046" lon="-2.8538285"><ele>0.0</ele><time>2026-04-29T07:00:10.098Z</time></trkpt><trkpt lat="36.2936319" lon="-2.8537232"><ele>0.0</ele><time>2026-04-29T07:00:11.098Z</time></trkpt><trkpt lat="36.2936573" lon="-2.853618"><ele>0.0</ele><time>2026-04-29T07:00:12.098Z</time></trkpt><trkpt lat="36.2936788" lon="-2.8535101"><ele>0.0</ele><time>2026-04-29T07:00:13.099Z</time></trkpt><trkpt lat="36.2937172" lon="-2.8532981"><ele>0.0</ele><time>2026-04-29T07:00:15.098Z</time></trkpt><trkpt lat="36.2937325" lon="-2.8531902"><ele>0.0</ele><time>2026-04-29T07:00:16.098Z</time></trkpt><trkpt lat="36.2937459" lon="-2.8530875"><ele>0.0</ele><time>2026-04-29T07:00:17.099Z</time></trkpt><trkpt lat="36.2937663" lon="-2.8529801"><ele>0.0</ele><time>2026-04-29T07:00:18.098Z</time></trkpt><trkpt lat="36.2937889" lon="-2.8528733"><ele>0.0</ele><time>2026-04-29T07:00:19.098Z</time></trkpt><trkpt lat="36.2938112" lon="-2.8527698"><ele>0.0</ele><time>2026-04-29T07:00:20.098Z</time></trkpt><trkpt lat="36.29384" lon="-2.8526677"><ele>0.0</ele><time>2026-04-29T07:00:21.098Z</time></trkpt><trkpt lat="36.2938585" lon="-2.8525574"><ele>0.0</ele><time>2026-04-29T07:00:22.099Z</time></trkpt><trkpt lat="36.2938785" lon="-2.8524451"><ele>0.0</ele><time>2026-04-29T07:00:23.098Z</time></trkpt><trkpt lat="36.2938944" lon="-2.8523349"><ele>0.0</ele><time>2026-04-29T07:00:24.099Z</time></trkpt><trkpt lat="36.2939133" lon="-2.8522281"><ele>0.0</ele><time>2026-04-29T07:00:25.098Z</time></trkpt><trkpt lat="36.2939356" lon="-2.852122"><ele>0.0</ele><time>2026-04-29T07:00:26.098Z</time></trkpt><trkpt lat="36.2939552" lon="-2.8520154"><ele>0.0</ele><time>2026-04-29T07:00:27.098Z</time></trkpt><trkpt lat="36.293975" lon="-2.8519085"><ele>0.0</ele><time>2026-04-29T07:00:28.099Z</time></trkpt><trkpt lat="36.2939992" lon="-2.8518018"><ele>0.0</ele><time>2026-04-29T07:00:29.099Z</time></trkpt><trkpt lat="36.2940071" lon="-2.8516937"><ele>0.0</ele><time>2026-04-29T07:00:30.098Z</time></trkpt><trkpt lat="36.294025" lon="-2.8515883"><ele>0.0</ele><time>2026-04-29T07:00:31.098Z</time></trkpt><trkpt lat="36.2940419" lon="-2.8514845"><ele>0.0</ele><time>2026-04-29T07:00:32.099Z</time></trkpt><trkpt lat="36.2940611" lon="-2.8513802"><ele>0.0</ele><time>2026-04-29T07:00:33.099Z</time></trkpt><trkpt lat="36.2940809" lon="-2.8512749"><ele>0.0</ele><time>2026-04-29T07:00:34.098Z</time></trkpt><trkpt lat="36.2941323" lon="-2.8510615"><ele>0.0</ele><time>2026-04-29T07:00:36.098Z</time></trkpt><trkpt lat="36.29416" lon="-2.850962"><ele>0.0</ele><time>2026-04-29T07:00:37.098Z</time></trkpt><trkpt lat="36.2941798" lon="-2.8508592"><ele>0.0</ele><time>2026-04-29T07:00:38.098Z</time></trkpt><trkpt lat="36.2941982" lon="-2.8507547"><ele>0.0</ele><time>2026-04-29T07:00:39.099Z</time></trkpt><trkpt lat="36.2941997" lon="-2.850644"><ele>0.0</ele><time>2026-04-29T07:00:40.099Z</time></trkpt><trkpt lat="36.2942095" lon="-2.8505397"><ele>0.0</ele><time>2026-04-29T07:00:41.098Z</time></trkpt><trkpt lat="36.294228" lon="-2.8504278"><ele>0.0</ele><time>2026-04-29T07:00:42.099Z</time></trkpt><trkpt lat="36.2942449" lon="-2.850316"><ele>0.0</ele><time>2026-04-29T07:00:43.098Z</time></trkpt><trkpt lat="36.2942673" lon="-2.8502058"><ele>0.0</ele><time>2026-04-29T07:00:44.098Z</time></trkpt><trkpt lat="36.2942818" lon="-2.8500997"><ele>0.0</ele><time>2026-04-29T07:00:45.099Z</time></trkpt><trkpt lat="36.2943108" lon="-2.8500006"><ele>0.0</ele><time>2026-04-29T07:00:46.098Z</time></trkpt><trkpt lat="36.2943281" lon="-2.8498993"><ele>0.0</ele><time>2026-04-29T07:00:47.098Z</time></trkpt><trkpt lat="36.2943435" lon="-2.8497904"><ele>0.0</ele><time>2026-04-29T07:00:48.098Z</time></trkpt><trkpt lat="36.2943628" lon="-2.8496806"><ele>0.0</ele><time>2026-04-29T07:00:49.098Z</time></trkpt><trkpt lat="36.2943802" lon="-2.8495804"><ele>0.0</ele><time>2026-04-29T07:00:50.098Z</time></trkpt><trkpt lat="36.2943901" lon="-2.8494777"><ele>0.0</ele><time>2026-04-29T07:00:51.098Z</time></trkpt><trkpt lat="36.2944036" lon="-2.8493744"><ele>0.0</ele><time>2026-04-29T07:00:52.099Z</time></trkpt><trkpt lat="36.294413" lon="-2.8492753"><ele>0.0</ele><time>2026-04-29T07:00:53.099Z</time></trkpt><trkpt lat="36.2944241" lon="-2.8491681"><ele>0.0</ele><time>2026-04-29T07:00:54.099Z</time></trkpt><trkpt lat="36.2944287" lon="-2.8490542"><ele>0.0</ele><time>2026-04-29T07:00:55.099Z</time></trkpt><trkpt lat="36.2944507" lon="-2.8488366"><ele>0.0</ele><time>2026-04-29T07:00:57.098Z</time></trkpt><trkpt lat="36.2944562" lon="-2.8487301"><ele>0.0</ele><time>2026-04-29T07:00:58.098Z</time></trkpt><trkpt lat="36.2944712" lon="-2.8486189"><ele>0.0</ele><time>2026-04-29T07:00:59.098Z</time></trkpt><trkpt lat="36.294482" lon="-2.848513"><ele>0.0</ele><time>2026-04-29T07:01:00.098Z</time></trkpt><trkpt lat="36.2944977" lon="-2.8484109"><ele>0.0</ele><time>2026-04-29T07:01:01.098Z</time></trkpt><trkpt lat="36.2945213" lon="-2.8483019"><ele>0.0</ele><time>2026-04-29T07:01:02.099Z</time></trkpt><trkpt lat="36.2945409" lon="-2.8481949"><ele>0.0</ele><time>2026-04-29T07:01:03.098Z</time></trkpt><trkpt lat="36.2945582" lon="-2.8480854"><ele>0.0</ele><time>2026-04-29T07:01:04.098Z</time></trkpt><trkpt lat="36.2945748" lon="-2.847978"><ele>0.0</ele><time>2026-04-29T07:01:05.099Z</time></trkpt><trkpt lat="36.2945928" lon="-2.8478716"><ele>0.0</ele><time>2026-04-29T07:01:06.098Z</time></trkpt><trkpt lat="36.2946084" lon="-2.8477623"><ele>0.0</ele><time>2026-04-29T07:01:07.099Z</time></trkpt><trkpt lat="36.2946218" lon="-2.847655"><ele>0.0</ele><time>2026-04-29T07:01:08.099Z</time></trkpt><trkpt lat="36.294637" lon="-2.8475483"><ele>0.0</ele><time>2026-04-29T07:01:09.099Z</time></trkpt><trkpt lat="36.2946607" lon="-2.8474418"><ele>0.0</ele><time>2026-04-29T07:01:10.099Z</time></trkpt><trkpt lat="36.2946782" lon="-2.8473323"><ele>0.0</ele><time>2026-04-29T07:01:11.099Z</time></trkpt><trkpt lat="36.294698" lon="-2.8472152"><ele>0.0</ele><time>2026-04-29T07:01:12.098Z</time></trkpt><trkpt lat="36.2947194" lon="-2.8471084"><ele>0.0</ele><time>2026-04-29T07:01:13.099Z</time></trkpt><trkpt lat="36.2947382" lon="-2.8470003"><ele>0.0</ele><time>2026-04-29T07:01:14.099Z</time></trkpt><trkpt lat="36.2947557" lon="-2.8468947"><ele>0.0</ele><time>2026-04-29T07:01:15.098Z</time></trkpt><trkpt lat="36.2947741" lon="-2.8467899"><ele>0.0</ele><time>2026-04-29T07:01:16.099Z</time></trkpt><trkpt lat="36.2948133" lon="-2.8465723"><ele>0.0</ele><time>2026-04-29T07:01:18.099Z</time></trkpt><trkpt lat="36.2948379" lon="-2.8464569"><ele>0.0</ele><time>2026-04-29T07:01:19.098Z</time></trkpt><trkpt lat="36.2948603" lon="-2.846352"><ele>0.0</ele><time>2026-04-29T07:01:20.098Z</time></trkpt><trkpt lat="36.2948808" lon="-2.8462414"><ele>0.0</ele><time>2026-04-29T07:01:21.098Z</time></trkpt><trkpt lat="36.2949065" lon="-2.8461337"><ele>0.0</ele><time>2026-04-29T07:01:22.099Z</time></trkpt><trkpt lat="36.2949262" lon="-2.8460296"><ele>0.0</ele><time>2026-04-29T07:01:23.098Z</time></trkpt><trkpt lat="36.2949445" lon="-2.8459261"><ele>0.0</ele><time>2026-04-29T07:01:24.099Z</time></trkpt><trkpt lat="36.2949433" lon="-2.8458157"><ele>0.0</ele><time>2026-04-29T07:01:25.098Z</time></trkpt><trkpt lat="36.2949455" lon="-2.8457084"><ele>0.0</ele><time>2026-04-29T07:01:26.098Z</time></trkpt><trkpt lat="36.2949657" lon="-2.845602"><ele>0.0</ele><time>2026-04-29T07:01:27.098Z</time></trkpt><trkpt lat="36.2949981" lon="-2.8454983"><ele>0.0</ele><time>2026-04-29T07:01:28.099Z</time></trkpt><trkpt lat="36.2950171" lon="-2.8453949"><ele>0.0</ele><time>2026-04-29T07:01:29.098Z</time></trkpt><trkpt lat="36.2950384" lon="-2.8452869"><ele>0.0</ele><time>2026-04-29T07:01:30.099Z</time></trkpt><trkpt lat="36.2950618" lon="-2.8451776"><ele>0.0</ele><time>2026-04-29T07:01:31.099Z</time></trkpt><trkpt lat="36.295084" lon="-2.8450701"><ele>0.0</ele><time>2026-04-29T07:01:32.099Z</time></trkpt><trkpt lat="36.2950998" lon="-2.8449653"><ele>0.0</ele><time>2026-04-29T07:01:33.098Z</time></trkpt><trkpt lat="36.295119" lon="-2.84486"><ele>0.0</ele><time>2026-04-29T07:01:34.098Z</time></trkpt><trkpt lat="36.2951304" lon="-2.8447577"><ele>0.0</ele><time>2026-04-29T07:01:35.098Z</time></trkpt><trkpt lat="36.295146" lon="-2.8446475"><ele>0.0</ele><time>2026-04-29T07:01:36.098Z</time></trkpt><trkpt lat="36.2951579" lon="-2.8445373"><ele>0.0</ele><time>2026-04-29T07:01:37.099Z</time></trkpt><trkpt lat="36.2951891" lon="-2.8443161"><ele>0.0</ele><time>2026-04-29T07:01:39.099Z</time></trkpt><trkpt lat="36.2952082" lon="-2.8442082"><ele>0.0</ele><time>2026-04-29T07:01:40.099Z</time></trkpt><trkpt lat="36.2952212" lon="-2.8441017"><ele>0.0</ele><time>2026-04-29T07:01:41.098Z</time></trkpt><trkpt lat="36.295239" lon="-2.8439951"><ele>0.0</ele><time>2026-04-29T07:01:42.099Z</time></trkpt><trkpt lat="36.2952601" lon="-2.843891"><ele>0.0</ele><time>2026-04-29T07:01:43.099Z</time></trkpt><trkpt lat="36.2952732" lon="-2.8437837"><ele>0.0</ele><time>2026-04-29T07:01:44.098Z</time></trkpt><trkpt lat="36.295285" lon="-2.8436813"><ele>0.0</ele><time>2026-04-29T07:01:45.098Z</time></trkpt><trkpt lat="36.2953011" lon="-2.8435769"><ele>0.0</ele><time>2026-04-29T07:01:46.098Z</time></trkpt><trkpt lat="36.2953156" lon="-2.8434731"><ele>0.0</ele><time>2026-04-29T07:01:47.099Z</time></trkpt><trkpt lat="36.2953334" lon="-2.8433696"><ele>0.0</ele><time>2026-04-29T07:01:48.098Z</time></trkpt><trkpt lat="36.2953473" lon="-2.8432644"><ele>0.0</ele><time>2026-04-29T07:01:49.098Z</time></trkpt><trkpt lat="36.2953618" lon="-2.843157"><ele>0.0</ele><time>2026-04-29T07:01:50.099Z</time></trkpt><trkpt lat="36.2953751" lon="-2.8430527"><ele>0.0</ele><time>2026-04-29T07:01:51.098Z</time></trkpt><trkpt lat="36.2953886" lon="-2.8429462"><ele>0.0</ele><time>2026-04-29T07:01:52.099Z</time></trkpt><trkpt lat="36.2954014" lon="-2.8428394"><ele>0.0</ele><time>2026-04-29T07:01:53.099Z</time></trkpt><trkpt lat="36.2954218" lon="-2.8427344"><ele>0.0</ele><time>2026-04-29T07:01:54.098Z</time></trkpt><trkpt lat="36.2954421" lon="-2.842628"><ele>0.0</ele><time>2026-04-29T07:01:55.098Z</time></trkpt><trkpt lat="36.2954523" lon="-2.8425271"><ele>0.0</ele><time>2026-04-29T07:01:56.098Z</time></trkpt><trkpt lat="36.2954621" lon="-2.84242"><ele>0.0</ele><time>2026-04-29T07:01:57.099Z</time></trkpt><trkpt lat="36.2954751" lon="-2.8423075"><ele>0.0</ele><time>2026-04-29T07:01:58.098Z</time></trkpt><trkpt lat="36.2955201" lon="-2.8420948"><ele>0.0</ele><time>2026-04-29T07:02:00.099Z</time></trkpt><trkpt lat="36.295545" lon="-2.8419837"><ele>0.0</ele><time>2026-04-29T07:02:01.099Z</time></trkpt><trkpt lat="36.2955658" lon="-2.8418761"><ele>0.0</ele><time>2026-04-29T07:02:02.098Z</time></trkpt><trkpt lat="36.29558" lon="-2.8417684"><ele>0.0</ele><time>2026-04-29T07:02:03.099Z</time></trkpt><trkpt lat="36.2956013" lon="-2.8416606"><ele>0.0</ele><time>2026-04-29T07:02:04.099Z</time></trkpt><trkpt lat="36.2956197" lon="-2.8415505"><ele>0.0</ele><time>2026-04-29T07:02:05.098Z</time></trkpt><trkpt lat="36.2956446" lon="-2.8414467"><ele>0.0</ele><time>2026-04-29T07:02:06.098Z</time></trkpt><trkpt lat="36.295665" lon="-2.841347"><ele>0.0</ele><time>2026-04-29T07:02:07.098Z</time></trkpt><trkpt lat="36.295682" lon="-2.8412428"><ele>0.0</ele><time>2026-04-29T07:02:08.099Z</time></trkpt><trkpt lat="36.2956947" lon="-2.841137"><ele>0.0</ele><time>2026-04-29T07:02:09.099Z</time></trkpt><trkpt lat="36.2957109" lon="-2.8410302"><ele>0.0</ele><time>2026-04-29T07:02:10.099Z</time></trkpt><trkpt lat="36.2957291" lon="-2.8409206"><ele>0.0</ele><time>2026-04-29T07:02:11.098Z</time></trkpt><trkpt lat="36.2957489" lon="-2.8408121"><ele>0.0</ele><time>2026-04-29T07:02:12.098Z</time></trkpt><trkpt lat="36.2957715" lon="-2.8407049"><ele>0.0</ele><time>2026-04-29T07:02:13.099Z</time></trkpt><trkpt lat="36.2957946" lon="-2.8405957"><ele>0.0</ele><time>2026-04-29T07:02:14.099Z</time></trkpt><trkpt lat="36.2958175" lon="-2.8404897"><ele>0.0</ele><time>2026-04-29T07:02:15.099Z</time></trkpt><trkpt lat="36.2958563" lon="-2.8403889"><ele>0.0</ele><time>2026-04-29T07:02:16.098Z</time></trkpt><trkpt lat="36.295882" lon="-2.8402831"><ele>0.0</ele><time>2026-04-29T07:02:17.099Z</time></trkpt><trkpt lat="36.2959002" lon="-2.8401755"><ele>0.0</ele><time>2026-04-29T07:02:18.098Z</time></trkpt><trkpt lat="36.2959212" lon="-2.8400654"><ele>0.0</ele><time>2026-04-29T07:02:19.098Z</time></trkpt><trkpt lat="36.2959488" lon="-2.839853"><ele>0.0</ele><time>2026-04-29T07:02:21.098Z</time></trkpt><trkpt lat="36.2959638" lon="-2.8397429"><ele>0.0</ele><time>2026-04-29T07:02:22.099Z</time></trkpt><trkpt lat="36.2959835" lon="-2.8396398"><ele>0.0</ele><time>2026-04-29T07:02:23.098Z</time></trkpt><trkpt lat="36.295999" lon="-2.8395336"><ele>0.0</ele><time>2026-04-29T07:02:24.098Z</time></trkpt><trkpt lat="36.2960313" lon="-2.839431"><ele>0.0</ele><time>2026-04-29T07:02:25.099Z</time></trkpt><trkpt lat="36.2960478" lon="-2.8393238"><ele>0.0</ele><time>2026-04-29T07:02:26.098Z</time></trkpt><trkpt lat="36.2960655" lon="-2.8392174"><ele>0.0</ele><time>2026-04-29T07:02:27.098Z</time></trkpt><trkpt lat="36.2960793" lon="-2.8391146"><ele>0.0</ele><time>2026-04-29T07:02:28.098Z</time></trkpt><trkpt lat="36.2960968" lon="-2.8390102"><ele>0.0</ele><time>2026-04-29T07:02:29.099Z</time></trkpt><trkpt lat="36.2961135" lon="-2.838898"><ele>0.0</ele><time>2026-04-29T07:02:30.099Z</time></trkpt><trkpt lat="36.2961261" lon="-2.8387874"><ele>0.0</ele><time>2026-04-29T07:02:31.099Z</time></trkpt><trkpt lat="36.2961378" lon="-2.8386803"><ele>0.0</ele><time>2026-04-29T07:02:32.098Z</time></trkpt><trkpt lat="36.296151" lon="-2.8385676"><ele>0.0</ele><time>2026-04-29T07:02:33.098Z</time></trkpt><trkpt lat="36.296164" lon="-2.8384559"><ele>0.0</ele><time>2026-04-29T07:02:34.099Z</time></trkpt><trkpt lat="36.2961761" lon="-2.8383457"><ele>0.0</ele><time>2026-04-29T07:02:35.098Z</time></trkpt><trkpt lat="36.296186" lon="-2.8382338"><ele>0.0</ele><time>2026-04-29T07:02:36.098Z</time></trkpt><trkpt lat="36.2962017" lon="-2.8381194"><ele>0.0</ele><time>2026-04-29T07:02:37.098Z</time></trkpt><trkpt lat="36.2962125" lon="-2.8380147"><ele>0.0</ele><time>2026-04-29T07:02:38.099Z</time></trkpt><trkpt lat="36.296224" lon="-2.8379112"><ele>0.0</ele><time>2026-04-29T07:02:39.098Z</time></trkpt><trkpt lat="36.2962427" lon="-2.8378078"><ele>0.0</ele><time>2026-04-29T07:02:40.099Z</time></trkpt><trkpt lat="36.296316" lon="-2.8376014"><ele>0.0</ele><time>2026-04-29T07:02:42.099Z</time></trkpt><trkpt lat="36.2963252" lon="-2.8374978"><ele>0.0</ele><time>2026-04-29T07:02:43.099Z</time></trkpt><trkpt lat="36.296333" lon="-2.8373845"><ele>0.0</ele><time>2026-04-29T07:02:44.098Z</time></trkpt><trkpt lat="36.2963425" lon="-2.837278"><ele>0.0</ele><time>2026-04-29T07:02:45.099Z</time></trkpt><trkpt lat="36.2963408" lon="-2.8371631"><ele>0.0</ele><time>2026-04-29T07:02:46.098Z</time></trkpt><trkpt lat="36.2963507" lon="-2.837055"><ele>0.0</ele><time>2026-04-29T07:02:47.099Z</time></trkpt><trkpt lat="36.2963635" lon="-2.8369424"><ele>0.0</ele><time>2026-04-29T07:02:48.098Z</time></trkpt><trkpt lat="36.2963885" lon="-2.8368321"><ele>0.0</ele><time>2026-04-29T07:02:49.098Z</time></trkpt><trkpt lat="36.2964051" lon="-2.8367249"><ele>0.0</ele><time>2026-04-29T07:02:50.099Z</time></trkpt><trkpt lat="36.2964207" lon="-2.8366172"><ele>0.0</ele><time>2026-04-29T07:02:51.099Z</time></trkpt><trkpt lat="36.2964401" lon="-2.8365099"><ele>0.0</ele><time>2026-04-29T07:02:52.098Z</time></trkpt><trkpt lat="36.2964621" lon="-2.8364051"><ele>0.0</ele><time>2026-04-29T07:02:53.098Z</time></trkpt><trkpt lat="36.2964847" lon="-2.8363002"><ele>0.0</ele><time>2026-04-29T07:02:54.099Z</time></trkpt><trkpt lat="36.2965049" lon="-2.8361922"><ele>0.0</ele><time>2026-04-29T07:02:55.099Z</time></trkpt><trkpt lat="36.2965105" lon="-2.8360824"><ele>0.0</ele><time>2026-04-29T07:02:56.099Z</time></trkpt><trkpt lat="36.2965253" lon="-2.8359767"><ele>0.0</ele><time>2026-04-29T07:02:57.099Z</time></trkpt><trkpt lat="36.2965459" lon="-2.8358718"><ele>0.0</ele><time>2026-04-29T07:02:58.098Z</time></trkpt><trkpt lat="36.2965662" lon="-2.8357663"><ele>0.0</ele><time>2026-04-29T07:02:59.098Z</time></trkpt><trkpt lat="36.296569" lon="-2.8356556"><ele>0.0</ele><time>2026-04-29T07:03:00.098Z</time></trkpt><trkpt lat="36.2965723" lon="-2.8355481"><ele>0.0</ele><time>2026-04-29T07:03:01.098Z</time></trkpt><trkpt lat="36.2965907" lon="-2.83533"><ele>0.0</ele><time>2026-04-29T07:03:03.098Z</time></trkpt><trkpt lat="36.296589" lon="-2.8352215"><ele>0.0</ele><time>2026-04-29T07:03:04.098Z</time></trkpt><trkpt lat="36.2965945" lon="-2.8351208"><ele>0.0</ele><time>2026-04-29T07:03:05.098Z</time></trkpt><trkpt lat="36.2966027" lon="-2.8350148"><ele>0.0</ele><time>2026-04-29T07:03:06.098Z</time></trkpt><trkpt lat="36.2966032" lon="-2.8349056"><ele>0.0</ele><time>2026-04-29T07:03:07.098Z</time></trkpt><trkpt lat="36.2966172" lon="-2.8348009"><ele>0.0</ele><time>2026-04-29T07:03:08.099Z</time></trkpt><trkpt lat="36.2966349" lon="-2.834693"><ele>0.0</ele><time>2026-04-29T07:03:09.099Z</time></trkpt><trkpt lat="36.2966633" lon="-2.8345779"><ele>0.0</ele><time>2026-04-29T07:03:10.098Z</time></trkpt><trkpt lat="36.2966824" lon="-2.8344638"><ele>0.0</ele><time>2026-04-29T07:03:11.099Z</time></trkpt><trkpt lat="36.296698" lon="-2.8343603"><ele>0.0</ele><time>2026-04-29T07:03:12.099Z</time></trkpt><trkpt lat="36.2967147" lon="-2.8342549"><ele>0.0</ele><time>2026-04-29T07:03:13.098Z</time></trkpt><trkpt lat="36.2967253" lon="-2.8341439"><ele>0.0</ele><time>2026-04-29T07:03:14.098Z</time></trkpt><trkpt lat="36.2967324" lon="-2.8340306"><ele>0.0</ele><time>2026-04-29T07:03:15.098Z</time></trkpt><trkpt lat="36.2967424" lon="-2.8339217"><ele>0.0</ele><time>2026-04-29T07:03:16.099Z</time></trkpt><trkpt lat="36.2967505" lon="-2.8338103"><ele>0.0</ele><time>2026-04-29T07:03:17.098Z</time></trkpt><trkpt lat="36.2967576" lon="-2.8337015"><ele>0.0</ele><time>2026-04-29T07:03:18.098Z</time></trkpt><trkpt lat="36.2967541" lon="-2.8335874"><ele>0.0</ele><time>2026-04-29T07:03:19.099Z</time></trkpt><trkpt lat="36.2967521" lon="-2.8334736"><ele>0.0</ele><time>2026-04-29T07:03:20.098Z</time></trkpt><trkpt lat="36.2967617" lon="-2.8333662"><ele>0.0</ele><time>2026-04-29T07:03:21.099Z</time></trkpt><trkpt lat="36.2967734" lon="-2.8332613"><ele>0.0</ele><time>2026-04-29T07:03:22.099Z</time></trkpt><trkpt lat="36.2968017" lon="-2.8330527"><ele>0.0</ele><time>2026-04-29T07:03:24.098Z</time></trkpt><trkpt lat="36.2968182" lon="-2.8329475"><ele>0.0</ele><time>2026-04-29T07:03:25.099Z</time></trkpt><trkpt lat="36.2968322" lon="-2.8328459"><ele>0.0</ele><time>2026-04-29T07:03:26.098Z</time></trkpt><trkpt lat="36.2968521" lon="-2.8327428"><ele>0.0</ele><time>2026-04-29T07:03:27.098Z</time></trkpt><trkpt lat="36.2968738" lon="-2.8326367"><ele>0.0</ele><time>2026-04-29T07:03:28.098Z</time></trkpt><trkpt lat="36.296891" lon="-2.8325245"><ele>0.0</ele><time>2026-04-29T07:03:29.099Z</time></trkpt><trkpt lat="36.2969038" lon="-2.8324178"><ele>0.0</ele><time>2026-04-29T07:03:30.098Z</time></trkpt><trkpt lat="36.2969242" lon="-2.8323134"><ele>0.0</ele><time>2026-04-29T07:03:31.099Z</time></trkpt><trkpt lat="36.2969551" lon="-2.8322054"><ele>0.0</ele><time>2026-04-29T07:03:32.098Z</time></trkpt><trkpt lat="36.2969885" lon="-2.8321006"><ele>0.0</ele><time>2026-04-29T07:03:33.099Z</time></trkpt><trkpt lat="36.2970197" lon="-2.8319971"><ele>0.0</ele><time>2026-04-29T07:03:34.098Z</time></trkpt><trkpt lat="36.297051" lon="-2.8318911"><ele>0.0</ele><time>2026-04-29T07:03:35.099Z</time></trkpt><trkpt lat="36.2970716" lon="-2.8317847"><ele>0.0</ele><time>2026-04-29T07:03:36.099Z</time></trkpt><trkpt lat="36.2970903" lon="-2.831678"><ele>0.0</ele><time>2026-04-29T07:03:37.098Z</time></trkpt><trkpt lat="36.2971136" lon="-2.83157"><ele>0.0</ele><time>2026-04-29T07:03:38.099Z</time></trkpt><trkpt lat="36.2971387" lon="-2.8314691"><ele>0.0</ele><time>2026-04-29T07:03:39.098Z</time></trkpt><trkpt lat="36.297158" lon="-2.8313653"><ele>0.0</ele><time>2026-04-29T07:03:40.098Z</time></trkpt><trkpt lat="36.2971834" lon="-2.8312602"><ele>0.0</ele><time>2026-04-29T07:03:41.098Z</time></trkpt><trkpt lat="36.2972112" lon="-2.8311583"><ele>0.0</ele><time>2026-04-29T07:03:42.098Z</time></trkpt><trkpt lat="36.2972352" lon="-2.8310537"><ele>0.0</ele><time>2026-04-29T07:03:43.099Z</time></trkpt><trkpt lat="36.297294" lon="-2.8308427"><ele>0.0</ele><time>2026-04-29T07:03:45.098Z</time></trkpt><trkpt lat="36.2973385" lon="-2.8307396"><ele>0.0</ele><time>2026-04-29T07:03:46.098Z</time></trkpt><trkpt lat="36.297357" lon="-2.8306305"><ele>0.0</ele><time>2026-04-29T07:03:47.099Z</time></trkpt><trkpt lat="36.2973755" lon="-2.8305204"><ele>0.0</ele><time>2026-04-29T07:03:48.099Z</time></trkpt><trkpt lat="36.2973921" lon="-2.8304089"><ele>0.0</ele><time>2026-04-29T07:03:49.098Z</time></trkpt><trkpt lat="36.2974035" lon="-2.8302975"><ele>0.0</ele><time>2026-04-29T07:03:50.098Z</time></trkpt><trkpt lat="36.2974222" lon="-2.8301902"><ele>0.0</ele><time>2026-04-29T07:03:51.099Z</time></trkpt><trkpt lat="36.2974504" lon="-2.8300823"><ele>0.0</ele><time>2026-04-29T07:03:52.098Z</time></trkpt><trkpt lat="36.2974747" lon="-2.829978"><ele>0.0</ele><time>2026-04-29T07:03:53.098Z</time></trkpt><trkpt lat="36.2974971" lon="-2.8298732"><ele>0.0</ele><time>2026-04-29T07:03:54.098Z</time></trkpt><trkpt lat="36.2975105" lon="-2.8297683"><ele>0.0</ele><time>2026-04-29T07:03:55.098Z</time></trkpt><trkpt lat="36.2975338" lon="-2.8296676"><ele>0.0</ele><time>2026-04-29T07:03:56.098Z</time></trkpt><trkpt lat="36.2975541" lon="-2.8295643"><ele>0.0</ele><time>2026-04-29T07:03:57.098Z</time></trkpt><trkpt lat="36.2975801" lon="-2.8294608"><ele>0.0</ele><time>2026-04-29T07:03:58.098Z</time></trkpt><trkpt lat="36.2976022" lon="-2.8293576"><ele>0.0</ele><time>2026-04-29T07:03:59.098Z</time></trkpt><trkpt lat="36.2976203" lon="-2.8292516"><ele>0.0</ele><time>2026-04-29T07:04:00.098Z</time></trkpt><trkpt lat="36.2976417" lon="-2.8291434"><ele>0.0</ele><time>2026-04-29T07:04:01.098Z</time></trkpt><trkpt lat="36.2976677" lon="-2.8290313"><ele>0.0</ele><time>2026-04-29T07:04:02.099Z</time></trkpt><trkpt lat="36.2976926" lon="-2.8289195"><ele>0.0</ele><time>2026-04-29T07:04:03.098Z</time></trkpt><trkpt lat="36.2977052" lon="-2.8288062"><ele>0.0</ele><time>2026-04-29T07:04:04.099Z</time></trkpt><trkpt lat="36.2977504" lon="-2.8285917"><ele>0.0</ele><time>2026-04-29T07:04:06.098Z</time></trkpt><trkpt lat="36.2977735" lon="-2.828488"><ele>0.0</ele><time>2026-04-29T07:04:07.098Z</time></trkpt><trkpt lat="36.297794" lon="-2.8283816"><ele>0.0</ele><time>2026-04-29T07:04:08.099Z</time></trkpt><trkpt lat="36.2978083" lon="-2.8282751"><ele>0.0</ele><time>2026-04-29T07:04:09.099Z</time></trkpt><trkpt lat="36.2978227" lon="-2.8281667"><ele>0.0</ele><time>2026-04-29T07:04:10.098Z</time></trkpt><trkpt lat="36.2978416" lon="-2.8280556"><ele>0.0</ele><time>2026-04-29T07:04:11.098Z</time></trkpt><trkpt lat="36.2978573" lon="-2.8279474"><ele>0.0</ele><time>2026-04-29T07:04:12.098Z</time></trkpt><trkpt lat="36.2978737" lon="-2.8278384"><ele>0.0</ele><time>2026-04-29T07:04:13.099Z</time></trkpt><trkpt lat="36.2978878" lon="-2.8277317"><ele>0.0</ele><time>2026-04-29T07:04:14.098Z</time></trkpt><trkpt lat="36.2979042" lon="-2.827628"><ele>0.0</ele><time>2026-04-29T07:04:15.098Z</time></trkpt><trkpt lat="36.2979266" lon="-2.8275286"><ele>0.0</ele><time>2026-04-29T07:04:16.099Z</time></trkpt><trkpt lat="36.2979484" lon="-2.8274248"><ele>0.0</ele><time>2026-04-29T07:04:17.099Z</time></trkpt><trkpt lat="36.2979772" lon="-2.8273215"><ele>0.0</ele><time>2026-04-29T07:04:18.099Z</time></trkpt><trkpt lat="36.2980075" lon="-2.827211"><ele>0.0</ele><time>2026-04-29T07:04:19.098Z</time></trkpt><trkpt lat="36.2980289" lon="-2.8271049"><ele>0.0</ele><time>2026-04-29T07:04:20.098Z</time></trkpt><trkpt lat="36.2980502" lon="-2.8269984"><ele>0.0</ele><time>2026-04-29T07:04:21.098Z</time></trkpt><trkpt lat="36.2980696" lon="-2.8268917"><ele>0.0</ele><time>2026-04-29T07:04:22.099Z</time></trkpt><trkpt lat="36.2980931" lon="-2.8267865"><ele>0.0</ele><time>2026-04-29T07:04:23.098Z</time></trkpt><trkpt lat="36.2981063" lon="-2.8266768"><ele>0.0</ele><time>2026-04-29T07:04:24.098Z</time></trkpt><trkpt lat="36.298117" lon="-2.8265672"><ele>0.0</ele><time>2026-04-29T07:04:25.099Z</time></trkpt><trkpt lat="36.2981494" lon="-2.8263504"><ele>0.0</ele><time>2026-04-29T07:04:27.098Z</time></trkpt><trkpt lat="36.2981619" lon="-2.8262435"><ele>0.0</ele><time>2026-04-29T07:04:28.099Z</time></trkpt><trkpt lat="36.2981779" lon="-2.8261382"><ele>0.0</ele><time>2026-04-29T07:04:29.098Z</time></trkpt><trkpt lat="36.2981917" lon="-2.8260317"><ele>0.0</ele><time>2026-04-29T07:04:30.098Z</time></trkpt><trkpt lat="36.2982046" lon="-2.825925"><ele>0.0</ele><time>2026-04-29T07:04:31.098Z</time></trkpt><trkpt lat="36.2982237" lon="-2.8258198"><ele>0.0</ele><time>2026-04-29T07:04:32.098Z</time></trkpt><trkpt lat="36.2982436" lon="-2.8257133"><ele>0.0</ele><time>2026-04-29T07:04:33.098Z</time></trkpt><trkpt lat="36.2982695" lon="-2.8256038"><ele>0.0</ele><time>2026-04-29T07:04:34.098Z</time></trkpt><trkpt lat="36.2982892" lon="-2.8254968"><ele>0.0</ele><time>2026-04-29T07:04:35.098Z</time></trkpt><trkpt lat="36.2983103" lon="-2.8253904"><ele>0.0</ele><time>2026-04-29T07:04:36.098Z</time></trkpt><trkpt lat="36.2983307" lon="-2.8252864"><ele>0.0</ele><time>2026-04-29T07:04:37.098Z</time></trkpt><trkpt lat="36.2983478" lon="-2.82518"><ele>0.0</ele><time>2026-04-29T07:04:38.098Z</time></trkpt><trkpt lat="36.2983574" lon="-2.8250621"><ele>0.0</ele><time>2026-04-29T07:04:39.099Z</time></trkpt><trkpt lat="36.2983739" lon="-2.824955"><ele>0.0</ele><time>2026-04-29T07:04:40.098Z</time></trkpt><trkpt lat="36.2983936" lon="-2.8248525"><ele>0.0</ele><time>2026-04-29T07:04:41.099Z</time></trkpt><trkpt lat="36.2984108" lon="-2.8247477"><ele>0.0</ele><time>2026-04-29T07:04:42.099Z</time></trkpt><trkpt lat="36.2984261" lon="-2.8246459"><ele>0.0</ele><time>2026-04-29T07:04:43.099Z</time></trkpt><trkpt lat="36.298454" lon="-2.824543"><ele>0.0</ele><time>2026-04-29T07:04:44.099Z</time></trkpt><trkpt lat="36.2984694" lon="-2.824431"><ele>0.0</ele><time>2026-04-29T07:04:45.098Z</time></trkpt><trkpt lat="36.2984876" lon="-2.8243234"><ele>0.0</ele><time>2026-04-29T07:04:46.099Z</time></trkpt><trkpt lat="36.298513" lon="-2.8241098"><ele>0.0</ele><time>2026-04-29T07:04:48.098Z</time></trkpt><trkpt lat="36.2985203" lon="-2.8240004"><ele>0.0</ele><time>2026-04-29T07:04:49.098Z</time></trkpt><trkpt lat="36.2985284" lon="-2.8238988"><ele>0.0</ele><time>2026-04-29T07:04:50.099Z</time></trkpt><trkpt lat="36.2985442" lon="-2.8237949"><ele>0.0</ele><time>2026-04-29T07:04:51.098Z</time></trkpt><trkpt lat="36.2985606" lon="-2.8236915"><ele>0.0</ele><time>2026-04-29T07:04:52.099Z</time></trkpt><trkpt lat="36.2985689" lon="-2.8235842"><ele>0.0</ele><time>2026-04-29T07:04:53.098Z</time></trkpt><trkpt lat="36.2985813" lon="-2.8234784"><ele>0.0</ele><time>2026-04-29T07:04:54.098Z</time></trkpt><trkpt lat="36.2985957" lon="-2.8233746"><ele>0.0</ele><time>2026-04-29T07:04:55.098Z</time></trkpt><trkpt lat="36.2986136" lon="-2.8232655"><ele>0.0</ele><time>2026-04-29T07:04:56.099Z</time></trkpt><trkpt lat="36.2986233" lon="-2.8231567"><ele>0.0</ele><time>2026-04-29T07:04:57.098Z</time></trkpt><trkpt lat="36.2986377" lon="-2.8230514"><ele>0.0</ele><time>2026-04-29T07:04:58.099Z</time></trkpt><trkpt lat="36.2986584" lon="-2.8229422"><ele>0.0</ele><time>2026-04-29T07:04:59.098Z</time></trkpt><trkpt lat="36.2986753" lon="-2.822835"><ele>0.0</ele><time>2026-04-29T07:05:00.098Z</time></trkpt><trkpt lat="36.2986863" lon="-2.8227327"><ele>0.0</ele><time>2026-04-29T07:05:01.098Z</time></trkpt><trkpt lat="36.298693" lon="-2.8226237"><ele>0.0</ele><time>2026-04-29T07:05:02.098Z</time></trkpt><trkpt lat="36.2986909" lon="-2.8225081"><ele>0.0</ele><time>2026-04-29T07:05:03.098Z</time></trkpt><trkpt lat="36.2986981" lon="-2.8223945"><ele>0.0</ele><time>2026-04-29T07:05:04.098Z</time></trkpt><trkpt lat="36.2987082" lon="-2.822281"><ele>0.0</ele><time>2026-04-29T07:05:05.099Z</time></trkpt><trkpt lat="36.2987208" lon="-2.8221719"><ele>0.0</ele><time>2026-04-29T07:05:06.098Z</time></trkpt><trkpt lat="36.2987335" lon="-2.8220621"><ele>0.0</ele><time>2026-04-29T07:05:07.099Z</time></trkpt><trkpt lat="36.2987525" lon="-2.8218425"><ele>0.0</ele><time>2026-04-29T07:05:09.099Z</time></trkpt><trkpt lat="36.2987596" lon="-2.8217292"><ele>0.0</ele><time>2026-04-29T07:05:10.099Z</time></trkpt><trkpt lat="36.2987708" lon="-2.8216172"><ele>0.0</ele><time>2026-04-29T07:05:11.099Z</time></trkpt><trkpt lat="36.298784" lon="-2.8215069"><ele>0.0</ele><time>2026-04-29T07:05:12.099Z</time></trkpt><trkpt lat="36.2987957" lon="-2.8213999"><ele>0.0</ele><time>2026-04-29T07:05:13.099Z</time></trkpt><trkpt lat="36.2988062" lon="-2.8212903"><ele>0.0</ele><time>2026-04-29T07:05:14.099Z</time></trkpt><trkpt lat="36.2988148" lon="-2.8211863"><ele>0.0</ele><time>2026-04-29T07:05:15.098Z</time></trkpt><trkpt lat="36.2988288" lon="-2.8210827"><ele>0.0</ele><time>2026-04-29T07:05:16.098Z</time></trkpt><trkpt lat="36.2988421" lon="-2.8209776"><ele>0.0</ele><time>2026-04-29T07:05:17.098Z</time></trkpt><trkpt lat="36.2988554" lon="-2.8208756"><ele>0.0</ele><time>2026-04-29T07:05:18.098Z</time></trkpt><trkpt lat="36.2988703" lon="-2.8207725"><ele>0.0</ele><time>2026-04-29T07:05:19.099Z</time></trkpt><trkpt lat="36.2988871" lon="-2.8206605"><ele>0.0</ele><time>2026-04-29T07:05:20.098Z</time></trkpt><trkpt lat="36.2989034" lon="-2.8205488"><ele>0.0</ele><time>2026-04-29T07:05:21.098Z</time></trkpt><trkpt lat="36.2989183" lon="-2.8204375"><ele>0.0</ele><time>2026-04-29T07:05:22.098Z</time></trkpt><trkpt lat="36.2989318" lon="-2.8203284"><ele>0.0</ele><time>2026-04-29T07:05:23.099Z</time></trkpt><trkpt lat="36.2989451" lon="-2.8202211"><ele>0.0</ele><time>2026-04-29T07:05:24.099Z</time></trkpt><trkpt lat="36.2989601" lon="-2.8201133"><ele>0.0</ele><time>2026-04-29T07:05:25.099Z</time></trkpt><trkpt lat="36.2989778" lon="-2.8200009"><ele>0.0</ele><time>2026-04-29T07:05:26.098Z</time></trkpt><trkpt lat="36.2989862" lon="-2.8198933"><ele>0.0</ele><time>2026-04-29T07:05:27.099Z</time></trkpt><trkpt lat="36.2990008" lon="-2.8197892"><ele>0.0</ele><time>2026-04-29T07:05:28.099Z</time></trkpt><trkpt lat="36.2990267" lon="-2.8195756"><ele>0.0</ele><time>2026-04-29T07:05:30.098Z</time></trkpt><trkpt lat="36.2990487" lon="-2.8194671"><ele>0.0</ele><time>2026-04-29T07:05:31.098Z</time></trkpt><trkpt lat="36.2990649" lon="-2.8193599"><ele>0.0</ele><time>2026-04-29T07:05:32.099Z</time></trkpt><trkpt lat="36.2990841" lon="-2.8192516"><ele>0.0</ele><time>2026-04-29T07:05:33.099Z</time></trkpt><trkpt lat="36.2991091" lon="-2.8191446"><ele>0.0</ele><time>2026-04-29T07:05:34.098Z</time></trkpt><trkpt lat="36.2991299" lon="-2.8190422"><ele>0.0</ele><time>2026-04-29T07:05:35.099Z</time></trkpt><trkpt lat="36.2991486" lon="-2.818932"><ele>0.0</ele><time>2026-04-29T07:05:36.098Z</time></trkpt><trkpt lat="36.2991655" lon="-2.8188294"><ele>0.0</ele><time>2026-04-29T07:05:37.099Z</time></trkpt><trkpt lat="36.2991818" lon="-2.8187133"><ele>0.0</ele><time>2026-04-29T07:05:38.098Z</time></trkpt><trkpt lat="36.2992195" lon="-2.8186122"><ele>0.0</ele><time>2026-04-29T07:05:39.098Z</time></trkpt><trkpt lat="36.2992498" lon="-2.8185108"><ele>0.0</ele><time>2026-04-29T07:05:40.098Z</time></trkpt><trkpt lat="36.2992928" lon="-2.8184106"><ele>0.0</ele><time>2026-04-29T07:05:41.098Z</time></trkpt><trkpt lat="36.2993346" lon="-2.8183077"><ele>0.0</ele><time>2026-04-29T07:05:42.099Z</time></trkpt><trkpt lat="36.2993691" lon="-2.8182058"><ele>0.0</ele><time>2026-04-29T07:05:43.098Z</time></trkpt><trkpt lat="36.2994025" lon="-2.8180984"><ele>0.0</ele><time>2026-04-29T07:05:44.099Z</time></trkpt><trkpt lat="36.2994157" lon="-2.8179986"><ele>0.0</ele><time>2026-04-29T07:05:45.098Z</time></trkpt><trkpt lat="36.2994215" lon="-2.8178958"><ele>0.0</ele><time>2026-04-29T07:05:46.099Z</time></trkpt><trkpt lat="36.2994382" lon="-2.817793"><ele>0.0</ele><time>2026-04-29T07:05:47.099Z</time></trkpt><trkpt lat="36.2994649" lon="-2.8176853"><ele>0.0</ele><time>2026-04-29T07:05:48.098Z</time></trkpt><trkpt lat="36.2995019" lon="-2.8175751"><ele>0.0</ele><time>2026-04-29T07:05:49.098Z</time></trkpt><trkpt lat="36.299556" lon="-2.8173553"><ele>0.0</ele><time>2026-04-29T07:05:51.098Z</time></trkpt><trkpt lat="36.299574" lon="-2.817251"><ele>0.0</ele><time>2026-04-29T07:05:52.099Z</time></trkpt><trkpt lat="36.2995814" lon="-2.8171433"><ele>0.0</ele><time>2026-04-29T07:05:53.098Z</time></trkpt><trkpt lat="36.299594" lon="-2.8170393"><ele>0.0</ele><time>2026-04-29T07:05:54.098Z</time></trkpt><trkpt lat="36.2996097" lon="-2.8169332"><ele>0.0</ele><time>2026-04-29T07:05:55.098Z</time></trkpt><trkpt lat="36.2996307" lon="-2.8168305"><ele>0.0</ele><time>2026-04-29T07:05:56.098Z</time></trkpt><trkpt lat="36.2996506" lon="-2.8167229"><ele>0.0</ele><time>2026-04-29T07:05:57.098Z</time></trkpt><trkpt lat="36.2996699" lon="-2.8166134"><ele>0.0</ele><time>2026-04-29T07:05:58.099Z</time></trkpt><trkpt lat="36.299689" lon="-2.8165067"><ele>0.0</ele><time>2026-04-29T07:05:59.099Z</time></trkpt><trkpt lat="36.2997121" lon="-2.8164028"><ele>0.0</ele><time>2026-04-29T07:06:00.099Z</time></trkpt><trkpt lat="36.2997303" lon="-2.8162995"><ele>0.0</ele><time>2026-04-29T07:06:01.099Z</time></trkpt><trkpt lat="36.2997572" lon="-2.8161922"><ele>0.0</ele><time>2026-04-29T07:06:02.098Z</time></trkpt><trkpt lat="36.2997812" lon="-2.8160882"><ele>0.0</ele><time>2026-04-29T07:06:03.098Z</time></trkpt><trkpt lat="36.2998018" lon="-2.8159774"><ele>0.0</ele><time>2026-04-29T07:06:04.098Z</time></trkpt><trkpt lat="36.2998229" lon="-2.8158685"><ele>0.0</ele><time>2026-04-29T07:06:05.099Z</time></trkpt><trkpt lat="36.2998387" lon="-2.8157632"><ele>0.0</ele><time>2026-04-29T07:06:06.099Z</time></trkpt><trkpt lat="36.2998563" lon="-2.8156495"><ele>0.0</ele><time>2026-04-29T07:06:07.098Z</time></trkpt><trkpt lat="36.299867" lon="-2.8155358"><ele>0.0</ele><time>2026-04-29T07:06:08.098Z</time></trkpt><trkpt lat="36.2998787" lon="-2.8154282"><ele>0.0</ele><time>2026-04-29T07:06:09.099Z</time></trkpt><trkpt lat="36.2998878" lon="-2.8153215"><ele>0.0</ele><time>2026-04-29T07:06:10.099Z</time></trkpt><trkpt lat="36.2999235" lon="-2.8151111"><ele>0.0</ele><time>2026-04-29T07:06:12.098Z</time></trkpt><trkpt lat="36.2999415" lon="-2.8150048"><ele>0.0</ele><time>2026-04-29T07:06:13.099Z</time></trkpt><trkpt lat="36.2999525" lon="-2.8148954"><ele>0.0</ele><time>2026-04-29T07:06:14.098Z</time></trkpt><trkpt lat="36.2999668" lon="-2.8147898"><ele>0.0</ele><time>2026-04-29T07:06:15.099Z</time></trkpt><trkpt lat="36.2999841" lon="-2.8146819"><ele>0.0</ele><time>2026-04-29T07:06:16.099Z</time></trkpt><trkpt lat="36.2999974" lon="-2.8145733"><ele>0.0</ele><time>2026-04-29T07:06:17.098Z</time></trkpt><trkpt lat="36.3000121" lon="-2.8144707"><ele>0.0</ele><time>2026-04-29T07:06:18.098Z</time></trkpt><trkpt lat="36.3000228" lon="-2.8143663"><ele>0.0</ele><time>2026-04-29T07:06:19.099Z</time></trkpt><trkpt lat="36.3000376" lon="-2.8142653"><ele>0.0</ele><time>2026-04-29T07:06:20.099Z</time></trkpt><trkpt lat="36.3000563" lon="-2.8141568"><ele>0.0</ele><time>2026-04-29T07:06:21.098Z</time></trkpt><trkpt lat="36.3000703" lon="-2.8140469"><ele>0.0</ele><time>2026-04-29T07:06:22.098Z</time></trkpt><trkpt lat="36.3000834" lon="-2.8139412"><ele>0.0</ele><time>2026-04-29T07:06:23.099Z</time></trkpt><trkpt lat="36.3000984" lon="-2.8138348"><ele>0.0</ele><time>2026-04-29T07:06:24.098Z</time></trkpt><trkpt lat="36.3001138" lon="-2.8137297"><ele>0.0</ele><time>2026-04-29T07:06:25.098Z</time></trkpt><trkpt lat="36.300132" lon="-2.8136219"><ele>0.0</ele><time>2026-04-29T07:06:26.098Z</time></trkpt><trkpt lat="36.3001503" lon="-2.8135132"><ele>0.0</ele><time>2026-04-29T07:06:27.098Z</time></trkpt><trkpt lat="36.3001607" lon="-2.8134024"><ele>0.0</ele><time>2026-04-29T07:06:28.099Z</time></trkpt><trkpt lat="36.3001782" lon="-2.8132921"><ele>0.0</ele><time>2026-04-29T07:06:29.098Z</time></trkpt><trkpt lat="36.300195" lon="-2.8131833"><ele>0.0</ele><time>2026-04-29T07:06:30.098Z</time></trkpt><trkpt lat="36.3002117" lon="-2.8130722"><ele>0.0</ele><time>2026-04-29T07:06:31.098Z</time></trkpt><trkpt lat="36.300241" lon="-2.8128607"><ele>0.0</ele><time>2026-04-29T07:06:33.098Z</time></trkpt><trkpt lat="36.3002529" lon="-2.8127578"><ele>0.0</ele><time>2026-04-29T07:06:34.098Z</time></trkpt><trkpt lat="36.3002645" lon="-2.8126463"><ele>0.0</ele><time>2026-04-29T07:06:35.098Z</time></trkpt><trkpt lat="36.3002621" lon="-2.8125297"><ele>0.0</ele><time>2026-04-29T07:06:36.098Z</time></trkpt><trkpt lat="36.3002613" lon="-2.8124175"><ele>0.0</ele><time>2026-04-29T07:06:37.099Z</time></trkpt><trkpt lat="36.3002651" lon="-2.8123057"><ele>0.0</ele><time>2026-04-29T07:06:38.098Z</time></trkpt><trkpt lat="36.300271" lon="-2.8121908"><ele>0.0</ele><time>2026-04-29T07:06:39.098Z</time></trkpt><trkpt lat="36.3002748" lon="-2.812079"><ele>0.0</ele><time>2026-04-29T07:06:40.098Z</time></trkpt><trkpt lat="36.3002764" lon="-2.8119699"><ele>0.0</ele><time>2026-04-29T07:06:41.098Z</time></trkpt><trkpt lat="36.3002858" lon="-2.8118659"><ele>0.0</ele><time>2026-04-29T07:06:42.098Z</time></trkpt><trkpt lat="36.3002921" lon="-2.8117603"><ele>0.0</ele><time>2026-04-29T07:06:43.099Z</time></trkpt><trkpt lat="36.3003036" lon="-2.8116524"><ele>0.0</ele><time>2026-04-29T07:06:44.099Z</time></trkpt><trkpt lat="36.3003157" lon="-2.8115416"><ele>0.0</ele><time>2026-04-29T07:06:45.099Z</time></trkpt><trkpt lat="36.3003406" lon="-2.8114343"><ele>0.0</ele><time>2026-04-29T07:06:46.098Z</time></trkpt><trkpt lat="36.3003472" lon="-2.8113262"><ele>0.0</ele><time>2026-04-29T07:06:47.098Z</time></trkpt><trkpt lat="36.3003545" lon="-2.8112154"><ele>0.0</ele><time>2026-04-29T07:06:48.099Z</time></trkpt><trkpt lat="36.3003556" lon="-2.8111096"><ele>0.0</ele><time>2026-04-29T07:06:49.098Z</time></trkpt><trkpt lat="36.3003642" lon="-2.8110075"><ele>0.0</ele><time>2026-04-29T07:06:50.099Z</time></trkpt><trkpt lat="36.3003966" lon="-2.8109086"><ele>0.0</ele><time>2026-04-29T07:06:51.098Z</time></trkpt><trkpt lat="36.3004241" lon="-2.8108032"><ele>0.0</ele><time>2026-04-29T07:06:52.098Z</time></trkpt><trkpt lat="36.3004856" lon="-2.8105918"><ele>0.0</ele><time>2026-04-29T07:06:54.099Z</time></trkpt><trkpt lat="36.3005044" lon="-2.810479"><ele>0.0</ele><time>2026-04-29T07:06:55.098Z</time></trkpt><trkpt lat="36.3005228" lon="-2.8103754"><ele>0.0</ele><time>2026-04-29T07:06:56.099Z</time></trkpt><trkpt lat="36.3005397" lon="-2.810271"><ele>0.0</ele><time>2026-04-29T07:06:57.098Z</time></trkpt><trkpt lat="36.3005602" lon="-2.8101603"><ele>0.0</ele><time>2026-04-29T07:06:58.098Z</time></trkpt><trkpt lat="36.3005763" lon="-2.8100545"><ele>0.0</ele><time>2026-04-29T07:06:59.099Z</time></trkpt><trkpt lat="36.3005898" lon="-2.8099423"><ele>0.0</ele><time>2026-04-29T07:07:00.098Z</time></trkpt><trkpt lat="36.3006031" lon="-2.8098364"><ele>0.0</ele><time>2026-04-29T07:07:01.099Z</time></trkpt><trkpt lat="36.3006334" lon="-2.8097329"><ele>0.0</ele><time>2026-04-29T07:07:02.098Z</time></trkpt><trkpt lat="36.3006637" lon="-2.8096254"><ele>0.0</ele><time>2026-04-29T07:07:03.098Z</time></trkpt><trkpt lat="36.3007" lon="-2.8095159"><ele>0.0</ele><time>2026-04-29T07:07:04.098Z</time></trkpt><trkpt lat="36.3007199" lon="-2.80941"><ele>0.0</ele><time>2026-04-29T07:07:05.098Z</time></trkpt><trkpt lat="36.3007399" lon="-2.8093062"><ele>0.0</ele><time>2026-04-29T07:07:06.098Z</time></trkpt><trkpt lat="36.3007635" lon="-2.8091998"><ele>0.0</ele><time>2026-04-29T07:07:07.098Z</time></trkpt><trkpt lat="36.3007845" lon="-2.8090878"><ele>0.0</ele><time>2026-04-29T07:07:08.099Z</time></trkpt><trkpt lat="36.3008005" lon="-2.8089753"><ele>0.0</ele><time>2026-04-29T07:07:09.099Z</time></trkpt><trkpt lat="36.3008126" lon="-2.8088696"><ele>0.0</ele><time>2026-04-29T07:07:10.099Z</time></trkpt><trkpt lat="36.3008257" lon="-2.8087618"><ele>0.0</ele><time>2026-04-29T07:07:11.098Z</time></trkpt><trkpt lat="36.3008359" lon="-2.8086581"><ele>0.0</ele><time>2026-04-29T07:07:12.099Z</time></trkpt><trkpt lat="36.3008476" lon="-2.8085516"><ele>0.0</ele><time>2026-04-29T07:07:13.098Z</time></trkpt><trkpt lat="36.3008406" lon="-2.8083337"><ele>0.0</ele><time>2026-04-29T07:07:15.097Z</time></trkpt><trkpt lat="36.3008422" lon="-2.8082267"><ele>0.0</ele><time>2026-04-29T07:07:16.097Z</time></trkpt><trkpt lat="36.3008577" lon="-2.8081212"><ele>0.0</ele><time>2026-04-29T07:07:17.097Z</time></trkpt><trkpt lat="36.3008717" lon="-2.8080133"><ele>0.0</ele><time>2026-04-29T07:07:18.097Z</time></trkpt><trkpt lat="36.3008893" lon="-2.8079067"><ele>0.0</ele><time>2026-04-29T07:07:19.098Z</time></trkpt><trkpt lat="36.3009067" lon="-2.8078004"><ele>0.0</ele><time>2026-04-29T07:07:20.097Z</time></trkpt><trkpt lat="36.3009403" lon="-2.8076948"><ele>0.0</ele><time>2026-04-29T07:07:21.097Z</time></trkpt><trkpt lat="36.3009782" lon="-2.8075952"><ele>0.0</ele><time>2026-04-29T07:07:22.098Z</time></trkpt><trkpt lat="36.300987" lon="-2.8074924"><ele>0.0</ele><time>2026-04-29T07:07:23.097Z</time></trkpt><trkpt lat="36.3010086" lon="-2.8073822"><ele>0.0</ele><time>2026-04-29T07:07:24.098Z</time></trkpt><trkpt lat="36.3010204" lon="-2.8072704"><ele>0.0</ele><time>2026-04-29T07:07:25.097Z</time></trkpt><trkpt lat="36.3010482" lon="-2.8071605"><ele>0.0</ele><time>2026-04-29T07:07:26.097Z</time></trkpt><trkpt lat="36.3010678" lon="-2.8070533"><ele>0.0</ele><time>2026-04-29T07:07:27.097Z</time></trkpt><trkpt lat="36.3010896" lon="-2.8069453"><ele>0.0</ele><time>2026-04-29T07:07:28.097Z</time></trkpt><trkpt lat="36.3010977" lon="-2.8068398"><ele>0.0</ele><time>2026-04-29T07:07:29.097Z</time></trkpt><trkpt lat="36.3011056" lon="-2.8067379"><ele>0.0</ele><time>2026-04-29T07:07:30.097Z</time></trkpt><trkpt lat="36.3011218" lon="-2.8066331"><ele>0.0</ele><time>2026-04-29T07:07:31.098Z</time></trkpt><trkpt lat="36.30113" lon="-2.8065229"><ele>0.0</ele><time>2026-04-29T07:07:32.097Z</time></trkpt><trkpt lat="36.301161" lon="-2.806412"><ele>0.0</ele><time>2026-04-29T07:07:33.098Z</time></trkpt><trkpt lat="36.301175" lon="-2.8063019"><ele>0.0</ele><time>2026-04-29T07:07:34.097Z</time></trkpt><trkpt lat="36.3012316" lon="-2.8060946"><ele>0.0</ele><time>2026-04-29T07:07:36.098Z</time></trkpt><trkpt lat="36.3012396" lon="-2.805984"><ele>0.0</ele><time>2026-04-29T07:07:37.097Z</time></trkpt><trkpt lat="36.3012423" lon="-2.8058768"><ele>0.0</ele><time>2026-04-29T07:07:38.098Z</time></trkpt><trkpt lat="36.3012596" lon="-2.8057643"><ele>0.0</ele><time>2026-04-29T07:07:39.097Z</time></trkpt><trkpt lat="36.3012796" lon="-2.805657"><ele>0.0</ele><time>2026-04-29T07:07:40.097Z</time></trkpt><trkpt lat="36.3013011" lon="-2.8055544"><ele>0.0</ele><time>2026-04-29T07:07:41.097Z</time></trkpt><trkpt lat="36.3013261" lon="-2.8054509"><ele>0.0</ele><time>2026-04-29T07:07:42.098Z</time></trkpt><trkpt lat="36.3013481" lon="-2.8053493"><ele>0.0</ele><time>2026-04-29T07:07:43.098Z</time></trkpt><trkpt lat="36.3013736" lon="-2.8052422"><ele>0.0</ele><time>2026-04-29T07:07:44.097Z</time></trkpt><trkpt lat="36.3014002" lon="-2.8051379"><ele>0.0</ele><time>2026-04-29T07:07:45.097Z</time></trkpt><trkpt lat="36.3014169" lon="-2.8050276"><ele>0.0</ele><time>2026-04-29T07:07:46.097Z</time></trkpt><trkpt lat="36.3014264" lon="-2.8049126"><ele>0.0</ele><time>2026-04-29T07:07:47.097Z</time></trkpt><trkpt lat="36.3014386" lon="-2.8047979"><ele>0.0</ele><time>2026-04-29T07:07:48.098Z</time></trkpt><trkpt lat="36.3014548" lon="-2.8046914"><ele>0.0</ele><time>2026-04-29T07:07:49.098Z</time></trkpt><trkpt lat="36.3014775" lon="-2.8045906"><ele>0.0</ele><time>2026-04-29T07:07:50.098Z</time></trkpt><trkpt lat="36.3015009" lon="-2.8044853"><ele>0.0</ele><time>2026-04-29T07:07:51.098Z</time></trkpt><trkpt lat="36.301527" lon="-2.8043823"><ele>0.0</ele><time>2026-04-29T07:07:52.097Z</time></trkpt><trkpt lat="36.3015506" lon="-2.8042798"><ele>0.0</ele><time>2026-04-29T07:07:53.098Z</time></trkpt><trkpt lat="36.3015806" lon="-2.8041666"><ele>0.0</ele><time>2026-04-29T07:07:54.097Z</time></trkpt><trkpt lat="36.3015984" lon="-2.8040527"><ele>0.0</ele><time>2026-04-29T07:07:55.097Z</time></trkpt><trkpt lat="36.3016191" lon="-2.8038369"><ele>0.0</ele><time>2026-04-29T07:07:57.097Z</time></trkpt><trkpt lat="36.3016325" lon="-2.8037317"><ele>0.0</ele><time>2026-04-29T07:07:58.098Z</time></trkpt><trkpt lat="36.3016475" lon="-2.8036225"><ele>0.0</ele><time>2026-04-29T07:07:59.097Z</time></trkpt><trkpt lat="36.3016774" lon="-2.8035153"><ele>0.0</ele><time>2026-04-29T07:08:00.098Z</time></trkpt><trkpt lat="36.3017053" lon="-2.8034121"><ele>0.0</ele><time>2026-04-29T07:08:01.097Z</time></trkpt><trkpt lat="36.3017178" lon="-2.8033105"><ele>0.0</ele><time>2026-04-29T07:08:02.097Z</time></trkpt><trkpt lat="36.3017315" lon="-2.8032061"><ele>0.0</ele><time>2026-04-29T07:08:03.098Z</time></trkpt><trkpt lat="36.3017453" lon="-2.8031026"><ele>0.0</ele><time>2026-04-29T07:08:04.098Z</time></trkpt><trkpt lat="36.301766" lon="-2.8029979"><ele>0.0</ele><time>2026-04-29T07:08:05.098Z</time></trkpt><trkpt lat="36.3017921" lon="-2.8028904"><ele>0.0</ele><time>2026-04-29T07:08:06.097Z</time></trkpt><trkpt lat="36.3018105" lon="-2.8027808"><ele>0.0</ele><time>2026-04-29T07:08:07.098Z</time></trkpt><trkpt lat="36.3018312" lon="-2.8026726"><ele>0.0</ele><time>2026-04-29T07:08:08.098Z</time></trkpt><trkpt lat="36.3018457" lon="-2.8025637"><ele>0.0</ele><time>2026-04-29T07:08:09.097Z</time></trkpt><trkpt lat="36.301862" lon="-2.8024584"><ele>0.0</ele><time>2026-04-29T07:08:10.097Z</time></trkpt><trkpt lat="36.301877" lon="-2.8023519"><ele>0.0</ele><time>2026-04-29T07:08:11.097Z</time></trkpt><trkpt lat="36.3018904" lon="-2.8022432"><ele>0.0</ele><time>2026-04-29T07:08:12.098Z</time></trkpt><trkpt lat="36.3019019" lon="-2.802136"><ele>0.0</ele><time>2026-04-29T07:08:13.098Z</time></trkpt><trkpt lat="36.3019151" lon="-2.8020269"><ele>0.0</ele><time>2026-04-29T07:08:14.097Z</time></trkpt><trkpt lat="36.3019301" lon="-2.8019153"><ele>0.0</ele><time>2026-04-29T07:08:15.097Z</time></trkpt><trkpt lat="36.3019449" lon="-2.8018037"><ele>0.0</ele><time>2026-04-29T07:08:16.098Z</time></trkpt><trkpt lat="36.301982" lon="-2.8015863"><ele>0.0</ele><time>2026-04-29T07:08:18.097Z</time></trkpt><trkpt lat="36.3019968" lon="-2.8014782"><ele>0.0</ele><time>2026-04-29T07:08:19.097Z</time></trkpt><trkpt lat="36.3020089" lon="-2.80137"><ele>0.0</ele><time>2026-04-29T07:08:20.097Z</time></trkpt><trkpt lat="36.3020291" lon="-2.8012632"><ele>0.0</ele><time>2026-04-29T07:08:21.098Z</time></trkpt><trkpt lat="36.3020504" lon="-2.8011591"><ele>0.0</ele><time>2026-04-29T07:08:22.097Z</time></trkpt><trkpt lat="36.3020719" lon="-2.8010514"><ele>0.0</ele><time>2026-04-29T07:08:23.097Z</time></trkpt><trkpt lat="36.3020886" lon="-2.8009448"><ele>0.0</ele><time>2026-04-29T07:08:24.098Z</time></trkpt><trkpt lat="36.3020983" lon="-2.8008438"><ele>0.0</ele><time>2026-04-29T07:08:25.098Z</time></trkpt><trkpt lat="36.3021089" lon="-2.8007379"><ele>0.0</ele><time>2026-04-29T07:08:26.098Z</time></trkpt><trkpt lat="36.3021247" lon="-2.8006314"><ele>0.0</ele><time>2026-04-29T07:08:27.097Z</time></trkpt><trkpt lat="36.3021442" lon="-2.800525"><ele>0.0</ele><time>2026-04-29T07:08:28.097Z</time></trkpt><trkpt lat="36.3021669" lon="-2.8004156"><ele>0.0</ele><time>2026-04-29T07:08:29.098Z</time></trkpt><trkpt lat="36.3021834" lon="-2.8003012"><ele>0.0</ele><time>2026-04-29T07:08:30.098Z</time></trkpt><trkpt lat="36.3021988" lon="-2.8001891"><ele>0.0</ele><time>2026-04-29T07:08:31.097Z</time></trkpt><trkpt lat="36.3022141" lon="-2.8000746"><ele>0.0</ele><time>2026-04-29T07:08:32.098Z</time></trkpt><trkpt lat="36.3022262" lon="-2.7999624"><ele>0.0</ele><time>2026-04-29T07:08:33.097Z</time></trkpt><trkpt lat="36.3022504" lon="-2.7998605"><ele>0.0</ele><time>2026-04-29T07:08:34.097Z</time></trkpt><trkpt lat="36.302278" lon="-2.7997532"><ele>0.0</ele><time>2026-04-29T07:08:35.098Z</time></trkpt><trkpt lat="36.3022943" lon="-2.799652"><ele>0.0</ele><time>2026-04-29T07:08:36.097Z</time></trkpt><trkpt lat="36.3023186" lon="-2.7995532"><ele>0.0</ele><time>2026-04-29T07:08:37.097Z</time></trkpt><trkpt lat="36.3023378" lon="-2.7993447"><ele>0.0</ele><time>2026-04-29T07:08:39.098Z</time></trkpt><trkpt lat="36.302347" lon="-2.7992365"><ele>0.0</ele><time>2026-04-29T07:08:40.097Z</time></trkpt><trkpt lat="36.3023499" lon="-2.7991284"><ele>0.0</ele><time>2026-04-29T07:08:41.097Z</time></trkpt><trkpt lat="36.3023738" lon="-2.7990229"><ele>0.0</ele><time>2026-04-29T07:08:42.097Z</time></trkpt><trkpt lat="36.3023915" lon="-2.7989236"><ele>0.0</ele><time>2026-04-29T07:08:43.098Z</time></trkpt><trkpt lat="36.3024172" lon="-2.7988211"><ele>0.0</ele><time>2026-04-29T07:08:44.097Z</time></trkpt><trkpt lat="36.3024369" lon="-2.7987165"><ele>0.0</ele><time>2026-04-29T07:08:45.097Z</time></trkpt><trkpt lat="36.3024501" lon="-2.798607"><ele>0.0</ele><time>2026-04-29T07:08:46.098Z</time></trkpt><trkpt lat="36.3024787" lon="-2.7985001"><ele>0.0</ele><time>2026-04-29T07:08:47.098Z</time></trkpt><trkpt lat="36.302503" lon="-2.7983894"><ele>0.0</ele><time>2026-04-29T07:08:48.097Z</time></trkpt><trkpt lat="36.3025225" lon="-2.7982803"><ele>0.0</ele><time>2026-04-29T07:08:49.097Z</time></trkpt><trkpt lat="36.302535" lon="-2.7981733"><ele>0.0</ele><time>2026-04-29T07:08:50.098Z</time></trkpt><trkpt lat="36.3025563" lon="-2.7980695"><ele>0.0</ele><time>2026-04-29T07:08:51.097Z</time></trkpt><trkpt lat="36.3025754" lon="-2.7979632"><ele>0.0</ele><time>2026-04-29T07:08:52.098Z</time></trkpt><trkpt lat="36.3026013" lon="-2.7978523"><ele>0.0</ele><time>2026-04-29T07:08:53.097Z</time></trkpt><trkpt lat="36.3026178" lon="-2.7977421"><ele>0.0</ele><time>2026-04-29T07:08:54.097Z</time></trkpt><trkpt lat="36.3026303" lon="-2.7976347"><ele>0.0</ele><time>2026-04-29T07:08:55.097Z</time></trkpt><trkpt lat="36.3026461" lon="-2.7975268"><ele>0.0</ele><time>2026-04-29T07:08:56.097Z</time></trkpt><trkpt lat="36.302667" lon="-2.7974196"><ele>0.0</ele><time>2026-04-29T07:08:57.098Z</time></trkpt><trkpt lat="36.3026917" lon="-2.7973157"><ele>0.0</ele><time>2026-04-29T07:08:58.098Z</time></trkpt><trkpt lat="36.3027339" lon="-2.7970992"><ele>0.0</ele><time>2026-04-29T07:09:00.097Z</time></trkpt><trkpt lat="36.3027543" lon="-2.7969888"><ele>0.0</ele><time>2026-04-29T07:09:01.097Z</time></trkpt><trkpt lat="36.30277" lon="-2.7968744"><ele>0.0</ele><time>2026-04-29T07:09:02.097Z</time></trkpt><trkpt lat="36.3027865" lon="-2.796765"><ele>0.0</ele><time>2026-04-29T07:09:03.097Z</time></trkpt><trkpt lat="36.3027934" lon="-2.7966627"><ele>0.0</ele><time>2026-04-29T07:09:04.098Z</time></trkpt><trkpt lat="36.3027967" lon="-2.7965563"><ele>0.0</ele><time>2026-04-29T07:09:05.098Z</time></trkpt><trkpt lat="36.3028028" lon="-2.796453"><ele>0.0</ele><time>2026-04-29T07:09:06.098Z</time></trkpt><trkpt lat="36.3028162" lon="-2.7963454"><ele>0.0</ele><time>2026-04-29T07:09:07.097Z</time></trkpt><trkpt lat="36.3028298" lon="-2.796242"><ele>0.0</ele><time>2026-04-29T07:09:08.098Z</time></trkpt><trkpt lat="36.3028375" lon="-2.7961394"><ele>0.0</ele><time>2026-04-29T07:09:09.097Z</time></trkpt><trkpt lat="36.3028415" lon="-2.7960361"><ele>0.0</ele><time>2026-04-29T07:09:10.097Z</time></trkpt><trkpt lat="36.3028449" lon="-2.7959323"><ele>0.0</ele><time>2026-04-29T07:09:11.097Z</time></trkpt><trkpt lat="36.302857" lon="-2.7958236"><ele>0.0</ele><time>2026-04-29T07:09:12.097Z</time></trkpt><trkpt lat="36.3028732" lon="-2.7957109"><ele>0.0</ele><time>2026-04-29T07:09:13.098Z</time></trkpt><trkpt lat="36.3028832" lon="-2.795606"><ele>0.0</ele><time>2026-04-29T07:09:14.098Z</time></trkpt><trkpt lat="36.3029023" lon="-2.7954989"><ele>0.0</ele><time>2026-04-29T07:09:15.097Z</time></trkpt><trkpt lat="36.3029194" lon="-2.7953943"><ele>0.0</ele><time>2026-04-29T07:09:16.098Z</time></trkpt><trkpt lat="36.3029359" lon="-2.7952854"><ele>0.0</ele><time>2026-04-29T07:09:17.097Z</time></trkpt><trkpt lat="36.3029438" lon="-2.7951755"><ele>0.0</ele><time>2026-04-29T07:09:18.098Z</time></trkpt><trkpt lat="36.3029636" lon="-2.7950668"><ele>0.0</ele><time>2026-04-29T07:09:19.097Z</time></trkpt><trkpt lat="36.3030017" lon="-2.7948438"><ele>0.0</ele><time>2026-04-29T07:09:21.097Z</time></trkpt><trkpt lat="36.3030174" lon="-2.794738"><ele>0.0</ele><time>2026-04-29T07:09:22.098Z</time></trkpt><trkpt lat="36.3030345" lon="-2.7946328"><ele>0.0</ele><time>2026-04-29T07:09:23.097Z</time></trkpt><trkpt lat="36.3030516" lon="-2.7945294"><ele>0.0</ele><time>2026-04-29T07:09:24.098Z</time></trkpt><trkpt lat="36.3030681" lon="-2.7944202"><ele>0.0</ele><time>2026-04-29T07:09:25.097Z</time></trkpt><trkpt lat="36.3030862" lon="-2.7943148"><ele>0.0</ele><time>2026-04-29T07:09:26.097Z</time></trkpt><trkpt lat="36.3030988" lon="-2.7942069"><ele>0.0</ele><time>2026-04-29T07:09:27.097Z</time></trkpt><trkpt lat="36.3031186" lon="-2.7940985"><ele>0.0</ele><time>2026-04-29T07:09:28.098Z</time></trkpt><trkpt lat="36.3031435" lon="-2.7939928"><ele>0.0</ele><time>2026-04-29T07:09:29.098Z</time></trkpt><trkpt lat="36.3031656" lon="-2.7938845"><ele>0.0</ele><time>2026-04-29T07:09:30.097Z</time></trkpt><trkpt lat="36.3031794" lon="-2.7937766"><ele>0.0</ele><time>2026-04-29T07:09:31.097Z</time></trkpt><trkpt lat="36.303195" lon="-2.7936685"><ele>0.0</ele><time>2026-04-29T07:09:32.097Z</time></trkpt><trkpt lat="36.3032143" lon="-2.7935574"><ele>0.0</ele><time>2026-04-29T07:09:33.097Z</time></trkpt><trkpt lat="36.3032317" lon="-2.7934481"><ele>0.0</ele><time>2026-04-29T07:09:34.097Z</time></trkpt><trkpt lat="36.3032582" lon="-2.7933416"><ele>0.0</ele><time>2026-04-29T07:09:35.097Z</time></trkpt><trkpt lat="36.3032816" lon="-2.7932334"><ele>0.0</ele><time>2026-04-29T07:09:36.097Z</time></trkpt><trkpt lat="36.3033085" lon="-2.7931263"><ele>0.0</ele><time>2026-04-29T07:09:37.097Z</time></trkpt><trkpt lat="36.3033237" lon="-2.7930181"><ele>0.0</ele><time>2026-04-29T07:09:38.097Z</time></trkpt><trkpt lat="36.3033384" lon="-2.7929089"><ele>0.0</ele><time>2026-04-29T07:09:39.098Z</time></trkpt><trkpt lat="36.3033489" lon="-2.7927949"><ele>0.0</ele><time>2026-04-29T07:09:40.097Z</time></trkpt><trkpt lat="36.3033744" lon="-2.792588"><ele>0.0</ele><time>2026-04-29T07:09:42.098Z</time></trkpt><trkpt lat="36.3033838" lon="-2.792483"><ele>0.0</ele><time>2026-04-29T07:09:43.097Z</time></trkpt><trkpt lat="36.3034006" lon="-2.7923824"><ele>0.0</ele><time>2026-04-29T07:09:44.097Z</time></trkpt><trkpt lat="36.303425" lon="-2.7922765"><ele>0.0</ele><time>2026-04-29T07:09:45.097Z</time></trkpt><trkpt lat="36.3034488" lon="-2.7921796"><ele>0.0</ele><time>2026-04-29T07:09:46.098Z</time></trkpt><trkpt lat="36.3034648" lon="-2.7920778"><ele>0.0</ele><time>2026-04-29T07:09:47.097Z</time></trkpt><trkpt lat="36.3034873" lon="-2.7919698"><ele>0.0</ele><time>2026-04-29T07:09:48.097Z</time></trkpt><trkpt lat="36.3035096" lon="-2.7918618"><ele>0.0</ele><time>2026-04-29T07:09:49.097Z</time></trkpt><trkpt lat="36.3035314" lon="-2.7917547"><ele>0.0</ele><time>2026-04-29T07:09:50.098Z</time></trkpt><trkpt lat="36.3035526" lon="-2.7916393"><ele>0.0</ele><time>2026-04-29T07:09:51.098Z</time></trkpt><trkpt lat="36.3035742" lon="-2.791526"><ele>0.0</ele><time>2026-04-29T07:09:52.097Z</time></trkpt><trkpt lat="36.303599" lon="-2.7914172"><ele>0.0</ele><time>2026-04-29T07:09:53.097Z</time></trkpt><trkpt lat="36.3036149" lon="-2.7913072"><ele>0.0</ele><time>2026-04-29T07:09:54.097Z</time></trkpt><trkpt lat="36.3036329" lon="-2.7911956"><ele>0.0</ele><time>2026-04-29T07:09:55.097Z</time></trkpt><trkpt lat="36.30364" lon="-2.7910925"><ele>0.0</ele><time>2026-04-29T07:09:56.097Z</time></trkpt><trkpt lat="36.3036521" lon="-2.7909871"><ele>0.0</ele><time>2026-04-29T07:09:57.097Z</time></trkpt><trkpt lat="36.3036689" lon="-2.7908777"><ele>0.0</ele><time>2026-04-29T07:09:58.097Z</time></trkpt><trkpt lat="36.3036906" lon="-2.7907706"><ele>0.0</ele><time>2026-04-29T07:09:59.098Z</time></trkpt><trkpt lat="36.3037105" lon="-2.7906638"><ele>0.0</ele><time>2026-04-29T07:10:00.097Z</time></trkpt><trkpt lat="36.3037366" lon="-2.7905524"><ele>0.0</ele><time>2026-04-29T07:10:01.097Z</time></trkpt><trkpt lat="36.3037672" lon="-2.7903465"><ele>0.0</ele><time>2026-04-29T07:10:03.097Z</time></trkpt><trkpt lat="36.3037791" lon="-2.790243"><ele>0.0</ele><time>2026-04-29T07:10:04.098Z</time></trkpt><trkpt lat="36.3037892" lon="-2.7901368"><ele>0.0</ele><time>2026-04-29T07:10:05.098Z</time></trkpt><trkpt lat="36.303805" lon="-2.790024"><ele>0.0</ele><time>2026-04-29T07:10:06.097Z</time></trkpt><trkpt lat="36.3038186" lon="-2.7899139"><ele>0.0</ele><time>2026-04-29T07:10:07.098Z</time></trkpt><trkpt lat="36.3038291" lon="-2.7898057"><ele>0.0</ele><time>2026-04-29T07:10:08.098Z</time></trkpt><trkpt lat="36.3038452" lon="-2.7897037"><ele>0.0</ele><time>2026-04-29T07:10:09.097Z</time></trkpt><trkpt lat="36.3038575" lon="-2.7896037"><ele>0.0</ele><time>2026-04-29T07:10:10.098Z</time></trkpt><trkpt lat="36.3038704" lon="-2.7894969"><ele>0.0</ele><time>2026-04-29T07:10:11.097Z</time></trkpt><trkpt lat="36.3038893" lon="-2.7893886"><ele>0.0</ele><time>2026-04-29T07:10:12.098Z</time></trkpt><trkpt lat="36.3039061" lon="-2.789283"><ele>0.0</ele><time>2026-04-29T07:10:13.097Z</time></trkpt><trkpt lat="36.3039218" lon="-2.7891738"><ele>0.0</ele><time>2026-04-29T07:10:14.098Z</time></trkpt><trkpt lat="36.3039297" lon="-2.7890626"><ele>0.0</ele><time>2026-04-29T07:10:15.097Z</time></trkpt><trkpt lat="36.3039407" lon="-2.7889523"><ele>0.0</ele><time>2026-04-29T07:10:16.098Z</time></trkpt><trkpt lat="36.3039564" lon="-2.7888346"><ele>0.0</ele><time>2026-04-29T07:10:17.098Z</time></trkpt><trkpt lat="36.3039686" lon="-2.7887266"><ele>0.0</ele><time>2026-04-29T07:10:18.097Z</time></trkpt><trkpt lat="36.3039803" lon="-2.7886204"><ele>0.0</ele><time>2026-04-29T07:10:19.098Z</time></trkpt><trkpt lat="36.303992" lon="-2.7885108"><ele>0.0</ele><time>2026-04-29T07:10:20.097Z</time></trkpt><trkpt lat="36.3040094" lon="-2.7884002"><ele>0.0</ele><time>2026-04-29T07:10:21.098Z</time></trkpt><trkpt lat="36.3040266" lon="-2.7882917"><ele>0.0</ele><time>2026-04-29T07:10:22.097Z</time></trkpt><trkpt lat="36.3040654" lon="-2.7880789"><ele>0.0</ele><time>2026-04-29T07:10:24.098Z</time></trkpt><trkpt lat="36.304074" lon="-2.7879704"><ele>0.0</ele><time>2026-04-29T07:10:25.097Z</time></trkpt><trkpt lat="36.3040878" lon="-2.7878621"><ele>0.0</ele><time>2026-04-29T07:10:26.098Z</time></trkpt><trkpt lat="36.3040999" lon="-2.7877595"><ele>0.0</ele><time>2026-04-29T07:10:27.098Z</time></trkpt><trkpt lat="36.3041102" lon="-2.7876538"><ele>0.0</ele><time>2026-04-29T07:10:28.098Z</time></trkpt><trkpt lat="36.30413" lon="-2.7875525"><ele>0.0</ele><time>2026-04-29T07:10:29.097Z</time></trkpt><trkpt lat="36.3041458" lon="-2.7874464"><ele>0.0</ele><time>2026-04-29T07:10:30.097Z</time></trkpt><trkpt lat="36.3041552" lon="-2.7873384"><ele>0.0</ele><time>2026-04-29T07:10:31.097Z</time></trkpt><trkpt lat="36.3041677" lon="-2.7872246"><ele>0.0</ele><time>2026-04-29T07:10:32.097Z</time></trkpt><trkpt lat="36.3041822" lon="-2.7871167"><ele>0.0</ele><time>2026-04-29T07:10:33.097Z</time></trkpt><trkpt lat="36.3041988" lon="-2.7870101"><ele>0.0</ele><time>2026-04-29T07:10:34.097Z</time></trkpt><trkpt lat="36.3042123" lon="-2.7869048"><ele>0.0</ele><time>2026-04-29T07:10:35.098Z</time></trkpt><trkpt lat="36.3042214" lon="-2.7867981"><ele>0.0</ele><time>2026-04-29T07:10:36.097Z</time></trkpt><trkpt lat="36.3042393" lon="-2.7866888"><ele>0.0</ele><time>2026-04-29T07:10:37.098Z</time></trkpt><trkpt lat="36.3042566" lon="-2.7865816"><ele>0.0</ele><time>2026-04-29T07:10:38.097Z</time></trkpt><trkpt lat="36.3042715" lon="-2.7864804"><ele>0.0</ele><time>2026-04-29T07:10:39.097Z</time></trkpt><trkpt lat="36.3042923" lon="-2.786373"><ele>0.0</ele><time>2026-04-29T07:10:40.097Z</time></trkpt><trkpt lat="36.3043173" lon="-2.7862612"><ele>0.0</ele><time>2026-04-29T07:10:41.098Z</time></trkpt><trkpt lat="36.3043354" lon="-2.786152"><ele>0.0</ele><time>2026-04-29T07:10:42.097Z</time></trkpt><trkpt lat="36.3043549" lon="-2.7860405"><ele>0.0</ele><time>2026-04-29T07:10:43.097Z</time></trkpt><trkpt lat="36.3043839" lon="-2.7858281"><ele>0.0</ele><time>2026-04-29T07:10:45.097Z</time></trkpt><trkpt lat="36.3043975" lon="-2.7857217"><ele>0.0</ele><time>2026-04-29T07:10:46.097Z</time></trkpt><trkpt lat="36.3044132" lon="-2.7856166"><ele>0.0</ele><time>2026-04-29T07:10:47.097Z</time></trkpt><trkpt lat="36.3044338" lon="-2.7855096"><ele>0.0</ele><time>2026-04-29T07:10:48.097Z</time></trkpt><trkpt lat="36.3044574" lon="-2.7854084"><ele>0.0</ele><time>2026-04-29T07:10:49.098Z</time></trkpt><trkpt lat="36.3044839" lon="-2.7853042"><ele>0.0</ele><time>2026-04-29T07:10:50.097Z</time></trkpt><trkpt lat="36.3045079" lon="-2.7851962"><ele>0.0</ele><time>2026-04-29T07:10:51.098Z</time></trkpt><trkpt lat="36.3045312" lon="-2.7850878"><ele>0.0</ele><time>2026-04-29T07:10:52.098Z</time></trkpt><trkpt lat="36.3045554" lon="-2.7849841"><ele>0.0</ele><time>2026-04-29T07:10:53.098Z</time></trkpt><trkpt lat="36.3045733" lon="-2.7848797"><ele>0.0</ele><time>2026-04-29T07:10:54.098Z</time></trkpt><trkpt lat="36.3045886" lon="-2.784772"><ele>0.0</ele><time>2026-04-29T07:10:55.097Z</time></trkpt><trkpt lat="36.3046036" lon="-2.7846634"><ele>0.0</ele><time>2026-04-29T07:10:56.097Z</time></trkpt><trkpt lat="36.3046229" lon="-2.7845493"><ele>0.0</ele><time>2026-04-29T07:10:57.098Z</time></trkpt><trkpt lat="36.304639" lon="-2.7844388"><ele>0.0</ele><time>2026-04-29T07:10:58.097Z</time></trkpt><trkpt lat="36.3046584" lon="-2.7843288"><ele>0.0</ele><time>2026-04-29T07:10:59.098Z</time></trkpt><trkpt lat="36.3046759" lon="-2.7842213"><ele>0.0</ele><time>2026-04-29T07:11:00.098Z</time></trkpt><trkpt lat="36.3046873" lon="-2.7841166"><ele>0.0</ele><time>2026-04-29T07:11:01.097Z</time></trkpt><trkpt lat="36.3047044" lon="-2.7840113"><ele>0.0</ele><time>2026-04-29T07:11:02.097Z</time></trkpt><trkpt lat="36.3047273" lon="-2.7839035"><ele>0.0</ele><time>2026-04-29T07:11:03.097Z</time></trkpt><trkpt lat="36.3047322" lon="-2.7837924"><ele>0.0</ele><time>2026-04-29T07:11:04.098Z</time></trkpt><trkpt lat="36.3047429" lon="-2.7835736"><ele>0.0</ele><time>2026-04-29T07:11:06.098Z</time></trkpt><trkpt lat="36.3047537" lon="-2.783461"><ele>0.0</ele><time>2026-04-29T07:11:07.097Z</time></trkpt><trkpt lat="36.3047646" lon="-2.7833521"><ele>0.0</ele><time>2026-04-29T07:11:08.098Z</time></trkpt><trkpt lat="36.3047748" lon="-2.7832453"><ele>0.0</ele><time>2026-04-29T07:11:09.098Z</time></trkpt><trkpt lat="36.3047882" lon="-2.783137"><ele>0.0</ele><time>2026-04-29T07:11:10.098Z</time></trkpt><trkpt lat="36.3047985" lon="-2.7830299"><ele>0.0</ele><time>2026-04-29T07:11:11.098Z</time></trkpt><trkpt lat="36.304817" lon="-2.7829217"><ele>0.0</ele><time>2026-04-29T07:11:12.097Z</time></trkpt><trkpt lat="36.3048295" lon="-2.7828099"><ele>0.0</ele><time>2026-04-29T07:11:13.098Z</time></trkpt><trkpt lat="36.3048446" lon="-2.7827085"><ele>0.0</ele><time>2026-04-29T07:11:14.098Z</time></trkpt><trkpt lat="36.3048554" lon="-2.7826033"><ele>0.0</ele><time>2026-04-29T07:11:15.097Z</time></trkpt><trkpt lat="36.3048668" lon="-2.7825041"><ele>0.0</ele><time>2026-04-29T07:11:16.097Z</time></trkpt><trkpt lat="36.3048826" lon="-2.7823978"><ele>0.0</ele><time>2026-04-29T07:11:17.098Z</time></trkpt><trkpt lat="36.3049002" lon="-2.7822943"><ele>0.0</ele><time>2026-04-29T07:11:18.097Z</time></trkpt><trkpt lat="36.3049101" lon="-2.782191"><ele>0.0</ele><time>2026-04-29T07:11:19.098Z</time></trkpt><trkpt lat="36.3049117" lon="-2.78208"><ele>0.0</ele><time>2026-04-29T07:11:20.097Z</time></trkpt><trkpt lat="36.3049244" lon="-2.7819732"><ele>0.0</ele><time>2026-04-29T07:11:21.097Z</time></trkpt><trkpt lat="36.3049333" lon="-2.7818664"><ele>0.0</ele><time>2026-04-29T07:11:22.097Z</time></trkpt><trkpt lat="36.3049451" lon="-2.7817581"><ele>0.0</ele><time>2026-04-29T07:11:23.097Z</time></trkpt><trkpt lat="36.3049542" lon="-2.7816496"><ele>0.0</ele><time>2026-04-29T07:11:24.097Z</time></trkpt><trkpt lat="36.3049678" lon="-2.7815391"><ele>0.0</ele><time>2026-04-29T07:11:25.098Z</time></trkpt><trkpt lat="36.3050084" lon="-2.7813124"><ele>0.0</ele><time>2026-04-29T07:11:27.098Z</time></trkpt><trkpt lat="36.3050218" lon="-2.7811989"><ele>0.0</ele><time>2026-04-29T07:11:28.098Z</time></trkpt><trkpt lat="36.30503" lon="-2.7810899"><ele>0.0</ele><time>2026-04-29T07:11:29.097Z</time></trkpt><trkpt lat="36.3050481" lon="-2.7809877"><ele>0.0</ele><time>2026-04-29T07:11:30.097Z</time></trkpt><trkpt lat="36.3050711" lon="-2.7808858"><ele>0.0</ele><time>2026-04-29T07:11:31.097Z</time></trkpt><trkpt lat="36.305096" lon="-2.7807798"><ele>0.0</ele><time>2026-04-29T07:11:32.097Z</time></trkpt><trkpt lat="36.3051123" lon="-2.780673"><ele>0.0</ele><time>2026-04-29T07:11:33.097Z</time></trkpt><trkpt lat="36.3051436" lon="-2.7805619"><ele>0.0</ele><time>2026-04-29T07:11:34.097Z</time></trkpt><trkpt lat="36.305164" lon="-2.7804592"><ele>0.0</ele><time>2026-04-29T07:11:35.097Z</time></trkpt><trkpt lat="36.3051909" lon="-2.780359"><ele>0.0</ele><time>2026-04-29T07:11:36.097Z</time></trkpt><trkpt lat="36.3052195" lon="-2.7802535"><ele>0.0</ele><time>2026-04-29T07:11:37.097Z</time></trkpt><trkpt lat="36.305245" lon="-2.7801455"><ele>0.0</ele><time>2026-04-29T07:11:38.097Z</time></trkpt><trkpt lat="36.3052675" lon="-2.7800385"><ele>0.0</ele><time>2026-04-29T07:11:39.097Z</time></trkpt><trkpt lat="36.3052893" lon="-2.7799275"><ele>0.0</ele><time>2026-04-29T07:11:40.098Z</time></trkpt><trkpt lat="36.3053064" lon="-2.7798203"><ele>0.0</ele><time>2026-04-29T07:11:41.097Z</time></trkpt><trkpt lat="36.3053202" lon="-2.7797134"><ele>0.0</ele><time>2026-04-29T07:11:42.098Z</time></trkpt><trkpt lat="36.3053395" lon="-2.7796025"><ele>0.0</ele><time>2026-04-29T07:11:43.098Z</time></trkpt><trkpt lat="36.3053507" lon="-2.7794907"><ele>0.0</ele><time>2026-04-29T07:11:44.097Z</time></trkpt><trkpt lat="36.3053649" lon="-2.779382"><ele>0.0</ele><time>2026-04-29T07:11:45.097Z</time></trkpt><trkpt lat="36.3053814" lon="-2.7792778"><ele>0.0</ele><time>2026-04-29T07:11:46.097Z</time></trkpt><trkpt lat="36.30543" lon="-2.7790709"><ele>0.0</ele><time>2026-04-29T07:11:48.097Z</time></trkpt><trkpt lat="36.3054522" lon="-2.7789636"><ele>0.0</ele><time>2026-04-29T07:11:49.097Z</time></trkpt><trkpt lat="36.3054751" lon="-2.7788497"><ele>0.0</ele><time>2026-04-29T07:11:50.098Z</time></trkpt><trkpt lat="36.305492" lon="-2.778743"><ele>0.0</ele><time>2026-04-29T07:11:51.097Z</time></trkpt><trkpt lat="36.3055013" lon="-2.778641"><ele>0.0</ele><time>2026-04-29T07:11:52.098Z</time></trkpt><trkpt lat="36.3055108" lon="-2.7785307"><ele>0.0</ele><time>2026-04-29T07:11:53.098Z</time></trkpt><trkpt lat="36.3055237" lon="-2.7784205"><ele>0.0</ele><time>2026-04-29T07:11:54.098Z</time></trkpt><trkpt lat="36.3055384" lon="-2.7783036"><ele>0.0</ele><time>2026-04-29T07:11:55.098Z</time></trkpt><trkpt lat="36.3055504" lon="-2.7781834"><ele>0.0</ele><time>2026-04-29T07:11:56.098Z</time></trkpt><trkpt lat="36.3055588" lon="-2.7780734"><ele>0.0</ele><time>2026-04-29T07:11:57.098Z</time></trkpt><trkpt lat="36.3055709" lon="-2.7779666"><ele>0.0</ele><time>2026-04-29T07:11:58.098Z</time></trkpt><trkpt lat="36.3055899" lon="-2.777854"><ele>0.0</ele><time>2026-04-29T07:11:59.097Z</time></trkpt><trkpt lat="36.3056126" lon="-2.7777521"><ele>0.0</ele><time>2026-04-29T07:12:00.097Z</time></trkpt><trkpt lat="36.3056341" lon="-2.7776554"><ele>0.0</ele><time>2026-04-29T07:12:01.097Z</time></trkpt><trkpt lat="36.3056506" lon="-2.7775584"><ele>0.0</ele><time>2026-04-29T07:12:02.098Z</time></trkpt><trkpt lat="36.3056588" lon="-2.7774531"><ele>0.0</ele><time>2026-04-29T07:12:03.098Z</time></trkpt><trkpt lat="36.3056713" lon="-2.777351"><ele>0.0</ele><time>2026-04-29T07:12:04.098Z</time></trkpt><trkpt lat="36.3056889" lon="-2.7772512"><ele>0.0</ele><time>2026-04-29T07:12:05.097Z</time></trkpt><trkpt lat="36.3057041" lon="-2.7771468"><ele>0.0</ele><time>2026-04-29T07:12:06.098Z</time></trkpt><trkpt lat="36.3057161" lon="-2.7770318"><ele>0.0</ele><time>2026-04-29T07:12:07.097Z</time></trkpt><trkpt lat="36.3057288" lon="-2.776805"><ele>0.0</ele><time>2026-04-29T07:12:09.097Z</time></trkpt><trkpt lat="36.3057446" lon="-2.7766914"><ele>0.0</ele><time>2026-04-29T07:12:10.097Z</time></trkpt><trkpt lat="36.3057607" lon="-2.7765864"><ele>0.0</ele><time>2026-04-29T07:12:11.097Z</time></trkpt><trkpt lat="36.3057714" lon="-2.7764826"><ele>0.0</ele><time>2026-04-29T07:12:12.097Z</time></trkpt><trkpt lat="36.3057857" lon="-2.7763708"><ele>0.0</ele><time>2026-04-29T07:12:13.098Z</time></trkpt><trkpt lat="36.3057962" lon="-2.7762676"><ele>0.0</ele><time>2026-04-29T07:12:14.098Z</time></trkpt><trkpt lat="36.3058122" lon="-2.7761606"><ele>0.0</ele><time>2026-04-29T07:12:15.097Z</time></trkpt><trkpt lat="36.3058301" lon="-2.7760574"><ele>0.0</ele><time>2026-04-29T07:12:16.098Z</time></trkpt><trkpt lat="36.3058597" lon="-2.7759542"><ele>0.0</ele><time>2026-04-29T07:12:17.097Z</time></trkpt><trkpt lat="36.3058801" lon="-2.7758441"><ele>0.0</ele><time>2026-04-29T07:12:18.098Z</time></trkpt><trkpt lat="36.3059019" lon="-2.7757342"><ele>0.0</ele><time>2026-04-29T07:12:19.098Z</time></trkpt><trkpt lat="36.3059292" lon="-2.7756267"><ele>0.0</ele><time>2026-04-29T07:12:20.098Z</time></trkpt><trkpt lat="36.3059464" lon="-2.7755198"><ele>0.0</ele><time>2026-04-29T07:12:21.097Z</time></trkpt><trkpt lat="36.3059697" lon="-2.7754088"><ele>0.0</ele><time>2026-04-29T07:12:22.098Z</time></trkpt><trkpt lat="36.3060026" lon="-2.7753045"><ele>0.0</ele><time>2026-04-29T07:12:23.097Z</time></trkpt><trkpt lat="36.3060246" lon="-2.7751953"><ele>0.0</ele><time>2026-04-29T07:12:24.098Z</time></trkpt><trkpt lat="36.3060492" lon="-2.7750883"><ele>0.0</ele><time>2026-04-29T07:12:25.097Z</time></trkpt><trkpt lat="36.3060684" lon="-2.7749844"><ele>0.0</ele><time>2026-04-29T07:12:26.098Z</time></trkpt><trkpt lat="36.3060853" lon="-2.774881"><ele>0.0</ele><time>2026-04-29T07:12:27.097Z</time></trkpt><trkpt lat="36.3061035" lon="-2.7747794"><ele>0.0</ele><time>2026-04-29T07:12:28.098Z</time></trkpt><trkpt lat="36.3061393" lon="-2.7745627"><ele>0.0</ele><time>2026-04-29T07:12:30.098Z</time></trkpt><trkpt lat="36.3061545" lon="-2.7744522"><ele>0.0</ele><time>2026-04-29T07:12:31.097Z</time></trkpt><trkpt lat="36.3061827" lon="-2.7743435"><ele>0.0</ele><time>2026-04-29T07:12:32.098Z</time></trkpt><trkpt lat="36.3062051" lon="-2.7742396"><ele>0.0</ele><time>2026-04-29T07:12:33.098Z</time></trkpt><trkpt lat="36.3062185" lon="-2.774133"><ele>0.0</ele><time>2026-04-29T07:12:34.097Z</time></trkpt><trkpt lat="36.3062254" lon="-2.7740282"><ele>0.0</ele><time>2026-04-29T07:12:35.097Z</time></trkpt><trkpt lat="36.3062488" lon="-2.7739144"><ele>0.0</ele><time>2026-04-29T07:12:36.097Z</time></trkpt><trkpt lat="36.306267" lon="-2.7738041"><ele>0.0</ele><time>2026-04-29T07:12:37.097Z</time></trkpt><trkpt lat="36.3062825" lon="-2.7736994"><ele>0.0</ele><time>2026-04-29T07:12:38.097Z</time></trkpt><trkpt lat="36.3062931" lon="-2.7735919"><ele>0.0</ele><time>2026-04-29T07:12:39.097Z</time></trkpt><trkpt lat="36.3063114" lon="-2.7734796"><ele>0.0</ele><time>2026-04-29T07:12:40.098Z</time></trkpt><trkpt lat="36.3063319" lon="-2.7733731"><ele>0.0</ele><time>2026-04-29T07:12:41.098Z</time></trkpt><trkpt lat="36.3063449" lon="-2.7732651"><ele>0.0</ele><time>2026-04-29T07:12:42.098Z</time></trkpt><trkpt lat="36.3063592" lon="-2.77316"><ele>0.0</ele><time>2026-04-29T07:12:43.097Z</time></trkpt><trkpt lat="36.3063759" lon="-2.7730533"><ele>0.0</ele><time>2026-04-29T07:12:44.097Z</time></trkpt><trkpt lat="36.3063907" lon="-2.772935"><ele>0.0</ele><time>2026-04-29T07:12:45.098Z</time></trkpt><trkpt lat="36.3063868" lon="-2.7728296"><ele>0.0</ele><time>2026-04-29T07:12:46.097Z</time></trkpt><trkpt lat="36.3063956" lon="-2.7727317"><ele>0.0</ele><time>2026-04-29T07:12:47.097Z</time></trkpt><trkpt lat="36.3064088" lon="-2.7726234"><ele>0.0</ele><time>2026-04-29T07:12:48.098Z</time></trkpt><trkpt lat="36.3064352" lon="-2.7725172"><ele>0.0</ele><time>2026-04-29T07:12:49.097Z</time></trkpt><trkpt lat="36.3064623" lon="-2.772301"><ele>0.0</ele><time>2026-04-29T07:12:51.097Z</time></trkpt><trkpt lat="36.3064681" lon="-2.7721921"><ele>0.0</ele><time>2026-04-29T07:12:52.098Z</time></trkpt><trkpt lat="36.3064793" lon="-2.7720806"><ele>0.0</ele><time>2026-04-29T07:12:53.097Z</time></trkpt><trkpt lat="36.3064883" lon="-2.7719747"><ele>0.0</ele><time>2026-04-29T07:12:54.097Z</time></trkpt><trkpt lat="36.3065003" lon="-2.7718695"><ele>0.0</ele><time>2026-04-29T07:12:55.097Z</time></trkpt><trkpt lat="36.3065104" lon="-2.7717632"><ele>0.0</ele><time>2026-04-29T07:12:56.097Z</time></trkpt><trkpt lat="36.3065185" lon="-2.771658"><ele>0.0</ele><time>2026-04-29T07:12:57.098Z</time></trkpt><trkpt lat="36.3065294" lon="-2.7715491"><ele>0.0</ele><time>2026-04-29T07:12:58.097Z</time></trkpt><trkpt lat="36.3065442" lon="-2.7714385"><ele>0.0</ele><time>2026-04-29T07:12:59.098Z</time></trkpt><trkpt lat="36.306555" lon="-2.7713345"><ele>0.0</ele><time>2026-04-29T07:13:00.098Z</time></trkpt><trkpt lat="36.3065879" lon="-2.7712325"><ele>0.0</ele><time>2026-04-29T07:13:01.097Z</time></trkpt><trkpt lat="36.306613" lon="-2.771129"><ele>0.0</ele><time>2026-04-29T07:13:02.097Z</time></trkpt><trkpt lat="36.3066337" lon="-2.7710231"><ele>0.0</ele><time>2026-04-29T07:13:03.098Z</time></trkpt><trkpt lat="36.3066496" lon="-2.7709152"><ele>0.0</ele><time>2026-04-29T07:13:04.097Z</time></trkpt><trkpt lat="36.3066774" lon="-2.77081"><ele>0.0</ele><time>2026-04-29T07:13:05.098Z</time></trkpt><trkpt lat="36.3067001" lon="-2.770703"><ele>0.0</ele><time>2026-04-29T07:13:06.097Z</time></trkpt><trkpt lat="36.3067205" lon="-2.7705948"><ele>0.0</ele><time>2026-04-29T07:13:07.097Z</time></trkpt><trkpt lat="36.3067424" lon="-2.7704837"><ele>0.0</ele><time>2026-04-29T07:13:08.097Z</time></trkpt><trkpt lat="36.3067599" lon="-2.7703765"><ele>0.0</ele><time>2026-04-29T07:13:09.097Z</time></trkpt><trkpt lat="36.3067781" lon="-2.7702697"><ele>0.0</ele><time>2026-04-29T07:13:10.098Z</time></trkpt><trkpt lat="36.306806" lon="-2.7700557"><ele>0.0</ele><time>2026-04-29T07:13:12.097Z</time></trkpt><trkpt lat="36.3068261" lon="-2.7699554"><ele>0.0</ele><time>2026-04-29T07:13:13.097Z</time></trkpt><trkpt lat="36.3068432" lon="-2.7698558"><ele>0.0</ele><time>2026-04-29T07:13:14.098Z</time></trkpt><trkpt lat="36.3068584" lon="-2.7697482"><ele>0.0</ele><time>2026-04-29T07:13:15.097Z</time></trkpt><trkpt lat="36.3068868" lon="-2.7696387"><ele>0.0</ele><time>2026-04-29T07:13:16.097Z</time></trkpt><trkpt lat="36.3069224" lon="-2.7695316"><ele>0.0</ele><time>2026-04-29T07:13:17.098Z</time></trkpt><trkpt lat="36.3069648" lon="-2.769429"><ele>0.0</ele><time>2026-04-29T07:13:18.097Z</time></trkpt><trkpt lat="36.3069869" lon="-2.7693144"><ele>0.0</ele><time>2026-04-29T07:13:19.098Z</time></trkpt><trkpt lat="36.3070037" lon="-2.7692037"><ele>0.0</ele><time>2026-04-29T07:13:20.098Z</time></trkpt><trkpt lat="36.307026" lon="-2.7691051"><ele>0.0</ele><time>2026-04-29T07:13:21.097Z</time></trkpt><trkpt lat="36.3070464" lon="-2.7689953"><ele>0.0</ele><time>2026-04-29T07:13:22.098Z</time></trkpt><trkpt lat="36.3070606" lon="-2.7688936"><ele>0.0</ele><time>2026-04-29T07:13:23.097Z</time></trkpt><trkpt lat="36.3070768" lon="-2.768791"><ele>0.0</ele><time>2026-04-29T07:13:24.098Z</time></trkpt><trkpt lat="36.3070954" lon="-2.7686879"><ele>0.0</ele><time>2026-04-29T07:13:25.098Z</time></trkpt><trkpt lat="36.3071139" lon="-2.7685787"><ele>0.0</ele><time>2026-04-29T07:13:26.098Z</time></trkpt><trkpt lat="36.3071306" lon="-2.7684676"><ele>0.0</ele><time>2026-04-29T07:13:27.097Z</time></trkpt><trkpt lat="36.3071233" lon="-2.7683544"><ele>0.0</ele><time>2026-04-29T07:13:28.098Z</time></trkpt><trkpt lat="36.3071318" lon="-2.7682479"><ele>0.0</ele><time>2026-04-29T07:13:29.097Z</time></trkpt><trkpt lat="36.3071244" lon="-2.7681319"><ele>0.0</ele><time>2026-04-29T07:13:30.098Z</time></trkpt><trkpt lat="36.3071277" lon="-2.7680221"><ele>0.0</ele><time>2026-04-29T07:13:31.097Z</time></trkpt><trkpt lat="36.3071249" lon="-2.7677934"><ele>0.0</ele><time>2026-04-29T07:13:33.097Z</time></trkpt><trkpt lat="36.3071315" lon="-2.7676883"><ele>0.0</ele><time>2026-04-29T07:13:34.097Z</time></trkpt><trkpt lat="36.307144" lon="-2.7675804"><ele>0.0</ele><time>2026-04-29T07:13:35.097Z</time></trkpt><trkpt lat="36.3071475" lon="-2.7674676"><ele>0.0</ele><time>2026-04-29T07:13:36.098Z</time></trkpt><trkpt lat="36.307159" lon="-2.7673554"><ele>0.0</ele><time>2026-04-29T07:13:37.098Z</time></trkpt><trkpt lat="36.3071461" lon="-2.7672434"><ele>0.0</ele><time>2026-04-29T07:13:38.097Z</time></trkpt><trkpt lat="36.3071489" lon="-2.7671365"><ele>0.0</ele><time>2026-04-29T07:13:39.097Z</time></trkpt><trkpt lat="36.3071601" lon="-2.76703"><ele>0.0</ele><time>2026-04-29T07:13:40.098Z</time></trkpt><trkpt lat="36.3071736" lon="-2.7669261"><ele>0.0</ele><time>2026-04-29T07:13:41.098Z</time></trkpt><trkpt lat="36.3071809" lon="-2.7668156"><ele>0.0</ele><time>2026-04-29T07:13:42.097Z</time></trkpt><trkpt lat="36.3071919" lon="-2.7667041"><ele>0.0</ele><time>2026-04-29T07:13:43.097Z</time></trkpt><trkpt lat="36.3072055" lon="-2.7665997"><ele>0.0</ele><time>2026-04-29T07:13:44.097Z</time></trkpt><trkpt lat="36.307222" lon="-2.7664906"><ele>0.0</ele><time>2026-04-29T07:13:45.097Z</time></trkpt><trkpt lat="36.307237" lon="-2.7663833"><ele>0.0</ele><time>2026-04-29T07:13:46.098Z</time></trkpt><trkpt lat="36.307244" lon="-2.7662751"><ele>0.0</ele><time>2026-04-29T07:13:47.098Z</time></trkpt><trkpt lat="36.3072491" lon="-2.7661637"><ele>0.0</ele><time>2026-04-29T07:13:48.097Z</time></trkpt><trkpt lat="36.3072545" lon="-2.766061"><ele>0.0</ele><time>2026-04-29T07:13:49.098Z</time></trkpt><trkpt lat="36.3072692" lon="-2.7659524"><ele>0.0</ele><time>2026-04-29T07:13:50.097Z</time></trkpt><trkpt lat="36.3073084" lon="-2.7658438"><ele>0.0</ele><time>2026-04-29T07:13:51.097Z</time></trkpt><trkpt lat="36.3073402" lon="-2.7657429"><ele>0.0</ele><time>2026-04-29T07:13:52.098Z</time></trkpt><trkpt lat="36.3074104" lon="-2.7655245"><ele>0.0</ele><time>2026-04-29T07:13:54.098Z</time></trkpt><trkpt lat="36.3074416" lon="-2.7654121"><ele>0.0</ele><time>2026-04-29T07:13:55.098Z</time></trkpt><trkpt lat="36.3074648" lon="-2.7653072"><ele>0.0</ele><time>2026-04-29T07:13:56.097Z</time></trkpt><trkpt lat="36.3074822" lon="-2.7652013"><ele>0.0</ele><time>2026-04-29T07:13:57.098Z</time></trkpt><trkpt lat="36.3075095" lon="-2.7650965"><ele>0.0</ele><time>2026-04-29T07:13:58.097Z</time></trkpt><trkpt lat="36.307532" lon="-2.7649886"><ele>0.0</ele><time>2026-04-29T07:13:59.097Z</time></trkpt><trkpt lat="36.3075468" lon="-2.7648817"><ele>0.0</ele><time>2026-04-29T07:14:00.097Z</time></trkpt><trkpt lat="36.307557" lon="-2.7647754"><ele>0.0</ele><time>2026-04-29T07:14:01.098Z</time></trkpt><trkpt lat="36.3075807" lon="-2.7646669"><ele>0.0</ele><time>2026-04-29T07:14:02.098Z</time></trkpt><trkpt lat="36.3076055" lon="-2.7645628"><ele>0.0</ele><time>2026-04-29T07:14:03.098Z</time></trkpt><trkpt lat="36.3076309" lon="-2.7644611"><ele>0.0</ele><time>2026-04-29T07:14:04.097Z</time></trkpt><trkpt lat="36.3076499" lon="-2.7643563"><ele>0.0</ele><time>2026-04-29T07:14:05.098Z</time></trkpt><trkpt lat="36.3076713" lon="-2.7642544"><ele>0.0</ele><time>2026-04-29T07:14:06.097Z</time></trkpt><trkpt lat="36.3076883" lon="-2.764148"><ele>0.0</ele><time>2026-04-29T07:14:07.097Z</time></trkpt><trkpt lat="36.3077093" lon="-2.7640415"><ele>0.0</ele><time>2026-04-29T07:14:08.098Z</time></trkpt><trkpt lat="36.3077297" lon="-2.7639318"><ele>0.0</ele><time>2026-04-29T07:14:09.097Z</time></trkpt><trkpt lat="36.3077523" lon="-2.7638194"><ele>0.0</ele><time>2026-04-29T07:14:10.097Z</time></trkpt><trkpt lat="36.3077761" lon="-2.7637127"><ele>0.0</ele><time>2026-04-29T07:14:11.098Z</time></trkpt><trkpt lat="36.3077983" lon="-2.763606"><ele>0.0</ele><time>2026-04-29T07:14:12.098Z</time></trkpt><trkpt lat="36.3078202" lon="-2.7634983"><ele>0.0</ele><time>2026-04-29T07:14:13.098Z</time></trkpt><trkpt lat="36.307857" lon="-2.7632881"><ele>0.0</ele><time>2026-04-29T07:14:15.098Z</time></trkpt><trkpt lat="36.3078718" lon="-2.7631799"><ele>0.0</ele><time>2026-04-29T07:14:16.097Z</time></trkpt><trkpt lat="36.3078838" lon="-2.7630748"><ele>0.0</ele><time>2026-04-29T07:14:17.097Z</time></trkpt><trkpt lat="36.3078954" lon="-2.7629681"><ele>0.0</ele><time>2026-04-29T07:14:18.098Z</time></trkpt><trkpt lat="36.3079068" lon="-2.7628631"><ele>0.0</ele><time>2026-04-29T07:14:19.097Z</time></trkpt><trkpt lat="36.3079217" lon="-2.7627582"><ele>0.0</ele><time>2026-04-29T07:14:20.098Z</time></trkpt><trkpt lat="36.30794" lon="-2.7626531"><ele>0.0</ele><time>2026-04-29T07:14:21.097Z</time></trkpt><trkpt lat="36.3079633" lon="-2.7625451"><ele>0.0</ele><time>2026-04-29T07:14:22.097Z</time></trkpt><trkpt lat="36.3079866" lon="-2.7624398"><ele>0.0</ele><time>2026-04-29T07:14:23.097Z</time></trkpt><trkpt lat="36.3080084" lon="-2.7623366"><ele>0.0</ele><time>2026-04-29T07:14:24.097Z</time></trkpt><trkpt lat="36.3080286" lon="-2.7622327"><ele>0.0</ele><time>2026-04-29T07:14:25.097Z</time></trkpt><trkpt lat="36.3080436" lon="-2.7621297"><ele>0.0</ele><time>2026-04-29T07:14:26.098Z</time></trkpt><trkpt lat="36.3080598" lon="-2.7620264"><ele>0.0</ele><time>2026-04-29T07:14:27.097Z</time></trkpt><trkpt lat="36.3080767" lon="-2.7619197"><ele>0.0</ele><time>2026-04-29T07:14:28.097Z</time></trkpt><trkpt lat="36.3080934" lon="-2.7618127"><ele>0.0</ele><time>2026-04-29T07:14:29.098Z</time></trkpt><trkpt lat="36.3081138" lon="-2.7617063"><ele>0.0</ele><time>2026-04-29T07:14:30.097Z</time></trkpt><trkpt lat="36.3081308" lon="-2.761597"><ele>0.0</ele><time>2026-04-29T07:14:31.097Z</time></trkpt><trkpt lat="36.3081462" lon="-2.7614897"><ele>0.0</ele><time>2026-04-29T07:14:32.097Z</time></trkpt><trkpt lat="36.3081635" lon="-2.7613819"><ele>0.0</ele><time>2026-04-29T07:14:33.098Z</time></trkpt><trkpt lat="36.3081803" lon="-2.7612731"><ele>0.0</ele><time>2026-04-29T07:14:34.097Z</time></trkpt><trkpt lat="36.3082168" lon="-2.7610571"><ele>0.0</ele><time>2026-04-29T07:14:36.098Z</time></trkpt><trkpt lat="36.3082331" lon="-2.7609511"><ele>0.0</ele><time>2026-04-29T07:14:37.098Z</time></trkpt><trkpt lat="36.3082495" lon="-2.7608435"><ele>0.0</ele><time>2026-04-29T07:14:38.098Z</time></trkpt><trkpt lat="36.3082653" lon="-2.7607361"><ele>0.0</ele><time>2026-04-29T07:14:39.097Z</time></trkpt><trkpt lat="36.3082815" lon="-2.7606311"><ele>0.0</ele><time>2026-04-29T07:14:40.097Z</time></trkpt><trkpt lat="36.3082868" lon="-2.7605293"><ele>0.0</ele><time>2026-04-29T07:14:41.097Z</time></trkpt><trkpt lat="36.3083003" lon="-2.7604188"><ele>0.0</ele><time>2026-04-29T07:14:42.097Z</time></trkpt><trkpt lat="36.3083167" lon="-2.7603063"><ele>0.0</ele><time>2026-04-29T07:14:43.098Z</time></trkpt><trkpt lat="36.3083331" lon="-2.7601944"><ele>0.0</ele><time>2026-04-29T07:14:44.098Z</time></trkpt><trkpt lat="36.3083495" lon="-2.7600783"><ele>0.0</ele><time>2026-04-29T07:14:45.097Z</time></trkpt><trkpt lat="36.3083551" lon="-2.7599685"><ele>0.0</ele><time>2026-04-29T07:14:46.097Z</time></trkpt><trkpt lat="36.3083729" lon="-2.7598543"><ele>0.0</ele><time>2026-04-29T07:14:47.097Z</time></trkpt><trkpt lat="36.3083869" lon="-2.7597479"><ele>0.0</ele><time>2026-04-29T07:14:48.097Z</time></trkpt><trkpt lat="36.3083986" lon="-2.7596392"><ele>0.0</ele><time>2026-04-29T07:14:49.098Z</time></trkpt><trkpt lat="36.3083781" lon="-2.7595351"><ele>0.0</ele><time>2026-04-29T07:14:50.098Z</time></trkpt><trkpt lat="36.3083708" lon="-2.7594212"><ele>0.0</ele><time>2026-04-29T07:14:51.097Z</time></trkpt><trkpt lat="36.308375" lon="-2.7593078"><ele>0.0</ele><time>2026-04-29T07:14:52.097Z</time></trkpt><trkpt lat="36.308384" lon="-2.7592008"><ele>0.0</ele><time>2026-04-29T07:14:53.098Z</time></trkpt><trkpt lat="36.3083924" lon="-2.7590946"><ele>0.0</ele><time>2026-04-29T07:14:54.098Z</time></trkpt><trkpt lat="36.3084085" lon="-2.758987"><ele>0.0</ele><time>2026-04-29T07:14:55.097Z</time></trkpt><trkpt lat="36.3084608" lon="-2.7587746"><ele>0.0</ele><time>2026-04-29T07:14:57.097Z</time></trkpt><trkpt lat="36.308483" lon="-2.7586638"><ele>0.0</ele><time>2026-04-29T07:14:58.098Z</time></trkpt><trkpt lat="36.3085082" lon="-2.7585593"><ele>0.0</ele><time>2026-04-29T07:14:59.098Z</time></trkpt><trkpt lat="36.3085337" lon="-2.7584519"><ele>0.0</ele><time>2026-04-29T07:15:00.098Z</time></trkpt><trkpt lat="36.3085543" lon="-2.7583493"><ele>0.0</ele><time>2026-04-29T07:15:01.098Z</time></trkpt><trkpt lat="36.3085886" lon="-2.7582495"><ele>0.0</ele><time>2026-04-29T07:15:02.098Z</time></trkpt><trkpt lat="36.3086152" lon="-2.7581448"><ele>0.0</ele><time>2026-04-29T07:15:03.097Z</time></trkpt><trkpt lat="36.3086404" lon="-2.7580383"><ele>0.0</ele><time>2026-04-29T07:15:04.097Z</time></trkpt><trkpt lat="36.3086568" lon="-2.7579328"><ele>0.0</ele><time>2026-04-29T07:15:05.098Z</time></trkpt><trkpt lat="36.3086729" lon="-2.7578251"><ele>0.0</ele><time>2026-04-29T07:15:06.098Z</time></trkpt><trkpt lat="36.3086927" lon="-2.7577201"><ele>0.0</ele><time>2026-04-29T07:15:07.097Z</time></trkpt><trkpt lat="36.3087116" lon="-2.7576105"><ele>0.0</ele><time>2026-04-29T07:15:08.097Z</time></trkpt><trkpt lat="36.3087288" lon="-2.7574975"><ele>0.0</ele><time>2026-04-29T07:15:09.098Z</time></trkpt><trkpt lat="36.3087458" lon="-2.7573872"><ele>0.0</ele><time>2026-04-29T07:15:10.098Z</time></trkpt><trkpt lat="36.3087667" lon="-2.7572832"><ele>0.0</ele><time>2026-04-29T07:15:11.097Z</time></trkpt><trkpt lat="36.308785" lon="-2.7571767"><ele>0.0</ele><time>2026-04-29T07:15:12.097Z</time></trkpt><trkpt lat="36.3087979" lon="-2.7570718"><ele>0.0</ele><time>2026-04-29T07:15:13.097Z</time></trkpt><trkpt lat="36.3088097" lon="-2.756965"><ele>0.0</ele><time>2026-04-29T07:15:14.098Z</time></trkpt><trkpt lat="36.3088198" lon="-2.7568627"><ele>0.0</ele><time>2026-04-29T07:15:15.098Z</time></trkpt><trkpt lat="36.308835" lon="-2.7567554"><ele>0.0</ele><time>2026-04-29T07:15:16.098Z</time></trkpt><trkpt lat="36.3088711" lon="-2.7565348"><ele>0.0</ele><time>2026-04-29T07:15:18.097Z</time></trkpt><trkpt lat="36.3088881" lon="-2.756431"><ele>0.0</ele><time>2026-04-29T07:15:19.097Z</time></trkpt><trkpt lat="36.3089071" lon="-2.7563236"><ele>0.0</ele><time>2026-04-29T07:15:20.098Z</time></trkpt><trkpt lat="36.3089355" lon="-2.756218"><ele>0.0</ele><time>2026-04-29T07:15:21.097Z</time></trkpt><trkpt lat="36.3089619" lon="-2.756113"><ele>0.0</ele><time>2026-04-29T07:15:22.097Z</time></trkpt><trkpt lat="36.3089886" lon="-2.7560105"><ele>0.0</ele><time>2026-04-29T07:15:23.097Z</time></trkpt><trkpt lat="36.3090086" lon="-2.7559047"><ele>0.0</ele><time>2026-04-29T07:15:24.097Z</time></trkpt><trkpt lat="36.3090267" lon="-2.7558084"><ele>0.0</ele><time>2026-04-29T07:15:25.097Z</time></trkpt><trkpt lat="36.3090433" lon="-2.7557006"><ele>0.0</ele><time>2026-04-29T07:15:26.097Z</time></trkpt><trkpt lat="36.3090603" lon="-2.7555876"><ele>0.0</ele><time>2026-04-29T07:15:27.097Z</time></trkpt><trkpt lat="36.3090755" lon="-2.7554788"><ele>0.0</ele><time>2026-04-29T07:15:28.097Z</time></trkpt><trkpt lat="36.3090847" lon="-2.7553661"><ele>0.0</ele><time>2026-04-29T07:15:29.097Z</time></trkpt><trkpt lat="36.3091003" lon="-2.7552568"><ele>0.0</ele><time>2026-04-29T07:15:30.097Z</time></trkpt><trkpt lat="36.3091203" lon="-2.7551411"><ele>0.0</ele><time>2026-04-29T07:15:31.097Z</time></trkpt><trkpt lat="36.3091402" lon="-2.7550306"><ele>0.0</ele><time>2026-04-29T07:15:32.098Z</time></trkpt><trkpt lat="36.3091568" lon="-2.754919"><ele>0.0</ele><time>2026-04-29T07:15:33.097Z</time></trkpt><trkpt lat="36.3091678" lon="-2.7548158"><ele>0.0</ele><time>2026-04-29T07:15:34.098Z</time></trkpt><trkpt lat="36.3091795" lon="-2.7547001"><ele>0.0</ele><time>2026-04-29T07:15:35.097Z</time></trkpt><trkpt lat="36.3091929" lon="-2.7545833"><ele>0.0</ele><time>2026-04-29T07:15:36.097Z</time></trkpt><trkpt lat="36.3092079" lon="-2.7544706"><ele>0.0</ele><time>2026-04-29T07:15:37.097Z</time></trkpt><trkpt lat="36.3092469" lon="-2.7542581"><ele>0.0</ele><time>2026-04-29T07:15:39.098Z</time></trkpt><trkpt lat="36.3092561" lon="-2.7541473"><ele>0.0</ele><time>2026-04-29T07:15:40.097Z</time></trkpt><trkpt lat="36.3092704" lon="-2.7540344"><ele>0.0</ele><time>2026-04-29T07:15:41.097Z</time></trkpt><trkpt lat="36.3092869" lon="-2.7539306"><ele>0.0</ele><time>2026-04-29T07:15:42.097Z</time></trkpt><trkpt lat="36.3093036" lon="-2.7538329"><ele>0.0</ele><time>2026-04-29T07:15:43.098Z</time></trkpt><trkpt lat="36.3093229" lon="-2.7537251"><ele>0.0</ele><time>2026-04-29T07:15:44.097Z</time></trkpt><trkpt lat="36.3093374" lon="-2.7536197"><ele>0.0</ele><time>2026-04-29T07:15:45.098Z</time></trkpt><trkpt lat="36.3093492" lon="-2.7535161"><ele>0.0</ele><time>2026-04-29T07:15:46.098Z</time></trkpt><trkpt lat="36.3093525" lon="-2.753407"><ele>0.0</ele><time>2026-04-29T07:15:47.097Z</time></trkpt><trkpt lat="36.3093666" lon="-2.7533029"><ele>0.0</ele><time>2026-04-29T07:15:48.097Z</time></trkpt><trkpt lat="36.309377" lon="-2.7531982"><ele>0.0</ele><time>2026-04-29T07:15:49.098Z</time></trkpt><trkpt lat="36.3093941" lon="-2.7530933"><ele>0.0</ele><time>2026-04-29T07:15:50.097Z</time></trkpt><trkpt lat="36.3094111" lon="-2.7529867"><ele>0.0</ele><time>2026-04-29T07:15:51.097Z</time></trkpt><trkpt lat="36.3094262" lon="-2.7528726"><ele>0.0</ele><time>2026-04-29T07:15:52.098Z</time></trkpt><trkpt lat="36.3094445" lon="-2.7527679"><ele>0.0</ele><time>2026-04-29T07:15:53.097Z</time></trkpt><trkpt lat="36.3094632" lon="-2.7526632"><ele>0.0</ele><time>2026-04-29T07:15:54.097Z</time></trkpt><trkpt lat="36.3094849" lon="-2.7525551"><ele>0.0</ele><time>2026-04-29T07:15:55.097Z</time></trkpt><trkpt lat="36.3095095" lon="-2.7524536"><ele>0.0</ele><time>2026-04-29T07:15:56.098Z</time></trkpt><trkpt lat="36.3095269" lon="-2.7523467"><ele>0.0</ele><time>2026-04-29T07:15:57.098Z</time></trkpt><trkpt lat="36.309542" lon="-2.7522328"><ele>0.0</ele><time>2026-04-29T07:15:58.098Z</time></trkpt><trkpt lat="36.3095654" lon="-2.7520179"><ele>0.0</ele><time>2026-04-29T07:16:00.098Z</time></trkpt><trkpt lat="36.3095858" lon="-2.7519185"><ele>0.0</ele><time>2026-04-29T07:16:01.098Z</time></trkpt><trkpt lat="36.3095987" lon="-2.7518131"><ele>0.0</ele><time>2026-04-29T07:16:02.097Z</time></trkpt><trkpt lat="36.3096149" lon="-2.7517024"><ele>0.0</ele><time>2026-04-29T07:16:03.097Z</time></trkpt><trkpt lat="36.3096377" lon="-2.7515966"><ele>0.0</ele><time>2026-04-29T07:16:04.097Z</time></trkpt><trkpt lat="36.309654" lon="-2.7514883"><ele>0.0</ele><time>2026-04-29T07:16:05.098Z</time></trkpt><trkpt lat="36.3096678" lon="-2.7513827"><ele>0.0</ele><time>2026-04-29T07:16:06.098Z</time></trkpt><trkpt lat="36.309685" lon="-2.7512804"><ele>0.0</ele><time>2026-04-29T07:16:07.097Z</time></trkpt><trkpt lat="36.3096973" lon="-2.7511746"><ele>0.0</ele><time>2026-04-29T07:16:08.098Z</time></trkpt><trkpt lat="36.309705" lon="-2.7510693"><ele>0.0</ele><time>2026-04-29T07:16:09.097Z</time></trkpt><trkpt lat="36.3097116" lon="-2.750967"><ele>0.0</ele><time>2026-04-29T07:16:10.097Z</time></trkpt><trkpt lat="36.3097279" lon="-2.7508598"><ele>0.0</ele><time>2026-04-29T07:16:11.098Z</time></trkpt><trkpt lat="36.3097462" lon="-2.7507503"><ele>0.0</ele><time>2026-04-29T07:16:12.098Z</time></trkpt><trkpt lat="36.3097712" lon="-2.7506428"><ele>0.0</ele><time>2026-04-29T07:16:13.098Z</time></trkpt><trkpt lat="36.3097892" lon="-2.7505363"><ele>0.0</ele><time>2026-04-29T07:16:14.097Z</time></trkpt><trkpt lat="36.309803" lon="-2.7504286"><ele>0.0</ele><time>2026-04-29T07:16:15.097Z</time></trkpt><trkpt lat="36.3098162" lon="-2.7503261"><ele>0.0</ele><time>2026-04-29T07:16:16.097Z</time></trkpt><trkpt lat="36.3098289" lon="-2.7502262"><ele>0.0</ele><time>2026-04-29T07:16:17.097Z</time></trkpt><trkpt lat="36.3098486" lon="-2.7501248"><ele>0.0</ele><time>2026-04-29T07:16:18.097Z</time></trkpt><trkpt lat="36.3098761" lon="-2.750017"><ele>0.0</ele><time>2026-04-29T07:16:19.097Z</time></trkpt><trkpt lat="36.3099162" lon="-2.749803"><ele>0.0</ele><time>2026-04-29T07:16:21.097Z</time></trkpt><trkpt lat="36.3099345" lon="-2.7496964"><ele>0.0</ele><time>2026-04-29T07:16:22.097Z</time></trkpt><trkpt lat="36.3099511" lon="-2.7495872"><ele>0.0</ele><time>2026-04-29T07:16:23.098Z</time></trkpt><trkpt lat="36.3099762" lon="-2.7494776"><ele>0.0</ele><time>2026-04-29T07:16:24.097Z</time></trkpt><trkpt lat="36.3099997" lon="-2.7493685"><ele>0.0</ele><time>2026-04-29T07:16:25.098Z</time></trkpt><trkpt lat="36.3100299" lon="-2.74926"><ele>0.0</ele><time>2026-04-29T07:16:26.098Z</time></trkpt><trkpt lat="36.3100448" lon="-2.7491526"><ele>0.0</ele><time>2026-04-29T07:16:27.097Z</time></trkpt><trkpt lat="36.310061" lon="-2.7490433"><ele>0.0</ele><time>2026-04-29T07:16:28.098Z</time></trkpt><trkpt lat="36.3100717" lon="-2.7489321"><ele>0.0</ele><time>2026-04-29T07:16:29.098Z</time></trkpt><trkpt lat="36.3100829" lon="-2.7488247"><ele>0.0</ele><time>2026-04-29T07:16:30.098Z</time></trkpt><trkpt lat="36.3100844" lon="-2.7487257"><ele>0.0</ele><time>2026-04-29T07:16:31.097Z</time></trkpt><trkpt lat="36.3100988" lon="-2.7486185"><ele>0.0</ele><time>2026-04-29T07:16:32.097Z</time></trkpt><trkpt lat="36.3101151" lon="-2.7485076"><ele>0.0</ele><time>2026-04-29T07:16:33.098Z</time></trkpt><trkpt lat="36.3101321" lon="-2.7483988"><ele>0.0</ele><time>2026-04-29T07:16:34.098Z</time></trkpt><trkpt lat="36.3101505" lon="-2.7482904"><ele>0.0</ele><time>2026-04-29T07:16:35.097Z</time></trkpt><trkpt lat="36.3101672" lon="-2.7481832"><ele>0.0</ele><time>2026-04-29T07:16:36.097Z</time></trkpt><trkpt lat="36.3101799" lon="-2.7480779"><ele>0.0</ele><time>2026-04-29T07:16:37.098Z</time></trkpt><trkpt lat="36.3101884" lon="-2.7479672"><ele>0.0</ele><time>2026-04-29T07:16:38.097Z</time></trkpt><trkpt lat="36.3101884" lon="-2.7478585"><ele>0.0</ele><time>2026-04-29T07:16:39.097Z</time></trkpt><trkpt lat="36.3102062" lon="-2.7477395"><ele>0.0</ele><time>2026-04-29T07:16:40.097Z</time></trkpt><trkpt lat="36.3102446" lon="-2.7475162"><ele>0.0</ele><time>2026-04-29T07:16:42.098Z</time></trkpt><trkpt lat="36.3102683" lon="-2.7474135"><ele>0.0</ele><time>2026-04-29T07:16:43.097Z</time></trkpt><trkpt lat="36.3102867" lon="-2.7473081"><ele>0.0</ele><time>2026-04-29T07:16:44.098Z</time></trkpt><trkpt lat="36.3103172" lon="-2.7472029"><ele>0.0</ele><time>2026-04-29T07:16:45.097Z</time></trkpt><trkpt lat="36.3103313" lon="-2.747101"><ele>0.0</ele><time>2026-04-29T07:16:46.097Z</time></trkpt><trkpt lat="36.3103337" lon="-2.7469976"><ele>0.0</ele><time>2026-04-29T07:16:47.097Z</time></trkpt><trkpt lat="36.3103379" lon="-2.7468914"><ele>0.0</ele><time>2026-04-29T07:16:48.097Z</time></trkpt><trkpt lat="36.310347" lon="-2.7467819"><ele>0.0</ele><time>2026-04-29T07:16:49.098Z</time></trkpt><trkpt lat="36.3103557" lon="-2.7466732"><ele>0.0</ele><time>2026-04-29T07:16:50.098Z</time></trkpt><trkpt lat="36.3103725" lon="-2.7465592"><ele>0.0</ele><time>2026-04-29T07:16:51.097Z</time></trkpt><trkpt lat="36.3103869" lon="-2.7464528"><ele>0.0</ele><time>2026-04-29T07:16:52.097Z</time></trkpt><trkpt lat="36.3104188" lon="-2.7463449"><ele>0.0</ele><time>2026-04-29T07:16:53.098Z</time></trkpt><trkpt lat="36.3104565" lon="-2.7462338"><ele>0.0</ele><time>2026-04-29T07:16:54.098Z</time></trkpt><trkpt lat="36.3104778" lon="-2.7461308"><ele>0.0</ele><time>2026-04-29T07:16:55.097Z</time></trkpt><trkpt lat="36.3104968" lon="-2.7460234"><ele>0.0</ele><time>2026-04-29T07:16:56.098Z</time></trkpt><trkpt lat="36.3105042" lon="-2.7459177"><ele>0.0</ele><time>2026-04-29T07:16:57.098Z</time></trkpt><trkpt lat="36.3105122" lon="-2.7458101"><ele>0.0</ele><time>2026-04-29T07:16:58.098Z</time></trkpt><trkpt lat="36.3105209" lon="-2.745703"><ele>0.0</ele><time>2026-04-29T07:16:59.097Z</time></trkpt><trkpt lat="36.3105267" lon="-2.7455994"><ele>0.0</ele><time>2026-04-29T07:17:00.098Z</time></trkpt><trkpt lat="36.3105396" lon="-2.7454903"><ele>0.0</ele><time>2026-04-29T07:17:01.097Z</time></trkpt><trkpt lat="36.3105694" lon="-2.7452781"><ele>0.0</ele><time>2026-04-29T07:17:03.097Z</time></trkpt><trkpt lat="36.3105899" lon="-2.7451702"><ele>0.0</ele><time>2026-04-29T07:17:04.097Z</time></trkpt><trkpt lat="36.3106057" lon="-2.7450577"><ele>0.0</ele><time>2026-04-29T07:17:05.097Z</time></trkpt><trkpt lat="36.3106234" lon="-2.7449431"><ele>0.0</ele><time>2026-04-29T07:17:06.097Z</time></trkpt><trkpt lat="36.3106415" lon="-2.7448353"><ele>0.0</ele><time>2026-04-29T07:17:07.098Z</time></trkpt><trkpt lat="36.3106603" lon="-2.7447235"><ele>0.0</ele><time>2026-04-29T07:17:08.098Z</time></trkpt><trkpt lat="36.3106774" lon="-2.7446144"><ele>0.0</ele><time>2026-04-29T07:17:09.097Z</time></trkpt><trkpt lat="36.3106929" lon="-2.7445174"><ele>0.0</ele><time>2026-04-29T07:17:10.097Z</time></trkpt><trkpt lat="36.310707" lon="-2.7444185"><ele>0.0</ele><time>2026-04-29T07:17:11.097Z</time></trkpt><trkpt lat="36.3107232" lon="-2.7443029"><ele>0.0</ele><time>2026-04-29T07:17:12.097Z</time></trkpt><trkpt lat="36.310733" lon="-2.744186"><ele>0.0</ele><time>2026-04-29T07:17:13.098Z</time></trkpt><trkpt lat="36.310734" lon="-2.7440799"><ele>0.0</ele><time>2026-04-29T07:17:14.097Z</time></trkpt><trkpt lat="36.3107386" lon="-2.7439719"><ele>0.0</ele><time>2026-04-29T07:17:15.098Z</time></trkpt><trkpt lat="36.310759" lon="-2.7438636"><ele>0.0</ele><time>2026-04-29T07:17:16.097Z</time></trkpt><trkpt lat="36.3107732" lon="-2.743744"><ele>0.0</ele><time>2026-04-29T07:17:17.098Z</time></trkpt><trkpt lat="36.3107901" lon="-2.7436344"><ele>0.0</ele><time>2026-04-29T07:17:18.098Z</time></trkpt><trkpt lat="36.3107996" lon="-2.7435238"><ele>0.0</ele><time>2026-04-29T07:17:19.097Z</time></trkpt><trkpt lat="36.3108094" lon="-2.743413"><ele>0.0</ele><time>2026-04-29T07:17:20.097Z</time></trkpt><trkpt lat="36.310833" lon="-2.7433104"><ele>0.0</ele><time>2026-04-29T07:17:21.097Z</time></trkpt><trkpt lat="36.3108476" lon="-2.7430978"><ele>0.0</ele><time>2026-04-29T07:17:23.098Z</time></trkpt><trkpt lat="36.310856" lon="-2.7429897"><ele>0.0</ele><time>2026-04-29T07:17:24.097Z</time></trkpt><trkpt lat="36.3108893" lon="-2.7428825"><ele>0.0</ele><time>2026-04-29T07:17:25.098Z</time></trkpt><trkpt lat="36.3109193" lon="-2.7427774"><ele>0.0</ele><time>2026-04-29T07:17:26.097Z</time></trkpt><trkpt lat="36.3109397" lon="-2.7426682"><ele>0.0</ele><time>2026-04-29T07:17:27.097Z</time></trkpt><trkpt lat="36.3109538" lon="-2.7425604"><ele>0.0</ele><time>2026-04-29T07:17:28.097Z</time></trkpt><trkpt lat="36.3109649" lon="-2.7424549"><ele>0.0</ele><time>2026-04-29T07:17:29.097Z</time></trkpt><trkpt lat="36.3109806" lon="-2.7423487"><ele>0.0</ele><time>2026-04-29T07:17:30.097Z</time></trkpt><trkpt lat="36.3109944" lon="-2.7422377"><ele>0.0</ele><time>2026-04-29T07:17:31.097Z</time></trkpt><trkpt lat="36.3110108" lon="-2.7421306"><ele>0.0</ele><time>2026-04-29T07:17:32.097Z</time></trkpt><trkpt lat="36.3110306" lon="-2.7420205"><ele>0.0</ele><time>2026-04-29T07:17:33.098Z</time></trkpt><trkpt lat="36.3110471" lon="-2.7419075"><ele>0.0</ele><time>2026-04-29T07:17:34.097Z</time></trkpt><trkpt lat="36.3110535" lon="-2.7417925"><ele>0.0</ele><time>2026-04-29T07:17:35.098Z</time></trkpt><trkpt lat="36.3110734" lon="-2.7416933"><ele>0.0</ele><time>2026-04-29T07:17:36.098Z</time></trkpt><trkpt lat="36.3110926" lon="-2.7415874"><ele>0.0</ele><time>2026-04-29T07:17:37.097Z</time></trkpt><trkpt lat="36.3111067" lon="-2.741481"><ele>0.0</ele><time>2026-04-29T07:17:38.097Z</time></trkpt><trkpt lat="36.3111222" lon="-2.7413707"><ele>0.0</ele><time>2026-04-29T07:17:39.097Z</time></trkpt><trkpt lat="36.3111362" lon="-2.7412616"><ele>0.0</ele><time>2026-04-29T07:17:40.097Z</time></trkpt><trkpt lat="36.3111497" lon="-2.7411494"><ele>0.0</ele><time>2026-04-29T07:17:41.098Z</time></trkpt><trkpt lat="36.3111644" lon="-2.7410414"><ele>0.0</ele><time>2026-04-29T07:17:42.097Z</time></trkpt><trkpt lat="36.3111933" lon="-2.7408253"><ele>0.0</ele><time>2026-04-29T07:17:44.097Z</time></trkpt><trkpt lat="36.3112056" lon="-2.7407191"><ele>0.0</ele><time>2026-04-29T07:17:45.098Z</time></trkpt><trkpt lat="36.3112143" lon="-2.7406072"><ele>0.0</ele><time>2026-04-29T07:17:46.098Z</time></trkpt><trkpt lat="36.3112369" lon="-2.7405028"><ele>0.0</ele><time>2026-04-29T07:17:47.098Z</time></trkpt><trkpt lat="36.3112489" lon="-2.7403976"><ele>0.0</ele><time>2026-04-29T07:17:48.097Z</time></trkpt><trkpt lat="36.3112799" lon="-2.7402962"><ele>0.0</ele><time>2026-04-29T07:17:49.098Z</time></trkpt><trkpt lat="36.3112864" lon="-2.7401888"><ele>0.0</ele><time>2026-04-29T07:17:50.098Z</time></trkpt><trkpt lat="36.3113203" lon="-2.7400807"><ele>0.0</ele><time>2026-04-29T07:17:51.097Z</time></trkpt><trkpt lat="36.311357" lon="-2.7399745"><ele>0.0</ele><time>2026-04-29T07:17:52.097Z</time></trkpt><trkpt lat="36.3113915" lon="-2.7398652"><ele>0.0</ele><time>2026-04-29T07:17:53.098Z</time></trkpt><trkpt lat="36.3114041" lon="-2.7397567"><ele>0.0</ele><time>2026-04-29T07:17:54.098Z</time></trkpt><trkpt lat="36.3114147" lon="-2.739654"><ele>0.0</ele><time>2026-04-29T07:17:55.098Z</time></trkpt><trkpt lat="36.3114288" lon="-2.7395467"><ele>0.0</ele><time>2026-04-29T07:17:56.097Z</time></trkpt><trkpt lat="36.3114359" lon="-2.7394368"><ele>0.0</ele><time>2026-04-29T07:17:57.097Z</time></trkpt><trkpt lat="36.311441" lon="-2.7393245"><ele>0.0</ele><time>2026-04-29T07:17:58.097Z</time></trkpt><trkpt lat="36.3114492" lon="-2.7392121"><ele>0.0</ele><time>2026-04-29T07:17:59.097Z</time></trkpt><trkpt lat="36.3114757" lon="-2.739107"><ele>0.0</ele><time>2026-04-29T07:18:00.097Z</time></trkpt><trkpt lat="36.3114855" lon="-2.7389925"><ele>0.0</ele><time>2026-04-29T07:18:01.097Z</time></trkpt><trkpt lat="36.3114955" lon="-2.7388844"><ele>0.0</ele><time>2026-04-29T07:18:02.098Z</time></trkpt><trkpt lat="36.3115202" lon="-2.7387841"><ele>0.0</ele><time>2026-04-29T07:18:03.098Z</time></trkpt><trkpt lat="36.311545" lon="-2.7385766"><ele>0.0</ele><time>2026-04-29T07:18:05.098Z</time></trkpt><trkpt lat="36.3115523" lon="-2.7384715"><ele>0.0</ele><time>2026-04-29T07:18:06.098Z</time></trkpt><trkpt lat="36.3115535" lon="-2.7383616"><ele>0.0</ele><time>2026-04-29T07:18:07.098Z</time></trkpt><trkpt lat="36.3115674" lon="-2.7382545"><ele>0.0</ele><time>2026-04-29T07:18:08.098Z</time></trkpt><trkpt lat="36.3115854" lon="-2.7381464"><ele>0.0</ele><time>2026-04-29T07:18:09.098Z</time></trkpt><trkpt lat="36.3116001" lon="-2.7380382"><ele>0.0</ele><time>2026-04-29T07:18:10.097Z</time></trkpt><trkpt lat="36.3116192" lon="-2.7379279"><ele>0.0</ele><time>2026-04-29T07:18:11.098Z</time></trkpt><trkpt lat="36.3116375" lon="-2.7378168"><ele>0.0</ele><time>2026-04-29T07:18:12.097Z</time></trkpt><trkpt lat="36.3116801" lon="-2.7377095"><ele>0.0</ele><time>2026-04-29T07:18:13.098Z</time></trkpt><trkpt lat="36.3116966" lon="-2.7376008"><ele>0.0</ele><time>2026-04-29T07:18:14.098Z</time></trkpt><trkpt lat="36.3117131" lon="-2.7374977"><ele>0.0</ele><time>2026-04-29T07:18:15.097Z</time></trkpt><trkpt lat="36.311734" lon="-2.7373899"><ele>0.0</ele><time>2026-04-29T07:18:16.097Z</time></trkpt><trkpt lat="36.3117542" lon="-2.7372711"><ele>0.0</ele><time>2026-04-29T07:18:17.098Z</time></trkpt><trkpt lat="36.3117754" lon="-2.7371683"><ele>0.0</ele><time>2026-04-29T07:18:18.097Z</time></trkpt><trkpt lat="36.3117894" lon="-2.737063"><ele>0.0</ele><time>2026-04-29T07:18:19.097Z</time></trkpt><trkpt lat="36.3118005" lon="-2.7369621"><ele>0.0</ele><time>2026-04-29T07:18:20.097Z</time></trkpt><trkpt lat="36.3118119" lon="-2.7368592"><ele>0.0</ele><time>2026-04-29T07:18:21.098Z</time></trkpt><trkpt lat="36.3118226" lon="-2.7367543"><ele>0.0</ele><time>2026-04-29T07:18:22.097Z</time></trkpt><trkpt lat="36.3118287" lon="-2.7366507"><ele>0.0</ele><time>2026-04-29T07:18:23.097Z</time></trkpt><trkpt lat="36.3118455" lon="-2.7365434"><ele>0.0</ele><time>2026-04-29T07:18:24.097Z</time></trkpt><trkpt lat="36.3118864" lon="-2.7363248"><ele>0.0</ele><time>2026-04-29T07:18:26.098Z</time></trkpt><trkpt lat="36.3119046" lon="-2.7362174"><ele>0.0</ele><time>2026-04-29T07:18:27.097Z</time></trkpt><trkpt lat="36.3119141" lon="-2.7361117"><ele>0.0</ele><time>2026-04-29T07:18:28.098Z</time></trkpt><trkpt lat="36.3119264" lon="-2.7360036"><ele>0.0</ele><time>2026-04-29T07:18:29.098Z</time></trkpt><trkpt lat="36.3119483" lon="-2.7358949"><ele>0.0</ele><time>2026-04-29T07:18:30.097Z</time></trkpt><trkpt lat="36.3119701" lon="-2.7357808"><ele>0.0</ele><time>2026-04-29T07:18:31.097Z</time></trkpt><trkpt lat="36.3119851" lon="-2.7356703"><ele>0.0</ele><time>2026-04-29T07:18:32.098Z</time></trkpt><trkpt lat="36.3120011" lon="-2.7355589"><ele>0.0</ele><time>2026-04-29T07:18:33.097Z</time></trkpt><trkpt lat="36.3120134" lon="-2.7354473"><ele>0.0</ele><time>2026-04-29T07:18:34.097Z</time></trkpt><trkpt lat="36.3120293" lon="-2.7353358"><ele>0.0</ele><time>2026-04-29T07:18:35.098Z</time></trkpt><trkpt lat="36.3120263" lon="-2.7352265"><ele>0.0</ele><time>2026-04-29T07:18:36.097Z</time></trkpt><trkpt lat="36.3120211" lon="-2.7351182"><ele>0.0</ele><time>2026-04-29T07:18:37.097Z</time></trkpt><trkpt lat="36.3120139" lon="-2.7350069"><ele>0.0</ele><time>2026-04-29T07:18:38.098Z</time></trkpt><trkpt lat="36.3120106" lon="-2.7348979"><ele>0.0</ele><time>2026-04-29T07:18:39.097Z</time></trkpt><trkpt lat="36.3120094" lon="-2.734787"><ele>0.0</ele><time>2026-04-29T07:18:40.097Z</time></trkpt><trkpt lat="36.312021" lon="-2.7346794"><ele>0.0</ele><time>2026-04-29T07:18:41.097Z</time></trkpt><trkpt lat="36.3120326" lon="-2.7345747"><ele>0.0</ele><time>2026-04-29T07:18:42.097Z</time></trkpt><trkpt lat="36.312043" lon="-2.7344681"><ele>0.0</ele><time>2026-04-29T07:18:43.098Z</time></trkpt><trkpt lat="36.3120518" lon="-2.7343616"><ele>0.0</ele><time>2026-04-29T07:18:44.097Z</time></trkpt><trkpt lat="36.3120569" lon="-2.7342532"><ele>0.0</ele><time>2026-04-29T07:18:45.098Z</time></trkpt><trkpt lat="36.3120902" lon="-2.7340437"><ele>0.0</ele><time>2026-04-29T07:18:47.097Z</time></trkpt><trkpt lat="36.3121103" lon="-2.7339408"><ele>0.0</ele><time>2026-04-29T07:18:48.097Z</time></trkpt><trkpt lat="36.3121307" lon="-2.7338319"><ele>0.0</ele><time>2026-04-29T07:18:49.098Z</time></trkpt><trkpt lat="36.3121468" lon="-2.7337249"><ele>0.0</ele><time>2026-04-29T07:18:50.098Z</time></trkpt><trkpt lat="36.3121608" lon="-2.7336083"><ele>0.0</ele><time>2026-04-29T07:18:51.098Z</time></trkpt><trkpt lat="36.3121698" lon="-2.733497"><ele>0.0</ele><time>2026-04-29T07:18:52.097Z</time></trkpt><trkpt lat="36.3121891" lon="-2.7333896"><ele>0.0</ele><time>2026-04-29T07:18:53.097Z</time></trkpt><trkpt lat="36.3122032" lon="-2.7332902"><ele>0.0</ele><time>2026-04-29T07:18:54.097Z</time></trkpt><trkpt lat="36.3122066" lon="-2.7331761"><ele>0.0</ele><time>2026-04-29T07:18:55.098Z</time></trkpt><trkpt lat="36.3122188" lon="-2.7330627"><ele>0.0</ele><time>2026-04-29T07:18:56.097Z</time></trkpt><trkpt lat="36.3122307" lon="-2.7329488"><ele>0.0</ele><time>2026-04-29T07:18:57.097Z</time></trkpt><trkpt lat="36.3122439" lon="-2.7328416"><ele>0.0</ele><time>2026-04-29T07:18:58.097Z</time></trkpt><trkpt lat="36.3122554" lon="-2.7327362"><ele>0.0</ele><time>2026-04-29T07:18:59.098Z</time></trkpt><trkpt lat="36.3122626" lon="-2.7326297"><ele>0.0</ele><time>2026-04-29T07:19:00.098Z</time></trkpt><trkpt lat="36.3122517" lon="-2.7325219"><ele>0.0</ele><time>2026-04-29T07:19:01.097Z</time></trkpt><trkpt lat="36.3122783" lon="-2.7324164"><ele>0.0</ele><time>2026-04-29T07:19:02.097Z</time></trkpt><trkpt lat="36.3122971" lon="-2.73231"><ele>0.0</ele><time>2026-04-29T07:19:03.097Z</time></trkpt><trkpt lat="36.3123127" lon="-2.732209"><ele>0.0</ele><time>2026-04-29T07:19:04.098Z</time></trkpt><trkpt lat="36.3123521" lon="-2.7321031"><ele>0.0</ele><time>2026-04-29T07:19:05.098Z</time></trkpt><trkpt lat="36.312371" lon="-2.7320008"><ele>0.0</ele><time>2026-04-29T07:19:06.098Z</time></trkpt><trkpt lat="36.3124058" lon="-2.7317884"><ele>0.0</ele><time>2026-04-29T07:19:08.097Z</time></trkpt><trkpt lat="36.3124176" lon="-2.7316802"><ele>0.0</ele><time>2026-04-29T07:19:09.098Z</time></trkpt><trkpt lat="36.312434" lon="-2.7315773"><ele>0.0</ele><time>2026-04-29T07:19:10.098Z</time></trkpt><trkpt lat="36.3124489" lon="-2.7314788"><ele>0.0</ele><time>2026-04-29T07:19:11.097Z</time></trkpt><trkpt lat="36.3124621" lon="-2.7313775"><ele>0.0</ele><time>2026-04-29T07:19:12.097Z</time></trkpt><trkpt lat="36.3124781" lon="-2.731266"><ele>0.0</ele><time>2026-04-29T07:19:13.098Z</time></trkpt><trkpt lat="36.312492" lon="-2.7311496"><ele>0.0</ele><time>2026-04-29T07:19:14.097Z</time></trkpt><trkpt lat="36.3125037" lon="-2.7310358"><ele>0.0</ele><time>2026-04-29T07:19:15.097Z</time></trkpt><trkpt lat="36.3125055" lon="-2.7309238"><ele>0.0</ele><time>2026-04-29T07:19:16.097Z</time></trkpt><trkpt lat="36.3125086" lon="-2.730818"><ele>0.0</ele><time>2026-04-29T07:19:17.098Z</time></trkpt><trkpt lat="36.3125129" lon="-2.7307061"><ele>0.0</ele><time>2026-04-29T07:19:18.098Z</time></trkpt><trkpt lat="36.3125238" lon="-2.7306011"><ele>0.0</ele><time>2026-04-29T07:19:19.097Z</time></trkpt><trkpt lat="36.3125483" lon="-2.730489"><ele>0.0</ele><time>2026-04-29T07:19:20.097Z</time></trkpt><trkpt lat="36.3125601" lon="-2.7303801"><ele>0.0</ele><time>2026-04-29T07:19:21.097Z</time></trkpt><trkpt lat="36.3125746" lon="-2.730275"><ele>0.0</ele><time>2026-04-29T07:19:22.097Z</time></trkpt><trkpt lat="36.3125886" lon="-2.7301652"><ele>0.0</ele><time>2026-04-29T07:19:23.098Z</time></trkpt><trkpt lat="36.3126023" lon="-2.7300578"><ele>0.0</ele><time>2026-04-29T07:19:24.097Z</time></trkpt><trkpt lat="36.3126135" lon="-2.7299528"><ele>0.0</ele><time>2026-04-29T07:19:25.097Z</time></trkpt><trkpt lat="36.3126298" lon="-2.7298463"><ele>0.0</ele><time>2026-04-29T07:19:26.097Z</time></trkpt><trkpt lat="36.312651" lon="-2.729738"><ele>0.0</ele><time>2026-04-29T07:19:27.097Z</time></trkpt><trkpt lat="36.3126677" lon="-2.7295222"><ele>0.0</ele><time>2026-04-29T07:19:29.098Z</time></trkpt><trkpt lat="36.3126909" lon="-2.7294161"><ele>0.0</ele><time>2026-04-29T07:19:30.097Z</time></trkpt><trkpt lat="36.3127049" lon="-2.7293102"><ele>0.0</ele><time>2026-04-29T07:19:31.097Z</time></trkpt><trkpt lat="36.3127179" lon="-2.7292008"><ele>0.0</ele><time>2026-04-29T07:19:32.097Z</time></trkpt><trkpt lat="36.3127328" lon="-2.7290904"><ele>0.0</ele><time>2026-04-29T07:19:33.097Z</time></trkpt><trkpt lat="36.3127481" lon="-2.7289757"><ele>0.0</ele><time>2026-04-29T07:19:34.097Z</time></trkpt><trkpt lat="36.3127625" lon="-2.7288666"><ele>0.0</ele><time>2026-04-29T07:19:35.098Z</time></trkpt><trkpt lat="36.3127782" lon="-2.7287571"><ele>0.0</ele><time>2026-04-29T07:19:36.096Z</time></trkpt><trkpt lat="36.3128009" lon="-2.7286486"><ele>0.0</ele><time>2026-04-29T07:19:37.096Z</time></trkpt><trkpt lat="36.3128233" lon="-2.7285446"><ele>0.0</ele><time>2026-04-29T07:19:38.097Z</time></trkpt><trkpt lat="36.3128422" lon="-2.7284408"><ele>0.0</ele><time>2026-04-29T07:19:39.096Z</time></trkpt><trkpt lat="36.3128558" lon="-2.7283419"><ele>0.0</ele><time>2026-04-29T07:19:40.096Z</time></trkpt><trkpt lat="36.3128687" lon="-2.7282308"><ele>0.0</ele><time>2026-04-29T07:19:41.096Z</time></trkpt><trkpt lat="36.3128874" lon="-2.7281233"><ele>0.0</ele><time>2026-04-29T07:19:42.097Z</time></trkpt><trkpt lat="36.312903" lon="-2.7280149"><ele>0.0</ele><time>2026-04-29T07:19:43.097Z</time></trkpt><trkpt lat="36.3129183" lon="-2.727908"><ele>0.0</ele><time>2026-04-29T07:19:44.097Z</time></trkpt><trkpt lat="36.3129275" lon="-2.7278044"><ele>0.0</ele><time>2026-04-29T07:19:45.096Z</time></trkpt><trkpt lat="36.3129374" lon="-2.7276883"><ele>0.0</ele><time>2026-04-29T07:19:46.096Z</time></trkpt><trkpt lat="36.3129613" lon="-2.727567"><ele>0.0</ele><time>2026-04-29T07:19:47.097Z</time></trkpt><trkpt lat="36.3130025" lon="-2.7274565"><ele>0.0</ele><time>2026-04-29T07:19:48.096Z</time></trkpt><trkpt lat="36.3130645" lon="-2.7272399"><ele>0.0</ele><time>2026-04-29T07:19:50.096Z</time></trkpt><trkpt lat="36.3130795" lon="-2.7271359"><ele>0.0</ele><time>2026-04-29T07:19:51.097Z</time></trkpt><trkpt lat="36.3130989" lon="-2.7270271"><ele>0.0</ele><time>2026-04-29T07:19:52.097Z</time></trkpt><trkpt lat="36.3131243" lon="-2.7269171"><ele>0.0</ele><time>2026-04-29T07:19:53.096Z</time></trkpt><trkpt lat="36.3131407" lon="-2.7268082"><ele>0.0</ele><time>2026-04-29T07:19:54.097Z</time></trkpt><trkpt lat="36.3131539" lon="-2.726703"><ele>0.0</ele><time>2026-04-29T07:19:55.096Z</time></trkpt><trkpt lat="36.3131612" lon="-2.7265991"><ele>0.0</ele><time>2026-04-29T07:19:56.097Z</time></trkpt><trkpt lat="36.313162" lon="-2.726489"><ele>0.0</ele><time>2026-04-29T07:19:57.096Z</time></trkpt><trkpt lat="36.3131638" lon="-2.7263804"><ele>0.0</ele><time>2026-04-29T07:19:58.096Z</time></trkpt><trkpt lat="36.3131796" lon="-2.7262706"><ele>0.0</ele><time>2026-04-29T07:19:59.096Z</time></trkpt><trkpt lat="36.3131977" lon="-2.726162"><ele>0.0</ele><time>2026-04-29T07:20:00.096Z</time></trkpt><trkpt lat="36.3132142" lon="-2.7260553"><ele>0.0</ele><time>2026-04-29T07:20:01.097Z</time></trkpt><trkpt lat="36.3132358" lon="-2.7259482"><ele>0.0</ele><time>2026-04-29T07:20:02.096Z</time></trkpt><trkpt lat="36.31325" lon="-2.7258384"><ele>0.0</ele><time>2026-04-29T07:20:03.096Z</time></trkpt><trkpt lat="36.3132649" lon="-2.7257328"><ele>0.0</ele><time>2026-04-29T07:20:04.096Z</time></trkpt><trkpt lat="36.3132834" lon="-2.7256337"><ele>0.0</ele><time>2026-04-29T07:20:05.097Z</time></trkpt><trkpt lat="36.3133151" lon="-2.7255336"><ele>0.0</ele><time>2026-04-29T07:20:06.096Z</time></trkpt><trkpt lat="36.3133376" lon="-2.7254292"><ele>0.0</ele><time>2026-04-29T07:20:07.096Z</time></trkpt><trkpt lat="36.3133533" lon="-2.7253213"><ele>0.0</ele><time>2026-04-29T07:20:08.096Z</time></trkpt><trkpt lat="36.313368" lon="-2.7252116"><ele>0.0</ele><time>2026-04-29T07:20:09.097Z</time></trkpt><trkpt lat="36.3133977" lon="-2.7249878"><ele>0.0</ele><time>2026-04-29T07:20:11.097Z</time></trkpt><trkpt lat="36.3134201" lon="-2.7248786"><ele>0.0</ele><time>2026-04-29T07:20:12.097Z</time></trkpt><trkpt lat="36.3134351" lon="-2.7247729"><ele>0.0</ele><time>2026-04-29T07:20:13.097Z</time></trkpt><trkpt lat="36.3134543" lon="-2.7246662"><ele>0.0</ele><time>2026-04-29T07:20:14.097Z</time></trkpt><trkpt lat="36.3134674" lon="-2.7245637"><ele>0.0</ele><time>2026-04-29T07:20:15.096Z</time></trkpt><trkpt lat="36.3134758" lon="-2.7244593"><ele>0.0</ele><time>2026-04-29T07:20:16.096Z</time></trkpt><trkpt lat="36.3134874" lon="-2.7243515"><ele>0.0</ele><time>2026-04-29T07:20:17.097Z</time></trkpt><trkpt lat="36.3134875" lon="-2.7242446"><ele>0.0</ele><time>2026-04-29T07:20:18.096Z</time></trkpt><trkpt lat="36.3134925" lon="-2.7241399"><ele>0.0</ele><time>2026-04-29T07:20:19.096Z</time></trkpt><trkpt lat="36.3135003" lon="-2.7240283"><ele>0.0</ele><time>2026-04-29T07:20:20.097Z</time></trkpt><trkpt lat="36.3134979" lon="-2.7239185"><ele>0.0</ele><time>2026-04-29T07:20:21.097Z</time></trkpt><trkpt lat="36.3135096" lon="-2.7238043"><ele>0.0</ele><time>2026-04-29T07:20:22.096Z</time></trkpt><trkpt lat="36.313525" lon="-2.7236935"><ele>0.0</ele><time>2026-04-29T07:20:23.097Z</time></trkpt><trkpt lat="36.3135403" lon="-2.7235877"><ele>0.0</ele><time>2026-04-29T07:20:24.096Z</time></trkpt><trkpt lat="36.3135584" lon="-2.7234869"><ele>0.0</ele><time>2026-04-29T07:20:25.097Z</time></trkpt><trkpt lat="36.3135736" lon="-2.7233824"><ele>0.0</ele><time>2026-04-29T07:20:26.097Z</time></trkpt><trkpt lat="36.3135986" lon="-2.7232689"><ele>0.0</ele><time>2026-04-29T07:20:27.096Z</time></trkpt><trkpt lat="36.3136472" lon="-2.7231599"><ele>0.0</ele><time>2026-04-29T07:20:28.097Z</time></trkpt><trkpt lat="36.3136606" lon="-2.7230457"><ele>0.0</ele><time>2026-04-29T07:20:29.097Z</time></trkpt><trkpt lat="36.3136734" lon="-2.7229373"><ele>0.0</ele><time>2026-04-29T07:20:30.096Z</time></trkpt><trkpt lat="36.3137055" lon="-2.7227144"><ele>0.0</ele><time>2026-04-29T07:20:32.096Z</time></trkpt><trkpt lat="36.3137219" lon="-2.7226034"><ele>0.0</ele><time>2026-04-29T07:20:33.097Z</time></trkpt><trkpt lat="36.3137384" lon="-2.7224878"><ele>0.0</ele><time>2026-04-29T07:20:34.097Z</time></trkpt><trkpt lat="36.3137566" lon="-2.722375"><ele>0.0</ele><time>2026-04-29T07:20:35.097Z</time></trkpt><trkpt lat="36.3137715" lon="-2.7222681"><ele>0.0</ele><time>2026-04-29T07:20:36.097Z</time></trkpt><trkpt lat="36.3137818" lon="-2.7221597"><ele>0.0</ele><time>2026-04-29T07:20:37.096Z</time></trkpt><trkpt lat="36.3137934" lon="-2.7220501"><ele>0.0</ele><time>2026-04-29T07:20:38.097Z</time></trkpt><trkpt lat="36.3137901" lon="-2.7219414"><ele>0.0</ele><time>2026-04-29T07:20:39.097Z</time></trkpt><trkpt lat="36.3137964" lon="-2.7218391"><ele>0.0</ele><time>2026-04-29T07:20:40.097Z</time></trkpt><trkpt lat="36.3138043" lon="-2.7217319"><ele>0.0</ele><time>2026-04-29T07:20:41.097Z</time></trkpt><trkpt lat="36.3138282" lon="-2.7216248"><ele>0.0</ele><time>2026-04-29T07:20:42.097Z</time></trkpt><trkpt lat="36.3138445" lon="-2.721518"><ele>0.0</ele><time>2026-04-29T07:20:43.096Z</time></trkpt><trkpt lat="36.3138525" lon="-2.7214113"><ele>0.0</ele><time>2026-04-29T07:20:44.097Z</time></trkpt><trkpt lat="36.3138448" lon="-2.7213033"><ele>0.0</ele><time>2026-04-29T07:20:45.096Z</time></trkpt><trkpt lat="36.3138533" lon="-2.7211998"><ele>0.0</ele><time>2026-04-29T07:20:46.096Z</time></trkpt><trkpt lat="36.3138674" lon="-2.7210921"><ele>0.0</ele><time>2026-04-29T07:20:47.096Z</time></trkpt><trkpt lat="36.3138811" lon="-2.7209821"><ele>0.0</ele><time>2026-04-29T07:20:48.096Z</time></trkpt><trkpt lat="36.3139134" lon="-2.7208732"><ele>0.0</ele><time>2026-04-29T07:20:49.097Z</time></trkpt><trkpt lat="36.3139266" lon="-2.720772"><ele>0.0</ele><time>2026-04-29T07:20:50.097Z</time></trkpt><trkpt lat="36.3139354" lon="-2.7206719"><ele>0.0</ele><time>2026-04-29T07:20:51.097Z</time></trkpt><trkpt lat="36.3139649" lon="-2.7204471"><ele>0.0</ele><time>2026-04-29T07:20:53.096Z</time></trkpt><trkpt lat="36.3139756" lon="-2.7203327"><ele>0.0</ele><time>2026-04-29T07:20:54.096Z</time></trkpt><trkpt lat="36.3139963" lon="-2.7202147"><ele>0.0</ele><time>2026-04-29T07:20:55.097Z</time></trkpt><trkpt lat="36.3140165" lon="-2.7201006"><ele>0.0</ele><time>2026-04-29T07:20:56.096Z</time></trkpt><trkpt lat="36.3140445" lon="-2.7199984"><ele>0.0</ele><time>2026-04-29T07:20:57.097Z</time></trkpt><trkpt lat="36.314066" lon="-2.7198982"><ele>0.0</ele><time>2026-04-29T07:20:58.096Z</time></trkpt><trkpt lat="36.3140779" lon="-2.7197942"><ele>0.0</ele><time>2026-04-29T07:20:59.096Z</time></trkpt><trkpt lat="36.3141009" lon="-2.7196879"><ele>0.0</ele><time>2026-04-29T07:21:00.096Z</time></trkpt><trkpt lat="36.3141214" lon="-2.7195769"><ele>0.0</ele><time>2026-04-29T07:21:01.096Z</time></trkpt><trkpt lat="36.3141373" lon="-2.7194635"><ele>0.0</ele><time>2026-04-29T07:21:02.096Z</time></trkpt><trkpt lat="36.3141604" lon="-2.7193549"><ele>0.0</ele><time>2026-04-29T07:21:03.096Z</time></trkpt><trkpt lat="36.3141684" lon="-2.7192463"><ele>0.0</ele><time>2026-04-29T07:21:04.096Z</time></trkpt><trkpt lat="36.3141816" lon="-2.7191365"><ele>0.0</ele><time>2026-04-29T07:21:05.096Z</time></trkpt><trkpt lat="36.3141951" lon="-2.7190295"><ele>0.0</ele><time>2026-04-29T07:21:06.097Z</time></trkpt><trkpt lat="36.3142145" lon="-2.7189231"><ele>0.0</ele><time>2026-04-29T07:21:07.097Z</time></trkpt><trkpt lat="36.3142302" lon="-2.7188166"><ele>0.0</ele><time>2026-04-29T07:21:08.096Z</time></trkpt><trkpt lat="36.3142465" lon="-2.7187058"><ele>0.0</ele><time>2026-04-29T07:21:09.097Z</time></trkpt><trkpt lat="36.31426" lon="-2.7185897"><ele>0.0</ele><time>2026-04-29T07:21:10.097Z</time></trkpt><trkpt lat="36.3142848" lon="-2.7184802"><ele>0.0</ele><time>2026-04-29T07:21:11.097Z</time></trkpt><trkpt lat="36.3143033" lon="-2.7183687"><ele>0.0</ele><time>2026-04-29T07:21:12.097Z</time></trkpt><trkpt lat="36.3143338" lon="-2.7181535"><ele>0.0</ele><time>2026-04-29T07:21:14.097Z</time></trkpt><trkpt lat="36.314344" lon="-2.7180425"><ele>0.0</ele><time>2026-04-29T07:21:15.096Z</time></trkpt><trkpt lat="36.3143642" lon="-2.7179305"><ele>0.0</ele><time>2026-04-29T07:21:16.096Z</time></trkpt><trkpt lat="36.3143611" lon="-2.7178169"><ele>0.0</ele><time>2026-04-29T07:21:17.097Z</time></trkpt><trkpt lat="36.3143519" lon="-2.7177116"><ele>0.0</ele><time>2026-04-29T07:21:18.097Z</time></trkpt><trkpt lat="36.3143462" lon="-2.7176079"><ele>0.0</ele><time>2026-04-29T07:21:19.097Z</time></trkpt><trkpt lat="36.3143425" lon="-2.7174971"><ele>0.0</ele><time>2026-04-29T07:21:20.097Z</time></trkpt><trkpt lat="36.3143456" lon="-2.7173869"><ele>0.0</ele><time>2026-04-29T07:21:21.097Z</time></trkpt><trkpt lat="36.3143488" lon="-2.7172783"><ele>0.0</ele><time>2026-04-29T07:21:22.096Z</time></trkpt><trkpt lat="36.3143508" lon="-2.7171744"><ele>0.0</ele><time>2026-04-29T07:21:23.097Z</time></trkpt><trkpt lat="36.3143541" lon="-2.7170695"><ele>0.0</ele><time>2026-04-29T07:21:24.097Z</time></trkpt><trkpt lat="36.3143543" lon="-2.7169687"><ele>0.0</ele><time>2026-04-29T07:21:25.097Z</time></trkpt><trkpt lat="36.3143526" lon="-2.716869"><ele>0.0</ele><time>2026-04-29T07:21:26.096Z</time></trkpt><trkpt lat="36.3143496" lon="-2.7167593"><ele>0.0</ele><time>2026-04-29T07:21:27.096Z</time></trkpt><trkpt lat="36.314349" lon="-2.7166459"><ele>0.0</ele><time>2026-04-29T07:21:28.096Z</time></trkpt><trkpt lat="36.3143475" lon="-2.7165302"><ele>0.0</ele><time>2026-04-29T07:21:29.096Z</time></trkpt><trkpt lat="36.3143833" lon="-2.7164149"><ele>0.0</ele><time>2026-04-29T07:21:30.096Z</time></trkpt><trkpt lat="36.3144172" lon="-2.7163099"><ele>0.0</ele><time>2026-04-29T07:21:31.097Z</time></trkpt><trkpt lat="36.3144752" lon="-2.716203"><ele>0.0</ele><time>2026-04-29T07:21:32.097Z</time></trkpt><trkpt lat="36.3145278" lon="-2.716093"><ele>0.0</ele><time>2026-04-29T07:21:33.097Z</time></trkpt><trkpt lat="36.3145935" lon="-2.7158698"><ele>0.0</ele><time>2026-04-29T07:21:35.096Z</time></trkpt><trkpt lat="36.3146153" lon="-2.7157587"><ele>0.0</ele><time>2026-04-29T07:21:36.096Z</time></trkpt><trkpt lat="36.3146367" lon="-2.7156499"><ele>0.0</ele><time>2026-04-29T07:21:37.097Z</time></trkpt><trkpt lat="36.3146531" lon="-2.7155402"><ele>0.0</ele><time>2026-04-29T07:21:38.096Z</time></trkpt><trkpt lat="36.3146651" lon="-2.7154332"><ele>0.0</ele><time>2026-04-29T07:21:39.097Z</time></trkpt><trkpt lat="36.3146786" lon="-2.7153235"><ele>0.0</ele><time>2026-04-29T07:21:40.097Z</time></trkpt><trkpt lat="36.314697" lon="-2.7152153"><ele>0.0</ele><time>2026-04-29T07:21:41.096Z</time></trkpt><trkpt lat="36.3147132" lon="-2.7151036"><ele>0.0</ele><time>2026-04-29T07:21:42.096Z</time></trkpt><trkpt lat="36.3147312" lon="-2.7149992"><ele>0.0</ele><time>2026-04-29T07:21:43.096Z</time></trkpt><trkpt lat="36.3147533" lon="-2.7148947"><ele>0.0</ele><time>2026-04-29T07:21:44.096Z</time></trkpt><trkpt lat="36.3147742" lon="-2.7147768"><ele>0.0</ele><time>2026-04-29T07:21:45.097Z</time></trkpt><trkpt lat="36.3147888" lon="-2.7146652"><ele>0.0</ele><time>2026-04-29T07:21:46.097Z</time></trkpt><trkpt lat="36.3148104" lon="-2.7145508"><ele>0.0</ele><time>2026-04-29T07:21:47.096Z</time></trkpt><trkpt lat="36.31483" lon="-2.7144388"><ele>0.0</ele><time>2026-04-29T07:21:48.097Z</time></trkpt><trkpt lat="36.3148484" lon="-2.7143283"><ele>0.0</ele><time>2026-04-29T07:21:49.096Z</time></trkpt><trkpt lat="36.3148634" lon="-2.7142241"><ele>0.0</ele><time>2026-04-29T07:21:50.096Z</time></trkpt><trkpt lat="36.3148823" lon="-2.7141255"><ele>0.0</ele><time>2026-04-29T07:21:51.097Z</time></trkpt><trkpt lat="36.3148957" lon="-2.7140242"><ele>0.0</ele><time>2026-04-29T07:21:52.097Z</time></trkpt><trkpt lat="36.3149054" lon="-2.7139251"><ele>0.0</ele><time>2026-04-29T07:21:53.096Z</time></trkpt><trkpt lat="36.3149182" lon="-2.7138167"><ele>0.0</ele><time>2026-04-29T07:21:54.096Z</time></trkpt><trkpt lat="36.3149363" lon="-2.713601"><ele>0.0</ele><time>2026-04-29T07:21:56.096Z</time></trkpt><trkpt lat="36.3149463" lon="-2.7134873"><ele>0.0</ele><time>2026-04-29T07:21:57.096Z</time></trkpt><trkpt lat="36.3149674" lon="-2.7133781"><ele>0.0</ele><time>2026-04-29T07:21:58.096Z</time></trkpt><trkpt lat="36.3149781" lon="-2.7132685"><ele>0.0</ele><time>2026-04-29T07:21:59.097Z</time></trkpt><trkpt lat="36.3149938" lon="-2.7131613"><ele>0.0</ele><time>2026-04-29T07:22:00.096Z</time></trkpt><trkpt lat="36.3150104" lon="-2.7130559"><ele>0.0</ele><time>2026-04-29T07:22:01.096Z</time></trkpt><trkpt lat="36.3150271" lon="-2.712948"><ele>0.0</ele><time>2026-04-29T07:22:02.096Z</time></trkpt><trkpt lat="36.3150402" lon="-2.7128426"><ele>0.0</ele><time>2026-04-29T07:22:03.097Z</time></trkpt><trkpt lat="36.3150522" lon="-2.7127366"><ele>0.0</ele><time>2026-04-29T07:22:04.097Z</time></trkpt><trkpt lat="36.3150637" lon="-2.7126295"><ele>0.0</ele><time>2026-04-29T07:22:05.097Z</time></trkpt><trkpt lat="36.3150735" lon="-2.712523"><ele>0.0</ele><time>2026-04-29T07:22:06.097Z</time></trkpt><trkpt lat="36.3150882" lon="-2.7124144"><ele>0.0</ele><time>2026-04-29T07:22:07.096Z</time></trkpt><trkpt lat="36.315097" lon="-2.7123097"><ele>0.0</ele><time>2026-04-29T07:22:08.097Z</time></trkpt><trkpt lat="36.3151066" lon="-2.7122019"><ele>0.0</ele><time>2026-04-29T07:22:09.096Z</time></trkpt><trkpt lat="36.3151196" lon="-2.7120934"><ele>0.0</ele><time>2026-04-29T07:22:10.097Z</time></trkpt><trkpt lat="36.3151348" lon="-2.7119807"><ele>0.0</ele><time>2026-04-29T07:22:11.097Z</time></trkpt><trkpt lat="36.3151457" lon="-2.711869"><ele>0.0</ele><time>2026-04-29T07:22:12.097Z</time></trkpt><trkpt lat="36.3151595" lon="-2.7117556"><ele>0.0</ele><time>2026-04-29T07:22:13.096Z</time></trkpt><trkpt lat="36.3151686" lon="-2.7116437"><ele>0.0</ele><time>2026-04-29T07:22:14.096Z</time></trkpt><trkpt lat="36.3151767" lon="-2.7115338"><ele>0.0</ele><time>2026-04-29T07:22:15.096Z</time></trkpt><trkpt lat="36.3152046" lon="-2.7113085"><ele>0.0</ele><time>2026-04-29T07:22:17.096Z</time></trkpt><trkpt lat="36.3152213" lon="-2.7112026"><ele>0.0</ele><time>2026-04-29T07:22:18.097Z</time></trkpt><trkpt lat="36.3152637" lon="-2.7111017"><ele>0.0</ele><time>2026-04-29T07:22:19.096Z</time></trkpt><trkpt lat="36.3152789" lon="-2.7109968"><ele>0.0</ele><time>2026-04-29T07:22:20.097Z</time></trkpt><trkpt lat="36.3152998" lon="-2.7108871"><ele>0.0</ele><time>2026-04-29T07:22:21.096Z</time></trkpt><trkpt lat="36.3153203" lon="-2.7107706"><ele>0.0</ele><time>2026-04-29T07:22:22.096Z</time></trkpt><trkpt lat="36.3153312" lon="-2.7106585"><ele>0.0</ele><time>2026-04-29T07:22:23.096Z</time></trkpt><trkpt lat="36.315347" lon="-2.710545"><ele>0.0</ele><time>2026-04-29T07:22:24.097Z</time></trkpt><trkpt lat="36.3153717" lon="-2.7104305"><ele>0.0</ele><time>2026-04-29T07:22:25.096Z</time></trkpt><trkpt lat="36.3153845" lon="-2.7103238"><ele>0.0</ele><time>2026-04-29T07:22:26.096Z</time></trkpt><trkpt lat="36.3153985" lon="-2.7102222"><ele>0.0</ele><time>2026-04-29T07:22:27.097Z</time></trkpt><trkpt lat="36.3154106" lon="-2.710118"><ele>0.0</ele><time>2026-04-29T07:22:28.097Z</time></trkpt><trkpt lat="36.3154201" lon="-2.7100044"><ele>0.0</ele><time>2026-04-29T07:22:29.097Z</time></trkpt><trkpt lat="36.3154252" lon="-2.7098909"><ele>0.0</ele><time>2026-04-29T07:22:30.096Z</time></trkpt><trkpt lat="36.3154371" lon="-2.7097757"><ele>0.0</ele><time>2026-04-29T07:22:31.096Z</time></trkpt><trkpt lat="36.3154521" lon="-2.7096648"><ele>0.0</ele><time>2026-04-29T07:22:32.097Z</time></trkpt><trkpt lat="36.3154567" lon="-2.7095523"><ele>0.0</ele><time>2026-04-29T07:22:33.096Z</time></trkpt><trkpt lat="36.3154656" lon="-2.7094447"><ele>0.0</ele><time>2026-04-29T07:22:34.096Z</time></trkpt><trkpt lat="36.3154857" lon="-2.7093333"><ele>0.0</ele><time>2026-04-29T07:22:35.097Z</time></trkpt><trkpt lat="36.3154949" lon="-2.7092225"><ele>0.0</ele><time>2026-04-29T07:22:36.097Z</time></trkpt><trkpt lat="36.3155395" lon="-2.7090043"><ele>0.0</ele><time>2026-04-29T07:22:38.097Z</time></trkpt><trkpt lat="36.3155616" lon="-2.7089008"><ele>0.0</ele><time>2026-04-29T07:22:39.096Z</time></trkpt><trkpt lat="36.3155765" lon="-2.7087863"><ele>0.0</ele><time>2026-04-29T07:22:40.096Z</time></trkpt><trkpt lat="36.3155929" lon="-2.7086695"><ele>0.0</ele><time>2026-04-29T07:22:41.096Z</time></trkpt><trkpt lat="36.3156038" lon="-2.7085527"><ele>0.0</ele><time>2026-04-29T07:22:42.097Z</time></trkpt><trkpt lat="36.3156165" lon="-2.7084445"><ele>0.0</ele><time>2026-04-29T07:22:43.096Z</time></trkpt><trkpt lat="36.3156355" lon="-2.708335"><ele>0.0</ele><time>2026-04-29T07:22:44.097Z</time></trkpt><trkpt lat="36.3156504" lon="-2.7082306"><ele>0.0</ele><time>2026-04-29T07:22:45.096Z</time></trkpt><trkpt lat="36.3156666" lon="-2.708126"><ele>0.0</ele><time>2026-04-29T07:22:46.096Z</time></trkpt><trkpt lat="36.3156788" lon="-2.7080225"><ele>0.0</ele><time>2026-04-29T07:22:47.096Z</time></trkpt><trkpt lat="36.3156885" lon="-2.7079136"><ele>0.0</ele><time>2026-04-29T07:22:48.096Z</time></trkpt><trkpt lat="36.3156999" lon="-2.7078067"><ele>0.0</ele><time>2026-04-29T07:22:49.096Z</time></trkpt><trkpt lat="36.3157129" lon="-2.7076971"><ele>0.0</ele><time>2026-04-29T07:22:50.096Z</time></trkpt><trkpt lat="36.3157354" lon="-2.7075898"><ele>0.0</ele><time>2026-04-29T07:22:51.097Z</time></trkpt><trkpt lat="36.3157615" lon="-2.7074842"><ele>0.0</ele><time>2026-04-29T07:22:52.096Z</time></trkpt><trkpt lat="36.3157897" lon="-2.7073805"><ele>0.0</ele><time>2026-04-29T07:22:53.096Z</time></trkpt><trkpt lat="36.3158113" lon="-2.7072742"><ele>0.0</ele><time>2026-04-29T07:22:54.096Z</time></trkpt><trkpt lat="36.3158435" lon="-2.7071617"><ele>0.0</ele><time>2026-04-29T07:22:55.096Z</time></trkpt><trkpt lat="36.315864" lon="-2.7070558"><ele>0.0</ele><time>2026-04-29T07:22:56.097Z</time></trkpt><trkpt lat="36.3158832" lon="-2.7069462"><ele>0.0</ele><time>2026-04-29T07:22:57.096Z</time></trkpt><trkpt lat="36.3159276" lon="-2.7067133"><ele>0.0</ele><time>2026-04-29T07:22:59.096Z</time></trkpt><trkpt lat="36.3159379" lon="-2.7066012"><ele>0.0</ele><time>2026-04-29T07:23:00.096Z</time></trkpt><trkpt lat="36.3159547" lon="-2.7064941"><ele>0.0</ele><time>2026-04-29T07:23:01.097Z</time></trkpt><trkpt lat="36.3159669" lon="-2.7063826"><ele>0.0</ele><time>2026-04-29T07:23:02.097Z</time></trkpt><trkpt lat="36.3159759" lon="-2.706265"><ele>0.0</ele><time>2026-04-29T07:23:03.097Z</time></trkpt><trkpt lat="36.315991" lon="-2.7061507"><ele>0.0</ele><time>2026-04-29T07:23:04.096Z</time></trkpt><trkpt lat="36.315999" lon="-2.7060327"><ele>0.0</ele><time>2026-04-29T07:23:05.097Z</time></trkpt><trkpt lat="36.315994" lon="-2.7059248"><ele>0.0</ele><time>2026-04-29T07:23:06.096Z</time></trkpt><trkpt lat="36.3159925" lon="-2.7058153"><ele>0.0</ele><time>2026-04-29T07:23:07.096Z</time></trkpt><trkpt lat="36.3160055" lon="-2.7057049"><ele>0.0</ele><time>2026-04-29T07:23:08.096Z</time></trkpt><trkpt lat="36.3160134" lon="-2.7055988"><ele>0.0</ele><time>2026-04-29T07:23:09.097Z</time></trkpt><trkpt lat="36.316024" lon="-2.7054953"><ele>0.0</ele><time>2026-04-29T07:23:10.097Z</time></trkpt><trkpt lat="36.3160369" lon="-2.7053934"><ele>0.0</ele><time>2026-04-29T07:23:11.096Z</time></trkpt><trkpt lat="36.3160499" lon="-2.7052806"><ele>0.0</ele><time>2026-04-29T07:23:12.096Z</time></trkpt><trkpt lat="36.3160644" lon="-2.7051675"><ele>0.0</ele><time>2026-04-29T07:23:13.096Z</time></trkpt><trkpt lat="36.3160729" lon="-2.7050554"><ele>0.0</ele><time>2026-04-29T07:23:14.097Z</time></trkpt><trkpt lat="36.3160848" lon="-2.7049524"><ele>0.0</ele><time>2026-04-29T07:23:15.097Z</time></trkpt><trkpt lat="36.3160902" lon="-2.7048421"><ele>0.0</ele><time>2026-04-29T07:23:16.097Z</time></trkpt><trkpt lat="36.3161099" lon="-2.7047371"><ele>0.0</ele><time>2026-04-29T07:23:17.097Z</time></trkpt><trkpt lat="36.3161251" lon="-2.7046264"><ele>0.0</ele><time>2026-04-29T07:23:18.096Z</time></trkpt><trkpt lat="36.3161518" lon="-2.7043991"><ele>0.0</ele><time>2026-04-29T07:23:20.096Z</time></trkpt><trkpt lat="36.3161609" lon="-2.7042853"><ele>0.0</ele><time>2026-04-29T07:23:21.097Z</time></trkpt><trkpt lat="36.3161719" lon="-2.7041725"><ele>0.0</ele><time>2026-04-29T07:23:22.096Z</time></trkpt><trkpt lat="36.3161919" lon="-2.7040664"><ele>0.0</ele><time>2026-04-29T07:23:23.096Z</time></trkpt><trkpt lat="36.3162069" lon="-2.7039579"><ele>0.0</ele><time>2026-04-29T07:23:24.096Z</time></trkpt><trkpt lat="36.3162166" lon="-2.7038452"><ele>0.0</ele><time>2026-04-29T07:23:25.097Z</time></trkpt><trkpt lat="36.3162164" lon="-2.7037337"><ele>0.0</ele><time>2026-04-29T07:23:26.097Z</time></trkpt><trkpt lat="36.3162419" lon="-2.7036241"><ele>0.0</ele><time>2026-04-29T07:23:27.097Z</time></trkpt><trkpt lat="36.3162632" lon="-2.7035117"><ele>0.0</ele><time>2026-04-29T07:23:28.097Z</time></trkpt><trkpt lat="36.3162699" lon="-2.7034046"><ele>0.0</ele><time>2026-04-29T07:23:29.096Z</time></trkpt><trkpt lat="36.3162811" lon="-2.7032937"><ele>0.0</ele><time>2026-04-29T07:23:30.096Z</time></trkpt><trkpt lat="36.3163" lon="-2.7031877"><ele>0.0</ele><time>2026-04-29T07:23:31.097Z</time></trkpt><trkpt lat="36.3163185" lon="-2.7030817"><ele>0.0</ele><time>2026-04-29T07:23:32.096Z</time></trkpt><trkpt lat="36.3163216" lon="-2.7029773"><ele>0.0</ele><time>2026-04-29T07:23:33.097Z</time></trkpt><trkpt lat="36.3163236" lon="-2.7028671"><ele>0.0</ele><time>2026-04-29T07:23:34.097Z</time></trkpt><trkpt lat="36.3163305" lon="-2.7027525"><ele>0.0</ele><time>2026-04-29T07:23:35.096Z</time></trkpt><trkpt lat="36.3163421" lon="-2.7026386"><ele>0.0</ele><time>2026-04-29T07:23:36.096Z</time></trkpt><trkpt lat="36.3163477" lon="-2.7025351"><ele>0.0</ele><time>2026-04-29T07:23:37.097Z</time></trkpt><trkpt lat="36.3163474" lon="-2.7024356"><ele>0.0</ele><time>2026-04-29T07:23:38.096Z</time></trkpt><trkpt lat="36.3163562" lon="-2.702328"><ele>0.0</ele><time>2026-04-29T07:23:39.097Z</time></trkpt><trkpt lat="36.3163684" lon="-2.7021134"><ele>0.0</ele><time>2026-04-29T07:23:41.097Z</time></trkpt><trkpt lat="36.3163721" lon="-2.7020052"><ele>0.0</ele><time>2026-04-29T07:23:42.097Z</time></trkpt><trkpt lat="36.3163731" lon="-2.7018928"><ele>0.0</ele><time>2026-04-29T07:23:43.096Z</time></trkpt><trkpt lat="36.3163766" lon="-2.7017768"><ele>0.0</ele><time>2026-04-29T07:23:44.097Z</time></trkpt><trkpt lat="36.3163885" lon="-2.7016584"><ele>0.0</ele><time>2026-04-29T07:23:45.097Z</time></trkpt><trkpt lat="36.3163979" lon="-2.701544"><ele>0.0</ele><time>2026-04-29T07:23:46.096Z</time></trkpt><trkpt lat="36.3164332" lon="-2.7014319"><ele>0.0</ele><time>2026-04-29T07:23:47.096Z</time></trkpt><trkpt lat="36.3164394" lon="-2.7013203"><ele>0.0</ele><time>2026-04-29T07:23:48.096Z</time></trkpt><trkpt lat="36.3164474" lon="-2.7012172"><ele>0.0</ele><time>2026-04-29T07:23:49.097Z</time></trkpt><trkpt lat="36.3164527" lon="-2.7011141"><ele>0.0</ele><time>2026-04-29T07:23:50.097Z</time></trkpt><trkpt lat="36.316462" lon="-2.7010078"><ele>0.0</ele><time>2026-04-29T07:23:51.097Z</time></trkpt><trkpt lat="36.3164923" lon="-2.7009038"><ele>0.0</ele><time>2026-04-29T07:23:52.097Z</time></trkpt><trkpt lat="36.3164984" lon="-2.7008033"><ele>0.0</ele><time>2026-04-29T07:23:53.096Z</time></trkpt><trkpt lat="36.3164986" lon="-2.7006939"><ele>0.0</ele><time>2026-04-29T07:23:54.097Z</time></trkpt><trkpt lat="36.3164991" lon="-2.7005791"><ele>0.0</ele><time>2026-04-29T07:23:55.097Z</time></trkpt><trkpt lat="36.3165074" lon="-2.7004741"><ele>0.0</ele><time>2026-04-29T07:23:56.097Z</time></trkpt><trkpt lat="36.3165227" lon="-2.7003655"><ele>0.0</ele><time>2026-04-29T07:23:57.097Z</time></trkpt><trkpt lat="36.3165651" lon="-2.7002566"><ele>0.0</ele><time>2026-04-29T07:23:58.097Z</time></trkpt><trkpt lat="36.3166155" lon="-2.700148"><ele>0.0</ele><time>2026-04-29T07:23:59.096Z</time></trkpt><trkpt lat="36.3166603" lon="-2.7000382"><ele>0.0</ele><time>2026-04-29T07:24:00.096Z</time></trkpt><trkpt lat="36.3167388" lon="-2.6998183"><ele>0.0</ele><time>2026-04-29T07:24:02.097Z</time></trkpt><trkpt lat="36.3167565" lon="-2.6997101"><ele>0.0</ele><time>2026-04-29T07:24:03.096Z</time></trkpt><trkpt lat="36.3167729" lon="-2.6995986"><ele>0.0</ele><time>2026-04-29T07:24:04.096Z</time></trkpt><trkpt lat="36.3167858" lon="-2.6994963"><ele>0.0</ele><time>2026-04-29T07:24:05.097Z</time></trkpt><trkpt lat="36.3167921" lon="-2.6993842"><ele>0.0</ele><time>2026-04-29T07:24:06.096Z</time></trkpt><trkpt lat="36.3167921" lon="-2.699271"><ele>0.0</ele><time>2026-04-29T07:24:07.096Z</time></trkpt><trkpt lat="36.3168" lon="-2.6991576"><ele>0.0</ele><time>2026-04-29T07:24:08.097Z</time></trkpt><trkpt lat="36.3168101" lon="-2.6990458"><ele>0.0</ele><time>2026-04-29T07:24:09.096Z</time></trkpt><trkpt lat="36.3168159" lon="-2.6989369"><ele>0.0</ele><time>2026-04-29T07:24:10.096Z</time></trkpt><trkpt lat="36.3168269" lon="-2.6988196"><ele>0.0</ele><time>2026-04-29T07:24:11.096Z</time></trkpt><trkpt lat="36.3168317" lon="-2.6987066"><ele>0.0</ele><time>2026-04-29T07:24:12.097Z</time></trkpt><trkpt lat="36.3168459" lon="-2.6986022"><ele>0.0</ele><time>2026-04-29T07:24:13.096Z</time></trkpt><trkpt lat="36.3168552" lon="-2.6984974"><ele>0.0</ele><time>2026-04-29T07:24:14.097Z</time></trkpt><trkpt lat="36.3168675" lon="-2.6983842"><ele>0.0</ele><time>2026-04-29T07:24:15.096Z</time></trkpt><trkpt lat="36.3168755" lon="-2.6982717"><ele>0.0</ele><time>2026-04-29T07:24:16.096Z</time></trkpt><trkpt lat="36.3168762" lon="-2.6981662"><ele>0.0</ele><time>2026-04-29T07:24:17.096Z</time></trkpt><trkpt lat="36.316883" lon="-2.6980568"><ele>0.0</ele><time>2026-04-29T07:24:18.096Z</time></trkpt><trkpt lat="36.3168873" lon="-2.6979477"><ele>0.0</ele><time>2026-04-29T07:24:19.096Z</time></trkpt><trkpt lat="36.316888" lon="-2.6978365"><ele>0.0</ele><time>2026-04-29T07:24:20.096Z</time></trkpt><trkpt lat="36.3168935" lon="-2.6977279"><ele>0.0</ele><time>2026-04-29T07:24:21.097Z</time></trkpt><trkpt lat="36.3169086" lon="-2.6975195"><ele>0.0</ele><time>2026-04-29T07:24:23.096Z</time></trkpt><trkpt lat="36.3169254" lon="-2.697407"><ele>0.0</ele><time>2026-04-29T07:24:24.097Z</time></trkpt><trkpt lat="36.3169338" lon="-2.6972935"><ele>0.0</ele><time>2026-04-29T07:24:25.096Z</time></trkpt><trkpt lat="36.316935" lon="-2.6971901"><ele>0.0</ele><time>2026-04-29T07:24:26.096Z</time></trkpt><trkpt lat="36.3169419" lon="-2.6970785"><ele>0.0</ele><time>2026-04-29T07:24:27.097Z</time></trkpt><trkpt lat="36.3169509" lon="-2.6969669"><ele>0.0</ele><time>2026-04-29T07:24:28.096Z</time></trkpt><trkpt lat="36.3169622" lon="-2.6968523"><ele>0.0</ele><time>2026-04-29T07:24:29.097Z</time></trkpt><trkpt lat="36.3169784" lon="-2.6967423"><ele>0.0</ele><time>2026-04-29T07:24:30.097Z</time></trkpt><trkpt lat="36.3170052" lon="-2.6966307"><ele>0.0</ele><time>2026-04-29T07:24:31.096Z</time></trkpt><trkpt lat="36.3170214" lon="-2.6965241"><ele>0.0</ele><time>2026-04-29T07:24:32.097Z</time></trkpt><trkpt lat="36.3170338" lon="-2.6964131"><ele>0.0</ele><time>2026-04-29T07:24:33.096Z</time></trkpt><trkpt lat="36.3170394" lon="-2.6962989"><ele>0.0</ele><time>2026-04-29T07:24:34.097Z</time></trkpt><trkpt lat="36.3170646" lon="-2.6961851"><ele>0.0</ele><time>2026-04-29T07:24:35.096Z</time></trkpt><trkpt lat="36.3170819" lon="-2.696077"><ele>0.0</ele><time>2026-04-29T07:24:36.096Z</time></trkpt><trkpt lat="36.3171052" lon="-2.6959665"><ele>0.0</ele><time>2026-04-29T07:24:37.097Z</time></trkpt><trkpt lat="36.3171105" lon="-2.6958551"><ele>0.0</ele><time>2026-04-29T07:24:38.097Z</time></trkpt><trkpt lat="36.3171158" lon="-2.6957492"><ele>0.0</ele><time>2026-04-29T07:24:39.096Z</time></trkpt><trkpt lat="36.3171232" lon="-2.6956386"><ele>0.0</ele><time>2026-04-29T07:24:40.096Z</time></trkpt><trkpt lat="36.3171238" lon="-2.6955317"><ele>0.0</ele><time>2026-04-29T07:24:41.096Z</time></trkpt><trkpt lat="36.3171284" lon="-2.6954246"><ele>0.0</ele><time>2026-04-29T07:24:42.096Z</time></trkpt><trkpt lat="36.3171504" lon="-2.6952113"><ele>0.0</ele><time>2026-04-29T07:24:44.096Z</time></trkpt><trkpt lat="36.3171626" lon="-2.695106"><ele>0.0</ele><time>2026-04-29T07:24:45.097Z</time></trkpt><trkpt lat="36.3171627" lon="-2.6950054"><ele>0.0</ele><time>2026-04-29T07:24:46.096Z</time></trkpt><trkpt lat="36.3171682" lon="-2.6948952"><ele>0.0</ele><time>2026-04-29T07:24:47.097Z</time></trkpt><trkpt lat="36.3171829" lon="-2.6947829"><ele>0.0</ele><time>2026-04-29T07:24:48.097Z</time></trkpt><trkpt lat="36.317196" lon="-2.6946618"><ele>0.0</ele><time>2026-04-29T07:24:49.097Z</time></trkpt><trkpt lat="36.3172086" lon="-2.694546"><ele>0.0</ele><time>2026-04-29T07:24:50.096Z</time></trkpt><trkpt lat="36.3172334" lon="-2.6944321"><ele>0.0</ele><time>2026-04-29T07:24:51.097Z</time></trkpt><trkpt lat="36.3172634" lon="-2.6943157"><ele>0.0</ele><time>2026-04-29T07:24:52.096Z</time></trkpt><trkpt lat="36.317295" lon="-2.6941992"><ele>0.0</ele><time>2026-04-29T07:24:53.096Z</time></trkpt><trkpt lat="36.3173048" lon="-2.6940868"><ele>0.0</ele><time>2026-04-29T07:24:54.096Z</time></trkpt><trkpt lat="36.3173064" lon="-2.6939753"><ele>0.0</ele><time>2026-04-29T07:24:55.097Z</time></trkpt><trkpt lat="36.3173121" lon="-2.693865"><ele>0.0</ele><time>2026-04-29T07:24:56.097Z</time></trkpt><trkpt lat="36.3173445" lon="-2.6937563"><ele>0.0</ele><time>2026-04-29T07:24:57.097Z</time></trkpt><trkpt lat="36.317352" lon="-2.6936494"><ele>0.0</ele><time>2026-04-29T07:24:58.097Z</time></trkpt><trkpt lat="36.3173642" lon="-2.6935426"><ele>0.0</ele><time>2026-04-29T07:24:59.097Z</time></trkpt><trkpt lat="36.317365" lon="-2.6934372"><ele>0.0</ele><time>2026-04-29T07:25:00.097Z</time></trkpt><trkpt lat="36.3173749" lon="-2.6933193"><ele>0.0</ele><time>2026-04-29T07:25:01.097Z</time></trkpt><trkpt lat="36.3173962" lon="-2.6932063"><ele>0.0</ele><time>2026-04-29T07:25:02.096Z</time></trkpt><trkpt lat="36.3174038" lon="-2.6931002"><ele>0.0</ele><time>2026-04-29T07:25:03.096Z</time></trkpt><trkpt lat="36.3174319" lon="-2.6928979"><ele>0.0</ele><time>2026-04-29T07:25:05.097Z</time></trkpt><trkpt lat="36.3174399" lon="-2.6927939"><ele>0.0</ele><time>2026-04-29T07:25:06.096Z</time></trkpt><trkpt lat="36.3174508" lon="-2.6926878"><ele>0.0</ele><time>2026-04-29T07:25:07.096Z</time></trkpt><trkpt lat="36.3174593" lon="-2.6925743"><ele>0.0</ele><time>2026-04-29T07:25:08.096Z</time></trkpt><trkpt lat="36.317464" lon="-2.6924662"><ele>0.0</ele><time>2026-04-29T07:25:09.096Z</time></trkpt><trkpt lat="36.3174748" lon="-2.6923547"><ele>0.0</ele><time>2026-04-29T07:25:10.096Z</time></trkpt><trkpt lat="36.3174849" lon="-2.6922417"><ele>0.0</ele><time>2026-04-29T07:25:11.096Z</time></trkpt><trkpt lat="36.3175074" lon="-2.6921272"><ele>0.0</ele><time>2026-04-29T07:25:12.096Z</time></trkpt><trkpt lat="36.3175021" lon="-2.6920149"><ele>0.0</ele><time>2026-04-29T07:25:13.097Z</time></trkpt><trkpt lat="36.3175044" lon="-2.691905"><ele>0.0</ele><time>2026-04-29T07:25:14.096Z</time></trkpt><trkpt lat="36.3174995" lon="-2.6917905"><ele>0.0</ele><time>2026-04-29T07:25:15.096Z</time></trkpt><trkpt lat="36.3175004" lon="-2.6916822"><ele>0.0</ele><time>2026-04-29T07:25:16.096Z</time></trkpt><trkpt lat="36.3175141" lon="-2.6915738"><ele>0.0</ele><time>2026-04-29T07:25:17.097Z</time></trkpt><trkpt lat="36.3175323" lon="-2.6914662"><ele>0.0</ele><time>2026-04-29T07:25:18.096Z</time></trkpt><trkpt lat="36.3175499" lon="-2.691355"><ele>0.0</ele><time>2026-04-29T07:25:19.096Z</time></trkpt><trkpt lat="36.3175615" lon="-2.6912451"><ele>0.0</ele><time>2026-04-29T07:25:20.097Z</time></trkpt><trkpt lat="36.3175828" lon="-2.691134"><ele>0.0</ele><time>2026-04-29T07:25:21.097Z</time></trkpt><trkpt lat="36.3176081" lon="-2.6910187"><ele>0.0</ele><time>2026-04-29T07:25:22.096Z</time></trkpt><trkpt lat="36.3176253" lon="-2.690908"><ele>0.0</ele><time>2026-04-29T07:25:23.097Z</time></trkpt><trkpt lat="36.3176368" lon="-2.6908039"><ele>0.0</ele><time>2026-04-29T07:25:24.096Z</time></trkpt><trkpt lat="36.3176575" lon="-2.6905904"><ele>0.0</ele><time>2026-04-29T07:25:26.096Z</time></trkpt><trkpt lat="36.3176999" lon="-2.6904736"><ele>0.0</ele><time>2026-04-29T07:25:27.096Z</time></trkpt><trkpt lat="36.3177186" lon="-2.6903572"><ele>0.0</ele><time>2026-04-29T07:25:28.097Z</time></trkpt><trkpt lat="36.3177335" lon="-2.6902495"><ele>0.0</ele><time>2026-04-29T07:25:29.097Z</time></trkpt><trkpt lat="36.3177442" lon="-2.6901455"><ele>0.0</ele><time>2026-04-29T07:25:30.096Z</time></trkpt><trkpt lat="36.3177574" lon="-2.6900353"><ele>0.0</ele><time>2026-04-29T07:25:31.097Z</time></trkpt><trkpt lat="36.3177592" lon="-2.6899308"><ele>0.0</ele><time>2026-04-29T07:25:32.097Z</time></trkpt><trkpt lat="36.31777" lon="-2.6898205"><ele>0.0</ele><time>2026-04-29T07:25:33.096Z</time></trkpt><trkpt lat="36.3177935" lon="-2.689709"><ele>0.0</ele><time>2026-04-29T07:25:34.097Z</time></trkpt><trkpt lat="36.3178101" lon="-2.6895985"><ele>0.0</ele><time>2026-04-29T07:25:35.097Z</time></trkpt><trkpt lat="36.3178183" lon="-2.6894899"><ele>0.0</ele><time>2026-04-29T07:25:36.096Z</time></trkpt><trkpt lat="36.3178308" lon="-2.6893829"><ele>0.0</ele><time>2026-04-29T07:25:37.096Z</time></trkpt><trkpt lat="36.3178395" lon="-2.6892708"><ele>0.0</ele><time>2026-04-29T07:25:38.096Z</time></trkpt><trkpt lat="36.3178513" lon="-2.6891598"><ele>0.0</ele><time>2026-04-29T07:25:39.097Z</time></trkpt><trkpt lat="36.3178466" lon="-2.689056"><ele>0.0</ele><time>2026-04-29T07:25:40.097Z</time></trkpt><trkpt lat="36.317842" lon="-2.6889556"><ele>0.0</ele><time>2026-04-29T07:25:41.097Z</time></trkpt><trkpt lat="36.3178328" lon="-2.6888484"><ele>0.0</ele><time>2026-04-29T07:25:42.097Z</time></trkpt><trkpt lat="36.3178332" lon="-2.6887401"><ele>0.0</ele><time>2026-04-29T07:25:43.097Z</time></trkpt><trkpt lat="36.3178391" lon="-2.6886329"><ele>0.0</ele><time>2026-04-29T07:25:44.097Z</time></trkpt><trkpt lat="36.3178496" lon="-2.6885182"><ele>0.0</ele><time>2026-04-29T07:25:45.096Z</time></trkpt><trkpt lat="36.317879" lon="-2.6882875"><ele>0.0</ele><time>2026-04-29T07:25:47.096Z</time></trkpt><trkpt lat="36.3179074" lon="-2.688174"><ele>0.0</ele><time>2026-04-29T07:25:48.097Z</time></trkpt><trkpt lat="36.3179301" lon="-2.6880696"><ele>0.0</ele><time>2026-04-29T07:25:49.097Z</time></trkpt><trkpt lat="36.3179495" lon="-2.6879545"><ele>0.0</ele><time>2026-04-29T07:25:50.097Z</time></trkpt><trkpt lat="36.317965" lon="-2.6878393"><ele>0.0</ele><time>2026-04-29T07:25:51.096Z</time></trkpt><trkpt lat="36.3179822" lon="-2.6877231"><ele>0.0</ele><time>2026-04-29T07:25:52.097Z</time></trkpt><trkpt lat="36.31799" lon="-2.687614"><ele>0.0</ele><time>2026-04-29T07:25:53.096Z</time></trkpt><trkpt lat="36.3179945" lon="-2.6875061"><ele>0.0</ele><time>2026-04-29T07:25:54.096Z</time></trkpt><trkpt lat="36.3180063" lon="-2.6873953"><ele>0.0</ele><time>2026-04-29T07:25:55.096Z</time></trkpt><trkpt lat="36.3180141" lon="-2.6872835"><ele>0.0</ele><time>2026-04-29T07:25:56.096Z</time></trkpt><trkpt lat="36.3180453" lon="-2.6871707"><ele>0.0</ele><time>2026-04-29T07:25:57.097Z</time></trkpt><trkpt lat="36.3180638" lon="-2.6870701"><ele>0.0</ele><time>2026-04-29T07:25:58.097Z</time></trkpt><trkpt lat="36.3180733" lon="-2.6869631"><ele>0.0</ele><time>2026-04-29T07:25:59.097Z</time></trkpt><trkpt lat="36.3180816" lon="-2.6868576"><ele>0.0</ele><time>2026-04-29T07:26:00.096Z</time></trkpt><trkpt lat="36.3180898" lon="-2.686753"><ele>0.0</ele><time>2026-04-29T07:26:01.096Z</time></trkpt><trkpt lat="36.3180932" lon="-2.6866427"><ele>0.0</ele><time>2026-04-29T07:26:02.096Z</time></trkpt><trkpt lat="36.3181034" lon="-2.6865309"><ele>0.0</ele><time>2026-04-29T07:26:03.097Z</time></trkpt><trkpt lat="36.3181107" lon="-2.6864185"><ele>0.0</ele><time>2026-04-29T07:26:04.097Z</time></trkpt><trkpt lat="36.3181155" lon="-2.6863066"><ele>0.0</ele><time>2026-04-29T07:26:05.097Z</time></trkpt><trkpt lat="36.3181156" lon="-2.686195"><ele>0.0</ele><time>2026-04-29T07:26:06.097Z</time></trkpt><trkpt lat="36.3181158" lon="-2.6859753"><ele>0.0</ele><time>2026-04-29T07:26:08.097Z</time></trkpt><trkpt lat="36.3181309" lon="-2.6858626"><ele>0.0</ele><time>2026-04-29T07:26:09.096Z</time></trkpt><trkpt lat="36.3181395" lon="-2.6857458"><ele>0.0</ele><time>2026-04-29T07:26:10.096Z</time></trkpt><trkpt lat="36.3181448" lon="-2.6856328"><ele>0.0</ele><time>2026-04-29T07:26:11.096Z</time></trkpt><trkpt lat="36.318159" lon="-2.6855214"><ele>0.0</ele><time>2026-04-29T07:26:12.097Z</time></trkpt><trkpt lat="36.318179" lon="-2.6854091"><ele>0.0</ele><time>2026-04-29T07:26:13.096Z</time></trkpt><trkpt lat="36.3182001" lon="-2.6852995"><ele>0.0</ele><time>2026-04-29T07:26:14.096Z</time></trkpt><trkpt lat="36.3182144" lon="-2.6851943"><ele>0.0</ele><time>2026-04-29T07:26:15.096Z</time></trkpt><trkpt lat="36.3182292" lon="-2.685087"><ele>0.0</ele><time>2026-04-29T07:26:16.097Z</time></trkpt><trkpt lat="36.3182513" lon="-2.6849739"><ele>0.0</ele><time>2026-04-29T07:26:17.096Z</time></trkpt><trkpt lat="36.3182571" lon="-2.6848569"><ele>0.0</ele><time>2026-04-29T07:26:18.097Z</time></trkpt><trkpt lat="36.3182642" lon="-2.6847483"><ele>0.0</ele><time>2026-04-29T07:26:19.097Z</time></trkpt><trkpt lat="36.3182733" lon="-2.6846428"><ele>0.0</ele><time>2026-04-29T07:26:20.097Z</time></trkpt><trkpt lat="36.318282" lon="-2.6845337"><ele>0.0</ele><time>2026-04-29T07:26:21.097Z</time></trkpt><trkpt lat="36.3182909" lon="-2.6844219"><ele>0.0</ele><time>2026-04-29T07:26:22.096Z</time></trkpt><trkpt lat="36.3183102" lon="-2.6843122"><ele>0.0</ele><time>2026-04-29T07:26:23.096Z</time></trkpt><trkpt lat="36.3183381" lon="-2.6841959"><ele>0.0</ele><time>2026-04-29T07:26:24.097Z</time></trkpt><trkpt lat="36.3183448" lon="-2.6840871"><ele>0.0</ele><time>2026-04-29T07:26:25.097Z</time></trkpt><trkpt lat="36.3183503" lon="-2.6839813"><ele>0.0</ele><time>2026-04-29T07:26:26.097Z</time></trkpt><trkpt lat="36.3183574" lon="-2.6838702"><ele>0.0</ele><time>2026-04-29T07:26:27.096Z</time></trkpt><trkpt lat="36.3183736" lon="-2.6836502"><ele>0.0</ele><time>2026-04-29T07:26:29.096Z</time></trkpt><trkpt lat="36.3183795" lon="-2.6835382"><ele>0.0</ele><time>2026-04-29T07:26:30.096Z</time></trkpt><trkpt lat="36.3183983" lon="-2.6834285"><ele>0.0</ele><time>2026-04-29T07:26:31.096Z</time></trkpt><trkpt lat="36.3184206" lon="-2.6833125"><ele>0.0</ele><time>2026-04-29T07:26:32.096Z</time></trkpt><trkpt lat="36.318449" lon="-2.6831995"><ele>0.0</ele><time>2026-04-29T07:26:33.097Z</time></trkpt><trkpt lat="36.3184648" lon="-2.6830937"><ele>0.0</ele><time>2026-04-29T07:26:34.096Z</time></trkpt><trkpt lat="36.3184708" lon="-2.6829894"><ele>0.0</ele><time>2026-04-29T07:26:35.096Z</time></trkpt><trkpt lat="36.3184762" lon="-2.6828831"><ele>0.0</ele><time>2026-04-29T07:26:36.096Z</time></trkpt><trkpt lat="36.3184853" lon="-2.6827753"><ele>0.0</ele><time>2026-04-29T07:26:37.096Z</time></trkpt><trkpt lat="36.3184937" lon="-2.6826667"><ele>0.0</ele><time>2026-04-29T07:26:38.097Z</time></trkpt><trkpt lat="36.3185064" lon="-2.6825583"><ele>0.0</ele><time>2026-04-29T07:26:39.096Z</time></trkpt><trkpt lat="36.3185181" lon="-2.68245"><ele>0.0</ele><time>2026-04-29T07:26:40.096Z</time></trkpt><trkpt lat="36.318515" lon="-2.6823459"><ele>0.0</ele><time>2026-04-29T07:26:41.096Z</time></trkpt><trkpt lat="36.3185329" lon="-2.6822396"><ele>0.0</ele><time>2026-04-29T07:26:42.096Z</time></trkpt><trkpt lat="36.3185495" lon="-2.6821294"><ele>0.0</ele><time>2026-04-29T07:26:43.096Z</time></trkpt><trkpt lat="36.3185629" lon="-2.6820217"><ele>0.0</ele><time>2026-04-29T07:26:44.097Z</time></trkpt><trkpt lat="36.3185655" lon="-2.6819107"><ele>0.0</ele><time>2026-04-29T07:26:45.096Z</time></trkpt><trkpt lat="36.3185718" lon="-2.681806"><ele>0.0</ele><time>2026-04-29T07:26:46.097Z</time></trkpt><trkpt lat="36.3185779" lon="-2.6816938"><ele>0.0</ele><time>2026-04-29T07:26:47.096Z</time></trkpt><trkpt lat="36.3186169" lon="-2.6814613"><ele>0.0</ele><time>2026-04-29T07:26:49.096Z</time></trkpt><trkpt lat="36.3186325" lon="-2.6813534"><ele>0.0</ele><time>2026-04-29T07:26:50.096Z</time></trkpt><trkpt lat="36.3186473" lon="-2.681238"><ele>0.0</ele><time>2026-04-29T07:26:51.097Z</time></trkpt><trkpt lat="36.3186727" lon="-2.6811295"><ele>0.0</ele><time>2026-04-29T07:26:52.096Z</time></trkpt><trkpt lat="36.3186834" lon="-2.6810215"><ele>0.0</ele><time>2026-04-29T07:26:53.096Z</time></trkpt><trkpt lat="36.3186911" lon="-2.6809175"><ele>0.0</ele><time>2026-04-29T07:26:54.096Z</time></trkpt><trkpt lat="36.3187093" lon="-2.6808084"><ele>0.0</ele><time>2026-04-29T07:26:55.097Z</time></trkpt><trkpt lat="36.3187124" lon="-2.6807025"><ele>0.0</ele><time>2026-04-29T07:26:56.096Z</time></trkpt><trkpt lat="36.318726" lon="-2.680592"><ele>0.0</ele><time>2026-04-29T07:26:57.096Z</time></trkpt><trkpt lat="36.3187398" lon="-2.6804787"><ele>0.0</ele><time>2026-04-29T07:26:58.096Z</time></trkpt><trkpt lat="36.3187534" lon="-2.6803652"><ele>0.0</ele><time>2026-04-29T07:26:59.096Z</time></trkpt><trkpt lat="36.3187596" lon="-2.6802593"><ele>0.0</ele><time>2026-04-29T07:27:00.096Z</time></trkpt><trkpt lat="36.3187609" lon="-2.6801515"><ele>0.0</ele><time>2026-04-29T07:27:01.096Z</time></trkpt><trkpt lat="36.3187628" lon="-2.680046"><ele>0.0</ele><time>2026-04-29T07:27:02.097Z</time></trkpt><trkpt lat="36.3187722" lon="-2.6799341"><ele>0.0</ele><time>2026-04-29T07:27:03.096Z</time></trkpt><trkpt lat="36.3187812" lon="-2.6798205"><ele>0.0</ele><time>2026-04-29T07:27:04.096Z</time></trkpt><trkpt lat="36.3187868" lon="-2.6797042"><ele>0.0</ele><time>2026-04-29T07:27:05.097Z</time></trkpt><trkpt lat="36.3187843" lon="-2.6795921"><ele>0.0</ele><time>2026-04-29T07:27:06.096Z</time></trkpt><trkpt lat="36.3187929" lon="-2.6794876"><ele>0.0</ele><time>2026-04-29T07:27:07.097Z</time></trkpt><trkpt lat="36.3188196" lon="-2.6793785"><ele>0.0</ele><time>2026-04-29T07:27:08.097Z</time></trkpt><trkpt lat="36.3188549" lon="-2.679165"><ele>0.0</ele><time>2026-04-29T07:27:10.096Z</time></trkpt><trkpt lat="36.3188721" lon="-2.6790566"><ele>0.0</ele><time>2026-04-29T07:27:11.096Z</time></trkpt><trkpt lat="36.3188895" lon="-2.6789405"><ele>0.0</ele><time>2026-04-29T07:27:12.096Z</time></trkpt><trkpt lat="36.3189094" lon="-2.678824"><ele>0.0</ele><time>2026-04-29T07:27:13.096Z</time></trkpt><trkpt lat="36.3189219" lon="-2.6787133"><ele>0.0</ele><time>2026-04-29T07:27:14.096Z</time></trkpt><trkpt lat="36.3189214" lon="-2.6786092"><ele>0.0</ele><time>2026-04-29T07:27:15.096Z</time></trkpt><trkpt lat="36.3189217" lon="-2.6784977"><ele>0.0</ele><time>2026-04-29T07:27:16.097Z</time></trkpt><trkpt lat="36.3189179" lon="-2.6783867"><ele>0.0</ele><time>2026-04-29T07:27:17.096Z</time></trkpt><trkpt lat="36.3189211" lon="-2.6782765"><ele>0.0</ele><time>2026-04-29T07:27:18.097Z</time></trkpt><trkpt lat="36.3189294" lon="-2.6781665"><ele>0.0</ele><time>2026-04-29T07:27:19.096Z</time></trkpt><trkpt lat="36.3189337" lon="-2.6780549"><ele>0.0</ele><time>2026-04-29T07:27:20.096Z</time></trkpt><trkpt lat="36.3189459" lon="-2.6779439"><ele>0.0</ele><time>2026-04-29T07:27:21.097Z</time></trkpt><trkpt lat="36.318954" lon="-2.6778347"><ele>0.0</ele><time>2026-04-29T07:27:22.097Z</time></trkpt><trkpt lat="36.3189662" lon="-2.6777251"><ele>0.0</ele><time>2026-04-29T07:27:23.096Z</time></trkpt><trkpt lat="36.3189761" lon="-2.6776193"><ele>0.0</ele><time>2026-04-29T07:27:24.096Z</time></trkpt><trkpt lat="36.3189841" lon="-2.6775154"><ele>0.0</ele><time>2026-04-29T07:27:25.097Z</time></trkpt><trkpt lat="36.318985" lon="-2.6774154"><ele>0.0</ele><time>2026-04-29T07:27:26.096Z</time></trkpt><trkpt lat="36.3189946" lon="-2.6773085"><ele>0.0</ele><time>2026-04-29T07:27:27.096Z</time></trkpt><trkpt lat="36.3190157" lon="-2.6771897"><ele>0.0</ele><time>2026-04-29T07:27:28.097Z</time></trkpt><trkpt lat="36.3190379" lon="-2.6770799"><ele>0.0</ele><time>2026-04-29T07:27:29.097Z</time></trkpt><trkpt lat="36.3190533" lon="-2.6768526"><ele>0.0</ele><time>2026-04-29T07:27:31.096Z</time></trkpt><trkpt lat="36.3190423" lon="-2.6767501"><ele>0.0</ele><time>2026-04-29T07:27:32.096Z</time></trkpt><trkpt lat="36.3190492" lon="-2.6766348"><ele>0.0</ele><time>2026-04-29T07:27:33.097Z</time></trkpt><trkpt lat="36.3190662" lon="-2.6765179"><ele>0.0</ele><time>2026-04-29T07:27:34.096Z</time></trkpt><trkpt lat="36.3190786" lon="-2.6764123"><ele>0.0</ele><time>2026-04-29T07:27:35.097Z</time></trkpt><trkpt lat="36.3191149" lon="-2.6762979"><ele>0.0</ele><time>2026-04-29T07:27:36.096Z</time></trkpt><trkpt lat="36.3191321" lon="-2.6761885"><ele>0.0</ele><time>2026-04-29T07:27:37.097Z</time></trkpt><trkpt lat="36.3191642" lon="-2.6760757"><ele>0.0</ele><time>2026-04-29T07:27:38.096Z</time></trkpt><trkpt lat="36.3191706" lon="-2.675972"><ele>0.0</ele><time>2026-04-29T07:27:39.096Z</time></trkpt><trkpt lat="36.3191743" lon="-2.675865"><ele>0.0</ele><time>2026-04-29T07:27:40.096Z</time></trkpt><trkpt lat="36.3192075" lon="-2.6757482"><ele>0.0</ele><time>2026-04-29T07:27:41.097Z</time></trkpt><trkpt lat="36.3192268" lon="-2.6756425"><ele>0.0</ele><time>2026-04-29T07:27:42.097Z</time></trkpt><trkpt lat="36.319245" lon="-2.6755349"><ele>0.0</ele><time>2026-04-29T07:27:43.096Z</time></trkpt><trkpt lat="36.3192562" lon="-2.6754231"><ele>0.0</ele><time>2026-04-29T07:27:44.096Z</time></trkpt><trkpt lat="36.3192573" lon="-2.675322"><ele>0.0</ele><time>2026-04-29T07:27:45.096Z</time></trkpt><trkpt lat="36.31926" lon="-2.6752178"><ele>0.0</ele><time>2026-04-29T07:27:46.097Z</time></trkpt><trkpt lat="36.3192873" lon="-2.675104"><ele>0.0</ele><time>2026-04-29T07:27:47.097Z</time></trkpt><trkpt lat="36.3193113" lon="-2.6749923"><ele>0.0</ele><time>2026-04-29T07:27:48.097Z</time></trkpt><trkpt lat="36.3193435" lon="-2.6748721"><ele>0.0</ele><time>2026-04-29T07:27:49.096Z</time></trkpt><trkpt lat="36.3193615" lon="-2.6747575"><ele>0.0</ele><time>2026-04-29T07:27:50.097Z</time></trkpt><trkpt lat="36.3194093" lon="-2.6745363"><ele>0.0</ele><time>2026-04-29T07:27:52.097Z</time></trkpt><trkpt lat="36.3194287" lon="-2.6744269"><ele>0.0</ele><time>2026-04-29T07:27:53.096Z</time></trkpt><trkpt lat="36.3194418" lon="-2.6743198"><ele>0.0</ele><time>2026-04-29T07:27:54.096Z</time></trkpt><trkpt lat="36.3194571" lon="-2.6742117"><ele>0.0</ele><time>2026-04-29T07:27:55.096Z</time></trkpt><trkpt lat="36.3194713" lon="-2.6741004"><ele>0.0</ele><time>2026-04-29T07:27:56.096Z</time></trkpt><trkpt lat="36.3194863" lon="-2.6739883"><ele>0.0</ele><time>2026-04-29T07:27:57.096Z</time></trkpt><trkpt lat="36.3195018" lon="-2.6738752"><ele>0.0</ele><time>2026-04-29T07:27:58.096Z</time></trkpt><trkpt lat="36.3195209" lon="-2.6737647"><ele>0.0</ele><time>2026-04-29T07:27:59.096Z</time></trkpt><trkpt lat="36.3195271" lon="-2.6736651"><ele>0.0</ele><time>2026-04-29T07:28:00.097Z</time></trkpt><trkpt lat="36.3195246" lon="-2.6735656"><ele>0.0</ele><time>2026-04-29T07:28:01.096Z</time></trkpt><trkpt lat="36.3195211" lon="-2.6734628"><ele>0.0</ele><time>2026-04-29T07:28:02.097Z</time></trkpt><trkpt lat="36.3195119" lon="-2.673355"><ele>0.0</ele><time>2026-04-29T07:28:03.097Z</time></trkpt><trkpt lat="36.3195115" lon="-2.6732492"><ele>0.0</ele><time>2026-04-29T07:28:04.096Z</time></trkpt><trkpt lat="36.3195244" lon="-2.6731386"><ele>0.0</ele><time>2026-04-29T07:28:05.096Z</time></trkpt><trkpt lat="36.3195593" lon="-2.6730223"><ele>0.0</ele><time>2026-04-29T07:28:06.097Z</time></trkpt><trkpt lat="36.3195736" lon="-2.6729098"><ele>0.0</ele><time>2026-04-29T07:28:07.097Z</time></trkpt><trkpt lat="36.3195712" lon="-2.6727999"><ele>0.0</ele><time>2026-04-29T07:28:08.096Z</time></trkpt><trkpt lat="36.3195716" lon="-2.6726905"><ele>0.0</ele><time>2026-04-29T07:28:09.096Z</time></trkpt><trkpt lat="36.3196089" lon="-2.6725784"><ele>0.0</ele><time>2026-04-29T07:28:10.096Z</time></trkpt><trkpt lat="36.3196471" lon="-2.6724726"><ele>0.0</ele><time>2026-04-29T07:28:11.096Z</time></trkpt><trkpt lat="36.3196847" lon="-2.6722443"><ele>0.0</ele><time>2026-04-29T07:28:13.097Z</time></trkpt><trkpt lat="36.3196945" lon="-2.6721396"><ele>0.0</ele><time>2026-04-29T07:28:14.097Z</time></trkpt><trkpt lat="36.3196997" lon="-2.6720323"><ele>0.0</ele><time>2026-04-29T07:28:15.097Z</time></trkpt><trkpt lat="36.3197088" lon="-2.6719207"><ele>0.0</ele><time>2026-04-29T07:28:16.096Z</time></trkpt><trkpt lat="36.3197096" lon="-2.6718089"><ele>0.0</ele><time>2026-04-29T07:28:17.097Z</time></trkpt><trkpt lat="36.3197151" lon="-2.6716973"><ele>0.0</ele><time>2026-04-29T07:28:18.096Z</time></trkpt><trkpt lat="36.3197263" lon="-2.6715901"><ele>0.0</ele><time>2026-04-29T07:28:19.096Z</time></trkpt><trkpt lat="36.3197401" lon="-2.6714828"><ele>0.0</ele><time>2026-04-29T07:28:20.097Z</time></trkpt><trkpt lat="36.3197511" lon="-2.6713732"><ele>0.0</ele><time>2026-04-29T07:28:21.097Z</time></trkpt><trkpt lat="36.3197693" lon="-2.671262"><ele>0.0</ele><time>2026-04-29T07:28:22.097Z</time></trkpt><trkpt lat="36.3197874" lon="-2.6711486"><ele>0.0</ele><time>2026-04-29T07:28:23.096Z</time></trkpt><trkpt lat="36.3198021" lon="-2.6710397"><ele>0.0</ele><time>2026-04-29T07:28:24.096Z</time></trkpt><trkpt lat="36.3198331" lon="-2.6709333"><ele>0.0</ele><time>2026-04-29T07:28:25.096Z</time></trkpt><trkpt lat="36.3198434" lon="-2.6708224"><ele>0.0</ele><time>2026-04-29T07:28:26.096Z</time></trkpt><trkpt lat="36.3198504" lon="-2.6707162"><ele>0.0</ele><time>2026-04-29T07:28:27.096Z</time></trkpt><trkpt lat="36.3198543" lon="-2.6706124"><ele>0.0</ele><time>2026-04-29T07:28:28.096Z</time></trkpt><trkpt lat="36.3198632" lon="-2.6705062"><ele>0.0</ele><time>2026-04-29T07:28:29.097Z</time></trkpt><trkpt lat="36.3198755" lon="-2.6703966"><ele>0.0</ele><time>2026-04-29T07:28:30.097Z</time></trkpt><trkpt lat="36.319859" lon="-2.6702941"><ele>0.0</ele><time>2026-04-29T07:28:31.096Z</time></trkpt><trkpt lat="36.3198613" lon="-2.6701922"><ele>0.0</ele><time>2026-04-29T07:28:32.096Z</time></trkpt><trkpt lat="36.3198702" lon="-2.6699779"><ele>0.0</ele><time>2026-04-29T07:28:34.096Z</time></trkpt><trkpt lat="36.3198706" lon="-2.6698645"><ele>0.0</ele><time>2026-04-29T07:28:35.097Z</time></trkpt><trkpt lat="36.31987" lon="-2.6697517"><ele>0.0</ele><time>2026-04-29T07:28:36.096Z</time></trkpt><trkpt lat="36.3198651" lon="-2.6696462"><ele>0.0</ele><time>2026-04-29T07:28:37.096Z</time></trkpt><trkpt lat="36.3198716" lon="-2.6695368"><ele>0.0</ele><time>2026-04-29T07:28:38.096Z</time></trkpt><trkpt lat="36.3198867" lon="-2.6694286"><ele>0.0</ele><time>2026-04-29T07:28:39.096Z</time></trkpt><trkpt lat="36.3198883" lon="-2.6693213"><ele>0.0</ele><time>2026-04-29T07:28:40.096Z</time></trkpt><trkpt lat="36.3198992" lon="-2.6692107"><ele>0.0</ele><time>2026-04-29T07:28:41.096Z</time></trkpt><trkpt lat="36.3199168" lon="-2.6691003"><ele>0.0</ele><time>2026-04-29T07:28:42.097Z</time></trkpt><trkpt lat="36.3199634" lon="-2.6689828"><ele>0.0</ele><time>2026-04-29T07:28:43.096Z</time></trkpt><trkpt lat="36.3200051" lon="-2.6688717"><ele>0.0</ele><time>2026-04-29T07:28:44.097Z</time></trkpt><trkpt lat="36.3200243" lon="-2.6687649"><ele>0.0</ele><time>2026-04-29T07:28:45.096Z</time></trkpt><trkpt lat="36.3200404" lon="-2.6686537"><ele>0.0</ele><time>2026-04-29T07:28:46.096Z</time></trkpt><trkpt lat="36.3200585" lon="-2.6685461"><ele>0.0</ele><time>2026-04-29T07:28:47.096Z</time></trkpt><trkpt lat="36.3200706" lon="-2.6684381"><ele>0.0</ele><time>2026-04-29T07:28:48.097Z</time></trkpt><trkpt lat="36.3200907" lon="-2.6683268"><ele>0.0</ele><time>2026-04-29T07:28:49.096Z</time></trkpt><trkpt lat="36.3200995" lon="-2.668215"><ele>0.0</ele><time>2026-04-29T07:28:50.096Z</time></trkpt><trkpt lat="36.320103" lon="-2.6681039"><ele>0.0</ele><time>2026-04-29T07:28:51.096Z</time></trkpt><trkpt lat="36.3201004" lon="-2.6680022"><ele>0.0</ele><time>2026-04-29T07:28:52.097Z</time></trkpt><trkpt lat="36.3201" lon="-2.6678974"><ele>0.0</ele><time>2026-04-29T07:28:53.096Z</time></trkpt><trkpt lat="36.320112" lon="-2.667687"><ele>0.0</ele><time>2026-04-29T07:28:55.096Z</time></trkpt><trkpt lat="36.3201183" lon="-2.6675723"><ele>0.0</ele><time>2026-04-29T07:28:56.096Z</time></trkpt><trkpt lat="36.3201242" lon="-2.667462"><ele>0.0</ele><time>2026-04-29T07:28:57.096Z</time></trkpt><trkpt lat="36.3201392" lon="-2.6673479"><ele>0.0</ele><time>2026-04-29T07:28:58.096Z</time></trkpt><trkpt lat="36.3201545" lon="-2.6672325"><ele>0.0</ele><time>2026-04-29T07:28:59.096Z</time></trkpt><trkpt lat="36.3201649" lon="-2.6671189"><ele>0.0</ele><time>2026-04-29T07:29:00.096Z</time></trkpt><trkpt lat="36.3201766" lon="-2.6670056"><ele>0.0</ele><time>2026-04-29T07:29:01.096Z</time></trkpt><trkpt lat="36.3201942" lon="-2.6668919"><ele>0.0</ele><time>2026-04-29T07:29:02.096Z</time></trkpt><trkpt lat="36.3202107" lon="-2.6667798"><ele>0.0</ele><time>2026-04-29T07:29:03.096Z</time></trkpt><trkpt lat="36.3202144" lon="-2.6666768"><ele>0.0</ele><time>2026-04-29T07:29:04.096Z</time></trkpt><trkpt lat="36.3202272" lon="-2.6665724"><ele>0.0</ele><time>2026-04-29T07:29:05.097Z</time></trkpt><trkpt lat="36.3202373" lon="-2.6664636"><ele>0.0</ele><time>2026-04-29T07:29:06.097Z</time></trkpt><trkpt lat="36.32024" lon="-2.6663609"><ele>0.0</ele><time>2026-04-29T07:29:07.096Z</time></trkpt><trkpt lat="36.3202442" lon="-2.6662591"><ele>0.0</ele><time>2026-04-29T07:29:08.096Z</time></trkpt><trkpt lat="36.3202639" lon="-2.6661528"><ele>0.0</ele><time>2026-04-29T07:29:09.097Z</time></trkpt><trkpt lat="36.3202778" lon="-2.666046"><ele>0.0</ele><time>2026-04-29T07:29:10.096Z</time></trkpt><trkpt lat="36.3203119" lon="-2.6659252"><ele>0.0</ele><time>2026-04-29T07:29:11.097Z</time></trkpt><trkpt lat="36.3203259" lon="-2.665809"><ele>0.0</ele><time>2026-04-29T07:29:12.096Z</time></trkpt><trkpt lat="36.3203331" lon="-2.6657016"><ele>0.0</ele><time>2026-04-29T07:29:13.096Z</time></trkpt><trkpt lat="36.3203322" lon="-2.6654837"><ele>0.0</ele><time>2026-04-29T07:29:15.097Z</time></trkpt><trkpt lat="36.3203452" lon="-2.6653725"><ele>0.0</ele><time>2026-04-29T07:29:16.096Z</time></trkpt><trkpt lat="36.3204043" lon="-2.6652579"><ele>0.0</ele><time>2026-04-29T07:29:17.097Z</time></trkpt><trkpt lat="36.3204235" lon="-2.6651497"><ele>0.0</ele><time>2026-04-29T07:29:18.096Z</time></trkpt><trkpt lat="36.3204271" lon="-2.6650425"><ele>0.0</ele><time>2026-04-29T07:29:19.097Z</time></trkpt><trkpt lat="36.320431" lon="-2.6649365"><ele>0.0</ele><time>2026-04-29T07:29:20.097Z</time></trkpt><trkpt lat="36.3204413" lon="-2.6648237"><ele>0.0</ele><time>2026-04-29T07:29:21.097Z</time></trkpt><trkpt lat="36.3204562" lon="-2.6647122"><ele>0.0</ele><time>2026-04-29T07:29:22.096Z</time></trkpt><trkpt lat="36.3204705" lon="-2.6646014"><ele>0.0</ele><time>2026-04-29T07:29:23.095Z</time></trkpt><trkpt lat="36.320484" lon="-2.6644956"><ele>0.0</ele><time>2026-04-29T07:29:24.095Z</time></trkpt><trkpt lat="36.3204893" lon="-2.6643897"><ele>0.0</ele><time>2026-04-29T07:29:25.095Z</time></trkpt><trkpt lat="36.3204969" lon="-2.6642834"><ele>0.0</ele><time>2026-04-29T07:29:26.095Z</time></trkpt><trkpt lat="36.3205077" lon="-2.6641736"><ele>0.0</ele><time>2026-04-29T07:29:27.095Z</time></trkpt><trkpt lat="36.3205208" lon="-2.664059"><ele>0.0</ele><time>2026-04-29T07:29:28.096Z</time></trkpt><trkpt lat="36.3205359" lon="-2.6639482"><ele>0.0</ele><time>2026-04-29T07:29:29.096Z</time></trkpt><trkpt lat="36.3205538" lon="-2.6638338"><ele>0.0</ele><time>2026-04-29T07:29:30.096Z</time></trkpt><trkpt lat="36.3205827" lon="-2.6637201"><ele>0.0</ele><time>2026-04-29T07:29:31.095Z</time></trkpt><trkpt lat="36.3205915" lon="-2.6636129"><ele>0.0</ele><time>2026-04-29T07:29:32.095Z</time></trkpt><trkpt lat="36.3205977" lon="-2.6635014"><ele>0.0</ele><time>2026-04-29T07:29:33.096Z</time></trkpt><trkpt lat="36.3206067" lon="-2.6633891"><ele>0.0</ele><time>2026-04-29T07:29:34.095Z</time></trkpt><trkpt lat="36.3206155" lon="-2.6631666"><ele>0.0</ele><time>2026-04-29T07:29:36.096Z</time></trkpt><trkpt lat="36.3206215" lon="-2.663054"><ele>0.0</ele><time>2026-04-29T07:29:37.095Z</time></trkpt><trkpt lat="36.3206318" lon="-2.6629447"><ele>0.0</ele><time>2026-04-29T07:29:38.096Z</time></trkpt><trkpt lat="36.3206366" lon="-2.6628379"><ele>0.0</ele><time>2026-04-29T07:29:39.095Z</time></trkpt><trkpt lat="36.3206428" lon="-2.6627341"><ele>0.0</ele><time>2026-04-29T07:29:40.096Z</time></trkpt><trkpt lat="36.3206451" lon="-2.6626321"><ele>0.0</ele><time>2026-04-29T07:29:41.096Z</time></trkpt><trkpt lat="36.3206783" lon="-2.6625256"><ele>0.0</ele><time>2026-04-29T07:29:42.095Z</time></trkpt><trkpt lat="36.3206922" lon="-2.6624211"><ele>0.0</ele><time>2026-04-29T07:29:43.096Z</time></trkpt><trkpt lat="36.3206989" lon="-2.6623172"><ele>0.0</ele><time>2026-04-29T07:29:44.096Z</time></trkpt><trkpt lat="36.3207149" lon="-2.6622043"><ele>0.0</ele><time>2026-04-29T07:29:45.095Z</time></trkpt><trkpt lat="36.3207272" lon="-2.6620881"><ele>0.0</ele><time>2026-04-29T07:29:46.096Z</time></trkpt><trkpt lat="36.3207447" lon="-2.6619712"><ele>0.0</ele><time>2026-04-29T07:29:47.096Z</time></trkpt><trkpt lat="36.3207629" lon="-2.6618583"><ele>0.0</ele><time>2026-04-29T07:29:48.095Z</time></trkpt><trkpt lat="36.3207777" lon="-2.6617538"><ele>0.0</ele><time>2026-04-29T07:29:49.096Z</time></trkpt><trkpt lat="36.3207845" lon="-2.661649"><ele>0.0</ele><time>2026-04-29T07:29:50.096Z</time></trkpt><trkpt lat="36.3207918" lon="-2.6615415"><ele>0.0</ele><time>2026-04-29T07:29:51.095Z</time></trkpt><trkpt lat="36.3208336" lon="-2.6614365"><ele>0.0</ele><time>2026-04-29T07:29:52.095Z</time></trkpt><trkpt lat="36.3208774" lon="-2.6613313"><ele>0.0</ele><time>2026-04-29T07:29:53.095Z</time></trkpt><trkpt lat="36.3208973" lon="-2.6612253"><ele>0.0</ele><time>2026-04-29T07:29:54.096Z</time></trkpt><trkpt lat="36.3209076" lon="-2.6611171"><ele>0.0</ele><time>2026-04-29T07:29:55.096Z</time></trkpt><trkpt lat="36.3209246" lon="-2.6608981"><ele>0.0</ele><time>2026-04-29T07:29:57.096Z</time></trkpt><trkpt lat="36.3209457" lon="-2.6607869"><ele>0.0</ele><time>2026-04-29T07:29:58.095Z</time></trkpt><trkpt lat="36.3209431" lon="-2.6606772"><ele>0.0</ele><time>2026-04-29T07:29:59.095Z</time></trkpt><trkpt lat="36.3209435" lon="-2.6605644"><ele>0.0</ele><time>2026-04-29T07:30:00.095Z</time></trkpt><trkpt lat="36.320942" lon="-2.6604549"><ele>0.0</ele><time>2026-04-29T07:30:01.095Z</time></trkpt><trkpt lat="36.3209462" lon="-2.6603507"><ele>0.0</ele><time>2026-04-29T07:30:02.095Z</time></trkpt><trkpt lat="36.3209793" lon="-2.6602391"><ele>0.0</ele><time>2026-04-29T07:30:03.095Z</time></trkpt><trkpt lat="36.3209966" lon="-2.6601328"><ele>0.0</ele><time>2026-04-29T07:30:04.095Z</time></trkpt><trkpt lat="36.3210086" lon="-2.6600275"><ele>0.0</ele><time>2026-04-29T07:30:05.096Z</time></trkpt><trkpt lat="36.3210284" lon="-2.6599227"><ele>0.0</ele><time>2026-04-29T07:30:06.095Z</time></trkpt><trkpt lat="36.3210626" lon="-2.659809"><ele>0.0</ele><time>2026-04-29T07:30:07.095Z</time></trkpt><trkpt lat="36.3210771" lon="-2.6596969"><ele>0.0</ele><time>2026-04-29T07:30:08.095Z</time></trkpt><trkpt lat="36.3210873" lon="-2.6595871"><ele>0.0</ele><time>2026-04-29T07:30:09.096Z</time></trkpt><trkpt lat="36.3210955" lon="-2.6594772"><ele>0.0</ele><time>2026-04-29T07:30:10.095Z</time></trkpt><trkpt lat="36.3211056" lon="-2.6593617"><ele>0.0</ele><time>2026-04-29T07:30:11.096Z</time></trkpt><trkpt lat="36.3211131" lon="-2.6592477"><ele>0.0</ele><time>2026-04-29T07:30:12.096Z</time></trkpt><trkpt lat="36.3211213" lon="-2.6591385"><ele>0.0</ele><time>2026-04-29T07:30:13.095Z</time></trkpt><trkpt lat="36.3211309" lon="-2.6590263"><ele>0.0</ele><time>2026-04-29T07:30:14.096Z</time></trkpt><trkpt lat="36.3211381" lon="-2.6589157"><ele>0.0</ele><time>2026-04-29T07:30:15.095Z</time></trkpt><trkpt lat="36.3211456" lon="-2.6588027"><ele>0.0</ele><time>2026-04-29T07:30:16.096Z</time></trkpt><trkpt lat="36.3211771" lon="-2.6585736"><ele>0.0</ele><time>2026-04-29T07:30:18.096Z</time></trkpt><trkpt lat="36.32118" lon="-2.6584645"><ele>0.0</ele><time>2026-04-29T07:30:19.095Z</time></trkpt><trkpt lat="36.3211904" lon="-2.6583568"><ele>0.0</ele><time>2026-04-29T07:30:20.096Z</time></trkpt><trkpt lat="36.3212023" lon="-2.6582567"><ele>0.0</ele><time>2026-04-29T07:30:21.096Z</time></trkpt><trkpt lat="36.3212151" lon="-2.6581488"><ele>0.0</ele><time>2026-04-29T07:30:22.095Z</time></trkpt><trkpt lat="36.3212306" lon="-2.6580416"><ele>0.0</ele><time>2026-04-29T07:30:23.095Z</time></trkpt><trkpt lat="36.3212418" lon="-2.657932"><ele>0.0</ele><time>2026-04-29T07:30:24.095Z</time></trkpt><trkpt lat="36.3212474" lon="-2.6578233"><ele>0.0</ele><time>2026-04-29T07:30:25.096Z</time></trkpt><trkpt lat="36.3212578" lon="-2.6577164"><ele>0.0</ele><time>2026-04-29T07:30:26.095Z</time></trkpt><trkpt lat="36.3212584" lon="-2.6576184"><ele>0.0</ele><time>2026-04-29T07:30:27.096Z</time></trkpt><trkpt lat="36.3212633" lon="-2.657511"><ele>0.0</ele><time>2026-04-29T07:30:28.095Z</time></trkpt><trkpt lat="36.3212774" lon="-2.657399"><ele>0.0</ele><time>2026-04-29T07:30:29.096Z</time></trkpt><trkpt lat="36.3212975" lon="-2.6572894"><ele>0.0</ele><time>2026-04-29T07:30:30.095Z</time></trkpt><trkpt lat="36.3213077" lon="-2.6571752"><ele>0.0</ele><time>2026-04-29T07:30:31.095Z</time></trkpt><trkpt lat="36.3213158" lon="-2.6570622"><ele>0.0</ele><time>2026-04-29T07:30:32.095Z</time></trkpt><trkpt lat="36.3213295" lon="-2.6569542"><ele>0.0</ele><time>2026-04-29T07:30:33.095Z</time></trkpt><trkpt lat="36.3213373" lon="-2.6568464"><ele>0.0</ele><time>2026-04-29T07:30:34.095Z</time></trkpt><trkpt lat="36.3213552" lon="-2.6567335"><ele>0.0</ele><time>2026-04-29T07:30:35.095Z</time></trkpt><trkpt lat="36.3213622" lon="-2.6566195"><ele>0.0</ele><time>2026-04-29T07:30:36.096Z</time></trkpt><trkpt lat="36.3213703" lon="-2.6565082"><ele>0.0</ele><time>2026-04-29T07:30:37.096Z</time></trkpt><trkpt lat="36.3213911" lon="-2.6562961"><ele>0.0</ele><time>2026-04-29T07:30:39.095Z</time></trkpt><trkpt lat="36.3213996" lon="-2.6561914"><ele>0.0</ele><time>2026-04-29T07:30:40.096Z</time></trkpt><trkpt lat="36.3214124" lon="-2.6560791"><ele>0.0</ele><time>2026-04-29T07:30:41.095Z</time></trkpt><trkpt lat="36.3214179" lon="-2.6559695"><ele>0.0</ele><time>2026-04-29T07:30:42.095Z</time></trkpt><trkpt lat="36.3214506" lon="-2.6558631"><ele>0.0</ele><time>2026-04-29T07:30:43.095Z</time></trkpt><trkpt lat="36.3214619" lon="-2.6557534"><ele>0.0</ele><time>2026-04-29T07:30:44.096Z</time></trkpt><trkpt lat="36.3214949" lon="-2.6556394"><ele>0.0</ele><time>2026-04-29T07:30:45.095Z</time></trkpt><trkpt lat="36.3215089" lon="-2.6555237"><ele>0.0</ele><time>2026-04-29T07:30:46.096Z</time></trkpt><trkpt lat="36.3215175" lon="-2.65541"><ele>0.0</ele><time>2026-04-29T07:30:47.095Z</time></trkpt><trkpt lat="36.3215328" lon="-2.6553014"><ele>0.0</ele><time>2026-04-29T07:30:48.096Z</time></trkpt><trkpt lat="36.321545" lon="-2.6551932"><ele>0.0</ele><time>2026-04-29T07:30:49.096Z</time></trkpt><trkpt lat="36.321557" lon="-2.6550753"><ele>0.0</ele><time>2026-04-29T07:30:50.095Z</time></trkpt><trkpt lat="36.3215782" lon="-2.6549635"><ele>0.0</ele><time>2026-04-29T07:30:51.095Z</time></trkpt><trkpt lat="36.3216021" lon="-2.6548517"><ele>0.0</ele><time>2026-04-29T07:30:52.095Z</time></trkpt><trkpt lat="36.3216179" lon="-2.6547423"><ele>0.0</ele><time>2026-04-29T07:30:53.095Z</time></trkpt><trkpt lat="36.3216288" lon="-2.6546364"><ele>0.0</ele><time>2026-04-29T07:30:54.096Z</time></trkpt><trkpt lat="36.3216345" lon="-2.6545299"><ele>0.0</ele><time>2026-04-29T07:30:55.096Z</time></trkpt><trkpt lat="36.3216449" lon="-2.6544157"><ele>0.0</ele><time>2026-04-29T07:30:56.096Z</time></trkpt><trkpt lat="36.3216528" lon="-2.6543047"><ele>0.0</ele><time>2026-04-29T07:30:57.096Z</time></trkpt><trkpt lat="36.3216611" lon="-2.6541948"><ele>0.0</ele><time>2026-04-29T07:30:58.096Z</time></trkpt><trkpt lat="36.3216886" lon="-2.6539763"><ele>0.0</ele><time>2026-04-29T07:31:00.096Z</time></trkpt><trkpt lat="36.3217008" lon="-2.6538667"><ele>0.0</ele><time>2026-04-29T07:31:01.095Z</time></trkpt><trkpt lat="36.3217093" lon="-2.6537593"><ele>0.0</ele><time>2026-04-29T07:31:02.096Z</time></trkpt><trkpt lat="36.3217188" lon="-2.6536544"><ele>0.0</ele><time>2026-04-29T07:31:03.096Z</time></trkpt><trkpt lat="36.3217356" lon="-2.6535451"><ele>0.0</ele><time>2026-04-29T07:31:04.096Z</time></trkpt><trkpt lat="36.3217469" lon="-2.6534337"><ele>0.0</ele><time>2026-04-29T07:31:05.095Z</time></trkpt><trkpt lat="36.3217587" lon="-2.6533249"><ele>0.0</ele><time>2026-04-29T07:31:06.096Z</time></trkpt><trkpt lat="36.321771" lon="-2.6532183"><ele>0.0</ele><time>2026-04-29T07:31:07.095Z</time></trkpt><trkpt lat="36.3217777" lon="-2.6531133"><ele>0.0</ele><time>2026-04-29T07:31:08.095Z</time></trkpt><trkpt lat="36.3217888" lon="-2.6530051"><ele>0.0</ele><time>2026-04-29T07:31:09.095Z</time></trkpt><trkpt lat="36.3217989" lon="-2.6528966"><ele>0.0</ele><time>2026-04-29T07:31:10.095Z</time></trkpt><trkpt lat="36.3218116" lon="-2.6527883"><ele>0.0</ele><time>2026-04-29T07:31:11.095Z</time></trkpt><trkpt lat="36.3218163" lon="-2.6526785"><ele>0.0</ele><time>2026-04-29T07:31:12.096Z</time></trkpt><trkpt lat="36.3218159" lon="-2.6525714"><ele>0.0</ele><time>2026-04-29T07:31:13.096Z</time></trkpt><trkpt lat="36.3218213" lon="-2.6524668"><ele>0.0</ele><time>2026-04-29T07:31:14.095Z</time></trkpt><trkpt lat="36.3218342" lon="-2.6523591"><ele>0.0</ele><time>2026-04-29T07:31:15.095Z</time></trkpt><trkpt lat="36.3218424" lon="-2.6522515"><ele>0.0</ele><time>2026-04-29T07:31:16.095Z</time></trkpt><trkpt lat="36.3218537" lon="-2.6521393"><ele>0.0</ele><time>2026-04-29T07:31:17.095Z</time></trkpt><trkpt lat="36.3218582" lon="-2.6520266"><ele>0.0</ele><time>2026-04-29T07:31:18.095Z</time></trkpt><trkpt lat="36.3218654" lon="-2.6519177"><ele>0.0</ele><time>2026-04-29T07:31:19.095Z</time></trkpt><trkpt lat="36.321891" lon="-2.6517035"><ele>0.0</ele><time>2026-04-29T07:31:21.095Z</time></trkpt><trkpt lat="36.3219019" lon="-2.6515954"><ele>0.0</ele><time>2026-04-29T07:31:22.096Z</time></trkpt><trkpt lat="36.3219147" lon="-2.651484"><ele>0.0</ele><time>2026-04-29T07:31:23.096Z</time></trkpt><trkpt lat="36.3219258" lon="-2.6513692"><ele>0.0</ele><time>2026-04-29T07:31:24.095Z</time></trkpt><trkpt lat="36.3219487" lon="-2.6512542"><ele>0.0</ele><time>2026-04-29T07:31:25.095Z</time></trkpt><trkpt lat="36.3219645" lon="-2.6511415"><ele>0.0</ele><time>2026-04-29T07:31:26.096Z</time></trkpt><trkpt lat="36.3219813" lon="-2.6510316"><ele>0.0</ele><time>2026-04-29T07:31:27.096Z</time></trkpt><trkpt lat="36.3219974" lon="-2.650923"><ele>0.0</ele><time>2026-04-29T07:31:28.096Z</time></trkpt><trkpt lat="36.3220128" lon="-2.6508143"><ele>0.0</ele><time>2026-04-29T07:31:29.095Z</time></trkpt><trkpt lat="36.3220244" lon="-2.6507022"><ele>0.0</ele><time>2026-04-29T07:31:30.096Z</time></trkpt><trkpt lat="36.3220396" lon="-2.6505925"><ele>0.0</ele><time>2026-04-29T07:31:31.095Z</time></trkpt><trkpt lat="36.3220536" lon="-2.6504845"><ele>0.0</ele><time>2026-04-29T07:31:32.095Z</time></trkpt><trkpt lat="36.3220657" lon="-2.6503761"><ele>0.0</ele><time>2026-04-29T07:31:33.095Z</time></trkpt><trkpt lat="36.3220799" lon="-2.650268"><ele>0.0</ele><time>2026-04-29T07:31:34.096Z</time></trkpt><trkpt lat="36.3221017" lon="-2.6501582"><ele>0.0</ele><time>2026-04-29T07:31:35.096Z</time></trkpt><trkpt lat="36.322121" lon="-2.6500479"><ele>0.0</ele><time>2026-04-29T07:31:36.095Z</time></trkpt><trkpt lat="36.322136" lon="-2.6499381"><ele>0.0</ele><time>2026-04-29T07:31:37.096Z</time></trkpt><trkpt lat="36.3221524" lon="-2.6498265"><ele>0.0</ele><time>2026-04-29T07:31:38.095Z</time></trkpt><trkpt lat="36.3221711" lon="-2.6497181"><ele>0.0</ele><time>2026-04-29T07:31:39.095Z</time></trkpt><trkpt lat="36.3221836" lon="-2.6496141"><ele>0.0</ele><time>2026-04-29T07:31:40.095Z</time></trkpt><trkpt lat="36.3222115" lon="-2.6493939"><ele>0.0</ele><time>2026-04-29T07:31:42.095Z</time></trkpt><trkpt lat="36.3222268" lon="-2.6492799"><ele>0.0</ele><time>2026-04-29T07:31:43.095Z</time></trkpt><trkpt lat="36.32224" lon="-2.6491723"><ele>0.0</ele><time>2026-04-29T07:31:44.096Z</time></trkpt><trkpt lat="36.3222494" lon="-2.6490675"><ele>0.0</ele><time>2026-04-29T07:31:45.096Z</time></trkpt><trkpt lat="36.3222579" lon="-2.64896"><ele>0.0</ele><time>2026-04-29T07:31:46.095Z</time></trkpt><trkpt lat="36.322264" lon="-2.6488548"><ele>0.0</ele><time>2026-04-29T07:31:47.095Z</time></trkpt><trkpt lat="36.3222724" lon="-2.6487497"><ele>0.0</ele><time>2026-04-29T07:31:48.095Z</time></trkpt><trkpt lat="36.3222809" lon="-2.6486459"><ele>0.0</ele><time>2026-04-29T07:31:49.095Z</time></trkpt><trkpt lat="36.3222887" lon="-2.6485446"><ele>0.0</ele><time>2026-04-29T07:31:50.095Z</time></trkpt><trkpt lat="36.3223066" lon="-2.6484397"><ele>0.0</ele><time>2026-04-29T07:31:51.096Z</time></trkpt><trkpt lat="36.3223158" lon="-2.6483329"><ele>0.0</ele><time>2026-04-29T07:31:52.095Z</time></trkpt><trkpt lat="36.3223218" lon="-2.6482257"><ele>0.0</ele><time>2026-04-29T07:31:53.096Z</time></trkpt><trkpt lat="36.3223335" lon="-2.6481208"><ele>0.0</ele><time>2026-04-29T07:31:54.096Z</time></trkpt><trkpt lat="36.322347" lon="-2.6480103"><ele>0.0</ele><time>2026-04-29T07:31:55.095Z</time></trkpt><trkpt lat="36.3223623" lon="-2.6478971"><ele>0.0</ele><time>2026-04-29T07:31:56.095Z</time></trkpt><trkpt lat="36.3223743" lon="-2.6477879"><ele>0.0</ele><time>2026-04-29T07:31:57.096Z</time></trkpt><trkpt lat="36.3223885" lon="-2.6476802"><ele>0.0</ele><time>2026-04-29T07:31:58.096Z</time></trkpt><trkpt lat="36.3223967" lon="-2.6475679"><ele>0.0</ele><time>2026-04-29T07:31:59.096Z</time></trkpt><trkpt lat="36.3224159" lon="-2.6474552"><ele>0.0</ele><time>2026-04-29T07:32:00.096Z</time></trkpt><trkpt lat="36.322422" lon="-2.6473416"><ele>0.0</ele><time>2026-04-29T07:32:01.095Z</time></trkpt><trkpt lat="36.3224372" lon="-2.6471219"><ele>0.0</ele><time>2026-04-29T07:32:03.095Z</time></trkpt><trkpt lat="36.3224502" lon="-2.6470145"><ele>0.0</ele><time>2026-04-29T07:32:04.095Z</time></trkpt><trkpt lat="36.3224672" lon="-2.6469054"><ele>0.0</ele><time>2026-04-29T07:32:05.095Z</time></trkpt><trkpt lat="36.3224753" lon="-2.6467965"><ele>0.0</ele><time>2026-04-29T07:32:06.096Z</time></trkpt><trkpt lat="36.3224851" lon="-2.64668"><ele>0.0</ele><time>2026-04-29T07:32:07.095Z</time></trkpt><trkpt lat="36.3224966" lon="-2.6465688"><ele>0.0</ele><time>2026-04-29T07:32:08.095Z</time></trkpt><trkpt lat="36.3225066" lon="-2.6464558"><ele>0.0</ele><time>2026-04-29T07:32:09.096Z</time></trkpt><trkpt lat="36.3225241" lon="-2.6463438"><ele>0.0</ele><time>2026-04-29T07:32:10.096Z</time></trkpt><trkpt lat="36.3225367" lon="-2.6462308"><ele>0.0</ele><time>2026-04-29T07:32:11.096Z</time></trkpt><trkpt lat="36.3225546" lon="-2.6461158"><ele>0.0</ele><time>2026-04-29T07:32:12.095Z</time></trkpt><trkpt lat="36.322568" lon="-2.646002"><ele>0.0</ele><time>2026-04-29T07:32:13.095Z</time></trkpt><trkpt lat="36.3225777" lon="-2.6458917"><ele>0.0</ele><time>2026-04-29T07:32:14.095Z</time></trkpt><trkpt lat="36.3225868" lon="-2.6457816"><ele>0.0</ele><time>2026-04-29T07:32:15.095Z</time></trkpt><trkpt lat="36.3226022" lon="-2.6456706"><ele>0.0</ele><time>2026-04-29T07:32:16.095Z</time></trkpt><trkpt lat="36.3226135" lon="-2.6455595"><ele>0.0</ele><time>2026-04-29T07:32:17.095Z</time></trkpt><trkpt lat="36.3226389" lon="-2.6454456"><ele>0.0</ele><time>2026-04-29T07:32:18.095Z</time></trkpt><trkpt lat="36.3226505" lon="-2.6453369"><ele>0.0</ele><time>2026-04-29T07:32:19.095Z</time></trkpt><trkpt lat="36.3226687" lon="-2.6452271"><ele>0.0</ele><time>2026-04-29T07:32:20.096Z</time></trkpt><trkpt lat="36.3226847" lon="-2.6451168"><ele>0.0</ele><time>2026-04-29T07:32:21.095Z</time></trkpt><trkpt lat="36.3227072" lon="-2.6450071"><ele>0.0</ele><time>2026-04-29T07:32:22.095Z</time></trkpt><trkpt lat="36.3227416" lon="-2.6447848"><ele>0.0</ele><time>2026-04-29T07:32:24.095Z</time></trkpt><trkpt lat="36.3227527" lon="-2.6446796"><ele>0.0</ele><time>2026-04-29T07:32:25.095Z</time></trkpt><trkpt lat="36.3227621" lon="-2.6445751"><ele>0.0</ele><time>2026-04-29T07:32:26.095Z</time></trkpt><trkpt lat="36.3227717" lon="-2.6444639"><ele>0.0</ele><time>2026-04-29T07:32:27.095Z</time></trkpt><trkpt lat="36.3227875" lon="-2.6443513"><ele>0.0</ele><time>2026-04-29T07:32:28.095Z</time></trkpt><trkpt lat="36.3227958" lon="-2.6442435"><ele>0.0</ele><time>2026-04-29T07:32:29.095Z</time></trkpt><trkpt lat="36.3228196" lon="-2.6441367"><ele>0.0</ele><time>2026-04-29T07:32:30.095Z</time></trkpt><trkpt lat="36.3228378" lon="-2.644022"><ele>0.0</ele><time>2026-04-29T07:32:31.096Z</time></trkpt><trkpt lat="36.3228514" lon="-2.6439109"><ele>0.0</ele><time>2026-04-29T07:32:32.095Z</time></trkpt><trkpt lat="36.3228674" lon="-2.6438028"><ele>0.0</ele><time>2026-04-29T07:32:33.096Z</time></trkpt><trkpt lat="36.3228773" lon="-2.6436937"><ele>0.0</ele><time>2026-04-29T07:32:34.095Z</time></trkpt><trkpt lat="36.3228817" lon="-2.6435805"><ele>0.0</ele><time>2026-04-29T07:32:35.095Z</time></trkpt><trkpt lat="36.3228863" lon="-2.6434706"><ele>0.0</ele><time>2026-04-29T07:32:36.095Z</time></trkpt><trkpt lat="36.3228923" lon="-2.6433622"><ele>0.0</ele><time>2026-04-29T07:32:37.096Z</time></trkpt><trkpt lat="36.3229122" lon="-2.643252"><ele>0.0</ele><time>2026-04-29T07:32:38.095Z</time></trkpt><trkpt lat="36.3229255" lon="-2.6431415"><ele>0.0</ele><time>2026-04-29T07:32:39.096Z</time></trkpt><trkpt lat="36.3229348" lon="-2.6430355"><ele>0.0</ele><time>2026-04-29T07:32:40.095Z</time></trkpt><trkpt lat="36.3229427" lon="-2.6429298"><ele>0.0</ele><time>2026-04-29T07:32:41.095Z</time></trkpt><trkpt lat="36.3229562" lon="-2.6428191"><ele>0.0</ele><time>2026-04-29T07:32:42.096Z</time></trkpt><trkpt lat="36.322975" lon="-2.6427107"><ele>0.0</ele><time>2026-04-29T07:32:43.095Z</time></trkpt><trkpt lat="36.323016" lon="-2.642485"><ele>0.0</ele><time>2026-04-29T07:32:45.095Z</time></trkpt><trkpt lat="36.3230303" lon="-2.642377"><ele>0.0</ele><time>2026-04-29T07:32:46.095Z</time></trkpt><trkpt lat="36.3230194" lon="-2.6422681"><ele>0.0</ele><time>2026-04-29T07:32:47.096Z</time></trkpt><trkpt lat="36.3230345" lon="-2.642157"><ele>0.0</ele><time>2026-04-29T07:32:48.095Z</time></trkpt><trkpt lat="36.323026" lon="-2.6420477"><ele>0.0</ele><time>2026-04-29T07:32:49.095Z</time></trkpt><trkpt lat="36.323016" lon="-2.6419383"><ele>0.0</ele><time>2026-04-29T07:32:50.095Z</time></trkpt><trkpt lat="36.3230251" lon="-2.6418252"><ele>0.0</ele><time>2026-04-29T07:32:51.095Z</time></trkpt><trkpt lat="36.3230356" lon="-2.6417165"><ele>0.0</ele><time>2026-04-29T07:32:52.096Z</time></trkpt><trkpt lat="36.3230473" lon="-2.6416069"><ele>0.0</ele><time>2026-04-29T07:32:53.095Z</time></trkpt><trkpt lat="36.3230572" lon="-2.6414936"><ele>0.0</ele><time>2026-04-29T07:32:54.096Z</time></trkpt><trkpt lat="36.3230645" lon="-2.6413874"><ele>0.0</ele><time>2026-04-29T07:32:55.096Z</time></trkpt><trkpt lat="36.3230638" lon="-2.6412799"><ele>0.0</ele><time>2026-04-29T07:32:56.095Z</time></trkpt><trkpt lat="36.3230787" lon="-2.6411688"><ele>0.0</ele><time>2026-04-29T07:32:57.096Z</time></trkpt><trkpt lat="36.3230793" lon="-2.6410599"><ele>0.0</ele><time>2026-04-29T07:32:58.095Z</time></trkpt><trkpt lat="36.3230891" lon="-2.6409499"><ele>0.0</ele><time>2026-04-29T07:32:59.095Z</time></trkpt><trkpt lat="36.3231097" lon="-2.6408412"><ele>0.0</ele><time>2026-04-29T07:33:00.095Z</time></trkpt><trkpt lat="36.3231291" lon="-2.6407312"><ele>0.0</ele><time>2026-04-29T07:33:01.095Z</time></trkpt><trkpt lat="36.3231205" lon="-2.6406238"><ele>0.0</ele><time>2026-04-29T07:33:02.096Z</time></trkpt><trkpt lat="36.3231114" lon="-2.640516"><ele>0.0</ele><time>2026-04-29T07:33:03.095Z</time></trkpt><trkpt lat="36.3231044" lon="-2.6404077"><ele>0.0</ele><time>2026-04-29T07:33:04.096Z</time></trkpt><trkpt lat="36.3231076" lon="-2.6401879"><ele>0.0</ele><time>2026-04-29T07:33:06.096Z</time></trkpt><trkpt lat="36.3231069" lon="-2.6400774"><ele>0.0</ele><time>2026-04-29T07:33:07.095Z</time></trkpt><trkpt lat="36.323107" lon="-2.6399683"><ele>0.0</ele><time>2026-04-29T07:33:08.096Z</time></trkpt><trkpt lat="36.3231086" lon="-2.6398613"><ele>0.0</ele><time>2026-04-29T07:33:09.096Z</time></trkpt><trkpt lat="36.3231244" lon="-2.639753"><ele>0.0</ele><time>2026-04-29T07:33:10.095Z</time></trkpt><trkpt lat="36.3231423" lon="-2.6396507"><ele>0.0</ele><time>2026-04-29T07:33:11.096Z</time></trkpt><trkpt lat="36.3231523" lon="-2.6395443"><ele>0.0</ele><time>2026-04-29T07:33:12.095Z</time></trkpt><trkpt lat="36.3231708" lon="-2.6394376"><ele>0.0</ele><time>2026-04-29T07:33:13.095Z</time></trkpt><trkpt lat="36.3231955" lon="-2.639328"><ele>0.0</ele><time>2026-04-29T07:33:14.096Z</time></trkpt><trkpt lat="36.3232184" lon="-2.6392181"><ele>0.0</ele><time>2026-04-29T07:33:15.096Z</time></trkpt><trkpt lat="36.323236" lon="-2.6391114"><ele>0.0</ele><time>2026-04-29T07:33:16.096Z</time></trkpt><trkpt lat="36.3232495" lon="-2.639003"><ele>0.0</ele><time>2026-04-29T07:33:17.095Z</time></trkpt><trkpt lat="36.323253" lon="-2.6388949"><ele>0.0</ele><time>2026-04-29T07:33:18.096Z</time></trkpt><trkpt lat="36.3232575" lon="-2.6387881"><ele>0.0</ele><time>2026-04-29T07:33:19.096Z</time></trkpt><trkpt lat="36.3232719" lon="-2.6386787"><ele>0.0</ele><time>2026-04-29T07:33:20.095Z</time></trkpt><trkpt lat="36.3232872" lon="-2.6385682"><ele>0.0</ele><time>2026-04-29T07:33:21.095Z</time></trkpt><trkpt lat="36.3233027" lon="-2.6384599"><ele>0.0</ele><time>2026-04-29T07:33:22.095Z</time></trkpt><trkpt lat="36.3233174" lon="-2.6383518"><ele>0.0</ele><time>2026-04-29T07:33:23.095Z</time></trkpt><trkpt lat="36.3233427" lon="-2.6382384"><ele>0.0</ele><time>2026-04-29T07:33:24.095Z</time></trkpt><trkpt lat="36.3233643" lon="-2.638128"><ele>0.0</ele><time>2026-04-29T07:33:25.095Z</time></trkpt><trkpt lat="36.3234259" lon="-2.6379065"><ele>0.0</ele><time>2026-04-29T07:33:27.095Z</time></trkpt><trkpt lat="36.3234546" lon="-2.6377998"><ele>0.0</ele><time>2026-04-29T07:33:28.095Z</time></trkpt><trkpt lat="36.3235186" lon="-2.6376889"><ele>0.0</ele><time>2026-04-29T07:33:29.095Z</time></trkpt><trkpt lat="36.3235454" lon="-2.6375785"><ele>0.0</ele><time>2026-04-29T07:33:30.095Z</time></trkpt><trkpt lat="36.3235623" lon="-2.6374699"><ele>0.0</ele><time>2026-04-29T07:33:31.096Z</time></trkpt><trkpt lat="36.3235743" lon="-2.6373619"><ele>0.0</ele><time>2026-04-29T07:33:32.096Z</time></trkpt><trkpt lat="36.3235844" lon="-2.6372519"><ele>0.0</ele><time>2026-04-29T07:33:33.095Z</time></trkpt><trkpt lat="36.323591" lon="-2.6371406"><ele>0.0</ele><time>2026-04-29T07:33:34.095Z</time></trkpt><trkpt lat="36.3236047" lon="-2.6370276"><ele>0.0</ele><time>2026-04-29T07:33:35.096Z</time></trkpt><trkpt lat="36.3236109" lon="-2.6369136"><ele>0.0</ele><time>2026-04-29T07:33:36.095Z</time></trkpt><trkpt lat="36.3236181" lon="-2.6368051"><ele>0.0</ele><time>2026-04-29T07:33:37.096Z</time></trkpt><trkpt lat="36.3236228" lon="-2.6366958"><ele>0.0</ele><time>2026-04-29T07:33:38.096Z</time></trkpt><trkpt lat="36.3236346" lon="-2.6365852"><ele>0.0</ele><time>2026-04-29T07:33:39.095Z</time></trkpt><trkpt lat="36.3236432" lon="-2.6364777"><ele>0.0</ele><time>2026-04-29T07:33:40.095Z</time></trkpt><trkpt lat="36.3236513" lon="-2.6363654"><ele>0.0</ele><time>2026-04-29T07:33:41.096Z</time></trkpt><trkpt lat="36.3236651" lon="-2.6362548"><ele>0.0</ele><time>2026-04-29T07:33:42.095Z</time></trkpt><trkpt lat="36.3236819" lon="-2.6361451"><ele>0.0</ele><time>2026-04-29T07:33:43.096Z</time></trkpt><trkpt lat="36.3236961" lon="-2.6360392"><ele>0.0</ele><time>2026-04-29T07:33:44.095Z</time></trkpt><trkpt lat="36.3237139" lon="-2.635932"><ele>0.0</ele><time>2026-04-29T07:33:45.096Z</time></trkpt><trkpt lat="36.3237207" lon="-2.6358217"><ele>0.0</ele><time>2026-04-29T07:33:46.096Z</time></trkpt><trkpt lat="36.3237406" lon="-2.6355993"><ele>0.0</ele><time>2026-04-29T07:33:48.096Z</time></trkpt><trkpt lat="36.3237545" lon="-2.6354855"><ele>0.0</ele><time>2026-04-29T07:33:49.096Z</time></trkpt><trkpt lat="36.3237654" lon="-2.6353728"><ele>0.0</ele><time>2026-04-29T07:33:50.095Z</time></trkpt><trkpt lat="36.3237693" lon="-2.6352662"><ele>0.0</ele><time>2026-04-29T07:33:51.095Z</time></trkpt><trkpt lat="36.3237751" lon="-2.6351615"><ele>0.0</ele><time>2026-04-29T07:33:52.096Z</time></trkpt><trkpt lat="36.3237846" lon="-2.6350534"><ele>0.0</ele><time>2026-04-29T07:33:53.095Z</time></trkpt><trkpt lat="36.3237961" lon="-2.6349392"><ele>0.0</ele><time>2026-04-29T07:33:54.096Z</time></trkpt><trkpt lat="36.323811" lon="-2.6348226"><ele>0.0</ele><time>2026-04-29T07:33:55.096Z</time></trkpt><trkpt lat="36.3238286" lon="-2.6347066"><ele>0.0</ele><time>2026-04-29T07:33:56.095Z</time></trkpt><trkpt lat="36.3238428" lon="-2.6345929"><ele>0.0</ele><time>2026-04-29T07:33:57.096Z</time></trkpt><trkpt lat="36.3238603" lon="-2.6344858"><ele>0.0</ele><time>2026-04-29T07:33:58.096Z</time></trkpt><trkpt lat="36.3238769" lon="-2.634377"><ele>0.0</ele><time>2026-04-29T07:33:59.095Z</time></trkpt><trkpt lat="36.3238951" lon="-2.6342663"><ele>0.0</ele><time>2026-04-29T07:34:00.096Z</time></trkpt><trkpt lat="36.3239074" lon="-2.6341641"><ele>0.0</ele><time>2026-04-29T07:34:01.095Z</time></trkpt><trkpt lat="36.3239216" lon="-2.6340558"><ele>0.0</ele><time>2026-04-29T07:34:02.096Z</time></trkpt><trkpt lat="36.3239373" lon="-2.6339451"><ele>0.0</ele><time>2026-04-29T07:34:03.095Z</time></trkpt><trkpt lat="36.3239548" lon="-2.6338335"><ele>0.0</ele><time>2026-04-29T07:34:04.095Z</time></trkpt><trkpt lat="36.3239736" lon="-2.6337172"><ele>0.0</ele><time>2026-04-29T07:34:05.096Z</time></trkpt><trkpt lat="36.3239894" lon="-2.6336033"><ele>0.0</ele><time>2026-04-29T07:34:06.096Z</time></trkpt><trkpt lat="36.3240069" lon="-2.6334917"><ele>0.0</ele><time>2026-04-29T07:34:07.095Z</time></trkpt><trkpt lat="36.3240456" lon="-2.6332723"><ele>0.0</ele><time>2026-04-29T07:34:09.095Z</time></trkpt><trkpt lat="36.3240614" lon="-2.6331573"><ele>0.0</ele><time>2026-04-29T07:34:10.095Z</time></trkpt><trkpt lat="36.3240736" lon="-2.6330466"><ele>0.0</ele><time>2026-04-29T07:34:11.096Z</time></trkpt><trkpt lat="36.3240809" lon="-2.6329379"><ele>0.0</ele><time>2026-04-29T07:34:12.096Z</time></trkpt><trkpt lat="36.3240898" lon="-2.6328301"><ele>0.0</ele><time>2026-04-29T07:34:13.096Z</time></trkpt><trkpt lat="36.3241009" lon="-2.6327229"><ele>0.0</ele><time>2026-04-29T07:34:14.095Z</time></trkpt><trkpt lat="36.3241076" lon="-2.6326121"><ele>0.0</ele><time>2026-04-29T07:34:15.096Z</time></trkpt><trkpt lat="36.3241139" lon="-2.6325061"><ele>0.0</ele><time>2026-04-29T07:34:16.095Z</time></trkpt><trkpt lat="36.3241033" lon="-2.6324012"><ele>0.0</ele><time>2026-04-29T07:34:17.095Z</time></trkpt><trkpt lat="36.3240851" lon="-2.632299"><ele>0.0</ele><time>2026-04-29T07:34:18.095Z</time></trkpt><trkpt lat="36.3240756" lon="-2.6321917"><ele>0.0</ele><time>2026-04-29T07:34:19.095Z</time></trkpt><trkpt lat="36.3240748" lon="-2.6320871"><ele>0.0</ele><time>2026-04-29T07:34:20.095Z</time></trkpt><trkpt lat="36.3240606" lon="-2.6319828"><ele>0.0</ele><time>2026-04-29T07:34:21.095Z</time></trkpt><trkpt lat="36.3240582" lon="-2.6318803"><ele>0.0</ele><time>2026-04-29T07:34:22.095Z</time></trkpt><trkpt lat="36.3240577" lon="-2.6317761"><ele>0.0</ele><time>2026-04-29T07:34:23.095Z</time></trkpt><trkpt lat="36.3240636" lon="-2.6316695"><ele>0.0</ele><time>2026-04-29T07:34:24.095Z</time></trkpt><trkpt lat="36.3240772" lon="-2.6315632"><ele>0.0</ele><time>2026-04-29T07:34:25.096Z</time></trkpt><trkpt lat="36.3240842" lon="-2.6314575"><ele>0.0</ele><time>2026-04-29T07:34:26.095Z</time></trkpt><trkpt lat="36.324088" lon="-2.6313499"><ele>0.0</ele><time>2026-04-29T07:34:27.096Z</time></trkpt><trkpt lat="36.3240925" lon="-2.6312429"><ele>0.0</ele><time>2026-04-29T07:34:28.095Z</time></trkpt><trkpt lat="36.3240976" lon="-2.6310203"><ele>0.0</ele><time>2026-04-29T07:34:30.095Z</time></trkpt><trkpt lat="36.3241021" lon="-2.6309064"><ele>0.0</ele><time>2026-04-29T07:34:31.095Z</time></trkpt><trkpt lat="36.3240996" lon="-2.6307962"><ele>0.0</ele><time>2026-04-29T07:34:32.095Z</time></trkpt><trkpt lat="36.3241035" lon="-2.6306862"><ele>0.0</ele><time>2026-04-29T07:34:33.096Z</time></trkpt><trkpt lat="36.3241107" lon="-2.6305764"><ele>0.0</ele><time>2026-04-29T07:34:34.095Z</time></trkpt><trkpt lat="36.324109" lon="-2.6304646"><ele>0.0</ele><time>2026-04-29T07:34:35.096Z</time></trkpt><trkpt lat="36.3241092" lon="-2.6303573"><ele>0.0</ele><time>2026-04-29T07:34:36.095Z</time></trkpt><trkpt lat="36.3241068" lon="-2.6302525"><ele>0.0</ele><time>2026-04-29T07:34:37.095Z</time></trkpt><trkpt lat="36.3241048" lon="-2.6301447"><ele>0.0</ele><time>2026-04-29T07:34:38.095Z</time></trkpt><trkpt lat="36.3241134" lon="-2.6300363"><ele>0.0</ele><time>2026-04-29T07:34:39.095Z</time></trkpt><trkpt lat="36.3241277" lon="-2.6299281"><ele>0.0</ele><time>2026-04-29T07:34:40.095Z</time></trkpt><trkpt lat="36.3241358" lon="-2.6298181"><ele>0.0</ele><time>2026-04-29T07:34:41.095Z</time></trkpt><trkpt lat="36.3241458" lon="-2.6297096"><ele>0.0</ele><time>2026-04-29T07:34:42.096Z</time></trkpt><trkpt lat="36.3241602" lon="-2.6296027"><ele>0.0</ele><time>2026-04-29T07:34:43.095Z</time></trkpt><trkpt lat="36.3241697" lon="-2.6294961"><ele>0.0</ele><time>2026-04-29T07:34:44.095Z</time></trkpt><trkpt lat="36.3241808" lon="-2.629391"><ele>0.0</ele><time>2026-04-29T07:34:45.095Z</time></trkpt><trkpt lat="36.3241975" lon="-2.6292802"><ele>0.0</ele><time>2026-04-29T07:34:46.095Z</time></trkpt><trkpt lat="36.3242075" lon="-2.6291723"><ele>0.0</ele><time>2026-04-29T07:34:47.095Z</time></trkpt><trkpt lat="36.3242259" lon="-2.6290659"><ele>0.0</ele><time>2026-04-29T07:34:48.095Z</time></trkpt><trkpt lat="36.3242513" lon="-2.6289582"><ele>0.0</ele><time>2026-04-29T07:34:49.095Z</time></trkpt><trkpt lat="36.3243014" lon="-2.6287407"><ele>0.0</ele><time>2026-04-29T07:34:51.095Z</time></trkpt><trkpt lat="36.3243213" lon="-2.6286298"><ele>0.0</ele><time>2026-04-29T07:34:52.095Z</time></trkpt><trkpt lat="36.3243424" lon="-2.6285197"><ele>0.0</ele><time>2026-04-29T07:34:53.095Z</time></trkpt><trkpt lat="36.3243622" lon="-2.62841"><ele>0.0</ele><time>2026-04-29T07:34:54.095Z</time></trkpt><trkpt lat="36.3243735" lon="-2.6282972"><ele>0.0</ele><time>2026-04-29T07:34:55.095Z</time></trkpt><trkpt lat="36.3243933" lon="-2.6281834"><ele>0.0</ele><time>2026-04-29T07:34:56.095Z</time></trkpt><trkpt lat="36.3244061" lon="-2.6280703"><ele>0.0</ele><time>2026-04-29T07:34:57.095Z</time></trkpt><trkpt lat="36.3244191" lon="-2.6279612"><ele>0.0</ele><time>2026-04-29T07:34:58.096Z</time></trkpt><trkpt lat="36.3244307" lon="-2.6278561"><ele>0.0</ele><time>2026-04-29T07:34:59.095Z</time></trkpt><trkpt lat="36.3244451" lon="-2.6277499"><ele>0.0</ele><time>2026-04-29T07:35:00.096Z</time></trkpt><trkpt lat="36.3244631" lon="-2.6276472"><ele>0.0</ele><time>2026-04-29T07:35:01.095Z</time></trkpt><trkpt lat="36.3244669" lon="-2.6275467"><ele>0.0</ele><time>2026-04-29T07:35:02.096Z</time></trkpt><trkpt lat="36.3244755" lon="-2.6274419"><ele>0.0</ele><time>2026-04-29T07:35:03.095Z</time></trkpt><trkpt lat="36.324489" lon="-2.6273369"><ele>0.0</ele><time>2026-04-29T07:35:04.095Z</time></trkpt><trkpt lat="36.3245071" lon="-2.6272264"><ele>0.0</ele><time>2026-04-29T07:35:05.095Z</time></trkpt><trkpt lat="36.3245239" lon="-2.627117"><ele>0.0</ele><time>2026-04-29T07:35:06.096Z</time></trkpt><trkpt lat="36.3245422" lon="-2.6270086"><ele>0.0</ele><time>2026-04-29T07:35:07.096Z</time></trkpt><trkpt lat="36.3245603" lon="-2.6268975"><ele>0.0</ele><time>2026-04-29T07:35:08.096Z</time></trkpt><trkpt lat="36.3245791" lon="-2.6267883"><ele>0.0</ele><time>2026-04-29T07:35:09.095Z</time></trkpt><trkpt lat="36.3246029" lon="-2.6266818"><ele>0.0</ele><time>2026-04-29T07:35:10.095Z</time></trkpt><trkpt lat="36.324649" lon="-2.6264624"><ele>0.0</ele><time>2026-04-29T07:35:12.095Z</time></trkpt><trkpt lat="36.3246708" lon="-2.6263507"><ele>0.0</ele><time>2026-04-29T07:35:13.095Z</time></trkpt><trkpt lat="36.3246951" lon="-2.6262374"><ele>0.0</ele><time>2026-04-29T07:35:14.096Z</time></trkpt><trkpt lat="36.3247174" lon="-2.6261239"><ele>0.0</ele><time>2026-04-29T07:35:15.096Z</time></trkpt><trkpt lat="36.3247307" lon="-2.6260104"><ele>0.0</ele><time>2026-04-29T07:35:16.095Z</time></trkpt><trkpt lat="36.3247511" lon="-2.6258973"><ele>0.0</ele><time>2026-04-29T07:35:17.096Z</time></trkpt><trkpt lat="36.3247719" lon="-2.625784"><ele>0.0</ele><time>2026-04-29T07:35:18.096Z</time></trkpt><trkpt lat="36.3247937" lon="-2.6256689"><ele>0.0</ele><time>2026-04-29T07:35:19.095Z</time></trkpt><trkpt lat="36.3248194" lon="-2.6255596"><ele>0.0</ele><time>2026-04-29T07:35:20.095Z</time></trkpt><trkpt lat="36.3248458" lon="-2.6254503"><ele>0.0</ele><time>2026-04-29T07:35:21.095Z</time></trkpt><trkpt lat="36.3248625" lon="-2.6253406"><ele>0.0</ele><time>2026-04-29T07:35:22.096Z</time></trkpt><trkpt lat="36.3248844" lon="-2.6252318"><ele>0.0</ele><time>2026-04-29T07:35:23.095Z</time></trkpt><trkpt lat="36.3249084" lon="-2.6251223"><ele>0.0</ele><time>2026-04-29T07:35:24.095Z</time></trkpt><trkpt lat="36.3249312" lon="-2.6250107"><ele>0.0</ele><time>2026-04-29T07:35:25.095Z</time></trkpt><trkpt lat="36.3249518" lon="-2.6248985"><ele>0.0</ele><time>2026-04-29T07:35:26.096Z</time></trkpt><trkpt lat="36.3249781" lon="-2.6247869"><ele>0.0</ele><time>2026-04-29T07:35:27.096Z</time></trkpt><trkpt lat="36.3249953" lon="-2.6246781"><ele>0.0</ele><time>2026-04-29T07:35:28.095Z</time></trkpt><trkpt lat="36.3250081" lon="-2.6245673"><ele>0.0</ele><time>2026-04-29T07:35:29.095Z</time></trkpt><trkpt lat="36.3250156" lon="-2.624452"><ele>0.0</ele><time>2026-04-29T07:35:30.095Z</time></trkpt><trkpt lat="36.325027" lon="-2.6243397"><ele>0.0</ele><time>2026-04-29T07:35:31.095Z</time></trkpt><trkpt lat="36.3250652" lon="-2.6241214"><ele>0.0</ele><time>2026-04-29T07:35:33.095Z</time></trkpt><trkpt lat="36.3250852" lon="-2.6240134"><ele>0.0</ele><time>2026-04-29T07:35:34.096Z</time></trkpt><trkpt lat="36.3250959" lon="-2.6239049"><ele>0.0</ele><time>2026-04-29T07:35:35.096Z</time></trkpt><trkpt lat="36.32511" lon="-2.6237967"><ele>0.0</ele><time>2026-04-29T07:35:36.095Z</time></trkpt><trkpt lat="36.3251265" lon="-2.6236897"><ele>0.0</ele><time>2026-04-29T07:35:37.095Z</time></trkpt><trkpt lat="36.3251403" lon="-2.6235817"><ele>0.0</ele><time>2026-04-29T07:35:38.095Z</time></trkpt><trkpt lat="36.3251554" lon="-2.6234714"><ele>0.0</ele><time>2026-04-29T07:35:39.095Z</time></trkpt><trkpt lat="36.3251707" lon="-2.6233653"><ele>0.0</ele><time>2026-04-29T07:35:40.096Z</time></trkpt><trkpt lat="36.325183" lon="-2.6232532"><ele>0.0</ele><time>2026-04-29T07:35:41.095Z</time></trkpt><trkpt lat="36.3251898" lon="-2.6231431"><ele>0.0</ele><time>2026-04-29T07:35:42.095Z</time></trkpt><trkpt lat="36.3251926" lon="-2.6230334"><ele>0.0</ele><time>2026-04-29T07:35:43.096Z</time></trkpt><trkpt lat="36.325202" lon="-2.6229278"><ele>0.0</ele><time>2026-04-29T07:35:44.096Z</time></trkpt><trkpt lat="36.3252153" lon="-2.6228217"><ele>0.0</ele><time>2026-04-29T07:35:45.095Z</time></trkpt><trkpt lat="36.3252284" lon="-2.622712"><ele>0.0</ele><time>2026-04-29T07:35:46.095Z</time></trkpt><trkpt lat="36.3252435" lon="-2.622598"><ele>0.0</ele><time>2026-04-29T07:35:47.096Z</time></trkpt><trkpt lat="36.3252569" lon="-2.6224864"><ele>0.0</ele><time>2026-04-29T07:35:48.096Z</time></trkpt><trkpt lat="36.3252668" lon="-2.6223739"><ele>0.0</ele><time>2026-04-29T07:35:49.095Z</time></trkpt><trkpt lat="36.3252719" lon="-2.6222636"><ele>0.0</ele><time>2026-04-29T07:35:50.095Z</time></trkpt><trkpt lat="36.325284" lon="-2.6221522"><ele>0.0</ele><time>2026-04-29T07:35:51.096Z</time></trkpt><trkpt lat="36.325308" lon="-2.6220387"><ele>0.0</ele><time>2026-04-29T07:35:52.096Z</time></trkpt><trkpt lat="36.3253459" lon="-2.6218071"><ele>0.0</ele><time>2026-04-29T07:35:54.096Z</time></trkpt><trkpt lat="36.3253603" lon="-2.6216947"><ele>0.0</ele><time>2026-04-29T07:35:55.095Z</time></trkpt><trkpt lat="36.3253737" lon="-2.6215849"><ele>0.0</ele><time>2026-04-29T07:35:56.096Z</time></trkpt><trkpt lat="36.3253869" lon="-2.6214734"><ele>0.0</ele><time>2026-04-29T07:35:57.096Z</time></trkpt><trkpt lat="36.3254018" lon="-2.6213664"><ele>0.0</ele><time>2026-04-29T07:35:58.095Z</time></trkpt><trkpt lat="36.3254172" lon="-2.6212615"><ele>0.0</ele><time>2026-04-29T07:35:59.096Z</time></trkpt><trkpt lat="36.3254354" lon="-2.6211567"><ele>0.0</ele><time>2026-04-29T07:36:00.096Z</time></trkpt><trkpt lat="36.3254478" lon="-2.6210527"><ele>0.0</ele><time>2026-04-29T07:36:01.096Z</time></trkpt><trkpt lat="36.3254434" lon="-2.6209432"><ele>0.0</ele><time>2026-04-29T07:36:02.095Z</time></trkpt><trkpt lat="36.3254487" lon="-2.6208337"><ele>0.0</ele><time>2026-04-29T07:36:03.095Z</time></trkpt><trkpt lat="36.325454" lon="-2.6207207"><ele>0.0</ele><time>2026-04-29T07:36:04.095Z</time></trkpt><trkpt lat="36.3254638" lon="-2.6206117"><ele>0.0</ele><time>2026-04-29T07:36:05.096Z</time></trkpt><trkpt lat="36.3254783" lon="-2.6205039"><ele>0.0</ele><time>2026-04-29T07:36:06.096Z</time></trkpt><trkpt lat="36.3254934" lon="-2.6203893"><ele>0.0</ele><time>2026-04-29T07:36:07.096Z</time></trkpt><trkpt lat="36.3255121" lon="-2.6202782"><ele>0.0</ele><time>2026-04-29T07:36:08.095Z</time></trkpt><trkpt lat="36.325526" lon="-2.6201675"><ele>0.0</ele><time>2026-04-29T07:36:09.095Z</time></trkpt><trkpt lat="36.3255346" lon="-2.620054"><ele>0.0</ele><time>2026-04-29T07:36:10.095Z</time></trkpt><trkpt lat="36.3255441" lon="-2.6199422"><ele>0.0</ele><time>2026-04-29T07:36:11.095Z</time></trkpt><trkpt lat="36.3255505" lon="-2.6198318"><ele>0.0</ele><time>2026-04-29T07:36:12.095Z</time></trkpt><trkpt lat="36.3255627" lon="-2.6197237"><ele>0.0</ele><time>2026-04-29T07:36:13.095Z</time></trkpt><trkpt lat="36.3255665" lon="-2.619502"><ele>0.0</ele><time>2026-04-29T07:36:15.096Z</time></trkpt><trkpt lat="36.3255726" lon="-2.6193897"><ele>0.0</ele><time>2026-04-29T07:36:16.095Z</time></trkpt><trkpt lat="36.3255787" lon="-2.6192794"><ele>0.0</ele><time>2026-04-29T07:36:17.096Z</time></trkpt><trkpt lat="36.3255888" lon="-2.6191711"><ele>0.0</ele><time>2026-04-29T07:36:18.096Z</time></trkpt><trkpt lat="36.3255936" lon="-2.6190633"><ele>0.0</ele><time>2026-04-29T07:36:19.096Z</time></trkpt><trkpt lat="36.3255957" lon="-2.6189565"><ele>0.0</ele><time>2026-04-29T07:36:20.095Z</time></trkpt><trkpt lat="36.325604" lon="-2.6188583"><ele>0.0</ele><time>2026-04-29T07:36:21.096Z</time></trkpt><trkpt lat="36.325614" lon="-2.6187574"><ele>0.0</ele><time>2026-04-29T07:36:22.096Z</time></trkpt><trkpt lat="36.3256242" lon="-2.6186532"><ele>0.0</ele><time>2026-04-29T07:36:23.096Z</time></trkpt><trkpt lat="36.3256319" lon="-2.6185453"><ele>0.0</ele><time>2026-04-29T07:36:24.095Z</time></trkpt><trkpt lat="36.3256484" lon="-2.6184351"><ele>0.0</ele><time>2026-04-29T07:36:25.095Z</time></trkpt><trkpt lat="36.3256621" lon="-2.6183235"><ele>0.0</ele><time>2026-04-29T07:36:26.096Z</time></trkpt><trkpt lat="36.3256811" lon="-2.6182116"><ele>0.0</ele><time>2026-04-29T07:36:27.095Z</time></trkpt><trkpt lat="36.325701" lon="-2.6181013"><ele>0.0</ele><time>2026-04-29T07:36:28.096Z</time></trkpt><trkpt lat="36.325728" lon="-2.6179862"><ele>0.0</ele><time>2026-04-29T07:36:29.096Z</time></trkpt><trkpt lat="36.3257529" lon="-2.6178745"><ele>0.0</ele><time>2026-04-29T07:36:30.096Z</time></trkpt><trkpt lat="36.3257764" lon="-2.6177653"><ele>0.0</ele><time>2026-04-29T07:36:31.095Z</time></trkpt><trkpt lat="36.3258012" lon="-2.6176507"><ele>0.0</ele><time>2026-04-29T07:36:32.096Z</time></trkpt><trkpt lat="36.3258222" lon="-2.617537"><ele>0.0</ele><time>2026-04-29T07:36:33.096Z</time></trkpt><trkpt lat="36.325833" lon="-2.6174234"><ele>0.0</ele><time>2026-04-29T07:36:34.095Z</time></trkpt><trkpt lat="36.3258494" lon="-2.617206"><ele>0.0</ele><time>2026-04-29T07:36:36.095Z</time></trkpt><trkpt lat="36.3258573" lon="-2.6170964"><ele>0.0</ele><time>2026-04-29T07:36:37.096Z</time></trkpt><trkpt lat="36.3258617" lon="-2.6169878"><ele>0.0</ele><time>2026-04-29T07:36:38.095Z</time></trkpt><trkpt lat="36.3258734" lon="-2.6168801"><ele>0.0</ele><time>2026-04-29T07:36:39.096Z</time></trkpt><trkpt lat="36.3258931" lon="-2.6167716"><ele>0.0</ele><time>2026-04-29T07:36:40.096Z</time></trkpt><trkpt lat="36.3259048" lon="-2.6166589"><ele>0.0</ele><time>2026-04-29T07:36:41.095Z</time></trkpt><trkpt lat="36.3259119" lon="-2.6165452"><ele>0.0</ele><time>2026-04-29T07:36:42.095Z</time></trkpt><trkpt lat="36.3259226" lon="-2.6164319"><ele>0.0</ele><time>2026-04-29T07:36:43.095Z</time></trkpt><trkpt lat="36.3259243" lon="-2.6163197"><ele>0.0</ele><time>2026-04-29T07:36:44.096Z</time></trkpt><trkpt lat="36.3259209" lon="-2.6162138"><ele>0.0</ele><time>2026-04-29T07:36:45.096Z</time></trkpt><trkpt lat="36.3259164" lon="-2.6161143"><ele>0.0</ele><time>2026-04-29T07:36:46.095Z</time></trkpt><trkpt lat="36.325921" lon="-2.6160089"><ele>0.0</ele><time>2026-04-29T07:36:47.095Z</time></trkpt><trkpt lat="36.3259265" lon="-2.6159015"><ele>0.0</ele><time>2026-04-29T07:36:48.095Z</time></trkpt><trkpt lat="36.3259265" lon="-2.6157965"><ele>0.0</ele><time>2026-04-29T07:36:49.096Z</time></trkpt><trkpt lat="36.3259318" lon="-2.6156886"><ele>0.0</ele><time>2026-04-29T07:36:50.095Z</time></trkpt><trkpt lat="36.3259444" lon="-2.6155786"><ele>0.0</ele><time>2026-04-29T07:36:51.096Z</time></trkpt><trkpt lat="36.3259524" lon="-2.6154666"><ele>0.0</ele><time>2026-04-29T07:36:52.096Z</time></trkpt><trkpt lat="36.3259652" lon="-2.6153551"><ele>0.0</ele><time>2026-04-29T07:36:53.096Z</time></trkpt><trkpt lat="36.3259757" lon="-2.6152433"><ele>0.0</ele><time>2026-04-29T07:36:54.095Z</time></trkpt><trkpt lat="36.3259857" lon="-2.6151348"><ele>0.0</ele><time>2026-04-29T07:36:55.095Z</time></trkpt><trkpt lat="36.3260271" lon="-2.6149071"><ele>0.0</ele><time>2026-04-29T07:36:57.096Z</time></trkpt><trkpt lat="36.3260443" lon="-2.6147932"><ele>0.0</ele><time>2026-04-29T07:36:58.095Z</time></trkpt><trkpt lat="36.3260111" lon="-2.6146902"><ele>0.0</ele><time>2026-04-29T07:36:59.096Z</time></trkpt><trkpt lat="36.32603" lon="-2.6145845"><ele>0.0</ele><time>2026-04-29T07:37:00.096Z</time></trkpt><trkpt lat="36.3260403" lon="-2.6144823"><ele>0.0</ele><time>2026-04-29T07:37:01.096Z</time></trkpt><trkpt lat="36.3260525" lon="-2.6143808"><ele>0.0</ele><time>2026-04-29T07:37:02.095Z</time></trkpt><trkpt lat="36.3260715" lon="-2.6142764"><ele>0.0</ele><time>2026-04-29T07:37:03.095Z</time></trkpt><trkpt lat="36.3260872" lon="-2.6141699"><ele>0.0</ele><time>2026-04-29T07:37:04.095Z</time></trkpt><trkpt lat="36.3260977" lon="-2.6140666"><ele>0.0</ele><time>2026-04-29T07:37:05.095Z</time></trkpt><trkpt lat="36.3261137" lon="-2.6139584"><ele>0.0</ele><time>2026-04-29T07:37:06.095Z</time></trkpt><trkpt lat="36.3261275" lon="-2.6138528"><ele>0.0</ele><time>2026-04-29T07:37:07.096Z</time></trkpt><trkpt lat="36.3261381" lon="-2.6137465"><ele>0.0</ele><time>2026-04-29T07:37:08.096Z</time></trkpt><trkpt lat="36.3261465" lon="-2.6136401"><ele>0.0</ele><time>2026-04-29T07:37:09.095Z</time></trkpt><trkpt lat="36.326156" lon="-2.613532"><ele>0.0</ele><time>2026-04-29T07:37:10.096Z</time></trkpt><trkpt lat="36.3261742" lon="-2.613422"><ele>0.0</ele><time>2026-04-29T07:37:11.096Z</time></trkpt><trkpt lat="36.3261902" lon="-2.6133114"><ele>0.0</ele><time>2026-04-29T07:37:12.096Z</time></trkpt><trkpt lat="36.326216" lon="-2.6132029"><ele>0.0</ele><time>2026-04-29T07:37:13.096Z</time></trkpt><trkpt lat="36.3262259" lon="-2.6130933"><ele>0.0</ele><time>2026-04-29T07:37:14.095Z</time></trkpt><trkpt lat="36.3262419" lon="-2.6129818"><ele>0.0</ele><time>2026-04-29T07:37:15.096Z</time></trkpt><trkpt lat="36.3262615" lon="-2.6128705"><ele>0.0</ele><time>2026-04-29T07:37:16.096Z</time></trkpt><trkpt lat="36.326291" lon="-2.6126545"><ele>0.0</ele><time>2026-04-29T07:37:18.096Z</time></trkpt><trkpt lat="36.3263026" lon="-2.6125422"><ele>0.0</ele><time>2026-04-29T07:37:19.095Z</time></trkpt><trkpt lat="36.3263103" lon="-2.6124312"><ele>0.0</ele><time>2026-04-29T07:37:20.095Z</time></trkpt><trkpt lat="36.3263165" lon="-2.612323"><ele>0.0</ele><time>2026-04-29T07:37:21.095Z</time></trkpt><trkpt lat="36.3263208" lon="-2.6122147"><ele>0.0</ele><time>2026-04-29T07:37:22.095Z</time></trkpt><trkpt lat="36.3263284" lon="-2.6121047"><ele>0.0</ele><time>2026-04-29T07:37:23.095Z</time></trkpt><trkpt lat="36.3263382" lon="-2.611996"><ele>0.0</ele><time>2026-04-29T07:37:24.096Z</time></trkpt><trkpt lat="36.3263497" lon="-2.6118875"><ele>0.0</ele><time>2026-04-29T07:37:25.095Z</time></trkpt><trkpt lat="36.326366" lon="-2.6117796"><ele>0.0</ele><time>2026-04-29T07:37:26.096Z</time></trkpt><trkpt lat="36.3263833" lon="-2.611667"><ele>0.0</ele><time>2026-04-29T07:37:27.095Z</time></trkpt><trkpt lat="36.3264003" lon="-2.611555"><ele>0.0</ele><time>2026-04-29T07:37:28.096Z</time></trkpt><trkpt lat="36.3264184" lon="-2.6114434"><ele>0.0</ele><time>2026-04-29T07:37:29.095Z</time></trkpt><trkpt lat="36.326428" lon="-2.6113357"><ele>0.0</ele><time>2026-04-29T07:37:30.095Z</time></trkpt><trkpt lat="36.3264339" lon="-2.6112268"><ele>0.0</ele><time>2026-04-29T07:37:31.095Z</time></trkpt><trkpt lat="36.32644" lon="-2.6111168"><ele>0.0</ele><time>2026-04-29T07:37:32.096Z</time></trkpt><trkpt lat="36.3264492" lon="-2.6110081"><ele>0.0</ele><time>2026-04-29T07:37:33.095Z</time></trkpt><trkpt lat="36.326455" lon="-2.610901"><ele>0.0</ele><time>2026-04-29T07:37:34.095Z</time></trkpt><trkpt lat="36.3264684" lon="-2.6107963"><ele>0.0</ele><time>2026-04-29T07:37:35.096Z</time></trkpt><trkpt lat="36.3264791" lon="-2.61069"><ele>0.0</ele><time>2026-04-29T07:37:36.096Z</time></trkpt><trkpt lat="36.3264961" lon="-2.610588"><ele>0.0</ele><time>2026-04-29T07:37:37.095Z</time></trkpt><trkpt lat="36.3265632" lon="-2.6103662"><ele>0.0</ele><time>2026-04-29T07:37:39.095Z</time></trkpt><trkpt lat="36.3265803" lon="-2.6102554"><ele>0.0</ele><time>2026-04-29T07:37:40.096Z</time></trkpt><trkpt lat="36.3265897" lon="-2.6101465"><ele>0.0</ele><time>2026-04-29T07:37:41.095Z</time></trkpt><trkpt lat="36.3265994" lon="-2.6100384"><ele>0.0</ele><time>2026-04-29T07:37:42.096Z</time></trkpt><trkpt lat="36.3266182" lon="-2.6099301"><ele>0.0</ele><time>2026-04-29T07:37:43.096Z</time></trkpt><trkpt lat="36.3266397" lon="-2.6098234"><ele>0.0</ele><time>2026-04-29T07:37:44.096Z</time></trkpt><trkpt lat="36.3266588" lon="-2.6097153"><ele>0.0</ele><time>2026-04-29T07:37:45.095Z</time></trkpt><trkpt lat="36.3266791" lon="-2.6096052"><ele>0.0</ele><time>2026-04-29T07:37:46.096Z</time></trkpt><trkpt lat="36.3266919" lon="-2.6094968"><ele>0.0</ele><time>2026-04-29T07:37:47.096Z</time></trkpt><trkpt lat="36.3267061" lon="-2.6093872"><ele>0.0</ele><time>2026-04-29T07:37:48.096Z</time></trkpt><trkpt lat="36.3267283" lon="-2.6092739"><ele>0.0</ele><time>2026-04-29T07:37:49.095Z</time></trkpt><trkpt lat="36.3267491" lon="-2.609163"><ele>0.0</ele><time>2026-04-29T07:37:50.096Z</time></trkpt><trkpt lat="36.3267664" lon="-2.6090519"><ele>0.0</ele><time>2026-04-29T07:37:51.095Z</time></trkpt><trkpt lat="36.3267782" lon="-2.6089431"><ele>0.0</ele><time>2026-04-29T07:37:52.095Z</time></trkpt><trkpt lat="36.3267855" lon="-2.6088353"><ele>0.0</ele><time>2026-04-29T07:37:53.096Z</time></trkpt><trkpt lat="36.3267945" lon="-2.6087254"><ele>0.0</ele><time>2026-04-29T07:37:54.095Z</time></trkpt><trkpt lat="36.3267991" lon="-2.6086134"><ele>0.0</ele><time>2026-04-29T07:37:55.094Z</time></trkpt><trkpt lat="36.3268065" lon="-2.6085038"><ele>0.0</ele><time>2026-04-29T07:37:56.094Z</time></trkpt><trkpt lat="36.3268165" lon="-2.6083923"><ele>0.0</ele><time>2026-04-29T07:37:57.095Z</time></trkpt><trkpt lat="36.326831" lon="-2.608279"><ele>0.0</ele><time>2026-04-29T07:37:58.094Z</time></trkpt><trkpt lat="36.3268441" lon="-2.6080566"><ele>0.0</ele><time>2026-04-29T07:38:00.095Z</time></trkpt><trkpt lat="36.3268526" lon="-2.6079475"><ele>0.0</ele><time>2026-04-29T07:38:01.095Z</time></trkpt><trkpt lat="36.326863" lon="-2.607837"><ele>0.0</ele><time>2026-04-29T07:38:02.095Z</time></trkpt><trkpt lat="36.3268704" lon="-2.6077238"><ele>0.0</ele><time>2026-04-29T07:38:03.094Z</time></trkpt><trkpt lat="36.32688" lon="-2.6076101"><ele>0.0</ele><time>2026-04-29T07:38:04.095Z</time></trkpt><trkpt lat="36.3268854" lon="-2.6075038"><ele>0.0</ele><time>2026-04-29T07:38:05.094Z</time></trkpt><trkpt lat="36.3268872" lon="-2.6073984"><ele>0.0</ele><time>2026-04-29T07:38:06.094Z</time></trkpt><trkpt lat="36.3268872" lon="-2.6072887"><ele>0.0</ele><time>2026-04-29T07:38:07.094Z</time></trkpt><trkpt lat="36.326887" lon="-2.6071813"><ele>0.0</ele><time>2026-04-29T07:38:08.094Z</time></trkpt><trkpt lat="36.3268924" lon="-2.6070705"><ele>0.0</ele><time>2026-04-29T07:38:09.094Z</time></trkpt><trkpt lat="36.3269012" lon="-2.6069586"><ele>0.0</ele><time>2026-04-29T07:38:10.094Z</time></trkpt><trkpt lat="36.3269141" lon="-2.6068454"><ele>0.0</ele><time>2026-04-29T07:38:11.095Z</time></trkpt><trkpt lat="36.3269262" lon="-2.606735"><ele>0.0</ele><time>2026-04-29T07:38:12.095Z</time></trkpt><trkpt lat="36.3269363" lon="-2.6066268"><ele>0.0</ele><time>2026-04-29T07:38:13.094Z</time></trkpt><trkpt lat="36.3269463" lon="-2.6065196"><ele>0.0</ele><time>2026-04-29T07:38:14.094Z</time></trkpt><trkpt lat="36.3269542" lon="-2.6064127"><ele>0.0</ele><time>2026-04-29T07:38:15.094Z</time></trkpt><trkpt lat="36.3269622" lon="-2.6063076"><ele>0.0</ele><time>2026-04-29T07:38:16.095Z</time></trkpt><trkpt lat="36.3269663" lon="-2.6062014"><ele>0.0</ele><time>2026-04-29T07:38:17.094Z</time></trkpt><trkpt lat="36.3269713" lon="-2.6060903"><ele>0.0</ele><time>2026-04-29T07:38:18.094Z</time></trkpt><trkpt lat="36.3269819" lon="-2.6059832"><ele>0.0</ele><time>2026-04-29T07:38:19.095Z</time></trkpt><trkpt lat="36.3270063" lon="-2.6057603"><ele>0.0</ele><time>2026-04-29T07:38:21.094Z</time></trkpt><trkpt lat="36.3270182" lon="-2.6056494"><ele>0.0</ele><time>2026-04-29T07:38:22.095Z</time></trkpt><trkpt lat="36.3270289" lon="-2.6055427"><ele>0.0</ele><time>2026-04-29T07:38:23.095Z</time></trkpt><trkpt lat="36.3270445" lon="-2.6054361"><ele>0.0</ele><time>2026-04-29T07:38:24.094Z</time></trkpt><trkpt lat="36.327061" lon="-2.6053264"><ele>0.0</ele><time>2026-04-29T07:38:25.094Z</time></trkpt><trkpt lat="36.3270722" lon="-2.6052192"><ele>0.0</ele><time>2026-04-29T07:38:26.094Z</time></trkpt><trkpt lat="36.3271495" lon="-2.6051031"><ele>0.0</ele><time>2026-04-29T07:38:27.094Z</time></trkpt><trkpt lat="36.3271735" lon="-2.604993"><ele>0.0</ele><time>2026-04-29T07:38:28.094Z</time></trkpt><trkpt lat="36.3271865" lon="-2.6048851"><ele>0.0</ele><time>2026-04-29T07:38:29.094Z</time></trkpt><trkpt lat="36.3271951" lon="-2.6047798"><ele>0.0</ele><time>2026-04-29T07:38:30.095Z</time></trkpt><trkpt lat="36.327199" lon="-2.6046733"><ele>0.0</ele><time>2026-04-29T07:38:31.094Z</time></trkpt><trkpt lat="36.3272085" lon="-2.6045623"><ele>0.0</ele><time>2026-04-29T07:38:32.094Z</time></trkpt><trkpt lat="36.3272249" lon="-2.6044517"><ele>0.0</ele><time>2026-04-29T07:38:33.095Z</time></trkpt><trkpt lat="36.3272367" lon="-2.6043431"><ele>0.0</ele><time>2026-04-29T07:38:34.095Z</time></trkpt><trkpt lat="36.327254" lon="-2.604233"><ele>0.0</ele><time>2026-04-29T07:38:35.094Z</time></trkpt><trkpt lat="36.3272771" lon="-2.6041247"><ele>0.0</ele><time>2026-04-29T07:38:36.094Z</time></trkpt><trkpt lat="36.3272838" lon="-2.6040197"><ele>0.0</ele><time>2026-04-29T07:38:37.095Z</time></trkpt><trkpt lat="36.327298" lon="-2.6039093"><ele>0.0</ele><time>2026-04-29T07:38:38.094Z</time></trkpt><trkpt lat="36.3273137" lon="-2.6038014"><ele>0.0</ele><time>2026-04-29T07:38:39.094Z</time></trkpt><trkpt lat="36.3273352" lon="-2.6036968"><ele>0.0</ele><time>2026-04-29T07:38:40.095Z</time></trkpt><trkpt lat="36.327373" lon="-2.6034721"><ele>0.0</ele><time>2026-04-29T07:38:42.094Z</time></trkpt><trkpt lat="36.3273933" lon="-2.6033591"><ele>0.0</ele><time>2026-04-29T07:38:43.094Z</time></trkpt><trkpt lat="36.3274066" lon="-2.6032485"><ele>0.0</ele><time>2026-04-29T07:38:44.094Z</time></trkpt><trkpt lat="36.327418" lon="-2.6031385"><ele>0.0</ele><time>2026-04-29T07:38:45.094Z</time></trkpt><trkpt lat="36.3274409" lon="-2.6030286"><ele>0.0</ele><time>2026-04-29T07:38:46.094Z</time></trkpt><trkpt lat="36.3274787" lon="-2.602909"><ele>0.0</ele><time>2026-04-29T07:38:47.094Z</time></trkpt><trkpt lat="36.3275035" lon="-2.6027927"><ele>0.0</ele><time>2026-04-29T07:38:48.094Z</time></trkpt><trkpt lat="36.3275228" lon="-2.6026809"><ele>0.0</ele><time>2026-04-29T07:38:49.095Z</time></trkpt><trkpt lat="36.3275379" lon="-2.6025721"><ele>0.0</ele><time>2026-04-29T07:38:50.094Z</time></trkpt><trkpt lat="36.3275529" lon="-2.6024635"><ele>0.0</ele><time>2026-04-29T07:38:51.094Z</time></trkpt><trkpt lat="36.3275669" lon="-2.6023522"><ele>0.0</ele><time>2026-04-29T07:38:52.094Z</time></trkpt><trkpt lat="36.3275842" lon="-2.6022432"><ele>0.0</ele><time>2026-04-29T07:38:53.094Z</time></trkpt><trkpt lat="36.3276006" lon="-2.6021379"><ele>0.0</ele><time>2026-04-29T07:38:54.094Z</time></trkpt><trkpt lat="36.3276111" lon="-2.6020302"><ele>0.0</ele><time>2026-04-29T07:38:55.095Z</time></trkpt><trkpt lat="36.3276184" lon="-2.6019245"><ele>0.0</ele><time>2026-04-29T07:38:56.094Z</time></trkpt><trkpt lat="36.3276308" lon="-2.6018152"><ele>0.0</ele><time>2026-04-29T07:38:57.095Z</time></trkpt><trkpt lat="36.3276492" lon="-2.6017037"><ele>0.0</ele><time>2026-04-29T07:38:58.094Z</time></trkpt><trkpt lat="36.327664" lon="-2.6015906"><ele>0.0</ele><time>2026-04-29T07:38:59.094Z</time></trkpt><trkpt lat="36.3276807" lon="-2.6014788"><ele>0.0</ele><time>2026-04-29T07:39:00.094Z</time></trkpt><trkpt lat="36.3276978" lon="-2.6013655"><ele>0.0</ele><time>2026-04-29T07:39:01.094Z</time></trkpt><trkpt lat="36.3277483" lon="-2.6011481"><ele>0.0</ele><time>2026-04-29T07:39:03.095Z</time></trkpt><trkpt lat="36.3277771" lon="-2.6010396"><ele>0.0</ele><time>2026-04-29T07:39:04.095Z</time></trkpt><trkpt lat="36.3277883" lon="-2.6009273"><ele>0.0</ele><time>2026-04-29T07:39:05.095Z</time></trkpt><trkpt lat="36.3277916" lon="-2.6008202"><ele>0.0</ele><time>2026-04-29T07:39:06.094Z</time></trkpt><trkpt lat="36.3278023" lon="-2.6007103"><ele>0.0</ele><time>2026-04-29T07:39:07.094Z</time></trkpt><trkpt lat="36.3278084" lon="-2.6005987"><ele>0.0</ele><time>2026-04-29T07:39:08.094Z</time></trkpt><trkpt lat="36.3278213" lon="-2.6004819"><ele>0.0</ele><time>2026-04-29T07:39:09.094Z</time></trkpt><trkpt lat="36.3278383" lon="-2.6003661"><ele>0.0</ele><time>2026-04-29T07:39:10.095Z</time></trkpt><trkpt lat="36.327855" lon="-2.600254"><ele>0.0</ele><time>2026-04-29T07:39:11.094Z</time></trkpt><trkpt lat="36.3278692" lon="-2.6001419"><ele>0.0</ele><time>2026-04-29T07:39:12.094Z</time></trkpt><trkpt lat="36.3278846" lon="-2.6000297"><ele>0.0</ele><time>2026-04-29T07:39:13.094Z</time></trkpt><trkpt lat="36.3278954" lon="-2.5999223"><ele>0.0</ele><time>2026-04-29T07:39:14.094Z</time></trkpt><trkpt lat="36.3279009" lon="-2.5998137"><ele>0.0</ele><time>2026-04-29T07:39:15.095Z</time></trkpt><trkpt lat="36.3278999" lon="-2.5997065"><ele>0.0</ele><time>2026-04-29T07:39:16.094Z</time></trkpt><trkpt lat="36.3279012" lon="-2.5996015"><ele>0.0</ele><time>2026-04-29T07:39:17.095Z</time></trkpt><trkpt lat="36.3279041" lon="-2.5994931"><ele>0.0</ele><time>2026-04-29T07:39:18.094Z</time></trkpt><trkpt lat="36.3279128" lon="-2.5993846"><ele>0.0</ele><time>2026-04-29T07:39:19.094Z</time></trkpt><trkpt lat="36.3279137" lon="-2.5992792"><ele>0.0</ele><time>2026-04-29T07:39:20.095Z</time></trkpt><trkpt lat="36.3279148" lon="-2.5991757"><ele>0.0</ele><time>2026-04-29T07:39:21.095Z</time></trkpt><trkpt lat="36.3279105" lon="-2.5990697"><ele>0.0</ele><time>2026-04-29T07:39:22.094Z</time></trkpt><trkpt lat="36.3279214" lon="-2.5988414"><ele>0.0</ele><time>2026-04-29T07:39:24.094Z</time></trkpt><trkpt lat="36.3279329" lon="-2.5987328"><ele>0.0</ele><time>2026-04-29T07:39:25.094Z</time></trkpt><trkpt lat="36.3279417" lon="-2.5986258"><ele>0.0</ele><time>2026-04-29T07:39:26.095Z</time></trkpt><trkpt lat="36.3279358" lon="-2.5985167"><ele>0.0</ele><time>2026-04-29T07:39:27.095Z</time></trkpt><trkpt lat="36.3279269" lon="-2.5984143"><ele>0.0</ele><time>2026-04-29T07:39:28.094Z</time></trkpt><trkpt lat="36.3279352" lon="-2.5983101"><ele>0.0</ele><time>2026-04-29T07:39:29.095Z</time></trkpt><trkpt lat="36.3279425" lon="-2.5982029"><ele>0.0</ele><time>2026-04-29T07:39:30.094Z</time></trkpt><trkpt lat="36.3279623" lon="-2.5980947"><ele>0.0</ele><time>2026-04-29T07:39:31.094Z</time></trkpt><trkpt lat="36.327973" lon="-2.5979807"><ele>0.0</ele><time>2026-04-29T07:39:32.095Z</time></trkpt><trkpt lat="36.3279827" lon="-2.5978599"><ele>0.0</ele><time>2026-04-29T07:39:33.095Z</time></trkpt><trkpt lat="36.3279943" lon="-2.5977415"><ele>0.0</ele><time>2026-04-29T07:39:34.094Z</time></trkpt><trkpt lat="36.3280039" lon="-2.5976194"><ele>0.0</ele><time>2026-04-29T07:39:35.095Z</time></trkpt><trkpt lat="36.3280215" lon="-2.5975041"><ele>0.0</ele><time>2026-04-29T07:39:36.094Z</time></trkpt><trkpt lat="36.3280367" lon="-2.5973865"><ele>0.0</ele><time>2026-04-29T07:39:37.095Z</time></trkpt><trkpt lat="36.3280549" lon="-2.5972703"><ele>0.0</ele><time>2026-04-29T07:39:38.095Z</time></trkpt><trkpt lat="36.3280721" lon="-2.5971599"><ele>0.0</ele><time>2026-04-29T07:39:39.094Z</time></trkpt><trkpt lat="36.3280916" lon="-2.5970595"><ele>0.0</ele><time>2026-04-29T07:39:40.095Z</time></trkpt><trkpt lat="36.3281006" lon="-2.59696"><ele>0.0</ele><time>2026-04-29T07:39:41.094Z</time></trkpt><trkpt lat="36.3281128" lon="-2.596852"><ele>0.0</ele><time>2026-04-29T07:39:42.094Z</time></trkpt><trkpt lat="36.3281238" lon="-2.5967443"><ele>0.0</ele><time>2026-04-29T07:39:43.094Z</time></trkpt><trkpt lat="36.3281308" lon="-2.5965283"><ele>0.0</ele><time>2026-04-29T07:39:45.094Z</time></trkpt><trkpt lat="36.3281355" lon="-2.5964227"><ele>0.0</ele><time>2026-04-29T07:39:46.095Z</time></trkpt><trkpt lat="36.3281464" lon="-2.5963106"><ele>0.0</ele><time>2026-04-29T07:39:47.094Z</time></trkpt><trkpt lat="36.3281523" lon="-2.5962062"><ele>0.0</ele><time>2026-04-29T07:39:48.095Z</time></trkpt><trkpt lat="36.3281604" lon="-2.5960956"><ele>0.0</ele><time>2026-04-29T07:39:49.094Z</time></trkpt><trkpt lat="36.3281697" lon="-2.5959854"><ele>0.0</ele><time>2026-04-29T07:39:50.095Z</time></trkpt><trkpt lat="36.3281777" lon="-2.5958756"><ele>0.0</ele><time>2026-04-29T07:39:51.095Z</time></trkpt><trkpt lat="36.328191" lon="-2.5957581"><ele>0.0</ele><time>2026-04-29T07:39:52.094Z</time></trkpt><trkpt lat="36.3281973" lon="-2.5956351"><ele>0.0</ele><time>2026-04-29T07:39:53.095Z</time></trkpt><trkpt lat="36.3282123" lon="-2.5955296"><ele>0.0</ele><time>2026-04-29T07:39:54.095Z</time></trkpt><trkpt lat="36.3282501" lon="-2.5954273"><ele>0.0</ele><time>2026-04-29T07:39:55.094Z</time></trkpt><trkpt lat="36.3282714" lon="-2.5953185"><ele>0.0</ele><time>2026-04-29T07:39:56.095Z</time></trkpt><trkpt lat="36.3282878" lon="-2.5952071"><ele>0.0</ele><time>2026-04-29T07:39:57.094Z</time></trkpt><trkpt lat="36.328302" lon="-2.595099"><ele>0.0</ele><time>2026-04-29T07:39:58.094Z</time></trkpt><trkpt lat="36.3283107" lon="-2.5949914"><ele>0.0</ele><time>2026-04-29T07:39:59.094Z</time></trkpt><trkpt lat="36.3283101" lon="-2.5948874"><ele>0.0</ele><time>2026-04-29T07:40:00.094Z</time></trkpt><trkpt lat="36.3283157" lon="-2.5947814"><ele>0.0</ele><time>2026-04-29T07:40:01.094Z</time></trkpt><trkpt lat="36.328324" lon="-2.5946773"><ele>0.0</ele><time>2026-04-29T07:40:02.094Z</time></trkpt><trkpt lat="36.3283361" lon="-2.5945731"><ele>0.0</ele><time>2026-04-29T07:40:03.094Z</time></trkpt><trkpt lat="36.328344" lon="-2.5944652"><ele>0.0</ele><time>2026-04-29T07:40:04.094Z</time></trkpt><trkpt lat="36.3283701" lon="-2.5942518"><ele>0.0</ele><time>2026-04-29T07:40:06.094Z</time></trkpt><trkpt lat="36.3283935" lon="-2.594142"><ele>0.0</ele><time>2026-04-29T07:40:07.094Z</time></trkpt><trkpt lat="36.3284073" lon="-2.5940348"><ele>0.0</ele><time>2026-04-29T07:40:08.094Z</time></trkpt><trkpt lat="36.3284157" lon="-2.5939254"><ele>0.0</ele><time>2026-04-29T07:40:09.094Z</time></trkpt><trkpt lat="36.328427" lon="-2.5938163"><ele>0.0</ele><time>2026-04-29T07:40:10.095Z</time></trkpt><trkpt lat="36.3284387" lon="-2.5937037"><ele>0.0</ele><time>2026-04-29T07:40:11.094Z</time></trkpt><trkpt lat="36.3284455" lon="-2.5935905"><ele>0.0</ele><time>2026-04-29T07:40:12.094Z</time></trkpt><trkpt lat="36.3284566" lon="-2.5934773"><ele>0.0</ele><time>2026-04-29T07:40:13.094Z</time></trkpt><trkpt lat="36.3284713" lon="-2.5933678"><ele>0.0</ele><time>2026-04-29T07:40:14.094Z</time></trkpt><trkpt lat="36.3284791" lon="-2.5932611"><ele>0.0</ele><time>2026-04-29T07:40:15.095Z</time></trkpt><trkpt lat="36.3285179" lon="-2.593151"><ele>0.0</ele><time>2026-04-29T07:40:16.095Z</time></trkpt><trkpt lat="36.3285345" lon="-2.5930403"><ele>0.0</ele><time>2026-04-29T07:40:17.095Z</time></trkpt><trkpt lat="36.3285455" lon="-2.5929344"><ele>0.0</ele><time>2026-04-29T07:40:18.095Z</time></trkpt><trkpt lat="36.3285611" lon="-2.5928314"><ele>0.0</ele><time>2026-04-29T07:40:19.095Z</time></trkpt><trkpt lat="36.3285721" lon="-2.5927208"><ele>0.0</ele><time>2026-04-29T07:40:20.095Z</time></trkpt><trkpt lat="36.3285813" lon="-2.5926092"><ele>0.0</ele><time>2026-04-29T07:40:21.095Z</time></trkpt><trkpt lat="36.3285938" lon="-2.5925032"><ele>0.0</ele><time>2026-04-29T07:40:22.094Z</time></trkpt><trkpt lat="36.328608" lon="-2.5923894"><ele>0.0</ele><time>2026-04-29T07:40:23.094Z</time></trkpt><trkpt lat="36.3286149" lon="-2.5922754"><ele>0.0</ele><time>2026-04-29T07:40:24.095Z</time></trkpt><trkpt lat="36.3286232" lon="-2.5921666"><ele>0.0</ele><time>2026-04-29T07:40:25.095Z</time></trkpt><trkpt lat="36.328634" lon="-2.591945"><ele>0.0</ele><time>2026-04-29T07:40:27.094Z</time></trkpt><trkpt lat="36.3286447" lon="-2.5918396"><ele>0.0</ele><time>2026-04-29T07:40:28.095Z</time></trkpt><trkpt lat="36.3286633" lon="-2.5917327"><ele>0.0</ele><time>2026-04-29T07:40:29.094Z</time></trkpt><trkpt lat="36.3286737" lon="-2.5916241"><ele>0.0</ele><time>2026-04-29T07:40:30.095Z</time></trkpt><trkpt lat="36.3286817" lon="-2.5915165"><ele>0.0</ele><time>2026-04-29T07:40:31.095Z</time></trkpt><trkpt lat="36.3287001" lon="-2.5914109"><ele>0.0</ele><time>2026-04-29T07:40:32.095Z</time></trkpt><trkpt lat="36.3287201" lon="-2.5913057"><ele>0.0</ele><time>2026-04-29T07:40:33.094Z</time></trkpt><trkpt lat="36.3287356" lon="-2.5911951"><ele>0.0</ele><time>2026-04-29T07:40:34.094Z</time></trkpt><trkpt lat="36.3287547" lon="-2.5910889"><ele>0.0</ele><time>2026-04-29T07:40:35.094Z</time></trkpt><trkpt lat="36.3287685" lon="-2.5909847"><ele>0.0</ele><time>2026-04-29T07:40:36.095Z</time></trkpt><trkpt lat="36.3287716" lon="-2.5908741"><ele>0.0</ele><time>2026-04-29T07:40:37.094Z</time></trkpt><trkpt lat="36.3287784" lon="-2.5907639"><ele>0.0</ele><time>2026-04-29T07:40:38.094Z</time></trkpt><trkpt lat="36.3287835" lon="-2.5906618"><ele>0.0</ele><time>2026-04-29T07:40:39.094Z</time></trkpt><trkpt lat="36.328798" lon="-2.5905569"><ele>0.0</ele><time>2026-04-29T07:40:40.094Z</time></trkpt><trkpt lat="36.3288046" lon="-2.5904473"><ele>0.0</ele><time>2026-04-29T07:40:41.095Z</time></trkpt><trkpt lat="36.3288178" lon="-2.5903386"><ele>0.0</ele><time>2026-04-29T07:40:42.094Z</time></trkpt><trkpt lat="36.3288317" lon="-2.5902275"><ele>0.0</ele><time>2026-04-29T07:40:43.094Z</time></trkpt><trkpt lat="36.3288453" lon="-2.5901228"><ele>0.0</ele><time>2026-04-29T07:40:44.094Z</time></trkpt><trkpt lat="36.3288591" lon="-2.5900135"><ele>0.0</ele><time>2026-04-29T07:40:45.094Z</time></trkpt><trkpt lat="36.3288729" lon="-2.5899021"><ele>0.0</ele><time>2026-04-29T07:40:46.095Z</time></trkpt><trkpt lat="36.3288991" lon="-2.5896835"><ele>0.0</ele><time>2026-04-29T07:40:48.094Z</time></trkpt><trkpt lat="36.3289128" lon="-2.5895723"><ele>0.0</ele><time>2026-04-29T07:40:49.095Z</time></trkpt><trkpt lat="36.32892" lon="-2.5894682"><ele>0.0</ele><time>2026-04-29T07:40:50.095Z</time></trkpt><trkpt lat="36.3289395" lon="-2.5893629"><ele>0.0</ele><time>2026-04-29T07:40:51.095Z</time></trkpt><trkpt lat="36.3289565" lon="-2.5892619"><ele>0.0</ele><time>2026-04-29T07:40:52.095Z</time></trkpt><trkpt lat="36.3289746" lon="-2.5891626"><ele>0.0</ele><time>2026-04-29T07:40:53.094Z</time></trkpt><trkpt lat="36.3289901" lon="-2.5890527"><ele>0.0</ele><time>2026-04-29T07:40:54.094Z</time></trkpt><trkpt lat="36.3290054" lon="-2.5889401"><ele>0.0</ele><time>2026-04-29T07:40:55.094Z</time></trkpt><trkpt lat="36.3289979" lon="-2.5888322"><ele>0.0</ele><time>2026-04-29T07:40:56.095Z</time></trkpt><trkpt lat="36.3290023" lon="-2.5887263"><ele>0.0</ele><time>2026-04-29T07:40:57.095Z</time></trkpt><trkpt lat="36.329004" lon="-2.5886232"><ele>0.0</ele><time>2026-04-29T07:40:58.094Z</time></trkpt><trkpt lat="36.3290041" lon="-2.5885142"><ele>0.0</ele><time>2026-04-29T07:40:59.095Z</time></trkpt><trkpt lat="36.3290126" lon="-2.588407"><ele>0.0</ele><time>2026-04-29T07:41:00.095Z</time></trkpt><trkpt lat="36.3290286" lon="-2.588296"><ele>0.0</ele><time>2026-04-29T07:41:01.094Z</time></trkpt><trkpt lat="36.3290344" lon="-2.5881767"><ele>0.0</ele><time>2026-04-29T07:41:02.095Z</time></trkpt><trkpt lat="36.3290565" lon="-2.5880672"><ele>0.0</ele><time>2026-04-29T07:41:03.095Z</time></trkpt><trkpt lat="36.3290826" lon="-2.5879565"><ele>0.0</ele><time>2026-04-29T07:41:04.095Z</time></trkpt><trkpt lat="36.3291051" lon="-2.5878415"><ele>0.0</ele><time>2026-04-29T07:41:05.094Z</time></trkpt><trkpt lat="36.3291197" lon="-2.5877425"><ele>0.0</ele><time>2026-04-29T07:41:06.094Z</time></trkpt><trkpt lat="36.3291307" lon="-2.5876354"><ele>0.0</ele><time>2026-04-29T07:41:07.095Z</time></trkpt><trkpt lat="36.329165" lon="-2.5874161"><ele>0.0</ele><time>2026-04-29T07:41:09.094Z</time></trkpt><trkpt lat="36.3291845" lon="-2.5873129"><ele>0.0</ele><time>2026-04-29T07:41:10.094Z</time></trkpt><trkpt lat="36.3292" lon="-2.5872064"><ele>0.0</ele><time>2026-04-29T07:41:11.095Z</time></trkpt><trkpt lat="36.3292118" lon="-2.5871025"><ele>0.0</ele><time>2026-04-29T07:41:12.094Z</time></trkpt><trkpt lat="36.3292305" lon="-2.5869937"><ele>0.0</ele><time>2026-04-29T07:41:13.095Z</time></trkpt><trkpt lat="36.3292482" lon="-2.5868819"><ele>0.0</ele><time>2026-04-29T07:41:14.094Z</time></trkpt><trkpt lat="36.3292609" lon="-2.5867782"><ele>0.0</ele><time>2026-04-29T07:41:15.095Z</time></trkpt><trkpt lat="36.3292747" lon="-2.5866676"><ele>0.0</ele><time>2026-04-29T07:41:16.095Z</time></trkpt><trkpt lat="36.3292922" lon="-2.5865561"><ele>0.0</ele><time>2026-04-29T07:41:17.094Z</time></trkpt><trkpt lat="36.3293096" lon="-2.5864481"><ele>0.0</ele><time>2026-04-29T07:41:18.094Z</time></trkpt><trkpt lat="36.3293208" lon="-2.5863339"><ele>0.0</ele><time>2026-04-29T07:41:19.094Z</time></trkpt><trkpt lat="36.3293318" lon="-2.586222"><ele>0.0</ele><time>2026-04-29T07:41:20.094Z</time></trkpt><trkpt lat="36.329347" lon="-2.5861161"><ele>0.0</ele><time>2026-04-29T07:41:21.095Z</time></trkpt><trkpt lat="36.3293602" lon="-2.586011"><ele>0.0</ele><time>2026-04-29T07:41:22.095Z</time></trkpt><trkpt lat="36.3293769" lon="-2.5859066"><ele>0.0</ele><time>2026-04-29T07:41:23.095Z</time></trkpt><trkpt lat="36.3293873" lon="-2.5857975"><ele>0.0</ele><time>2026-04-29T07:41:24.094Z</time></trkpt><trkpt lat="36.3293945" lon="-2.5856912"><ele>0.0</ele><time>2026-04-29T07:41:25.095Z</time></trkpt><trkpt lat="36.3294073" lon="-2.5855783"><ele>0.0</ele><time>2026-04-29T07:41:26.094Z</time></trkpt><trkpt lat="36.3294239" lon="-2.5854659"><ele>0.0</ele><time>2026-04-29T07:41:27.094Z</time></trkpt><trkpt lat="36.3294344" lon="-2.5853567"><ele>0.0</ele><time>2026-04-29T07:41:28.095Z</time></trkpt><trkpt lat="36.3294542" lon="-2.5851293"><ele>0.0</ele><time>2026-04-29T07:41:30.094Z</time></trkpt><trkpt lat="36.329462" lon="-2.5850154"><ele>0.0</ele><time>2026-04-29T07:41:31.094Z</time></trkpt><trkpt lat="36.3294683" lon="-2.5849125"><ele>0.0</ele><time>2026-04-29T07:41:32.094Z</time></trkpt><trkpt lat="36.3294732" lon="-2.584803"><ele>0.0</ele><time>2026-04-29T07:41:33.095Z</time></trkpt><trkpt lat="36.3294888" lon="-2.5846895"><ele>0.0</ele><time>2026-04-29T07:41:34.094Z</time></trkpt><trkpt lat="36.3294984" lon="-2.5845801"><ele>0.0</ele><time>2026-04-29T07:41:35.094Z</time></trkpt><trkpt lat="36.3295149" lon="-2.5844733"><ele>0.0</ele><time>2026-04-29T07:41:36.094Z</time></trkpt><trkpt lat="36.3295293" lon="-2.5843667"><ele>0.0</ele><time>2026-04-29T07:41:37.095Z</time></trkpt><trkpt lat="36.3295407" lon="-2.5842558"><ele>0.0</ele><time>2026-04-29T07:41:38.095Z</time></trkpt><trkpt lat="36.3295528" lon="-2.5841468"><ele>0.0</ele><time>2026-04-29T07:41:39.094Z</time></trkpt><trkpt lat="36.329562" lon="-2.584034"><ele>0.0</ele><time>2026-04-29T07:41:40.095Z</time></trkpt><trkpt lat="36.329574" lon="-2.5839237"><ele>0.0</ele><time>2026-04-29T07:41:41.095Z</time></trkpt><trkpt lat="36.3295885" lon="-2.58381"><ele>0.0</ele><time>2026-04-29T07:41:42.095Z</time></trkpt><trkpt lat="36.3296034" lon="-2.5837092"><ele>0.0</ele><time>2026-04-29T07:41:43.095Z</time></trkpt><trkpt lat="36.3296195" lon="-2.5836107"><ele>0.0</ele><time>2026-04-29T07:41:44.095Z</time></trkpt><trkpt lat="36.3296376" lon="-2.5835005"><ele>0.0</ele><time>2026-04-29T07:41:45.095Z</time></trkpt><trkpt lat="36.3296534" lon="-2.5833916"><ele>0.0</ele><time>2026-04-29T07:41:46.095Z</time></trkpt><trkpt lat="36.3296636" lon="-2.5832859"><ele>0.0</ele><time>2026-04-29T07:41:47.095Z</time></trkpt><trkpt lat="36.3296828" lon="-2.5831812"><ele>0.0</ele><time>2026-04-29T07:41:48.094Z</time></trkpt><trkpt lat="36.3297037" lon="-2.5830733"><ele>0.0</ele><time>2026-04-29T07:41:49.094Z</time></trkpt><trkpt lat="36.3297458" lon="-2.582859"><ele>0.0</ele><time>2026-04-29T07:41:51.095Z</time></trkpt><trkpt lat="36.3297604" lon="-2.5827578"><ele>0.0</ele><time>2026-04-29T07:41:52.094Z</time></trkpt><trkpt lat="36.3297752" lon="-2.5826543"><ele>0.0</ele><time>2026-04-29T07:41:53.094Z</time></trkpt><trkpt lat="36.3297921" lon="-2.5825441"><ele>0.0</ele><time>2026-04-29T07:41:54.095Z</time></trkpt><trkpt lat="36.3298113" lon="-2.5824311"><ele>0.0</ele><time>2026-04-29T07:41:55.094Z</time></trkpt><trkpt lat="36.3298262" lon="-2.5823132"><ele>0.0</ele><time>2026-04-29T07:41:56.094Z</time></trkpt><trkpt lat="36.3298394" lon="-2.5821943"><ele>0.0</ele><time>2026-04-29T07:41:57.095Z</time></trkpt><trkpt lat="36.3298543" lon="-2.582082"><ele>0.0</ele><time>2026-04-29T07:41:58.094Z</time></trkpt><trkpt lat="36.3298737" lon="-2.5819706"><ele>0.0</ele><time>2026-04-29T07:41:59.095Z</time></trkpt><trkpt lat="36.3298968" lon="-2.5818579"><ele>0.0</ele><time>2026-04-29T07:42:00.095Z</time></trkpt><trkpt lat="36.3299149" lon="-2.5817519"><ele>0.0</ele><time>2026-04-29T07:42:01.094Z</time></trkpt><trkpt lat="36.3299313" lon="-2.5816443"><ele>0.0</ele><time>2026-04-29T07:42:02.095Z</time></trkpt><trkpt lat="36.3299453" lon="-2.5815379"><ele>0.0</ele><time>2026-04-29T07:42:03.094Z</time></trkpt><trkpt lat="36.3299587" lon="-2.5814256"><ele>0.0</ele><time>2026-04-29T07:42:04.095Z</time></trkpt><trkpt lat="36.3299733" lon="-2.5813172"><ele>0.0</ele><time>2026-04-29T07:42:05.095Z</time></trkpt><trkpt lat="36.3299843" lon="-2.5812098"><ele>0.0</ele><time>2026-04-29T07:42:06.094Z</time></trkpt><trkpt lat="36.3299955" lon="-2.5811046"><ele>0.0</ele><time>2026-04-29T07:42:07.095Z</time></trkpt><trkpt lat="36.3300097" lon="-2.5809964"><ele>0.0</ele><time>2026-04-29T07:42:08.095Z</time></trkpt><trkpt lat="36.3300236" lon="-2.5808895"><ele>0.0</ele><time>2026-04-29T07:42:09.095Z</time></trkpt><trkpt lat="36.3300398" lon="-2.5807803"><ele>0.0</ele><time>2026-04-29T07:42:10.095Z</time></trkpt><trkpt lat="36.3300714" lon="-2.5805611"><ele>0.0</ele><time>2026-04-29T07:42:12.095Z</time></trkpt><trkpt lat="36.330089" lon="-2.5804509"><ele>0.0</ele><time>2026-04-29T07:42:13.095Z</time></trkpt><trkpt lat="36.3300991" lon="-2.5803415"><ele>0.0</ele><time>2026-04-29T07:42:14.094Z</time></trkpt><trkpt lat="36.3301048" lon="-2.5802309"><ele>0.0</ele><time>2026-04-29T07:42:15.094Z</time></trkpt><trkpt lat="36.3301112" lon="-2.5801264"><ele>0.0</ele><time>2026-04-29T07:42:16.094Z</time></trkpt><trkpt lat="36.3301189" lon="-2.5800099"><ele>0.0</ele><time>2026-04-29T07:42:17.095Z</time></trkpt><trkpt lat="36.3301304" lon="-2.5798956"><ele>0.0</ele><time>2026-04-29T07:42:18.095Z</time></trkpt><trkpt lat="36.3301407" lon="-2.5797823"><ele>0.0</ele><time>2026-04-29T07:42:19.094Z</time></trkpt><trkpt lat="36.3301512" lon="-2.5796718"><ele>0.0</ele><time>2026-04-29T07:42:20.094Z</time></trkpt><trkpt lat="36.3301651" lon="-2.5795644"><ele>0.0</ele><time>2026-04-29T07:42:21.095Z</time></trkpt><trkpt lat="36.3301726" lon="-2.5794579"><ele>0.0</ele><time>2026-04-29T07:42:22.094Z</time></trkpt><trkpt lat="36.3301878" lon="-2.5793529"><ele>0.0</ele><time>2026-04-29T07:42:23.094Z</time></trkpt><trkpt lat="36.3302058" lon="-2.5792427"><ele>0.0</ele><time>2026-04-29T07:42:24.095Z</time></trkpt><trkpt lat="36.330224" lon="-2.5791335"><ele>0.0</ele><time>2026-04-29T07:42:25.095Z</time></trkpt><trkpt lat="36.3302414" lon="-2.5790264"><ele>0.0</ele><time>2026-04-29T07:42:26.094Z</time></trkpt><trkpt lat="36.3302585" lon="-2.5789157"><ele>0.0</ele><time>2026-04-29T07:42:27.094Z</time></trkpt><trkpt lat="36.3302752" lon="-2.5788059"><ele>0.0</ele><time>2026-04-29T07:42:28.094Z</time></trkpt><trkpt lat="36.3302918" lon="-2.5787009"><ele>0.0</ele><time>2026-04-29T07:42:29.095Z</time></trkpt><trkpt lat="36.3303029" lon="-2.5785967"><ele>0.0</ele><time>2026-04-29T07:42:30.095Z</time></trkpt><trkpt lat="36.3303106" lon="-2.5784885"><ele>0.0</ele><time>2026-04-29T07:42:31.094Z</time></trkpt><trkpt lat="36.3303325" lon="-2.5782702"><ele>0.0</ele><time>2026-04-29T07:42:33.094Z</time></trkpt><trkpt lat="36.3303506" lon="-2.5781621"><ele>0.0</ele><time>2026-04-29T07:42:34.094Z</time></trkpt><trkpt lat="36.3303739" lon="-2.5780501"><ele>0.0</ele><time>2026-04-29T07:42:35.094Z</time></trkpt><trkpt lat="36.3304018" lon="-2.5779408"><ele>0.0</ele><time>2026-04-29T07:42:36.094Z</time></trkpt><trkpt lat="36.3304174" lon="-2.5778322"><ele>0.0</ele><time>2026-04-29T07:42:37.094Z</time></trkpt><trkpt lat="36.3304278" lon="-2.5777265"><ele>0.0</ele><time>2026-04-29T07:42:38.094Z</time></trkpt><trkpt lat="36.3304344" lon="-2.5776253"><ele>0.0</ele><time>2026-04-29T07:42:39.095Z</time></trkpt><trkpt lat="36.3304424" lon="-2.5775224"><ele>0.0</ele><time>2026-04-29T07:42:40.095Z</time></trkpt><trkpt lat="36.3304543" lon="-2.577412"><ele>0.0</ele><time>2026-04-29T07:42:41.095Z</time></trkpt><trkpt lat="36.3304667" lon="-2.5773016"><ele>0.0</ele><time>2026-04-29T07:42:42.095Z</time></trkpt><trkpt lat="36.3304731" lon="-2.577193"><ele>0.0</ele><time>2026-04-29T07:42:43.094Z</time></trkpt><trkpt lat="36.3304791" lon="-2.5770852"><ele>0.0</ele><time>2026-04-29T07:42:44.094Z</time></trkpt><trkpt lat="36.3304925" lon="-2.5769755"><ele>0.0</ele><time>2026-04-29T07:42:45.094Z</time></trkpt><trkpt lat="36.3305106" lon="-2.5768696"><ele>0.0</ele><time>2026-04-29T07:42:46.095Z</time></trkpt><trkpt lat="36.3305216" lon="-2.576762"><ele>0.0</ele><time>2026-04-29T07:42:47.095Z</time></trkpt><trkpt lat="36.3305459" lon="-2.5766504"><ele>0.0</ele><time>2026-04-29T07:42:48.095Z</time></trkpt><trkpt lat="36.3305607" lon="-2.5765401"><ele>0.0</ele><time>2026-04-29T07:42:49.094Z</time></trkpt><trkpt lat="36.3305768" lon="-2.5764264"><ele>0.0</ele><time>2026-04-29T07:42:50.094Z</time></trkpt><trkpt lat="36.3305918" lon="-2.5763137"><ele>0.0</ele><time>2026-04-29T07:42:51.094Z</time></trkpt><trkpt lat="36.3306037" lon="-2.5762045"><ele>0.0</ele><time>2026-04-29T07:42:52.094Z</time></trkpt><trkpt lat="36.3306318" lon="-2.5759848"><ele>0.0</ele><time>2026-04-29T07:42:54.095Z</time></trkpt><trkpt lat="36.3306538" lon="-2.5758823"><ele>0.0</ele><time>2026-04-29T07:42:55.095Z</time></trkpt><trkpt lat="36.3306764" lon="-2.5757729"><ele>0.0</ele><time>2026-04-29T07:42:56.094Z</time></trkpt><trkpt lat="36.3306955" lon="-2.5756663"><ele>0.0</ele><time>2026-04-29T07:42:57.095Z</time></trkpt><trkpt lat="36.3307134" lon="-2.5755586"><ele>0.0</ele><time>2026-04-29T07:42:58.094Z</time></trkpt><trkpt lat="36.3307273" lon="-2.575447"><ele>0.0</ele><time>2026-04-29T07:42:59.094Z</time></trkpt><trkpt lat="36.3307434" lon="-2.5753414"><ele>0.0</ele><time>2026-04-29T07:43:00.094Z</time></trkpt><trkpt lat="36.3307643" lon="-2.5752334"><ele>0.0</ele><time>2026-04-29T07:43:01.094Z</time></trkpt><trkpt lat="36.3307861" lon="-2.5751248"><ele>0.0</ele><time>2026-04-29T07:43:02.094Z</time></trkpt><trkpt lat="36.3308022" lon="-2.5750053"><ele>0.0</ele><time>2026-04-29T07:43:03.095Z</time></trkpt><trkpt lat="36.3308091" lon="-2.5748923"><ele>0.0</ele><time>2026-04-29T07:43:04.094Z</time></trkpt><trkpt lat="36.3308219" lon="-2.5747808"><ele>0.0</ele><time>2026-04-29T07:43:05.095Z</time></trkpt><trkpt lat="36.3308384" lon="-2.5746705"><ele>0.0</ele><time>2026-04-29T07:43:06.095Z</time></trkpt><trkpt lat="36.3308525" lon="-2.5745628"><ele>0.0</ele><time>2026-04-29T07:43:07.094Z</time></trkpt><trkpt lat="36.3308645" lon="-2.5744507"><ele>0.0</ele><time>2026-04-29T07:43:08.095Z</time></trkpt><trkpt lat="36.3308763" lon="-2.5743429"><ele>0.0</ele><time>2026-04-29T07:43:09.094Z</time></trkpt><trkpt lat="36.3308881" lon="-2.5742396"><ele>0.0</ele><time>2026-04-29T07:43:10.094Z</time></trkpt><trkpt lat="36.3309084" lon="-2.5741335"><ele>0.0</ele><time>2026-04-29T07:43:11.095Z</time></trkpt><trkpt lat="36.330926" lon="-2.574025"><ele>0.0</ele><time>2026-04-29T07:43:12.094Z</time></trkpt><trkpt lat="36.3309424" lon="-2.5739151"><ele>0.0</ele><time>2026-04-29T07:43:13.094Z</time></trkpt><trkpt lat="36.3309608" lon="-2.5736982"><ele>0.0</ele><time>2026-04-29T07:43:15.094Z</time></trkpt><trkpt lat="36.3309681" lon="-2.5735857"><ele>0.0</ele><time>2026-04-29T07:43:16.094Z</time></trkpt><trkpt lat="36.330973" lon="-2.5734737"><ele>0.0</ele><time>2026-04-29T07:43:17.094Z</time></trkpt><trkpt lat="36.3309477" lon="-2.5733619"><ele>0.0</ele><time>2026-04-29T07:43:18.094Z</time></trkpt><trkpt lat="36.3309288" lon="-2.5732531"><ele>0.0</ele><time>2026-04-29T07:43:19.095Z</time></trkpt><trkpt lat="36.3309202" lon="-2.5731405"><ele>0.0</ele><time>2026-04-29T07:43:20.094Z</time></trkpt><trkpt lat="36.3309121" lon="-2.5730269"><ele>0.0</ele><time>2026-04-29T07:43:21.094Z</time></trkpt><trkpt lat="36.3309052" lon="-2.5729165"><ele>0.0</ele><time>2026-04-29T07:43:22.094Z</time></trkpt><trkpt lat="36.3309198" lon="-2.5728057"><ele>0.0</ele><time>2026-04-29T07:43:23.095Z</time></trkpt><trkpt lat="36.3309485" lon="-2.5726924"><ele>0.0</ele><time>2026-04-29T07:43:24.094Z</time></trkpt><trkpt lat="36.3309661" lon="-2.57258"><ele>0.0</ele><time>2026-04-29T07:43:25.094Z</time></trkpt><trkpt lat="36.330985" lon="-2.5724717"><ele>0.0</ele><time>2026-04-29T07:43:26.094Z</time></trkpt><trkpt lat="36.331008" lon="-2.572365"><ele>0.0</ele><time>2026-04-29T07:43:27.095Z</time></trkpt><trkpt lat="36.3310343" lon="-2.5722572"><ele>0.0</ele><time>2026-04-29T07:43:28.094Z</time></trkpt><trkpt lat="36.3310667" lon="-2.5721486"><ele>0.0</ele><time>2026-04-29T07:43:29.094Z</time></trkpt><trkpt lat="36.3310888" lon="-2.5720357"><ele>0.0</ele><time>2026-04-29T07:43:30.095Z</time></trkpt><trkpt lat="36.3311206" lon="-2.5719236"><ele>0.0</ele><time>2026-04-29T07:43:31.094Z</time></trkpt><trkpt lat="36.3311441" lon="-2.5718134"><ele>0.0</ele><time>2026-04-29T07:43:32.095Z</time></trkpt><trkpt lat="36.3311653" lon="-2.5716989"><ele>0.0</ele><time>2026-04-29T07:43:33.095Z</time></trkpt><trkpt lat="36.3311756" lon="-2.5715941"><ele>0.0</ele><time>2026-04-29T07:43:34.095Z</time></trkpt><trkpt lat="36.3312053" lon="-2.5713822"><ele>0.0</ele><time>2026-04-29T07:43:36.095Z</time></trkpt><trkpt lat="36.3312135" lon="-2.5712719"><ele>0.0</ele><time>2026-04-29T07:43:37.094Z</time></trkpt><trkpt lat="36.3312243" lon="-2.5711638"><ele>0.0</ele><time>2026-04-29T07:43:38.095Z</time></trkpt><trkpt lat="36.3312429" lon="-2.5710572"><ele>0.0</ele><time>2026-04-29T07:43:39.094Z</time></trkpt><trkpt lat="36.3312604" lon="-2.5709515"><ele>0.0</ele><time>2026-04-29T07:43:40.094Z</time></trkpt><trkpt lat="36.3312875" lon="-2.5708431"><ele>0.0</ele><time>2026-04-29T07:43:41.095Z</time></trkpt><trkpt lat="36.3313024" lon="-2.5707338"><ele>0.0</ele><time>2026-04-29T07:43:42.095Z</time></trkpt><trkpt lat="36.3313162" lon="-2.5706182"><ele>0.0</ele><time>2026-04-29T07:43:43.094Z</time></trkpt><trkpt lat="36.3313363" lon="-2.5704993"><ele>0.0</ele><time>2026-04-29T07:43:44.095Z</time></trkpt><trkpt lat="36.3313565" lon="-2.5703868"><ele>0.0</ele><time>2026-04-29T07:43:45.095Z</time></trkpt><trkpt lat="36.3313655" lon="-2.5702771"><ele>0.0</ele><time>2026-04-29T07:43:46.094Z</time></trkpt><trkpt lat="36.3313761" lon="-2.5701615"><ele>0.0</ele><time>2026-04-29T07:43:47.094Z</time></trkpt><trkpt lat="36.3313846" lon="-2.5700471"><ele>0.0</ele><time>2026-04-29T07:43:48.094Z</time></trkpt><trkpt lat="36.3314028" lon="-2.5699413"><ele>0.0</ele><time>2026-04-29T07:43:49.095Z</time></trkpt><trkpt lat="36.3314156" lon="-2.569838"><ele>0.0</ele><time>2026-04-29T07:43:50.095Z</time></trkpt><trkpt lat="36.3314373" lon="-2.5697335"><ele>0.0</ele><time>2026-04-29T07:43:51.094Z</time></trkpt><trkpt lat="36.3314536" lon="-2.5696224"><ele>0.0</ele><time>2026-04-29T07:43:52.094Z</time></trkpt><trkpt lat="36.331473" lon="-2.569513"><ele>0.0</ele><time>2026-04-29T07:43:53.095Z</time></trkpt><trkpt lat="36.3314905" lon="-2.5694089"><ele>0.0</ele><time>2026-04-29T07:43:54.094Z</time></trkpt><trkpt lat="36.3315084" lon="-2.5693029"><ele>0.0</ele><time>2026-04-29T07:43:55.094Z</time></trkpt><trkpt lat="36.3315186" lon="-2.5690964"><ele>0.0</ele><time>2026-04-29T07:43:57.095Z</time></trkpt><trkpt lat="36.3315283" lon="-2.5689923"><ele>0.0</ele><time>2026-04-29T07:43:58.094Z</time></trkpt><trkpt lat="36.3315425" lon="-2.5688874"><ele>0.0</ele><time>2026-04-29T07:43:59.095Z</time></trkpt><trkpt lat="36.3315564" lon="-2.5687853"><ele>0.0</ele><time>2026-04-29T07:44:00.095Z</time></trkpt><trkpt lat="36.3315644" lon="-2.5686775"><ele>0.0</ele><time>2026-04-29T07:44:01.095Z</time></trkpt><trkpt lat="36.3315767" lon="-2.5685727"><ele>0.0</ele><time>2026-04-29T07:44:02.094Z</time></trkpt><trkpt lat="36.331589" lon="-2.5684638"><ele>0.0</ele><time>2026-04-29T07:44:03.094Z</time></trkpt><trkpt lat="36.3316027" lon="-2.5683568"><ele>0.0</ele><time>2026-04-29T07:44:04.094Z</time></trkpt><trkpt lat="36.3316074" lon="-2.5682486"><ele>0.0</ele><time>2026-04-29T07:44:05.095Z</time></trkpt><trkpt lat="36.3316176" lon="-2.5681421"><ele>0.0</ele><time>2026-04-29T07:44:06.095Z</time></trkpt><trkpt lat="36.3316308" lon="-2.5680397"><ele>0.0</ele><time>2026-04-29T07:44:07.095Z</time></trkpt><trkpt lat="36.331644" lon="-2.5679327"><ele>0.0</ele><time>2026-04-29T07:44:08.095Z</time></trkpt><trkpt lat="36.3316521" lon="-2.5678208"><ele>0.0</ele><time>2026-04-29T07:44:09.094Z</time></trkpt><trkpt lat="36.3316601" lon="-2.5677088"><ele>0.0</ele><time>2026-04-29T07:44:10.095Z</time></trkpt><trkpt lat="36.3316749" lon="-2.5676042"><ele>0.0</ele><time>2026-04-29T07:44:11.094Z</time></trkpt><trkpt lat="36.3316885" lon="-2.5674985"><ele>0.0</ele><time>2026-04-29T07:44:12.094Z</time></trkpt><trkpt lat="36.3317046" lon="-2.5673875"><ele>0.0</ele><time>2026-04-29T07:44:13.095Z</time></trkpt><trkpt lat="36.3317172" lon="-2.5672779"><ele>0.0</ele><time>2026-04-29T07:44:14.094Z</time></trkpt><trkpt lat="36.3317301" lon="-2.5671699"><ele>0.0</ele><time>2026-04-29T07:44:15.094Z</time></trkpt><trkpt lat="36.3317373" lon="-2.5670634"><ele>0.0</ele><time>2026-04-29T07:44:16.094Z</time></trkpt><trkpt lat="36.3317696" lon="-2.5668453"><ele>0.0</ele><time>2026-04-29T07:44:18.094Z</time></trkpt><trkpt lat="36.3317786" lon="-2.5667383"><ele>0.0</ele><time>2026-04-29T07:44:19.094Z</time></trkpt><trkpt lat="36.3317913" lon="-2.5666306"><ele>0.0</ele><time>2026-04-29T07:44:20.094Z</time></trkpt><trkpt lat="36.331795" lon="-2.5665207"><ele>0.0</ele><time>2026-04-29T07:44:21.094Z</time></trkpt><trkpt lat="36.3318126" lon="-2.5664166"><ele>0.0</ele><time>2026-04-29T07:44:22.095Z</time></trkpt><trkpt lat="36.3318366" lon="-2.5663049"><ele>0.0</ele><time>2026-04-29T07:44:23.094Z</time></trkpt><trkpt lat="36.3318631" lon="-2.5661909"><ele>0.0</ele><time>2026-04-29T07:44:24.094Z</time></trkpt><trkpt lat="36.3318886" lon="-2.5660771"><ele>0.0</ele><time>2026-04-29T07:44:25.094Z</time></trkpt><trkpt lat="36.3319208" lon="-2.5659606"><ele>0.0</ele><time>2026-04-29T07:44:26.094Z</time></trkpt><trkpt lat="36.3319346" lon="-2.5658491"><ele>0.0</ele><time>2026-04-29T07:44:27.095Z</time></trkpt><trkpt lat="36.331946" lon="-2.5657371"><ele>0.0</ele><time>2026-04-29T07:44:28.094Z</time></trkpt><trkpt lat="36.331966" lon="-2.5656296"><ele>0.0</ele><time>2026-04-29T07:44:29.094Z</time></trkpt><trkpt lat="36.3319781" lon="-2.5655215"><ele>0.0</ele><time>2026-04-29T07:44:30.095Z</time></trkpt><trkpt lat="36.3319923" lon="-2.5654116"><ele>0.0</ele><time>2026-04-29T07:44:31.094Z</time></trkpt><trkpt lat="36.3320055" lon="-2.5652986"><ele>0.0</ele><time>2026-04-29T07:44:32.095Z</time></trkpt><trkpt lat="36.3320148" lon="-2.5651907"><ele>0.0</ele><time>2026-04-29T07:44:33.094Z</time></trkpt><trkpt lat="36.3320237" lon="-2.5650864"><ele>0.0</ele><time>2026-04-29T07:44:34.095Z</time></trkpt><trkpt lat="36.3320408" lon="-2.5649773"><ele>0.0</ele><time>2026-04-29T07:44:35.094Z</time></trkpt><trkpt lat="36.3320531" lon="-2.5648611"><ele>0.0</ele><time>2026-04-29T07:44:36.094Z</time></trkpt><trkpt lat="36.3320649" lon="-2.564746"><ele>0.0</ele><time>2026-04-29T07:44:37.094Z</time></trkpt><trkpt lat="36.33211" lon="-2.5645182"><ele>0.0</ele><time>2026-04-29T07:44:39.094Z</time></trkpt><trkpt lat="36.332131" lon="-2.5644095"><ele>0.0</ele><time>2026-04-29T07:44:40.094Z</time></trkpt><trkpt lat="36.3321481" lon="-2.5643071"><ele>0.0</ele><time>2026-04-29T07:44:41.094Z</time></trkpt><trkpt lat="36.3321647" lon="-2.5642044"><ele>0.0</ele><time>2026-04-29T07:44:42.095Z</time></trkpt><trkpt lat="36.3321828" lon="-2.564094"><ele>0.0</ele><time>2026-04-29T07:44:43.094Z</time></trkpt><trkpt lat="36.332204" lon="-2.5639838"><ele>0.0</ele><time>2026-04-29T07:44:44.095Z</time></trkpt><trkpt lat="36.3322243" lon="-2.5638741"><ele>0.0</ele><time>2026-04-29T07:44:45.095Z</time></trkpt><trkpt lat="36.3322568" lon="-2.5637582"><ele>0.0</ele><time>2026-04-29T07:44:46.094Z</time></trkpt><trkpt lat="36.3322752" lon="-2.5636431"><ele>0.0</ele><time>2026-04-29T07:44:47.095Z</time></trkpt><trkpt lat="36.3322834" lon="-2.563533"><ele>0.0</ele><time>2026-04-29T07:44:48.094Z</time></trkpt><trkpt lat="36.3322997" lon="-2.5634269"><ele>0.0</ele><time>2026-04-29T07:44:49.094Z</time></trkpt><trkpt lat="36.3323135" lon="-2.5633173"><ele>0.0</ele><time>2026-04-29T07:44:50.094Z</time></trkpt><trkpt lat="36.3323268" lon="-2.5632083"><ele>0.0</ele><time>2026-04-29T07:44:51.095Z</time></trkpt><trkpt lat="36.3323334" lon="-2.5631032"><ele>0.0</ele><time>2026-04-29T07:44:52.094Z</time></trkpt><trkpt lat="36.3323451" lon="-2.5629952"><ele>0.0</ele><time>2026-04-29T07:44:53.095Z</time></trkpt><trkpt lat="36.3323615" lon="-2.5628884"><ele>0.0</ele><time>2026-04-29T07:44:54.095Z</time></trkpt><trkpt lat="36.3323727" lon="-2.5627816"><ele>0.0</ele><time>2026-04-29T07:44:55.094Z</time></trkpt><trkpt lat="36.3323822" lon="-2.5626778"><ele>0.0</ele><time>2026-04-29T07:44:56.094Z</time></trkpt><trkpt lat="36.3323934" lon="-2.5625762"><ele>0.0</ele><time>2026-04-29T07:44:57.094Z</time></trkpt><trkpt lat="36.3323864" lon="-2.5624616"><ele>0.0</ele><time>2026-04-29T07:44:58.095Z</time></trkpt><trkpt lat="36.3324267" lon="-2.5622431"><ele>0.0</ele><time>2026-04-29T07:45:00.094Z</time></trkpt><trkpt lat="36.3324479" lon="-2.5621372"><ele>0.0</ele><time>2026-04-29T07:45:01.094Z</time></trkpt><trkpt lat="36.332469" lon="-2.562033"><ele>0.0</ele><time>2026-04-29T07:45:02.094Z</time></trkpt><trkpt lat="36.3324855" lon="-2.5619266"><ele>0.0</ele><time>2026-04-29T07:45:03.094Z</time></trkpt><trkpt lat="36.3325002" lon="-2.5618152"><ele>0.0</ele><time>2026-04-29T07:45:04.095Z</time></trkpt><trkpt lat="36.3325208" lon="-2.5617086"><ele>0.0</ele><time>2026-04-29T07:45:05.094Z</time></trkpt><trkpt lat="36.3325375" lon="-2.5615987"><ele>0.0</ele><time>2026-04-29T07:45:06.095Z</time></trkpt><trkpt lat="36.3325493" lon="-2.5614929"><ele>0.0</ele><time>2026-04-29T07:45:07.093Z</time></trkpt><trkpt lat="36.3325509" lon="-2.5613827"><ele>0.0</ele><time>2026-04-29T07:45:08.093Z</time></trkpt><trkpt lat="36.3325619" lon="-2.5612709"><ele>0.0</ele><time>2026-04-29T07:45:09.093Z</time></trkpt><trkpt lat="36.3325621" lon="-2.561162"><ele>0.0</ele><time>2026-04-29T07:45:10.094Z</time></trkpt><trkpt lat="36.3325714" lon="-2.5610551"><ele>0.0</ele><time>2026-04-29T07:45:11.093Z</time></trkpt><trkpt lat="36.3325872" lon="-2.5609468"><ele>0.0</ele><time>2026-04-29T07:45:12.094Z</time></trkpt><trkpt lat="36.3325973" lon="-2.5608298"><ele>0.0</ele><time>2026-04-29T07:45:13.094Z</time></trkpt><trkpt lat="36.3326119" lon="-2.5607154"><ele>0.0</ele><time>2026-04-29T07:45:14.094Z</time></trkpt><trkpt lat="36.3326186" lon="-2.5606021"><ele>0.0</ele><time>2026-04-29T07:45:15.093Z</time></trkpt><trkpt lat="36.3326261" lon="-2.5604906"><ele>0.0</ele><time>2026-04-29T07:45:16.094Z</time></trkpt><trkpt lat="36.3326315" lon="-2.5603758"><ele>0.0</ele><time>2026-04-29T07:45:17.094Z</time></trkpt><trkpt lat="36.3326515" lon="-2.5602665"><ele>0.0</ele><time>2026-04-29T07:45:18.093Z</time></trkpt><trkpt lat="36.3326692" lon="-2.5601573"><ele>0.0</ele><time>2026-04-29T07:45:19.094Z</time></trkpt><trkpt lat="36.3326799" lon="-2.5599412"><ele>0.0</ele><time>2026-04-29T07:45:21.094Z</time></trkpt><trkpt lat="36.3326842" lon="-2.5598303"><ele>0.0</ele><time>2026-04-29T07:45:22.093Z</time></trkpt><trkpt lat="36.3326936" lon="-2.5597188"><ele>0.0</ele><time>2026-04-29T07:45:23.094Z</time></trkpt><trkpt lat="36.3327013" lon="-2.5596099"><ele>0.0</ele><time>2026-04-29T07:45:24.094Z</time></trkpt><trkpt lat="36.332719" lon="-2.5595006"><ele>0.0</ele><time>2026-04-29T07:45:25.093Z</time></trkpt><trkpt lat="36.3327384" lon="-2.5593903"><ele>0.0</ele><time>2026-04-29T07:45:26.094Z</time></trkpt><trkpt lat="36.3327568" lon="-2.5592816"><ele>0.0</ele><time>2026-04-29T07:45:27.093Z</time></trkpt><trkpt lat="36.3327733" lon="-2.5591719"><ele>0.0</ele><time>2026-04-29T07:45:28.093Z</time></trkpt><trkpt lat="36.3327893" lon="-2.5590639"><ele>0.0</ele><time>2026-04-29T07:45:29.093Z</time></trkpt><trkpt lat="36.3328049" lon="-2.5589557"><ele>0.0</ele><time>2026-04-29T07:45:30.094Z</time></trkpt><trkpt lat="36.3328218" lon="-2.5588452"><ele>0.0</ele><time>2026-04-29T07:45:31.093Z</time></trkpt><trkpt lat="36.3328331" lon="-2.5587412"><ele>0.0</ele><time>2026-04-29T07:45:32.093Z</time></trkpt><trkpt lat="36.3328497" lon="-2.5586367"><ele>0.0</ele><time>2026-04-29T07:45:33.094Z</time></trkpt><trkpt lat="36.3328579" lon="-2.5585243"><ele>0.0</ele><time>2026-04-29T07:45:34.093Z</time></trkpt><trkpt lat="36.3328691" lon="-2.5584122"><ele>0.0</ele><time>2026-04-29T07:45:35.093Z</time></trkpt><trkpt lat="36.3328849" lon="-2.5583008"><ele>0.0</ele><time>2026-04-29T07:45:36.094Z</time></trkpt><trkpt lat="36.3329063" lon="-2.5581911"><ele>0.0</ele><time>2026-04-29T07:45:37.094Z</time></trkpt><trkpt lat="36.3329009" lon="-2.5580802"><ele>0.0</ele><time>2026-04-29T07:45:38.093Z</time></trkpt><trkpt lat="36.3329111" lon="-2.5579728"><ele>0.0</ele><time>2026-04-29T07:45:39.093Z</time></trkpt><trkpt lat="36.3329246" lon="-2.5578645"><ele>0.0</ele><time>2026-04-29T07:45:40.093Z</time></trkpt><trkpt lat="36.3329341" lon="-2.5576536"><ele>0.0</ele><time>2026-04-29T07:45:42.094Z</time></trkpt><trkpt lat="36.3329418" lon="-2.5575425"><ele>0.0</ele><time>2026-04-29T07:45:43.094Z</time></trkpt><trkpt lat="36.3329524" lon="-2.5574293"><ele>0.0</ele><time>2026-04-29T07:45:44.093Z</time></trkpt><trkpt lat="36.3329607" lon="-2.5573175"><ele>0.0</ele><time>2026-04-29T07:45:45.093Z</time></trkpt><trkpt lat="36.3329749" lon="-2.5572056"><ele>0.0</ele><time>2026-04-29T07:45:46.094Z</time></trkpt><trkpt lat="36.3329845" lon="-2.5570942"><ele>0.0</ele><time>2026-04-29T07:45:47.093Z</time></trkpt><trkpt lat="36.3329974" lon="-2.556985"><ele>0.0</ele><time>2026-04-29T07:45:48.094Z</time></trkpt><trkpt lat="36.333006" lon="-2.556877"><ele>0.0</ele><time>2026-04-29T07:45:49.093Z</time></trkpt><trkpt lat="36.3330192" lon="-2.5567757"><ele>0.0</ele><time>2026-04-29T07:45:50.094Z</time></trkpt><trkpt lat="36.3330393" lon="-2.5566722"><ele>0.0</ele><time>2026-04-29T07:45:51.093Z</time></trkpt><trkpt lat="36.3330598" lon="-2.5565669"><ele>0.0</ele><time>2026-04-29T07:45:52.093Z</time></trkpt><trkpt lat="36.3330756" lon="-2.5564601"><ele>0.0</ele><time>2026-04-29T07:45:53.094Z</time></trkpt><trkpt lat="36.3330916" lon="-2.5563548"><ele>0.0</ele><time>2026-04-29T07:45:54.093Z</time></trkpt><trkpt lat="36.3331124" lon="-2.5562472"><ele>0.0</ele><time>2026-04-29T07:45:55.093Z</time></trkpt><trkpt lat="36.333132" lon="-2.5561371"><ele>0.0</ele><time>2026-04-29T07:45:56.094Z</time></trkpt><trkpt lat="36.3331491" lon="-2.5560287"><ele>0.0</ele><time>2026-04-29T07:45:57.094Z</time></trkpt><trkpt lat="36.3331713" lon="-2.5559219"><ele>0.0</ele><time>2026-04-29T07:45:58.094Z</time></trkpt><trkpt lat="36.3332" lon="-2.5558096"><ele>0.0</ele><time>2026-04-29T07:45:59.093Z</time></trkpt><trkpt lat="36.3332204" lon="-2.5556951"><ele>0.0</ele><time>2026-04-29T07:46:00.093Z</time></trkpt><trkpt lat="36.3332399" lon="-2.5555878"><ele>0.0</ele><time>2026-04-29T07:46:01.093Z</time></trkpt><trkpt lat="36.333288" lon="-2.555377"><ele>0.0</ele><time>2026-04-29T07:46:03.094Z</time></trkpt><trkpt lat="36.3333054" lon="-2.5552673"><ele>0.0</ele><time>2026-04-29T07:46:04.094Z</time></trkpt><trkpt lat="36.333323" lon="-2.5551596"><ele>0.0</ele><time>2026-04-29T07:46:05.094Z</time></trkpt><trkpt lat="36.3333428" lon="-2.5550559"><ele>0.0</ele><time>2026-04-29T07:46:06.094Z</time></trkpt><trkpt lat="36.3333546" lon="-2.5549545"><ele>0.0</ele><time>2026-04-29T07:46:07.093Z</time></trkpt><trkpt lat="36.3333675" lon="-2.5548551"><ele>0.0</ele><time>2026-04-29T07:46:08.094Z</time></trkpt><trkpt lat="36.3333792" lon="-2.5547523"><ele>0.0</ele><time>2026-04-29T07:46:09.093Z</time></trkpt><trkpt lat="36.3333932" lon="-2.5546441"><ele>0.0</ele><time>2026-04-29T07:46:10.094Z</time></trkpt><trkpt lat="36.3334083" lon="-2.5545372"><ele>0.0</ele><time>2026-04-29T07:46:11.093Z</time></trkpt><trkpt lat="36.333432" lon="-2.5544246"><ele>0.0</ele><time>2026-04-29T07:46:12.093Z</time></trkpt><trkpt lat="36.3334502" lon="-2.5543126"><ele>0.0</ele><time>2026-04-29T07:46:13.093Z</time></trkpt><trkpt lat="36.3334669" lon="-2.5542004"><ele>0.0</ele><time>2026-04-29T07:46:14.094Z</time></trkpt><trkpt lat="36.3334851" lon="-2.5540888"><ele>0.0</ele><time>2026-04-29T07:46:15.094Z</time></trkpt><trkpt lat="36.3335036" lon="-2.5539773"><ele>0.0</ele><time>2026-04-29T07:46:16.093Z</time></trkpt><trkpt lat="36.3335231" lon="-2.553867"><ele>0.0</ele><time>2026-04-29T07:46:17.094Z</time></trkpt><trkpt lat="36.3335335" lon="-2.5537538"><ele>0.0</ele><time>2026-04-29T07:46:18.093Z</time></trkpt><trkpt lat="36.3335458" lon="-2.5536438"><ele>0.0</ele><time>2026-04-29T07:46:19.094Z</time></trkpt><trkpt lat="36.33356" lon="-2.5535319"><ele>0.0</ele><time>2026-04-29T07:46:20.093Z</time></trkpt><trkpt lat="36.3335719" lon="-2.5534201"><ele>0.0</ele><time>2026-04-29T07:46:21.093Z</time></trkpt><trkpt lat="36.333587" lon="-2.5533072"><ele>0.0</ele><time>2026-04-29T07:46:22.094Z</time></trkpt><trkpt lat="36.3336315" lon="-2.5530932"><ele>0.0</ele><time>2026-04-29T07:46:24.094Z</time></trkpt><trkpt lat="36.3336473" lon="-2.5529882"><ele>0.0</ele><time>2026-04-29T07:46:25.094Z</time></trkpt><trkpt lat="36.3336631" lon="-2.5528791"><ele>0.0</ele><time>2026-04-29T07:46:26.094Z</time></trkpt><trkpt lat="36.3336694" lon="-2.5527686"><ele>0.0</ele><time>2026-04-29T07:46:27.094Z</time></trkpt><trkpt lat="36.3336809" lon="-2.5526626"><ele>0.0</ele><time>2026-04-29T07:46:28.093Z</time></trkpt><trkpt lat="36.3336931" lon="-2.5525601"><ele>0.0</ele><time>2026-04-29T07:46:29.094Z</time></trkpt><trkpt lat="36.3337139" lon="-2.5524494"><ele>0.0</ele><time>2026-04-29T07:46:30.093Z</time></trkpt><trkpt lat="36.3337319" lon="-2.5523353"><ele>0.0</ele><time>2026-04-29T07:46:31.094Z</time></trkpt><trkpt lat="36.333757" lon="-2.5522292"><ele>0.0</ele><time>2026-04-29T07:46:32.093Z</time></trkpt><trkpt lat="36.3337672" lon="-2.5521187"><ele>0.0</ele><time>2026-04-29T07:46:33.093Z</time></trkpt><trkpt lat="36.3337748" lon="-2.5520068"><ele>0.0</ele><time>2026-04-29T07:46:34.094Z</time></trkpt><trkpt lat="36.3337852" lon="-2.5518934"><ele>0.0</ele><time>2026-04-29T07:46:35.093Z</time></trkpt><trkpt lat="36.3338029" lon="-2.5517849"><ele>0.0</ele><time>2026-04-29T07:46:36.093Z</time></trkpt><trkpt lat="36.333821" lon="-2.5516768"><ele>0.0</ele><time>2026-04-29T07:46:37.093Z</time></trkpt><trkpt lat="36.333834" lon="-2.5515704"><ele>0.0</ele><time>2026-04-29T07:46:38.093Z</time></trkpt><trkpt lat="36.3338455" lon="-2.5514603"><ele>0.0</ele><time>2026-04-29T07:46:39.094Z</time></trkpt><trkpt lat="36.3338576" lon="-2.5513487"><ele>0.0</ele><time>2026-04-29T07:46:40.094Z</time></trkpt><trkpt lat="36.3338679" lon="-2.5512371"><ele>0.0</ele><time>2026-04-29T07:46:41.093Z</time></trkpt><trkpt lat="36.3338734" lon="-2.5511284"><ele>0.0</ele><time>2026-04-29T07:46:42.093Z</time></trkpt><trkpt lat="36.333878" lon="-2.5510175"><ele>0.0</ele><time>2026-04-29T07:46:43.094Z</time></trkpt><trkpt lat="36.3339051" lon="-2.5508018"><ele>0.0</ele><time>2026-04-29T07:46:45.093Z</time></trkpt><trkpt lat="36.3339188" lon="-2.550695"><ele>0.0</ele><time>2026-04-29T07:46:46.093Z</time></trkpt><trkpt lat="36.3339266" lon="-2.550588"><ele>0.0</ele><time>2026-04-29T07:46:47.093Z</time></trkpt><trkpt lat="36.3339418" lon="-2.5504801"><ele>0.0</ele><time>2026-04-29T07:46:48.094Z</time></trkpt><trkpt lat="36.3339613" lon="-2.5503729"><ele>0.0</ele><time>2026-04-29T07:46:49.093Z</time></trkpt><trkpt lat="36.3339802" lon="-2.5502648"><ele>0.0</ele><time>2026-04-29T07:46:50.093Z</time></trkpt><trkpt lat="36.3339945" lon="-2.5501554"><ele>0.0</ele><time>2026-04-29T07:46:51.094Z</time></trkpt><trkpt lat="36.334006" lon="-2.5500454"><ele>0.0</ele><time>2026-04-29T07:46:52.093Z</time></trkpt><trkpt lat="36.3340224" lon="-2.5499383"><ele>0.0</ele><time>2026-04-29T07:46:53.093Z</time></trkpt><trkpt lat="36.3340384" lon="-2.5498361"><ele>0.0</ele><time>2026-04-29T07:46:54.093Z</time></trkpt><trkpt lat="36.3340509" lon="-2.5497287"><ele>0.0</ele><time>2026-04-29T07:46:55.093Z</time></trkpt><trkpt lat="36.3340571" lon="-2.5496205"><ele>0.0</ele><time>2026-04-29T07:46:56.093Z</time></trkpt><trkpt lat="36.3340671" lon="-2.549509"><ele>0.0</ele><time>2026-04-29T07:46:57.093Z</time></trkpt><trkpt lat="36.3340733" lon="-2.5493984"><ele>0.0</ele><time>2026-04-29T07:46:58.094Z</time></trkpt><trkpt lat="36.3340842" lon="-2.5492843"><ele>0.0</ele><time>2026-04-29T07:46:59.094Z</time></trkpt><trkpt lat="36.3340962" lon="-2.5491721"><ele>0.0</ele><time>2026-04-29T07:47:00.093Z</time></trkpt><trkpt lat="36.3341068" lon="-2.5490627"><ele>0.0</ele><time>2026-04-29T07:47:01.093Z</time></trkpt><trkpt lat="36.3341171" lon="-2.5489605"><ele>0.0</ele><time>2026-04-29T07:47:02.094Z</time></trkpt><trkpt lat="36.3341303" lon="-2.5488522"><ele>0.0</ele><time>2026-04-29T07:47:03.094Z</time></trkpt><trkpt lat="36.3341423" lon="-2.5487425"><ele>0.0</ele><time>2026-04-29T07:47:04.094Z</time></trkpt><trkpt lat="36.3341625" lon="-2.5485233"><ele>0.0</ele><time>2026-04-29T07:47:06.093Z</time></trkpt><trkpt lat="36.3341739" lon="-2.5484151"><ele>0.0</ele><time>2026-04-29T07:47:07.093Z</time></trkpt><trkpt lat="36.3341822" lon="-2.5483079"><ele>0.0</ele><time>2026-04-29T07:47:08.093Z</time></trkpt><trkpt lat="36.3341924" lon="-2.5482093"><ele>0.0</ele><time>2026-04-29T07:47:09.094Z</time></trkpt><trkpt lat="36.3341979" lon="-2.5481044"><ele>0.0</ele><time>2026-04-29T07:47:10.093Z</time></trkpt><trkpt lat="36.3342084" lon="-2.5479925"><ele>0.0</ele><time>2026-04-29T07:47:11.093Z</time></trkpt><trkpt lat="36.3342231" lon="-2.5478802"><ele>0.0</ele><time>2026-04-29T07:47:12.093Z</time></trkpt><trkpt lat="36.3342422" lon="-2.5477732"><ele>0.0</ele><time>2026-04-29T07:47:13.093Z</time></trkpt><trkpt lat="36.3342486" lon="-2.5476595"><ele>0.0</ele><time>2026-04-29T07:47:14.093Z</time></trkpt><trkpt lat="36.3342531" lon="-2.5475499"><ele>0.0</ele><time>2026-04-29T07:47:15.094Z</time></trkpt><trkpt lat="36.3342649" lon="-2.5474416"><ele>0.0</ele><time>2026-04-29T07:47:16.094Z</time></trkpt><trkpt lat="36.3342774" lon="-2.5473306"><ele>0.0</ele><time>2026-04-29T07:47:17.093Z</time></trkpt><trkpt lat="36.3342862" lon="-2.54722"><ele>0.0</ele><time>2026-04-29T07:47:18.093Z</time></trkpt><trkpt lat="36.3342974" lon="-2.5471117"><ele>0.0</ele><time>2026-04-29T07:47:19.094Z</time></trkpt><trkpt lat="36.3343076" lon="-2.5470033"><ele>0.0</ele><time>2026-04-29T07:47:20.094Z</time></trkpt><trkpt lat="36.3343121" lon="-2.5469009"><ele>0.0</ele><time>2026-04-29T07:47:21.094Z</time></trkpt><trkpt lat="36.3343204" lon="-2.5467981"><ele>0.0</ele><time>2026-04-29T07:47:22.094Z</time></trkpt><trkpt lat="36.334341" lon="-2.5466962"><ele>0.0</ele><time>2026-04-29T07:47:23.093Z</time></trkpt><trkpt lat="36.3343448" lon="-2.5465965"><ele>0.0</ele><time>2026-04-29T07:47:24.094Z</time></trkpt><trkpt lat="36.3343567" lon="-2.5464956"><ele>0.0</ele><time>2026-04-29T07:47:25.094Z</time></trkpt><trkpt lat="36.3343798" lon="-2.5462848"><ele>0.0</ele><time>2026-04-29T07:47:27.094Z</time></trkpt><trkpt lat="36.3343962" lon="-2.5461768"><ele>0.0</ele><time>2026-04-29T07:47:28.093Z</time></trkpt><trkpt lat="36.3344157" lon="-2.5460688"><ele>0.0</ele><time>2026-04-29T07:47:29.094Z</time></trkpt><trkpt lat="36.334432" lon="-2.5459618"><ele>0.0</ele><time>2026-04-29T07:47:30.093Z</time></trkpt><trkpt lat="36.3344555" lon="-2.5458506"><ele>0.0</ele><time>2026-04-29T07:47:31.094Z</time></trkpt><trkpt lat="36.3344664" lon="-2.5457428"><ele>0.0</ele><time>2026-04-29T07:47:32.093Z</time></trkpt><trkpt lat="36.3344757" lon="-2.5456371"><ele>0.0</ele><time>2026-04-29T07:47:33.093Z</time></trkpt><trkpt lat="36.3344902" lon="-2.5455266"><ele>0.0</ele><time>2026-04-29T07:47:34.094Z</time></trkpt><trkpt lat="36.3345054" lon="-2.5454237"><ele>0.0</ele><time>2026-04-29T07:47:35.093Z</time></trkpt><trkpt lat="36.3345264" lon="-2.5453154"><ele>0.0</ele><time>2026-04-29T07:47:36.093Z</time></trkpt><trkpt lat="36.3345438" lon="-2.5452035"><ele>0.0</ele><time>2026-04-29T07:47:37.093Z</time></trkpt><trkpt lat="36.3345614" lon="-2.5450949"><ele>0.0</ele><time>2026-04-29T07:47:38.093Z</time></trkpt><trkpt lat="36.3345769" lon="-2.5449922"><ele>0.0</ele><time>2026-04-29T07:47:39.093Z</time></trkpt><trkpt lat="36.3345943" lon="-2.5448842"><ele>0.0</ele><time>2026-04-29T07:47:40.093Z</time></trkpt><trkpt lat="36.3346101" lon="-2.5447739"><ele>0.0</ele><time>2026-04-29T07:47:41.094Z</time></trkpt><trkpt lat="36.3346361" lon="-2.5446553"><ele>0.0</ele><time>2026-04-29T07:47:42.093Z</time></trkpt><trkpt lat="36.3346834" lon="-2.5445467"><ele>0.0</ele><time>2026-04-29T07:47:43.093Z</time></trkpt><trkpt lat="36.3347026" lon="-2.54444"><ele>0.0</ele><time>2026-04-29T07:47:44.093Z</time></trkpt><trkpt lat="36.3347183" lon="-2.5443302"><ele>0.0</ele><time>2026-04-29T07:47:45.093Z</time></trkpt><trkpt lat="36.334751" lon="-2.5441167"><ele>0.0</ele><time>2026-04-29T07:47:47.093Z</time></trkpt><trkpt lat="36.3347403" lon="-2.5440164"><ele>0.0</ele><time>2026-04-29T07:47:48.094Z</time></trkpt><trkpt lat="36.3347476" lon="-2.5439117"><ele>0.0</ele><time>2026-04-29T07:47:49.094Z</time></trkpt><trkpt lat="36.3347531" lon="-2.5438009"><ele>0.0</ele><time>2026-04-29T07:47:50.094Z</time></trkpt><trkpt lat="36.3347806" lon="-2.5436946"><ele>0.0</ele><time>2026-04-29T07:47:51.093Z</time></trkpt><trkpt lat="36.3347882" lon="-2.5435855"><ele>0.0</ele><time>2026-04-29T07:47:52.094Z</time></trkpt><trkpt lat="36.3348046" lon="-2.543477"><ele>0.0</ele><time>2026-04-29T07:47:53.093Z</time></trkpt><trkpt lat="36.3348192" lon="-2.5433697"><ele>0.0</ele><time>2026-04-29T07:47:54.093Z</time></trkpt><trkpt lat="36.3348351" lon="-2.5432621"><ele>0.0</ele><time>2026-04-29T07:47:55.093Z</time></trkpt><trkpt lat="36.3348623" lon="-2.5431524"><ele>0.0</ele><time>2026-04-29T07:47:56.093Z</time></trkpt><trkpt lat="36.3348847" lon="-2.5430447"><ele>0.0</ele><time>2026-04-29T07:47:57.093Z</time></trkpt><trkpt lat="36.3349027" lon="-2.5429284"><ele>0.0</ele><time>2026-04-29T07:47:58.093Z</time></trkpt><trkpt lat="36.334919" lon="-2.5428216"><ele>0.0</ele><time>2026-04-29T07:47:59.094Z</time></trkpt><trkpt lat="36.334947" lon="-2.5427128"><ele>0.0</ele><time>2026-04-29T07:48:00.094Z</time></trkpt><trkpt lat="36.3349588" lon="-2.5426046"><ele>0.0</ele><time>2026-04-29T07:48:01.093Z</time></trkpt><trkpt lat="36.3349691" lon="-2.542503"><ele>0.0</ele><time>2026-04-29T07:48:02.093Z</time></trkpt><trkpt lat="36.3349834" lon="-2.5423998"><ele>0.0</ele><time>2026-04-29T07:48:03.094Z</time></trkpt><trkpt lat="36.3349955" lon="-2.5422905"><ele>0.0</ele><time>2026-04-29T07:48:04.093Z</time></trkpt><trkpt lat="36.3350083" lon="-2.5421845"><ele>0.0</ele><time>2026-04-29T07:48:05.093Z</time></trkpt><trkpt lat="36.3350263" lon="-2.5420786"><ele>0.0</ele><time>2026-04-29T07:48:06.093Z</time></trkpt><trkpt lat="36.335035" lon="-2.5418634"><ele>0.0</ele><time>2026-04-29T07:48:08.094Z</time></trkpt><trkpt lat="36.3350299" lon="-2.5417577"><ele>0.0</ele><time>2026-04-29T07:48:09.093Z</time></trkpt><trkpt lat="36.3350302" lon="-2.5416505"><ele>0.0</ele><time>2026-04-29T07:48:10.094Z</time></trkpt><trkpt lat="36.3350341" lon="-2.5415228"><ele>0.0</ele><time>2026-04-29T07:48:11.094Z</time></trkpt><trkpt lat="36.3350412" lon="-2.5414078"><ele>0.0</ele><time>2026-04-29T07:48:12.094Z</time></trkpt><trkpt lat="36.3350492" lon="-2.5412981"><ele>0.0</ele><time>2026-04-29T07:48:13.093Z</time></trkpt><trkpt lat="36.3350593" lon="-2.5411939"><ele>0.0</ele><time>2026-04-29T07:48:14.093Z</time></trkpt><trkpt lat="36.3350735" lon="-2.5410838"><ele>0.0</ele><time>2026-04-29T07:48:15.093Z</time></trkpt><trkpt lat="36.3350841" lon="-2.5409769"><ele>0.0</ele><time>2026-04-29T07:48:16.094Z</time></trkpt><trkpt lat="36.3350944" lon="-2.5408731"><ele>0.0</ele><time>2026-04-29T07:48:17.093Z</time></trkpt><trkpt lat="36.3351059" lon="-2.5407697"><ele>0.0</ele><time>2026-04-29T07:48:18.093Z</time></trkpt><trkpt lat="36.3351104" lon="-2.5406635"><ele>0.0</ele><time>2026-04-29T07:48:19.093Z</time></trkpt><trkpt lat="36.3351117" lon="-2.5405582"><ele>0.0</ele><time>2026-04-29T07:48:20.094Z</time></trkpt><trkpt lat="36.3351303" lon="-2.5404535"><ele>0.0</ele><time>2026-04-29T07:48:21.093Z</time></trkpt><trkpt lat="36.3351523" lon="-2.5403424"><ele>0.0</ele><time>2026-04-29T07:48:22.093Z</time></trkpt><trkpt lat="36.3351785" lon="-2.54023"><ele>0.0</ele><time>2026-04-29T07:48:23.093Z</time></trkpt><trkpt lat="36.335204" lon="-2.5401186"><ele>0.0</ele><time>2026-04-29T07:48:24.094Z</time></trkpt><trkpt lat="36.3352246" lon="-2.5400131"><ele>0.0</ele><time>2026-04-29T07:48:25.093Z</time></trkpt><trkpt lat="36.3352416" lon="-2.539904"><ele>0.0</ele><time>2026-04-29T07:48:26.094Z</time></trkpt><trkpt lat="36.3352609" lon="-2.5397942"><ele>0.0</ele><time>2026-04-29T07:48:27.094Z</time></trkpt><trkpt lat="36.3352973" lon="-2.539575"><ele>0.0</ele><time>2026-04-29T07:48:29.093Z</time></trkpt><trkpt lat="36.3353154" lon="-2.5394669"><ele>0.0</ele><time>2026-04-29T07:48:30.094Z</time></trkpt><trkpt lat="36.3353385" lon="-2.539362"><ele>0.0</ele><time>2026-04-29T07:48:31.093Z</time></trkpt><trkpt lat="36.3353636" lon="-2.5392572"><ele>0.0</ele><time>2026-04-29T07:48:32.093Z</time></trkpt><trkpt lat="36.3353788" lon="-2.5391505"><ele>0.0</ele><time>2026-04-29T07:48:33.094Z</time></trkpt><trkpt lat="36.3354015" lon="-2.5390406"><ele>0.0</ele><time>2026-04-29T07:48:34.094Z</time></trkpt><trkpt lat="36.3354273" lon="-2.5389172"><ele>0.0</ele><time>2026-04-29T07:48:35.094Z</time></trkpt><trkpt lat="36.3354542" lon="-2.5387976"><ele>0.0</ele><time>2026-04-29T07:48:36.093Z</time></trkpt><trkpt lat="36.3354801" lon="-2.5386828"><ele>0.0</ele><time>2026-04-29T07:48:37.094Z</time></trkpt><trkpt lat="36.3355056" lon="-2.5385717"><ele>0.0</ele><time>2026-04-29T07:48:38.094Z</time></trkpt><trkpt lat="36.3355291" lon="-2.5384658"><ele>0.0</ele><time>2026-04-29T07:48:39.094Z</time></trkpt><trkpt lat="36.3355477" lon="-2.538364"><ele>0.0</ele><time>2026-04-29T07:48:40.093Z</time></trkpt><trkpt lat="36.3355689" lon="-2.5382598"><ele>0.0</ele><time>2026-04-29T07:48:41.093Z</time></trkpt><trkpt lat="36.3355836" lon="-2.5381634"><ele>0.0</ele><time>2026-04-29T07:48:42.094Z</time></trkpt><trkpt lat="36.3355948" lon="-2.5380558"><ele>0.0</ele><time>2026-04-29T07:48:43.093Z</time></trkpt><trkpt lat="36.3356021" lon="-2.5379481"><ele>0.0</ele><time>2026-04-29T07:48:44.093Z</time></trkpt><trkpt lat="36.3356112" lon="-2.5378395"><ele>0.0</ele><time>2026-04-29T07:48:45.093Z</time></trkpt><trkpt lat="36.3356203" lon="-2.5377326"><ele>0.0</ele><time>2026-04-29T07:48:46.094Z</time></trkpt><trkpt lat="36.3356275" lon="-2.5376238"><ele>0.0</ele><time>2026-04-29T07:48:47.093Z</time></trkpt><trkpt lat="36.3356449" lon="-2.5375145"><ele>0.0</ele><time>2026-04-29T07:48:48.094Z</time></trkpt><trkpt lat="36.3356737" lon="-2.5373065"><ele>0.0</ele><time>2026-04-29T07:48:50.093Z</time></trkpt><trkpt lat="36.3356854" lon="-2.5372024"><ele>0.0</ele><time>2026-04-29T07:48:51.093Z</time></trkpt><trkpt lat="36.3357008" lon="-2.5370966"><ele>0.0</ele><time>2026-04-29T07:48:52.094Z</time></trkpt><trkpt lat="36.3357117" lon="-2.536988"><ele>0.0</ele><time>2026-04-29T07:48:53.093Z</time></trkpt><trkpt lat="36.3357219" lon="-2.5368742"><ele>0.0</ele><time>2026-04-29T07:48:54.093Z</time></trkpt><trkpt lat="36.335737" lon="-2.5367665"><ele>0.0</ele><time>2026-04-29T07:48:55.094Z</time></trkpt><trkpt lat="36.3357547" lon="-2.5366511"><ele>0.0</ele><time>2026-04-29T07:48:56.093Z</time></trkpt><trkpt lat="36.3357711" lon="-2.5365383"><ele>0.0</ele><time>2026-04-29T07:48:57.093Z</time></trkpt><trkpt lat="36.3357888" lon="-2.5364284"><ele>0.0</ele><time>2026-04-29T07:48:58.094Z</time></trkpt><trkpt lat="36.33581" lon="-2.5363123"><ele>0.0</ele><time>2026-04-29T07:48:59.093Z</time></trkpt><trkpt lat="36.3358308" lon="-2.5361876"><ele>0.0</ele><time>2026-04-29T07:49:00.093Z</time></trkpt><trkpt lat="36.3358519" lon="-2.5360666"><ele>0.0</ele><time>2026-04-29T07:49:01.094Z</time></trkpt><trkpt lat="36.3358673" lon="-2.5359555"><ele>0.0</ele><time>2026-04-29T07:49:02.093Z</time></trkpt><trkpt lat="36.3358852" lon="-2.5358447"><ele>0.0</ele><time>2026-04-29T07:49:03.093Z</time></trkpt><trkpt lat="36.3359051" lon="-2.5357353"><ele>0.0</ele><time>2026-04-29T07:49:04.093Z</time></trkpt><trkpt lat="36.3359271" lon="-2.5356285"><ele>0.0</ele><time>2026-04-29T07:49:05.094Z</time></trkpt><trkpt lat="36.3359471" lon="-2.5355213"><ele>0.0</ele><time>2026-04-29T07:49:06.093Z</time></trkpt><trkpt lat="36.3359592" lon="-2.5354174"><ele>0.0</ele><time>2026-04-29T07:49:07.093Z</time></trkpt><trkpt lat="36.3359737" lon="-2.5353118"><ele>0.0</ele><time>2026-04-29T07:49:08.093Z</time></trkpt><trkpt lat="36.33599" lon="-2.5352096"><ele>0.0</ele><time>2026-04-29T07:49:09.094Z</time></trkpt><trkpt lat="36.3360246" lon="-2.5350008"><ele>0.0</ele><time>2026-04-29T07:49:11.093Z</time></trkpt><trkpt lat="36.3360389" lon="-2.5349012"><ele>0.0</ele><time>2026-04-29T07:49:12.093Z</time></trkpt><trkpt lat="36.336055" lon="-2.5347981"><ele>0.0</ele><time>2026-04-29T07:49:13.094Z</time></trkpt><trkpt lat="36.3360698" lon="-2.5346904"><ele>0.0</ele><time>2026-04-29T07:49:14.094Z</time></trkpt><trkpt lat="36.3360819" lon="-2.5345909"><ele>0.0</ele><time>2026-04-29T07:49:15.093Z</time></trkpt><trkpt lat="36.3360918" lon="-2.5344753"><ele>0.0</ele><time>2026-04-29T07:49:16.094Z</time></trkpt><trkpt lat="36.3361067" lon="-2.53436"><ele>0.0</ele><time>2026-04-29T07:49:17.093Z</time></trkpt><trkpt lat="36.3361057" lon="-2.5342322"><ele>0.0</ele><time>2026-04-29T07:49:18.093Z</time></trkpt><trkpt lat="36.336114" lon="-2.5341168"><ele>0.0</ele><time>2026-04-29T07:49:19.093Z</time></trkpt><trkpt lat="36.3361242" lon="-2.5340041"><ele>0.0</ele><time>2026-04-29T07:49:20.093Z</time></trkpt><trkpt lat="36.3361483" lon="-2.5338889"><ele>0.0</ele><time>2026-04-29T07:49:21.093Z</time></trkpt><trkpt lat="36.3361778" lon="-2.5337782"><ele>0.0</ele><time>2026-04-29T07:49:22.093Z</time></trkpt><trkpt lat="36.3362051" lon="-2.533673"><ele>0.0</ele><time>2026-04-29T07:49:23.094Z</time></trkpt><trkpt lat="36.3362271" lon="-2.533567"><ele>0.0</ele><time>2026-04-29T07:49:24.094Z</time></trkpt><trkpt lat="36.3362429" lon="-2.5334546"><ele>0.0</ele><time>2026-04-29T07:49:25.093Z</time></trkpt><trkpt lat="36.3362608" lon="-2.5333493"><ele>0.0</ele><time>2026-04-29T07:49:26.094Z</time></trkpt><trkpt lat="36.3362802" lon="-2.5332425"><ele>0.0</ele><time>2026-04-29T07:49:27.093Z</time></trkpt><trkpt lat="36.3363015" lon="-2.5331463"><ele>0.0</ele><time>2026-04-29T07:49:28.094Z</time></trkpt><trkpt lat="36.3363245" lon="-2.5330369"><ele>0.0</ele><time>2026-04-29T07:49:29.093Z</time></trkpt><trkpt lat="36.336339" lon="-2.532928"><ele>0.0</ele><time>2026-04-29T07:49:30.093Z</time></trkpt><trkpt lat="36.3363723" lon="-2.5327112"><ele>0.0</ele><time>2026-04-29T07:49:32.094Z</time></trkpt><trkpt lat="36.3363937" lon="-2.5325958"><ele>0.0</ele><time>2026-04-29T07:49:33.094Z</time></trkpt><trkpt lat="36.3364088" lon="-2.5324973"><ele>0.0</ele><time>2026-04-29T07:49:34.093Z</time></trkpt><trkpt lat="36.3364234" lon="-2.5323933"><ele>0.0</ele><time>2026-04-29T07:49:35.094Z</time></trkpt><trkpt lat="36.336444" lon="-2.5322738"><ele>0.0</ele><time>2026-04-29T07:49:36.094Z</time></trkpt><trkpt lat="36.33646" lon="-2.5321533"><ele>0.0</ele><time>2026-04-29T07:49:37.093Z</time></trkpt><trkpt lat="36.3364687" lon="-2.5320462"><ele>0.0</ele><time>2026-04-29T07:49:38.094Z</time></trkpt><trkpt lat="36.3364766" lon="-2.5319361"><ele>0.0</ele><time>2026-04-29T07:49:39.094Z</time></trkpt><trkpt lat="36.3364818" lon="-2.5318272"><ele>0.0</ele><time>2026-04-29T07:49:40.093Z</time></trkpt><trkpt lat="36.336485" lon="-2.5317221"><ele>0.0</ele><time>2026-04-29T07:49:41.094Z</time></trkpt><trkpt lat="36.3364941" lon="-2.5316261"><ele>0.0</ele><time>2026-04-29T07:49:42.093Z</time></trkpt><trkpt lat="36.3365015" lon="-2.5315259"><ele>0.0</ele><time>2026-04-29T07:49:43.093Z</time></trkpt><trkpt lat="36.3365079" lon="-2.5314191"><ele>0.0</ele><time>2026-04-29T07:49:44.093Z</time></trkpt><trkpt lat="36.3365258" lon="-2.5313114"><ele>0.0</ele><time>2026-04-29T07:49:45.093Z</time></trkpt><trkpt lat="36.3365381" lon="-2.5312097"><ele>0.0</ele><time>2026-04-29T07:49:46.093Z</time></trkpt><trkpt lat="36.3365465" lon="-2.5311096"><ele>0.0</ele><time>2026-04-29T07:49:47.093Z</time></trkpt><trkpt lat="36.3365552" lon="-2.5310116"><ele>0.0</ele><time>2026-04-29T07:49:48.093Z</time></trkpt><trkpt lat="36.3365719" lon="-2.5309088"><ele>0.0</ele><time>2026-04-29T07:49:49.093Z</time></trkpt><trkpt lat="36.3365871" lon="-2.5308005"><ele>0.0</ele><time>2026-04-29T07:49:50.093Z</time></trkpt><trkpt lat="36.3366032" lon="-2.5306904"><ele>0.0</ele><time>2026-04-29T07:49:51.093Z</time></trkpt><trkpt lat="36.3366478" lon="-2.5304842"><ele>0.0</ele><time>2026-04-29T07:49:53.094Z</time></trkpt><trkpt lat="36.3366746" lon="-2.5303783"><ele>0.0</ele><time>2026-04-29T07:49:54.093Z</time></trkpt><trkpt lat="36.3366986" lon="-2.5302759"><ele>0.0</ele><time>2026-04-29T07:49:55.093Z</time></trkpt><trkpt lat="36.3367168" lon="-2.530167"><ele>0.0</ele><time>2026-04-29T07:49:56.093Z</time></trkpt><trkpt lat="36.3367312" lon="-2.5300489"><ele>0.0</ele><time>2026-04-29T07:49:57.094Z</time></trkpt><trkpt lat="36.3367482" lon="-2.5299369"><ele>0.0</ele><time>2026-04-29T07:49:58.094Z</time></trkpt><trkpt lat="36.3367573" lon="-2.5298351"><ele>0.0</ele><time>2026-04-29T07:49:59.094Z</time></trkpt><trkpt lat="36.3367651" lon="-2.5297248"><ele>0.0</ele><time>2026-04-29T07:50:00.093Z</time></trkpt><trkpt lat="36.3367791" lon="-2.529622"><ele>0.0</ele><time>2026-04-29T07:50:01.094Z</time></trkpt><trkpt lat="36.3367905" lon="-2.5295188"><ele>0.0</ele><time>2026-04-29T07:50:02.093Z</time></trkpt><trkpt lat="36.3368068" lon="-2.5294143"><ele>0.0</ele><time>2026-04-29T07:50:03.093Z</time></trkpt><trkpt lat="36.3368025" lon="-2.5293101"><ele>0.0</ele><time>2026-04-29T07:50:04.094Z</time></trkpt><trkpt lat="36.3368093" lon="-2.5292035"><ele>0.0</ele><time>2026-04-29T07:50:05.093Z</time></trkpt><trkpt lat="36.3368259" lon="-2.5290981"><ele>0.0</ele><time>2026-04-29T07:50:06.094Z</time></trkpt><trkpt lat="36.3368478" lon="-2.5289891"><ele>0.0</ele><time>2026-04-29T07:50:07.093Z</time></trkpt><trkpt lat="36.336873" lon="-2.5288757"><ele>0.0</ele><time>2026-04-29T07:50:08.094Z</time></trkpt><trkpt lat="36.3368941" lon="-2.528762"><ele>0.0</ele><time>2026-04-29T07:50:09.093Z</time></trkpt><trkpt lat="36.336912" lon="-2.5286479"><ele>0.0</ele><time>2026-04-29T07:50:10.093Z</time></trkpt><trkpt lat="36.3369235" lon="-2.5285358"><ele>0.0</ele><time>2026-04-29T07:50:11.093Z</time></trkpt><trkpt lat="36.3369335" lon="-2.5284195"><ele>0.0</ele><time>2026-04-29T07:50:12.093Z</time></trkpt><trkpt lat="36.3369668" lon="-2.5281961"><ele>0.0</ele><time>2026-04-29T07:50:14.093Z</time></trkpt><trkpt lat="36.3369752" lon="-2.5280838"><ele>0.0</ele><time>2026-04-29T07:50:15.093Z</time></trkpt><trkpt lat="36.3369856" lon="-2.527975"><ele>0.0</ele><time>2026-04-29T07:50:16.093Z</time></trkpt><trkpt lat="36.336991" lon="-2.5278714"><ele>0.0</ele><time>2026-04-29T07:50:17.093Z</time></trkpt><trkpt lat="36.3370003" lon="-2.5277686"><ele>0.0</ele><time>2026-04-29T07:50:18.093Z</time></trkpt><trkpt lat="36.3370089" lon="-2.5276591"><ele>0.0</ele><time>2026-04-29T07:50:19.094Z</time></trkpt><trkpt lat="36.3370217" lon="-2.5275515"><ele>0.0</ele><time>2026-04-29T07:50:20.094Z</time></trkpt><trkpt lat="36.3370402" lon="-2.5274436"><ele>0.0</ele><time>2026-04-29T07:50:21.093Z</time></trkpt><trkpt lat="36.3370603" lon="-2.5273378"><ele>0.0</ele><time>2026-04-29T07:50:22.093Z</time></trkpt><trkpt lat="36.3370755" lon="-2.5272316"><ele>0.0</ele><time>2026-04-29T07:50:23.093Z</time></trkpt><trkpt lat="36.3370843" lon="-2.5271231"><ele>0.0</ele><time>2026-04-29T07:50:24.093Z</time></trkpt><trkpt lat="36.3370927" lon="-2.5270151"><ele>0.0</ele><time>2026-04-29T07:50:25.093Z</time></trkpt><trkpt lat="36.3371035" lon="-2.5269043"><ele>0.0</ele><time>2026-04-29T07:50:26.094Z</time></trkpt><trkpt lat="36.3371184" lon="-2.5267865"><ele>0.0</ele><time>2026-04-29T07:50:27.094Z</time></trkpt><trkpt lat="36.3371333" lon="-2.5266704"><ele>0.0</ele><time>2026-04-29T07:50:28.094Z</time></trkpt><trkpt lat="36.3371487" lon="-2.5265581"><ele>0.0</ele><time>2026-04-29T07:50:29.093Z</time></trkpt><trkpt lat="36.337156" lon="-2.5264496"><ele>0.0</ele><time>2026-04-29T07:50:30.094Z</time></trkpt><trkpt lat="36.3371651" lon="-2.5263418"><ele>0.0</ele><time>2026-04-29T07:50:31.093Z</time></trkpt><trkpt lat="36.3371768" lon="-2.5262331"><ele>0.0</ele><time>2026-04-29T07:50:32.094Z</time></trkpt><trkpt lat="36.3371882" lon="-2.5261252"><ele>0.0</ele><time>2026-04-29T07:50:33.094Z</time></trkpt><trkpt lat="36.3372283" lon="-2.5259164"><ele>0.0</ele><time>2026-04-29T07:50:35.094Z</time></trkpt><trkpt lat="36.3372466" lon="-2.5258135"><ele>0.0</ele><time>2026-04-29T07:50:36.093Z</time></trkpt><trkpt lat="36.3372623" lon="-2.5257084"><ele>0.0</ele><time>2026-04-29T07:50:37.093Z</time></trkpt><trkpt lat="36.3372832" lon="-2.5255973"><ele>0.0</ele><time>2026-04-29T07:50:38.093Z</time></trkpt><trkpt lat="36.3373007" lon="-2.5254917"><ele>0.0</ele><time>2026-04-29T07:50:39.093Z</time></trkpt><trkpt lat="36.3373151" lon="-2.5253908"><ele>0.0</ele><time>2026-04-29T07:50:40.093Z</time></trkpt><trkpt lat="36.3373298" lon="-2.5252923"><ele>0.0</ele><time>2026-04-29T07:50:41.094Z</time></trkpt><trkpt lat="36.3373421" lon="-2.5251898"><ele>0.0</ele><time>2026-04-29T07:50:42.093Z</time></trkpt><trkpt lat="36.3373532" lon="-2.525082"><ele>0.0</ele><time>2026-04-29T07:50:43.094Z</time></trkpt><trkpt lat="36.337365" lon="-2.5249767"><ele>0.0</ele><time>2026-04-29T07:50:44.093Z</time></trkpt><trkpt lat="36.3373709" lon="-2.5248727"><ele>0.0</ele><time>2026-04-29T07:50:45.093Z</time></trkpt><trkpt lat="36.3373756" lon="-2.524772"><ele>0.0</ele><time>2026-04-29T07:50:46.093Z</time></trkpt><trkpt lat="36.3373807" lon="-2.5246722"><ele>0.0</ele><time>2026-04-29T07:50:47.093Z</time></trkpt><trkpt lat="36.3373827" lon="-2.5245679"><ele>0.0</ele><time>2026-04-29T07:50:48.094Z</time></trkpt><trkpt lat="36.3373886" lon="-2.5244577"><ele>0.0</ele><time>2026-04-29T07:50:49.093Z</time></trkpt><trkpt lat="36.3373865" lon="-2.5243365"><ele>0.0</ele><time>2026-04-29T07:50:50.093Z</time></trkpt><trkpt lat="36.3373836" lon="-2.5242087"><ele>0.0</ele><time>2026-04-29T07:50:51.094Z</time></trkpt><trkpt lat="36.3373894" lon="-2.5240943"><ele>0.0</ele><time>2026-04-29T07:50:52.093Z</time></trkpt><trkpt lat="36.3374038" lon="-2.523979"><ele>0.0</ele><time>2026-04-29T07:50:53.093Z</time></trkpt><trkpt lat="36.3374232" lon="-2.5238626"><ele>0.0</ele><time>2026-04-29T07:50:54.093Z</time></trkpt><trkpt lat="36.3374601" lon="-2.5236346"><ele>0.0</ele><time>2026-04-29T07:50:56.093Z</time></trkpt><trkpt lat="36.3375047" lon="-2.5235244"><ele>0.0</ele><time>2026-04-29T07:50:57.094Z</time></trkpt><trkpt lat="36.3375293" lon="-2.523416"><ele>0.0</ele><time>2026-04-29T07:50:58.094Z</time></trkpt><trkpt lat="36.3375498" lon="-2.523305"><ele>0.0</ele><time>2026-04-29T07:50:59.094Z</time></trkpt><trkpt lat="36.33757" lon="-2.5231981"><ele>0.0</ele><time>2026-04-29T07:51:00.094Z</time></trkpt><trkpt lat="36.337587" lon="-2.5230856"><ele>0.0</ele><time>2026-04-29T07:51:01.094Z</time></trkpt><trkpt lat="36.3376019" lon="-2.5229775"><ele>0.0</ele><time>2026-04-29T07:51:02.093Z</time></trkpt><trkpt lat="36.3376192" lon="-2.5228681"><ele>0.0</ele><time>2026-04-29T07:51:03.094Z</time></trkpt><trkpt lat="36.337647" lon="-2.522761"><ele>0.0</ele><time>2026-04-29T07:51:04.093Z</time></trkpt><trkpt lat="36.3376681" lon="-2.5226547"><ele>0.0</ele><time>2026-04-29T07:51:05.094Z</time></trkpt><trkpt lat="36.3376868" lon="-2.5225449"><ele>0.0</ele><time>2026-04-29T07:51:06.093Z</time></trkpt><trkpt lat="36.3376994" lon="-2.5224436"><ele>0.0</ele><time>2026-04-29T07:51:07.094Z</time></trkpt><trkpt lat="36.3377136" lon="-2.5223375"><ele>0.0</ele><time>2026-04-29T07:51:08.094Z</time></trkpt><trkpt lat="36.3377267" lon="-2.5222352"><ele>0.0</ele><time>2026-04-29T07:51:09.094Z</time></trkpt><trkpt lat="36.3377421" lon="-2.5221411"><ele>0.0</ele><time>2026-04-29T07:51:10.094Z</time></trkpt><trkpt lat="36.3377738" lon="-2.5220407"><ele>0.0</ele><time>2026-04-29T07:51:11.093Z</time></trkpt><trkpt lat="36.3377957" lon="-2.5219377"><ele>0.0</ele><time>2026-04-29T07:51:12.093Z</time></trkpt><trkpt lat="36.3378174" lon="-2.5218342"><ele>0.0</ele><time>2026-04-29T07:51:13.093Z</time></trkpt><trkpt lat="36.3378419" lon="-2.5217295"><ele>0.0</ele><time>2026-04-29T07:51:14.094Z</time></trkpt><trkpt lat="36.3378672" lon="-2.5216186"><ele>0.0</ele><time>2026-04-29T07:51:15.094Z</time></trkpt><trkpt lat="36.3379051" lon="-2.5214097"><ele>0.0</ele><time>2026-04-29T07:51:17.094Z</time></trkpt><trkpt lat="36.3379216" lon="-2.5213024"><ele>0.0</ele><time>2026-04-29T07:51:18.094Z</time></trkpt><trkpt lat="36.3379367" lon="-2.5211936"><ele>0.0</ele><time>2026-04-29T07:51:19.093Z</time></trkpt><trkpt lat="36.3379488" lon="-2.5210827"><ele>0.0</ele><time>2026-04-29T07:51:20.094Z</time></trkpt><trkpt lat="36.3379636" lon="-2.520978"><ele>0.0</ele><time>2026-04-29T07:51:21.093Z</time></trkpt><trkpt lat="36.3379736" lon="-2.520872"><ele>0.0</ele><time>2026-04-29T07:51:22.093Z</time></trkpt><trkpt lat="36.3379849" lon="-2.5207653"><ele>0.0</ele><time>2026-04-29T07:51:23.093Z</time></trkpt><trkpt lat="36.3379975" lon="-2.5206634"><ele>0.0</ele><time>2026-04-29T07:51:24.094Z</time></trkpt><trkpt lat="36.3380103" lon="-2.5205602"><ele>0.0</ele><time>2026-04-29T07:51:25.094Z</time></trkpt><trkpt lat="36.3380218" lon="-2.5204506"><ele>0.0</ele><time>2026-04-29T07:51:26.093Z</time></trkpt><trkpt lat="36.3380383" lon="-2.5203417"><ele>0.0</ele><time>2026-04-29T07:51:27.094Z</time></trkpt><trkpt lat="36.3380519" lon="-2.5202354"><ele>0.0</ele><time>2026-04-29T07:51:28.093Z</time></trkpt><trkpt lat="36.338064" lon="-2.5201275"><ele>0.0</ele><time>2026-04-29T07:51:29.093Z</time></trkpt><trkpt lat="36.3380801" lon="-2.5200174"><ele>0.0</ele><time>2026-04-29T07:51:30.093Z</time></trkpt><trkpt lat="36.3380953" lon="-2.5199086"><ele>0.0</ele><time>2026-04-29T07:51:31.093Z</time></trkpt><trkpt lat="36.3381103" lon="-2.519799"><ele>0.0</ele><time>2026-04-29T07:51:32.094Z</time></trkpt><trkpt lat="36.3381234" lon="-2.5196934"><ele>0.0</ele><time>2026-04-29T07:51:33.093Z</time></trkpt><trkpt lat="36.338137" lon="-2.5195822"><ele>0.0</ele><time>2026-04-29T07:51:34.093Z</time></trkpt><trkpt lat="36.3381471" lon="-2.5194732"><ele>0.0</ele><time>2026-04-29T07:51:35.093Z</time></trkpt><trkpt lat="36.3381569" lon="-2.5193676"><ele>0.0</ele><time>2026-04-29T07:51:36.093Z</time></trkpt><trkpt lat="36.3381755" lon="-2.5191579"><ele>0.0</ele><time>2026-04-29T07:51:38.094Z</time></trkpt><trkpt lat="36.3381852" lon="-2.5190495"><ele>0.0</ele><time>2026-04-29T07:51:39.094Z</time></trkpt><trkpt lat="36.3381952" lon="-2.518943"><ele>0.0</ele><time>2026-04-29T07:51:40.093Z</time></trkpt><trkpt lat="36.3382072" lon="-2.5188337"><ele>0.0</ele><time>2026-04-29T07:51:41.094Z</time></trkpt><trkpt lat="36.3382219" lon="-2.5187249"><ele>0.0</ele><time>2026-04-29T07:51:42.093Z</time></trkpt><trkpt lat="36.33824" lon="-2.5186142"><ele>0.0</ele><time>2026-04-29T07:51:43.093Z</time></trkpt><trkpt lat="36.3382583" lon="-2.5185036"><ele>0.0</ele><time>2026-04-29T07:51:44.094Z</time></trkpt><trkpt lat="36.3382734" lon="-2.5183921"><ele>0.0</ele><time>2026-04-29T07:51:45.094Z</time></trkpt><trkpt lat="36.3382851" lon="-2.5182846"><ele>0.0</ele><time>2026-04-29T07:51:46.093Z</time></trkpt><trkpt lat="36.3382967" lon="-2.5181815"><ele>0.0</ele><time>2026-04-29T07:51:47.093Z</time></trkpt><trkpt lat="36.3383096" lon="-2.5180677"><ele>0.0</ele><time>2026-04-29T07:51:48.093Z</time></trkpt><trkpt lat="36.3383255" lon="-2.5179614"><ele>0.0</ele><time>2026-04-29T07:51:49.094Z</time></trkpt><trkpt lat="36.3383427" lon="-2.5178533"><ele>0.0</ele><time>2026-04-29T07:51:50.093Z</time></trkpt><trkpt lat="36.3383533" lon="-2.5177325"><ele>0.0</ele><time>2026-04-29T07:51:51.093Z</time></trkpt><trkpt lat="36.3383681" lon="-2.517619"><ele>0.0</ele><time>2026-04-29T07:51:52.093Z</time></trkpt><trkpt lat="36.338386" lon="-2.5175114"><ele>0.0</ele><time>2026-04-29T07:51:53.094Z</time></trkpt><trkpt lat="36.3384115" lon="-2.5173979"><ele>0.0</ele><time>2026-04-29T07:51:54.093Z</time></trkpt><trkpt lat="36.3384301" lon="-2.5172874"><ele>0.0</ele><time>2026-04-29T07:51:55.094Z</time></trkpt><trkpt lat="36.3384323" lon="-2.5171672"><ele>0.0</ele><time>2026-04-29T07:51:56.094Z</time></trkpt><trkpt lat="36.3384416" lon="-2.5170534"><ele>0.0</ele><time>2026-04-29T07:51:57.093Z</time></trkpt><trkpt lat="36.338467" lon="-2.5168411"><ele>0.0</ele><time>2026-04-29T07:51:59.093Z</time></trkpt><trkpt lat="36.33849" lon="-2.5167332"><ele>0.0</ele><time>2026-04-29T07:52:00.094Z</time></trkpt><trkpt lat="36.3385164" lon="-2.516631"><ele>0.0</ele><time>2026-04-29T07:52:01.093Z</time></trkpt><trkpt lat="36.3385505" lon="-2.5165349"><ele>0.0</ele><time>2026-04-29T07:52:02.093Z</time></trkpt><trkpt lat="36.3385785" lon="-2.5164285"><ele>0.0</ele><time>2026-04-29T07:52:03.094Z</time></trkpt><trkpt lat="36.3386004" lon="-2.5163185"><ele>0.0</ele><time>2026-04-29T07:52:04.093Z</time></trkpt><trkpt lat="36.3386228" lon="-2.5162114"><ele>0.0</ele><time>2026-04-29T07:52:05.093Z</time></trkpt><trkpt lat="36.3386474" lon="-2.5161045"><ele>0.0</ele><time>2026-04-29T07:52:06.093Z</time></trkpt><trkpt lat="36.3386706" lon="-2.5160007"><ele>0.0</ele><time>2026-04-29T07:52:07.093Z</time></trkpt><trkpt lat="36.3386919" lon="-2.5158916"><ele>0.0</ele><time>2026-04-29T07:52:08.093Z</time></trkpt><trkpt lat="36.3387153" lon="-2.5157831"><ele>0.0</ele><time>2026-04-29T07:52:09.092Z</time></trkpt><trkpt lat="36.3387357" lon="-2.5156774"><ele>0.0</ele><time>2026-04-29T07:52:10.093Z</time></trkpt><trkpt lat="36.3387556" lon="-2.5155787"><ele>0.0</ele><time>2026-04-29T07:52:11.093Z</time></trkpt><trkpt lat="36.3387671" lon="-2.515477"><ele>0.0</ele><time>2026-04-29T07:52:12.093Z</time></trkpt><trkpt lat="36.3387823" lon="-2.5153672"><ele>0.0</ele><time>2026-04-29T07:52:13.092Z</time></trkpt><trkpt lat="36.3387917" lon="-2.5152552"><ele>0.0</ele><time>2026-04-29T07:52:14.093Z</time></trkpt><trkpt lat="36.3388042" lon="-2.5151421"><ele>0.0</ele><time>2026-04-29T07:52:15.092Z</time></trkpt><trkpt lat="36.3388219" lon="-2.5150318"><ele>0.0</ele><time>2026-04-29T07:52:16.092Z</time></trkpt><trkpt lat="36.3388422" lon="-2.5149262"><ele>0.0</ele><time>2026-04-29T07:52:17.093Z</time></trkpt><trkpt lat="36.3388554" lon="-2.5148212"><ele>0.0</ele><time>2026-04-29T07:52:18.093Z</time></trkpt><trkpt lat="36.3388627" lon="-2.514599"><ele>0.0</ele><time>2026-04-29T07:52:20.092Z</time></trkpt><trkpt lat="36.3388653" lon="-2.5144885"><ele>0.0</ele><time>2026-04-29T07:52:21.093Z</time></trkpt><trkpt lat="36.338866" lon="-2.5143831"><ele>0.0</ele><time>2026-04-29T07:52:22.092Z</time></trkpt><trkpt lat="36.3388717" lon="-2.5142785"><ele>0.0</ele><time>2026-04-29T07:52:23.092Z</time></trkpt><trkpt lat="36.3388799" lon="-2.5141702"><ele>0.0</ele><time>2026-04-29T07:52:24.092Z</time></trkpt><trkpt lat="36.3388901" lon="-2.5140662"><ele>0.0</ele><time>2026-04-29T07:52:25.093Z</time></trkpt><trkpt lat="36.3388973" lon="-2.5139601"><ele>0.0</ele><time>2026-04-29T07:52:26.092Z</time></trkpt><trkpt lat="36.3389055" lon="-2.5138505"><ele>0.0</ele><time>2026-04-29T07:52:27.092Z</time></trkpt><trkpt lat="36.3389186" lon="-2.5137504"><ele>0.0</ele><time>2026-04-29T07:52:28.093Z</time></trkpt><trkpt lat="36.3389346" lon="-2.5136491"><ele>0.0</ele><time>2026-04-29T07:52:29.092Z</time></trkpt><trkpt lat="36.3389457" lon="-2.513543"><ele>0.0</ele><time>2026-04-29T07:52:30.092Z</time></trkpt><trkpt lat="36.3389569" lon="-2.5134337"><ele>0.0</ele><time>2026-04-29T07:52:31.093Z</time></trkpt><trkpt lat="36.3389668" lon="-2.5133266"><ele>0.0</ele><time>2026-04-29T07:52:32.092Z</time></trkpt><trkpt lat="36.338981" lon="-2.5132214"><ele>0.0</ele><time>2026-04-29T07:52:33.092Z</time></trkpt><trkpt lat="36.3389898" lon="-2.513113"><ele>0.0</ele><time>2026-04-29T07:52:34.092Z</time></trkpt><trkpt lat="36.3389994" lon="-2.5130049"><ele>0.0</ele><time>2026-04-29T07:52:35.093Z</time></trkpt><trkpt lat="36.3390095" lon="-2.5128979"><ele>0.0</ele><time>2026-04-29T07:52:36.092Z</time></trkpt><trkpt lat="36.3390291" lon="-2.5127863"><ele>0.0</ele><time>2026-04-29T07:52:37.093Z</time></trkpt><trkpt lat="36.3390437" lon="-2.5126813"><ele>0.0</ele><time>2026-04-29T07:52:38.092Z</time></trkpt><trkpt lat="36.3390542" lon="-2.5125731"><ele>0.0</ele><time>2026-04-29T07:52:39.092Z</time></trkpt><trkpt lat="36.339078" lon="-2.5123553"><ele>0.0</ele><time>2026-04-29T07:52:41.093Z</time></trkpt><trkpt lat="36.3390877" lon="-2.5122495"><ele>0.0</ele><time>2026-04-29T07:52:42.092Z</time></trkpt><trkpt lat="36.3390981" lon="-2.5121444"><ele>0.0</ele><time>2026-04-29T07:52:43.092Z</time></trkpt><trkpt lat="36.3391126" lon="-2.5120364"><ele>0.0</ele><time>2026-04-29T07:52:44.092Z</time></trkpt><trkpt lat="36.3391281" lon="-2.5119237"><ele>0.0</ele><time>2026-04-29T07:52:45.092Z</time></trkpt><trkpt lat="36.3391425" lon="-2.5118186"><ele>0.0</ele><time>2026-04-29T07:52:46.092Z</time></trkpt><trkpt lat="36.3391621" lon="-2.5117129"><ele>0.0</ele><time>2026-04-29T07:52:47.092Z</time></trkpt><trkpt lat="36.3391801" lon="-2.5116091"><ele>0.0</ele><time>2026-04-29T07:52:48.092Z</time></trkpt><trkpt lat="36.3391995" lon="-2.511506"><ele>0.0</ele><time>2026-04-29T07:52:49.093Z</time></trkpt><trkpt lat="36.3392297" lon="-2.511398"><ele>0.0</ele><time>2026-04-29T07:52:50.093Z</time></trkpt><trkpt lat="36.3392997" lon="-2.5112891"><ele>0.0</ele><time>2026-04-29T07:52:51.092Z</time></trkpt><trkpt lat="36.3393278" lon="-2.5111839"><ele>0.0</ele><time>2026-04-29T07:52:52.093Z</time></trkpt><trkpt lat="36.3393488" lon="-2.5110775"><ele>0.0</ele><time>2026-04-29T07:52:53.092Z</time></trkpt><trkpt lat="36.3393625" lon="-2.51097"><ele>0.0</ele><time>2026-04-29T07:52:54.093Z</time></trkpt><trkpt lat="36.3393726" lon="-2.5108631"><ele>0.0</ele><time>2026-04-29T07:52:55.092Z</time></trkpt><trkpt lat="36.3393765" lon="-2.5107549"><ele>0.0</ele><time>2026-04-29T07:52:56.093Z</time></trkpt><trkpt lat="36.339378" lon="-2.5106468"><ele>0.0</ele><time>2026-04-29T07:52:57.092Z</time></trkpt><trkpt lat="36.3393792" lon="-2.51054"><ele>0.0</ele><time>2026-04-29T07:52:58.092Z</time></trkpt><trkpt lat="36.3393833" lon="-2.5104308"><ele>0.0</ele><time>2026-04-29T07:52:59.093Z</time></trkpt><trkpt lat="36.3394276" lon="-2.5103181"><ele>0.0</ele><time>2026-04-29T07:53:00.093Z</time></trkpt><trkpt lat="36.3394526" lon="-2.5101035"><ele>0.0</ele><time>2026-04-29T07:53:02.093Z</time></trkpt><trkpt lat="36.3394633" lon="-2.5099965"><ele>0.0</ele><time>2026-04-29T07:53:03.092Z</time></trkpt><trkpt lat="36.3394709" lon="-2.509884"><ele>0.0</ele><time>2026-04-29T07:53:04.093Z</time></trkpt><trkpt lat="36.3394819" lon="-2.5097766"><ele>0.0</ele><time>2026-04-29T07:53:05.092Z</time></trkpt><trkpt lat="36.3394909" lon="-2.5096725"><ele>0.0</ele><time>2026-04-29T07:53:06.093Z</time></trkpt><trkpt lat="36.3395024" lon="-2.5095633"><ele>0.0</ele><time>2026-04-29T07:53:07.092Z</time></trkpt><trkpt lat="36.3395232" lon="-2.5094503"><ele>0.0</ele><time>2026-04-29T07:53:08.093Z</time></trkpt><trkpt lat="36.339537" lon="-2.5093372"><ele>0.0</ele><time>2026-04-29T07:53:09.092Z</time></trkpt><trkpt lat="36.3395518" lon="-2.5092297"><ele>0.0</ele><time>2026-04-29T07:53:10.092Z</time></trkpt><trkpt lat="36.3395728" lon="-2.5091232"><ele>0.0</ele><time>2026-04-29T07:53:11.093Z</time></trkpt><trkpt lat="36.3396136" lon="-2.5090135"><ele>0.0</ele><time>2026-04-29T07:53:12.093Z</time></trkpt><trkpt lat="36.3396444" lon="-2.5089048"><ele>0.0</ele><time>2026-04-29T07:53:13.093Z</time></trkpt><trkpt lat="36.3396639" lon="-2.5088007"><ele>0.0</ele><time>2026-04-29T07:53:14.093Z</time></trkpt><trkpt lat="36.3396758" lon="-2.5086906"><ele>0.0</ele><time>2026-04-29T07:53:15.093Z</time></trkpt><trkpt lat="36.3396745" lon="-2.5085758"><ele>0.0</ele><time>2026-04-29T07:53:16.093Z</time></trkpt><trkpt lat="36.3396907" lon="-2.5084681"><ele>0.0</ele><time>2026-04-29T07:53:17.092Z</time></trkpt><trkpt lat="36.3397061" lon="-2.5083613"><ele>0.0</ele><time>2026-04-29T07:53:18.092Z</time></trkpt><trkpt lat="36.3397052" lon="-2.508252"><ele>0.0</ele><time>2026-04-29T07:53:19.092Z</time></trkpt><trkpt lat="36.3397192" lon="-2.5081446"><ele>0.0</ele><time>2026-04-29T07:53:20.092Z</time></trkpt><trkpt lat="36.3397299" lon="-2.5080381"><ele>0.0</ele><time>2026-04-29T07:53:21.093Z</time></trkpt><trkpt lat="36.3397539" lon="-2.5078127"><ele>0.0</ele><time>2026-04-29T07:53:23.093Z</time></trkpt><trkpt lat="36.3397582" lon="-2.5077015"><ele>0.0</ele><time>2026-04-29T07:53:24.092Z</time></trkpt><trkpt lat="36.3397666" lon="-2.5075932"><ele>0.0</ele><time>2026-04-29T07:53:25.093Z</time></trkpt><trkpt lat="36.3397748" lon="-2.5074866"><ele>0.0</ele><time>2026-04-29T07:53:26.092Z</time></trkpt><trkpt lat="36.3397736" lon="-2.5073758"><ele>0.0</ele><time>2026-04-29T07:53:27.093Z</time></trkpt><trkpt lat="36.3397814" lon="-2.5072668"><ele>0.0</ele><time>2026-04-29T07:53:28.093Z</time></trkpt><trkpt lat="36.3397915" lon="-2.5071614"><ele>0.0</ele><time>2026-04-29T07:53:29.093Z</time></trkpt><trkpt lat="36.3398029" lon="-2.5070566"><ele>0.0</ele><time>2026-04-29T07:53:30.093Z</time></trkpt><trkpt lat="36.3398148" lon="-2.5069513"><ele>0.0</ele><time>2026-04-29T07:53:31.093Z</time></trkpt><trkpt lat="36.3398098" lon="-2.5068435"><ele>0.0</ele><time>2026-04-29T07:53:32.092Z</time></trkpt><trkpt lat="36.3398177" lon="-2.5067382"><ele>0.0</ele><time>2026-04-29T07:53:33.093Z</time></trkpt><trkpt lat="36.3398297" lon="-2.5066349"><ele>0.0</ele><time>2026-04-29T07:53:34.093Z</time></trkpt><trkpt lat="36.339849" lon="-2.5065271"><ele>0.0</ele><time>2026-04-29T07:53:35.093Z</time></trkpt><trkpt lat="36.3398653" lon="-2.5064184"><ele>0.0</ele><time>2026-04-29T07:53:36.092Z</time></trkpt><trkpt lat="36.3398792" lon="-2.5063069"><ele>0.0</ele><time>2026-04-29T07:53:37.093Z</time></trkpt><trkpt lat="36.3398985" lon="-2.5062022"><ele>0.0</ele><time>2026-04-29T07:53:38.093Z</time></trkpt><trkpt lat="36.3399109" lon="-2.5060968"><ele>0.0</ele><time>2026-04-29T07:53:39.093Z</time></trkpt><trkpt lat="36.339925" lon="-2.50599"><ele>0.0</ele><time>2026-04-29T07:53:40.093Z</time></trkpt><trkpt lat="36.3399414" lon="-2.5058794"><ele>0.0</ele><time>2026-04-29T07:53:41.092Z</time></trkpt><trkpt lat="36.3399712" lon="-2.5056649"><ele>0.0</ele><time>2026-04-29T07:53:43.092Z</time></trkpt><trkpt lat="36.3399867" lon="-2.5055564"><ele>0.0</ele><time>2026-04-29T07:53:44.092Z</time></trkpt><trkpt lat="36.3399991" lon="-2.50545"><ele>0.0</ele><time>2026-04-29T07:53:45.093Z</time></trkpt><trkpt lat="36.340015" lon="-2.5053432"><ele>0.0</ele><time>2026-04-29T07:53:46.092Z</time></trkpt><trkpt lat="36.3400319" lon="-2.5052364"><ele>0.0</ele><time>2026-04-29T07:53:47.093Z</time></trkpt><trkpt lat="36.340047" lon="-2.505131"><ele>0.0</ele><time>2026-04-29T07:53:48.093Z</time></trkpt><trkpt lat="36.3400663" lon="-2.5050275"><ele>0.0</ele><time>2026-04-29T07:53:49.092Z</time></trkpt><trkpt lat="36.340088" lon="-2.5049215"><ele>0.0</ele><time>2026-04-29T07:53:50.092Z</time></trkpt><trkpt lat="36.3401043" lon="-2.5048149"><ele>0.0</ele><time>2026-04-29T07:53:51.092Z</time></trkpt><trkpt lat="36.3401278" lon="-2.5047081"><ele>0.0</ele><time>2026-04-29T07:53:52.093Z</time></trkpt><trkpt lat="36.340143" lon="-2.5045986"><ele>0.0</ele><time>2026-04-29T07:53:53.092Z</time></trkpt><trkpt lat="36.3401693" lon="-2.504487"><ele>0.0</ele><time>2026-04-29T07:53:54.092Z</time></trkpt><trkpt lat="36.340184" lon="-2.5043778"><ele>0.0</ele><time>2026-04-29T07:53:55.092Z</time></trkpt><trkpt lat="36.340204" lon="-2.5042712"><ele>0.0</ele><time>2026-04-29T07:53:56.093Z</time></trkpt><trkpt lat="36.3402239" lon="-2.5041663"><ele>0.0</ele><time>2026-04-29T07:53:57.093Z</time></trkpt><trkpt lat="36.3402592" lon="-2.5040555"><ele>0.0</ele><time>2026-04-29T07:53:58.093Z</time></trkpt><trkpt lat="36.3402724" lon="-2.5039494"><ele>0.0</ele><time>2026-04-29T07:53:59.092Z</time></trkpt><trkpt lat="36.3402824" lon="-2.5038427"><ele>0.0</ele><time>2026-04-29T07:54:00.092Z</time></trkpt><trkpt lat="36.3402933" lon="-2.5037349"><ele>0.0</ele><time>2026-04-29T07:54:01.092Z</time></trkpt><trkpt lat="36.3403108" lon="-2.5036248"><ele>0.0</ele><time>2026-04-29T07:54:02.093Z</time></trkpt><trkpt lat="36.3403347" lon="-2.5034107"><ele>0.0</ele><time>2026-04-29T07:54:04.092Z</time></trkpt><trkpt lat="36.3403455" lon="-2.5033061"><ele>0.0</ele><time>2026-04-29T07:54:05.092Z</time></trkpt><trkpt lat="36.3403537" lon="-2.5032013"><ele>0.0</ele><time>2026-04-29T07:54:06.093Z</time></trkpt><trkpt lat="36.3403645" lon="-2.5030963"><ele>0.0</ele><time>2026-04-29T07:54:07.093Z</time></trkpt><trkpt lat="36.3403805" lon="-2.5029899"><ele>0.0</ele><time>2026-04-29T07:54:08.092Z</time></trkpt><trkpt lat="36.3403959" lon="-2.5028787"><ele>0.0</ele><time>2026-04-29T07:54:09.092Z</time></trkpt><trkpt lat="36.3404137" lon="-2.5027729"><ele>0.0</ele><time>2026-04-29T07:54:10.092Z</time></trkpt><trkpt lat="36.3404334" lon="-2.5026664"><ele>0.0</ele><time>2026-04-29T07:54:11.092Z</time></trkpt><trkpt lat="36.3404566" lon="-2.5025598"><ele>0.0</ele><time>2026-04-29T07:54:12.093Z</time></trkpt><trkpt lat="36.3404778" lon="-2.5024529"><ele>0.0</ele><time>2026-04-29T07:54:13.093Z</time></trkpt><trkpt lat="36.3404982" lon="-2.5023493"><ele>0.0</ele><time>2026-04-29T07:54:14.093Z</time></trkpt><trkpt lat="36.3405122" lon="-2.5022416"><ele>0.0</ele><time>2026-04-29T07:54:15.092Z</time></trkpt><trkpt lat="36.3405297" lon="-2.5021346"><ele>0.0</ele><time>2026-04-29T07:54:16.092Z</time></trkpt><trkpt lat="36.3405509" lon="-2.5020265"><ele>0.0</ele><time>2026-04-29T07:54:17.093Z</time></trkpt><trkpt lat="36.3405697" lon="-2.5019224"><ele>0.0</ele><time>2026-04-29T07:54:18.092Z</time></trkpt><trkpt lat="36.3405876" lon="-2.5018135"><ele>0.0</ele><time>2026-04-29T07:54:19.092Z</time></trkpt><trkpt lat="36.3406075" lon="-2.5017021"><ele>0.0</ele><time>2026-04-29T07:54:20.092Z</time></trkpt><trkpt lat="36.3406275" lon="-2.5015961"><ele>0.0</ele><time>2026-04-29T07:54:21.093Z</time></trkpt><trkpt lat="36.3406434" lon="-2.5014945"><ele>0.0</ele><time>2026-04-29T07:54:22.092Z</time></trkpt><trkpt lat="36.3406531" lon="-2.5013873"><ele>0.0</ele><time>2026-04-29T07:54:23.093Z</time></trkpt><trkpt lat="36.340687" lon="-2.5011699"><ele>0.0</ele><time>2026-04-29T07:54:25.093Z</time></trkpt><trkpt lat="36.3406996" lon="-2.5010632"><ele>0.0</ele><time>2026-04-29T07:54:26.092Z</time></trkpt><trkpt lat="36.340711" lon="-2.5009508"><ele>0.0</ele><time>2026-04-29T07:54:27.093Z</time></trkpt><trkpt lat="36.3407205" lon="-2.500839"><ele>0.0</ele><time>2026-04-29T07:54:28.093Z</time></trkpt><trkpt lat="36.3407349" lon="-2.5007277"><ele>0.0</ele><time>2026-04-29T07:54:29.093Z</time></trkpt><trkpt lat="36.3407401" lon="-2.5006173"><ele>0.0</ele><time>2026-04-29T07:54:30.092Z</time></trkpt><trkpt lat="36.3407464" lon="-2.5005082"><ele>0.0</ele><time>2026-04-29T07:54:31.092Z</time></trkpt><trkpt lat="36.3407575" lon="-2.5004013"><ele>0.0</ele><time>2026-04-29T07:54:32.092Z</time></trkpt><trkpt lat="36.3407677" lon="-2.500293"><ele>0.0</ele><time>2026-04-29T07:54:33.092Z</time></trkpt><trkpt lat="36.340782" lon="-2.5001862"><ele>0.0</ele><time>2026-04-29T07:54:34.092Z</time></trkpt><trkpt lat="36.3407955" lon="-2.5000799"><ele>0.0</ele><time>2026-04-29T07:54:35.092Z</time></trkpt><trkpt lat="36.3408076" lon="-2.4999688"><ele>0.0</ele><time>2026-04-29T07:54:36.093Z</time></trkpt><trkpt lat="36.3408237" lon="-2.4998585"><ele>0.0</ele><time>2026-04-29T07:54:37.093Z</time></trkpt><trkpt lat="36.3408514" lon="-2.4997442"><ele>0.0</ele><time>2026-04-29T07:54:38.093Z</time></trkpt><trkpt lat="36.3408674" lon="-2.4996368"><ele>0.0</ele><time>2026-04-29T07:54:39.092Z</time></trkpt><trkpt lat="36.3408978" lon="-2.4995245"><ele>0.0</ele><time>2026-04-29T07:54:40.093Z</time></trkpt><trkpt lat="36.3409254" lon="-2.4994121"><ele>0.0</ele><time>2026-04-29T07:54:41.093Z</time></trkpt><trkpt lat="36.3409424" lon="-2.4993044"><ele>0.0</ele><time>2026-04-29T07:54:42.092Z</time></trkpt><trkpt lat="36.3409595" lon="-2.4991962"><ele>0.0</ele><time>2026-04-29T07:54:43.092Z</time></trkpt><trkpt lat="36.3409774" lon="-2.4990884"><ele>0.0</ele><time>2026-04-29T07:54:44.093Z</time></trkpt><trkpt lat="36.341023" lon="-2.4988774"><ele>0.0</ele><time>2026-04-29T07:54:46.092Z</time></trkpt><trkpt lat="36.3410389" lon="-2.4987671"><ele>0.0</ele><time>2026-04-29T07:54:47.092Z</time></trkpt><trkpt lat="36.3410516" lon="-2.4986585"><ele>0.0</ele><time>2026-04-29T07:54:48.093Z</time></trkpt><trkpt lat="36.3410632" lon="-2.4985516"><ele>0.0</ele><time>2026-04-29T07:54:49.093Z</time></trkpt><trkpt lat="36.3410756" lon="-2.4984461"><ele>0.0</ele><time>2026-04-29T07:54:50.092Z</time></trkpt><trkpt lat="36.3410948" lon="-2.4983399"><ele>0.0</ele><time>2026-04-29T07:54:51.093Z</time></trkpt><trkpt lat="36.3411097" lon="-2.4982333"><ele>0.0</ele><time>2026-04-29T07:54:52.093Z</time></trkpt><trkpt lat="36.3411259" lon="-2.4981237"><ele>0.0</ele><time>2026-04-29T07:54:53.093Z</time></trkpt><trkpt lat="36.3411353" lon="-2.4980134"><ele>0.0</ele><time>2026-04-29T07:54:54.092Z</time></trkpt><trkpt lat="36.341152" lon="-2.4979078"><ele>0.0</ele><time>2026-04-29T07:54:55.092Z</time></trkpt><trkpt lat="36.3411672" lon="-2.4978047"><ele>0.0</ele><time>2026-04-29T07:54:56.093Z</time></trkpt><trkpt lat="36.3411809" lon="-2.4976967"><ele>0.0</ele><time>2026-04-29T07:54:57.093Z</time></trkpt><trkpt lat="36.3411931" lon="-2.497587"><ele>0.0</ele><time>2026-04-29T07:54:58.092Z</time></trkpt><trkpt lat="36.341209" lon="-2.4974816"><ele>0.0</ele><time>2026-04-29T07:54:59.093Z</time></trkpt><trkpt lat="36.3412232" lon="-2.4973754"><ele>0.0</ele><time>2026-04-29T07:55:00.093Z</time></trkpt><trkpt lat="36.3412367" lon="-2.4972713"><ele>0.0</ele><time>2026-04-29T07:55:01.092Z</time></trkpt><trkpt lat="36.3412453" lon="-2.4971623"><ele>0.0</ele><time>2026-04-29T07:55:02.093Z</time></trkpt><trkpt lat="36.3412547" lon="-2.4970492"><ele>0.0</ele><time>2026-04-29T07:55:03.092Z</time></trkpt><trkpt lat="36.3412462" lon="-2.4969431"><ele>0.0</ele><time>2026-04-29T07:55:04.093Z</time></trkpt><trkpt lat="36.3412587" lon="-2.4968399"><ele>0.0</ele><time>2026-04-29T07:55:05.092Z</time></trkpt><trkpt lat="36.3412776" lon="-2.4966344"><ele>0.0</ele><time>2026-04-29T07:55:07.093Z</time></trkpt><trkpt lat="36.3412911" lon="-2.4965302"><ele>0.0</ele><time>2026-04-29T07:55:08.092Z</time></trkpt><trkpt lat="36.3413021" lon="-2.4964205"><ele>0.0</ele><time>2026-04-29T07:55:09.092Z</time></trkpt><trkpt lat="36.3413066" lon="-2.496302"><ele>0.0</ele><time>2026-04-29T07:55:10.092Z</time></trkpt><trkpt lat="36.3413396" lon="-2.4961877"><ele>0.0</ele><time>2026-04-29T07:55:11.093Z</time></trkpt><trkpt lat="36.3413564" lon="-2.4960845"><ele>0.0</ele><time>2026-04-29T07:55:12.092Z</time></trkpt><trkpt lat="36.34137" lon="-2.4959842"><ele>0.0</ele><time>2026-04-29T07:55:13.092Z</time></trkpt><trkpt lat="36.341389" lon="-2.495871"><ele>0.0</ele><time>2026-04-29T07:55:14.093Z</time></trkpt><trkpt lat="36.3414045" lon="-2.4957659"><ele>0.0</ele><time>2026-04-29T07:55:15.092Z</time></trkpt><trkpt lat="36.3414185" lon="-2.495667"><ele>0.0</ele><time>2026-04-29T07:55:16.092Z</time></trkpt><trkpt lat="36.341411" lon="-2.4955629"><ele>0.0</ele><time>2026-04-29T07:55:17.092Z</time></trkpt><trkpt lat="36.3414115" lon="-2.4954592"><ele>0.0</ele><time>2026-04-29T07:55:18.092Z</time></trkpt><trkpt lat="36.3414253" lon="-2.495353"><ele>0.0</ele><time>2026-04-29T07:55:19.092Z</time></trkpt><trkpt lat="36.3414293" lon="-2.4952394"><ele>0.0</ele><time>2026-04-29T07:55:20.092Z</time></trkpt><trkpt lat="36.3414355" lon="-2.4951272"><ele>0.0</ele><time>2026-04-29T07:55:21.093Z</time></trkpt><trkpt lat="36.341444" lon="-2.4950212"><ele>0.0</ele><time>2026-04-29T07:55:22.093Z</time></trkpt><trkpt lat="36.3414495" lon="-2.4949209"><ele>0.0</ele><time>2026-04-29T07:55:23.093Z</time></trkpt><trkpt lat="36.3414475" lon="-2.4948108"><ele>0.0</ele><time>2026-04-29T07:55:24.092Z</time></trkpt><trkpt lat="36.341471" lon="-2.4946937"><ele>0.0</ele><time>2026-04-29T07:55:25.093Z</time></trkpt><trkpt lat="36.3414877" lon="-2.4945852"><ele>0.0</ele><time>2026-04-29T07:55:26.092Z</time></trkpt><trkpt lat="36.3415298" lon="-2.4943823"><ele>0.0</ele><time>2026-04-29T07:55:28.092Z</time></trkpt><trkpt lat="36.3415723" lon="-2.4942767"><ele>0.0</ele><time>2026-04-29T07:55:29.092Z</time></trkpt><trkpt lat="36.3416028" lon="-2.4941685"><ele>0.0</ele><time>2026-04-29T07:55:30.093Z</time></trkpt><trkpt lat="36.3416216" lon="-2.4940602"><ele>0.0</ele><time>2026-04-29T07:55:31.092Z</time></trkpt><trkpt lat="36.3416372" lon="-2.4939546"><ele>0.0</ele><time>2026-04-29T07:55:32.092Z</time></trkpt><trkpt lat="36.3416407" lon="-2.4938495"><ele>0.0</ele><time>2026-04-29T07:55:33.092Z</time></trkpt><trkpt lat="36.3416448" lon="-2.493743"><ele>0.0</ele><time>2026-04-29T07:55:34.093Z</time></trkpt><trkpt lat="36.3416473" lon="-2.4936365"><ele>0.0</ele><time>2026-04-29T07:55:35.092Z</time></trkpt><trkpt lat="36.3416517" lon="-2.4935312"><ele>0.0</ele><time>2026-04-29T07:55:36.092Z</time></trkpt><trkpt lat="36.3416605" lon="-2.4934266"><ele>0.0</ele><time>2026-04-29T07:55:37.092Z</time></trkpt><trkpt lat="36.3416673" lon="-2.4933185"><ele>0.0</ele><time>2026-04-29T07:55:38.092Z</time></trkpt><trkpt lat="36.3416819" lon="-2.4932116"><ele>0.0</ele><time>2026-04-29T07:55:39.093Z</time></trkpt><trkpt lat="36.3417016" lon="-2.4931049"><ele>0.0</ele><time>2026-04-29T07:55:40.092Z</time></trkpt><trkpt lat="36.3417134" lon="-2.4929966"><ele>0.0</ele><time>2026-04-29T07:55:41.092Z</time></trkpt><trkpt lat="36.3417352" lon="-2.4928796"><ele>0.0</ele><time>2026-04-29T07:55:42.092Z</time></trkpt><trkpt lat="36.3417763" lon="-2.4927742"><ele>0.0</ele><time>2026-04-29T07:55:43.093Z</time></trkpt><trkpt lat="36.341791" lon="-2.4926665"><ele>0.0</ele><time>2026-04-29T07:55:44.093Z</time></trkpt><trkpt lat="36.3418017" lon="-2.492557"><ele>0.0</ele><time>2026-04-29T07:55:45.092Z</time></trkpt><trkpt lat="36.341759" lon="-2.4924441"><ele>0.0</ele><time>2026-04-29T07:55:46.093Z</time></trkpt><trkpt lat="36.3417408" lon="-2.4923294"><ele>0.0</ele><time>2026-04-29T07:55:47.092Z</time></trkpt><trkpt lat="36.3417604" lon="-2.492116"><ele>0.0</ele><time>2026-04-29T07:55:49.092Z</time></trkpt><trkpt lat="36.3417771" lon="-2.4920066"><ele>0.0</ele><time>2026-04-29T07:55:50.092Z</time></trkpt><trkpt lat="36.3417997" lon="-2.4918909"><ele>0.0</ele><time>2026-04-29T07:55:51.093Z</time></trkpt><trkpt lat="36.3418136" lon="-2.4917776"><ele>0.0</ele><time>2026-04-29T07:55:52.093Z</time></trkpt><trkpt lat="36.3418391" lon="-2.4916656"><ele>0.0</ele><time>2026-04-29T07:55:53.093Z</time></trkpt><trkpt lat="36.3418587" lon="-2.4915538"><ele>0.0</ele><time>2026-04-29T07:55:54.092Z</time></trkpt><trkpt lat="36.3418692" lon="-2.4914344"><ele>0.0</ele><time>2026-04-29T07:55:55.093Z</time></trkpt><trkpt lat="36.3418848" lon="-2.4913274"><ele>0.0</ele><time>2026-04-29T07:55:56.092Z</time></trkpt><trkpt lat="36.3419" lon="-2.4912258"><ele>0.0</ele><time>2026-04-29T07:55:57.093Z</time></trkpt><trkpt lat="36.3419096" lon="-2.491117"><ele>0.0</ele><time>2026-04-29T07:55:58.092Z</time></trkpt><trkpt lat="36.3419181" lon="-2.491005"><ele>0.0</ele><time>2026-04-29T07:55:59.092Z</time></trkpt><trkpt lat="36.341932" lon="-2.4908979"><ele>0.0</ele><time>2026-04-29T07:56:00.093Z</time></trkpt><trkpt lat="36.3419462" lon="-2.4907926"><ele>0.0</ele><time>2026-04-29T07:56:01.093Z</time></trkpt><trkpt lat="36.3419617" lon="-2.4906847"><ele>0.0</ele><time>2026-04-29T07:56:02.092Z</time></trkpt><trkpt lat="36.3419715" lon="-2.4905779"><ele>0.0</ele><time>2026-04-29T07:56:03.092Z</time></trkpt><trkpt lat="36.3419881" lon="-2.4904729"><ele>0.0</ele><time>2026-04-29T07:56:04.092Z</time></trkpt><trkpt lat="36.342004" lon="-2.4903692"><ele>0.0</ele><time>2026-04-29T07:56:05.093Z</time></trkpt><trkpt lat="36.3420152" lon="-2.4902599"><ele>0.0</ele><time>2026-04-29T07:56:06.093Z</time></trkpt><trkpt lat="36.3420245" lon="-2.4901571"><ele>0.0</ele><time>2026-04-29T07:56:07.093Z</time></trkpt><trkpt lat="36.3420298" lon="-2.4900546"><ele>0.0</ele><time>2026-04-29T07:56:08.093Z</time></trkpt><trkpt lat="36.342056" lon="-2.4898525"><ele>0.0</ele><time>2026-04-29T07:56:10.093Z</time></trkpt><trkpt lat="36.3420767" lon="-2.4897425"><ele>0.0</ele><time>2026-04-29T07:56:11.092Z</time></trkpt><trkpt lat="36.3421042" lon="-2.4896352"><ele>0.0</ele><time>2026-04-29T07:56:12.092Z</time></trkpt><trkpt lat="36.3421251" lon="-2.4895269"><ele>0.0</ele><time>2026-04-29T07:56:13.093Z</time></trkpt><trkpt lat="36.3421386" lon="-2.4894159"><ele>0.0</ele><time>2026-04-29T07:56:14.092Z</time></trkpt><trkpt lat="36.3421548" lon="-2.4893144"><ele>0.0</ele><time>2026-04-29T07:56:15.092Z</time></trkpt><trkpt lat="36.3421747" lon="-2.489214"><ele>0.0</ele><time>2026-04-29T07:56:16.092Z</time></trkpt><trkpt lat="36.3421901" lon="-2.4891129"><ele>0.0</ele><time>2026-04-29T07:56:17.093Z</time></trkpt><trkpt lat="36.3421906" lon="-2.4889968"><ele>0.0</ele><time>2026-04-29T07:56:18.093Z</time></trkpt><trkpt lat="36.3422002" lon="-2.4888898"><ele>0.0</ele><time>2026-04-29T07:56:19.092Z</time></trkpt><trkpt lat="36.3422174" lon="-2.488789"><ele>0.0</ele><time>2026-04-29T07:56:20.093Z</time></trkpt><trkpt lat="36.3422305" lon="-2.488685"><ele>0.0</ele><time>2026-04-29T07:56:21.093Z</time></trkpt><trkpt lat="36.3422449" lon="-2.4885782"><ele>0.0</ele><time>2026-04-29T07:56:22.093Z</time></trkpt><trkpt lat="36.3422522" lon="-2.4884687"><ele>0.0</ele><time>2026-04-29T07:56:23.092Z</time></trkpt><trkpt lat="36.3422713" lon="-2.48836"><ele>0.0</ele><time>2026-04-29T07:56:24.092Z</time></trkpt><trkpt lat="36.342297" lon="-2.4882504"><ele>0.0</ele><time>2026-04-29T07:56:25.092Z</time></trkpt><trkpt lat="36.3423111" lon="-2.4881431"><ele>0.0</ele><time>2026-04-29T07:56:26.093Z</time></trkpt><trkpt lat="36.3423259" lon="-2.4880352"><ele>0.0</ele><time>2026-04-29T07:56:27.092Z</time></trkpt><trkpt lat="36.3423437" lon="-2.4879284"><ele>0.0</ele><time>2026-04-29T07:56:28.092Z</time></trkpt><trkpt lat="36.3423561" lon="-2.4878228"><ele>0.0</ele><time>2026-04-29T07:56:29.092Z</time></trkpt><trkpt lat="36.3423861" lon="-2.4876082"><ele>0.0</ele><time>2026-04-29T07:56:31.093Z</time></trkpt><trkpt lat="36.3424007" lon="-2.4875015"><ele>0.0</ele><time>2026-04-29T07:56:32.092Z</time></trkpt><trkpt lat="36.3424069" lon="-2.4873947"><ele>0.0</ele><time>2026-04-29T07:56:33.093Z</time></trkpt><trkpt lat="36.3424058" lon="-2.4872823"><ele>0.0</ele><time>2026-04-29T07:56:34.092Z</time></trkpt><trkpt lat="36.3424127" lon="-2.487169"><ele>0.0</ele><time>2026-04-29T07:56:35.093Z</time></trkpt><trkpt lat="36.3424314" lon="-2.4870568"><ele>0.0</ele><time>2026-04-29T07:56:36.092Z</time></trkpt><trkpt lat="36.3424563" lon="-2.4869406"><ele>0.0</ele><time>2026-04-29T07:56:37.092Z</time></trkpt><trkpt lat="36.3424727" lon="-2.4868283"><ele>0.0</ele><time>2026-04-29T07:56:38.093Z</time></trkpt><trkpt lat="36.3424907" lon="-2.4867212"><ele>0.0</ele><time>2026-04-29T07:56:39.092Z</time></trkpt><trkpt lat="36.3424883" lon="-2.4866144"><ele>0.0</ele><time>2026-04-29T07:56:40.093Z</time></trkpt><trkpt lat="36.3425051" lon="-2.4865075"><ele>0.0</ele><time>2026-04-29T07:56:41.093Z</time></trkpt><trkpt lat="36.3425231" lon="-2.4864025"><ele>0.0</ele><time>2026-04-29T07:56:42.092Z</time></trkpt><trkpt lat="36.3425455" lon="-2.4862987"><ele>0.0</ele><time>2026-04-29T07:56:43.092Z</time></trkpt><trkpt lat="36.3425648" lon="-2.4861986"><ele>0.0</ele><time>2026-04-29T07:56:44.093Z</time></trkpt><trkpt lat="36.3425749" lon="-2.486087"><ele>0.0</ele><time>2026-04-29T07:56:45.092Z</time></trkpt><trkpt lat="36.3425944" lon="-2.4859879"><ele>0.0</ele><time>2026-04-29T07:56:46.093Z</time></trkpt><trkpt lat="36.3426118" lon="-2.4858871"><ele>0.0</ele><time>2026-04-29T07:56:47.092Z</time></trkpt><trkpt lat="36.34263" lon="-2.4857785"><ele>0.0</ele><time>2026-04-29T07:56:48.093Z</time></trkpt><trkpt lat="36.3426454" lon="-2.4856698"><ele>0.0</ele><time>2026-04-29T07:56:49.092Z</time></trkpt><trkpt lat="36.3426651" lon="-2.4855599"><ele>0.0</ele><time>2026-04-29T07:56:50.093Z</time></trkpt><trkpt lat="36.3427057" lon="-2.4853423"><ele>0.0</ele><time>2026-04-29T07:56:52.093Z</time></trkpt><trkpt lat="36.3427098" lon="-2.4852422"><ele>0.0</ele><time>2026-04-29T07:56:53.092Z</time></trkpt><trkpt lat="36.34271" lon="-2.4851422"><ele>0.0</ele><time>2026-04-29T07:56:54.093Z</time></trkpt><trkpt lat="36.3427239" lon="-2.4850361"><ele>0.0</ele><time>2026-04-29T07:56:55.092Z</time></trkpt><trkpt lat="36.342738" lon="-2.4849294"><ele>0.0</ele><time>2026-04-29T07:56:56.092Z</time></trkpt><trkpt lat="36.3427479" lon="-2.4848264"><ele>0.0</ele><time>2026-04-29T07:56:57.093Z</time></trkpt><trkpt lat="36.3427619" lon="-2.4847177"><ele>0.0</ele><time>2026-04-29T07:56:58.093Z</time></trkpt><trkpt lat="36.3427802" lon="-2.4846116"><ele>0.0</ele><time>2026-04-29T07:56:59.092Z</time></trkpt><trkpt lat="36.3428153" lon="-2.4845049"><ele>0.0</ele><time>2026-04-29T07:57:00.093Z</time></trkpt><trkpt lat="36.3428408" lon="-2.4843986"><ele>0.0</ele><time>2026-04-29T07:57:01.092Z</time></trkpt><trkpt lat="36.3428701" lon="-2.484283"><ele>0.0</ele><time>2026-04-29T07:57:02.092Z</time></trkpt><trkpt lat="36.3429033" lon="-2.4841748"><ele>0.0</ele><time>2026-04-29T07:57:03.093Z</time></trkpt><trkpt lat="36.342924" lon="-2.4840708"><ele>0.0</ele><time>2026-04-29T07:57:04.093Z</time></trkpt><trkpt lat="36.342943" lon="-2.4839588"><ele>0.0</ele><time>2026-04-29T07:57:05.092Z</time></trkpt><trkpt lat="36.34296" lon="-2.4838556"><ele>0.0</ele><time>2026-04-29T07:57:06.093Z</time></trkpt><trkpt lat="36.3429767" lon="-2.4837486"><ele>0.0</ele><time>2026-04-29T07:57:07.092Z</time></trkpt><trkpt lat="36.3429907" lon="-2.4836446"><ele>0.0</ele><time>2026-04-29T07:57:08.092Z</time></trkpt><trkpt lat="36.3430082" lon="-2.4835439"><ele>0.0</ele><time>2026-04-29T07:57:09.092Z</time></trkpt><trkpt lat="36.3430275" lon="-2.4834313"><ele>0.0</ele><time>2026-04-29T07:57:10.093Z</time></trkpt><trkpt lat="36.3430467" lon="-2.4833166"><ele>0.0</ele><time>2026-04-29T07:57:11.093Z</time></trkpt><trkpt lat="36.3430439" lon="-2.483103"><ele>0.0</ele><time>2026-04-29T07:57:13.093Z</time></trkpt><trkpt lat="36.3430534" lon="-2.4830014"><ele>0.0</ele><time>2026-04-29T07:57:14.092Z</time></trkpt><trkpt lat="36.3430662" lon="-2.4829055"><ele>0.0</ele><time>2026-04-29T07:57:15.092Z</time></trkpt><trkpt lat="36.3430827" lon="-2.4828087"><ele>0.0</ele><time>2026-04-29T07:57:16.092Z</time></trkpt><trkpt lat="36.343082" lon="-2.4827061"><ele>0.0</ele><time>2026-04-29T07:57:17.092Z</time></trkpt><trkpt lat="36.3430989" lon="-2.4826025"><ele>0.0</ele><time>2026-04-29T07:57:18.092Z</time></trkpt><trkpt lat="36.3431073" lon="-2.4824979"><ele>0.0</ele><time>2026-04-29T07:57:19.093Z</time></trkpt><trkpt lat="36.3431261" lon="-2.4823886"><ele>0.0</ele><time>2026-04-29T07:57:20.092Z</time></trkpt><trkpt lat="36.3431297" lon="-2.4822716"><ele>0.0</ele><time>2026-04-29T07:57:21.092Z</time></trkpt><trkpt lat="36.343144" lon="-2.4821576"><ele>0.0</ele><time>2026-04-29T07:57:22.093Z</time></trkpt><trkpt lat="36.3431442" lon="-2.4820473"><ele>0.0</ele><time>2026-04-29T07:57:23.092Z</time></trkpt><trkpt lat="36.3431498" lon="-2.4819485"><ele>0.0</ele><time>2026-04-29T07:57:24.093Z</time></trkpt><trkpt lat="36.3431353" lon="-2.4818389"><ele>0.0</ele><time>2026-04-29T07:57:25.092Z</time></trkpt><trkpt lat="36.3431434" lon="-2.481735"><ele>0.0</ele><time>2026-04-29T07:57:26.092Z</time></trkpt><trkpt lat="36.3431535" lon="-2.4816284"><ele>0.0</ele><time>2026-04-29T07:57:27.093Z</time></trkpt><trkpt lat="36.3431724" lon="-2.4815132"><ele>0.0</ele><time>2026-04-29T07:57:28.092Z</time></trkpt><trkpt lat="36.3431925" lon="-2.4814039"><ele>0.0</ele><time>2026-04-29T07:57:29.093Z</time></trkpt><trkpt lat="36.3432141" lon="-2.4812966"><ele>0.0</ele><time>2026-04-29T07:57:30.092Z</time></trkpt><trkpt lat="36.3432324" lon="-2.4811882"><ele>0.0</ele><time>2026-04-29T07:57:31.092Z</time></trkpt><trkpt lat="36.3432501" lon="-2.4810832"><ele>0.0</ele><time>2026-04-29T07:57:32.093Z</time></trkpt><trkpt lat="36.3432783" lon="-2.4808708"><ele>0.0</ele><time>2026-04-29T07:57:34.092Z</time></trkpt><trkpt lat="36.3432933" lon="-2.4807652"><ele>0.0</ele><time>2026-04-29T07:57:35.093Z</time></trkpt><trkpt lat="36.3433208" lon="-2.4806542"><ele>0.0</ele><time>2026-04-29T07:57:36.093Z</time></trkpt><trkpt lat="36.3433381" lon="-2.4805501"><ele>0.0</ele><time>2026-04-29T07:57:37.092Z</time></trkpt><trkpt lat="36.3433532" lon="-2.4804394"><ele>0.0</ele><time>2026-04-29T07:57:38.093Z</time></trkpt><trkpt lat="36.3433695" lon="-2.4803335"><ele>0.0</ele><time>2026-04-29T07:57:39.093Z</time></trkpt><trkpt lat="36.3433882" lon="-2.4802283"><ele>0.0</ele><time>2026-04-29T07:57:40.092Z</time></trkpt><trkpt lat="36.3434196" lon="-2.4801228"><ele>0.0</ele><time>2026-04-29T07:57:41.093Z</time></trkpt><trkpt lat="36.3434435" lon="-2.4800166"><ele>0.0</ele><time>2026-04-29T07:57:42.092Z</time></trkpt><trkpt lat="36.343463" lon="-2.4799101"><ele>0.0</ele><time>2026-04-29T07:57:43.093Z</time></trkpt><trkpt lat="36.3434785" lon="-2.4797989"><ele>0.0</ele><time>2026-04-29T07:57:44.093Z</time></trkpt><trkpt lat="36.3435059" lon="-2.4796885"><ele>0.0</ele><time>2026-04-29T07:57:45.092Z</time></trkpt><trkpt lat="36.343532" lon="-2.4795799"><ele>0.0</ele><time>2026-04-29T07:57:46.092Z</time></trkpt><trkpt lat="36.3435549" lon="-2.4794793"><ele>0.0</ele><time>2026-04-29T07:57:47.092Z</time></trkpt><trkpt lat="36.3435737" lon="-2.4793735"><ele>0.0</ele><time>2026-04-29T07:57:48.092Z</time></trkpt><trkpt lat="36.3435943" lon="-2.47927"><ele>0.0</ele><time>2026-04-29T07:57:49.093Z</time></trkpt><trkpt lat="36.3436131" lon="-2.479162"><ele>0.0</ele><time>2026-04-29T07:57:50.092Z</time></trkpt><trkpt lat="36.3436328" lon="-2.4790579"><ele>0.0</ele><time>2026-04-29T07:57:51.092Z</time></trkpt><trkpt lat="36.3436357" lon="-2.4789588"><ele>0.0</ele><time>2026-04-29T07:57:52.092Z</time></trkpt><trkpt lat="36.3436485" lon="-2.4788532"><ele>0.0</ele><time>2026-04-29T07:57:53.093Z</time></trkpt><trkpt lat="36.3436804" lon="-2.4786454"><ele>0.0</ele><time>2026-04-29T07:57:55.093Z</time></trkpt><trkpt lat="36.3436965" lon="-2.4785375"><ele>0.0</ele><time>2026-04-29T07:57:56.093Z</time></trkpt><trkpt lat="36.3437162" lon="-2.4784315"><ele>0.0</ele><time>2026-04-29T07:57:57.093Z</time></trkpt><trkpt lat="36.343732" lon="-2.4783239"><ele>0.0</ele><time>2026-04-29T07:57:58.093Z</time></trkpt><trkpt lat="36.3437481" lon="-2.478217"><ele>0.0</ele><time>2026-04-29T07:57:59.093Z</time></trkpt><trkpt lat="36.3437603" lon="-2.4781068"><ele>0.0</ele><time>2026-04-29T07:58:00.092Z</time></trkpt><trkpt lat="36.3437774" lon="-2.4780033"><ele>0.0</ele><time>2026-04-29T07:58:01.092Z</time></trkpt><trkpt lat="36.3437831" lon="-2.4778913"><ele>0.0</ele><time>2026-04-29T07:58:02.093Z</time></trkpt><trkpt lat="36.3438003" lon="-2.4777838"><ele>0.0</ele><time>2026-04-29T07:58:03.093Z</time></trkpt><trkpt lat="36.3438153" lon="-2.4776795"><ele>0.0</ele><time>2026-04-29T07:58:04.093Z</time></trkpt><trkpt lat="36.3438269" lon="-2.4775761"><ele>0.0</ele><time>2026-04-29T07:58:05.093Z</time></trkpt><trkpt lat="36.3438363" lon="-2.4774697"><ele>0.0</ele><time>2026-04-29T07:58:06.092Z</time></trkpt><trkpt lat="36.3438492" lon="-2.4773691"><ele>0.0</ele><time>2026-04-29T07:58:07.093Z</time></trkpt><trkpt lat="36.3438632" lon="-2.4772604"><ele>0.0</ele><time>2026-04-29T07:58:08.093Z</time></trkpt><trkpt lat="36.3439106" lon="-2.477153"><ele>0.0</ele><time>2026-04-29T07:58:09.093Z</time></trkpt><trkpt lat="36.3439366" lon="-2.4770483"><ele>0.0</ele><time>2026-04-29T07:58:10.092Z</time></trkpt><trkpt lat="36.3439841" lon="-2.4769437"><ele>0.0</ele><time>2026-04-29T07:58:11.093Z</time></trkpt><trkpt lat="36.3440005" lon="-2.476838"><ele>0.0</ele><time>2026-04-29T07:58:12.092Z</time></trkpt><trkpt lat="36.3440145" lon="-2.4767316"><ele>0.0</ele><time>2026-04-29T07:58:13.093Z</time></trkpt><trkpt lat="36.3440264" lon="-2.4766296"><ele>0.0</ele><time>2026-04-29T07:58:14.092Z</time></trkpt><trkpt lat="36.3440475" lon="-2.476412"><ele>0.0</ele><time>2026-04-29T07:58:16.092Z</time></trkpt><trkpt lat="36.3440585" lon="-2.4763109"><ele>0.0</ele><time>2026-04-29T07:58:17.093Z</time></trkpt><trkpt lat="36.3440696" lon="-2.476204"><ele>0.0</ele><time>2026-04-29T07:58:18.092Z</time></trkpt><trkpt lat="36.344082" lon="-2.4760978"><ele>0.0</ele><time>2026-04-29T07:58:19.092Z</time></trkpt><trkpt lat="36.3440954" lon="-2.4759915"><ele>0.0</ele><time>2026-04-29T07:58:20.092Z</time></trkpt><trkpt lat="36.3441165" lon="-2.4758834"><ele>0.0</ele><time>2026-04-29T07:58:21.092Z</time></trkpt><trkpt lat="36.3441347" lon="-2.4757725"><ele>0.0</ele><time>2026-04-29T07:58:22.093Z</time></trkpt><trkpt lat="36.3441483" lon="-2.4756584"><ele>0.0</ele><time>2026-04-29T07:58:23.092Z</time></trkpt><trkpt lat="36.3441638" lon="-2.4755474"><ele>0.0</ele><time>2026-04-29T07:58:24.093Z</time></trkpt><trkpt lat="36.3441746" lon="-2.4754415"><ele>0.0</ele><time>2026-04-29T07:58:25.092Z</time></trkpt><trkpt lat="36.3441333" lon="-2.4753321"><ele>0.0</ele><time>2026-04-29T07:58:26.092Z</time></trkpt><trkpt lat="36.3441207" lon="-2.4752264"><ele>0.0</ele><time>2026-04-29T07:58:27.093Z</time></trkpt><trkpt lat="36.3441152" lon="-2.4751154"><ele>0.0</ele><time>2026-04-29T07:58:28.092Z</time></trkpt><trkpt lat="36.3441176" lon="-2.4750097"><ele>0.0</ele><time>2026-04-29T07:58:29.093Z</time></trkpt><trkpt lat="36.3441177" lon="-2.4749047"><ele>0.0</ele><time>2026-04-29T07:58:30.092Z</time></trkpt><trkpt lat="36.3441245" lon="-2.4747984"><ele>0.0</ele><time>2026-04-29T07:58:31.092Z</time></trkpt><trkpt lat="36.3441292" lon="-2.4746927"><ele>0.0</ele><time>2026-04-29T07:58:32.092Z</time></trkpt><trkpt lat="36.3441316" lon="-2.4745867"><ele>0.0</ele><time>2026-04-29T07:58:33.092Z</time></trkpt><trkpt lat="36.3441399" lon="-2.474484"><ele>0.0</ele><time>2026-04-29T07:58:34.092Z</time></trkpt><trkpt lat="36.3441805" lon="-2.4743666"><ele>0.0</ele><time>2026-04-29T07:58:35.092Z</time></trkpt><trkpt lat="36.3442147" lon="-2.4741444"><ele>0.0</ele><time>2026-04-29T07:58:37.093Z</time></trkpt><trkpt lat="36.3442213" lon="-2.4740399"><ele>0.0</ele><time>2026-04-29T07:58:38.093Z</time></trkpt><trkpt lat="36.3442277" lon="-2.4739248"><ele>0.0</ele><time>2026-04-29T07:58:39.092Z</time></trkpt><trkpt lat="36.3442389" lon="-2.47382"><ele>0.0</ele><time>2026-04-29T07:58:40.093Z</time></trkpt><trkpt lat="36.3442433" lon="-2.4737122"><ele>0.0</ele><time>2026-04-29T07:58:41.091Z</time></trkpt><trkpt lat="36.3442508" lon="-2.4735981"><ele>0.0</ele><time>2026-04-29T07:58:42.091Z</time></trkpt><trkpt lat="36.3442581" lon="-2.4734885"><ele>0.0</ele><time>2026-04-29T07:58:43.092Z</time></trkpt><trkpt lat="36.3442573" lon="-2.4733816"><ele>0.0</ele><time>2026-04-29T07:58:44.091Z</time></trkpt><trkpt lat="36.3442834" lon="-2.4732751"><ele>0.0</ele><time>2026-04-29T07:58:45.092Z</time></trkpt><trkpt lat="36.3442821" lon="-2.4731644"><ele>0.0</ele><time>2026-04-29T07:58:46.092Z</time></trkpt><trkpt lat="36.3442989" lon="-2.4730597"><ele>0.0</ele><time>2026-04-29T07:58:47.091Z</time></trkpt><trkpt lat="36.3443087" lon="-2.4729609"><ele>0.0</ele><time>2026-04-29T07:58:48.092Z</time></trkpt><trkpt lat="36.3443305" lon="-2.4728537"><ele>0.0</ele><time>2026-04-29T07:58:49.092Z</time></trkpt><trkpt lat="36.3443571" lon="-2.4727408"><ele>0.0</ele><time>2026-04-29T07:58:50.091Z</time></trkpt><trkpt lat="36.3443839" lon="-2.4726345"><ele>0.0</ele><time>2026-04-29T07:58:51.091Z</time></trkpt><trkpt lat="36.3443966" lon="-2.472535"><ele>0.0</ele><time>2026-04-29T07:58:52.091Z</time></trkpt><trkpt lat="36.3444101" lon="-2.4724338"><ele>0.0</ele><time>2026-04-29T07:58:53.092Z</time></trkpt><trkpt lat="36.3444225" lon="-2.4723323"><ele>0.0</ele><time>2026-04-29T07:58:54.092Z</time></trkpt><trkpt lat="36.3444324" lon="-2.4722251"><ele>0.0</ele><time>2026-04-29T07:58:55.091Z</time></trkpt><trkpt lat="36.3444452" lon="-2.472118"><ele>0.0</ele><time>2026-04-29T07:58:56.092Z</time></trkpt><trkpt lat="36.3444526" lon="-2.4719156"><ele>0.0</ele><time>2026-04-29T07:58:58.091Z</time></trkpt><trkpt lat="36.3444795" lon="-2.4718045"><ele>0.0</ele><time>2026-04-29T07:58:59.091Z</time></trkpt><trkpt lat="36.3444984" lon="-2.4716983"><ele>0.0</ele><time>2026-04-29T07:59:00.091Z</time></trkpt><trkpt lat="36.3445337" lon="-2.4715843"><ele>0.0</ele><time>2026-04-29T07:59:01.092Z</time></trkpt><trkpt lat="36.344565" lon="-2.4714693"><ele>0.0</ele><time>2026-04-29T07:59:02.092Z</time></trkpt><trkpt lat="36.3445822" lon="-2.4713561"><ele>0.0</ele><time>2026-04-29T07:59:03.091Z</time></trkpt><trkpt lat="36.3446043" lon="-2.4712527"><ele>0.0</ele><time>2026-04-29T07:59:04.091Z</time></trkpt><trkpt lat="36.3446246" lon="-2.4711481"><ele>0.0</ele><time>2026-04-29T07:59:05.091Z</time></trkpt><trkpt lat="36.3446468" lon="-2.4710431"><ele>0.0</ele><time>2026-04-29T07:59:06.092Z</time></trkpt><trkpt lat="36.3446535" lon="-2.4709352"><ele>0.0</ele><time>2026-04-29T07:59:07.092Z</time></trkpt><trkpt lat="36.344667" lon="-2.4708241"><ele>0.0</ele><time>2026-04-29T07:59:08.092Z</time></trkpt><trkpt lat="36.3446823" lon="-2.4707181"><ele>0.0</ele><time>2026-04-29T07:59:09.092Z</time></trkpt><trkpt lat="36.3447019" lon="-2.4706132"><ele>0.0</ele><time>2026-04-29T07:59:10.092Z</time></trkpt><trkpt lat="36.3447221" lon="-2.4705069"><ele>0.0</ele><time>2026-04-29T07:59:11.092Z</time></trkpt><trkpt lat="36.3447366" lon="-2.4703997"><ele>0.0</ele><time>2026-04-29T07:59:12.092Z</time></trkpt><trkpt lat="36.344744" lon="-2.4702903"><ele>0.0</ele><time>2026-04-29T07:59:13.091Z</time></trkpt><trkpt lat="36.3447491" lon="-2.4701876"><ele>0.0</ele><time>2026-04-29T07:59:14.091Z</time></trkpt><trkpt lat="36.3447536" lon="-2.4700774"><ele>0.0</ele><time>2026-04-29T07:59:15.092Z</time></trkpt><trkpt lat="36.3447569" lon="-2.4699698"><ele>0.0</ele><time>2026-04-29T07:59:16.092Z</time></trkpt><trkpt lat="36.3447787" lon="-2.4698651"><ele>0.0</ele><time>2026-04-29T07:59:17.092Z</time></trkpt><trkpt lat="36.3448037" lon="-2.46966"><ele>0.0</ele><time>2026-04-29T07:59:19.092Z</time></trkpt><trkpt lat="36.3448066" lon="-2.4695567"><ele>0.0</ele><time>2026-04-29T07:59:20.091Z</time></trkpt><trkpt lat="36.3448125" lon="-2.4694531"><ele>0.0</ele><time>2026-04-29T07:59:21.092Z</time></trkpt><trkpt lat="36.3448279" lon="-2.4693483"><ele>0.0</ele><time>2026-04-29T07:59:22.092Z</time></trkpt><trkpt lat="36.344827" lon="-2.4692392"><ele>0.0</ele><time>2026-04-29T07:59:23.091Z</time></trkpt><trkpt lat="36.344831" lon="-2.4691215"><ele>0.0</ele><time>2026-04-29T07:59:24.091Z</time></trkpt><trkpt lat="36.3448386" lon="-2.4690145"><ele>0.0</ele><time>2026-04-29T07:59:25.091Z</time></trkpt><trkpt lat="36.3448457" lon="-2.468908"><ele>0.0</ele><time>2026-04-29T07:59:26.091Z</time></trkpt><trkpt lat="36.3448484" lon="-2.4687973"><ele>0.0</ele><time>2026-04-29T07:59:27.092Z</time></trkpt><trkpt lat="36.3448674" lon="-2.4686899"><ele>0.0</ele><time>2026-04-29T07:59:28.091Z</time></trkpt><trkpt lat="36.3448736" lon="-2.4685816"><ele>0.0</ele><time>2026-04-29T07:59:29.092Z</time></trkpt><trkpt lat="36.3448828" lon="-2.4684807"><ele>0.0</ele><time>2026-04-29T07:59:30.092Z</time></trkpt><trkpt lat="36.3448928" lon="-2.4683793"><ele>0.0</ele><time>2026-04-29T07:59:31.091Z</time></trkpt><trkpt lat="36.3449238" lon="-2.4682731"><ele>0.0</ele><time>2026-04-29T07:59:32.091Z</time></trkpt><trkpt lat="36.3449427" lon="-2.4681651"><ele>0.0</ele><time>2026-04-29T07:59:33.091Z</time></trkpt><trkpt lat="36.3449519" lon="-2.4680555"><ele>0.0</ele><time>2026-04-29T07:59:34.091Z</time></trkpt><trkpt lat="36.3449668" lon="-2.4679484"><ele>0.0</ele><time>2026-04-29T07:59:35.091Z</time></trkpt><trkpt lat="36.3449763" lon="-2.4678399"><ele>0.0</ele><time>2026-04-29T07:59:36.092Z</time></trkpt><trkpt lat="36.3449888" lon="-2.4677315"><ele>0.0</ele><time>2026-04-29T07:59:37.091Z</time></trkpt><trkpt lat="36.3450159" lon="-2.467626"><ele>0.0</ele><time>2026-04-29T07:59:38.091Z</time></trkpt><trkpt lat="36.3450623" lon="-2.4674102"><ele>0.0</ele><time>2026-04-29T07:59:40.092Z</time></trkpt><trkpt lat="36.3450954" lon="-2.4673058"><ele>0.0</ele><time>2026-04-29T07:59:41.092Z</time></trkpt><trkpt lat="36.3451223" lon="-2.4672032"><ele>0.0</ele><time>2026-04-29T07:59:42.091Z</time></trkpt><trkpt lat="36.345144" lon="-2.4671001"><ele>0.0</ele><time>2026-04-29T07:59:43.091Z</time></trkpt><trkpt lat="36.345165" lon="-2.4669862"><ele>0.0</ele><time>2026-04-29T07:59:44.092Z</time></trkpt><trkpt lat="36.3451779" lon="-2.4668784"><ele>0.0</ele><time>2026-04-29T07:59:45.091Z</time></trkpt><trkpt lat="36.345182" lon="-2.4667704"><ele>0.0</ele><time>2026-04-29T07:59:46.091Z</time></trkpt><trkpt lat="36.3451894" lon="-2.4666663"><ele>0.0</ele><time>2026-04-29T07:59:47.092Z</time></trkpt><trkpt lat="36.3452007" lon="-2.4665599"><ele>0.0</ele><time>2026-04-29T07:59:48.091Z</time></trkpt><trkpt lat="36.3452095" lon="-2.4664574"><ele>0.0</ele><time>2026-04-29T07:59:49.091Z</time></trkpt><trkpt lat="36.3452192" lon="-2.466356"><ele>0.0</ele><time>2026-04-29T07:59:50.092Z</time></trkpt><trkpt lat="36.3452328" lon="-2.4662588"><ele>0.0</ele><time>2026-04-29T07:59:51.092Z</time></trkpt><trkpt lat="36.345252" lon="-2.4661607"><ele>0.0</ele><time>2026-04-29T07:59:52.091Z</time></trkpt><trkpt lat="36.3452584" lon="-2.4660536"><ele>0.0</ele><time>2026-04-29T07:59:53.092Z</time></trkpt><trkpt lat="36.345276" lon="-2.4659465"><ele>0.0</ele><time>2026-04-29T07:59:54.091Z</time></trkpt><trkpt lat="36.3452942" lon="-2.4658372"><ele>0.0</ele><time>2026-04-29T07:59:55.091Z</time></trkpt><trkpt lat="36.3453068" lon="-2.465729"><ele>0.0</ele><time>2026-04-29T07:59:56.091Z</time></trkpt><trkpt lat="36.3453165" lon="-2.465621"><ele>0.0</ele><time>2026-04-29T07:59:57.092Z</time></trkpt><trkpt lat="36.3453255" lon="-2.4655078"><ele>0.0</ele><time>2026-04-29T07:59:58.091Z</time></trkpt><trkpt lat="36.3453367" lon="-2.4653972"><ele>0.0</ele><time>2026-04-29T07:59:59.091Z</time></trkpt><trkpt lat="36.3453483" lon="-2.4651767"><ele>0.0</ele><time>2026-04-29T08:00:01.091Z</time></trkpt><trkpt lat="36.345362" lon="-2.4650699"><ele>0.0</ele><time>2026-04-29T08:00:02.092Z</time></trkpt><trkpt lat="36.3453773" lon="-2.4649615"><ele>0.0</ele><time>2026-04-29T08:00:03.091Z</time></trkpt><trkpt lat="36.3453919" lon="-2.4648531"><ele>0.0</ele><time>2026-04-29T08:00:04.092Z</time></trkpt><trkpt lat="36.3454084" lon="-2.4647506"><ele>0.0</ele><time>2026-04-29T08:00:05.092Z</time></trkpt><trkpt lat="36.3454234" lon="-2.4646489"><ele>0.0</ele><time>2026-04-29T08:00:06.091Z</time></trkpt><trkpt lat="36.3454383" lon="-2.4645448"><ele>0.0</ele><time>2026-04-29T08:00:07.092Z</time></trkpt><trkpt lat="36.345449" lon="-2.4644357"><ele>0.0</ele><time>2026-04-29T08:00:08.091Z</time></trkpt><trkpt lat="36.3454419" lon="-2.4643172"><ele>0.0</ele><time>2026-04-29T08:00:09.091Z</time></trkpt><trkpt lat="36.345451" lon="-2.4642057"><ele>0.0</ele><time>2026-04-29T08:00:10.091Z</time></trkpt><trkpt lat="36.3454583" lon="-2.4640998"><ele>0.0</ele><time>2026-04-29T08:00:11.092Z</time></trkpt><trkpt lat="36.3454681" lon="-2.463992"><ele>0.0</ele><time>2026-04-29T08:00:12.092Z</time></trkpt><trkpt lat="36.3454736" lon="-2.4638823"><ele>0.0</ele><time>2026-04-29T08:00:13.091Z</time></trkpt><trkpt lat="36.345484" lon="-2.4637763"><ele>0.0</ele><time>2026-04-29T08:00:14.092Z</time></trkpt><trkpt lat="36.3454914" lon="-2.4636685"><ele>0.0</ele><time>2026-04-29T08:00:15.091Z</time></trkpt><trkpt lat="36.3455134" lon="-2.4635543"><ele>0.0</ele><time>2026-04-29T08:00:16.091Z</time></trkpt><trkpt lat="36.3455321" lon="-2.4634406"><ele>0.0</ele><time>2026-04-29T08:00:17.092Z</time></trkpt><trkpt lat="36.3455463" lon="-2.4633334"><ele>0.0</ele><time>2026-04-29T08:00:18.091Z</time></trkpt><trkpt lat="36.3455583" lon="-2.4632308"><ele>0.0</ele><time>2026-04-29T08:00:19.091Z</time></trkpt><trkpt lat="36.3455656" lon="-2.4631218"><ele>0.0</ele><time>2026-04-29T08:00:20.091Z</time></trkpt><trkpt lat="36.3456027" lon="-2.4629143"><ele>0.0</ele><time>2026-04-29T08:00:22.092Z</time></trkpt><trkpt lat="36.3456174" lon="-2.4628009"><ele>0.0</ele><time>2026-04-29T08:00:23.092Z</time></trkpt><trkpt lat="36.3456329" lon="-2.4626947"><ele>0.0</ele><time>2026-04-29T08:00:24.091Z</time></trkpt><trkpt lat="36.3456552" lon="-2.4625923"><ele>0.0</ele><time>2026-04-29T08:00:25.091Z</time></trkpt><trkpt lat="36.3456722" lon="-2.4624836"><ele>0.0</ele><time>2026-04-29T08:00:26.092Z</time></trkpt><trkpt lat="36.3456879" lon="-2.4623737"><ele>0.0</ele><time>2026-04-29T08:00:27.092Z</time></trkpt><trkpt lat="36.3457119" lon="-2.4622669"><ele>0.0</ele><time>2026-04-29T08:00:28.092Z</time></trkpt><trkpt lat="36.345737" lon="-2.4621572"><ele>0.0</ele><time>2026-04-29T08:00:29.091Z</time></trkpt><trkpt lat="36.3457562" lon="-2.4620439"><ele>0.0</ele><time>2026-04-29T08:00:30.091Z</time></trkpt><trkpt lat="36.3457798" lon="-2.461937"><ele>0.0</ele><time>2026-04-29T08:00:31.091Z</time></trkpt><trkpt lat="36.3458021" lon="-2.4618271"><ele>0.0</ele><time>2026-04-29T08:00:32.091Z</time></trkpt><trkpt lat="36.3458239" lon="-2.4617157"><ele>0.0</ele><time>2026-04-29T08:00:33.091Z</time></trkpt><trkpt lat="36.3458472" lon="-2.4616097"><ele>0.0</ele><time>2026-04-29T08:00:34.091Z</time></trkpt><trkpt lat="36.3458735" lon="-2.4614957"><ele>0.0</ele><time>2026-04-29T08:00:35.091Z</time></trkpt><trkpt lat="36.3459032" lon="-2.4613833"><ele>0.0</ele><time>2026-04-29T08:00:36.091Z</time></trkpt><trkpt lat="36.3459334" lon="-2.4612773"><ele>0.0</ele><time>2026-04-29T08:00:37.092Z</time></trkpt><trkpt lat="36.3459603" lon="-2.4611739"><ele>0.0</ele><time>2026-04-29T08:00:38.092Z</time></trkpt><trkpt lat="36.3459841" lon="-2.4610708"><ele>0.0</ele><time>2026-04-29T08:00:39.091Z</time></trkpt><trkpt lat="36.3460018" lon="-2.460965"><ele>0.0</ele><time>2026-04-29T08:00:40.092Z</time></trkpt><trkpt lat="36.3460111" lon="-2.4608639"><ele>0.0</ele><time>2026-04-29T08:00:41.091Z</time></trkpt><trkpt lat="36.3460429" lon="-2.4606549"><ele>0.0</ele><time>2026-04-29T08:00:43.092Z</time></trkpt><trkpt lat="36.3460625" lon="-2.4605514"><ele>0.0</ele><time>2026-04-29T08:00:44.092Z</time></trkpt><trkpt lat="36.3460697" lon="-2.4604409"><ele>0.0</ele><time>2026-04-29T08:00:45.092Z</time></trkpt><trkpt lat="36.3460846" lon="-2.4603274"><ele>0.0</ele><time>2026-04-29T08:00:46.092Z</time></trkpt><trkpt lat="36.3460982" lon="-2.4602152"><ele>0.0</ele><time>2026-04-29T08:00:47.091Z</time></trkpt><trkpt lat="36.346083" lon="-2.4601091"><ele>0.0</ele><time>2026-04-29T08:00:48.091Z</time></trkpt><trkpt lat="36.3460837" lon="-2.4600018"><ele>0.0</ele><time>2026-04-29T08:00:49.091Z</time></trkpt><trkpt lat="36.3460874" lon="-2.4598952"><ele>0.0</ele><time>2026-04-29T08:00:50.092Z</time></trkpt><trkpt lat="36.3460877" lon="-2.4597895"><ele>0.0</ele><time>2026-04-29T08:00:51.091Z</time></trkpt><trkpt lat="36.3460989" lon="-2.459686"><ele>0.0</ele><time>2026-04-29T08:00:52.092Z</time></trkpt><trkpt lat="36.3461194" lon="-2.459577"><ele>0.0</ele><time>2026-04-29T08:00:53.092Z</time></trkpt><trkpt lat="36.3461496" lon="-2.4594697"><ele>0.0</ele><time>2026-04-29T08:00:54.091Z</time></trkpt><trkpt lat="36.3461659" lon="-2.4593648"><ele>0.0</ele><time>2026-04-29T08:00:55.091Z</time></trkpt><trkpt lat="36.3461799" lon="-2.4592612"><ele>0.0</ele><time>2026-04-29T08:00:56.091Z</time></trkpt><trkpt lat="36.3461903" lon="-2.459158"><ele>0.0</ele><time>2026-04-29T08:00:57.091Z</time></trkpt><trkpt lat="36.3462004" lon="-2.4590417"><ele>0.0</ele><time>2026-04-29T08:00:58.092Z</time></trkpt><trkpt lat="36.3462085" lon="-2.4589264"><ele>0.0</ele><time>2026-04-29T08:00:59.091Z</time></trkpt><trkpt lat="36.34622" lon="-2.4588136"><ele>0.0</ele><time>2026-04-29T08:01:00.092Z</time></trkpt><trkpt lat="36.3462422" lon="-2.4587078"><ele>0.0</ele><time>2026-04-29T08:01:01.091Z</time></trkpt><trkpt lat="36.3462609" lon="-2.4586026"><ele>0.0</ele><time>2026-04-29T08:01:02.091Z</time></trkpt><trkpt lat="36.3462999" lon="-2.458387"><ele>0.0</ele><time>2026-04-29T08:01:04.091Z</time></trkpt><trkpt lat="36.3463084" lon="-2.4582764"><ele>0.0</ele><time>2026-04-29T08:01:05.092Z</time></trkpt><trkpt lat="36.3463187" lon="-2.4581797"><ele>0.0</ele><time>2026-04-29T08:01:06.092Z</time></trkpt><trkpt lat="36.3463341" lon="-2.4580791"><ele>0.0</ele><time>2026-04-29T08:01:07.092Z</time></trkpt><trkpt lat="36.3463563" lon="-2.4579745"><ele>0.0</ele><time>2026-04-29T08:01:08.091Z</time></trkpt><trkpt lat="36.3463729" lon="-2.4578709"><ele>0.0</ele><time>2026-04-29T08:01:09.092Z</time></trkpt><trkpt lat="36.346385" lon="-2.4577633"><ele>0.0</ele><time>2026-04-29T08:01:10.092Z</time></trkpt><trkpt lat="36.3463949" lon="-2.4576535"><ele>0.0</ele><time>2026-04-29T08:01:11.091Z</time></trkpt><trkpt lat="36.3464173" lon="-2.4575448"><ele>0.0</ele><time>2026-04-29T08:01:12.091Z</time></trkpt><trkpt lat="36.3464287" lon="-2.4574354"><ele>0.0</ele><time>2026-04-29T08:01:13.092Z</time></trkpt><trkpt lat="36.3464273" lon="-2.4573326"><ele>0.0</ele><time>2026-04-29T08:01:14.092Z</time></trkpt><trkpt lat="36.3464365" lon="-2.4572278"><ele>0.0</ele><time>2026-04-29T08:01:15.091Z</time></trkpt><trkpt lat="36.3464561" lon="-2.4571275"><ele>0.0</ele><time>2026-04-29T08:01:16.091Z</time></trkpt><trkpt lat="36.3464709" lon="-2.4570218"><ele>0.0</ele><time>2026-04-29T08:01:17.092Z</time></trkpt><trkpt lat="36.3464828" lon="-2.4569148"><ele>0.0</ele><time>2026-04-29T08:01:18.091Z</time></trkpt><trkpt lat="36.3464984" lon="-2.4568095"><ele>0.0</ele><time>2026-04-29T08:01:19.092Z</time></trkpt><trkpt lat="36.3465182" lon="-2.4567094"><ele>0.0</ele><time>2026-04-29T08:01:20.091Z</time></trkpt><trkpt lat="36.346531" lon="-2.4566068"><ele>0.0</ele><time>2026-04-29T08:01:21.092Z</time></trkpt><trkpt lat="36.3465417" lon="-2.4565001"><ele>0.0</ele><time>2026-04-29T08:01:22.091Z</time></trkpt><trkpt lat="36.3465565" lon="-2.4563906"><ele>0.0</ele><time>2026-04-29T08:01:23.091Z</time></trkpt><trkpt lat="36.3465883" lon="-2.4561697"><ele>0.0</ele><time>2026-04-29T08:01:25.091Z</time></trkpt><trkpt lat="36.3466034" lon="-2.4560683"><ele>0.0</ele><time>2026-04-29T08:01:26.092Z</time></trkpt><trkpt lat="36.3466123" lon="-2.4559662"><ele>0.0</ele><time>2026-04-29T08:01:27.091Z</time></trkpt><trkpt lat="36.3466277" lon="-2.4558541"><ele>0.0</ele><time>2026-04-29T08:01:28.092Z</time></trkpt><trkpt lat="36.346652" lon="-2.4557463"><ele>0.0</ele><time>2026-04-29T08:01:29.091Z</time></trkpt><trkpt lat="36.3466828" lon="-2.4556458"><ele>0.0</ele><time>2026-04-29T08:01:30.092Z</time></trkpt><trkpt lat="36.3467113" lon="-2.4555341"><ele>0.0</ele><time>2026-04-29T08:01:31.092Z</time></trkpt><trkpt lat="36.3467355" lon="-2.4554292"><ele>0.0</ele><time>2026-04-29T08:01:32.091Z</time></trkpt><trkpt lat="36.346766" lon="-2.4553231"><ele>0.0</ele><time>2026-04-29T08:01:33.091Z</time></trkpt><trkpt lat="36.3467863" lon="-2.4552237"><ele>0.0</ele><time>2026-04-29T08:01:34.091Z</time></trkpt><trkpt lat="36.346804" lon="-2.4551197"><ele>0.0</ele><time>2026-04-29T08:01:35.091Z</time></trkpt><trkpt lat="36.3468214" lon="-2.4550146"><ele>0.0</ele><time>2026-04-29T08:01:36.091Z</time></trkpt><trkpt lat="36.3468364" lon="-2.4549058"><ele>0.0</ele><time>2026-04-29T08:01:37.091Z</time></trkpt><trkpt lat="36.3468497" lon="-2.454803"><ele>0.0</ele><time>2026-04-29T08:01:38.092Z</time></trkpt><trkpt lat="36.3468659" lon="-2.4546941"><ele>0.0</ele><time>2026-04-29T08:01:39.092Z</time></trkpt><trkpt lat="36.3468792" lon="-2.4545872"><ele>0.0</ele><time>2026-04-29T08:01:40.092Z</time></trkpt><trkpt lat="36.3468968" lon="-2.454482"><ele>0.0</ele><time>2026-04-29T08:01:41.091Z</time></trkpt><trkpt lat="36.3469095" lon="-2.4543808"><ele>0.0</ele><time>2026-04-29T08:01:42.092Z</time></trkpt><trkpt lat="36.3469335" lon="-2.4542784"><ele>0.0</ele><time>2026-04-29T08:01:43.092Z</time></trkpt><trkpt lat="36.3469434" lon="-2.4541749"><ele>0.0</ele><time>2026-04-29T08:01:44.091Z</time></trkpt><trkpt lat="36.3469685" lon="-2.4539658"><ele>0.0</ele><time>2026-04-29T08:01:46.091Z</time></trkpt><trkpt lat="36.3469813" lon="-2.4538558"><ele>0.0</ele><time>2026-04-29T08:01:47.091Z</time></trkpt><trkpt lat="36.3469967" lon="-2.4537455"><ele>0.0</ele><time>2026-04-29T08:01:48.091Z</time></trkpt><trkpt lat="36.3470035" lon="-2.4536384"><ele>0.0</ele><time>2026-04-29T08:01:49.091Z</time></trkpt><trkpt lat="36.3470102" lon="-2.4535333"><ele>0.0</ele><time>2026-04-29T08:01:50.091Z</time></trkpt><trkpt lat="36.3470138" lon="-2.453424"><ele>0.0</ele><time>2026-04-29T08:01:51.092Z</time></trkpt><trkpt lat="36.3470289" lon="-2.4533166"><ele>0.0</ele><time>2026-04-29T08:01:52.092Z</time></trkpt><trkpt lat="36.3470512" lon="-2.4532132"><ele>0.0</ele><time>2026-04-29T08:01:53.091Z</time></trkpt><trkpt lat="36.3470476" lon="-2.4531084"><ele>0.0</ele><time>2026-04-29T08:01:54.092Z</time></trkpt><trkpt lat="36.3470475" lon="-2.452998"><ele>0.0</ele><time>2026-04-29T08:01:55.092Z</time></trkpt><trkpt lat="36.3470507" lon="-2.4528874"><ele>0.0</ele><time>2026-04-29T08:01:56.092Z</time></trkpt><trkpt lat="36.3470552" lon="-2.4527801"><ele>0.0</ele><time>2026-04-29T08:01:57.092Z</time></trkpt><trkpt lat="36.3470528" lon="-2.4526733"><ele>0.0</ele><time>2026-04-29T08:01:58.091Z</time></trkpt><trkpt lat="36.3470617" lon="-2.452567"><ele>0.0</ele><time>2026-04-29T08:01:59.092Z</time></trkpt><trkpt lat="36.3470732" lon="-2.4524598"><ele>0.0</ele><time>2026-04-29T08:02:00.092Z</time></trkpt><trkpt lat="36.3470754" lon="-2.4523489"><ele>0.0</ele><time>2026-04-29T08:02:01.091Z</time></trkpt><trkpt lat="36.3470818" lon="-2.4522431"><ele>0.0</ele><time>2026-04-29T08:02:02.091Z</time></trkpt><trkpt lat="36.3470853" lon="-2.4521372"><ele>0.0</ele><time>2026-04-29T08:02:03.091Z</time></trkpt><trkpt lat="36.3470915" lon="-2.4520306"><ele>0.0</ele><time>2026-04-29T08:02:04.091Z</time></trkpt><trkpt lat="36.3470916" lon="-2.4519254"><ele>0.0</ele><time>2026-04-29T08:02:05.092Z</time></trkpt><trkpt lat="36.3470996" lon="-2.4517116"><ele>0.0</ele><time>2026-04-29T08:02:07.092Z</time></trkpt><trkpt lat="36.3471063" lon="-2.4516065"><ele>0.0</ele><time>2026-04-29T08:02:08.091Z</time></trkpt><trkpt lat="36.347119" lon="-2.4515014"><ele>0.0</ele><time>2026-04-29T08:02:09.091Z</time></trkpt><trkpt lat="36.3471325" lon="-2.4513892"><ele>0.0</ele><time>2026-04-29T08:02:10.091Z</time></trkpt><trkpt lat="36.3471286" lon="-2.4512933"><ele>0.0</ele><time>2026-04-29T08:02:11.092Z</time></trkpt><trkpt lat="36.3471312" lon="-2.4511957"><ele>0.0</ele><time>2026-04-29T08:02:12.091Z</time></trkpt><trkpt lat="36.3471305" lon="-2.4510899"><ele>0.0</ele><time>2026-04-29T08:02:13.091Z</time></trkpt><trkpt lat="36.3471357" lon="-2.4509846"><ele>0.0</ele><time>2026-04-29T08:02:14.092Z</time></trkpt><trkpt lat="36.3471466" lon="-2.4508841"><ele>0.0</ele><time>2026-04-29T08:02:15.092Z</time></trkpt><trkpt lat="36.3471535" lon="-2.4507801"><ele>0.0</ele><time>2026-04-29T08:02:16.092Z</time></trkpt><trkpt lat="36.3471553" lon="-2.4506751"><ele>0.0</ele><time>2026-04-29T08:02:17.092Z</time></trkpt><trkpt lat="36.3471655" lon="-2.4505686"><ele>0.0</ele><time>2026-04-29T08:02:18.091Z</time></trkpt><trkpt lat="36.3471849" lon="-2.4504578"><ele>0.0</ele><time>2026-04-29T08:02:19.092Z</time></trkpt><trkpt lat="36.347194" lon="-2.4503473"><ele>0.0</ele><time>2026-04-29T08:02:20.092Z</time></trkpt><trkpt lat="36.3472173" lon="-2.4502359"><ele>0.0</ele><time>2026-04-29T08:02:21.091Z</time></trkpt><trkpt lat="36.3472369" lon="-2.4501252"><ele>0.0</ele><time>2026-04-29T08:02:22.091Z</time></trkpt><trkpt lat="36.3472577" lon="-2.4500168"><ele>0.0</ele><time>2026-04-29T08:02:23.092Z</time></trkpt><trkpt lat="36.3472968" lon="-2.4499056"><ele>0.0</ele><time>2026-04-29T08:02:24.092Z</time></trkpt><trkpt lat="36.3473311" lon="-2.4497909"><ele>0.0</ele><time>2026-04-29T08:02:25.092Z</time></trkpt><trkpt lat="36.3473451" lon="-2.4496818"><ele>0.0</ele><time>2026-04-29T08:02:26.091Z</time></trkpt><trkpt lat="36.3473865" lon="-2.4494704"><ele>0.0</ele><time>2026-04-29T08:02:28.091Z</time></trkpt><trkpt lat="36.3474026" lon="-2.4493603"><ele>0.0</ele><time>2026-04-29T08:02:29.092Z</time></trkpt><trkpt lat="36.3474155" lon="-2.4492517"><ele>0.0</ele><time>2026-04-29T08:02:30.091Z</time></trkpt><trkpt lat="36.3474226" lon="-2.4491419"><ele>0.0</ele><time>2026-04-29T08:02:31.092Z</time></trkpt><trkpt lat="36.3474362" lon="-2.4490365"><ele>0.0</ele><time>2026-04-29T08:02:32.091Z</time></trkpt><trkpt lat="36.3474472" lon="-2.4489242"><ele>0.0</ele><time>2026-04-29T08:02:33.091Z</time></trkpt><trkpt lat="36.3474687" lon="-2.4488135"><ele>0.0</ele><time>2026-04-29T08:02:34.091Z</time></trkpt><trkpt lat="36.3474682" lon="-2.4487069"><ele>0.0</ele><time>2026-04-29T08:02:35.091Z</time></trkpt><trkpt lat="36.3474786" lon="-2.4485988"><ele>0.0</ele><time>2026-04-29T08:02:36.092Z</time></trkpt><trkpt lat="36.3474959" lon="-2.4484899"><ele>0.0</ele><time>2026-04-29T08:02:37.092Z</time></trkpt><trkpt lat="36.3475145" lon="-2.4483811"><ele>0.0</ele><time>2026-04-29T08:02:38.092Z</time></trkpt><trkpt lat="36.3475201" lon="-2.4482741"><ele>0.0</ele><time>2026-04-29T08:02:39.091Z</time></trkpt><trkpt lat="36.3475142" lon="-2.4481621"><ele>0.0</ele><time>2026-04-29T08:02:40.091Z</time></trkpt><trkpt lat="36.3475278" lon="-2.4480545"><ele>0.0</ele><time>2026-04-29T08:02:41.091Z</time></trkpt><trkpt lat="36.3475402" lon="-2.4479453"><ele>0.0</ele><time>2026-04-29T08:02:42.091Z</time></trkpt><trkpt lat="36.3475556" lon="-2.4478381"><ele>0.0</ele><time>2026-04-29T08:02:43.091Z</time></trkpt><trkpt lat="36.3475682" lon="-2.4477272"><ele>0.0</ele><time>2026-04-29T08:02:44.091Z</time></trkpt><trkpt lat="36.3475735" lon="-2.4476257"><ele>0.0</ele><time>2026-04-29T08:02:45.091Z</time></trkpt><trkpt lat="36.3475794" lon="-2.4475271"><ele>0.0</ele><time>2026-04-29T08:02:46.091Z</time></trkpt><trkpt lat="36.3475801" lon="-2.4474305"><ele>0.0</ele><time>2026-04-29T08:02:47.092Z</time></trkpt><trkpt lat="36.3475913" lon="-2.4472184"><ele>0.0</ele><time>2026-04-29T08:02:49.091Z</time></trkpt><trkpt lat="36.3476099" lon="-2.4471116"><ele>0.0</ele><time>2026-04-29T08:02:50.091Z</time></trkpt><trkpt lat="36.3476298" lon="-2.4470061"><ele>0.0</ele><time>2026-04-29T08:02:51.092Z</time></trkpt><trkpt lat="36.3476482" lon="-2.4468958"><ele>0.0</ele><time>2026-04-29T08:02:52.091Z</time></trkpt><trkpt lat="36.3476707" lon="-2.4467872"><ele>0.0</ele><time>2026-04-29T08:02:53.092Z</time></trkpt><trkpt lat="36.3477071" lon="-2.4466713"><ele>0.0</ele><time>2026-04-29T08:02:54.091Z</time></trkpt><trkpt lat="36.3477195" lon="-2.4465604"><ele>0.0</ele><time>2026-04-29T08:02:55.092Z</time></trkpt><trkpt lat="36.3477214" lon="-2.4464546"><ele>0.0</ele><time>2026-04-29T08:02:56.091Z</time></trkpt><trkpt lat="36.3477348" lon="-2.4463513"><ele>0.0</ele><time>2026-04-29T08:02:57.091Z</time></trkpt><trkpt lat="36.34776" lon="-2.4462448"><ele>0.0</ele><time>2026-04-29T08:02:58.091Z</time></trkpt><trkpt lat="36.3477672" lon="-2.4461407"><ele>0.0</ele><time>2026-04-29T08:02:59.092Z</time></trkpt><trkpt lat="36.3477755" lon="-2.4460423"><ele>0.0</ele><time>2026-04-29T08:03:00.091Z</time></trkpt><trkpt lat="36.3477768" lon="-2.4459382"><ele>0.0</ele><time>2026-04-29T08:03:01.092Z</time></trkpt><trkpt lat="36.347774" lon="-2.4458302"><ele>0.0</ele><time>2026-04-29T08:03:02.092Z</time></trkpt><trkpt lat="36.3477774" lon="-2.4457261"><ele>0.0</ele><time>2026-04-29T08:03:03.091Z</time></trkpt><trkpt lat="36.3477876" lon="-2.4456218"><ele>0.0</ele><time>2026-04-29T08:03:04.091Z</time></trkpt><trkpt lat="36.3478025" lon="-2.4455092"><ele>0.0</ele><time>2026-04-29T08:03:05.091Z</time></trkpt><trkpt lat="36.3478166" lon="-2.4453999"><ele>0.0</ele><time>2026-04-29T08:03:06.091Z</time></trkpt><trkpt lat="36.347827" lon="-2.445299"><ele>0.0</ele><time>2026-04-29T08:03:07.092Z</time></trkpt><trkpt lat="36.3478307" lon="-2.4451991"><ele>0.0</ele><time>2026-04-29T08:03:08.091Z</time></trkpt><trkpt lat="36.3478727" lon="-2.4449855"><ele>0.0</ele><time>2026-04-29T08:03:10.092Z</time></trkpt><trkpt lat="36.347888" lon="-2.444874"><ele>0.0</ele><time>2026-04-29T08:03:11.092Z</time></trkpt><trkpt lat="36.3479024" lon="-2.4447636"><ele>0.0</ele><time>2026-04-29T08:03:12.091Z</time></trkpt><trkpt lat="36.34792" lon="-2.4446521"><ele>0.0</ele><time>2026-04-29T08:03:13.092Z</time></trkpt><trkpt lat="36.3479729" lon="-2.4445363"><ele>0.0</ele><time>2026-04-29T08:03:14.091Z</time></trkpt><trkpt lat="36.3479999" lon="-2.4444296"><ele>0.0</ele><time>2026-04-29T08:03:15.092Z</time></trkpt><trkpt lat="36.3480229" lon="-2.4443274"><ele>0.0</ele><time>2026-04-29T08:03:16.092Z</time></trkpt><trkpt lat="36.3480439" lon="-2.4442259"><ele>0.0</ele><time>2026-04-29T08:03:17.091Z</time></trkpt><trkpt lat="36.3480594" lon="-2.44412"><ele>0.0</ele><time>2026-04-29T08:03:18.091Z</time></trkpt><trkpt lat="36.3481072" lon="-2.4440149"><ele>0.0</ele><time>2026-04-29T08:03:19.091Z</time></trkpt><trkpt lat="36.3481262" lon="-2.4439146"><ele>0.0</ele><time>2026-04-29T08:03:20.091Z</time></trkpt><trkpt lat="36.34816" lon="-2.4438085"><ele>0.0</ele><time>2026-04-29T08:03:21.092Z</time></trkpt><trkpt lat="36.3481823" lon="-2.4437016"><ele>0.0</ele><time>2026-04-29T08:03:22.091Z</time></trkpt><trkpt lat="36.3482011" lon="-2.4435948"><ele>0.0</ele><time>2026-04-29T08:03:23.092Z</time></trkpt><trkpt lat="36.3482164" lon="-2.4434855"><ele>0.0</ele><time>2026-04-29T08:03:24.091Z</time></trkpt><trkpt lat="36.3482382" lon="-2.443373"><ele>0.0</ele><time>2026-04-29T08:03:25.091Z</time></trkpt><trkpt lat="36.3482531" lon="-2.4432623"><ele>0.0</ele><time>2026-04-29T08:03:26.091Z</time></trkpt><trkpt lat="36.348267" lon="-2.4431508"><ele>0.0</ele><time>2026-04-29T08:03:27.092Z</time></trkpt><trkpt lat="36.3482808" lon="-2.4430433"><ele>0.0</ele><time>2026-04-29T08:03:28.092Z</time></trkpt><trkpt lat="36.3482971" lon="-2.4429337"><ele>0.0</ele><time>2026-04-29T08:03:29.091Z</time></trkpt><trkpt lat="36.3483202" lon="-2.4427244"><ele>0.0</ele><time>2026-04-29T08:03:31.092Z</time></trkpt><trkpt lat="36.348311" lon="-2.4426239"><ele>0.0</ele><time>2026-04-29T08:03:32.091Z</time></trkpt><trkpt lat="36.348319" lon="-2.4425224"><ele>0.0</ele><time>2026-04-29T08:03:33.092Z</time></trkpt><trkpt lat="36.3483218" lon="-2.4424131"><ele>0.0</ele><time>2026-04-29T08:03:34.091Z</time></trkpt><trkpt lat="36.3483294" lon="-2.4423077"><ele>0.0</ele><time>2026-04-29T08:03:35.091Z</time></trkpt><trkpt lat="36.3483279" lon="-2.4422055"><ele>0.0</ele><time>2026-04-29T08:03:36.091Z</time></trkpt><trkpt lat="36.3483426" lon="-2.4421013"><ele>0.0</ele><time>2026-04-29T08:03:37.091Z</time></trkpt><trkpt lat="36.3483566" lon="-2.4419891"><ele>0.0</ele><time>2026-04-29T08:03:38.091Z</time></trkpt><trkpt lat="36.3483726" lon="-2.4418743"><ele>0.0</ele><time>2026-04-29T08:03:39.091Z</time></trkpt><trkpt lat="36.3483904" lon="-2.4417653"><ele>0.0</ele><time>2026-04-29T08:03:40.091Z</time></trkpt><trkpt lat="36.3484414" lon="-2.4416524"><ele>0.0</ele><time>2026-04-29T08:03:41.091Z</time></trkpt><trkpt lat="36.3484701" lon="-2.441542"><ele>0.0</ele><time>2026-04-29T08:03:42.091Z</time></trkpt><trkpt lat="36.3485002" lon="-2.4414321"><ele>0.0</ele><time>2026-04-29T08:03:43.092Z</time></trkpt><trkpt lat="36.3485344" lon="-2.4413208"><ele>0.0</ele><time>2026-04-29T08:03:44.092Z</time></trkpt><trkpt lat="36.3485616" lon="-2.4412074"><ele>0.0</ele><time>2026-04-29T08:03:45.091Z</time></trkpt><trkpt lat="36.3485915" lon="-2.4410969"><ele>0.0</ele><time>2026-04-29T08:03:46.092Z</time></trkpt><trkpt lat="36.3486183" lon="-2.4409926"><ele>0.0</ele><time>2026-04-29T08:03:47.091Z</time></trkpt><trkpt lat="36.3486355" lon="-2.4408878"><ele>0.0</ele><time>2026-04-29T08:03:48.091Z</time></trkpt><trkpt lat="36.3486459" lon="-2.4407772"><ele>0.0</ele><time>2026-04-29T08:03:49.092Z</time></trkpt><trkpt lat="36.3486489" lon="-2.44067"><ele>0.0</ele><time>2026-04-29T08:03:50.091Z</time></trkpt><trkpt lat="36.3486779" lon="-2.4404595"><ele>0.0</ele><time>2026-04-29T08:03:52.091Z</time></trkpt><trkpt lat="36.3486803" lon="-2.4403576"><ele>0.0</ele><time>2026-04-29T08:03:53.091Z</time></trkpt><trkpt lat="36.3486913" lon="-2.4402486"><ele>0.0</ele><time>2026-04-29T08:03:54.091Z</time></trkpt><trkpt lat="36.3486926" lon="-2.4401415"><ele>0.0</ele><time>2026-04-29T08:03:55.091Z</time></trkpt><trkpt lat="36.3487054" lon="-2.4400377"><ele>0.0</ele><time>2026-04-29T08:03:56.091Z</time></trkpt><trkpt lat="36.3487256" lon="-2.4399347"><ele>0.0</ele><time>2026-04-29T08:03:57.092Z</time></trkpt><trkpt lat="36.3487462" lon="-2.4398299"><ele>0.0</ele><time>2026-04-29T08:03:58.092Z</time></trkpt><trkpt lat="36.3487631" lon="-2.439726"><ele>0.0</ele><time>2026-04-29T08:03:59.091Z</time></trkpt><trkpt lat="36.3487821" lon="-2.4396241"><ele>0.0</ele><time>2026-04-29T08:04:00.091Z</time></trkpt><trkpt lat="36.3488145" lon="-2.439521"><ele>0.0</ele><time>2026-04-29T08:04:01.091Z</time></trkpt><trkpt lat="36.3488399" lon="-2.4394117"><ele>0.0</ele><time>2026-04-29T08:04:02.092Z</time></trkpt><trkpt lat="36.3488492" lon="-2.4393062"><ele>0.0</ele><time>2026-04-29T08:04:03.092Z</time></trkpt><trkpt lat="36.3488553" lon="-2.4392025"><ele>0.0</ele><time>2026-04-29T08:04:04.092Z</time></trkpt><trkpt lat="36.348868" lon="-2.4390953"><ele>0.0</ele><time>2026-04-29T08:04:05.091Z</time></trkpt><trkpt lat="36.3488833" lon="-2.4389897"><ele>0.0</ele><time>2026-04-29T08:04:06.092Z</time></trkpt><trkpt lat="36.3488972" lon="-2.438882"><ele>0.0</ele><time>2026-04-29T08:04:07.091Z</time></trkpt><trkpt lat="36.3489106" lon="-2.4387795"><ele>0.0</ele><time>2026-04-29T08:04:08.092Z</time></trkpt><trkpt lat="36.3489011" lon="-2.4386752"><ele>0.0</ele><time>2026-04-29T08:04:09.092Z</time></trkpt><trkpt lat="36.3488987" lon="-2.4385726"><ele>0.0</ele><time>2026-04-29T08:04:10.092Z</time></trkpt><trkpt lat="36.3489062" lon="-2.4384683"><ele>0.0</ele><time>2026-04-29T08:04:11.091Z</time></trkpt><trkpt lat="36.3489066" lon="-2.4382487"><ele>0.0</ele><time>2026-04-29T08:04:13.091Z</time></trkpt><trkpt lat="36.3488994" lon="-2.4381359"><ele>0.0</ele><time>2026-04-29T08:04:14.092Z</time></trkpt><trkpt lat="36.34889" lon="-2.4380239"><ele>0.0</ele><time>2026-04-29T08:04:15.091Z</time></trkpt><trkpt lat="36.3488958" lon="-2.4379156"><ele>0.0</ele><time>2026-04-29T08:04:16.091Z</time></trkpt><trkpt lat="36.348895" lon="-2.4378032"><ele>0.0</ele><time>2026-04-29T08:04:17.092Z</time></trkpt><trkpt lat="36.3488987" lon="-2.4376896"><ele>0.0</ele><time>2026-04-29T08:04:18.092Z</time></trkpt><trkpt lat="36.3489026" lon="-2.437585"><ele>0.0</ele><time>2026-04-29T08:04:19.092Z</time></trkpt><trkpt lat="36.348899" lon="-2.437477"><ele>0.0</ele><time>2026-04-29T08:04:20.091Z</time></trkpt><trkpt lat="36.3489087" lon="-2.4373701"><ele>0.0</ele><time>2026-04-29T08:04:21.092Z</time></trkpt><trkpt lat="36.3489274" lon="-2.4372591"><ele>0.0</ele><time>2026-04-29T08:04:22.092Z</time></trkpt><trkpt lat="36.3489421" lon="-2.4371543"><ele>0.0</ele><time>2026-04-29T08:04:23.091Z</time></trkpt><trkpt lat="36.3489538" lon="-2.4370557"><ele>0.0</ele><time>2026-04-29T08:04:24.092Z</time></trkpt><trkpt lat="36.3489625" lon="-2.4369545"><ele>0.0</ele><time>2026-04-29T08:04:25.092Z</time></trkpt><trkpt lat="36.3489775" lon="-2.4368486"><ele>0.0</ele><time>2026-04-29T08:04:26.092Z</time></trkpt><trkpt lat="36.3490011" lon="-2.4367388"><ele>0.0</ele><time>2026-04-29T08:04:27.092Z</time></trkpt><trkpt lat="36.3490536" lon="-2.4366246"><ele>0.0</ele><time>2026-04-29T08:04:28.091Z</time></trkpt><trkpt lat="36.3490945" lon="-2.4365127"><ele>0.0</ele><time>2026-04-29T08:04:29.092Z</time></trkpt><trkpt lat="36.3491177" lon="-2.4364083"><ele>0.0</ele><time>2026-04-29T08:04:30.091Z</time></trkpt><trkpt lat="36.3491456" lon="-2.4362957"><ele>0.0</ele><time>2026-04-29T08:04:31.091Z</time></trkpt><trkpt lat="36.3491716" lon="-2.4361894"><ele>0.0</ele><time>2026-04-29T08:04:32.091Z</time></trkpt><trkpt lat="36.3492211" lon="-2.4359766"><ele>0.0</ele><time>2026-04-29T08:04:34.091Z</time></trkpt><trkpt lat="36.349253" lon="-2.4358683"><ele>0.0</ele><time>2026-04-29T08:04:35.092Z</time></trkpt><trkpt lat="36.3492679" lon="-2.4357617"><ele>0.0</ele><time>2026-04-29T08:04:36.091Z</time></trkpt><trkpt lat="36.3492867" lon="-2.4356568"><ele>0.0</ele><time>2026-04-29T08:04:37.092Z</time></trkpt><trkpt lat="36.3492959" lon="-2.4355485"><ele>0.0</ele><time>2026-04-29T08:04:38.092Z</time></trkpt><trkpt lat="36.3493101" lon="-2.4354434"><ele>0.0</ele><time>2026-04-29T08:04:39.091Z</time></trkpt><trkpt lat="36.3493299" lon="-2.4353321"><ele>0.0</ele><time>2026-04-29T08:04:40.091Z</time></trkpt><trkpt lat="36.3493375" lon="-2.4352217"><ele>0.0</ele><time>2026-04-29T08:04:41.091Z</time></trkpt><trkpt lat="36.3493838" lon="-2.4351013"><ele>0.0</ele><time>2026-04-29T08:04:42.092Z</time></trkpt><trkpt lat="36.3494099" lon="-2.4349914"><ele>0.0</ele><time>2026-04-29T08:04:43.091Z</time></trkpt><trkpt lat="36.3494163" lon="-2.4348815"><ele>0.0</ele><time>2026-04-29T08:04:44.091Z</time></trkpt><trkpt lat="36.3494211" lon="-2.434773"><ele>0.0</ele><time>2026-04-29T08:04:45.091Z</time></trkpt><trkpt lat="36.3494345" lon="-2.4346637"><ele>0.0</ele><time>2026-04-29T08:04:46.091Z</time></trkpt><trkpt lat="36.3494518" lon="-2.4345511"><ele>0.0</ele><time>2026-04-29T08:04:47.092Z</time></trkpt><trkpt lat="36.3494474" lon="-2.4344375"><ele>0.0</ele><time>2026-04-29T08:04:48.092Z</time></trkpt><trkpt lat="36.349441" lon="-2.4343271"><ele>0.0</ele><time>2026-04-29T08:04:49.091Z</time></trkpt><trkpt lat="36.3494455" lon="-2.4342198"><ele>0.0</ele><time>2026-04-29T08:04:50.092Z</time></trkpt><trkpt lat="36.3494401" lon="-2.4341088"><ele>0.0</ele><time>2026-04-29T08:04:51.092Z</time></trkpt><trkpt lat="36.3494504" lon="-2.434006"><ele>0.0</ele><time>2026-04-29T08:04:52.092Z</time></trkpt><trkpt lat="36.3494676" lon="-2.4339"><ele>0.0</ele><time>2026-04-29T08:04:53.091Z</time></trkpt><trkpt lat="36.3495407" lon="-2.4336828"><ele>0.0</ele><time>2026-04-29T08:04:55.092Z</time></trkpt><trkpt lat="36.3495358" lon="-2.4335694"><ele>0.0</ele><time>2026-04-29T08:04:56.091Z</time></trkpt><trkpt lat="36.3495282" lon="-2.4334576"><ele>0.0</ele><time>2026-04-29T08:04:57.091Z</time></trkpt><trkpt lat="36.3495408" lon="-2.4333446"><ele>0.0</ele><time>2026-04-29T08:04:58.091Z</time></trkpt><trkpt lat="36.3495642" lon="-2.4332311"><ele>0.0</ele><time>2026-04-29T08:04:59.091Z</time></trkpt><trkpt lat="36.3495939" lon="-2.4331211"><ele>0.0</ele><time>2026-04-29T08:05:00.091Z</time></trkpt><trkpt lat="36.3496256" lon="-2.4330097"><ele>0.0</ele><time>2026-04-29T08:05:01.092Z</time></trkpt><trkpt lat="36.3496759" lon="-2.4328889"><ele>0.0</ele><time>2026-04-29T08:05:02.092Z</time></trkpt><trkpt lat="36.3496757" lon="-2.4327809"><ele>0.0</ele><time>2026-04-29T08:05:03.091Z</time></trkpt><trkpt lat="36.3496945" lon="-2.4326819"><ele>0.0</ele><time>2026-04-29T08:05:04.09Z</time></trkpt><trkpt lat="36.3497458" lon="-2.4325724"><ele>0.0</ele><time>2026-04-29T08:05:05.091Z</time></trkpt><trkpt lat="36.3497621" lon="-2.4324604"><ele>0.0</ele><time>2026-04-29T08:05:06.091Z</time></trkpt><trkpt lat="36.3497767" lon="-2.4323472"><ele>0.0</ele><time>2026-04-29T08:05:07.09Z</time></trkpt><trkpt lat="36.3498155" lon="-2.432232"><ele>0.0</ele><time>2026-04-29T08:05:08.09Z</time></trkpt><trkpt lat="36.3498286" lon="-2.4321244"><ele>0.0</ele><time>2026-04-29T08:05:09.091Z</time></trkpt><trkpt lat="36.3498369" lon="-2.4320167"><ele>0.0</ele><time>2026-04-29T08:05:10.09Z</time></trkpt><trkpt lat="36.3498456" lon="-2.4319083"><ele>0.0</ele><time>2026-04-29T08:05:11.09Z</time></trkpt><trkpt lat="36.3498584" lon="-2.4318025"><ele>0.0</ele><time>2026-04-29T08:05:12.09Z</time></trkpt><trkpt lat="36.3498675" lon="-2.4316991"><ele>0.0</ele><time>2026-04-29T08:05:13.09Z</time></trkpt><trkpt lat="36.3499122" lon="-2.4314846"><ele>0.0</ele><time>2026-04-29T08:05:15.09Z</time></trkpt><trkpt lat="36.3499176" lon="-2.4313794"><ele>0.0</ele><time>2026-04-29T08:05:16.09Z</time></trkpt><trkpt lat="36.3499234" lon="-2.4312757"><ele>0.0</ele><time>2026-04-29T08:05:17.09Z</time></trkpt><trkpt lat="36.3499283" lon="-2.4311752"><ele>0.0</ele><time>2026-04-29T08:05:18.09Z</time></trkpt><trkpt lat="36.3499214" lon="-2.4310782"><ele>0.0</ele><time>2026-04-29T08:05:19.091Z</time></trkpt><trkpt lat="36.3499188" lon="-2.4309858"><ele>0.0</ele><time>2026-04-29T08:05:20.091Z</time></trkpt><trkpt lat="36.3499505" lon="-2.4308914"><ele>0.0</ele><time>2026-04-29T08:05:21.09Z</time></trkpt><trkpt lat="36.3499733" lon="-2.4307909"><ele>0.0</ele><time>2026-04-29T08:05:22.09Z</time></trkpt><trkpt lat="36.3499945" lon="-2.4306877"><ele>0.0</ele><time>2026-04-29T08:05:23.09Z</time></trkpt><trkpt lat="36.3500106" lon="-2.4305833"><ele>0.0</ele><time>2026-04-29T08:05:24.091Z</time></trkpt><trkpt lat="36.350061" lon="-2.4304684"><ele>0.0</ele><time>2026-04-29T08:05:25.09Z</time></trkpt><trkpt lat="36.350082" lon="-2.4303616"><ele>0.0</ele><time>2026-04-29T08:05:26.091Z</time></trkpt><trkpt lat="36.3501049" lon="-2.4302534"><ele>0.0</ele><time>2026-04-29T08:05:27.09Z</time></trkpt><trkpt lat="36.3501228" lon="-2.4301468"><ele>0.0</ele><time>2026-04-29T08:05:28.091Z</time></trkpt><trkpt lat="36.3501066" lon="-2.4300428"><ele>0.0</ele><time>2026-04-29T08:05:29.09Z</time></trkpt><trkpt lat="36.3500905" lon="-2.4299364"><ele>0.0</ele><time>2026-04-29T08:05:30.091Z</time></trkpt><trkpt lat="36.3500702" lon="-2.429831"><ele>0.0</ele><time>2026-04-29T08:05:31.091Z</time></trkpt><trkpt lat="36.3500497" lon="-2.4297288"><ele>0.0</ele><time>2026-04-29T08:05:32.091Z</time></trkpt><trkpt lat="36.3500373" lon="-2.4296273"><ele>0.0</ele><time>2026-04-29T08:05:33.091Z</time></trkpt><trkpt lat="36.3500216" lon="-2.429526"><ele>0.0</ele><time>2026-04-29T08:05:34.09Z</time></trkpt><trkpt lat="36.3500354" lon="-2.4293195"><ele>0.0</ele><time>2026-04-29T08:05:36.09Z</time></trkpt><trkpt lat="36.3500349" lon="-2.4292155"><ele>0.0</ele><time>2026-04-29T08:05:37.09Z</time></trkpt><trkpt lat="36.3500366" lon="-2.4291099"><ele>0.0</ele><time>2026-04-29T08:05:38.09Z</time></trkpt><trkpt lat="36.3500342" lon="-2.4290021"><ele>0.0</ele><time>2026-04-29T08:05:39.09Z</time></trkpt><trkpt lat="36.3500365" lon="-2.4288965"><ele>0.0</ele><time>2026-04-29T08:05:40.091Z</time></trkpt><trkpt lat="36.3500408" lon="-2.4287916"><ele>0.0</ele><time>2026-04-29T08:05:41.091Z</time></trkpt><trkpt lat="36.3500483" lon="-2.4286877"><ele>0.0</ele><time>2026-04-29T08:05:42.091Z</time></trkpt><trkpt lat="36.3500537" lon="-2.4285853"><ele>0.0</ele><time>2026-04-29T08:05:43.09Z</time></trkpt><trkpt lat="36.3500935" lon="-2.4284735"><ele>0.0</ele><time>2026-04-29T08:05:44.09Z</time></trkpt><trkpt lat="36.350104" lon="-2.4283649"><ele>0.0</ele><time>2026-04-29T08:05:45.091Z</time></trkpt><trkpt lat="36.3501379" lon="-2.4282508"><ele>0.0</ele><time>2026-04-29T08:05:46.09Z</time></trkpt><trkpt lat="36.3501564" lon="-2.4281388"><ele>0.0</ele><time>2026-04-29T08:05:47.09Z</time></trkpt><trkpt lat="36.3501774" lon="-2.42803"><ele>0.0</ele><time>2026-04-29T08:05:48.09Z</time></trkpt><trkpt lat="36.3502105" lon="-2.4279218"><ele>0.0</ele><time>2026-04-29T08:05:49.091Z</time></trkpt><trkpt lat="36.350235" lon="-2.4278133"><ele>0.0</ele><time>2026-04-29T08:05:50.091Z</time></trkpt><trkpt lat="36.3502559" lon="-2.4277068"><ele>0.0</ele><time>2026-04-29T08:05:51.09Z</time></trkpt><trkpt lat="36.3502895" lon="-2.427593"><ele>0.0</ele><time>2026-04-29T08:05:52.091Z</time></trkpt><trkpt lat="36.3503428" lon="-2.4274778"><ele>0.0</ele><time>2026-04-29T08:05:53.09Z</time></trkpt><trkpt lat="36.350353" lon="-2.4273657"><ele>0.0</ele><time>2026-04-29T08:05:54.09Z</time></trkpt><trkpt lat="36.3503693" lon="-2.4272538"><ele>0.0</ele><time>2026-04-29T08:05:55.09Z</time></trkpt><trkpt lat="36.3504219" lon="-2.4270315"><ele>0.0</ele><time>2026-04-29T08:05:57.09Z</time></trkpt><trkpt lat="36.350429" lon="-2.4269275"><ele>0.0</ele><time>2026-04-29T08:05:58.09Z</time></trkpt><trkpt lat="36.35043" lon="-2.4268197"><ele>0.0</ele><time>2026-04-29T08:05:59.09Z</time></trkpt><trkpt lat="36.3504458" lon="-2.4267131"><ele>0.0</ele><time>2026-04-29T08:06:00.091Z</time></trkpt><trkpt lat="36.3504578" lon="-2.4266082"><ele>0.0</ele><time>2026-04-29T08:06:01.091Z</time></trkpt><trkpt lat="36.3504736" lon="-2.4265045"><ele>0.0</ele><time>2026-04-29T08:06:02.09Z</time></trkpt><trkpt lat="36.3504921" lon="-2.4264025"><ele>0.0</ele><time>2026-04-29T08:06:03.09Z</time></trkpt><trkpt lat="36.3505106" lon="-2.4262978"><ele>0.0</ele><time>2026-04-29T08:06:04.091Z</time></trkpt><trkpt lat="36.3505292" lon="-2.4261843"><ele>0.0</ele><time>2026-04-29T08:06:05.09Z</time></trkpt><trkpt lat="36.3505307" lon="-2.4260767"><ele>0.0</ele><time>2026-04-29T08:06:06.09Z</time></trkpt><trkpt lat="36.3505419" lon="-2.4259759"><ele>0.0</ele><time>2026-04-29T08:06:07.09Z</time></trkpt><trkpt lat="36.3505621" lon="-2.4258744"><ele>0.0</ele><time>2026-04-29T08:06:08.091Z</time></trkpt><trkpt lat="36.3506051" lon="-2.4257613"><ele>0.0</ele><time>2026-04-29T08:06:09.09Z</time></trkpt><trkpt lat="36.3506207" lon="-2.425652"><ele>0.0</ele><time>2026-04-29T08:06:10.091Z</time></trkpt><trkpt lat="36.3506356" lon="-2.4255448"><ele>0.0</ele><time>2026-04-29T08:06:11.09Z</time></trkpt><trkpt lat="36.3506514" lon="-2.4254411"><ele>0.0</ele><time>2026-04-29T08:06:12.091Z</time></trkpt><trkpt lat="36.3506668" lon="-2.4253366"><ele>0.0</ele><time>2026-04-29T08:06:13.091Z</time></trkpt><trkpt lat="36.3506827" lon="-2.4252314"><ele>0.0</ele><time>2026-04-29T08:06:14.091Z</time></trkpt><trkpt lat="36.3506995" lon="-2.4251249"><ele>0.0</ele><time>2026-04-29T08:06:15.091Z</time></trkpt><trkpt lat="36.3507237" lon="-2.4250169"><ele>0.0</ele><time>2026-04-29T08:06:16.09Z</time></trkpt><trkpt lat="36.3507385" lon="-2.4248002"><ele>0.0</ele><time>2026-04-29T08:06:18.091Z</time></trkpt><trkpt lat="36.3507531" lon="-2.4246863"><ele>0.0</ele><time>2026-04-29T08:06:19.09Z</time></trkpt><trkpt lat="36.3507669" lon="-2.4245783"><ele>0.0</ele><time>2026-04-29T08:06:20.09Z</time></trkpt><trkpt lat="36.3507758" lon="-2.4244744"><ele>0.0</ele><time>2026-04-29T08:06:21.091Z</time></trkpt><trkpt lat="36.3507869" lon="-2.4243681"><ele>0.0</ele><time>2026-04-29T08:06:22.09Z</time></trkpt><trkpt lat="36.3507984" lon="-2.4242615"><ele>0.0</ele><time>2026-04-29T08:06:23.09Z</time></trkpt><trkpt lat="36.3507916" lon="-2.4241548"><ele>0.0</ele><time>2026-04-29T08:06:24.09Z</time></trkpt><trkpt lat="36.3507916" lon="-2.4240469"><ele>0.0</ele><time>2026-04-29T08:06:25.09Z</time></trkpt><trkpt lat="36.3507935" lon="-2.4239401"><ele>0.0</ele><time>2026-04-29T08:06:26.09Z</time></trkpt><trkpt lat="36.3507996" lon="-2.423832"><ele>0.0</ele><time>2026-04-29T08:06:27.091Z</time></trkpt><trkpt lat="36.3508105" lon="-2.4237263"><ele>0.0</ele><time>2026-04-29T08:06:28.09Z</time></trkpt><trkpt lat="36.3508178" lon="-2.4236244"><ele>0.0</ele><time>2026-04-29T08:06:29.09Z</time></trkpt><trkpt lat="36.3508243" lon="-2.4235214"><ele>0.0</ele><time>2026-04-29T08:06:30.091Z</time></trkpt><trkpt lat="36.3508307" lon="-2.4234166"><ele>0.0</ele><time>2026-04-29T08:06:31.09Z</time></trkpt><trkpt lat="36.350819" lon="-2.4233142"><ele>0.0</ele><time>2026-04-29T08:06:32.091Z</time></trkpt><trkpt lat="36.3508037" lon="-2.4232112"><ele>0.0</ele><time>2026-04-29T08:06:33.091Z</time></trkpt><trkpt lat="36.3508054" lon="-2.4231036"><ele>0.0</ele><time>2026-04-29T08:06:34.091Z</time></trkpt><trkpt lat="36.3508159" lon="-2.4229966"><ele>0.0</ele><time>2026-04-29T08:06:35.091Z</time></trkpt><trkpt lat="36.3508094" lon="-2.4228869"><ele>0.0</ele><time>2026-04-29T08:06:36.091Z</time></trkpt><trkpt lat="36.3508219" lon="-2.4227816"><ele>0.0</ele><time>2026-04-29T08:06:37.09Z</time></trkpt><trkpt lat="36.3508465" lon="-2.4225799"><ele>0.0</ele><time>2026-04-29T08:06:39.09Z</time></trkpt><trkpt lat="36.3508711" lon="-2.4224736"><ele>0.0</ele><time>2026-04-29T08:06:40.09Z</time></trkpt><trkpt lat="36.3508913" lon="-2.4223639"><ele>0.0</ele><time>2026-04-29T08:06:41.09Z</time></trkpt><trkpt lat="36.3509251" lon="-2.4222483"><ele>0.0</ele><time>2026-04-29T08:06:42.09Z</time></trkpt><trkpt lat="36.350959" lon="-2.4221328"><ele>0.0</ele><time>2026-04-29T08:06:43.09Z</time></trkpt><trkpt lat="36.350994" lon="-2.422023"><ele>0.0</ele><time>2026-04-29T08:06:44.091Z</time></trkpt><trkpt lat="36.3510196" lon="-2.4219146"><ele>0.0</ele><time>2026-04-29T08:06:45.09Z</time></trkpt><trkpt lat="36.3510388" lon="-2.4218121"><ele>0.0</ele><time>2026-04-29T08:06:46.09Z</time></trkpt><trkpt lat="36.3510541" lon="-2.4217122"><ele>0.0</ele><time>2026-04-29T08:06:47.09Z</time></trkpt><trkpt lat="36.3510589" lon="-2.4216077"><ele>0.0</ele><time>2026-04-29T08:06:48.091Z</time></trkpt><trkpt lat="36.3510593" lon="-2.4215042"><ele>0.0</ele><time>2026-04-29T08:06:49.091Z</time></trkpt><trkpt lat="36.3510589" lon="-2.4213981"><ele>0.0</ele><time>2026-04-29T08:06:50.09Z</time></trkpt><trkpt lat="36.3510672" lon="-2.421287"><ele>0.0</ele><time>2026-04-29T08:06:51.09Z</time></trkpt><trkpt lat="36.3510654" lon="-2.4211827"><ele>0.0</ele><time>2026-04-29T08:06:52.091Z</time></trkpt><trkpt lat="36.3510715" lon="-2.4210798"><ele>0.0</ele><time>2026-04-29T08:06:53.09Z</time></trkpt><trkpt lat="36.3510703" lon="-2.4209762"><ele>0.0</ele><time>2026-04-29T08:06:54.09Z</time></trkpt><trkpt lat="36.3510711" lon="-2.4208703"><ele>0.0</ele><time>2026-04-29T08:06:55.091Z</time></trkpt><trkpt lat="36.3510752" lon="-2.4207663"><ele>0.0</ele><time>2026-04-29T08:06:56.091Z</time></trkpt><trkpt lat="36.3510806" lon="-2.4206614"><ele>0.0</ele><time>2026-04-29T08:06:57.09Z</time></trkpt><trkpt lat="36.35108" lon="-2.4205577"><ele>0.0</ele><time>2026-04-29T08:06:58.09Z</time></trkpt><trkpt lat="36.3510624" lon="-2.4203492"><ele>0.0</ele><time>2026-04-29T08:07:00.09Z</time></trkpt><trkpt lat="36.3510681" lon="-2.4202462"><ele>0.0</ele><time>2026-04-29T08:07:01.09Z</time></trkpt><trkpt lat="36.3510763" lon="-2.4201444"><ele>0.0</ele><time>2026-04-29T08:07:02.09Z</time></trkpt><trkpt lat="36.3510887" lon="-2.4200427"><ele>0.0</ele><time>2026-04-29T08:07:03.091Z</time></trkpt><trkpt lat="36.3511053" lon="-2.4199386"><ele>0.0</ele><time>2026-04-29T08:07:04.09Z</time></trkpt><trkpt lat="36.3511238" lon="-2.4198332"><ele>0.0</ele><time>2026-04-29T08:07:05.09Z</time></trkpt><trkpt lat="36.351141" lon="-2.419727"><ele>0.0</ele><time>2026-04-29T08:07:06.09Z</time></trkpt><trkpt lat="36.3511549" lon="-2.4196175"><ele>0.0</ele><time>2026-04-29T08:07:07.09Z</time></trkpt><trkpt lat="36.351171" lon="-2.4195072"><ele>0.0</ele><time>2026-04-29T08:07:08.09Z</time></trkpt><trkpt lat="36.3511848" lon="-2.4193983"><ele>0.0</ele><time>2026-04-29T08:07:09.09Z</time></trkpt><trkpt lat="36.3511968" lon="-2.4192941"><ele>0.0</ele><time>2026-04-29T08:07:10.09Z</time></trkpt><trkpt lat="36.3512071" lon="-2.41919"><ele>0.0</ele><time>2026-04-29T08:07:11.09Z</time></trkpt><trkpt lat="36.351225" lon="-2.4190819"><ele>0.0</ele><time>2026-04-29T08:07:12.09Z</time></trkpt><trkpt lat="36.3512436" lon="-2.4189762"><ele>0.0</ele><time>2026-04-29T08:07:13.09Z</time></trkpt><trkpt lat="36.3512683" lon="-2.4188627"><ele>0.0</ele><time>2026-04-29T08:07:14.091Z</time></trkpt><trkpt lat="36.3512879" lon="-2.4187576"><ele>0.0</ele><time>2026-04-29T08:07:15.09Z</time></trkpt><trkpt lat="36.3513163" lon="-2.4186487"><ele>0.0</ele><time>2026-04-29T08:07:16.091Z</time></trkpt><trkpt lat="36.3513411" lon="-2.4185398"><ele>0.0</ele><time>2026-04-29T08:07:17.09Z</time></trkpt><trkpt lat="36.3513587" lon="-2.4184348"><ele>0.0</ele><time>2026-04-29T08:07:18.09Z</time></trkpt><trkpt lat="36.3513726" lon="-2.4183316"><ele>0.0</ele><time>2026-04-29T08:07:19.09Z</time></trkpt><trkpt lat="36.3514016" lon="-2.4181072"><ele>0.0</ele><time>2026-04-29T08:07:21.09Z</time></trkpt><trkpt lat="36.3514397" lon="-2.4179847"><ele>0.0</ele><time>2026-04-29T08:07:22.091Z</time></trkpt><trkpt lat="36.3514755" lon="-2.4178599"><ele>0.0</ele><time>2026-04-29T08:07:23.09Z</time></trkpt><trkpt lat="36.3515233" lon="-2.4177391"><ele>0.0</ele><time>2026-04-29T08:07:24.09Z</time></trkpt><trkpt lat="36.3515564" lon="-2.4176273"><ele>0.0</ele><time>2026-04-29T08:07:25.09Z</time></trkpt><trkpt lat="36.3515727" lon="-2.4175203"><ele>0.0</ele><time>2026-04-29T08:07:26.091Z</time></trkpt><trkpt lat="36.3515909" lon="-2.4174119"><ele>0.0</ele><time>2026-04-29T08:07:27.091Z</time></trkpt><trkpt lat="36.3516122" lon="-2.4173068"><ele>0.0</ele><time>2026-04-29T08:07:28.09Z</time></trkpt><trkpt lat="36.3516284" lon="-2.4172044"><ele>0.0</ele><time>2026-04-29T08:07:29.09Z</time></trkpt><trkpt lat="36.3516382" lon="-2.4171026"><ele>0.0</ele><time>2026-04-29T08:07:30.091Z</time></trkpt><trkpt lat="36.3516564" lon="-2.4169982"><ele>0.0</ele><time>2026-04-29T08:07:31.091Z</time></trkpt><trkpt lat="36.3516784" lon="-2.4168918"><ele>0.0</ele><time>2026-04-29T08:07:32.091Z</time></trkpt><trkpt lat="36.3516961" lon="-2.4167894"><ele>0.0</ele><time>2026-04-29T08:07:33.09Z</time></trkpt><trkpt lat="36.3517125" lon="-2.4166894"><ele>0.0</ele><time>2026-04-29T08:07:34.09Z</time></trkpt><trkpt lat="36.3517331" lon="-2.4165836"><ele>0.0</ele><time>2026-04-29T08:07:35.09Z</time></trkpt><trkpt lat="36.3517532" lon="-2.4164796"><ele>0.0</ele><time>2026-04-29T08:07:36.091Z</time></trkpt><trkpt lat="36.3517647" lon="-2.4163778"><ele>0.0</ele><time>2026-04-29T08:07:37.09Z</time></trkpt><trkpt lat="36.3517802" lon="-2.4162731"><ele>0.0</ele><time>2026-04-29T08:07:38.091Z</time></trkpt><trkpt lat="36.3517953" lon="-2.416168"><ele>0.0</ele><time>2026-04-29T08:07:39.09Z</time></trkpt><trkpt lat="36.3518247" lon="-2.4160618"><ele>0.0</ele><time>2026-04-29T08:07:40.09Z</time></trkpt><trkpt lat="36.3518771" lon="-2.4158503"><ele>0.0</ele><time>2026-04-29T08:07:42.09Z</time></trkpt><trkpt lat="36.3519024" lon="-2.4157418"><ele>0.0</ele><time>2026-04-29T08:07:43.091Z</time></trkpt><trkpt lat="36.3519619" lon="-2.4156222"><ele>0.0</ele><time>2026-04-29T08:07:44.09Z</time></trkpt><trkpt lat="36.3519959" lon="-2.4155149"><ele>0.0</ele><time>2026-04-29T08:07:45.09Z</time></trkpt><trkpt lat="36.3520305" lon="-2.4154042"><ele>0.0</ele><time>2026-04-29T08:07:46.091Z</time></trkpt><trkpt lat="36.3520593" lon="-2.4152952"><ele>0.0</ele><time>2026-04-29T08:07:47.091Z</time></trkpt><trkpt lat="36.352076" lon="-2.4151821"><ele>0.0</ele><time>2026-04-29T08:07:48.091Z</time></trkpt><trkpt lat="36.3521052" lon="-2.4150762"><ele>0.0</ele><time>2026-04-29T08:07:49.09Z</time></trkpt><trkpt lat="36.3521172" lon="-2.4149656"><ele>0.0</ele><time>2026-04-29T08:07:50.091Z</time></trkpt><trkpt lat="36.3521142" lon="-2.414858"><ele>0.0</ele><time>2026-04-29T08:07:51.09Z</time></trkpt><trkpt lat="36.3521074" lon="-2.4147544"><ele>0.0</ele><time>2026-04-29T08:07:52.09Z</time></trkpt><trkpt lat="36.3521287" lon="-2.4146502"><ele>0.0</ele><time>2026-04-29T08:07:53.09Z</time></trkpt><trkpt lat="36.352161" lon="-2.4145422"><ele>0.0</ele><time>2026-04-29T08:07:54.091Z</time></trkpt><trkpt lat="36.3521836" lon="-2.4144337"><ele>0.0</ele><time>2026-04-29T08:07:55.09Z</time></trkpt><trkpt lat="36.3521913" lon="-2.4143251"><ele>0.0</ele><time>2026-04-29T08:07:56.09Z</time></trkpt><trkpt lat="36.3521862" lon="-2.4142108"><ele>0.0</ele><time>2026-04-29T08:07:57.09Z</time></trkpt><trkpt lat="36.3521539" lon="-2.4141042"><ele>0.0</ele><time>2026-04-29T08:07:58.091Z</time></trkpt><trkpt lat="36.3521678" lon="-2.4139965"><ele>0.0</ele><time>2026-04-29T08:07:59.091Z</time></trkpt><trkpt lat="36.3521755" lon="-2.4138942"><ele>0.0</ele><time>2026-04-29T08:08:00.091Z</time></trkpt><trkpt lat="36.3521458" lon="-2.4137868"><ele>0.0</ele><time>2026-04-29T08:08:01.09Z</time></trkpt><trkpt lat="36.35213" lon="-2.4135864"><ele>0.0</ele><time>2026-04-29T08:08:03.09Z</time></trkpt><trkpt lat="36.3521225" lon="-2.413486"><ele>0.0</ele><time>2026-04-29T08:08:04.09Z</time></trkpt><trkpt lat="36.3521205" lon="-2.4133847"><ele>0.0</ele><time>2026-04-29T08:08:05.091Z</time></trkpt><trkpt lat="36.3521269" lon="-2.4132803"><ele>0.0</ele><time>2026-04-29T08:08:06.091Z</time></trkpt><trkpt lat="36.3521207" lon="-2.4131705"><ele>0.0</ele><time>2026-04-29T08:08:07.09Z</time></trkpt><trkpt lat="36.3521478" lon="-2.4130606"><ele>0.0</ele><time>2026-04-29T08:08:08.09Z</time></trkpt><trkpt lat="36.3521536" lon="-2.412958"><ele>0.0</ele><time>2026-04-29T08:08:09.09Z</time></trkpt><trkpt lat="36.3521618" lon="-2.4128565"><ele>0.0</ele><time>2026-04-29T08:08:10.091Z</time></trkpt><trkpt lat="36.3521664" lon="-2.4127517"><ele>0.0</ele><time>2026-04-29T08:08:11.091Z</time></trkpt><trkpt lat="36.3521742" lon="-2.4126493"><ele>0.0</ele><time>2026-04-29T08:08:12.091Z</time></trkpt><trkpt lat="36.3521882" lon="-2.4125433"><ele>0.0</ele><time>2026-04-29T08:08:13.091Z</time></trkpt><trkpt lat="36.3522069" lon="-2.4124385"><ele>0.0</ele><time>2026-04-29T08:08:14.091Z</time></trkpt><trkpt lat="36.3522269" lon="-2.412332"><ele>0.0</ele><time>2026-04-29T08:08:15.09Z</time></trkpt><trkpt lat="36.352246" lon="-2.4122267"><ele>0.0</ele><time>2026-04-29T08:08:16.091Z</time></trkpt><trkpt lat="36.3522675" lon="-2.41212"><ele>0.0</ele><time>2026-04-29T08:08:17.091Z</time></trkpt><trkpt lat="36.3522964" lon="-2.4120107"><ele>0.0</ele><time>2026-04-29T08:08:18.09Z</time></trkpt><trkpt lat="36.3523437" lon="-2.411895"><ele>0.0</ele><time>2026-04-29T08:08:19.09Z</time></trkpt><trkpt lat="36.3523697" lon="-2.4117872"><ele>0.0</ele><time>2026-04-29T08:08:20.09Z</time></trkpt><trkpt lat="36.3523981" lon="-2.4116761"><ele>0.0</ele><time>2026-04-29T08:08:21.09Z</time></trkpt><trkpt lat="36.3524181" lon="-2.4115652"><ele>0.0</ele><time>2026-04-29T08:08:22.09Z</time></trkpt><trkpt lat="36.3524132" lon="-2.4113503"><ele>0.0</ele><time>2026-04-29T08:08:24.09Z</time></trkpt><trkpt lat="36.3524061" lon="-2.4112392"><ele>0.0</ele><time>2026-04-29T08:08:25.091Z</time></trkpt><trkpt lat="36.3524017" lon="-2.4111299"><ele>0.0</ele><time>2026-04-29T08:08:26.09Z</time></trkpt><trkpt lat="36.3524309" lon="-2.4110117"><ele>0.0</ele><time>2026-04-29T08:08:27.091Z</time></trkpt><trkpt lat="36.3524447" lon="-2.410906"><ele>0.0</ele><time>2026-04-29T08:08:28.091Z</time></trkpt><trkpt lat="36.3524593" lon="-2.4108013"><ele>0.0</ele><time>2026-04-29T08:08:29.09Z</time></trkpt><trkpt lat="36.352503" lon="-2.4106889"><ele>0.0</ele><time>2026-04-29T08:08:30.09Z</time></trkpt><trkpt lat="36.3525144" lon="-2.4105846"><ele>0.0</ele><time>2026-04-29T08:08:31.09Z</time></trkpt><trkpt lat="36.3525227" lon="-2.4104798"><ele>0.0</ele><time>2026-04-29T08:08:32.091Z</time></trkpt><trkpt lat="36.352535" lon="-2.4103732"><ele>0.0</ele><time>2026-04-29T08:08:33.091Z</time></trkpt><trkpt lat="36.352547" lon="-2.4102651"><ele>0.0</ele><time>2026-04-29T08:08:34.09Z</time></trkpt><trkpt lat="36.3525547" lon="-2.4101552"><ele>0.0</ele><time>2026-04-29T08:08:35.091Z</time></trkpt><trkpt lat="36.3525511" lon="-2.410047"><ele>0.0</ele><time>2026-04-29T08:08:36.091Z</time></trkpt><trkpt lat="36.3525484" lon="-2.4099387"><ele>0.0</ele><time>2026-04-29T08:08:37.091Z</time></trkpt><trkpt lat="36.3525464" lon="-2.4098319"><ele>0.0</ele><time>2026-04-29T08:08:38.09Z</time></trkpt><trkpt lat="36.3525463" lon="-2.4097267"><ele>0.0</ele><time>2026-04-29T08:08:39.09Z</time></trkpt><trkpt lat="36.3525467" lon="-2.409623"><ele>0.0</ele><time>2026-04-29T08:08:40.091Z</time></trkpt><trkpt lat="36.3525597" lon="-2.4095155"><ele>0.0</ele><time>2026-04-29T08:08:41.091Z</time></trkpt><trkpt lat="36.3525778" lon="-2.4094084"><ele>0.0</ele><time>2026-04-29T08:08:42.091Z</time></trkpt><trkpt lat="36.3526077" lon="-2.4093017"><ele>0.0</ele><time>2026-04-29T08:08:43.09Z</time></trkpt><trkpt lat="36.3526497" lon="-2.4090855"><ele>0.0</ele><time>2026-04-29T08:08:45.091Z</time></trkpt><trkpt lat="36.3526712" lon="-2.408977"><ele>0.0</ele><time>2026-04-29T08:08:46.09Z</time></trkpt><trkpt lat="36.3526873" lon="-2.408873"><ele>0.0</ele><time>2026-04-29T08:08:47.091Z</time></trkpt><trkpt lat="36.3527092" lon="-2.4087656"><ele>0.0</ele><time>2026-04-29T08:08:48.09Z</time></trkpt><trkpt lat="36.352727" lon="-2.4086601"><ele>0.0</ele><time>2026-04-29T08:08:49.09Z</time></trkpt><trkpt lat="36.3527422" lon="-2.4085535"><ele>0.0</ele><time>2026-04-29T08:08:50.09Z</time></trkpt><trkpt lat="36.3527568" lon="-2.4084481"><ele>0.0</ele><time>2026-04-29T08:08:51.091Z</time></trkpt><trkpt lat="36.3527725" lon="-2.4083373"><ele>0.0</ele><time>2026-04-29T08:08:52.09Z</time></trkpt><trkpt lat="36.3527871" lon="-2.4082268"><ele>0.0</ele><time>2026-04-29T08:08:53.09Z</time></trkpt><trkpt lat="36.3528026" lon="-2.4081181"><ele>0.0</ele><time>2026-04-29T08:08:54.091Z</time></trkpt><trkpt lat="36.3528206" lon="-2.40801"><ele>0.0</ele><time>2026-04-29T08:08:55.091Z</time></trkpt><trkpt lat="36.3528415" lon="-2.4079002"><ele>0.0</ele><time>2026-04-29T08:08:56.09Z</time></trkpt><trkpt lat="36.3528546" lon="-2.4077944"><ele>0.0</ele><time>2026-04-29T08:08:57.09Z</time></trkpt><trkpt lat="36.3528744" lon="-2.4076984"><ele>0.0</ele><time>2026-04-29T08:08:58.09Z</time></trkpt><trkpt lat="36.3528917" lon="-2.4075965"><ele>0.0</ele><time>2026-04-29T08:08:59.09Z</time></trkpt><trkpt lat="36.3529394" lon="-2.4074858"><ele>0.0</ele><time>2026-04-29T08:09:00.09Z</time></trkpt><trkpt lat="36.3529625" lon="-2.4073814"><ele>0.0</ele><time>2026-04-29T08:09:01.091Z</time></trkpt><trkpt lat="36.3529792" lon="-2.4072736"><ele>0.0</ele><time>2026-04-29T08:09:02.091Z</time></trkpt><trkpt lat="36.352989" lon="-2.4071653"><ele>0.0</ele><time>2026-04-29T08:09:03.09Z</time></trkpt><trkpt lat="36.3529961" lon="-2.4070515"><ele>0.0</ele><time>2026-04-29T08:09:04.091Z</time></trkpt><trkpt lat="36.3530191" lon="-2.4068377"><ele>0.0</ele><time>2026-04-29T08:09:06.091Z</time></trkpt><trkpt lat="36.3529996" lon="-2.4067431"><ele>0.0</ele><time>2026-04-29T08:09:07.09Z</time></trkpt><trkpt lat="36.3530101" lon="-2.4066399"><ele>0.0</ele><time>2026-04-29T08:09:08.09Z</time></trkpt><trkpt lat="36.3530221" lon="-2.4065308"><ele>0.0</ele><time>2026-04-29T08:09:09.09Z</time></trkpt><trkpt lat="36.3530366" lon="-2.4064223"><ele>0.0</ele><time>2026-04-29T08:09:10.091Z</time></trkpt><trkpt lat="36.3530645" lon="-2.4063137"><ele>0.0</ele><time>2026-04-29T08:09:11.09Z</time></trkpt><trkpt lat="36.3530849" lon="-2.4062054"><ele>0.0</ele><time>2026-04-29T08:09:12.09Z</time></trkpt><trkpt lat="36.3530938" lon="-2.4060999"><ele>0.0</ele><time>2026-04-29T08:09:13.09Z</time></trkpt><trkpt lat="36.3531162" lon="-2.405989"><ele>0.0</ele><time>2026-04-29T08:09:14.09Z</time></trkpt><trkpt lat="36.3531207" lon="-2.4058803"><ele>0.0</ele><time>2026-04-29T08:09:15.091Z</time></trkpt><trkpt lat="36.3531338" lon="-2.4057732"><ele>0.0</ele><time>2026-04-29T08:09:16.091Z</time></trkpt><trkpt lat="36.3531518" lon="-2.4056664"><ele>0.0</ele><time>2026-04-29T08:09:17.091Z</time></trkpt><trkpt lat="36.353165" lon="-2.4055626"><ele>0.0</ele><time>2026-04-29T08:09:18.091Z</time></trkpt><trkpt lat="36.3531749" lon="-2.4054534"><ele>0.0</ele><time>2026-04-29T08:09:19.09Z</time></trkpt><trkpt lat="36.3531932" lon="-2.4053476"><ele>0.0</ele><time>2026-04-29T08:09:20.09Z</time></trkpt><trkpt lat="36.3532031" lon="-2.4052429"><ele>0.0</ele><time>2026-04-29T08:09:21.09Z</time></trkpt><trkpt lat="36.3531898" lon="-2.4051398"><ele>0.0</ele><time>2026-04-29T08:09:22.09Z</time></trkpt><trkpt lat="36.3531897" lon="-2.4050336"><ele>0.0</ele><time>2026-04-29T08:09:23.09Z</time></trkpt><trkpt lat="36.353169" lon="-2.4049325"><ele>0.0</ele><time>2026-04-29T08:09:24.091Z</time></trkpt><trkpt lat="36.3531714" lon="-2.4048296"><ele>0.0</ele><time>2026-04-29T08:09:25.091Z</time></trkpt><trkpt lat="36.3531924" lon="-2.4046146"><ele>0.0</ele><time>2026-04-29T08:09:27.091Z</time></trkpt><trkpt lat="36.3532023" lon="-2.4045057"><ele>0.0</ele><time>2026-04-29T08:09:28.09Z</time></trkpt><trkpt lat="36.3532123" lon="-2.4044011"><ele>0.0</ele><time>2026-04-29T08:09:29.091Z</time></trkpt><trkpt lat="36.3532245" lon="-2.4042965"><ele>0.0</ele><time>2026-04-29T08:09:30.09Z</time></trkpt><trkpt lat="36.3532388" lon="-2.4041901"><ele>0.0</ele><time>2026-04-29T08:09:31.091Z</time></trkpt><trkpt lat="36.353239" lon="-2.4040833"><ele>0.0</ele><time>2026-04-29T08:09:32.091Z</time></trkpt><trkpt lat="36.3532405" lon="-2.40398"><ele>0.0</ele><time>2026-04-29T08:09:33.09Z</time></trkpt><trkpt lat="36.3532433" lon="-2.4038736"><ele>0.0</ele><time>2026-04-29T08:09:34.09Z</time></trkpt><trkpt lat="36.3532538" lon="-2.403767"><ele>0.0</ele><time>2026-04-29T08:09:35.091Z</time></trkpt><trkpt lat="36.3532694" lon="-2.4036515"><ele>0.0</ele><time>2026-04-29T08:09:36.091Z</time></trkpt><trkpt lat="36.3533459" lon="-2.4035216"><ele>0.0</ele><time>2026-04-29T08:09:37.09Z</time></trkpt><trkpt lat="36.3533667" lon="-2.4034082"><ele>0.0</ele><time>2026-04-29T08:09:38.09Z</time></trkpt><trkpt lat="36.3533808" lon="-2.4033013"><ele>0.0</ele><time>2026-04-29T08:09:39.091Z</time></trkpt><trkpt lat="36.353376" lon="-2.4031964"><ele>0.0</ele><time>2026-04-29T08:09:40.091Z</time></trkpt><trkpt lat="36.3533932" lon="-2.4030902"><ele>0.0</ele><time>2026-04-29T08:09:41.09Z</time></trkpt><trkpt lat="36.3534121" lon="-2.4029833"><ele>0.0</ele><time>2026-04-29T08:09:42.09Z</time></trkpt><trkpt lat="36.3534315" lon="-2.4028779"><ele>0.0</ele><time>2026-04-29T08:09:43.09Z</time></trkpt><trkpt lat="36.3534424" lon="-2.4027731"><ele>0.0</ele><time>2026-04-29T08:09:44.091Z</time></trkpt><trkpt lat="36.3534233" lon="-2.4026713"><ele>0.0</ele><time>2026-04-29T08:09:45.09Z</time></trkpt><trkpt lat="36.3534328" lon="-2.4024579"><ele>0.0</ele><time>2026-04-29T08:09:47.091Z</time></trkpt><trkpt lat="36.3534583" lon="-2.4023475"><ele>0.0</ele><time>2026-04-29T08:09:48.09Z</time></trkpt><trkpt lat="36.3534493" lon="-2.4022416"><ele>0.0</ele><time>2026-04-29T08:09:49.09Z</time></trkpt><trkpt lat="36.35345" lon="-2.4021336"><ele>0.0</ele><time>2026-04-29T08:09:50.091Z</time></trkpt><trkpt lat="36.3534613" lon="-2.4020251"><ele>0.0</ele><time>2026-04-29T08:09:51.09Z</time></trkpt><trkpt lat="36.3534644" lon="-2.4019223"><ele>0.0</ele><time>2026-04-29T08:09:52.09Z</time></trkpt><trkpt lat="36.3534594" lon="-2.4018226"><ele>0.0</ele><time>2026-04-29T08:09:53.091Z</time></trkpt><trkpt lat="36.3534655" lon="-2.4017198"><ele>0.0</ele><time>2026-04-29T08:09:54.09Z</time></trkpt><trkpt lat="36.3534804" lon="-2.4016136"><ele>0.0</ele><time>2026-04-29T08:09:55.091Z</time></trkpt><trkpt lat="36.3535049" lon="-2.4015071"><ele>0.0</ele><time>2026-04-29T08:09:56.09Z</time></trkpt><trkpt lat="36.3535816" lon="-2.4013917"><ele>0.0</ele><time>2026-04-29T08:09:57.091Z</time></trkpt><trkpt lat="36.353658" lon="-2.4012761"><ele>0.0</ele><time>2026-04-29T08:09:58.091Z</time></trkpt><trkpt lat="36.3537018" lon="-2.4011696"><ele>0.0</ele><time>2026-04-29T08:09:59.09Z</time></trkpt><trkpt lat="36.3537324" lon="-2.4010646"><ele>0.0</ele><time>2026-04-29T08:10:00.091Z</time></trkpt><trkpt lat="36.3537521" lon="-2.4009611"><ele>0.0</ele><time>2026-04-29T08:10:01.091Z</time></trkpt><trkpt lat="36.3538452" lon="-2.4008393"><ele>0.0</ele><time>2026-04-29T08:10:02.09Z</time></trkpt><trkpt lat="36.3538753" lon="-2.400727"><ele>0.0</ele><time>2026-04-29T08:10:03.091Z</time></trkpt><trkpt lat="36.3538933" lon="-2.4006112"><ele>0.0</ele><time>2026-04-29T08:10:04.091Z</time></trkpt><trkpt lat="36.3539179" lon="-2.4005018"><ele>0.0</ele><time>2026-04-29T08:10:05.091Z</time></trkpt><trkpt lat="36.3539515" lon="-2.4003934"><ele>0.0</ele><time>2026-04-29T08:10:06.09Z</time></trkpt><trkpt lat="36.3539914" lon="-2.4001919"><ele>0.0</ele><time>2026-04-29T08:10:08.091Z</time></trkpt><trkpt lat="36.3539947" lon="-2.4000955"><ele>0.0</ele><time>2026-04-29T08:10:09.091Z</time></trkpt><trkpt lat="36.3539931" lon="-2.3999949"><ele>0.0</ele><time>2026-04-29T08:10:10.09Z</time></trkpt><trkpt lat="36.3540016" lon="-2.3998887"><ele>0.0</ele><time>2026-04-29T08:10:11.091Z</time></trkpt><trkpt lat="36.3539929" lon="-2.3997805"><ele>0.0</ele><time>2026-04-29T08:10:12.09Z</time></trkpt><trkpt lat="36.354024" lon="-2.3996618"><ele>0.0</ele><time>2026-04-29T08:10:13.09Z</time></trkpt><trkpt lat="36.3540276" lon="-2.3995576"><ele>0.0</ele><time>2026-04-29T08:10:14.09Z</time></trkpt><trkpt lat="36.3540278" lon="-2.3994529"><ele>0.0</ele><time>2026-04-29T08:10:15.09Z</time></trkpt><trkpt lat="36.3540273" lon="-2.3993466"><ele>0.0</ele><time>2026-04-29T08:10:16.091Z</time></trkpt><trkpt lat="36.3540344" lon="-2.3992402"><ele>0.0</ele><time>2026-04-29T08:10:17.091Z</time></trkpt><trkpt lat="36.3540401" lon="-2.3991378"><ele>0.0</ele><time>2026-04-29T08:10:18.091Z</time></trkpt><trkpt lat="36.3540422" lon="-2.3990335"><ele>0.0</ele><time>2026-04-29T08:10:19.091Z</time></trkpt><trkpt lat="36.3540496" lon="-2.3989281"><ele>0.0</ele><time>2026-04-29T08:10:20.09Z</time></trkpt><trkpt lat="36.3540507" lon="-2.3988233"><ele>0.0</ele><time>2026-04-29T08:10:21.091Z</time></trkpt><trkpt lat="36.3540568" lon="-2.3987168"><ele>0.0</ele><time>2026-04-29T08:10:22.09Z</time></trkpt><trkpt lat="36.3540713" lon="-2.3986102"><ele>0.0</ele><time>2026-04-29T08:10:23.09Z</time></trkpt><trkpt lat="36.354085" lon="-2.3985033"><ele>0.0</ele><time>2026-04-29T08:10:24.091Z</time></trkpt><trkpt lat="36.3541057" lon="-2.3983969"><ele>0.0</ele><time>2026-04-29T08:10:25.09Z</time></trkpt><trkpt lat="36.3541067" lon="-2.3982917"><ele>0.0</ele><time>2026-04-29T08:10:26.091Z</time></trkpt><trkpt lat="36.354099" lon="-2.3981838"><ele>0.0</ele><time>2026-04-29T08:10:27.09Z</time></trkpt><trkpt lat="36.3541066" lon="-2.3979721"><ele>0.0</ele><time>2026-04-29T08:10:29.091Z</time></trkpt><trkpt lat="36.3541241" lon="-2.3978678"><ele>0.0</ele><time>2026-04-29T08:10:30.091Z</time></trkpt><trkpt lat="36.3541398" lon="-2.3977632"><ele>0.0</ele><time>2026-04-29T08:10:31.09Z</time></trkpt><trkpt lat="36.3541422" lon="-2.3976597"><ele>0.0</ele><time>2026-04-29T08:10:32.09Z</time></trkpt><trkpt lat="36.3541524" lon="-2.3975594"><ele>0.0</ele><time>2026-04-29T08:10:33.091Z</time></trkpt><trkpt lat="36.354165" lon="-2.3974563"><ele>0.0</ele><time>2026-04-29T08:10:34.091Z</time></trkpt><trkpt lat="36.3541816" lon="-2.397353"><ele>0.0</ele><time>2026-04-29T08:10:35.09Z</time></trkpt><trkpt lat="36.3541987" lon="-2.3972468"><ele>0.0</ele><time>2026-04-29T08:10:36.09Z</time></trkpt><trkpt lat="36.3542085" lon="-2.397141"><ele>0.0</ele><time>2026-04-29T08:10:37.09Z</time></trkpt><trkpt lat="36.3542218" lon="-2.3970393"><ele>0.0</ele><time>2026-04-29T08:10:38.091Z</time></trkpt><trkpt lat="36.3542092" lon="-2.3969329"><ele>0.0</ele><time>2026-04-29T08:10:39.09Z</time></trkpt><trkpt lat="36.3542123" lon="-2.3968279"><ele>0.0</ele><time>2026-04-29T08:10:40.091Z</time></trkpt><trkpt lat="36.3542256" lon="-2.3967205"><ele>0.0</ele><time>2026-04-29T08:10:41.09Z</time></trkpt><trkpt lat="36.3542394" lon="-2.3966123"><ele>0.0</ele><time>2026-04-29T08:10:42.09Z</time></trkpt><trkpt lat="36.3542644" lon="-2.396504"><ele>0.0</ele><time>2026-04-29T08:10:43.09Z</time></trkpt><trkpt lat="36.3542841" lon="-2.3963959"><ele>0.0</ele><time>2026-04-29T08:10:44.091Z</time></trkpt><trkpt lat="36.3543024" lon="-2.3962872"><ele>0.0</ele><time>2026-04-29T08:10:45.091Z</time></trkpt><trkpt lat="36.3543263" lon="-2.3961816"><ele>0.0</ele><time>2026-04-29T08:10:46.09Z</time></trkpt><trkpt lat="36.3543447" lon="-2.3960752"><ele>0.0</ele><time>2026-04-29T08:10:47.091Z</time></trkpt><trkpt lat="36.3543675" lon="-2.3959684"><ele>0.0</ele><time>2026-04-29T08:10:48.09Z</time></trkpt><trkpt lat="36.3544688" lon="-2.3957561"><ele>0.0</ele><time>2026-04-29T08:10:50.09Z</time></trkpt><trkpt lat="36.3544895" lon="-2.39565"><ele>0.0</ele><time>2026-04-29T08:10:51.09Z</time></trkpt><trkpt lat="36.3545093" lon="-2.395539"><ele>0.0</ele><time>2026-04-29T08:10:52.09Z</time></trkpt><trkpt lat="36.3545239" lon="-2.39543"><ele>0.0</ele><time>2026-04-29T08:10:53.09Z</time></trkpt><trkpt lat="36.3545569" lon="-2.3953144"><ele>0.0</ele><time>2026-04-29T08:10:54.09Z</time></trkpt><trkpt lat="36.3545729" lon="-2.3952051"><ele>0.0</ele><time>2026-04-29T08:10:55.091Z</time></trkpt><trkpt lat="36.3545974" lon="-2.3950971"><ele>0.0</ele><time>2026-04-29T08:10:56.09Z</time></trkpt><trkpt lat="36.3546075" lon="-2.3949941"><ele>0.0</ele><time>2026-04-29T08:10:57.091Z</time></trkpt><trkpt lat="36.3546195" lon="-2.3948883"><ele>0.0</ele><time>2026-04-29T08:10:58.091Z</time></trkpt><trkpt lat="36.3546125" lon="-2.3947803"><ele>0.0</ele><time>2026-04-29T08:10:59.091Z</time></trkpt><trkpt lat="36.3546166" lon="-2.3946674"><ele>0.0</ele><time>2026-04-29T08:11:00.089Z</time></trkpt><trkpt lat="36.3546364" lon="-2.3945584"><ele>0.0</ele><time>2026-04-29T08:11:01.089Z</time></trkpt><trkpt lat="36.3546497" lon="-2.3944478"><ele>0.0</ele><time>2026-04-29T08:11:02.09Z</time></trkpt><trkpt lat="36.3546684" lon="-2.3943387"><ele>0.0</ele><time>2026-04-29T08:11:03.089Z</time></trkpt><trkpt lat="36.3546827" lon="-2.3942286"><ele>0.0</ele><time>2026-04-29T08:11:04.089Z</time></trkpt><trkpt lat="36.3546975" lon="-2.3941218"><ele>0.0</ele><time>2026-04-29T08:11:05.089Z</time></trkpt><trkpt lat="36.3547112" lon="-2.3940111"><ele>0.0</ele><time>2026-04-29T08:11:06.09Z</time></trkpt><trkpt lat="36.3547051" lon="-2.3939021"><ele>0.0</ele><time>2026-04-29T08:11:07.09Z</time></trkpt><trkpt lat="36.3546967" lon="-2.393795"><ele>0.0</ele><time>2026-04-29T08:11:08.09Z</time></trkpt><trkpt lat="36.3547094" lon="-2.39369"><ele>0.0</ele><time>2026-04-29T08:11:09.089Z</time></trkpt><trkpt lat="36.3547031" lon="-2.3934785"><ele>0.0</ele><time>2026-04-29T08:11:11.089Z</time></trkpt><trkpt lat="36.3546967" lon="-2.3933713"><ele>0.0</ele><time>2026-04-29T08:11:12.09Z</time></trkpt><trkpt lat="36.3547066" lon="-2.3932594"><ele>0.0</ele><time>2026-04-29T08:11:13.089Z</time></trkpt><trkpt lat="36.3547172" lon="-2.3931562"><ele>0.0</ele><time>2026-04-29T08:11:14.089Z</time></trkpt><trkpt lat="36.3547247" lon="-2.3930371"><ele>0.0</ele><time>2026-04-29T08:11:15.089Z</time></trkpt><trkpt lat="36.3547275" lon="-2.3929215"><ele>0.0</ele><time>2026-04-29T08:11:16.089Z</time></trkpt><trkpt lat="36.3547206" lon="-2.392812"><ele>0.0</ele><time>2026-04-29T08:11:17.089Z</time></trkpt><trkpt lat="36.3547163" lon="-2.3927061"><ele>0.0</ele><time>2026-04-29T08:11:18.09Z</time></trkpt><trkpt lat="36.3547185" lon="-2.3926011"><ele>0.0</ele><time>2026-04-29T08:11:19.09Z</time></trkpt><trkpt lat="36.3547164" lon="-2.3924977"><ele>0.0</ele><time>2026-04-29T08:11:20.089Z</time></trkpt><trkpt lat="36.3547175" lon="-2.3923947"><ele>0.0</ele><time>2026-04-29T08:11:21.09Z</time></trkpt><trkpt lat="36.3547319" lon="-2.3922883"><ele>0.0</ele><time>2026-04-29T08:11:22.089Z</time></trkpt><trkpt lat="36.3547769" lon="-2.3921774"><ele>0.0</ele><time>2026-04-29T08:11:23.089Z</time></trkpt><trkpt lat="36.3548111" lon="-2.3920714"><ele>0.0</ele><time>2026-04-29T08:11:24.089Z</time></trkpt><trkpt lat="36.354849" lon="-2.3919636"><ele>0.0</ele><time>2026-04-29T08:11:25.09Z</time></trkpt><trkpt lat="36.3548786" lon="-2.3918539"><ele>0.0</ele><time>2026-04-29T08:11:26.089Z</time></trkpt><trkpt lat="36.3548901" lon="-2.3917482"><ele>0.0</ele><time>2026-04-29T08:11:27.089Z</time></trkpt><trkpt lat="36.3549016" lon="-2.3916429"><ele>0.0</ele><time>2026-04-29T08:11:28.089Z</time></trkpt><trkpt lat="36.3549102" lon="-2.3915349"><ele>0.0</ele><time>2026-04-29T08:11:29.089Z</time></trkpt><trkpt lat="36.3549191" lon="-2.3914314"><ele>0.0</ele><time>2026-04-29T08:11:30.09Z</time></trkpt><trkpt lat="36.3549083" lon="-2.3912162"><ele>0.0</ele><time>2026-04-29T08:11:32.09Z</time></trkpt><trkpt lat="36.3549124" lon="-2.3911141"><ele>0.0</ele><time>2026-04-29T08:11:33.089Z</time></trkpt><trkpt lat="36.3548987" lon="-2.3910123"><ele>0.0</ele><time>2026-04-29T08:11:34.089Z</time></trkpt><trkpt lat="36.3549005" lon="-2.3909162"><ele>0.0</ele><time>2026-04-29T08:11:35.09Z</time></trkpt><trkpt lat="36.3549086" lon="-2.3908138"><ele>0.0</ele><time>2026-04-29T08:11:36.09Z</time></trkpt><trkpt lat="36.3549131" lon="-2.390707"><ele>0.0</ele><time>2026-04-29T08:11:37.09Z</time></trkpt><trkpt lat="36.354951" lon="-2.3905919"><ele>0.0</ele><time>2026-04-29T08:11:38.089Z</time></trkpt><trkpt lat="36.3549532" lon="-2.3904853"><ele>0.0</ele><time>2026-04-29T08:11:39.09Z</time></trkpt><trkpt lat="36.3549865" lon="-2.390373"><ele>0.0</ele><time>2026-04-29T08:11:40.089Z</time></trkpt><trkpt lat="36.3549945" lon="-2.3902563"><ele>0.0</ele><time>2026-04-29T08:11:41.09Z</time></trkpt><trkpt lat="36.3549638" lon="-2.3901536"><ele>0.0</ele><time>2026-04-29T08:11:42.089Z</time></trkpt><trkpt lat="36.3549136" lon="-2.390054"><ele>0.0</ele><time>2026-04-29T08:11:43.089Z</time></trkpt><trkpt lat="36.3548794" lon="-2.3899513"><ele>0.0</ele><time>2026-04-29T08:11:44.089Z</time></trkpt><trkpt lat="36.3548514" lon="-2.3898507"><ele>0.0</ele><time>2026-04-29T08:11:45.09Z</time></trkpt><trkpt lat="36.3548556" lon="-2.3897449"><ele>0.0</ele><time>2026-04-29T08:11:46.09Z</time></trkpt><trkpt lat="36.3548477" lon="-2.389641"><ele>0.0</ele><time>2026-04-29T08:11:47.09Z</time></trkpt><trkpt lat="36.3548469" lon="-2.389541"><ele>0.0</ele><time>2026-04-29T08:11:48.089Z</time></trkpt><trkpt lat="36.3548477" lon="-2.3894327"><ele>0.0</ele><time>2026-04-29T08:11:49.09Z</time></trkpt><trkpt lat="36.3548563" lon="-2.3893206"><ele>0.0</ele><time>2026-04-29T08:11:50.089Z</time></trkpt><trkpt lat="36.3548529" lon="-2.3892147"><ele>0.0</ele><time>2026-04-29T08:11:51.089Z</time></trkpt><trkpt lat="36.3548365" lon="-2.3890049"><ele>0.0</ele><time>2026-04-29T08:11:53.089Z</time></trkpt><trkpt lat="36.3548291" lon="-2.3889012"><ele>0.0</ele><time>2026-04-29T08:11:54.089Z</time></trkpt><trkpt lat="36.3548369" lon="-2.3887924"><ele>0.0</ele><time>2026-04-29T08:11:55.089Z</time></trkpt><trkpt lat="36.3548613" lon="-2.3886866"><ele>0.0</ele><time>2026-04-29T08:11:56.09Z</time></trkpt><trkpt lat="36.3548825" lon="-2.3885771"><ele>0.0</ele><time>2026-04-29T08:11:57.089Z</time></trkpt><trkpt lat="36.3548986" lon="-2.3884737"><ele>0.0</ele><time>2026-04-29T08:11:58.089Z</time></trkpt><trkpt lat="36.3549141" lon="-2.3883708"><ele>0.0</ele><time>2026-04-29T08:11:59.09Z</time></trkpt><trkpt lat="36.3549247" lon="-2.3882647"><ele>0.0</ele><time>2026-04-29T08:12:00.089Z</time></trkpt><trkpt lat="36.3549356" lon="-2.3881597"><ele>0.0</ele><time>2026-04-29T08:12:01.09Z</time></trkpt><trkpt lat="36.3549416" lon="-2.3880522"><ele>0.0</ele><time>2026-04-29T08:12:02.089Z</time></trkpt><trkpt lat="36.354959" lon="-2.3879409"><ele>0.0</ele><time>2026-04-29T08:12:03.09Z</time></trkpt><trkpt lat="36.3549807" lon="-2.3878338"><ele>0.0</ele><time>2026-04-29T08:12:04.089Z</time></trkpt><trkpt lat="36.3550357" lon="-2.3877195"><ele>0.0</ele><time>2026-04-29T08:12:05.089Z</time></trkpt><trkpt lat="36.355065" lon="-2.3876088"><ele>0.0</ele><time>2026-04-29T08:12:06.089Z</time></trkpt><trkpt lat="36.3550875" lon="-2.3875017"><ele>0.0</ele><time>2026-04-29T08:12:07.089Z</time></trkpt><trkpt lat="36.3551061" lon="-2.3873905"><ele>0.0</ele><time>2026-04-29T08:12:08.089Z</time></trkpt><trkpt lat="36.3551356" lon="-2.387276"><ele>0.0</ele><time>2026-04-29T08:12:09.089Z</time></trkpt><trkpt lat="36.3551524" lon="-2.3871743"><ele>0.0</ele><time>2026-04-29T08:12:10.09Z</time></trkpt><trkpt lat="36.3551562" lon="-2.3870717"><ele>0.0</ele><time>2026-04-29T08:12:11.09Z</time></trkpt><trkpt lat="36.3551596" lon="-2.3869681"><ele>0.0</ele><time>2026-04-29T08:12:12.089Z</time></trkpt><trkpt lat="36.3551982" lon="-2.3867504"><ele>0.0</ele><time>2026-04-29T08:12:14.089Z</time></trkpt><trkpt lat="36.3552149" lon="-2.3866423"><ele>0.0</ele><time>2026-04-29T08:12:15.09Z</time></trkpt><trkpt lat="36.3552317" lon="-2.3865364"><ele>0.0</ele><time>2026-04-29T08:12:16.09Z</time></trkpt><trkpt lat="36.3552975" lon="-2.3864189"><ele>0.0</ele><time>2026-04-29T08:12:17.089Z</time></trkpt><trkpt lat="36.3553387" lon="-2.3863104"><ele>0.0</ele><time>2026-04-29T08:12:18.089Z</time></trkpt><trkpt lat="36.3553553" lon="-2.3862002"><ele>0.0</ele><time>2026-04-29T08:12:19.089Z</time></trkpt><trkpt lat="36.3553748" lon="-2.386093"><ele>0.0</ele><time>2026-04-29T08:12:20.09Z</time></trkpt><trkpt lat="36.3554118" lon="-2.3859835"><ele>0.0</ele><time>2026-04-29T08:12:21.09Z</time></trkpt><trkpt lat="36.3554346" lon="-2.3858813"><ele>0.0</ele><time>2026-04-29T08:12:22.089Z</time></trkpt><trkpt lat="36.3554477" lon="-2.3857812"><ele>0.0</ele><time>2026-04-29T08:12:23.089Z</time></trkpt><trkpt lat="36.3554604" lon="-2.385674"><ele>0.0</ele><time>2026-04-29T08:12:24.089Z</time></trkpt><trkpt lat="36.3554793" lon="-2.3855625"><ele>0.0</ele><time>2026-04-29T08:12:25.09Z</time></trkpt><trkpt lat="36.355502" lon="-2.3854536"><ele>0.0</ele><time>2026-04-29T08:12:26.089Z</time></trkpt><trkpt lat="36.3555241" lon="-2.3853404"><ele>0.0</ele><time>2026-04-29T08:12:27.089Z</time></trkpt><trkpt lat="36.3555269" lon="-2.3852331"><ele>0.0</ele><time>2026-04-29T08:12:28.09Z</time></trkpt><trkpt lat="36.3555691" lon="-2.3851199"><ele>0.0</ele><time>2026-04-29T08:12:29.09Z</time></trkpt><trkpt lat="36.3555989" lon="-2.3850069"><ele>0.0</ele><time>2026-04-29T08:12:30.09Z</time></trkpt><trkpt lat="36.3556147" lon="-2.3848971"><ele>0.0</ele><time>2026-04-29T08:12:31.09Z</time></trkpt><trkpt lat="36.3556254" lon="-2.3847901"><ele>0.0</ele><time>2026-04-29T08:12:32.089Z</time></trkpt><trkpt lat="36.3556409" lon="-2.3846818"><ele>0.0</ele><time>2026-04-29T08:12:33.09Z</time></trkpt><trkpt lat="36.3556984" lon="-2.3844639"><ele>0.0</ele><time>2026-04-29T08:12:35.089Z</time></trkpt><trkpt lat="36.355718" lon="-2.3843583"><ele>0.0</ele><time>2026-04-29T08:12:36.089Z</time></trkpt><trkpt lat="36.3557362" lon="-2.3842531"><ele>0.0</ele><time>2026-04-29T08:12:37.089Z</time></trkpt><trkpt lat="36.3557506" lon="-2.3841496"><ele>0.0</ele><time>2026-04-29T08:12:38.089Z</time></trkpt><trkpt lat="36.3557743" lon="-2.3840408"><ele>0.0</ele><time>2026-04-29T08:12:39.09Z</time></trkpt><trkpt lat="36.3557968" lon="-2.3839291"><ele>0.0</ele><time>2026-04-29T08:12:40.089Z</time></trkpt><trkpt lat="36.3558215" lon="-2.38382"><ele>0.0</ele><time>2026-04-29T08:12:41.089Z</time></trkpt><trkpt lat="36.3558515" lon="-2.3837107"><ele>0.0</ele><time>2026-04-29T08:12:42.089Z</time></trkpt><trkpt lat="36.3558571" lon="-2.3836022"><ele>0.0</ele><time>2026-04-29T08:12:43.089Z</time></trkpt><trkpt lat="36.3558516" lon="-2.3834939"><ele>0.0</ele><time>2026-04-29T08:12:44.089Z</time></trkpt><trkpt lat="36.3558603" lon="-2.3833837"><ele>0.0</ele><time>2026-04-29T08:12:45.089Z</time></trkpt><trkpt lat="36.3558343" lon="-2.3832766"><ele>0.0</ele><time>2026-04-29T08:12:46.09Z</time></trkpt><trkpt lat="36.3558446" lon="-2.3831684"><ele>0.0</ele><time>2026-04-29T08:12:47.089Z</time></trkpt><trkpt lat="36.3559047" lon="-2.3830486"><ele>0.0</ele><time>2026-04-29T08:12:48.089Z</time></trkpt><trkpt lat="36.3559511" lon="-2.3829324"><ele>0.0</ele><time>2026-04-29T08:12:49.089Z</time></trkpt><trkpt lat="36.3559624" lon="-2.3828246"><ele>0.0</ele><time>2026-04-29T08:12:50.09Z</time></trkpt><trkpt lat="36.3559226" lon="-2.3827266"><ele>0.0</ele><time>2026-04-29T08:12:51.089Z</time></trkpt><trkpt lat="36.3559258" lon="-2.3826197"><ele>0.0</ele><time>2026-04-29T08:12:52.089Z</time></trkpt><trkpt lat="36.3559375" lon="-2.3825118"><ele>0.0</ele><time>2026-04-29T08:12:53.089Z</time></trkpt><trkpt lat="36.3558986" lon="-2.382304"><ele>0.0</ele><time>2026-04-29T08:12:55.089Z</time></trkpt><trkpt lat="36.3559005" lon="-2.3821923"><ele>0.0</ele><time>2026-04-29T08:12:56.09Z</time></trkpt><trkpt lat="36.3559059" lon="-2.3820846"><ele>0.0</ele><time>2026-04-29T08:12:57.089Z</time></trkpt><trkpt lat="36.3559136" lon="-2.3819766"><ele>0.0</ele><time>2026-04-29T08:12:58.089Z</time></trkpt><trkpt lat="36.3559163" lon="-2.3818691"><ele>0.0</ele><time>2026-04-29T08:12:59.09Z</time></trkpt><trkpt lat="36.3559204" lon="-2.3817632"><ele>0.0</ele><time>2026-04-29T08:13:00.089Z</time></trkpt><trkpt lat="36.3559297" lon="-2.3816577"><ele>0.0</ele><time>2026-04-29T08:13:01.089Z</time></trkpt><trkpt lat="36.3559238" lon="-2.3815502"><ele>0.0</ele><time>2026-04-29T08:13:02.09Z</time></trkpt><trkpt lat="36.3559345" lon="-2.381442"><ele>0.0</ele><time>2026-04-29T08:13:03.09Z</time></trkpt><trkpt lat="36.3559495" lon="-2.3813274"><ele>0.0</ele><time>2026-04-29T08:13:04.089Z</time></trkpt><trkpt lat="36.3559517" lon="-2.3812168"><ele>0.0</ele><time>2026-04-29T08:13:05.089Z</time></trkpt><trkpt lat="36.3559612" lon="-2.3811115"><ele>0.0</ele><time>2026-04-29T08:13:06.09Z</time></trkpt><trkpt lat="36.3559704" lon="-2.3810168"><ele>0.0</ele><time>2026-04-29T08:13:07.089Z</time></trkpt><trkpt lat="36.3559758" lon="-2.3809088"><ele>0.0</ele><time>2026-04-29T08:13:08.089Z</time></trkpt><trkpt lat="36.3559893" lon="-2.3807998"><ele>0.0</ele><time>2026-04-29T08:13:09.089Z</time></trkpt><trkpt lat="36.3560309" lon="-2.3806744"><ele>0.0</ele><time>2026-04-29T08:13:10.089Z</time></trkpt><trkpt lat="36.3560492" lon="-2.3805667"><ele>0.0</ele><time>2026-04-29T08:13:11.089Z</time></trkpt><trkpt lat="36.3560506" lon="-2.3804631"><ele>0.0</ele><time>2026-04-29T08:13:12.09Z</time></trkpt><trkpt lat="36.3560377" lon="-2.3803565"><ele>0.0</ele><time>2026-04-29T08:13:13.089Z</time></trkpt><trkpt lat="36.3560411" lon="-2.380245"><ele>0.0</ele><time>2026-04-29T08:13:14.09Z</time></trkpt><trkpt lat="36.35605" lon="-2.380034"><ele>0.0</ele><time>2026-04-29T08:13:16.089Z</time></trkpt><trkpt lat="36.3560586" lon="-2.3799292"><ele>0.0</ele><time>2026-04-29T08:13:17.09Z</time></trkpt><trkpt lat="36.356064" lon="-2.3798231"><ele>0.0</ele><time>2026-04-29T08:13:18.09Z</time></trkpt><trkpt lat="36.3560717" lon="-2.3797165"><ele>0.0</ele><time>2026-04-29T08:13:19.089Z</time></trkpt><trkpt lat="36.3560834" lon="-2.3796068"><ele>0.0</ele><time>2026-04-29T08:13:20.089Z</time></trkpt><trkpt lat="36.3560925" lon="-2.3795068"><ele>0.0</ele><time>2026-04-29T08:13:21.09Z</time></trkpt><trkpt lat="36.3561025" lon="-2.3794014"><ele>0.0</ele><time>2026-04-29T08:13:22.089Z</time></trkpt><trkpt lat="36.3561293" lon="-2.379292"><ele>0.0</ele><time>2026-04-29T08:13:23.089Z</time></trkpt><trkpt lat="36.3561551" lon="-2.379179"><ele>0.0</ele><time>2026-04-29T08:13:24.089Z</time></trkpt><trkpt lat="36.3561731" lon="-2.3790687"><ele>0.0</ele><time>2026-04-29T08:13:25.089Z</time></trkpt><trkpt lat="36.3561891" lon="-2.378963"><ele>0.0</ele><time>2026-04-29T08:13:26.089Z</time></trkpt><trkpt lat="36.3562042" lon="-2.3788524"><ele>0.0</ele><time>2026-04-29T08:13:27.09Z</time></trkpt><trkpt lat="36.3561937" lon="-2.3787436"><ele>0.0</ele><time>2026-04-29T08:13:28.09Z</time></trkpt><trkpt lat="36.3561972" lon="-2.3786368"><ele>0.0</ele><time>2026-04-29T08:13:29.089Z</time></trkpt><trkpt lat="36.3562108" lon="-2.3785305"><ele>0.0</ele><time>2026-04-29T08:13:30.089Z</time></trkpt><trkpt lat="36.3562258" lon="-2.378421"><ele>0.0</ele><time>2026-04-29T08:13:31.09Z</time></trkpt><trkpt lat="36.3562395" lon="-2.3783008"><ele>0.0</ele><time>2026-04-29T08:13:32.089Z</time></trkpt><trkpt lat="36.3562548" lon="-2.3781854"><ele>0.0</ele><time>2026-04-29T08:13:33.089Z</time></trkpt><trkpt lat="36.3562493" lon="-2.3780809"><ele>0.0</ele><time>2026-04-29T08:13:34.09Z</time></trkpt><trkpt lat="36.3562496" lon="-2.3779777"><ele>0.0</ele><time>2026-04-29T08:13:35.089Z</time></trkpt><trkpt lat="36.3562518" lon="-2.377768"><ele>0.0</ele><time>2026-04-29T08:13:37.09Z</time></trkpt><trkpt lat="36.3562316" lon="-2.3776701"><ele>0.0</ele><time>2026-04-29T08:13:38.089Z</time></trkpt><trkpt lat="36.3562397" lon="-2.3775622"><ele>0.0</ele><time>2026-04-29T08:13:39.089Z</time></trkpt><trkpt lat="36.3562415" lon="-2.3774565"><ele>0.0</ele><time>2026-04-29T08:13:40.09Z</time></trkpt><trkpt lat="36.3562498" lon="-2.3773473"><ele>0.0</ele><time>2026-04-29T08:13:41.09Z</time></trkpt><trkpt lat="36.3562523" lon="-2.3772386"><ele>0.0</ele><time>2026-04-29T08:13:42.09Z</time></trkpt><trkpt lat="36.356264" lon="-2.3771298"><ele>0.0</ele><time>2026-04-29T08:13:43.089Z</time></trkpt><trkpt lat="36.3562615" lon="-2.3770215"><ele>0.0</ele><time>2026-04-29T08:13:44.089Z</time></trkpt><trkpt lat="36.3562696" lon="-2.3769196"><ele>0.0</ele><time>2026-04-29T08:13:45.09Z</time></trkpt><trkpt lat="36.3562895" lon="-2.3768174"><ele>0.0</ele><time>2026-04-29T08:13:46.089Z</time></trkpt><trkpt lat="36.3563088" lon="-2.3767083"><ele>0.0</ele><time>2026-04-29T08:13:47.09Z</time></trkpt><trkpt lat="36.3563303" lon="-2.3765991"><ele>0.0</ele><time>2026-04-29T08:13:48.089Z</time></trkpt><trkpt lat="36.356342" lon="-2.3764861"><ele>0.0</ele><time>2026-04-29T08:13:49.09Z</time></trkpt><trkpt lat="36.3563399" lon="-2.3763711"><ele>0.0</ele><time>2026-04-29T08:13:50.089Z</time></trkpt><trkpt lat="36.3563354" lon="-2.3762593"><ele>0.0</ele><time>2026-04-29T08:13:51.09Z</time></trkpt><trkpt lat="36.3563475" lon="-2.3761459"><ele>0.0</ele><time>2026-04-29T08:13:52.089Z</time></trkpt><trkpt lat="36.3563552" lon="-2.3760324"><ele>0.0</ele><time>2026-04-29T08:13:53.089Z</time></trkpt><trkpt lat="36.3563633" lon="-2.3759232"><ele>0.0</ele><time>2026-04-29T08:13:54.09Z</time></trkpt><trkpt lat="36.3563819" lon="-2.3758138"><ele>0.0</ele><time>2026-04-29T08:13:55.089Z</time></trkpt><trkpt lat="36.3564121" lon="-2.3757022"><ele>0.0</ele><time>2026-04-29T08:13:56.089Z</time></trkpt><trkpt lat="36.3564754" lon="-2.3754858"><ele>0.0</ele><time>2026-04-29T08:13:58.089Z</time></trkpt><trkpt lat="36.3565014" lon="-2.375377"><ele>0.0</ele><time>2026-04-29T08:13:59.09Z</time></trkpt><trkpt lat="36.356506" lon="-2.3752723"><ele>0.0</ele><time>2026-04-29T08:14:00.09Z</time></trkpt><trkpt lat="36.3565053" lon="-2.3751694"><ele>0.0</ele><time>2026-04-29T08:14:01.089Z</time></trkpt><trkpt lat="36.3565158" lon="-2.3750601"><ele>0.0</ele><time>2026-04-29T08:14:02.09Z</time></trkpt><trkpt lat="36.3564992" lon="-2.3749598"><ele>0.0</ele><time>2026-04-29T08:14:03.089Z</time></trkpt><trkpt lat="36.3564904" lon="-2.3748589"><ele>0.0</ele><time>2026-04-29T08:14:04.09Z</time></trkpt><trkpt lat="36.3564773" lon="-2.3747606"><ele>0.0</ele><time>2026-04-29T08:14:05.089Z</time></trkpt><trkpt lat="36.3564822" lon="-2.3746551"><ele>0.0</ele><time>2026-04-29T08:14:06.089Z</time></trkpt><trkpt lat="36.3564933" lon="-2.3745466"><ele>0.0</ele><time>2026-04-29T08:14:07.089Z</time></trkpt><trkpt lat="36.3564884" lon="-2.3744423"><ele>0.0</ele><time>2026-04-29T08:14:08.089Z</time></trkpt><trkpt lat="36.3564943" lon="-2.3743336"><ele>0.0</ele><time>2026-04-29T08:14:09.089Z</time></trkpt><trkpt lat="36.3565038" lon="-2.3742204"><ele>0.0</ele><time>2026-04-29T08:14:10.089Z</time></trkpt><trkpt lat="36.3565148" lon="-2.3741125"><ele>0.0</ele><time>2026-04-29T08:14:11.089Z</time></trkpt><trkpt lat="36.3565254" lon="-2.3740034"><ele>0.0</ele><time>2026-04-29T08:14:12.09Z</time></trkpt><trkpt lat="36.3565361" lon="-2.3738979"><ele>0.0</ele><time>2026-04-29T08:14:13.089Z</time></trkpt><trkpt lat="36.3565547" lon="-2.373789"><ele>0.0</ele><time>2026-04-29T08:14:14.09Z</time></trkpt><trkpt lat="36.356619" lon="-2.3736732"><ele>0.0</ele><time>2026-04-29T08:14:15.09Z</time></trkpt><trkpt lat="36.3566756" lon="-2.3735582"><ele>0.0</ele><time>2026-04-29T08:14:16.089Z</time></trkpt><trkpt lat="36.3567197" lon="-2.3734443"><ele>0.0</ele><time>2026-04-29T08:14:17.09Z</time></trkpt><trkpt lat="36.3567965" lon="-2.3732134"><ele>0.0</ele><time>2026-04-29T08:14:19.09Z</time></trkpt><trkpt lat="36.3568157" lon="-2.3731028"><ele>0.0</ele><time>2026-04-29T08:14:20.09Z</time></trkpt><trkpt lat="36.3568335" lon="-2.3729915"><ele>0.0</ele><time>2026-04-29T08:14:21.09Z</time></trkpt><trkpt lat="36.356848" lon="-2.3728869"><ele>0.0</ele><time>2026-04-29T08:14:22.089Z</time></trkpt><trkpt lat="36.3568744" lon="-2.3727815"><ele>0.0</ele><time>2026-04-29T08:14:23.089Z</time></trkpt><trkpt lat="36.3568941" lon="-2.3726735"><ele>0.0</ele><time>2026-04-29T08:14:24.089Z</time></trkpt><trkpt lat="36.3569152" lon="-2.3725593"><ele>0.0</ele><time>2026-04-29T08:14:25.09Z</time></trkpt><trkpt lat="36.3569412" lon="-2.3724452"><ele>0.0</ele><time>2026-04-29T08:14:26.089Z</time></trkpt><trkpt lat="36.3569525" lon="-2.3723374"><ele>0.0</ele><time>2026-04-29T08:14:27.089Z</time></trkpt><trkpt lat="36.3569531" lon="-2.3722343"><ele>0.0</ele><time>2026-04-29T08:14:28.09Z</time></trkpt><trkpt lat="36.3569653" lon="-2.3721269"><ele>0.0</ele><time>2026-04-29T08:14:29.09Z</time></trkpt><trkpt lat="36.3569725" lon="-2.3720198"><ele>0.0</ele><time>2026-04-29T08:14:30.09Z</time></trkpt><trkpt lat="36.3570026" lon="-2.3719131"><ele>0.0</ele><time>2026-04-29T08:14:31.09Z</time></trkpt><trkpt lat="36.3570218" lon="-2.3718051"><ele>0.0</ele><time>2026-04-29T08:14:32.089Z</time></trkpt><trkpt lat="36.3570349" lon="-2.3716949"><ele>0.0</ele><time>2026-04-29T08:14:33.089Z</time></trkpt><trkpt lat="36.3570434" lon="-2.3715879"><ele>0.0</ele><time>2026-04-29T08:14:34.089Z</time></trkpt><trkpt lat="36.3570511" lon="-2.3714799"><ele>0.0</ele><time>2026-04-29T08:14:35.089Z</time></trkpt><trkpt lat="36.3570559" lon="-2.371376"><ele>0.0</ele><time>2026-04-29T08:14:36.09Z</time></trkpt><trkpt lat="36.3570678" lon="-2.3712699"><ele>0.0</ele><time>2026-04-29T08:14:37.089Z</time></trkpt><trkpt lat="36.3570788" lon="-2.3711662"><ele>0.0</ele><time>2026-04-29T08:14:38.09Z</time></trkpt><trkpt lat="36.3571115" lon="-2.3709487"><ele>0.0</ele><time>2026-04-29T08:14:40.089Z</time></trkpt><trkpt lat="36.3571238" lon="-2.3708399"><ele>0.0</ele><time>2026-04-29T08:14:41.09Z</time></trkpt><trkpt lat="36.3571438" lon="-2.3707319"><ele>0.0</ele><time>2026-04-29T08:14:42.09Z</time></trkpt><trkpt lat="36.3571648" lon="-2.3706207"><ele>0.0</ele><time>2026-04-29T08:14:43.09Z</time></trkpt><trkpt lat="36.3571604" lon="-2.3705086"><ele>0.0</ele><time>2026-04-29T08:14:44.089Z</time></trkpt><trkpt lat="36.3571687" lon="-2.3704009"><ele>0.0</ele><time>2026-04-29T08:14:45.089Z</time></trkpt><trkpt lat="36.3571811" lon="-2.370295"><ele>0.0</ele><time>2026-04-29T08:14:46.089Z</time></trkpt><trkpt lat="36.3571847" lon="-2.3701868"><ele>0.0</ele><time>2026-04-29T08:14:47.089Z</time></trkpt><trkpt lat="36.3571946" lon="-2.370084"><ele>0.0</ele><time>2026-04-29T08:14:48.09Z</time></trkpt><trkpt lat="36.3572016" lon="-2.3699817"><ele>0.0</ele><time>2026-04-29T08:14:49.09Z</time></trkpt><trkpt lat="36.3572039" lon="-2.3698753"><ele>0.0</ele><time>2026-04-29T08:14:50.089Z</time></trkpt><trkpt lat="36.3571926" lon="-2.3697698"><ele>0.0</ele><time>2026-04-29T08:14:51.09Z</time></trkpt><trkpt lat="36.3571662" lon="-2.3696643"><ele>0.0</ele><time>2026-04-29T08:14:52.089Z</time></trkpt><trkpt lat="36.3571429" lon="-2.3695605"><ele>0.0</ele><time>2026-04-29T08:14:53.089Z</time></trkpt><trkpt lat="36.3571189" lon="-2.3694548"><ele>0.0</ele><time>2026-04-29T08:14:54.089Z</time></trkpt><trkpt lat="36.3571045" lon="-2.3693452"><ele>0.0</ele><time>2026-04-29T08:14:55.089Z</time></trkpt><trkpt lat="36.3570978" lon="-2.3692354"><ele>0.0</ele><time>2026-04-29T08:14:56.09Z</time></trkpt><trkpt lat="36.3570991" lon="-2.3691312"><ele>0.0</ele><time>2026-04-29T08:14:57.089Z</time></trkpt><trkpt lat="36.3570953" lon="-2.3690267"><ele>0.0</ele><time>2026-04-29T08:14:58.09Z</time></trkpt><trkpt lat="36.3571008" lon="-2.3689189"><ele>0.0</ele><time>2026-04-29T08:14:59.089Z</time></trkpt><trkpt lat="36.357089" lon="-2.368705"><ele>0.0</ele><time>2026-04-29T08:15:01.089Z</time></trkpt><trkpt lat="36.3571059" lon="-2.3685969"><ele>0.0</ele><time>2026-04-29T08:15:02.089Z</time></trkpt><trkpt lat="36.3571197" lon="-2.3684887"><ele>0.0</ele><time>2026-04-29T08:15:03.089Z</time></trkpt><trkpt lat="36.3571292" lon="-2.3683804"><ele>0.0</ele><time>2026-04-29T08:15:04.089Z</time></trkpt><trkpt lat="36.3571329" lon="-2.3682732"><ele>0.0</ele><time>2026-04-29T08:15:05.089Z</time></trkpt><trkpt lat="36.3571537" lon="-2.3681637"><ele>0.0</ele><time>2026-04-29T08:15:06.089Z</time></trkpt><trkpt lat="36.3571724" lon="-2.3680495"><ele>0.0</ele><time>2026-04-29T08:15:07.089Z</time></trkpt><trkpt lat="36.3571968" lon="-2.3679337"><ele>0.0</ele><time>2026-04-29T08:15:08.089Z</time></trkpt><trkpt lat="36.3572462" lon="-2.3678174"><ele>0.0</ele><time>2026-04-29T08:15:09.089Z</time></trkpt><trkpt lat="36.3572704" lon="-2.3677097"><ele>0.0</ele><time>2026-04-29T08:15:10.089Z</time></trkpt><trkpt lat="36.3572877" lon="-2.367606"><ele>0.0</ele><time>2026-04-29T08:15:11.09Z</time></trkpt><trkpt lat="36.3573037" lon="-2.3674984"><ele>0.0</ele><time>2026-04-29T08:15:12.089Z</time></trkpt><trkpt lat="36.3573216" lon="-2.3673915"><ele>0.0</ele><time>2026-04-29T08:15:13.089Z</time></trkpt><trkpt lat="36.35735" lon="-2.3672851"><ele>0.0</ele><time>2026-04-29T08:15:14.09Z</time></trkpt><trkpt lat="36.3573832" lon="-2.3671725"><ele>0.0</ele><time>2026-04-29T08:15:15.089Z</time></trkpt><trkpt lat="36.357417" lon="-2.367059"><ele>0.0</ele><time>2026-04-29T08:15:16.09Z</time></trkpt><trkpt lat="36.3574427" lon="-2.36695"><ele>0.0</ele><time>2026-04-29T08:15:17.09Z</time></trkpt><trkpt lat="36.3574672" lon="-2.3668402"><ele>0.0</ele><time>2026-04-29T08:15:18.089Z</time></trkpt><trkpt lat="36.3574998" lon="-2.3667286"><ele>0.0</ele><time>2026-04-29T08:15:19.09Z</time></trkpt><trkpt lat="36.3575316" lon="-2.3666198"><ele>0.0</ele><time>2026-04-29T08:15:20.09Z</time></trkpt><trkpt lat="36.3575543" lon="-2.3664048"><ele>0.0</ele><time>2026-04-29T08:15:22.09Z</time></trkpt><trkpt lat="36.3575641" lon="-2.3662936"><ele>0.0</ele><time>2026-04-29T08:15:23.089Z</time></trkpt><trkpt lat="36.3575755" lon="-2.3661879"><ele>0.0</ele><time>2026-04-29T08:15:24.09Z</time></trkpt><trkpt lat="36.35759" lon="-2.3660772"><ele>0.0</ele><time>2026-04-29T08:15:25.089Z</time></trkpt><trkpt lat="36.3576024" lon="-2.365967"><ele>0.0</ele><time>2026-04-29T08:15:26.09Z</time></trkpt><trkpt lat="36.3576098" lon="-2.3658569"><ele>0.0</ele><time>2026-04-29T08:15:27.09Z</time></trkpt><trkpt lat="36.3576135" lon="-2.365751"><ele>0.0</ele><time>2026-04-29T08:15:28.09Z</time></trkpt><trkpt lat="36.357624" lon="-2.3656448"><ele>0.0</ele><time>2026-04-29T08:15:29.089Z</time></trkpt><trkpt lat="36.35763" lon="-2.3655425"><ele>0.0</ele><time>2026-04-29T08:15:30.09Z</time></trkpt><trkpt lat="36.3576454" lon="-2.3654364"><ele>0.0</ele><time>2026-04-29T08:15:31.089Z</time></trkpt><trkpt lat="36.357662" lon="-2.3653272"><ele>0.0</ele><time>2026-04-29T08:15:32.09Z</time></trkpt><trkpt lat="36.3576849" lon="-2.3652154"><ele>0.0</ele><time>2026-04-29T08:15:33.089Z</time></trkpt><trkpt lat="36.3577041" lon="-2.3651078"><ele>0.0</ele><time>2026-04-29T08:15:34.089Z</time></trkpt><trkpt lat="36.3577152" lon="-2.3649969"><ele>0.0</ele><time>2026-04-29T08:15:35.089Z</time></trkpt><trkpt lat="36.3577248" lon="-2.3648878"><ele>0.0</ele><time>2026-04-29T08:15:36.09Z</time></trkpt><trkpt lat="36.3577339" lon="-2.3647768"><ele>0.0</ele><time>2026-04-29T08:15:37.09Z</time></trkpt><trkpt lat="36.3577395" lon="-2.3646679"><ele>0.0</ele><time>2026-04-29T08:15:38.089Z</time></trkpt><trkpt lat="36.357762" lon="-2.3645616"><ele>0.0</ele><time>2026-04-29T08:15:39.09Z</time></trkpt><trkpt lat="36.357783" lon="-2.3644536"><ele>0.0</ele><time>2026-04-29T08:15:40.089Z</time></trkpt><trkpt lat="36.357797" lon="-2.3643452"><ele>0.0</ele><time>2026-04-29T08:15:41.089Z</time></trkpt><trkpt lat="36.3578071" lon="-2.3641371"><ele>0.0</ele><time>2026-04-29T08:15:43.089Z</time></trkpt><trkpt lat="36.3578095" lon="-2.3640288"><ele>0.0</ele><time>2026-04-29T08:15:44.09Z</time></trkpt><trkpt lat="36.3578172" lon="-2.3639202"><ele>0.0</ele><time>2026-04-29T08:15:45.089Z</time></trkpt><trkpt lat="36.3578228" lon="-2.3638046"><ele>0.0</ele><time>2026-04-29T08:15:46.089Z</time></trkpt><trkpt lat="36.3578295" lon="-2.3636966"><ele>0.0</ele><time>2026-04-29T08:15:47.089Z</time></trkpt><trkpt lat="36.3578403" lon="-2.3635843"><ele>0.0</ele><time>2026-04-29T08:15:48.089Z</time></trkpt><trkpt lat="36.3578434" lon="-2.3634812"><ele>0.0</ele><time>2026-04-29T08:15:49.089Z</time></trkpt><trkpt lat="36.3578514" lon="-2.3633752"><ele>0.0</ele><time>2026-04-29T08:15:50.089Z</time></trkpt><trkpt lat="36.3578615" lon="-2.3632668"><ele>0.0</ele><time>2026-04-29T08:15:51.09Z</time></trkpt><trkpt lat="36.3578699" lon="-2.363157"><ele>0.0</ele><time>2026-04-29T08:15:52.089Z</time></trkpt><trkpt lat="36.3578839" lon="-2.3630456"><ele>0.0</ele><time>2026-04-29T08:15:53.089Z</time></trkpt><trkpt lat="36.3578992" lon="-2.3629309"><ele>0.0</ele><time>2026-04-29T08:15:54.089Z</time></trkpt><trkpt lat="36.3579005" lon="-2.3628227"><ele>0.0</ele><time>2026-04-29T08:15:55.089Z</time></trkpt><trkpt lat="36.3579083" lon="-2.3627165"><ele>0.0</ele><time>2026-04-29T08:15:56.089Z</time></trkpt><trkpt lat="36.3579167" lon="-2.362612"><ele>0.0</ele><time>2026-04-29T08:15:57.089Z</time></trkpt><trkpt lat="36.357921" lon="-2.3625095"><ele>0.0</ele><time>2026-04-29T08:15:58.09Z</time></trkpt><trkpt lat="36.3579369" lon="-2.3624049"><ele>0.0</ele><time>2026-04-29T08:15:59.09Z</time></trkpt><trkpt lat="36.3579458" lon="-2.3622995"><ele>0.0</ele><time>2026-04-29T08:16:00.09Z</time></trkpt><trkpt lat="36.357958" lon="-2.3621948"><ele>0.0</ele><time>2026-04-29T08:16:01.089Z</time></trkpt><trkpt lat="36.3579772" lon="-2.3620888"><ele>0.0</ele><time>2026-04-29T08:16:02.09Z</time></trkpt><trkpt lat="36.3580174" lon="-2.3618728"><ele>0.0</ele><time>2026-04-29T08:16:04.09Z</time></trkpt><trkpt lat="36.3580363" lon="-2.3617563"><ele>0.0</ele><time>2026-04-29T08:16:05.089Z</time></trkpt><trkpt lat="36.3580542" lon="-2.3616461"><ele>0.0</ele><time>2026-04-29T08:16:06.089Z</time></trkpt><trkpt lat="36.3580778" lon="-2.3615338"><ele>0.0</ele><time>2026-04-29T08:16:07.09Z</time></trkpt><trkpt lat="36.358096" lon="-2.3614216"><ele>0.0</ele><time>2026-04-29T08:16:08.089Z</time></trkpt><trkpt lat="36.3581142" lon="-2.361319"><ele>0.0</ele><time>2026-04-29T08:16:09.089Z</time></trkpt><trkpt lat="36.3581354" lon="-2.3612165"><ele>0.0</ele><time>2026-04-29T08:16:10.09Z</time></trkpt><trkpt lat="36.3581559" lon="-2.3611119"><ele>0.0</ele><time>2026-04-29T08:16:11.089Z</time></trkpt><trkpt lat="36.3581218" lon="-2.3610121"><ele>0.0</ele><time>2026-04-29T08:16:12.089Z</time></trkpt><trkpt lat="36.3580975" lon="-2.360911"><ele>0.0</ele><time>2026-04-29T08:16:13.09Z</time></trkpt><trkpt lat="36.3580952" lon="-2.360805"><ele>0.0</ele><time>2026-04-29T08:16:14.09Z</time></trkpt><trkpt lat="36.3580891" lon="-2.360694"><ele>0.0</ele><time>2026-04-29T08:16:15.089Z</time></trkpt><trkpt lat="36.3580852" lon="-2.3605847"><ele>0.0</ele><time>2026-04-29T08:16:16.09Z</time></trkpt><trkpt lat="36.3580851" lon="-2.3604768"><ele>0.0</ele><time>2026-04-29T08:16:17.089Z</time></trkpt><trkpt lat="36.3580748" lon="-2.3603702"><ele>0.0</ele><time>2026-04-29T08:16:18.09Z</time></trkpt><trkpt lat="36.3580946" lon="-2.3602602"><ele>0.0</ele><time>2026-04-29T08:16:19.09Z</time></trkpt><trkpt lat="36.3581202" lon="-2.3601489"><ele>0.0</ele><time>2026-04-29T08:16:20.089Z</time></trkpt><trkpt lat="36.3581325" lon="-2.3600432"><ele>0.0</ele><time>2026-04-29T08:16:21.089Z</time></trkpt><trkpt lat="36.3581511" lon="-2.3599386"><ele>0.0</ele><time>2026-04-29T08:16:22.09Z</time></trkpt><trkpt lat="36.3581594" lon="-2.3598307"><ele>0.0</ele><time>2026-04-29T08:16:23.09Z</time></trkpt><trkpt lat="36.3581902" lon="-2.3596075"><ele>0.0</ele><time>2026-04-29T08:16:25.089Z</time></trkpt><trkpt lat="36.3582151" lon="-2.3594911"><ele>0.0</ele><time>2026-04-29T08:16:26.089Z</time></trkpt><trkpt lat="36.3582317" lon="-2.3593776"><ele>0.0</ele><time>2026-04-29T08:16:27.089Z</time></trkpt><trkpt lat="36.3582466" lon="-2.3592654"><ele>0.0</ele><time>2026-04-29T08:16:28.089Z</time></trkpt><trkpt lat="36.3582611" lon="-2.3591563"><ele>0.0</ele><time>2026-04-29T08:16:29.089Z</time></trkpt><trkpt lat="36.3582745" lon="-2.3590499"><ele>0.0</ele><time>2026-04-29T08:16:30.089Z</time></trkpt><trkpt lat="36.3582933" lon="-2.3589407"><ele>0.0</ele><time>2026-04-29T08:16:31.09Z</time></trkpt><trkpt lat="36.3583103" lon="-2.3588324"><ele>0.0</ele><time>2026-04-29T08:16:32.089Z</time></trkpt><trkpt lat="36.3583301" lon="-2.3587236"><ele>0.0</ele><time>2026-04-29T08:16:33.09Z</time></trkpt><trkpt lat="36.3583521" lon="-2.3586151"><ele>0.0</ele><time>2026-04-29T08:16:34.089Z</time></trkpt><trkpt lat="36.358371" lon="-2.3585099"><ele>0.0</ele><time>2026-04-29T08:16:35.09Z</time></trkpt><trkpt lat="36.3583808" lon="-2.358402"><ele>0.0</ele><time>2026-04-29T08:16:36.09Z</time></trkpt><trkpt lat="36.3583931" lon="-2.3582948"><ele>0.0</ele><time>2026-04-29T08:16:37.09Z</time></trkpt><trkpt lat="36.3584076" lon="-2.3581855"><ele>0.0</ele><time>2026-04-29T08:16:38.09Z</time></trkpt><trkpt lat="36.3584481" lon="-2.3580697"><ele>0.0</ele><time>2026-04-29T08:16:39.089Z</time></trkpt><trkpt lat="36.3584485" lon="-2.3579617"><ele>0.0</ele><time>2026-04-29T08:16:40.089Z</time></trkpt><trkpt lat="36.3584473" lon="-2.3578534"><ele>0.0</ele><time>2026-04-29T08:16:41.089Z</time></trkpt><trkpt lat="36.358463" lon="-2.3577435"><ele>0.0</ele><time>2026-04-29T08:16:42.09Z</time></trkpt><trkpt lat="36.3584769" lon="-2.3576318"><ele>0.0</ele><time>2026-04-29T08:16:43.089Z</time></trkpt><trkpt lat="36.3584957" lon="-2.357523"><ele>0.0</ele><time>2026-04-29T08:16:44.09Z</time></trkpt><trkpt lat="36.3585336" lon="-2.3573109"><ele>0.0</ele><time>2026-04-29T08:16:46.089Z</time></trkpt><trkpt lat="36.358547" lon="-2.3572036"><ele>0.0</ele><time>2026-04-29T08:16:47.088Z</time></trkpt><trkpt lat="36.3585549" lon="-2.3570977"><ele>0.0</ele><time>2026-04-29T08:16:48.088Z</time></trkpt><trkpt lat="36.3585459" lon="-2.356992"><ele>0.0</ele><time>2026-04-29T08:16:49.089Z</time></trkpt><trkpt lat="36.3585565" lon="-2.3568835"><ele>0.0</ele><time>2026-04-29T08:16:50.089Z</time></trkpt><trkpt lat="36.3585655" lon="-2.3567765"><ele>0.0</ele><time>2026-04-29T08:16:51.089Z</time></trkpt><trkpt lat="36.3585737" lon="-2.3566743"><ele>0.0</ele><time>2026-04-29T08:16:52.088Z</time></trkpt><trkpt lat="36.358587" lon="-2.3565702"><ele>0.0</ele><time>2026-04-29T08:16:53.088Z</time></trkpt><trkpt lat="36.3585409" lon="-2.3564693"><ele>0.0</ele><time>2026-04-29T08:16:54.088Z</time></trkpt><trkpt lat="36.3585557" lon="-2.3563637"><ele>0.0</ele><time>2026-04-29T08:16:55.089Z</time></trkpt><trkpt lat="36.3585924" lon="-2.3562483"><ele>0.0</ele><time>2026-04-29T08:16:56.088Z</time></trkpt><trkpt lat="36.3586304" lon="-2.3561383"><ele>0.0</ele><time>2026-04-29T08:16:57.089Z</time></trkpt><trkpt lat="36.3586491" lon="-2.3560304"><ele>0.0</ele><time>2026-04-29T08:16:58.089Z</time></trkpt><trkpt lat="36.3586531" lon="-2.3559247"><ele>0.0</ele><time>2026-04-29T08:16:59.088Z</time></trkpt><trkpt lat="36.3586593" lon="-2.3558168"><ele>0.0</ele><time>2026-04-29T08:17:00.088Z</time></trkpt><trkpt lat="36.3586673" lon="-2.3557082"><ele>0.0</ele><time>2026-04-29T08:17:01.088Z</time></trkpt><trkpt lat="36.3586915" lon="-2.3556011"><ele>0.0</ele><time>2026-04-29T08:17:02.088Z</time></trkpt><trkpt lat="36.358715" lon="-2.3554934"><ele>0.0</ele><time>2026-04-29T08:17:03.088Z</time></trkpt><trkpt lat="36.3587362" lon="-2.3553839"><ele>0.0</ele><time>2026-04-29T08:17:04.088Z</time></trkpt><trkpt lat="36.3587499" lon="-2.355278"><ele>0.0</ele><time>2026-04-29T08:17:05.088Z</time></trkpt><trkpt lat="36.3587906" lon="-2.355057"><ele>0.0</ele><time>2026-04-29T08:17:07.088Z</time></trkpt><trkpt lat="36.3588054" lon="-2.3549481"><ele>0.0</ele><time>2026-04-29T08:17:08.088Z</time></trkpt><trkpt lat="36.3588129" lon="-2.3548398"><ele>0.0</ele><time>2026-04-29T08:17:09.088Z</time></trkpt><trkpt lat="36.3588065" lon="-2.3547358"><ele>0.0</ele><time>2026-04-29T08:17:10.088Z</time></trkpt><trkpt lat="36.3588151" lon="-2.3546258"><ele>0.0</ele><time>2026-04-29T08:17:11.089Z</time></trkpt><trkpt lat="36.3588332" lon="-2.3545168"><ele>0.0</ele><time>2026-04-29T08:17:12.088Z</time></trkpt><trkpt lat="36.3588538" lon="-2.3544068"><ele>0.0</ele><time>2026-04-29T08:17:13.089Z</time></trkpt><trkpt lat="36.3588684" lon="-2.3543011"><ele>0.0</ele><time>2026-04-29T08:17:14.089Z</time></trkpt><trkpt lat="36.3588803" lon="-2.3541949"><ele>0.0</ele><time>2026-04-29T08:17:15.088Z</time></trkpt><trkpt lat="36.3588932" lon="-2.3540895"><ele>0.0</ele><time>2026-04-29T08:17:16.088Z</time></trkpt><trkpt lat="36.3589079" lon="-2.3539802"><ele>0.0</ele><time>2026-04-29T08:17:17.089Z</time></trkpt><trkpt lat="36.3589302" lon="-2.3538703"><ele>0.0</ele><time>2026-04-29T08:17:18.089Z</time></trkpt><trkpt lat="36.3589436" lon="-2.3537616"><ele>0.0</ele><time>2026-04-29T08:17:19.089Z</time></trkpt><trkpt lat="36.3589595" lon="-2.3536543"><ele>0.0</ele><time>2026-04-29T08:17:20.088Z</time></trkpt><trkpt lat="36.358976" lon="-2.3535449"><ele>0.0</ele><time>2026-04-29T08:17:21.088Z</time></trkpt><trkpt lat="36.3589969" lon="-2.3534436"><ele>0.0</ele><time>2026-04-29T08:17:22.089Z</time></trkpt><trkpt lat="36.3589807" lon="-2.3533438"><ele>0.0</ele><time>2026-04-29T08:17:23.089Z</time></trkpt><trkpt lat="36.3589606" lon="-2.353241"><ele>0.0</ele><time>2026-04-29T08:17:24.089Z</time></trkpt><trkpt lat="36.3589344" lon="-2.3531362"><ele>0.0</ele><time>2026-04-29T08:17:25.089Z</time></trkpt><trkpt lat="36.3589203" lon="-2.3530309"><ele>0.0</ele><time>2026-04-29T08:17:26.088Z</time></trkpt><trkpt lat="36.3589007" lon="-2.3528211"><ele>0.0</ele><time>2026-04-29T08:17:28.088Z</time></trkpt><trkpt lat="36.3589131" lon="-2.3527147"><ele>0.0</ele><time>2026-04-29T08:17:29.088Z</time></trkpt><trkpt lat="36.3588998" lon="-2.35261"><ele>0.0</ele><time>2026-04-29T08:17:30.089Z</time></trkpt><trkpt lat="36.3589032" lon="-2.3525022"><ele>0.0</ele><time>2026-04-29T08:17:31.089Z</time></trkpt><trkpt lat="36.3589153" lon="-2.3523935"><ele>0.0</ele><time>2026-04-29T08:17:32.088Z</time></trkpt><trkpt lat="36.3589354" lon="-2.3522836"><ele>0.0</ele><time>2026-04-29T08:17:33.088Z</time></trkpt><trkpt lat="36.3589571" lon="-2.3521738"><ele>0.0</ele><time>2026-04-29T08:17:34.089Z</time></trkpt><trkpt lat="36.3589763" lon="-2.3520638"><ele>0.0</ele><time>2026-04-29T08:17:35.088Z</time></trkpt><trkpt lat="36.3589989" lon="-2.3519511"><ele>0.0</ele><time>2026-04-29T08:17:36.089Z</time></trkpt><trkpt lat="36.3590236" lon="-2.3518391"><ele>0.0</ele><time>2026-04-29T08:17:37.088Z</time></trkpt><trkpt lat="36.3590235" lon="-2.3517317"><ele>0.0</ele><time>2026-04-29T08:17:38.089Z</time></trkpt><trkpt lat="36.3590498" lon="-2.3516206"><ele>0.0</ele><time>2026-04-29T08:17:39.089Z</time></trkpt><trkpt lat="36.3590785" lon="-2.3515075"><ele>0.0</ele><time>2026-04-29T08:17:40.089Z</time></trkpt><trkpt lat="36.359105" lon="-2.3513954"><ele>0.0</ele><time>2026-04-29T08:17:41.089Z</time></trkpt><trkpt lat="36.3591211" lon="-2.351285"><ele>0.0</ele><time>2026-04-29T08:17:42.089Z</time></trkpt><trkpt lat="36.3591403" lon="-2.3511749"><ele>0.0</ele><time>2026-04-29T08:17:43.089Z</time></trkpt><trkpt lat="36.3591615" lon="-2.3510621"><ele>0.0</ele><time>2026-04-29T08:17:44.089Z</time></trkpt><trkpt lat="36.3591815" lon="-2.3509533"><ele>0.0</ele><time>2026-04-29T08:17:45.088Z</time></trkpt><trkpt lat="36.3592044" lon="-2.3508467"><ele>0.0</ele><time>2026-04-29T08:17:46.089Z</time></trkpt><trkpt lat="36.3592437" lon="-2.3506323"><ele>0.0</ele><time>2026-04-29T08:17:48.088Z</time></trkpt><trkpt lat="36.3592629" lon="-2.350519"><ele>0.0</ele><time>2026-04-29T08:17:49.089Z</time></trkpt><trkpt lat="36.3592845" lon="-2.3504084"><ele>0.0</ele><time>2026-04-29T08:17:50.088Z</time></trkpt><trkpt lat="36.3593021" lon="-2.3503"><ele>0.0</ele><time>2026-04-29T08:17:51.089Z</time></trkpt><trkpt lat="36.35932" lon="-2.3501899"><ele>0.0</ele><time>2026-04-29T08:17:52.088Z</time></trkpt><trkpt lat="36.3593388" lon="-2.3500844"><ele>0.0</ele><time>2026-04-29T08:17:53.088Z</time></trkpt><trkpt lat="36.3593584" lon="-2.3499796"><ele>0.0</ele><time>2026-04-29T08:17:54.088Z</time></trkpt><trkpt lat="36.3593783" lon="-2.3498746"><ele>0.0</ele><time>2026-04-29T08:17:55.088Z</time></trkpt><trkpt lat="36.3593965" lon="-2.3497653"><ele>0.0</ele><time>2026-04-29T08:17:56.089Z</time></trkpt><trkpt lat="36.3594118" lon="-2.3496594"><ele>0.0</ele><time>2026-04-29T08:17:57.088Z</time></trkpt><trkpt lat="36.3594209" lon="-2.3495522"><ele>0.0</ele><time>2026-04-29T08:17:58.088Z</time></trkpt><trkpt lat="36.3594318" lon="-2.3494434"><ele>0.0</ele><time>2026-04-29T08:17:59.089Z</time></trkpt><trkpt lat="36.3594368" lon="-2.3493379"><ele>0.0</ele><time>2026-04-29T08:18:00.088Z</time></trkpt><trkpt lat="36.3594444" lon="-2.3492314"><ele>0.0</ele><time>2026-04-29T08:18:01.089Z</time></trkpt><trkpt lat="36.35946" lon="-2.3491233"><ele>0.0</ele><time>2026-04-29T08:18:02.088Z</time></trkpt><trkpt lat="36.3594755" lon="-2.3490136"><ele>0.0</ele><time>2026-04-29T08:18:03.088Z</time></trkpt><trkpt lat="36.3594833" lon="-2.3489065"><ele>0.0</ele><time>2026-04-29T08:18:04.088Z</time></trkpt><trkpt lat="36.359487" lon="-2.3488041"><ele>0.0</ele><time>2026-04-29T08:18:05.088Z</time></trkpt><trkpt lat="36.3594762" lon="-2.3486972"><ele>0.0</ele><time>2026-04-29T08:18:06.088Z</time></trkpt><trkpt lat="36.3594787" lon="-2.3485882"><ele>0.0</ele><time>2026-04-29T08:18:07.089Z</time></trkpt><trkpt lat="36.3594903" lon="-2.3483732"><ele>0.0</ele><time>2026-04-29T08:18:09.088Z</time></trkpt><trkpt lat="36.3594845" lon="-2.3482679"><ele>0.0</ele><time>2026-04-29T08:18:10.089Z</time></trkpt><trkpt lat="36.3594815" lon="-2.3481644"><ele>0.0</ele><time>2026-04-29T08:18:11.088Z</time></trkpt><trkpt lat="36.3594836" lon="-2.3480599"><ele>0.0</ele><time>2026-04-29T08:18:12.088Z</time></trkpt><trkpt lat="36.3594869" lon="-2.3479504"><ele>0.0</ele><time>2026-04-29T08:18:13.088Z</time></trkpt><trkpt lat="36.3594869" lon="-2.3478399"><ele>0.0</ele><time>2026-04-29T08:18:14.089Z</time></trkpt><trkpt lat="36.359488" lon="-2.347736"><ele>0.0</ele><time>2026-04-29T08:18:15.088Z</time></trkpt><trkpt lat="36.3594971" lon="-2.3476319"><ele>0.0</ele><time>2026-04-29T08:18:16.088Z</time></trkpt><trkpt lat="36.3595056" lon="-2.3475267"><ele>0.0</ele><time>2026-04-29T08:18:17.088Z</time></trkpt><trkpt lat="36.3595187" lon="-2.347416"><ele>0.0</ele><time>2026-04-29T08:18:18.089Z</time></trkpt><trkpt lat="36.3595351" lon="-2.3473069"><ele>0.0</ele><time>2026-04-29T08:18:19.089Z</time></trkpt><trkpt lat="36.3595576" lon="-2.3472001"><ele>0.0</ele><time>2026-04-29T08:18:20.088Z</time></trkpt><trkpt lat="36.3595809" lon="-2.3470863"><ele>0.0</ele><time>2026-04-29T08:18:21.089Z</time></trkpt><trkpt lat="36.3595887" lon="-2.3469771"><ele>0.0</ele><time>2026-04-29T08:18:22.089Z</time></trkpt><trkpt lat="36.3595996" lon="-2.3468701"><ele>0.0</ele><time>2026-04-29T08:18:23.088Z</time></trkpt><trkpt lat="36.3596109" lon="-2.3467634"><ele>0.0</ele><time>2026-04-29T08:18:24.088Z</time></trkpt><trkpt lat="36.3596188" lon="-2.3466565"><ele>0.0</ele><time>2026-04-29T08:18:25.089Z</time></trkpt><trkpt lat="36.3596211" lon="-2.3465485"><ele>0.0</ele><time>2026-04-29T08:18:26.089Z</time></trkpt><trkpt lat="36.3596325" lon="-2.3464416"><ele>0.0</ele><time>2026-04-29T08:18:27.089Z</time></trkpt><trkpt lat="36.3596446" lon="-2.3463288"><ele>0.0</ele><time>2026-04-29T08:18:28.089Z</time></trkpt><trkpt lat="36.359653" lon="-2.3461179"><ele>0.0</ele><time>2026-04-29T08:18:30.089Z</time></trkpt><trkpt lat="36.3596515" lon="-2.3460132"><ele>0.0</ele><time>2026-04-29T08:18:31.088Z</time></trkpt><trkpt lat="36.3596573" lon="-2.345907"><ele>0.0</ele><time>2026-04-29T08:18:32.088Z</time></trkpt><trkpt lat="36.3596669" lon="-2.3458016"><ele>0.0</ele><time>2026-04-29T08:18:33.089Z</time></trkpt><trkpt lat="36.3596771" lon="-2.3456938"><ele>0.0</ele><time>2026-04-29T08:18:34.089Z</time></trkpt><trkpt lat="36.3596889" lon="-2.3455853"><ele>0.0</ele><time>2026-04-29T08:18:35.088Z</time></trkpt><trkpt lat="36.3597093" lon="-2.3454768"><ele>0.0</ele><time>2026-04-29T08:18:36.088Z</time></trkpt><trkpt lat="36.3597226" lon="-2.3453625"><ele>0.0</ele><time>2026-04-29T08:18:37.089Z</time></trkpt><trkpt lat="36.3597386" lon="-2.3452506"><ele>0.0</ele><time>2026-04-29T08:18:38.088Z</time></trkpt><trkpt lat="36.3597425" lon="-2.3451475"><ele>0.0</ele><time>2026-04-29T08:18:39.088Z</time></trkpt><trkpt lat="36.3597524" lon="-2.3450418"><ele>0.0</ele><time>2026-04-29T08:18:40.089Z</time></trkpt><trkpt lat="36.3597598" lon="-2.3449368"><ele>0.0</ele><time>2026-04-29T08:18:41.089Z</time></trkpt><trkpt lat="36.3597696" lon="-2.3448275"><ele>0.0</ele><time>2026-04-29T08:18:42.088Z</time></trkpt><trkpt lat="36.359807" lon="-2.3447152"><ele>0.0</ele><time>2026-04-29T08:18:43.088Z</time></trkpt><trkpt lat="36.3598359" lon="-2.344608"><ele>0.0</ele><time>2026-04-29T08:18:44.088Z</time></trkpt><trkpt lat="36.3598566" lon="-2.3445015"><ele>0.0</ele><time>2026-04-29T08:18:45.088Z</time></trkpt><trkpt lat="36.3598697" lon="-2.3443978"><ele>0.0</ele><time>2026-04-29T08:18:46.089Z</time></trkpt><trkpt lat="36.3598831" lon="-2.3442886"><ele>0.0</ele><time>2026-04-29T08:18:47.088Z</time></trkpt><trkpt lat="36.3598981" lon="-2.3441794"><ele>0.0</ele><time>2026-04-29T08:18:48.089Z</time></trkpt><trkpt lat="36.3599189" lon="-2.344076"><ele>0.0</ele><time>2026-04-29T08:18:49.088Z</time></trkpt><trkpt lat="36.3599377" lon="-2.3438602"><ele>0.0</ele><time>2026-04-29T08:18:51.088Z</time></trkpt><trkpt lat="36.3599439" lon="-2.3437518"><ele>0.0</ele><time>2026-04-29T08:18:52.088Z</time></trkpt><trkpt lat="36.3599516" lon="-2.3436433"><ele>0.0</ele><time>2026-04-29T08:18:53.088Z</time></trkpt><trkpt lat="36.3599651" lon="-2.3435348"><ele>0.0</ele><time>2026-04-29T08:18:54.089Z</time></trkpt><trkpt lat="36.3599786" lon="-2.3434253"><ele>0.0</ele><time>2026-04-29T08:18:55.089Z</time></trkpt><trkpt lat="36.3599894" lon="-2.3433137"><ele>0.0</ele><time>2026-04-29T08:18:56.088Z</time></trkpt><trkpt lat="36.3600022" lon="-2.3432049"><ele>0.0</ele><time>2026-04-29T08:18:57.088Z</time></trkpt><trkpt lat="36.3600012" lon="-2.3431008"><ele>0.0</ele><time>2026-04-29T08:18:58.088Z</time></trkpt><trkpt lat="36.3599992" lon="-2.3429963"><ele>0.0</ele><time>2026-04-29T08:18:59.089Z</time></trkpt><trkpt lat="36.3600016" lon="-2.3428873"><ele>0.0</ele><time>2026-04-29T08:19:00.088Z</time></trkpt><trkpt lat="36.3600172" lon="-2.3427769"><ele>0.0</ele><time>2026-04-29T08:19:01.088Z</time></trkpt><trkpt lat="36.3600305" lon="-2.3426668"><ele>0.0</ele><time>2026-04-29T08:19:02.088Z</time></trkpt><trkpt lat="36.3600461" lon="-2.3425586"><ele>0.0</ele><time>2026-04-29T08:19:03.088Z</time></trkpt><trkpt lat="36.3600607" lon="-2.3424503"><ele>0.0</ele><time>2026-04-29T08:19:04.089Z</time></trkpt><trkpt lat="36.3600755" lon="-2.3423431"><ele>0.0</ele><time>2026-04-29T08:19:05.088Z</time></trkpt><trkpt lat="36.3600947" lon="-2.3422318"><ele>0.0</ele><time>2026-04-29T08:19:06.088Z</time></trkpt><trkpt lat="36.3601109" lon="-2.3421246"><ele>0.0</ele><time>2026-04-29T08:19:07.089Z</time></trkpt><trkpt lat="36.3601203" lon="-2.3420181"><ele>0.0</ele><time>2026-04-29T08:19:08.088Z</time></trkpt><trkpt lat="36.3601288" lon="-2.3419085"><ele>0.0</ele><time>2026-04-29T08:19:09.089Z</time></trkpt><trkpt lat="36.3601412" lon="-2.3417985"><ele>0.0</ele><time>2026-04-29T08:19:10.088Z</time></trkpt><trkpt lat="36.3601558" lon="-2.3415797"><ele>0.0</ele><time>2026-04-29T08:19:12.088Z</time></trkpt><trkpt lat="36.3601579" lon="-2.3414761"><ele>0.0</ele><time>2026-04-29T08:19:13.088Z</time></trkpt><trkpt lat="36.3601628" lon="-2.3413729"><ele>0.0</ele><time>2026-04-29T08:19:14.089Z</time></trkpt><trkpt lat="36.3601755" lon="-2.3412669"><ele>0.0</ele><time>2026-04-29T08:19:15.088Z</time></trkpt><trkpt lat="36.3601816" lon="-2.3411547"><ele>0.0</ele><time>2026-04-29T08:19:16.088Z</time></trkpt><trkpt lat="36.3601921" lon="-2.3410394"><ele>0.0</ele><time>2026-04-29T08:19:17.088Z</time></trkpt><trkpt lat="36.3602165" lon="-2.3409211"><ele>0.0</ele><time>2026-04-29T08:19:18.089Z</time></trkpt><trkpt lat="36.3602329" lon="-2.3408157"><ele>0.0</ele><time>2026-04-29T08:19:19.089Z</time></trkpt><trkpt lat="36.3602478" lon="-2.340708"><ele>0.0</ele><time>2026-04-29T08:19:20.088Z</time></trkpt><trkpt lat="36.3602661" lon="-2.3406028"><ele>0.0</ele><time>2026-04-29T08:19:21.088Z</time></trkpt><trkpt lat="36.3602921" lon="-2.3404993"><ele>0.0</ele><time>2026-04-29T08:19:22.089Z</time></trkpt><trkpt lat="36.3603065" lon="-2.3403918"><ele>0.0</ele><time>2026-04-29T08:19:23.088Z</time></trkpt><trkpt lat="36.3603253" lon="-2.3402877"><ele>0.0</ele><time>2026-04-29T08:19:24.088Z</time></trkpt><trkpt lat="36.3603409" lon="-2.3401831"><ele>0.0</ele><time>2026-04-29T08:19:25.089Z</time></trkpt><trkpt lat="36.3603508" lon="-2.3400737"><ele>0.0</ele><time>2026-04-29T08:19:26.088Z</time></trkpt><trkpt lat="36.3603574" lon="-2.3399664"><ele>0.0</ele><time>2026-04-29T08:19:27.088Z</time></trkpt><trkpt lat="36.3603678" lon="-2.3398581"><ele>0.0</ele><time>2026-04-29T08:19:28.089Z</time></trkpt><trkpt lat="36.3603806" lon="-2.3397444"><ele>0.0</ele><time>2026-04-29T08:19:29.088Z</time></trkpt><trkpt lat="36.3603838" lon="-2.3396352"><ele>0.0</ele><time>2026-04-29T08:19:30.088Z</time></trkpt><trkpt lat="36.360444" lon="-2.3395208"><ele>0.0</ele><time>2026-04-29T08:19:31.088Z</time></trkpt><trkpt lat="36.3604621" lon="-2.3393033"><ele>0.0</ele><time>2026-04-29T08:19:33.089Z</time></trkpt><trkpt lat="36.3604647" lon="-2.3391967"><ele>0.0</ele><time>2026-04-29T08:19:34.089Z</time></trkpt><trkpt lat="36.360476" lon="-2.3390901"><ele>0.0</ele><time>2026-04-29T08:19:35.089Z</time></trkpt><trkpt lat="36.3604836" lon="-2.3389802"><ele>0.0</ele><time>2026-04-29T08:19:36.089Z</time></trkpt><trkpt lat="36.3605046" lon="-2.3388746"><ele>0.0</ele><time>2026-04-29T08:19:37.088Z</time></trkpt><trkpt lat="36.3605298" lon="-2.3387697"><ele>0.0</ele><time>2026-04-29T08:19:38.089Z</time></trkpt><trkpt lat="36.3605493" lon="-2.3386601"><ele>0.0</ele><time>2026-04-29T08:19:39.089Z</time></trkpt><trkpt lat="36.3605643" lon="-2.3385532"><ele>0.0</ele><time>2026-04-29T08:19:40.089Z</time></trkpt><trkpt lat="36.3605819" lon="-2.3384462"><ele>0.0</ele><time>2026-04-29T08:19:41.088Z</time></trkpt><trkpt lat="36.3605959" lon="-2.3383395"><ele>0.0</ele><time>2026-04-29T08:19:42.089Z</time></trkpt><trkpt lat="36.3606102" lon="-2.3382342"><ele>0.0</ele><time>2026-04-29T08:19:43.088Z</time></trkpt><trkpt lat="36.3606064" lon="-2.3381265"><ele>0.0</ele><time>2026-04-29T08:19:44.088Z</time></trkpt><trkpt lat="36.3606002" lon="-2.33802"><ele>0.0</ele><time>2026-04-29T08:19:45.089Z</time></trkpt><trkpt lat="36.3606031" lon="-2.3379165"><ele>0.0</ele><time>2026-04-29T08:19:46.089Z</time></trkpt><trkpt lat="36.3606102" lon="-2.3378146"><ele>0.0</ele><time>2026-04-29T08:19:47.089Z</time></trkpt><trkpt lat="36.3606214" lon="-2.3377088"><ele>0.0</ele><time>2026-04-29T08:19:48.088Z</time></trkpt><trkpt lat="36.3606336" lon="-2.3376018"><ele>0.0</ele><time>2026-04-29T08:19:49.088Z</time></trkpt><trkpt lat="36.3606458" lon="-2.3374968"><ele>0.0</ele><time>2026-04-29T08:19:50.088Z</time></trkpt><trkpt lat="36.3606564" lon="-2.3373916"><ele>0.0</ele><time>2026-04-29T08:19:51.088Z</time></trkpt><trkpt lat="36.3606728" lon="-2.337285"><ele>0.0</ele><time>2026-04-29T08:19:52.089Z</time></trkpt><trkpt lat="36.3607052" lon="-2.3370701"><ele>0.0</ele><time>2026-04-29T08:19:54.088Z</time></trkpt><trkpt lat="36.3607338" lon="-2.3369564"><ele>0.0</ele><time>2026-04-29T08:19:55.088Z</time></trkpt><trkpt lat="36.3607504" lon="-2.3368459"><ele>0.0</ele><time>2026-04-29T08:19:56.089Z</time></trkpt><trkpt lat="36.3607686" lon="-2.3367371"><ele>0.0</ele><time>2026-04-29T08:19:57.088Z</time></trkpt><trkpt lat="36.3607838" lon="-2.3366288"><ele>0.0</ele><time>2026-04-29T08:19:58.088Z</time></trkpt><trkpt lat="36.3608026" lon="-2.3365221"><ele>0.0</ele><time>2026-04-29T08:19:59.088Z</time></trkpt><trkpt lat="36.3608231" lon="-2.3364127"><ele>0.0</ele><time>2026-04-29T08:20:00.089Z</time></trkpt><trkpt lat="36.3608402" lon="-2.3363035"><ele>0.0</ele><time>2026-04-29T08:20:01.088Z</time></trkpt><trkpt lat="36.3608446" lon="-2.3361969"><ele>0.0</ele><time>2026-04-29T08:20:02.088Z</time></trkpt><trkpt lat="36.3608527" lon="-2.3360943"><ele>0.0</ele><time>2026-04-29T08:20:03.089Z</time></trkpt><trkpt lat="36.3608581" lon="-2.3359913"><ele>0.0</ele><time>2026-04-29T08:20:04.088Z</time></trkpt><trkpt lat="36.3608642" lon="-2.3358833"><ele>0.0</ele><time>2026-04-29T08:20:05.089Z</time></trkpt><trkpt lat="36.3608721" lon="-2.335775"><ele>0.0</ele><time>2026-04-29T08:20:06.088Z</time></trkpt><trkpt lat="36.360877" lon="-2.3356682"><ele>0.0</ele><time>2026-04-29T08:20:07.088Z</time></trkpt><trkpt lat="36.3608846" lon="-2.3355606"><ele>0.0</ele><time>2026-04-29T08:20:08.088Z</time></trkpt><trkpt lat="36.3608888" lon="-2.3354546"><ele>0.0</ele><time>2026-04-29T08:20:09.088Z</time></trkpt><trkpt lat="36.36089" lon="-2.3353482"><ele>0.0</ele><time>2026-04-29T08:20:10.088Z</time></trkpt><trkpt lat="36.3608898" lon="-2.3352442"><ele>0.0</ele><time>2026-04-29T08:20:11.088Z</time></trkpt><trkpt lat="36.3608925" lon="-2.3351426"><ele>0.0</ele><time>2026-04-29T08:20:12.089Z</time></trkpt><trkpt lat="36.3609029" lon="-2.3350369"><ele>0.0</ele><time>2026-04-29T08:20:13.089Z</time></trkpt><trkpt lat="36.3609152" lon="-2.334826"><ele>0.0</ele><time>2026-04-29T08:20:15.088Z</time></trkpt><trkpt lat="36.3609185" lon="-2.3347184"><ele>0.0</ele><time>2026-04-29T08:20:16.088Z</time></trkpt><trkpt lat="36.3609302" lon="-2.3346085"><ele>0.0</ele><time>2026-04-29T08:20:17.089Z</time></trkpt><trkpt lat="36.3609438" lon="-2.3345031"><ele>0.0</ele><time>2026-04-29T08:20:18.088Z</time></trkpt><trkpt lat="36.3609597" lon="-2.3343955"><ele>0.0</ele><time>2026-04-29T08:20:19.089Z</time></trkpt><trkpt lat="36.3609726" lon="-2.3342856"><ele>0.0</ele><time>2026-04-29T08:20:20.089Z</time></trkpt><trkpt lat="36.360989" lon="-2.334174"><ele>0.0</ele><time>2026-04-29T08:20:21.088Z</time></trkpt><trkpt lat="36.3609869" lon="-2.3340684"><ele>0.0</ele><time>2026-04-29T08:20:22.088Z</time></trkpt><trkpt lat="36.360985" lon="-2.3339607"><ele>0.0</ele><time>2026-04-29T08:20:23.089Z</time></trkpt><trkpt lat="36.3609806" lon="-2.3338568"><ele>0.0</ele><time>2026-04-29T08:20:24.089Z</time></trkpt><trkpt lat="36.3609744" lon="-2.3337515"><ele>0.0</ele><time>2026-04-29T08:20:25.088Z</time></trkpt><trkpt lat="36.3609703" lon="-2.3336481"><ele>0.0</ele><time>2026-04-29T08:20:26.089Z</time></trkpt><trkpt lat="36.3609752" lon="-2.3335406"><ele>0.0</ele><time>2026-04-29T08:20:27.088Z</time></trkpt><trkpt lat="36.3609816" lon="-2.3334323"><ele>0.0</ele><time>2026-04-29T08:20:28.088Z</time></trkpt><trkpt lat="36.3609913" lon="-2.3333223"><ele>0.0</ele><time>2026-04-29T08:20:29.089Z</time></trkpt><trkpt lat="36.3609963" lon="-2.3332109"><ele>0.0</ele><time>2026-04-29T08:20:30.089Z</time></trkpt><trkpt lat="36.3609979" lon="-2.3330976"><ele>0.0</ele><time>2026-04-29T08:20:31.089Z</time></trkpt><trkpt lat="36.3610226" lon="-2.3329808"><ele>0.0</ele><time>2026-04-29T08:20:32.088Z</time></trkpt><trkpt lat="36.3610342" lon="-2.3328667"><ele>0.0</ele><time>2026-04-29T08:20:33.088Z</time></trkpt><trkpt lat="36.3610585" lon="-2.332758"><ele>0.0</ele><time>2026-04-29T08:20:34.088Z</time></trkpt><trkpt lat="36.3610987" lon="-2.3325344"><ele>0.0</ele><time>2026-04-29T08:20:36.089Z</time></trkpt><trkpt lat="36.3611257" lon="-2.3324236"><ele>0.0</ele><time>2026-04-29T08:20:37.089Z</time></trkpt><trkpt lat="36.3611326" lon="-2.3323164"><ele>0.0</ele><time>2026-04-29T08:20:38.088Z</time></trkpt><trkpt lat="36.361144" lon="-2.3322126"><ele>0.0</ele><time>2026-04-29T08:20:39.088Z</time></trkpt><trkpt lat="36.3611509" lon="-2.3321063"><ele>0.0</ele><time>2026-04-29T08:20:40.088Z</time></trkpt><trkpt lat="36.3611588" lon="-2.3319996"><ele>0.0</ele><time>2026-04-29T08:20:41.088Z</time></trkpt><trkpt lat="36.3611652" lon="-2.3318973"><ele>0.0</ele><time>2026-04-29T08:20:42.088Z</time></trkpt><trkpt lat="36.361179" lon="-2.331793"><ele>0.0</ele><time>2026-04-29T08:20:43.089Z</time></trkpt><trkpt lat="36.3611898" lon="-2.3316853"><ele>0.0</ele><time>2026-04-29T08:20:44.088Z</time></trkpt><trkpt lat="36.3612087" lon="-2.3315719"><ele>0.0</ele><time>2026-04-29T08:20:45.089Z</time></trkpt><trkpt lat="36.3612218" lon="-2.3314673"><ele>0.0</ele><time>2026-04-29T08:20:46.088Z</time></trkpt><trkpt lat="36.3612331" lon="-2.3313661"><ele>0.0</ele><time>2026-04-29T08:20:47.089Z</time></trkpt><trkpt lat="36.3612532" lon="-2.3312628"><ele>0.0</ele><time>2026-04-29T08:20:48.088Z</time></trkpt><trkpt lat="36.3612788" lon="-2.3311601"><ele>0.0</ele><time>2026-04-29T08:20:49.088Z</time></trkpt><trkpt lat="36.3612999" lon="-2.3310539"><ele>0.0</ele><time>2026-04-29T08:20:50.088Z</time></trkpt><trkpt lat="36.3613214" lon="-2.3309422"><ele>0.0</ele><time>2026-04-29T08:20:51.088Z</time></trkpt><trkpt lat="36.3613337" lon="-2.3308316"><ele>0.0</ele><time>2026-04-29T08:20:52.088Z</time></trkpt><trkpt lat="36.3613406" lon="-2.3307237"><ele>0.0</ele><time>2026-04-29T08:20:53.088Z</time></trkpt><trkpt lat="36.3613421" lon="-2.3306154"><ele>0.0</ele><time>2026-04-29T08:20:54.088Z</time></trkpt><trkpt lat="36.3613493" lon="-2.3305026"><ele>0.0</ele><time>2026-04-29T08:20:55.089Z</time></trkpt><trkpt lat="36.3613583" lon="-2.3302805"><ele>0.0</ele><time>2026-04-29T08:20:57.088Z</time></trkpt><trkpt lat="36.361358" lon="-2.3301749"><ele>0.0</ele><time>2026-04-29T08:20:58.088Z</time></trkpt><trkpt lat="36.3613534" lon="-2.3300672"><ele>0.0</ele><time>2026-04-29T08:20:59.089Z</time></trkpt><trkpt lat="36.3613644" lon="-2.3299572"><ele>0.0</ele><time>2026-04-29T08:21:00.088Z</time></trkpt><trkpt lat="36.3613835" lon="-2.3298501"><ele>0.0</ele><time>2026-04-29T08:21:01.088Z</time></trkpt><trkpt lat="36.3613954" lon="-2.3297485"><ele>0.0</ele><time>2026-04-29T08:21:02.089Z</time></trkpt><trkpt lat="36.3614071" lon="-2.3296487"><ele>0.0</ele><time>2026-04-29T08:21:03.089Z</time></trkpt><trkpt lat="36.3614219" lon="-2.329543"><ele>0.0</ele><time>2026-04-29T08:21:04.089Z</time></trkpt><trkpt lat="36.361409" lon="-2.3294457"><ele>0.0</ele><time>2026-04-29T08:21:05.089Z</time></trkpt><trkpt lat="36.3614108" lon="-2.3293419"><ele>0.0</ele><time>2026-04-29T08:21:06.089Z</time></trkpt><trkpt lat="36.361397" lon="-2.3292393"><ele>0.0</ele><time>2026-04-29T08:21:07.088Z</time></trkpt><trkpt lat="36.3613893" lon="-2.3291381"><ele>0.0</ele><time>2026-04-29T08:21:08.088Z</time></trkpt><trkpt lat="36.3613936" lon="-2.3290323"><ele>0.0</ele><time>2026-04-29T08:21:09.088Z</time></trkpt><trkpt lat="36.3614002" lon="-2.3289193"><ele>0.0</ele><time>2026-04-29T08:21:10.088Z</time></trkpt><trkpt lat="36.3614127" lon="-2.3288084"><ele>0.0</ele><time>2026-04-29T08:21:11.088Z</time></trkpt><trkpt lat="36.3614277" lon="-2.328702"><ele>0.0</ele><time>2026-04-29T08:21:12.089Z</time></trkpt><trkpt lat="36.3614442" lon="-2.3285968"><ele>0.0</ele><time>2026-04-29T08:21:13.088Z</time></trkpt><trkpt lat="36.3614572" lon="-2.3284932"><ele>0.0</ele><time>2026-04-29T08:21:14.088Z</time></trkpt><trkpt lat="36.3614675" lon="-2.3283883"><ele>0.0</ele><time>2026-04-29T08:21:15.088Z</time></trkpt><trkpt lat="36.3614744" lon="-2.3282758"><ele>0.0</ele><time>2026-04-29T08:21:16.088Z</time></trkpt><trkpt lat="36.3615097" lon="-2.3280531"><ele>0.0</ele><time>2026-04-29T08:21:18.089Z</time></trkpt><trkpt lat="36.3615239" lon="-2.3279418"><ele>0.0</ele><time>2026-04-29T08:21:19.089Z</time></trkpt><trkpt lat="36.3615314" lon="-2.3278334"><ele>0.0</ele><time>2026-04-29T08:21:20.088Z</time></trkpt><trkpt lat="36.3615416" lon="-2.3277269"><ele>0.0</ele><time>2026-04-29T08:21:21.089Z</time></trkpt><trkpt lat="36.3615546" lon="-2.3276177"><ele>0.0</ele><time>2026-04-29T08:21:22.089Z</time></trkpt><trkpt lat="36.3615588" lon="-2.3275075"><ele>0.0</ele><time>2026-04-29T08:21:23.089Z</time></trkpt><trkpt lat="36.3615691" lon="-2.3273988"><ele>0.0</ele><time>2026-04-29T08:21:24.089Z</time></trkpt><trkpt lat="36.3615826" lon="-2.3272933"><ele>0.0</ele><time>2026-04-29T08:21:25.089Z</time></trkpt><trkpt lat="36.3615972" lon="-2.3271825"><ele>0.0</ele><time>2026-04-29T08:21:26.089Z</time></trkpt><trkpt lat="36.3616165" lon="-2.3270706"><ele>0.0</ele><time>2026-04-29T08:21:27.088Z</time></trkpt><trkpt lat="36.3616365" lon="-2.3269588"><ele>0.0</ele><time>2026-04-29T08:21:28.088Z</time></trkpt><trkpt lat="36.3616937" lon="-2.3268443"><ele>0.0</ele><time>2026-04-29T08:21:29.088Z</time></trkpt><trkpt lat="36.3617227" lon="-2.3267353"><ele>0.0</ele><time>2026-04-29T08:21:30.089Z</time></trkpt><trkpt lat="36.361766" lon="-2.3266231"><ele>0.0</ele><time>2026-04-29T08:21:31.088Z</time></trkpt><trkpt lat="36.3617822" lon="-2.3265141"><ele>0.0</ele><time>2026-04-29T08:21:32.089Z</time></trkpt><trkpt lat="36.3618" lon="-2.3264075"><ele>0.0</ele><time>2026-04-29T08:21:33.089Z</time></trkpt><trkpt lat="36.3618184" lon="-2.326294"><ele>0.0</ele><time>2026-04-29T08:21:34.088Z</time></trkpt><trkpt lat="36.3618313" lon="-2.3261804"><ele>0.0</ele><time>2026-04-29T08:21:35.089Z</time></trkpt><trkpt lat="36.3618399" lon="-2.3260675"><ele>0.0</ele><time>2026-04-29T08:21:36.089Z</time></trkpt><trkpt lat="36.3618409" lon="-2.3259585"><ele>0.0</ele><time>2026-04-29T08:21:37.089Z</time></trkpt><trkpt lat="36.3618587" lon="-2.325737"><ele>0.0</ele><time>2026-04-29T08:21:39.088Z</time></trkpt><trkpt lat="36.3618782" lon="-2.3256253"><ele>0.0</ele><time>2026-04-29T08:21:40.089Z</time></trkpt><trkpt lat="36.361887" lon="-2.3255165"><ele>0.0</ele><time>2026-04-29T08:21:41.089Z</time></trkpt><trkpt lat="36.3618852" lon="-2.3254109"><ele>0.0</ele><time>2026-04-29T08:21:42.089Z</time></trkpt><trkpt lat="36.3618754" lon="-2.3253058"><ele>0.0</ele><time>2026-04-29T08:21:43.089Z</time></trkpt><trkpt lat="36.361857" lon="-2.3252027"><ele>0.0</ele><time>2026-04-29T08:21:44.088Z</time></trkpt><trkpt lat="36.3618551" lon="-2.3250956"><ele>0.0</ele><time>2026-04-29T08:21:45.089Z</time></trkpt><trkpt lat="36.3618242" lon="-2.32499"><ele>0.0</ele><time>2026-04-29T08:21:46.088Z</time></trkpt><trkpt lat="36.3618091" lon="-2.3248849"><ele>0.0</ele><time>2026-04-29T08:21:47.088Z</time></trkpt><trkpt lat="36.3617969" lon="-2.3247771"><ele>0.0</ele><time>2026-04-29T08:21:48.088Z</time></trkpt><trkpt lat="36.3617896" lon="-2.3246655"><ele>0.0</ele><time>2026-04-29T08:21:49.089Z</time></trkpt><trkpt lat="36.361794" lon="-2.3245539"><ele>0.0</ele><time>2026-04-29T08:21:50.088Z</time></trkpt><trkpt lat="36.3617981" lon="-2.3244435"><ele>0.0</ele><time>2026-04-29T08:21:51.089Z</time></trkpt><trkpt lat="36.3618057" lon="-2.3243335"><ele>0.0</ele><time>2026-04-29T08:21:52.089Z</time></trkpt><trkpt lat="36.3618112" lon="-2.3242279"><ele>0.0</ele><time>2026-04-29T08:21:53.088Z</time></trkpt><trkpt lat="36.3618272" lon="-2.324119"><ele>0.0</ele><time>2026-04-29T08:21:54.089Z</time></trkpt><trkpt lat="36.3618432" lon="-2.3240088"><ele>0.0</ele><time>2026-04-29T08:21:55.089Z</time></trkpt><trkpt lat="36.3618527" lon="-2.323897"><ele>0.0</ele><time>2026-04-29T08:21:56.088Z</time></trkpt><trkpt lat="36.3618654" lon="-2.3237837"><ele>0.0</ele><time>2026-04-29T08:21:57.089Z</time></trkpt><trkpt lat="36.3618711" lon="-2.3236729"><ele>0.0</ele><time>2026-04-29T08:21:58.088Z</time></trkpt><trkpt lat="36.3618784" lon="-2.323461"><ele>0.0</ele><time>2026-04-29T08:22:00.088Z</time></trkpt><trkpt lat="36.3618894" lon="-2.3233562"><ele>0.0</ele><time>2026-04-29T08:22:01.088Z</time></trkpt><trkpt lat="36.3618951" lon="-2.3232512"><ele>0.0</ele><time>2026-04-29T08:22:02.089Z</time></trkpt><trkpt lat="36.3618974" lon="-2.323143"><ele>0.0</ele><time>2026-04-29T08:22:03.088Z</time></trkpt><trkpt lat="36.3618819" lon="-2.3230418"><ele>0.0</ele><time>2026-04-29T08:22:04.089Z</time></trkpt><trkpt lat="36.3618692" lon="-2.3229411"><ele>0.0</ele><time>2026-04-29T08:22:05.087Z</time></trkpt><trkpt lat="36.3618763" lon="-2.3228335"><ele>0.0</ele><time>2026-04-29T08:22:06.088Z</time></trkpt><trkpt lat="36.3618895" lon="-2.3227223"><ele>0.0</ele><time>2026-04-29T08:22:07.087Z</time></trkpt><trkpt lat="36.3619031" lon="-2.3226133"><ele>0.0</ele><time>2026-04-29T08:22:08.088Z</time></trkpt><trkpt lat="36.3619139" lon="-2.3225014"><ele>0.0</ele><time>2026-04-29T08:22:09.087Z</time></trkpt><trkpt lat="36.3618926" lon="-2.3223905"><ele>0.0</ele><time>2026-04-29T08:22:10.087Z</time></trkpt><trkpt lat="36.3618971" lon="-2.3222769"><ele>0.0</ele><time>2026-04-29T08:22:11.088Z</time></trkpt><trkpt lat="36.3619066" lon="-2.3221729"><ele>0.0</ele><time>2026-04-29T08:22:12.087Z</time></trkpt><trkpt lat="36.3619198" lon="-2.3220685"><ele>0.0</ele><time>2026-04-29T08:22:13.087Z</time></trkpt><trkpt lat="36.3619198" lon="-2.3219663"><ele>0.0</ele><time>2026-04-29T08:22:14.088Z</time></trkpt><trkpt lat="36.3619255" lon="-2.3218615"><ele>0.0</ele><time>2026-04-29T08:22:15.087Z</time></trkpt><trkpt lat="36.3619261" lon="-2.3217552"><ele>0.0</ele><time>2026-04-29T08:22:16.087Z</time></trkpt><trkpt lat="36.3619277" lon="-2.3216454"><ele>0.0</ele><time>2026-04-29T08:22:17.088Z</time></trkpt><trkpt lat="36.3619357" lon="-2.3215339"><ele>0.0</ele><time>2026-04-29T08:22:18.087Z</time></trkpt><trkpt lat="36.3619503" lon="-2.3214224"><ele>0.0</ele><time>2026-04-29T08:22:19.088Z</time></trkpt><trkpt lat="36.3619514" lon="-2.3212155"><ele>0.0</ele><time>2026-04-29T08:22:21.087Z</time></trkpt><trkpt lat="36.3619432" lon="-2.3211085"><ele>0.0</ele><time>2026-04-29T08:22:22.088Z</time></trkpt><trkpt lat="36.3619333" lon="-2.3210025"><ele>0.0</ele><time>2026-04-29T08:22:23.087Z</time></trkpt><trkpt lat="36.3619359" lon="-2.3208965"><ele>0.0</ele><time>2026-04-29T08:22:24.087Z</time></trkpt><trkpt lat="36.3619417" lon="-2.3207915"><ele>0.0</ele><time>2026-04-29T08:22:25.088Z</time></trkpt><trkpt lat="36.3619525" lon="-2.3206838"><ele>0.0</ele><time>2026-04-29T08:22:26.088Z</time></trkpt><trkpt lat="36.3619673" lon="-2.3205743"><ele>0.0</ele><time>2026-04-29T08:22:27.087Z</time></trkpt><trkpt lat="36.3619829" lon="-2.3204638"><ele>0.0</ele><time>2026-04-29T08:22:28.087Z</time></trkpt><trkpt lat="36.362" lon="-2.3203503"><ele>0.0</ele><time>2026-04-29T08:22:29.088Z</time></trkpt><trkpt lat="36.3620164" lon="-2.3202413"><ele>0.0</ele><time>2026-04-29T08:22:30.087Z</time></trkpt><trkpt lat="36.3620365" lon="-2.3201327"><ele>0.0</ele><time>2026-04-29T08:22:31.088Z</time></trkpt><trkpt lat="36.3620591" lon="-2.3200232"><ele>0.0</ele><time>2026-04-29T08:22:32.088Z</time></trkpt><trkpt lat="36.3620735" lon="-2.3199143"><ele>0.0</ele><time>2026-04-29T08:22:33.088Z</time></trkpt><trkpt lat="36.3620893" lon="-2.319809"><ele>0.0</ele><time>2026-04-29T08:22:34.087Z</time></trkpt><trkpt lat="36.3620988" lon="-2.3197072"><ele>0.0</ele><time>2026-04-29T08:22:35.087Z</time></trkpt><trkpt lat="36.3621016" lon="-2.319603"><ele>0.0</ele><time>2026-04-29T08:22:36.087Z</time></trkpt><trkpt lat="36.3621081" lon="-2.3194983"><ele>0.0</ele><time>2026-04-29T08:22:37.087Z</time></trkpt><trkpt lat="36.3621063" lon="-2.3193938"><ele>0.0</ele><time>2026-04-29T08:22:38.088Z</time></trkpt><trkpt lat="36.3621124" lon="-2.3192858"><ele>0.0</ele><time>2026-04-29T08:22:39.088Z</time></trkpt><trkpt lat="36.3621217" lon="-2.3191841"><ele>0.0</ele><time>2026-04-29T08:22:40.088Z</time></trkpt><trkpt lat="36.3621528" lon="-2.318966"><ele>0.0</ele><time>2026-04-29T08:22:42.088Z</time></trkpt><trkpt lat="36.3621653" lon="-2.3188522"><ele>0.0</ele><time>2026-04-29T08:22:43.087Z</time></trkpt><trkpt lat="36.3621688" lon="-2.3187449"><ele>0.0</ele><time>2026-04-29T08:22:44.088Z</time></trkpt><trkpt lat="36.3621733" lon="-2.3186382"><ele>0.0</ele><time>2026-04-29T08:22:45.087Z</time></trkpt><trkpt lat="36.3621813" lon="-2.3185272"><ele>0.0</ele><time>2026-04-29T08:22:46.087Z</time></trkpt><trkpt lat="36.3621891" lon="-2.3184169"><ele>0.0</ele><time>2026-04-29T08:22:47.088Z</time></trkpt><trkpt lat="36.3621984" lon="-2.3183039"><ele>0.0</ele><time>2026-04-29T08:22:48.088Z</time></trkpt><trkpt lat="36.3622028" lon="-2.3181903"><ele>0.0</ele><time>2026-04-29T08:22:49.087Z</time></trkpt><trkpt lat="36.3622046" lon="-2.3180771"><ele>0.0</ele><time>2026-04-29T08:22:50.088Z</time></trkpt><trkpt lat="36.3621919" lon="-2.317967"><ele>0.0</ele><time>2026-04-29T08:22:51.087Z</time></trkpt><trkpt lat="36.3621876" lon="-2.31786"><ele>0.0</ele><time>2026-04-29T08:22:52.087Z</time></trkpt><trkpt lat="36.3621763" lon="-2.3177603"><ele>0.0</ele><time>2026-04-29T08:22:53.087Z</time></trkpt><trkpt lat="36.3621765" lon="-2.3176597"><ele>0.0</ele><time>2026-04-29T08:22:54.087Z</time></trkpt><trkpt lat="36.3621787" lon="-2.317552"><ele>0.0</ele><time>2026-04-29T08:22:55.087Z</time></trkpt><trkpt lat="36.3621817" lon="-2.3174436"><ele>0.0</ele><time>2026-04-29T08:22:56.087Z</time></trkpt><trkpt lat="36.3621807" lon="-2.3173317"><ele>0.0</ele><time>2026-04-29T08:22:57.088Z</time></trkpt><trkpt lat="36.3621891" lon="-2.3172195"><ele>0.0</ele><time>2026-04-29T08:22:58.087Z</time></trkpt><trkpt lat="36.3621927" lon="-2.3171138"><ele>0.0</ele><time>2026-04-29T08:22:59.088Z</time></trkpt><trkpt lat="36.3622029" lon="-2.3170091"><ele>0.0</ele><time>2026-04-29T08:23:00.088Z</time></trkpt><trkpt lat="36.3622179" lon="-2.3169066"><ele>0.0</ele><time>2026-04-29T08:23:01.088Z</time></trkpt><trkpt lat="36.3622419" lon="-2.3166911"><ele>0.0</ele><time>2026-04-29T08:23:03.087Z</time></trkpt><trkpt lat="36.3622431" lon="-2.3165817"><ele>0.0</ele><time>2026-04-29T08:23:04.087Z</time></trkpt><trkpt lat="36.3622424" lon="-2.3164713"><ele>0.0</ele><time>2026-04-29T08:23:05.087Z</time></trkpt><trkpt lat="36.3622517" lon="-2.3163612"><ele>0.0</ele><time>2026-04-29T08:23:06.087Z</time></trkpt><trkpt lat="36.3622623" lon="-2.3162528"><ele>0.0</ele><time>2026-04-29T08:23:07.087Z</time></trkpt><trkpt lat="36.3622744" lon="-2.3161434"><ele>0.0</ele><time>2026-04-29T08:23:08.088Z</time></trkpt><trkpt lat="36.362285" lon="-2.3160382"><ele>0.0</ele><time>2026-04-29T08:23:09.087Z</time></trkpt><trkpt lat="36.3622951" lon="-2.3159275"><ele>0.0</ele><time>2026-04-29T08:23:10.088Z</time></trkpt><trkpt lat="36.3622996" lon="-2.3158182"><ele>0.0</ele><time>2026-04-29T08:23:11.087Z</time></trkpt><trkpt lat="36.3623009" lon="-2.315707"><ele>0.0</ele><time>2026-04-29T08:23:12.087Z</time></trkpt><trkpt lat="36.3623114" lon="-2.3155971"><ele>0.0</ele><time>2026-04-29T08:23:13.088Z</time></trkpt><trkpt lat="36.3623331" lon="-2.3154884"><ele>0.0</ele><time>2026-04-29T08:23:14.087Z</time></trkpt><trkpt lat="36.3623429" lon="-2.315384"><ele>0.0</ele><time>2026-04-29T08:23:15.087Z</time></trkpt><trkpt lat="36.362352" lon="-2.3152781"><ele>0.0</ele><time>2026-04-29T08:23:16.088Z</time></trkpt><trkpt lat="36.3623589" lon="-2.3151701"><ele>0.0</ele><time>2026-04-29T08:23:17.087Z</time></trkpt><trkpt lat="36.3623682" lon="-2.3150621"><ele>0.0</ele><time>2026-04-29T08:23:18.088Z</time></trkpt><trkpt lat="36.362382" lon="-2.314952"><ele>0.0</ele><time>2026-04-29T08:23:19.087Z</time></trkpt><trkpt lat="36.3623961" lon="-2.3148465"><ele>0.0</ele><time>2026-04-29T08:23:20.088Z</time></trkpt><trkpt lat="36.3624026" lon="-2.3147416"><ele>0.0</ele><time>2026-04-29T08:23:21.087Z</time></trkpt><trkpt lat="36.3624079" lon="-2.314638"><ele>0.0</ele><time>2026-04-29T08:23:22.087Z</time></trkpt><trkpt lat="36.3624331" lon="-2.3144175"><ele>0.0</ele><time>2026-04-29T08:23:24.087Z</time></trkpt><trkpt lat="36.3624483" lon="-2.3143068"><ele>0.0</ele><time>2026-04-29T08:23:25.088Z</time></trkpt><trkpt lat="36.3624546" lon="-2.3141957"><ele>0.0</ele><time>2026-04-29T08:23:26.087Z</time></trkpt><trkpt lat="36.3624565" lon="-2.3140827"><ele>0.0</ele><time>2026-04-29T08:23:27.087Z</time></trkpt><trkpt lat="36.3624507" lon="-2.3139689"><ele>0.0</ele><time>2026-04-29T08:23:28.088Z</time></trkpt><trkpt lat="36.362452" lon="-2.3138635"><ele>0.0</ele><time>2026-04-29T08:23:29.088Z</time></trkpt><trkpt lat="36.3624537" lon="-2.3137584"><ele>0.0</ele><time>2026-04-29T08:23:30.087Z</time></trkpt><trkpt lat="36.3624664" lon="-2.3136494"><ele>0.0</ele><time>2026-04-29T08:23:31.087Z</time></trkpt><trkpt lat="36.3624762" lon="-2.3135362"><ele>0.0</ele><time>2026-04-29T08:23:32.087Z</time></trkpt><trkpt lat="36.3624894" lon="-2.313425"><ele>0.0</ele><time>2026-04-29T08:23:33.088Z</time></trkpt><trkpt lat="36.3625015" lon="-2.3133167"><ele>0.0</ele><time>2026-04-29T08:23:34.087Z</time></trkpt><trkpt lat="36.3625093" lon="-2.3132057"><ele>0.0</ele><time>2026-04-29T08:23:35.088Z</time></trkpt><trkpt lat="36.3625257" lon="-2.3130931"><ele>0.0</ele><time>2026-04-29T08:23:36.088Z</time></trkpt><trkpt lat="36.3625373" lon="-2.3129779"><ele>0.0</ele><time>2026-04-29T08:23:37.087Z</time></trkpt><trkpt lat="36.3625568" lon="-2.3128655"><ele>0.0</ele><time>2026-04-29T08:23:38.087Z</time></trkpt><trkpt lat="36.3625598" lon="-2.312756"><ele>0.0</ele><time>2026-04-29T08:23:39.087Z</time></trkpt><trkpt lat="36.3625668" lon="-2.3126448"><ele>0.0</ele><time>2026-04-29T08:23:40.087Z</time></trkpt><trkpt lat="36.3625773" lon="-2.3125322"><ele>0.0</ele><time>2026-04-29T08:23:41.087Z</time></trkpt><trkpt lat="36.3625905" lon="-2.3124221"><ele>0.0</ele><time>2026-04-29T08:23:42.087Z</time></trkpt><trkpt lat="36.3626027" lon="-2.312312"><ele>0.0</ele><time>2026-04-29T08:23:43.088Z</time></trkpt><trkpt lat="36.3626378" lon="-2.312083"><ele>0.0</ele><time>2026-04-29T08:23:45.087Z</time></trkpt><trkpt lat="36.3626431" lon="-2.3119736"><ele>0.0</ele><time>2026-04-29T08:23:46.087Z</time></trkpt><trkpt lat="36.3626449" lon="-2.3118636"><ele>0.0</ele><time>2026-04-29T08:23:47.088Z</time></trkpt><trkpt lat="36.3626211" lon="-2.3117619"><ele>0.0</ele><time>2026-04-29T08:23:48.087Z</time></trkpt><trkpt lat="36.3626266" lon="-2.3116564"><ele>0.0</ele><time>2026-04-29T08:23:49.087Z</time></trkpt><trkpt lat="36.362602" lon="-2.3115553"><ele>0.0</ele><time>2026-04-29T08:23:50.088Z</time></trkpt><trkpt lat="36.3626036" lon="-2.311454"><ele>0.0</ele><time>2026-04-29T08:23:51.087Z</time></trkpt><trkpt lat="36.3626166" lon="-2.3113437"><ele>0.0</ele><time>2026-04-29T08:23:52.087Z</time></trkpt><trkpt lat="36.362622" lon="-2.3112351"><ele>0.0</ele><time>2026-04-29T08:23:53.087Z</time></trkpt><trkpt lat="36.3626283" lon="-2.311128"><ele>0.0</ele><time>2026-04-29T08:23:54.088Z</time></trkpt><trkpt lat="36.3626363" lon="-2.3110214"><ele>0.0</ele><time>2026-04-29T08:23:55.088Z</time></trkpt><trkpt lat="36.3626443" lon="-2.3109151"><ele>0.0</ele><time>2026-04-29T08:23:56.087Z</time></trkpt><trkpt lat="36.3626294" lon="-2.3108081"><ele>0.0</ele><time>2026-04-29T08:23:57.087Z</time></trkpt><trkpt lat="36.3626621" lon="-2.3106974"><ele>0.0</ele><time>2026-04-29T08:23:58.087Z</time></trkpt><trkpt lat="36.3626621" lon="-2.310588"><ele>0.0</ele><time>2026-04-29T08:23:59.088Z</time></trkpt><trkpt lat="36.362667" lon="-2.3104868"><ele>0.0</ele><time>2026-04-29T08:24:00.088Z</time></trkpt><trkpt lat="36.3626693" lon="-2.3103883"><ele>0.0</ele><time>2026-04-29T08:24:01.088Z</time></trkpt><trkpt lat="36.3626744" lon="-2.3102777"><ele>0.0</ele><time>2026-04-29T08:24:02.088Z</time></trkpt><trkpt lat="36.3626774" lon="-2.3101691"><ele>0.0</ele><time>2026-04-29T08:24:03.088Z</time></trkpt><trkpt lat="36.3626819" lon="-2.3100652"><ele>0.0</ele><time>2026-04-29T08:24:04.088Z</time></trkpt><trkpt lat="36.362705" lon="-2.3098408"><ele>0.0</ele><time>2026-04-29T08:24:06.088Z</time></trkpt><trkpt lat="36.3626908" lon="-2.3097385"><ele>0.0</ele><time>2026-04-29T08:24:07.087Z</time></trkpt><trkpt lat="36.3626989" lon="-2.3096316"><ele>0.0</ele><time>2026-04-29T08:24:08.088Z</time></trkpt><trkpt lat="36.3627056" lon="-2.3095204"><ele>0.0</ele><time>2026-04-29T08:24:09.087Z</time></trkpt><trkpt lat="36.3627153" lon="-2.3094088"><ele>0.0</ele><time>2026-04-29T08:24:10.088Z</time></trkpt><trkpt lat="36.3627273" lon="-2.3092943"><ele>0.0</ele><time>2026-04-29T08:24:11.087Z</time></trkpt><trkpt lat="36.3627457" lon="-2.3091803"><ele>0.0</ele><time>2026-04-29T08:24:12.087Z</time></trkpt><trkpt lat="36.3627546" lon="-2.3090693"><ele>0.0</ele><time>2026-04-29T08:24:13.087Z</time></trkpt><trkpt lat="36.3627624" lon="-2.3089622"><ele>0.0</ele><time>2026-04-29T08:24:14.088Z</time></trkpt><trkpt lat="36.3628073" lon="-2.3088519"><ele>0.0</ele><time>2026-04-29T08:24:15.088Z</time></trkpt><trkpt lat="36.3628258" lon="-2.3087462"><ele>0.0</ele><time>2026-04-29T08:24:16.088Z</time></trkpt><trkpt lat="36.3628425" lon="-2.3086354"><ele>0.0</ele><time>2026-04-29T08:24:17.088Z</time></trkpt><trkpt lat="36.3628477" lon="-2.3085295"><ele>0.0</ele><time>2026-04-29T08:24:18.088Z</time></trkpt><trkpt lat="36.3628449" lon="-2.3084249"><ele>0.0</ele><time>2026-04-29T08:24:19.087Z</time></trkpt><trkpt lat="36.3628504" lon="-2.3083165"><ele>0.0</ele><time>2026-04-29T08:24:20.087Z</time></trkpt><trkpt lat="36.3628519" lon="-2.3082111"><ele>0.0</ele><time>2026-04-29T08:24:21.087Z</time></trkpt><trkpt lat="36.3628616" lon="-2.3081009"><ele>0.0</ele><time>2026-04-29T08:24:22.087Z</time></trkpt><trkpt lat="36.3628659" lon="-2.3079917"><ele>0.0</ele><time>2026-04-29T08:24:23.088Z</time></trkpt><trkpt lat="36.3628877" lon="-2.3078806"><ele>0.0</ele><time>2026-04-29T08:24:24.087Z</time></trkpt><trkpt lat="36.3629007" lon="-2.3077709"><ele>0.0</ele><time>2026-04-29T08:24:25.087Z</time></trkpt><trkpt lat="36.3629137" lon="-2.3075524"><ele>0.0</ele><time>2026-04-29T08:24:27.087Z</time></trkpt><trkpt lat="36.3629288" lon="-2.3074475"><ele>0.0</ele><time>2026-04-29T08:24:28.087Z</time></trkpt><trkpt lat="36.3629188" lon="-2.3073473"><ele>0.0</ele><time>2026-04-29T08:24:29.088Z</time></trkpt><trkpt lat="36.3629098" lon="-2.3072463"><ele>0.0</ele><time>2026-04-29T08:24:30.088Z</time></trkpt><trkpt lat="36.3628998" lon="-2.3071442"><ele>0.0</ele><time>2026-04-29T08:24:31.087Z</time></trkpt><trkpt lat="36.3629138" lon="-2.3070395"><ele>0.0</ele><time>2026-04-29T08:24:32.087Z</time></trkpt><trkpt lat="36.3629259" lon="-2.3069374"><ele>0.0</ele><time>2026-04-29T08:24:33.088Z</time></trkpt><trkpt lat="36.3629235" lon="-2.306836"><ele>0.0</ele><time>2026-04-29T08:24:34.087Z</time></trkpt><trkpt lat="36.3629157" lon="-2.3067298"><ele>0.0</ele><time>2026-04-29T08:24:35.087Z</time></trkpt><trkpt lat="36.3629014" lon="-2.3066198"><ele>0.0</ele><time>2026-04-29T08:24:36.087Z</time></trkpt><trkpt lat="36.3628919" lon="-2.3065097"><ele>0.0</ele><time>2026-04-29T08:24:37.088Z</time></trkpt><trkpt lat="36.3628933" lon="-2.3063942"><ele>0.0</ele><time>2026-04-29T08:24:38.088Z</time></trkpt><trkpt lat="36.3629377" lon="-2.3062838"><ele>0.0</ele><time>2026-04-29T08:24:39.088Z</time></trkpt><trkpt lat="36.3629521" lon="-2.3061765"><ele>0.0</ele><time>2026-04-29T08:24:40.088Z</time></trkpt><trkpt lat="36.3630065" lon="-2.3060699"><ele>0.0</ele><time>2026-04-29T08:24:41.087Z</time></trkpt><trkpt lat="36.363011" lon="-2.305966"><ele>0.0</ele><time>2026-04-29T08:24:42.088Z</time></trkpt><trkpt lat="36.3630139" lon="-2.3058597"><ele>0.0</ele><time>2026-04-29T08:24:43.088Z</time></trkpt><trkpt lat="36.3630009" lon="-2.3057559"><ele>0.0</ele><time>2026-04-29T08:24:44.087Z</time></trkpt><trkpt lat="36.3630014" lon="-2.3056512"><ele>0.0</ele><time>2026-04-29T08:24:45.088Z</time></trkpt><trkpt lat="36.363043" lon="-2.3055448"><ele>0.0</ele><time>2026-04-29T08:24:46.087Z</time></trkpt><trkpt lat="36.3630767" lon="-2.3053301"><ele>0.0</ele><time>2026-04-29T08:24:48.087Z</time></trkpt><trkpt lat="36.3630778" lon="-2.3052202"><ele>0.0</ele><time>2026-04-29T08:24:49.087Z</time></trkpt><trkpt lat="36.3630704" lon="-2.3051144"><ele>0.0</ele><time>2026-04-29T08:24:50.087Z</time></trkpt><trkpt lat="36.3630613" lon="-2.3050066"><ele>0.0</ele><time>2026-04-29T08:24:51.087Z</time></trkpt><trkpt lat="36.363063" lon="-2.3048939"><ele>0.0</ele><time>2026-04-29T08:24:52.087Z</time></trkpt><trkpt lat="36.3630675" lon="-2.3047865"><ele>0.0</ele><time>2026-04-29T08:24:53.088Z</time></trkpt><trkpt lat="36.3631013" lon="-2.3046771"><ele>0.0</ele><time>2026-04-29T08:24:54.088Z</time></trkpt><trkpt lat="36.3630939" lon="-2.3045658"><ele>0.0</ele><time>2026-04-29T08:24:55.088Z</time></trkpt><trkpt lat="36.3630832" lon="-2.3044513"><ele>0.0</ele><time>2026-04-29T08:24:56.088Z</time></trkpt><trkpt lat="36.3630651" lon="-2.3043401"><ele>0.0</ele><time>2026-04-29T08:24:57.087Z</time></trkpt><trkpt lat="36.3630463" lon="-2.3042364"><ele>0.0</ele><time>2026-04-29T08:24:58.087Z</time></trkpt><trkpt lat="36.3630501" lon="-2.304129"><ele>0.0</ele><time>2026-04-29T08:24:59.087Z</time></trkpt><trkpt lat="36.3630209" lon="-2.304023"><ele>0.0</ele><time>2026-04-29T08:25:00.087Z</time></trkpt><trkpt lat="36.3630185" lon="-2.3039157"><ele>0.0</ele><time>2026-04-29T08:25:01.087Z</time></trkpt><trkpt lat="36.3629801" lon="-2.3038098"><ele>0.0</ele><time>2026-04-29T08:25:02.088Z</time></trkpt><trkpt lat="36.3629724" lon="-2.3037036"><ele>0.0</ele><time>2026-04-29T08:25:03.088Z</time></trkpt><trkpt lat="36.3629644" lon="-2.3035878"><ele>0.0</ele><time>2026-04-29T08:25:04.087Z</time></trkpt><trkpt lat="36.3629635" lon="-2.3034766"><ele>0.0</ele><time>2026-04-29T08:25:05.088Z</time></trkpt><trkpt lat="36.362965" lon="-2.3033728"><ele>0.0</ele><time>2026-04-29T08:25:06.087Z</time></trkpt><trkpt lat="36.362978" lon="-2.3032616"><ele>0.0</ele><time>2026-04-29T08:25:07.087Z</time></trkpt><trkpt lat="36.3629919" lon="-2.3030393"><ele>0.0</ele><time>2026-04-29T08:25:09.088Z</time></trkpt><trkpt lat="36.3629995" lon="-2.3029268"><ele>0.0</ele><time>2026-04-29T08:25:10.087Z</time></trkpt><trkpt lat="36.3630046" lon="-2.3028136"><ele>0.0</ele><time>2026-04-29T08:25:11.087Z</time></trkpt><trkpt lat="36.3630095" lon="-2.3027036"><ele>0.0</ele><time>2026-04-29T08:25:12.087Z</time></trkpt><trkpt lat="36.3630134" lon="-2.3025964"><ele>0.0</ele><time>2026-04-29T08:25:13.087Z</time></trkpt><trkpt lat="36.3630242" lon="-2.302487"><ele>0.0</ele><time>2026-04-29T08:25:14.087Z</time></trkpt><trkpt lat="36.3630317" lon="-2.3023764"><ele>0.0</ele><time>2026-04-29T08:25:15.087Z</time></trkpt><trkpt lat="36.3630822" lon="-2.3022627"><ele>0.0</ele><time>2026-04-29T08:25:16.087Z</time></trkpt><trkpt lat="36.3631045" lon="-2.3021568"><ele>0.0</ele><time>2026-04-29T08:25:17.087Z</time></trkpt><trkpt lat="36.3631146" lon="-2.3020495"><ele>0.0</ele><time>2026-04-29T08:25:18.088Z</time></trkpt><trkpt lat="36.3631228" lon="-2.3019464"><ele>0.0</ele><time>2026-04-29T08:25:19.088Z</time></trkpt><trkpt lat="36.3631247" lon="-2.3018374"><ele>0.0</ele><time>2026-04-29T08:25:20.088Z</time></trkpt><trkpt lat="36.3631319" lon="-2.3017299"><ele>0.0</ele><time>2026-04-29T08:25:21.088Z</time></trkpt><trkpt lat="36.3631424" lon="-2.301622"><ele>0.0</ele><time>2026-04-29T08:25:22.087Z</time></trkpt><trkpt lat="36.3631429" lon="-2.3015169"><ele>0.0</ele><time>2026-04-29T08:25:23.087Z</time></trkpt><trkpt lat="36.3631227" lon="-2.3014111"><ele>0.0</ele><time>2026-04-29T08:25:24.087Z</time></trkpt><trkpt lat="36.3631204" lon="-2.3013006"><ele>0.0</ele><time>2026-04-29T08:25:25.087Z</time></trkpt><trkpt lat="36.3631486" lon="-2.3011886"><ele>0.0</ele><time>2026-04-29T08:25:26.087Z</time></trkpt><trkpt lat="36.3631547" lon="-2.3010838"><ele>0.0</ele><time>2026-04-29T08:25:27.088Z</time></trkpt><trkpt lat="36.3631465" lon="-2.3009781"><ele>0.0</ele><time>2026-04-29T08:25:28.087Z</time></trkpt><trkpt lat="36.363146" lon="-2.3007572"><ele>0.0</ele><time>2026-04-29T08:25:30.087Z</time></trkpt><trkpt lat="36.3631339" lon="-2.3006507"><ele>0.0</ele><time>2026-04-29T08:25:31.087Z</time></trkpt><trkpt lat="36.3631219" lon="-2.3005505"><ele>0.0</ele><time>2026-04-29T08:25:32.087Z</time></trkpt><trkpt lat="36.3631278" lon="-2.3004419"><ele>0.0</ele><time>2026-04-29T08:25:33.087Z</time></trkpt><trkpt lat="36.363132" lon="-2.3003345"><ele>0.0</ele><time>2026-04-29T08:25:34.087Z</time></trkpt><trkpt lat="36.3631322" lon="-2.300227"><ele>0.0</ele><time>2026-04-29T08:25:35.087Z</time></trkpt><trkpt lat="36.3631634" lon="-2.3001054"><ele>0.0</ele><time>2026-04-29T08:25:36.088Z</time></trkpt><trkpt lat="36.3631744" lon="-2.2999918"><ele>0.0</ele><time>2026-04-29T08:25:37.087Z</time></trkpt><trkpt lat="36.3631683" lon="-2.2998864"><ele>0.0</ele><time>2026-04-29T08:25:38.088Z</time></trkpt><trkpt lat="36.3631586" lon="-2.2997799"><ele>0.0</ele><time>2026-04-29T08:25:39.087Z</time></trkpt><trkpt lat="36.3631564" lon="-2.2996694"><ele>0.0</ele><time>2026-04-29T08:25:40.088Z</time></trkpt><trkpt lat="36.3631607" lon="-2.2995602"><ele>0.0</ele><time>2026-04-29T08:25:41.087Z</time></trkpt><trkpt lat="36.3631731" lon="-2.2994532"><ele>0.0</ele><time>2026-04-29T08:25:42.088Z</time></trkpt><trkpt lat="36.3631845" lon="-2.2993468"><ele>0.0</ele><time>2026-04-29T08:25:43.088Z</time></trkpt><trkpt lat="36.3631788" lon="-2.2992443"><ele>0.0</ele><time>2026-04-29T08:25:44.088Z</time></trkpt><trkpt lat="36.3632041" lon="-2.2991324"><ele>0.0</ele><time>2026-04-29T08:25:45.088Z</time></trkpt><trkpt lat="36.3631994" lon="-2.2990246"><ele>0.0</ele><time>2026-04-29T08:25:46.088Z</time></trkpt><trkpt lat="36.36319" lon="-2.2989151"><ele>0.0</ele><time>2026-04-29T08:25:47.087Z</time></trkpt><trkpt lat="36.3631874" lon="-2.2988079"><ele>0.0</ele><time>2026-04-29T08:25:48.087Z</time></trkpt><trkpt lat="36.3632209" lon="-2.2986928"><ele>0.0</ele><time>2026-04-29T08:25:49.087Z</time></trkpt><trkpt lat="36.3632554" lon="-2.2984731"><ele>0.0</ele><time>2026-04-29T08:25:51.087Z</time></trkpt><trkpt lat="36.3632789" lon="-2.2983605"><ele>0.0</ele><time>2026-04-29T08:25:52.087Z</time></trkpt><trkpt lat="36.3632876" lon="-2.298254"><ele>0.0</ele><time>2026-04-29T08:25:53.088Z</time></trkpt><trkpt lat="36.3632823" lon="-2.2981495"><ele>0.0</ele><time>2026-04-29T08:25:54.088Z</time></trkpt><trkpt lat="36.3632839" lon="-2.2980414"><ele>0.0</ele><time>2026-04-29T08:25:55.088Z</time></trkpt><trkpt lat="36.3632888" lon="-2.2979317"><ele>0.0</ele><time>2026-04-29T08:25:56.087Z</time></trkpt><trkpt lat="36.3632924" lon="-2.2978263"><ele>0.0</ele><time>2026-04-29T08:25:57.088Z</time></trkpt><trkpt lat="36.3633466" lon="-2.2977098"><ele>0.0</ele><time>2026-04-29T08:25:58.088Z</time></trkpt><trkpt lat="36.3633626" lon="-2.2976002"><ele>0.0</ele><time>2026-04-29T08:25:59.087Z</time></trkpt><trkpt lat="36.3633729" lon="-2.2974916"><ele>0.0</ele><time>2026-04-29T08:26:00.088Z</time></trkpt><trkpt lat="36.3634159" lon="-2.2973821"><ele>0.0</ele><time>2026-04-29T08:26:01.087Z</time></trkpt><trkpt lat="36.3634194" lon="-2.2972798"><ele>0.0</ele><time>2026-04-29T08:26:02.088Z</time></trkpt><trkpt lat="36.3634249" lon="-2.2971737"><ele>0.0</ele><time>2026-04-29T08:26:03.087Z</time></trkpt><trkpt lat="36.3634329" lon="-2.2970668"><ele>0.0</ele><time>2026-04-29T08:26:04.088Z</time></trkpt><trkpt lat="36.3634403" lon="-2.2969584"><ele>0.0</ele><time>2026-04-29T08:26:05.088Z</time></trkpt><trkpt lat="36.3634449" lon="-2.2968527"><ele>0.0</ele><time>2026-04-29T08:26:06.087Z</time></trkpt><trkpt lat="36.3634493" lon="-2.2967495"><ele>0.0</ele><time>2026-04-29T08:26:07.087Z</time></trkpt><trkpt lat="36.3634508" lon="-2.2966492"><ele>0.0</ele><time>2026-04-29T08:26:08.087Z</time></trkpt><trkpt lat="36.3634526" lon="-2.2965435"><ele>0.0</ele><time>2026-04-29T08:26:09.088Z</time></trkpt><trkpt lat="36.3634596" lon="-2.2964378"><ele>0.0</ele><time>2026-04-29T08:26:10.087Z</time></trkpt><trkpt lat="36.3634648" lon="-2.2962238"><ele>0.0</ele><time>2026-04-29T08:26:12.088Z</time></trkpt><trkpt lat="36.3634673" lon="-2.2961211"><ele>0.0</ele><time>2026-04-29T08:26:13.088Z</time></trkpt><trkpt lat="36.3634943" lon="-2.2960166"><ele>0.0</ele><time>2026-04-29T08:26:14.087Z</time></trkpt><trkpt lat="36.3635033" lon="-2.2959112"><ele>0.0</ele><time>2026-04-29T08:26:15.088Z</time></trkpt><trkpt lat="36.3635481" lon="-2.2957966"><ele>0.0</ele><time>2026-04-29T08:26:16.087Z</time></trkpt><trkpt lat="36.3635684" lon="-2.2956865"><ele>0.0</ele><time>2026-04-29T08:26:17.087Z</time></trkpt><trkpt lat="36.3635718" lon="-2.2955755"><ele>0.0</ele><time>2026-04-29T08:26:18.087Z</time></trkpt><trkpt lat="36.3635648" lon="-2.2954597"><ele>0.0</ele><time>2026-04-29T08:26:19.087Z</time></trkpt><trkpt lat="36.363566" lon="-2.2953515"><ele>0.0</ele><time>2026-04-29T08:26:20.087Z</time></trkpt><trkpt lat="36.3635738" lon="-2.2952434"><ele>0.0</ele><time>2026-04-29T08:26:21.087Z</time></trkpt><trkpt lat="36.3635908" lon="-2.295145"><ele>0.0</ele><time>2026-04-29T08:26:22.087Z</time></trkpt><trkpt lat="36.3636049" lon="-2.2950397"><ele>0.0</ele><time>2026-04-29T08:26:23.087Z</time></trkpt><trkpt lat="36.3636137" lon="-2.2949258"><ele>0.0</ele><time>2026-04-29T08:26:24.087Z</time></trkpt><trkpt lat="36.3636164" lon="-2.2948153"><ele>0.0</ele><time>2026-04-29T08:26:25.087Z</time></trkpt><trkpt lat="36.3636217" lon="-2.2947024"><ele>0.0</ele><time>2026-04-29T08:26:26.087Z</time></trkpt><trkpt lat="36.3636169" lon="-2.2945817"><ele>0.0</ele><time>2026-04-29T08:26:27.087Z</time></trkpt><trkpt lat="36.3636101" lon="-2.294476"><ele>0.0</ele><time>2026-04-29T08:26:28.088Z</time></trkpt><trkpt lat="36.3636001" lon="-2.2943701"><ele>0.0</ele><time>2026-04-29T08:26:29.088Z</time></trkpt><trkpt lat="36.363597" lon="-2.2942662"><ele>0.0</ele><time>2026-04-29T08:26:30.087Z</time></trkpt><trkpt lat="36.3636026" lon="-2.2941573"><ele>0.0</ele><time>2026-04-29T08:26:31.088Z</time></trkpt><trkpt lat="36.3636232" lon="-2.2939403"><ele>0.0</ele><time>2026-04-29T08:26:33.087Z</time></trkpt><trkpt lat="36.3636332" lon="-2.2938301"><ele>0.0</ele><time>2026-04-29T08:26:34.088Z</time></trkpt><trkpt lat="36.3636345" lon="-2.2937197"><ele>0.0</ele><time>2026-04-29T08:26:35.087Z</time></trkpt><trkpt lat="36.3636385" lon="-2.2936155"><ele>0.0</ele><time>2026-04-29T08:26:36.088Z</time></trkpt><trkpt lat="36.3636461" lon="-2.2935171"><ele>0.0</ele><time>2026-04-29T08:26:37.087Z</time></trkpt><trkpt lat="36.3636489" lon="-2.2934117"><ele>0.0</ele><time>2026-04-29T08:26:38.087Z</time></trkpt><trkpt lat="36.3636963" lon="-2.2932992"><ele>0.0</ele><time>2026-04-29T08:26:39.088Z</time></trkpt><trkpt lat="36.3637126" lon="-2.2931901"><ele>0.0</ele><time>2026-04-29T08:26:40.087Z</time></trkpt><trkpt lat="36.3637546" lon="-2.2930685"><ele>0.0</ele><time>2026-04-29T08:26:41.088Z</time></trkpt><trkpt lat="36.3637686" lon="-2.2929592"><ele>0.0</ele><time>2026-04-29T08:26:42.087Z</time></trkpt><trkpt lat="36.3637867" lon="-2.292856"><ele>0.0</ele><time>2026-04-29T08:26:43.087Z</time></trkpt><trkpt lat="36.3637921" lon="-2.2927515"><ele>0.0</ele><time>2026-04-29T08:26:44.087Z</time></trkpt><trkpt lat="36.3637856" lon="-2.2926449"><ele>0.0</ele><time>2026-04-29T08:26:45.087Z</time></trkpt><trkpt lat="36.3637752" lon="-2.2925435"><ele>0.0</ele><time>2026-04-29T08:26:46.087Z</time></trkpt><trkpt lat="36.3637707" lon="-2.2924339"><ele>0.0</ele><time>2026-04-29T08:26:47.087Z</time></trkpt><trkpt lat="36.3637557" lon="-2.2923322"><ele>0.0</ele><time>2026-04-29T08:26:48.087Z</time></trkpt><trkpt lat="36.3637641" lon="-2.2922281"><ele>0.0</ele><time>2026-04-29T08:26:49.087Z</time></trkpt><trkpt lat="36.3637651" lon="-2.2921263"><ele>0.0</ele><time>2026-04-29T08:26:50.087Z</time></trkpt><trkpt lat="36.3637736" lon="-2.292022"><ele>0.0</ele><time>2026-04-29T08:26:51.087Z</time></trkpt><trkpt lat="36.3637865" lon="-2.2919152"><ele>0.0</ele><time>2026-04-29T08:26:52.088Z</time></trkpt><trkpt lat="36.3637948" lon="-2.2916935"><ele>0.0</ele><time>2026-04-29T08:26:54.087Z</time></trkpt><trkpt lat="36.3638048" lon="-2.2915821"><ele>0.0</ele><time>2026-04-29T08:26:55.088Z</time></trkpt><trkpt lat="36.3638122" lon="-2.2914751"><ele>0.0</ele><time>2026-04-29T08:26:56.088Z</time></trkpt><trkpt lat="36.3638118" lon="-2.2913698"><ele>0.0</ele><time>2026-04-29T08:26:57.088Z</time></trkpt><trkpt lat="36.363808" lon="-2.2912669"><ele>0.0</ele><time>2026-04-29T08:26:58.087Z</time></trkpt><trkpt lat="36.3638008" lon="-2.2911634"><ele>0.0</ele><time>2026-04-29T08:26:59.088Z</time></trkpt><trkpt lat="36.3638067" lon="-2.2910551"><ele>0.0</ele><time>2026-04-29T08:27:00.087Z</time></trkpt><trkpt lat="36.3638007" lon="-2.2909439"><ele>0.0</ele><time>2026-04-29T08:27:01.087Z</time></trkpt><trkpt lat="36.3638015" lon="-2.290835"><ele>0.0</ele><time>2026-04-29T08:27:02.088Z</time></trkpt><trkpt lat="36.363804" lon="-2.2907253"><ele>0.0</ele><time>2026-04-29T08:27:03.087Z</time></trkpt><trkpt lat="36.3638074" lon="-2.2906208"><ele>0.0</ele><time>2026-04-29T08:27:04.087Z</time></trkpt><trkpt lat="36.3638075" lon="-2.2905175"><ele>0.0</ele><time>2026-04-29T08:27:05.088Z</time></trkpt><trkpt lat="36.3638026" lon="-2.2904147"><ele>0.0</ele><time>2026-04-29T08:27:06.087Z</time></trkpt><trkpt lat="36.3638611" lon="-2.2903114"><ele>0.0</ele><time>2026-04-29T08:27:07.088Z</time></trkpt><trkpt lat="36.3638961" lon="-2.2902052"><ele>0.0</ele><time>2026-04-29T08:27:08.087Z</time></trkpt><trkpt lat="36.363899" lon="-2.2900999"><ele>0.0</ele><time>2026-04-29T08:27:09.087Z</time></trkpt><trkpt lat="36.3639033" lon="-2.2899922"><ele>0.0</ele><time>2026-04-29T08:27:10.088Z</time></trkpt><trkpt lat="36.363904" lon="-2.2898821"><ele>0.0</ele><time>2026-04-29T08:27:11.088Z</time></trkpt><trkpt lat="36.3639067" lon="-2.2897706"><ele>0.0</ele><time>2026-04-29T08:27:12.087Z</time></trkpt><trkpt lat="36.3638942" lon="-2.28966"><ele>0.0</ele><time>2026-04-29T08:27:13.087Z</time></trkpt><trkpt lat="36.3639166" lon="-2.2894283"><ele>0.0</ele><time>2026-04-29T08:27:15.087Z</time></trkpt><trkpt lat="36.3639509" lon="-2.2893054"><ele>0.0</ele><time>2026-04-29T08:27:16.086Z</time></trkpt><trkpt lat="36.3639697" lon="-2.2891935"><ele>0.0</ele><time>2026-04-29T08:27:17.087Z</time></trkpt><trkpt lat="36.3639852" lon="-2.2890869"><ele>0.0</ele><time>2026-04-29T08:27:18.087Z</time></trkpt><trkpt lat="36.3639918" lon="-2.2889787"><ele>0.0</ele><time>2026-04-29T08:27:19.087Z</time></trkpt><trkpt lat="36.3640041" lon="-2.2888703"><ele>0.0</ele><time>2026-04-29T08:27:20.086Z</time></trkpt><trkpt lat="36.3640145" lon="-2.288766"><ele>0.0</ele><time>2026-04-29T08:27:21.086Z</time></trkpt><trkpt lat="36.3640131" lon="-2.2886599"><ele>0.0</ele><time>2026-04-29T08:27:22.087Z</time></trkpt><trkpt lat="36.3640097" lon="-2.2885529"><ele>0.0</ele><time>2026-04-29T08:27:23.087Z</time></trkpt><trkpt lat="36.3640069" lon="-2.2884476"><ele>0.0</ele><time>2026-04-29T08:27:24.087Z</time></trkpt><trkpt lat="36.3640419" lon="-2.288337"><ele>0.0</ele><time>2026-04-29T08:27:25.086Z</time></trkpt><trkpt lat="36.3640594" lon="-2.2882294"><ele>0.0</ele><time>2026-04-29T08:27:26.087Z</time></trkpt><trkpt lat="36.3640748" lon="-2.2881215"><ele>0.0</ele><time>2026-04-29T08:27:27.086Z</time></trkpt><trkpt lat="36.3641017" lon="-2.2880048"><ele>0.0</ele><time>2026-04-29T08:27:28.086Z</time></trkpt><trkpt lat="36.3641171" lon="-2.2878901"><ele>0.0</ele><time>2026-04-29T08:27:29.086Z</time></trkpt><trkpt lat="36.3641317" lon="-2.287774"><ele>0.0</ele><time>2026-04-29T08:27:30.086Z</time></trkpt><trkpt lat="36.3641374" lon="-2.2876648"><ele>0.0</ele><time>2026-04-29T08:27:31.086Z</time></trkpt><trkpt lat="36.3641335" lon="-2.2875578"><ele>0.0</ele><time>2026-04-29T08:27:32.087Z</time></trkpt><trkpt lat="36.3641565" lon="-2.2874498"><ele>0.0</ele><time>2026-04-29T08:27:33.087Z</time></trkpt><trkpt lat="36.3641957" lon="-2.2873386"><ele>0.0</ele><time>2026-04-29T08:27:34.086Z</time></trkpt><trkpt lat="36.3642233" lon="-2.2871217"><ele>0.0</ele><time>2026-04-29T08:27:36.087Z</time></trkpt><trkpt lat="36.3642285" lon="-2.2870163"><ele>0.0</ele><time>2026-04-29T08:27:37.086Z</time></trkpt><trkpt lat="36.3642309" lon="-2.28691"><ele>0.0</ele><time>2026-04-29T08:27:38.087Z</time></trkpt><trkpt lat="36.3642187" lon="-2.2868045"><ele>0.0</ele><time>2026-04-29T08:27:39.086Z</time></trkpt><trkpt lat="36.3642169" lon="-2.2866981"><ele>0.0</ele><time>2026-04-29T08:27:40.087Z</time></trkpt><trkpt lat="36.3642169" lon="-2.28659"><ele>0.0</ele><time>2026-04-29T08:27:41.087Z</time></trkpt><trkpt lat="36.3642214" lon="-2.2864816"><ele>0.0</ele><time>2026-04-29T08:27:42.086Z</time></trkpt><trkpt lat="36.3642094" lon="-2.286376"><ele>0.0</ele><time>2026-04-29T08:27:43.086Z</time></trkpt><trkpt lat="36.3642005" lon="-2.2862723"><ele>0.0</ele><time>2026-04-29T08:27:44.087Z</time></trkpt><trkpt lat="36.3641944" lon="-2.2861677"><ele>0.0</ele><time>2026-04-29T08:27:45.087Z</time></trkpt><trkpt lat="36.3641923" lon="-2.2860614"><ele>0.0</ele><time>2026-04-29T08:27:46.086Z</time></trkpt><trkpt lat="36.3641804" lon="-2.2859548"><ele>0.0</ele><time>2026-04-29T08:27:47.087Z</time></trkpt><trkpt lat="36.3641726" lon="-2.2858498"><ele>0.0</ele><time>2026-04-29T08:27:48.087Z</time></trkpt><trkpt lat="36.3641568" lon="-2.2857491"><ele>0.0</ele><time>2026-04-29T08:27:49.087Z</time></trkpt><trkpt lat="36.364157" lon="-2.2856421"><ele>0.0</ele><time>2026-04-29T08:27:50.086Z</time></trkpt><trkpt lat="36.3641549" lon="-2.2855304"><ele>0.0</ele><time>2026-04-29T08:27:51.086Z</time></trkpt><trkpt lat="36.3641557" lon="-2.285424"><ele>0.0</ele><time>2026-04-29T08:27:52.086Z</time></trkpt><trkpt lat="36.3641615" lon="-2.2853167"><ele>0.0</ele><time>2026-04-29T08:27:53.087Z</time></trkpt><trkpt lat="36.3641699" lon="-2.2852064"><ele>0.0</ele><time>2026-04-29T08:27:54.086Z</time></trkpt><trkpt lat="36.3641683" lon="-2.285098"><ele>0.0</ele><time>2026-04-29T08:27:55.087Z</time></trkpt><trkpt lat="36.3641437" lon="-2.2848779"><ele>0.0</ele><time>2026-04-29T08:27:57.087Z</time></trkpt><trkpt lat="36.3641182" lon="-2.2847713"><ele>0.0</ele><time>2026-04-29T08:27:58.087Z</time></trkpt><trkpt lat="36.364154" lon="-2.2846562"><ele>0.0</ele><time>2026-04-29T08:27:59.087Z</time></trkpt><trkpt lat="36.3641646" lon="-2.284544"><ele>0.0</ele><time>2026-04-29T08:28:00.087Z</time></trkpt><trkpt lat="36.3641679" lon="-2.284438"><ele>0.0</ele><time>2026-04-29T08:28:01.087Z</time></trkpt><trkpt lat="36.3641695" lon="-2.2843347"><ele>0.0</ele><time>2026-04-29T08:28:02.086Z</time></trkpt><trkpt lat="36.3641744" lon="-2.28423"><ele>0.0</ele><time>2026-04-29T08:28:03.087Z</time></trkpt><trkpt lat="36.3642263" lon="-2.2841136"><ele>0.0</ele><time>2026-04-29T08:28:04.087Z</time></trkpt><trkpt lat="36.3642801" lon="-2.2839956"><ele>0.0</ele><time>2026-04-29T08:28:05.086Z</time></trkpt><trkpt lat="36.3642937" lon="-2.283887"><ele>0.0</ele><time>2026-04-29T08:28:06.086Z</time></trkpt><trkpt lat="36.3643037" lon="-2.2837771"><ele>0.0</ele><time>2026-04-29T08:28:07.086Z</time></trkpt><trkpt lat="36.3643317" lon="-2.2836599"><ele>0.0</ele><time>2026-04-29T08:28:08.086Z</time></trkpt><trkpt lat="36.3643248" lon="-2.2835531"><ele>0.0</ele><time>2026-04-29T08:28:09.086Z</time></trkpt><trkpt lat="36.3643187" lon="-2.2834507"><ele>0.0</ele><time>2026-04-29T08:28:10.086Z</time></trkpt><trkpt lat="36.364308" lon="-2.2833449"><ele>0.0</ele><time>2026-04-29T08:28:11.086Z</time></trkpt><trkpt lat="36.3643004" lon="-2.2832309"><ele>0.0</ele><time>2026-04-29T08:28:12.086Z</time></trkpt><trkpt lat="36.3643225" lon="-2.2831227"><ele>0.0</ele><time>2026-04-29T08:28:13.086Z</time></trkpt><trkpt lat="36.3643255" lon="-2.2830141"><ele>0.0</ele><time>2026-04-29T08:28:14.087Z</time></trkpt><trkpt lat="36.3643424" lon="-2.2829051"><ele>0.0</ele><time>2026-04-29T08:28:15.087Z</time></trkpt><trkpt lat="36.3643489" lon="-2.2828"><ele>0.0</ele><time>2026-04-29T08:28:16.087Z</time></trkpt><trkpt lat="36.364358" lon="-2.28259"><ele>0.0</ele><time>2026-04-29T08:28:18.087Z</time></trkpt><trkpt lat="36.36436" lon="-2.2824792"><ele>0.0</ele><time>2026-04-29T08:28:19.086Z</time></trkpt><trkpt lat="36.3643625" lon="-2.2823701"><ele>0.0</ele><time>2026-04-29T08:28:20.086Z</time></trkpt><trkpt lat="36.3643864" lon="-2.2822602"><ele>0.0</ele><time>2026-04-29T08:28:21.087Z</time></trkpt><trkpt lat="36.3643946" lon="-2.2821545"><ele>0.0</ele><time>2026-04-29T08:28:22.086Z</time></trkpt><trkpt lat="36.3644099" lon="-2.2820426"><ele>0.0</ele><time>2026-04-29T08:28:23.087Z</time></trkpt><trkpt lat="36.3644199" lon="-2.2819286"><ele>0.0</ele><time>2026-04-29T08:28:24.086Z</time></trkpt><trkpt lat="36.364424" lon="-2.2818197"><ele>0.0</ele><time>2026-04-29T08:28:25.087Z</time></trkpt><trkpt lat="36.3644569" lon="-2.2817113"><ele>0.0</ele><time>2026-04-29T08:28:26.087Z</time></trkpt><trkpt lat="36.3644664" lon="-2.2816029"><ele>0.0</ele><time>2026-04-29T08:28:27.086Z</time></trkpt><trkpt lat="36.3644636" lon="-2.2814949"><ele>0.0</ele><time>2026-04-29T08:28:28.086Z</time></trkpt><trkpt lat="36.3644874" lon="-2.2813821"><ele>0.0</ele><time>2026-04-29T08:28:29.086Z</time></trkpt><trkpt lat="36.3644966" lon="-2.2812695"><ele>0.0</ele><time>2026-04-29T08:28:30.086Z</time></trkpt><trkpt lat="36.3645041" lon="-2.2811656"><ele>0.0</ele><time>2026-04-29T08:28:31.086Z</time></trkpt><trkpt lat="36.3645505" lon="-2.2810564"><ele>0.0</ele><time>2026-04-29T08:28:32.086Z</time></trkpt><trkpt lat="36.3645531" lon="-2.280952"><ele>0.0</ele><time>2026-04-29T08:28:33.086Z</time></trkpt><trkpt lat="36.3645447" lon="-2.2808466"><ele>0.0</ele><time>2026-04-29T08:28:34.086Z</time></trkpt><trkpt lat="36.3645388" lon="-2.2807361"><ele>0.0</ele><time>2026-04-29T08:28:35.086Z</time></trkpt><trkpt lat="36.3645323" lon="-2.2806242"><ele>0.0</ele><time>2026-04-29T08:28:36.087Z</time></trkpt><trkpt lat="36.3645416" lon="-2.2805093"><ele>0.0</ele><time>2026-04-29T08:28:37.086Z</time></trkpt><trkpt lat="36.364541" lon="-2.2802932"><ele>0.0</ele><time>2026-04-29T08:28:39.086Z</time></trkpt><trkpt lat="36.3645368" lon="-2.2801882"><ele>0.0</ele><time>2026-04-29T08:28:40.086Z</time></trkpt><trkpt lat="36.364543" lon="-2.2800761"><ele>0.0</ele><time>2026-04-29T08:28:41.086Z</time></trkpt><trkpt lat="36.3645456" lon="-2.2799654"><ele>0.0</ele><time>2026-04-29T08:28:42.087Z</time></trkpt><trkpt lat="36.3645557" lon="-2.2798584"><ele>0.0</ele><time>2026-04-29T08:28:43.086Z</time></trkpt><trkpt lat="36.3645645" lon="-2.2797486"><ele>0.0</ele><time>2026-04-29T08:28:44.086Z</time></trkpt><trkpt lat="36.3645673" lon="-2.2796396"><ele>0.0</ele><time>2026-04-29T08:28:45.087Z</time></trkpt><trkpt lat="36.3645616" lon="-2.2795328"><ele>0.0</ele><time>2026-04-29T08:28:46.087Z</time></trkpt><trkpt lat="36.3645394" lon="-2.279431"><ele>0.0</ele><time>2026-04-29T08:28:47.086Z</time></trkpt><trkpt lat="36.3645298" lon="-2.2793253"><ele>0.0</ele><time>2026-04-29T08:28:48.087Z</time></trkpt><trkpt lat="36.3645413" lon="-2.279217"><ele>0.0</ele><time>2026-04-29T08:28:49.087Z</time></trkpt><trkpt lat="36.3645336" lon="-2.2791088"><ele>0.0</ele><time>2026-04-29T08:28:50.087Z</time></trkpt><trkpt lat="36.3645378" lon="-2.2789973"><ele>0.0</ele><time>2026-04-29T08:28:51.087Z</time></trkpt><trkpt lat="36.3645461" lon="-2.2788831"><ele>0.0</ele><time>2026-04-29T08:28:52.086Z</time></trkpt><trkpt lat="36.3645536" lon="-2.2787689"><ele>0.0</ele><time>2026-04-29T08:28:53.087Z</time></trkpt><trkpt lat="36.3645562" lon="-2.2786501"><ele>0.0</ele><time>2026-04-29T08:28:54.087Z</time></trkpt><trkpt lat="36.3645429" lon="-2.2785328"><ele>0.0</ele><time>2026-04-29T08:28:55.087Z</time></trkpt><trkpt lat="36.3645726" lon="-2.2784298"><ele>0.0</ele><time>2026-04-29T08:28:56.087Z</time></trkpt><trkpt lat="36.3645909" lon="-2.2783285"><ele>0.0</ele><time>2026-04-29T08:28:57.087Z</time></trkpt><trkpt lat="36.3646191" lon="-2.2782201"><ele>0.0</ele><time>2026-04-29T08:28:58.087Z</time></trkpt><trkpt lat="36.364605" lon="-2.2780058"><ele>0.0</ele><time>2026-04-29T08:29:00.086Z</time></trkpt><trkpt lat="36.364563" lon="-2.2779016"><ele>0.0</ele><time>2026-04-29T08:29:01.086Z</time></trkpt><trkpt lat="36.3645444" lon="-2.2777956"><ele>0.0</ele><time>2026-04-29T08:29:02.086Z</time></trkpt><trkpt lat="36.3645468" lon="-2.2776843"><ele>0.0</ele><time>2026-04-29T08:29:03.086Z</time></trkpt><trkpt lat="36.3645863" lon="-2.2775677"><ele>0.0</ele><time>2026-04-29T08:29:04.087Z</time></trkpt><trkpt lat="36.3646286" lon="-2.2774568"><ele>0.0</ele><time>2026-04-29T08:29:05.086Z</time></trkpt><trkpt lat="36.3646483" lon="-2.2773541"><ele>0.0</ele><time>2026-04-29T08:29:06.087Z</time></trkpt><trkpt lat="36.3646523" lon="-2.277253"><ele>0.0</ele><time>2026-04-29T08:29:07.087Z</time></trkpt><trkpt lat="36.3646548" lon="-2.2771482"><ele>0.0</ele><time>2026-04-29T08:29:08.086Z</time></trkpt><trkpt lat="36.3646514" lon="-2.2770401"><ele>0.0</ele><time>2026-04-29T08:29:09.087Z</time></trkpt><trkpt lat="36.3646399" lon="-2.2769301"><ele>0.0</ele><time>2026-04-29T08:29:10.086Z</time></trkpt><trkpt lat="36.3646354" lon="-2.2768242"><ele>0.0</ele><time>2026-04-29T08:29:11.087Z</time></trkpt><trkpt lat="36.3646346" lon="-2.276724"><ele>0.0</ele><time>2026-04-29T08:29:12.086Z</time></trkpt><trkpt lat="36.3646407" lon="-2.2766213"><ele>0.0</ele><time>2026-04-29T08:29:13.087Z</time></trkpt><trkpt lat="36.3646575" lon="-2.2765135"><ele>0.0</ele><time>2026-04-29T08:29:14.087Z</time></trkpt><trkpt lat="36.3646676" lon="-2.276402"><ele>0.0</ele><time>2026-04-29T08:29:15.087Z</time></trkpt><trkpt lat="36.3646798" lon="-2.2762943"><ele>0.0</ele><time>2026-04-29T08:29:16.086Z</time></trkpt><trkpt lat="36.3646999" lon="-2.2761746"><ele>0.0</ele><time>2026-04-29T08:29:17.086Z</time></trkpt><trkpt lat="36.3647201" lon="-2.2760645"><ele>0.0</ele><time>2026-04-29T08:29:18.086Z</time></trkpt><trkpt lat="36.3647301" lon="-2.2759579"><ele>0.0</ele><time>2026-04-29T08:29:19.087Z</time></trkpt><trkpt lat="36.3647589" lon="-2.2757235"><ele>0.0</ele><time>2026-04-29T08:29:21.086Z</time></trkpt><trkpt lat="36.3647686" lon="-2.2756083"><ele>0.0</ele><time>2026-04-29T08:29:22.086Z</time></trkpt><trkpt lat="36.3647799" lon="-2.2754939"><ele>0.0</ele><time>2026-04-29T08:29:23.086Z</time></trkpt><trkpt lat="36.3647899" lon="-2.2753786"><ele>0.0</ele><time>2026-04-29T08:29:24.086Z</time></trkpt><trkpt lat="36.3647897" lon="-2.2752721"><ele>0.0</ele><time>2026-04-29T08:29:25.086Z</time></trkpt><trkpt lat="36.3648363" lon="-2.2751719"><ele>0.0</ele><time>2026-04-29T08:29:26.086Z</time></trkpt><trkpt lat="36.3648654" lon="-2.2750693"><ele>0.0</ele><time>2026-04-29T08:29:27.087Z</time></trkpt><trkpt lat="36.3648791" lon="-2.274966"><ele>0.0</ele><time>2026-04-29T08:29:28.086Z</time></trkpt><trkpt lat="36.3648981" lon="-2.2748584"><ele>0.0</ele><time>2026-04-29T08:29:29.086Z</time></trkpt><trkpt lat="36.3649178" lon="-2.2747457"><ele>0.0</ele><time>2026-04-29T08:29:30.087Z</time></trkpt><trkpt lat="36.364943" lon="-2.2746368"><ele>0.0</ele><time>2026-04-29T08:29:31.086Z</time></trkpt><trkpt lat="36.3649608" lon="-2.2745371"><ele>0.0</ele><time>2026-04-29T08:29:32.086Z</time></trkpt><trkpt lat="36.3649748" lon="-2.274436"><ele>0.0</ele><time>2026-04-29T08:29:33.086Z</time></trkpt><trkpt lat="36.3649894" lon="-2.2743241"><ele>0.0</ele><time>2026-04-29T08:29:34.086Z</time></trkpt><trkpt lat="36.3649987" lon="-2.274217"><ele>0.0</ele><time>2026-04-29T08:29:35.087Z</time></trkpt><trkpt lat="36.3650059" lon="-2.274107"><ele>0.0</ele><time>2026-04-29T08:29:36.087Z</time></trkpt><trkpt lat="36.3650281" lon="-2.2739981"><ele>0.0</ele><time>2026-04-29T08:29:37.087Z</time></trkpt><trkpt lat="36.3650331" lon="-2.2738861"><ele>0.0</ele><time>2026-04-29T08:29:38.086Z</time></trkpt><trkpt lat="36.3650337" lon="-2.2737754"><ele>0.0</ele><time>2026-04-29T08:29:39.086Z</time></trkpt><trkpt lat="36.3650281" lon="-2.2735615"><ele>0.0</ele><time>2026-04-29T08:29:41.086Z</time></trkpt><trkpt lat="36.3649907" lon="-2.2734594"><ele>0.0</ele><time>2026-04-29T08:29:42.087Z</time></trkpt><trkpt lat="36.3649975" lon="-2.2733547"><ele>0.0</ele><time>2026-04-29T08:29:43.087Z</time></trkpt><trkpt lat="36.365008" lon="-2.2732439"><ele>0.0</ele><time>2026-04-29T08:29:44.087Z</time></trkpt><trkpt lat="36.3650113" lon="-2.2731363"><ele>0.0</ele><time>2026-04-29T08:29:45.087Z</time></trkpt><trkpt lat="36.3650092" lon="-2.273028"><ele>0.0</ele><time>2026-04-29T08:29:46.086Z</time></trkpt><trkpt lat="36.3650043" lon="-2.2729196"><ele>0.0</ele><time>2026-04-29T08:29:47.086Z</time></trkpt><trkpt lat="36.3649937" lon="-2.2728203"><ele>0.0</ele><time>2026-04-29T08:29:48.087Z</time></trkpt><trkpt lat="36.3650021" lon="-2.2727122"><ele>0.0</ele><time>2026-04-29T08:29:49.086Z</time></trkpt><trkpt lat="36.3649953" lon="-2.2726063"><ele>0.0</ele><time>2026-04-29T08:29:50.086Z</time></trkpt><trkpt lat="36.3649722" lon="-2.272493"><ele>0.0</ele><time>2026-04-29T08:29:51.087Z</time></trkpt><trkpt lat="36.3649521" lon="-2.2723809"><ele>0.0</ele><time>2026-04-29T08:29:52.086Z</time></trkpt><trkpt lat="36.3649362" lon="-2.2722695"><ele>0.0</ele><time>2026-04-29T08:29:53.086Z</time></trkpt><trkpt lat="36.3649326" lon="-2.2721606"><ele>0.0</ele><time>2026-04-29T08:29:54.087Z</time></trkpt><trkpt lat="36.364931" lon="-2.2720506"><ele>0.0</ele><time>2026-04-29T08:29:55.086Z</time></trkpt><trkpt lat="36.3649276" lon="-2.2719389"><ele>0.0</ele><time>2026-04-29T08:29:56.086Z</time></trkpt><trkpt lat="36.3649195" lon="-2.27183"><ele>0.0</ele><time>2026-04-29T08:29:57.087Z</time></trkpt><trkpt lat="36.3649138" lon="-2.271722"><ele>0.0</ele><time>2026-04-29T08:29:58.086Z</time></trkpt><trkpt lat="36.3649144" lon="-2.2716108"><ele>0.0</ele><time>2026-04-29T08:29:59.087Z</time></trkpt><trkpt lat="36.3649217" lon="-2.2714988"><ele>0.0</ele><time>2026-04-29T08:30:00.087Z</time></trkpt><trkpt lat="36.3649753" lon="-2.2712705"><ele>0.0</ele><time>2026-04-29T08:30:02.087Z</time></trkpt><trkpt lat="36.3649861" lon="-2.2711662"><ele>0.0</ele><time>2026-04-29T08:30:03.086Z</time></trkpt><trkpt lat="36.3649878" lon="-2.2710618"><ele>0.0</ele><time>2026-04-29T08:30:04.086Z</time></trkpt><trkpt lat="36.3649902" lon="-2.2709525"><ele>0.0</ele><time>2026-04-29T08:30:05.087Z</time></trkpt><trkpt lat="36.3649973" lon="-2.2708422"><ele>0.0</ele><time>2026-04-29T08:30:06.086Z</time></trkpt><trkpt lat="36.3650396" lon="-2.2707287"><ele>0.0</ele><time>2026-04-29T08:30:07.086Z</time></trkpt><trkpt lat="36.3650562" lon="-2.2706257"><ele>0.0</ele><time>2026-04-29T08:30:08.087Z</time></trkpt><trkpt lat="36.3650603" lon="-2.2705182"><ele>0.0</ele><time>2026-04-29T08:30:09.086Z</time></trkpt><trkpt lat="36.3650612" lon="-2.2704127"><ele>0.0</ele><time>2026-04-29T08:30:10.087Z</time></trkpt><trkpt lat="36.3650605" lon="-2.270312"><ele>0.0</ele><time>2026-04-29T08:30:11.087Z</time></trkpt><trkpt lat="36.36509" lon="-2.2702022"><ele>0.0</ele><time>2026-04-29T08:30:12.087Z</time></trkpt><trkpt lat="36.3650932" lon="-2.2701035"><ele>0.0</ele><time>2026-04-29T08:30:13.087Z</time></trkpt><trkpt lat="36.3651006" lon="-2.2699979"><ele>0.0</ele><time>2026-04-29T08:30:14.087Z</time></trkpt><trkpt lat="36.3651022" lon="-2.2698881"><ele>0.0</ele><time>2026-04-29T08:30:15.086Z</time></trkpt><trkpt lat="36.3651019" lon="-2.2697813"><ele>0.0</ele><time>2026-04-29T08:30:16.086Z</time></trkpt><trkpt lat="36.3651182" lon="-2.2696718"><ele>0.0</ele><time>2026-04-29T08:30:17.086Z</time></trkpt><trkpt lat="36.3651219" lon="-2.2695676"><ele>0.0</ele><time>2026-04-29T08:30:18.087Z</time></trkpt><trkpt lat="36.365112" lon="-2.2694642"><ele>0.0</ele><time>2026-04-29T08:30:19.086Z</time></trkpt><trkpt lat="36.3650959" lon="-2.2693511"><ele>0.0</ele><time>2026-04-29T08:30:20.087Z</time></trkpt><trkpt lat="36.3650796" lon="-2.2692452"><ele>0.0</ele><time>2026-04-29T08:30:21.087Z</time></trkpt><trkpt lat="36.3650603" lon="-2.2690236"><ele>0.0</ele><time>2026-04-29T08:30:23.087Z</time></trkpt><trkpt lat="36.3650676" lon="-2.2689091"><ele>0.0</ele><time>2026-04-29T08:30:24.086Z</time></trkpt><trkpt lat="36.3650581" lon="-2.2688017"><ele>0.0</ele><time>2026-04-29T08:30:25.087Z</time></trkpt><trkpt lat="36.3650487" lon="-2.2686933"><ele>0.0</ele><time>2026-04-29T08:30:26.087Z</time></trkpt><trkpt lat="36.3650514" lon="-2.2685821"><ele>0.0</ele><time>2026-04-29T08:30:27.086Z</time></trkpt><trkpt lat="36.3650468" lon="-2.2684814"><ele>0.0</ele><time>2026-04-29T08:30:28.086Z</time></trkpt><trkpt lat="36.3650418" lon="-2.2683789"><ele>0.0</ele><time>2026-04-29T08:30:29.086Z</time></trkpt><trkpt lat="36.3650368" lon="-2.2682686"><ele>0.0</ele><time>2026-04-29T08:30:30.087Z</time></trkpt><trkpt lat="36.3650338" lon="-2.2681614"><ele>0.0</ele><time>2026-04-29T08:30:31.086Z</time></trkpt><trkpt lat="36.3650305" lon="-2.2680519"><ele>0.0</ele><time>2026-04-29T08:30:32.086Z</time></trkpt><trkpt lat="36.3650271" lon="-2.2679447"><ele>0.0</ele><time>2026-04-29T08:30:33.086Z</time></trkpt><trkpt lat="36.3650208" lon="-2.2678438"><ele>0.0</ele><time>2026-04-29T08:30:34.087Z</time></trkpt><trkpt lat="36.3650201" lon="-2.2677425"><ele>0.0</ele><time>2026-04-29T08:30:35.087Z</time></trkpt><trkpt lat="36.3650188" lon="-2.2676382"><ele>0.0</ele><time>2026-04-29T08:30:36.086Z</time></trkpt><trkpt lat="36.3650203" lon="-2.2675328"><ele>0.0</ele><time>2026-04-29T08:30:37.086Z</time></trkpt><trkpt lat="36.3650209" lon="-2.2674246"><ele>0.0</ele><time>2026-04-29T08:30:38.087Z</time></trkpt><trkpt lat="36.3650547" lon="-2.2673109"><ele>0.0</ele><time>2026-04-29T08:30:39.087Z</time></trkpt><trkpt lat="36.3650644" lon="-2.2672007"><ele>0.0</ele><time>2026-04-29T08:30:40.086Z</time></trkpt><trkpt lat="36.3650702" lon="-2.267088"><ele>0.0</ele><time>2026-04-29T08:30:41.086Z</time></trkpt><trkpt lat="36.3650692" lon="-2.2669844"><ele>0.0</ele><time>2026-04-29T08:30:42.086Z</time></trkpt><trkpt lat="36.365063" lon="-2.2667676"><ele>0.0</ele><time>2026-04-29T08:30:44.086Z</time></trkpt><trkpt lat="36.3650583" lon="-2.266666"><ele>0.0</ele><time>2026-04-29T08:30:45.086Z</time></trkpt><trkpt lat="36.3650591" lon="-2.2665584"><ele>0.0</ele><time>2026-04-29T08:30:46.086Z</time></trkpt><trkpt lat="36.3650554" lon="-2.2664486"><ele>0.0</ele><time>2026-04-29T08:30:47.087Z</time></trkpt><trkpt lat="36.3650507" lon="-2.2663433"><ele>0.0</ele><time>2026-04-29T08:30:48.086Z</time></trkpt><trkpt lat="36.3650581" lon="-2.2662342"><ele>0.0</ele><time>2026-04-29T08:30:49.086Z</time></trkpt><trkpt lat="36.365067" lon="-2.2661223"><ele>0.0</ele><time>2026-04-29T08:30:50.086Z</time></trkpt><trkpt lat="36.3651" lon="-2.2660094"><ele>0.0</ele><time>2026-04-29T08:30:51.086Z</time></trkpt><trkpt lat="36.3651209" lon="-2.2659"><ele>0.0</ele><time>2026-04-29T08:30:52.086Z</time></trkpt><trkpt lat="36.3651255" lon="-2.2657931"><ele>0.0</ele><time>2026-04-29T08:30:53.086Z</time></trkpt><trkpt lat="36.3651245" lon="-2.2656849"><ele>0.0</ele><time>2026-04-29T08:30:54.087Z</time></trkpt><trkpt lat="36.3651167" lon="-2.265578"><ele>0.0</ele><time>2026-04-29T08:30:55.086Z</time></trkpt><trkpt lat="36.3651545" lon="-2.2654629"><ele>0.0</ele><time>2026-04-29T08:30:56.087Z</time></trkpt><trkpt lat="36.3651721" lon="-2.2653478"><ele>0.0</ele><time>2026-04-29T08:30:57.087Z</time></trkpt><trkpt lat="36.3651732" lon="-2.2652387"><ele>0.0</ele><time>2026-04-29T08:30:58.086Z</time></trkpt><trkpt lat="36.3651531" lon="-2.2651345"><ele>0.0</ele><time>2026-04-29T08:30:59.087Z</time></trkpt><trkpt lat="36.3651495" lon="-2.2650224"><ele>0.0</ele><time>2026-04-29T08:31:00.086Z</time></trkpt><trkpt lat="36.3651581" lon="-2.2649115"><ele>0.0</ele><time>2026-04-29T08:31:01.087Z</time></trkpt><trkpt lat="36.3651651" lon="-2.2648019"><ele>0.0</ele><time>2026-04-29T08:31:02.086Z</time></trkpt><trkpt lat="36.3651717" lon="-2.2646888"><ele>0.0</ele><time>2026-04-29T08:31:03.086Z</time></trkpt><trkpt lat="36.3651948" lon="-2.2644702"><ele>0.0</ele><time>2026-04-29T08:31:05.086Z</time></trkpt><trkpt lat="36.3651985" lon="-2.2643589"><ele>0.0</ele><time>2026-04-29T08:31:06.087Z</time></trkpt><trkpt lat="36.365206" lon="-2.2642484"><ele>0.0</ele><time>2026-04-29T08:31:07.086Z</time></trkpt><trkpt lat="36.3652129" lon="-2.264137"><ele>0.0</ele><time>2026-04-29T08:31:08.087Z</time></trkpt><trkpt lat="36.3652224" lon="-2.2640271"><ele>0.0</ele><time>2026-04-29T08:31:09.086Z</time></trkpt><trkpt lat="36.3652073" lon="-2.2639281"><ele>0.0</ele><time>2026-04-29T08:31:10.086Z</time></trkpt><trkpt lat="36.365203" lon="-2.2638228"><ele>0.0</ele><time>2026-04-29T08:31:11.087Z</time></trkpt><trkpt lat="36.3652066" lon="-2.2637192"><ele>0.0</ele><time>2026-04-29T08:31:12.087Z</time></trkpt><trkpt lat="36.3652177" lon="-2.263612"><ele>0.0</ele><time>2026-04-29T08:31:13.086Z</time></trkpt><trkpt lat="36.3652255" lon="-2.2635024"><ele>0.0</ele><time>2026-04-29T08:31:14.086Z</time></trkpt><trkpt lat="36.3652382" lon="-2.2633906"><ele>0.0</ele><time>2026-04-29T08:31:15.087Z</time></trkpt><trkpt lat="36.3652471" lon="-2.2632757"><ele>0.0</ele><time>2026-04-29T08:31:16.087Z</time></trkpt><trkpt lat="36.3652454" lon="-2.2631635"><ele>0.0</ele><time>2026-04-29T08:31:17.086Z</time></trkpt><trkpt lat="36.3652468" lon="-2.2630548"><ele>0.0</ele><time>2026-04-29T08:31:18.087Z</time></trkpt><trkpt lat="36.3652453" lon="-2.2629436"><ele>0.0</ele><time>2026-04-29T08:31:19.087Z</time></trkpt><trkpt lat="36.3652793" lon="-2.2628345"><ele>0.0</ele><time>2026-04-29T08:31:20.086Z</time></trkpt><trkpt lat="36.3652872" lon="-2.2627282"><ele>0.0</ele><time>2026-04-29T08:31:21.086Z</time></trkpt><trkpt lat="36.3652915" lon="-2.2626217"><ele>0.0</ele><time>2026-04-29T08:31:22.086Z</time></trkpt><trkpt lat="36.3652892" lon="-2.2625135"><ele>0.0</ele><time>2026-04-29T08:31:23.087Z</time></trkpt><trkpt lat="36.3652802" lon="-2.2624034"><ele>0.0</ele><time>2026-04-29T08:31:24.086Z</time></trkpt><trkpt lat="36.3652882" lon="-2.2621838"><ele>0.0</ele><time>2026-04-29T08:31:26.087Z</time></trkpt><trkpt lat="36.3652892" lon="-2.2620764"><ele>0.0</ele><time>2026-04-29T08:31:27.087Z</time></trkpt><trkpt lat="36.3652979" lon="-2.2619697"><ele>0.0</ele><time>2026-04-29T08:31:28.087Z</time></trkpt><trkpt lat="36.3652979" lon="-2.2618636"><ele>0.0</ele><time>2026-04-29T08:31:29.086Z</time></trkpt><trkpt lat="36.3652931" lon="-2.261755"><ele>0.0</ele><time>2026-04-29T08:31:30.086Z</time></trkpt><trkpt lat="36.3652917" lon="-2.2616454"><ele>0.0</ele><time>2026-04-29T08:31:31.086Z</time></trkpt><trkpt lat="36.3652874" lon="-2.2615342"><ele>0.0</ele><time>2026-04-29T08:31:32.087Z</time></trkpt><trkpt lat="36.3652859" lon="-2.261425"><ele>0.0</ele><time>2026-04-29T08:31:33.087Z</time></trkpt><trkpt lat="36.3652842" lon="-2.2613195"><ele>0.0</ele><time>2026-04-29T08:31:34.086Z</time></trkpt><trkpt lat="36.3652797" lon="-2.2612145"><ele>0.0</ele><time>2026-04-29T08:31:35.086Z</time></trkpt><trkpt lat="36.3652677" lon="-2.2611072"><ele>0.0</ele><time>2026-04-29T08:31:36.086Z</time></trkpt><trkpt lat="36.3652582" lon="-2.2609987"><ele>0.0</ele><time>2026-04-29T08:31:37.087Z</time></trkpt><trkpt lat="36.3652515" lon="-2.260886"><ele>0.0</ele><time>2026-04-29T08:31:38.087Z</time></trkpt><trkpt lat="36.3652479" lon="-2.2607727"><ele>0.0</ele><time>2026-04-29T08:31:39.086Z</time></trkpt><trkpt lat="36.3652672" lon="-2.2606587"><ele>0.0</ele><time>2026-04-29T08:31:40.086Z</time></trkpt><trkpt lat="36.3652621" lon="-2.2605517"><ele>0.0</ele><time>2026-04-29T08:31:41.087Z</time></trkpt><trkpt lat="36.3652599" lon="-2.2604391"><ele>0.0</ele><time>2026-04-29T08:31:42.087Z</time></trkpt><trkpt lat="36.3652573" lon="-2.2603273"><ele>0.0</ele><time>2026-04-29T08:31:43.086Z</time></trkpt><trkpt lat="36.3653175" lon="-2.2602165"><ele>0.0</ele><time>2026-04-29T08:31:44.087Z</time></trkpt><trkpt lat="36.3653245" lon="-2.2601079"><ele>0.0</ele><time>2026-04-29T08:31:45.087Z</time></trkpt><trkpt lat="36.365315" lon="-2.2598886"><ele>0.0</ele><time>2026-04-29T08:31:47.086Z</time></trkpt><trkpt lat="36.3653145" lon="-2.2597852"><ele>0.0</ele><time>2026-04-29T08:31:48.086Z</time></trkpt><trkpt lat="36.3653177" lon="-2.2596795"><ele>0.0</ele><time>2026-04-29T08:31:49.087Z</time></trkpt><trkpt lat="36.365314" lon="-2.2595704"><ele>0.0</ele><time>2026-04-29T08:31:50.086Z</time></trkpt><trkpt lat="36.3653132" lon="-2.2594603"><ele>0.0</ele><time>2026-04-29T08:31:51.087Z</time></trkpt><trkpt lat="36.3653117" lon="-2.25935"><ele>0.0</ele><time>2026-04-29T08:31:52.086Z</time></trkpt><trkpt lat="36.3653169" lon="-2.2592443"><ele>0.0</ele><time>2026-04-29T08:31:53.087Z</time></trkpt><trkpt lat="36.3653266" lon="-2.259135"><ele>0.0</ele><time>2026-04-29T08:31:54.087Z</time></trkpt><trkpt lat="36.3653285" lon="-2.2590266"><ele>0.0</ele><time>2026-04-29T08:31:55.086Z</time></trkpt><trkpt lat="36.3653286" lon="-2.2589167"><ele>0.0</ele><time>2026-04-29T08:31:56.087Z</time></trkpt><trkpt lat="36.36533" lon="-2.2588051"><ele>0.0</ele><time>2026-04-29T08:31:57.087Z</time></trkpt><trkpt lat="36.3653303" lon="-2.2586893"><ele>0.0</ele><time>2026-04-29T08:31:58.086Z</time></trkpt><trkpt lat="36.3653348" lon="-2.2585756"><ele>0.0</ele><time>2026-04-29T08:31:59.087Z</time></trkpt><trkpt lat="36.365425" lon="-2.2584604"><ele>0.0</ele><time>2026-04-29T08:32:00.086Z</time></trkpt><trkpt lat="36.3654476" lon="-2.2583512"><ele>0.0</ele><time>2026-04-29T08:32:01.087Z</time></trkpt><trkpt lat="36.3654567" lon="-2.2582471"><ele>0.0</ele><time>2026-04-29T08:32:02.087Z</time></trkpt><trkpt lat="36.3654635" lon="-2.2581441"><ele>0.0</ele><time>2026-04-29T08:32:03.086Z</time></trkpt><trkpt lat="36.3654699" lon="-2.2580395"><ele>0.0</ele><time>2026-04-29T08:32:04.087Z</time></trkpt><trkpt lat="36.365477" lon="-2.2579329"><ele>0.0</ele><time>2026-04-29T08:32:05.087Z</time></trkpt><trkpt lat="36.3654864" lon="-2.2578291"><ele>0.0</ele><time>2026-04-29T08:32:06.086Z</time></trkpt><trkpt lat="36.365502" lon="-2.2576148"><ele>0.0</ele><time>2026-04-29T08:32:08.086Z</time></trkpt><trkpt lat="36.3655098" lon="-2.2575091"><ele>0.0</ele><time>2026-04-29T08:32:09.086Z</time></trkpt><trkpt lat="36.3655152" lon="-2.2574048"><ele>0.0</ele><time>2026-04-29T08:32:10.085Z</time></trkpt><trkpt lat="36.3655171" lon="-2.2572983"><ele>0.0</ele><time>2026-04-29T08:32:11.085Z</time></trkpt><trkpt lat="36.3655155" lon="-2.2571884"><ele>0.0</ele><time>2026-04-29T08:32:12.085Z</time></trkpt><trkpt lat="36.3655252" lon="-2.2570827"><ele>0.0</ele><time>2026-04-29T08:32:13.086Z</time></trkpt><trkpt lat="36.3655352" lon="-2.2569793"><ele>0.0</ele><time>2026-04-29T08:32:14.085Z</time></trkpt><trkpt lat="36.365543" lon="-2.2568729"><ele>0.0</ele><time>2026-04-29T08:32:15.086Z</time></trkpt><trkpt lat="36.3655382" lon="-2.2567706"><ele>0.0</ele><time>2026-04-29T08:32:16.086Z</time></trkpt><trkpt lat="36.3655884" lon="-2.2566545"><ele>0.0</ele><time>2026-04-29T08:32:17.085Z</time></trkpt><trkpt lat="36.3656381" lon="-2.2565421"><ele>0.0</ele><time>2026-04-29T08:32:18.086Z</time></trkpt><trkpt lat="36.3657025" lon="-2.2564323"><ele>0.0</ele><time>2026-04-29T08:32:19.085Z</time></trkpt><trkpt lat="36.365745" lon="-2.2563253"><ele>0.0</ele><time>2026-04-29T08:32:20.086Z</time></trkpt><trkpt lat="36.3657668" lon="-2.2562187"><ele>0.0</ele><time>2026-04-29T08:32:21.086Z</time></trkpt><trkpt lat="36.3657741" lon="-2.2561177"><ele>0.0</ele><time>2026-04-29T08:32:22.085Z</time></trkpt><trkpt lat="36.3658054" lon="-2.2560135"><ele>0.0</ele><time>2026-04-29T08:32:23.085Z</time></trkpt><trkpt lat="36.3658515" lon="-2.2559052"><ele>0.0</ele><time>2026-04-29T08:32:24.086Z</time></trkpt><trkpt lat="36.3658983" lon="-2.2557911"><ele>0.0</ele><time>2026-04-29T08:32:25.086Z</time></trkpt><trkpt lat="36.365926" lon="-2.2556845"><ele>0.0</ele><time>2026-04-29T08:32:26.085Z</time></trkpt><trkpt lat="36.3659356" lon="-2.2555883"><ele>0.0</ele><time>2026-04-29T08:32:27.086Z</time></trkpt><trkpt lat="36.3659379" lon="-2.2553765"><ele>0.0</ele><time>2026-04-29T08:32:29.085Z</time></trkpt><trkpt lat="36.3659426" lon="-2.2552713"><ele>0.0</ele><time>2026-04-29T08:32:30.086Z</time></trkpt><trkpt lat="36.3659542" lon="-2.2551608"><ele>0.0</ele><time>2026-04-29T08:32:31.085Z</time></trkpt><trkpt lat="36.3659505" lon="-2.2550506"><ele>0.0</ele><time>2026-04-29T08:32:32.085Z</time></trkpt><trkpt lat="36.3659507" lon="-2.2549423"><ele>0.0</ele><time>2026-04-29T08:32:33.085Z</time></trkpt><trkpt lat="36.3659404" lon="-2.254829"><ele>0.0</ele><time>2026-04-29T08:32:34.086Z</time></trkpt><trkpt lat="36.3659271" lon="-2.2547215"><ele>0.0</ele><time>2026-04-29T08:32:35.086Z</time></trkpt><trkpt lat="36.365912" lon="-2.2546148"><ele>0.0</ele><time>2026-04-29T08:32:36.085Z</time></trkpt><trkpt lat="36.3658928" lon="-2.2545068"><ele>0.0</ele><time>2026-04-29T08:32:37.085Z</time></trkpt><trkpt lat="36.3658867" lon="-2.2543896"><ele>0.0</ele><time>2026-04-29T08:32:38.085Z</time></trkpt><trkpt lat="36.3658708" lon="-2.254276"><ele>0.0</ele><time>2026-04-29T08:32:39.086Z</time></trkpt><trkpt lat="36.3658709" lon="-2.2541695"><ele>0.0</ele><time>2026-04-29T08:32:40.085Z</time></trkpt><trkpt lat="36.3658687" lon="-2.2540682"><ele>0.0</ele><time>2026-04-29T08:32:41.085Z</time></trkpt><trkpt lat="36.3658921" lon="-2.2539577"><ele>0.0</ele><time>2026-04-29T08:32:42.086Z</time></trkpt><trkpt lat="36.3658827" lon="-2.2538574"><ele>0.0</ele><time>2026-04-29T08:32:43.085Z</time></trkpt><trkpt lat="36.3658781" lon="-2.2537475"><ele>0.0</ele><time>2026-04-29T08:32:44.085Z</time></trkpt><trkpt lat="36.3659156" lon="-2.2536274"><ele>0.0</ele><time>2026-04-29T08:32:45.085Z</time></trkpt><trkpt lat="36.3659566" lon="-2.2535067"><ele>0.0</ele><time>2026-04-29T08:32:46.085Z</time></trkpt><trkpt lat="36.3659828" lon="-2.2533911"><ele>0.0</ele><time>2026-04-29T08:32:47.085Z</time></trkpt><trkpt lat="36.3659841" lon="-2.2532852"><ele>0.0</ele><time>2026-04-29T08:32:48.086Z</time></trkpt><trkpt lat="36.3660066" lon="-2.2530607"><ele>0.0</ele><time>2026-04-29T08:32:50.086Z</time></trkpt><trkpt lat="36.3660189" lon="-2.2529475"><ele>0.0</ele><time>2026-04-29T08:32:51.086Z</time></trkpt><trkpt lat="36.3660193" lon="-2.2528355"><ele>0.0</ele><time>2026-04-29T08:32:52.085Z</time></trkpt><trkpt lat="36.3660123" lon="-2.2527252"><ele>0.0</ele><time>2026-04-29T08:32:53.085Z</time></trkpt><trkpt lat="36.3660098" lon="-2.2526124"><ele>0.0</ele><time>2026-04-29T08:32:54.085Z</time></trkpt><trkpt lat="36.3660068" lon="-2.2525066"><ele>0.0</ele><time>2026-04-29T08:32:55.086Z</time></trkpt><trkpt lat="36.3660021" lon="-2.2524001"><ele>0.0</ele><time>2026-04-29T08:32:56.085Z</time></trkpt><trkpt lat="36.3659984" lon="-2.2522961"><ele>0.0</ele><time>2026-04-29T08:32:57.085Z</time></trkpt><trkpt lat="36.3660117" lon="-2.25219"><ele>0.0</ele><time>2026-04-29T08:32:58.085Z</time></trkpt><trkpt lat="36.3660162" lon="-2.2520894"><ele>0.0</ele><time>2026-04-29T08:32:59.085Z</time></trkpt><trkpt lat="36.3660154" lon="-2.2519834"><ele>0.0</ele><time>2026-04-29T08:33:00.085Z</time></trkpt><trkpt lat="36.3660112" lon="-2.2518769"><ele>0.0</ele><time>2026-04-29T08:33:01.086Z</time></trkpt><trkpt lat="36.3660078" lon="-2.2517701"><ele>0.0</ele><time>2026-04-29T08:33:02.086Z</time></trkpt><trkpt lat="36.3660116" lon="-2.2516664"><ele>0.0</ele><time>2026-04-29T08:33:03.085Z</time></trkpt><trkpt lat="36.3660125" lon="-2.2515616"><ele>0.0</ele><time>2026-04-29T08:33:04.086Z</time></trkpt><trkpt lat="36.3660127" lon="-2.2514506"><ele>0.0</ele><time>2026-04-29T08:33:05.085Z</time></trkpt><trkpt lat="36.3660135" lon="-2.251343"><ele>0.0</ele><time>2026-04-29T08:33:06.085Z</time></trkpt><trkpt lat="36.3660221" lon="-2.2512384"><ele>0.0</ele><time>2026-04-29T08:33:07.085Z</time></trkpt><trkpt lat="36.3660638" lon="-2.2511219"><ele>0.0</ele><time>2026-04-29T08:33:08.086Z</time></trkpt><trkpt lat="36.3660799" lon="-2.2510159"><ele>0.0</ele><time>2026-04-29T08:33:09.085Z</time></trkpt><trkpt lat="36.366088" lon="-2.2508078"><ele>0.0</ele><time>2026-04-29T08:33:11.085Z</time></trkpt><trkpt lat="36.3660925" lon="-2.2507012"><ele>0.0</ele><time>2026-04-29T08:33:12.085Z</time></trkpt><trkpt lat="36.3660873" lon="-2.2505883"><ele>0.0</ele><time>2026-04-29T08:33:13.085Z</time></trkpt><trkpt lat="36.3660816" lon="-2.2504765"><ele>0.0</ele><time>2026-04-29T08:33:14.086Z</time></trkpt><trkpt lat="36.3660775" lon="-2.2503649"><ele>0.0</ele><time>2026-04-29T08:33:15.085Z</time></trkpt><trkpt lat="36.3660701" lon="-2.2502564"><ele>0.0</ele><time>2026-04-29T08:33:16.086Z</time></trkpt><trkpt lat="36.366066" lon="-2.2501454"><ele>0.0</ele><time>2026-04-29T08:33:17.085Z</time></trkpt><trkpt lat="36.3660656" lon="-2.250031"><ele>0.0</ele><time>2026-04-29T08:33:18.085Z</time></trkpt><trkpt lat="36.3660696" lon="-2.2499218"><ele>0.0</ele><time>2026-04-29T08:33:19.086Z</time></trkpt><trkpt lat="36.3660706" lon="-2.2498119"><ele>0.0</ele><time>2026-04-29T08:33:20.086Z</time></trkpt><trkpt lat="36.3660501" lon="-2.2497024"><ele>0.0</ele><time>2026-04-29T08:33:21.085Z</time></trkpt><trkpt lat="36.3660458" lon="-2.2495927"><ele>0.0</ele><time>2026-04-29T08:33:22.085Z</time></trkpt><trkpt lat="36.366033" lon="-2.2494867"><ele>0.0</ele><time>2026-04-29T08:33:23.085Z</time></trkpt><trkpt lat="36.3660165" lon="-2.2493753"><ele>0.0</ele><time>2026-04-29T08:33:24.086Z</time></trkpt><trkpt lat="36.3660138" lon="-2.2492675"><ele>0.0</ele><time>2026-04-29T08:33:25.085Z</time></trkpt><trkpt lat="36.3660132" lon="-2.249157"><ele>0.0</ele><time>2026-04-29T08:33:26.086Z</time></trkpt><trkpt lat="36.3660102" lon="-2.2490467"><ele>0.0</ele><time>2026-04-29T08:33:27.085Z</time></trkpt><trkpt lat="36.3660084" lon="-2.2489381"><ele>0.0</ele><time>2026-04-29T08:33:28.085Z</time></trkpt><trkpt lat="36.366007" lon="-2.24883"><ele>0.0</ele><time>2026-04-29T08:33:29.085Z</time></trkpt><trkpt lat="36.3660041" lon="-2.248723"><ele>0.0</ele><time>2026-04-29T08:33:30.085Z</time></trkpt><trkpt lat="36.3660006" lon="-2.2485034"><ele>0.0</ele><time>2026-04-29T08:33:32.085Z</time></trkpt><trkpt lat="36.3659953" lon="-2.2483903"><ele>0.0</ele><time>2026-04-29T08:33:33.086Z</time></trkpt><trkpt lat="36.3659939" lon="-2.24828"><ele>0.0</ele><time>2026-04-29T08:33:34.085Z</time></trkpt><trkpt lat="36.3659983" lon="-2.2481729"><ele>0.0</ele><time>2026-04-29T08:33:35.085Z</time></trkpt><trkpt lat="36.3660002" lon="-2.2480608"><ele>0.0</ele><time>2026-04-29T08:33:36.085Z</time></trkpt><trkpt lat="36.3660024" lon="-2.2479501"><ele>0.0</ele><time>2026-04-29T08:33:37.085Z</time></trkpt><trkpt lat="36.3660027" lon="-2.2478392"><ele>0.0</ele><time>2026-04-29T08:33:38.085Z</time></trkpt><trkpt lat="36.3660028" lon="-2.2477247"><ele>0.0</ele><time>2026-04-29T08:33:39.085Z</time></trkpt><trkpt lat="36.3659961" lon="-2.2476048"><ele>0.0</ele><time>2026-04-29T08:33:40.086Z</time></trkpt><trkpt lat="36.365989" lon="-2.2474907"><ele>0.0</ele><time>2026-04-29T08:33:41.086Z</time></trkpt><trkpt lat="36.3659735" lon="-2.2473848"><ele>0.0</ele><time>2026-04-29T08:33:42.085Z</time></trkpt><trkpt lat="36.3659574" lon="-2.2472785"><ele>0.0</ele><time>2026-04-29T08:33:43.085Z</time></trkpt><trkpt lat="36.3659547" lon="-2.2471702"><ele>0.0</ele><time>2026-04-29T08:33:44.085Z</time></trkpt><trkpt lat="36.3659573" lon="-2.2470632"><ele>0.0</ele><time>2026-04-29T08:33:45.086Z</time></trkpt><trkpt lat="36.3659734" lon="-2.2469496"><ele>0.0</ele><time>2026-04-29T08:33:46.086Z</time></trkpt><trkpt lat="36.365993" lon="-2.2468348"><ele>0.0</ele><time>2026-04-29T08:33:47.086Z</time></trkpt><trkpt lat="36.3660103" lon="-2.2467195"><ele>0.0</ele><time>2026-04-29T08:33:48.085Z</time></trkpt><trkpt lat="36.3660192" lon="-2.2466118"><ele>0.0</ele><time>2026-04-29T08:33:49.086Z</time></trkpt><trkpt lat="36.3660265" lon="-2.2465076"><ele>0.0</ele><time>2026-04-29T08:33:50.086Z</time></trkpt><trkpt lat="36.3660306" lon="-2.2464097"><ele>0.0</ele><time>2026-04-29T08:33:51.085Z</time></trkpt><trkpt lat="36.366112" lon="-2.2461968"><ele>0.0</ele><time>2026-04-29T08:33:53.086Z</time></trkpt><trkpt lat="36.3661293" lon="-2.24609"><ele>0.0</ele><time>2026-04-29T08:33:54.085Z</time></trkpt><trkpt lat="36.3661431" lon="-2.2459784"><ele>0.0</ele><time>2026-04-29T08:33:55.086Z</time></trkpt><trkpt lat="36.3661493" lon="-2.2458741"><ele>0.0</ele><time>2026-04-29T08:33:56.085Z</time></trkpt><trkpt lat="36.3661849" lon="-2.2457607"><ele>0.0</ele><time>2026-04-29T08:33:57.085Z</time></trkpt><trkpt lat="36.3662145" lon="-2.2456472"><ele>0.0</ele><time>2026-04-29T08:33:58.085Z</time></trkpt><trkpt lat="36.3662325" lon="-2.2455341"><ele>0.0</ele><time>2026-04-29T08:33:59.085Z</time></trkpt><trkpt lat="36.366247" lon="-2.245428"><ele>0.0</ele><time>2026-04-29T08:34:00.086Z</time></trkpt><trkpt lat="36.3662616" lon="-2.245321"><ele>0.0</ele><time>2026-04-29T08:34:01.085Z</time></trkpt><trkpt lat="36.366262" lon="-2.2452147"><ele>0.0</ele><time>2026-04-29T08:34:02.085Z</time></trkpt><trkpt lat="36.3662592" lon="-2.2451036"><ele>0.0</ele><time>2026-04-29T08:34:03.085Z</time></trkpt><trkpt lat="36.3662644" lon="-2.244999"><ele>0.0</ele><time>2026-04-29T08:34:04.086Z</time></trkpt><trkpt lat="36.3662708" lon="-2.2448918"><ele>0.0</ele><time>2026-04-29T08:34:05.086Z</time></trkpt><trkpt lat="36.3662706" lon="-2.2447801"><ele>0.0</ele><time>2026-04-29T08:34:06.085Z</time></trkpt><trkpt lat="36.3662776" lon="-2.24468"><ele>0.0</ele><time>2026-04-29T08:34:07.085Z</time></trkpt><trkpt lat="36.3662746" lon="-2.2445702"><ele>0.0</ele><time>2026-04-29T08:34:08.086Z</time></trkpt><trkpt lat="36.3662752" lon="-2.2444645"><ele>0.0</ele><time>2026-04-29T08:34:09.085Z</time></trkpt><trkpt lat="36.36628" lon="-2.2443594"><ele>0.0</ele><time>2026-04-29T08:34:10.086Z</time></trkpt><trkpt lat="36.3662882" lon="-2.2442503"><ele>0.0</ele><time>2026-04-29T08:34:11.085Z</time></trkpt><trkpt lat="36.3663028" lon="-2.244032"><ele>0.0</ele><time>2026-04-29T08:34:13.086Z</time></trkpt><trkpt lat="36.3663328" lon="-2.2439189"><ele>0.0</ele><time>2026-04-29T08:34:14.085Z</time></trkpt><trkpt lat="36.3663466" lon="-2.2438075"><ele>0.0</ele><time>2026-04-29T08:34:15.085Z</time></trkpt><trkpt lat="36.3663771" lon="-2.2436982"><ele>0.0</ele><time>2026-04-29T08:34:16.086Z</time></trkpt><trkpt lat="36.3663992" lon="-2.2435922"><ele>0.0</ele><time>2026-04-29T08:34:17.086Z</time></trkpt><trkpt lat="36.3664107" lon="-2.2434831"><ele>0.0</ele><time>2026-04-29T08:34:18.085Z</time></trkpt><trkpt lat="36.3664378" lon="-2.2433687"><ele>0.0</ele><time>2026-04-29T08:34:19.085Z</time></trkpt><trkpt lat="36.3664475" lon="-2.243257"><ele>0.0</ele><time>2026-04-29T08:34:20.086Z</time></trkpt><trkpt lat="36.3664558" lon="-2.2431468"><ele>0.0</ele><time>2026-04-29T08:34:21.085Z</time></trkpt><trkpt lat="36.3664674" lon="-2.2430366"><ele>0.0</ele><time>2026-04-29T08:34:22.085Z</time></trkpt><trkpt lat="36.3664733" lon="-2.2429281"><ele>0.0</ele><time>2026-04-29T08:34:23.085Z</time></trkpt><trkpt lat="36.3664679" lon="-2.2428169"><ele>0.0</ele><time>2026-04-29T08:34:24.086Z</time></trkpt><trkpt lat="36.3664711" lon="-2.242708"><ele>0.0</ele><time>2026-04-29T08:34:25.085Z</time></trkpt><trkpt lat="36.3664801" lon="-2.2426013"><ele>0.0</ele><time>2026-04-29T08:34:26.085Z</time></trkpt><trkpt lat="36.3664873" lon="-2.2424946"><ele>0.0</ele><time>2026-04-29T08:34:27.086Z</time></trkpt><trkpt lat="36.3664908" lon="-2.2423851"><ele>0.0</ele><time>2026-04-29T08:34:28.086Z</time></trkpt><trkpt lat="36.3664939" lon="-2.242278"><ele>0.0</ele><time>2026-04-29T08:34:29.085Z</time></trkpt><trkpt lat="36.3665" lon="-2.2421701"><ele>0.0</ele><time>2026-04-29T08:34:30.086Z</time></trkpt><trkpt lat="36.3664983" lon="-2.2420675"><ele>0.0</ele><time>2026-04-29T08:34:31.086Z</time></trkpt><trkpt lat="36.3664905" lon="-2.2419644"><ele>0.0</ele><time>2026-04-29T08:34:32.086Z</time></trkpt><trkpt lat="36.366473" lon="-2.2417577"><ele>0.0</ele><time>2026-04-29T08:34:34.085Z</time></trkpt><trkpt lat="36.3664695" lon="-2.2416558"><ele>0.0</ele><time>2026-04-29T08:34:35.085Z</time></trkpt><trkpt lat="36.3664654" lon="-2.2415453"><ele>0.0</ele><time>2026-04-29T08:34:36.085Z</time></trkpt><trkpt lat="36.3664675" lon="-2.2414337"><ele>0.0</ele><time>2026-04-29T08:34:37.086Z</time></trkpt><trkpt lat="36.3664752" lon="-2.2413193"><ele>0.0</ele><time>2026-04-29T08:34:38.085Z</time></trkpt><trkpt lat="36.3664764" lon="-2.2412066"><ele>0.0</ele><time>2026-04-29T08:34:39.085Z</time></trkpt><trkpt lat="36.3664785" lon="-2.2410922"><ele>0.0</ele><time>2026-04-29T08:34:40.086Z</time></trkpt><trkpt lat="36.3664782" lon="-2.2409848"><ele>0.0</ele><time>2026-04-29T08:34:41.085Z</time></trkpt><trkpt lat="36.3664986" lon="-2.2408711"><ele>0.0</ele><time>2026-04-29T08:34:42.086Z</time></trkpt><trkpt lat="36.3665039" lon="-2.2407689"><ele>0.0</ele><time>2026-04-29T08:34:43.086Z</time></trkpt><trkpt lat="36.3665075" lon="-2.2406601"><ele>0.0</ele><time>2026-04-29T08:34:44.086Z</time></trkpt><trkpt lat="36.3665081" lon="-2.2405564"><ele>0.0</ele><time>2026-04-29T08:34:45.086Z</time></trkpt><trkpt lat="36.3665092" lon="-2.2404469"><ele>0.0</ele><time>2026-04-29T08:34:46.086Z</time></trkpt><trkpt lat="36.3665091" lon="-2.2403385"><ele>0.0</ele><time>2026-04-29T08:34:47.086Z</time></trkpt><trkpt lat="36.3665048" lon="-2.2402306"><ele>0.0</ele><time>2026-04-29T08:34:48.085Z</time></trkpt><trkpt lat="36.3665012" lon="-2.2401249"><ele>0.0</ele><time>2026-04-29T08:34:49.085Z</time></trkpt><trkpt lat="36.3664959" lon="-2.2400168"><ele>0.0</ele><time>2026-04-29T08:34:50.086Z</time></trkpt><trkpt lat="36.3664951" lon="-2.2399099"><ele>0.0</ele><time>2026-04-29T08:34:51.085Z</time></trkpt><trkpt lat="36.3664908" lon="-2.2398045"><ele>0.0</ele><time>2026-04-29T08:34:52.086Z</time></trkpt><trkpt lat="36.3664902" lon="-2.2396999"><ele>0.0</ele><time>2026-04-29T08:34:53.085Z</time></trkpt><trkpt lat="36.3664877" lon="-2.2394933"><ele>0.0</ele><time>2026-04-29T08:34:55.086Z</time></trkpt><trkpt lat="36.3664871" lon="-2.2393844"><ele>0.0</ele><time>2026-04-29T08:34:56.086Z</time></trkpt><trkpt lat="36.3664926" lon="-2.239274"><ele>0.0</ele><time>2026-04-29T08:34:57.085Z</time></trkpt><trkpt lat="36.3664981" lon="-2.2391642"><ele>0.0</ele><time>2026-04-29T08:34:58.086Z</time></trkpt><trkpt lat="36.3665044" lon="-2.2390557"><ele>0.0</ele><time>2026-04-29T08:34:59.085Z</time></trkpt><trkpt lat="36.3665053" lon="-2.2389456"><ele>0.0</ele><time>2026-04-29T08:35:00.086Z</time></trkpt><trkpt lat="36.3665021" lon="-2.2388357"><ele>0.0</ele><time>2026-04-29T08:35:01.085Z</time></trkpt><trkpt lat="36.366554" lon="-2.2387228"><ele>0.0</ele><time>2026-04-29T08:35:02.085Z</time></trkpt><trkpt lat="36.3665632" lon="-2.2386094"><ele>0.0</ele><time>2026-04-29T08:35:03.086Z</time></trkpt><trkpt lat="36.366607" lon="-2.2384898"><ele>0.0</ele><time>2026-04-29T08:35:04.085Z</time></trkpt><trkpt lat="36.3666142" lon="-2.238383"><ele>0.0</ele><time>2026-04-29T08:35:05.085Z</time></trkpt><trkpt lat="36.3666235" lon="-2.2382726"><ele>0.0</ele><time>2026-04-29T08:35:06.085Z</time></trkpt><trkpt lat="36.3666306" lon="-2.2381619"><ele>0.0</ele><time>2026-04-29T08:35:07.086Z</time></trkpt><trkpt lat="36.3666286" lon="-2.2380519"><ele>0.0</ele><time>2026-04-29T08:35:08.085Z</time></trkpt><trkpt lat="36.3666306" lon="-2.2379389"><ele>0.0</ele><time>2026-04-29T08:35:09.086Z</time></trkpt><trkpt lat="36.3666397" lon="-2.2378315"><ele>0.0</ele><time>2026-04-29T08:35:10.085Z</time></trkpt><trkpt lat="36.3667037" lon="-2.2377151"><ele>0.0</ele><time>2026-04-29T08:35:11.085Z</time></trkpt><trkpt lat="36.3667202" lon="-2.2376084"><ele>0.0</ele><time>2026-04-29T08:35:12.085Z</time></trkpt><trkpt lat="36.3667295" lon="-2.2375017"><ele>0.0</ele><time>2026-04-29T08:35:13.086Z</time></trkpt><trkpt lat="36.3667288" lon="-2.2373973"><ele>0.0</ele><time>2026-04-29T08:35:14.086Z</time></trkpt><trkpt lat="36.3667357" lon="-2.2371729"><ele>0.0</ele><time>2026-04-29T08:35:16.086Z</time></trkpt><trkpt lat="36.366732" lon="-2.2370673"><ele>0.0</ele><time>2026-04-29T08:35:17.086Z</time></trkpt><trkpt lat="36.366728" lon="-2.2369584"><ele>0.0</ele><time>2026-04-29T08:35:18.085Z</time></trkpt><trkpt lat="36.3667286" lon="-2.2368487"><ele>0.0</ele><time>2026-04-29T08:35:19.086Z</time></trkpt><trkpt lat="36.3667411" lon="-2.2367386"><ele>0.0</ele><time>2026-04-29T08:35:20.085Z</time></trkpt><trkpt lat="36.3667464" lon="-2.2366301"><ele>0.0</ele><time>2026-04-29T08:35:21.085Z</time></trkpt><trkpt lat="36.3668204" lon="-2.2365145"><ele>0.0</ele><time>2026-04-29T08:35:22.085Z</time></trkpt><trkpt lat="36.3668871" lon="-2.2364039"><ele>0.0</ele><time>2026-04-29T08:35:23.085Z</time></trkpt><trkpt lat="36.3669329" lon="-2.2362939"><ele>0.0</ele><time>2026-04-29T08:35:24.085Z</time></trkpt><trkpt lat="36.3669434" lon="-2.2361835"><ele>0.0</ele><time>2026-04-29T08:35:25.085Z</time></trkpt><trkpt lat="36.3669787" lon="-2.2360683"><ele>0.0</ele><time>2026-04-29T08:35:26.086Z</time></trkpt><trkpt lat="36.3669959" lon="-2.2359614"><ele>0.0</ele><time>2026-04-29T08:35:27.085Z</time></trkpt><trkpt lat="36.3670258" lon="-2.2358512"><ele>0.0</ele><time>2026-04-29T08:35:28.085Z</time></trkpt><trkpt lat="36.3670376" lon="-2.2357475"><ele>0.0</ele><time>2026-04-29T08:35:29.085Z</time></trkpt><trkpt lat="36.3670246" lon="-2.235617"><ele>0.0</ele><time>2026-04-29T08:35:30.085Z</time></trkpt><trkpt lat="36.3670153" lon="-2.2354953"><ele>0.0</ele><time>2026-04-29T08:35:31.085Z</time></trkpt><trkpt lat="36.3670146" lon="-2.2353848"><ele>0.0</ele><time>2026-04-29T08:35:32.086Z</time></trkpt><trkpt lat="36.3670017" lon="-2.2352782"><ele>0.0</ele><time>2026-04-29T08:35:33.085Z</time></trkpt><trkpt lat="36.3669672" lon="-2.2351727"><ele>0.0</ele><time>2026-04-29T08:35:34.086Z</time></trkpt><trkpt lat="36.3669535" lon="-2.2350679"><ele>0.0</ele><time>2026-04-29T08:35:35.086Z</time></trkpt><trkpt lat="36.3669371" lon="-2.2348562"><ele>0.0</ele><time>2026-04-29T08:35:37.086Z</time></trkpt><trkpt lat="36.3669421" lon="-2.2347503"><ele>0.0</ele><time>2026-04-29T08:35:38.086Z</time></trkpt><trkpt lat="36.3669404" lon="-2.2346386"><ele>0.0</ele><time>2026-04-29T08:35:39.085Z</time></trkpt><trkpt lat="36.3669313" lon="-2.2345281"><ele>0.0</ele><time>2026-04-29T08:35:40.085Z</time></trkpt><trkpt lat="36.3669337" lon="-2.2344124"><ele>0.0</ele><time>2026-04-29T08:35:41.085Z</time></trkpt><trkpt lat="36.366944" lon="-2.2342987"><ele>0.0</ele><time>2026-04-29T08:35:42.085Z</time></trkpt><trkpt lat="36.3669425" lon="-2.2341873"><ele>0.0</ele><time>2026-04-29T08:35:43.085Z</time></trkpt><trkpt lat="36.3669378" lon="-2.2340839"><ele>0.0</ele><time>2026-04-29T08:35:44.085Z</time></trkpt><trkpt lat="36.3669324" lon="-2.2339823"><ele>0.0</ele><time>2026-04-29T08:35:45.086Z</time></trkpt><trkpt lat="36.3669174" lon="-2.2338795"><ele>0.0</ele><time>2026-04-29T08:35:46.086Z</time></trkpt><trkpt lat="36.3669119" lon="-2.2337777"><ele>0.0</ele><time>2026-04-29T08:35:47.085Z</time></trkpt><trkpt lat="36.3669129" lon="-2.2336686"><ele>0.0</ele><time>2026-04-29T08:35:48.085Z</time></trkpt><trkpt lat="36.3669132" lon="-2.2335599"><ele>0.0</ele><time>2026-04-29T08:35:49.085Z</time></trkpt><trkpt lat="36.3669151" lon="-2.2334531"><ele>0.0</ele><time>2026-04-29T08:35:50.086Z</time></trkpt><trkpt lat="36.3669148" lon="-2.2333434"><ele>0.0</ele><time>2026-04-29T08:35:51.085Z</time></trkpt><trkpt lat="36.3669288" lon="-2.2332347"><ele>0.0</ele><time>2026-04-29T08:35:52.086Z</time></trkpt><trkpt lat="36.3669345" lon="-2.2331279"><ele>0.0</ele><time>2026-04-29T08:35:53.086Z</time></trkpt><trkpt lat="36.366946" lon="-2.2330186"><ele>0.0</ele><time>2026-04-29T08:35:54.086Z</time></trkpt><trkpt lat="36.3670287" lon="-2.2329046"><ele>0.0</ele><time>2026-04-29T08:35:55.085Z</time></trkpt><trkpt lat="36.3670861" lon="-2.232794"><ele>0.0</ele><time>2026-04-29T08:35:56.085Z</time></trkpt><trkpt lat="36.3671336" lon="-2.2325754"><ele>0.0</ele><time>2026-04-29T08:35:58.085Z</time></trkpt><trkpt lat="36.3671488" lon="-2.2324676"><ele>0.0</ele><time>2026-04-29T08:35:59.086Z</time></trkpt><trkpt lat="36.3671876" lon="-2.2323541"><ele>0.0</ele><time>2026-04-29T08:36:00.086Z</time></trkpt><trkpt lat="36.3671967" lon="-2.2322508"><ele>0.0</ele><time>2026-04-29T08:36:01.086Z</time></trkpt><trkpt lat="36.3672181" lon="-2.2321304"><ele>0.0</ele><time>2026-04-29T08:36:02.086Z</time></trkpt><trkpt lat="36.3672275" lon="-2.2320157"><ele>0.0</ele><time>2026-04-29T08:36:03.086Z</time></trkpt><trkpt lat="36.3672374" lon="-2.2319153"><ele>0.0</ele><time>2026-04-29T08:36:04.086Z</time></trkpt><trkpt lat="36.3672488" lon="-2.23181"><ele>0.0</ele><time>2026-04-29T08:36:05.085Z</time></trkpt><trkpt lat="36.36725" lon="-2.2317003"><ele>0.0</ele><time>2026-04-29T08:36:06.086Z</time></trkpt><trkpt lat="36.3672629" lon="-2.231589"><ele>0.0</ele><time>2026-04-29T08:36:07.086Z</time></trkpt><trkpt lat="36.3672549" lon="-2.2314764"><ele>0.0</ele><time>2026-04-29T08:36:08.086Z</time></trkpt><trkpt lat="36.3672549" lon="-2.231364"><ele>0.0</ele><time>2026-04-29T08:36:09.085Z</time></trkpt><trkpt lat="36.3672586" lon="-2.2312522"><ele>0.0</ele><time>2026-04-29T08:36:10.085Z</time></trkpt><trkpt lat="36.3672686" lon="-2.2311449"><ele>0.0</ele><time>2026-04-29T08:36:11.085Z</time></trkpt><trkpt lat="36.3672759" lon="-2.2310352"><ele>0.0</ele><time>2026-04-29T08:36:12.085Z</time></trkpt><trkpt lat="36.3672836" lon="-2.2309278"><ele>0.0</ele><time>2026-04-29T08:36:13.085Z</time></trkpt><trkpt lat="36.3672863" lon="-2.2308187"><ele>0.0</ele><time>2026-04-29T08:36:14.086Z</time></trkpt><trkpt lat="36.3672565" lon="-2.2307199"><ele>0.0</ele><time>2026-04-29T08:36:15.085Z</time></trkpt><trkpt lat="36.3672504" lon="-2.2306129"><ele>0.0</ele><time>2026-04-29T08:36:16.085Z</time></trkpt><trkpt lat="36.3672435" lon="-2.230511"><ele>0.0</ele><time>2026-04-29T08:36:17.085Z</time></trkpt><trkpt lat="36.3672405" lon="-2.2302934"><ele>0.0</ele><time>2026-04-29T08:36:19.085Z</time></trkpt><trkpt lat="36.3672379" lon="-2.2301809"><ele>0.0</ele><time>2026-04-29T08:36:20.085Z</time></trkpt><trkpt lat="36.3672414" lon="-2.2300675"><ele>0.0</ele><time>2026-04-29T08:36:21.086Z</time></trkpt><trkpt lat="36.3672409" lon="-2.2299525"><ele>0.0</ele><time>2026-04-29T08:36:22.085Z</time></trkpt><trkpt lat="36.3672465" lon="-2.2298403"><ele>0.0</ele><time>2026-04-29T08:36:23.086Z</time></trkpt><trkpt lat="36.3672417" lon="-2.22973"><ele>0.0</ele><time>2026-04-29T08:36:24.086Z</time></trkpt><trkpt lat="36.3672551" lon="-2.2296143"><ele>0.0</ele><time>2026-04-29T08:36:25.086Z</time></trkpt><trkpt lat="36.3672543" lon="-2.2295078"><ele>0.0</ele><time>2026-04-29T08:36:26.085Z</time></trkpt><trkpt lat="36.3672497" lon="-2.2294017"><ele>0.0</ele><time>2026-04-29T08:36:27.086Z</time></trkpt><trkpt lat="36.3672551" lon="-2.2292908"><ele>0.0</ele><time>2026-04-29T08:36:28.085Z</time></trkpt><trkpt lat="36.3672521" lon="-2.2291782"><ele>0.0</ele><time>2026-04-29T08:36:29.086Z</time></trkpt><trkpt lat="36.367244" lon="-2.2290695"><ele>0.0</ele><time>2026-04-29T08:36:30.085Z</time></trkpt><trkpt lat="36.3672409" lon="-2.2289619"><ele>0.0</ele><time>2026-04-29T08:36:31.085Z</time></trkpt><trkpt lat="36.3672391" lon="-2.2288544"><ele>0.0</ele><time>2026-04-29T08:36:32.085Z</time></trkpt><trkpt lat="36.3672361" lon="-2.2287434"><ele>0.0</ele><time>2026-04-29T08:36:33.085Z</time></trkpt><trkpt lat="36.367231" lon="-2.2286329"><ele>0.0</ele><time>2026-04-29T08:36:34.085Z</time></trkpt><trkpt lat="36.3672276" lon="-2.2285274"><ele>0.0</ele><time>2026-04-29T08:36:35.085Z</time></trkpt><trkpt lat="36.3672528" lon="-2.2284173"><ele>0.0</ele><time>2026-04-29T08:36:36.086Z</time></trkpt><trkpt lat="36.3672519" lon="-2.2283099"><ele>0.0</ele><time>2026-04-29T08:36:37.086Z</time></trkpt><trkpt lat="36.367261" lon="-2.2282028"><ele>0.0</ele><time>2026-04-29T08:36:38.085Z</time></trkpt><trkpt lat="36.3672475" lon="-2.2279924"><ele>0.0</ele><time>2026-04-29T08:36:40.085Z</time></trkpt><trkpt lat="36.367258" lon="-2.227885"><ele>0.0</ele><time>2026-04-29T08:36:41.085Z</time></trkpt><trkpt lat="36.3672629" lon="-2.2277783"><ele>0.0</ele><time>2026-04-29T08:36:42.086Z</time></trkpt><trkpt lat="36.3672611" lon="-2.2276742"><ele>0.0</ele><time>2026-04-29T08:36:43.085Z</time></trkpt><trkpt lat="36.3672694" lon="-2.2275653"><ele>0.0</ele><time>2026-04-29T08:36:44.086Z</time></trkpt><trkpt lat="36.3672755" lon="-2.2274524"><ele>0.0</ele><time>2026-04-29T08:36:45.085Z</time></trkpt><trkpt lat="36.3672833" lon="-2.2273357"><ele>0.0</ele><time>2026-04-29T08:36:46.085Z</time></trkpt><trkpt lat="36.3672718" lon="-2.2272272"><ele>0.0</ele><time>2026-04-29T08:36:47.084Z</time></trkpt><trkpt lat="36.3672571" lon="-2.2271252"><ele>0.0</ele><time>2026-04-29T08:36:48.085Z</time></trkpt><trkpt lat="36.3672647" lon="-2.2270184"><ele>0.0</ele><time>2026-04-29T08:36:49.085Z</time></trkpt><trkpt lat="36.3672635" lon="-2.2269111"><ele>0.0</ele><time>2026-04-29T08:36:50.085Z</time></trkpt><trkpt lat="36.367267" lon="-2.2267988"><ele>0.0</ele><time>2026-04-29T08:36:51.084Z</time></trkpt><trkpt lat="36.3672522" lon="-2.2266954"><ele>0.0</ele><time>2026-04-29T08:36:52.085Z</time></trkpt><trkpt lat="36.367272" lon="-2.2265899"><ele>0.0</ele><time>2026-04-29T08:36:53.084Z</time></trkpt><trkpt lat="36.3672668" lon="-2.2264864"><ele>0.0</ele><time>2026-04-29T08:36:54.084Z</time></trkpt><trkpt lat="36.3672581" lon="-2.2263815"><ele>0.0</ele><time>2026-04-29T08:36:55.085Z</time></trkpt><trkpt lat="36.3672496" lon="-2.2262763"><ele>0.0</ele><time>2026-04-29T08:36:56.085Z</time></trkpt><trkpt lat="36.3672434" lon="-2.226171"><ele>0.0</ele><time>2026-04-29T08:36:57.084Z</time></trkpt><trkpt lat="36.3672791" lon="-2.2260673"><ele>0.0</ele><time>2026-04-29T08:36:58.084Z</time></trkpt><trkpt lat="36.3672801" lon="-2.225963"><ele>0.0</ele><time>2026-04-29T08:36:59.084Z</time></trkpt><trkpt lat="36.3672657" lon="-2.2257471"><ele>0.0</ele><time>2026-04-29T08:37:01.084Z</time></trkpt><trkpt lat="36.3673007" lon="-2.2256297"><ele>0.0</ele><time>2026-04-29T08:37:02.085Z</time></trkpt><trkpt lat="36.367301" lon="-2.2255269"><ele>0.0</ele><time>2026-04-29T08:37:03.084Z</time></trkpt><trkpt lat="36.3672994" lon="-2.2254198"><ele>0.0</ele><time>2026-04-29T08:37:04.084Z</time></trkpt><trkpt lat="36.3673006" lon="-2.2253121"><ele>0.0</ele><time>2026-04-29T08:37:05.085Z</time></trkpt><trkpt lat="36.3673121" lon="-2.2251984"><ele>0.0</ele><time>2026-04-29T08:37:06.084Z</time></trkpt><trkpt lat="36.3673162" lon="-2.2250893"><ele>0.0</ele><time>2026-04-29T08:37:07.085Z</time></trkpt><trkpt lat="36.3673144" lon="-2.224986"><ele>0.0</ele><time>2026-04-29T08:37:08.084Z</time></trkpt><trkpt lat="36.3673278" lon="-2.2248747"><ele>0.0</ele><time>2026-04-29T08:37:09.084Z</time></trkpt><trkpt lat="36.3673371" lon="-2.2247638"><ele>0.0</ele><time>2026-04-29T08:37:10.084Z</time></trkpt><trkpt lat="36.3673675" lon="-2.2246508"><ele>0.0</ele><time>2026-04-29T08:37:11.084Z</time></trkpt><trkpt lat="36.3673782" lon="-2.224549"><ele>0.0</ele><time>2026-04-29T08:37:12.085Z</time></trkpt><trkpt lat="36.3673869" lon="-2.224447"><ele>0.0</ele><time>2026-04-29T08:37:13.084Z</time></trkpt><trkpt lat="36.3673935" lon="-2.2243384"><ele>0.0</ele><time>2026-04-29T08:37:14.084Z</time></trkpt><trkpt lat="36.3673973" lon="-2.2242329"><ele>0.0</ele><time>2026-04-29T08:37:15.084Z</time></trkpt><trkpt lat="36.3674018" lon="-2.2241223"><ele>0.0</ele><time>2026-04-29T08:37:16.085Z</time></trkpt><trkpt lat="36.3674082" lon="-2.2240151"><ele>0.0</ele><time>2026-04-29T08:37:17.084Z</time></trkpt><trkpt lat="36.3674092" lon="-2.2239012"><ele>0.0</ele><time>2026-04-29T08:37:18.084Z</time></trkpt><trkpt lat="36.3674465" lon="-2.2237857"><ele>0.0</ele><time>2026-04-29T08:37:19.085Z</time></trkpt><trkpt lat="36.3674876" lon="-2.2236658"><ele>0.0</ele><time>2026-04-29T08:37:20.084Z</time></trkpt><trkpt lat="36.3675203" lon="-2.2234407"><ele>0.0</ele><time>2026-04-29T08:37:22.085Z</time></trkpt><trkpt lat="36.36753" lon="-2.2233315"><ele>0.0</ele><time>2026-04-29T08:37:23.085Z</time></trkpt><trkpt lat="36.3675659" lon="-2.2232154"><ele>0.0</ele><time>2026-04-29T08:37:24.085Z</time></trkpt><trkpt lat="36.3675993" lon="-2.2230969"><ele>0.0</ele><time>2026-04-29T08:37:25.085Z</time></trkpt><trkpt lat="36.3676216" lon="-2.2229924"><ele>0.0</ele><time>2026-04-29T08:37:26.084Z</time></trkpt><trkpt lat="36.3676281" lon="-2.2228956"><ele>0.0</ele><time>2026-04-29T08:37:27.085Z</time></trkpt><trkpt lat="36.3676368" lon="-2.2227843"><ele>0.0</ele><time>2026-04-29T08:37:28.085Z</time></trkpt><trkpt lat="36.3676374" lon="-2.2226703"><ele>0.0</ele><time>2026-04-29T08:37:29.085Z</time></trkpt><trkpt lat="36.3676354" lon="-2.2225614"><ele>0.0</ele><time>2026-04-29T08:37:30.084Z</time></trkpt><trkpt lat="36.3676166" lon="-2.2224633"><ele>0.0</ele><time>2026-04-29T08:37:31.085Z</time></trkpt><trkpt lat="36.3676188" lon="-2.2223553"><ele>0.0</ele><time>2026-04-29T08:37:32.084Z</time></trkpt><trkpt lat="36.3676212" lon="-2.2222419"><ele>0.0</ele><time>2026-04-29T08:37:33.084Z</time></trkpt><trkpt lat="36.3676341" lon="-2.2221302"><ele>0.0</ele><time>2026-04-29T08:37:34.085Z</time></trkpt><trkpt lat="36.3676437" lon="-2.2220294"><ele>0.0</ele><time>2026-04-29T08:37:35.084Z</time></trkpt><trkpt lat="36.3676497" lon="-2.2219234"><ele>0.0</ele><time>2026-04-29T08:37:36.084Z</time></trkpt><trkpt lat="36.3676654" lon="-2.2218183"><ele>0.0</ele><time>2026-04-29T08:37:37.084Z</time></trkpt><trkpt lat="36.3676793" lon="-2.2217088"><ele>0.0</ele><time>2026-04-29T08:37:38.085Z</time></trkpt><trkpt lat="36.3676908" lon="-2.2216"><ele>0.0</ele><time>2026-04-29T08:37:39.084Z</time></trkpt><trkpt lat="36.3677278" lon="-2.2214816"><ele>0.0</ele><time>2026-04-29T08:37:40.084Z</time></trkpt><trkpt lat="36.3677434" lon="-2.2213682"><ele>0.0</ele><time>2026-04-29T08:37:41.085Z</time></trkpt><trkpt lat="36.3677323" lon="-2.221163"><ele>0.0</ele><time>2026-04-29T08:37:43.085Z</time></trkpt><trkpt lat="36.3677437" lon="-2.2210493"><ele>0.0</ele><time>2026-04-29T08:37:44.084Z</time></trkpt><trkpt lat="36.3677479" lon="-2.2209386"><ele>0.0</ele><time>2026-04-29T08:37:45.085Z</time></trkpt><trkpt lat="36.3677556" lon="-2.2208266"><ele>0.0</ele><time>2026-04-29T08:37:46.084Z</time></trkpt><trkpt lat="36.3677725" lon="-2.2207196"><ele>0.0</ele><time>2026-04-29T08:37:47.084Z</time></trkpt><trkpt lat="36.3677663" lon="-2.2206147"><ele>0.0</ele><time>2026-04-29T08:37:48.084Z</time></trkpt><trkpt lat="36.3677718" lon="-2.2205053"><ele>0.0</ele><time>2026-04-29T08:37:49.084Z</time></trkpt><trkpt lat="36.3677724" lon="-2.2203924"><ele>0.0</ele><time>2026-04-29T08:37:50.084Z</time></trkpt><trkpt lat="36.3678016" lon="-2.2202788"><ele>0.0</ele><time>2026-04-29T08:37:51.085Z</time></trkpt><trkpt lat="36.3678379" lon="-2.2201584"><ele>0.0</ele><time>2026-04-29T08:37:52.085Z</time></trkpt><trkpt lat="36.3678515" lon="-2.2200437"><ele>0.0</ele><time>2026-04-29T08:37:53.084Z</time></trkpt><trkpt lat="36.367865" lon="-2.2199323"><ele>0.0</ele><time>2026-04-29T08:37:54.084Z</time></trkpt><trkpt lat="36.3678699" lon="-2.2198217"><ele>0.0</ele><time>2026-04-29T08:37:55.085Z</time></trkpt><trkpt lat="36.3678702" lon="-2.2197144"><ele>0.0</ele><time>2026-04-29T08:37:56.084Z</time></trkpt><trkpt lat="36.3678603" lon="-2.2196122"><ele>0.0</ele><time>2026-04-29T08:37:57.085Z</time></trkpt><trkpt lat="36.3678567" lon="-2.2195051"><ele>0.0</ele><time>2026-04-29T08:37:58.084Z</time></trkpt><trkpt lat="36.3678643" lon="-2.2193924"><ele>0.0</ele><time>2026-04-29T08:37:59.084Z</time></trkpt><trkpt lat="36.3678693" lon="-2.2192875"><ele>0.0</ele><time>2026-04-29T08:38:00.084Z</time></trkpt><trkpt lat="36.3678641" lon="-2.2191803"><ele>0.0</ele><time>2026-04-29T08:38:01.084Z</time></trkpt><trkpt lat="36.3678694" lon="-2.2190765"><ele>0.0</ele><time>2026-04-29T08:38:02.084Z</time></trkpt><trkpt lat="36.3678752" lon="-2.2188507"><ele>0.0</ele><time>2026-04-29T08:38:04.085Z</time></trkpt><trkpt lat="36.3678776" lon="-2.2187388"><ele>0.0</ele><time>2026-04-29T08:38:05.084Z</time></trkpt><trkpt lat="36.3679149" lon="-2.2186192"><ele>0.0</ele><time>2026-04-29T08:38:06.084Z</time></trkpt><trkpt lat="36.3679334" lon="-2.2185001"><ele>0.0</ele><time>2026-04-29T08:38:07.084Z</time></trkpt><trkpt lat="36.3679439" lon="-2.218397"><ele>0.0</ele><time>2026-04-29T08:38:08.084Z</time></trkpt><trkpt lat="36.3679413" lon="-2.2182966"><ele>0.0</ele><time>2026-04-29T08:38:09.085Z</time></trkpt><trkpt lat="36.3679348" lon="-2.2181925"><ele>0.0</ele><time>2026-04-29T08:38:10.084Z</time></trkpt><trkpt lat="36.3679382" lon="-2.2180894"><ele>0.0</ele><time>2026-04-29T08:38:11.085Z</time></trkpt><trkpt lat="36.3679378" lon="-2.2179816"><ele>0.0</ele><time>2026-04-29T08:38:12.085Z</time></trkpt><trkpt lat="36.3679374" lon="-2.2178702"><ele>0.0</ele><time>2026-04-29T08:38:13.085Z</time></trkpt><trkpt lat="36.3679413" lon="-2.2177624"><ele>0.0</ele><time>2026-04-29T08:38:14.085Z</time></trkpt><trkpt lat="36.3679477" lon="-2.2176523"><ele>0.0</ele><time>2026-04-29T08:38:15.084Z</time></trkpt><trkpt lat="36.3679607" lon="-2.2175388"><ele>0.0</ele><time>2026-04-29T08:38:16.085Z</time></trkpt><trkpt lat="36.367973" lon="-2.2174269"><ele>0.0</ele><time>2026-04-29T08:38:17.084Z</time></trkpt><trkpt lat="36.3679764" lon="-2.2173204"><ele>0.0</ele><time>2026-04-29T08:38:18.085Z</time></trkpt><trkpt lat="36.3679759" lon="-2.2172175"><ele>0.0</ele><time>2026-04-29T08:38:19.084Z</time></trkpt><trkpt lat="36.3679771" lon="-2.2171129"><ele>0.0</ele><time>2026-04-29T08:38:20.084Z</time></trkpt><trkpt lat="36.3679718" lon="-2.2170091"><ele>0.0</ele><time>2026-04-29T08:38:21.085Z</time></trkpt><trkpt lat="36.3679681" lon="-2.216906"><ele>0.0</ele><time>2026-04-29T08:38:22.084Z</time></trkpt><trkpt lat="36.3679759" lon="-2.2167987"><ele>0.0</ele><time>2026-04-29T08:38:23.085Z</time></trkpt><trkpt lat="36.3680013" lon="-2.2165797"><ele>0.0</ele><time>2026-04-29T08:38:25.085Z</time></trkpt><trkpt lat="36.3679884" lon="-2.2164773"><ele>0.0</ele><time>2026-04-29T08:38:26.085Z</time></trkpt><trkpt lat="36.3679955" lon="-2.2163759"><ele>0.0</ele><time>2026-04-29T08:38:27.085Z</time></trkpt><trkpt lat="36.3680055" lon="-2.2162669"><ele>0.0</ele><time>2026-04-29T08:38:28.085Z</time></trkpt><trkpt lat="36.3680119" lon="-2.2161595"><ele>0.0</ele><time>2026-04-29T08:38:29.084Z</time></trkpt><trkpt lat="36.3680159" lon="-2.2160588"><ele>0.0</ele><time>2026-04-29T08:38:30.084Z</time></trkpt><trkpt lat="36.3680486" lon="-2.2159492"><ele>0.0</ele><time>2026-04-29T08:38:31.084Z</time></trkpt><trkpt lat="36.3680645" lon="-2.2158448"><ele>0.0</ele><time>2026-04-29T08:38:32.084Z</time></trkpt><trkpt lat="36.3680922" lon="-2.2157313"><ele>0.0</ele><time>2026-04-29T08:38:33.085Z</time></trkpt><trkpt lat="36.3681107" lon="-2.2156228"><ele>0.0</ele><time>2026-04-29T08:38:34.085Z</time></trkpt><trkpt lat="36.3681358" lon="-2.2155161"><ele>0.0</ele><time>2026-04-29T08:38:35.084Z</time></trkpt><trkpt lat="36.3681498" lon="-2.2154033"><ele>0.0</ele><time>2026-04-29T08:38:36.084Z</time></trkpt><trkpt lat="36.3681887" lon="-2.2152834"><ele>0.0</ele><time>2026-04-29T08:38:37.084Z</time></trkpt><trkpt lat="36.3682021" lon="-2.2151706"><ele>0.0</ele><time>2026-04-29T08:38:38.085Z</time></trkpt><trkpt lat="36.3682014" lon="-2.2150527"><ele>0.0</ele><time>2026-04-29T08:38:39.084Z</time></trkpt><trkpt lat="36.3682064" lon="-2.21494"><ele>0.0</ele><time>2026-04-29T08:38:40.085Z</time></trkpt><trkpt lat="36.3682371" lon="-2.2148243"><ele>0.0</ele><time>2026-04-29T08:38:41.084Z</time></trkpt><trkpt lat="36.3682492" lon="-2.2147105"><ele>0.0</ele><time>2026-04-29T08:38:42.084Z</time></trkpt><trkpt lat="36.3682597" lon="-2.2146003"><ele>0.0</ele><time>2026-04-29T08:38:43.084Z</time></trkpt><trkpt lat="36.3682683" lon="-2.2144842"><ele>0.0</ele><time>2026-04-29T08:38:44.085Z</time></trkpt><trkpt lat="36.3682773" lon="-2.2142694"><ele>0.0</ele><time>2026-04-29T08:38:46.084Z</time></trkpt><trkpt lat="36.3682882" lon="-2.2141608"><ele>0.0</ele><time>2026-04-29T08:38:47.084Z</time></trkpt><trkpt lat="36.3683143" lon="-2.2140552"><ele>0.0</ele><time>2026-04-29T08:38:48.085Z</time></trkpt><trkpt lat="36.3683244" lon="-2.2139504"><ele>0.0</ele><time>2026-04-29T08:38:49.084Z</time></trkpt><trkpt lat="36.3683553" lon="-2.2138331"><ele>0.0</ele><time>2026-04-29T08:38:50.085Z</time></trkpt><trkpt lat="36.3683619" lon="-2.2137213"><ele>0.0</ele><time>2026-04-29T08:38:51.085Z</time></trkpt><trkpt lat="36.368358" lon="-2.2136124"><ele>0.0</ele><time>2026-04-29T08:38:52.085Z</time></trkpt><trkpt lat="36.3683566" lon="-2.2135034"><ele>0.0</ele><time>2026-04-29T08:38:53.084Z</time></trkpt><trkpt lat="36.3683545" lon="-2.2133966"><ele>0.0</ele><time>2026-04-29T08:38:54.084Z</time></trkpt><trkpt lat="36.3683513" lon="-2.2132896"><ele>0.0</ele><time>2026-04-29T08:38:55.084Z</time></trkpt><trkpt lat="36.3683575" lon="-2.2131788"><ele>0.0</ele><time>2026-04-29T08:38:56.085Z</time></trkpt><trkpt lat="36.3683562" lon="-2.2130702"><ele>0.0</ele><time>2026-04-29T08:38:57.084Z</time></trkpt><trkpt lat="36.3683559" lon="-2.2129604"><ele>0.0</ele><time>2026-04-29T08:38:58.084Z</time></trkpt><trkpt lat="36.3683533" lon="-2.2128516"><ele>0.0</ele><time>2026-04-29T08:38:59.085Z</time></trkpt><trkpt lat="36.3683455" lon="-2.2127462"><ele>0.0</ele><time>2026-04-29T08:39:00.085Z</time></trkpt><trkpt lat="36.3683381" lon="-2.2126459"><ele>0.0</ele><time>2026-04-29T08:39:01.085Z</time></trkpt><trkpt lat="36.3683381" lon="-2.2125406"><ele>0.0</ele><time>2026-04-29T08:39:02.085Z</time></trkpt><trkpt lat="36.3683347" lon="-2.2124288"><ele>0.0</ele><time>2026-04-29T08:39:03.085Z</time></trkpt><trkpt lat="36.3683252" lon="-2.2123212"><ele>0.0</ele><time>2026-04-29T08:39:04.084Z</time></trkpt><trkpt lat="36.3683131" lon="-2.2122148"><ele>0.0</ele><time>2026-04-29T08:39:05.084Z</time></trkpt><trkpt lat="36.3682861" lon="-2.212001"><ele>0.0</ele><time>2026-04-29T08:39:07.085Z</time></trkpt><trkpt lat="36.3682699" lon="-2.2118915"><ele>0.0</ele><time>2026-04-29T08:39:08.085Z</time></trkpt><trkpt lat="36.3682735" lon="-2.2117741"><ele>0.0</ele><time>2026-04-29T08:39:09.085Z</time></trkpt><trkpt lat="36.3682662" lon="-2.2116658"><ele>0.0</ele><time>2026-04-29T08:39:10.085Z</time></trkpt><trkpt lat="36.3682435" lon="-2.211568"><ele>0.0</ele><time>2026-04-29T08:39:11.084Z</time></trkpt><trkpt lat="36.3682344" lon="-2.2114643"><ele>0.0</ele><time>2026-04-29T08:39:12.084Z</time></trkpt><trkpt lat="36.3682298" lon="-2.211359"><ele>0.0</ele><time>2026-04-29T08:39:13.084Z</time></trkpt><trkpt lat="36.3682194" lon="-2.2112538"><ele>0.0</ele><time>2026-04-29T08:39:14.084Z</time></trkpt><trkpt lat="36.3682149" lon="-2.2111509"><ele>0.0</ele><time>2026-04-29T08:39:15.085Z</time></trkpt><trkpt lat="36.36821" lon="-2.2110404"><ele>0.0</ele><time>2026-04-29T08:39:16.084Z</time></trkpt><trkpt lat="36.3682098" lon="-2.2109312"><ele>0.0</ele><time>2026-04-29T08:39:17.084Z</time></trkpt><trkpt lat="36.3682118" lon="-2.2108218"><ele>0.0</ele><time>2026-04-29T08:39:18.085Z</time></trkpt><trkpt lat="36.3682093" lon="-2.2107145"><ele>0.0</ele><time>2026-04-29T08:39:19.084Z</time></trkpt><trkpt lat="36.3682085" lon="-2.2105991"><ele>0.0</ele><time>2026-04-29T08:39:20.084Z</time></trkpt><trkpt lat="36.3682152" lon="-2.2104881"><ele>0.0</ele><time>2026-04-29T08:39:21.085Z</time></trkpt><trkpt lat="36.3682263" lon="-2.2103843"><ele>0.0</ele><time>2026-04-29T08:39:22.084Z</time></trkpt><trkpt lat="36.3682316" lon="-2.2102771"><ele>0.0</ele><time>2026-04-29T08:39:23.085Z</time></trkpt><trkpt lat="36.3682322" lon="-2.2101656"><ele>0.0</ele><time>2026-04-29T08:39:24.084Z</time></trkpt><trkpt lat="36.3682437" lon="-2.2100589"><ele>0.0</ele><time>2026-04-29T08:39:25.084Z</time></trkpt><trkpt lat="36.3682497" lon="-2.209949"><ele>0.0</ele><time>2026-04-29T08:39:26.085Z</time></trkpt><trkpt lat="36.3682694" lon="-2.2097325"><ele>0.0</ele><time>2026-04-29T08:39:28.085Z</time></trkpt><trkpt lat="36.3682717" lon="-2.2096335"><ele>0.0</ele><time>2026-04-29T08:39:29.084Z</time></trkpt><trkpt lat="36.3682833" lon="-2.2095284"><ele>0.0</ele><time>2026-04-29T08:39:30.085Z</time></trkpt><trkpt lat="36.3682894" lon="-2.209414"><ele>0.0</ele><time>2026-04-29T08:39:31.084Z</time></trkpt><trkpt lat="36.3682961" lon="-2.2093046"><ele>0.0</ele><time>2026-04-29T08:39:32.085Z</time></trkpt><trkpt lat="36.3683069" lon="-2.2091925"><ele>0.0</ele><time>2026-04-29T08:39:33.085Z</time></trkpt><trkpt lat="36.3683174" lon="-2.2090796"><ele>0.0</ele><time>2026-04-29T08:39:34.084Z</time></trkpt><trkpt lat="36.3683243" lon="-2.2089711"><ele>0.0</ele><time>2026-04-29T08:39:35.084Z</time></trkpt><trkpt lat="36.3683405" lon="-2.2088627"><ele>0.0</ele><time>2026-04-29T08:39:36.085Z</time></trkpt><trkpt lat="36.3683472" lon="-2.2087577"><ele>0.0</ele><time>2026-04-29T08:39:37.085Z</time></trkpt><trkpt lat="36.3683552" lon="-2.2086543"><ele>0.0</ele><time>2026-04-29T08:39:38.084Z</time></trkpt><trkpt lat="36.3683681" lon="-2.2085412"><ele>0.0</ele><time>2026-04-29T08:39:39.085Z</time></trkpt><trkpt lat="36.3683831" lon="-2.2084286"><ele>0.0</ele><time>2026-04-29T08:39:40.084Z</time></trkpt><trkpt lat="36.3684171" lon="-2.2083127"><ele>0.0</ele><time>2026-04-29T08:39:41.085Z</time></trkpt><trkpt lat="36.368472" lon="-2.2081984"><ele>0.0</ele><time>2026-04-29T08:39:42.085Z</time></trkpt><trkpt lat="36.3684917" lon="-2.2080797"><ele>0.0</ele><time>2026-04-29T08:39:43.085Z</time></trkpt><trkpt lat="36.3685318" lon="-2.2079755"><ele>0.0</ele><time>2026-04-29T08:39:44.085Z</time></trkpt><trkpt lat="36.3685378" lon="-2.2078712"><ele>0.0</ele><time>2026-04-29T08:39:45.084Z</time></trkpt><trkpt lat="36.3685479" lon="-2.2077691"><ele>0.0</ele><time>2026-04-29T08:39:46.084Z</time></trkpt><trkpt lat="36.3685525" lon="-2.2076587"><ele>0.0</ele><time>2026-04-29T08:39:47.084Z</time></trkpt><trkpt lat="36.3685486" lon="-2.2074499"><ele>0.0</ele><time>2026-04-29T08:39:49.084Z</time></trkpt><trkpt lat="36.3685521" lon="-2.2073422"><ele>0.0</ele><time>2026-04-29T08:39:50.084Z</time></trkpt><trkpt lat="36.3685368" lon="-2.2072347"><ele>0.0</ele><time>2026-04-29T08:39:51.084Z</time></trkpt><trkpt lat="36.3685213" lon="-2.2071342"><ele>0.0</ele><time>2026-04-29T08:39:52.084Z</time></trkpt><trkpt lat="36.3685203" lon="-2.2070226"><ele>0.0</ele><time>2026-04-29T08:39:53.084Z</time></trkpt><trkpt lat="36.3685309" lon="-2.2069091"><ele>0.0</ele><time>2026-04-29T08:39:54.084Z</time></trkpt><trkpt lat="36.3685471" lon="-2.2067969"><ele>0.0</ele><time>2026-04-29T08:39:55.085Z</time></trkpt><trkpt lat="36.3685658" lon="-2.2066898"><ele>0.0</ele><time>2026-04-29T08:39:56.084Z</time></trkpt><trkpt lat="36.3685752" lon="-2.2065864"><ele>0.0</ele><time>2026-04-29T08:39:57.084Z</time></trkpt><trkpt lat="36.3686049" lon="-2.2064726"><ele>0.0</ele><time>2026-04-29T08:39:58.085Z</time></trkpt><trkpt lat="36.3686331" lon="-2.2063533"><ele>0.0</ele><time>2026-04-29T08:39:59.085Z</time></trkpt><trkpt lat="36.3686428" lon="-2.2062424"><ele>0.0</ele><time>2026-04-29T08:40:00.085Z</time></trkpt><trkpt lat="36.368655" lon="-2.2061343"><ele>0.0</ele><time>2026-04-29T08:40:01.085Z</time></trkpt><trkpt lat="36.3686654" lon="-2.2060249"><ele>0.0</ele><time>2026-04-29T08:40:02.084Z</time></trkpt><trkpt lat="36.3686794" lon="-2.2059177"><ele>0.0</ele><time>2026-04-29T08:40:03.084Z</time></trkpt><trkpt lat="36.3686921" lon="-2.205809"><ele>0.0</ele><time>2026-04-29T08:40:04.085Z</time></trkpt><trkpt lat="36.3686997" lon="-2.2057002"><ele>0.0</ele><time>2026-04-29T08:40:05.085Z</time></trkpt><trkpt lat="36.368703" lon="-2.2055868"><ele>0.0</ele><time>2026-04-29T08:40:06.085Z</time></trkpt><trkpt lat="36.3687192" lon="-2.2054751"><ele>0.0</ele><time>2026-04-29T08:40:07.084Z</time></trkpt><trkpt lat="36.3687338" lon="-2.2053637"><ele>0.0</ele><time>2026-04-29T08:40:08.085Z</time></trkpt><trkpt lat="36.3687695" lon="-2.2051422"><ele>0.0</ele><time>2026-04-29T08:40:10.084Z</time></trkpt><trkpt lat="36.3687926" lon="-2.2050358"><ele>0.0</ele><time>2026-04-29T08:40:11.084Z</time></trkpt><trkpt lat="36.3688059" lon="-2.2049259"><ele>0.0</ele><time>2026-04-29T08:40:12.085Z</time></trkpt><trkpt lat="36.3688209" lon="-2.2048144"><ele>0.0</ele><time>2026-04-29T08:40:13.084Z</time></trkpt><trkpt lat="36.3688201" lon="-2.2047033"><ele>0.0</ele><time>2026-04-29T08:40:14.084Z</time></trkpt><trkpt lat="36.3688177" lon="-2.2045906"><ele>0.0</ele><time>2026-04-29T08:40:15.084Z</time></trkpt><trkpt lat="36.3688254" lon="-2.2044777"><ele>0.0</ele><time>2026-04-29T08:40:16.084Z</time></trkpt><trkpt lat="36.3688262" lon="-2.204361"><ele>0.0</ele><time>2026-04-29T08:40:17.084Z</time></trkpt><trkpt lat="36.3688394" lon="-2.2042454"><ele>0.0</ele><time>2026-04-29T08:40:18.084Z</time></trkpt><trkpt lat="36.368852" lon="-2.2041305"><ele>0.0</ele><time>2026-04-29T08:40:19.084Z</time></trkpt><trkpt lat="36.3688642" lon="-2.2040197"><ele>0.0</ele><time>2026-04-29T08:40:20.084Z</time></trkpt><trkpt lat="36.3688781" lon="-2.2039114"><ele>0.0</ele><time>2026-04-29T08:40:21.085Z</time></trkpt><trkpt lat="36.3688856" lon="-2.2038075"><ele>0.0</ele><time>2026-04-29T08:40:22.084Z</time></trkpt><trkpt lat="36.3688962" lon="-2.2036996"><ele>0.0</ele><time>2026-04-29T08:40:23.084Z</time></trkpt><trkpt lat="36.3689106" lon="-2.203593"><ele>0.0</ele><time>2026-04-29T08:40:24.084Z</time></trkpt><trkpt lat="36.3689263" lon="-2.2034851"><ele>0.0</ele><time>2026-04-29T08:40:25.084Z</time></trkpt><trkpt lat="36.3689342" lon="-2.2033768"><ele>0.0</ele><time>2026-04-29T08:40:26.085Z</time></trkpt><trkpt lat="36.368929" lon="-2.2032656"><ele>0.0</ele><time>2026-04-29T08:40:27.085Z</time></trkpt><trkpt lat="36.3689376" lon="-2.2031564"><ele>0.0</ele><time>2026-04-29T08:40:28.085Z</time></trkpt><trkpt lat="36.3689463" lon="-2.2030452"><ele>0.0</ele><time>2026-04-29T08:40:29.084Z</time></trkpt><trkpt lat="36.368967" lon="-2.2028362"><ele>0.0</ele><time>2026-04-29T08:40:31.085Z</time></trkpt><trkpt lat="36.3689693" lon="-2.2027327"><ele>0.0</ele><time>2026-04-29T08:40:32.084Z</time></trkpt><trkpt lat="36.3689715" lon="-2.2026245"><ele>0.0</ele><time>2026-04-29T08:40:33.084Z</time></trkpt><trkpt lat="36.3689749" lon="-2.2025205"><ele>0.0</ele><time>2026-04-29T08:40:34.084Z</time></trkpt><trkpt lat="36.3689893" lon="-2.2024103"><ele>0.0</ele><time>2026-04-29T08:40:35.084Z</time></trkpt><trkpt lat="36.3690042" lon="-2.2022931"><ele>0.0</ele><time>2026-04-29T08:40:36.084Z</time></trkpt><trkpt lat="36.3690205" lon="-2.2021763"><ele>0.0</ele><time>2026-04-29T08:40:37.084Z</time></trkpt><trkpt lat="36.369026" lon="-2.2020635"><ele>0.0</ele><time>2026-04-29T08:40:38.085Z</time></trkpt><trkpt lat="36.3690249" lon="-2.2019561"><ele>0.0</ele><time>2026-04-29T08:40:39.084Z</time></trkpt><trkpt lat="36.3690314" lon="-2.2018425"><ele>0.0</ele><time>2026-04-29T08:40:40.085Z</time></trkpt><trkpt lat="36.3690262" lon="-2.201733"><ele>0.0</ele><time>2026-04-29T08:40:41.084Z</time></trkpt><trkpt lat="36.3690179" lon="-2.2016249"><ele>0.0</ele><time>2026-04-29T08:40:42.084Z</time></trkpt><trkpt lat="36.3690097" lon="-2.2015169"><ele>0.0</ele><time>2026-04-29T08:40:43.084Z</time></trkpt><trkpt lat="36.3690137" lon="-2.2014112"><ele>0.0</ele><time>2026-04-29T08:40:44.085Z</time></trkpt><trkpt lat="36.3690202" lon="-2.2013062"><ele>0.0</ele><time>2026-04-29T08:40:45.085Z</time></trkpt><trkpt lat="36.3690186" lon="-2.2011983"><ele>0.0</ele><time>2026-04-29T08:40:46.084Z</time></trkpt><trkpt lat="36.3690193" lon="-2.2010872"><ele>0.0</ele><time>2026-04-29T08:40:47.084Z</time></trkpt><trkpt lat="36.3690223" lon="-2.2009754"><ele>0.0</ele><time>2026-04-29T08:40:48.085Z</time></trkpt><trkpt lat="36.3690257" lon="-2.2008722"><ele>0.0</ele><time>2026-04-29T08:40:49.084Z</time></trkpt><trkpt lat="36.3690277" lon="-2.2007677"><ele>0.0</ele><time>2026-04-29T08:40:50.085Z</time></trkpt><trkpt lat="36.3690337" lon="-2.2005532"><ele>0.0</ele><time>2026-04-29T08:40:52.084Z</time></trkpt><trkpt lat="36.3690305" lon="-2.2004438"><ele>0.0</ele><time>2026-04-29T08:40:53.085Z</time></trkpt><trkpt lat="36.3690376" lon="-2.2003341"><ele>0.0</ele><time>2026-04-29T08:40:54.084Z</time></trkpt><trkpt lat="36.3690363" lon="-2.2002187"><ele>0.0</ele><time>2026-04-29T08:40:55.085Z</time></trkpt><trkpt lat="36.3690329" lon="-2.2001141"><ele>0.0</ele><time>2026-04-29T08:40:56.084Z</time></trkpt><trkpt lat="36.3690373" lon="-2.200008"><ele>0.0</ele><time>2026-04-29T08:40:57.085Z</time></trkpt><trkpt lat="36.3690445" lon="-2.1999"><ele>0.0</ele><time>2026-04-29T08:40:58.085Z</time></trkpt><trkpt lat="36.3690578" lon="-2.1997942"><ele>0.0</ele><time>2026-04-29T08:40:59.084Z</time></trkpt><trkpt lat="36.3690801" lon="-2.1996836"><ele>0.0</ele><time>2026-04-29T08:41:00.085Z</time></trkpt><trkpt lat="36.3690901" lon="-2.1995678"><ele>0.0</ele><time>2026-04-29T08:41:01.084Z</time></trkpt><trkpt lat="36.3690954" lon="-2.1994614"><ele>0.0</ele><time>2026-04-29T08:41:02.084Z</time></trkpt><trkpt lat="36.3690915" lon="-2.1993535"><ele>0.0</ele><time>2026-04-29T08:41:03.085Z</time></trkpt><trkpt lat="36.3690915" lon="-2.1992523"><ele>0.0</ele><time>2026-04-29T08:41:04.084Z</time></trkpt><trkpt lat="36.3691018" lon="-2.1991449"><ele>0.0</ele><time>2026-04-29T08:41:05.084Z</time></trkpt><trkpt lat="36.3691163" lon="-2.1990295"><ele>0.0</ele><time>2026-04-29T08:41:06.085Z</time></trkpt><trkpt lat="36.3691291" lon="-2.1989153"><ele>0.0</ele><time>2026-04-29T08:41:07.084Z</time></trkpt><trkpt lat="36.3691355" lon="-2.1988078"><ele>0.0</ele><time>2026-04-29T08:41:08.084Z</time></trkpt><trkpt lat="36.369139" lon="-2.1987039"><ele>0.0</ele><time>2026-04-29T08:41:09.084Z</time></trkpt><trkpt lat="36.3691507" lon="-2.1985985"><ele>0.0</ele><time>2026-04-29T08:41:10.085Z</time></trkpt><trkpt lat="36.369159" lon="-2.1984869"><ele>0.0</ele><time>2026-04-29T08:41:11.085Z</time></trkpt><trkpt lat="36.3691898" lon="-2.1982677"><ele>0.0</ele><time>2026-04-29T08:41:13.085Z</time></trkpt><trkpt lat="36.3692045" lon="-2.1981643"><ele>0.0</ele><time>2026-04-29T08:41:14.085Z</time></trkpt><trkpt lat="36.3692133" lon="-2.1980568"><ele>0.0</ele><time>2026-04-29T08:41:15.084Z</time></trkpt><trkpt lat="36.3692106" lon="-2.1979407"><ele>0.0</ele><time>2026-04-29T08:41:16.083Z</time></trkpt><trkpt lat="36.3692141" lon="-2.1978212"><ele>0.0</ele><time>2026-04-29T08:41:17.084Z</time></trkpt><trkpt lat="36.3692203" lon="-2.19771"><ele>0.0</ele><time>2026-04-29T08:41:18.084Z</time></trkpt><trkpt lat="36.3692267" lon="-2.1975984"><ele>0.0</ele><time>2026-04-29T08:41:19.083Z</time></trkpt><trkpt lat="36.3692272" lon="-2.1974913"><ele>0.0</ele><time>2026-04-29T08:41:20.083Z</time></trkpt><trkpt lat="36.3692286" lon="-2.1973823"><ele>0.0</ele><time>2026-04-29T08:41:21.084Z</time></trkpt><trkpt lat="36.3692349" lon="-2.1972763"><ele>0.0</ele><time>2026-04-29T08:41:22.083Z</time></trkpt><trkpt lat="36.369246" lon="-2.1971716"><ele>0.0</ele><time>2026-04-29T08:41:23.083Z</time></trkpt><trkpt lat="36.3692489" lon="-2.1970705"><ele>0.0</ele><time>2026-04-29T08:41:24.084Z</time></trkpt><trkpt lat="36.3692517" lon="-2.1969678"><ele>0.0</ele><time>2026-04-29T08:41:25.084Z</time></trkpt><trkpt lat="36.3692607" lon="-2.1968649"><ele>0.0</ele><time>2026-04-29T08:41:26.083Z</time></trkpt><trkpt lat="36.369275" lon="-2.1967636"><ele>0.0</ele><time>2026-04-29T08:41:27.083Z</time></trkpt><trkpt lat="36.369283" lon="-2.196655"><ele>0.0</ele><time>2026-04-29T08:41:28.084Z</time></trkpt><trkpt lat="36.3692878" lon="-2.1965548"><ele>0.0</ele><time>2026-04-29T08:41:29.083Z</time></trkpt><trkpt lat="36.3692941" lon="-2.196454"><ele>0.0</ele><time>2026-04-29T08:41:30.084Z</time></trkpt><trkpt lat="36.3693069" lon="-2.1963462"><ele>0.0</ele><time>2026-04-29T08:41:31.083Z</time></trkpt><trkpt lat="36.3693154" lon="-2.1962407"><ele>0.0</ele><time>2026-04-29T08:41:32.084Z</time></trkpt><trkpt lat="36.3693756" lon="-2.1960266"><ele>0.0</ele><time>2026-04-29T08:41:34.084Z</time></trkpt><trkpt lat="36.3693881" lon="-2.195922"><ele>0.0</ele><time>2026-04-29T08:41:35.084Z</time></trkpt><trkpt lat="36.3694041" lon="-2.1958165"><ele>0.0</ele><time>2026-04-29T08:41:36.083Z</time></trkpt><trkpt lat="36.3694166" lon="-2.1957115"><ele>0.0</ele><time>2026-04-29T08:41:37.083Z</time></trkpt><trkpt lat="36.3694311" lon="-2.195606"><ele>0.0</ele><time>2026-04-29T08:41:38.084Z</time></trkpt><trkpt lat="36.3694635" lon="-2.1954786"><ele>0.0</ele><time>2026-04-29T08:41:39.083Z</time></trkpt><trkpt lat="36.3694825" lon="-2.1953623"><ele>0.0</ele><time>2026-04-29T08:41:40.083Z</time></trkpt><trkpt lat="36.3694984" lon="-2.1952568"><ele>0.0</ele><time>2026-04-29T08:41:41.083Z</time></trkpt><trkpt lat="36.3695191" lon="-2.1951424"><ele>0.0</ele><time>2026-04-29T08:41:42.083Z</time></trkpt><trkpt lat="36.3695385" lon="-2.1950302"><ele>0.0</ele><time>2026-04-29T08:41:43.084Z</time></trkpt><trkpt lat="36.3695463" lon="-2.1949161"><ele>0.0</ele><time>2026-04-29T08:41:44.083Z</time></trkpt><trkpt lat="36.3695523" lon="-2.1947995"><ele>0.0</ele><time>2026-04-29T08:41:45.084Z</time></trkpt><trkpt lat="36.3695573" lon="-2.1946894"><ele>0.0</ele><time>2026-04-29T08:41:46.083Z</time></trkpt><trkpt lat="36.3695638" lon="-2.194577"><ele>0.0</ele><time>2026-04-29T08:41:47.084Z</time></trkpt><trkpt lat="36.3695731" lon="-2.194467"><ele>0.0</ele><time>2026-04-29T08:41:48.083Z</time></trkpt><trkpt lat="36.3695825" lon="-2.1943569"><ele>0.0</ele><time>2026-04-29T08:41:49.083Z</time></trkpt><trkpt lat="36.3696065" lon="-2.1942493"><ele>0.0</ele><time>2026-04-29T08:41:50.083Z</time></trkpt><trkpt lat="36.3696167" lon="-2.1941476"><ele>0.0</ele><time>2026-04-29T08:41:51.084Z</time></trkpt><trkpt lat="36.3696317" lon="-2.1940467"><ele>0.0</ele><time>2026-04-29T08:41:52.083Z</time></trkpt><trkpt lat="36.3696564" lon="-2.1939451"><ele>0.0</ele><time>2026-04-29T08:41:53.083Z</time></trkpt><trkpt lat="36.369685" lon="-2.1937351"><ele>0.0</ele><time>2026-04-29T08:41:55.083Z</time></trkpt><trkpt lat="36.3697104" lon="-2.1936272"><ele>0.0</ele><time>2026-04-29T08:41:56.084Z</time></trkpt><trkpt lat="36.3697202" lon="-2.1935089"><ele>0.0</ele><time>2026-04-29T08:41:57.083Z</time></trkpt><trkpt lat="36.3697382" lon="-2.1933899"><ele>0.0</ele><time>2026-04-29T08:41:58.084Z</time></trkpt><trkpt lat="36.3697542" lon="-2.1932773"><ele>0.0</ele><time>2026-04-29T08:41:59.084Z</time></trkpt><trkpt lat="36.3697728" lon="-2.1931639"><ele>0.0</ele><time>2026-04-29T08:42:00.084Z</time></trkpt><trkpt lat="36.3697923" lon="-2.1930579"><ele>0.0</ele><time>2026-04-29T08:42:01.083Z</time></trkpt><trkpt lat="36.369801" lon="-2.1929522"><ele>0.0</ele><time>2026-04-29T08:42:02.084Z</time></trkpt><trkpt lat="36.3698164" lon="-2.1928406"><ele>0.0</ele><time>2026-04-29T08:42:03.083Z</time></trkpt><trkpt lat="36.3698271" lon="-2.1927283"><ele>0.0</ele><time>2026-04-29T08:42:04.083Z</time></trkpt><trkpt lat="36.3698418" lon="-2.1926229"><ele>0.0</ele><time>2026-04-29T08:42:05.084Z</time></trkpt><trkpt lat="36.3698647" lon="-2.1925167"><ele>0.0</ele><time>2026-04-29T08:42:06.083Z</time></trkpt><trkpt lat="36.3698714" lon="-2.1924099"><ele>0.0</ele><time>2026-04-29T08:42:07.083Z</time></trkpt><trkpt lat="36.3698809" lon="-2.1923096"><ele>0.0</ele><time>2026-04-29T08:42:08.084Z</time></trkpt><trkpt lat="36.3699258" lon="-2.1922025"><ele>0.0</ele><time>2026-04-29T08:42:09.084Z</time></trkpt><trkpt lat="36.3699612" lon="-2.1920995"><ele>0.0</ele><time>2026-04-29T08:42:10.084Z</time></trkpt><trkpt lat="36.3699799" lon="-2.1919969"><ele>0.0</ele><time>2026-04-29T08:42:11.083Z</time></trkpt><trkpt lat="36.3699811" lon="-2.1918919"><ele>0.0</ele><time>2026-04-29T08:42:12.083Z</time></trkpt><trkpt lat="36.3700005" lon="-2.1917869"><ele>0.0</ele><time>2026-04-29T08:42:13.084Z</time></trkpt><trkpt lat="36.3700288" lon="-2.1916861"><ele>0.0</ele><time>2026-04-29T08:42:14.084Z</time></trkpt><trkpt lat="36.3700634" lon="-2.1914781"><ele>0.0</ele><time>2026-04-29T08:42:16.084Z</time></trkpt><trkpt lat="36.3701021" lon="-2.1913699"><ele>0.0</ele><time>2026-04-29T08:42:17.084Z</time></trkpt><trkpt lat="36.3701481" lon="-2.1912665"><ele>0.0</ele><time>2026-04-29T08:42:18.083Z</time></trkpt><trkpt lat="36.3701909" lon="-2.1911619"><ele>0.0</ele><time>2026-04-29T08:42:19.084Z</time></trkpt><trkpt lat="36.3702027" lon="-2.1910676"><ele>0.0</ele><time>2026-04-29T08:42:20.084Z</time></trkpt><trkpt lat="36.3702002" lon="-2.1909615"><ele>0.0</ele><time>2026-04-29T08:42:21.084Z</time></trkpt><trkpt lat="36.370236" lon="-2.1908602"><ele>0.0</ele><time>2026-04-29T08:42:22.083Z</time></trkpt><trkpt lat="36.370231" lon="-2.1907473"><ele>0.0</ele><time>2026-04-29T08:42:23.084Z</time></trkpt><trkpt lat="36.3702228" lon="-2.1906399"><ele>0.0</ele><time>2026-04-29T08:42:24.084Z</time></trkpt><trkpt lat="36.370235" lon="-2.1905287"><ele>0.0</ele><time>2026-04-29T08:42:25.083Z</time></trkpt><trkpt lat="36.3702423" lon="-2.190427"><ele>0.0</ele><time>2026-04-29T08:42:26.083Z</time></trkpt><trkpt lat="36.3702447" lon="-2.190329"><ele>0.0</ele><time>2026-04-29T08:42:27.083Z</time></trkpt><trkpt lat="36.3702578" lon="-2.1902268"><ele>0.0</ele><time>2026-04-29T08:42:28.083Z</time></trkpt><trkpt lat="36.3702573" lon="-2.1901221"><ele>0.0</ele><time>2026-04-29T08:42:29.083Z</time></trkpt><trkpt lat="36.3702833" lon="-2.1900131"><ele>0.0</ele><time>2026-04-29T08:42:30.084Z</time></trkpt><trkpt lat="36.3702762" lon="-2.1899036"><ele>0.0</ele><time>2026-04-29T08:42:31.084Z</time></trkpt><trkpt lat="36.370274" lon="-2.1897909"><ele>0.0</ele><time>2026-04-29T08:42:32.083Z</time></trkpt><trkpt lat="36.3702949" lon="-2.1896861"><ele>0.0</ele><time>2026-04-29T08:42:33.084Z</time></trkpt><trkpt lat="36.3703106" lon="-2.189583"><ele>0.0</ele><time>2026-04-29T08:42:34.084Z</time></trkpt><trkpt lat="36.3703285" lon="-2.1894791"><ele>0.0</ele><time>2026-04-29T08:42:35.084Z</time></trkpt><trkpt lat="36.3703738" lon="-2.1892732"><ele>0.0</ele><time>2026-04-29T08:42:37.083Z</time></trkpt><trkpt lat="36.3704007" lon="-2.1891725"><ele>0.0</ele><time>2026-04-29T08:42:38.084Z</time></trkpt><trkpt lat="36.3704449" lon="-2.1890727"><ele>0.0</ele><time>2026-04-29T08:42:39.083Z</time></trkpt><trkpt lat="36.3705024" lon="-2.1889698"><ele>0.0</ele><time>2026-04-29T08:42:40.084Z</time></trkpt><trkpt lat="36.3705259" lon="-2.1888637"><ele>0.0</ele><time>2026-04-29T08:42:41.083Z</time></trkpt><trkpt lat="36.3705476" lon="-2.1887602"><ele>0.0</ele><time>2026-04-29T08:42:42.083Z</time></trkpt><trkpt lat="36.3705791" lon="-2.18866"><ele>0.0</ele><time>2026-04-29T08:42:43.084Z</time></trkpt><trkpt lat="36.3706075" lon="-2.1885546"><ele>0.0</ele><time>2026-04-29T08:42:44.084Z</time></trkpt><trkpt lat="36.3706325" lon="-2.1884457"><ele>0.0</ele><time>2026-04-29T08:42:45.083Z</time></trkpt><trkpt lat="36.3706589" lon="-2.1883369"><ele>0.0</ele><time>2026-04-29T08:42:46.083Z</time></trkpt><trkpt lat="36.3706885" lon="-2.1882281"><ele>0.0</ele><time>2026-04-29T08:42:47.084Z</time></trkpt><trkpt lat="36.3707185" lon="-2.1881218"><ele>0.0</ele><time>2026-04-29T08:42:48.084Z</time></trkpt><trkpt lat="36.3707412" lon="-2.1880135"><ele>0.0</ele><time>2026-04-29T08:42:49.083Z</time></trkpt><trkpt lat="36.3707655" lon="-2.1879075"><ele>0.0</ele><time>2026-04-29T08:42:50.083Z</time></trkpt><trkpt lat="36.3707895" lon="-2.1877981"><ele>0.0</ele><time>2026-04-29T08:42:51.084Z</time></trkpt><trkpt lat="36.3708053" lon="-2.1876979"><ele>0.0</ele><time>2026-04-29T08:42:52.083Z</time></trkpt><trkpt lat="36.3708278" lon="-2.1875937"><ele>0.0</ele><time>2026-04-29T08:42:53.084Z</time></trkpt><trkpt lat="36.3708436" lon="-2.1874877"><ele>0.0</ele><time>2026-04-29T08:42:54.084Z</time></trkpt><trkpt lat="36.3708708" lon="-2.1873808"><ele>0.0</ele><time>2026-04-29T08:42:55.084Z</time></trkpt><trkpt lat="36.3708984" lon="-2.1872734"><ele>0.0</ele><time>2026-04-29T08:42:56.084Z</time></trkpt><trkpt lat="36.3709902" lon="-2.1870667"><ele>0.0</ele><time>2026-04-29T08:42:58.084Z</time></trkpt><trkpt lat="36.371025" lon="-2.1869723"><ele>0.0</ele><time>2026-04-29T08:42:59.084Z</time></trkpt><trkpt lat="36.3710504" lon="-2.1868731"><ele>0.0</ele><time>2026-04-29T08:43:00.083Z</time></trkpt><trkpt lat="36.3710793" lon="-2.1867648"><ele>0.0</ele><time>2026-04-29T08:43:01.083Z</time></trkpt><trkpt lat="36.3711051" lon="-2.1866557"><ele>0.0</ele><time>2026-04-29T08:43:02.083Z</time></trkpt><trkpt lat="36.3711266" lon="-2.1865559"><ele>0.0</ele><time>2026-04-29T08:43:03.084Z</time></trkpt><trkpt lat="36.3711505" lon="-2.1864535"><ele>0.0</ele><time>2026-04-29T08:43:04.084Z</time></trkpt><trkpt lat="36.3711816" lon="-2.1863506"><ele>0.0</ele><time>2026-04-29T08:43:05.083Z</time></trkpt><trkpt lat="36.3712199" lon="-2.186247"><ele>0.0</ele><time>2026-04-29T08:43:06.083Z</time></trkpt><trkpt lat="36.3712488" lon="-2.1861471"><ele>0.0</ele><time>2026-04-29T08:43:07.083Z</time></trkpt><trkpt lat="36.3712826" lon="-2.1860452"><ele>0.0</ele><time>2026-04-29T08:43:08.084Z</time></trkpt><trkpt lat="36.3713214" lon="-2.1859393"><ele>0.0</ele><time>2026-04-29T08:43:09.083Z</time></trkpt><trkpt lat="36.3713565" lon="-2.1858337"><ele>0.0</ele><time>2026-04-29T08:43:10.084Z</time></trkpt><trkpt lat="36.3713875" lon="-2.185732"><ele>0.0</ele><time>2026-04-29T08:43:11.084Z</time></trkpt><trkpt lat="36.3714215" lon="-2.1856316"><ele>0.0</ele><time>2026-04-29T08:43:12.083Z</time></trkpt><trkpt lat="36.3714566" lon="-2.1855301"><ele>0.0</ele><time>2026-04-29T08:43:13.084Z</time></trkpt><trkpt lat="36.3714835" lon="-2.1854299"><ele>0.0</ele><time>2026-04-29T08:43:14.083Z</time></trkpt><trkpt lat="36.3715109" lon="-2.1853329"><ele>0.0</ele><time>2026-04-29T08:43:15.083Z</time></trkpt><trkpt lat="36.3715321" lon="-2.1852367"><ele>0.0</ele><time>2026-04-29T08:43:16.084Z</time></trkpt><trkpt lat="36.3715355" lon="-2.1851344"><ele>0.0</ele><time>2026-04-29T08:43:17.083Z</time></trkpt><trkpt lat="36.3715767" lon="-2.1849255"><ele>0.0</ele><time>2026-04-29T08:43:19.083Z</time></trkpt><trkpt lat="36.3716013" lon="-2.184829"><ele>0.0</ele><time>2026-04-29T08:43:20.083Z</time></trkpt><trkpt lat="36.3716294" lon="-2.1847338"><ele>0.0</ele><time>2026-04-29T08:43:21.084Z</time></trkpt><trkpt lat="36.371664" lon="-2.1846315"><ele>0.0</ele><time>2026-04-29T08:43:22.083Z</time></trkpt><trkpt lat="36.3716951" lon="-2.1845275"><ele>0.0</ele><time>2026-04-29T08:43:23.084Z</time></trkpt><trkpt lat="36.3717198" lon="-2.1844255"><ele>0.0</ele><time>2026-04-29T08:43:24.083Z</time></trkpt><trkpt lat="36.3717434" lon="-2.1843265"><ele>0.0</ele><time>2026-04-29T08:43:25.084Z</time></trkpt><trkpt lat="36.3717577" lon="-2.1842279"><ele>0.0</ele><time>2026-04-29T08:43:26.083Z</time></trkpt><trkpt lat="36.3717776" lon="-2.1841262"><ele>0.0</ele><time>2026-04-29T08:43:27.084Z</time></trkpt><trkpt lat="36.3718053" lon="-2.1840249"><ele>0.0</ele><time>2026-04-29T08:43:28.084Z</time></trkpt><trkpt lat="36.3718368" lon="-2.1839237"><ele>0.0</ele><time>2026-04-29T08:43:29.084Z</time></trkpt><trkpt lat="36.3718576" lon="-2.1838242"><ele>0.0</ele><time>2026-04-29T08:43:30.084Z</time></trkpt><trkpt lat="36.3718843" lon="-2.1837206"><ele>0.0</ele><time>2026-04-29T08:43:31.083Z</time></trkpt><trkpt lat="36.371912" lon="-2.1836173"><ele>0.0</ele><time>2026-04-29T08:43:32.083Z</time></trkpt><trkpt lat="36.3719413" lon="-2.1835129"><ele>0.0</ele><time>2026-04-29T08:43:33.083Z</time></trkpt><trkpt lat="36.3719715" lon="-2.1834105"><ele>0.0</ele><time>2026-04-29T08:43:34.083Z</time></trkpt><trkpt lat="36.3720043" lon="-2.1833131"><ele>0.0</ele><time>2026-04-29T08:43:35.083Z</time></trkpt><trkpt lat="36.3720379" lon="-2.1832193"><ele>0.0</ele><time>2026-04-29T08:43:36.083Z</time></trkpt><trkpt lat="36.3720687" lon="-2.1831189"><ele>0.0</ele><time>2026-04-29T08:43:37.083Z</time></trkpt><trkpt lat="36.3720992" lon="-2.1830161"><ele>0.0</ele><time>2026-04-29T08:43:38.083Z</time></trkpt><trkpt lat="36.3721787" lon="-2.1828127"><ele>0.0</ele><time>2026-04-29T08:43:40.083Z</time></trkpt><trkpt lat="36.372226" lon="-2.1827066"><ele>0.0</ele><time>2026-04-29T08:43:41.083Z</time></trkpt><trkpt lat="36.3722715" lon="-2.1825984"><ele>0.0</ele><time>2026-04-29T08:43:42.084Z</time></trkpt><trkpt lat="36.3723097" lon="-2.1824968"><ele>0.0</ele><time>2026-04-29T08:43:43.083Z</time></trkpt><trkpt lat="36.3723449" lon="-2.182398"><ele>0.0</ele><time>2026-04-29T08:43:44.084Z</time></trkpt><trkpt lat="36.3723819" lon="-2.1823001"><ele>0.0</ele><time>2026-04-29T08:43:45.084Z</time></trkpt><trkpt lat="36.3724166" lon="-2.1822016"><ele>0.0</ele><time>2026-04-29T08:43:46.084Z</time></trkpt><trkpt lat="36.3724424" lon="-2.1820989"><ele>0.0</ele><time>2026-04-29T08:43:47.083Z</time></trkpt><trkpt lat="36.372475" lon="-2.1819986"><ele>0.0</ele><time>2026-04-29T08:43:48.083Z</time></trkpt><trkpt lat="36.3725121" lon="-2.1819012"><ele>0.0</ele><time>2026-04-29T08:43:49.084Z</time></trkpt><trkpt lat="36.3725486" lon="-2.1818032"><ele>0.0</ele><time>2026-04-29T08:43:50.083Z</time></trkpt><trkpt lat="36.3725789" lon="-2.1817009"><ele>0.0</ele><time>2026-04-29T08:43:51.083Z</time></trkpt><trkpt lat="36.3726105" lon="-2.1816027"><ele>0.0</ele><time>2026-04-29T08:43:52.083Z</time></trkpt><trkpt lat="36.3726446" lon="-2.1815043"><ele>0.0</ele><time>2026-04-29T08:43:53.083Z</time></trkpt><trkpt lat="36.3726868" lon="-2.1814107"><ele>0.0</ele><time>2026-04-29T08:43:54.083Z</time></trkpt><trkpt lat="36.3727367" lon="-2.1813205"><ele>0.0</ele><time>2026-04-29T08:43:55.083Z</time></trkpt><trkpt lat="36.3727719" lon="-2.1812307"><ele>0.0</ele><time>2026-04-29T08:43:56.083Z</time></trkpt><trkpt lat="36.3728135" lon="-2.181139"><ele>0.0</ele><time>2026-04-29T08:43:57.083Z</time></trkpt><trkpt lat="36.3728541" lon="-2.1810428"><ele>0.0</ele><time>2026-04-29T08:43:58.083Z</time></trkpt><trkpt lat="36.3728986" lon="-2.180945"><ele>0.0</ele><time>2026-04-29T08:43:59.083Z</time></trkpt><trkpt lat="36.3729765" lon="-2.1807441"><ele>0.0</ele><time>2026-04-29T08:44:01.083Z</time></trkpt><trkpt lat="36.3730133" lon="-2.1806402"><ele>0.0</ele><time>2026-04-29T08:44:02.083Z</time></trkpt><trkpt lat="36.3730555" lon="-2.1805402"><ele>0.0</ele><time>2026-04-29T08:44:03.083Z</time></trkpt><trkpt lat="36.3731007" lon="-2.1804405"><ele>0.0</ele><time>2026-04-29T08:44:04.083Z</time></trkpt><trkpt lat="36.3731486" lon="-2.1803385"><ele>0.0</ele><time>2026-04-29T08:44:05.084Z</time></trkpt><trkpt lat="36.373196" lon="-2.1802409"><ele>0.0</ele><time>2026-04-29T08:44:06.084Z</time></trkpt><trkpt lat="36.3732412" lon="-2.1801368"><ele>0.0</ele><time>2026-04-29T08:44:07.084Z</time></trkpt><trkpt lat="36.3733112" lon="-2.1800397"><ele>0.0</ele><time>2026-04-29T08:44:08.084Z</time></trkpt><trkpt lat="36.373355" lon="-2.1799358"><ele>0.0</ele><time>2026-04-29T08:44:09.084Z</time></trkpt><trkpt lat="36.3733866" lon="-2.1798424"><ele>0.0</ele><time>2026-04-29T08:44:10.083Z</time></trkpt><trkpt lat="36.3734744" lon="-2.1797592"><ele>0.0</ele><time>2026-04-29T08:44:11.083Z</time></trkpt><trkpt lat="36.3735236" lon="-2.1796655"><ele>0.0</ele><time>2026-04-29T08:44:12.083Z</time></trkpt><trkpt lat="36.3735743" lon="-2.1795712"><ele>0.0</ele><time>2026-04-29T08:44:13.083Z</time></trkpt><trkpt lat="36.3736171" lon="-2.1794749"><ele>0.0</ele><time>2026-04-29T08:44:14.084Z</time></trkpt><trkpt lat="36.3736507" lon="-2.1793726"><ele>0.0</ele><time>2026-04-29T08:44:15.083Z</time></trkpt><trkpt lat="36.3736935" lon="-2.1792702"><ele>0.0</ele><time>2026-04-29T08:44:16.083Z</time></trkpt><trkpt lat="36.3737286" lon="-2.1791704"><ele>0.0</ele><time>2026-04-29T08:44:17.083Z</time></trkpt><trkpt lat="36.3737691" lon="-2.1790715"><ele>0.0</ele><time>2026-04-29T08:44:18.084Z</time></trkpt><trkpt lat="36.3738286" lon="-2.1789755"><ele>0.0</ele><time>2026-04-29T08:44:19.084Z</time></trkpt><trkpt lat="36.373881" lon="-2.1788841"><ele>0.0</ele><time>2026-04-29T08:44:20.084Z</time></trkpt><trkpt lat="36.3739904" lon="-2.178699"><ele>0.0</ele><time>2026-04-29T08:44:22.084Z</time></trkpt><trkpt lat="36.3740394" lon="-2.1786074"><ele>0.0</ele><time>2026-04-29T08:44:23.084Z</time></trkpt><trkpt lat="36.3740696" lon="-2.1785055"><ele>0.0</ele><time>2026-04-29T08:44:24.083Z</time></trkpt><trkpt lat="36.3741155" lon="-2.1784096"><ele>0.0</ele><time>2026-04-29T08:44:25.083Z</time></trkpt><trkpt lat="36.3741566" lon="-2.1783165"><ele>0.0</ele><time>2026-04-29T08:44:26.084Z</time></trkpt><trkpt lat="36.3741984" lon="-2.1782201"><ele>0.0</ele><time>2026-04-29T08:44:27.083Z</time></trkpt><trkpt lat="36.3742408" lon="-2.1781221"><ele>0.0</ele><time>2026-04-29T08:44:28.084Z</time></trkpt><trkpt lat="36.3742796" lon="-2.1780249"><ele>0.0</ele><time>2026-04-29T08:44:29.083Z</time></trkpt><trkpt lat="36.3743244" lon="-2.1779282"><ele>0.0</ele><time>2026-04-29T08:44:30.083Z</time></trkpt><trkpt lat="36.3743746" lon="-2.1778305"><ele>0.0</ele><time>2026-04-29T08:44:31.083Z</time></trkpt><trkpt lat="36.3744185" lon="-2.1777323"><ele>0.0</ele><time>2026-04-29T08:44:32.083Z</time></trkpt><trkpt lat="36.3744552" lon="-2.1776346"><ele>0.0</ele><time>2026-04-29T08:44:33.084Z</time></trkpt><trkpt lat="36.3744957" lon="-2.1775312"><ele>0.0</ele><time>2026-04-29T08:44:34.083Z</time></trkpt><trkpt lat="36.374536" lon="-2.1774322"><ele>0.0</ele><time>2026-04-29T08:44:35.084Z</time></trkpt><trkpt lat="36.3745728" lon="-2.1773327"><ele>0.0</ele><time>2026-04-29T08:44:36.084Z</time></trkpt><trkpt lat="36.3746101" lon="-2.1772304"><ele>0.0</ele><time>2026-04-29T08:44:37.084Z</time></trkpt><trkpt lat="36.3746499" lon="-2.1771302"><ele>0.0</ele><time>2026-04-29T08:44:38.084Z</time></trkpt><trkpt lat="36.3746888" lon="-2.1770346"><ele>0.0</ele><time>2026-04-29T08:44:39.083Z</time></trkpt><trkpt lat="36.3747236" lon="-2.1769368"><ele>0.0</ele><time>2026-04-29T08:44:40.083Z</time></trkpt><trkpt lat="36.3747583" lon="-2.176835"><ele>0.0</ele><time>2026-04-29T08:44:41.083Z</time></trkpt><trkpt lat="36.3748363" lon="-2.1766414"><ele>0.0</ele><time>2026-04-29T08:44:43.084Z</time></trkpt><trkpt lat="36.3748765" lon="-2.1765388"><ele>0.0</ele><time>2026-04-29T08:44:44.084Z</time></trkpt><trkpt lat="36.3749181" lon="-2.1764337"><ele>0.0</ele><time>2026-04-29T08:44:45.084Z</time></trkpt><trkpt lat="36.3749568" lon="-2.1763356"><ele>0.0</ele><time>2026-04-29T08:44:46.083Z</time></trkpt><trkpt lat="36.3750006" lon="-2.1762398"><ele>0.0</ele><time>2026-04-29T08:44:47.084Z</time></trkpt><trkpt lat="36.3750419" lon="-2.176142"><ele>0.0</ele><time>2026-04-29T08:44:48.084Z</time></trkpt><trkpt lat="36.3750818" lon="-2.1760464"><ele>0.0</ele><time>2026-04-29T08:44:49.084Z</time></trkpt><trkpt lat="36.3751222" lon="-2.1759476"><ele>0.0</ele><time>2026-04-29T08:44:50.083Z</time></trkpt><trkpt lat="36.3751608" lon="-2.1758445"><ele>0.0</ele><time>2026-04-29T08:44:51.083Z</time></trkpt><trkpt lat="36.3752333" lon="-2.1757592"><ele>0.0</ele><time>2026-04-29T08:44:52.084Z</time></trkpt><trkpt lat="36.3752784" lon="-2.1756608"><ele>0.0</ele><time>2026-04-29T08:44:53.084Z</time></trkpt><trkpt lat="36.3752926" lon="-2.1755529"><ele>0.0</ele><time>2026-04-29T08:44:54.083Z</time></trkpt><trkpt lat="36.3753297" lon="-2.1754441"><ele>0.0</ele><time>2026-04-29T08:44:55.083Z</time></trkpt><trkpt lat="36.3753446" lon="-2.1753402"><ele>0.0</ele><time>2026-04-29T08:44:56.084Z</time></trkpt><trkpt lat="36.3753749" lon="-2.1752459"><ele>0.0</ele><time>2026-04-29T08:44:57.083Z</time></trkpt><trkpt lat="36.3754192" lon="-2.1751482"><ele>0.0</ele><time>2026-04-29T08:44:58.083Z</time></trkpt><trkpt lat="36.3754955" lon="-2.1750542"><ele>0.0</ele><time>2026-04-29T08:44:59.083Z</time></trkpt><trkpt lat="36.3755614" lon="-2.1749647"><ele>0.0</ele><time>2026-04-29T08:45:00.084Z</time></trkpt><trkpt lat="36.3756048" lon="-2.1748698"><ele>0.0</ele><time>2026-04-29T08:45:01.084Z</time></trkpt><trkpt lat="36.3756587" lon="-2.1747758"><ele>0.0</ele><time>2026-04-29T08:45:02.083Z</time></trkpt><trkpt lat="36.3757573" lon="-2.1745846"><ele>0.0</ele><time>2026-04-29T08:45:04.083Z</time></trkpt><trkpt lat="36.3758015" lon="-2.1744992"><ele>0.0</ele><time>2026-04-29T08:45:05.083Z</time></trkpt><trkpt lat="36.3758566" lon="-2.1744149"><ele>0.0</ele><time>2026-04-29T08:45:06.083Z</time></trkpt><trkpt lat="36.375895" lon="-2.1743262"><ele>0.0</ele><time>2026-04-29T08:45:07.083Z</time></trkpt><trkpt lat="36.3759363" lon="-2.1742348"><ele>0.0</ele><time>2026-04-29T08:45:08.084Z</time></trkpt><trkpt lat="36.3759376" lon="-2.1741365"><ele>0.0</ele><time>2026-04-29T08:45:09.084Z</time></trkpt><trkpt lat="36.3759345" lon="-2.1740346"><ele>0.0</ele><time>2026-04-29T08:45:10.084Z</time></trkpt><trkpt lat="36.3759702" lon="-2.173936"><ele>0.0</ele><time>2026-04-29T08:45:11.083Z</time></trkpt><trkpt lat="36.376018" lon="-2.1738362"><ele>0.0</ele><time>2026-04-29T08:45:12.084Z</time></trkpt><trkpt lat="36.3760375" lon="-2.173738"><ele>0.0</ele><time>2026-04-29T08:45:13.083Z</time></trkpt><trkpt lat="36.3760782" lon="-2.1736459"><ele>0.0</ele><time>2026-04-29T08:45:14.084Z</time></trkpt><trkpt lat="36.3761677" lon="-2.1735516"><ele>0.0</ele><time>2026-04-29T08:45:15.084Z</time></trkpt><trkpt lat="36.3762202" lon="-2.1734622"><ele>0.0</ele><time>2026-04-29T08:45:16.084Z</time></trkpt><trkpt lat="36.3762605" lon="-2.1733679"><ele>0.0</ele><time>2026-04-29T08:45:17.084Z</time></trkpt><trkpt lat="36.3762986" lon="-2.1732731"><ele>0.0</ele><time>2026-04-29T08:45:18.084Z</time></trkpt><trkpt lat="36.3763407" lon="-2.1731766"><ele>0.0</ele><time>2026-04-29T08:45:19.083Z</time></trkpt><trkpt lat="36.3763789" lon="-2.1730757"><ele>0.0</ele><time>2026-04-29T08:45:20.084Z</time></trkpt><trkpt lat="36.3764188" lon="-2.172971"><ele>0.0</ele><time>2026-04-29T08:45:21.084Z</time></trkpt><trkpt lat="36.3764513" lon="-2.172872"><ele>0.0</ele><time>2026-04-29T08:45:22.083Z</time></trkpt><trkpt lat="36.3764855" lon="-2.1727705"><ele>0.0</ele><time>2026-04-29T08:45:23.084Z</time></trkpt><trkpt lat="36.3765631" lon="-2.1725765"><ele>0.0</ele><time>2026-04-29T08:45:25.083Z</time></trkpt><trkpt lat="36.3765963" lon="-2.1724759"><ele>0.0</ele><time>2026-04-29T08:45:26.083Z</time></trkpt><trkpt lat="36.3766306" lon="-2.1723745"><ele>0.0</ele><time>2026-04-29T08:45:27.083Z</time></trkpt><trkpt lat="36.3766726" lon="-2.1722787"><ele>0.0</ele><time>2026-04-29T08:45:28.084Z</time></trkpt><trkpt lat="36.3766957" lon="-2.1721898"><ele>0.0</ele><time>2026-04-29T08:45:29.084Z</time></trkpt><trkpt lat="36.3767207" lon="-2.172088"><ele>0.0</ele><time>2026-04-29T08:45:30.084Z</time></trkpt><trkpt lat="36.3767717" lon="-2.1719796"><ele>0.0</ele><time>2026-04-29T08:45:31.084Z</time></trkpt><trkpt lat="36.3768214" lon="-2.1718869"><ele>0.0</ele><time>2026-04-29T08:45:32.083Z</time></trkpt><trkpt lat="36.3768725" lon="-2.1717858"><ele>0.0</ele><time>2026-04-29T08:45:33.083Z</time></trkpt><trkpt lat="36.3768917" lon="-2.1716813"><ele>0.0</ele><time>2026-04-29T08:45:34.084Z</time></trkpt><trkpt lat="36.3769334" lon="-2.171579"><ele>0.0</ele><time>2026-04-29T08:45:35.083Z</time></trkpt><trkpt lat="36.3769814" lon="-2.1714842"><ele>0.0</ele><time>2026-04-29T08:45:36.082Z</time></trkpt><trkpt lat="36.3770254" lon="-2.1713874"><ele>0.0</ele><time>2026-04-29T08:45:37.082Z</time></trkpt><trkpt lat="36.3770732" lon="-2.1712877"><ele>0.0</ele><time>2026-04-29T08:45:38.083Z</time></trkpt><trkpt lat="36.3771222" lon="-2.1712016"><ele>0.0</ele><time>2026-04-29T08:45:39.083Z</time></trkpt><trkpt lat="36.377172" lon="-2.1711096"><ele>0.0</ele><time>2026-04-29T08:45:40.083Z</time></trkpt><trkpt lat="36.3772195" lon="-2.1710151"><ele>0.0</ele><time>2026-04-29T08:45:41.082Z</time></trkpt><trkpt lat="36.3772644" lon="-2.1709196"><ele>0.0</ele><time>2026-04-29T08:45:42.082Z</time></trkpt><trkpt lat="36.3773062" lon="-2.1708318"><ele>0.0</ele><time>2026-04-29T08:45:43.082Z</time></trkpt><trkpt lat="36.3773491" lon="-2.1707416"><ele>0.0</ele><time>2026-04-29T08:45:44.083Z</time></trkpt><trkpt lat="36.3774517" lon="-2.1705783"><ele>0.0</ele><time>2026-04-29T08:45:46.082Z</time></trkpt><trkpt lat="36.377494" lon="-2.1704867"><ele>0.0</ele><time>2026-04-29T08:45:47.083Z</time></trkpt><trkpt lat="36.3775537" lon="-2.1704046"><ele>0.0</ele><time>2026-04-29T08:45:48.082Z</time></trkpt><trkpt lat="36.3776034" lon="-2.1703267"><ele>0.0</ele><time>2026-04-29T08:45:49.082Z</time></trkpt><trkpt lat="36.3776554" lon="-2.1702412"><ele>0.0</ele><time>2026-04-29T08:45:50.083Z</time></trkpt><trkpt lat="36.3777037" lon="-2.1701491"><ele>0.0</ele><time>2026-04-29T08:45:51.083Z</time></trkpt><trkpt lat="36.3777439" lon="-2.1700627"><ele>0.0</ele><time>2026-04-29T08:45:52.082Z</time></trkpt><trkpt lat="36.3777843" lon="-2.1699707"><ele>0.0</ele><time>2026-04-29T08:45:53.082Z</time></trkpt><trkpt lat="36.3778399" lon="-2.1698729"><ele>0.0</ele><time>2026-04-29T08:45:54.083Z</time></trkpt><trkpt lat="36.3778716" lon="-2.1697746"><ele>0.0</ele><time>2026-04-29T08:45:55.083Z</time></trkpt><trkpt lat="36.3779149" lon="-2.1696733"><ele>0.0</ele><time>2026-04-29T08:45:56.082Z</time></trkpt><trkpt lat="36.3779453" lon="-2.1695729"><ele>0.0</ele><time>2026-04-29T08:45:57.082Z</time></trkpt><trkpt lat="36.3779885" lon="-2.1694692"><ele>0.0</ele><time>2026-04-29T08:45:58.082Z</time></trkpt><trkpt lat="36.3780432" lon="-2.1693651"><ele>0.0</ele><time>2026-04-29T08:45:59.083Z</time></trkpt><trkpt lat="36.3780881" lon="-2.1692682"><ele>0.0</ele><time>2026-04-29T08:46:00.082Z</time></trkpt><trkpt lat="36.3781298" lon="-2.1691775"><ele>0.0</ele><time>2026-04-29T08:46:01.082Z</time></trkpt><trkpt lat="36.3781981" lon="-2.1690905"><ele>0.0</ele><time>2026-04-29T08:46:02.082Z</time></trkpt><trkpt lat="36.3782456" lon="-2.1689996"><ele>0.0</ele><time>2026-04-29T08:46:03.083Z</time></trkpt><trkpt lat="36.3782953" lon="-2.1689071"><ele>0.0</ele><time>2026-04-29T08:46:04.082Z</time></trkpt><trkpt lat="36.3783475" lon="-2.1688136"><ele>0.0</ele><time>2026-04-29T08:46:05.083Z</time></trkpt><trkpt lat="36.3784337" lon="-2.1686403"><ele>0.0</ele><time>2026-04-29T08:46:07.083Z</time></trkpt><trkpt lat="36.3784618" lon="-2.1685509"><ele>0.0</ele><time>2026-04-29T08:46:08.083Z</time></trkpt><trkpt lat="36.378498" lon="-2.1684625"><ele>0.0</ele><time>2026-04-29T08:46:09.082Z</time></trkpt><trkpt lat="36.3785323" lon="-2.1683712"><ele>0.0</ele><time>2026-04-29T08:46:10.083Z</time></trkpt><trkpt lat="36.3785728" lon="-2.1682774"><ele>0.0</ele><time>2026-04-29T08:46:11.083Z</time></trkpt><trkpt lat="36.3786241" lon="-2.1681775"><ele>0.0</ele><time>2026-04-29T08:46:12.083Z</time></trkpt><trkpt lat="36.3786701" lon="-2.1680736"><ele>0.0</ele><time>2026-04-29T08:46:13.082Z</time></trkpt><trkpt lat="36.3787235" lon="-2.1679777"><ele>0.0</ele><time>2026-04-29T08:46:14.082Z</time></trkpt><trkpt lat="36.3787691" lon="-2.1678824"><ele>0.0</ele><time>2026-04-29T08:46:15.082Z</time></trkpt><trkpt lat="36.3788093" lon="-2.167787"><ele>0.0</ele><time>2026-04-29T08:46:16.082Z</time></trkpt><trkpt lat="36.3788467" lon="-2.1676935"><ele>0.0</ele><time>2026-04-29T08:46:17.083Z</time></trkpt><trkpt lat="36.3788851" lon="-2.1675949"><ele>0.0</ele><time>2026-04-29T08:46:18.083Z</time></trkpt><trkpt lat="36.3789085" lon="-2.1675087"><ele>0.0</ele><time>2026-04-29T08:46:19.082Z</time></trkpt><trkpt lat="36.3789878" lon="-2.1674223"><ele>0.0</ele><time>2026-04-29T08:46:20.082Z</time></trkpt><trkpt lat="36.3790419" lon="-2.1673305"><ele>0.0</ele><time>2026-04-29T08:46:21.082Z</time></trkpt><trkpt lat="36.3791" lon="-2.1672341"><ele>0.0</ele><time>2026-04-29T08:46:22.082Z</time></trkpt><trkpt lat="36.379153" lon="-2.1671344"><ele>0.0</ele><time>2026-04-29T08:46:23.083Z</time></trkpt><trkpt lat="36.3792068" lon="-2.1670413"><ele>0.0</ele><time>2026-04-29T08:46:24.083Z</time></trkpt><trkpt lat="36.3792126" lon="-2.1669442"><ele>0.0</ele><time>2026-04-29T08:46:25.082Z</time></trkpt><trkpt lat="36.3792602" lon="-2.1668539"><ele>0.0</ele><time>2026-04-29T08:46:26.082Z</time></trkpt><trkpt lat="36.3793466" lon="-2.1666561"><ele>0.0</ele><time>2026-04-29T08:46:28.083Z</time></trkpt><trkpt lat="36.3793951" lon="-2.1665543"><ele>0.0</ele><time>2026-04-29T08:46:29.083Z</time></trkpt><trkpt lat="36.3794213" lon="-2.1664551"><ele>0.0</ele><time>2026-04-29T08:46:30.083Z</time></trkpt><trkpt lat="36.3794706" lon="-2.1663573"><ele>0.0</ele><time>2026-04-29T08:46:31.083Z</time></trkpt><trkpt lat="36.3795194" lon="-2.1662618"><ele>0.0</ele><time>2026-04-29T08:46:32.082Z</time></trkpt><trkpt lat="36.3795404" lon="-2.1661579"><ele>0.0</ele><time>2026-04-29T08:46:33.082Z</time></trkpt><trkpt lat="36.379583" lon="-2.1660597"><ele>0.0</ele><time>2026-04-29T08:46:34.082Z</time></trkpt><trkpt lat="36.3796365" lon="-2.1659629"><ele>0.0</ele><time>2026-04-29T08:46:35.082Z</time></trkpt><trkpt lat="36.3796973" lon="-2.1658754"><ele>0.0</ele><time>2026-04-29T08:46:36.083Z</time></trkpt><trkpt lat="36.3797468" lon="-2.1657846"><ele>0.0</ele><time>2026-04-29T08:46:37.083Z</time></trkpt><trkpt lat="36.3797932" lon="-2.1656986"><ele>0.0</ele><time>2026-04-29T08:46:38.083Z</time></trkpt><trkpt lat="36.3798351" lon="-2.1656139"><ele>0.0</ele><time>2026-04-29T08:46:39.083Z</time></trkpt><trkpt lat="36.3798632" lon="-2.1655307"><ele>0.0</ele><time>2026-04-29T08:46:40.082Z</time></trkpt><trkpt lat="36.3799012" lon="-2.1654444"><ele>0.0</ele><time>2026-04-29T08:46:41.083Z</time></trkpt><trkpt lat="36.3799566" lon="-2.1653448"><ele>0.0</ele><time>2026-04-29T08:46:42.083Z</time></trkpt><trkpt lat="36.3799959" lon="-2.1652507"><ele>0.0</ele><time>2026-04-29T08:46:43.083Z</time></trkpt><trkpt lat="36.3800438" lon="-2.1651486"><ele>0.0</ele><time>2026-04-29T08:46:44.082Z</time></trkpt><trkpt lat="36.3800998" lon="-2.1650521"><ele>0.0</ele><time>2026-04-29T08:46:45.083Z</time></trkpt><trkpt lat="36.3801569" lon="-2.1649543"><ele>0.0</ele><time>2026-04-29T08:46:46.083Z</time></trkpt><trkpt lat="36.3802164" lon="-2.1648597"><ele>0.0</ele><time>2026-04-29T08:46:47.083Z</time></trkpt><trkpt lat="36.3803078" lon="-2.1646598"><ele>0.0</ele><time>2026-04-29T08:46:49.082Z</time></trkpt><trkpt lat="36.3803502" lon="-2.1645688"><ele>0.0</ele><time>2026-04-29T08:46:50.082Z</time></trkpt><trkpt lat="36.3803861" lon="-2.1644796"><ele>0.0</ele><time>2026-04-29T08:46:51.082Z</time></trkpt><trkpt lat="36.3804307" lon="-2.1643756"><ele>0.0</ele><time>2026-04-29T08:46:52.083Z</time></trkpt><trkpt lat="36.380489" lon="-2.1642704"><ele>0.0</ele><time>2026-04-29T08:46:53.083Z</time></trkpt><trkpt lat="36.3805424" lon="-2.1641739"><ele>0.0</ele><time>2026-04-29T08:46:54.083Z</time></trkpt><trkpt lat="36.3805882" lon="-2.1640815"><ele>0.0</ele><time>2026-04-29T08:46:55.083Z</time></trkpt><trkpt lat="36.380636" lon="-2.1639887"><ele>0.0</ele><time>2026-04-29T08:46:56.082Z</time></trkpt><trkpt lat="36.3806771" lon="-2.163897"><ele>0.0</ele><time>2026-04-29T08:46:57.083Z</time></trkpt><trkpt lat="36.3807171" lon="-2.1637996"><ele>0.0</ele><time>2026-04-29T08:46:58.082Z</time></trkpt><trkpt lat="36.3807588" lon="-2.1637006"><ele>0.0</ele><time>2026-04-29T08:46:59.082Z</time></trkpt><trkpt lat="36.3808145" lon="-2.1636064"><ele>0.0</ele><time>2026-04-29T08:47:00.082Z</time></trkpt><trkpt lat="36.3808584" lon="-2.1635087"><ele>0.0</ele><time>2026-04-29T08:47:01.082Z</time></trkpt><trkpt lat="36.3809034" lon="-2.1634163"><ele>0.0</ele><time>2026-04-29T08:47:02.082Z</time></trkpt><trkpt lat="36.3809496" lon="-2.1633246"><ele>0.0</ele><time>2026-04-29T08:47:03.082Z</time></trkpt><trkpt lat="36.3809994" lon="-2.1632309"><ele>0.0</ele><time>2026-04-29T08:47:04.082Z</time></trkpt><trkpt lat="36.3810386" lon="-2.1631341"><ele>0.0</ele><time>2026-04-29T08:47:05.083Z</time></trkpt><trkpt lat="36.381085" lon="-2.1630357"><ele>0.0</ele><time>2026-04-29T08:47:06.082Z</time></trkpt><trkpt lat="36.3811374" lon="-2.1629407"><ele>0.0</ele><time>2026-04-29T08:47:07.083Z</time></trkpt><trkpt lat="36.381187" lon="-2.1628425"><ele>0.0</ele><time>2026-04-29T08:47:08.083Z</time></trkpt><trkpt lat="36.3812791" lon="-2.1626517"><ele>0.0</ele><time>2026-04-29T08:47:10.082Z</time></trkpt><trkpt lat="36.381323" lon="-2.1625587"><ele>0.0</ele><time>2026-04-29T08:47:11.082Z</time></trkpt><trkpt lat="36.3813746" lon="-2.1624678"><ele>0.0</ele><time>2026-04-29T08:47:12.082Z</time></trkpt><trkpt lat="36.3814208" lon="-2.1623807"><ele>0.0</ele><time>2026-04-29T08:47:13.082Z</time></trkpt><trkpt lat="36.3814608" lon="-2.1622883"><ele>0.0</ele><time>2026-04-29T08:47:14.082Z</time></trkpt><trkpt lat="36.3815006" lon="-2.1621879"><ele>0.0</ele><time>2026-04-29T08:47:15.083Z</time></trkpt><trkpt lat="36.3815431" lon="-2.1620913"><ele>0.0</ele><time>2026-04-29T08:47:16.082Z</time></trkpt><trkpt lat="36.3815839" lon="-2.161997"><ele>0.0</ele><time>2026-04-29T08:47:17.083Z</time></trkpt><trkpt lat="36.381608" lon="-2.1619133"><ele>0.0</ele><time>2026-04-29T08:47:18.082Z</time></trkpt><trkpt lat="36.3816409" lon="-2.1618232"><ele>0.0</ele><time>2026-04-29T08:47:19.082Z</time></trkpt><trkpt lat="36.3816819" lon="-2.1617355"><ele>0.0</ele><time>2026-04-29T08:47:20.082Z</time></trkpt><trkpt lat="36.3817263" lon="-2.1616421"><ele>0.0</ele><time>2026-04-29T08:47:21.083Z</time></trkpt><trkpt lat="36.3817818" lon="-2.1615578"><ele>0.0</ele><time>2026-04-29T08:47:22.083Z</time></trkpt><trkpt lat="36.3818329" lon="-2.1614667"><ele>0.0</ele><time>2026-04-29T08:47:23.083Z</time></trkpt><trkpt lat="36.3818863" lon="-2.1613809"><ele>0.0</ele><time>2026-04-29T08:47:24.082Z</time></trkpt><trkpt lat="36.3819382" lon="-2.1612871"><ele>0.0</ele><time>2026-04-29T08:47:25.083Z</time></trkpt><trkpt lat="36.3819844" lon="-2.161192"><ele>0.0</ele><time>2026-04-29T08:47:26.083Z</time></trkpt><trkpt lat="36.3820409" lon="-2.1610977"><ele>0.0</ele><time>2026-04-29T08:47:27.083Z</time></trkpt><trkpt lat="36.3820924" lon="-2.1610075"><ele>0.0</ele><time>2026-04-29T08:47:28.082Z</time></trkpt><trkpt lat="36.382162" lon="-2.1609238"><ele>0.0</ele><time>2026-04-29T08:47:29.082Z</time></trkpt><trkpt lat="36.382277" lon="-2.1607502"><ele>0.0</ele><time>2026-04-29T08:47:31.083Z</time></trkpt><trkpt lat="36.3823344" lon="-2.1606629"><ele>0.0</ele><time>2026-04-29T08:47:32.083Z</time></trkpt><trkpt lat="36.3823853" lon="-2.1605762"><ele>0.0</ele><time>2026-04-29T08:47:33.083Z</time></trkpt><trkpt lat="36.3824466" lon="-2.1604817"><ele>0.0</ele><time>2026-04-29T08:47:34.082Z</time></trkpt><trkpt lat="36.3825062" lon="-2.1603849"><ele>0.0</ele><time>2026-04-29T08:47:35.082Z</time></trkpt><trkpt lat="36.3825645" lon="-2.1602899"><ele>0.0</ele><time>2026-04-29T08:47:36.082Z</time></trkpt><trkpt lat="36.3826099" lon="-2.1602034"><ele>0.0</ele><time>2026-04-29T08:47:37.083Z</time></trkpt><trkpt lat="36.3826417" lon="-2.1601076"><ele>0.0</ele><time>2026-04-29T08:47:38.083Z</time></trkpt><trkpt lat="36.3826959" lon="-2.1600185"><ele>0.0</ele><time>2026-04-29T08:47:39.082Z</time></trkpt><trkpt lat="36.3827495" lon="-2.1599296"><ele>0.0</ele><time>2026-04-29T08:47:40.083Z</time></trkpt><trkpt lat="36.3827928" lon="-2.159837"><ele>0.0</ele><time>2026-04-29T08:47:41.082Z</time></trkpt><trkpt lat="36.3828419" lon="-2.1597483"><ele>0.0</ele><time>2026-04-29T08:47:42.083Z</time></trkpt><trkpt lat="36.3828907" lon="-2.1596568"><ele>0.0</ele><time>2026-04-29T08:47:43.082Z</time></trkpt><trkpt lat="36.3829421" lon="-2.1595717"><ele>0.0</ele><time>2026-04-29T08:47:44.082Z</time></trkpt><trkpt lat="36.3829847" lon="-2.1594835"><ele>0.0</ele><time>2026-04-29T08:47:45.082Z</time></trkpt><trkpt lat="36.3830305" lon="-2.1593907"><ele>0.0</ele><time>2026-04-29T08:47:46.082Z</time></trkpt><trkpt lat="36.383062" lon="-2.1592996"><ele>0.0</ele><time>2026-04-29T08:47:47.083Z</time></trkpt><trkpt lat="36.3831061" lon="-2.1592039"><ele>0.0</ele><time>2026-04-29T08:47:48.082Z</time></trkpt><trkpt lat="36.3831397" lon="-2.1591088"><ele>0.0</ele><time>2026-04-29T08:47:49.083Z</time></trkpt><trkpt lat="36.3831887" lon="-2.1590224"><ele>0.0</ele><time>2026-04-29T08:47:50.082Z</time></trkpt></trkseg><trkseg><trkpt lat="36.7946931" lon="-1.5880458"><ele>0.0</ele><time>2026-04-29T10:44:48.1Z</time></trkpt><trkpt lat="36.7948999" lon="-1.5877227"><ele>0.0</ele><time>2026-04-29T10:44:50.1Z</time></trkpt><trkpt lat="36.7949434" lon="-1.5876411"><ele>0.0</ele><time>2026-04-29T10:44:51.1Z</time></trkpt><trkpt lat="36.7949931" lon="-1.587562"><ele>0.0</ele><time>2026-04-29T10:44:52.099Z</time></trkpt><trkpt lat="36.7950444" lon="-1.5874751"><ele>0.0</ele><time>2026-04-29T10:44:53.099Z</time></trkpt><trkpt lat="36.795106" lon="-1.587387"><ele>0.0</ele><time>2026-04-29T10:44:54.099Z</time></trkpt><trkpt lat="36.7951622" lon="-1.5872973"><ele>0.0</ele><time>2026-04-29T10:44:55.1Z</time></trkpt><trkpt lat="36.7952188" lon="-1.5872071"><ele>0.0</ele><time>2026-04-29T10:44:56.099Z</time></trkpt><trkpt lat="36.7952814" lon="-1.5871262"><ele>0.0</ele><time>2026-04-29T10:44:57.099Z</time></trkpt><trkpt lat="36.7953478" lon="-1.5870564"><ele>0.0</ele><time>2026-04-29T10:44:58.1Z</time></trkpt><trkpt lat="36.7954106" lon="-1.5869811"><ele>0.0</ele><time>2026-04-29T10:44:59.1Z</time></trkpt><trkpt lat="36.7954697" lon="-1.5869055"><ele>0.0</ele><time>2026-04-29T10:45:00.1Z</time></trkpt><trkpt lat="36.7955296" lon="-1.5868303"><ele>0.0</ele><time>2026-04-29T10:45:01.1Z</time></trkpt><trkpt lat="36.795588" lon="-1.5867795"><ele>0.0</ele><time>2026-04-29T10:45:02.1Z</time></trkpt><trkpt lat="36.795645" lon="-1.586723"><ele>0.0</ele><time>2026-04-29T10:45:03.1Z</time></trkpt><trkpt lat="36.7957029" lon="-1.5866621"><ele>0.0</ele><time>2026-04-29T10:45:04.099Z</time></trkpt><trkpt lat="36.7957681" lon="-1.5866032"><ele>0.0</ele><time>2026-04-29T10:45:05.099Z</time></trkpt><trkpt lat="36.7958281" lon="-1.5865418"><ele>0.0</ele><time>2026-04-29T10:45:06.1Z</time></trkpt><trkpt lat="36.7958866" lon="-1.5864748"><ele>0.0</ele><time>2026-04-29T10:45:07.099Z</time></trkpt><trkpt lat="36.7959409" lon="-1.5863992"><ele>0.0</ele><time>2026-04-29T10:45:08.098Z</time></trkpt><trkpt lat="36.7960558" lon="-1.5862638"><ele>0.0</ele><time>2026-04-29T10:45:10.099Z</time></trkpt><trkpt lat="36.7961131" lon="-1.5861894"><ele>0.0</ele><time>2026-04-29T10:45:11.098Z</time></trkpt><trkpt lat="36.79617" lon="-1.5861129"><ele>0.0</ele><time>2026-04-29T10:45:12.098Z</time></trkpt><trkpt lat="36.7962212" lon="-1.5860322"><ele>0.0</ele><time>2026-04-29T10:45:13.099Z</time></trkpt><trkpt lat="36.7962707" lon="-1.58595"><ele>0.0</ele><time>2026-04-29T10:45:14.098Z</time></trkpt><trkpt lat="36.7963277" lon="-1.585871"><ele>0.0</ele><time>2026-04-29T10:45:15.098Z</time></trkpt><trkpt lat="36.7963921" lon="-1.5857887"><ele>0.0</ele><time>2026-04-29T10:45:16.098Z</time></trkpt><trkpt lat="36.7964528" lon="-1.5857112"><ele>0.0</ele><time>2026-04-29T10:45:17.099Z</time></trkpt><trkpt lat="36.7965131" lon="-1.5856388"><ele>0.0</ele><time>2026-04-29T10:45:18.098Z</time></trkpt><trkpt lat="36.7965717" lon="-1.5855643"><ele>0.0</ele><time>2026-04-29T10:45:19.098Z</time></trkpt><trkpt lat="36.7966427" lon="-1.5854875"><ele>0.0</ele><time>2026-04-29T10:45:20.099Z</time></trkpt><trkpt lat="36.7967042" lon="-1.5854056"><ele>0.0</ele><time>2026-04-29T10:45:21.098Z</time></trkpt><trkpt lat="36.7967586" lon="-1.5853235"><ele>0.0</ele><time>2026-04-29T10:45:22.099Z</time></trkpt><trkpt lat="36.7968161" lon="-1.5852405"><ele>0.0</ele><time>2026-04-29T10:45:23.099Z</time></trkpt><trkpt lat="36.7968761" lon="-1.5851542"><ele>0.0</ele><time>2026-04-29T10:45:24.098Z</time></trkpt><trkpt lat="36.7969304" lon="-1.5850761"><ele>0.0</ele><time>2026-04-29T10:45:25.098Z</time></trkpt><trkpt lat="36.7969877" lon="-1.5849894"><ele>0.0</ele><time>2026-04-29T10:45:26.098Z</time></trkpt><trkpt lat="36.797049" lon="-1.5849141"><ele>0.0</ele><time>2026-04-29T10:45:27.099Z</time></trkpt><trkpt lat="36.7971075" lon="-1.5848319"><ele>0.0</ele><time>2026-04-29T10:45:28.099Z</time></trkpt><trkpt lat="36.7971636" lon="-1.584754"><ele>0.0</ele><time>2026-04-29T10:45:29.098Z</time></trkpt><trkpt lat="36.7972827" lon="-1.5845954"><ele>0.0</ele><time>2026-04-29T10:45:31.099Z</time></trkpt><trkpt lat="36.7973401" lon="-1.584514"><ele>0.0</ele><time>2026-04-29T10:45:32.099Z</time></trkpt><trkpt lat="36.7973967" lon="-1.5844293"><ele>0.0</ele><time>2026-04-29T10:45:33.099Z</time></trkpt><trkpt lat="36.7974519" lon="-1.5843484"><ele>0.0</ele><time>2026-04-29T10:45:34.099Z</time></trkpt><trkpt lat="36.7975085" lon="-1.5842698"><ele>0.0</ele><time>2026-04-29T10:45:35.098Z</time></trkpt><trkpt lat="36.7975652" lon="-1.58419"><ele>0.0</ele><time>2026-04-29T10:45:36.099Z</time></trkpt><trkpt lat="36.7976199" lon="-1.5841086"><ele>0.0</ele><time>2026-04-29T10:45:37.099Z</time></trkpt><trkpt lat="36.7976767" lon="-1.5840284"><ele>0.0</ele><time>2026-04-29T10:45:38.098Z</time></trkpt><trkpt lat="36.7977287" lon="-1.583945"><ele>0.0</ele><time>2026-04-29T10:45:39.099Z</time></trkpt><trkpt lat="36.7977819" lon="-1.583862"><ele>0.0</ele><time>2026-04-29T10:45:40.098Z</time></trkpt><trkpt lat="36.7978392" lon="-1.5837744"><ele>0.0</ele><time>2026-04-29T10:45:41.099Z</time></trkpt><trkpt lat="36.7978947" lon="-1.5836916"><ele>0.0</ele><time>2026-04-29T10:45:42.098Z</time></trkpt><trkpt lat="36.797951" lon="-1.5836166"><ele>0.0</ele><time>2026-04-29T10:45:43.098Z</time></trkpt><trkpt lat="36.7980135" lon="-1.5835361"><ele>0.0</ele><time>2026-04-29T10:45:44.098Z</time></trkpt><trkpt lat="36.7980717" lon="-1.5834494"><ele>0.0</ele><time>2026-04-29T10:45:45.099Z</time></trkpt><trkpt lat="36.7981226" lon="-1.5833657"><ele>0.0</ele><time>2026-04-29T10:45:46.099Z</time></trkpt><trkpt lat="36.7981726" lon="-1.5832792"><ele>0.0</ele><time>2026-04-29T10:45:47.098Z</time></trkpt><trkpt lat="36.7982254" lon="-1.5831995"><ele>0.0</ele><time>2026-04-29T10:45:48.098Z</time></trkpt><trkpt lat="36.7982844" lon="-1.5831143"><ele>0.0</ele><time>2026-04-29T10:45:49.099Z</time></trkpt><trkpt lat="36.7983471" lon="-1.5830418"><ele>0.0</ele><time>2026-04-29T10:45:50.098Z</time></trkpt><trkpt lat="36.7984721" lon="-1.582883"><ele>0.0</ele><time>2026-04-29T10:45:52.098Z</time></trkpt><trkpt lat="36.7985384" lon="-1.5828011"><ele>0.0</ele><time>2026-04-29T10:45:53.098Z</time></trkpt><trkpt lat="36.7985938" lon="-1.5827196"><ele>0.0</ele><time>2026-04-29T10:45:54.099Z</time></trkpt><trkpt lat="36.7986428" lon="-1.5826383"><ele>0.0</ele><time>2026-04-29T10:45:55.098Z</time></trkpt><trkpt lat="36.7986923" lon="-1.5825515"><ele>0.0</ele><time>2026-04-29T10:45:56.098Z</time></trkpt><trkpt lat="36.7987423" lon="-1.5824656"><ele>0.0</ele><time>2026-04-29T10:45:57.098Z</time></trkpt><trkpt lat="36.7987969" lon="-1.5823851"><ele>0.0</ele><time>2026-04-29T10:45:58.099Z</time></trkpt><trkpt lat="36.7988505" lon="-1.5823073"><ele>0.0</ele><time>2026-04-29T10:45:59.098Z</time></trkpt><trkpt lat="36.7988994" lon="-1.5822317"><ele>0.0</ele><time>2026-04-29T10:46:00.098Z</time></trkpt><trkpt lat="36.7989507" lon="-1.5821542"><ele>0.0</ele><time>2026-04-29T10:46:01.098Z</time></trkpt><trkpt lat="36.7990036" lon="-1.5820751"><ele>0.0</ele><time>2026-04-29T10:46:02.098Z</time></trkpt><trkpt lat="36.7990597" lon="-1.5819922"><ele>0.0</ele><time>2026-04-29T10:46:03.098Z</time></trkpt><trkpt lat="36.7991123" lon="-1.5819117"><ele>0.0</ele><time>2026-04-29T10:46:04.099Z</time></trkpt><trkpt lat="36.7991649" lon="-1.5818359"><ele>0.0</ele><time>2026-04-29T10:46:05.098Z</time></trkpt><trkpt lat="36.7992199" lon="-1.5817606"><ele>0.0</ele><time>2026-04-29T10:46:06.099Z</time></trkpt><trkpt lat="36.7992778" lon="-1.5816784"><ele>0.0</ele><time>2026-04-29T10:46:07.099Z</time></trkpt><trkpt lat="36.7993344" lon="-1.5816008"><ele>0.0</ele><time>2026-04-29T10:46:08.098Z</time></trkpt><trkpt lat="36.7993883" lon="-1.5815169"><ele>0.0</ele><time>2026-04-29T10:46:09.098Z</time></trkpt><trkpt lat="36.7994422" lon="-1.5814365"><ele>0.0</ele><time>2026-04-29T10:46:10.099Z</time></trkpt><trkpt lat="36.7995546" lon="-1.5812714"><ele>0.0</ele><time>2026-04-29T10:46:12.098Z</time></trkpt><trkpt lat="36.7996116" lon="-1.5811868"><ele>0.0</ele><time>2026-04-29T10:46:13.099Z</time></trkpt><trkpt lat="36.7996641" lon="-1.5810932"><ele>0.0</ele><time>2026-04-29T10:46:14.098Z</time></trkpt><trkpt lat="36.7997185" lon="-1.5810082"><ele>0.0</ele><time>2026-04-29T10:46:15.098Z</time></trkpt><trkpt lat="36.7997764" lon="-1.5809175"><ele>0.0</ele><time>2026-04-29T10:46:16.099Z</time></trkpt><trkpt lat="36.7998333" lon="-1.5808403"><ele>0.0</ele><time>2026-04-29T10:46:17.099Z</time></trkpt><trkpt lat="36.7998871" lon="-1.5807614"><ele>0.0</ele><time>2026-04-29T10:46:18.099Z</time></trkpt><trkpt lat="36.7999492" lon="-1.5806862"><ele>0.0</ele><time>2026-04-29T10:46:19.098Z</time></trkpt><trkpt lat="36.800005" lon="-1.5806062"><ele>0.0</ele><time>2026-04-29T10:46:20.099Z</time></trkpt><trkpt lat="36.8000613" lon="-1.5805265"><ele>0.0</ele><time>2026-04-29T10:46:21.098Z</time></trkpt><trkpt lat="36.8001137" lon="-1.5804506"><ele>0.0</ele><time>2026-04-29T10:46:22.098Z</time></trkpt><trkpt lat="36.8001725" lon="-1.5803728"><ele>0.0</ele><time>2026-04-29T10:46:23.099Z</time></trkpt><trkpt lat="36.8002315" lon="-1.580296"><ele>0.0</ele><time>2026-04-29T10:46:24.099Z</time></trkpt><trkpt lat="36.8002897" lon="-1.5802149"><ele>0.0</ele><time>2026-04-29T10:46:25.099Z</time></trkpt><trkpt lat="36.800345" lon="-1.5801351"><ele>0.0</ele><time>2026-04-29T10:46:26.099Z</time></trkpt><trkpt lat="36.8004086" lon="-1.5800619"><ele>0.0</ele><time>2026-04-29T10:46:27.099Z</time></trkpt><trkpt lat="36.8004692" lon="-1.5799872"><ele>0.0</ele><time>2026-04-29T10:46:28.099Z</time></trkpt><trkpt lat="36.8005282" lon="-1.5799158"><ele>0.0</ele><time>2026-04-29T10:46:29.098Z</time></trkpt><trkpt lat="36.8005839" lon="-1.5798395"><ele>0.0</ele><time>2026-04-29T10:46:30.098Z</time></trkpt><trkpt lat="36.8006429" lon="-1.579764"><ele>0.0</ele><time>2026-04-29T10:46:31.098Z</time></trkpt><trkpt lat="36.8007427" lon="-1.5795962"><ele>0.0</ele><time>2026-04-29T10:46:33.098Z</time></trkpt><trkpt lat="36.8007974" lon="-1.5795081"><ele>0.0</ele><time>2026-04-29T10:46:34.099Z</time></trkpt><trkpt lat="36.8008548" lon="-1.5794211"><ele>0.0</ele><time>2026-04-29T10:46:35.098Z</time></trkpt><trkpt lat="36.8009159" lon="-1.5793358"><ele>0.0</ele><time>2026-04-29T10:46:36.099Z</time></trkpt><trkpt lat="36.8009747" lon="-1.5792482"><ele>0.0</ele><time>2026-04-29T10:46:37.098Z</time></trkpt><trkpt lat="36.8010302" lon="-1.5791629"><ele>0.0</ele><time>2026-04-29T10:46:38.098Z</time></trkpt><trkpt lat="36.801092" lon="-1.5790872"><ele>0.0</ele><time>2026-04-29T10:46:39.099Z</time></trkpt><trkpt lat="36.8011557" lon="-1.5790053"><ele>0.0</ele><time>2026-04-29T10:46:40.099Z</time></trkpt><trkpt lat="36.8012162" lon="-1.5789292"><ele>0.0</ele><time>2026-04-29T10:46:41.098Z</time></trkpt><trkpt lat="36.8012791" lon="-1.5788544"><ele>0.0</ele><time>2026-04-29T10:46:42.098Z</time></trkpt><trkpt lat="36.8013361" lon="-1.5787736"><ele>0.0</ele><time>2026-04-29T10:46:43.098Z</time></trkpt><trkpt lat="36.801392" lon="-1.5786887"><ele>0.0</ele><time>2026-04-29T10:46:44.099Z</time></trkpt><trkpt lat="36.8014509" lon="-1.5785984"><ele>0.0</ele><time>2026-04-29T10:46:45.098Z</time></trkpt><trkpt lat="36.8015054" lon="-1.5785153"><ele>0.0</ele><time>2026-04-29T10:46:46.098Z</time></trkpt><trkpt lat="36.8015574" lon="-1.5784336"><ele>0.0</ele><time>2026-04-29T10:46:47.098Z</time></trkpt><trkpt lat="36.8016132" lon="-1.5783506"><ele>0.0</ele><time>2026-04-29T10:46:48.098Z</time></trkpt><trkpt lat="36.801667" lon="-1.5782697"><ele>0.0</ele><time>2026-04-29T10:46:49.098Z</time></trkpt><trkpt lat="36.8017275" lon="-1.5781885"><ele>0.0</ele><time>2026-04-29T10:46:50.098Z</time></trkpt><trkpt lat="36.8017906" lon="-1.5781066"><ele>0.0</ele><time>2026-04-29T10:46:51.098Z</time></trkpt><trkpt lat="36.8018496" lon="-1.5780316"><ele>0.0</ele><time>2026-04-29T10:46:52.099Z</time></trkpt><trkpt lat="36.8019635" lon="-1.5778757"><ele>0.0</ele><time>2026-04-29T10:46:54.099Z</time></trkpt><trkpt lat="36.8020195" lon="-1.5777933"><ele>0.0</ele><time>2026-04-29T10:46:55.098Z</time></trkpt><trkpt lat="36.8020805" lon="-1.5777123"><ele>0.0</ele><time>2026-04-29T10:46:56.098Z</time></trkpt><trkpt lat="36.8021366" lon="-1.5776341"><ele>0.0</ele><time>2026-04-29T10:46:57.099Z</time></trkpt><trkpt lat="36.802196" lon="-1.5775487"><ele>0.0</ele><time>2026-04-29T10:46:58.098Z</time></trkpt><trkpt lat="36.8022534" lon="-1.5774567"><ele>0.0</ele><time>2026-04-29T10:46:59.098Z</time></trkpt><trkpt lat="36.8023114" lon="-1.5773766"><ele>0.0</ele><time>2026-04-29T10:47:00.098Z</time></trkpt><trkpt lat="36.802367" lon="-1.577301"><ele>0.0</ele><time>2026-04-29T10:47:01.099Z</time></trkpt><trkpt lat="36.8024175" lon="-1.5772185"><ele>0.0</ele><time>2026-04-29T10:47:02.099Z</time></trkpt><trkpt lat="36.8024705" lon="-1.5771341"><ele>0.0</ele><time>2026-04-29T10:47:03.099Z</time></trkpt><trkpt lat="36.8025153" lon="-1.577053"><ele>0.0</ele><time>2026-04-29T10:47:04.099Z</time></trkpt><trkpt lat="36.8025629" lon="-1.5769761"><ele>0.0</ele><time>2026-04-29T10:47:05.099Z</time></trkpt><trkpt lat="36.8026128" lon="-1.5768951"><ele>0.0</ele><time>2026-04-29T10:47:06.098Z</time></trkpt><trkpt lat="36.8026637" lon="-1.5768137"><ele>0.0</ele><time>2026-04-29T10:47:07.098Z</time></trkpt><trkpt lat="36.8027172" lon="-1.5767388"><ele>0.0</ele><time>2026-04-29T10:47:08.099Z</time></trkpt><trkpt lat="36.8027737" lon="-1.576662"><ele>0.0</ele><time>2026-04-29T10:47:09.098Z</time></trkpt><trkpt lat="36.8028273" lon="-1.5765874"><ele>0.0</ele><time>2026-04-29T10:47:10.099Z</time></trkpt><trkpt lat="36.8028907" lon="-1.5765054"><ele>0.0</ele><time>2026-04-29T10:47:11.099Z</time></trkpt><trkpt lat="36.8029522" lon="-1.5764219"><ele>0.0</ele><time>2026-04-29T10:47:12.098Z</time></trkpt><trkpt lat="36.8030111" lon="-1.5763406"><ele>0.0</ele><time>2026-04-29T10:47:13.098Z</time></trkpt><trkpt lat="36.8031152" lon="-1.5761805"><ele>0.0</ele><time>2026-04-29T10:47:15.098Z</time></trkpt><trkpt lat="36.8031645" lon="-1.5761005"><ele>0.0</ele><time>2026-04-29T10:47:16.099Z</time></trkpt><trkpt lat="36.8032243" lon="-1.5760219"><ele>0.0</ele><time>2026-04-29T10:47:17.099Z</time></trkpt><trkpt lat="36.8032859" lon="-1.5759408"><ele>0.0</ele><time>2026-04-29T10:47:18.099Z</time></trkpt><trkpt lat="36.8033377" lon="-1.5758541"><ele>0.0</ele><time>2026-04-29T10:47:19.099Z</time></trkpt><trkpt lat="36.8033907" lon="-1.5757793"><ele>0.0</ele><time>2026-04-29T10:47:20.098Z</time></trkpt><trkpt lat="36.8034454" lon="-1.5756986"><ele>0.0</ele><time>2026-04-29T10:47:21.098Z</time></trkpt><trkpt lat="36.8035021" lon="-1.5756182"><ele>0.0</ele><time>2026-04-29T10:47:22.098Z</time></trkpt><trkpt lat="36.8035556" lon="-1.5755361"><ele>0.0</ele><time>2026-04-29T10:47:23.098Z</time></trkpt><trkpt lat="36.8036152" lon="-1.5754498"><ele>0.0</ele><time>2026-04-29T10:47:24.098Z</time></trkpt><trkpt lat="36.8036719" lon="-1.5753727"><ele>0.0</ele><time>2026-04-29T10:47:25.098Z</time></trkpt><trkpt lat="36.8037315" lon="-1.5752893"><ele>0.0</ele><time>2026-04-29T10:47:26.099Z</time></trkpt><trkpt lat="36.803787" lon="-1.5751996"><ele>0.0</ele><time>2026-04-29T10:47:27.098Z</time></trkpt><trkpt lat="36.8038423" lon="-1.5751127"><ele>0.0</ele><time>2026-04-29T10:47:28.099Z</time></trkpt><trkpt lat="36.8038974" lon="-1.575033"><ele>0.0</ele><time>2026-04-29T10:47:29.098Z</time></trkpt><trkpt lat="36.8039579" lon="-1.5749549"><ele>0.0</ele><time>2026-04-29T10:47:30.099Z</time></trkpt><trkpt lat="36.8040138" lon="-1.5748752"><ele>0.0</ele><time>2026-04-29T10:47:31.099Z</time></trkpt><trkpt lat="36.8040715" lon="-1.5747925"><ele>0.0</ele><time>2026-04-29T10:47:32.099Z</time></trkpt><trkpt lat="36.8041325" lon="-1.5747017"><ele>0.0</ele><time>2026-04-29T10:47:33.099Z</time></trkpt><trkpt lat="36.8041867" lon="-1.5746159"><ele>0.0</ele><time>2026-04-29T10:47:34.099Z</time></trkpt><trkpt lat="36.8042953" lon="-1.5744575"><ele>0.0</ele><time>2026-04-29T10:47:36.098Z</time></trkpt><trkpt lat="36.8043516" lon="-1.5743795"><ele>0.0</ele><time>2026-04-29T10:47:37.099Z</time></trkpt><trkpt lat="36.8044076" lon="-1.5743021"><ele>0.0</ele><time>2026-04-29T10:47:38.099Z</time></trkpt><trkpt lat="36.8044622" lon="-1.5742246"><ele>0.0</ele><time>2026-04-29T10:47:39.098Z</time></trkpt><trkpt lat="36.8045113" lon="-1.5741421"><ele>0.0</ele><time>2026-04-29T10:47:40.098Z</time></trkpt><trkpt lat="36.8045593" lon="-1.5740557"><ele>0.0</ele><time>2026-04-29T10:47:41.099Z</time></trkpt><trkpt lat="36.8046276" lon="-1.5739719"><ele>0.0</ele><time>2026-04-29T10:47:42.099Z</time></trkpt><trkpt lat="36.8046916" lon="-1.5738869"><ele>0.0</ele><time>2026-04-29T10:47:43.099Z</time></trkpt><trkpt lat="36.8047554" lon="-1.5738065"><ele>0.0</ele><time>2026-04-29T10:47:44.099Z</time></trkpt><trkpt lat="36.8048044" lon="-1.5737236"><ele>0.0</ele><time>2026-04-29T10:47:45.099Z</time></trkpt><trkpt lat="36.8048582" lon="-1.5736416"><ele>0.0</ele><time>2026-04-29T10:47:46.099Z</time></trkpt><trkpt lat="36.8049147" lon="-1.5735586"><ele>0.0</ele><time>2026-04-29T10:47:47.099Z</time></trkpt><trkpt lat="36.8049701" lon="-1.5734812"><ele>0.0</ele><time>2026-04-29T10:47:48.099Z</time></trkpt><trkpt lat="36.8050223" lon="-1.5733942"><ele>0.0</ele><time>2026-04-29T10:47:49.098Z</time></trkpt><trkpt lat="36.805084" lon="-1.5733105"><ele>0.0</ele><time>2026-04-29T10:47:50.098Z</time></trkpt><trkpt lat="36.8051454" lon="-1.57323"><ele>0.0</ele><time>2026-04-29T10:47:51.099Z</time></trkpt><trkpt lat="36.8052074" lon="-1.5731508"><ele>0.0</ele><time>2026-04-29T10:47:52.099Z</time></trkpt><trkpt lat="36.8052623" lon="-1.5730659"><ele>0.0</ele><time>2026-04-29T10:47:53.099Z</time></trkpt><trkpt lat="36.805313" lon="-1.5729879"><ele>0.0</ele><time>2026-04-29T10:47:54.098Z</time></trkpt><trkpt lat="36.8053685" lon="-1.5729076"><ele>0.0</ele><time>2026-04-29T10:47:55.098Z</time></trkpt><trkpt lat="36.8054832" lon="-1.5727578"><ele>0.0</ele><time>2026-04-29T10:47:57.098Z</time></trkpt><trkpt lat="36.8055455" lon="-1.5726722"><ele>0.0</ele><time>2026-04-29T10:47:58.098Z</time></trkpt><trkpt lat="36.8055988" lon="-1.5725903"><ele>0.0</ele><time>2026-04-29T10:47:59.099Z</time></trkpt><trkpt lat="36.8056551" lon="-1.5725098"><ele>0.0</ele><time>2026-04-29T10:48:00.098Z</time></trkpt><trkpt lat="36.805706" lon="-1.5724284"><ele>0.0</ele><time>2026-04-29T10:48:01.099Z</time></trkpt><trkpt lat="36.8057597" lon="-1.5723441"><ele>0.0</ele><time>2026-04-29T10:48:02.099Z</time></trkpt><trkpt lat="36.8058195" lon="-1.5722635"><ele>0.0</ele><time>2026-04-29T10:48:03.098Z</time></trkpt><trkpt lat="36.8058808" lon="-1.5721828"><ele>0.0</ele><time>2026-04-29T10:48:04.098Z</time></trkpt><trkpt lat="36.805941" lon="-1.5721045"><ele>0.0</ele><time>2026-04-29T10:48:05.099Z</time></trkpt><trkpt lat="36.8060027" lon="-1.5720332"><ele>0.0</ele><time>2026-04-29T10:48:06.098Z</time></trkpt><trkpt lat="36.8060559" lon="-1.5719532"><ele>0.0</ele><time>2026-04-29T10:48:07.099Z</time></trkpt><trkpt lat="36.8061105" lon="-1.5718733"><ele>0.0</ele><time>2026-04-29T10:48:08.098Z</time></trkpt><trkpt lat="36.8061678" lon="-1.5717988"><ele>0.0</ele><time>2026-04-29T10:48:09.099Z</time></trkpt><trkpt lat="36.8062309" lon="-1.571721"><ele>0.0</ele><time>2026-04-29T10:48:10.098Z</time></trkpt><trkpt lat="36.8062872" lon="-1.5716392"><ele>0.0</ele><time>2026-04-29T10:48:11.098Z</time></trkpt><trkpt lat="36.8063364" lon="-1.5715502"><ele>0.0</ele><time>2026-04-29T10:48:12.099Z</time></trkpt><trkpt lat="36.8063958" lon="-1.5714667"><ele>0.0</ele><time>2026-04-29T10:48:13.099Z</time></trkpt><trkpt lat="36.8064634" lon="-1.5713836"><ele>0.0</ele><time>2026-04-29T10:48:14.098Z</time></trkpt><trkpt lat="36.8065229" lon="-1.571295"><ele>0.0</ele><time>2026-04-29T10:48:15.099Z</time></trkpt><trkpt lat="36.8065831" lon="-1.5712066"><ele>0.0</ele><time>2026-04-29T10:48:16.098Z</time></trkpt><trkpt lat="36.8066801" lon="-1.57105"><ele>0.0</ele><time>2026-04-29T10:48:18.099Z</time></trkpt><trkpt lat="36.8067299" lon="-1.5709754"><ele>0.0</ele><time>2026-04-29T10:48:19.098Z</time></trkpt><trkpt lat="36.8067823" lon="-1.5708919"><ele>0.0</ele><time>2026-04-29T10:48:20.098Z</time></trkpt><trkpt lat="36.8068326" lon="-1.5708057"><ele>0.0</ele><time>2026-04-29T10:48:21.099Z</time></trkpt><trkpt lat="36.8068897" lon="-1.5707262"><ele>0.0</ele><time>2026-04-29T10:48:22.099Z</time></trkpt><trkpt lat="36.8069511" lon="-1.5706464"><ele>0.0</ele><time>2026-04-29T10:48:23.098Z</time></trkpt><trkpt lat="36.8070166" lon="-1.5705553"><ele>0.0</ele><time>2026-04-29T10:48:24.098Z</time></trkpt><trkpt lat="36.8070722" lon="-1.5704773"><ele>0.0</ele><time>2026-04-29T10:48:25.098Z</time></trkpt><trkpt lat="36.8071356" lon="-1.5703939"><ele>0.0</ele><time>2026-04-29T10:48:26.098Z</time></trkpt><trkpt lat="36.807196" lon="-1.5703147"><ele>0.0</ele><time>2026-04-29T10:48:27.099Z</time></trkpt><trkpt lat="36.8072547" lon="-1.570243"><ele>0.0</ele><time>2026-04-29T10:48:28.099Z</time></trkpt><trkpt lat="36.8073079" lon="-1.5701647"><ele>0.0</ele><time>2026-04-29T10:48:29.099Z</time></trkpt><trkpt lat="36.8073575" lon="-1.5700806"><ele>0.0</ele><time>2026-04-29T10:48:30.098Z</time></trkpt><trkpt lat="36.807412" lon="-1.5699972"><ele>0.0</ele><time>2026-04-29T10:48:31.098Z</time></trkpt><trkpt lat="36.8074697" lon="-1.569919"><ele>0.0</ele><time>2026-04-29T10:48:32.098Z</time></trkpt><trkpt lat="36.8075292" lon="-1.5698381"><ele>0.0</ele><time>2026-04-29T10:48:33.098Z</time></trkpt><trkpt lat="36.807582" lon="-1.5697563"><ele>0.0</ele><time>2026-04-29T10:48:34.098Z</time></trkpt><trkpt lat="36.8076353" lon="-1.5696749"><ele>0.0</ele><time>2026-04-29T10:48:35.099Z</time></trkpt><trkpt lat="36.8076932" lon="-1.5695923"><ele>0.0</ele><time>2026-04-29T10:48:36.099Z</time></trkpt><trkpt lat="36.8077501" lon="-1.5695076"><ele>0.0</ele><time>2026-04-29T10:48:37.099Z</time></trkpt><trkpt lat="36.8078608" lon="-1.5693399"><ele>0.0</ele><time>2026-04-29T10:48:39.098Z</time></trkpt><trkpt lat="36.8079181" lon="-1.5692645"><ele>0.0</ele><time>2026-04-29T10:48:40.098Z</time></trkpt><trkpt lat="36.8079724" lon="-1.569182"><ele>0.0</ele><time>2026-04-29T10:48:41.098Z</time></trkpt><trkpt lat="36.8080217" lon="-1.5690988"><ele>0.0</ele><time>2026-04-29T10:48:42.099Z</time></trkpt><trkpt lat="36.8080769" lon="-1.5690201"><ele>0.0</ele><time>2026-04-29T10:48:43.098Z</time></trkpt><trkpt lat="36.8081333" lon="-1.5689375"><ele>0.0</ele><time>2026-04-29T10:48:44.099Z</time></trkpt><trkpt lat="36.8081918" lon="-1.5688597"><ele>0.0</ele><time>2026-04-29T10:48:45.099Z</time></trkpt><trkpt lat="36.8082502" lon="-1.56878"><ele>0.0</ele><time>2026-04-29T10:48:46.098Z</time></trkpt><trkpt lat="36.8083125" lon="-1.5687028"><ele>0.0</ele><time>2026-04-29T10:48:47.098Z</time></trkpt><trkpt lat="36.8083774" lon="-1.5686218"><ele>0.0</ele><time>2026-04-29T10:48:48.098Z</time></trkpt><trkpt lat="36.8084326" lon="-1.568536"><ele>0.0</ele><time>2026-04-29T10:48:49.098Z</time></trkpt><trkpt lat="36.8084832" lon="-1.5684606"><ele>0.0</ele><time>2026-04-29T10:48:50.098Z</time></trkpt><trkpt lat="36.8085399" lon="-1.5683842"><ele>0.0</ele><time>2026-04-29T10:48:51.099Z</time></trkpt><trkpt lat="36.8085968" lon="-1.5683007"><ele>0.0</ele><time>2026-04-29T10:48:52.098Z</time></trkpt><trkpt lat="36.8086577" lon="-1.5682215"><ele>0.0</ele><time>2026-04-29T10:48:53.099Z</time></trkpt><trkpt lat="36.8087209" lon="-1.5681362"><ele>0.0</ele><time>2026-04-29T10:48:54.099Z</time></trkpt><trkpt lat="36.8087865" lon="-1.5680566"><ele>0.0</ele><time>2026-04-29T10:48:55.098Z</time></trkpt><trkpt lat="36.8088488" lon="-1.5679752"><ele>0.0</ele><time>2026-04-29T10:48:56.099Z</time></trkpt><trkpt lat="36.808908" lon="-1.5679002"><ele>0.0</ele><time>2026-04-29T10:48:57.098Z</time></trkpt><trkpt lat="36.8089677" lon="-1.5678255"><ele>0.0</ele><time>2026-04-29T10:48:58.098Z</time></trkpt><trkpt lat="36.8090786" lon="-1.5676806"><ele>0.0</ele><time>2026-04-29T10:49:00.099Z</time></trkpt><trkpt lat="36.8091336" lon="-1.5676027"><ele>0.0</ele><time>2026-04-29T10:49:01.099Z</time></trkpt><trkpt lat="36.8091919" lon="-1.5675208"><ele>0.0</ele><time>2026-04-29T10:49:02.098Z</time></trkpt><trkpt lat="36.809243" lon="-1.5674288"><ele>0.0</ele><time>2026-04-29T10:49:03.099Z</time></trkpt><trkpt lat="36.8092946" lon="-1.5673481"><ele>0.0</ele><time>2026-04-29T10:49:04.099Z</time></trkpt><trkpt lat="36.8093517" lon="-1.5672666"><ele>0.0</ele><time>2026-04-29T10:49:05.098Z</time></trkpt><trkpt lat="36.8094126" lon="-1.5671835"><ele>0.0</ele><time>2026-04-29T10:49:06.099Z</time></trkpt><trkpt lat="36.8094732" lon="-1.5671019"><ele>0.0</ele><time>2026-04-29T10:49:07.099Z</time></trkpt><trkpt lat="36.8095416" lon="-1.5670173"><ele>0.0</ele><time>2026-04-29T10:49:08.098Z</time></trkpt><trkpt lat="36.8096018" lon="-1.5669314"><ele>0.0</ele><time>2026-04-29T10:49:09.098Z</time></trkpt><trkpt lat="36.8096683" lon="-1.5668531"><ele>0.0</ele><time>2026-04-29T10:49:10.099Z</time></trkpt><trkpt lat="36.809724" lon="-1.5667732"><ele>0.0</ele><time>2026-04-29T10:49:11.098Z</time></trkpt><trkpt lat="36.8097849" lon="-1.5666847"><ele>0.0</ele><time>2026-04-29T10:49:12.098Z</time></trkpt><trkpt lat="36.8098336" lon="-1.5665967"><ele>0.0</ele><time>2026-04-29T10:49:13.098Z</time></trkpt><trkpt lat="36.8098918" lon="-1.5665127"><ele>0.0</ele><time>2026-04-29T10:49:14.099Z</time></trkpt><trkpt lat="36.8099541" lon="-1.5664319"><ele>0.0</ele><time>2026-04-29T10:49:15.099Z</time></trkpt><trkpt lat="36.8100173" lon="-1.566356"><ele>0.0</ele><time>2026-04-29T10:49:16.099Z</time></trkpt><trkpt lat="36.8100767" lon="-1.5662841"><ele>0.0</ele><time>2026-04-29T10:49:17.099Z</time></trkpt><trkpt lat="36.8101236" lon="-1.566205"><ele>0.0</ele><time>2026-04-29T10:49:18.098Z</time></trkpt><trkpt lat="36.810166" lon="-1.5661289"><ele>0.0</ele><time>2026-04-29T10:49:19.099Z</time></trkpt><trkpt lat="36.810276" lon="-1.5659764"><ele>0.0</ele><time>2026-04-29T10:49:21.098Z</time></trkpt><trkpt lat="36.8103318" lon="-1.5658833"><ele>0.0</ele><time>2026-04-29T10:49:22.099Z</time></trkpt><trkpt lat="36.81039" lon="-1.5657986"><ele>0.0</ele><time>2026-04-29T10:49:23.098Z</time></trkpt><trkpt lat="36.8104496" lon="-1.565711"><ele>0.0</ele><time>2026-04-29T10:49:24.098Z</time></trkpt><trkpt lat="36.8105035" lon="-1.5656312"><ele>0.0</ele><time>2026-04-29T10:49:25.098Z</time></trkpt><trkpt lat="36.8105598" lon="-1.5655512"><ele>0.0</ele><time>2026-04-29T10:49:26.099Z</time></trkpt><trkpt lat="36.8106095" lon="-1.5654865"><ele>0.0</ele><time>2026-04-29T10:49:27.099Z</time></trkpt><trkpt lat="36.8106748" lon="-1.5654036"><ele>0.0</ele><time>2026-04-29T10:49:28.099Z</time></trkpt><trkpt lat="36.8107345" lon="-1.5653164"><ele>0.0</ele><time>2026-04-29T10:49:29.099Z</time></trkpt><trkpt lat="36.8107877" lon="-1.5652242"><ele>0.0</ele><time>2026-04-29T10:49:30.099Z</time></trkpt><trkpt lat="36.8108463" lon="-1.5651335"><ele>0.0</ele><time>2026-04-29T10:49:31.098Z</time></trkpt><trkpt lat="36.8108919" lon="-1.5650448"><ele>0.0</ele><time>2026-04-29T10:49:32.098Z</time></trkpt><trkpt lat="36.8109408" lon="-1.5649632"><ele>0.0</ele><time>2026-04-29T10:49:33.098Z</time></trkpt><trkpt lat="36.8109977" lon="-1.564882"><ele>0.0</ele><time>2026-04-29T10:49:34.098Z</time></trkpt><trkpt lat="36.8110532" lon="-1.5647973"><ele>0.0</ele><time>2026-04-29T10:49:35.099Z</time></trkpt><trkpt lat="36.8111084" lon="-1.5647149"><ele>0.0</ele><time>2026-04-29T10:49:36.099Z</time></trkpt><trkpt lat="36.8111708" lon="-1.5646331"><ele>0.0</ele><time>2026-04-29T10:49:37.098Z</time></trkpt><trkpt lat="36.8112257" lon="-1.5645492"><ele>0.0</ele><time>2026-04-29T10:49:38.098Z</time></trkpt><trkpt lat="36.8112761" lon="-1.5644655"><ele>0.0</ele><time>2026-04-29T10:49:39.099Z</time></trkpt><trkpt lat="36.8113773" lon="-1.5643015"><ele>0.0</ele><time>2026-04-29T10:49:41.098Z</time></trkpt><trkpt lat="36.8114306" lon="-1.56422"><ele>0.0</ele><time>2026-04-29T10:49:42.099Z</time></trkpt><trkpt lat="36.8114825" lon="-1.5641357"><ele>0.0</ele><time>2026-04-29T10:49:43.098Z</time></trkpt><trkpt lat="36.8115396" lon="-1.5640534"><ele>0.0</ele><time>2026-04-29T10:49:44.098Z</time></trkpt><trkpt lat="36.8115952" lon="-1.5639661"><ele>0.0</ele><time>2026-04-29T10:49:45.099Z</time></trkpt><trkpt lat="36.8116545" lon="-1.563885"><ele>0.0</ele><time>2026-04-29T10:49:46.099Z</time></trkpt><trkpt lat="36.8117118" lon="-1.5638064"><ele>0.0</ele><time>2026-04-29T10:49:47.098Z</time></trkpt><trkpt lat="36.8117702" lon="-1.5637369"><ele>0.0</ele><time>2026-04-29T10:49:48.099Z</time></trkpt><trkpt lat="36.8118281" lon="-1.5636625"><ele>0.0</ele><time>2026-04-29T10:49:49.098Z</time></trkpt><trkpt lat="36.8118892" lon="-1.5635876"><ele>0.0</ele><time>2026-04-29T10:49:50.099Z</time></trkpt><trkpt lat="36.8119511" lon="-1.5635095"><ele>0.0</ele><time>2026-04-29T10:49:51.098Z</time></trkpt><trkpt lat="36.8120053" lon="-1.5634285"><ele>0.0</ele><time>2026-04-29T10:49:52.098Z</time></trkpt><trkpt lat="36.8120646" lon="-1.5633429"><ele>0.0</ele><time>2026-04-29T10:49:53.098Z</time></trkpt><trkpt lat="36.8121248" lon="-1.5632638"><ele>0.0</ele><time>2026-04-29T10:49:54.098Z</time></trkpt><trkpt lat="36.8121775" lon="-1.5631835"><ele>0.0</ele><time>2026-04-29T10:49:55.098Z</time></trkpt><trkpt lat="36.8122334" lon="-1.5630994"><ele>0.0</ele><time>2026-04-29T10:49:56.098Z</time></trkpt><trkpt lat="36.812287" lon="-1.5630116"><ele>0.0</ele><time>2026-04-29T10:49:57.098Z</time></trkpt><trkpt lat="36.812345" lon="-1.5629263"><ele>0.0</ele><time>2026-04-29T10:49:58.099Z</time></trkpt><trkpt lat="36.8124045" lon="-1.5628455"><ele>0.0</ele><time>2026-04-29T10:49:59.098Z</time></trkpt><trkpt lat="36.8124589" lon="-1.5627632"><ele>0.0</ele><time>2026-04-29T10:50:00.099Z</time></trkpt><trkpt lat="36.812576" lon="-1.5626"><ele>0.0</ele><time>2026-04-29T10:50:02.099Z</time></trkpt><trkpt lat="36.8126323" lon="-1.5625169"><ele>0.0</ele><time>2026-04-29T10:50:03.099Z</time></trkpt><trkpt lat="36.8126888" lon="-1.5624321"><ele>0.0</ele><time>2026-04-29T10:50:04.098Z</time></trkpt><trkpt lat="36.8127479" lon="-1.5623524"><ele>0.0</ele><time>2026-04-29T10:50:05.098Z</time></trkpt><trkpt lat="36.8128094" lon="-1.5622787"><ele>0.0</ele><time>2026-04-29T10:50:06.099Z</time></trkpt><trkpt lat="36.8128701" lon="-1.5621999"><ele>0.0</ele><time>2026-04-29T10:50:07.099Z</time></trkpt><trkpt lat="36.81293" lon="-1.5621157"><ele>0.0</ele><time>2026-04-29T10:50:08.099Z</time></trkpt><trkpt lat="36.8129924" lon="-1.5620374"><ele>0.0</ele><time>2026-04-29T10:50:09.099Z</time></trkpt><trkpt lat="36.8130465" lon="-1.5619547"><ele>0.0</ele><time>2026-04-29T10:50:10.099Z</time></trkpt><trkpt lat="36.813099" lon="-1.5618716"><ele>0.0</ele><time>2026-04-29T10:50:11.098Z</time></trkpt><trkpt lat="36.813149" lon="-1.5617884"><ele>0.0</ele><time>2026-04-29T10:50:12.099Z</time></trkpt><trkpt lat="36.8132049" lon="-1.5617055"><ele>0.0</ele><time>2026-04-29T10:50:13.098Z</time></trkpt><trkpt lat="36.813264" lon="-1.5616251"><ele>0.0</ele><time>2026-04-29T10:50:14.099Z</time></trkpt><trkpt lat="36.8133215" lon="-1.5615477"><ele>0.0</ele><time>2026-04-29T10:50:15.098Z</time></trkpt><trkpt lat="36.8133751" lon="-1.5614611"><ele>0.0</ele><time>2026-04-29T10:50:16.099Z</time></trkpt><trkpt lat="36.8134277" lon="-1.5613689"><ele>0.0</ele><time>2026-04-29T10:50:17.099Z</time></trkpt><trkpt lat="36.8134874" lon="-1.5612854"><ele>0.0</ele><time>2026-04-29T10:50:18.099Z</time></trkpt><trkpt lat="36.8135366" lon="-1.5612092"><ele>0.0</ele><time>2026-04-29T10:50:19.098Z</time></trkpt><trkpt lat="36.8135816" lon="-1.5611237"><ele>0.0</ele><time>2026-04-29T10:50:20.099Z</time></trkpt><trkpt lat="36.8136283" lon="-1.5610327"><ele>0.0</ele><time>2026-04-29T10:50:21.099Z</time></trkpt><trkpt lat="36.8137293" lon="-1.5608757"><ele>0.0</ele><time>2026-04-29T10:50:23.099Z</time></trkpt><trkpt lat="36.8137825" lon="-1.5607947"><ele>0.0</ele><time>2026-04-29T10:50:24.098Z</time></trkpt><trkpt lat="36.8138453" lon="-1.5607184"><ele>0.0</ele><time>2026-04-29T10:50:25.098Z</time></trkpt><trkpt lat="36.8139103" lon="-1.5606421"><ele>0.0</ele><time>2026-04-29T10:50:26.099Z</time></trkpt><trkpt lat="36.8139695" lon="-1.5605616"><ele>0.0</ele><time>2026-04-29T10:50:27.098Z</time></trkpt><trkpt lat="36.8140253" lon="-1.5604785"><ele>0.0</ele><time>2026-04-29T10:50:28.099Z</time></trkpt><trkpt lat="36.8140776" lon="-1.5603966"><ele>0.0</ele><time>2026-04-29T10:50:29.098Z</time></trkpt><trkpt lat="36.8141336" lon="-1.5603194"><ele>0.0</ele><time>2026-04-29T10:50:30.098Z</time></trkpt><trkpt lat="36.8141816" lon="-1.5602285"><ele>0.0</ele><time>2026-04-29T10:50:31.098Z</time></trkpt><trkpt lat="36.8142327" lon="-1.5601468"><ele>0.0</ele><time>2026-04-29T10:50:32.098Z</time></trkpt><trkpt lat="36.8142829" lon="-1.5600594"><ele>0.0</ele><time>2026-04-29T10:50:33.098Z</time></trkpt><trkpt lat="36.8143426" lon="-1.5599785"><ele>0.0</ele><time>2026-04-29T10:50:34.099Z</time></trkpt><trkpt lat="36.8143984" lon="-1.5599015"><ele>0.0</ele><time>2026-04-29T10:50:35.098Z</time></trkpt><trkpt lat="36.8144549" lon="-1.5598163"><ele>0.0</ele><time>2026-04-29T10:50:36.099Z</time></trkpt><trkpt lat="36.8145145" lon="-1.5597346"><ele>0.0</ele><time>2026-04-29T10:50:37.098Z</time></trkpt><trkpt lat="36.8145774" lon="-1.5596506"><ele>0.0</ele><time>2026-04-29T10:50:38.098Z</time></trkpt><trkpt lat="36.8146445" lon="-1.5595684"><ele>0.0</ele><time>2026-04-29T10:50:39.098Z</time></trkpt><trkpt lat="36.8147098" lon="-1.5594909"><ele>0.0</ele><time>2026-04-29T10:50:40.099Z</time></trkpt><trkpt lat="36.8147737" lon="-1.5594088"><ele>0.0</ele><time>2026-04-29T10:50:41.099Z</time></trkpt><trkpt lat="36.8148301" lon="-1.5593285"><ele>0.0</ele><time>2026-04-29T10:50:42.098Z</time></trkpt><trkpt lat="36.8149419" lon="-1.5591666"><ele>0.0</ele><time>2026-04-29T10:50:44.099Z</time></trkpt><trkpt lat="36.8150082" lon="-1.5590869"><ele>0.0</ele><time>2026-04-29T10:50:45.099Z</time></trkpt><trkpt lat="36.8150549" lon="-1.55901"><ele>0.0</ele><time>2026-04-29T10:50:46.099Z</time></trkpt><trkpt lat="36.8151155" lon="-1.5589286"><ele>0.0</ele><time>2026-04-29T10:50:47.098Z</time></trkpt><trkpt lat="36.8151817" lon="-1.5588539"><ele>0.0</ele><time>2026-04-29T10:50:48.098Z</time></trkpt><trkpt lat="36.815237" lon="-1.5587718"><ele>0.0</ele><time>2026-04-29T10:50:49.098Z</time></trkpt><trkpt lat="36.8152937" lon="-1.5586946"><ele>0.0</ele><time>2026-04-29T10:50:50.098Z</time></trkpt><trkpt lat="36.8153487" lon="-1.558615"><ele>0.0</ele><time>2026-04-29T10:50:51.098Z</time></trkpt><trkpt lat="36.8154062" lon="-1.558538"><ele>0.0</ele><time>2026-04-29T10:50:52.098Z</time></trkpt><trkpt lat="36.8154662" lon="-1.5584569"><ele>0.0</ele><time>2026-04-29T10:50:53.099Z</time></trkpt><trkpt lat="36.8155247" lon="-1.5583755"><ele>0.0</ele><time>2026-04-29T10:50:54.099Z</time></trkpt><trkpt lat="36.8155821" lon="-1.5582966"><ele>0.0</ele><time>2026-04-29T10:50:55.098Z</time></trkpt><trkpt lat="36.8156431" lon="-1.5582195"><ele>0.0</ele><time>2026-04-29T10:50:56.098Z</time></trkpt><trkpt lat="36.8157131" lon="-1.5581385"><ele>0.0</ele><time>2026-04-29T10:50:57.099Z</time></trkpt><trkpt lat="36.8157625" lon="-1.55805"><ele>0.0</ele><time>2026-04-29T10:50:58.098Z</time></trkpt><trkpt lat="36.8158074" lon="-1.5579661"><ele>0.0</ele><time>2026-04-29T10:50:59.099Z</time></trkpt><trkpt lat="36.815862" lon="-1.5578823"><ele>0.0</ele><time>2026-04-29T10:51:00.099Z</time></trkpt><trkpt lat="36.8159171" lon="-1.5578032"><ele>0.0</ele><time>2026-04-29T10:51:01.098Z</time></trkpt><trkpt lat="36.8159749" lon="-1.5577178"><ele>0.0</ele><time>2026-04-29T10:51:02.099Z</time></trkpt><trkpt lat="36.8160274" lon="-1.557631"><ele>0.0</ele><time>2026-04-29T10:51:03.098Z</time></trkpt><trkpt lat="36.8161512" lon="-1.5574677"><ele>0.0</ele><time>2026-04-29T10:51:05.098Z</time></trkpt><trkpt lat="36.8162013" lon="-1.5573823"><ele>0.0</ele><time>2026-04-29T10:51:06.098Z</time></trkpt><trkpt lat="36.8162541" lon="-1.5573004"><ele>0.0</ele><time>2026-04-29T10:51:07.098Z</time></trkpt><trkpt lat="36.8163056" lon="-1.5572142"><ele>0.0</ele><time>2026-04-29T10:51:08.099Z</time></trkpt><trkpt lat="36.8163544" lon="-1.5571332"><ele>0.0</ele><time>2026-04-29T10:51:09.099Z</time></trkpt><trkpt lat="36.8164139" lon="-1.5570516"><ele>0.0</ele><time>2026-04-29T10:51:10.099Z</time></trkpt><trkpt lat="36.8164668" lon="-1.5569623"><ele>0.0</ele><time>2026-04-29T10:51:11.098Z</time></trkpt><trkpt lat="36.8165161" lon="-1.5568758"><ele>0.0</ele><time>2026-04-29T10:51:12.098Z</time></trkpt><trkpt lat="36.8165776" lon="-1.5567951"><ele>0.0</ele><time>2026-04-29T10:51:13.099Z</time></trkpt><trkpt lat="36.8166376" lon="-1.5567064"><ele>0.0</ele><time>2026-04-29T10:51:14.098Z</time></trkpt><trkpt lat="36.8166931" lon="-1.5566232"><ele>0.0</ele><time>2026-04-29T10:51:15.098Z</time></trkpt><trkpt lat="36.8167455" lon="-1.5565406"><ele>0.0</ele><time>2026-04-29T10:51:16.099Z</time></trkpt><trkpt lat="36.816807" lon="-1.5564558"><ele>0.0</ele><time>2026-04-29T10:51:17.099Z</time></trkpt><trkpt lat="36.8168608" lon="-1.5563778"><ele>0.0</ele><time>2026-04-29T10:51:18.099Z</time></trkpt><trkpt lat="36.8169262" lon="-1.5563063"><ele>0.0</ele><time>2026-04-29T10:51:19.098Z</time></trkpt><trkpt lat="36.8169764" lon="-1.5562298"><ele>0.0</ele><time>2026-04-29T10:51:20.098Z</time></trkpt><trkpt lat="36.8170319" lon="-1.5561582"><ele>0.0</ele><time>2026-04-29T10:51:21.099Z</time></trkpt><trkpt lat="36.8170815" lon="-1.5560783"><ele>0.0</ele><time>2026-04-29T10:51:22.099Z</time></trkpt><trkpt lat="36.8171339" lon="-1.5559937"><ele>0.0</ele><time>2026-04-29T10:51:23.098Z</time></trkpt><trkpt lat="36.8171854" lon="-1.5559134"><ele>0.0</ele><time>2026-04-29T10:51:24.098Z</time></trkpt><trkpt lat="36.8172935" lon="-1.5557456"><ele>0.0</ele><time>2026-04-29T10:51:26.098Z</time></trkpt><trkpt lat="36.817343" lon="-1.5556561"><ele>0.0</ele><time>2026-04-29T10:51:27.099Z</time></trkpt><trkpt lat="36.8173997" lon="-1.5555691"><ele>0.0</ele><time>2026-04-29T10:51:28.098Z</time></trkpt><trkpt lat="36.8174637" lon="-1.5554854"><ele>0.0</ele><time>2026-04-29T10:51:29.099Z</time></trkpt><trkpt lat="36.8175175" lon="-1.5554077"><ele>0.0</ele><time>2026-04-29T10:51:30.099Z</time></trkpt><trkpt lat="36.8175637" lon="-1.5553181"><ele>0.0</ele><time>2026-04-29T10:51:31.099Z</time></trkpt><trkpt lat="36.8176132" lon="-1.5552378"><ele>0.0</ele><time>2026-04-29T10:51:32.098Z</time></trkpt><trkpt lat="36.8176596" lon="-1.555154"><ele>0.0</ele><time>2026-04-29T10:51:33.099Z</time></trkpt><trkpt lat="36.8177077" lon="-1.5550721"><ele>0.0</ele><time>2026-04-29T10:51:34.098Z</time></trkpt><trkpt lat="36.8177688" lon="-1.5549916"><ele>0.0</ele><time>2026-04-29T10:51:35.098Z</time></trkpt><trkpt lat="36.8178309" lon="-1.5549145"><ele>0.0</ele><time>2026-04-29T10:51:36.099Z</time></trkpt><trkpt lat="36.817895" lon="-1.5548351"><ele>0.0</ele><time>2026-04-29T10:51:37.099Z</time></trkpt><trkpt lat="36.8179573" lon="-1.5547538"><ele>0.0</ele><time>2026-04-29T10:51:38.098Z</time></trkpt><trkpt lat="36.8180165" lon="-1.5546678"><ele>0.0</ele><time>2026-04-29T10:51:39.098Z</time></trkpt><trkpt lat="36.818072" lon="-1.5545878"><ele>0.0</ele><time>2026-04-29T10:51:40.098Z</time></trkpt><trkpt lat="36.8181226" lon="-1.5545065"><ele>0.0</ele><time>2026-04-29T10:51:41.098Z</time></trkpt><trkpt lat="36.8181785" lon="-1.5544291"><ele>0.0</ele><time>2026-04-29T10:51:42.098Z</time></trkpt><trkpt lat="36.8182292" lon="-1.5543429"><ele>0.0</ele><time>2026-04-29T10:51:43.098Z</time></trkpt><trkpt lat="36.8182865" lon="-1.5542649"><ele>0.0</ele><time>2026-04-29T10:51:44.099Z</time></trkpt><trkpt lat="36.8183444" lon="-1.5541862"><ele>0.0</ele><time>2026-04-29T10:51:45.099Z</time></trkpt><trkpt lat="36.8184741" lon="-1.5540254"><ele>0.0</ele><time>2026-04-29T10:51:47.098Z</time></trkpt><trkpt lat="36.818536" lon="-1.5539435"><ele>0.0</ele><time>2026-04-29T10:51:48.098Z</time></trkpt><trkpt lat="36.8185932" lon="-1.5538631"><ele>0.0</ele><time>2026-04-29T10:51:49.098Z</time></trkpt><trkpt lat="36.8186473" lon="-1.5537829"><ele>0.0</ele><time>2026-04-29T10:51:50.099Z</time></trkpt><trkpt lat="36.818698" lon="-1.5537042"><ele>0.0</ele><time>2026-04-29T10:51:51.099Z</time></trkpt><trkpt lat="36.8187447" lon="-1.5536261"><ele>0.0</ele><time>2026-04-29T10:51:52.098Z</time></trkpt><trkpt lat="36.8187999" lon="-1.5535393"><ele>0.0</ele><time>2026-04-29T10:51:53.099Z</time></trkpt><trkpt lat="36.8188623" lon="-1.5534568"><ele>0.0</ele><time>2026-04-29T10:51:54.099Z</time></trkpt><trkpt lat="36.8189241" lon="-1.5533736"><ele>0.0</ele><time>2026-04-29T10:51:55.098Z</time></trkpt><trkpt lat="36.8189874" lon="-1.5532928"><ele>0.0</ele><time>2026-04-29T10:51:56.098Z</time></trkpt><trkpt lat="36.8190447" lon="-1.5532073"><ele>0.0</ele><time>2026-04-29T10:51:57.099Z</time></trkpt><trkpt lat="36.8190987" lon="-1.5531234"><ele>0.0</ele><time>2026-04-29T10:51:58.098Z</time></trkpt><trkpt lat="36.8191591" lon="-1.5530518"><ele>0.0</ele><time>2026-04-29T10:51:59.099Z</time></trkpt><trkpt lat="36.8192121" lon="-1.552976"><ele>0.0</ele><time>2026-04-29T10:52:00.098Z</time></trkpt><trkpt lat="36.8192644" lon="-1.5528996"><ele>0.0</ele><time>2026-04-29T10:52:01.099Z</time></trkpt><trkpt lat="36.8193145" lon="-1.5528155"><ele>0.0</ele><time>2026-04-29T10:52:02.098Z</time></trkpt><trkpt lat="36.8193549" lon="-1.5527318"><ele>0.0</ele><time>2026-04-29T10:52:03.098Z</time></trkpt><trkpt lat="36.8194059" lon="-1.5526427"><ele>0.0</ele><time>2026-04-29T10:52:04.099Z</time></trkpt><trkpt lat="36.8194629" lon="-1.5525588"><ele>0.0</ele><time>2026-04-29T10:52:05.098Z</time></trkpt><trkpt lat="36.8195128" lon="-1.5524754"><ele>0.0</ele><time>2026-04-29T10:52:06.098Z</time></trkpt><trkpt lat="36.8196198" lon="-1.5523224"><ele>0.0</ele><time>2026-04-29T10:52:08.098Z</time></trkpt><trkpt lat="36.8196793" lon="-1.5522417"><ele>0.0</ele><time>2026-04-29T10:52:09.099Z</time></trkpt><trkpt lat="36.8197335" lon="-1.5521674"><ele>0.0</ele><time>2026-04-29T10:52:10.099Z</time></trkpt><trkpt lat="36.8197861" lon="-1.5520909"><ele>0.0</ele><time>2026-04-29T10:52:11.099Z</time></trkpt><trkpt lat="36.8198418" lon="-1.5520138"><ele>0.0</ele><time>2026-04-29T10:52:12.099Z</time></trkpt><trkpt lat="36.819897" lon="-1.5519346"><ele>0.0</ele><time>2026-04-29T10:52:13.098Z</time></trkpt><trkpt lat="36.8199573" lon="-1.551849"><ele>0.0</ele><time>2026-04-29T10:52:14.098Z</time></trkpt><trkpt lat="36.8200162" lon="-1.5517628"><ele>0.0</ele><time>2026-04-29T10:52:15.099Z</time></trkpt><trkpt lat="36.8200733" lon="-1.5516805"><ele>0.0</ele><time>2026-04-29T10:52:16.099Z</time></trkpt><trkpt lat="36.820123" lon="-1.5515914"><ele>0.0</ele><time>2026-04-29T10:52:17.098Z</time></trkpt><trkpt lat="36.8201697" lon="-1.5515044"><ele>0.0</ele><time>2026-04-29T10:52:18.098Z</time></trkpt><trkpt lat="36.8202278" lon="-1.5514217"><ele>0.0</ele><time>2026-04-29T10:52:19.099Z</time></trkpt><trkpt lat="36.8202938" lon="-1.5513389"><ele>0.0</ele><time>2026-04-29T10:52:20.099Z</time></trkpt><trkpt lat="36.8203556" lon="-1.5512495"><ele>0.0</ele><time>2026-04-29T10:52:21.098Z</time></trkpt><trkpt lat="36.8204171" lon="-1.5511597"><ele>0.0</ele><time>2026-04-29T10:52:22.098Z</time></trkpt><trkpt lat="36.8204774" lon="-1.5510753"><ele>0.0</ele><time>2026-04-29T10:52:23.098Z</time></trkpt><trkpt lat="36.8205334" lon="-1.5509921"><ele>0.0</ele><time>2026-04-29T10:52:24.099Z</time></trkpt><trkpt lat="36.8205916" lon="-1.5509104"><ele>0.0</ele><time>2026-04-29T10:52:25.099Z</time></trkpt><trkpt lat="36.8206439" lon="-1.550831"><ele>0.0</ele><time>2026-04-29T10:52:26.098Z</time></trkpt><trkpt lat="36.8206985" lon="-1.5507502"><ele>0.0</ele><time>2026-04-29T10:52:27.098Z</time></trkpt><trkpt lat="36.8208128" lon="-1.5505951"><ele>0.0</ele><time>2026-04-29T10:52:29.099Z</time></trkpt><trkpt lat="36.8208757" lon="-1.550514"><ele>0.0</ele><time>2026-04-29T10:52:30.099Z</time></trkpt><trkpt lat="36.8209375" lon="-1.5504307"><ele>0.0</ele><time>2026-04-29T10:52:31.099Z</time></trkpt><trkpt lat="36.8209993" lon="-1.5503496"><ele>0.0</ele><time>2026-04-29T10:52:32.098Z</time></trkpt><trkpt lat="36.8210568" lon="-1.5502741"><ele>0.0</ele><time>2026-04-29T10:52:33.098Z</time></trkpt><trkpt lat="36.8211118" lon="-1.5501977"><ele>0.0</ele><time>2026-04-29T10:52:34.098Z</time></trkpt><trkpt lat="36.8211657" lon="-1.550113"><ele>0.0</ele><time>2026-04-29T10:52:35.098Z</time></trkpt><trkpt lat="36.8212101" lon="-1.5500289"><ele>0.0</ele><time>2026-04-29T10:52:36.099Z</time></trkpt><trkpt lat="36.8212563" lon="-1.5499463"><ele>0.0</ele><time>2026-04-29T10:52:37.098Z</time></trkpt><trkpt lat="36.821303" lon="-1.5498661"><ele>0.0</ele><time>2026-04-29T10:52:38.098Z</time></trkpt><trkpt lat="36.8213639" lon="-1.5497821"><ele>0.0</ele><time>2026-04-29T10:52:39.098Z</time></trkpt><trkpt lat="36.821423" lon="-1.5496989"><ele>0.0</ele><time>2026-04-29T10:52:40.098Z</time></trkpt><trkpt lat="36.82148" lon="-1.5496186"><ele>0.0</ele><time>2026-04-29T10:52:41.099Z</time></trkpt><trkpt lat="36.8215411" lon="-1.5495313"><ele>0.0</ele><time>2026-04-29T10:52:42.099Z</time></trkpt><trkpt lat="36.8215949" lon="-1.5494405"><ele>0.0</ele><time>2026-04-29T10:52:43.099Z</time></trkpt><trkpt lat="36.8216542" lon="-1.5493537"><ele>0.0</ele><time>2026-04-29T10:52:44.098Z</time></trkpt><trkpt lat="36.8217043" lon="-1.549273"><ele>0.0</ele><time>2026-04-29T10:52:45.099Z</time></trkpt><trkpt lat="36.8217597" lon="-1.5491942"><ele>0.0</ele><time>2026-04-29T10:52:46.098Z</time></trkpt><trkpt lat="36.8218179" lon="-1.5491133"><ele>0.0</ele><time>2026-04-29T10:52:47.099Z</time></trkpt><trkpt lat="36.821876" lon="-1.5490289"><ele>0.0</ele><time>2026-04-29T10:52:48.098Z</time></trkpt><trkpt lat="36.821985" lon="-1.5488699"><ele>0.0</ele><time>2026-04-29T10:52:50.098Z</time></trkpt><trkpt lat="36.8220433" lon="-1.5487853"><ele>0.0</ele><time>2026-04-29T10:52:51.098Z</time></trkpt><trkpt lat="36.8220946" lon="-1.5486936"><ele>0.0</ele><time>2026-04-29T10:52:52.099Z</time></trkpt><trkpt lat="36.8221445" lon="-1.5486061"><ele>0.0</ele><time>2026-04-29T10:52:53.098Z</time></trkpt><trkpt lat="36.8221955" lon="-1.5485347"><ele>0.0</ele><time>2026-04-29T10:52:54.098Z</time></trkpt><trkpt lat="36.8222476" lon="-1.5484589"><ele>0.0</ele><time>2026-04-29T10:52:55.099Z</time></trkpt><trkpt lat="36.8223018" lon="-1.5483767"><ele>0.0</ele><time>2026-04-29T10:52:56.099Z</time></trkpt><trkpt lat="36.8223623" lon="-1.5482851"><ele>0.0</ele><time>2026-04-29T10:52:57.099Z</time></trkpt><trkpt lat="36.8224156" lon="-1.548196"><ele>0.0</ele><time>2026-04-29T10:52:58.098Z</time></trkpt><trkpt lat="36.8224701" lon="-1.5481092"><ele>0.0</ele><time>2026-04-29T10:52:59.098Z</time></trkpt><trkpt lat="36.8225194" lon="-1.5480226"><ele>0.0</ele><time>2026-04-29T10:53:00.098Z</time></trkpt><trkpt lat="36.822572" lon="-1.5479388"><ele>0.0</ele><time>2026-04-29T10:53:01.098Z</time></trkpt><trkpt lat="36.8226238" lon="-1.5478544"><ele>0.0</ele><time>2026-04-29T10:53:02.099Z</time></trkpt><trkpt lat="36.8226755" lon="-1.5477734"><ele>0.0</ele><time>2026-04-29T10:53:03.098Z</time></trkpt><trkpt lat="36.8227342" lon="-1.5476946"><ele>0.0</ele><time>2026-04-29T10:53:04.099Z</time></trkpt><trkpt lat="36.8227872" lon="-1.5476102"><ele>0.0</ele><time>2026-04-29T10:53:05.098Z</time></trkpt><trkpt lat="36.8228416" lon="-1.5475342"><ele>0.0</ele><time>2026-04-29T10:53:06.098Z</time></trkpt><trkpt lat="36.822901" lon="-1.5474605"><ele>0.0</ele><time>2026-04-29T10:53:07.099Z</time></trkpt><trkpt lat="36.8229583" lon="-1.5473829"><ele>0.0</ele><time>2026-04-29T10:53:08.098Z</time></trkpt><trkpt lat="36.8230107" lon="-1.5473022"><ele>0.0</ele><time>2026-04-29T10:53:09.099Z</time></trkpt><trkpt lat="36.8231276" lon="-1.5471356"><ele>0.0</ele><time>2026-04-29T10:53:11.099Z</time></trkpt><trkpt lat="36.8231862" lon="-1.5470621"><ele>0.0</ele><time>2026-04-29T10:53:12.098Z</time></trkpt><trkpt lat="36.8232388" lon="-1.5469804"><ele>0.0</ele><time>2026-04-29T10:53:13.098Z</time></trkpt><trkpt lat="36.8232965" lon="-1.5468984"><ele>0.0</ele><time>2026-04-29T10:53:14.098Z</time></trkpt><trkpt lat="36.8233607" lon="-1.5468181"><ele>0.0</ele><time>2026-04-29T10:53:15.098Z</time></trkpt><trkpt lat="36.8234181" lon="-1.54674"><ele>0.0</ele><time>2026-04-29T10:53:16.098Z</time></trkpt><trkpt lat="36.823481" lon="-1.5466601"><ele>0.0</ele><time>2026-04-29T10:53:17.098Z</time></trkpt><trkpt lat="36.8235375" lon="-1.5465788"><ele>0.0</ele><time>2026-04-29T10:53:18.099Z</time></trkpt><trkpt lat="36.8235952" lon="-1.5464958"><ele>0.0</ele><time>2026-04-29T10:53:19.099Z</time></trkpt><trkpt lat="36.8236533" lon="-1.5464136"><ele>0.0</ele><time>2026-04-29T10:53:20.098Z</time></trkpt><trkpt lat="36.8237121" lon="-1.5463331"><ele>0.0</ele><time>2026-04-29T10:53:21.098Z</time></trkpt><trkpt lat="36.8237728" lon="-1.5462574"><ele>0.0</ele><time>2026-04-29T10:53:22.099Z</time></trkpt><trkpt lat="36.8238287" lon="-1.5461813"><ele>0.0</ele><time>2026-04-29T10:53:23.099Z</time></trkpt><trkpt lat="36.8238868" lon="-1.5461022"><ele>0.0</ele><time>2026-04-29T10:53:24.099Z</time></trkpt><trkpt lat="36.8239451" lon="-1.5460188"><ele>0.0</ele><time>2026-04-29T10:53:25.098Z</time></trkpt><trkpt lat="36.8240067" lon="-1.545937"><ele>0.0</ele><time>2026-04-29T10:53:26.099Z</time></trkpt><trkpt lat="36.8240668" lon="-1.5458598"><ele>0.0</ele><time>2026-04-29T10:53:27.099Z</time></trkpt><trkpt lat="36.824122" lon="-1.5457787"><ele>0.0</ele><time>2026-04-29T10:53:28.099Z</time></trkpt><trkpt lat="36.8241812" lon="-1.5456976"><ele>0.0</ele><time>2026-04-29T10:53:29.099Z</time></trkpt><trkpt lat="36.8242351" lon="-1.5456157"><ele>0.0</ele><time>2026-04-29T10:53:30.098Z</time></trkpt><trkpt lat="36.8243531" lon="-1.5454522"><ele>0.0</ele><time>2026-04-29T10:53:32.098Z</time></trkpt><trkpt lat="36.8244061" lon="-1.5453743"><ele>0.0</ele><time>2026-04-29T10:53:33.098Z</time></trkpt><trkpt lat="36.8244633" lon="-1.5452861"><ele>0.0</ele><time>2026-04-29T10:53:34.099Z</time></trkpt><trkpt lat="36.8245201" lon="-1.545202"><ele>0.0</ele><time>2026-04-29T10:53:35.099Z</time></trkpt><trkpt lat="36.8245766" lon="-1.5451203"><ele>0.0</ele><time>2026-04-29T10:53:36.098Z</time></trkpt><trkpt lat="36.8246333" lon="-1.5450388"><ele>0.0</ele><time>2026-04-29T10:53:37.099Z</time></trkpt><trkpt lat="36.8246912" lon="-1.5449552"><ele>0.0</ele><time>2026-04-29T10:53:38.098Z</time></trkpt><trkpt lat="36.8247498" lon="-1.5448774"><ele>0.0</ele><time>2026-04-29T10:53:39.098Z</time></trkpt><trkpt lat="36.8248068" lon="-1.5447936"><ele>0.0</ele><time>2026-04-29T10:53:40.099Z</time></trkpt><trkpt lat="36.824865" lon="-1.5447192"><ele>0.0</ele><time>2026-04-29T10:53:41.098Z</time></trkpt><trkpt lat="36.8249246" lon="-1.544654"><ele>0.0</ele><time>2026-04-29T10:53:42.098Z</time></trkpt><trkpt lat="36.8249829" lon="-1.5445653"><ele>0.0</ele><time>2026-04-29T10:53:43.099Z</time></trkpt><trkpt lat="36.8250403" lon="-1.5444763"><ele>0.0</ele><time>2026-04-29T10:53:44.099Z</time></trkpt><trkpt lat="36.8250938" lon="-1.5443905"><ele>0.0</ele><time>2026-04-29T10:53:45.099Z</time></trkpt><trkpt lat="36.8251498" lon="-1.5443069"><ele>0.0</ele><time>2026-04-29T10:53:46.098Z</time></trkpt><trkpt lat="36.8252062" lon="-1.5442235"><ele>0.0</ele><time>2026-04-29T10:53:47.099Z</time></trkpt><trkpt lat="36.8252599" lon="-1.5441431"><ele>0.0</ele><time>2026-04-29T10:53:48.099Z</time></trkpt><trkpt lat="36.8253152" lon="-1.5440617"><ele>0.0</ele><time>2026-04-29T10:53:49.099Z</time></trkpt><trkpt lat="36.8253717" lon="-1.5439833"><ele>0.0</ele><time>2026-04-29T10:53:50.099Z</time></trkpt><trkpt lat="36.8254266" lon="-1.543893"><ele>0.0</ele><time>2026-04-29T10:53:51.098Z</time></trkpt><trkpt lat="36.8255559" lon="-1.5437296"><ele>0.0</ele><time>2026-04-29T10:53:53.099Z</time></trkpt><trkpt lat="36.8256119" lon="-1.5436454"><ele>0.0</ele><time>2026-04-29T10:53:54.098Z</time></trkpt><trkpt lat="36.8256698" lon="-1.5435582"><ele>0.0</ele><time>2026-04-29T10:53:55.098Z</time></trkpt><trkpt lat="36.825731" lon="-1.5434737"><ele>0.0</ele><time>2026-04-29T10:53:56.099Z</time></trkpt><trkpt lat="36.8257853" lon="-1.5433919"><ele>0.0</ele><time>2026-04-29T10:53:57.098Z</time></trkpt><trkpt lat="36.8258358" lon="-1.5433128"><ele>0.0</ele><time>2026-04-29T10:53:58.099Z</time></trkpt><trkpt lat="36.8258857" lon="-1.5432374"><ele>0.0</ele><time>2026-04-29T10:53:59.098Z</time></trkpt><trkpt lat="36.8259356" lon="-1.5431593"><ele>0.0</ele><time>2026-04-29T10:54:00.099Z</time></trkpt><trkpt lat="36.8259872" lon="-1.5430698"><ele>0.0</ele><time>2026-04-29T10:54:01.099Z</time></trkpt><trkpt lat="36.8260331" lon="-1.5429882"><ele>0.0</ele><time>2026-04-29T10:54:02.098Z</time></trkpt><trkpt lat="36.8260794" lon="-1.5429139"><ele>0.0</ele><time>2026-04-29T10:54:03.099Z</time></trkpt><trkpt lat="36.8261365" lon="-1.5428267"><ele>0.0</ele><time>2026-04-29T10:54:04.099Z</time></trkpt><trkpt lat="36.8261846" lon="-1.5427383"><ele>0.0</ele><time>2026-04-29T10:54:05.099Z</time></trkpt><trkpt lat="36.8262403" lon="-1.5426467"><ele>0.0</ele><time>2026-04-29T10:54:06.098Z</time></trkpt><trkpt lat="36.8262951" lon="-1.5425606"><ele>0.0</ele><time>2026-04-29T10:54:07.098Z</time></trkpt><trkpt lat="36.8263542" lon="-1.5424741"><ele>0.0</ele><time>2026-04-29T10:54:08.098Z</time></trkpt><trkpt lat="36.8264086" lon="-1.5423878"><ele>0.0</ele><time>2026-04-29T10:54:09.099Z</time></trkpt><trkpt lat="36.8264649" lon="-1.5423063"><ele>0.0</ele><time>2026-04-29T10:54:10.098Z</time></trkpt><trkpt lat="36.8265188" lon="-1.5422264"><ele>0.0</ele><time>2026-04-29T10:54:11.098Z</time></trkpt><trkpt lat="36.8265733" lon="-1.5421437"><ele>0.0</ele><time>2026-04-29T10:54:12.099Z</time></trkpt><trkpt lat="36.8266889" lon="-1.5419776"><ele>0.0</ele><time>2026-04-29T10:54:14.098Z</time></trkpt><trkpt lat="36.8267446" lon="-1.5418951"><ele>0.0</ele><time>2026-04-29T10:54:15.098Z</time></trkpt><trkpt lat="36.826803" lon="-1.5418138"><ele>0.0</ele><time>2026-04-29T10:54:16.099Z</time></trkpt><trkpt lat="36.8268559" lon="-1.5417274"><ele>0.0</ele><time>2026-04-29T10:54:17.098Z</time></trkpt><trkpt lat="36.8269117" lon="-1.5416467"><ele>0.0</ele><time>2026-04-29T10:54:18.098Z</time></trkpt><trkpt lat="36.8269643" lon="-1.5415637"><ele>0.0</ele><time>2026-04-29T10:54:19.098Z</time></trkpt><trkpt lat="36.8270115" lon="-1.5414902"><ele>0.0</ele><time>2026-04-29T10:54:20.098Z</time></trkpt><trkpt lat="36.8270552" lon="-1.5414184"><ele>0.0</ele><time>2026-04-29T10:54:21.099Z</time></trkpt><trkpt lat="36.8271046" lon="-1.5413415"><ele>0.0</ele><time>2026-04-29T10:54:22.098Z</time></trkpt><trkpt lat="36.8271601" lon="-1.5412615"><ele>0.0</ele><time>2026-04-29T10:54:23.098Z</time></trkpt><trkpt lat="36.8272125" lon="-1.5411842"><ele>0.0</ele><time>2026-04-29T10:54:24.098Z</time></trkpt><trkpt lat="36.8272682" lon="-1.5410989"><ele>0.0</ele><time>2026-04-29T10:54:25.099Z</time></trkpt><trkpt lat="36.8273306" lon="-1.5410211"><ele>0.0</ele><time>2026-04-29T10:54:26.098Z</time></trkpt><trkpt lat="36.8273868" lon="-1.5409414"><ele>0.0</ele><time>2026-04-29T10:54:27.098Z</time></trkpt><trkpt lat="36.8274461" lon="-1.5408624"><ele>0.0</ele><time>2026-04-29T10:54:28.099Z</time></trkpt><trkpt lat="36.8274993" lon="-1.5407788"><ele>0.0</ele><time>2026-04-29T10:54:29.098Z</time></trkpt><trkpt lat="36.8275578" lon="-1.5406993"><ele>0.0</ele><time>2026-04-29T10:54:30.098Z</time></trkpt><trkpt lat="36.8276124" lon="-1.5406212"><ele>0.0</ele><time>2026-04-29T10:54:31.098Z</time></trkpt><trkpt lat="36.8276729" lon="-1.5405428"><ele>0.0</ele><time>2026-04-29T10:54:32.099Z</time></trkpt><trkpt lat="36.8277304" lon="-1.5404651"><ele>0.0</ele><time>2026-04-29T10:54:33.098Z</time></trkpt><trkpt lat="36.8278419" lon="-1.5403072"><ele>0.0</ele><time>2026-04-29T10:54:35.097Z</time></trkpt><trkpt lat="36.8278985" lon="-1.5402253"><ele>0.0</ele><time>2026-04-29T10:54:36.098Z</time></trkpt><trkpt lat="36.8279582" lon="-1.5401452"><ele>0.0</ele><time>2026-04-29T10:54:37.098Z</time></trkpt><trkpt lat="36.8280155" lon="-1.5400607"><ele>0.0</ele><time>2026-04-29T10:54:38.097Z</time></trkpt><trkpt lat="36.8280746" lon="-1.5399794"><ele>0.0</ele><time>2026-04-29T10:54:39.098Z</time></trkpt><trkpt lat="36.8281275" lon="-1.5398912"><ele>0.0</ele><time>2026-04-29T10:54:40.098Z</time></trkpt><trkpt lat="36.8281792" lon="-1.5398132"><ele>0.0</ele><time>2026-04-29T10:54:41.097Z</time></trkpt><trkpt lat="36.8282364" lon="-1.539732"><ele>0.0</ele><time>2026-04-29T10:54:42.098Z</time></trkpt><trkpt lat="36.8282945" lon="-1.5396531"><ele>0.0</ele><time>2026-04-29T10:54:43.098Z</time></trkpt><trkpt lat="36.8283548" lon="-1.539572"><ele>0.0</ele><time>2026-04-29T10:54:44.097Z</time></trkpt><trkpt lat="36.8284079" lon="-1.5394814"><ele>0.0</ele><time>2026-04-29T10:54:45.098Z</time></trkpt><trkpt lat="36.8284649" lon="-1.5393972"><ele>0.0</ele><time>2026-04-29T10:54:46.098Z</time></trkpt><trkpt lat="36.8285204" lon="-1.5393252"><ele>0.0</ele><time>2026-04-29T10:54:47.097Z</time></trkpt><trkpt lat="36.8285767" lon="-1.5392379"><ele>0.0</ele><time>2026-04-29T10:54:48.097Z</time></trkpt><trkpt lat="36.8286322" lon="-1.5391497"><ele>0.0</ele><time>2026-04-29T10:54:49.097Z</time></trkpt><trkpt lat="36.8286872" lon="-1.5390559"><ele>0.0</ele><time>2026-04-29T10:54:50.098Z</time></trkpt><trkpt lat="36.8287394" lon="-1.5389704"><ele>0.0</ele><time>2026-04-29T10:54:51.098Z</time></trkpt><trkpt lat="36.8287909" lon="-1.5388856"><ele>0.0</ele><time>2026-04-29T10:54:52.098Z</time></trkpt><trkpt lat="36.8288537" lon="-1.5387966"><ele>0.0</ele><time>2026-04-29T10:54:53.098Z</time></trkpt><trkpt lat="36.828913" lon="-1.5387128"><ele>0.0</ele><time>2026-04-29T10:54:54.097Z</time></trkpt><trkpt lat="36.8290249" lon="-1.538566"><ele>0.0</ele><time>2026-04-29T10:54:56.098Z</time></trkpt><trkpt lat="36.8290756" lon="-1.5384866"><ele>0.0</ele><time>2026-04-29T10:54:57.097Z</time></trkpt><trkpt lat="36.8291275" lon="-1.5383967"><ele>0.0</ele><time>2026-04-29T10:54:58.097Z</time></trkpt><trkpt lat="36.8291886" lon="-1.5383134"><ele>0.0</ele><time>2026-04-29T10:54:59.097Z</time></trkpt><trkpt lat="36.8292461" lon="-1.5382342"><ele>0.0</ele><time>2026-04-29T10:55:00.098Z</time></trkpt><trkpt lat="36.8292975" lon="-1.5381591"><ele>0.0</ele><time>2026-04-29T10:55:01.097Z</time></trkpt><trkpt lat="36.8293519" lon="-1.5380752"><ele>0.0</ele><time>2026-04-29T10:55:02.098Z</time></trkpt><trkpt lat="36.8294168" lon="-1.5379962"><ele>0.0</ele><time>2026-04-29T10:55:03.098Z</time></trkpt><trkpt lat="36.8294834" lon="-1.5379179"><ele>0.0</ele><time>2026-04-29T10:55:04.098Z</time></trkpt><trkpt lat="36.8295445" lon="-1.5378396"><ele>0.0</ele><time>2026-04-29T10:55:05.097Z</time></trkpt><trkpt lat="36.8296043" lon="-1.5377556"><ele>0.0</ele><time>2026-04-29T10:55:06.098Z</time></trkpt><trkpt lat="36.8296574" lon="-1.5376734"><ele>0.0</ele><time>2026-04-29T10:55:07.097Z</time></trkpt><trkpt lat="36.829712" lon="-1.5375927"><ele>0.0</ele><time>2026-04-29T10:55:08.098Z</time></trkpt><trkpt lat="36.8297712" lon="-1.5375117"><ele>0.0</ele><time>2026-04-29T10:55:09.098Z</time></trkpt><trkpt lat="36.8298297" lon="-1.5374332"><ele>0.0</ele><time>2026-04-29T10:55:10.097Z</time></trkpt><trkpt lat="36.829895" lon="-1.5373575"><ele>0.0</ele><time>2026-04-29T10:55:11.097Z</time></trkpt><trkpt lat="36.8299568" lon="-1.5372764"><ele>0.0</ele><time>2026-04-29T10:55:12.098Z</time></trkpt><trkpt lat="36.8300103" lon="-1.5371935"><ele>0.0</ele><time>2026-04-29T10:55:13.097Z</time></trkpt><trkpt lat="36.8300553" lon="-1.5371119"><ele>0.0</ele><time>2026-04-29T10:55:14.098Z</time></trkpt><trkpt lat="36.8301016" lon="-1.5370215"><ele>0.0</ele><time>2026-04-29T10:55:15.097Z</time></trkpt><trkpt lat="36.8301974" lon="-1.5368609"><ele>0.0</ele><time>2026-04-29T10:55:17.097Z</time></trkpt><trkpt lat="36.8302502" lon="-1.5367782"><ele>0.0</ele><time>2026-04-29T10:55:18.098Z</time></trkpt><trkpt lat="36.8303051" lon="-1.5366937"><ele>0.0</ele><time>2026-04-29T10:55:19.097Z</time></trkpt><trkpt lat="36.8303585" lon="-1.5366076"><ele>0.0</ele><time>2026-04-29T10:55:20.097Z</time></trkpt><trkpt lat="36.8304205" lon="-1.5365236"><ele>0.0</ele><time>2026-04-29T10:55:21.098Z</time></trkpt><trkpt lat="36.8304751" lon="-1.5364444"><ele>0.0</ele><time>2026-04-29T10:55:22.097Z</time></trkpt><trkpt lat="36.8305271" lon="-1.536363"><ele>0.0</ele><time>2026-04-29T10:55:23.098Z</time></trkpt><trkpt lat="36.8305804" lon="-1.5362828"><ele>0.0</ele><time>2026-04-29T10:55:24.097Z</time></trkpt><trkpt lat="36.8306438" lon="-1.5362002"><ele>0.0</ele><time>2026-04-29T10:55:25.098Z</time></trkpt><trkpt lat="36.8306943" lon="-1.5361206"><ele>0.0</ele><time>2026-04-29T10:55:26.097Z</time></trkpt><trkpt lat="36.8307524" lon="-1.536043"><ele>0.0</ele><time>2026-04-29T10:55:27.098Z</time></trkpt><trkpt lat="36.8308138" lon="-1.5359531"><ele>0.0</ele><time>2026-04-29T10:55:28.097Z</time></trkpt><trkpt lat="36.8308701" lon="-1.5358645"><ele>0.0</ele><time>2026-04-29T10:55:29.097Z</time></trkpt><trkpt lat="36.8309167" lon="-1.5357802"><ele>0.0</ele><time>2026-04-29T10:55:30.097Z</time></trkpt><trkpt lat="36.8309735" lon="-1.5357027"><ele>0.0</ele><time>2026-04-29T10:55:31.097Z</time></trkpt><trkpt lat="36.8310372" lon="-1.5356246"><ele>0.0</ele><time>2026-04-29T10:55:32.098Z</time></trkpt><trkpt lat="36.8311045" lon="-1.5355423"><ele>0.0</ele><time>2026-04-29T10:55:33.097Z</time></trkpt><trkpt lat="36.8311741" lon="-1.5354627"><ele>0.0</ele><time>2026-04-29T10:55:34.097Z</time></trkpt><trkpt lat="36.8312361" lon="-1.5353826"><ele>0.0</ele><time>2026-04-29T10:55:35.097Z</time></trkpt><trkpt lat="36.8312967" lon="-1.5353072"><ele>0.0</ele><time>2026-04-29T10:55:36.098Z</time></trkpt><trkpt lat="36.8314155" lon="-1.5351545"><ele>0.0</ele><time>2026-04-29T10:55:38.098Z</time></trkpt><trkpt lat="36.8314762" lon="-1.5350664"><ele>0.0</ele><time>2026-04-29T10:55:39.098Z</time></trkpt><trkpt lat="36.8315381" lon="-1.5349831"><ele>0.0</ele><time>2026-04-29T10:55:40.098Z</time></trkpt><trkpt lat="36.8315899" lon="-1.5348947"><ele>0.0</ele><time>2026-04-29T10:55:41.098Z</time></trkpt><trkpt lat="36.8316439" lon="-1.5348104"><ele>0.0</ele><time>2026-04-29T10:55:42.098Z</time></trkpt><trkpt lat="36.8317001" lon="-1.5347345"><ele>0.0</ele><time>2026-04-29T10:55:43.098Z</time></trkpt><trkpt lat="36.8317579" lon="-1.5346564"><ele>0.0</ele><time>2026-04-29T10:55:44.098Z</time></trkpt><trkpt lat="36.8318039" lon="-1.534592"><ele>0.0</ele><time>2026-04-29T10:55:45.098Z</time></trkpt><trkpt lat="36.8318558" lon="-1.5345176"><ele>0.0</ele><time>2026-04-29T10:55:46.097Z</time></trkpt><trkpt lat="36.8319089" lon="-1.5344296"><ele>0.0</ele><time>2026-04-29T10:55:47.097Z</time></trkpt><trkpt lat="36.831965" lon="-1.5343484"><ele>0.0</ele><time>2026-04-29T10:55:48.098Z</time></trkpt><trkpt lat="36.8320189" lon="-1.5342599"><ele>0.0</ele><time>2026-04-29T10:55:49.097Z</time></trkpt><trkpt lat="36.8320736" lon="-1.5341809"><ele>0.0</ele><time>2026-04-29T10:55:50.097Z</time></trkpt><trkpt lat="36.8321258" lon="-1.5341042"><ele>0.0</ele><time>2026-04-29T10:55:51.097Z</time></trkpt><trkpt lat="36.8321806" lon="-1.5340155"><ele>0.0</ele><time>2026-04-29T10:55:52.098Z</time></trkpt><trkpt lat="36.8322412" lon="-1.5339369"><ele>0.0</ele><time>2026-04-29T10:55:53.098Z</time></trkpt><trkpt lat="36.8322916" lon="-1.5338634"><ele>0.0</ele><time>2026-04-29T10:55:54.098Z</time></trkpt><trkpt lat="36.8323453" lon="-1.5337773"><ele>0.0</ele><time>2026-04-29T10:55:55.097Z</time></trkpt><trkpt lat="36.8323959" lon="-1.5336893"><ele>0.0</ele><time>2026-04-29T10:55:56.098Z</time></trkpt><trkpt lat="36.832453" lon="-1.533601"><ele>0.0</ele><time>2026-04-29T10:55:57.097Z</time></trkpt><trkpt lat="36.8325642" lon="-1.5334353"><ele>0.0</ele><time>2026-04-29T10:55:59.097Z</time></trkpt><trkpt lat="36.8326188" lon="-1.5333543"><ele>0.0</ele><time>2026-04-29T10:56:00.097Z</time></trkpt><trkpt lat="36.8326753" lon="-1.5332762"><ele>0.0</ele><time>2026-04-29T10:56:01.097Z</time></trkpt><trkpt lat="36.832726" lon="-1.533187"><ele>0.0</ele><time>2026-04-29T10:56:02.097Z</time></trkpt><trkpt lat="36.8327788" lon="-1.533101"><ele>0.0</ele><time>2026-04-29T10:56:03.097Z</time></trkpt><trkpt lat="36.8328261" lon="-1.533011"><ele>0.0</ele><time>2026-04-29T10:56:04.097Z</time></trkpt><trkpt lat="36.8328745" lon="-1.5329187"><ele>0.0</ele><time>2026-04-29T10:56:05.097Z</time></trkpt><trkpt lat="36.8329196" lon="-1.5328284"><ele>0.0</ele><time>2026-04-29T10:56:06.097Z</time></trkpt><trkpt lat="36.8329621" lon="-1.5327454"><ele>0.0</ele><time>2026-04-29T10:56:07.097Z</time></trkpt><trkpt lat="36.8330138" lon="-1.5326603"><ele>0.0</ele><time>2026-04-29T10:56:08.098Z</time></trkpt><trkpt lat="36.8330636" lon="-1.5325793"><ele>0.0</ele><time>2026-04-29T10:56:09.098Z</time></trkpt><trkpt lat="36.8331226" lon="-1.5324967"><ele>0.0</ele><time>2026-04-29T10:56:10.097Z</time></trkpt><trkpt lat="36.8331851" lon="-1.5324148"><ele>0.0</ele><time>2026-04-29T10:56:11.098Z</time></trkpt><trkpt lat="36.8332454" lon="-1.5323332"><ele>0.0</ele><time>2026-04-29T10:56:12.098Z</time></trkpt><trkpt lat="36.8333085" lon="-1.5322445"><ele>0.0</ele><time>2026-04-29T10:56:13.097Z</time></trkpt><trkpt lat="36.8333609" lon="-1.5321541"><ele>0.0</ele><time>2026-04-29T10:56:14.098Z</time></trkpt><trkpt lat="36.8334167" lon="-1.5320725"><ele>0.0</ele><time>2026-04-29T10:56:15.097Z</time></trkpt><trkpt lat="36.8334802" lon="-1.5319929"><ele>0.0</ele><time>2026-04-29T10:56:16.097Z</time></trkpt><trkpt lat="36.8335409" lon="-1.5319159"><ele>0.0</ele><time>2026-04-29T10:56:17.097Z</time></trkpt><trkpt lat="36.8335981" lon="-1.5318331"><ele>0.0</ele><time>2026-04-29T10:56:18.097Z</time></trkpt><trkpt lat="36.8337084" lon="-1.5316616"><ele>0.0</ele><time>2026-04-29T10:56:20.097Z</time></trkpt><trkpt lat="36.8337606" lon="-1.5315845"><ele>0.0</ele><time>2026-04-29T10:56:21.098Z</time></trkpt><trkpt lat="36.8338123" lon="-1.5315032"><ele>0.0</ele><time>2026-04-29T10:56:22.097Z</time></trkpt><trkpt lat="36.83387" lon="-1.5314215"><ele>0.0</ele><time>2026-04-29T10:56:23.098Z</time></trkpt><trkpt lat="36.8339238" lon="-1.5313414"><ele>0.0</ele><time>2026-04-29T10:56:24.097Z</time></trkpt><trkpt lat="36.8339768" lon="-1.5312641"><ele>0.0</ele><time>2026-04-29T10:56:25.097Z</time></trkpt><trkpt lat="36.8340305" lon="-1.5311903"><ele>0.0</ele><time>2026-04-29T10:56:26.098Z</time></trkpt><trkpt lat="36.8340878" lon="-1.5311113"><ele>0.0</ele><time>2026-04-29T10:56:27.098Z</time></trkpt><trkpt lat="36.8341505" lon="-1.5310371"><ele>0.0</ele><time>2026-04-29T10:56:28.098Z</time></trkpt><trkpt lat="36.8342099" lon="-1.5309551"><ele>0.0</ele><time>2026-04-29T10:56:29.097Z</time></trkpt><trkpt lat="36.834267" lon="-1.5308748"><ele>0.0</ele><time>2026-04-29T10:56:30.098Z</time></trkpt><trkpt lat="36.8343224" lon="-1.5307946"><ele>0.0</ele><time>2026-04-29T10:56:31.097Z</time></trkpt><trkpt lat="36.8343809" lon="-1.5307049"><ele>0.0</ele><time>2026-04-29T10:56:32.097Z</time></trkpt><trkpt lat="36.8344407" lon="-1.530622"><ele>0.0</ele><time>2026-04-29T10:56:33.097Z</time></trkpt><trkpt lat="36.8345023" lon="-1.5305398"><ele>0.0</ele><time>2026-04-29T10:56:34.097Z</time></trkpt><trkpt lat="36.8345497" lon="-1.5304666"><ele>0.0</ele><time>2026-04-29T10:56:35.098Z</time></trkpt><trkpt lat="36.8346109" lon="-1.5303907"><ele>0.0</ele><time>2026-04-29T10:56:36.098Z</time></trkpt><trkpt lat="36.8346697" lon="-1.530313"><ele>0.0</ele><time>2026-04-29T10:56:37.097Z</time></trkpt><trkpt lat="36.834727" lon="-1.5302301"><ele>0.0</ele><time>2026-04-29T10:56:38.097Z</time></trkpt><trkpt lat="36.8347821" lon="-1.5301487"><ele>0.0</ele><time>2026-04-29T10:56:39.098Z</time></trkpt><trkpt lat="36.8348899" lon="-1.5299856"><ele>0.0</ele><time>2026-04-29T10:56:41.098Z</time></trkpt><trkpt lat="36.8349482" lon="-1.5299065"><ele>0.0</ele><time>2026-04-29T10:56:42.098Z</time></trkpt><trkpt lat="36.834998" lon="-1.529825"><ele>0.0</ele><time>2026-04-29T10:56:43.097Z</time></trkpt><trkpt lat="36.8350561" lon="-1.5297391"><ele>0.0</ele><time>2026-04-29T10:56:44.097Z</time></trkpt><trkpt lat="36.8351188" lon="-1.5296569"><ele>0.0</ele><time>2026-04-29T10:56:45.098Z</time></trkpt><trkpt lat="36.8351777" lon="-1.5295707"><ele>0.0</ele><time>2026-04-29T10:56:46.097Z</time></trkpt><trkpt lat="36.8352331" lon="-1.5294896"><ele>0.0</ele><time>2026-04-29T10:56:47.098Z</time></trkpt><trkpt lat="36.8352885" lon="-1.5294112"><ele>0.0</ele><time>2026-04-29T10:56:48.098Z</time></trkpt><trkpt lat="36.8353462" lon="-1.5293313"><ele>0.0</ele><time>2026-04-29T10:56:49.097Z</time></trkpt><trkpt lat="36.8354061" lon="-1.529243"><ele>0.0</ele><time>2026-04-29T10:56:50.098Z</time></trkpt><trkpt lat="36.8354644" lon="-1.5291601"><ele>0.0</ele><time>2026-04-29T10:56:51.097Z</time></trkpt><trkpt lat="36.8355309" lon="-1.5290843"><ele>0.0</ele><time>2026-04-29T10:56:52.097Z</time></trkpt><trkpt lat="36.8355881" lon="-1.5289964"><ele>0.0</ele><time>2026-04-29T10:56:53.098Z</time></trkpt><trkpt lat="36.8356424" lon="-1.5289154"><ele>0.0</ele><time>2026-04-29T10:56:54.098Z</time></trkpt><trkpt lat="36.8356927" lon="-1.528832"><ele>0.0</ele><time>2026-04-29T10:56:55.098Z</time></trkpt><trkpt lat="36.8357431" lon="-1.5287417"><ele>0.0</ele><time>2026-04-29T10:56:56.097Z</time></trkpt><trkpt lat="36.8357886" lon="-1.5286527"><ele>0.0</ele><time>2026-04-29T10:56:57.097Z</time></trkpt><trkpt lat="36.8358332" lon="-1.5285627"><ele>0.0</ele><time>2026-04-29T10:56:58.097Z</time></trkpt><trkpt lat="36.8358854" lon="-1.5284784"><ele>0.0</ele><time>2026-04-29T10:56:59.097Z</time></trkpt><trkpt lat="36.8359403" lon="-1.5283949"><ele>0.0</ele><time>2026-04-29T10:57:00.097Z</time></trkpt><trkpt lat="36.8360505" lon="-1.5282278"><ele>0.0</ele><time>2026-04-29T10:57:02.097Z</time></trkpt><trkpt lat="36.8360993" lon="-1.528145"><ele>0.0</ele><time>2026-04-29T10:57:03.098Z</time></trkpt><trkpt lat="36.8361511" lon="-1.5280622"><ele>0.0</ele><time>2026-04-29T10:57:04.098Z</time></trkpt><trkpt lat="36.8362077" lon="-1.5279857"><ele>0.0</ele><time>2026-04-29T10:57:05.098Z</time></trkpt><trkpt lat="36.8362632" lon="-1.5279132"><ele>0.0</ele><time>2026-04-29T10:57:06.098Z</time></trkpt><trkpt lat="36.8363126" lon="-1.5278319"><ele>0.0</ele><time>2026-04-29T10:57:07.098Z</time></trkpt><trkpt lat="36.8363697" lon="-1.5277545"><ele>0.0</ele><time>2026-04-29T10:57:08.097Z</time></trkpt><trkpt lat="36.8364239" lon="-1.5276784"><ele>0.0</ele><time>2026-04-29T10:57:09.098Z</time></trkpt><trkpt lat="36.8364759" lon="-1.5275938"><ele>0.0</ele><time>2026-04-29T10:57:10.098Z</time></trkpt><trkpt lat="36.8365328" lon="-1.527509"><ele>0.0</ele><time>2026-04-29T10:57:11.097Z</time></trkpt><trkpt lat="36.8365856" lon="-1.5274241"><ele>0.0</ele><time>2026-04-29T10:57:12.098Z</time></trkpt><trkpt lat="36.8366386" lon="-1.527339"><ele>0.0</ele><time>2026-04-29T10:57:13.097Z</time></trkpt><trkpt lat="36.8366935" lon="-1.5272524"><ele>0.0</ele><time>2026-04-29T10:57:14.098Z</time></trkpt><trkpt lat="36.8367458" lon="-1.5271701"><ele>0.0</ele><time>2026-04-29T10:57:15.098Z</time></trkpt><trkpt lat="36.8368014" lon="-1.5270872"><ele>0.0</ele><time>2026-04-29T10:57:16.097Z</time></trkpt><trkpt lat="36.836858" lon="-1.5270037"><ele>0.0</ele><time>2026-04-29T10:57:17.098Z</time></trkpt><trkpt lat="36.8369176" lon="-1.5269159"><ele>0.0</ele><time>2026-04-29T10:57:18.097Z</time></trkpt><trkpt lat="36.8369723" lon="-1.5268319"><ele>0.0</ele><time>2026-04-29T10:57:19.098Z</time></trkpt><trkpt lat="36.8370325" lon="-1.5267526"><ele>0.0</ele><time>2026-04-29T10:57:20.098Z</time></trkpt><trkpt lat="36.8370926" lon="-1.5266755"><ele>0.0</ele><time>2026-04-29T10:57:21.098Z</time></trkpt><trkpt lat="36.837206" lon="-1.5265264"><ele>0.0</ele><time>2026-04-29T10:57:23.098Z</time></trkpt><trkpt lat="36.8372606" lon="-1.5264504"><ele>0.0</ele><time>2026-04-29T10:57:24.098Z</time></trkpt><trkpt lat="36.8373196" lon="-1.5263698"><ele>0.0</ele><time>2026-04-29T10:57:25.098Z</time></trkpt><trkpt lat="36.8373739" lon="-1.5262966"><ele>0.0</ele><time>2026-04-29T10:57:26.098Z</time></trkpt><trkpt lat="36.8374315" lon="-1.5262263"><ele>0.0</ele><time>2026-04-29T10:57:27.097Z</time></trkpt><trkpt lat="36.8374899" lon="-1.5261466"><ele>0.0</ele><time>2026-04-29T10:57:28.097Z</time></trkpt><trkpt lat="36.8375438" lon="-1.5260623"><ele>0.0</ele><time>2026-04-29T10:57:29.097Z</time></trkpt><trkpt lat="36.837603" lon="-1.5259804"><ele>0.0</ele><time>2026-04-29T10:57:30.097Z</time></trkpt><trkpt lat="36.8376629" lon="-1.5258986"><ele>0.0</ele><time>2026-04-29T10:57:31.097Z</time></trkpt><trkpt lat="36.8377229" lon="-1.5258113"><ele>0.0</ele><time>2026-04-29T10:57:32.097Z</time></trkpt><trkpt lat="36.8377872" lon="-1.5257212"><ele>0.0</ele><time>2026-04-29T10:57:33.098Z</time></trkpt><trkpt lat="36.8378468" lon="-1.5256373"><ele>0.0</ele><time>2026-04-29T10:57:34.098Z</time></trkpt><trkpt lat="36.8379031" lon="-1.525554"><ele>0.0</ele><time>2026-04-29T10:57:35.098Z</time></trkpt><trkpt lat="36.8379571" lon="-1.5254663"><ele>0.0</ele><time>2026-04-29T10:57:36.098Z</time></trkpt><trkpt lat="36.8380147" lon="-1.5253795"><ele>0.0</ele><time>2026-04-29T10:57:37.098Z</time></trkpt><trkpt lat="36.8380701" lon="-1.5252942"><ele>0.0</ele><time>2026-04-29T10:57:38.097Z</time></trkpt><trkpt lat="36.838127" lon="-1.5252077"><ele>0.0</ele><time>2026-04-29T10:57:39.098Z</time></trkpt><trkpt lat="36.8381805" lon="-1.5251153"><ele>0.0</ele><time>2026-04-29T10:57:40.097Z</time></trkpt><trkpt lat="36.8382367" lon="-1.5250334"><ele>0.0</ele><time>2026-04-29T10:57:41.097Z</time></trkpt><trkpt lat="36.8382975" lon="-1.5249489"><ele>0.0</ele><time>2026-04-29T10:57:42.098Z</time></trkpt><trkpt lat="36.8384052" lon="-1.5247909"><ele>0.0</ele><time>2026-04-29T10:57:44.098Z</time></trkpt><trkpt lat="36.8384587" lon="-1.5247115"><ele>0.0</ele><time>2026-04-29T10:57:45.098Z</time></trkpt><trkpt lat="36.8385148" lon="-1.5246271"><ele>0.0</ele><time>2026-04-29T10:57:46.098Z</time></trkpt><trkpt lat="36.8385714" lon="-1.5245393"><ele>0.0</ele><time>2026-04-29T10:57:47.097Z</time></trkpt><trkpt lat="36.8386309" lon="-1.5244633"><ele>0.0</ele><time>2026-04-29T10:57:48.097Z</time></trkpt><trkpt lat="36.838692" lon="-1.5243856"><ele>0.0</ele><time>2026-04-29T10:57:49.097Z</time></trkpt><trkpt lat="36.8387541" lon="-1.5243062"><ele>0.0</ele><time>2026-04-29T10:57:50.098Z</time></trkpt><trkpt lat="36.8388099" lon="-1.5242248"><ele>0.0</ele><time>2026-04-29T10:57:51.098Z</time></trkpt><trkpt lat="36.8388653" lon="-1.5241419"><ele>0.0</ele><time>2026-04-29T10:57:52.097Z</time></trkpt><trkpt lat="36.8389208" lon="-1.5240603"><ele>0.0</ele><time>2026-04-29T10:57:53.098Z</time></trkpt><trkpt lat="36.8389768" lon="-1.5239841"><ele>0.0</ele><time>2026-04-29T10:57:54.097Z</time></trkpt><trkpt lat="36.8390336" lon="-1.5239033"><ele>0.0</ele><time>2026-04-29T10:57:55.097Z</time></trkpt><trkpt lat="36.8390816" lon="-1.5238147"><ele>0.0</ele><time>2026-04-29T10:57:56.098Z</time></trkpt><trkpt lat="36.8391385" lon="-1.5237316"><ele>0.0</ele><time>2026-04-29T10:57:57.097Z</time></trkpt><trkpt lat="36.8391925" lon="-1.5236469"><ele>0.0</ele><time>2026-04-29T10:57:58.097Z</time></trkpt><trkpt lat="36.8392483" lon="-1.5235633"><ele>0.0</ele><time>2026-04-29T10:57:59.097Z</time></trkpt><trkpt lat="36.839305" lon="-1.5234817"><ele>0.0</ele><time>2026-04-29T10:58:00.097Z</time></trkpt><trkpt lat="36.8393601" lon="-1.5234012"><ele>0.0</ele><time>2026-04-29T10:58:01.098Z</time></trkpt><trkpt lat="36.8394155" lon="-1.5233159"><ele>0.0</ele><time>2026-04-29T10:58:02.098Z</time></trkpt><trkpt lat="36.8394703" lon="-1.5232322"><ele>0.0</ele><time>2026-04-29T10:58:03.097Z</time></trkpt><trkpt lat="36.83958" lon="-1.523069"><ele>0.0</ele><time>2026-04-29T10:58:05.097Z</time></trkpt><trkpt lat="36.8396352" lon="-1.5229882"><ele>0.0</ele><time>2026-04-29T10:58:06.097Z</time></trkpt><trkpt lat="36.8396943" lon="-1.5229037"><ele>0.0</ele><time>2026-04-29T10:58:07.098Z</time></trkpt><trkpt lat="36.8397501" lon="-1.52282"><ele>0.0</ele><time>2026-04-29T10:58:08.098Z</time></trkpt><trkpt lat="36.8398067" lon="-1.5227425"><ele>0.0</ele><time>2026-04-29T10:58:09.097Z</time></trkpt><trkpt lat="36.8398633" lon="-1.5226588"><ele>0.0</ele><time>2026-04-29T10:58:10.097Z</time></trkpt><trkpt lat="36.8399186" lon="-1.5225749"><ele>0.0</ele><time>2026-04-29T10:58:11.098Z</time></trkpt><trkpt lat="36.8399748" lon="-1.5224946"><ele>0.0</ele><time>2026-04-29T10:58:12.097Z</time></trkpt><trkpt lat="36.8400329" lon="-1.5224117"><ele>0.0</ele><time>2026-04-29T10:58:13.098Z</time></trkpt><trkpt lat="36.8400886" lon="-1.5223303"><ele>0.0</ele><time>2026-04-29T10:58:14.097Z</time></trkpt><trkpt lat="36.8401422" lon="-1.5222471"><ele>0.0</ele><time>2026-04-29T10:58:15.097Z</time></trkpt><trkpt lat="36.8401936" lon="-1.5221566"><ele>0.0</ele><time>2026-04-29T10:58:16.098Z</time></trkpt><trkpt lat="36.8402509" lon="-1.5220661"><ele>0.0</ele><time>2026-04-29T10:58:17.098Z</time></trkpt><trkpt lat="36.8403084" lon="-1.5219762"><ele>0.0</ele><time>2026-04-29T10:58:18.097Z</time></trkpt><trkpt lat="36.840362" lon="-1.5218971"><ele>0.0</ele><time>2026-04-29T10:58:19.097Z</time></trkpt><trkpt lat="36.8404151" lon="-1.521815"><ele>0.0</ele><time>2026-04-29T10:58:20.097Z</time></trkpt><trkpt lat="36.8404776" lon="-1.5217291"><ele>0.0</ele><time>2026-04-29T10:58:21.097Z</time></trkpt><trkpt lat="36.8405407" lon="-1.5216385"><ele>0.0</ele><time>2026-04-29T10:58:22.098Z</time></trkpt><trkpt lat="36.8405896" lon="-1.5215518"><ele>0.0</ele><time>2026-04-29T10:58:23.097Z</time></trkpt><trkpt lat="36.8407001" lon="-1.5213986"><ele>0.0</ele><time>2026-04-29T10:58:25.097Z</time></trkpt><trkpt lat="36.8407577" lon="-1.5213169"><ele>0.0</ele><time>2026-04-29T10:58:26.097Z</time></trkpt><trkpt lat="36.8408159" lon="-1.5212348"><ele>0.0</ele><time>2026-04-29T10:58:27.098Z</time></trkpt><trkpt lat="36.8408745" lon="-1.521153"><ele>0.0</ele><time>2026-04-29T10:58:28.097Z</time></trkpt><trkpt lat="36.8409288" lon="-1.5210631"><ele>0.0</ele><time>2026-04-29T10:58:29.097Z</time></trkpt><trkpt lat="36.8409838" lon="-1.5209731"><ele>0.0</ele><time>2026-04-29T10:58:30.098Z</time></trkpt><trkpt lat="36.8410415" lon="-1.520886"><ele>0.0</ele><time>2026-04-29T10:58:31.098Z</time></trkpt><trkpt lat="36.8410953" lon="-1.5208006"><ele>0.0</ele><time>2026-04-29T10:58:32.097Z</time></trkpt><trkpt lat="36.8411446" lon="-1.5207185"><ele>0.0</ele><time>2026-04-29T10:58:33.097Z</time></trkpt><trkpt lat="36.8412001" lon="-1.5206397"><ele>0.0</ele><time>2026-04-29T10:58:34.098Z</time></trkpt><trkpt lat="36.8412581" lon="-1.5205607"><ele>0.0</ele><time>2026-04-29T10:58:35.098Z</time></trkpt><trkpt lat="36.8413176" lon="-1.5204744"><ele>0.0</ele><time>2026-04-29T10:58:36.097Z</time></trkpt><trkpt lat="36.8413781" lon="-1.5203885"><ele>0.0</ele><time>2026-04-29T10:58:37.098Z</time></trkpt><trkpt lat="36.8414366" lon="-1.5203031"><ele>0.0</ele><time>2026-04-29T10:58:38.098Z</time></trkpt><trkpt lat="36.841493" lon="-1.5202216"><ele>0.0</ele><time>2026-04-29T10:58:39.098Z</time></trkpt><trkpt lat="36.8415427" lon="-1.5201358"><ele>0.0</ele><time>2026-04-29T10:58:40.097Z</time></trkpt><trkpt lat="36.8416012" lon="-1.5200532"><ele>0.0</ele><time>2026-04-29T10:58:41.097Z</time></trkpt><trkpt lat="36.8416584" lon="-1.5199757"><ele>0.0</ele><time>2026-04-29T10:58:42.097Z</time></trkpt><trkpt lat="36.8417167" lon="-1.5199034"><ele>0.0</ele><time>2026-04-29T10:58:43.098Z</time></trkpt><trkpt lat="36.8417691" lon="-1.5198263"><ele>0.0</ele><time>2026-04-29T10:58:44.098Z</time></trkpt><trkpt lat="36.8418772" lon="-1.5196736"><ele>0.0</ele><time>2026-04-29T10:58:46.097Z</time></trkpt><trkpt lat="36.841929" lon="-1.5195957"><ele>0.0</ele><time>2026-04-29T10:58:47.097Z</time></trkpt><trkpt lat="36.8419846" lon="-1.5195105"><ele>0.0</ele><time>2026-04-29T10:58:48.098Z</time></trkpt><trkpt lat="36.8420389" lon="-1.5194297"><ele>0.0</ele><time>2026-04-29T10:58:49.097Z</time></trkpt><trkpt lat="36.842095" lon="-1.5193499"><ele>0.0</ele><time>2026-04-29T10:58:50.098Z</time></trkpt><trkpt lat="36.8421503" lon="-1.5192725"><ele>0.0</ele><time>2026-04-29T10:58:51.098Z</time></trkpt><trkpt lat="36.8422056" lon="-1.5191944"><ele>0.0</ele><time>2026-04-29T10:58:52.098Z</time></trkpt><trkpt lat="36.842259" lon="-1.5191174"><ele>0.0</ele><time>2026-04-29T10:58:53.097Z</time></trkpt><trkpt lat="36.8423182" lon="-1.5190337"><ele>0.0</ele><time>2026-04-29T10:58:54.098Z</time></trkpt><trkpt lat="36.8423766" lon="-1.5189558"><ele>0.0</ele><time>2026-04-29T10:58:55.097Z</time></trkpt><trkpt lat="36.8424294" lon="-1.518872"><ele>0.0</ele><time>2026-04-29T10:58:56.097Z</time></trkpt><trkpt lat="36.8424906" lon="-1.5187899"><ele>0.0</ele><time>2026-04-29T10:58:57.097Z</time></trkpt><trkpt lat="36.8425509" lon="-1.518708"><ele>0.0</ele><time>2026-04-29T10:58:58.097Z</time></trkpt><trkpt lat="36.8426053" lon="-1.5186249"><ele>0.0</ele><time>2026-04-29T10:58:59.098Z</time></trkpt><trkpt lat="36.8426615" lon="-1.5185447"><ele>0.0</ele><time>2026-04-29T10:59:00.097Z</time></trkpt><trkpt lat="36.8427207" lon="-1.5184579"><ele>0.0</ele><time>2026-04-29T10:59:01.098Z</time></trkpt><trkpt lat="36.8427818" lon="-1.5183725"><ele>0.0</ele><time>2026-04-29T10:59:02.097Z</time></trkpt><trkpt lat="36.842842" lon="-1.5182859"><ele>0.0</ele><time>2026-04-29T10:59:03.097Z</time></trkpt><trkpt lat="36.8429066" lon="-1.5182093"><ele>0.0</ele><time>2026-04-29T10:59:04.097Z</time></trkpt><trkpt lat="36.84296" lon="-1.5181239"><ele>0.0</ele><time>2026-04-29T10:59:05.098Z</time></trkpt><trkpt lat="36.8430637" lon="-1.5179538"><ele>0.0</ele><time>2026-04-29T10:59:07.098Z</time></trkpt><trkpt lat="36.8431156" lon="-1.5178713"><ele>0.0</ele><time>2026-04-29T10:59:08.098Z</time></trkpt><trkpt lat="36.8431658" lon="-1.5177899"><ele>0.0</ele><time>2026-04-29T10:59:09.097Z</time></trkpt><trkpt lat="36.843226" lon="-1.517708"><ele>0.0</ele><time>2026-04-29T10:59:10.097Z</time></trkpt><trkpt lat="36.8432787" lon="-1.5176233"><ele>0.0</ele><time>2026-04-29T10:59:11.097Z</time></trkpt><trkpt lat="36.8433291" lon="-1.5175361"><ele>0.0</ele><time>2026-04-29T10:59:12.097Z</time></trkpt><trkpt lat="36.8433849" lon="-1.5174501"><ele>0.0</ele><time>2026-04-29T10:59:13.097Z</time></trkpt><trkpt lat="36.8434401" lon="-1.5173668"><ele>0.0</ele><time>2026-04-29T10:59:14.097Z</time></trkpt><trkpt lat="36.8434961" lon="-1.5172808"><ele>0.0</ele><time>2026-04-29T10:59:15.097Z</time></trkpt><trkpt lat="36.8435572" lon="-1.5172013"><ele>0.0</ele><time>2026-04-29T10:59:16.098Z</time></trkpt><trkpt lat="36.8436129" lon="-1.5171212"><ele>0.0</ele><time>2026-04-29T10:59:17.097Z</time></trkpt><trkpt lat="36.8436735" lon="-1.5170425"><ele>0.0</ele><time>2026-04-29T10:59:18.098Z</time></trkpt><trkpt lat="36.8437298" lon="-1.5169573"><ele>0.0</ele><time>2026-04-29T10:59:19.098Z</time></trkpt><trkpt lat="36.8437808" lon="-1.5168764"><ele>0.0</ele><time>2026-04-29T10:59:20.097Z</time></trkpt><trkpt lat="36.8438309" lon="-1.5167908"><ele>0.0</ele><time>2026-04-29T10:59:21.098Z</time></trkpt><trkpt lat="36.8438811" lon="-1.5166983"><ele>0.0</ele><time>2026-04-29T10:59:22.098Z</time></trkpt><trkpt lat="36.8439292" lon="-1.5166092"><ele>0.0</ele><time>2026-04-29T10:59:23.098Z</time></trkpt><trkpt lat="36.8439835" lon="-1.5165281"><ele>0.0</ele><time>2026-04-29T10:59:24.097Z</time></trkpt><trkpt lat="36.8440424" lon="-1.5164421"><ele>0.0</ele><time>2026-04-29T10:59:25.098Z</time></trkpt><trkpt lat="36.8440956" lon="-1.5163686"><ele>0.0</ele><time>2026-04-29T10:59:26.097Z</time></trkpt><trkpt lat="36.844205" lon="-1.5162135"><ele>0.0</ele><time>2026-04-29T10:59:28.097Z</time></trkpt><trkpt lat="36.8442576" lon="-1.5161358"><ele>0.0</ele><time>2026-04-29T10:59:29.097Z</time></trkpt><trkpt lat="36.844309" lon="-1.5160558"><ele>0.0</ele><time>2026-04-29T10:59:30.098Z</time></trkpt><trkpt lat="36.8443617" lon="-1.5159759"><ele>0.0</ele><time>2026-04-29T10:59:31.098Z</time></trkpt><trkpt lat="36.8444211" lon="-1.5158978"><ele>0.0</ele><time>2026-04-29T10:59:32.097Z</time></trkpt><trkpt lat="36.8444815" lon="-1.5158203"><ele>0.0</ele><time>2026-04-29T10:59:33.097Z</time></trkpt><trkpt lat="36.8445413" lon="-1.5157372"><ele>0.0</ele><time>2026-04-29T10:59:34.098Z</time></trkpt><trkpt lat="36.8446011" lon="-1.5156542"><ele>0.0</ele><time>2026-04-29T10:59:35.097Z</time></trkpt><trkpt lat="36.8446583" lon="-1.5155679"><ele>0.0</ele><time>2026-04-29T10:59:36.097Z</time></trkpt><trkpt lat="36.8447091" lon="-1.5154908"><ele>0.0</ele><time>2026-04-29T10:59:37.097Z</time></trkpt><trkpt lat="36.8447608" lon="-1.5154114"><ele>0.0</ele><time>2026-04-29T10:59:38.097Z</time></trkpt><trkpt lat="36.8448183" lon="-1.5153289"><ele>0.0</ele><time>2026-04-29T10:59:39.097Z</time></trkpt><trkpt lat="36.8448769" lon="-1.5152479"><ele>0.0</ele><time>2026-04-29T10:59:40.097Z</time></trkpt><trkpt lat="36.844935" lon="-1.5151668"><ele>0.0</ele><time>2026-04-29T10:59:41.098Z</time></trkpt><trkpt lat="36.8449934" lon="-1.5150827"><ele>0.0</ele><time>2026-04-29T10:59:42.097Z</time></trkpt><trkpt lat="36.8450528" lon="-1.5150002"><ele>0.0</ele><time>2026-04-29T10:59:43.097Z</time></trkpt><trkpt lat="36.8451117" lon="-1.5149216"><ele>0.0</ele><time>2026-04-29T10:59:44.097Z</time></trkpt><trkpt lat="36.8451685" lon="-1.5148417"><ele>0.0</ele><time>2026-04-29T10:59:45.098Z</time></trkpt><trkpt lat="36.8452278" lon="-1.5147576"><ele>0.0</ele><time>2026-04-29T10:59:46.097Z</time></trkpt><trkpt lat="36.8452822" lon="-1.514668"><ele>0.0</ele><time>2026-04-29T10:59:47.097Z</time></trkpt><trkpt lat="36.845381" lon="-1.5144865"><ele>0.0</ele><time>2026-04-29T10:59:49.097Z</time></trkpt><trkpt lat="36.8454379" lon="-1.5143993"><ele>0.0</ele><time>2026-04-29T10:59:50.098Z</time></trkpt><trkpt lat="36.8454935" lon="-1.5143127"><ele>0.0</ele><time>2026-04-29T10:59:51.098Z</time></trkpt><trkpt lat="36.8455518" lon="-1.514233"><ele>0.0</ele><time>2026-04-29T10:59:52.097Z</time></trkpt><trkpt lat="36.8456027" lon="-1.5141546"><ele>0.0</ele><time>2026-04-29T10:59:53.097Z</time></trkpt><trkpt lat="36.845657" lon="-1.5140692"><ele>0.0</ele><time>2026-04-29T10:59:54.097Z</time></trkpt><trkpt lat="36.8457134" lon="-1.5139864"><ele>0.0</ele><time>2026-04-29T10:59:55.098Z</time></trkpt><trkpt lat="36.8457682" lon="-1.5139046"><ele>0.0</ele><time>2026-04-29T10:59:56.097Z</time></trkpt><trkpt lat="36.8458248" lon="-1.5138217"><ele>0.0</ele><time>2026-04-29T10:59:57.098Z</time></trkpt><trkpt lat="36.8458812" lon="-1.5137399"><ele>0.0</ele><time>2026-04-29T10:59:58.098Z</time></trkpt><trkpt lat="36.8459384" lon="-1.5136571"><ele>0.0</ele><time>2026-04-29T10:59:59.097Z</time></trkpt><trkpt lat="36.8459961" lon="-1.5135818"><ele>0.0</ele><time>2026-04-29T11:00:00.097Z</time></trkpt><trkpt lat="36.8460554" lon="-1.5135012"><ele>0.0</ele><time>2026-04-29T11:00:01.098Z</time></trkpt><trkpt lat="36.8461132" lon="-1.5134213"><ele>0.0</ele><time>2026-04-29T11:00:02.097Z</time></trkpt><trkpt lat="36.8461715" lon="-1.513336"><ele>0.0</ele><time>2026-04-29T11:00:03.097Z</time></trkpt><trkpt lat="36.8462284" lon="-1.5132505"><ele>0.0</ele><time>2026-04-29T11:00:04.097Z</time></trkpt><trkpt lat="36.8462851" lon="-1.5131701"><ele>0.0</ele><time>2026-04-29T11:00:05.097Z</time></trkpt><trkpt lat="36.8463402" lon="-1.513088"><ele>0.0</ele><time>2026-04-29T11:00:06.097Z</time></trkpt><trkpt lat="36.8463923" lon="-1.5130051"><ele>0.0</ele><time>2026-04-29T11:00:07.097Z</time></trkpt><trkpt lat="36.8464437" lon="-1.5129232"><ele>0.0</ele><time>2026-04-29T11:00:08.097Z</time></trkpt><trkpt lat="36.8465588" lon="-1.5127613"><ele>0.0</ele><time>2026-04-29T11:00:10.097Z</time></trkpt><trkpt lat="36.8466164" lon="-1.5126759"><ele>0.0</ele><time>2026-04-29T11:00:11.097Z</time></trkpt><trkpt lat="36.8466648" lon="-1.5125887"><ele>0.0</ele><time>2026-04-29T11:00:12.097Z</time></trkpt><trkpt lat="36.8467057" lon="-1.5125051"><ele>0.0</ele><time>2026-04-29T11:00:13.098Z</time></trkpt><trkpt lat="36.8467527" lon="-1.5124217"><ele>0.0</ele><time>2026-04-29T11:00:14.098Z</time></trkpt><trkpt lat="36.8468054" lon="-1.5123428"><ele>0.0</ele><time>2026-04-29T11:00:15.097Z</time></trkpt><trkpt lat="36.8468606" lon="-1.5122617"><ele>0.0</ele><time>2026-04-29T11:00:16.097Z</time></trkpt><trkpt lat="36.846914" lon="-1.5121772"><ele>0.0</ele><time>2026-04-29T11:00:17.097Z</time></trkpt><trkpt lat="36.8469714" lon="-1.5120991"><ele>0.0</ele><time>2026-04-29T11:00:18.097Z</time></trkpt><trkpt lat="36.847031" lon="-1.512024"><ele>0.0</ele><time>2026-04-29T11:00:19.098Z</time></trkpt><trkpt lat="36.8470891" lon="-1.5119431"><ele>0.0</ele><time>2026-04-29T11:00:20.098Z</time></trkpt><trkpt lat="36.8471423" lon="-1.5118585"><ele>0.0</ele><time>2026-04-29T11:00:21.097Z</time></trkpt><trkpt lat="36.8471972" lon="-1.5117854"><ele>0.0</ele><time>2026-04-29T11:00:22.098Z</time></trkpt><trkpt lat="36.8472502" lon="-1.511705"><ele>0.0</ele><time>2026-04-29T11:00:23.097Z</time></trkpt><trkpt lat="36.8473095" lon="-1.5116205"><ele>0.0</ele><time>2026-04-29T11:00:24.098Z</time></trkpt><trkpt lat="36.8473704" lon="-1.5115439"><ele>0.0</ele><time>2026-04-29T11:00:25.098Z</time></trkpt><trkpt lat="36.847434" lon="-1.5114675"><ele>0.0</ele><time>2026-04-29T11:00:26.097Z</time></trkpt><trkpt lat="36.84749" lon="-1.5113838"><ele>0.0</ele><time>2026-04-29T11:00:27.098Z</time></trkpt><trkpt lat="36.8475466" lon="-1.5113029"><ele>0.0</ele><time>2026-04-29T11:00:28.097Z</time></trkpt><trkpt lat="36.8476003" lon="-1.5112214"><ele>0.0</ele><time>2026-04-29T11:00:29.097Z</time></trkpt><trkpt lat="36.8477149" lon="-1.5110587"><ele>0.0</ele><time>2026-04-29T11:00:31.097Z</time></trkpt><trkpt lat="36.8477731" lon="-1.5109725"><ele>0.0</ele><time>2026-04-29T11:00:32.098Z</time></trkpt><trkpt lat="36.8478316" lon="-1.5108917"><ele>0.0</ele><time>2026-04-29T11:00:33.097Z</time></trkpt><trkpt lat="36.8478882" lon="-1.5108112"><ele>0.0</ele><time>2026-04-29T11:00:34.097Z</time></trkpt><trkpt lat="36.8479433" lon="-1.5107228"><ele>0.0</ele><time>2026-04-29T11:00:35.098Z</time></trkpt><trkpt lat="36.8479998" lon="-1.5106415"><ele>0.0</ele><time>2026-04-29T11:00:36.098Z</time></trkpt><trkpt lat="36.8480553" lon="-1.5105617"><ele>0.0</ele><time>2026-04-29T11:00:37.097Z</time></trkpt><trkpt lat="36.8481139" lon="-1.5104871"><ele>0.0</ele><time>2026-04-29T11:00:38.097Z</time></trkpt><trkpt lat="36.8481754" lon="-1.5104042"><ele>0.0</ele><time>2026-04-29T11:00:39.098Z</time></trkpt><trkpt lat="36.8482304" lon="-1.5103249"><ele>0.0</ele><time>2026-04-29T11:00:40.098Z</time></trkpt><trkpt lat="36.8482895" lon="-1.5102392"><ele>0.0</ele><time>2026-04-29T11:00:41.097Z</time></trkpt><trkpt lat="36.8483435" lon="-1.5101554"><ele>0.0</ele><time>2026-04-29T11:00:42.097Z</time></trkpt><trkpt lat="36.8483945" lon="-1.5100779"><ele>0.0</ele><time>2026-04-29T11:00:43.098Z</time></trkpt><trkpt lat="36.8484516" lon="-1.5099953"><ele>0.0</ele><time>2026-04-29T11:00:44.098Z</time></trkpt><trkpt lat="36.8485027" lon="-1.5099166"><ele>0.0</ele><time>2026-04-29T11:00:45.097Z</time></trkpt><trkpt lat="36.8485553" lon="-1.5098337"><ele>0.0</ele><time>2026-04-29T11:00:46.097Z</time></trkpt><trkpt lat="36.8486142" lon="-1.5097561"><ele>0.0</ele><time>2026-04-29T11:00:47.097Z</time></trkpt><trkpt lat="36.8486684" lon="-1.5096679"><ele>0.0</ele><time>2026-04-29T11:00:48.097Z</time></trkpt><trkpt lat="36.8487221" lon="-1.5095839"><ele>0.0</ele><time>2026-04-29T11:00:49.097Z</time></trkpt><trkpt lat="36.8487751" lon="-1.5094988"><ele>0.0</ele><time>2026-04-29T11:00:50.097Z</time></trkpt><trkpt lat="36.848882" lon="-1.509332"><ele>0.0</ele><time>2026-04-29T11:00:52.097Z</time></trkpt><trkpt lat="36.8489383" lon="-1.5092516"><ele>0.0</ele><time>2026-04-29T11:00:53.098Z</time></trkpt><trkpt lat="36.8489948" lon="-1.5091703"><ele>0.0</ele><time>2026-04-29T11:00:54.097Z</time></trkpt><trkpt lat="36.8490574" lon="-1.5090886"><ele>0.0</ele><time>2026-04-29T11:00:55.097Z</time></trkpt><trkpt lat="36.8491164" lon="-1.5090112"><ele>0.0</ele><time>2026-04-29T11:00:56.097Z</time></trkpt><trkpt lat="36.8491697" lon="-1.5089299"><ele>0.0</ele><time>2026-04-29T11:00:57.097Z</time></trkpt><trkpt lat="36.8492304" lon="-1.5088486"><ele>0.0</ele><time>2026-04-29T11:00:58.097Z</time></trkpt><trkpt lat="36.8492769" lon="-1.5087554"><ele>0.0</ele><time>2026-04-29T11:00:59.098Z</time></trkpt><trkpt lat="36.84933" lon="-1.5086687"><ele>0.0</ele><time>2026-04-29T11:01:00.098Z</time></trkpt><trkpt lat="36.8493825" lon="-1.5085923"><ele>0.0</ele><time>2026-04-29T11:01:01.097Z</time></trkpt><trkpt lat="36.8494384" lon="-1.508513"><ele>0.0</ele><time>2026-04-29T11:01:02.097Z</time></trkpt><trkpt lat="36.8494932" lon="-1.508436"><ele>0.0</ele><time>2026-04-29T11:01:03.097Z</time></trkpt><trkpt lat="36.8495525" lon="-1.5083572"><ele>0.0</ele><time>2026-04-29T11:01:04.097Z</time></trkpt><trkpt lat="36.849604" lon="-1.5082745"><ele>0.0</ele><time>2026-04-29T11:01:05.098Z</time></trkpt><trkpt lat="36.8496626" lon="-1.5081847"><ele>0.0</ele><time>2026-04-29T11:01:06.098Z</time></trkpt><trkpt lat="36.8497267" lon="-1.5081018"><ele>0.0</ele><time>2026-04-29T11:01:07.097Z</time></trkpt><trkpt lat="36.8497963" lon="-1.5080219"><ele>0.0</ele><time>2026-04-29T11:01:08.098Z</time></trkpt><trkpt lat="36.8498617" lon="-1.5079486"><ele>0.0</ele><time>2026-04-29T11:01:09.098Z</time></trkpt><trkpt lat="36.8499153" lon="-1.5078667"><ele>0.0</ele><time>2026-04-29T11:01:10.097Z</time></trkpt><trkpt lat="36.8499657" lon="-1.5077862"><ele>0.0</ele><time>2026-04-29T11:01:11.097Z</time></trkpt><trkpt lat="36.8500692" lon="-1.5076309"><ele>0.0</ele><time>2026-04-29T11:01:13.097Z</time></trkpt><trkpt lat="36.8501179" lon="-1.5075457"><ele>0.0</ele><time>2026-04-29T11:01:14.097Z</time></trkpt><trkpt lat="36.850172" lon="-1.5074609"><ele>0.0</ele><time>2026-04-29T11:01:15.097Z</time></trkpt><trkpt lat="36.850228" lon="-1.5073743"><ele>0.0</ele><time>2026-04-29T11:01:16.098Z</time></trkpt><trkpt lat="36.8502817" lon="-1.5072846"><ele>0.0</ele><time>2026-04-29T11:01:17.097Z</time></trkpt><trkpt lat="36.8503352" lon="-1.5072019"><ele>0.0</ele><time>2026-04-29T11:01:18.098Z</time></trkpt><trkpt lat="36.8503968" lon="-1.5071231"><ele>0.0</ele><time>2026-04-29T11:01:19.097Z</time></trkpt><trkpt lat="36.8504502" lon="-1.5070403"><ele>0.0</ele><time>2026-04-29T11:01:20.097Z</time></trkpt><trkpt lat="36.8505092" lon="-1.5069556"><ele>0.0</ele><time>2026-04-29T11:01:21.098Z</time></trkpt><trkpt lat="36.8505607" lon="-1.506872"><ele>0.0</ele><time>2026-04-29T11:01:22.098Z</time></trkpt><trkpt lat="36.850621" lon="-1.5067944"><ele>0.0</ele><time>2026-04-29T11:01:23.098Z</time></trkpt><trkpt lat="36.8506768" lon="-1.5067087"><ele>0.0</ele><time>2026-04-29T11:01:24.097Z</time></trkpt><trkpt lat="36.8507274" lon="-1.5066197"><ele>0.0</ele><time>2026-04-29T11:01:25.098Z</time></trkpt><trkpt lat="36.8507876" lon="-1.5065356"><ele>0.0</ele><time>2026-04-29T11:01:26.097Z</time></trkpt><trkpt lat="36.8508432" lon="-1.5064505"><ele>0.0</ele><time>2026-04-29T11:01:27.098Z</time></trkpt><trkpt lat="36.8508953" lon="-1.5063683"><ele>0.0</ele><time>2026-04-29T11:01:28.097Z</time></trkpt><trkpt lat="36.8509502" lon="-1.5062839"><ele>0.0</ele><time>2026-04-29T11:01:29.098Z</time></trkpt><trkpt lat="36.8510051" lon="-1.5062002"><ele>0.0</ele><time>2026-04-29T11:01:30.098Z</time></trkpt><trkpt lat="36.8510574" lon="-1.5061152"><ele>0.0</ele><time>2026-04-29T11:01:31.098Z</time></trkpt><trkpt lat="36.8511176" lon="-1.5060406"><ele>0.0</ele><time>2026-04-29T11:01:32.097Z</time></trkpt><trkpt lat="36.8512253" lon="-1.5058793"><ele>0.0</ele><time>2026-04-29T11:01:34.097Z</time></trkpt><trkpt lat="36.8512742" lon="-1.5057938"><ele>0.0</ele><time>2026-04-29T11:01:35.097Z</time></trkpt><trkpt lat="36.851327" lon="-1.5057104"><ele>0.0</ele><time>2026-04-29T11:01:36.097Z</time></trkpt><trkpt lat="36.8513772" lon="-1.5056252"><ele>0.0</ele><time>2026-04-29T11:01:37.097Z</time></trkpt><trkpt lat="36.8514316" lon="-1.5055445"><ele>0.0</ele><time>2026-04-29T11:01:38.098Z</time></trkpt><trkpt lat="36.8514837" lon="-1.5054621"><ele>0.0</ele><time>2026-04-29T11:01:39.098Z</time></trkpt><trkpt lat="36.8515326" lon="-1.5053784"><ele>0.0</ele><time>2026-04-29T11:01:40.098Z</time></trkpt><trkpt lat="36.8515866" lon="-1.5052979"><ele>0.0</ele><time>2026-04-29T11:01:41.098Z</time></trkpt><trkpt lat="36.8516419" lon="-1.5052171"><ele>0.0</ele><time>2026-04-29T11:01:42.098Z</time></trkpt><trkpt lat="36.8516965" lon="-1.505135"><ele>0.0</ele><time>2026-04-29T11:01:43.097Z</time></trkpt><trkpt lat="36.8517497" lon="-1.5050508"><ele>0.0</ele><time>2026-04-29T11:01:44.098Z</time></trkpt><trkpt lat="36.851809" lon="-1.5049716"><ele>0.0</ele><time>2026-04-29T11:01:45.098Z</time></trkpt><trkpt lat="36.8518679" lon="-1.5048816"><ele>0.0</ele><time>2026-04-29T11:01:46.097Z</time></trkpt><trkpt lat="36.8519291" lon="-1.5047902"><ele>0.0</ele><time>2026-04-29T11:01:47.097Z</time></trkpt><trkpt lat="36.8519881" lon="-1.5047086"><ele>0.0</ele><time>2026-04-29T11:01:48.097Z</time></trkpt><trkpt lat="36.8520451" lon="-1.5046298"><ele>0.0</ele><time>2026-04-29T11:01:49.097Z</time></trkpt><trkpt lat="36.8520986" lon="-1.5045524"><ele>0.0</ele><time>2026-04-29T11:01:50.097Z</time></trkpt><trkpt lat="36.8521534" lon="-1.5044714"><ele>0.0</ele><time>2026-04-29T11:01:51.098Z</time></trkpt><trkpt lat="36.8522082" lon="-1.5043933"><ele>0.0</ele><time>2026-04-29T11:01:52.097Z</time></trkpt><trkpt lat="36.8522677" lon="-1.504309"><ele>0.0</ele><time>2026-04-29T11:01:53.097Z</time></trkpt><trkpt lat="36.8523873" lon="-1.5041461"><ele>0.0</ele><time>2026-04-29T11:01:55.097Z</time></trkpt><trkpt lat="36.8524437" lon="-1.5040636"><ele>0.0</ele><time>2026-04-29T11:01:56.098Z</time></trkpt><trkpt lat="36.8524989" lon="-1.5039861"><ele>0.0</ele><time>2026-04-29T11:01:57.097Z</time></trkpt><trkpt lat="36.8525576" lon="-1.5039008"><ele>0.0</ele><time>2026-04-29T11:01:58.098Z</time></trkpt><trkpt lat="36.8526191" lon="-1.5038175"><ele>0.0</ele><time>2026-04-29T11:01:59.098Z</time></trkpt><trkpt lat="36.8526797" lon="-1.5037356"><ele>0.0</ele><time>2026-04-29T11:02:00.097Z</time></trkpt><trkpt lat="36.8527368" lon="-1.503655"><ele>0.0</ele><time>2026-04-29T11:02:01.097Z</time></trkpt><trkpt lat="36.8527949" lon="-1.5035746"><ele>0.0</ele><time>2026-04-29T11:02:02.097Z</time></trkpt><trkpt lat="36.8528604" lon="-1.5035059"><ele>0.0</ele><time>2026-04-29T11:02:03.097Z</time></trkpt><trkpt lat="36.8529197" lon="-1.5034256"><ele>0.0</ele><time>2026-04-29T11:02:04.097Z</time></trkpt><trkpt lat="36.8529798" lon="-1.5033437"><ele>0.0</ele><time>2026-04-29T11:02:05.098Z</time></trkpt><trkpt lat="36.8530368" lon="-1.503263"><ele>0.0</ele><time>2026-04-29T11:02:06.098Z</time></trkpt><trkpt lat="36.8530951" lon="-1.5031834"><ele>0.0</ele><time>2026-04-29T11:02:07.098Z</time></trkpt><trkpt lat="36.8531507" lon="-1.5031016"><ele>0.0</ele><time>2026-04-29T11:02:08.098Z</time></trkpt><trkpt lat="36.8532013" lon="-1.5030216"><ele>0.0</ele><time>2026-04-29T11:02:09.097Z</time></trkpt><trkpt lat="36.8532539" lon="-1.5029374"><ele>0.0</ele><time>2026-04-29T11:02:10.097Z</time></trkpt><trkpt lat="36.8533076" lon="-1.5028552"><ele>0.0</ele><time>2026-04-29T11:02:11.097Z</time></trkpt><trkpt lat="36.853358" lon="-1.5027836"><ele>0.0</ele><time>2026-04-29T11:02:12.098Z</time></trkpt><trkpt lat="36.8534065" lon="-1.5027035"><ele>0.0</ele><time>2026-04-29T11:02:13.098Z</time></trkpt><trkpt lat="36.8534603" lon="-1.5026178"><ele>0.0</ele><time>2026-04-29T11:02:14.097Z</time></trkpt><trkpt lat="36.8535751" lon="-1.5024572"><ele>0.0</ele><time>2026-04-29T11:02:16.097Z</time></trkpt><trkpt lat="36.8536274" lon="-1.5023748"><ele>0.0</ele><time>2026-04-29T11:02:17.098Z</time></trkpt><trkpt lat="36.8536792" lon="-1.5023018"><ele>0.0</ele><time>2026-04-29T11:02:18.098Z</time></trkpt><trkpt lat="36.8537323" lon="-1.5022148"><ele>0.0</ele><time>2026-04-29T11:02:19.098Z</time></trkpt><trkpt lat="36.8537827" lon="-1.5021335"><ele>0.0</ele><time>2026-04-29T11:02:20.098Z</time></trkpt><trkpt lat="36.8538425" lon="-1.5020491"><ele>0.0</ele><time>2026-04-29T11:02:21.097Z</time></trkpt><trkpt lat="36.8539011" lon="-1.5019699"><ele>0.0</ele><time>2026-04-29T11:02:22.097Z</time></trkpt><trkpt lat="36.8539551" lon="-1.5018828"><ele>0.0</ele><time>2026-04-29T11:02:23.098Z</time></trkpt><trkpt lat="36.8540002" lon="-1.5017959"><ele>0.0</ele><time>2026-04-29T11:02:24.097Z</time></trkpt><trkpt lat="36.8540494" lon="-1.5017109"><ele>0.0</ele><time>2026-04-29T11:02:25.097Z</time></trkpt><trkpt lat="36.8541022" lon="-1.5016198"><ele>0.0</ele><time>2026-04-29T11:02:26.097Z</time></trkpt><trkpt lat="36.8541554" lon="-1.5015395"><ele>0.0</ele><time>2026-04-29T11:02:27.098Z</time></trkpt><trkpt lat="36.854203" lon="-1.5014555"><ele>0.0</ele><time>2026-04-29T11:02:28.097Z</time></trkpt><trkpt lat="36.8542469" lon="-1.5013722"><ele>0.0</ele><time>2026-04-29T11:02:29.097Z</time></trkpt><trkpt lat="36.8542984" lon="-1.5012894"><ele>0.0</ele><time>2026-04-29T11:02:30.098Z</time></trkpt><trkpt lat="36.8543475" lon="-1.5012038"><ele>0.0</ele><time>2026-04-29T11:02:31.098Z</time></trkpt><trkpt lat="36.8544044" lon="-1.5011173"><ele>0.0</ele><time>2026-04-29T11:02:32.097Z</time></trkpt><trkpt lat="36.8544595" lon="-1.5010349"><ele>0.0</ele><time>2026-04-29T11:02:33.097Z</time></trkpt><trkpt lat="36.8545134" lon="-1.5009486"><ele>0.0</ele><time>2026-04-29T11:02:34.098Z</time></trkpt><trkpt lat="36.8545667" lon="-1.5008647"><ele>0.0</ele><time>2026-04-29T11:02:35.097Z</time></trkpt><trkpt lat="36.8546836" lon="-1.5006962"><ele>0.0</ele><time>2026-04-29T11:02:37.098Z</time></trkpt><trkpt lat="36.8547423" lon="-1.5006176"><ele>0.0</ele><time>2026-04-29T11:02:38.097Z</time></trkpt><trkpt lat="36.8548036" lon="-1.5005322"><ele>0.0</ele><time>2026-04-29T11:02:39.097Z</time></trkpt><trkpt lat="36.8548612" lon="-1.5004501"><ele>0.0</ele><time>2026-04-29T11:02:40.097Z</time></trkpt><trkpt lat="36.8549178" lon="-1.5003643"><ele>0.0</ele><time>2026-04-29T11:02:41.097Z</time></trkpt><trkpt lat="36.8549706" lon="-1.5002829"><ele>0.0</ele><time>2026-04-29T11:02:42.097Z</time></trkpt><trkpt lat="36.855028" lon="-1.5002003"><ele>0.0</ele><time>2026-04-29T11:02:43.097Z</time></trkpt><trkpt lat="36.8550861" lon="-1.5001184"><ele>0.0</ele><time>2026-04-29T11:02:44.098Z</time></trkpt><trkpt lat="36.8551431" lon="-1.5000369"><ele>0.0</ele><time>2026-04-29T11:02:45.098Z</time></trkpt><trkpt lat="36.8552055" lon="-1.4999576"><ele>0.0</ele><time>2026-04-29T11:02:46.098Z</time></trkpt><trkpt lat="36.855263" lon="-1.4998706"><ele>0.0</ele><time>2026-04-29T11:02:47.097Z</time></trkpt><trkpt lat="36.8553172" lon="-1.4997899"><ele>0.0</ele><time>2026-04-29T11:02:48.098Z</time></trkpt><trkpt lat="36.855372" lon="-1.4997083"><ele>0.0</ele><time>2026-04-29T11:02:49.097Z</time></trkpt><trkpt lat="36.8554355" lon="-1.499621"><ele>0.0</ele><time>2026-04-29T11:02:50.097Z</time></trkpt><trkpt lat="36.8555003" lon="-1.4995399"><ele>0.0</ele><time>2026-04-29T11:02:51.097Z</time></trkpt><trkpt lat="36.8555595" lon="-1.4994541"><ele>0.0</ele><time>2026-04-29T11:02:52.098Z</time></trkpt><trkpt lat="36.8556138" lon="-1.4993745"><ele>0.0</ele><time>2026-04-29T11:02:53.097Z</time></trkpt><trkpt lat="36.8556615" lon="-1.4992907"><ele>0.0</ele><time>2026-04-29T11:02:54.097Z</time></trkpt><trkpt lat="36.8557126" lon="-1.499209"><ele>0.0</ele><time>2026-04-29T11:02:55.096Z</time></trkpt><trkpt lat="36.8558271" lon="-1.499056"><ele>0.0</ele><time>2026-04-29T11:02:57.097Z</time></trkpt><trkpt lat="36.8558806" lon="-1.4989722"><ele>0.0</ele><time>2026-04-29T11:02:58.096Z</time></trkpt><trkpt lat="36.8559368" lon="-1.4988869"><ele>0.0</ele><time>2026-04-29T11:02:59.096Z</time></trkpt><trkpt lat="36.8559904" lon="-1.4988034"><ele>0.0</ele><time>2026-04-29T11:03:00.097Z</time></trkpt><trkpt lat="36.8560493" lon="-1.4987233"><ele>0.0</ele><time>2026-04-29T11:03:01.097Z</time></trkpt><trkpt lat="36.8561034" lon="-1.4986459"><ele>0.0</ele><time>2026-04-29T11:03:02.097Z</time></trkpt><trkpt lat="36.8561554" lon="-1.4985665"><ele>0.0</ele><time>2026-04-29T11:03:03.097Z</time></trkpt><trkpt lat="36.8562131" lon="-1.498484"><ele>0.0</ele><time>2026-04-29T11:03:04.096Z</time></trkpt><trkpt lat="36.8562657" lon="-1.4983952"><ele>0.0</ele><time>2026-04-29T11:03:05.096Z</time></trkpt><trkpt lat="36.8563247" lon="-1.4983091"><ele>0.0</ele><time>2026-04-29T11:03:06.097Z</time></trkpt><trkpt lat="36.8563829" lon="-1.4982325"><ele>0.0</ele><time>2026-04-29T11:03:07.096Z</time></trkpt><trkpt lat="36.8564346" lon="-1.4981614"><ele>0.0</ele><time>2026-04-29T11:03:08.096Z</time></trkpt><trkpt lat="36.8564828" lon="-1.4980871"><ele>0.0</ele><time>2026-04-29T11:03:09.096Z</time></trkpt><trkpt lat="36.8565385" lon="-1.4980033"><ele>0.0</ele><time>2026-04-29T11:03:10.097Z</time></trkpt><trkpt lat="36.8566005" lon="-1.4979304"><ele>0.0</ele><time>2026-04-29T11:03:11.097Z</time></trkpt><trkpt lat="36.8566595" lon="-1.497856"><ele>0.0</ele><time>2026-04-29T11:03:12.096Z</time></trkpt><trkpt lat="36.8567223" lon="-1.497771"><ele>0.0</ele><time>2026-04-29T11:03:13.097Z</time></trkpt><trkpt lat="36.8567758" lon="-1.4976859"><ele>0.0</ele><time>2026-04-29T11:03:14.097Z</time></trkpt><trkpt lat="36.8568231" lon="-1.497595"><ele>0.0</ele><time>2026-04-29T11:03:15.096Z</time></trkpt><trkpt lat="36.8568857" lon="-1.4975123"><ele>0.0</ele><time>2026-04-29T11:03:16.096Z</time></trkpt><trkpt lat="36.8570081" lon="-1.4973513"><ele>0.0</ele><time>2026-04-29T11:03:18.096Z</time></trkpt><trkpt lat="36.8570697" lon="-1.4972702"><ele>0.0</ele><time>2026-04-29T11:03:19.096Z</time></trkpt><trkpt lat="36.857128" lon="-1.4971845"><ele>0.0</ele><time>2026-04-29T11:03:20.096Z</time></trkpt><trkpt lat="36.8571767" lon="-1.4971035"><ele>0.0</ele><time>2026-04-29T11:03:21.097Z</time></trkpt><trkpt lat="36.8572307" lon="-1.4970233"><ele>0.0</ele><time>2026-04-29T11:03:22.096Z</time></trkpt><trkpt lat="36.8572885" lon="-1.4969439"><ele>0.0</ele><time>2026-04-29T11:03:23.096Z</time></trkpt><trkpt lat="36.8573408" lon="-1.4968636"><ele>0.0</ele><time>2026-04-29T11:03:24.096Z</time></trkpt><trkpt lat="36.857401" lon="-1.4967885"><ele>0.0</ele><time>2026-04-29T11:03:25.096Z</time></trkpt><trkpt lat="36.8574554" lon="-1.4967096"><ele>0.0</ele><time>2026-04-29T11:03:26.096Z</time></trkpt><trkpt lat="36.857509" lon="-1.4966272"><ele>0.0</ele><time>2026-04-29T11:03:27.096Z</time></trkpt><trkpt lat="36.8575677" lon="-1.4965469"><ele>0.0</ele><time>2026-04-29T11:03:28.096Z</time></trkpt><trkpt lat="36.8576222" lon="-1.4964626"><ele>0.0</ele><time>2026-04-29T11:03:29.096Z</time></trkpt><trkpt lat="36.857677" lon="-1.4963733"><ele>0.0</ele><time>2026-04-29T11:03:30.096Z</time></trkpt><trkpt lat="36.8577321" lon="-1.4962887"><ele>0.0</ele><time>2026-04-29T11:03:31.097Z</time></trkpt><trkpt lat="36.8577866" lon="-1.4962079"><ele>0.0</ele><time>2026-04-29T11:03:32.096Z</time></trkpt><trkpt lat="36.8578473" lon="-1.4961283"><ele>0.0</ele><time>2026-04-29T11:03:33.097Z</time></trkpt><trkpt lat="36.8579019" lon="-1.4960512"><ele>0.0</ele><time>2026-04-29T11:03:34.096Z</time></trkpt><trkpt lat="36.8579622" lon="-1.4959686"><ele>0.0</ele><time>2026-04-29T11:03:35.097Z</time></trkpt><trkpt lat="36.858024" lon="-1.4958853"><ele>0.0</ele><time>2026-04-29T11:03:36.097Z</time></trkpt><trkpt lat="36.8580717" lon="-1.4957978"><ele>0.0</ele><time>2026-04-29T11:03:37.096Z</time></trkpt><trkpt lat="36.8581865" lon="-1.4956273"><ele>0.0</ele><time>2026-04-29T11:03:39.097Z</time></trkpt><trkpt lat="36.8582376" lon="-1.4955523"><ele>0.0</ele><time>2026-04-29T11:03:40.097Z</time></trkpt><trkpt lat="36.8582864" lon="-1.4954734"><ele>0.0</ele><time>2026-04-29T11:03:41.097Z</time></trkpt><trkpt lat="36.8583432" lon="-1.4953956"><ele>0.0</ele><time>2026-04-29T11:03:42.097Z</time></trkpt><trkpt lat="36.8583945" lon="-1.4953161"><ele>0.0</ele><time>2026-04-29T11:03:43.096Z</time></trkpt><trkpt lat="36.858447" lon="-1.495237"><ele>0.0</ele><time>2026-04-29T11:03:44.096Z</time></trkpt><trkpt lat="36.8585047" lon="-1.4951567"><ele>0.0</ele><time>2026-04-29T11:03:45.096Z</time></trkpt><trkpt lat="36.8585659" lon="-1.4950749"><ele>0.0</ele><time>2026-04-29T11:03:46.096Z</time></trkpt><trkpt lat="36.8586187" lon="-1.4949947"><ele>0.0</ele><time>2026-04-29T11:03:47.097Z</time></trkpt><trkpt lat="36.8586775" lon="-1.4949134"><ele>0.0</ele><time>2026-04-29T11:03:48.096Z</time></trkpt><trkpt lat="36.8587346" lon="-1.4948293"><ele>0.0</ele><time>2026-04-29T11:03:49.096Z</time></trkpt><trkpt lat="36.8587915" lon="-1.4947424"><ele>0.0</ele><time>2026-04-29T11:03:50.096Z</time></trkpt><trkpt lat="36.8588439" lon="-1.4946496"><ele>0.0</ele><time>2026-04-29T11:03:51.097Z</time></trkpt><trkpt lat="36.8588986" lon="-1.4945623"><ele>0.0</ele><time>2026-04-29T11:03:52.097Z</time></trkpt><trkpt lat="36.8589606" lon="-1.494476"><ele>0.0</ele><time>2026-04-29T11:03:53.096Z</time></trkpt><trkpt lat="36.8590151" lon="-1.4943976"><ele>0.0</ele><time>2026-04-29T11:03:54.097Z</time></trkpt><trkpt lat="36.8590699" lon="-1.4943163"><ele>0.0</ele><time>2026-04-29T11:03:55.097Z</time></trkpt><trkpt lat="36.8591264" lon="-1.4942349"><ele>0.0</ele><time>2026-04-29T11:03:56.096Z</time></trkpt><trkpt lat="36.85919" lon="-1.4941478"><ele>0.0</ele><time>2026-04-29T11:03:57.096Z</time></trkpt><trkpt lat="36.8592532" lon="-1.4940721"><ele>0.0</ele><time>2026-04-29T11:03:58.096Z</time></trkpt><trkpt lat="36.859363" lon="-1.4938963"><ele>0.0</ele><time>2026-04-29T11:04:00.096Z</time></trkpt><trkpt lat="36.85942" lon="-1.4938107"><ele>0.0</ele><time>2026-04-29T11:04:01.097Z</time></trkpt><trkpt lat="36.8594767" lon="-1.4937309"><ele>0.0</ele><time>2026-04-29T11:04:02.096Z</time></trkpt><trkpt lat="36.8595304" lon="-1.493644"><ele>0.0</ele><time>2026-04-29T11:04:03.096Z</time></trkpt><trkpt lat="36.8595809" lon="-1.493556"><ele>0.0</ele><time>2026-04-29T11:04:04.096Z</time></trkpt><trkpt lat="36.8596479" lon="-1.4934779"><ele>0.0</ele><time>2026-04-29T11:04:05.097Z</time></trkpt><trkpt lat="36.8597132" lon="-1.4934082"><ele>0.0</ele><time>2026-04-29T11:04:06.096Z</time></trkpt><trkpt lat="36.8597672" lon="-1.4933356"><ele>0.0</ele><time>2026-04-29T11:04:07.096Z</time></trkpt><trkpt lat="36.8598206" lon="-1.4932549"><ele>0.0</ele><time>2026-04-29T11:04:08.096Z</time></trkpt><trkpt lat="36.8598741" lon="-1.4931693"><ele>0.0</ele><time>2026-04-29T11:04:09.097Z</time></trkpt><trkpt lat="36.8599317" lon="-1.4930796"><ele>0.0</ele><time>2026-04-29T11:04:10.096Z</time></trkpt><trkpt lat="36.8599914" lon="-1.4929913"><ele>0.0</ele><time>2026-04-29T11:04:11.096Z</time></trkpt><trkpt lat="36.8600483" lon="-1.4929075"><ele>0.0</ele><time>2026-04-29T11:04:12.097Z</time></trkpt><trkpt lat="36.8601006" lon="-1.4928261"><ele>0.0</ele><time>2026-04-29T11:04:13.096Z</time></trkpt><trkpt lat="36.8601555" lon="-1.4927504"><ele>0.0</ele><time>2026-04-29T11:04:14.097Z</time></trkpt><trkpt lat="36.8602063" lon="-1.4926728"><ele>0.0</ele><time>2026-04-29T11:04:15.096Z</time></trkpt><trkpt lat="36.8602577" lon="-1.4925902"><ele>0.0</ele><time>2026-04-29T11:04:16.097Z</time></trkpt><trkpt lat="36.8603047" lon="-1.4925041"><ele>0.0</ele><time>2026-04-29T11:04:17.097Z</time></trkpt><trkpt lat="36.8603542" lon="-1.4924275"><ele>0.0</ele><time>2026-04-29T11:04:18.097Z</time></trkpt><trkpt lat="36.8604012" lon="-1.4923507"><ele>0.0</ele><time>2026-04-29T11:04:19.097Z</time></trkpt><trkpt lat="36.8605112" lon="-1.4921809"><ele>0.0</ele><time>2026-04-29T11:04:21.096Z</time></trkpt><trkpt lat="36.8605714" lon="-1.4920953"><ele>0.0</ele><time>2026-04-29T11:04:22.096Z</time></trkpt><trkpt lat="36.8606314" lon="-1.4920144"><ele>0.0</ele><time>2026-04-29T11:04:23.096Z</time></trkpt><trkpt lat="36.860691" lon="-1.491936"><ele>0.0</ele><time>2026-04-29T11:04:24.096Z</time></trkpt><trkpt lat="36.8607525" lon="-1.4918562"><ele>0.0</ele><time>2026-04-29T11:04:25.097Z</time></trkpt><trkpt lat="36.8608096" lon="-1.491773"><ele>0.0</ele><time>2026-04-29T11:04:26.096Z</time></trkpt><trkpt lat="36.8608617" lon="-1.49169"><ele>0.0</ele><time>2026-04-29T11:04:27.097Z</time></trkpt><trkpt lat="36.8609248" lon="-1.4916141"><ele>0.0</ele><time>2026-04-29T11:04:28.096Z</time></trkpt><trkpt lat="36.8609855" lon="-1.4915347"><ele>0.0</ele><time>2026-04-29T11:04:29.096Z</time></trkpt><trkpt lat="36.8610347" lon="-1.4914528"><ele>0.0</ele><time>2026-04-29T11:04:30.097Z</time></trkpt><trkpt lat="36.8610886" lon="-1.4913615"><ele>0.0</ele><time>2026-04-29T11:04:31.096Z</time></trkpt><trkpt lat="36.8611452" lon="-1.4912736"><ele>0.0</ele><time>2026-04-29T11:04:32.096Z</time></trkpt><trkpt lat="36.8612174" lon="-1.4911971"><ele>0.0</ele><time>2026-04-29T11:04:33.096Z</time></trkpt><trkpt lat="36.8612861" lon="-1.4911179"><ele>0.0</ele><time>2026-04-29T11:04:34.096Z</time></trkpt><trkpt lat="36.861335" lon="-1.4910338"><ele>0.0</ele><time>2026-04-29T11:04:35.097Z</time></trkpt><trkpt lat="36.8613849" lon="-1.4909557"><ele>0.0</ele><time>2026-04-29T11:04:36.096Z</time></trkpt><trkpt lat="36.8614327" lon="-1.4908766"><ele>0.0</ele><time>2026-04-29T11:04:37.096Z</time></trkpt><trkpt lat="36.8614711" lon="-1.4907813"><ele>0.0</ele><time>2026-04-29T11:04:38.097Z</time></trkpt><trkpt lat="36.8615151" lon="-1.4906913"><ele>0.0</ele><time>2026-04-29T11:04:39.096Z</time></trkpt><trkpt lat="36.8615626" lon="-1.4906054"><ele>0.0</ele><time>2026-04-29T11:04:40.096Z</time></trkpt><trkpt lat="36.8616596" lon="-1.4904443"><ele>0.0</ele><time>2026-04-29T11:04:42.097Z</time></trkpt><trkpt lat="36.8617128" lon="-1.4903695"><ele>0.0</ele><time>2026-04-29T11:04:43.097Z</time></trkpt><trkpt lat="36.8617707" lon="-1.4902856"><ele>0.0</ele><time>2026-04-29T11:04:44.097Z</time></trkpt><trkpt lat="36.8618321" lon="-1.4901987"><ele>0.0</ele><time>2026-04-29T11:04:45.097Z</time></trkpt><trkpt lat="36.8618894" lon="-1.4901131"><ele>0.0</ele><time>2026-04-29T11:04:46.097Z</time></trkpt><trkpt lat="36.8619459" lon="-1.4900311"><ele>0.0</ele><time>2026-04-29T11:04:47.096Z</time></trkpt><trkpt lat="36.8620058" lon="-1.4899555"><ele>0.0</ele><time>2026-04-29T11:04:48.097Z</time></trkpt><trkpt lat="36.8620642" lon="-1.4898775"><ele>0.0</ele><time>2026-04-29T11:04:49.097Z</time></trkpt><trkpt lat="36.86212" lon="-1.4897981"><ele>0.0</ele><time>2026-04-29T11:04:50.097Z</time></trkpt><trkpt lat="36.862179" lon="-1.4897081"><ele>0.0</ele><time>2026-04-29T11:04:51.096Z</time></trkpt><trkpt lat="36.8622375" lon="-1.4896278"><ele>0.0</ele><time>2026-04-29T11:04:52.097Z</time></trkpt><trkpt lat="36.8622903" lon="-1.4895452"><ele>0.0</ele><time>2026-04-29T11:04:53.097Z</time></trkpt><trkpt lat="36.8623464" lon="-1.4894578"><ele>0.0</ele><time>2026-04-29T11:04:54.096Z</time></trkpt><trkpt lat="36.8624004" lon="-1.4893734"><ele>0.0</ele><time>2026-04-29T11:04:55.096Z</time></trkpt><trkpt lat="36.8624536" lon="-1.4892875"><ele>0.0</ele><time>2026-04-29T11:04:56.097Z</time></trkpt><trkpt lat="36.8625101" lon="-1.4892051"><ele>0.0</ele><time>2026-04-29T11:04:57.096Z</time></trkpt><trkpt lat="36.8625666" lon="-1.4891217"><ele>0.0</ele><time>2026-04-29T11:04:58.096Z</time></trkpt><trkpt lat="36.8626161" lon="-1.4890413"><ele>0.0</ele><time>2026-04-29T11:04:59.097Z</time></trkpt><trkpt lat="36.8626798" lon="-1.4889541"><ele>0.0</ele><time>2026-04-29T11:05:00.097Z</time></trkpt><trkpt lat="36.8627317" lon="-1.488867"><ele>0.0</ele><time>2026-04-29T11:05:01.097Z</time></trkpt><trkpt lat="36.862834" lon="-1.4887076"><ele>0.0</ele><time>2026-04-29T11:05:03.097Z</time></trkpt><trkpt lat="36.8628867" lon="-1.4886322"><ele>0.0</ele><time>2026-04-29T11:05:04.097Z</time></trkpt><trkpt lat="36.862943" lon="-1.48855"><ele>0.0</ele><time>2026-04-29T11:05:05.097Z</time></trkpt><trkpt lat="36.8629939" lon="-1.4884681"><ele>0.0</ele><time>2026-04-29T11:05:06.096Z</time></trkpt><trkpt lat="36.8630486" lon="-1.4883811"><ele>0.0</ele><time>2026-04-29T11:05:07.096Z</time></trkpt><trkpt lat="36.8631037" lon="-1.4882984"><ele>0.0</ele><time>2026-04-29T11:05:08.096Z</time></trkpt><trkpt lat="36.8631558" lon="-1.4882168"><ele>0.0</ele><time>2026-04-29T11:05:09.096Z</time></trkpt><trkpt lat="36.8632101" lon="-1.4881327"><ele>0.0</ele><time>2026-04-29T11:05:10.096Z</time></trkpt><trkpt lat="36.8632651" lon="-1.4880518"><ele>0.0</ele><time>2026-04-29T11:05:11.097Z</time></trkpt><trkpt lat="36.8633202" lon="-1.4879716"><ele>0.0</ele><time>2026-04-29T11:05:12.097Z</time></trkpt><trkpt lat="36.8633794" lon="-1.487893"><ele>0.0</ele><time>2026-04-29T11:05:13.096Z</time></trkpt><trkpt lat="36.8634352" lon="-1.4878162"><ele>0.0</ele><time>2026-04-29T11:05:14.096Z</time></trkpt><trkpt lat="36.8634885" lon="-1.4877393"><ele>0.0</ele><time>2026-04-29T11:05:15.096Z</time></trkpt><trkpt lat="36.8635378" lon="-1.4876539"><ele>0.0</ele><time>2026-04-29T11:05:16.096Z</time></trkpt><trkpt lat="36.863592" lon="-1.4875645"><ele>0.0</ele><time>2026-04-29T11:05:17.096Z</time></trkpt><trkpt lat="36.8636468" lon="-1.4874761"><ele>0.0</ele><time>2026-04-29T11:05:18.097Z</time></trkpt><trkpt lat="36.8637076" lon="-1.4873945"><ele>0.0</ele><time>2026-04-29T11:05:19.096Z</time></trkpt><trkpt lat="36.8637704" lon="-1.4873172"><ele>0.0</ele><time>2026-04-29T11:05:20.096Z</time></trkpt><trkpt lat="36.863824" lon="-1.4872424"><ele>0.0</ele><time>2026-04-29T11:05:21.096Z</time></trkpt><trkpt lat="36.8638756" lon="-1.4871615"><ele>0.0</ele><time>2026-04-29T11:05:22.097Z</time></trkpt><trkpt lat="36.8639857" lon="-1.4869952"><ele>0.0</ele><time>2026-04-29T11:05:24.097Z</time></trkpt><trkpt lat="36.8640332" lon="-1.4869076"><ele>0.0</ele><time>2026-04-29T11:05:25.096Z</time></trkpt><trkpt lat="36.8640868" lon="-1.4868253"><ele>0.0</ele><time>2026-04-29T11:05:26.096Z</time></trkpt><trkpt lat="36.8641473" lon="-1.4867409"><ele>0.0</ele><time>2026-04-29T11:05:27.096Z</time></trkpt><trkpt lat="36.8642032" lon="-1.4866602"><ele>0.0</ele><time>2026-04-29T11:05:28.096Z</time></trkpt><trkpt lat="36.8642583" lon="-1.4865782"><ele>0.0</ele><time>2026-04-29T11:05:29.097Z</time></trkpt><trkpt lat="36.8643145" lon="-1.4864927"><ele>0.0</ele><time>2026-04-29T11:05:30.096Z</time></trkpt><trkpt lat="36.8643755" lon="-1.4864103"><ele>0.0</ele><time>2026-04-29T11:05:31.096Z</time></trkpt><trkpt lat="36.8644301" lon="-1.4863269"><ele>0.0</ele><time>2026-04-29T11:05:32.097Z</time></trkpt><trkpt lat="36.8644835" lon="-1.4862461"><ele>0.0</ele><time>2026-04-29T11:05:33.097Z</time></trkpt><trkpt lat="36.8645435" lon="-1.4861647"><ele>0.0</ele><time>2026-04-29T11:05:34.096Z</time></trkpt><trkpt lat="36.8646067" lon="-1.4860905"><ele>0.0</ele><time>2026-04-29T11:05:35.096Z</time></trkpt><trkpt lat="36.8646663" lon="-1.4860072"><ele>0.0</ele><time>2026-04-29T11:05:36.097Z</time></trkpt><trkpt lat="36.864724" lon="-1.4859193"><ele>0.0</ele><time>2026-04-29T11:05:37.096Z</time></trkpt><trkpt lat="36.8647782" lon="-1.4858338"><ele>0.0</ele><time>2026-04-29T11:05:38.096Z</time></trkpt><trkpt lat="36.8648356" lon="-1.4857432"><ele>0.0</ele><time>2026-04-29T11:05:39.096Z</time></trkpt><trkpt lat="36.8648845" lon="-1.4856658"><ele>0.0</ele><time>2026-04-29T11:05:40.097Z</time></trkpt><trkpt lat="36.864937" lon="-1.4855836"><ele>0.0</ele><time>2026-04-29T11:05:41.096Z</time></trkpt><trkpt lat="36.8649917" lon="-1.4854971"><ele>0.0</ele><time>2026-04-29T11:05:42.096Z</time></trkpt><trkpt lat="36.865046" lon="-1.4854137"><ele>0.0</ele><time>2026-04-29T11:05:43.096Z</time></trkpt><trkpt lat="36.8651607" lon="-1.4852569"><ele>0.0</ele><time>2026-04-29T11:05:45.096Z</time></trkpt><trkpt lat="36.8652219" lon="-1.4851876"><ele>0.0</ele><time>2026-04-29T11:05:46.096Z</time></trkpt><trkpt lat="36.8652811" lon="-1.4851133"><ele>0.0</ele><time>2026-04-29T11:05:47.096Z</time></trkpt><trkpt lat="36.8653352" lon="-1.4850414"><ele>0.0</ele><time>2026-04-29T11:05:48.097Z</time></trkpt><trkpt lat="36.8653884" lon="-1.4849602"><ele>0.0</ele><time>2026-04-29T11:05:49.097Z</time></trkpt><trkpt lat="36.8654404" lon="-1.4848785"><ele>0.0</ele><time>2026-04-29T11:05:50.096Z</time></trkpt><trkpt lat="36.865492" lon="-1.4847924"><ele>0.0</ele><time>2026-04-29T11:05:51.096Z</time></trkpt><trkpt lat="36.8655436" lon="-1.4847085"><ele>0.0</ele><time>2026-04-29T11:05:52.097Z</time></trkpt><trkpt lat="36.8655938" lon="-1.4846239"><ele>0.0</ele><time>2026-04-29T11:05:53.096Z</time></trkpt><trkpt lat="36.865654" lon="-1.4845403"><ele>0.0</ele><time>2026-04-29T11:05:54.096Z</time></trkpt><trkpt lat="36.8657199" lon="-1.4844539"><ele>0.0</ele><time>2026-04-29T11:05:55.097Z</time></trkpt><trkpt lat="36.8657791" lon="-1.4843704"><ele>0.0</ele><time>2026-04-29T11:05:56.097Z</time></trkpt><trkpt lat="36.8658333" lon="-1.4842825"><ele>0.0</ele><time>2026-04-29T11:05:57.097Z</time></trkpt><trkpt lat="36.8658854" lon="-1.4841928"><ele>0.0</ele><time>2026-04-29T11:05:58.096Z</time></trkpt><trkpt lat="36.8659298" lon="-1.4841066"><ele>0.0</ele><time>2026-04-29T11:05:59.097Z</time></trkpt><trkpt lat="36.8659847" lon="-1.4840334"><ele>0.0</ele><time>2026-04-29T11:06:00.097Z</time></trkpt><trkpt lat="36.8660343" lon="-1.4839445"><ele>0.0</ele><time>2026-04-29T11:06:01.097Z</time></trkpt><trkpt lat="36.8660854" lon="-1.4838585"><ele>0.0</ele><time>2026-04-29T11:06:02.096Z</time></trkpt><trkpt lat="36.8661384" lon="-1.4837751"><ele>0.0</ele><time>2026-04-29T11:06:03.096Z</time></trkpt><trkpt lat="36.8661876" lon="-1.483693"><ele>0.0</ele><time>2026-04-29T11:06:04.097Z</time></trkpt><trkpt lat="36.8662944" lon="-1.4835277"><ele>0.0</ele><time>2026-04-29T11:06:06.096Z</time></trkpt><trkpt lat="36.8663481" lon="-1.4834444"><ele>0.0</ele><time>2026-04-29T11:06:07.096Z</time></trkpt><trkpt lat="36.8663987" lon="-1.4833562"><ele>0.0</ele><time>2026-04-29T11:06:08.096Z</time></trkpt><trkpt lat="36.8664486" lon="-1.4832678"><ele>0.0</ele><time>2026-04-29T11:06:09.096Z</time></trkpt><trkpt lat="36.8664933" lon="-1.4831794"><ele>0.0</ele><time>2026-04-29T11:06:10.097Z</time></trkpt><trkpt lat="36.8665396" lon="-1.4830967"><ele>0.0</ele><time>2026-04-29T11:06:11.097Z</time></trkpt><trkpt lat="36.8665984" lon="-1.4830177"><ele>0.0</ele><time>2026-04-29T11:06:12.097Z</time></trkpt><trkpt lat="36.8666432" lon="-1.4829309"><ele>0.0</ele><time>2026-04-29T11:06:13.096Z</time></trkpt><trkpt lat="36.8666979" lon="-1.4828472"><ele>0.0</ele><time>2026-04-29T11:06:14.097Z</time></trkpt><trkpt lat="36.8667491" lon="-1.4827639"><ele>0.0</ele><time>2026-04-29T11:06:15.097Z</time></trkpt><trkpt lat="36.8668077" lon="-1.4826821"><ele>0.0</ele><time>2026-04-29T11:06:16.097Z</time></trkpt><trkpt lat="36.8668636" lon="-1.4826018"><ele>0.0</ele><time>2026-04-29T11:06:17.097Z</time></trkpt><trkpt lat="36.8669198" lon="-1.4825219"><ele>0.0</ele><time>2026-04-29T11:06:18.096Z</time></trkpt><trkpt lat="36.8669764" lon="-1.4824358"><ele>0.0</ele><time>2026-04-29T11:06:19.097Z</time></trkpt><trkpt lat="36.8670322" lon="-1.4823535"><ele>0.0</ele><time>2026-04-29T11:06:20.096Z</time></trkpt><trkpt lat="36.8670868" lon="-1.4822744"><ele>0.0</ele><time>2026-04-29T11:06:21.096Z</time></trkpt><trkpt lat="36.8671407" lon="-1.4821949"><ele>0.0</ele><time>2026-04-29T11:06:22.096Z</time></trkpt><trkpt lat="36.8671952" lon="-1.4821122"><ele>0.0</ele><time>2026-04-29T11:06:23.097Z</time></trkpt><trkpt lat="36.867246" lon="-1.4820274"><ele>0.0</ele><time>2026-04-29T11:06:24.096Z</time></trkpt><trkpt lat="36.8673019" lon="-1.4819465"><ele>0.0</ele><time>2026-04-29T11:06:25.096Z</time></trkpt><trkpt lat="36.8674157" lon="-1.4817881"><ele>0.0</ele><time>2026-04-29T11:06:27.096Z</time></trkpt><trkpt lat="36.8674749" lon="-1.4817049"><ele>0.0</ele><time>2026-04-29T11:06:28.097Z</time></trkpt><trkpt lat="36.8675332" lon="-1.4816263"><ele>0.0</ele><time>2026-04-29T11:06:29.096Z</time></trkpt><trkpt lat="36.8675916" lon="-1.481548"><ele>0.0</ele><time>2026-04-29T11:06:30.096Z</time></trkpt><trkpt lat="36.8676469" lon="-1.4814704"><ele>0.0</ele><time>2026-04-29T11:06:31.097Z</time></trkpt><trkpt lat="36.8677023" lon="-1.4813874"><ele>0.0</ele><time>2026-04-29T11:06:32.097Z</time></trkpt><trkpt lat="36.8677571" lon="-1.4813051"><ele>0.0</ele><time>2026-04-29T11:06:33.097Z</time></trkpt><trkpt lat="36.8678164" lon="-1.4812251"><ele>0.0</ele><time>2026-04-29T11:06:34.097Z</time></trkpt><trkpt lat="36.8678878" lon="-1.4811398"><ele>0.0</ele><time>2026-04-29T11:06:35.096Z</time></trkpt><trkpt lat="36.867948" lon="-1.48105"><ele>0.0</ele><time>2026-04-29T11:06:36.096Z</time></trkpt><trkpt lat="36.8680053" lon="-1.4809659"><ele>0.0</ele><time>2026-04-29T11:06:37.096Z</time></trkpt><trkpt lat="36.8680708" lon="-1.4808822"><ele>0.0</ele><time>2026-04-29T11:06:38.097Z</time></trkpt><trkpt lat="36.8681342" lon="-1.4808016"><ele>0.0</ele><time>2026-04-29T11:06:39.096Z</time></trkpt><trkpt lat="36.868201" lon="-1.4807219"><ele>0.0</ele><time>2026-04-29T11:06:40.097Z</time></trkpt><trkpt lat="36.8682635" lon="-1.4806412"><ele>0.0</ele><time>2026-04-29T11:06:41.097Z</time></trkpt><trkpt lat="36.8683165" lon="-1.4805607"><ele>0.0</ele><time>2026-04-29T11:06:42.096Z</time></trkpt><trkpt lat="36.8683724" lon="-1.4804801"><ele>0.0</ele><time>2026-04-29T11:06:43.097Z</time></trkpt><trkpt lat="36.8684289" lon="-1.4803958"><ele>0.0</ele><time>2026-04-29T11:06:44.096Z</time></trkpt><trkpt lat="36.8684851" lon="-1.4803153"><ele>0.0</ele><time>2026-04-29T11:06:45.097Z</time></trkpt><trkpt lat="36.8685461" lon="-1.4802407"><ele>0.0</ele><time>2026-04-29T11:06:46.097Z</time></trkpt><trkpt lat="36.868674" lon="-1.4800809"><ele>0.0</ele><time>2026-04-29T11:06:48.097Z</time></trkpt><trkpt lat="36.8687293" lon="-1.4800056"><ele>0.0</ele><time>2026-04-29T11:06:49.096Z</time></trkpt><trkpt lat="36.8687738" lon="-1.479924"><ele>0.0</ele><time>2026-04-29T11:06:50.097Z</time></trkpt><trkpt lat="36.8688131" lon="-1.4798378"><ele>0.0</ele><time>2026-04-29T11:06:51.096Z</time></trkpt><trkpt lat="36.8688573" lon="-1.4797567"><ele>0.0</ele><time>2026-04-29T11:06:52.096Z</time></trkpt><trkpt lat="36.8689104" lon="-1.4796753"><ele>0.0</ele><time>2026-04-29T11:06:53.096Z</time></trkpt><trkpt lat="36.8689682" lon="-1.4795894"><ele>0.0</ele><time>2026-04-29T11:06:54.096Z</time></trkpt><trkpt lat="36.8690193" lon="-1.4795036"><ele>0.0</ele><time>2026-04-29T11:06:55.097Z</time></trkpt><trkpt lat="36.8690735" lon="-1.4794217"><ele>0.0</ele><time>2026-04-29T11:06:56.096Z</time></trkpt><trkpt lat="36.8691258" lon="-1.4793414"><ele>0.0</ele><time>2026-04-29T11:06:57.096Z</time></trkpt><trkpt lat="36.869182" lon="-1.4792587"><ele>0.0</ele><time>2026-04-29T11:06:58.096Z</time></trkpt><trkpt lat="36.8692326" lon="-1.479177"><ele>0.0</ele><time>2026-04-29T11:06:59.096Z</time></trkpt><trkpt lat="36.8692796" lon="-1.4790938"><ele>0.0</ele><time>2026-04-29T11:07:00.097Z</time></trkpt><trkpt lat="36.8693348" lon="-1.4790031"><ele>0.0</ele><time>2026-04-29T11:07:01.096Z</time></trkpt><trkpt lat="36.8693943" lon="-1.4789158"><ele>0.0</ele><time>2026-04-29T11:07:02.096Z</time></trkpt><trkpt lat="36.8694487" lon="-1.4788415"><ele>0.0</ele><time>2026-04-29T11:07:03.096Z</time></trkpt><trkpt lat="36.8694941" lon="-1.4787599"><ele>0.0</ele><time>2026-04-29T11:07:04.097Z</time></trkpt><trkpt lat="36.8695457" lon="-1.4786796"><ele>0.0</ele><time>2026-04-29T11:07:05.096Z</time></trkpt><trkpt lat="36.8695972" lon="-1.4785998"><ele>0.0</ele><time>2026-04-29T11:07:06.097Z</time></trkpt><trkpt lat="36.8696564" lon="-1.4785185"><ele>0.0</ele><time>2026-04-29T11:07:07.096Z</time></trkpt><trkpt lat="36.8697572" lon="-1.478349"><ele>0.0</ele><time>2026-04-29T11:07:09.097Z</time></trkpt><trkpt lat="36.8698132" lon="-1.4782615"><ele>0.0</ele><time>2026-04-29T11:07:10.097Z</time></trkpt><trkpt lat="36.8698753" lon="-1.4781726"><ele>0.0</ele><time>2026-04-29T11:07:11.097Z</time></trkpt><trkpt lat="36.8699358" lon="-1.4780885"><ele>0.0</ele><time>2026-04-29T11:07:12.097Z</time></trkpt><trkpt lat="36.86999" lon="-1.4780035"><ele>0.0</ele><time>2026-04-29T11:07:13.096Z</time></trkpt><trkpt lat="36.870055" lon="-1.4779272"><ele>0.0</ele><time>2026-04-29T11:07:14.096Z</time></trkpt><trkpt lat="36.8701252" lon="-1.4778524"><ele>0.0</ele><time>2026-04-29T11:07:15.096Z</time></trkpt><trkpt lat="36.8701873" lon="-1.4777743"><ele>0.0</ele><time>2026-04-29T11:07:16.096Z</time></trkpt><trkpt lat="36.8702487" lon="-1.4776878"><ele>0.0</ele><time>2026-04-29T11:07:17.097Z</time></trkpt><trkpt lat="36.8703024" lon="-1.4776008"><ele>0.0</ele><time>2026-04-29T11:07:18.096Z</time></trkpt><trkpt lat="36.8703558" lon="-1.4775197"><ele>0.0</ele><time>2026-04-29T11:07:19.097Z</time></trkpt><trkpt lat="36.8703989" lon="-1.4774273"><ele>0.0</ele><time>2026-04-29T11:07:20.096Z</time></trkpt><trkpt lat="36.8704436" lon="-1.4773355"><ele>0.0</ele><time>2026-04-29T11:07:21.097Z</time></trkpt><trkpt lat="36.8704969" lon="-1.4772518"><ele>0.0</ele><time>2026-04-29T11:07:22.097Z</time></trkpt><trkpt lat="36.8705532" lon="-1.4771717"><ele>0.0</ele><time>2026-04-29T11:07:23.097Z</time></trkpt><trkpt lat="36.870617" lon="-1.4770885"><ele>0.0</ele><time>2026-04-29T11:07:24.097Z</time></trkpt><trkpt lat="36.8706858" lon="-1.4770085"><ele>0.0</ele><time>2026-04-29T11:07:25.097Z</time></trkpt><trkpt lat="36.8707488" lon="-1.4769314"><ele>0.0</ele><time>2026-04-29T11:07:26.096Z</time></trkpt><trkpt lat="36.8708037" lon="-1.4768588"><ele>0.0</ele><time>2026-04-29T11:07:27.096Z</time></trkpt><trkpt lat="36.8708598" lon="-1.476781"><ele>0.0</ele><time>2026-04-29T11:07:28.097Z</time></trkpt><trkpt lat="36.8709809" lon="-1.4766292"><ele>0.0</ele><time>2026-04-29T11:07:30.096Z</time></trkpt><trkpt lat="36.8710329" lon="-1.4765469"><ele>0.0</ele><time>2026-04-29T11:07:31.096Z</time></trkpt><trkpt lat="36.8710929" lon="-1.4764704"><ele>0.0</ele><time>2026-04-29T11:07:32.097Z</time></trkpt><trkpt lat="36.8711485" lon="-1.4763884"><ele>0.0</ele><time>2026-04-29T11:07:33.096Z</time></trkpt><trkpt lat="36.8712063" lon="-1.4763093"><ele>0.0</ele><time>2026-04-29T11:07:34.097Z</time></trkpt><trkpt lat="36.8712596" lon="-1.4762269"><ele>0.0</ele><time>2026-04-29T11:07:35.097Z</time></trkpt><trkpt lat="36.8713197" lon="-1.4761437"><ele>0.0</ele><time>2026-04-29T11:07:36.097Z</time></trkpt><trkpt lat="36.8713672" lon="-1.4760606"><ele>0.0</ele><time>2026-04-29T11:07:37.097Z</time></trkpt><trkpt lat="36.871419" lon="-1.4759755"><ele>0.0</ele><time>2026-04-29T11:07:38.096Z</time></trkpt><trkpt lat="36.8714766" lon="-1.4758966"><ele>0.0</ele><time>2026-04-29T11:07:39.097Z</time></trkpt><trkpt lat="36.8715264" lon="-1.4758149"><ele>0.0</ele><time>2026-04-29T11:07:40.097Z</time></trkpt><trkpt lat="36.8715819" lon="-1.4757263"><ele>0.0</ele><time>2026-04-29T11:07:41.097Z</time></trkpt><trkpt lat="36.8716332" lon="-1.4756377"><ele>0.0</ele><time>2026-04-29T11:07:42.096Z</time></trkpt><trkpt lat="36.8716826" lon="-1.4755563"><ele>0.0</ele><time>2026-04-29T11:07:43.097Z</time></trkpt><trkpt lat="36.8717254" lon="-1.4754877"><ele>0.0</ele><time>2026-04-29T11:07:44.097Z</time></trkpt><trkpt lat="36.8717715" lon="-1.4754025"><ele>0.0</ele><time>2026-04-29T11:07:45.096Z</time></trkpt><trkpt lat="36.8718313" lon="-1.4753218"><ele>0.0</ele><time>2026-04-29T11:07:46.097Z</time></trkpt><trkpt lat="36.8718773" lon="-1.4752387"><ele>0.0</ele><time>2026-04-29T11:07:47.096Z</time></trkpt><trkpt lat="36.8719245" lon="-1.4751489"><ele>0.0</ele><time>2026-04-29T11:07:48.096Z</time></trkpt><trkpt lat="36.8719773" lon="-1.4750655"><ele>0.0</ele><time>2026-04-29T11:07:49.097Z</time></trkpt><trkpt lat="36.8720899" lon="-1.4748994"><ele>0.0</ele><time>2026-04-29T11:07:51.096Z</time></trkpt><trkpt lat="36.8721483" lon="-1.4748084"><ele>0.0</ele><time>2026-04-29T11:07:52.096Z</time></trkpt><trkpt lat="36.8722037" lon="-1.4747241"><ele>0.0</ele><time>2026-04-29T11:07:53.097Z</time></trkpt><trkpt lat="36.8722586" lon="-1.4746419"><ele>0.0</ele><time>2026-04-29T11:07:54.096Z</time></trkpt><trkpt lat="36.8723134" lon="-1.4745585"><ele>0.0</ele><time>2026-04-29T11:07:55.097Z</time></trkpt><trkpt lat="36.8723683" lon="-1.4744809"><ele>0.0</ele><time>2026-04-29T11:07:56.096Z</time></trkpt><trkpt lat="36.8724247" lon="-1.4744"><ele>0.0</ele><time>2026-04-29T11:07:57.096Z</time></trkpt><trkpt lat="36.8724841" lon="-1.4743188"><ele>0.0</ele><time>2026-04-29T11:07:58.096Z</time></trkpt><trkpt lat="36.8725441" lon="-1.4742368"><ele>0.0</ele><time>2026-04-29T11:07:59.097Z</time></trkpt><trkpt lat="36.8726072" lon="-1.4741578"><ele>0.0</ele><time>2026-04-29T11:08:00.096Z</time></trkpt><trkpt lat="36.8726648" lon="-1.474078"><ele>0.0</ele><time>2026-04-29T11:08:01.096Z</time></trkpt><trkpt lat="36.8727189" lon="-1.4740092"><ele>0.0</ele><time>2026-04-29T11:08:02.097Z</time></trkpt><trkpt lat="36.8727666" lon="-1.4739254"><ele>0.0</ele><time>2026-04-29T11:08:03.096Z</time></trkpt><trkpt lat="36.8728245" lon="-1.4738447"><ele>0.0</ele><time>2026-04-29T11:08:04.097Z</time></trkpt><trkpt lat="36.8728865" lon="-1.4737598"><ele>0.0</ele><time>2026-04-29T11:08:05.097Z</time></trkpt><trkpt lat="36.8729558" lon="-1.4736876"><ele>0.0</ele><time>2026-04-29T11:08:06.096Z</time></trkpt><trkpt lat="36.873013" lon="-1.4736078"><ele>0.0</ele><time>2026-04-29T11:08:07.096Z</time></trkpt><trkpt lat="36.873061" lon="-1.4735251"><ele>0.0</ele><time>2026-04-29T11:08:08.097Z</time></trkpt><trkpt lat="36.8731133" lon="-1.473443"><ele>0.0</ele><time>2026-04-29T11:08:09.096Z</time></trkpt><trkpt lat="36.8731653" lon="-1.4733572"><ele>0.0</ele><time>2026-04-29T11:08:10.097Z</time></trkpt><trkpt lat="36.8732674" lon="-1.473187"><ele>0.0</ele><time>2026-04-29T11:08:12.096Z</time></trkpt><trkpt lat="36.8733199" lon="-1.4730979"><ele>0.0</ele><time>2026-04-29T11:08:13.096Z</time></trkpt><trkpt lat="36.8733749" lon="-1.4730149"><ele>0.0</ele><time>2026-04-29T11:08:14.096Z</time></trkpt><trkpt lat="36.8734285" lon="-1.4729333"><ele>0.0</ele><time>2026-04-29T11:08:15.096Z</time></trkpt><trkpt lat="36.8734792" lon="-1.4728529"><ele>0.0</ele><time>2026-04-29T11:08:16.097Z</time></trkpt><trkpt lat="36.8735364" lon="-1.4727723"><ele>0.0</ele><time>2026-04-29T11:08:17.097Z</time></trkpt><trkpt lat="36.8735946" lon="-1.4726927"><ele>0.0</ele><time>2026-04-29T11:08:18.097Z</time></trkpt><trkpt lat="36.8736557" lon="-1.4726072"><ele>0.0</ele><time>2026-04-29T11:08:19.097Z</time></trkpt><trkpt lat="36.8737155" lon="-1.4725316"><ele>0.0</ele><time>2026-04-29T11:08:20.096Z</time></trkpt><trkpt lat="36.873776" lon="-1.4724574"><ele>0.0</ele><time>2026-04-29T11:08:21.096Z</time></trkpt><trkpt lat="36.8738346" lon="-1.4723794"><ele>0.0</ele><time>2026-04-29T11:08:22.096Z</time></trkpt><trkpt lat="36.8738959" lon="-1.4722954"><ele>0.0</ele><time>2026-04-29T11:08:23.096Z</time></trkpt><trkpt lat="36.873949" lon="-1.4722175"><ele>0.0</ele><time>2026-04-29T11:08:24.097Z</time></trkpt><trkpt lat="36.874001" lon="-1.4721396"><ele>0.0</ele><time>2026-04-29T11:08:25.096Z</time></trkpt><trkpt lat="36.8740566" lon="-1.472054"><ele>0.0</ele><time>2026-04-29T11:08:26.096Z</time></trkpt><trkpt lat="36.8741103" lon="-1.4719622"><ele>0.0</ele><time>2026-04-29T11:08:27.097Z</time></trkpt><trkpt lat="36.8741711" lon="-1.4718733"><ele>0.0</ele><time>2026-04-29T11:08:28.097Z</time></trkpt><trkpt lat="36.8742268" lon="-1.4717928"><ele>0.0</ele><time>2026-04-29T11:08:29.096Z</time></trkpt><trkpt lat="36.8742749" lon="-1.4717091"><ele>0.0</ele><time>2026-04-29T11:08:30.096Z</time></trkpt><trkpt lat="36.8743742" lon="-1.4715432"><ele>0.0</ele><time>2026-04-29T11:08:32.097Z</time></trkpt><trkpt lat="36.8744368" lon="-1.4714603"><ele>0.0</ele><time>2026-04-29T11:08:33.097Z</time></trkpt><trkpt lat="36.8744946" lon="-1.4713815"><ele>0.0</ele><time>2026-04-29T11:08:34.096Z</time></trkpt><trkpt lat="36.8745542" lon="-1.4712933"><ele>0.0</ele><time>2026-04-29T11:08:35.097Z</time></trkpt><trkpt lat="36.8746084" lon="-1.4712075"><ele>0.0</ele><time>2026-04-29T11:08:36.097Z</time></trkpt><trkpt lat="36.8746631" lon="-1.471125"><ele>0.0</ele><time>2026-04-29T11:08:37.096Z</time></trkpt><trkpt lat="36.8747126" lon="-1.4710391"><ele>0.0</ele><time>2026-04-29T11:08:38.097Z</time></trkpt><trkpt lat="36.8747695" lon="-1.470958"><ele>0.0</ele><time>2026-04-29T11:08:39.097Z</time></trkpt><trkpt lat="36.8748321" lon="-1.4708753"><ele>0.0</ele><time>2026-04-29T11:08:40.097Z</time></trkpt><trkpt lat="36.8748911" lon="-1.4707861"><ele>0.0</ele><time>2026-04-29T11:08:41.097Z</time></trkpt><trkpt lat="36.8749496" lon="-1.4707028"><ele>0.0</ele><time>2026-04-29T11:08:42.096Z</time></trkpt><trkpt lat="36.8750064" lon="-1.4706243"><ele>0.0</ele><time>2026-04-29T11:08:43.097Z</time></trkpt><trkpt lat="36.8750561" lon="-1.4705406"><ele>0.0</ele><time>2026-04-29T11:08:44.097Z</time></trkpt><trkpt lat="36.8751063" lon="-1.4704597"><ele>0.0</ele><time>2026-04-29T11:08:45.097Z</time></trkpt><trkpt lat="36.8751633" lon="-1.4703811"><ele>0.0</ele><time>2026-04-29T11:08:46.097Z</time></trkpt><trkpt lat="36.8752189" lon="-1.4703031"><ele>0.0</ele><time>2026-04-29T11:08:47.097Z</time></trkpt><trkpt lat="36.8752764" lon="-1.4702243"><ele>0.0</ele><time>2026-04-29T11:08:48.097Z</time></trkpt><trkpt lat="36.8753282" lon="-1.470149"><ele>0.0</ele><time>2026-04-29T11:08:49.097Z</time></trkpt><trkpt lat="36.8753861" lon="-1.4700682"><ele>0.0</ele><time>2026-04-29T11:08:50.097Z</time></trkpt><trkpt lat="36.8754415" lon="-1.4699881"><ele>0.0</ele><time>2026-04-29T11:08:51.096Z</time></trkpt><trkpt lat="36.8755459" lon="-1.4698189"><ele>0.0</ele><time>2026-04-29T11:08:53.096Z</time></trkpt><trkpt lat="36.8756018" lon="-1.4697377"><ele>0.0</ele><time>2026-04-29T11:08:54.096Z</time></trkpt><trkpt lat="36.8756524" lon="-1.4696463"><ele>0.0</ele><time>2026-04-29T11:08:55.096Z</time></trkpt><trkpt lat="36.8757052" lon="-1.4695619"><ele>0.0</ele><time>2026-04-29T11:08:56.097Z</time></trkpt><trkpt lat="36.8757625" lon="-1.4694828"><ele>0.0</ele><time>2026-04-29T11:08:57.097Z</time></trkpt><trkpt lat="36.875821" lon="-1.4694059"><ele>0.0</ele><time>2026-04-29T11:08:58.096Z</time></trkpt><trkpt lat="36.8758749" lon="-1.4693205"><ele>0.0</ele><time>2026-04-29T11:08:59.097Z</time></trkpt><trkpt lat="36.8759284" lon="-1.4692357"><ele>0.0</ele><time>2026-04-29T11:09:00.096Z</time></trkpt><trkpt lat="36.8759863" lon="-1.4691536"><ele>0.0</ele><time>2026-04-29T11:09:01.096Z</time></trkpt><trkpt lat="36.87604" lon="-1.4690687"><ele>0.0</ele><time>2026-04-29T11:09:02.097Z</time></trkpt><trkpt lat="36.8760952" lon="-1.4689839"><ele>0.0</ele><time>2026-04-29T11:09:03.097Z</time></trkpt><trkpt lat="36.876153" lon="-1.4688963"><ele>0.0</ele><time>2026-04-29T11:09:04.096Z</time></trkpt><trkpt lat="36.8762052" lon="-1.4688074"><ele>0.0</ele><time>2026-04-29T11:09:05.096Z</time></trkpt><trkpt lat="36.8762571" lon="-1.4687178"><ele>0.0</ele><time>2026-04-29T11:09:06.096Z</time></trkpt><trkpt lat="36.8763031" lon="-1.4686289"><ele>0.0</ele><time>2026-04-29T11:09:07.097Z</time></trkpt><trkpt lat="36.8763509" lon="-1.4685411"><ele>0.0</ele><time>2026-04-29T11:09:08.097Z</time></trkpt><trkpt lat="36.8764049" lon="-1.4684602"><ele>0.0</ele><time>2026-04-29T11:09:09.097Z</time></trkpt><trkpt lat="36.8764609" lon="-1.4683796"><ele>0.0</ele><time>2026-04-29T11:09:10.096Z</time></trkpt><trkpt lat="36.876522" lon="-1.4682952"><ele>0.0</ele><time>2026-04-29T11:09:11.097Z</time></trkpt><trkpt lat="36.876585" lon="-1.4682174"><ele>0.0</ele><time>2026-04-29T11:09:12.097Z</time></trkpt><trkpt lat="36.876707" lon="-1.468068"><ele>0.0</ele><time>2026-04-29T11:09:14.096Z</time></trkpt><trkpt lat="36.8767659" lon="-1.4679904"><ele>0.0</ele><time>2026-04-29T11:09:15.097Z</time></trkpt><trkpt lat="36.8768172" lon="-1.4679053"><ele>0.0</ele><time>2026-04-29T11:09:16.096Z</time></trkpt><trkpt lat="36.8768746" lon="-1.4678233"><ele>0.0</ele><time>2026-04-29T11:09:17.097Z</time></trkpt><trkpt lat="36.8769331" lon="-1.4677447"><ele>0.0</ele><time>2026-04-29T11:09:18.096Z</time></trkpt><trkpt lat="36.8769885" lon="-1.467662"><ele>0.0</ele><time>2026-04-29T11:09:19.097Z</time></trkpt><trkpt lat="36.8770402" lon="-1.4675786"><ele>0.0</ele><time>2026-04-29T11:09:20.097Z</time></trkpt><trkpt lat="36.8770969" lon="-1.4674913"><ele>0.0</ele><time>2026-04-29T11:09:21.096Z</time></trkpt><trkpt lat="36.8771489" lon="-1.4674098"><ele>0.0</ele><time>2026-04-29T11:09:22.097Z</time></trkpt><trkpt lat="36.8772029" lon="-1.4673235"><ele>0.0</ele><time>2026-04-29T11:09:23.097Z</time></trkpt><trkpt lat="36.8772527" lon="-1.4672443"><ele>0.0</ele><time>2026-04-29T11:09:24.096Z</time></trkpt><trkpt lat="36.8773065" lon="-1.4671686"><ele>0.0</ele><time>2026-04-29T11:09:25.096Z</time></trkpt><trkpt lat="36.8773602" lon="-1.4670896"><ele>0.0</ele><time>2026-04-29T11:09:26.097Z</time></trkpt><trkpt lat="36.8774194" lon="-1.46701"><ele>0.0</ele><time>2026-04-29T11:09:27.096Z</time></trkpt><trkpt lat="36.8774771" lon="-1.466933"><ele>0.0</ele><time>2026-04-29T11:09:28.096Z</time></trkpt><trkpt lat="36.8775377" lon="-1.4668548"><ele>0.0</ele><time>2026-04-29T11:09:29.096Z</time></trkpt><trkpt lat="36.8776006" lon="-1.4667719"><ele>0.0</ele><time>2026-04-29T11:09:30.096Z</time></trkpt><trkpt lat="36.8776557" lon="-1.4666904"><ele>0.0</ele><time>2026-04-29T11:09:31.096Z</time></trkpt><trkpt lat="36.8777073" lon="-1.4666014"><ele>0.0</ele><time>2026-04-29T11:09:32.096Z</time></trkpt><trkpt lat="36.8777618" lon="-1.4665175"><ele>0.0</ele><time>2026-04-29T11:09:33.097Z</time></trkpt><trkpt lat="36.877873" lon="-1.4663537"><ele>0.0</ele><time>2026-04-29T11:09:35.096Z</time></trkpt><trkpt lat="36.8779254" lon="-1.4662675"><ele>0.0</ele><time>2026-04-29T11:09:36.097Z</time></trkpt><trkpt lat="36.8779816" lon="-1.4661726"><ele>0.0</ele><time>2026-04-29T11:09:37.097Z</time></trkpt><trkpt lat="36.8780383" lon="-1.4660879"><ele>0.0</ele><time>2026-04-29T11:09:38.096Z</time></trkpt><trkpt lat="36.8780893" lon="-1.4660095"><ele>0.0</ele><time>2026-04-29T11:09:39.096Z</time></trkpt><trkpt lat="36.8781391" lon="-1.4659284"><ele>0.0</ele><time>2026-04-29T11:09:40.096Z</time></trkpt><trkpt lat="36.8781948" lon="-1.4658468"><ele>0.0</ele><time>2026-04-29T11:09:41.096Z</time></trkpt><trkpt lat="36.8782519" lon="-1.4657679"><ele>0.0</ele><time>2026-04-29T11:09:42.097Z</time></trkpt><trkpt lat="36.8783098" lon="-1.4656879"><ele>0.0</ele><time>2026-04-29T11:09:43.096Z</time></trkpt><trkpt lat="36.8783677" lon="-1.4655992"><ele>0.0</ele><time>2026-04-29T11:09:44.096Z</time></trkpt><trkpt lat="36.8784263" lon="-1.465522"><ele>0.0</ele><time>2026-04-29T11:09:45.096Z</time></trkpt><trkpt lat="36.8784818" lon="-1.4654397"><ele>0.0</ele><time>2026-04-29T11:09:46.097Z</time></trkpt><trkpt lat="36.878538" lon="-1.4653612"><ele>0.0</ele><time>2026-04-29T11:09:47.096Z</time></trkpt><trkpt lat="36.878599" lon="-1.4652787"><ele>0.0</ele><time>2026-04-29T11:09:48.097Z</time></trkpt><trkpt lat="36.8786525" lon="-1.4651936"><ele>0.0</ele><time>2026-04-29T11:09:49.096Z</time></trkpt><trkpt lat="36.8786974" lon="-1.4651086"><ele>0.0</ele><time>2026-04-29T11:09:50.096Z</time></trkpt><trkpt lat="36.8787503" lon="-1.4650268"><ele>0.0</ele><time>2026-04-29T11:09:51.096Z</time></trkpt><trkpt lat="36.8788008" lon="-1.4649492"><ele>0.0</ele><time>2026-04-29T11:09:52.097Z</time></trkpt><trkpt lat="36.8788524" lon="-1.4648709"><ele>0.0</ele><time>2026-04-29T11:09:53.096Z</time></trkpt><trkpt lat="36.8789042" lon="-1.4647913"><ele>0.0</ele><time>2026-04-29T11:09:54.097Z</time></trkpt><trkpt lat="36.8790179" lon="-1.46463"><ele>0.0</ele><time>2026-04-29T11:09:56.097Z</time></trkpt><trkpt lat="36.8790731" lon="-1.4645527"><ele>0.0</ele><time>2026-04-29T11:09:57.096Z</time></trkpt><trkpt lat="36.8791298" lon="-1.4644714"><ele>0.0</ele><time>2026-04-29T11:09:58.097Z</time></trkpt><trkpt lat="36.8791824" lon="-1.464384"><ele>0.0</ele><time>2026-04-29T11:09:59.096Z</time></trkpt><trkpt lat="36.8792367" lon="-1.4642991"><ele>0.0</ele><time>2026-04-29T11:10:00.097Z</time></trkpt><trkpt lat="36.87929" lon="-1.4642168"><ele>0.0</ele><time>2026-04-29T11:10:01.096Z</time></trkpt><trkpt lat="36.8793506" lon="-1.4641318"><ele>0.0</ele><time>2026-04-29T11:10:02.096Z</time></trkpt><trkpt lat="36.8794122" lon="-1.4640527"><ele>0.0</ele><time>2026-04-29T11:10:03.096Z</time></trkpt><trkpt lat="36.8794711" lon="-1.4639611"><ele>0.0</ele><time>2026-04-29T11:10:04.097Z</time></trkpt><trkpt lat="36.8795295" lon="-1.4638726"><ele>0.0</ele><time>2026-04-29T11:10:05.097Z</time></trkpt><trkpt lat="36.8795824" lon="-1.4637869"><ele>0.0</ele><time>2026-04-29T11:10:06.096Z</time></trkpt><trkpt lat="36.8796397" lon="-1.4637035"><ele>0.0</ele><time>2026-04-29T11:10:07.096Z</time></trkpt><trkpt lat="36.8797007" lon="-1.4636154"><ele>0.0</ele><time>2026-04-29T11:10:08.097Z</time></trkpt><trkpt lat="36.8797607" lon="-1.4635288"><ele>0.0</ele><time>2026-04-29T11:10:09.096Z</time></trkpt><trkpt lat="36.8798166" lon="-1.4634419"><ele>0.0</ele><time>2026-04-29T11:10:10.096Z</time></trkpt><trkpt lat="36.8798644" lon="-1.4633613"><ele>0.0</ele><time>2026-04-29T11:10:11.096Z</time></trkpt><trkpt lat="36.8799169" lon="-1.4632784"><ele>0.0</ele><time>2026-04-29T11:10:12.096Z</time></trkpt><trkpt lat="36.8799646" lon="-1.4631911"><ele>0.0</ele><time>2026-04-29T11:10:13.095Z</time></trkpt><trkpt lat="36.8800186" lon="-1.463107"><ele>0.0</ele><time>2026-04-29T11:10:14.096Z</time></trkpt><trkpt lat="36.880069" lon="-1.463004"><ele>0.0</ele><time>2026-04-29T11:10:15.096Z</time></trkpt><trkpt lat="36.8801821" lon="-1.4628385"><ele>0.0</ele><time>2026-04-29T11:10:17.095Z</time></trkpt><trkpt lat="36.8802423" lon="-1.4627633"><ele>0.0</ele><time>2026-04-29T11:10:18.095Z</time></trkpt><trkpt lat="36.8802954" lon="-1.4626901"><ele>0.0</ele><time>2026-04-29T11:10:19.096Z</time></trkpt><trkpt lat="36.8803472" lon="-1.4626113"><ele>0.0</ele><time>2026-04-29T11:10:20.096Z</time></trkpt><trkpt lat="36.8804018" lon="-1.462534"><ele>0.0</ele><time>2026-04-29T11:10:21.095Z</time></trkpt><trkpt lat="36.8804581" lon="-1.4624597"><ele>0.0</ele><time>2026-04-29T11:10:22.095Z</time></trkpt><trkpt lat="36.8805149" lon="-1.4623813"><ele>0.0</ele><time>2026-04-29T11:10:23.095Z</time></trkpt><trkpt lat="36.8805643" lon="-1.4623014"><ele>0.0</ele><time>2026-04-29T11:10:24.095Z</time></trkpt><trkpt lat="36.8806186" lon="-1.4622258"><ele>0.0</ele><time>2026-04-29T11:10:25.095Z</time></trkpt><trkpt lat="36.8806701" lon="-1.4621437"><ele>0.0</ele><time>2026-04-29T11:10:26.096Z</time></trkpt><trkpt lat="36.8807192" lon="-1.4620516"><ele>0.0</ele><time>2026-04-29T11:10:27.096Z</time></trkpt><trkpt lat="36.8807765" lon="-1.4619626"><ele>0.0</ele><time>2026-04-29T11:10:28.095Z</time></trkpt><trkpt lat="36.8808299" lon="-1.4618769"><ele>0.0</ele><time>2026-04-29T11:10:29.095Z</time></trkpt><trkpt lat="36.8808805" lon="-1.4617836"><ele>0.0</ele><time>2026-04-29T11:10:30.095Z</time></trkpt><trkpt lat="36.8809252" lon="-1.4616932"><ele>0.0</ele><time>2026-04-29T11:10:31.096Z</time></trkpt><trkpt lat="36.8809801" lon="-1.4616144"><ele>0.0</ele><time>2026-04-29T11:10:32.096Z</time></trkpt><trkpt lat="36.8810309" lon="-1.4615386"><ele>0.0</ele><time>2026-04-29T11:10:33.096Z</time></trkpt><trkpt lat="36.881082" lon="-1.4614591"><ele>0.0</ele><time>2026-04-29T11:10:34.095Z</time></trkpt><trkpt lat="36.8811395" lon="-1.4613739"><ele>0.0</ele><time>2026-04-29T11:10:35.095Z</time></trkpt><trkpt lat="36.8812003" lon="-1.4612946"><ele>0.0</ele><time>2026-04-29T11:10:36.095Z</time></trkpt><trkpt lat="36.8813173" lon="-1.4611361"><ele>0.0</ele><time>2026-04-29T11:10:38.095Z</time></trkpt><trkpt lat="36.8813731" lon="-1.4610494"><ele>0.0</ele><time>2026-04-29T11:10:39.095Z</time></trkpt><trkpt lat="36.8814271" lon="-1.4609656"><ele>0.0</ele><time>2026-04-29T11:10:40.095Z</time></trkpt><trkpt lat="36.8814774" lon="-1.4608823"><ele>0.0</ele><time>2026-04-29T11:10:41.095Z</time></trkpt><trkpt lat="36.8815334" lon="-1.4608016"><ele>0.0</ele><time>2026-04-29T11:10:42.095Z</time></trkpt><trkpt lat="36.8815926" lon="-1.4607213"><ele>0.0</ele><time>2026-04-29T11:10:43.095Z</time></trkpt><trkpt lat="36.8816468" lon="-1.4606466"><ele>0.0</ele><time>2026-04-29T11:10:44.095Z</time></trkpt><trkpt lat="36.8817045" lon="-1.4605664"><ele>0.0</ele><time>2026-04-29T11:10:45.096Z</time></trkpt><trkpt lat="36.8817616" lon="-1.4604818"><ele>0.0</ele><time>2026-04-29T11:10:46.095Z</time></trkpt><trkpt lat="36.8818184" lon="-1.4604012"><ele>0.0</ele><time>2026-04-29T11:10:47.096Z</time></trkpt><trkpt lat="36.8818664" lon="-1.4603127"><ele>0.0</ele><time>2026-04-29T11:10:48.095Z</time></trkpt><trkpt lat="36.8819216" lon="-1.4602287"><ele>0.0</ele><time>2026-04-29T11:10:49.096Z</time></trkpt><trkpt lat="36.8819825" lon="-1.4601481"><ele>0.0</ele><time>2026-04-29T11:10:50.096Z</time></trkpt><trkpt lat="36.8820354" lon="-1.4600737"><ele>0.0</ele><time>2026-04-29T11:10:51.095Z</time></trkpt><trkpt lat="36.8820928" lon="-1.4600002"><ele>0.0</ele><time>2026-04-29T11:10:52.095Z</time></trkpt><trkpt lat="36.8821498" lon="-1.4599227"><ele>0.0</ele><time>2026-04-29T11:10:53.095Z</time></trkpt><trkpt lat="36.8822037" lon="-1.4598417"><ele>0.0</ele><time>2026-04-29T11:10:54.095Z</time></trkpt><trkpt lat="36.8822616" lon="-1.4597585"><ele>0.0</ele><time>2026-04-29T11:10:55.095Z</time></trkpt><trkpt lat="36.8823224" lon="-1.4596722"><ele>0.0</ele><time>2026-04-29T11:10:56.095Z</time></trkpt><trkpt lat="36.8823898" lon="-1.4595939"><ele>0.0</ele><time>2026-04-29T11:10:57.095Z</time></trkpt><trkpt lat="36.8825058" lon="-1.4594228"><ele>0.0</ele><time>2026-04-29T11:10:59.096Z</time></trkpt><trkpt lat="36.8825672" lon="-1.4593401"><ele>0.0</ele><time>2026-04-29T11:11:00.096Z</time></trkpt><trkpt lat="36.8826247" lon="-1.4592614"><ele>0.0</ele><time>2026-04-29T11:11:01.095Z</time></trkpt><trkpt lat="36.8826717" lon="-1.4591674"><ele>0.0</ele><time>2026-04-29T11:11:02.095Z</time></trkpt><trkpt lat="36.882713" lon="-1.4590726"><ele>0.0</ele><time>2026-04-29T11:11:03.095Z</time></trkpt><trkpt lat="36.8827586" lon="-1.4589811"><ele>0.0</ele><time>2026-04-29T11:11:04.096Z</time></trkpt><trkpt lat="36.8828092" lon="-1.4589063"><ele>0.0</ele><time>2026-04-29T11:11:05.095Z</time></trkpt><trkpt lat="36.8828676" lon="-1.458832"><ele>0.0</ele><time>2026-04-29T11:11:06.096Z</time></trkpt><trkpt lat="36.8829189" lon="-1.4587571"><ele>0.0</ele><time>2026-04-29T11:11:07.096Z</time></trkpt><trkpt lat="36.8829734" lon="-1.4586662"><ele>0.0</ele><time>2026-04-29T11:11:08.095Z</time></trkpt><trkpt lat="36.8830297" lon="-1.4585834"><ele>0.0</ele><time>2026-04-29T11:11:09.095Z</time></trkpt><trkpt lat="36.883085" lon="-1.4584988"><ele>0.0</ele><time>2026-04-29T11:11:10.095Z</time></trkpt><trkpt lat="36.8831457" lon="-1.4584167"><ele>0.0</ele><time>2026-04-29T11:11:11.096Z</time></trkpt><trkpt lat="36.8832025" lon="-1.458332"><ele>0.0</ele><time>2026-04-29T11:11:12.096Z</time></trkpt><trkpt lat="36.8832582" lon="-1.4582541"><ele>0.0</ele><time>2026-04-29T11:11:13.095Z</time></trkpt><trkpt lat="36.8833176" lon="-1.4581815"><ele>0.0</ele><time>2026-04-29T11:11:14.096Z</time></trkpt><trkpt lat="36.8833805" lon="-1.4581084"><ele>0.0</ele><time>2026-04-29T11:11:15.096Z</time></trkpt><trkpt lat="36.8834466" lon="-1.4580276"><ele>0.0</ele><time>2026-04-29T11:11:16.096Z</time></trkpt><trkpt lat="36.8835049" lon="-1.4579453"><ele>0.0</ele><time>2026-04-29T11:11:17.095Z</time></trkpt><trkpt lat="36.8835587" lon="-1.4578688"><ele>0.0</ele><time>2026-04-29T11:11:18.095Z</time></trkpt><trkpt lat="36.8836671" lon="-1.4577116"><ele>0.0</ele><time>2026-04-29T11:11:20.096Z</time></trkpt><trkpt lat="36.883719" lon="-1.4576271"><ele>0.0</ele><time>2026-04-29T11:11:21.095Z</time></trkpt><trkpt lat="36.8837678" lon="-1.4575451"><ele>0.0</ele><time>2026-04-29T11:11:22.095Z</time></trkpt><trkpt lat="36.8838177" lon="-1.4574566"><ele>0.0</ele><time>2026-04-29T11:11:23.096Z</time></trkpt><trkpt lat="36.8838717" lon="-1.4573648"><ele>0.0</ele><time>2026-04-29T11:11:24.095Z</time></trkpt><trkpt lat="36.8839267" lon="-1.45728"><ele>0.0</ele><time>2026-04-29T11:11:25.095Z</time></trkpt><trkpt lat="36.8839776" lon="-1.4572009"><ele>0.0</ele><time>2026-04-29T11:11:26.095Z</time></trkpt><trkpt lat="36.8840299" lon="-1.4571235"><ele>0.0</ele><time>2026-04-29T11:11:27.096Z</time></trkpt><trkpt lat="36.8840836" lon="-1.4570429"><ele>0.0</ele><time>2026-04-29T11:11:28.096Z</time></trkpt><trkpt lat="36.8841381" lon="-1.4569573"><ele>0.0</ele><time>2026-04-29T11:11:29.095Z</time></trkpt><trkpt lat="36.8841947" lon="-1.4568712"><ele>0.0</ele><time>2026-04-29T11:11:30.095Z</time></trkpt><trkpt lat="36.88425" lon="-1.4567842"><ele>0.0</ele><time>2026-04-29T11:11:31.096Z</time></trkpt><trkpt lat="36.8843105" lon="-1.4567016"><ele>0.0</ele><time>2026-04-29T11:11:32.096Z</time></trkpt><trkpt lat="36.8843706" lon="-1.4566173"><ele>0.0</ele><time>2026-04-29T11:11:33.096Z</time></trkpt><trkpt lat="36.8844323" lon="-1.4565295"><ele>0.0</ele><time>2026-04-29T11:11:34.096Z</time></trkpt><trkpt lat="36.8844915" lon="-1.4564512"><ele>0.0</ele><time>2026-04-29T11:11:35.095Z</time></trkpt><trkpt lat="36.88455" lon="-1.456377"><ele>0.0</ele><time>2026-04-29T11:11:36.096Z</time></trkpt><trkpt lat="36.8845995" lon="-1.4563019"><ele>0.0</ele><time>2026-04-29T11:11:37.095Z</time></trkpt><trkpt lat="36.8846562" lon="-1.4562258"><ele>0.0</ele><time>2026-04-29T11:11:38.096Z</time></trkpt><trkpt lat="36.8847158" lon="-1.4561534"><ele>0.0</ele><time>2026-04-29T11:11:39.095Z</time></trkpt><trkpt lat="36.8848219" lon="-1.4559903"><ele>0.0</ele><time>2026-04-29T11:11:41.095Z</time></trkpt><trkpt lat="36.884874" lon="-1.45591"><ele>0.0</ele><time>2026-04-29T11:11:42.095Z</time></trkpt><trkpt lat="36.8849227" lon="-1.4558253"><ele>0.0</ele><time>2026-04-29T11:11:43.095Z</time></trkpt><trkpt lat="36.8849727" lon="-1.4557404"><ele>0.0</ele><time>2026-04-29T11:11:44.096Z</time></trkpt><trkpt lat="36.8850271" lon="-1.4556598"><ele>0.0</ele><time>2026-04-29T11:11:45.096Z</time></trkpt><trkpt lat="36.8850787" lon="-1.4555725"><ele>0.0</ele><time>2026-04-29T11:11:46.095Z</time></trkpt><trkpt lat="36.8851305" lon="-1.4554874"><ele>0.0</ele><time>2026-04-29T11:11:47.096Z</time></trkpt><trkpt lat="36.8851865" lon="-1.4554051"><ele>0.0</ele><time>2026-04-29T11:11:48.096Z</time></trkpt><trkpt lat="36.8852417" lon="-1.4553246"><ele>0.0</ele><time>2026-04-29T11:11:49.095Z</time></trkpt><trkpt lat="36.8852996" lon="-1.4552463"><ele>0.0</ele><time>2026-04-29T11:11:50.095Z</time></trkpt><trkpt lat="36.8853579" lon="-1.4551651"><ele>0.0</ele><time>2026-04-29T11:11:51.096Z</time></trkpt><trkpt lat="36.8854174" lon="-1.4550848"><ele>0.0</ele><time>2026-04-29T11:11:52.095Z</time></trkpt><trkpt lat="36.885472" lon="-1.4550095"><ele>0.0</ele><time>2026-04-29T11:11:53.096Z</time></trkpt><trkpt lat="36.8855255" lon="-1.4549284"><ele>0.0</ele><time>2026-04-29T11:11:54.096Z</time></trkpt><trkpt lat="36.8855801" lon="-1.4548438"><ele>0.0</ele><time>2026-04-29T11:11:55.095Z</time></trkpt><trkpt lat="36.885635" lon="-1.4547607"><ele>0.0</ele><time>2026-04-29T11:11:56.096Z</time></trkpt><trkpt lat="36.8856984" lon="-1.4546757"><ele>0.0</ele><time>2026-04-29T11:11:57.096Z</time></trkpt><trkpt lat="36.8857565" lon="-1.4545891"><ele>0.0</ele><time>2026-04-29T11:11:58.095Z</time></trkpt><trkpt lat="36.8858148" lon="-1.4545039"><ele>0.0</ele><time>2026-04-29T11:11:59.096Z</time></trkpt><trkpt lat="36.8858703" lon="-1.4544188"><ele>0.0</ele><time>2026-04-29T11:12:00.095Z</time></trkpt><trkpt lat="36.8859736" lon="-1.4542495"><ele>0.0</ele><time>2026-04-29T11:12:02.095Z</time></trkpt><trkpt lat="36.8860341" lon="-1.4541709"><ele>0.0</ele><time>2026-04-29T11:12:03.095Z</time></trkpt><trkpt lat="36.8860958" lon="-1.4540917"><ele>0.0</ele><time>2026-04-29T11:12:04.096Z</time></trkpt><trkpt lat="36.8861506" lon="-1.4540101"><ele>0.0</ele><time>2026-04-29T11:12:05.096Z</time></trkpt><trkpt lat="36.8862113" lon="-1.4539298"><ele>0.0</ele><time>2026-04-29T11:12:06.095Z</time></trkpt><trkpt lat="36.8862684" lon="-1.4538468"><ele>0.0</ele><time>2026-04-29T11:12:07.095Z</time></trkpt><trkpt lat="36.8863237" lon="-1.4537648"><ele>0.0</ele><time>2026-04-29T11:12:08.095Z</time></trkpt><trkpt lat="36.8863798" lon="-1.4536893"><ele>0.0</ele><time>2026-04-29T11:12:09.095Z</time></trkpt><trkpt lat="36.8864282" lon="-1.4536031"><ele>0.0</ele><time>2026-04-29T11:12:10.096Z</time></trkpt><trkpt lat="36.8864849" lon="-1.4535175"><ele>0.0</ele><time>2026-04-29T11:12:11.096Z</time></trkpt><trkpt lat="36.8865359" lon="-1.4534321"><ele>0.0</ele><time>2026-04-29T11:12:12.096Z</time></trkpt><trkpt lat="36.8865901" lon="-1.4533468"><ele>0.0</ele><time>2026-04-29T11:12:13.096Z</time></trkpt><trkpt lat="36.8866406" lon="-1.4532633"><ele>0.0</ele><time>2026-04-29T11:12:14.095Z</time></trkpt><trkpt lat="36.8866894" lon="-1.4531813"><ele>0.0</ele><time>2026-04-29T11:12:15.095Z</time></trkpt><trkpt lat="36.8867433" lon="-1.4530983"><ele>0.0</ele><time>2026-04-29T11:12:16.096Z</time></trkpt><trkpt lat="36.8868013" lon="-1.4530179"><ele>0.0</ele><time>2026-04-29T11:12:17.096Z</time></trkpt><trkpt lat="36.8868578" lon="-1.4529307"><ele>0.0</ele><time>2026-04-29T11:12:18.095Z</time></trkpt><trkpt lat="36.8869132" lon="-1.4528484"><ele>0.0</ele><time>2026-04-29T11:12:19.095Z</time></trkpt><trkpt lat="36.8869683" lon="-1.4527713"><ele>0.0</ele><time>2026-04-29T11:12:20.095Z</time></trkpt><trkpt lat="36.8870207" lon="-1.4526915"><ele>0.0</ele><time>2026-04-29T11:12:21.095Z</time></trkpt><trkpt lat="36.8871237" lon="-1.4525235"><ele>0.0</ele><time>2026-04-29T11:12:23.096Z</time></trkpt><trkpt lat="36.8871771" lon="-1.4524363"><ele>0.0</ele><time>2026-04-29T11:12:24.095Z</time></trkpt><trkpt lat="36.887229" lon="-1.452352"><ele>0.0</ele><time>2026-04-29T11:12:25.095Z</time></trkpt><trkpt lat="36.8872836" lon="-1.4522632"><ele>0.0</ele><time>2026-04-29T11:12:26.095Z</time></trkpt><trkpt lat="36.8873357" lon="-1.4521758"><ele>0.0</ele><time>2026-04-29T11:12:27.096Z</time></trkpt><trkpt lat="36.8873929" lon="-1.4520924"><ele>0.0</ele><time>2026-04-29T11:12:28.096Z</time></trkpt><trkpt lat="36.8874468" lon="-1.4520117"><ele>0.0</ele><time>2026-04-29T11:12:29.096Z</time></trkpt><trkpt lat="36.8875059" lon="-1.4519328"><ele>0.0</ele><time>2026-04-29T11:12:30.096Z</time></trkpt><trkpt lat="36.8875663" lon="-1.4518564"><ele>0.0</ele><time>2026-04-29T11:12:31.095Z</time></trkpt><trkpt lat="36.8876285" lon="-1.4517762"><ele>0.0</ele><time>2026-04-29T11:12:32.096Z</time></trkpt><trkpt lat="36.8876891" lon="-1.4516943"><ele>0.0</ele><time>2026-04-29T11:12:33.096Z</time></trkpt><trkpt lat="36.8877467" lon="-1.4516102"><ele>0.0</ele><time>2026-04-29T11:12:34.095Z</time></trkpt><trkpt lat="36.8878119" lon="-1.4515306"><ele>0.0</ele><time>2026-04-29T11:12:35.095Z</time></trkpt><trkpt lat="36.887874" lon="-1.4514455"><ele>0.0</ele><time>2026-04-29T11:12:36.096Z</time></trkpt><trkpt lat="36.8879313" lon="-1.4513644"><ele>0.0</ele><time>2026-04-29T11:12:37.095Z</time></trkpt><trkpt lat="36.8879881" lon="-1.4512892"><ele>0.0</ele><time>2026-04-29T11:12:38.095Z</time></trkpt><trkpt lat="36.8880391" lon="-1.4512084"><ele>0.0</ele><time>2026-04-29T11:12:39.095Z</time></trkpt><trkpt lat="36.8880867" lon="-1.4511252"><ele>0.0</ele><time>2026-04-29T11:12:40.095Z</time></trkpt><trkpt lat="36.8881344" lon="-1.4510461"><ele>0.0</ele><time>2026-04-29T11:12:41.096Z</time></trkpt><trkpt lat="36.8881839" lon="-1.4509707"><ele>0.0</ele><time>2026-04-29T11:12:42.096Z</time></trkpt><trkpt lat="36.8882859" lon="-1.4507871"><ele>0.0</ele><time>2026-04-29T11:12:44.095Z</time></trkpt><trkpt lat="36.8883349" lon="-1.4506903"><ele>0.0</ele><time>2026-04-29T11:12:45.096Z</time></trkpt><trkpt lat="36.8883884" lon="-1.4506011"><ele>0.0</ele><time>2026-04-29T11:12:46.095Z</time></trkpt><trkpt lat="36.8884447" lon="-1.4505226"><ele>0.0</ele><time>2026-04-29T11:12:47.096Z</time></trkpt><trkpt lat="36.8885013" lon="-1.4504427"><ele>0.0</ele><time>2026-04-29T11:12:48.095Z</time></trkpt><trkpt lat="36.8885581" lon="-1.4503631"><ele>0.0</ele><time>2026-04-29T11:12:49.095Z</time></trkpt><trkpt lat="36.8886147" lon="-1.4502802"><ele>0.0</ele><time>2026-04-29T11:12:50.095Z</time></trkpt><trkpt lat="36.8886699" lon="-1.4501966"><ele>0.0</ele><time>2026-04-29T11:12:51.095Z</time></trkpt><trkpt lat="36.8887222" lon="-1.4501145"><ele>0.0</ele><time>2026-04-29T11:12:52.095Z</time></trkpt><trkpt lat="36.8887709" lon="-1.4500344"><ele>0.0</ele><time>2026-04-29T11:12:53.095Z</time></trkpt><trkpt lat="36.8888223" lon="-1.4499571"><ele>0.0</ele><time>2026-04-29T11:12:54.096Z</time></trkpt><trkpt lat="36.8888742" lon="-1.4498751"><ele>0.0</ele><time>2026-04-29T11:12:55.095Z</time></trkpt><trkpt lat="36.8889312" lon="-1.4498001"><ele>0.0</ele><time>2026-04-29T11:12:56.095Z</time></trkpt><trkpt lat="36.8889909" lon="-1.4497169"><ele>0.0</ele><time>2026-04-29T11:12:57.095Z</time></trkpt><trkpt lat="36.8890466" lon="-1.4496335"><ele>0.0</ele><time>2026-04-29T11:12:58.095Z</time></trkpt><trkpt lat="36.8891029" lon="-1.4495458"><ele>0.0</ele><time>2026-04-29T11:12:59.096Z</time></trkpt><trkpt lat="36.8891581" lon="-1.4494631"><ele>0.0</ele><time>2026-04-29T11:13:00.095Z</time></trkpt><trkpt lat="36.8892135" lon="-1.449377"><ele>0.0</ele><time>2026-04-29T11:13:01.095Z</time></trkpt><trkpt lat="36.8892726" lon="-1.4492963"><ele>0.0</ele><time>2026-04-29T11:13:02.095Z</time></trkpt><trkpt lat="36.8893338" lon="-1.4492203"><ele>0.0</ele><time>2026-04-29T11:13:03.095Z</time></trkpt><trkpt lat="36.8894449" lon="-1.4490379"><ele>0.0</ele><time>2026-04-29T11:13:05.096Z</time></trkpt><trkpt lat="36.889503" lon="-1.4489524"><ele>0.0</ele><time>2026-04-29T11:13:06.096Z</time></trkpt><trkpt lat="36.8895582" lon="-1.4488711"><ele>0.0</ele><time>2026-04-29T11:13:07.095Z</time></trkpt><trkpt lat="36.8896106" lon="-1.4487882"><ele>0.0</ele><time>2026-04-29T11:13:08.095Z</time></trkpt><trkpt lat="36.8896633" lon="-1.4486949"><ele>0.0</ele><time>2026-04-29T11:13:09.095Z</time></trkpt><trkpt lat="36.8897157" lon="-1.4486044"><ele>0.0</ele><time>2026-04-29T11:13:10.096Z</time></trkpt><trkpt lat="36.8897661" lon="-1.4485257"><ele>0.0</ele><time>2026-04-29T11:13:11.095Z</time></trkpt><trkpt lat="36.8898163" lon="-1.4484429"><ele>0.0</ele><time>2026-04-29T11:13:12.095Z</time></trkpt><trkpt lat="36.8898729" lon="-1.4483598"><ele>0.0</ele><time>2026-04-29T11:13:13.095Z</time></trkpt><trkpt lat="36.8899296" lon="-1.4482766"><ele>0.0</ele><time>2026-04-29T11:13:14.095Z</time></trkpt><trkpt lat="36.8899892" lon="-1.448193"><ele>0.0</ele><time>2026-04-29T11:13:15.095Z</time></trkpt><trkpt lat="36.8900465" lon="-1.4481126"><ele>0.0</ele><time>2026-04-29T11:13:16.096Z</time></trkpt><trkpt lat="36.8901002" lon="-1.4480368"><ele>0.0</ele><time>2026-04-29T11:13:17.095Z</time></trkpt><trkpt lat="36.8901511" lon="-1.447955"><ele>0.0</ele><time>2026-04-29T11:13:18.095Z</time></trkpt><trkpt lat="36.8902069" lon="-1.4478747"><ele>0.0</ele><time>2026-04-29T11:13:19.095Z</time></trkpt><trkpt lat="36.8902617" lon="-1.4477943"><ele>0.0</ele><time>2026-04-29T11:13:20.096Z</time></trkpt><trkpt lat="36.8903166" lon="-1.4477143"><ele>0.0</ele><time>2026-04-29T11:13:21.095Z</time></trkpt><trkpt lat="36.8903701" lon="-1.4476291"><ele>0.0</ele><time>2026-04-29T11:13:22.095Z</time></trkpt><trkpt lat="36.890425" lon="-1.4475482"><ele>0.0</ele><time>2026-04-29T11:13:23.095Z</time></trkpt><trkpt lat="36.8904869" lon="-1.4474696"><ele>0.0</ele><time>2026-04-29T11:13:24.095Z</time></trkpt><trkpt lat="36.8905973" lon="-1.4473156"><ele>0.0</ele><time>2026-04-29T11:13:26.096Z</time></trkpt><trkpt lat="36.8906485" lon="-1.4472351"><ele>0.0</ele><time>2026-04-29T11:13:27.096Z</time></trkpt><trkpt lat="36.890703" lon="-1.4471533"><ele>0.0</ele><time>2026-04-29T11:13:28.095Z</time></trkpt><trkpt lat="36.8907596" lon="-1.4470727"><ele>0.0</ele><time>2026-04-29T11:13:29.095Z</time></trkpt><trkpt lat="36.8908164" lon="-1.4469928"><ele>0.0</ele><time>2026-04-29T11:13:30.095Z</time></trkpt><trkpt lat="36.8908703" lon="-1.4469114"><ele>0.0</ele><time>2026-04-29T11:13:31.096Z</time></trkpt><trkpt lat="36.8909259" lon="-1.4468299"><ele>0.0</ele><time>2026-04-29T11:13:32.095Z</time></trkpt><trkpt lat="36.8909817" lon="-1.4467439"><ele>0.0</ele><time>2026-04-29T11:13:33.095Z</time></trkpt><trkpt lat="36.8910352" lon="-1.4466547"><ele>0.0</ele><time>2026-04-29T11:13:34.096Z</time></trkpt><trkpt lat="36.8910942" lon="-1.4465733"><ele>0.0</ele><time>2026-04-29T11:13:35.096Z</time></trkpt><trkpt lat="36.8911432" lon="-1.4464916"><ele>0.0</ele><time>2026-04-29T11:13:36.095Z</time></trkpt><trkpt lat="36.891197" lon="-1.4464089"><ele>0.0</ele><time>2026-04-29T11:13:37.096Z</time></trkpt><trkpt lat="36.8912519" lon="-1.4463269"><ele>0.0</ele><time>2026-04-29T11:13:38.095Z</time></trkpt><trkpt lat="36.8913071" lon="-1.4462477"><ele>0.0</ele><time>2026-04-29T11:13:39.096Z</time></trkpt><trkpt lat="36.8913632" lon="-1.446165"><ele>0.0</ele><time>2026-04-29T11:13:40.095Z</time></trkpt><trkpt lat="36.8914243" lon="-1.4460793"><ele>0.0</ele><time>2026-04-29T11:13:41.096Z</time></trkpt><trkpt lat="36.891487" lon="-1.4459952"><ele>0.0</ele><time>2026-04-29T11:13:42.095Z</time></trkpt><trkpt lat="36.8915476" lon="-1.445912"><ele>0.0</ele><time>2026-04-29T11:13:43.096Z</time></trkpt><trkpt lat="36.8916065" lon="-1.4458326"><ele>0.0</ele><time>2026-04-29T11:13:44.095Z</time></trkpt><trkpt lat="36.891662" lon="-1.4457473"><ele>0.0</ele><time>2026-04-29T11:13:45.095Z</time></trkpt><trkpt lat="36.8917895" lon="-1.4455936"><ele>0.0</ele><time>2026-04-29T11:13:47.095Z</time></trkpt><trkpt lat="36.8918492" lon="-1.4455201"><ele>0.0</ele><time>2026-04-29T11:13:48.096Z</time></trkpt><trkpt lat="36.8919108" lon="-1.4454455"><ele>0.0</ele><time>2026-04-29T11:13:49.095Z</time></trkpt><trkpt lat="36.8919682" lon="-1.4453691"><ele>0.0</ele><time>2026-04-29T11:13:50.095Z</time></trkpt><trkpt lat="36.8920222" lon="-1.4452869"><ele>0.0</ele><time>2026-04-29T11:13:51.096Z</time></trkpt><trkpt lat="36.8920784" lon="-1.4451997"><ele>0.0</ele><time>2026-04-29T11:13:52.095Z</time></trkpt><trkpt lat="36.8921332" lon="-1.4451114"><ele>0.0</ele><time>2026-04-29T11:13:53.095Z</time></trkpt><trkpt lat="36.8921856" lon="-1.4450302"><ele>0.0</ele><time>2026-04-29T11:13:54.096Z</time></trkpt><trkpt lat="36.8922402" lon="-1.4449528"><ele>0.0</ele><time>2026-04-29T11:13:55.095Z</time></trkpt><trkpt lat="36.8922981" lon="-1.4448733"><ele>0.0</ele><time>2026-04-29T11:13:56.095Z</time></trkpt><trkpt lat="36.892355" lon="-1.4447944"><ele>0.0</ele><time>2026-04-29T11:13:57.096Z</time></trkpt><trkpt lat="36.8924148" lon="-1.4447147"><ele>0.0</ele><time>2026-04-29T11:13:58.095Z</time></trkpt><trkpt lat="36.8924678" lon="-1.4446346"><ele>0.0</ele><time>2026-04-29T11:13:59.096Z</time></trkpt><trkpt lat="36.8925235" lon="-1.4445532"><ele>0.0</ele><time>2026-04-29T11:14:00.095Z</time></trkpt><trkpt lat="36.8925757" lon="-1.444469"><ele>0.0</ele><time>2026-04-29T11:14:01.096Z</time></trkpt><trkpt lat="36.8926272" lon="-1.4443837"><ele>0.0</ele><time>2026-04-29T11:14:02.095Z</time></trkpt><trkpt lat="36.8926875" lon="-1.444299"><ele>0.0</ele><time>2026-04-29T11:14:03.095Z</time></trkpt><trkpt lat="36.8927464" lon="-1.4442125"><ele>0.0</ele><time>2026-04-29T11:14:04.095Z</time></trkpt><trkpt lat="36.8928074" lon="-1.4441318"><ele>0.0</ele><time>2026-04-29T11:14:05.096Z</time></trkpt><trkpt lat="36.8928676" lon="-1.4440532"><ele>0.0</ele><time>2026-04-29T11:14:06.095Z</time></trkpt><trkpt lat="36.8929707" lon="-1.4438857"><ele>0.0</ele><time>2026-04-29T11:14:08.096Z</time></trkpt><trkpt lat="36.8930194" lon="-1.4437991"><ele>0.0</ele><time>2026-04-29T11:14:09.095Z</time></trkpt><trkpt lat="36.8930651" lon="-1.443711"><ele>0.0</ele><time>2026-04-29T11:14:10.096Z</time></trkpt><trkpt lat="36.8931198" lon="-1.4436245"><ele>0.0</ele><time>2026-04-29T11:14:11.095Z</time></trkpt><trkpt lat="36.8931777" lon="-1.4435372"><ele>0.0</ele><time>2026-04-29T11:14:12.095Z</time></trkpt><trkpt lat="36.8932348" lon="-1.4434473"><ele>0.0</ele><time>2026-04-29T11:14:13.095Z</time></trkpt><trkpt lat="36.893291" lon="-1.4433732"><ele>0.0</ele><time>2026-04-29T11:14:14.096Z</time></trkpt><trkpt lat="36.8933447" lon="-1.4432929"><ele>0.0</ele><time>2026-04-29T11:14:15.096Z</time></trkpt><trkpt lat="36.8934015" lon="-1.4432061"><ele>0.0</ele><time>2026-04-29T11:14:16.095Z</time></trkpt><trkpt lat="36.893454" lon="-1.4431189"><ele>0.0</ele><time>2026-04-29T11:14:17.095Z</time></trkpt><trkpt lat="36.8935095" lon="-1.4430373"><ele>0.0</ele><time>2026-04-29T11:14:18.095Z</time></trkpt><trkpt lat="36.8935634" lon="-1.4429593"><ele>0.0</ele><time>2026-04-29T11:14:19.096Z</time></trkpt><trkpt lat="36.893617" lon="-1.4428753"><ele>0.0</ele><time>2026-04-29T11:14:20.096Z</time></trkpt><trkpt lat="36.8936658" lon="-1.4427957"><ele>0.0</ele><time>2026-04-29T11:14:21.096Z</time></trkpt><trkpt lat="36.8937126" lon="-1.4427157"><ele>0.0</ele><time>2026-04-29T11:14:22.096Z</time></trkpt><trkpt lat="36.8937625" lon="-1.4426377"><ele>0.0</ele><time>2026-04-29T11:14:23.096Z</time></trkpt><trkpt lat="36.8938181" lon="-1.4425495"><ele>0.0</ele><time>2026-04-29T11:14:24.095Z</time></trkpt><trkpt lat="36.8938717" lon="-1.4424677"><ele>0.0</ele><time>2026-04-29T11:14:25.095Z</time></trkpt><trkpt lat="36.893928" lon="-1.4423837"><ele>0.0</ele><time>2026-04-29T11:14:26.095Z</time></trkpt><trkpt lat="36.8939888" lon="-1.4423085"><ele>0.0</ele><time>2026-04-29T11:14:27.096Z</time></trkpt><trkpt lat="36.894097" lon="-1.4421456"><ele>0.0</ele><time>2026-04-29T11:14:29.096Z</time></trkpt><trkpt lat="36.8941518" lon="-1.4420577"><ele>0.0</ele><time>2026-04-29T11:14:30.095Z</time></trkpt><trkpt lat="36.8942094" lon="-1.4419777"><ele>0.0</ele><time>2026-04-29T11:14:31.096Z</time></trkpt><trkpt lat="36.8942693" lon="-1.4418981"><ele>0.0</ele><time>2026-04-29T11:14:32.095Z</time></trkpt><trkpt lat="36.8943208" lon="-1.4418154"><ele>0.0</ele><time>2026-04-29T11:14:33.096Z</time></trkpt><trkpt lat="36.894372" lon="-1.4417288"><ele>0.0</ele><time>2026-04-29T11:14:34.095Z</time></trkpt><trkpt lat="36.8944253" lon="-1.4416467"><ele>0.0</ele><time>2026-04-29T11:14:35.096Z</time></trkpt><trkpt lat="36.8944801" lon="-1.4415634"><ele>0.0</ele><time>2026-04-29T11:14:36.096Z</time></trkpt><trkpt lat="36.8945363" lon="-1.44148"><ele>0.0</ele><time>2026-04-29T11:14:37.096Z</time></trkpt><trkpt lat="36.8945945" lon="-1.4413954"><ele>0.0</ele><time>2026-04-29T11:14:38.095Z</time></trkpt><trkpt lat="36.8946516" lon="-1.4413092"><ele>0.0</ele><time>2026-04-29T11:14:39.095Z</time></trkpt><trkpt lat="36.8947071" lon="-1.4412238"><ele>0.0</ele><time>2026-04-29T11:14:40.095Z</time></trkpt><trkpt lat="36.894759" lon="-1.4411388"><ele>0.0</ele><time>2026-04-29T11:14:41.095Z</time></trkpt><trkpt lat="36.8948108" lon="-1.4410583"><ele>0.0</ele><time>2026-04-29T11:14:42.095Z</time></trkpt><trkpt lat="36.8948694" lon="-1.4409766"><ele>0.0</ele><time>2026-04-29T11:14:43.095Z</time></trkpt><trkpt lat="36.8949267" lon="-1.4408963"><ele>0.0</ele><time>2026-04-29T11:14:44.095Z</time></trkpt><trkpt lat="36.8949803" lon="-1.4408129"><ele>0.0</ele><time>2026-04-29T11:14:45.095Z</time></trkpt><trkpt lat="36.8950337" lon="-1.4407343"><ele>0.0</ele><time>2026-04-29T11:14:46.096Z</time></trkpt><trkpt lat="36.89509" lon="-1.4406487"><ele>0.0</ele><time>2026-04-29T11:14:47.095Z</time></trkpt><trkpt lat="36.8951451" lon="-1.440567"><ele>0.0</ele><time>2026-04-29T11:14:48.096Z</time></trkpt><trkpt lat="36.8952544" lon="-1.4403986"><ele>0.0</ele><time>2026-04-29T11:14:50.096Z</time></trkpt><trkpt lat="36.8953101" lon="-1.4403193"><ele>0.0</ele><time>2026-04-29T11:14:51.095Z</time></trkpt><trkpt lat="36.8953653" lon="-1.44024"><ele>0.0</ele><time>2026-04-29T11:14:52.095Z</time></trkpt><trkpt lat="36.8954244" lon="-1.4401609"><ele>0.0</ele><time>2026-04-29T11:14:53.095Z</time></trkpt><trkpt lat="36.8954857" lon="-1.4400824"><ele>0.0</ele><time>2026-04-29T11:14:54.096Z</time></trkpt><trkpt lat="36.8955391" lon="-1.4400003"><ele>0.0</ele><time>2026-04-29T11:14:55.095Z</time></trkpt><trkpt lat="36.8955934" lon="-1.4399156"><ele>0.0</ele><time>2026-04-29T11:14:56.096Z</time></trkpt><trkpt lat="36.895647" lon="-1.4398291"><ele>0.0</ele><time>2026-04-29T11:14:57.095Z</time></trkpt><trkpt lat="36.8957033" lon="-1.4397468"><ele>0.0</ele><time>2026-04-29T11:14:58.095Z</time></trkpt><trkpt lat="36.8957611" lon="-1.4396647"><ele>0.0</ele><time>2026-04-29T11:14:59.096Z</time></trkpt><trkpt lat="36.8958167" lon="-1.4395804"><ele>0.0</ele><time>2026-04-29T11:15:00.095Z</time></trkpt><trkpt lat="36.8958717" lon="-1.4394973"><ele>0.0</ele><time>2026-04-29T11:15:01.096Z</time></trkpt><trkpt lat="36.8959296" lon="-1.439415"><ele>0.0</ele><time>2026-04-29T11:15:02.096Z</time></trkpt><trkpt lat="36.8959808" lon="-1.4393293"><ele>0.0</ele><time>2026-04-29T11:15:03.096Z</time></trkpt><trkpt lat="36.8960324" lon="-1.4392453"><ele>0.0</ele><time>2026-04-29T11:15:04.096Z</time></trkpt><trkpt lat="36.8960856" lon="-1.4391649"><ele>0.0</ele><time>2026-04-29T11:15:05.096Z</time></trkpt><trkpt lat="36.896136" lon="-1.4390792"><ele>0.0</ele><time>2026-04-29T11:15:06.095Z</time></trkpt><trkpt lat="36.8961875" lon="-1.4389928"><ele>0.0</ele><time>2026-04-29T11:15:07.095Z</time></trkpt><trkpt lat="36.8962377" lon="-1.4389086"><ele>0.0</ele><time>2026-04-29T11:15:08.095Z</time></trkpt><trkpt lat="36.896293" lon="-1.4388293"><ele>0.0</ele><time>2026-04-29T11:15:09.095Z</time></trkpt><trkpt lat="36.8964063" lon="-1.4386647"><ele>0.0</ele><time>2026-04-29T11:15:11.095Z</time></trkpt><trkpt lat="36.8964617" lon="-1.4385775"><ele>0.0</ele><time>2026-04-29T11:15:12.095Z</time></trkpt><trkpt lat="36.8965167" lon="-1.4384961"><ele>0.0</ele><time>2026-04-29T11:15:13.095Z</time></trkpt><trkpt lat="36.8965701" lon="-1.4384118"><ele>0.0</ele><time>2026-04-29T11:15:14.095Z</time></trkpt><trkpt lat="36.8966225" lon="-1.4383315"><ele>0.0</ele><time>2026-04-29T11:15:15.096Z</time></trkpt><trkpt lat="36.8966739" lon="-1.4382317"><ele>0.0</ele><time>2026-04-29T11:15:16.095Z</time></trkpt><trkpt lat="36.8967266" lon="-1.4381412"><ele>0.0</ele><time>2026-04-29T11:15:17.095Z</time></trkpt><trkpt lat="36.8967843" lon="-1.4380582"><ele>0.0</ele><time>2026-04-29T11:15:18.096Z</time></trkpt><trkpt lat="36.8968342" lon="-1.4379794"><ele>0.0</ele><time>2026-04-29T11:15:19.096Z</time></trkpt><trkpt lat="36.8968872" lon="-1.4378951"><ele>0.0</ele><time>2026-04-29T11:15:20.096Z</time></trkpt><trkpt lat="36.8969389" lon="-1.437817"><ele>0.0</ele><time>2026-04-29T11:15:21.095Z</time></trkpt><trkpt lat="36.8969948" lon="-1.4377374"><ele>0.0</ele><time>2026-04-29T11:15:22.095Z</time></trkpt><trkpt lat="36.8970484" lon="-1.4376563"><ele>0.0</ele><time>2026-04-29T11:15:23.096Z</time></trkpt><trkpt lat="36.8971006" lon="-1.4375744"><ele>0.0</ele><time>2026-04-29T11:15:24.096Z</time></trkpt><trkpt lat="36.8971538" lon="-1.4374906"><ele>0.0</ele><time>2026-04-29T11:15:25.095Z</time></trkpt><trkpt lat="36.8972094" lon="-1.4374025"><ele>0.0</ele><time>2026-04-29T11:15:26.096Z</time></trkpt><trkpt lat="36.8972676" lon="-1.437317"><ele>0.0</ele><time>2026-04-29T11:15:27.095Z</time></trkpt><trkpt lat="36.8973218" lon="-1.4372406"><ele>0.0</ele><time>2026-04-29T11:15:28.096Z</time></trkpt><trkpt lat="36.8973766" lon="-1.4371552"><ele>0.0</ele><time>2026-04-29T11:15:29.095Z</time></trkpt><trkpt lat="36.8974371" lon="-1.4370713"><ele>0.0</ele><time>2026-04-29T11:15:30.095Z</time></trkpt><trkpt lat="36.8975452" lon="-1.4369041"><ele>0.0</ele><time>2026-04-29T11:15:32.095Z</time></trkpt><trkpt lat="36.897593" lon="-1.4368231"><ele>0.0</ele><time>2026-04-29T11:15:33.095Z</time></trkpt><trkpt lat="36.8976427" lon="-1.4367396"><ele>0.0</ele><time>2026-04-29T11:15:34.096Z</time></trkpt><trkpt lat="36.8976956" lon="-1.4366594"><ele>0.0</ele><time>2026-04-29T11:15:35.096Z</time></trkpt><trkpt lat="36.8977501" lon="-1.4365739"><ele>0.0</ele><time>2026-04-29T11:15:36.095Z</time></trkpt><trkpt lat="36.8978061" lon="-1.4364885"><ele>0.0</ele><time>2026-04-29T11:15:37.096Z</time></trkpt><trkpt lat="36.8978644" lon="-1.436402"><ele>0.0</ele><time>2026-04-29T11:15:38.096Z</time></trkpt><trkpt lat="36.8979243" lon="-1.436317"><ele>0.0</ele><time>2026-04-29T11:15:39.095Z</time></trkpt><trkpt lat="36.8979771" lon="-1.4362388"><ele>0.0</ele><time>2026-04-29T11:15:40.095Z</time></trkpt><trkpt lat="36.8980317" lon="-1.4361563"><ele>0.0</ele><time>2026-04-29T11:15:41.095Z</time></trkpt><trkpt lat="36.8980826" lon="-1.4360762"><ele>0.0</ele><time>2026-04-29T11:15:42.096Z</time></trkpt><trkpt lat="36.8981354" lon="-1.4359935"><ele>0.0</ele><time>2026-04-29T11:15:43.096Z</time></trkpt><trkpt lat="36.898197" lon="-1.4359061"><ele>0.0</ele><time>2026-04-29T11:15:44.095Z</time></trkpt><trkpt lat="36.8982507" lon="-1.4358224"><ele>0.0</ele><time>2026-04-29T11:15:45.095Z</time></trkpt><trkpt lat="36.8983027" lon="-1.4357389"><ele>0.0</ele><time>2026-04-29T11:15:46.095Z</time></trkpt><trkpt lat="36.898354" lon="-1.4356609"><ele>0.0</ele><time>2026-04-29T11:15:47.096Z</time></trkpt><trkpt lat="36.8984085" lon="-1.4355798"><ele>0.0</ele><time>2026-04-29T11:15:48.096Z</time></trkpt><trkpt lat="36.8984578" lon="-1.4354968"><ele>0.0</ele><time>2026-04-29T11:15:49.096Z</time></trkpt><trkpt lat="36.8985131" lon="-1.4354076"><ele>0.0</ele><time>2026-04-29T11:15:50.096Z</time></trkpt><trkpt lat="36.8985682" lon="-1.4353162"><ele>0.0</ele><time>2026-04-29T11:15:51.096Z</time></trkpt><trkpt lat="36.8986698" lon="-1.4351421"><ele>0.0</ele><time>2026-04-29T11:15:53.096Z</time></trkpt><trkpt lat="36.8987277" lon="-1.4350639"><ele>0.0</ele><time>2026-04-29T11:15:54.096Z</time></trkpt><trkpt lat="36.8987818" lon="-1.4349785"><ele>0.0</ele><time>2026-04-29T11:15:55.095Z</time></trkpt><trkpt lat="36.8988339" lon="-1.4349018"><ele>0.0</ele><time>2026-04-29T11:15:56.095Z</time></trkpt><trkpt lat="36.8988954" lon="-1.4348253"><ele>0.0</ele><time>2026-04-29T11:15:57.096Z</time></trkpt><trkpt lat="36.8989471" lon="-1.4347304"><ele>0.0</ele><time>2026-04-29T11:15:58.096Z</time></trkpt><trkpt lat="36.8990028" lon="-1.4346474"><ele>0.0</ele><time>2026-04-29T11:15:59.096Z</time></trkpt><trkpt lat="36.8990622" lon="-1.4345745"><ele>0.0</ele><time>2026-04-29T11:16:00.095Z</time></trkpt><trkpt lat="36.899118" lon="-1.4344929"><ele>0.0</ele><time>2026-04-29T11:16:01.095Z</time></trkpt><trkpt lat="36.899173" lon="-1.4344082"><ele>0.0</ele><time>2026-04-29T11:16:02.095Z</time></trkpt><trkpt lat="36.899231" lon="-1.4343291"><ele>0.0</ele><time>2026-04-29T11:16:03.096Z</time></trkpt><trkpt lat="36.8992934" lon="-1.4342504"><ele>0.0</ele><time>2026-04-29T11:16:04.096Z</time></trkpt><trkpt lat="36.8993485" lon="-1.4341765"><ele>0.0</ele><time>2026-04-29T11:16:05.095Z</time></trkpt><trkpt lat="36.8994046" lon="-1.4340947"><ele>0.0</ele><time>2026-04-29T11:16:06.095Z</time></trkpt><trkpt lat="36.8994599" lon="-1.4340189"><ele>0.0</ele><time>2026-04-29T11:16:07.095Z</time></trkpt><trkpt lat="36.8995106" lon="-1.4339308"><ele>0.0</ele><time>2026-04-29T11:16:08.095Z</time></trkpt><trkpt lat="36.8995634" lon="-1.4338371"><ele>0.0</ele><time>2026-04-29T11:16:09.095Z</time></trkpt><trkpt lat="36.8996182" lon="-1.433752"><ele>0.0</ele><time>2026-04-29T11:16:10.096Z</time></trkpt><trkpt lat="36.8996703" lon="-1.4336629"><ele>0.0</ele><time>2026-04-29T11:16:11.096Z</time></trkpt><trkpt lat="36.8997753" lon="-1.4334962"><ele>0.0</ele><time>2026-04-29T11:16:13.095Z</time></trkpt><trkpt lat="36.8998257" lon="-1.433409"><ele>0.0</ele><time>2026-04-29T11:16:14.096Z</time></trkpt><trkpt lat="36.8998755" lon="-1.4333264"><ele>0.0</ele><time>2026-04-29T11:16:15.096Z</time></trkpt><trkpt lat="36.8999272" lon="-1.4332394"><ele>0.0</ele><time>2026-04-29T11:16:16.095Z</time></trkpt><trkpt lat="36.8999845" lon="-1.4331612"><ele>0.0</ele><time>2026-04-29T11:16:17.095Z</time></trkpt><trkpt lat="36.9000355" lon="-1.4330756"><ele>0.0</ele><time>2026-04-29T11:16:18.096Z</time></trkpt><trkpt lat="36.9000913" lon="-1.4329961"><ele>0.0</ele><time>2026-04-29T11:16:19.095Z</time></trkpt><trkpt lat="36.9001435" lon="-1.4329204"><ele>0.0</ele><time>2026-04-29T11:16:20.095Z</time></trkpt><trkpt lat="36.9001979" lon="-1.4328367"><ele>0.0</ele><time>2026-04-29T11:16:21.096Z</time></trkpt><trkpt lat="36.9002589" lon="-1.4327578"><ele>0.0</ele><time>2026-04-29T11:16:22.096Z</time></trkpt><trkpt lat="36.9003234" lon="-1.4326708"><ele>0.0</ele><time>2026-04-29T11:16:23.095Z</time></trkpt><trkpt lat="36.900384" lon="-1.4325926"><ele>0.0</ele><time>2026-04-29T11:16:24.096Z</time></trkpt><trkpt lat="36.9004355" lon="-1.4325102"><ele>0.0</ele><time>2026-04-29T11:16:25.095Z</time></trkpt><trkpt lat="36.9004871" lon="-1.4324249"><ele>0.0</ele><time>2026-04-29T11:16:26.095Z</time></trkpt><trkpt lat="36.900536" lon="-1.4323383"><ele>0.0</ele><time>2026-04-29T11:16:27.096Z</time></trkpt><trkpt lat="36.9005872" lon="-1.432256"><ele>0.0</ele><time>2026-04-29T11:16:28.096Z</time></trkpt><trkpt lat="36.9006361" lon="-1.4321815"><ele>0.0</ele><time>2026-04-29T11:16:29.095Z</time></trkpt><trkpt lat="36.9006885" lon="-1.4321012"><ele>0.0</ele><time>2026-04-29T11:16:30.095Z</time></trkpt><trkpt lat="36.900746" lon="-1.4320208"><ele>0.0</ele><time>2026-04-29T11:16:31.095Z</time></trkpt><trkpt lat="36.9007987" lon="-1.4319399"><ele>0.0</ele><time>2026-04-29T11:16:32.095Z</time></trkpt><trkpt lat="36.9009078" lon="-1.4317738"><ele>0.0</ele><time>2026-04-29T11:16:34.095Z</time></trkpt><trkpt lat="36.9009646" lon="-1.4316973"><ele>0.0</ele><time>2026-04-29T11:16:35.095Z</time></trkpt><trkpt lat="36.9010241" lon="-1.4316152"><ele>0.0</ele><time>2026-04-29T11:16:36.096Z</time></trkpt><trkpt lat="36.9010781" lon="-1.4315301"><ele>0.0</ele><time>2026-04-29T11:16:37.096Z</time></trkpt><trkpt lat="36.9011323" lon="-1.4314468"><ele>0.0</ele><time>2026-04-29T11:16:38.096Z</time></trkpt><trkpt lat="36.9011866" lon="-1.4313634"><ele>0.0</ele><time>2026-04-29T11:16:39.095Z</time></trkpt><trkpt lat="36.9012433" lon="-1.4312764"><ele>0.0</ele><time>2026-04-29T11:16:40.096Z</time></trkpt><trkpt lat="36.9012972" lon="-1.4311978"><ele>0.0</ele><time>2026-04-29T11:16:41.095Z</time></trkpt><trkpt lat="36.9013476" lon="-1.4311193"><ele>0.0</ele><time>2026-04-29T11:16:42.096Z</time></trkpt><trkpt lat="36.9014016" lon="-1.4310437"><ele>0.0</ele><time>2026-04-29T11:16:43.095Z</time></trkpt><trkpt lat="36.901458" lon="-1.4309576"><ele>0.0</ele><time>2026-04-29T11:16:44.096Z</time></trkpt><trkpt lat="36.9015129" lon="-1.4308706"><ele>0.0</ele><time>2026-04-29T11:16:45.095Z</time></trkpt><trkpt lat="36.901568" lon="-1.430784"><ele>0.0</ele><time>2026-04-29T11:16:46.095Z</time></trkpt><trkpt lat="36.9016278" lon="-1.4306993"><ele>0.0</ele><time>2026-04-29T11:16:47.096Z</time></trkpt><trkpt lat="36.901689" lon="-1.4306179"><ele>0.0</ele><time>2026-04-29T11:16:48.096Z</time></trkpt><trkpt lat="36.9017463" lon="-1.4305379"><ele>0.0</ele><time>2026-04-29T11:16:49.095Z</time></trkpt><trkpt lat="36.9018003" lon="-1.4304511"><ele>0.0</ele><time>2026-04-29T11:16:50.095Z</time></trkpt><trkpt lat="36.9018533" lon="-1.4303681"><ele>0.0</ele><time>2026-04-29T11:16:51.096Z</time></trkpt><trkpt lat="36.9019084" lon="-1.430278"><ele>0.0</ele><time>2026-04-29T11:16:52.096Z</time></trkpt><trkpt lat="36.9019562" lon="-1.4301991"><ele>0.0</ele><time>2026-04-29T11:16:53.096Z</time></trkpt><trkpt lat="36.9020645" lon="-1.4300406"><ele>0.0</ele><time>2026-04-29T11:16:55.096Z</time></trkpt><trkpt lat="36.9021139" lon="-1.429964"><ele>0.0</ele><time>2026-04-29T11:16:56.096Z</time></trkpt><trkpt lat="36.9021695" lon="-1.4298831"><ele>0.0</ele><time>2026-04-29T11:16:57.095Z</time></trkpt><trkpt lat="36.9022219" lon="-1.4297987"><ele>0.0</ele><time>2026-04-29T11:16:58.095Z</time></trkpt><trkpt lat="36.9022751" lon="-1.4297169"><ele>0.0</ele><time>2026-04-29T11:16:59.096Z</time></trkpt><trkpt lat="36.902331" lon="-1.4296321"><ele>0.0</ele><time>2026-04-29T11:17:00.096Z</time></trkpt><trkpt lat="36.9023848" lon="-1.4295416"><ele>0.0</ele><time>2026-04-29T11:17:01.096Z</time></trkpt><trkpt lat="36.9024425" lon="-1.4294598"><ele>0.0</ele><time>2026-04-29T11:17:02.095Z</time></trkpt><trkpt lat="36.9025021" lon="-1.4293811"><ele>0.0</ele><time>2026-04-29T11:17:03.094Z</time></trkpt><trkpt lat="36.9025567" lon="-1.4292957"><ele>0.0</ele><time>2026-04-29T11:17:04.095Z</time></trkpt><trkpt lat="36.9026113" lon="-1.4292076"><ele>0.0</ele><time>2026-04-29T11:17:05.094Z</time></trkpt><trkpt lat="36.9026633" lon="-1.4291234"><ele>0.0</ele><time>2026-04-29T11:17:06.094Z</time></trkpt><trkpt lat="36.9027138" lon="-1.4290416"><ele>0.0</ele><time>2026-04-29T11:17:07.094Z</time></trkpt><trkpt lat="36.9027641" lon="-1.4289539"><ele>0.0</ele><time>2026-04-29T11:17:08.094Z</time></trkpt><trkpt lat="36.902811" lon="-1.4288644"><ele>0.0</ele><time>2026-04-29T11:17:09.094Z</time></trkpt><trkpt lat="36.9028637" lon="-1.4287804"><ele>0.0</ele><time>2026-04-29T11:17:10.095Z</time></trkpt><trkpt lat="36.9029166" lon="-1.4286995"><ele>0.0</ele><time>2026-04-29T11:17:11.095Z</time></trkpt><trkpt lat="36.9029727" lon="-1.4286207"><ele>0.0</ele><time>2026-04-29T11:17:12.095Z</time></trkpt><trkpt lat="36.9030307" lon="-1.4285338"><ele>0.0</ele><time>2026-04-29T11:17:13.095Z</time></trkpt><trkpt lat="36.903084" lon="-1.4284502"><ele>0.0</ele><time>2026-04-29T11:17:14.094Z</time></trkpt><trkpt lat="36.9031878" lon="-1.4282837"><ele>0.0</ele><time>2026-04-29T11:17:16.095Z</time></trkpt><trkpt lat="36.9032416" lon="-1.4282059"><ele>0.0</ele><time>2026-04-29T11:17:17.095Z</time></trkpt><trkpt lat="36.9033033" lon="-1.4281273"><ele>0.0</ele><time>2026-04-29T11:17:18.095Z</time></trkpt><trkpt lat="36.9033626" lon="-1.4280478"><ele>0.0</ele><time>2026-04-29T11:17:19.094Z</time></trkpt><trkpt lat="36.9034212" lon="-1.4279695"><ele>0.0</ele><time>2026-04-29T11:17:20.095Z</time></trkpt><trkpt lat="36.9034767" lon="-1.4278853"><ele>0.0</ele><time>2026-04-29T11:17:21.095Z</time></trkpt><trkpt lat="36.9035319" lon="-1.427796"><ele>0.0</ele><time>2026-04-29T11:17:22.095Z</time></trkpt><trkpt lat="36.9035811" lon="-1.4277162"><ele>0.0</ele><time>2026-04-29T11:17:23.095Z</time></trkpt><trkpt lat="36.9036322" lon="-1.4276333"><ele>0.0</ele><time>2026-04-29T11:17:24.094Z</time></trkpt><trkpt lat="36.9036865" lon="-1.4275428"><ele>0.0</ele><time>2026-04-29T11:17:25.095Z</time></trkpt><trkpt lat="36.903743" lon="-1.4274587"><ele>0.0</ele><time>2026-04-29T11:17:26.095Z</time></trkpt><trkpt lat="36.9037957" lon="-1.4273781"><ele>0.0</ele><time>2026-04-29T11:17:27.095Z</time></trkpt><trkpt lat="36.903846" lon="-1.4272923"><ele>0.0</ele><time>2026-04-29T11:17:28.094Z</time></trkpt><trkpt lat="36.9038985" lon="-1.4272072"><ele>0.0</ele><time>2026-04-29T11:17:29.094Z</time></trkpt><trkpt lat="36.9039533" lon="-1.4271265"><ele>0.0</ele><time>2026-04-29T11:17:30.095Z</time></trkpt><trkpt lat="36.9040098" lon="-1.4270438"><ele>0.0</ele><time>2026-04-29T11:17:31.094Z</time></trkpt><trkpt lat="36.904071" lon="-1.4269663"><ele>0.0</ele><time>2026-04-29T11:17:32.095Z</time></trkpt><trkpt lat="36.9041211" lon="-1.426889"><ele>0.0</ele><time>2026-04-29T11:17:33.095Z</time></trkpt><trkpt lat="36.9041782" lon="-1.4268068"><ele>0.0</ele><time>2026-04-29T11:17:34.095Z</time></trkpt><trkpt lat="36.9042279" lon="-1.4267289"><ele>0.0</ele><time>2026-04-29T11:17:35.094Z</time></trkpt><trkpt lat="36.9043385" lon="-1.4265702"><ele>0.0</ele><time>2026-04-29T11:17:37.095Z</time></trkpt><trkpt lat="36.9043934" lon="-1.426484"><ele>0.0</ele><time>2026-04-29T11:17:38.095Z</time></trkpt><trkpt lat="36.9044469" lon="-1.426399"><ele>0.0</ele><time>2026-04-29T11:17:39.094Z</time></trkpt><trkpt lat="36.9045063" lon="-1.4263129"><ele>0.0</ele><time>2026-04-29T11:17:40.095Z</time></trkpt><trkpt lat="36.9045646" lon="-1.4262303"><ele>0.0</ele><time>2026-04-29T11:17:41.094Z</time></trkpt><trkpt lat="36.904621" lon="-1.4261466"><ele>0.0</ele><time>2026-04-29T11:17:42.094Z</time></trkpt><trkpt lat="36.9046778" lon="-1.4260679"><ele>0.0</ele><time>2026-04-29T11:17:43.095Z</time></trkpt><trkpt lat="36.9047363" lon="-1.4259814"><ele>0.0</ele><time>2026-04-29T11:17:44.095Z</time></trkpt><trkpt lat="36.9048" lon="-1.4259028"><ele>0.0</ele><time>2026-04-29T11:17:45.095Z</time></trkpt><trkpt lat="36.9048578" lon="-1.4258228"><ele>0.0</ele><time>2026-04-29T11:17:46.095Z</time></trkpt><trkpt lat="36.9049132" lon="-1.4257444"><ele>0.0</ele><time>2026-04-29T11:17:47.095Z</time></trkpt><trkpt lat="36.9049683" lon="-1.4256618"><ele>0.0</ele><time>2026-04-29T11:17:48.094Z</time></trkpt><trkpt lat="36.905025" lon="-1.4255828"><ele>0.0</ele><time>2026-04-29T11:17:49.095Z</time></trkpt><trkpt lat="36.9050817" lon="-1.4255016"><ele>0.0</ele><time>2026-04-29T11:17:50.094Z</time></trkpt><trkpt lat="36.9051382" lon="-1.4254229"><ele>0.0</ele><time>2026-04-29T11:17:51.094Z</time></trkpt><trkpt lat="36.9051921" lon="-1.4253389"><ele>0.0</ele><time>2026-04-29T11:17:52.095Z</time></trkpt><trkpt lat="36.9052409" lon="-1.425251"><ele>0.0</ele><time>2026-04-29T11:17:53.095Z</time></trkpt><trkpt lat="36.9052921" lon="-1.4251627"><ele>0.0</ele><time>2026-04-29T11:17:54.095Z</time></trkpt><trkpt lat="36.9053437" lon="-1.4250753"><ele>0.0</ele><time>2026-04-29T11:17:55.094Z</time></trkpt><trkpt lat="36.9053927" lon="-1.4249945"><ele>0.0</ele><time>2026-04-29T11:17:56.094Z</time></trkpt><trkpt lat="36.9054925" lon="-1.4248285"><ele>0.0</ele><time>2026-04-29T11:17:58.095Z</time></trkpt><trkpt lat="36.9055437" lon="-1.4247432"><ele>0.0</ele><time>2026-04-29T11:17:59.094Z</time></trkpt><trkpt lat="36.9055979" lon="-1.4246581"><ele>0.0</ele><time>2026-04-29T11:18:00.094Z</time></trkpt><trkpt lat="36.9056542" lon="-1.4245792"><ele>0.0</ele><time>2026-04-29T11:18:01.094Z</time></trkpt><trkpt lat="36.9057096" lon="-1.4245018"><ele>0.0</ele><time>2026-04-29T11:18:02.094Z</time></trkpt><trkpt lat="36.9057631" lon="-1.4244196"><ele>0.0</ele><time>2026-04-29T11:18:03.094Z</time></trkpt><trkpt lat="36.9058181" lon="-1.4243337"><ele>0.0</ele><time>2026-04-29T11:18:04.094Z</time></trkpt><trkpt lat="36.9058689" lon="-1.4242473"><ele>0.0</ele><time>2026-04-29T11:18:05.094Z</time></trkpt><trkpt lat="36.9059231" lon="-1.4241562"><ele>0.0</ele><time>2026-04-29T11:18:06.095Z</time></trkpt><trkpt lat="36.905978" lon="-1.4240687"><ele>0.0</ele><time>2026-04-29T11:18:07.094Z</time></trkpt><trkpt lat="36.9060348" lon="-1.4239921"><ele>0.0</ele><time>2026-04-29T11:18:08.094Z</time></trkpt><trkpt lat="36.9060915" lon="-1.4239141"><ele>0.0</ele><time>2026-04-29T11:18:09.094Z</time></trkpt><trkpt lat="36.9061452" lon="-1.4238346"><ele>0.0</ele><time>2026-04-29T11:18:10.094Z</time></trkpt><trkpt lat="36.906192" lon="-1.4237521"><ele>0.0</ele><time>2026-04-29T11:18:11.095Z</time></trkpt><trkpt lat="36.9062396" lon="-1.4236674"><ele>0.0</ele><time>2026-04-29T11:18:12.094Z</time></trkpt><trkpt lat="36.906292" lon="-1.4235881"><ele>0.0</ele><time>2026-04-29T11:18:13.095Z</time></trkpt><trkpt lat="36.9063425" lon="-1.4234996"><ele>0.0</ele><time>2026-04-29T11:18:14.095Z</time></trkpt><trkpt lat="36.9063978" lon="-1.4234165"><ele>0.0</ele><time>2026-04-29T11:18:15.094Z</time></trkpt><trkpt lat="36.9064558" lon="-1.4233336"><ele>0.0</ele><time>2026-04-29T11:18:16.094Z</time></trkpt><trkpt lat="36.9065043" lon="-1.4232532"><ele>0.0</ele><time>2026-04-29T11:18:17.095Z</time></trkpt><trkpt lat="36.9066119" lon="-1.4230828"><ele>0.0</ele><time>2026-04-29T11:18:19.094Z</time></trkpt><trkpt lat="36.9066638" lon="-1.4230016"><ele>0.0</ele><time>2026-04-29T11:18:20.095Z</time></trkpt><trkpt lat="36.90672" lon="-1.4229201"><ele>0.0</ele><time>2026-04-29T11:18:21.094Z</time></trkpt><trkpt lat="36.9067763" lon="-1.4228395"><ele>0.0</ele><time>2026-04-29T11:18:22.094Z</time></trkpt><trkpt lat="36.9068388" lon="-1.4227612"><ele>0.0</ele><time>2026-04-29T11:18:23.094Z</time></trkpt><trkpt lat="36.9068963" lon="-1.422677"><ele>0.0</ele><time>2026-04-29T11:18:24.094Z</time></trkpt><trkpt lat="36.9069515" lon="-1.4225906"><ele>0.0</ele><time>2026-04-29T11:18:25.094Z</time></trkpt><trkpt lat="36.9070095" lon="-1.4225028"><ele>0.0</ele><time>2026-04-29T11:18:26.094Z</time></trkpt><trkpt lat="36.907069" lon="-1.422417"><ele>0.0</ele><time>2026-04-29T11:18:27.094Z</time></trkpt><trkpt lat="36.9071237" lon="-1.4223393"><ele>0.0</ele><time>2026-04-29T11:18:28.094Z</time></trkpt><trkpt lat="36.9071769" lon="-1.4222659"><ele>0.0</ele><time>2026-04-29T11:18:29.094Z</time></trkpt><trkpt lat="36.9072303" lon="-1.4221863"><ele>0.0</ele><time>2026-04-29T11:18:30.094Z</time></trkpt><trkpt lat="36.9072804" lon="-1.4221004"><ele>0.0</ele><time>2026-04-29T11:18:31.095Z</time></trkpt><trkpt lat="36.9073322" lon="-1.4220166"><ele>0.0</ele><time>2026-04-29T11:18:32.095Z</time></trkpt><trkpt lat="36.9073807" lon="-1.4219357"><ele>0.0</ele><time>2026-04-29T11:18:33.094Z</time></trkpt><trkpt lat="36.9074352" lon="-1.4218546"><ele>0.0</ele><time>2026-04-29T11:18:34.095Z</time></trkpt><trkpt lat="36.90749" lon="-1.421769"><ele>0.0</ele><time>2026-04-29T11:18:35.094Z</time></trkpt><trkpt lat="36.9075432" lon="-1.4216864"><ele>0.0</ele><time>2026-04-29T11:18:36.095Z</time></trkpt><trkpt lat="36.9075952" lon="-1.421596"><ele>0.0</ele><time>2026-04-29T11:18:37.095Z</time></trkpt><trkpt lat="36.9076456" lon="-1.4215165"><ele>0.0</ele><time>2026-04-29T11:18:38.095Z</time></trkpt><trkpt lat="36.9077458" lon="-1.4213435"><ele>0.0</ele><time>2026-04-29T11:18:40.095Z</time></trkpt><trkpt lat="36.9077942" lon="-1.4212574"><ele>0.0</ele><time>2026-04-29T11:18:41.094Z</time></trkpt><trkpt lat="36.907848" lon="-1.4211706"><ele>0.0</ele><time>2026-04-29T11:18:42.095Z</time></trkpt><trkpt lat="36.9079073" lon="-1.4210868"><ele>0.0</ele><time>2026-04-29T11:18:43.094Z</time></trkpt><trkpt lat="36.9079628" lon="-1.4210064"><ele>0.0</ele><time>2026-04-29T11:18:44.094Z</time></trkpt><trkpt lat="36.9080169" lon="-1.4209221"><ele>0.0</ele><time>2026-04-29T11:18:45.094Z</time></trkpt><trkpt lat="36.9080716" lon="-1.4208313"><ele>0.0</ele><time>2026-04-29T11:18:46.094Z</time></trkpt><trkpt lat="36.908121" lon="-1.4207397"><ele>0.0</ele><time>2026-04-29T11:18:47.094Z</time></trkpt><trkpt lat="36.9081732" lon="-1.4206563"><ele>0.0</ele><time>2026-04-29T11:18:48.095Z</time></trkpt><trkpt lat="36.9082285" lon="-1.4205723"><ele>0.0</ele><time>2026-04-29T11:18:49.094Z</time></trkpt><trkpt lat="36.9082834" lon="-1.4204847"><ele>0.0</ele><time>2026-04-29T11:18:50.094Z</time></trkpt><trkpt lat="36.9083372" lon="-1.4203959"><ele>0.0</ele><time>2026-04-29T11:18:51.094Z</time></trkpt><trkpt lat="36.9083888" lon="-1.420316"><ele>0.0</ele><time>2026-04-29T11:18:52.095Z</time></trkpt><trkpt lat="36.908439" lon="-1.420229"><ele>0.0</ele><time>2026-04-29T11:18:53.095Z</time></trkpt><trkpt lat="36.9084974" lon="-1.4201521"><ele>0.0</ele><time>2026-04-29T11:18:54.094Z</time></trkpt><trkpt lat="36.908557" lon="-1.4200739"><ele>0.0</ele><time>2026-04-29T11:18:55.094Z</time></trkpt><trkpt lat="36.9086132" lon="-1.4199962"><ele>0.0</ele><time>2026-04-29T11:18:56.094Z</time></trkpt><trkpt lat="36.9086667" lon="-1.4199148"><ele>0.0</ele><time>2026-04-29T11:18:57.094Z</time></trkpt><trkpt lat="36.9087243" lon="-1.4198414"><ele>0.0</ele><time>2026-04-29T11:18:58.095Z</time></trkpt><trkpt lat="36.9087801" lon="-1.4197573"><ele>0.0</ele><time>2026-04-29T11:18:59.095Z</time></trkpt><trkpt lat="36.9088928" lon="-1.4195897"><ele>0.0</ele><time>2026-04-29T11:19:01.094Z</time></trkpt><trkpt lat="36.9089499" lon="-1.4195097"><ele>0.0</ele><time>2026-04-29T11:19:02.095Z</time></trkpt><trkpt lat="36.9090037" lon="-1.4194295"><ele>0.0</ele><time>2026-04-29T11:19:03.095Z</time></trkpt><trkpt lat="36.9090613" lon="-1.4193472"><ele>0.0</ele><time>2026-04-29T11:19:04.095Z</time></trkpt><trkpt lat="36.9091168" lon="-1.4192609"><ele>0.0</ele><time>2026-04-29T11:19:05.094Z</time></trkpt><trkpt lat="36.9091661" lon="-1.4191769"><ele>0.0</ele><time>2026-04-29T11:19:06.095Z</time></trkpt><trkpt lat="36.9092174" lon="-1.4190893"><ele>0.0</ele><time>2026-04-29T11:19:07.095Z</time></trkpt><trkpt lat="36.9092687" lon="-1.4189982"><ele>0.0</ele><time>2026-04-29T11:19:08.094Z</time></trkpt><trkpt lat="36.9093177" lon="-1.4189121"><ele>0.0</ele><time>2026-04-29T11:19:09.094Z</time></trkpt><trkpt lat="36.9093747" lon="-1.4188337"><ele>0.0</ele><time>2026-04-29T11:19:10.094Z</time></trkpt><trkpt lat="36.9094301" lon="-1.4187533"><ele>0.0</ele><time>2026-04-29T11:19:11.094Z</time></trkpt><trkpt lat="36.9094863" lon="-1.41867"><ele>0.0</ele><time>2026-04-29T11:19:12.094Z</time></trkpt><trkpt lat="36.9095443" lon="-1.4185908"><ele>0.0</ele><time>2026-04-29T11:19:13.094Z</time></trkpt><trkpt lat="36.9095997" lon="-1.4185125"><ele>0.0</ele><time>2026-04-29T11:19:14.094Z</time></trkpt><trkpt lat="36.9096521" lon="-1.4184316"><ele>0.0</ele><time>2026-04-29T11:19:15.094Z</time></trkpt><trkpt lat="36.9097077" lon="-1.4183529"><ele>0.0</ele><time>2026-04-29T11:19:16.095Z</time></trkpt><trkpt lat="36.9097689" lon="-1.4182732"><ele>0.0</ele><time>2026-04-29T11:19:17.094Z</time></trkpt><trkpt lat="36.9098277" lon="-1.4181886"><ele>0.0</ele><time>2026-04-29T11:19:18.095Z</time></trkpt><trkpt lat="36.9098834" lon="-1.4181039"><ele>0.0</ele><time>2026-04-29T11:19:19.095Z</time></trkpt><trkpt lat="36.9099978" lon="-1.417929"><ele>0.0</ele><time>2026-04-29T11:19:21.095Z</time></trkpt><trkpt lat="36.9100532" lon="-1.4178467"><ele>0.0</ele><time>2026-04-29T11:19:22.094Z</time></trkpt><trkpt lat="36.9101111" lon="-1.4177716"><ele>0.0</ele><time>2026-04-29T11:19:23.094Z</time></trkpt><trkpt lat="36.9101663" lon="-1.4176956"><ele>0.0</ele><time>2026-04-29T11:19:24.094Z</time></trkpt><trkpt lat="36.9102201" lon="-1.4176168"><ele>0.0</ele><time>2026-04-29T11:19:25.094Z</time></trkpt><trkpt lat="36.9102722" lon="-1.4175378"><ele>0.0</ele><time>2026-04-29T11:19:26.094Z</time></trkpt><trkpt lat="36.9103158" lon="-1.4174583"><ele>0.0</ele><time>2026-04-29T11:19:27.094Z</time></trkpt><trkpt lat="36.910366" lon="-1.4173769"><ele>0.0</ele><time>2026-04-29T11:19:28.094Z</time></trkpt><trkpt lat="36.9104159" lon="-1.4172909"><ele>0.0</ele><time>2026-04-29T11:19:29.095Z</time></trkpt><trkpt lat="36.9104673" lon="-1.4172001"><ele>0.0</ele><time>2026-04-29T11:19:30.095Z</time></trkpt><trkpt lat="36.910519" lon="-1.4171073"><ele>0.0</ele><time>2026-04-29T11:19:31.094Z</time></trkpt><trkpt lat="36.9105731" lon="-1.4170236"><ele>0.0</ele><time>2026-04-29T11:19:32.095Z</time></trkpt><trkpt lat="36.9106294" lon="-1.4169398"><ele>0.0</ele><time>2026-04-29T11:19:33.094Z</time></trkpt><trkpt lat="36.9106851" lon="-1.416856"><ele>0.0</ele><time>2026-04-29T11:19:34.094Z</time></trkpt><trkpt lat="36.9107413" lon="-1.4167718"><ele>0.0</ele><time>2026-04-29T11:19:35.094Z</time></trkpt><trkpt lat="36.9108011" lon="-1.4166816"><ele>0.0</ele><time>2026-04-29T11:19:36.094Z</time></trkpt><trkpt lat="36.9108579" lon="-1.4166"><ele>0.0</ele><time>2026-04-29T11:19:37.094Z</time></trkpt><trkpt lat="36.9109203" lon="-1.4165212"><ele>0.0</ele><time>2026-04-29T11:19:38.094Z</time></trkpt><trkpt lat="36.9109765" lon="-1.416444"><ele>0.0</ele><time>2026-04-29T11:19:39.094Z</time></trkpt><trkpt lat="36.9110317" lon="-1.4163617"><ele>0.0</ele><time>2026-04-29T11:19:40.095Z</time></trkpt><trkpt lat="36.9111509" lon="-1.4162015"><ele>0.0</ele><time>2026-04-29T11:19:42.094Z</time></trkpt><trkpt lat="36.9112051" lon="-1.4161153"><ele>0.0</ele><time>2026-04-29T11:19:43.095Z</time></trkpt><trkpt lat="36.911253" lon="-1.4160319"><ele>0.0</ele><time>2026-04-29T11:19:44.094Z</time></trkpt><trkpt lat="36.9113056" lon="-1.4159471"><ele>0.0</ele><time>2026-04-29T11:19:45.095Z</time></trkpt><trkpt lat="36.9113584" lon="-1.415865"><ele>0.0</ele><time>2026-04-29T11:19:46.094Z</time></trkpt><trkpt lat="36.9114092" lon="-1.4157874"><ele>0.0</ele><time>2026-04-29T11:19:47.095Z</time></trkpt><trkpt lat="36.9114562" lon="-1.4157021"><ele>0.0</ele><time>2026-04-29T11:19:48.094Z</time></trkpt><trkpt lat="36.9115086" lon="-1.415617"><ele>0.0</ele><time>2026-04-29T11:19:49.094Z</time></trkpt><trkpt lat="36.9115589" lon="-1.4155334"><ele>0.0</ele><time>2026-04-29T11:19:50.095Z</time></trkpt><trkpt lat="36.9116133" lon="-1.4154527"><ele>0.0</ele><time>2026-04-29T11:19:51.094Z</time></trkpt><trkpt lat="36.911668" lon="-1.4153711"><ele>0.0</ele><time>2026-04-29T11:19:52.095Z</time></trkpt><trkpt lat="36.9117245" lon="-1.4152929"><ele>0.0</ele><time>2026-04-29T11:19:53.095Z</time></trkpt><trkpt lat="36.9117854" lon="-1.4152115"><ele>0.0</ele><time>2026-04-29T11:19:54.095Z</time></trkpt><trkpt lat="36.9118416" lon="-1.4151287"><ele>0.0</ele><time>2026-04-29T11:19:55.094Z</time></trkpt><trkpt lat="36.9118952" lon="-1.4150397"><ele>0.0</ele><time>2026-04-29T11:19:56.094Z</time></trkpt><trkpt lat="36.9119469" lon="-1.4149522"><ele>0.0</ele><time>2026-04-29T11:19:57.094Z</time></trkpt><trkpt lat="36.9120017" lon="-1.4148715"><ele>0.0</ele><time>2026-04-29T11:19:58.094Z</time></trkpt><trkpt lat="36.9120492" lon="-1.4147896"><ele>0.0</ele><time>2026-04-29T11:19:59.095Z</time></trkpt><trkpt lat="36.9121005" lon="-1.4146999"><ele>0.0</ele><time>2026-04-29T11:20:00.095Z</time></trkpt><trkpt lat="36.9121505" lon="-1.4146193"><ele>0.0</ele><time>2026-04-29T11:20:01.094Z</time></trkpt><trkpt lat="36.9122596" lon="-1.4144547"><ele>0.0</ele><time>2026-04-29T11:20:03.095Z</time></trkpt><trkpt lat="36.9123107" lon="-1.4143677"><ele>0.0</ele><time>2026-04-29T11:20:04.094Z</time></trkpt><trkpt lat="36.9123662" lon="-1.414282"><ele>0.0</ele><time>2026-04-29T11:20:05.094Z</time></trkpt><trkpt lat="36.9124156" lon="-1.4142011"><ele>0.0</ele><time>2026-04-29T11:20:06.094Z</time></trkpt><trkpt lat="36.9124712" lon="-1.4141208"><ele>0.0</ele><time>2026-04-29T11:20:07.094Z</time></trkpt><trkpt lat="36.9125252" lon="-1.4140336"><ele>0.0</ele><time>2026-04-29T11:20:08.095Z</time></trkpt><trkpt lat="36.91258" lon="-1.4139499"><ele>0.0</ele><time>2026-04-29T11:20:09.095Z</time></trkpt><trkpt lat="36.9126307" lon="-1.4138609"><ele>0.0</ele><time>2026-04-29T11:20:10.095Z</time></trkpt><trkpt lat="36.9126874" lon="-1.4137797"><ele>0.0</ele><time>2026-04-29T11:20:11.095Z</time></trkpt><trkpt lat="36.9127505" lon="-1.4136983"><ele>0.0</ele><time>2026-04-29T11:20:12.094Z</time></trkpt><trkpt lat="36.9128076" lon="-1.4136179"><ele>0.0</ele><time>2026-04-29T11:20:13.094Z</time></trkpt><trkpt lat="36.9128574" lon="-1.4135364"><ele>0.0</ele><time>2026-04-29T11:20:14.094Z</time></trkpt><trkpt lat="36.912907" lon="-1.4134586"><ele>0.0</ele><time>2026-04-29T11:20:15.094Z</time></trkpt><trkpt lat="36.9129572" lon="-1.4133848"><ele>0.0</ele><time>2026-04-29T11:20:16.094Z</time></trkpt><trkpt lat="36.9130129" lon="-1.4133017"><ele>0.0</ele><time>2026-04-29T11:20:17.095Z</time></trkpt><trkpt lat="36.9130682" lon="-1.4132112"><ele>0.0</ele><time>2026-04-29T11:20:18.094Z</time></trkpt><trkpt lat="36.9131304" lon="-1.4131266"><ele>0.0</ele><time>2026-04-29T11:20:19.095Z</time></trkpt><trkpt lat="36.9131951" lon="-1.4130447"><ele>0.0</ele><time>2026-04-29T11:20:20.094Z</time></trkpt><trkpt lat="36.9132558" lon="-1.412956"><ele>0.0</ele><time>2026-04-29T11:20:21.095Z</time></trkpt><trkpt lat="36.9133115" lon="-1.4128772"><ele>0.0</ele><time>2026-04-29T11:20:22.094Z</time></trkpt><trkpt lat="36.9134263" lon="-1.4127168"><ele>0.0</ele><time>2026-04-29T11:20:24.094Z</time></trkpt><trkpt lat="36.9134824" lon="-1.4126409"><ele>0.0</ele><time>2026-04-29T11:20:25.094Z</time></trkpt><trkpt lat="36.9135327" lon="-1.4125596"><ele>0.0</ele><time>2026-04-29T11:20:26.095Z</time></trkpt><trkpt lat="36.9135839" lon="-1.4124694"><ele>0.0</ele><time>2026-04-29T11:20:27.094Z</time></trkpt><trkpt lat="36.9136355" lon="-1.4123794"><ele>0.0</ele><time>2026-04-29T11:20:28.094Z</time></trkpt><trkpt lat="36.9136902" lon="-1.4122925"><ele>0.0</ele><time>2026-04-29T11:20:29.095Z</time></trkpt><trkpt lat="36.9137479" lon="-1.4122166"><ele>0.0</ele><time>2026-04-29T11:20:30.094Z</time></trkpt><trkpt lat="36.9138047" lon="-1.4121335"><ele>0.0</ele><time>2026-04-29T11:20:31.094Z</time></trkpt><trkpt lat="36.9138572" lon="-1.4120487"><ele>0.0</ele><time>2026-04-29T11:20:32.094Z</time></trkpt><trkpt lat="36.9139145" lon="-1.4119608"><ele>0.0</ele><time>2026-04-29T11:20:33.095Z</time></trkpt><trkpt lat="36.913971" lon="-1.4118766"><ele>0.0</ele><time>2026-04-29T11:20:34.094Z</time></trkpt><trkpt lat="36.9140277" lon="-1.4117893"><ele>0.0</ele><time>2026-04-29T11:20:35.095Z</time></trkpt><trkpt lat="36.9140789" lon="-1.4117069"><ele>0.0</ele><time>2026-04-29T11:20:36.094Z</time></trkpt><trkpt lat="36.9141309" lon="-1.4116226"><ele>0.0</ele><time>2026-04-29T11:20:37.095Z</time></trkpt><trkpt lat="36.9141795" lon="-1.4115429"><ele>0.0</ele><time>2026-04-29T11:20:38.094Z</time></trkpt><trkpt lat="36.9142349" lon="-1.4114583"><ele>0.0</ele><time>2026-04-29T11:20:39.094Z</time></trkpt><trkpt lat="36.9142885" lon="-1.4113763"><ele>0.0</ele><time>2026-04-29T11:20:40.095Z</time></trkpt><trkpt lat="36.9143464" lon="-1.4112974"><ele>0.0</ele><time>2026-04-29T11:20:41.094Z</time></trkpt><trkpt lat="36.9144033" lon="-1.4112221"><ele>0.0</ele><time>2026-04-29T11:20:42.094Z</time></trkpt><trkpt lat="36.9144586" lon="-1.4111373"><ele>0.0</ele><time>2026-04-29T11:20:43.095Z</time></trkpt><trkpt lat="36.9145689" lon="-1.4109628"><ele>0.0</ele><time>2026-04-29T11:20:45.094Z</time></trkpt><trkpt lat="36.9146211" lon="-1.4108719"><ele>0.0</ele><time>2026-04-29T11:20:46.094Z</time></trkpt><trkpt lat="36.914678" lon="-1.4107867"><ele>0.0</ele><time>2026-04-29T11:20:47.094Z</time></trkpt><trkpt lat="36.9147363" lon="-1.4107005"><ele>0.0</ele><time>2026-04-29T11:20:48.094Z</time></trkpt><trkpt lat="36.9147906" lon="-1.4106211"><ele>0.0</ele><time>2026-04-29T11:20:49.094Z</time></trkpt><trkpt lat="36.9148453" lon="-1.4105484"><ele>0.0</ele><time>2026-04-29T11:20:50.095Z</time></trkpt><trkpt lat="36.9149058" lon="-1.410474"><ele>0.0</ele><time>2026-04-29T11:20:51.094Z</time></trkpt><trkpt lat="36.9149646" lon="-1.4103904"><ele>0.0</ele><time>2026-04-29T11:20:52.094Z</time></trkpt><trkpt lat="36.9150142" lon="-1.410308"><ele>0.0</ele><time>2026-04-29T11:20:53.095Z</time></trkpt><trkpt lat="36.9150643" lon="-1.4102265"><ele>0.0</ele><time>2026-04-29T11:20:54.094Z</time></trkpt><trkpt lat="36.915117" lon="-1.4101446"><ele>0.0</ele><time>2026-04-29T11:20:55.095Z</time></trkpt><trkpt lat="36.9151732" lon="-1.4100592"><ele>0.0</ele><time>2026-04-29T11:20:56.094Z</time></trkpt><trkpt lat="36.9152298" lon="-1.4099725"><ele>0.0</ele><time>2026-04-29T11:20:57.095Z</time></trkpt><trkpt lat="36.9152853" lon="-1.4098961"><ele>0.0</ele><time>2026-04-29T11:20:58.094Z</time></trkpt><trkpt lat="36.9153458" lon="-1.409812"><ele>0.0</ele><time>2026-04-29T11:20:59.094Z</time></trkpt><trkpt lat="36.915403" lon="-1.4097271"><ele>0.0</ele><time>2026-04-29T11:21:00.095Z</time></trkpt><trkpt lat="36.9154612" lon="-1.4096421"><ele>0.0</ele><time>2026-04-29T11:21:01.094Z</time></trkpt><trkpt lat="36.9155108" lon="-1.4095612"><ele>0.0</ele><time>2026-04-29T11:21:02.094Z</time></trkpt><trkpt lat="36.9155626" lon="-1.4094809"><ele>0.0</ele><time>2026-04-29T11:21:03.095Z</time></trkpt><trkpt lat="36.9156198" lon="-1.4093953"><ele>0.0</ele><time>2026-04-29T11:21:04.094Z</time></trkpt><trkpt lat="36.9157334" lon="-1.4092351"><ele>0.0</ele><time>2026-04-29T11:21:06.094Z</time></trkpt><trkpt lat="36.9157845" lon="-1.4091522"><ele>0.0</ele><time>2026-04-29T11:21:07.094Z</time></trkpt><trkpt lat="36.9158316" lon="-1.4090699"><ele>0.0</ele><time>2026-04-29T11:21:08.095Z</time></trkpt><trkpt lat="36.9158826" lon="-1.4089838"><ele>0.0</ele><time>2026-04-29T11:21:09.095Z</time></trkpt><trkpt lat="36.9159352" lon="-1.408897"><ele>0.0</ele><time>2026-04-29T11:21:10.094Z</time></trkpt><trkpt lat="36.9159912" lon="-1.4088205"><ele>0.0</ele><time>2026-04-29T11:21:11.094Z</time></trkpt><trkpt lat="36.9160523" lon="-1.4087368"><ele>0.0</ele><time>2026-04-29T11:21:12.094Z</time></trkpt><trkpt lat="36.916107" lon="-1.408649"><ele>0.0</ele><time>2026-04-29T11:21:13.095Z</time></trkpt><trkpt lat="36.9161604" lon="-1.4085606"><ele>0.0</ele><time>2026-04-29T11:21:14.094Z</time></trkpt><trkpt lat="36.9162108" lon="-1.4084752"><ele>0.0</ele><time>2026-04-29T11:21:15.095Z</time></trkpt><trkpt lat="36.9162621" lon="-1.4083989"><ele>0.0</ele><time>2026-04-29T11:21:16.094Z</time></trkpt><trkpt lat="36.9163156" lon="-1.4083181"><ele>0.0</ele><time>2026-04-29T11:21:17.094Z</time></trkpt><trkpt lat="36.9163706" lon="-1.408234"><ele>0.0</ele><time>2026-04-29T11:21:18.095Z</time></trkpt><trkpt lat="36.9164252" lon="-1.4081463"><ele>0.0</ele><time>2026-04-29T11:21:19.095Z</time></trkpt><trkpt lat="36.9164884" lon="-1.4080631"><ele>0.0</ele><time>2026-04-29T11:21:20.094Z</time></trkpt><trkpt lat="36.9165489" lon="-1.4079841"><ele>0.0</ele><time>2026-04-29T11:21:21.095Z</time></trkpt><trkpt lat="36.9166074" lon="-1.4078987"><ele>0.0</ele><time>2026-04-29T11:21:22.095Z</time></trkpt><trkpt lat="36.9166601" lon="-1.4078162"><ele>0.0</ele><time>2026-04-29T11:21:23.094Z</time></trkpt><trkpt lat="36.9167164" lon="-1.4077359"><ele>0.0</ele><time>2026-04-29T11:21:24.095Z</time></trkpt><trkpt lat="36.9167644" lon="-1.4076519"><ele>0.0</ele><time>2026-04-29T11:21:25.094Z</time></trkpt><trkpt lat="36.9168716" lon="-1.4074804"><ele>0.0</ele><time>2026-04-29T11:21:27.095Z</time></trkpt><trkpt lat="36.916928" lon="-1.407391"><ele>0.0</ele><time>2026-04-29T11:21:28.094Z</time></trkpt><trkpt lat="36.9169833" lon="-1.4073023"><ele>0.0</ele><time>2026-04-29T11:21:29.095Z</time></trkpt><trkpt lat="36.9170465" lon="-1.4072237"><ele>0.0</ele><time>2026-04-29T11:21:30.094Z</time></trkpt><trkpt lat="36.9171028" lon="-1.4071443"><ele>0.0</ele><time>2026-04-29T11:21:31.094Z</time></trkpt><trkpt lat="36.9171552" lon="-1.4070672"><ele>0.0</ele><time>2026-04-29T11:21:32.095Z</time></trkpt><trkpt lat="36.9172128" lon="-1.4069873"><ele>0.0</ele><time>2026-04-29T11:21:33.094Z</time></trkpt><trkpt lat="36.9172684" lon="-1.4069033"><ele>0.0</ele><time>2026-04-29T11:21:34.095Z</time></trkpt><trkpt lat="36.9173248" lon="-1.4068155"><ele>0.0</ele><time>2026-04-29T11:21:35.094Z</time></trkpt><trkpt lat="36.9173701" lon="-1.4067258"><ele>0.0</ele><time>2026-04-29T11:21:36.094Z</time></trkpt><trkpt lat="36.9174236" lon="-1.4066472"><ele>0.0</ele><time>2026-04-29T11:21:37.095Z</time></trkpt><trkpt lat="36.9174758" lon="-1.406564"><ele>0.0</ele><time>2026-04-29T11:21:38.094Z</time></trkpt><trkpt lat="36.9175289" lon="-1.4064814"><ele>0.0</ele><time>2026-04-29T11:21:39.095Z</time></trkpt><trkpt lat="36.9175834" lon="-1.4064041"><ele>0.0</ele><time>2026-04-29T11:21:40.095Z</time></trkpt><trkpt lat="36.9176426" lon="-1.4063217"><ele>0.0</ele><time>2026-04-29T11:21:41.095Z</time></trkpt><trkpt lat="36.917704" lon="-1.4062317"><ele>0.0</ele><time>2026-04-29T11:21:42.095Z</time></trkpt><trkpt lat="36.917756" lon="-1.4061461"><ele>0.0</ele><time>2026-04-29T11:21:43.094Z</time></trkpt><trkpt lat="36.9178101" lon="-1.4060631"><ele>0.0</ele><time>2026-04-29T11:21:44.094Z</time></trkpt><trkpt lat="36.9178593" lon="-1.4059784"><ele>0.0</ele><time>2026-04-29T11:21:45.094Z</time></trkpt><trkpt lat="36.9179148" lon="-1.4059005"><ele>0.0</ele><time>2026-04-29T11:21:46.094Z</time></trkpt><trkpt lat="36.918036" lon="-1.4057259"><ele>0.0</ele><time>2026-04-29T11:21:48.094Z</time></trkpt><trkpt lat="36.9180874" lon="-1.4056434"><ele>0.0</ele><time>2026-04-29T11:21:49.094Z</time></trkpt><trkpt lat="36.9181349" lon="-1.4055561"><ele>0.0</ele><time>2026-04-29T11:21:50.094Z</time></trkpt><trkpt lat="36.9181899" lon="-1.4054732"><ele>0.0</ele><time>2026-04-29T11:21:51.095Z</time></trkpt><trkpt lat="36.918247" lon="-1.4053987"><ele>0.0</ele><time>2026-04-29T11:21:52.095Z</time></trkpt><trkpt lat="36.9183049" lon="-1.4053124"><ele>0.0</ele><time>2026-04-29T11:21:53.095Z</time></trkpt><trkpt lat="36.9183616" lon="-1.4052283"><ele>0.0</ele><time>2026-04-29T11:21:54.094Z</time></trkpt><trkpt lat="36.9184256" lon="-1.4051478"><ele>0.0</ele><time>2026-04-29T11:21:55.095Z</time></trkpt><trkpt lat="36.9184861" lon="-1.4050636"><ele>0.0</ele><time>2026-04-29T11:21:56.095Z</time></trkpt><trkpt lat="36.9185475" lon="-1.4049816"><ele>0.0</ele><time>2026-04-29T11:21:57.095Z</time></trkpt><trkpt lat="36.9186046" lon="-1.4049009"><ele>0.0</ele><time>2026-04-29T11:21:58.095Z</time></trkpt><trkpt lat="36.9186573" lon="-1.4048154"><ele>0.0</ele><time>2026-04-29T11:21:59.095Z</time></trkpt><trkpt lat="36.9187118" lon="-1.4047301"><ele>0.0</ele><time>2026-04-29T11:22:00.095Z</time></trkpt><trkpt lat="36.9187654" lon="-1.4046378"><ele>0.0</ele><time>2026-04-29T11:22:01.095Z</time></trkpt><trkpt lat="36.9188174" lon="-1.4045502"><ele>0.0</ele><time>2026-04-29T11:22:02.095Z</time></trkpt><trkpt lat="36.9188759" lon="-1.404468"><ele>0.0</ele><time>2026-04-29T11:22:03.095Z</time></trkpt><trkpt lat="36.9189372" lon="-1.4043916"><ele>0.0</ele><time>2026-04-29T11:22:04.095Z</time></trkpt><trkpt lat="36.9189991" lon="-1.4043114"><ele>0.0</ele><time>2026-04-29T11:22:05.094Z</time></trkpt><trkpt lat="36.9190551" lon="-1.4042309"><ele>0.0</ele><time>2026-04-29T11:22:06.094Z</time></trkpt><trkpt lat="36.9191091" lon="-1.40415"><ele>0.0</ele><time>2026-04-29T11:22:07.094Z</time></trkpt><trkpt lat="36.9192093" lon="-1.4039813"><ele>0.0</ele><time>2026-04-29T11:22:09.094Z</time></trkpt><trkpt lat="36.9192636" lon="-1.4038982"><ele>0.0</ele><time>2026-04-29T11:22:10.095Z</time></trkpt><trkpt lat="36.9193176" lon="-1.4038166"><ele>0.0</ele><time>2026-04-29T11:22:11.095Z</time></trkpt><trkpt lat="36.9193734" lon="-1.4037346"><ele>0.0</ele><time>2026-04-29T11:22:12.095Z</time></trkpt><trkpt lat="36.9194241" lon="-1.403649"><ele>0.0</ele><time>2026-04-29T11:22:13.095Z</time></trkpt><trkpt lat="36.9194715" lon="-1.4035624"><ele>0.0</ele><time>2026-04-29T11:22:14.094Z</time></trkpt><trkpt lat="36.9195298" lon="-1.4034743"><ele>0.0</ele><time>2026-04-29T11:22:15.094Z</time></trkpt><trkpt lat="36.9195907" lon="-1.4033875"><ele>0.0</ele><time>2026-04-29T11:22:16.095Z</time></trkpt><trkpt lat="36.9196524" lon="-1.4033047"><ele>0.0</ele><time>2026-04-29T11:22:17.095Z</time></trkpt><trkpt lat="36.9197111" lon="-1.403226"><ele>0.0</ele><time>2026-04-29T11:22:18.095Z</time></trkpt><trkpt lat="36.9197665" lon="-1.4031446"><ele>0.0</ele><time>2026-04-29T11:22:19.095Z</time></trkpt><trkpt lat="36.9198247" lon="-1.4030559"><ele>0.0</ele><time>2026-04-29T11:22:20.094Z</time></trkpt><trkpt lat="36.919876" lon="-1.402965"><ele>0.0</ele><time>2026-04-29T11:22:21.095Z</time></trkpt><trkpt lat="36.9199317" lon="-1.4028859"><ele>0.0</ele><time>2026-04-29T11:22:22.094Z</time></trkpt><trkpt lat="36.9199826" lon="-1.4028088"><ele>0.0</ele><time>2026-04-29T11:22:23.095Z</time></trkpt><trkpt lat="36.9200298" lon="-1.4027294"><ele>0.0</ele><time>2026-04-29T11:22:24.094Z</time></trkpt><trkpt lat="36.9200808" lon="-1.4026426"><ele>0.0</ele><time>2026-04-29T11:22:25.095Z</time></trkpt><trkpt lat="36.9201325" lon="-1.4025542"><ele>0.0</ele><time>2026-04-29T11:22:26.095Z</time></trkpt><trkpt lat="36.9201869" lon="-1.4024642"><ele>0.0</ele><time>2026-04-29T11:22:27.094Z</time></trkpt><trkpt lat="36.9202458" lon="-1.4023786"><ele>0.0</ele><time>2026-04-29T11:22:28.095Z</time></trkpt><trkpt lat="36.9203615" lon="-1.4022123"><ele>0.0</ele><time>2026-04-29T11:22:30.095Z</time></trkpt><trkpt lat="36.9204071" lon="-1.4021216"><ele>0.0</ele><time>2026-04-29T11:22:31.094Z</time></trkpt><trkpt lat="36.9204604" lon="-1.4020413"><ele>0.0</ele><time>2026-04-29T11:22:32.094Z</time></trkpt><trkpt lat="36.920514" lon="-1.401957"><ele>0.0</ele><time>2026-04-29T11:22:33.095Z</time></trkpt><trkpt lat="36.9205701" lon="-1.4018733"><ele>0.0</ele><time>2026-04-29T11:22:34.095Z</time></trkpt><trkpt lat="36.9206267" lon="-1.4017927"><ele>0.0</ele><time>2026-04-29T11:22:35.094Z</time></trkpt><trkpt lat="36.9206802" lon="-1.4017087"><ele>0.0</ele><time>2026-04-29T11:22:36.095Z</time></trkpt><trkpt lat="36.9207392" lon="-1.4016196"><ele>0.0</ele><time>2026-04-29T11:22:37.095Z</time></trkpt><trkpt lat="36.9207974" lon="-1.4015363"><ele>0.0</ele><time>2026-04-29T11:22:38.095Z</time></trkpt><trkpt lat="36.9208587" lon="-1.401456"><ele>0.0</ele><time>2026-04-29T11:22:39.094Z</time></trkpt><trkpt lat="36.9209121" lon="-1.4013732"><ele>0.0</ele><time>2026-04-29T11:22:40.095Z</time></trkpt><trkpt lat="36.9209589" lon="-1.4012835"><ele>0.0</ele><time>2026-04-29T11:22:41.094Z</time></trkpt><trkpt lat="36.9210148" lon="-1.4012072"><ele>0.0</ele><time>2026-04-29T11:22:42.094Z</time></trkpt><trkpt lat="36.9210683" lon="-1.4011217"><ele>0.0</ele><time>2026-04-29T11:22:43.095Z</time></trkpt><trkpt lat="36.921123" lon="-1.4010394"><ele>0.0</ele><time>2026-04-29T11:22:44.095Z</time></trkpt><trkpt lat="36.9211806" lon="-1.400952"><ele>0.0</ele><time>2026-04-29T11:22:45.094Z</time></trkpt><trkpt lat="36.9212446" lon="-1.400872"><ele>0.0</ele><time>2026-04-29T11:22:46.094Z</time></trkpt><trkpt lat="36.9213083" lon="-1.4007953"><ele>0.0</ele><time>2026-04-29T11:22:47.095Z</time></trkpt><trkpt lat="36.9213703" lon="-1.4007172"><ele>0.0</ele><time>2026-04-29T11:22:48.094Z</time></trkpt><trkpt lat="36.9214334" lon="-1.4006332"><ele>0.0</ele><time>2026-04-29T11:22:49.095Z</time></trkpt><trkpt lat="36.9215329" lon="-1.4004531"><ele>0.0</ele><time>2026-04-29T11:22:51.094Z</time></trkpt><trkpt lat="36.9215811" lon="-1.4003713"><ele>0.0</ele><time>2026-04-29T11:22:52.095Z</time></trkpt><trkpt lat="36.9216351" lon="-1.4002886"><ele>0.0</ele><time>2026-04-29T11:22:53.094Z</time></trkpt><trkpt lat="36.9216855" lon="-1.4001978"><ele>0.0</ele><time>2026-04-29T11:22:54.094Z</time></trkpt><trkpt lat="36.9217371" lon="-1.4001103"><ele>0.0</ele><time>2026-04-29T11:22:55.095Z</time></trkpt><trkpt lat="36.9217819" lon="-1.4000181"><ele>0.0</ele><time>2026-04-29T11:22:56.095Z</time></trkpt><trkpt lat="36.9218323" lon="-1.399936"><ele>0.0</ele><time>2026-04-29T11:22:57.095Z</time></trkpt><trkpt lat="36.9218878" lon="-1.399846"><ele>0.0</ele><time>2026-04-29T11:22:58.095Z</time></trkpt><trkpt lat="36.9219393" lon="-1.399756"><ele>0.0</ele><time>2026-04-29T11:22:59.095Z</time></trkpt><trkpt lat="36.9219961" lon="-1.3996686"><ele>0.0</ele><time>2026-04-29T11:23:00.094Z</time></trkpt><trkpt lat="36.922046" lon="-1.3995895"><ele>0.0</ele><time>2026-04-29T11:23:01.095Z</time></trkpt><trkpt lat="36.9220958" lon="-1.3995037"><ele>0.0</ele><time>2026-04-29T11:23:02.094Z</time></trkpt><trkpt lat="36.922147" lon="-1.3994255"><ele>0.0</ele><time>2026-04-29T11:23:03.095Z</time></trkpt><trkpt lat="36.9222074" lon="-1.3993436"><ele>0.0</ele><time>2026-04-29T11:23:04.094Z</time></trkpt><trkpt lat="36.9222633" lon="-1.3992555"><ele>0.0</ele><time>2026-04-29T11:23:05.094Z</time></trkpt><trkpt lat="36.9223229" lon="-1.3991705"><ele>0.0</ele><time>2026-04-29T11:23:06.095Z</time></trkpt><trkpt lat="36.9223743" lon="-1.3990869"><ele>0.0</ele><time>2026-04-29T11:23:07.095Z</time></trkpt><trkpt lat="36.9224255" lon="-1.3989964"><ele>0.0</ele><time>2026-04-29T11:23:08.094Z</time></trkpt><trkpt lat="36.9224817" lon="-1.3989146"><ele>0.0</ele><time>2026-04-29T11:23:09.095Z</time></trkpt><trkpt lat="36.9225382" lon="-1.3988358"><ele>0.0</ele><time>2026-04-29T11:23:10.094Z</time></trkpt><trkpt lat="36.9226591" lon="-1.3986784"><ele>0.0</ele><time>2026-04-29T11:23:12.094Z</time></trkpt><trkpt lat="36.9227179" lon="-1.398591"><ele>0.0</ele><time>2026-04-29T11:23:13.094Z</time></trkpt><trkpt lat="36.9227735" lon="-1.3985024"><ele>0.0</ele><time>2026-04-29T11:23:14.094Z</time></trkpt><trkpt lat="36.9228272" lon="-1.3984145"><ele>0.0</ele><time>2026-04-29T11:23:15.094Z</time></trkpt><trkpt lat="36.9228751" lon="-1.3983317"><ele>0.0</ele><time>2026-04-29T11:23:16.094Z</time></trkpt><trkpt lat="36.9229274" lon="-1.398247"><ele>0.0</ele><time>2026-04-29T11:23:17.094Z</time></trkpt><trkpt lat="36.9229805" lon="-1.3981648"><ele>0.0</ele><time>2026-04-29T11:23:18.095Z</time></trkpt><trkpt lat="36.9230351" lon="-1.3980917"><ele>0.0</ele><time>2026-04-29T11:23:19.095Z</time></trkpt><trkpt lat="36.9230885" lon="-1.39801"><ele>0.0</ele><time>2026-04-29T11:23:20.094Z</time></trkpt><trkpt lat="36.9231437" lon="-1.3979268"><ele>0.0</ele><time>2026-04-29T11:23:21.095Z</time></trkpt><trkpt lat="36.9232026" lon="-1.3978393"><ele>0.0</ele><time>2026-04-29T11:23:22.095Z</time></trkpt><trkpt lat="36.923264" lon="-1.3977527"><ele>0.0</ele><time>2026-04-29T11:23:23.095Z</time></trkpt><trkpt lat="36.9233246" lon="-1.397673"><ele>0.0</ele><time>2026-04-29T11:23:24.094Z</time></trkpt><trkpt lat="36.923383" lon="-1.3975897"><ele>0.0</ele><time>2026-04-29T11:23:25.095Z</time></trkpt><trkpt lat="36.9234415" lon="-1.3975156"><ele>0.0</ele><time>2026-04-29T11:23:26.094Z</time></trkpt><trkpt lat="36.9235026" lon="-1.3974404"><ele>0.0</ele><time>2026-04-29T11:23:27.094Z</time></trkpt><trkpt lat="36.9235545" lon="-1.3973529"><ele>0.0</ele><time>2026-04-29T11:23:28.094Z</time></trkpt><trkpt lat="36.9236075" lon="-1.3972729"><ele>0.0</ele><time>2026-04-29T11:23:29.093Z</time></trkpt><trkpt lat="36.9236589" lon="-1.3971902"><ele>0.0</ele><time>2026-04-29T11:23:30.093Z</time></trkpt><trkpt lat="36.9237137" lon="-1.3971055"><ele>0.0</ele><time>2026-04-29T11:23:31.093Z</time></trkpt><trkpt lat="36.9238322" lon="-1.3969384"><ele>0.0</ele><time>2026-04-29T11:23:33.094Z</time></trkpt><trkpt lat="36.9238969" lon="-1.3968636"><ele>0.0</ele><time>2026-04-29T11:23:34.093Z</time></trkpt><trkpt lat="36.9239563" lon="-1.3967901"><ele>0.0</ele><time>2026-04-29T11:23:35.094Z</time></trkpt><trkpt lat="36.9240133" lon="-1.3967083"><ele>0.0</ele><time>2026-04-29T11:23:36.093Z</time></trkpt><trkpt lat="36.9240703" lon="-1.3966253"><ele>0.0</ele><time>2026-04-29T11:23:37.093Z</time></trkpt><trkpt lat="36.9241308" lon="-1.3965432"><ele>0.0</ele><time>2026-04-29T11:23:38.094Z</time></trkpt><trkpt lat="36.9241911" lon="-1.3964602"><ele>0.0</ele><time>2026-04-29T11:23:39.093Z</time></trkpt><trkpt lat="36.9242527" lon="-1.3963831"><ele>0.0</ele><time>2026-04-29T11:23:40.093Z</time></trkpt><trkpt lat="36.9243143" lon="-1.3963061"><ele>0.0</ele><time>2026-04-29T11:23:41.094Z</time></trkpt><trkpt lat="36.9243702" lon="-1.3962207"><ele>0.0</ele><time>2026-04-29T11:23:42.094Z</time></trkpt><trkpt lat="36.9244238" lon="-1.3961343"><ele>0.0</ele><time>2026-04-29T11:23:43.093Z</time></trkpt><trkpt lat="36.92448" lon="-1.3960448"><ele>0.0</ele><time>2026-04-29T11:23:44.094Z</time></trkpt><trkpt lat="36.924537" lon="-1.3959671"><ele>0.0</ele><time>2026-04-29T11:23:45.093Z</time></trkpt><trkpt lat="36.924593" lon="-1.3958876"><ele>0.0</ele><time>2026-04-29T11:23:46.093Z</time></trkpt><trkpt lat="36.9246543" lon="-1.3958008"><ele>0.0</ele><time>2026-04-29T11:23:47.093Z</time></trkpt><trkpt lat="36.924709" lon="-1.3957195"><ele>0.0</ele><time>2026-04-29T11:23:48.093Z</time></trkpt><trkpt lat="36.9247651" lon="-1.3956313"><ele>0.0</ele><time>2026-04-29T11:23:49.093Z</time></trkpt><trkpt lat="36.9248185" lon="-1.3955495"><ele>0.0</ele><time>2026-04-29T11:23:50.094Z</time></trkpt><trkpt lat="36.9248706" lon="-1.3954676"><ele>0.0</ele><time>2026-04-29T11:23:51.093Z</time></trkpt><trkpt lat="36.9249223" lon="-1.3953847"><ele>0.0</ele><time>2026-04-29T11:23:52.094Z</time></trkpt><trkpt lat="36.9250333" lon="-1.3952153"><ele>0.0</ele><time>2026-04-29T11:23:54.094Z</time></trkpt><trkpt lat="36.9250867" lon="-1.3951285"><ele>0.0</ele><time>2026-04-29T11:23:55.093Z</time></trkpt><trkpt lat="36.9251461" lon="-1.395038"><ele>0.0</ele><time>2026-04-29T11:23:56.094Z</time></trkpt><trkpt lat="36.9252016" lon="-1.3949505"><ele>0.0</ele><time>2026-04-29T11:23:57.094Z</time></trkpt><trkpt lat="36.925254" lon="-1.3948638"><ele>0.0</ele><time>2026-04-29T11:23:58.094Z</time></trkpt><trkpt lat="36.9253028" lon="-1.394773"><ele>0.0</ele><time>2026-04-29T11:23:59.094Z</time></trkpt><trkpt lat="36.9253636" lon="-1.3946925"><ele>0.0</ele><time>2026-04-29T11:24:00.093Z</time></trkpt><trkpt lat="36.925423" lon="-1.3946099"><ele>0.0</ele><time>2026-04-29T11:24:01.094Z</time></trkpt><trkpt lat="36.9254771" lon="-1.3945241"><ele>0.0</ele><time>2026-04-29T11:24:02.094Z</time></trkpt><trkpt lat="36.9255303" lon="-1.394439"><ele>0.0</ele><time>2026-04-29T11:24:03.094Z</time></trkpt><trkpt lat="36.9255792" lon="-1.3943533"><ele>0.0</ele><time>2026-04-29T11:24:04.093Z</time></trkpt><trkpt lat="36.9256277" lon="-1.3942741"><ele>0.0</ele><time>2026-04-29T11:24:05.093Z</time></trkpt><trkpt lat="36.9256789" lon="-1.3941873"><ele>0.0</ele><time>2026-04-29T11:24:06.093Z</time></trkpt><trkpt lat="36.9257336" lon="-1.3940939"><ele>0.0</ele><time>2026-04-29T11:24:07.093Z</time></trkpt><trkpt lat="36.9257895" lon="-1.394007"><ele>0.0</ele><time>2026-04-29T11:24:08.093Z</time></trkpt><trkpt lat="36.9258422" lon="-1.3939263"><ele>0.0</ele><time>2026-04-29T11:24:09.093Z</time></trkpt><trkpt lat="36.9258997" lon="-1.3938475"><ele>0.0</ele><time>2026-04-29T11:24:10.093Z</time></trkpt><trkpt lat="36.9259578" lon="-1.3937665"><ele>0.0</ele><time>2026-04-29T11:24:11.093Z</time></trkpt><trkpt lat="36.9260163" lon="-1.3936822"><ele>0.0</ele><time>2026-04-29T11:24:12.093Z</time></trkpt><trkpt lat="36.9260705" lon="-1.3935944"><ele>0.0</ele><time>2026-04-29T11:24:13.094Z</time></trkpt><trkpt lat="36.9261883" lon="-1.3934181"><ele>0.0</ele><time>2026-04-29T11:24:15.094Z</time></trkpt><trkpt lat="36.926241" lon="-1.3933391"><ele>0.0</ele><time>2026-04-29T11:24:16.094Z</time></trkpt><trkpt lat="36.9262927" lon="-1.3932609"><ele>0.0</ele><time>2026-04-29T11:24:17.093Z</time></trkpt><trkpt lat="36.92635" lon="-1.3931821"><ele>0.0</ele><time>2026-04-29T11:24:18.094Z</time></trkpt><trkpt lat="36.926408" lon="-1.3931053"><ele>0.0</ele><time>2026-04-29T11:24:19.094Z</time></trkpt><trkpt lat="36.9264649" lon="-1.3930245"><ele>0.0</ele><time>2026-04-29T11:24:20.093Z</time></trkpt><trkpt lat="36.9265259" lon="-1.3929419"><ele>0.0</ele><time>2026-04-29T11:24:21.094Z</time></trkpt><trkpt lat="36.9265876" lon="-1.392864"><ele>0.0</ele><time>2026-04-29T11:24:22.094Z</time></trkpt><trkpt lat="36.9266425" lon="-1.3927831"><ele>0.0</ele><time>2026-04-29T11:24:23.093Z</time></trkpt><trkpt lat="36.9267001" lon="-1.3926989"><ele>0.0</ele><time>2026-04-29T11:24:24.094Z</time></trkpt><trkpt lat="36.9267568" lon="-1.3926167"><ele>0.0</ele><time>2026-04-29T11:24:25.093Z</time></trkpt><trkpt lat="36.926812" lon="-1.3925293"><ele>0.0</ele><time>2026-04-29T11:24:26.094Z</time></trkpt><trkpt lat="36.9268651" lon="-1.3924438"><ele>0.0</ele><time>2026-04-29T11:24:27.094Z</time></trkpt><trkpt lat="36.926916" lon="-1.3923577"><ele>0.0</ele><time>2026-04-29T11:24:28.094Z</time></trkpt><trkpt lat="36.9269731" lon="-1.3922721"><ele>0.0</ele><time>2026-04-29T11:24:29.093Z</time></trkpt><trkpt lat="36.9270357" lon="-1.3921941"><ele>0.0</ele><time>2026-04-29T11:24:30.093Z</time></trkpt><trkpt lat="36.9270874" lon="-1.3921074"><ele>0.0</ele><time>2026-04-29T11:24:31.093Z</time></trkpt><trkpt lat="36.9271408" lon="-1.3920267"><ele>0.0</ele><time>2026-04-29T11:24:32.094Z</time></trkpt><trkpt lat="36.9272009" lon="-1.391949"><ele>0.0</ele><time>2026-04-29T11:24:33.094Z</time></trkpt><trkpt lat="36.9272609" lon="-1.3918693"><ele>0.0</ele><time>2026-04-29T11:24:34.093Z</time></trkpt><trkpt lat="36.9273697" lon="-1.3916945"><ele>0.0</ele><time>2026-04-29T11:24:36.094Z</time></trkpt><trkpt lat="36.9274266" lon="-1.3916086"><ele>0.0</ele><time>2026-04-29T11:24:37.094Z</time></trkpt><trkpt lat="36.9274776" lon="-1.3915278"><ele>0.0</ele><time>2026-04-29T11:24:38.094Z</time></trkpt><trkpt lat="36.927539" lon="-1.3914435"><ele>0.0</ele><time>2026-04-29T11:24:39.094Z</time></trkpt><trkpt lat="36.9275922" lon="-1.391353"><ele>0.0</ele><time>2026-04-29T11:24:40.094Z</time></trkpt><trkpt lat="36.9276485" lon="-1.3912687"><ele>0.0</ele><time>2026-04-29T11:24:41.094Z</time></trkpt><trkpt lat="36.9277035" lon="-1.3911823"><ele>0.0</ele><time>2026-04-29T11:24:42.093Z</time></trkpt><trkpt lat="36.92777" lon="-1.3911027"><ele>0.0</ele><time>2026-04-29T11:24:43.093Z</time></trkpt><trkpt lat="36.9278267" lon="-1.391024"><ele>0.0</ele><time>2026-04-29T11:24:44.094Z</time></trkpt><trkpt lat="36.9278805" lon="-1.39094"><ele>0.0</ele><time>2026-04-29T11:24:45.094Z</time></trkpt><trkpt lat="36.9279312" lon="-1.3908568"><ele>0.0</ele><time>2026-04-29T11:24:46.094Z</time></trkpt><trkpt lat="36.9279898" lon="-1.3907692"><ele>0.0</ele><time>2026-04-29T11:24:47.093Z</time></trkpt><trkpt lat="36.9280482" lon="-1.3906809"><ele>0.0</ele><time>2026-04-29T11:24:48.094Z</time></trkpt><trkpt lat="36.928101" lon="-1.3905982"><ele>0.0</ele><time>2026-04-29T11:24:49.093Z</time></trkpt><trkpt lat="36.9281493" lon="-1.3905147"><ele>0.0</ele><time>2026-04-29T11:24:50.093Z</time></trkpt><trkpt lat="36.9282079" lon="-1.3904329"><ele>0.0</ele><time>2026-04-29T11:24:51.093Z</time></trkpt><trkpt lat="36.928265" lon="-1.3903539"><ele>0.0</ele><time>2026-04-29T11:24:52.094Z</time></trkpt><trkpt lat="36.9283205" lon="-1.3902728"><ele>0.0</ele><time>2026-04-29T11:24:53.094Z</time></trkpt><trkpt lat="36.9283738" lon="-1.3901899"><ele>0.0</ele><time>2026-04-29T11:24:54.094Z</time></trkpt><trkpt lat="36.9284316" lon="-1.3901069"><ele>0.0</ele><time>2026-04-29T11:24:55.093Z</time></trkpt><trkpt lat="36.9285407" lon="-1.3899368"><ele>0.0</ele><time>2026-04-29T11:24:57.094Z</time></trkpt><trkpt lat="36.9285925" lon="-1.3898562"><ele>0.0</ele><time>2026-04-29T11:24:58.093Z</time></trkpt><trkpt lat="36.9286457" lon="-1.3897721"><ele>0.0</ele><time>2026-04-29T11:24:59.094Z</time></trkpt><trkpt lat="36.9287002" lon="-1.3896842"><ele>0.0</ele><time>2026-04-29T11:25:00.093Z</time></trkpt><trkpt lat="36.9287563" lon="-1.3895973"><ele>0.0</ele><time>2026-04-29T11:25:01.094Z</time></trkpt><trkpt lat="36.9288173" lon="-1.3895178"><ele>0.0</ele><time>2026-04-29T11:25:02.093Z</time></trkpt><trkpt lat="36.9288762" lon="-1.3894306"><ele>0.0</ele><time>2026-04-29T11:25:03.093Z</time></trkpt><trkpt lat="36.9289344" lon="-1.3893437"><ele>0.0</ele><time>2026-04-29T11:25:04.094Z</time></trkpt><trkpt lat="36.9289857" lon="-1.3892514"><ele>0.0</ele><time>2026-04-29T11:25:05.093Z</time></trkpt><trkpt lat="36.9290414" lon="-1.3891664"><ele>0.0</ele><time>2026-04-29T11:25:06.093Z</time></trkpt><trkpt lat="36.9290923" lon="-1.3890874"><ele>0.0</ele><time>2026-04-29T11:25:07.094Z</time></trkpt><trkpt lat="36.9291453" lon="-1.3890019"><ele>0.0</ele><time>2026-04-29T11:25:08.093Z</time></trkpt><trkpt lat="36.9292026" lon="-1.3889167"><ele>0.0</ele><time>2026-04-29T11:25:09.094Z</time></trkpt><trkpt lat="36.929261" lon="-1.3888374"><ele>0.0</ele><time>2026-04-29T11:25:10.093Z</time></trkpt><trkpt lat="36.9293155" lon="-1.388748"><ele>0.0</ele><time>2026-04-29T11:25:11.093Z</time></trkpt><trkpt lat="36.9293647" lon="-1.3886619"><ele>0.0</ele><time>2026-04-29T11:25:12.093Z</time></trkpt><trkpt lat="36.9294174" lon="-1.3885755"><ele>0.0</ele><time>2026-04-29T11:25:13.094Z</time></trkpt><trkpt lat="36.9294747" lon="-1.3884932"><ele>0.0</ele><time>2026-04-29T11:25:14.093Z</time></trkpt><trkpt lat="36.9295345" lon="-1.3884059"><ele>0.0</ele><time>2026-04-29T11:25:15.093Z</time></trkpt><trkpt lat="36.9295916" lon="-1.3883146"><ele>0.0</ele><time>2026-04-29T11:25:16.093Z</time></trkpt><trkpt lat="36.9297113" lon="-1.3881505"><ele>0.0</ele><time>2026-04-29T11:25:18.094Z</time></trkpt><trkpt lat="36.9297656" lon="-1.3880739"><ele>0.0</ele><time>2026-04-29T11:25:19.094Z</time></trkpt><trkpt lat="36.9298175" lon="-1.3879915"><ele>0.0</ele><time>2026-04-29T11:25:20.093Z</time></trkpt><trkpt lat="36.9298679" lon="-1.3879072"><ele>0.0</ele><time>2026-04-29T11:25:21.093Z</time></trkpt><trkpt lat="36.9299189" lon="-1.3878275"><ele>0.0</ele><time>2026-04-29T11:25:22.094Z</time></trkpt><trkpt lat="36.9299734" lon="-1.3877394"><ele>0.0</ele><time>2026-04-29T11:25:23.093Z</time></trkpt><trkpt lat="36.9300282" lon="-1.387655"><ele>0.0</ele><time>2026-04-29T11:25:24.093Z</time></trkpt><trkpt lat="36.9300876" lon="-1.3875703"><ele>0.0</ele><time>2026-04-29T11:25:25.093Z</time></trkpt><trkpt lat="36.9301423" lon="-1.38748"><ele>0.0</ele><time>2026-04-29T11:25:26.093Z</time></trkpt><trkpt lat="36.9302028" lon="-1.3873934"><ele>0.0</ele><time>2026-04-29T11:25:27.093Z</time></trkpt><trkpt lat="36.9302599" lon="-1.3873099"><ele>0.0</ele><time>2026-04-29T11:25:28.093Z</time></trkpt><trkpt lat="36.9303134" lon="-1.3872234"><ele>0.0</ele><time>2026-04-29T11:25:29.093Z</time></trkpt><trkpt lat="36.9303671" lon="-1.3871385"><ele>0.0</ele><time>2026-04-29T11:25:30.094Z</time></trkpt><trkpt lat="36.930429" lon="-1.3870595"><ele>0.0</ele><time>2026-04-29T11:25:31.094Z</time></trkpt><trkpt lat="36.9304896" lon="-1.3869839"><ele>0.0</ele><time>2026-04-29T11:25:32.093Z</time></trkpt><trkpt lat="36.9305437" lon="-1.3869001"><ele>0.0</ele><time>2026-04-29T11:25:33.093Z</time></trkpt><trkpt lat="36.930597" lon="-1.3868126"><ele>0.0</ele><time>2026-04-29T11:25:34.093Z</time></trkpt><trkpt lat="36.9306519" lon="-1.3867238"><ele>0.0</ele><time>2026-04-29T11:25:35.094Z</time></trkpt><trkpt lat="36.9307058" lon="-1.38664"><ele>0.0</ele><time>2026-04-29T11:25:36.094Z</time></trkpt><trkpt lat="36.9307617" lon="-1.3865538"><ele>0.0</ele><time>2026-04-29T11:25:37.093Z</time></trkpt><trkpt lat="36.9308689" lon="-1.3863801"><ele>0.0</ele><time>2026-04-29T11:25:39.093Z</time></trkpt><trkpt lat="36.9309207" lon="-1.3862991"><ele>0.0</ele><time>2026-04-29T11:25:40.093Z</time></trkpt><trkpt lat="36.9309781" lon="-1.3862207"><ele>0.0</ele><time>2026-04-29T11:25:41.093Z</time></trkpt><trkpt lat="36.9310393" lon="-1.3861454"><ele>0.0</ele><time>2026-04-29T11:25:42.094Z</time></trkpt><trkpt lat="36.9310935" lon="-1.3860629"><ele>0.0</ele><time>2026-04-29T11:25:43.093Z</time></trkpt><trkpt lat="36.9311557" lon="-1.3859811"><ele>0.0</ele><time>2026-04-29T11:25:44.094Z</time></trkpt><trkpt lat="36.9312118" lon="-1.3858967"><ele>0.0</ele><time>2026-04-29T11:25:45.094Z</time></trkpt><trkpt lat="36.9312655" lon="-1.3858132"><ele>0.0</ele><time>2026-04-29T11:25:46.093Z</time></trkpt><trkpt lat="36.9313232" lon="-1.3857273"><ele>0.0</ele><time>2026-04-29T11:25:47.094Z</time></trkpt><trkpt lat="36.9313768" lon="-1.3856359"><ele>0.0</ele><time>2026-04-29T11:25:48.093Z</time></trkpt><trkpt lat="36.9314348" lon="-1.3855501"><ele>0.0</ele><time>2026-04-29T11:25:49.094Z</time></trkpt><trkpt lat="36.9314901" lon="-1.385461"><ele>0.0</ele><time>2026-04-29T11:25:50.093Z</time></trkpt><trkpt lat="36.9315439" lon="-1.3853709"><ele>0.0</ele><time>2026-04-29T11:25:51.094Z</time></trkpt><trkpt lat="36.9315973" lon="-1.3852837"><ele>0.0</ele><time>2026-04-29T11:25:52.094Z</time></trkpt><trkpt lat="36.9316464" lon="-1.3851956"><ele>0.0</ele><time>2026-04-29T11:25:53.093Z</time></trkpt><trkpt lat="36.9316988" lon="-1.3851087"><ele>0.0</ele><time>2026-04-29T11:25:54.094Z</time></trkpt><trkpt lat="36.931755" lon="-1.3850293"><ele>0.0</ele><time>2026-04-29T11:25:55.093Z</time></trkpt><trkpt lat="36.9318061" lon="-1.3849467"><ele>0.0</ele><time>2026-04-29T11:25:56.093Z</time></trkpt><trkpt lat="36.9318672" lon="-1.3848659"><ele>0.0</ele><time>2026-04-29T11:25:57.094Z</time></trkpt><trkpt lat="36.9319261" lon="-1.3847931"><ele>0.0</ele><time>2026-04-29T11:25:58.094Z</time></trkpt><trkpt lat="36.9320399" lon="-1.3846296"><ele>0.0</ele><time>2026-04-29T11:26:00.094Z</time></trkpt><trkpt lat="36.9320935" lon="-1.3845422"><ele>0.0</ele><time>2026-04-29T11:26:01.093Z</time></trkpt><trkpt lat="36.9321461" lon="-1.384454"><ele>0.0</ele><time>2026-04-29T11:26:02.094Z</time></trkpt><trkpt lat="36.9322006" lon="-1.3843617"><ele>0.0</ele><time>2026-04-29T11:26:03.094Z</time></trkpt><trkpt lat="36.9322483" lon="-1.3842726"><ele>0.0</ele><time>2026-04-29T11:26:04.094Z</time></trkpt><trkpt lat="36.9323046" lon="-1.3841884"><ele>0.0</ele><time>2026-04-29T11:26:05.093Z</time></trkpt><trkpt lat="36.9323617" lon="-1.3841037"><ele>0.0</ele><time>2026-04-29T11:26:06.093Z</time></trkpt><trkpt lat="36.9324156" lon="-1.3840198"><ele>0.0</ele><time>2026-04-29T11:26:07.093Z</time></trkpt><trkpt lat="36.9324758" lon="-1.3839297"><ele>0.0</ele><time>2026-04-29T11:26:08.094Z</time></trkpt><trkpt lat="36.9325402" lon="-1.383848"><ele>0.0</ele><time>2026-04-29T11:26:09.094Z</time></trkpt><trkpt lat="36.9326024" lon="-1.3837679"><ele>0.0</ele><time>2026-04-29T11:26:10.093Z</time></trkpt><trkpt lat="36.9326585" lon="-1.3836894"><ele>0.0</ele><time>2026-04-29T11:26:11.093Z</time></trkpt><trkpt lat="36.9327163" lon="-1.3836108"><ele>0.0</ele><time>2026-04-29T11:26:12.094Z</time></trkpt><trkpt lat="36.9327733" lon="-1.3835252"><ele>0.0</ele><time>2026-04-29T11:26:13.094Z</time></trkpt><trkpt lat="36.9328259" lon="-1.3834394"><ele>0.0</ele><time>2026-04-29T11:26:14.093Z</time></trkpt><trkpt lat="36.9328828" lon="-1.3833579"><ele>0.0</ele><time>2026-04-29T11:26:15.093Z</time></trkpt><trkpt lat="36.9329358" lon="-1.3832746"><ele>0.0</ele><time>2026-04-29T11:26:16.094Z</time></trkpt><trkpt lat="36.9329905" lon="-1.3831931"><ele>0.0</ele><time>2026-04-29T11:26:17.093Z</time></trkpt><trkpt lat="36.9330442" lon="-1.3831117"><ele>0.0</ele><time>2026-04-29T11:26:18.093Z</time></trkpt><trkpt lat="36.9330918" lon="-1.3830284"><ele>0.0</ele><time>2026-04-29T11:26:19.094Z</time></trkpt><trkpt lat="36.9332067" lon="-1.3828752"><ele>0.0</ele><time>2026-04-29T11:26:21.094Z</time></trkpt><trkpt lat="36.9332616" lon="-1.3827959"><ele>0.0</ele><time>2026-04-29T11:26:22.094Z</time></trkpt><trkpt lat="36.9333113" lon="-1.3827032"><ele>0.0</ele><time>2026-04-29T11:26:23.094Z</time></trkpt><trkpt lat="36.9333669" lon="-1.3826174"><ele>0.0</ele><time>2026-04-29T11:26:24.093Z</time></trkpt><trkpt lat="36.9334162" lon="-1.3825261"><ele>0.0</ele><time>2026-04-29T11:26:25.094Z</time></trkpt><trkpt lat="36.9334715" lon="-1.3824398"><ele>0.0</ele><time>2026-04-29T11:26:26.093Z</time></trkpt><trkpt lat="36.9335312" lon="-1.3823526"><ele>0.0</ele><time>2026-04-29T11:26:27.094Z</time></trkpt><trkpt lat="36.9335911" lon="-1.3822729"><ele>0.0</ele><time>2026-04-29T11:26:28.094Z</time></trkpt><trkpt lat="36.93365" lon="-1.3821902"><ele>0.0</ele><time>2026-04-29T11:26:29.093Z</time></trkpt><trkpt lat="36.9337137" lon="-1.3821051"><ele>0.0</ele><time>2026-04-29T11:26:30.094Z</time></trkpt><trkpt lat="36.9337739" lon="-1.3820216"><ele>0.0</ele><time>2026-04-29T11:26:31.093Z</time></trkpt><trkpt lat="36.9338326" lon="-1.3819315"><ele>0.0</ele><time>2026-04-29T11:26:32.093Z</time></trkpt><trkpt lat="36.9338883" lon="-1.3818474"><ele>0.0</ele><time>2026-04-29T11:26:33.093Z</time></trkpt><trkpt lat="36.9339419" lon="-1.3817632"><ele>0.0</ele><time>2026-04-29T11:26:34.093Z</time></trkpt><trkpt lat="36.933994" lon="-1.3816785"><ele>0.0</ele><time>2026-04-29T11:26:35.094Z</time></trkpt><trkpt lat="36.9340501" lon="-1.3815934"><ele>0.0</ele><time>2026-04-29T11:26:36.093Z</time></trkpt><trkpt lat="36.9341067" lon="-1.3815127"><ele>0.0</ele><time>2026-04-29T11:26:37.094Z</time></trkpt><trkpt lat="36.9341674" lon="-1.3814313"><ele>0.0</ele><time>2026-04-29T11:26:38.093Z</time></trkpt><trkpt lat="36.9342247" lon="-1.381345"><ele>0.0</ele><time>2026-04-29T11:26:39.093Z</time></trkpt><trkpt lat="36.934283" lon="-1.3812615"><ele>0.0</ele><time>2026-04-29T11:26:40.093Z</time></trkpt><trkpt lat="36.9343972" lon="-1.3811051"><ele>0.0</ele><time>2026-04-29T11:26:42.093Z</time></trkpt><trkpt lat="36.9344576" lon="-1.381023"><ele>0.0</ele><time>2026-04-29T11:26:43.093Z</time></trkpt><trkpt lat="36.9345166" lon="-1.3809329"><ele>0.0</ele><time>2026-04-29T11:26:44.093Z</time></trkpt><trkpt lat="36.9345691" lon="-1.3808454"><ele>0.0</ele><time>2026-04-29T11:26:45.094Z</time></trkpt><trkpt lat="36.9346224" lon="-1.3807577"><ele>0.0</ele><time>2026-04-29T11:26:46.094Z</time></trkpt><trkpt lat="36.9346798" lon="-1.3806721"><ele>0.0</ele><time>2026-04-29T11:26:47.094Z</time></trkpt><trkpt lat="36.934735" lon="-1.3805807"><ele>0.0</ele><time>2026-04-29T11:26:48.094Z</time></trkpt><trkpt lat="36.9347873" lon="-1.3804922"><ele>0.0</ele><time>2026-04-29T11:26:49.094Z</time></trkpt><trkpt lat="36.9348419" lon="-1.3804025"><ele>0.0</ele><time>2026-04-29T11:26:50.093Z</time></trkpt><trkpt lat="36.9348982" lon="-1.3803152"><ele>0.0</ele><time>2026-04-29T11:26:51.093Z</time></trkpt><trkpt lat="36.9349578" lon="-1.3802286"><ele>0.0</ele><time>2026-04-29T11:26:52.094Z</time></trkpt><trkpt lat="36.9350176" lon="-1.3801422"><ele>0.0</ele><time>2026-04-29T11:26:53.093Z</time></trkpt><trkpt lat="36.9350774" lon="-1.380061"><ele>0.0</ele><time>2026-04-29T11:26:54.093Z</time></trkpt><trkpt lat="36.9351305" lon="-1.3799811"><ele>0.0</ele><time>2026-04-29T11:26:55.093Z</time></trkpt><trkpt lat="36.9351865" lon="-1.3798966"><ele>0.0</ele><time>2026-04-29T11:26:56.093Z</time></trkpt><trkpt lat="36.9352403" lon="-1.3798144"><ele>0.0</ele><time>2026-04-29T11:26:57.094Z</time></trkpt><trkpt lat="36.9352918" lon="-1.3797297"><ele>0.0</ele><time>2026-04-29T11:26:58.094Z</time></trkpt><trkpt lat="36.9353467" lon="-1.3796492"><ele>0.0</ele><time>2026-04-29T11:26:59.093Z</time></trkpt><trkpt lat="36.9354043" lon="-1.3795632"><ele>0.0</ele><time>2026-04-29T11:27:00.094Z</time></trkpt><trkpt lat="36.9354555" lon="-1.3794749"><ele>0.0</ele><time>2026-04-29T11:27:01.094Z</time></trkpt><trkpt lat="36.9355665" lon="-1.3792972"><ele>0.0</ele><time>2026-04-29T11:27:03.093Z</time></trkpt><trkpt lat="36.9356212" lon="-1.3792087"><ele>0.0</ele><time>2026-04-29T11:27:04.094Z</time></trkpt><trkpt lat="36.9356789" lon="-1.3791232"><ele>0.0</ele><time>2026-04-29T11:27:05.093Z</time></trkpt><trkpt lat="36.9357385" lon="-1.3790407"><ele>0.0</ele><time>2026-04-29T11:27:06.093Z</time></trkpt><trkpt lat="36.9357918" lon="-1.3789535"><ele>0.0</ele><time>2026-04-29T11:27:07.093Z</time></trkpt><trkpt lat="36.9358439" lon="-1.3788711"><ele>0.0</ele><time>2026-04-29T11:27:08.093Z</time></trkpt><trkpt lat="36.9358957" lon="-1.3787865"><ele>0.0</ele><time>2026-04-29T11:27:09.094Z</time></trkpt><trkpt lat="36.9359567" lon="-1.3787032"><ele>0.0</ele><time>2026-04-29T11:27:10.093Z</time></trkpt><trkpt lat="36.936009" lon="-1.3786213"><ele>0.0</ele><time>2026-04-29T11:27:11.093Z</time></trkpt><trkpt lat="36.9360617" lon="-1.3785306"><ele>0.0</ele><time>2026-04-29T11:27:12.094Z</time></trkpt><trkpt lat="36.936115" lon="-1.3784479"><ele>0.0</ele><time>2026-04-29T11:27:13.093Z</time></trkpt><trkpt lat="36.9361671" lon="-1.3783635"><ele>0.0</ele><time>2026-04-29T11:27:14.093Z</time></trkpt><trkpt lat="36.9362191" lon="-1.3782757"><ele>0.0</ele><time>2026-04-29T11:27:15.094Z</time></trkpt><trkpt lat="36.9362696" lon="-1.3781899"><ele>0.0</ele><time>2026-04-29T11:27:16.094Z</time></trkpt><trkpt lat="36.9363193" lon="-1.3781064"><ele>0.0</ele><time>2026-04-29T11:27:17.093Z</time></trkpt><trkpt lat="36.9363666" lon="-1.3780219"><ele>0.0</ele><time>2026-04-29T11:27:18.093Z</time></trkpt><trkpt lat="36.936419" lon="-1.377934"><ele>0.0</ele><time>2026-04-29T11:27:19.093Z</time></trkpt><trkpt lat="36.9364721" lon="-1.3778442"><ele>0.0</ele><time>2026-04-29T11:27:20.094Z</time></trkpt><trkpt lat="36.9365256" lon="-1.3777613"><ele>0.0</ele><time>2026-04-29T11:27:21.093Z</time></trkpt><trkpt lat="36.9365786" lon="-1.377678"><ele>0.0</ele><time>2026-04-29T11:27:22.094Z</time></trkpt><trkpt lat="36.9366921" lon="-1.3775128"><ele>0.0</ele><time>2026-04-29T11:27:24.094Z</time></trkpt><trkpt lat="36.9367511" lon="-1.3774285"><ele>0.0</ele><time>2026-04-29T11:27:25.094Z</time></trkpt><trkpt lat="36.9368097" lon="-1.3773479"><ele>0.0</ele><time>2026-04-29T11:27:26.094Z</time></trkpt><trkpt lat="36.9368635" lon="-1.3772623"><ele>0.0</ele><time>2026-04-29T11:27:27.094Z</time></trkpt><trkpt lat="36.9369227" lon="-1.3771799"><ele>0.0</ele><time>2026-04-29T11:27:28.093Z</time></trkpt><trkpt lat="36.9369771" lon="-1.3770941"><ele>0.0</ele><time>2026-04-29T11:27:29.093Z</time></trkpt><trkpt lat="36.937032" lon="-1.3770061"><ele>0.0</ele><time>2026-04-29T11:27:30.093Z</time></trkpt><trkpt lat="36.9370899" lon="-1.376929"><ele>0.0</ele><time>2026-04-29T11:27:31.093Z</time></trkpt><trkpt lat="36.9371412" lon="-1.3768437"><ele>0.0</ele><time>2026-04-29T11:27:32.094Z</time></trkpt><trkpt lat="36.9371968" lon="-1.3767627"><ele>0.0</ele><time>2026-04-29T11:27:33.093Z</time></trkpt><trkpt lat="36.9372561" lon="-1.376677"><ele>0.0</ele><time>2026-04-29T11:27:34.093Z</time></trkpt><trkpt lat="36.9373131" lon="-1.3765933"><ele>0.0</ele><time>2026-04-29T11:27:35.093Z</time></trkpt><trkpt lat="36.9373715" lon="-1.3765087"><ele>0.0</ele><time>2026-04-29T11:27:36.093Z</time></trkpt><trkpt lat="36.9374383" lon="-1.3764252"><ele>0.0</ele><time>2026-04-29T11:27:37.094Z</time></trkpt><trkpt lat="36.9374993" lon="-1.3763461"><ele>0.0</ele><time>2026-04-29T11:27:38.093Z</time></trkpt><trkpt lat="36.9375579" lon="-1.3762589"><ele>0.0</ele><time>2026-04-29T11:27:39.093Z</time></trkpt><trkpt lat="36.9376146" lon="-1.3761792"><ele>0.0</ele><time>2026-04-29T11:27:40.094Z</time></trkpt><trkpt lat="36.9376703" lon="-1.3761055"><ele>0.0</ele><time>2026-04-29T11:27:41.094Z</time></trkpt><trkpt lat="36.9377254" lon="-1.3760247"><ele>0.0</ele><time>2026-04-29T11:27:42.093Z</time></trkpt><trkpt lat="36.9377786" lon="-1.3759418"><ele>0.0</ele><time>2026-04-29T11:27:43.093Z</time></trkpt><trkpt lat="36.9378946" lon="-1.3757767"><ele>0.0</ele><time>2026-04-29T11:27:45.093Z</time></trkpt><trkpt lat="36.9379487" lon="-1.3756975"><ele>0.0</ele><time>2026-04-29T11:27:46.093Z</time></trkpt><trkpt lat="36.9380022" lon="-1.3756148"><ele>0.0</ele><time>2026-04-29T11:27:47.094Z</time></trkpt><trkpt lat="36.9380585" lon="-1.3755261"><ele>0.0</ele><time>2026-04-29T11:27:48.094Z</time></trkpt><trkpt lat="36.9381149" lon="-1.3754419"><ele>0.0</ele><time>2026-04-29T11:27:49.093Z</time></trkpt><trkpt lat="36.9381674" lon="-1.3753498"><ele>0.0</ele><time>2026-04-29T11:27:50.094Z</time></trkpt><trkpt lat="36.9382235" lon="-1.3752626"><ele>0.0</ele><time>2026-04-29T11:27:51.093Z</time></trkpt><trkpt lat="36.938277" lon="-1.3751811"><ele>0.0</ele><time>2026-04-29T11:27:52.093Z</time></trkpt><trkpt lat="36.9383361" lon="-1.3750954"><ele>0.0</ele><time>2026-04-29T11:27:53.093Z</time></trkpt><trkpt lat="36.9383906" lon="-1.3750146"><ele>0.0</ele><time>2026-04-29T11:27:54.094Z</time></trkpt><trkpt lat="36.9384466" lon="-1.3749288"><ele>0.0</ele><time>2026-04-29T11:27:55.093Z</time></trkpt><trkpt lat="36.9385058" lon="-1.3748449"><ele>0.0</ele><time>2026-04-29T11:27:56.093Z</time></trkpt><trkpt lat="36.9385658" lon="-1.3747614"><ele>0.0</ele><time>2026-04-29T11:27:57.093Z</time></trkpt><trkpt lat="36.9386231" lon="-1.3746768"><ele>0.0</ele><time>2026-04-29T11:27:58.094Z</time></trkpt><trkpt lat="36.9386744" lon="-1.3745888"><ele>0.0</ele><time>2026-04-29T11:27:59.093Z</time></trkpt><trkpt lat="36.9387318" lon="-1.3745064"><ele>0.0</ele><time>2026-04-29T11:28:00.093Z</time></trkpt><trkpt lat="36.9387854" lon="-1.3744229"><ele>0.0</ele><time>2026-04-29T11:28:01.094Z</time></trkpt><trkpt lat="36.938843" lon="-1.3743413"><ele>0.0</ele><time>2026-04-29T11:28:02.093Z</time></trkpt><trkpt lat="36.9388997" lon="-1.374257"><ele>0.0</ele><time>2026-04-29T11:28:03.094Z</time></trkpt><trkpt lat="36.9389566" lon="-1.3741652"><ele>0.0</ele><time>2026-04-29T11:28:04.094Z</time></trkpt><trkpt lat="36.9390658" lon="-1.3739968"><ele>0.0</ele><time>2026-04-29T11:28:06.093Z</time></trkpt><trkpt lat="36.9391175" lon="-1.3739172"><ele>0.0</ele><time>2026-04-29T11:28:07.093Z</time></trkpt><trkpt lat="36.939169" lon="-1.3738377"><ele>0.0</ele><time>2026-04-29T11:28:08.093Z</time></trkpt><trkpt lat="36.9392222" lon="-1.3737464"><ele>0.0</ele><time>2026-04-29T11:28:09.093Z</time></trkpt><trkpt lat="36.9392793" lon="-1.3736588"><ele>0.0</ele><time>2026-04-29T11:28:10.094Z</time></trkpt><trkpt lat="36.9393364" lon="-1.3735766"><ele>0.0</ele><time>2026-04-29T11:28:11.093Z</time></trkpt><trkpt lat="36.9393928" lon="-1.3734943"><ele>0.0</ele><time>2026-04-29T11:28:12.094Z</time></trkpt><trkpt lat="36.9394456" lon="-1.3734116"><ele>0.0</ele><time>2026-04-29T11:28:13.094Z</time></trkpt><trkpt lat="36.9394947" lon="-1.3733253"><ele>0.0</ele><time>2026-04-29T11:28:14.093Z</time></trkpt><trkpt lat="36.9395502" lon="-1.3732359"><ele>0.0</ele><time>2026-04-29T11:28:15.093Z</time></trkpt><trkpt lat="36.9396053" lon="-1.3731433"><ele>0.0</ele><time>2026-04-29T11:28:16.093Z</time></trkpt><trkpt lat="36.9396615" lon="-1.3730582"><ele>0.0</ele><time>2026-04-29T11:28:17.093Z</time></trkpt><trkpt lat="36.9397138" lon="-1.372972"><ele>0.0</ele><time>2026-04-29T11:28:18.094Z</time></trkpt><trkpt lat="36.9397701" lon="-1.3728868"><ele>0.0</ele><time>2026-04-29T11:28:19.093Z</time></trkpt><trkpt lat="36.9398228" lon="-1.3728007"><ele>0.0</ele><time>2026-04-29T11:28:20.094Z</time></trkpt><trkpt lat="36.9398714" lon="-1.3727167"><ele>0.0</ele><time>2026-04-29T11:28:21.094Z</time></trkpt><trkpt lat="36.939924" lon="-1.3726319"><ele>0.0</ele><time>2026-04-29T11:28:22.093Z</time></trkpt><trkpt lat="36.9399787" lon="-1.3725515"><ele>0.0</ele><time>2026-04-29T11:28:23.094Z</time></trkpt><trkpt lat="36.940039" lon="-1.3724756"><ele>0.0</ele><time>2026-04-29T11:28:24.094Z</time></trkpt><trkpt lat="36.9400993" lon="-1.3723963"><ele>0.0</ele><time>2026-04-29T11:28:25.094Z</time></trkpt><trkpt lat="36.9402125" lon="-1.3722316"><ele>0.0</ele><time>2026-04-29T11:28:27.093Z</time></trkpt><trkpt lat="36.9402687" lon="-1.3721448"><ele>0.0</ele><time>2026-04-29T11:28:28.094Z</time></trkpt><trkpt lat="36.9403249" lon="-1.3720631"><ele>0.0</ele><time>2026-04-29T11:28:29.094Z</time></trkpt><trkpt lat="36.9403804" lon="-1.3719846"><ele>0.0</ele><time>2026-04-29T11:28:30.094Z</time></trkpt><trkpt lat="36.9404308" lon="-1.3719044"><ele>0.0</ele><time>2026-04-29T11:28:31.094Z</time></trkpt><trkpt lat="36.9404882" lon="-1.3718209"><ele>0.0</ele><time>2026-04-29T11:28:32.093Z</time></trkpt><trkpt lat="36.940545" lon="-1.3717328"><ele>0.0</ele><time>2026-04-29T11:28:33.093Z</time></trkpt><trkpt lat="36.9406001" lon="-1.3716457"><ele>0.0</ele><time>2026-04-29T11:28:34.094Z</time></trkpt><trkpt lat="36.940649" lon="-1.371556"><ele>0.0</ele><time>2026-04-29T11:28:35.094Z</time></trkpt><trkpt lat="36.9407092" lon="-1.3714704"><ele>0.0</ele><time>2026-04-29T11:28:36.093Z</time></trkpt><trkpt lat="36.9407694" lon="-1.3713883"><ele>0.0</ele><time>2026-04-29T11:28:37.094Z</time></trkpt><trkpt lat="36.9408235" lon="-1.3713067"><ele>0.0</ele><time>2026-04-29T11:28:38.094Z</time></trkpt><trkpt lat="36.9408816" lon="-1.3712234"><ele>0.0</ele><time>2026-04-29T11:28:39.093Z</time></trkpt><trkpt lat="36.9409397" lon="-1.3711399"><ele>0.0</ele><time>2026-04-29T11:28:40.094Z</time></trkpt><trkpt lat="36.940998" lon="-1.3710551"><ele>0.0</ele><time>2026-04-29T11:28:41.094Z</time></trkpt><trkpt lat="36.941052" lon="-1.3709685"><ele>0.0</ele><time>2026-04-29T11:28:42.093Z</time></trkpt><trkpt lat="36.941111" lon="-1.3708847"><ele>0.0</ele><time>2026-04-29T11:28:43.093Z</time></trkpt><trkpt lat="36.9411693" lon="-1.3707986"><ele>0.0</ele><time>2026-04-29T11:28:44.094Z</time></trkpt><trkpt lat="36.9412248" lon="-1.3707121"><ele>0.0</ele><time>2026-04-29T11:28:45.094Z</time></trkpt><trkpt lat="36.9412827" lon="-1.3706226"><ele>0.0</ele><time>2026-04-29T11:28:46.094Z</time></trkpt><trkpt lat="36.9413977" lon="-1.3704537"><ele>0.0</ele><time>2026-04-29T11:28:48.094Z</time></trkpt><trkpt lat="36.9414536" lon="-1.3703743"><ele>0.0</ele><time>2026-04-29T11:28:49.093Z</time></trkpt><trkpt lat="36.9415087" lon="-1.3702902"><ele>0.0</ele><time>2026-04-29T11:28:50.093Z</time></trkpt><trkpt lat="36.9415621" lon="-1.3702039"><ele>0.0</ele><time>2026-04-29T11:28:51.093Z</time></trkpt><trkpt lat="36.9416117" lon="-1.3701203"><ele>0.0</ele><time>2026-04-29T11:28:52.093Z</time></trkpt><trkpt lat="36.9416639" lon="-1.3700322"><ele>0.0</ele><time>2026-04-29T11:28:53.093Z</time></trkpt><trkpt lat="36.9417228" lon="-1.369947"><ele>0.0</ele><time>2026-04-29T11:28:54.093Z</time></trkpt><trkpt lat="36.9417814" lon="-1.3698617"><ele>0.0</ele><time>2026-04-29T11:28:55.094Z</time></trkpt><trkpt lat="36.9418384" lon="-1.3697728"><ele>0.0</ele><time>2026-04-29T11:28:56.093Z</time></trkpt><trkpt lat="36.9418906" lon="-1.36969"><ele>0.0</ele><time>2026-04-29T11:28:57.094Z</time></trkpt><trkpt lat="36.941948" lon="-1.3696068"><ele>0.0</ele><time>2026-04-29T11:28:58.094Z</time></trkpt><trkpt lat="36.9420036" lon="-1.3695248"><ele>0.0</ele><time>2026-04-29T11:28:59.093Z</time></trkpt><trkpt lat="36.9420645" lon="-1.3694405"><ele>0.0</ele><time>2026-04-29T11:29:00.093Z</time></trkpt><trkpt lat="36.9421242" lon="-1.3693565"><ele>0.0</ele><time>2026-04-29T11:29:01.094Z</time></trkpt><trkpt lat="36.9421755" lon="-1.3692658"><ele>0.0</ele><time>2026-04-29T11:29:02.094Z</time></trkpt><trkpt lat="36.9422285" lon="-1.3691771"><ele>0.0</ele><time>2026-04-29T11:29:03.093Z</time></trkpt><trkpt lat="36.9422822" lon="-1.3690876"><ele>0.0</ele><time>2026-04-29T11:29:04.094Z</time></trkpt><trkpt lat="36.9423326" lon="-1.3690032"><ele>0.0</ele><time>2026-04-29T11:29:05.093Z</time></trkpt><trkpt lat="36.9423954" lon="-1.3689171"><ele>0.0</ele><time>2026-04-29T11:29:06.093Z</time></trkpt><trkpt lat="36.9424545" lon="-1.3688319"><ele>0.0</ele><time>2026-04-29T11:29:07.093Z</time></trkpt><trkpt lat="36.9425636" lon="-1.3686587"><ele>0.0</ele><time>2026-04-29T11:29:09.093Z</time></trkpt><trkpt lat="36.9426242" lon="-1.3685754"><ele>0.0</ele><time>2026-04-29T11:29:10.093Z</time></trkpt><trkpt lat="36.9426801" lon="-1.368492"><ele>0.0</ele><time>2026-04-29T11:29:11.093Z</time></trkpt><trkpt lat="36.9427367" lon="-1.3684097"><ele>0.0</ele><time>2026-04-29T11:29:12.093Z</time></trkpt><trkpt lat="36.9427879" lon="-1.3683323"><ele>0.0</ele><time>2026-04-29T11:29:13.093Z</time></trkpt><trkpt lat="36.9428392" lon="-1.3682497"><ele>0.0</ele><time>2026-04-29T11:29:14.093Z</time></trkpt><trkpt lat="36.9428951" lon="-1.3681665"><ele>0.0</ele><time>2026-04-29T11:29:15.093Z</time></trkpt><trkpt lat="36.9429475" lon="-1.3680846"><ele>0.0</ele><time>2026-04-29T11:29:16.094Z</time></trkpt><trkpt lat="36.9429976" lon="-1.3679957"><ele>0.0</ele><time>2026-04-29T11:29:17.094Z</time></trkpt><trkpt lat="36.9430493" lon="-1.3679105"><ele>0.0</ele><time>2026-04-29T11:29:18.094Z</time></trkpt><trkpt lat="36.943105" lon="-1.3678297"><ele>0.0</ele><time>2026-04-29T11:29:19.093Z</time></trkpt><trkpt lat="36.94316" lon="-1.3677486"><ele>0.0</ele><time>2026-04-29T11:29:20.093Z</time></trkpt><trkpt lat="36.943215" lon="-1.3676633"><ele>0.0</ele><time>2026-04-29T11:29:21.093Z</time></trkpt><trkpt lat="36.9432717" lon="-1.3675741"><ele>0.0</ele><time>2026-04-29T11:29:22.094Z</time></trkpt><trkpt lat="36.9433255" lon="-1.3674858"><ele>0.0</ele><time>2026-04-29T11:29:23.093Z</time></trkpt><trkpt lat="36.9433801" lon="-1.3673987"><ele>0.0</ele><time>2026-04-29T11:29:24.093Z</time></trkpt><trkpt lat="36.9434392" lon="-1.3673176"><ele>0.0</ele><time>2026-04-29T11:29:25.094Z</time></trkpt><trkpt lat="36.9435049" lon="-1.3672376"><ele>0.0</ele><time>2026-04-29T11:29:26.094Z</time></trkpt><trkpt lat="36.9435644" lon="-1.367159"><ele>0.0</ele><time>2026-04-29T11:29:27.094Z</time></trkpt><trkpt lat="36.9436175" lon="-1.3670794"><ele>0.0</ele><time>2026-04-29T11:29:28.094Z</time></trkpt><trkpt lat="36.9437282" lon="-1.3669085"><ele>0.0</ele><time>2026-04-29T11:29:30.094Z</time></trkpt><trkpt lat="36.9437874" lon="-1.3668217"><ele>0.0</ele><time>2026-04-29T11:29:31.093Z</time></trkpt><trkpt lat="36.9438466" lon="-1.3667368"><ele>0.0</ele><time>2026-04-29T11:29:32.093Z</time></trkpt><trkpt lat="36.9438975" lon="-1.3666456"><ele>0.0</ele><time>2026-04-29T11:29:33.093Z</time></trkpt><trkpt lat="36.9439521" lon="-1.3665634"><ele>0.0</ele><time>2026-04-29T11:29:34.092Z</time></trkpt><trkpt lat="36.9440042" lon="-1.3664788"><ele>0.0</ele><time>2026-04-29T11:29:35.092Z</time></trkpt><trkpt lat="36.9440587" lon="-1.3663935"><ele>0.0</ele><time>2026-04-29T11:29:36.092Z</time></trkpt><trkpt lat="36.9441135" lon="-1.366303"><ele>0.0</ele><time>2026-04-29T11:29:37.092Z</time></trkpt><trkpt lat="36.9441684" lon="-1.3662196"><ele>0.0</ele><time>2026-04-29T11:29:38.093Z</time></trkpt><trkpt lat="36.9442318" lon="-1.3661405"><ele>0.0</ele><time>2026-04-29T11:29:39.092Z</time></trkpt><trkpt lat="36.9442869" lon="-1.3660553"><ele>0.0</ele><time>2026-04-29T11:29:40.093Z</time></trkpt><trkpt lat="36.9443408" lon="-1.3659744"><ele>0.0</ele><time>2026-04-29T11:29:41.092Z</time></trkpt><trkpt lat="36.9443885" lon="-1.3658875"><ele>0.0</ele><time>2026-04-29T11:29:42.092Z</time></trkpt><trkpt lat="36.9444406" lon="-1.3657994"><ele>0.0</ele><time>2026-04-29T11:29:43.092Z</time></trkpt><trkpt lat="36.9444954" lon="-1.3657041"><ele>0.0</ele><time>2026-04-29T11:29:44.092Z</time></trkpt><trkpt lat="36.9445488" lon="-1.3656158"><ele>0.0</ele><time>2026-04-29T11:29:45.093Z</time></trkpt><trkpt lat="36.9446048" lon="-1.3655315"><ele>0.0</ele><time>2026-04-29T11:29:46.092Z</time></trkpt><trkpt lat="36.9446599" lon="-1.3654538"><ele>0.0</ele><time>2026-04-29T11:29:47.093Z</time></trkpt><trkpt lat="36.9447165" lon="-1.3653701"><ele>0.0</ele><time>2026-04-29T11:29:48.092Z</time></trkpt><trkpt lat="36.9447718" lon="-1.3652835"><ele>0.0</ele><time>2026-04-29T11:29:49.093Z</time></trkpt><trkpt lat="36.9448818" lon="-1.3651136"><ele>0.0</ele><time>2026-04-29T11:29:51.092Z</time></trkpt><trkpt lat="36.9449353" lon="-1.3650298"><ele>0.0</ele><time>2026-04-29T11:29:52.092Z</time></trkpt><trkpt lat="36.9449916" lon="-1.3649391"><ele>0.0</ele><time>2026-04-29T11:29:53.093Z</time></trkpt><trkpt lat="36.9450437" lon="-1.3648579"><ele>0.0</ele><time>2026-04-29T11:29:54.092Z</time></trkpt><trkpt lat="36.9451014" lon="-1.3647721"><ele>0.0</ele><time>2026-04-29T11:29:55.092Z</time></trkpt><trkpt lat="36.9451539" lon="-1.3646814"><ele>0.0</ele><time>2026-04-29T11:29:56.092Z</time></trkpt><trkpt lat="36.9452158" lon="-1.3646026"><ele>0.0</ele><time>2026-04-29T11:29:57.093Z</time></trkpt><trkpt lat="36.9452745" lon="-1.3645268"><ele>0.0</ele><time>2026-04-29T11:29:58.092Z</time></trkpt><trkpt lat="36.9453229" lon="-1.3644431"><ele>0.0</ele><time>2026-04-29T11:29:59.092Z</time></trkpt><trkpt lat="36.9453826" lon="-1.3643585"><ele>0.0</ele><time>2026-04-29T11:30:00.093Z</time></trkpt><trkpt lat="36.9454412" lon="-1.3642778"><ele>0.0</ele><time>2026-04-29T11:30:01.092Z</time></trkpt><trkpt lat="36.9455013" lon="-1.3641977"><ele>0.0</ele><time>2026-04-29T11:30:02.093Z</time></trkpt><trkpt lat="36.9455555" lon="-1.3641174"><ele>0.0</ele><time>2026-04-29T11:30:03.092Z</time></trkpt><trkpt lat="36.9456117" lon="-1.3640348"><ele>0.0</ele><time>2026-04-29T11:30:04.093Z</time></trkpt><trkpt lat="36.9456684" lon="-1.3639546"><ele>0.0</ele><time>2026-04-29T11:30:05.092Z</time></trkpt><trkpt lat="36.9457249" lon="-1.3638703"><ele>0.0</ele><time>2026-04-29T11:30:06.093Z</time></trkpt><trkpt lat="36.9457804" lon="-1.3637852"><ele>0.0</ele><time>2026-04-29T11:30:07.092Z</time></trkpt><trkpt lat="36.9458381" lon="-1.3636959"><ele>0.0</ele><time>2026-04-29T11:30:08.093Z</time></trkpt><trkpt lat="36.9458951" lon="-1.3636077"><ele>0.0</ele><time>2026-04-29T11:30:09.092Z</time></trkpt><trkpt lat="36.945953" lon="-1.3635221"><ele>0.0</ele><time>2026-04-29T11:30:10.093Z</time></trkpt><trkpt lat="36.9460589" lon="-1.3633601"><ele>0.0</ele><time>2026-04-29T11:30:12.093Z</time></trkpt><trkpt lat="36.9461164" lon="-1.3632796"><ele>0.0</ele><time>2026-04-29T11:30:13.093Z</time></trkpt><trkpt lat="36.9461766" lon="-1.3631934"><ele>0.0</ele><time>2026-04-29T11:30:14.092Z</time></trkpt><trkpt lat="36.9462332" lon="-1.3631118"><ele>0.0</ele><time>2026-04-29T11:30:15.093Z</time></trkpt><trkpt lat="36.9462795" lon="-1.3630212"><ele>0.0</ele><time>2026-04-29T11:30:16.092Z</time></trkpt><trkpt lat="36.9463324" lon="-1.3629399"><ele>0.0</ele><time>2026-04-29T11:30:17.093Z</time></trkpt><trkpt lat="36.9463856" lon="-1.3628579"><ele>0.0</ele><time>2026-04-29T11:30:18.093Z</time></trkpt><trkpt lat="36.9464405" lon="-1.3627718"><ele>0.0</ele><time>2026-04-29T11:30:19.092Z</time></trkpt><trkpt lat="36.9464965" lon="-1.3626811"><ele>0.0</ele><time>2026-04-29T11:30:20.093Z</time></trkpt><trkpt lat="36.9465545" lon="-1.3626022"><ele>0.0</ele><time>2026-04-29T11:30:21.092Z</time></trkpt><trkpt lat="36.9466101" lon="-1.362524"><ele>0.0</ele><time>2026-04-29T11:30:22.093Z</time></trkpt><trkpt lat="36.9466685" lon="-1.3624417"><ele>0.0</ele><time>2026-04-29T11:30:23.092Z</time></trkpt><trkpt lat="36.9467238" lon="-1.3623569"><ele>0.0</ele><time>2026-04-29T11:30:24.093Z</time></trkpt><trkpt lat="36.9467819" lon="-1.3622688"><ele>0.0</ele><time>2026-04-29T11:30:25.092Z</time></trkpt><trkpt lat="36.946837" lon="-1.3621835"><ele>0.0</ele><time>2026-04-29T11:30:26.093Z</time></trkpt><trkpt lat="36.946896" lon="-1.3620969"><ele>0.0</ele><time>2026-04-29T11:30:27.092Z</time></trkpt><trkpt lat="36.9469518" lon="-1.3620147"><ele>0.0</ele><time>2026-04-29T11:30:28.093Z</time></trkpt><trkpt lat="36.9470071" lon="-1.3619302"><ele>0.0</ele><time>2026-04-29T11:30:29.093Z</time></trkpt><trkpt lat="36.9470634" lon="-1.3618437"><ele>0.0</ele><time>2026-04-29T11:30:30.092Z</time></trkpt><trkpt lat="36.9471171" lon="-1.3617628"><ele>0.0</ele><time>2026-04-29T11:30:31.093Z</time></trkpt><trkpt lat="36.9472251" lon="-1.3615963"><ele>0.0</ele><time>2026-04-29T11:30:33.092Z</time></trkpt><trkpt lat="36.9472804" lon="-1.3615134"><ele>0.0</ele><time>2026-04-29T11:30:34.093Z</time></trkpt><trkpt lat="36.9473367" lon="-1.3614285"><ele>0.0</ele><time>2026-04-29T11:30:35.092Z</time></trkpt><trkpt lat="36.9473918" lon="-1.361345"><ele>0.0</ele><time>2026-04-29T11:30:36.092Z</time></trkpt><trkpt lat="36.9474469" lon="-1.3612645"><ele>0.0</ele><time>2026-04-29T11:30:37.092Z</time></trkpt><trkpt lat="36.9475034" lon="-1.3611831"><ele>0.0</ele><time>2026-04-29T11:30:38.093Z</time></trkpt><trkpt lat="36.9475585" lon="-1.3611"><ele>0.0</ele><time>2026-04-29T11:30:39.093Z</time></trkpt><trkpt lat="36.9476149" lon="-1.361011"><ele>0.0</ele><time>2026-04-29T11:30:40.092Z</time></trkpt><trkpt lat="36.9476701" lon="-1.3609268"><ele>0.0</ele><time>2026-04-29T11:30:41.093Z</time></trkpt><trkpt lat="36.9477267" lon="-1.3608404"><ele>0.0</ele><time>2026-04-29T11:30:42.093Z</time></trkpt><trkpt lat="36.9477933" lon="-1.3607596"><ele>0.0</ele><time>2026-04-29T11:30:43.093Z</time></trkpt><trkpt lat="36.9478559" lon="-1.3606752"><ele>0.0</ele><time>2026-04-29T11:30:44.092Z</time></trkpt><trkpt lat="36.9479119" lon="-1.3605946"><ele>0.0</ele><time>2026-04-29T11:30:45.092Z</time></trkpt><trkpt lat="36.9479665" lon="-1.3605159"><ele>0.0</ele><time>2026-04-29T11:30:46.093Z</time></trkpt><trkpt lat="36.9480229" lon="-1.3604317"><ele>0.0</ele><time>2026-04-29T11:30:47.093Z</time></trkpt><trkpt lat="36.9480799" lon="-1.3603454"><ele>0.0</ele><time>2026-04-29T11:30:48.093Z</time></trkpt><trkpt lat="36.948131" lon="-1.3602616"><ele>0.0</ele><time>2026-04-29T11:30:49.093Z</time></trkpt><trkpt lat="36.9481878" lon="-1.3601769"><ele>0.0</ele><time>2026-04-29T11:30:50.092Z</time></trkpt><trkpt lat="36.9482462" lon="-1.3600917"><ele>0.0</ele><time>2026-04-29T11:30:51.093Z</time></trkpt><trkpt lat="36.9483007" lon="-1.3600081"><ele>0.0</ele><time>2026-04-29T11:30:52.093Z</time></trkpt><trkpt lat="36.9484116" lon="-1.3598333"><ele>0.0</ele><time>2026-04-29T11:30:54.092Z</time></trkpt><trkpt lat="36.948468" lon="-1.3597475"><ele>0.0</ele><time>2026-04-29T11:30:55.092Z</time></trkpt><trkpt lat="36.9485234" lon="-1.3596621"><ele>0.0</ele><time>2026-04-29T11:30:56.093Z</time></trkpt><trkpt lat="36.9485785" lon="-1.3595755"><ele>0.0</ele><time>2026-04-29T11:30:57.092Z</time></trkpt><trkpt lat="36.9486306" lon="-1.3594886"><ele>0.0</ele><time>2026-04-29T11:30:58.092Z</time></trkpt><trkpt lat="36.9486868" lon="-1.3594049"><ele>0.0</ele><time>2026-04-29T11:30:59.093Z</time></trkpt><trkpt lat="36.9487462" lon="-1.3593246"><ele>0.0</ele><time>2026-04-29T11:31:00.093Z</time></trkpt><trkpt lat="36.9487989" lon="-1.3592472"><ele>0.0</ele><time>2026-04-29T11:31:01.092Z</time></trkpt><trkpt lat="36.9488553" lon="-1.3591637"><ele>0.0</ele><time>2026-04-29T11:31:02.093Z</time></trkpt><trkpt lat="36.9489132" lon="-1.3590775"><ele>0.0</ele><time>2026-04-29T11:31:03.092Z</time></trkpt><trkpt lat="36.9489644" lon="-1.3589908"><ele>0.0</ele><time>2026-04-29T11:31:04.093Z</time></trkpt><trkpt lat="36.9490174" lon="-1.3589108"><ele>0.0</ele><time>2026-04-29T11:31:05.092Z</time></trkpt><trkpt lat="36.9490663" lon="-1.3588211"><ele>0.0</ele><time>2026-04-29T11:31:06.092Z</time></trkpt><trkpt lat="36.9491204" lon="-1.358734"><ele>0.0</ele><time>2026-04-29T11:31:07.093Z</time></trkpt><trkpt lat="36.949181" lon="-1.3586499"><ele>0.0</ele><time>2026-04-29T11:31:08.092Z</time></trkpt><trkpt lat="36.9492382" lon="-1.3585696"><ele>0.0</ele><time>2026-04-29T11:31:09.092Z</time></trkpt><trkpt lat="36.9492978" lon="-1.3584878"><ele>0.0</ele><time>2026-04-29T11:31:10.093Z</time></trkpt><trkpt lat="36.9493548" lon="-1.3584006"><ele>0.0</ele><time>2026-04-29T11:31:11.093Z</time></trkpt><trkpt lat="36.9494086" lon="-1.3583094"><ele>0.0</ele><time>2026-04-29T11:31:12.093Z</time></trkpt><trkpt lat="36.949462" lon="-1.3582259"><ele>0.0</ele><time>2026-04-29T11:31:13.093Z</time></trkpt><trkpt lat="36.9495651" lon="-1.3580529"><ele>0.0</ele><time>2026-04-29T11:31:15.093Z</time></trkpt><trkpt lat="36.9496216" lon="-1.3579666"><ele>0.0</ele><time>2026-04-29T11:31:16.093Z</time></trkpt><trkpt lat="36.9496753" lon="-1.3578829"><ele>0.0</ele><time>2026-04-29T11:31:17.092Z</time></trkpt><trkpt lat="36.9497313" lon="-1.3577996"><ele>0.0</ele><time>2026-04-29T11:31:18.093Z</time></trkpt><trkpt lat="36.9497896" lon="-1.3577136"><ele>0.0</ele><time>2026-04-29T11:31:19.092Z</time></trkpt><trkpt lat="36.9498465" lon="-1.3576268"><ele>0.0</ele><time>2026-04-29T11:31:20.092Z</time></trkpt><trkpt lat="36.9499028" lon="-1.3575387"><ele>0.0</ele><time>2026-04-29T11:31:21.092Z</time></trkpt><trkpt lat="36.9499622" lon="-1.357449"><ele>0.0</ele><time>2026-04-29T11:31:22.092Z</time></trkpt><trkpt lat="36.9500195" lon="-1.3573588"><ele>0.0</ele><time>2026-04-29T11:31:23.092Z</time></trkpt><trkpt lat="36.9500777" lon="-1.3572734"><ele>0.0</ele><time>2026-04-29T11:31:24.092Z</time></trkpt><trkpt lat="36.9501331" lon="-1.3571913"><ele>0.0</ele><time>2026-04-29T11:31:25.093Z</time></trkpt><trkpt lat="36.9501884" lon="-1.3571065"><ele>0.0</ele><time>2026-04-29T11:31:26.092Z</time></trkpt><trkpt lat="36.9502377" lon="-1.3570184"><ele>0.0</ele><time>2026-04-29T11:31:27.092Z</time></trkpt><trkpt lat="36.9502947" lon="-1.3569332"><ele>0.0</ele><time>2026-04-29T11:31:28.092Z</time></trkpt><trkpt lat="36.9503472" lon="-1.3568497"><ele>0.0</ele><time>2026-04-29T11:31:29.092Z</time></trkpt><trkpt lat="36.950402" lon="-1.3567678"><ele>0.0</ele><time>2026-04-29T11:31:30.092Z</time></trkpt><trkpt lat="36.9504584" lon="-1.3566847"><ele>0.0</ele><time>2026-04-29T11:31:31.092Z</time></trkpt><trkpt lat="36.9505149" lon="-1.356603"><ele>0.0</ele><time>2026-04-29T11:31:32.092Z</time></trkpt><trkpt lat="36.95057" lon="-1.3565216"><ele>0.0</ele><time>2026-04-29T11:31:33.093Z</time></trkpt><trkpt lat="36.9506265" lon="-1.3564413"><ele>0.0</ele><time>2026-04-29T11:31:34.092Z</time></trkpt><trkpt lat="36.9507317" lon="-1.3562651"><ele>0.0</ele><time>2026-04-29T11:31:36.092Z</time></trkpt><trkpt lat="36.9507878" lon="-1.3561813"><ele>0.0</ele><time>2026-04-29T11:31:37.092Z</time></trkpt><trkpt lat="36.9508411" lon="-1.356096"><ele>0.0</ele><time>2026-04-29T11:31:38.093Z</time></trkpt><trkpt lat="36.9508926" lon="-1.3560089"><ele>0.0</ele><time>2026-04-29T11:31:39.093Z</time></trkpt><trkpt lat="36.9509482" lon="-1.3559234"><ele>0.0</ele><time>2026-04-29T11:31:40.092Z</time></trkpt><trkpt lat="36.9510038" lon="-1.3558403"><ele>0.0</ele><time>2026-04-29T11:31:41.092Z</time></trkpt><trkpt lat="36.9510572" lon="-1.3557553"><ele>0.0</ele><time>2026-04-29T11:31:42.093Z</time></trkpt><trkpt lat="36.9511147" lon="-1.3556702"><ele>0.0</ele><time>2026-04-29T11:31:43.093Z</time></trkpt><trkpt lat="36.9511715" lon="-1.3555882"><ele>0.0</ele><time>2026-04-29T11:31:44.093Z</time></trkpt><trkpt lat="36.9512295" lon="-1.3555036"><ele>0.0</ele><time>2026-04-29T11:31:45.092Z</time></trkpt><trkpt lat="36.9512954" lon="-1.3554246"><ele>0.0</ele><time>2026-04-29T11:31:46.092Z</time></trkpt><trkpt lat="36.9513551" lon="-1.3553467"><ele>0.0</ele><time>2026-04-29T11:31:47.093Z</time></trkpt><trkpt lat="36.9514132" lon="-1.3552638"><ele>0.0</ele><time>2026-04-29T11:31:48.093Z</time></trkpt><trkpt lat="36.9514657" lon="-1.3551853"><ele>0.0</ele><time>2026-04-29T11:31:49.093Z</time></trkpt><trkpt lat="36.9515199" lon="-1.3551102"><ele>0.0</ele><time>2026-04-29T11:31:50.093Z</time></trkpt><trkpt lat="36.9515753" lon="-1.3550255"><ele>0.0</ele><time>2026-04-29T11:31:51.092Z</time></trkpt><trkpt lat="36.9516344" lon="-1.3549418"><ele>0.0</ele><time>2026-04-29T11:31:52.092Z</time></trkpt><trkpt lat="36.9516957" lon="-1.3548583"><ele>0.0</ele><time>2026-04-29T11:31:53.092Z</time></trkpt><trkpt lat="36.951756" lon="-1.3547776"><ele>0.0</ele><time>2026-04-29T11:31:54.093Z</time></trkpt><trkpt lat="36.9518133" lon="-1.354696"><ele>0.0</ele><time>2026-04-29T11:31:55.092Z</time></trkpt><trkpt lat="36.951927" lon="-1.3545242"><ele>0.0</ele><time>2026-04-29T11:31:57.092Z</time></trkpt><trkpt lat="36.9519851" lon="-1.3544389"><ele>0.0</ele><time>2026-04-29T11:31:58.092Z</time></trkpt><trkpt lat="36.9520363" lon="-1.3543536"><ele>0.0</ele><time>2026-04-29T11:31:59.092Z</time></trkpt><trkpt lat="36.952092" lon="-1.3542702"><ele>0.0</ele><time>2026-04-29T11:32:00.092Z</time></trkpt><trkpt lat="36.9521474" lon="-1.3541864"><ele>0.0</ele><time>2026-04-29T11:32:01.092Z</time></trkpt><trkpt lat="36.9522065" lon="-1.354099"><ele>0.0</ele><time>2026-04-29T11:32:02.092Z</time></trkpt><trkpt lat="36.9522636" lon="-1.3540108"><ele>0.0</ele><time>2026-04-29T11:32:03.093Z</time></trkpt><trkpt lat="36.9523201" lon="-1.3539237"><ele>0.0</ele><time>2026-04-29T11:32:04.092Z</time></trkpt><trkpt lat="36.9523751" lon="-1.3538344"><ele>0.0</ele><time>2026-04-29T11:32:05.092Z</time></trkpt><trkpt lat="36.9524274" lon="-1.3537416"><ele>0.0</ele><time>2026-04-29T11:32:06.093Z</time></trkpt><trkpt lat="36.9524863" lon="-1.3536599"><ele>0.0</ele><time>2026-04-29T11:32:07.093Z</time></trkpt><trkpt lat="36.9525433" lon="-1.3535723"><ele>0.0</ele><time>2026-04-29T11:32:08.092Z</time></trkpt><trkpt lat="36.9525959" lon="-1.3534885"><ele>0.0</ele><time>2026-04-29T11:32:09.093Z</time></trkpt><trkpt lat="36.9526502" lon="-1.3534104"><ele>0.0</ele><time>2026-04-29T11:32:10.093Z</time></trkpt><trkpt lat="36.9527038" lon="-1.3533309"><ele>0.0</ele><time>2026-04-29T11:32:11.093Z</time></trkpt><trkpt lat="36.95276" lon="-1.3532468"><ele>0.0</ele><time>2026-04-29T11:32:12.093Z</time></trkpt><trkpt lat="36.9528194" lon="-1.3531675"><ele>0.0</ele><time>2026-04-29T11:32:13.093Z</time></trkpt><trkpt lat="36.9528778" lon="-1.3530906"><ele>0.0</ele><time>2026-04-29T11:32:14.093Z</time></trkpt><trkpt lat="36.9529302" lon="-1.3530139"><ele>0.0</ele><time>2026-04-29T11:32:15.093Z</time></trkpt><trkpt lat="36.9529848" lon="-1.3529326"><ele>0.0</ele><time>2026-04-29T11:32:16.093Z</time></trkpt><trkpt lat="36.9530994" lon="-1.3527652"><ele>0.0</ele><time>2026-04-29T11:32:18.093Z</time></trkpt><trkpt lat="36.9531522" lon="-1.3526814"><ele>0.0</ele><time>2026-04-29T11:32:19.092Z</time></trkpt><trkpt lat="36.9532056" lon="-1.3525897"><ele>0.0</ele><time>2026-04-29T11:32:20.092Z</time></trkpt><trkpt lat="36.9532589" lon="-1.3524981"><ele>0.0</ele><time>2026-04-29T11:32:21.092Z</time></trkpt><trkpt lat="36.9533079" lon="-1.3524052"><ele>0.0</ele><time>2026-04-29T11:32:22.092Z</time></trkpt><trkpt lat="36.9533549" lon="-1.3523156"><ele>0.0</ele><time>2026-04-29T11:32:23.092Z</time></trkpt><trkpt lat="36.9534031" lon="-1.3522256"><ele>0.0</ele><time>2026-04-29T11:32:24.093Z</time></trkpt><trkpt lat="36.9534554" lon="-1.3521384"><ele>0.0</ele><time>2026-04-29T11:32:25.093Z</time></trkpt><trkpt lat="36.9535075" lon="-1.3520492"><ele>0.0</ele><time>2026-04-29T11:32:26.093Z</time></trkpt><trkpt lat="36.9535619" lon="-1.351968"><ele>0.0</ele><time>2026-04-29T11:32:27.092Z</time></trkpt><trkpt lat="36.9536154" lon="-1.3518887"><ele>0.0</ele><time>2026-04-29T11:32:28.092Z</time></trkpt><trkpt lat="36.9536702" lon="-1.3518036"><ele>0.0</ele><time>2026-04-29T11:32:29.093Z</time></trkpt><trkpt lat="36.953725" lon="-1.3517156"><ele>0.0</ele><time>2026-04-29T11:32:30.092Z</time></trkpt><trkpt lat="36.9537887" lon="-1.3516317"><ele>0.0</ele><time>2026-04-29T11:32:31.092Z</time></trkpt><trkpt lat="36.9538533" lon="-1.3515466"><ele>0.0</ele><time>2026-04-29T11:32:32.093Z</time></trkpt><trkpt lat="36.9539185" lon="-1.3514602"><ele>0.0</ele><time>2026-04-29T11:32:33.092Z</time></trkpt><trkpt lat="36.9539793" lon="-1.3513807"><ele>0.0</ele><time>2026-04-29T11:32:34.093Z</time></trkpt><trkpt lat="36.9540366" lon="-1.351298"><ele>0.0</ele><time>2026-04-29T11:32:35.093Z</time></trkpt><trkpt lat="36.9540918" lon="-1.3512192"><ele>0.0</ele><time>2026-04-29T11:32:36.093Z</time></trkpt><trkpt lat="36.9541445" lon="-1.3511385"><ele>0.0</ele><time>2026-04-29T11:32:37.093Z</time></trkpt><trkpt lat="36.9542568" lon="-1.3509621"><ele>0.0</ele><time>2026-04-29T11:32:39.093Z</time></trkpt><trkpt lat="36.9543177" lon="-1.3508802"><ele>0.0</ele><time>2026-04-29T11:32:40.093Z</time></trkpt><trkpt lat="36.9543794" lon="-1.3507929"><ele>0.0</ele><time>2026-04-29T11:32:41.092Z</time></trkpt><trkpt lat="36.9544363" lon="-1.3507087"><ele>0.0</ele><time>2026-04-29T11:32:42.093Z</time></trkpt><trkpt lat="36.9544918" lon="-1.3506307"><ele>0.0</ele><time>2026-04-29T11:32:43.093Z</time></trkpt><trkpt lat="36.9545479" lon="-1.3505552"><ele>0.0</ele><time>2026-04-29T11:32:44.092Z</time></trkpt><trkpt lat="36.9546104" lon="-1.350477"><ele>0.0</ele><time>2026-04-29T11:32:45.092Z</time></trkpt><trkpt lat="36.9546655" lon="-1.3503937"><ele>0.0</ele><time>2026-04-29T11:32:46.093Z</time></trkpt><trkpt lat="36.954716" lon="-1.3503031"><ele>0.0</ele><time>2026-04-29T11:32:47.093Z</time></trkpt><trkpt lat="36.9547703" lon="-1.3502242"><ele>0.0</ele><time>2026-04-29T11:32:48.092Z</time></trkpt><trkpt lat="36.9548272" lon="-1.3501421"><ele>0.0</ele><time>2026-04-29T11:32:49.092Z</time></trkpt><trkpt lat="36.9548865" lon="-1.3500584"><ele>0.0</ele><time>2026-04-29T11:32:50.092Z</time></trkpt><trkpt lat="36.9549436" lon="-1.3499781"><ele>0.0</ele><time>2026-04-29T11:32:51.092Z</time></trkpt><trkpt lat="36.9550014" lon="-1.3498934"><ele>0.0</ele><time>2026-04-29T11:32:52.093Z</time></trkpt><trkpt lat="36.9550615" lon="-1.3498069"><ele>0.0</ele><time>2026-04-29T11:32:53.093Z</time></trkpt><trkpt lat="36.9551183" lon="-1.3497203"><ele>0.0</ele><time>2026-04-29T11:32:54.092Z</time></trkpt><trkpt lat="36.9551766" lon="-1.3496395"><ele>0.0</ele><time>2026-04-29T11:32:55.092Z</time></trkpt><trkpt lat="36.955235" lon="-1.3495509"><ele>0.0</ele><time>2026-04-29T11:32:56.093Z</time></trkpt><trkpt lat="36.9552892" lon="-1.349467"><ele>0.0</ele><time>2026-04-29T11:32:57.092Z</time></trkpt><trkpt lat="36.9553441" lon="-1.3493807"><ele>0.0</ele><time>2026-04-29T11:32:58.092Z</time></trkpt><trkpt lat="36.9554557" lon="-1.3492114"><ele>0.0</ele><time>2026-04-29T11:33:00.093Z</time></trkpt><trkpt lat="36.9555102" lon="-1.3491294"><ele>0.0</ele><time>2026-04-29T11:33:01.092Z</time></trkpt><trkpt lat="36.9555653" lon="-1.3490436"><ele>0.0</ele><time>2026-04-29T11:33:02.092Z</time></trkpt><trkpt lat="36.9556216" lon="-1.3489601"><ele>0.0</ele><time>2026-04-29T11:33:03.093Z</time></trkpt><trkpt lat="36.9556798" lon="-1.3488712"><ele>0.0</ele><time>2026-04-29T11:33:04.092Z</time></trkpt><trkpt lat="36.9557395" lon="-1.3487828"><ele>0.0</ele><time>2026-04-29T11:33:05.093Z</time></trkpt><trkpt lat="36.9557939" lon="-1.3486981"><ele>0.0</ele><time>2026-04-29T11:33:06.092Z</time></trkpt><trkpt lat="36.9558446" lon="-1.3486192"><ele>0.0</ele><time>2026-04-29T11:33:07.092Z</time></trkpt><trkpt lat="36.9558986" lon="-1.3485337"><ele>0.0</ele><time>2026-04-29T11:33:08.092Z</time></trkpt><trkpt lat="36.9559521" lon="-1.3484529"><ele>0.0</ele><time>2026-04-29T11:33:09.093Z</time></trkpt><trkpt lat="36.956004" lon="-1.3483657"><ele>0.0</ele><time>2026-04-29T11:33:10.092Z</time></trkpt><trkpt lat="36.95606" lon="-1.3482841"><ele>0.0</ele><time>2026-04-29T11:33:11.093Z</time></trkpt><trkpt lat="36.9561124" lon="-1.3482001"><ele>0.0</ele><time>2026-04-29T11:33:12.093Z</time></trkpt><trkpt lat="36.95617" lon="-1.3481106"><ele>0.0</ele><time>2026-04-29T11:33:13.093Z</time></trkpt><trkpt lat="36.9562209" lon="-1.3480253"><ele>0.0</ele><time>2026-04-29T11:33:14.092Z</time></trkpt><trkpt lat="36.9562726" lon="-1.3479415"><ele>0.0</ele><time>2026-04-29T11:33:15.092Z</time></trkpt><trkpt lat="36.9563311" lon="-1.3478551"><ele>0.0</ele><time>2026-04-29T11:33:16.093Z</time></trkpt><trkpt lat="36.9563869" lon="-1.3477673"><ele>0.0</ele><time>2026-04-29T11:33:17.093Z</time></trkpt><trkpt lat="36.956439" lon="-1.3476833"><ele>0.0</ele><time>2026-04-29T11:33:18.092Z</time></trkpt><trkpt lat="36.9564909" lon="-1.3475983"><ele>0.0</ele><time>2026-04-29T11:33:19.092Z</time></trkpt><trkpt lat="36.9565944" lon="-1.3474315"><ele>0.0</ele><time>2026-04-29T11:33:21.092Z</time></trkpt><trkpt lat="36.9566528" lon="-1.3473455"><ele>0.0</ele><time>2026-04-29T11:33:22.092Z</time></trkpt><trkpt lat="36.9567067" lon="-1.3472613"><ele>0.0</ele><time>2026-04-29T11:33:23.093Z</time></trkpt><trkpt lat="36.9567658" lon="-1.3471735"><ele>0.0</ele><time>2026-04-29T11:33:24.092Z</time></trkpt><trkpt lat="36.9568258" lon="-1.3470925"><ele>0.0</ele><time>2026-04-29T11:33:25.092Z</time></trkpt><trkpt lat="36.9568887" lon="-1.3470109"><ele>0.0</ele><time>2026-04-29T11:33:26.093Z</time></trkpt><trkpt lat="36.9569519" lon="-1.3469264"><ele>0.0</ele><time>2026-04-29T11:33:27.093Z</time></trkpt><trkpt lat="36.9570081" lon="-1.3468505"><ele>0.0</ele><time>2026-04-29T11:33:28.092Z</time></trkpt><trkpt lat="36.9570618" lon="-1.346768"><ele>0.0</ele><time>2026-04-29T11:33:29.092Z</time></trkpt><trkpt lat="36.9571139" lon="-1.3466893"><ele>0.0</ele><time>2026-04-29T11:33:30.093Z</time></trkpt><trkpt lat="36.9571697" lon="-1.3466036"><ele>0.0</ele><time>2026-04-29T11:33:31.093Z</time></trkpt><trkpt lat="36.9572252" lon="-1.3465171"><ele>0.0</ele><time>2026-04-29T11:33:32.092Z</time></trkpt><trkpt lat="36.9572843" lon="-1.3464246"><ele>0.0</ele><time>2026-04-29T11:33:33.092Z</time></trkpt><trkpt lat="36.9573416" lon="-1.3463334"><ele>0.0</ele><time>2026-04-29T11:33:34.092Z</time></trkpt><trkpt lat="36.9574025" lon="-1.3462484"><ele>0.0</ele><time>2026-04-29T11:33:35.092Z</time></trkpt><trkpt lat="36.9574627" lon="-1.3461708"><ele>0.0</ele><time>2026-04-29T11:33:36.093Z</time></trkpt><trkpt lat="36.9575183" lon="-1.3460883"><ele>0.0</ele><time>2026-04-29T11:33:37.093Z</time></trkpt><trkpt lat="36.9575718" lon="-1.3460022"><ele>0.0</ele><time>2026-04-29T11:33:38.092Z</time></trkpt><trkpt lat="36.9576209" lon="-1.3459142"><ele>0.0</ele><time>2026-04-29T11:33:39.092Z</time></trkpt><trkpt lat="36.9576739" lon="-1.3458272"><ele>0.0</ele><time>2026-04-29T11:33:40.092Z</time></trkpt><trkpt lat="36.9577851" lon="-1.3456553"><ele>0.0</ele><time>2026-04-29T11:33:42.092Z</time></trkpt><trkpt lat="36.9578417" lon="-1.3455678"><ele>0.0</ele><time>2026-04-29T11:33:43.092Z</time></trkpt><trkpt lat="36.9578969" lon="-1.3454807"><ele>0.0</ele><time>2026-04-29T11:33:44.092Z</time></trkpt><trkpt lat="36.9579475" lon="-1.3453909"><ele>0.0</ele><time>2026-04-29T11:33:45.093Z</time></trkpt><trkpt lat="36.9580032" lon="-1.3453066"><ele>0.0</ele><time>2026-04-29T11:33:46.092Z</time></trkpt><trkpt lat="36.9580586" lon="-1.3452178"><ele>0.0</ele><time>2026-04-29T11:33:47.093Z</time></trkpt><trkpt lat="36.9581148" lon="-1.3451319"><ele>0.0</ele><time>2026-04-29T11:33:48.092Z</time></trkpt><trkpt lat="36.9581716" lon="-1.3450479"><ele>0.0</ele><time>2026-04-29T11:33:49.093Z</time></trkpt><trkpt lat="36.9582269" lon="-1.344962"><ele>0.0</ele><time>2026-04-29T11:33:50.092Z</time></trkpt><trkpt lat="36.9582789" lon="-1.3448742"><ele>0.0</ele><time>2026-04-29T11:33:51.093Z</time></trkpt><trkpt lat="36.9583367" lon="-1.3447874"><ele>0.0</ele><time>2026-04-29T11:33:52.093Z</time></trkpt><trkpt lat="36.9583946" lon="-1.344703"><ele>0.0</ele><time>2026-04-29T11:33:53.092Z</time></trkpt><trkpt lat="36.9584515" lon="-1.3446238"><ele>0.0</ele><time>2026-04-29T11:33:54.092Z</time></trkpt><trkpt lat="36.9585095" lon="-1.3445411"><ele>0.0</ele><time>2026-04-29T11:33:55.092Z</time></trkpt><trkpt lat="36.9585696" lon="-1.344454"><ele>0.0</ele><time>2026-04-29T11:33:56.092Z</time></trkpt><trkpt lat="36.958628" lon="-1.3443699"><ele>0.0</ele><time>2026-04-29T11:33:57.093Z</time></trkpt><trkpt lat="36.958682" lon="-1.3442881"><ele>0.0</ele><time>2026-04-29T11:33:58.093Z</time></trkpt><trkpt lat="36.9587351" lon="-1.3441961"><ele>0.0</ele><time>2026-04-29T11:33:59.092Z</time></trkpt><trkpt lat="36.9587886" lon="-1.3441116"><ele>0.0</ele><time>2026-04-29T11:34:00.092Z</time></trkpt><trkpt lat="36.958845" lon="-1.344031"><ele>0.0</ele><time>2026-04-29T11:34:01.092Z</time></trkpt><trkpt lat="36.9589537" lon="-1.3438686"><ele>0.0</ele><time>2026-04-29T11:34:03.093Z</time></trkpt><trkpt lat="36.9590041" lon="-1.3437838"><ele>0.0</ele><time>2026-04-29T11:34:04.093Z</time></trkpt><trkpt lat="36.9590612" lon="-1.3436972"><ele>0.0</ele><time>2026-04-29T11:34:05.092Z</time></trkpt><trkpt lat="36.9591136" lon="-1.3436186"><ele>0.0</ele><time>2026-04-29T11:34:06.093Z</time></trkpt><trkpt lat="36.959167" lon="-1.3435362"><ele>0.0</ele><time>2026-04-29T11:34:07.092Z</time></trkpt><trkpt lat="36.9592272" lon="-1.3434503"><ele>0.0</ele><time>2026-04-29T11:34:08.093Z</time></trkpt><trkpt lat="36.9592818" lon="-1.3433692"><ele>0.0</ele><time>2026-04-29T11:34:09.093Z</time></trkpt><trkpt lat="36.9593336" lon="-1.3432792"><ele>0.0</ele><time>2026-04-29T11:34:10.092Z</time></trkpt><trkpt lat="36.9593882" lon="-1.3431965"><ele>0.0</ele><time>2026-04-29T11:34:11.092Z</time></trkpt><trkpt lat="36.9594433" lon="-1.3431148"><ele>0.0</ele><time>2026-04-29T11:34:12.093Z</time></trkpt><trkpt lat="36.9595" lon="-1.3430258"><ele>0.0</ele><time>2026-04-29T11:34:13.093Z</time></trkpt><trkpt lat="36.9595483" lon="-1.3429402"><ele>0.0</ele><time>2026-04-29T11:34:14.093Z</time></trkpt><trkpt lat="36.9595993" lon="-1.342858"><ele>0.0</ele><time>2026-04-29T11:34:15.093Z</time></trkpt><trkpt lat="36.959652" lon="-1.3427734"><ele>0.0</ele><time>2026-04-29T11:34:16.093Z</time></trkpt><trkpt lat="36.9597051" lon="-1.3426811"><ele>0.0</ele><time>2026-04-29T11:34:17.092Z</time></trkpt><trkpt lat="36.9597644" lon="-1.342601"><ele>0.0</ele><time>2026-04-29T11:34:18.092Z</time></trkpt><trkpt lat="36.9598243" lon="-1.3425139"><ele>0.0</ele><time>2026-04-29T11:34:19.092Z</time></trkpt><trkpt lat="36.9598784" lon="-1.3424186"><ele>0.0</ele><time>2026-04-29T11:34:20.093Z</time></trkpt><trkpt lat="36.9599302" lon="-1.3423315"><ele>0.0</ele><time>2026-04-29T11:34:21.092Z</time></trkpt><trkpt lat="36.9599823" lon="-1.342247"><ele>0.0</ele><time>2026-04-29T11:34:22.092Z</time></trkpt><trkpt lat="36.9600961" lon="-1.3420783"><ele>0.0</ele><time>2026-04-29T11:34:24.093Z</time></trkpt><trkpt lat="36.9601519" lon="-1.3419975"><ele>0.0</ele><time>2026-04-29T11:34:25.092Z</time></trkpt><trkpt lat="36.960204" lon="-1.3419106"><ele>0.0</ele><time>2026-04-29T11:34:26.092Z</time></trkpt><trkpt lat="36.9602556" lon="-1.3418236"><ele>0.0</ele><time>2026-04-29T11:34:27.092Z</time></trkpt><trkpt lat="36.9603127" lon="-1.3417396"><ele>0.0</ele><time>2026-04-29T11:34:28.092Z</time></trkpt><trkpt lat="36.9603681" lon="-1.3416578"><ele>0.0</ele><time>2026-04-29T11:34:29.092Z</time></trkpt><trkpt lat="36.9604218" lon="-1.3415715"><ele>0.0</ele><time>2026-04-29T11:34:30.092Z</time></trkpt><trkpt lat="36.9604822" lon="-1.3414835"><ele>0.0</ele><time>2026-04-29T11:34:31.093Z</time></trkpt><trkpt lat="36.9605384" lon="-1.3413956"><ele>0.0</ele><time>2026-04-29T11:34:32.092Z</time></trkpt><trkpt lat="36.9605962" lon="-1.3413115"><ele>0.0</ele><time>2026-04-29T11:34:33.093Z</time></trkpt><trkpt lat="36.9606504" lon="-1.3412281"><ele>0.0</ele><time>2026-04-29T11:34:34.093Z</time></trkpt><trkpt lat="36.9607081" lon="-1.3411406"><ele>0.0</ele><time>2026-04-29T11:34:35.093Z</time></trkpt><trkpt lat="36.960762" lon="-1.341055"><ele>0.0</ele><time>2026-04-29T11:34:36.093Z</time></trkpt><trkpt lat="36.9608165" lon="-1.3409713"><ele>0.0</ele><time>2026-04-29T11:34:37.092Z</time></trkpt><trkpt lat="36.9608673" lon="-1.3408906"><ele>0.0</ele><time>2026-04-29T11:34:38.093Z</time></trkpt><trkpt lat="36.9609159" lon="-1.3408074"><ele>0.0</ele><time>2026-04-29T11:34:39.093Z</time></trkpt><trkpt lat="36.9609699" lon="-1.3407249"><ele>0.0</ele><time>2026-04-29T11:34:40.092Z</time></trkpt><trkpt lat="36.9610209" lon="-1.3406388"><ele>0.0</ele><time>2026-04-29T11:34:41.092Z</time></trkpt><trkpt lat="36.9610751" lon="-1.3405534"><ele>0.0</ele><time>2026-04-29T11:34:42.093Z</time></trkpt><trkpt lat="36.9611355" lon="-1.3404653"><ele>0.0</ele><time>2026-04-29T11:34:43.093Z</time></trkpt><trkpt lat="36.9612566" lon="-1.3402996"><ele>0.0</ele><time>2026-04-29T11:34:45.092Z</time></trkpt><trkpt lat="36.9613104" lon="-1.3402208"><ele>0.0</ele><time>2026-04-29T11:34:46.092Z</time></trkpt><trkpt lat="36.9613653" lon="-1.3401352"><ele>0.0</ele><time>2026-04-29T11:34:47.093Z</time></trkpt><trkpt lat="36.96142" lon="-1.3400491"><ele>0.0</ele><time>2026-04-29T11:34:48.092Z</time></trkpt><trkpt lat="36.9614705" lon="-1.3399662"><ele>0.0</ele><time>2026-04-29T11:34:49.093Z</time></trkpt><trkpt lat="36.9615291" lon="-1.3398833"><ele>0.0</ele><time>2026-04-29T11:34:50.092Z</time></trkpt><trkpt lat="36.9615865" lon="-1.3397956"><ele>0.0</ele><time>2026-04-29T11:34:51.092Z</time></trkpt><trkpt lat="36.9616445" lon="-1.339709"><ele>0.0</ele><time>2026-04-29T11:34:52.092Z</time></trkpt><trkpt lat="36.9617016" lon="-1.339631"><ele>0.0</ele><time>2026-04-29T11:34:53.093Z</time></trkpt><trkpt lat="36.9617573" lon="-1.3395498"><ele>0.0</ele><time>2026-04-29T11:34:54.092Z</time></trkpt><trkpt lat="36.9618176" lon="-1.3394708"><ele>0.0</ele><time>2026-04-29T11:34:55.092Z</time></trkpt><trkpt lat="36.9618749" lon="-1.3393909"><ele>0.0</ele><time>2026-04-29T11:34:56.092Z</time></trkpt><trkpt lat="36.9619301" lon="-1.3392993"><ele>0.0</ele><time>2026-04-29T11:34:57.092Z</time></trkpt><trkpt lat="36.961981" lon="-1.3392135"><ele>0.0</ele><time>2026-04-29T11:34:58.092Z</time></trkpt><trkpt lat="36.9620326" lon="-1.3391326"><ele>0.0</ele><time>2026-04-29T11:34:59.092Z</time></trkpt><trkpt lat="36.9620859" lon="-1.3390499"><ele>0.0</ele><time>2026-04-29T11:35:00.092Z</time></trkpt><trkpt lat="36.962139" lon="-1.3389623"><ele>0.0</ele><time>2026-04-29T11:35:01.093Z</time></trkpt><trkpt lat="36.9621938" lon="-1.3388714"><ele>0.0</ele><time>2026-04-29T11:35:02.092Z</time></trkpt><trkpt lat="36.9622544" lon="-1.3387823"><ele>0.0</ele><time>2026-04-29T11:35:03.093Z</time></trkpt><trkpt lat="36.9623144" lon="-1.3386926"><ele>0.0</ele><time>2026-04-29T11:35:04.093Z</time></trkpt><trkpt lat="36.9624256" lon="-1.3385252"><ele>0.0</ele><time>2026-04-29T11:35:06.093Z</time></trkpt><trkpt lat="36.9624819" lon="-1.3384358"><ele>0.0</ele><time>2026-04-29T11:35:07.092Z</time></trkpt><trkpt lat="36.9625382" lon="-1.3383527"><ele>0.0</ele><time>2026-04-29T11:35:08.092Z</time></trkpt><trkpt lat="36.962595" lon="-1.3382754"><ele>0.0</ele><time>2026-04-29T11:35:09.092Z</time></trkpt><trkpt lat="36.9626488" lon="-1.3381958"><ele>0.0</ele><time>2026-04-29T11:35:10.093Z</time></trkpt><trkpt lat="36.9627065" lon="-1.338113"><ele>0.0</ele><time>2026-04-29T11:35:11.093Z</time></trkpt><trkpt lat="36.9627691" lon="-1.3380272"><ele>0.0</ele><time>2026-04-29T11:35:12.092Z</time></trkpt><trkpt lat="36.9628264" lon="-1.3379445"><ele>0.0</ele><time>2026-04-29T11:35:13.092Z</time></trkpt><trkpt lat="36.9628803" lon="-1.3378613"><ele>0.0</ele><time>2026-04-29T11:35:14.092Z</time></trkpt><trkpt lat="36.9629367" lon="-1.3377781"><ele>0.0</ele><time>2026-04-29T11:35:15.093Z</time></trkpt><trkpt lat="36.9629918" lon="-1.3376904"><ele>0.0</ele><time>2026-04-29T11:35:16.092Z</time></trkpt><trkpt lat="36.9630457" lon="-1.3376039"><ele>0.0</ele><time>2026-04-29T11:35:17.092Z</time></trkpt><trkpt lat="36.963096" lon="-1.3375145"><ele>0.0</ele><time>2026-04-29T11:35:18.092Z</time></trkpt><trkpt lat="36.963146" lon="-1.3374283"><ele>0.0</ele><time>2026-04-29T11:35:19.093Z</time></trkpt><trkpt lat="36.9632017" lon="-1.3373417"><ele>0.0</ele><time>2026-04-29T11:35:20.093Z</time></trkpt><trkpt lat="36.9632539" lon="-1.3372519"><ele>0.0</ele><time>2026-04-29T11:35:21.092Z</time></trkpt><trkpt lat="36.963307" lon="-1.3371622"><ele>0.0</ele><time>2026-04-29T11:35:22.093Z</time></trkpt><trkpt lat="36.9633587" lon="-1.3370737"><ele>0.0</ele><time>2026-04-29T11:35:23.093Z</time></trkpt><trkpt lat="36.963413" lon="-1.336981"><ele>0.0</ele><time>2026-04-29T11:35:24.093Z</time></trkpt><trkpt lat="36.9634692" lon="-1.3368902"><ele>0.0</ele><time>2026-04-29T11:35:25.093Z</time></trkpt><trkpt lat="36.9635706" lon="-1.3367029"><ele>0.0</ele><time>2026-04-29T11:35:27.091Z</time></trkpt><trkpt lat="36.9636232" lon="-1.336611"><ele>0.0</ele><time>2026-04-29T11:35:28.091Z</time></trkpt><trkpt lat="36.9636764" lon="-1.336525"><ele>0.0</ele><time>2026-04-29T11:35:29.092Z</time></trkpt><trkpt lat="36.9637282" lon="-1.3364352"><ele>0.0</ele><time>2026-04-29T11:35:30.091Z</time></trkpt><trkpt lat="36.9637757" lon="-1.3363453"><ele>0.0</ele><time>2026-04-29T11:35:31.091Z</time></trkpt><trkpt lat="36.9638239" lon="-1.3362581"><ele>0.0</ele><time>2026-04-29T11:35:32.091Z</time></trkpt><trkpt lat="36.9638753" lon="-1.3361701"><ele>0.0</ele><time>2026-04-29T11:35:33.091Z</time></trkpt><trkpt lat="36.9639227" lon="-1.3360817"><ele>0.0</ele><time>2026-04-29T11:35:34.092Z</time></trkpt><trkpt lat="36.9639689" lon="-1.3359915"><ele>0.0</ele><time>2026-04-29T11:35:35.091Z</time></trkpt><trkpt lat="36.9640173" lon="-1.3359045"><ele>0.0</ele><time>2026-04-29T11:35:36.091Z</time></trkpt><trkpt lat="36.9640738" lon="-1.3358208"><ele>0.0</ele><time>2026-04-29T11:35:37.091Z</time></trkpt><trkpt lat="36.9641288" lon="-1.3357371"><ele>0.0</ele><time>2026-04-29T11:35:38.092Z</time></trkpt><trkpt lat="36.9641859" lon="-1.3356485"><ele>0.0</ele><time>2026-04-29T11:35:39.091Z</time></trkpt><trkpt lat="36.9642356" lon="-1.3355587"><ele>0.0</ele><time>2026-04-29T11:35:40.091Z</time></trkpt><trkpt lat="36.9642883" lon="-1.3354687"><ele>0.0</ele><time>2026-04-29T11:35:41.092Z</time></trkpt><trkpt lat="36.9643376" lon="-1.3353789"><ele>0.0</ele><time>2026-04-29T11:35:42.091Z</time></trkpt><trkpt lat="36.9643833" lon="-1.3352847"><ele>0.0</ele><time>2026-04-29T11:35:43.092Z</time></trkpt><trkpt lat="36.964442" lon="-1.3352008"><ele>0.0</ele><time>2026-04-29T11:35:44.091Z</time></trkpt><trkpt lat="36.9644935" lon="-1.3351119"><ele>0.0</ele><time>2026-04-29T11:35:45.092Z</time></trkpt><trkpt lat="36.9645424" lon="-1.3350291"><ele>0.0</ele><time>2026-04-29T11:35:46.092Z</time></trkpt><trkpt lat="36.9646376" lon="-1.3348512"><ele>0.0</ele><time>2026-04-29T11:35:48.091Z</time></trkpt><trkpt lat="36.96469" lon="-1.3347615"><ele>0.0</ele><time>2026-04-29T11:35:49.091Z</time></trkpt><trkpt lat="36.9647448" lon="-1.3346731"><ele>0.0</ele><time>2026-04-29T11:35:50.092Z</time></trkpt><trkpt lat="36.9647982" lon="-1.3345879"><ele>0.0</ele><time>2026-04-29T11:35:51.091Z</time></trkpt><trkpt lat="36.9648573" lon="-1.3345002"><ele>0.0</ele><time>2026-04-29T11:35:52.092Z</time></trkpt><trkpt lat="36.9649118" lon="-1.3344146"><ele>0.0</ele><time>2026-04-29T11:35:53.091Z</time></trkpt><trkpt lat="36.9649596" lon="-1.3343295"><ele>0.0</ele><time>2026-04-29T11:35:54.091Z</time></trkpt><trkpt lat="36.9650134" lon="-1.3342418"><ele>0.0</ele><time>2026-04-29T11:35:55.092Z</time></trkpt><trkpt lat="36.9650667" lon="-1.334152"><ele>0.0</ele><time>2026-04-29T11:35:56.092Z</time></trkpt><trkpt lat="36.9651212" lon="-1.3340674"><ele>0.0</ele><time>2026-04-29T11:35:57.091Z</time></trkpt><trkpt lat="36.9651774" lon="-1.3339813"><ele>0.0</ele><time>2026-04-29T11:35:58.092Z</time></trkpt><trkpt lat="36.9652342" lon="-1.3338906"><ele>0.0</ele><time>2026-04-29T11:35:59.091Z</time></trkpt><trkpt lat="36.9652867" lon="-1.3338005"><ele>0.0</ele><time>2026-04-29T11:36:00.091Z</time></trkpt><trkpt lat="36.9653343" lon="-1.3337104"><ele>0.0</ele><time>2026-04-29T11:36:01.092Z</time></trkpt><trkpt lat="36.9653795" lon="-1.3336175"><ele>0.0</ele><time>2026-04-29T11:36:02.092Z</time></trkpt><trkpt lat="36.9654246" lon="-1.3335216"><ele>0.0</ele><time>2026-04-29T11:36:03.091Z</time></trkpt><trkpt lat="36.9654765" lon="-1.3334302"><ele>0.0</ele><time>2026-04-29T11:36:04.091Z</time></trkpt><trkpt lat="36.9655269" lon="-1.3333416"><ele>0.0</ele><time>2026-04-29T11:36:05.092Z</time></trkpt><trkpt lat="36.9655726" lon="-1.3332517"><ele>0.0</ele><time>2026-04-29T11:36:06.092Z</time></trkpt><trkpt lat="36.9656192" lon="-1.3331604"><ele>0.0</ele><time>2026-04-29T11:36:07.092Z</time></trkpt><trkpt lat="36.9657294" lon="-1.3329815"><ele>0.0</ele><time>2026-04-29T11:36:09.092Z</time></trkpt><trkpt lat="36.9657801" lon="-1.3328919"><ele>0.0</ele><time>2026-04-29T11:36:10.091Z</time></trkpt><trkpt lat="36.9658271" lon="-1.3327987"><ele>0.0</ele><time>2026-04-29T11:36:11.092Z</time></trkpt><trkpt lat="36.9658781" lon="-1.3327141"><ele>0.0</ele><time>2026-04-29T11:36:12.092Z</time></trkpt><trkpt lat="36.965927" lon="-1.3326221"><ele>0.0</ele><time>2026-04-29T11:36:13.091Z</time></trkpt><trkpt lat="36.9659695" lon="-1.3325316"><ele>0.0</ele><time>2026-04-29T11:36:14.091Z</time></trkpt><trkpt lat="36.9660242" lon="-1.3324445"><ele>0.0</ele><time>2026-04-29T11:36:15.092Z</time></trkpt><trkpt lat="36.9660749" lon="-1.3323549"><ele>0.0</ele><time>2026-04-29T11:36:16.092Z</time></trkpt><trkpt lat="36.9661249" lon="-1.3322648"><ele>0.0</ele><time>2026-04-29T11:36:17.091Z</time></trkpt><trkpt lat="36.966178" lon="-1.3321737"><ele>0.0</ele><time>2026-04-29T11:36:18.091Z</time></trkpt><trkpt lat="36.9662297" lon="-1.3320878"><ele>0.0</ele><time>2026-04-29T11:36:19.092Z</time></trkpt><trkpt lat="36.9662801" lon="-1.3319958"><ele>0.0</ele><time>2026-04-29T11:36:20.091Z</time></trkpt><trkpt lat="36.966333" lon="-1.3319006"><ele>0.0</ele><time>2026-04-29T11:36:21.091Z</time></trkpt><trkpt lat="36.9663846" lon="-1.3317972"><ele>0.0</ele><time>2026-04-29T11:36:22.092Z</time></trkpt><trkpt lat="36.9664365" lon="-1.3317038"><ele>0.0</ele><time>2026-04-29T11:36:23.092Z</time></trkpt><trkpt lat="36.9664841" lon="-1.3316149"><ele>0.0</ele><time>2026-04-29T11:36:24.091Z</time></trkpt><trkpt lat="36.9665283" lon="-1.3315263"><ele>0.0</ele><time>2026-04-29T11:36:25.091Z</time></trkpt><trkpt lat="36.9665714" lon="-1.331437"><ele>0.0</ele><time>2026-04-29T11:36:26.091Z</time></trkpt><trkpt lat="36.9666217" lon="-1.3313411"><ele>0.0</ele><time>2026-04-29T11:36:27.091Z</time></trkpt><trkpt lat="36.9666691" lon="-1.3312616"><ele>0.0</ele><time>2026-04-29T11:36:28.092Z</time></trkpt><trkpt lat="36.9667751" lon="-1.3310845"><ele>0.0</ele><time>2026-04-29T11:36:30.091Z</time></trkpt><trkpt lat="36.9668323" lon="-1.3309936"><ele>0.0</ele><time>2026-04-29T11:36:31.092Z</time></trkpt><trkpt lat="36.9668821" lon="-1.3309034"><ele>0.0</ele><time>2026-04-29T11:36:32.091Z</time></trkpt><trkpt lat="36.966933" lon="-1.3308145"><ele>0.0</ele><time>2026-04-29T11:36:33.091Z</time></trkpt><trkpt lat="36.9669849" lon="-1.3307251"><ele>0.0</ele><time>2026-04-29T11:36:34.091Z</time></trkpt><trkpt lat="36.9670367" lon="-1.3306408"><ele>0.0</ele><time>2026-04-29T11:36:35.091Z</time></trkpt><trkpt lat="36.9670897" lon="-1.3305488"><ele>0.0</ele><time>2026-04-29T11:36:36.091Z</time></trkpt><trkpt lat="36.9671413" lon="-1.3304569"><ele>0.0</ele><time>2026-04-29T11:36:37.091Z</time></trkpt><trkpt lat="36.9671959" lon="-1.3303695"><ele>0.0</ele><time>2026-04-29T11:36:38.091Z</time></trkpt><trkpt lat="36.9672498" lon="-1.3302817"><ele>0.0</ele><time>2026-04-29T11:36:39.091Z</time></trkpt><trkpt lat="36.9673044" lon="-1.33019"><ele>0.0</ele><time>2026-04-29T11:36:40.091Z</time></trkpt><trkpt lat="36.9673579" lon="-1.3300987"><ele>0.0</ele><time>2026-04-29T11:36:41.092Z</time></trkpt><trkpt lat="36.9674115" lon="-1.3300116"><ele>0.0</ele><time>2026-04-29T11:36:42.092Z</time></trkpt><trkpt lat="36.9674633" lon="-1.329926"><ele>0.0</ele><time>2026-04-29T11:36:43.092Z</time></trkpt><trkpt lat="36.9675124" lon="-1.3298425"><ele>0.0</ele><time>2026-04-29T11:36:44.091Z</time></trkpt><trkpt lat="36.9675607" lon="-1.3297608"><ele>0.0</ele><time>2026-04-29T11:36:45.091Z</time></trkpt><trkpt lat="36.9676075" lon="-1.3296719"><ele>0.0</ele><time>2026-04-29T11:36:46.092Z</time></trkpt><trkpt lat="36.9676584" lon="-1.3295862"><ele>0.0</ele><time>2026-04-29T11:36:47.091Z</time></trkpt><trkpt lat="36.9677059" lon="-1.3295069"><ele>0.0</ele><time>2026-04-29T11:36:48.092Z</time></trkpt><trkpt lat="36.9677553" lon="-1.329417"><ele>0.0</ele><time>2026-04-29T11:36:49.092Z</time></trkpt><trkpt lat="36.9678581" lon="-1.3292307"><ele>0.0</ele><time>2026-04-29T11:36:51.091Z</time></trkpt><trkpt lat="36.9679112" lon="-1.3291415"><ele>0.0</ele><time>2026-04-29T11:36:52.091Z</time></trkpt><trkpt lat="36.9679603" lon="-1.3290533"><ele>0.0</ele><time>2026-04-29T11:36:53.091Z</time></trkpt><trkpt lat="36.9680087" lon="-1.3289647"><ele>0.0</ele><time>2026-04-29T11:36:54.091Z</time></trkpt><trkpt lat="36.9680597" lon="-1.3288733"><ele>0.0</ele><time>2026-04-29T11:36:55.092Z</time></trkpt><trkpt lat="36.9681103" lon="-1.3287804"><ele>0.0</ele><time>2026-04-29T11:36:56.092Z</time></trkpt><trkpt lat="36.9681634" lon="-1.3286832"><ele>0.0</ele><time>2026-04-29T11:36:57.091Z</time></trkpt><trkpt lat="36.9682166" lon="-1.3285951"><ele>0.0</ele><time>2026-04-29T11:36:58.091Z</time></trkpt><trkpt lat="36.9682683" lon="-1.3285037"><ele>0.0</ele><time>2026-04-29T11:36:59.091Z</time></trkpt><trkpt lat="36.9683196" lon="-1.3284132"><ele>0.0</ele><time>2026-04-29T11:37:00.092Z</time></trkpt><trkpt lat="36.9683712" lon="-1.3283189"><ele>0.0</ele><time>2026-04-29T11:37:01.091Z</time></trkpt><trkpt lat="36.9684243" lon="-1.3282311"><ele>0.0</ele><time>2026-04-29T11:37:02.091Z</time></trkpt><trkpt lat="36.9684677" lon="-1.3281428"><ele>0.0</ele><time>2026-04-29T11:37:03.092Z</time></trkpt><trkpt lat="36.9685139" lon="-1.328053"><ele>0.0</ele><time>2026-04-29T11:37:04.092Z</time></trkpt><trkpt lat="36.9685564" lon="-1.3279549"><ele>0.0</ele><time>2026-04-29T11:37:05.091Z</time></trkpt><trkpt lat="36.968601" lon="-1.3278594"><ele>0.0</ele><time>2026-04-29T11:37:06.091Z</time></trkpt><trkpt lat="36.9686473" lon="-1.3277641"><ele>0.0</ele><time>2026-04-29T11:37:07.092Z</time></trkpt><trkpt lat="36.9686956" lon="-1.3276694"><ele>0.0</ele><time>2026-04-29T11:37:08.091Z</time></trkpt><trkpt lat="36.9687449" lon="-1.327577"><ele>0.0</ele><time>2026-04-29T11:37:09.091Z</time></trkpt><trkpt lat="36.968798" lon="-1.3274911"><ele>0.0</ele><time>2026-04-29T11:37:10.091Z</time></trkpt><trkpt lat="36.9689046" lon="-1.3273193"><ele>0.0</ele><time>2026-04-29T11:37:12.091Z</time></trkpt><trkpt lat="36.9689535" lon="-1.3272355"><ele>0.0</ele><time>2026-04-29T11:37:13.091Z</time></trkpt><trkpt lat="36.9690019" lon="-1.3271477"><ele>0.0</ele><time>2026-04-29T11:37:14.091Z</time></trkpt><trkpt lat="36.9690503" lon="-1.3270624"><ele>0.0</ele><time>2026-04-29T11:37:15.092Z</time></trkpt><trkpt lat="36.9690959" lon="-1.3269718"><ele>0.0</ele><time>2026-04-29T11:37:16.092Z</time></trkpt><trkpt lat="36.9691409" lon="-1.3268818"><ele>0.0</ele><time>2026-04-29T11:37:17.092Z</time></trkpt><trkpt lat="36.96919" lon="-1.3267845"><ele>0.0</ele><time>2026-04-29T11:37:18.091Z</time></trkpt><trkpt lat="36.9692429" lon="-1.326692"><ele>0.0</ele><time>2026-04-29T11:37:19.091Z</time></trkpt><trkpt lat="36.9692963" lon="-1.3265977"><ele>0.0</ele><time>2026-04-29T11:37:20.091Z</time></trkpt><trkpt lat="36.9693442" lon="-1.3265043"><ele>0.0</ele><time>2026-04-29T11:37:21.091Z</time></trkpt><trkpt lat="36.9693934" lon="-1.3264123"><ele>0.0</ele><time>2026-04-29T11:37:22.091Z</time></trkpt><trkpt lat="36.9694429" lon="-1.3263187"><ele>0.0</ele><time>2026-04-29T11:37:23.091Z</time></trkpt><trkpt lat="36.9694962" lon="-1.3262298"><ele>0.0</ele><time>2026-04-29T11:37:24.091Z</time></trkpt><trkpt lat="36.9695521" lon="-1.3261369"><ele>0.0</ele><time>2026-04-29T11:37:25.091Z</time></trkpt><trkpt lat="36.9696018" lon="-1.326048"><ele>0.0</ele><time>2026-04-29T11:37:26.091Z</time></trkpt><trkpt lat="36.9696586" lon="-1.3259539"><ele>0.0</ele><time>2026-04-29T11:37:27.092Z</time></trkpt><trkpt lat="36.9697087" lon="-1.3258606"><ele>0.0</ele><time>2026-04-29T11:37:28.091Z</time></trkpt><trkpt lat="36.9697569" lon="-1.32577"><ele>0.0</ele><time>2026-04-29T11:37:29.091Z</time></trkpt><trkpt lat="36.9698056" lon="-1.3256815"><ele>0.0</ele><time>2026-04-29T11:37:30.091Z</time></trkpt><trkpt lat="36.9698494" lon="-1.3255861"><ele>0.0</ele><time>2026-04-29T11:37:31.092Z</time></trkpt><trkpt lat="36.9699347" lon="-1.3253913"><ele>0.0</ele><time>2026-04-29T11:37:33.091Z</time></trkpt><trkpt lat="36.9699778" lon="-1.3253014"><ele>0.0</ele><time>2026-04-29T11:37:34.092Z</time></trkpt><trkpt lat="36.9700297" lon="-1.3252172"><ele>0.0</ele><time>2026-04-29T11:37:35.092Z</time></trkpt><trkpt lat="36.9700842" lon="-1.325131"><ele>0.0</ele><time>2026-04-29T11:37:36.091Z</time></trkpt><trkpt lat="36.9701362" lon="-1.32504"><ele>0.0</ele><time>2026-04-29T11:37:37.091Z</time></trkpt><trkpt lat="36.9701838" lon="-1.3249543"><ele>0.0</ele><time>2026-04-29T11:37:38.092Z</time></trkpt><trkpt lat="36.9702294" lon="-1.3248679"><ele>0.0</ele><time>2026-04-29T11:37:39.092Z</time></trkpt><trkpt lat="36.9702785" lon="-1.324777"><ele>0.0</ele><time>2026-04-29T11:37:40.091Z</time></trkpt><trkpt lat="36.9703314" lon="-1.324687"><ele>0.0</ele><time>2026-04-29T11:37:41.091Z</time></trkpt><trkpt lat="36.9703804" lon="-1.3245913"><ele>0.0</ele><time>2026-04-29T11:37:42.092Z</time></trkpt><trkpt lat="36.970429" lon="-1.3245017"><ele>0.0</ele><time>2026-04-29T11:37:43.091Z</time></trkpt><trkpt lat="36.9704846" lon="-1.3244166"><ele>0.0</ele><time>2026-04-29T11:37:44.091Z</time></trkpt><trkpt lat="36.9705369" lon="-1.3243239"><ele>0.0</ele><time>2026-04-29T11:37:45.091Z</time></trkpt><trkpt lat="36.9705911" lon="-1.3242362"><ele>0.0</ele><time>2026-04-29T11:37:46.091Z</time></trkpt><trkpt lat="36.9706421" lon="-1.3241468"><ele>0.0</ele><time>2026-04-29T11:37:47.092Z</time></trkpt><trkpt lat="36.9706933" lon="-1.3240593"><ele>0.0</ele><time>2026-04-29T11:37:48.091Z</time></trkpt><trkpt lat="36.9707476" lon="-1.3239642"><ele>0.0</ele><time>2026-04-29T11:37:49.092Z</time></trkpt><trkpt lat="36.9707997" lon="-1.3238734"><ele>0.0</ele><time>2026-04-29T11:37:50.091Z</time></trkpt><trkpt lat="36.9708502" lon="-1.3237806"><ele>0.0</ele><time>2026-04-29T11:37:51.091Z</time></trkpt><trkpt lat="36.9709013" lon="-1.3236872"><ele>0.0</ele><time>2026-04-29T11:37:52.092Z</time></trkpt><trkpt lat="36.9710006" lon="-1.3235101"><ele>0.0</ele><time>2026-04-29T11:37:54.092Z</time></trkpt><trkpt lat="36.9710516" lon="-1.3234227"><ele>0.0</ele><time>2026-04-29T11:37:55.092Z</time></trkpt><trkpt lat="36.9711048" lon="-1.3233375"><ele>0.0</ele><time>2026-04-29T11:37:56.092Z</time></trkpt><trkpt lat="36.9711553" lon="-1.3232455"><ele>0.0</ele><time>2026-04-29T11:37:57.091Z</time></trkpt><trkpt lat="36.9712053" lon="-1.3231594"><ele>0.0</ele><time>2026-04-29T11:37:58.091Z</time></trkpt><trkpt lat="36.9712553" lon="-1.3230686"><ele>0.0</ele><time>2026-04-29T11:37:59.091Z</time></trkpt><trkpt lat="36.9713053" lon="-1.3229771"><ele>0.0</ele><time>2026-04-29T11:38:00.092Z</time></trkpt><trkpt lat="36.9713553" lon="-1.3228883"><ele>0.0</ele><time>2026-04-29T11:38:01.092Z</time></trkpt><trkpt lat="36.9714023" lon="-1.3227969"><ele>0.0</ele><time>2026-04-29T11:38:02.091Z</time></trkpt><trkpt lat="36.9714574" lon="-1.322711"><ele>0.0</ele><time>2026-04-29T11:38:03.091Z</time></trkpt><trkpt lat="36.9715152" lon="-1.3226246"><ele>0.0</ele><time>2026-04-29T11:38:04.092Z</time></trkpt><trkpt lat="36.9715695" lon="-1.3225365"><ele>0.0</ele><time>2026-04-29T11:38:05.091Z</time></trkpt><trkpt lat="36.971616" lon="-1.3224412"><ele>0.0</ele><time>2026-04-29T11:38:06.092Z</time></trkpt><trkpt lat="36.9716654" lon="-1.3223503"><ele>0.0</ele><time>2026-04-29T11:38:07.091Z</time></trkpt><trkpt lat="36.9717155" lon="-1.3222589"><ele>0.0</ele><time>2026-04-29T11:38:08.092Z</time></trkpt><trkpt lat="36.9717721" lon="-1.3221727"><ele>0.0</ele><time>2026-04-29T11:38:09.091Z</time></trkpt><trkpt lat="36.9718229" lon="-1.322086"><ele>0.0</ele><time>2026-04-29T11:38:10.092Z</time></trkpt><trkpt lat="36.9718735" lon="-1.3219929"><ele>0.0</ele><time>2026-04-29T11:38:11.091Z</time></trkpt><trkpt lat="36.9719266" lon="-1.3219022"><ele>0.0</ele><time>2026-04-29T11:38:12.091Z</time></trkpt><trkpt lat="36.9719779" lon="-1.321813"><ele>0.0</ele><time>2026-04-29T11:38:13.092Z</time></trkpt><trkpt lat="36.9720803" lon="-1.3216411"><ele>0.0</ele><time>2026-04-29T11:38:15.092Z</time></trkpt><trkpt lat="36.9721274" lon="-1.3215515"><ele>0.0</ele><time>2026-04-29T11:38:16.091Z</time></trkpt><trkpt lat="36.9721738" lon="-1.32146"><ele>0.0</ele><time>2026-04-29T11:38:17.091Z</time></trkpt><trkpt lat="36.9722162" lon="-1.3213629"><ele>0.0</ele><time>2026-04-29T11:38:18.091Z</time></trkpt><trkpt lat="36.9722593" lon="-1.3212705"><ele>0.0</ele><time>2026-04-29T11:38:19.092Z</time></trkpt><trkpt lat="36.9723084" lon="-1.321176"><ele>0.0</ele><time>2026-04-29T11:38:20.091Z</time></trkpt><trkpt lat="36.9723571" lon="-1.3210851"><ele>0.0</ele><time>2026-04-29T11:38:21.092Z</time></trkpt><trkpt lat="36.9724041" lon="-1.320999"><ele>0.0</ele><time>2026-04-29T11:38:22.091Z</time></trkpt><trkpt lat="36.9724549" lon="-1.3209197"><ele>0.0</ele><time>2026-04-29T11:38:23.092Z</time></trkpt><trkpt lat="36.9725064" lon="-1.3208357"><ele>0.0</ele><time>2026-04-29T11:38:24.091Z</time></trkpt><trkpt lat="36.972558" lon="-1.3207424"><ele>0.0</ele><time>2026-04-29T11:38:25.091Z</time></trkpt><trkpt lat="36.9726142" lon="-1.3206472"><ele>0.0</ele><time>2026-04-29T11:38:26.091Z</time></trkpt><trkpt lat="36.9726668" lon="-1.3205598"><ele>0.0</ele><time>2026-04-29T11:38:27.092Z</time></trkpt><trkpt lat="36.9727228" lon="-1.3204688"><ele>0.0</ele><time>2026-04-29T11:38:28.092Z</time></trkpt><trkpt lat="36.9727733" lon="-1.3203797"><ele>0.0</ele><time>2026-04-29T11:38:29.091Z</time></trkpt><trkpt lat="36.9728206" lon="-1.3202941"><ele>0.0</ele><time>2026-04-29T11:38:30.092Z</time></trkpt><trkpt lat="36.9728718" lon="-1.3202049"><ele>0.0</ele><time>2026-04-29T11:38:31.092Z</time></trkpt><trkpt lat="36.9729218" lon="-1.3201134"><ele>0.0</ele><time>2026-04-29T11:38:32.092Z</time></trkpt><trkpt lat="36.9729703" lon="-1.3200276"><ele>0.0</ele><time>2026-04-29T11:38:33.092Z</time></trkpt><trkpt lat="36.9730177" lon="-1.3199386"><ele>0.0</ele><time>2026-04-29T11:38:34.092Z</time></trkpt><trkpt lat="36.9731181" lon="-1.3197531"><ele>0.0</ele><time>2026-04-29T11:38:36.092Z</time></trkpt><trkpt lat="36.9731613" lon="-1.3196619"><ele>0.0</ele><time>2026-04-29T11:38:37.091Z</time></trkpt><trkpt lat="36.973209" lon="-1.3195747"><ele>0.0</ele><time>2026-04-29T11:38:38.091Z</time></trkpt><trkpt lat="36.9732585" lon="-1.3194849"><ele>0.0</ele><time>2026-04-29T11:38:39.091Z</time></trkpt><trkpt lat="36.9733103" lon="-1.3193942"><ele>0.0</ele><time>2026-04-29T11:38:40.091Z</time></trkpt><trkpt lat="36.9733645" lon="-1.3193066"><ele>0.0</ele><time>2026-04-29T11:38:41.092Z</time></trkpt><trkpt lat="36.9734195" lon="-1.3192138"><ele>0.0</ele><time>2026-04-29T11:38:42.092Z</time></trkpt><trkpt lat="36.9734718" lon="-1.3191308"><ele>0.0</ele><time>2026-04-29T11:38:43.092Z</time></trkpt><trkpt lat="36.9735216" lon="-1.3190399"><ele>0.0</ele><time>2026-04-29T11:38:44.091Z</time></trkpt><trkpt lat="36.9735805" lon="-1.3189527"><ele>0.0</ele><time>2026-04-29T11:38:45.092Z</time></trkpt><trkpt lat="36.9736372" lon="-1.3188603"><ele>0.0</ele><time>2026-04-29T11:38:46.091Z</time></trkpt><trkpt lat="36.9736911" lon="-1.3187657"><ele>0.0</ele><time>2026-04-29T11:38:47.092Z</time></trkpt><trkpt lat="36.9737448" lon="-1.3186755"><ele>0.0</ele><time>2026-04-29T11:38:48.091Z</time></trkpt><trkpt lat="36.9737996" lon="-1.318584"><ele>0.0</ele><time>2026-04-29T11:38:49.092Z</time></trkpt><trkpt lat="36.9738504" lon="-1.3184967"><ele>0.0</ele><time>2026-04-29T11:38:50.091Z</time></trkpt><trkpt lat="36.9739021" lon="-1.3184086"><ele>0.0</ele><time>2026-04-29T11:38:51.092Z</time></trkpt><trkpt lat="36.9739508" lon="-1.3183187"><ele>0.0</ele><time>2026-04-29T11:38:52.092Z</time></trkpt><trkpt lat="36.9740005" lon="-1.3182274"><ele>0.0</ele><time>2026-04-29T11:38:53.091Z</time></trkpt><trkpt lat="36.9740475" lon="-1.3181286"><ele>0.0</ele><time>2026-04-29T11:38:54.092Z</time></trkpt><trkpt lat="36.9740986" lon="-1.3180374"><ele>0.0</ele><time>2026-04-29T11:38:55.092Z</time></trkpt><trkpt lat="36.9742028" lon="-1.3178581"><ele>0.0</ele><time>2026-04-29T11:38:57.091Z</time></trkpt><trkpt lat="36.9742507" lon="-1.3177671"><ele>0.0</ele><time>2026-04-29T11:38:58.091Z</time></trkpt><trkpt lat="36.974296" lon="-1.3176785"><ele>0.0</ele><time>2026-04-29T11:38:59.092Z</time></trkpt><trkpt lat="36.974348" lon="-1.3175841"><ele>0.0</ele><time>2026-04-29T11:39:00.092Z</time></trkpt><trkpt lat="36.9743985" lon="-1.3174893"><ele>0.0</ele><time>2026-04-29T11:39:01.091Z</time></trkpt><trkpt lat="36.9744484" lon="-1.3173971"><ele>0.0</ele><time>2026-04-29T11:39:02.091Z</time></trkpt><trkpt lat="36.9744997" lon="-1.3173027"><ele>0.0</ele><time>2026-04-29T11:39:03.092Z</time></trkpt><trkpt lat="36.9745471" lon="-1.3172115"><ele>0.0</ele><time>2026-04-29T11:39:04.092Z</time></trkpt><trkpt lat="36.9745985" lon="-1.3171259"><ele>0.0</ele><time>2026-04-29T11:39:05.092Z</time></trkpt><trkpt lat="36.9746483" lon="-1.3170321"><ele>0.0</ele><time>2026-04-29T11:39:06.091Z</time></trkpt><trkpt lat="36.9746986" lon="-1.3169418"><ele>0.0</ele><time>2026-04-29T11:39:07.092Z</time></trkpt><trkpt lat="36.9747527" lon="-1.3168576"><ele>0.0</ele><time>2026-04-29T11:39:08.091Z</time></trkpt><trkpt lat="36.9748005" lon="-1.3167682"><ele>0.0</ele><time>2026-04-29T11:39:09.091Z</time></trkpt><trkpt lat="36.9748432" lon="-1.3166797"><ele>0.0</ele><time>2026-04-29T11:39:10.092Z</time></trkpt><trkpt lat="36.9748934" lon="-1.3165856"><ele>0.0</ele><time>2026-04-29T11:39:11.091Z</time></trkpt><trkpt lat="36.9749423" lon="-1.3164994"><ele>0.0</ele><time>2026-04-29T11:39:12.092Z</time></trkpt><trkpt lat="36.9749949" lon="-1.3164115"><ele>0.0</ele><time>2026-04-29T11:39:13.091Z</time></trkpt><trkpt lat="36.975048" lon="-1.3163247"><ele>0.0</ele><time>2026-04-29T11:39:14.092Z</time></trkpt><trkpt lat="36.9750972" lon="-1.3162295"><ele>0.0</ele><time>2026-04-29T11:39:15.092Z</time></trkpt><trkpt lat="36.9751414" lon="-1.3161344"><ele>0.0</ele><time>2026-04-29T11:39:16.092Z</time></trkpt><trkpt lat="36.9752378" lon="-1.3159423"><ele>0.0</ele><time>2026-04-29T11:39:18.091Z</time></trkpt><trkpt lat="36.9752827" lon="-1.3158503"><ele>0.0</ele><time>2026-04-29T11:39:19.092Z</time></trkpt><trkpt lat="36.9753323" lon="-1.3157614"><ele>0.0</ele><time>2026-04-29T11:39:20.091Z</time></trkpt><trkpt lat="36.975385" lon="-1.3156733"><ele>0.0</ele><time>2026-04-29T11:39:21.091Z</time></trkpt><trkpt lat="36.9754381" lon="-1.3155862"><ele>0.0</ele><time>2026-04-29T11:39:22.092Z</time></trkpt><trkpt lat="36.9754913" lon="-1.3154978"><ele>0.0</ele><time>2026-04-29T11:39:23.091Z</time></trkpt><trkpt lat="36.9755419" lon="-1.3154097"><ele>0.0</ele><time>2026-04-29T11:39:24.092Z</time></trkpt><trkpt lat="36.9755944" lon="-1.3153183"><ele>0.0</ele><time>2026-04-29T11:39:25.092Z</time></trkpt><trkpt lat="36.9756452" lon="-1.3152284"><ele>0.0</ele><time>2026-04-29T11:39:26.092Z</time></trkpt><trkpt lat="36.9756951" lon="-1.3151384"><ele>0.0</ele><time>2026-04-29T11:39:27.092Z</time></trkpt><trkpt lat="36.9757522" lon="-1.31505"><ele>0.0</ele><time>2026-04-29T11:39:28.091Z</time></trkpt><trkpt lat="36.9758076" lon="-1.314963"><ele>0.0</ele><time>2026-04-29T11:39:29.091Z</time></trkpt><trkpt lat="36.9758613" lon="-1.3148777"><ele>0.0</ele><time>2026-04-29T11:39:30.092Z</time></trkpt><trkpt lat="36.9759189" lon="-1.3147898"><ele>0.0</ele><time>2026-04-29T11:39:31.091Z</time></trkpt><trkpt lat="36.9759743" lon="-1.3147015"><ele>0.0</ele><time>2026-04-29T11:39:32.092Z</time></trkpt><trkpt lat="36.9760237" lon="-1.314616"><ele>0.0</ele><time>2026-04-29T11:39:33.091Z</time></trkpt><trkpt lat="36.9760763" lon="-1.3145223"><ele>0.0</ele><time>2026-04-29T11:39:34.091Z</time></trkpt><trkpt lat="36.9761255" lon="-1.3144319"><ele>0.0</ele><time>2026-04-29T11:39:35.092Z</time></trkpt><trkpt lat="36.9761838" lon="-1.314346"><ele>0.0</ele><time>2026-04-29T11:39:36.092Z</time></trkpt><trkpt lat="36.9762837" lon="-1.3141659"><ele>0.0</ele><time>2026-04-29T11:39:38.092Z</time></trkpt><trkpt lat="36.9763254" lon="-1.3140712"><ele>0.0</ele><time>2026-04-29T11:39:39.092Z</time></trkpt><trkpt lat="36.9763666" lon="-1.3139757"><ele>0.0</ele><time>2026-04-29T11:39:40.091Z</time></trkpt><trkpt lat="36.9764153" lon="-1.3138837"><ele>0.0</ele><time>2026-04-29T11:39:41.092Z</time></trkpt><trkpt lat="36.9764694" lon="-1.3137932"><ele>0.0</ele><time>2026-04-29T11:39:42.092Z</time></trkpt><trkpt lat="36.9765177" lon="-1.3137034"><ele>0.0</ele><time>2026-04-29T11:39:43.091Z</time></trkpt><trkpt lat="36.9765642" lon="-1.3136135"><ele>0.0</ele><time>2026-04-29T11:39:44.092Z</time></trkpt><trkpt lat="36.9766079" lon="-1.313522"><ele>0.0</ele><time>2026-04-29T11:39:45.092Z</time></trkpt><trkpt lat="36.9766585" lon="-1.3134291"><ele>0.0</ele><time>2026-04-29T11:39:46.092Z</time></trkpt><trkpt lat="36.9767085" lon="-1.313337"><ele>0.0</ele><time>2026-04-29T11:39:47.092Z</time></trkpt><trkpt lat="36.9767601" lon="-1.3132481"><ele>0.0</ele><time>2026-04-29T11:39:48.091Z</time></trkpt><trkpt lat="36.9768089" lon="-1.3131598"><ele>0.0</ele><time>2026-04-29T11:39:49.091Z</time></trkpt><trkpt lat="36.9768627" lon="-1.3130713"><ele>0.0</ele><time>2026-04-29T11:39:50.091Z</time></trkpt><trkpt lat="36.9769206" lon="-1.3129845"><ele>0.0</ele><time>2026-04-29T11:39:51.091Z</time></trkpt><trkpt lat="36.9769744" lon="-1.3128921"><ele>0.0</ele><time>2026-04-29T11:39:52.092Z</time></trkpt><trkpt lat="36.9770266" lon="-1.3128033"><ele>0.0</ele><time>2026-04-29T11:39:53.092Z</time></trkpt><trkpt lat="36.9770768" lon="-1.3127147"><ele>0.0</ele><time>2026-04-29T11:39:54.091Z</time></trkpt><trkpt lat="36.9771255" lon="-1.3126251"><ele>0.0</ele><time>2026-04-29T11:39:55.091Z</time></trkpt><trkpt lat="36.9771753" lon="-1.3125338"><ele>0.0</ele><time>2026-04-29T11:39:56.091Z</time></trkpt><trkpt lat="36.9772225" lon="-1.312445"><ele>0.0</ele><time>2026-04-29T11:39:57.092Z</time></trkpt><trkpt lat="36.9773261" lon="-1.3122653"><ele>0.0</ele><time>2026-04-29T11:39:59.092Z</time></trkpt><trkpt lat="36.9773767" lon="-1.312182"><ele>0.0</ele><time>2026-04-29T11:40:00.091Z</time></trkpt><trkpt lat="36.9774295" lon="-1.3121015"><ele>0.0</ele><time>2026-04-29T11:40:01.091Z</time></trkpt><trkpt lat="36.9774858" lon="-1.3120104"><ele>0.0</ele><time>2026-04-29T11:40:02.092Z</time></trkpt><trkpt lat="36.9775411" lon="-1.3119164"><ele>0.0</ele><time>2026-04-29T11:40:03.091Z</time></trkpt><trkpt lat="36.9775976" lon="-1.3118256"><ele>0.0</ele><time>2026-04-29T11:40:04.091Z</time></trkpt><trkpt lat="36.9776502" lon="-1.3117353"><ele>0.0</ele><time>2026-04-29T11:40:05.092Z</time></trkpt><trkpt lat="36.9776947" lon="-1.3116465"><ele>0.0</ele><time>2026-04-29T11:40:06.092Z</time></trkpt><trkpt lat="36.9777451" lon="-1.3115551"><ele>0.0</ele><time>2026-04-29T11:40:07.091Z</time></trkpt><trkpt lat="36.9777921" lon="-1.3114662"><ele>0.0</ele><time>2026-04-29T11:40:08.091Z</time></trkpt><trkpt lat="36.9778406" lon="-1.3113767"><ele>0.0</ele><time>2026-04-29T11:40:09.091Z</time></trkpt><trkpt lat="36.9778871" lon="-1.3112824"><ele>0.0</ele><time>2026-04-29T11:40:10.092Z</time></trkpt><trkpt lat="36.9779369" lon="-1.3111944"><ele>0.0</ele><time>2026-04-29T11:40:11.091Z</time></trkpt><trkpt lat="36.9779852" lon="-1.3110962"><ele>0.0</ele><time>2026-04-29T11:40:12.092Z</time></trkpt><trkpt lat="36.9780335" lon="-1.3110007"><ele>0.0</ele><time>2026-04-29T11:40:13.092Z</time></trkpt><trkpt lat="36.9780807" lon="-1.3109072"><ele>0.0</ele><time>2026-04-29T11:40:14.092Z</time></trkpt><trkpt lat="36.9781305" lon="-1.3108228"><ele>0.0</ele><time>2026-04-29T11:40:15.092Z</time></trkpt><trkpt lat="36.9781804" lon="-1.3107291"><ele>0.0</ele><time>2026-04-29T11:40:16.091Z</time></trkpt><trkpt lat="36.9782329" lon="-1.310637"><ele>0.0</ele><time>2026-04-29T11:40:17.092Z</time></trkpt><trkpt lat="36.9782849" lon="-1.3105484"><ele>0.0</ele><time>2026-04-29T11:40:18.092Z</time></trkpt><trkpt lat="36.9783841" lon="-1.3103749"><ele>0.0</ele><time>2026-04-29T11:40:20.092Z</time></trkpt><trkpt lat="36.9784342" lon="-1.3102895"><ele>0.0</ele><time>2026-04-29T11:40:21.091Z</time></trkpt><trkpt lat="36.9784839" lon="-1.3101974"><ele>0.0</ele><time>2026-04-29T11:40:22.091Z</time></trkpt><trkpt lat="36.9785339" lon="-1.3101042"><ele>0.0</ele><time>2026-04-29T11:40:23.092Z</time></trkpt><trkpt lat="36.9785879" lon="-1.3100165"><ele>0.0</ele><time>2026-04-29T11:40:24.091Z</time></trkpt><trkpt lat="36.9786373" lon="-1.3099223"><ele>0.0</ele><time>2026-04-29T11:40:25.092Z</time></trkpt><trkpt lat="36.9786854" lon="-1.3098289"><ele>0.0</ele><time>2026-04-29T11:40:26.091Z</time></trkpt><trkpt lat="36.9787337" lon="-1.3097384"><ele>0.0</ele><time>2026-04-29T11:40:27.091Z</time></trkpt><trkpt lat="36.9787848" lon="-1.3096484"><ele>0.0</ele><time>2026-04-29T11:40:28.092Z</time></trkpt><trkpt lat="36.9788378" lon="-1.3095598"><ele>0.0</ele><time>2026-04-29T11:40:29.092Z</time></trkpt><trkpt lat="36.9788842" lon="-1.3094683"><ele>0.0</ele><time>2026-04-29T11:40:30.092Z</time></trkpt><trkpt lat="36.978929" lon="-1.309375"><ele>0.0</ele><time>2026-04-29T11:40:31.091Z</time></trkpt><trkpt lat="36.978974" lon="-1.3092788"><ele>0.0</ele><time>2026-04-29T11:40:32.092Z</time></trkpt><trkpt lat="36.9790177" lon="-1.3091812"><ele>0.0</ele><time>2026-04-29T11:40:33.092Z</time></trkpt><trkpt lat="36.9790695" lon="-1.309083"><ele>0.0</ele><time>2026-04-29T11:40:34.092Z</time></trkpt><trkpt lat="36.9791199" lon="-1.3089905"><ele>0.0</ele><time>2026-04-29T11:40:35.092Z</time></trkpt><trkpt lat="36.9791671" lon="-1.3089056"><ele>0.0</ele><time>2026-04-29T11:40:36.092Z</time></trkpt><trkpt lat="36.9792195" lon="-1.3088222"><ele>0.0</ele><time>2026-04-29T11:40:37.091Z</time></trkpt><trkpt lat="36.9792727" lon="-1.308736"><ele>0.0</ele><time>2026-04-29T11:40:38.091Z</time></trkpt><trkpt lat="36.979326" lon="-1.3086468"><ele>0.0</ele><time>2026-04-29T11:40:39.091Z</time></trkpt><trkpt lat="36.9794253" lon="-1.3084648"><ele>0.0</ele><time>2026-04-29T11:40:41.092Z</time></trkpt><trkpt lat="36.9794753" lon="-1.3083793"><ele>0.0</ele><time>2026-04-29T11:40:42.092Z</time></trkpt><trkpt lat="36.9795237" lon="-1.308294"><ele>0.0</ele><time>2026-04-29T11:40:43.091Z</time></trkpt><trkpt lat="36.9795732" lon="-1.3082019"><ele>0.0</ele><time>2026-04-29T11:40:44.091Z</time></trkpt><trkpt lat="36.9796274" lon="-1.3081101"><ele>0.0</ele><time>2026-04-29T11:40:45.092Z</time></trkpt><trkpt lat="36.9796813" lon="-1.3080144"><ele>0.0</ele><time>2026-04-29T11:40:46.092Z</time></trkpt><trkpt lat="36.9797317" lon="-1.3079207"><ele>0.0</ele><time>2026-04-29T11:40:47.091Z</time></trkpt><trkpt lat="36.9797802" lon="-1.3078313"><ele>0.0</ele><time>2026-04-29T11:40:48.091Z</time></trkpt><trkpt lat="36.9798301" lon="-1.3077429"><ele>0.0</ele><time>2026-04-29T11:40:49.092Z</time></trkpt><trkpt lat="36.9798803" lon="-1.3076534"><ele>0.0</ele><time>2026-04-29T11:40:50.091Z</time></trkpt><trkpt lat="36.9799245" lon="-1.3075647"><ele>0.0</ele><time>2026-04-29T11:40:51.092Z</time></trkpt><trkpt lat="36.9799691" lon="-1.3074706"><ele>0.0</ele><time>2026-04-29T11:40:52.092Z</time></trkpt><trkpt lat="36.9800189" lon="-1.307379"><ele>0.0</ele><time>2026-04-29T11:40:53.091Z</time></trkpt><trkpt lat="36.9800659" lon="-1.3072899"><ele>0.0</ele><time>2026-04-29T11:40:54.091Z</time></trkpt><trkpt lat="36.9801124" lon="-1.3072023"><ele>0.0</ele><time>2026-04-29T11:40:55.091Z</time></trkpt><trkpt lat="36.9801606" lon="-1.3071077"><ele>0.0</ele><time>2026-04-29T11:40:56.091Z</time></trkpt><trkpt lat="36.9802101" lon="-1.307015"><ele>0.0</ele><time>2026-04-29T11:40:57.092Z</time></trkpt><trkpt lat="36.9802683" lon="-1.3069234"><ele>0.0</ele><time>2026-04-29T11:40:58.092Z</time></trkpt><trkpt lat="36.9803214" lon="-1.3068377"><ele>0.0</ele><time>2026-04-29T11:40:59.092Z</time></trkpt><trkpt lat="36.9803731" lon="-1.3067511"><ele>0.0</ele><time>2026-04-29T11:41:00.092Z</time></trkpt><trkpt lat="36.9804772" lon="-1.3065767"><ele>0.0</ele><time>2026-04-29T11:41:02.091Z</time></trkpt><trkpt lat="36.9805255" lon="-1.3064857"><ele>0.0</ele><time>2026-04-29T11:41:03.092Z</time></trkpt><trkpt lat="36.980578" lon="-1.306395"><ele>0.0</ele><time>2026-04-29T11:41:04.092Z</time></trkpt><trkpt lat="36.98063" lon="-1.306305"><ele>0.0</ele><time>2026-04-29T11:41:05.091Z</time></trkpt><trkpt lat="36.9806818" lon="-1.3062151"><ele>0.0</ele><time>2026-04-29T11:41:06.092Z</time></trkpt><trkpt lat="36.9807347" lon="-1.3061266"><ele>0.0</ele><time>2026-04-29T11:41:07.091Z</time></trkpt><trkpt lat="36.9807894" lon="-1.3060397"><ele>0.0</ele><time>2026-04-29T11:41:08.09Z</time></trkpt><trkpt lat="36.9808374" lon="-1.3059459"><ele>0.0</ele><time>2026-04-29T11:41:09.091Z</time></trkpt><trkpt lat="36.980884" lon="-1.3058537"><ele>0.0</ele><time>2026-04-29T11:41:10.09Z</time></trkpt><trkpt lat="36.9809309" lon="-1.3057607"><ele>0.0</ele><time>2026-04-29T11:41:11.09Z</time></trkpt><trkpt lat="36.9809788" lon="-1.3056714"><ele>0.0</ele><time>2026-04-29T11:41:12.09Z</time></trkpt><trkpt lat="36.981027" lon="-1.3055804"><ele>0.0</ele><time>2026-04-29T11:41:13.091Z</time></trkpt><trkpt lat="36.9810826" lon="-1.3054892"><ele>0.0</ele><time>2026-04-29T11:41:14.091Z</time></trkpt><trkpt lat="36.9811389" lon="-1.3053999"><ele>0.0</ele><time>2026-04-29T11:41:15.091Z</time></trkpt><trkpt lat="36.9811943" lon="-1.3053144"><ele>0.0</ele><time>2026-04-29T11:41:16.09Z</time></trkpt><trkpt lat="36.9812407" lon="-1.3052292"><ele>0.0</ele><time>2026-04-29T11:41:17.091Z</time></trkpt><trkpt lat="36.9812873" lon="-1.3051343"><ele>0.0</ele><time>2026-04-29T11:41:18.091Z</time></trkpt><trkpt lat="36.9813356" lon="-1.305045"><ele>0.0</ele><time>2026-04-29T11:41:19.091Z</time></trkpt><trkpt lat="36.9813837" lon="-1.3049507"><ele>0.0</ele><time>2026-04-29T11:41:20.09Z</time></trkpt><trkpt lat="36.9814306" lon="-1.3048582"><ele>0.0</ele><time>2026-04-29T11:41:21.09Z</time></trkpt><trkpt lat="36.9815333" lon="-1.3046841"><ele>0.0</ele><time>2026-04-29T11:41:23.09Z</time></trkpt><trkpt lat="36.9815795" lon="-1.3045952"><ele>0.0</ele><time>2026-04-29T11:41:24.091Z</time></trkpt><trkpt lat="36.9816287" lon="-1.3045094"><ele>0.0</ele><time>2026-04-29T11:41:25.091Z</time></trkpt><trkpt lat="36.9816759" lon="-1.3044157"><ele>0.0</ele><time>2026-04-29T11:41:26.091Z</time></trkpt><trkpt lat="36.9817294" lon="-1.3043238"><ele>0.0</ele><time>2026-04-29T11:41:27.091Z</time></trkpt><trkpt lat="36.9817815" lon="-1.3042318"><ele>0.0</ele><time>2026-04-29T11:41:28.09Z</time></trkpt><trkpt lat="36.9818331" lon="-1.304143"><ele>0.0</ele><time>2026-04-29T11:41:29.091Z</time></trkpt><trkpt lat="36.981883" lon="-1.3040487"><ele>0.0</ele><time>2026-04-29T11:41:30.09Z</time></trkpt><trkpt lat="36.9819317" lon="-1.3039522"><ele>0.0</ele><time>2026-04-29T11:41:31.091Z</time></trkpt><trkpt lat="36.9819774" lon="-1.303862"><ele>0.0</ele><time>2026-04-29T11:41:32.091Z</time></trkpt><trkpt lat="36.9820298" lon="-1.3037733"><ele>0.0</ele><time>2026-04-29T11:41:33.091Z</time></trkpt><trkpt lat="36.9820855" lon="-1.3036861"><ele>0.0</ele><time>2026-04-29T11:41:34.091Z</time></trkpt><trkpt lat="36.9821378" lon="-1.3035953"><ele>0.0</ele><time>2026-04-29T11:41:35.09Z</time></trkpt><trkpt lat="36.9821898" lon="-1.3035062"><ele>0.0</ele><time>2026-04-29T11:41:36.091Z</time></trkpt><trkpt lat="36.9822387" lon="-1.303415"><ele>0.0</ele><time>2026-04-29T11:41:37.09Z</time></trkpt><trkpt lat="36.9822874" lon="-1.303325"><ele>0.0</ele><time>2026-04-29T11:41:38.091Z</time></trkpt><trkpt lat="36.9823368" lon="-1.3032379"><ele>0.0</ele><time>2026-04-29T11:41:39.091Z</time></trkpt><trkpt lat="36.9823881" lon="-1.3031488"><ele>0.0</ele><time>2026-04-29T11:41:40.091Z</time></trkpt><trkpt lat="36.9824382" lon="-1.3030558"><ele>0.0</ele><time>2026-04-29T11:41:41.091Z</time></trkpt><trkpt lat="36.9824843" lon="-1.3029626"><ele>0.0</ele><time>2026-04-29T11:41:42.091Z</time></trkpt><trkpt lat="36.982575" lon="-1.302774"><ele>0.0</ele><time>2026-04-29T11:41:44.091Z</time></trkpt><trkpt lat="36.9826252" lon="-1.3026836"><ele>0.0</ele><time>2026-04-29T11:41:45.091Z</time></trkpt><trkpt lat="36.9826737" lon="-1.3025933"><ele>0.0</ele><time>2026-04-29T11:41:46.09Z</time></trkpt><trkpt lat="36.9827232" lon="-1.302506"><ele>0.0</ele><time>2026-04-29T11:41:47.09Z</time></trkpt><trkpt lat="36.9827762" lon="-1.3024222"><ele>0.0</ele><time>2026-04-29T11:41:48.09Z</time></trkpt><trkpt lat="36.9828294" lon="-1.3023402"><ele>0.0</ele><time>2026-04-29T11:41:49.09Z</time></trkpt><trkpt lat="36.9828854" lon="-1.3022527"><ele>0.0</ele><time>2026-04-29T11:41:50.091Z</time></trkpt><trkpt lat="36.9829365" lon="-1.3021633"><ele>0.0</ele><time>2026-04-29T11:41:51.09Z</time></trkpt><trkpt lat="36.982984" lon="-1.3020693"><ele>0.0</ele><time>2026-04-29T11:41:52.09Z</time></trkpt><trkpt lat="36.9830377" lon="-1.3019799"><ele>0.0</ele><time>2026-04-29T11:41:53.091Z</time></trkpt><trkpt lat="36.9830869" lon="-1.3018914"><ele>0.0</ele><time>2026-04-29T11:41:54.09Z</time></trkpt><trkpt lat="36.9831354" lon="-1.3017988"><ele>0.0</ele><time>2026-04-29T11:41:55.091Z</time></trkpt><trkpt lat="36.9831851" lon="-1.3017056"><ele>0.0</ele><time>2026-04-29T11:41:56.09Z</time></trkpt><trkpt lat="36.983231" lon="-1.3016078"><ele>0.0</ele><time>2026-04-29T11:41:57.091Z</time></trkpt><trkpt lat="36.9832827" lon="-1.3015191"><ele>0.0</ele><time>2026-04-29T11:41:58.091Z</time></trkpt><trkpt lat="36.9833407" lon="-1.3014368"><ele>0.0</ele><time>2026-04-29T11:41:59.091Z</time></trkpt><trkpt lat="36.9833988" lon="-1.3013557"><ele>0.0</ele><time>2026-04-29T11:42:00.09Z</time></trkpt><trkpt lat="36.9834545" lon="-1.3012683"><ele>0.0</ele><time>2026-04-29T11:42:01.091Z</time></trkpt><trkpt lat="36.9835079" lon="-1.3011813"><ele>0.0</ele><time>2026-04-29T11:42:02.09Z</time></trkpt><trkpt lat="36.9835614" lon="-1.3010904"><ele>0.0</ele><time>2026-04-29T11:42:03.09Z</time></trkpt><trkpt lat="36.9836618" lon="-1.3009032"><ele>0.0</ele><time>2026-04-29T11:42:05.09Z</time></trkpt><trkpt lat="36.9837119" lon="-1.3008165"><ele>0.0</ele><time>2026-04-29T11:42:06.091Z</time></trkpt><trkpt lat="36.9837648" lon="-1.3007324"><ele>0.0</ele><time>2026-04-29T11:42:07.091Z</time></trkpt><trkpt lat="36.983808" lon="-1.3006403"><ele>0.0</ele><time>2026-04-29T11:42:08.091Z</time></trkpt><trkpt lat="36.9838555" lon="-1.3005557"><ele>0.0</ele><time>2026-04-29T11:42:09.091Z</time></trkpt><trkpt lat="36.9839083" lon="-1.3004627"><ele>0.0</ele><time>2026-04-29T11:42:10.091Z</time></trkpt><trkpt lat="36.9839572" lon="-1.3003706"><ele>0.0</ele><time>2026-04-29T11:42:11.09Z</time></trkpt><trkpt lat="36.9840067" lon="-1.3002812"><ele>0.0</ele><time>2026-04-29T11:42:12.09Z</time></trkpt><trkpt lat="36.984058" lon="-1.3001913"><ele>0.0</ele><time>2026-04-29T11:42:13.09Z</time></trkpt><trkpt lat="36.9841115" lon="-1.3000974"><ele>0.0</ele><time>2026-04-29T11:42:14.09Z</time></trkpt><trkpt lat="36.9841661" lon="-1.3000037"><ele>0.0</ele><time>2026-04-29T11:42:15.09Z</time></trkpt><trkpt lat="36.9842155" lon="-1.2999134"><ele>0.0</ele><time>2026-04-29T11:42:16.091Z</time></trkpt><trkpt lat="36.9842599" lon="-1.299832"><ele>0.0</ele><time>2026-04-29T11:42:17.09Z</time></trkpt><trkpt lat="36.9843172" lon="-1.2997433"><ele>0.0</ele><time>2026-04-29T11:42:18.091Z</time></trkpt><trkpt lat="36.9843685" lon="-1.2996509"><ele>0.0</ele><time>2026-04-29T11:42:19.09Z</time></trkpt><trkpt lat="36.9844231" lon="-1.2995604"><ele>0.0</ele><time>2026-04-29T11:42:20.09Z</time></trkpt><trkpt lat="36.9844764" lon="-1.299473"><ele>0.0</ele><time>2026-04-29T11:42:21.091Z</time></trkpt><trkpt lat="36.9845283" lon="-1.2993848"><ele>0.0</ele><time>2026-04-29T11:42:22.09Z</time></trkpt><trkpt lat="36.9845744" lon="-1.2992894"><ele>0.0</ele><time>2026-04-29T11:42:23.09Z</time></trkpt><trkpt lat="36.9846211" lon="-1.2991976"><ele>0.0</ele><time>2026-04-29T11:42:24.09Z</time></trkpt><trkpt lat="36.984726" lon="-1.2990223"><ele>0.0</ele><time>2026-04-29T11:42:26.09Z</time></trkpt><trkpt lat="36.9847796" lon="-1.2989375"><ele>0.0</ele><time>2026-04-29T11:42:27.09Z</time></trkpt><trkpt lat="36.984833" lon="-1.2988512"><ele>0.0</ele><time>2026-04-29T11:42:28.091Z</time></trkpt><trkpt lat="36.9848866" lon="-1.2987562"><ele>0.0</ele><time>2026-04-29T11:42:29.09Z</time></trkpt><trkpt lat="36.984937" lon="-1.2986653"><ele>0.0</ele><time>2026-04-29T11:42:30.09Z</time></trkpt><trkpt lat="36.9849924" lon="-1.2985839"><ele>0.0</ele><time>2026-04-29T11:42:31.09Z</time></trkpt><trkpt lat="36.9850431" lon="-1.2984993"><ele>0.0</ele><time>2026-04-29T11:42:32.09Z</time></trkpt><trkpt lat="36.9850932" lon="-1.2984053"><ele>0.0</ele><time>2026-04-29T11:42:33.09Z</time></trkpt><trkpt lat="36.9851434" lon="-1.2983122"><ele>0.0</ele><time>2026-04-29T11:42:34.09Z</time></trkpt><trkpt lat="36.9851906" lon="-1.2982217"><ele>0.0</ele><time>2026-04-29T11:42:35.09Z</time></trkpt><trkpt lat="36.9852388" lon="-1.2981317"><ele>0.0</ele><time>2026-04-29T11:42:36.091Z</time></trkpt><trkpt lat="36.9852903" lon="-1.298042"><ele>0.0</ele><time>2026-04-29T11:42:37.09Z</time></trkpt><trkpt lat="36.9853405" lon="-1.2979492"><ele>0.0</ele><time>2026-04-29T11:42:38.09Z</time></trkpt><trkpt lat="36.9853873" lon="-1.2978585"><ele>0.0</ele><time>2026-04-29T11:42:39.091Z</time></trkpt><trkpt lat="36.9854341" lon="-1.2977682"><ele>0.0</ele><time>2026-04-29T11:42:40.09Z</time></trkpt><trkpt lat="36.9854848" lon="-1.2976738"><ele>0.0</ele><time>2026-04-29T11:42:41.091Z</time></trkpt><trkpt lat="36.9855338" lon="-1.2975807"><ele>0.0</ele><time>2026-04-29T11:42:42.09Z</time></trkpt><trkpt lat="36.9855852" lon="-1.2974943"><ele>0.0</ele><time>2026-04-29T11:42:43.091Z</time></trkpt><trkpt lat="36.9856395" lon="-1.297412"><ele>0.0</ele><time>2026-04-29T11:42:44.09Z</time></trkpt><trkpt lat="36.9857465" lon="-1.2972346"><ele>0.0</ele><time>2026-04-29T11:42:46.091Z</time></trkpt><trkpt lat="36.9857926" lon="-1.2971448"><ele>0.0</ele><time>2026-04-29T11:42:47.09Z</time></trkpt><trkpt lat="36.9858431" lon="-1.2970519"><ele>0.0</ele><time>2026-04-29T11:42:48.09Z</time></trkpt><trkpt lat="36.9858922" lon="-1.2969604"><ele>0.0</ele><time>2026-04-29T11:42:49.091Z</time></trkpt><trkpt lat="36.985942" lon="-1.2968716"><ele>0.0</ele><time>2026-04-29T11:42:50.09Z</time></trkpt><trkpt lat="36.9859944" lon="-1.2967816"><ele>0.0</ele><time>2026-04-29T11:42:51.091Z</time></trkpt><trkpt lat="36.9860493" lon="-1.2966933"><ele>0.0</ele><time>2026-04-29T11:42:52.09Z</time></trkpt><trkpt lat="36.986107" lon="-1.2966032"><ele>0.0</ele><time>2026-04-29T11:42:53.091Z</time></trkpt><trkpt lat="36.9861572" lon="-1.2965164"><ele>0.0</ele><time>2026-04-29T11:42:54.09Z</time></trkpt><trkpt lat="36.9862068" lon="-1.2964239"><ele>0.0</ele><time>2026-04-29T11:42:55.091Z</time></trkpt><trkpt lat="36.9862541" lon="-1.2963335"><ele>0.0</ele><time>2026-04-29T11:42:56.09Z</time></trkpt><trkpt lat="36.986309" lon="-1.2962418"><ele>0.0</ele><time>2026-04-29T11:42:57.09Z</time></trkpt><trkpt lat="36.9863584" lon="-1.2961476"><ele>0.0</ele><time>2026-04-29T11:42:58.091Z</time></trkpt><trkpt lat="36.9864129" lon="-1.2960628"><ele>0.0</ele><time>2026-04-29T11:42:59.09Z</time></trkpt><trkpt lat="36.9864609" lon="-1.295975"><ele>0.0</ele><time>2026-04-29T11:43:00.091Z</time></trkpt><trkpt lat="36.9865103" lon="-1.2958867"><ele>0.0</ele><time>2026-04-29T11:43:01.091Z</time></trkpt><trkpt lat="36.9865577" lon="-1.2957929"><ele>0.0</ele><time>2026-04-29T11:43:02.091Z</time></trkpt><trkpt lat="36.9866083" lon="-1.2956977"><ele>0.0</ele><time>2026-04-29T11:43:03.09Z</time></trkpt><trkpt lat="36.9866556" lon="-1.2956054"><ele>0.0</ele><time>2026-04-29T11:43:04.09Z</time></trkpt><trkpt lat="36.9867026" lon="-1.295518"><ele>0.0</ele><time>2026-04-29T11:43:05.091Z</time></trkpt><trkpt lat="36.9868048" lon="-1.295343"><ele>0.0</ele><time>2026-04-29T11:43:07.09Z</time></trkpt><trkpt lat="36.9868637" lon="-1.2952548"><ele>0.0</ele><time>2026-04-29T11:43:08.091Z</time></trkpt><trkpt lat="36.9869139" lon="-1.2951651"><ele>0.0</ele><time>2026-04-29T11:43:09.09Z</time></trkpt><trkpt lat="36.9869595" lon="-1.2950722"><ele>0.0</ele><time>2026-04-29T11:43:10.09Z</time></trkpt><trkpt lat="36.9870041" lon="-1.294983"><ele>0.0</ele><time>2026-04-29T11:43:11.09Z</time></trkpt><trkpt lat="36.9870549" lon="-1.2948904"><ele>0.0</ele><time>2026-04-29T11:43:12.09Z</time></trkpt><trkpt lat="36.9871066" lon="-1.2947971"><ele>0.0</ele><time>2026-04-29T11:43:13.091Z</time></trkpt><trkpt lat="36.9871565" lon="-1.2947095"><ele>0.0</ele><time>2026-04-29T11:43:14.091Z</time></trkpt><trkpt lat="36.9872079" lon="-1.2946182"><ele>0.0</ele><time>2026-04-29T11:43:15.09Z</time></trkpt><trkpt lat="36.987261" lon="-1.294528"><ele>0.0</ele><time>2026-04-29T11:43:16.091Z</time></trkpt><trkpt lat="36.9873145" lon="-1.2944453"><ele>0.0</ele><time>2026-04-29T11:43:17.09Z</time></trkpt><trkpt lat="36.9873667" lon="-1.2943537"><ele>0.0</ele><time>2026-04-29T11:43:18.09Z</time></trkpt><trkpt lat="36.9874184" lon="-1.2942648"><ele>0.0</ele><time>2026-04-29T11:43:19.091Z</time></trkpt><trkpt lat="36.9874671" lon="-1.2941777"><ele>0.0</ele><time>2026-04-29T11:43:20.09Z</time></trkpt><trkpt lat="36.987521" lon="-1.294087"><ele>0.0</ele><time>2026-04-29T11:43:21.09Z</time></trkpt><trkpt lat="36.9875717" lon="-1.2939937"><ele>0.0</ele><time>2026-04-29T11:43:22.091Z</time></trkpt><trkpt lat="36.9876187" lon="-1.2939033"><ele>0.0</ele><time>2026-04-29T11:43:23.091Z</time></trkpt><trkpt lat="36.9876724" lon="-1.2938104"><ele>0.0</ele><time>2026-04-29T11:43:24.091Z</time></trkpt><trkpt lat="36.9877232" lon="-1.2937216"><ele>0.0</ele><time>2026-04-29T11:43:25.091Z</time></trkpt><trkpt lat="36.9877665" lon="-1.2936289"><ele>0.0</ele><time>2026-04-29T11:43:26.09Z</time></trkpt><trkpt lat="36.9878679" lon="-1.2934468"><ele>0.0</ele><time>2026-04-29T11:43:28.09Z</time></trkpt><trkpt lat="36.9879225" lon="-1.2933538"><ele>0.0</ele><time>2026-04-29T11:43:29.091Z</time></trkpt><trkpt lat="36.987975" lon="-1.2932667"><ele>0.0</ele><time>2026-04-29T11:43:30.091Z</time></trkpt><trkpt lat="36.9880266" lon="-1.2931737"><ele>0.0</ele><time>2026-04-29T11:43:31.09Z</time></trkpt><trkpt lat="36.9880781" lon="-1.293082"><ele>0.0</ele><time>2026-04-29T11:43:32.09Z</time></trkpt><trkpt lat="36.98813" lon="-1.2929919"><ele>0.0</ele><time>2026-04-29T11:43:33.091Z</time></trkpt><trkpt lat="36.9881771" lon="-1.2929057"><ele>0.0</ele><time>2026-04-29T11:43:34.09Z</time></trkpt><trkpt lat="36.9882268" lon="-1.2928151"><ele>0.0</ele><time>2026-04-29T11:43:35.091Z</time></trkpt><trkpt lat="36.9882781" lon="-1.2927208"><ele>0.0</ele><time>2026-04-29T11:43:36.09Z</time></trkpt><trkpt lat="36.9883283" lon="-1.2926371"><ele>0.0</ele><time>2026-04-29T11:43:37.09Z</time></trkpt><trkpt lat="36.9883786" lon="-1.2925469"><ele>0.0</ele><time>2026-04-29T11:43:38.091Z</time></trkpt><trkpt lat="36.9884314" lon="-1.2924593"><ele>0.0</ele><time>2026-04-29T11:43:39.09Z</time></trkpt><trkpt lat="36.9884789" lon="-1.2923716"><ele>0.0</ele><time>2026-04-29T11:43:40.091Z</time></trkpt><trkpt lat="36.9885285" lon="-1.2922871"><ele>0.0</ele><time>2026-04-29T11:43:41.091Z</time></trkpt><trkpt lat="36.9885825" lon="-1.2921936"><ele>0.0</ele><time>2026-04-29T11:43:42.091Z</time></trkpt><trkpt lat="36.9886276" lon="-1.2921006"><ele>0.0</ele><time>2026-04-29T11:43:43.09Z</time></trkpt><trkpt lat="36.9886739" lon="-1.2920084"><ele>0.0</ele><time>2026-04-29T11:43:44.09Z</time></trkpt><trkpt lat="36.988719" lon="-1.291915"><ele>0.0</ele><time>2026-04-29T11:43:45.09Z</time></trkpt><trkpt lat="36.9887684" lon="-1.2918236"><ele>0.0</ele><time>2026-04-29T11:43:46.09Z</time></trkpt><trkpt lat="36.9888183" lon="-1.2917292"><ele>0.0</ele><time>2026-04-29T11:43:47.091Z</time></trkpt><trkpt lat="36.9889227" lon="-1.2915519"><ele>0.0</ele><time>2026-04-29T11:43:49.09Z</time></trkpt><trkpt lat="36.9889761" lon="-1.2914632"><ele>0.0</ele><time>2026-04-29T11:43:50.09Z</time></trkpt><trkpt lat="36.989028" lon="-1.2913734"><ele>0.0</ele><time>2026-04-29T11:43:51.091Z</time></trkpt><trkpt lat="36.9890799" lon="-1.2912766"><ele>0.0</ele><time>2026-04-29T11:43:52.091Z</time></trkpt><trkpt lat="36.9891288" lon="-1.2911827"><ele>0.0</ele><time>2026-04-29T11:43:53.091Z</time></trkpt><trkpt lat="36.9891769" lon="-1.2910959"><ele>0.0</ele><time>2026-04-29T11:43:54.091Z</time></trkpt><trkpt lat="36.9892256" lon="-1.291008"><ele>0.0</ele><time>2026-04-29T11:43:55.09Z</time></trkpt><trkpt lat="36.9892752" lon="-1.2909196"><ele>0.0</ele><time>2026-04-29T11:43:56.09Z</time></trkpt><trkpt lat="36.9893281" lon="-1.2908286"><ele>0.0</ele><time>2026-04-29T11:43:57.09Z</time></trkpt><trkpt lat="36.9893814" lon="-1.2907413"><ele>0.0</ele><time>2026-04-29T11:43:58.09Z</time></trkpt><trkpt lat="36.9894265" lon="-1.2906336"><ele>0.0</ele><time>2026-04-29T11:43:59.091Z</time></trkpt><trkpt lat="36.9894782" lon="-1.2905461"><ele>0.0</ele><time>2026-04-29T11:44:00.09Z</time></trkpt><trkpt lat="36.9895343" lon="-1.2904608"><ele>0.0</ele><time>2026-04-29T11:44:01.09Z</time></trkpt><trkpt lat="36.9895893" lon="-1.2903685"><ele>0.0</ele><time>2026-04-29T11:44:02.09Z</time></trkpt><trkpt lat="36.9896415" lon="-1.2902796"><ele>0.0</ele><time>2026-04-29T11:44:03.09Z</time></trkpt><trkpt lat="36.9896918" lon="-1.2901889"><ele>0.0</ele><time>2026-04-29T11:44:04.09Z</time></trkpt><trkpt lat="36.9897434" lon="-1.2901045"><ele>0.0</ele><time>2026-04-29T11:44:05.091Z</time></trkpt><trkpt lat="36.9897993" lon="-1.2900164"><ele>0.0</ele><time>2026-04-29T11:44:06.09Z</time></trkpt><trkpt lat="36.9898531" lon="-1.2899308"><ele>0.0</ele><time>2026-04-29T11:44:07.091Z</time></trkpt><trkpt lat="36.9899055" lon="-1.2898431"><ele>0.0</ele><time>2026-04-29T11:44:08.091Z</time></trkpt><trkpt lat="36.9900038" lon="-1.2896712"><ele>0.0</ele><time>2026-04-29T11:44:10.09Z</time></trkpt><trkpt lat="36.9900566" lon="-1.2895886"><ele>0.0</ele><time>2026-04-29T11:44:11.091Z</time></trkpt><trkpt lat="36.9901098" lon="-1.2895041"><ele>0.0</ele><time>2026-04-29T11:44:12.091Z</time></trkpt><trkpt lat="36.990163" lon="-1.2894192"><ele>0.0</ele><time>2026-04-29T11:44:13.091Z</time></trkpt><trkpt lat="36.9902134" lon="-1.2893302"><ele>0.0</ele><time>2026-04-29T11:44:14.09Z</time></trkpt><trkpt lat="36.9902619" lon="-1.289237"><ele>0.0</ele><time>2026-04-29T11:44:15.091Z</time></trkpt><trkpt lat="36.9903104" lon="-1.2891396"><ele>0.0</ele><time>2026-04-29T11:44:16.09Z</time></trkpt><trkpt lat="36.9903589" lon="-1.2890487"><ele>0.0</ele><time>2026-04-29T11:44:17.09Z</time></trkpt><trkpt lat="36.9904129" lon="-1.2889599"><ele>0.0</ele><time>2026-04-29T11:44:18.091Z</time></trkpt><trkpt lat="36.9904638" lon="-1.288872"><ele>0.0</ele><time>2026-04-29T11:44:19.091Z</time></trkpt><trkpt lat="36.9905123" lon="-1.2887805"><ele>0.0</ele><time>2026-04-29T11:44:20.09Z</time></trkpt><trkpt lat="36.990569" lon="-1.2886959"><ele>0.0</ele><time>2026-04-29T11:44:21.091Z</time></trkpt><trkpt lat="36.9906187" lon="-1.2886095"><ele>0.0</ele><time>2026-04-29T11:44:22.091Z</time></trkpt><trkpt lat="36.9906698" lon="-1.2885186"><ele>0.0</ele><time>2026-04-29T11:44:23.09Z</time></trkpt><trkpt lat="36.9907202" lon="-1.2884314"><ele>0.0</ele><time>2026-04-29T11:44:24.09Z</time></trkpt><trkpt lat="36.9907717" lon="-1.2883431"><ele>0.0</ele><time>2026-04-29T11:44:25.09Z</time></trkpt><trkpt lat="36.9908234" lon="-1.2882561"><ele>0.0</ele><time>2026-04-29T11:44:26.091Z</time></trkpt><trkpt lat="36.9908734" lon="-1.2881666"><ele>0.0</ele><time>2026-04-29T11:44:27.09Z</time></trkpt><trkpt lat="36.9909222" lon="-1.2880711"><ele>0.0</ele><time>2026-04-29T11:44:28.09Z</time></trkpt><trkpt lat="36.9909718" lon="-1.287977"><ele>0.0</ele><time>2026-04-29T11:44:29.09Z</time></trkpt><trkpt lat="36.9910667" lon="-1.2877871"><ele>0.0</ele><time>2026-04-29T11:44:31.091Z</time></trkpt><trkpt lat="36.9911128" lon="-1.2876898"><ele>0.0</ele><time>2026-04-29T11:44:32.09Z</time></trkpt><trkpt lat="36.9911664" lon="-1.2876015"><ele>0.0</ele><time>2026-04-29T11:44:33.09Z</time></trkpt><trkpt lat="36.9912195" lon="-1.2875101"><ele>0.0</ele><time>2026-04-29T11:44:34.09Z</time></trkpt><trkpt lat="36.9912699" lon="-1.2874169"><ele>0.0</ele><time>2026-04-29T11:44:35.091Z</time></trkpt><trkpt lat="36.9913175" lon="-1.2873253"><ele>0.0</ele><time>2026-04-29T11:44:36.09Z</time></trkpt><trkpt lat="36.9913681" lon="-1.2872362"><ele>0.0</ele><time>2026-04-29T11:44:37.09Z</time></trkpt><trkpt lat="36.9914214" lon="-1.2871522"><ele>0.0</ele><time>2026-04-29T11:44:38.09Z</time></trkpt><trkpt lat="36.9914731" lon="-1.2870617"><ele>0.0</ele><time>2026-04-29T11:44:39.09Z</time></trkpt><trkpt lat="36.9915246" lon="-1.28697"><ele>0.0</ele><time>2026-04-29T11:44:40.09Z</time></trkpt><trkpt lat="36.9915765" lon="-1.2868757"><ele>0.0</ele><time>2026-04-29T11:44:41.091Z</time></trkpt><trkpt lat="36.9916282" lon="-1.2867825"><ele>0.0</ele><time>2026-04-29T11:44:42.091Z</time></trkpt><trkpt lat="36.9916726" lon="-1.2866889"><ele>0.0</ele><time>2026-04-29T11:44:43.09Z</time></trkpt><trkpt lat="36.9917176" lon="-1.2865929"><ele>0.0</ele><time>2026-04-29T11:44:44.091Z</time></trkpt><trkpt lat="36.9917652" lon="-1.2865018"><ele>0.0</ele><time>2026-04-29T11:44:45.09Z</time></trkpt><trkpt lat="36.991818" lon="-1.2864147"><ele>0.0</ele><time>2026-04-29T11:44:46.091Z</time></trkpt><trkpt lat="36.9918669" lon="-1.2863245"><ele>0.0</ele><time>2026-04-29T11:44:47.091Z</time></trkpt><trkpt lat="36.9919151" lon="-1.2862364"><ele>0.0</ele><time>2026-04-29T11:44:48.091Z</time></trkpt><trkpt lat="36.9919625" lon="-1.2861468"><ele>0.0</ele><time>2026-04-29T11:44:49.09Z</time></trkpt><trkpt lat="36.9920604" lon="-1.2859635"><ele>0.0</ele><time>2026-04-29T11:44:51.09Z</time></trkpt><trkpt lat="36.992113" lon="-1.2858704"><ele>0.0</ele><time>2026-04-29T11:44:52.09Z</time></trkpt><trkpt lat="36.9921638" lon="-1.2857831"><ele>0.0</ele><time>2026-04-29T11:44:53.09Z</time></trkpt><trkpt lat="36.9922168" lon="-1.2856991"><ele>0.0</ele><time>2026-04-29T11:44:54.09Z</time></trkpt><trkpt lat="36.992267" lon="-1.2856113"><ele>0.0</ele><time>2026-04-29T11:44:55.09Z</time></trkpt><trkpt lat="36.9923137" lon="-1.2855244"><ele>0.0</ele><time>2026-04-29T11:44:56.09Z</time></trkpt><trkpt lat="36.9923691" lon="-1.2854349"><ele>0.0</ele><time>2026-04-29T11:44:57.091Z</time></trkpt><trkpt lat="36.9924173" lon="-1.2853391"><ele>0.0</ele><time>2026-04-29T11:44:58.091Z</time></trkpt><trkpt lat="36.9924684" lon="-1.2852485"><ele>0.0</ele><time>2026-04-29T11:44:59.091Z</time></trkpt><trkpt lat="36.9925211" lon="-1.2851553"><ele>0.0</ele><time>2026-04-29T11:45:00.091Z</time></trkpt><trkpt lat="36.9925688" lon="-1.2850594"><ele>0.0</ele><time>2026-04-29T11:45:01.091Z</time></trkpt><trkpt lat="36.9926172" lon="-1.2849674"><ele>0.0</ele><time>2026-04-29T11:45:02.09Z</time></trkpt><trkpt lat="36.9926617" lon="-1.2848671"><ele>0.0</ele><time>2026-04-29T11:45:03.091Z</time></trkpt><trkpt lat="36.9927103" lon="-1.2847711"><ele>0.0</ele><time>2026-04-29T11:45:04.09Z</time></trkpt><trkpt lat="36.9927529" lon="-1.2846758"><ele>0.0</ele><time>2026-04-29T11:45:05.09Z</time></trkpt><trkpt lat="36.9927949" lon="-1.2845799"><ele>0.0</ele><time>2026-04-29T11:45:06.091Z</time></trkpt><trkpt lat="36.9928465" lon="-1.2844927"><ele>0.0</ele><time>2026-04-29T11:45:07.091Z</time></trkpt><trkpt lat="36.9928957" lon="-1.2844017"><ele>0.0</ele><time>2026-04-29T11:45:08.09Z</time></trkpt><trkpt lat="36.9929551" lon="-1.2843129"><ele>0.0</ele><time>2026-04-29T11:45:09.09Z</time></trkpt><trkpt lat="36.9930124" lon="-1.2842256"><ele>0.0</ele><time>2026-04-29T11:45:10.091Z</time></trkpt><trkpt lat="36.993117" lon="-1.2840594"><ele>0.0</ele><time>2026-04-29T11:45:12.09Z</time></trkpt><trkpt lat="36.9931728" lon="-1.2839729"><ele>0.0</ele><time>2026-04-29T11:45:13.091Z</time></trkpt><trkpt lat="36.9932249" lon="-1.2838833"><ele>0.0</ele><time>2026-04-29T11:45:14.091Z</time></trkpt><trkpt lat="36.9932751" lon="-1.2837891"><ele>0.0</ele><time>2026-04-29T11:45:15.091Z</time></trkpt><trkpt lat="36.9933259" lon="-1.2836991"><ele>0.0</ele><time>2026-04-29T11:45:16.091Z</time></trkpt><trkpt lat="36.9933754" lon="-1.2836043"><ele>0.0</ele><time>2026-04-29T11:45:17.09Z</time></trkpt><trkpt lat="36.9934308" lon="-1.283512"><ele>0.0</ele><time>2026-04-29T11:45:18.09Z</time></trkpt><trkpt lat="36.9934852" lon="-1.2834219"><ele>0.0</ele><time>2026-04-29T11:45:19.09Z</time></trkpt><trkpt lat="36.993534" lon="-1.2833321"><ele>0.0</ele><time>2026-04-29T11:45:20.09Z</time></trkpt><trkpt lat="36.9935853" lon="-1.2832435"><ele>0.0</ele><time>2026-04-29T11:45:21.091Z</time></trkpt><trkpt lat="36.9936353" lon="-1.2831563"><ele>0.0</ele><time>2026-04-29T11:45:22.09Z</time></trkpt><trkpt lat="36.993685" lon="-1.2830734"><ele>0.0</ele><time>2026-04-29T11:45:23.09Z</time></trkpt><trkpt lat="36.9937364" lon="-1.2829897"><ele>0.0</ele><time>2026-04-29T11:45:24.09Z</time></trkpt><trkpt lat="36.9937912" lon="-1.2829"><ele>0.0</ele><time>2026-04-29T11:45:25.091Z</time></trkpt><trkpt lat="36.9938409" lon="-1.2828084"><ele>0.0</ele><time>2026-04-29T11:45:26.09Z</time></trkpt><trkpt lat="36.9938848" lon="-1.2827226"><ele>0.0</ele><time>2026-04-29T11:45:27.091Z</time></trkpt><trkpt lat="36.993931" lon="-1.2826347"><ele>0.0</ele><time>2026-04-29T11:45:28.091Z</time></trkpt><trkpt lat="36.993979" lon="-1.2825408"><ele>0.0</ele><time>2026-04-29T11:45:29.09Z</time></trkpt><trkpt lat="36.9940283" lon="-1.2824499"><ele>0.0</ele><time>2026-04-29T11:45:30.09Z</time></trkpt><trkpt lat="36.9940775" lon="-1.2823587"><ele>0.0</ele><time>2026-04-29T11:45:31.09Z</time></trkpt><trkpt lat="36.9941704" lon="-1.2821764"><ele>0.0</ele><time>2026-04-29T11:45:33.09Z</time></trkpt><trkpt lat="36.9942327" lon="-1.2820867"><ele>0.0</ele><time>2026-04-29T11:45:34.091Z</time></trkpt><trkpt lat="36.9942892" lon="-1.282001"><ele>0.0</ele><time>2026-04-29T11:45:35.09Z</time></trkpt><trkpt lat="36.9943416" lon="-1.2819121"><ele>0.0</ele><time>2026-04-29T11:45:36.09Z</time></trkpt><trkpt lat="36.9943932" lon="-1.2818221"><ele>0.0</ele><time>2026-04-29T11:45:37.09Z</time></trkpt><trkpt lat="36.9944423" lon="-1.2817289"><ele>0.0</ele><time>2026-04-29T11:45:38.09Z</time></trkpt><trkpt lat="36.9944934" lon="-1.28164"><ele>0.0</ele><time>2026-04-29T11:45:39.09Z</time></trkpt><trkpt lat="36.994545" lon="-1.2815572"><ele>0.0</ele><time>2026-04-29T11:45:40.091Z</time></trkpt><trkpt lat="36.9945954" lon="-1.2814727"><ele>0.0</ele><time>2026-04-29T11:45:41.09Z</time></trkpt><trkpt lat="36.9946466" lon="-1.2813762"><ele>0.0</ele><time>2026-04-29T11:45:42.09Z</time></trkpt><trkpt lat="36.9946954" lon="-1.2812794"><ele>0.0</ele><time>2026-04-29T11:45:43.09Z</time></trkpt><trkpt lat="36.9947419" lon="-1.2811881"><ele>0.0</ele><time>2026-04-29T11:45:44.09Z</time></trkpt><trkpt lat="36.9947913" lon="-1.2811023"><ele>0.0</ele><time>2026-04-29T11:45:45.09Z</time></trkpt><trkpt lat="36.9948373" lon="-1.2810059"><ele>0.0</ele><time>2026-04-29T11:45:46.09Z</time></trkpt><trkpt lat="36.9948866" lon="-1.2809174"><ele>0.0</ele><time>2026-04-29T11:45:47.09Z</time></trkpt><trkpt lat="36.9949354" lon="-1.2808256"><ele>0.0</ele><time>2026-04-29T11:45:48.09Z</time></trkpt><trkpt lat="36.9949836" lon="-1.280732"><ele>0.0</ele><time>2026-04-29T11:45:49.09Z</time></trkpt><trkpt lat="36.9950376" lon="-1.2806388"><ele>0.0</ele><time>2026-04-29T11:45:50.091Z</time></trkpt><trkpt lat="36.9950895" lon="-1.2805482"><ele>0.0</ele><time>2026-04-29T11:45:51.091Z</time></trkpt><trkpt lat="36.9951358" lon="-1.2804554"><ele>0.0</ele><time>2026-04-29T11:45:52.09Z</time></trkpt><trkpt lat="36.9952382" lon="-1.2802673"><ele>0.0</ele><time>2026-04-29T11:45:54.091Z</time></trkpt><trkpt lat="36.9952855" lon="-1.2801764"><ele>0.0</ele><time>2026-04-29T11:45:55.09Z</time></trkpt><trkpt lat="36.9953365" lon="-1.2800867"><ele>0.0</ele><time>2026-04-29T11:45:56.09Z</time></trkpt><trkpt lat="36.995387" lon="-1.2799995"><ele>0.0</ele><time>2026-04-29T11:45:57.09Z</time></trkpt><trkpt lat="36.9954382" lon="-1.2799097"><ele>0.0</ele><time>2026-04-29T11:45:58.09Z</time></trkpt><trkpt lat="36.9954895" lon="-1.2798242"><ele>0.0</ele><time>2026-04-29T11:45:59.091Z</time></trkpt><trkpt lat="36.9955346" lon="-1.2797321"><ele>0.0</ele><time>2026-04-29T11:46:00.091Z</time></trkpt><trkpt lat="36.9955805" lon="-1.2796388"><ele>0.0</ele><time>2026-04-29T11:46:01.091Z</time></trkpt><trkpt lat="36.9956314" lon="-1.2795473"><ele>0.0</ele><time>2026-04-29T11:46:02.091Z</time></trkpt><trkpt lat="36.9956749" lon="-1.2794554"><ele>0.0</ele><time>2026-04-29T11:46:03.091Z</time></trkpt><trkpt lat="36.9957234" lon="-1.2793724"><ele>0.0</ele><time>2026-04-29T11:46:04.091Z</time></trkpt><trkpt lat="36.9957778" lon="-1.2792862"><ele>0.0</ele><time>2026-04-29T11:46:05.091Z</time></trkpt><trkpt lat="36.9958261" lon="-1.2791971"><ele>0.0</ele><time>2026-04-29T11:46:06.091Z</time></trkpt><trkpt lat="36.995878" lon="-1.2791026"><ele>0.0</ele><time>2026-04-29T11:46:07.09Z</time></trkpt><trkpt lat="36.9959315" lon="-1.2790178"><ele>0.0</ele><time>2026-04-29T11:46:08.091Z</time></trkpt><trkpt lat="36.9959834" lon="-1.2789258"><ele>0.0</ele><time>2026-04-29T11:46:09.09Z</time></trkpt><trkpt lat="36.9960354" lon="-1.2788371"><ele>0.0</ele><time>2026-04-29T11:46:10.091Z</time></trkpt><trkpt lat="36.996077" lon="-1.2787411"><ele>0.0</ele><time>2026-04-29T11:46:11.091Z</time></trkpt><trkpt lat="36.9961286" lon="-1.2786448"><ele>0.0</ele><time>2026-04-29T11:46:12.091Z</time></trkpt><trkpt lat="36.9962331" lon="-1.2784736"><ele>0.0</ele><time>2026-04-29T11:46:14.09Z</time></trkpt><trkpt lat="36.9962863" lon="-1.2783805"><ele>0.0</ele><time>2026-04-29T11:46:15.09Z</time></trkpt><trkpt lat="36.9963372" lon="-1.2782917"><ele>0.0</ele><time>2026-04-29T11:46:16.091Z</time></trkpt><trkpt lat="36.9963886" lon="-1.2782048"><ele>0.0</ele><time>2026-04-29T11:46:17.09Z</time></trkpt><trkpt lat="36.9964399" lon="-1.2781106"><ele>0.0</ele><time>2026-04-29T11:46:18.091Z</time></trkpt><trkpt lat="36.9964886" lon="-1.2780173"><ele>0.0</ele><time>2026-04-29T11:46:19.091Z</time></trkpt><trkpt lat="36.9965342" lon="-1.2779323"><ele>0.0</ele><time>2026-04-29T11:46:20.091Z</time></trkpt><trkpt lat="36.9965875" lon="-1.2778534"><ele>0.0</ele><time>2026-04-29T11:46:21.091Z</time></trkpt><trkpt lat="36.9966467" lon="-1.2777662"><ele>0.0</ele><time>2026-04-29T11:46:22.091Z</time></trkpt><trkpt lat="36.9966997" lon="-1.2776797"><ele>0.0</ele><time>2026-04-29T11:46:23.09Z</time></trkpt><trkpt lat="36.9967528" lon="-1.2775914"><ele>0.0</ele><time>2026-04-29T11:46:24.091Z</time></trkpt><trkpt lat="36.9968105" lon="-1.277499"><ele>0.0</ele><time>2026-04-29T11:46:25.091Z</time></trkpt><trkpt lat="36.9968632" lon="-1.2774071"><ele>0.0</ele><time>2026-04-29T11:46:26.09Z</time></trkpt><trkpt lat="36.9969125" lon="-1.2773174"><ele>0.0</ele><time>2026-04-29T11:46:27.09Z</time></trkpt><trkpt lat="36.9969623" lon="-1.2772313"><ele>0.0</ele><time>2026-04-29T11:46:28.09Z</time></trkpt><trkpt lat="36.9970091" lon="-1.2771405"><ele>0.0</ele><time>2026-04-29T11:46:29.091Z</time></trkpt><trkpt lat="36.9970573" lon="-1.2770518"><ele>0.0</ele><time>2026-04-29T11:46:30.09Z</time></trkpt><trkpt lat="36.9971113" lon="-1.2769604"><ele>0.0</ele><time>2026-04-29T11:46:31.091Z</time></trkpt><trkpt lat="36.9971663" lon="-1.2768761"><ele>0.0</ele><time>2026-04-29T11:46:32.09Z</time></trkpt><trkpt lat="36.9972172" lon="-1.2767872"><ele>0.0</ele><time>2026-04-29T11:46:33.091Z</time></trkpt><trkpt lat="36.9973171" lon="-1.2766116"><ele>0.0</ele><time>2026-04-29T11:46:35.091Z</time></trkpt><trkpt lat="36.997368" lon="-1.2765178"><ele>0.0</ele><time>2026-04-29T11:46:36.09Z</time></trkpt><trkpt lat="36.9974241" lon="-1.2764284"><ele>0.0</ele><time>2026-04-29T11:46:37.09Z</time></trkpt><trkpt lat="36.9974794" lon="-1.276336"><ele>0.0</ele><time>2026-04-29T11:46:38.09Z</time></trkpt><trkpt lat="36.9975318" lon="-1.2762427"><ele>0.0</ele><time>2026-04-29T11:46:39.091Z</time></trkpt><trkpt lat="36.9975805" lon="-1.2761577"><ele>0.0</ele><time>2026-04-29T11:46:40.09Z</time></trkpt><trkpt lat="36.9976287" lon="-1.2760655"><ele>0.0</ele><time>2026-04-29T11:46:41.091Z</time></trkpt><trkpt lat="36.9976756" lon="-1.2759709"><ele>0.0</ele><time>2026-04-29T11:46:42.09Z</time></trkpt><trkpt lat="36.9977265" lon="-1.275876"><ele>0.0</ele><time>2026-04-29T11:46:43.089Z</time></trkpt><trkpt lat="36.997774" lon="-1.2757798"><ele>0.0</ele><time>2026-04-29T11:46:44.09Z</time></trkpt><trkpt lat="36.9978234" lon="-1.2756873"><ele>0.0</ele><time>2026-04-29T11:46:45.089Z</time></trkpt><trkpt lat="36.9978692" lon="-1.2755995"><ele>0.0</ele><time>2026-04-29T11:46:46.089Z</time></trkpt><trkpt lat="36.9979171" lon="-1.2755142"><ele>0.0</ele><time>2026-04-29T11:46:47.089Z</time></trkpt><trkpt lat="36.9979639" lon="-1.2754306"><ele>0.0</ele><time>2026-04-29T11:46:48.089Z</time></trkpt><trkpt lat="36.9980122" lon="-1.2753418"><ele>0.0</ele><time>2026-04-29T11:46:49.09Z</time></trkpt><trkpt lat="36.9980564" lon="-1.2752448"><ele>0.0</ele><time>2026-04-29T11:46:50.089Z</time></trkpt><trkpt lat="36.9981023" lon="-1.2751534"><ele>0.0</ele><time>2026-04-29T11:46:51.089Z</time></trkpt><trkpt lat="36.9981489" lon="-1.2750663"><ele>0.0</ele><time>2026-04-29T11:46:52.089Z</time></trkpt><trkpt lat="36.9982028" lon="-1.274977"><ele>0.0</ele><time>2026-04-29T11:46:53.089Z</time></trkpt><trkpt lat="36.9982551" lon="-1.2748885"><ele>0.0</ele><time>2026-04-29T11:46:54.089Z</time></trkpt><trkpt lat="36.998344" lon="-1.2746981"><ele>0.0</ele><time>2026-04-29T11:46:56.09Z</time></trkpt><trkpt lat="36.9983878" lon="-1.2746028"><ele>0.0</ele><time>2026-04-29T11:46:57.089Z</time></trkpt><trkpt lat="36.9984412" lon="-1.2745146"><ele>0.0</ele><time>2026-04-29T11:46:58.089Z</time></trkpt><trkpt lat="36.9984915" lon="-1.2744205"><ele>0.0</ele><time>2026-04-29T11:46:59.089Z</time></trkpt><trkpt lat="36.9985401" lon="-1.2743313"><ele>0.0</ele><time>2026-04-29T11:47:00.09Z</time></trkpt><trkpt lat="36.9985911" lon="-1.2742488"><ele>0.0</ele><time>2026-04-29T11:47:01.089Z</time></trkpt><trkpt lat="36.9986406" lon="-1.2741532"><ele>0.0</ele><time>2026-04-29T11:47:02.09Z</time></trkpt><trkpt lat="36.9986873" lon="-1.2740633"><ele>0.0</ele><time>2026-04-29T11:47:03.09Z</time></trkpt><trkpt lat="36.9987354" lon="-1.2739734"><ele>0.0</ele><time>2026-04-29T11:47:04.089Z</time></trkpt><trkpt lat="36.9987881" lon="-1.2738859"><ele>0.0</ele><time>2026-04-29T11:47:05.09Z</time></trkpt><trkpt lat="36.9988414" lon="-1.2738022"><ele>0.0</ele><time>2026-04-29T11:47:06.089Z</time></trkpt><trkpt lat="36.9988963" lon="-1.2737107"><ele>0.0</ele><time>2026-04-29T11:47:07.089Z</time></trkpt><trkpt lat="36.9989469" lon="-1.273623"><ele>0.0</ele><time>2026-04-29T11:47:08.09Z</time></trkpt><trkpt lat="36.9989997" lon="-1.2735322"><ele>0.0</ele><time>2026-04-29T11:47:09.09Z</time></trkpt><trkpt lat="36.9990499" lon="-1.2734471"><ele>0.0</ele><time>2026-04-29T11:47:10.089Z</time></trkpt><trkpt lat="36.9990959" lon="-1.2733543"><ele>0.0</ele><time>2026-04-29T11:47:11.09Z</time></trkpt><trkpt lat="36.9991453" lon="-1.2732651"><ele>0.0</ele><time>2026-04-29T11:47:12.089Z</time></trkpt><trkpt lat="36.9991937" lon="-1.2731797"><ele>0.0</ele><time>2026-04-29T11:47:13.089Z</time></trkpt><trkpt lat="36.9992405" lon="-1.273086"><ele>0.0</ele><time>2026-04-29T11:47:14.09Z</time></trkpt><trkpt lat="36.9992944" lon="-1.2729998"><ele>0.0</ele><time>2026-04-29T11:47:15.09Z</time></trkpt><trkpt lat="36.9993908" lon="-1.2728234"><ele>0.0</ele><time>2026-04-29T11:47:17.089Z</time></trkpt><trkpt lat="36.999442" lon="-1.2727336"><ele>0.0</ele><time>2026-04-29T11:47:18.089Z</time></trkpt><trkpt lat="36.9994905" lon="-1.2726436"><ele>0.0</ele><time>2026-04-29T11:47:19.09Z</time></trkpt><trkpt lat="36.9995404" lon="-1.2725549"><ele>0.0</ele><time>2026-04-29T11:47:20.089Z</time></trkpt><trkpt lat="36.9995834" lon="-1.2724623"><ele>0.0</ele><time>2026-04-29T11:47:21.09Z</time></trkpt><trkpt lat="36.9996275" lon="-1.2723761"><ele>0.0</ele><time>2026-04-29T11:47:22.089Z</time></trkpt><trkpt lat="36.9996837" lon="-1.2722883"><ele>0.0</ele><time>2026-04-29T11:47:23.09Z</time></trkpt><trkpt lat="36.9997403" lon="-1.2721972"><ele>0.0</ele><time>2026-04-29T11:47:24.09Z</time></trkpt><trkpt lat="36.9997944" lon="-1.2721099"><ele>0.0</ele><time>2026-04-29T11:47:25.089Z</time></trkpt><trkpt lat="36.9998524" lon="-1.2720244"><ele>0.0</ele><time>2026-04-29T11:47:26.09Z</time></trkpt><trkpt lat="36.9999035" lon="-1.2719354"><ele>0.0</ele><time>2026-04-29T11:47:27.089Z</time></trkpt><trkpt lat="36.999954" lon="-1.2718497"><ele>0.0</ele><time>2026-04-29T11:47:28.089Z</time></trkpt><trkpt lat="37.0000051" lon="-1.2717573"><ele>0.0</ele><time>2026-04-29T11:47:29.089Z</time></trkpt><trkpt lat="37.0000526" lon="-1.2716687"><ele>0.0</ele><time>2026-04-29T11:47:30.089Z</time></trkpt><trkpt lat="37.0001048" lon="-1.2715791"><ele>0.0</ele><time>2026-04-29T11:47:31.09Z</time></trkpt><trkpt lat="37.0001554" lon="-1.2714987"><ele>0.0</ele><time>2026-04-29T11:47:32.089Z</time></trkpt><trkpt lat="37.0002093" lon="-1.2714127"><ele>0.0</ele><time>2026-04-29T11:47:33.09Z</time></trkpt><trkpt lat="37.0002656" lon="-1.2713261"><ele>0.0</ele><time>2026-04-29T11:47:34.09Z</time></trkpt><trkpt lat="37.0003205" lon="-1.2712422"><ele>0.0</ele><time>2026-04-29T11:47:35.09Z</time></trkpt><trkpt lat="37.000376" lon="-1.271152"><ele>0.0</ele><time>2026-04-29T11:47:36.089Z</time></trkpt><trkpt lat="37.000485" lon="-1.2709736"><ele>0.0</ele><time>2026-04-29T11:47:38.089Z</time></trkpt><trkpt lat="37.0005335" lon="-1.270892"><ele>0.0</ele><time>2026-04-29T11:47:39.089Z</time></trkpt><trkpt lat="37.0005849" lon="-1.2708034"><ele>0.0</ele><time>2026-04-29T11:47:40.089Z</time></trkpt><trkpt lat="37.0006311" lon="-1.270711"><ele>0.0</ele><time>2026-04-29T11:47:41.09Z</time></trkpt><trkpt lat="37.0006741" lon="-1.270613"><ele>0.0</ele><time>2026-04-29T11:47:42.089Z</time></trkpt><trkpt lat="37.0007219" lon="-1.2705176"><ele>0.0</ele><time>2026-04-29T11:47:43.089Z</time></trkpt><trkpt lat="37.0007662" lon="-1.2704285"><ele>0.0</ele><time>2026-04-29T11:47:44.089Z</time></trkpt><trkpt lat="37.0008151" lon="-1.2703438"><ele>0.0</ele><time>2026-04-29T11:47:45.09Z</time></trkpt><trkpt lat="37.0008648" lon="-1.2702548"><ele>0.0</ele><time>2026-04-29T11:47:46.089Z</time></trkpt><trkpt lat="37.000915" lon="-1.2701637"><ele>0.0</ele><time>2026-04-29T11:47:47.09Z</time></trkpt><trkpt lat="37.0009651" lon="-1.2700793"><ele>0.0</ele><time>2026-04-29T11:47:48.09Z</time></trkpt><trkpt lat="37.0010106" lon="-1.2699903"><ele>0.0</ele><time>2026-04-29T11:47:49.09Z</time></trkpt><trkpt lat="37.0010615" lon="-1.2699016"><ele>0.0</ele><time>2026-04-29T11:47:50.09Z</time></trkpt><trkpt lat="37.001109" lon="-1.2698133"><ele>0.0</ele><time>2026-04-29T11:47:51.089Z</time></trkpt><trkpt lat="37.0011554" lon="-1.2697205"><ele>0.0</ele><time>2026-04-29T11:47:52.089Z</time></trkpt><trkpt lat="37.0012038" lon="-1.2696331"><ele>0.0</ele><time>2026-04-29T11:47:53.09Z</time></trkpt><trkpt lat="37.001255" lon="-1.2695407"><ele>0.0</ele><time>2026-04-29T11:47:54.09Z</time></trkpt><trkpt lat="37.0013068" lon="-1.2694563"><ele>0.0</ele><time>2026-04-29T11:47:55.09Z</time></trkpt><trkpt lat="37.0013569" lon="-1.269364"><ele>0.0</ele><time>2026-04-29T11:47:56.089Z</time></trkpt><trkpt lat="37.0014515" lon="-1.2691924"><ele>0.0</ele><time>2026-04-29T11:47:58.089Z</time></trkpt><trkpt lat="37.0014974" lon="-1.2691063"><ele>0.0</ele><time>2026-04-29T11:47:59.089Z</time></trkpt><trkpt lat="37.0015429" lon="-1.2690116"><ele>0.0</ele><time>2026-04-29T11:48:00.09Z</time></trkpt><trkpt lat="37.0015994" lon="-1.268929"><ele>0.0</ele><time>2026-04-29T11:48:01.09Z</time></trkpt><trkpt lat="37.0016485" lon="-1.2688389"><ele>0.0</ele><time>2026-04-29T11:48:02.089Z</time></trkpt><trkpt lat="37.0016973" lon="-1.2687461"><ele>0.0</ele><time>2026-04-29T11:48:03.089Z</time></trkpt><trkpt lat="37.0017441" lon="-1.268657"><ele>0.0</ele><time>2026-04-29T11:48:04.09Z</time></trkpt><trkpt lat="37.0017978" lon="-1.2685717"><ele>0.0</ele><time>2026-04-29T11:48:05.09Z</time></trkpt><trkpt lat="37.0018499" lon="-1.2684833"><ele>0.0</ele><time>2026-04-29T11:48:06.089Z</time></trkpt><trkpt lat="37.0019004" lon="-1.2683909"><ele>0.0</ele><time>2026-04-29T11:48:07.09Z</time></trkpt><trkpt lat="37.0019543" lon="-1.2683016"><ele>0.0</ele><time>2026-04-29T11:48:08.089Z</time></trkpt><trkpt lat="37.0020108" lon="-1.2682105"><ele>0.0</ele><time>2026-04-29T11:48:09.089Z</time></trkpt><trkpt lat="37.0020619" lon="-1.2681205"><ele>0.0</ele><time>2026-04-29T11:48:10.09Z</time></trkpt><trkpt lat="37.0021092" lon="-1.2680305"><ele>0.0</ele><time>2026-04-29T11:48:11.09Z</time></trkpt><trkpt lat="37.0021569" lon="-1.2679415"><ele>0.0</ele><time>2026-04-29T11:48:12.089Z</time></trkpt><trkpt lat="37.0022097" lon="-1.2678562"><ele>0.0</ele><time>2026-04-29T11:48:13.09Z</time></trkpt><trkpt lat="37.0022629" lon="-1.2677682"><ele>0.0</ele><time>2026-04-29T11:48:14.089Z</time></trkpt><trkpt lat="37.0023176" lon="-1.2676828"><ele>0.0</ele><time>2026-04-29T11:48:15.089Z</time></trkpt><trkpt lat="37.0023716" lon="-1.2675953"><ele>0.0</ele><time>2026-04-29T11:48:16.09Z</time></trkpt><trkpt lat="37.0024248" lon="-1.2675097"><ele>0.0</ele><time>2026-04-29T11:48:17.09Z</time></trkpt><trkpt lat="37.002522" lon="-1.2673394"><ele>0.0</ele><time>2026-04-29T11:48:19.089Z</time></trkpt><trkpt lat="37.002572" lon="-1.2672501"><ele>0.0</ele><time>2026-04-29T11:48:20.09Z</time></trkpt><trkpt lat="37.0026187" lon="-1.2671487"><ele>0.0</ele><time>2026-04-29T11:48:21.09Z</time></trkpt><trkpt lat="37.0026739" lon="-1.2670554"><ele>0.0</ele><time>2026-04-29T11:48:22.09Z</time></trkpt><trkpt lat="37.0027222" lon="-1.2669654"><ele>0.0</ele><time>2026-04-29T11:48:23.089Z</time></trkpt><trkpt lat="37.0027675" lon="-1.2668762"><ele>0.0</ele><time>2026-04-29T11:48:24.089Z</time></trkpt><trkpt lat="37.0028138" lon="-1.2667907"><ele>0.0</ele><time>2026-04-29T11:48:25.09Z</time></trkpt><trkpt lat="37.0028535" lon="-1.2666961"><ele>0.0</ele><time>2026-04-29T11:48:26.09Z</time></trkpt><trkpt lat="37.0028949" lon="-1.2666067"><ele>0.0</ele><time>2026-04-29T11:48:27.09Z</time></trkpt><trkpt lat="37.0029435" lon="-1.2665211"><ele>0.0</ele><time>2026-04-29T11:48:28.089Z</time></trkpt><trkpt lat="37.0029978" lon="-1.266429"><ele>0.0</ele><time>2026-04-29T11:48:29.089Z</time></trkpt><trkpt lat="37.0030471" lon="-1.2663428"><ele>0.0</ele><time>2026-04-29T11:48:30.089Z</time></trkpt><trkpt lat="37.0030937" lon="-1.2662546"><ele>0.0</ele><time>2026-04-29T11:48:31.089Z</time></trkpt><trkpt lat="37.0031434" lon="-1.2661607"><ele>0.0</ele><time>2026-04-29T11:48:32.09Z</time></trkpt><trkpt lat="37.0031949" lon="-1.2660803"><ele>0.0</ele><time>2026-04-29T11:48:33.089Z</time></trkpt><trkpt lat="37.0032435" lon="-1.2659846"><ele>0.0</ele><time>2026-04-29T11:48:34.09Z</time></trkpt><trkpt lat="37.0032935" lon="-1.2658962"><ele>0.0</ele><time>2026-04-29T11:48:35.089Z</time></trkpt><trkpt lat="37.0033405" lon="-1.2658096"><ele>0.0</ele><time>2026-04-29T11:48:36.089Z</time></trkpt><trkpt lat="37.0033844" lon="-1.2657187"><ele>0.0</ele><time>2026-04-29T11:48:37.089Z</time></trkpt><trkpt lat="37.0034331" lon="-1.2656311"><ele>0.0</ele><time>2026-04-29T11:48:38.09Z</time></trkpt><trkpt lat="37.003537" lon="-1.2654562"><ele>0.0</ele><time>2026-04-29T11:48:40.09Z</time></trkpt><trkpt lat="37.0035842" lon="-1.2653629"><ele>0.0</ele><time>2026-04-29T11:48:41.089Z</time></trkpt><trkpt lat="37.0036308" lon="-1.2652676"><ele>0.0</ele><time>2026-04-29T11:48:42.09Z</time></trkpt><trkpt lat="37.0036785" lon="-1.2651739"><ele>0.0</ele><time>2026-04-29T11:48:43.09Z</time></trkpt><trkpt lat="37.0037229" lon="-1.2650809"><ele>0.0</ele><time>2026-04-29T11:48:44.089Z</time></trkpt><trkpt lat="37.0037671" lon="-1.2649876"><ele>0.0</ele><time>2026-04-29T11:48:45.09Z</time></trkpt><trkpt lat="37.0038152" lon="-1.2648957"><ele>0.0</ele><time>2026-04-29T11:48:46.089Z</time></trkpt><trkpt lat="37.0038605" lon="-1.2648024"><ele>0.0</ele><time>2026-04-29T11:48:47.089Z</time></trkpt><trkpt lat="37.0039098" lon="-1.2647118"><ele>0.0</ele><time>2026-04-29T11:48:48.09Z</time></trkpt><trkpt lat="37.003963" lon="-1.2646261"><ele>0.0</ele><time>2026-04-29T11:48:49.089Z</time></trkpt><trkpt lat="37.0040119" lon="-1.2645423"><ele>0.0</ele><time>2026-04-29T11:48:50.089Z</time></trkpt><trkpt lat="37.0040592" lon="-1.2644579"><ele>0.0</ele><time>2026-04-29T11:48:51.089Z</time></trkpt><trkpt lat="37.0041114" lon="-1.2643728"><ele>0.0</ele><time>2026-04-29T11:48:52.09Z</time></trkpt><trkpt lat="37.0041645" lon="-1.2642833"><ele>0.0</ele><time>2026-04-29T11:48:53.089Z</time></trkpt><trkpt lat="37.0042179" lon="-1.264195"><ele>0.0</ele><time>2026-04-29T11:48:54.089Z</time></trkpt><trkpt lat="37.0042665" lon="-1.2641075"><ele>0.0</ele><time>2026-04-29T11:48:55.09Z</time></trkpt><trkpt lat="37.004311" lon="-1.2640253"><ele>0.0</ele><time>2026-04-29T11:48:56.09Z</time></trkpt><trkpt lat="37.004356" lon="-1.2639295"><ele>0.0</ele><time>2026-04-29T11:48:57.09Z</time></trkpt><trkpt lat="37.0044037" lon="-1.263833"><ele>0.0</ele><time>2026-04-29T11:48:58.089Z</time></trkpt><trkpt lat="37.0044586" lon="-1.2637445"><ele>0.0</ele><time>2026-04-29T11:48:59.09Z</time></trkpt><trkpt lat="37.0045572" lon="-1.2635666"><ele>0.0</ele><time>2026-04-29T11:49:01.089Z</time></trkpt><trkpt lat="37.0046082" lon="-1.263478"><ele>0.0</ele><time>2026-04-29T11:49:02.09Z</time></trkpt><trkpt lat="37.0046553" lon="-1.2633883"><ele>0.0</ele><time>2026-04-29T11:49:03.089Z</time></trkpt><trkpt lat="37.0047067" lon="-1.2632957"><ele>0.0</ele><time>2026-04-29T11:49:04.09Z</time></trkpt><trkpt lat="37.0047583" lon="-1.2632039"><ele>0.0</ele><time>2026-04-29T11:49:05.089Z</time></trkpt><trkpt lat="37.0048127" lon="-1.2631108"><ele>0.0</ele><time>2026-04-29T11:49:06.09Z</time></trkpt><trkpt lat="37.0048633" lon="-1.263015"><ele>0.0</ele><time>2026-04-29T11:49:07.09Z</time></trkpt><trkpt lat="37.0049106" lon="-1.2629282"><ele>0.0</ele><time>2026-04-29T11:49:08.089Z</time></trkpt><trkpt lat="37.0049556" lon="-1.2628483"><ele>0.0</ele><time>2026-04-29T11:49:09.089Z</time></trkpt><trkpt lat="37.0050068" lon="-1.2627646"><ele>0.0</ele><time>2026-04-29T11:49:10.09Z</time></trkpt><trkpt lat="37.0050583" lon="-1.2626798"><ele>0.0</ele><time>2026-04-29T11:49:11.089Z</time></trkpt><trkpt lat="37.0051024" lon="-1.2625845"><ele>0.0</ele><time>2026-04-29T11:49:12.089Z</time></trkpt><trkpt lat="37.0051515" lon="-1.2624965"><ele>0.0</ele><time>2026-04-29T11:49:13.089Z</time></trkpt><trkpt lat="37.0052001" lon="-1.2624112"><ele>0.0</ele><time>2026-04-29T11:49:14.089Z</time></trkpt><trkpt lat="37.0052541" lon="-1.2623232"><ele>0.0</ele><time>2026-04-29T11:49:15.089Z</time></trkpt><trkpt lat="37.0053103" lon="-1.2622352"><ele>0.0</ele><time>2026-04-29T11:49:16.089Z</time></trkpt><trkpt lat="37.0053631" lon="-1.2621456"><ele>0.0</ele><time>2026-04-29T11:49:17.089Z</time></trkpt><trkpt lat="37.0054161" lon="-1.2620568"><ele>0.0</ele><time>2026-04-29T11:49:18.09Z</time></trkpt><trkpt lat="37.0054725" lon="-1.2619743"><ele>0.0</ele><time>2026-04-29T11:49:19.089Z</time></trkpt><trkpt lat="37.0055335" lon="-1.2618884"><ele>0.0</ele><time>2026-04-29T11:49:20.089Z</time></trkpt><trkpt lat="37.0056492" lon="-1.2617162"><ele>0.0</ele><time>2026-04-29T11:49:22.09Z</time></trkpt><trkpt lat="37.0057017" lon="-1.2616284"><ele>0.0</ele><time>2026-04-29T11:49:23.09Z</time></trkpt><trkpt lat="37.0057518" lon="-1.2615383"><ele>0.0</ele><time>2026-04-29T11:49:24.09Z</time></trkpt><trkpt lat="37.0058002" lon="-1.2614452"><ele>0.0</ele><time>2026-04-29T11:49:25.089Z</time></trkpt><trkpt lat="37.0058444" lon="-1.2613527"><ele>0.0</ele><time>2026-04-29T11:49:26.09Z</time></trkpt><trkpt lat="37.0058935" lon="-1.2612648"><ele>0.0</ele><time>2026-04-29T11:49:27.089Z</time></trkpt><trkpt lat="37.005938" lon="-1.2611681"><ele>0.0</ele><time>2026-04-29T11:49:28.089Z</time></trkpt><trkpt lat="37.0059873" lon="-1.2610759"><ele>0.0</ele><time>2026-04-29T11:49:29.089Z</time></trkpt><trkpt lat="37.0060354" lon="-1.2609965"><ele>0.0</ele><time>2026-04-29T11:49:30.09Z</time></trkpt><trkpt lat="37.0060825" lon="-1.2609073"><ele>0.0</ele><time>2026-04-29T11:49:31.09Z</time></trkpt><trkpt lat="37.006132" lon="-1.2608115"><ele>0.0</ele><time>2026-04-29T11:49:32.089Z</time></trkpt><trkpt lat="37.0061775" lon="-1.2607219"><ele>0.0</ele><time>2026-04-29T11:49:33.089Z</time></trkpt><trkpt lat="37.0062183" lon="-1.2606375"><ele>0.0</ele><time>2026-04-29T11:49:34.09Z</time></trkpt><trkpt lat="37.0062639" lon="-1.2605425"><ele>0.0</ele><time>2026-04-29T11:49:35.09Z</time></trkpt><trkpt lat="37.006312" lon="-1.260452"><ele>0.0</ele><time>2026-04-29T11:49:36.09Z</time></trkpt><trkpt lat="37.0063634" lon="-1.2603633"><ele>0.0</ele><time>2026-04-29T11:49:37.089Z</time></trkpt><trkpt lat="37.0064178" lon="-1.2602754"><ele>0.0</ele><time>2026-04-29T11:49:38.09Z</time></trkpt><trkpt lat="37.0064682" lon="-1.2601866"><ele>0.0</ele><time>2026-04-29T11:49:39.089Z</time></trkpt><trkpt lat="37.0065167" lon="-1.2600967"><ele>0.0</ele><time>2026-04-29T11:49:40.089Z</time></trkpt><trkpt lat="37.0066093" lon="-1.2599136"><ele>0.0</ele><time>2026-04-29T11:49:42.09Z</time></trkpt><trkpt lat="37.0066613" lon="-1.2598207"><ele>0.0</ele><time>2026-04-29T11:49:43.09Z</time></trkpt><trkpt lat="37.0067118" lon="-1.2597389"><ele>0.0</ele><time>2026-04-29T11:49:44.089Z</time></trkpt><trkpt lat="37.0067605" lon="-1.2596491"><ele>0.0</ele><time>2026-04-29T11:49:45.089Z</time></trkpt><trkpt lat="37.00681" lon="-1.2595582"><ele>0.0</ele><time>2026-04-29T11:49:46.089Z</time></trkpt><trkpt lat="37.0068596" lon="-1.259468"><ele>0.0</ele><time>2026-04-29T11:49:47.089Z</time></trkpt><trkpt lat="37.0069083" lon="-1.2593866"><ele>0.0</ele><time>2026-04-29T11:49:48.089Z</time></trkpt><trkpt lat="37.0069609" lon="-1.2592967"><ele>0.0</ele><time>2026-04-29T11:49:49.089Z</time></trkpt><trkpt lat="37.007013" lon="-1.2592084"><ele>0.0</ele><time>2026-04-29T11:49:50.089Z</time></trkpt><trkpt lat="37.0070617" lon="-1.2591226"><ele>0.0</ele><time>2026-04-29T11:49:51.089Z</time></trkpt><trkpt lat="37.0071119" lon="-1.259039"><ele>0.0</ele><time>2026-04-29T11:49:52.089Z</time></trkpt><trkpt lat="37.0071607" lon="-1.2589441"><ele>0.0</ele><time>2026-04-29T11:49:53.089Z</time></trkpt><trkpt lat="37.0072146" lon="-1.258855"><ele>0.0</ele><time>2026-04-29T11:49:54.09Z</time></trkpt><trkpt lat="37.0072722" lon="-1.2587582"><ele>0.0</ele><time>2026-04-29T11:49:55.089Z</time></trkpt><trkpt lat="37.0073247" lon="-1.2586672"><ele>0.0</ele><time>2026-04-29T11:49:56.09Z</time></trkpt><trkpt lat="37.0073723" lon="-1.2585856"><ele>0.0</ele><time>2026-04-29T11:49:57.09Z</time></trkpt><trkpt lat="37.0074233" lon="-1.2584955"><ele>0.0</ele><time>2026-04-29T11:49:58.089Z</time></trkpt><trkpt lat="37.0074747" lon="-1.2584081"><ele>0.0</ele><time>2026-04-29T11:49:59.089Z</time></trkpt><trkpt lat="37.0075223" lon="-1.2583116"><ele>0.0</ele><time>2026-04-29T11:50:00.089Z</time></trkpt><trkpt lat="37.0075673" lon="-1.2582189"><ele>0.0</ele><time>2026-04-29T11:50:01.089Z</time></trkpt><trkpt lat="37.0076691" lon="-1.2580367"><ele>0.0</ele><time>2026-04-29T11:50:03.089Z</time></trkpt><trkpt lat="37.0077169" lon="-1.2579452"><ele>0.0</ele><time>2026-04-29T11:50:04.089Z</time></trkpt><trkpt lat="37.007767" lon="-1.2578579"><ele>0.0</ele><time>2026-04-29T11:50:05.09Z</time></trkpt><trkpt lat="37.0078211" lon="-1.2577739"><ele>0.0</ele><time>2026-04-29T11:50:06.089Z</time></trkpt><trkpt lat="37.0078766" lon="-1.2576897"><ele>0.0</ele><time>2026-04-29T11:50:07.09Z</time></trkpt><trkpt lat="37.0079297" lon="-1.2576058"><ele>0.0</ele><time>2026-04-29T11:50:08.089Z</time></trkpt><trkpt lat="37.0079818" lon="-1.2575212"><ele>0.0</ele><time>2026-04-29T11:50:09.089Z</time></trkpt><trkpt lat="37.008029" lon="-1.257432"><ele>0.0</ele><time>2026-04-29T11:50:10.089Z</time></trkpt><trkpt lat="37.0080738" lon="-1.257343"><ele>0.0</ele><time>2026-04-29T11:50:11.089Z</time></trkpt><trkpt lat="37.0081221" lon="-1.2572537"><ele>0.0</ele><time>2026-04-29T11:50:12.089Z</time></trkpt><trkpt lat="37.0081648" lon="-1.257161"><ele>0.0</ele><time>2026-04-29T11:50:13.089Z</time></trkpt><trkpt lat="37.0082082" lon="-1.2570746"><ele>0.0</ele><time>2026-04-29T11:50:14.089Z</time></trkpt><trkpt lat="37.0082555" lon="-1.2569794"><ele>0.0</ele><time>2026-04-29T11:50:15.09Z</time></trkpt><trkpt lat="37.008301" lon="-1.2568888"><ele>0.0</ele><time>2026-04-29T11:50:16.09Z</time></trkpt><trkpt lat="37.0083519" lon="-1.2567999"><ele>0.0</ele><time>2026-04-29T11:50:17.09Z</time></trkpt><trkpt lat="37.0083989" lon="-1.2567133"><ele>0.0</ele><time>2026-04-29T11:50:18.089Z</time></trkpt><trkpt lat="37.0084513" lon="-1.2566296"><ele>0.0</ele><time>2026-04-29T11:50:19.089Z</time></trkpt><trkpt lat="37.0085062" lon="-1.2565404"><ele>0.0</ele><time>2026-04-29T11:50:20.089Z</time></trkpt><trkpt lat="37.0085615" lon="-1.2564562"><ele>0.0</ele><time>2026-04-29T11:50:21.09Z</time></trkpt><trkpt lat="37.0086191" lon="-1.2563741"><ele>0.0</ele><time>2026-04-29T11:50:22.09Z</time></trkpt><trkpt lat="37.0087266" lon="-1.2562033"><ele>0.0</ele><time>2026-04-29T11:50:24.089Z</time></trkpt><trkpt lat="37.0087742" lon="-1.2561137"><ele>0.0</ele><time>2026-04-29T11:50:25.09Z</time></trkpt><trkpt lat="37.0088237" lon="-1.2560282"><ele>0.0</ele><time>2026-04-29T11:50:26.089Z</time></trkpt><trkpt lat="37.0088678" lon="-1.2559347"><ele>0.0</ele><time>2026-04-29T11:50:27.089Z</time></trkpt><trkpt lat="37.008918" lon="-1.2558465"><ele>0.0</ele><time>2026-04-29T11:50:28.09Z</time></trkpt><trkpt lat="37.008977" lon="-1.2557558"><ele>0.0</ele><time>2026-04-29T11:50:29.089Z</time></trkpt><trkpt lat="37.0090257" lon="-1.2556725"><ele>0.0</ele><time>2026-04-29T11:50:30.089Z</time></trkpt><trkpt lat="37.0090696" lon="-1.2555807"><ele>0.0</ele><time>2026-04-29T11:50:31.09Z</time></trkpt><trkpt lat="37.0091173" lon="-1.2554918"><ele>0.0</ele><time>2026-04-29T11:50:32.09Z</time></trkpt><trkpt lat="37.0091653" lon="-1.2553949"><ele>0.0</ele><time>2026-04-29T11:50:33.089Z</time></trkpt><trkpt lat="37.0092273" lon="-1.255309"><ele>0.0</ele><time>2026-04-29T11:50:34.09Z</time></trkpt><trkpt lat="37.009274" lon="-1.2552231"><ele>0.0</ele><time>2026-04-29T11:50:35.089Z</time></trkpt><trkpt lat="37.009328" lon="-1.2551379"><ele>0.0</ele><time>2026-04-29T11:50:36.089Z</time></trkpt><trkpt lat="37.0093738" lon="-1.2550475"><ele>0.0</ele><time>2026-04-29T11:50:37.089Z</time></trkpt><trkpt lat="37.0094204" lon="-1.2549558"><ele>0.0</ele><time>2026-04-29T11:50:38.089Z</time></trkpt><trkpt lat="37.0094715" lon="-1.254868"><ele>0.0</ele><time>2026-04-29T11:50:39.09Z</time></trkpt><trkpt lat="37.0095219" lon="-1.2547799"><ele>0.0</ele><time>2026-04-29T11:50:40.09Z</time></trkpt><trkpt lat="37.0095745" lon="-1.2546985"><ele>0.0</ele><time>2026-04-29T11:50:41.089Z</time></trkpt><trkpt lat="37.0096238" lon="-1.2546084"><ele>0.0</ele><time>2026-04-29T11:50:42.089Z</time></trkpt><trkpt lat="37.0096724" lon="-1.2545187"><ele>0.0</ele><time>2026-04-29T11:50:43.089Z</time></trkpt><trkpt lat="37.0097687" lon="-1.2543371"><ele>0.0</ele><time>2026-04-29T11:50:45.089Z</time></trkpt><trkpt lat="37.0098172" lon="-1.2542484"><ele>0.0</ele><time>2026-04-29T11:50:46.09Z</time></trkpt><trkpt lat="37.0098638" lon="-1.254161"><ele>0.0</ele><time>2026-04-29T11:50:47.089Z</time></trkpt><trkpt lat="37.0099151" lon="-1.2540731"><ele>0.0</ele><time>2026-04-29T11:50:48.09Z</time></trkpt><trkpt lat="37.0099667" lon="-1.2539896"><ele>0.0</ele><time>2026-04-29T11:50:49.089Z</time></trkpt><trkpt lat="37.0100196" lon="-1.2539003"><ele>0.0</ele><time>2026-04-29T11:50:50.09Z</time></trkpt><trkpt lat="37.0100715" lon="-1.2538104"><ele>0.0</ele><time>2026-04-29T11:50:51.09Z</time></trkpt><trkpt lat="37.0101243" lon="-1.2537232"><ele>0.0</ele><time>2026-04-29T11:50:52.089Z</time></trkpt><trkpt lat="37.0101824" lon="-1.253642"><ele>0.0</ele><time>2026-04-29T11:50:53.09Z</time></trkpt><trkpt lat="37.0102347" lon="-1.2535564"><ele>0.0</ele><time>2026-04-29T11:50:54.089Z</time></trkpt><trkpt lat="37.0102837" lon="-1.2534697"><ele>0.0</ele><time>2026-04-29T11:50:55.09Z</time></trkpt><trkpt lat="37.0103364" lon="-1.2533807"><ele>0.0</ele><time>2026-04-29T11:50:56.09Z</time></trkpt><trkpt lat="37.0103798" lon="-1.2532833"><ele>0.0</ele><time>2026-04-29T11:50:57.09Z</time></trkpt><trkpt lat="37.0104288" lon="-1.2531939"><ele>0.0</ele><time>2026-04-29T11:50:58.09Z</time></trkpt><trkpt lat="37.0104771" lon="-1.2530996"><ele>0.0</ele><time>2026-04-29T11:50:59.089Z</time></trkpt><trkpt lat="37.010524" lon="-1.2530085"><ele>0.0</ele><time>2026-04-29T11:51:00.089Z</time></trkpt><trkpt lat="37.0105723" lon="-1.2529199"><ele>0.0</ele><time>2026-04-29T11:51:01.09Z</time></trkpt><trkpt lat="37.0106245" lon="-1.2528302"><ele>0.0</ele><time>2026-04-29T11:51:02.089Z</time></trkpt><trkpt lat="37.0106796" lon="-1.2527432"><ele>0.0</ele><time>2026-04-29T11:51:03.09Z</time></trkpt><trkpt lat="37.0107286" lon="-1.2526523"><ele>0.0</ele><time>2026-04-29T11:51:04.089Z</time></trkpt><trkpt lat="37.0108273" lon="-1.2524659"><ele>0.0</ele><time>2026-04-29T11:51:06.089Z</time></trkpt><trkpt lat="37.0108738" lon="-1.2523722"><ele>0.0</ele><time>2026-04-29T11:51:07.09Z</time></trkpt><trkpt lat="37.0109234" lon="-1.2522832"><ele>0.0</ele><time>2026-04-29T11:51:08.089Z</time></trkpt><trkpt lat="37.0109732" lon="-1.2521922"><ele>0.0</ele><time>2026-04-29T11:51:09.089Z</time></trkpt><trkpt lat="37.0110246" lon="-1.2521034"><ele>0.0</ele><time>2026-04-29T11:51:10.09Z</time></trkpt><trkpt lat="37.0110751" lon="-1.252015"><ele>0.0</ele><time>2026-04-29T11:51:11.089Z</time></trkpt><trkpt lat="37.0111251" lon="-1.2519296"><ele>0.0</ele><time>2026-04-29T11:51:12.089Z</time></trkpt><trkpt lat="37.0111736" lon="-1.2518442"><ele>0.0</ele><time>2026-04-29T11:51:13.089Z</time></trkpt><trkpt lat="37.0112206" lon="-1.2517554"><ele>0.0</ele><time>2026-04-29T11:51:14.089Z</time></trkpt><trkpt lat="37.0112659" lon="-1.2516637"><ele>0.0</ele><time>2026-04-29T11:51:15.089Z</time></trkpt><trkpt lat="37.0113162" lon="-1.2515751"><ele>0.0</ele><time>2026-04-29T11:51:16.09Z</time></trkpt><trkpt lat="37.0113666" lon="-1.2514809"><ele>0.0</ele><time>2026-04-29T11:51:17.089Z</time></trkpt><trkpt lat="37.0114156" lon="-1.2513901"><ele>0.0</ele><time>2026-04-29T11:51:18.089Z</time></trkpt><trkpt lat="37.0114653" lon="-1.2513026"><ele>0.0</ele><time>2026-04-29T11:51:19.089Z</time></trkpt><trkpt lat="37.0115165" lon="-1.2512148"><ele>0.0</ele><time>2026-04-29T11:51:20.089Z</time></trkpt><trkpt lat="37.0115669" lon="-1.2511321"><ele>0.0</ele><time>2026-04-29T11:51:21.089Z</time></trkpt><trkpt lat="37.0116168" lon="-1.2510473"><ele>0.0</ele><time>2026-04-29T11:51:22.089Z</time></trkpt><trkpt lat="37.0116668" lon="-1.250961"><ele>0.0</ele><time>2026-04-29T11:51:23.09Z</time></trkpt><trkpt lat="37.0117169" lon="-1.2508746"><ele>0.0</ele><time>2026-04-29T11:51:24.089Z</time></trkpt><trkpt lat="37.0117655" lon="-1.2507879"><ele>0.0</ele><time>2026-04-29T11:51:25.09Z</time></trkpt><trkpt lat="37.0118573" lon="-1.2506007"><ele>0.0</ele><time>2026-04-29T11:51:27.089Z</time></trkpt><trkpt lat="37.0119027" lon="-1.2505086"><ele>0.0</ele><time>2026-04-29T11:51:28.089Z</time></trkpt><trkpt lat="37.011949" lon="-1.2504184"><ele>0.0</ele><time>2026-04-29T11:51:29.089Z</time></trkpt><trkpt lat="37.0119956" lon="-1.2503284"><ele>0.0</ele><time>2026-04-29T11:51:30.089Z</time></trkpt><trkpt lat="37.0120452" lon="-1.2502425"><ele>0.0</ele><time>2026-04-29T11:51:31.09Z</time></trkpt><trkpt lat="37.012092" lon="-1.2501519"><ele>0.0</ele><time>2026-04-29T11:51:32.089Z</time></trkpt><trkpt lat="37.0121455" lon="-1.2500634"><ele>0.0</ele><time>2026-04-29T11:51:33.089Z</time></trkpt><trkpt lat="37.0122009" lon="-1.2499765"><ele>0.0</ele><time>2026-04-29T11:51:34.089Z</time></trkpt><trkpt lat="37.012249" lon="-1.2498857"><ele>0.0</ele><time>2026-04-29T11:51:35.09Z</time></trkpt><trkpt lat="37.0122938" lon="-1.2497964"><ele>0.0</ele><time>2026-04-29T11:51:36.09Z</time></trkpt><trkpt lat="37.0123447" lon="-1.2497082"><ele>0.0</ele><time>2026-04-29T11:51:37.089Z</time></trkpt><trkpt lat="37.0123934" lon="-1.2496214"><ele>0.0</ele><time>2026-04-29T11:51:38.09Z</time></trkpt><trkpt lat="37.012442" lon="-1.2495351"><ele>0.0</ele><time>2026-04-29T11:51:39.089Z</time></trkpt><trkpt lat="37.0124903" lon="-1.249447"><ele>0.0</ele><time>2026-04-29T11:51:40.09Z</time></trkpt><trkpt lat="37.0125387" lon="-1.2493572"><ele>0.0</ele><time>2026-04-29T11:51:41.089Z</time></trkpt><trkpt lat="37.0125884" lon="-1.2492686"><ele>0.0</ele><time>2026-04-29T11:51:42.089Z</time></trkpt><trkpt lat="37.01264" lon="-1.2491772"><ele>0.0</ele><time>2026-04-29T11:51:43.09Z</time></trkpt><trkpt lat="37.01269" lon="-1.2490854"><ele>0.0</ele><time>2026-04-29T11:51:44.089Z</time></trkpt><trkpt lat="37.0127386" lon="-1.2489937"><ele>0.0</ele><time>2026-04-29T11:51:45.089Z</time></trkpt><trkpt lat="37.0127869" lon="-1.2489018"><ele>0.0</ele><time>2026-04-29T11:51:46.09Z</time></trkpt><trkpt lat="37.0128852" lon="-1.2487221"><ele>0.0</ele><time>2026-04-29T11:51:48.09Z</time></trkpt><trkpt lat="37.0129346" lon="-1.248633"><ele>0.0</ele><time>2026-04-29T11:51:49.089Z</time></trkpt><trkpt lat="37.0129907" lon="-1.2485408"><ele>0.0</ele><time>2026-04-29T11:51:50.089Z</time></trkpt><trkpt lat="37.013046" lon="-1.2484537"><ele>0.0</ele><time>2026-04-29T11:51:51.09Z</time></trkpt><trkpt lat="37.0130953" lon="-1.2483655"><ele>0.0</ele><time>2026-04-29T11:51:52.09Z</time></trkpt><trkpt lat="37.013148" lon="-1.2482783"><ele>0.0</ele><time>2026-04-29T11:51:53.09Z</time></trkpt><trkpt lat="37.0131972" lon="-1.2481935"><ele>0.0</ele><time>2026-04-29T11:51:54.089Z</time></trkpt><trkpt lat="37.0132398" lon="-1.2480995"><ele>0.0</ele><time>2026-04-29T11:51:55.09Z</time></trkpt><trkpt lat="37.0132859" lon="-1.2480088"><ele>0.0</ele><time>2026-04-29T11:51:56.09Z</time></trkpt><trkpt lat="37.0133351" lon="-1.2479185"><ele>0.0</ele><time>2026-04-29T11:51:57.089Z</time></trkpt><trkpt lat="37.0133839" lon="-1.2478298"><ele>0.0</ele><time>2026-04-29T11:51:58.09Z</time></trkpt><trkpt lat="37.0134279" lon="-1.2477446"><ele>0.0</ele><time>2026-04-29T11:51:59.089Z</time></trkpt><trkpt lat="37.0134752" lon="-1.2476498"><ele>0.0</ele><time>2026-04-29T11:52:00.09Z</time></trkpt><trkpt lat="37.0135181" lon="-1.2475572"><ele>0.0</ele><time>2026-04-29T11:52:01.089Z</time></trkpt><trkpt lat="37.0135669" lon="-1.2474683"><ele>0.0</ele><time>2026-04-29T11:52:02.089Z</time></trkpt><trkpt lat="37.0136152" lon="-1.2473757"><ele>0.0</ele><time>2026-04-29T11:52:03.089Z</time></trkpt><trkpt lat="37.0136692" lon="-1.2472825"><ele>0.0</ele><time>2026-04-29T11:52:04.089Z</time></trkpt><trkpt lat="37.0137228" lon="-1.247195"><ele>0.0</ele><time>2026-04-29T11:52:05.089Z</time></trkpt><trkpt lat="37.0137765" lon="-1.2471153"><ele>0.0</ele><time>2026-04-29T11:52:06.09Z</time></trkpt><trkpt lat="37.0138299" lon="-1.2470353"><ele>0.0</ele><time>2026-04-29T11:52:07.09Z</time></trkpt><trkpt lat="37.0139391" lon="-1.2468689"><ele>0.0</ele><time>2026-04-29T11:52:09.089Z</time></trkpt><trkpt lat="37.0139929" lon="-1.2467833"><ele>0.0</ele><time>2026-04-29T11:52:10.09Z</time></trkpt><trkpt lat="37.0140437" lon="-1.2466923"><ele>0.0</ele><time>2026-04-29T11:52:11.09Z</time></trkpt><trkpt lat="37.0140935" lon="-1.2466049"><ele>0.0</ele><time>2026-04-29T11:52:12.09Z</time></trkpt><trkpt lat="37.0141397" lon="-1.246517"><ele>0.0</ele><time>2026-04-29T11:52:13.088Z</time></trkpt><trkpt lat="37.0141917" lon="-1.2464316"><ele>0.0</ele><time>2026-04-29T11:52:14.089Z</time></trkpt><trkpt lat="37.0142435" lon="-1.2463448"><ele>0.0</ele><time>2026-04-29T11:52:15.089Z</time></trkpt><trkpt lat="37.0142897" lon="-1.2462541"><ele>0.0</ele><time>2026-04-29T11:52:16.089Z</time></trkpt><trkpt lat="37.0143344" lon="-1.2461625"><ele>0.0</ele><time>2026-04-29T11:52:17.089Z</time></trkpt><trkpt lat="37.0143848" lon="-1.2460693"><ele>0.0</ele><time>2026-04-29T11:52:18.088Z</time></trkpt><trkpt lat="37.0144326" lon="-1.2459746"><ele>0.0</ele><time>2026-04-29T11:52:19.088Z</time></trkpt><trkpt lat="37.0144821" lon="-1.2458837"><ele>0.0</ele><time>2026-04-29T11:52:20.089Z</time></trkpt><trkpt lat="37.0145351" lon="-1.2457926"><ele>0.0</ele><time>2026-04-29T11:52:21.089Z</time></trkpt><trkpt lat="37.0145869" lon="-1.2457106"><ele>0.0</ele><time>2026-04-29T11:52:22.089Z</time></trkpt><trkpt lat="37.0146367" lon="-1.2456245"><ele>0.0</ele><time>2026-04-29T11:52:23.089Z</time></trkpt><trkpt lat="37.014687" lon="-1.2455383"><ele>0.0</ele><time>2026-04-29T11:52:24.088Z</time></trkpt><trkpt lat="37.014741" lon="-1.245447"><ele>0.0</ele><time>2026-04-29T11:52:25.088Z</time></trkpt><trkpt lat="37.0147906" lon="-1.2453571"><ele>0.0</ele><time>2026-04-29T11:52:26.088Z</time></trkpt><trkpt lat="37.0148401" lon="-1.2452701"><ele>0.0</ele><time>2026-04-29T11:52:27.089Z</time></trkpt><trkpt lat="37.0148918" lon="-1.2451819"><ele>0.0</ele><time>2026-04-29T11:52:28.089Z</time></trkpt><trkpt lat="37.0149871" lon="-1.2450099"><ele>0.0</ele><time>2026-04-29T11:52:30.089Z</time></trkpt><trkpt lat="37.0150338" lon="-1.2449145"><ele>0.0</ele><time>2026-04-29T11:52:31.089Z</time></trkpt><trkpt lat="37.0150861" lon="-1.2448233"><ele>0.0</ele><time>2026-04-29T11:52:32.088Z</time></trkpt><trkpt lat="37.015139" lon="-1.2447351"><ele>0.0</ele><time>2026-04-29T11:52:33.088Z</time></trkpt><trkpt lat="37.0151923" lon="-1.2446479"><ele>0.0</ele><time>2026-04-29T11:52:34.089Z</time></trkpt><trkpt lat="37.015247" lon="-1.2445609"><ele>0.0</ele><time>2026-04-29T11:52:35.088Z</time></trkpt><trkpt lat="37.0153051" lon="-1.2444746"><ele>0.0</ele><time>2026-04-29T11:52:36.089Z</time></trkpt><trkpt lat="37.0153608" lon="-1.2443895"><ele>0.0</ele><time>2026-04-29T11:52:37.089Z</time></trkpt><trkpt lat="37.0154086" lon="-1.2443002"><ele>0.0</ele><time>2026-04-29T11:52:38.088Z</time></trkpt><trkpt lat="37.0154584" lon="-1.2442129"><ele>0.0</ele><time>2026-04-29T11:52:39.088Z</time></trkpt><trkpt lat="37.0155071" lon="-1.2441235"><ele>0.0</ele><time>2026-04-29T11:52:40.089Z</time></trkpt><trkpt lat="37.015558" lon="-1.2440379"><ele>0.0</ele><time>2026-04-29T11:52:41.088Z</time></trkpt><trkpt lat="37.0156068" lon="-1.2439467"><ele>0.0</ele><time>2026-04-29T11:52:42.088Z</time></trkpt><trkpt lat="37.015665" lon="-1.2438669"><ele>0.0</ele><time>2026-04-29T11:52:43.088Z</time></trkpt><trkpt lat="37.0157138" lon="-1.2437788"><ele>0.0</ele><time>2026-04-29T11:52:44.088Z</time></trkpt><trkpt lat="37.015758" lon="-1.2436858"><ele>0.0</ele><time>2026-04-29T11:52:45.088Z</time></trkpt><trkpt lat="37.0158039" lon="-1.2435993"><ele>0.0</ele><time>2026-04-29T11:52:46.088Z</time></trkpt><trkpt lat="37.0158548" lon="-1.2435156"><ele>0.0</ele><time>2026-04-29T11:52:47.088Z</time></trkpt><trkpt lat="37.0159049" lon="-1.2434212"><ele>0.0</ele><time>2026-04-29T11:52:48.089Z</time></trkpt><trkpt lat="37.0159549" lon="-1.243329"><ele>0.0</ele><time>2026-04-29T11:52:49.089Z</time></trkpt><trkpt lat="37.01605" lon="-1.243143"><ele>0.0</ele><time>2026-04-29T11:52:51.089Z</time></trkpt><trkpt lat="37.0161" lon="-1.2430558"><ele>0.0</ele><time>2026-04-29T11:52:52.089Z</time></trkpt><trkpt lat="37.0161487" lon="-1.2429753"><ele>0.0</ele><time>2026-04-29T11:52:53.088Z</time></trkpt><trkpt lat="37.0161943" lon="-1.2428868"><ele>0.0</ele><time>2026-04-29T11:52:54.089Z</time></trkpt><trkpt lat="37.0162407" lon="-1.2427982"><ele>0.0</ele><time>2026-04-29T11:52:55.088Z</time></trkpt><trkpt lat="37.0162902" lon="-1.2427101"><ele>0.0</ele><time>2026-04-29T11:52:56.089Z</time></trkpt><trkpt lat="37.0163444" lon="-1.2426219"><ele>0.0</ele><time>2026-04-29T11:52:57.089Z</time></trkpt><trkpt lat="37.0163978" lon="-1.2425307"><ele>0.0</ele><time>2026-04-29T11:52:58.089Z</time></trkpt><trkpt lat="37.016451" lon="-1.2424403"><ele>0.0</ele><time>2026-04-29T11:52:59.089Z</time></trkpt><trkpt lat="37.0165044" lon="-1.2423534"><ele>0.0</ele><time>2026-04-29T11:53:00.088Z</time></trkpt><trkpt lat="37.0165534" lon="-1.2422621"><ele>0.0</ele><time>2026-04-29T11:53:01.088Z</time></trkpt><trkpt lat="37.0166018" lon="-1.2421692"><ele>0.0</ele><time>2026-04-29T11:53:02.089Z</time></trkpt><trkpt lat="37.0166529" lon="-1.2420811"><ele>0.0</ele><time>2026-04-29T11:53:03.088Z</time></trkpt><trkpt lat="37.0167063" lon="-1.2419918"><ele>0.0</ele><time>2026-04-29T11:53:04.089Z</time></trkpt><trkpt lat="37.016757" lon="-1.2419049"><ele>0.0</ele><time>2026-04-29T11:53:05.088Z</time></trkpt><trkpt lat="37.0168085" lon="-1.241814"><ele>0.0</ele><time>2026-04-29T11:53:06.089Z</time></trkpt><trkpt lat="37.0168628" lon="-1.2417241"><ele>0.0</ele><time>2026-04-29T11:53:07.088Z</time></trkpt><trkpt lat="37.0169163" lon="-1.241638"><ele>0.0</ele><time>2026-04-29T11:53:08.088Z</time></trkpt><trkpt lat="37.01696" lon="-1.2415462"><ele>0.0</ele><time>2026-04-29T11:53:09.088Z</time></trkpt><trkpt lat="37.0170061" lon="-1.2414572"><ele>0.0</ele><time>2026-04-29T11:53:10.089Z</time></trkpt><trkpt lat="37.01711" lon="-1.2412874"><ele>0.0</ele><time>2026-04-29T11:53:12.088Z</time></trkpt><trkpt lat="37.0171602" lon="-1.241204"><ele>0.0</ele><time>2026-04-29T11:53:13.089Z</time></trkpt><trkpt lat="37.0172101" lon="-1.2411163"><ele>0.0</ele><time>2026-04-29T11:53:14.088Z</time></trkpt><trkpt lat="37.0172643" lon="-1.241028"><ele>0.0</ele><time>2026-04-29T11:53:15.088Z</time></trkpt><trkpt lat="37.0173166" lon="-1.2409468"><ele>0.0</ele><time>2026-04-29T11:53:16.088Z</time></trkpt><trkpt lat="37.0173708" lon="-1.2408612"><ele>0.0</ele><time>2026-04-29T11:53:17.089Z</time></trkpt><trkpt lat="37.0174259" lon="-1.240772"><ele>0.0</ele><time>2026-04-29T11:53:18.089Z</time></trkpt><trkpt lat="37.0174821" lon="-1.2406791"><ele>0.0</ele><time>2026-04-29T11:53:19.089Z</time></trkpt><trkpt lat="37.0175361" lon="-1.240587"><ele>0.0</ele><time>2026-04-29T11:53:20.089Z</time></trkpt><trkpt lat="37.017584" lon="-1.2405011"><ele>0.0</ele><time>2026-04-29T11:53:21.088Z</time></trkpt><trkpt lat="37.0176347" lon="-1.2404105"><ele>0.0</ele><time>2026-04-29T11:53:22.089Z</time></trkpt><trkpt lat="37.0176848" lon="-1.2403189"><ele>0.0</ele><time>2026-04-29T11:53:23.088Z</time></trkpt><trkpt lat="37.0177347" lon="-1.2402384"><ele>0.0</ele><time>2026-04-29T11:53:24.088Z</time></trkpt><trkpt lat="37.0177834" lon="-1.2401515"><ele>0.0</ele><time>2026-04-29T11:53:25.088Z</time></trkpt><trkpt lat="37.0178405" lon="-1.2400667"><ele>0.0</ele><time>2026-04-29T11:53:26.089Z</time></trkpt><trkpt lat="37.0178885" lon="-1.2399771"><ele>0.0</ele><time>2026-04-29T11:53:27.088Z</time></trkpt><trkpt lat="37.0179381" lon="-1.2398868"><ele>0.0</ele><time>2026-04-29T11:53:28.088Z</time></trkpt><trkpt lat="37.0179868" lon="-1.2397951"><ele>0.0</ele><time>2026-04-29T11:53:29.088Z</time></trkpt><trkpt lat="37.0180365" lon="-1.2396993"><ele>0.0</ele><time>2026-04-29T11:53:30.089Z</time></trkpt><trkpt lat="37.0180852" lon="-1.2396058"><ele>0.0</ele><time>2026-04-29T11:53:31.088Z</time></trkpt><trkpt lat="37.0181835" lon="-1.2394252"><ele>0.0</ele><time>2026-04-29T11:53:33.088Z</time></trkpt><trkpt lat="37.0182293" lon="-1.239338"><ele>0.0</ele><time>2026-04-29T11:53:34.089Z</time></trkpt><trkpt lat="37.0182729" lon="-1.2392442"><ele>0.0</ele><time>2026-04-29T11:53:35.089Z</time></trkpt><trkpt lat="37.0183135" lon="-1.2391521"><ele>0.0</ele><time>2026-04-29T11:53:36.089Z</time></trkpt><trkpt lat="37.0183591" lon="-1.2390646"><ele>0.0</ele><time>2026-04-29T11:53:37.088Z</time></trkpt><trkpt lat="37.0184015" lon="-1.2389768"><ele>0.0</ele><time>2026-04-29T11:53:38.088Z</time></trkpt><trkpt lat="37.0184485" lon="-1.2388882"><ele>0.0</ele><time>2026-04-29T11:53:39.088Z</time></trkpt><trkpt lat="37.0185039" lon="-1.2387985"><ele>0.0</ele><time>2026-04-29T11:53:40.088Z</time></trkpt><trkpt lat="37.0185577" lon="-1.2387144"><ele>0.0</ele><time>2026-04-29T11:53:41.088Z</time></trkpt><trkpt lat="37.0186099" lon="-1.2386251"><ele>0.0</ele><time>2026-04-29T11:53:42.088Z</time></trkpt><trkpt lat="37.0186602" lon="-1.2385338"><ele>0.0</ele><time>2026-04-29T11:53:43.088Z</time></trkpt><trkpt lat="37.0187101" lon="-1.238449"><ele>0.0</ele><time>2026-04-29T11:53:44.089Z</time></trkpt><trkpt lat="37.0187587" lon="-1.23837"><ele>0.0</ele><time>2026-04-29T11:53:45.089Z</time></trkpt><trkpt lat="37.0188143" lon="-1.2382849"><ele>0.0</ele><time>2026-04-29T11:53:46.089Z</time></trkpt><trkpt lat="37.0188722" lon="-1.2381965"><ele>0.0</ele><time>2026-04-29T11:53:47.088Z</time></trkpt><trkpt lat="37.0189263" lon="-1.2381058"><ele>0.0</ele><time>2026-04-29T11:53:48.089Z</time></trkpt><trkpt lat="37.018974" lon="-1.2380131"><ele>0.0</ele><time>2026-04-29T11:53:49.088Z</time></trkpt><trkpt lat="37.0190209" lon="-1.2379235"><ele>0.0</ele><time>2026-04-29T11:53:50.089Z</time></trkpt><trkpt lat="37.0190689" lon="-1.2378335"><ele>0.0</ele><time>2026-04-29T11:53:51.088Z</time></trkpt><trkpt lat="37.0191145" lon="-1.2377447"><ele>0.0</ele><time>2026-04-29T11:53:52.089Z</time></trkpt><trkpt lat="37.0192116" lon="-1.2375796"><ele>0.0</ele><time>2026-04-29T11:53:54.088Z</time></trkpt><trkpt lat="37.0192673" lon="-1.2374989"><ele>0.0</ele><time>2026-04-29T11:53:55.089Z</time></trkpt><trkpt lat="37.0193268" lon="-1.2374143"><ele>0.0</ele><time>2026-04-29T11:53:56.088Z</time></trkpt><trkpt lat="37.0193783" lon="-1.2373293"><ele>0.0</ele><time>2026-04-29T11:53:57.088Z</time></trkpt><trkpt lat="37.0194276" lon="-1.2372461"><ele>0.0</ele><time>2026-04-29T11:53:58.089Z</time></trkpt><trkpt lat="37.0194783" lon="-1.237157"><ele>0.0</ele><time>2026-04-29T11:53:59.089Z</time></trkpt><trkpt lat="37.0195253" lon="-1.23707"><ele>0.0</ele><time>2026-04-29T11:54:00.089Z</time></trkpt><trkpt lat="37.0195736" lon="-1.2369834"><ele>0.0</ele><time>2026-04-29T11:54:01.088Z</time></trkpt><trkpt lat="37.0196248" lon="-1.2368911"><ele>0.0</ele><time>2026-04-29T11:54:02.089Z</time></trkpt><trkpt lat="37.0196767" lon="-1.2367988"><ele>0.0</ele><time>2026-04-29T11:54:03.088Z</time></trkpt><trkpt lat="37.01973" lon="-1.2367073"><ele>0.0</ele><time>2026-04-29T11:54:04.088Z</time></trkpt><trkpt lat="37.0197788" lon="-1.2366146"><ele>0.0</ele><time>2026-04-29T11:54:05.089Z</time></trkpt><trkpt lat="37.0198282" lon="-1.2365315"><ele>0.0</ele><time>2026-04-29T11:54:06.088Z</time></trkpt><trkpt lat="37.0198771" lon="-1.2364453"><ele>0.0</ele><time>2026-04-29T11:54:07.088Z</time></trkpt><trkpt lat="37.0199226" lon="-1.2363583"><ele>0.0</ele><time>2026-04-29T11:54:08.088Z</time></trkpt><trkpt lat="37.0199733" lon="-1.2362618"><ele>0.0</ele><time>2026-04-29T11:54:09.088Z</time></trkpt><trkpt lat="37.0200239" lon="-1.2361722"><ele>0.0</ele><time>2026-04-29T11:54:10.089Z</time></trkpt><trkpt lat="37.0200708" lon="-1.2360783"><ele>0.0</ele><time>2026-04-29T11:54:11.089Z</time></trkpt><trkpt lat="37.020116" lon="-1.2359856"><ele>0.0</ele><time>2026-04-29T11:54:12.088Z</time></trkpt><trkpt lat="37.0201637" lon="-1.2358943"><ele>0.0</ele><time>2026-04-29T11:54:13.088Z</time></trkpt><trkpt lat="37.0202626" lon="-1.2357167"><ele>0.0</ele><time>2026-04-29T11:54:15.089Z</time></trkpt><trkpt lat="37.0203134" lon="-1.2356297"><ele>0.0</ele><time>2026-04-29T11:54:16.088Z</time></trkpt><trkpt lat="37.0203622" lon="-1.235542"><ele>0.0</ele><time>2026-04-29T11:54:17.089Z</time></trkpt><trkpt lat="37.0204187" lon="-1.2354491"><ele>0.0</ele><time>2026-04-29T11:54:18.089Z</time></trkpt><trkpt lat="37.0204713" lon="-1.2353588"><ele>0.0</ele><time>2026-04-29T11:54:19.088Z</time></trkpt><trkpt lat="37.0205218" lon="-1.235273"><ele>0.0</ele><time>2026-04-29T11:54:20.088Z</time></trkpt><trkpt lat="37.0205675" lon="-1.2351904"><ele>0.0</ele><time>2026-04-29T11:54:21.088Z</time></trkpt><trkpt lat="37.0206124" lon="-1.2351086"><ele>0.0</ele><time>2026-04-29T11:54:22.088Z</time></trkpt><trkpt lat="37.0206576" lon="-1.2350189"><ele>0.0</ele><time>2026-04-29T11:54:23.089Z</time></trkpt><trkpt lat="37.0207084" lon="-1.2349272"><ele>0.0</ele><time>2026-04-29T11:54:24.088Z</time></trkpt><trkpt lat="37.0207613" lon="-1.2348372"><ele>0.0</ele><time>2026-04-29T11:54:25.089Z</time></trkpt><trkpt lat="37.0208172" lon="-1.234744"><ele>0.0</ele><time>2026-04-29T11:54:26.089Z</time></trkpt><trkpt lat="37.0208637" lon="-1.2346525"><ele>0.0</ele><time>2026-04-29T11:54:27.089Z</time></trkpt><trkpt lat="37.0209092" lon="-1.2345637"><ele>0.0</ele><time>2026-04-29T11:54:28.089Z</time></trkpt><trkpt lat="37.0209627" lon="-1.2344735"><ele>0.0</ele><time>2026-04-29T11:54:29.088Z</time></trkpt><trkpt lat="37.0210148" lon="-1.2343837"><ele>0.0</ele><time>2026-04-29T11:54:30.088Z</time></trkpt><trkpt lat="37.0210708" lon="-1.2342994"><ele>0.0</ele><time>2026-04-29T11:54:31.088Z</time></trkpt><trkpt lat="37.0211215" lon="-1.2342086"><ele>0.0</ele><time>2026-04-29T11:54:32.089Z</time></trkpt><trkpt lat="37.0211698" lon="-1.2341173"><ele>0.0</ele><time>2026-04-29T11:54:33.088Z</time></trkpt><trkpt lat="37.0212138" lon="-1.2340268"><ele>0.0</ele><time>2026-04-29T11:54:34.089Z</time></trkpt><trkpt lat="37.0213124" lon="-1.2338457"><ele>0.0</ele><time>2026-04-29T11:54:36.089Z</time></trkpt><trkpt lat="37.0213578" lon="-1.2337623"><ele>0.0</ele><time>2026-04-29T11:54:37.088Z</time></trkpt><trkpt lat="37.0214099" lon="-1.233672"><ele>0.0</ele><time>2026-04-29T11:54:38.089Z</time></trkpt><trkpt lat="37.0214587" lon="-1.2335864"><ele>0.0</ele><time>2026-04-29T11:54:39.089Z</time></trkpt><trkpt lat="37.0215088" lon="-1.2334913"><ele>0.0</ele><time>2026-04-29T11:54:40.089Z</time></trkpt><trkpt lat="37.0215602" lon="-1.2334118"><ele>0.0</ele><time>2026-04-29T11:54:41.088Z</time></trkpt><trkpt lat="37.0216034" lon="-1.233325"><ele>0.0</ele><time>2026-04-29T11:54:42.089Z</time></trkpt><trkpt lat="37.0216465" lon="-1.2332386"><ele>0.0</ele><time>2026-04-29T11:54:43.088Z</time></trkpt><trkpt lat="37.0216956" lon="-1.233146"><ele>0.0</ele><time>2026-04-29T11:54:44.089Z</time></trkpt><trkpt lat="37.021748" lon="-1.2330626"><ele>0.0</ele><time>2026-04-29T11:54:45.088Z</time></trkpt><trkpt lat="37.0218" lon="-1.2329736"><ele>0.0</ele><time>2026-04-29T11:54:46.088Z</time></trkpt><trkpt lat="37.0218542" lon="-1.2328822"><ele>0.0</ele><time>2026-04-29T11:54:47.089Z</time></trkpt><trkpt lat="37.0218993" lon="-1.2327974"><ele>0.0</ele><time>2026-04-29T11:54:48.089Z</time></trkpt><trkpt lat="37.0219486" lon="-1.2327043"><ele>0.0</ele><time>2026-04-29T11:54:49.089Z</time></trkpt><trkpt lat="37.0219941" lon="-1.2326122"><ele>0.0</ele><time>2026-04-29T11:54:50.089Z</time></trkpt><trkpt lat="37.0220406" lon="-1.2325261"><ele>0.0</ele><time>2026-04-29T11:54:51.088Z</time></trkpt><trkpt lat="37.0220845" lon="-1.2324329"><ele>0.0</ele><time>2026-04-29T11:54:52.088Z</time></trkpt><trkpt lat="37.0221307" lon="-1.232342"><ele>0.0</ele><time>2026-04-29T11:54:53.088Z</time></trkpt><trkpt lat="37.022183" lon="-1.2322563"><ele>0.0</ele><time>2026-04-29T11:54:54.088Z</time></trkpt><trkpt lat="37.0222378" lon="-1.2321741"><ele>0.0</ele><time>2026-04-29T11:54:55.088Z</time></trkpt><trkpt lat="37.0223476" lon="-1.2319954"><ele>0.0</ele><time>2026-04-29T11:54:57.089Z</time></trkpt><trkpt lat="37.0223999" lon="-1.2319079"><ele>0.0</ele><time>2026-04-29T11:54:58.088Z</time></trkpt><trkpt lat="37.0224516" lon="-1.2318269"><ele>0.0</ele><time>2026-04-29T11:54:59.089Z</time></trkpt><trkpt lat="37.0224993" lon="-1.2317342"><ele>0.0</ele><time>2026-04-29T11:55:00.088Z</time></trkpt><trkpt lat="37.0225472" lon="-1.2316396"><ele>0.0</ele><time>2026-04-29T11:55:01.088Z</time></trkpt><trkpt lat="37.022597" lon="-1.2315487"><ele>0.0</ele><time>2026-04-29T11:55:02.088Z</time></trkpt><trkpt lat="37.0226481" lon="-1.2314626"><ele>0.0</ele><time>2026-04-29T11:55:03.088Z</time></trkpt><trkpt lat="37.0227039" lon="-1.2313748"><ele>0.0</ele><time>2026-04-29T11:55:04.089Z</time></trkpt><trkpt lat="37.0227551" lon="-1.2312897"><ele>0.0</ele><time>2026-04-29T11:55:05.088Z</time></trkpt><trkpt lat="37.0228054" lon="-1.2312014"><ele>0.0</ele><time>2026-04-29T11:55:06.089Z</time></trkpt><trkpt lat="37.0228536" lon="-1.2311203"><ele>0.0</ele><time>2026-04-29T11:55:07.089Z</time></trkpt><trkpt lat="37.022905" lon="-1.2310392"><ele>0.0</ele><time>2026-04-29T11:55:08.089Z</time></trkpt><trkpt lat="37.0229511" lon="-1.2309476"><ele>0.0</ele><time>2026-04-29T11:55:09.089Z</time></trkpt><trkpt lat="37.0230015" lon="-1.2308529"><ele>0.0</ele><time>2026-04-29T11:55:10.088Z</time></trkpt><trkpt lat="37.023053" lon="-1.230762"><ele>0.0</ele><time>2026-04-29T11:55:11.088Z</time></trkpt><trkpt lat="37.0231047" lon="-1.2306719"><ele>0.0</ele><time>2026-04-29T11:55:12.089Z</time></trkpt><trkpt lat="37.0231564" lon="-1.2305845"><ele>0.0</ele><time>2026-04-29T11:55:13.089Z</time></trkpt><trkpt lat="37.0232111" lon="-1.2305007"><ele>0.0</ele><time>2026-04-29T11:55:14.089Z</time></trkpt><trkpt lat="37.0232657" lon="-1.2304174"><ele>0.0</ele><time>2026-04-29T11:55:15.089Z</time></trkpt><trkpt lat="37.0233165" lon="-1.2303326"><ele>0.0</ele><time>2026-04-29T11:55:16.088Z</time></trkpt><trkpt lat="37.0234078" lon="-1.2301369"><ele>0.0</ele><time>2026-04-29T11:55:18.089Z</time></trkpt><trkpt lat="37.023457" lon="-1.2300428"><ele>0.0</ele><time>2026-04-29T11:55:19.088Z</time></trkpt><trkpt lat="37.0235113" lon="-1.2299532"><ele>0.0</ele><time>2026-04-29T11:55:20.089Z</time></trkpt><trkpt lat="37.0235591" lon="-1.2298709"><ele>0.0</ele><time>2026-04-29T11:55:21.088Z</time></trkpt><trkpt lat="37.0236141" lon="-1.2297817"><ele>0.0</ele><time>2026-04-29T11:55:22.089Z</time></trkpt><trkpt lat="37.023665" lon="-1.229692"><ele>0.0</ele><time>2026-04-29T11:55:23.088Z</time></trkpt><trkpt lat="37.0237154" lon="-1.2296035"><ele>0.0</ele><time>2026-04-29T11:55:24.088Z</time></trkpt><trkpt lat="37.0237609" lon="-1.2295124"><ele>0.0</ele><time>2026-04-29T11:55:25.089Z</time></trkpt><trkpt lat="37.023807" lon="-1.2294318"><ele>0.0</ele><time>2026-04-29T11:55:26.089Z</time></trkpt><trkpt lat="37.0238494" lon="-1.2293388"><ele>0.0</ele><time>2026-04-29T11:55:27.088Z</time></trkpt><trkpt lat="37.0238898" lon="-1.2292512"><ele>0.0</ele><time>2026-04-29T11:55:28.088Z</time></trkpt><trkpt lat="37.0239325" lon="-1.2291643"><ele>0.0</ele><time>2026-04-29T11:55:29.089Z</time></trkpt><trkpt lat="37.0239888" lon="-1.2290751"><ele>0.0</ele><time>2026-04-29T11:55:30.089Z</time></trkpt><trkpt lat="37.0240351" lon="-1.2289879"><ele>0.0</ele><time>2026-04-29T11:55:31.088Z</time></trkpt><trkpt lat="37.0240822" lon="-1.2289026"><ele>0.0</ele><time>2026-04-29T11:55:32.088Z</time></trkpt><trkpt lat="37.0241275" lon="-1.2288191"><ele>0.0</ele><time>2026-04-29T11:55:33.089Z</time></trkpt><trkpt lat="37.0241739" lon="-1.2287272"><ele>0.0</ele><time>2026-04-29T11:55:34.088Z</time></trkpt><trkpt lat="37.0242174" lon="-1.2286329"><ele>0.0</ele><time>2026-04-29T11:55:35.088Z</time></trkpt><trkpt lat="37.0242693" lon="-1.2285458"><ele>0.0</ele><time>2026-04-29T11:55:36.089Z</time></trkpt><trkpt lat="37.0243198" lon="-1.2284595"><ele>0.0</ele><time>2026-04-29T11:55:37.088Z</time></trkpt><trkpt lat="37.0244308" lon="-1.2282858"><ele>0.0</ele><time>2026-04-29T11:55:39.088Z</time></trkpt><trkpt lat="37.0244875" lon="-1.2282054"><ele>0.0</ele><time>2026-04-29T11:55:40.089Z</time></trkpt><trkpt lat="37.0245372" lon="-1.2281182"><ele>0.0</ele><time>2026-04-29T11:55:41.088Z</time></trkpt><trkpt lat="37.0245902" lon="-1.2280287"><ele>0.0</ele><time>2026-04-29T11:55:42.089Z</time></trkpt><trkpt lat="37.0246405" lon="-1.2279444"><ele>0.0</ele><time>2026-04-29T11:55:43.088Z</time></trkpt><trkpt lat="37.0246905" lon="-1.2278567"><ele>0.0</ele><time>2026-04-29T11:55:44.088Z</time></trkpt><trkpt lat="37.0247377" lon="-1.2277656"><ele>0.0</ele><time>2026-04-29T11:55:45.089Z</time></trkpt><trkpt lat="37.0247897" lon="-1.2276826"><ele>0.0</ele><time>2026-04-29T11:55:46.089Z</time></trkpt><trkpt lat="37.0248442" lon="-1.2275882"><ele>0.0</ele><time>2026-04-29T11:55:47.088Z</time></trkpt><trkpt lat="37.0248966" lon="-1.2274929"><ele>0.0</ele><time>2026-04-29T11:55:48.088Z</time></trkpt><trkpt lat="37.0249482" lon="-1.2274077"><ele>0.0</ele><time>2026-04-29T11:55:49.088Z</time></trkpt><trkpt lat="37.0250071" lon="-1.2273158"><ele>0.0</ele><time>2026-04-29T11:55:50.089Z</time></trkpt><trkpt lat="37.0250626" lon="-1.2272239"><ele>0.0</ele><time>2026-04-29T11:55:51.088Z</time></trkpt><trkpt lat="37.0251121" lon="-1.2271269"><ele>0.0</ele><time>2026-04-29T11:55:52.088Z</time></trkpt><trkpt lat="37.0251665" lon="-1.2270356"><ele>0.0</ele><time>2026-04-29T11:55:53.089Z</time></trkpt><trkpt lat="37.025217" lon="-1.2269554"><ele>0.0</ele><time>2026-04-29T11:55:54.089Z</time></trkpt><trkpt lat="37.0252643" lon="-1.2268725"><ele>0.0</ele><time>2026-04-29T11:55:55.089Z</time></trkpt><trkpt lat="37.0253163" lon="-1.2267796"><ele>0.0</ele><time>2026-04-29T11:55:56.088Z</time></trkpt><trkpt lat="37.0253657" lon="-1.2266887"><ele>0.0</ele><time>2026-04-29T11:55:57.088Z</time></trkpt><trkpt lat="37.025417" lon="-1.2266029"><ele>0.0</ele><time>2026-04-29T11:55:58.089Z</time></trkpt><trkpt lat="37.025516" lon="-1.2264194"><ele>0.0</ele><time>2026-04-29T11:56:00.089Z</time></trkpt><trkpt lat="37.0255652" lon="-1.2263374"><ele>0.0</ele><time>2026-04-29T11:56:01.088Z</time></trkpt><trkpt lat="37.0256111" lon="-1.2262418"><ele>0.0</ele><time>2026-04-29T11:56:02.088Z</time></trkpt><trkpt lat="37.0256605" lon="-1.2261532"><ele>0.0</ele><time>2026-04-29T11:56:03.088Z</time></trkpt><trkpt lat="37.0257144" lon="-1.2260665"><ele>0.0</ele><time>2026-04-29T11:56:04.089Z</time></trkpt><trkpt lat="37.0257622" lon="-1.2259809"><ele>0.0</ele><time>2026-04-29T11:56:05.088Z</time></trkpt><trkpt lat="37.0258102" lon="-1.2258947"><ele>0.0</ele><time>2026-04-29T11:56:06.088Z</time></trkpt><trkpt lat="37.0258601" lon="-1.2258097"><ele>0.0</ele><time>2026-04-29T11:56:07.089Z</time></trkpt><trkpt lat="37.0259102" lon="-1.2257192"><ele>0.0</ele><time>2026-04-29T11:56:08.088Z</time></trkpt><trkpt lat="37.0259548" lon="-1.2256288"><ele>0.0</ele><time>2026-04-29T11:56:09.089Z</time></trkpt><trkpt lat="37.0260038" lon="-1.225545"><ele>0.0</ele><time>2026-04-29T11:56:10.088Z</time></trkpt><trkpt lat="37.026048" lon="-1.2254582"><ele>0.0</ele><time>2026-04-29T11:56:11.088Z</time></trkpt><trkpt lat="37.0260956" lon="-1.2253701"><ele>0.0</ele><time>2026-04-29T11:56:12.088Z</time></trkpt><trkpt lat="37.0261479" lon="-1.2252806"><ele>0.0</ele><time>2026-04-29T11:56:13.089Z</time></trkpt><trkpt lat="37.0262024" lon="-1.2251949"><ele>0.0</ele><time>2026-04-29T11:56:14.089Z</time></trkpt><trkpt lat="37.0262518" lon="-1.2251036"><ele>0.0</ele><time>2026-04-29T11:56:15.089Z</time></trkpt><trkpt lat="37.0262974" lon="-1.2250109"><ele>0.0</ele><time>2026-04-29T11:56:16.089Z</time></trkpt><trkpt lat="37.0263497" lon="-1.2249191"><ele>0.0</ele><time>2026-04-29T11:56:17.088Z</time></trkpt><trkpt lat="37.0264013" lon="-1.2248315"><ele>0.0</ele><time>2026-04-29T11:56:18.089Z</time></trkpt><trkpt lat="37.0264529" lon="-1.2247362"><ele>0.0</ele><time>2026-04-29T11:56:19.088Z</time></trkpt><trkpt lat="37.0265468" lon="-1.2245575"><ele>0.0</ele><time>2026-04-29T11:56:21.088Z</time></trkpt><trkpt lat="37.0265939" lon="-1.2244673"><ele>0.0</ele><time>2026-04-29T11:56:22.088Z</time></trkpt><trkpt lat="37.0266378" lon="-1.224377"><ele>0.0</ele><time>2026-04-29T11:56:23.088Z</time></trkpt><trkpt lat="37.0266856" lon="-1.2242927"><ele>0.0</ele><time>2026-04-29T11:56:24.088Z</time></trkpt><trkpt lat="37.0267363" lon="-1.2242047"><ele>0.0</ele><time>2026-04-29T11:56:25.089Z</time></trkpt><trkpt lat="37.0267837" lon="-1.2241208"><ele>0.0</ele><time>2026-04-29T11:56:26.089Z</time></trkpt><trkpt lat="37.0268375" lon="-1.2240346"><ele>0.0</ele><time>2026-04-29T11:56:27.088Z</time></trkpt><trkpt lat="37.0268869" lon="-1.2239384"><ele>0.0</ele><time>2026-04-29T11:56:28.089Z</time></trkpt><trkpt lat="37.0269465" lon="-1.2238568"><ele>0.0</ele><time>2026-04-29T11:56:29.088Z</time></trkpt><trkpt lat="37.0269938" lon="-1.2237715"><ele>0.0</ele><time>2026-04-29T11:56:30.089Z</time></trkpt><trkpt lat="37.0270422" lon="-1.2236838"><ele>0.0</ele><time>2026-04-29T11:56:31.089Z</time></trkpt><trkpt lat="37.0270892" lon="-1.2235982"><ele>0.0</ele><time>2026-04-29T11:56:32.088Z</time></trkpt><trkpt lat="37.0271358" lon="-1.2235143"><ele>0.0</ele><time>2026-04-29T11:56:33.088Z</time></trkpt><trkpt lat="37.027188" lon="-1.2234281"><ele>0.0</ele><time>2026-04-29T11:56:34.088Z</time></trkpt><trkpt lat="37.0272396" lon="-1.2233301"><ele>0.0</ele><time>2026-04-29T11:56:35.088Z</time></trkpt><trkpt lat="37.0272914" lon="-1.2232359"><ele>0.0</ele><time>2026-04-29T11:56:36.089Z</time></trkpt><trkpt lat="37.02734" lon="-1.2231493"><ele>0.0</ele><time>2026-04-29T11:56:37.088Z</time></trkpt><trkpt lat="37.0273901" lon="-1.2230575"><ele>0.0</ele><time>2026-04-29T11:56:38.089Z</time></trkpt><trkpt lat="37.0274355" lon="-1.2229739"><ele>0.0</ele><time>2026-04-29T11:56:39.089Z</time></trkpt><trkpt lat="37.0274907" lon="-1.2228822"><ele>0.0</ele><time>2026-04-29T11:56:40.089Z</time></trkpt><trkpt lat="37.0275899" lon="-1.2226955"><ele>0.0</ele><time>2026-04-29T11:56:42.089Z</time></trkpt><trkpt lat="37.0276441" lon="-1.2226081"><ele>0.0</ele><time>2026-04-29T11:56:43.089Z</time></trkpt><trkpt lat="37.0276922" lon="-1.2225215"><ele>0.0</ele><time>2026-04-29T11:56:44.088Z</time></trkpt><trkpt lat="37.0277449" lon="-1.2224318"><ele>0.0</ele><time>2026-04-29T11:56:45.088Z</time></trkpt><trkpt lat="37.0277908" lon="-1.2223472"><ele>0.0</ele><time>2026-04-29T11:56:46.088Z</time></trkpt><trkpt lat="37.0278431" lon="-1.2222584"><ele>0.0</ele><time>2026-04-29T11:56:47.088Z</time></trkpt><trkpt lat="37.0278881" lon="-1.2221612"><ele>0.0</ele><time>2026-04-29T11:56:48.088Z</time></trkpt><trkpt lat="37.0279399" lon="-1.2220761"><ele>0.0</ele><time>2026-04-29T11:56:49.089Z</time></trkpt><trkpt lat="37.0279874" lon="-1.2219855"><ele>0.0</ele><time>2026-04-29T11:56:50.088Z</time></trkpt><trkpt lat="37.0280336" lon="-1.2219022"><ele>0.0</ele><time>2026-04-29T11:56:51.088Z</time></trkpt><trkpt lat="37.0280834" lon="-1.221815"><ele>0.0</ele><time>2026-04-29T11:56:52.089Z</time></trkpt><trkpt lat="37.0281363" lon="-1.2217325"><ele>0.0</ele><time>2026-04-29T11:56:53.088Z</time></trkpt><trkpt lat="37.0281881" lon="-1.2216465"><ele>0.0</ele><time>2026-04-29T11:56:54.088Z</time></trkpt><trkpt lat="37.0282383" lon="-1.2215571"><ele>0.0</ele><time>2026-04-29T11:56:55.088Z</time></trkpt><trkpt lat="37.0282942" lon="-1.2214702"><ele>0.0</ele><time>2026-04-29T11:56:56.088Z</time></trkpt><trkpt lat="37.0283467" lon="-1.2213805"><ele>0.0</ele><time>2026-04-29T11:56:57.088Z</time></trkpt><trkpt lat="37.0283971" lon="-1.2212848"><ele>0.0</ele><time>2026-04-29T11:56:58.089Z</time></trkpt><trkpt lat="37.0284437" lon="-1.2211837"><ele>0.0</ele><time>2026-04-29T11:56:59.089Z</time></trkpt><trkpt lat="37.0284954" lon="-1.2210854"><ele>0.0</ele><time>2026-04-29T11:57:00.088Z</time></trkpt><trkpt lat="37.0285443" lon="-1.2209993"><ele>0.0</ele><time>2026-04-29T11:57:01.089Z</time></trkpt><trkpt lat="37.0286486" lon="-1.2208417"><ele>0.0</ele><time>2026-04-29T11:57:03.088Z</time></trkpt><trkpt lat="37.0287015" lon="-1.220765"><ele>0.0</ele><time>2026-04-29T11:57:04.089Z</time></trkpt><trkpt lat="37.0287492" lon="-1.2206824"><ele>0.0</ele><time>2026-04-29T11:57:05.089Z</time></trkpt><trkpt lat="37.0287974" lon="-1.2206022"><ele>0.0</ele><time>2026-04-29T11:57:06.088Z</time></trkpt><trkpt lat="37.0288523" lon="-1.220518"><ele>0.0</ele><time>2026-04-29T11:57:07.088Z</time></trkpt><trkpt lat="37.0289063" lon="-1.2204269"><ele>0.0</ele><time>2026-04-29T11:57:08.089Z</time></trkpt><trkpt lat="37.0289537" lon="-1.2203398"><ele>0.0</ele><time>2026-04-29T11:57:09.088Z</time></trkpt><trkpt lat="37.0290048" lon="-1.2202534"><ele>0.0</ele><time>2026-04-29T11:57:10.088Z</time></trkpt><trkpt lat="37.0290533" lon="-1.2201652"><ele>0.0</ele><time>2026-04-29T11:57:11.088Z</time></trkpt><trkpt lat="37.0291032" lon="-1.2200726"><ele>0.0</ele><time>2026-04-29T11:57:12.088Z</time></trkpt><trkpt lat="37.0291531" lon="-1.2199807"><ele>0.0</ele><time>2026-04-29T11:57:13.089Z</time></trkpt><trkpt lat="37.029202" lon="-1.2198886"><ele>0.0</ele><time>2026-04-29T11:57:14.088Z</time></trkpt><trkpt lat="37.0292518" lon="-1.2197955"><ele>0.0</ele><time>2026-04-29T11:57:15.088Z</time></trkpt><trkpt lat="37.0293001" lon="-1.2197021"><ele>0.0</ele><time>2026-04-29T11:57:16.089Z</time></trkpt><trkpt lat="37.0293472" lon="-1.2196078"><ele>0.0</ele><time>2026-04-29T11:57:17.089Z</time></trkpt><trkpt lat="37.0293981" lon="-1.2195202"><ele>0.0</ele><time>2026-04-29T11:57:18.089Z</time></trkpt><trkpt lat="37.0294526" lon="-1.2194318"><ele>0.0</ele><time>2026-04-29T11:57:19.089Z</time></trkpt><trkpt lat="37.0295047" lon="-1.2193435"><ele>0.0</ele><time>2026-04-29T11:57:20.088Z</time></trkpt><trkpt lat="37.029559" lon="-1.2192579"><ele>0.0</ele><time>2026-04-29T11:57:21.089Z</time></trkpt><trkpt lat="37.0296115" lon="-1.219174"><ele>0.0</ele><time>2026-04-29T11:57:22.089Z</time></trkpt><trkpt lat="37.0297119" lon="-1.2189956"><ele>0.0</ele><time>2026-04-29T11:57:24.089Z</time></trkpt><trkpt lat="37.0297636" lon="-1.2189081"><ele>0.0</ele><time>2026-04-29T11:57:25.089Z</time></trkpt><trkpt lat="37.0298138" lon="-1.2188158"><ele>0.0</ele><time>2026-04-29T11:57:26.089Z</time></trkpt><trkpt lat="37.0298635" lon="-1.2187255"><ele>0.0</ele><time>2026-04-29T11:57:27.088Z</time></trkpt><trkpt lat="37.029911" lon="-1.2186369"><ele>0.0</ele><time>2026-04-29T11:57:28.088Z</time></trkpt><trkpt lat="37.0299505" lon="-1.218547"><ele>0.0</ele><time>2026-04-29T11:57:29.088Z</time></trkpt><trkpt lat="37.0299914" lon="-1.2184543"><ele>0.0</ele><time>2026-04-29T11:57:30.088Z</time></trkpt><trkpt lat="37.0300376" lon="-1.2183623"><ele>0.0</ele><time>2026-04-29T11:57:31.088Z</time></trkpt><trkpt lat="37.030084" lon="-1.2182774"><ele>0.0</ele><time>2026-04-29T11:57:32.089Z</time></trkpt><trkpt lat="37.0301306" lon="-1.2181925"><ele>0.0</ele><time>2026-04-29T11:57:33.088Z</time></trkpt><trkpt lat="37.0301842" lon="-1.2181035"><ele>0.0</ele><time>2026-04-29T11:57:34.088Z</time></trkpt><trkpt lat="37.0302363" lon="-1.2180134"><ele>0.0</ele><time>2026-04-29T11:57:35.089Z</time></trkpt><trkpt lat="37.0302856" lon="-1.2179247"><ele>0.0</ele><time>2026-04-29T11:57:36.089Z</time></trkpt><trkpt lat="37.0303381" lon="-1.2178408"><ele>0.0</ele><time>2026-04-29T11:57:37.088Z</time></trkpt><trkpt lat="37.0303841" lon="-1.217752"><ele>0.0</ele><time>2026-04-29T11:57:38.088Z</time></trkpt><trkpt lat="37.0304335" lon="-1.217664"><ele>0.0</ele><time>2026-04-29T11:57:39.088Z</time></trkpt><trkpt lat="37.0304879" lon="-1.2175772"><ele>0.0</ele><time>2026-04-29T11:57:40.088Z</time></trkpt><trkpt lat="37.030536" lon="-1.2174785"><ele>0.0</ele><time>2026-04-29T11:57:41.087Z</time></trkpt><trkpt lat="37.0305937" lon="-1.2173888"><ele>0.0</ele><time>2026-04-29T11:57:42.088Z</time></trkpt><trkpt lat="37.030642" lon="-1.2172956"><ele>0.0</ele><time>2026-04-29T11:57:43.087Z</time></trkpt><trkpt lat="37.0307392" lon="-1.2171212"><ele>0.0</ele><time>2026-04-29T11:57:45.087Z</time></trkpt><trkpt lat="37.0307945" lon="-1.2170348"><ele>0.0</ele><time>2026-04-29T11:57:46.087Z</time></trkpt><trkpt lat="37.0308368" lon="-1.2169455"><ele>0.0</ele><time>2026-04-29T11:57:47.088Z</time></trkpt><trkpt lat="37.0308852" lon="-1.2168568"><ele>0.0</ele><time>2026-04-29T11:57:48.087Z</time></trkpt><trkpt lat="37.0309254" lon="-1.2167697"><ele>0.0</ele><time>2026-04-29T11:57:49.087Z</time></trkpt><trkpt lat="37.0309723" lon="-1.2166832"><ele>0.0</ele><time>2026-04-29T11:57:50.088Z</time></trkpt><trkpt lat="37.0310232" lon="-1.2165924"><ele>0.0</ele><time>2026-04-29T11:57:51.088Z</time></trkpt><trkpt lat="37.0310704" lon="-1.2165006"><ele>0.0</ele><time>2026-04-29T11:57:52.088Z</time></trkpt><trkpt lat="37.0311204" lon="-1.2164087"><ele>0.0</ele><time>2026-04-29T11:57:53.087Z</time></trkpt><trkpt lat="37.0311706" lon="-1.2163158"><ele>0.0</ele><time>2026-04-29T11:57:54.087Z</time></trkpt><trkpt lat="37.0312288" lon="-1.2162276"><ele>0.0</ele><time>2026-04-29T11:57:55.088Z</time></trkpt><trkpt lat="37.0312786" lon="-1.2161413"><ele>0.0</ele><time>2026-04-29T11:57:56.087Z</time></trkpt><trkpt lat="37.0313271" lon="-1.2160563"><ele>0.0</ele><time>2026-04-29T11:57:57.088Z</time></trkpt><trkpt lat="37.0313788" lon="-1.2159713"><ele>0.0</ele><time>2026-04-29T11:57:58.087Z</time></trkpt><trkpt lat="37.0314372" lon="-1.2158784"><ele>0.0</ele><time>2026-04-29T11:57:59.087Z</time></trkpt><trkpt lat="37.031493" lon="-1.2157921"><ele>0.0</ele><time>2026-04-29T11:58:00.087Z</time></trkpt><trkpt lat="37.0315436" lon="-1.2157032"><ele>0.0</ele><time>2026-04-29T11:58:01.088Z</time></trkpt><trkpt lat="37.0315933" lon="-1.2156135"><ele>0.0</ele><time>2026-04-29T11:58:02.088Z</time></trkpt><trkpt lat="37.0316421" lon="-1.2155265"><ele>0.0</ele><time>2026-04-29T11:58:03.088Z</time></trkpt><trkpt lat="37.0316902" lon="-1.2154384"><ele>0.0</ele><time>2026-04-29T11:58:04.088Z</time></trkpt><trkpt lat="37.031786" lon="-1.2152655"><ele>0.0</ele><time>2026-04-29T11:58:06.087Z</time></trkpt><trkpt lat="37.0318353" lon="-1.2151782"><ele>0.0</ele><time>2026-04-29T11:58:07.088Z</time></trkpt><trkpt lat="37.0318877" lon="-1.2150914"><ele>0.0</ele><time>2026-04-29T11:58:08.087Z</time></trkpt><trkpt lat="37.0319372" lon="-1.2150068"><ele>0.0</ele><time>2026-04-29T11:58:09.088Z</time></trkpt><trkpt lat="37.0319885" lon="-1.2149157"><ele>0.0</ele><time>2026-04-29T11:58:10.088Z</time></trkpt><trkpt lat="37.0320382" lon="-1.2148235"><ele>0.0</ele><time>2026-04-29T11:58:11.088Z</time></trkpt><trkpt lat="37.0320882" lon="-1.2147336"><ele>0.0</ele><time>2026-04-29T11:58:12.087Z</time></trkpt><trkpt lat="37.0321339" lon="-1.2146489"><ele>0.0</ele><time>2026-04-29T11:58:13.088Z</time></trkpt><trkpt lat="37.0321822" lon="-1.2145643"><ele>0.0</ele><time>2026-04-29T11:58:14.088Z</time></trkpt><trkpt lat="37.0322317" lon="-1.2144723"><ele>0.0</ele><time>2026-04-29T11:58:15.087Z</time></trkpt><trkpt lat="37.0322844" lon="-1.2143806"><ele>0.0</ele><time>2026-04-29T11:58:16.087Z</time></trkpt><trkpt lat="37.0323317" lon="-1.2142934"><ele>0.0</ele><time>2026-04-29T11:58:17.088Z</time></trkpt><trkpt lat="37.032383" lon="-1.2142025"><ele>0.0</ele><time>2026-04-29T11:58:18.087Z</time></trkpt><trkpt lat="37.0324335" lon="-1.2141134"><ele>0.0</ele><time>2026-04-29T11:58:19.087Z</time></trkpt><trkpt lat="37.0324821" lon="-1.2140266"><ele>0.0</ele><time>2026-04-29T11:58:20.088Z</time></trkpt><trkpt lat="37.0325305" lon="-1.2139384"><ele>0.0</ele><time>2026-04-29T11:58:21.087Z</time></trkpt><trkpt lat="37.0325775" lon="-1.2138458"><ele>0.0</ele><time>2026-04-29T11:58:22.087Z</time></trkpt><trkpt lat="37.0326215" lon="-1.2137541"><ele>0.0</ele><time>2026-04-29T11:58:23.087Z</time></trkpt><trkpt lat="37.0326719" lon="-1.2136595"><ele>0.0</ele><time>2026-04-29T11:58:24.088Z</time></trkpt><trkpt lat="37.0327123" lon="-1.2135661"><ele>0.0</ele><time>2026-04-29T11:58:25.088Z</time></trkpt><trkpt lat="37.0328218" lon="-1.2133854"><ele>0.0</ele><time>2026-04-29T11:58:27.087Z</time></trkpt><trkpt lat="37.0328706" lon="-1.2132881"><ele>0.0</ele><time>2026-04-29T11:58:28.088Z</time></trkpt><trkpt lat="37.0329155" lon="-1.2131967"><ele>0.0</ele><time>2026-04-29T11:58:29.088Z</time></trkpt><trkpt lat="37.0329663" lon="-1.2131115"><ele>0.0</ele><time>2026-04-29T11:58:30.087Z</time></trkpt><trkpt lat="37.0330166" lon="-1.2130279"><ele>0.0</ele><time>2026-04-29T11:58:31.088Z</time></trkpt><trkpt lat="37.0330666" lon="-1.2129455"><ele>0.0</ele><time>2026-04-29T11:58:32.088Z</time></trkpt><trkpt lat="37.0331136" lon="-1.2128597"><ele>0.0</ele><time>2026-04-29T11:58:33.088Z</time></trkpt><trkpt lat="37.0331601" lon="-1.2127699"><ele>0.0</ele><time>2026-04-29T11:58:34.088Z</time></trkpt><trkpt lat="37.0332056" lon="-1.2126847"><ele>0.0</ele><time>2026-04-29T11:58:35.088Z</time></trkpt><trkpt lat="37.033258" lon="-1.2125953"><ele>0.0</ele><time>2026-04-29T11:58:36.088Z</time></trkpt><trkpt lat="37.0333096" lon="-1.2125095"><ele>0.0</ele><time>2026-04-29T11:58:37.087Z</time></trkpt><trkpt lat="37.0333671" lon="-1.2124203"><ele>0.0</ele><time>2026-04-29T11:58:38.088Z</time></trkpt><trkpt lat="37.0334225" lon="-1.2123336"><ele>0.0</ele><time>2026-04-29T11:58:39.088Z</time></trkpt><trkpt lat="37.0334733" lon="-1.2122438"><ele>0.0</ele><time>2026-04-29T11:58:40.088Z</time></trkpt><trkpt lat="37.033525" lon="-1.2121564"><ele>0.0</ele><time>2026-04-29T11:58:41.087Z</time></trkpt><trkpt lat="37.0335754" lon="-1.2120726"><ele>0.0</ele><time>2026-04-29T11:58:42.088Z</time></trkpt><trkpt lat="37.033628" lon="-1.2119835"><ele>0.0</ele><time>2026-04-29T11:58:43.087Z</time></trkpt><trkpt lat="37.0336842" lon="-1.2118953"><ele>0.0</ele><time>2026-04-29T11:58:44.088Z</time></trkpt><trkpt lat="37.033737" lon="-1.2118098"><ele>0.0</ele><time>2026-04-29T11:58:45.087Z</time></trkpt><trkpt lat="37.0337827" lon="-1.2117273"><ele>0.0</ele><time>2026-04-29T11:58:46.088Z</time></trkpt><trkpt lat="37.0338819" lon="-1.211552"><ele>0.0</ele><time>2026-04-29T11:58:48.088Z</time></trkpt><trkpt lat="37.0339375" lon="-1.2114582"><ele>0.0</ele><time>2026-04-29T11:58:49.087Z</time></trkpt><trkpt lat="37.033993" lon="-1.2113688"><ele>0.0</ele><time>2026-04-29T11:58:50.087Z</time></trkpt><trkpt lat="37.0340552" lon="-1.2112729"><ele>0.0</ele><time>2026-04-29T11:58:51.088Z</time></trkpt><trkpt lat="37.0341114" lon="-1.2111978"><ele>0.0</ele><time>2026-04-29T11:58:52.087Z</time></trkpt><trkpt lat="37.034164" lon="-1.2111217"><ele>0.0</ele><time>2026-04-29T11:58:53.087Z</time></trkpt><trkpt lat="37.0342151" lon="-1.2110338"><ele>0.0</ele><time>2026-04-29T11:58:54.087Z</time></trkpt><trkpt lat="37.0342653" lon="-1.2109483"><ele>0.0</ele><time>2026-04-29T11:58:55.087Z</time></trkpt><trkpt lat="37.0343152" lon="-1.2108648"><ele>0.0</ele><time>2026-04-29T11:58:56.088Z</time></trkpt><trkpt lat="37.034364" lon="-1.2107839"><ele>0.0</ele><time>2026-04-29T11:58:57.087Z</time></trkpt><trkpt lat="37.0344196" lon="-1.2106913"><ele>0.0</ele><time>2026-04-29T11:58:58.087Z</time></trkpt><trkpt lat="37.0344678" lon="-1.2106092"><ele>0.0</ele><time>2026-04-29T11:58:59.087Z</time></trkpt><trkpt lat="37.0345159" lon="-1.2105132"><ele>0.0</ele><time>2026-04-29T11:59:00.087Z</time></trkpt><trkpt lat="37.0345715" lon="-1.2104147"><ele>0.0</ele><time>2026-04-29T11:59:01.087Z</time></trkpt><trkpt lat="37.0346201" lon="-1.2103239"><ele>0.0</ele><time>2026-04-29T11:59:02.087Z</time></trkpt><trkpt lat="37.0346788" lon="-1.210231"><ele>0.0</ele><time>2026-04-29T11:59:03.087Z</time></trkpt><trkpt lat="37.0347271" lon="-1.2101459"><ele>0.0</ele><time>2026-04-29T11:59:04.087Z</time></trkpt><trkpt lat="37.0347781" lon="-1.2100538"><ele>0.0</ele><time>2026-04-29T11:59:05.087Z</time></trkpt><trkpt lat="37.0348299" lon="-1.209967"><ele>0.0</ele><time>2026-04-29T11:59:06.088Z</time></trkpt><trkpt lat="37.0348774" lon="-1.2098818"><ele>0.0</ele><time>2026-04-29T11:59:07.088Z</time></trkpt><trkpt lat="37.0349772" lon="-1.2097104"><ele>0.0</ele><time>2026-04-29T11:59:09.088Z</time></trkpt><trkpt lat="37.0350256" lon="-1.2096216"><ele>0.0</ele><time>2026-04-29T11:59:10.088Z</time></trkpt><trkpt lat="37.0350811" lon="-1.2095307"><ele>0.0</ele><time>2026-04-29T11:59:11.087Z</time></trkpt><trkpt lat="37.0351338" lon="-1.2094477"><ele>0.0</ele><time>2026-04-29T11:59:12.088Z</time></trkpt><trkpt lat="37.0351808" lon="-1.2093613"><ele>0.0</ele><time>2026-04-29T11:59:13.087Z</time></trkpt><trkpt lat="37.0352276" lon="-1.2092704"><ele>0.0</ele><time>2026-04-29T11:59:14.087Z</time></trkpt><trkpt lat="37.0352756" lon="-1.2091846"><ele>0.0</ele><time>2026-04-29T11:59:15.087Z</time></trkpt><trkpt lat="37.0353239" lon="-1.2091013"><ele>0.0</ele><time>2026-04-29T11:59:16.088Z</time></trkpt><trkpt lat="37.035375" lon="-1.2090119"><ele>0.0</ele><time>2026-04-29T11:59:17.088Z</time></trkpt><trkpt lat="37.035424" lon="-1.2089234"><ele>0.0</ele><time>2026-04-29T11:59:18.088Z</time></trkpt><trkpt lat="37.0354717" lon="-1.2088322"><ele>0.0</ele><time>2026-04-29T11:59:19.088Z</time></trkpt><trkpt lat="37.0355185" lon="-1.2087447"><ele>0.0</ele><time>2026-04-29T11:59:20.087Z</time></trkpt><trkpt lat="37.0355686" lon="-1.2086565"><ele>0.0</ele><time>2026-04-29T11:59:21.088Z</time></trkpt><trkpt lat="37.0356181" lon="-1.2085654"><ele>0.0</ele><time>2026-04-29T11:59:22.088Z</time></trkpt><trkpt lat="37.0356697" lon="-1.2084741"><ele>0.0</ele><time>2026-04-29T11:59:23.087Z</time></trkpt><trkpt lat="37.0357171" lon="-1.2083913"><ele>0.0</ele><time>2026-04-29T11:59:24.088Z</time></trkpt><trkpt lat="37.0357676" lon="-1.208303"><ele>0.0</ele><time>2026-04-29T11:59:25.087Z</time></trkpt><trkpt lat="37.035818" lon="-1.2082094"><ele>0.0</ele><time>2026-04-29T11:59:26.088Z</time></trkpt><trkpt lat="37.0358698" lon="-1.2081203"><ele>0.0</ele><time>2026-04-29T11:59:27.087Z</time></trkpt><trkpt lat="37.0359283" lon="-1.2080345"><ele>0.0</ele><time>2026-04-29T11:59:28.087Z</time></trkpt><trkpt lat="37.036028" lon="-1.2078587"><ele>0.0</ele><time>2026-04-29T11:59:30.088Z</time></trkpt><trkpt lat="37.0360796" lon="-1.2077673"><ele>0.0</ele><time>2026-04-29T11:59:31.087Z</time></trkpt><trkpt lat="37.0361303" lon="-1.2076799"><ele>0.0</ele><time>2026-04-29T11:59:32.088Z</time></trkpt><trkpt lat="37.0361801" lon="-1.2075843"><ele>0.0</ele><time>2026-04-29T11:59:33.087Z</time></trkpt><trkpt lat="37.0362304" lon="-1.2074962"><ele>0.0</ele><time>2026-04-29T11:59:34.087Z</time></trkpt><trkpt lat="37.0362773" lon="-1.2074084"><ele>0.0</ele><time>2026-04-29T11:59:35.087Z</time></trkpt><trkpt lat="37.036325" lon="-1.2073181"><ele>0.0</ele><time>2026-04-29T11:59:36.088Z</time></trkpt><trkpt lat="37.0363694" lon="-1.2072273"><ele>0.0</ele><time>2026-04-29T11:59:37.087Z</time></trkpt><trkpt lat="37.0364181" lon="-1.2071314"><ele>0.0</ele><time>2026-04-29T11:59:38.088Z</time></trkpt><trkpt lat="37.0364654" lon="-1.2070386"><ele>0.0</ele><time>2026-04-29T11:59:39.088Z</time></trkpt><trkpt lat="37.0365134" lon="-1.2069498"><ele>0.0</ele><time>2026-04-29T11:59:40.087Z</time></trkpt><trkpt lat="37.036559" lon="-1.2068617"><ele>0.0</ele><time>2026-04-29T11:59:41.087Z</time></trkpt><trkpt lat="37.0366068" lon="-1.2067718"><ele>0.0</ele><time>2026-04-29T11:59:42.087Z</time></trkpt><trkpt lat="37.0366551" lon="-1.2066817"><ele>0.0</ele><time>2026-04-29T11:59:43.088Z</time></trkpt><trkpt lat="37.0367094" lon="-1.2065906"><ele>0.0</ele><time>2026-04-29T11:59:44.087Z</time></trkpt><trkpt lat="37.0367584" lon="-1.2065059"><ele>0.0</ele><time>2026-04-29T11:59:45.088Z</time></trkpt><trkpt lat="37.0368053" lon="-1.206418"><ele>0.0</ele><time>2026-04-29T11:59:46.088Z</time></trkpt><trkpt lat="37.036858" lon="-1.2063318"><ele>0.0</ele><time>2026-04-29T11:59:47.087Z</time></trkpt><trkpt lat="37.0369139" lon="-1.2062363"><ele>0.0</ele><time>2026-04-29T11:59:48.087Z</time></trkpt><trkpt lat="37.0369609" lon="-1.2061565"><ele>0.0</ele><time>2026-04-29T11:59:49.087Z</time></trkpt><trkpt lat="37.0370623" lon="-1.2059846"><ele>0.0</ele><time>2026-04-29T11:59:51.087Z</time></trkpt><trkpt lat="37.0371117" lon="-1.205892"><ele>0.0</ele><time>2026-04-29T11:59:52.087Z</time></trkpt><trkpt lat="37.0371646" lon="-1.2058022"><ele>0.0</ele><time>2026-04-29T11:59:53.088Z</time></trkpt><trkpt lat="37.0372179" lon="-1.2057079"><ele>0.0</ele><time>2026-04-29T11:59:54.087Z</time></trkpt><trkpt lat="37.03727" lon="-1.2056187"><ele>0.0</ele><time>2026-04-29T11:59:55.087Z</time></trkpt><trkpt lat="37.0373174" lon="-1.2055357"><ele>0.0</ele><time>2026-04-29T11:59:56.088Z</time></trkpt><trkpt lat="37.0373768" lon="-1.2054495"><ele>0.0</ele><time>2026-04-29T11:59:57.087Z</time></trkpt><trkpt lat="37.0374242" lon="-1.2053618"><ele>0.0</ele><time>2026-04-29T11:59:58.088Z</time></trkpt><trkpt lat="37.0374721" lon="-1.2052816"><ele>0.0</ele><time>2026-04-29T11:59:59.087Z</time></trkpt><trkpt lat="37.0375205" lon="-1.2051961"><ele>0.0</ele><time>2026-04-29T12:00:00.087Z</time></trkpt><trkpt lat="37.0375671" lon="-1.2051051"><ele>0.0</ele><time>2026-04-29T12:00:01.087Z</time></trkpt><trkpt lat="37.0376129" lon="-1.205014"><ele>0.0</ele><time>2026-04-29T12:00:02.088Z</time></trkpt><trkpt lat="37.0376665" lon="-1.2049182"><ele>0.0</ele><time>2026-04-29T12:00:03.088Z</time></trkpt><trkpt lat="37.0377198" lon="-1.2048354"><ele>0.0</ele><time>2026-04-29T12:00:04.087Z</time></trkpt><trkpt lat="37.0377804" lon="-1.2047438"><ele>0.0</ele><time>2026-04-29T12:00:05.087Z</time></trkpt><trkpt lat="37.0378347" lon="-1.2046537"><ele>0.0</ele><time>2026-04-29T12:00:06.088Z</time></trkpt><trkpt lat="37.0378826" lon="-1.2045638"><ele>0.0</ele><time>2026-04-29T12:00:07.088Z</time></trkpt><trkpt lat="37.0379221" lon="-1.2044766"><ele>0.0</ele><time>2026-04-29T12:00:08.087Z</time></trkpt><trkpt lat="37.037969" lon="-1.2043842"><ele>0.0</ele><time>2026-04-29T12:00:09.087Z</time></trkpt><trkpt lat="37.0380325" lon="-1.2042951"><ele>0.0</ele><time>2026-04-29T12:00:10.088Z</time></trkpt><trkpt lat="37.0381335" lon="-1.2041287"><ele>0.0</ele><time>2026-04-29T12:00:12.088Z</time></trkpt><trkpt lat="37.0381778" lon="-1.2040474"><ele>0.0</ele><time>2026-04-29T12:00:13.088Z</time></trkpt><trkpt lat="37.0382226" lon="-1.2039687"><ele>0.0</ele><time>2026-04-29T12:00:14.088Z</time></trkpt><trkpt lat="37.038276" lon="-1.2038773"><ele>0.0</ele><time>2026-04-29T12:00:15.087Z</time></trkpt><trkpt lat="37.0383272" lon="-1.2037967"><ele>0.0</ele><time>2026-04-29T12:00:16.087Z</time></trkpt><trkpt lat="37.0383817" lon="-1.2037085"><ele>0.0</ele><time>2026-04-29T12:00:17.087Z</time></trkpt><trkpt lat="37.0384321" lon="-1.2036196"><ele>0.0</ele><time>2026-04-29T12:00:18.088Z</time></trkpt><trkpt lat="37.0384889" lon="-1.2035228"><ele>0.0</ele><time>2026-04-29T12:00:19.088Z</time></trkpt><trkpt lat="37.0385389" lon="-1.2034377"><ele>0.0</ele><time>2026-04-29T12:00:20.087Z</time></trkpt><trkpt lat="37.0385872" lon="-1.2033513"><ele>0.0</ele><time>2026-04-29T12:00:21.087Z</time></trkpt><trkpt lat="37.0386355" lon="-1.2032632"><ele>0.0</ele><time>2026-04-29T12:00:22.088Z</time></trkpt><trkpt lat="37.0386767" lon="-1.2031893"><ele>0.0</ele><time>2026-04-29T12:00:23.087Z</time></trkpt><trkpt lat="37.0387251" lon="-1.2030975"><ele>0.0</ele><time>2026-04-29T12:00:24.088Z</time></trkpt><trkpt lat="37.0387766" lon="-1.2030043"><ele>0.0</ele><time>2026-04-29T12:00:25.087Z</time></trkpt><trkpt lat="37.0388237" lon="-1.2029136"><ele>0.0</ele><time>2026-04-29T12:00:26.088Z</time></trkpt><trkpt lat="37.0388718" lon="-1.2028206"><ele>0.0</ele><time>2026-04-29T12:00:27.088Z</time></trkpt><trkpt lat="37.0389261" lon="-1.2027247"><ele>0.0</ele><time>2026-04-29T12:00:28.088Z</time></trkpt><trkpt lat="37.0389709" lon="-1.2026308"><ele>0.0</ele><time>2026-04-29T12:00:29.088Z</time></trkpt><trkpt lat="37.0390212" lon="-1.2025385"><ele>0.0</ele><time>2026-04-29T12:00:30.087Z</time></trkpt><trkpt lat="37.0390717" lon="-1.2024502"><ele>0.0</ele><time>2026-04-29T12:00:31.087Z</time></trkpt><trkpt lat="37.0391691" lon="-1.202271"><ele>0.0</ele><time>2026-04-29T12:00:33.087Z</time></trkpt><trkpt lat="37.0392151" lon="-1.2021801"><ele>0.0</ele><time>2026-04-29T12:00:34.087Z</time></trkpt><trkpt lat="37.0392557" lon="-1.2020883"><ele>0.0</ele><time>2026-04-29T12:00:35.088Z</time></trkpt><trkpt lat="37.0393035" lon="-1.2020015"><ele>0.0</ele><time>2026-04-29T12:00:36.088Z</time></trkpt><trkpt lat="37.039355" lon="-1.2019133"><ele>0.0</ele><time>2026-04-29T12:00:37.088Z</time></trkpt><trkpt lat="37.0394034" lon="-1.2018151"><ele>0.0</ele><time>2026-04-29T12:00:38.087Z</time></trkpt><trkpt lat="37.0394472" lon="-1.2017278"><ele>0.0</ele><time>2026-04-29T12:00:39.088Z</time></trkpt><trkpt lat="37.0394978" lon="-1.2016356"><ele>0.0</ele><time>2026-04-29T12:00:40.087Z</time></trkpt><trkpt lat="37.0395478" lon="-1.2015407"><ele>0.0</ele><time>2026-04-29T12:00:41.088Z</time></trkpt><trkpt lat="37.0395999" lon="-1.2014517"><ele>0.0</ele><time>2026-04-29T12:00:42.087Z</time></trkpt><trkpt lat="37.0396532" lon="-1.2013694"><ele>0.0</ele><time>2026-04-29T12:00:43.087Z</time></trkpt><trkpt lat="37.039703" lon="-1.2012759"><ele>0.0</ele><time>2026-04-29T12:00:44.088Z</time></trkpt><trkpt lat="37.0397561" lon="-1.2011867"><ele>0.0</ele><time>2026-04-29T12:00:45.088Z</time></trkpt><trkpt lat="37.0398069" lon="-1.2010995"><ele>0.0</ele><time>2026-04-29T12:00:46.088Z</time></trkpt><trkpt lat="37.0398525" lon="-1.20102"><ele>0.0</ele><time>2026-04-29T12:00:47.087Z</time></trkpt><trkpt lat="37.0399014" lon="-1.2009331"><ele>0.0</ele><time>2026-04-29T12:00:48.087Z</time></trkpt><trkpt lat="37.0399545" lon="-1.2008424"><ele>0.0</ele><time>2026-04-29T12:00:49.087Z</time></trkpt><trkpt lat="37.0400082" lon="-1.2007554"><ele>0.0</ele><time>2026-04-29T12:00:50.088Z</time></trkpt><trkpt lat="37.0400599" lon="-1.2006654"><ele>0.0</ele><time>2026-04-29T12:00:51.087Z</time></trkpt><trkpt lat="37.0401113" lon="-1.2005726"><ele>0.0</ele><time>2026-04-29T12:00:52.087Z</time></trkpt><trkpt lat="37.0402208" lon="-1.2003912"><ele>0.0</ele><time>2026-04-29T12:00:54.087Z</time></trkpt><trkpt lat="37.0402846" lon="-1.2003062"><ele>0.0</ele><time>2026-04-29T12:00:55.087Z</time></trkpt><trkpt lat="37.0403326" lon="-1.2002268"><ele>0.0</ele><time>2026-04-29T12:00:56.087Z</time></trkpt><trkpt lat="37.0403791" lon="-1.2001427"><ele>0.0</ele><time>2026-04-29T12:00:57.088Z</time></trkpt><trkpt lat="37.0404357" lon="-1.2000479"><ele>0.0</ele><time>2026-04-29T12:00:58.087Z</time></trkpt><trkpt lat="37.0404882" lon="-1.1999598"><ele>0.0</ele><time>2026-04-29T12:00:59.087Z</time></trkpt><trkpt lat="37.0405401" lon="-1.1998761"><ele>0.0</ele><time>2026-04-29T12:01:00.087Z</time></trkpt><trkpt lat="37.0405957" lon="-1.1997853"><ele>0.0</ele><time>2026-04-29T12:01:01.087Z</time></trkpt><trkpt lat="37.0406485" lon="-1.1996983"><ele>0.0</ele><time>2026-04-29T12:01:02.087Z</time></trkpt><trkpt lat="37.0406986" lon="-1.1996113"><ele>0.0</ele><time>2026-04-29T12:01:03.088Z</time></trkpt><trkpt lat="37.0407501" lon="-1.1995264"><ele>0.0</ele><time>2026-04-29T12:01:04.088Z</time></trkpt><trkpt lat="37.0408017" lon="-1.199441"><ele>0.0</ele><time>2026-04-29T12:01:05.087Z</time></trkpt><trkpt lat="37.0408486" lon="-1.1993502"><ele>0.0</ele><time>2026-04-29T12:01:06.088Z</time></trkpt><trkpt lat="37.040902" lon="-1.1992587"><ele>0.0</ele><time>2026-04-29T12:01:07.088Z</time></trkpt><trkpt lat="37.0409451" lon="-1.1991701"><ele>0.0</ele><time>2026-04-29T12:01:08.087Z</time></trkpt><trkpt lat="37.0409939" lon="-1.1990777"><ele>0.0</ele><time>2026-04-29T12:01:09.088Z</time></trkpt><trkpt lat="37.0410406" lon="-1.1989916"><ele>0.0</ele><time>2026-04-29T12:01:10.087Z</time></trkpt><trkpt lat="37.0410928" lon="-1.1989019"><ele>0.0</ele><time>2026-04-29T12:01:11.088Z</time></trkpt><trkpt lat="37.041145" lon="-1.1988135"><ele>0.0</ele><time>2026-04-29T12:01:12.088Z</time></trkpt><trkpt lat="37.0411968" lon="-1.1987309"><ele>0.0</ele><time>2026-04-29T12:01:13.088Z</time></trkpt><trkpt lat="37.041296" lon="-1.1985531"><ele>0.0</ele><time>2026-04-29T12:01:15.087Z</time></trkpt><trkpt lat="37.0413479" lon="-1.1984663"><ele>0.0</ele><time>2026-04-29T12:01:16.087Z</time></trkpt><trkpt lat="37.0414028" lon="-1.1983756"><ele>0.0</ele><time>2026-04-29T12:01:17.087Z</time></trkpt><trkpt lat="37.0414506" lon="-1.1982854"><ele>0.0</ele><time>2026-04-29T12:01:18.088Z</time></trkpt><trkpt lat="37.0414987" lon="-1.1981941"><ele>0.0</ele><time>2026-04-29T12:01:19.087Z</time></trkpt><trkpt lat="37.0415423" lon="-1.1981048"><ele>0.0</ele><time>2026-04-29T12:01:20.087Z</time></trkpt><trkpt lat="37.0415872" lon="-1.1980167"><ele>0.0</ele><time>2026-04-29T12:01:21.088Z</time></trkpt><trkpt lat="37.041641" lon="-1.1979254"><ele>0.0</ele><time>2026-04-29T12:01:22.087Z</time></trkpt><trkpt lat="37.0416905" lon="-1.1978364"><ele>0.0</ele><time>2026-04-29T12:01:23.087Z</time></trkpt><trkpt lat="37.0417426" lon="-1.1977439"><ele>0.0</ele><time>2026-04-29T12:01:24.087Z</time></trkpt><trkpt lat="37.0417987" lon="-1.1976533"><ele>0.0</ele><time>2026-04-29T12:01:25.087Z</time></trkpt><trkpt lat="37.0418529" lon="-1.1975634"><ele>0.0</ele><time>2026-04-29T12:01:26.088Z</time></trkpt><trkpt lat="37.0418991" lon="-1.197486"><ele>0.0</ele><time>2026-04-29T12:01:27.088Z</time></trkpt><trkpt lat="37.0419415" lon="-1.197404"><ele>0.0</ele><time>2026-04-29T12:01:28.087Z</time></trkpt><trkpt lat="37.0419899" lon="-1.1973109"><ele>0.0</ele><time>2026-04-29T12:01:29.088Z</time></trkpt><trkpt lat="37.0420383" lon="-1.1972201"><ele>0.0</ele><time>2026-04-29T12:01:30.087Z</time></trkpt><trkpt lat="37.0420843" lon="-1.1971329"><ele>0.0</ele><time>2026-04-29T12:01:31.088Z</time></trkpt><trkpt lat="37.0421375" lon="-1.1970418"><ele>0.0</ele><time>2026-04-29T12:01:32.088Z</time></trkpt><trkpt lat="37.0421868" lon="-1.1969504"><ele>0.0</ele><time>2026-04-29T12:01:33.087Z</time></trkpt><trkpt lat="37.0422347" lon="-1.1968554"><ele>0.0</ele><time>2026-04-29T12:01:34.088Z</time></trkpt><trkpt lat="37.0423295" lon="-1.1966743"><ele>0.0</ele><time>2026-04-29T12:01:36.088Z</time></trkpt><trkpt lat="37.042378" lon="-1.1965806"><ele>0.0</ele><time>2026-04-29T12:01:37.088Z</time></trkpt><trkpt lat="37.0424211" lon="-1.1964988"><ele>0.0</ele><time>2026-04-29T12:01:38.088Z</time></trkpt><trkpt lat="37.042471" lon="-1.1964039"><ele>0.0</ele><time>2026-04-29T12:01:39.087Z</time></trkpt><trkpt lat="37.0425216" lon="-1.196312"><ele>0.0</ele><time>2026-04-29T12:01:40.088Z</time></trkpt><trkpt lat="37.0425717" lon="-1.1962203"><ele>0.0</ele><time>2026-04-29T12:01:41.087Z</time></trkpt><trkpt lat="37.0426204" lon="-1.1961299"><ele>0.0</ele><time>2026-04-29T12:01:42.087Z</time></trkpt><trkpt lat="37.0426684" lon="-1.1960414"><ele>0.0</ele><time>2026-04-29T12:01:43.088Z</time></trkpt><trkpt lat="37.0427197" lon="-1.1959532"><ele>0.0</ele><time>2026-04-29T12:01:44.087Z</time></trkpt><trkpt lat="37.0427725" lon="-1.1958648"><ele>0.0</ele><time>2026-04-29T12:01:45.088Z</time></trkpt><trkpt lat="37.0428245" lon="-1.1957737"><ele>0.0</ele><time>2026-04-29T12:01:46.087Z</time></trkpt><trkpt lat="37.0428761" lon="-1.195682"><ele>0.0</ele><time>2026-04-29T12:01:47.088Z</time></trkpt><trkpt lat="37.0429308" lon="-1.1955918"><ele>0.0</ele><time>2026-04-29T12:01:48.087Z</time></trkpt><trkpt lat="37.0429731" lon="-1.1955149"><ele>0.0</ele><time>2026-04-29T12:01:49.087Z</time></trkpt><trkpt lat="37.0430231" lon="-1.1954239"><ele>0.0</ele><time>2026-04-29T12:01:50.088Z</time></trkpt><trkpt lat="37.0430775" lon="-1.1953292"><ele>0.0</ele><time>2026-04-29T12:01:51.087Z</time></trkpt><trkpt lat="37.0431297" lon="-1.1952399"><ele>0.0</ele><time>2026-04-29T12:01:52.088Z</time></trkpt><trkpt lat="37.0431774" lon="-1.1951516"><ele>0.0</ele><time>2026-04-29T12:01:53.087Z</time></trkpt><trkpt lat="37.0432237" lon="-1.1950673"><ele>0.0</ele><time>2026-04-29T12:01:54.087Z</time></trkpt><trkpt lat="37.0432677" lon="-1.1949784"><ele>0.0</ele><time>2026-04-29T12:01:55.088Z</time></trkpt><trkpt lat="37.0433735" lon="-1.1948068"><ele>0.0</ele><time>2026-04-29T12:01:57.088Z</time></trkpt><trkpt lat="37.0434209" lon="-1.1947199"><ele>0.0</ele><time>2026-04-29T12:01:58.088Z</time></trkpt><trkpt lat="37.0434648" lon="-1.1946304"><ele>0.0</ele><time>2026-04-29T12:01:59.087Z</time></trkpt><trkpt lat="37.0435091" lon="-1.1945416"><ele>0.0</ele><time>2026-04-29T12:02:00.087Z</time></trkpt><trkpt lat="37.0435541" lon="-1.1944505"><ele>0.0</ele><time>2026-04-29T12:02:01.087Z</time></trkpt><trkpt lat="37.0436006" lon="-1.1943631"><ele>0.0</ele><time>2026-04-29T12:02:02.087Z</time></trkpt><trkpt lat="37.0436503" lon="-1.194274"><ele>0.0</ele><time>2026-04-29T12:02:03.088Z</time></trkpt><trkpt lat="37.0437002" lon="-1.1941823"><ele>0.0</ele><time>2026-04-29T12:02:04.087Z</time></trkpt><trkpt lat="37.0437513" lon="-1.1940833"><ele>0.0</ele><time>2026-04-29T12:02:05.087Z</time></trkpt><trkpt lat="37.0438016" lon="-1.1939906"><ele>0.0</ele><time>2026-04-29T12:02:06.088Z</time></trkpt><trkpt lat="37.0438506" lon="-1.1938916"><ele>0.0</ele><time>2026-04-29T12:02:07.088Z</time></trkpt><trkpt lat="37.0438916" lon="-1.1937961"><ele>0.0</ele><time>2026-04-29T12:02:08.087Z</time></trkpt><trkpt lat="37.0439429" lon="-1.1936999"><ele>0.0</ele><time>2026-04-29T12:02:09.087Z</time></trkpt><trkpt lat="37.0439964" lon="-1.1936129"><ele>0.0</ele><time>2026-04-29T12:02:10.088Z</time></trkpt><trkpt lat="37.0440481" lon="-1.1935265"><ele>0.0</ele><time>2026-04-29T12:02:11.088Z</time></trkpt><trkpt lat="37.0441029" lon="-1.1934442"><ele>0.0</ele><time>2026-04-29T12:02:12.087Z</time></trkpt><trkpt lat="37.0441625" lon="-1.1933593"><ele>0.0</ele><time>2026-04-29T12:02:13.088Z</time></trkpt><trkpt lat="37.0442085" lon="-1.1932747"><ele>0.0</ele><time>2026-04-29T12:02:14.087Z</time></trkpt><trkpt lat="37.0442542" lon="-1.1931883"><ele>0.0</ele><time>2026-04-29T12:02:15.087Z</time></trkpt><trkpt lat="37.0443104" lon="-1.1931001"><ele>0.0</ele><time>2026-04-29T12:02:16.087Z</time></trkpt><trkpt lat="37.0444131" lon="-1.192928"><ele>0.0</ele><time>2026-04-29T12:02:18.087Z</time></trkpt><trkpt lat="37.0444592" lon="-1.1928339"><ele>0.0</ele><time>2026-04-29T12:02:19.088Z</time></trkpt><trkpt lat="37.0445095" lon="-1.192739"><ele>0.0</ele><time>2026-04-29T12:02:20.087Z</time></trkpt><trkpt lat="37.0445557" lon="-1.1926556"><ele>0.0</ele><time>2026-04-29T12:02:21.088Z</time></trkpt><trkpt lat="37.0446049" lon="-1.1925679"><ele>0.0</ele><time>2026-04-29T12:02:22.087Z</time></trkpt><trkpt lat="37.0446521" lon="-1.1924771"><ele>0.0</ele><time>2026-04-29T12:02:23.087Z</time></trkpt><trkpt lat="37.0447089" lon="-1.1923857"><ele>0.0</ele><time>2026-04-29T12:02:24.088Z</time></trkpt><trkpt lat="37.0447744" lon="-1.1923028"><ele>0.0</ele><time>2026-04-29T12:02:25.088Z</time></trkpt><trkpt lat="37.0448308" lon="-1.1922135"><ele>0.0</ele><time>2026-04-29T12:02:26.088Z</time></trkpt><trkpt lat="37.0448889" lon="-1.1921267"><ele>0.0</ele><time>2026-04-29T12:02:27.087Z</time></trkpt><trkpt lat="37.0449304" lon="-1.192044"><ele>0.0</ele><time>2026-04-29T12:02:28.088Z</time></trkpt><trkpt lat="37.0449739" lon="-1.1919576"><ele>0.0</ele><time>2026-04-29T12:02:29.088Z</time></trkpt><trkpt lat="37.0450159" lon="-1.1918653"><ele>0.0</ele><time>2026-04-29T12:02:30.088Z</time></trkpt><trkpt lat="37.0450632" lon="-1.1917735"><ele>0.0</ele><time>2026-04-29T12:02:31.088Z</time></trkpt><trkpt lat="37.0451087" lon="-1.1916793"><ele>0.0</ele><time>2026-04-29T12:02:32.088Z</time></trkpt><trkpt lat="37.0451512" lon="-1.191593"><ele>0.0</ele><time>2026-04-29T12:02:33.088Z</time></trkpt><trkpt lat="37.0451956" lon="-1.1914936"><ele>0.0</ele><time>2026-04-29T12:02:34.087Z</time></trkpt><trkpt lat="37.0452433" lon="-1.1913993"><ele>0.0</ele><time>2026-04-29T12:02:35.088Z</time></trkpt><trkpt lat="37.0452887" lon="-1.1913088"><ele>0.0</ele><time>2026-04-29T12:02:36.088Z</time></trkpt><trkpt lat="37.0453494" lon="-1.1912171"><ele>0.0</ele><time>2026-04-29T12:02:37.087Z</time></trkpt><trkpt lat="37.045469" lon="-1.1910331"><ele>0.0</ele><time>2026-04-29T12:02:39.087Z</time></trkpt><trkpt lat="37.0455227" lon="-1.1909479"><ele>0.0</ele><time>2026-04-29T12:02:40.088Z</time></trkpt><trkpt lat="37.0455666" lon="-1.1908685"><ele>0.0</ele><time>2026-04-29T12:02:41.087Z</time></trkpt><trkpt lat="37.0456199" lon="-1.190782"><ele>0.0</ele><time>2026-04-29T12:02:42.087Z</time></trkpt><trkpt lat="37.0456673" lon="-1.1906838"><ele>0.0</ele><time>2026-04-29T12:02:43.087Z</time></trkpt><trkpt lat="37.0457127" lon="-1.1905918"><ele>0.0</ele><time>2026-04-29T12:02:44.087Z</time></trkpt><trkpt lat="37.0457575" lon="-1.1905091"><ele>0.0</ele><time>2026-04-29T12:02:45.088Z</time></trkpt><trkpt lat="37.045807" lon="-1.1904187"><ele>0.0</ele><time>2026-04-29T12:02:46.088Z</time></trkpt><trkpt lat="37.0458536" lon="-1.1903342"><ele>0.0</ele><time>2026-04-29T12:02:47.088Z</time></trkpt><trkpt lat="37.0459064" lon="-1.1902394"><ele>0.0</ele><time>2026-04-29T12:02:48.087Z</time></trkpt><trkpt lat="37.0459636" lon="-1.1901459"><ele>0.0</ele><time>2026-04-29T12:02:49.087Z</time></trkpt><trkpt lat="37.0460171" lon="-1.1900536"><ele>0.0</ele><time>2026-04-29T12:02:50.088Z</time></trkpt><trkpt lat="37.0460808" lon="-1.1899663"><ele>0.0</ele><time>2026-04-29T12:02:51.087Z</time></trkpt><trkpt lat="37.0461356" lon="-1.1898821"><ele>0.0</ele><time>2026-04-29T12:02:52.088Z</time></trkpt><trkpt lat="37.0461919" lon="-1.1897903"><ele>0.0</ele><time>2026-04-29T12:02:53.088Z</time></trkpt><trkpt lat="37.0462474" lon="-1.1897032"><ele>0.0</ele><time>2026-04-29T12:02:54.088Z</time></trkpt><trkpt lat="37.0463069" lon="-1.1896213"><ele>0.0</ele><time>2026-04-29T12:02:55.088Z</time></trkpt><trkpt lat="37.0463511" lon="-1.1895421"><ele>0.0</ele><time>2026-04-29T12:02:56.088Z</time></trkpt><trkpt lat="37.0463929" lon="-1.1894578"><ele>0.0</ele><time>2026-04-29T12:02:57.088Z</time></trkpt><trkpt lat="37.0464344" lon="-1.1893784"><ele>0.0</ele><time>2026-04-29T12:02:58.088Z</time></trkpt><trkpt lat="37.0465388" lon="-1.1891958"><ele>0.0</ele><time>2026-04-29T12:03:00.088Z</time></trkpt><trkpt lat="37.046589" lon="-1.1891108"><ele>0.0</ele><time>2026-04-29T12:03:01.086Z</time></trkpt><trkpt lat="37.0466418" lon="-1.1890218"><ele>0.0</ele><time>2026-04-29T12:03:02.087Z</time></trkpt><trkpt lat="37.0466921" lon="-1.1889335"><ele>0.0</ele><time>2026-04-29T12:03:03.087Z</time></trkpt><trkpt lat="37.0467432" lon="-1.1888438"><ele>0.0</ele><time>2026-04-29T12:03:04.087Z</time></trkpt><trkpt lat="37.0467795" lon="-1.188754"><ele>0.0</ele><time>2026-04-29T12:03:05.087Z</time></trkpt><trkpt lat="37.0468212" lon="-1.1886692"><ele>0.0</ele><time>2026-04-29T12:03:06.086Z</time></trkpt><trkpt lat="37.0468715" lon="-1.1885759"><ele>0.0</ele><time>2026-04-29T12:03:07.086Z</time></trkpt><trkpt lat="37.0469188" lon="-1.1884824"><ele>0.0</ele><time>2026-04-29T12:03:08.086Z</time></trkpt><trkpt lat="37.0469672" lon="-1.1883949"><ele>0.0</ele><time>2026-04-29T12:03:09.086Z</time></trkpt><trkpt lat="37.0470109" lon="-1.1883092"><ele>0.0</ele><time>2026-04-29T12:03:10.086Z</time></trkpt><trkpt lat="37.0470558" lon="-1.1882216"><ele>0.0</ele><time>2026-04-29T12:03:11.087Z</time></trkpt><trkpt lat="37.0470964" lon="-1.1881361"><ele>0.0</ele><time>2026-04-29T12:03:12.086Z</time></trkpt><trkpt lat="37.047148" lon="-1.1880438"><ele>0.0</ele><time>2026-04-29T12:03:13.087Z</time></trkpt><trkpt lat="37.0471984" lon="-1.1879546"><ele>0.0</ele><time>2026-04-29T12:03:14.087Z</time></trkpt><trkpt lat="37.0472512" lon="-1.1878678"><ele>0.0</ele><time>2026-04-29T12:03:15.087Z</time></trkpt><trkpt lat="37.0473006" lon="-1.1877813"><ele>0.0</ele><time>2026-04-29T12:03:16.086Z</time></trkpt><trkpt lat="37.0473513" lon="-1.1876845"><ele>0.0</ele><time>2026-04-29T12:03:17.086Z</time></trkpt><trkpt lat="37.0474086" lon="-1.1876008"><ele>0.0</ele><time>2026-04-29T12:03:18.086Z</time></trkpt><trkpt lat="37.0474794" lon="-1.1875061"><ele>0.0</ele><time>2026-04-29T12:03:19.086Z</time></trkpt><trkpt lat="37.0475812" lon="-1.1873326"><ele>0.0</ele><time>2026-04-29T12:03:21.087Z</time></trkpt><trkpt lat="37.0476354" lon="-1.1872389"><ele>0.0</ele><time>2026-04-29T12:03:22.087Z</time></trkpt><trkpt lat="37.0476921" lon="-1.1871526"><ele>0.0</ele><time>2026-04-29T12:03:23.087Z</time></trkpt><trkpt lat="37.0477405" lon="-1.1870692"><ele>0.0</ele><time>2026-04-29T12:03:24.086Z</time></trkpt><trkpt lat="37.0477818" lon="-1.1869844"><ele>0.0</ele><time>2026-04-29T12:03:25.087Z</time></trkpt><trkpt lat="37.0478342" lon="-1.1868951"><ele>0.0</ele><time>2026-04-29T12:03:26.087Z</time></trkpt><trkpt lat="37.0478865" lon="-1.1868052"><ele>0.0</ele><time>2026-04-29T12:03:27.086Z</time></trkpt><trkpt lat="37.0479368" lon="-1.1867197"><ele>0.0</ele><time>2026-04-29T12:03:28.086Z</time></trkpt><trkpt lat="37.047995" lon="-1.1866359"><ele>0.0</ele><time>2026-04-29T12:03:29.087Z</time></trkpt><trkpt lat="37.0480509" lon="-1.1865453"><ele>0.0</ele><time>2026-04-29T12:03:30.087Z</time></trkpt><trkpt lat="37.0481084" lon="-1.186455"><ele>0.0</ele><time>2026-04-29T12:03:31.086Z</time></trkpt><trkpt lat="37.0481626" lon="-1.1863678"><ele>0.0</ele><time>2026-04-29T12:03:32.087Z</time></trkpt><trkpt lat="37.0482175" lon="-1.186274"><ele>0.0</ele><time>2026-04-29T12:03:33.086Z</time></trkpt><trkpt lat="37.04827" lon="-1.1861875"><ele>0.0</ele><time>2026-04-29T12:03:34.087Z</time></trkpt><trkpt lat="37.0483214" lon="-1.1860998"><ele>0.0</ele><time>2026-04-29T12:03:35.086Z</time></trkpt><trkpt lat="37.0483794" lon="-1.1860155"><ele>0.0</ele><time>2026-04-29T12:03:36.086Z</time></trkpt><trkpt lat="37.0484302" lon="-1.1859321"><ele>0.0</ele><time>2026-04-29T12:03:37.086Z</time></trkpt><trkpt lat="37.0484763" lon="-1.1858434"><ele>0.0</ele><time>2026-04-29T12:03:38.086Z</time></trkpt><trkpt lat="37.0485184" lon="-1.1857508"><ele>0.0</ele><time>2026-04-29T12:03:39.087Z</time></trkpt><trkpt lat="37.0486121" lon="-1.185567"><ele>0.0</ele><time>2026-04-29T12:03:41.087Z</time></trkpt><trkpt lat="37.0486574" lon="-1.1854826"><ele>0.0</ele><time>2026-04-29T12:03:42.087Z</time></trkpt><trkpt lat="37.0487093" lon="-1.185392"><ele>0.0</ele><time>2026-04-29T12:03:43.086Z</time></trkpt><trkpt lat="37.0487548" lon="-1.1853009"><ele>0.0</ele><time>2026-04-29T12:03:44.086Z</time></trkpt><trkpt lat="37.0488037" lon="-1.1852077"><ele>0.0</ele><time>2026-04-29T12:03:45.086Z</time></trkpt><trkpt lat="37.0488477" lon="-1.18512"><ele>0.0</ele><time>2026-04-29T12:03:46.086Z</time></trkpt><trkpt lat="37.0488938" lon="-1.1850314"><ele>0.0</ele><time>2026-04-29T12:03:47.086Z</time></trkpt><trkpt lat="37.0489345" lon="-1.1849448"><ele>0.0</ele><time>2026-04-29T12:03:48.086Z</time></trkpt><trkpt lat="37.0489821" lon="-1.1848551"><ele>0.0</ele><time>2026-04-29T12:03:49.086Z</time></trkpt><trkpt lat="37.0490333" lon="-1.1847695"><ele>0.0</ele><time>2026-04-29T12:03:50.086Z</time></trkpt><trkpt lat="37.0490802" lon="-1.1846786"><ele>0.0</ele><time>2026-04-29T12:03:51.086Z</time></trkpt><trkpt lat="37.0491301" lon="-1.1845832"><ele>0.0</ele><time>2026-04-29T12:03:52.086Z</time></trkpt><trkpt lat="37.0491775" lon="-1.1844892"><ele>0.0</ele><time>2026-04-29T12:03:53.087Z</time></trkpt><trkpt lat="37.0492322" lon="-1.184397"><ele>0.0</ele><time>2026-04-29T12:03:54.087Z</time></trkpt><trkpt lat="37.0492832" lon="-1.1843072"><ele>0.0</ele><time>2026-04-29T12:03:55.087Z</time></trkpt><trkpt lat="37.0493345" lon="-1.1842181"><ele>0.0</ele><time>2026-04-29T12:03:56.087Z</time></trkpt><trkpt lat="37.0493894" lon="-1.1841326"><ele>0.0</ele><time>2026-04-29T12:03:57.087Z</time></trkpt><trkpt lat="37.0494441" lon="-1.1840462"><ele>0.0</ele><time>2026-04-29T12:03:58.087Z</time></trkpt><trkpt lat="37.0494982" lon="-1.18396"><ele>0.0</ele><time>2026-04-29T12:03:59.087Z</time></trkpt><trkpt lat="37.0495501" lon="-1.1838719"><ele>0.0</ele><time>2026-04-29T12:04:00.086Z</time></trkpt><trkpt lat="37.0496483" lon="-1.1837059"><ele>0.0</ele><time>2026-04-29T12:04:02.087Z</time></trkpt><trkpt lat="37.049704" lon="-1.1836184"><ele>0.0</ele><time>2026-04-29T12:04:03.086Z</time></trkpt><trkpt lat="37.0497527" lon="-1.1835288"><ele>0.0</ele><time>2026-04-29T12:04:04.087Z</time></trkpt><trkpt lat="37.0498063" lon="-1.1834457"><ele>0.0</ele><time>2026-04-29T12:04:05.086Z</time></trkpt><trkpt lat="37.0498468" lon="-1.1833556"><ele>0.0</ele><time>2026-04-29T12:04:06.087Z</time></trkpt><trkpt lat="37.0498935" lon="-1.1832625"><ele>0.0</ele><time>2026-04-29T12:04:07.086Z</time></trkpt><trkpt lat="37.0499433" lon="-1.1831719"><ele>0.0</ele><time>2026-04-29T12:04:08.086Z</time></trkpt><trkpt lat="37.0499961" lon="-1.1830762"><ele>0.0</ele><time>2026-04-29T12:04:09.087Z</time></trkpt><trkpt lat="37.0500477" lon="-1.182981"><ele>0.0</ele><time>2026-04-29T12:04:10.086Z</time></trkpt><trkpt lat="37.050101" lon="-1.1828889"><ele>0.0</ele><time>2026-04-29T12:04:11.086Z</time></trkpt><trkpt lat="37.0501449" lon="-1.1828016"><ele>0.0</ele><time>2026-04-29T12:04:12.087Z</time></trkpt><trkpt lat="37.0501923" lon="-1.1827176"><ele>0.0</ele><time>2026-04-29T12:04:13.087Z</time></trkpt><trkpt lat="37.0502431" lon="-1.1826298"><ele>0.0</ele><time>2026-04-29T12:04:14.087Z</time></trkpt><trkpt lat="37.0502917" lon="-1.18254"><ele>0.0</ele><time>2026-04-29T12:04:15.087Z</time></trkpt><trkpt lat="37.0503488" lon="-1.182443"><ele>0.0</ele><time>2026-04-29T12:04:16.087Z</time></trkpt><trkpt lat="37.0504043" lon="-1.1823637"><ele>0.0</ele><time>2026-04-29T12:04:17.086Z</time></trkpt><trkpt lat="37.050462" lon="-1.1822767"><ele>0.0</ele><time>2026-04-29T12:04:18.087Z</time></trkpt><trkpt lat="37.0505109" lon="-1.1821885"><ele>0.0</ele><time>2026-04-29T12:04:19.086Z</time></trkpt><trkpt lat="37.050563" lon="-1.1820998"><ele>0.0</ele><time>2026-04-29T12:04:20.086Z</time></trkpt><trkpt lat="37.0506054" lon="-1.18201"><ele>0.0</ele><time>2026-04-29T12:04:21.086Z</time></trkpt><trkpt lat="37.0507031" lon="-1.1818398"><ele>0.0</ele><time>2026-04-29T12:04:23.086Z</time></trkpt><trkpt lat="37.0507658" lon="-1.1817517"><ele>0.0</ele><time>2026-04-29T12:04:24.087Z</time></trkpt><trkpt lat="37.0508195" lon="-1.1816662"><ele>0.0</ele><time>2026-04-29T12:04:25.087Z</time></trkpt><trkpt lat="37.0508716" lon="-1.1815838"><ele>0.0</ele><time>2026-04-29T12:04:26.086Z</time></trkpt><trkpt lat="37.0509135" lon="-1.181495"><ele>0.0</ele><time>2026-04-29T12:04:27.087Z</time></trkpt><trkpt lat="37.0509605" lon="-1.1814052"><ele>0.0</ele><time>2026-04-29T12:04:28.086Z</time></trkpt><trkpt lat="37.0510058" lon="-1.1813166"><ele>0.0</ele><time>2026-04-29T12:04:29.086Z</time></trkpt><trkpt lat="37.0510479" lon="-1.1812167"><ele>0.0</ele><time>2026-04-29T12:04:30.086Z</time></trkpt><trkpt lat="37.0510969" lon="-1.1811254"><ele>0.0</ele><time>2026-04-29T12:04:31.086Z</time></trkpt><trkpt lat="37.0511398" lon="-1.1810354"><ele>0.0</ele><time>2026-04-29T12:04:32.086Z</time></trkpt><trkpt lat="37.0511814" lon="-1.1809425"><ele>0.0</ele><time>2026-04-29T12:04:33.086Z</time></trkpt><trkpt lat="37.0512228" lon="-1.1808404"><ele>0.0</ele><time>2026-04-29T12:04:34.086Z</time></trkpt><trkpt lat="37.0512757" lon="-1.1807532"><ele>0.0</ele><time>2026-04-29T12:04:35.086Z</time></trkpt><trkpt lat="37.051321" lon="-1.180665"><ele>0.0</ele><time>2026-04-29T12:04:36.086Z</time></trkpt><trkpt lat="37.0513672" lon="-1.1805707"><ele>0.0</ele><time>2026-04-29T12:04:37.087Z</time></trkpt><trkpt lat="37.0514167" lon="-1.1804831"><ele>0.0</ele><time>2026-04-29T12:04:38.086Z</time></trkpt><trkpt lat="37.0514682" lon="-1.1803951"><ele>0.0</ele><time>2026-04-29T12:04:39.086Z</time></trkpt><trkpt lat="37.0515255" lon="-1.1803054"><ele>0.0</ele><time>2026-04-29T12:04:40.087Z</time></trkpt><trkpt lat="37.0515834" lon="-1.1802164"><ele>0.0</ele><time>2026-04-29T12:04:41.087Z</time></trkpt><trkpt lat="37.0516375" lon="-1.1801365"><ele>0.0</ele><time>2026-04-29T12:04:42.086Z</time></trkpt><trkpt lat="37.0517323" lon="-1.1799638"><ele>0.0</ele><time>2026-04-29T12:04:44.087Z</time></trkpt><trkpt lat="37.0517848" lon="-1.1798765"><ele>0.0</ele><time>2026-04-29T12:04:45.087Z</time></trkpt><trkpt lat="37.0518409" lon="-1.1797882"><ele>0.0</ele><time>2026-04-29T12:04:46.087Z</time></trkpt><trkpt lat="37.0518928" lon="-1.1796985"><ele>0.0</ele><time>2026-04-29T12:04:47.087Z</time></trkpt><trkpt lat="37.0519417" lon="-1.1796097"><ele>0.0</ele><time>2026-04-29T12:04:48.086Z</time></trkpt><trkpt lat="37.0519958" lon="-1.1795174"><ele>0.0</ele><time>2026-04-29T12:04:49.086Z</time></trkpt><trkpt lat="37.0520536" lon="-1.179431"><ele>0.0</ele><time>2026-04-29T12:04:50.086Z</time></trkpt><trkpt lat="37.0521092" lon="-1.1793431"><ele>0.0</ele><time>2026-04-29T12:04:51.087Z</time></trkpt><trkpt lat="37.0521629" lon="-1.1792564"><ele>0.0</ele><time>2026-04-29T12:04:52.086Z</time></trkpt><trkpt lat="37.0522135" lon="-1.1791766"><ele>0.0</ele><time>2026-04-29T12:04:53.086Z</time></trkpt><trkpt lat="37.0522579" lon="-1.1790908"><ele>0.0</ele><time>2026-04-29T12:04:54.087Z</time></trkpt><trkpt lat="37.0523101" lon="-1.1790018"><ele>0.0</ele><time>2026-04-29T12:04:55.087Z</time></trkpt><trkpt lat="37.0523628" lon="-1.1789161"><ele>0.0</ele><time>2026-04-29T12:04:56.087Z</time></trkpt><trkpt lat="37.0524135" lon="-1.1788328"><ele>0.0</ele><time>2026-04-29T12:04:57.086Z</time></trkpt><trkpt lat="37.052459" lon="-1.1787393"><ele>0.0</ele><time>2026-04-29T12:04:58.086Z</time></trkpt><trkpt lat="37.0525072" lon="-1.1786488"><ele>0.0</ele><time>2026-04-29T12:04:59.087Z</time></trkpt><trkpt lat="37.052554" lon="-1.1785559"><ele>0.0</ele><time>2026-04-29T12:05:00.087Z</time></trkpt><trkpt lat="37.0525932" lon="-1.1784608"><ele>0.0</ele><time>2026-04-29T12:05:01.087Z</time></trkpt><trkpt lat="37.0526386" lon="-1.178363"><ele>0.0</ele><time>2026-04-29T12:05:02.086Z</time></trkpt><trkpt lat="37.0526881" lon="-1.1782676"><ele>0.0</ele><time>2026-04-29T12:05:03.086Z</time></trkpt><trkpt lat="37.0527696" lon="-1.1780926"><ele>0.0</ele><time>2026-04-29T12:05:05.086Z</time></trkpt><trkpt lat="37.0528109" lon="-1.1780001"><ele>0.0</ele><time>2026-04-29T12:05:06.086Z</time></trkpt><trkpt lat="37.0528598" lon="-1.177913"><ele>0.0</ele><time>2026-04-29T12:05:07.086Z</time></trkpt><trkpt lat="37.0529068" lon="-1.1778319"><ele>0.0</ele><time>2026-04-29T12:05:08.087Z</time></trkpt><trkpt lat="37.0529563" lon="-1.177749"><ele>0.0</ele><time>2026-04-29T12:05:09.087Z</time></trkpt><trkpt lat="37.053012" lon="-1.1776528"><ele>0.0</ele><time>2026-04-29T12:05:10.086Z</time></trkpt><trkpt lat="37.0530675" lon="-1.1775668"><ele>0.0</ele><time>2026-04-29T12:05:11.087Z</time></trkpt><trkpt lat="37.0531226" lon="-1.1774775"><ele>0.0</ele><time>2026-04-29T12:05:12.086Z</time></trkpt><trkpt lat="37.0531762" lon="-1.1773881"><ele>0.0</ele><time>2026-04-29T12:05:13.087Z</time></trkpt><trkpt lat="37.0532209" lon="-1.1773"><ele>0.0</ele><time>2026-04-29T12:05:14.087Z</time></trkpt><trkpt lat="37.0532687" lon="-1.1772101"><ele>0.0</ele><time>2026-04-29T12:05:15.086Z</time></trkpt><trkpt lat="37.0533242" lon="-1.1771246"><ele>0.0</ele><time>2026-04-29T12:05:16.087Z</time></trkpt><trkpt lat="37.0533893" lon="-1.1770355"><ele>0.0</ele><time>2026-04-29T12:05:17.087Z</time></trkpt><trkpt lat="37.0534499" lon="-1.1769524"><ele>0.0</ele><time>2026-04-29T12:05:18.087Z</time></trkpt><trkpt lat="37.053503" lon="-1.1768676"><ele>0.0</ele><time>2026-04-29T12:05:19.087Z</time></trkpt><trkpt lat="37.0535494" lon="-1.1767786"><ele>0.0</ele><time>2026-04-29T12:05:20.086Z</time></trkpt><trkpt lat="37.0535959" lon="-1.1766858"><ele>0.0</ele><time>2026-04-29T12:05:21.086Z</time></trkpt><trkpt lat="37.0536438" lon="-1.1765955"><ele>0.0</ele><time>2026-04-29T12:05:22.087Z</time></trkpt><trkpt lat="37.0536988" lon="-1.1765065"><ele>0.0</ele><time>2026-04-29T12:05:23.086Z</time></trkpt><trkpt lat="37.05375" lon="-1.1764114"><ele>0.0</ele><time>2026-04-29T12:05:24.087Z</time></trkpt><trkpt lat="37.0538365" lon="-1.1762214"><ele>0.0</ele><time>2026-04-29T12:05:26.086Z</time></trkpt><trkpt lat="37.0538766" lon="-1.1761274"><ele>0.0</ele><time>2026-04-29T12:05:27.087Z</time></trkpt><trkpt lat="37.053918" lon="-1.1760372"><ele>0.0</ele><time>2026-04-29T12:05:28.087Z</time></trkpt><trkpt lat="37.0539666" lon="-1.1759427"><ele>0.0</ele><time>2026-04-29T12:05:29.086Z</time></trkpt><trkpt lat="37.0540165" lon="-1.1758577"><ele>0.0</ele><time>2026-04-29T12:05:30.086Z</time></trkpt><trkpt lat="37.0540653" lon="-1.1757711"><ele>0.0</ele><time>2026-04-29T12:05:31.086Z</time></trkpt><trkpt lat="37.0541175" lon="-1.175683"><ele>0.0</ele><time>2026-04-29T12:05:32.086Z</time></trkpt><trkpt lat="37.0541623" lon="-1.1755891"><ele>0.0</ele><time>2026-04-29T12:05:33.086Z</time></trkpt><trkpt lat="37.0542129" lon="-1.1755013"><ele>0.0</ele><time>2026-04-29T12:05:34.087Z</time></trkpt><trkpt lat="37.0542674" lon="-1.1754076"><ele>0.0</ele><time>2026-04-29T12:05:35.087Z</time></trkpt><trkpt lat="37.0543173" lon="-1.1753231"><ele>0.0</ele><time>2026-04-29T12:05:36.086Z</time></trkpt><trkpt lat="37.0543639" lon="-1.1752377"><ele>0.0</ele><time>2026-04-29T12:05:37.087Z</time></trkpt><trkpt lat="37.0544106" lon="-1.1751512"><ele>0.0</ele><time>2026-04-29T12:05:38.086Z</time></trkpt><trkpt lat="37.0544671" lon="-1.1750631"><ele>0.0</ele><time>2026-04-29T12:05:39.087Z</time></trkpt><trkpt lat="37.0545199" lon="-1.1749864"><ele>0.0</ele><time>2026-04-29T12:05:40.087Z</time></trkpt><trkpt lat="37.0545729" lon="-1.174897"><ele>0.0</ele><time>2026-04-29T12:05:41.087Z</time></trkpt><trkpt lat="37.0546219" lon="-1.1748083"><ele>0.0</ele><time>2026-04-29T12:05:42.087Z</time></trkpt><trkpt lat="37.0546745" lon="-1.1747213"><ele>0.0</ele><time>2026-04-29T12:05:43.087Z</time></trkpt><trkpt lat="37.0547249" lon="-1.1746346"><ele>0.0</ele><time>2026-04-29T12:05:44.087Z</time></trkpt><trkpt lat="37.0547734" lon="-1.1745425"><ele>0.0</ele><time>2026-04-29T12:05:45.086Z</time></trkpt><trkpt lat="37.0548725" lon="-1.1743554"><ele>0.0</ele><time>2026-04-29T12:05:47.087Z</time></trkpt><trkpt lat="37.0549247" lon="-1.174265"><ele>0.0</ele><time>2026-04-29T12:05:48.086Z</time></trkpt><trkpt lat="37.0549791" lon="-1.1741779"><ele>0.0</ele><time>2026-04-29T12:05:49.086Z</time></trkpt><trkpt lat="37.0550313" lon="-1.1740884"><ele>0.0</ele><time>2026-04-29T12:05:50.086Z</time></trkpt><trkpt lat="37.0550886" lon="-1.1739985"><ele>0.0</ele><time>2026-04-29T12:05:51.086Z</time></trkpt><trkpt lat="37.0551317" lon="-1.1739044"><ele>0.0</ele><time>2026-04-29T12:05:52.087Z</time></trkpt><trkpt lat="37.0551786" lon="-1.1738164"><ele>0.0</ele><time>2026-04-29T12:05:53.086Z</time></trkpt><trkpt lat="37.055221" lon="-1.1737324"><ele>0.0</ele><time>2026-04-29T12:05:54.087Z</time></trkpt><trkpt lat="37.055261" lon="-1.1736514"><ele>0.0</ele><time>2026-04-29T12:05:55.086Z</time></trkpt><trkpt lat="37.0553116" lon="-1.1735673"><ele>0.0</ele><time>2026-04-29T12:05:56.087Z</time></trkpt><trkpt lat="37.0553632" lon="-1.1734799"><ele>0.0</ele><time>2026-04-29T12:05:57.087Z</time></trkpt><trkpt lat="37.0554163" lon="-1.173396"><ele>0.0</ele><time>2026-04-29T12:05:58.086Z</time></trkpt><trkpt lat="37.0554754" lon="-1.1733056"><ele>0.0</ele><time>2026-04-29T12:05:59.086Z</time></trkpt><trkpt lat="37.0555339" lon="-1.173217"><ele>0.0</ele><time>2026-04-29T12:06:00.086Z</time></trkpt><trkpt lat="37.0555793" lon="-1.1731284"><ele>0.0</ele><time>2026-04-29T12:06:01.086Z</time></trkpt><trkpt lat="37.055623" lon="-1.1730471"><ele>0.0</ele><time>2026-04-29T12:06:02.086Z</time></trkpt><trkpt lat="37.0556661" lon="-1.1729627"><ele>0.0</ele><time>2026-04-29T12:06:03.086Z</time></trkpt><trkpt lat="37.0557121" lon="-1.1728691"><ele>0.0</ele><time>2026-04-29T12:06:04.087Z</time></trkpt><trkpt lat="37.0557619" lon="-1.1727745"><ele>0.0</ele><time>2026-04-29T12:06:05.086Z</time></trkpt><trkpt lat="37.0558103" lon="-1.172685"><ele>0.0</ele><time>2026-04-29T12:06:06.087Z</time></trkpt><trkpt lat="37.0559275" lon="-1.1725076"><ele>0.0</ele><time>2026-04-29T12:06:08.086Z</time></trkpt><trkpt lat="37.0559738" lon="-1.1724172"><ele>0.0</ele><time>2026-04-29T12:06:09.086Z</time></trkpt><trkpt lat="37.0560177" lon="-1.1723299"><ele>0.0</ele><time>2026-04-29T12:06:10.086Z</time></trkpt><trkpt lat="37.0560628" lon="-1.1722375"><ele>0.0</ele><time>2026-04-29T12:06:11.086Z</time></trkpt><trkpt lat="37.056106" lon="-1.1721501"><ele>0.0</ele><time>2026-04-29T12:06:12.087Z</time></trkpt><trkpt lat="37.0561504" lon="-1.1720615"><ele>0.0</ele><time>2026-04-29T12:06:13.087Z</time></trkpt><trkpt lat="37.0561929" lon="-1.1719649"><ele>0.0</ele><time>2026-04-29T12:06:14.086Z</time></trkpt><trkpt lat="37.05624" lon="-1.1718693"><ele>0.0</ele><time>2026-04-29T12:06:15.087Z</time></trkpt><trkpt lat="37.0562884" lon="-1.1717745"><ele>0.0</ele><time>2026-04-29T12:06:16.086Z</time></trkpt><trkpt lat="37.0563367" lon="-1.1716808"><ele>0.0</ele><time>2026-04-29T12:06:17.086Z</time></trkpt><trkpt lat="37.0563822" lon="-1.1715901"><ele>0.0</ele><time>2026-04-29T12:06:18.087Z</time></trkpt><trkpt lat="37.0564297" lon="-1.1715041"><ele>0.0</ele><time>2026-04-29T12:06:19.087Z</time></trkpt><trkpt lat="37.0564727" lon="-1.1714234"><ele>0.0</ele><time>2026-04-29T12:06:20.086Z</time></trkpt><trkpt lat="37.0565219" lon="-1.1713366"><ele>0.0</ele><time>2026-04-29T12:06:21.087Z</time></trkpt><trkpt lat="37.0565677" lon="-1.1712498"><ele>0.0</ele><time>2026-04-29T12:06:22.086Z</time></trkpt><trkpt lat="37.0566168" lon="-1.1711601"><ele>0.0</ele><time>2026-04-29T12:06:23.086Z</time></trkpt><trkpt lat="37.0566634" lon="-1.1710642"><ele>0.0</ele><time>2026-04-29T12:06:24.086Z</time></trkpt><trkpt lat="37.0567132" lon="-1.1709718"><ele>0.0</ele><time>2026-04-29T12:06:25.086Z</time></trkpt><trkpt lat="37.0567676" lon="-1.1708806"><ele>0.0</ele><time>2026-04-29T12:06:26.086Z</time></trkpt><trkpt lat="37.0568153" lon="-1.170796"><ele>0.0</ele><time>2026-04-29T12:06:27.086Z</time></trkpt><trkpt lat="37.0569278" lon="-1.1706275"><ele>0.0</ele><time>2026-04-29T12:06:29.087Z</time></trkpt><trkpt lat="37.0569826" lon="-1.1705427"><ele>0.0</ele><time>2026-04-29T12:06:30.087Z</time></trkpt><trkpt lat="37.0570334" lon="-1.1704595"><ele>0.0</ele><time>2026-04-29T12:06:31.087Z</time></trkpt><trkpt lat="37.0570802" lon="-1.1703729"><ele>0.0</ele><time>2026-04-29T12:06:32.086Z</time></trkpt><trkpt lat="37.0571316" lon="-1.1702877"><ele>0.0</ele><time>2026-04-29T12:06:33.087Z</time></trkpt><trkpt lat="37.0571861" lon="-1.1701957"><ele>0.0</ele><time>2026-04-29T12:06:34.086Z</time></trkpt><trkpt lat="37.0572382" lon="-1.1701039"><ele>0.0</ele><time>2026-04-29T12:06:35.086Z</time></trkpt><trkpt lat="37.05729" lon="-1.1700181"><ele>0.0</ele><time>2026-04-29T12:06:36.086Z</time></trkpt><trkpt lat="37.0573418" lon="-1.1699302"><ele>0.0</ele><time>2026-04-29T12:06:37.086Z</time></trkpt><trkpt lat="37.0573932" lon="-1.1698418"><ele>0.0</ele><time>2026-04-29T12:06:38.086Z</time></trkpt><trkpt lat="37.0574435" lon="-1.169752"><ele>0.0</ele><time>2026-04-29T12:06:39.086Z</time></trkpt><trkpt lat="37.0574949" lon="-1.1696634"><ele>0.0</ele><time>2026-04-29T12:06:40.087Z</time></trkpt><trkpt lat="37.0575422" lon="-1.169581"><ele>0.0</ele><time>2026-04-29T12:06:41.087Z</time></trkpt><trkpt lat="37.0575918" lon="-1.1694907"><ele>0.0</ele><time>2026-04-29T12:06:42.086Z</time></trkpt><trkpt lat="37.0576421" lon="-1.1693948"><ele>0.0</ele><time>2026-04-29T12:06:43.086Z</time></trkpt><trkpt lat="37.0576926" lon="-1.1693079"><ele>0.0</ele><time>2026-04-29T12:06:44.086Z</time></trkpt><trkpt lat="37.0577378" lon="-1.1692184"><ele>0.0</ele><time>2026-04-29T12:06:45.086Z</time></trkpt><trkpt lat="37.0577896" lon="-1.1691271"><ele>0.0</ele><time>2026-04-29T12:06:46.086Z</time></trkpt><trkpt lat="37.0578395" lon="-1.1690296"><ele>0.0</ele><time>2026-04-29T12:06:47.086Z</time></trkpt><trkpt lat="37.0578893" lon="-1.1689415"><ele>0.0</ele><time>2026-04-29T12:06:48.086Z</time></trkpt><trkpt lat="37.0579901" lon="-1.1687671"><ele>0.0</ele><time>2026-04-29T12:06:50.087Z</time></trkpt><trkpt lat="37.0580386" lon="-1.1686796"><ele>0.0</ele><time>2026-04-29T12:06:51.087Z</time></trkpt><trkpt lat="37.0580868" lon="-1.1685913"><ele>0.0</ele><time>2026-04-29T12:06:52.086Z</time></trkpt><trkpt lat="37.0581324" lon="-1.1685079"><ele>0.0</ele><time>2026-04-29T12:06:53.086Z</time></trkpt><trkpt lat="37.0581787" lon="-1.1684202"><ele>0.0</ele><time>2026-04-29T12:06:54.087Z</time></trkpt><trkpt lat="37.0582278" lon="-1.168323"><ele>0.0</ele><time>2026-04-29T12:06:55.087Z</time></trkpt><trkpt lat="37.0582823" lon="-1.1682275"><ele>0.0</ele><time>2026-04-29T12:06:56.087Z</time></trkpt><trkpt lat="37.0583447" lon="-1.1681426"><ele>0.0</ele><time>2026-04-29T12:06:57.086Z</time></trkpt><trkpt lat="37.0584048" lon="-1.1680604"><ele>0.0</ele><time>2026-04-29T12:06:58.086Z</time></trkpt><trkpt lat="37.0584676" lon="-1.1679786"><ele>0.0</ele><time>2026-04-29T12:06:59.087Z</time></trkpt><trkpt lat="37.0585251" lon="-1.1678943"><ele>0.0</ele><time>2026-04-29T12:07:00.086Z</time></trkpt><trkpt lat="37.0585834" lon="-1.1678078"><ele>0.0</ele><time>2026-04-29T12:07:01.087Z</time></trkpt><trkpt lat="37.0586406" lon="-1.1677227"><ele>0.0</ele><time>2026-04-29T12:07:02.086Z</time></trkpt><trkpt lat="37.0586988" lon="-1.1676362"><ele>0.0</ele><time>2026-04-29T12:07:03.087Z</time></trkpt><trkpt lat="37.0587457" lon="-1.1675497"><ele>0.0</ele><time>2026-04-29T12:07:04.086Z</time></trkpt><trkpt lat="37.0587841" lon="-1.1674696"><ele>0.0</ele><time>2026-04-29T12:07:05.087Z</time></trkpt><trkpt lat="37.0588264" lon="-1.1673706"><ele>0.0</ele><time>2026-04-29T12:07:06.086Z</time></trkpt><trkpt lat="37.0588717" lon="-1.1672731"><ele>0.0</ele><time>2026-04-29T12:07:07.087Z</time></trkpt><trkpt lat="37.0589198" lon="-1.1671776"><ele>0.0</ele><time>2026-04-29T12:07:08.086Z</time></trkpt><trkpt lat="37.0589702" lon="-1.1670941"><ele>0.0</ele><time>2026-04-29T12:07:09.087Z</time></trkpt><trkpt lat="37.0590697" lon="-1.1669116"><ele>0.0</ele><time>2026-04-29T12:07:11.087Z</time></trkpt><trkpt lat="37.0591145" lon="-1.1668219"><ele>0.0</ele><time>2026-04-29T12:07:12.086Z</time></trkpt><trkpt lat="37.0591592" lon="-1.1667376"><ele>0.0</ele><time>2026-04-29T12:07:13.087Z</time></trkpt><trkpt lat="37.0592185" lon="-1.1666517"><ele>0.0</ele><time>2026-04-29T12:07:14.087Z</time></trkpt><trkpt lat="37.0592703" lon="-1.1665619"><ele>0.0</ele><time>2026-04-29T12:07:15.087Z</time></trkpt><trkpt lat="37.0593095" lon="-1.1664806"><ele>0.0</ele><time>2026-04-29T12:07:16.087Z</time></trkpt><trkpt lat="37.0593516" lon="-1.1663904"><ele>0.0</ele><time>2026-04-29T12:07:17.087Z</time></trkpt><trkpt lat="37.0594" lon="-1.1663099"><ele>0.0</ele><time>2026-04-29T12:07:18.087Z</time></trkpt><trkpt lat="37.0594432" lon="-1.1662287"><ele>0.0</ele><time>2026-04-29T12:07:19.086Z</time></trkpt><trkpt lat="37.0594977" lon="-1.1661373"><ele>0.0</ele><time>2026-04-29T12:07:20.086Z</time></trkpt><trkpt lat="37.0595541" lon="-1.1660413"><ele>0.0</ele><time>2026-04-29T12:07:21.086Z</time></trkpt><trkpt lat="37.0596151" lon="-1.1659534"><ele>0.0</ele><time>2026-04-29T12:07:22.087Z</time></trkpt><trkpt lat="37.0596657" lon="-1.1658652"><ele>0.0</ele><time>2026-04-29T12:07:23.086Z</time></trkpt><trkpt lat="37.0597107" lon="-1.1657793"><ele>0.0</ele><time>2026-04-29T12:07:24.087Z</time></trkpt><trkpt lat="37.059754" lon="-1.165687"><ele>0.0</ele><time>2026-04-29T12:07:25.086Z</time></trkpt><trkpt lat="37.0598004" lon="-1.1655939"><ele>0.0</ele><time>2026-04-29T12:07:26.086Z</time></trkpt><trkpt lat="37.0598439" lon="-1.1655005"><ele>0.0</ele><time>2026-04-29T12:07:27.087Z</time></trkpt><trkpt lat="37.0598947" lon="-1.1654103"><ele>0.0</ele><time>2026-04-29T12:07:28.087Z</time></trkpt><trkpt lat="37.0599461" lon="-1.1653216"><ele>0.0</ele><time>2026-04-29T12:07:29.086Z</time></trkpt><trkpt lat="37.0599881" lon="-1.1652402"><ele>0.0</ele><time>2026-04-29T12:07:30.086Z</time></trkpt><trkpt lat="37.0600815" lon="-1.165064"><ele>0.0</ele><time>2026-04-29T12:07:32.086Z</time></trkpt><trkpt lat="37.0601319" lon="-1.164975"><ele>0.0</ele><time>2026-04-29T12:07:33.087Z</time></trkpt><trkpt lat="37.0601918" lon="-1.1648837"><ele>0.0</ele><time>2026-04-29T12:07:34.086Z</time></trkpt><trkpt lat="37.0602485" lon="-1.1647906"><ele>0.0</ele><time>2026-04-29T12:07:35.086Z</time></trkpt><trkpt lat="37.0602928" lon="-1.16471"><ele>0.0</ele><time>2026-04-29T12:07:36.087Z</time></trkpt><trkpt lat="37.0603432" lon="-1.1646132"><ele>0.0</ele><time>2026-04-29T12:07:37.086Z</time></trkpt><trkpt lat="37.0603906" lon="-1.1645166"><ele>0.0</ele><time>2026-04-29T12:07:38.086Z</time></trkpt><trkpt lat="37.0604388" lon="-1.1644228"><ele>0.0</ele><time>2026-04-29T12:07:39.087Z</time></trkpt><trkpt lat="37.0604839" lon="-1.1643277"><ele>0.0</ele><time>2026-04-29T12:07:40.087Z</time></trkpt><trkpt lat="37.060536" lon="-1.164234"><ele>0.0</ele><time>2026-04-29T12:07:41.087Z</time></trkpt><trkpt lat="37.0605785" lon="-1.164148"><ele>0.0</ele><time>2026-04-29T12:07:42.086Z</time></trkpt><trkpt lat="37.0606259" lon="-1.1640629"><ele>0.0</ele><time>2026-04-29T12:07:43.087Z</time></trkpt><trkpt lat="37.0606753" lon="-1.1639764"><ele>0.0</ele><time>2026-04-29T12:07:44.086Z</time></trkpt><trkpt lat="37.0607222" lon="-1.1638883"><ele>0.0</ele><time>2026-04-29T12:07:45.086Z</time></trkpt><trkpt lat="37.0607702" lon="-1.1637958"><ele>0.0</ele><time>2026-04-29T12:07:46.086Z</time></trkpt><trkpt lat="37.0608158" lon="-1.1637156"><ele>0.0</ele><time>2026-04-29T12:07:47.086Z</time></trkpt><trkpt lat="37.0608618" lon="-1.1636294"><ele>0.0</ele><time>2026-04-29T12:07:48.087Z</time></trkpt><trkpt lat="37.0609174" lon="-1.1635388"><ele>0.0</ele><time>2026-04-29T12:07:49.086Z</time></trkpt><trkpt lat="37.0609673" lon="-1.1634575"><ele>0.0</ele><time>2026-04-29T12:07:50.086Z</time></trkpt><trkpt lat="37.061017" lon="-1.1633728"><ele>0.0</ele><time>2026-04-29T12:07:51.087Z</time></trkpt><trkpt lat="37.061118" lon="-1.1631949"><ele>0.0</ele><time>2026-04-29T12:07:53.087Z</time></trkpt><trkpt lat="37.0611699" lon="-1.1631053"><ele>0.0</ele><time>2026-04-29T12:07:54.086Z</time></trkpt><trkpt lat="37.0612218" lon="-1.1630212"><ele>0.0</ele><time>2026-04-29T12:07:55.086Z</time></trkpt><trkpt lat="37.0612762" lon="-1.1629406"><ele>0.0</ele><time>2026-04-29T12:07:56.087Z</time></trkpt><trkpt lat="37.061331" lon="-1.1628575"><ele>0.0</ele><time>2026-04-29T12:07:57.086Z</time></trkpt><trkpt lat="37.0613847" lon="-1.1627673"><ele>0.0</ele><time>2026-04-29T12:07:58.086Z</time></trkpt><trkpt lat="37.0614369" lon="-1.1626771"><ele>0.0</ele><time>2026-04-29T12:07:59.086Z</time></trkpt><trkpt lat="37.0614883" lon="-1.1625859"><ele>0.0</ele><time>2026-04-29T12:08:00.087Z</time></trkpt><trkpt lat="37.0615369" lon="-1.1624954"><ele>0.0</ele><time>2026-04-29T12:08:01.087Z</time></trkpt><trkpt lat="37.0615882" lon="-1.1624011"><ele>0.0</ele><time>2026-04-29T12:08:02.086Z</time></trkpt><trkpt lat="37.0616399" lon="-1.1623076"><ele>0.0</ele><time>2026-04-29T12:08:03.087Z</time></trkpt><trkpt lat="37.0616888" lon="-1.1622188"><ele>0.0</ele><time>2026-04-29T12:08:04.086Z</time></trkpt><trkpt lat="37.0617354" lon="-1.1621269"><ele>0.0</ele><time>2026-04-29T12:08:05.086Z</time></trkpt><trkpt lat="37.0617837" lon="-1.1620368"><ele>0.0</ele><time>2026-04-29T12:08:06.086Z</time></trkpt><trkpt lat="37.0618337" lon="-1.1619499"><ele>0.0</ele><time>2026-04-29T12:08:07.086Z</time></trkpt><trkpt lat="37.0618832" lon="-1.1618618"><ele>0.0</ele><time>2026-04-29T12:08:08.086Z</time></trkpt><trkpt lat="37.0619334" lon="-1.1617721"><ele>0.0</ele><time>2026-04-29T12:08:09.087Z</time></trkpt><trkpt lat="37.0619834" lon="-1.1616775"><ele>0.0</ele><time>2026-04-29T12:08:10.086Z</time></trkpt><trkpt lat="37.0620394" lon="-1.1615857"><ele>0.0</ele><time>2026-04-29T12:08:11.086Z</time></trkpt><trkpt lat="37.06209" lon="-1.1614969"><ele>0.0</ele><time>2026-04-29T12:08:12.087Z</time></trkpt><trkpt lat="37.0621967" lon="-1.1613174"><ele>0.0</ele><time>2026-04-29T12:08:14.086Z</time></trkpt><trkpt lat="37.06225" lon="-1.1612241"><ele>0.0</ele><time>2026-04-29T12:08:15.087Z</time></trkpt><trkpt lat="37.0622916" lon="-1.1611293"><ele>0.0</ele><time>2026-04-29T12:08:16.087Z</time></trkpt><trkpt lat="37.0623374" lon="-1.1610415"><ele>0.0</ele><time>2026-04-29T12:08:17.086Z</time></trkpt><trkpt lat="37.0623857" lon="-1.1609621"><ele>0.0</ele><time>2026-04-29T12:08:18.086Z</time></trkpt><trkpt lat="37.0624386" lon="-1.1608749"><ele>0.0</ele><time>2026-04-29T12:08:19.086Z</time></trkpt><trkpt lat="37.0624958" lon="-1.1607868"><ele>0.0</ele><time>2026-04-29T12:08:20.085Z</time></trkpt><trkpt lat="37.062554" lon="-1.1606985"><ele>0.0</ele><time>2026-04-29T12:08:21.085Z</time></trkpt><trkpt lat="37.0626052" lon="-1.1606187"><ele>0.0</ele><time>2026-04-29T12:08:22.085Z</time></trkpt><trkpt lat="37.0626596" lon="-1.1605303"><ele>0.0</ele><time>2026-04-29T12:08:23.085Z</time></trkpt><trkpt lat="37.0627032" lon="-1.1604417"><ele>0.0</ele><time>2026-04-29T12:08:24.086Z</time></trkpt><trkpt lat="37.062752" lon="-1.1603534"><ele>0.0</ele><time>2026-04-29T12:08:25.085Z</time></trkpt><trkpt lat="37.0628047" lon="-1.1602651"><ele>0.0</ele><time>2026-04-29T12:08:26.085Z</time></trkpt><trkpt lat="37.0628527" lon="-1.1601724"><ele>0.0</ele><time>2026-04-29T12:08:27.085Z</time></trkpt><trkpt lat="37.0629006" lon="-1.1600863"><ele>0.0</ele><time>2026-04-29T12:08:28.085Z</time></trkpt><trkpt lat="37.0629462" lon="-1.1599971"><ele>0.0</ele><time>2026-04-29T12:08:29.085Z</time></trkpt><trkpt lat="37.0629952" lon="-1.1599069"><ele>0.0</ele><time>2026-04-29T12:08:30.085Z</time></trkpt><trkpt lat="37.0630381" lon="-1.1598157"><ele>0.0</ele><time>2026-04-29T12:08:31.085Z</time></trkpt><trkpt lat="37.0630882" lon="-1.1597254"><ele>0.0</ele><time>2026-04-29T12:08:32.085Z</time></trkpt><trkpt lat="37.0631399" lon="-1.1596396"><ele>0.0</ele><time>2026-04-29T12:08:33.085Z</time></trkpt><trkpt lat="37.0632339" lon="-1.1594646"><ele>0.0</ele><time>2026-04-29T12:08:35.085Z</time></trkpt><trkpt lat="37.0632865" lon="-1.1593741"><ele>0.0</ele><time>2026-04-29T12:08:36.085Z</time></trkpt><trkpt lat="37.0633324" lon="-1.1592781"><ele>0.0</ele><time>2026-04-29T12:08:37.086Z</time></trkpt><trkpt lat="37.0633828" lon="-1.1591884"><ele>0.0</ele><time>2026-04-29T12:08:38.085Z</time></trkpt><trkpt lat="37.0634358" lon="-1.1591055"><ele>0.0</ele><time>2026-04-29T12:08:39.085Z</time></trkpt><trkpt lat="37.0634909" lon="-1.159014"><ele>0.0</ele><time>2026-04-29T12:08:40.086Z</time></trkpt><trkpt lat="37.063546" lon="-1.1589236"><ele>0.0</ele><time>2026-04-29T12:08:41.086Z</time></trkpt><trkpt lat="37.0635923" lon="-1.1588392"><ele>0.0</ele><time>2026-04-29T12:08:42.085Z</time></trkpt><trkpt lat="37.0636403" lon="-1.1587501"><ele>0.0</ele><time>2026-04-29T12:08:43.086Z</time></trkpt><trkpt lat="37.063687" lon="-1.1586614"><ele>0.0</ele><time>2026-04-29T12:08:44.085Z</time></trkpt><trkpt lat="37.0637351" lon="-1.1585744"><ele>0.0</ele><time>2026-04-29T12:08:45.085Z</time></trkpt><trkpt lat="37.0637808" lon="-1.1584835"><ele>0.0</ele><time>2026-04-29T12:08:46.086Z</time></trkpt><trkpt lat="37.0638275" lon="-1.1583909"><ele>0.0</ele><time>2026-04-29T12:08:47.085Z</time></trkpt><trkpt lat="37.0638769" lon="-1.1583005"><ele>0.0</ele><time>2026-04-29T12:08:48.085Z</time></trkpt><trkpt lat="37.0639234" lon="-1.1582142"><ele>0.0</ele><time>2026-04-29T12:08:49.085Z</time></trkpt><trkpt lat="37.0639696" lon="-1.1581283"><ele>0.0</ele><time>2026-04-29T12:08:50.085Z</time></trkpt><trkpt lat="37.0640154" lon="-1.1580384"><ele>0.0</ele><time>2026-04-29T12:08:51.085Z</time></trkpt><trkpt lat="37.0640618" lon="-1.1579483"><ele>0.0</ele><time>2026-04-29T12:08:52.086Z</time></trkpt><trkpt lat="37.0641113" lon="-1.1578628"><ele>0.0</ele><time>2026-04-29T12:08:53.086Z</time></trkpt><trkpt lat="37.0641702" lon="-1.157776"><ele>0.0</ele><time>2026-04-29T12:08:54.086Z</time></trkpt><trkpt lat="37.0642748" lon="-1.157592"><ele>0.0</ele><time>2026-04-29T12:08:56.086Z</time></trkpt><trkpt lat="37.064319" lon="-1.1575074"><ele>0.0</ele><time>2026-04-29T12:08:57.086Z</time></trkpt><trkpt lat="37.0643683" lon="-1.1574185"><ele>0.0</ele><time>2026-04-29T12:08:58.085Z</time></trkpt><trkpt lat="37.0644196" lon="-1.1573243"><ele>0.0</ele><time>2026-04-29T12:08:59.085Z</time></trkpt><trkpt lat="37.0644713" lon="-1.1572337"><ele>0.0</ele><time>2026-04-29T12:09:00.086Z</time></trkpt><trkpt lat="37.0645119" lon="-1.1571479"><ele>0.0</ele><time>2026-04-29T12:09:01.086Z</time></trkpt><trkpt lat="37.0645528" lon="-1.1570638"><ele>0.0</ele><time>2026-04-29T12:09:02.085Z</time></trkpt><trkpt lat="37.0646059" lon="-1.156969"><ele>0.0</ele><time>2026-04-29T12:09:03.085Z</time></trkpt><trkpt lat="37.0646567" lon="-1.1568816"><ele>0.0</ele><time>2026-04-29T12:09:04.085Z</time></trkpt><trkpt lat="37.0647082" lon="-1.1567948"><ele>0.0</ele><time>2026-04-29T12:09:05.086Z</time></trkpt><trkpt lat="37.0647611" lon="-1.1567066"><ele>0.0</ele><time>2026-04-29T12:09:06.085Z</time></trkpt><trkpt lat="37.0648173" lon="-1.156631"><ele>0.0</ele><time>2026-04-29T12:09:07.085Z</time></trkpt><trkpt lat="37.0648727" lon="-1.1565392"><ele>0.0</ele><time>2026-04-29T12:09:08.085Z</time></trkpt><trkpt lat="37.0649222" lon="-1.1564433"><ele>0.0</ele><time>2026-04-29T12:09:09.086Z</time></trkpt><trkpt lat="37.0649751" lon="-1.156355"><ele>0.0</ele><time>2026-04-29T12:09:10.086Z</time></trkpt><trkpt lat="37.0650212" lon="-1.1562654"><ele>0.0</ele><time>2026-04-29T12:09:11.086Z</time></trkpt><trkpt lat="37.0650587" lon="-1.1561877"><ele>0.0</ele><time>2026-04-29T12:09:12.085Z</time></trkpt><trkpt lat="37.0651078" lon="-1.1560927"><ele>0.0</ele><time>2026-04-29T12:09:13.085Z</time></trkpt><trkpt lat="37.0651626" lon="-1.1559965"><ele>0.0</ele><time>2026-04-29T12:09:14.085Z</time></trkpt><trkpt lat="37.0652481" lon="-1.155821"><ele>0.0</ele><time>2026-04-29T12:09:16.086Z</time></trkpt><trkpt lat="37.0652924" lon="-1.1557317"><ele>0.0</ele><time>2026-04-29T12:09:17.086Z</time></trkpt><trkpt lat="37.0653417" lon="-1.1556433"><ele>0.0</ele><time>2026-04-29T12:09:18.086Z</time></trkpt><trkpt lat="37.0653861" lon="-1.1555566"><ele>0.0</ele><time>2026-04-29T12:09:19.086Z</time></trkpt><trkpt lat="37.0654325" lon="-1.155467"><ele>0.0</ele><time>2026-04-29T12:09:20.086Z</time></trkpt><trkpt lat="37.0654817" lon="-1.1553812"><ele>0.0</ele><time>2026-04-29T12:09:21.085Z</time></trkpt><trkpt lat="37.0655357" lon="-1.1552917"><ele>0.0</ele><time>2026-04-29T12:09:22.086Z</time></trkpt><trkpt lat="37.0655911" lon="-1.155205"><ele>0.0</ele><time>2026-04-29T12:09:23.085Z</time></trkpt><trkpt lat="37.0656449" lon="-1.1551137"><ele>0.0</ele><time>2026-04-29T12:09:24.086Z</time></trkpt><trkpt lat="37.0656968" lon="-1.155022"><ele>0.0</ele><time>2026-04-29T12:09:25.085Z</time></trkpt><trkpt lat="37.065744" lon="-1.1549377"><ele>0.0</ele><time>2026-04-29T12:09:26.085Z</time></trkpt><trkpt lat="37.065799" lon="-1.1548386"><ele>0.0</ele><time>2026-04-29T12:09:27.085Z</time></trkpt><trkpt lat="37.0658556" lon="-1.1547404"><ele>0.0</ele><time>2026-04-29T12:09:28.085Z</time></trkpt><trkpt lat="37.0659141" lon="-1.1546464"><ele>0.0</ele><time>2026-04-29T12:09:29.085Z</time></trkpt><trkpt lat="37.0659695" lon="-1.1545584"><ele>0.0</ele><time>2026-04-29T12:09:30.086Z</time></trkpt><trkpt lat="37.0660146" lon="-1.1544782"><ele>0.0</ele><time>2026-04-29T12:09:31.085Z</time></trkpt><trkpt lat="37.0660607" lon="-1.1543913"><ele>0.0</ele><time>2026-04-29T12:09:32.085Z</time></trkpt><trkpt lat="37.0661118" lon="-1.1543003"><ele>0.0</ele><time>2026-04-29T12:09:33.085Z</time></trkpt><trkpt lat="37.0661544" lon="-1.1542044"><ele>0.0</ele><time>2026-04-29T12:09:34.085Z</time></trkpt><trkpt lat="37.0662004" lon="-1.1541121"><ele>0.0</ele><time>2026-04-29T12:09:35.085Z</time></trkpt><trkpt lat="37.0662988" lon="-1.1539387"><ele>0.0</ele><time>2026-04-29T12:09:37.086Z</time></trkpt><trkpt lat="37.0663441" lon="-1.1538542"><ele>0.0</ele><time>2026-04-29T12:09:38.086Z</time></trkpt><trkpt lat="37.0663922" lon="-1.1537675"><ele>0.0</ele><time>2026-04-29T12:09:39.085Z</time></trkpt><trkpt lat="37.066443" lon="-1.1536779"><ele>0.0</ele><time>2026-04-29T12:09:40.085Z</time></trkpt><trkpt lat="37.0665006" lon="-1.1535855"><ele>0.0</ele><time>2026-04-29T12:09:41.085Z</time></trkpt><trkpt lat="37.0665477" lon="-1.1534992"><ele>0.0</ele><time>2026-04-29T12:09:42.085Z</time></trkpt><trkpt lat="37.0665999" lon="-1.1534174"><ele>0.0</ele><time>2026-04-29T12:09:43.086Z</time></trkpt><trkpt lat="37.0666488" lon="-1.153327"><ele>0.0</ele><time>2026-04-29T12:09:44.086Z</time></trkpt><trkpt lat="37.066703" lon="-1.1532413"><ele>0.0</ele><time>2026-04-29T12:09:45.086Z</time></trkpt><trkpt lat="37.0667509" lon="-1.153152"><ele>0.0</ele><time>2026-04-29T12:09:46.085Z</time></trkpt><trkpt lat="37.0667951" lon="-1.1530607"><ele>0.0</ele><time>2026-04-29T12:09:47.086Z</time></trkpt><trkpt lat="37.0668383" lon="-1.152966"><ele>0.0</ele><time>2026-04-29T12:09:48.086Z</time></trkpt><trkpt lat="37.066883" lon="-1.1528796"><ele>0.0</ele><time>2026-04-29T12:09:49.085Z</time></trkpt><trkpt lat="37.0669448" lon="-1.1527901"><ele>0.0</ele><time>2026-04-29T12:09:50.085Z</time></trkpt><trkpt lat="37.0670078" lon="-1.1527059"><ele>0.0</ele><time>2026-04-29T12:09:51.085Z</time></trkpt><trkpt lat="37.0670613" lon="-1.1526154"><ele>0.0</ele><time>2026-04-29T12:09:52.086Z</time></trkpt><trkpt lat="37.0671144" lon="-1.1525209"><ele>0.0</ele><time>2026-04-29T12:09:53.086Z</time></trkpt><trkpt lat="37.0671647" lon="-1.1524362"><ele>0.0</ele><time>2026-04-29T12:09:54.086Z</time></trkpt><trkpt lat="37.0672096" lon="-1.1523429"><ele>0.0</ele><time>2026-04-29T12:09:55.085Z</time></trkpt><trkpt lat="37.067253" lon="-1.1522536"><ele>0.0</ele><time>2026-04-29T12:09:56.085Z</time></trkpt><trkpt lat="37.0673474" lon="-1.1520682"><ele>0.0</ele><time>2026-04-29T12:09:58.085Z</time></trkpt><trkpt lat="37.0674023" lon="-1.1519729"><ele>0.0</ele><time>2026-04-29T12:09:59.086Z</time></trkpt><trkpt lat="37.0674547" lon="-1.1518817"><ele>0.0</ele><time>2026-04-29T12:10:00.085Z</time></trkpt><trkpt lat="37.0675021" lon="-1.1517886"><ele>0.0</ele><time>2026-04-29T12:10:01.086Z</time></trkpt><trkpt lat="37.067549" lon="-1.1517001"><ele>0.0</ele><time>2026-04-29T12:10:02.085Z</time></trkpt><trkpt lat="37.0675956" lon="-1.1516158"><ele>0.0</ele><time>2026-04-29T12:10:03.085Z</time></trkpt><trkpt lat="37.0676479" lon="-1.1515266"><ele>0.0</ele><time>2026-04-29T12:10:04.085Z</time></trkpt><trkpt lat="37.0676965" lon="-1.1514454"><ele>0.0</ele><time>2026-04-29T12:10:05.085Z</time></trkpt><trkpt lat="37.0677408" lon="-1.1513485"><ele>0.0</ele><time>2026-04-29T12:10:06.085Z</time></trkpt><trkpt lat="37.0677871" lon="-1.1512571"><ele>0.0</ele><time>2026-04-29T12:10:07.085Z</time></trkpt><trkpt lat="37.0678365" lon="-1.1511711"><ele>0.0</ele><time>2026-04-29T12:10:08.086Z</time></trkpt><trkpt lat="37.0678868" lon="-1.1510848"><ele>0.0</ele><time>2026-04-29T12:10:09.086Z</time></trkpt><trkpt lat="37.0679382" lon="-1.150998"><ele>0.0</ele><time>2026-04-29T12:10:10.085Z</time></trkpt><trkpt lat="37.0679839" lon="-1.1509143"><ele>0.0</ele><time>2026-04-29T12:10:11.085Z</time></trkpt><trkpt lat="37.0680335" lon="-1.150828"><ele>0.0</ele><time>2026-04-29T12:10:12.086Z</time></trkpt><trkpt lat="37.0680909" lon="-1.1507413"><ele>0.0</ele><time>2026-04-29T12:10:13.085Z</time></trkpt><trkpt lat="37.0681446" lon="-1.1506519"><ele>0.0</ele><time>2026-04-29T12:10:14.086Z</time></trkpt><trkpt lat="37.0681995" lon="-1.1505677"><ele>0.0</ele><time>2026-04-29T12:10:15.086Z</time></trkpt><trkpt lat="37.0682503" lon="-1.1504786"><ele>0.0</ele><time>2026-04-29T12:10:16.086Z</time></trkpt><trkpt lat="37.068299" lon="-1.1503987"><ele>0.0</ele><time>2026-04-29T12:10:17.085Z</time></trkpt><trkpt lat="37.0683994" lon="-1.1502116"><ele>0.0</ele><time>2026-04-29T12:10:19.086Z</time></trkpt><trkpt lat="37.0684629" lon="-1.1501231"><ele>0.0</ele><time>2026-04-29T12:10:20.086Z</time></trkpt><trkpt lat="37.0685167" lon="-1.150031"><ele>0.0</ele><time>2026-04-29T12:10:21.085Z</time></trkpt><trkpt lat="37.0685714" lon="-1.1499405"><ele>0.0</ele><time>2026-04-29T12:10:22.085Z</time></trkpt><trkpt lat="37.0686279" lon="-1.149852"><ele>0.0</ele><time>2026-04-29T12:10:23.086Z</time></trkpt><trkpt lat="37.0686718" lon="-1.1497665"><ele>0.0</ele><time>2026-04-29T12:10:24.085Z</time></trkpt><trkpt lat="37.0687219" lon="-1.1496803"><ele>0.0</ele><time>2026-04-29T12:10:25.085Z</time></trkpt><trkpt lat="37.0687635" lon="-1.1495907"><ele>0.0</ele><time>2026-04-29T12:10:26.086Z</time></trkpt><trkpt lat="37.0688035" lon="-1.149503"><ele>0.0</ele><time>2026-04-29T12:10:27.085Z</time></trkpt><trkpt lat="37.0688449" lon="-1.1494208"><ele>0.0</ele><time>2026-04-29T12:10:28.085Z</time></trkpt><trkpt lat="37.0688977" lon="-1.1493304"><ele>0.0</ele><time>2026-04-29T12:10:29.085Z</time></trkpt><trkpt lat="37.0689441" lon="-1.1492447"><ele>0.0</ele><time>2026-04-29T12:10:30.086Z</time></trkpt><trkpt lat="37.0690008" lon="-1.1491555"><ele>0.0</ele><time>2026-04-29T12:10:31.086Z</time></trkpt><trkpt lat="37.0690607" lon="-1.1490712"><ele>0.0</ele><time>2026-04-29T12:10:32.086Z</time></trkpt><trkpt lat="37.0691065" lon="-1.1489892"><ele>0.0</ele><time>2026-04-29T12:10:33.085Z</time></trkpt><trkpt lat="37.0691511" lon="-1.148903"><ele>0.0</ele><time>2026-04-29T12:10:34.086Z</time></trkpt><trkpt lat="37.0691987" lon="-1.1488149"><ele>0.0</ele><time>2026-04-29T12:10:35.085Z</time></trkpt><trkpt lat="37.0692427" lon="-1.1487225"><ele>0.0</ele><time>2026-04-29T12:10:36.085Z</time></trkpt><trkpt lat="37.0692902" lon="-1.1486309"><ele>0.0</ele><time>2026-04-29T12:10:37.085Z</time></trkpt><trkpt lat="37.0693387" lon="-1.1485405"><ele>0.0</ele><time>2026-04-29T12:10:38.086Z</time></trkpt><trkpt lat="37.0694369" lon="-1.1483603"><ele>0.0</ele><time>2026-04-29T12:10:40.086Z</time></trkpt><trkpt lat="37.0694806" lon="-1.1482685"><ele>0.0</ele><time>2026-04-29T12:10:41.085Z</time></trkpt><trkpt lat="37.0695272" lon="-1.1481829"><ele>0.0</ele><time>2026-04-29T12:10:42.085Z</time></trkpt><trkpt lat="37.0695782" lon="-1.1480966"><ele>0.0</ele><time>2026-04-29T12:10:43.085Z</time></trkpt><trkpt lat="37.0696283" lon="-1.1480052"><ele>0.0</ele><time>2026-04-29T12:10:44.085Z</time></trkpt><trkpt lat="37.069683" lon="-1.1479125"><ele>0.0</ele><time>2026-04-29T12:10:45.085Z</time></trkpt><trkpt lat="37.069733" lon="-1.1478232"><ele>0.0</ele><time>2026-04-29T12:10:46.086Z</time></trkpt><trkpt lat="37.0697849" lon="-1.147735"><ele>0.0</ele><time>2026-04-29T12:10:47.086Z</time></trkpt><trkpt lat="37.0698378" lon="-1.1476524"><ele>0.0</ele><time>2026-04-29T12:10:48.085Z</time></trkpt><trkpt lat="37.0698815" lon="-1.1475637"><ele>0.0</ele><time>2026-04-29T12:10:49.085Z</time></trkpt><trkpt lat="37.0699272" lon="-1.1474707"><ele>0.0</ele><time>2026-04-29T12:10:50.086Z</time></trkpt><trkpt lat="37.0699782" lon="-1.1473786"><ele>0.0</ele><time>2026-04-29T12:10:51.086Z</time></trkpt><trkpt lat="37.0700271" lon="-1.1472886"><ele>0.0</ele><time>2026-04-29T12:10:52.086Z</time></trkpt><trkpt lat="37.0700782" lon="-1.1472016"><ele>0.0</ele><time>2026-04-29T12:10:53.085Z</time></trkpt><trkpt lat="37.0701297" lon="-1.1471118"><ele>0.0</ele><time>2026-04-29T12:10:54.086Z</time></trkpt><trkpt lat="37.0701842" lon="-1.1470232"><ele>0.0</ele><time>2026-04-29T12:10:55.085Z</time></trkpt><trkpt lat="37.0702348" lon="-1.1469336"><ele>0.0</ele><time>2026-04-29T12:10:56.086Z</time></trkpt><trkpt lat="37.0702917" lon="-1.1468504"><ele>0.0</ele><time>2026-04-29T12:10:57.085Z</time></trkpt><trkpt lat="37.0703418" lon="-1.1467632"><ele>0.0</ele><time>2026-04-29T12:10:58.085Z</time></trkpt><trkpt lat="37.070393" lon="-1.1466735"><ele>0.0</ele><time>2026-04-29T12:10:59.086Z</time></trkpt><trkpt lat="37.0705008" lon="-1.1465063"><ele>0.0</ele><time>2026-04-29T12:11:01.086Z</time></trkpt><trkpt lat="37.0705456" lon="-1.1464266"><ele>0.0</ele><time>2026-04-29T12:11:02.085Z</time></trkpt><trkpt lat="37.0705936" lon="-1.1463311"><ele>0.0</ele><time>2026-04-29T12:11:03.085Z</time></trkpt><trkpt lat="37.0706391" lon="-1.1462417"><ele>0.0</ele><time>2026-04-29T12:11:04.086Z</time></trkpt><trkpt lat="37.0706868" lon="-1.1461523"><ele>0.0</ele><time>2026-04-29T12:11:05.086Z</time></trkpt><trkpt lat="37.0707306" lon="-1.1460665"><ele>0.0</ele><time>2026-04-29T12:11:06.086Z</time></trkpt><trkpt lat="37.0707801" lon="-1.1459752"><ele>0.0</ele><time>2026-04-29T12:11:07.085Z</time></trkpt><trkpt lat="37.0708284" lon="-1.1458849"><ele>0.0</ele><time>2026-04-29T12:11:08.085Z</time></trkpt><trkpt lat="37.070877" lon="-1.1457955"><ele>0.0</ele><time>2026-04-29T12:11:09.085Z</time></trkpt><trkpt lat="37.0709279" lon="-1.1457026"><ele>0.0</ele><time>2026-04-29T12:11:10.086Z</time></trkpt><trkpt lat="37.0709795" lon="-1.1456061"><ele>0.0</ele><time>2026-04-29T12:11:11.086Z</time></trkpt><trkpt lat="37.0710272" lon="-1.1455184"><ele>0.0</ele><time>2026-04-29T12:11:12.085Z</time></trkpt><trkpt lat="37.0710767" lon="-1.1454285"><ele>0.0</ele><time>2026-04-29T12:11:13.086Z</time></trkpt><trkpt lat="37.0711266" lon="-1.14534"><ele>0.0</ele><time>2026-04-29T12:11:14.085Z</time></trkpt><trkpt lat="37.0711782" lon="-1.1452504"><ele>0.0</ele><time>2026-04-29T12:11:15.085Z</time></trkpt><trkpt lat="37.0712315" lon="-1.1451606"><ele>0.0</ele><time>2026-04-29T12:11:16.086Z</time></trkpt><trkpt lat="37.071286" lon="-1.1450678"><ele>0.0</ele><time>2026-04-29T12:11:17.085Z</time></trkpt><trkpt lat="37.071344" lon="-1.1449861"><ele>0.0</ele><time>2026-04-29T12:11:18.086Z</time></trkpt><trkpt lat="37.071402" lon="-1.1448899"><ele>0.0</ele><time>2026-04-29T12:11:19.085Z</time></trkpt><trkpt lat="37.0714524" lon="-1.1447976"><ele>0.0</ele><time>2026-04-29T12:11:20.086Z</time></trkpt><trkpt lat="37.071548" lon="-1.1446243"><ele>0.0</ele><time>2026-04-29T12:11:22.085Z</time></trkpt><trkpt lat="37.0715927" lon="-1.1445364"><ele>0.0</ele><time>2026-04-29T12:11:23.086Z</time></trkpt><trkpt lat="37.0716401" lon="-1.1444496"><ele>0.0</ele><time>2026-04-29T12:11:24.086Z</time></trkpt><trkpt lat="37.0716874" lon="-1.1443644"><ele>0.0</ele><time>2026-04-29T12:11:25.085Z</time></trkpt><trkpt lat="37.0717369" lon="-1.1442795"><ele>0.0</ele><time>2026-04-29T12:11:26.086Z</time></trkpt><trkpt lat="37.0717923" lon="-1.1441834"><ele>0.0</ele><time>2026-04-29T12:11:27.085Z</time></trkpt><trkpt lat="37.0718617" lon="-1.1440908"><ele>0.0</ele><time>2026-04-29T12:11:28.086Z</time></trkpt><trkpt lat="37.071918" lon="-1.1440051"><ele>0.0</ele><time>2026-04-29T12:11:29.085Z</time></trkpt><trkpt lat="37.0719642" lon="-1.1439242"><ele>0.0</ele><time>2026-04-29T12:11:30.086Z</time></trkpt><trkpt lat="37.0720051" lon="-1.1438362"><ele>0.0</ele><time>2026-04-29T12:11:31.085Z</time></trkpt><trkpt lat="37.0720537" lon="-1.1437497"><ele>0.0</ele><time>2026-04-29T12:11:32.086Z</time></trkpt><trkpt lat="37.0721004" lon="-1.1436562"><ele>0.0</ele><time>2026-04-29T12:11:33.085Z</time></trkpt><trkpt lat="37.0721518" lon="-1.1435587"><ele>0.0</ele><time>2026-04-29T12:11:34.085Z</time></trkpt><trkpt lat="37.0722003" lon="-1.1434657"><ele>0.0</ele><time>2026-04-29T12:11:35.085Z</time></trkpt><trkpt lat="37.0722398" lon="-1.1433777"><ele>0.0</ele><time>2026-04-29T12:11:36.086Z</time></trkpt><trkpt lat="37.0722896" lon="-1.1432884"><ele>0.0</ele><time>2026-04-29T12:11:37.085Z</time></trkpt><trkpt lat="37.0723384" lon="-1.1431971"><ele>0.0</ele><time>2026-04-29T12:11:38.086Z</time></trkpt><trkpt lat="37.0723897" lon="-1.1431055"><ele>0.0</ele><time>2026-04-29T12:11:39.086Z</time></trkpt><trkpt lat="37.072436" lon="-1.1430109"><ele>0.0</ele><time>2026-04-29T12:11:40.085Z</time></trkpt><trkpt lat="37.0724808" lon="-1.1429243"><ele>0.0</ele><time>2026-04-29T12:11:41.085Z</time></trkpt><trkpt lat="37.0725831" lon="-1.1427492"><ele>0.0</ele><time>2026-04-29T12:11:43.086Z</time></trkpt><trkpt lat="37.0726347" lon="-1.14266"><ele>0.0</ele><time>2026-04-29T12:11:44.085Z</time></trkpt><trkpt lat="37.0726866" lon="-1.1425688"><ele>0.0</ele><time>2026-04-29T12:11:45.085Z</time></trkpt><trkpt lat="37.0727523" lon="-1.1424885"><ele>0.0</ele><time>2026-04-29T12:11:46.086Z</time></trkpt><trkpt lat="37.0728022" lon="-1.1424058"><ele>0.0</ele><time>2026-04-29T12:11:47.085Z</time></trkpt><trkpt lat="37.0728491" lon="-1.1423196"><ele>0.0</ele><time>2026-04-29T12:11:48.086Z</time></trkpt><trkpt lat="37.0728986" lon="-1.1422245"><ele>0.0</ele><time>2026-04-29T12:11:49.086Z</time></trkpt><trkpt lat="37.0729458" lon="-1.1421336"><ele>0.0</ele><time>2026-04-29T12:11:50.085Z</time></trkpt><trkpt lat="37.0729965" lon="-1.142045"><ele>0.0</ele><time>2026-04-29T12:11:51.085Z</time></trkpt><trkpt lat="37.0730411" lon="-1.1419568"><ele>0.0</ele><time>2026-04-29T12:11:52.085Z</time></trkpt><trkpt lat="37.0730901" lon="-1.1418655"><ele>0.0</ele><time>2026-04-29T12:11:53.086Z</time></trkpt><trkpt lat="37.0731372" lon="-1.1417709"><ele>0.0</ele><time>2026-04-29T12:11:54.086Z</time></trkpt><trkpt lat="37.0731837" lon="-1.1416842"><ele>0.0</ele><time>2026-04-29T12:11:55.086Z</time></trkpt><trkpt lat="37.0732331" lon="-1.1415992"><ele>0.0</ele><time>2026-04-29T12:11:56.086Z</time></trkpt><trkpt lat="37.0732804" lon="-1.1415129"><ele>0.0</ele><time>2026-04-29T12:11:57.086Z</time></trkpt><trkpt lat="37.0733285" lon="-1.1414235"><ele>0.0</ele><time>2026-04-29T12:11:58.085Z</time></trkpt><trkpt lat="37.0733741" lon="-1.141339"><ele>0.0</ele><time>2026-04-29T12:11:59.086Z</time></trkpt><trkpt lat="37.0734247" lon="-1.1412544"><ele>0.0</ele><time>2026-04-29T12:12:00.085Z</time></trkpt><trkpt lat="37.0734734" lon="-1.1411638"><ele>0.0</ele><time>2026-04-29T12:12:01.085Z</time></trkpt><trkpt lat="37.0735216" lon="-1.1410806"><ele>0.0</ele><time>2026-04-29T12:12:02.085Z</time></trkpt><trkpt lat="37.0736171" lon="-1.1409064"><ele>0.0</ele><time>2026-04-29T12:12:04.086Z</time></trkpt><trkpt lat="37.0736683" lon="-1.1408169"><ele>0.0</ele><time>2026-04-29T12:12:05.086Z</time></trkpt><trkpt lat="37.0737171" lon="-1.1407279"><ele>0.0</ele><time>2026-04-29T12:12:06.086Z</time></trkpt><trkpt lat="37.0737654" lon="-1.1406416"><ele>0.0</ele><time>2026-04-29T12:12:07.086Z</time></trkpt><trkpt lat="37.0738151" lon="-1.1405522"><ele>0.0</ele><time>2026-04-29T12:12:08.085Z</time></trkpt><trkpt lat="37.073858" lon="-1.1404563"><ele>0.0</ele><time>2026-04-29T12:12:09.085Z</time></trkpt><trkpt lat="37.0739037" lon="-1.140362"><ele>0.0</ele><time>2026-04-29T12:12:10.085Z</time></trkpt><trkpt lat="37.0739518" lon="-1.1402721"><ele>0.0</ele><time>2026-04-29T12:12:11.086Z</time></trkpt><trkpt lat="37.0739972" lon="-1.1401848"><ele>0.0</ele><time>2026-04-29T12:12:12.085Z</time></trkpt><trkpt lat="37.0740482" lon="-1.1400949"><ele>0.0</ele><time>2026-04-29T12:12:13.086Z</time></trkpt><trkpt lat="37.0740985" lon="-1.140008"><ele>0.0</ele><time>2026-04-29T12:12:14.085Z</time></trkpt><trkpt lat="37.074147" lon="-1.1399201"><ele>0.0</ele><time>2026-04-29T12:12:15.085Z</time></trkpt><trkpt lat="37.0741978" lon="-1.1398231"><ele>0.0</ele><time>2026-04-29T12:12:16.086Z</time></trkpt><trkpt lat="37.0742452" lon="-1.1397319"><ele>0.0</ele><time>2026-04-29T12:12:17.086Z</time></trkpt><trkpt lat="37.0742924" lon="-1.1396434"><ele>0.0</ele><time>2026-04-29T12:12:18.085Z</time></trkpt><trkpt lat="37.0743434" lon="-1.1395535"><ele>0.0</ele><time>2026-04-29T12:12:19.086Z</time></trkpt><trkpt lat="37.074392" lon="-1.139469"><ele>0.0</ele><time>2026-04-29T12:12:20.085Z</time></trkpt><trkpt lat="37.0744417" lon="-1.13938"><ele>0.0</ele><time>2026-04-29T12:12:21.086Z</time></trkpt><trkpt lat="37.0744947" lon="-1.1392903"><ele>0.0</ele><time>2026-04-29T12:12:22.085Z</time></trkpt><trkpt lat="37.0745594" lon="-1.1392033"><ele>0.0</ele><time>2026-04-29T12:12:23.085Z</time></trkpt><trkpt lat="37.0746636" lon="-1.1390296"><ele>0.0</ele><time>2026-04-29T12:12:25.085Z</time></trkpt><trkpt lat="37.0747191" lon="-1.1389445"><ele>0.0</ele><time>2026-04-29T12:12:26.085Z</time></trkpt><trkpt lat="37.0747689" lon="-1.138858"><ele>0.0</ele><time>2026-04-29T12:12:27.085Z</time></trkpt><trkpt lat="37.074816" lon="-1.138763"><ele>0.0</ele><time>2026-04-29T12:12:28.086Z</time></trkpt><trkpt lat="37.0748638" lon="-1.1386723"><ele>0.0</ele><time>2026-04-29T12:12:29.085Z</time></trkpt><trkpt lat="37.074912" lon="-1.1385806"><ele>0.0</ele><time>2026-04-29T12:12:30.086Z</time></trkpt><trkpt lat="37.0749647" lon="-1.1384918"><ele>0.0</ele><time>2026-04-29T12:12:31.086Z</time></trkpt><trkpt lat="37.075021" lon="-1.1384091"><ele>0.0</ele><time>2026-04-29T12:12:32.086Z</time></trkpt><trkpt lat="37.0750776" lon="-1.1383216"><ele>0.0</ele><time>2026-04-29T12:12:33.086Z</time></trkpt><trkpt lat="37.0751369" lon="-1.1382361"><ele>0.0</ele><time>2026-04-29T12:12:34.086Z</time></trkpt><trkpt lat="37.0751897" lon="-1.1381483"><ele>0.0</ele><time>2026-04-29T12:12:35.086Z</time></trkpt><trkpt lat="37.0752373" lon="-1.1380517"><ele>0.0</ele><time>2026-04-29T12:12:36.086Z</time></trkpt><trkpt lat="37.0752854" lon="-1.1379664"><ele>0.0</ele><time>2026-04-29T12:12:37.086Z</time></trkpt><trkpt lat="37.0753368" lon="-1.13788"><ele>0.0</ele><time>2026-04-29T12:12:38.086Z</time></trkpt><trkpt lat="37.075385" lon="-1.1377934"><ele>0.0</ele><time>2026-04-29T12:12:39.086Z</time></trkpt><trkpt lat="37.0754332" lon="-1.1377064"><ele>0.0</ele><time>2026-04-29T12:12:40.086Z</time></trkpt><trkpt lat="37.0754835" lon="-1.1376183"><ele>0.0</ele><time>2026-04-29T12:12:41.086Z</time></trkpt><trkpt lat="37.0755337" lon="-1.1375344"><ele>0.0</ele><time>2026-04-29T12:12:42.085Z</time></trkpt><trkpt lat="37.0755853" lon="-1.1374498"><ele>0.0</ele><time>2026-04-29T12:12:43.086Z</time></trkpt><trkpt lat="37.0756367" lon="-1.1373601"><ele>0.0</ele><time>2026-04-29T12:12:44.085Z</time></trkpt><trkpt lat="37.0757435" lon="-1.1371754"><ele>0.0</ele><time>2026-04-29T12:12:46.085Z</time></trkpt><trkpt lat="37.0757935" lon="-1.1370911"><ele>0.0</ele><time>2026-04-29T12:12:47.085Z</time></trkpt><trkpt lat="37.075845" lon="-1.1370065"><ele>0.0</ele><time>2026-04-29T12:12:48.086Z</time></trkpt><trkpt lat="37.0758952" lon="-1.1369155"><ele>0.0</ele><time>2026-04-29T12:12:49.086Z</time></trkpt><trkpt lat="37.0759421" lon="-1.1368282"><ele>0.0</ele><time>2026-04-29T12:12:50.086Z</time></trkpt><trkpt lat="37.0759903" lon="-1.1367426"><ele>0.0</ele><time>2026-04-29T12:12:51.085Z</time></trkpt><trkpt lat="37.0760401" lon="-1.1366551"><ele>0.0</ele><time>2026-04-29T12:12:52.085Z</time></trkpt><trkpt lat="37.0760888" lon="-1.1365681"><ele>0.0</ele><time>2026-04-29T12:12:53.085Z</time></trkpt><trkpt lat="37.0761415" lon="-1.1364803"><ele>0.0</ele><time>2026-04-29T12:12:54.085Z</time></trkpt><trkpt lat="37.0761934" lon="-1.1363933"><ele>0.0</ele><time>2026-04-29T12:12:55.085Z</time></trkpt><trkpt lat="37.0762423" lon="-1.136308"><ele>0.0</ele><time>2026-04-29T12:12:56.086Z</time></trkpt><trkpt lat="37.0762904" lon="-1.1362216"><ele>0.0</ele><time>2026-04-29T12:12:57.085Z</time></trkpt><trkpt lat="37.0763404" lon="-1.1361318"><ele>0.0</ele><time>2026-04-29T12:12:58.086Z</time></trkpt><trkpt lat="37.0763902" lon="-1.1360434"><ele>0.0</ele><time>2026-04-29T12:12:59.086Z</time></trkpt><trkpt lat="37.0764384" lon="-1.1359552"><ele>0.0</ele><time>2026-04-29T12:13:00.085Z</time></trkpt><trkpt lat="37.0764915" lon="-1.135866"><ele>0.0</ele><time>2026-04-29T12:13:01.085Z</time></trkpt><trkpt lat="37.0765434" lon="-1.1357757"><ele>0.0</ele><time>2026-04-29T12:13:02.086Z</time></trkpt><trkpt lat="37.0765951" lon="-1.135687"><ele>0.0</ele><time>2026-04-29T12:13:03.085Z</time></trkpt><trkpt lat="37.0766454" lon="-1.1356"><ele>0.0</ele><time>2026-04-29T12:13:04.086Z</time></trkpt><trkpt lat="37.0766966" lon="-1.1355104"><ele>0.0</ele><time>2026-04-29T12:13:05.086Z</time></trkpt><trkpt lat="37.0767968" lon="-1.1353335"><ele>0.0</ele><time>2026-04-29T12:13:07.085Z</time></trkpt><trkpt lat="37.0768469" lon="-1.135245"><ele>0.0</ele><time>2026-04-29T12:13:08.086Z</time></trkpt><trkpt lat="37.0768971" lon="-1.1351554"><ele>0.0</ele><time>2026-04-29T12:13:09.086Z</time></trkpt><trkpt lat="37.0769497" lon="-1.1350639"><ele>0.0</ele><time>2026-04-29T12:13:10.085Z</time></trkpt><trkpt lat="37.0770016" lon="-1.1349737"><ele>0.0</ele><time>2026-04-29T12:13:11.086Z</time></trkpt><trkpt lat="37.0770517" lon="-1.1348849"><ele>0.0</ele><time>2026-04-29T12:13:12.085Z</time></trkpt><trkpt lat="37.0771033" lon="-1.1347924"><ele>0.0</ele><time>2026-04-29T12:13:13.085Z</time></trkpt><trkpt lat="37.0771507" lon="-1.134709"><ele>0.0</ele><time>2026-04-29T12:13:14.085Z</time></trkpt><trkpt lat="37.0771972" lon="-1.1346229"><ele>0.0</ele><time>2026-04-29T12:13:15.085Z</time></trkpt><trkpt lat="37.0772471" lon="-1.1345379"><ele>0.0</ele><time>2026-04-29T12:13:16.086Z</time></trkpt><trkpt lat="37.0772957" lon="-1.1344501"><ele>0.0</ele><time>2026-04-29T12:13:17.085Z</time></trkpt><trkpt lat="37.0773425" lon="-1.134366"><ele>0.0</ele><time>2026-04-29T12:13:18.085Z</time></trkpt><trkpt lat="37.0773889" lon="-1.1342781"><ele>0.0</ele><time>2026-04-29T12:13:19.085Z</time></trkpt><trkpt lat="37.0774358" lon="-1.1341946"><ele>0.0</ele><time>2026-04-29T12:13:20.085Z</time></trkpt><trkpt lat="37.0774857" lon="-1.1340971"><ele>0.0</ele><time>2026-04-29T12:13:21.086Z</time></trkpt><trkpt lat="37.0775324" lon="-1.1340058"><ele>0.0</ele><time>2026-04-29T12:13:22.086Z</time></trkpt><trkpt lat="37.0775793" lon="-1.1339127"><ele>0.0</ele><time>2026-04-29T12:13:23.085Z</time></trkpt><trkpt lat="37.0776345" lon="-1.1338265"><ele>0.0</ele><time>2026-04-29T12:13:24.085Z</time></trkpt><trkpt lat="37.0776935" lon="-1.1337414"><ele>0.0</ele><time>2026-04-29T12:13:25.086Z</time></trkpt><trkpt lat="37.0777438" lon="-1.1336593"><ele>0.0</ele><time>2026-04-29T12:13:26.086Z</time></trkpt><trkpt lat="37.0778377" lon="-1.1334786"><ele>0.0</ele><time>2026-04-29T12:13:28.086Z</time></trkpt><trkpt lat="37.0778878" lon="-1.1333915"><ele>0.0</ele><time>2026-04-29T12:13:29.086Z</time></trkpt><trkpt lat="37.0779385" lon="-1.1332993"><ele>0.0</ele><time>2026-04-29T12:13:30.085Z</time></trkpt><trkpt lat="37.0779855" lon="-1.1332031"><ele>0.0</ele><time>2026-04-29T12:13:31.086Z</time></trkpt><trkpt lat="37.0780351" lon="-1.1331147"><ele>0.0</ele><time>2026-04-29T12:13:32.085Z</time></trkpt><trkpt lat="37.0780893" lon="-1.1330296"><ele>0.0</ele><time>2026-04-29T12:13:33.086Z</time></trkpt><trkpt lat="37.0781416" lon="-1.1329406"><ele>0.0</ele><time>2026-04-29T12:13:34.085Z</time></trkpt><trkpt lat="37.0781917" lon="-1.1328491"><ele>0.0</ele><time>2026-04-29T12:13:35.086Z</time></trkpt><trkpt lat="37.0782419" lon="-1.132762"><ele>0.0</ele><time>2026-04-29T12:13:36.085Z</time></trkpt><trkpt lat="37.0782904" lon="-1.1326805"><ele>0.0</ele><time>2026-04-29T12:13:37.085Z</time></trkpt><trkpt lat="37.0783387" lon="-1.1325948"><ele>0.0</ele><time>2026-04-29T12:13:38.085Z</time></trkpt><trkpt lat="37.0783853" lon="-1.1325092"><ele>0.0</ele><time>2026-04-29T12:13:39.085Z</time></trkpt><trkpt lat="37.0784306" lon="-1.1324143"><ele>0.0</ele><time>2026-04-29T12:13:40.084Z</time></trkpt><trkpt lat="37.0784728" lon="-1.1323192"><ele>0.0</ele><time>2026-04-29T12:13:41.085Z</time></trkpt><trkpt lat="37.0785204" lon="-1.1322258"><ele>0.0</ele><time>2026-04-29T12:13:42.085Z</time></trkpt><trkpt lat="37.078573" lon="-1.1321381"><ele>0.0</ele><time>2026-04-29T12:13:43.084Z</time></trkpt><trkpt lat="37.0786247" lon="-1.1320512"><ele>0.0</ele><time>2026-04-29T12:13:44.084Z</time></trkpt><trkpt lat="37.0786831" lon="-1.1319659"><ele>0.0</ele><time>2026-04-29T12:13:45.084Z</time></trkpt><trkpt lat="37.0787375" lon="-1.1318793"><ele>0.0</ele><time>2026-04-29T12:13:46.084Z</time></trkpt><trkpt lat="37.0787899" lon="-1.1317918"><ele>0.0</ele><time>2026-04-29T12:13:47.084Z</time></trkpt><trkpt lat="37.0788852" lon="-1.1316195"><ele>0.0</ele><time>2026-04-29T12:13:49.085Z</time></trkpt><trkpt lat="37.0789333" lon="-1.1315319"><ele>0.0</ele><time>2026-04-29T12:13:50.085Z</time></trkpt><trkpt lat="37.0789817" lon="-1.1314422"><ele>0.0</ele><time>2026-04-29T12:13:51.085Z</time></trkpt><trkpt lat="37.0790316" lon="-1.1313534"><ele>0.0</ele><time>2026-04-29T12:13:52.084Z</time></trkpt><trkpt lat="37.0790818" lon="-1.1312666"><ele>0.0</ele><time>2026-04-29T12:13:53.085Z</time></trkpt><trkpt lat="37.079133" lon="-1.1311755"><ele>0.0</ele><time>2026-04-29T12:13:54.085Z</time></trkpt><trkpt lat="37.0791849" lon="-1.1310896"><ele>0.0</ele><time>2026-04-29T12:13:55.084Z</time></trkpt><trkpt lat="37.079235" lon="-1.1310032"><ele>0.0</ele><time>2026-04-29T12:13:56.084Z</time></trkpt><trkpt lat="37.0792854" lon="-1.1309166"><ele>0.0</ele><time>2026-04-29T12:13:57.085Z</time></trkpt><trkpt lat="37.0793364" lon="-1.1308312"><ele>0.0</ele><time>2026-04-29T12:13:58.084Z</time></trkpt><trkpt lat="37.0793881" lon="-1.1307532"><ele>0.0</ele><time>2026-04-29T12:13:59.085Z</time></trkpt><trkpt lat="37.0794483" lon="-1.1306678"><ele>0.0</ele><time>2026-04-29T12:14:00.085Z</time></trkpt><trkpt lat="37.0795082" lon="-1.1305774"><ele>0.0</ele><time>2026-04-29T12:14:01.085Z</time></trkpt><trkpt lat="37.079556" lon="-1.1304888"><ele>0.0</ele><time>2026-04-29T12:14:02.084Z</time></trkpt><trkpt lat="37.0796026" lon="-1.1303987"><ele>0.0</ele><time>2026-04-29T12:14:03.084Z</time></trkpt><trkpt lat="37.0796523" lon="-1.1303143"><ele>0.0</ele><time>2026-04-29T12:14:04.085Z</time></trkpt><trkpt lat="37.0797022" lon="-1.1302238"><ele>0.0</ele><time>2026-04-29T12:14:05.084Z</time></trkpt><trkpt lat="37.079753" lon="-1.1301337"><ele>0.0</ele><time>2026-04-29T12:14:06.084Z</time></trkpt><trkpt lat="37.0797937" lon="-1.1300482"><ele>0.0</ele><time>2026-04-29T12:14:07.085Z</time></trkpt><trkpt lat="37.0798392" lon="-1.1299629"><ele>0.0</ele><time>2026-04-29T12:14:08.084Z</time></trkpt><trkpt lat="37.0799352" lon="-1.1297818"><ele>0.0</ele><time>2026-04-29T12:14:10.085Z</time></trkpt><trkpt lat="37.0799879" lon="-1.1296879"><ele>0.0</ele><time>2026-04-29T12:14:11.084Z</time></trkpt><trkpt lat="37.0800424" lon="-1.1296056"><ele>0.0</ele><time>2026-04-29T12:14:12.085Z</time></trkpt><trkpt lat="37.0800919" lon="-1.1295226"><ele>0.0</ele><time>2026-04-29T12:14:13.084Z</time></trkpt><trkpt lat="37.0801388" lon="-1.1294377"><ele>0.0</ele><time>2026-04-29T12:14:14.084Z</time></trkpt><trkpt lat="37.0801971" lon="-1.1293535"><ele>0.0</ele><time>2026-04-29T12:14:15.085Z</time></trkpt><trkpt lat="37.0802572" lon="-1.1292684"><ele>0.0</ele><time>2026-04-29T12:14:16.085Z</time></trkpt><trkpt lat="37.0803276" lon="-1.1291888"><ele>0.0</ele><time>2026-04-29T12:14:17.085Z</time></trkpt><trkpt lat="37.0803773" lon="-1.1291105"><ele>0.0</ele><time>2026-04-29T12:14:18.085Z</time></trkpt><trkpt lat="37.0804227" lon="-1.1290266"><ele>0.0</ele><time>2026-04-29T12:14:19.085Z</time></trkpt><trkpt lat="37.0804708" lon="-1.1289431"><ele>0.0</ele><time>2026-04-29T12:14:20.084Z</time></trkpt><trkpt lat="37.0805207" lon="-1.12886"><ele>0.0</ele><time>2026-04-29T12:14:21.084Z</time></trkpt><trkpt lat="37.0805705" lon="-1.1287732"><ele>0.0</ele><time>2026-04-29T12:14:22.084Z</time></trkpt><trkpt lat="37.0806233" lon="-1.1286823"><ele>0.0</ele><time>2026-04-29T12:14:23.085Z</time></trkpt><trkpt lat="37.0806766" lon="-1.1285922"><ele>0.0</ele><time>2026-04-29T12:14:24.084Z</time></trkpt><trkpt lat="37.0807284" lon="-1.1285022"><ele>0.0</ele><time>2026-04-29T12:14:25.084Z</time></trkpt><trkpt lat="37.0807773" lon="-1.1284137"><ele>0.0</ele><time>2026-04-29T12:14:26.084Z</time></trkpt><trkpt lat="37.0808254" lon="-1.1283267"><ele>0.0</ele><time>2026-04-29T12:14:27.085Z</time></trkpt><trkpt lat="37.0808793" lon="-1.1282373"><ele>0.0</ele><time>2026-04-29T12:14:28.085Z</time></trkpt><trkpt lat="37.080936" lon="-1.1281429"><ele>0.0</ele><time>2026-04-29T12:14:29.085Z</time></trkpt><trkpt lat="37.0810427" lon="-1.1279568"><ele>0.0</ele><time>2026-04-29T12:14:31.084Z</time></trkpt><trkpt lat="37.0810919" lon="-1.1278668"><ele>0.0</ele><time>2026-04-29T12:14:32.084Z</time></trkpt><trkpt lat="37.0811405" lon="-1.1277839"><ele>0.0</ele><time>2026-04-29T12:14:33.085Z</time></trkpt><trkpt lat="37.081189" lon="-1.1276953"><ele>0.0</ele><time>2026-04-29T12:14:34.084Z</time></trkpt><trkpt lat="37.0812417" lon="-1.1276054"><ele>0.0</ele><time>2026-04-29T12:14:35.084Z</time></trkpt><trkpt lat="37.0812935" lon="-1.1275169"><ele>0.0</ele><time>2026-04-29T12:14:36.084Z</time></trkpt><trkpt lat="37.0813419" lon="-1.1274256"><ele>0.0</ele><time>2026-04-29T12:14:37.085Z</time></trkpt><trkpt lat="37.081389" lon="-1.1273412"><ele>0.0</ele><time>2026-04-29T12:14:38.085Z</time></trkpt><trkpt lat="37.08143" lon="-1.1272634"><ele>0.0</ele><time>2026-04-29T12:14:39.085Z</time></trkpt><trkpt lat="37.0814742" lon="-1.1271821"><ele>0.0</ele><time>2026-04-29T12:14:40.085Z</time></trkpt><trkpt lat="37.0815234" lon="-1.1270877"><ele>0.0</ele><time>2026-04-29T12:14:41.084Z</time></trkpt><trkpt lat="37.0815749" lon="-1.1269929"><ele>0.0</ele><time>2026-04-29T12:14:42.084Z</time></trkpt><trkpt lat="37.0816224" lon="-1.1269007"><ele>0.0</ele><time>2026-04-29T12:14:43.084Z</time></trkpt><trkpt lat="37.0816698" lon="-1.1268045"><ele>0.0</ele><time>2026-04-29T12:14:44.085Z</time></trkpt><trkpt lat="37.0817199" lon="-1.1267124"><ele>0.0</ele><time>2026-04-29T12:14:45.085Z</time></trkpt><trkpt lat="37.0817696" lon="-1.1266206"><ele>0.0</ele><time>2026-04-29T12:14:46.084Z</time></trkpt><trkpt lat="37.0818202" lon="-1.1265317"><ele>0.0</ele><time>2026-04-29T12:14:47.084Z</time></trkpt><trkpt lat="37.0818716" lon="-1.1264434"><ele>0.0</ele><time>2026-04-29T12:14:48.084Z</time></trkpt><trkpt lat="37.081922" lon="-1.1263552"><ele>0.0</ele><time>2026-04-29T12:14:49.084Z</time></trkpt><trkpt lat="37.0819707" lon="-1.1262697"><ele>0.0</ele><time>2026-04-29T12:14:50.084Z</time></trkpt><trkpt lat="37.0820683" lon="-1.1260936"><ele>0.0</ele><time>2026-04-29T12:14:52.084Z</time></trkpt><trkpt lat="37.0821154" lon="-1.1260065"><ele>0.0</ele><time>2026-04-29T12:14:53.084Z</time></trkpt><trkpt lat="37.0821651" lon="-1.1259167"><ele>0.0</ele><time>2026-04-29T12:14:54.085Z</time></trkpt><trkpt lat="37.0822136" lon="-1.1258281"><ele>0.0</ele><time>2026-04-29T12:14:55.085Z</time></trkpt><trkpt lat="37.0822608" lon="-1.1257427"><ele>0.0</ele><time>2026-04-29T12:14:56.084Z</time></trkpt><trkpt lat="37.0823086" lon="-1.1256564"><ele>0.0</ele><time>2026-04-29T12:14:57.084Z</time></trkpt><trkpt lat="37.08236" lon="-1.1255669"><ele>0.0</ele><time>2026-04-29T12:14:58.085Z</time></trkpt><trkpt lat="37.0824103" lon="-1.1254768"><ele>0.0</ele><time>2026-04-29T12:14:59.085Z</time></trkpt><trkpt lat="37.0824602" lon="-1.125387"><ele>0.0</ele><time>2026-04-29T12:15:00.085Z</time></trkpt><trkpt lat="37.08251" lon="-1.1252969"><ele>0.0</ele><time>2026-04-29T12:15:01.084Z</time></trkpt><trkpt lat="37.0825554" lon="-1.1252079"><ele>0.0</ele><time>2026-04-29T12:15:02.085Z</time></trkpt><trkpt lat="37.0826051" lon="-1.1251212"><ele>0.0</ele><time>2026-04-29T12:15:03.084Z</time></trkpt><trkpt lat="37.0826566" lon="-1.1250319"><ele>0.0</ele><time>2026-04-29T12:15:04.085Z</time></trkpt><trkpt lat="37.0827071" lon="-1.1249449"><ele>0.0</ele><time>2026-04-29T12:15:05.085Z</time></trkpt><trkpt lat="37.0827566" lon="-1.1248539"><ele>0.0</ele><time>2026-04-29T12:15:06.085Z</time></trkpt><trkpt lat="37.0828054" lon="-1.1247666"><ele>0.0</ele><time>2026-04-29T12:15:07.085Z</time></trkpt><trkpt lat="37.0828541" lon="-1.1246797"><ele>0.0</ele><time>2026-04-29T12:15:08.085Z</time></trkpt><trkpt lat="37.0829024" lon="-1.1245915"><ele>0.0</ele><time>2026-04-29T12:15:09.084Z</time></trkpt><trkpt lat="37.0829534" lon="-1.1245005"><ele>0.0</ele><time>2026-04-29T12:15:10.085Z</time></trkpt><trkpt lat="37.0830038" lon="-1.1244131"><ele>0.0</ele><time>2026-04-29T12:15:11.084Z</time></trkpt><trkpt lat="37.0831115" lon="-1.1242306"><ele>0.0</ele><time>2026-04-29T12:15:13.085Z</time></trkpt><trkpt lat="37.0831632" lon="-1.1241361"><ele>0.0</ele><time>2026-04-29T12:15:14.084Z</time></trkpt><trkpt lat="37.083209" lon="-1.1240454"><ele>0.0</ele><time>2026-04-29T12:15:15.084Z</time></trkpt><trkpt lat="37.083253" lon="-1.1239596"><ele>0.0</ele><time>2026-04-29T12:15:16.085Z</time></trkpt><trkpt lat="37.0833008" lon="-1.1238677"><ele>0.0</ele><time>2026-04-29T12:15:17.084Z</time></trkpt><trkpt lat="37.0833531" lon="-1.1237743"><ele>0.0</ele><time>2026-04-29T12:15:18.085Z</time></trkpt><trkpt lat="37.083402" lon="-1.1236783"><ele>0.0</ele><time>2026-04-29T12:15:19.085Z</time></trkpt><trkpt lat="37.0834532" lon="-1.1235929"><ele>0.0</ele><time>2026-04-29T12:15:20.085Z</time></trkpt><trkpt lat="37.0835092" lon="-1.123508"><ele>0.0</ele><time>2026-04-29T12:15:21.084Z</time></trkpt><trkpt lat="37.0835602" lon="-1.1234254"><ele>0.0</ele><time>2026-04-29T12:15:22.084Z</time></trkpt><trkpt lat="37.0836072" lon="-1.1233381"><ele>0.0</ele><time>2026-04-29T12:15:23.085Z</time></trkpt><trkpt lat="37.0836536" lon="-1.1232512"><ele>0.0</ele><time>2026-04-29T12:15:24.085Z</time></trkpt><trkpt lat="37.0837016" lon="-1.1231633"><ele>0.0</ele><time>2026-04-29T12:15:25.085Z</time></trkpt><trkpt lat="37.0837501" lon="-1.1230764"><ele>0.0</ele><time>2026-04-29T12:15:26.084Z</time></trkpt><trkpt lat="37.0838013" lon="-1.1229855"><ele>0.0</ele><time>2026-04-29T12:15:27.085Z</time></trkpt><trkpt lat="37.0838529" lon="-1.1228926"><ele>0.0</ele><time>2026-04-29T12:15:28.085Z</time></trkpt><trkpt lat="37.0839033" lon="-1.122805"><ele>0.0</ele><time>2026-04-29T12:15:29.085Z</time></trkpt><trkpt lat="37.0839536" lon="-1.1227156"><ele>0.0</ele><time>2026-04-29T12:15:30.084Z</time></trkpt><trkpt lat="37.0840003" lon="-1.1226284"><ele>0.0</ele><time>2026-04-29T12:15:31.084Z</time></trkpt><trkpt lat="37.0840485" lon="-1.1225416"><ele>0.0</ele><time>2026-04-29T12:15:32.085Z</time></trkpt><trkpt lat="37.0841467" lon="-1.1223652"><ele>0.0</ele><time>2026-04-29T12:15:34.085Z</time></trkpt><trkpt lat="37.0841982" lon="-1.1222767"><ele>0.0</ele><time>2026-04-29T12:15:35.084Z</time></trkpt><trkpt lat="37.0842502" lon="-1.1221898"><ele>0.0</ele><time>2026-04-29T12:15:36.084Z</time></trkpt><trkpt lat="37.0842983" lon="-1.1221028"><ele>0.0</ele><time>2026-04-29T12:15:37.085Z</time></trkpt><trkpt lat="37.0843499" lon="-1.1220136"><ele>0.0</ele><time>2026-04-29T12:15:38.085Z</time></trkpt><trkpt lat="37.0843985" lon="-1.1219265"><ele>0.0</ele><time>2026-04-29T12:15:39.085Z</time></trkpt><trkpt lat="37.0844485" lon="-1.1218397"><ele>0.0</ele><time>2026-04-29T12:15:40.085Z</time></trkpt><trkpt lat="37.0844983" lon="-1.1217501"><ele>0.0</ele><time>2026-04-29T12:15:41.085Z</time></trkpt><trkpt lat="37.0845471" lon="-1.1216645"><ele>0.0</ele><time>2026-04-29T12:15:42.085Z</time></trkpt><trkpt lat="37.0845969" lon="-1.1215781"><ele>0.0</ele><time>2026-04-29T12:15:43.084Z</time></trkpt><trkpt lat="37.0846426" lon="-1.1214944"><ele>0.0</ele><time>2026-04-29T12:15:44.084Z</time></trkpt><trkpt lat="37.0846919" lon="-1.1214081"><ele>0.0</ele><time>2026-04-29T12:15:45.084Z</time></trkpt><trkpt lat="37.0847445" lon="-1.1213146"><ele>0.0</ele><time>2026-04-29T12:15:46.085Z</time></trkpt><trkpt lat="37.0847948" lon="-1.1212237"><ele>0.0</ele><time>2026-04-29T12:15:47.084Z</time></trkpt><trkpt lat="37.0848418" lon="-1.1211323"><ele>0.0</ele><time>2026-04-29T12:15:48.085Z</time></trkpt><trkpt lat="37.0848917" lon="-1.1210437"><ele>0.0</ele><time>2026-04-29T12:15:49.085Z</time></trkpt><trkpt lat="37.0849443" lon="-1.1209622"><ele>0.0</ele><time>2026-04-29T12:15:50.085Z</time></trkpt><trkpt lat="37.0849951" lon="-1.1208725"><ele>0.0</ele><time>2026-04-29T12:15:51.084Z</time></trkpt><trkpt lat="37.0850434" lon="-1.1207793"><ele>0.0</ele><time>2026-04-29T12:15:52.085Z</time></trkpt><trkpt lat="37.0850963" lon="-1.1206916"><ele>0.0</ele><time>2026-04-29T12:15:53.084Z</time></trkpt><trkpt lat="37.0851953" lon="-1.1205183"><ele>0.0</ele><time>2026-04-29T12:15:55.084Z</time></trkpt><trkpt lat="37.0852424" lon="-1.1204358"><ele>0.0</ele><time>2026-04-29T12:15:56.085Z</time></trkpt><trkpt lat="37.0852935" lon="-1.1203484"><ele>0.0</ele><time>2026-04-29T12:15:57.084Z</time></trkpt><trkpt lat="37.0853466" lon="-1.1202573"><ele>0.0</ele><time>2026-04-29T12:15:58.084Z</time></trkpt><trkpt lat="37.0853967" lon="-1.1201655"><ele>0.0</ele><time>2026-04-29T12:15:59.084Z</time></trkpt><trkpt lat="37.0854484" lon="-1.1200756"><ele>0.0</ele><time>2026-04-29T12:16:00.085Z</time></trkpt><trkpt lat="37.0855013" lon="-1.1199826"><ele>0.0</ele><time>2026-04-29T12:16:01.084Z</time></trkpt><trkpt lat="37.0855505" lon="-1.1198906"><ele>0.0</ele><time>2026-04-29T12:16:02.084Z</time></trkpt><trkpt lat="37.0855958" lon="-1.1198073"><ele>0.0</ele><time>2026-04-29T12:16:03.085Z</time></trkpt><trkpt lat="37.0856435" lon="-1.1197215"><ele>0.0</ele><time>2026-04-29T12:16:04.085Z</time></trkpt><trkpt lat="37.0856965" lon="-1.1196335"><ele>0.0</ele><time>2026-04-29T12:16:05.085Z</time></trkpt><trkpt lat="37.0857483" lon="-1.1195464"><ele>0.0</ele><time>2026-04-29T12:16:06.085Z</time></trkpt><trkpt lat="37.0857959" lon="-1.1194655"><ele>0.0</ele><time>2026-04-29T12:16:07.085Z</time></trkpt><trkpt lat="37.085841" lon="-1.1193854"><ele>0.0</ele><time>2026-04-29T12:16:08.085Z</time></trkpt><trkpt lat="37.085893" lon="-1.1192969"><ele>0.0</ele><time>2026-04-29T12:16:09.085Z</time></trkpt><trkpt lat="37.0859476" lon="-1.1192042"><ele>0.0</ele><time>2026-04-29T12:16:10.084Z</time></trkpt><trkpt lat="37.085997" lon="-1.119111"><ele>0.0</ele><time>2026-04-29T12:16:11.085Z</time></trkpt><trkpt lat="37.0860483" lon="-1.119019"><ele>0.0</ele><time>2026-04-29T12:16:12.084Z</time></trkpt><trkpt lat="37.0860999" lon="-1.1189273"><ele>0.0</ele><time>2026-04-29T12:16:13.085Z</time></trkpt><trkpt lat="37.0861516" lon="-1.1188356"><ele>0.0</ele><time>2026-04-29T12:16:14.085Z</time></trkpt><trkpt lat="37.0862525" lon="-1.1186552"><ele>0.0</ele><time>2026-04-29T12:16:16.084Z</time></trkpt><trkpt lat="37.0863033" lon="-1.1185711"><ele>0.0</ele><time>2026-04-29T12:16:17.084Z</time></trkpt><trkpt lat="37.0863534" lon="-1.1184862"><ele>0.0</ele><time>2026-04-29T12:16:18.084Z</time></trkpt><trkpt lat="37.086405" lon="-1.1183944"><ele>0.0</ele><time>2026-04-29T12:16:19.084Z</time></trkpt><trkpt lat="37.086458" lon="-1.1183024"><ele>0.0</ele><time>2026-04-29T12:16:20.085Z</time></trkpt><trkpt lat="37.0865058" lon="-1.1182118"><ele>0.0</ele><time>2026-04-29T12:16:21.085Z</time></trkpt><trkpt lat="37.0865522" lon="-1.118122"><ele>0.0</ele><time>2026-04-29T12:16:22.084Z</time></trkpt><trkpt lat="37.0866002" lon="-1.1180334"><ele>0.0</ele><time>2026-04-29T12:16:23.085Z</time></trkpt><trkpt lat="37.0866485" lon="-1.117945"><ele>0.0</ele><time>2026-04-29T12:16:24.084Z</time></trkpt><trkpt lat="37.0867" lon="-1.1178567"><ele>0.0</ele><time>2026-04-29T12:16:25.085Z</time></trkpt><trkpt lat="37.0867504" lon="-1.1177699"><ele>0.0</ele><time>2026-04-29T12:16:26.085Z</time></trkpt><trkpt lat="37.0868002" lon="-1.1176818"><ele>0.0</ele><time>2026-04-29T12:16:27.085Z</time></trkpt><trkpt lat="37.0868515" lon="-1.1175922"><ele>0.0</ele><time>2026-04-29T12:16:28.084Z</time></trkpt><trkpt lat="37.0869033" lon="-1.1175033"><ele>0.0</ele><time>2026-04-29T12:16:29.084Z</time></trkpt><trkpt lat="37.0869567" lon="-1.1174168"><ele>0.0</ele><time>2026-04-29T12:16:30.084Z</time></trkpt><trkpt lat="37.08701" lon="-1.1173316"><ele>0.0</ele><time>2026-04-29T12:16:31.085Z</time></trkpt><trkpt lat="37.0870589" lon="-1.1172464"><ele>0.0</ele><time>2026-04-29T12:16:32.084Z</time></trkpt><trkpt lat="37.087113" lon="-1.1171585"><ele>0.0</ele><time>2026-04-29T12:16:33.085Z</time></trkpt><trkpt lat="37.0871635" lon="-1.1170685"><ele>0.0</ele><time>2026-04-29T12:16:34.084Z</time></trkpt><trkpt lat="37.0872153" lon="-1.1169832"><ele>0.0</ele><time>2026-04-29T12:16:35.085Z</time></trkpt><trkpt lat="37.0873141" lon="-1.1168094"><ele>0.0</ele><time>2026-04-29T12:16:37.085Z</time></trkpt><trkpt lat="37.0873635" lon="-1.1167189"><ele>0.0</ele><time>2026-04-29T12:16:38.085Z</time></trkpt><trkpt lat="37.0874121" lon="-1.1166288"><ele>0.0</ele><time>2026-04-29T12:16:39.085Z</time></trkpt><trkpt lat="37.087462" lon="-1.11654"><ele>0.0</ele><time>2026-04-29T12:16:40.084Z</time></trkpt><trkpt lat="37.0875106" lon="-1.1164516"><ele>0.0</ele><time>2026-04-29T12:16:41.084Z</time></trkpt><trkpt lat="37.0875618" lon="-1.1163636"><ele>0.0</ele><time>2026-04-29T12:16:42.084Z</time></trkpt><trkpt lat="37.0876134" lon="-1.1162767"><ele>0.0</ele><time>2026-04-29T12:16:43.085Z</time></trkpt><trkpt lat="37.0876651" lon="-1.116189"><ele>0.0</ele><time>2026-04-29T12:16:44.085Z</time></trkpt><trkpt lat="37.0877167" lon="-1.1160987"><ele>0.0</ele><time>2026-04-29T12:16:45.084Z</time></trkpt><trkpt lat="37.0877654" lon="-1.1160101"><ele>0.0</ele><time>2026-04-29T12:16:46.085Z</time></trkpt><trkpt lat="37.0878153" lon="-1.1159216"><ele>0.0</ele><time>2026-04-29T12:16:47.085Z</time></trkpt><trkpt lat="37.0878652" lon="-1.1158349"><ele>0.0</ele><time>2026-04-29T12:16:48.084Z</time></trkpt><trkpt lat="37.0879168" lon="-1.115747"><ele>0.0</ele><time>2026-04-29T12:16:49.085Z</time></trkpt><trkpt lat="37.0879671" lon="-1.1156614"><ele>0.0</ele><time>2026-04-29T12:16:50.085Z</time></trkpt><trkpt lat="37.088017" lon="-1.1155732"><ele>0.0</ele><time>2026-04-29T12:16:51.084Z</time></trkpt><trkpt lat="37.0880669" lon="-1.1154864"><ele>0.0</ele><time>2026-04-29T12:16:52.084Z</time></trkpt><trkpt lat="37.0881139" lon="-1.1154014"><ele>0.0</ele><time>2026-04-29T12:16:53.084Z</time></trkpt><trkpt lat="37.0881676" lon="-1.1153123"><ele>0.0</ele><time>2026-04-29T12:16:54.084Z</time></trkpt><trkpt lat="37.0882251" lon="-1.115218"><ele>0.0</ele><time>2026-04-29T12:16:55.084Z</time></trkpt><trkpt lat="37.0882793" lon="-1.1151287"><ele>0.0</ele><time>2026-04-29T12:16:56.085Z</time></trkpt><trkpt lat="37.0883737" lon="-1.1149627"><ele>0.0</ele><time>2026-04-29T12:16:58.084Z</time></trkpt><trkpt lat="37.0884235" lon="-1.1148749"><ele>0.0</ele><time>2026-04-29T12:16:59.084Z</time></trkpt><trkpt lat="37.088472" lon="-1.1147879"><ele>0.0</ele><time>2026-04-29T12:17:00.085Z</time></trkpt><trkpt lat="37.0885219" lon="-1.1147014"><ele>0.0</ele><time>2026-04-29T12:17:01.085Z</time></trkpt><trkpt lat="37.0885746" lon="-1.1146163"><ele>0.0</ele><time>2026-04-29T12:17:02.084Z</time></trkpt><trkpt lat="37.0886306" lon="-1.114531"><ele>0.0</ele><time>2026-04-29T12:17:03.085Z</time></trkpt><trkpt lat="37.0886832" lon="-1.114449"><ele>0.0</ele><time>2026-04-29T12:17:04.085Z</time></trkpt><trkpt lat="37.0887362" lon="-1.1143659"><ele>0.0</ele><time>2026-04-29T12:17:05.084Z</time></trkpt><trkpt lat="37.0887911" lon="-1.1142711"><ele>0.0</ele><time>2026-04-29T12:17:06.085Z</time></trkpt><trkpt lat="37.088849" lon="-1.1141819"><ele>0.0</ele><time>2026-04-29T12:17:07.084Z</time></trkpt><trkpt lat="37.0889044" lon="-1.1140909"><ele>0.0</ele><time>2026-04-29T12:17:08.084Z</time></trkpt><trkpt lat="37.0889567" lon="-1.1140006"><ele>0.0</ele><time>2026-04-29T12:17:09.085Z</time></trkpt><trkpt lat="37.0890095" lon="-1.113913"><ele>0.0</ele><time>2026-04-29T12:17:10.085Z</time></trkpt><trkpt lat="37.0890643" lon="-1.1138278"><ele>0.0</ele><time>2026-04-29T12:17:11.085Z</time></trkpt><trkpt lat="37.0891167" lon="-1.1137428"><ele>0.0</ele><time>2026-04-29T12:17:12.084Z</time></trkpt><trkpt lat="37.0891641" lon="-1.113658"><ele>0.0</ele><time>2026-04-29T12:17:13.085Z</time></trkpt><trkpt lat="37.089205" lon="-1.1135745"><ele>0.0</ele><time>2026-04-29T12:17:14.085Z</time></trkpt><trkpt lat="37.0892527" lon="-1.1134871"><ele>0.0</ele><time>2026-04-29T12:17:15.085Z</time></trkpt><trkpt lat="37.089302" lon="-1.1133985"><ele>0.0</ele><time>2026-04-29T12:17:16.084Z</time></trkpt><trkpt lat="37.0893532" lon="-1.1133086"><ele>0.0</ele><time>2026-04-29T12:17:17.085Z</time></trkpt><trkpt lat="37.0894517" lon="-1.1131303"><ele>0.0</ele><time>2026-04-29T12:17:19.085Z</time></trkpt><trkpt lat="37.0894973" lon="-1.1130415"><ele>0.0</ele><time>2026-04-29T12:17:20.084Z</time></trkpt><trkpt lat="37.0895438" lon="-1.1129547"><ele>0.0</ele><time>2026-04-29T12:17:21.085Z</time></trkpt><trkpt lat="37.089595" lon="-1.1128624"><ele>0.0</ele><time>2026-04-29T12:17:22.084Z</time></trkpt><trkpt lat="37.0896449" lon="-1.1127693"><ele>0.0</ele><time>2026-04-29T12:17:23.084Z</time></trkpt><trkpt lat="37.0897005" lon="-1.1126787"><ele>0.0</ele><time>2026-04-29T12:17:24.084Z</time></trkpt><trkpt lat="37.089753" lon="-1.1125887"><ele>0.0</ele><time>2026-04-29T12:17:25.084Z</time></trkpt><trkpt lat="37.0897991" lon="-1.1124988"><ele>0.0</ele><time>2026-04-29T12:17:26.084Z</time></trkpt><trkpt lat="37.0898457" lon="-1.1124075"><ele>0.0</ele><time>2026-04-29T12:17:27.085Z</time></trkpt><trkpt lat="37.089895" lon="-1.1123171"><ele>0.0</ele><time>2026-04-29T12:17:28.085Z</time></trkpt><trkpt lat="37.0899449" lon="-1.1122228"><ele>0.0</ele><time>2026-04-29T12:17:29.084Z</time></trkpt><trkpt lat="37.089994" lon="-1.112135"><ele>0.0</ele><time>2026-04-29T12:17:30.084Z</time></trkpt><trkpt lat="37.0900389" lon="-1.1120465"><ele>0.0</ele><time>2026-04-29T12:17:31.084Z</time></trkpt><trkpt lat="37.0900896" lon="-1.1119651"><ele>0.0</ele><time>2026-04-29T12:17:32.085Z</time></trkpt><trkpt lat="37.0901413" lon="-1.1118878"><ele>0.0</ele><time>2026-04-29T12:17:33.084Z</time></trkpt><trkpt lat="37.0901943" lon="-1.1118085"><ele>0.0</ele><time>2026-04-29T12:17:34.085Z</time></trkpt><trkpt lat="37.0902452" lon="-1.1117189"><ele>0.0</ele><time>2026-04-29T12:17:35.084Z</time></trkpt><trkpt lat="37.0902979" lon="-1.1116345"><ele>0.0</ele><time>2026-04-29T12:17:36.085Z</time></trkpt><trkpt lat="37.090351" lon="-1.1115451"><ele>0.0</ele><time>2026-04-29T12:17:37.085Z</time></trkpt><trkpt lat="37.0903973" lon="-1.1114609"><ele>0.0</ele><time>2026-04-29T12:17:38.084Z</time></trkpt><trkpt lat="37.0904938" lon="-1.1112883"><ele>0.0</ele><time>2026-04-29T12:17:40.085Z</time></trkpt><trkpt lat="37.0905453" lon="-1.1111972"><ele>0.0</ele><time>2026-04-29T12:17:41.084Z</time></trkpt><trkpt lat="37.090591" lon="-1.1111029"><ele>0.0</ele><time>2026-04-29T12:17:42.085Z</time></trkpt><trkpt lat="37.0906376" lon="-1.1110238"><ele>0.0</ele><time>2026-04-29T12:17:43.085Z</time></trkpt><trkpt lat="37.0906884" lon="-1.1109369"><ele>0.0</ele><time>2026-04-29T12:17:44.084Z</time></trkpt><trkpt lat="37.0907383" lon="-1.1108516"><ele>0.0</ele><time>2026-04-29T12:17:45.085Z</time></trkpt><trkpt lat="37.0907916" lon="-1.1107681"><ele>0.0</ele><time>2026-04-29T12:17:46.085Z</time></trkpt><trkpt lat="37.0908478" lon="-1.1106776"><ele>0.0</ele><time>2026-04-29T12:17:47.085Z</time></trkpt><trkpt lat="37.0909" lon="-1.1105901"><ele>0.0</ele><time>2026-04-29T12:17:48.085Z</time></trkpt><trkpt lat="37.0909515" lon="-1.110502"><ele>0.0</ele><time>2026-04-29T12:17:49.084Z</time></trkpt><trkpt lat="37.0910048" lon="-1.1104136"><ele>0.0</ele><time>2026-04-29T12:17:50.084Z</time></trkpt><trkpt lat="37.0910551" lon="-1.1103251"><ele>0.0</ele><time>2026-04-29T12:17:51.084Z</time></trkpt><trkpt lat="37.0911096" lon="-1.1102355"><ele>0.0</ele><time>2026-04-29T12:17:52.084Z</time></trkpt><trkpt lat="37.0911617" lon="-1.110147"><ele>0.0</ele><time>2026-04-29T12:17:53.085Z</time></trkpt><trkpt lat="37.0912104" lon="-1.1100557"><ele>0.0</ele><time>2026-04-29T12:17:54.084Z</time></trkpt><trkpt lat="37.0912585" lon="-1.1099654"><ele>0.0</ele><time>2026-04-29T12:17:55.084Z</time></trkpt><trkpt lat="37.0913138" lon="-1.1098749"><ele>0.0</ele><time>2026-04-29T12:17:56.084Z</time></trkpt><trkpt lat="37.0913609" lon="-1.1097878"><ele>0.0</ele><time>2026-04-29T12:17:57.084Z</time></trkpt><trkpt lat="37.0914117" lon="-1.1096967"><ele>0.0</ele><time>2026-04-29T12:17:58.084Z</time></trkpt><trkpt lat="37.0914561" lon="-1.1096123"><ele>0.0</ele><time>2026-04-29T12:17:59.085Z</time></trkpt><trkpt lat="37.091555" lon="-1.1094341"><ele>0.0</ele><time>2026-04-29T12:18:01.084Z</time></trkpt><trkpt lat="37.0915994" lon="-1.1093355"><ele>0.0</ele><time>2026-04-29T12:18:02.085Z</time></trkpt><trkpt lat="37.0916527" lon="-1.1092438"><ele>0.0</ele><time>2026-04-29T12:18:03.085Z</time></trkpt><trkpt lat="37.0917006" lon="-1.1091536"><ele>0.0</ele><time>2026-04-29T12:18:04.085Z</time></trkpt><trkpt lat="37.0917486" lon="-1.1090621"><ele>0.0</ele><time>2026-04-29T12:18:05.085Z</time></trkpt><trkpt lat="37.0917958" lon="-1.1089748"><ele>0.0</ele><time>2026-04-29T12:18:06.085Z</time></trkpt><trkpt lat="37.0918424" lon="-1.1088859"><ele>0.0</ele><time>2026-04-29T12:18:07.085Z</time></trkpt><trkpt lat="37.0918879" lon="-1.1087942"><ele>0.0</ele><time>2026-04-29T12:18:08.085Z</time></trkpt><trkpt lat="37.0919371" lon="-1.108708"><ele>0.0</ele><time>2026-04-29T12:18:09.084Z</time></trkpt><trkpt lat="37.0919853" lon="-1.1086217"><ele>0.0</ele><time>2026-04-29T12:18:10.085Z</time></trkpt><trkpt lat="37.0920337" lon="-1.1085279"><ele>0.0</ele><time>2026-04-29T12:18:11.085Z</time></trkpt><trkpt lat="37.0920793" lon="-1.1084358"><ele>0.0</ele><time>2026-04-29T12:18:12.085Z</time></trkpt><trkpt lat="37.0921273" lon="-1.1083481"><ele>0.0</ele><time>2026-04-29T12:18:13.085Z</time></trkpt><trkpt lat="37.0921768" lon="-1.1082598"><ele>0.0</ele><time>2026-04-29T12:18:14.085Z</time></trkpt><trkpt lat="37.0922166" lon="-1.1081757"><ele>0.0</ele><time>2026-04-29T12:18:15.084Z</time></trkpt><trkpt lat="37.0922669" lon="-1.1080853"><ele>0.0</ele><time>2026-04-29T12:18:16.085Z</time></trkpt><trkpt lat="37.092321" lon="-1.1079983"><ele>0.0</ele><time>2026-04-29T12:18:17.085Z</time></trkpt><trkpt lat="37.0923745" lon="-1.1079074"><ele>0.0</ele><time>2026-04-29T12:18:18.084Z</time></trkpt><trkpt lat="37.0924208" lon="-1.1078214"><ele>0.0</ele><time>2026-04-29T12:18:19.085Z</time></trkpt><trkpt lat="37.0924715" lon="-1.1077389"><ele>0.0</ele><time>2026-04-29T12:18:20.084Z</time></trkpt><trkpt lat="37.0925741" lon="-1.1075652"><ele>0.0</ele><time>2026-04-29T12:18:22.085Z</time></trkpt><trkpt lat="37.0926293" lon="-1.1074729"><ele>0.0</ele><time>2026-04-29T12:18:23.084Z</time></trkpt><trkpt lat="37.0926828" lon="-1.1073836"><ele>0.0</ele><time>2026-04-29T12:18:24.085Z</time></trkpt><trkpt lat="37.0927348" lon="-1.1072965"><ele>0.0</ele><time>2026-04-29T12:18:25.084Z</time></trkpt><trkpt lat="37.0927879" lon="-1.1072056"><ele>0.0</ele><time>2026-04-29T12:18:26.084Z</time></trkpt><trkpt lat="37.0928432" lon="-1.1071215"><ele>0.0</ele><time>2026-04-29T12:18:27.085Z</time></trkpt><trkpt lat="37.0928994" lon="-1.107038"><ele>0.0</ele><time>2026-04-29T12:18:28.084Z</time></trkpt><trkpt lat="37.0929529" lon="-1.1069499"><ele>0.0</ele><time>2026-04-29T12:18:29.084Z</time></trkpt><trkpt lat="37.0930053" lon="-1.1068578"><ele>0.0</ele><time>2026-04-29T12:18:30.084Z</time></trkpt><trkpt lat="37.0930567" lon="-1.1067713"><ele>0.0</ele><time>2026-04-29T12:18:31.084Z</time></trkpt><trkpt lat="37.0931098" lon="-1.1066873"><ele>0.0</ele><time>2026-04-29T12:18:32.084Z</time></trkpt><trkpt lat="37.0931615" lon="-1.1066032"><ele>0.0</ele><time>2026-04-29T12:18:33.085Z</time></trkpt><trkpt lat="37.0932118" lon="-1.1065123"><ele>0.0</ele><time>2026-04-29T12:18:34.085Z</time></trkpt><trkpt lat="37.0932646" lon="-1.1064207"><ele>0.0</ele><time>2026-04-29T12:18:35.085Z</time></trkpt><trkpt lat="37.0933238" lon="-1.1063342"><ele>0.0</ele><time>2026-04-29T12:18:36.085Z</time></trkpt><trkpt lat="37.0933766" lon="-1.1062434"><ele>0.0</ele><time>2026-04-29T12:18:37.084Z</time></trkpt><trkpt lat="37.0934237" lon="-1.1061578"><ele>0.0</ele><time>2026-04-29T12:18:38.084Z</time></trkpt><trkpt lat="37.0934722" lon="-1.1060727"><ele>0.0</ele><time>2026-04-29T12:18:39.084Z</time></trkpt><trkpt lat="37.0935217" lon="-1.1059849"><ele>0.0</ele><time>2026-04-29T12:18:40.084Z</time></trkpt><trkpt lat="37.0935776" lon="-1.105897"><ele>0.0</ele><time>2026-04-29T12:18:41.085Z</time></trkpt><trkpt lat="37.0936641" lon="-1.105725"><ele>0.0</ele><time>2026-04-29T12:18:43.084Z</time></trkpt><trkpt lat="37.0937134" lon="-1.1056426"><ele>0.0</ele><time>2026-04-29T12:18:44.085Z</time></trkpt><trkpt lat="37.0937706" lon="-1.1055464"><ele>0.0</ele><time>2026-04-29T12:18:45.084Z</time></trkpt><trkpt lat="37.0938202" lon="-1.1054598"><ele>0.0</ele><time>2026-04-29T12:18:46.084Z</time></trkpt><trkpt lat="37.0938763" lon="-1.1053762"><ele>0.0</ele><time>2026-04-29T12:18:47.084Z</time></trkpt><trkpt lat="37.0939281" lon="-1.1052856"><ele>0.0</ele><time>2026-04-29T12:18:48.085Z</time></trkpt><trkpt lat="37.0939782" lon="-1.105191"><ele>0.0</ele><time>2026-04-29T12:18:49.085Z</time></trkpt><trkpt lat="37.0940313" lon="-1.1050948"><ele>0.0</ele><time>2026-04-29T12:18:50.085Z</time></trkpt><trkpt lat="37.0940774" lon="-1.1050023"><ele>0.0</ele><time>2026-04-29T12:18:51.084Z</time></trkpt><trkpt lat="37.0941153" lon="-1.104923"><ele>0.0</ele><time>2026-04-29T12:18:52.083Z</time></trkpt><trkpt lat="37.0941619" lon="-1.104839"><ele>0.0</ele><time>2026-04-29T12:18:53.084Z</time></trkpt><trkpt lat="37.0942071" lon="-1.1047511"><ele>0.0</ele><time>2026-04-29T12:18:54.083Z</time></trkpt><trkpt lat="37.0942511" lon="-1.1046618"><ele>0.0</ele><time>2026-04-29T12:18:55.084Z</time></trkpt><trkpt lat="37.0943" lon="-1.1045678"><ele>0.0</ele><time>2026-04-29T12:18:56.083Z</time></trkpt><trkpt lat="37.0943431" lon="-1.1044773"><ele>0.0</ele><time>2026-04-29T12:18:57.084Z</time></trkpt><trkpt lat="37.0943921" lon="-1.104387"><ele>0.0</ele><time>2026-04-29T12:18:58.083Z</time></trkpt><trkpt lat="37.0944405" lon="-1.1042999"><ele>0.0</ele><time>2026-04-29T12:18:59.084Z</time></trkpt><trkpt lat="37.0944872" lon="-1.1042116"><ele>0.0</ele><time>2026-04-29T12:19:00.084Z</time></trkpt><trkpt lat="37.0945452" lon="-1.1041261"><ele>0.0</ele><time>2026-04-29T12:19:01.084Z</time></trkpt><trkpt lat="37.0945974" lon="-1.1040382"><ele>0.0</ele><time>2026-04-29T12:19:02.083Z</time></trkpt><trkpt lat="37.0947018" lon="-1.1038678"><ele>0.0</ele><time>2026-04-29T12:19:04.083Z</time></trkpt><trkpt lat="37.0947531" lon="-1.1037815"><ele>0.0</ele><time>2026-04-29T12:19:05.083Z</time></trkpt><trkpt lat="37.094799" lon="-1.1036919"><ele>0.0</ele><time>2026-04-29T12:19:06.084Z</time></trkpt><trkpt lat="37.0948488" lon="-1.1036064"><ele>0.0</ele><time>2026-04-29T12:19:07.083Z</time></trkpt><trkpt lat="37.0949013" lon="-1.1035157"><ele>0.0</ele><time>2026-04-29T12:19:08.083Z</time></trkpt><trkpt lat="37.0949572" lon="-1.1034225"><ele>0.0</ele><time>2026-04-29T12:19:09.084Z</time></trkpt><trkpt lat="37.0950129" lon="-1.1033325"><ele>0.0</ele><time>2026-04-29T12:19:10.084Z</time></trkpt><trkpt lat="37.0950651" lon="-1.1032482"><ele>0.0</ele><time>2026-04-29T12:19:11.083Z</time></trkpt><trkpt lat="37.0951123" lon="-1.1031672"><ele>0.0</ele><time>2026-04-29T12:19:12.084Z</time></trkpt><trkpt lat="37.0951621" lon="-1.1030828"><ele>0.0</ele><time>2026-04-29T12:19:13.084Z</time></trkpt><trkpt lat="37.0952119" lon="-1.1029979"><ele>0.0</ele><time>2026-04-29T12:19:14.083Z</time></trkpt><trkpt lat="37.0952548" lon="-1.1029161"><ele>0.0</ele><time>2026-04-29T12:19:15.083Z</time></trkpt><trkpt lat="37.0953067" lon="-1.1028215"><ele>0.0</ele><time>2026-04-29T12:19:16.083Z</time></trkpt><trkpt lat="37.0953599" lon="-1.1027293"><ele>0.0</ele><time>2026-04-29T12:19:17.083Z</time></trkpt><trkpt lat="37.0954091" lon="-1.1026401"><ele>0.0</ele><time>2026-04-29T12:19:18.083Z</time></trkpt><trkpt lat="37.0954618" lon="-1.102553"><ele>0.0</ele><time>2026-04-29T12:19:19.084Z</time></trkpt><trkpt lat="37.0955168" lon="-1.1024653"><ele>0.0</ele><time>2026-04-29T12:19:20.084Z</time></trkpt><trkpt lat="37.0955612" lon="-1.1023741"><ele>0.0</ele><time>2026-04-29T12:19:21.083Z</time></trkpt><trkpt lat="37.0956106" lon="-1.1022852"><ele>0.0</ele><time>2026-04-29T12:19:22.083Z</time></trkpt><trkpt lat="37.0956618" lon="-1.1021984"><ele>0.0</ele><time>2026-04-29T12:19:23.083Z</time></trkpt><trkpt lat="37.0957625" lon="-1.1020249"><ele>0.0</ele><time>2026-04-29T12:19:25.083Z</time></trkpt><trkpt lat="37.0958125" lon="-1.1019397"><ele>0.0</ele><time>2026-04-29T12:19:26.083Z</time></trkpt><trkpt lat="37.0958635" lon="-1.1018533"><ele>0.0</ele><time>2026-04-29T12:19:27.083Z</time></trkpt><trkpt lat="37.0959178" lon="-1.1017658"><ele>0.0</ele><time>2026-04-29T12:19:28.084Z</time></trkpt><trkpt lat="37.095974" lon="-1.1016728"><ele>0.0</ele><time>2026-04-29T12:19:29.084Z</time></trkpt><trkpt lat="37.0960253" lon="-1.1015835"><ele>0.0</ele><time>2026-04-29T12:19:30.083Z</time></trkpt><trkpt lat="37.096077" lon="-1.1014992"><ele>0.0</ele><time>2026-04-29T12:19:31.084Z</time></trkpt><trkpt lat="37.0961258" lon="-1.101419"><ele>0.0</ele><time>2026-04-29T12:19:32.083Z</time></trkpt><trkpt lat="37.0961736" lon="-1.1013328"><ele>0.0</ele><time>2026-04-29T12:19:33.084Z</time></trkpt><trkpt lat="37.0962318" lon="-1.1012363"><ele>0.0</ele><time>2026-04-29T12:19:34.084Z</time></trkpt><trkpt lat="37.0962835" lon="-1.1011483"><ele>0.0</ele><time>2026-04-29T12:19:35.084Z</time></trkpt><trkpt lat="37.0963347" lon="-1.1010572"><ele>0.0</ele><time>2026-04-29T12:19:36.084Z</time></trkpt><trkpt lat="37.0963881" lon="-1.1009686"><ele>0.0</ele><time>2026-04-29T12:19:37.083Z</time></trkpt><trkpt lat="37.0964444" lon="-1.100882"><ele>0.0</ele><time>2026-04-29T12:19:38.084Z</time></trkpt><trkpt lat="37.0964951" lon="-1.100792"><ele>0.0</ele><time>2026-04-29T12:19:39.083Z</time></trkpt><trkpt lat="37.0965468" lon="-1.1007064"><ele>0.0</ele><time>2026-04-29T12:19:40.083Z</time></trkpt><trkpt lat="37.0965968" lon="-1.1006172"><ele>0.0</ele><time>2026-04-29T12:19:41.083Z</time></trkpt><trkpt lat="37.0966437" lon="-1.1005314"><ele>0.0</ele><time>2026-04-29T12:19:42.083Z</time></trkpt><trkpt lat="37.0966932" lon="-1.1004434"><ele>0.0</ele><time>2026-04-29T12:19:43.084Z</time></trkpt><trkpt lat="37.0967465" lon="-1.1003551"><ele>0.0</ele><time>2026-04-29T12:19:44.083Z</time></trkpt><trkpt lat="37.0968452" lon="-1.1001736"><ele>0.0</ele><time>2026-04-29T12:19:46.083Z</time></trkpt><trkpt lat="37.0968922" lon="-1.1000878"><ele>0.0</ele><time>2026-04-29T12:19:47.083Z</time></trkpt><trkpt lat="37.0969404" lon="-1.1000029"><ele>0.0</ele><time>2026-04-29T12:19:48.083Z</time></trkpt><trkpt lat="37.0969904" lon="-1.0999208"><ele>0.0</ele><time>2026-04-29T12:19:49.084Z</time></trkpt><trkpt lat="37.0970402" lon="-1.0998332"><ele>0.0</ele><time>2026-04-29T12:19:50.083Z</time></trkpt><trkpt lat="37.0970915" lon="-1.0997434"><ele>0.0</ele><time>2026-04-29T12:19:51.084Z</time></trkpt><trkpt lat="37.0971429" lon="-1.099655"><ele>0.0</ele><time>2026-04-29T12:19:52.083Z</time></trkpt><trkpt lat="37.0971989" lon="-1.0995727"><ele>0.0</ele><time>2026-04-29T12:19:53.083Z</time></trkpt><trkpt lat="37.0972502" lon="-1.0994878"><ele>0.0</ele><time>2026-04-29T12:19:54.083Z</time></trkpt><trkpt lat="37.0973046" lon="-1.0993959"><ele>0.0</ele><time>2026-04-29T12:19:55.083Z</time></trkpt><trkpt lat="37.0973536" lon="-1.0993098"><ele>0.0</ele><time>2026-04-29T12:19:56.083Z</time></trkpt><trkpt lat="37.0974104" lon="-1.0992272"><ele>0.0</ele><time>2026-04-29T12:19:57.084Z</time></trkpt><trkpt lat="37.0974617" lon="-1.0991431"><ele>0.0</ele><time>2026-04-29T12:19:58.084Z</time></trkpt><trkpt lat="37.0975163" lon="-1.0990566"><ele>0.0</ele><time>2026-04-29T12:19:59.084Z</time></trkpt><trkpt lat="37.0975686" lon="-1.09897"><ele>0.0</ele><time>2026-04-29T12:20:00.083Z</time></trkpt><trkpt lat="37.0976214" lon="-1.0988788"><ele>0.0</ele><time>2026-04-29T12:20:01.083Z</time></trkpt><trkpt lat="37.0976731" lon="-1.098793"><ele>0.0</ele><time>2026-04-29T12:20:02.084Z</time></trkpt><trkpt lat="37.0977293" lon="-1.0987079"><ele>0.0</ele><time>2026-04-29T12:20:03.083Z</time></trkpt><trkpt lat="37.0977804" lon="-1.0986217"><ele>0.0</ele><time>2026-04-29T12:20:04.083Z</time></trkpt><trkpt lat="37.0978289" lon="-1.0985336"><ele>0.0</ele><time>2026-04-29T12:20:05.083Z</time></trkpt><trkpt lat="37.0979307" lon="-1.0983611"><ele>0.0</ele><time>2026-04-29T12:20:07.083Z</time></trkpt><trkpt lat="37.0979804" lon="-1.0982698"><ele>0.0</ele><time>2026-04-29T12:20:08.083Z</time></trkpt><trkpt lat="37.0980347" lon="-1.098185"><ele>0.0</ele><time>2026-04-29T12:20:09.084Z</time></trkpt><trkpt lat="37.0980897" lon="-1.0980971"><ele>0.0</ele><time>2026-04-29T12:20:10.083Z</time></trkpt><trkpt lat="37.0981407" lon="-1.0980029"><ele>0.0</ele><time>2026-04-29T12:20:11.084Z</time></trkpt><trkpt lat="37.0981891" lon="-1.097915"><ele>0.0</ele><time>2026-04-29T12:20:12.084Z</time></trkpt><trkpt lat="37.0982391" lon="-1.0978325"><ele>0.0</ele><time>2026-04-29T12:20:13.083Z</time></trkpt><trkpt lat="37.0982865" lon="-1.0977395"><ele>0.0</ele><time>2026-04-29T12:20:14.083Z</time></trkpt><trkpt lat="37.09833" lon="-1.0976517"><ele>0.0</ele><time>2026-04-29T12:20:15.084Z</time></trkpt><trkpt lat="37.0983835" lon="-1.0975649"><ele>0.0</ele><time>2026-04-29T12:20:16.083Z</time></trkpt><trkpt lat="37.0984396" lon="-1.0974783"><ele>0.0</ele><time>2026-04-29T12:20:17.083Z</time></trkpt><trkpt lat="37.0984948" lon="-1.0973903"><ele>0.0</ele><time>2026-04-29T12:20:18.083Z</time></trkpt><trkpt lat="37.0985482" lon="-1.0973032"><ele>0.0</ele><time>2026-04-29T12:20:19.083Z</time></trkpt><trkpt lat="37.0986018" lon="-1.097218"><ele>0.0</ele><time>2026-04-29T12:20:20.084Z</time></trkpt><trkpt lat="37.0986562" lon="-1.0971275"><ele>0.0</ele><time>2026-04-29T12:20:21.083Z</time></trkpt><trkpt lat="37.0987086" lon="-1.097043"><ele>0.0</ele><time>2026-04-29T12:20:22.083Z</time></trkpt><trkpt lat="37.0987605" lon="-1.0969607"><ele>0.0</ele><time>2026-04-29T12:20:23.084Z</time></trkpt><trkpt lat="37.0988128" lon="-1.0968745"><ele>0.0</ele><time>2026-04-29T12:20:24.084Z</time></trkpt><trkpt lat="37.098865" lon="-1.096784"><ele>0.0</ele><time>2026-04-29T12:20:25.083Z</time></trkpt><trkpt lat="37.0989165" lon="-1.0966925"><ele>0.0</ele><time>2026-04-29T12:20:26.083Z</time></trkpt><trkpt lat="37.0990201" lon="-1.0965133"><ele>0.0</ele><time>2026-04-29T12:20:28.084Z</time></trkpt><trkpt lat="37.0990718" lon="-1.0964252"><ele>0.0</ele><time>2026-04-29T12:20:29.083Z</time></trkpt><trkpt lat="37.0991232" lon="-1.0963311"><ele>0.0</ele><time>2026-04-29T12:20:30.083Z</time></trkpt><trkpt lat="37.0991722" lon="-1.0962492"><ele>0.0</ele><time>2026-04-29T12:20:31.084Z</time></trkpt><trkpt lat="37.0992294" lon="-1.0961689"><ele>0.0</ele><time>2026-04-29T12:20:32.084Z</time></trkpt><trkpt lat="37.0992774" lon="-1.096086"><ele>0.0</ele><time>2026-04-29T12:20:33.084Z</time></trkpt><trkpt lat="37.0993257" lon="-1.0960027"><ele>0.0</ele><time>2026-04-29T12:20:34.083Z</time></trkpt><trkpt lat="37.0993727" lon="-1.0959137"><ele>0.0</ele><time>2026-04-29T12:20:35.083Z</time></trkpt><trkpt lat="37.0994165" lon="-1.0958211"><ele>0.0</ele><time>2026-04-29T12:20:36.083Z</time></trkpt><trkpt lat="37.0994588" lon="-1.0957275"><ele>0.0</ele><time>2026-04-29T12:20:37.083Z</time></trkpt><trkpt lat="37.0995156" lon="-1.09563"><ele>0.0</ele><time>2026-04-29T12:20:38.084Z</time></trkpt><trkpt lat="37.0995627" lon="-1.0955504"><ele>0.0</ele><time>2026-04-29T12:20:39.083Z</time></trkpt><trkpt lat="37.099608" lon="-1.0954661"><ele>0.0</ele><time>2026-04-29T12:20:40.083Z</time></trkpt><trkpt lat="37.099663" lon="-1.0953753"><ele>0.0</ele><time>2026-04-29T12:20:41.084Z</time></trkpt><trkpt lat="37.0997163" lon="-1.0952867"><ele>0.0</ele><time>2026-04-29T12:20:42.084Z</time></trkpt><trkpt lat="37.0997695" lon="-1.0951957"><ele>0.0</ele><time>2026-04-29T12:20:43.084Z</time></trkpt><trkpt lat="37.0998189" lon="-1.095114"><ele>0.0</ele><time>2026-04-29T12:20:44.083Z</time></trkpt><trkpt lat="37.0998688" lon="-1.0950281"><ele>0.0</ele><time>2026-04-29T12:20:45.084Z</time></trkpt><trkpt lat="37.0999186" lon="-1.0949461"><ele>0.0</ele><time>2026-04-29T12:20:46.083Z</time></trkpt><trkpt lat="37.0999627" lon="-1.0948658"><ele>0.0</ele><time>2026-04-29T12:20:47.084Z</time></trkpt><trkpt lat="37.1000469" lon="-1.0946922"><ele>0.0</ele><time>2026-04-29T12:20:49.084Z</time></trkpt><trkpt lat="37.1000935" lon="-1.0945987"><ele>0.0</ele><time>2026-04-29T12:20:50.084Z</time></trkpt><trkpt lat="37.1001431" lon="-1.0945041"><ele>0.0</ele><time>2026-04-29T12:20:51.083Z</time></trkpt><trkpt lat="37.1001946" lon="-1.094411"><ele>0.0</ele><time>2026-04-29T12:20:52.084Z</time></trkpt><trkpt lat="37.1002492" lon="-1.0943186"><ele>0.0</ele><time>2026-04-29T12:20:53.083Z</time></trkpt><trkpt lat="37.1002996" lon="-1.0942252"><ele>0.0</ele><time>2026-04-29T12:20:54.084Z</time></trkpt><trkpt lat="37.1003485" lon="-1.0941378"><ele>0.0</ele><time>2026-04-29T12:20:55.084Z</time></trkpt><trkpt lat="37.1003968" lon="-1.0940481"><ele>0.0</ele><time>2026-04-29T12:20:56.084Z</time></trkpt><trkpt lat="37.1004483" lon="-1.0939599"><ele>0.0</ele><time>2026-04-29T12:20:57.083Z</time></trkpt><trkpt lat="37.100497" lon="-1.0938672"><ele>0.0</ele><time>2026-04-29T12:20:58.083Z</time></trkpt><trkpt lat="37.1005455" lon="-1.0937798"><ele>0.0</ele><time>2026-04-29T12:20:59.083Z</time></trkpt><trkpt lat="37.1005963" lon="-1.0936918"><ele>0.0</ele><time>2026-04-29T12:21:00.083Z</time></trkpt><trkpt lat="37.1006497" lon="-1.0936004"><ele>0.0</ele><time>2026-04-29T12:21:01.083Z</time></trkpt><trkpt lat="37.1006972" lon="-1.0935186"><ele>0.0</ele><time>2026-04-29T12:21:02.083Z</time></trkpt><trkpt lat="37.100751" lon="-1.0934401"><ele>0.0</ele><time>2026-04-29T12:21:03.084Z</time></trkpt><trkpt lat="37.1008002" lon="-1.0933548"><ele>0.0</ele><time>2026-04-29T12:21:04.083Z</time></trkpt><trkpt lat="37.1008485" lon="-1.0932723"><ele>0.0</ele><time>2026-04-29T12:21:05.083Z</time></trkpt><trkpt lat="37.1009" lon="-1.0931847"><ele>0.0</ele><time>2026-04-29T12:21:06.083Z</time></trkpt><trkpt lat="37.1009515" lon="-1.0930922"><ele>0.0</ele><time>2026-04-29T12:21:07.084Z</time></trkpt><trkpt lat="37.1010047" lon="-1.0930051"><ele>0.0</ele><time>2026-04-29T12:21:08.083Z</time></trkpt><trkpt lat="37.1011065" lon="-1.0928332"><ele>0.0</ele><time>2026-04-29T12:21:10.083Z</time></trkpt><trkpt lat="37.1011595" lon="-1.0927425"><ele>0.0</ele><time>2026-04-29T12:21:11.083Z</time></trkpt><trkpt lat="37.1012113" lon="-1.0926491"><ele>0.0</ele><time>2026-04-29T12:21:12.084Z</time></trkpt><trkpt lat="37.1012616" lon="-1.0925573"><ele>0.0</ele><time>2026-04-29T12:21:13.084Z</time></trkpt><trkpt lat="37.1013121" lon="-1.092463"><ele>0.0</ele><time>2026-04-29T12:21:14.083Z</time></trkpt><trkpt lat="37.1013664" lon="-1.0923765"><ele>0.0</ele><time>2026-04-29T12:21:15.084Z</time></trkpt><trkpt lat="37.1014156" lon="-1.0922941"><ele>0.0</ele><time>2026-04-29T12:21:16.084Z</time></trkpt><trkpt lat="37.1014652" lon="-1.0922081"><ele>0.0</ele><time>2026-04-29T12:21:17.083Z</time></trkpt><trkpt lat="37.1015226" lon="-1.0921176"><ele>0.0</ele><time>2026-04-29T12:21:18.084Z</time></trkpt><trkpt lat="37.1015783" lon="-1.0920302"><ele>0.0</ele><time>2026-04-29T12:21:19.083Z</time></trkpt><trkpt lat="37.1016302" lon="-1.0919418"><ele>0.0</ele><time>2026-04-29T12:21:20.084Z</time></trkpt><trkpt lat="37.1016791" lon="-1.0918594"><ele>0.0</ele><time>2026-04-29T12:21:21.084Z</time></trkpt><trkpt lat="37.1017317" lon="-1.0917749"><ele>0.0</ele><time>2026-04-29T12:21:22.083Z</time></trkpt><trkpt lat="37.1017848" lon="-1.0916869"><ele>0.0</ele><time>2026-04-29T12:21:23.083Z</time></trkpt><trkpt lat="37.1018384" lon="-1.0916015"><ele>0.0</ele><time>2026-04-29T12:21:24.084Z</time></trkpt><trkpt lat="37.1018933" lon="-1.0915106"><ele>0.0</ele><time>2026-04-29T12:21:25.084Z</time></trkpt><trkpt lat="37.1019463" lon="-1.0914317"><ele>0.0</ele><time>2026-04-29T12:21:26.084Z</time></trkpt><trkpt lat="37.1019952" lon="-1.0913479"><ele>0.0</ele><time>2026-04-29T12:21:27.084Z</time></trkpt><trkpt lat="37.1020452" lon="-1.0912586"><ele>0.0</ele><time>2026-04-29T12:21:28.083Z</time></trkpt><trkpt lat="37.1020996" lon="-1.0911646"><ele>0.0</ele><time>2026-04-29T12:21:29.084Z</time></trkpt><trkpt lat="37.1022036" lon="-1.0909914"><ele>0.0</ele><time>2026-04-29T12:21:31.083Z</time></trkpt><trkpt lat="37.102252" lon="-1.090912"><ele>0.0</ele><time>2026-04-29T12:21:32.083Z</time></trkpt><trkpt lat="37.1022906" lon="-1.0908235"><ele>0.0</ele><time>2026-04-29T12:21:33.083Z</time></trkpt><trkpt lat="37.1023332" lon="-1.0907253"><ele>0.0</ele><time>2026-04-29T12:21:34.083Z</time></trkpt><trkpt lat="37.1023889" lon="-1.0906328"><ele>0.0</ele><time>2026-04-29T12:21:35.083Z</time></trkpt><trkpt lat="37.1024401" lon="-1.0905424"><ele>0.0</ele><time>2026-04-29T12:21:36.083Z</time></trkpt><trkpt lat="37.1024833" lon="-1.0904525"><ele>0.0</ele><time>2026-04-29T12:21:37.083Z</time></trkpt><trkpt lat="37.1025308" lon="-1.0903596"><ele>0.0</ele><time>2026-04-29T12:21:38.083Z</time></trkpt><trkpt lat="37.1025789" lon="-1.0902678"><ele>0.0</ele><time>2026-04-29T12:21:39.083Z</time></trkpt><trkpt lat="37.1026273" lon="-1.0901775"><ele>0.0</ele><time>2026-04-29T12:21:40.083Z</time></trkpt><trkpt lat="37.1026727" lon="-1.0900915"><ele>0.0</ele><time>2026-04-29T12:21:41.083Z</time></trkpt><trkpt lat="37.1027246" lon="-1.0900009"><ele>0.0</ele><time>2026-04-29T12:21:42.083Z</time></trkpt><trkpt lat="37.1027765" lon="-1.0899133"><ele>0.0</ele><time>2026-04-29T12:21:43.083Z</time></trkpt><trkpt lat="37.102827" lon="-1.0898253"><ele>0.0</ele><time>2026-04-29T12:21:44.084Z</time></trkpt><trkpt lat="37.1028797" lon="-1.0897373"><ele>0.0</ele><time>2026-04-29T12:21:45.083Z</time></trkpt><trkpt lat="37.1029298" lon="-1.0896472"><ele>0.0</ele><time>2026-04-29T12:21:46.084Z</time></trkpt><trkpt lat="37.10298" lon="-1.0895601"><ele>0.0</ele><time>2026-04-29T12:21:47.084Z</time></trkpt><trkpt lat="37.1030302" lon="-1.0894735"><ele>0.0</ele><time>2026-04-29T12:21:48.084Z</time></trkpt><trkpt lat="37.1030818" lon="-1.0893914"><ele>0.0</ele><time>2026-04-29T12:21:49.084Z</time></trkpt><trkpt lat="37.1031316" lon="-1.0893021"><ele>0.0</ele><time>2026-04-29T12:21:50.083Z</time></trkpt><trkpt lat="37.1032321" lon="-1.0891341"><ele>0.0</ele><time>2026-04-29T12:21:52.083Z</time></trkpt><trkpt lat="37.1032794" lon="-1.089047"><ele>0.0</ele><time>2026-04-29T12:21:53.083Z</time></trkpt><trkpt lat="37.1033316" lon="-1.0889658"><ele>0.0</ele><time>2026-04-29T12:21:54.083Z</time></trkpt><trkpt lat="37.1033876" lon="-1.0888841"><ele>0.0</ele><time>2026-04-29T12:21:55.083Z</time></trkpt><trkpt lat="37.1034456" lon="-1.0888053"><ele>0.0</ele><time>2026-04-29T12:21:56.083Z</time></trkpt><trkpt lat="37.1034995" lon="-1.0887195"><ele>0.0</ele><time>2026-04-29T12:21:57.083Z</time></trkpt><trkpt lat="37.1035554" lon="-1.0886302"><ele>0.0</ele><time>2026-04-29T12:21:58.083Z</time></trkpt><trkpt lat="37.1036079" lon="-1.088542"><ele>0.0</ele><time>2026-04-29T12:21:59.084Z</time></trkpt><trkpt lat="37.1036642" lon="-1.0884465"><ele>0.0</ele><time>2026-04-29T12:22:00.083Z</time></trkpt><trkpt lat="37.1037149" lon="-1.0883572"><ele>0.0</ele><time>2026-04-29T12:22:01.084Z</time></trkpt><trkpt lat="37.1037665" lon="-1.0882658"><ele>0.0</ele><time>2026-04-29T12:22:02.084Z</time></trkpt><trkpt lat="37.1038195" lon="-1.0881742"><ele>0.0</ele><time>2026-04-29T12:22:03.083Z</time></trkpt><trkpt lat="37.103874" lon="-1.0880894"><ele>0.0</ele><time>2026-04-29T12:22:04.083Z</time></trkpt><trkpt lat="37.1039211" lon="-1.0880059"><ele>0.0</ele><time>2026-04-29T12:22:05.083Z</time></trkpt><trkpt lat="37.1039717" lon="-1.0879198"><ele>0.0</ele><time>2026-04-29T12:22:06.084Z</time></trkpt><trkpt lat="37.1040147" lon="-1.0878305"><ele>0.0</ele><time>2026-04-29T12:22:07.083Z</time></trkpt><trkpt lat="37.1040592" lon="-1.0877365"><ele>0.0</ele><time>2026-04-29T12:22:08.084Z</time></trkpt><trkpt lat="37.1041116" lon="-1.0876444"><ele>0.0</ele><time>2026-04-29T12:22:09.083Z</time></trkpt><trkpt lat="37.1041603" lon="-1.0875569"><ele>0.0</ele><time>2026-04-29T12:22:10.083Z</time></trkpt><trkpt lat="37.1042105" lon="-1.0874731"><ele>0.0</ele><time>2026-04-29T12:22:11.083Z</time></trkpt><trkpt lat="37.1043166" lon="-1.0873056"><ele>0.0</ele><time>2026-04-29T12:22:13.084Z</time></trkpt><trkpt lat="37.10437" lon="-1.0872228"><ele>0.0</ele><time>2026-04-29T12:22:14.083Z</time></trkpt><trkpt lat="37.104419" lon="-1.0871383"><ele>0.0</ele><time>2026-04-29T12:22:15.084Z</time></trkpt><trkpt lat="37.1044639" lon="-1.0870504"><ele>0.0</ele><time>2026-04-29T12:22:16.084Z</time></trkpt><trkpt lat="37.1045133" lon="-1.0869677"><ele>0.0</ele><time>2026-04-29T12:22:17.083Z</time></trkpt><trkpt lat="37.1045659" lon="-1.0868844"><ele>0.0</ele><time>2026-04-29T12:22:18.084Z</time></trkpt><trkpt lat="37.1046208" lon="-1.0867898"><ele>0.0</ele><time>2026-04-29T12:22:19.084Z</time></trkpt><trkpt lat="37.1046672" lon="-1.0866961"><ele>0.0</ele><time>2026-04-29T12:22:20.083Z</time></trkpt><trkpt lat="37.1047138" lon="-1.0865998"><ele>0.0</ele><time>2026-04-29T12:22:21.084Z</time></trkpt><trkpt lat="37.104762" lon="-1.0865017"><ele>0.0</ele><time>2026-04-29T12:22:22.083Z</time></trkpt><trkpt lat="37.1048119" lon="-1.0864106"><ele>0.0</ele><time>2026-04-29T12:22:23.084Z</time></trkpt><trkpt lat="37.1048632" lon="-1.0863162"><ele>0.0</ele><time>2026-04-29T12:22:24.084Z</time></trkpt><trkpt lat="37.1049137" lon="-1.0862242"><ele>0.0</ele><time>2026-04-29T12:22:25.083Z</time></trkpt><trkpt lat="37.1049621" lon="-1.0861353"><ele>0.0</ele><time>2026-04-29T12:22:26.084Z</time></trkpt><trkpt lat="37.1050072" lon="-1.086048"><ele>0.0</ele><time>2026-04-29T12:22:27.083Z</time></trkpt><trkpt lat="37.1050552" lon="-1.0859586"><ele>0.0</ele><time>2026-04-29T12:22:28.083Z</time></trkpt><trkpt lat="37.1051051" lon="-1.0858773"><ele>0.0</ele><time>2026-04-29T12:22:29.083Z</time></trkpt><trkpt lat="37.1051549" lon="-1.0857914"><ele>0.0</ele><time>2026-04-29T12:22:30.084Z</time></trkpt><trkpt lat="37.1052035" lon="-1.0857074"><ele>0.0</ele><time>2026-04-29T12:22:31.083Z</time></trkpt><trkpt lat="37.1052478" lon="-1.085627"><ele>0.0</ele><time>2026-04-29T12:22:32.083Z</time></trkpt><trkpt lat="37.1053346" lon="-1.0854579"><ele>0.0</ele><time>2026-04-29T12:22:34.084Z</time></trkpt><trkpt lat="37.105379" lon="-1.0853674"><ele>0.0</ele><time>2026-04-29T12:22:35.084Z</time></trkpt><trkpt lat="37.1054297" lon="-1.0852813"><ele>0.0</ele><time>2026-04-29T12:22:36.083Z</time></trkpt><trkpt lat="37.1054843" lon="-1.0851949"><ele>0.0</ele><time>2026-04-29T12:22:37.083Z</time></trkpt><trkpt lat="37.1055406" lon="-1.0851125"><ele>0.0</ele><time>2026-04-29T12:22:38.084Z</time></trkpt><trkpt lat="37.1055919" lon="-1.085025"><ele>0.0</ele><time>2026-04-29T12:22:39.083Z</time></trkpt><trkpt lat="37.1056401" lon="-1.0849424"><ele>0.0</ele><time>2026-04-29T12:22:40.083Z</time></trkpt><trkpt lat="37.1056886" lon="-1.0848584"><ele>0.0</ele><time>2026-04-29T12:22:41.084Z</time></trkpt><trkpt lat="37.1057398" lon="-1.0847718"><ele>0.0</ele><time>2026-04-29T12:22:42.084Z</time></trkpt><trkpt lat="37.1057929" lon="-1.0846882"><ele>0.0</ele><time>2026-04-29T12:22:43.083Z</time></trkpt><trkpt lat="37.1058393" lon="-1.0846018"><ele>0.0</ele><time>2026-04-29T12:22:44.083Z</time></trkpt><trkpt lat="37.1058886" lon="-1.0845121"><ele>0.0</ele><time>2026-04-29T12:22:45.083Z</time></trkpt><trkpt lat="37.1059371" lon="-1.0844226"><ele>0.0</ele><time>2026-04-29T12:22:46.084Z</time></trkpt><trkpt lat="37.1059867" lon="-1.0843325"><ele>0.0</ele><time>2026-04-29T12:22:47.083Z</time></trkpt><trkpt lat="37.1060363" lon="-1.0842422"><ele>0.0</ele><time>2026-04-29T12:22:48.084Z</time></trkpt><trkpt lat="37.1060907" lon="-1.0841605"><ele>0.0</ele><time>2026-04-29T12:22:49.084Z</time></trkpt><trkpt lat="37.1061407" lon="-1.0840805"><ele>0.0</ele><time>2026-04-29T12:22:50.084Z</time></trkpt><trkpt lat="37.1061915" lon="-1.0839865"><ele>0.0</ele><time>2026-04-29T12:22:51.084Z</time></trkpt><trkpt lat="37.1062447" lon="-1.0838987"><ele>0.0</ele><time>2026-04-29T12:22:52.084Z</time></trkpt><trkpt lat="37.1063498" lon="-1.0837282"><ele>0.0</ele><time>2026-04-29T12:22:54.083Z</time></trkpt><trkpt lat="37.1064031" lon="-1.0836402"><ele>0.0</ele><time>2026-04-29T12:22:55.083Z</time></trkpt><trkpt lat="37.1064595" lon="-1.0835506"><ele>0.0</ele><time>2026-04-29T12:22:56.084Z</time></trkpt><trkpt lat="37.1065105" lon="-1.0834579"><ele>0.0</ele><time>2026-04-29T12:22:57.083Z</time></trkpt><trkpt lat="37.1065619" lon="-1.0833673"><ele>0.0</ele><time>2026-04-29T12:22:58.083Z</time></trkpt><trkpt lat="37.1066132" lon="-1.0832772"><ele>0.0</ele><time>2026-04-29T12:22:59.083Z</time></trkpt><trkpt lat="37.1066622" lon="-1.0831916"><ele>0.0</ele><time>2026-04-29T12:23:00.083Z</time></trkpt><trkpt lat="37.1067132" lon="-1.0831077"><ele>0.0</ele><time>2026-04-29T12:23:01.084Z</time></trkpt><trkpt lat="37.1067621" lon="-1.0830243"><ele>0.0</ele><time>2026-04-29T12:23:02.084Z</time></trkpt><trkpt lat="37.106812" lon="-1.0829382"><ele>0.0</ele><time>2026-04-29T12:23:03.083Z</time></trkpt><trkpt lat="37.1068563" lon="-1.0828519"><ele>0.0</ele><time>2026-04-29T12:23:04.083Z</time></trkpt><trkpt lat="37.1069079" lon="-1.0827638"><ele>0.0</ele><time>2026-04-29T12:23:05.083Z</time></trkpt><trkpt lat="37.106957" lon="-1.0826742"><ele>0.0</ele><time>2026-04-29T12:23:06.084Z</time></trkpt><trkpt lat="37.1070109" lon="-1.082587"><ele>0.0</ele><time>2026-04-29T12:23:07.083Z</time></trkpt><trkpt lat="37.107062" lon="-1.0825003"><ele>0.0</ele><time>2026-04-29T12:23:08.083Z</time></trkpt><trkpt lat="37.1071134" lon="-1.0824163"><ele>0.0</ele><time>2026-04-29T12:23:09.084Z</time></trkpt><trkpt lat="37.1071652" lon="-1.0823325"><ele>0.0</ele><time>2026-04-29T12:23:10.084Z</time></trkpt><trkpt lat="37.1072197" lon="-1.0822505"><ele>0.0</ele><time>2026-04-29T12:23:11.084Z</time></trkpt><trkpt lat="37.1072705" lon="-1.0821636"><ele>0.0</ele><time>2026-04-29T12:23:12.083Z</time></trkpt><trkpt lat="37.1073118" lon="-1.0820798"><ele>0.0</ele><time>2026-04-29T12:23:13.084Z</time></trkpt><trkpt lat="37.1074067" lon="-1.0819035"><ele>0.0</ele><time>2026-04-29T12:23:15.083Z</time></trkpt><trkpt lat="37.107457" lon="-1.0818167"><ele>0.0</ele><time>2026-04-29T12:23:16.084Z</time></trkpt><trkpt lat="37.1075054" lon="-1.08173"><ele>0.0</ele><time>2026-04-29T12:23:17.084Z</time></trkpt><trkpt lat="37.1075565" lon="-1.0816377"><ele>0.0</ele><time>2026-04-29T12:23:18.083Z</time></trkpt><trkpt lat="37.1076095" lon="-1.0815459"><ele>0.0</ele><time>2026-04-29T12:23:19.083Z</time></trkpt><trkpt lat="37.1076603" lon="-1.0814556"><ele>0.0</ele><time>2026-04-29T12:23:20.084Z</time></trkpt><trkpt lat="37.1077142" lon="-1.0813612"><ele>0.0</ele><time>2026-04-29T12:23:21.083Z</time></trkpt><trkpt lat="37.1077733" lon="-1.0812718"><ele>0.0</ele><time>2026-04-29T12:23:22.084Z</time></trkpt><trkpt lat="37.1078289" lon="-1.0811874"><ele>0.0</ele><time>2026-04-29T12:23:23.084Z</time></trkpt><trkpt lat="37.1078784" lon="-1.081096"><ele>0.0</ele><time>2026-04-29T12:23:24.084Z</time></trkpt><trkpt lat="37.1079259" lon="-1.0810056"><ele>0.0</ele><time>2026-04-29T12:23:25.083Z</time></trkpt><trkpt lat="37.1079768" lon="-1.0809168"><ele>0.0</ele><time>2026-04-29T12:23:26.083Z</time></trkpt><trkpt lat="37.1080228" lon="-1.0808299"><ele>0.0</ele><time>2026-04-29T12:23:27.084Z</time></trkpt><trkpt lat="37.1080717" lon="-1.0807432"><ele>0.0</ele><time>2026-04-29T12:23:28.083Z</time></trkpt><trkpt lat="37.108119" lon="-1.0806523"><ele>0.0</ele><time>2026-04-29T12:23:29.084Z</time></trkpt><trkpt lat="37.1081602" lon="-1.0805662"><ele>0.0</ele><time>2026-04-29T12:23:30.084Z</time></trkpt><trkpt lat="37.1082013" lon="-1.0804767"><ele>0.0</ele><time>2026-04-29T12:23:31.083Z</time></trkpt><trkpt lat="37.1082487" lon="-1.0803882"><ele>0.0</ele><time>2026-04-29T12:23:32.083Z</time></trkpt><trkpt lat="37.1082913" lon="-1.0802999"><ele>0.0</ele><time>2026-04-29T12:23:33.083Z</time></trkpt><trkpt lat="37.1083358" lon="-1.0802104"><ele>0.0</ele><time>2026-04-29T12:23:34.083Z</time></trkpt><trkpt lat="37.10843" lon="-1.0800337"><ele>0.0</ele><time>2026-04-29T12:23:36.083Z</time></trkpt><trkpt lat="37.1084843" lon="-1.0799409"><ele>0.0</ele><time>2026-04-29T12:23:37.083Z</time></trkpt><trkpt lat="37.1085379" lon="-1.0798504"><ele>0.0</ele><time>2026-04-29T12:23:38.084Z</time></trkpt><trkpt lat="37.1085925" lon="-1.0797544"><ele>0.0</ele><time>2026-04-29T12:23:39.084Z</time></trkpt><trkpt lat="37.1086419" lon="-1.0796635"><ele>0.0</ele><time>2026-04-29T12:23:40.083Z</time></trkpt><trkpt lat="37.1086948" lon="-1.0795777"><ele>0.0</ele><time>2026-04-29T12:23:41.083Z</time></trkpt><trkpt lat="37.1087439" lon="-1.0794942"><ele>0.0</ele><time>2026-04-29T12:23:42.084Z</time></trkpt><trkpt lat="37.1087921" lon="-1.0794095"><ele>0.0</ele><time>2026-04-29T12:23:43.083Z</time></trkpt><trkpt lat="37.1088403" lon="-1.0793233"><ele>0.0</ele><time>2026-04-29T12:23:44.084Z</time></trkpt><trkpt lat="37.1088901" lon="-1.0792366"><ele>0.0</ele><time>2026-04-29T12:23:45.083Z</time></trkpt><trkpt lat="37.1089385" lon="-1.0791482"><ele>0.0</ele><time>2026-04-29T12:23:46.084Z</time></trkpt><trkpt lat="37.1089881" lon="-1.0790587"><ele>0.0</ele><time>2026-04-29T12:23:47.083Z</time></trkpt><trkpt lat="37.1090353" lon="-1.0789729"><ele>0.0</ele><time>2026-04-29T12:23:48.083Z</time></trkpt><trkpt lat="37.1090807" lon="-1.0788892"><ele>0.0</ele><time>2026-04-29T12:23:49.084Z</time></trkpt><trkpt lat="37.1091228" lon="-1.0788057"><ele>0.0</ele><time>2026-04-29T12:23:50.083Z</time></trkpt><trkpt lat="37.1091674" lon="-1.0787198"><ele>0.0</ele><time>2026-04-29T12:23:51.084Z</time></trkpt><trkpt lat="37.1092168" lon="-1.0786334"><ele>0.0</ele><time>2026-04-29T12:23:52.084Z</time></trkpt><trkpt lat="37.1092666" lon="-1.0785409"><ele>0.0</ele><time>2026-04-29T12:23:53.083Z</time></trkpt><trkpt lat="37.1093182" lon="-1.0784448"><ele>0.0</ele><time>2026-04-29T12:23:54.083Z</time></trkpt><trkpt lat="37.1093682" lon="-1.0783537"><ele>0.0</ele><time>2026-04-29T12:23:55.083Z</time></trkpt><trkpt lat="37.10947" lon="-1.0781722"><ele>0.0</ele><time>2026-04-29T12:23:57.084Z</time></trkpt><trkpt lat="37.1095158" lon="-1.0780907"><ele>0.0</ele><time>2026-04-29T12:23:58.083Z</time></trkpt><trkpt lat="37.1095608" lon="-1.0780074"><ele>0.0</ele><time>2026-04-29T12:23:59.084Z</time></trkpt><trkpt lat="37.109606" lon="-1.0779313"><ele>0.0</ele><time>2026-04-29T12:24:00.082Z</time></trkpt><trkpt lat="37.1096535" lon="-1.0778463"><ele>0.0</ele><time>2026-04-29T12:24:01.083Z</time></trkpt><trkpt lat="37.1097074" lon="-1.0777527"><ele>0.0</ele><time>2026-04-29T12:24:02.082Z</time></trkpt><trkpt lat="37.1097582" lon="-1.0776651"><ele>0.0</ele><time>2026-04-29T12:24:03.083Z</time></trkpt><trkpt lat="37.1098065" lon="-1.0775768"><ele>0.0</ele><time>2026-04-29T12:24:04.083Z</time></trkpt><trkpt lat="37.1098564" lon="-1.0774929"><ele>0.0</ele><time>2026-04-29T12:24:05.083Z</time></trkpt><trkpt lat="37.1099106" lon="-1.0774053"><ele>0.0</ele><time>2026-04-29T12:24:06.082Z</time></trkpt><trkpt lat="37.1099688" lon="-1.077317"><ele>0.0</ele><time>2026-04-29T12:24:07.082Z</time></trkpt><trkpt lat="37.1100213" lon="-1.0772272"><ele>0.0</ele><time>2026-04-29T12:24:08.082Z</time></trkpt><trkpt lat="37.1100705" lon="-1.077136"><ele>0.0</ele><time>2026-04-29T12:24:09.082Z</time></trkpt><trkpt lat="37.1101159" lon="-1.0770429"><ele>0.0</ele><time>2026-04-29T12:24:10.083Z</time></trkpt><trkpt lat="37.110165" lon="-1.0769521"><ele>0.0</ele><time>2026-04-29T12:24:11.083Z</time></trkpt><trkpt lat="37.1102136" lon="-1.0768576"><ele>0.0</ele><time>2026-04-29T12:24:12.083Z</time></trkpt><trkpt lat="37.1102648" lon="-1.0767655"><ele>0.0</ele><time>2026-04-29T12:24:13.082Z</time></trkpt><trkpt lat="37.1103148" lon="-1.0766769"><ele>0.0</ele><time>2026-04-29T12:24:14.083Z</time></trkpt><trkpt lat="37.1103665" lon="-1.0765899"><ele>0.0</ele><time>2026-04-29T12:24:15.082Z</time></trkpt><trkpt lat="37.1104168" lon="-1.0765032"><ele>0.0</ele><time>2026-04-29T12:24:16.083Z</time></trkpt><trkpt lat="37.1105184" lon="-1.0763191"><ele>0.0</ele><time>2026-04-29T12:24:18.082Z</time></trkpt><trkpt lat="37.1105724" lon="-1.0762315"><ele>0.0</ele><time>2026-04-29T12:24:19.083Z</time></trkpt><trkpt lat="37.1106231" lon="-1.0761475"><ele>0.0</ele><time>2026-04-29T12:24:20.082Z</time></trkpt><trkpt lat="37.1106719" lon="-1.0760659"><ele>0.0</ele><time>2026-04-29T12:24:21.083Z</time></trkpt><trkpt lat="37.110723" lon="-1.0759697"><ele>0.0</ele><time>2026-04-29T12:24:22.083Z</time></trkpt><trkpt lat="37.1107846" lon="-1.0758874"><ele>0.0</ele><time>2026-04-29T12:24:23.082Z</time></trkpt><trkpt lat="37.1108376" lon="-1.0758069"><ele>0.0</ele><time>2026-04-29T12:24:24.083Z</time></trkpt><trkpt lat="37.1108856" lon="-1.0757254"><ele>0.0</ele><time>2026-04-29T12:24:25.083Z</time></trkpt><trkpt lat="37.1109311" lon="-1.0756358"><ele>0.0</ele><time>2026-04-29T12:24:26.083Z</time></trkpt><trkpt lat="37.1109777" lon="-1.0755415"><ele>0.0</ele><time>2026-04-29T12:24:27.083Z</time></trkpt><trkpt lat="37.1110241" lon="-1.075452"><ele>0.0</ele><time>2026-04-29T12:24:28.082Z</time></trkpt><trkpt lat="37.1110668" lon="-1.0753668"><ele>0.0</ele><time>2026-04-29T12:24:29.083Z</time></trkpt><trkpt lat="37.1111111" lon="-1.0752786"><ele>0.0</ele><time>2026-04-29T12:24:30.083Z</time></trkpt><trkpt lat="37.111163" lon="-1.0751931"><ele>0.0</ele><time>2026-04-29T12:24:31.082Z</time></trkpt><trkpt lat="37.1112134" lon="-1.0751055"><ele>0.0</ele><time>2026-04-29T12:24:32.083Z</time></trkpt><trkpt lat="37.1112649" lon="-1.0750168"><ele>0.0</ele><time>2026-04-29T12:24:33.083Z</time></trkpt><trkpt lat="37.1113181" lon="-1.0749314"><ele>0.0</ele><time>2026-04-29T12:24:34.082Z</time></trkpt><trkpt lat="37.1113685" lon="-1.0748493"><ele>0.0</ele><time>2026-04-29T12:24:35.082Z</time></trkpt><trkpt lat="37.1114168" lon="-1.0747645"><ele>0.0</ele><time>2026-04-29T12:24:36.082Z</time></trkpt><trkpt lat="37.1114724" lon="-1.0746823"><ele>0.0</ele><time>2026-04-29T12:24:37.083Z</time></trkpt><trkpt lat="37.1115738" lon="-1.0745118"><ele>0.0</ele><time>2026-04-29T12:24:39.083Z</time></trkpt><trkpt lat="37.1116305" lon="-1.0744292"><ele>0.0</ele><time>2026-04-29T12:24:40.083Z</time></trkpt><trkpt lat="37.1116801" lon="-1.0743361"><ele>0.0</ele><time>2026-04-29T12:24:41.083Z</time></trkpt><trkpt lat="37.1117301" lon="-1.0742465"><ele>0.0</ele><time>2026-04-29T12:24:42.082Z</time></trkpt><trkpt lat="37.1117772" lon="-1.0741629"><ele>0.0</ele><time>2026-04-29T12:24:43.083Z</time></trkpt><trkpt lat="37.1118269" lon="-1.0740778"><ele>0.0</ele><time>2026-04-29T12:24:44.082Z</time></trkpt><trkpt lat="37.1118769" lon="-1.07399"><ele>0.0</ele><time>2026-04-29T12:24:45.083Z</time></trkpt><trkpt lat="37.1119225" lon="-1.0738977"><ele>0.0</ele><time>2026-04-29T12:24:46.083Z</time></trkpt><trkpt lat="37.1119692" lon="-1.0738041"><ele>0.0</ele><time>2026-04-29T12:24:47.082Z</time></trkpt><trkpt lat="37.1120185" lon="-1.0737134"><ele>0.0</ele><time>2026-04-29T12:24:48.083Z</time></trkpt><trkpt lat="37.1120643" lon="-1.0736222"><ele>0.0</ele><time>2026-04-29T12:24:49.083Z</time></trkpt><trkpt lat="37.1121135" lon="-1.0735308"><ele>0.0</ele><time>2026-04-29T12:24:50.083Z</time></trkpt><trkpt lat="37.1121648" lon="-1.0734416"><ele>0.0</ele><time>2026-04-29T12:24:51.082Z</time></trkpt><trkpt lat="37.1122193" lon="-1.0733534"><ele>0.0</ele><time>2026-04-29T12:24:52.083Z</time></trkpt><trkpt lat="37.1122755" lon="-1.0732639"><ele>0.0</ele><time>2026-04-29T12:24:53.082Z</time></trkpt><trkpt lat="37.1123297" lon="-1.0731753"><ele>0.0</ele><time>2026-04-29T12:24:54.083Z</time></trkpt><trkpt lat="37.1123803" lon="-1.0730897"><ele>0.0</ele><time>2026-04-29T12:24:55.082Z</time></trkpt><trkpt lat="37.112429" lon="-1.0730004"><ele>0.0</ele><time>2026-04-29T12:24:56.083Z</time></trkpt><trkpt lat="37.1124753" lon="-1.0729102"><ele>0.0</ele><time>2026-04-29T12:24:57.083Z</time></trkpt><trkpt lat="37.1125221" lon="-1.0728218"><ele>0.0</ele><time>2026-04-29T12:24:58.082Z</time></trkpt><trkpt lat="37.1126182" lon="-1.0726498"><ele>0.0</ele><time>2026-04-29T12:25:00.082Z</time></trkpt><trkpt lat="37.1126684" lon="-1.0725603"><ele>0.0</ele><time>2026-04-29T12:25:01.082Z</time></trkpt><trkpt lat="37.1127172" lon="-1.072473"><ele>0.0</ele><time>2026-04-29T12:25:02.082Z</time></trkpt><trkpt lat="37.1127622" lon="-1.0723891"><ele>0.0</ele><time>2026-04-29T12:25:03.082Z</time></trkpt><trkpt lat="37.1128102" lon="-1.0723016"><ele>0.0</ele><time>2026-04-29T12:25:04.082Z</time></trkpt><trkpt lat="37.1128556" lon="-1.0722172"><ele>0.0</ele><time>2026-04-29T12:25:05.082Z</time></trkpt><trkpt lat="37.1129049" lon="-1.0721327"><ele>0.0</ele><time>2026-04-29T12:25:06.082Z</time></trkpt><trkpt lat="37.1129616" lon="-1.0720505"><ele>0.0</ele><time>2026-04-29T12:25:07.083Z</time></trkpt><trkpt lat="37.1130084" lon="-1.071966"><ele>0.0</ele><time>2026-04-29T12:25:08.083Z</time></trkpt><trkpt lat="37.1130566" lon="-1.0718754"><ele>0.0</ele><time>2026-04-29T12:25:09.083Z</time></trkpt><trkpt lat="37.1131025" lon="-1.0717879"><ele>0.0</ele><time>2026-04-29T12:25:10.083Z</time></trkpt><trkpt lat="37.1131516" lon="-1.0716959"><ele>0.0</ele><time>2026-04-29T12:25:11.083Z</time></trkpt><trkpt lat="37.1132018" lon="-1.0716055"><ele>0.0</ele><time>2026-04-29T12:25:12.082Z</time></trkpt><trkpt lat="37.1132516" lon="-1.0715139"><ele>0.0</ele><time>2026-04-29T12:25:13.082Z</time></trkpt><trkpt lat="37.1132987" lon="-1.0714195"><ele>0.0</ele><time>2026-04-29T12:25:14.082Z</time></trkpt><trkpt lat="37.1133494" lon="-1.0713259"><ele>0.0</ele><time>2026-04-29T12:25:15.083Z</time></trkpt><trkpt lat="37.1133922" lon="-1.0712382"><ele>0.0</ele><time>2026-04-29T12:25:16.082Z</time></trkpt><trkpt lat="37.1134397" lon="-1.0711514"><ele>0.0</ele><time>2026-04-29T12:25:17.082Z</time></trkpt><trkpt lat="37.1134882" lon="-1.0710659"><ele>0.0</ele><time>2026-04-29T12:25:18.082Z</time></trkpt><trkpt lat="37.1135411" lon="-1.0709853"><ele>0.0</ele><time>2026-04-29T12:25:19.082Z</time></trkpt><trkpt lat="37.1136416" lon="-1.0708129"><ele>0.0</ele><time>2026-04-29T12:25:21.082Z</time></trkpt><trkpt lat="37.1136916" lon="-1.0707278"><ele>0.0</ele><time>2026-04-29T12:25:22.083Z</time></trkpt><trkpt lat="37.1137416" lon="-1.0706399"><ele>0.0</ele><time>2026-04-29T12:25:23.082Z</time></trkpt><trkpt lat="37.1137929" lon="-1.0705488"><ele>0.0</ele><time>2026-04-29T12:25:24.082Z</time></trkpt><trkpt lat="37.1138449" lon="-1.0704601"><ele>0.0</ele><time>2026-04-29T12:25:25.083Z</time></trkpt><trkpt lat="37.1138966" lon="-1.0703688"><ele>0.0</ele><time>2026-04-29T12:25:26.082Z</time></trkpt><trkpt lat="37.1139496" lon="-1.0702745"><ele>0.0</ele><time>2026-04-29T12:25:27.082Z</time></trkpt><trkpt lat="37.1140013" lon="-1.0701852"><ele>0.0</ele><time>2026-04-29T12:25:28.083Z</time></trkpt><trkpt lat="37.1140531" lon="-1.0700968"><ele>0.0</ele><time>2026-04-29T12:25:29.083Z</time></trkpt><trkpt lat="37.1141004" lon="-1.0700082"><ele>0.0</ele><time>2026-04-29T12:25:30.082Z</time></trkpt><trkpt lat="37.1141515" lon="-1.0699226"><ele>0.0</ele><time>2026-04-29T12:25:31.083Z</time></trkpt><trkpt lat="37.1142032" lon="-1.0698335"><ele>0.0</ele><time>2026-04-29T12:25:32.082Z</time></trkpt><trkpt lat="37.1142519" lon="-1.0697476"><ele>0.0</ele><time>2026-04-29T12:25:33.082Z</time></trkpt><trkpt lat="37.1143" lon="-1.0696583"><ele>0.0</ele><time>2026-04-29T12:25:34.082Z</time></trkpt><trkpt lat="37.1143501" lon="-1.0695716"><ele>0.0</ele><time>2026-04-29T12:25:35.082Z</time></trkpt><trkpt lat="37.1143997" lon="-1.0694819"><ele>0.0</ele><time>2026-04-29T12:25:36.082Z</time></trkpt><trkpt lat="37.1144485" lon="-1.0693919"><ele>0.0</ele><time>2026-04-29T12:25:37.083Z</time></trkpt><trkpt lat="37.1145013" lon="-1.0693021"><ele>0.0</ele><time>2026-04-29T12:25:38.082Z</time></trkpt><trkpt lat="37.1145517" lon="-1.069216"><ele>0.0</ele><time>2026-04-29T12:25:39.083Z</time></trkpt><trkpt lat="37.1146018" lon="-1.0691298"><ele>0.0</ele><time>2026-04-29T12:25:40.083Z</time></trkpt><trkpt lat="37.1147001" lon="-1.0689566"><ele>0.0</ele><time>2026-04-29T12:25:42.082Z</time></trkpt><trkpt lat="37.1147459" lon="-1.0688685"><ele>0.0</ele><time>2026-04-29T12:25:43.082Z</time></trkpt><trkpt lat="37.114792" lon="-1.0687847"><ele>0.0</ele><time>2026-04-29T12:25:44.082Z</time></trkpt><trkpt lat="37.1148401" lon="-1.0686968"><ele>0.0</ele><time>2026-04-29T12:25:45.083Z</time></trkpt><trkpt lat="37.1148927" lon="-1.068607"><ele>0.0</ele><time>2026-04-29T12:25:46.082Z</time></trkpt><trkpt lat="37.1149431" lon="-1.0685183"><ele>0.0</ele><time>2026-04-29T12:25:47.082Z</time></trkpt><trkpt lat="37.1149932" lon="-1.0684318"><ele>0.0</ele><time>2026-04-29T12:25:48.083Z</time></trkpt><trkpt lat="37.1150475" lon="-1.0683367"><ele>0.0</ele><time>2026-04-29T12:25:49.082Z</time></trkpt><trkpt lat="37.1150979" lon="-1.0682439"><ele>0.0</ele><time>2026-04-29T12:25:50.083Z</time></trkpt><trkpt lat="37.1151483" lon="-1.0681524"><ele>0.0</ele><time>2026-04-29T12:25:51.082Z</time></trkpt><trkpt lat="37.1151956" lon="-1.0680646"><ele>0.0</ele><time>2026-04-29T12:25:52.083Z</time></trkpt><trkpt lat="37.1152405" lon="-1.067978"><ele>0.0</ele><time>2026-04-29T12:25:53.083Z</time></trkpt><trkpt lat="37.1152872" lon="-1.0678914"><ele>0.0</ele><time>2026-04-29T12:25:54.083Z</time></trkpt><trkpt lat="37.115334" lon="-1.0678034"><ele>0.0</ele><time>2026-04-29T12:25:55.082Z</time></trkpt><trkpt lat="37.1153794" lon="-1.0677136"><ele>0.0</ele><time>2026-04-29T12:25:56.082Z</time></trkpt><trkpt lat="37.1154184" lon="-1.0676248"><ele>0.0</ele><time>2026-04-29T12:25:57.082Z</time></trkpt><trkpt lat="37.1154621" lon="-1.0675253"><ele>0.0</ele><time>2026-04-29T12:25:58.083Z</time></trkpt><trkpt lat="37.1155131" lon="-1.067431"><ele>0.0</ele><time>2026-04-29T12:25:59.082Z</time></trkpt><trkpt lat="37.1155603" lon="-1.0673433"><ele>0.0</ele><time>2026-04-29T12:26:00.082Z</time></trkpt><trkpt lat="37.1156097" lon="-1.0672507"><ele>0.0</ele><time>2026-04-29T12:26:01.083Z</time></trkpt><trkpt lat="37.1157117" lon="-1.0670735"><ele>0.0</ele><time>2026-04-29T12:26:03.083Z</time></trkpt><trkpt lat="37.1157618" lon="-1.0669852"><ele>0.0</ele><time>2026-04-29T12:26:04.083Z</time></trkpt><trkpt lat="37.1158059" lon="-1.0668939"><ele>0.0</ele><time>2026-04-29T12:26:05.083Z</time></trkpt><trkpt lat="37.1158563" lon="-1.0668064"><ele>0.0</ele><time>2026-04-29T12:26:06.083Z</time></trkpt><trkpt lat="37.1159063" lon="-1.0667139"><ele>0.0</ele><time>2026-04-29T12:26:07.083Z</time></trkpt><trkpt lat="37.1159563" lon="-1.0666223"><ele>0.0</ele><time>2026-04-29T12:26:08.082Z</time></trkpt><trkpt lat="37.1160078" lon="-1.0665307"><ele>0.0</ele><time>2026-04-29T12:26:09.083Z</time></trkpt><trkpt lat="37.1160567" lon="-1.0664359"><ele>0.0</ele><time>2026-04-29T12:26:10.083Z</time></trkpt><trkpt lat="37.1161039" lon="-1.0663511"><ele>0.0</ele><time>2026-04-29T12:26:11.082Z</time></trkpt><trkpt lat="37.1161518" lon="-1.0662672"><ele>0.0</ele><time>2026-04-29T12:26:12.082Z</time></trkpt><trkpt lat="37.1161988" lon="-1.0661797"><ele>0.0</ele><time>2026-04-29T12:26:13.082Z</time></trkpt><trkpt lat="37.1162441" lon="-1.0660943"><ele>0.0</ele><time>2026-04-29T12:26:14.082Z</time></trkpt><trkpt lat="37.1162901" lon="-1.0660078"><ele>0.0</ele><time>2026-04-29T12:26:15.082Z</time></trkpt><trkpt lat="37.1163415" lon="-1.0659144"><ele>0.0</ele><time>2026-04-29T12:26:16.082Z</time></trkpt><trkpt lat="37.1163919" lon="-1.0658265"><ele>0.0</ele><time>2026-04-29T12:26:17.082Z</time></trkpt><trkpt lat="37.1164414" lon="-1.065734"><ele>0.0</ele><time>2026-04-29T12:26:18.082Z</time></trkpt><trkpt lat="37.1164915" lon="-1.0656451"><ele>0.0</ele><time>2026-04-29T12:26:19.082Z</time></trkpt><trkpt lat="37.1165429" lon="-1.0655553"><ele>0.0</ele><time>2026-04-29T12:26:20.083Z</time></trkpt><trkpt lat="37.1165974" lon="-1.065468"><ele>0.0</ele><time>2026-04-29T12:26:21.082Z</time></trkpt><trkpt lat="37.1166481" lon="-1.0653799"><ele>0.0</ele><time>2026-04-29T12:26:22.082Z</time></trkpt><trkpt lat="37.1167468" lon="-1.0652113"><ele>0.0</ele><time>2026-04-29T12:26:24.083Z</time></trkpt><trkpt lat="37.1167938" lon="-1.0651246"><ele>0.0</ele><time>2026-04-29T12:26:25.082Z</time></trkpt><trkpt lat="37.1168448" lon="-1.0650382"><ele>0.0</ele><time>2026-04-29T12:26:26.082Z</time></trkpt><trkpt lat="37.1168964" lon="-1.0649526"><ele>0.0</ele><time>2026-04-29T12:26:27.082Z</time></trkpt><trkpt lat="37.1169553" lon="-1.0648723"><ele>0.0</ele><time>2026-04-29T12:26:28.083Z</time></trkpt><trkpt lat="37.1170095" lon="-1.0647852"><ele>0.0</ele><time>2026-04-29T12:26:29.083Z</time></trkpt><trkpt lat="37.1170614" lon="-1.0647025"><ele>0.0</ele><time>2026-04-29T12:26:30.082Z</time></trkpt><trkpt lat="37.1171119" lon="-1.0646181"><ele>0.0</ele><time>2026-04-29T12:26:31.082Z</time></trkpt><trkpt lat="37.1171647" lon="-1.0645272"><ele>0.0</ele><time>2026-04-29T12:26:32.082Z</time></trkpt><trkpt lat="37.1172179" lon="-1.0644315"><ele>0.0</ele><time>2026-04-29T12:26:33.082Z</time></trkpt><trkpt lat="37.1172712" lon="-1.0643378"><ele>0.0</ele><time>2026-04-29T12:26:34.082Z</time></trkpt><trkpt lat="37.1173218" lon="-1.0642458"><ele>0.0</ele><time>2026-04-29T12:26:35.083Z</time></trkpt><trkpt lat="37.1173716" lon="-1.0641568"><ele>0.0</ele><time>2026-04-29T12:26:36.083Z</time></trkpt><trkpt lat="37.1174218" lon="-1.0640684"><ele>0.0</ele><time>2026-04-29T12:26:37.082Z</time></trkpt><trkpt lat="37.11747" lon="-1.0639784"><ele>0.0</ele><time>2026-04-29T12:26:38.082Z</time></trkpt><trkpt lat="37.1175199" lon="-1.0638885"><ele>0.0</ele><time>2026-04-29T12:26:39.082Z</time></trkpt><trkpt lat="37.1175686" lon="-1.0638012"><ele>0.0</ele><time>2026-04-29T12:26:40.082Z</time></trkpt><trkpt lat="37.1176139" lon="-1.0637143"><ele>0.0</ele><time>2026-04-29T12:26:41.082Z</time></trkpt><trkpt lat="37.1176604" lon="-1.0636263"><ele>0.0</ele><time>2026-04-29T12:26:42.083Z</time></trkpt><trkpt lat="37.1177085" lon="-1.0635383"><ele>0.0</ele><time>2026-04-29T12:26:43.082Z</time></trkpt><trkpt lat="37.1178022" lon="-1.0633583"><ele>0.0</ele><time>2026-04-29T12:26:45.082Z</time></trkpt><trkpt lat="37.1178462" lon="-1.0632701"><ele>0.0</ele><time>2026-04-29T12:26:46.082Z</time></trkpt><trkpt lat="37.1178866" lon="-1.0631799"><ele>0.0</ele><time>2026-04-29T12:26:47.082Z</time></trkpt><trkpt lat="37.1179284" lon="-1.0630842"><ele>0.0</ele><time>2026-04-29T12:26:48.082Z</time></trkpt><trkpt lat="37.1179671" lon="-1.0629936"><ele>0.0</ele><time>2026-04-29T12:26:49.082Z</time></trkpt><trkpt lat="37.1180153" lon="-1.0629064"><ele>0.0</ele><time>2026-04-29T12:26:50.083Z</time></trkpt><trkpt lat="37.118065" lon="-1.0628196"><ele>0.0</ele><time>2026-04-29T12:26:51.082Z</time></trkpt><trkpt lat="37.118119" lon="-1.0627346"><ele>0.0</ele><time>2026-04-29T12:26:52.082Z</time></trkpt><trkpt lat="37.1181697" lon="-1.0626439"><ele>0.0</ele><time>2026-04-29T12:26:53.082Z</time></trkpt><trkpt lat="37.1182185" lon="-1.0625511"><ele>0.0</ele><time>2026-04-29T12:26:54.082Z</time></trkpt><trkpt lat="37.1182714" lon="-1.0624547"><ele>0.0</ele><time>2026-04-29T12:26:55.083Z</time></trkpt><trkpt lat="37.1183216" lon="-1.0623609"><ele>0.0</ele><time>2026-04-29T12:26:56.082Z</time></trkpt><trkpt lat="37.1183704" lon="-1.0622719"><ele>0.0</ele><time>2026-04-29T12:26:57.082Z</time></trkpt><trkpt lat="37.1184173" lon="-1.0621789"><ele>0.0</ele><time>2026-04-29T12:26:58.083Z</time></trkpt><trkpt lat="37.1184695" lon="-1.0620872"><ele>0.0</ele><time>2026-04-29T12:26:59.083Z</time></trkpt><trkpt lat="37.1185184" lon="-1.0620013"><ele>0.0</ele><time>2026-04-29T12:27:00.082Z</time></trkpt><trkpt lat="37.1185682" lon="-1.0619148"><ele>0.0</ele><time>2026-04-29T12:27:01.083Z</time></trkpt><trkpt lat="37.1186181" lon="-1.0618225"><ele>0.0</ele><time>2026-04-29T12:27:02.082Z</time></trkpt><trkpt lat="37.118664" lon="-1.0617376"><ele>0.0</ele><time>2026-04-29T12:27:03.082Z</time></trkpt><trkpt lat="37.1187149" lon="-1.0616486"><ele>0.0</ele><time>2026-04-29T12:27:04.082Z</time></trkpt><trkpt lat="37.1188039" lon="-1.0614731"><ele>0.0</ele><time>2026-04-29T12:27:06.083Z</time></trkpt><trkpt lat="37.1188506" lon="-1.0613833"><ele>0.0</ele><time>2026-04-29T12:27:07.083Z</time></trkpt><trkpt lat="37.1188931" lon="-1.0612906"><ele>0.0</ele><time>2026-04-29T12:27:08.082Z</time></trkpt><trkpt lat="37.1189405" lon="-1.0612016"><ele>0.0</ele><time>2026-04-29T12:27:09.083Z</time></trkpt><trkpt lat="37.1189844" lon="-1.0611174"><ele>0.0</ele><time>2026-04-29T12:27:10.082Z</time></trkpt><trkpt lat="37.1190304" lon="-1.0610296"><ele>0.0</ele><time>2026-04-29T12:27:11.083Z</time></trkpt><trkpt lat="37.1190774" lon="-1.0609403"><ele>0.0</ele><time>2026-04-29T12:27:12.083Z</time></trkpt><trkpt lat="37.1191267" lon="-1.0608503"><ele>0.0</ele><time>2026-04-29T12:27:13.082Z</time></trkpt><trkpt lat="37.1191752" lon="-1.0607617"><ele>0.0</ele><time>2026-04-29T12:27:14.083Z</time></trkpt><trkpt lat="37.1192262" lon="-1.0606722"><ele>0.0</ele><time>2026-04-29T12:27:15.082Z</time></trkpt><trkpt lat="37.1192765" lon="-1.0605745"><ele>0.0</ele><time>2026-04-29T12:27:16.083Z</time></trkpt><trkpt lat="37.1193292" lon="-1.0604766"><ele>0.0</ele><time>2026-04-29T12:27:17.083Z</time></trkpt><trkpt lat="37.1193756" lon="-1.060384"><ele>0.0</ele><time>2026-04-29T12:27:18.083Z</time></trkpt><trkpt lat="37.1194238" lon="-1.0602975"><ele>0.0</ele><time>2026-04-29T12:27:19.082Z</time></trkpt><trkpt lat="37.1194705" lon="-1.0602122"><ele>0.0</ele><time>2026-04-29T12:27:20.083Z</time></trkpt><trkpt lat="37.1195201" lon="-1.0601237"><ele>0.0</ele><time>2026-04-29T12:27:21.082Z</time></trkpt><trkpt lat="37.1195701" lon="-1.0600353"><ele>0.0</ele><time>2026-04-29T12:27:22.082Z</time></trkpt><trkpt lat="37.11962" lon="-1.0599451"><ele>0.0</ele><time>2026-04-29T12:27:23.083Z</time></trkpt><trkpt lat="37.1196687" lon="-1.0598582"><ele>0.0</ele><time>2026-04-29T12:27:24.082Z</time></trkpt><trkpt lat="37.1197141" lon="-1.0597685"><ele>0.0</ele><time>2026-04-29T12:27:25.083Z</time></trkpt><trkpt lat="37.1198068" lon="-1.0595905"><ele>0.0</ele><time>2026-04-29T12:27:27.082Z</time></trkpt><trkpt lat="37.1198522" lon="-1.059503"><ele>0.0</ele><time>2026-04-29T12:27:28.083Z</time></trkpt><trkpt lat="37.1198973" lon="-1.0594166"><ele>0.0</ele><time>2026-04-29T12:27:29.082Z</time></trkpt><trkpt lat="37.1199448" lon="-1.0593226"><ele>0.0</ele><time>2026-04-29T12:27:30.083Z</time></trkpt><trkpt lat="37.1199919" lon="-1.0592305"><ele>0.0</ele><time>2026-04-29T12:27:31.082Z</time></trkpt><trkpt lat="37.12004" lon="-1.0591402"><ele>0.0</ele><time>2026-04-29T12:27:32.083Z</time></trkpt><trkpt lat="37.1200899" lon="-1.0590488"><ele>0.0</ele><time>2026-04-29T12:27:33.082Z</time></trkpt><trkpt lat="37.1201385" lon="-1.0589558"><ele>0.0</ele><time>2026-04-29T12:27:34.083Z</time></trkpt><trkpt lat="37.1201855" lon="-1.0588696"><ele>0.0</ele><time>2026-04-29T12:27:35.082Z</time></trkpt><trkpt lat="37.1202279" lon="-1.0587804"><ele>0.0</ele><time>2026-04-29T12:27:36.083Z</time></trkpt><trkpt lat="37.1202753" lon="-1.0586947"><ele>0.0</ele><time>2026-04-29T12:27:37.083Z</time></trkpt><trkpt lat="37.1203264" lon="-1.0586038"><ele>0.0</ele><time>2026-04-29T12:27:38.083Z</time></trkpt><trkpt lat="37.120381" lon="-1.058511"><ele>0.0</ele><time>2026-04-29T12:27:39.083Z</time></trkpt><trkpt lat="37.1204317" lon="-1.0584262"><ele>0.0</ele><time>2026-04-29T12:27:40.083Z</time></trkpt><trkpt lat="37.1204846" lon="-1.058337"><ele>0.0</ele><time>2026-04-29T12:27:41.082Z</time></trkpt><trkpt lat="37.1205366" lon="-1.0582501"><ele>0.0</ele><time>2026-04-29T12:27:42.083Z</time></trkpt><trkpt lat="37.120588" lon="-1.058162"><ele>0.0</ele><time>2026-04-29T12:27:43.083Z</time></trkpt><trkpt lat="37.1206397" lon="-1.0580724"><ele>0.0</ele><time>2026-04-29T12:27:44.083Z</time></trkpt><trkpt lat="37.1206929" lon="-1.0579854"><ele>0.0</ele><time>2026-04-29T12:27:45.082Z</time></trkpt><trkpt lat="37.120745" lon="-1.0578998"><ele>0.0</ele><time>2026-04-29T12:27:46.082Z</time></trkpt><trkpt lat="37.1208563" lon="-1.0577318"><ele>0.0</ele><time>2026-04-29T12:27:48.082Z</time></trkpt><trkpt lat="37.1209153" lon="-1.0576467"><ele>0.0</ele><time>2026-04-29T12:27:49.082Z</time></trkpt><trkpt lat="37.1209749" lon="-1.0575554"><ele>0.0</ele><time>2026-04-29T12:27:50.083Z</time></trkpt><trkpt lat="37.1210292" lon="-1.0574698"><ele>0.0</ele><time>2026-04-29T12:27:51.082Z</time></trkpt><trkpt lat="37.1210873" lon="-1.057385"><ele>0.0</ele><time>2026-04-29T12:27:52.082Z</time></trkpt><trkpt lat="37.1211402" lon="-1.0573045"><ele>0.0</ele><time>2026-04-29T12:27:53.082Z</time></trkpt><trkpt lat="37.1211961" lon="-1.0572185"><ele>0.0</ele><time>2026-04-29T12:27:54.082Z</time></trkpt><trkpt lat="37.1212516" lon="-1.0571344"><ele>0.0</ele><time>2026-04-29T12:27:55.082Z</time></trkpt><trkpt lat="37.1213039" lon="-1.0570529"><ele>0.0</ele><time>2026-04-29T12:27:56.082Z</time></trkpt><trkpt lat="37.1213484" lon="-1.0569696"><ele>0.0</ele><time>2026-04-29T12:27:57.083Z</time></trkpt><trkpt lat="37.1213959" lon="-1.0568892"><ele>0.0</ele><time>2026-04-29T12:27:58.082Z</time></trkpt><trkpt lat="37.1214481" lon="-1.0568048"><ele>0.0</ele><time>2026-04-29T12:27:59.083Z</time></trkpt><trkpt lat="37.1214984" lon="-1.0567126"><ele>0.0</ele><time>2026-04-29T12:28:00.082Z</time></trkpt><trkpt lat="37.121547" lon="-1.0566194"><ele>0.0</ele><time>2026-04-29T12:28:01.082Z</time></trkpt><trkpt lat="37.1215884" lon="-1.0565261"><ele>0.0</ele><time>2026-04-29T12:28:02.083Z</time></trkpt><trkpt lat="37.1216383" lon="-1.0564296"><ele>0.0</ele><time>2026-04-29T12:28:03.083Z</time></trkpt><trkpt lat="37.1216884" lon="-1.0563375"><ele>0.0</ele><time>2026-04-29T12:28:04.083Z</time></trkpt><trkpt lat="37.1217372" lon="-1.0562502"><ele>0.0</ele><time>2026-04-29T12:28:05.082Z</time></trkpt><trkpt lat="37.1217901" lon="-1.0561649"><ele>0.0</ele><time>2026-04-29T12:28:06.083Z</time></trkpt><trkpt lat="37.1218418" lon="-1.0560754"><ele>0.0</ele><time>2026-04-29T12:28:07.083Z</time></trkpt><trkpt lat="37.1219361" lon="-1.0558927"><ele>0.0</ele><time>2026-04-29T12:28:09.082Z</time></trkpt><trkpt lat="37.1219882" lon="-1.0558021"><ele>0.0</ele><time>2026-04-29T12:28:10.083Z</time></trkpt><trkpt lat="37.1220414" lon="-1.0557105"><ele>0.0</ele><time>2026-04-29T12:28:11.082Z</time></trkpt><trkpt lat="37.1220974" lon="-1.0556246"><ele>0.0</ele><time>2026-04-29T12:28:12.082Z</time></trkpt><trkpt lat="37.122151" lon="-1.0555336"><ele>0.0</ele><time>2026-04-29T12:28:13.083Z</time></trkpt><trkpt lat="37.1222046" lon="-1.0554465"><ele>0.0</ele><time>2026-04-29T12:28:14.082Z</time></trkpt><trkpt lat="37.1222566" lon="-1.055361"><ele>0.0</ele><time>2026-04-29T12:28:15.083Z</time></trkpt><trkpt lat="37.1223069" lon="-1.055276"><ele>0.0</ele><time>2026-04-29T12:28:16.082Z</time></trkpt><trkpt lat="37.1223584" lon="-1.0551941"><ele>0.0</ele><time>2026-04-29T12:28:17.082Z</time></trkpt><trkpt lat="37.1224097" lon="-1.0551078"><ele>0.0</ele><time>2026-04-29T12:28:18.082Z</time></trkpt><trkpt lat="37.1224619" lon="-1.0550246"><ele>0.0</ele><time>2026-04-29T12:28:19.082Z</time></trkpt><trkpt lat="37.1225149" lon="-1.0549368"><ele>0.0</ele><time>2026-04-29T12:28:20.082Z</time></trkpt><trkpt lat="37.1225666" lon="-1.0548455"><ele>0.0</ele><time>2026-04-29T12:28:21.083Z</time></trkpt><trkpt lat="37.1226141" lon="-1.0547584"><ele>0.0</ele><time>2026-04-29T12:28:22.083Z</time></trkpt><trkpt lat="37.1226619" lon="-1.0546759"><ele>0.0</ele><time>2026-04-29T12:28:23.083Z</time></trkpt><trkpt lat="37.1227145" lon="-1.0545857"><ele>0.0</ele><time>2026-04-29T12:28:24.083Z</time></trkpt><trkpt lat="37.1227635" lon="-1.054498"><ele>0.0</ele><time>2026-04-29T12:28:25.082Z</time></trkpt><trkpt lat="37.1228146" lon="-1.0544128"><ele>0.0</ele><time>2026-04-29T12:28:26.082Z</time></trkpt><trkpt lat="37.1228665" lon="-1.0543208"><ele>0.0</ele><time>2026-04-29T12:28:27.083Z</time></trkpt><trkpt lat="37.1229181" lon="-1.054229"><ele>0.0</ele><time>2026-04-29T12:28:28.082Z</time></trkpt><trkpt lat="37.1230153" lon="-1.0540498"><ele>0.0</ele><time>2026-04-29T12:28:30.082Z</time></trkpt><trkpt lat="37.123065" lon="-1.0539587"><ele>0.0</ele><time>2026-04-29T12:28:31.082Z</time></trkpt><trkpt lat="37.1231164" lon="-1.0538684"><ele>0.0</ele><time>2026-04-29T12:28:32.082Z</time></trkpt><trkpt lat="37.1231668" lon="-1.0537815"><ele>0.0</ele><time>2026-04-29T12:28:33.083Z</time></trkpt><trkpt lat="37.1232152" lon="-1.0536932"><ele>0.0</ele><time>2026-04-29T12:28:34.082Z</time></trkpt><trkpt lat="37.1232668" lon="-1.053608"><ele>0.0</ele><time>2026-04-29T12:28:35.083Z</time></trkpt><trkpt lat="37.1233157" lon="-1.0535214"><ele>0.0</ele><time>2026-04-29T12:28:36.082Z</time></trkpt><trkpt lat="37.1233668" lon="-1.0534318"><ele>0.0</ele><time>2026-04-29T12:28:37.082Z</time></trkpt><trkpt lat="37.1234182" lon="-1.0533378"><ele>0.0</ele><time>2026-04-29T12:28:38.083Z</time></trkpt><trkpt lat="37.1234682" lon="-1.0532456"><ele>0.0</ele><time>2026-04-29T12:28:39.083Z</time></trkpt><trkpt lat="37.1235167" lon="-1.0531598"><ele>0.0</ele><time>2026-04-29T12:28:40.082Z</time></trkpt><trkpt lat="37.1235656" lon="-1.0530742"><ele>0.0</ele><time>2026-04-29T12:28:41.082Z</time></trkpt><trkpt lat="37.1236107" lon="-1.0529838"><ele>0.0</ele><time>2026-04-29T12:28:42.083Z</time></trkpt><trkpt lat="37.1236603" lon="-1.0528923"><ele>0.0</ele><time>2026-04-29T12:28:43.083Z</time></trkpt><trkpt lat="37.1237128" lon="-1.0528047"><ele>0.0</ele><time>2026-04-29T12:28:44.082Z</time></trkpt><trkpt lat="37.1237646" lon="-1.0527166"><ele>0.0</ele><time>2026-04-29T12:28:45.083Z</time></trkpt><trkpt lat="37.1238138" lon="-1.05263"><ele>0.0</ele><time>2026-04-29T12:28:46.082Z</time></trkpt><trkpt lat="37.1238637" lon="-1.0525462"><ele>0.0</ele><time>2026-04-29T12:28:47.082Z</time></trkpt><trkpt lat="37.1239123" lon="-1.0524585"><ele>0.0</ele><time>2026-04-29T12:28:48.082Z</time></trkpt><trkpt lat="37.1239623" lon="-1.0523686"><ele>0.0</ele><time>2026-04-29T12:28:49.082Z</time></trkpt><trkpt lat="37.1240575" lon="-1.0522025"><ele>0.0</ele><time>2026-04-29T12:28:51.082Z</time></trkpt><trkpt lat="37.1241084" lon="-1.052118"><ele>0.0</ele><time>2026-04-29T12:28:52.082Z</time></trkpt><trkpt lat="37.1241614" lon="-1.0520289"><ele>0.0</ele><time>2026-04-29T12:28:53.082Z</time></trkpt><trkpt lat="37.1242119" lon="-1.0519419"><ele>0.0</ele><time>2026-04-29T12:28:54.082Z</time></trkpt><trkpt lat="37.1242633" lon="-1.0518524"><ele>0.0</ele><time>2026-04-29T12:28:55.082Z</time></trkpt><trkpt lat="37.1243151" lon="-1.0517623"><ele>0.0</ele><time>2026-04-29T12:28:56.082Z</time></trkpt><trkpt lat="37.1243635" lon="-1.0516691"><ele>0.0</ele><time>2026-04-29T12:28:57.083Z</time></trkpt><trkpt lat="37.1244107" lon="-1.0515829"><ele>0.0</ele><time>2026-04-29T12:28:58.083Z</time></trkpt><trkpt lat="37.1244601" lon="-1.0514962"><ele>0.0</ele><time>2026-04-29T12:28:59.082Z</time></trkpt><trkpt lat="37.1245101" lon="-1.0514098"><ele>0.0</ele><time>2026-04-29T12:29:00.083Z</time></trkpt><trkpt lat="37.1245617" lon="-1.0513233"><ele>0.0</ele><time>2026-04-29T12:29:01.083Z</time></trkpt><trkpt lat="37.1246178" lon="-1.0512349"><ele>0.0</ele><time>2026-04-29T12:29:02.083Z</time></trkpt><trkpt lat="37.124677" lon="-1.0511534"><ele>0.0</ele><time>2026-04-29T12:29:03.083Z</time></trkpt><trkpt lat="37.1247325" lon="-1.0510697"><ele>0.0</ele><time>2026-04-29T12:29:04.082Z</time></trkpt><trkpt lat="37.1247834" lon="-1.0509891"><ele>0.0</ele><time>2026-04-29T12:29:05.082Z</time></trkpt><trkpt lat="37.1248406" lon="-1.050902"><ele>0.0</ele><time>2026-04-29T12:29:06.083Z</time></trkpt><trkpt lat="37.1248947" lon="-1.0508149"><ele>0.0</ele><time>2026-04-29T12:29:07.082Z</time></trkpt><trkpt lat="37.1249481" lon="-1.0507282"><ele>0.0</ele><time>2026-04-29T12:29:08.082Z</time></trkpt><trkpt lat="37.1249987" lon="-1.0506443"><ele>0.0</ele><time>2026-04-29T12:29:09.081Z</time></trkpt><trkpt lat="37.1250499" lon="-1.0505609"><ele>0.0</ele><time>2026-04-29T12:29:10.082Z</time></trkpt><trkpt lat="37.1251515" lon="-1.0503912"><ele>0.0</ele><time>2026-04-29T12:29:12.081Z</time></trkpt><trkpt lat="37.1252019" lon="-1.0503008"><ele>0.0</ele><time>2026-04-29T12:29:13.082Z</time></trkpt><trkpt lat="37.1252533" lon="-1.0502089"><ele>0.0</ele><time>2026-04-29T12:29:14.081Z</time></trkpt><trkpt lat="37.1253065" lon="-1.0501175"><ele>0.0</ele><time>2026-04-29T12:29:15.082Z</time></trkpt><trkpt lat="37.1253597" lon="-1.0500302"><ele>0.0</ele><time>2026-04-29T12:29:16.082Z</time></trkpt><trkpt lat="37.1254086" lon="-1.0499348"><ele>0.0</ele><time>2026-04-29T12:29:17.082Z</time></trkpt><trkpt lat="37.1254569" lon="-1.049848"><ele>0.0</ele><time>2026-04-29T12:29:18.082Z</time></trkpt><trkpt lat="37.125507" lon="-1.0497574"><ele>0.0</ele><time>2026-04-29T12:29:19.081Z</time></trkpt><trkpt lat="37.1255525" lon="-1.049666"><ele>0.0</ele><time>2026-04-29T12:29:20.081Z</time></trkpt><trkpt lat="37.1255975" lon="-1.0495726"><ele>0.0</ele><time>2026-04-29T12:29:21.082Z</time></trkpt><trkpt lat="37.1256441" lon="-1.0494821"><ele>0.0</ele><time>2026-04-29T12:29:22.081Z</time></trkpt><trkpt lat="37.1256878" lon="-1.0493919"><ele>0.0</ele><time>2026-04-29T12:29:23.082Z</time></trkpt><trkpt lat="37.1257394" lon="-1.0492994"><ele>0.0</ele><time>2026-04-29T12:29:24.082Z</time></trkpt><trkpt lat="37.1257919" lon="-1.0492119"><ele>0.0</ele><time>2026-04-29T12:29:25.081Z</time></trkpt><trkpt lat="37.1258415" lon="-1.0491208"><ele>0.0</ele><time>2026-04-29T12:29:26.081Z</time></trkpt><trkpt lat="37.1258915" lon="-1.0490305"><ele>0.0</ele><time>2026-04-29T12:29:27.081Z</time></trkpt><trkpt lat="37.1259432" lon="-1.0489404"><ele>0.0</ele><time>2026-04-29T12:29:28.082Z</time></trkpt><trkpt lat="37.1259937" lon="-1.0488556"><ele>0.0</ele><time>2026-04-29T12:29:29.082Z</time></trkpt><trkpt lat="37.1260407" lon="-1.0487711"><ele>0.0</ele><time>2026-04-29T12:29:30.082Z</time></trkpt><trkpt lat="37.1260888" lon="-1.0486834"><ele>0.0</ele><time>2026-04-29T12:29:31.081Z</time></trkpt><trkpt lat="37.1261851" lon="-1.0485002"><ele>0.0</ele><time>2026-04-29T12:29:33.082Z</time></trkpt><trkpt lat="37.126235" lon="-1.0484087"><ele>0.0</ele><time>2026-04-29T12:29:34.081Z</time></trkpt><trkpt lat="37.1262849" lon="-1.0483201"><ele>0.0</ele><time>2026-04-29T12:29:35.082Z</time></trkpt><trkpt lat="37.126332" lon="-1.0482357"><ele>0.0</ele><time>2026-04-29T12:29:36.081Z</time></trkpt><trkpt lat="37.1263775" lon="-1.0481437"><ele>0.0</ele><time>2026-04-29T12:29:37.082Z</time></trkpt><trkpt lat="37.1264279" lon="-1.0480521"><ele>0.0</ele><time>2026-04-29T12:29:38.081Z</time></trkpt><trkpt lat="37.1264808" lon="-1.0479619"><ele>0.0</ele><time>2026-04-29T12:29:39.082Z</time></trkpt><trkpt lat="37.1265359" lon="-1.0478749"><ele>0.0</ele><time>2026-04-29T12:29:40.082Z</time></trkpt><trkpt lat="37.1265838" lon="-1.047791"><ele>0.0</ele><time>2026-04-29T12:29:41.082Z</time></trkpt><trkpt lat="37.1266338" lon="-1.0476976"><ele>0.0</ele><time>2026-04-29T12:29:42.082Z</time></trkpt><trkpt lat="37.1266834" lon="-1.0476098"><ele>0.0</ele><time>2026-04-29T12:29:43.081Z</time></trkpt><trkpt lat="37.1267331" lon="-1.0475185"><ele>0.0</ele><time>2026-04-29T12:29:44.082Z</time></trkpt><trkpt lat="37.1267833" lon="-1.0474283"><ele>0.0</ele><time>2026-04-29T12:29:45.081Z</time></trkpt><trkpt lat="37.1268317" lon="-1.0473355"><ele>0.0</ele><time>2026-04-29T12:29:46.082Z</time></trkpt><trkpt lat="37.1268828" lon="-1.0472394"><ele>0.0</ele><time>2026-04-29T12:29:47.081Z</time></trkpt><trkpt lat="37.1269345" lon="-1.0471516"><ele>0.0</ele><time>2026-04-29T12:29:48.082Z</time></trkpt><trkpt lat="37.1269796" lon="-1.0470664"><ele>0.0</ele><time>2026-04-29T12:29:49.082Z</time></trkpt><trkpt lat="37.1270313" lon="-1.0469797"><ele>0.0</ele><time>2026-04-29T12:29:50.082Z</time></trkpt><trkpt lat="37.1270803" lon="-1.0468917"><ele>0.0</ele><time>2026-04-29T12:29:51.082Z</time></trkpt><trkpt lat="37.1271258" lon="-1.0468004"><ele>0.0</ele><time>2026-04-29T12:29:52.081Z</time></trkpt><trkpt lat="37.1272219" lon="-1.0466265"><ele>0.0</ele><time>2026-04-29T12:29:54.082Z</time></trkpt><trkpt lat="37.127272" lon="-1.0465429"><ele>0.0</ele><time>2026-04-29T12:29:55.082Z</time></trkpt><trkpt lat="37.1273178" lon="-1.0464511"><ele>0.0</ele><time>2026-04-29T12:29:56.081Z</time></trkpt><trkpt lat="37.1273672" lon="-1.0463607"><ele>0.0</ele><time>2026-04-29T12:29:57.081Z</time></trkpt><trkpt lat="37.1274141" lon="-1.0462717"><ele>0.0</ele><time>2026-04-29T12:29:58.081Z</time></trkpt><trkpt lat="37.1274577" lon="-1.046182"><ele>0.0</ele><time>2026-04-29T12:29:59.081Z</time></trkpt><trkpt lat="37.1275081" lon="-1.0460934"><ele>0.0</ele><time>2026-04-29T12:30:00.082Z</time></trkpt><trkpt lat="37.1275583" lon="-1.0460094"><ele>0.0</ele><time>2026-04-29T12:30:01.081Z</time></trkpt><trkpt lat="37.12761" lon="-1.0459262"><ele>0.0</ele><time>2026-04-29T12:30:02.082Z</time></trkpt><trkpt lat="37.1276616" lon="-1.0458416"><ele>0.0</ele><time>2026-04-29T12:30:03.082Z</time></trkpt><trkpt lat="37.1277151" lon="-1.0457536"><ele>0.0</ele><time>2026-04-29T12:30:04.082Z</time></trkpt><trkpt lat="37.1277637" lon="-1.045675"><ele>0.0</ele><time>2026-04-29T12:30:05.081Z</time></trkpt><trkpt lat="37.1278165" lon="-1.0455842"><ele>0.0</ele><time>2026-04-29T12:30:06.082Z</time></trkpt><trkpt lat="37.1278682" lon="-1.0454924"><ele>0.0</ele><time>2026-04-29T12:30:07.082Z</time></trkpt><trkpt lat="37.1279212" lon="-1.0454031"><ele>0.0</ele><time>2026-04-29T12:30:08.082Z</time></trkpt><trkpt lat="37.1279736" lon="-1.0453152"><ele>0.0</ele><time>2026-04-29T12:30:09.081Z</time></trkpt><trkpt lat="37.1280265" lon="-1.0452256"><ele>0.0</ele><time>2026-04-29T12:30:10.081Z</time></trkpt><trkpt lat="37.1280754" lon="-1.0451382"><ele>0.0</ele><time>2026-04-29T12:30:11.081Z</time></trkpt><trkpt lat="37.1281265" lon="-1.0450527"><ele>0.0</ele><time>2026-04-29T12:30:12.081Z</time></trkpt><trkpt lat="37.1281756" lon="-1.0449708"><ele>0.0</ele><time>2026-04-29T12:30:13.082Z</time></trkpt><trkpt lat="37.128281" lon="-1.0447979"><ele>0.0</ele><time>2026-04-29T12:30:15.082Z</time></trkpt><trkpt lat="37.1283346" lon="-1.0447088"><ele>0.0</ele><time>2026-04-29T12:30:16.081Z</time></trkpt><trkpt lat="37.1283881" lon="-1.0446175"><ele>0.0</ele><time>2026-04-29T12:30:17.082Z</time></trkpt><trkpt lat="37.1284382" lon="-1.0445256"><ele>0.0</ele><time>2026-04-29T12:30:18.081Z</time></trkpt><trkpt lat="37.1284843" lon="-1.0444339"><ele>0.0</ele><time>2026-04-29T12:30:19.082Z</time></trkpt><trkpt lat="37.1285306" lon="-1.0443492"><ele>0.0</ele><time>2026-04-29T12:30:20.081Z</time></trkpt><trkpt lat="37.1285786" lon="-1.0442601"><ele>0.0</ele><time>2026-04-29T12:30:21.081Z</time></trkpt><trkpt lat="37.1286315" lon="-1.044172"><ele>0.0</ele><time>2026-04-29T12:30:22.082Z</time></trkpt><trkpt lat="37.1286861" lon="-1.044088"><ele>0.0</ele><time>2026-04-29T12:30:23.081Z</time></trkpt><trkpt lat="37.1287412" lon="-1.0440058"><ele>0.0</ele><time>2026-04-29T12:30:24.082Z</time></trkpt><trkpt lat="37.1287961" lon="-1.0439227"><ele>0.0</ele><time>2026-04-29T12:30:25.081Z</time></trkpt><trkpt lat="37.1288524" lon="-1.0438405"><ele>0.0</ele><time>2026-04-29T12:30:26.082Z</time></trkpt><trkpt lat="37.1289075" lon="-1.0437575"><ele>0.0</ele><time>2026-04-29T12:30:27.081Z</time></trkpt><trkpt lat="37.1289598" lon="-1.0436661"><ele>0.0</ele><time>2026-04-29T12:30:28.081Z</time></trkpt><trkpt lat="37.1290102" lon="-1.0435698"><ele>0.0</ele><time>2026-04-29T12:30:29.081Z</time></trkpt><trkpt lat="37.129059" lon="-1.0434747"><ele>0.0</ele><time>2026-04-29T12:30:30.082Z</time></trkpt><trkpt lat="37.1291086" lon="-1.0433879"><ele>0.0</ele><time>2026-04-29T12:30:31.081Z</time></trkpt><trkpt lat="37.1291542" lon="-1.0432959"><ele>0.0</ele><time>2026-04-29T12:30:32.081Z</time></trkpt><trkpt lat="37.1291993" lon="-1.0431972"><ele>0.0</ele><time>2026-04-29T12:30:33.081Z</time></trkpt><trkpt lat="37.1292485" lon="-1.0431026"><ele>0.0</ele><time>2026-04-29T12:30:34.082Z</time></trkpt><trkpt lat="37.1293485" lon="-1.0429263"><ele>0.0</ele><time>2026-04-29T12:30:36.081Z</time></trkpt><trkpt lat="37.1293999" lon="-1.0428426"><ele>0.0</ele><time>2026-04-29T12:30:37.081Z</time></trkpt><trkpt lat="37.129456" lon="-1.0427663"><ele>0.0</ele><time>2026-04-29T12:30:38.082Z</time></trkpt><trkpt lat="37.1295165" lon="-1.0426825"><ele>0.0</ele><time>2026-04-29T12:30:39.081Z</time></trkpt><trkpt lat="37.129567" lon="-1.0425979"><ele>0.0</ele><time>2026-04-29T12:30:40.081Z</time></trkpt><trkpt lat="37.1296199" lon="-1.0425087"><ele>0.0</ele><time>2026-04-29T12:30:41.081Z</time></trkpt><trkpt lat="37.1296718" lon="-1.0424203"><ele>0.0</ele><time>2026-04-29T12:30:42.082Z</time></trkpt><trkpt lat="37.1297291" lon="-1.0423333"><ele>0.0</ele><time>2026-04-29T12:30:43.081Z</time></trkpt><trkpt lat="37.1297811" lon="-1.0422465"><ele>0.0</ele><time>2026-04-29T12:30:44.081Z</time></trkpt><trkpt lat="37.1298318" lon="-1.0421681"><ele>0.0</ele><time>2026-04-29T12:30:45.081Z</time></trkpt><trkpt lat="37.129879" lon="-1.0420772"><ele>0.0</ele><time>2026-04-29T12:30:46.081Z</time></trkpt><trkpt lat="37.1299214" lon="-1.0419911"><ele>0.0</ele><time>2026-04-29T12:30:47.081Z</time></trkpt><trkpt lat="37.129966" lon="-1.0419017"><ele>0.0</ele><time>2026-04-29T12:30:48.082Z</time></trkpt><trkpt lat="37.1300137" lon="-1.0418076"><ele>0.0</ele><time>2026-04-29T12:30:49.081Z</time></trkpt><trkpt lat="37.1300663" lon="-1.0417144"><ele>0.0</ele><time>2026-04-29T12:30:50.081Z</time></trkpt><trkpt lat="37.1301137" lon="-1.041618"><ele>0.0</ele><time>2026-04-29T12:30:51.081Z</time></trkpt><trkpt lat="37.1301593" lon="-1.0415258"><ele>0.0</ele><time>2026-04-29T12:30:52.081Z</time></trkpt><trkpt lat="37.1302073" lon="-1.0414368"><ele>0.0</ele><time>2026-04-29T12:30:53.082Z</time></trkpt><trkpt lat="37.1302573" lon="-1.0413543"><ele>0.0</ele><time>2026-04-29T12:30:54.082Z</time></trkpt><trkpt lat="37.1303112" lon="-1.0412722"><ele>0.0</ele><time>2026-04-29T12:30:55.081Z</time></trkpt><trkpt lat="37.1304085" lon="-1.041109"><ele>0.0</ele><time>2026-04-29T12:30:57.081Z</time></trkpt><trkpt lat="37.1304629" lon="-1.0410189"><ele>0.0</ele><time>2026-04-29T12:30:58.082Z</time></trkpt><trkpt lat="37.1305193" lon="-1.0409306"><ele>0.0</ele><time>2026-04-29T12:30:59.082Z</time></trkpt><trkpt lat="37.1305769" lon="-1.0408322"><ele>0.0</ele><time>2026-04-29T12:31:00.081Z</time></trkpt><trkpt lat="37.1306364" lon="-1.0407481"><ele>0.0</ele><time>2026-04-29T12:31:01.081Z</time></trkpt><trkpt lat="37.130691" lon="-1.0406615"><ele>0.0</ele><time>2026-04-29T12:31:02.082Z</time></trkpt><trkpt lat="37.1307445" lon="-1.0405772"><ele>0.0</ele><time>2026-04-29T12:31:03.082Z</time></trkpt><trkpt lat="37.1307993" lon="-1.0404871"><ele>0.0</ele><time>2026-04-29T12:31:04.081Z</time></trkpt><trkpt lat="37.130864" lon="-1.0404071"><ele>0.0</ele><time>2026-04-29T12:31:05.082Z</time></trkpt><trkpt lat="37.1309149" lon="-1.0403185"><ele>0.0</ele><time>2026-04-29T12:31:06.082Z</time></trkpt><trkpt lat="37.1309622" lon="-1.0402261"><ele>0.0</ele><time>2026-04-29T12:31:07.081Z</time></trkpt><trkpt lat="37.1310079" lon="-1.0401299"><ele>0.0</ele><time>2026-04-29T12:31:08.082Z</time></trkpt><trkpt lat="37.1310544" lon="-1.040039"><ele>0.0</ele><time>2026-04-29T12:31:09.082Z</time></trkpt><trkpt lat="37.1311009" lon="-1.0399529"><ele>0.0</ele><time>2026-04-29T12:31:10.081Z</time></trkpt><trkpt lat="37.1311587" lon="-1.0398697"><ele>0.0</ele><time>2026-04-29T12:31:11.081Z</time></trkpt><trkpt lat="37.13122" lon="-1.0397847"><ele>0.0</ele><time>2026-04-29T12:31:12.081Z</time></trkpt><trkpt lat="37.1312761" lon="-1.0396995"><ele>0.0</ele><time>2026-04-29T12:31:13.082Z</time></trkpt><trkpt lat="37.1313285" lon="-1.039619"><ele>0.0</ele><time>2026-04-29T12:31:14.081Z</time></trkpt><trkpt lat="37.1313816" lon="-1.0395307"><ele>0.0</ele><time>2026-04-29T12:31:15.081Z</time></trkpt><trkpt lat="37.13148" lon="-1.0393597"><ele>0.0</ele><time>2026-04-29T12:31:17.081Z</time></trkpt><trkpt lat="37.1315341" lon="-1.039273"><ele>0.0</ele><time>2026-04-29T12:31:18.082Z</time></trkpt><trkpt lat="37.131585" lon="-1.0391864"><ele>0.0</ele><time>2026-04-29T12:31:19.082Z</time></trkpt><trkpt lat="37.1316368" lon="-1.0390999"><ele>0.0</ele><time>2026-04-29T12:31:20.081Z</time></trkpt><trkpt lat="37.1316853" lon="-1.0390134"><ele>0.0</ele><time>2026-04-29T12:31:21.082Z</time></trkpt><trkpt lat="37.1317353" lon="-1.0389292"><ele>0.0</ele><time>2026-04-29T12:31:22.082Z</time></trkpt><trkpt lat="37.1317866" lon="-1.0388375"><ele>0.0</ele><time>2026-04-29T12:31:23.081Z</time></trkpt><trkpt lat="37.1318338" lon="-1.0387482"><ele>0.0</ele><time>2026-04-29T12:31:24.082Z</time></trkpt><trkpt lat="37.1318821" lon="-1.0386601"><ele>0.0</ele><time>2026-04-29T12:31:25.081Z</time></trkpt><trkpt lat="37.1319335" lon="-1.0385634"><ele>0.0</ele><time>2026-04-29T12:31:26.081Z</time></trkpt><trkpt lat="37.1319805" lon="-1.038468"><ele>0.0</ele><time>2026-04-29T12:31:27.082Z</time></trkpt><trkpt lat="37.1320288" lon="-1.0383744"><ele>0.0</ele><time>2026-04-29T12:31:28.082Z</time></trkpt><trkpt lat="37.1320716" lon="-1.0382865"><ele>0.0</ele><time>2026-04-29T12:31:29.081Z</time></trkpt><trkpt lat="37.1321162" lon="-1.0382012"><ele>0.0</ele><time>2026-04-29T12:31:30.082Z</time></trkpt><trkpt lat="37.1321625" lon="-1.0381148"><ele>0.0</ele><time>2026-04-29T12:31:31.081Z</time></trkpt><trkpt lat="37.1322104" lon="-1.0380282"><ele>0.0</ele><time>2026-04-29T12:31:32.081Z</time></trkpt><trkpt lat="37.1322626" lon="-1.0379388"><ele>0.0</ele><time>2026-04-29T12:31:33.082Z</time></trkpt><trkpt lat="37.1323172" lon="-1.0378559"><ele>0.0</ele><time>2026-04-29T12:31:34.081Z</time></trkpt><trkpt lat="37.1323693" lon="-1.0377709"><ele>0.0</ele><time>2026-04-29T12:31:35.082Z</time></trkpt><trkpt lat="37.1324145" lon="-1.0376807"><ele>0.0</ele><time>2026-04-29T12:31:36.082Z</time></trkpt><trkpt lat="37.1325094" lon="-1.0374967"><ele>0.0</ele><time>2026-04-29T12:31:38.082Z</time></trkpt><trkpt lat="37.1325613" lon="-1.0374054"><ele>0.0</ele><time>2026-04-29T12:31:39.082Z</time></trkpt><trkpt lat="37.1326119" lon="-1.0373138"><ele>0.0</ele><time>2026-04-29T12:31:40.081Z</time></trkpt><trkpt lat="37.1326645" lon="-1.0372193"><ele>0.0</ele><time>2026-04-29T12:31:41.081Z</time></trkpt><trkpt lat="37.1327207" lon="-1.0371317"><ele>0.0</ele><time>2026-04-29T12:31:42.082Z</time></trkpt><trkpt lat="37.1327759" lon="-1.0370463"><ele>0.0</ele><time>2026-04-29T12:31:43.081Z</time></trkpt><trkpt lat="37.1328239" lon="-1.0369582"><ele>0.0</ele><time>2026-04-29T12:31:44.081Z</time></trkpt><trkpt lat="37.1328678" lon="-1.0368699"><ele>0.0</ele><time>2026-04-29T12:31:45.082Z</time></trkpt><trkpt lat="37.1329153" lon="-1.0367831"><ele>0.0</ele><time>2026-04-29T12:31:46.081Z</time></trkpt><trkpt lat="37.1329637" lon="-1.0366979"><ele>0.0</ele><time>2026-04-29T12:31:47.082Z</time></trkpt><trkpt lat="37.1330121" lon="-1.0366069"><ele>0.0</ele><time>2026-04-29T12:31:48.081Z</time></trkpt><trkpt lat="37.1330563" lon="-1.0365184"><ele>0.0</ele><time>2026-04-29T12:31:49.081Z</time></trkpt><trkpt lat="37.1331012" lon="-1.03643"><ele>0.0</ele><time>2026-04-29T12:31:50.082Z</time></trkpt><trkpt lat="37.1331486" lon="-1.0363431"><ele>0.0</ele><time>2026-04-29T12:31:51.082Z</time></trkpt><trkpt lat="37.1331997" lon="-1.0362563"><ele>0.0</ele><time>2026-04-29T12:31:52.082Z</time></trkpt><trkpt lat="37.1332501" lon="-1.036174"><ele>0.0</ele><time>2026-04-29T12:31:53.081Z</time></trkpt><trkpt lat="37.1333056" lon="-1.0360893"><ele>0.0</ele><time>2026-04-29T12:31:54.081Z</time></trkpt><trkpt lat="37.1333581" lon="-1.0360005"><ele>0.0</ele><time>2026-04-29T12:31:55.081Z</time></trkpt><trkpt lat="37.133414" lon="-1.0359105"><ele>0.0</ele><time>2026-04-29T12:31:56.082Z</time></trkpt><trkpt lat="37.1334679" lon="-1.0358222"><ele>0.0</ele><time>2026-04-29T12:31:57.081Z</time></trkpt><trkpt lat="37.1335686" lon="-1.0356426"><ele>0.0</ele><time>2026-04-29T12:31:59.081Z</time></trkpt><trkpt lat="37.1336155" lon="-1.0355496"><ele>0.0</ele><time>2026-04-29T12:32:00.082Z</time></trkpt><trkpt lat="37.1336653" lon="-1.0354578"><ele>0.0</ele><time>2026-04-29T12:32:01.081Z</time></trkpt><trkpt lat="37.1337136" lon="-1.0353688"><ele>0.0</ele><time>2026-04-29T12:32:02.082Z</time></trkpt><trkpt lat="37.1337635" lon="-1.0352791"><ele>0.0</ele><time>2026-04-29T12:32:03.081Z</time></trkpt><trkpt lat="37.1338148" lon="-1.0351946"><ele>0.0</ele><time>2026-04-29T12:32:04.081Z</time></trkpt><trkpt lat="37.1338596" lon="-1.035104"><ele>0.0</ele><time>2026-04-29T12:32:05.081Z</time></trkpt><trkpt lat="37.1339101" lon="-1.035011"><ele>0.0</ele><time>2026-04-29T12:32:06.082Z</time></trkpt><trkpt lat="37.1339659" lon="-1.0349279"><ele>0.0</ele><time>2026-04-29T12:32:07.081Z</time></trkpt><trkpt lat="37.1340194" lon="-1.0348459"><ele>0.0</ele><time>2026-04-29T12:32:08.081Z</time></trkpt><trkpt lat="37.1340741" lon="-1.0347599"><ele>0.0</ele><time>2026-04-29T12:32:09.082Z</time></trkpt><trkpt lat="37.134128" lon="-1.0346694"><ele>0.0</ele><time>2026-04-29T12:32:10.081Z</time></trkpt><trkpt lat="37.1341769" lon="-1.0345819"><ele>0.0</ele><time>2026-04-29T12:32:11.082Z</time></trkpt><trkpt lat="37.1342269" lon="-1.034498"><ele>0.0</ele><time>2026-04-29T12:32:12.081Z</time></trkpt><trkpt lat="37.1342779" lon="-1.0344086"><ele>0.0</ele><time>2026-04-29T12:32:13.081Z</time></trkpt><trkpt lat="37.1343355" lon="-1.0343202"><ele>0.0</ele><time>2026-04-29T12:32:14.081Z</time></trkpt><trkpt lat="37.1343938" lon="-1.0342334"><ele>0.0</ele><time>2026-04-29T12:32:15.081Z</time></trkpt><trkpt lat="37.134452" lon="-1.0341539"><ele>0.0</ele><time>2026-04-29T12:32:16.081Z</time></trkpt><trkpt lat="37.134505" lon="-1.0340697"><ele>0.0</ele><time>2026-04-29T12:32:17.082Z</time></trkpt><trkpt lat="37.1345495" lon="-1.0339846"><ele>0.0</ele><time>2026-04-29T12:32:18.081Z</time></trkpt><trkpt lat="37.1346537" lon="-1.0338021"><ele>0.0</ele><time>2026-04-29T12:32:20.082Z</time></trkpt><trkpt lat="37.1347135" lon="-1.0337194"><ele>0.0</ele><time>2026-04-29T12:32:21.082Z</time></trkpt><trkpt lat="37.1347698" lon="-1.0336333"><ele>0.0</ele><time>2026-04-29T12:32:22.082Z</time></trkpt><trkpt lat="37.1348219" lon="-1.0335455"><ele>0.0</ele><time>2026-04-29T12:32:23.082Z</time></trkpt><trkpt lat="37.1348691" lon="-1.0334572"><ele>0.0</ele><time>2026-04-29T12:32:24.081Z</time></trkpt><trkpt lat="37.1349186" lon="-1.033373"><ele>0.0</ele><time>2026-04-29T12:32:25.081Z</time></trkpt><trkpt lat="37.1349757" lon="-1.0332896"><ele>0.0</ele><time>2026-04-29T12:32:26.081Z</time></trkpt><trkpt lat="37.13503" lon="-1.0332107"><ele>0.0</ele><time>2026-04-29T12:32:27.082Z</time></trkpt><trkpt lat="37.1350822" lon="-1.0331322"><ele>0.0</ele><time>2026-04-29T12:32:28.081Z</time></trkpt><trkpt lat="37.1351299" lon="-1.033051"><ele>0.0</ele><time>2026-04-29T12:32:29.081Z</time></trkpt><trkpt lat="37.1351734" lon="-1.0329591"><ele>0.0</ele><time>2026-04-29T12:32:30.081Z</time></trkpt><trkpt lat="37.1352237" lon="-1.0328704"><ele>0.0</ele><time>2026-04-29T12:32:31.082Z</time></trkpt><trkpt lat="37.1352769" lon="-1.0327824"><ele>0.0</ele><time>2026-04-29T12:32:32.082Z</time></trkpt><trkpt lat="37.1353231" lon="-1.0326867"><ele>0.0</ele><time>2026-04-29T12:32:33.081Z</time></trkpt><trkpt lat="37.1353637" lon="-1.0325932"><ele>0.0</ele><time>2026-04-29T12:32:34.081Z</time></trkpt><trkpt lat="37.1354118" lon="-1.0324995"><ele>0.0</ele><time>2026-04-29T12:32:35.081Z</time></trkpt><trkpt lat="37.1354629" lon="-1.0324174"><ele>0.0</ele><time>2026-04-29T12:32:36.081Z</time></trkpt><trkpt lat="37.1355236" lon="-1.0323303"><ele>0.0</ele><time>2026-04-29T12:32:37.082Z</time></trkpt><trkpt lat="37.1355739" lon="-1.0322476"><ele>0.0</ele><time>2026-04-29T12:32:38.082Z</time></trkpt><trkpt lat="37.1356722" lon="-1.0320789"><ele>0.0</ele><time>2026-04-29T12:32:40.081Z</time></trkpt><trkpt lat="37.1357219" lon="-1.0319986"><ele>0.0</ele><time>2026-04-29T12:32:41.082Z</time></trkpt><trkpt lat="37.1357719" lon="-1.0319143"><ele>0.0</ele><time>2026-04-29T12:32:42.082Z</time></trkpt><trkpt lat="37.135826" lon="-1.0318239"><ele>0.0</ele><time>2026-04-29T12:32:43.082Z</time></trkpt><trkpt lat="37.1358807" lon="-1.0317366"><ele>0.0</ele><time>2026-04-29T12:32:44.081Z</time></trkpt><trkpt lat="37.1359342" lon="-1.0316456"><ele>0.0</ele><time>2026-04-29T12:32:45.081Z</time></trkpt><trkpt lat="37.1359835" lon="-1.0315499"><ele>0.0</ele><time>2026-04-29T12:32:46.081Z</time></trkpt><trkpt lat="37.1360333" lon="-1.0314643"><ele>0.0</ele><time>2026-04-29T12:32:47.081Z</time></trkpt><trkpt lat="37.1360863" lon="-1.0313767"><ele>0.0</ele><time>2026-04-29T12:32:48.082Z</time></trkpt><trkpt lat="37.1361452" lon="-1.0312913"><ele>0.0</ele><time>2026-04-29T12:32:49.081Z</time></trkpt><trkpt lat="37.1361977" lon="-1.0311977"><ele>0.0</ele><time>2026-04-29T12:32:50.081Z</time></trkpt><trkpt lat="37.1362525" lon="-1.0311144"><ele>0.0</ele><time>2026-04-29T12:32:51.082Z</time></trkpt><trkpt lat="37.1363133" lon="-1.0310213"><ele>0.0</ele><time>2026-04-29T12:32:52.082Z</time></trkpt><trkpt lat="37.1363637" lon="-1.0309296"><ele>0.0</ele><time>2026-04-29T12:32:53.081Z</time></trkpt><trkpt lat="37.1364136" lon="-1.030842"><ele>0.0</ele><time>2026-04-29T12:32:54.081Z</time></trkpt><trkpt lat="37.1364635" lon="-1.0307521"><ele>0.0</ele><time>2026-04-29T12:32:55.081Z</time></trkpt><trkpt lat="37.1365104" lon="-1.0306634"><ele>0.0</ele><time>2026-04-29T12:32:56.082Z</time></trkpt><trkpt lat="37.1365569" lon="-1.0305769"><ele>0.0</ele><time>2026-04-29T12:32:57.081Z</time></trkpt><trkpt lat="37.1366053" lon="-1.0304845"><ele>0.0</ele><time>2026-04-29T12:32:58.082Z</time></trkpt><trkpt lat="37.1366551" lon="-1.0303954"><ele>0.0</ele><time>2026-04-29T12:32:59.082Z</time></trkpt><trkpt lat="37.136757" lon="-1.0302218"><ele>0.0</ele><time>2026-04-29T12:33:01.081Z</time></trkpt><trkpt lat="37.1368069" lon="-1.0301405"><ele>0.0</ele><time>2026-04-29T12:33:02.082Z</time></trkpt><trkpt lat="37.1368578" lon="-1.0300521"><ele>0.0</ele><time>2026-04-29T12:33:03.082Z</time></trkpt><trkpt lat="37.1369125" lon="-1.0299635"><ele>0.0</ele><time>2026-04-29T12:33:04.082Z</time></trkpt><trkpt lat="37.1369605" lon="-1.0298738"><ele>0.0</ele><time>2026-04-29T12:33:05.082Z</time></trkpt><trkpt lat="37.1370077" lon="-1.0297824"><ele>0.0</ele><time>2026-04-29T12:33:06.081Z</time></trkpt><trkpt lat="37.1370597" lon="-1.029695"><ele>0.0</ele><time>2026-04-29T12:33:07.081Z</time></trkpt><trkpt lat="37.1371072" lon="-1.0296084"><ele>0.0</ele><time>2026-04-29T12:33:08.081Z</time></trkpt><trkpt lat="37.1371569" lon="-1.0295244"><ele>0.0</ele><time>2026-04-29T12:33:09.082Z</time></trkpt><trkpt lat="37.137211" lon="-1.0294382"><ele>0.0</ele><time>2026-04-29T12:33:10.082Z</time></trkpt><trkpt lat="37.1372634" lon="-1.0293478"><ele>0.0</ele><time>2026-04-29T12:33:11.081Z</time></trkpt><trkpt lat="37.1373335" lon="-1.0292586"><ele>0.0</ele><time>2026-04-29T12:33:12.081Z</time></trkpt><trkpt lat="37.1373855" lon="-1.0291677"><ele>0.0</ele><time>2026-04-29T12:33:13.081Z</time></trkpt><trkpt lat="37.1374353" lon="-1.0290719"><ele>0.0</ele><time>2026-04-29T12:33:14.081Z</time></trkpt><trkpt lat="37.1374896" lon="-1.0289836"><ele>0.0</ele><time>2026-04-29T12:33:15.081Z</time></trkpt><trkpt lat="37.1375376" lon="-1.028897"><ele>0.0</ele><time>2026-04-29T12:33:16.082Z</time></trkpt><trkpt lat="37.1375815" lon="-1.0288158"><ele>0.0</ele><time>2026-04-29T12:33:17.082Z</time></trkpt><trkpt lat="37.1376319" lon="-1.0287342"><ele>0.0</ele><time>2026-04-29T12:33:18.081Z</time></trkpt><trkpt lat="37.137685" lon="-1.0286479"><ele>0.0</ele><time>2026-04-29T12:33:19.081Z</time></trkpt><trkpt lat="37.1377366" lon="-1.0285586"><ele>0.0</ele><time>2026-04-29T12:33:20.081Z</time></trkpt><trkpt lat="37.1378477" lon="-1.0283894"><ele>0.0</ele><time>2026-04-29T12:33:22.081Z</time></trkpt><trkpt lat="37.1379098" lon="-1.0283118"><ele>0.0</ele><time>2026-04-29T12:33:23.082Z</time></trkpt><trkpt lat="37.1379629" lon="-1.0282323"><ele>0.0</ele><time>2026-04-29T12:33:24.082Z</time></trkpt><trkpt lat="37.138015" lon="-1.0281493"><ele>0.0</ele><time>2026-04-29T12:33:25.081Z</time></trkpt><trkpt lat="37.1380625" lon="-1.0280647"><ele>0.0</ele><time>2026-04-29T12:33:26.082Z</time></trkpt><trkpt lat="37.1381148" lon="-1.0279757"><ele>0.0</ele><time>2026-04-29T12:33:27.082Z</time></trkpt><trkpt lat="37.1381696" lon="-1.0278827"><ele>0.0</ele><time>2026-04-29T12:33:28.081Z</time></trkpt><trkpt lat="37.1382161" lon="-1.0277852"><ele>0.0</ele><time>2026-04-29T12:33:29.081Z</time></trkpt><trkpt lat="37.1382627" lon="-1.0276885"><ele>0.0</ele><time>2026-04-29T12:33:30.081Z</time></trkpt><trkpt lat="37.1383093" lon="-1.0275947"><ele>0.0</ele><time>2026-04-29T12:33:31.082Z</time></trkpt><trkpt lat="37.1383618" lon="-1.0275095"><ele>0.0</ele><time>2026-04-29T12:33:32.081Z</time></trkpt><trkpt lat="37.1384147" lon="-1.0274262"><ele>0.0</ele><time>2026-04-29T12:33:33.081Z</time></trkpt><trkpt lat="37.1384621" lon="-1.0273443"><ele>0.0</ele><time>2026-04-29T12:33:34.082Z</time></trkpt><trkpt lat="37.1385106" lon="-1.0272598"><ele>0.0</ele><time>2026-04-29T12:33:35.081Z</time></trkpt><trkpt lat="37.1385535" lon="-1.027175"><ele>0.0</ele><time>2026-04-29T12:33:36.082Z</time></trkpt><trkpt lat="37.1385979" lon="-1.0270853"><ele>0.0</ele><time>2026-04-29T12:33:37.081Z</time></trkpt><trkpt lat="37.1386442" lon="-1.0269944"><ele>0.0</ele><time>2026-04-29T12:33:38.082Z</time></trkpt><trkpt lat="37.1386911" lon="-1.0269056"><ele>0.0</ele><time>2026-04-29T12:33:39.081Z</time></trkpt><trkpt lat="37.1387341" lon="-1.0268168"><ele>0.0</ele><time>2026-04-29T12:33:40.082Z</time></trkpt><trkpt lat="37.1387806" lon="-1.0267255"><ele>0.0</ele><time>2026-04-29T12:33:41.081Z</time></trkpt><trkpt lat="37.1388857" lon="-1.0265526"><ele>0.0</ele><time>2026-04-29T12:33:43.082Z</time></trkpt><trkpt lat="37.1389381" lon="-1.0264681"><ele>0.0</ele><time>2026-04-29T12:33:44.081Z</time></trkpt><trkpt lat="37.1389871" lon="-1.0263827"><ele>0.0</ele><time>2026-04-29T12:33:45.082Z</time></trkpt><trkpt lat="37.139035" lon="-1.026298"><ele>0.0</ele><time>2026-04-29T12:33:46.081Z</time></trkpt><trkpt lat="37.1390834" lon="-1.0262147"><ele>0.0</ele><time>2026-04-29T12:33:47.081Z</time></trkpt><trkpt lat="37.1391323" lon="-1.0261283"><ele>0.0</ele><time>2026-04-29T12:33:48.082Z</time></trkpt><trkpt lat="37.139179" lon="-1.0260429"><ele>0.0</ele><time>2026-04-29T12:33:49.081Z</time></trkpt><trkpt lat="37.1392285" lon="-1.025955"><ele>0.0</ele><time>2026-04-29T12:33:50.082Z</time></trkpt><trkpt lat="37.1392786" lon="-1.0258683"><ele>0.0</ele><time>2026-04-29T12:33:51.081Z</time></trkpt><trkpt lat="37.1393284" lon="-1.0257816"><ele>0.0</ele><time>2026-04-29T12:33:52.081Z</time></trkpt><trkpt lat="37.1393767" lon="-1.0256908"><ele>0.0</ele><time>2026-04-29T12:33:53.082Z</time></trkpt><trkpt lat="37.1394281" lon="-1.0256021"><ele>0.0</ele><time>2026-04-29T12:33:54.081Z</time></trkpt><trkpt lat="37.1394784" lon="-1.0255167"><ele>0.0</ele><time>2026-04-29T12:33:55.081Z</time></trkpt><trkpt lat="37.1395313" lon="-1.0254271"><ele>0.0</ele><time>2026-04-29T12:33:56.081Z</time></trkpt><trkpt lat="37.1395877" lon="-1.0253388"><ele>0.0</ele><time>2026-04-29T12:33:57.081Z</time></trkpt><trkpt lat="37.13964" lon="-1.0252546"><ele>0.0</ele><time>2026-04-29T12:33:58.081Z</time></trkpt><trkpt lat="37.1396932" lon="-1.0251715"><ele>0.0</ele><time>2026-04-29T12:33:59.081Z</time></trkpt><trkpt lat="37.1397454" lon="-1.0250882"><ele>0.0</ele><time>2026-04-29T12:34:00.081Z</time></trkpt><trkpt lat="37.1397997" lon="-1.0250019"><ele>0.0</ele><time>2026-04-29T12:34:01.081Z</time></trkpt><trkpt lat="37.139849" lon="-1.024918"><ele>0.0</ele><time>2026-04-29T12:34:02.081Z</time></trkpt><trkpt lat="37.1399438" lon="-1.0247465"><ele>0.0</ele><time>2026-04-29T12:34:04.081Z</time></trkpt><trkpt lat="37.1399993" lon="-1.0246572"><ele>0.0</ele><time>2026-04-29T12:34:05.082Z</time></trkpt><trkpt lat="37.140056" lon="-1.0245689"><ele>0.0</ele><time>2026-04-29T12:34:06.081Z</time></trkpt><trkpt lat="37.1401128" lon="-1.0244835"><ele>0.0</ele><time>2026-04-29T12:34:07.081Z</time></trkpt><trkpt lat="37.1401694" lon="-1.0243955"><ele>0.0</ele><time>2026-04-29T12:34:08.081Z</time></trkpt><trkpt lat="37.1402258" lon="-1.0242987"><ele>0.0</ele><time>2026-04-29T12:34:09.082Z</time></trkpt><trkpt lat="37.14028" lon="-1.0242102"><ele>0.0</ele><time>2026-04-29T12:34:10.082Z</time></trkpt><trkpt lat="37.140333" lon="-1.0241222"><ele>0.0</ele><time>2026-04-29T12:34:11.081Z</time></trkpt><trkpt lat="37.1403836" lon="-1.0240365"><ele>0.0</ele><time>2026-04-29T12:34:12.082Z</time></trkpt><trkpt lat="37.140435" lon="-1.0239516"><ele>0.0</ele><time>2026-04-29T12:34:13.082Z</time></trkpt><trkpt lat="37.1404852" lon="-1.0238667"><ele>0.0</ele><time>2026-04-29T12:34:14.081Z</time></trkpt><trkpt lat="37.1405383" lon="-1.0237816"><ele>0.0</ele><time>2026-04-29T12:34:15.081Z</time></trkpt><trkpt lat="37.1405899" lon="-1.023698"><ele>0.0</ele><time>2026-04-29T12:34:16.082Z</time></trkpt><trkpt lat="37.1406417" lon="-1.023613"><ele>0.0</ele><time>2026-04-29T12:34:17.081Z</time></trkpt><trkpt lat="37.1406905" lon="-1.0235281"><ele>0.0</ele><time>2026-04-29T12:34:18.08Z</time></trkpt><trkpt lat="37.1407386" lon="-1.0234398"><ele>0.0</ele><time>2026-04-29T12:34:19.081Z</time></trkpt><trkpt lat="37.1407857" lon="-1.0233545"><ele>0.0</ele><time>2026-04-29T12:34:20.08Z</time></trkpt><trkpt lat="37.1408353" lon="-1.0232709"><ele>0.0</ele><time>2026-04-29T12:34:21.081Z</time></trkpt><trkpt lat="37.1408836" lon="-1.0231876"><ele>0.0</ele><time>2026-04-29T12:34:22.08Z</time></trkpt><trkpt lat="37.1409321" lon="-1.0231016"><ele>0.0</ele><time>2026-04-29T12:34:23.08Z</time></trkpt><trkpt lat="37.1410316" lon="-1.022925"><ele>0.0</ele><time>2026-04-29T12:34:25.081Z</time></trkpt><trkpt lat="37.1410831" lon="-1.0228327"><ele>0.0</ele><time>2026-04-29T12:34:26.081Z</time></trkpt><trkpt lat="37.1411379" lon="-1.0227435"><ele>0.0</ele><time>2026-04-29T12:34:27.08Z</time></trkpt><trkpt lat="37.1411943" lon="-1.0226609"><ele>0.0</ele><time>2026-04-29T12:34:28.081Z</time></trkpt><trkpt lat="37.1412495" lon="-1.0225734"><ele>0.0</ele><time>2026-04-29T12:34:29.08Z</time></trkpt><trkpt lat="37.1412988" lon="-1.022488"><ele>0.0</ele><time>2026-04-29T12:34:30.08Z</time></trkpt><trkpt lat="37.1413445" lon="-1.0224062"><ele>0.0</ele><time>2026-04-29T12:34:31.081Z</time></trkpt><trkpt lat="37.141392" lon="-1.0223188"><ele>0.0</ele><time>2026-04-29T12:34:32.08Z</time></trkpt><trkpt lat="37.1414403" lon="-1.0222318"><ele>0.0</ele><time>2026-04-29T12:34:33.081Z</time></trkpt><trkpt lat="37.1414915" lon="-1.0221446"><ele>0.0</ele><time>2026-04-29T12:34:34.081Z</time></trkpt><trkpt lat="37.1415442" lon="-1.0220554"><ele>0.0</ele><time>2026-04-29T12:34:35.08Z</time></trkpt><trkpt lat="37.1416075" lon="-1.0219737"><ele>0.0</ele><time>2026-04-29T12:34:36.08Z</time></trkpt><trkpt lat="37.1416658" lon="-1.0218883"><ele>0.0</ele><time>2026-04-29T12:34:37.081Z</time></trkpt><trkpt lat="37.1417201" lon="-1.0217962"><ele>0.0</ele><time>2026-04-29T12:34:38.08Z</time></trkpt><trkpt lat="37.1417763" lon="-1.0217057"><ele>0.0</ele><time>2026-04-29T12:34:39.08Z</time></trkpt><trkpt lat="37.1418438" lon="-1.0216284"><ele>0.0</ele><time>2026-04-29T12:34:40.08Z</time></trkpt><trkpt lat="37.1419052" lon="-1.0215432"><ele>0.0</ele><time>2026-04-29T12:34:41.081Z</time></trkpt><trkpt lat="37.1419614" lon="-1.0214597"><ele>0.0</ele><time>2026-04-29T12:34:42.081Z</time></trkpt><trkpt lat="37.1420105" lon="-1.0213767"><ele>0.0</ele><time>2026-04-29T12:34:43.08Z</time></trkpt><trkpt lat="37.1420702" lon="-1.0212986"><ele>0.0</ele><time>2026-04-29T12:34:44.08Z</time></trkpt><trkpt lat="37.1421858" lon="-1.0211346"><ele>0.0</ele><time>2026-04-29T12:34:46.08Z</time></trkpt><trkpt lat="37.1422402" lon="-1.0210526"><ele>0.0</ele><time>2026-04-29T12:34:47.08Z</time></trkpt><trkpt lat="37.1422944" lon="-1.0209683"><ele>0.0</ele><time>2026-04-29T12:34:48.081Z</time></trkpt><trkpt lat="37.1423495" lon="-1.0208806"><ele>0.0</ele><time>2026-04-29T12:34:49.08Z</time></trkpt><trkpt lat="37.1424019" lon="-1.0207927"><ele>0.0</ele><time>2026-04-29T12:34:50.08Z</time></trkpt><trkpt lat="37.1424532" lon="-1.0207054"><ele>0.0</ele><time>2026-04-29T12:34:51.08Z</time></trkpt><trkpt lat="37.1425033" lon="-1.0206184"><ele>0.0</ele><time>2026-04-29T12:34:52.081Z</time></trkpt><trkpt lat="37.1425522" lon="-1.0205303"><ele>0.0</ele><time>2026-04-29T12:34:53.081Z</time></trkpt><trkpt lat="37.1426034" lon="-1.0204392"><ele>0.0</ele><time>2026-04-29T12:34:54.081Z</time></trkpt><trkpt lat="37.1426525" lon="-1.0203477"><ele>0.0</ele><time>2026-04-29T12:34:55.08Z</time></trkpt><trkpt lat="37.142698" lon="-1.0202615"><ele>0.0</ele><time>2026-04-29T12:34:56.081Z</time></trkpt><trkpt lat="37.1427471" lon="-1.0201809"><ele>0.0</ele><time>2026-04-29T12:34:57.081Z</time></trkpt><trkpt lat="37.1427955" lon="-1.0200979"><ele>0.0</ele><time>2026-04-29T12:34:58.08Z</time></trkpt><trkpt lat="37.1428454" lon="-1.0200092"><ele>0.0</ele><time>2026-04-29T12:34:59.081Z</time></trkpt><trkpt lat="37.1428995" lon="-1.0199233"><ele>0.0</ele><time>2026-04-29T12:35:00.08Z</time></trkpt><trkpt lat="37.142953" lon="-1.0198394"><ele>0.0</ele><time>2026-04-29T12:35:01.08Z</time></trkpt><trkpt lat="37.1430033" lon="-1.0197547"><ele>0.0</ele><time>2026-04-29T12:35:02.08Z</time></trkpt><trkpt lat="37.1430535" lon="-1.0196684"><ele>0.0</ele><time>2026-04-29T12:35:03.08Z</time></trkpt><trkpt lat="37.1431055" lon="-1.0195847"><ele>0.0</ele><time>2026-04-29T12:35:04.081Z</time></trkpt><trkpt lat="37.1431568" lon="-1.0194956"><ele>0.0</ele><time>2026-04-29T12:35:05.08Z</time></trkpt><trkpt lat="37.1432584" lon="-1.0193141"><ele>0.0</ele><time>2026-04-29T12:35:07.08Z</time></trkpt><trkpt lat="37.1433032" lon="-1.0192271"><ele>0.0</ele><time>2026-04-29T12:35:08.081Z</time></trkpt><trkpt lat="37.1433488" lon="-1.0191386"><ele>0.0</ele><time>2026-04-29T12:35:09.081Z</time></trkpt><trkpt lat="37.1433986" lon="-1.0190532"><ele>0.0</ele><time>2026-04-29T12:35:10.081Z</time></trkpt><trkpt lat="37.1434469" lon="-1.0189636"><ele>0.0</ele><time>2026-04-29T12:35:11.08Z</time></trkpt><trkpt lat="37.1434996" lon="-1.0188738"><ele>0.0</ele><time>2026-04-29T12:35:12.08Z</time></trkpt><trkpt lat="37.1435459" lon="-1.0187855"><ele>0.0</ele><time>2026-04-29T12:35:13.081Z</time></trkpt><trkpt lat="37.143595" lon="-1.0186898"><ele>0.0</ele><time>2026-04-29T12:35:14.08Z</time></trkpt><trkpt lat="37.1436467" lon="-1.0185964"><ele>0.0</ele><time>2026-04-29T12:35:15.08Z</time></trkpt><trkpt lat="37.1436912" lon="-1.0185041"><ele>0.0</ele><time>2026-04-29T12:35:16.081Z</time></trkpt><trkpt lat="37.1437343" lon="-1.0184195"><ele>0.0</ele><time>2026-04-29T12:35:17.08Z</time></trkpt><trkpt lat="37.1437763" lon="-1.0183364"><ele>0.0</ele><time>2026-04-29T12:35:18.081Z</time></trkpt><trkpt lat="37.1438226" lon="-1.0182544"><ele>0.0</ele><time>2026-04-29T12:35:19.08Z</time></trkpt><trkpt lat="37.1438715" lon="-1.0181712"><ele>0.0</ele><time>2026-04-29T12:35:20.08Z</time></trkpt><trkpt lat="37.1439233" lon="-1.018085"><ele>0.0</ele><time>2026-04-29T12:35:21.08Z</time></trkpt><trkpt lat="37.1439705" lon="-1.0179956"><ele>0.0</ele><time>2026-04-29T12:35:22.08Z</time></trkpt><trkpt lat="37.1440227" lon="-1.0179026"><ele>0.0</ele><time>2026-04-29T12:35:23.08Z</time></trkpt><trkpt lat="37.1440742" lon="-1.0178093"><ele>0.0</ele><time>2026-04-29T12:35:24.08Z</time></trkpt><trkpt lat="37.1441273" lon="-1.0177132"><ele>0.0</ele><time>2026-04-29T12:35:25.08Z</time></trkpt><trkpt lat="37.1441839" lon="-1.0176237"><ele>0.0</ele><time>2026-04-29T12:35:26.08Z</time></trkpt><trkpt lat="37.1442864" lon="-1.01745"><ele>0.0</ele><time>2026-04-29T12:35:28.08Z</time></trkpt><trkpt lat="37.1443409" lon="-1.0173634"><ele>0.0</ele><time>2026-04-29T12:35:29.081Z</time></trkpt><trkpt lat="37.1443947" lon="-1.0172752"><ele>0.0</ele><time>2026-04-29T12:35:30.081Z</time></trkpt><trkpt lat="37.1444494" lon="-1.0171914"><ele>0.0</ele><time>2026-04-29T12:35:31.08Z</time></trkpt><trkpt lat="37.144517" lon="-1.0171193"><ele>0.0</ele><time>2026-04-29T12:35:32.081Z</time></trkpt><trkpt lat="37.1445745" lon="-1.0170438"><ele>0.0</ele><time>2026-04-29T12:35:33.081Z</time></trkpt><trkpt lat="37.1446281" lon="-1.0169627"><ele>0.0</ele><time>2026-04-29T12:35:34.08Z</time></trkpt><trkpt lat="37.1446802" lon="-1.0168796"><ele>0.0</ele><time>2026-04-29T12:35:35.081Z</time></trkpt><trkpt lat="37.1447315" lon="-1.0167919"><ele>0.0</ele><time>2026-04-29T12:35:36.08Z</time></trkpt><trkpt lat="37.1447806" lon="-1.0167097"><ele>0.0</ele><time>2026-04-29T12:35:37.081Z</time></trkpt><trkpt lat="37.1448315" lon="-1.016622"><ele>0.0</ele><time>2026-04-29T12:35:38.08Z</time></trkpt><trkpt lat="37.1448837" lon="-1.016535"><ele>0.0</ele><time>2026-04-29T12:35:39.081Z</time></trkpt><trkpt lat="37.1449308" lon="-1.0164442"><ele>0.0</ele><time>2026-04-29T12:35:40.08Z</time></trkpt><trkpt lat="37.1449733" lon="-1.0163556"><ele>0.0</ele><time>2026-04-29T12:35:41.08Z</time></trkpt><trkpt lat="37.1450193" lon="-1.0162673"><ele>0.0</ele><time>2026-04-29T12:35:42.081Z</time></trkpt><trkpt lat="37.1450603" lon="-1.0161773"><ele>0.0</ele><time>2026-04-29T12:35:43.081Z</time></trkpt><trkpt lat="37.1451002" lon="-1.0160958"><ele>0.0</ele><time>2026-04-29T12:35:44.08Z</time></trkpt><trkpt lat="37.1451501" lon="-1.0160159"><ele>0.0</ele><time>2026-04-29T12:35:45.08Z</time></trkpt><trkpt lat="37.1452005" lon="-1.0159344"><ele>0.0</ele><time>2026-04-29T12:35:46.08Z</time></trkpt><trkpt lat="37.1452491" lon="-1.0158484"><ele>0.0</ele><time>2026-04-29T12:35:47.08Z</time></trkpt><trkpt lat="37.1453499" lon="-1.0156707"><ele>0.0</ele><time>2026-04-29T12:35:49.081Z</time></trkpt><trkpt lat="37.1453989" lon="-1.0155627"><ele>0.0</ele><time>2026-04-29T12:35:50.081Z</time></trkpt><trkpt lat="37.1454515" lon="-1.0154795"><ele>0.0</ele><time>2026-04-29T12:35:51.08Z</time></trkpt><trkpt lat="37.1455047" lon="-1.0154004"><ele>0.0</ele><time>2026-04-29T12:35:52.081Z</time></trkpt><trkpt lat="37.1455595" lon="-1.0153222"><ele>0.0</ele><time>2026-04-29T12:35:53.08Z</time></trkpt><trkpt lat="37.1456133" lon="-1.0152384"><ele>0.0</ele><time>2026-04-29T12:35:54.081Z</time></trkpt><trkpt lat="37.1456635" lon="-1.0151519"><ele>0.0</ele><time>2026-04-29T12:35:55.08Z</time></trkpt><trkpt lat="37.1457178" lon="-1.0150623"><ele>0.0</ele><time>2026-04-29T12:35:56.081Z</time></trkpt><trkpt lat="37.1457711" lon="-1.0149784"><ele>0.0</ele><time>2026-04-29T12:35:57.08Z</time></trkpt><trkpt lat="37.1458261" lon="-1.0148946"><ele>0.0</ele><time>2026-04-29T12:35:58.08Z</time></trkpt><trkpt lat="37.1458784" lon="-1.0148099"><ele>0.0</ele><time>2026-04-29T12:35:59.08Z</time></trkpt><trkpt lat="37.14593" lon="-1.0147263"><ele>0.0</ele><time>2026-04-29T12:36:00.08Z</time></trkpt><trkpt lat="37.1459817" lon="-1.0146386"><ele>0.0</ele><time>2026-04-29T12:36:01.08Z</time></trkpt><trkpt lat="37.1460333" lon="-1.0145504"><ele>0.0</ele><time>2026-04-29T12:36:02.08Z</time></trkpt><trkpt lat="37.1460837" lon="-1.0144665"><ele>0.0</ele><time>2026-04-29T12:36:03.081Z</time></trkpt><trkpt lat="37.1461352" lon="-1.0143817"><ele>0.0</ele><time>2026-04-29T12:36:04.08Z</time></trkpt><trkpt lat="37.1461869" lon="-1.0142995"><ele>0.0</ele><time>2026-04-29T12:36:05.081Z</time></trkpt><trkpt lat="37.146247" lon="-1.0142192"><ele>0.0</ele><time>2026-04-29T12:36:06.08Z</time></trkpt><trkpt lat="37.1463044" lon="-1.0141351"><ele>0.0</ele><time>2026-04-29T12:36:07.08Z</time></trkpt><trkpt lat="37.1463584" lon="-1.01405"><ele>0.0</ele><time>2026-04-29T12:36:08.08Z</time></trkpt><trkpt lat="37.1464715" lon="-1.0138753"><ele>0.0</ele><time>2026-04-29T12:36:10.081Z</time></trkpt><trkpt lat="37.1465222" lon="-1.0137955"><ele>0.0</ele><time>2026-04-29T12:36:11.08Z</time></trkpt><trkpt lat="37.1465751" lon="-1.0137142"><ele>0.0</ele><time>2026-04-29T12:36:12.081Z</time></trkpt><trkpt lat="37.1466253" lon="-1.0136296"><ele>0.0</ele><time>2026-04-29T12:36:13.081Z</time></trkpt><trkpt lat="37.1466752" lon="-1.0135435"><ele>0.0</ele><time>2026-04-29T12:36:14.08Z</time></trkpt><trkpt lat="37.1467293" lon="-1.0134568"><ele>0.0</ele><time>2026-04-29T12:36:15.08Z</time></trkpt><trkpt lat="37.1467885" lon="-1.0133702"><ele>0.0</ele><time>2026-04-29T12:36:16.08Z</time></trkpt><trkpt lat="37.1468356" lon="-1.0132832"><ele>0.0</ele><time>2026-04-29T12:36:17.081Z</time></trkpt><trkpt lat="37.1468794" lon="-1.0131981"><ele>0.0</ele><time>2026-04-29T12:36:18.081Z</time></trkpt><trkpt lat="37.1469203" lon="-1.0131089"><ele>0.0</ele><time>2026-04-29T12:36:19.08Z</time></trkpt><trkpt lat="37.146963" lon="-1.0130219"><ele>0.0</ele><time>2026-04-29T12:36:20.081Z</time></trkpt><trkpt lat="37.1470128" lon="-1.0129334"><ele>0.0</ele><time>2026-04-29T12:36:21.081Z</time></trkpt><trkpt lat="37.1470648" lon="-1.012847"><ele>0.0</ele><time>2026-04-29T12:36:22.081Z</time></trkpt><trkpt lat="37.147115" lon="-1.0127573"><ele>0.0</ele><time>2026-04-29T12:36:23.08Z</time></trkpt><trkpt lat="37.1471666" lon="-1.0126685"><ele>0.0</ele><time>2026-04-29T12:36:24.08Z</time></trkpt><trkpt lat="37.1472195" lon="-1.0125817"><ele>0.0</ele><time>2026-04-29T12:36:25.081Z</time></trkpt><trkpt lat="37.1472714" lon="-1.0124907"><ele>0.0</ele><time>2026-04-29T12:36:26.081Z</time></trkpt><trkpt lat="37.1473216" lon="-1.0124092"><ele>0.0</ele><time>2026-04-29T12:36:27.08Z</time></trkpt><trkpt lat="37.1473801" lon="-1.0123261"><ele>0.0</ele><time>2026-04-29T12:36:28.08Z</time></trkpt><trkpt lat="37.147439" lon="-1.0122428"><ele>0.0</ele><time>2026-04-29T12:36:29.081Z</time></trkpt><trkpt lat="37.1475369" lon="-1.0120759"><ele>0.0</ele><time>2026-04-29T12:36:31.08Z</time></trkpt><trkpt lat="37.1475909" lon="-1.0119966"><ele>0.0</ele><time>2026-04-29T12:36:32.081Z</time></trkpt><trkpt lat="37.1476434" lon="-1.011913"><ele>0.0</ele><time>2026-04-29T12:36:33.081Z</time></trkpt><trkpt lat="37.147692" lon="-1.0118209"><ele>0.0</ele><time>2026-04-29T12:36:34.081Z</time></trkpt><trkpt lat="37.1477429" lon="-1.0117305"><ele>0.0</ele><time>2026-04-29T12:36:35.08Z</time></trkpt><trkpt lat="37.1477948" lon="-1.0116424"><ele>0.0</ele><time>2026-04-29T12:36:36.081Z</time></trkpt><trkpt lat="37.1478451" lon="-1.0115554"><ele>0.0</ele><time>2026-04-29T12:36:37.08Z</time></trkpt><trkpt lat="37.1478966" lon="-1.01147"><ele>0.0</ele><time>2026-04-29T12:36:38.081Z</time></trkpt><trkpt lat="37.14795" lon="-1.0113821"><ele>0.0</ele><time>2026-04-29T12:36:39.081Z</time></trkpt><trkpt lat="37.1480019" lon="-1.0112967"><ele>0.0</ele><time>2026-04-29T12:36:40.081Z</time></trkpt><trkpt lat="37.1480534" lon="-1.0112114"><ele>0.0</ele><time>2026-04-29T12:36:41.08Z</time></trkpt><trkpt lat="37.1481078" lon="-1.0111208"><ele>0.0</ele><time>2026-04-29T12:36:42.08Z</time></trkpt><trkpt lat="37.1481609" lon="-1.0110278"><ele>0.0</ele><time>2026-04-29T12:36:43.08Z</time></trkpt><trkpt lat="37.1482119" lon="-1.0109463"><ele>0.0</ele><time>2026-04-29T12:36:44.08Z</time></trkpt><trkpt lat="37.148259" lon="-1.010866"><ele>0.0</ele><time>2026-04-29T12:36:45.08Z</time></trkpt><trkpt lat="37.1483057" lon="-1.0107817"><ele>0.0</ele><time>2026-04-29T12:36:46.081Z</time></trkpt><trkpt lat="37.1483513" lon="-1.0106926"><ele>0.0</ele><time>2026-04-29T12:36:47.081Z</time></trkpt><trkpt lat="37.1484003" lon="-1.010607"><ele>0.0</ele><time>2026-04-29T12:36:48.08Z</time></trkpt><trkpt lat="37.1484502" lon="-1.0105189"><ele>0.0</ele><time>2026-04-29T12:36:49.08Z</time></trkpt><trkpt lat="37.1484989" lon="-1.0104332"><ele>0.0</ele><time>2026-04-29T12:36:50.08Z</time></trkpt><trkpt lat="37.148594" lon="-1.01026"><ele>0.0</ele><time>2026-04-29T12:36:52.08Z</time></trkpt><trkpt lat="37.1486423" lon="-1.0101734"><ele>0.0</ele><time>2026-04-29T12:36:53.08Z</time></trkpt><trkpt lat="37.1486934" lon="-1.0100867"><ele>0.0</ele><time>2026-04-29T12:36:54.08Z</time></trkpt><trkpt lat="37.1487448" lon="-1.0099985"><ele>0.0</ele><time>2026-04-29T12:36:55.08Z</time></trkpt><trkpt lat="37.1487978" lon="-1.0099088"><ele>0.0</ele><time>2026-04-29T12:36:56.081Z</time></trkpt><trkpt lat="37.1488527" lon="-1.009819"><ele>0.0</ele><time>2026-04-29T12:36:57.08Z</time></trkpt><trkpt lat="37.1489065" lon="-1.0097321"><ele>0.0</ele><time>2026-04-29T12:36:58.081Z</time></trkpt><trkpt lat="37.1489568" lon="-1.0096468"><ele>0.0</ele><time>2026-04-29T12:36:59.08Z</time></trkpt><trkpt lat="37.1490113" lon="-1.0095604"><ele>0.0</ele><time>2026-04-29T12:37:00.081Z</time></trkpt><trkpt lat="37.1490678" lon="-1.0094734"><ele>0.0</ele><time>2026-04-29T12:37:01.081Z</time></trkpt><trkpt lat="37.1491242" lon="-1.0093927"><ele>0.0</ele><time>2026-04-29T12:37:02.081Z</time></trkpt><trkpt lat="37.1491781" lon="-1.0093069"><ele>0.0</ele><time>2026-04-29T12:37:03.08Z</time></trkpt><trkpt lat="37.1492303" lon="-1.0092229"><ele>0.0</ele><time>2026-04-29T12:37:04.081Z</time></trkpt><trkpt lat="37.1492832" lon="-1.0091384"><ele>0.0</ele><time>2026-04-29T12:37:05.08Z</time></trkpt><trkpt lat="37.1493364" lon="-1.0090518"><ele>0.0</ele><time>2026-04-29T12:37:06.08Z</time></trkpt><trkpt lat="37.1493955" lon="-1.0089681"><ele>0.0</ele><time>2026-04-29T12:37:07.08Z</time></trkpt><trkpt lat="37.1494522" lon="-1.0088777"><ele>0.0</ele><time>2026-04-29T12:37:08.08Z</time></trkpt><trkpt lat="37.1495058" lon="-1.0087944"><ele>0.0</ele><time>2026-04-29T12:37:09.081Z</time></trkpt><trkpt lat="37.1495623" lon="-1.0087099"><ele>0.0</ele><time>2026-04-29T12:37:10.081Z</time></trkpt><trkpt lat="37.14967" lon="-1.0085273"><ele>0.0</ele><time>2026-04-29T12:37:12.081Z</time></trkpt><trkpt lat="37.1497201" lon="-1.0084371"><ele>0.0</ele><time>2026-04-29T12:37:13.081Z</time></trkpt><trkpt lat="37.1497729" lon="-1.0083457"><ele>0.0</ele><time>2026-04-29T12:37:14.08Z</time></trkpt><trkpt lat="37.1498251" lon="-1.0082573"><ele>0.0</ele><time>2026-04-29T12:37:15.08Z</time></trkpt><trkpt lat="37.1498782" lon="-1.00817"><ele>0.0</ele><time>2026-04-29T12:37:16.08Z</time></trkpt><trkpt lat="37.1499329" lon="-1.008086"><ele>0.0</ele><time>2026-04-29T12:37:17.081Z</time></trkpt><trkpt lat="37.1499847" lon="-1.008006"><ele>0.0</ele><time>2026-04-29T12:37:18.081Z</time></trkpt><trkpt lat="37.1500377" lon="-1.0079242"><ele>0.0</ele><time>2026-04-29T12:37:19.081Z</time></trkpt><trkpt lat="37.1500938" lon="-1.0078397"><ele>0.0</ele><time>2026-04-29T12:37:20.08Z</time></trkpt><trkpt lat="37.1501523" lon="-1.0077591"><ele>0.0</ele><time>2026-04-29T12:37:21.08Z</time></trkpt><trkpt lat="37.1502074" lon="-1.0076775"><ele>0.0</ele><time>2026-04-29T12:37:22.081Z</time></trkpt><trkpt lat="37.1502585" lon="-1.0075947"><ele>0.0</ele><time>2026-04-29T12:37:23.08Z</time></trkpt><trkpt lat="37.1503125" lon="-1.0075141"><ele>0.0</ele><time>2026-04-29T12:37:24.08Z</time></trkpt><trkpt lat="37.1503663" lon="-1.0074241"><ele>0.0</ele><time>2026-04-29T12:37:25.08Z</time></trkpt><trkpt lat="37.150421" lon="-1.0073352"><ele>0.0</ele><time>2026-04-29T12:37:26.081Z</time></trkpt><trkpt lat="37.1504719" lon="-1.0072428"><ele>0.0</ele><time>2026-04-29T12:37:27.08Z</time></trkpt><trkpt lat="37.1505234" lon="-1.0071528"><ele>0.0</ele><time>2026-04-29T12:37:28.08Z</time></trkpt><trkpt lat="37.150572" lon="-1.0070666"><ele>0.0</ele><time>2026-04-29T12:37:29.081Z</time></trkpt><trkpt lat="37.1506232" lon="-1.0069785"><ele>0.0</ele><time>2026-04-29T12:37:30.081Z</time></trkpt><trkpt lat="37.1506765" lon="-1.006892"><ele>0.0</ele><time>2026-04-29T12:37:31.081Z</time></trkpt><trkpt lat="37.1507782" lon="-1.0067147"><ele>0.0</ele><time>2026-04-29T12:37:33.08Z</time></trkpt><trkpt lat="37.1508287" lon="-1.0066254"><ele>0.0</ele><time>2026-04-29T12:37:34.08Z</time></trkpt><trkpt lat="37.1508845" lon="-1.0065372"><ele>0.0</ele><time>2026-04-29T12:37:35.081Z</time></trkpt><trkpt lat="37.1509294" lon="-1.0064457"><ele>0.0</ele><time>2026-04-29T12:37:36.08Z</time></trkpt><trkpt lat="37.1509783" lon="-1.0063584"><ele>0.0</ele><time>2026-04-29T12:37:37.081Z</time></trkpt><trkpt lat="37.1510214" lon="-1.0062673"><ele>0.0</ele><time>2026-04-29T12:37:38.081Z</time></trkpt><trkpt lat="37.1510693" lon="-1.0061798"><ele>0.0</ele><time>2026-04-29T12:37:39.08Z</time></trkpt><trkpt lat="37.1511214" lon="-1.0060947"><ele>0.0</ele><time>2026-04-29T12:37:40.08Z</time></trkpt><trkpt lat="37.1511732" lon="-1.0060084"><ele>0.0</ele><time>2026-04-29T12:37:41.08Z</time></trkpt><trkpt lat="37.1512207" lon="-1.0059177"><ele>0.0</ele><time>2026-04-29T12:37:42.08Z</time></trkpt><trkpt lat="37.151273" lon="-1.0058243"><ele>0.0</ele><time>2026-04-29T12:37:43.08Z</time></trkpt><trkpt lat="37.1513234" lon="-1.0057367"><ele>0.0</ele><time>2026-04-29T12:37:44.08Z</time></trkpt><trkpt lat="37.1513747" lon="-1.0056529"><ele>0.0</ele><time>2026-04-29T12:37:45.081Z</time></trkpt><trkpt lat="37.1514278" lon="-1.0055695"><ele>0.0</ele><time>2026-04-29T12:37:46.081Z</time></trkpt><trkpt lat="37.1514783" lon="-1.0054865"><ele>0.0</ele><time>2026-04-29T12:37:47.081Z</time></trkpt><trkpt lat="37.1515313" lon="-1.0054088"><ele>0.0</ele><time>2026-04-29T12:37:48.081Z</time></trkpt><trkpt lat="37.1515847" lon="-1.0053237"><ele>0.0</ele><time>2026-04-29T12:37:49.081Z</time></trkpt><trkpt lat="37.151637" lon="-1.0052371"><ele>0.0</ele><time>2026-04-29T12:37:50.08Z</time></trkpt><trkpt lat="37.1516857" lon="-1.0051458"><ele>0.0</ele><time>2026-04-29T12:37:51.081Z</time></trkpt><trkpt lat="37.1517377" lon="-1.0050542"><ele>0.0</ele><time>2026-04-29T12:37:52.081Z</time></trkpt><trkpt lat="37.15184" lon="-1.0048771"><ele>0.0</ele><time>2026-04-29T12:37:54.081Z</time></trkpt><trkpt lat="37.1518887" lon="-1.0047918"><ele>0.0</ele><time>2026-04-29T12:37:55.081Z</time></trkpt><trkpt lat="37.1519329" lon="-1.0047035"><ele>0.0</ele><time>2026-04-29T12:37:56.081Z</time></trkpt><trkpt lat="37.1519776" lon="-1.0046177"><ele>0.0</ele><time>2026-04-29T12:37:57.081Z</time></trkpt><trkpt lat="37.1520285" lon="-1.004533"><ele>0.0</ele><time>2026-04-29T12:37:58.081Z</time></trkpt><trkpt lat="37.1520759" lon="-1.0044471"><ele>0.0</ele><time>2026-04-29T12:37:59.081Z</time></trkpt><trkpt lat="37.1521225" lon="-1.0043632"><ele>0.0</ele><time>2026-04-29T12:38:00.08Z</time></trkpt><trkpt lat="37.1521707" lon="-1.0042739"><ele>0.0</ele><time>2026-04-29T12:38:01.08Z</time></trkpt><trkpt lat="37.1522218" lon="-1.004184"><ele>0.0</ele><time>2026-04-29T12:38:02.081Z</time></trkpt><trkpt lat="37.1522735" lon="-1.00409"><ele>0.0</ele><time>2026-04-29T12:38:03.08Z</time></trkpt><trkpt lat="37.1523263" lon="-1.0040061"><ele>0.0</ele><time>2026-04-29T12:38:04.081Z</time></trkpt><trkpt lat="37.1523711" lon="-1.0039254"><ele>0.0</ele><time>2026-04-29T12:38:05.08Z</time></trkpt><trkpt lat="37.1524219" lon="-1.0038468"><ele>0.0</ele><time>2026-04-29T12:38:06.08Z</time></trkpt><trkpt lat="37.1524746" lon="-1.003759"><ele>0.0</ele><time>2026-04-29T12:38:07.08Z</time></trkpt><trkpt lat="37.1525295" lon="-1.0036788"><ele>0.0</ele><time>2026-04-29T12:38:08.081Z</time></trkpt><trkpt lat="37.1525788" lon="-1.0035946"><ele>0.0</ele><time>2026-04-29T12:38:09.081Z</time></trkpt><trkpt lat="37.1526371" lon="-1.0034858"><ele>0.0</ele><time>2026-04-29T12:38:10.08Z</time></trkpt><trkpt lat="37.152687" lon="-1.0033981"><ele>0.0</ele><time>2026-04-29T12:38:11.081Z</time></trkpt><trkpt lat="37.1527382" lon="-1.0033186"><ele>0.0</ele><time>2026-04-29T12:38:12.081Z</time></trkpt><trkpt lat="37.1527945" lon="-1.0032408"><ele>0.0</ele><time>2026-04-29T12:38:13.08Z</time></trkpt><trkpt lat="37.1529015" lon="-1.0030829"><ele>0.0</ele><time>2026-04-29T12:38:15.081Z</time></trkpt><trkpt lat="37.1529505" lon="-1.003001"><ele>0.0</ele><time>2026-04-29T12:38:16.081Z</time></trkpt><trkpt lat="37.1529989" lon="-1.0029224"><ele>0.0</ele><time>2026-04-29T12:38:17.081Z</time></trkpt><trkpt lat="37.1530502" lon="-1.0028378"><ele>0.0</ele><time>2026-04-29T12:38:18.081Z</time></trkpt><trkpt lat="37.1531044" lon="-1.0027514"><ele>0.0</ele><time>2026-04-29T12:38:19.08Z</time></trkpt><trkpt lat="37.1531551" lon="-1.0026623"><ele>0.0</ele><time>2026-04-29T12:38:20.08Z</time></trkpt><trkpt lat="37.1532063" lon="-1.002574"><ele>0.0</ele><time>2026-04-29T12:38:21.081Z</time></trkpt><trkpt lat="37.1532583" lon="-1.0024858"><ele>0.0</ele><time>2026-04-29T12:38:22.08Z</time></trkpt><trkpt lat="37.1533061" lon="-1.0023976"><ele>0.0</ele><time>2026-04-29T12:38:23.081Z</time></trkpt><trkpt lat="37.1533556" lon="-1.0023077"><ele>0.0</ele><time>2026-04-29T12:38:24.08Z</time></trkpt><trkpt lat="37.1534069" lon="-1.0022219"><ele>0.0</ele><time>2026-04-29T12:38:25.081Z</time></trkpt><trkpt lat="37.15346" lon="-1.002131"><ele>0.0</ele><time>2026-04-29T12:38:26.081Z</time></trkpt><trkpt lat="37.153513" lon="-1.0020408"><ele>0.0</ele><time>2026-04-29T12:38:27.08Z</time></trkpt><trkpt lat="37.1535621" lon="-1.0019519"><ele>0.0</ele><time>2026-04-29T12:38:28.08Z</time></trkpt><trkpt lat="37.1536165" lon="-1.0018623"><ele>0.0</ele><time>2026-04-29T12:38:29.081Z</time></trkpt><trkpt lat="37.1536626" lon="-1.0017819"><ele>0.0</ele><time>2026-04-29T12:38:30.08Z</time></trkpt><trkpt lat="37.1537194" lon="-1.0016966"><ele>0.0</ele><time>2026-04-29T12:38:31.08Z</time></trkpt><trkpt lat="37.1537759" lon="-1.0016114"><ele>0.0</ele><time>2026-04-29T12:38:32.081Z</time></trkpt><trkpt lat="37.1538238" lon="-1.0015248"><ele>0.0</ele><time>2026-04-29T12:38:33.081Z</time></trkpt><trkpt lat="37.1538749" lon="-1.0014438"><ele>0.0</ele><time>2026-04-29T12:38:34.08Z</time></trkpt><trkpt lat="37.1539824" lon="-1.0012716"><ele>0.0</ele><time>2026-04-29T12:38:36.08Z</time></trkpt><trkpt lat="37.1540365" lon="-1.0011866"><ele>0.0</ele><time>2026-04-29T12:38:37.08Z</time></trkpt><trkpt lat="37.1540793" lon="-1.0010973"><ele>0.0</ele><time>2026-04-29T12:38:38.08Z</time></trkpt><trkpt lat="37.154131" lon="-1.0010004"><ele>0.0</ele><time>2026-04-29T12:38:39.081Z</time></trkpt><trkpt lat="37.1541816" lon="-1.0009097"><ele>0.0</ele><time>2026-04-29T12:38:40.081Z</time></trkpt><trkpt lat="37.1542305" lon="-1.0008233"><ele>0.0</ele><time>2026-04-29T12:38:41.08Z</time></trkpt><trkpt lat="37.1542818" lon="-1.0007353"><ele>0.0</ele><time>2026-04-29T12:38:42.08Z</time></trkpt><trkpt lat="37.15433" lon="-1.0006466"><ele>0.0</ele><time>2026-04-29T12:38:43.081Z</time></trkpt><trkpt lat="37.1543784" lon="-1.0005583"><ele>0.0</ele><time>2026-04-29T12:38:44.08Z</time></trkpt><trkpt lat="37.1544271" lon="-1.0004729"><ele>0.0</ele><time>2026-04-29T12:38:45.081Z</time></trkpt><trkpt lat="37.1544796" lon="-1.000381"><ele>0.0</ele><time>2026-04-29T12:38:46.081Z</time></trkpt><trkpt lat="37.1545333" lon="-1.000293"><ele>0.0</ele><time>2026-04-29T12:38:47.081Z</time></trkpt><trkpt lat="37.154589" lon="-1.0002122"><ele>0.0</ele><time>2026-04-29T12:38:48.08Z</time></trkpt><trkpt lat="37.1546413" lon="-1.0001266"><ele>0.0</ele><time>2026-04-29T12:38:49.08Z</time></trkpt><trkpt lat="37.1546972" lon="-1.0000386"><ele>0.0</ele><time>2026-04-29T12:38:50.08Z</time></trkpt><trkpt lat="37.1547625" lon="-0.9999518"><ele>0.0</ele><time>2026-04-29T12:38:51.08Z</time></trkpt><trkpt lat="37.1548164" lon="-0.9998639"><ele>0.0</ele><time>2026-04-29T12:38:52.081Z</time></trkpt><trkpt lat="37.1548713" lon="-0.9997753"><ele>0.0</ele><time>2026-04-29T12:38:53.081Z</time></trkpt><trkpt lat="37.154922" lon="-0.9996912"><ele>0.0</ele><time>2026-04-29T12:38:54.081Z</time></trkpt><trkpt lat="37.1550203" lon="-0.999526"><ele>0.0</ele><time>2026-04-29T12:38:56.081Z</time></trkpt><trkpt lat="37.1550732" lon="-0.9994418"><ele>0.0</ele><time>2026-04-29T12:38:57.081Z</time></trkpt><trkpt lat="37.155128" lon="-0.9993609"><ele>0.0</ele><time>2026-04-29T12:38:58.08Z</time></trkpt><trkpt lat="37.1551784" lon="-0.9992766"><ele>0.0</ele><time>2026-04-29T12:38:59.081Z</time></trkpt><trkpt lat="37.1552313" lon="-0.9991904"><ele>0.0</ele><time>2026-04-29T12:39:00.081Z</time></trkpt><trkpt lat="37.1552846" lon="-0.9991018"><ele>0.0</ele><time>2026-04-29T12:39:01.081Z</time></trkpt><trkpt lat="37.1553397" lon="-0.9990123"><ele>0.0</ele><time>2026-04-29T12:39:02.08Z</time></trkpt><trkpt lat="37.1553889" lon="-0.9989297"><ele>0.0</ele><time>2026-04-29T12:39:03.08Z</time></trkpt><trkpt lat="37.1554397" lon="-0.9988366"><ele>0.0</ele><time>2026-04-29T12:39:04.08Z</time></trkpt><trkpt lat="37.1554917" lon="-0.9987515"><ele>0.0</ele><time>2026-04-29T12:39:05.081Z</time></trkpt><trkpt lat="37.1555405" lon="-0.9986707"><ele>0.0</ele><time>2026-04-29T12:39:06.08Z</time></trkpt><trkpt lat="37.1555919" lon="-0.9985862"><ele>0.0</ele><time>2026-04-29T12:39:07.081Z</time></trkpt><trkpt lat="37.1556449" lon="-0.9985002"><ele>0.0</ele><time>2026-04-29T12:39:08.08Z</time></trkpt><trkpt lat="37.1556952" lon="-0.9984122"><ele>0.0</ele><time>2026-04-29T12:39:09.081Z</time></trkpt><trkpt lat="37.1557465" lon="-0.9983236"><ele>0.0</ele><time>2026-04-29T12:39:10.08Z</time></trkpt><trkpt lat="37.1557981" lon="-0.9982338"><ele>0.0</ele><time>2026-04-29T12:39:11.081Z</time></trkpt><trkpt lat="37.1558543" lon="-0.9981471"><ele>0.0</ele><time>2026-04-29T12:39:12.08Z</time></trkpt><trkpt lat="37.1559066" lon="-0.9980648"><ele>0.0</ele><time>2026-04-29T12:39:13.081Z</time></trkpt><trkpt lat="37.1559612" lon="-0.9979775"><ele>0.0</ele><time>2026-04-29T12:39:14.08Z</time></trkpt><trkpt lat="37.156019" lon="-0.9978933"><ele>0.0</ele><time>2026-04-29T12:39:15.081Z</time></trkpt><trkpt lat="37.1561278" lon="-0.9977159"><ele>0.0</ele><time>2026-04-29T12:39:17.081Z</time></trkpt><trkpt lat="37.1561799" lon="-0.9976272"><ele>0.0</ele><time>2026-04-29T12:39:18.081Z</time></trkpt><trkpt lat="37.1562301" lon="-0.99754"><ele>0.0</ele><time>2026-04-29T12:39:19.081Z</time></trkpt><trkpt lat="37.1562787" lon="-0.9974532"><ele>0.0</ele><time>2026-04-29T12:39:20.08Z</time></trkpt><trkpt lat="37.156324" lon="-0.9973664"><ele>0.0</ele><time>2026-04-29T12:39:21.08Z</time></trkpt><trkpt lat="37.1563722" lon="-0.9972826"><ele>0.0</ele><time>2026-04-29T12:39:22.081Z</time></trkpt><trkpt lat="37.1564194" lon="-0.9972005"><ele>0.0</ele><time>2026-04-29T12:39:23.081Z</time></trkpt><trkpt lat="37.1564675" lon="-0.9971162"><ele>0.0</ele><time>2026-04-29T12:39:24.079Z</time></trkpt><trkpt lat="37.1565139" lon="-0.9970311"><ele>0.0</ele><time>2026-04-29T12:39:25.079Z</time></trkpt><trkpt lat="37.1565637" lon="-0.9969464"><ele>0.0</ele><time>2026-04-29T12:39:26.079Z</time></trkpt><trkpt lat="37.1566135" lon="-0.9968599"><ele>0.0</ele><time>2026-04-29T12:39:27.079Z</time></trkpt><trkpt lat="37.1566637" lon="-0.9967718"><ele>0.0</ele><time>2026-04-29T12:39:28.08Z</time></trkpt><trkpt lat="37.1567133" lon="-0.9966833"><ele>0.0</ele><time>2026-04-29T12:39:29.079Z</time></trkpt><trkpt lat="37.1567617" lon="-0.9965938"><ele>0.0</ele><time>2026-04-29T12:39:30.079Z</time></trkpt><trkpt lat="37.1568148" lon="-0.9965053"><ele>0.0</ele><time>2026-04-29T12:39:31.079Z</time></trkpt><trkpt lat="37.1568653" lon="-0.9964169"><ele>0.0</ele><time>2026-04-29T12:39:32.08Z</time></trkpt><trkpt lat="37.1569166" lon="-0.9963257"><ele>0.0</ele><time>2026-04-29T12:39:33.079Z</time></trkpt><trkpt lat="37.1569669" lon="-0.9962396"><ele>0.0</ele><time>2026-04-29T12:39:34.08Z</time></trkpt><trkpt lat="37.157017" lon="-0.9961533"><ele>0.0</ele><time>2026-04-29T12:39:35.079Z</time></trkpt><trkpt lat="37.1570654" lon="-0.9960709"><ele>0.0</ele><time>2026-04-29T12:39:36.08Z</time></trkpt><trkpt lat="37.1571697" lon="-0.9959003"><ele>0.0</ele><time>2026-04-29T12:39:38.08Z</time></trkpt><trkpt lat="37.1572216" lon="-0.9958122"><ele>0.0</ele><time>2026-04-29T12:39:39.08Z</time></trkpt><trkpt lat="37.1572722" lon="-0.9957253"><ele>0.0</ele><time>2026-04-29T12:39:40.08Z</time></trkpt><trkpt lat="37.1573223" lon="-0.9956442"><ele>0.0</ele><time>2026-04-29T12:39:41.08Z</time></trkpt><trkpt lat="37.1573735" lon="-0.995561"><ele>0.0</ele><time>2026-04-29T12:39:42.079Z</time></trkpt><trkpt lat="37.1574351" lon="-0.9954779"><ele>0.0</ele><time>2026-04-29T12:39:43.08Z</time></trkpt><trkpt lat="37.157491" lon="-0.9953944"><ele>0.0</ele><time>2026-04-29T12:39:44.079Z</time></trkpt><trkpt lat="37.1575463" lon="-0.9953099"><ele>0.0</ele><time>2026-04-29T12:39:45.079Z</time></trkpt><trkpt lat="37.1575941" lon="-0.995222"><ele>0.0</ele><time>2026-04-29T12:39:46.08Z</time></trkpt><trkpt lat="37.1576508" lon="-0.9951327"><ele>0.0</ele><time>2026-04-29T12:39:47.08Z</time></trkpt><trkpt lat="37.1577074" lon="-0.9950439"><ele>0.0</ele><time>2026-04-29T12:39:48.08Z</time></trkpt><trkpt lat="37.1577616" lon="-0.9949569"><ele>0.0</ele><time>2026-04-29T12:39:49.08Z</time></trkpt><trkpt lat="37.1578121" lon="-0.9948704"><ele>0.0</ele><time>2026-04-29T12:39:50.079Z</time></trkpt><trkpt lat="37.1578677" lon="-0.9947795"><ele>0.0</ele><time>2026-04-29T12:39:51.08Z</time></trkpt><trkpt lat="37.1579185" lon="-0.9946919"><ele>0.0</ele><time>2026-04-29T12:39:52.079Z</time></trkpt><trkpt lat="37.15797" lon="-0.9946066"><ele>0.0</ele><time>2026-04-29T12:39:53.08Z</time></trkpt><trkpt lat="37.1580221" lon="-0.9945185"><ele>0.0</ele><time>2026-04-29T12:39:54.079Z</time></trkpt><trkpt lat="37.1580724" lon="-0.9944331"><ele>0.0</ele><time>2026-04-29T12:39:55.08Z</time></trkpt><trkpt lat="37.1581219" lon="-0.994347"><ele>0.0</ele><time>2026-04-29T12:39:56.08Z</time></trkpt><trkpt lat="37.1581731" lon="-0.9942558"><ele>0.0</ele><time>2026-04-29T12:39:57.08Z</time></trkpt><trkpt lat="37.1582813" lon="-0.9940815"><ele>0.0</ele><time>2026-04-29T12:39:59.079Z</time></trkpt><trkpt lat="37.1583321" lon="-0.9939938"><ele>0.0</ele><time>2026-04-29T12:40:00.08Z</time></trkpt><trkpt lat="37.1583817" lon="-0.9939097"><ele>0.0</ele><time>2026-04-29T12:40:01.079Z</time></trkpt><trkpt lat="37.1584347" lon="-0.9938249"><ele>0.0</ele><time>2026-04-29T12:40:02.079Z</time></trkpt><trkpt lat="37.1584922" lon="-0.9937314"><ele>0.0</ele><time>2026-04-29T12:40:03.079Z</time></trkpt><trkpt lat="37.1585389" lon="-0.9936436"><ele>0.0</ele><time>2026-04-29T12:40:04.08Z</time></trkpt><trkpt lat="37.1585871" lon="-0.9935568"><ele>0.0</ele><time>2026-04-29T12:40:05.08Z</time></trkpt><trkpt lat="37.1586423" lon="-0.9934686"><ele>0.0</ele><time>2026-04-29T12:40:06.079Z</time></trkpt><trkpt lat="37.1586974" lon="-0.9933874"><ele>0.0</ele><time>2026-04-29T12:40:07.08Z</time></trkpt><trkpt lat="37.1587514" lon="-0.9933028"><ele>0.0</ele><time>2026-04-29T12:40:08.079Z</time></trkpt><trkpt lat="37.1588018" lon="-0.9932192"><ele>0.0</ele><time>2026-04-29T12:40:09.08Z</time></trkpt><trkpt lat="37.1588536" lon="-0.9931347"><ele>0.0</ele><time>2026-04-29T12:40:10.08Z</time></trkpt><trkpt lat="37.1589036" lon="-0.9930457"><ele>0.0</ele><time>2026-04-29T12:40:11.079Z</time></trkpt><trkpt lat="37.1589552" lon="-0.992953"><ele>0.0</ele><time>2026-04-29T12:40:12.08Z</time></trkpt><trkpt lat="37.1590052" lon="-0.9928636"><ele>0.0</ele><time>2026-04-29T12:40:13.08Z</time></trkpt><trkpt lat="37.1590507" lon="-0.992775"><ele>0.0</ele><time>2026-04-29T12:40:14.079Z</time></trkpt><trkpt lat="37.1590986" lon="-0.9926824"><ele>0.0</ele><time>2026-04-29T12:40:15.08Z</time></trkpt><trkpt lat="37.1591412" lon="-0.9925906"><ele>0.0</ele><time>2026-04-29T12:40:16.08Z</time></trkpt><trkpt lat="37.1591856" lon="-0.9925018"><ele>0.0</ele><time>2026-04-29T12:40:17.079Z</time></trkpt><trkpt lat="37.1592283" lon="-0.9924175"><ele>0.0</ele><time>2026-04-29T12:40:18.08Z</time></trkpt><trkpt lat="37.1593223" lon="-0.9922472"><ele>0.0</ele><time>2026-04-29T12:40:20.08Z</time></trkpt><trkpt lat="37.1593676" lon="-0.9921573"><ele>0.0</ele><time>2026-04-29T12:40:21.08Z</time></trkpt><trkpt lat="37.159411" lon="-0.9920671"><ele>0.0</ele><time>2026-04-29T12:40:22.08Z</time></trkpt><trkpt lat="37.1594684" lon="-0.99198"><ele>0.0</ele><time>2026-04-29T12:40:23.079Z</time></trkpt><trkpt lat="37.1595245" lon="-0.9918949"><ele>0.0</ele><time>2026-04-29T12:40:24.079Z</time></trkpt><trkpt lat="37.1595807" lon="-0.9918128"><ele>0.0</ele><time>2026-04-29T12:40:25.079Z</time></trkpt><trkpt lat="37.159633" lon="-0.991725"><ele>0.0</ele><time>2026-04-29T12:40:26.08Z</time></trkpt><trkpt lat="37.1596866" lon="-0.9916367"><ele>0.0</ele><time>2026-04-29T12:40:27.079Z</time></trkpt><trkpt lat="37.1597356" lon="-0.9915528"><ele>0.0</ele><time>2026-04-29T12:40:28.079Z</time></trkpt><trkpt lat="37.1597909" lon="-0.9914678"><ele>0.0</ele><time>2026-04-29T12:40:29.079Z</time></trkpt><trkpt lat="37.1598418" lon="-0.9913846"><ele>0.0</ele><time>2026-04-29T12:40:30.079Z</time></trkpt><trkpt lat="37.1598935" lon="-0.9913027"><ele>0.0</ele><time>2026-04-29T12:40:31.08Z</time></trkpt><trkpt lat="37.1599439" lon="-0.9912167"><ele>0.0</ele><time>2026-04-29T12:40:32.08Z</time></trkpt><trkpt lat="37.1599981" lon="-0.9911288"><ele>0.0</ele><time>2026-04-29T12:40:33.08Z</time></trkpt><trkpt lat="37.1600503" lon="-0.9910362"><ele>0.0</ele><time>2026-04-29T12:40:34.079Z</time></trkpt><trkpt lat="37.1601017" lon="-0.9909472"><ele>0.0</ele><time>2026-04-29T12:40:35.08Z</time></trkpt><trkpt lat="37.1601489" lon="-0.99086"><ele>0.0</ele><time>2026-04-29T12:40:36.08Z</time></trkpt><trkpt lat="37.1601983" lon="-0.9907689"><ele>0.0</ele><time>2026-04-29T12:40:37.079Z</time></trkpt><trkpt lat="37.16025" lon="-0.990679"><ele>0.0</ele><time>2026-04-29T12:40:38.08Z</time></trkpt><trkpt lat="37.1602976" lon="-0.9905944"><ele>0.0</ele><time>2026-04-29T12:40:39.079Z</time></trkpt><trkpt lat="37.1603956" lon="-0.9904267"><ele>0.0</ele><time>2026-04-29T12:40:41.08Z</time></trkpt><trkpt lat="37.1604454" lon="-0.9903414"><ele>0.0</ele><time>2026-04-29T12:40:42.08Z</time></trkpt><trkpt lat="37.160495" lon="-0.9902504"><ele>0.0</ele><time>2026-04-29T12:40:43.08Z</time></trkpt><trkpt lat="37.1605475" lon="-0.9901564"><ele>0.0</ele><time>2026-04-29T12:40:44.08Z</time></trkpt><trkpt lat="37.1605954" lon="-0.9900699"><ele>0.0</ele><time>2026-04-29T12:40:45.079Z</time></trkpt><trkpt lat="37.1606466" lon="-0.9899804"><ele>0.0</ele><time>2026-04-29T12:40:46.08Z</time></trkpt><trkpt lat="37.1607032" lon="-0.9898934"><ele>0.0</ele><time>2026-04-29T12:40:47.08Z</time></trkpt><trkpt lat="37.1607569" lon="-0.9898066"><ele>0.0</ele><time>2026-04-29T12:40:48.08Z</time></trkpt><trkpt lat="37.1608088" lon="-0.9897226"><ele>0.0</ele><time>2026-04-29T12:40:49.08Z</time></trkpt><trkpt lat="37.1608605" lon="-0.989637"><ele>0.0</ele><time>2026-04-29T12:40:50.079Z</time></trkpt><trkpt lat="37.1609145" lon="-0.9895517"><ele>0.0</ele><time>2026-04-29T12:40:51.08Z</time></trkpt><trkpt lat="37.1609652" lon="-0.9894623"><ele>0.0</ele><time>2026-04-29T12:40:52.08Z</time></trkpt><trkpt lat="37.1610182" lon="-0.9893708"><ele>0.0</ele><time>2026-04-29T12:40:53.08Z</time></trkpt><trkpt lat="37.161067" lon="-0.9892792"><ele>0.0</ele><time>2026-04-29T12:40:54.079Z</time></trkpt><trkpt lat="37.1611166" lon="-0.9891888"><ele>0.0</ele><time>2026-04-29T12:40:55.08Z</time></trkpt><trkpt lat="37.1611681" lon="-0.9891034"><ele>0.0</ele><time>2026-04-29T12:40:56.079Z</time></trkpt><trkpt lat="37.1612183" lon="-0.9890101"><ele>0.0</ele><time>2026-04-29T12:40:57.079Z</time></trkpt><trkpt lat="37.1612785" lon="-0.9889247"><ele>0.0</ele><time>2026-04-29T12:40:58.079Z</time></trkpt><trkpt lat="37.1613383" lon="-0.9888415"><ele>0.0</ele><time>2026-04-29T12:40:59.08Z</time></trkpt><trkpt lat="37.1613875" lon="-0.988762"><ele>0.0</ele><time>2026-04-29T12:41:00.08Z</time></trkpt><trkpt lat="37.1614873" lon="-0.988587"><ele>0.0</ele><time>2026-04-29T12:41:02.079Z</time></trkpt><trkpt lat="37.1615354" lon="-0.9885"><ele>0.0</ele><time>2026-04-29T12:41:03.08Z</time></trkpt><trkpt lat="37.1615852" lon="-0.988415"><ele>0.0</ele><time>2026-04-29T12:41:04.08Z</time></trkpt><trkpt lat="37.1616312" lon="-0.9883324"><ele>0.0</ele><time>2026-04-29T12:41:05.079Z</time></trkpt><trkpt lat="37.1616745" lon="-0.9882504"><ele>0.0</ele><time>2026-04-29T12:41:06.079Z</time></trkpt><trkpt lat="37.1617211" lon="-0.9881689"><ele>0.0</ele><time>2026-04-29T12:41:07.079Z</time></trkpt><trkpt lat="37.1617688" lon="-0.988083"><ele>0.0</ele><time>2026-04-29T12:41:08.079Z</time></trkpt><trkpt lat="37.1618173" lon="-0.9879963"><ele>0.0</ele><time>2026-04-29T12:41:09.08Z</time></trkpt><trkpt lat="37.1618685" lon="-0.9879029"><ele>0.0</ele><time>2026-04-29T12:41:10.08Z</time></trkpt><trkpt lat="37.1619229" lon="-0.9878109"><ele>0.0</ele><time>2026-04-29T12:41:11.079Z</time></trkpt><trkpt lat="37.161972" lon="-0.9877219"><ele>0.0</ele><time>2026-04-29T12:41:12.079Z</time></trkpt><trkpt lat="37.1620206" lon="-0.9876365"><ele>0.0</ele><time>2026-04-29T12:41:13.079Z</time></trkpt><trkpt lat="37.1620701" lon="-0.987548"><ele>0.0</ele><time>2026-04-29T12:41:14.079Z</time></trkpt><trkpt lat="37.1621214" lon="-0.9874571"><ele>0.0</ele><time>2026-04-29T12:41:15.08Z</time></trkpt><trkpt lat="37.1621775" lon="-0.9873669"><ele>0.0</ele><time>2026-04-29T12:41:16.08Z</time></trkpt><trkpt lat="37.1622341" lon="-0.9872828"><ele>0.0</ele><time>2026-04-29T12:41:17.08Z</time></trkpt><trkpt lat="37.1622865" lon="-0.9871964"><ele>0.0</ele><time>2026-04-29T12:41:18.079Z</time></trkpt><trkpt lat="37.1623325" lon="-0.9871127"><ele>0.0</ele><time>2026-04-29T12:41:19.08Z</time></trkpt><trkpt lat="37.1623805" lon="-0.9870298"><ele>0.0</ele><time>2026-04-29T12:41:20.08Z</time></trkpt><trkpt lat="37.1624314" lon="-0.9869375"><ele>0.0</ele><time>2026-04-29T12:41:21.079Z</time></trkpt><trkpt lat="37.1625405" lon="-0.9867585"><ele>0.0</ele><time>2026-04-29T12:41:23.08Z</time></trkpt><trkpt lat="37.1625932" lon="-0.9866745"><ele>0.0</ele><time>2026-04-29T12:41:24.08Z</time></trkpt><trkpt lat="37.1626422" lon="-0.9865869"><ele>0.0</ele><time>2026-04-29T12:41:25.08Z</time></trkpt><trkpt lat="37.1627005" lon="-0.9864969"><ele>0.0</ele><time>2026-04-29T12:41:26.079Z</time></trkpt><trkpt lat="37.1627516" lon="-0.9864114"><ele>0.0</ele><time>2026-04-29T12:41:27.08Z</time></trkpt><trkpt lat="37.1628062" lon="-0.9863223"><ele>0.0</ele><time>2026-04-29T12:41:28.08Z</time></trkpt><trkpt lat="37.1628623" lon="-0.986234"><ele>0.0</ele><time>2026-04-29T12:41:29.079Z</time></trkpt><trkpt lat="37.1629179" lon="-0.9861469"><ele>0.0</ele><time>2026-04-29T12:41:30.08Z</time></trkpt><trkpt lat="37.162964" lon="-0.9860643"><ele>0.0</ele><time>2026-04-29T12:41:31.08Z</time></trkpt><trkpt lat="37.1630136" lon="-0.9859808"><ele>0.0</ele><time>2026-04-29T12:41:32.08Z</time></trkpt><trkpt lat="37.1630664" lon="-0.9858946"><ele>0.0</ele><time>2026-04-29T12:41:33.079Z</time></trkpt><trkpt lat="37.1631197" lon="-0.9858113"><ele>0.0</ele><time>2026-04-29T12:41:34.08Z</time></trkpt><trkpt lat="37.1631703" lon="-0.9857277"><ele>0.0</ele><time>2026-04-29T12:41:35.079Z</time></trkpt><trkpt lat="37.1632258" lon="-0.9856359"><ele>0.0</ele><time>2026-04-29T12:41:36.079Z</time></trkpt><trkpt lat="37.1632705" lon="-0.9855511"><ele>0.0</ele><time>2026-04-29T12:41:37.079Z</time></trkpt><trkpt lat="37.163317" lon="-0.9854677"><ele>0.0</ele><time>2026-04-29T12:41:38.079Z</time></trkpt><trkpt lat="37.1633652" lon="-0.9853789"><ele>0.0</ele><time>2026-04-29T12:41:39.079Z</time></trkpt><trkpt lat="37.163412" lon="-0.9852903"><ele>0.0</ele><time>2026-04-29T12:41:40.079Z</time></trkpt><trkpt lat="37.1634659" lon="-0.9851961"><ele>0.0</ele><time>2026-04-29T12:41:41.079Z</time></trkpt><trkpt lat="37.1635138" lon="-0.985107"><ele>0.0</ele><time>2026-04-29T12:41:42.079Z</time></trkpt><trkpt lat="37.1636168" lon="-0.984929"><ele>0.0</ele><time>2026-04-29T12:41:44.08Z</time></trkpt><trkpt lat="37.1636609" lon="-0.984843"><ele>0.0</ele><time>2026-04-29T12:41:45.079Z</time></trkpt><trkpt lat="37.1637119" lon="-0.9847537"><ele>0.0</ele><time>2026-04-29T12:41:46.079Z</time></trkpt><trkpt lat="37.1637649" lon="-0.9846667"><ele>0.0</ele><time>2026-04-29T12:41:47.08Z</time></trkpt><trkpt lat="37.1638169" lon="-0.9845816"><ele>0.0</ele><time>2026-04-29T12:41:48.08Z</time></trkpt><trkpt lat="37.1638712" lon="-0.9844908"><ele>0.0</ele><time>2026-04-29T12:41:49.079Z</time></trkpt><trkpt lat="37.163922" lon="-0.9844094"><ele>0.0</ele><time>2026-04-29T12:41:50.08Z</time></trkpt><trkpt lat="37.1639695" lon="-0.9843261"><ele>0.0</ele><time>2026-04-29T12:41:51.079Z</time></trkpt><trkpt lat="37.1640155" lon="-0.9842398"><ele>0.0</ele><time>2026-04-29T12:41:52.079Z</time></trkpt><trkpt lat="37.1640609" lon="-0.9841519"><ele>0.0</ele><time>2026-04-29T12:41:53.079Z</time></trkpt><trkpt lat="37.1641002" lon="-0.984061"><ele>0.0</ele><time>2026-04-29T12:41:54.079Z</time></trkpt><trkpt lat="37.1641438" lon="-0.9839749"><ele>0.0</ele><time>2026-04-29T12:41:55.079Z</time></trkpt><trkpt lat="37.1641902" lon="-0.9838867"><ele>0.0</ele><time>2026-04-29T12:41:56.079Z</time></trkpt><trkpt lat="37.1642443" lon="-0.9838057"><ele>0.0</ele><time>2026-04-29T12:41:57.08Z</time></trkpt><trkpt lat="37.1642995" lon="-0.9837202"><ele>0.0</ele><time>2026-04-29T12:41:58.08Z</time></trkpt><trkpt lat="37.1643472" lon="-0.983639"><ele>0.0</ele><time>2026-04-29T12:41:59.079Z</time></trkpt><trkpt lat="37.1643973" lon="-0.9835575"><ele>0.0</ele><time>2026-04-29T12:42:00.08Z</time></trkpt><trkpt lat="37.1644513" lon="-0.9834692"><ele>0.0</ele><time>2026-04-29T12:42:01.08Z</time></trkpt><trkpt lat="37.1645046" lon="-0.983375"><ele>0.0</ele><time>2026-04-29T12:42:02.08Z</time></trkpt><trkpt lat="37.1646034" lon="-0.9831871"><ele>0.0</ele><time>2026-04-29T12:42:04.079Z</time></trkpt><trkpt lat="37.1646578" lon="-0.9831001"><ele>0.0</ele><time>2026-04-29T12:42:05.08Z</time></trkpt><trkpt lat="37.1647082" lon="-0.9830105"><ele>0.0</ele><time>2026-04-29T12:42:06.079Z</time></trkpt><trkpt lat="37.1647593" lon="-0.9829162"><ele>0.0</ele><time>2026-04-29T12:42:07.08Z</time></trkpt><trkpt lat="37.1648114" lon="-0.9828214"><ele>0.0</ele><time>2026-04-29T12:42:08.08Z</time></trkpt><trkpt lat="37.1648618" lon="-0.9827347"><ele>0.0</ele><time>2026-04-29T12:42:09.079Z</time></trkpt><trkpt lat="37.1649114" lon="-0.9826471"><ele>0.0</ele><time>2026-04-29T12:42:10.079Z</time></trkpt><trkpt lat="37.1649615" lon="-0.9825589"><ele>0.0</ele><time>2026-04-29T12:42:11.08Z</time></trkpt><trkpt lat="37.165016" lon="-0.9824702"><ele>0.0</ele><time>2026-04-29T12:42:12.08Z</time></trkpt><trkpt lat="37.1650679" lon="-0.9823806"><ele>0.0</ele><time>2026-04-29T12:42:13.079Z</time></trkpt><trkpt lat="37.1651226" lon="-0.9822947"><ele>0.0</ele><time>2026-04-29T12:42:14.08Z</time></trkpt><trkpt lat="37.1651748" lon="-0.9822067"><ele>0.0</ele><time>2026-04-29T12:42:15.079Z</time></trkpt><trkpt lat="37.1652279" lon="-0.9821184"><ele>0.0</ele><time>2026-04-29T12:42:16.079Z</time></trkpt><trkpt lat="37.1652967" lon="-0.9820358"><ele>0.0</ele><time>2026-04-29T12:42:17.08Z</time></trkpt><trkpt lat="37.1653535" lon="-0.9819582"><ele>0.0</ele><time>2026-04-29T12:42:18.079Z</time></trkpt><trkpt lat="37.1654048" lon="-0.9818744"><ele>0.0</ele><time>2026-04-29T12:42:19.079Z</time></trkpt><trkpt lat="37.1654521" lon="-0.9817894"><ele>0.0</ele><time>2026-04-29T12:42:20.08Z</time></trkpt><trkpt lat="37.1655044" lon="-0.9817101"><ele>0.0</ele><time>2026-04-29T12:42:21.079Z</time></trkpt><trkpt lat="37.1655581" lon="-0.9816232"><ele>0.0</ele><time>2026-04-29T12:42:22.079Z</time></trkpt><trkpt lat="37.1656125" lon="-0.981541"><ele>0.0</ele><time>2026-04-29T12:42:23.079Z</time></trkpt><trkpt lat="37.1657051" lon="-0.9813576"><ele>0.0</ele><time>2026-04-29T12:42:25.08Z</time></trkpt><trkpt lat="37.165758" lon="-0.981267"><ele>0.0</ele><time>2026-04-29T12:42:26.079Z</time></trkpt><trkpt lat="37.1658081" lon="-0.9811784"><ele>0.0</ele><time>2026-04-29T12:42:27.08Z</time></trkpt><trkpt lat="37.1658581" lon="-0.9810859"><ele>0.0</ele><time>2026-04-29T12:42:28.08Z</time></trkpt><trkpt lat="37.1659069" lon="-0.9809985"><ele>0.0</ele><time>2026-04-29T12:42:29.079Z</time></trkpt><trkpt lat="37.1659568" lon="-0.9809134"><ele>0.0</ele><time>2026-04-29T12:42:30.08Z</time></trkpt><trkpt lat="37.1660055" lon="-0.9808312"><ele>0.0</ele><time>2026-04-29T12:42:31.08Z</time></trkpt><trkpt lat="37.1660506" lon="-0.9807449"><ele>0.0</ele><time>2026-04-29T12:42:32.079Z</time></trkpt><trkpt lat="37.1660971" lon="-0.9806583"><ele>0.0</ele><time>2026-04-29T12:42:33.079Z</time></trkpt><trkpt lat="37.1661422" lon="-0.9805746"><ele>0.0</ele><time>2026-04-29T12:42:34.079Z</time></trkpt><trkpt lat="37.1661887" lon="-0.9804867"><ele>0.0</ele><time>2026-04-29T12:42:35.079Z</time></trkpt><trkpt lat="37.1662423" lon="-0.9803982"><ele>0.0</ele><time>2026-04-29T12:42:36.079Z</time></trkpt><trkpt lat="37.1662894" lon="-0.9803085"><ele>0.0</ele><time>2026-04-29T12:42:37.08Z</time></trkpt><trkpt lat="37.1663399" lon="-0.9802203"><ele>0.0</ele><time>2026-04-29T12:42:38.079Z</time></trkpt><trkpt lat="37.1663917" lon="-0.980132"><ele>0.0</ele><time>2026-04-29T12:42:39.079Z</time></trkpt><trkpt lat="37.1664418" lon="-0.9800436"><ele>0.0</ele><time>2026-04-29T12:42:40.079Z</time></trkpt><trkpt lat="37.1664875" lon="-0.9799609"><ele>0.0</ele><time>2026-04-29T12:42:41.08Z</time></trkpt><trkpt lat="37.1665377" lon="-0.9798678"><ele>0.0</ele><time>2026-04-29T12:42:42.079Z</time></trkpt><trkpt lat="37.1665926" lon="-0.9797776"><ele>0.0</ele><time>2026-04-29T12:42:43.079Z</time></trkpt><trkpt lat="37.1666487" lon="-0.9796863"><ele>0.0</ele><time>2026-04-29T12:42:44.079Z</time></trkpt><trkpt lat="37.1667563" lon="-0.9795038"><ele>0.0</ele><time>2026-04-29T12:42:46.079Z</time></trkpt><trkpt lat="37.1668108" lon="-0.9794193"><ele>0.0</ele><time>2026-04-29T12:42:47.079Z</time></trkpt><trkpt lat="37.1668612" lon="-0.9793347"><ele>0.0</ele><time>2026-04-29T12:42:48.079Z</time></trkpt><trkpt lat="37.166907" lon="-0.9792514"><ele>0.0</ele><time>2026-04-29T12:42:49.079Z</time></trkpt><trkpt lat="37.1669542" lon="-0.9791678"><ele>0.0</ele><time>2026-04-29T12:42:50.079Z</time></trkpt><trkpt lat="37.1670053" lon="-0.9790818"><ele>0.0</ele><time>2026-04-29T12:42:51.079Z</time></trkpt><trkpt lat="37.1670568" lon="-0.978988"><ele>0.0</ele><time>2026-04-29T12:42:52.08Z</time></trkpt><trkpt lat="37.1671099" lon="-0.9789048"><ele>0.0</ele><time>2026-04-29T12:42:53.079Z</time></trkpt><trkpt lat="37.1671659" lon="-0.9788198"><ele>0.0</ele><time>2026-04-29T12:42:54.079Z</time></trkpt><trkpt lat="37.1672226" lon="-0.9787322"><ele>0.0</ele><time>2026-04-29T12:42:55.08Z</time></trkpt><trkpt lat="37.1672795" lon="-0.9786479"><ele>0.0</ele><time>2026-04-29T12:42:56.079Z</time></trkpt><trkpt lat="37.1673346" lon="-0.9785633"><ele>0.0</ele><time>2026-04-29T12:42:57.08Z</time></trkpt><trkpt lat="37.1673894" lon="-0.9784739"><ele>0.0</ele><time>2026-04-29T12:42:58.08Z</time></trkpt><trkpt lat="37.1674343" lon="-0.9783938"><ele>0.0</ele><time>2026-04-29T12:42:59.079Z</time></trkpt><trkpt lat="37.1674779" lon="-0.978311"><ele>0.0</ele><time>2026-04-29T12:43:00.079Z</time></trkpt><trkpt lat="37.1675283" lon="-0.9782263"><ele>0.0</ele><time>2026-04-29T12:43:01.08Z</time></trkpt><trkpt lat="37.1675755" lon="-0.9781385"><ele>0.0</ele><time>2026-04-29T12:43:02.079Z</time></trkpt><trkpt lat="37.1676279" lon="-0.9780489"><ele>0.0</ele><time>2026-04-29T12:43:03.08Z</time></trkpt><trkpt lat="37.1676798" lon="-0.977956"><ele>0.0</ele><time>2026-04-29T12:43:04.079Z</time></trkpt><trkpt lat="37.1677314" lon="-0.9778658"><ele>0.0</ele><time>2026-04-29T12:43:05.079Z</time></trkpt><trkpt lat="37.1678276" lon="-0.9776853"><ele>0.0</ele><time>2026-04-29T12:43:07.079Z</time></trkpt><trkpt lat="37.1678821" lon="-0.9776041"><ele>0.0</ele><time>2026-04-29T12:43:08.08Z</time></trkpt><trkpt lat="37.167936" lon="-0.9775169"><ele>0.0</ele><time>2026-04-29T12:43:09.08Z</time></trkpt><trkpt lat="37.1679935" lon="-0.9774339"><ele>0.0</ele><time>2026-04-29T12:43:10.079Z</time></trkpt><trkpt lat="37.1680473" lon="-0.9773467"><ele>0.0</ele><time>2026-04-29T12:43:11.08Z</time></trkpt><trkpt lat="37.1680997" lon="-0.9772594"><ele>0.0</ele><time>2026-04-29T12:43:12.079Z</time></trkpt><trkpt lat="37.1681427" lon="-0.9771704"><ele>0.0</ele><time>2026-04-29T12:43:13.079Z</time></trkpt><trkpt lat="37.1681806" lon="-0.977089"><ele>0.0</ele><time>2026-04-29T12:43:14.079Z</time></trkpt><trkpt lat="37.1682272" lon="-0.977003"><ele>0.0</ele><time>2026-04-29T12:43:15.08Z</time></trkpt><trkpt lat="37.1682812" lon="-0.9769181"><ele>0.0</ele><time>2026-04-29T12:43:16.079Z</time></trkpt><trkpt lat="37.1683375" lon="-0.9768274"><ele>0.0</ele><time>2026-04-29T12:43:17.08Z</time></trkpt><trkpt lat="37.1683915" lon="-0.97674"><ele>0.0</ele><time>2026-04-29T12:43:18.079Z</time></trkpt><trkpt lat="37.1684419" lon="-0.9766577"><ele>0.0</ele><time>2026-04-29T12:43:19.079Z</time></trkpt><trkpt lat="37.1684933" lon="-0.976576"><ele>0.0</ele><time>2026-04-29T12:43:20.079Z</time></trkpt><trkpt lat="37.1685478" lon="-0.9764927"><ele>0.0</ele><time>2026-04-29T12:43:21.079Z</time></trkpt><trkpt lat="37.1686039" lon="-0.9764052"><ele>0.0</ele><time>2026-04-29T12:43:22.079Z</time></trkpt><trkpt lat="37.1686564" lon="-0.9763158"><ele>0.0</ele><time>2026-04-29T12:43:23.08Z</time></trkpt><trkpt lat="37.1687114" lon="-0.9762286"><ele>0.0</ele><time>2026-04-29T12:43:24.08Z</time></trkpt><trkpt lat="37.1687675" lon="-0.9761404"><ele>0.0</ele><time>2026-04-29T12:43:25.08Z</time></trkpt><trkpt lat="37.1688243" lon="-0.9760466"><ele>0.0</ele><time>2026-04-29T12:43:26.079Z</time></trkpt><trkpt lat="37.1689269" lon="-0.9758626"><ele>0.0</ele><time>2026-04-29T12:43:28.08Z</time></trkpt><trkpt lat="37.168975" lon="-0.975769"><ele>0.0</ele><time>2026-04-29T12:43:29.08Z</time></trkpt><trkpt lat="37.1690208" lon="-0.9756846"><ele>0.0</ele><time>2026-04-29T12:43:30.079Z</time></trkpt><trkpt lat="37.1690641" lon="-0.9755995"><ele>0.0</ele><time>2026-04-29T12:43:31.079Z</time></trkpt><trkpt lat="37.1691119" lon="-0.9755103"><ele>0.0</ele><time>2026-04-29T12:43:32.08Z</time></trkpt><trkpt lat="37.1691589" lon="-0.9754158"><ele>0.0</ele><time>2026-04-29T12:43:33.079Z</time></trkpt><trkpt lat="37.1692072" lon="-0.9753212"><ele>0.0</ele><time>2026-04-29T12:43:34.079Z</time></trkpt><trkpt lat="37.1692524" lon="-0.9752291"><ele>0.0</ele><time>2026-04-29T12:43:35.079Z</time></trkpt><trkpt lat="37.169296" lon="-0.9751402"><ele>0.0</ele><time>2026-04-29T12:43:36.079Z</time></trkpt><trkpt lat="37.1693378" lon="-0.9750502"><ele>0.0</ele><time>2026-04-29T12:43:37.079Z</time></trkpt><trkpt lat="37.1693879" lon="-0.9749601"><ele>0.0</ele><time>2026-04-29T12:43:38.079Z</time></trkpt><trkpt lat="37.1694436" lon="-0.9748702"><ele>0.0</ele><time>2026-04-29T12:43:39.079Z</time></trkpt><trkpt lat="37.1694933" lon="-0.9747843"><ele>0.0</ele><time>2026-04-29T12:43:40.08Z</time></trkpt><trkpt lat="37.1695449" lon="-0.9746994"><ele>0.0</ele><time>2026-04-29T12:43:41.08Z</time></trkpt><trkpt lat="37.1695962" lon="-0.9746174"><ele>0.0</ele><time>2026-04-29T12:43:42.08Z</time></trkpt><trkpt lat="37.1696555" lon="-0.9745369"><ele>0.0</ele><time>2026-04-29T12:43:43.079Z</time></trkpt><trkpt lat="37.1697152" lon="-0.9744516"><ele>0.0</ele><time>2026-04-29T12:43:44.079Z</time></trkpt><trkpt lat="37.1697736" lon="-0.9743704"><ele>0.0</ele><time>2026-04-29T12:43:45.079Z</time></trkpt><trkpt lat="37.1698306" lon="-0.9742874"><ele>0.0</ele><time>2026-04-29T12:43:46.079Z</time></trkpt><trkpt lat="37.169876" lon="-0.9741989"><ele>0.0</ele><time>2026-04-29T12:43:47.079Z</time></trkpt><trkpt lat="37.1699736" lon="-0.9740184"><ele>0.0</ele><time>2026-04-29T12:43:49.079Z</time></trkpt><trkpt lat="37.1700206" lon="-0.9739331"><ele>0.0</ele><time>2026-04-29T12:43:50.079Z</time></trkpt><trkpt lat="37.1700658" lon="-0.9738477"><ele>0.0</ele><time>2026-04-29T12:43:51.079Z</time></trkpt><trkpt lat="37.1701152" lon="-0.9737615"><ele>0.0</ele><time>2026-04-29T12:43:52.08Z</time></trkpt><trkpt lat="37.1701636" lon="-0.9736745"><ele>0.0</ele><time>2026-04-29T12:43:53.079Z</time></trkpt><trkpt lat="37.1702166" lon="-0.9735952"><ele>0.0</ele><time>2026-04-29T12:43:54.08Z</time></trkpt><trkpt lat="37.1702783" lon="-0.9735073"><ele>0.0</ele><time>2026-04-29T12:43:55.079Z</time></trkpt><trkpt lat="37.1703316" lon="-0.9734232"><ele>0.0</ele><time>2026-04-29T12:43:56.079Z</time></trkpt><trkpt lat="37.1703861" lon="-0.9733279"><ele>0.0</ele><time>2026-04-29T12:43:57.08Z</time></trkpt><trkpt lat="37.170437" lon="-0.9732428"><ele>0.0</ele><time>2026-04-29T12:43:58.08Z</time></trkpt><trkpt lat="37.1704841" lon="-0.9731595"><ele>0.0</ele><time>2026-04-29T12:43:59.08Z</time></trkpt><trkpt lat="37.1705321" lon="-0.9730732"><ele>0.0</ele><time>2026-04-29T12:44:00.079Z</time></trkpt><trkpt lat="37.170575" lon="-0.972981"><ele>0.0</ele><time>2026-04-29T12:44:01.08Z</time></trkpt><trkpt lat="37.1706223" lon="-0.9728949"><ele>0.0</ele><time>2026-04-29T12:44:02.079Z</time></trkpt><trkpt lat="37.1706677" lon="-0.9728053"><ele>0.0</ele><time>2026-04-29T12:44:03.079Z</time></trkpt><trkpt lat="37.170717" lon="-0.9727181"><ele>0.0</ele><time>2026-04-29T12:44:04.079Z</time></trkpt><trkpt lat="37.1707666" lon="-0.9726273"><ele>0.0</ele><time>2026-04-29T12:44:05.079Z</time></trkpt><trkpt lat="37.1708152" lon="-0.9725387"><ele>0.0</ele><time>2026-04-29T12:44:06.08Z</time></trkpt><trkpt lat="37.1708634" lon="-0.9724502"><ele>0.0</ele><time>2026-04-29T12:44:07.08Z</time></trkpt><trkpt lat="37.1709121" lon="-0.9723618"><ele>0.0</ele><time>2026-04-29T12:44:08.079Z</time></trkpt><trkpt lat="37.1710147" lon="-0.9721776"><ele>0.0</ele><time>2026-04-29T12:44:10.079Z</time></trkpt><trkpt lat="37.1710596" lon="-0.9720901"><ele>0.0</ele><time>2026-04-29T12:44:11.079Z</time></trkpt><trkpt lat="37.1711074" lon="-0.9719988"><ele>0.0</ele><time>2026-04-29T12:44:12.08Z</time></trkpt><trkpt lat="37.1711584" lon="-0.9719047"><ele>0.0</ele><time>2026-04-29T12:44:13.079Z</time></trkpt><trkpt lat="37.1712059" lon="-0.9718126"><ele>0.0</ele><time>2026-04-29T12:44:14.08Z</time></trkpt><trkpt lat="37.1712511" lon="-0.9717318"><ele>0.0</ele><time>2026-04-29T12:44:15.079Z</time></trkpt><trkpt lat="37.1713018" lon="-0.9716391"><ele>0.0</ele><time>2026-04-29T12:44:16.08Z</time></trkpt><trkpt lat="37.1713506" lon="-0.9715546"><ele>0.0</ele><time>2026-04-29T12:44:17.079Z</time></trkpt><trkpt lat="37.1714001" lon="-0.9714655"><ele>0.0</ele><time>2026-04-29T12:44:18.079Z</time></trkpt><trkpt lat="37.1714512" lon="-0.9713714"><ele>0.0</ele><time>2026-04-29T12:44:19.079Z</time></trkpt><trkpt lat="37.1715018" lon="-0.9712805"><ele>0.0</ele><time>2026-04-29T12:44:20.08Z</time></trkpt><trkpt lat="37.1715493" lon="-0.9711974"><ele>0.0</ele><time>2026-04-29T12:44:21.08Z</time></trkpt><trkpt lat="37.1715987" lon="-0.9711117"><ele>0.0</ele><time>2026-04-29T12:44:22.079Z</time></trkpt><trkpt lat="37.1716457" lon="-0.9710248"><ele>0.0</ele><time>2026-04-29T12:44:23.08Z</time></trkpt><trkpt lat="37.1716939" lon="-0.9709409"><ele>0.0</ele><time>2026-04-29T12:44:24.08Z</time></trkpt><trkpt lat="37.1717505" lon="-0.9708577"><ele>0.0</ele><time>2026-04-29T12:44:25.08Z</time></trkpt><trkpt lat="37.1718058" lon="-0.9707674"><ele>0.0</ele><time>2026-04-29T12:44:26.079Z</time></trkpt><trkpt lat="37.1718641" lon="-0.9706812"><ele>0.0</ele><time>2026-04-29T12:44:27.079Z</time></trkpt><trkpt lat="37.1719196" lon="-0.970589"><ele>0.0</ele><time>2026-04-29T12:44:28.08Z</time></trkpt><trkpt lat="37.1719703" lon="-0.9704946"><ele>0.0</ele><time>2026-04-29T12:44:29.079Z</time></trkpt><trkpt lat="37.1720678" lon="-0.970326"><ele>0.0</ele><time>2026-04-29T12:44:31.078Z</time></trkpt><trkpt lat="37.1721153" lon="-0.9702369"><ele>0.0</ele><time>2026-04-29T12:44:32.078Z</time></trkpt><trkpt lat="37.1721723" lon="-0.9701488"><ele>0.0</ele><time>2026-04-29T12:44:33.078Z</time></trkpt><trkpt lat="37.1722282" lon="-0.9700618"><ele>0.0</ele><time>2026-04-29T12:44:34.078Z</time></trkpt><trkpt lat="37.1722815" lon="-0.9699806"><ele>0.0</ele><time>2026-04-29T12:44:35.078Z</time></trkpt><trkpt lat="37.1723375" lon="-0.9698949"><ele>0.0</ele><time>2026-04-29T12:44:36.079Z</time></trkpt><trkpt lat="37.172393" lon="-0.9698098"><ele>0.0</ele><time>2026-04-29T12:44:37.079Z</time></trkpt><trkpt lat="37.1724434" lon="-0.9697235"><ele>0.0</ele><time>2026-04-29T12:44:38.079Z</time></trkpt><trkpt lat="37.1724905" lon="-0.969634"><ele>0.0</ele><time>2026-04-29T12:44:39.079Z</time></trkpt><trkpt lat="37.1725403" lon="-0.9695423"><ele>0.0</ele><time>2026-04-29T12:44:40.079Z</time></trkpt><trkpt lat="37.1725901" lon="-0.9694537"><ele>0.0</ele><time>2026-04-29T12:44:41.079Z</time></trkpt><trkpt lat="37.172643" lon="-0.9693626"><ele>0.0</ele><time>2026-04-29T12:44:42.079Z</time></trkpt><trkpt lat="37.1727028" lon="-0.9692733"><ele>0.0</ele><time>2026-04-29T12:44:43.079Z</time></trkpt><trkpt lat="37.1727646" lon="-0.9691879"><ele>0.0</ele><time>2026-04-29T12:44:44.079Z</time></trkpt><trkpt lat="37.1728255" lon="-0.9691028"><ele>0.0</ele><time>2026-04-29T12:44:45.079Z</time></trkpt><trkpt lat="37.1728811" lon="-0.9690208"><ele>0.0</ele><time>2026-04-29T12:44:46.079Z</time></trkpt><trkpt lat="37.1729321" lon="-0.9689365"><ele>0.0</ele><time>2026-04-29T12:44:47.079Z</time></trkpt><trkpt lat="37.1729783" lon="-0.9688455"><ele>0.0</ele><time>2026-04-29T12:44:48.078Z</time></trkpt><trkpt lat="37.1730271" lon="-0.9687539"><ele>0.0</ele><time>2026-04-29T12:44:49.079Z</time></trkpt><trkpt lat="37.1730781" lon="-0.9686725"><ele>0.0</ele><time>2026-04-29T12:44:50.079Z</time></trkpt><trkpt lat="37.1731745" lon="-0.9685004"><ele>0.0</ele><time>2026-04-29T12:44:52.079Z</time></trkpt><trkpt lat="37.1732279" lon="-0.9684093"><ele>0.0</ele><time>2026-04-29T12:44:53.079Z</time></trkpt><trkpt lat="37.1732741" lon="-0.9683273"><ele>0.0</ele><time>2026-04-29T12:44:54.079Z</time></trkpt><trkpt lat="37.1733238" lon="-0.9682443"><ele>0.0</ele><time>2026-04-29T12:44:55.079Z</time></trkpt><trkpt lat="37.1733738" lon="-0.9681585"><ele>0.0</ele><time>2026-04-29T12:44:56.079Z</time></trkpt><trkpt lat="37.1734253" lon="-0.9680704"><ele>0.0</ele><time>2026-04-29T12:44:57.079Z</time></trkpt><trkpt lat="37.1734782" lon="-0.9679781"><ele>0.0</ele><time>2026-04-29T12:44:58.078Z</time></trkpt><trkpt lat="37.1735342" lon="-0.9678961"><ele>0.0</ele><time>2026-04-29T12:44:59.078Z</time></trkpt><trkpt lat="37.1735934" lon="-0.9678159"><ele>0.0</ele><time>2026-04-29T12:45:00.079Z</time></trkpt><trkpt lat="37.173649" lon="-0.9677327"><ele>0.0</ele><time>2026-04-29T12:45:01.079Z</time></trkpt><trkpt lat="37.1737016" lon="-0.9676451"><ele>0.0</ele><time>2026-04-29T12:45:02.078Z</time></trkpt><trkpt lat="37.1737574" lon="-0.9675572"><ele>0.0</ele><time>2026-04-29T12:45:03.079Z</time></trkpt><trkpt lat="37.1738045" lon="-0.9674687"><ele>0.0</ele><time>2026-04-29T12:45:04.078Z</time></trkpt><trkpt lat="37.1738566" lon="-0.9673785"><ele>0.0</ele><time>2026-04-29T12:45:05.078Z</time></trkpt><trkpt lat="37.1739057" lon="-0.9672914"><ele>0.0</ele><time>2026-04-29T12:45:06.078Z</time></trkpt><trkpt lat="37.173954" lon="-0.9672077"><ele>0.0</ele><time>2026-04-29T12:45:07.078Z</time></trkpt><trkpt lat="37.174001" lon="-0.9671229"><ele>0.0</ele><time>2026-04-29T12:45:08.079Z</time></trkpt><trkpt lat="37.1740489" lon="-0.9670381"><ele>0.0</ele><time>2026-04-29T12:45:09.078Z</time></trkpt><trkpt lat="37.1740985" lon="-0.9669502"><ele>0.0</ele><time>2026-04-29T12:45:10.078Z</time></trkpt><trkpt lat="37.1741498" lon="-0.9668563"><ele>0.0</ele><time>2026-04-29T12:45:11.078Z</time></trkpt><trkpt lat="37.1742563" lon="-0.9666778"><ele>0.0</ele><time>2026-04-29T12:45:13.079Z</time></trkpt><trkpt lat="37.1743094" lon="-0.9665841"><ele>0.0</ele><time>2026-04-29T12:45:14.078Z</time></trkpt><trkpt lat="37.1743615" lon="-0.9664966"><ele>0.0</ele><time>2026-04-29T12:45:15.079Z</time></trkpt><trkpt lat="37.1744103" lon="-0.9664142"><ele>0.0</ele><time>2026-04-29T12:45:16.078Z</time></trkpt><trkpt lat="37.174463" lon="-0.966335"><ele>0.0</ele><time>2026-04-29T12:45:17.079Z</time></trkpt><trkpt lat="37.1745121" lon="-0.9662509"><ele>0.0</ele><time>2026-04-29T12:45:18.078Z</time></trkpt><trkpt lat="37.174559" lon="-0.966169"><ele>0.0</ele><time>2026-04-29T12:45:19.078Z</time></trkpt><trkpt lat="37.174616" lon="-0.966082"><ele>0.0</ele><time>2026-04-29T12:45:20.078Z</time></trkpt><trkpt lat="37.1746741" lon="-0.9659938"><ele>0.0</ele><time>2026-04-29T12:45:21.079Z</time></trkpt><trkpt lat="37.174732" lon="-0.9659024"><ele>0.0</ele><time>2026-04-29T12:45:22.078Z</time></trkpt><trkpt lat="37.1747862" lon="-0.9658133"><ele>0.0</ele><time>2026-04-29T12:45:23.078Z</time></trkpt><trkpt lat="37.1748378" lon="-0.9657223"><ele>0.0</ele><time>2026-04-29T12:45:24.079Z</time></trkpt><trkpt lat="37.1748912" lon="-0.9656336"><ele>0.0</ele><time>2026-04-29T12:45:25.079Z</time></trkpt><trkpt lat="37.1749418" lon="-0.9655451"><ele>0.0</ele><time>2026-04-29T12:45:26.079Z</time></trkpt><trkpt lat="37.1749904" lon="-0.9654596"><ele>0.0</ele><time>2026-04-29T12:45:27.078Z</time></trkpt><trkpt lat="37.1750402" lon="-0.9653731"><ele>0.0</ele><time>2026-04-29T12:45:28.079Z</time></trkpt><trkpt lat="37.1750873" lon="-0.9652865"><ele>0.0</ele><time>2026-04-29T12:45:29.078Z</time></trkpt><trkpt lat="37.1751311" lon="-0.965201"><ele>0.0</ele><time>2026-04-29T12:45:30.078Z</time></trkpt><trkpt lat="37.1751755" lon="-0.9651132"><ele>0.0</ele><time>2026-04-29T12:45:31.078Z</time></trkpt><trkpt lat="37.1752233" lon="-0.9650236"><ele>0.0</ele><time>2026-04-29T12:45:32.079Z</time></trkpt><trkpt lat="37.1753203" lon="-0.9648405"><ele>0.0</ele><time>2026-04-29T12:45:34.078Z</time></trkpt><trkpt lat="37.1753697" lon="-0.9647447"><ele>0.0</ele><time>2026-04-29T12:45:35.078Z</time></trkpt><trkpt lat="37.1754245" lon="-0.9646483"><ele>0.0</ele><time>2026-04-29T12:45:36.079Z</time></trkpt><trkpt lat="37.1754731" lon="-0.9645516"><ele>0.0</ele><time>2026-04-29T12:45:37.078Z</time></trkpt><trkpt lat="37.1755232" lon="-0.9644575"><ele>0.0</ele><time>2026-04-29T12:45:38.078Z</time></trkpt><trkpt lat="37.1755747" lon="-0.964364"><ele>0.0</ele><time>2026-04-29T12:45:39.078Z</time></trkpt><trkpt lat="37.1756266" lon="-0.9642751"><ele>0.0</ele><time>2026-04-29T12:45:40.079Z</time></trkpt><trkpt lat="37.1756771" lon="-0.9641877"><ele>0.0</ele><time>2026-04-29T12:45:41.078Z</time></trkpt><trkpt lat="37.175724" lon="-0.9641042"><ele>0.0</ele><time>2026-04-29T12:45:42.079Z</time></trkpt><trkpt lat="37.1757751" lon="-0.9640169"><ele>0.0</ele><time>2026-04-29T12:45:43.079Z</time></trkpt><trkpt lat="37.1758182" lon="-0.9639397"><ele>0.0</ele><time>2026-04-29T12:45:44.078Z</time></trkpt><trkpt lat="37.1758643" lon="-0.9638571"><ele>0.0</ele><time>2026-04-29T12:45:45.078Z</time></trkpt><trkpt lat="37.1759132" lon="-0.9637701"><ele>0.0</ele><time>2026-04-29T12:45:46.079Z</time></trkpt><trkpt lat="37.1759634" lon="-0.9636831"><ele>0.0</ele><time>2026-04-29T12:45:47.078Z</time></trkpt><trkpt lat="37.1760122" lon="-0.9635995"><ele>0.0</ele><time>2026-04-29T12:45:48.078Z</time></trkpt><trkpt lat="37.1760577" lon="-0.9635192"><ele>0.0</ele><time>2026-04-29T12:45:49.079Z</time></trkpt><trkpt lat="37.1760915" lon="-0.9634277"><ele>0.0</ele><time>2026-04-29T12:45:50.078Z</time></trkpt><trkpt lat="37.1761331" lon="-0.9633372"><ele>0.0</ele><time>2026-04-29T12:45:51.078Z</time></trkpt><trkpt lat="37.1761777" lon="-0.9632473"><ele>0.0</ele><time>2026-04-29T12:45:52.079Z</time></trkpt><trkpt lat="37.1762252" lon="-0.9631543"><ele>0.0</ele><time>2026-04-29T12:45:53.078Z</time></trkpt><trkpt lat="37.1763311" lon="-0.9629748"><ele>0.0</ele><time>2026-04-29T12:45:55.079Z</time></trkpt><trkpt lat="37.1763858" lon="-0.962887"><ele>0.0</ele><time>2026-04-29T12:45:56.078Z</time></trkpt><trkpt lat="37.1764383" lon="-0.9627999"><ele>0.0</ele><time>2026-04-29T12:45:57.078Z</time></trkpt><trkpt lat="37.1765041" lon="-0.9627176"><ele>0.0</ele><time>2026-04-29T12:45:58.078Z</time></trkpt><trkpt lat="37.1765625" lon="-0.9626358"><ele>0.0</ele><time>2026-04-29T12:45:59.079Z</time></trkpt><trkpt lat="37.1766177" lon="-0.9625457"><ele>0.0</ele><time>2026-04-29T12:46:00.079Z</time></trkpt><trkpt lat="37.1766707" lon="-0.9624595"><ele>0.0</ele><time>2026-04-29T12:46:01.078Z</time></trkpt><trkpt lat="37.1767177" lon="-0.9623774"><ele>0.0</ele><time>2026-04-29T12:46:02.078Z</time></trkpt><trkpt lat="37.1767685" lon="-0.9622915"><ele>0.0</ele><time>2026-04-29T12:46:03.078Z</time></trkpt><trkpt lat="37.1768289" lon="-0.962195"><ele>0.0</ele><time>2026-04-29T12:46:04.079Z</time></trkpt><trkpt lat="37.1768844" lon="-0.9621027"><ele>0.0</ele><time>2026-04-29T12:46:05.079Z</time></trkpt><trkpt lat="37.176938" lon="-0.9620137"><ele>0.0</ele><time>2026-04-29T12:46:06.078Z</time></trkpt><trkpt lat="37.1769912" lon="-0.9619224"><ele>0.0</ele><time>2026-04-29T12:46:07.079Z</time></trkpt><trkpt lat="37.177059" lon="-0.9618249"><ele>0.0</ele><time>2026-04-29T12:46:08.078Z</time></trkpt><trkpt lat="37.1771149" lon="-0.9617454"><ele>0.0</ele><time>2026-04-29T12:46:09.079Z</time></trkpt><trkpt lat="37.1771709" lon="-0.9616599"><ele>0.0</ele><time>2026-04-29T12:46:10.078Z</time></trkpt><trkpt lat="37.1772317" lon="-0.9615734"><ele>0.0</ele><time>2026-04-29T12:46:11.078Z</time></trkpt><trkpt lat="37.1772836" lon="-0.9614881"><ele>0.0</ele><time>2026-04-29T12:46:12.079Z</time></trkpt><trkpt lat="37.1773353" lon="-0.9614073"><ele>0.0</ele><time>2026-04-29T12:46:13.079Z</time></trkpt><trkpt lat="37.1773824" lon="-0.9613274"><ele>0.0</ele><time>2026-04-29T12:46:14.079Z</time></trkpt><trkpt lat="37.1774834" lon="-0.9611516"><ele>0.0</ele><time>2026-04-29T12:46:16.078Z</time></trkpt><trkpt lat="37.1775337" lon="-0.961068"><ele>0.0</ele><time>2026-04-29T12:46:17.079Z</time></trkpt><trkpt lat="37.1775805" lon="-0.96098"><ele>0.0</ele><time>2026-04-29T12:46:18.079Z</time></trkpt><trkpt lat="37.1776274" lon="-0.9608946"><ele>0.0</ele><time>2026-04-29T12:46:19.078Z</time></trkpt><trkpt lat="37.177678" lon="-0.960801"><ele>0.0</ele><time>2026-04-29T12:46:20.078Z</time></trkpt><trkpt lat="37.177734" lon="-0.9607147"><ele>0.0</ele><time>2026-04-29T12:46:21.079Z</time></trkpt><trkpt lat="37.1777931" lon="-0.9606324"><ele>0.0</ele><time>2026-04-29T12:46:22.079Z</time></trkpt><trkpt lat="37.1778531" lon="-0.9605406"><ele>0.0</ele><time>2026-04-29T12:46:23.079Z</time></trkpt><trkpt lat="37.177908" lon="-0.9604507"><ele>0.0</ele><time>2026-04-29T12:46:24.078Z</time></trkpt><trkpt lat="37.1779618" lon="-0.9603633"><ele>0.0</ele><time>2026-04-29T12:46:25.078Z</time></trkpt><trkpt lat="37.178015" lon="-0.960275"><ele>0.0</ele><time>2026-04-29T12:46:26.079Z</time></trkpt><trkpt lat="37.1780699" lon="-0.96019"><ele>0.0</ele><time>2026-04-29T12:46:27.078Z</time></trkpt><trkpt lat="37.1781232" lon="-0.9601061"><ele>0.0</ele><time>2026-04-29T12:46:28.079Z</time></trkpt><trkpt lat="37.1781777" lon="-0.9600158"><ele>0.0</ele><time>2026-04-29T12:46:29.079Z</time></trkpt><trkpt lat="37.1782272" lon="-0.9599284"><ele>0.0</ele><time>2026-04-29T12:46:30.078Z</time></trkpt><trkpt lat="37.1782754" lon="-0.959843"><ele>0.0</ele><time>2026-04-29T12:46:31.078Z</time></trkpt><trkpt lat="37.1783255" lon="-0.9597569"><ele>0.0</ele><time>2026-04-29T12:46:32.078Z</time></trkpt><trkpt lat="37.1783755" lon="-0.9596699"><ele>0.0</ele><time>2026-04-29T12:46:33.078Z</time></trkpt><trkpt lat="37.1784254" lon="-0.9595814"><ele>0.0</ele><time>2026-04-29T12:46:34.078Z</time></trkpt><trkpt lat="37.1784766" lon="-0.9594921"><ele>0.0</ele><time>2026-04-29T12:46:35.079Z</time></trkpt><trkpt lat="37.1785772" lon="-0.9593082"><ele>0.0</ele><time>2026-04-29T12:46:37.078Z</time></trkpt><trkpt lat="37.17862" lon="-0.9592145"><ele>0.0</ele><time>2026-04-29T12:46:38.079Z</time></trkpt><trkpt lat="37.1786741" lon="-0.9591197"><ele>0.0</ele><time>2026-04-29T12:46:39.078Z</time></trkpt><trkpt lat="37.1787298" lon="-0.959035"><ele>0.0</ele><time>2026-04-29T12:46:40.079Z</time></trkpt><trkpt lat="37.178779" lon="-0.9589486"><ele>0.0</ele><time>2026-04-29T12:46:41.078Z</time></trkpt><trkpt lat="37.1788228" lon="-0.9588689"><ele>0.0</ele><time>2026-04-29T12:46:42.079Z</time></trkpt><trkpt lat="37.1788663" lon="-0.9587877"><ele>0.0</ele><time>2026-04-29T12:46:43.078Z</time></trkpt><trkpt lat="37.1789166" lon="-0.9586989"><ele>0.0</ele><time>2026-04-29T12:46:44.078Z</time></trkpt><trkpt lat="37.1789671" lon="-0.9586116"><ele>0.0</ele><time>2026-04-29T12:46:45.078Z</time></trkpt><trkpt lat="37.1790222" lon="-0.9585276"><ele>0.0</ele><time>2026-04-29T12:46:46.079Z</time></trkpt><trkpt lat="37.1790762" lon="-0.9584403"><ele>0.0</ele><time>2026-04-29T12:46:47.079Z</time></trkpt><trkpt lat="37.1791227" lon="-0.9583577"><ele>0.0</ele><time>2026-04-29T12:46:48.078Z</time></trkpt><trkpt lat="37.1791706" lon="-0.9582693"><ele>0.0</ele><time>2026-04-29T12:46:49.078Z</time></trkpt><trkpt lat="37.1792301" lon="-0.9581803"><ele>0.0</ele><time>2026-04-29T12:46:50.079Z</time></trkpt><trkpt lat="37.179278" lon="-0.958086"><ele>0.0</ele><time>2026-04-29T12:46:51.079Z</time></trkpt><trkpt lat="37.1793269" lon="-0.9579985"><ele>0.0</ele><time>2026-04-29T12:46:52.078Z</time></trkpt><trkpt lat="37.1793782" lon="-0.9579087"><ele>0.0</ele><time>2026-04-29T12:46:53.078Z</time></trkpt><trkpt lat="37.1794297" lon="-0.9578161"><ele>0.0</ele><time>2026-04-29T12:46:54.078Z</time></trkpt><trkpt lat="37.1794785" lon="-0.9577314"><ele>0.0</ele><time>2026-04-29T12:46:55.079Z</time></trkpt><trkpt lat="37.1795287" lon="-0.9576434"><ele>0.0</ele><time>2026-04-29T12:46:56.078Z</time></trkpt><trkpt lat="37.1796264" lon="-0.9574702"><ele>0.0</ele><time>2026-04-29T12:46:58.078Z</time></trkpt><trkpt lat="37.1796812" lon="-0.957389"><ele>0.0</ele><time>2026-04-29T12:46:59.078Z</time></trkpt><trkpt lat="37.179732" lon="-0.9573045"><ele>0.0</ele><time>2026-04-29T12:47:00.078Z</time></trkpt><trkpt lat="37.179785" lon="-0.9572213"><ele>0.0</ele><time>2026-04-29T12:47:01.078Z</time></trkpt><trkpt lat="37.179837" lon="-0.957135"><ele>0.0</ele><time>2026-04-29T12:47:02.078Z</time></trkpt><trkpt lat="37.1798854" lon="-0.9570426"><ele>0.0</ele><time>2026-04-29T12:47:03.078Z</time></trkpt><trkpt lat="37.1799381" lon="-0.956958"><ele>0.0</ele><time>2026-04-29T12:47:04.079Z</time></trkpt><trkpt lat="37.1799886" lon="-0.9568717"><ele>0.0</ele><time>2026-04-29T12:47:05.078Z</time></trkpt><trkpt lat="37.1800427" lon="-0.9567867"><ele>0.0</ele><time>2026-04-29T12:47:06.078Z</time></trkpt><trkpt lat="37.1800978" lon="-0.9567041"><ele>0.0</ele><time>2026-04-29T12:47:07.078Z</time></trkpt><trkpt lat="37.1801484" lon="-0.9566213"><ele>0.0</ele><time>2026-04-29T12:47:08.078Z</time></trkpt><trkpt lat="37.1802046" lon="-0.9565391"><ele>0.0</ele><time>2026-04-29T12:47:09.078Z</time></trkpt><trkpt lat="37.1802594" lon="-0.9564562"><ele>0.0</ele><time>2026-04-29T12:47:10.079Z</time></trkpt><trkpt lat="37.1803089" lon="-0.9563702"><ele>0.0</ele><time>2026-04-29T12:47:11.079Z</time></trkpt><trkpt lat="37.1803658" lon="-0.9562834"><ele>0.0</ele><time>2026-04-29T12:47:12.079Z</time></trkpt><trkpt lat="37.1804185" lon="-0.9561953"><ele>0.0</ele><time>2026-04-29T12:47:13.078Z</time></trkpt><trkpt lat="37.1804673" lon="-0.956107"><ele>0.0</ele><time>2026-04-29T12:47:14.079Z</time></trkpt><trkpt lat="37.1805182" lon="-0.9560186"><ele>0.0</ele><time>2026-04-29T12:47:15.079Z</time></trkpt><trkpt lat="37.1805657" lon="-0.9559248"><ele>0.0</ele><time>2026-04-29T12:47:16.079Z</time></trkpt><trkpt lat="37.1806154" lon="-0.9558356"><ele>0.0</ele><time>2026-04-29T12:47:17.079Z</time></trkpt><trkpt lat="37.1807089" lon="-0.9556511"><ele>0.0</ele><time>2026-04-29T12:47:19.079Z</time></trkpt><trkpt lat="37.1807585" lon="-0.955562"><ele>0.0</ele><time>2026-04-29T12:47:20.078Z</time></trkpt><trkpt lat="37.1808137" lon="-0.9554695"><ele>0.0</ele><time>2026-04-29T12:47:21.078Z</time></trkpt><trkpt lat="37.1808636" lon="-0.9553848"><ele>0.0</ele><time>2026-04-29T12:47:22.078Z</time></trkpt><trkpt lat="37.1809137" lon="-0.9552969"><ele>0.0</ele><time>2026-04-29T12:47:23.079Z</time></trkpt><trkpt lat="37.1809578" lon="-0.955203"><ele>0.0</ele><time>2026-04-29T12:47:24.079Z</time></trkpt><trkpt lat="37.181004" lon="-0.9551138"><ele>0.0</ele><time>2026-04-29T12:47:25.079Z</time></trkpt><trkpt lat="37.181055" lon="-0.9550237"><ele>0.0</ele><time>2026-04-29T12:47:26.079Z</time></trkpt><trkpt lat="37.1811051" lon="-0.9549337"><ele>0.0</ele><time>2026-04-29T12:47:27.078Z</time></trkpt><trkpt lat="37.1811554" lon="-0.9548508"><ele>0.0</ele><time>2026-04-29T12:47:28.078Z</time></trkpt><trkpt lat="37.1812055" lon="-0.9547661"><ele>0.0</ele><time>2026-04-29T12:47:29.078Z</time></trkpt><trkpt lat="37.1812555" lon="-0.9546872"><ele>0.0</ele><time>2026-04-29T12:47:30.078Z</time></trkpt><trkpt lat="37.1813054" lon="-0.9546015"><ele>0.0</ele><time>2026-04-29T12:47:31.078Z</time></trkpt><trkpt lat="37.1813569" lon="-0.9545154"><ele>0.0</ele><time>2026-04-29T12:47:32.079Z</time></trkpt><trkpt lat="37.1814054" lon="-0.9544217"><ele>0.0</ele><time>2026-04-29T12:47:33.078Z</time></trkpt><trkpt lat="37.1814535" lon="-0.9543291"><ele>0.0</ele><time>2026-04-29T12:47:34.079Z</time></trkpt><trkpt lat="37.181506" lon="-0.9542418"><ele>0.0</ele><time>2026-04-29T12:47:35.078Z</time></trkpt><trkpt lat="37.1815641" lon="-0.9541537"><ele>0.0</ele><time>2026-04-29T12:47:36.079Z</time></trkpt><trkpt lat="37.1816209" lon="-0.9540625"><ele>0.0</ele><time>2026-04-29T12:47:37.079Z</time></trkpt><trkpt lat="37.181672" lon="-0.9539739"><ele>0.0</ele><time>2026-04-29T12:47:38.079Z</time></trkpt><trkpt lat="37.1817693" lon="-0.9538024"><ele>0.0</ele><time>2026-04-29T12:47:40.079Z</time></trkpt><trkpt lat="37.1818157" lon="-0.9537208"><ele>0.0</ele><time>2026-04-29T12:47:41.079Z</time></trkpt><trkpt lat="37.1818695" lon="-0.9536351"><ele>0.0</ele><time>2026-04-29T12:47:42.078Z</time></trkpt><trkpt lat="37.1819174" lon="-0.9535471"><ele>0.0</ele><time>2026-04-29T12:47:43.078Z</time></trkpt><trkpt lat="37.1819683" lon="-0.9534542"><ele>0.0</ele><time>2026-04-29T12:47:44.079Z</time></trkpt><trkpt lat="37.1820201" lon="-0.9533682"><ele>0.0</ele><time>2026-04-29T12:47:45.079Z</time></trkpt><trkpt lat="37.1820704" lon="-0.953283"><ele>0.0</ele><time>2026-04-29T12:47:46.078Z</time></trkpt><trkpt lat="37.1821249" lon="-0.9531952"><ele>0.0</ele><time>2026-04-29T12:47:47.079Z</time></trkpt><trkpt lat="37.1821778" lon="-0.9531064"><ele>0.0</ele><time>2026-04-29T12:47:48.078Z</time></trkpt><trkpt lat="37.1822285" lon="-0.9530243"><ele>0.0</ele><time>2026-04-29T12:47:49.078Z</time></trkpt><trkpt lat="37.1822802" lon="-0.9529399"><ele>0.0</ele><time>2026-04-29T12:47:50.078Z</time></trkpt><trkpt lat="37.182326" lon="-0.9528564"><ele>0.0</ele><time>2026-04-29T12:47:51.078Z</time></trkpt><trkpt lat="37.1823782" lon="-0.9527645"><ele>0.0</ele><time>2026-04-29T12:47:52.078Z</time></trkpt><trkpt lat="37.1824272" lon="-0.952674"><ele>0.0</ele><time>2026-04-29T12:47:53.079Z</time></trkpt><trkpt lat="37.1824776" lon="-0.9525869"><ele>0.0</ele><time>2026-04-29T12:47:54.078Z</time></trkpt><trkpt lat="37.1825273" lon="-0.9524932"><ele>0.0</ele><time>2026-04-29T12:47:55.079Z</time></trkpt><trkpt lat="37.1825854" lon="-0.9524079"><ele>0.0</ele><time>2026-04-29T12:47:56.079Z</time></trkpt><trkpt lat="37.1826358" lon="-0.9523218"><ele>0.0</ele><time>2026-04-29T12:47:57.078Z</time></trkpt><trkpt lat="37.1826854" lon="-0.9522378"><ele>0.0</ele><time>2026-04-29T12:47:58.079Z</time></trkpt><trkpt lat="37.1827285" lon="-0.9521476"><ele>0.0</ele><time>2026-04-29T12:47:59.078Z</time></trkpt><trkpt lat="37.1828264" lon="-0.9519673"><ele>0.0</ele><time>2026-04-29T12:48:01.078Z</time></trkpt><trkpt lat="37.1828813" lon="-0.9518889"><ele>0.0</ele><time>2026-04-29T12:48:02.079Z</time></trkpt><trkpt lat="37.1829329" lon="-0.9518118"><ele>0.0</ele><time>2026-04-29T12:48:03.079Z</time></trkpt><trkpt lat="37.1829887" lon="-0.9517235"><ele>0.0</ele><time>2026-04-29T12:48:04.079Z</time></trkpt><trkpt lat="37.1830473" lon="-0.9516382"><ele>0.0</ele><time>2026-04-29T12:48:05.079Z</time></trkpt><trkpt lat="37.1831084" lon="-0.9515506"><ele>0.0</ele><time>2026-04-29T12:48:06.079Z</time></trkpt><trkpt lat="37.183166" lon="-0.9514625"><ele>0.0</ele><time>2026-04-29T12:48:07.079Z</time></trkpt><trkpt lat="37.1832198" lon="-0.9513708"><ele>0.0</ele><time>2026-04-29T12:48:08.078Z</time></trkpt><trkpt lat="37.1832703" lon="-0.9512905"><ele>0.0</ele><time>2026-04-29T12:48:09.079Z</time></trkpt><trkpt lat="37.1833159" lon="-0.9512037"><ele>0.0</ele><time>2026-04-29T12:48:10.078Z</time></trkpt><trkpt lat="37.1833628" lon="-0.9511198"><ele>0.0</ele><time>2026-04-29T12:48:11.078Z</time></trkpt><trkpt lat="37.1834117" lon="-0.9510305"><ele>0.0</ele><time>2026-04-29T12:48:12.079Z</time></trkpt><trkpt lat="37.1834665" lon="-0.9509434"><ele>0.0</ele><time>2026-04-29T12:48:13.079Z</time></trkpt><trkpt lat="37.1835212" lon="-0.9508581"><ele>0.0</ele><time>2026-04-29T12:48:14.079Z</time></trkpt><trkpt lat="37.1835789" lon="-0.9507675"><ele>0.0</ele><time>2026-04-29T12:48:15.079Z</time></trkpt><trkpt lat="37.18364" lon="-0.9506858"><ele>0.0</ele><time>2026-04-29T12:48:16.078Z</time></trkpt><trkpt lat="37.1836948" lon="-0.9506013"><ele>0.0</ele><time>2026-04-29T12:48:17.079Z</time></trkpt><trkpt lat="37.1837464" lon="-0.9505104"><ele>0.0</ele><time>2026-04-29T12:48:18.078Z</time></trkpt><trkpt lat="37.183798" lon="-0.9504206"><ele>0.0</ele><time>2026-04-29T12:48:19.078Z</time></trkpt><trkpt lat="37.1838511" lon="-0.9503322"><ele>0.0</ele><time>2026-04-29T12:48:20.078Z</time></trkpt><trkpt lat="37.1839474" lon="-0.950164"><ele>0.0</ele><time>2026-04-29T12:48:22.079Z</time></trkpt><trkpt lat="37.1840012" lon="-0.9500784"><ele>0.0</ele><time>2026-04-29T12:48:23.079Z</time></trkpt><trkpt lat="37.1840522" lon="-0.9499931"><ele>0.0</ele><time>2026-04-29T12:48:24.079Z</time></trkpt><trkpt lat="37.1841035" lon="-0.9499052"><ele>0.0</ele><time>2026-04-29T12:48:25.079Z</time></trkpt><trkpt lat="37.1841494" lon="-0.9498124"><ele>0.0</ele><time>2026-04-29T12:48:26.078Z</time></trkpt><trkpt lat="37.1841934" lon="-0.9497206"><ele>0.0</ele><time>2026-04-29T12:48:27.078Z</time></trkpt><trkpt lat="37.1842423" lon="-0.9496347"><ele>0.0</ele><time>2026-04-29T12:48:28.078Z</time></trkpt><trkpt lat="37.1842893" lon="-0.9495454"><ele>0.0</ele><time>2026-04-29T12:48:29.079Z</time></trkpt><trkpt lat="37.1843362" lon="-0.9494556"><ele>0.0</ele><time>2026-04-29T12:48:30.079Z</time></trkpt><trkpt lat="37.1843796" lon="-0.9493702"><ele>0.0</ele><time>2026-04-29T12:48:31.079Z</time></trkpt><trkpt lat="37.1844244" lon="-0.9492832"><ele>0.0</ele><time>2026-04-29T12:48:32.079Z</time></trkpt><trkpt lat="37.1844721" lon="-0.9491954"><ele>0.0</ele><time>2026-04-29T12:48:33.079Z</time></trkpt><trkpt lat="37.1845291" lon="-0.9491084"><ele>0.0</ele><time>2026-04-29T12:48:34.078Z</time></trkpt><trkpt lat="37.1845805" lon="-0.9490258"><ele>0.0</ele><time>2026-04-29T12:48:35.078Z</time></trkpt><trkpt lat="37.1846304" lon="-0.9489329"><ele>0.0</ele><time>2026-04-29T12:48:36.078Z</time></trkpt><trkpt lat="37.1846802" lon="-0.9488436"><ele>0.0</ele><time>2026-04-29T12:48:37.078Z</time></trkpt><trkpt lat="37.1847306" lon="-0.9487582"><ele>0.0</ele><time>2026-04-29T12:48:38.078Z</time></trkpt><trkpt lat="37.1847748" lon="-0.9486687"><ele>0.0</ele><time>2026-04-29T12:48:39.079Z</time></trkpt><trkpt lat="37.1848206" lon="-0.9485787"><ele>0.0</ele><time>2026-04-29T12:48:40.079Z</time></trkpt><trkpt lat="37.1848797" lon="-0.9484946"><ele>0.0</ele><time>2026-04-29T12:48:41.079Z</time></trkpt><trkpt lat="37.1849818" lon="-0.9483204"><ele>0.0</ele><time>2026-04-29T12:48:43.078Z</time></trkpt><trkpt lat="37.1850316" lon="-0.9482276"><ele>0.0</ele><time>2026-04-29T12:48:44.078Z</time></trkpt><trkpt lat="37.1850932" lon="-0.9481387"><ele>0.0</ele><time>2026-04-29T12:48:45.079Z</time></trkpt><trkpt lat="37.185148" lon="-0.948049"><ele>0.0</ele><time>2026-04-29T12:48:46.078Z</time></trkpt><trkpt lat="37.1852045" lon="-0.9479604"><ele>0.0</ele><time>2026-04-29T12:48:47.079Z</time></trkpt><trkpt lat="37.1852612" lon="-0.9478791"><ele>0.0</ele><time>2026-04-29T12:48:48.078Z</time></trkpt><trkpt lat="37.1853166" lon="-0.9477949"><ele>0.0</ele><time>2026-04-29T12:48:49.079Z</time></trkpt><trkpt lat="37.185375" lon="-0.9477101"><ele>0.0</ele><time>2026-04-29T12:48:50.078Z</time></trkpt><trkpt lat="37.1854274" lon="-0.9476233"><ele>0.0</ele><time>2026-04-29T12:48:51.078Z</time></trkpt><trkpt lat="37.1854747" lon="-0.9475426"><ele>0.0</ele><time>2026-04-29T12:48:52.079Z</time></trkpt><trkpt lat="37.1855337" lon="-0.947457"><ele>0.0</ele><time>2026-04-29T12:48:53.079Z</time></trkpt><trkpt lat="37.1855896" lon="-0.947373"><ele>0.0</ele><time>2026-04-29T12:48:54.078Z</time></trkpt><trkpt lat="37.1856432" lon="-0.9472855"><ele>0.0</ele><time>2026-04-29T12:48:55.078Z</time></trkpt><trkpt lat="37.1857051" lon="-0.9472084"><ele>0.0</ele><time>2026-04-29T12:48:56.079Z</time></trkpt><trkpt lat="37.1857655" lon="-0.9471292"><ele>0.0</ele><time>2026-04-29T12:48:57.078Z</time></trkpt><trkpt lat="37.1858207" lon="-0.9470448"><ele>0.0</ele><time>2026-04-29T12:48:58.078Z</time></trkpt><trkpt lat="37.1858647" lon="-0.9469527"><ele>0.0</ele><time>2026-04-29T12:48:59.079Z</time></trkpt><trkpt lat="37.1859132" lon="-0.9468638"><ele>0.0</ele><time>2026-04-29T12:49:00.078Z</time></trkpt><trkpt lat="37.1859645" lon="-0.946778"><ele>0.0</ele><time>2026-04-29T12:49:01.079Z</time></trkpt><trkpt lat="37.1860094" lon="-0.9466859"><ele>0.0</ele><time>2026-04-29T12:49:02.079Z</time></trkpt><trkpt lat="37.186102" lon="-0.9465067"><ele>0.0</ele><time>2026-04-29T12:49:04.078Z</time></trkpt><trkpt lat="37.1861563" lon="-0.9464185"><ele>0.0</ele><time>2026-04-29T12:49:05.079Z</time></trkpt><trkpt lat="37.1862098" lon="-0.9463288"><ele>0.0</ele><time>2026-04-29T12:49:06.078Z</time></trkpt><trkpt lat="37.1862604" lon="-0.9462416"><ele>0.0</ele><time>2026-04-29T12:49:07.079Z</time></trkpt><trkpt lat="37.1863088" lon="-0.946152"><ele>0.0</ele><time>2026-04-29T12:49:08.078Z</time></trkpt><trkpt lat="37.1863597" lon="-0.9460676"><ele>0.0</ele><time>2026-04-29T12:49:09.078Z</time></trkpt><trkpt lat="37.1864157" lon="-0.94598"><ele>0.0</ele><time>2026-04-29T12:49:10.078Z</time></trkpt><trkpt lat="37.1864695" lon="-0.9458903"><ele>0.0</ele><time>2026-04-29T12:49:11.078Z</time></trkpt><trkpt lat="37.1865228" lon="-0.9458046"><ele>0.0</ele><time>2026-04-29T12:49:12.079Z</time></trkpt><trkpt lat="37.1865722" lon="-0.9457197"><ele>0.0</ele><time>2026-04-29T12:49:13.079Z</time></trkpt><trkpt lat="37.1866237" lon="-0.9456306"><ele>0.0</ele><time>2026-04-29T12:49:14.079Z</time></trkpt><trkpt lat="37.1866723" lon="-0.945543"><ele>0.0</ele><time>2026-04-29T12:49:15.078Z</time></trkpt><trkpt lat="37.1867179" lon="-0.9454552"><ele>0.0</ele><time>2026-04-29T12:49:16.079Z</time></trkpt><trkpt lat="37.1867628" lon="-0.9453643"><ele>0.0</ele><time>2026-04-29T12:49:17.079Z</time></trkpt><trkpt lat="37.1868114" lon="-0.9452738"><ele>0.0</ele><time>2026-04-29T12:49:18.078Z</time></trkpt><trkpt lat="37.1868586" lon="-0.9451795"><ele>0.0</ele><time>2026-04-29T12:49:19.078Z</time></trkpt><trkpt lat="37.1869012" lon="-0.9450986"><ele>0.0</ele><time>2026-04-29T12:49:20.078Z</time></trkpt><trkpt lat="37.1869529" lon="-0.9450086"><ele>0.0</ele><time>2026-04-29T12:49:21.079Z</time></trkpt><trkpt lat="37.1870062" lon="-0.9449202"><ele>0.0</ele><time>2026-04-29T12:49:22.079Z</time></trkpt><trkpt lat="37.1870611" lon="-0.9448349"><ele>0.0</ele><time>2026-04-29T12:49:23.078Z</time></trkpt><trkpt lat="37.1871777" lon="-0.9446626"><ele>0.0</ele><time>2026-04-29T12:49:25.078Z</time></trkpt><trkpt lat="37.1872243" lon="-0.9445723"><ele>0.0</ele><time>2026-04-29T12:49:26.078Z</time></trkpt><trkpt lat="37.1872723" lon="-0.9444783"><ele>0.0</ele><time>2026-04-29T12:49:27.078Z</time></trkpt><trkpt lat="37.1873022" lon="-0.9444016"><ele>0.0</ele><time>2026-04-29T12:49:28.078Z</time></trkpt><trkpt lat="37.187356" lon="-0.9443207"><ele>0.0</ele><time>2026-04-29T12:49:29.079Z</time></trkpt><trkpt lat="37.1874039" lon="-0.9442336"><ele>0.0</ele><time>2026-04-29T12:49:30.078Z</time></trkpt><trkpt lat="37.1874581" lon="-0.9441483"><ele>0.0</ele><time>2026-04-29T12:49:31.079Z</time></trkpt><trkpt lat="37.1874986" lon="-0.9440531"><ele>0.0</ele><time>2026-04-29T12:49:32.079Z</time></trkpt><trkpt lat="37.1875436" lon="-0.9439666"><ele>0.0</ele><time>2026-04-29T12:49:33.079Z</time></trkpt><trkpt lat="37.1875918" lon="-0.9438772"><ele>0.0</ele><time>2026-04-29T12:49:34.079Z</time></trkpt><trkpt lat="37.1876362" lon="-0.9437918"><ele>0.0</ele><time>2026-04-29T12:49:35.079Z</time></trkpt><trkpt lat="37.1876841" lon="-0.9437035"><ele>0.0</ele><time>2026-04-29T12:49:36.079Z</time></trkpt><trkpt lat="37.1877394" lon="-0.943621"><ele>0.0</ele><time>2026-04-29T12:49:37.078Z</time></trkpt><trkpt lat="37.1878042" lon="-0.9435407"><ele>0.0</ele><time>2026-04-29T12:49:38.078Z</time></trkpt><trkpt lat="37.1878649" lon="-0.9434575"><ele>0.0</ele><time>2026-04-29T12:49:39.078Z</time></trkpt><trkpt lat="37.1879267" lon="-0.9433746"><ele>0.0</ele><time>2026-04-29T12:49:40.078Z</time></trkpt><trkpt lat="37.1879871" lon="-0.9432886"><ele>0.0</ele><time>2026-04-29T12:49:41.077Z</time></trkpt><trkpt lat="37.1880385" lon="-0.9432063"><ele>0.0</ele><time>2026-04-29T12:49:42.078Z</time></trkpt><trkpt lat="37.1880949" lon="-0.9431204"><ele>0.0</ele><time>2026-04-29T12:49:43.077Z</time></trkpt><trkpt lat="37.1881483" lon="-0.9430349"><ele>0.0</ele><time>2026-04-29T12:49:44.077Z</time></trkpt><trkpt lat="37.1882572" lon="-0.9428467"><ele>0.0</ele><time>2026-04-29T12:49:46.077Z</time></trkpt><trkpt lat="37.1883115" lon="-0.942756"><ele>0.0</ele><time>2026-04-29T12:49:47.078Z</time></trkpt><trkpt lat="37.1883609" lon="-0.9426661"><ele>0.0</ele><time>2026-04-29T12:49:48.078Z</time></trkpt><trkpt lat="37.1884159" lon="-0.9425817"><ele>0.0</ele><time>2026-04-29T12:49:49.077Z</time></trkpt><trkpt lat="37.1884671" lon="-0.9424923"><ele>0.0</ele><time>2026-04-29T12:49:50.078Z</time></trkpt><trkpt lat="37.1885185" lon="-0.9424107"><ele>0.0</ele><time>2026-04-29T12:49:51.078Z</time></trkpt><trkpt lat="37.1885703" lon="-0.9423235"><ele>0.0</ele><time>2026-04-29T12:49:52.078Z</time></trkpt><trkpt lat="37.1886247" lon="-0.9422356"><ele>0.0</ele><time>2026-04-29T12:49:53.078Z</time></trkpt><trkpt lat="37.1886696" lon="-0.9421484"><ele>0.0</ele><time>2026-04-29T12:49:54.078Z</time></trkpt><trkpt lat="37.18871" lon="-0.9420604"><ele>0.0</ele><time>2026-04-29T12:49:55.077Z</time></trkpt><trkpt lat="37.1887583" lon="-0.9419721"><ele>0.0</ele><time>2026-04-29T12:49:56.077Z</time></trkpt><trkpt lat="37.1888127" lon="-0.9418848"><ele>0.0</ele><time>2026-04-29T12:49:57.077Z</time></trkpt><trkpt lat="37.1888618" lon="-0.9417979"><ele>0.0</ele><time>2026-04-29T12:49:58.078Z</time></trkpt><trkpt lat="37.1889122" lon="-0.9417131"><ele>0.0</ele><time>2026-04-29T12:49:59.078Z</time></trkpt><trkpt lat="37.188972" lon="-0.9416223"><ele>0.0</ele><time>2026-04-29T12:50:00.077Z</time></trkpt><trkpt lat="37.1890262" lon="-0.9415394"><ele>0.0</ele><time>2026-04-29T12:50:01.077Z</time></trkpt><trkpt lat="37.189078" lon="-0.9414588"><ele>0.0</ele><time>2026-04-29T12:50:02.077Z</time></trkpt><trkpt lat="37.189127" lon="-0.9413805"><ele>0.0</ele><time>2026-04-29T12:50:03.078Z</time></trkpt><trkpt lat="37.1891741" lon="-0.9412908"><ele>0.0</ele><time>2026-04-29T12:50:04.078Z</time></trkpt><trkpt lat="37.1892237" lon="-0.9412007"><ele>0.0</ele><time>2026-04-29T12:50:05.078Z</time></trkpt><trkpt lat="37.1893381" lon="-0.9410231"><ele>0.0</ele><time>2026-04-29T12:50:07.078Z</time></trkpt><trkpt lat="37.1893918" lon="-0.940937"><ele>0.0</ele><time>2026-04-29T12:50:08.078Z</time></trkpt><trkpt lat="37.1894437" lon="-0.9408515"><ele>0.0</ele><time>2026-04-29T12:50:09.077Z</time></trkpt><trkpt lat="37.1894925" lon="-0.9407637"><ele>0.0</ele><time>2026-04-29T12:50:10.077Z</time></trkpt><trkpt lat="37.1895393" lon="-0.940678"><ele>0.0</ele><time>2026-04-29T12:50:11.077Z</time></trkpt><trkpt lat="37.1895929" lon="-0.9405918"><ele>0.0</ele><time>2026-04-29T12:50:12.077Z</time></trkpt><trkpt lat="37.1896479" lon="-0.9405049"><ele>0.0</ele><time>2026-04-29T12:50:13.077Z</time></trkpt><trkpt lat="37.1897031" lon="-0.9404169"><ele>0.0</ele><time>2026-04-29T12:50:14.077Z</time></trkpt><trkpt lat="37.1897594" lon="-0.9403344"><ele>0.0</ele><time>2026-04-29T12:50:15.077Z</time></trkpt><trkpt lat="37.1898034" lon="-0.9402395"><ele>0.0</ele><time>2026-04-29T12:50:16.077Z</time></trkpt><trkpt lat="37.1898438" lon="-0.9401458"><ele>0.0</ele><time>2026-04-29T12:50:17.077Z</time></trkpt><trkpt lat="37.1898947" lon="-0.9400624"><ele>0.0</ele><time>2026-04-29T12:50:18.078Z</time></trkpt><trkpt lat="37.1899452" lon="-0.9399748"><ele>0.0</ele><time>2026-04-29T12:50:19.077Z</time></trkpt><trkpt lat="37.1899968" lon="-0.9398924"><ele>0.0</ele><time>2026-04-29T12:50:20.077Z</time></trkpt><trkpt lat="37.1900541" lon="-0.9398108"><ele>0.0</ele><time>2026-04-29T12:50:21.077Z</time></trkpt><trkpt lat="37.1901008" lon="-0.9397265"><ele>0.0</ele><time>2026-04-29T12:50:22.078Z</time></trkpt><trkpt lat="37.1901542" lon="-0.9396384"><ele>0.0</ele><time>2026-04-29T12:50:23.078Z</time></trkpt><trkpt lat="37.1901978" lon="-0.9395514"><ele>0.0</ele><time>2026-04-29T12:50:24.077Z</time></trkpt><trkpt lat="37.1902425" lon="-0.9394648"><ele>0.0</ele><time>2026-04-29T12:50:25.078Z</time></trkpt><trkpt lat="37.1902989" lon="-0.9393796"><ele>0.0</ele><time>2026-04-29T12:50:26.078Z</time></trkpt><trkpt lat="37.1903984" lon="-0.9392004"><ele>0.0</ele><time>2026-04-29T12:50:28.077Z</time></trkpt><trkpt lat="37.1904513" lon="-0.9391105"><ele>0.0</ele><time>2026-04-29T12:50:29.078Z</time></trkpt><trkpt lat="37.1905061" lon="-0.9390207"><ele>0.0</ele><time>2026-04-29T12:50:30.077Z</time></trkpt><trkpt lat="37.1905542" lon="-0.9389337"><ele>0.0</ele><time>2026-04-29T12:50:31.078Z</time></trkpt><trkpt lat="37.1905991" lon="-0.9388394"><ele>0.0</ele><time>2026-04-29T12:50:32.078Z</time></trkpt><trkpt lat="37.1906469" lon="-0.938746"><ele>0.0</ele><time>2026-04-29T12:50:33.078Z</time></trkpt><trkpt lat="37.1906864" lon="-0.9386527"><ele>0.0</ele><time>2026-04-29T12:50:34.077Z</time></trkpt><trkpt lat="37.190728" lon="-0.9385689"><ele>0.0</ele><time>2026-04-29T12:50:35.077Z</time></trkpt><trkpt lat="37.1907772" lon="-0.9384817"><ele>0.0</ele><time>2026-04-29T12:50:36.078Z</time></trkpt><trkpt lat="37.1908268" lon="-0.9383907"><ele>0.0</ele><time>2026-04-29T12:50:37.078Z</time></trkpt><trkpt lat="37.1908865" lon="-0.9383022"><ele>0.0</ele><time>2026-04-29T12:50:38.078Z</time></trkpt><trkpt lat="37.190941" lon="-0.9382134"><ele>0.0</ele><time>2026-04-29T12:50:39.077Z</time></trkpt><trkpt lat="37.191003" lon="-0.9381236"><ele>0.0</ele><time>2026-04-29T12:50:40.077Z</time></trkpt><trkpt lat="37.1910659" lon="-0.9380367"><ele>0.0</ele><time>2026-04-29T12:50:41.078Z</time></trkpt><trkpt lat="37.1911299" lon="-0.9379514"><ele>0.0</ele><time>2026-04-29T12:50:42.077Z</time></trkpt><trkpt lat="37.191186" lon="-0.9378677"><ele>0.0</ele><time>2026-04-29T12:50:43.077Z</time></trkpt><trkpt lat="37.1912299" lon="-0.9377777"><ele>0.0</ele><time>2026-04-29T12:50:44.077Z</time></trkpt><trkpt lat="37.1912832" lon="-0.9376915"><ele>0.0</ele><time>2026-04-29T12:50:45.078Z</time></trkpt><trkpt lat="37.19134" lon="-0.9376056"><ele>0.0</ele><time>2026-04-29T12:50:46.078Z</time></trkpt><trkpt lat="37.1913919" lon="-0.9375201"><ele>0.0</ele><time>2026-04-29T12:50:47.078Z</time></trkpt><trkpt lat="37.1914913" lon="-0.9373457"><ele>0.0</ele><time>2026-04-29T12:50:49.078Z</time></trkpt><trkpt lat="37.1915516" lon="-0.9372615"><ele>0.0</ele><time>2026-04-29T12:50:50.078Z</time></trkpt><trkpt lat="37.1916089" lon="-0.9371751"><ele>0.0</ele><time>2026-04-29T12:50:51.077Z</time></trkpt><trkpt lat="37.1916685" lon="-0.9370937"><ele>0.0</ele><time>2026-04-29T12:50:52.077Z</time></trkpt><trkpt lat="37.1917225" lon="-0.9370162"><ele>0.0</ele><time>2026-04-29T12:50:53.078Z</time></trkpt><trkpt lat="37.191772" lon="-0.9369329"><ele>0.0</ele><time>2026-04-29T12:50:54.077Z</time></trkpt><trkpt lat="37.1918224" lon="-0.9368452"><ele>0.0</ele><time>2026-04-29T12:50:55.078Z</time></trkpt><trkpt lat="37.1918719" lon="-0.9367583"><ele>0.0</ele><time>2026-04-29T12:50:56.078Z</time></trkpt><trkpt lat="37.1919193" lon="-0.9366704"><ele>0.0</ele><time>2026-04-29T12:50:57.078Z</time></trkpt><trkpt lat="37.19197" lon="-0.9365782"><ele>0.0</ele><time>2026-04-29T12:50:58.078Z</time></trkpt><trkpt lat="37.1920233" lon="-0.9364917"><ele>0.0</ele><time>2026-04-29T12:50:59.078Z</time></trkpt><trkpt lat="37.1920751" lon="-0.9364149"><ele>0.0</ele><time>2026-04-29T12:51:00.078Z</time></trkpt><trkpt lat="37.1921269" lon="-0.9363299"><ele>0.0</ele><time>2026-04-29T12:51:01.077Z</time></trkpt><trkpt lat="37.1921742" lon="-0.9362419"><ele>0.0</ele><time>2026-04-29T12:51:02.077Z</time></trkpt><trkpt lat="37.1922236" lon="-0.9361521"><ele>0.0</ele><time>2026-04-29T12:51:03.078Z</time></trkpt><trkpt lat="37.1922765" lon="-0.9360594"><ele>0.0</ele><time>2026-04-29T12:51:04.078Z</time></trkpt><trkpt lat="37.1923285" lon="-0.9359679"><ele>0.0</ele><time>2026-04-29T12:51:05.078Z</time></trkpt><trkpt lat="37.1923773" lon="-0.9358802"><ele>0.0</ele><time>2026-04-29T12:51:06.078Z</time></trkpt><trkpt lat="37.1924255" lon="-0.9357904"><ele>0.0</ele><time>2026-04-29T12:51:07.077Z</time></trkpt><trkpt lat="37.1924724" lon="-0.9357004"><ele>0.0</ele><time>2026-04-29T12:51:08.078Z</time></trkpt><trkpt lat="37.1925671" lon="-0.9355217"><ele>0.0</ele><time>2026-04-29T12:51:10.078Z</time></trkpt><trkpt lat="37.1926153" lon="-0.9354319"><ele>0.0</ele><time>2026-04-29T12:51:11.078Z</time></trkpt><trkpt lat="37.1926655" lon="-0.9353433"><ele>0.0</ele><time>2026-04-29T12:51:12.077Z</time></trkpt><trkpt lat="37.1927169" lon="-0.9352566"><ele>0.0</ele><time>2026-04-29T12:51:13.077Z</time></trkpt><trkpt lat="37.1927673" lon="-0.9351715"><ele>0.0</ele><time>2026-04-29T12:51:14.078Z</time></trkpt><trkpt lat="37.1928154" lon="-0.9350835"><ele>0.0</ele><time>2026-04-29T12:51:15.077Z</time></trkpt><trkpt lat="37.1928666" lon="-0.9349951"><ele>0.0</ele><time>2026-04-29T12:51:16.078Z</time></trkpt><trkpt lat="37.1929195" lon="-0.9349041"><ele>0.0</ele><time>2026-04-29T12:51:17.077Z</time></trkpt><trkpt lat="37.1929687" lon="-0.9348183"><ele>0.0</ele><time>2026-04-29T12:51:18.077Z</time></trkpt><trkpt lat="37.1930156" lon="-0.9347245"><ele>0.0</ele><time>2026-04-29T12:51:19.077Z</time></trkpt><trkpt lat="37.1930635" lon="-0.934638"><ele>0.0</ele><time>2026-04-29T12:51:20.077Z</time></trkpt><trkpt lat="37.1931117" lon="-0.9345516"><ele>0.0</ele><time>2026-04-29T12:51:21.077Z</time></trkpt><trkpt lat="37.193163" lon="-0.9344562"><ele>0.0</ele><time>2026-04-29T12:51:22.077Z</time></trkpt><trkpt lat="37.193214" lon="-0.934371"><ele>0.0</ele><time>2026-04-29T12:51:23.077Z</time></trkpt><trkpt lat="37.1932621" lon="-0.9342848"><ele>0.0</ele><time>2026-04-29T12:51:24.078Z</time></trkpt><trkpt lat="37.1933103" lon="-0.9341952"><ele>0.0</ele><time>2026-04-29T12:51:25.077Z</time></trkpt><trkpt lat="37.1933729" lon="-0.9341095"><ele>0.0</ele><time>2026-04-29T12:51:26.077Z</time></trkpt><trkpt lat="37.1934335" lon="-0.9340274"><ele>0.0</ele><time>2026-04-29T12:51:27.077Z</time></trkpt><trkpt lat="37.1934921" lon="-0.9339415"><ele>0.0</ele><time>2026-04-29T12:51:28.077Z</time></trkpt><trkpt lat="37.1935507" lon="-0.9338505"><ele>0.0</ele><time>2026-04-29T12:51:29.077Z</time></trkpt><trkpt lat="37.1936425" lon="-0.9336782"><ele>0.0</ele><time>2026-04-29T12:51:31.077Z</time></trkpt><trkpt lat="37.1936892" lon="-0.9335946"><ele>0.0</ele><time>2026-04-29T12:51:32.078Z</time></trkpt><trkpt lat="37.1937387" lon="-0.9335023"><ele>0.0</ele><time>2026-04-29T12:51:33.077Z</time></trkpt><trkpt lat="37.1937901" lon="-0.9334109"><ele>0.0</ele><time>2026-04-29T12:51:34.078Z</time></trkpt><trkpt lat="37.1938416" lon="-0.9333181"><ele>0.0</ele><time>2026-04-29T12:51:35.077Z</time></trkpt><trkpt lat="37.1938947" lon="-0.9332318"><ele>0.0</ele><time>2026-04-29T12:51:36.077Z</time></trkpt><trkpt lat="37.1939543" lon="-0.9331497"><ele>0.0</ele><time>2026-04-29T12:51:37.077Z</time></trkpt><trkpt lat="37.1940068" lon="-0.9330621"><ele>0.0</ele><time>2026-04-29T12:51:38.078Z</time></trkpt><trkpt lat="37.1940543" lon="-0.9329721"><ele>0.0</ele><time>2026-04-29T12:51:39.077Z</time></trkpt><trkpt lat="37.1941035" lon="-0.932886"><ele>0.0</ele><time>2026-04-29T12:51:40.078Z</time></trkpt><trkpt lat="37.1941521" lon="-0.9328011"><ele>0.0</ele><time>2026-04-29T12:51:41.077Z</time></trkpt><trkpt lat="37.1942017" lon="-0.9327174"><ele>0.0</ele><time>2026-04-29T12:51:42.078Z</time></trkpt><trkpt lat="37.1942504" lon="-0.93263"><ele>0.0</ele><time>2026-04-29T12:51:43.077Z</time></trkpt><trkpt lat="37.1943033" lon="-0.9325417"><ele>0.0</ele><time>2026-04-29T12:51:44.078Z</time></trkpt><trkpt lat="37.194356" lon="-0.9324564"><ele>0.0</ele><time>2026-04-29T12:51:45.077Z</time></trkpt><trkpt lat="37.1944126" lon="-0.9323698"><ele>0.0</ele><time>2026-04-29T12:51:46.077Z</time></trkpt><trkpt lat="37.194469" lon="-0.932283"><ele>0.0</ele><time>2026-04-29T12:51:47.078Z</time></trkpt><trkpt lat="37.1945297" lon="-0.9321938"><ele>0.0</ele><time>2026-04-29T12:51:48.078Z</time></trkpt><trkpt lat="37.1945829" lon="-0.9321037"><ele>0.0</ele><time>2026-04-29T12:51:49.077Z</time></trkpt><trkpt lat="37.1946323" lon="-0.9320151"><ele>0.0</ele><time>2026-04-29T12:51:50.077Z</time></trkpt><trkpt lat="37.1947349" lon="-0.9318307"><ele>0.0</ele><time>2026-04-29T12:51:52.078Z</time></trkpt><trkpt lat="37.1947821" lon="-0.9317432"><ele>0.0</ele><time>2026-04-29T12:51:53.077Z</time></trkpt><trkpt lat="37.1948359" lon="-0.9316577"><ele>0.0</ele><time>2026-04-29T12:51:54.078Z</time></trkpt><trkpt lat="37.1948897" lon="-0.9315743"><ele>0.0</ele><time>2026-04-29T12:51:55.077Z</time></trkpt><trkpt lat="37.1949418" lon="-0.9314853"><ele>0.0</ele><time>2026-04-29T12:51:56.078Z</time></trkpt><trkpt lat="37.1949935" lon="-0.9314"><ele>0.0</ele><time>2026-04-29T12:51:57.078Z</time></trkpt><trkpt lat="37.195045" lon="-0.9313164"><ele>0.0</ele><time>2026-04-29T12:51:58.078Z</time></trkpt><trkpt lat="37.1950996" lon="-0.9312275"><ele>0.0</ele><time>2026-04-29T12:51:59.078Z</time></trkpt><trkpt lat="37.1951519" lon="-0.9311417"><ele>0.0</ele><time>2026-04-29T12:52:00.078Z</time></trkpt><trkpt lat="37.1951952" lon="-0.9310537"><ele>0.0</ele><time>2026-04-29T12:52:01.077Z</time></trkpt><trkpt lat="37.1952427" lon="-0.9309682"><ele>0.0</ele><time>2026-04-29T12:52:02.077Z</time></trkpt><trkpt lat="37.1952935" lon="-0.9308831"><ele>0.0</ele><time>2026-04-29T12:52:03.077Z</time></trkpt><trkpt lat="37.1953412" lon="-0.9307937"><ele>0.0</ele><time>2026-04-29T12:52:04.078Z</time></trkpt><trkpt lat="37.1953905" lon="-0.9307025"><ele>0.0</ele><time>2026-04-29T12:52:05.077Z</time></trkpt><trkpt lat="37.1954421" lon="-0.9306124"><ele>0.0</ele><time>2026-04-29T12:52:06.077Z</time></trkpt><trkpt lat="37.1954882" lon="-0.930518"><ele>0.0</ele><time>2026-04-29T12:52:07.078Z</time></trkpt><trkpt lat="37.1955356" lon="-0.9304273"><ele>0.0</ele><time>2026-04-29T12:52:08.077Z</time></trkpt><trkpt lat="37.1955854" lon="-0.9303415"><ele>0.0</ele><time>2026-04-29T12:52:09.077Z</time></trkpt><trkpt lat="37.1956338" lon="-0.930252"><ele>0.0</ele><time>2026-04-29T12:52:10.077Z</time></trkpt><trkpt lat="37.195679" lon="-0.9301634"><ele>0.0</ele><time>2026-04-29T12:52:11.078Z</time></trkpt><trkpt lat="37.1957844" lon="-0.9299886"><ele>0.0</ele><time>2026-04-29T12:52:13.077Z</time></trkpt><trkpt lat="37.195842" lon="-0.9299002"><ele>0.0</ele><time>2026-04-29T12:52:14.077Z</time></trkpt><trkpt lat="37.1958947" lon="-0.9298094"><ele>0.0</ele><time>2026-04-29T12:52:15.077Z</time></trkpt><trkpt lat="37.1959425" lon="-0.9297218"><ele>0.0</ele><time>2026-04-29T12:52:16.078Z</time></trkpt><trkpt lat="37.1959903" lon="-0.9296324"><ele>0.0</ele><time>2026-04-29T12:52:17.078Z</time></trkpt><trkpt lat="37.1960416" lon="-0.9295436"><ele>0.0</ele><time>2026-04-29T12:52:18.078Z</time></trkpt><trkpt lat="37.1960909" lon="-0.929457"><ele>0.0</ele><time>2026-04-29T12:52:19.078Z</time></trkpt><trkpt lat="37.1961393" lon="-0.9293686"><ele>0.0</ele><time>2026-04-29T12:52:20.077Z</time></trkpt><trkpt lat="37.1961877" lon="-0.9292775"><ele>0.0</ele><time>2026-04-29T12:52:21.078Z</time></trkpt><trkpt lat="37.1962441" lon="-0.9291983"><ele>0.0</ele><time>2026-04-29T12:52:22.077Z</time></trkpt><trkpt lat="37.1962952" lon="-0.9291102"><ele>0.0</ele><time>2026-04-29T12:52:23.077Z</time></trkpt><trkpt lat="37.1963509" lon="-0.9290192"><ele>0.0</ele><time>2026-04-29T12:52:24.077Z</time></trkpt><trkpt lat="37.1964005" lon="-0.9289331"><ele>0.0</ele><time>2026-04-29T12:52:25.077Z</time></trkpt><trkpt lat="37.1964445" lon="-0.9288395"><ele>0.0</ele><time>2026-04-29T12:52:26.078Z</time></trkpt><trkpt lat="37.1964893" lon="-0.9287499"><ele>0.0</ele><time>2026-04-29T12:52:27.078Z</time></trkpt><trkpt lat="37.1965403" lon="-0.928666"><ele>0.0</ele><time>2026-04-29T12:52:28.077Z</time></trkpt><trkpt lat="37.1965914" lon="-0.9285754"><ele>0.0</ele><time>2026-04-29T12:52:29.078Z</time></trkpt><trkpt lat="37.1966418" lon="-0.9284853"><ele>0.0</ele><time>2026-04-29T12:52:30.078Z</time></trkpt><trkpt lat="37.1966892" lon="-0.9284007"><ele>0.0</ele><time>2026-04-29T12:52:31.077Z</time></trkpt><trkpt lat="37.1967414" lon="-0.9283161"><ele>0.0</ele><time>2026-04-29T12:52:32.077Z</time></trkpt><trkpt lat="37.1968503" lon="-0.9281401"><ele>0.0</ele><time>2026-04-29T12:52:34.077Z</time></trkpt><trkpt lat="37.1969111" lon="-0.9280557"><ele>0.0</ele><time>2026-04-29T12:52:35.077Z</time></trkpt><trkpt lat="37.1969656" lon="-0.927965"><ele>0.0</ele><time>2026-04-29T12:52:36.077Z</time></trkpt><trkpt lat="37.1970233" lon="-0.9278807"><ele>0.0</ele><time>2026-04-29T12:52:37.078Z</time></trkpt><trkpt lat="37.1970752" lon="-0.9277946"><ele>0.0</ele><time>2026-04-29T12:52:38.078Z</time></trkpt><trkpt lat="37.1971252" lon="-0.9277038"><ele>0.0</ele><time>2026-04-29T12:52:39.078Z</time></trkpt><trkpt lat="37.1971735" lon="-0.9276136"><ele>0.0</ele><time>2026-04-29T12:52:40.077Z</time></trkpt><trkpt lat="37.1972263" lon="-0.9275223"><ele>0.0</ele><time>2026-04-29T12:52:41.078Z</time></trkpt><trkpt lat="37.1972842" lon="-0.9274366"><ele>0.0</ele><time>2026-04-29T12:52:42.078Z</time></trkpt><trkpt lat="37.1973327" lon="-0.9273458"><ele>0.0</ele><time>2026-04-29T12:52:43.078Z</time></trkpt><trkpt lat="37.1973833" lon="-0.9272583"><ele>0.0</ele><time>2026-04-29T12:52:44.077Z</time></trkpt><trkpt lat="37.1974373" lon="-0.9271787"><ele>0.0</ele><time>2026-04-29T12:52:45.077Z</time></trkpt><trkpt lat="37.1974955" lon="-0.927089"><ele>0.0</ele><time>2026-04-29T12:52:46.078Z</time></trkpt><trkpt lat="37.1975468" lon="-0.9270014"><ele>0.0</ele><time>2026-04-29T12:52:47.077Z</time></trkpt><trkpt lat="37.1976011" lon="-0.9269119"><ele>0.0</ele><time>2026-04-29T12:52:48.077Z</time></trkpt><trkpt lat="37.1976565" lon="-0.9268221"><ele>0.0</ele><time>2026-04-29T12:52:49.077Z</time></trkpt><trkpt lat="37.1977126" lon="-0.9267392"><ele>0.0</ele><time>2026-04-29T12:52:50.078Z</time></trkpt><trkpt lat="37.1977582" lon="-0.9266532"><ele>0.0</ele><time>2026-04-29T12:52:51.078Z</time></trkpt><trkpt lat="37.1978129" lon="-0.9265623"><ele>0.0</ele><time>2026-04-29T12:52:52.078Z</time></trkpt><trkpt lat="37.1978639" lon="-0.9264765"><ele>0.0</ele><time>2026-04-29T12:52:53.078Z</time></trkpt><trkpt lat="37.1979679" lon="-0.9263051"><ele>0.0</ele><time>2026-04-29T12:52:55.078Z</time></trkpt><trkpt lat="37.1980185" lon="-0.9262179"><ele>0.0</ele><time>2026-04-29T12:52:56.078Z</time></trkpt><trkpt lat="37.1980672" lon="-0.9261242"><ele>0.0</ele><time>2026-04-29T12:52:57.078Z</time></trkpt><trkpt lat="37.1981169" lon="-0.9260332"><ele>0.0</ele><time>2026-04-29T12:52:58.077Z</time></trkpt><trkpt lat="37.1981683" lon="-0.9259449"><ele>0.0</ele><time>2026-04-29T12:52:59.078Z</time></trkpt><trkpt lat="37.1982212" lon="-0.9258611"><ele>0.0</ele><time>2026-04-29T12:53:00.077Z</time></trkpt><trkpt lat="37.1982774" lon="-0.9257747"><ele>0.0</ele><time>2026-04-29T12:53:01.077Z</time></trkpt><trkpt lat="37.1983316" lon="-0.9256893"><ele>0.0</ele><time>2026-04-29T12:53:02.077Z</time></trkpt><trkpt lat="37.1983803" lon="-0.9256027"><ele>0.0</ele><time>2026-04-29T12:53:03.077Z</time></trkpt><trkpt lat="37.1984345" lon="-0.9255175"><ele>0.0</ele><time>2026-04-29T12:53:04.078Z</time></trkpt><trkpt lat="37.1984824" lon="-0.9254325"><ele>0.0</ele><time>2026-04-29T12:53:05.078Z</time></trkpt><trkpt lat="37.1985474" lon="-0.9253572"><ele>0.0</ele><time>2026-04-29T12:53:06.077Z</time></trkpt><trkpt lat="37.1985999" lon="-0.9252673"><ele>0.0</ele><time>2026-04-29T12:53:07.078Z</time></trkpt><trkpt lat="37.1986549" lon="-0.9251846"><ele>0.0</ele><time>2026-04-29T12:53:08.078Z</time></trkpt><trkpt lat="37.1987027" lon="-0.9250928"><ele>0.0</ele><time>2026-04-29T12:53:09.077Z</time></trkpt><trkpt lat="37.1987521" lon="-0.9250062"><ele>0.0</ele><time>2026-04-29T12:53:10.077Z</time></trkpt><trkpt lat="37.198803" lon="-0.9249211"><ele>0.0</ele><time>2026-04-29T12:53:11.077Z</time></trkpt><trkpt lat="37.198855" lon="-0.9248377"><ele>0.0</ele><time>2026-04-29T12:53:12.078Z</time></trkpt><trkpt lat="37.1989056" lon="-0.9247501"><ele>0.0</ele><time>2026-04-29T12:53:13.077Z</time></trkpt><trkpt lat="37.1989571" lon="-0.9246573"><ele>0.0</ele><time>2026-04-29T12:53:14.078Z</time></trkpt><trkpt lat="37.1990616" lon="-0.9244781"><ele>0.0</ele><time>2026-04-29T12:53:16.077Z</time></trkpt><trkpt lat="37.1991186" lon="-0.9243926"><ele>0.0</ele><time>2026-04-29T12:53:17.078Z</time></trkpt><trkpt lat="37.1991727" lon="-0.9243035"><ele>0.0</ele><time>2026-04-29T12:53:18.078Z</time></trkpt><trkpt lat="37.1992248" lon="-0.9242151"><ele>0.0</ele><time>2026-04-29T12:53:19.078Z</time></trkpt><trkpt lat="37.1992752" lon="-0.9241257"><ele>0.0</ele><time>2026-04-29T12:53:20.078Z</time></trkpt><trkpt lat="37.1993293" lon="-0.9240328"><ele>0.0</ele><time>2026-04-29T12:53:21.078Z</time></trkpt><trkpt lat="37.1993817" lon="-0.9239408"><ele>0.0</ele><time>2026-04-29T12:53:22.078Z</time></trkpt><trkpt lat="37.1994352" lon="-0.9238505"><ele>0.0</ele><time>2026-04-29T12:53:23.078Z</time></trkpt><trkpt lat="37.1994895" lon="-0.9237602"><ele>0.0</ele><time>2026-04-29T12:53:24.077Z</time></trkpt><trkpt lat="37.1995418" lon="-0.9236703"><ele>0.0</ele><time>2026-04-29T12:53:25.077Z</time></trkpt><trkpt lat="37.1995893" lon="-0.9235845"><ele>0.0</ele><time>2026-04-29T12:53:26.078Z</time></trkpt><trkpt lat="37.1996374" lon="-0.923495"><ele>0.0</ele><time>2026-04-29T12:53:27.077Z</time></trkpt><trkpt lat="37.1996826" lon="-0.9234059"><ele>0.0</ele><time>2026-04-29T12:53:28.078Z</time></trkpt><trkpt lat="37.1997288" lon="-0.9233165"><ele>0.0</ele><time>2026-04-29T12:53:29.078Z</time></trkpt><trkpt lat="37.1997753" lon="-0.9232252"><ele>0.0</ele><time>2026-04-29T12:53:30.077Z</time></trkpt><trkpt lat="37.1998235" lon="-0.9231324"><ele>0.0</ele><time>2026-04-29T12:53:31.077Z</time></trkpt><trkpt lat="37.1998734" lon="-0.9230388"><ele>0.0</ele><time>2026-04-29T12:53:32.077Z</time></trkpt><trkpt lat="37.1999205" lon="-0.9229484"><ele>0.0</ele><time>2026-04-29T12:53:33.077Z</time></trkpt><trkpt lat="37.1999643" lon="-0.9228558"><ele>0.0</ele><time>2026-04-29T12:53:34.078Z</time></trkpt><trkpt lat="37.2000118" lon="-0.9227667"><ele>0.0</ele><time>2026-04-29T12:53:35.077Z</time></trkpt><trkpt lat="37.2001318" lon="-0.9225997"><ele>0.0</ele><time>2026-04-29T12:53:37.078Z</time></trkpt><trkpt lat="37.2001861" lon="-0.9225173"><ele>0.0</ele><time>2026-04-29T12:53:38.077Z</time></trkpt><trkpt lat="37.2002393" lon="-0.9224325"><ele>0.0</ele><time>2026-04-29T12:53:39.078Z</time></trkpt><trkpt lat="37.2002986" lon="-0.9223505"><ele>0.0</ele><time>2026-04-29T12:53:40.078Z</time></trkpt><trkpt lat="37.2003516" lon="-0.9222618"><ele>0.0</ele><time>2026-04-29T12:53:41.078Z</time></trkpt><trkpt lat="37.2004001" lon="-0.9221702"><ele>0.0</ele><time>2026-04-29T12:53:42.078Z</time></trkpt><trkpt lat="37.20045" lon="-0.9220786"><ele>0.0</ele><time>2026-04-29T12:53:43.077Z</time></trkpt><trkpt lat="37.2004986" lon="-0.9219846"><ele>0.0</ele><time>2026-04-29T12:53:44.078Z</time></trkpt><trkpt lat="37.2005501" lon="-0.9218935"><ele>0.0</ele><time>2026-04-29T12:53:45.078Z</time></trkpt><trkpt lat="37.2005975" lon="-0.921801"><ele>0.0</ele><time>2026-04-29T12:53:46.078Z</time></trkpt><trkpt lat="37.2006497" lon="-0.9217147"><ele>0.0</ele><time>2026-04-29T12:53:47.078Z</time></trkpt><trkpt lat="37.2007012" lon="-0.9216296"><ele>0.0</ele><time>2026-04-29T12:53:48.077Z</time></trkpt><trkpt lat="37.2007463" lon="-0.9215474"><ele>0.0</ele><time>2026-04-29T12:53:49.077Z</time></trkpt><trkpt lat="37.2007913" lon="-0.9214639"><ele>0.0</ele><time>2026-04-29T12:53:50.078Z</time></trkpt><trkpt lat="37.2008345" lon="-0.9213736"><ele>0.0</ele><time>2026-04-29T12:53:51.078Z</time></trkpt><trkpt lat="37.2008783" lon="-0.9212795"><ele>0.0</ele><time>2026-04-29T12:53:52.077Z</time></trkpt><trkpt lat="37.2009274" lon="-0.9211875"><ele>0.0</ele><time>2026-04-29T12:53:53.077Z</time></trkpt><trkpt lat="37.2009841" lon="-0.9211044"><ele>0.0</ele><time>2026-04-29T12:53:54.078Z</time></trkpt><trkpt lat="37.2010397" lon="-0.921014"><ele>0.0</ele><time>2026-04-29T12:53:55.077Z</time></trkpt><trkpt lat="37.201095" lon="-0.9209312"><ele>0.0</ele><time>2026-04-29T12:53:56.077Z</time></trkpt><trkpt lat="37.20121" lon="-0.9207575"><ele>0.0</ele><time>2026-04-29T12:53:58.078Z</time></trkpt><trkpt lat="37.2012635" lon="-0.9206677"><ele>0.0</ele><time>2026-04-29T12:53:59.078Z</time></trkpt><trkpt lat="37.2013148" lon="-0.9205745"><ele>0.0</ele><time>2026-04-29T12:54:00.077Z</time></trkpt><trkpt lat="37.2013726" lon="-0.9204826"><ele>0.0</ele><time>2026-04-29T12:54:01.077Z</time></trkpt><trkpt lat="37.201431" lon="-0.9203927"><ele>0.0</ele><time>2026-04-29T12:54:02.077Z</time></trkpt><trkpt lat="37.2014777" lon="-0.920301"><ele>0.0</ele><time>2026-04-29T12:54:03.078Z</time></trkpt><trkpt lat="37.2015239" lon="-0.9202104"><ele>0.0</ele><time>2026-04-29T12:54:04.077Z</time></trkpt><trkpt lat="37.2015821" lon="-0.9201244"><ele>0.0</ele><time>2026-04-29T12:54:05.077Z</time></trkpt><trkpt lat="37.2016365" lon="-0.9200379"><ele>0.0</ele><time>2026-04-29T12:54:06.077Z</time></trkpt><trkpt lat="37.2016855" lon="-0.9199497"><ele>0.0</ele><time>2026-04-29T12:54:07.078Z</time></trkpt><trkpt lat="37.2017352" lon="-0.9198635"><ele>0.0</ele><time>2026-04-29T12:54:08.077Z</time></trkpt><trkpt lat="37.201784" lon="-0.919778"><ele>0.0</ele><time>2026-04-29T12:54:09.077Z</time></trkpt><trkpt lat="37.2018322" lon="-0.9196915"><ele>0.0</ele><time>2026-04-29T12:54:10.078Z</time></trkpt><trkpt lat="37.2018822" lon="-0.9196066"><ele>0.0</ele><time>2026-04-29T12:54:11.077Z</time></trkpt><trkpt lat="37.2019379" lon="-0.9195183"><ele>0.0</ele><time>2026-04-29T12:54:12.077Z</time></trkpt><trkpt lat="37.2019919" lon="-0.9194258"><ele>0.0</ele><time>2026-04-29T12:54:13.077Z</time></trkpt><trkpt lat="37.2020435" lon="-0.9193387"><ele>0.0</ele><time>2026-04-29T12:54:14.077Z</time></trkpt><trkpt lat="37.202095" lon="-0.9192504"><ele>0.0</ele><time>2026-04-29T12:54:15.077Z</time></trkpt><trkpt lat="37.2021481" lon="-0.9191634"><ele>0.0</ele><time>2026-04-29T12:54:16.077Z</time></trkpt><trkpt lat="37.2022002" lon="-0.919081"><ele>0.0</ele><time>2026-04-29T12:54:17.078Z</time></trkpt><trkpt lat="37.2023004" lon="-0.9189031"><ele>0.0</ele><time>2026-04-29T12:54:19.078Z</time></trkpt><trkpt lat="37.2023476" lon="-0.9188152"><ele>0.0</ele><time>2026-04-29T12:54:20.077Z</time></trkpt><trkpt lat="37.2023926" lon="-0.918727"><ele>0.0</ele><time>2026-04-29T12:54:21.078Z</time></trkpt><trkpt lat="37.2024409" lon="-0.9186375"><ele>0.0</ele><time>2026-04-29T12:54:22.078Z</time></trkpt><trkpt lat="37.2024931" lon="-0.9185518"><ele>0.0</ele><time>2026-04-29T12:54:23.078Z</time></trkpt><trkpt lat="37.2025405" lon="-0.9184664"><ele>0.0</ele><time>2026-04-29T12:54:24.078Z</time></trkpt><trkpt lat="37.2025875" lon="-0.9183744"><ele>0.0</ele><time>2026-04-29T12:54:25.077Z</time></trkpt><trkpt lat="37.2026355" lon="-0.9182852"><ele>0.0</ele><time>2026-04-29T12:54:26.078Z</time></trkpt><trkpt lat="37.2026864" lon="-0.9181925"><ele>0.0</ele><time>2026-04-29T12:54:27.078Z</time></trkpt><trkpt lat="37.2027392" lon="-0.9181008"><ele>0.0</ele><time>2026-04-29T12:54:28.078Z</time></trkpt><trkpt lat="37.2027895" lon="-0.9180118"><ele>0.0</ele><time>2026-04-29T12:54:29.077Z</time></trkpt><trkpt lat="37.202846" lon="-0.9179233"><ele>0.0</ele><time>2026-04-29T12:54:30.078Z</time></trkpt><trkpt lat="37.2028997" lon="-0.9178348"><ele>0.0</ele><time>2026-04-29T12:54:31.078Z</time></trkpt><trkpt lat="37.2029531" lon="-0.9177468"><ele>0.0</ele><time>2026-04-29T12:54:32.077Z</time></trkpt><trkpt lat="37.2030065" lon="-0.9176613"><ele>0.0</ele><time>2026-04-29T12:54:33.077Z</time></trkpt><trkpt lat="37.2030624" lon="-0.9175719"><ele>0.0</ele><time>2026-04-29T12:54:34.078Z</time></trkpt><trkpt lat="37.2031162" lon="-0.917482"><ele>0.0</ele><time>2026-04-29T12:54:35.078Z</time></trkpt><trkpt lat="37.2031686" lon="-0.9173992"><ele>0.0</ele><time>2026-04-29T12:54:36.077Z</time></trkpt><trkpt lat="37.2032262" lon="-0.9173148"><ele>0.0</ele><time>2026-04-29T12:54:37.078Z</time></trkpt><trkpt lat="37.2032803" lon="-0.9172339"><ele>0.0</ele><time>2026-04-29T12:54:38.078Z</time></trkpt><trkpt lat="37.203387" lon="-0.917068"><ele>0.0</ele><time>2026-04-29T12:54:40.077Z</time></trkpt><trkpt lat="37.2034431" lon="-0.9169875"><ele>0.0</ele><time>2026-04-29T12:54:41.077Z</time></trkpt><trkpt lat="37.2034952" lon="-0.9169045"><ele>0.0</ele><time>2026-04-29T12:54:42.077Z</time></trkpt><trkpt lat="37.2035529" lon="-0.9168141"><ele>0.0</ele><time>2026-04-29T12:54:43.078Z</time></trkpt><trkpt lat="37.203604" lon="-0.916734"><ele>0.0</ele><time>2026-04-29T12:54:44.078Z</time></trkpt><trkpt lat="37.2036539" lon="-0.9166508"><ele>0.0</ele><time>2026-04-29T12:54:45.077Z</time></trkpt><trkpt lat="37.2037026" lon="-0.9165691"><ele>0.0</ele><time>2026-04-29T12:54:46.077Z</time></trkpt><trkpt lat="37.2037579" lon="-0.9164833"><ele>0.0</ele><time>2026-04-29T12:54:47.077Z</time></trkpt><trkpt lat="37.2038104" lon="-0.9163956"><ele>0.0</ele><time>2026-04-29T12:54:48.077Z</time></trkpt><trkpt lat="37.203868" lon="-0.9163102"><ele>0.0</ele><time>2026-04-29T12:54:49.076Z</time></trkpt><trkpt lat="37.2039217" lon="-0.9162295"><ele>0.0</ele><time>2026-04-29T12:54:50.076Z</time></trkpt><trkpt lat="37.2039821" lon="-0.9161437"><ele>0.0</ele><time>2026-04-29T12:54:51.077Z</time></trkpt><trkpt lat="37.2040414" lon="-0.9160544"><ele>0.0</ele><time>2026-04-29T12:54:52.077Z</time></trkpt><trkpt lat="37.2041012" lon="-0.9159689"><ele>0.0</ele><time>2026-04-29T12:54:53.076Z</time></trkpt><trkpt lat="37.2041598" lon="-0.9158823"><ele>0.0</ele><time>2026-04-29T12:54:54.076Z</time></trkpt><trkpt lat="37.2042204" lon="-0.9157999"><ele>0.0</ele><time>2026-04-29T12:54:55.076Z</time></trkpt><trkpt lat="37.204281" lon="-0.9157182"><ele>0.0</ele><time>2026-04-29T12:54:56.077Z</time></trkpt><trkpt lat="37.2043382" lon="-0.9156367"><ele>0.0</ele><time>2026-04-29T12:54:57.076Z</time></trkpt><trkpt lat="37.2043936" lon="-0.9155516"><ele>0.0</ele><time>2026-04-29T12:54:58.077Z</time></trkpt><trkpt lat="37.2044487" lon="-0.9154665"><ele>0.0</ele><time>2026-04-29T12:54:59.077Z</time></trkpt><trkpt lat="37.2045526" lon="-0.9153136"><ele>0.0</ele><time>2026-04-29T12:55:01.077Z</time></trkpt><trkpt lat="37.2045997" lon="-0.9152288"><ele>0.0</ele><time>2026-04-29T12:55:02.077Z</time></trkpt><trkpt lat="37.2046535" lon="-0.9151453"><ele>0.0</ele><time>2026-04-29T12:55:03.076Z</time></trkpt><trkpt lat="37.2047086" lon="-0.9150574"><ele>0.0</ele><time>2026-04-29T12:55:04.077Z</time></trkpt><trkpt lat="37.2047679" lon="-0.9149722"><ele>0.0</ele><time>2026-04-29T12:55:05.077Z</time></trkpt><trkpt lat="37.2048251" lon="-0.9148871"><ele>0.0</ele><time>2026-04-29T12:55:06.077Z</time></trkpt><trkpt lat="37.2048801" lon="-0.9148034"><ele>0.0</ele><time>2026-04-29T12:55:07.077Z</time></trkpt><trkpt lat="37.2049368" lon="-0.9147216"><ele>0.0</ele><time>2026-04-29T12:55:08.076Z</time></trkpt><trkpt lat="37.2049954" lon="-0.9146399"><ele>0.0</ele><time>2026-04-29T12:55:09.076Z</time></trkpt><trkpt lat="37.2050549" lon="-0.9145582"><ele>0.0</ele><time>2026-04-29T12:55:10.077Z</time></trkpt><trkpt lat="37.2051166" lon="-0.9144752"><ele>0.0</ele><time>2026-04-29T12:55:11.076Z</time></trkpt><trkpt lat="37.2051721" lon="-0.9143918"><ele>0.0</ele><time>2026-04-29T12:55:12.077Z</time></trkpt><trkpt lat="37.2052203" lon="-0.9143043"><ele>0.0</ele><time>2026-04-29T12:55:13.077Z</time></trkpt><trkpt lat="37.2052723" lon="-0.9142103"><ele>0.0</ele><time>2026-04-29T12:55:14.077Z</time></trkpt><trkpt lat="37.2053236" lon="-0.9141289"><ele>0.0</ele><time>2026-04-29T12:55:15.077Z</time></trkpt><trkpt lat="37.2053735" lon="-0.9140547"><ele>0.0</ele><time>2026-04-29T12:55:16.077Z</time></trkpt><trkpt lat="37.2054282" lon="-0.9139786"><ele>0.0</ele><time>2026-04-29T12:55:17.076Z</time></trkpt><trkpt lat="37.2054864" lon="-0.9138996"><ele>0.0</ele><time>2026-04-29T12:55:18.076Z</time></trkpt><trkpt lat="37.2055451" lon="-0.9138196"><ele>0.0</ele><time>2026-04-29T12:55:19.076Z</time></trkpt><trkpt lat="37.2056076" lon="-0.913747"><ele>0.0</ele><time>2026-04-29T12:55:20.077Z</time></trkpt><trkpt lat="37.2057225" lon="-0.9135868"><ele>0.0</ele><time>2026-04-29T12:55:22.077Z</time></trkpt><trkpt lat="37.2057848" lon="-0.9135025"><ele>0.0</ele><time>2026-04-29T12:55:23.076Z</time></trkpt><trkpt lat="37.2058476" lon="-0.9134219"><ele>0.0</ele><time>2026-04-29T12:55:24.076Z</time></trkpt><trkpt lat="37.2059038" lon="-0.9133418"><ele>0.0</ele><time>2026-04-29T12:55:25.076Z</time></trkpt><trkpt lat="37.2059555" lon="-0.9132601"><ele>0.0</ele><time>2026-04-29T12:55:26.077Z</time></trkpt><trkpt lat="37.2060118" lon="-0.9131773"><ele>0.0</ele><time>2026-04-29T12:55:27.076Z</time></trkpt><trkpt lat="37.206072" lon="-0.9130967"><ele>0.0</ele><time>2026-04-29T12:55:28.077Z</time></trkpt><trkpt lat="37.20613" lon="-0.9130123"><ele>0.0</ele><time>2026-04-29T12:55:29.076Z</time></trkpt><trkpt lat="37.2061914" lon="-0.9129228"><ele>0.0</ele><time>2026-04-29T12:55:30.076Z</time></trkpt><trkpt lat="37.206251" lon="-0.91284"><ele>0.0</ele><time>2026-04-29T12:55:31.076Z</time></trkpt><trkpt lat="37.2063137" lon="-0.9127557"><ele>0.0</ele><time>2026-04-29T12:55:32.076Z</time></trkpt><trkpt lat="37.206376" lon="-0.9126767"><ele>0.0</ele><time>2026-04-29T12:55:33.076Z</time></trkpt><trkpt lat="37.2064407" lon="-0.9125942"><ele>0.0</ele><time>2026-04-29T12:55:34.077Z</time></trkpt><trkpt lat="37.2065029" lon="-0.9125162"><ele>0.0</ele><time>2026-04-29T12:55:35.077Z</time></trkpt><trkpt lat="37.2065618" lon="-0.9124426"><ele>0.0</ele><time>2026-04-29T12:55:36.077Z</time></trkpt><trkpt lat="37.2066216" lon="-0.9123661"><ele>0.0</ele><time>2026-04-29T12:55:37.076Z</time></trkpt><trkpt lat="37.2066819" lon="-0.9122894"><ele>0.0</ele><time>2026-04-29T12:55:38.077Z</time></trkpt><trkpt lat="37.2067462" lon="-0.9122072"><ele>0.0</ele><time>2026-04-29T12:55:39.077Z</time></trkpt><trkpt lat="37.2068095" lon="-0.9121252"><ele>0.0</ele><time>2026-04-29T12:55:40.077Z</time></trkpt><trkpt lat="37.2068729" lon="-0.9120469"><ele>0.0</ele><time>2026-04-29T12:55:41.076Z</time></trkpt><trkpt lat="37.2070045" lon="-0.9118984"><ele>0.0</ele><time>2026-04-29T12:55:43.077Z</time></trkpt><trkpt lat="37.2070652" lon="-0.9118215"><ele>0.0</ele><time>2026-04-29T12:55:44.076Z</time></trkpt><trkpt lat="37.2071237" lon="-0.9117465"><ele>0.0</ele><time>2026-04-29T12:55:45.077Z</time></trkpt><trkpt lat="37.2071848" lon="-0.9116641"><ele>0.0</ele><time>2026-04-29T12:55:46.076Z</time></trkpt><trkpt lat="37.2072505" lon="-0.9115839"><ele>0.0</ele><time>2026-04-29T12:55:47.076Z</time></trkpt><trkpt lat="37.2073122" lon="-0.9115055"><ele>0.0</ele><time>2026-04-29T12:55:48.076Z</time></trkpt><trkpt lat="37.2073708" lon="-0.9114326"><ele>0.0</ele><time>2026-04-29T12:55:49.077Z</time></trkpt><trkpt lat="37.2074315" lon="-0.9113546"><ele>0.0</ele><time>2026-04-29T12:55:50.076Z</time></trkpt><trkpt lat="37.2074903" lon="-0.9112766"><ele>0.0</ele><time>2026-04-29T12:55:51.076Z</time></trkpt><trkpt lat="37.2075474" lon="-0.9111981"><ele>0.0</ele><time>2026-04-29T12:55:52.077Z</time></trkpt><trkpt lat="37.2076025" lon="-0.9111183"><ele>0.0</ele><time>2026-04-29T12:55:53.076Z</time></trkpt><trkpt lat="37.20766" lon="-0.911034"><ele>0.0</ele><time>2026-04-29T12:55:54.077Z</time></trkpt><trkpt lat="37.2077171" lon="-0.9109534"><ele>0.0</ele><time>2026-04-29T12:55:55.076Z</time></trkpt><trkpt lat="37.2077779" lon="-0.9108661"><ele>0.0</ele><time>2026-04-29T12:55:56.077Z</time></trkpt><trkpt lat="37.2078355" lon="-0.9107854"><ele>0.0</ele><time>2026-04-29T12:55:57.077Z</time></trkpt><trkpt lat="37.2078948" lon="-0.9107006"><ele>0.0</ele><time>2026-04-29T12:55:58.076Z</time></trkpt><trkpt lat="37.2079515" lon="-0.9106126"><ele>0.0</ele><time>2026-04-29T12:55:59.076Z</time></trkpt><trkpt lat="37.2080102" lon="-0.9105302"><ele>0.0</ele><time>2026-04-29T12:56:00.077Z</time></trkpt><trkpt lat="37.2080657" lon="-0.9104514"><ele>0.0</ele><time>2026-04-29T12:56:01.076Z</time></trkpt><trkpt lat="37.2081146" lon="-0.9103729"><ele>0.0</ele><time>2026-04-29T12:56:02.077Z</time></trkpt><trkpt lat="37.2082179" lon="-0.9102029"><ele>0.0</ele><time>2026-04-29T12:56:04.077Z</time></trkpt><trkpt lat="37.2082708" lon="-0.9101201"><ele>0.0</ele><time>2026-04-29T12:56:05.076Z</time></trkpt><trkpt lat="37.2083296" lon="-0.9100344"><ele>0.0</ele><time>2026-04-29T12:56:06.076Z</time></trkpt><trkpt lat="37.2083857" lon="-0.9099459"><ele>0.0</ele><time>2026-04-29T12:56:07.076Z</time></trkpt><trkpt lat="37.2084437" lon="-0.9098618"><ele>0.0</ele><time>2026-04-29T12:56:08.076Z</time></trkpt><trkpt lat="37.2084959" lon="-0.9097776"><ele>0.0</ele><time>2026-04-29T12:56:09.077Z</time></trkpt><trkpt lat="37.2085561" lon="-0.9096997"><ele>0.0</ele><time>2026-04-29T12:56:10.076Z</time></trkpt><trkpt lat="37.2086149" lon="-0.9096188"><ele>0.0</ele><time>2026-04-29T12:56:11.076Z</time></trkpt><trkpt lat="37.2086768" lon="-0.9095396"><ele>0.0</ele><time>2026-04-29T12:56:12.077Z</time></trkpt><trkpt lat="37.2087364" lon="-0.9094612"><ele>0.0</ele><time>2026-04-29T12:56:13.077Z</time></trkpt><trkpt lat="37.2087947" lon="-0.9093803"><ele>0.0</ele><time>2026-04-29T12:56:14.077Z</time></trkpt><trkpt lat="37.2088517" lon="-0.9092974"><ele>0.0</ele><time>2026-04-29T12:56:15.077Z</time></trkpt><trkpt lat="37.2089129" lon="-0.9092126"><ele>0.0</ele><time>2026-04-29T12:56:16.076Z</time></trkpt><trkpt lat="37.2089688" lon="-0.9091306"><ele>0.0</ele><time>2026-04-29T12:56:17.077Z</time></trkpt><trkpt lat="37.2090323" lon="-0.9090485"><ele>0.0</ele><time>2026-04-29T12:56:18.076Z</time></trkpt><trkpt lat="37.2090917" lon="-0.9089656"><ele>0.0</ele><time>2026-04-29T12:56:19.076Z</time></trkpt><trkpt lat="37.2091485" lon="-0.9088779"><ele>0.0</ele><time>2026-04-29T12:56:20.076Z</time></trkpt><trkpt lat="37.2092066" lon="-0.9087926"><ele>0.0</ele><time>2026-04-29T12:56:21.077Z</time></trkpt><trkpt lat="37.2092666" lon="-0.9087086"><ele>0.0</ele><time>2026-04-29T12:56:22.077Z</time></trkpt><trkpt lat="37.2093206" lon="-0.9086238"><ele>0.0</ele><time>2026-04-29T12:56:23.076Z</time></trkpt><trkpt lat="37.2094371" lon="-0.9084578"><ele>0.0</ele><time>2026-04-29T12:56:25.077Z</time></trkpt><trkpt lat="37.2095046" lon="-0.9083781"><ele>0.0</ele><time>2026-04-29T12:56:26.076Z</time></trkpt><trkpt lat="37.2095648" lon="-0.9082994"><ele>0.0</ele><time>2026-04-29T12:56:27.077Z</time></trkpt><trkpt lat="37.2096174" lon="-0.9082212"><ele>0.0</ele><time>2026-04-29T12:56:28.076Z</time></trkpt><trkpt lat="37.2096751" lon="-0.9081427"><ele>0.0</ele><time>2026-04-29T12:56:29.076Z</time></trkpt><trkpt lat="37.2097245" lon="-0.9080618"><ele>0.0</ele><time>2026-04-29T12:56:30.076Z</time></trkpt><trkpt lat="37.2097818" lon="-0.9079802"><ele>0.0</ele><time>2026-04-29T12:56:31.076Z</time></trkpt><trkpt lat="37.2098402" lon="-0.9079014"><ele>0.0</ele><time>2026-04-29T12:56:32.076Z</time></trkpt><trkpt lat="37.2098985" lon="-0.9078142"><ele>0.0</ele><time>2026-04-29T12:56:33.077Z</time></trkpt><trkpt lat="37.2099551" lon="-0.9077275"><ele>0.0</ele><time>2026-04-29T12:56:34.076Z</time></trkpt><trkpt lat="37.2100129" lon="-0.9076392"><ele>0.0</ele><time>2026-04-29T12:56:35.076Z</time></trkpt><trkpt lat="37.2100689" lon="-0.9075581"><ele>0.0</ele><time>2026-04-29T12:56:36.076Z</time></trkpt><trkpt lat="37.2101255" lon="-0.9074839"><ele>0.0</ele><time>2026-04-29T12:56:37.076Z</time></trkpt><trkpt lat="37.2101862" lon="-0.9074033"><ele>0.0</ele><time>2026-04-29T12:56:38.077Z</time></trkpt><trkpt lat="37.2102468" lon="-0.9073229"><ele>0.0</ele><time>2026-04-29T12:56:39.076Z</time></trkpt><trkpt lat="37.210305" lon="-0.9072417"><ele>0.0</ele><time>2026-04-29T12:56:40.076Z</time></trkpt><trkpt lat="37.210359" lon="-0.9071611"><ele>0.0</ele><time>2026-04-29T12:56:41.076Z</time></trkpt><trkpt lat="37.2104169" lon="-0.9070784"><ele>0.0</ele><time>2026-04-29T12:56:42.077Z</time></trkpt><trkpt lat="37.2104795" lon="-0.9070011"><ele>0.0</ele><time>2026-04-29T12:56:43.076Z</time></trkpt><trkpt lat="37.2105385" lon="-0.9069215"><ele>0.0</ele><time>2026-04-29T12:56:44.076Z</time></trkpt><trkpt lat="37.2106627" lon="-0.9067585"><ele>0.0</ele><time>2026-04-29T12:56:46.077Z</time></trkpt><trkpt lat="37.2107289" lon="-0.9066726"><ele>0.0</ele><time>2026-04-29T12:56:47.076Z</time></trkpt><trkpt lat="37.2107872" lon="-0.9065989"><ele>0.0</ele><time>2026-04-29T12:56:48.076Z</time></trkpt><trkpt lat="37.2108438" lon="-0.9065256"><ele>0.0</ele><time>2026-04-29T12:56:49.076Z</time></trkpt><trkpt lat="37.2109034" lon="-0.9064566"><ele>0.0</ele><time>2026-04-29T12:56:50.076Z</time></trkpt><trkpt lat="37.2109621" lon="-0.9063781"><ele>0.0</ele><time>2026-04-29T12:56:51.077Z</time></trkpt><trkpt lat="37.2110196" lon="-0.9062923"><ele>0.0</ele><time>2026-04-29T12:56:52.076Z</time></trkpt><trkpt lat="37.2110782" lon="-0.906207"><ele>0.0</ele><time>2026-04-29T12:56:53.077Z</time></trkpt><trkpt lat="37.2111383" lon="-0.9061251"><ele>0.0</ele><time>2026-04-29T12:56:54.076Z</time></trkpt><trkpt lat="37.2111996" lon="-0.9060423"><ele>0.0</ele><time>2026-04-29T12:56:55.076Z</time></trkpt><trkpt lat="37.211257" lon="-0.90596"><ele>0.0</ele><time>2026-04-29T12:56:56.076Z</time></trkpt><trkpt lat="37.2113093" lon="-0.9058813"><ele>0.0</ele><time>2026-04-29T12:56:57.077Z</time></trkpt><trkpt lat="37.2113638" lon="-0.9058016"><ele>0.0</ele><time>2026-04-29T12:56:58.077Z</time></trkpt><trkpt lat="37.2114233" lon="-0.9057127"><ele>0.0</ele><time>2026-04-29T12:56:59.077Z</time></trkpt><trkpt lat="37.2114833" lon="-0.9056271"><ele>0.0</ele><time>2026-04-29T12:57:00.077Z</time></trkpt><trkpt lat="37.2115372" lon="-0.9055436"><ele>0.0</ele><time>2026-04-29T12:57:01.077Z</time></trkpt><trkpt lat="37.2115936" lon="-0.9054646"><ele>0.0</ele><time>2026-04-29T12:57:02.076Z</time></trkpt><trkpt lat="37.2116532" lon="-0.9053822"><ele>0.0</ele><time>2026-04-29T12:57:03.076Z</time></trkpt><trkpt lat="37.2117149" lon="-0.9053032"><ele>0.0</ele><time>2026-04-29T12:57:04.077Z</time></trkpt><trkpt lat="37.2117688" lon="-0.9052164"><ele>0.0</ele><time>2026-04-29T12:57:05.077Z</time></trkpt><trkpt lat="37.2118716" lon="-0.9050504"><ele>0.0</ele><time>2026-04-29T12:57:07.076Z</time></trkpt><trkpt lat="37.2119272" lon="-0.904967"><ele>0.0</ele><time>2026-04-29T12:57:08.076Z</time></trkpt><trkpt lat="37.2119876" lon="-0.9048888"><ele>0.0</ele><time>2026-04-29T12:57:09.077Z</time></trkpt><trkpt lat="37.2120394" lon="-0.9048135"><ele>0.0</ele><time>2026-04-29T12:57:10.077Z</time></trkpt><trkpt lat="37.2120997" lon="-0.9047401"><ele>0.0</ele><time>2026-04-29T12:57:11.076Z</time></trkpt><trkpt lat="37.2121568" lon="-0.9046614"><ele>0.0</ele><time>2026-04-29T12:57:12.076Z</time></trkpt><trkpt lat="37.2122148" lon="-0.9045789"><ele>0.0</ele><time>2026-04-29T12:57:13.077Z</time></trkpt><trkpt lat="37.2122746" lon="-0.9044928"><ele>0.0</ele><time>2026-04-29T12:57:14.077Z</time></trkpt><trkpt lat="37.2123321" lon="-0.9044113"><ele>0.0</ele><time>2026-04-29T12:57:15.076Z</time></trkpt><trkpt lat="37.2123959" lon="-0.904327"><ele>0.0</ele><time>2026-04-29T12:57:16.076Z</time></trkpt><trkpt lat="37.2124563" lon="-0.9042452"><ele>0.0</ele><time>2026-04-29T12:57:17.077Z</time></trkpt><trkpt lat="37.212518" lon="-0.9041621"><ele>0.0</ele><time>2026-04-29T12:57:18.077Z</time></trkpt><trkpt lat="37.2125711" lon="-0.9040861"><ele>0.0</ele><time>2026-04-29T12:57:19.076Z</time></trkpt><trkpt lat="37.2126256" lon="-0.9040036"><ele>0.0</ele><time>2026-04-29T12:57:20.076Z</time></trkpt><trkpt lat="37.2126865" lon="-0.9039204"><ele>0.0</ele><time>2026-04-29T12:57:21.077Z</time></trkpt><trkpt lat="37.2127478" lon="-0.9038357"><ele>0.0</ele><time>2026-04-29T12:57:22.076Z</time></trkpt><trkpt lat="37.2128126" lon="-0.9037463"><ele>0.0</ele><time>2026-04-29T12:57:23.076Z</time></trkpt><trkpt lat="37.2128698" lon="-0.9036637"><ele>0.0</ele><time>2026-04-29T12:57:24.077Z</time></trkpt><trkpt lat="37.2129329" lon="-0.903582"><ele>0.0</ele><time>2026-04-29T12:57:25.076Z</time></trkpt><trkpt lat="37.2129963" lon="-0.9034986"><ele>0.0</ele><time>2026-04-29T12:57:26.077Z</time></trkpt><trkpt lat="37.2131182" lon="-0.9033502"><ele>0.0</ele><time>2026-04-29T12:57:28.076Z</time></trkpt><trkpt lat="37.213178" lon="-0.9032713"><ele>0.0</ele><time>2026-04-29T12:57:29.076Z</time></trkpt><trkpt lat="37.2132367" lon="-0.9031885"><ele>0.0</ele><time>2026-04-29T12:57:30.077Z</time></trkpt><trkpt lat="37.2132966" lon="-0.903107"><ele>0.0</ele><time>2026-04-29T12:57:31.076Z</time></trkpt><trkpt lat="37.2133552" lon="-0.9030271"><ele>0.0</ele><time>2026-04-29T12:57:32.077Z</time></trkpt><trkpt lat="37.2134079" lon="-0.9029467"><ele>0.0</ele><time>2026-04-29T12:57:33.077Z</time></trkpt><trkpt lat="37.2134611" lon="-0.9028607"><ele>0.0</ele><time>2026-04-29T12:57:34.077Z</time></trkpt><trkpt lat="37.2135213" lon="-0.9027781"><ele>0.0</ele><time>2026-04-29T12:57:35.076Z</time></trkpt><trkpt lat="37.2135755" lon="-0.9026952"><ele>0.0</ele><time>2026-04-29T12:57:36.077Z</time></trkpt><trkpt lat="37.2136263" lon="-0.9026154"><ele>0.0</ele><time>2026-04-29T12:57:37.076Z</time></trkpt><trkpt lat="37.2136808" lon="-0.9025309"><ele>0.0</ele><time>2026-04-29T12:57:38.077Z</time></trkpt><trkpt lat="37.2137398" lon="-0.9024514"><ele>0.0</ele><time>2026-04-29T12:57:39.077Z</time></trkpt><trkpt lat="37.2137966" lon="-0.9023771"><ele>0.0</ele><time>2026-04-29T12:57:40.076Z</time></trkpt><trkpt lat="37.213858" lon="-0.9022957"><ele>0.0</ele><time>2026-04-29T12:57:41.076Z</time></trkpt><trkpt lat="37.2139168" lon="-0.902212"><ele>0.0</ele><time>2026-04-29T12:57:42.076Z</time></trkpt><trkpt lat="37.2139794" lon="-0.9021276"><ele>0.0</ele><time>2026-04-29T12:57:43.076Z</time></trkpt><trkpt lat="37.2140468" lon="-0.9020427"><ele>0.0</ele><time>2026-04-29T12:57:44.076Z</time></trkpt><trkpt lat="37.2141082" lon="-0.9019605"><ele>0.0</ele><time>2026-04-29T12:57:45.076Z</time></trkpt><trkpt lat="37.2141682" lon="-0.9018769"><ele>0.0</ele><time>2026-04-29T12:57:46.077Z</time></trkpt><trkpt lat="37.2142267" lon="-0.9017927"><ele>0.0</ele><time>2026-04-29T12:57:47.076Z</time></trkpt><trkpt lat="37.2143391" lon="-0.9016253"><ele>0.0</ele><time>2026-04-29T12:57:49.076Z</time></trkpt><trkpt lat="37.2143953" lon="-0.901545"><ele>0.0</ele><time>2026-04-29T12:57:50.076Z</time></trkpt><trkpt lat="37.2144534" lon="-0.9014633"><ele>0.0</ele><time>2026-04-29T12:57:51.077Z</time></trkpt><trkpt lat="37.2145113" lon="-0.9013861"><ele>0.0</ele><time>2026-04-29T12:57:52.077Z</time></trkpt><trkpt lat="37.2145783" lon="-0.9013065"><ele>0.0</ele><time>2026-04-29T12:57:53.077Z</time></trkpt><trkpt lat="37.2146369" lon="-0.9012209"><ele>0.0</ele><time>2026-04-29T12:57:54.076Z</time></trkpt><trkpt lat="37.2146949" lon="-0.9011388"><ele>0.0</ele><time>2026-04-29T12:57:55.077Z</time></trkpt><trkpt lat="37.2147576" lon="-0.9010599"><ele>0.0</ele><time>2026-04-29T12:57:56.077Z</time></trkpt><trkpt lat="37.2148234" lon="-0.9009796"><ele>0.0</ele><time>2026-04-29T12:57:57.077Z</time></trkpt><trkpt lat="37.2148818" lon="-0.9009028"><ele>0.0</ele><time>2026-04-29T12:57:58.077Z</time></trkpt><trkpt lat="37.2149415" lon="-0.9008191"><ele>0.0</ele><time>2026-04-29T12:57:59.077Z</time></trkpt><trkpt lat="37.2150015" lon="-0.9007325"><ele>0.0</ele><time>2026-04-29T12:58:00.077Z</time></trkpt><trkpt lat="37.2150529" lon="-0.9006573"><ele>0.0</ele><time>2026-04-29T12:58:01.077Z</time></trkpt><trkpt lat="37.2151059" lon="-0.9005798"><ele>0.0</ele><time>2026-04-29T12:58:02.076Z</time></trkpt><trkpt lat="37.2151577" lon="-0.9005043"><ele>0.0</ele><time>2026-04-29T12:58:03.076Z</time></trkpt><trkpt lat="37.2152125" lon="-0.9004207"><ele>0.0</ele><time>2026-04-29T12:58:04.076Z</time></trkpt><trkpt lat="37.2152718" lon="-0.9003415"><ele>0.0</ele><time>2026-04-29T12:58:05.076Z</time></trkpt><trkpt lat="37.215333" lon="-0.9002545"><ele>0.0</ele><time>2026-04-29T12:58:06.077Z</time></trkpt><trkpt lat="37.2153932" lon="-0.9001734"><ele>0.0</ele><time>2026-04-29T12:58:07.077Z</time></trkpt><trkpt lat="37.2154487" lon="-0.9000961"><ele>0.0</ele><time>2026-04-29T12:58:08.077Z</time></trkpt><trkpt lat="37.2155726" lon="-0.8999351"><ele>0.0</ele><time>2026-04-29T12:58:10.077Z</time></trkpt><trkpt lat="37.2156318" lon="-0.8998564"><ele>0.0</ele><time>2026-04-29T12:58:11.077Z</time></trkpt><trkpt lat="37.2156916" lon="-0.8997738"><ele>0.0</ele><time>2026-04-29T12:58:12.076Z</time></trkpt><trkpt lat="37.2157503" lon="-0.8996918"><ele>0.0</ele><time>2026-04-29T12:58:13.076Z</time></trkpt><trkpt lat="37.2158114" lon="-0.8996127"><ele>0.0</ele><time>2026-04-29T12:58:14.077Z</time></trkpt><trkpt lat="37.2158697" lon="-0.8995319"><ele>0.0</ele><time>2026-04-29T12:58:15.076Z</time></trkpt><trkpt lat="37.2159284" lon="-0.8994485"><ele>0.0</ele><time>2026-04-29T12:58:16.076Z</time></trkpt><trkpt lat="37.2159881" lon="-0.8993652"><ele>0.0</ele><time>2026-04-29T12:58:17.077Z</time></trkpt><trkpt lat="37.2160479" lon="-0.8992822"><ele>0.0</ele><time>2026-04-29T12:58:18.077Z</time></trkpt><trkpt lat="37.2161105" lon="-0.8991974"><ele>0.0</ele><time>2026-04-29T12:58:19.077Z</time></trkpt><trkpt lat="37.2161715" lon="-0.8991167"><ele>0.0</ele><time>2026-04-29T12:58:20.077Z</time></trkpt><trkpt lat="37.2162327" lon="-0.899038"><ele>0.0</ele><time>2026-04-29T12:58:21.076Z</time></trkpt><trkpt lat="37.2162994" lon="-0.8989658"><ele>0.0</ele><time>2026-04-29T12:58:22.076Z</time></trkpt><trkpt lat="37.216366" lon="-0.8988881"><ele>0.0</ele><time>2026-04-29T12:58:23.076Z</time></trkpt><trkpt lat="37.2164296" lon="-0.8988111"><ele>0.0</ele><time>2026-04-29T12:58:24.076Z</time></trkpt><trkpt lat="37.2164955" lon="-0.8987387"><ele>0.0</ele><time>2026-04-29T12:58:25.076Z</time></trkpt><trkpt lat="37.2165539" lon="-0.8986513"><ele>0.0</ele><time>2026-04-29T12:58:26.077Z</time></trkpt><trkpt lat="37.2166132" lon="-0.8985685"><ele>0.0</ele><time>2026-04-29T12:58:27.076Z</time></trkpt><trkpt lat="37.2166674" lon="-0.898491"><ele>0.0</ele><time>2026-04-29T12:58:28.076Z</time></trkpt><trkpt lat="37.2167141" lon="-0.8984017"><ele>0.0</ele><time>2026-04-29T12:58:29.077Z</time></trkpt><trkpt lat="37.2168137" lon="-0.8982261"><ele>0.0</ele><time>2026-04-29T12:58:31.076Z</time></trkpt><trkpt lat="37.2168718" lon="-0.8981453"><ele>0.0</ele><time>2026-04-29T12:58:32.076Z</time></trkpt><trkpt lat="37.2169287" lon="-0.8980662"><ele>0.0</ele><time>2026-04-29T12:58:33.077Z</time></trkpt><trkpt lat="37.2169864" lon="-0.8979836"><ele>0.0</ele><time>2026-04-29T12:58:34.076Z</time></trkpt><trkpt lat="37.2170522" lon="-0.8978991"><ele>0.0</ele><time>2026-04-29T12:58:35.076Z</time></trkpt><trkpt lat="37.2171174" lon="-0.8978182"><ele>0.0</ele><time>2026-04-29T12:58:36.076Z</time></trkpt><trkpt lat="37.2171839" lon="-0.8977526"><ele>0.0</ele><time>2026-04-29T12:58:37.076Z</time></trkpt><trkpt lat="37.2172465" lon="-0.8976789"><ele>0.0</ele><time>2026-04-29T12:58:38.077Z</time></trkpt><trkpt lat="37.2173064" lon="-0.8976067"><ele>0.0</ele><time>2026-04-29T12:58:39.077Z</time></trkpt><trkpt lat="37.2173736" lon="-0.897527"><ele>0.0</ele><time>2026-04-29T12:58:40.076Z</time></trkpt><trkpt lat="37.2174373" lon="-0.8974451"><ele>0.0</ele><time>2026-04-29T12:58:41.077Z</time></trkpt><trkpt lat="37.2175" lon="-0.8973652"><ele>0.0</ele><time>2026-04-29T12:58:42.076Z</time></trkpt><trkpt lat="37.2175575" lon="-0.8972868"><ele>0.0</ele><time>2026-04-29T12:58:43.076Z</time></trkpt><trkpt lat="37.2176115" lon="-0.8972126"><ele>0.0</ele><time>2026-04-29T12:58:44.076Z</time></trkpt><trkpt lat="37.2176688" lon="-0.8971322"><ele>0.0</ele><time>2026-04-29T12:58:45.077Z</time></trkpt><trkpt lat="37.2177327" lon="-0.8970477"><ele>0.0</ele><time>2026-04-29T12:58:46.077Z</time></trkpt><trkpt lat="37.2177959" lon="-0.896964"><ele>0.0</ele><time>2026-04-29T12:58:47.076Z</time></trkpt><trkpt lat="37.217848" lon="-0.8968877"><ele>0.0</ele><time>2026-04-29T12:58:48.076Z</time></trkpt><trkpt lat="37.2179039" lon="-0.8968069"><ele>0.0</ele><time>2026-04-29T12:58:49.077Z</time></trkpt><trkpt lat="37.2179577" lon="-0.8967253"><ele>0.0</ele><time>2026-04-29T12:58:50.077Z</time></trkpt><trkpt lat="37.2180715" lon="-0.8965605"><ele>0.0</ele><time>2026-04-29T12:58:52.076Z</time></trkpt><trkpt lat="37.2181342" lon="-0.8964771"><ele>0.0</ele><time>2026-04-29T12:58:53.076Z</time></trkpt><trkpt lat="37.2181864" lon="-0.8963911"><ele>0.0</ele><time>2026-04-29T12:58:54.076Z</time></trkpt><trkpt lat="37.2182448" lon="-0.8963073"><ele>0.0</ele><time>2026-04-29T12:58:55.076Z</time></trkpt><trkpt lat="37.2183116" lon="-0.8962211"><ele>0.0</ele><time>2026-04-29T12:58:56.076Z</time></trkpt><trkpt lat="37.2183845" lon="-0.8961399"><ele>0.0</ele><time>2026-04-29T12:58:57.076Z</time></trkpt><trkpt lat="37.2184476" lon="-0.8960628"><ele>0.0</ele><time>2026-04-29T12:58:58.076Z</time></trkpt><trkpt lat="37.2185083" lon="-0.8959795"><ele>0.0</ele><time>2026-04-29T12:58:59.076Z</time></trkpt><trkpt lat="37.2185697" lon="-0.8959003"><ele>0.0</ele><time>2026-04-29T12:59:00.076Z</time></trkpt><trkpt lat="37.2186245" lon="-0.8958228"><ele>0.0</ele><time>2026-04-29T12:59:01.076Z</time></trkpt><trkpt lat="37.2186835" lon="-0.8957445"><ele>0.0</ele><time>2026-04-29T12:59:02.077Z</time></trkpt><trkpt lat="37.2187448" lon="-0.8956662"><ele>0.0</ele><time>2026-04-29T12:59:03.076Z</time></trkpt><trkpt lat="37.2187996" lon="-0.8955851"><ele>0.0</ele><time>2026-04-29T12:59:04.076Z</time></trkpt><trkpt lat="37.2188489" lon="-0.8955079"><ele>0.0</ele><time>2026-04-29T12:59:05.077Z</time></trkpt><trkpt lat="37.2188983" lon="-0.8954341"><ele>0.0</ele><time>2026-04-29T12:59:06.077Z</time></trkpt><trkpt lat="37.2189582" lon="-0.8953538"><ele>0.0</ele><time>2026-04-29T12:59:07.076Z</time></trkpt><trkpt lat="37.2190181" lon="-0.8952689"><ele>0.0</ele><time>2026-04-29T12:59:08.076Z</time></trkpt><trkpt lat="37.2190739" lon="-0.8951885"><ele>0.0</ele><time>2026-04-29T12:59:09.076Z</time></trkpt><trkpt lat="37.2191321" lon="-0.8951039"><ele>0.0</ele><time>2026-04-29T12:59:10.076Z</time></trkpt><trkpt lat="37.2191917" lon="-0.8950192"><ele>0.0</ele><time>2026-04-29T12:59:11.076Z</time></trkpt><trkpt lat="37.2193031" lon="-0.8948543"><ele>0.0</ele><time>2026-04-29T12:59:13.076Z</time></trkpt><trkpt lat="37.2193578" lon="-0.8947705"><ele>0.0</ele><time>2026-04-29T12:59:14.076Z</time></trkpt><trkpt lat="37.2194099" lon="-0.8946917"><ele>0.0</ele><time>2026-04-29T12:59:15.076Z</time></trkpt><trkpt lat="37.2194685" lon="-0.8946088"><ele>0.0</ele><time>2026-04-29T12:59:16.076Z</time></trkpt><trkpt lat="37.2195299" lon="-0.8945225"><ele>0.0</ele><time>2026-04-29T12:59:17.076Z</time></trkpt><trkpt lat="37.2195884" lon="-0.8944372"><ele>0.0</ele><time>2026-04-29T12:59:18.076Z</time></trkpt><trkpt lat="37.2196411" lon="-0.8943466"><ele>0.0</ele><time>2026-04-29T12:59:19.077Z</time></trkpt><trkpt lat="37.2196973" lon="-0.894262"><ele>0.0</ele><time>2026-04-29T12:59:20.076Z</time></trkpt><trkpt lat="37.2197486" lon="-0.8941775"><ele>0.0</ele><time>2026-04-29T12:59:21.076Z</time></trkpt><trkpt lat="37.2198056" lon="-0.894097"><ele>0.0</ele><time>2026-04-29T12:59:22.076Z</time></trkpt><trkpt lat="37.2198624" lon="-0.8940179"><ele>0.0</ele><time>2026-04-29T12:59:23.077Z</time></trkpt><trkpt lat="37.2199175" lon="-0.8939297"><ele>0.0</ele><time>2026-04-29T12:59:24.076Z</time></trkpt><trkpt lat="37.2199736" lon="-0.8938471"><ele>0.0</ele><time>2026-04-29T12:59:25.076Z</time></trkpt><trkpt lat="37.220033" lon="-0.8937624"><ele>0.0</ele><time>2026-04-29T12:59:26.076Z</time></trkpt><trkpt lat="37.2200944" lon="-0.8936802"><ele>0.0</ele><time>2026-04-29T12:59:27.077Z</time></trkpt><trkpt lat="37.220159" lon="-0.8935969"><ele>0.0</ele><time>2026-04-29T12:59:28.076Z</time></trkpt><trkpt lat="37.2202156" lon="-0.893518"><ele>0.0</ele><time>2026-04-29T12:59:29.076Z</time></trkpt><trkpt lat="37.2202649" lon="-0.8934437"><ele>0.0</ele><time>2026-04-29T12:59:30.076Z</time></trkpt><trkpt lat="37.2203245" lon="-0.8933588"><ele>0.0</ele><time>2026-04-29T12:59:31.076Z</time></trkpt><trkpt lat="37.2203888" lon="-0.8932727"><ele>0.0</ele><time>2026-04-29T12:59:32.076Z</time></trkpt><trkpt lat="37.2205033" lon="-0.8931044"><ele>0.0</ele><time>2026-04-29T12:59:34.077Z</time></trkpt><trkpt lat="37.2205661" lon="-0.8930221"><ele>0.0</ele><time>2026-04-29T12:59:35.077Z</time></trkpt><trkpt lat="37.2206252" lon="-0.8929383"><ele>0.0</ele><time>2026-04-29T12:59:36.076Z</time></trkpt><trkpt lat="37.2206779" lon="-0.8928551"><ele>0.0</ele><time>2026-04-29T12:59:37.076Z</time></trkpt><trkpt lat="37.2207336" lon="-0.8927718"><ele>0.0</ele><time>2026-04-29T12:59:38.077Z</time></trkpt><trkpt lat="37.2207928" lon="-0.8926943"><ele>0.0</ele><time>2026-04-29T12:59:39.077Z</time></trkpt><trkpt lat="37.2208499" lon="-0.8926118"><ele>0.0</ele><time>2026-04-29T12:59:40.076Z</time></trkpt><trkpt lat="37.2209067" lon="-0.8925243"><ele>0.0</ele><time>2026-04-29T12:59:41.076Z</time></trkpt><trkpt lat="37.2209605" lon="-0.8924344"><ele>0.0</ele><time>2026-04-29T12:59:42.076Z</time></trkpt><trkpt lat="37.2210169" lon="-0.892353"><ele>0.0</ele><time>2026-04-29T12:59:43.077Z</time></trkpt><trkpt lat="37.2210863" lon="-0.8922814"><ele>0.0</ele><time>2026-04-29T12:59:44.077Z</time></trkpt><trkpt lat="37.2211478" lon="-0.8921999"><ele>0.0</ele><time>2026-04-29T12:59:45.077Z</time></trkpt><trkpt lat="37.221208" lon="-0.8921182"><ele>0.0</ele><time>2026-04-29T12:59:46.077Z</time></trkpt><trkpt lat="37.2212666" lon="-0.8920307"><ele>0.0</ele><time>2026-04-29T12:59:47.076Z</time></trkpt><trkpt lat="37.2213291" lon="-0.8919468"><ele>0.0</ele><time>2026-04-29T12:59:48.076Z</time></trkpt><trkpt lat="37.2213873" lon="-0.8918596"><ele>0.0</ele><time>2026-04-29T12:59:49.077Z</time></trkpt><trkpt lat="37.2214419" lon="-0.8917799"><ele>0.0</ele><time>2026-04-29T12:59:50.076Z</time></trkpt><trkpt lat="37.2214998" lon="-0.8917028"><ele>0.0</ele><time>2026-04-29T12:59:51.077Z</time></trkpt><trkpt lat="37.221554" lon="-0.8916227"><ele>0.0</ele><time>2026-04-29T12:59:52.076Z</time></trkpt><trkpt lat="37.2216103" lon="-0.891546"><ele>0.0</ele><time>2026-04-29T12:59:53.076Z</time></trkpt><trkpt lat="37.2217287" lon="-0.891382"><ele>0.0</ele><time>2026-04-29T12:59:55.077Z</time></trkpt><trkpt lat="37.2217926" lon="-0.8913044"><ele>0.0</ele><time>2026-04-29T12:59:56.077Z</time></trkpt><trkpt lat="37.2218546" lon="-0.8912291"><ele>0.0</ele><time>2026-04-29T12:59:57.076Z</time></trkpt><trkpt lat="37.2219202" lon="-0.8911484"><ele>0.0</ele><time>2026-04-29T12:59:58.076Z</time></trkpt><trkpt lat="37.221984" lon="-0.8910706"><ele>0.0</ele><time>2026-04-29T12:59:59.076Z</time></trkpt><trkpt lat="37.2220502" lon="-0.8909914"><ele>0.0</ele><time>2026-04-29T13:00:00.076Z</time></trkpt><trkpt lat="37.2221156" lon="-0.8909074"><ele>0.0</ele><time>2026-04-29T13:00:01.075Z</time></trkpt><trkpt lat="37.2221793" lon="-0.8908309"><ele>0.0</ele><time>2026-04-29T13:00:02.076Z</time></trkpt><trkpt lat="37.2222385" lon="-0.8907532"><ele>0.0</ele><time>2026-04-29T13:00:03.075Z</time></trkpt><trkpt lat="37.2223084" lon="-0.8906822"><ele>0.0</ele><time>2026-04-29T13:00:04.076Z</time></trkpt><trkpt lat="37.2223745" lon="-0.8906022"><ele>0.0</ele><time>2026-04-29T13:00:05.075Z</time></trkpt><trkpt lat="37.2224323" lon="-0.8905205"><ele>0.0</ele><time>2026-04-29T13:00:06.075Z</time></trkpt><trkpt lat="37.2224904" lon="-0.8904318"><ele>0.0</ele><time>2026-04-29T13:00:07.076Z</time></trkpt><trkpt lat="37.2225471" lon="-0.8903476"><ele>0.0</ele><time>2026-04-29T13:00:08.075Z</time></trkpt><trkpt lat="37.2226067" lon="-0.8902643"><ele>0.0</ele><time>2026-04-29T13:00:09.076Z</time></trkpt><trkpt lat="37.2226592" lon="-0.8901774"><ele>0.0</ele><time>2026-04-29T13:00:10.076Z</time></trkpt><trkpt lat="37.2227156" lon="-0.8900897"><ele>0.0</ele><time>2026-04-29T13:00:11.075Z</time></trkpt><trkpt lat="37.2227695" lon="-0.8900041"><ele>0.0</ele><time>2026-04-29T13:00:12.076Z</time></trkpt><trkpt lat="37.2228235" lon="-0.8899192"><ele>0.0</ele><time>2026-04-29T13:00:13.075Z</time></trkpt><trkpt lat="37.2228814" lon="-0.8898339"><ele>0.0</ele><time>2026-04-29T13:00:14.075Z</time></trkpt><trkpt lat="37.2229973" lon="-0.8896786"><ele>0.0</ele><time>2026-04-29T13:00:16.075Z</time></trkpt><trkpt lat="37.2230606" lon="-0.8896079"><ele>0.0</ele><time>2026-04-29T13:00:17.075Z</time></trkpt><trkpt lat="37.2231196" lon="-0.8895354"><ele>0.0</ele><time>2026-04-29T13:00:18.076Z</time></trkpt><trkpt lat="37.2231842" lon="-0.8894564"><ele>0.0</ele><time>2026-04-29T13:00:19.076Z</time></trkpt><trkpt lat="37.2232436" lon="-0.8893753"><ele>0.0</ele><time>2026-04-29T13:00:20.075Z</time></trkpt><trkpt lat="37.2233022" lon="-0.8892993"><ele>0.0</ele><time>2026-04-29T13:00:21.076Z</time></trkpt><trkpt lat="37.2233633" lon="-0.8892215"><ele>0.0</ele><time>2026-04-29T13:00:22.075Z</time></trkpt><trkpt lat="37.2234268" lon="-0.8891374"><ele>0.0</ele><time>2026-04-29T13:00:23.075Z</time></trkpt><trkpt lat="37.2234881" lon="-0.8890609"><ele>0.0</ele><time>2026-04-29T13:00:24.075Z</time></trkpt><trkpt lat="37.22354" lon="-0.8889817"><ele>0.0</ele><time>2026-04-29T13:00:25.076Z</time></trkpt><trkpt lat="37.2236028" lon="-0.8889019"><ele>0.0</ele><time>2026-04-29T13:00:26.076Z</time></trkpt><trkpt lat="37.2236604" lon="-0.8888174"><ele>0.0</ele><time>2026-04-29T13:00:27.076Z</time></trkpt><trkpt lat="37.2237174" lon="-0.888734"><ele>0.0</ele><time>2026-04-29T13:00:28.075Z</time></trkpt><trkpt lat="37.223771" lon="-0.8886521"><ele>0.0</ele><time>2026-04-29T13:00:29.076Z</time></trkpt><trkpt lat="37.223826" lon="-0.8885645"><ele>0.0</ele><time>2026-04-29T13:00:30.076Z</time></trkpt><trkpt lat="37.2238821" lon="-0.8884833"><ele>0.0</ele><time>2026-04-29T13:00:31.075Z</time></trkpt><trkpt lat="37.2239476" lon="-0.8884005"><ele>0.0</ele><time>2026-04-29T13:00:32.075Z</time></trkpt><trkpt lat="37.2240113" lon="-0.8883228"><ele>0.0</ele><time>2026-04-29T13:00:33.076Z</time></trkpt><trkpt lat="37.2240731" lon="-0.8882445"><ele>0.0</ele><time>2026-04-29T13:00:34.076Z</time></trkpt><trkpt lat="37.2241345" lon="-0.8881708"><ele>0.0</ele><time>2026-04-29T13:00:35.076Z</time></trkpt><trkpt lat="37.2242437" lon="-0.8880073"><ele>0.0</ele><time>2026-04-29T13:00:37.076Z</time></trkpt><trkpt lat="37.2243005" lon="-0.8879296"><ele>0.0</ele><time>2026-04-29T13:00:38.076Z</time></trkpt><trkpt lat="37.2243628" lon="-0.8878526"><ele>0.0</ele><time>2026-04-29T13:00:39.075Z</time></trkpt><trkpt lat="37.2244244" lon="-0.8877716"><ele>0.0</ele><time>2026-04-29T13:00:40.075Z</time></trkpt><trkpt lat="37.2244831" lon="-0.8876874"><ele>0.0</ele><time>2026-04-29T13:00:41.076Z</time></trkpt><trkpt lat="37.2245417" lon="-0.8876098"><ele>0.0</ele><time>2026-04-29T13:00:42.075Z</time></trkpt><trkpt lat="37.2246028" lon="-0.8875312"><ele>0.0</ele><time>2026-04-29T13:00:43.075Z</time></trkpt><trkpt lat="37.2246684" lon="-0.8874601"><ele>0.0</ele><time>2026-04-29T13:00:44.075Z</time></trkpt><trkpt lat="37.2247398" lon="-0.8873815"><ele>0.0</ele><time>2026-04-29T13:00:45.076Z</time></trkpt><trkpt lat="37.2248028" lon="-0.8873005"><ele>0.0</ele><time>2026-04-29T13:00:46.075Z</time></trkpt><trkpt lat="37.2248672" lon="-0.8872175"><ele>0.0</ele><time>2026-04-29T13:00:47.075Z</time></trkpt><trkpt lat="37.2249267" lon="-0.887134"><ele>0.0</ele><time>2026-04-29T13:00:48.075Z</time></trkpt><trkpt lat="37.224984" lon="-0.8870507"><ele>0.0</ele><time>2026-04-29T13:00:49.076Z</time></trkpt><trkpt lat="37.2250449" lon="-0.8869709"><ele>0.0</ele><time>2026-04-29T13:00:50.075Z</time></trkpt><trkpt lat="37.225108" lon="-0.8868929"><ele>0.0</ele><time>2026-04-29T13:00:51.075Z</time></trkpt><trkpt lat="37.2251643" lon="-0.8868119"><ele>0.0</ele><time>2026-04-29T13:00:52.076Z</time></trkpt><trkpt lat="37.2252163" lon="-0.8867331"><ele>0.0</ele><time>2026-04-29T13:00:53.075Z</time></trkpt><trkpt lat="37.2252708" lon="-0.8866563"><ele>0.0</ele><time>2026-04-29T13:00:54.075Z</time></trkpt><trkpt lat="37.2253273" lon="-0.8865794"><ele>0.0</ele><time>2026-04-29T13:00:55.076Z</time></trkpt><trkpt lat="37.2253876" lon="-0.8864972"><ele>0.0</ele><time>2026-04-29T13:00:56.075Z</time></trkpt><trkpt lat="37.2255138" lon="-0.8863276"><ele>0.0</ele><time>2026-04-29T13:00:58.076Z</time></trkpt><trkpt lat="37.2255734" lon="-0.8862509"><ele>0.0</ele><time>2026-04-29T13:00:59.075Z</time></trkpt><trkpt lat="37.2256304" lon="-0.8861702"><ele>0.0</ele><time>2026-04-29T13:01:00.076Z</time></trkpt><trkpt lat="37.2256897" lon="-0.88609"><ele>0.0</ele><time>2026-04-29T13:01:01.075Z</time></trkpt><trkpt lat="37.2257544" lon="-0.8860058"><ele>0.0</ele><time>2026-04-29T13:01:02.076Z</time></trkpt><trkpt lat="37.2258178" lon="-0.8859238"><ele>0.0</ele><time>2026-04-29T13:01:03.076Z</time></trkpt><trkpt lat="37.2258786" lon="-0.885838"><ele>0.0</ele><time>2026-04-29T13:01:04.075Z</time></trkpt><trkpt lat="37.2259402" lon="-0.8857641"><ele>0.0</ele><time>2026-04-29T13:01:05.075Z</time></trkpt><trkpt lat="37.2260104" lon="-0.885685"><ele>0.0</ele><time>2026-04-29T13:01:06.075Z</time></trkpt><trkpt lat="37.2260733" lon="-0.8856052"><ele>0.0</ele><time>2026-04-29T13:01:07.076Z</time></trkpt><trkpt lat="37.2261278" lon="-0.885521"><ele>0.0</ele><time>2026-04-29T13:01:08.076Z</time></trkpt><trkpt lat="37.2261798" lon="-0.8854362"><ele>0.0</ele><time>2026-04-29T13:01:09.075Z</time></trkpt><trkpt lat="37.2262371" lon="-0.885351"><ele>0.0</ele><time>2026-04-29T13:01:10.075Z</time></trkpt><trkpt lat="37.2262922" lon="-0.885264"><ele>0.0</ele><time>2026-04-29T13:01:11.076Z</time></trkpt><trkpt lat="37.2263473" lon="-0.8851831"><ele>0.0</ele><time>2026-04-29T13:01:12.076Z</time></trkpt><trkpt lat="37.2263964" lon="-0.8850974"><ele>0.0</ele><time>2026-04-29T13:01:13.075Z</time></trkpt><trkpt lat="37.2264547" lon="-0.8850155"><ele>0.0</ele><time>2026-04-29T13:01:14.076Z</time></trkpt><trkpt lat="37.2265163" lon="-0.884935"><ele>0.0</ele><time>2026-04-29T13:01:15.076Z</time></trkpt><trkpt lat="37.2265777" lon="-0.8848549"><ele>0.0</ele><time>2026-04-29T13:01:16.076Z</time></trkpt><trkpt lat="37.2266438" lon="-0.8847764"><ele>0.0</ele><time>2026-04-29T13:01:17.075Z</time></trkpt><trkpt lat="37.2267565" lon="-0.8846188"><ele>0.0</ele><time>2026-04-29T13:01:19.076Z</time></trkpt><trkpt lat="37.2268083" lon="-0.8845339"><ele>0.0</ele><time>2026-04-29T13:01:20.075Z</time></trkpt><trkpt lat="37.2268672" lon="-0.884452"><ele>0.0</ele><time>2026-04-29T13:01:21.076Z</time></trkpt><trkpt lat="37.2269309" lon="-0.8843746"><ele>0.0</ele><time>2026-04-29T13:01:22.075Z</time></trkpt><trkpt lat="37.2269888" lon="-0.8842961"><ele>0.0</ele><time>2026-04-29T13:01:23.075Z</time></trkpt><trkpt lat="37.2270517" lon="-0.884222"><ele>0.0</ele><time>2026-04-29T13:01:24.076Z</time></trkpt><trkpt lat="37.2271135" lon="-0.8841474"><ele>0.0</ele><time>2026-04-29T13:01:25.076Z</time></trkpt><trkpt lat="37.2271664" lon="-0.8840627"><ele>0.0</ele><time>2026-04-29T13:01:26.075Z</time></trkpt><trkpt lat="37.227221" lon="-0.8839747"><ele>0.0</ele><time>2026-04-29T13:01:27.076Z</time></trkpt><trkpt lat="37.227277" lon="-0.8838917"><ele>0.0</ele><time>2026-04-29T13:01:28.076Z</time></trkpt><trkpt lat="37.2273423" lon="-0.8838073"><ele>0.0</ele><time>2026-04-29T13:01:29.075Z</time></trkpt><trkpt lat="37.2274046" lon="-0.8837242"><ele>0.0</ele><time>2026-04-29T13:01:30.075Z</time></trkpt><trkpt lat="37.2274666" lon="-0.8836435"><ele>0.0</ele><time>2026-04-29T13:01:31.076Z</time></trkpt><trkpt lat="37.2275277" lon="-0.8835608"><ele>0.0</ele><time>2026-04-29T13:01:32.075Z</time></trkpt><trkpt lat="37.2275868" lon="-0.8834819"><ele>0.0</ele><time>2026-04-29T13:01:33.075Z</time></trkpt><trkpt lat="37.2276457" lon="-0.8834047"><ele>0.0</ele><time>2026-04-29T13:01:34.076Z</time></trkpt><trkpt lat="37.2277044" lon="-0.8833249"><ele>0.0</ele><time>2026-04-29T13:01:35.075Z</time></trkpt><trkpt lat="37.2277687" lon="-0.8832435"><ele>0.0</ele><time>2026-04-29T13:01:36.076Z</time></trkpt><trkpt lat="37.2278271" lon="-0.8831656"><ele>0.0</ele><time>2026-04-29T13:01:37.075Z</time></trkpt><trkpt lat="37.2278896" lon="-0.8830853"><ele>0.0</ele><time>2026-04-29T13:01:38.075Z</time></trkpt><trkpt lat="37.228015" lon="-0.8829335"><ele>0.0</ele><time>2026-04-29T13:01:40.076Z</time></trkpt><trkpt lat="37.2280767" lon="-0.8828492"><ele>0.0</ele><time>2026-04-29T13:01:41.075Z</time></trkpt><trkpt lat="37.2281371" lon="-0.88277"><ele>0.0</ele><time>2026-04-29T13:01:42.076Z</time></trkpt><trkpt lat="37.2281953" lon="-0.8826872"><ele>0.0</ele><time>2026-04-29T13:01:43.076Z</time></trkpt><trkpt lat="37.2282548" lon="-0.882604"><ele>0.0</ele><time>2026-04-29T13:01:44.075Z</time></trkpt><trkpt lat="37.2283109" lon="-0.8825292"><ele>0.0</ele><time>2026-04-29T13:01:45.075Z</time></trkpt><trkpt lat="37.2283617" lon="-0.882454"><ele>0.0</ele><time>2026-04-29T13:01:46.076Z</time></trkpt><trkpt lat="37.2284171" lon="-0.8823747"><ele>0.0</ele><time>2026-04-29T13:01:47.076Z</time></trkpt><trkpt lat="37.2284719" lon="-0.8822934"><ele>0.0</ele><time>2026-04-29T13:01:48.076Z</time></trkpt><trkpt lat="37.2285273" lon="-0.8822149"><ele>0.0</ele><time>2026-04-29T13:01:49.076Z</time></trkpt><trkpt lat="37.228588" lon="-0.8821276"><ele>0.0</ele><time>2026-04-29T13:01:50.075Z</time></trkpt><trkpt lat="37.2286436" lon="-0.8820407"><ele>0.0</ele><time>2026-04-29T13:01:51.075Z</time></trkpt><trkpt lat="37.2286989" lon="-0.8819584"><ele>0.0</ele><time>2026-04-29T13:01:52.076Z</time></trkpt><trkpt lat="37.2287598" lon="-0.8818769"><ele>0.0</ele><time>2026-04-29T13:01:53.076Z</time></trkpt><trkpt lat="37.2288173" lon="-0.881794"><ele>0.0</ele><time>2026-04-29T13:01:54.076Z</time></trkpt><trkpt lat="37.2288797" lon="-0.8817131"><ele>0.0</ele><time>2026-04-29T13:01:55.075Z</time></trkpt><trkpt lat="37.2289384" lon="-0.8816376"><ele>0.0</ele><time>2026-04-29T13:01:56.075Z</time></trkpt><trkpt lat="37.2289969" lon="-0.881561"><ele>0.0</ele><time>2026-04-29T13:01:57.076Z</time></trkpt><trkpt lat="37.2290711" lon="-0.8814843"><ele>0.0</ele><time>2026-04-29T13:01:58.075Z</time></trkpt><trkpt lat="37.2291408" lon="-0.8814061"><ele>0.0</ele><time>2026-04-29T13:01:59.076Z</time></trkpt><trkpt lat="37.2292602" lon="-0.8812423"><ele>0.0</ele><time>2026-04-29T13:02:01.076Z</time></trkpt><trkpt lat="37.2293113" lon="-0.8811616"><ele>0.0</ele><time>2026-04-29T13:02:02.075Z</time></trkpt><trkpt lat="37.2293669" lon="-0.8810861"><ele>0.0</ele><time>2026-04-29T13:02:03.075Z</time></trkpt><trkpt lat="37.2294253" lon="-0.8810035"><ele>0.0</ele><time>2026-04-29T13:02:04.076Z</time></trkpt><trkpt lat="37.2294876" lon="-0.8809217"><ele>0.0</ele><time>2026-04-29T13:02:05.076Z</time></trkpt><trkpt lat="37.2295439" lon="-0.8808473"><ele>0.0</ele><time>2026-04-29T13:02:06.076Z</time></trkpt><trkpt lat="37.2296063" lon="-0.8807697"><ele>0.0</ele><time>2026-04-29T13:02:07.075Z</time></trkpt><trkpt lat="37.229675" lon="-0.8806942"><ele>0.0</ele><time>2026-04-29T13:02:08.075Z</time></trkpt><trkpt lat="37.2297369" lon="-0.8806061"><ele>0.0</ele><time>2026-04-29T13:02:09.076Z</time></trkpt><trkpt lat="37.2298015" lon="-0.8805191"><ele>0.0</ele><time>2026-04-29T13:02:10.076Z</time></trkpt><trkpt lat="37.2298604" lon="-0.8804353"><ele>0.0</ele><time>2026-04-29T13:02:11.075Z</time></trkpt><trkpt lat="37.2299171" lon="-0.8803562"><ele>0.0</ele><time>2026-04-29T13:02:12.075Z</time></trkpt><trkpt lat="37.2299797" lon="-0.8802748"><ele>0.0</ele><time>2026-04-29T13:02:13.075Z</time></trkpt><trkpt lat="37.2300368" lon="-0.8801977"><ele>0.0</ele><time>2026-04-29T13:02:14.075Z</time></trkpt><trkpt lat="37.2300975" lon="-0.8801138"><ele>0.0</ele><time>2026-04-29T13:02:15.076Z</time></trkpt><trkpt lat="37.2301538" lon="-0.8800317"><ele>0.0</ele><time>2026-04-29T13:02:16.076Z</time></trkpt><trkpt lat="37.2302143" lon="-0.8799472"><ele>0.0</ele><time>2026-04-29T13:02:17.076Z</time></trkpt><trkpt lat="37.2302728" lon="-0.8798652"><ele>0.0</ele><time>2026-04-29T13:02:18.075Z</time></trkpt><trkpt lat="37.2303339" lon="-0.8797794"><ele>0.0</ele><time>2026-04-29T13:02:19.075Z</time></trkpt><trkpt lat="37.2303943" lon="-0.8796954"><ele>0.0</ele><time>2026-04-29T13:02:20.076Z</time></trkpt><trkpt lat="37.2305192" lon="-0.8795346"><ele>0.0</ele><time>2026-04-29T13:02:22.076Z</time></trkpt><trkpt lat="37.2305743" lon="-0.8794466"><ele>0.0</ele><time>2026-04-29T13:02:23.075Z</time></trkpt><trkpt lat="37.2306261" lon="-0.8793623"><ele>0.0</ele><time>2026-04-29T13:02:24.076Z</time></trkpt><trkpt lat="37.230679" lon="-0.8792776"><ele>0.0</ele><time>2026-04-29T13:02:25.075Z</time></trkpt><trkpt lat="37.2307453" lon="-0.8791951"><ele>0.0</ele><time>2026-04-29T13:02:26.076Z</time></trkpt><trkpt lat="37.230794" lon="-0.8791136"><ele>0.0</ele><time>2026-04-29T13:02:27.075Z</time></trkpt><trkpt lat="37.2308458" lon="-0.879029"><ele>0.0</ele><time>2026-04-29T13:02:28.076Z</time></trkpt><trkpt lat="37.230909" lon="-0.8789511"><ele>0.0</ele><time>2026-04-29T13:02:29.075Z</time></trkpt><trkpt lat="37.2309694" lon="-0.8788656"><ele>0.0</ele><time>2026-04-29T13:02:30.075Z</time></trkpt><trkpt lat="37.231028" lon="-0.8787851"><ele>0.0</ele><time>2026-04-29T13:02:31.075Z</time></trkpt><trkpt lat="37.231091" lon="-0.8787004"><ele>0.0</ele><time>2026-04-29T13:02:32.075Z</time></trkpt><trkpt lat="37.2311541" lon="-0.8786185"><ele>0.0</ele><time>2026-04-29T13:02:33.075Z</time></trkpt><trkpt lat="37.2312219" lon="-0.8785456"><ele>0.0</ele><time>2026-04-29T13:02:34.076Z</time></trkpt><trkpt lat="37.2312834" lon="-0.8784697"><ele>0.0</ele><time>2026-04-29T13:02:35.075Z</time></trkpt><trkpt lat="37.2313406" lon="-0.878394"><ele>0.0</ele><time>2026-04-29T13:02:36.075Z</time></trkpt><trkpt lat="37.2313958" lon="-0.8783191"><ele>0.0</ele><time>2026-04-29T13:02:37.075Z</time></trkpt><trkpt lat="37.2314525" lon="-0.8782442"><ele>0.0</ele><time>2026-04-29T13:02:38.076Z</time></trkpt><trkpt lat="37.2315103" lon="-0.8781662"><ele>0.0</ele><time>2026-04-29T13:02:39.075Z</time></trkpt><trkpt lat="37.2315682" lon="-0.8780852"><ele>0.0</ele><time>2026-04-29T13:02:40.075Z</time></trkpt><trkpt lat="37.2316303" lon="-0.8780064"><ele>0.0</ele><time>2026-04-29T13:02:41.076Z</time></trkpt><trkpt lat="37.2317531" lon="-0.8778437"><ele>0.0</ele><time>2026-04-29T13:02:43.075Z</time></trkpt><trkpt lat="37.2318133" lon="-0.8777665"><ele>0.0</ele><time>2026-04-29T13:02:44.076Z</time></trkpt><trkpt lat="37.2318718" lon="-0.8776914"><ele>0.0</ele><time>2026-04-29T13:02:45.075Z</time></trkpt><trkpt lat="37.2319347" lon="-0.8776106"><ele>0.0</ele><time>2026-04-29T13:02:46.075Z</time></trkpt><trkpt lat="37.2319963" lon="-0.8775301"><ele>0.0</ele><time>2026-04-29T13:02:47.075Z</time></trkpt><trkpt lat="37.2320552" lon="-0.8774531"><ele>0.0</ele><time>2026-04-29T13:02:48.075Z</time></trkpt><trkpt lat="37.2321151" lon="-0.8773734"><ele>0.0</ele><time>2026-04-29T13:02:49.075Z</time></trkpt><trkpt lat="37.2321787" lon="-0.8772893"><ele>0.0</ele><time>2026-04-29T13:02:50.076Z</time></trkpt><trkpt lat="37.2322409" lon="-0.8772014"><ele>0.0</ele><time>2026-04-29T13:02:51.076Z</time></trkpt><trkpt lat="37.2323" lon="-0.8771203"><ele>0.0</ele><time>2026-04-29T13:02:52.076Z</time></trkpt><trkpt lat="37.2323598" lon="-0.877036"><ele>0.0</ele><time>2026-04-29T13:02:53.075Z</time></trkpt><trkpt lat="37.2324173" lon="-0.8769535"><ele>0.0</ele><time>2026-04-29T13:02:54.075Z</time></trkpt><trkpt lat="37.2324797" lon="-0.8768706"><ele>0.0</ele><time>2026-04-29T13:02:55.076Z</time></trkpt><trkpt lat="37.2325371" lon="-0.8767872"><ele>0.0</ele><time>2026-04-29T13:02:56.076Z</time></trkpt><trkpt lat="37.2325954" lon="-0.876707"><ele>0.0</ele><time>2026-04-29T13:02:57.075Z</time></trkpt><trkpt lat="37.2326537" lon="-0.8766251"><ele>0.0</ele><time>2026-04-29T13:02:58.076Z</time></trkpt><trkpt lat="37.2327134" lon="-0.8765406"><ele>0.0</ele><time>2026-04-29T13:02:59.075Z</time></trkpt><trkpt lat="37.2327647" lon="-0.876454"><ele>0.0</ele><time>2026-04-29T13:03:00.076Z</time></trkpt><trkpt lat="37.232819" lon="-0.8763747"><ele>0.0</ele><time>2026-04-29T13:03:01.076Z</time></trkpt><trkpt lat="37.2328724" lon="-0.8762978"><ele>0.0</ele><time>2026-04-29T13:03:02.075Z</time></trkpt><trkpt lat="37.2329821" lon="-0.876135"><ele>0.0</ele><time>2026-04-29T13:03:04.075Z</time></trkpt><trkpt lat="37.2330358" lon="-0.876059"><ele>0.0</ele><time>2026-04-29T13:03:05.076Z</time></trkpt><trkpt lat="37.2330934" lon="-0.8759824"><ele>0.0</ele><time>2026-04-29T13:03:06.076Z</time></trkpt><trkpt lat="37.2331546" lon="-0.875899"><ele>0.0</ele><time>2026-04-29T13:03:07.075Z</time></trkpt><trkpt lat="37.2332147" lon="-0.8758168"><ele>0.0</ele><time>2026-04-29T13:03:08.076Z</time></trkpt><trkpt lat="37.2332722" lon="-0.8757351"><ele>0.0</ele><time>2026-04-29T13:03:09.075Z</time></trkpt><trkpt lat="37.2333269" lon="-0.8756507"><ele>0.0</ele><time>2026-04-29T13:03:10.075Z</time></trkpt><trkpt lat="37.2333877" lon="-0.8755654"><ele>0.0</ele><time>2026-04-29T13:03:11.076Z</time></trkpt><trkpt lat="37.2334451" lon="-0.8754803"><ele>0.0</ele><time>2026-04-29T13:03:12.075Z</time></trkpt><trkpt lat="37.2334964" lon="-0.8754025"><ele>0.0</ele><time>2026-04-29T13:03:13.076Z</time></trkpt><trkpt lat="37.2335519" lon="-0.8753234"><ele>0.0</ele><time>2026-04-29T13:03:14.076Z</time></trkpt><trkpt lat="37.2336115" lon="-0.8752407"><ele>0.0</ele><time>2026-04-29T13:03:15.075Z</time></trkpt><trkpt lat="37.2336687" lon="-0.8751601"><ele>0.0</ele><time>2026-04-29T13:03:16.075Z</time></trkpt><trkpt lat="37.2337238" lon="-0.8750743"><ele>0.0</ele><time>2026-04-29T13:03:17.075Z</time></trkpt><trkpt lat="37.23378" lon="-0.8749919"><ele>0.0</ele><time>2026-04-29T13:03:18.075Z</time></trkpt><trkpt lat="37.2338371" lon="-0.8749061"><ele>0.0</ele><time>2026-04-29T13:03:19.075Z</time></trkpt><trkpt lat="37.2338935" lon="-0.8748219"><ele>0.0</ele><time>2026-04-29T13:03:20.075Z</time></trkpt><trkpt lat="37.2339531" lon="-0.8747401"><ele>0.0</ele><time>2026-04-29T13:03:21.075Z</time></trkpt><trkpt lat="37.2340059" lon="-0.8746553"><ele>0.0</ele><time>2026-04-29T13:03:22.075Z</time></trkpt><trkpt lat="37.2340631" lon="-0.874572"><ele>0.0</ele><time>2026-04-29T13:03:23.075Z</time></trkpt><trkpt lat="37.2341814" lon="-0.8744217"><ele>0.0</ele><time>2026-04-29T13:03:25.075Z</time></trkpt><trkpt lat="37.2342416" lon="-0.8743429"><ele>0.0</ele><time>2026-04-29T13:03:26.075Z</time></trkpt><trkpt lat="37.2343029" lon="-0.8742601"><ele>0.0</ele><time>2026-04-29T13:03:27.075Z</time></trkpt><trkpt lat="37.234362" lon="-0.8741797"><ele>0.0</ele><time>2026-04-29T13:03:28.075Z</time></trkpt><trkpt lat="37.2344229" lon="-0.8740973"><ele>0.0</ele><time>2026-04-29T13:03:29.076Z</time></trkpt><trkpt lat="37.2344815" lon="-0.8740153"><ele>0.0</ele><time>2026-04-29T13:03:30.076Z</time></trkpt><trkpt lat="37.2345413" lon="-0.8739355"><ele>0.0</ele><time>2026-04-29T13:03:31.076Z</time></trkpt><trkpt lat="37.2346017" lon="-0.8738581"><ele>0.0</ele><time>2026-04-29T13:03:32.076Z</time></trkpt><trkpt lat="37.2346618" lon="-0.8737817"><ele>0.0</ele><time>2026-04-29T13:03:33.075Z</time></trkpt><trkpt lat="37.2347247" lon="-0.8737021"><ele>0.0</ele><time>2026-04-29T13:03:34.075Z</time></trkpt><trkpt lat="37.2347879" lon="-0.8736186"><ele>0.0</ele><time>2026-04-29T13:03:35.075Z</time></trkpt><trkpt lat="37.23485" lon="-0.8735411"><ele>0.0</ele><time>2026-04-29T13:03:36.075Z</time></trkpt><trkpt lat="37.2349087" lon="-0.8734677"><ele>0.0</ele><time>2026-04-29T13:03:37.076Z</time></trkpt><trkpt lat="37.2349669" lon="-0.8733886"><ele>0.0</ele><time>2026-04-29T13:03:38.076Z</time></trkpt><trkpt lat="37.235027" lon="-0.8733112"><ele>0.0</ele><time>2026-04-29T13:03:39.075Z</time></trkpt><trkpt lat="37.235087" lon="-0.8732348"><ele>0.0</ele><time>2026-04-29T13:03:40.075Z</time></trkpt><trkpt lat="37.2351482" lon="-0.8731524"><ele>0.0</ele><time>2026-04-29T13:03:41.076Z</time></trkpt><trkpt lat="37.2352056" lon="-0.8730691"><ele>0.0</ele><time>2026-04-29T13:03:42.076Z</time></trkpt><trkpt lat="37.2352634" lon="-0.872984"><ele>0.0</ele><time>2026-04-29T13:03:43.076Z</time></trkpt><trkpt lat="37.2353171" lon="-0.8729037"><ele>0.0</ele><time>2026-04-29T13:03:44.076Z</time></trkpt><trkpt lat="37.235447" lon="-0.872731"><ele>0.0</ele><time>2026-04-29T13:03:46.076Z</time></trkpt><trkpt lat="37.2355096" lon="-0.8726612"><ele>0.0</ele><time>2026-04-29T13:03:47.075Z</time></trkpt><trkpt lat="37.2355754" lon="-0.8725873"><ele>0.0</ele><time>2026-04-29T13:03:48.075Z</time></trkpt><trkpt lat="37.2356351" lon="-0.8725056"><ele>0.0</ele><time>2026-04-29T13:03:49.075Z</time></trkpt><trkpt lat="37.2356921" lon="-0.8724252"><ele>0.0</ele><time>2026-04-29T13:03:50.076Z</time></trkpt><trkpt lat="37.2357559" lon="-0.8723436"><ele>0.0</ele><time>2026-04-29T13:03:51.076Z</time></trkpt><trkpt lat="37.2358108" lon="-0.872262"><ele>0.0</ele><time>2026-04-29T13:03:52.075Z</time></trkpt><trkpt lat="37.2358673" lon="-0.8721877"><ele>0.0</ele><time>2026-04-29T13:03:53.075Z</time></trkpt><trkpt lat="37.2359281" lon="-0.8721058"><ele>0.0</ele><time>2026-04-29T13:03:54.075Z</time></trkpt><trkpt lat="37.2359867" lon="-0.8720239"><ele>0.0</ele><time>2026-04-29T13:03:55.075Z</time></trkpt><trkpt lat="37.2360408" lon="-0.8719435"><ele>0.0</ele><time>2026-04-29T13:03:56.076Z</time></trkpt><trkpt lat="37.2360944" lon="-0.8718559"><ele>0.0</ele><time>2026-04-29T13:03:57.076Z</time></trkpt><trkpt lat="37.2361446" lon="-0.8717681"><ele>0.0</ele><time>2026-04-29T13:03:58.075Z</time></trkpt><trkpt lat="37.236202" lon="-0.8716824"><ele>0.0</ele><time>2026-04-29T13:03:59.076Z</time></trkpt><trkpt lat="37.2362584" lon="-0.871599"><ele>0.0</ele><time>2026-04-29T13:04:00.076Z</time></trkpt><trkpt lat="37.2363177" lon="-0.8715183"><ele>0.0</ele><time>2026-04-29T13:04:01.075Z</time></trkpt><trkpt lat="37.2363819" lon="-0.8714423"><ele>0.0</ele><time>2026-04-29T13:04:02.075Z</time></trkpt><trkpt lat="37.2364414" lon="-0.8713677"><ele>0.0</ele><time>2026-04-29T13:04:03.075Z</time></trkpt><trkpt lat="37.2365015" lon="-0.8712916"><ele>0.0</ele><time>2026-04-29T13:04:04.076Z</time></trkpt><trkpt lat="37.2365606" lon="-0.8712147"><ele>0.0</ele><time>2026-04-29T13:04:05.075Z</time></trkpt><trkpt lat="37.2366753" lon="-0.8710616"><ele>0.0</ele><time>2026-04-29T13:04:07.075Z</time></trkpt><trkpt lat="37.2367367" lon="-0.8709793"><ele>0.0</ele><time>2026-04-29T13:04:08.075Z</time></trkpt><trkpt lat="37.2367934" lon="-0.8708943"><ele>0.0</ele><time>2026-04-29T13:04:09.075Z</time></trkpt><trkpt lat="37.2368518" lon="-0.8708135"><ele>0.0</ele><time>2026-04-29T13:04:10.075Z</time></trkpt><trkpt lat="37.2369061" lon="-0.870735"><ele>0.0</ele><time>2026-04-29T13:04:11.075Z</time></trkpt><trkpt lat="37.2369665" lon="-0.870654"><ele>0.0</ele><time>2026-04-29T13:04:12.075Z</time></trkpt><trkpt lat="37.237025" lon="-0.8705723"><ele>0.0</ele><time>2026-04-29T13:04:13.076Z</time></trkpt><trkpt lat="37.2370821" lon="-0.8704936"><ele>0.0</ele><time>2026-04-29T13:04:14.075Z</time></trkpt><trkpt lat="37.2371444" lon="-0.8704106"><ele>0.0</ele><time>2026-04-29T13:04:15.075Z</time></trkpt><trkpt lat="37.2372036" lon="-0.8703274"><ele>0.0</ele><time>2026-04-29T13:04:16.075Z</time></trkpt><trkpt lat="37.2372619" lon="-0.8702468"><ele>0.0</ele><time>2026-04-29T13:04:17.076Z</time></trkpt><trkpt lat="37.2373227" lon="-0.8701681"><ele>0.0</ele><time>2026-04-29T13:04:18.075Z</time></trkpt><trkpt lat="37.237383" lon="-0.8700871"><ele>0.0</ele><time>2026-04-29T13:04:19.075Z</time></trkpt><trkpt lat="37.2374433" lon="-0.8700051"><ele>0.0</ele><time>2026-04-29T13:04:20.076Z</time></trkpt><trkpt lat="37.2375047" lon="-0.8699264"><ele>0.0</ele><time>2026-04-29T13:04:21.075Z</time></trkpt><trkpt lat="37.2375646" lon="-0.869848"><ele>0.0</ele><time>2026-04-29T13:04:22.075Z</time></trkpt><trkpt lat="37.2376233" lon="-0.8697666"><ele>0.0</ele><time>2026-04-29T13:04:23.075Z</time></trkpt><trkpt lat="37.2376818" lon="-0.8696825"><ele>0.0</ele><time>2026-04-29T13:04:24.076Z</time></trkpt><trkpt lat="37.2377472" lon="-0.8696032"><ele>0.0</ele><time>2026-04-29T13:04:25.076Z</time></trkpt><trkpt lat="37.2378066" lon="-0.869522"><ele>0.0</ele><time>2026-04-29T13:04:26.075Z</time></trkpt><trkpt lat="37.2379225" lon="-0.869357"><ele>0.0</ele><time>2026-04-29T13:04:28.076Z</time></trkpt><trkpt lat="37.2379844" lon="-0.8692712"><ele>0.0</ele><time>2026-04-29T13:04:29.075Z</time></trkpt><trkpt lat="37.2380435" lon="-0.8691915"><ele>0.0</ele><time>2026-04-29T13:04:30.076Z</time></trkpt><trkpt lat="37.238102" lon="-0.8691157"><ele>0.0</ele><time>2026-04-29T13:04:31.076Z</time></trkpt><trkpt lat="37.2381658" lon="-0.8690367"><ele>0.0</ele><time>2026-04-29T13:04:32.075Z</time></trkpt><trkpt lat="37.2382323" lon="-0.8689571"><ele>0.0</ele><time>2026-04-29T13:04:33.076Z</time></trkpt><trkpt lat="37.2382904" lon="-0.8688784"><ele>0.0</ele><time>2026-04-29T13:04:34.075Z</time></trkpt><trkpt lat="37.238356" lon="-0.8688015"><ele>0.0</ele><time>2026-04-29T13:04:35.076Z</time></trkpt><trkpt lat="37.2384109" lon="-0.868723"><ele>0.0</ele><time>2026-04-29T13:04:36.076Z</time></trkpt><trkpt lat="37.2384673" lon="-0.8686465"><ele>0.0</ele><time>2026-04-29T13:04:37.075Z</time></trkpt><trkpt lat="37.2385255" lon="-0.8685682"><ele>0.0</ele><time>2026-04-29T13:04:38.076Z</time></trkpt><trkpt lat="37.2385896" lon="-0.8684859"><ele>0.0</ele><time>2026-04-29T13:04:39.076Z</time></trkpt><trkpt lat="37.2386486" lon="-0.8684067"><ele>0.0</ele><time>2026-04-29T13:04:40.075Z</time></trkpt><trkpt lat="37.2387083" lon="-0.8683271"><ele>0.0</ele><time>2026-04-29T13:04:41.076Z</time></trkpt><trkpt lat="37.238768" lon="-0.8682441"><ele>0.0</ele><time>2026-04-29T13:04:42.076Z</time></trkpt><trkpt lat="37.2388224" lon="-0.8681707"><ele>0.0</ele><time>2026-04-29T13:04:43.076Z</time></trkpt><trkpt lat="37.2388859" lon="-0.8680943"><ele>0.0</ele><time>2026-04-29T13:04:44.076Z</time></trkpt><trkpt lat="37.2389447" lon="-0.8680122"><ele>0.0</ele><time>2026-04-29T13:04:45.075Z</time></trkpt><trkpt lat="37.2390032" lon="-0.8679274"><ele>0.0</ele><time>2026-04-29T13:04:46.075Z</time></trkpt><trkpt lat="37.239062" lon="-0.867847"><ele>0.0</ele><time>2026-04-29T13:04:47.076Z</time></trkpt><trkpt lat="37.2391691" lon="-0.8676914"><ele>0.0</ele><time>2026-04-29T13:04:49.075Z</time></trkpt><trkpt lat="37.2392283" lon="-0.8676087"><ele>0.0</ele><time>2026-04-29T13:04:50.076Z</time></trkpt><trkpt lat="37.2392865" lon="-0.8675239"><ele>0.0</ele><time>2026-04-29T13:04:51.076Z</time></trkpt><trkpt lat="37.2393477" lon="-0.8674394"><ele>0.0</ele><time>2026-04-29T13:04:52.076Z</time></trkpt><trkpt lat="37.2394093" lon="-0.8673606"><ele>0.0</ele><time>2026-04-29T13:04:53.075Z</time></trkpt><trkpt lat="37.2394682" lon="-0.8672785"><ele>0.0</ele><time>2026-04-29T13:04:54.075Z</time></trkpt><trkpt lat="37.2395281" lon="-0.8671971"><ele>0.0</ele><time>2026-04-29T13:04:55.076Z</time></trkpt><trkpt lat="37.2395807" lon="-0.8671183"><ele>0.0</ele><time>2026-04-29T13:04:56.075Z</time></trkpt><trkpt lat="37.2396402" lon="-0.8670381"><ele>0.0</ele><time>2026-04-29T13:04:57.076Z</time></trkpt><trkpt lat="37.239693" lon="-0.8669614"><ele>0.0</ele><time>2026-04-29T13:04:58.075Z</time></trkpt><trkpt lat="37.2397463" lon="-0.8668857"><ele>0.0</ele><time>2026-04-29T13:04:59.075Z</time></trkpt><trkpt lat="37.239798" lon="-0.8668006"><ele>0.0</ele><time>2026-04-29T13:05:00.075Z</time></trkpt><trkpt lat="37.2398496" lon="-0.8667226"><ele>0.0</ele><time>2026-04-29T13:05:01.076Z</time></trkpt><trkpt lat="37.2399038" lon="-0.8666401"><ele>0.0</ele><time>2026-04-29T13:05:02.075Z</time></trkpt><trkpt lat="37.2399615" lon="-0.8665573"><ele>0.0</ele><time>2026-04-29T13:05:03.076Z</time></trkpt><trkpt lat="37.2400169" lon="-0.8664756"><ele>0.0</ele><time>2026-04-29T13:05:04.076Z</time></trkpt><trkpt lat="37.2400734" lon="-0.8663905"><ele>0.0</ele><time>2026-04-29T13:05:05.075Z</time></trkpt><trkpt lat="37.2401262" lon="-0.8663128"><ele>0.0</ele><time>2026-04-29T13:05:06.076Z</time></trkpt><trkpt lat="37.2401761" lon="-0.8662289"><ele>0.0</ele><time>2026-04-29T13:05:07.075Z</time></trkpt><trkpt lat="37.2402263" lon="-0.8661437"><ele>0.0</ele><time>2026-04-29T13:05:08.075Z</time></trkpt><trkpt lat="37.2403454" lon="-0.8659827"><ele>0.0</ele><time>2026-04-29T13:05:10.074Z</time></trkpt><trkpt lat="37.2404048" lon="-0.8659006"><ele>0.0</ele><time>2026-04-29T13:05:11.074Z</time></trkpt><trkpt lat="37.2404649" lon="-0.8658216"><ele>0.0</ele><time>2026-04-29T13:05:12.075Z</time></trkpt><trkpt lat="37.2405248" lon="-0.8657376"><ele>0.0</ele><time>2026-04-29T13:05:13.075Z</time></trkpt><trkpt lat="37.2405885" lon="-0.8656539"><ele>0.0</ele><time>2026-04-29T13:05:14.074Z</time></trkpt><trkpt lat="37.2406512" lon="-0.8655733"><ele>0.0</ele><time>2026-04-29T13:05:15.074Z</time></trkpt><trkpt lat="37.2407158" lon="-0.8654966"><ele>0.0</ele><time>2026-04-29T13:05:16.074Z</time></trkpt><trkpt lat="37.240778" lon="-0.8654168"><ele>0.0</ele><time>2026-04-29T13:05:17.075Z</time></trkpt><trkpt lat="37.2408397" lon="-0.8653338"><ele>0.0</ele><time>2026-04-29T13:05:18.074Z</time></trkpt><trkpt lat="37.2408999" lon="-0.8652532"><ele>0.0</ele><time>2026-04-29T13:05:19.075Z</time></trkpt><trkpt lat="37.2409597" lon="-0.8651722"><ele>0.0</ele><time>2026-04-29T13:05:20.075Z</time></trkpt><trkpt lat="37.2410137" lon="-0.865093"><ele>0.0</ele><time>2026-04-29T13:05:21.074Z</time></trkpt><trkpt lat="37.2410706" lon="-0.8650163"><ele>0.0</ele><time>2026-04-29T13:05:22.075Z</time></trkpt><trkpt lat="37.24113" lon="-0.8649352"><ele>0.0</ele><time>2026-04-29T13:05:23.074Z</time></trkpt><trkpt lat="37.2411899" lon="-0.8648523"><ele>0.0</ele><time>2026-04-29T13:05:24.075Z</time></trkpt><trkpt lat="37.241251" lon="-0.8647704"><ele>0.0</ele><time>2026-04-29T13:05:25.075Z</time></trkpt><trkpt lat="37.2413072" lon="-0.8646886"><ele>0.0</ele><time>2026-04-29T13:05:26.074Z</time></trkpt><trkpt lat="37.2413721" lon="-0.8646086"><ele>0.0</ele><time>2026-04-29T13:05:27.075Z</time></trkpt><trkpt lat="37.2414301" lon="-0.8645299"><ele>0.0</ele><time>2026-04-29T13:05:28.074Z</time></trkpt><trkpt lat="37.2414841" lon="-0.8644498"><ele>0.0</ele><time>2026-04-29T13:05:29.075Z</time></trkpt><trkpt lat="37.2415964" lon="-0.8642903"><ele>0.0</ele><time>2026-04-29T13:05:31.074Z</time></trkpt><trkpt lat="37.2416494" lon="-0.8642073"><ele>0.0</ele><time>2026-04-29T13:05:32.074Z</time></trkpt><trkpt lat="37.2417027" lon="-0.8641308"><ele>0.0</ele><time>2026-04-29T13:05:33.075Z</time></trkpt><trkpt lat="37.2417574" lon="-0.8640546"><ele>0.0</ele><time>2026-04-29T13:05:34.074Z</time></trkpt><trkpt lat="37.2418165" lon="-0.8639752"><ele>0.0</ele><time>2026-04-29T13:05:35.074Z</time></trkpt><trkpt lat="37.2418763" lon="-0.8638949"><ele>0.0</ele><time>2026-04-29T13:05:36.075Z</time></trkpt><trkpt lat="37.2419419" lon="-0.8638065"><ele>0.0</ele><time>2026-04-29T13:05:37.074Z</time></trkpt><trkpt lat="37.2420002" lon="-0.8637195"><ele>0.0</ele><time>2026-04-29T13:05:38.075Z</time></trkpt><trkpt lat="37.2420672" lon="-0.86364"><ele>0.0</ele><time>2026-04-29T13:05:39.074Z</time></trkpt><trkpt lat="37.2421353" lon="-0.8635598"><ele>0.0</ele><time>2026-04-29T13:05:40.075Z</time></trkpt><trkpt lat="37.2421951" lon="-0.8634897"><ele>0.0</ele><time>2026-04-29T13:05:41.075Z</time></trkpt><trkpt lat="37.2422577" lon="-0.863411"><ele>0.0</ele><time>2026-04-29T13:05:42.075Z</time></trkpt><trkpt lat="37.242314" lon="-0.86333"><ele>0.0</ele><time>2026-04-29T13:05:43.075Z</time></trkpt><trkpt lat="37.2423761" lon="-0.8632431"><ele>0.0</ele><time>2026-04-29T13:05:44.074Z</time></trkpt><trkpt lat="37.2424351" lon="-0.863165"><ele>0.0</ele><time>2026-04-29T13:05:45.074Z</time></trkpt><trkpt lat="37.2424963" lon="-0.8630809"><ele>0.0</ele><time>2026-04-29T13:05:46.074Z</time></trkpt><trkpt lat="37.2425536" lon="-0.8629903"><ele>0.0</ele><time>2026-04-29T13:05:47.074Z</time></trkpt><trkpt lat="37.2426131" lon="-0.8629084"><ele>0.0</ele><time>2026-04-29T13:05:48.074Z</time></trkpt><trkpt lat="37.2426665" lon="-0.8628269"><ele>0.0</ele><time>2026-04-29T13:05:49.074Z</time></trkpt><trkpt lat="37.2427254" lon="-0.8627436"><ele>0.0</ele><time>2026-04-29T13:05:50.075Z</time></trkpt><trkpt lat="37.2428352" lon="-0.8625864"><ele>0.0</ele><time>2026-04-29T13:05:52.075Z</time></trkpt><trkpt lat="37.2428917" lon="-0.862505"><ele>0.0</ele><time>2026-04-29T13:05:53.075Z</time></trkpt><trkpt lat="37.2429498" lon="-0.8624265"><ele>0.0</ele><time>2026-04-29T13:05:54.075Z</time></trkpt><trkpt lat="37.243007" lon="-0.8623482"><ele>0.0</ele><time>2026-04-29T13:05:55.074Z</time></trkpt><trkpt lat="37.2430609" lon="-0.8622727"><ele>0.0</ele><time>2026-04-29T13:05:56.075Z</time></trkpt><trkpt lat="37.2431185" lon="-0.8621891"><ele>0.0</ele><time>2026-04-29T13:05:57.074Z</time></trkpt><trkpt lat="37.2431753" lon="-0.8621044"><ele>0.0</ele><time>2026-04-29T13:05:58.074Z</time></trkpt><trkpt lat="37.2432346" lon="-0.8620152"><ele>0.0</ele><time>2026-04-29T13:05:59.074Z</time></trkpt><trkpt lat="37.2432951" lon="-0.8619295"><ele>0.0</ele><time>2026-04-29T13:06:00.074Z</time></trkpt><trkpt lat="37.2433592" lon="-0.8618484"><ele>0.0</ele><time>2026-04-29T13:06:01.075Z</time></trkpt><trkpt lat="37.2434096" lon="-0.8617627"><ele>0.0</ele><time>2026-04-29T13:06:02.074Z</time></trkpt><trkpt lat="37.2434652" lon="-0.8616816"><ele>0.0</ele><time>2026-04-29T13:06:03.075Z</time></trkpt><trkpt lat="37.2435206" lon="-0.8616027"><ele>0.0</ele><time>2026-04-29T13:06:04.075Z</time></trkpt><trkpt lat="37.2435769" lon="-0.8615218"><ele>0.0</ele><time>2026-04-29T13:06:05.075Z</time></trkpt><trkpt lat="37.2436364" lon="-0.8614416"><ele>0.0</ele><time>2026-04-29T13:06:06.074Z</time></trkpt><trkpt lat="37.2436994" lon="-0.8613626"><ele>0.0</ele><time>2026-04-29T13:06:07.074Z</time></trkpt><trkpt lat="37.2437655" lon="-0.8612804"><ele>0.0</ele><time>2026-04-29T13:06:08.074Z</time></trkpt><trkpt lat="37.2438268" lon="-0.8611957"><ele>0.0</ele><time>2026-04-29T13:06:09.075Z</time></trkpt><trkpt lat="37.2438839" lon="-0.8611178"><ele>0.0</ele><time>2026-04-29T13:06:10.075Z</time></trkpt><trkpt lat="37.2439493" lon="-0.8610382"><ele>0.0</ele><time>2026-04-29T13:06:11.075Z</time></trkpt><trkpt lat="37.2440356" lon="-0.8608911"><ele>0.0</ele><time>2026-04-29T13:06:13.074Z</time></trkpt><trkpt lat="37.2440906" lon="-0.8608108"><ele>0.0</ele><time>2026-04-29T13:06:14.074Z</time></trkpt><trkpt lat="37.2441483" lon="-0.8607304"><ele>0.0</ele><time>2026-04-29T13:06:15.075Z</time></trkpt><trkpt lat="37.2442052" lon="-0.8606458"><ele>0.0</ele><time>2026-04-29T13:06:16.074Z</time></trkpt><trkpt lat="37.2442677" lon="-0.8605665"><ele>0.0</ele><time>2026-04-29T13:06:17.075Z</time></trkpt><trkpt lat="37.244334" lon="-0.8604854"><ele>0.0</ele><time>2026-04-29T13:06:18.074Z</time></trkpt><trkpt lat="37.2444034" lon="-0.8604028"><ele>0.0</ele><time>2026-04-29T13:06:19.074Z</time></trkpt><trkpt lat="37.2444721" lon="-0.8603143"><ele>0.0</ele><time>2026-04-29T13:06:20.074Z</time></trkpt><trkpt lat="37.2445362" lon="-0.8602359"><ele>0.0</ele><time>2026-04-29T13:06:21.074Z</time></trkpt><trkpt lat="37.2446018" lon="-0.8601467"><ele>0.0</ele><time>2026-04-29T13:06:22.074Z</time></trkpt><trkpt lat="37.2446588" lon="-0.8600637"><ele>0.0</ele><time>2026-04-29T13:06:23.075Z</time></trkpt><trkpt lat="37.2447183" lon="-0.8599806"><ele>0.0</ele><time>2026-04-29T13:06:24.074Z</time></trkpt><trkpt lat="37.2447711" lon="-0.8598998"><ele>0.0</ele><time>2026-04-29T13:06:25.075Z</time></trkpt><trkpt lat="37.2448285" lon="-0.8598225"><ele>0.0</ele><time>2026-04-29T13:06:26.075Z</time></trkpt><trkpt lat="37.2448834" lon="-0.8597418"><ele>0.0</ele><time>2026-04-29T13:06:27.075Z</time></trkpt><trkpt lat="37.2449387" lon="-0.8596574"><ele>0.0</ele><time>2026-04-29T13:06:28.075Z</time></trkpt><trkpt lat="37.2449951" lon="-0.8595778"><ele>0.0</ele><time>2026-04-29T13:06:29.075Z</time></trkpt><trkpt lat="37.2450564" lon="-0.8594982"><ele>0.0</ele><time>2026-04-29T13:06:30.075Z</time></trkpt><trkpt lat="37.2451154" lon="-0.8594141"><ele>0.0</ele><time>2026-04-29T13:06:31.075Z</time></trkpt><trkpt lat="37.2451708" lon="-0.8593291"><ele>0.0</ele><time>2026-04-29T13:06:32.075Z</time></trkpt><trkpt lat="37.2452771" lon="-0.8591705"><ele>0.0</ele><time>2026-04-29T13:06:34.075Z</time></trkpt><trkpt lat="37.2453326" lon="-0.8590864"><ele>0.0</ele><time>2026-04-29T13:06:35.075Z</time></trkpt><trkpt lat="37.2453881" lon="-0.8590046"><ele>0.0</ele><time>2026-04-29T13:06:36.075Z</time></trkpt><trkpt lat="37.2454489" lon="-0.8589303"><ele>0.0</ele><time>2026-04-29T13:06:37.075Z</time></trkpt><trkpt lat="37.245508" lon="-0.8588538"><ele>0.0</ele><time>2026-04-29T13:06:38.075Z</time></trkpt><trkpt lat="37.2455717" lon="-0.8587746"><ele>0.0</ele><time>2026-04-29T13:06:39.075Z</time></trkpt><trkpt lat="37.2456312" lon="-0.8586908"><ele>0.0</ele><time>2026-04-29T13:06:40.074Z</time></trkpt><trkpt lat="37.2456913" lon="-0.8586142"><ele>0.0</ele><time>2026-04-29T13:06:41.074Z</time></trkpt><trkpt lat="37.2457495" lon="-0.8585344"><ele>0.0</ele><time>2026-04-29T13:06:42.074Z</time></trkpt><trkpt lat="37.2458036" lon="-0.8584544"><ele>0.0</ele><time>2026-04-29T13:06:43.074Z</time></trkpt><trkpt lat="37.245857" lon="-0.8583746"><ele>0.0</ele><time>2026-04-29T13:06:44.075Z</time></trkpt><trkpt lat="37.2459175" lon="-0.8582831"><ele>0.0</ele><time>2026-04-29T13:06:45.075Z</time></trkpt><trkpt lat="37.245975" lon="-0.8581967"><ele>0.0</ele><time>2026-04-29T13:06:46.074Z</time></trkpt><trkpt lat="37.2460391" lon="-0.8581176"><ele>0.0</ele><time>2026-04-29T13:06:47.074Z</time></trkpt><trkpt lat="37.2460944" lon="-0.8580421"><ele>0.0</ele><time>2026-04-29T13:06:48.074Z</time></trkpt><trkpt lat="37.2461492" lon="-0.8579617"><ele>0.0</ele><time>2026-04-29T13:06:49.074Z</time></trkpt><trkpt lat="37.2462022" lon="-0.8578859"><ele>0.0</ele><time>2026-04-29T13:06:50.075Z</time></trkpt><trkpt lat="37.2462684" lon="-0.8578062"><ele>0.0</ele><time>2026-04-29T13:06:51.074Z</time></trkpt><trkpt lat="37.2463281" lon="-0.8577295"><ele>0.0</ele><time>2026-04-29T13:06:52.074Z</time></trkpt><trkpt lat="37.2463823" lon="-0.8576513"><ele>0.0</ele><time>2026-04-29T13:06:53.074Z</time></trkpt><trkpt lat="37.2464931" lon="-0.8574952"><ele>0.0</ele><time>2026-04-29T13:06:55.074Z</time></trkpt><trkpt lat="37.2465532" lon="-0.8574149"><ele>0.0</ele><time>2026-04-29T13:06:56.075Z</time></trkpt><trkpt lat="37.2466132" lon="-0.8573307"><ele>0.0</ele><time>2026-04-29T13:06:57.074Z</time></trkpt><trkpt lat="37.2466688" lon="-0.8572429"><ele>0.0</ele><time>2026-04-29T13:06:58.074Z</time></trkpt><trkpt lat="37.2467256" lon="-0.8571627"><ele>0.0</ele><time>2026-04-29T13:06:59.074Z</time></trkpt><trkpt lat="37.2467806" lon="-0.8570788"><ele>0.0</ele><time>2026-04-29T13:07:00.075Z</time></trkpt><trkpt lat="37.246843" lon="-0.8569943"><ele>0.0</ele><time>2026-04-29T13:07:01.075Z</time></trkpt><trkpt lat="37.2469063" lon="-0.8569064"><ele>0.0</ele><time>2026-04-29T13:07:02.074Z</time></trkpt><trkpt lat="37.2469643" lon="-0.8568166"><ele>0.0</ele><time>2026-04-29T13:07:03.075Z</time></trkpt><trkpt lat="37.2470169" lon="-0.8567347"><ele>0.0</ele><time>2026-04-29T13:07:04.074Z</time></trkpt><trkpt lat="37.2470734" lon="-0.8566517"><ele>0.0</ele><time>2026-04-29T13:07:05.075Z</time></trkpt><trkpt lat="37.2471288" lon="-0.8565711"><ele>0.0</ele><time>2026-04-29T13:07:06.074Z</time></trkpt><trkpt lat="37.2471881" lon="-0.8564868"><ele>0.0</ele><time>2026-04-29T13:07:07.074Z</time></trkpt><trkpt lat="37.2472466" lon="-0.8564033"><ele>0.0</ele><time>2026-04-29T13:07:08.074Z</time></trkpt><trkpt lat="37.2473024" lon="-0.8563271"><ele>0.0</ele><time>2026-04-29T13:07:09.075Z</time></trkpt><trkpt lat="37.2473687" lon="-0.8562406"><ele>0.0</ele><time>2026-04-29T13:07:10.074Z</time></trkpt><trkpt lat="37.2474296" lon="-0.8561584"><ele>0.0</ele><time>2026-04-29T13:07:11.075Z</time></trkpt><trkpt lat="37.2474928" lon="-0.8560768"><ele>0.0</ele><time>2026-04-29T13:07:12.075Z</time></trkpt><trkpt lat="37.2475544" lon="-0.8559919"><ele>0.0</ele><time>2026-04-29T13:07:13.075Z</time></trkpt><trkpt lat="37.2476119" lon="-0.8559114"><ele>0.0</ele><time>2026-04-29T13:07:14.074Z</time></trkpt><trkpt lat="37.2477272" lon="-0.8557606"><ele>0.0</ele><time>2026-04-29T13:07:16.074Z</time></trkpt><trkpt lat="37.2477839" lon="-0.8556828"><ele>0.0</ele><time>2026-04-29T13:07:17.074Z</time></trkpt><trkpt lat="37.2478419" lon="-0.8556047"><ele>0.0</ele><time>2026-04-29T13:07:18.075Z</time></trkpt><trkpt lat="37.2479061" lon="-0.8555236"><ele>0.0</ele><time>2026-04-29T13:07:19.074Z</time></trkpt><trkpt lat="37.2479666" lon="-0.8554418"><ele>0.0</ele><time>2026-04-29T13:07:20.074Z</time></trkpt><trkpt lat="37.2480279" lon="-0.8553557"><ele>0.0</ele><time>2026-04-29T13:07:21.075Z</time></trkpt><trkpt lat="37.2480953" lon="-0.8552681"><ele>0.0</ele><time>2026-04-29T13:07:22.075Z</time></trkpt><trkpt lat="37.2481625" lon="-0.8551871"><ele>0.0</ele><time>2026-04-29T13:07:23.074Z</time></trkpt><trkpt lat="37.2482308" lon="-0.8551054"><ele>0.0</ele><time>2026-04-29T13:07:24.075Z</time></trkpt><trkpt lat="37.2482993" lon="-0.8550323"><ele>0.0</ele><time>2026-04-29T13:07:25.074Z</time></trkpt><trkpt lat="37.248362" lon="-0.854956"><ele>0.0</ele><time>2026-04-29T13:07:26.074Z</time></trkpt><trkpt lat="37.2484255" lon="-0.8548754"><ele>0.0</ele><time>2026-04-29T13:07:27.075Z</time></trkpt><trkpt lat="37.2484859" lon="-0.8547966"><ele>0.0</ele><time>2026-04-29T13:07:28.074Z</time></trkpt><trkpt lat="37.2485425" lon="-0.8547196"><ele>0.0</ele><time>2026-04-29T13:07:29.075Z</time></trkpt><trkpt lat="37.2485977" lon="-0.8546386"><ele>0.0</ele><time>2026-04-29T13:07:30.075Z</time></trkpt><trkpt lat="37.2486522" lon="-0.8545552"><ele>0.0</ele><time>2026-04-29T13:07:31.075Z</time></trkpt><trkpt lat="37.2487057" lon="-0.854469"><ele>0.0</ele><time>2026-04-29T13:07:32.074Z</time></trkpt><trkpt lat="37.2487623" lon="-0.8543827"><ele>0.0</ele><time>2026-04-29T13:07:33.075Z</time></trkpt><trkpt lat="37.248823" lon="-0.8542931"><ele>0.0</ele><time>2026-04-29T13:07:34.075Z</time></trkpt><trkpt lat="37.2488863" lon="-0.8542077"><ele>0.0</ele><time>2026-04-29T13:07:35.075Z</time></trkpt><trkpt lat="37.2490155" lon="-0.8540498"><ele>0.0</ele><time>2026-04-29T13:07:37.075Z</time></trkpt><trkpt lat="37.2490765" lon="-0.8539703"><ele>0.0</ele><time>2026-04-29T13:07:38.074Z</time></trkpt><trkpt lat="37.2491308" lon="-0.8538902"><ele>0.0</ele><time>2026-04-29T13:07:39.074Z</time></trkpt><trkpt lat="37.2491885" lon="-0.8538097"><ele>0.0</ele><time>2026-04-29T13:07:40.074Z</time></trkpt><trkpt lat="37.249258" lon="-0.8537401"><ele>0.0</ele><time>2026-04-29T13:07:41.075Z</time></trkpt><trkpt lat="37.2493304" lon="-0.8536633"><ele>0.0</ele><time>2026-04-29T13:07:42.075Z</time></trkpt><trkpt lat="37.2493936" lon="-0.853585"><ele>0.0</ele><time>2026-04-29T13:07:43.074Z</time></trkpt><trkpt lat="37.2494525" lon="-0.8535097"><ele>0.0</ele><time>2026-04-29T13:07:44.074Z</time></trkpt><trkpt lat="37.2495149" lon="-0.8534275"><ele>0.0</ele><time>2026-04-29T13:07:45.074Z</time></trkpt><trkpt lat="37.2495766" lon="-0.8533436"><ele>0.0</ele><time>2026-04-29T13:07:46.074Z</time></trkpt><trkpt lat="37.2496337" lon="-0.8532578"><ele>0.0</ele><time>2026-04-29T13:07:47.074Z</time></trkpt><trkpt lat="37.2496849" lon="-0.8531823"><ele>0.0</ele><time>2026-04-29T13:07:48.074Z</time></trkpt><trkpt lat="37.249738" lon="-0.8531044"><ele>0.0</ele><time>2026-04-29T13:07:49.074Z</time></trkpt><trkpt lat="37.2497914" lon="-0.8530278"><ele>0.0</ele><time>2026-04-29T13:07:50.074Z</time></trkpt><trkpt lat="37.2498445" lon="-0.8529468"><ele>0.0</ele><time>2026-04-29T13:07:51.074Z</time></trkpt><trkpt lat="37.2498991" lon="-0.8528649"><ele>0.0</ele><time>2026-04-29T13:07:52.074Z</time></trkpt><trkpt lat="37.2499581" lon="-0.8527775"><ele>0.0</ele><time>2026-04-29T13:07:53.074Z</time></trkpt><trkpt lat="37.2500179" lon="-0.8526934"><ele>0.0</ele><time>2026-04-29T13:07:54.074Z</time></trkpt><trkpt lat="37.2500735" lon="-0.852613"><ele>0.0</ele><time>2026-04-29T13:07:55.075Z</time></trkpt><trkpt lat="37.2501273" lon="-0.8525347"><ele>0.0</ele><time>2026-04-29T13:07:56.074Z</time></trkpt><trkpt lat="37.2502541" lon="-0.8523742"><ele>0.0</ele><time>2026-04-29T13:07:58.074Z</time></trkpt><trkpt lat="37.2503164" lon="-0.8522904"><ele>0.0</ele><time>2026-04-29T13:07:59.075Z</time></trkpt><trkpt lat="37.2503728" lon="-0.8522155"><ele>0.0</ele><time>2026-04-29T13:08:00.075Z</time></trkpt><trkpt lat="37.2504301" lon="-0.8521331"><ele>0.0</ele><time>2026-04-29T13:08:01.074Z</time></trkpt><trkpt lat="37.2504884" lon="-0.8520497"><ele>0.0</ele><time>2026-04-29T13:08:02.074Z</time></trkpt><trkpt lat="37.250551" lon="-0.8519611"><ele>0.0</ele><time>2026-04-29T13:08:03.074Z</time></trkpt><trkpt lat="37.2506101" lon="-0.8518754"><ele>0.0</ele><time>2026-04-29T13:08:04.074Z</time></trkpt><trkpt lat="37.2506717" lon="-0.8517918"><ele>0.0</ele><time>2026-04-29T13:08:05.074Z</time></trkpt><trkpt lat="37.2507275" lon="-0.8517129"><ele>0.0</ele><time>2026-04-29T13:08:06.074Z</time></trkpt><trkpt lat="37.2507882" lon="-0.8516275"><ele>0.0</ele><time>2026-04-29T13:08:07.075Z</time></trkpt><trkpt lat="37.2508455" lon="-0.8515466"><ele>0.0</ele><time>2026-04-29T13:08:08.075Z</time></trkpt><trkpt lat="37.2509022" lon="-0.851468"><ele>0.0</ele><time>2026-04-29T13:08:09.074Z</time></trkpt><trkpt lat="37.2509601" lon="-0.8513881"><ele>0.0</ele><time>2026-04-29T13:08:10.075Z</time></trkpt><trkpt lat="37.2510178" lon="-0.8513037"><ele>0.0</ele><time>2026-04-29T13:08:11.074Z</time></trkpt><trkpt lat="37.2510732" lon="-0.8512259"><ele>0.0</ele><time>2026-04-29T13:08:12.074Z</time></trkpt><trkpt lat="37.2511302" lon="-0.8511481"><ele>0.0</ele><time>2026-04-29T13:08:13.074Z</time></trkpt><trkpt lat="37.2511898" lon="-0.8510685"><ele>0.0</ele><time>2026-04-29T13:08:14.074Z</time></trkpt><trkpt lat="37.251249" lon="-0.8509913"><ele>0.0</ele><time>2026-04-29T13:08:15.075Z</time></trkpt><trkpt lat="37.2513058" lon="-0.8509127"><ele>0.0</ele><time>2026-04-29T13:08:16.075Z</time></trkpt><trkpt lat="37.2513637" lon="-0.8508302"><ele>0.0</ele><time>2026-04-29T13:08:17.074Z</time></trkpt><trkpt lat="37.2514853" lon="-0.8506549"><ele>0.0</ele><time>2026-04-29T13:08:19.074Z</time></trkpt><trkpt lat="37.2515418" lon="-0.8505718"><ele>0.0</ele><time>2026-04-29T13:08:20.075Z</time></trkpt><trkpt lat="37.2516033" lon="-0.8504861"><ele>0.0</ele><time>2026-04-29T13:08:21.075Z</time></trkpt><trkpt lat="37.2516649" lon="-0.8504052"><ele>0.0</ele><time>2026-04-29T13:08:22.074Z</time></trkpt><trkpt lat="37.2517252" lon="-0.8503236"><ele>0.0</ele><time>2026-04-29T13:08:23.074Z</time></trkpt><trkpt lat="37.2517855" lon="-0.8502476"><ele>0.0</ele><time>2026-04-29T13:08:24.074Z</time></trkpt><trkpt lat="37.251842" lon="-0.8501652"><ele>0.0</ele><time>2026-04-29T13:08:25.075Z</time></trkpt><trkpt lat="37.2518986" lon="-0.8500849"><ele>0.0</ele><time>2026-04-29T13:08:26.075Z</time></trkpt><trkpt lat="37.2519568" lon="-0.8500004"><ele>0.0</ele><time>2026-04-29T13:08:27.074Z</time></trkpt><trkpt lat="37.2520102" lon="-0.8499166"><ele>0.0</ele><time>2026-04-29T13:08:28.075Z</time></trkpt><trkpt lat="37.2520667" lon="-0.8498335"><ele>0.0</ele><time>2026-04-29T13:08:29.074Z</time></trkpt><trkpt lat="37.2521249" lon="-0.8497501"><ele>0.0</ele><time>2026-04-29T13:08:30.074Z</time></trkpt><trkpt lat="37.2521861" lon="-0.8496646"><ele>0.0</ele><time>2026-04-29T13:08:31.074Z</time></trkpt><trkpt lat="37.2522522" lon="-0.8495777"><ele>0.0</ele><time>2026-04-29T13:08:32.074Z</time></trkpt><trkpt lat="37.2523135" lon="-0.8494953"><ele>0.0</ele><time>2026-04-29T13:08:33.074Z</time></trkpt><trkpt lat="37.2523723" lon="-0.8494195"><ele>0.0</ele><time>2026-04-29T13:08:34.075Z</time></trkpt><trkpt lat="37.252432" lon="-0.8493432"><ele>0.0</ele><time>2026-04-29T13:08:35.075Z</time></trkpt><trkpt lat="37.2524874" lon="-0.8492633"><ele>0.0</ele><time>2026-04-29T13:08:36.074Z</time></trkpt><trkpt lat="37.2525395" lon="-0.8491902"><ele>0.0</ele><time>2026-04-29T13:08:37.074Z</time></trkpt><trkpt lat="37.252594" lon="-0.8491155"><ele>0.0</ele><time>2026-04-29T13:08:38.074Z</time></trkpt><trkpt lat="37.2527067" lon="-0.8489518"><ele>0.0</ele><time>2026-04-29T13:08:40.074Z</time></trkpt><trkpt lat="37.2527678" lon="-0.8488686"><ele>0.0</ele><time>2026-04-29T13:08:41.075Z</time></trkpt><trkpt lat="37.2528298" lon="-0.848787"><ele>0.0</ele><time>2026-04-29T13:08:42.074Z</time></trkpt><trkpt lat="37.2528874" lon="-0.8487081"><ele>0.0</ele><time>2026-04-29T13:08:43.074Z</time></trkpt><trkpt lat="37.2529455" lon="-0.8486295"><ele>0.0</ele><time>2026-04-29T13:08:44.074Z</time></trkpt><trkpt lat="37.2530095" lon="-0.8485485"><ele>0.0</ele><time>2026-04-29T13:08:45.074Z</time></trkpt><trkpt lat="37.2530769" lon="-0.8484571"><ele>0.0</ele><time>2026-04-29T13:08:46.074Z</time></trkpt><trkpt lat="37.2531353" lon="-0.8483748"><ele>0.0</ele><time>2026-04-29T13:08:47.074Z</time></trkpt><trkpt lat="37.2531908" lon="-0.8483005"><ele>0.0</ele><time>2026-04-29T13:08:48.074Z</time></trkpt><trkpt lat="37.2532472" lon="-0.8482212"><ele>0.0</ele><time>2026-04-29T13:08:49.074Z</time></trkpt><trkpt lat="37.2533056" lon="-0.8481457"><ele>0.0</ele><time>2026-04-29T13:08:50.074Z</time></trkpt><trkpt lat="37.253364" lon="-0.8480692"><ele>0.0</ele><time>2026-04-29T13:08:51.074Z</time></trkpt><trkpt lat="37.253422" lon="-0.8479898"><ele>0.0</ele><time>2026-04-29T13:08:52.075Z</time></trkpt><trkpt lat="37.2534818" lon="-0.8479069"><ele>0.0</ele><time>2026-04-29T13:08:53.074Z</time></trkpt><trkpt lat="37.2535359" lon="-0.8478293"><ele>0.0</ele><time>2026-04-29T13:08:54.075Z</time></trkpt><trkpt lat="37.2535906" lon="-0.8477483"><ele>0.0</ele><time>2026-04-29T13:08:55.074Z</time></trkpt><trkpt lat="37.2536531" lon="-0.8476623"><ele>0.0</ele><time>2026-04-29T13:08:56.075Z</time></trkpt><trkpt lat="37.2537147" lon="-0.847576"><ele>0.0</ele><time>2026-04-29T13:08:57.075Z</time></trkpt><trkpt lat="37.2537723" lon="-0.8474949"><ele>0.0</ele><time>2026-04-29T13:08:58.075Z</time></trkpt><trkpt lat="37.2538246" lon="-0.8474173"><ele>0.0</ele><time>2026-04-29T13:08:59.074Z</time></trkpt><trkpt lat="37.2539396" lon="-0.8472428"><ele>0.0</ele><time>2026-04-29T13:09:01.074Z</time></trkpt><trkpt lat="37.2539968" lon="-0.8471585"><ele>0.0</ele><time>2026-04-29T13:09:02.075Z</time></trkpt><trkpt lat="37.2540577" lon="-0.8470712"><ele>0.0</ele><time>2026-04-29T13:09:03.075Z</time></trkpt><trkpt lat="37.2541279" lon="-0.8469885"><ele>0.0</ele><time>2026-04-29T13:09:04.074Z</time></trkpt><trkpt lat="37.2541897" lon="-0.8469039"><ele>0.0</ele><time>2026-04-29T13:09:05.074Z</time></trkpt><trkpt lat="37.2542529" lon="-0.8468206"><ele>0.0</ele><time>2026-04-29T13:09:06.074Z</time></trkpt><trkpt lat="37.2543107" lon="-0.8467428"><ele>0.0</ele><time>2026-04-29T13:09:07.075Z</time></trkpt><trkpt lat="37.2543662" lon="-0.8466646"><ele>0.0</ele><time>2026-04-29T13:09:08.074Z</time></trkpt><trkpt lat="37.2544272" lon="-0.8465835"><ele>0.0</ele><time>2026-04-29T13:09:09.075Z</time></trkpt><trkpt lat="37.254488" lon="-0.8464991"><ele>0.0</ele><time>2026-04-29T13:09:10.074Z</time></trkpt><trkpt lat="37.2545409" lon="-0.8464183"><ele>0.0</ele><time>2026-04-29T13:09:11.074Z</time></trkpt><trkpt lat="37.2545985" lon="-0.8463338"><ele>0.0</ele><time>2026-04-29T13:09:12.075Z</time></trkpt><trkpt lat="37.2546536" lon="-0.8462502"><ele>0.0</ele><time>2026-04-29T13:09:13.074Z</time></trkpt><trkpt lat="37.2547097" lon="-0.8461614"><ele>0.0</ele><time>2026-04-29T13:09:14.074Z</time></trkpt><trkpt lat="37.2547656" lon="-0.8460844"><ele>0.0</ele><time>2026-04-29T13:09:15.074Z</time></trkpt><trkpt lat="37.2548221" lon="-0.8460032"><ele>0.0</ele><time>2026-04-29T13:09:16.075Z</time></trkpt><trkpt lat="37.2548788" lon="-0.8459248"><ele>0.0</ele><time>2026-04-29T13:09:17.074Z</time></trkpt><trkpt lat="37.2549388" lon="-0.8458479"><ele>0.0</ele><time>2026-04-29T13:09:18.075Z</time></trkpt><trkpt lat="37.254999" lon="-0.8457696"><ele>0.0</ele><time>2026-04-29T13:09:19.074Z</time></trkpt><trkpt lat="37.2550546" lon="-0.8456958"><ele>0.0</ele><time>2026-04-29T13:09:20.075Z</time></trkpt><trkpt lat="37.2551668" lon="-0.8455415"><ele>0.0</ele><time>2026-04-29T13:09:22.074Z</time></trkpt><trkpt lat="37.2552261" lon="-0.8454587"><ele>0.0</ele><time>2026-04-29T13:09:23.075Z</time></trkpt><trkpt lat="37.2552865" lon="-0.8453784"><ele>0.0</ele><time>2026-04-29T13:09:24.074Z</time></trkpt><trkpt lat="37.2553483" lon="-0.8452954"><ele>0.0</ele><time>2026-04-29T13:09:25.075Z</time></trkpt><trkpt lat="37.2554145" lon="-0.8452124"><ele>0.0</ele><time>2026-04-29T13:09:26.075Z</time></trkpt><trkpt lat="37.2554782" lon="-0.8451319"><ele>0.0</ele><time>2026-04-29T13:09:27.074Z</time></trkpt><trkpt lat="37.2555523" lon="-0.8450587"><ele>0.0</ele><time>2026-04-29T13:09:28.074Z</time></trkpt><trkpt lat="37.2556169" lon="-0.8449799"><ele>0.0</ele><time>2026-04-29T13:09:29.074Z</time></trkpt><trkpt lat="37.2556837" lon="-0.8448914"><ele>0.0</ele><time>2026-04-29T13:09:30.074Z</time></trkpt><trkpt lat="37.2557372" lon="-0.8448087"><ele>0.0</ele><time>2026-04-29T13:09:31.074Z</time></trkpt><trkpt lat="37.2557936" lon="-0.8447296"><ele>0.0</ele><time>2026-04-29T13:09:32.074Z</time></trkpt><trkpt lat="37.2558533" lon="-0.8446452"><ele>0.0</ele><time>2026-04-29T13:09:33.074Z</time></trkpt><trkpt lat="37.2559129" lon="-0.8445572"><ele>0.0</ele><time>2026-04-29T13:09:34.074Z</time></trkpt><trkpt lat="37.2559774" lon="-0.8444706"><ele>0.0</ele><time>2026-04-29T13:09:35.074Z</time></trkpt><trkpt lat="37.2560365" lon="-0.8443867"><ele>0.0</ele><time>2026-04-29T13:09:36.074Z</time></trkpt><trkpt lat="37.2560934" lon="-0.8443025"><ele>0.0</ele><time>2026-04-29T13:09:37.075Z</time></trkpt><trkpt lat="37.2561461" lon="-0.8442191"><ele>0.0</ele><time>2026-04-29T13:09:38.074Z</time></trkpt><trkpt lat="37.2562021" lon="-0.8441354"><ele>0.0</ele><time>2026-04-29T13:09:39.074Z</time></trkpt><trkpt lat="37.25626" lon="-0.8440578"><ele>0.0</ele><time>2026-04-29T13:09:40.075Z</time></trkpt><trkpt lat="37.256324" lon="-0.8439783"><ele>0.0</ele><time>2026-04-29T13:09:41.075Z</time></trkpt><trkpt lat="37.2564459" lon="-0.8438164"><ele>0.0</ele><time>2026-04-29T13:09:43.074Z</time></trkpt><trkpt lat="37.2565053" lon="-0.8437367"><ele>0.0</ele><time>2026-04-29T13:09:44.074Z</time></trkpt><trkpt lat="37.256562" lon="-0.8436593"><ele>0.0</ele><time>2026-04-29T13:09:45.074Z</time></trkpt><trkpt lat="37.2566228" lon="-0.8435825"><ele>0.0</ele><time>2026-04-29T13:09:46.074Z</time></trkpt><trkpt lat="37.2566861" lon="-0.8435002"><ele>0.0</ele><time>2026-04-29T13:09:47.075Z</time></trkpt><trkpt lat="37.2567465" lon="-0.8434182"><ele>0.0</ele><time>2026-04-29T13:09:48.074Z</time></trkpt><trkpt lat="37.2568048" lon="-0.8433365"><ele>0.0</ele><time>2026-04-29T13:09:49.074Z</time></trkpt><trkpt lat="37.2568693" lon="-0.8432493"><ele>0.0</ele><time>2026-04-29T13:09:50.074Z</time></trkpt><trkpt lat="37.256927" lon="-0.8431586"><ele>0.0</ele><time>2026-04-29T13:09:51.074Z</time></trkpt><trkpt lat="37.2569788" lon="-0.8430714"><ele>0.0</ele><time>2026-04-29T13:09:52.075Z</time></trkpt><trkpt lat="37.2570371" lon="-0.8429904"><ele>0.0</ele><time>2026-04-29T13:09:53.075Z</time></trkpt><trkpt lat="37.2570947" lon="-0.8429074"><ele>0.0</ele><time>2026-04-29T13:09:54.075Z</time></trkpt><trkpt lat="37.257148" lon="-0.8428256"><ele>0.0</ele><time>2026-04-29T13:09:55.074Z</time></trkpt><trkpt lat="37.2572025" lon="-0.8427462"><ele>0.0</ele><time>2026-04-29T13:09:56.075Z</time></trkpt><trkpt lat="37.2572583" lon="-0.8426665"><ele>0.0</ele><time>2026-04-29T13:09:57.075Z</time></trkpt><trkpt lat="37.257315" lon="-0.8425881"><ele>0.0</ele><time>2026-04-29T13:09:58.075Z</time></trkpt><trkpt lat="37.2573645" lon="-0.8425152"><ele>0.0</ele><time>2026-04-29T13:09:59.075Z</time></trkpt><trkpt lat="37.2574227" lon="-0.8424319"><ele>0.0</ele><time>2026-04-29T13:10:00.075Z</time></trkpt><trkpt lat="37.2574788" lon="-0.8423528"><ele>0.0</ele><time>2026-04-29T13:10:01.075Z</time></trkpt><trkpt lat="37.2575378" lon="-0.8422717"><ele>0.0</ele><time>2026-04-29T13:10:02.074Z</time></trkpt><trkpt lat="37.2576551" lon="-0.8421099"><ele>0.0</ele><time>2026-04-29T13:10:04.074Z</time></trkpt><trkpt lat="37.2577148" lon="-0.842024"><ele>0.0</ele><time>2026-04-29T13:10:05.075Z</time></trkpt><trkpt lat="37.2577749" lon="-0.8419416"><ele>0.0</ele><time>2026-04-29T13:10:06.075Z</time></trkpt><trkpt lat="37.2578338" lon="-0.841857"><ele>0.0</ele><time>2026-04-29T13:10:07.075Z</time></trkpt><trkpt lat="37.2578991" lon="-0.8417723"><ele>0.0</ele><time>2026-04-29T13:10:08.074Z</time></trkpt><trkpt lat="37.2579663" lon="-0.8416873"><ele>0.0</ele><time>2026-04-29T13:10:09.074Z</time></trkpt><trkpt lat="37.2580298" lon="-0.8416094"><ele>0.0</ele><time>2026-04-29T13:10:10.074Z</time></trkpt><trkpt lat="37.2580874" lon="-0.8415327"><ele>0.0</ele><time>2026-04-29T13:10:11.074Z</time></trkpt><trkpt lat="37.2581511" lon="-0.841453"><ele>0.0</ele><time>2026-04-29T13:10:12.074Z</time></trkpt><trkpt lat="37.2582074" lon="-0.8413646"><ele>0.0</ele><time>2026-04-29T13:10:13.074Z</time></trkpt><trkpt lat="37.258268" lon="-0.841279"><ele>0.0</ele><time>2026-04-29T13:10:14.073Z</time></trkpt><trkpt lat="37.2583253" lon="-0.8412027"><ele>0.0</ele><time>2026-04-29T13:10:15.074Z</time></trkpt><trkpt lat="37.2583819" lon="-0.8411185"><ele>0.0</ele><time>2026-04-29T13:10:16.073Z</time></trkpt><trkpt lat="37.2584429" lon="-0.841038"><ele>0.0</ele><time>2026-04-29T13:10:17.073Z</time></trkpt><trkpt lat="37.2585004" lon="-0.8409565"><ele>0.0</ele><time>2026-04-29T13:10:18.073Z</time></trkpt><trkpt lat="37.2585531" lon="-0.8408764"><ele>0.0</ele><time>2026-04-29T13:10:19.073Z</time></trkpt><trkpt lat="37.2586047" lon="-0.8407949"><ele>0.0</ele><time>2026-04-29T13:10:20.074Z</time></trkpt><trkpt lat="37.2586608" lon="-0.8407175"><ele>0.0</ele><time>2026-04-29T13:10:21.073Z</time></trkpt><trkpt lat="37.2587148" lon="-0.8406352"><ele>0.0</ele><time>2026-04-29T13:10:22.074Z</time></trkpt><trkpt lat="37.2587696" lon="-0.8405563"><ele>0.0</ele><time>2026-04-29T13:10:23.073Z</time></trkpt><trkpt lat="37.2588829" lon="-0.8403876"><ele>0.0</ele><time>2026-04-29T13:10:25.073Z</time></trkpt><trkpt lat="37.2589509" lon="-0.8403012"><ele>0.0</ele><time>2026-04-29T13:10:26.074Z</time></trkpt><trkpt lat="37.2590174" lon="-0.8402148"><ele>0.0</ele><time>2026-04-29T13:10:27.074Z</time></trkpt><trkpt lat="37.2590822" lon="-0.840129"><ele>0.0</ele><time>2026-04-29T13:10:28.073Z</time></trkpt><trkpt lat="37.2591455" lon="-0.8400438"><ele>0.0</ele><time>2026-04-29T13:10:29.074Z</time></trkpt><trkpt lat="37.2592087" lon="-0.839967"><ele>0.0</ele><time>2026-04-29T13:10:30.074Z</time></trkpt><trkpt lat="37.2592711" lon="-0.8398892"><ele>0.0</ele><time>2026-04-29T13:10:31.074Z</time></trkpt><trkpt lat="37.2593328" lon="-0.8398123"><ele>0.0</ele><time>2026-04-29T13:10:32.074Z</time></trkpt><trkpt lat="37.259389" lon="-0.8397372"><ele>0.0</ele><time>2026-04-29T13:10:33.073Z</time></trkpt><trkpt lat="37.2594455" lon="-0.839655"><ele>0.0</ele><time>2026-04-29T13:10:34.074Z</time></trkpt><trkpt lat="37.2595048" lon="-0.8395674"><ele>0.0</ele><time>2026-04-29T13:10:35.074Z</time></trkpt><trkpt lat="37.259565" lon="-0.8394838"><ele>0.0</ele><time>2026-04-29T13:10:36.074Z</time></trkpt><trkpt lat="37.2596254" lon="-0.8394036"><ele>0.0</ele><time>2026-04-29T13:10:37.074Z</time></trkpt><trkpt lat="37.2596784" lon="-0.8393193"><ele>0.0</ele><time>2026-04-29T13:10:38.073Z</time></trkpt><trkpt lat="37.2597345" lon="-0.8392411"><ele>0.0</ele><time>2026-04-29T13:10:39.073Z</time></trkpt><trkpt lat="37.2597893" lon="-0.8391628"><ele>0.0</ele><time>2026-04-29T13:10:40.074Z</time></trkpt><trkpt lat="37.2598455" lon="-0.8390833"><ele>0.0</ele><time>2026-04-29T13:10:41.073Z</time></trkpt><trkpt lat="37.2599053" lon="-0.8389973"><ele>0.0</ele><time>2026-04-29T13:10:42.074Z</time></trkpt><trkpt lat="37.2599621" lon="-0.8389136"><ele>0.0</ele><time>2026-04-29T13:10:43.073Z</time></trkpt><trkpt lat="37.2600188" lon="-0.8388301"><ele>0.0</ele><time>2026-04-29T13:10:44.074Z</time></trkpt><trkpt lat="37.2601348" lon="-0.8386623"><ele>0.0</ele><time>2026-04-29T13:10:46.073Z</time></trkpt><trkpt lat="37.2601911" lon="-0.8385732"><ele>0.0</ele><time>2026-04-29T13:10:47.073Z</time></trkpt><trkpt lat="37.2602519" lon="-0.8384904"><ele>0.0</ele><time>2026-04-29T13:10:48.073Z</time></trkpt><trkpt lat="37.260308" lon="-0.8384055"><ele>0.0</ele><time>2026-04-29T13:10:49.074Z</time></trkpt><trkpt lat="37.2603618" lon="-0.8383251"><ele>0.0</ele><time>2026-04-29T13:10:50.074Z</time></trkpt><trkpt lat="37.2604187" lon="-0.8382423"><ele>0.0</ele><time>2026-04-29T13:10:51.074Z</time></trkpt><trkpt lat="37.2604781" lon="-0.838156"><ele>0.0</ele><time>2026-04-29T13:10:52.073Z</time></trkpt><trkpt lat="37.2605409" lon="-0.8380721"><ele>0.0</ele><time>2026-04-29T13:10:53.073Z</time></trkpt><trkpt lat="37.2606016" lon="-0.8379902"><ele>0.0</ele><time>2026-04-29T13:10:54.073Z</time></trkpt><trkpt lat="37.2606669" lon="-0.8379039"><ele>0.0</ele><time>2026-04-29T13:10:55.073Z</time></trkpt><trkpt lat="37.2607308" lon="-0.8378187"><ele>0.0</ele><time>2026-04-29T13:10:56.074Z</time></trkpt><trkpt lat="37.2607957" lon="-0.837738"><ele>0.0</ele><time>2026-04-29T13:10:57.073Z</time></trkpt><trkpt lat="37.260861" lon="-0.8376554"><ele>0.0</ele><time>2026-04-29T13:10:58.073Z</time></trkpt><trkpt lat="37.2609205" lon="-0.8375706"><ele>0.0</ele><time>2026-04-29T13:10:59.073Z</time></trkpt><trkpt lat="37.2609899" lon="-0.8374953"><ele>0.0</ele><time>2026-04-29T13:11:00.073Z</time></trkpt><trkpt lat="37.2610473" lon="-0.8374175"><ele>0.0</ele><time>2026-04-29T13:11:01.073Z</time></trkpt><trkpt lat="37.2611026" lon="-0.8373394"><ele>0.0</ele><time>2026-04-29T13:11:02.074Z</time></trkpt><trkpt lat="37.2611559" lon="-0.8372597"><ele>0.0</ele><time>2026-04-29T13:11:03.073Z</time></trkpt><trkpt lat="37.261211" lon="-0.8371758"><ele>0.0</ele><time>2026-04-29T13:11:04.074Z</time></trkpt><trkpt lat="37.2612659" lon="-0.8370904"><ele>0.0</ele><time>2026-04-29T13:11:05.073Z</time></trkpt><trkpt lat="37.2613927" lon="-0.8369262"><ele>0.0</ele><time>2026-04-29T13:11:07.073Z</time></trkpt><trkpt lat="37.2614531" lon="-0.8368433"><ele>0.0</ele><time>2026-04-29T13:11:08.073Z</time></trkpt><trkpt lat="37.2615142" lon="-0.8367669"><ele>0.0</ele><time>2026-04-29T13:11:09.073Z</time></trkpt><trkpt lat="37.2615761" lon="-0.8366924"><ele>0.0</ele><time>2026-04-29T13:11:10.074Z</time></trkpt><trkpt lat="37.2616308" lon="-0.8366175"><ele>0.0</ele><time>2026-04-29T13:11:11.074Z</time></trkpt><trkpt lat="37.2616776" lon="-0.8365368"><ele>0.0</ele><time>2026-04-29T13:11:12.074Z</time></trkpt><trkpt lat="37.261731" lon="-0.8364493"><ele>0.0</ele><time>2026-04-29T13:11:13.073Z</time></trkpt><trkpt lat="37.2617947" lon="-0.8363627"><ele>0.0</ele><time>2026-04-29T13:11:14.073Z</time></trkpt><trkpt lat="37.2618537" lon="-0.8362858"><ele>0.0</ele><time>2026-04-29T13:11:15.073Z</time></trkpt><trkpt lat="37.2619208" lon="-0.8362107"><ele>0.0</ele><time>2026-04-29T13:11:16.074Z</time></trkpt><trkpt lat="37.2619806" lon="-0.8361288"><ele>0.0</ele><time>2026-04-29T13:11:17.073Z</time></trkpt><trkpt lat="37.2620477" lon="-0.8360441"><ele>0.0</ele><time>2026-04-29T13:11:18.074Z</time></trkpt><trkpt lat="37.2621058" lon="-0.8359581"><ele>0.0</ele><time>2026-04-29T13:11:19.074Z</time></trkpt><trkpt lat="37.2621609" lon="-0.8358768"><ele>0.0</ele><time>2026-04-29T13:11:20.074Z</time></trkpt><trkpt lat="37.2622157" lon="-0.8357893"><ele>0.0</ele><time>2026-04-29T13:11:21.073Z</time></trkpt><trkpt lat="37.2622768" lon="-0.8357038"><ele>0.0</ele><time>2026-04-29T13:11:22.074Z</time></trkpt><trkpt lat="37.2623397" lon="-0.8356188"><ele>0.0</ele><time>2026-04-29T13:11:23.073Z</time></trkpt><trkpt lat="37.2623986" lon="-0.8355297"><ele>0.0</ele><time>2026-04-29T13:11:24.073Z</time></trkpt><trkpt lat="37.2624503" lon="-0.8354498"><ele>0.0</ele><time>2026-04-29T13:11:25.074Z</time></trkpt><trkpt lat="37.2625004" lon="-0.8353685"><ele>0.0</ele><time>2026-04-29T13:11:26.073Z</time></trkpt><trkpt lat="37.2626096" lon="-0.8351985"><ele>0.0</ele><time>2026-04-29T13:11:28.073Z</time></trkpt><trkpt lat="37.2626685" lon="-0.8351085"><ele>0.0</ele><time>2026-04-29T13:11:29.074Z</time></trkpt><trkpt lat="37.2627342" lon="-0.8350269"><ele>0.0</ele><time>2026-04-29T13:11:30.073Z</time></trkpt><trkpt lat="37.2627948" lon="-0.8349406"><ele>0.0</ele><time>2026-04-29T13:11:31.074Z</time></trkpt><trkpt lat="37.2628536" lon="-0.8348609"><ele>0.0</ele><time>2026-04-29T13:11:32.074Z</time></trkpt><trkpt lat="37.2629118" lon="-0.8347812"><ele>0.0</ele><time>2026-04-29T13:11:33.073Z</time></trkpt><trkpt lat="37.2629699" lon="-0.8347011"><ele>0.0</ele><time>2026-04-29T13:11:34.074Z</time></trkpt><trkpt lat="37.263025" lon="-0.8346198"><ele>0.0</ele><time>2026-04-29T13:11:35.074Z</time></trkpt><trkpt lat="37.2630845" lon="-0.8345382"><ele>0.0</ele><time>2026-04-29T13:11:36.074Z</time></trkpt><trkpt lat="37.2631508" lon="-0.8344541"><ele>0.0</ele><time>2026-04-29T13:11:37.074Z</time></trkpt><trkpt lat="37.2632105" lon="-0.8343732"><ele>0.0</ele><time>2026-04-29T13:11:38.073Z</time></trkpt><trkpt lat="37.263263" lon="-0.8342961"><ele>0.0</ele><time>2026-04-29T13:11:39.073Z</time></trkpt><trkpt lat="37.2633147" lon="-0.8342123"><ele>0.0</ele><time>2026-04-29T13:11:40.073Z</time></trkpt><trkpt lat="37.263372" lon="-0.8341315"><ele>0.0</ele><time>2026-04-29T13:11:41.073Z</time></trkpt><trkpt lat="37.2634332" lon="-0.8340472"><ele>0.0</ele><time>2026-04-29T13:11:42.073Z</time></trkpt><trkpt lat="37.2634905" lon="-0.8339712"><ele>0.0</ele><time>2026-04-29T13:11:43.074Z</time></trkpt><trkpt lat="37.2635467" lon="-0.83389"><ele>0.0</ele><time>2026-04-29T13:11:44.073Z</time></trkpt><trkpt lat="37.2636075" lon="-0.8338055"><ele>0.0</ele><time>2026-04-29T13:11:45.073Z</time></trkpt><trkpt lat="37.2636606" lon="-0.8337178"><ele>0.0</ele><time>2026-04-29T13:11:46.074Z</time></trkpt><trkpt lat="37.2637284" lon="-0.8336383"><ele>0.0</ele><time>2026-04-29T13:11:47.073Z</time></trkpt><trkpt lat="37.2638566" lon="-0.8334816"><ele>0.0</ele><time>2026-04-29T13:11:49.073Z</time></trkpt><trkpt lat="37.2639184" lon="-0.8334005"><ele>0.0</ele><time>2026-04-29T13:11:50.074Z</time></trkpt><trkpt lat="37.2639831" lon="-0.8333187"><ele>0.0</ele><time>2026-04-29T13:11:51.073Z</time></trkpt><trkpt lat="37.2640352" lon="-0.833233"><ele>0.0</ele><time>2026-04-29T13:11:52.073Z</time></trkpt><trkpt lat="37.2640852" lon="-0.8331446"><ele>0.0</ele><time>2026-04-29T13:11:53.074Z</time></trkpt><trkpt lat="37.2641408" lon="-0.8330606"><ele>0.0</ele><time>2026-04-29T13:11:54.073Z</time></trkpt><trkpt lat="37.2641914" lon="-0.8329813"><ele>0.0</ele><time>2026-04-29T13:11:55.074Z</time></trkpt><trkpt lat="37.2642457" lon="-0.8329028"><ele>0.0</ele><time>2026-04-29T13:11:56.073Z</time></trkpt><trkpt lat="37.2643002" lon="-0.8328186"><ele>0.0</ele><time>2026-04-29T13:11:57.073Z</time></trkpt><trkpt lat="37.2643606" lon="-0.832735"><ele>0.0</ele><time>2026-04-29T13:11:58.073Z</time></trkpt><trkpt lat="37.2644197" lon="-0.8326521"><ele>0.0</ele><time>2026-04-29T13:11:59.073Z</time></trkpt><trkpt lat="37.2644883" lon="-0.8325714"><ele>0.0</ele><time>2026-04-29T13:12:00.073Z</time></trkpt><trkpt lat="37.2645524" lon="-0.8324998"><ele>0.0</ele><time>2026-04-29T13:12:01.073Z</time></trkpt><trkpt lat="37.264612" lon="-0.8324214"><ele>0.0</ele><time>2026-04-29T13:12:02.073Z</time></trkpt><trkpt lat="37.2646745" lon="-0.8323358"><ele>0.0</ele><time>2026-04-29T13:12:03.074Z</time></trkpt><trkpt lat="37.2647359" lon="-0.832246"><ele>0.0</ele><time>2026-04-29T13:12:04.074Z</time></trkpt><trkpt lat="37.2647963" lon="-0.8321617"><ele>0.0</ele><time>2026-04-29T13:12:05.074Z</time></trkpt><trkpt lat="37.2648564" lon="-0.8320781"><ele>0.0</ele><time>2026-04-29T13:12:06.074Z</time></trkpt><trkpt lat="37.264921" lon="-0.8319994"><ele>0.0</ele><time>2026-04-29T13:12:07.074Z</time></trkpt><trkpt lat="37.264982" lon="-0.8319285"><ele>0.0</ele><time>2026-04-29T13:12:08.074Z</time></trkpt><trkpt lat="37.2651039" lon="-0.8317681"><ele>0.0</ele><time>2026-04-29T13:12:10.073Z</time></trkpt><trkpt lat="37.2651635" lon="-0.8316838"><ele>0.0</ele><time>2026-04-29T13:12:11.074Z</time></trkpt><trkpt lat="37.2652191" lon="-0.8315947"><ele>0.0</ele><time>2026-04-29T13:12:12.074Z</time></trkpt><trkpt lat="37.2652823" lon="-0.8315177"><ele>0.0</ele><time>2026-04-29T13:12:13.073Z</time></trkpt><trkpt lat="37.2653402" lon="-0.8314411"><ele>0.0</ele><time>2026-04-29T13:12:14.073Z</time></trkpt><trkpt lat="37.2654088" lon="-0.8313643"><ele>0.0</ele><time>2026-04-29T13:12:15.073Z</time></trkpt><trkpt lat="37.2654729" lon="-0.831288"><ele>0.0</ele><time>2026-04-29T13:12:16.074Z</time></trkpt><trkpt lat="37.2655348" lon="-0.8312112"><ele>0.0</ele><time>2026-04-29T13:12:17.073Z</time></trkpt><trkpt lat="37.2655962" lon="-0.8311327"><ele>0.0</ele><time>2026-04-29T13:12:18.074Z</time></trkpt><trkpt lat="37.265655" lon="-0.8310544"><ele>0.0</ele><time>2026-04-29T13:12:19.074Z</time></trkpt><trkpt lat="37.2657118" lon="-0.8309791"><ele>0.0</ele><time>2026-04-29T13:12:20.074Z</time></trkpt><trkpt lat="37.2657578" lon="-0.8308984"><ele>0.0</ele><time>2026-04-29T13:12:21.074Z</time></trkpt><trkpt lat="37.2658113" lon="-0.8308167"><ele>0.0</ele><time>2026-04-29T13:12:22.074Z</time></trkpt><trkpt lat="37.2658758" lon="-0.8307352"><ele>0.0</ele><time>2026-04-29T13:12:23.074Z</time></trkpt><trkpt lat="37.2659338" lon="-0.830652"><ele>0.0</ele><time>2026-04-29T13:12:24.074Z</time></trkpt><trkpt lat="37.2659936" lon="-0.8305632"><ele>0.0</ele><time>2026-04-29T13:12:25.073Z</time></trkpt><trkpt lat="37.2660602" lon="-0.8304728"><ele>0.0</ele><time>2026-04-29T13:12:26.074Z</time></trkpt><trkpt lat="37.2661186" lon="-0.8303912"><ele>0.0</ele><time>2026-04-29T13:12:27.074Z</time></trkpt><trkpt lat="37.2661711" lon="-0.8303124"><ele>0.0</ele><time>2026-04-29T13:12:28.074Z</time></trkpt><trkpt lat="37.2662359" lon="-0.8302259"><ele>0.0</ele><time>2026-04-29T13:12:29.074Z</time></trkpt><trkpt lat="37.2663416" lon="-0.8300555"><ele>0.0</ele><time>2026-04-29T13:12:31.074Z</time></trkpt><trkpt lat="37.2664015" lon="-0.8299706"><ele>0.0</ele><time>2026-04-29T13:12:32.073Z</time></trkpt><trkpt lat="37.2664559" lon="-0.8298869"><ele>0.0</ele><time>2026-04-29T13:12:33.074Z</time></trkpt><trkpt lat="37.2665106" lon="-0.8298047"><ele>0.0</ele><time>2026-04-29T13:12:34.073Z</time></trkpt><trkpt lat="37.266574" lon="-0.8297301"><ele>0.0</ele><time>2026-04-29T13:12:35.073Z</time></trkpt><trkpt lat="37.2666329" lon="-0.8296525"><ele>0.0</ele><time>2026-04-29T13:12:36.074Z</time></trkpt><trkpt lat="37.2666931" lon="-0.8295704"><ele>0.0</ele><time>2026-04-29T13:12:37.074Z</time></trkpt><trkpt lat="37.266756" lon="-0.8294883"><ele>0.0</ele><time>2026-04-29T13:12:38.074Z</time></trkpt><trkpt lat="37.2668223" lon="-0.8294071"><ele>0.0</ele><time>2026-04-29T13:12:39.074Z</time></trkpt><trkpt lat="37.2668889" lon="-0.8293181"><ele>0.0</ele><time>2026-04-29T13:12:40.073Z</time></trkpt><trkpt lat="37.2669497" lon="-0.8292383"><ele>0.0</ele><time>2026-04-29T13:12:41.074Z</time></trkpt><trkpt lat="37.2670026" lon="-0.829161"><ele>0.0</ele><time>2026-04-29T13:12:42.074Z</time></trkpt><trkpt lat="37.2670555" lon="-0.8290815"><ele>0.0</ele><time>2026-04-29T13:12:43.074Z</time></trkpt><trkpt lat="37.2671162" lon="-0.8289973"><ele>0.0</ele><time>2026-04-29T13:12:44.073Z</time></trkpt><trkpt lat="37.267167" lon="-0.8289195"><ele>0.0</ele><time>2026-04-29T13:12:45.073Z</time></trkpt><trkpt lat="37.2672212" lon="-0.8288443"><ele>0.0</ele><time>2026-04-29T13:12:46.074Z</time></trkpt><trkpt lat="37.2672747" lon="-0.828772"><ele>0.0</ele><time>2026-04-29T13:12:47.074Z</time></trkpt><trkpt lat="37.2673281" lon="-0.8286914"><ele>0.0</ele><time>2026-04-29T13:12:48.074Z</time></trkpt><trkpt lat="37.2673797" lon="-0.8286102"><ele>0.0</ele><time>2026-04-29T13:12:49.074Z</time></trkpt><trkpt lat="37.2674441" lon="-0.8285356"><ele>0.0</ele><time>2026-04-29T13:12:50.073Z</time></trkpt><trkpt lat="37.2675665" lon="-0.8283749"><ele>0.0</ele><time>2026-04-29T13:12:52.073Z</time></trkpt><trkpt lat="37.2676318" lon="-0.8282909"><ele>0.0</ele><time>2026-04-29T13:12:53.074Z</time></trkpt><trkpt lat="37.2676944" lon="-0.8282059"><ele>0.0</ele><time>2026-04-29T13:12:54.073Z</time></trkpt><trkpt lat="37.2677593" lon="-0.8281152"><ele>0.0</ele><time>2026-04-29T13:12:55.074Z</time></trkpt><trkpt lat="37.2678187" lon="-0.8280293"><ele>0.0</ele><time>2026-04-29T13:12:56.074Z</time></trkpt><trkpt lat="37.2678782" lon="-0.8279468"><ele>0.0</ele><time>2026-04-29T13:12:57.073Z</time></trkpt><trkpt lat="37.2679385" lon="-0.8278635"><ele>0.0</ele><time>2026-04-29T13:12:58.074Z</time></trkpt><trkpt lat="37.2679931" lon="-0.8277903"><ele>0.0</ele><time>2026-04-29T13:12:59.073Z</time></trkpt><trkpt lat="37.2680493" lon="-0.8277142"><ele>0.0</ele><time>2026-04-29T13:13:00.074Z</time></trkpt><trkpt lat="37.2681058" lon="-0.8276332"><ele>0.0</ele><time>2026-04-29T13:13:01.073Z</time></trkpt><trkpt lat="37.2681634" lon="-0.8275461"><ele>0.0</ele><time>2026-04-29T13:13:02.074Z</time></trkpt><trkpt lat="37.2682261" lon="-0.8274582"><ele>0.0</ele><time>2026-04-29T13:13:03.073Z</time></trkpt><trkpt lat="37.2682876" lon="-0.8273669"><ele>0.0</ele><time>2026-04-29T13:13:04.073Z</time></trkpt><trkpt lat="37.268343" lon="-0.8272764"><ele>0.0</ele><time>2026-04-29T13:13:05.074Z</time></trkpt><trkpt lat="37.2684195" lon="-0.8271965"><ele>0.0</ele><time>2026-04-29T13:13:06.073Z</time></trkpt><trkpt lat="37.2684855" lon="-0.8271138"><ele>0.0</ele><time>2026-04-29T13:13:07.073Z</time></trkpt><trkpt lat="37.2685483" lon="-0.8270392"><ele>0.0</ele><time>2026-04-29T13:13:08.073Z</time></trkpt><trkpt lat="37.2686086" lon="-0.8269598"><ele>0.0</ele><time>2026-04-29T13:13:09.073Z</time></trkpt><trkpt lat="37.2686697" lon="-0.8268771"><ele>0.0</ele><time>2026-04-29T13:13:10.073Z</time></trkpt><trkpt lat="37.2687314" lon="-0.8267938"><ele>0.0</ele><time>2026-04-29T13:13:11.074Z</time></trkpt><trkpt lat="37.2688565" lon="-0.8266286"><ele>0.0</ele><time>2026-04-29T13:13:13.073Z</time></trkpt><trkpt lat="37.2689111" lon="-0.8265446"><ele>0.0</ele><time>2026-04-29T13:13:14.073Z</time></trkpt><trkpt lat="37.2689648" lon="-0.8264705"><ele>0.0</ele><time>2026-04-29T13:13:15.074Z</time></trkpt><trkpt lat="37.2690163" lon="-0.8263968"><ele>0.0</ele><time>2026-04-29T13:13:16.074Z</time></trkpt><trkpt lat="37.2690746" lon="-0.8263193"><ele>0.0</ele><time>2026-04-29T13:13:17.073Z</time></trkpt><trkpt lat="37.2691347" lon="-0.8262355"><ele>0.0</ele><time>2026-04-29T13:13:18.073Z</time></trkpt><trkpt lat="37.2691933" lon="-0.8261604"><ele>0.0</ele><time>2026-04-29T13:13:19.074Z</time></trkpt><trkpt lat="37.2692548" lon="-0.8260798"><ele>0.0</ele><time>2026-04-29T13:13:20.073Z</time></trkpt><trkpt lat="37.2693176" lon="-0.825994"><ele>0.0</ele><time>2026-04-29T13:13:21.074Z</time></trkpt><trkpt lat="37.269374" lon="-0.8259089"><ele>0.0</ele><time>2026-04-29T13:13:22.074Z</time></trkpt><trkpt lat="37.2694316" lon="-0.8258238"><ele>0.0</ele><time>2026-04-29T13:13:23.073Z</time></trkpt><trkpt lat="37.2694943" lon="-0.8257416"><ele>0.0</ele><time>2026-04-29T13:13:24.073Z</time></trkpt><trkpt lat="37.2695574" lon="-0.82566"><ele>0.0</ele><time>2026-04-29T13:13:25.074Z</time></trkpt><trkpt lat="37.2696133" lon="-0.8255784"><ele>0.0</ele><time>2026-04-29T13:13:26.073Z</time></trkpt><trkpt lat="37.2696676" lon="-0.8254955"><ele>0.0</ele><time>2026-04-29T13:13:27.074Z</time></trkpt><trkpt lat="37.2697266" lon="-0.825411"><ele>0.0</ele><time>2026-04-29T13:13:28.073Z</time></trkpt><trkpt lat="37.2697938" lon="-0.8253342"><ele>0.0</ele><time>2026-04-29T13:13:29.073Z</time></trkpt><trkpt lat="37.2698645" lon="-0.8252574"><ele>0.0</ele><time>2026-04-29T13:13:30.074Z</time></trkpt><trkpt lat="37.2699289" lon="-0.825178"><ele>0.0</ele><time>2026-04-29T13:13:31.074Z</time></trkpt><trkpt lat="37.2699838" lon="-0.8250978"><ele>0.0</ele><time>2026-04-29T13:13:32.073Z</time></trkpt><trkpt lat="37.2700862" lon="-0.824943"><ele>0.0</ele><time>2026-04-29T13:13:34.074Z</time></trkpt><trkpt lat="37.2701425" lon="-0.8248545"><ele>0.0</ele><time>2026-04-29T13:13:35.073Z</time></trkpt><trkpt lat="37.2702018" lon="-0.8247691"><ele>0.0</ele><time>2026-04-29T13:13:36.073Z</time></trkpt><trkpt lat="37.2702518" lon="-0.8246936"><ele>0.0</ele><time>2026-04-29T13:13:37.073Z</time></trkpt><trkpt lat="37.2703117" lon="-0.8246119"><ele>0.0</ele><time>2026-04-29T13:13:38.074Z</time></trkpt><trkpt lat="37.2703732" lon="-0.8245304"><ele>0.0</ele><time>2026-04-29T13:13:39.073Z</time></trkpt><trkpt lat="37.2704318" lon="-0.8244474"><ele>0.0</ele><time>2026-04-29T13:13:40.073Z</time></trkpt><trkpt lat="37.2704884" lon="-0.8243565"><ele>0.0</ele><time>2026-04-29T13:13:41.074Z</time></trkpt><trkpt lat="37.2705453" lon="-0.8242707"><ele>0.0</ele><time>2026-04-29T13:13:42.073Z</time></trkpt><trkpt lat="37.2706008" lon="-0.8241858"><ele>0.0</ele><time>2026-04-29T13:13:43.074Z</time></trkpt><trkpt lat="37.2706599" lon="-0.8241063"><ele>0.0</ele><time>2026-04-29T13:13:44.073Z</time></trkpt><trkpt lat="37.2707256" lon="-0.8240209"><ele>0.0</ele><time>2026-04-29T13:13:45.074Z</time></trkpt><trkpt lat="37.2707738" lon="-0.8239443"><ele>0.0</ele><time>2026-04-29T13:13:46.073Z</time></trkpt><trkpt lat="37.2708292" lon="-0.8238589"><ele>0.0</ele><time>2026-04-29T13:13:47.074Z</time></trkpt><trkpt lat="37.2708813" lon="-0.8237711"><ele>0.0</ele><time>2026-04-29T13:13:48.074Z</time></trkpt><trkpt lat="37.2709404" lon="-0.8236845"><ele>0.0</ele><time>2026-04-29T13:13:49.074Z</time></trkpt><trkpt lat="37.2710075" lon="-0.8236094"><ele>0.0</ele><time>2026-04-29T13:13:50.073Z</time></trkpt><trkpt lat="37.271077" lon="-0.8235311"><ele>0.0</ele><time>2026-04-29T13:13:51.074Z</time></trkpt><trkpt lat="37.2711468" lon="-0.82346"><ele>0.0</ele><time>2026-04-29T13:13:52.074Z</time></trkpt><trkpt lat="37.2712028" lon="-0.8233715"><ele>0.0</ele><time>2026-04-29T13:13:53.073Z</time></trkpt><trkpt lat="37.2713155" lon="-0.8232144"><ele>0.0</ele><time>2026-04-29T13:13:55.073Z</time></trkpt><trkpt lat="37.2713818" lon="-0.8231371"><ele>0.0</ele><time>2026-04-29T13:13:56.073Z</time></trkpt><trkpt lat="37.271439" lon="-0.8230606"><ele>0.0</ele><time>2026-04-29T13:13:57.073Z</time></trkpt><trkpt lat="37.271497" lon="-0.82298"><ele>0.0</ele><time>2026-04-29T13:13:58.073Z</time></trkpt><trkpt lat="37.271554" lon="-0.8228913"><ele>0.0</ele><time>2026-04-29T13:13:59.074Z</time></trkpt><trkpt lat="37.2716107" lon="-0.8228072"><ele>0.0</ele><time>2026-04-29T13:14:00.073Z</time></trkpt><trkpt lat="37.2716715" lon="-0.8227267"><ele>0.0</ele><time>2026-04-29T13:14:01.073Z</time></trkpt><trkpt lat="37.2717345" lon="-0.8226464"><ele>0.0</ele><time>2026-04-29T13:14:02.073Z</time></trkpt><trkpt lat="37.2717975" lon="-0.8225664"><ele>0.0</ele><time>2026-04-29T13:14:03.074Z</time></trkpt><trkpt lat="37.2718569" lon="-0.8224906"><ele>0.0</ele><time>2026-04-29T13:14:04.073Z</time></trkpt><trkpt lat="37.2719157" lon="-0.8224085"><ele>0.0</ele><time>2026-04-29T13:14:05.073Z</time></trkpt><trkpt lat="37.2719769" lon="-0.8223282"><ele>0.0</ele><time>2026-04-29T13:14:06.073Z</time></trkpt><trkpt lat="37.2720329" lon="-0.8222471"><ele>0.0</ele><time>2026-04-29T13:14:07.073Z</time></trkpt><trkpt lat="37.2720906" lon="-0.8221584"><ele>0.0</ele><time>2026-04-29T13:14:08.074Z</time></trkpt><trkpt lat="37.2721569" lon="-0.8220752"><ele>0.0</ele><time>2026-04-29T13:14:09.073Z</time></trkpt><trkpt lat="37.2722175" lon="-0.8219935"><ele>0.0</ele><time>2026-04-29T13:14:10.074Z</time></trkpt><trkpt lat="37.2722894" lon="-0.821919"><ele>0.0</ele><time>2026-04-29T13:14:11.074Z</time></trkpt><trkpt lat="37.2723399" lon="-0.821838"><ele>0.0</ele><time>2026-04-29T13:14:12.074Z</time></trkpt><trkpt lat="37.2723931" lon="-0.8217551"><ele>0.0</ele><time>2026-04-29T13:14:13.073Z</time></trkpt><trkpt lat="37.2724503" lon="-0.8216662"><ele>0.0</ele><time>2026-04-29T13:14:14.073Z</time></trkpt><trkpt lat="37.272573" lon="-0.8215067"><ele>0.0</ele><time>2026-04-29T13:14:16.074Z</time></trkpt><trkpt lat="37.2726304" lon="-0.8214224"><ele>0.0</ele><time>2026-04-29T13:14:17.074Z</time></trkpt><trkpt lat="37.2726871" lon="-0.8213387"><ele>0.0</ele><time>2026-04-29T13:14:18.073Z</time></trkpt><trkpt lat="37.2727341" lon="-0.8212568"><ele>0.0</ele><time>2026-04-29T13:14:19.073Z</time></trkpt><trkpt lat="37.2727947" lon="-0.8211749"><ele>0.0</ele><time>2026-04-29T13:14:20.073Z</time></trkpt><trkpt lat="37.2728535" lon="-0.8210944"><ele>0.0</ele><time>2026-04-29T13:14:21.074Z</time></trkpt><trkpt lat="37.2729108" lon="-0.8210163"><ele>0.0</ele><time>2026-04-29T13:14:22.074Z</time></trkpt><trkpt lat="37.2729594" lon="-0.8209409"><ele>0.0</ele><time>2026-04-29T13:14:23.073Z</time></trkpt><trkpt lat="37.2730123" lon="-0.8208701"><ele>0.0</ele><time>2026-04-29T13:14:24.074Z</time></trkpt><trkpt lat="37.2730647" lon="-0.8207846"><ele>0.0</ele><time>2026-04-29T13:14:25.073Z</time></trkpt><trkpt lat="37.2731188" lon="-0.8207023"><ele>0.0</ele><time>2026-04-29T13:14:26.073Z</time></trkpt><trkpt lat="37.2731811" lon="-0.8206116"><ele>0.0</ele><time>2026-04-29T13:14:27.073Z</time></trkpt><trkpt lat="37.2732369" lon="-0.8205271"><ele>0.0</ele><time>2026-04-29T13:14:28.074Z</time></trkpt><trkpt lat="37.2732949" lon="-0.8204392"><ele>0.0</ele><time>2026-04-29T13:14:29.073Z</time></trkpt><trkpt lat="37.273356" lon="-0.8203552"><ele>0.0</ele><time>2026-04-29T13:14:30.074Z</time></trkpt><trkpt lat="37.2734151" lon="-0.8202675"><ele>0.0</ele><time>2026-04-29T13:14:31.073Z</time></trkpt><trkpt lat="37.2734751" lon="-0.8201781"><ele>0.0</ele><time>2026-04-29T13:14:32.073Z</time></trkpt><trkpt lat="37.2735309" lon="-0.8200967"><ele>0.0</ele><time>2026-04-29T13:14:33.074Z</time></trkpt><trkpt lat="37.2735845" lon="-0.8200155"><ele>0.0</ele><time>2026-04-29T13:14:34.073Z</time></trkpt><trkpt lat="37.2736424" lon="-0.8199336"><ele>0.0</ele><time>2026-04-29T13:14:35.074Z</time></trkpt><trkpt lat="37.2737711" lon="-0.8197797"><ele>0.0</ele><time>2026-04-29T13:14:37.074Z</time></trkpt><trkpt lat="37.2738349" lon="-0.8196971"><ele>0.0</ele><time>2026-04-29T13:14:38.073Z</time></trkpt><trkpt lat="37.2739058" lon="-0.8196195"><ele>0.0</ele><time>2026-04-29T13:14:39.074Z</time></trkpt><trkpt lat="37.2739593" lon="-0.81954"><ele>0.0</ele><time>2026-04-29T13:14:40.074Z</time></trkpt><trkpt lat="37.2740197" lon="-0.8194671"><ele>0.0</ele><time>2026-04-29T13:14:41.073Z</time></trkpt><trkpt lat="37.2740816" lon="-0.8193868"><ele>0.0</ele><time>2026-04-29T13:14:42.073Z</time></trkpt><trkpt lat="37.274138" lon="-0.8193067"><ele>0.0</ele><time>2026-04-29T13:14:43.074Z</time></trkpt><trkpt lat="37.2741918" lon="-0.8192268"><ele>0.0</ele><time>2026-04-29T13:14:44.073Z</time></trkpt><trkpt lat="37.2742478" lon="-0.8191484"><ele>0.0</ele><time>2026-04-29T13:14:45.073Z</time></trkpt><trkpt lat="37.2743039" lon="-0.8190729"><ele>0.0</ele><time>2026-04-29T13:14:46.074Z</time></trkpt><trkpt lat="37.2743633" lon="-0.818989"><ele>0.0</ele><time>2026-04-29T13:14:47.074Z</time></trkpt><trkpt lat="37.2744232" lon="-0.818907"><ele>0.0</ele><time>2026-04-29T13:14:48.073Z</time></trkpt><trkpt lat="37.2744919" lon="-0.8188282"><ele>0.0</ele><time>2026-04-29T13:14:49.073Z</time></trkpt><trkpt lat="37.2745596" lon="-0.8187568"><ele>0.0</ele><time>2026-04-29T13:14:50.074Z</time></trkpt><trkpt lat="37.2746261" lon="-0.8186842"><ele>0.0</ele><time>2026-04-29T13:14:51.074Z</time></trkpt><trkpt lat="37.2746927" lon="-0.8186039"><ele>0.0</ele><time>2026-04-29T13:14:52.073Z</time></trkpt><trkpt lat="37.2747563" lon="-0.8185206"><ele>0.0</ele><time>2026-04-29T13:14:53.073Z</time></trkpt><trkpt lat="37.2748127" lon="-0.818446"><ele>0.0</ele><time>2026-04-29T13:14:54.074Z</time></trkpt><trkpt lat="37.2748676" lon="-0.8183678"><ele>0.0</ele><time>2026-04-29T13:14:55.074Z</time></trkpt><trkpt lat="37.2749237" lon="-0.8182782"><ele>0.0</ele><time>2026-04-29T13:14:56.074Z</time></trkpt><trkpt lat="37.2750367" lon="-0.8181031"><ele>0.0</ele><time>2026-04-29T13:14:58.073Z</time></trkpt><trkpt lat="37.2750908" lon="-0.8180216"><ele>0.0</ele><time>2026-04-29T13:14:59.074Z</time></trkpt><trkpt lat="37.27515" lon="-0.8179375"><ele>0.0</ele><time>2026-04-29T13:15:00.073Z</time></trkpt><trkpt lat="37.2752161" lon="-0.8178598"><ele>0.0</ele><time>2026-04-29T13:15:01.073Z</time></trkpt><trkpt lat="37.2752814" lon="-0.8177841"><ele>0.0</ele><time>2026-04-29T13:15:02.073Z</time></trkpt><trkpt lat="37.275339" lon="-0.8177006"><ele>0.0</ele><time>2026-04-29T13:15:03.074Z</time></trkpt><trkpt lat="37.275397" lon="-0.8176158"><ele>0.0</ele><time>2026-04-29T13:15:04.073Z</time></trkpt><trkpt lat="37.2754596" lon="-0.8175364"><ele>0.0</ele><time>2026-04-29T13:15:05.073Z</time></trkpt><trkpt lat="37.2755174" lon="-0.8174594"><ele>0.0</ele><time>2026-04-29T13:15:06.073Z</time></trkpt><trkpt lat="37.2755922" lon="-0.8173799"><ele>0.0</ele><time>2026-04-29T13:15:07.074Z</time></trkpt><trkpt lat="37.2756558" lon="-0.8172983"><ele>0.0</ele><time>2026-04-29T13:15:08.073Z</time></trkpt><trkpt lat="37.2757216" lon="-0.8172166"><ele>0.0</ele><time>2026-04-29T13:15:09.073Z</time></trkpt><trkpt lat="37.2757856" lon="-0.8171337"><ele>0.0</ele><time>2026-04-29T13:15:10.072Z</time></trkpt><trkpt lat="37.2758582" lon="-0.8170531"><ele>0.0</ele><time>2026-04-29T13:15:11.072Z</time></trkpt><trkpt lat="37.2759316" lon="-0.8169751"><ele>0.0</ele><time>2026-04-29T13:15:12.072Z</time></trkpt><trkpt lat="37.2759953" lon="-0.8168951"><ele>0.0</ele><time>2026-04-29T13:15:13.072Z</time></trkpt><trkpt lat="37.2760581" lon="-0.8168136"><ele>0.0</ele><time>2026-04-29T13:15:14.072Z</time></trkpt><trkpt lat="37.276117" lon="-0.816735"><ele>0.0</ele><time>2026-04-29T13:15:15.072Z</time></trkpt><trkpt lat="37.276175" lon="-0.8166534"><ele>0.0</ele><time>2026-04-29T13:15:16.072Z</time></trkpt><trkpt lat="37.2762275" lon="-0.8165717"><ele>0.0</ele><time>2026-04-29T13:15:17.073Z</time></trkpt><trkpt lat="37.2763451" lon="-0.8164018"><ele>0.0</ele><time>2026-04-29T13:15:19.073Z</time></trkpt><trkpt lat="37.2763977" lon="-0.8163141"><ele>0.0</ele><time>2026-04-29T13:15:20.073Z</time></trkpt><trkpt lat="37.2764584" lon="-0.8162291"><ele>0.0</ele><time>2026-04-29T13:15:21.072Z</time></trkpt><trkpt lat="37.2765269" lon="-0.8161524"><ele>0.0</ele><time>2026-04-29T13:15:22.073Z</time></trkpt><trkpt lat="37.2765898" lon="-0.8160741"><ele>0.0</ele><time>2026-04-29T13:15:23.073Z</time></trkpt><trkpt lat="37.2766487" lon="-0.8160048"><ele>0.0</ele><time>2026-04-29T13:15:24.073Z</time></trkpt><trkpt lat="37.2767053" lon="-0.8159206"><ele>0.0</ele><time>2026-04-29T13:15:25.072Z</time></trkpt><trkpt lat="37.2767724" lon="-0.8158315"><ele>0.0</ele><time>2026-04-29T13:15:26.072Z</time></trkpt><trkpt lat="37.2768277" lon="-0.815743"><ele>0.0</ele><time>2026-04-29T13:15:27.072Z</time></trkpt><trkpt lat="37.276891" lon="-0.8156562"><ele>0.0</ele><time>2026-04-29T13:15:28.072Z</time></trkpt><trkpt lat="37.2769461" lon="-0.815579"><ele>0.0</ele><time>2026-04-29T13:15:29.072Z</time></trkpt><trkpt lat="37.2769983" lon="-0.8155023"><ele>0.0</ele><time>2026-04-29T13:15:30.073Z</time></trkpt><trkpt lat="37.2770496" lon="-0.8154159"><ele>0.0</ele><time>2026-04-29T13:15:31.072Z</time></trkpt><trkpt lat="37.2771095" lon="-0.8153277"><ele>0.0</ele><time>2026-04-29T13:15:32.073Z</time></trkpt><trkpt lat="37.2771694" lon="-0.8152399"><ele>0.0</ele><time>2026-04-29T13:15:33.072Z</time></trkpt><trkpt lat="37.2772237" lon="-0.8151587"><ele>0.0</ele><time>2026-04-29T13:15:34.072Z</time></trkpt><trkpt lat="37.2772815" lon="-0.8150795"><ele>0.0</ele><time>2026-04-29T13:15:35.073Z</time></trkpt><trkpt lat="37.2773413" lon="-0.8150009"><ele>0.0</ele><time>2026-04-29T13:15:36.072Z</time></trkpt><trkpt lat="37.2773914" lon="-0.8149211"><ele>0.0</ele><time>2026-04-29T13:15:37.072Z</time></trkpt><trkpt lat="37.2774542" lon="-0.8148398"><ele>0.0</ele><time>2026-04-29T13:15:38.072Z</time></trkpt><trkpt lat="37.2775767" lon="-0.8146684"><ele>0.0</ele><time>2026-04-29T13:15:40.072Z</time></trkpt><trkpt lat="37.2776387" lon="-0.8145882"><ele>0.0</ele><time>2026-04-29T13:15:41.073Z</time></trkpt><trkpt lat="37.2776957" lon="-0.814508"><ele>0.0</ele><time>2026-04-29T13:15:42.073Z</time></trkpt><trkpt lat="37.2777478" lon="-0.8144277"><ele>0.0</ele><time>2026-04-29T13:15:43.073Z</time></trkpt><trkpt lat="37.2777993" lon="-0.8143366"><ele>0.0</ele><time>2026-04-29T13:15:44.073Z</time></trkpt><trkpt lat="37.2778624" lon="-0.8142505"><ele>0.0</ele><time>2026-04-29T13:15:45.072Z</time></trkpt><trkpt lat="37.2779233" lon="-0.8141712"><ele>0.0</ele><time>2026-04-29T13:15:46.073Z</time></trkpt><trkpt lat="37.2779816" lon="-0.8140939"><ele>0.0</ele><time>2026-04-29T13:15:47.073Z</time></trkpt><trkpt lat="37.2780402" lon="-0.8140161"><ele>0.0</ele><time>2026-04-29T13:15:48.072Z</time></trkpt><trkpt lat="37.2780951" lon="-0.8139347"><ele>0.0</ele><time>2026-04-29T13:15:49.073Z</time></trkpt><trkpt lat="37.2781561" lon="-0.8138517"><ele>0.0</ele><time>2026-04-29T13:15:50.072Z</time></trkpt><trkpt lat="37.278215" lon="-0.8137685"><ele>0.0</ele><time>2026-04-29T13:15:51.073Z</time></trkpt><trkpt lat="37.2782722" lon="-0.8136822"><ele>0.0</ele><time>2026-04-29T13:15:52.072Z</time></trkpt><trkpt lat="37.2783245" lon="-0.8135973"><ele>0.0</ele><time>2026-04-29T13:15:53.073Z</time></trkpt><trkpt lat="37.278376" lon="-0.8135164"><ele>0.0</ele><time>2026-04-29T13:15:54.073Z</time></trkpt><trkpt lat="37.2784277" lon="-0.8134376"><ele>0.0</ele><time>2026-04-29T13:15:55.072Z</time></trkpt><trkpt lat="37.2784764" lon="-0.8133509"><ele>0.0</ele><time>2026-04-29T13:15:56.072Z</time></trkpt><trkpt lat="37.2785336" lon="-0.813267"><ele>0.0</ele><time>2026-04-29T13:15:57.072Z</time></trkpt><trkpt lat="37.2785975" lon="-0.8131834"><ele>0.0</ele><time>2026-04-29T13:15:58.073Z</time></trkpt><trkpt lat="37.2786554" lon="-0.8131019"><ele>0.0</ele><time>2026-04-29T13:15:59.073Z</time></trkpt><trkpt lat="37.2787695" lon="-0.8129449"><ele>0.0</ele><time>2026-04-29T13:16:01.072Z</time></trkpt><trkpt lat="37.278828" lon="-0.8128618"><ele>0.0</ele><time>2026-04-29T13:16:02.072Z</time></trkpt><trkpt lat="37.278885" lon="-0.8127715"><ele>0.0</ele><time>2026-04-29T13:16:03.073Z</time></trkpt><trkpt lat="37.2789375" lon="-0.8126898"><ele>0.0</ele><time>2026-04-29T13:16:04.073Z</time></trkpt><trkpt lat="37.2789953" lon="-0.8126169"><ele>0.0</ele><time>2026-04-29T13:16:05.073Z</time></trkpt><trkpt lat="37.2790547" lon="-0.8125347"><ele>0.0</ele><time>2026-04-29T13:16:06.073Z</time></trkpt><trkpt lat="37.2791119" lon="-0.8124533"><ele>0.0</ele><time>2026-04-29T13:16:07.072Z</time></trkpt><trkpt lat="37.2791717" lon="-0.8123757"><ele>0.0</ele><time>2026-04-29T13:16:08.072Z</time></trkpt><trkpt lat="37.2792413" lon="-0.812299"><ele>0.0</ele><time>2026-04-29T13:16:09.073Z</time></trkpt><trkpt lat="37.2793073" lon="-0.8122154"><ele>0.0</ele><time>2026-04-29T13:16:10.073Z</time></trkpt><trkpt lat="37.2793667" lon="-0.8121361"><ele>0.0</ele><time>2026-04-29T13:16:11.073Z</time></trkpt><trkpt lat="37.2794251" lon="-0.812058"><ele>0.0</ele><time>2026-04-29T13:16:12.072Z</time></trkpt><trkpt lat="37.2794892" lon="-0.8119739"><ele>0.0</ele><time>2026-04-29T13:16:13.073Z</time></trkpt><trkpt lat="37.2795526" lon="-0.8119"><ele>0.0</ele><time>2026-04-29T13:16:14.073Z</time></trkpt><trkpt lat="37.2796174" lon="-0.8118298"><ele>0.0</ele><time>2026-04-29T13:16:15.072Z</time></trkpt><trkpt lat="37.2796843" lon="-0.8117543"><ele>0.0</ele><time>2026-04-29T13:16:16.072Z</time></trkpt><trkpt lat="37.2797424" lon="-0.8116721"><ele>0.0</ele><time>2026-04-29T13:16:17.073Z</time></trkpt><trkpt lat="37.2798024" lon="-0.8115946"><ele>0.0</ele><time>2026-04-29T13:16:18.072Z</time></trkpt><trkpt lat="37.2798637" lon="-0.8115111"><ele>0.0</ele><time>2026-04-29T13:16:19.072Z</time></trkpt><trkpt lat="37.2799364" lon="-0.8114318"><ele>0.0</ele><time>2026-04-29T13:16:20.072Z</time></trkpt><trkpt lat="37.2800601" lon="-0.8112656"><ele>0.0</ele><time>2026-04-29T13:16:22.072Z</time></trkpt><trkpt lat="37.2801203" lon="-0.8111836"><ele>0.0</ele><time>2026-04-29T13:16:23.073Z</time></trkpt><trkpt lat="37.28018" lon="-0.8111033"><ele>0.0</ele><time>2026-04-29T13:16:24.073Z</time></trkpt><trkpt lat="37.2802331" lon="-0.8110206"><ele>0.0</ele><time>2026-04-29T13:16:25.072Z</time></trkpt><trkpt lat="37.2802864" lon="-0.8109388"><ele>0.0</ele><time>2026-04-29T13:16:26.072Z</time></trkpt><trkpt lat="37.2803485" lon="-0.8108627"><ele>0.0</ele><time>2026-04-29T13:16:27.073Z</time></trkpt><trkpt lat="37.2804059" lon="-0.8107863"><ele>0.0</ele><time>2026-04-29T13:16:28.072Z</time></trkpt><trkpt lat="37.2804699" lon="-0.8107071"><ele>0.0</ele><time>2026-04-29T13:16:29.072Z</time></trkpt><trkpt lat="37.2805291" lon="-0.8106268"><ele>0.0</ele><time>2026-04-29T13:16:30.073Z</time></trkpt><trkpt lat="37.2805901" lon="-0.810541"><ele>0.0</ele><time>2026-04-29T13:16:31.073Z</time></trkpt><trkpt lat="37.280653" lon="-0.8104574"><ele>0.0</ele><time>2026-04-29T13:16:32.073Z</time></trkpt><trkpt lat="37.2807137" lon="-0.810377"><ele>0.0</ele><time>2026-04-29T13:16:33.072Z</time></trkpt><trkpt lat="37.280775" lon="-0.8102986"><ele>0.0</ele><time>2026-04-29T13:16:34.072Z</time></trkpt><trkpt lat="37.2808357" lon="-0.8102228"><ele>0.0</ele><time>2026-04-29T13:16:35.073Z</time></trkpt><trkpt lat="37.280884" lon="-0.8101391"><ele>0.0</ele><time>2026-04-29T13:16:36.072Z</time></trkpt><trkpt lat="37.2809406" lon="-0.8100602"><ele>0.0</ele><time>2026-04-29T13:16:37.072Z</time></trkpt><trkpt lat="37.2810031" lon="-0.8099777"><ele>0.0</ele><time>2026-04-29T13:16:38.072Z</time></trkpt><trkpt lat="37.281055" lon="-0.8098959"><ele>0.0</ele><time>2026-04-29T13:16:39.072Z</time></trkpt><trkpt lat="37.2811108" lon="-0.8098084"><ele>0.0</ele><time>2026-04-29T13:16:40.073Z</time></trkpt><trkpt lat="37.2811675" lon="-0.8097214"><ele>0.0</ele><time>2026-04-29T13:16:41.073Z</time></trkpt><trkpt lat="37.2812659" lon="-0.8095537"><ele>0.0</ele><time>2026-04-29T13:16:43.072Z</time></trkpt><trkpt lat="37.281315" lon="-0.809476"><ele>0.0</ele><time>2026-04-29T13:16:44.073Z</time></trkpt><trkpt lat="37.2813762" lon="-0.8093935"><ele>0.0</ele><time>2026-04-29T13:16:45.072Z</time></trkpt><trkpt lat="37.281436" lon="-0.8093192"><ele>0.0</ele><time>2026-04-29T13:16:46.073Z</time></trkpt><trkpt lat="37.2815003" lon="-0.8092354"><ele>0.0</ele><time>2026-04-29T13:16:47.072Z</time></trkpt><trkpt lat="37.2815683" lon="-0.8091551"><ele>0.0</ele><time>2026-04-29T13:16:48.072Z</time></trkpt><trkpt lat="37.2816315" lon="-0.809078"><ele>0.0</ele><time>2026-04-29T13:16:49.072Z</time></trkpt><trkpt lat="37.2816962" lon="-0.80901"><ele>0.0</ele><time>2026-04-29T13:16:50.073Z</time></trkpt><trkpt lat="37.2817555" lon="-0.8089204"><ele>0.0</ele><time>2026-04-29T13:16:51.073Z</time></trkpt><trkpt lat="37.2818096" lon="-0.8088331"><ele>0.0</ele><time>2026-04-29T13:16:52.073Z</time></trkpt><trkpt lat="37.2818652" lon="-0.808746"><ele>0.0</ele><time>2026-04-29T13:16:53.073Z</time></trkpt><trkpt lat="37.281923" lon="-0.8086593"><ele>0.0</ele><time>2026-04-29T13:16:54.073Z</time></trkpt><trkpt lat="37.2819797" lon="-0.8085725"><ele>0.0</ele><time>2026-04-29T13:16:55.073Z</time></trkpt><trkpt lat="37.2820349" lon="-0.8084859"><ele>0.0</ele><time>2026-04-29T13:16:56.073Z</time></trkpt><trkpt lat="37.2820947" lon="-0.8084135"><ele>0.0</ele><time>2026-04-29T13:16:57.073Z</time></trkpt><trkpt lat="37.2821479" lon="-0.8083276"><ele>0.0</ele><time>2026-04-29T13:16:58.073Z</time></trkpt><trkpt lat="37.282198" lon="-0.8082394"><ele>0.0</ele><time>2026-04-29T13:16:59.072Z</time></trkpt><trkpt lat="37.282252" lon="-0.8081552"><ele>0.0</ele><time>2026-04-29T13:17:00.072Z</time></trkpt><trkpt lat="37.2823086" lon="-0.8080734"><ele>0.0</ele><time>2026-04-29T13:17:01.072Z</time></trkpt><trkpt lat="37.2823698" lon="-0.8079931"><ele>0.0</ele><time>2026-04-29T13:17:02.073Z</time></trkpt><trkpt lat="37.2824982" lon="-0.8078329"><ele>0.0</ele><time>2026-04-29T13:17:04.072Z</time></trkpt><trkpt lat="37.2825545" lon="-0.8077633"><ele>0.0</ele><time>2026-04-29T13:17:05.073Z</time></trkpt><trkpt lat="37.282618" lon="-0.8076851"><ele>0.0</ele><time>2026-04-29T13:17:06.072Z</time></trkpt><trkpt lat="37.2826786" lon="-0.807608"><ele>0.0</ele><time>2026-04-29T13:17:07.072Z</time></trkpt><trkpt lat="37.2827382" lon="-0.8075283"><ele>0.0</ele><time>2026-04-29T13:17:08.073Z</time></trkpt><trkpt lat="37.2827983" lon="-0.80745"><ele>0.0</ele><time>2026-04-29T13:17:09.073Z</time></trkpt><trkpt lat="37.2828628" lon="-0.8073689"><ele>0.0</ele><time>2026-04-29T13:17:10.072Z</time></trkpt><trkpt lat="37.2829247" lon="-0.8072886"><ele>0.0</ele><time>2026-04-29T13:17:11.072Z</time></trkpt><trkpt lat="37.2830019" lon="-0.8072142"><ele>0.0</ele><time>2026-04-29T13:17:12.073Z</time></trkpt><trkpt lat="37.2830665" lon="-0.807135"><ele>0.0</ele><time>2026-04-29T13:17:13.073Z</time></trkpt><trkpt lat="37.2831258" lon="-0.807061"><ele>0.0</ele><time>2026-04-29T13:17:14.072Z</time></trkpt><trkpt lat="37.2831839" lon="-0.8069848"><ele>0.0</ele><time>2026-04-29T13:17:15.072Z</time></trkpt><trkpt lat="37.2832393" lon="-0.8069093"><ele>0.0</ele><time>2026-04-29T13:17:16.072Z</time></trkpt><trkpt lat="37.2832941" lon="-0.8068328"><ele>0.0</ele><time>2026-04-29T13:17:17.073Z</time></trkpt><trkpt lat="37.2833536" lon="-0.8067547"><ele>0.0</ele><time>2026-04-29T13:17:18.072Z</time></trkpt><trkpt lat="37.2834122" lon="-0.8066764"><ele>0.0</ele><time>2026-04-29T13:17:19.072Z</time></trkpt><trkpt lat="37.2834759" lon="-0.8065867"><ele>0.0</ele><time>2026-04-29T13:17:20.073Z</time></trkpt><trkpt lat="37.2835379" lon="-0.8064996"><ele>0.0</ele><time>2026-04-29T13:17:21.072Z</time></trkpt><trkpt lat="37.2835999" lon="-0.8064175"><ele>0.0</ele><time>2026-04-29T13:17:22.073Z</time></trkpt><trkpt lat="37.2836572" lon="-0.8063339"><ele>0.0</ele><time>2026-04-29T13:17:23.073Z</time></trkpt><trkpt lat="37.2837692" lon="-0.8061723"><ele>0.0</ele><time>2026-04-29T13:17:25.072Z</time></trkpt><trkpt lat="37.2838229" lon="-0.806092"><ele>0.0</ele><time>2026-04-29T13:17:26.072Z</time></trkpt><trkpt lat="37.2838928" lon="-0.8060092"><ele>0.0</ele><time>2026-04-29T13:17:27.073Z</time></trkpt><trkpt lat="37.2839532" lon="-0.8059255"><ele>0.0</ele><time>2026-04-29T13:17:28.072Z</time></trkpt><trkpt lat="37.2840121" lon="-0.8058424"><ele>0.0</ele><time>2026-04-29T13:17:29.073Z</time></trkpt><trkpt lat="37.2840762" lon="-0.8057661"><ele>0.0</ele><time>2026-04-29T13:17:30.072Z</time></trkpt><trkpt lat="37.2841424" lon="-0.8056937"><ele>0.0</ele><time>2026-04-29T13:17:31.072Z</time></trkpt><trkpt lat="37.2842021" lon="-0.8056151"><ele>0.0</ele><time>2026-04-29T13:17:32.072Z</time></trkpt><trkpt lat="37.2842677" lon="-0.8055368"><ele>0.0</ele><time>2026-04-29T13:17:33.072Z</time></trkpt><trkpt lat="37.2843313" lon="-0.8054553"><ele>0.0</ele><time>2026-04-29T13:17:34.072Z</time></trkpt><trkpt lat="37.2843916" lon="-0.8053707"><ele>0.0</ele><time>2026-04-29T13:17:35.072Z</time></trkpt><trkpt lat="37.2844462" lon="-0.8052986"><ele>0.0</ele><time>2026-04-29T13:17:36.072Z</time></trkpt><trkpt lat="37.2845008" lon="-0.8052213"><ele>0.0</ele><time>2026-04-29T13:17:37.072Z</time></trkpt><trkpt lat="37.284559" lon="-0.8051461"><ele>0.0</ele><time>2026-04-29T13:17:38.073Z</time></trkpt><trkpt lat="37.2846172" lon="-0.8050695"><ele>0.0</ele><time>2026-04-29T13:17:39.073Z</time></trkpt><trkpt lat="37.2846771" lon="-0.8049912"><ele>0.0</ele><time>2026-04-29T13:17:40.072Z</time></trkpt><trkpt lat="37.2847397" lon="-0.8049088"><ele>0.0</ele><time>2026-04-29T13:17:41.073Z</time></trkpt><trkpt lat="37.2848015" lon="-0.8048267"><ele>0.0</ele><time>2026-04-29T13:17:42.073Z</time></trkpt><trkpt lat="37.2848587" lon="-0.8047463"><ele>0.0</ele><time>2026-04-29T13:17:43.072Z</time></trkpt><trkpt lat="37.2849254" lon="-0.8046595"><ele>0.0</ele><time>2026-04-29T13:17:44.072Z</time></trkpt><trkpt lat="37.2850301" lon="-0.8045066"><ele>0.0</ele><time>2026-04-29T13:17:46.072Z</time></trkpt><trkpt lat="37.2850986" lon="-0.8044112"><ele>0.0</ele><time>2026-04-29T13:17:47.073Z</time></trkpt><trkpt lat="37.2851569" lon="-0.8043288"><ele>0.0</ele><time>2026-04-29T13:17:48.072Z</time></trkpt><trkpt lat="37.2852196" lon="-0.8042472"><ele>0.0</ele><time>2026-04-29T13:17:49.072Z</time></trkpt><trkpt lat="37.2852714" lon="-0.8041723"><ele>0.0</ele><time>2026-04-29T13:17:50.073Z</time></trkpt><trkpt lat="37.2853241" lon="-0.8040928"><ele>0.0</ele><time>2026-04-29T13:17:51.073Z</time></trkpt><trkpt lat="37.2854001" lon="-0.8040117"><ele>0.0</ele><time>2026-04-29T13:17:52.073Z</time></trkpt><trkpt lat="37.28546" lon="-0.803932"><ele>0.0</ele><time>2026-04-29T13:17:53.073Z</time></trkpt><trkpt lat="37.2855184" lon="-0.8038486"><ele>0.0</ele><time>2026-04-29T13:17:54.072Z</time></trkpt><trkpt lat="37.2855754" lon="-0.8037713"><ele>0.0</ele><time>2026-04-29T13:17:55.073Z</time></trkpt><trkpt lat="37.2856364" lon="-0.8036874"><ele>0.0</ele><time>2026-04-29T13:17:56.073Z</time></trkpt><trkpt lat="37.2856965" lon="-0.8036027"><ele>0.0</ele><time>2026-04-29T13:17:57.072Z</time></trkpt><trkpt lat="37.2857481" lon="-0.8035162"><ele>0.0</ele><time>2026-04-29T13:17:58.073Z</time></trkpt><trkpt lat="37.2857996" lon="-0.8034396"><ele>0.0</ele><time>2026-04-29T13:17:59.073Z</time></trkpt><trkpt lat="37.2858666" lon="-0.8033515"><ele>0.0</ele><time>2026-04-29T13:18:00.072Z</time></trkpt><trkpt lat="37.2859255" lon="-0.8032748"><ele>0.0</ele><time>2026-04-29T13:18:01.072Z</time></trkpt><trkpt lat="37.2859795" lon="-0.8032065"><ele>0.0</ele><time>2026-04-29T13:18:02.073Z</time></trkpt><trkpt lat="37.2860416" lon="-0.8031369"><ele>0.0</ele><time>2026-04-29T13:18:03.072Z</time></trkpt><trkpt lat="37.2861008" lon="-0.8030638"><ele>0.0</ele><time>2026-04-29T13:18:04.073Z</time></trkpt><trkpt lat="37.2861704" lon="-0.802992"><ele>0.0</ele><time>2026-04-29T13:18:05.073Z</time></trkpt><trkpt lat="37.2862825" lon="-0.8028262"><ele>0.0</ele><time>2026-04-29T13:18:07.073Z</time></trkpt><trkpt lat="37.2863445" lon="-0.8027509"><ele>0.0</ele><time>2026-04-29T13:18:08.073Z</time></trkpt><trkpt lat="37.2863965" lon="-0.8026662"><ele>0.0</ele><time>2026-04-29T13:18:09.073Z</time></trkpt><trkpt lat="37.2864439" lon="-0.8025782"><ele>0.0</ele><time>2026-04-29T13:18:10.072Z</time></trkpt><trkpt lat="37.2865034" lon="-0.8024958"><ele>0.0</ele><time>2026-04-29T13:18:11.073Z</time></trkpt><trkpt lat="37.2865595" lon="-0.8024139"><ele>0.0</ele><time>2026-04-29T13:18:12.072Z</time></trkpt><trkpt lat="37.2866157" lon="-0.8023324"><ele>0.0</ele><time>2026-04-29T13:18:13.072Z</time></trkpt><trkpt lat="37.2866736" lon="-0.8022493"><ele>0.0</ele><time>2026-04-29T13:18:14.072Z</time></trkpt><trkpt lat="37.286732" lon="-0.8021684"><ele>0.0</ele><time>2026-04-29T13:18:15.073Z</time></trkpt><trkpt lat="37.2867876" lon="-0.8020927"><ele>0.0</ele><time>2026-04-29T13:18:16.072Z</time></trkpt><trkpt lat="37.2868479" lon="-0.8020107"><ele>0.0</ele><time>2026-04-29T13:18:17.073Z</time></trkpt><trkpt lat="37.2869022" lon="-0.8019245"><ele>0.0</ele><time>2026-04-29T13:18:18.072Z</time></trkpt><trkpt lat="37.2869646" lon="-0.8018378"><ele>0.0</ele><time>2026-04-29T13:18:19.073Z</time></trkpt><trkpt lat="37.2870267" lon="-0.8017571"><ele>0.0</ele><time>2026-04-29T13:18:20.072Z</time></trkpt><trkpt lat="37.2870909" lon="-0.8016738"><ele>0.0</ele><time>2026-04-29T13:18:21.072Z</time></trkpt><trkpt lat="37.2871532" lon="-0.8015919"><ele>0.0</ele><time>2026-04-29T13:18:22.073Z</time></trkpt><trkpt lat="37.287215" lon="-0.8015103"><ele>0.0</ele><time>2026-04-29T13:18:23.072Z</time></trkpt><trkpt lat="37.2872767" lon="-0.8014286"><ele>0.0</ele><time>2026-04-29T13:18:24.072Z</time></trkpt><trkpt lat="37.2873371" lon="-0.8013496"><ele>0.0</ele><time>2026-04-29T13:18:25.073Z</time></trkpt><trkpt lat="37.2873951" lon="-0.8012698"><ele>0.0</ele><time>2026-04-29T13:18:26.072Z</time></trkpt><trkpt lat="37.2875146" lon="-0.8011077"><ele>0.0</ele><time>2026-04-29T13:18:28.072Z</time></trkpt><trkpt lat="37.2875766" lon="-0.8010254"><ele>0.0</ele><time>2026-04-29T13:18:29.072Z</time></trkpt><trkpt lat="37.2876339" lon="-0.8009463"><ele>0.0</ele><time>2026-04-29T13:18:30.073Z</time></trkpt><trkpt lat="37.287688" lon="-0.8008709"><ele>0.0</ele><time>2026-04-29T13:18:31.072Z</time></trkpt><trkpt lat="37.2877439" lon="-0.8007842"><ele>0.0</ele><time>2026-04-29T13:18:32.072Z</time></trkpt><trkpt lat="37.2878062" lon="-0.8007048"><ele>0.0</ele><time>2026-04-29T13:18:33.073Z</time></trkpt><trkpt lat="37.2878649" lon="-0.8006279"><ele>0.0</ele><time>2026-04-29T13:18:34.073Z</time></trkpt><trkpt lat="37.2879305" lon="-0.8005498"><ele>0.0</ele><time>2026-04-29T13:18:35.073Z</time></trkpt><trkpt lat="37.2879974" lon="-0.800467"><ele>0.0</ele><time>2026-04-29T13:18:36.072Z</time></trkpt><trkpt lat="37.2880539" lon="-0.8003825"><ele>0.0</ele><time>2026-04-29T13:18:37.073Z</time></trkpt><trkpt lat="37.2881091" lon="-0.8003003"><ele>0.0</ele><time>2026-04-29T13:18:38.072Z</time></trkpt><trkpt lat="37.2881743" lon="-0.8002186"><ele>0.0</ele><time>2026-04-29T13:18:39.073Z</time></trkpt><trkpt lat="37.288232" lon="-0.800144"><ele>0.0</ele><time>2026-04-29T13:18:40.073Z</time></trkpt><trkpt lat="37.2882887" lon="-0.8000702"><ele>0.0</ele><time>2026-04-29T13:18:41.073Z</time></trkpt><trkpt lat="37.2883428" lon="-0.7999885"><ele>0.0</ele><time>2026-04-29T13:18:42.072Z</time></trkpt><trkpt lat="37.2884101" lon="-0.7998996"><ele>0.0</ele><time>2026-04-29T13:18:43.073Z</time></trkpt><trkpt lat="37.2884672" lon="-0.7998198"><ele>0.0</ele><time>2026-04-29T13:18:44.073Z</time></trkpt><trkpt lat="37.2885254" lon="-0.7997356"><ele>0.0</ele><time>2026-04-29T13:18:45.073Z</time></trkpt><trkpt lat="37.2885823" lon="-0.7996479"><ele>0.0</ele><time>2026-04-29T13:18:46.072Z</time></trkpt><trkpt lat="37.288636" lon="-0.7995623"><ele>0.0</ele><time>2026-04-29T13:18:47.072Z</time></trkpt><trkpt lat="37.2887424" lon="-0.7994025"><ele>0.0</ele><time>2026-04-29T13:18:49.073Z</time></trkpt><trkpt lat="37.2887945" lon="-0.79933"><ele>0.0</ele><time>2026-04-29T13:18:50.073Z</time></trkpt><trkpt lat="37.2888536" lon="-0.7992496"><ele>0.0</ele><time>2026-04-29T13:18:51.073Z</time></trkpt><trkpt lat="37.2889173" lon="-0.7991698"><ele>0.0</ele><time>2026-04-29T13:18:52.073Z</time></trkpt><trkpt lat="37.2889736" lon="-0.7990898"><ele>0.0</ele><time>2026-04-29T13:18:53.073Z</time></trkpt><trkpt lat="37.2890334" lon="-0.7990129"><ele>0.0</ele><time>2026-04-29T13:18:54.072Z</time></trkpt><trkpt lat="37.289096" lon="-0.7989348"><ele>0.0</ele><time>2026-04-29T13:18:55.072Z</time></trkpt><trkpt lat="37.2891568" lon="-0.7988564"><ele>0.0</ele><time>2026-04-29T13:18:56.073Z</time></trkpt><trkpt lat="37.2892194" lon="-0.798771"><ele>0.0</ele><time>2026-04-29T13:18:57.072Z</time></trkpt><trkpt lat="37.2892785" lon="-0.798689"><ele>0.0</ele><time>2026-04-29T13:18:58.072Z</time></trkpt><trkpt lat="37.2893409" lon="-0.7986013"><ele>0.0</ele><time>2026-04-29T13:18:59.072Z</time></trkpt><trkpt lat="37.2894045" lon="-0.7985245"><ele>0.0</ele><time>2026-04-29T13:19:00.072Z</time></trkpt><trkpt lat="37.2894562" lon="-0.7984447"><ele>0.0</ele><time>2026-04-29T13:19:01.072Z</time></trkpt><trkpt lat="37.2895166" lon="-0.7983695"><ele>0.0</ele><time>2026-04-29T13:19:02.073Z</time></trkpt><trkpt lat="37.2895807" lon="-0.7982873"><ele>0.0</ele><time>2026-04-29T13:19:03.073Z</time></trkpt><trkpt lat="37.2896376" lon="-0.7982141"><ele>0.0</ele><time>2026-04-29T13:19:04.072Z</time></trkpt><trkpt lat="37.2896954" lon="-0.7981394"><ele>0.0</ele><time>2026-04-29T13:19:05.072Z</time></trkpt><trkpt lat="37.2897467" lon="-0.7980555"><ele>0.0</ele><time>2026-04-29T13:19:06.072Z</time></trkpt><trkpt lat="37.2898109" lon="-0.7979739"><ele>0.0</ele><time>2026-04-29T13:19:07.073Z</time></trkpt><trkpt lat="37.28987" lon="-0.7978963"><ele>0.0</ele><time>2026-04-29T13:19:08.072Z</time></trkpt><trkpt lat="37.2900045" lon="-0.7977391"><ele>0.0</ele><time>2026-04-29T13:19:10.073Z</time></trkpt><trkpt lat="37.2900735" lon="-0.7976615"><ele>0.0</ele><time>2026-04-29T13:19:11.072Z</time></trkpt><trkpt lat="37.2901292" lon="-0.7975789"><ele>0.0</ele><time>2026-04-29T13:19:12.073Z</time></trkpt><trkpt lat="37.2901942" lon="-0.7974968"><ele>0.0</ele><time>2026-04-29T13:19:13.073Z</time></trkpt><trkpt lat="37.290259" lon="-0.7974111"><ele>0.0</ele><time>2026-04-29T13:19:14.073Z</time></trkpt><trkpt lat="37.2903141" lon="-0.7973362"><ele>0.0</ele><time>2026-04-29T13:19:15.073Z</time></trkpt><trkpt lat="37.2903721" lon="-0.797255"><ele>0.0</ele><time>2026-04-29T13:19:16.072Z</time></trkpt><trkpt lat="37.2904272" lon="-0.7971753"><ele>0.0</ele><time>2026-04-29T13:19:17.073Z</time></trkpt><trkpt lat="37.2904891" lon="-0.7970877"><ele>0.0</ele><time>2026-04-29T13:19:18.073Z</time></trkpt><trkpt lat="37.2905494" lon="-0.7969993"><ele>0.0</ele><time>2026-04-29T13:19:19.072Z</time></trkpt><trkpt lat="37.2906098" lon="-0.7969167"><ele>0.0</ele><time>2026-04-29T13:19:20.073Z</time></trkpt><trkpt lat="37.290667" lon="-0.7968381"><ele>0.0</ele><time>2026-04-29T13:19:21.072Z</time></trkpt><trkpt lat="37.2907226" lon="-0.7967627"><ele>0.0</ele><time>2026-04-29T13:19:22.073Z</time></trkpt><trkpt lat="37.2907778" lon="-0.7966889"><ele>0.0</ele><time>2026-04-29T13:19:23.073Z</time></trkpt><trkpt lat="37.2908341" lon="-0.7966114"><ele>0.0</ele><time>2026-04-29T13:19:24.073Z</time></trkpt><trkpt lat="37.2908922" lon="-0.7965318"><ele>0.0</ele><time>2026-04-29T13:19:25.073Z</time></trkpt><trkpt lat="37.2909518" lon="-0.796452"><ele>0.0</ele><time>2026-04-29T13:19:26.072Z</time></trkpt><trkpt lat="37.2910062" lon="-0.7963746"><ele>0.0</ele><time>2026-04-29T13:19:27.072Z</time></trkpt><trkpt lat="37.291067" lon="-0.7962938"><ele>0.0</ele><time>2026-04-29T13:19:28.073Z</time></trkpt><trkpt lat="37.2911156" lon="-0.7962177"><ele>0.0</ele><time>2026-04-29T13:19:29.072Z</time></trkpt><trkpt lat="37.2912259" lon="-0.7960563"><ele>0.0</ele><time>2026-04-29T13:19:31.072Z</time></trkpt><trkpt lat="37.291281" lon="-0.7959726"><ele>0.0</ele><time>2026-04-29T13:19:32.073Z</time></trkpt><trkpt lat="37.2913471" lon="-0.795888"><ele>0.0</ele><time>2026-04-29T13:19:33.073Z</time></trkpt><trkpt lat="37.2914083" lon="-0.7958084"><ele>0.0</ele><time>2026-04-29T13:19:34.073Z</time></trkpt><trkpt lat="37.2914783" lon="-0.7957214"><ele>0.0</ele><time>2026-04-29T13:19:35.072Z</time></trkpt><trkpt lat="37.2915459" lon="-0.7956262"><ele>0.0</ele><time>2026-04-29T13:19:36.073Z</time></trkpt><trkpt lat="37.291607" lon="-0.7955426"><ele>0.0</ele><time>2026-04-29T13:19:37.073Z</time></trkpt><trkpt lat="37.2916614" lon="-0.7954663"><ele>0.0</ele><time>2026-04-29T13:19:38.073Z</time></trkpt><trkpt lat="37.2917134" lon="-0.7953871"><ele>0.0</ele><time>2026-04-29T13:19:39.073Z</time></trkpt><trkpt lat="37.2917621" lon="-0.7953197"><ele>0.0</ele><time>2026-04-29T13:19:40.072Z</time></trkpt><trkpt lat="37.2918175" lon="-0.7952403"><ele>0.0</ele><time>2026-04-29T13:19:41.073Z</time></trkpt><trkpt lat="37.2918836" lon="-0.7951659"><ele>0.0</ele><time>2026-04-29T13:19:42.073Z</time></trkpt><trkpt lat="37.2919422" lon="-0.7950866"><ele>0.0</ele><time>2026-04-29T13:19:43.073Z</time></trkpt><trkpt lat="37.2919991" lon="-0.7950081"><ele>0.0</ele><time>2026-04-29T13:19:44.072Z</time></trkpt><trkpt lat="37.292057" lon="-0.7949255"><ele>0.0</ele><time>2026-04-29T13:19:45.072Z</time></trkpt><trkpt lat="37.2921166" lon="-0.7948448"><ele>0.0</ele><time>2026-04-29T13:19:46.073Z</time></trkpt><trkpt lat="37.2921793" lon="-0.794765"><ele>0.0</ele><time>2026-04-29T13:19:47.072Z</time></trkpt><trkpt lat="37.2922412" lon="-0.7946836"><ele>0.0</ele><time>2026-04-29T13:19:48.072Z</time></trkpt><trkpt lat="37.2922988" lon="-0.7946074"><ele>0.0</ele><time>2026-04-29T13:19:49.073Z</time></trkpt><trkpt lat="37.2923542" lon="-0.7945271"><ele>0.0</ele><time>2026-04-29T13:19:50.073Z</time></trkpt><trkpt lat="37.2924717" lon="-0.7943694"><ele>0.0</ele><time>2026-04-29T13:19:52.073Z</time></trkpt><trkpt lat="37.2925258" lon="-0.7942925"><ele>0.0</ele><time>2026-04-29T13:19:53.072Z</time></trkpt><trkpt lat="37.2925762" lon="-0.7942105"><ele>0.0</ele><time>2026-04-29T13:19:54.072Z</time></trkpt><trkpt lat="37.2926282" lon="-0.7941285"><ele>0.0</ele><time>2026-04-29T13:19:55.073Z</time></trkpt><trkpt lat="37.2926883" lon="-0.7940468"><ele>0.0</ele><time>2026-04-29T13:19:56.073Z</time></trkpt><trkpt lat="37.2927483" lon="-0.7939679"><ele>0.0</ele><time>2026-04-29T13:19:57.072Z</time></trkpt><trkpt lat="37.2928098" lon="-0.793888"><ele>0.0</ele><time>2026-04-29T13:19:58.072Z</time></trkpt><trkpt lat="37.2928701" lon="-0.7938121"><ele>0.0</ele><time>2026-04-29T13:19:59.072Z</time></trkpt><trkpt lat="37.2929344" lon="-0.7937277"><ele>0.0</ele><time>2026-04-29T13:20:00.071Z</time></trkpt><trkpt lat="37.2929892" lon="-0.793651"><ele>0.0</ele><time>2026-04-29T13:20:01.071Z</time></trkpt><trkpt lat="37.2930502" lon="-0.7935677"><ele>0.0</ele><time>2026-04-29T13:20:02.072Z</time></trkpt><trkpt lat="37.293113" lon="-0.7934799"><ele>0.0</ele><time>2026-04-29T13:20:03.072Z</time></trkpt><trkpt lat="37.2931763" lon="-0.7933972"><ele>0.0</ele><time>2026-04-29T13:20:04.071Z</time></trkpt><trkpt lat="37.2932337" lon="-0.7933196"><ele>0.0</ele><time>2026-04-29T13:20:05.072Z</time></trkpt><trkpt lat="37.2932846" lon="-0.7932383"><ele>0.0</ele><time>2026-04-29T13:20:06.072Z</time></trkpt><trkpt lat="37.2933502" lon="-0.7931622"><ele>0.0</ele><time>2026-04-29T13:20:07.071Z</time></trkpt><trkpt lat="37.2934141" lon="-0.7930874"><ele>0.0</ele><time>2026-04-29T13:20:08.071Z</time></trkpt><trkpt lat="37.2934771" lon="-0.7930024"><ele>0.0</ele><time>2026-04-29T13:20:09.071Z</time></trkpt><trkpt lat="37.2935348" lon="-0.7929258"><ele>0.0</ele><time>2026-04-29T13:20:10.071Z</time></trkpt><trkpt lat="37.2935916" lon="-0.7928421"><ele>0.0</ele><time>2026-04-29T13:20:11.071Z</time></trkpt><trkpt lat="37.2937086" lon="-0.7926862"><ele>0.0</ele><time>2026-04-29T13:20:13.072Z</time></trkpt><trkpt lat="37.2937753" lon="-0.7925992"><ele>0.0</ele><time>2026-04-29T13:20:14.072Z</time></trkpt><trkpt lat="37.2938361" lon="-0.7925128"><ele>0.0</ele><time>2026-04-29T13:20:15.071Z</time></trkpt><trkpt lat="37.2938951" lon="-0.7924318"><ele>0.0</ele><time>2026-04-29T13:20:16.072Z</time></trkpt><trkpt lat="37.2939519" lon="-0.7923516"><ele>0.0</ele><time>2026-04-29T13:20:17.071Z</time></trkpt><trkpt lat="37.2940088" lon="-0.7922772"><ele>0.0</ele><time>2026-04-29T13:20:18.071Z</time></trkpt><trkpt lat="37.294071" lon="-0.7921979"><ele>0.0</ele><time>2026-04-29T13:20:19.072Z</time></trkpt><trkpt lat="37.2941342" lon="-0.7921255"><ele>0.0</ele><time>2026-04-29T13:20:20.072Z</time></trkpt><trkpt lat="37.2941931" lon="-0.7920493"><ele>0.0</ele><time>2026-04-29T13:20:21.072Z</time></trkpt><trkpt lat="37.2942502" lon="-0.7919674"><ele>0.0</ele><time>2026-04-29T13:20:22.072Z</time></trkpt><trkpt lat="37.2943068" lon="-0.791884"><ele>0.0</ele><time>2026-04-29T13:20:23.072Z</time></trkpt><trkpt lat="37.2943664" lon="-0.7918004"><ele>0.0</ele><time>2026-04-29T13:20:24.072Z</time></trkpt><trkpt lat="37.2944291" lon="-0.7917143"><ele>0.0</ele><time>2026-04-29T13:20:25.072Z</time></trkpt><trkpt lat="37.2944869" lon="-0.791642"><ele>0.0</ele><time>2026-04-29T13:20:26.071Z</time></trkpt><trkpt lat="37.2945507" lon="-0.7915619"><ele>0.0</ele><time>2026-04-29T13:20:27.071Z</time></trkpt><trkpt lat="37.2946126" lon="-0.7914759"><ele>0.0</ele><time>2026-04-29T13:20:28.071Z</time></trkpt><trkpt lat="37.2946718" lon="-0.7913936"><ele>0.0</ele><time>2026-04-29T13:20:29.072Z</time></trkpt><trkpt lat="37.2947241" lon="-0.7913131"><ele>0.0</ele><time>2026-04-29T13:20:30.071Z</time></trkpt><trkpt lat="37.2947845" lon="-0.7912361"><ele>0.0</ele><time>2026-04-29T13:20:31.071Z</time></trkpt><trkpt lat="37.2948391" lon="-0.7911567"><ele>0.0</ele><time>2026-04-29T13:20:32.072Z</time></trkpt><trkpt lat="37.2949552" lon="-0.7909892"><ele>0.0</ele><time>2026-04-29T13:20:34.072Z</time></trkpt><trkpt lat="37.2950231" lon="-0.7909055"><ele>0.0</ele><time>2026-04-29T13:20:35.072Z</time></trkpt><trkpt lat="37.2950858" lon="-0.7908208"><ele>0.0</ele><time>2026-04-29T13:20:36.071Z</time></trkpt><trkpt lat="37.2951491" lon="-0.7907399"><ele>0.0</ele><time>2026-04-29T13:20:37.071Z</time></trkpt><trkpt lat="37.2952125" lon="-0.7906568"><ele>0.0</ele><time>2026-04-29T13:20:38.071Z</time></trkpt><trkpt lat="37.2952716" lon="-0.7905665"><ele>0.0</ele><time>2026-04-29T13:20:39.072Z</time></trkpt><trkpt lat="37.2953248" lon="-0.7904811"><ele>0.0</ele><time>2026-04-29T13:20:40.071Z</time></trkpt><trkpt lat="37.2953834" lon="-0.7903959"><ele>0.0</ele><time>2026-04-29T13:20:41.071Z</time></trkpt><trkpt lat="37.2954365" lon="-0.7903148"><ele>0.0</ele><time>2026-04-29T13:20:42.071Z</time></trkpt><trkpt lat="37.295497" lon="-0.7902321"><ele>0.0</ele><time>2026-04-29T13:20:43.071Z</time></trkpt><trkpt lat="37.2955642" lon="-0.7901504"><ele>0.0</ele><time>2026-04-29T13:20:44.072Z</time></trkpt><trkpt lat="37.2956182" lon="-0.7900573"><ele>0.0</ele><time>2026-04-29T13:20:45.072Z</time></trkpt><trkpt lat="37.295669" lon="-0.7899666"><ele>0.0</ele><time>2026-04-29T13:20:46.072Z</time></trkpt><trkpt lat="37.2957272" lon="-0.7898882"><ele>0.0</ele><time>2026-04-29T13:20:47.072Z</time></trkpt><trkpt lat="37.295783" lon="-0.789807"><ele>0.0</ele><time>2026-04-29T13:20:48.072Z</time></trkpt><trkpt lat="37.2958563" lon="-0.7897379"><ele>0.0</ele><time>2026-04-29T13:20:49.071Z</time></trkpt><trkpt lat="37.2959201" lon="-0.7896596"><ele>0.0</ele><time>2026-04-29T13:20:50.071Z</time></trkpt><trkpt lat="37.2959861" lon="-0.7895787"><ele>0.0</ele><time>2026-04-29T13:20:51.071Z</time></trkpt><trkpt lat="37.2960472" lon="-0.7895012"><ele>0.0</ele><time>2026-04-29T13:20:52.071Z</time></trkpt><trkpt lat="37.2961017" lon="-0.7894286"><ele>0.0</ele><time>2026-04-29T13:20:53.072Z</time></trkpt><trkpt lat="37.2962179" lon="-0.789274"><ele>0.0</ele><time>2026-04-29T13:20:55.072Z</time></trkpt><trkpt lat="37.2962716" lon="-0.7892031"><ele>0.0</ele><time>2026-04-29T13:20:56.071Z</time></trkpt><trkpt lat="37.296323" lon="-0.7891258"><ele>0.0</ele><time>2026-04-29T13:20:57.072Z</time></trkpt><trkpt lat="37.2963759" lon="-0.7890521"><ele>0.0</ele><time>2026-04-29T13:20:58.072Z</time></trkpt><trkpt lat="37.2964347" lon="-0.7889731"><ele>0.0</ele><time>2026-04-29T13:20:59.072Z</time></trkpt><trkpt lat="37.2964888" lon="-0.7888929"><ele>0.0</ele><time>2026-04-29T13:21:00.072Z</time></trkpt><trkpt lat="37.2965463" lon="-0.7888043"><ele>0.0</ele><time>2026-04-29T13:21:01.072Z</time></trkpt><trkpt lat="37.2966044" lon="-0.7887161"><ele>0.0</ele><time>2026-04-29T13:21:02.072Z</time></trkpt><trkpt lat="37.2966646" lon="-0.788628"><ele>0.0</ele><time>2026-04-29T13:21:03.071Z</time></trkpt><trkpt lat="37.2967232" lon="-0.7885322"><ele>0.0</ele><time>2026-04-29T13:21:04.071Z</time></trkpt><trkpt lat="37.2967898" lon="-0.7884482"><ele>0.0</ele><time>2026-04-29T13:21:05.072Z</time></trkpt><trkpt lat="37.2968535" lon="-0.7883608"><ele>0.0</ele><time>2026-04-29T13:21:06.072Z</time></trkpt><trkpt lat="37.2969089" lon="-0.7882741"><ele>0.0</ele><time>2026-04-29T13:21:07.072Z</time></trkpt><trkpt lat="37.2969641" lon="-0.7881905"><ele>0.0</ele><time>2026-04-29T13:21:08.072Z</time></trkpt><trkpt lat="37.2970135" lon="-0.788099"><ele>0.0</ele><time>2026-04-29T13:21:09.072Z</time></trkpt><trkpt lat="37.2970664" lon="-0.7880126"><ele>0.0</ele><time>2026-04-29T13:21:10.072Z</time></trkpt><trkpt lat="37.2971156" lon="-0.7879288"><ele>0.0</ele><time>2026-04-29T13:21:11.071Z</time></trkpt><trkpt lat="37.2971639" lon="-0.7878569"><ele>0.0</ele><time>2026-04-29T13:21:12.072Z</time></trkpt><trkpt lat="37.2972133" lon="-0.7877822"><ele>0.0</ele><time>2026-04-29T13:21:13.072Z</time></trkpt><trkpt lat="37.2972663" lon="-0.7877029"><ele>0.0</ele><time>2026-04-29T13:21:14.072Z</time></trkpt><trkpt lat="37.2973741" lon="-0.7875533"><ele>0.0</ele><time>2026-04-29T13:21:16.071Z</time></trkpt><trkpt lat="37.2974323" lon="-0.7874724"><ele>0.0</ele><time>2026-04-29T13:21:17.072Z</time></trkpt><trkpt lat="37.2974907" lon="-0.7873933"><ele>0.0</ele><time>2026-04-29T13:21:18.071Z</time></trkpt><trkpt lat="37.297546" lon="-0.7873131"><ele>0.0</ele><time>2026-04-29T13:21:19.072Z</time></trkpt><trkpt lat="37.2976039" lon="-0.7872309"><ele>0.0</ele><time>2026-04-29T13:21:20.071Z</time></trkpt><trkpt lat="37.297652" lon="-0.7871413"><ele>0.0</ele><time>2026-04-29T13:21:21.071Z</time></trkpt><trkpt lat="37.2976985" lon="-0.787053"><ele>0.0</ele><time>2026-04-29T13:21:22.071Z</time></trkpt><trkpt lat="37.2977378" lon="-0.786963"><ele>0.0</ele><time>2026-04-29T13:21:23.072Z</time></trkpt><trkpt lat="37.2977913" lon="-0.7868712"><ele>0.0</ele><time>2026-04-29T13:21:24.072Z</time></trkpt><trkpt lat="37.2978464" lon="-0.7867788"><ele>0.0</ele><time>2026-04-29T13:21:25.071Z</time></trkpt><trkpt lat="37.2978958" lon="-0.7866931"><ele>0.0</ele><time>2026-04-29T13:21:26.072Z</time></trkpt><trkpt lat="37.2979505" lon="-0.7866123"><ele>0.0</ele><time>2026-04-29T13:21:27.072Z</time></trkpt><trkpt lat="37.2979998" lon="-0.7865326"><ele>0.0</ele><time>2026-04-29T13:21:28.071Z</time></trkpt><trkpt lat="37.2980524" lon="-0.7864501"><ele>0.0</ele><time>2026-04-29T13:21:29.072Z</time></trkpt><trkpt lat="37.2981055" lon="-0.7863634"><ele>0.0</ele><time>2026-04-29T13:21:30.071Z</time></trkpt><trkpt lat="37.2981643" lon="-0.7862812"><ele>0.0</ele><time>2026-04-29T13:21:31.071Z</time></trkpt><trkpt lat="37.2982246" lon="-0.7862027"><ele>0.0</ele><time>2026-04-29T13:21:32.071Z</time></trkpt><trkpt lat="37.2982832" lon="-0.7861213"><ele>0.0</ele><time>2026-04-29T13:21:33.071Z</time></trkpt><trkpt lat="37.2983415" lon="-0.786043"><ele>0.0</ele><time>2026-04-29T13:21:34.072Z</time></trkpt><trkpt lat="37.2984023" lon="-0.7859648"><ele>0.0</ele><time>2026-04-29T13:21:35.072Z</time></trkpt><trkpt lat="37.2985402" lon="-0.7858135"><ele>0.0</ele><time>2026-04-29T13:21:37.071Z</time></trkpt><trkpt lat="37.2986042" lon="-0.7857382"><ele>0.0</ele><time>2026-04-29T13:21:38.071Z</time></trkpt><trkpt lat="37.2986691" lon="-0.7856597"><ele>0.0</ele><time>2026-04-29T13:21:39.071Z</time></trkpt><trkpt lat="37.2987341" lon="-0.7855911"><ele>0.0</ele><time>2026-04-29T13:21:40.072Z</time></trkpt><trkpt lat="37.2988048" lon="-0.7855246"><ele>0.0</ele><time>2026-04-29T13:21:41.071Z</time></trkpt><trkpt lat="37.2988636" lon="-0.7854529"><ele>0.0</ele><time>2026-04-29T13:21:42.071Z</time></trkpt><trkpt lat="37.298929" lon="-0.7853684"><ele>0.0</ele><time>2026-04-29T13:21:43.072Z</time></trkpt><trkpt lat="37.2989912" lon="-0.7852831"><ele>0.0</ele><time>2026-04-29T13:21:44.071Z</time></trkpt><trkpt lat="37.2990517" lon="-0.785201"><ele>0.0</ele><time>2026-04-29T13:21:45.072Z</time></trkpt><trkpt lat="37.2991203" lon="-0.7851277"><ele>0.0</ele><time>2026-04-29T13:21:46.071Z</time></trkpt><trkpt lat="37.2991759" lon="-0.7850446"><ele>0.0</ele><time>2026-04-29T13:21:47.072Z</time></trkpt><trkpt lat="37.2992394" lon="-0.7849564"><ele>0.0</ele><time>2026-04-29T13:21:48.072Z</time></trkpt><trkpt lat="37.2993001" lon="-0.784872"><ele>0.0</ele><time>2026-04-29T13:21:49.072Z</time></trkpt><trkpt lat="37.2993616" lon="-0.7847908"><ele>0.0</ele><time>2026-04-29T13:21:50.071Z</time></trkpt><trkpt lat="37.2994235" lon="-0.7847088"><ele>0.0</ele><time>2026-04-29T13:21:51.072Z</time></trkpt><trkpt lat="37.2994822" lon="-0.7846316"><ele>0.0</ele><time>2026-04-29T13:21:52.072Z</time></trkpt><trkpt lat="37.2995418" lon="-0.7845566"><ele>0.0</ele><time>2026-04-29T13:21:53.071Z</time></trkpt><trkpt lat="37.2995992" lon="-0.7844783"><ele>0.0</ele><time>2026-04-29T13:21:54.071Z</time></trkpt><trkpt lat="37.2996572" lon="-0.7843971"><ele>0.0</ele><time>2026-04-29T13:21:55.071Z</time></trkpt><trkpt lat="37.2997137" lon="-0.784317"><ele>0.0</ele><time>2026-04-29T13:21:56.071Z</time></trkpt><trkpt lat="37.2998337" lon="-0.7841537"><ele>0.0</ele><time>2026-04-29T13:21:58.071Z</time></trkpt><trkpt lat="37.2998923" lon="-0.7840715"><ele>0.0</ele><time>2026-04-29T13:21:59.071Z</time></trkpt><trkpt lat="37.2999546" lon="-0.7839862"><ele>0.0</ele><time>2026-04-29T13:22:00.072Z</time></trkpt><trkpt lat="37.3000148" lon="-0.783901"><ele>0.0</ele><time>2026-04-29T13:22:01.072Z</time></trkpt><trkpt lat="37.300072" lon="-0.7838156"><ele>0.0</ele><time>2026-04-29T13:22:02.072Z</time></trkpt><trkpt lat="37.3001173" lon="-0.7837237"><ele>0.0</ele><time>2026-04-29T13:22:03.072Z</time></trkpt><trkpt lat="37.3001564" lon="-0.7836295"><ele>0.0</ele><time>2026-04-29T13:22:04.072Z</time></trkpt><trkpt lat="37.3002075" lon="-0.783543"><ele>0.0</ele><time>2026-04-29T13:22:05.072Z</time></trkpt><trkpt lat="37.3002624" lon="-0.7834638"><ele>0.0</ele><time>2026-04-29T13:22:06.071Z</time></trkpt><trkpt lat="37.3003221" lon="-0.7833904"><ele>0.0</ele><time>2026-04-29T13:22:07.071Z</time></trkpt><trkpt lat="37.3003863" lon="-0.7833015"><ele>0.0</ele><time>2026-04-29T13:22:08.071Z</time></trkpt><trkpt lat="37.3004528" lon="-0.7832191"><ele>0.0</ele><time>2026-04-29T13:22:09.072Z</time></trkpt><trkpt lat="37.3005167" lon="-0.7831421"><ele>0.0</ele><time>2026-04-29T13:22:10.072Z</time></trkpt><trkpt lat="37.300587" lon="-0.7830669"><ele>0.0</ele><time>2026-04-29T13:22:11.071Z</time></trkpt><trkpt lat="37.3006562" lon="-0.7829875"><ele>0.0</ele><time>2026-04-29T13:22:12.071Z</time></trkpt><trkpt lat="37.3007206" lon="-0.7829083"><ele>0.0</ele><time>2026-04-29T13:22:13.072Z</time></trkpt><trkpt lat="37.3007766" lon="-0.7828257"><ele>0.0</ele><time>2026-04-29T13:22:14.072Z</time></trkpt><trkpt lat="37.3008386" lon="-0.7827465"><ele>0.0</ele><time>2026-04-29T13:22:15.072Z</time></trkpt><trkpt lat="37.3008975" lon="-0.7826684"><ele>0.0</ele><time>2026-04-29T13:22:16.071Z</time></trkpt><trkpt lat="37.3009542" lon="-0.7825888"><ele>0.0</ele><time>2026-04-29T13:22:17.072Z</time></trkpt><trkpt lat="37.3010752" lon="-0.7824223"><ele>0.0</ele><time>2026-04-29T13:22:19.071Z</time></trkpt><trkpt lat="37.3011335" lon="-0.7823435"><ele>0.0</ele><time>2026-04-29T13:22:20.072Z</time></trkpt><trkpt lat="37.3011913" lon="-0.7822624"><ele>0.0</ele><time>2026-04-29T13:22:21.072Z</time></trkpt><trkpt lat="37.3012469" lon="-0.7821804"><ele>0.0</ele><time>2026-04-29T13:22:22.071Z</time></trkpt><trkpt lat="37.3013044" lon="-0.7820961"><ele>0.0</ele><time>2026-04-29T13:22:23.072Z</time></trkpt><trkpt lat="37.3013628" lon="-0.7820077"><ele>0.0</ele><time>2026-04-29T13:22:24.072Z</time></trkpt><trkpt lat="37.3014178" lon="-0.7819174"><ele>0.0</ele><time>2026-04-29T13:22:25.071Z</time></trkpt><trkpt lat="37.3014832" lon="-0.7818321"><ele>0.0</ele><time>2026-04-29T13:22:26.071Z</time></trkpt><trkpt lat="37.3015446" lon="-0.7817513"><ele>0.0</ele><time>2026-04-29T13:22:27.072Z</time></trkpt><trkpt lat="37.3016075" lon="-0.7816738"><ele>0.0</ele><time>2026-04-29T13:22:28.071Z</time></trkpt><trkpt lat="37.301672" lon="-0.7815887"><ele>0.0</ele><time>2026-04-29T13:22:29.071Z</time></trkpt><trkpt lat="37.3017302" lon="-0.781507"><ele>0.0</ele><time>2026-04-29T13:22:30.071Z</time></trkpt><trkpt lat="37.3017969" lon="-0.781426"><ele>0.0</ele><time>2026-04-29T13:22:31.071Z</time></trkpt><trkpt lat="37.3018639" lon="-0.7813499"><ele>0.0</ele><time>2026-04-29T13:22:32.072Z</time></trkpt><trkpt lat="37.3019255" lon="-0.7812682"><ele>0.0</ele><time>2026-04-29T13:22:33.071Z</time></trkpt><trkpt lat="37.3019856" lon="-0.7811894"><ele>0.0</ele><time>2026-04-29T13:22:34.071Z</time></trkpt><trkpt lat="37.3020393" lon="-0.7811001"><ele>0.0</ele><time>2026-04-29T13:22:35.072Z</time></trkpt><trkpt lat="37.3020763" lon="-0.7810156"><ele>0.0</ele><time>2026-04-29T13:22:36.072Z</time></trkpt><trkpt lat="37.3021354" lon="-0.7809412"><ele>0.0</ele><time>2026-04-29T13:22:37.071Z</time></trkpt><trkpt lat="37.3021938" lon="-0.780862"><ele>0.0</ele><time>2026-04-29T13:22:38.071Z</time></trkpt><trkpt lat="37.3023153" lon="-0.7807093"><ele>0.0</ele><time>2026-04-29T13:22:40.071Z</time></trkpt><trkpt lat="37.3023704" lon="-0.7806337"><ele>0.0</ele><time>2026-04-29T13:22:41.071Z</time></trkpt><trkpt lat="37.3024284" lon="-0.7805442"><ele>0.0</ele><time>2026-04-29T13:22:42.071Z</time></trkpt><trkpt lat="37.3024898" lon="-0.7804604"><ele>0.0</ele><time>2026-04-29T13:22:43.071Z</time></trkpt><trkpt lat="37.302553" lon="-0.7803702"><ele>0.0</ele><time>2026-04-29T13:22:44.072Z</time></trkpt><trkpt lat="37.3026164" lon="-0.7802825"><ele>0.0</ele><time>2026-04-29T13:22:45.072Z</time></trkpt><trkpt lat="37.3026685" lon="-0.7802125"><ele>0.0</ele><time>2026-04-29T13:22:46.072Z</time></trkpt><trkpt lat="37.302723" lon="-0.7801426"><ele>0.0</ele><time>2026-04-29T13:22:47.072Z</time></trkpt><trkpt lat="37.3027848" lon="-0.7800611"><ele>0.0</ele><time>2026-04-29T13:22:48.072Z</time></trkpt><trkpt lat="37.302841" lon="-0.7799815"><ele>0.0</ele><time>2026-04-29T13:22:49.072Z</time></trkpt><trkpt lat="37.3028945" lon="-0.7798972"><ele>0.0</ele><time>2026-04-29T13:22:50.071Z</time></trkpt><trkpt lat="37.302952" lon="-0.779814"><ele>0.0</ele><time>2026-04-29T13:22:51.071Z</time></trkpt><trkpt lat="37.3030083" lon="-0.7797307"><ele>0.0</ele><time>2026-04-29T13:22:52.071Z</time></trkpt><trkpt lat="37.3030642" lon="-0.7796506"><ele>0.0</ele><time>2026-04-29T13:22:53.072Z</time></trkpt><trkpt lat="37.3031268" lon="-0.7795688"><ele>0.0</ele><time>2026-04-29T13:22:54.071Z</time></trkpt><trkpt lat="37.30319" lon="-0.7794871"><ele>0.0</ele><time>2026-04-29T13:22:55.071Z</time></trkpt><trkpt lat="37.3032502" lon="-0.779405"><ele>0.0</ele><time>2026-04-29T13:22:56.072Z</time></trkpt><trkpt lat="37.3033102" lon="-0.7793265"><ele>0.0</ele><time>2026-04-29T13:22:57.072Z</time></trkpt><trkpt lat="37.3033702" lon="-0.7792449"><ele>0.0</ele><time>2026-04-29T13:22:58.072Z</time></trkpt><trkpt lat="37.3034316" lon="-0.779159"><ele>0.0</ele><time>2026-04-29T13:22:59.072Z</time></trkpt><trkpt lat="37.3035547" lon="-0.7789859"><ele>0.0</ele><time>2026-04-29T13:23:01.071Z</time></trkpt><trkpt lat="37.3036069" lon="-0.7789077"><ele>0.0</ele><time>2026-04-29T13:23:02.072Z</time></trkpt><trkpt lat="37.3036574" lon="-0.778839"><ele>0.0</ele><time>2026-04-29T13:23:03.071Z</time></trkpt><trkpt lat="37.3037054" lon="-0.7787711"><ele>0.0</ele><time>2026-04-29T13:23:04.072Z</time></trkpt><trkpt lat="37.3037592" lon="-0.7786973"><ele>0.0</ele><time>2026-04-29T13:23:05.071Z</time></trkpt><trkpt lat="37.3038174" lon="-0.778621"><ele>0.0</ele><time>2026-04-29T13:23:06.072Z</time></trkpt><trkpt lat="37.3038786" lon="-0.7785356"><ele>0.0</ele><time>2026-04-29T13:23:07.072Z</time></trkpt><trkpt lat="37.3039399" lon="-0.7784492"><ele>0.0</ele><time>2026-04-29T13:23:08.072Z</time></trkpt><trkpt lat="37.303999" lon="-0.7783723"><ele>0.0</ele><time>2026-04-29T13:23:09.071Z</time></trkpt><trkpt lat="37.3040617" lon="-0.7782905"><ele>0.0</ele><time>2026-04-29T13:23:10.071Z</time></trkpt><trkpt lat="37.3041223" lon="-0.7782043"><ele>0.0</ele><time>2026-04-29T13:23:11.071Z</time></trkpt><trkpt lat="37.3041854" lon="-0.7781186"><ele>0.0</ele><time>2026-04-29T13:23:12.072Z</time></trkpt><trkpt lat="37.3042529" lon="-0.7780345"><ele>0.0</ele><time>2026-04-29T13:23:13.072Z</time></trkpt><trkpt lat="37.3043051" lon="-0.7779421"><ele>0.0</ele><time>2026-04-29T13:23:14.071Z</time></trkpt><trkpt lat="37.3043594" lon="-0.7778527"><ele>0.0</ele><time>2026-04-29T13:23:15.071Z</time></trkpt><trkpt lat="37.3044212" lon="-0.7777629"><ele>0.0</ele><time>2026-04-29T13:23:16.071Z</time></trkpt><trkpt lat="37.3044685" lon="-0.7776857"><ele>0.0</ele><time>2026-04-29T13:23:17.071Z</time></trkpt><trkpt lat="37.3045259" lon="-0.777596"><ele>0.0</ele><time>2026-04-29T13:23:18.072Z</time></trkpt><trkpt lat="37.3045878" lon="-0.777509"><ele>0.0</ele><time>2026-04-29T13:23:19.072Z</time></trkpt><trkpt lat="37.3046497" lon="-0.7774239"><ele>0.0</ele><time>2026-04-29T13:23:20.072Z</time></trkpt><trkpt lat="37.304774" lon="-0.7772766"><ele>0.0</ele><time>2026-04-29T13:23:22.072Z</time></trkpt><trkpt lat="37.3048381" lon="-0.7771942"><ele>0.0</ele><time>2026-04-29T13:23:23.072Z</time></trkpt><trkpt lat="37.3049108" lon="-0.7771123"><ele>0.0</ele><time>2026-04-29T13:23:24.072Z</time></trkpt><trkpt lat="37.3049816" lon="-0.7770392"><ele>0.0</ele><time>2026-04-29T13:23:25.071Z</time></trkpt><trkpt lat="37.305042" lon="-0.7769578"><ele>0.0</ele><time>2026-04-29T13:23:26.072Z</time></trkpt><trkpt lat="37.3050973" lon="-0.7768732"><ele>0.0</ele><time>2026-04-29T13:23:27.072Z</time></trkpt><trkpt lat="37.3051637" lon="-0.7767913"><ele>0.0</ele><time>2026-04-29T13:23:28.072Z</time></trkpt><trkpt lat="37.3052136" lon="-0.7767188"><ele>0.0</ele><time>2026-04-29T13:23:29.072Z</time></trkpt><trkpt lat="37.3052689" lon="-0.7766368"><ele>0.0</ele><time>2026-04-29T13:23:30.071Z</time></trkpt><trkpt lat="37.3053295" lon="-0.7765523"><ele>0.0</ele><time>2026-04-29T13:23:31.072Z</time></trkpt><trkpt lat="37.3053782" lon="-0.776464"><ele>0.0</ele><time>2026-04-29T13:23:32.072Z</time></trkpt><trkpt lat="37.3054379" lon="-0.7763787"><ele>0.0</ele><time>2026-04-29T13:23:33.072Z</time></trkpt><trkpt lat="37.3054996" lon="-0.7762983"><ele>0.0</ele><time>2026-04-29T13:23:34.072Z</time></trkpt><trkpt lat="37.3055513" lon="-0.7762286"><ele>0.0</ele><time>2026-04-29T13:23:35.072Z</time></trkpt><trkpt lat="37.3056131" lon="-0.7761468"><ele>0.0</ele><time>2026-04-29T13:23:36.072Z</time></trkpt><trkpt lat="37.3056761" lon="-0.7760591"><ele>0.0</ele><time>2026-04-29T13:23:37.071Z</time></trkpt><trkpt lat="37.3057362" lon="-0.7759767"><ele>0.0</ele><time>2026-04-29T13:23:38.071Z</time></trkpt><trkpt lat="37.3057966" lon="-0.7758969"><ele>0.0</ele><time>2026-04-29T13:23:39.071Z</time></trkpt><trkpt lat="37.3058553" lon="-0.7758193"><ele>0.0</ele><time>2026-04-29T13:23:40.071Z</time></trkpt><trkpt lat="37.3059149" lon="-0.7757385"><ele>0.0</ele><time>2026-04-29T13:23:41.072Z</time></trkpt><trkpt lat="37.306036" lon="-0.7755712"><ele>0.0</ele><time>2026-04-29T13:23:43.072Z</time></trkpt><trkpt lat="37.3060978" lon="-0.775486"><ele>0.0</ele><time>2026-04-29T13:23:44.072Z</time></trkpt><trkpt lat="37.3061557" lon="-0.7753935"><ele>0.0</ele><time>2026-04-29T13:23:45.072Z</time></trkpt><trkpt lat="37.3062112" lon="-0.7753103"><ele>0.0</ele><time>2026-04-29T13:23:46.072Z</time></trkpt><trkpt lat="37.3062575" lon="-0.7752219"><ele>0.0</ele><time>2026-04-29T13:23:47.071Z</time></trkpt><trkpt lat="37.3063127" lon="-0.7751414"><ele>0.0</ele><time>2026-04-29T13:23:48.071Z</time></trkpt><trkpt lat="37.3063788" lon="-0.7750715"><ele>0.0</ele><time>2026-04-29T13:23:49.072Z</time></trkpt><trkpt lat="37.3064411" lon="-0.7749922"><ele>0.0</ele><time>2026-04-29T13:23:50.071Z</time></trkpt><trkpt lat="37.3065062" lon="-0.7749095"><ele>0.0</ele><time>2026-04-29T13:23:51.072Z</time></trkpt><trkpt lat="37.3065674" lon="-0.7748315"><ele>0.0</ele><time>2026-04-29T13:23:52.072Z</time></trkpt><trkpt lat="37.3066328" lon="-0.7747433"><ele>0.0</ele><time>2026-04-29T13:23:53.072Z</time></trkpt><trkpt lat="37.3066919" lon="-0.7746627"><ele>0.0</ele><time>2026-04-29T13:23:54.071Z</time></trkpt><trkpt lat="37.3067487" lon="-0.7745824"><ele>0.0</ele><time>2026-04-29T13:23:55.072Z</time></trkpt><trkpt lat="37.3068089" lon="-0.7744999"><ele>0.0</ele><time>2026-04-29T13:23:56.071Z</time></trkpt><trkpt lat="37.3068653" lon="-0.7744208"><ele>0.0</ele><time>2026-04-29T13:23:57.072Z</time></trkpt><trkpt lat="37.3069277" lon="-0.7743304"><ele>0.0</ele><time>2026-04-29T13:23:58.071Z</time></trkpt><trkpt lat="37.3069909" lon="-0.7742446"><ele>0.0</ele><time>2026-04-29T13:23:59.071Z</time></trkpt><trkpt lat="37.3070426" lon="-0.7741571"><ele>0.0</ele><time>2026-04-29T13:24:00.072Z</time></trkpt><trkpt lat="37.3070929" lon="-0.7740618"><ele>0.0</ele><time>2026-04-29T13:24:01.071Z</time></trkpt><trkpt lat="37.3071488" lon="-0.7739734"><ele>0.0</ele><time>2026-04-29T13:24:02.072Z</time></trkpt><trkpt lat="37.3072651" lon="-0.7738117"><ele>0.0</ele><time>2026-04-29T13:24:04.072Z</time></trkpt><trkpt lat="37.3073232" lon="-0.7737237"><ele>0.0</ele><time>2026-04-29T13:24:05.072Z</time></trkpt><trkpt lat="37.3073828" lon="-0.7736371"><ele>0.0</ele><time>2026-04-29T13:24:06.072Z</time></trkpt><trkpt lat="37.3074416" lon="-0.773555"><ele>0.0</ele><time>2026-04-29T13:24:07.072Z</time></trkpt><trkpt lat="37.3075044" lon="-0.7734802"><ele>0.0</ele><time>2026-04-29T13:24:08.071Z</time></trkpt><trkpt lat="37.3075633" lon="-0.7734011"><ele>0.0</ele><time>2026-04-29T13:24:09.072Z</time></trkpt><trkpt lat="37.307636" lon="-0.7733119"><ele>0.0</ele><time>2026-04-29T13:24:10.072Z</time></trkpt><trkpt lat="37.3076994" lon="-0.7732277"><ele>0.0</ele><time>2026-04-29T13:24:11.071Z</time></trkpt><trkpt lat="37.3077599" lon="-0.7731495"><ele>0.0</ele><time>2026-04-29T13:24:12.072Z</time></trkpt><trkpt lat="37.3078283" lon="-0.7730766"><ele>0.0</ele><time>2026-04-29T13:24:13.071Z</time></trkpt><trkpt lat="37.3078909" lon="-0.7730067"><ele>0.0</ele><time>2026-04-29T13:24:14.072Z</time></trkpt><trkpt lat="37.307953" lon="-0.7729286"><ele>0.0</ele><time>2026-04-29T13:24:15.072Z</time></trkpt><trkpt lat="37.3080133" lon="-0.7728439"><ele>0.0</ele><time>2026-04-29T13:24:16.072Z</time></trkpt><trkpt lat="37.3080581" lon="-0.7727648"><ele>0.0</ele><time>2026-04-29T13:24:17.072Z</time></trkpt><trkpt lat="37.3081073" lon="-0.772685"><ele>0.0</ele><time>2026-04-29T13:24:18.071Z</time></trkpt><trkpt lat="37.3081651" lon="-0.7725991"><ele>0.0</ele><time>2026-04-29T13:24:19.072Z</time></trkpt><trkpt lat="37.3082152" lon="-0.772514"><ele>0.0</ele><time>2026-04-29T13:24:20.072Z</time></trkpt><trkpt lat="37.3082596" lon="-0.7724351"><ele>0.0</ele><time>2026-04-29T13:24:21.071Z</time></trkpt><trkpt lat="37.3083191" lon="-0.7723577"><ele>0.0</ele><time>2026-04-29T13:24:22.071Z</time></trkpt><trkpt lat="37.3083768" lon="-0.7722782"><ele>0.0</ele><time>2026-04-29T13:24:23.071Z</time></trkpt><trkpt lat="37.3084952" lon="-0.7721107"><ele>0.0</ele><time>2026-04-29T13:24:25.072Z</time></trkpt><trkpt lat="37.3085614" lon="-0.7720322"><ele>0.0</ele><time>2026-04-29T13:24:26.072Z</time></trkpt><trkpt lat="37.3086251" lon="-0.7719567"><ele>0.0</ele><time>2026-04-29T13:24:27.071Z</time></trkpt><trkpt lat="37.3086855" lon="-0.7718885"><ele>0.0</ele><time>2026-04-29T13:24:28.071Z</time></trkpt><trkpt lat="37.3087512" lon="-0.7718088"><ele>0.0</ele><time>2026-04-29T13:24:29.072Z</time></trkpt><trkpt lat="37.3088159" lon="-0.7717226"><ele>0.0</ele><time>2026-04-29T13:24:30.072Z</time></trkpt><trkpt lat="37.3088814" lon="-0.7716404"><ele>0.0</ele><time>2026-04-29T13:24:31.072Z</time></trkpt><trkpt lat="37.3089488" lon="-0.771555"><ele>0.0</ele><time>2026-04-29T13:24:32.071Z</time></trkpt><trkpt lat="37.3090162" lon="-0.7714695"><ele>0.0</ele><time>2026-04-29T13:24:33.072Z</time></trkpt><trkpt lat="37.3090754" lon="-0.7713877"><ele>0.0</ele><time>2026-04-29T13:24:34.071Z</time></trkpt><trkpt lat="37.3091305" lon="-0.7713131"><ele>0.0</ele><time>2026-04-29T13:24:35.071Z</time></trkpt><trkpt lat="37.309188" lon="-0.7712336"><ele>0.0</ele><time>2026-04-29T13:24:36.072Z</time></trkpt><trkpt lat="37.3092532" lon="-0.7711494"><ele>0.0</ele><time>2026-04-29T13:24:37.072Z</time></trkpt><trkpt lat="37.3093201" lon="-0.7710672"><ele>0.0</ele><time>2026-04-29T13:24:38.072Z</time></trkpt><trkpt lat="37.3093867" lon="-0.770987"><ele>0.0</ele><time>2026-04-29T13:24:39.071Z</time></trkpt><trkpt lat="37.3094489" lon="-0.7709068"><ele>0.0</ele><time>2026-04-29T13:24:40.072Z</time></trkpt><trkpt lat="37.309509" lon="-0.7708288"><ele>0.0</ele><time>2026-04-29T13:24:41.071Z</time></trkpt><trkpt lat="37.3095714" lon="-0.7707504"><ele>0.0</ele><time>2026-04-29T13:24:42.071Z</time></trkpt><trkpt lat="37.3096318" lon="-0.7706682"><ele>0.0</ele><time>2026-04-29T13:24:43.071Z</time></trkpt><trkpt lat="37.3096893" lon="-0.7705818"><ele>0.0</ele><time>2026-04-29T13:24:44.071Z</time></trkpt><trkpt lat="37.3098139" lon="-0.7704119"><ele>0.0</ele><time>2026-04-29T13:24:46.071Z</time></trkpt><trkpt lat="37.3098741" lon="-0.7703305"><ele>0.0</ele><time>2026-04-29T13:24:47.07Z</time></trkpt><trkpt lat="37.309941" lon="-0.7702418"><ele>0.0</ele><time>2026-04-29T13:24:48.071Z</time></trkpt><trkpt lat="37.3100065" lon="-0.7701577"><ele>0.0</ele><time>2026-04-29T13:24:49.07Z</time></trkpt><trkpt lat="37.3100657" lon="-0.7700751"><ele>0.0</ele><time>2026-04-29T13:24:50.071Z</time></trkpt><trkpt lat="37.3101196" lon="-0.7699957"><ele>0.0</ele><time>2026-04-29T13:24:51.07Z</time></trkpt><trkpt lat="37.3101815" lon="-0.7699133"><ele>0.0</ele><time>2026-04-29T13:24:52.071Z</time></trkpt><trkpt lat="37.3102383" lon="-0.7698288"><ele>0.0</ele><time>2026-04-29T13:24:53.071Z</time></trkpt><trkpt lat="37.3102978" lon="-0.7697442"><ele>0.0</ele><time>2026-04-29T13:24:54.071Z</time></trkpt><trkpt lat="37.3103523" lon="-0.7696632"><ele>0.0</ele><time>2026-04-29T13:24:55.071Z</time></trkpt><trkpt lat="37.3103959" lon="-0.7695771"><ele>0.0</ele><time>2026-04-29T13:24:56.07Z</time></trkpt><trkpt lat="37.3104559" lon="-0.7694774"><ele>0.0</ele><time>2026-04-29T13:24:57.07Z</time></trkpt><trkpt lat="37.3105189" lon="-0.7693895"><ele>0.0</ele><time>2026-04-29T13:24:58.071Z</time></trkpt><trkpt lat="37.3105738" lon="-0.7693154"><ele>0.0</ele><time>2026-04-29T13:24:59.071Z</time></trkpt><trkpt lat="37.3106331" lon="-0.7692324"><ele>0.0</ele><time>2026-04-29T13:25:00.07Z</time></trkpt><trkpt lat="37.3106931" lon="-0.7691453"><ele>0.0</ele><time>2026-04-29T13:25:01.071Z</time></trkpt><trkpt lat="37.3107519" lon="-0.7690602"><ele>0.0</ele><time>2026-04-29T13:25:02.07Z</time></trkpt><trkpt lat="37.3108115" lon="-0.7689751"><ele>0.0</ele><time>2026-04-29T13:25:03.07Z</time></trkpt><trkpt lat="37.3108686" lon="-0.7688975"><ele>0.0</ele><time>2026-04-29T13:25:04.07Z</time></trkpt><trkpt lat="37.3109278" lon="-0.7688208"><ele>0.0</ele><time>2026-04-29T13:25:05.07Z</time></trkpt><trkpt lat="37.3110451" lon="-0.7686692"><ele>0.0</ele><time>2026-04-29T13:25:07.071Z</time></trkpt><trkpt lat="37.3110969" lon="-0.7685886"><ele>0.0</ele><time>2026-04-29T13:25:08.07Z</time></trkpt><trkpt lat="37.3111541" lon="-0.7685098"><ele>0.0</ele><time>2026-04-29T13:25:09.071Z</time></trkpt><trkpt lat="37.3112107" lon="-0.7684283"><ele>0.0</ele><time>2026-04-29T13:25:10.071Z</time></trkpt><trkpt lat="37.3112688" lon="-0.7683448"><ele>0.0</ele><time>2026-04-29T13:25:11.071Z</time></trkpt><trkpt lat="37.3113183" lon="-0.7682573"><ele>0.0</ele><time>2026-04-29T13:25:12.07Z</time></trkpt><trkpt lat="37.3113684" lon="-0.7681687"><ele>0.0</ele><time>2026-04-29T13:25:13.071Z</time></trkpt><trkpt lat="37.3114157" lon="-0.7680807"><ele>0.0</ele><time>2026-04-29T13:25:14.07Z</time></trkpt><trkpt lat="37.3114708" lon="-0.7680016"><ele>0.0</ele><time>2026-04-29T13:25:15.071Z</time></trkpt><trkpt lat="37.3115261" lon="-0.7679277"><ele>0.0</ele><time>2026-04-29T13:25:16.07Z</time></trkpt><trkpt lat="37.3115896" lon="-0.7678486"><ele>0.0</ele><time>2026-04-29T13:25:17.07Z</time></trkpt><trkpt lat="37.311653" lon="-0.7677717"><ele>0.0</ele><time>2026-04-29T13:25:18.07Z</time></trkpt><trkpt lat="37.3117174" lon="-0.7677052"><ele>0.0</ele><time>2026-04-29T13:25:19.07Z</time></trkpt><trkpt lat="37.3117808" lon="-0.7676284"><ele>0.0</ele><time>2026-04-29T13:25:20.07Z</time></trkpt><trkpt lat="37.311843" lon="-0.7675503"><ele>0.0</ele><time>2026-04-29T13:25:21.07Z</time></trkpt><trkpt lat="37.3119091" lon="-0.7674726"><ele>0.0</ele><time>2026-04-29T13:25:22.071Z</time></trkpt><trkpt lat="37.3119702" lon="-0.7673959"><ele>0.0</ele><time>2026-04-29T13:25:23.071Z</time></trkpt><trkpt lat="37.3120314" lon="-0.7673123"><ele>0.0</ele><time>2026-04-29T13:25:24.07Z</time></trkpt><trkpt lat="37.3120814" lon="-0.7672373"><ele>0.0</ele><time>2026-04-29T13:25:25.07Z</time></trkpt><trkpt lat="37.3121437" lon="-0.7671639"><ele>0.0</ele><time>2026-04-29T13:25:26.071Z</time></trkpt><trkpt lat="37.3122743" lon="-0.766997"><ele>0.0</ele><time>2026-04-29T13:25:28.07Z</time></trkpt><trkpt lat="37.3123363" lon="-0.7669106"><ele>0.0</ele><time>2026-04-29T13:25:29.071Z</time></trkpt><trkpt lat="37.3123977" lon="-0.7668257"><ele>0.0</ele><time>2026-04-29T13:25:30.071Z</time></trkpt><trkpt lat="37.312462" lon="-0.7667352"><ele>0.0</ele><time>2026-04-29T13:25:31.071Z</time></trkpt><trkpt lat="37.3125201" lon="-0.7666495"><ele>0.0</ele><time>2026-04-29T13:25:32.071Z</time></trkpt><trkpt lat="37.3125756" lon="-0.7665696"><ele>0.0</ele><time>2026-04-29T13:25:33.07Z</time></trkpt><trkpt lat="37.312635" lon="-0.7664884"><ele>0.0</ele><time>2026-04-29T13:25:34.07Z</time></trkpt><trkpt lat="37.3126982" lon="-0.7664109"><ele>0.0</ele><time>2026-04-29T13:25:35.071Z</time></trkpt><trkpt lat="37.3127557" lon="-0.7663344"><ele>0.0</ele><time>2026-04-29T13:25:36.07Z</time></trkpt><trkpt lat="37.312813" lon="-0.7662571"><ele>0.0</ele><time>2026-04-29T13:25:37.071Z</time></trkpt><trkpt lat="37.312873" lon="-0.766177"><ele>0.0</ele><time>2026-04-29T13:25:38.071Z</time></trkpt><trkpt lat="37.3129335" lon="-0.7660998"><ele>0.0</ele><time>2026-04-29T13:25:39.07Z</time></trkpt><trkpt lat="37.3129949" lon="-0.7660151"><ele>0.0</ele><time>2026-04-29T13:25:40.07Z</time></trkpt><trkpt lat="37.3130623" lon="-0.7659278"><ele>0.0</ele><time>2026-04-29T13:25:41.071Z</time></trkpt><trkpt lat="37.3131267" lon="-0.7658434"><ele>0.0</ele><time>2026-04-29T13:25:42.07Z</time></trkpt><trkpt lat="37.3131894" lon="-0.7657652"><ele>0.0</ele><time>2026-04-29T13:25:43.07Z</time></trkpt><trkpt lat="37.3132573" lon="-0.765688"><ele>0.0</ele><time>2026-04-29T13:25:44.071Z</time></trkpt><trkpt lat="37.3133299" lon="-0.7656287"><ele>0.0</ele><time>2026-04-29T13:25:45.071Z</time></trkpt><trkpt lat="37.3133946" lon="-0.7655655"><ele>0.0</ele><time>2026-04-29T13:25:46.071Z</time></trkpt><trkpt lat="37.3134509" lon="-0.7654926"><ele>0.0</ele><time>2026-04-29T13:25:47.07Z</time></trkpt><trkpt lat="37.3135815" lon="-0.7653271"><ele>0.0</ele><time>2026-04-29T13:25:49.07Z</time></trkpt><trkpt lat="37.3136465" lon="-0.765242"><ele>0.0</ele><time>2026-04-29T13:25:50.07Z</time></trkpt><trkpt lat="37.3137097" lon="-0.7651566"><ele>0.0</ele><time>2026-04-29T13:25:51.071Z</time></trkpt><trkpt lat="37.3137743" lon="-0.7650702"><ele>0.0</ele><time>2026-04-29T13:25:52.071Z</time></trkpt><trkpt lat="37.3138422" lon="-0.7649906"><ele>0.0</ele><time>2026-04-29T13:25:53.07Z</time></trkpt><trkpt lat="37.3138984" lon="-0.7649129"><ele>0.0</ele><time>2026-04-29T13:25:54.07Z</time></trkpt><trkpt lat="37.313958" lon="-0.7648214"><ele>0.0</ele><time>2026-04-29T13:25:55.071Z</time></trkpt><trkpt lat="37.3140155" lon="-0.7647367"><ele>0.0</ele><time>2026-04-29T13:25:56.071Z</time></trkpt><trkpt lat="37.3140719" lon="-0.7646594"><ele>0.0</ele><time>2026-04-29T13:25:57.07Z</time></trkpt><trkpt lat="37.31413" lon="-0.7645833"><ele>0.0</ele><time>2026-04-29T13:25:58.07Z</time></trkpt><trkpt lat="37.3141884" lon="-0.7645034"><ele>0.0</ele><time>2026-04-29T13:25:59.07Z</time></trkpt><trkpt lat="37.3142501" lon="-0.764423"><ele>0.0</ele><time>2026-04-29T13:26:00.071Z</time></trkpt><trkpt lat="37.3142999" lon="-0.7643487"><ele>0.0</ele><time>2026-04-29T13:26:01.07Z</time></trkpt><trkpt lat="37.3143597" lon="-0.7642707"><ele>0.0</ele><time>2026-04-29T13:26:02.071Z</time></trkpt><trkpt lat="37.3144211" lon="-0.7641927"><ele>0.0</ele><time>2026-04-29T13:26:03.071Z</time></trkpt><trkpt lat="37.3144814" lon="-0.7641102"><ele>0.0</ele><time>2026-04-29T13:26:04.07Z</time></trkpt><trkpt lat="37.3145403" lon="-0.7640316"><ele>0.0</ele><time>2026-04-29T13:26:05.07Z</time></trkpt><trkpt lat="37.3145944" lon="-0.7639477"><ele>0.0</ele><time>2026-04-29T13:26:06.071Z</time></trkpt><trkpt lat="37.3146522" lon="-0.7638667"><ele>0.0</ele><time>2026-04-29T13:26:07.071Z</time></trkpt><trkpt lat="37.3147129" lon="-0.7637883"><ele>0.0</ele><time>2026-04-29T13:26:08.07Z</time></trkpt><trkpt lat="37.3148207" lon="-0.7636223"><ele>0.0</ele><time>2026-04-29T13:26:10.07Z</time></trkpt><trkpt lat="37.3148816" lon="-0.7635391"><ele>0.0</ele><time>2026-04-29T13:26:11.07Z</time></trkpt><trkpt lat="37.3149386" lon="-0.763453"><ele>0.0</ele><time>2026-04-29T13:26:12.07Z</time></trkpt><trkpt lat="37.314996" lon="-0.7633794"><ele>0.0</ele><time>2026-04-29T13:26:13.07Z</time></trkpt><trkpt lat="37.3150583" lon="-0.7633006"><ele>0.0</ele><time>2026-04-29T13:26:14.071Z</time></trkpt><trkpt lat="37.3151188" lon="-0.763222"><ele>0.0</ele><time>2026-04-29T13:26:15.071Z</time></trkpt><trkpt lat="37.3151795" lon="-0.7631382"><ele>0.0</ele><time>2026-04-29T13:26:16.07Z</time></trkpt><trkpt lat="37.3152428" lon="-0.7630514"><ele>0.0</ele><time>2026-04-29T13:26:17.07Z</time></trkpt><trkpt lat="37.3152948" lon="-0.7629508"><ele>0.0</ele><time>2026-04-29T13:26:18.07Z</time></trkpt><trkpt lat="37.3153503" lon="-0.7628574"><ele>0.0</ele><time>2026-04-29T13:26:19.07Z</time></trkpt><trkpt lat="37.3154013" lon="-0.7627705"><ele>0.0</ele><time>2026-04-29T13:26:20.07Z</time></trkpt><trkpt lat="37.3154544" lon="-0.7626897"><ele>0.0</ele><time>2026-04-29T13:26:21.071Z</time></trkpt><trkpt lat="37.3155135" lon="-0.7626069"><ele>0.0</ele><time>2026-04-29T13:26:22.071Z</time></trkpt><trkpt lat="37.3155778" lon="-0.7625305"><ele>0.0</ele><time>2026-04-29T13:26:23.07Z</time></trkpt><trkpt lat="37.3156451" lon="-0.7624517"><ele>0.0</ele><time>2026-04-29T13:26:24.071Z</time></trkpt><trkpt lat="37.3157067" lon="-0.7623773"><ele>0.0</ele><time>2026-04-29T13:26:25.07Z</time></trkpt><trkpt lat="37.3157699" lon="-0.7622987"><ele>0.0</ele><time>2026-04-29T13:26:26.071Z</time></trkpt><trkpt lat="37.3158286" lon="-0.76222"><ele>0.0</ele><time>2026-04-29T13:26:27.071Z</time></trkpt><trkpt lat="37.3158827" lon="-0.7621445"><ele>0.0</ele><time>2026-04-29T13:26:28.07Z</time></trkpt><trkpt lat="37.3159421" lon="-0.7620645"><ele>0.0</ele><time>2026-04-29T13:26:29.07Z</time></trkpt><trkpt lat="37.3160622" lon="-0.7619035"><ele>0.0</ele><time>2026-04-29T13:26:31.071Z</time></trkpt><trkpt lat="37.3161301" lon="-0.7618164"><ele>0.0</ele><time>2026-04-29T13:26:32.07Z</time></trkpt><trkpt lat="37.3161919" lon="-0.7617367"><ele>0.0</ele><time>2026-04-29T13:26:33.07Z</time></trkpt><trkpt lat="37.3162501" lon="-0.7616653"><ele>0.0</ele><time>2026-04-29T13:26:34.071Z</time></trkpt><trkpt lat="37.316321" lon="-0.7615868"><ele>0.0</ele><time>2026-04-29T13:26:35.07Z</time></trkpt><trkpt lat="37.3163821" lon="-0.7615085"><ele>0.0</ele><time>2026-04-29T13:26:36.071Z</time></trkpt><trkpt lat="37.3164377" lon="-0.7614345"><ele>0.0</ele><time>2026-04-29T13:26:37.07Z</time></trkpt><trkpt lat="37.3165125" lon="-0.7613639"><ele>0.0</ele><time>2026-04-29T13:26:38.07Z</time></trkpt><trkpt lat="37.3165748" lon="-0.7612829"><ele>0.0</ele><time>2026-04-29T13:26:39.07Z</time></trkpt><trkpt lat="37.3166254" lon="-0.7612007"><ele>0.0</ele><time>2026-04-29T13:26:40.07Z</time></trkpt><trkpt lat="37.3166825" lon="-0.7611205"><ele>0.0</ele><time>2026-04-29T13:26:41.07Z</time></trkpt><trkpt lat="37.3167429" lon="-0.7610347"><ele>0.0</ele><time>2026-04-29T13:26:42.071Z</time></trkpt><trkpt lat="37.3168076" lon="-0.7609522"><ele>0.0</ele><time>2026-04-29T13:26:43.07Z</time></trkpt><trkpt lat="37.3168683" lon="-0.7608737"><ele>0.0</ele><time>2026-04-29T13:26:44.07Z</time></trkpt><trkpt lat="37.3169254" lon="-0.7608094"><ele>0.0</ele><time>2026-04-29T13:26:45.07Z</time></trkpt><trkpt lat="37.3169808" lon="-0.7607302"><ele>0.0</ele><time>2026-04-29T13:26:46.07Z</time></trkpt><trkpt lat="37.3170515" lon="-0.7606512"><ele>0.0</ele><time>2026-04-29T13:26:47.071Z</time></trkpt><trkpt lat="37.3171026" lon="-0.7605605"><ele>0.0</ele><time>2026-04-29T13:26:48.07Z</time></trkpt><trkpt lat="37.3171674" lon="-0.7604711"><ele>0.0</ele><time>2026-04-29T13:26:49.07Z</time></trkpt><trkpt lat="37.3172298" lon="-0.7603841"><ele>0.0</ele><time>2026-04-29T13:26:50.071Z</time></trkpt><trkpt lat="37.3173517" lon="-0.7602243"><ele>0.0</ele><time>2026-04-29T13:26:52.07Z</time></trkpt><trkpt lat="37.3174102" lon="-0.7601349"><ele>0.0</ele><time>2026-04-29T13:26:53.071Z</time></trkpt><trkpt lat="37.3174813" lon="-0.7600482"><ele>0.0</ele><time>2026-04-29T13:26:54.07Z</time></trkpt><trkpt lat="37.3175445" lon="-0.7599614"><ele>0.0</ele><time>2026-04-29T13:26:55.07Z</time></trkpt><trkpt lat="37.3176006" lon="-0.7598647"><ele>0.0</ele><time>2026-04-29T13:26:56.07Z</time></trkpt><trkpt lat="37.3176616" lon="-0.7597777"><ele>0.0</ele><time>2026-04-29T13:26:57.07Z</time></trkpt><trkpt lat="37.3177204" lon="-0.759688"><ele>0.0</ele><time>2026-04-29T13:26:58.07Z</time></trkpt><trkpt lat="37.317781" lon="-0.7595953"><ele>0.0</ele><time>2026-04-29T13:26:59.07Z</time></trkpt><trkpt lat="37.317834" lon="-0.7595132"><ele>0.0</ele><time>2026-04-29T13:27:00.07Z</time></trkpt><trkpt lat="37.31789" lon="-0.7594407"><ele>0.0</ele><time>2026-04-29T13:27:01.07Z</time></trkpt><trkpt lat="37.3179523" lon="-0.7593648"><ele>0.0</ele><time>2026-04-29T13:27:02.07Z</time></trkpt><trkpt lat="37.3180058" lon="-0.7592848"><ele>0.0</ele><time>2026-04-29T13:27:03.07Z</time></trkpt><trkpt lat="37.3180622" lon="-0.7591961"><ele>0.0</ele><time>2026-04-29T13:27:04.071Z</time></trkpt><trkpt lat="37.3181173" lon="-0.7591131"><ele>0.0</ele><time>2026-04-29T13:27:05.07Z</time></trkpt><trkpt lat="37.3181709" lon="-0.7590249"><ele>0.0</ele><time>2026-04-29T13:27:06.071Z</time></trkpt><trkpt lat="37.3182316" lon="-0.7589378"><ele>0.0</ele><time>2026-04-29T13:27:07.07Z</time></trkpt><trkpt lat="37.318292" lon="-0.7588507"><ele>0.0</ele><time>2026-04-29T13:27:08.071Z</time></trkpt><trkpt lat="37.3183493" lon="-0.7587702"><ele>0.0</ele><time>2026-04-29T13:27:09.07Z</time></trkpt><trkpt lat="37.3184074" lon="-0.7586931"><ele>0.0</ele><time>2026-04-29T13:27:10.07Z</time></trkpt><trkpt lat="37.318467" lon="-0.7586137"><ele>0.0</ele><time>2026-04-29T13:27:11.07Z</time></trkpt><trkpt lat="37.3185784" lon="-0.7584604"><ele>0.0</ele><time>2026-04-29T13:27:13.07Z</time></trkpt><trkpt lat="37.3186402" lon="-0.758377"><ele>0.0</ele><time>2026-04-29T13:27:14.071Z</time></trkpt><trkpt lat="37.318695" lon="-0.7582839"><ele>0.0</ele><time>2026-04-29T13:27:15.071Z</time></trkpt><trkpt lat="37.3187445" lon="-0.7581811"><ele>0.0</ele><time>2026-04-29T13:27:16.071Z</time></trkpt><trkpt lat="37.3187943" lon="-0.758095"><ele>0.0</ele><time>2026-04-29T13:27:17.07Z</time></trkpt><trkpt lat="37.3188442" lon="-0.758024"><ele>0.0</ele><time>2026-04-29T13:27:18.07Z</time></trkpt><trkpt lat="37.3188994" lon="-0.7579604"><ele>0.0</ele><time>2026-04-29T13:27:19.071Z</time></trkpt><trkpt lat="37.3189516" lon="-0.7578918"><ele>0.0</ele><time>2026-04-29T13:27:20.07Z</time></trkpt><trkpt lat="37.3190117" lon="-0.7578095"><ele>0.0</ele><time>2026-04-29T13:27:21.071Z</time></trkpt><trkpt lat="37.3190704" lon="-0.7577272"><ele>0.0</ele><time>2026-04-29T13:27:22.07Z</time></trkpt><trkpt lat="37.3191286" lon="-0.757648"><ele>0.0</ele><time>2026-04-29T13:27:23.07Z</time></trkpt><trkpt lat="37.3191852" lon="-0.7575697"><ele>0.0</ele><time>2026-04-29T13:27:24.07Z</time></trkpt><trkpt lat="37.3192433" lon="-0.7574916"><ele>0.0</ele><time>2026-04-29T13:27:25.07Z</time></trkpt><trkpt lat="37.3193122" lon="-0.7574072"><ele>0.0</ele><time>2026-04-29T13:27:26.07Z</time></trkpt><trkpt lat="37.3193793" lon="-0.7573244"><ele>0.0</ele><time>2026-04-29T13:27:27.071Z</time></trkpt><trkpt lat="37.3194413" lon="-0.7572377"><ele>0.0</ele><time>2026-04-29T13:27:28.07Z</time></trkpt><trkpt lat="37.3194995" lon="-0.7571489"><ele>0.0</ele><time>2026-04-29T13:27:29.071Z</time></trkpt><trkpt lat="37.3195608" lon="-0.7570654"><ele>0.0</ele><time>2026-04-29T13:27:30.071Z</time></trkpt><trkpt lat="37.3196223" lon="-0.7569803"><ele>0.0</ele><time>2026-04-29T13:27:31.071Z</time></trkpt><trkpt lat="37.3196827" lon="-0.7569006"><ele>0.0</ele><time>2026-04-29T13:27:32.071Z</time></trkpt><trkpt lat="37.3198119" lon="-0.7567595"><ele>0.0</ele><time>2026-04-29T13:27:34.071Z</time></trkpt><trkpt lat="37.319877" lon="-0.7566836"><ele>0.0</ele><time>2026-04-29T13:27:35.07Z</time></trkpt><trkpt lat="37.3199439" lon="-0.7566044"><ele>0.0</ele><time>2026-04-29T13:27:36.07Z</time></trkpt><trkpt lat="37.3200091" lon="-0.7565163"><ele>0.0</ele><time>2026-04-29T13:27:37.071Z</time></trkpt><trkpt lat="37.320074" lon="-0.7564268"><ele>0.0</ele><time>2026-04-29T13:27:38.07Z</time></trkpt><trkpt lat="37.3201321" lon="-0.7563441"><ele>0.0</ele><time>2026-04-29T13:27:39.07Z</time></trkpt><trkpt lat="37.3201889" lon="-0.756258"><ele>0.0</ele><time>2026-04-29T13:27:40.071Z</time></trkpt><trkpt lat="37.3202493" lon="-0.7561711"><ele>0.0</ele><time>2026-04-29T13:27:41.071Z</time></trkpt><trkpt lat="37.3203126" lon="-0.7560911"><ele>0.0</ele><time>2026-04-29T13:27:42.07Z</time></trkpt><trkpt lat="37.3203762" lon="-0.7560089"><ele>0.0</ele><time>2026-04-29T13:27:43.071Z</time></trkpt><trkpt lat="37.3204352" lon="-0.755929"><ele>0.0</ele><time>2026-04-29T13:27:44.07Z</time></trkpt><trkpt lat="37.3204914" lon="-0.7558444"><ele>0.0</ele><time>2026-04-29T13:27:45.071Z</time></trkpt><trkpt lat="37.3205496" lon="-0.7557577"><ele>0.0</ele><time>2026-04-29T13:27:46.071Z</time></trkpt><trkpt lat="37.3206097" lon="-0.7556657"><ele>0.0</ele><time>2026-04-29T13:27:47.07Z</time></trkpt><trkpt lat="37.3206685" lon="-0.7555803"><ele>0.0</ele><time>2026-04-29T13:27:48.071Z</time></trkpt><trkpt lat="37.3207252" lon="-0.7554981"><ele>0.0</ele><time>2026-04-29T13:27:49.07Z</time></trkpt><trkpt lat="37.3207807" lon="-0.7554221"><ele>0.0</ele><time>2026-04-29T13:27:50.071Z</time></trkpt><trkpt lat="37.3208388" lon="-0.7553502"><ele>0.0</ele><time>2026-04-29T13:27:51.07Z</time></trkpt><trkpt lat="37.320898" lon="-0.7552743"><ele>0.0</ele><time>2026-04-29T13:27:52.071Z</time></trkpt><trkpt lat="37.3209569" lon="-0.7551962"><ele>0.0</ele><time>2026-04-29T13:27:53.07Z</time></trkpt><trkpt lat="37.3210779" lon="-0.7550499"><ele>0.0</ele><time>2026-04-29T13:27:55.07Z</time></trkpt><trkpt lat="37.3211371" lon="-0.7549692"><ele>0.0</ele><time>2026-04-29T13:27:56.071Z</time></trkpt><trkpt lat="37.3211923" lon="-0.7548928"><ele>0.0</ele><time>2026-04-29T13:27:57.07Z</time></trkpt><trkpt lat="37.3212517" lon="-0.7548132"><ele>0.0</ele><time>2026-04-29T13:27:58.071Z</time></trkpt><trkpt lat="37.3213085" lon="-0.7547333"><ele>0.0</ele><time>2026-04-29T13:27:59.07Z</time></trkpt><trkpt lat="37.3213669" lon="-0.7546565"><ele>0.0</ele><time>2026-04-29T13:28:00.071Z</time></trkpt><trkpt lat="37.3214278" lon="-0.754579"><ele>0.0</ele><time>2026-04-29T13:28:01.071Z</time></trkpt><trkpt lat="37.3214864" lon="-0.7544994"><ele>0.0</ele><time>2026-04-29T13:28:02.071Z</time></trkpt><trkpt lat="37.3215508" lon="-0.7544164"><ele>0.0</ele><time>2026-04-29T13:28:03.071Z</time></trkpt><trkpt lat="37.3216121" lon="-0.7543263"><ele>0.0</ele><time>2026-04-29T13:28:04.071Z</time></trkpt><trkpt lat="37.3216737" lon="-0.7542429"><ele>0.0</ele><time>2026-04-29T13:28:05.071Z</time></trkpt><trkpt lat="37.3217279" lon="-0.7541562"><ele>0.0</ele><time>2026-04-29T13:28:06.071Z</time></trkpt><trkpt lat="37.3217895" lon="-0.754065"><ele>0.0</ele><time>2026-04-29T13:28:07.071Z</time></trkpt><trkpt lat="37.3218502" lon="-0.7539816"><ele>0.0</ele><time>2026-04-29T13:28:08.071Z</time></trkpt><trkpt lat="37.3219116" lon="-0.7539004"><ele>0.0</ele><time>2026-04-29T13:28:09.07Z</time></trkpt><trkpt lat="37.321973" lon="-0.7538172"><ele>0.0</ele><time>2026-04-29T13:28:10.07Z</time></trkpt><trkpt lat="37.3220278" lon="-0.7537449"><ele>0.0</ele><time>2026-04-29T13:28:11.071Z</time></trkpt><trkpt lat="37.3220896" lon="-0.7536625"><ele>0.0</ele><time>2026-04-29T13:28:12.071Z</time></trkpt><trkpt lat="37.3221456" lon="-0.7535815"><ele>0.0</ele><time>2026-04-29T13:28:13.07Z</time></trkpt><trkpt lat="37.3222094" lon="-0.7534972"><ele>0.0</ele><time>2026-04-29T13:28:14.07Z</time></trkpt><trkpt lat="37.3223421" lon="-0.7533196"><ele>0.0</ele><time>2026-04-29T13:28:16.07Z</time></trkpt><trkpt lat="37.3224075" lon="-0.7532418"><ele>0.0</ele><time>2026-04-29T13:28:17.07Z</time></trkpt><trkpt lat="37.3224681" lon="-0.7531667"><ele>0.0</ele><time>2026-04-29T13:28:18.071Z</time></trkpt><trkpt lat="37.322511" lon="-0.7530917"><ele>0.0</ele><time>2026-04-29T13:28:19.07Z</time></trkpt><trkpt lat="37.3225644" lon="-0.7530106"><ele>0.0</ele><time>2026-04-29T13:28:20.071Z</time></trkpt><trkpt lat="37.3226203" lon="-0.7529305"><ele>0.0</ele><time>2026-04-29T13:28:21.07Z</time></trkpt><trkpt lat="37.3226801" lon="-0.7528471"><ele>0.0</ele><time>2026-04-29T13:28:22.07Z</time></trkpt><trkpt lat="37.3227434" lon="-0.7527634"><ele>0.0</ele><time>2026-04-29T13:28:23.07Z</time></trkpt><trkpt lat="37.3228018" lon="-0.7526821"><ele>0.0</ele><time>2026-04-29T13:28:24.071Z</time></trkpt><trkpt lat="37.3228588" lon="-0.7526066"><ele>0.0</ele><time>2026-04-29T13:28:25.071Z</time></trkpt><trkpt lat="37.3229125" lon="-0.7525266"><ele>0.0</ele><time>2026-04-29T13:28:26.07Z</time></trkpt><trkpt lat="37.3229684" lon="-0.752444"><ele>0.0</ele><time>2026-04-29T13:28:27.07Z</time></trkpt><trkpt lat="37.3230209" lon="-0.7523662"><ele>0.0</ele><time>2026-04-29T13:28:28.071Z</time></trkpt><trkpt lat="37.3230754" lon="-0.7522863"><ele>0.0</ele><time>2026-04-29T13:28:29.07Z</time></trkpt><trkpt lat="37.3231332" lon="-0.752202"><ele>0.0</ele><time>2026-04-29T13:28:30.07Z</time></trkpt><trkpt lat="37.3231919" lon="-0.752117"><ele>0.0</ele><time>2026-04-29T13:28:31.07Z</time></trkpt><trkpt lat="37.3232429" lon="-0.7520376"><ele>0.0</ele><time>2026-04-29T13:28:32.07Z</time></trkpt><trkpt lat="37.3233033" lon="-0.7519519"><ele>0.0</ele><time>2026-04-29T13:28:33.071Z</time></trkpt><trkpt lat="37.3233614" lon="-0.7518694"><ele>0.0</ele><time>2026-04-29T13:28:34.071Z</time></trkpt><trkpt lat="37.3234226" lon="-0.751786"><ele>0.0</ele><time>2026-04-29T13:28:35.07Z</time></trkpt><trkpt lat="37.3235357" lon="-0.7516347"><ele>0.0</ele><time>2026-04-29T13:28:37.071Z</time></trkpt><trkpt lat="37.3235975" lon="-0.7515547"><ele>0.0</ele><time>2026-04-29T13:28:38.07Z</time></trkpt><trkpt lat="37.3236629" lon="-0.7514727"><ele>0.0</ele><time>2026-04-29T13:28:39.07Z</time></trkpt><trkpt lat="37.3237296" lon="-0.7513929"><ele>0.0</ele><time>2026-04-29T13:28:40.07Z</time></trkpt><trkpt lat="37.3237902" lon="-0.7513076"><ele>0.0</ele><time>2026-04-29T13:28:41.07Z</time></trkpt><trkpt lat="37.3238503" lon="-0.7512221"><ele>0.0</ele><time>2026-04-29T13:28:42.07Z</time></trkpt><trkpt lat="37.3239114" lon="-0.7511364"><ele>0.0</ele><time>2026-04-29T13:28:43.07Z</time></trkpt><trkpt lat="37.3239733" lon="-0.7510523"><ele>0.0</ele><time>2026-04-29T13:28:44.07Z</time></trkpt><trkpt lat="37.3240249" lon="-0.7509621"><ele>0.0</ele><time>2026-04-29T13:28:45.07Z</time></trkpt><trkpt lat="37.3240796" lon="-0.750883"><ele>0.0</ele><time>2026-04-29T13:28:46.071Z</time></trkpt><trkpt lat="37.3241387" lon="-0.7508037"><ele>0.0</ele><time>2026-04-29T13:28:47.071Z</time></trkpt><trkpt lat="37.3241986" lon="-0.7507195"><ele>0.0</ele><time>2026-04-29T13:28:48.07Z</time></trkpt><trkpt lat="37.3242571" lon="-0.7506313"><ele>0.0</ele><time>2026-04-29T13:28:49.07Z</time></trkpt><trkpt lat="37.3243166" lon="-0.750546"><ele>0.0</ele><time>2026-04-29T13:28:50.071Z</time></trkpt><trkpt lat="37.3243767" lon="-0.7504682"><ele>0.0</ele><time>2026-04-29T13:28:51.071Z</time></trkpt><trkpt lat="37.3244457" lon="-0.7503969"><ele>0.0</ele><time>2026-04-29T13:28:52.071Z</time></trkpt><trkpt lat="37.3245103" lon="-0.7503259"><ele>0.0</ele><time>2026-04-29T13:28:53.07Z</time></trkpt><trkpt lat="37.3245724" lon="-0.7502474"><ele>0.0</ele><time>2026-04-29T13:28:54.07Z</time></trkpt><trkpt lat="37.3246311" lon="-0.750173"><ele>0.0</ele><time>2026-04-29T13:28:55.071Z</time></trkpt><trkpt lat="37.324695" lon="-0.7501021"><ele>0.0</ele><time>2026-04-29T13:28:56.07Z</time></trkpt><trkpt lat="37.3248248" lon="-0.7499532"><ele>0.0</ele><time>2026-04-29T13:28:58.071Z</time></trkpt><trkpt lat="37.3248939" lon="-0.7498869"><ele>0.0</ele><time>2026-04-29T13:28:59.07Z</time></trkpt><trkpt lat="37.3249582" lon="-0.7498146"><ele>0.0</ele><time>2026-04-29T13:29:00.07Z</time></trkpt><trkpt lat="37.32502" lon="-0.7497442"><ele>0.0</ele><time>2026-04-29T13:29:01.07Z</time></trkpt><trkpt lat="37.3250832" lon="-0.7496733"><ele>0.0</ele><time>2026-04-29T13:29:02.07Z</time></trkpt><trkpt lat="37.3251494" lon="-0.7495985"><ele>0.0</ele><time>2026-04-29T13:29:03.07Z</time></trkpt><trkpt lat="37.3252223" lon="-0.7495164"><ele>0.0</ele><time>2026-04-29T13:29:04.071Z</time></trkpt><trkpt lat="37.3252887" lon="-0.749442"><ele>0.0</ele><time>2026-04-29T13:29:05.07Z</time></trkpt><trkpt lat="37.3253504" lon="-0.7493622"><ele>0.0</ele><time>2026-04-29T13:29:06.071Z</time></trkpt><trkpt lat="37.325412" lon="-0.7492808"><ele>0.0</ele><time>2026-04-29T13:29:07.071Z</time></trkpt><trkpt lat="37.3254769" lon="-0.7491991"><ele>0.0</ele><time>2026-04-29T13:29:08.071Z</time></trkpt><trkpt lat="37.3255445" lon="-0.7491194"><ele>0.0</ele><time>2026-04-29T13:29:09.07Z</time></trkpt><trkpt lat="37.325607" lon="-0.7490388"><ele>0.0</ele><time>2026-04-29T13:29:10.071Z</time></trkpt><trkpt lat="37.3256688" lon="-0.7489587"><ele>0.0</ele><time>2026-04-29T13:29:11.07Z</time></trkpt><trkpt lat="37.3257347" lon="-0.7488772"><ele>0.0</ele><time>2026-04-29T13:29:12.071Z</time></trkpt><trkpt lat="37.3258014" lon="-0.7487937"><ele>0.0</ele><time>2026-04-29T13:29:13.071Z</time></trkpt><trkpt lat="37.3258594" lon="-0.7487204"><ele>0.0</ele><time>2026-04-29T13:29:14.071Z</time></trkpt><trkpt lat="37.3259158" lon="-0.7486522"><ele>0.0</ele><time>2026-04-29T13:29:15.071Z</time></trkpt><trkpt lat="37.3259723" lon="-0.7485778"><ele>0.0</ele><time>2026-04-29T13:29:16.07Z</time></trkpt><trkpt lat="37.3260351" lon="-0.7485112"><ele>0.0</ele><time>2026-04-29T13:29:17.07Z</time></trkpt><trkpt lat="37.3261747" lon="-0.7484158"><ele>0.0</ele><time>2026-04-29T13:29:19.07Z</time></trkpt><trkpt lat="37.3262422" lon="-0.7483393"><ele>0.0</ele><time>2026-04-29T13:29:20.07Z</time></trkpt><trkpt lat="37.3263047" lon="-0.7482638"><ele>0.0</ele><time>2026-04-29T13:29:21.07Z</time></trkpt><trkpt lat="37.3263665" lon="-0.7481858"><ele>0.0</ele><time>2026-04-29T13:29:22.071Z</time></trkpt><trkpt lat="37.3264349" lon="-0.7481097"><ele>0.0</ele><time>2026-04-29T13:29:23.07Z</time></trkpt><trkpt lat="37.3265021" lon="-0.7480391"><ele>0.0</ele><time>2026-04-29T13:29:24.07Z</time></trkpt><trkpt lat="37.3265697" lon="-0.7479615"><ele>0.0</ele><time>2026-04-29T13:29:25.07Z</time></trkpt><trkpt lat="37.3266415" lon="-0.7478921"><ele>0.0</ele><time>2026-04-29T13:29:26.07Z</time></trkpt><trkpt lat="37.3267135" lon="-0.7478152"><ele>0.0</ele><time>2026-04-29T13:29:27.07Z</time></trkpt><trkpt lat="37.3267848" lon="-0.7477441"><ele>0.0</ele><time>2026-04-29T13:29:28.07Z</time></trkpt><trkpt lat="37.3268508" lon="-0.7476754"><ele>0.0</ele><time>2026-04-29T13:29:29.07Z</time></trkpt><trkpt lat="37.3269229" lon="-0.7476056"><ele>0.0</ele><time>2026-04-29T13:29:30.07Z</time></trkpt><trkpt lat="37.3269857" lon="-0.7475301"><ele>0.0</ele><time>2026-04-29T13:29:31.069Z</time></trkpt><trkpt lat="37.3270519" lon="-0.7474575"><ele>0.0</ele><time>2026-04-29T13:29:32.069Z</time></trkpt><trkpt lat="37.3271198" lon="-0.7473843"><ele>0.0</ele><time>2026-04-29T13:29:33.069Z</time></trkpt><trkpt lat="37.3271868" lon="-0.7473136"><ele>0.0</ele><time>2026-04-29T13:29:34.07Z</time></trkpt><trkpt lat="37.3272489" lon="-0.7472446"><ele>0.0</ele><time>2026-04-29T13:29:35.07Z</time></trkpt><trkpt lat="37.3273122" lon="-0.74717"><ele>0.0</ele><time>2026-04-29T13:29:36.07Z</time></trkpt><trkpt lat="37.3273817" lon="-0.7470974"><ele>0.0</ele><time>2026-04-29T13:29:37.07Z</time></trkpt><trkpt lat="37.3274484" lon="-0.7470257"><ele>0.0</ele><time>2026-04-29T13:29:38.07Z</time></trkpt><trkpt lat="37.327589" lon="-0.7468727"><ele>0.0</ele><time>2026-04-29T13:29:40.069Z</time></trkpt><trkpt lat="37.327651" lon="-0.7467829"><ele>0.0</ele><time>2026-04-29T13:29:41.07Z</time></trkpt><trkpt lat="37.3277197" lon="-0.7467029"><ele>0.0</ele><time>2026-04-29T13:29:42.069Z</time></trkpt><trkpt lat="37.3277866" lon="-0.7466258"><ele>0.0</ele><time>2026-04-29T13:29:43.069Z</time></trkpt><trkpt lat="37.3278536" lon="-0.7465487"><ele>0.0</ele><time>2026-04-29T13:29:44.07Z</time></trkpt><trkpt lat="37.3279197" lon="-0.7464691"><ele>0.0</ele><time>2026-04-29T13:29:45.07Z</time></trkpt><trkpt lat="37.3279881" lon="-0.7463954"><ele>0.0</ele><time>2026-04-29T13:29:46.069Z</time></trkpt><trkpt lat="37.3280535" lon="-0.7463236"><ele>0.0</ele><time>2026-04-29T13:29:47.07Z</time></trkpt><trkpt lat="37.3281215" lon="-0.7462532"><ele>0.0</ele><time>2026-04-29T13:29:48.07Z</time></trkpt><trkpt lat="37.3281884" lon="-0.7461789"><ele>0.0</ele><time>2026-04-29T13:29:49.07Z</time></trkpt><trkpt lat="37.3282537" lon="-0.7461054"><ele>0.0</ele><time>2026-04-29T13:29:50.069Z</time></trkpt><trkpt lat="37.3283204" lon="-0.7460431"><ele>0.0</ele><time>2026-04-29T13:29:51.069Z</time></trkpt><trkpt lat="37.3283868" lon="-0.7459704"><ele>0.0</ele><time>2026-04-29T13:29:52.07Z</time></trkpt><trkpt lat="37.3284545" lon="-0.7458975"><ele>0.0</ele><time>2026-04-29T13:29:53.069Z</time></trkpt><trkpt lat="37.3285188" lon="-0.7458182"><ele>0.0</ele><time>2026-04-29T13:29:54.069Z</time></trkpt><trkpt lat="37.3285865" lon="-0.7457394"><ele>0.0</ele><time>2026-04-29T13:29:55.069Z</time></trkpt><trkpt lat="37.3286548" lon="-0.7456655"><ele>0.0</ele><time>2026-04-29T13:29:56.07Z</time></trkpt><trkpt lat="37.3287245" lon="-0.7455843"><ele>0.0</ele><time>2026-04-29T13:29:57.07Z</time></trkpt><trkpt lat="37.3287904" lon="-0.7455118"><ele>0.0</ele><time>2026-04-29T13:29:58.07Z</time></trkpt><trkpt lat="37.3289171" lon="-0.7453622"><ele>0.0</ele><time>2026-04-29T13:30:00.069Z</time></trkpt><trkpt lat="37.3289765" lon="-0.7453056"><ele>0.0</ele><time>2026-04-29T13:30:01.069Z</time></trkpt><trkpt lat="37.3290489" lon="-0.7452608"><ele>0.0</ele><time>2026-04-29T13:30:02.069Z</time></trkpt><trkpt lat="37.3291306" lon="-0.7452201"><ele>0.0</ele><time>2026-04-29T13:30:03.07Z</time></trkpt><trkpt lat="37.3292086" lon="-0.7451674"><ele>0.0</ele><time>2026-04-29T13:30:04.07Z</time></trkpt><trkpt lat="37.3292786" lon="-0.7451127"><ele>0.0</ele><time>2026-04-29T13:30:05.069Z</time></trkpt><trkpt lat="37.3293429" lon="-0.7450366"><ele>0.0</ele><time>2026-04-29T13:30:06.07Z</time></trkpt><trkpt lat="37.329405" lon="-0.7449552"><ele>0.0</ele><time>2026-04-29T13:30:07.069Z</time></trkpt><trkpt lat="37.329479" lon="-0.744872"><ele>0.0</ele><time>2026-04-29T13:30:08.07Z</time></trkpt><trkpt lat="37.3295455" lon="-0.744797"><ele>0.0</ele><time>2026-04-29T13:30:09.07Z</time></trkpt><trkpt lat="37.3296115" lon="-0.744722"><ele>0.0</ele><time>2026-04-29T13:30:10.07Z</time></trkpt><trkpt lat="37.3296767" lon="-0.7446482"><ele>0.0</ele><time>2026-04-29T13:30:11.069Z</time></trkpt><trkpt lat="37.3297404" lon="-0.7445763"><ele>0.0</ele><time>2026-04-29T13:30:12.07Z</time></trkpt><trkpt lat="37.329804" lon="-0.7445092"><ele>0.0</ele><time>2026-04-29T13:30:13.07Z</time></trkpt><trkpt lat="37.3298688" lon="-0.7444454"><ele>0.0</ele><time>2026-04-29T13:30:14.069Z</time></trkpt><trkpt lat="37.3299438" lon="-0.7443874"><ele>0.0</ele><time>2026-04-29T13:30:15.069Z</time></trkpt><trkpt lat="37.3300133" lon="-0.7443171"><ele>0.0</ele><time>2026-04-29T13:30:16.069Z</time></trkpt><trkpt lat="37.3300845" lon="-0.7442384"><ele>0.0</ele><time>2026-04-29T13:30:17.069Z</time></trkpt><trkpt lat="37.3301517" lon="-0.7441654"><ele>0.0</ele><time>2026-04-29T13:30:18.069Z</time></trkpt><trkpt lat="37.3302216" lon="-0.7440922"><ele>0.0</ele><time>2026-04-29T13:30:19.069Z</time></trkpt><trkpt lat="37.3303508" lon="-0.7439562"><ele>0.0</ele><time>2026-04-29T13:30:21.069Z</time></trkpt><trkpt lat="37.3304171" lon="-0.7438817"><ele>0.0</ele><time>2026-04-29T13:30:22.069Z</time></trkpt><trkpt lat="37.330481" lon="-0.7438093"><ele>0.0</ele><time>2026-04-29T13:30:23.07Z</time></trkpt><trkpt lat="37.3305463" lon="-0.743734"><ele>0.0</ele><time>2026-04-29T13:30:24.069Z</time></trkpt><trkpt lat="37.3306133" lon="-0.7436605"><ele>0.0</ele><time>2026-04-29T13:30:25.069Z</time></trkpt><trkpt lat="37.3306814" lon="-0.7435886"><ele>0.0</ele><time>2026-04-29T13:30:26.069Z</time></trkpt><trkpt lat="37.330748" lon="-0.7435228"><ele>0.0</ele><time>2026-04-29T13:30:27.07Z</time></trkpt><trkpt lat="37.3308178" lon="-0.7434475"><ele>0.0</ele><time>2026-04-29T13:30:28.07Z</time></trkpt><trkpt lat="37.3308875" lon="-0.7433738"><ele>0.0</ele><time>2026-04-29T13:30:29.069Z</time></trkpt><trkpt lat="37.3309592" lon="-0.7433061"><ele>0.0</ele><time>2026-04-29T13:30:30.07Z</time></trkpt><trkpt lat="37.3310339" lon="-0.7432383"><ele>0.0</ele><time>2026-04-29T13:30:31.07Z</time></trkpt><trkpt lat="37.3311044" lon="-0.743157"><ele>0.0</ele><time>2026-04-29T13:30:32.07Z</time></trkpt><trkpt lat="37.3311775" lon="-0.7430814"><ele>0.0</ele><time>2026-04-29T13:30:33.069Z</time></trkpt><trkpt lat="37.3312434" lon="-0.743"><ele>0.0</ele><time>2026-04-29T13:30:34.07Z</time></trkpt><trkpt lat="37.3313147" lon="-0.7429256"><ele>0.0</ele><time>2026-04-29T13:30:35.07Z</time></trkpt><trkpt lat="37.3313862" lon="-0.7428509"><ele>0.0</ele><time>2026-04-29T13:30:36.07Z</time></trkpt><trkpt lat="37.3314535" lon="-0.7427792"><ele>0.0</ele><time>2026-04-29T13:30:37.07Z</time></trkpt><trkpt lat="37.3315344" lon="-0.7427015"><ele>0.0</ele><time>2026-04-29T13:30:38.07Z</time></trkpt><trkpt lat="37.3316158" lon="-0.7426244"><ele>0.0</ele><time>2026-04-29T13:30:39.07Z</time></trkpt><trkpt lat="37.3317595" lon="-0.7424832"><ele>0.0</ele><time>2026-04-29T13:30:41.069Z</time></trkpt><trkpt lat="37.3318258" lon="-0.7424189"><ele>0.0</ele><time>2026-04-29T13:30:42.07Z</time></trkpt><trkpt lat="37.3318872" lon="-0.742351"><ele>0.0</ele><time>2026-04-29T13:30:43.069Z</time></trkpt><trkpt lat="37.3319588" lon="-0.7422998"><ele>0.0</ele><time>2026-04-29T13:30:44.07Z</time></trkpt><trkpt lat="37.3320324" lon="-0.7422454"><ele>0.0</ele><time>2026-04-29T13:30:45.069Z</time></trkpt><trkpt lat="37.3321004" lon="-0.742177"><ele>0.0</ele><time>2026-04-29T13:30:46.069Z</time></trkpt><trkpt lat="37.3321657" lon="-0.7421099"><ele>0.0</ele><time>2026-04-29T13:30:47.069Z</time></trkpt><trkpt lat="37.3322332" lon="-0.7420384"><ele>0.0</ele><time>2026-04-29T13:30:48.07Z</time></trkpt><trkpt lat="37.3323002" lon="-0.7419653"><ele>0.0</ele><time>2026-04-29T13:30:49.07Z</time></trkpt><trkpt lat="37.3323652" lon="-0.7418951"><ele>0.0</ele><time>2026-04-29T13:30:50.069Z</time></trkpt><trkpt lat="37.3324348" lon="-0.7418208"><ele>0.0</ele><time>2026-04-29T13:30:51.07Z</time></trkpt><trkpt lat="37.3325032" lon="-0.7417488"><ele>0.0</ele><time>2026-04-29T13:30:52.07Z</time></trkpt><trkpt lat="37.3325686" lon="-0.7416751"><ele>0.0</ele><time>2026-04-29T13:30:53.07Z</time></trkpt><trkpt lat="37.3326308" lon="-0.7415989"><ele>0.0</ele><time>2026-04-29T13:30:54.069Z</time></trkpt><trkpt lat="37.3326941" lon="-0.7415112"><ele>0.0</ele><time>2026-04-29T13:30:55.07Z</time></trkpt><trkpt lat="37.332766" lon="-0.7414414"><ele>0.0</ele><time>2026-04-29T13:30:56.07Z</time></trkpt><trkpt lat="37.3328408" lon="-0.7413686"><ele>0.0</ele><time>2026-04-29T13:30:57.069Z</time></trkpt><trkpt lat="37.3329139" lon="-0.7412965"><ele>0.0</ele><time>2026-04-29T13:30:58.07Z</time></trkpt><trkpt lat="37.3329818" lon="-0.7412209"><ele>0.0</ele><time>2026-04-29T13:30:59.069Z</time></trkpt><trkpt lat="37.333047" lon="-0.7411443"><ele>0.0</ele><time>2026-04-29T13:31:00.07Z</time></trkpt><trkpt lat="37.3331755" lon="-0.7409906"><ele>0.0</ele><time>2026-04-29T13:31:02.069Z</time></trkpt><trkpt lat="37.333239" lon="-0.7409171"><ele>0.0</ele><time>2026-04-29T13:31:03.07Z</time></trkpt><trkpt lat="37.3332979" lon="-0.7408321"><ele>0.0</ele><time>2026-04-29T13:31:04.069Z</time></trkpt><trkpt lat="37.3333534" lon="-0.7407558"><ele>0.0</ele><time>2026-04-29T13:31:05.07Z</time></trkpt><trkpt lat="37.3334123" lon="-0.740672"><ele>0.0</ele><time>2026-04-29T13:31:06.069Z</time></trkpt><trkpt lat="37.3334713" lon="-0.740583"><ele>0.0</ele><time>2026-04-29T13:31:07.069Z</time></trkpt><trkpt lat="37.3335284" lon="-0.7404913"><ele>0.0</ele><time>2026-04-29T13:31:08.07Z</time></trkpt><trkpt lat="37.3335864" lon="-0.7404041"><ele>0.0</ele><time>2026-04-29T13:31:09.069Z</time></trkpt><trkpt lat="37.3336473" lon="-0.7403316"><ele>0.0</ele><time>2026-04-29T13:31:10.07Z</time></trkpt><trkpt lat="37.3337091" lon="-0.7402538"><ele>0.0</ele><time>2026-04-29T13:31:11.069Z</time></trkpt><trkpt lat="37.333775" lon="-0.7401814"><ele>0.0</ele><time>2026-04-29T13:31:12.069Z</time></trkpt><trkpt lat="37.3338362" lon="-0.7401085"><ele>0.0</ele><time>2026-04-29T13:31:13.07Z</time></trkpt><trkpt lat="37.3338975" lon="-0.7400367"><ele>0.0</ele><time>2026-04-29T13:31:14.07Z</time></trkpt><trkpt lat="37.3339583" lon="-0.7399562"><ele>0.0</ele><time>2026-04-29T13:31:15.069Z</time></trkpt><trkpt lat="37.3340181" lon="-0.7398776"><ele>0.0</ele><time>2026-04-29T13:31:16.069Z</time></trkpt><trkpt lat="37.3340805" lon="-0.739802"><ele>0.0</ele><time>2026-04-29T13:31:17.069Z</time></trkpt><trkpt lat="37.3341452" lon="-0.7397269"><ele>0.0</ele><time>2026-04-29T13:31:18.07Z</time></trkpt><trkpt lat="37.3342089" lon="-0.7396548"><ele>0.0</ele><time>2026-04-29T13:31:19.069Z</time></trkpt><trkpt lat="37.3342734" lon="-0.7395787"><ele>0.0</ele><time>2026-04-29T13:31:20.069Z</time></trkpt><trkpt lat="37.3343385" lon="-0.7395052"><ele>0.0</ele><time>2026-04-29T13:31:21.07Z</time></trkpt><trkpt lat="37.3344731" lon="-0.7393637"><ele>0.0</ele><time>2026-04-29T13:31:23.07Z</time></trkpt><trkpt lat="37.3345415" lon="-0.7392904"><ele>0.0</ele><time>2026-04-29T13:31:24.07Z</time></trkpt><trkpt lat="37.3346084" lon="-0.7392156"><ele>0.0</ele><time>2026-04-29T13:31:25.069Z</time></trkpt><trkpt lat="37.3346735" lon="-0.7391405"><ele>0.0</ele><time>2026-04-29T13:31:26.069Z</time></trkpt><trkpt lat="37.3347387" lon="-0.7390714"><ele>0.0</ele><time>2026-04-29T13:31:27.07Z</time></trkpt><trkpt lat="37.3348022" lon="-0.7390016"><ele>0.0</ele><time>2026-04-29T13:31:28.069Z</time></trkpt><trkpt lat="37.3348653" lon="-0.7389298"><ele>0.0</ele><time>2026-04-29T13:31:29.069Z</time></trkpt><trkpt lat="37.3349288" lon="-0.7388599"><ele>0.0</ele><time>2026-04-29T13:31:30.069Z</time></trkpt><trkpt lat="37.3349908" lon="-0.738791"><ele>0.0</ele><time>2026-04-29T13:31:31.07Z</time></trkpt><trkpt lat="37.3350537" lon="-0.7387197"><ele>0.0</ele><time>2026-04-29T13:31:32.07Z</time></trkpt><trkpt lat="37.335122" lon="-0.7386515"><ele>0.0</ele><time>2026-04-29T13:31:33.07Z</time></trkpt><trkpt lat="37.3351972" lon="-0.7385745"><ele>0.0</ele><time>2026-04-29T13:31:34.07Z</time></trkpt><trkpt lat="37.3352636" lon="-0.7385032"><ele>0.0</ele><time>2026-04-29T13:31:35.069Z</time></trkpt><trkpt lat="37.3353287" lon="-0.73843"><ele>0.0</ele><time>2026-04-29T13:31:36.07Z</time></trkpt><trkpt lat="37.3353965" lon="-0.7383581"><ele>0.0</ele><time>2026-04-29T13:31:37.069Z</time></trkpt><trkpt lat="37.3354609" lon="-0.738291"><ele>0.0</ele><time>2026-04-29T13:31:38.069Z</time></trkpt><trkpt lat="37.3355269" lon="-0.73822"><ele>0.0</ele><time>2026-04-29T13:31:39.069Z</time></trkpt><trkpt lat="37.3355894" lon="-0.7381553"><ele>0.0</ele><time>2026-04-29T13:31:40.069Z</time></trkpt><trkpt lat="37.3356484" lon="-0.7380931"><ele>0.0</ele><time>2026-04-29T13:31:41.07Z</time></trkpt><trkpt lat="37.3357065" lon="-0.7380329"><ele>0.0</ele><time>2026-04-29T13:31:42.07Z</time></trkpt><trkpt lat="37.33584" lon="-0.7378936"><ele>0.0</ele><time>2026-04-29T13:31:44.069Z</time></trkpt><trkpt lat="37.3359112" lon="-0.737829"><ele>0.0</ele><time>2026-04-29T13:31:45.07Z</time></trkpt><trkpt lat="37.3359814" lon="-0.7377584"><ele>0.0</ele><time>2026-04-29T13:31:46.07Z</time></trkpt><trkpt lat="37.3360541" lon="-0.737691"><ele>0.0</ele><time>2026-04-29T13:31:47.069Z</time></trkpt><trkpt lat="37.3361257" lon="-0.7376226"><ele>0.0</ele><time>2026-04-29T13:31:48.069Z</time></trkpt><trkpt lat="37.3361902" lon="-0.7375586"><ele>0.0</ele><time>2026-04-29T13:31:49.069Z</time></trkpt><trkpt lat="37.3362567" lon="-0.737494"><ele>0.0</ele><time>2026-04-29T13:31:50.069Z</time></trkpt><trkpt lat="37.3363308" lon="-0.7374251"><ele>0.0</ele><time>2026-04-29T13:31:51.069Z</time></trkpt><trkpt lat="37.3364027" lon="-0.7373582"><ele>0.0</ele><time>2026-04-29T13:31:52.07Z</time></trkpt><trkpt lat="37.3364765" lon="-0.7372976"><ele>0.0</ele><time>2026-04-29T13:31:53.07Z</time></trkpt><trkpt lat="37.3365455" lon="-0.7372327"><ele>0.0</ele><time>2026-04-29T13:31:54.07Z</time></trkpt><trkpt lat="37.3366152" lon="-0.7371633"><ele>0.0</ele><time>2026-04-29T13:31:55.069Z</time></trkpt><trkpt lat="37.3366838" lon="-0.7370904"><ele>0.0</ele><time>2026-04-29T13:31:56.069Z</time></trkpt><trkpt lat="37.3367532" lon="-0.7370229"><ele>0.0</ele><time>2026-04-29T13:31:57.07Z</time></trkpt><trkpt lat="37.3368244" lon="-0.736952"><ele>0.0</ele><time>2026-04-29T13:31:58.069Z</time></trkpt><trkpt lat="37.3368875" lon="-0.7368829"><ele>0.0</ele><time>2026-04-29T13:31:59.07Z</time></trkpt><trkpt lat="37.3369573" lon="-0.7368072"><ele>0.0</ele><time>2026-04-29T13:32:00.069Z</time></trkpt><trkpt lat="37.3370291" lon="-0.7367367"><ele>0.0</ele><time>2026-04-29T13:32:01.07Z</time></trkpt><trkpt lat="37.3371021" lon="-0.736668"><ele>0.0</ele><time>2026-04-29T13:32:02.07Z</time></trkpt><trkpt lat="37.3371711" lon="-0.7365952"><ele>0.0</ele><time>2026-04-29T13:32:03.07Z</time></trkpt><trkpt lat="37.337308" lon="-0.7364499"><ele>0.0</ele><time>2026-04-29T13:32:05.07Z</time></trkpt><trkpt lat="37.3373707" lon="-0.7363711"><ele>0.0</ele><time>2026-04-29T13:32:06.07Z</time></trkpt><trkpt lat="37.3374309" lon="-0.7362929"><ele>0.0</ele><time>2026-04-29T13:32:07.07Z</time></trkpt><trkpt lat="37.3374991" lon="-0.7362128"><ele>0.0</ele><time>2026-04-29T13:32:08.069Z</time></trkpt><trkpt lat="37.3375819" lon="-0.7361296"><ele>0.0</ele><time>2026-04-29T13:32:09.07Z</time></trkpt><trkpt lat="37.3376738" lon="-0.7360494"><ele>0.0</ele><time>2026-04-29T13:32:10.07Z</time></trkpt><trkpt lat="37.3377554" lon="-0.7359883"><ele>0.0</ele><time>2026-04-29T13:32:11.07Z</time></trkpt><trkpt lat="37.337838" lon="-0.7359369"><ele>0.0</ele><time>2026-04-29T13:32:12.069Z</time></trkpt><trkpt lat="37.3379161" lon="-0.735867"><ele>0.0</ele><time>2026-04-29T13:32:13.069Z</time></trkpt><trkpt lat="37.3379944" lon="-0.7358026"><ele>0.0</ele><time>2026-04-29T13:32:14.069Z</time></trkpt><trkpt lat="37.3380698" lon="-0.7357425"><ele>0.0</ele><time>2026-04-29T13:32:15.069Z</time></trkpt><trkpt lat="37.3381391" lon="-0.7356766"><ele>0.0</ele><time>2026-04-29T13:32:16.07Z</time></trkpt><trkpt lat="37.338209" lon="-0.735603"><ele>0.0</ele><time>2026-04-29T13:32:17.07Z</time></trkpt><trkpt lat="37.3382762" lon="-0.7355348"><ele>0.0</ele><time>2026-04-29T13:32:18.07Z</time></trkpt><trkpt lat="37.3383375" lon="-0.7354695"><ele>0.0</ele><time>2026-04-29T13:32:19.069Z</time></trkpt><trkpt lat="37.3384047" lon="-0.7354017"><ele>0.0</ele><time>2026-04-29T13:32:20.069Z</time></trkpt><trkpt lat="37.3384783" lon="-0.7353304"><ele>0.0</ele><time>2026-04-29T13:32:21.069Z</time></trkpt><trkpt lat="37.3385575" lon="-0.7352759"><ele>0.0</ele><time>2026-04-29T13:32:22.069Z</time></trkpt><trkpt lat="37.3386292" lon="-0.73522"><ele>0.0</ele><time>2026-04-29T13:32:23.07Z</time></trkpt><trkpt lat="37.3386966" lon="-0.7351523"><ele>0.0</ele><time>2026-04-29T13:32:24.07Z</time></trkpt></trkseg><trkseg><trkpt lat="37.3930369" lon="-0.6769616"><ele>0.0</ele><time>2026-04-29T13:45:52.098Z</time></trkpt><trkpt lat="37.3931005" lon="-0.676884"><ele>0.0</ele><time>2026-04-29T13:45:53.099Z</time></trkpt><trkpt lat="37.3931643" lon="-0.6768103"><ele>0.0</ele><time>2026-04-29T13:45:54.099Z</time></trkpt><trkpt lat="37.3932301" lon="-0.6767322"><ele>0.0</ele><time>2026-04-29T13:45:55.098Z</time></trkpt><trkpt lat="37.3933601" lon="-0.6765777"><ele>0.0</ele><time>2026-04-29T13:45:57.098Z</time></trkpt><trkpt lat="37.3934299" lon="-0.6764995"><ele>0.0</ele><time>2026-04-29T13:45:58.099Z</time></trkpt><trkpt lat="37.3934956" lon="-0.6764244"><ele>0.0</ele><time>2026-04-29T13:45:59.098Z</time></trkpt><trkpt lat="37.3935618" lon="-0.6763579"><ele>0.0</ele><time>2026-04-29T13:46:00.098Z</time></trkpt><trkpt lat="37.393633" lon="-0.6762991"><ele>0.0</ele><time>2026-04-29T13:46:01.098Z</time></trkpt><trkpt lat="37.3936963" lon="-0.6762125"><ele>0.0</ele><time>2026-04-29T13:46:02.098Z</time></trkpt><trkpt lat="37.3937635" lon="-0.6761467"><ele>0.0</ele><time>2026-04-29T13:46:03.099Z</time></trkpt><trkpt lat="37.3938316" lon="-0.6760832"><ele>0.0</ele><time>2026-04-29T13:46:04.098Z</time></trkpt><trkpt lat="37.3938972" lon="-0.6760224"><ele>0.0</ele><time>2026-04-29T13:46:05.098Z</time></trkpt><trkpt lat="37.3939604" lon="-0.6759601"><ele>0.0</ele><time>2026-04-29T13:46:06.099Z</time></trkpt><trkpt lat="37.3940228" lon="-0.6758604"><ele>0.0</ele><time>2026-04-29T13:46:07.099Z</time></trkpt><trkpt lat="37.3940891" lon="-0.6757497"><ele>0.0</ele><time>2026-04-29T13:46:08.099Z</time></trkpt><trkpt lat="37.3941488" lon="-0.6756363"><ele>0.0</ele><time>2026-04-29T13:46:09.099Z</time></trkpt><trkpt lat="37.3942083" lon="-0.6755223"><ele>0.0</ele><time>2026-04-29T13:46:10.098Z</time></trkpt><trkpt lat="37.3942666" lon="-0.6754075"><ele>0.0</ele><time>2026-04-29T13:46:11.098Z</time></trkpt><trkpt lat="37.3943235" lon="-0.6753021"><ele>0.0</ele><time>2026-04-29T13:46:12.099Z</time></trkpt><trkpt lat="37.3943897" lon="-0.6752264"><ele>0.0</ele><time>2026-04-29T13:46:13.098Z</time></trkpt><trkpt lat="37.3944619" lon="-0.6751606"><ele>0.0</ele><time>2026-04-29T13:46:14.098Z</time></trkpt><trkpt lat="37.3945286" lon="-0.6750534"><ele>0.0</ele><time>2026-04-29T13:46:15.098Z</time></trkpt><trkpt lat="37.3945928" lon="-0.6749404"><ele>0.0</ele><time>2026-04-29T13:46:16.098Z</time></trkpt><trkpt lat="37.3947156" lon="-0.6746946"><ele>0.0</ele><time>2026-04-29T13:46:18.098Z</time></trkpt><trkpt lat="37.3947768" lon="-0.6745848"><ele>0.0</ele><time>2026-04-29T13:46:19.098Z</time></trkpt><trkpt lat="37.3948443" lon="-0.674506"><ele>0.0</ele><time>2026-04-29T13:46:20.098Z</time></trkpt><trkpt lat="37.3949115" lon="-0.6744354"><ele>0.0</ele><time>2026-04-29T13:46:21.099Z</time></trkpt><trkpt lat="37.3949738" lon="-0.6743599"><ele>0.0</ele><time>2026-04-29T13:46:22.099Z</time></trkpt><trkpt lat="37.3950335" lon="-0.6742849"><ele>0.0</ele><time>2026-04-29T13:46:23.098Z</time></trkpt><trkpt lat="37.3950993" lon="-0.674223"><ele>0.0</ele><time>2026-04-29T13:46:24.099Z</time></trkpt><trkpt lat="37.3951677" lon="-0.6741579"><ele>0.0</ele><time>2026-04-29T13:46:25.098Z</time></trkpt><trkpt lat="37.3952377" lon="-0.6740985"><ele>0.0</ele><time>2026-04-29T13:46:26.099Z</time></trkpt><trkpt lat="37.3953077" lon="-0.674035"><ele>0.0</ele><time>2026-04-29T13:46:27.099Z</time></trkpt><trkpt lat="37.395372" lon="-0.6739646"><ele>0.0</ele><time>2026-04-29T13:46:28.098Z</time></trkpt><trkpt lat="37.3954326" lon="-0.6738889"><ele>0.0</ele><time>2026-04-29T13:46:29.099Z</time></trkpt><trkpt lat="37.3954992" lon="-0.673815"><ele>0.0</ele><time>2026-04-29T13:46:30.099Z</time></trkpt><trkpt lat="37.3955611" lon="-0.673729"><ele>0.0</ele><time>2026-04-29T13:46:31.098Z</time></trkpt><trkpt lat="37.3956266" lon="-0.6736459"><ele>0.0</ele><time>2026-04-29T13:46:32.098Z</time></trkpt><trkpt lat="37.3956934" lon="-0.6735684"><ele>0.0</ele><time>2026-04-29T13:46:33.099Z</time></trkpt><trkpt lat="37.3957644" lon="-0.6734926"><ele>0.0</ele><time>2026-04-29T13:46:34.099Z</time></trkpt><trkpt lat="37.3958367" lon="-0.6734221"><ele>0.0</ele><time>2026-04-29T13:46:35.099Z</time></trkpt><trkpt lat="37.3959082" lon="-0.673355"><ele>0.0</ele><time>2026-04-29T13:46:36.098Z</time></trkpt><trkpt lat="37.3959758" lon="-0.673282"><ele>0.0</ele><time>2026-04-29T13:46:37.099Z</time></trkpt><trkpt lat="37.396115" lon="-0.673146"><ele>0.0</ele><time>2026-04-29T13:46:39.099Z</time></trkpt><trkpt lat="37.3961796" lon="-0.6730774"><ele>0.0</ele><time>2026-04-29T13:46:40.099Z</time></trkpt><trkpt lat="37.3962462" lon="-0.6730128"><ele>0.0</ele><time>2026-04-29T13:46:41.098Z</time></trkpt><trkpt lat="37.3963161" lon="-0.6729597"><ele>0.0</ele><time>2026-04-29T13:46:42.099Z</time></trkpt><trkpt lat="37.3963878" lon="-0.672888"><ele>0.0</ele><time>2026-04-29T13:46:43.099Z</time></trkpt><trkpt lat="37.3964567" lon="-0.6728118"><ele>0.0</ele><time>2026-04-29T13:46:44.099Z</time></trkpt><trkpt lat="37.3965234" lon="-0.6727479"><ele>0.0</ele><time>2026-04-29T13:46:45.099Z</time></trkpt><trkpt lat="37.3965886" lon="-0.6726803"><ele>0.0</ele><time>2026-04-29T13:46:46.099Z</time></trkpt><trkpt lat="37.3966554" lon="-0.6726095"><ele>0.0</ele><time>2026-04-29T13:46:47.099Z</time></trkpt><trkpt lat="37.3967238" lon="-0.6725406"><ele>0.0</ele><time>2026-04-29T13:46:48.098Z</time></trkpt><trkpt lat="37.3967992" lon="-0.6724782"><ele>0.0</ele><time>2026-04-29T13:46:49.098Z</time></trkpt><trkpt lat="37.3968702" lon="-0.6724111"><ele>0.0</ele><time>2026-04-29T13:46:50.098Z</time></trkpt><trkpt lat="37.3969405" lon="-0.6723459"><ele>0.0</ele><time>2026-04-29T13:46:51.098Z</time></trkpt><trkpt lat="37.3970087" lon="-0.6722764"><ele>0.0</ele><time>2026-04-29T13:46:52.099Z</time></trkpt><trkpt lat="37.3970797" lon="-0.6722037"><ele>0.0</ele><time>2026-04-29T13:46:53.098Z</time></trkpt><trkpt lat="37.3971474" lon="-0.6721392"><ele>0.0</ele><time>2026-04-29T13:46:54.099Z</time></trkpt><trkpt lat="37.3972138" lon="-0.6720726"><ele>0.0</ele><time>2026-04-29T13:46:55.098Z</time></trkpt><trkpt lat="37.3972832" lon="-0.6720018"><ele>0.0</ele><time>2026-04-29T13:46:56.098Z</time></trkpt><trkpt lat="37.3973503" lon="-0.6719342"><ele>0.0</ele><time>2026-04-29T13:46:57.099Z</time></trkpt><trkpt lat="37.3974168" lon="-0.6718636"><ele>0.0</ele><time>2026-04-29T13:46:58.099Z</time></trkpt><trkpt lat="37.3975517" lon="-0.6717212"><ele>0.0</ele><time>2026-04-29T13:47:00.099Z</time></trkpt><trkpt lat="37.397617" lon="-0.6716529"><ele>0.0</ele><time>2026-04-29T13:47:01.098Z</time></trkpt><trkpt lat="37.3976849" lon="-0.6715817"><ele>0.0</ele><time>2026-04-29T13:47:02.099Z</time></trkpt><trkpt lat="37.3977548" lon="-0.6715113"><ele>0.0</ele><time>2026-04-29T13:47:03.098Z</time></trkpt><trkpt lat="37.397819" lon="-0.6714409"><ele>0.0</ele><time>2026-04-29T13:47:04.098Z</time></trkpt><trkpt lat="37.3978862" lon="-0.671358"><ele>0.0</ele><time>2026-04-29T13:47:05.098Z</time></trkpt><trkpt lat="37.3979472" lon="-0.6712793"><ele>0.0</ele><time>2026-04-29T13:47:06.099Z</time></trkpt><trkpt lat="37.3980087" lon="-0.6712077"><ele>0.0</ele><time>2026-04-29T13:47:07.098Z</time></trkpt><trkpt lat="37.3980777" lon="-0.6711308"><ele>0.0</ele><time>2026-04-29T13:47:08.098Z</time></trkpt><trkpt lat="37.3981462" lon="-0.6710591"><ele>0.0</ele><time>2026-04-29T13:47:09.098Z</time></trkpt><trkpt lat="37.3982178" lon="-0.6709823"><ele>0.0</ele><time>2026-04-29T13:47:10.099Z</time></trkpt><trkpt lat="37.3982926" lon="-0.6709209"><ele>0.0</ele><time>2026-04-29T13:47:11.099Z</time></trkpt><trkpt lat="37.3983644" lon="-0.6708568"><ele>0.0</ele><time>2026-04-29T13:47:12.098Z</time></trkpt><trkpt lat="37.3984829" lon="-0.6707888"><ele>0.0</ele><time>2026-04-29T13:47:14.099Z</time></trkpt><trkpt lat="37.3985535" lon="-0.6707246"><ele>0.0</ele><time>2026-04-29T13:47:15.099Z</time></trkpt><trkpt lat="37.3986205" lon="-0.6706393"><ele>0.0</ele><time>2026-04-29T13:47:16.098Z</time></trkpt><trkpt lat="37.3986854" lon="-0.6705553"><ele>0.0</ele><time>2026-04-29T13:47:17.098Z</time></trkpt><trkpt lat="37.3987505" lon="-0.6704773"><ele>0.0</ele><time>2026-04-29T13:47:18.099Z</time></trkpt><trkpt lat="37.3988168" lon="-0.6704056"><ele>0.0</ele><time>2026-04-29T13:47:19.099Z</time></trkpt><trkpt lat="37.3989484" lon="-0.6702522"><ele>0.0</ele><time>2026-04-29T13:47:21.099Z</time></trkpt><trkpt lat="37.3990106" lon="-0.6701733"><ele>0.0</ele><time>2026-04-29T13:47:22.099Z</time></trkpt><trkpt lat="37.3990733" lon="-0.6700968"><ele>0.0</ele><time>2026-04-29T13:47:23.099Z</time></trkpt><trkpt lat="37.3991399" lon="-0.6700188"><ele>0.0</ele><time>2026-04-29T13:47:24.098Z</time></trkpt><trkpt lat="37.3992081" lon="-0.6699405"><ele>0.0</ele><time>2026-04-29T13:47:25.098Z</time></trkpt><trkpt lat="37.3992768" lon="-0.669865"><ele>0.0</ele><time>2026-04-29T13:47:26.099Z</time></trkpt><trkpt lat="37.3993436" lon="-0.6697918"><ele>0.0</ele><time>2026-04-29T13:47:27.098Z</time></trkpt><trkpt lat="37.3994101" lon="-0.669717"><ele>0.0</ele><time>2026-04-29T13:47:28.098Z</time></trkpt><trkpt lat="37.3994787" lon="-0.6696434"><ele>0.0</ele><time>2026-04-29T13:47:29.098Z</time></trkpt><trkpt lat="37.3995439" lon="-0.6695673"><ele>0.0</ele><time>2026-04-29T13:47:30.098Z</time></trkpt><trkpt lat="37.3996087" lon="-0.6694948"><ele>0.0</ele><time>2026-04-29T13:47:31.098Z</time></trkpt><trkpt lat="37.399672" lon="-0.669422"><ele>0.0</ele><time>2026-04-29T13:47:32.098Z</time></trkpt><trkpt lat="37.3997369" lon="-0.6693485"><ele>0.0</ele><time>2026-04-29T13:47:33.098Z</time></trkpt><trkpt lat="37.3998015" lon="-0.6692689"><ele>0.0</ele><time>2026-04-29T13:47:34.099Z</time></trkpt><trkpt lat="37.3998651" lon="-0.6691891"><ele>0.0</ele><time>2026-04-29T13:47:35.098Z</time></trkpt><trkpt lat="37.3999313" lon="-0.6691088"><ele>0.0</ele><time>2026-04-29T13:47:36.098Z</time></trkpt><trkpt lat="37.4000001" lon="-0.6690332"><ele>0.0</ele><time>2026-04-29T13:47:37.098Z</time></trkpt><trkpt lat="37.4000716" lon="-0.6689583"><ele>0.0</ele><time>2026-04-29T13:47:38.098Z</time></trkpt><trkpt lat="37.4001405" lon="-0.6688878"><ele>0.0</ele><time>2026-04-29T13:47:39.099Z</time></trkpt><trkpt lat="37.4002056" lon="-0.6688208"><ele>0.0</ele><time>2026-04-29T13:47:40.098Z</time></trkpt><trkpt lat="37.4003401" lon="-0.668677"><ele>0.0</ele><time>2026-04-29T13:47:42.099Z</time></trkpt><trkpt lat="37.400404" lon="-0.6686089"><ele>0.0</ele><time>2026-04-29T13:47:43.098Z</time></trkpt><trkpt lat="37.4004675" lon="-0.668542"><ele>0.0</ele><time>2026-04-29T13:47:44.099Z</time></trkpt><trkpt lat="37.4005336" lon="-0.6684714"><ele>0.0</ele><time>2026-04-29T13:47:45.099Z</time></trkpt><trkpt lat="37.4006003" lon="-0.6684013"><ele>0.0</ele><time>2026-04-29T13:47:46.099Z</time></trkpt><trkpt lat="37.4006659" lon="-0.6683341"><ele>0.0</ele><time>2026-04-29T13:47:47.098Z</time></trkpt><trkpt lat="37.4007337" lon="-0.6682674"><ele>0.0</ele><time>2026-04-29T13:47:48.098Z</time></trkpt><trkpt lat="37.4008051" lon="-0.6682013"><ele>0.0</ele><time>2026-04-29T13:47:49.098Z</time></trkpt><trkpt lat="37.4008738" lon="-0.6681333"><ele>0.0</ele><time>2026-04-29T13:47:50.099Z</time></trkpt><trkpt lat="37.4009413" lon="-0.6680621"><ele>0.0</ele><time>2026-04-29T13:47:51.098Z</time></trkpt><trkpt lat="37.4010098" lon="-0.667987"><ele>0.0</ele><time>2026-04-29T13:47:52.098Z</time></trkpt><trkpt lat="37.4010856" lon="-0.6679163"><ele>0.0</ele><time>2026-04-29T13:47:53.099Z</time></trkpt><trkpt lat="37.4011557" lon="-0.6678497"><ele>0.0</ele><time>2026-04-29T13:47:54.098Z</time></trkpt><trkpt lat="37.4012281" lon="-0.6677775"><ele>0.0</ele><time>2026-04-29T13:47:55.099Z</time></trkpt><trkpt lat="37.4012996" lon="-0.6676997"><ele>0.0</ele><time>2026-04-29T13:47:56.099Z</time></trkpt><trkpt lat="37.4013666" lon="-0.6676239"><ele>0.0</ele><time>2026-04-29T13:47:57.099Z</time></trkpt><trkpt lat="37.4014337" lon="-0.6675459"><ele>0.0</ele><time>2026-04-29T13:47:58.098Z</time></trkpt><trkpt lat="37.4015005" lon="-0.6674722"><ele>0.0</ele><time>2026-04-29T13:47:59.098Z</time></trkpt><trkpt lat="37.4015655" lon="-0.6673846"><ele>0.0</ele><time>2026-04-29T13:48:00.098Z</time></trkpt><trkpt lat="37.4016372" lon="-0.6672941"><ele>0.0</ele><time>2026-04-29T13:48:01.099Z</time></trkpt><trkpt lat="37.4017778" lon="-0.6671512"><ele>0.0</ele><time>2026-04-29T13:48:03.099Z</time></trkpt><trkpt lat="37.4018452" lon="-0.6670784"><ele>0.0</ele><time>2026-04-29T13:48:04.098Z</time></trkpt><trkpt lat="37.4019102" lon="-0.6670066"><ele>0.0</ele><time>2026-04-29T13:48:05.099Z</time></trkpt><trkpt lat="37.4019812" lon="-0.6669392"><ele>0.0</ele><time>2026-04-29T13:48:06.098Z</time></trkpt><trkpt lat="37.4020479" lon="-0.6668698"><ele>0.0</ele><time>2026-04-29T13:48:07.099Z</time></trkpt><trkpt lat="37.4021102" lon="-0.666797"><ele>0.0</ele><time>2026-04-29T13:48:08.099Z</time></trkpt><trkpt lat="37.4021752" lon="-0.6667222"><ele>0.0</ele><time>2026-04-29T13:48:09.098Z</time></trkpt><trkpt lat="37.4022363" lon="-0.6666372"><ele>0.0</ele><time>2026-04-29T13:48:10.098Z</time></trkpt><trkpt lat="37.4023028" lon="-0.6665614"><ele>0.0</ele><time>2026-04-29T13:48:11.098Z</time></trkpt><trkpt lat="37.4023703" lon="-0.6664869"><ele>0.0</ele><time>2026-04-29T13:48:12.098Z</time></trkpt><trkpt lat="37.4024372" lon="-0.6664106"><ele>0.0</ele><time>2026-04-29T13:48:13.098Z</time></trkpt><trkpt lat="37.4025011" lon="-0.6663328"><ele>0.0</ele><time>2026-04-29T13:48:14.098Z</time></trkpt><trkpt lat="37.4025607" lon="-0.666257"><ele>0.0</ele><time>2026-04-29T13:48:15.098Z</time></trkpt><trkpt lat="37.402622" lon="-0.6661851"><ele>0.0</ele><time>2026-04-29T13:48:16.098Z</time></trkpt><trkpt lat="37.4026863" lon="-0.6661174"><ele>0.0</ele><time>2026-04-29T13:48:17.099Z</time></trkpt><trkpt lat="37.4027528" lon="-0.6660496"><ele>0.0</ele><time>2026-04-29T13:48:18.098Z</time></trkpt><trkpt lat="37.4028146" lon="-0.6659696"><ele>0.0</ele><time>2026-04-29T13:48:19.099Z</time></trkpt><trkpt lat="37.4028759" lon="-0.6658928"><ele>0.0</ele><time>2026-04-29T13:48:20.099Z</time></trkpt><trkpt lat="37.4029385" lon="-0.6658198"><ele>0.0</ele><time>2026-04-29T13:48:21.098Z</time></trkpt><trkpt lat="37.4029992" lon="-0.6657422"><ele>0.0</ele><time>2026-04-29T13:48:22.099Z</time></trkpt><trkpt lat="37.4031245" lon="-0.6655989"><ele>0.0</ele><time>2026-04-29T13:48:24.098Z</time></trkpt><trkpt lat="37.4031885" lon="-0.6655239"><ele>0.0</ele><time>2026-04-29T13:48:25.099Z</time></trkpt><trkpt lat="37.4032521" lon="-0.6654474"><ele>0.0</ele><time>2026-04-29T13:48:26.099Z</time></trkpt><trkpt lat="37.403328" lon="-0.6653976"><ele>0.0</ele><time>2026-04-29T13:48:27.098Z</time></trkpt><trkpt lat="37.4033967" lon="-0.6653338"><ele>0.0</ele><time>2026-04-29T13:48:28.099Z</time></trkpt><trkpt lat="37.4034693" lon="-0.6652733"><ele>0.0</ele><time>2026-04-29T13:48:29.099Z</time></trkpt><trkpt lat="37.4035444" lon="-0.6652344"><ele>0.0</ele><time>2026-04-29T13:48:30.098Z</time></trkpt><trkpt lat="37.4036203" lon="-0.6652514"><ele>0.0</ele><time>2026-04-29T13:48:31.098Z</time></trkpt><trkpt lat="37.4036911" lon="-0.665209"><ele>0.0</ele><time>2026-04-29T13:48:32.099Z</time></trkpt><trkpt lat="37.4037657" lon="-0.6651593"><ele>0.0</ele><time>2026-04-29T13:48:33.098Z</time></trkpt><trkpt lat="37.4038368" lon="-0.6650913"><ele>0.0</ele><time>2026-04-29T13:48:34.098Z</time></trkpt><trkpt lat="37.4039122" lon="-0.6650279"><ele>0.0</ele><time>2026-04-29T13:48:35.098Z</time></trkpt><trkpt lat="37.4039836" lon="-0.6649629"><ele>0.0</ele><time>2026-04-29T13:48:36.099Z</time></trkpt><trkpt lat="37.4040517" lon="-0.6648963"><ele>0.0</ele><time>2026-04-29T13:48:37.098Z</time></trkpt><trkpt lat="37.4041227" lon="-0.6648292"><ele>0.0</ele><time>2026-04-29T13:48:38.099Z</time></trkpt><trkpt lat="37.4041974" lon="-0.664764"><ele>0.0</ele><time>2026-04-29T13:48:39.098Z</time></trkpt><trkpt lat="37.4042673" lon="-0.6646966"><ele>0.0</ele><time>2026-04-29T13:48:40.098Z</time></trkpt><trkpt lat="37.4043353" lon="-0.6646269"><ele>0.0</ele><time>2026-04-29T13:48:41.098Z</time></trkpt><trkpt lat="37.404404" lon="-0.6645568"><ele>0.0</ele><time>2026-04-29T13:48:42.098Z</time></trkpt><trkpt lat="37.4044701" lon="-0.6644853"><ele>0.0</ele><time>2026-04-29T13:48:43.098Z</time></trkpt><trkpt lat="37.4046084" lon="-0.6643469"><ele>0.0</ele><time>2026-04-29T13:48:45.098Z</time></trkpt><trkpt lat="37.4046732" lon="-0.6642721"><ele>0.0</ele><time>2026-04-29T13:48:46.099Z</time></trkpt><trkpt lat="37.4047402" lon="-0.6642028"><ele>0.0</ele><time>2026-04-29T13:48:47.098Z</time></trkpt><trkpt lat="37.4048112" lon="-0.6641362"><ele>0.0</ele><time>2026-04-29T13:48:48.099Z</time></trkpt><trkpt lat="37.4048819" lon="-0.6640654"><ele>0.0</ele><time>2026-04-29T13:48:49.098Z</time></trkpt><trkpt lat="37.4049484" lon="-0.6639953"><ele>0.0</ele><time>2026-04-29T13:48:50.099Z</time></trkpt><trkpt lat="37.4050144" lon="-0.6639218"><ele>0.0</ele><time>2026-04-29T13:48:51.098Z</time></trkpt><trkpt lat="37.4050827" lon="-0.6638473"><ele>0.0</ele><time>2026-04-29T13:48:52.098Z</time></trkpt><trkpt lat="37.4051514" lon="-0.6637752"><ele>0.0</ele><time>2026-04-29T13:48:53.098Z</time></trkpt><trkpt lat="37.405218" lon="-0.6636989"><ele>0.0</ele><time>2026-04-29T13:48:54.099Z</time></trkpt><trkpt lat="37.4052862" lon="-0.6636239"><ele>0.0</ele><time>2026-04-29T13:48:55.098Z</time></trkpt><trkpt lat="37.405359" lon="-0.6635475"><ele>0.0</ele><time>2026-04-29T13:48:56.098Z</time></trkpt><trkpt lat="37.4054277" lon="-0.6634734"><ele>0.0</ele><time>2026-04-29T13:48:57.099Z</time></trkpt><trkpt lat="37.4054979" lon="-0.6633999"><ele>0.0</ele><time>2026-04-29T13:48:58.098Z</time></trkpt><trkpt lat="37.4055633" lon="-0.6633283"><ele>0.0</ele><time>2026-04-29T13:48:59.099Z</time></trkpt><trkpt lat="37.4056293" lon="-0.6632524"><ele>0.0</ele><time>2026-04-29T13:49:00.098Z</time></trkpt><trkpt lat="37.4056952" lon="-0.6631813"><ele>0.0</ele><time>2026-04-29T13:49:01.098Z</time></trkpt><trkpt lat="37.4057617" lon="-0.663113"><ele>0.0</ele><time>2026-04-29T13:49:02.099Z</time></trkpt><trkpt lat="37.4058256" lon="-0.6630463"><ele>0.0</ele><time>2026-04-29T13:49:03.098Z</time></trkpt><trkpt lat="37.4058885" lon="-0.6629795"><ele>0.0</ele><time>2026-04-29T13:49:04.098Z</time></trkpt><trkpt lat="37.4060251" lon="-0.6628512"><ele>0.0</ele><time>2026-04-29T13:49:06.098Z</time></trkpt><trkpt lat="37.406092" lon="-0.6627847"><ele>0.0</ele><time>2026-04-29T13:49:07.099Z</time></trkpt><trkpt lat="37.4061593" lon="-0.6627133"><ele>0.0</ele><time>2026-04-29T13:49:08.099Z</time></trkpt><trkpt lat="37.4062248" lon="-0.662644"><ele>0.0</ele><time>2026-04-29T13:49:09.099Z</time></trkpt><trkpt lat="37.4062928" lon="-0.6625721"><ele>0.0</ele><time>2026-04-29T13:49:10.098Z</time></trkpt><trkpt lat="37.406361" lon="-0.6624972"><ele>0.0</ele><time>2026-04-29T13:49:11.099Z</time></trkpt><trkpt lat="37.4064342" lon="-0.6624207"><ele>0.0</ele><time>2026-04-29T13:49:12.098Z</time></trkpt><trkpt lat="37.4065048" lon="-0.6623499"><ele>0.0</ele><time>2026-04-29T13:49:13.099Z</time></trkpt><trkpt lat="37.4065699" lon="-0.6622785"><ele>0.0</ele><time>2026-04-29T13:49:14.098Z</time></trkpt><trkpt lat="37.4066349" lon="-0.6622069"><ele>0.0</ele><time>2026-04-29T13:49:15.098Z</time></trkpt><trkpt lat="37.4067001" lon="-0.662135"><ele>0.0</ele><time>2026-04-29T13:49:16.098Z</time></trkpt><trkpt lat="37.4067711" lon="-0.6620651"><ele>0.0</ele><time>2026-04-29T13:49:17.098Z</time></trkpt><trkpt lat="37.4068388" lon="-0.6619933"><ele>0.0</ele><time>2026-04-29T13:49:18.098Z</time></trkpt><trkpt lat="37.4069032" lon="-0.6619276"><ele>0.0</ele><time>2026-04-29T13:49:19.098Z</time></trkpt><trkpt lat="37.4069698" lon="-0.6618583"><ele>0.0</ele><time>2026-04-29T13:49:20.099Z</time></trkpt><trkpt lat="37.4070339" lon="-0.6617938"><ele>0.0</ele><time>2026-04-29T13:49:21.098Z</time></trkpt><trkpt lat="37.4071058" lon="-0.6617236"><ele>0.0</ele><time>2026-04-29T13:49:22.099Z</time></trkpt><trkpt lat="37.407177" lon="-0.6616577"><ele>0.0</ele><time>2026-04-29T13:49:23.099Z</time></trkpt><trkpt lat="37.4072469" lon="-0.6615949"><ele>0.0</ele><time>2026-04-29T13:49:24.099Z</time></trkpt><trkpt lat="37.4073124" lon="-0.6615228"><ele>0.0</ele><time>2026-04-29T13:49:25.098Z</time></trkpt><trkpt lat="37.407445" lon="-0.6613614"><ele>0.0</ele><time>2026-04-29T13:49:27.098Z</time></trkpt><trkpt lat="37.4075145" lon="-0.6613018"><ele>0.0</ele><time>2026-04-29T13:49:28.098Z</time></trkpt><trkpt lat="37.4075818" lon="-0.6612335"><ele>0.0</ele><time>2026-04-29T13:49:29.098Z</time></trkpt><trkpt lat="37.4076526" lon="-0.6611693"><ele>0.0</ele><time>2026-04-29T13:49:30.098Z</time></trkpt><trkpt lat="37.4077214" lon="-0.6611016"><ele>0.0</ele><time>2026-04-29T13:49:31.098Z</time></trkpt><trkpt lat="37.4077887" lon="-0.6610378"><ele>0.0</ele><time>2026-04-29T13:49:32.098Z</time></trkpt><trkpt lat="37.4078538" lon="-0.6609755"><ele>0.0</ele><time>2026-04-29T13:49:33.098Z</time></trkpt><trkpt lat="37.4079185" lon="-0.6609111"><ele>0.0</ele><time>2026-04-29T13:49:34.099Z</time></trkpt><trkpt lat="37.4079851" lon="-0.6608446"><ele>0.0</ele><time>2026-04-29T13:49:35.099Z</time></trkpt><trkpt lat="37.4080536" lon="-0.6607782"><ele>0.0</ele><time>2026-04-29T13:49:36.098Z</time></trkpt><trkpt lat="37.408123" lon="-0.6607071"><ele>0.0</ele><time>2026-04-29T13:49:37.099Z</time></trkpt><trkpt lat="37.4081915" lon="-0.6606353"><ele>0.0</ele><time>2026-04-29T13:49:38.098Z</time></trkpt><trkpt lat="37.4082592" lon="-0.6605651"><ele>0.0</ele><time>2026-04-29T13:49:39.099Z</time></trkpt><trkpt lat="37.4083265" lon="-0.6604922"><ele>0.0</ele><time>2026-04-29T13:49:40.098Z</time></trkpt><trkpt lat="37.4083964" lon="-0.6604186"><ele>0.0</ele><time>2026-04-29T13:49:41.098Z</time></trkpt><trkpt lat="37.4084649" lon="-0.6603453"><ele>0.0</ele><time>2026-04-29T13:49:42.098Z</time></trkpt><trkpt lat="37.4085299" lon="-0.6602718"><ele>0.0</ele><time>2026-04-29T13:49:43.098Z</time></trkpt><trkpt lat="37.4085995" lon="-0.6602016"><ele>0.0</ele><time>2026-04-29T13:49:44.099Z</time></trkpt><trkpt lat="37.4086697" lon="-0.6601303"><ele>0.0</ele><time>2026-04-29T13:49:45.099Z</time></trkpt><trkpt lat="37.4087407" lon="-0.6600673"><ele>0.0</ele><time>2026-04-29T13:49:46.099Z</time></trkpt><trkpt lat="37.4088811" lon="-0.6599211"><ele>0.0</ele><time>2026-04-29T13:49:48.098Z</time></trkpt><trkpt lat="37.4089513" lon="-0.6598513"><ele>0.0</ele><time>2026-04-29T13:49:49.098Z</time></trkpt><trkpt lat="37.4090257" lon="-0.6597817"><ele>0.0</ele><time>2026-04-29T13:49:50.098Z</time></trkpt><trkpt lat="37.4090925" lon="-0.6597045"><ele>0.0</ele><time>2026-04-29T13:49:51.098Z</time></trkpt><trkpt lat="37.4091569" lon="-0.6596301"><ele>0.0</ele><time>2026-04-29T13:49:52.099Z</time></trkpt><trkpt lat="37.4092219" lon="-0.6595611"><ele>0.0</ele><time>2026-04-29T13:49:53.099Z</time></trkpt><trkpt lat="37.4092908" lon="-0.6594902"><ele>0.0</ele><time>2026-04-29T13:49:54.099Z</time></trkpt><trkpt lat="37.4093597" lon="-0.6594213"><ele>0.0</ele><time>2026-04-29T13:49:55.099Z</time></trkpt><trkpt lat="37.4094284" lon="-0.6593356"><ele>0.0</ele><time>2026-04-29T13:49:56.098Z</time></trkpt><trkpt lat="37.4094923" lon="-0.6592621"><ele>0.0</ele><time>2026-04-29T13:49:57.098Z</time></trkpt><trkpt lat="37.4095538" lon="-0.6591885"><ele>0.0</ele><time>2026-04-29T13:49:58.098Z</time></trkpt><trkpt lat="37.4096181" lon="-0.6591153"><ele>0.0</ele><time>2026-04-29T13:49:59.098Z</time></trkpt><trkpt lat="37.4096864" lon="-0.659046"><ele>0.0</ele><time>2026-04-29T13:50:00.098Z</time></trkpt><trkpt lat="37.4097524" lon="-0.6589777"><ele>0.0</ele><time>2026-04-29T13:50:01.099Z</time></trkpt><trkpt lat="37.4098183" lon="-0.6589073"><ele>0.0</ele><time>2026-04-29T13:50:02.098Z</time></trkpt><trkpt lat="37.4098877" lon="-0.6588326"><ele>0.0</ele><time>2026-04-29T13:50:03.098Z</time></trkpt><trkpt lat="37.4099563" lon="-0.6587544"><ele>0.0</ele><time>2026-04-29T13:50:04.098Z</time></trkpt><trkpt lat="37.4100246" lon="-0.6586761"><ele>0.0</ele><time>2026-04-29T13:50:05.099Z</time></trkpt><trkpt lat="37.4100975" lon="-0.6585991"><ele>0.0</ele><time>2026-04-29T13:50:06.099Z</time></trkpt><trkpt lat="37.4101694" lon="-0.6585206"><ele>0.0</ele><time>2026-04-29T13:50:07.099Z</time></trkpt><trkpt lat="37.4103125" lon="-0.6583714"><ele>0.0</ele><time>2026-04-29T13:50:09.098Z</time></trkpt><trkpt lat="37.4103829" lon="-0.6582957"><ele>0.0</ele><time>2026-04-29T13:50:10.099Z</time></trkpt><trkpt lat="37.4104502" lon="-0.6582265"><ele>0.0</ele><time>2026-04-29T13:50:11.099Z</time></trkpt><trkpt lat="37.4105165" lon="-0.6581593"><ele>0.0</ele><time>2026-04-29T13:50:12.099Z</time></trkpt><trkpt lat="37.41059" lon="-0.6580966"><ele>0.0</ele><time>2026-04-29T13:50:13.098Z</time></trkpt><trkpt lat="37.4106583" lon="-0.658028"><ele>0.0</ele><time>2026-04-29T13:50:14.098Z</time></trkpt><trkpt lat="37.4107282" lon="-0.6579581"><ele>0.0</ele><time>2026-04-29T13:50:15.098Z</time></trkpt><trkpt lat="37.4107969" lon="-0.6578881"><ele>0.0</ele><time>2026-04-29T13:50:16.099Z</time></trkpt><trkpt lat="37.4108551" lon="-0.6578109"><ele>0.0</ele><time>2026-04-29T13:50:17.097Z</time></trkpt><trkpt lat="37.4109217" lon="-0.6577341"><ele>0.0</ele><time>2026-04-29T13:50:18.098Z</time></trkpt><trkpt lat="37.4109816" lon="-0.6576502"><ele>0.0</ele><time>2026-04-29T13:50:19.098Z</time></trkpt><trkpt lat="37.411044" lon="-0.6575735"><ele>0.0</ele><time>2026-04-29T13:50:20.097Z</time></trkpt><trkpt lat="37.4111054" lon="-0.6574985"><ele>0.0</ele><time>2026-04-29T13:50:21.097Z</time></trkpt><trkpt lat="37.4111703" lon="-0.6574251"><ele>0.0</ele><time>2026-04-29T13:50:22.097Z</time></trkpt><trkpt lat="37.4112363" lon="-0.6573547"><ele>0.0</ele><time>2026-04-29T13:50:23.097Z</time></trkpt><trkpt lat="37.4113032" lon="-0.6572831"><ele>0.0</ele><time>2026-04-29T13:50:24.097Z</time></trkpt><trkpt lat="37.4113684" lon="-0.657213"><ele>0.0</ele><time>2026-04-29T13:50:25.097Z</time></trkpt><trkpt lat="37.4114368" lon="-0.6571418"><ele>0.0</ele><time>2026-04-29T13:50:26.098Z</time></trkpt><trkpt lat="37.4115036" lon="-0.6570692"><ele>0.0</ele><time>2026-04-29T13:50:27.098Z</time></trkpt><trkpt lat="37.4115699" lon="-0.6569968"><ele>0.0</ele><time>2026-04-29T13:50:28.097Z</time></trkpt><trkpt lat="37.4117011" lon="-0.6568534"><ele>0.0</ele><time>2026-04-29T13:50:30.097Z</time></trkpt><trkpt lat="37.4117656" lon="-0.656775"><ele>0.0</ele><time>2026-04-29T13:50:31.097Z</time></trkpt><trkpt lat="37.4118304" lon="-0.6566975"><ele>0.0</ele><time>2026-04-29T13:50:32.098Z</time></trkpt><trkpt lat="37.4118926" lon="-0.6566167"><ele>0.0</ele><time>2026-04-29T13:50:33.097Z</time></trkpt><trkpt lat="37.4119497" lon="-0.6565432"><ele>0.0</ele><time>2026-04-29T13:50:34.097Z</time></trkpt><trkpt lat="37.4120047" lon="-0.6564828"><ele>0.0</ele><time>2026-04-29T13:50:35.098Z</time></trkpt><trkpt lat="37.4120629" lon="-0.6563965"><ele>0.0</ele><time>2026-04-29T13:50:36.097Z</time></trkpt><trkpt lat="37.4121328" lon="-0.6563279"><ele>0.0</ele><time>2026-04-29T13:50:37.098Z</time></trkpt><trkpt lat="37.4122028" lon="-0.6562596"><ele>0.0</ele><time>2026-04-29T13:50:38.097Z</time></trkpt><trkpt lat="37.412273" lon="-0.6561927"><ele>0.0</ele><time>2026-04-29T13:50:39.098Z</time></trkpt><trkpt lat="37.4123445" lon="-0.6561271"><ele>0.0</ele><time>2026-04-29T13:50:40.097Z</time></trkpt><trkpt lat="37.4124092" lon="-0.6560491"><ele>0.0</ele><time>2026-04-29T13:50:41.097Z</time></trkpt><trkpt lat="37.4124743" lon="-0.6559753"><ele>0.0</ele><time>2026-04-29T13:50:42.098Z</time></trkpt><trkpt lat="37.4125395" lon="-0.6558976"><ele>0.0</ele><time>2026-04-29T13:50:43.097Z</time></trkpt><trkpt lat="37.4126087" lon="-0.6558211"><ele>0.0</ele><time>2026-04-29T13:50:44.098Z</time></trkpt><trkpt lat="37.4126698" lon="-0.6557401"><ele>0.0</ele><time>2026-04-29T13:50:45.097Z</time></trkpt><trkpt lat="37.4127369" lon="-0.6556697"><ele>0.0</ele><time>2026-04-29T13:50:46.097Z</time></trkpt><trkpt lat="37.4128088" lon="-0.6556001"><ele>0.0</ele><time>2026-04-29T13:50:47.097Z</time></trkpt><trkpt lat="37.4128771" lon="-0.6555297"><ele>0.0</ele><time>2026-04-29T13:50:48.098Z</time></trkpt><trkpt lat="37.4129471" lon="-0.6554672"><ele>0.0</ele><time>2026-04-29T13:50:49.098Z</time></trkpt><trkpt lat="37.4130778" lon="-0.6553339"><ele>0.0</ele><time>2026-04-29T13:50:51.097Z</time></trkpt><trkpt lat="37.4131374" lon="-0.6552607"><ele>0.0</ele><time>2026-04-29T13:50:52.098Z</time></trkpt><trkpt lat="37.4131991" lon="-0.6551862"><ele>0.0</ele><time>2026-04-29T13:50:53.097Z</time></trkpt><trkpt lat="37.4132633" lon="-0.6551156"><ele>0.0</ele><time>2026-04-29T13:50:54.098Z</time></trkpt><trkpt lat="37.4133287" lon="-0.6550452"><ele>0.0</ele><time>2026-04-29T13:50:55.097Z</time></trkpt><trkpt lat="37.4133906" lon="-0.6549731"><ele>0.0</ele><time>2026-04-29T13:50:56.098Z</time></trkpt><trkpt lat="37.4134551" lon="-0.6549035"><ele>0.0</ele><time>2026-04-29T13:50:57.097Z</time></trkpt><trkpt lat="37.4135174" lon="-0.6548263"><ele>0.0</ele><time>2026-04-29T13:50:58.097Z</time></trkpt><trkpt lat="37.4135861" lon="-0.654755"><ele>0.0</ele><time>2026-04-29T13:50:59.097Z</time></trkpt><trkpt lat="37.4136494" lon="-0.6546849"><ele>0.0</ele><time>2026-04-29T13:51:00.098Z</time></trkpt><trkpt lat="37.4137152" lon="-0.6546166"><ele>0.0</ele><time>2026-04-29T13:51:01.097Z</time></trkpt><trkpt lat="37.4137858" lon="-0.6545409"><ele>0.0</ele><time>2026-04-29T13:51:02.098Z</time></trkpt><trkpt lat="37.4138551" lon="-0.6544702"><ele>0.0</ele><time>2026-04-29T13:51:03.098Z</time></trkpt><trkpt lat="37.4139231" lon="-0.6543957"><ele>0.0</ele><time>2026-04-29T13:51:04.097Z</time></trkpt><trkpt lat="37.4139899" lon="-0.6543202"><ele>0.0</ele><time>2026-04-29T13:51:05.097Z</time></trkpt><trkpt lat="37.4140548" lon="-0.6542451"><ele>0.0</ele><time>2026-04-29T13:51:06.098Z</time></trkpt><trkpt lat="37.4141221" lon="-0.6541752"><ele>0.0</ele><time>2026-04-29T13:51:07.097Z</time></trkpt><trkpt lat="37.4141867" lon="-0.6541"><ele>0.0</ele><time>2026-04-29T13:51:08.098Z</time></trkpt><trkpt lat="37.4142533" lon="-0.6540281"><ele>0.0</ele><time>2026-04-29T13:51:09.098Z</time></trkpt><trkpt lat="37.4143201" lon="-0.6539567"><ele>0.0</ele><time>2026-04-29T13:51:10.097Z</time></trkpt><trkpt lat="37.4144678" lon="-0.6538006"><ele>0.0</ele><time>2026-04-29T13:51:12.098Z</time></trkpt><trkpt lat="37.4145378" lon="-0.6537208"><ele>0.0</ele><time>2026-04-29T13:51:13.097Z</time></trkpt><trkpt lat="37.414605" lon="-0.653645"><ele>0.0</ele><time>2026-04-29T13:51:14.097Z</time></trkpt><trkpt lat="37.4146751" lon="-0.6535718"><ele>0.0</ele><time>2026-04-29T13:51:15.098Z</time></trkpt><trkpt lat="37.4147405" lon="-0.6535014"><ele>0.0</ele><time>2026-04-29T13:51:16.097Z</time></trkpt><trkpt lat="37.4147994" lon="-0.6534258"><ele>0.0</ele><time>2026-04-29T13:51:17.098Z</time></trkpt><trkpt lat="37.4148588" lon="-0.6533504"><ele>0.0</ele><time>2026-04-29T13:51:18.097Z</time></trkpt><trkpt lat="37.4149259" lon="-0.6532838"><ele>0.0</ele><time>2026-04-29T13:51:19.098Z</time></trkpt><trkpt lat="37.4149948" lon="-0.6532118"><ele>0.0</ele><time>2026-04-29T13:51:20.098Z</time></trkpt><trkpt lat="37.4150676" lon="-0.6531515"><ele>0.0</ele><time>2026-04-29T13:51:21.097Z</time></trkpt><trkpt lat="37.4151353" lon="-0.6530773"><ele>0.0</ele><time>2026-04-29T13:51:22.097Z</time></trkpt><trkpt lat="37.4152028" lon="-0.653006"><ele>0.0</ele><time>2026-04-29T13:51:23.098Z</time></trkpt><trkpt lat="37.4152655" lon="-0.6529334"><ele>0.0</ele><time>2026-04-29T13:51:24.097Z</time></trkpt><trkpt lat="37.4153356" lon="-0.6528672"><ele>0.0</ele><time>2026-04-29T13:51:25.098Z</time></trkpt><trkpt lat="37.4154091" lon="-0.6528007"><ele>0.0</ele><time>2026-04-29T13:51:26.097Z</time></trkpt><trkpt lat="37.4154799" lon="-0.6527298"><ele>0.0</ele><time>2026-04-29T13:51:27.098Z</time></trkpt><trkpt lat="37.4155456" lon="-0.6526546"><ele>0.0</ele><time>2026-04-29T13:51:28.097Z</time></trkpt><trkpt lat="37.4156036" lon="-0.652554"><ele>0.0</ele><time>2026-04-29T13:51:29.098Z</time></trkpt><trkpt lat="37.4156641" lon="-0.6524716"><ele>0.0</ele><time>2026-04-29T13:51:30.097Z</time></trkpt><trkpt lat="37.4157269" lon="-0.6523971"><ele>0.0</ele><time>2026-04-29T13:51:31.097Z</time></trkpt><trkpt lat="37.4158541" lon="-0.6522669"><ele>0.0</ele><time>2026-04-29T13:51:33.097Z</time></trkpt><trkpt lat="37.4159201" lon="-0.6521882"><ele>0.0</ele><time>2026-04-29T13:51:34.098Z</time></trkpt><trkpt lat="37.4159911" lon="-0.6521121"><ele>0.0</ele><time>2026-04-29T13:51:35.098Z</time></trkpt><trkpt lat="37.4160677" lon="-0.6520696"><ele>0.0</ele><time>2026-04-29T13:51:36.097Z</time></trkpt><trkpt lat="37.4161368" lon="-0.6520086"><ele>0.0</ele><time>2026-04-29T13:51:37.097Z</time></trkpt><trkpt lat="37.4162059" lon="-0.6519371"><ele>0.0</ele><time>2026-04-29T13:51:38.098Z</time></trkpt><trkpt lat="37.4162722" lon="-0.6518591"><ele>0.0</ele><time>2026-04-29T13:51:39.098Z</time></trkpt><trkpt lat="37.4163339" lon="-0.6517745"><ele>0.0</ele><time>2026-04-29T13:51:40.097Z</time></trkpt><trkpt lat="37.4164005" lon="-0.6516944"><ele>0.0</ele><time>2026-04-29T13:51:41.097Z</time></trkpt><trkpt lat="37.4164696" lon="-0.6516202"><ele>0.0</ele><time>2026-04-29T13:51:42.097Z</time></trkpt><trkpt lat="37.416537" lon="-0.6515552"><ele>0.0</ele><time>2026-04-29T13:51:43.097Z</time></trkpt><trkpt lat="37.4166074" lon="-0.6515417"><ele>0.0</ele><time>2026-04-29T13:51:44.098Z</time></trkpt><trkpt lat="37.416682" lon="-0.6514878"><ele>0.0</ele><time>2026-04-29T13:51:45.097Z</time></trkpt><trkpt lat="37.4167461" lon="-0.6514187"><ele>0.0</ele><time>2026-04-29T13:51:46.098Z</time></trkpt><trkpt lat="37.4168149" lon="-0.6513598"><ele>0.0</ele><time>2026-04-29T13:51:47.098Z</time></trkpt><trkpt lat="37.4168748" lon="-0.6512915"><ele>0.0</ele><time>2026-04-29T13:51:48.098Z</time></trkpt><trkpt lat="37.4169431" lon="-0.6512353"><ele>0.0</ele><time>2026-04-29T13:51:49.098Z</time></trkpt><trkpt lat="37.4170076" lon="-0.651179"><ele>0.0</ele><time>2026-04-29T13:51:50.097Z</time></trkpt><trkpt lat="37.4170737" lon="-0.6511081"><ele>0.0</ele><time>2026-04-29T13:51:51.098Z</time></trkpt><trkpt lat="37.4171399" lon="-0.6510391"><ele>0.0</ele><time>2026-04-29T13:51:52.097Z</time></trkpt><trkpt lat="37.4172718" lon="-0.6508954"><ele>0.0</ele><time>2026-04-29T13:51:54.097Z</time></trkpt><trkpt lat="37.4173335" lon="-0.65082"><ele>0.0</ele><time>2026-04-29T13:51:55.098Z</time></trkpt><trkpt lat="37.4173992" lon="-0.6507437"><ele>0.0</ele><time>2026-04-29T13:51:56.098Z</time></trkpt><trkpt lat="37.4174706" lon="-0.6506681"><ele>0.0</ele><time>2026-04-29T13:51:57.098Z</time></trkpt><trkpt lat="37.4175355" lon="-0.6505881"><ele>0.0</ele><time>2026-04-29T13:51:58.098Z</time></trkpt><trkpt lat="37.4176013" lon="-0.6505049"><ele>0.0</ele><time>2026-04-29T13:51:59.097Z</time></trkpt><trkpt lat="37.4176726" lon="-0.6504245"><ele>0.0</ele><time>2026-04-29T13:52:00.097Z</time></trkpt><trkpt lat="37.417739" lon="-0.6503387"><ele>0.0</ele><time>2026-04-29T13:52:01.098Z</time></trkpt><trkpt lat="37.4178051" lon="-0.6502595"><ele>0.0</ele><time>2026-04-29T13:52:02.097Z</time></trkpt><trkpt lat="37.4178704" lon="-0.6501713"><ele>0.0</ele><time>2026-04-29T13:52:03.097Z</time></trkpt><trkpt lat="37.4179353" lon="-0.6500895"><ele>0.0</ele><time>2026-04-29T13:52:04.097Z</time></trkpt><trkpt lat="37.418" lon="-0.6500198"><ele>0.0</ele><time>2026-04-29T13:52:05.097Z</time></trkpt><trkpt lat="37.4180681" lon="-0.6499414"><ele>0.0</ele><time>2026-04-29T13:52:06.097Z</time></trkpt><trkpt lat="37.4181396" lon="-0.6498744"><ele>0.0</ele><time>2026-04-29T13:52:07.097Z</time></trkpt><trkpt lat="37.4182071" lon="-0.6497976"><ele>0.0</ele><time>2026-04-29T13:52:08.097Z</time></trkpt><trkpt lat="37.4182747" lon="-0.6497308"><ele>0.0</ele><time>2026-04-29T13:52:09.097Z</time></trkpt><trkpt lat="37.4183427" lon="-0.6496576"><ele>0.0</ele><time>2026-04-29T13:52:10.098Z</time></trkpt><trkpt lat="37.4184087" lon="-0.6495869"><ele>0.0</ele><time>2026-04-29T13:52:11.097Z</time></trkpt><trkpt lat="37.4184738" lon="-0.6495186"><ele>0.0</ele><time>2026-04-29T13:52:12.097Z</time></trkpt><trkpt lat="37.4185399" lon="-0.6494513"><ele>0.0</ele><time>2026-04-29T13:52:13.097Z</time></trkpt><trkpt lat="37.4186786" lon="-0.649307"><ele>0.0</ele><time>2026-04-29T13:52:15.097Z</time></trkpt><trkpt lat="37.4187471" lon="-0.6492315"><ele>0.0</ele><time>2026-04-29T13:52:16.098Z</time></trkpt><trkpt lat="37.4188147" lon="-0.6491603"><ele>0.0</ele><time>2026-04-29T13:52:17.098Z</time></trkpt><trkpt lat="37.4188871" lon="-0.6490248"><ele>0.0</ele><time>2026-04-29T13:52:18.098Z</time></trkpt><trkpt lat="37.4189535" lon="-0.6489314"><ele>0.0</ele><time>2026-04-29T13:52:19.098Z</time></trkpt><trkpt lat="37.4190216" lon="-0.6488536"><ele>0.0</ele><time>2026-04-29T13:52:20.097Z</time></trkpt><trkpt lat="37.4190885" lon="-0.648783"><ele>0.0</ele><time>2026-04-29T13:52:21.098Z</time></trkpt><trkpt lat="37.4191551" lon="-0.6487141"><ele>0.0</ele><time>2026-04-29T13:52:22.098Z</time></trkpt><trkpt lat="37.4192156" lon="-0.6486403"><ele>0.0</ele><time>2026-04-29T13:52:23.098Z</time></trkpt><trkpt lat="37.4192825" lon="-0.6485711"><ele>0.0</ele><time>2026-04-29T13:52:24.097Z</time></trkpt><trkpt lat="37.4193541" lon="-0.6485039"><ele>0.0</ele><time>2026-04-29T13:52:25.098Z</time></trkpt><trkpt lat="37.419422" lon="-0.6484315"><ele>0.0</ele><time>2026-04-29T13:52:26.098Z</time></trkpt><trkpt lat="37.4194858" lon="-0.6483614"><ele>0.0</ele><time>2026-04-29T13:52:27.098Z</time></trkpt><trkpt lat="37.4195602" lon="-0.6483044"><ele>0.0</ele><time>2026-04-29T13:52:28.098Z</time></trkpt><trkpt lat="37.4196251" lon="-0.6482307"><ele>0.0</ele><time>2026-04-29T13:52:29.097Z</time></trkpt><trkpt lat="37.4196844" lon="-0.6481541"><ele>0.0</ele><time>2026-04-29T13:52:30.098Z</time></trkpt><trkpt lat="37.4197467" lon="-0.6480731"><ele>0.0</ele><time>2026-04-29T13:52:31.097Z</time></trkpt><trkpt lat="37.4198116" lon="-0.6480039"><ele>0.0</ele><time>2026-04-29T13:52:32.097Z</time></trkpt><trkpt lat="37.419881" lon="-0.6479215"><ele>0.0</ele><time>2026-04-29T13:52:33.098Z</time></trkpt><trkpt lat="37.4199528" lon="-0.6478541"><ele>0.0</ele><time>2026-04-29T13:52:34.097Z</time></trkpt><trkpt lat="37.4200852" lon="-0.6477069"><ele>0.0</ele><time>2026-04-29T13:52:36.097Z</time></trkpt><trkpt lat="37.4201518" lon="-0.6476355"><ele>0.0</ele><time>2026-04-29T13:52:37.097Z</time></trkpt><trkpt lat="37.4202169" lon="-0.6475623"><ele>0.0</ele><time>2026-04-29T13:52:38.097Z</time></trkpt><trkpt lat="37.4202858" lon="-0.6474962"><ele>0.0</ele><time>2026-04-29T13:52:39.097Z</time></trkpt><trkpt lat="37.4203564" lon="-0.6474239"><ele>0.0</ele><time>2026-04-29T13:52:40.098Z</time></trkpt><trkpt lat="37.4204191" lon="-0.6473444"><ele>0.0</ele><time>2026-04-29T13:52:41.097Z</time></trkpt><trkpt lat="37.420483" lon="-0.6472674"><ele>0.0</ele><time>2026-04-29T13:52:42.098Z</time></trkpt><trkpt lat="37.4205451" lon="-0.6471831"><ele>0.0</ele><time>2026-04-29T13:52:43.098Z</time></trkpt><trkpt lat="37.4206107" lon="-0.6471057"><ele>0.0</ele><time>2026-04-29T13:52:44.098Z</time></trkpt><trkpt lat="37.4206833" lon="-0.6470262"><ele>0.0</ele><time>2026-04-29T13:52:45.098Z</time></trkpt><trkpt lat="37.42075" lon="-0.6469493"><ele>0.0</ele><time>2026-04-29T13:52:46.097Z</time></trkpt><trkpt lat="37.4208166" lon="-0.646873"><ele>0.0</ele><time>2026-04-29T13:52:47.097Z</time></trkpt><trkpt lat="37.4208833" lon="-0.6467893"><ele>0.0</ele><time>2026-04-29T13:52:48.097Z</time></trkpt><trkpt lat="37.4209514" lon="-0.646712"><ele>0.0</ele><time>2026-04-29T13:52:49.097Z</time></trkpt><trkpt lat="37.4210212" lon="-0.6466384"><ele>0.0</ele><time>2026-04-29T13:52:50.097Z</time></trkpt><trkpt lat="37.4210901" lon="-0.6465685"><ele>0.0</ele><time>2026-04-29T13:52:51.098Z</time></trkpt><trkpt lat="37.4211599" lon="-0.6464943"><ele>0.0</ele><time>2026-04-29T13:52:52.098Z</time></trkpt><trkpt lat="37.4212283" lon="-0.6464253"><ele>0.0</ele><time>2026-04-29T13:52:53.097Z</time></trkpt><trkpt lat="37.4212924" lon="-0.6463537"><ele>0.0</ele><time>2026-04-29T13:52:54.097Z</time></trkpt><trkpt lat="37.4213552" lon="-0.6462792"><ele>0.0</ele><time>2026-04-29T13:52:55.098Z</time></trkpt><trkpt lat="37.4214894" lon="-0.6461293"><ele>0.0</ele><time>2026-04-29T13:52:57.098Z</time></trkpt><trkpt lat="37.4215621" lon="-0.6460649"><ele>0.0</ele><time>2026-04-29T13:52:58.098Z</time></trkpt><trkpt lat="37.4216331" lon="-0.6460047"><ele>0.0</ele><time>2026-04-29T13:52:59.098Z</time></trkpt><trkpt lat="37.4216975" lon="-0.6459346"><ele>0.0</ele><time>2026-04-29T13:53:00.097Z</time></trkpt><trkpt lat="37.4217632" lon="-0.6458661"><ele>0.0</ele><time>2026-04-29T13:53:01.097Z</time></trkpt><trkpt lat="37.4218298" lon="-0.6457931"><ele>0.0</ele><time>2026-04-29T13:53:02.097Z</time></trkpt><trkpt lat="37.4219009" lon="-0.6457281"><ele>0.0</ele><time>2026-04-29T13:53:03.098Z</time></trkpt><trkpt lat="37.421968" lon="-0.6456576"><ele>0.0</ele><time>2026-04-29T13:53:04.097Z</time></trkpt><trkpt lat="37.4220431" lon="-0.6456013"><ele>0.0</ele><time>2026-04-29T13:53:05.097Z</time></trkpt><trkpt lat="37.4221213" lon="-0.6455438"><ele>0.0</ele><time>2026-04-29T13:53:06.097Z</time></trkpt><trkpt lat="37.4221888" lon="-0.645484"><ele>0.0</ele><time>2026-04-29T13:53:07.097Z</time></trkpt><trkpt lat="37.4222549" lon="-0.6454203"><ele>0.0</ele><time>2026-04-29T13:53:08.097Z</time></trkpt><trkpt lat="37.4223259" lon="-0.6453589"><ele>0.0</ele><time>2026-04-29T13:53:09.097Z</time></trkpt><trkpt lat="37.4223965" lon="-0.64529"><ele>0.0</ele><time>2026-04-29T13:53:10.098Z</time></trkpt><trkpt lat="37.4224653" lon="-0.6452187"><ele>0.0</ele><time>2026-04-29T13:53:11.097Z</time></trkpt><trkpt lat="37.4225335" lon="-0.6451455"><ele>0.0</ele><time>2026-04-29T13:53:12.097Z</time></trkpt><trkpt lat="37.4226005" lon="-0.6450706"><ele>0.0</ele><time>2026-04-29T13:53:13.097Z</time></trkpt><trkpt lat="37.4226714" lon="-0.6450024"><ele>0.0</ele><time>2026-04-29T13:53:14.098Z</time></trkpt><trkpt lat="37.4227343" lon="-0.64493"><ele>0.0</ele><time>2026-04-29T13:53:15.097Z</time></trkpt><trkpt lat="37.4228016" lon="-0.6448554"><ele>0.0</ele><time>2026-04-29T13:53:16.098Z</time></trkpt><trkpt lat="37.4229345" lon="-0.6446911"><ele>0.0</ele><time>2026-04-29T13:53:18.097Z</time></trkpt><trkpt lat="37.4230003" lon="-0.6446125"><ele>0.0</ele><time>2026-04-29T13:53:19.098Z</time></trkpt><trkpt lat="37.4230653" lon="-0.6445338"><ele>0.0</ele><time>2026-04-29T13:53:20.098Z</time></trkpt><trkpt lat="37.4231276" lon="-0.6444454"><ele>0.0</ele><time>2026-04-29T13:53:21.098Z</time></trkpt><trkpt lat="37.4231947" lon="-0.6443535"><ele>0.0</ele><time>2026-04-29T13:53:22.097Z</time></trkpt><trkpt lat="37.4232673" lon="-0.6442784"><ele>0.0</ele><time>2026-04-29T13:53:23.098Z</time></trkpt><trkpt lat="37.4233352" lon="-0.6442038"><ele>0.0</ele><time>2026-04-29T13:53:24.097Z</time></trkpt><trkpt lat="37.4233988" lon="-0.6441237"><ele>0.0</ele><time>2026-04-29T13:53:25.098Z</time></trkpt><trkpt lat="37.4234691" lon="-0.6440549"><ele>0.0</ele><time>2026-04-29T13:53:26.097Z</time></trkpt><trkpt lat="37.4235394" lon="-0.6440017"><ele>0.0</ele><time>2026-04-29T13:53:27.097Z</time></trkpt><trkpt lat="37.4236038" lon="-0.6439335"><ele>0.0</ele><time>2026-04-29T13:53:28.097Z</time></trkpt><trkpt lat="37.4236714" lon="-0.6438567"><ele>0.0</ele><time>2026-04-29T13:53:29.097Z</time></trkpt><trkpt lat="37.4237312" lon="-0.6437829"><ele>0.0</ele><time>2026-04-29T13:53:30.097Z</time></trkpt><trkpt lat="37.4237893" lon="-0.643707"><ele>0.0</ele><time>2026-04-29T13:53:31.097Z</time></trkpt><trkpt lat="37.4238545" lon="-0.6436345"><ele>0.0</ele><time>2026-04-29T13:53:32.097Z</time></trkpt><trkpt lat="37.4239212" lon="-0.6435646"><ele>0.0</ele><time>2026-04-29T13:53:33.098Z</time></trkpt><trkpt lat="37.4239885" lon="-0.64349"><ele>0.0</ele><time>2026-04-29T13:53:34.097Z</time></trkpt><trkpt lat="37.4240596" lon="-0.6434223"><ele>0.0</ele><time>2026-04-29T13:53:35.097Z</time></trkpt><trkpt lat="37.4241256" lon="-0.6433474"><ele>0.0</ele><time>2026-04-29T13:53:36.097Z</time></trkpt><trkpt lat="37.4241877" lon="-0.6432808"><ele>0.0</ele><time>2026-04-29T13:53:37.097Z</time></trkpt><trkpt lat="37.4243219" lon="-0.6431397"><ele>0.0</ele><time>2026-04-29T13:53:39.098Z</time></trkpt><trkpt lat="37.4243845" lon="-0.6430722"><ele>0.0</ele><time>2026-04-29T13:53:40.097Z</time></trkpt><trkpt lat="37.4244442" lon="-0.6430016"><ele>0.0</ele><time>2026-04-29T13:53:41.097Z</time></trkpt><trkpt lat="37.4245037" lon="-0.642928"><ele>0.0</ele><time>2026-04-29T13:53:42.098Z</time></trkpt><trkpt lat="37.4245697" lon="-0.6428557"><ele>0.0</ele><time>2026-04-29T13:53:43.097Z</time></trkpt><trkpt lat="37.4246348" lon="-0.6427853"><ele>0.0</ele><time>2026-04-29T13:53:44.097Z</time></trkpt><trkpt lat="37.4247013" lon="-0.6427099"><ele>0.0</ele><time>2026-04-29T13:53:45.097Z</time></trkpt><trkpt lat="37.4247737" lon="-0.6426432"><ele>0.0</ele><time>2026-04-29T13:53:46.097Z</time></trkpt><trkpt lat="37.424844" lon="-0.6425798"><ele>0.0</ele><time>2026-04-29T13:53:47.097Z</time></trkpt><trkpt lat="37.4249113" lon="-0.6425098"><ele>0.0</ele><time>2026-04-29T13:53:48.097Z</time></trkpt><trkpt lat="37.4249756" lon="-0.6424425"><ele>0.0</ele><time>2026-04-29T13:53:49.098Z</time></trkpt><trkpt lat="37.4250444" lon="-0.6424069"><ele>0.0</ele><time>2026-04-29T13:53:50.097Z</time></trkpt><trkpt lat="37.4251114" lon="-0.642347"><ele>0.0</ele><time>2026-04-29T13:53:51.097Z</time></trkpt><trkpt lat="37.4251799" lon="-0.6422786"><ele>0.0</ele><time>2026-04-29T13:53:52.097Z</time></trkpt><trkpt lat="37.4252468" lon="-0.6422085"><ele>0.0</ele><time>2026-04-29T13:53:53.097Z</time></trkpt><trkpt lat="37.4253124" lon="-0.6421184"><ele>0.0</ele><time>2026-04-29T13:53:54.098Z</time></trkpt><trkpt lat="37.4253814" lon="-0.6420326"><ele>0.0</ele><time>2026-04-29T13:53:55.097Z</time></trkpt><trkpt lat="37.4254527" lon="-0.6419489"><ele>0.0</ele><time>2026-04-29T13:53:56.097Z</time></trkpt><trkpt lat="37.4255174" lon="-0.6418653"><ele>0.0</ele><time>2026-04-29T13:53:57.098Z</time></trkpt><trkpt lat="37.4255864" lon="-0.6417803"><ele>0.0</ele><time>2026-04-29T13:53:58.097Z</time></trkpt><trkpt lat="37.4257259" lon="-0.6416381"><ele>0.0</ele><time>2026-04-29T13:54:00.098Z</time></trkpt><trkpt lat="37.4257948" lon="-0.6415709"><ele>0.0</ele><time>2026-04-29T13:54:01.097Z</time></trkpt><trkpt lat="37.4258593" lon="-0.641479"><ele>0.0</ele><time>2026-04-29T13:54:02.097Z</time></trkpt><trkpt lat="37.4259254" lon="-0.641401"><ele>0.0</ele><time>2026-04-29T13:54:03.097Z</time></trkpt><trkpt lat="37.4259861" lon="-0.6412999"><ele>0.0</ele><time>2026-04-29T13:54:04.097Z</time></trkpt><trkpt lat="37.4260447" lon="-0.641208"><ele>0.0</ele><time>2026-04-29T13:54:05.097Z</time></trkpt><trkpt lat="37.426107" lon="-0.6411178"><ele>0.0</ele><time>2026-04-29T13:54:06.097Z</time></trkpt><trkpt lat="37.4261689" lon="-0.6410324"><ele>0.0</ele><time>2026-04-29T13:54:07.098Z</time></trkpt><trkpt lat="37.4262348" lon="-0.6409588"><ele>0.0</ele><time>2026-04-29T13:54:08.097Z</time></trkpt><trkpt lat="37.4263003" lon="-0.6408854"><ele>0.0</ele><time>2026-04-29T13:54:09.097Z</time></trkpt><trkpt lat="37.4263667" lon="-0.6408151"><ele>0.0</ele><time>2026-04-29T13:54:10.097Z</time></trkpt><trkpt lat="37.4264294" lon="-0.6407457"><ele>0.0</ele><time>2026-04-29T13:54:11.097Z</time></trkpt><trkpt lat="37.4264943" lon="-0.6406817"><ele>0.0</ele><time>2026-04-29T13:54:12.097Z</time></trkpt><trkpt lat="37.4265624" lon="-0.6406201"><ele>0.0</ele><time>2026-04-29T13:54:13.097Z</time></trkpt><trkpt lat="37.426629" lon="-0.6405554"><ele>0.0</ele><time>2026-04-29T13:54:14.098Z</time></trkpt><trkpt lat="37.4267098" lon="-0.6405133"><ele>0.0</ele><time>2026-04-29T13:54:15.097Z</time></trkpt><trkpt lat="37.4267793" lon="-0.6404474"><ele>0.0</ele><time>2026-04-29T13:54:16.098Z</time></trkpt><trkpt lat="37.4268421" lon="-0.6403806"><ele>0.0</ele><time>2026-04-29T13:54:17.098Z</time></trkpt><trkpt lat="37.426907" lon="-0.6403129"><ele>0.0</ele><time>2026-04-29T13:54:18.098Z</time></trkpt><trkpt lat="37.4269769" lon="-0.6402469"><ele>0.0</ele><time>2026-04-29T13:54:19.097Z</time></trkpt><trkpt lat="37.4271092" lon="-0.6401121"><ele>0.0</ele><time>2026-04-29T13:54:21.098Z</time></trkpt><trkpt lat="37.4271684" lon="-0.6400325"><ele>0.0</ele><time>2026-04-29T13:54:22.097Z</time></trkpt><trkpt lat="37.4272323" lon="-0.6399563"><ele>0.0</ele><time>2026-04-29T13:54:23.098Z</time></trkpt><trkpt lat="37.4272969" lon="-0.6398737"><ele>0.0</ele><time>2026-04-29T13:54:24.098Z</time></trkpt><trkpt lat="37.4273649" lon="-0.6398035"><ele>0.0</ele><time>2026-04-29T13:54:25.098Z</time></trkpt><trkpt lat="37.4274302" lon="-0.6397248"><ele>0.0</ele><time>2026-04-29T13:54:26.097Z</time></trkpt><trkpt lat="37.4274951" lon="-0.6396474"><ele>0.0</ele><time>2026-04-29T13:54:27.097Z</time></trkpt><trkpt lat="37.4275647" lon="-0.6395797"><ele>0.0</ele><time>2026-04-29T13:54:28.098Z</time></trkpt><trkpt lat="37.4276334" lon="-0.6395075"><ele>0.0</ele><time>2026-04-29T13:54:29.097Z</time></trkpt><trkpt lat="37.4277006" lon="-0.6394316"><ele>0.0</ele><time>2026-04-29T13:54:30.098Z</time></trkpt><trkpt lat="37.4277675" lon="-0.6393609"><ele>0.0</ele><time>2026-04-29T13:54:31.097Z</time></trkpt><trkpt lat="37.4278267" lon="-0.6392833"><ele>0.0</ele><time>2026-04-29T13:54:32.097Z</time></trkpt><trkpt lat="37.4278914" lon="-0.6392101"><ele>0.0</ele><time>2026-04-29T13:54:33.098Z</time></trkpt><trkpt lat="37.4279586" lon="-0.6391346"><ele>0.0</ele><time>2026-04-29T13:54:34.098Z</time></trkpt><trkpt lat="37.428028" lon="-0.6390676"><ele>0.0</ele><time>2026-04-29T13:54:35.097Z</time></trkpt><trkpt lat="37.4280998" lon="-0.6390046"><ele>0.0</ele><time>2026-04-29T13:54:36.097Z</time></trkpt><trkpt lat="37.4281685" lon="-0.6389324"><ele>0.0</ele><time>2026-04-29T13:54:37.098Z</time></trkpt><trkpt lat="37.4282347" lon="-0.6388595"><ele>0.0</ele><time>2026-04-29T13:54:38.097Z</time></trkpt><trkpt lat="37.4282988" lon="-0.6387842"><ele>0.0</ele><time>2026-04-29T13:54:39.098Z</time></trkpt><trkpt lat="37.4283719" lon="-0.638732"><ele>0.0</ele><time>2026-04-29T13:54:40.098Z</time></trkpt><trkpt lat="37.4285083" lon="-0.6385895"><ele>0.0</ele><time>2026-04-29T13:54:42.097Z</time></trkpt><trkpt lat="37.4285739" lon="-0.63851"><ele>0.0</ele><time>2026-04-29T13:54:43.097Z</time></trkpt><trkpt lat="37.4286402" lon="-0.6384342"><ele>0.0</ele><time>2026-04-29T13:54:44.098Z</time></trkpt><trkpt lat="37.4287082" lon="-0.6383538"><ele>0.0</ele><time>2026-04-29T13:54:45.098Z</time></trkpt><trkpt lat="37.4287737" lon="-0.6382704"><ele>0.0</ele><time>2026-04-29T13:54:46.098Z</time></trkpt><trkpt lat="37.4288356" lon="-0.6381882"><ele>0.0</ele><time>2026-04-29T13:54:47.098Z</time></trkpt><trkpt lat="37.4289001" lon="-0.6381121"><ele>0.0</ele><time>2026-04-29T13:54:48.097Z</time></trkpt><trkpt lat="37.4289649" lon="-0.6380357"><ele>0.0</ele><time>2026-04-29T13:54:49.097Z</time></trkpt><trkpt lat="37.4290302" lon="-0.6379573"><ele>0.0</ele><time>2026-04-29T13:54:50.098Z</time></trkpt><trkpt lat="37.4290971" lon="-0.637881"><ele>0.0</ele><time>2026-04-29T13:54:51.097Z</time></trkpt><trkpt lat="37.4291621" lon="-0.6378058"><ele>0.0</ele><time>2026-04-29T13:54:52.097Z</time></trkpt><trkpt lat="37.4292237" lon="-0.6377306"><ele>0.0</ele><time>2026-04-29T13:54:53.097Z</time></trkpt><trkpt lat="37.4292919" lon="-0.6376624"><ele>0.0</ele><time>2026-04-29T13:54:54.097Z</time></trkpt><trkpt lat="37.4293612" lon="-0.6375977"><ele>0.0</ele><time>2026-04-29T13:54:55.097Z</time></trkpt><trkpt lat="37.4294355" lon="-0.6375239"><ele>0.0</ele><time>2026-04-29T13:54:56.098Z</time></trkpt><trkpt lat="37.429508" lon="-0.6374506"><ele>0.0</ele><time>2026-04-29T13:54:57.097Z</time></trkpt><trkpt lat="37.4295781" lon="-0.6373776"><ele>0.0</ele><time>2026-04-29T13:54:58.098Z</time></trkpt><trkpt lat="37.4296482" lon="-0.6373039"><ele>0.0</ele><time>2026-04-29T13:54:59.097Z</time></trkpt><trkpt lat="37.4297152" lon="-0.6372264"><ele>0.0</ele><time>2026-04-29T13:55:00.097Z</time></trkpt><trkpt lat="37.4297847" lon="-0.6371535"><ele>0.0</ele><time>2026-04-29T13:55:01.098Z</time></trkpt><trkpt lat="37.4299145" lon="-0.6369646"><ele>0.0</ele><time>2026-04-29T13:55:03.098Z</time></trkpt><trkpt lat="37.4299766" lon="-0.6368712"><ele>0.0</ele><time>2026-04-29T13:55:04.097Z</time></trkpt><trkpt lat="37.4300426" lon="-0.6367948"><ele>0.0</ele><time>2026-04-29T13:55:05.097Z</time></trkpt><trkpt lat="37.4301067" lon="-0.6367252"><ele>0.0</ele><time>2026-04-29T13:55:06.097Z</time></trkpt><trkpt lat="37.4301725" lon="-0.6366582"><ele>0.0</ele><time>2026-04-29T13:55:07.098Z</time></trkpt><trkpt lat="37.4302436" lon="-0.6365929"><ele>0.0</ele><time>2026-04-29T13:55:08.098Z</time></trkpt><trkpt lat="37.4303143" lon="-0.6365496"><ele>0.0</ele><time>2026-04-29T13:55:09.097Z</time></trkpt><trkpt lat="37.4303797" lon="-0.6364828"><ele>0.0</ele><time>2026-04-29T13:55:10.097Z</time></trkpt><trkpt lat="37.4304514" lon="-0.6364205"><ele>0.0</ele><time>2026-04-29T13:55:11.097Z</time></trkpt><trkpt lat="37.4305208" lon="-0.6363531"><ele>0.0</ele><time>2026-04-29T13:55:12.098Z</time></trkpt><trkpt lat="37.4305898" lon="-0.6362849"><ele>0.0</ele><time>2026-04-29T13:55:13.098Z</time></trkpt><trkpt lat="37.430661" lon="-0.6362137"><ele>0.0</ele><time>2026-04-29T13:55:14.098Z</time></trkpt><trkpt lat="37.430734" lon="-0.6361426"><ele>0.0</ele><time>2026-04-29T13:55:15.098Z</time></trkpt><trkpt lat="37.4308091" lon="-0.6360752"><ele>0.0</ele><time>2026-04-29T13:55:16.098Z</time></trkpt><trkpt lat="37.4308843" lon="-0.6359873"><ele>0.0</ele><time>2026-04-29T13:55:17.097Z</time></trkpt><trkpt lat="37.4309576" lon="-0.6359255"><ele>0.0</ele><time>2026-04-29T13:55:18.098Z</time></trkpt><trkpt lat="37.4310252" lon="-0.6358607"><ele>0.0</ele><time>2026-04-29T13:55:19.098Z</time></trkpt><trkpt lat="37.4310932" lon="-0.6357899"><ele>0.0</ele><time>2026-04-29T13:55:20.097Z</time></trkpt><trkpt lat="37.4311588" lon="-0.6357157"><ele>0.0</ele><time>2026-04-29T13:55:21.098Z</time></trkpt><trkpt lat="37.431218" lon="-0.6356348"><ele>0.0</ele><time>2026-04-29T13:55:22.097Z</time></trkpt><trkpt lat="37.4313506" lon="-0.6355089"><ele>0.0</ele><time>2026-04-29T13:55:24.098Z</time></trkpt><trkpt lat="37.4314163" lon="-0.6354406"><ele>0.0</ele><time>2026-04-29T13:55:25.097Z</time></trkpt><trkpt lat="37.431497" lon="-0.635408"><ele>0.0</ele><time>2026-04-29T13:55:26.097Z</time></trkpt><trkpt lat="37.4315734" lon="-0.6353487"><ele>0.0</ele><time>2026-04-29T13:55:27.098Z</time></trkpt><trkpt lat="37.4316417" lon="-0.6352844"><ele>0.0</ele><time>2026-04-29T13:55:28.098Z</time></trkpt><trkpt lat="37.4317067" lon="-0.6352169"><ele>0.0</ele><time>2026-04-29T13:55:29.098Z</time></trkpt><trkpt lat="37.4317704" lon="-0.635146"><ele>0.0</ele><time>2026-04-29T13:55:30.097Z</time></trkpt><trkpt lat="37.4318321" lon="-0.6350752"><ele>0.0</ele><time>2026-04-29T13:55:31.098Z</time></trkpt><trkpt lat="37.4318965" lon="-0.6350083"><ele>0.0</ele><time>2026-04-29T13:55:32.098Z</time></trkpt><trkpt lat="37.4319584" lon="-0.634939"><ele>0.0</ele><time>2026-04-29T13:55:33.097Z</time></trkpt><trkpt lat="37.4320205" lon="-0.6348604"><ele>0.0</ele><time>2026-04-29T13:55:34.097Z</time></trkpt><trkpt lat="37.4320879" lon="-0.6347832"><ele>0.0</ele><time>2026-04-29T13:55:35.097Z</time></trkpt><trkpt lat="37.4321518" lon="-0.6346919"><ele>0.0</ele><time>2026-04-29T13:55:36.097Z</time></trkpt><trkpt lat="37.4322208" lon="-0.6346111"><ele>0.0</ele><time>2026-04-29T13:55:37.098Z</time></trkpt><trkpt lat="37.4322977" lon="-0.6345295"><ele>0.0</ele><time>2026-04-29T13:55:38.098Z</time></trkpt><trkpt lat="37.4323635" lon="-0.6344566"><ele>0.0</ele><time>2026-04-29T13:55:39.097Z</time></trkpt><trkpt lat="37.4324284" lon="-0.6343878"><ele>0.0</ele><time>2026-04-29T13:55:40.097Z</time></trkpt><trkpt lat="37.4324975" lon="-0.6343263"><ele>0.0</ele><time>2026-04-29T13:55:41.098Z</time></trkpt><trkpt lat="37.4326704" lon="-0.6341392"><ele>0.0</ele><time>2026-04-29T13:55:44.098Z</time></trkpt><trkpt lat="37.4328328" lon="-0.6340095"><ele>0.0</ele><time>2026-04-29T13:55:46.097Z</time></trkpt><trkpt lat="37.4329015" lon="-0.6339335"><ele>0.0</ele><time>2026-04-29T13:55:47.098Z</time></trkpt><trkpt lat="37.4329736" lon="-0.6338577"><ele>0.0</ele><time>2026-04-29T13:55:48.098Z</time></trkpt><trkpt lat="37.4330472" lon="-0.6337773"><ele>0.0</ele><time>2026-04-29T13:55:49.104Z</time></trkpt><trkpt lat="37.4331176" lon="-0.633689"><ele>0.0</ele><time>2026-04-29T13:55:50.11Z</time></trkpt><trkpt lat="37.4331954" lon="-0.6336069"><ele>0.0</ele><time>2026-04-29T13:55:51.115Z</time></trkpt><trkpt lat="37.4332673" lon="-0.6335295"><ele>0.0</ele><time>2026-04-29T13:55:52.12Z</time></trkpt><trkpt lat="37.4333444" lon="-0.6334109"><ele>0.0</ele><time>2026-04-29T13:55:54.132Z</time></trkpt><trkpt lat="37.4334344" lon="-0.6333206"><ele>0.0</ele><time>2026-04-29T13:55:55.138Z</time></trkpt><trkpt lat="37.433519" lon="-0.6332554"><ele>0.0</ele><time>2026-04-29T13:55:56.143Z</time></trkpt><trkpt lat="37.4335885" lon="-0.6331774"><ele>0.0</ele><time>2026-04-29T13:55:57.149Z</time></trkpt><trkpt lat="37.4336662" lon="-0.6330702"><ele>0.0</ele><time>2026-04-29T13:55:59.16Z</time></trkpt><trkpt lat="37.4337703" lon="-0.6329989"><ele>0.0</ele><time>2026-04-29T13:56:00.165Z</time></trkpt><trkpt lat="37.4338353" lon="-0.6329241"><ele>0.0</ele><time>2026-04-29T13:56:01.098Z</time></trkpt><trkpt lat="37.4339009" lon="-0.6328363"><ele>0.0</ele><time>2026-04-29T13:56:02.175Z</time></trkpt><trkpt lat="37.4339608" lon="-0.6327483"><ele>0.0</ele><time>2026-04-29T13:56:03.181Z</time></trkpt><trkpt lat="37.4340178" lon="-0.6326704"><ele>0.0</ele><time>2026-04-29T13:56:04.096Z</time></trkpt><trkpt lat="37.4340828" lon="-0.6325907"><ele>0.0</ele><time>2026-04-29T13:56:05.097Z</time></trkpt><trkpt lat="37.434223" lon="-0.6324323"><ele>0.0</ele><time>2026-04-29T13:56:07.102Z</time></trkpt><trkpt lat="37.4342738" lon="-0.6323714"><ele>0.0</ele><time>2026-04-29T13:56:08.097Z</time></trkpt><trkpt lat="37.4343387" lon="-0.6322969"><ele>0.0</ele><time>2026-04-29T13:56:09.096Z</time></trkpt><trkpt lat="37.4344007" lon="-0.6322165"><ele>0.0</ele><time>2026-04-29T13:56:10.096Z</time></trkpt><trkpt lat="37.4344636" lon="-0.6321387"><ele>0.0</ele><time>2026-04-29T13:56:11.096Z</time></trkpt><trkpt lat="37.43453" lon="-0.6320609"><ele>0.0</ele><time>2026-04-29T13:56:12.096Z</time></trkpt><trkpt lat="37.4346012" lon="-0.6319856"><ele>0.0</ele><time>2026-04-29T13:56:13.096Z</time></trkpt><trkpt lat="37.4346686" lon="-0.6319165"><ele>0.0</ele><time>2026-04-29T13:56:14.097Z</time></trkpt><trkpt lat="37.4347309" lon="-0.6318383"><ele>0.0</ele><time>2026-04-29T13:56:15.097Z</time></trkpt><trkpt lat="37.4347965" lon="-0.6317708"><ele>0.0</ele><time>2026-04-29T13:56:16.096Z</time></trkpt><trkpt lat="37.4348619" lon="-0.6317032"><ele>0.0</ele><time>2026-04-29T13:56:17.097Z</time></trkpt><trkpt lat="37.4349285" lon="-0.6316348"><ele>0.0</ele><time>2026-04-29T13:56:18.096Z</time></trkpt><trkpt lat="37.4349964" lon="-0.6315697"><ele>0.0</ele><time>2026-04-29T13:56:19.097Z</time></trkpt><trkpt lat="37.4350607" lon="-0.6315003"><ele>0.0</ele><time>2026-04-29T13:56:20.097Z</time></trkpt><trkpt lat="37.4351253" lon="-0.6314329"><ele>0.0</ele><time>2026-04-29T13:56:21.097Z</time></trkpt><trkpt lat="37.4351945" lon="-0.63136"><ele>0.0</ele><time>2026-04-29T13:56:22.096Z</time></trkpt><trkpt lat="37.4352634" lon="-0.6312881"><ele>0.0</ele><time>2026-04-29T13:56:23.096Z</time></trkpt><trkpt lat="37.4353314" lon="-0.6312193"><ele>0.0</ele><time>2026-04-29T13:56:24.097Z</time></trkpt><trkpt lat="37.4353986" lon="-0.6310887"><ele>0.0</ele><time>2026-04-29T13:56:25.097Z</time></trkpt><trkpt lat="37.4354682" lon="-0.6310063"><ele>0.0</ele><time>2026-04-29T13:56:26.097Z</time></trkpt><trkpt lat="37.4356051" lon="-0.6308659"><ele>0.0</ele><time>2026-04-29T13:56:28.096Z</time></trkpt><trkpt lat="37.4356671" lon="-0.6307947"><ele>0.0</ele><time>2026-04-29T13:56:29.096Z</time></trkpt><trkpt lat="37.4357388" lon="-0.6307177"><ele>0.0</ele><time>2026-04-29T13:56:30.096Z</time></trkpt><trkpt lat="37.4358191" lon="-0.6306606"><ele>0.0</ele><time>2026-04-29T13:56:31.096Z</time></trkpt><trkpt lat="37.4358879" lon="-0.6305939"><ele>0.0</ele><time>2026-04-29T13:56:32.096Z</time></trkpt><trkpt lat="37.4359666" lon="-0.6305403"><ele>0.0</ele><time>2026-04-29T13:56:33.097Z</time></trkpt><trkpt lat="37.4360352" lon="-0.6304784"><ele>0.0</ele><time>2026-04-29T13:56:34.096Z</time></trkpt><trkpt lat="37.4361062" lon="-0.6304271"><ele>0.0</ele><time>2026-04-29T13:56:35.096Z</time></trkpt><trkpt lat="37.4361702" lon="-0.6303583"><ele>0.0</ele><time>2026-04-29T13:56:36.096Z</time></trkpt><trkpt lat="37.4362308" lon="-0.6302829"><ele>0.0</ele><time>2026-04-29T13:56:37.097Z</time></trkpt><trkpt lat="37.4362924" lon="-0.6302074"><ele>0.0</ele><time>2026-04-29T13:56:38.096Z</time></trkpt><trkpt lat="37.4363511" lon="-0.6301275"><ele>0.0</ele><time>2026-04-29T13:56:39.096Z</time></trkpt><trkpt lat="37.4364154" lon="-0.6300546"><ele>0.0</ele><time>2026-04-29T13:56:40.096Z</time></trkpt><trkpt lat="37.436478" lon="-0.6299832"><ele>0.0</ele><time>2026-04-29T13:56:41.096Z</time></trkpt><trkpt lat="37.4365379" lon="-0.6299118"><ele>0.0</ele><time>2026-04-29T13:56:42.097Z</time></trkpt><trkpt lat="37.4366005" lon="-0.6298386"><ele>0.0</ele><time>2026-04-29T13:56:43.096Z</time></trkpt><trkpt lat="37.4366697" lon="-0.6297699"><ele>0.0</ele><time>2026-04-29T13:56:44.097Z</time></trkpt><trkpt lat="37.4367328" lon="-0.629696"><ele>0.0</ele><time>2026-04-29T13:56:45.097Z</time></trkpt><trkpt lat="37.4367914" lon="-0.6296195"><ele>0.0</ele><time>2026-04-29T13:56:46.097Z</time></trkpt><trkpt lat="37.4368509" lon="-0.629547"><ele>0.0</ele><time>2026-04-29T13:56:47.096Z</time></trkpt><trkpt lat="37.436982" lon="-0.6293955"><ele>0.0</ele><time>2026-04-29T13:56:49.097Z</time></trkpt><trkpt lat="37.4370555" lon="-0.6293261"><ele>0.0</ele><time>2026-04-29T13:56:50.096Z</time></trkpt><trkpt lat="37.4371267" lon="-0.6292512"><ele>0.0</ele><time>2026-04-29T13:56:51.097Z</time></trkpt><trkpt lat="37.4371967" lon="-0.6291772"><ele>0.0</ele><time>2026-04-29T13:56:52.096Z</time></trkpt><trkpt lat="37.4372653" lon="-0.6290923"><ele>0.0</ele><time>2026-04-29T13:56:53.097Z</time></trkpt><trkpt lat="37.4373373" lon="-0.6290257"><ele>0.0</ele><time>2026-04-29T13:56:54.096Z</time></trkpt><trkpt lat="37.437408" lon="-0.6289635"><ele>0.0</ele><time>2026-04-29T13:56:55.096Z</time></trkpt><trkpt lat="37.4374748" lon="-0.6288963"><ele>0.0</ele><time>2026-04-29T13:56:56.097Z</time></trkpt><trkpt lat="37.4375444" lon="-0.6288267"><ele>0.0</ele><time>2026-04-29T13:56:57.096Z</time></trkpt><trkpt lat="37.4376176" lon="-0.6287594"><ele>0.0</ele><time>2026-04-29T13:56:58.096Z</time></trkpt><trkpt lat="37.4376882" lon="-0.6287056"><ele>0.0</ele><time>2026-04-29T13:56:59.097Z</time></trkpt><trkpt lat="37.437762" lon="-0.6286471"><ele>0.0</ele><time>2026-04-29T13:57:00.096Z</time></trkpt><trkpt lat="37.4378316" lon="-0.6285918"><ele>0.0</ele><time>2026-04-29T13:57:01.096Z</time></trkpt><trkpt lat="37.4379013" lon="-0.6285427"><ele>0.0</ele><time>2026-04-29T13:57:02.096Z</time></trkpt><trkpt lat="37.4379783" lon="-0.6285042"><ele>0.0</ele><time>2026-04-29T13:57:03.097Z</time></trkpt><trkpt lat="37.4380513" lon="-0.6284463"><ele>0.0</ele><time>2026-04-29T13:57:04.096Z</time></trkpt><trkpt lat="37.4381187" lon="-0.6283807"><ele>0.0</ele><time>2026-04-29T13:57:05.096Z</time></trkpt><trkpt lat="37.4381893" lon="-0.6283081"><ele>0.0</ele><time>2026-04-29T13:57:06.096Z</time></trkpt><trkpt lat="37.4382597" lon="-0.6282369"><ele>0.0</ele><time>2026-04-29T13:57:07.096Z</time></trkpt><trkpt lat="37.4383272" lon="-0.6281614"><ele>0.0</ele><time>2026-04-29T13:57:08.097Z</time></trkpt><trkpt lat="37.4384773" lon="-0.6280236"><ele>0.0</ele><time>2026-04-29T13:57:10.096Z</time></trkpt><trkpt lat="37.4385664" lon="-0.6279548"><ele>0.0</ele><time>2026-04-29T13:57:11.097Z</time></trkpt><trkpt lat="37.438638" lon="-0.6278879"><ele>0.0</ele><time>2026-04-29T13:57:12.096Z</time></trkpt><trkpt lat="37.438711" lon="-0.6278267"><ele>0.0</ele><time>2026-04-29T13:57:13.097Z</time></trkpt><trkpt lat="37.4387786" lon="-0.6277602"><ele>0.0</ele><time>2026-04-29T13:57:14.097Z</time></trkpt><trkpt lat="37.4388399" lon="-0.6276944"><ele>0.0</ele><time>2026-04-29T13:57:15.097Z</time></trkpt><trkpt lat="37.4389036" lon="-0.6276282"><ele>0.0</ele><time>2026-04-29T13:57:16.096Z</time></trkpt><trkpt lat="37.4389714" lon="-0.6275598"><ele>0.0</ele><time>2026-04-29T13:57:17.096Z</time></trkpt><trkpt lat="37.4390286" lon="-0.6274915"><ele>0.0</ele><time>2026-04-29T13:57:18.097Z</time></trkpt><trkpt lat="37.4390902" lon="-0.6274262"><ele>0.0</ele><time>2026-04-29T13:57:19.097Z</time></trkpt><trkpt lat="37.4391653" lon="-0.6273585"><ele>0.0</ele><time>2026-04-29T13:57:20.097Z</time></trkpt><trkpt lat="37.4392364" lon="-0.6272882"><ele>0.0</ele><time>2026-04-29T13:57:21.096Z</time></trkpt><trkpt lat="37.4392978" lon="-0.6272167"><ele>0.0</ele><time>2026-04-29T13:57:22.096Z</time></trkpt><trkpt lat="37.4393704" lon="-0.6271466"><ele>0.0</ele><time>2026-04-29T13:57:23.096Z</time></trkpt><trkpt lat="37.4394414" lon="-0.62708"><ele>0.0</ele><time>2026-04-29T13:57:24.097Z</time></trkpt><trkpt lat="37.4395117" lon="-0.6270041"><ele>0.0</ele><time>2026-04-29T13:57:25.096Z</time></trkpt><trkpt lat="37.4395812" lon="-0.626926"><ele>0.0</ele><time>2026-04-29T13:57:26.097Z</time></trkpt><trkpt lat="37.4396402" lon="-0.6268025"><ele>0.0</ele><time>2026-04-29T13:57:27.096Z</time></trkpt><trkpt lat="37.4397078" lon="-0.626715"><ele>0.0</ele><time>2026-04-29T13:57:28.097Z</time></trkpt><trkpt lat="37.4398399" lon="-0.6265526"><ele>0.0</ele><time>2026-04-29T13:57:30.097Z</time></trkpt><trkpt lat="37.4399066" lon="-0.6264707"><ele>0.0</ele><time>2026-04-29T13:57:31.096Z</time></trkpt><trkpt lat="37.4399702" lon="-0.6263904"><ele>0.0</ele><time>2026-04-29T13:57:32.096Z</time></trkpt><trkpt lat="37.4400334" lon="-0.6263147"><ele>0.0</ele><time>2026-04-29T13:57:33.096Z</time></trkpt><trkpt lat="37.4400998" lon="-0.6262372"><ele>0.0</ele><time>2026-04-29T13:57:34.096Z</time></trkpt><trkpt lat="37.4401623" lon="-0.6261618"><ele>0.0</ele><time>2026-04-29T13:57:35.096Z</time></trkpt><trkpt lat="37.4402268" lon="-0.6260855"><ele>0.0</ele><time>2026-04-29T13:57:36.096Z</time></trkpt><trkpt lat="37.4402929" lon="-0.6260016"><ele>0.0</ele><time>2026-04-29T13:57:37.097Z</time></trkpt><trkpt lat="37.4403656" lon="-0.6259209"><ele>0.0</ele><time>2026-04-29T13:57:38.096Z</time></trkpt><trkpt lat="37.4404305" lon="-0.625841"><ele>0.0</ele><time>2026-04-29T13:57:39.097Z</time></trkpt><trkpt lat="37.4404982" lon="-0.6257668"><ele>0.0</ele><time>2026-04-29T13:57:40.096Z</time></trkpt><trkpt lat="37.4405635" lon="-0.6256924"><ele>0.0</ele><time>2026-04-29T13:57:41.096Z</time></trkpt><trkpt lat="37.4406276" lon="-0.6256131"><ele>0.0</ele><time>2026-04-29T13:57:42.096Z</time></trkpt><trkpt lat="37.4406921" lon="-0.6255361"><ele>0.0</ele><time>2026-04-29T13:57:43.097Z</time></trkpt><trkpt lat="37.4407612" lon="-0.6254691"><ele>0.0</ele><time>2026-04-29T13:57:44.097Z</time></trkpt><trkpt lat="37.4408286" lon="-0.6253956"><ele>0.0</ele><time>2026-04-29T13:57:45.097Z</time></trkpt><trkpt lat="37.4408914" lon="-0.6253194"><ele>0.0</ele><time>2026-04-29T13:57:46.097Z</time></trkpt><trkpt lat="37.4409514" lon="-0.6252426"><ele>0.0</ele><time>2026-04-29T13:57:47.097Z</time></trkpt><trkpt lat="37.4410194" lon="-0.6251533"><ele>0.0</ele><time>2026-04-29T13:57:48.096Z</time></trkpt><trkpt lat="37.4410848" lon="-0.6250701"><ele>0.0</ele><time>2026-04-29T13:57:49.096Z</time></trkpt><trkpt lat="37.4412749" lon="-0.6248662"><ele>0.0</ele><time>2026-04-29T13:57:52.097Z</time></trkpt><trkpt lat="37.4413491" lon="-0.6247992"><ele>0.0</ele><time>2026-04-29T13:57:53.096Z</time></trkpt><trkpt lat="37.4414079" lon="-0.6247226"><ele>0.0</ele><time>2026-04-29T13:57:54.096Z</time></trkpt><trkpt lat="37.4414775" lon="-0.6246428"><ele>0.0</ele><time>2026-04-29T13:57:55.097Z</time></trkpt><trkpt lat="37.441542" lon="-0.6245608"><ele>0.0</ele><time>2026-04-29T13:57:56.096Z</time></trkpt><trkpt lat="37.4416082" lon="-0.6244862"><ele>0.0</ele><time>2026-04-29T13:57:57.097Z</time></trkpt><trkpt lat="37.4416751" lon="-0.6243731"><ele>0.0</ele><time>2026-04-29T13:57:58.097Z</time></trkpt><trkpt lat="37.4417361" lon="-0.6242887"><ele>0.0</ele><time>2026-04-29T13:57:59.097Z</time></trkpt><trkpt lat="37.4417952" lon="-0.6242108"><ele>0.0</ele><time>2026-04-29T13:58:00.097Z</time></trkpt><trkpt lat="37.4418586" lon="-0.6241359"><ele>0.0</ele><time>2026-04-29T13:58:01.096Z</time></trkpt><trkpt lat="37.4419253" lon="-0.6240616"><ele>0.0</ele><time>2026-04-29T13:58:02.096Z</time></trkpt><trkpt lat="37.4419833" lon="-0.623978"><ele>0.0</ele><time>2026-04-29T13:58:03.096Z</time></trkpt><trkpt lat="37.4420396" lon="-0.6238945"><ele>0.0</ele><time>2026-04-29T13:58:04.096Z</time></trkpt><trkpt lat="37.442106" lon="-0.6238081"><ele>0.0</ele><time>2026-04-29T13:58:05.096Z</time></trkpt><trkpt lat="37.4421698" lon="-0.6237285"><ele>0.0</ele><time>2026-04-29T13:58:06.097Z</time></trkpt><trkpt lat="37.4422333" lon="-0.6236526"><ele>0.0</ele><time>2026-04-29T13:58:07.097Z</time></trkpt><trkpt lat="37.4423023" lon="-0.6235817"><ele>0.0</ele><time>2026-04-29T13:58:08.096Z</time></trkpt><trkpt lat="37.4423683" lon="-0.6235067"><ele>0.0</ele><time>2026-04-29T13:58:09.096Z</time></trkpt><trkpt lat="37.4424434" lon="-0.6234115"><ele>0.0</ele><time>2026-04-29T13:58:10.097Z</time></trkpt><trkpt lat="37.4425744" lon="-0.6232643"><ele>0.0</ele><time>2026-04-29T13:58:12.096Z</time></trkpt><trkpt lat="37.4426332" lon="-0.6231834"><ele>0.0</ele><time>2026-04-29T13:58:13.096Z</time></trkpt><trkpt lat="37.4426971" lon="-0.6231116"><ele>0.0</ele><time>2026-04-29T13:58:14.096Z</time></trkpt><trkpt lat="37.4427562" lon="-0.6230198"><ele>0.0</ele><time>2026-04-29T13:58:15.096Z</time></trkpt><trkpt lat="37.4428161" lon="-0.622929"><ele>0.0</ele><time>2026-04-29T13:58:16.097Z</time></trkpt><trkpt lat="37.4428846" lon="-0.6228573"><ele>0.0</ele><time>2026-04-29T13:58:17.096Z</time></trkpt><trkpt lat="37.44295" lon="-0.6227865"><ele>0.0</ele><time>2026-04-29T13:58:18.096Z</time></trkpt><trkpt lat="37.443015" lon="-0.6227164"><ele>0.0</ele><time>2026-04-29T13:58:19.097Z</time></trkpt><trkpt lat="37.443092" lon="-0.6226483"><ele>0.0</ele><time>2026-04-29T13:58:21.097Z</time></trkpt><trkpt lat="37.4431734" lon="-0.6225448"><ele>0.0</ele><time>2026-04-29T13:58:22.097Z</time></trkpt><trkpt lat="37.4432495" lon="-0.6224576"><ele>0.0</ele><time>2026-04-29T13:58:23.097Z</time></trkpt><trkpt lat="37.4433289" lon="-0.6223735"><ele>0.0</ele><time>2026-04-29T13:58:24.097Z</time></trkpt><trkpt lat="37.4434097" lon="-0.6222894"><ele>0.0</ele><time>2026-04-29T13:58:25.096Z</time></trkpt><trkpt lat="37.443484" lon="-0.6222041"><ele>0.0</ele><time>2026-04-29T13:58:26.096Z</time></trkpt><trkpt lat="37.4435585" lon="-0.6221231"><ele>0.0</ele><time>2026-04-29T13:58:27.1Z</time></trkpt><trkpt lat="37.4436474" lon="-0.6220589"><ele>0.0</ele><time>2026-04-29T13:58:28.105Z</time></trkpt><trkpt lat="37.4437265" lon="-0.6219839"><ele>0.0</ele><time>2026-04-29T13:58:29.112Z</time></trkpt><trkpt lat="37.4438102" lon="-0.6219153"><ele>0.0</ele><time>2026-04-29T13:58:30.116Z</time></trkpt><trkpt lat="37.4438339" lon="-0.6218351"><ele>0.0</ele><time>2026-04-29T13:58:32.128Z</time></trkpt><trkpt lat="37.4440356" lon="-0.6216675"><ele>0.0</ele><time>2026-04-29T13:58:34.138Z</time></trkpt><trkpt lat="37.4441046" lon="-0.621601"><ele>0.0</ele><time>2026-04-29T13:58:35.097Z</time></trkpt><trkpt lat="37.4441728" lon="-0.6215324"><ele>0.0</ele><time>2026-04-29T13:58:36.096Z</time></trkpt><trkpt lat="37.4442427" lon="-0.62146"><ele>0.0</ele><time>2026-04-29T13:58:37.096Z</time></trkpt><trkpt lat="37.4443162" lon="-0.6213915"><ele>0.0</ele><time>2026-04-29T13:58:38.096Z</time></trkpt><trkpt lat="37.4443813" lon="-0.6213214"><ele>0.0</ele><time>2026-04-29T13:58:39.097Z</time></trkpt><trkpt lat="37.4444468" lon="-0.6212485"><ele>0.0</ele><time>2026-04-29T13:58:40.096Z</time></trkpt><trkpt lat="37.4445129" lon="-0.6211734"><ele>0.0</ele><time>2026-04-29T13:58:41.097Z</time></trkpt><trkpt lat="37.4445854" lon="-0.6211"><ele>0.0</ele><time>2026-04-29T13:58:42.096Z</time></trkpt><trkpt lat="37.4446545" lon="-0.62103"><ele>0.0</ele><time>2026-04-29T13:58:43.096Z</time></trkpt><trkpt lat="37.4447162" lon="-0.6209242"><ele>0.0</ele><time>2026-04-29T13:58:44.097Z</time></trkpt><trkpt lat="37.4447799" lon="-0.6208436"><ele>0.0</ele><time>2026-04-29T13:58:45.096Z</time></trkpt><trkpt lat="37.4448406" lon="-0.6207622"><ele>0.0</ele><time>2026-04-29T13:58:46.096Z</time></trkpt><trkpt lat="37.4449093" lon="-0.6207089"><ele>0.0</ele><time>2026-04-29T13:58:47.096Z</time></trkpt><trkpt lat="37.4449739" lon="-0.6206395"><ele>0.0</ele><time>2026-04-29T13:58:48.097Z</time></trkpt><trkpt lat="37.4450374" lon="-0.6205697"><ele>0.0</ele><time>2026-04-29T13:58:49.097Z</time></trkpt><trkpt lat="37.4451034" lon="-0.6204981"><ele>0.0</ele><time>2026-04-29T13:58:50.097Z</time></trkpt><trkpt lat="37.4451744" lon="-0.6204348"><ele>0.0</ele><time>2026-04-29T13:58:51.097Z</time></trkpt><trkpt lat="37.4452445" lon="-0.6203736"><ele>0.0</ele><time>2026-04-29T13:58:52.097Z</time></trkpt><trkpt lat="37.445309" lon="-0.6203024"><ele>0.0</ele><time>2026-04-29T13:58:53.096Z</time></trkpt><trkpt lat="37.4454556" lon="-0.6201952"><ele>0.0</ele><time>2026-04-29T13:58:55.096Z</time></trkpt><trkpt lat="37.4455338" lon="-0.6201356"><ele>0.0</ele><time>2026-04-29T13:58:56.096Z</time></trkpt><trkpt lat="37.4456091" lon="-0.6200681"><ele>0.0</ele><time>2026-04-29T13:58:57.096Z</time></trkpt><trkpt lat="37.4456813" lon="-0.6199981"><ele>0.0</ele><time>2026-04-29T13:58:58.096Z</time></trkpt><trkpt lat="37.4457527" lon="-0.6199271"><ele>0.0</ele><time>2026-04-29T13:58:59.096Z</time></trkpt><trkpt lat="37.4458216" lon="-0.6198741"><ele>0.0</ele><time>2026-04-29T13:59:00.096Z</time></trkpt><trkpt lat="37.4458837" lon="-0.6198024"><ele>0.0</ele><time>2026-04-29T13:59:01.097Z</time></trkpt><trkpt lat="37.4459514" lon="-0.6197389"><ele>0.0</ele><time>2026-04-29T13:59:02.096Z</time></trkpt><trkpt lat="37.4460183" lon="-0.6196716"><ele>0.0</ele><time>2026-04-29T13:59:03.096Z</time></trkpt><trkpt lat="37.4460881" lon="-0.619615"><ele>0.0</ele><time>2026-04-29T13:59:04.096Z</time></trkpt><trkpt lat="37.4461474" lon="-0.6195371"><ele>0.0</ele><time>2026-04-29T13:59:05.096Z</time></trkpt><trkpt lat="37.4462099" lon="-0.6194671"><ele>0.0</ele><time>2026-04-29T13:59:06.096Z</time></trkpt><trkpt lat="37.4462909" lon="-0.6194252"><ele>0.0</ele><time>2026-04-29T13:59:07.096Z</time></trkpt><trkpt lat="37.4463714" lon="-0.6193626"><ele>0.0</ele><time>2026-04-29T13:59:08.096Z</time></trkpt><trkpt lat="37.44645" lon="-0.6193067"><ele>0.0</ele><time>2026-04-29T13:59:09.096Z</time></trkpt><trkpt lat="37.4465274" lon="-0.6192589"><ele>0.0</ele><time>2026-04-29T13:59:10.096Z</time></trkpt><trkpt lat="37.4466042" lon="-0.6191891"><ele>0.0</ele><time>2026-04-29T13:59:11.097Z</time></trkpt><trkpt lat="37.4466754" lon="-0.6191266"><ele>0.0</ele><time>2026-04-29T13:59:12.097Z</time></trkpt><trkpt lat="37.4467422" lon="-0.6190632"><ele>0.0</ele><time>2026-04-29T13:59:13.096Z</time></trkpt><trkpt lat="37.4468091" lon="-0.6189954"><ele>0.0</ele><time>2026-04-29T13:59:14.097Z</time></trkpt><trkpt lat="37.4469327" lon="-0.6188534"><ele>0.0</ele><time>2026-04-29T13:59:16.096Z</time></trkpt><trkpt lat="37.4469983" lon="-0.6187825"><ele>0.0</ele><time>2026-04-29T13:59:17.097Z</time></trkpt><trkpt lat="37.4470636" lon="-0.6187106"><ele>0.0</ele><time>2026-04-29T13:59:18.096Z</time></trkpt><trkpt lat="37.4471325" lon="-0.618639"><ele>0.0</ele><time>2026-04-29T13:59:19.096Z</time></trkpt><trkpt lat="37.4472027" lon="-0.6185726"><ele>0.0</ele><time>2026-04-29T13:59:20.097Z</time></trkpt><trkpt lat="37.4472743" lon="-0.6185076"><ele>0.0</ele><time>2026-04-29T13:59:21.096Z</time></trkpt><trkpt lat="37.4473404" lon="-0.6184443"><ele>0.0</ele><time>2026-04-29T13:59:22.096Z</time></trkpt><trkpt lat="37.4474125" lon="-0.6183838"><ele>0.0</ele><time>2026-04-29T13:59:23.096Z</time></trkpt><trkpt lat="37.4474701" lon="-0.6183108"><ele>0.0</ele><time>2026-04-29T13:59:24.097Z</time></trkpt><trkpt lat="37.4475293" lon="-0.6182404"><ele>0.0</ele><time>2026-04-29T13:59:25.096Z</time></trkpt><trkpt lat="37.447589" lon="-0.618169"><ele>0.0</ele><time>2026-04-29T13:59:26.097Z</time></trkpt><trkpt lat="37.4476492" lon="-0.6180929"><ele>0.0</ele><time>2026-04-29T13:59:27.097Z</time></trkpt><trkpt lat="37.4477204" lon="-0.618024"><ele>0.0</ele><time>2026-04-29T13:59:28.097Z</time></trkpt><trkpt lat="37.4477809" lon="-0.6179531"><ele>0.0</ele><time>2026-04-29T13:59:29.097Z</time></trkpt><trkpt lat="37.4478636" lon="-0.617877"><ele>0.0</ele><time>2026-04-29T13:59:30.096Z</time></trkpt><trkpt lat="37.4479429" lon="-0.6178059"><ele>0.0</ele><time>2026-04-29T13:59:31.097Z</time></trkpt><trkpt lat="37.4480205" lon="-0.6177451"><ele>0.0</ele><time>2026-04-29T13:59:32.096Z</time></trkpt><trkpt lat="37.448097" lon="-0.6176757"><ele>0.0</ele><time>2026-04-29T13:59:33.096Z</time></trkpt><trkpt lat="37.4481643" lon="-0.6176112"><ele>0.0</ele><time>2026-04-29T13:59:34.096Z</time></trkpt><trkpt lat="37.4482291" lon="-0.6175433"><ele>0.0</ele><time>2026-04-29T13:59:35.097Z</time></trkpt><trkpt lat="37.4483579" lon="-0.6174128"><ele>0.0</ele><time>2026-04-29T13:59:37.096Z</time></trkpt><trkpt lat="37.4484335" lon="-0.6173321"><ele>0.0</ele><time>2026-04-29T13:59:38.096Z</time></trkpt><trkpt lat="37.4485032" lon="-0.6172571"><ele>0.0</ele><time>2026-04-29T13:59:39.097Z</time></trkpt><trkpt lat="37.4485617" lon="-0.617195"><ele>0.0</ele><time>2026-04-29T13:59:40.097Z</time></trkpt><trkpt lat="37.4486254" lon="-0.6171268"><ele>0.0</ele><time>2026-04-29T13:59:41.097Z</time></trkpt><trkpt lat="37.4486878" lon="-0.6170538"><ele>0.0</ele><time>2026-04-29T13:59:42.097Z</time></trkpt><trkpt lat="37.4487507" lon="-0.616972"><ele>0.0</ele><time>2026-04-29T13:59:43.097Z</time></trkpt><trkpt lat="37.4488137" lon="-0.6168955"><ele>0.0</ele><time>2026-04-29T13:59:44.096Z</time></trkpt><trkpt lat="37.448948" lon="-0.6168023"><ele>0.0</ele><time>2026-04-29T13:59:47.162Z</time></trkpt><trkpt lat="37.4490398" lon="-0.6166317"><ele>0.0</ele><time>2026-04-29T13:59:48.167Z</time></trkpt><trkpt lat="37.4491156" lon="-0.6165195"><ele>0.0</ele><time>2026-04-29T13:59:49.173Z</time></trkpt><trkpt lat="37.4491898" lon="-0.6164226"><ele>0.0</ele><time>2026-04-29T13:59:50.096Z</time></trkpt><trkpt lat="37.4492645" lon="-0.616332"><ele>0.0</ele><time>2026-04-29T13:59:51.184Z</time></trkpt><trkpt lat="37.4493392" lon="-0.6162444"><ele>0.0</ele><time>2026-04-29T13:59:52.097Z</time></trkpt><trkpt lat="37.4494153" lon="-0.6161626"><ele>0.0</ele><time>2026-04-29T13:59:53.097Z</time></trkpt><trkpt lat="37.4494882" lon="-0.6160846"><ele>0.0</ele><time>2026-04-29T13:59:54.1Z</time></trkpt><trkpt lat="37.4495719" lon="-0.6160164"><ele>0.0</ele><time>2026-04-29T13:59:55.104Z</time></trkpt><trkpt lat="37.4496263" lon="-0.6159727"><ele>0.0</ele><time>2026-04-29T13:59:56.097Z</time></trkpt><trkpt lat="37.4497408" lon="-0.6157914"><ele>0.0</ele><time>2026-04-29T13:59:58.121Z</time></trkpt><trkpt lat="37.4497846" lon="-0.6156637"><ele>0.0</ele><time>2026-04-29T13:59:59.126Z</time></trkpt><trkpt lat="37.4498566" lon="-0.6155732"><ele>0.0</ele><time>2026-04-29T14:00:00.133Z</time></trkpt><trkpt lat="37.4499307" lon="-0.6154787"><ele>0.0</ele><time>2026-04-29T14:00:01.138Z</time></trkpt><trkpt lat="37.4500049" lon="-0.6154358"><ele>0.0</ele><time>2026-04-29T14:00:02.096Z</time></trkpt><trkpt lat="37.4500716" lon="-0.6153717"><ele>0.0</ele><time>2026-04-29T14:00:03.097Z</time></trkpt><trkpt lat="37.4501379" lon="-0.6153027"><ele>0.0</ele><time>2026-04-29T14:00:04.096Z</time></trkpt><trkpt lat="37.4502036" lon="-0.6152359"><ele>0.0</ele><time>2026-04-29T14:00:05.096Z</time></trkpt><trkpt lat="37.4502672" lon="-0.6151708"><ele>0.0</ele><time>2026-04-29T14:00:06.096Z</time></trkpt><trkpt lat="37.450332" lon="-0.6151086"><ele>0.0</ele><time>2026-04-29T14:00:07.096Z</time></trkpt><trkpt lat="37.4503939" lon="-0.615047"><ele>0.0</ele><time>2026-04-29T14:00:08.097Z</time></trkpt><trkpt lat="37.4504586" lon="-0.6149883"><ele>0.0</ele><time>2026-04-29T14:00:09.096Z</time></trkpt><trkpt lat="37.4505236" lon="-0.6149257"><ele>0.0</ele><time>2026-04-29T14:00:10.096Z</time></trkpt><trkpt lat="37.4505983" lon="-0.6148635"><ele>0.0</ele><time>2026-04-29T14:00:11.096Z</time></trkpt><trkpt lat="37.4506738" lon="-0.6147796"><ele>0.0</ele><time>2026-04-29T14:00:12.096Z</time></trkpt><trkpt lat="37.4507575" lon="-0.6147059"><ele>0.0</ele><time>2026-04-29T14:00:13.096Z</time></trkpt><trkpt lat="37.4508437" lon="-0.614627"><ele>0.0</ele><time>2026-04-29T14:00:14.097Z</time></trkpt><trkpt lat="37.4509134" lon="-0.6145671"><ele>0.0</ele><time>2026-04-29T14:00:15.097Z</time></trkpt><trkpt lat="37.4509944" lon="-0.6145216"><ele>0.0</ele><time>2026-04-29T14:00:16.096Z</time></trkpt><trkpt lat="37.4510634" lon="-0.6144667"><ele>0.0</ele><time>2026-04-29T14:00:17.097Z</time></trkpt><trkpt lat="37.4511838" lon="-0.614316"><ele>0.0</ele><time>2026-04-29T14:00:19.096Z</time></trkpt><trkpt lat="37.45124" lon="-0.6142241"><ele>0.0</ele><time>2026-04-29T14:00:20.097Z</time></trkpt><trkpt lat="37.4512998" lon="-0.614135"><ele>0.0</ele><time>2026-04-29T14:00:21.096Z</time></trkpt><trkpt lat="37.4513605" lon="-0.6140531"><ele>0.0</ele><time>2026-04-29T14:00:22.096Z</time></trkpt><trkpt lat="37.4514213" lon="-0.6139786"><ele>0.0</ele><time>2026-04-29T14:00:23.096Z</time></trkpt><trkpt lat="37.4514826" lon="-0.6138994"><ele>0.0</ele><time>2026-04-29T14:00:24.096Z</time></trkpt><trkpt lat="37.4515443" lon="-0.6138208"><ele>0.0</ele><time>2026-04-29T14:00:25.096Z</time></trkpt><trkpt lat="37.4516048" lon="-0.6137436"><ele>0.0</ele><time>2026-04-29T14:00:26.097Z</time></trkpt><trkpt lat="37.4516646" lon="-0.6136636"><ele>0.0</ele><time>2026-04-29T14:00:27.096Z</time></trkpt><trkpt lat="37.4517258" lon="-0.6135818"><ele>0.0</ele><time>2026-04-29T14:00:28.097Z</time></trkpt><trkpt lat="37.4517903" lon="-0.6135127"><ele>0.0</ele><time>2026-04-29T14:00:29.096Z</time></trkpt><trkpt lat="37.4518583" lon="-0.6134613"><ele>0.0</ele><time>2026-04-29T14:00:30.097Z</time></trkpt><trkpt lat="37.4519249" lon="-0.6134083"><ele>0.0</ele><time>2026-04-29T14:00:31.096Z</time></trkpt><trkpt lat="37.4519902" lon="-0.6133372"><ele>0.0</ele><time>2026-04-29T14:00:32.097Z</time></trkpt><trkpt lat="37.4520551" lon="-0.6132648"><ele>0.0</ele><time>2026-04-29T14:00:33.097Z</time></trkpt><trkpt lat="37.4521216" lon="-0.6131879"><ele>0.0</ele><time>2026-04-29T14:00:34.097Z</time></trkpt><trkpt lat="37.4521937" lon="-0.6130672"><ele>0.0</ele><time>2026-04-29T14:00:35.097Z</time></trkpt><trkpt lat="37.4522601" lon="-0.6129548"><ele>0.0</ele><time>2026-04-29T14:00:36.097Z</time></trkpt><trkpt lat="37.4523232" lon="-0.6128427"><ele>0.0</ele><time>2026-04-29T14:00:37.097Z</time></trkpt><trkpt lat="37.4523836" lon="-0.6127664"><ele>0.0</ele><time>2026-04-29T14:00:38.096Z</time></trkpt><trkpt lat="37.4525116" lon="-0.612626"><ele>0.0</ele><time>2026-04-29T14:00:40.096Z</time></trkpt><trkpt lat="37.4525752" lon="-0.6125546"><ele>0.0</ele><time>2026-04-29T14:00:41.097Z</time></trkpt><trkpt lat="37.452637" lon="-0.6124786"><ele>0.0</ele><time>2026-04-29T14:00:42.096Z</time></trkpt><trkpt lat="37.4527017" lon="-0.6124065"><ele>0.0</ele><time>2026-04-29T14:00:43.097Z</time></trkpt><trkpt lat="37.4527685" lon="-0.6123321"><ele>0.0</ele><time>2026-04-29T14:00:44.096Z</time></trkpt><trkpt lat="37.4528433" lon="-0.6122665"><ele>0.0</ele><time>2026-04-29T14:00:45.096Z</time></trkpt><trkpt lat="37.4529128" lon="-0.6121952"><ele>0.0</ele><time>2026-04-29T14:00:46.096Z</time></trkpt><trkpt lat="37.4529746" lon="-0.6121167"><ele>0.0</ele><time>2026-04-29T14:00:47.096Z</time></trkpt><trkpt lat="37.4530314" lon="-0.6120336"><ele>0.0</ele><time>2026-04-29T14:00:48.097Z</time></trkpt><trkpt lat="37.453088" lon="-0.611953"><ele>0.0</ele><time>2026-04-29T14:00:49.097Z</time></trkpt><trkpt lat="37.4531587" lon="-0.6119111"><ele>0.0</ele><time>2026-04-29T14:00:50.097Z</time></trkpt><trkpt lat="37.4532253" lon="-0.6118376"><ele>0.0</ele><time>2026-04-29T14:00:51.096Z</time></trkpt><trkpt lat="37.4532859" lon="-0.6117591"><ele>0.0</ele><time>2026-04-29T14:00:52.097Z</time></trkpt><trkpt lat="37.4533472" lon="-0.6116764"><ele>0.0</ele><time>2026-04-29T14:00:53.097Z</time></trkpt><trkpt lat="37.4534161" lon="-0.6116073"><ele>0.0</ele><time>2026-04-29T14:00:54.097Z</time></trkpt><trkpt lat="37.4534829" lon="-0.6115321"><ele>0.0</ele><time>2026-04-29T14:00:55.097Z</time></trkpt><trkpt lat="37.4535515" lon="-0.6114601"><ele>0.0</ele><time>2026-04-29T14:00:56.097Z</time></trkpt><trkpt lat="37.4536229" lon="-0.6113888"><ele>0.0</ele><time>2026-04-29T14:00:57.096Z</time></trkpt><trkpt lat="37.4536874" lon="-0.611318"><ele>0.0</ele><time>2026-04-29T14:00:58.096Z</time></trkpt><trkpt lat="37.4537421" lon="-0.6112411"><ele>0.0</ele><time>2026-04-29T14:00:59.096Z</time></trkpt><trkpt lat="37.4538773" lon="-0.6110953"><ele>0.0</ele><time>2026-04-29T14:01:01.096Z</time></trkpt><trkpt lat="37.4539468" lon="-0.6110197"><ele>0.0</ele><time>2026-04-29T14:01:02.097Z</time></trkpt><trkpt lat="37.4540149" lon="-0.6109519"><ele>0.0</ele><time>2026-04-29T14:01:03.097Z</time></trkpt><trkpt lat="37.4540905" lon="-0.6108838"><ele>0.0</ele><time>2026-04-29T14:01:04.096Z</time></trkpt><trkpt lat="37.4541546" lon="-0.6108144"><ele>0.0</ele><time>2026-04-29T14:01:05.096Z</time></trkpt><trkpt lat="37.4542177" lon="-0.6107434"><ele>0.0</ele><time>2026-04-29T14:01:06.096Z</time></trkpt><trkpt lat="37.4542788" lon="-0.6106717"><ele>0.0</ele><time>2026-04-29T14:01:07.096Z</time></trkpt><trkpt lat="37.454342" lon="-0.6106031"><ele>0.0</ele><time>2026-04-29T14:01:08.097Z</time></trkpt><trkpt lat="37.4544064" lon="-0.610537"><ele>0.0</ele><time>2026-04-29T14:01:09.096Z</time></trkpt><trkpt lat="37.4544742" lon="-0.6104682"><ele>0.0</ele><time>2026-04-29T14:01:10.096Z</time></trkpt><trkpt lat="37.4545429" lon="-0.6103972"><ele>0.0</ele><time>2026-04-29T14:01:11.096Z</time></trkpt><trkpt lat="37.4546086" lon="-0.6103294"><ele>0.0</ele><time>2026-04-29T14:01:12.096Z</time></trkpt><trkpt lat="37.4546777" lon="-0.6102572"><ele>0.0</ele><time>2026-04-29T14:01:13.097Z</time></trkpt><trkpt lat="37.4547533" lon="-0.610226"><ele>0.0</ele><time>2026-04-29T14:01:14.097Z</time></trkpt><trkpt lat="37.4548231" lon="-0.6101608"><ele>0.0</ele><time>2026-04-29T14:01:15.096Z</time></trkpt><trkpt lat="37.4549041" lon="-0.610103"><ele>0.0</ele><time>2026-04-29T14:01:16.097Z</time></trkpt><trkpt lat="37.4549776" lon="-0.6100438"><ele>0.0</ele><time>2026-04-29T14:01:17.097Z</time></trkpt><trkpt lat="37.4550525" lon="-0.6099787"><ele>0.0</ele><time>2026-04-29T14:01:18.097Z</time></trkpt><trkpt lat="37.4551162" lon="-0.6099106"><ele>0.0</ele><time>2026-04-29T14:01:19.097Z</time></trkpt><trkpt lat="37.4551745" lon="-0.6098421"><ele>0.0</ele><time>2026-04-29T14:01:20.097Z</time></trkpt><trkpt lat="37.4553067" lon="-0.6097125"><ele>0.0</ele><time>2026-04-29T14:01:22.096Z</time></trkpt><trkpt lat="37.4553703" lon="-0.6096448"><ele>0.0</ele><time>2026-04-29T14:01:23.096Z</time></trkpt><trkpt lat="37.4554366" lon="-0.6095672"><ele>0.0</ele><time>2026-04-29T14:01:24.096Z</time></trkpt><trkpt lat="37.4555104" lon="-0.6094883"><ele>0.0</ele><time>2026-04-29T14:01:25.096Z</time></trkpt><trkpt lat="37.4555782" lon="-0.6094094"><ele>0.0</ele><time>2026-04-29T14:01:26.097Z</time></trkpt><trkpt lat="37.4556452" lon="-0.6093354"><ele>0.0</ele><time>2026-04-29T14:01:27.096Z</time></trkpt><trkpt lat="37.4557259" lon="-0.6092734"><ele>0.0</ele><time>2026-04-29T14:01:28.096Z</time></trkpt><trkpt lat="37.4557934" lon="-0.6091995"><ele>0.0</ele><time>2026-04-29T14:01:29.096Z</time></trkpt><trkpt lat="37.4558654" lon="-0.6090973"><ele>0.0</ele><time>2026-04-29T14:01:30.096Z</time></trkpt><trkpt lat="37.4559298" lon="-0.6089766"><ele>0.0</ele><time>2026-04-29T14:01:31.097Z</time></trkpt><trkpt lat="37.4559987" lon="-0.60889"><ele>0.0</ele><time>2026-04-29T14:01:32.097Z</time></trkpt><trkpt lat="37.4560678" lon="-0.6088089"><ele>0.0</ele><time>2026-04-29T14:01:33.096Z</time></trkpt><trkpt lat="37.4561334" lon="-0.6087023"><ele>0.0</ele><time>2026-04-29T14:01:34.096Z</time></trkpt><trkpt lat="37.4562053" lon="-0.6086175"><ele>0.0</ele><time>2026-04-29T14:01:35.097Z</time></trkpt><trkpt lat="37.4562732" lon="-0.608519"><ele>0.0</ele><time>2026-04-29T14:01:36.097Z</time></trkpt><trkpt lat="37.4563358" lon="-0.6084478"><ele>0.0</ele><time>2026-04-29T14:01:37.097Z</time></trkpt><trkpt lat="37.4564099" lon="-0.6083681"><ele>0.0</ele><time>2026-04-29T14:01:38.096Z</time></trkpt><trkpt lat="37.4564908" lon="-0.6082938"><ele>0.0</ele><time>2026-04-29T14:01:39.096Z</time></trkpt><trkpt lat="37.4565613" lon="-0.6081962"><ele>0.0</ele><time>2026-04-29T14:01:40.096Z</time></trkpt><trkpt lat="37.4566281" lon="-0.6081002"><ele>0.0</ele><time>2026-04-29T14:01:41.096Z</time></trkpt><trkpt lat="37.4567764" lon="-0.607988"><ele>0.0</ele><time>2026-04-29T14:01:43.095Z</time></trkpt><trkpt lat="37.4568464" lon="-0.6079398"><ele>0.0</ele><time>2026-04-29T14:01:44.095Z</time></trkpt><trkpt lat="37.456912" lon="-0.6078737"><ele>0.0</ele><time>2026-04-29T14:01:45.095Z</time></trkpt><trkpt lat="37.4569742" lon="-0.6078071"><ele>0.0</ele><time>2026-04-29T14:01:46.096Z</time></trkpt><trkpt lat="37.4570458" lon="-0.6077484"><ele>0.0</ele><time>2026-04-29T14:01:47.096Z</time></trkpt><trkpt lat="37.4571235" lon="-0.6077061"><ele>0.0</ele><time>2026-04-29T14:01:48.096Z</time></trkpt><trkpt lat="37.4571931" lon="-0.6076424"><ele>0.0</ele><time>2026-04-29T14:01:49.095Z</time></trkpt><trkpt lat="37.4572577" lon="-0.6076022"><ele>0.0</ele><time>2026-04-29T14:01:50.096Z</time></trkpt><trkpt lat="37.4573258" lon="-0.6075382"><ele>0.0</ele><time>2026-04-29T14:01:51.095Z</time></trkpt><trkpt lat="37.4573954" lon="-0.6074701"><ele>0.0</ele><time>2026-04-29T14:01:52.096Z</time></trkpt><trkpt lat="37.4574675" lon="-0.6074075"><ele>0.0</ele><time>2026-04-29T14:01:53.095Z</time></trkpt><trkpt lat="37.4575439" lon="-0.6073574"><ele>0.0</ele><time>2026-04-29T14:01:54.096Z</time></trkpt><trkpt lat="37.4576104" lon="-0.6072907"><ele>0.0</ele><time>2026-04-29T14:01:55.095Z</time></trkpt><trkpt lat="37.4576727" lon="-0.6072206"><ele>0.0</ele><time>2026-04-29T14:01:56.096Z</time></trkpt><trkpt lat="37.4577329" lon="-0.6071552"><ele>0.0</ele><time>2026-04-29T14:01:57.095Z</time></trkpt><trkpt lat="37.4577971" lon="-0.6070865"><ele>0.0</ele><time>2026-04-29T14:01:58.095Z</time></trkpt><trkpt lat="37.4578634" lon="-0.6070183"><ele>0.0</ele><time>2026-04-29T14:01:59.095Z</time></trkpt><trkpt lat="37.4579272" lon="-0.6069557"><ele>0.0</ele><time>2026-04-29T14:02:00.096Z</time></trkpt><trkpt lat="37.4579979" lon="-0.6068965"><ele>0.0</ele><time>2026-04-29T14:02:01.095Z</time></trkpt><trkpt lat="37.458068" lon="-0.606834"><ele>0.0</ele><time>2026-04-29T14:02:02.095Z</time></trkpt><trkpt lat="37.4582067" lon="-0.6066882"><ele>0.0</ele><time>2026-04-29T14:02:04.095Z</time></trkpt><trkpt lat="37.4582745" lon="-0.6066393"><ele>0.0</ele><time>2026-04-29T14:02:05.096Z</time></trkpt><trkpt lat="37.4583385" lon="-0.6065658"><ele>0.0</ele><time>2026-04-29T14:02:06.096Z</time></trkpt><trkpt lat="37.4584035" lon="-0.6064841"><ele>0.0</ele><time>2026-04-29T14:02:07.095Z</time></trkpt><trkpt lat="37.4584599" lon="-0.606403"><ele>0.0</ele><time>2026-04-29T14:02:08.096Z</time></trkpt><trkpt lat="37.4585222" lon="-0.6063302"><ele>0.0</ele><time>2026-04-29T14:02:09.096Z</time></trkpt><trkpt lat="37.4585825" lon="-0.6062532"><ele>0.0</ele><time>2026-04-29T14:02:10.095Z</time></trkpt><trkpt lat="37.4586423" lon="-0.6061679"><ele>0.0</ele><time>2026-04-29T14:02:11.096Z</time></trkpt><trkpt lat="37.4587087" lon="-0.6060862"><ele>0.0</ele><time>2026-04-29T14:02:12.096Z</time></trkpt><trkpt lat="37.4587763" lon="-0.6060085"><ele>0.0</ele><time>2026-04-29T14:02:13.096Z</time></trkpt><trkpt lat="37.4588501" lon="-0.6059385"><ele>0.0</ele><time>2026-04-29T14:02:14.095Z</time></trkpt><trkpt lat="37.4589228" lon="-0.6058582"><ele>0.0</ele><time>2026-04-29T14:02:15.096Z</time></trkpt><trkpt lat="37.458999" lon="-0.6057894"><ele>0.0</ele><time>2026-04-29T14:02:16.096Z</time></trkpt><trkpt lat="37.4590754" lon="-0.6057209"><ele>0.0</ele><time>2026-04-29T14:02:17.095Z</time></trkpt><trkpt lat="37.4591418" lon="-0.6056543"><ele>0.0</ele><time>2026-04-29T14:02:18.095Z</time></trkpt><trkpt lat="37.459217" lon="-0.6056037"><ele>0.0</ele><time>2026-04-29T14:02:19.096Z</time></trkpt><trkpt lat="37.4592812" lon="-0.6055338"><ele>0.0</ele><time>2026-04-29T14:02:20.096Z</time></trkpt><trkpt lat="37.4593526" lon="-0.6054423"><ele>0.0</ele><time>2026-04-29T14:02:21.096Z</time></trkpt><trkpt lat="37.4594259" lon="-0.6053788"><ele>0.0</ele><time>2026-04-29T14:02:22.095Z</time></trkpt><trkpt lat="37.4594963" lon="-0.6053127"><ele>0.0</ele><time>2026-04-29T14:02:23.096Z</time></trkpt><trkpt lat="37.4596282" lon="-0.6051674"><ele>0.0</ele><time>2026-04-29T14:02:25.095Z</time></trkpt><trkpt lat="37.4596978" lon="-0.6050977"><ele>0.0</ele><time>2026-04-29T14:02:26.095Z</time></trkpt><trkpt lat="37.459752" lon="-0.6050307"><ele>0.0</ele><time>2026-04-29T14:02:27.096Z</time></trkpt><trkpt lat="37.4598149" lon="-0.6049516"><ele>0.0</ele><time>2026-04-29T14:02:28.095Z</time></trkpt><trkpt lat="37.4598761" lon="-0.6048758"><ele>0.0</ele><time>2026-04-29T14:02:29.095Z</time></trkpt><trkpt lat="37.4599334" lon="-0.6048064"><ele>0.0</ele><time>2026-04-29T14:02:30.095Z</time></trkpt><trkpt lat="37.4599939" lon="-0.6047377"><ele>0.0</ele><time>2026-04-29T14:02:31.096Z</time></trkpt><trkpt lat="37.4600546" lon="-0.6046369"><ele>0.0</ele><time>2026-04-29T14:02:32.095Z</time></trkpt><trkpt lat="37.4602441" lon="-0.604424"><ele>0.0</ele><time>2026-04-29T14:02:35.096Z</time></trkpt><trkpt lat="37.4603257" lon="-0.6043504"><ele>0.0</ele><time>2026-04-29T14:02:36.096Z</time></trkpt><trkpt lat="37.4603878" lon="-0.6042656"><ele>0.0</ele><time>2026-04-29T14:02:37.096Z</time></trkpt><trkpt lat="37.4604452" lon="-0.6041793"><ele>0.0</ele><time>2026-04-29T14:02:38.096Z</time></trkpt><trkpt lat="37.4605088" lon="-0.604094"><ele>0.0</ele><time>2026-04-29T14:02:39.096Z</time></trkpt><trkpt lat="37.4605741" lon="-0.6040087"><ele>0.0</ele><time>2026-04-29T14:02:40.096Z</time></trkpt><trkpt lat="37.4606378" lon="-0.6039297"><ele>0.0</ele><time>2026-04-29T14:02:41.095Z</time></trkpt><trkpt lat="37.4607135" lon="-0.603857"><ele>0.0</ele><time>2026-04-29T14:02:42.095Z</time></trkpt><trkpt lat="37.4607804" lon="-0.603782"><ele>0.0</ele><time>2026-04-29T14:02:43.095Z</time></trkpt><trkpt lat="37.4608571" lon="-0.603717"><ele>0.0</ele><time>2026-04-29T14:02:44.095Z</time></trkpt><trkpt lat="37.4609962" lon="-0.6035562"><ele>0.0</ele><time>2026-04-29T14:02:46.095Z</time></trkpt><trkpt lat="37.4610645" lon="-0.6034737"><ele>0.0</ele><time>2026-04-29T14:02:47.095Z</time></trkpt><trkpt lat="37.4611302" lon="-0.6033977"><ele>0.0</ele><time>2026-04-29T14:02:48.095Z</time></trkpt><trkpt lat="37.4611944" lon="-0.6033201"><ele>0.0</ele><time>2026-04-29T14:02:49.095Z</time></trkpt><trkpt lat="37.4612658" lon="-0.6032469"><ele>0.0</ele><time>2026-04-29T14:02:50.095Z</time></trkpt><trkpt lat="37.4613351" lon="-0.6031793"><ele>0.0</ele><time>2026-04-29T14:02:51.096Z</time></trkpt><trkpt lat="37.4614101" lon="-0.6031155"><ele>0.0</ele><time>2026-04-29T14:02:52.096Z</time></trkpt><trkpt lat="37.4614783" lon="-0.6030536"><ele>0.0</ele><time>2026-04-29T14:02:53.095Z</time></trkpt><trkpt lat="37.4615538" lon="-0.6030021"><ele>0.0</ele><time>2026-04-29T14:02:54.096Z</time></trkpt><trkpt lat="37.4616262" lon="-0.6029482"><ele>0.0</ele><time>2026-04-29T14:02:55.095Z</time></trkpt><trkpt lat="37.4617021" lon="-0.6028949"><ele>0.0</ele><time>2026-04-29T14:02:56.095Z</time></trkpt><trkpt lat="37.4617702" lon="-0.6028256"><ele>0.0</ele><time>2026-04-29T14:02:57.095Z</time></trkpt><trkpt lat="37.4618357" lon="-0.6027543"><ele>0.0</ele><time>2026-04-29T14:02:58.096Z</time></trkpt><trkpt lat="37.4618992" lon="-0.6026783"><ele>0.0</ele><time>2026-04-29T14:02:59.096Z</time></trkpt><trkpt lat="37.4619595" lon="-0.6026086"><ele>0.0</ele><time>2026-04-29T14:03:00.096Z</time></trkpt><trkpt lat="37.4620208" lon="-0.6025394"><ele>0.0</ele><time>2026-04-29T14:03:01.096Z</time></trkpt><trkpt lat="37.4620838" lon="-0.602465"><ele>0.0</ele><time>2026-04-29T14:03:02.095Z</time></trkpt><trkpt lat="37.4621443" lon="-0.6023866"><ele>0.0</ele><time>2026-04-29T14:03:03.095Z</time></trkpt><trkpt lat="37.462206" lon="-0.6023054"><ele>0.0</ele><time>2026-04-29T14:03:04.096Z</time></trkpt><trkpt lat="37.4622705" lon="-0.6022275"><ele>0.0</ele><time>2026-04-29T14:03:05.096Z</time></trkpt><trkpt lat="37.4624108" lon="-0.6020311"><ele>0.0</ele><time>2026-04-29T14:03:07.096Z</time></trkpt><trkpt lat="37.4624794" lon="-0.6019469"><ele>0.0</ele><time>2026-04-29T14:03:08.096Z</time></trkpt><trkpt lat="37.4625322" lon="-0.6018424"><ele>0.0</ele><time>2026-04-29T14:03:09.096Z</time></trkpt><trkpt lat="37.4625938" lon="-0.6017525"><ele>0.0</ele><time>2026-04-29T14:03:10.096Z</time></trkpt><trkpt lat="37.4626669" lon="-0.6016469"><ele>0.0</ele><time>2026-04-29T14:03:11.095Z</time></trkpt><trkpt lat="37.4627382" lon="-0.6015628"><ele>0.0</ele><time>2026-04-29T14:03:12.095Z</time></trkpt><trkpt lat="37.4628194" lon="-0.601494"><ele>0.0</ele><time>2026-04-29T14:03:13.096Z</time></trkpt><trkpt lat="37.4628897" lon="-0.6014131"><ele>0.0</ele><time>2026-04-29T14:03:14.095Z</time></trkpt><trkpt lat="37.462957" lon="-0.6013387"><ele>0.0</ele><time>2026-04-29T14:03:15.096Z</time></trkpt><trkpt lat="37.4630208" lon="-0.6012599"><ele>0.0</ele><time>2026-04-29T14:03:16.096Z</time></trkpt><trkpt lat="37.4630929" lon="-0.6011937"><ele>0.0</ele><time>2026-04-29T14:03:17.096Z</time></trkpt><trkpt lat="37.4631619" lon="-0.6011207"><ele>0.0</ele><time>2026-04-29T14:03:18.095Z</time></trkpt><trkpt lat="37.4632342" lon="-0.6010443"><ele>0.0</ele><time>2026-04-29T14:03:19.095Z</time></trkpt><trkpt lat="37.4633077" lon="-0.6009704"><ele>0.0</ele><time>2026-04-29T14:03:20.095Z</time></trkpt><trkpt lat="37.4633879" lon="-0.6008909"><ele>0.0</ele><time>2026-04-29T14:03:21.095Z</time></trkpt><trkpt lat="37.4634612" lon="-0.6008265"><ele>0.0</ele><time>2026-04-29T14:03:22.096Z</time></trkpt><trkpt lat="37.463539" lon="-0.6007936"><ele>0.0</ele><time>2026-04-29T14:03:23.095Z</time></trkpt><trkpt lat="37.4636056" lon="-0.6007398"><ele>0.0</ele><time>2026-04-29T14:03:24.096Z</time></trkpt><trkpt lat="37.4636736" lon="-0.6006749"><ele>0.0</ele><time>2026-04-29T14:03:25.095Z</time></trkpt><trkpt lat="37.4637407" lon="-0.6006026"><ele>0.0</ele><time>2026-04-29T14:03:26.095Z</time></trkpt><trkpt lat="37.4638644" lon="-0.6004613"><ele>0.0</ele><time>2026-04-29T14:03:28.095Z</time></trkpt><trkpt lat="37.463932" lon="-0.6003971"><ele>0.0</ele><time>2026-04-29T14:03:29.095Z</time></trkpt><trkpt lat="37.4639915" lon="-0.6003296"><ele>0.0</ele><time>2026-04-29T14:03:30.095Z</time></trkpt><trkpt lat="37.4640526" lon="-0.6002628"><ele>0.0</ele><time>2026-04-29T14:03:31.095Z</time></trkpt><trkpt lat="37.4641127" lon="-0.6001975"><ele>0.0</ele><time>2026-04-29T14:03:32.095Z</time></trkpt><trkpt lat="37.4641727" lon="-0.6001325"><ele>0.0</ele><time>2026-04-29T14:03:33.096Z</time></trkpt><trkpt lat="37.4642341" lon="-0.6000508"><ele>0.0</ele><time>2026-04-29T14:03:34.096Z</time></trkpt><trkpt lat="37.4642985" lon="-0.5999775"><ele>0.0</ele><time>2026-04-29T14:03:35.096Z</time></trkpt><trkpt lat="37.4643637" lon="-0.5998966"><ele>0.0</ele><time>2026-04-29T14:03:36.096Z</time></trkpt><trkpt lat="37.4644303" lon="-0.5998303"><ele>0.0</ele><time>2026-04-29T14:03:37.096Z</time></trkpt><trkpt lat="37.464501" lon="-0.5997667"><ele>0.0</ele><time>2026-04-29T14:03:38.095Z</time></trkpt><trkpt lat="37.4645742" lon="-0.5996991"><ele>0.0</ele><time>2026-04-29T14:03:39.095Z</time></trkpt><trkpt lat="37.4646506" lon="-0.5996431"><ele>0.0</ele><time>2026-04-29T14:03:40.096Z</time></trkpt><trkpt lat="37.4647258" lon="-0.5995837"><ele>0.0</ele><time>2026-04-29T14:03:41.095Z</time></trkpt><trkpt lat="37.4647938" lon="-0.5995259"><ele>0.0</ele><time>2026-04-29T14:03:43.155Z</time></trkpt><trkpt lat="37.4648478" lon="-0.5994658"><ele>0.0</ele><time>2026-04-29T14:03:44.162Z</time></trkpt><trkpt lat="37.4649492" lon="-0.5993384"><ele>0.0</ele><time>2026-04-29T14:03:45.168Z</time></trkpt><trkpt lat="37.4650408" lon="-0.5992477"><ele>0.0</ele><time>2026-04-29T14:03:46.095Z</time></trkpt><trkpt lat="37.4651193" lon="-0.5991534"><ele>0.0</ele><time>2026-04-29T14:03:47.096Z</time></trkpt><trkpt lat="37.4652576" lon="-0.5990157"><ele>0.0</ele><time>2026-04-29T14:03:49.096Z</time></trkpt><trkpt lat="37.4653149" lon="-0.5989496"><ele>0.0</ele><time>2026-04-29T14:03:50.095Z</time></trkpt><trkpt lat="37.4653782" lon="-0.5988819"><ele>0.0</ele><time>2026-04-29T14:03:51.096Z</time></trkpt><trkpt lat="37.4654493" lon="-0.5988247"><ele>0.0</ele><time>2026-04-29T14:03:52.096Z</time></trkpt><trkpt lat="37.4655167" lon="-0.5987413"><ele>0.0</ele><time>2026-04-29T14:03:53.096Z</time></trkpt><trkpt lat="37.4655836" lon="-0.5986978"><ele>0.0</ele><time>2026-04-29T14:03:54.095Z</time></trkpt><trkpt lat="37.4656501" lon="-0.5986405"><ele>0.0</ele><time>2026-04-29T14:03:55.095Z</time></trkpt><trkpt lat="37.4657223" lon="-0.5985793"><ele>0.0</ele><time>2026-04-29T14:03:56.096Z</time></trkpt><trkpt lat="37.4657959" lon="-0.598512"><ele>0.0</ele><time>2026-04-29T14:03:57.095Z</time></trkpt><trkpt lat="37.4658664" lon="-0.5984421"><ele>0.0</ele><time>2026-04-29T14:03:58.096Z</time></trkpt><trkpt lat="37.4659363" lon="-0.5983694"><ele>0.0</ele><time>2026-04-29T14:03:59.095Z</time></trkpt><trkpt lat="37.4660015" lon="-0.59829"><ele>0.0</ele><time>2026-04-29T14:04:00.096Z</time></trkpt><trkpt lat="37.4660786" lon="-0.5982106"><ele>0.0</ele><time>2026-04-29T14:04:01.095Z</time></trkpt><trkpt lat="37.4661499" lon="-0.598133"><ele>0.0</ele><time>2026-04-29T14:04:02.096Z</time></trkpt><trkpt lat="37.4662255" lon="-0.5980601"><ele>0.0</ele><time>2026-04-29T14:04:03.096Z</time></trkpt><trkpt lat="37.4662937" lon="-0.5979916"><ele>0.0</ele><time>2026-04-29T14:04:04.096Z</time></trkpt><trkpt lat="37.4663522" lon="-0.597921"><ele>0.0</ele><time>2026-04-29T14:04:05.095Z</time></trkpt><trkpt lat="37.4664202" lon="-0.5978441"><ele>0.0</ele><time>2026-04-29T14:04:06.096Z</time></trkpt><trkpt lat="37.4664844" lon="-0.5977757"><ele>0.0</ele><time>2026-04-29T14:04:07.096Z</time></trkpt><trkpt lat="37.4665489" lon="-0.5977166"><ele>0.0</ele><time>2026-04-29T14:04:08.095Z</time></trkpt><trkpt lat="37.4666988" lon="-0.5976025"><ele>0.0</ele><time>2026-04-29T14:04:10.096Z</time></trkpt><trkpt lat="37.4667725" lon="-0.5975374"><ele>0.0</ele><time>2026-04-29T14:04:11.095Z</time></trkpt><trkpt lat="37.4668546" lon="-0.5975021"><ele>0.0</ele><time>2026-04-29T14:04:12.095Z</time></trkpt><trkpt lat="37.4669257" lon="-0.5974507"><ele>0.0</ele><time>2026-04-29T14:04:13.096Z</time></trkpt><trkpt lat="37.4669949" lon="-0.5973836"><ele>0.0</ele><time>2026-04-29T14:04:14.095Z</time></trkpt><trkpt lat="37.4670663" lon="-0.5973139"><ele>0.0</ele><time>2026-04-29T14:04:15.095Z</time></trkpt><trkpt lat="37.467135" lon="-0.5972406"><ele>0.0</ele><time>2026-04-29T14:04:16.095Z</time></trkpt><trkpt lat="37.4672022" lon="-0.5971769"><ele>0.0</ele><time>2026-04-29T14:04:17.096Z</time></trkpt><trkpt lat="37.4672631" lon="-0.5971057"><ele>0.0</ele><time>2026-04-29T14:04:18.096Z</time></trkpt><trkpt lat="37.4673274" lon="-0.5970401"><ele>0.0</ele><time>2026-04-29T14:04:19.096Z</time></trkpt><trkpt lat="37.4673865" lon="-0.5969722"><ele>0.0</ele><time>2026-04-29T14:04:20.096Z</time></trkpt><trkpt lat="37.4674431" lon="-0.5968979"><ele>0.0</ele><time>2026-04-29T14:04:21.095Z</time></trkpt><trkpt lat="37.467508" lon="-0.5968284"><ele>0.0</ele><time>2026-04-29T14:04:22.095Z</time></trkpt><trkpt lat="37.4675763" lon="-0.5967544"><ele>0.0</ele><time>2026-04-29T14:04:23.095Z</time></trkpt><trkpt lat="37.4676447" lon="-0.5966767"><ele>0.0</ele><time>2026-04-29T14:04:24.095Z</time></trkpt><trkpt lat="37.4677102" lon="-0.596608"><ele>0.0</ele><time>2026-04-29T14:04:25.096Z</time></trkpt><trkpt lat="37.4677839" lon="-0.5965543"><ele>0.0</ele><time>2026-04-29T14:04:26.096Z</time></trkpt><trkpt lat="37.4678459" lon="-0.5964055"><ele>0.0</ele><time>2026-04-29T14:04:29.172Z</time></trkpt><trkpt lat="37.4681457" lon="-0.596242"><ele>0.0</ele><time>2026-04-29T14:04:31.095Z</time></trkpt><trkpt lat="37.4682209" lon="-0.5961733"><ele>0.0</ele><time>2026-04-29T14:04:32.095Z</time></trkpt><trkpt lat="37.4682899" lon="-0.5960983"><ele>0.0</ele><time>2026-04-29T14:04:33.096Z</time></trkpt><trkpt lat="37.4683587" lon="-0.5960262"><ele>0.0</ele><time>2026-04-29T14:04:34.099Z</time></trkpt><trkpt lat="37.4684082" lon="-0.5959161"><ele>0.0</ele><time>2026-04-29T14:04:35.106Z</time></trkpt><trkpt lat="37.4684708" lon="-0.5958217"><ele>0.0</ele><time>2026-04-29T14:04:36.111Z</time></trkpt><trkpt lat="37.468514" lon="-0.5957561"><ele>0.0</ele><time>2026-04-29T14:04:37.095Z</time></trkpt><trkpt lat="37.4685732" lon="-0.5956873"><ele>0.0</ele><time>2026-04-29T14:04:38.096Z</time></trkpt><trkpt lat="37.4686363" lon="-0.5956165"><ele>0.0</ele><time>2026-04-29T14:04:39.096Z</time></trkpt><trkpt lat="37.4687089" lon="-0.5955324"><ele>0.0</ele><time>2026-04-29T14:04:40.095Z</time></trkpt><trkpt lat="37.4687735" lon="-0.5954222"><ele>0.0</ele><time>2026-04-29T14:04:41.095Z</time></trkpt><trkpt lat="37.4688286" lon="-0.5953332"><ele>0.0</ele><time>2026-04-29T14:04:42.096Z</time></trkpt><trkpt lat="37.4688911" lon="-0.5952562"><ele>0.0</ele><time>2026-04-29T14:04:43.095Z</time></trkpt><trkpt lat="37.4689542" lon="-0.5951867"><ele>0.0</ele><time>2026-04-29T14:04:44.096Z</time></trkpt><trkpt lat="37.4690179" lon="-0.5951188"><ele>0.0</ele><time>2026-04-29T14:04:45.096Z</time></trkpt><trkpt lat="37.4690818" lon="-0.5950412"><ele>0.0</ele><time>2026-04-29T14:04:46.095Z</time></trkpt><trkpt lat="37.4691439" lon="-0.5949677"><ele>0.0</ele><time>2026-04-29T14:04:47.095Z</time></trkpt><trkpt lat="37.4692101" lon="-0.5948952"><ele>0.0</ele><time>2026-04-29T14:04:48.095Z</time></trkpt><trkpt lat="37.4692761" lon="-0.5948282"><ele>0.0</ele><time>2026-04-29T14:04:49.095Z</time></trkpt><trkpt lat="37.4693423" lon="-0.5947617"><ele>0.0</ele><time>2026-04-29T14:04:50.095Z</time></trkpt><trkpt lat="37.4694795" lon="-0.5945988"><ele>0.0</ele><time>2026-04-29T14:04:52.095Z</time></trkpt><trkpt lat="37.4695497" lon="-0.5945234"><ele>0.0</ele><time>2026-04-29T14:04:53.095Z</time></trkpt><trkpt lat="37.4696211" lon="-0.5944487"><ele>0.0</ele><time>2026-04-29T14:04:54.095Z</time></trkpt><trkpt lat="37.4696925" lon="-0.5943779"><ele>0.0</ele><time>2026-04-29T14:04:55.096Z</time></trkpt><trkpt lat="37.46977" lon="-0.5943094"><ele>0.0</ele><time>2026-04-29T14:04:56.095Z</time></trkpt><trkpt lat="37.4698462" lon="-0.5942386"><ele>0.0</ele><time>2026-04-29T14:04:57.095Z</time></trkpt><trkpt lat="37.4699251" lon="-0.5941685"><ele>0.0</ele><time>2026-04-29T14:04:58.095Z</time></trkpt><trkpt lat="37.4700007" lon="-0.5941202"><ele>0.0</ele><time>2026-04-29T14:05:00.152Z</time></trkpt><trkpt lat="37.4700867" lon="-0.5940164"><ele>0.0</ele><time>2026-04-29T14:05:01.157Z</time></trkpt><trkpt lat="37.4701637" lon="-0.5939407"><ele>0.0</ele><time>2026-04-29T14:05:02.164Z</time></trkpt><trkpt lat="37.4702333" lon="-0.5938525"><ele>0.0</ele><time>2026-04-29T14:05:03.168Z</time></trkpt><trkpt lat="37.4703023" lon="-0.5937662"><ele>0.0</ele><time>2026-04-29T14:05:04.095Z</time></trkpt><trkpt lat="37.4703715" lon="-0.5936796"><ele>0.0</ele><time>2026-04-29T14:05:05.096Z</time></trkpt><trkpt lat="37.4704382" lon="-0.5935815"><ele>0.0</ele><time>2026-04-29T14:05:06.096Z</time></trkpt><trkpt lat="37.4705102" lon="-0.5934885"><ele>0.0</ele><time>2026-04-29T14:05:07.096Z</time></trkpt><trkpt lat="37.4705747" lon="-0.5934042"><ele>0.0</ele><time>2026-04-29T14:05:08.096Z</time></trkpt><trkpt lat="37.4706499" lon="-0.5933304"><ele>0.0</ele><time>2026-04-29T14:05:09.102Z</time></trkpt><trkpt lat="37.4707741" lon="-0.5932474"><ele>0.0</ele><time>2026-04-29T14:05:11.095Z</time></trkpt><trkpt lat="37.4709026" lon="-0.5931219"><ele>0.0</ele><time>2026-04-29T14:05:13.096Z</time></trkpt><trkpt lat="37.4709719" lon="-0.5930493"><ele>0.0</ele><time>2026-04-29T14:05:14.095Z</time></trkpt><trkpt lat="37.4710419" lon="-0.5929771"><ele>0.0</ele><time>2026-04-29T14:05:15.095Z</time></trkpt><trkpt lat="37.4711105" lon="-0.5929042"><ele>0.0</ele><time>2026-04-29T14:05:16.096Z</time></trkpt><trkpt lat="37.4711814" lon="-0.5928291"><ele>0.0</ele><time>2026-04-29T14:05:17.096Z</time></trkpt><trkpt lat="37.4712556" lon="-0.5927529"><ele>0.0</ele><time>2026-04-29T14:05:18.095Z</time></trkpt><trkpt lat="37.4713146" lon="-0.5926576"><ele>0.0</ele><time>2026-04-29T14:05:19.096Z</time></trkpt><trkpt lat="37.4713701" lon="-0.5925649"><ele>0.0</ele><time>2026-04-29T14:05:20.095Z</time></trkpt><trkpt lat="37.4714262" lon="-0.5924757"><ele>0.0</ele><time>2026-04-29T14:05:21.096Z</time></trkpt><trkpt lat="37.4714814" lon="-0.5923801"><ele>0.0</ele><time>2026-04-29T14:05:22.096Z</time></trkpt><trkpt lat="37.4715635" lon="-0.5922858"><ele>0.0</ele><time>2026-04-29T14:05:23.095Z</time></trkpt><trkpt lat="37.4716347" lon="-0.5922041"><ele>0.0</ele><time>2026-04-29T14:05:24.096Z</time></trkpt><trkpt lat="37.4717032" lon="-0.5921214"><ele>0.0</ele><time>2026-04-29T14:05:25.095Z</time></trkpt><trkpt lat="37.4717686" lon="-0.592038"><ele>0.0</ele><time>2026-04-29T14:05:26.095Z</time></trkpt><trkpt lat="37.4718322" lon="-0.5919619"><ele>0.0</ele><time>2026-04-29T14:05:27.096Z</time></trkpt><trkpt lat="37.4719052" lon="-0.5919107"><ele>0.0</ele><time>2026-04-29T14:05:28.095Z</time></trkpt><trkpt lat="37.4719747" lon="-0.591831"><ele>0.0</ele><time>2026-04-29T14:05:29.095Z</time></trkpt><trkpt lat="37.4720448" lon="-0.5917527"><ele>0.0</ele><time>2026-04-29T14:05:30.096Z</time></trkpt><trkpt lat="37.4721013" lon="-0.5915922"><ele>0.0</ele><time>2026-04-29T14:05:33.153Z</time></trkpt><trkpt lat="37.4723708" lon="-0.5913271"><ele>0.0</ele><time>2026-04-29T14:05:35.163Z</time></trkpt><trkpt lat="37.4724601" lon="-0.5912533"><ele>0.0</ele><time>2026-04-29T14:05:36.169Z</time></trkpt><trkpt lat="37.4725435" lon="-0.5911902"><ele>0.0</ele><time>2026-04-29T14:05:37.095Z</time></trkpt><trkpt lat="37.4726226" lon="-0.5911161"><ele>0.0</ele><time>2026-04-29T14:05:38.095Z</time></trkpt><trkpt lat="37.4727474" lon="-0.5909901"><ele>0.0</ele><time>2026-04-29T14:05:40.095Z</time></trkpt><trkpt lat="37.4728182" lon="-0.5909212"><ele>0.0</ele><time>2026-04-29T14:05:41.097Z</time></trkpt><trkpt lat="37.4728612" lon="-0.5908559"><ele>0.0</ele><time>2026-04-29T14:05:42.096Z</time></trkpt><trkpt lat="37.4729223" lon="-0.5907843"><ele>0.0</ele><time>2026-04-29T14:05:43.095Z</time></trkpt><trkpt lat="37.4729882" lon="-0.5907142"><ele>0.0</ele><time>2026-04-29T14:05:44.096Z</time></trkpt><trkpt lat="37.4730593" lon="-0.590644"><ele>0.0</ele><time>2026-04-29T14:05:45.096Z</time></trkpt><trkpt lat="37.4731326" lon="-0.5905643"><ele>0.0</ele><time>2026-04-29T14:05:46.096Z</time></trkpt><trkpt lat="37.4731998" lon="-0.5904942"><ele>0.0</ele><time>2026-04-29T14:05:47.096Z</time></trkpt><trkpt lat="37.473269" lon="-0.5904242"><ele>0.0</ele><time>2026-04-29T14:05:48.095Z</time></trkpt><trkpt lat="37.4733363" lon="-0.5903597"><ele>0.0</ele><time>2026-04-29T14:05:49.095Z</time></trkpt><trkpt lat="37.4734045" lon="-0.5902879"><ele>0.0</ele><time>2026-04-29T14:05:50.096Z</time></trkpt><trkpt lat="37.4734776" lon="-0.5902173"><ele>0.0</ele><time>2026-04-29T14:05:51.096Z</time></trkpt><trkpt lat="37.4735512" lon="-0.5901457"><ele>0.0</ele><time>2026-04-29T14:05:52.095Z</time></trkpt><trkpt lat="37.4736175" lon="-0.5901338"><ele>0.0</ele><time>2026-04-29T14:05:53.095Z</time></trkpt><trkpt lat="37.4736854" lon="-0.5900646"><ele>0.0</ele><time>2026-04-29T14:05:54.095Z</time></trkpt><trkpt lat="37.4738185" lon="-0.5899258"><ele>0.0</ele><time>2026-04-29T14:05:56.095Z</time></trkpt><trkpt lat="37.4738921" lon="-0.589876"><ele>0.0</ele><time>2026-04-29T14:05:57.096Z</time></trkpt><trkpt lat="37.4739654" lon="-0.5898152"><ele>0.0</ele><time>2026-04-29T14:05:58.095Z</time></trkpt><trkpt lat="37.4740304" lon="-0.5897823"><ele>0.0</ele><time>2026-04-29T14:05:59.096Z</time></trkpt><trkpt lat="37.4740967" lon="-0.5897192"><ele>0.0</ele><time>2026-04-29T14:06:00.095Z</time></trkpt><trkpt lat="37.4741676" lon="-0.5896583"><ele>0.0</ele><time>2026-04-29T14:06:01.095Z</time></trkpt><trkpt lat="37.4742337" lon="-0.5895788"><ele>0.0</ele><time>2026-04-29T14:06:02.095Z</time></trkpt><trkpt lat="37.4744065" lon="-0.5894044"><ele>0.0</ele><time>2026-04-29T14:06:05.151Z</time></trkpt><trkpt lat="37.4745153" lon="-0.589342"><ele>0.0</ele><time>2026-04-29T14:06:06.158Z</time></trkpt><trkpt lat="37.4746044" lon="-0.5892759"><ele>0.0</ele><time>2026-04-29T14:06:07.162Z</time></trkpt><trkpt lat="37.4746709" lon="-0.5891856"><ele>0.0</ele><time>2026-04-29T14:06:08.095Z</time></trkpt><trkpt lat="37.474743" lon="-0.5891177"><ele>0.0</ele><time>2026-04-29T14:06:09.095Z</time></trkpt><trkpt lat="37.4748101" lon="-0.5890386"><ele>0.0</ele><time>2026-04-29T14:06:10.095Z</time></trkpt><trkpt lat="37.4748779" lon="-0.5889587"><ele>0.0</ele><time>2026-04-29T14:06:11.095Z</time></trkpt><trkpt lat="37.4749556" lon="-0.5888812"><ele>0.0</ele><time>2026-04-29T14:06:12.096Z</time></trkpt><trkpt lat="37.4750113" lon="-0.5888261"><ele>0.0</ele><time>2026-04-29T14:06:13.095Z</time></trkpt><trkpt lat="37.4750729" lon="-0.5887571"><ele>0.0</ele><time>2026-04-29T14:06:14.095Z</time></trkpt><trkpt lat="37.4751429" lon="-0.5886886"><ele>0.0</ele><time>2026-04-29T14:06:15.095Z</time></trkpt><trkpt lat="37.4752762" lon="-0.5885415"><ele>0.0</ele><time>2026-04-29T14:06:17.096Z</time></trkpt><trkpt lat="37.4753436" lon="-0.5884563"><ele>0.0</ele><time>2026-04-29T14:06:18.096Z</time></trkpt><trkpt lat="37.475413" lon="-0.5883738"><ele>0.0</ele><time>2026-04-29T14:06:19.096Z</time></trkpt><trkpt lat="37.4754828" lon="-0.588299"><ele>0.0</ele><time>2026-04-29T14:06:20.095Z</time></trkpt><trkpt lat="37.4755516" lon="-0.5882324"><ele>0.0</ele><time>2026-04-29T14:06:21.096Z</time></trkpt><trkpt lat="37.4756151" lon="-0.5881638"><ele>0.0</ele><time>2026-04-29T14:06:22.096Z</time></trkpt><trkpt lat="37.4756854" lon="-0.5880992"><ele>0.0</ele><time>2026-04-29T14:06:23.096Z</time></trkpt><trkpt lat="37.4757664" lon="-0.5880683"><ele>0.0</ele><time>2026-04-29T14:06:24.095Z</time></trkpt><trkpt lat="37.4758368" lon="-0.5880093"><ele>0.0</ele><time>2026-04-29T14:06:25.096Z</time></trkpt><trkpt lat="37.4759095" lon="-0.5879412"><ele>0.0</ele><time>2026-04-29T14:06:26.096Z</time></trkpt><trkpt lat="37.4759815" lon="-0.5878756"><ele>0.0</ele><time>2026-04-29T14:06:27.095Z</time></trkpt><trkpt lat="37.4760549" lon="-0.5878074"><ele>0.0</ele><time>2026-04-29T14:06:28.095Z</time></trkpt><trkpt lat="37.4761257" lon="-0.5877462"><ele>0.0</ele><time>2026-04-29T14:06:29.095Z</time></trkpt><trkpt lat="37.4761898" lon="-0.5876715"><ele>0.0</ele><time>2026-04-29T14:06:30.095Z</time></trkpt><trkpt lat="37.4762559" lon="-0.5875691"><ele>0.0</ele><time>2026-04-29T14:06:31.096Z</time></trkpt><trkpt lat="37.4763123" lon="-0.5874541"><ele>0.0</ele><time>2026-04-29T14:06:32.096Z</time></trkpt><trkpt lat="37.4763751" lon="-0.5873599"><ele>0.0</ele><time>2026-04-29T14:06:33.096Z</time></trkpt><trkpt lat="37.4764333" lon="-0.5872734"><ele>0.0</ele><time>2026-04-29T14:06:34.095Z</time></trkpt><trkpt lat="37.4764937" lon="-0.587187"><ele>0.0</ele><time>2026-04-29T14:06:35.096Z</time></trkpt><trkpt lat="37.4765689" lon="-0.5871261"><ele>0.0</ele><time>2026-04-29T14:06:36.096Z</time></trkpt><trkpt lat="37.4767137" lon="-0.5869822"><ele>0.0</ele><time>2026-04-29T14:06:38.095Z</time></trkpt><trkpt lat="37.4767662" lon="-0.5869032"><ele>0.0</ele><time>2026-04-29T14:06:39.095Z</time></trkpt><trkpt lat="37.4768202" lon="-0.586819"><ele>0.0</ele><time>2026-04-29T14:06:40.095Z</time></trkpt><trkpt lat="37.4768863" lon="-0.5867411"><ele>0.0</ele><time>2026-04-29T14:06:41.095Z</time></trkpt><trkpt lat="37.476948" lon="-0.5866392"><ele>0.0</ele><time>2026-04-29T14:06:42.095Z</time></trkpt><trkpt lat="37.4770152" lon="-0.5865229"><ele>0.0</ele><time>2026-04-29T14:06:43.096Z</time></trkpt><trkpt lat="37.4770775" lon="-0.5864426"><ele>0.0</ele><time>2026-04-29T14:06:44.096Z</time></trkpt><trkpt lat="37.477142" lon="-0.5863696"><ele>0.0</ele><time>2026-04-29T14:06:45.095Z</time></trkpt><trkpt lat="37.4772085" lon="-0.5862883"><ele>0.0</ele><time>2026-04-29T14:06:46.095Z</time></trkpt><trkpt lat="37.4772722" lon="-0.5862059"><ele>0.0</ele><time>2026-04-29T14:06:47.095Z</time></trkpt><trkpt lat="37.4773389" lon="-0.5860919"><ele>0.0</ele><time>2026-04-29T14:06:48.096Z</time></trkpt><trkpt lat="37.4774013" lon="-0.5860034"><ele>0.0</ele><time>2026-04-29T14:06:49.095Z</time></trkpt><trkpt lat="37.4774667" lon="-0.5859225"><ele>0.0</ele><time>2026-04-29T14:06:50.095Z</time></trkpt><trkpt lat="37.4775306" lon="-0.5858442"><ele>0.0</ele><time>2026-04-29T14:06:51.095Z</time></trkpt><trkpt lat="37.4775925" lon="-0.5857677"><ele>0.0</ele><time>2026-04-29T14:06:52.095Z</time></trkpt><trkpt lat="37.4776595" lon="-0.5856979"><ele>0.0</ele><time>2026-04-29T14:06:53.096Z</time></trkpt><trkpt lat="37.4777239" lon="-0.5856393"><ele>0.0</ele><time>2026-04-29T14:06:54.096Z</time></trkpt><trkpt lat="37.4777816" lon="-0.585567"><ele>0.0</ele><time>2026-04-29T14:06:55.095Z</time></trkpt><trkpt lat="37.4778265" lon="-0.5854911"><ele>0.0</ele><time>2026-04-29T14:06:56.095Z</time></trkpt><trkpt lat="37.4778937" lon="-0.5854285"><ele>0.0</ele><time>2026-04-29T14:06:57.095Z</time></trkpt><trkpt lat="37.4780083" lon="-0.5852479"><ele>0.0</ele><time>2026-04-29T14:06:59.096Z</time></trkpt><trkpt lat="37.4780634" lon="-0.5851533"><ele>0.0</ele><time>2026-04-29T14:07:00.095Z</time></trkpt><trkpt lat="37.4781185" lon="-0.5850582"><ele>0.0</ele><time>2026-04-29T14:07:01.095Z</time></trkpt><trkpt lat="37.4781803" lon="-0.5849646"><ele>0.0</ele><time>2026-04-29T14:07:02.094Z</time></trkpt><trkpt lat="37.4782716" lon="-0.5848927"><ele>0.0</ele><time>2026-04-29T14:07:04.165Z</time></trkpt><trkpt lat="37.4783535" lon="-0.5847411"><ele>0.0</ele><time>2026-04-29T14:07:05.17Z</time></trkpt><trkpt lat="37.4784434" lon="-0.5846669"><ele>0.0</ele><time>2026-04-29T14:07:06.095Z</time></trkpt><trkpt lat="37.4785255" lon="-0.5845861"><ele>0.0</ele><time>2026-04-29T14:07:07.094Z</time></trkpt><trkpt lat="37.4786076" lon="-0.5845177"><ele>0.0</ele><time>2026-04-29T14:07:08.095Z</time></trkpt><trkpt lat="37.478669" lon="-0.5844624"><ele>0.0</ele><time>2026-04-29T14:07:09.094Z</time></trkpt><trkpt lat="37.4787452" lon="-0.5843987"><ele>0.0</ele><time>2026-04-29T14:07:10.094Z</time></trkpt><trkpt lat="37.4788203" lon="-0.5843297"><ele>0.0</ele><time>2026-04-29T14:07:11.094Z</time></trkpt><trkpt lat="37.4788979" lon="-0.5842653"><ele>0.0</ele><time>2026-04-29T14:07:12.095Z</time></trkpt><trkpt lat="37.4789724" lon="-0.5841963"><ele>0.0</ele><time>2026-04-29T14:07:13.094Z</time></trkpt><trkpt lat="37.4790485" lon="-0.584146"><ele>0.0</ele><time>2026-04-29T14:07:14.095Z</time></trkpt><trkpt lat="37.4791209" lon="-0.5840837"><ele>0.0</ele><time>2026-04-29T14:07:15.094Z</time></trkpt><trkpt lat="37.4791941" lon="-0.584022"><ele>0.0</ele><time>2026-04-29T14:07:16.094Z</time></trkpt><trkpt lat="37.4792676" lon="-0.5839632"><ele>0.0</ele><time>2026-04-29T14:07:17.094Z</time></trkpt><trkpt lat="37.4793437" lon="-0.583898"><ele>0.0</ele><time>2026-04-29T14:07:18.094Z</time></trkpt><trkpt lat="37.4795103" lon="-0.5837932"><ele>0.0</ele><time>2026-04-29T14:07:20.095Z</time></trkpt><trkpt lat="37.4796034" lon="-0.5837537"><ele>0.0</ele><time>2026-04-29T14:07:21.095Z</time></trkpt><trkpt lat="37.4796896" lon="-0.5837021"><ele>0.0</ele><time>2026-04-29T14:07:22.094Z</time></trkpt><trkpt lat="37.4797658" lon="-0.5836307"><ele>0.0</ele><time>2026-04-29T14:07:23.094Z</time></trkpt><trkpt lat="37.4798407" lon="-0.5835643"><ele>0.0</ele><time>2026-04-29T14:07:24.094Z</time></trkpt><trkpt lat="37.4799134" lon="-0.5834882"><ele>0.0</ele><time>2026-04-29T14:07:25.094Z</time></trkpt><trkpt lat="37.4799764" lon="-0.5834212"><ele>0.0</ele><time>2026-04-29T14:07:26.095Z</time></trkpt><trkpt lat="37.4800347" lon="-0.5833534"><ele>0.0</ele><time>2026-04-29T14:07:27.094Z</time></trkpt><trkpt lat="37.4801107" lon="-0.5832849"><ele>0.0</ele><time>2026-04-29T14:07:28.095Z</time></trkpt><trkpt lat="37.4801831" lon="-0.5832132"><ele>0.0</ele><time>2026-04-29T14:07:29.094Z</time></trkpt><trkpt lat="37.480245" lon="-0.5831288"><ele>0.0</ele><time>2026-04-29T14:07:30.095Z</time></trkpt><trkpt lat="37.4803077" lon="-0.5830908"><ele>0.0</ele><time>2026-04-29T14:07:32.155Z</time></trkpt><trkpt lat="37.4803851" lon="-0.58304"><ele>0.0</ele><time>2026-04-29T14:07:33.161Z</time></trkpt><trkpt lat="37.4804873" lon="-0.582894"><ele>0.0</ele><time>2026-04-29T14:07:34.166Z</time></trkpt><trkpt lat="37.4805744" lon="-0.5827869"><ele>0.0</ele><time>2026-04-29T14:07:35.095Z</time></trkpt><trkpt lat="37.4806513" lon="-0.5827033"><ele>0.0</ele><time>2026-04-29T14:07:36.177Z</time></trkpt><trkpt lat="37.4807271" lon="-0.5826437"><ele>0.0</ele><time>2026-04-29T14:07:37.095Z</time></trkpt><trkpt lat="37.4807887" lon="-0.5825773"><ele>0.0</ele><time>2026-04-29T14:07:38.095Z</time></trkpt><trkpt lat="37.4808472" lon="-0.5824868"><ele>0.0</ele><time>2026-04-29T14:07:39.094Z</time></trkpt><trkpt lat="37.4809699" lon="-0.5822998"><ele>0.0</ele><time>2026-04-29T14:07:41.105Z</time></trkpt><trkpt lat="37.4810396" lon="-0.5822131"><ele>0.0</ele><time>2026-04-29T14:07:42.11Z</time></trkpt><trkpt lat="37.4811137" lon="-0.582108"><ele>0.0</ele><time>2026-04-29T14:07:44.122Z</time></trkpt><trkpt lat="37.4811992" lon="-0.5820182"><ele>0.0</ele><time>2026-04-29T14:07:45.127Z</time></trkpt><trkpt lat="37.4812719" lon="-0.5819471"><ele>0.0</ele><time>2026-04-29T14:07:46.132Z</time></trkpt><trkpt lat="37.4813473" lon="-0.5818761"><ele>0.0</ele><time>2026-04-29T14:07:47.138Z</time></trkpt><trkpt lat="37.4814243" lon="-0.5818108"><ele>0.0</ele><time>2026-04-29T14:07:48.144Z</time></trkpt><trkpt lat="37.4814946" lon="-0.5817422"><ele>0.0</ele><time>2026-04-29T14:07:49.149Z</time></trkpt><trkpt lat="37.4815518" lon="-0.5816509"><ele>0.0</ele><time>2026-04-29T14:07:50.154Z</time></trkpt><trkpt lat="37.4816152" lon="-0.5815627"><ele>0.0</ele><time>2026-04-29T14:07:51.16Z</time></trkpt><trkpt lat="37.4816805" lon="-0.5814718"><ele>0.0</ele><time>2026-04-29T14:07:52.166Z</time></trkpt><trkpt lat="37.481761" lon="-0.581338"><ele>0.0</ele><time>2026-04-29T14:07:54.176Z</time></trkpt><trkpt lat="37.4818501" lon="-0.5812384"><ele>0.0</ele><time>2026-04-29T14:07:55.095Z</time></trkpt><trkpt lat="37.481919" lon="-0.5811468"><ele>0.0</ele><time>2026-04-29T14:07:56.094Z</time></trkpt><trkpt lat="37.4819923" lon="-0.5810634"><ele>0.0</ele><time>2026-04-29T14:07:57.094Z</time></trkpt><trkpt lat="37.4820624" lon="-0.5809788"><ele>0.0</ele><time>2026-04-29T14:07:58.099Z</time></trkpt><trkpt lat="37.4821387" lon="-0.5808995"><ele>0.0</ele><time>2026-04-29T14:07:59.104Z</time></trkpt><trkpt lat="37.482215" lon="-0.5808228"><ele>0.0</ele><time>2026-04-29T14:08:00.109Z</time></trkpt><trkpt lat="37.4823565" lon="-0.5806484"><ele>0.0</ele><time>2026-04-29T14:08:02.12Z</time></trkpt><trkpt lat="37.4824235" lon="-0.5805442"><ele>0.0</ele><time>2026-04-29T14:08:04.131Z</time></trkpt><trkpt lat="37.48251" lon="-0.5804612"><ele>0.0</ele><time>2026-04-29T14:08:05.137Z</time></trkpt><trkpt lat="37.4825804" lon="-0.5803764"><ele>0.0</ele><time>2026-04-29T14:08:06.143Z</time></trkpt><trkpt lat="37.482659" lon="-0.5802955"><ele>0.0</ele><time>2026-04-29T14:08:07.148Z</time></trkpt><trkpt lat="37.48273" lon="-0.5802119"><ele>0.0</ele><time>2026-04-29T14:08:08.154Z</time></trkpt><trkpt lat="37.4827917" lon="-0.5801152"><ele>0.0</ele><time>2026-04-29T14:08:09.16Z</time></trkpt><trkpt lat="37.4828575" lon="-0.5800204"><ele>0.0</ele><time>2026-04-29T14:08:10.165Z</time></trkpt><trkpt lat="37.4829352" lon="-0.5799502"><ele>0.0</ele><time>2026-04-29T14:08:11.17Z</time></trkpt><trkpt lat="37.4830124" lon="-0.5798973"><ele>0.0</ele><time>2026-04-29T14:08:12.094Z</time></trkpt><trkpt lat="37.4830649" lon="-0.5798417"><ele>0.0</ele><time>2026-04-29T14:08:13.095Z</time></trkpt><trkpt lat="37.483123" lon="-0.5797583"><ele>0.0</ele><time>2026-04-29T14:08:14.095Z</time></trkpt><trkpt lat="37.483195" lon="-0.5796841"><ele>0.0</ele><time>2026-04-29T14:08:15.095Z</time></trkpt><trkpt lat="37.4832669" lon="-0.5796073"><ele>0.0</ele><time>2026-04-29T14:08:16.098Z</time></trkpt><trkpt lat="37.4833523" lon="-0.5795556"><ele>0.0</ele><time>2026-04-29T14:08:17.104Z</time></trkpt><trkpt lat="37.4834395" lon="-0.5795004"><ele>0.0</ele><time>2026-04-29T14:08:18.109Z</time></trkpt><trkpt lat="37.4835219" lon="-0.5794387"><ele>0.0</ele><time>2026-04-29T14:08:19.115Z</time></trkpt><trkpt lat="37.4835945" lon="-0.5793636"><ele>0.0</ele><time>2026-04-29T14:08:20.121Z</time></trkpt><trkpt lat="37.4836773" lon="-0.5792378"><ele>0.0</ele><time>2026-04-29T14:08:22.094Z</time></trkpt><trkpt lat="37.483814" lon="-0.5790975"><ele>0.0</ele><time>2026-04-29T14:08:24.094Z</time></trkpt><trkpt lat="37.4838817" lon="-0.5790297"><ele>0.0</ele><time>2026-04-29T14:08:25.095Z</time></trkpt><trkpt lat="37.4839556" lon="-0.578963"><ele>0.0</ele><time>2026-04-29T14:08:26.094Z</time></trkpt><trkpt lat="37.4840267" lon="-0.5788932"><ele>0.0</ele><time>2026-04-29T14:08:27.094Z</time></trkpt><trkpt lat="37.484092" lon="-0.578825"><ele>0.0</ele><time>2026-04-29T14:08:28.094Z</time></trkpt><trkpt lat="37.4841537" lon="-0.5787526"><ele>0.0</ele><time>2026-04-29T14:08:29.094Z</time></trkpt><trkpt lat="37.484218" lon="-0.5786704"><ele>0.0</ele><time>2026-04-29T14:08:30.095Z</time></trkpt><trkpt lat="37.4842862" lon="-0.5785913"><ele>0.0</ele><time>2026-04-29T14:08:31.094Z</time></trkpt><trkpt lat="37.484352" lon="-0.5785068"><ele>0.0</ele><time>2026-04-29T14:08:32.095Z</time></trkpt><trkpt lat="37.4844222" lon="-0.5784236"><ele>0.0</ele><time>2026-04-29T14:08:33.095Z</time></trkpt><trkpt lat="37.4844881" lon="-0.57836"><ele>0.0</ele><time>2026-04-29T14:08:34.095Z</time></trkpt><trkpt lat="37.4845608" lon="-0.5782852"><ele>0.0</ele><time>2026-04-29T14:08:35.094Z</time></trkpt><trkpt lat="37.4846325" lon="-0.5782087"><ele>0.0</ele><time>2026-04-29T14:08:36.095Z</time></trkpt><trkpt lat="37.4847012" lon="-0.57813"><ele>0.0</ele><time>2026-04-29T14:08:37.095Z</time></trkpt><trkpt lat="37.4847684" lon="-0.5780667"><ele>0.0</ele><time>2026-04-29T14:08:38.095Z</time></trkpt><trkpt lat="37.4848322" lon="-0.5779952"><ele>0.0</ele><time>2026-04-29T14:08:39.094Z</time></trkpt><trkpt lat="37.4849013" lon="-0.5779147"><ele>0.0</ele><time>2026-04-29T14:08:40.094Z</time></trkpt><trkpt lat="37.4849614" lon="-0.57784"><ele>0.0</ele><time>2026-04-29T14:08:41.094Z</time></trkpt><trkpt lat="37.4850268" lon="-0.5777763"><ele>0.0</ele><time>2026-04-29T14:08:42.095Z</time></trkpt><trkpt lat="37.485089" lon="-0.5776677"><ele>0.0</ele><time>2026-04-29T14:08:45.168Z</time></trkpt><trkpt lat="37.4853607" lon="-0.5774588"><ele>0.0</ele><time>2026-04-29T14:08:47.095Z</time></trkpt><trkpt lat="37.4854371" lon="-0.5773835"><ele>0.0</ele><time>2026-04-29T14:08:48.185Z</time></trkpt><trkpt lat="37.4855264" lon="-0.5773173"><ele>0.0</ele><time>2026-04-29T14:08:49.094Z</time></trkpt><trkpt lat="37.4856107" lon="-0.5772498"><ele>0.0</ele><time>2026-04-29T14:08:50.095Z</time></trkpt><trkpt lat="37.4856909" lon="-0.577163"><ele>0.0</ele><time>2026-04-29T14:08:51.1Z</time></trkpt><trkpt lat="37.4857611" lon="-0.5770775"><ele>0.0</ele><time>2026-04-29T14:08:52.107Z</time></trkpt><trkpt lat="37.4858201" lon="-0.5769563"><ele>0.0</ele><time>2026-04-29T14:08:54.117Z</time></trkpt><trkpt lat="37.4859137" lon="-0.5768786"><ele>0.0</ele><time>2026-04-29T14:08:55.123Z</time></trkpt><trkpt lat="37.4859922" lon="-0.5768043"><ele>0.0</ele><time>2026-04-29T14:08:56.128Z</time></trkpt><trkpt lat="37.4860668" lon="-0.5767308"><ele>0.0</ele><time>2026-04-29T14:08:57.134Z</time></trkpt><trkpt lat="37.4861363" lon="-0.5766493"><ele>0.0</ele><time>2026-04-29T14:08:58.14Z</time></trkpt><trkpt lat="37.4862062" lon="-0.5765703"><ele>0.0</ele><time>2026-04-29T14:08:59.146Z</time></trkpt><trkpt lat="37.4862753" lon="-0.5764894"><ele>0.0</ele><time>2026-04-29T14:09:00.151Z</time></trkpt><trkpt lat="37.4863415" lon="-0.5763704"><ele>0.0</ele><time>2026-04-29T14:09:02.162Z</time></trkpt><trkpt lat="37.4864273" lon="-0.5762758"><ele>0.0</ele><time>2026-04-29T14:09:03.168Z</time></trkpt><trkpt lat="37.4865045" lon="-0.5761974"><ele>0.0</ele><time>2026-04-29T14:09:04.172Z</time></trkpt><trkpt lat="37.4865816" lon="-0.5761358"><ele>0.0</ele><time>2026-04-29T14:09:05.095Z</time></trkpt><trkpt lat="37.4866568" lon="-0.5760626"><ele>0.0</ele><time>2026-04-29T14:09:06.094Z</time></trkpt><trkpt lat="37.4868122" lon="-0.5759163"><ele>0.0</ele><time>2026-04-29T14:09:08.095Z</time></trkpt><trkpt lat="37.4868872" lon="-0.5758394"><ele>0.0</ele><time>2026-04-29T14:09:09.101Z</time></trkpt><trkpt lat="37.4869871" lon="-0.5758442"><ele>0.0</ele><time>2026-04-29T14:09:10.105Z</time></trkpt><trkpt lat="37.4870813" lon="-0.5758096"><ele>0.0</ele><time>2026-04-29T14:09:11.112Z</time></trkpt><trkpt lat="37.4871397" lon="-0.5756778"><ele>0.0</ele><time>2026-04-29T14:09:13.122Z</time></trkpt><trkpt lat="37.4872123" lon="-0.5755779"><ele>0.0</ele><time>2026-04-29T14:09:14.129Z</time></trkpt><trkpt lat="37.4872875" lon="-0.5754806"><ele>0.0</ele><time>2026-04-29T14:09:15.133Z</time></trkpt><trkpt lat="37.4873644" lon="-0.5754066"><ele>0.0</ele><time>2026-04-29T14:09:16.14Z</time></trkpt><trkpt lat="37.4874494" lon="-0.5753475"><ele>0.0</ele><time>2026-04-29T14:09:17.145Z</time></trkpt><trkpt lat="37.4875253" lon="-0.575278"><ele>0.0</ele><time>2026-04-29T14:09:18.15Z</time></trkpt><trkpt lat="37.4875964" lon="-0.5752012"><ele>0.0</ele><time>2026-04-29T14:09:19.155Z</time></trkpt><trkpt lat="37.4876723" lon="-0.5751228"><ele>0.0</ele><time>2026-04-29T14:09:20.161Z</time></trkpt><trkpt lat="37.4877375" lon="-0.575028"><ele>0.0</ele><time>2026-04-29T14:09:21.167Z</time></trkpt><trkpt lat="37.4877767" lon="-0.5749079"><ele>0.0</ele><time>2026-04-29T14:09:22.172Z</time></trkpt><trkpt lat="37.4878266" lon="-0.5748064"><ele>0.0</ele><time>2026-04-29T14:09:23.094Z</time></trkpt><trkpt lat="37.4878898" lon="-0.5747229"><ele>0.0</ele><time>2026-04-29T14:09:24.094Z</time></trkpt><trkpt lat="37.4879637" lon="-0.5746531"><ele>0.0</ele><time>2026-04-29T14:09:25.094Z</time></trkpt><trkpt lat="37.4880372" lon="-0.574582"><ele>0.0</ele><time>2026-04-29T14:09:26.094Z</time></trkpt><trkpt lat="37.4881126" lon="-0.5745169"><ele>0.0</ele><time>2026-04-29T14:09:27.1Z</time></trkpt><trkpt lat="37.4882591" lon="-0.5743007"><ele>0.0</ele><time>2026-04-29T14:09:30.116Z</time></trkpt><trkpt lat="37.4883379" lon="-0.5742292"><ele>0.0</ele><time>2026-04-29T14:09:31.122Z</time></trkpt><trkpt lat="37.4884185" lon="-0.5741638"><ele>0.0</ele><time>2026-04-29T14:09:32.127Z</time></trkpt><trkpt lat="37.4884974" lon="-0.574094"><ele>0.0</ele><time>2026-04-29T14:09:33.133Z</time></trkpt><trkpt lat="37.4885655" lon="-0.574006"><ele>0.0</ele><time>2026-04-29T14:09:34.138Z</time></trkpt><trkpt lat="37.4886363" lon="-0.5739244"><ele>0.0</ele><time>2026-04-29T14:09:35.145Z</time></trkpt><trkpt lat="37.4887167" lon="-0.5738019"><ele>0.0</ele><time>2026-04-29T14:09:37.155Z</time></trkpt><trkpt lat="37.4888236" lon="-0.5737146"><ele>0.0</ele><time>2026-04-29T14:09:38.161Z</time></trkpt><trkpt lat="37.4889056" lon="-0.5736369"><ele>0.0</ele><time>2026-04-29T14:09:39.167Z</time></trkpt><trkpt lat="37.4889721" lon="-0.5735481"><ele>0.0</ele><time>2026-04-29T14:09:40.173Z</time></trkpt><trkpt lat="37.4890421" lon="-0.5734779"><ele>0.0</ele><time>2026-04-29T14:09:41.094Z</time></trkpt><trkpt lat="37.4891216" lon="-0.5734004"><ele>0.0</ele><time>2026-04-29T14:09:42.094Z</time></trkpt><trkpt lat="37.4892447" lon="-0.5732996"><ele>0.0</ele><time>2026-04-29T14:09:44.094Z</time></trkpt><trkpt lat="37.4893254" lon="-0.5732486"><ele>0.0</ele><time>2026-04-29T14:09:45.099Z</time></trkpt><trkpt lat="37.4894466" lon="-0.573161"><ele>0.0</ele><time>2026-04-29T14:09:47.094Z</time></trkpt><trkpt lat="37.4895204" lon="-0.5730913"><ele>0.0</ele><time>2026-04-29T14:09:48.094Z</time></trkpt><trkpt lat="37.4896452" lon="-0.5729481"><ele>0.0</ele><time>2026-04-29T14:09:50.095Z</time></trkpt><trkpt lat="37.4897132" lon="-0.5728826"><ele>0.0</ele><time>2026-04-29T14:09:51.094Z</time></trkpt><trkpt lat="37.4897831" lon="-0.5728065"><ele>0.0</ele><time>2026-04-29T14:09:52.095Z</time></trkpt><trkpt lat="37.4898548" lon="-0.5727282"><ele>0.0</ele><time>2026-04-29T14:09:53.094Z</time></trkpt><trkpt lat="37.4899221" lon="-0.5726465"><ele>0.0</ele><time>2026-04-29T14:09:54.095Z</time></trkpt><trkpt lat="37.4899815" lon="-0.5725721"><ele>0.0</ele><time>2026-04-29T14:09:55.094Z</time></trkpt><trkpt lat="37.4900468" lon="-0.5725"><ele>0.0</ele><time>2026-04-29T14:09:56.095Z</time></trkpt><trkpt lat="37.4901147" lon="-0.5724169"><ele>0.0</ele><time>2026-04-29T14:09:57.095Z</time></trkpt><trkpt lat="37.49018" lon="-0.572315"><ele>0.0</ele><time>2026-04-29T14:09:58.095Z</time></trkpt><trkpt lat="37.4902394" lon="-0.5722331"><ele>0.0</ele><time>2026-04-29T14:09:59.095Z</time></trkpt><trkpt lat="37.4903095" lon="-0.5721532"><ele>0.0</ele><time>2026-04-29T14:10:00.095Z</time></trkpt><trkpt lat="37.490388" lon="-0.5720629"><ele>0.0</ele><time>2026-04-29T14:10:01.094Z</time></trkpt><trkpt lat="37.4904541" lon="-0.5719784"><ele>0.0</ele><time>2026-04-29T14:10:02.095Z</time></trkpt><trkpt lat="37.4905215" lon="-0.5718938"><ele>0.0</ele><time>2026-04-29T14:10:03.095Z</time></trkpt><trkpt lat="37.4905923" lon="-0.5718144"><ele>0.0</ele><time>2026-04-29T14:10:04.094Z</time></trkpt><trkpt lat="37.4906599" lon="-0.5717387"><ele>0.0</ele><time>2026-04-29T14:10:05.094Z</time></trkpt><trkpt lat="37.4907283" lon="-0.5716627"><ele>0.0</ele><time>2026-04-29T14:10:06.094Z</time></trkpt><trkpt lat="37.4908506" lon="-0.5715794"><ele>0.0</ele><time>2026-04-29T14:10:09.165Z</time></trkpt><trkpt lat="37.4910528" lon="-0.5713783"><ele>0.0</ele><time>2026-04-29T14:10:11.176Z</time></trkpt><trkpt lat="37.4911367" lon="-0.5712816"><ele>0.0</ele><time>2026-04-29T14:10:12.094Z</time></trkpt><trkpt lat="37.4912175" lon="-0.5712035"><ele>0.0</ele><time>2026-04-29T14:10:13.094Z</time></trkpt><trkpt lat="37.4912963" lon="-0.5711272"><ele>0.0</ele><time>2026-04-29T14:10:14.094Z</time></trkpt><trkpt lat="37.4913704" lon="-0.5710562"><ele>0.0</ele><time>2026-04-29T14:10:15.098Z</time></trkpt><trkpt lat="37.491452" lon="-0.5709875"><ele>0.0</ele><time>2026-04-29T14:10:16.102Z</time></trkpt><trkpt lat="37.4915269" lon="-0.5709081"><ele>0.0</ele><time>2026-04-29T14:10:17.108Z</time></trkpt><trkpt lat="37.4915957" lon="-0.5708098"><ele>0.0</ele><time>2026-04-29T14:10:18.114Z</time></trkpt><trkpt lat="37.491667" lon="-0.570721"><ele>0.0</ele><time>2026-04-29T14:10:19.12Z</time></trkpt><trkpt lat="37.4917464" lon="-0.5706536"><ele>0.0</ele><time>2026-04-29T14:10:20.126Z</time></trkpt><trkpt lat="37.4918159" lon="-0.5705469"><ele>0.0</ele><time>2026-04-29T14:10:22.137Z</time></trkpt><trkpt lat="37.4919099" lon="-0.5704691"><ele>0.0</ele><time>2026-04-29T14:10:23.141Z</time></trkpt><trkpt lat="37.491987" lon="-0.570404"><ele>0.0</ele><time>2026-04-29T14:10:24.148Z</time></trkpt><trkpt lat="37.4920648" lon="-0.5703306"><ele>0.0</ele><time>2026-04-29T14:10:25.154Z</time></trkpt><trkpt lat="37.4921397" lon="-0.5702443"><ele>0.0</ele><time>2026-04-29T14:10:26.158Z</time></trkpt><trkpt lat="37.492217" lon="-0.5701623"><ele>0.0</ele><time>2026-04-29T14:10:27.164Z</time></trkpt><trkpt lat="37.4922878" lon="-0.570092"><ele>0.0</ele><time>2026-04-29T14:10:28.095Z</time></trkpt><trkpt lat="37.4923524" lon="-0.5700221"><ele>0.0</ele><time>2026-04-29T14:10:30.094Z</time></trkpt><trkpt lat="37.4925169" lon="-0.5698642"><ele>0.0</ele><time>2026-04-29T14:10:32.094Z</time></trkpt><trkpt lat="37.4925906" lon="-0.5697883"><ele>0.0</ele><time>2026-04-29T14:10:33.098Z</time></trkpt><trkpt lat="37.4926691" lon="-0.5697063"><ele>0.0</ele><time>2026-04-29T14:10:34.102Z</time></trkpt><trkpt lat="37.4927457" lon="-0.5696208"><ele>0.0</ele><time>2026-04-29T14:10:35.109Z</time></trkpt><trkpt lat="37.492822" lon="-0.5695452"><ele>0.0</ele><time>2026-04-29T14:10:36.114Z</time></trkpt><trkpt lat="37.4929032" lon="-0.569468"><ele>0.0</ele><time>2026-04-29T14:10:37.119Z</time></trkpt><trkpt lat="37.4929859" lon="-0.5694006"><ele>0.0</ele><time>2026-04-29T14:10:38.124Z</time></trkpt><trkpt lat="37.4931028" lon="-0.5692503"><ele>0.0</ele><time>2026-04-29T14:10:41.141Z</time></trkpt><trkpt lat="37.4931902" lon="-0.5691683"><ele>0.0</ele><time>2026-04-29T14:10:42.148Z</time></trkpt><trkpt lat="37.4932751" lon="-0.5691014"><ele>0.0</ele><time>2026-04-29T14:10:43.094Z</time></trkpt><trkpt lat="37.4933476" lon="-0.5690259"><ele>0.0</ele><time>2026-04-29T14:10:44.094Z</time></trkpt><trkpt lat="37.4934165" lon="-0.5689464"><ele>0.0</ele><time>2026-04-29T14:10:45.094Z</time></trkpt><trkpt lat="37.4934851" lon="-0.5688677"><ele>0.0</ele><time>2026-04-29T14:10:46.094Z</time></trkpt><trkpt lat="37.4935608" lon="-0.5687969"><ele>0.0</ele><time>2026-04-29T14:10:47.094Z</time></trkpt><trkpt lat="37.4936302" lon="-0.5687342"><ele>0.0</ele><time>2026-04-29T14:10:48.095Z</time></trkpt><trkpt lat="37.4937073" lon="-0.5686683"><ele>0.0</ele><time>2026-04-29T14:10:49.095Z</time></trkpt><trkpt lat="37.4937716" lon="-0.5685972"><ele>0.0</ele><time>2026-04-29T14:10:50.095Z</time></trkpt><trkpt lat="37.4938403" lon="-0.5685294"><ele>0.0</ele><time>2026-04-29T14:10:51.094Z</time></trkpt><trkpt lat="37.4939773" lon="-0.5683679"><ele>0.0</ele><time>2026-04-29T14:10:53.095Z</time></trkpt><trkpt lat="37.4940391" lon="-0.5682847"><ele>0.0</ele><time>2026-04-29T14:10:54.095Z</time></trkpt><trkpt lat="37.4941051" lon="-0.5682"><ele>0.0</ele><time>2026-04-29T14:10:55.094Z</time></trkpt><trkpt lat="37.4941745" lon="-0.568125"><ele>0.0</ele><time>2026-04-29T14:10:56.095Z</time></trkpt><trkpt lat="37.4942401" lon="-0.5680472"><ele>0.0</ele><time>2026-04-29T14:10:57.094Z</time></trkpt><trkpt lat="37.4943095" lon="-0.5679721"><ele>0.0</ele><time>2026-04-29T14:10:58.095Z</time></trkpt><trkpt lat="37.4943742" lon="-0.567894"><ele>0.0</ele><time>2026-04-29T14:10:59.095Z</time></trkpt><trkpt lat="37.4944432" lon="-0.5678174"><ele>0.0</ele><time>2026-04-29T14:11:00.094Z</time></trkpt><trkpt lat="37.4945164" lon="-0.5677392"><ele>0.0</ele><time>2026-04-29T14:11:01.094Z</time></trkpt><trkpt lat="37.4945798" lon="-0.567658"><ele>0.0</ele><time>2026-04-29T14:11:02.095Z</time></trkpt><trkpt lat="37.4946468" lon="-0.5675798"><ele>0.0</ele><time>2026-04-29T14:11:03.094Z</time></trkpt><trkpt lat="37.4947205" lon="-0.567506"><ele>0.0</ele><time>2026-04-29T14:11:04.095Z</time></trkpt><trkpt lat="37.4947888" lon="-0.5674404"><ele>0.0</ele><time>2026-04-29T14:11:05.094Z</time></trkpt><trkpt lat="37.4948552" lon="-0.5673784"><ele>0.0</ele><time>2026-04-29T14:11:06.094Z</time></trkpt><trkpt lat="37.4949163" lon="-0.5673221"><ele>0.0</ele><time>2026-04-29T14:11:07.095Z</time></trkpt><trkpt lat="37.4949875" lon="-0.5672619"><ele>0.0</ele><time>2026-04-29T14:11:08.095Z</time></trkpt><trkpt lat="37.4950572" lon="-0.5671933"><ele>0.0</ele><time>2026-04-29T14:11:09.095Z</time></trkpt><trkpt lat="37.4951211" lon="-0.5671235"><ele>0.0</ele><time>2026-04-29T14:11:10.094Z</time></trkpt><trkpt lat="37.4951815" lon="-0.5670604"><ele>0.0</ele><time>2026-04-29T14:11:11.095Z</time></trkpt><trkpt lat="37.4952431" lon="-0.5669902"><ele>0.0</ele><time>2026-04-29T14:11:12.094Z</time></trkpt><trkpt lat="37.4953688" lon="-0.5668583"><ele>0.0</ele><time>2026-04-29T14:11:14.094Z</time></trkpt><trkpt lat="37.4954365" lon="-0.5667957"><ele>0.0</ele><time>2026-04-29T14:11:15.094Z</time></trkpt><trkpt lat="37.4955022" lon="-0.5667322"><ele>0.0</ele><time>2026-04-29T14:11:16.095Z</time></trkpt><trkpt lat="37.4955633" lon="-0.5666632"><ele>0.0</ele><time>2026-04-29T14:11:17.095Z</time></trkpt><trkpt lat="37.4956258" lon="-0.5665943"><ele>0.0</ele><time>2026-04-29T14:11:18.094Z</time></trkpt><trkpt lat="37.4956845" lon="-0.5665247"><ele>0.0</ele><time>2026-04-29T14:11:19.094Z</time></trkpt><trkpt lat="37.4957415" lon="-0.5664438"><ele>0.0</ele><time>2026-04-29T14:11:20.094Z</time></trkpt><trkpt lat="37.4958067" lon="-0.5663689"><ele>0.0</ele><time>2026-04-29T14:11:21.095Z</time></trkpt><trkpt lat="37.4958732" lon="-0.5662867"><ele>0.0</ele><time>2026-04-29T14:11:22.094Z</time></trkpt><trkpt lat="37.495944" lon="-0.5662005"><ele>0.0</ele><time>2026-04-29T14:11:23.094Z</time></trkpt><trkpt lat="37.496013" lon="-0.5661178"><ele>0.0</ele><time>2026-04-29T14:11:24.094Z</time></trkpt><trkpt lat="37.4960758" lon="-0.5660349"><ele>0.0</ele><time>2026-04-29T14:11:25.094Z</time></trkpt><trkpt lat="37.4961403" lon="-0.56595"><ele>0.0</ele><time>2026-04-29T14:11:26.094Z</time></trkpt><trkpt lat="37.4962065" lon="-0.5658748"><ele>0.0</ele><time>2026-04-29T14:11:27.094Z</time></trkpt><trkpt lat="37.496272" lon="-0.5658015"><ele>0.0</ele><time>2026-04-29T14:11:28.095Z</time></trkpt><trkpt lat="37.4963353" lon="-0.5657268"><ele>0.0</ele><time>2026-04-29T14:11:29.095Z</time></trkpt><trkpt lat="37.4963956" lon="-0.5656419"><ele>0.0</ele><time>2026-04-29T14:11:30.094Z</time></trkpt><trkpt lat="37.4964569" lon="-0.5655651"><ele>0.0</ele><time>2026-04-29T14:11:31.095Z</time></trkpt><trkpt lat="37.4965272" lon="-0.5654971"><ele>0.0</ele><time>2026-04-29T14:11:32.095Z</time></trkpt><trkpt lat="37.496592" lon="-0.5654266"><ele>0.0</ele><time>2026-04-29T14:11:33.095Z</time></trkpt><trkpt lat="37.496793" lon="-0.5652344"><ele>0.0</ele><time>2026-04-29T14:11:36.094Z</time></trkpt><trkpt lat="37.4968601" lon="-0.5651623"><ele>0.0</ele><time>2026-04-29T14:11:37.095Z</time></trkpt><trkpt lat="37.4969264" lon="-0.5650949"><ele>0.0</ele><time>2026-04-29T14:11:38.094Z</time></trkpt><trkpt lat="37.496996" lon="-0.565018"><ele>0.0</ele><time>2026-04-29T14:11:39.095Z</time></trkpt><trkpt lat="37.4970618" lon="-0.5649323"><ele>0.0</ele><time>2026-04-29T14:11:40.095Z</time></trkpt><trkpt lat="37.4971353" lon="-0.5648455"><ele>0.0</ele><time>2026-04-29T14:11:41.094Z</time></trkpt><trkpt lat="37.4972117" lon="-0.5647519"><ele>0.0</ele><time>2026-04-29T14:11:42.095Z</time></trkpt><trkpt lat="37.4972843" lon="-0.5646771"><ele>0.0</ele><time>2026-04-29T14:11:43.095Z</time></trkpt><trkpt lat="37.497346" lon="-0.564603"><ele>0.0</ele><time>2026-04-29T14:11:44.095Z</time></trkpt><trkpt lat="37.4974186" lon="-0.564538"><ele>0.0</ele><time>2026-04-29T14:11:45.094Z</time></trkpt><trkpt lat="37.4975022" lon="-0.5644719"><ele>0.0</ele><time>2026-04-29T14:11:46.094Z</time></trkpt><trkpt lat="37.4975744" lon="-0.5644044"><ele>0.0</ele><time>2026-04-29T14:11:47.095Z</time></trkpt><trkpt lat="37.4976443" lon="-0.5643292"><ele>0.0</ele><time>2026-04-29T14:11:48.094Z</time></trkpt><trkpt lat="37.4977199" lon="-0.5642555"><ele>0.0</ele><time>2026-04-29T14:11:49.095Z</time></trkpt><trkpt lat="37.4977883" lon="-0.5641797"><ele>0.0</ele><time>2026-04-29T14:11:50.095Z</time></trkpt><trkpt lat="37.497862" lon="-0.5641118"><ele>0.0</ele><time>2026-04-29T14:11:51.094Z</time></trkpt><trkpt lat="37.4979318" lon="-0.5640407"><ele>0.0</ele><time>2026-04-29T14:11:52.094Z</time></trkpt><trkpt lat="37.4979987" lon="-0.5639701"><ele>0.0</ele><time>2026-04-29T14:11:53.094Z</time></trkpt><trkpt lat="37.4980694" lon="-0.5638984"><ele>0.0</ele><time>2026-04-29T14:11:54.095Z</time></trkpt><trkpt lat="37.4982128" lon="-0.5637607"><ele>0.0</ele><time>2026-04-29T14:11:56.094Z</time></trkpt><trkpt lat="37.4982903" lon="-0.5636928"><ele>0.0</ele><time>2026-04-29T14:11:57.095Z</time></trkpt><trkpt lat="37.4983631" lon="-0.5636188"><ele>0.0</ele><time>2026-04-29T14:11:58.095Z</time></trkpt><trkpt lat="37.4984359" lon="-0.5635552"><ele>0.0</ele><time>2026-04-29T14:11:59.095Z</time></trkpt><trkpt lat="37.4985105" lon="-0.5635049"><ele>0.0</ele><time>2026-04-29T14:12:00.094Z</time></trkpt><trkpt lat="37.4985867" lon="-0.5634398"><ele>0.0</ele><time>2026-04-29T14:12:01.095Z</time></trkpt><trkpt lat="37.4986551" lon="-0.5633746"><ele>0.0</ele><time>2026-04-29T14:12:02.094Z</time></trkpt><trkpt lat="37.4987254" lon="-0.5633168"><ele>0.0</ele><time>2026-04-29T14:12:03.094Z</time></trkpt><trkpt lat="37.4987951" lon="-0.5632433"><ele>0.0</ele><time>2026-04-29T14:12:04.094Z</time></trkpt><trkpt lat="37.498869" lon="-0.5631709"><ele>0.0</ele><time>2026-04-29T14:12:05.095Z</time></trkpt><trkpt lat="37.4989367" lon="-0.5631073"><ele>0.0</ele><time>2026-04-29T14:12:06.094Z</time></trkpt><trkpt lat="37.4989976" lon="-0.5630358"><ele>0.0</ele><time>2026-04-29T14:12:07.094Z</time></trkpt><trkpt lat="37.4990591" lon="-0.5629569"><ele>0.0</ele><time>2026-04-29T14:12:08.094Z</time></trkpt><trkpt lat="37.4991138" lon="-0.5628948"><ele>0.0</ele><time>2026-04-29T14:12:09.094Z</time></trkpt><trkpt lat="37.4991815" lon="-0.5628353"><ele>0.0</ele><time>2026-04-29T14:12:10.093Z</time></trkpt><trkpt lat="37.4992486" lon="-0.5627897"><ele>0.0</ele><time>2026-04-29T14:12:11.093Z</time></trkpt><trkpt lat="37.4993195" lon="-0.5627389"><ele>0.0</ele><time>2026-04-29T14:12:12.094Z</time></trkpt><trkpt lat="37.4993811" lon="-0.5626806"><ele>0.0</ele><time>2026-04-29T14:12:13.093Z</time></trkpt><trkpt lat="37.49945" lon="-0.5626099"><ele>0.0</ele><time>2026-04-29T14:12:14.093Z</time></trkpt><trkpt lat="37.4995169" lon="-0.5625278"><ele>0.0</ele><time>2026-04-29T14:12:15.093Z</time></trkpt><trkpt lat="37.4996506" lon="-0.5623909"><ele>0.0</ele><time>2026-04-29T14:12:17.093Z</time></trkpt><trkpt lat="37.4997199" lon="-0.5623236"><ele>0.0</ele><time>2026-04-29T14:12:18.093Z</time></trkpt><trkpt lat="37.499788" lon="-0.5622534"><ele>0.0</ele><time>2026-04-29T14:12:19.093Z</time></trkpt><trkpt lat="37.4998496" lon="-0.562178"><ele>0.0</ele><time>2026-04-29T14:12:20.093Z</time></trkpt><trkpt lat="37.4999085" lon="-0.5621125"><ele>0.0</ele><time>2026-04-29T14:12:21.093Z</time></trkpt><trkpt lat="37.4999824" lon="-0.5620549"><ele>0.0</ele><time>2026-04-29T14:12:22.094Z</time></trkpt><trkpt lat="37.5000532" lon="-0.5619858"><ele>0.0</ele><time>2026-04-29T14:12:23.094Z</time></trkpt><trkpt lat="37.5001246" lon="-0.5619098"><ele>0.0</ele><time>2026-04-29T14:12:24.094Z</time></trkpt><trkpt lat="37.5001807" lon="-0.5618345"><ele>0.0</ele><time>2026-04-29T14:12:25.094Z</time></trkpt><trkpt lat="37.5002391" lon="-0.5617467"><ele>0.0</ele><time>2026-04-29T14:12:26.093Z</time></trkpt><trkpt lat="37.5003021" lon="-0.5616679"><ele>0.0</ele><time>2026-04-29T14:12:27.094Z</time></trkpt><trkpt lat="37.500368" lon="-0.5615919"><ele>0.0</ele><time>2026-04-29T14:12:28.094Z</time></trkpt><trkpt lat="37.5004292" lon="-0.5615256"><ele>0.0</ele><time>2026-04-29T14:12:29.094Z</time></trkpt><trkpt lat="37.5005009" lon="-0.5614525"><ele>0.0</ele><time>2026-04-29T14:12:30.094Z</time></trkpt><trkpt lat="37.5005683" lon="-0.5613691"><ele>0.0</ele><time>2026-04-29T14:12:31.094Z</time></trkpt><trkpt lat="37.5006308" lon="-0.5612782"><ele>0.0</ele><time>2026-04-29T14:12:32.093Z</time></trkpt><trkpt lat="37.5006901" lon="-0.5611897"><ele>0.0</ele><time>2026-04-29T14:12:33.094Z</time></trkpt><trkpt lat="37.5007551" lon="-0.5611081"><ele>0.0</ele><time>2026-04-29T14:12:34.093Z</time></trkpt><trkpt lat="37.5008201" lon="-0.5610333"><ele>0.0</ele><time>2026-04-29T14:12:35.093Z</time></trkpt><trkpt lat="37.500881" lon="-0.5609275"><ele>0.0</ele><time>2026-04-29T14:12:36.094Z</time></trkpt><trkpt lat="37.5010198" lon="-0.5607746"><ele>0.0</ele><time>2026-04-29T14:12:38.093Z</time></trkpt><trkpt lat="37.5010869" lon="-0.5607003"><ele>0.0</ele><time>2026-04-29T14:12:39.094Z</time></trkpt><trkpt lat="37.5011558" lon="-0.5606251"><ele>0.0</ele><time>2026-04-29T14:12:40.094Z</time></trkpt><trkpt lat="37.5012218" lon="-0.5605461"><ele>0.0</ele><time>2026-04-29T14:12:41.094Z</time></trkpt><trkpt lat="37.5012883" lon="-0.5604662"><ele>0.0</ele><time>2026-04-29T14:12:42.093Z</time></trkpt><trkpt lat="37.5013563" lon="-0.5603846"><ele>0.0</ele><time>2026-04-29T14:12:43.094Z</time></trkpt><trkpt lat="37.501423" lon="-0.5603182"><ele>0.0</ele><time>2026-04-29T14:12:44.093Z</time></trkpt><trkpt lat="37.5014907" lon="-0.5602493"><ele>0.0</ele><time>2026-04-29T14:12:45.094Z</time></trkpt><trkpt lat="37.5015622" lon="-0.5601877"><ele>0.0</ele><time>2026-04-29T14:12:46.094Z</time></trkpt><trkpt lat="37.5016325" lon="-0.560119"><ele>0.0</ele><time>2026-04-29T14:12:47.093Z</time></trkpt><trkpt lat="37.5016995" lon="-0.5600548"><ele>0.0</ele><time>2026-04-29T14:12:48.093Z</time></trkpt><trkpt lat="37.5017693" lon="-0.5599931"><ele>0.0</ele><time>2026-04-29T14:12:49.094Z</time></trkpt><trkpt lat="37.5018409" lon="-0.5599331"><ele>0.0</ele><time>2026-04-29T14:12:50.094Z</time></trkpt><trkpt lat="37.5019084" lon="-0.5598648"><ele>0.0</ele><time>2026-04-29T14:12:51.094Z</time></trkpt><trkpt lat="37.5019783" lon="-0.5598025"><ele>0.0</ele><time>2026-04-29T14:12:52.094Z</time></trkpt><trkpt lat="37.5020441" lon="-0.5597337"><ele>0.0</ele><time>2026-04-29T14:12:53.094Z</time></trkpt><trkpt lat="37.5021132" lon="-0.5596649"><ele>0.0</ele><time>2026-04-29T14:12:54.093Z</time></trkpt><trkpt lat="37.5021908" lon="-0.5596025"><ele>0.0</ele><time>2026-04-29T14:12:55.093Z</time></trkpt><trkpt lat="37.5022602" lon="-0.5595432"><ele>0.0</ele><time>2026-04-29T14:12:56.093Z</time></trkpt><trkpt lat="37.5023256" lon="-0.5594768"><ele>0.0</ele><time>2026-04-29T14:12:57.093Z</time></trkpt><trkpt lat="37.5024502" lon="-0.5593128"><ele>0.0</ele><time>2026-04-29T14:12:59.093Z</time></trkpt><trkpt lat="37.5025205" lon="-0.559237"><ele>0.0</ele><time>2026-04-29T14:13:00.094Z</time></trkpt><trkpt lat="37.5025939" lon="-0.5591594"><ele>0.0</ele><time>2026-04-29T14:13:01.093Z</time></trkpt><trkpt lat="37.5026605" lon="-0.5590883"><ele>0.0</ele><time>2026-04-29T14:13:02.094Z</time></trkpt><trkpt lat="37.5027286" lon="-0.5590265"><ele>0.0</ele><time>2026-04-29T14:13:03.093Z</time></trkpt><trkpt lat="37.5027981" lon="-0.5589549"><ele>0.0</ele><time>2026-04-29T14:13:04.093Z</time></trkpt><trkpt lat="37.5028708" lon="-0.5588876"><ele>0.0</ele><time>2026-04-29T14:13:05.093Z</time></trkpt><trkpt lat="37.5029389" lon="-0.5588142"><ele>0.0</ele><time>2026-04-29T14:13:06.093Z</time></trkpt><trkpt lat="37.5030012" lon="-0.5587264"><ele>0.0</ele><time>2026-04-29T14:13:07.093Z</time></trkpt><trkpt lat="37.5030671" lon="-0.558634"><ele>0.0</ele><time>2026-04-29T14:13:08.094Z</time></trkpt><trkpt lat="37.5031308" lon="-0.5585444"><ele>0.0</ele><time>2026-04-29T14:13:09.094Z</time></trkpt><trkpt lat="37.5031942" lon="-0.5584586"><ele>0.0</ele><time>2026-04-29T14:13:10.093Z</time></trkpt><trkpt lat="37.5032616" lon="-0.558372"><ele>0.0</ele><time>2026-04-29T14:13:11.094Z</time></trkpt><trkpt lat="37.5033284" lon="-0.5582927"><ele>0.0</ele><time>2026-04-29T14:13:12.094Z</time></trkpt><trkpt lat="37.5033982" lon="-0.5582242"><ele>0.0</ele><time>2026-04-29T14:13:13.093Z</time></trkpt><trkpt lat="37.5034608" lon="-0.5581529"><ele>0.0</ele><time>2026-04-29T14:13:14.093Z</time></trkpt><trkpt lat="37.5035279" lon="-0.5580912"><ele>0.0</ele><time>2026-04-29T14:13:15.094Z</time></trkpt><trkpt lat="37.5035988" lon="-0.558029"><ele>0.0</ele><time>2026-04-29T14:13:16.093Z</time></trkpt><trkpt lat="37.5036624" lon="-0.5579546"><ele>0.0</ele><time>2026-04-29T14:13:17.093Z</time></trkpt><trkpt lat="37.5037313" lon="-0.557885"><ele>0.0</ele><time>2026-04-29T14:13:18.093Z</time></trkpt><trkpt lat="37.5038708" lon="-0.5577524"><ele>0.0</ele><time>2026-04-29T14:13:20.093Z</time></trkpt><trkpt lat="37.5039429" lon="-0.5576862"><ele>0.0</ele><time>2026-04-29T14:13:21.094Z</time></trkpt><trkpt lat="37.5040105" lon="-0.5576128"><ele>0.0</ele><time>2026-04-29T14:13:22.093Z</time></trkpt><trkpt lat="37.5040753" lon="-0.5575347"><ele>0.0</ele><time>2026-04-29T14:13:23.094Z</time></trkpt><trkpt lat="37.5041497" lon="-0.5574648"><ele>0.0</ele><time>2026-04-29T14:13:24.093Z</time></trkpt><trkpt lat="37.5042258" lon="-0.5573925"><ele>0.0</ele><time>2026-04-29T14:13:25.094Z</time></trkpt><trkpt lat="37.5043034" lon="-0.5573218"><ele>0.0</ele><time>2026-04-29T14:13:26.094Z</time></trkpt><trkpt lat="37.5043764" lon="-0.5572583"><ele>0.0</ele><time>2026-04-29T14:13:27.093Z</time></trkpt><trkpt lat="37.5044496" lon="-0.5571921"><ele>0.0</ele><time>2026-04-29T14:13:28.093Z</time></trkpt><trkpt lat="37.504511" lon="-0.5571213"><ele>0.0</ele><time>2026-04-29T14:13:29.093Z</time></trkpt><trkpt lat="37.5045743" lon="-0.5570555"><ele>0.0</ele><time>2026-04-29T14:13:30.094Z</time></trkpt><trkpt lat="37.5046374" lon="-0.5569838"><ele>0.0</ele><time>2026-04-29T14:13:31.094Z</time></trkpt><trkpt lat="37.5047035" lon="-0.5569104"><ele>0.0</ele><time>2026-04-29T14:13:32.093Z</time></trkpt><trkpt lat="37.5047756" lon="-0.5568383"><ele>0.0</ele><time>2026-04-29T14:13:33.093Z</time></trkpt><trkpt lat="37.5048248" lon="-0.5567545"><ele>0.0</ele><time>2026-04-29T14:13:34.094Z</time></trkpt><trkpt lat="37.5048902" lon="-0.5566753"><ele>0.0</ele><time>2026-04-29T14:13:35.094Z</time></trkpt><trkpt lat="37.5049615" lon="-0.5566105"><ele>0.0</ele><time>2026-04-29T14:13:36.093Z</time></trkpt><trkpt lat="37.50503" lon="-0.5565464"><ele>0.0</ele><time>2026-04-29T14:13:37.094Z</time></trkpt><trkpt lat="37.505091" lon="-0.5564883"><ele>0.0</ele><time>2026-04-29T14:13:38.093Z</time></trkpt><trkpt lat="37.5051536" lon="-0.5564098"><ele>0.0</ele><time>2026-04-29T14:13:39.094Z</time></trkpt><trkpt lat="37.5052876" lon="-0.5562493"><ele>0.0</ele><time>2026-04-29T14:13:41.094Z</time></trkpt><trkpt lat="37.5053603" lon="-0.5561855"><ele>0.0</ele><time>2026-04-29T14:13:42.093Z</time></trkpt><trkpt lat="37.5054282" lon="-0.5561106"><ele>0.0</ele><time>2026-04-29T14:13:43.093Z</time></trkpt><trkpt lat="37.5054993" lon="-0.5560403"><ele>0.0</ele><time>2026-04-29T14:13:44.093Z</time></trkpt><trkpt lat="37.5055683" lon="-0.5559616"><ele>0.0</ele><time>2026-04-29T14:13:45.094Z</time></trkpt><trkpt lat="37.5056309" lon="-0.555895"><ele>0.0</ele><time>2026-04-29T14:13:46.093Z</time></trkpt><trkpt lat="37.5056884" lon="-0.5558196"><ele>0.0</ele><time>2026-04-29T14:13:47.093Z</time></trkpt><trkpt lat="37.5057538" lon="-0.5557412"><ele>0.0</ele><time>2026-04-29T14:13:48.094Z</time></trkpt><trkpt lat="37.5058162" lon="-0.5556545"><ele>0.0</ele><time>2026-04-29T14:13:49.093Z</time></trkpt><trkpt lat="37.5058867" lon="-0.5555818"><ele>0.0</ele><time>2026-04-29T14:13:50.093Z</time></trkpt><trkpt lat="37.5059557" lon="-0.55551"><ele>0.0</ele><time>2026-04-29T14:13:51.094Z</time></trkpt><trkpt lat="37.5060195" lon="-0.5554386"><ele>0.0</ele><time>2026-04-29T14:13:52.094Z</time></trkpt><trkpt lat="37.5060857" lon="-0.5553713"><ele>0.0</ele><time>2026-04-29T14:13:53.094Z</time></trkpt><trkpt lat="37.5061563" lon="-0.5553034"><ele>0.0</ele><time>2026-04-29T14:13:54.093Z</time></trkpt><trkpt lat="37.506231" lon="-0.5552323"><ele>0.0</ele><time>2026-04-29T14:13:55.094Z</time></trkpt><trkpt lat="37.5063043" lon="-0.5551588"><ele>0.0</ele><time>2026-04-29T14:13:56.093Z</time></trkpt><trkpt lat="37.5063704" lon="-0.5550802"><ele>0.0</ele><time>2026-04-29T14:13:57.093Z</time></trkpt><trkpt lat="37.5064347" lon="-0.555004"><ele>0.0</ele><time>2026-04-29T14:13:58.093Z</time></trkpt><trkpt lat="37.5064999" lon="-0.5549304"><ele>0.0</ele><time>2026-04-29T14:13:59.093Z</time></trkpt><trkpt lat="37.5065533" lon="-0.5548355"><ele>0.0</ele><time>2026-04-29T14:14:00.093Z</time></trkpt><trkpt lat="37.5066857" lon="-0.5546751"><ele>0.0</ele><time>2026-04-29T14:14:02.094Z</time></trkpt><trkpt lat="37.5067545" lon="-0.5546093"><ele>0.0</ele><time>2026-04-29T14:14:03.094Z</time></trkpt><trkpt lat="37.5068271" lon="-0.5545385"><ele>0.0</ele><time>2026-04-29T14:14:04.094Z</time></trkpt><trkpt lat="37.5068993" lon="-0.5544716"><ele>0.0</ele><time>2026-04-29T14:14:05.093Z</time></trkpt><trkpt lat="37.5069723" lon="-0.5544032"><ele>0.0</ele><time>2026-04-29T14:14:06.094Z</time></trkpt><trkpt lat="37.5070431" lon="-0.5543392"><ele>0.0</ele><time>2026-04-29T14:14:07.094Z</time></trkpt><trkpt lat="37.507112" lon="-0.5542745"><ele>0.0</ele><time>2026-04-29T14:14:08.093Z</time></trkpt><trkpt lat="37.5071846" lon="-0.5542108"><ele>0.0</ele><time>2026-04-29T14:14:09.093Z</time></trkpt><trkpt lat="37.507248" lon="-0.5541433"><ele>0.0</ele><time>2026-04-29T14:14:10.094Z</time></trkpt><trkpt lat="37.5073198" lon="-0.5540809"><ele>0.0</ele><time>2026-04-29T14:14:11.093Z</time></trkpt><trkpt lat="37.5073886" lon="-0.5540163"><ele>0.0</ele><time>2026-04-29T14:14:12.093Z</time></trkpt><trkpt lat="37.5074567" lon="-0.5539527"><ele>0.0</ele><time>2026-04-29T14:14:13.093Z</time></trkpt><trkpt lat="37.5075276" lon="-0.5538835"><ele>0.0</ele><time>2026-04-29T14:14:14.093Z</time></trkpt><trkpt lat="37.5075967" lon="-0.5538204"><ele>0.0</ele><time>2026-04-29T14:14:15.094Z</time></trkpt><trkpt lat="37.5076648" lon="-0.5537531"><ele>0.0</ele><time>2026-04-29T14:14:16.093Z</time></trkpt><trkpt lat="37.5077376" lon="-0.553685"><ele>0.0</ele><time>2026-04-29T14:14:17.094Z</time></trkpt><trkpt lat="37.5078078" lon="-0.553618"><ele>0.0</ele><time>2026-04-29T14:14:18.093Z</time></trkpt><trkpt lat="37.5078708" lon="-0.5535456"><ele>0.0</ele><time>2026-04-29T14:14:19.093Z</time></trkpt><trkpt lat="37.5079335" lon="-0.5534719"><ele>0.0</ele><time>2026-04-29T14:14:20.093Z</time></trkpt><trkpt lat="37.5080026" lon="-0.5534012"><ele>0.0</ele><time>2026-04-29T14:14:21.093Z</time></trkpt><trkpt lat="37.5081178" lon="-0.5532376"><ele>0.0</ele><time>2026-04-29T14:14:23.094Z</time></trkpt><trkpt lat="37.5081773" lon="-0.5531451"><ele>0.0</ele><time>2026-04-29T14:14:24.094Z</time></trkpt><trkpt lat="37.5082473" lon="-0.5530714"><ele>0.0</ele><time>2026-04-29T14:14:25.093Z</time></trkpt><trkpt lat="37.5083147" lon="-0.5529928"><ele>0.0</ele><time>2026-04-29T14:14:26.093Z</time></trkpt><trkpt lat="37.5083844" lon="-0.5529158"><ele>0.0</ele><time>2026-04-29T14:14:27.093Z</time></trkpt><trkpt lat="37.5084459" lon="-0.5528252"><ele>0.0</ele><time>2026-04-29T14:14:28.094Z</time></trkpt><trkpt lat="37.5085145" lon="-0.5527501"><ele>0.0</ele><time>2026-04-29T14:14:29.093Z</time></trkpt><trkpt lat="37.5085743" lon="-0.5526662"><ele>0.0</ele><time>2026-04-29T14:14:30.093Z</time></trkpt><trkpt lat="37.5086395" lon="-0.5525869"><ele>0.0</ele><time>2026-04-29T14:14:31.093Z</time></trkpt><trkpt lat="37.5087034" lon="-0.5524999"><ele>0.0</ele><time>2026-04-29T14:14:32.094Z</time></trkpt><trkpt lat="37.5087685" lon="-0.5524175"><ele>0.0</ele><time>2026-04-29T14:14:33.093Z</time></trkpt><trkpt lat="37.5088331" lon="-0.5523386"><ele>0.0</ele><time>2026-04-29T14:14:34.093Z</time></trkpt><trkpt lat="37.5089024" lon="-0.5522703"><ele>0.0</ele><time>2026-04-29T14:14:35.094Z</time></trkpt><trkpt lat="37.5089738" lon="-0.552191"><ele>0.0</ele><time>2026-04-29T14:14:36.094Z</time></trkpt><trkpt lat="37.5090501" lon="-0.5521224"><ele>0.0</ele><time>2026-04-29T14:14:37.093Z</time></trkpt><trkpt lat="37.5091213" lon="-0.5520531"><ele>0.0</ele><time>2026-04-29T14:14:38.094Z</time></trkpt><trkpt lat="37.5091958" lon="-0.5519973"><ele>0.0</ele><time>2026-04-29T14:14:39.093Z</time></trkpt><trkpt lat="37.5092693" lon="-0.5519457"><ele>0.0</ele><time>2026-04-29T14:14:40.093Z</time></trkpt><trkpt lat="37.5093428" lon="-0.551889"><ele>0.0</ele><time>2026-04-29T14:14:41.094Z</time></trkpt><trkpt lat="37.5094151" lon="-0.5518264"><ele>0.0</ele><time>2026-04-29T14:14:42.093Z</time></trkpt><trkpt lat="37.5095538" lon="-0.5516984"><ele>0.0</ele><time>2026-04-29T14:14:44.094Z</time></trkpt><trkpt lat="37.509619" lon="-0.5516301"><ele>0.0</ele><time>2026-04-29T14:14:45.094Z</time></trkpt><trkpt lat="37.5096751" lon="-0.5515433"><ele>0.0</ele><time>2026-04-29T14:14:46.094Z</time></trkpt><trkpt lat="37.5097302" lon="-0.5514489"><ele>0.0</ele><time>2026-04-29T14:14:47.094Z</time></trkpt><trkpt lat="37.5097965" lon="-0.551375"><ele>0.0</ele><time>2026-04-29T14:14:48.093Z</time></trkpt><trkpt lat="37.5098676" lon="-0.5513073"><ele>0.0</ele><time>2026-04-29T14:14:49.094Z</time></trkpt><trkpt lat="37.5099409" lon="-0.5512363"><ele>0.0</ele><time>2026-04-29T14:14:50.093Z</time></trkpt><trkpt lat="37.510014" lon="-0.5511604"><ele>0.0</ele><time>2026-04-29T14:14:51.093Z</time></trkpt><trkpt lat="37.510079" lon="-0.5510768"><ele>0.0</ele><time>2026-04-29T14:14:52.094Z</time></trkpt><trkpt lat="37.5101436" lon="-0.551"><ele>0.0</ele><time>2026-04-29T14:14:53.094Z</time></trkpt><trkpt lat="37.5102155" lon="-0.5509252"><ele>0.0</ele><time>2026-04-29T14:14:54.093Z</time></trkpt><trkpt lat="37.5102891" lon="-0.5508561"><ele>0.0</ele><time>2026-04-29T14:14:55.094Z</time></trkpt><trkpt lat="37.5103598" lon="-0.5507854"><ele>0.0</ele><time>2026-04-29T14:14:56.093Z</time></trkpt><trkpt lat="37.5104283" lon="-0.5507263"><ele>0.0</ele><time>2026-04-29T14:14:57.094Z</time></trkpt><trkpt lat="37.5104992" lon="-0.5506703"><ele>0.0</ele><time>2026-04-29T14:14:58.093Z</time></trkpt><trkpt lat="37.5105663" lon="-0.5506059"><ele>0.0</ele><time>2026-04-29T14:14:59.093Z</time></trkpt><trkpt lat="37.5106373" lon="-0.5505403"><ele>0.0</ele><time>2026-04-29T14:15:00.093Z</time></trkpt><trkpt lat="37.5107125" lon="-0.5504799"><ele>0.0</ele><time>2026-04-29T14:15:01.094Z</time></trkpt><trkpt lat="37.5107916" lon="-0.5504179"><ele>0.0</ele><time>2026-04-29T14:15:02.093Z</time></trkpt><trkpt lat="37.5108703" lon="-0.5503521"><ele>0.0</ele><time>2026-04-29T14:15:03.093Z</time></trkpt><trkpt lat="37.5110214" lon="-0.5502209"><ele>0.0</ele><time>2026-04-29T14:15:05.093Z</time></trkpt><trkpt lat="37.5110958" lon="-0.5501571"><ele>0.0</ele><time>2026-04-29T14:15:06.094Z</time></trkpt><trkpt lat="37.5111767" lon="-0.5500968"><ele>0.0</ele><time>2026-04-29T14:15:07.094Z</time></trkpt><trkpt lat="37.5112471" lon="-0.5500409"><ele>0.0</ele><time>2026-04-29T14:15:08.093Z</time></trkpt><trkpt lat="37.5113165" lon="-0.5499759"><ele>0.0</ele><time>2026-04-29T14:15:09.094Z</time></trkpt><trkpt lat="37.511385" lon="-0.5499075"><ele>0.0</ele><time>2026-04-29T14:15:10.093Z</time></trkpt><trkpt lat="37.5114534" lon="-0.549841"><ele>0.0</ele><time>2026-04-29T14:15:11.093Z</time></trkpt><trkpt lat="37.5115216" lon="-0.5497731"><ele>0.0</ele><time>2026-04-29T14:15:12.094Z</time></trkpt><trkpt lat="37.5115903" lon="-0.5497006"><ele>0.0</ele><time>2026-04-29T14:15:13.094Z</time></trkpt><trkpt lat="37.5116524" lon="-0.5496283"><ele>0.0</ele><time>2026-04-29T14:15:14.094Z</time></trkpt><trkpt lat="37.511717" lon="-0.5495608"><ele>0.0</ele><time>2026-04-29T14:15:15.094Z</time></trkpt><trkpt lat="37.5117877" lon="-0.5494927"><ele>0.0</ele><time>2026-04-29T14:15:16.093Z</time></trkpt><trkpt lat="37.5118509" lon="-0.5494244"><ele>0.0</ele><time>2026-04-29T14:15:17.093Z</time></trkpt><trkpt lat="37.5119099" lon="-0.549342"><ele>0.0</ele><time>2026-04-29T14:15:18.093Z</time></trkpt><trkpt lat="37.5119828" lon="-0.54927"><ele>0.0</ele><time>2026-04-29T14:15:19.093Z</time></trkpt><trkpt lat="37.5120508" lon="-0.5491913"><ele>0.0</ele><time>2026-04-29T14:15:20.094Z</time></trkpt><trkpt lat="37.5121157" lon="-0.5491142"><ele>0.0</ele><time>2026-04-29T14:15:21.093Z</time></trkpt><trkpt lat="37.5121794" lon="-0.5490404"><ele>0.0</ele><time>2026-04-29T14:15:22.093Z</time></trkpt><trkpt lat="37.5122413" lon="-0.5489639"><ele>0.0</ele><time>2026-04-29T14:15:23.094Z</time></trkpt><trkpt lat="37.5123012" lon="-0.5488878"><ele>0.0</ele><time>2026-04-29T14:15:24.093Z</time></trkpt><trkpt lat="37.512354" lon="-0.5488127"><ele>0.0</ele><time>2026-04-29T14:15:25.093Z</time></trkpt><trkpt lat="37.5124748" lon="-0.5486609"><ele>0.0</ele><time>2026-04-29T14:15:27.093Z</time></trkpt><trkpt lat="37.5125398" lon="-0.5485898"><ele>0.0</ele><time>2026-04-29T14:15:28.093Z</time></trkpt><trkpt lat="37.5126096" lon="-0.5485155"><ele>0.0</ele><time>2026-04-29T14:15:29.094Z</time></trkpt><trkpt lat="37.5126842" lon="-0.5484491"><ele>0.0</ele><time>2026-04-29T14:15:30.094Z</time></trkpt><trkpt lat="37.5127549" lon="-0.5483781"><ele>0.0</ele><time>2026-04-29T14:15:31.094Z</time></trkpt><trkpt lat="37.5128247" lon="-0.5483118"><ele>0.0</ele><time>2026-04-29T14:15:32.093Z</time></trkpt><trkpt lat="37.512893" lon="-0.5482441"><ele>0.0</ele><time>2026-04-29T14:15:33.094Z</time></trkpt><trkpt lat="37.5129671" lon="-0.5481721"><ele>0.0</ele><time>2026-04-29T14:15:34.093Z</time></trkpt><trkpt lat="37.5130335" lon="-0.5481025"><ele>0.0</ele><time>2026-04-29T14:15:35.093Z</time></trkpt><trkpt lat="37.5130985" lon="-0.5480357"><ele>0.0</ele><time>2026-04-29T14:15:36.093Z</time></trkpt><trkpt lat="37.513165" lon="-0.5479646"><ele>0.0</ele><time>2026-04-29T14:15:37.093Z</time></trkpt><trkpt lat="37.5132304" lon="-0.5478848"><ele>0.0</ele><time>2026-04-29T14:15:38.094Z</time></trkpt><trkpt lat="37.5133037" lon="-0.5478104"><ele>0.0</ele><time>2026-04-29T14:15:39.094Z</time></trkpt><trkpt lat="37.5133885" lon="-0.5477378"><ele>0.0</ele><time>2026-04-29T14:15:40.094Z</time></trkpt><trkpt lat="37.5134599" lon="-0.5476735"><ele>0.0</ele><time>2026-04-29T14:15:41.093Z</time></trkpt><trkpt lat="37.5135244" lon="-0.5476037"><ele>0.0</ele><time>2026-04-29T14:15:42.093Z</time></trkpt><trkpt lat="37.5135888" lon="-0.5475371"><ele>0.0</ele><time>2026-04-29T14:15:43.093Z</time></trkpt><trkpt lat="37.5136609" lon="-0.5474626"><ele>0.0</ele><time>2026-04-29T14:15:44.093Z</time></trkpt><trkpt lat="37.5137355" lon="-0.547387"><ele>0.0</ele><time>2026-04-29T14:15:45.093Z</time></trkpt><trkpt lat="37.5137996" lon="-0.5472931"><ele>0.0</ele><time>2026-04-29T14:15:46.094Z</time></trkpt><trkpt lat="37.5139427" lon="-0.5471583"><ele>0.0</ele><time>2026-04-29T14:15:48.093Z</time></trkpt><trkpt lat="37.5140138" lon="-0.5470954"><ele>0.0</ele><time>2026-04-29T14:15:49.094Z</time></trkpt><trkpt lat="37.5140844" lon="-0.5470397"><ele>0.0</ele><time>2026-04-29T14:15:50.094Z</time></trkpt><trkpt lat="37.5141576" lon="-0.546978"><ele>0.0</ele><time>2026-04-29T14:15:51.093Z</time></trkpt><trkpt lat="37.5142288" lon="-0.5469149"><ele>0.0</ele><time>2026-04-29T14:15:52.094Z</time></trkpt><trkpt lat="37.5143015" lon="-0.5468556"><ele>0.0</ele><time>2026-04-29T14:15:53.094Z</time></trkpt><trkpt lat="37.5143761" lon="-0.5467915"><ele>0.0</ele><time>2026-04-29T14:15:54.093Z</time></trkpt><trkpt lat="37.5144524" lon="-0.5467263"><ele>0.0</ele><time>2026-04-29T14:15:55.093Z</time></trkpt><trkpt lat="37.5145392" lon="-0.5466856"><ele>0.0</ele><time>2026-04-29T14:15:56.094Z</time></trkpt><trkpt lat="37.5146087" lon="-0.5466231"><ele>0.0</ele><time>2026-04-29T14:15:57.094Z</time></trkpt><trkpt lat="37.514677" lon="-0.54655"><ele>0.0</ele><time>2026-04-29T14:15:58.093Z</time></trkpt><trkpt lat="37.5147338" lon="-0.5464739"><ele>0.0</ele><time>2026-04-29T14:15:59.093Z</time></trkpt><trkpt lat="37.5148015" lon="-0.5464034"><ele>0.0</ele><time>2026-04-29T14:16:00.093Z</time></trkpt><trkpt lat="37.5148728" lon="-0.5463319"><ele>0.0</ele><time>2026-04-29T14:16:01.093Z</time></trkpt><trkpt lat="37.5149488" lon="-0.5462595"><ele>0.0</ele><time>2026-04-29T14:16:02.093Z</time></trkpt><trkpt lat="37.5150173" lon="-0.5461883"><ele>0.0</ele><time>2026-04-29T14:16:03.093Z</time></trkpt><trkpt lat="37.5150807" lon="-0.5461168"><ele>0.0</ele><time>2026-04-29T14:16:04.094Z</time></trkpt><trkpt lat="37.5151436" lon="-0.5460406"><ele>0.0</ele><time>2026-04-29T14:16:05.094Z</time></trkpt><trkpt lat="37.5152087" lon="-0.545968"><ele>0.0</ele><time>2026-04-29T14:16:06.093Z</time></trkpt><trkpt lat="37.5152766" lon="-0.5458963"><ele>0.0</ele><time>2026-04-29T14:16:07.094Z</time></trkpt><trkpt lat="37.5154159" lon="-0.5457515"><ele>0.0</ele><time>2026-04-29T14:16:09.093Z</time></trkpt><trkpt lat="37.5154838" lon="-0.5456778"><ele>0.0</ele><time>2026-04-29T14:16:10.093Z</time></trkpt><trkpt lat="37.5155519" lon="-0.5456111"><ele>0.0</ele><time>2026-04-29T14:16:11.093Z</time></trkpt><trkpt lat="37.5156228" lon="-0.5455342"><ele>0.0</ele><time>2026-04-29T14:16:12.093Z</time></trkpt><trkpt lat="37.5156931" lon="-0.5454563"><ele>0.0</ele><time>2026-04-29T14:16:13.093Z</time></trkpt><trkpt lat="37.5157647" lon="-0.5453747"><ele>0.0</ele><time>2026-04-29T14:16:14.093Z</time></trkpt><trkpt lat="37.5158322" lon="-0.5453032"><ele>0.0</ele><time>2026-04-29T14:16:15.093Z</time></trkpt><trkpt lat="37.5158984" lon="-0.5452358"><ele>0.0</ele><time>2026-04-29T14:16:16.094Z</time></trkpt><trkpt lat="37.5159665" lon="-0.5451695"><ele>0.0</ele><time>2026-04-29T14:16:17.093Z</time></trkpt><trkpt lat="37.5160334" lon="-0.5451058"><ele>0.0</ele><time>2026-04-29T14:16:18.093Z</time></trkpt><trkpt lat="37.5161041" lon="-0.5450395"><ele>0.0</ele><time>2026-04-29T14:16:19.094Z</time></trkpt><trkpt lat="37.5161732" lon="-0.5449688"><ele>0.0</ele><time>2026-04-29T14:16:20.093Z</time></trkpt><trkpt lat="37.5162404" lon="-0.5448943"><ele>0.0</ele><time>2026-04-29T14:16:21.093Z</time></trkpt><trkpt lat="37.5163056" lon="-0.5448203"><ele>0.0</ele><time>2026-04-29T14:16:22.093Z</time></trkpt><trkpt lat="37.5163733" lon="-0.5447544"><ele>0.0</ele><time>2026-04-29T14:16:23.094Z</time></trkpt><trkpt lat="37.5164403" lon="-0.5446849"><ele>0.0</ele><time>2026-04-29T14:16:24.093Z</time></trkpt><trkpt lat="37.5165027" lon="-0.5446165"><ele>0.0</ele><time>2026-04-29T14:16:25.093Z</time></trkpt><trkpt lat="37.5165712" lon="-0.5445468"><ele>0.0</ele><time>2026-04-29T14:16:26.093Z</time></trkpt><trkpt lat="37.5166371" lon="-0.5444695"><ele>0.0</ele><time>2026-04-29T14:16:27.094Z</time></trkpt><trkpt lat="37.516705" lon="-0.5444036"><ele>0.0</ele><time>2026-04-29T14:16:28.093Z</time></trkpt><trkpt lat="37.5168432" lon="-0.5442667"><ele>0.0</ele><time>2026-04-29T14:16:30.094Z</time></trkpt><trkpt lat="37.5169101" lon="-0.5442032"><ele>0.0</ele><time>2026-04-29T14:16:31.093Z</time></trkpt><trkpt lat="37.5169769" lon="-0.5441376"><ele>0.0</ele><time>2026-04-29T14:16:32.093Z</time></trkpt><trkpt lat="37.5170422" lon="-0.5440665"><ele>0.0</ele><time>2026-04-29T14:16:33.093Z</time></trkpt><trkpt lat="37.5171102" lon="-0.5439934"><ele>0.0</ele><time>2026-04-29T14:16:34.093Z</time></trkpt><trkpt lat="37.5171786" lon="-0.5439269"><ele>0.0</ele><time>2026-04-29T14:16:35.094Z</time></trkpt><trkpt lat="37.5172396" lon="-0.5438535"><ele>0.0</ele><time>2026-04-29T14:16:36.094Z</time></trkpt><trkpt lat="37.5172996" lon="-0.54378"><ele>0.0</ele><time>2026-04-29T14:16:37.093Z</time></trkpt><trkpt lat="37.5173613" lon="-0.5436968"><ele>0.0</ele><time>2026-04-29T14:16:38.094Z</time></trkpt><trkpt lat="37.5174284" lon="-0.5436212"><ele>0.0</ele><time>2026-04-29T14:16:39.094Z</time></trkpt><trkpt lat="37.5174925" lon="-0.5435487"><ele>0.0</ele><time>2026-04-29T14:16:40.093Z</time></trkpt><trkpt lat="37.5175509" lon="-0.5434627"><ele>0.0</ele><time>2026-04-29T14:16:41.094Z</time></trkpt><trkpt lat="37.5176183" lon="-0.5433888"><ele>0.0</ele><time>2026-04-29T14:16:42.094Z</time></trkpt><trkpt lat="37.5176784" lon="-0.5433055"><ele>0.0</ele><time>2026-04-29T14:16:43.093Z</time></trkpt><trkpt lat="37.5177449" lon="-0.5432301"><ele>0.0</ele><time>2026-04-29T14:16:44.093Z</time></trkpt><trkpt lat="37.5178147" lon="-0.5431568"><ele>0.0</ele><time>2026-04-29T14:16:45.093Z</time></trkpt><trkpt lat="37.5178859" lon="-0.5430877"><ele>0.0</ele><time>2026-04-29T14:16:46.094Z</time></trkpt><trkpt lat="37.5179535" lon="-0.5430093"><ele>0.0</ele><time>2026-04-29T14:16:47.093Z</time></trkpt><trkpt lat="37.5180203" lon="-0.5429311"><ele>0.0</ele><time>2026-04-29T14:16:48.094Z</time></trkpt><trkpt lat="37.5180871" lon="-0.5428515"><ele>0.0</ele><time>2026-04-29T14:16:49.094Z</time></trkpt><trkpt lat="37.5182248" lon="-0.5427007"><ele>0.0</ele><time>2026-04-29T14:16:51.094Z</time></trkpt><trkpt lat="37.518293" lon="-0.5426212"><ele>0.0</ele><time>2026-04-29T14:16:52.094Z</time></trkpt><trkpt lat="37.5183643" lon="-0.5425468"><ele>0.0</ele><time>2026-04-29T14:16:53.093Z</time></trkpt><trkpt lat="37.518432" lon="-0.542474"><ele>0.0</ele><time>2026-04-29T14:16:54.093Z</time></trkpt><trkpt lat="37.5185012" lon="-0.5424045"><ele>0.0</ele><time>2026-04-29T14:16:55.094Z</time></trkpt><trkpt lat="37.5185733" lon="-0.5423397"><ele>0.0</ele><time>2026-04-29T14:16:56.093Z</time></trkpt><trkpt lat="37.5186465" lon="-0.5422727"><ele>0.0</ele><time>2026-04-29T14:16:57.094Z</time></trkpt><trkpt lat="37.5187168" lon="-0.5422018"><ele>0.0</ele><time>2026-04-29T14:16:58.094Z</time></trkpt><trkpt lat="37.5187838" lon="-0.5421333"><ele>0.0</ele><time>2026-04-29T14:16:59.094Z</time></trkpt><trkpt lat="37.5188458" lon="-0.5420605"><ele>0.0</ele><time>2026-04-29T14:17:00.093Z</time></trkpt><trkpt lat="37.5189065" lon="-0.5419787"><ele>0.0</ele><time>2026-04-29T14:17:01.093Z</time></trkpt><trkpt lat="37.5189765" lon="-0.5419038"><ele>0.0</ele><time>2026-04-29T14:17:02.093Z</time></trkpt><trkpt lat="37.5190514" lon="-0.5418405"><ele>0.0</ele><time>2026-04-29T14:17:03.094Z</time></trkpt><trkpt lat="37.5191262" lon="-0.5417731"><ele>0.0</ele><time>2026-04-29T14:17:04.093Z</time></trkpt><trkpt lat="37.5191967" lon="-0.5417048"><ele>0.0</ele><time>2026-04-29T14:17:05.093Z</time></trkpt><trkpt lat="37.5192709" lon="-0.5416391"><ele>0.0</ele><time>2026-04-29T14:17:06.094Z</time></trkpt><trkpt lat="37.5193403" lon="-0.5415671"><ele>0.0</ele><time>2026-04-29T14:17:07.092Z</time></trkpt><trkpt lat="37.5194064" lon="-0.5414995"><ele>0.0</ele><time>2026-04-29T14:17:08.092Z</time></trkpt><trkpt lat="37.519472" lon="-0.5414302"><ele>0.0</ele><time>2026-04-29T14:17:09.092Z</time></trkpt><trkpt lat="37.5195418" lon="-0.5413593"><ele>0.0</ele><time>2026-04-29T14:17:10.092Z</time></trkpt><trkpt lat="37.5196678" lon="-0.5412043"><ele>0.0</ele><time>2026-04-29T14:17:12.093Z</time></trkpt><trkpt lat="37.5197364" lon="-0.5411273"><ele>0.0</ele><time>2026-04-29T14:17:13.093Z</time></trkpt><trkpt lat="37.5198064" lon="-0.541055"><ele>0.0</ele><time>2026-04-29T14:17:14.092Z</time></trkpt><trkpt lat="37.5198778" lon="-0.5409847"><ele>0.0</ele><time>2026-04-29T14:17:15.093Z</time></trkpt><trkpt lat="37.5199527" lon="-0.5409176"><ele>0.0</ele><time>2026-04-29T14:17:16.093Z</time></trkpt><trkpt lat="37.5200236" lon="-0.540847"><ele>0.0</ele><time>2026-04-29T14:17:17.092Z</time></trkpt><trkpt lat="37.5200947" lon="-0.5407756"><ele>0.0</ele><time>2026-04-29T14:17:18.092Z</time></trkpt><trkpt lat="37.5201649" lon="-0.5407053"><ele>0.0</ele><time>2026-04-29T14:17:19.092Z</time></trkpt><trkpt lat="37.520232" lon="-0.5406379"><ele>0.0</ele><time>2026-04-29T14:17:20.093Z</time></trkpt><trkpt lat="37.5202986" lon="-0.5405661"><ele>0.0</ele><time>2026-04-29T14:17:21.093Z</time></trkpt><trkpt lat="37.5203566" lon="-0.5404784"><ele>0.0</ele><time>2026-04-29T14:17:22.092Z</time></trkpt><trkpt lat="37.520426" lon="-0.5404039"><ele>0.0</ele><time>2026-04-29T14:17:23.092Z</time></trkpt><trkpt lat="37.5204934" lon="-0.5403225"><ele>0.0</ele><time>2026-04-29T14:17:24.093Z</time></trkpt><trkpt lat="37.5205588" lon="-0.5402391"><ele>0.0</ele><time>2026-04-29T14:17:25.092Z</time></trkpt><trkpt lat="37.5206238" lon="-0.5401565"><ele>0.0</ele><time>2026-04-29T14:17:26.093Z</time></trkpt><trkpt lat="37.5206904" lon="-0.5400795"><ele>0.0</ele><time>2026-04-29T14:17:27.092Z</time></trkpt><trkpt lat="37.5207513" lon="-0.5400029"><ele>0.0</ele><time>2026-04-29T14:17:28.092Z</time></trkpt><trkpt lat="37.5208124" lon="-0.539926"><ele>0.0</ele><time>2026-04-29T14:17:29.092Z</time></trkpt><trkpt lat="37.5208774" lon="-0.5398491"><ele>0.0</ele><time>2026-04-29T14:17:30.092Z</time></trkpt><trkpt lat="37.5209478" lon="-0.5397726"><ele>0.0</ele><time>2026-04-29T14:17:31.093Z</time></trkpt><trkpt lat="37.5211016" lon="-0.5396233"><ele>0.0</ele><time>2026-04-29T14:17:33.092Z</time></trkpt><trkpt lat="37.5211713" lon="-0.5395503"><ele>0.0</ele><time>2026-04-29T14:17:34.092Z</time></trkpt><trkpt lat="37.521235" lon="-0.5394956"><ele>0.0</ele><time>2026-04-29T14:17:35.092Z</time></trkpt><trkpt lat="37.5212962" lon="-0.5394361"><ele>0.0</ele><time>2026-04-29T14:17:36.093Z</time></trkpt><trkpt lat="37.5213545" lon="-0.5393757"><ele>0.0</ele><time>2026-04-29T14:17:37.092Z</time></trkpt><trkpt lat="37.5214195" lon="-0.5393146"><ele>0.0</ele><time>2026-04-29T14:17:38.092Z</time></trkpt><trkpt lat="37.5214817" lon="-0.5392452"><ele>0.0</ele><time>2026-04-29T14:17:39.093Z</time></trkpt><trkpt lat="37.5215458" lon="-0.5391775"><ele>0.0</ele><time>2026-04-29T14:17:40.093Z</time></trkpt><trkpt lat="37.5216067" lon="-0.5391081"><ele>0.0</ele><time>2026-04-29T14:17:41.092Z</time></trkpt><trkpt lat="37.5216722" lon="-0.5390293"><ele>0.0</ele><time>2026-04-29T14:17:42.092Z</time></trkpt><trkpt lat="37.5217367" lon="-0.5389472"><ele>0.0</ele><time>2026-04-29T14:17:43.093Z</time></trkpt><trkpt lat="37.5217974" lon="-0.5388717"><ele>0.0</ele><time>2026-04-29T14:17:44.092Z</time></trkpt><trkpt lat="37.5218574" lon="-0.5388009"><ele>0.0</ele><time>2026-04-29T14:17:45.093Z</time></trkpt><trkpt lat="37.5219175" lon="-0.5387396"><ele>0.0</ele><time>2026-04-29T14:17:46.092Z</time></trkpt><trkpt lat="37.5219844" lon="-0.5386767"><ele>0.0</ele><time>2026-04-29T14:17:47.092Z</time></trkpt><trkpt lat="37.5220555" lon="-0.5386119"><ele>0.0</ele><time>2026-04-29T14:17:48.092Z</time></trkpt><trkpt lat="37.5221253" lon="-0.5385402"><ele>0.0</ele><time>2026-04-29T14:17:49.092Z</time></trkpt><trkpt lat="37.5221964" lon="-0.5384654"><ele>0.0</ele><time>2026-04-29T14:17:50.093Z</time></trkpt><trkpt lat="37.5222708" lon="-0.5383907"><ele>0.0</ele><time>2026-04-29T14:17:51.092Z</time></trkpt><trkpt lat="37.5223623" lon="-0.53828"><ele>0.0</ele><time>2026-04-29T14:17:53.093Z</time></trkpt><trkpt lat="37.5225277" lon="-0.5381443"><ele>0.0</ele><time>2026-04-29T14:17:55.092Z</time></trkpt><trkpt lat="37.5226025" lon="-0.5380645"><ele>0.0</ele><time>2026-04-29T14:17:56.092Z</time></trkpt><trkpt lat="37.5226727" lon="-0.5379948"><ele>0.0</ele><time>2026-04-29T14:17:57.093Z</time></trkpt><trkpt lat="37.5227473" lon="-0.5379252"><ele>0.0</ele><time>2026-04-29T14:17:58.1Z</time></trkpt><trkpt lat="37.5228258" lon="-0.537857"><ele>0.0</ele><time>2026-04-29T14:17:59.105Z</time></trkpt><trkpt lat="37.5228961" lon="-0.5377843"><ele>0.0</ele><time>2026-04-29T14:18:00.11Z</time></trkpt><trkpt lat="37.5229677" lon="-0.5377041"><ele>0.0</ele><time>2026-04-29T14:18:01.117Z</time></trkpt><trkpt lat="37.5230394" lon="-0.5376163"><ele>0.0</ele><time>2026-04-29T14:18:02.122Z</time></trkpt><trkpt lat="37.5231075" lon="-0.5375218"><ele>0.0</ele><time>2026-04-29T14:18:03.127Z</time></trkpt><trkpt lat="37.523171" lon="-0.5374266"><ele>0.0</ele><time>2026-04-29T14:18:04.133Z</time></trkpt><trkpt lat="37.5232355" lon="-0.5373487"><ele>0.0</ele><time>2026-04-29T14:18:05.139Z</time></trkpt><trkpt lat="37.5233025" lon="-0.5372781"><ele>0.0</ele><time>2026-04-29T14:18:06.144Z</time></trkpt><trkpt lat="37.5233751" lon="-0.5372044"><ele>0.0</ele><time>2026-04-29T14:18:07.149Z</time></trkpt><trkpt lat="37.5234503" lon="-0.5371223"><ele>0.0</ele><time>2026-04-29T14:18:08.156Z</time></trkpt><trkpt lat="37.5235228" lon="-0.5370315"><ele>0.0</ele><time>2026-04-29T14:18:09.162Z</time></trkpt><trkpt lat="37.5235872" lon="-0.5369336"><ele>0.0</ele><time>2026-04-29T14:18:10.166Z</time></trkpt><trkpt lat="37.523652" lon="-0.5368434"><ele>0.0</ele><time>2026-04-29T14:18:11.172Z</time></trkpt><trkpt lat="37.5237159" lon="-0.5367673"><ele>0.0</ele><time>2026-04-29T14:18:12.178Z</time></trkpt><trkpt lat="37.5237931" lon="-0.5367156"><ele>0.0</ele><time>2026-04-29T14:18:13.093Z</time></trkpt><trkpt lat="37.5238618" lon="-0.5366412"><ele>0.0</ele><time>2026-04-29T14:18:14.092Z</time></trkpt><trkpt lat="37.5240098" lon="-0.5364992"><ele>0.0</ele><time>2026-04-29T14:18:16.101Z</time></trkpt><trkpt lat="37.5240866" lon="-0.5364346"><ele>0.0</ele><time>2026-04-29T14:18:17.105Z</time></trkpt><trkpt lat="37.5241587" lon="-0.5363726"><ele>0.0</ele><time>2026-04-29T14:18:18.112Z</time></trkpt><trkpt lat="37.5242338" lon="-0.5363163"><ele>0.0</ele><time>2026-04-29T14:18:19.117Z</time></trkpt><trkpt lat="37.5242887" lon="-0.5361811"><ele>0.0</ele><time>2026-04-29T14:18:21.128Z</time></trkpt><trkpt lat="37.5243758" lon="-0.5361006"><ele>0.0</ele><time>2026-04-29T14:18:22.133Z</time></trkpt><trkpt lat="37.5244665" lon="-0.5360297"><ele>0.0</ele><time>2026-04-29T14:18:23.14Z</time></trkpt><trkpt lat="37.5245454" lon="-0.5359642"><ele>0.0</ele><time>2026-04-29T14:18:24.145Z</time></trkpt><trkpt lat="37.5246163" lon="-0.5358958"><ele>0.0</ele><time>2026-04-29T14:18:25.15Z</time></trkpt><trkpt lat="37.5246736" lon="-0.5358169"><ele>0.0</ele><time>2026-04-29T14:18:26.156Z</time></trkpt><trkpt lat="37.5247364" lon="-0.5357514"><ele>0.0</ele><time>2026-04-29T14:18:27.161Z</time></trkpt><trkpt lat="37.5248074" lon="-0.5356888"><ele>0.0</ele><time>2026-04-29T14:18:28.168Z</time></trkpt><trkpt lat="37.5248626" lon="-0.5356048"><ele>0.0</ele><time>2026-04-29T14:18:29.093Z</time></trkpt><trkpt lat="37.5249664" lon="-0.535506"><ele>0.0</ele><time>2026-04-29T14:18:31.092Z</time></trkpt><trkpt lat="37.52504" lon="-0.5354305"><ele>0.0</ele><time>2026-04-29T14:18:32.093Z</time></trkpt><trkpt lat="37.5251121" lon="-0.5353539"><ele>0.0</ele><time>2026-04-29T14:18:33.095Z</time></trkpt><trkpt lat="37.5251845" lon="-0.5352648"><ele>0.0</ele><time>2026-04-29T14:18:34.101Z</time></trkpt><trkpt lat="37.5252589" lon="-0.5351789"><ele>0.0</ele><time>2026-04-29T14:18:35.106Z</time></trkpt><trkpt lat="37.5254213" lon="-0.5350266"><ele>0.0</ele><time>2026-04-29T14:18:37.117Z</time></trkpt><trkpt lat="37.5255027" lon="-0.5349544"><ele>0.0</ele><time>2026-04-29T14:18:38.124Z</time></trkpt><trkpt lat="37.5255794" lon="-0.5348813"><ele>0.0</ele><time>2026-04-29T14:18:39.129Z</time></trkpt><trkpt lat="37.5256491" lon="-0.5348059"><ele>0.0</ele><time>2026-04-29T14:18:40.135Z</time></trkpt><trkpt lat="37.5257224" lon="-0.5347283"><ele>0.0</ele><time>2026-04-29T14:18:41.14Z</time></trkpt><trkpt lat="37.525802" lon="-0.5346707"><ele>0.0</ele><time>2026-04-29T14:18:42.145Z</time></trkpt><trkpt lat="37.5258782" lon="-0.5346076"><ele>0.0</ele><time>2026-04-29T14:18:43.152Z</time></trkpt><trkpt lat="37.5259482" lon="-0.5345364"><ele>0.0</ele><time>2026-04-29T14:18:44.158Z</time></trkpt><trkpt lat="37.5260245" lon="-0.5344688"><ele>0.0</ele><time>2026-04-29T14:18:45.163Z</time></trkpt><trkpt lat="37.526119" lon="-0.5343567"><ele>0.0</ele><time>2026-04-29T14:18:47.092Z</time></trkpt><trkpt lat="37.5261967" lon="-0.5342987"><ele>0.0</ele><time>2026-04-29T14:18:48.092Z</time></trkpt><trkpt lat="37.5262742" lon="-0.5342366"><ele>0.0</ele><time>2026-04-29T14:18:49.093Z</time></trkpt><trkpt lat="37.526347" lon="-0.5341592"><ele>0.0</ele><time>2026-04-29T14:18:50.093Z</time></trkpt><trkpt lat="37.526415" lon="-0.534085"><ele>0.0</ele><time>2026-04-29T14:18:51.095Z</time></trkpt><trkpt lat="37.5264882" lon="-0.5340143"><ele>0.0</ele><time>2026-04-29T14:18:52.101Z</time></trkpt><trkpt lat="37.5265572" lon="-0.5339415"><ele>0.0</ele><time>2026-04-29T14:18:53.108Z</time></trkpt><trkpt lat="37.526613" lon="-0.5338378"><ele>0.0</ele><time>2026-04-29T14:18:55.119Z</time></trkpt><trkpt lat="37.5267042" lon="-0.5337538"><ele>0.0</ele><time>2026-04-29T14:18:56.124Z</time></trkpt><trkpt lat="37.5268535" lon="-0.5336126"><ele>0.0</ele><time>2026-04-29T14:18:58.135Z</time></trkpt><trkpt lat="37.5269048" lon="-0.5335334"><ele>0.0</ele><time>2026-04-29T14:18:59.141Z</time></trkpt><trkpt lat="37.5269656" lon="-0.5334576"><ele>0.0</ele><time>2026-04-29T14:19:00.147Z</time></trkpt><trkpt lat="37.5270415" lon="-0.5333907"><ele>0.0</ele><time>2026-04-29T14:19:01.153Z</time></trkpt><trkpt lat="37.5271252" lon="-0.5333259"><ele>0.0</ele><time>2026-04-29T14:19:02.157Z</time></trkpt><trkpt lat="37.5272053" lon="-0.5332628"><ele>0.0</ele><time>2026-04-29T14:19:03.163Z</time></trkpt><trkpt lat="37.5272825" lon="-0.5331983"><ele>0.0</ele><time>2026-04-29T14:19:04.17Z</time></trkpt><trkpt lat="37.5273435" lon="-0.5331358"><ele>0.0</ele><time>2026-04-29T14:19:05.092Z</time></trkpt><trkpt lat="37.5274031" lon="-0.5330636"><ele>0.0</ele><time>2026-04-29T14:19:06.092Z</time></trkpt><trkpt lat="37.5274469" lon="-0.5329698"><ele>0.0</ele><time>2026-04-29T14:19:07.092Z</time></trkpt><trkpt lat="37.5274925" lon="-0.5328855"><ele>0.0</ele><time>2026-04-29T14:19:08.092Z</time></trkpt><trkpt lat="37.5275381" lon="-0.5328026"><ele>0.0</ele><time>2026-04-29T14:19:09.096Z</time></trkpt><trkpt lat="37.5276206" lon="-0.5327438"><ele>0.0</ele><time>2026-04-29T14:19:10.102Z</time></trkpt><trkpt lat="37.5276967" lon="-0.5326858"><ele>0.0</ele><time>2026-04-29T14:19:11.108Z</time></trkpt><trkpt lat="37.5277775" lon="-0.5326286"><ele>0.0</ele><time>2026-04-29T14:19:12.113Z</time></trkpt><trkpt lat="37.5278497" lon="-0.5325444"><ele>0.0</ele><time>2026-04-29T14:19:13.119Z</time></trkpt><trkpt lat="37.5279075" lon="-0.5324403"><ele>0.0</ele><time>2026-04-29T14:19:14.126Z</time></trkpt><trkpt lat="37.5279808" lon="-0.5323485"><ele>0.0</ele><time>2026-04-29T14:19:15.131Z</time></trkpt><trkpt lat="37.5280564" lon="-0.5322778"><ele>0.0</ele><time>2026-04-29T14:19:16.137Z</time></trkpt><trkpt lat="37.5281344" lon="-0.5322058"><ele>0.0</ele><time>2026-04-29T14:19:17.143Z</time></trkpt><trkpt lat="37.5282918" lon="-0.5320812"><ele>0.0</ele><time>2026-04-29T14:19:19.153Z</time></trkpt><trkpt lat="37.5283727" lon="-0.5320243"><ele>0.0</ele><time>2026-04-29T14:19:20.159Z</time></trkpt><trkpt lat="37.5284599" lon="-0.5319739"><ele>0.0</ele><time>2026-04-29T14:19:21.164Z</time></trkpt><trkpt lat="37.5285253" lon="-0.5318838"><ele>0.0</ele><time>2026-04-29T14:19:22.092Z</time></trkpt><trkpt lat="37.5285922" lon="-0.5317963"><ele>0.0</ele><time>2026-04-29T14:19:23.093Z</time></trkpt><trkpt lat="37.5286528" lon="-0.5317146"><ele>0.0</ele><time>2026-04-29T14:19:24.092Z</time></trkpt><trkpt lat="37.5287132" lon="-0.5316393"><ele>0.0</ele><time>2026-04-29T14:19:25.093Z</time></trkpt><trkpt lat="37.5287753" lon="-0.5315571"><ele>0.0</ele><time>2026-04-29T14:19:26.092Z</time></trkpt><trkpt lat="37.5288372" lon="-0.5314706"><ele>0.0</ele><time>2026-04-29T14:19:27.099Z</time></trkpt><trkpt lat="37.5288961" lon="-0.5313896"><ele>0.0</ele><time>2026-04-29T14:19:28.103Z</time></trkpt><trkpt lat="37.5289629" lon="-0.5313242"><ele>0.0</ele><time>2026-04-29T14:19:29.109Z</time></trkpt><trkpt lat="37.5290155" lon="-0.531231"><ele>0.0</ele><time>2026-04-29T14:19:31.12Z</time></trkpt><trkpt lat="37.5291065" lon="-0.5311465"><ele>0.0</ele><time>2026-04-29T14:19:32.126Z</time></trkpt><trkpt lat="37.5291802" lon="-0.531083"><ele>0.0</ele><time>2026-04-29T14:19:33.131Z</time></trkpt><trkpt lat="37.5292385" lon="-0.5310143"><ele>0.0</ele><time>2026-04-29T14:19:34.138Z</time></trkpt><trkpt lat="37.5292983" lon="-0.5309396"><ele>0.0</ele><time>2026-04-29T14:19:35.143Z</time></trkpt><trkpt lat="37.5293629" lon="-0.5308652"><ele>0.0</ele><time>2026-04-29T14:19:36.148Z</time></trkpt><trkpt lat="37.529432" lon="-0.5308086"><ele>0.0</ele><time>2026-04-29T14:19:37.155Z</time></trkpt><trkpt lat="37.529508" lon="-0.5307515"><ele>0.0</ele><time>2026-04-29T14:19:38.16Z</time></trkpt><trkpt lat="37.5296425" lon="-0.530601"><ele>0.0</ele><time>2026-04-29T14:19:40.093Z</time></trkpt><trkpt lat="37.5297073" lon="-0.5305178"><ele>0.0</ele><time>2026-04-29T14:19:41.093Z</time></trkpt><trkpt lat="37.5297799" lon="-0.5304338"><ele>0.0</ele><time>2026-04-29T14:19:42.092Z</time></trkpt><trkpt lat="37.52985" lon="-0.5303423"><ele>0.0</ele><time>2026-04-29T14:19:43.093Z</time></trkpt><trkpt lat="37.5299155" lon="-0.5302521"><ele>0.0</ele><time>2026-04-29T14:19:44.093Z</time></trkpt><trkpt lat="37.5299928" lon="-0.5301734"><ele>0.0</ele><time>2026-04-29T14:19:45.099Z</time></trkpt><trkpt lat="37.5300665" lon="-0.5300869"><ele>0.0</ele><time>2026-04-29T14:19:46.105Z</time></trkpt><trkpt lat="37.5301496" lon="-0.5300097"><ele>0.0</ele><time>2026-04-29T14:19:47.111Z</time></trkpt><trkpt lat="37.5302337" lon="-0.5299353"><ele>0.0</ele><time>2026-04-29T14:19:48.117Z</time></trkpt><trkpt lat="37.530307" lon="-0.5298543"><ele>0.0</ele><time>2026-04-29T14:19:49.121Z</time></trkpt><trkpt lat="37.5303683" lon="-0.5297633"><ele>0.0</ele><time>2026-04-29T14:19:50.128Z</time></trkpt><trkpt lat="37.5304267" lon="-0.5296683"><ele>0.0</ele><time>2026-04-29T14:19:51.133Z</time></trkpt><trkpt lat="37.5304914" lon="-0.5295825"><ele>0.0</ele><time>2026-04-29T14:19:52.138Z</time></trkpt><trkpt lat="37.5305513" lon="-0.5294854"><ele>0.0</ele><time>2026-04-29T14:19:54.15Z</time></trkpt><trkpt lat="37.5306438" lon="-0.5294191"><ele>0.0</ele><time>2026-04-29T14:19:55.155Z</time></trkpt><trkpt lat="37.5307071" lon="-0.5293593"><ele>0.0</ele><time>2026-04-29T14:19:56.161Z</time></trkpt><trkpt lat="37.5307788" lon="-0.5293159"><ele>0.0</ele><time>2026-04-29T14:19:57.168Z</time></trkpt><trkpt lat="37.5308451" lon="-0.5292486"><ele>0.0</ele><time>2026-04-29T14:19:58.092Z</time></trkpt><trkpt lat="37.5309234" lon="-0.5291743"><ele>0.0</ele><time>2026-04-29T14:19:59.092Z</time></trkpt><trkpt lat="37.5310841" lon="-0.5290241"><ele>0.0</ele><time>2026-04-29T14:20:01.093Z</time></trkpt><trkpt lat="37.5311587" lon="-0.5289438"><ele>0.0</ele><time>2026-04-29T14:20:02.094Z</time></trkpt><trkpt lat="37.531236" lon="-0.5288633"><ele>0.0</ele><time>2026-04-29T14:20:03.101Z</time></trkpt><trkpt lat="37.5313117" lon="-0.5287803"><ele>0.0</ele><time>2026-04-29T14:20:04.107Z</time></trkpt><trkpt lat="37.5313911" lon="-0.5287093"><ele>0.0</ele><time>2026-04-29T14:20:05.111Z</time></trkpt><trkpt lat="37.5314607" lon="-0.528621"><ele>0.0</ele><time>2026-04-29T14:20:06.117Z</time></trkpt><trkpt lat="37.531505" lon="-0.5285108"><ele>0.0</ele><time>2026-04-29T14:20:07.124Z</time></trkpt><trkpt lat="37.5315651" lon="-0.5284274"><ele>0.0</ele><time>2026-04-29T14:20:08.128Z</time></trkpt><trkpt lat="37.5316182" lon="-0.5283368"><ele>0.0</ele><time>2026-04-29T14:20:10.141Z</time></trkpt><trkpt lat="37.531719" lon="-0.5282639"><ele>0.0</ele><time>2026-04-29T14:20:11.145Z</time></trkpt><trkpt lat="37.531798" lon="-0.5281812"><ele>0.0</ele><time>2026-04-29T14:20:12.151Z</time></trkpt><trkpt lat="37.5318697" lon="-0.5280828"><ele>0.0</ele><time>2026-04-29T14:20:13.158Z</time></trkpt><trkpt lat="37.5319327" lon="-0.5279779"><ele>0.0</ele><time>2026-04-29T14:20:14.163Z</time></trkpt><trkpt lat="37.5319921" lon="-0.5278802"><ele>0.0</ele><time>2026-04-29T14:20:15.092Z</time></trkpt><trkpt lat="37.5320543" lon="-0.5277917"><ele>0.0</ele><time>2026-04-29T14:20:16.092Z</time></trkpt><trkpt lat="37.5321162" lon="-0.5277013"><ele>0.0</ele><time>2026-04-29T14:20:17.092Z</time></trkpt><trkpt lat="37.5321845" lon="-0.5276247"><ele>0.0</ele><time>2026-04-29T14:20:18.093Z</time></trkpt><trkpt lat="37.5322594" lon="-0.5275672"><ele>0.0</ele><time>2026-04-29T14:20:19.093Z</time></trkpt><trkpt lat="37.5323359" lon="-0.5275096"><ele>0.0</ele><time>2026-04-29T14:20:20.096Z</time></trkpt><trkpt lat="37.5325029" lon="-0.527395"><ele>0.0</ele><time>2026-04-29T14:20:22.108Z</time></trkpt><trkpt lat="37.532585" lon="-0.5273176"><ele>0.0</ele><time>2026-04-29T14:20:23.113Z</time></trkpt><trkpt lat="37.5326585" lon="-0.5272352"><ele>0.0</ele><time>2026-04-29T14:20:24.119Z</time></trkpt><trkpt lat="37.5327287" lon="-0.5271429"><ele>0.0</ele><time>2026-04-29T14:20:25.124Z</time></trkpt><trkpt lat="37.5328006" lon="-0.5270534"><ele>0.0</ele><time>2026-04-29T14:20:26.13Z</time></trkpt><trkpt lat="37.5328862" lon="-0.5269733"><ele>0.0</ele><time>2026-04-29T14:20:27.136Z</time></trkpt><trkpt lat="37.5329755" lon="-0.5269006"><ele>0.0</ele><time>2026-04-29T14:20:28.141Z</time></trkpt><trkpt lat="37.5330506" lon="-0.5267487"><ele>0.0</ele><time>2026-04-29T14:20:30.152Z</time></trkpt><trkpt lat="37.53315" lon="-0.526666"><ele>0.0</ele><time>2026-04-29T14:20:31.158Z</time></trkpt><trkpt lat="37.53324" lon="-0.5266078"><ele>0.0</ele><time>2026-04-29T14:20:32.165Z</time></trkpt><trkpt lat="37.5333144" lon="-0.5265225"><ele>0.0</ele><time>2026-04-29T14:20:33.169Z</time></trkpt><trkpt lat="37.5333798" lon="-0.5264305"><ele>0.0</ele><time>2026-04-29T14:20:34.093Z</time></trkpt><trkpt lat="37.5334514" lon="-0.5263466"><ele>0.0</ele><time>2026-04-29T14:20:35.092Z</time></trkpt><trkpt lat="37.5335269" lon="-0.5262742"><ele>0.0</ele><time>2026-04-29T14:20:36.093Z</time></trkpt><trkpt lat="37.5335996" lon="-0.5262202"><ele>0.0</ele><time>2026-04-29T14:20:37.092Z</time></trkpt><trkpt lat="37.5336621" lon="-0.5261078"><ele>0.0</ele><time>2026-04-29T14:20:39.104Z</time></trkpt><trkpt lat="37.5337429" lon="-0.5260263"><ele>0.0</ele><time>2026-04-29T14:20:40.108Z</time></trkpt><trkpt lat="37.5338189" lon="-0.5259615"><ele>0.0</ele><time>2026-04-29T14:20:41.114Z</time></trkpt><trkpt lat="37.5339622" lon="-0.5258356"><ele>0.0</ele><time>2026-04-29T14:20:43.125Z</time></trkpt><trkpt lat="37.5340221" lon="-0.5257643"><ele>0.0</ele><time>2026-04-29T14:20:44.131Z</time></trkpt><trkpt lat="37.5340819" lon="-0.5256869"><ele>0.0</ele><time>2026-04-29T14:20:45.138Z</time></trkpt><trkpt lat="37.5341526" lon="-0.5256101"><ele>0.0</ele><time>2026-04-29T14:20:46.142Z</time></trkpt><trkpt lat="37.5342284" lon="-0.5255428"><ele>0.0</ele><time>2026-04-29T14:20:47.148Z</time></trkpt><trkpt lat="37.5342864" lon="-0.52544"><ele>0.0</ele><time>2026-04-29T14:20:49.159Z</time></trkpt><trkpt lat="37.5343789" lon="-0.5253515"><ele>0.0</ele><time>2026-04-29T14:20:50.166Z</time></trkpt><trkpt lat="37.5344644" lon="-0.5252825"><ele>0.0</ele><time>2026-04-29T14:20:51.171Z</time></trkpt><trkpt lat="37.5345308" lon="-0.5252182"><ele>0.0</ele><time>2026-04-29T14:20:52.093Z</time></trkpt><trkpt lat="37.5346028" lon="-0.5251351"><ele>0.0</ele><time>2026-04-29T14:20:53.093Z</time></trkpt><trkpt lat="37.5346765" lon="-0.5250485"><ele>0.0</ele><time>2026-04-29T14:20:54.188Z</time></trkpt><trkpt lat="37.5347343" lon="-0.5249515"><ele>0.0</ele><time>2026-04-29T14:20:55.093Z</time></trkpt><trkpt lat="37.5347951" lon="-0.5248468"><ele>0.0</ele><time>2026-04-29T14:20:56.099Z</time></trkpt><trkpt lat="37.5348652" lon="-0.5247553"><ele>0.0</ele><time>2026-04-29T14:20:57.105Z</time></trkpt><trkpt lat="37.5349417" lon="-0.5246684"><ele>0.0</ele><time>2026-04-29T14:20:58.11Z</time></trkpt><trkpt lat="37.5350246" lon="-0.5245864"><ele>0.0</ele><time>2026-04-29T14:20:59.116Z</time></trkpt><trkpt lat="37.535102" lon="-0.5245034"><ele>0.0</ele><time>2026-04-29T14:21:00.121Z</time></trkpt><trkpt lat="37.5351722" lon="-0.5244188"><ele>0.0</ele><time>2026-04-29T14:21:01.127Z</time></trkpt><trkpt lat="37.5352381" lon="-0.5243323"><ele>0.0</ele><time>2026-04-29T14:21:02.132Z</time></trkpt><trkpt lat="37.5354208" lon="-0.524148"><ele>0.0</ele><time>2026-04-29T14:21:05.149Z</time></trkpt><trkpt lat="37.5355083" lon="-0.5240913"><ele>0.0</ele><time>2026-04-29T14:21:06.155Z</time></trkpt><trkpt lat="37.5355816" lon="-0.5240172"><ele>0.0</ele><time>2026-04-29T14:21:07.16Z</time></trkpt><trkpt lat="37.5356568" lon="-0.5239388"><ele>0.0</ele><time>2026-04-29T14:21:08.166Z</time></trkpt><trkpt lat="37.5357298" lon="-0.5238624"><ele>0.0</ele><time>2026-04-29T14:21:09.092Z</time></trkpt><trkpt lat="37.5358028" lon="-0.5237841"><ele>0.0</ele><time>2026-04-29T14:21:10.092Z</time></trkpt><trkpt lat="37.5358743" lon="-0.5237058"><ele>0.0</ele><time>2026-04-29T14:21:11.093Z</time></trkpt><trkpt lat="37.5359443" lon="-0.5236351"><ele>0.0</ele><time>2026-04-29T14:21:12.093Z</time></trkpt><trkpt lat="37.5360176" lon="-0.5235642"><ele>0.0</ele><time>2026-04-29T14:21:13.094Z</time></trkpt><trkpt lat="37.5360698" lon="-0.523445"><ele>0.0</ele><time>2026-04-29T14:21:15.106Z</time></trkpt><trkpt lat="37.5361495" lon="-0.523361"><ele>0.0</ele><time>2026-04-29T14:21:16.111Z</time></trkpt><trkpt lat="37.5362359" lon="-0.5233038"><ele>0.0</ele><time>2026-04-29T14:21:17.116Z</time></trkpt><trkpt lat="37.5363208" lon="-0.5232445"><ele>0.0</ele><time>2026-04-29T14:21:18.122Z</time></trkpt><trkpt lat="37.5364042" lon="-0.5231804"><ele>0.0</ele><time>2026-04-29T14:21:19.128Z</time></trkpt><trkpt lat="37.5364873" lon="-0.5231074"><ele>0.0</ele><time>2026-04-29T14:21:20.133Z</time></trkpt><trkpt lat="37.5365567" lon="-0.5230258"><ele>0.0</ele><time>2026-04-29T14:21:21.139Z</time></trkpt><trkpt lat="37.5366222" lon="-0.5229499"><ele>0.0</ele><time>2026-04-29T14:21:22.145Z</time></trkpt><trkpt lat="37.5366879" lon="-0.5228735"><ele>0.0</ele><time>2026-04-29T14:21:23.151Z</time></trkpt><trkpt lat="37.5368204" lon="-0.5227391"><ele>0.0</ele><time>2026-04-29T14:21:25.162Z</time></trkpt><trkpt lat="37.5368849" lon="-0.5226592"><ele>0.0</ele><time>2026-04-29T14:21:26.168Z</time></trkpt><trkpt lat="37.5369768" lon="-0.5226287"><ele>0.0</ele><time>2026-04-29T14:21:27.093Z</time></trkpt><trkpt lat="37.5370582" lon="-0.522569"><ele>0.0</ele><time>2026-04-29T14:21:28.092Z</time></trkpt><trkpt lat="37.5371316" lon="-0.5224897"><ele>0.0</ele><time>2026-04-29T14:21:29.093Z</time></trkpt><trkpt lat="37.5371907" lon="-0.5223801"><ele>0.0</ele><time>2026-04-29T14:21:31.095Z</time></trkpt><trkpt lat="37.5372786" lon="-0.5222875"><ele>0.0</ele><time>2026-04-29T14:21:32.101Z</time></trkpt><trkpt lat="37.5373769" lon="-0.5222317"><ele>0.0</ele><time>2026-04-29T14:21:33.106Z</time></trkpt><trkpt lat="37.5374633" lon="-0.522164"><ele>0.0</ele><time>2026-04-29T14:21:34.112Z</time></trkpt><trkpt lat="37.5375462" lon="-0.5220949"><ele>0.0</ele><time>2026-04-29T14:21:35.118Z</time></trkpt><trkpt lat="37.537619" lon="-0.5220196"><ele>0.0</ele><time>2026-04-29T14:21:36.124Z</time></trkpt><trkpt lat="37.5376757" lon="-0.521904"><ele>0.0</ele><time>2026-04-29T14:21:38.136Z</time></trkpt><trkpt lat="37.5377564" lon="-0.5218205"><ele>0.0</ele><time>2026-04-29T14:21:39.14Z</time></trkpt><trkpt lat="37.5378279" lon="-0.5217492"><ele>0.0</ele><time>2026-04-29T14:21:40.146Z</time></trkpt><trkpt lat="37.5379118" lon="-0.521705"><ele>0.0</ele><time>2026-04-29T14:21:41.152Z</time></trkpt><trkpt lat="37.5380072" lon="-0.5217041"><ele>0.0</ele><time>2026-04-29T14:21:42.157Z</time></trkpt><trkpt lat="37.538082" lon="-0.5215564"><ele>0.0</ele><time>2026-04-29T14:21:44.092Z</time></trkpt><trkpt lat="37.5382323" lon="-0.5214242"><ele>0.0</ele><time>2026-04-29T14:21:46.092Z</time></trkpt><trkpt lat="37.5383087" lon="-0.5213613"><ele>0.0</ele><time>2026-04-29T14:21:47.093Z</time></trkpt><trkpt lat="37.5383881" lon="-0.5213016"><ele>0.0</ele><time>2026-04-29T14:21:48.091Z</time></trkpt><trkpt lat="37.5384671" lon="-0.5212255"><ele>0.0</ele><time>2026-04-29T14:21:49.097Z</time></trkpt><trkpt lat="37.5385527" lon="-0.5211541"><ele>0.0</ele><time>2026-04-29T14:21:50.103Z</time></trkpt><trkpt lat="37.538631" lon="-0.5210653"><ele>0.0</ele><time>2026-04-29T14:21:51.108Z</time></trkpt><trkpt lat="37.5387079" lon="-0.5209861"><ele>0.0</ele><time>2026-04-29T14:21:52.114Z</time></trkpt><trkpt lat="37.5387745" lon="-0.5208944"><ele>0.0</ele><time>2026-04-29T14:21:53.119Z</time></trkpt><trkpt lat="37.5388353" lon="-0.5208094"><ele>0.0</ele><time>2026-04-29T14:21:54.125Z</time></trkpt><trkpt lat="37.5388912" lon="-0.5207087"><ele>0.0</ele><time>2026-04-29T14:21:55.131Z</time></trkpt><trkpt lat="37.5389578" lon="-0.5206209"><ele>0.0</ele><time>2026-04-29T14:21:56.136Z</time></trkpt><trkpt lat="37.5390387" lon="-0.5205554"><ele>0.0</ele><time>2026-04-29T14:21:57.142Z</time></trkpt><trkpt lat="37.5391109" lon="-0.5204858"><ele>0.0</ele><time>2026-04-29T14:21:58.147Z</time></trkpt><trkpt lat="37.5391764" lon="-0.5204019"><ele>0.0</ele><time>2026-04-29T14:21:59.154Z</time></trkpt><trkpt lat="37.5392432" lon="-0.5203299"><ele>0.0</ele><time>2026-04-29T14:22:00.159Z</time></trkpt><trkpt lat="37.5392968" lon="-0.5202471"><ele>0.0</ele><time>2026-04-29T14:22:01.164Z</time></trkpt><trkpt lat="37.5393644" lon="-0.5201782"><ele>0.0</ele><time>2026-04-29T14:22:02.091Z</time></trkpt><trkpt lat="37.5394644" lon="-0.5200886"><ele>0.0</ele><time>2026-04-29T14:22:04.092Z</time></trkpt><trkpt lat="37.5395353" lon="-0.520016"><ele>0.0</ele><time>2026-04-29T14:22:05.092Z</time></trkpt><trkpt lat="37.5396853" lon="-0.5198671"><ele>0.0</ele><time>2026-04-29T14:22:07.098Z</time></trkpt><trkpt lat="37.5397506" lon="-0.519785"><ele>0.0</ele><time>2026-04-29T14:22:08.104Z</time></trkpt><trkpt lat="37.5398256" lon="-0.5197112"><ele>0.0</ele><time>2026-04-29T14:22:09.109Z</time></trkpt><trkpt lat="37.5399041" lon="-0.5196344"><ele>0.0</ele><time>2026-04-29T14:22:10.116Z</time></trkpt><trkpt lat="37.5399786" lon="-0.5195506"><ele>0.0</ele><time>2026-04-29T14:22:11.12Z</time></trkpt><trkpt lat="37.5400406" lon="-0.5194425"><ele>0.0</ele><time>2026-04-29T14:22:12.126Z</time></trkpt><trkpt lat="37.5401025" lon="-0.5193404"><ele>0.0</ele><time>2026-04-29T14:22:13.132Z</time></trkpt><trkpt lat="37.540177" lon="-0.5192583"><ele>0.0</ele><time>2026-04-29T14:22:14.138Z</time></trkpt><trkpt lat="37.5402541" lon="-0.5191825"><ele>0.0</ele><time>2026-04-29T14:22:15.143Z</time></trkpt><trkpt lat="37.540332" lon="-0.5191109"><ele>0.0</ele><time>2026-04-29T14:22:16.15Z</time></trkpt><trkpt lat="37.5403963" lon="-0.5189769"><ele>0.0</ele><time>2026-04-29T14:22:18.161Z</time></trkpt><trkpt lat="37.5404727" lon="-0.518872"><ele>0.0</ele><time>2026-04-29T14:22:19.166Z</time></trkpt><trkpt lat="37.5405601" lon="-0.5187858"><ele>0.0</ele><time>2026-04-29T14:22:20.171Z</time></trkpt><trkpt lat="37.5406403" lon="-0.5187222"><ele>0.0</ele><time>2026-04-29T14:22:21.091Z</time></trkpt><trkpt lat="37.540718" lon="-0.5186508"><ele>0.0</ele><time>2026-04-29T14:22:22.091Z</time></trkpt><trkpt lat="37.5407927" lon="-0.5185717"><ele>0.0</ele><time>2026-04-29T14:22:23.091Z</time></trkpt><trkpt lat="37.5408644" lon="-0.5184966"><ele>0.0</ele><time>2026-04-29T14:22:24.095Z</time></trkpt><trkpt lat="37.5409284" lon="-0.5184146"><ele>0.0</ele><time>2026-04-29T14:22:25.099Z</time></trkpt><trkpt lat="37.5409885" lon="-0.5183505"><ele>0.0</ele><time>2026-04-29T14:22:26.105Z</time></trkpt><trkpt lat="37.5411318" lon="-0.5182199"><ele>0.0</ele><time>2026-04-29T14:22:28.117Z</time></trkpt><trkpt lat="37.5411805" lon="-0.5180836"><ele>0.0</ele><time>2026-04-29T14:22:30.128Z</time></trkpt><trkpt lat="37.5412589" lon="-0.51799"><ele>0.0</ele><time>2026-04-29T14:22:31.133Z</time></trkpt><trkpt lat="37.541346" lon="-0.5179226"><ele>0.0</ele><time>2026-04-29T14:22:32.139Z</time></trkpt><trkpt lat="37.5414202" lon="-0.517856"><ele>0.0</ele><time>2026-04-29T14:22:33.145Z</time></trkpt><trkpt lat="37.5414912" lon="-0.5177875"><ele>0.0</ele><time>2026-04-29T14:22:34.151Z</time></trkpt><trkpt lat="37.5415623" lon="-0.5177205"><ele>0.0</ele><time>2026-04-29T14:22:35.157Z</time></trkpt><trkpt lat="37.5416311" lon="-0.5176575"><ele>0.0</ele><time>2026-04-29T14:22:36.161Z</time></trkpt><trkpt lat="37.5417062" lon="-0.5175955"><ele>0.0</ele><time>2026-04-29T14:22:37.168Z</time></trkpt><trkpt lat="37.5417878" lon="-0.5175315"><ele>0.0</ele><time>2026-04-29T14:22:38.174Z</time></trkpt><trkpt lat="37.5418625" lon="-0.51745"><ele>0.0</ele><time>2026-04-29T14:22:39.091Z</time></trkpt><trkpt lat="37.5419433" lon="-0.5173653"><ele>0.0</ele><time>2026-04-29T14:22:40.092Z</time></trkpt><trkpt lat="37.5420265" lon="-0.5172798"><ele>0.0</ele><time>2026-04-29T14:22:41.091Z</time></trkpt><trkpt lat="37.5421128" lon="-0.5172008"><ele>0.0</ele><time>2026-04-29T14:22:42.096Z</time></trkpt><trkpt lat="37.5421675" lon="-0.5170989"><ele>0.0</ele><time>2026-04-29T14:22:44.107Z</time></trkpt><trkpt lat="37.5423054" lon="-0.5170103"><ele>0.0</ele><time>2026-04-29T14:22:45.112Z</time></trkpt><trkpt lat="37.5423849" lon="-0.5169324"><ele>0.0</ele><time>2026-04-29T14:22:46.118Z</time></trkpt><trkpt lat="37.5424448" lon="-0.5168889"><ele>0.0</ele><time>2026-04-29T14:22:47.124Z</time></trkpt><trkpt lat="37.5425603" lon="-0.5167358"><ele>0.0</ele><time>2026-04-29T14:22:49.135Z</time></trkpt><trkpt lat="37.5426265" lon="-0.516666"><ele>0.0</ele><time>2026-04-29T14:22:50.141Z</time></trkpt><trkpt lat="37.5427024" lon="-0.5166078"><ele>0.0</ele><time>2026-04-29T14:22:51.147Z</time></trkpt><trkpt lat="37.5427785" lon="-0.5165492"><ele>0.0</ele><time>2026-04-29T14:22:52.153Z</time></trkpt><trkpt lat="37.5428493" lon="-0.5164647"><ele>0.0</ele><time>2026-04-29T14:22:53.157Z</time></trkpt><trkpt lat="37.5429094" lon="-0.5163709"><ele>0.0</ele><time>2026-04-29T14:22:54.092Z</time></trkpt><trkpt lat="37.5429755" lon="-0.5162812"><ele>0.0</ele><time>2026-04-29T14:22:55.17Z</time></trkpt><trkpt lat="37.5430318" lon="-0.5161893"><ele>0.0</ele><time>2026-04-29T14:22:56.091Z</time></trkpt><trkpt lat="37.543092" lon="-0.5160938"><ele>0.0</ele><time>2026-04-29T14:22:57.091Z</time></trkpt><trkpt lat="37.5431699" lon="-0.5160223"><ele>0.0</ele><time>2026-04-29T14:22:58.092Z</time></trkpt><trkpt lat="37.5432469" lon="-0.5159617"><ele>0.0</ele><time>2026-04-29T14:22:59.091Z</time></trkpt><trkpt lat="37.5433282" lon="-0.5159041"><ele>0.0</ele><time>2026-04-29T14:23:00.097Z</time></trkpt><trkpt lat="37.5434087" lon="-0.5158421"><ele>0.0</ele><time>2026-04-29T14:23:01.103Z</time></trkpt><trkpt lat="37.5434319" lon="-0.5157679"><ele>0.0</ele><time>2026-04-29T14:23:02.092Z</time></trkpt><trkpt lat="37.5434694" lon="-0.515684"><ele>0.0</ele><time>2026-04-29T14:23:03.113Z</time></trkpt><trkpt lat="37.5435489" lon="-0.5155867"><ele>0.0</ele><time>2026-04-29T14:23:04.119Z</time></trkpt><trkpt lat="37.5436335" lon="-0.5155143"><ele>0.0</ele><time>2026-04-29T14:23:05.125Z</time></trkpt><trkpt lat="37.5437092" lon="-0.5154505"><ele>0.0</ele><time>2026-04-29T14:23:06.131Z</time></trkpt><trkpt lat="37.5437864" lon="-0.5153967"><ele>0.0</ele><time>2026-04-29T14:23:07.136Z</time></trkpt><trkpt lat="37.5438621" lon="-0.5153387"><ele>0.0</ele><time>2026-04-29T14:23:08.143Z</time></trkpt><trkpt lat="37.5439757" lon="-0.5151818"><ele>0.0</ele><time>2026-04-29T14:23:10.153Z</time></trkpt><trkpt lat="37.5440285" lon="-0.5151052"><ele>0.0</ele><time>2026-04-29T14:23:11.159Z</time></trkpt><trkpt lat="37.5441055" lon="-0.5149708"><ele>0.0</ele><time>2026-04-29T14:23:13.091Z</time></trkpt><trkpt lat="37.5441691" lon="-0.5148765"><ele>0.0</ele><time>2026-04-29T14:23:14.091Z</time></trkpt><trkpt lat="37.5442345" lon="-0.514787"><ele>0.0</ele><time>2026-04-29T14:23:15.091Z</time></trkpt><trkpt lat="37.5443013" lon="-0.5147048"><ele>0.0</ele><time>2026-04-29T14:23:16.091Z</time></trkpt><trkpt lat="37.5443654" lon="-0.514619"><ele>0.0</ele><time>2026-04-29T14:23:17.093Z</time></trkpt><trkpt lat="37.544437" lon="-0.5145425"><ele>0.0</ele><time>2026-04-29T14:23:18.098Z</time></trkpt><trkpt lat="37.5445123" lon="-0.5144729"><ele>0.0</ele><time>2026-04-29T14:23:19.103Z</time></trkpt><trkpt lat="37.5445964" lon="-0.5144129"><ele>0.0</ele><time>2026-04-29T14:23:20.109Z</time></trkpt><trkpt lat="37.5446773" lon="-0.5143579"><ele>0.0</ele><time>2026-04-29T14:23:21.115Z</time></trkpt><trkpt lat="37.5447504" lon="-0.5142932"><ele>0.0</ele><time>2026-04-29T14:23:22.12Z</time></trkpt><trkpt lat="37.544816" lon="-0.514206"><ele>0.0</ele><time>2026-04-29T14:23:23.126Z</time></trkpt><trkpt lat="37.5448809" lon="-0.5141208"><ele>0.0</ele><time>2026-04-29T14:23:24.132Z</time></trkpt><trkpt lat="37.5449691" lon="-0.5140782"><ele>0.0</ele><time>2026-04-29T14:23:25.137Z</time></trkpt><trkpt lat="37.5450519" lon="-0.5140286"><ele>0.0</ele><time>2026-04-29T14:23:26.143Z</time></trkpt><trkpt lat="37.5451196" lon="-0.5139536"><ele>0.0</ele><time>2026-04-29T14:23:27.149Z</time></trkpt><trkpt lat="37.5451878" lon="-0.5138641"><ele>0.0</ele><time>2026-04-29T14:23:28.155Z</time></trkpt><trkpt lat="37.5452619" lon="-0.5137908"><ele>0.0</ele><time>2026-04-29T14:23:29.161Z</time></trkpt><trkpt lat="37.5454408" lon="-0.5136245"><ele>0.0</ele><time>2026-04-29T14:23:32.091Z</time></trkpt><trkpt lat="37.5455109" lon="-0.5135691"><ele>0.0</ele><time>2026-04-29T14:23:33.092Z</time></trkpt><trkpt lat="37.5455776" lon="-0.5135053"><ele>0.0</ele><time>2026-04-29T14:23:34.091Z</time></trkpt><trkpt lat="37.5456499" lon="-0.5134343"><ele>0.0</ele><time>2026-04-29T14:23:35.094Z</time></trkpt><trkpt lat="37.5457236" lon="-0.5133668"><ele>0.0</ele><time>2026-04-29T14:23:36.099Z</time></trkpt><trkpt lat="37.5458059" lon="-0.5133072"><ele>0.0</ele><time>2026-04-29T14:23:37.106Z</time></trkpt><trkpt lat="37.5458785" lon="-0.5132244"><ele>0.0</ele><time>2026-04-29T14:23:38.11Z</time></trkpt><trkpt lat="37.5459502" lon="-0.5131421"><ele>0.0</ele><time>2026-04-29T14:23:39.116Z</time></trkpt><trkpt lat="37.5460268" lon="-0.5130584"><ele>0.0</ele><time>2026-04-29T14:23:40.122Z</time></trkpt><trkpt lat="37.5461037" lon="-0.5129867"><ele>0.0</ele><time>2026-04-29T14:23:41.128Z</time></trkpt><trkpt lat="37.546163" lon="-0.5128979"><ele>0.0</ele><time>2026-04-29T14:23:42.133Z</time></trkpt><trkpt lat="37.5462275" lon="-0.5128215"><ele>0.0</ele><time>2026-04-29T14:23:43.14Z</time></trkpt><trkpt lat="37.5463027" lon="-0.5127615"><ele>0.0</ele><time>2026-04-29T14:23:44.144Z</time></trkpt><trkpt lat="37.5463762" lon="-0.5126906"><ele>0.0</ele><time>2026-04-29T14:23:45.151Z</time></trkpt><trkpt lat="37.5464142" lon="-0.5125558"><ele>0.0</ele><time>2026-04-29T14:23:47.161Z</time></trkpt><trkpt lat="37.5464943" lon="-0.5124695"><ele>0.0</ele><time>2026-04-29T14:23:48.167Z</time></trkpt><trkpt lat="37.5465573" lon="-0.5123951"><ele>0.0</ele><time>2026-04-29T14:23:49.173Z</time></trkpt><trkpt lat="37.5466258" lon="-0.5123368"><ele>0.0</ele><time>2026-04-29T14:23:50.091Z</time></trkpt><trkpt lat="37.5467603" lon="-0.5121883"><ele>0.0</ele><time>2026-04-29T14:23:52.092Z</time></trkpt><trkpt lat="37.5468281" lon="-0.5121179"><ele>0.0</ele><time>2026-04-29T14:23:53.096Z</time></trkpt><trkpt lat="37.5468959" lon="-0.5120501"><ele>0.0</ele><time>2026-04-29T14:23:54.101Z</time></trkpt><trkpt lat="37.5469597" lon="-0.5119808"><ele>0.0</ele><time>2026-04-29T14:23:55.106Z</time></trkpt><trkpt lat="37.5470179" lon="-0.5119009"><ele>0.0</ele><time>2026-04-29T14:23:56.112Z</time></trkpt><trkpt lat="37.5470816" lon="-0.5118255"><ele>0.0</ele><time>2026-04-29T14:23:57.118Z</time></trkpt><trkpt lat="37.5471424" lon="-0.5117551"><ele>0.0</ele><time>2026-04-29T14:23:58.124Z</time></trkpt><trkpt lat="37.5472079" lon="-0.5116917"><ele>0.0</ele><time>2026-04-29T14:23:59.129Z</time></trkpt><trkpt lat="37.5472768" lon="-0.5116315"><ele>0.0</ele><time>2026-04-29T14:24:00.135Z</time></trkpt><trkpt lat="37.5473469" lon="-0.5115677"><ele>0.0</ele><time>2026-04-29T14:24:01.14Z</time></trkpt><trkpt lat="37.5474108" lon="-0.5114879"><ele>0.0</ele><time>2026-04-29T14:24:02.146Z</time></trkpt><trkpt lat="37.5474745" lon="-0.5114079"><ele>0.0</ele><time>2026-04-29T14:24:03.153Z</time></trkpt><trkpt lat="37.5475433" lon="-0.5113363"><ele>0.0</ele><time>2026-04-29T14:24:04.157Z</time></trkpt><trkpt lat="37.5476339" lon="-0.511291"><ele>0.0</ele><time>2026-04-29T14:24:05.163Z</time></trkpt><trkpt lat="37.5477215" lon="-0.511245"><ele>0.0</ele><time>2026-04-29T14:24:06.169Z</time></trkpt><trkpt lat="37.5477661" lon="-0.5111325"><ele>0.0</ele><time>2026-04-29T14:24:07.091Z</time></trkpt><trkpt lat="37.5478179" lon="-0.5110373"><ele>0.0</ele><time>2026-04-29T14:24:08.092Z</time></trkpt><trkpt lat="37.547892" lon="-0.5109525"><ele>0.0</ele><time>2026-04-29T14:24:09.091Z</time></trkpt><trkpt lat="37.5479624" lon="-0.5108704"><ele>0.0</ele><time>2026-04-29T14:24:10.092Z</time></trkpt><trkpt lat="37.5480377" lon="-0.5107629"><ele>0.0</ele><time>2026-04-29T14:24:12.102Z</time></trkpt><trkpt lat="37.5482009" lon="-0.5106135"><ele>0.0</ele><time>2026-04-29T14:24:14.114Z</time></trkpt><trkpt lat="37.5482782" lon="-0.51054"><ele>0.0</ele><time>2026-04-29T14:24:15.12Z</time></trkpt><trkpt lat="37.5483439" lon="-0.5104563"><ele>0.0</ele><time>2026-04-29T14:24:16.126Z</time></trkpt><trkpt lat="37.548411" lon="-0.5103781"><ele>0.0</ele><time>2026-04-29T14:24:17.132Z</time></trkpt><trkpt lat="37.548478" lon="-0.5102937"><ele>0.0</ele><time>2026-04-29T14:24:18.136Z</time></trkpt><trkpt lat="37.5485549" lon="-0.5102157"><ele>0.0</ele><time>2026-04-29T14:24:19.143Z</time></trkpt><trkpt lat="37.5486364" lon="-0.5101448"><ele>0.0</ele><time>2026-04-29T14:24:20.149Z</time></trkpt><trkpt lat="37.5487077" lon="-0.5100674"><ele>0.0</ele><time>2026-04-29T14:24:21.153Z</time></trkpt><trkpt lat="37.5487775" lon="-0.5099907"><ele>0.0</ele><time>2026-04-29T14:24:22.159Z</time></trkpt><trkpt lat="37.5488486" lon="-0.5099212"><ele>0.0</ele><time>2026-04-29T14:24:23.165Z</time></trkpt><trkpt lat="37.5489107" lon="-0.5098602"><ele>0.0</ele><time>2026-04-29T14:24:24.092Z</time></trkpt><trkpt lat="37.5489872" lon="-0.5097864"><ele>0.0</ele><time>2026-04-29T14:24:25.176Z</time></trkpt><trkpt lat="37.5490518" lon="-0.5097102"><ele>0.0</ele><time>2026-04-29T14:24:26.092Z</time></trkpt><trkpt lat="37.5491115" lon="-0.5096098"><ele>0.0</ele><time>2026-04-29T14:24:28.093Z</time></trkpt><trkpt lat="37.5492048" lon="-0.5095346"><ele>0.0</ele><time>2026-04-29T14:24:29.098Z</time></trkpt><trkpt lat="37.5493023" lon="-0.5094675"><ele>0.0</ele><time>2026-04-29T14:24:30.105Z</time></trkpt><trkpt lat="37.5493921" lon="-0.5093873"><ele>0.0</ele><time>2026-04-29T14:24:31.11Z</time></trkpt><trkpt lat="37.5494732" lon="-0.5093068"><ele>0.0</ele><time>2026-04-29T14:24:32.115Z</time></trkpt><trkpt lat="37.5495472" lon="-0.5092371"><ele>0.0</ele><time>2026-04-29T14:24:33.122Z</time></trkpt><trkpt lat="37.5496831" lon="-0.5091079"><ele>0.0</ele><time>2026-04-29T14:24:35.132Z</time></trkpt><trkpt lat="37.5497527" lon="-0.5090537"><ele>0.0</ele><time>2026-04-29T14:24:36.139Z</time></trkpt><trkpt lat="37.5498202" lon="-0.5089792"><ele>0.0</ele><time>2026-04-29T14:24:37.144Z</time></trkpt><trkpt lat="37.5498883" lon="-0.5088929"><ele>0.0</ele><time>2026-04-29T14:24:38.149Z</time></trkpt><trkpt lat="37.549942" lon="-0.5087777"><ele>0.0</ele><time>2026-04-29T14:24:40.161Z</time></trkpt><trkpt lat="37.5500241" lon="-0.5086843"><ele>0.0</ele><time>2026-04-29T14:24:41.166Z</time></trkpt><trkpt lat="37.550102" lon="-0.5086149"><ele>0.0</ele><time>2026-04-29T14:24:42.091Z</time></trkpt><trkpt lat="37.5501719" lon="-0.5085374"><ele>0.0</ele><time>2026-04-29T14:24:43.092Z</time></trkpt><trkpt lat="37.5502444" lon="-0.5084583"><ele>0.0</ele><time>2026-04-29T14:24:44.091Z</time></trkpt><trkpt lat="37.5503073" lon="-0.5083682"><ele>0.0</ele><time>2026-04-29T14:24:45.091Z</time></trkpt><trkpt lat="37.5503716" lon="-0.5082812"><ele>0.0</ele><time>2026-04-29T14:24:46.094Z</time></trkpt><trkpt lat="37.5504247" lon="-0.508179"><ele>0.0</ele><time>2026-04-29T14:24:47.1Z</time></trkpt><trkpt lat="37.5504786" lon="-0.5080761"><ele>0.0</ele><time>2026-04-29T14:24:48.106Z</time></trkpt><trkpt lat="37.5505396" lon="-0.5079817"><ele>0.0</ele><time>2026-04-29T14:24:49.111Z</time></trkpt><trkpt lat="37.5505948" lon="-0.507896"><ele>0.0</ele><time>2026-04-29T14:24:50.118Z</time></trkpt><trkpt lat="37.5506483" lon="-0.5078106"><ele>0.0</ele><time>2026-04-29T14:24:51.122Z</time></trkpt><trkpt lat="37.5507164" lon="-0.5077374"><ele>0.0</ele><time>2026-04-29T14:24:52.129Z</time></trkpt><trkpt lat="37.5507806" lon="-0.5076609"><ele>0.0</ele><time>2026-04-29T14:24:53.135Z</time></trkpt><trkpt lat="37.5508525" lon="-0.5075817"><ele>0.0</ele><time>2026-04-29T14:24:54.139Z</time></trkpt><trkpt lat="37.5510161" lon="-0.5074449"><ele>0.0</ele><time>2026-04-29T14:24:56.151Z</time></trkpt><trkpt lat="37.5510947" lon="-0.5073792"><ele>0.0</ele><time>2026-04-29T14:24:57.156Z</time></trkpt><trkpt lat="37.551169" lon="-0.5073138"><ele>0.0</ele><time>2026-04-29T14:24:58.162Z</time></trkpt><trkpt lat="37.5512435" lon="-0.5072416"><ele>0.0</ele><time>2026-04-29T14:24:59.168Z</time></trkpt><trkpt lat="37.5513299" lon="-0.5071831"><ele>0.0</ele><time>2026-04-29T14:25:00.092Z</time></trkpt><trkpt lat="37.5514088" lon="-0.5071147"><ele>0.0</ele><time>2026-04-29T14:25:01.091Z</time></trkpt><trkpt lat="37.5514836" lon="-0.5070368"><ele>0.0</ele><time>2026-04-29T14:25:02.091Z</time></trkpt><trkpt lat="37.5515593" lon="-0.5069656"><ele>0.0</ele><time>2026-04-29T14:25:03.092Z</time></trkpt><trkpt lat="37.5516359" lon="-0.5068951"><ele>0.0</ele><time>2026-04-29T14:25:04.097Z</time></trkpt><trkpt lat="37.551714" lon="-0.5068199"><ele>0.0</ele><time>2026-04-29T14:25:05.101Z</time></trkpt><trkpt lat="37.5517797" lon="-0.5067273"><ele>0.0</ele><time>2026-04-29T14:25:06.107Z</time></trkpt><trkpt lat="37.5518503" lon="-0.5066133"><ele>0.0</ele><time>2026-04-29T14:25:08.118Z</time></trkpt><trkpt lat="37.5519289" lon="-0.5065256"><ele>0.0</ele><time>2026-04-29T14:25:09.124Z</time></trkpt><trkpt lat="37.5519977" lon="-0.5064592"><ele>0.0</ele><time>2026-04-29T14:25:10.13Z</time></trkpt><trkpt lat="37.5520638" lon="-0.5063891"><ele>0.0</ele><time>2026-04-29T14:25:11.136Z</time></trkpt><trkpt lat="37.552141" lon="-0.5063462"><ele>0.0</ele><time>2026-04-29T14:25:12.142Z</time></trkpt><trkpt lat="37.5522242" lon="-0.5063055"><ele>0.0</ele><time>2026-04-29T14:25:13.148Z</time></trkpt><trkpt lat="37.5523007" lon="-0.5062459"><ele>0.0</ele><time>2026-04-29T14:25:14.153Z</time></trkpt><trkpt lat="37.5523644" lon="-0.5061735"><ele>0.0</ele><time>2026-04-29T14:25:15.158Z</time></trkpt><trkpt lat="37.5524264" lon="-0.5060945"><ele>0.0</ele><time>2026-04-29T14:25:16.165Z</time></trkpt><trkpt lat="37.5525485" lon="-0.505929"><ele>0.0</ele><time>2026-04-29T14:25:18.092Z</time></trkpt><trkpt lat="37.5526236" lon="-0.5058651"><ele>0.0</ele><time>2026-04-29T14:25:19.091Z</time></trkpt><trkpt lat="37.5526914" lon="-0.5057792"><ele>0.0</ele><time>2026-04-29T14:25:20.092Z</time></trkpt><trkpt lat="37.5527526" lon="-0.5056905"><ele>0.0</ele><time>2026-04-29T14:25:21.093Z</time></trkpt><trkpt lat="37.5528105" lon="-0.5055964"><ele>0.0</ele><time>2026-04-29T14:25:22.097Z</time></trkpt><trkpt lat="37.552878" lon="-0.5055059"><ele>0.0</ele><time>2026-04-29T14:25:23.103Z</time></trkpt><trkpt lat="37.5529366" lon="-0.5054634"><ele>0.0</ele><time>2026-04-29T14:25:24.091Z</time></trkpt><trkpt lat="37.5529696" lon="-0.505377"><ele>0.0</ele><time>2026-04-29T14:25:25.114Z</time></trkpt><trkpt lat="37.5530634" lon="-0.5052807"><ele>0.0</ele><time>2026-04-29T14:25:26.121Z</time></trkpt><trkpt lat="37.5531551" lon="-0.5052023"><ele>0.0</ele><time>2026-04-29T14:25:27.127Z</time></trkpt><trkpt lat="37.5532282" lon="-0.5051202"><ele>0.0</ele><time>2026-04-29T14:25:28.133Z</time></trkpt><trkpt lat="37.5532969" lon="-0.5050469"><ele>0.0</ele><time>2026-04-29T14:25:29.138Z</time></trkpt><trkpt lat="37.5533668" lon="-0.5049956"><ele>0.0</ele><time>2026-04-29T14:25:30.143Z</time></trkpt><trkpt lat="37.5534375" lon="-0.5049454"><ele>0.0</ele><time>2026-04-29T14:25:31.15Z</time></trkpt><trkpt lat="37.5535008" lon="-0.5048572"><ele>0.0</ele><time>2026-04-29T14:25:32.154Z</time></trkpt><trkpt lat="37.5535696" lon="-0.5047705"><ele>0.0</ele><time>2026-04-29T14:25:33.16Z</time></trkpt><trkpt lat="37.5536447" lon="-0.5046928"><ele>0.0</ele><time>2026-04-29T14:25:34.166Z</time></trkpt><trkpt lat="37.5537492" lon="-0.5046005"><ele>0.0</ele><time>2026-04-29T14:25:36.092Z</time></trkpt><trkpt lat="37.5538208" lon="-0.5045293"><ele>0.0</ele><time>2026-04-29T14:25:37.091Z</time></trkpt><trkpt lat="37.5539668" lon="-0.5043783"><ele>0.0</ele><time>2026-04-29T14:25:39.093Z</time></trkpt><trkpt lat="37.5540346" lon="-0.5043045"><ele>0.0</ele><time>2026-04-29T14:25:40.1Z</time></trkpt><trkpt lat="37.5541022" lon="-0.5042364"><ele>0.0</ele><time>2026-04-29T14:25:41.106Z</time></trkpt><trkpt lat="37.554172" lon="-0.5041669"><ele>0.0</ele><time>2026-04-29T14:25:42.112Z</time></trkpt><trkpt lat="37.5542427" lon="-0.5040927"><ele>0.0</ele><time>2026-04-29T14:25:43.117Z</time></trkpt><trkpt lat="37.554315" lon="-0.5040132"><ele>0.0</ele><time>2026-04-29T14:25:44.122Z</time></trkpt><trkpt lat="37.5543841" lon="-0.503938"><ele>0.0</ele><time>2026-04-29T14:25:45.128Z</time></trkpt><trkpt lat="37.5544511" lon="-0.5038578"><ele>0.0</ele><time>2026-04-29T14:25:46.133Z</time></trkpt><trkpt lat="37.5545191" lon="-0.5037722"><ele>0.0</ele><time>2026-04-29T14:25:47.139Z</time></trkpt><trkpt lat="37.5545811" lon="-0.503671"><ele>0.0</ele><time>2026-04-29T14:25:48.146Z</time></trkpt><trkpt lat="37.5546434" lon="-0.5035635"><ele>0.0</ele><time>2026-04-29T14:25:49.15Z</time></trkpt><trkpt lat="37.5547164" lon="-0.5034784"><ele>0.0</ele><time>2026-04-29T14:25:50.156Z</time></trkpt><trkpt lat="37.5547821" lon="-0.5033901"><ele>0.0</ele><time>2026-04-29T14:25:52.168Z</time></trkpt><trkpt lat="37.5548838" lon="-0.5033356"><ele>0.0</ele><time>2026-04-29T14:25:53.091Z</time></trkpt><trkpt lat="37.5549535" lon="-0.5032674"><ele>0.0</ele><time>2026-04-29T14:25:54.091Z</time></trkpt><trkpt lat="37.5550256" lon="-0.5031945"><ele>0.0</ele><time>2026-04-29T14:25:55.091Z</time></trkpt><trkpt lat="37.5551032" lon="-0.5031214"><ele>0.0</ele><time>2026-04-29T14:25:56.092Z</time></trkpt><trkpt lat="37.5551728" lon="-0.5030491"><ele>0.0</ele><time>2026-04-29T14:25:57.096Z</time></trkpt><trkpt lat="37.5552484" lon="-0.5029866"><ele>0.0</ele><time>2026-04-29T14:25:58.101Z</time></trkpt><trkpt lat="37.555403" lon="-0.5028704"><ele>0.0</ele><time>2026-04-29T14:26:00.113Z</time></trkpt><trkpt lat="37.5554813" lon="-0.5028098"><ele>0.0</ele><time>2026-04-29T14:26:01.118Z</time></trkpt><trkpt lat="37.5555622" lon="-0.5027423"><ele>0.0</ele><time>2026-04-29T14:26:02.125Z</time></trkpt><trkpt lat="37.5556354" lon="-0.5026561"><ele>0.0</ele><time>2026-04-29T14:26:03.129Z</time></trkpt><trkpt lat="37.5557042" lon="-0.5025726"><ele>0.0</ele><time>2026-04-29T14:26:04.135Z</time></trkpt><trkpt lat="37.5557766" lon="-0.502493"><ele>0.0</ele><time>2026-04-29T14:26:05.142Z</time></trkpt><trkpt lat="37.555832" lon="-0.5023688"><ele>0.0</ele><time>2026-04-29T14:26:07.153Z</time></trkpt><trkpt lat="37.5559075" lon="-0.5022805"><ele>0.0</ele><time>2026-04-29T14:26:08.158Z</time></trkpt><trkpt lat="37.5559906" lon="-0.5022176"><ele>0.0</ele><time>2026-04-29T14:26:09.165Z</time></trkpt><trkpt lat="37.5560726" lon="-0.5021544"><ele>0.0</ele><time>2026-04-29T14:26:10.169Z</time></trkpt><trkpt lat="37.556138" lon="-0.5020838"><ele>0.0</ele><time>2026-04-29T14:26:11.091Z</time></trkpt><trkpt lat="37.5562028" lon="-0.5020072"><ele>0.0</ele><time>2026-04-29T14:26:12.092Z</time></trkpt><trkpt lat="37.5562767" lon="-0.5019374"><ele>0.0</ele><time>2026-04-29T14:26:13.092Z</time></trkpt><trkpt lat="37.5563463" lon="-0.5018684"><ele>0.0</ele><time>2026-04-29T14:26:14.091Z</time></trkpt><trkpt lat="37.5564403" lon="-0.5018438"><ele>0.0</ele><time>2026-04-29T14:26:15.098Z</time></trkpt><trkpt lat="37.5565093" lon="-0.5017931"><ele>0.0</ele><time>2026-04-29T14:26:17.109Z</time></trkpt><trkpt lat="37.5565867" lon="-0.5017258"><ele>0.0</ele><time>2026-04-29T14:26:18.115Z</time></trkpt><trkpt lat="37.5566558" lon="-0.5016559"><ele>0.0</ele><time>2026-04-29T14:26:19.12Z</time></trkpt><trkpt lat="37.5567979" lon="-0.5015145"><ele>0.0</ele><time>2026-04-29T14:26:21.132Z</time></trkpt><trkpt lat="37.556874" lon="-0.5014531"><ele>0.0</ele><time>2026-04-29T14:26:22.137Z</time></trkpt><trkpt lat="37.5569523" lon="-0.5014177"><ele>0.0</ele><time>2026-04-29T14:26:23.143Z</time></trkpt><trkpt lat="37.557028" lon="-0.5013673"><ele>0.0</ele><time>2026-04-29T14:26:24.148Z</time></trkpt><trkpt lat="37.557089" lon="-0.5012898"><ele>0.0</ele><time>2026-04-29T14:26:25.154Z</time></trkpt><trkpt lat="37.5571561" lon="-0.5011849"><ele>0.0</ele><time>2026-04-29T14:26:27.167Z</time></trkpt><trkpt lat="37.5572663" lon="-0.5010948"><ele>0.0</ele><time>2026-04-29T14:26:28.09Z</time></trkpt><trkpt lat="37.5573395" lon="-0.5010175"><ele>0.0</ele><time>2026-04-29T14:26:29.091Z</time></trkpt><trkpt lat="37.5574136" lon="-0.5009411"><ele>0.0</ele><time>2026-04-29T14:26:30.09Z</time></trkpt><trkpt lat="37.5574768" lon="-0.5008426"><ele>0.0</ele><time>2026-04-29T14:26:31.09Z</time></trkpt><trkpt lat="37.5575395" lon="-0.5007435"><ele>0.0</ele><time>2026-04-29T14:26:32.095Z</time></trkpt><trkpt lat="37.5576064" lon="-0.5006521"><ele>0.0</ele><time>2026-04-29T14:26:33.1Z</time></trkpt><trkpt lat="37.5576728" lon="-0.5005625"><ele>0.0</ele><time>2026-04-29T14:26:34.106Z</time></trkpt><trkpt lat="37.5577471" lon="-0.5004727"><ele>0.0</ele><time>2026-04-29T14:26:35.112Z</time></trkpt><trkpt lat="37.5578143" lon="-0.5003886"><ele>0.0</ele><time>2026-04-29T14:26:36.117Z</time></trkpt><trkpt lat="37.557851" lon="-0.50028"><ele>0.0</ele><time>2026-04-29T14:26:37.122Z</time></trkpt><trkpt lat="37.5578976" lon="-0.5001771"><ele>0.0</ele><time>2026-04-29T14:26:38.129Z</time></trkpt><trkpt lat="37.5579685" lon="-0.500096"><ele>0.0</ele><time>2026-04-29T14:26:39.134Z</time></trkpt><trkpt lat="37.5580316" lon="-0.5000862"><ele>0.0</ele><time>2026-04-29T14:26:40.09Z</time></trkpt><trkpt lat="37.5581631" lon="-0.4999252"><ele>0.0</ele><time>2026-04-29T14:26:42.152Z</time></trkpt><trkpt lat="37.5582299" lon="-0.4998269"><ele>0.0</ele><time>2026-04-29T14:26:43.156Z</time></trkpt><trkpt lat="37.5583009" lon="-0.4997427"><ele>0.0</ele><time>2026-04-29T14:26:44.163Z</time></trkpt><trkpt lat="37.558376" lon="-0.4996651"><ele>0.0</ele><time>2026-04-29T14:26:45.169Z</time></trkpt><trkpt lat="37.5584447" lon="-0.4995986"><ele>0.0</ele><time>2026-04-29T14:26:46.09Z</time></trkpt><trkpt lat="37.5585151" lon="-0.4995223"><ele>0.0</ele><time>2026-04-29T14:26:47.091Z</time></trkpt><trkpt lat="37.5585882" lon="-0.4994464"><ele>0.0</ele><time>2026-04-29T14:26:48.09Z</time></trkpt><trkpt lat="37.5586601" lon="-0.4993718"><ele>0.0</ele><time>2026-04-29T14:26:49.09Z</time></trkpt><trkpt lat="37.5587437" lon="-0.499301"><ele>0.0</ele><time>2026-04-29T14:26:50.096Z</time></trkpt><trkpt lat="37.5588261" lon="-0.499225"><ele>0.0</ele><time>2026-04-29T14:26:51.101Z</time></trkpt><trkpt lat="37.5588915" lon="-0.4991369"><ele>0.0</ele><time>2026-04-29T14:26:52.107Z</time></trkpt><trkpt lat="37.5589626" lon="-0.4990649"><ele>0.0</ele><time>2026-04-29T14:26:53.114Z</time></trkpt><trkpt lat="37.559047" lon="-0.499011"><ele>0.0</ele><time>2026-04-29T14:26:54.12Z</time></trkpt><trkpt lat="37.55913" lon="-0.4989423"><ele>0.0</ele><time>2026-04-29T14:26:55.124Z</time></trkpt><trkpt lat="37.5592504" lon="-0.4987952"><ele>0.0</ele><time>2026-04-29T14:26:58.141Z</time></trkpt><trkpt lat="37.559338" lon="-0.4987145"><ele>0.0</ele><time>2026-04-29T14:26:59.147Z</time></trkpt><trkpt lat="37.5594098" lon="-0.4986183"><ele>0.0</ele><time>2026-04-29T14:27:00.153Z</time></trkpt><trkpt lat="37.5595623" lon="-0.498432"><ele>0.0</ele><time>2026-04-29T14:27:02.164Z</time></trkpt><trkpt lat="37.5596437" lon="-0.4983769"><ele>0.0</ele><time>2026-04-29T14:27:03.091Z</time></trkpt><trkpt lat="37.5597159" lon="-0.4983097"><ele>0.0</ele><time>2026-04-29T14:27:04.091Z</time></trkpt><trkpt lat="37.5597845" lon="-0.4982415"><ele>0.0</ele><time>2026-04-29T14:27:05.09Z</time></trkpt><trkpt lat="37.5598553" lon="-0.4981635"><ele>0.0</ele><time>2026-04-29T14:27:06.09Z</time></trkpt><trkpt lat="37.5599285" lon="-0.4980868"><ele>0.0</ele><time>2026-04-29T14:27:07.093Z</time></trkpt><trkpt lat="37.5600028" lon="-0.4980128"><ele>0.0</ele><time>2026-04-29T14:27:08.098Z</time></trkpt><trkpt lat="37.5600601" lon="-0.49791"><ele>0.0</ele><time>2026-04-29T14:27:10.11Z</time></trkpt><trkpt lat="37.5601314" lon="-0.4978215"><ele>0.0</ele><time>2026-04-29T14:27:11.115Z</time></trkpt><trkpt lat="37.5602132" lon="-0.4977696"><ele>0.0</ele><time>2026-04-29T14:27:12.122Z</time></trkpt><trkpt lat="37.5602931" lon="-0.4977159"><ele>0.0</ele><time>2026-04-29T14:27:13.127Z</time></trkpt><trkpt lat="37.5603639" lon="-0.4976396"><ele>0.0</ele><time>2026-04-29T14:27:14.133Z</time></trkpt><trkpt lat="37.5604391" lon="-0.4975709"><ele>0.0</ele><time>2026-04-29T14:27:15.138Z</time></trkpt><trkpt lat="37.5605079" lon="-0.4974955"><ele>0.0</ele><time>2026-04-29T14:27:16.145Z</time></trkpt><trkpt lat="37.5605768" lon="-0.4974138"><ele>0.0</ele><time>2026-04-29T14:27:17.15Z</time></trkpt><trkpt lat="37.5606459" lon="-0.4973284"><ele>0.0</ele><time>2026-04-29T14:27:18.155Z</time></trkpt><trkpt lat="37.5607201" lon="-0.4972494"><ele>0.0</ele><time>2026-04-29T14:27:19.161Z</time></trkpt><trkpt lat="37.5607983" lon="-0.4971783"><ele>0.0</ele><time>2026-04-29T14:27:20.091Z</time></trkpt><trkpt lat="37.5608719" lon="-0.4970963"><ele>0.0</ele><time>2026-04-29T14:27:21.091Z</time></trkpt><trkpt lat="37.5609995" lon="-0.4969133"><ele>0.0</ele><time>2026-04-29T14:27:23.091Z</time></trkpt><trkpt lat="37.561066" lon="-0.4968459"><ele>0.0</ele><time>2026-04-29T14:27:24.091Z</time></trkpt><trkpt lat="37.5611367" lon="-0.4967825"><ele>0.0</ele><time>2026-04-29T14:27:25.094Z</time></trkpt><trkpt lat="37.5611897" lon="-0.4966727"><ele>0.0</ele><time>2026-04-29T14:27:27.107Z</time></trkpt><trkpt lat="37.56125" lon="-0.4965505"><ele>0.0</ele><time>2026-04-29T14:27:28.112Z</time></trkpt><trkpt lat="37.5613294" lon="-0.4964592"><ele>0.0</ele><time>2026-04-29T14:27:29.118Z</time></trkpt><trkpt lat="37.5613873" lon="-0.4963553"><ele>0.0</ele><time>2026-04-29T14:27:30.124Z</time></trkpt><trkpt lat="37.5614471" lon="-0.4962589"><ele>0.0</ele><time>2026-04-29T14:27:31.13Z</time></trkpt><trkpt lat="37.561519" lon="-0.4961821"><ele>0.0</ele><time>2026-04-29T14:27:32.135Z</time></trkpt><trkpt lat="37.5615875" lon="-0.4960989"><ele>0.0</ele><time>2026-04-29T14:27:33.14Z</time></trkpt><trkpt lat="37.5616463" lon="-0.4960006"><ele>0.0</ele><time>2026-04-29T14:27:34.146Z</time></trkpt><trkpt lat="37.5617132" lon="-0.4958987"><ele>0.0</ele><time>2026-04-29T14:27:35.152Z</time></trkpt><trkpt lat="37.5617951" lon="-0.4958158"><ele>0.0</ele><time>2026-04-29T14:27:36.157Z</time></trkpt><trkpt lat="37.5618545" lon="-0.495715"><ele>0.0</ele><time>2026-04-29T14:27:37.164Z</time></trkpt><trkpt lat="37.5619219" lon="-0.4956397"><ele>0.0</ele><time>2026-04-29T14:27:38.091Z</time></trkpt><trkpt lat="37.5620122" lon="-0.4955363"><ele>0.0</ele><time>2026-04-29T14:27:40.09Z</time></trkpt><trkpt lat="37.562078" lon="-0.4954583"><ele>0.0</ele><time>2026-04-29T14:27:41.09Z</time></trkpt><trkpt lat="37.5621454" lon="-0.4953822"><ele>0.0</ele><time>2026-04-29T14:27:42.092Z</time></trkpt><trkpt lat="37.5622932" lon="-0.495245"><ele>0.0</ele><time>2026-04-29T14:27:44.102Z</time></trkpt><trkpt lat="37.5623558" lon="-0.4951625"><ele>0.0</ele><time>2026-04-29T14:27:45.108Z</time></trkpt><trkpt lat="37.5624155" lon="-0.4950792"><ele>0.0</ele><time>2026-04-29T14:27:46.115Z</time></trkpt><trkpt lat="37.5624816" lon="-0.4950195"><ele>0.0</ele><time>2026-04-29T14:27:47.121Z</time></trkpt><trkpt lat="37.5625622" lon="-0.494974"><ele>0.0</ele><time>2026-04-29T14:27:48.125Z</time></trkpt><trkpt lat="37.5626473" lon="-0.4949382"><ele>0.0</ele><time>2026-04-29T14:27:49.131Z</time></trkpt><trkpt lat="37.562734" lon="-0.4949518"><ele>0.0</ele><time>2026-04-29T14:27:50.137Z</time></trkpt><trkpt lat="37.5627257" lon="-0.4948665"><ele>0.0</ele><time>2026-04-29T14:27:52.148Z</time></trkpt><trkpt lat="37.5628374" lon="-0.4948207"><ele>0.0</ele><time>2026-04-29T14:27:53.155Z</time></trkpt><trkpt lat="37.5629498" lon="-0.4947522"><ele>0.0</ele><time>2026-04-29T14:27:54.161Z</time></trkpt><trkpt lat="37.5630357" lon="-0.4946824"><ele>0.0</ele><time>2026-04-29T14:27:55.165Z</time></trkpt><trkpt lat="37.5631011" lon="-0.4946024"><ele>0.0</ele><time>2026-04-29T14:27:56.091Z</time></trkpt><trkpt lat="37.5631659" lon="-0.4945216"><ele>0.0</ele><time>2026-04-29T14:27:57.09Z</time></trkpt><trkpt lat="37.5632274" lon="-0.4944551"><ele>0.0</ele><time>2026-04-29T14:27:58.091Z</time></trkpt><trkpt lat="37.5632932" lon="-0.4943915"><ele>0.0</ele><time>2026-04-29T14:27:59.09Z</time></trkpt><trkpt lat="37.5633559" lon="-0.4943217"><ele>0.0</ele><time>2026-04-29T14:28:00.094Z</time></trkpt><trkpt lat="37.5634331" lon="-0.4942603"><ele>0.0</ele><time>2026-04-29T14:28:01.099Z</time></trkpt><trkpt lat="37.5635058" lon="-0.494203"><ele>0.0</ele><time>2026-04-29T14:28:02.105Z</time></trkpt><trkpt lat="37.5635797" lon="-0.4941579"><ele>0.0</ele><time>2026-04-29T14:28:03.112Z</time></trkpt><trkpt lat="37.5637032" lon="-0.4939965"><ele>0.0</ele><time>2026-04-29T14:28:05.123Z</time></trkpt><trkpt lat="37.5637634" lon="-0.4939123"><ele>0.0</ele><time>2026-04-29T14:28:06.129Z</time></trkpt><trkpt lat="37.5638214" lon="-0.4938361"><ele>0.0</ele><time>2026-04-29T14:28:07.135Z</time></trkpt><trkpt lat="37.5638892" lon="-0.4937633"><ele>0.0</ele><time>2026-04-29T14:28:08.139Z</time></trkpt><trkpt lat="37.5639574" lon="-0.4936947"><ele>0.0</ele><time>2026-04-29T14:28:09.145Z</time></trkpt><trkpt lat="37.5640121" lon="-0.4935994"><ele>0.0</ele><time>2026-04-29T14:28:10.151Z</time></trkpt><trkpt lat="37.5640656" lon="-0.4934902"><ele>0.0</ele><time>2026-04-29T14:28:11.157Z</time></trkpt><trkpt lat="37.5641444" lon="-0.4933962"><ele>0.0</ele><time>2026-04-29T14:28:12.162Z</time></trkpt><trkpt lat="37.5642134" lon="-0.4933003"><ele>0.0</ele><time>2026-04-29T14:28:13.09Z</time></trkpt><trkpt lat="37.5642841" lon="-0.4932141"><ele>0.0</ele><time>2026-04-29T14:28:14.09Z</time></trkpt><trkpt lat="37.5643574" lon="-0.4931298"><ele>0.0</ele><time>2026-04-29T14:28:15.091Z</time></trkpt><trkpt lat="37.564424" lon="-0.4930445"><ele>0.0</ele><time>2026-04-29T14:28:16.09Z</time></trkpt><trkpt lat="37.5644917" lon="-0.4929677"><ele>0.0</ele><time>2026-04-29T14:28:17.091Z</time></trkpt><trkpt lat="37.5645687" lon="-0.4929001"><ele>0.0</ele><time>2026-04-29T14:28:18.097Z</time></trkpt><trkpt lat="37.5646444" lon="-0.4928118"><ele>0.0</ele><time>2026-04-29T14:28:19.102Z</time></trkpt><trkpt lat="37.5647285" lon="-0.4927221"><ele>0.0</ele><time>2026-04-29T14:28:20.109Z</time></trkpt><trkpt lat="37.5648081" lon="-0.4926324"><ele>0.0</ele><time>2026-04-29T14:28:21.114Z</time></trkpt><trkpt lat="37.5648845" lon="-0.4925486"><ele>0.0</ele><time>2026-04-29T14:28:22.119Z</time></trkpt><trkpt lat="37.5649449" lon="-0.4924459"><ele>0.0</ele><time>2026-04-29T14:28:23.126Z</time></trkpt><trkpt lat="37.5650081" lon="-0.4923597"><ele>0.0</ele><time>2026-04-29T14:28:24.131Z</time></trkpt><trkpt lat="37.565145" lon="-0.4922143"><ele>0.0</ele><time>2026-04-29T14:28:26.143Z</time></trkpt><trkpt lat="37.5652174" lon="-0.492139"><ele>0.0</ele><time>2026-04-29T14:28:27.148Z</time></trkpt><trkpt lat="37.5653655" lon="-0.4919755"><ele>0.0</ele><time>2026-04-29T14:28:30.165Z</time></trkpt><trkpt lat="37.56546" lon="-0.4919213"><ele>0.0</ele><time>2026-04-29T14:28:31.091Z</time></trkpt><trkpt lat="37.5655226" lon="-0.4918661"><ele>0.0</ele><time>2026-04-29T14:28:32.091Z</time></trkpt><trkpt lat="37.5655882" lon="-0.4917999"><ele>0.0</ele><time>2026-04-29T14:28:33.091Z</time></trkpt><trkpt lat="37.5656689" lon="-0.4917522"><ele>0.0</ele><time>2026-04-29T14:28:34.091Z</time></trkpt><trkpt lat="37.5657463" lon="-0.4916986"><ele>0.0</ele><time>2026-04-29T14:28:35.093Z</time></trkpt><trkpt lat="37.5658279" lon="-0.4916501"><ele>0.0</ele><time>2026-04-29T14:28:36.1Z</time></trkpt><trkpt lat="37.5659109" lon="-0.4915946"><ele>0.0</ele><time>2026-04-29T14:28:37.106Z</time></trkpt><trkpt lat="37.565981" lon="-0.491462"><ele>0.0</ele><time>2026-04-29T14:28:39.117Z</time></trkpt><trkpt lat="37.566053" lon="-0.4913672"><ele>0.0</ele><time>2026-04-29T14:28:40.123Z</time></trkpt><trkpt lat="37.5661296" lon="-0.4912827"><ele>0.0</ele><time>2026-04-29T14:28:41.129Z</time></trkpt><trkpt lat="37.5662119" lon="-0.4912106"><ele>0.0</ele><time>2026-04-29T14:28:42.134Z</time></trkpt><trkpt lat="37.5663033" lon="-0.4911671"><ele>0.0</ele><time>2026-04-29T14:28:43.139Z</time></trkpt><trkpt lat="37.5663937" lon="-0.4911451"><ele>0.0</ele><time>2026-04-29T14:28:44.145Z</time></trkpt><trkpt lat="37.5665427" lon="-0.4910245"><ele>0.0</ele><time>2026-04-29T14:28:46.157Z</time></trkpt><trkpt lat="37.5666028" lon="-0.4909368"><ele>0.0</ele><time>2026-04-29T14:28:47.163Z</time></trkpt><trkpt lat="37.5666688" lon="-0.4908447"><ele>0.0</ele><time>2026-04-29T14:28:48.168Z</time></trkpt><trkpt lat="37.5667332" lon="-0.4907757"><ele>0.0</ele><time>2026-04-29T14:28:49.09Z</time></trkpt><trkpt lat="37.5668181" lon="-0.4907131"><ele>0.0</ele><time>2026-04-29T14:28:50.18Z</time></trkpt><trkpt lat="37.5668859" lon="-0.4906192"><ele>0.0</ele><time>2026-04-29T14:28:51.091Z</time></trkpt><trkpt lat="37.5669564" lon="-0.490533"><ele>0.0</ele><time>2026-04-29T14:28:52.091Z</time></trkpt><trkpt lat="37.5670205" lon="-0.4904466"><ele>0.0</ele><time>2026-04-29T14:28:53.096Z</time></trkpt><trkpt lat="37.5670807" lon="-0.4903573"><ele>0.0</ele><time>2026-04-29T14:28:54.102Z</time></trkpt><trkpt lat="37.5671483" lon="-0.4902665"><ele>0.0</ele><time>2026-04-29T14:28:55.107Z</time></trkpt><trkpt lat="37.5672306" lon="-0.4901979"><ele>0.0</ele><time>2026-04-29T14:28:56.113Z</time></trkpt><trkpt lat="37.5673257" lon="-0.4900928"><ele>0.0</ele><time>2026-04-29T14:28:58.126Z</time></trkpt><trkpt lat="37.5674231" lon="-0.4900183"><ele>0.0</ele><time>2026-04-29T14:28:59.13Z</time></trkpt><trkpt lat="37.5675076" lon="-0.4899688"><ele>0.0</ele><time>2026-04-29T14:29:00.137Z</time></trkpt><trkpt lat="37.5675772" lon="-0.4899112"><ele>0.0</ele><time>2026-04-29T14:29:01.142Z</time></trkpt><trkpt lat="37.5676399" lon="-0.4898243"><ele>0.0</ele><time>2026-04-29T14:29:02.147Z</time></trkpt><trkpt lat="37.5677071" lon="-0.4897354"><ele>0.0</ele><time>2026-04-29T14:29:03.154Z</time></trkpt><trkpt lat="37.5677829" lon="-0.4896523"><ele>0.0</ele><time>2026-04-29T14:29:04.159Z</time></trkpt><trkpt lat="37.5678612" lon="-0.4895796"><ele>0.0</ele><time>2026-04-29T14:29:05.165Z</time></trkpt><trkpt lat="37.5680003" lon="-0.4894403"><ele>0.0</ele><time>2026-04-29T14:29:07.09Z</time></trkpt><trkpt lat="37.5680781" lon="-0.489373"><ele>0.0</ele><time>2026-04-29T14:29:08.091Z</time></trkpt><trkpt lat="37.5681464" lon="-0.489262"><ele>0.0</ele><time>2026-04-29T14:29:10.093Z</time></trkpt><trkpt lat="37.5682478" lon="-0.4891948"><ele>0.0</ele><time>2026-04-29T14:29:11.099Z</time></trkpt><trkpt lat="37.5683355" lon="-0.4891558"><ele>0.0</ele><time>2026-04-29T14:29:12.104Z</time></trkpt><trkpt lat="37.5684085" lon="-0.4890976"><ele>0.0</ele><time>2026-04-29T14:29:13.11Z</time></trkpt><trkpt lat="37.5684708" lon="-0.489031"><ele>0.0</ele><time>2026-04-29T14:29:14.117Z</time></trkpt><trkpt lat="37.5685373" lon="-0.4889504"><ele>0.0</ele><time>2026-04-29T14:29:15.121Z</time></trkpt><trkpt lat="37.5686063" lon="-0.4888797"><ele>0.0</ele><time>2026-04-29T14:29:16.127Z</time></trkpt><trkpt lat="37.5686845" lon="-0.4888241"><ele>0.0</ele><time>2026-04-29T14:29:17.133Z</time></trkpt><trkpt lat="37.5687603" lon="-0.4887606"><ele>0.0</ele><time>2026-04-29T14:29:18.14Z</time></trkpt><trkpt lat="37.5688318" lon="-0.4886862"><ele>0.0</ele><time>2026-04-29T14:29:19.144Z</time></trkpt><trkpt lat="37.5689043" lon="-0.4886119"><ele>0.0</ele><time>2026-04-29T14:29:20.15Z</time></trkpt><trkpt lat="37.56907" lon="-0.488517"><ele>0.0</ele><time>2026-04-29T14:29:23.168Z</time></trkpt><trkpt lat="37.5691504" lon="-0.4883955"><ele>0.0</ele><time>2026-04-29T14:29:24.091Z</time></trkpt><trkpt lat="37.5692287" lon="-0.4883129"><ele>0.0</ele><time>2026-04-29T14:29:25.091Z</time></trkpt><trkpt lat="37.5693076" lon="-0.4882387"><ele>0.0</ele><time>2026-04-29T14:29:26.091Z</time></trkpt><trkpt lat="37.5694666" lon="-0.4881025"><ele>0.0</ele><time>2026-04-29T14:29:28.096Z</time></trkpt><trkpt lat="37.5695343" lon="-0.4880236"><ele>0.0</ele><time>2026-04-29T14:29:29.101Z</time></trkpt><trkpt lat="37.5695954" lon="-0.4879336"><ele>0.0</ele><time>2026-04-29T14:29:30.108Z</time></trkpt><trkpt lat="37.5696547" lon="-0.4878488"><ele>0.0</ele><time>2026-04-29T14:29:31.114Z</time></trkpt><trkpt lat="37.5697292" lon="-0.4877686"><ele>0.0</ele><time>2026-04-29T14:29:32.119Z</time></trkpt><trkpt lat="37.5698105" lon="-0.4876635"><ele>0.0</ele><time>2026-04-29T14:29:34.131Z</time></trkpt><trkpt lat="37.5698975" lon="-0.4875817"><ele>0.0</ele><time>2026-04-29T14:29:35.135Z</time></trkpt><trkpt lat="37.5699814" lon="-0.4875301"><ele>0.0</ele><time>2026-04-29T14:29:36.141Z</time></trkpt><trkpt lat="37.5700623" lon="-0.4874738"><ele>0.0</ele><time>2026-04-29T14:29:37.147Z</time></trkpt><trkpt lat="37.5701381" lon="-0.4874131"><ele>0.0</ele><time>2026-04-29T14:29:38.153Z</time></trkpt><trkpt lat="37.5702181" lon="-0.4873577"><ele>0.0</ele><time>2026-04-29T14:29:39.158Z</time></trkpt><trkpt lat="37.5702896" lon="-0.4872824"><ele>0.0</ele><time>2026-04-29T14:29:40.165Z</time></trkpt><trkpt lat="37.5703486" lon="-0.4871993"><ele>0.0</ele><time>2026-04-29T14:29:41.09Z</time></trkpt><trkpt lat="37.5704209" lon="-0.4871186"><ele>0.0</ele><time>2026-04-29T14:29:42.09Z</time></trkpt><trkpt lat="37.5705001" lon="-0.4870513"><ele>0.0</ele><time>2026-04-29T14:29:43.091Z</time></trkpt><trkpt lat="37.5705749" lon="-0.4869837"><ele>0.0</ele><time>2026-04-29T14:29:44.09Z</time></trkpt><trkpt lat="37.570648" lon="-0.4869168"><ele>0.0</ele><time>2026-04-29T14:29:45.092Z</time></trkpt><trkpt lat="37.5707209" lon="-0.4868507"><ele>0.0</ele><time>2026-04-29T14:29:46.098Z</time></trkpt><trkpt lat="37.5707785" lon="-0.486724"><ele>0.0</ele><time>2026-04-29T14:29:48.109Z</time></trkpt><trkpt lat="37.5709452" lon="-0.4865891"><ele>0.0</ele><time>2026-04-29T14:29:50.122Z</time></trkpt><trkpt lat="37.5710098" lon="-0.4865199"><ele>0.0</ele><time>2026-04-29T14:29:51.128Z</time></trkpt><trkpt lat="37.5710776" lon="-0.4864475"><ele>0.0</ele><time>2026-04-29T14:29:52.132Z</time></trkpt><trkpt lat="37.5711546" lon="-0.4863772"><ele>0.0</ele><time>2026-04-29T14:29:53.138Z</time></trkpt><trkpt lat="37.5712334" lon="-0.4863023"><ele>0.0</ele><time>2026-04-29T14:29:54.144Z</time></trkpt><trkpt lat="37.5713095" lon="-0.4862271"><ele>0.0</ele><time>2026-04-29T14:29:55.149Z</time></trkpt><trkpt lat="37.5713838" lon="-0.4861538"><ele>0.0</ele><time>2026-04-29T14:29:56.155Z</time></trkpt><trkpt lat="37.5714378" lon="-0.4860615"><ele>0.0</ele><time>2026-04-29T14:29:57.091Z</time></trkpt><trkpt lat="37.5715006" lon="-0.4859702"><ele>0.0</ele><time>2026-04-29T14:29:58.167Z</time></trkpt><trkpt lat="37.5715691" lon="-0.4858819"><ele>0.0</ele><time>2026-04-29T14:29:59.173Z</time></trkpt><trkpt lat="37.5716589" lon="-0.4858302"><ele>0.0</ele><time>2026-04-29T14:30:00.091Z</time></trkpt><trkpt lat="37.5717389" lon="-0.4857587"><ele>0.0</ele><time>2026-04-29T14:30:01.091Z</time></trkpt><trkpt lat="37.5718133" lon="-0.4856423"><ele>0.0</ele><time>2026-04-29T14:30:03.095Z</time></trkpt><trkpt lat="37.5719015" lon="-0.4855656"><ele>0.0</ele><time>2026-04-29T14:30:04.101Z</time></trkpt><trkpt lat="37.5719925" lon="-0.4855077"><ele>0.0</ele><time>2026-04-29T14:30:05.107Z</time></trkpt><trkpt lat="37.5720642" lon="-0.4854446"><ele>0.0</ele><time>2026-04-29T14:30:06.112Z</time></trkpt><trkpt lat="37.5721287" lon="-0.4853763"><ele>0.0</ele><time>2026-04-29T14:30:07.119Z</time></trkpt><trkpt lat="37.5722019" lon="-0.485308"><ele>0.0</ele><time>2026-04-29T14:30:08.123Z</time></trkpt><trkpt lat="37.5722778" lon="-0.4852431"><ele>0.0</ele><time>2026-04-29T14:30:09.129Z</time></trkpt><trkpt lat="37.572411" lon="-0.4850326"><ele>0.0</ele><time>2026-04-29T14:30:12.146Z</time></trkpt><trkpt lat="37.572508" lon="-0.4849523"><ele>0.0</ele><time>2026-04-29T14:30:13.153Z</time></trkpt><trkpt lat="37.5725869" lon="-0.4848873"><ele>0.0</ele><time>2026-04-29T14:30:14.158Z</time></trkpt><trkpt lat="37.5726647" lon="-0.4848179"><ele>0.0</ele><time>2026-04-29T14:30:15.164Z</time></trkpt><trkpt lat="37.5727422" lon="-0.484753"><ele>0.0</ele><time>2026-04-29T14:30:16.169Z</time></trkpt><trkpt lat="37.5728092" lon="-0.4846984"><ele>0.0</ele><time>2026-04-29T14:30:17.09Z</time></trkpt><trkpt lat="37.5728866" lon="-0.484634"><ele>0.0</ele><time>2026-04-29T14:30:18.182Z</time></trkpt><trkpt lat="37.5729466" lon="-0.4845651"><ele>0.0</ele><time>2026-04-29T14:30:19.09Z</time></trkpt><trkpt lat="37.573016" lon="-0.4844959"><ele>0.0</ele><time>2026-04-29T14:30:20.092Z</time></trkpt><trkpt lat="37.5730889" lon="-0.4844235"><ele>0.0</ele><time>2026-04-29T14:30:21.097Z</time></trkpt><trkpt lat="37.5731601" lon="-0.4843104"><ele>0.0</ele><time>2026-04-29T14:30:23.109Z</time></trkpt><trkpt lat="37.5732568" lon="-0.4842403"><ele>0.0</ele><time>2026-04-29T14:30:24.115Z</time></trkpt><trkpt lat="37.5733427" lon="-0.4841717"><ele>0.0</ele><time>2026-04-29T14:30:25.121Z</time></trkpt><trkpt lat="37.5734218" lon="-0.4840997"><ele>0.0</ele><time>2026-04-29T14:30:26.127Z</time></trkpt><trkpt lat="37.573495" lon="-0.4840204"><ele>0.0</ele><time>2026-04-29T14:30:27.132Z</time></trkpt><trkpt lat="37.5735829" lon="-0.4839617"><ele>0.0</ele><time>2026-04-29T14:30:28.138Z</time></trkpt><trkpt lat="37.5736667" lon="-0.4838945"><ele>0.0</ele><time>2026-04-29T14:30:29.144Z</time></trkpt><trkpt lat="37.5737447" lon="-0.483813"><ele>0.0</ele><time>2026-04-29T14:30:30.15Z</time></trkpt><trkpt lat="37.5738837" lon="-0.4836274"><ele>0.0</ele><time>2026-04-29T14:30:33.166Z</time></trkpt><trkpt lat="37.5739852" lon="-0.483579"><ele>0.0</ele><time>2026-04-29T14:30:34.09Z</time></trkpt><trkpt lat="37.5740632" lon="-0.4835133"><ele>0.0</ele><time>2026-04-29T14:30:35.179Z</time></trkpt><trkpt lat="37.5741253" lon="-0.4834466"><ele>0.0</ele><time>2026-04-29T14:30:36.091Z</time></trkpt><trkpt lat="37.5741972" lon="-0.4833771"><ele>0.0</ele><time>2026-04-29T14:30:37.091Z</time></trkpt><trkpt lat="37.5742717" lon="-0.4833066"><ele>0.0</ele><time>2026-04-29T14:30:38.094Z</time></trkpt><trkpt lat="37.5743504" lon="-0.483248"><ele>0.0</ele><time>2026-04-29T14:30:39.101Z</time></trkpt><trkpt lat="37.5744283" lon="-0.4831784"><ele>0.0</ele><time>2026-04-29T14:30:40.106Z</time></trkpt><trkpt lat="37.5745048" lon="-0.4831085"><ele>0.0</ele><time>2026-04-29T14:30:41.111Z</time></trkpt><trkpt lat="37.5745795" lon="-0.4830398"><ele>0.0</ele><time>2026-04-29T14:30:42.118Z</time></trkpt><trkpt lat="37.5746517" lon="-0.4829733"><ele>0.0</ele><time>2026-04-29T14:30:43.124Z</time></trkpt><trkpt lat="37.5747246" lon="-0.4829073"><ele>0.0</ele><time>2026-04-29T14:30:44.129Z</time></trkpt><trkpt lat="37.5747961" lon="-0.4828617"><ele>0.0</ele><time>2026-04-29T14:30:45.134Z</time></trkpt><trkpt lat="37.5748694" lon="-0.4828374"><ele>0.0</ele><time>2026-04-29T14:30:46.14Z</time></trkpt><trkpt lat="37.5749459" lon="-0.4827726"><ele>0.0</ele><time>2026-04-29T14:30:47.146Z</time></trkpt><trkpt lat="37.5749927" lon="-0.4826628"><ele>0.0</ele><time>2026-04-29T14:30:48.153Z</time></trkpt><trkpt lat="37.5750405" lon="-0.4825472"><ele>0.0</ele><time>2026-04-29T14:30:49.157Z</time></trkpt><trkpt lat="37.5750954" lon="-0.4824585"><ele>0.0</ele><time>2026-04-29T14:30:50.163Z</time></trkpt><trkpt lat="37.5751538" lon="-0.4823875"><ele>0.0</ele><time>2026-04-29T14:30:51.089Z</time></trkpt><trkpt lat="37.5753085" lon="-0.4822513"><ele>0.0</ele><time>2026-04-29T14:30:53.09Z</time></trkpt><trkpt lat="37.5753954" lon="-0.4822063"><ele>0.0</ele><time>2026-04-29T14:30:54.09Z</time></trkpt><trkpt lat="37.5754888" lon="-0.4821698"><ele>0.0</ele><time>2026-04-29T14:30:55.092Z</time></trkpt><trkpt lat="37.5755386" lon="-0.4820419"><ele>0.0</ele><time>2026-04-29T14:30:56.098Z</time></trkpt><trkpt lat="37.5755794" lon="-0.481914"><ele>0.0</ele><time>2026-04-29T14:30:57.104Z</time></trkpt><trkpt lat="37.5756426" lon="-0.481823"><ele>0.0</ele><time>2026-04-29T14:30:59.115Z</time></trkpt><trkpt lat="37.5757407" lon="-0.4817586"><ele>0.0</ele><time>2026-04-29T14:31:00.12Z</time></trkpt><trkpt lat="37.5758206" lon="-0.4817143"><ele>0.0</ele><time>2026-04-29T14:31:01.126Z</time></trkpt><trkpt lat="37.5758856" lon="-0.4816206"><ele>0.0</ele><time>2026-04-29T14:31:02.131Z</time></trkpt><trkpt lat="37.5759462" lon="-0.4815128"><ele>0.0</ele><time>2026-04-29T14:31:03.138Z</time></trkpt><trkpt lat="37.5760224" lon="-0.4814236"><ele>0.0</ele><time>2026-04-29T14:31:04.144Z</time></trkpt><trkpt lat="37.5760916" lon="-0.481331"><ele>0.0</ele><time>2026-04-29T14:31:05.15Z</time></trkpt><trkpt lat="37.576163" lon="-0.4812552"><ele>0.0</ele><time>2026-04-29T14:31:06.154Z</time></trkpt><trkpt lat="37.5762264" lon="-0.4812202"><ele>0.0</ele><time>2026-04-29T14:31:07.16Z</time></trkpt><trkpt lat="37.5763042" lon="-0.4811807"><ele>0.0</ele><time>2026-04-29T14:31:08.167Z</time></trkpt><trkpt lat="37.5763473" lon="-0.4810686"><ele>0.0</ele><time>2026-04-29T14:31:09.09Z</time></trkpt><trkpt lat="37.5764006" lon="-0.480969"><ele>0.0</ele><time>2026-04-29T14:31:10.09Z</time></trkpt><trkpt lat="37.576536" lon="-0.480879"><ele>0.0</ele><time>2026-04-29T14:31:12.089Z</time></trkpt><trkpt lat="37.5767005" lon="-0.4807476"><ele>0.0</ele><time>2026-04-29T14:31:14.1Z</time></trkpt><trkpt lat="37.5767853" lon="-0.4806722"><ele>0.0</ele><time>2026-04-29T14:31:15.107Z</time></trkpt><trkpt lat="37.576869" lon="-0.480606"><ele>0.0</ele><time>2026-04-29T14:31:16.112Z</time></trkpt><trkpt lat="37.5769506" lon="-0.4805519"><ele>0.0</ele><time>2026-04-29T14:31:17.118Z</time></trkpt><trkpt lat="37.5770327" lon="-0.4805044"><ele>0.0</ele><time>2026-04-29T14:31:18.124Z</time></trkpt><trkpt lat="37.5771087" lon="-0.4804348"><ele>0.0</ele><time>2026-04-29T14:31:19.13Z</time></trkpt><trkpt lat="37.5771855" lon="-0.4803568"><ele>0.0</ele><time>2026-04-29T14:31:20.134Z</time></trkpt><trkpt lat="37.5772547" lon="-0.4802661"><ele>0.0</ele><time>2026-04-29T14:31:21.14Z</time></trkpt><trkpt lat="37.5773101" lon="-0.4801616"><ele>0.0</ele><time>2026-04-29T14:31:22.147Z</time></trkpt><trkpt lat="37.577369" lon="-0.4800541"><ele>0.0</ele><time>2026-04-29T14:31:24.158Z</time></trkpt><trkpt lat="37.5774451" lon="-0.4799525"><ele>0.0</ele><time>2026-04-29T14:31:25.163Z</time></trkpt><trkpt lat="37.5775181" lon="-0.4798767"><ele>0.0</ele><time>2026-04-29T14:31:26.169Z</time></trkpt><trkpt lat="37.577595" lon="-0.4798157"><ele>0.0</ele><time>2026-04-29T14:31:27.09Z</time></trkpt><trkpt lat="37.5776617" lon="-0.4797293"><ele>0.0</ele><time>2026-04-29T14:31:28.09Z</time></trkpt><trkpt lat="37.5777314" lon="-0.4796401"><ele>0.0</ele><time>2026-04-29T14:31:29.089Z</time></trkpt><trkpt lat="37.5777976" lon="-0.4795602"><ele>0.0</ele><time>2026-04-29T14:31:30.092Z</time></trkpt><trkpt lat="37.5778637" lon="-0.4794736"><ele>0.0</ele><time>2026-04-29T14:31:31.097Z</time></trkpt><trkpt lat="37.5779248" lon="-0.4793746"><ele>0.0</ele><time>2026-04-29T14:31:32.104Z</time></trkpt><trkpt lat="37.5779841" lon="-0.4792819"><ele>0.0</ele><time>2026-04-29T14:31:33.11Z</time></trkpt><trkpt lat="37.5781343" lon="-0.4791264"><ele>0.0</ele><time>2026-04-29T14:31:35.12Z</time></trkpt><trkpt lat="37.5782079" lon="-0.4790449"><ele>0.0</ele><time>2026-04-29T14:31:36.126Z</time></trkpt><trkpt lat="37.5782875" lon="-0.4789643"><ele>0.0</ele><time>2026-04-29T14:31:37.132Z</time></trkpt><trkpt lat="37.5783629" lon="-0.4788799"><ele>0.0</ele><time>2026-04-29T14:31:38.137Z</time></trkpt><trkpt lat="37.5784219" lon="-0.4787827"><ele>0.0</ele><time>2026-04-29T14:31:40.15Z</time></trkpt><trkpt lat="37.5785089" lon="-0.4787104"><ele>0.0</ele><time>2026-04-29T14:31:41.156Z</time></trkpt><trkpt lat="37.5785873" lon="-0.4786547"><ele>0.0</ele><time>2026-04-29T14:31:42.16Z</time></trkpt><trkpt lat="37.5786478" lon="-0.4785963"><ele>0.0</ele><time>2026-04-29T14:31:43.09Z</time></trkpt><trkpt lat="37.5787188" lon="-0.4785288"><ele>0.0</ele><time>2026-04-29T14:31:44.09Z</time></trkpt><trkpt lat="37.5787917" lon="-0.4784554"><ele>0.0</ele><time>2026-04-29T14:31:45.089Z</time></trkpt><trkpt lat="37.5788654" lon="-0.4783934"><ele>0.0</ele><time>2026-04-29T14:31:46.089Z</time></trkpt><trkpt lat="37.5789435" lon="-0.4783195"><ele>0.0</ele><time>2026-04-29T14:31:47.089Z</time></trkpt><trkpt lat="37.5790197" lon="-0.4782503"><ele>0.0</ele><time>2026-04-29T14:31:48.094Z</time></trkpt><trkpt lat="37.579091" lon="-0.4781573"><ele>0.0</ele><time>2026-04-29T14:31:49.101Z</time></trkpt><trkpt lat="37.5791598" lon="-0.4780644"><ele>0.0</ele><time>2026-04-29T14:31:50.106Z</time></trkpt><trkpt lat="37.5792248" lon="-0.4779764"><ele>0.0</ele><time>2026-04-29T14:31:51.111Z</time></trkpt><trkpt lat="37.5793028" lon="-0.4779079"><ele>0.0</ele><time>2026-04-29T14:31:52.117Z</time></trkpt><trkpt lat="37.5793912" lon="-0.477862"><ele>0.0</ele><time>2026-04-29T14:31:53.123Z</time></trkpt><trkpt lat="37.5794795" lon="-0.4778429"><ele>0.0</ele><time>2026-04-29T14:31:54.129Z</time></trkpt><trkpt lat="37.5796468" lon="-0.477851"><ele>0.0</ele><time>2026-04-29T14:31:56.14Z</time></trkpt><trkpt lat="37.5796954" lon="-0.4777176"><ele>0.0</ele><time>2026-04-29T14:31:57.146Z</time></trkpt><trkpt lat="37.579744" lon="-0.4775951"><ele>0.0</ele><time>2026-04-29T14:31:58.152Z</time></trkpt><trkpt lat="37.5797936" lon="-0.4775095"><ele>0.0</ele><time>2026-04-29T14:32:00.163Z</time></trkpt><trkpt lat="37.5798914" lon="-0.4774304"><ele>0.0</ele><time>2026-04-29T14:32:01.17Z</time></trkpt><trkpt lat="37.579991" lon="-0.4773824"><ele>0.0</ele><time>2026-04-29T14:32:02.09Z</time></trkpt><trkpt lat="37.5800699" lon="-0.4773188"><ele>0.0</ele><time>2026-04-29T14:32:03.09Z</time></trkpt><trkpt lat="37.5801348" lon="-0.4772441"><ele>0.0</ele><time>2026-04-29T14:32:04.09Z</time></trkpt><trkpt lat="37.5802035" lon="-0.4771665"><ele>0.0</ele><time>2026-04-29T14:32:05.093Z</time></trkpt><trkpt lat="37.580274" lon="-0.4770968"><ele>0.0</ele><time>2026-04-29T14:32:06.097Z</time></trkpt><trkpt lat="37.5803445" lon="-0.4770315"><ele>0.0</ele><time>2026-04-29T14:32:07.104Z</time></trkpt><trkpt lat="37.5804085" lon="-0.4769634"><ele>0.0</ele><time>2026-04-29T14:32:08.109Z</time></trkpt><trkpt lat="37.5804943" lon="-0.4769188"><ele>0.0</ele><time>2026-04-29T14:32:09.116Z</time></trkpt><trkpt lat="37.5805798" lon="-0.4768791"><ele>0.0</ele><time>2026-04-29T14:32:10.12Z</time></trkpt><trkpt lat="37.58066" lon="-0.4768461"><ele>0.0</ele><time>2026-04-29T14:32:11.126Z</time></trkpt><trkpt lat="37.5807394" lon="-0.476771"><ele>0.0</ele><time>2026-04-29T14:32:12.132Z</time></trkpt><trkpt lat="37.5808087" lon="-0.4766858"><ele>0.0</ele><time>2026-04-29T14:32:13.139Z</time></trkpt><trkpt lat="37.5808623" lon="-0.4765907"><ele>0.0</ele><time>2026-04-29T14:32:14.144Z</time></trkpt><trkpt lat="37.5809333" lon="-0.4765255"><ele>0.0</ele><time>2026-04-29T14:32:15.15Z</time></trkpt><trkpt lat="37.5810888" lon="-0.4763991"><ele>0.0</ele><time>2026-04-29T14:32:17.161Z</time></trkpt><trkpt lat="37.5811593" lon="-0.4763273"><ele>0.0</ele><time>2026-04-29T14:32:18.167Z</time></trkpt><trkpt lat="37.5812121" lon="-0.476254"><ele>0.0</ele><time>2026-04-29T14:32:19.09Z</time></trkpt><trkpt lat="37.5812727" lon="-0.4761733"><ele>0.0</ele><time>2026-04-29T14:32:20.089Z</time></trkpt><trkpt lat="37.5813311" lon="-0.4760887"><ele>0.0</ele><time>2026-04-29T14:32:21.09Z</time></trkpt><trkpt lat="37.5813886" lon="-0.4759984"><ele>0.0</ele><time>2026-04-29T14:32:22.089Z</time></trkpt><trkpt lat="37.5814589" lon="-0.4759261"><ele>0.0</ele><time>2026-04-29T14:32:23.095Z</time></trkpt><trkpt lat="37.5815337" lon="-0.475867"><ele>0.0</ele><time>2026-04-29T14:32:24.101Z</time></trkpt><trkpt lat="37.5815809" lon="-0.4757801"><ele>0.0</ele><time>2026-04-29T14:32:26.113Z</time></trkpt><trkpt lat="37.5816789" lon="-0.475697"><ele>0.0</ele><time>2026-04-29T14:32:27.119Z</time></trkpt><trkpt lat="37.581749" lon="-0.4756024"><ele>0.0</ele><time>2026-04-29T14:32:28.125Z</time></trkpt><trkpt lat="37.5818189" lon="-0.4755052"><ele>0.0</ele><time>2026-04-29T14:32:29.131Z</time></trkpt><trkpt lat="37.5818774" lon="-0.4754069"><ele>0.0</ele><time>2026-04-29T14:32:30.135Z</time></trkpt><trkpt lat="37.581949" lon="-0.4753257"><ele>0.0</ele><time>2026-04-29T14:32:31.142Z</time></trkpt><trkpt lat="37.5820269" lon="-0.475258"><ele>0.0</ele><time>2026-04-29T14:32:32.148Z</time></trkpt><trkpt lat="37.582118" lon="-0.4752004"><ele>0.0</ele><time>2026-04-29T14:32:33.153Z</time></trkpt><trkpt lat="37.5822099" lon="-0.4751445"><ele>0.0</ele><time>2026-04-29T14:32:34.158Z</time></trkpt><trkpt lat="37.5822864" lon="-0.4750865"><ele>0.0</ele><time>2026-04-29T14:32:35.089Z</time></trkpt><trkpt lat="37.5823678" lon="-0.4750292"><ele>0.0</ele><time>2026-04-29T14:32:36.171Z</time></trkpt><trkpt lat="37.5825056" lon="-0.4748657"><ele>0.0</ele><time>2026-04-29T14:32:38.181Z</time></trkpt><trkpt lat="37.5825872" lon="-0.474825"><ele>0.0</ele><time>2026-04-29T14:32:39.089Z</time></trkpt><trkpt lat="37.5826662" lon="-0.4747681"><ele>0.0</ele><time>2026-04-29T14:32:40.093Z</time></trkpt><trkpt lat="37.5827445" lon="-0.4747256"><ele>0.0</ele><time>2026-04-29T14:32:41.098Z</time></trkpt><trkpt lat="37.5828144" lon="-0.4746541"><ele>0.0</ele><time>2026-04-29T14:32:42.104Z</time></trkpt><trkpt lat="37.5828835" lon="-0.4745726"><ele>0.0</ele><time>2026-04-29T14:32:43.11Z</time></trkpt><trkpt lat="37.5829544" lon="-0.4744891"><ele>0.0</ele><time>2026-04-29T14:32:44.117Z</time></trkpt><trkpt lat="37.5830342" lon="-0.4744256"><ele>0.0</ele><time>2026-04-29T14:32:45.122Z</time></trkpt><trkpt lat="37.5831172" lon="-0.4743748"><ele>0.0</ele><time>2026-04-29T14:32:46.128Z</time></trkpt><trkpt lat="37.5830602" lon="-0.4744366"><ele>0.0</ele><time>2026-04-29T14:32:47.134Z</time></trkpt><trkpt lat="37.5831785" lon="-0.4743201"><ele>0.0</ele><time>2026-04-29T14:32:49.144Z</time></trkpt><trkpt lat="37.5832648" lon="-0.4742592"><ele>0.0</ele><time>2026-04-29T14:32:50.151Z</time></trkpt><trkpt lat="37.5833446" lon="-0.4741963"><ele>0.0</ele><time>2026-04-29T14:32:51.156Z</time></trkpt><trkpt lat="37.5834238" lon="-0.474129"><ele>0.0</ele><time>2026-04-29T14:32:52.162Z</time></trkpt><trkpt lat="37.5835116" lon="-0.4740689"><ele>0.0</ele><time>2026-04-29T14:32:53.169Z</time></trkpt><trkpt lat="37.5835941" lon="-0.4740115"><ele>0.0</ele><time>2026-04-29T14:32:54.173Z</time></trkpt><trkpt lat="37.5836725" lon="-0.4739513"><ele>0.0</ele><time>2026-04-29T14:32:55.179Z</time></trkpt><trkpt lat="37.5837578" lon="-0.4739349"><ele>0.0</ele><time>2026-04-29T14:32:56.09Z</time></trkpt><trkpt lat="37.5838446" lon="-0.4739017"><ele>0.0</ele><time>2026-04-29T14:32:57.191Z</time></trkpt><trkpt lat="37.5840104" lon="-0.4738061"><ele>0.0</ele><time>2026-04-29T14:32:59.102Z</time></trkpt><trkpt lat="37.5840998" lon="-0.4737636"><ele>0.0</ele><time>2026-04-29T14:33:00.108Z</time></trkpt><trkpt lat="37.5841846" lon="-0.4736933"><ele>0.0</ele><time>2026-04-29T14:33:01.113Z</time></trkpt><trkpt lat="37.5842612" lon="-0.4736138"><ele>0.0</ele><time>2026-04-29T14:33:02.119Z</time></trkpt><trkpt lat="37.5843281" lon="-0.4735321"><ele>0.0</ele><time>2026-04-29T14:33:03.125Z</time></trkpt><trkpt lat="37.5844121" lon="-0.4734899"><ele>0.0</ele><time>2026-04-29T14:33:04.132Z</time></trkpt><trkpt lat="37.5844686" lon="-0.4733786"><ele>0.0</ele><time>2026-04-29T14:33:06.143Z</time></trkpt><trkpt lat="37.5845546" lon="-0.4733025"><ele>0.0</ele><time>2026-04-29T14:33:07.148Z</time></trkpt><trkpt lat="37.5846475" lon="-0.4732631"><ele>0.0</ele><time>2026-04-29T14:33:08.154Z</time></trkpt><trkpt lat="37.5847408" lon="-0.4732341"><ele>0.0</ele><time>2026-04-29T14:33:09.159Z</time></trkpt><trkpt lat="37.5848052" lon="-0.4731688"><ele>0.0</ele><time>2026-04-29T14:33:10.165Z</time></trkpt><trkpt lat="37.5848266" lon="-0.4730737"><ele>0.0</ele><time>2026-04-29T14:33:11.09Z</time></trkpt><trkpt lat="37.5848793" lon="-0.4729722"><ele>0.0</ele><time>2026-04-29T14:33:12.178Z</time></trkpt><trkpt lat="37.5849824" lon="-0.4729438"><ele>0.0</ele><time>2026-04-29T14:33:13.09Z</time></trkpt><trkpt lat="37.5850736" lon="-0.4728994"><ele>0.0</ele><time>2026-04-29T14:33:14.089Z</time></trkpt><trkpt lat="37.5851597" lon="-0.4728538"><ele>0.0</ele><time>2026-04-29T14:33:15.095Z</time></trkpt><trkpt lat="37.5852341" lon="-0.4727636"><ele>0.0</ele><time>2026-04-29T14:33:16.1Z</time></trkpt><trkpt lat="37.5852891" lon="-0.4726519"><ele>0.0</ele><time>2026-04-29T14:33:17.105Z</time></trkpt><trkpt lat="37.5853447" lon="-0.4725433"><ele>0.0</ele><time>2026-04-29T14:33:18.112Z</time></trkpt><trkpt lat="37.5854879" lon="-0.4723418"><ele>0.0</ele><time>2026-04-29T14:33:21.128Z</time></trkpt><trkpt lat="37.5855939" lon="-0.4722739"><ele>0.0</ele><time>2026-04-29T14:33:22.135Z</time></trkpt><trkpt lat="37.5856657" lon="-0.4722003"><ele>0.0</ele><time>2026-04-29T14:33:23.14Z</time></trkpt><trkpt lat="37.5857065" lon="-0.4720871"><ele>0.0</ele><time>2026-04-29T14:33:24.147Z</time></trkpt><trkpt lat="37.5857709" lon="-0.4719964"><ele>0.0</ele><time>2026-04-29T14:33:25.152Z</time></trkpt><trkpt lat="37.5858425" lon="-0.471919"><ele>0.0</ele><time>2026-04-29T14:33:26.158Z</time></trkpt><trkpt lat="37.5859289" lon="-0.4718539"><ele>0.0</ele><time>2026-04-29T14:33:27.163Z</time></trkpt><trkpt lat="37.586022" lon="-0.4717858"><ele>0.0</ele><time>2026-04-29T14:33:28.09Z</time></trkpt><trkpt lat="37.5861008" lon="-0.4717017"><ele>0.0</ele><time>2026-04-29T14:33:29.176Z</time></trkpt><trkpt lat="37.5861636" lon="-0.4716461"><ele>0.0</ele><time>2026-04-29T14:33:30.09Z</time></trkpt><trkpt lat="37.5862318" lon="-0.4715813"><ele>0.0</ele><time>2026-04-29T14:33:31.089Z</time></trkpt><trkpt lat="37.5863023" lon="-0.4715224"><ele>0.0</ele><time>2026-04-29T14:33:32.092Z</time></trkpt><trkpt lat="37.5863852" lon="-0.471478"><ele>0.0</ele><time>2026-04-29T14:33:33.097Z</time></trkpt><trkpt lat="37.586452" lon="-0.4713405"><ele>0.0</ele><time>2026-04-29T14:33:35.11Z</time></trkpt><trkpt lat="37.586548" lon="-0.4712498"><ele>0.0</ele><time>2026-04-29T14:33:36.115Z</time></trkpt><trkpt lat="37.5866307" lon="-0.471176"><ele>0.0</ele><time>2026-04-29T14:33:37.121Z</time></trkpt><trkpt lat="37.5867042" lon="-0.4711"><ele>0.0</ele><time>2026-04-29T14:33:38.127Z</time></trkpt><trkpt lat="37.5867672" lon="-0.4710092"><ele>0.0</ele><time>2026-04-29T14:33:39.132Z</time></trkpt><trkpt lat="37.5869093" lon="-0.4708614"><ele>0.0</ele><time>2026-04-29T14:33:41.145Z</time></trkpt><trkpt lat="37.5869852" lon="-0.470796"><ele>0.0</ele><time>2026-04-29T14:33:42.149Z</time></trkpt><trkpt lat="37.5870674" lon="-0.4707313"><ele>0.0</ele><time>2026-04-29T14:33:43.156Z</time></trkpt><trkpt lat="37.5871507" lon="-0.4706747"><ele>0.0</ele><time>2026-04-29T14:33:44.162Z</time></trkpt><trkpt lat="37.5872174" lon="-0.4705796"><ele>0.0</ele><time>2026-04-29T14:33:45.09Z</time></trkpt><trkpt lat="37.5872924" lon="-0.4704923"><ele>0.0</ele><time>2026-04-29T14:33:46.089Z</time></trkpt><trkpt lat="37.5873739" lon="-0.470424"><ele>0.0</ele><time>2026-04-29T14:33:47.089Z</time></trkpt><trkpt lat="37.5874515" lon="-0.4703568"><ele>0.0</ele><time>2026-04-29T14:33:48.09Z</time></trkpt><trkpt lat="37.5875253" lon="-0.4702889"><ele>0.0</ele><time>2026-04-29T14:33:49.089Z</time></trkpt><trkpt lat="37.5875809" lon="-0.4701968"><ele>0.0</ele><time>2026-04-29T14:33:50.095Z</time></trkpt><trkpt lat="37.5876254" lon="-0.4700828"><ele>0.0</ele><time>2026-04-29T14:33:52.108Z</time></trkpt><trkpt lat="37.5877077" lon="-0.4699984"><ele>0.0</ele><time>2026-04-29T14:33:53.113Z</time></trkpt><trkpt lat="37.5877982" lon="-0.4699476"><ele>0.0</ele><time>2026-04-29T14:33:54.118Z</time></trkpt><trkpt lat="37.5878823" lon="-0.4698905"><ele>0.0</ele><time>2026-04-29T14:33:55.124Z</time></trkpt><trkpt lat="37.5879558" lon="-0.4698255"><ele>0.0</ele><time>2026-04-29T14:33:56.13Z</time></trkpt><trkpt lat="37.5880286" lon="-0.4697601"><ele>0.0</ele><time>2026-04-29T14:33:57.136Z</time></trkpt><trkpt lat="37.5880962" lon="-0.4696772"><ele>0.0</ele><time>2026-04-29T14:33:58.142Z</time></trkpt><trkpt lat="37.5881652" lon="-0.4695862"><ele>0.0</ele><time>2026-04-29T14:33:59.147Z</time></trkpt><trkpt lat="37.5882335" lon="-0.4695061"><ele>0.0</ele><time>2026-04-29T14:34:00.153Z</time></trkpt><trkpt lat="37.5883716" lon="-0.4693136"><ele>0.0</ele><time>2026-04-29T14:34:03.09Z</time></trkpt><trkpt lat="37.5884392" lon="-0.4692276"><ele>0.0</ele><time>2026-04-29T14:34:04.09Z</time></trkpt><trkpt lat="37.5885152" lon="-0.469149"><ele>0.0</ele><time>2026-04-29T14:34:05.09Z</time></trkpt><trkpt lat="37.5885975" lon="-0.4690741"><ele>0.0</ele><time>2026-04-29T14:34:06.089Z</time></trkpt><trkpt lat="37.5886711" lon="-0.4689952"><ele>0.0</ele><time>2026-04-29T14:34:07.09Z</time></trkpt><trkpt lat="37.5887404" lon="-0.4689278"><ele>0.0</ele><time>2026-04-29T14:34:08.089Z</time></trkpt><trkpt lat="37.5888073" lon="-0.4688629"><ele>0.0</ele><time>2026-04-29T14:34:09.09Z</time></trkpt><trkpt lat="37.5888696" lon="-0.4687949"><ele>0.0</ele><time>2026-04-29T14:34:10.089Z</time></trkpt><trkpt lat="37.5889314" lon="-0.4687284"><ele>0.0</ele><time>2026-04-29T14:34:11.09Z</time></trkpt><trkpt lat="37.5889987" lon="-0.4686706"><ele>0.0</ele><time>2026-04-29T14:34:12.089Z</time></trkpt><trkpt lat="37.5890612" lon="-0.4685926"><ele>0.0</ele><time>2026-04-29T14:34:13.089Z</time></trkpt><trkpt lat="37.5891231" lon="-0.4685199"><ele>0.0</ele><time>2026-04-29T14:34:14.089Z</time></trkpt><trkpt lat="37.589192" lon="-0.4684377"><ele>0.0</ele><time>2026-04-29T14:34:15.09Z</time></trkpt><trkpt lat="37.5892561" lon="-0.4683539"><ele>0.0</ele><time>2026-04-29T14:34:16.089Z</time></trkpt><trkpt lat="37.5893236" lon="-0.4682816"><ele>0.0</ele><time>2026-04-29T14:34:17.089Z</time></trkpt><trkpt lat="37.589386" lon="-0.4682036"><ele>0.0</ele><time>2026-04-29T14:34:18.089Z</time></trkpt><trkpt lat="37.5894535" lon="-0.468134"><ele>0.0</ele><time>2026-04-29T14:34:19.089Z</time></trkpt><trkpt lat="37.5895227" lon="-0.4680571"><ele>0.0</ele><time>2026-04-29T14:34:20.089Z</time></trkpt><trkpt lat="37.5895902" lon="-0.4679807"><ele>0.0</ele><time>2026-04-29T14:34:21.09Z</time></trkpt><trkpt lat="37.5897268" lon="-0.4678402"><ele>0.0</ele><time>2026-04-29T14:34:23.089Z</time></trkpt><trkpt lat="37.5897867" lon="-0.467755"><ele>0.0</ele><time>2026-04-29T14:34:24.089Z</time></trkpt><trkpt lat="37.5898508" lon="-0.4676645"><ele>0.0</ele><time>2026-04-29T14:34:25.089Z</time></trkpt><trkpt lat="37.5899226" lon="-0.4675845"><ele>0.0</ele><time>2026-04-29T14:34:26.09Z</time></trkpt><trkpt lat="37.5899988" lon="-0.4675042"><ele>0.0</ele><time>2026-04-29T14:34:27.09Z</time></trkpt><trkpt lat="37.5900684" lon="-0.4674272"><ele>0.0</ele><time>2026-04-29T14:34:28.09Z</time></trkpt><trkpt lat="37.5901357" lon="-0.4673507"><ele>0.0</ele><time>2026-04-29T14:34:29.089Z</time></trkpt><trkpt lat="37.5901996" lon="-0.4672712"><ele>0.0</ele><time>2026-04-29T14:34:30.089Z</time></trkpt><trkpt lat="37.5902612" lon="-0.4671953"><ele>0.0</ele><time>2026-04-29T14:34:31.089Z</time></trkpt><trkpt lat="37.5903258" lon="-0.4671147"><ele>0.0</ele><time>2026-04-29T14:34:32.09Z</time></trkpt><trkpt lat="37.5903919" lon="-0.4670445"><ele>0.0</ele><time>2026-04-29T14:34:33.089Z</time></trkpt><trkpt lat="37.590463" lon="-0.4669773"><ele>0.0</ele><time>2026-04-29T14:34:34.089Z</time></trkpt><trkpt lat="37.5905346" lon="-0.4669162"><ele>0.0</ele><time>2026-04-29T14:34:35.089Z</time></trkpt><trkpt lat="37.5906034" lon="-0.4668405"><ele>0.0</ele><time>2026-04-29T14:34:36.089Z</time></trkpt><trkpt lat="37.5907537" lon="-0.4666529"><ele>0.0</ele><time>2026-04-29T14:34:39.09Z</time></trkpt><trkpt lat="37.5908301" lon="-0.4665619"><ele>0.0</ele><time>2026-04-29T14:34:40.09Z</time></trkpt><trkpt lat="37.5909038" lon="-0.4664813"><ele>0.0</ele><time>2026-04-29T14:34:41.095Z</time></trkpt><trkpt lat="37.5909747" lon="-0.466383"><ele>0.0</ele><time>2026-04-29T14:34:42.099Z</time></trkpt><trkpt lat="37.5911332" lon="-0.4662069"><ele>0.0</ele><time>2026-04-29T14:34:44.111Z</time></trkpt><trkpt lat="37.5912157" lon="-0.4661255"><ele>0.0</ele><time>2026-04-29T14:34:45.117Z</time></trkpt><trkpt lat="37.5912948" lon="-0.4660448"><ele>0.0</ele><time>2026-04-29T14:34:46.124Z</time></trkpt><trkpt lat="37.5913726" lon="-0.4659659"><ele>0.0</ele><time>2026-04-29T14:34:47.129Z</time></trkpt><trkpt lat="37.591456" lon="-0.4658896"><ele>0.0</ele><time>2026-04-29T14:34:48.134Z</time></trkpt><trkpt lat="37.5915349" lon="-0.4658171"><ele>0.0</ele><time>2026-04-29T14:34:49.141Z</time></trkpt><trkpt lat="37.5916155" lon="-0.4657483"><ele>0.0</ele><time>2026-04-29T14:34:50.146Z</time></trkpt><trkpt lat="37.5916998" lon="-0.4656362"><ele>0.0</ele><time>2026-04-29T14:34:52.157Z</time></trkpt><trkpt lat="37.5918061" lon="-0.4655643"><ele>0.0</ele><time>2026-04-29T14:34:53.163Z</time></trkpt><trkpt lat="37.5918955" lon="-0.4655042"><ele>0.0</ele><time>2026-04-29T14:34:54.17Z</time></trkpt><trkpt lat="37.5919789" lon="-0.4654378"><ele>0.0</ele><time>2026-04-29T14:34:55.176Z</time></trkpt><trkpt lat="37.5920406" lon="-0.4653714"><ele>0.0</ele><time>2026-04-29T14:34:56.088Z</time></trkpt><trkpt lat="37.5921133" lon="-0.4652956"><ele>0.0</ele><time>2026-04-29T14:34:57.088Z</time></trkpt><trkpt lat="37.5921857" lon="-0.4652181"><ele>0.0</ele><time>2026-04-29T14:34:58.091Z</time></trkpt><trkpt lat="37.5922543" lon="-0.4651074"><ele>0.0</ele><time>2026-04-29T14:35:00.104Z</time></trkpt><trkpt lat="37.5923439" lon="-0.4650245"><ele>0.0</ele><time>2026-04-29T14:35:01.109Z</time></trkpt><trkpt lat="37.5924447" lon="-0.4649876"><ele>0.0</ele><time>2026-04-29T14:35:02.116Z</time></trkpt><trkpt lat="37.592526" lon="-0.4649209"><ele>0.0</ele><time>2026-04-29T14:35:03.12Z</time></trkpt><trkpt lat="37.5926813" lon="-0.4647749"><ele>0.0</ele><time>2026-04-29T14:35:05.132Z</time></trkpt><trkpt lat="37.5927556" lon="-0.4646969"><ele>0.0</ele><time>2026-04-29T14:35:06.138Z</time></trkpt><trkpt lat="37.5928212" lon="-0.4646154"><ele>0.0</ele><time>2026-04-29T14:35:07.145Z</time></trkpt><trkpt lat="37.592887" lon="-0.4645376"><ele>0.0</ele><time>2026-04-29T14:35:08.149Z</time></trkpt><trkpt lat="37.5929432" lon="-0.464451"><ele>0.0</ele><time>2026-04-29T14:35:09.156Z</time></trkpt><trkpt lat="37.5930147" lon="-0.4643822"><ele>0.0</ele><time>2026-04-29T14:35:10.162Z</time></trkpt><trkpt lat="37.5931187" lon="-0.4642912"><ele>0.0</ele><time>2026-04-29T14:35:12.089Z</time></trkpt><trkpt lat="37.5931843" lon="-0.4642098"><ele>0.0</ele><time>2026-04-29T14:35:13.178Z</time></trkpt><trkpt lat="37.5932721" lon="-0.4641431"><ele>0.0</ele><time>2026-04-29T14:35:14.088Z</time></trkpt><trkpt lat="37.5933497" lon="-0.4640755"><ele>0.0</ele><time>2026-04-29T14:35:15.09Z</time></trkpt><trkpt lat="37.5934345" lon="-0.464017"><ele>0.0</ele><time>2026-04-29T14:35:16.096Z</time></trkpt><trkpt lat="37.5935215" lon="-0.4639689"><ele>0.0</ele><time>2026-04-29T14:35:17.102Z</time></trkpt><trkpt lat="37.5935969" lon="-0.4638876"><ele>0.0</ele><time>2026-04-29T14:35:18.108Z</time></trkpt><trkpt lat="37.5936829" lon="-0.4637841"><ele>0.0</ele><time>2026-04-29T14:35:20.119Z</time></trkpt><trkpt lat="37.593795" lon="-0.4637342"><ele>0.0</ele><time>2026-04-29T14:35:21.124Z</time></trkpt><trkpt lat="37.593897" lon="-0.4637213"><ele>0.0</ele><time>2026-04-29T14:35:22.13Z</time></trkpt><trkpt lat="37.5939776" lon="-0.4636657"><ele>0.0</ele><time>2026-04-29T14:35:23.135Z</time></trkpt><trkpt lat="37.5940561" lon="-0.4636169"><ele>0.0</ele><time>2026-04-29T14:35:24.141Z</time></trkpt><trkpt lat="37.5942094" lon="-0.4634785"><ele>0.0</ele><time>2026-04-29T14:35:26.154Z</time></trkpt><trkpt lat="37.5942722" lon="-0.4633842"><ele>0.0</ele><time>2026-04-29T14:35:27.159Z</time></trkpt><trkpt lat="37.5943435" lon="-0.4633071"><ele>0.0</ele><time>2026-04-29T14:35:28.165Z</time></trkpt><trkpt lat="37.5944155" lon="-0.463223"><ele>0.0</ele><time>2026-04-29T14:35:29.17Z</time></trkpt><trkpt lat="37.5944789" lon="-0.4631854"><ele>0.0</ele><time>2026-04-29T14:35:31.089Z</time></trkpt><trkpt lat="37.5945996" lon="-0.4631289"><ele>0.0</ele><time>2026-04-29T14:35:32.089Z</time></trkpt><trkpt lat="37.5946681" lon="-0.4630433"><ele>0.0</ele><time>2026-04-29T14:35:33.094Z</time></trkpt><trkpt lat="37.5947347" lon="-0.4629459"><ele>0.0</ele><time>2026-04-29T14:35:34.099Z</time></trkpt><trkpt lat="37.5948345" lon="-0.4628953"><ele>0.0</ele><time>2026-04-29T14:35:35.105Z</time></trkpt><trkpt lat="37.5949356" lon="-0.4628738"><ele>0.0</ele><time>2026-04-29T14:35:36.11Z</time></trkpt><trkpt lat="37.5950202" lon="-0.4628238"><ele>0.0</ele><time>2026-04-29T14:35:37.117Z</time></trkpt><trkpt lat="37.5950824" lon="-0.4627389"><ele>0.0</ele><time>2026-04-29T14:35:38.122Z</time></trkpt><trkpt lat="37.5951307" lon="-0.4626407"><ele>0.0</ele><time>2026-04-29T14:35:39.128Z</time></trkpt><trkpt lat="37.5951886" lon="-0.4625521"><ele>0.0</ele><time>2026-04-29T14:35:40.134Z</time></trkpt><trkpt lat="37.5953163" lon="-0.4623857"><ele>0.0</ele><time>2026-04-29T14:35:43.151Z</time></trkpt><trkpt lat="37.595427" lon="-0.4622958"><ele>0.0</ele><time>2026-04-29T14:35:44.156Z</time></trkpt><trkpt lat="37.5955231" lon="-0.4622452"><ele>0.0</ele><time>2026-04-29T14:35:45.162Z</time></trkpt><trkpt lat="37.5956747" lon="-0.4620959"><ele>0.0</ele><time>2026-04-29T14:35:47.174Z</time></trkpt><trkpt lat="37.5957189" lon="-0.4619898"><ele>0.0</ele><time>2026-04-29T14:35:48.089Z</time></trkpt><trkpt lat="37.5957936" lon="-0.4618596"><ele>0.0</ele><time>2026-04-29T14:35:50.091Z</time></trkpt><trkpt lat="37.5958876" lon="-0.4617764"><ele>0.0</ele><time>2026-04-29T14:35:51.096Z</time></trkpt><trkpt lat="37.5959577" lon="-0.4616876"><ele>0.0</ele><time>2026-04-29T14:35:52.103Z</time></trkpt><trkpt lat="37.5960264" lon="-0.4615984"><ele>0.0</ele><time>2026-04-29T14:35:53.109Z</time></trkpt><trkpt lat="37.5961004" lon="-0.4615114"><ele>0.0</ele><time>2026-04-29T14:35:54.114Z</time></trkpt><trkpt lat="37.5961747" lon="-0.4614204"><ele>0.0</ele><time>2026-04-29T14:35:55.119Z</time></trkpt><trkpt lat="37.5962312" lon="-0.4613107"><ele>0.0</ele><time>2026-04-29T14:35:56.125Z</time></trkpt><trkpt lat="37.5963005" lon="-0.4612025"><ele>0.0</ele><time>2026-04-29T14:35:57.131Z</time></trkpt><trkpt lat="37.5963843" lon="-0.4611122"><ele>0.0</ele><time>2026-04-29T14:35:58.138Z</time></trkpt><trkpt lat="37.5964563" lon="-0.4610148"><ele>0.0</ele><time>2026-04-29T14:35:59.144Z</time></trkpt><trkpt lat="37.5965433" lon="-0.4609438"><ele>0.0</ele><time>2026-04-29T14:36:00.149Z</time></trkpt><trkpt lat="37.5966391" lon="-0.4608772"><ele>0.0</ele><time>2026-04-29T14:36:01.154Z</time></trkpt><trkpt lat="37.5967274" lon="-0.4607973"><ele>0.0</ele><time>2026-04-29T14:36:02.16Z</time></trkpt><trkpt lat="37.5968073" lon="-0.4607171"><ele>0.0</ele><time>2026-04-29T14:36:03.167Z</time></trkpt><trkpt lat="37.5968787" lon="-0.4606377"><ele>0.0</ele><time>2026-04-29T14:36:04.173Z</time></trkpt><trkpt lat="37.5969829" lon="-0.4605417"><ele>0.0</ele><time>2026-04-29T14:36:06.089Z</time></trkpt><trkpt lat="37.5971366" lon="-0.4604045"><ele>0.0</ele><time>2026-04-29T14:36:08.094Z</time></trkpt><trkpt lat="37.59721" lon="-0.460338"><ele>0.0</ele><time>2026-04-29T14:36:09.101Z</time></trkpt><trkpt lat="37.5972765" lon="-0.4602681"><ele>0.0</ele><time>2026-04-29T14:36:10.107Z</time></trkpt><trkpt lat="37.5973452" lon="-0.460201"><ele>0.0</ele><time>2026-04-29T14:36:11.113Z</time></trkpt><trkpt lat="37.5974189" lon="-0.4601438"><ele>0.0</ele><time>2026-04-29T14:36:12.118Z</time></trkpt><trkpt lat="37.5974836" lon="-0.460068"><ele>0.0</ele><time>2026-04-29T14:36:13.123Z</time></trkpt><trkpt lat="37.5975524" lon="-0.4599602"><ele>0.0</ele><time>2026-04-29T14:36:15.135Z</time></trkpt><trkpt lat="37.5976564" lon="-0.4598899"><ele>0.0</ele><time>2026-04-29T14:36:16.14Z</time></trkpt><trkpt lat="37.5977463" lon="-0.459841"><ele>0.0</ele><time>2026-04-29T14:36:17.146Z</time></trkpt><trkpt lat="37.597831" lon="-0.4597856"><ele>0.0</ele><time>2026-04-29T14:36:18.152Z</time></trkpt><trkpt lat="37.5978991" lon="-0.4597117"><ele>0.0</ele><time>2026-04-29T14:36:19.158Z</time></trkpt><trkpt lat="37.5979804" lon="-0.4596721"><ele>0.0</ele><time>2026-04-29T14:36:20.165Z</time></trkpt><trkpt lat="37.598057" lon="-0.4596096"><ele>0.0</ele><time>2026-04-29T14:36:21.17Z</time></trkpt><trkpt lat="37.5981253" lon="-0.459534"><ele>0.0</ele><time>2026-04-29T14:36:22.088Z</time></trkpt><trkpt lat="37.5981919" lon="-0.4594401"><ele>0.0</ele><time>2026-04-29T14:36:23.088Z</time></trkpt><trkpt lat="37.5982601" lon="-0.4593574"><ele>0.0</ele><time>2026-04-29T14:36:24.088Z</time></trkpt><trkpt lat="37.5983287" lon="-0.4592736"><ele>0.0</ele><time>2026-04-29T14:36:25.092Z</time></trkpt><trkpt lat="37.5983962" lon="-0.4591799"><ele>0.0</ele><time>2026-04-29T14:36:26.099Z</time></trkpt><trkpt lat="37.5984447" lon="-0.4591147"><ele>0.0</ele><time>2026-04-29T14:36:27.088Z</time></trkpt><trkpt lat="37.5985547" lon="-0.4589219"><ele>0.0</ele><time>2026-04-29T14:36:29.116Z</time></trkpt><trkpt lat="37.5986126" lon="-0.4588207"><ele>0.0</ele><time>2026-04-29T14:36:30.121Z</time></trkpt><trkpt lat="37.5986678" lon="-0.4587288"><ele>0.0</ele><time>2026-04-29T14:36:31.128Z</time></trkpt><trkpt lat="37.5987282" lon="-0.4586396"><ele>0.0</ele><time>2026-04-29T14:36:32.134Z</time></trkpt><trkpt lat="37.5988043" lon="-0.4585658"><ele>0.0</ele><time>2026-04-29T14:36:33.139Z</time></trkpt><trkpt lat="37.5988877" lon="-0.4585219"><ele>0.0</ele><time>2026-04-29T14:36:34.145Z</time></trkpt><trkpt lat="37.5989726" lon="-0.4584853"><ele>0.0</ele><time>2026-04-29T14:36:35.151Z</time></trkpt><trkpt lat="37.5990536" lon="-0.4584359"><ele>0.0</ele><time>2026-04-29T14:36:36.156Z</time></trkpt><trkpt lat="37.5991225" lon="-0.4583599"><ele>0.0</ele><time>2026-04-29T14:36:37.162Z</time></trkpt><trkpt lat="37.599198" lon="-0.458249"><ele>0.0</ele><time>2026-04-29T14:36:39.173Z</time></trkpt><trkpt lat="37.5993022" lon="-0.4581896"><ele>0.0</ele><time>2026-04-29T14:36:40.088Z</time></trkpt><trkpt lat="37.5993843" lon="-0.4581271"><ele>0.0</ele><time>2026-04-29T14:36:41.088Z</time></trkpt><trkpt lat="37.5994614" lon="-0.4580622"><ele>0.0</ele><time>2026-04-29T14:36:42.091Z</time></trkpt><trkpt lat="37.5995254" lon="-0.457991"><ele>0.0</ele><time>2026-04-29T14:36:43.096Z</time></trkpt><trkpt lat="37.5995927" lon="-0.4579307"><ele>0.0</ele><time>2026-04-29T14:36:44.103Z</time></trkpt><trkpt lat="37.599664" lon="-0.4578675"><ele>0.0</ele><time>2026-04-29T14:36:45.107Z</time></trkpt><trkpt lat="37.5997302" lon="-0.4577904"><ele>0.0</ele><time>2026-04-29T14:36:46.114Z</time></trkpt><trkpt lat="37.5997715" lon="-0.4576788"><ele>0.0</ele><time>2026-04-29T14:36:48.126Z</time></trkpt><trkpt lat="37.5999494" lon="-0.4575497"><ele>0.0</ele><time>2026-04-29T14:36:50.138Z</time></trkpt><trkpt lat="37.600024" lon="-0.4574916"><ele>0.0</ele><time>2026-04-29T14:36:51.142Z</time></trkpt><trkpt lat="37.6000928" lon="-0.4574358"><ele>0.0</ele><time>2026-04-29T14:36:52.148Z</time></trkpt><trkpt lat="37.6001617" lon="-0.4573779"><ele>0.0</ele><time>2026-04-29T14:36:53.155Z</time></trkpt><trkpt lat="37.6002336" lon="-0.457306"><ele>0.0</ele><time>2026-04-29T14:36:54.161Z</time></trkpt><trkpt lat="37.6003084" lon="-0.4572287"><ele>0.0</ele><time>2026-04-29T14:36:55.167Z</time></trkpt><trkpt lat="37.6003672" lon="-0.4571343"><ele>0.0</ele><time>2026-04-29T14:36:56.171Z</time></trkpt><trkpt lat="37.6004282" lon="-0.457053"><ele>0.0</ele><time>2026-04-29T14:36:57.088Z</time></trkpt><trkpt lat="37.6005038" lon="-0.4569887"><ele>0.0</ele><time>2026-04-29T14:36:58.089Z</time></trkpt><trkpt lat="37.6005917" lon="-0.456933"><ele>0.0</ele><time>2026-04-29T14:36:59.189Z</time></trkpt><trkpt lat="37.6006746" lon="-0.4569115"><ele>0.0</ele><time>2026-04-29T14:37:00.094Z</time></trkpt><trkpt lat="37.6007488" lon="-0.4568531"><ele>0.0</ele><time>2026-04-29T14:37:01.101Z</time></trkpt><trkpt lat="37.6008044" lon="-0.4567452"><ele>0.0</ele><time>2026-04-29T14:37:02.107Z</time></trkpt><trkpt lat="37.600871" lon="-0.4566322"><ele>0.0</ele><time>2026-04-29T14:37:04.117Z</time></trkpt><trkpt lat="37.6009731" lon="-0.4565592"><ele>0.0</ele><time>2026-04-29T14:37:05.124Z</time></trkpt><trkpt lat="37.6010531" lon="-0.4564913"><ele>0.0</ele><time>2026-04-29T14:37:06.129Z</time></trkpt><trkpt lat="37.6011316" lon="-0.4564264"><ele>0.0</ele><time>2026-04-29T14:37:07.136Z</time></trkpt><trkpt lat="37.6012173" lon="-0.4563657"><ele>0.0</ele><time>2026-04-29T14:37:08.142Z</time></trkpt><trkpt lat="37.6013036" lon="-0.4563096"><ele>0.0</ele><time>2026-04-29T14:37:09.146Z</time></trkpt><trkpt lat="37.6014557" lon="-0.4561466"><ele>0.0</ele><time>2026-04-29T14:37:11.159Z</time></trkpt><trkpt lat="37.6015239" lon="-0.4560616"><ele>0.0</ele><time>2026-04-29T14:37:12.165Z</time></trkpt><trkpt lat="37.6015986" lon="-0.4559777"><ele>0.0</ele><time>2026-04-29T14:37:13.17Z</time></trkpt><trkpt lat="37.6016756" lon="-0.4559014"><ele>0.0</ele><time>2026-04-29T14:37:14.089Z</time></trkpt><trkpt lat="37.6017491" lon="-0.4558235"><ele>0.0</ele><time>2026-04-29T14:37:15.088Z</time></trkpt><trkpt lat="37.6018241" lon="-0.4557487"><ele>0.0</ele><time>2026-04-29T14:37:16.088Z</time></trkpt><trkpt lat="37.601894" lon="-0.4556669"><ele>0.0</ele><time>2026-04-29T14:37:17.092Z</time></trkpt><trkpt lat="37.6019647" lon="-0.4555894"><ele>0.0</ele><time>2026-04-29T14:37:18.098Z</time></trkpt><trkpt lat="37.6020216" lon="-0.4554899"><ele>0.0</ele><time>2026-04-29T14:37:20.11Z</time></trkpt><trkpt lat="37.6021077" lon="-0.4553978"><ele>0.0</ele><time>2026-04-29T14:37:21.117Z</time></trkpt><trkpt lat="37.6022076" lon="-0.4553566"><ele>0.0</ele><time>2026-04-29T14:37:22.121Z</time></trkpt><trkpt lat="37.602309" lon="-0.4553134"><ele>0.0</ele><time>2026-04-29T14:37:23.127Z</time></trkpt><trkpt lat="37.6023733" lon="-0.4552405"><ele>0.0</ele><time>2026-04-29T14:37:24.133Z</time></trkpt><trkpt lat="37.6024334" lon="-0.4551596"><ele>0.0</ele><time>2026-04-29T14:37:25.14Z</time></trkpt><trkpt lat="37.6024989" lon="-0.4550494"><ele>0.0</ele><time>2026-04-29T14:37:27.151Z</time></trkpt><trkpt lat="37.6026037" lon="-0.4549763"><ele>0.0</ele><time>2026-04-29T14:37:28.156Z</time></trkpt><trkpt lat="37.6026841" lon="-0.4549156"><ele>0.0</ele><time>2026-04-29T14:37:29.163Z</time></trkpt><trkpt lat="37.6027584" lon="-0.4548601"><ele>0.0</ele><time>2026-04-29T14:37:30.168Z</time></trkpt><trkpt lat="37.6029246" lon="-0.4547919"><ele>0.0</ele><time>2026-04-29T14:37:32.089Z</time></trkpt><trkpt lat="37.6030163" lon="-0.4547641"><ele>0.0</ele><time>2026-04-29T14:37:33.089Z</time></trkpt><trkpt lat="37.6031029" lon="-0.4547278"><ele>0.0</ele><time>2026-04-29T14:37:34.091Z</time></trkpt><trkpt lat="37.6031804" lon="-0.4546604"><ele>0.0</ele><time>2026-04-29T14:37:35.097Z</time></trkpt><trkpt lat="37.6032439" lon="-0.4545607"><ele>0.0</ele><time>2026-04-29T14:37:36.103Z</time></trkpt><trkpt lat="37.6032995" lon="-0.4544246"><ele>0.0</ele><time>2026-04-29T14:37:38.115Z</time></trkpt><trkpt lat="37.6033784" lon="-0.4543306"><ele>0.0</ele><time>2026-04-29T14:37:39.12Z</time></trkpt><trkpt lat="37.6034645" lon="-0.4542699"><ele>0.0</ele><time>2026-04-29T14:37:40.126Z</time></trkpt><trkpt lat="37.6035419" lon="-0.4542062"><ele>0.0</ele><time>2026-04-29T14:37:41.132Z</time></trkpt><trkpt lat="37.6036202" lon="-0.4541315"><ele>0.0</ele><time>2026-04-29T14:37:42.138Z</time></trkpt><trkpt lat="37.6036913" lon="-0.4540454"><ele>0.0</ele><time>2026-04-29T14:37:43.143Z</time></trkpt><trkpt lat="37.6037491" lon="-0.4539497"><ele>0.0</ele><time>2026-04-29T14:37:44.149Z</time></trkpt><trkpt lat="37.6038155" lon="-0.4538667"><ele>0.0</ele><time>2026-04-29T14:37:45.156Z</time></trkpt><trkpt lat="37.6038863" lon="-0.4537897"><ele>0.0</ele><time>2026-04-29T14:37:46.162Z</time></trkpt><trkpt lat="37.6039436" lon="-0.4536853"><ele>0.0</ele><time>2026-04-29T14:37:47.166Z</time></trkpt><trkpt lat="37.6039952" lon="-0.4535789"><ele>0.0</ele><time>2026-04-29T14:37:48.173Z</time></trkpt><trkpt lat="37.604049" lon="-0.4534766"><ele>0.0</ele><time>2026-04-29T14:37:49.088Z</time></trkpt><trkpt lat="37.6041129" lon="-0.4533776"><ele>0.0</ele><time>2026-04-29T14:37:50.088Z</time></trkpt><trkpt lat="37.6041753" lon="-0.4532842"><ele>0.0</ele><time>2026-04-29T14:37:51.089Z</time></trkpt><trkpt lat="37.6043496" lon="-0.4531822"><ele>0.0</ele><time>2026-04-29T14:37:53.101Z</time></trkpt><trkpt lat="37.6044247" lon="-0.4531194"><ele>0.0</ele><time>2026-04-29T14:37:54.108Z</time></trkpt><trkpt lat="37.6045028" lon="-0.4530506"><ele>0.0</ele><time>2026-04-29T14:37:56.118Z</time></trkpt><trkpt lat="37.6045956" lon="-0.4529704"><ele>0.0</ele><time>2026-04-29T14:37:57.125Z</time></trkpt><trkpt lat="37.6046944" lon="-0.4529078"><ele>0.0</ele><time>2026-04-29T14:37:58.13Z</time></trkpt><trkpt lat="37.6047803" lon="-0.4528458"><ele>0.0</ele><time>2026-04-29T14:37:59.136Z</time></trkpt><trkpt lat="37.6048584" lon="-0.4527868"><ele>0.0</ele><time>2026-04-29T14:38:00.143Z</time></trkpt><trkpt lat="37.604925" lon="-0.4527149"><ele>0.0</ele><time>2026-04-29T14:38:01.148Z</time></trkpt><trkpt lat="37.6049915" lon="-0.4526417"><ele>0.0</ele><time>2026-04-29T14:38:02.153Z</time></trkpt><trkpt lat="37.6050607" lon="-0.4525692"><ele>0.0</ele><time>2026-04-29T14:38:03.16Z</time></trkpt><trkpt lat="37.605131" lon="-0.4524938"><ele>0.0</ele><time>2026-04-29T14:38:04.166Z</time></trkpt><trkpt lat="37.6052106" lon="-0.4524493"><ele>0.0</ele><time>2026-04-29T14:38:05.089Z</time></trkpt><trkpt lat="37.6052891" lon="-0.4523782"><ele>0.0</ele><time>2026-04-29T14:38:06.177Z</time></trkpt><trkpt lat="37.6053664" lon="-0.4523281"><ele>0.0</ele><time>2026-04-29T14:38:07.088Z</time></trkpt><trkpt lat="37.6054421" lon="-0.4522648"><ele>0.0</ele><time>2026-04-29T14:38:08.089Z</time></trkpt><trkpt lat="37.6055041" lon="-0.4521642"><ele>0.0</ele><time>2026-04-29T14:38:09.094Z</time></trkpt><trkpt lat="37.6055623" lon="-0.4520662"><ele>0.0</ele><time>2026-04-29T14:38:10.1Z</time></trkpt><trkpt lat="37.6056297" lon="-0.4519614"><ele>0.0</ele><time>2026-04-29T14:38:12.112Z</time></trkpt><trkpt lat="37.6058016" lon="-0.4517985"><ele>0.0</ele><time>2026-04-29T14:38:14.123Z</time></trkpt><trkpt lat="37.6058809" lon="-0.4517447"><ele>0.0</ele><time>2026-04-29T14:38:15.129Z</time></trkpt><trkpt lat="37.6059506" lon="-0.4516794"><ele>0.0</ele><time>2026-04-29T14:38:16.134Z</time></trkpt><trkpt lat="37.6060255" lon="-0.45162"><ele>0.0</ele><time>2026-04-29T14:38:17.14Z</time></trkpt><trkpt lat="37.6060962" lon="-0.4515435"><ele>0.0</ele><time>2026-04-29T14:38:18.146Z</time></trkpt><trkpt lat="37.6061218" lon="-0.4514276"><ele>0.0</ele><time>2026-04-29T14:38:20.158Z</time></trkpt><trkpt lat="37.6062128" lon="-0.4513814"><ele>0.0</ele><time>2026-04-29T14:38:21.164Z</time></trkpt><trkpt lat="37.6063321" lon="-0.4512991"><ele>0.0</ele><time>2026-04-29T14:38:22.17Z</time></trkpt><trkpt lat="37.6064206" lon="-0.4512123"><ele>0.0</ele><time>2026-04-29T14:38:23.088Z</time></trkpt><trkpt lat="37.6065117" lon="-0.451139"><ele>0.0</ele><time>2026-04-29T14:38:24.088Z</time></trkpt><trkpt lat="37.6066016" lon="-0.4510745"><ele>0.0</ele><time>2026-04-29T14:38:25.088Z</time></trkpt><trkpt lat="37.6066865" lon="-0.4510149"><ele>0.0</ele><time>2026-04-29T14:38:26.093Z</time></trkpt><trkpt lat="37.6067621" lon="-0.4509462"><ele>0.0</ele><time>2026-04-29T14:38:27.098Z</time></trkpt><trkpt lat="37.6068215" lon="-0.4508653"><ele>0.0</ele><time>2026-04-29T14:38:28.104Z</time></trkpt><trkpt lat="37.606876" lon="-0.4507737"><ele>0.0</ele><time>2026-04-29T14:38:29.111Z</time></trkpt><trkpt lat="37.6069326" lon="-0.4506775"><ele>0.0</ele><time>2026-04-29T14:38:30.117Z</time></trkpt><trkpt lat="37.6070083" lon="-0.4505998"><ele>0.0</ele><time>2026-04-29T14:38:31.122Z</time></trkpt><trkpt lat="37.6070871" lon="-0.4505026"><ele>0.0</ele><time>2026-04-29T14:38:33.133Z</time></trkpt><trkpt lat="37.6072876" lon="-0.4503979"><ele>0.0</ele><time>2026-04-29T14:38:35.146Z</time></trkpt><trkpt lat="37.6073545" lon="-0.450327"><ele>0.0</ele><time>2026-04-29T14:38:36.151Z</time></trkpt><trkpt lat="37.6074247" lon="-0.4502618"><ele>0.0</ele><time>2026-04-29T14:38:37.156Z</time></trkpt><trkpt lat="37.6074967" lon="-0.4501842"><ele>0.0</ele><time>2026-04-29T14:38:38.163Z</time></trkpt><trkpt lat="37.6075685" lon="-0.4501013"><ele>0.0</ele><time>2026-04-29T14:38:39.168Z</time></trkpt><trkpt lat="37.6076446" lon="-0.4500219"><ele>0.0</ele><time>2026-04-29T14:38:40.174Z</time></trkpt><trkpt lat="37.6077045" lon="-0.4499416"><ele>0.0</ele><time>2026-04-29T14:38:41.088Z</time></trkpt><trkpt lat="37.607774" lon="-0.4498564"><ele>0.0</ele><time>2026-04-29T14:38:42.186Z</time></trkpt><trkpt lat="37.6078401" lon="-0.449787"><ele>0.0</ele><time>2026-04-29T14:38:43.091Z</time></trkpt><trkpt lat="37.607938" lon="-0.4497858"><ele>0.0</ele><time>2026-04-29T14:38:44.097Z</time></trkpt><trkpt lat="37.6080279" lon="-0.4497534"><ele>0.0</ele><time>2026-04-29T14:38:45.103Z</time></trkpt><trkpt lat="37.6080549" lon="-0.4496628"><ele>0.0</ele><time>2026-04-29T14:38:46.089Z</time></trkpt><trkpt lat="37.6080963" lon="-0.4495749"><ele>0.0</ele><time>2026-04-29T14:38:47.114Z</time></trkpt><trkpt lat="37.6081957" lon="-0.449494"><ele>0.0</ele><time>2026-04-29T14:38:48.12Z</time></trkpt><trkpt lat="37.6082639" lon="-0.4494062"><ele>0.0</ele><time>2026-04-29T14:38:49.127Z</time></trkpt><trkpt lat="37.6083312" lon="-0.4493298"><ele>0.0</ele><time>2026-04-29T14:38:50.133Z</time></trkpt><trkpt lat="37.6083987" lon="-0.4492622"><ele>0.0</ele><time>2026-04-29T14:38:51.138Z</time></trkpt><trkpt lat="37.6084687" lon="-0.4491976"><ele>0.0</ele><time>2026-04-29T14:38:52.145Z</time></trkpt><trkpt lat="37.6085399" lon="-0.4491263"><ele>0.0</ele><time>2026-04-29T14:38:53.15Z</time></trkpt><trkpt lat="37.6086072" lon="-0.4490391"><ele>0.0</ele><time>2026-04-29T14:38:54.155Z</time></trkpt><trkpt lat="37.6087289" lon="-0.4488638"><ele>0.0</ele><time>2026-04-29T14:38:56.167Z</time></trkpt><trkpt lat="37.6088027" lon="-0.4488045"><ele>0.0</ele><time>2026-04-29T14:38:57.088Z</time></trkpt><trkpt lat="37.6088876" lon="-0.4487304"><ele>0.0</ele><time>2026-04-29T14:38:58.179Z</time></trkpt><trkpt lat="37.6089675" lon="-0.4486777"><ele>0.0</ele><time>2026-04-29T14:38:59.088Z</time></trkpt><trkpt lat="37.6090226" lon="-0.4485638"><ele>0.0</ele><time>2026-04-29T14:39:01.097Z</time></trkpt><trkpt lat="37.6091203" lon="-0.448511"><ele>0.0</ele><time>2026-04-29T14:39:02.102Z</time></trkpt><trkpt lat="37.609206" lon="-0.4484684"><ele>0.0</ele><time>2026-04-29T14:39:03.108Z</time></trkpt><trkpt lat="37.6092772" lon="-0.4483874"><ele>0.0</ele><time>2026-04-29T14:39:04.114Z</time></trkpt><trkpt lat="37.6093482" lon="-0.4483033"><ele>0.0</ele><time>2026-04-29T14:39:05.119Z</time></trkpt><trkpt lat="37.6094241" lon="-0.4482274"><ele>0.0</ele><time>2026-04-29T14:39:06.125Z</time></trkpt><trkpt lat="37.6094981" lon="-0.4481521"><ele>0.0</ele><time>2026-04-29T14:39:07.132Z</time></trkpt><trkpt lat="37.6095685" lon="-0.4480802"><ele>0.0</ele><time>2026-04-29T14:39:08.136Z</time></trkpt><trkpt lat="37.6096368" lon="-0.4480113"><ele>0.0</ele><time>2026-04-29T14:39:09.143Z</time></trkpt><trkpt lat="37.6097152" lon="-0.4479492"><ele>0.0</ele><time>2026-04-29T14:39:10.149Z</time></trkpt><trkpt lat="37.609781" lon="-0.4478594"><ele>0.0</ele><time>2026-04-29T14:39:11.155Z</time></trkpt><trkpt lat="37.6098493" lon="-0.4477695"><ele>0.0</ele><time>2026-04-29T14:39:12.16Z</time></trkpt><trkpt lat="37.6099281" lon="-0.4476924"><ele>0.0</ele><time>2026-04-29T14:39:13.166Z</time></trkpt><trkpt lat="37.6100084" lon="-0.4476244"><ele>0.0</ele><time>2026-04-29T14:39:14.087Z</time></trkpt><trkpt lat="37.6100845" lon="-0.4475426"><ele>0.0</ele><time>2026-04-29T14:39:15.177Z</time></trkpt><trkpt lat="37.6101994" lon="-0.4473489"><ele>0.0</ele><time>2026-04-29T14:39:18.095Z</time></trkpt><trkpt lat="37.610267" lon="-0.4472522"><ele>0.0</ele><time>2026-04-29T14:39:19.1Z</time></trkpt><trkpt lat="37.6103374" lon="-0.447174"><ele>0.0</ele><time>2026-04-29T14:39:20.106Z</time></trkpt><trkpt lat="37.6104033" lon="-0.4470945"><ele>0.0</ele><time>2026-04-29T14:39:21.112Z</time></trkpt><trkpt lat="37.6104803" lon="-0.4470216"><ele>0.0</ele><time>2026-04-29T14:39:22.119Z</time></trkpt><trkpt lat="37.610543" lon="-0.4469272"><ele>0.0</ele><time>2026-04-29T14:39:23.125Z</time></trkpt><trkpt lat="37.6106109" lon="-0.4468469"><ele>0.0</ele><time>2026-04-29T14:39:24.129Z</time></trkpt><trkpt lat="37.6106815" lon="-0.4467759"><ele>0.0</ele><time>2026-04-29T14:39:25.135Z</time></trkpt><trkpt lat="37.6107598" lon="-0.4467124"><ele>0.0</ele><time>2026-04-29T14:39:26.141Z</time></trkpt><trkpt lat="37.6108404" lon="-0.4466553"><ele>0.0</ele><time>2026-04-29T14:39:27.147Z</time></trkpt><trkpt lat="37.6109181" lon="-0.4465874"><ele>0.0</ele><time>2026-04-29T14:39:28.153Z</time></trkpt><trkpt lat="37.6110057" lon="-0.4465287"><ele>0.0</ele><time>2026-04-29T14:39:29.159Z</time></trkpt><trkpt lat="37.6110856" lon="-0.4464637"><ele>0.0</ele><time>2026-04-29T14:39:30.164Z</time></trkpt><trkpt lat="37.6111562" lon="-0.446376"><ele>0.0</ele><time>2026-04-29T14:39:31.171Z</time></trkpt><trkpt lat="37.6112321" lon="-0.4462879"><ele>0.0</ele><time>2026-04-29T14:39:32.177Z</time></trkpt><trkpt lat="37.6113116" lon="-0.4462001"><ele>0.0</ele><time>2026-04-29T14:39:33.087Z</time></trkpt><trkpt lat="37.6113849" lon="-0.4461163"><ele>0.0</ele><time>2026-04-29T14:39:34.087Z</time></trkpt><trkpt lat="37.6114568" lon="-0.4460463"><ele>0.0</ele><time>2026-04-29T14:39:35.093Z</time></trkpt><trkpt lat="37.6115234" lon="-0.4459696"><ele>0.0</ele><time>2026-04-29T14:39:36.1Z</time></trkpt><trkpt lat="37.6117075" lon="-0.4457833"><ele>0.0</ele><time>2026-04-29T14:39:40.123Z</time></trkpt><trkpt lat="37.6117905" lon="-0.4457089"><ele>0.0</ele><time>2026-04-29T14:39:41.128Z</time></trkpt><trkpt lat="37.6118636" lon="-0.445629"><ele>0.0</ele><time>2026-04-29T14:39:42.134Z</time></trkpt><trkpt lat="37.6119403" lon="-0.4455476"><ele>0.0</ele><time>2026-04-29T14:39:43.14Z</time></trkpt><trkpt lat="37.6120206" lon="-0.4454742"><ele>0.0</ele><time>2026-04-29T14:39:44.146Z</time></trkpt><trkpt lat="37.612106" lon="-0.4454183"><ele>0.0</ele><time>2026-04-29T14:39:45.152Z</time></trkpt><trkpt lat="37.6121856" lon="-0.4453593"><ele>0.0</ele><time>2026-04-29T14:39:46.158Z</time></trkpt><trkpt lat="37.6122569" lon="-0.4452859"><ele>0.0</ele><time>2026-04-29T14:39:47.164Z</time></trkpt><trkpt lat="37.6123354" lon="-0.4452206"><ele>0.0</ele><time>2026-04-29T14:39:48.087Z</time></trkpt><trkpt lat="37.6124145" lon="-0.4451504"><ele>0.0</ele><time>2026-04-29T14:39:49.088Z</time></trkpt><trkpt lat="37.6125182" lon="-0.4450515"><ele>0.0</ele><time>2026-04-29T14:39:51.088Z</time></trkpt><trkpt lat="37.6125893" lon="-0.4449902"><ele>0.0</ele><time>2026-04-29T14:39:52.092Z</time></trkpt><trkpt lat="37.6126756" lon="-0.4449305"><ele>0.0</ele><time>2026-04-29T14:39:53.099Z</time></trkpt><trkpt lat="37.6127525" lon="-0.4448518"><ele>0.0</ele><time>2026-04-29T14:39:54.104Z</time></trkpt><trkpt lat="37.6128249" lon="-0.4447713"><ele>0.0</ele><time>2026-04-29T14:39:55.111Z</time></trkpt><trkpt lat="37.6128928" lon="-0.4446964"><ele>0.0</ele><time>2026-04-29T14:39:56.116Z</time></trkpt><trkpt lat="37.6129681" lon="-0.4446417"><ele>0.0</ele><time>2026-04-29T14:39:57.122Z</time></trkpt><trkpt lat="37.6131212" lon="-0.4444964"><ele>0.0</ele><time>2026-04-29T14:39:59.133Z</time></trkpt><trkpt lat="37.6131971" lon="-0.4444064"><ele>0.0</ele><time>2026-04-29T14:40:00.14Z</time></trkpt><trkpt lat="37.6132645" lon="-0.4443254"><ele>0.0</ele><time>2026-04-29T14:40:01.146Z</time></trkpt><trkpt lat="37.6133426" lon="-0.4442619"><ele>0.0</ele><time>2026-04-29T14:40:02.152Z</time></trkpt><trkpt lat="37.6134304" lon="-0.4441936"><ele>0.0</ele><time>2026-04-29T14:40:03.157Z</time></trkpt><trkpt lat="37.6135112" lon="-0.4441129"><ele>0.0</ele><time>2026-04-29T14:40:04.163Z</time></trkpt><trkpt lat="37.6135959" lon="-0.4440417"><ele>0.0</ele><time>2026-04-29T14:40:05.169Z</time></trkpt><trkpt lat="37.6137173" lon="-0.4439355"><ele>0.0</ele><time>2026-04-29T14:40:07.087Z</time></trkpt><trkpt lat="37.6138027" lon="-0.4438728"><ele>0.0</ele><time>2026-04-29T14:40:08.087Z</time></trkpt><trkpt lat="37.6138822" lon="-0.4438065"><ele>0.0</ele><time>2026-04-29T14:40:09.092Z</time></trkpt><trkpt lat="37.6139589" lon="-0.4437313"><ele>0.0</ele><time>2026-04-29T14:40:10.097Z</time></trkpt><trkpt lat="37.6139966" lon="-0.4436167"><ele>0.0</ele><time>2026-04-29T14:40:11.103Z</time></trkpt><trkpt lat="37.6140321" lon="-0.4435201"><ele>0.0</ele><time>2026-04-29T14:40:12.108Z</time></trkpt><trkpt lat="37.6140892" lon="-0.4434463"><ele>0.0</ele><time>2026-04-29T14:40:13.115Z</time></trkpt><trkpt lat="37.6141793" lon="-0.4434057"><ele>0.0</ele><time>2026-04-29T14:40:14.121Z</time></trkpt><trkpt lat="37.6142508" lon="-0.4433258"><ele>0.0</ele><time>2026-04-29T14:40:15.127Z</time></trkpt><trkpt lat="37.6143085" lon="-0.4432896"><ele>0.0</ele><time>2026-04-29T14:40:17.138Z</time></trkpt><trkpt lat="37.6143971" lon="-0.4431969"><ele>0.0</ele><time>2026-04-29T14:40:18.144Z</time></trkpt><trkpt lat="37.6145423" lon="-0.4430078"><ele>0.0</ele><time>2026-04-29T14:40:20.156Z</time></trkpt><trkpt lat="37.6146096" lon="-0.4429122"><ele>0.0</ele><time>2026-04-29T14:40:21.161Z</time></trkpt><trkpt lat="37.6146877" lon="-0.4428286"><ele>0.0</ele><time>2026-04-29T14:40:22.167Z</time></trkpt><trkpt lat="37.6147672" lon="-0.4427567"><ele>0.0</ele><time>2026-04-29T14:40:23.174Z</time></trkpt><trkpt lat="37.6148294" lon="-0.4426591"><ele>0.0</ele><time>2026-04-29T14:40:24.088Z</time></trkpt><trkpt lat="37.6148843" lon="-0.4425428"><ele>0.0</ele><time>2026-04-29T14:40:25.087Z</time></trkpt><trkpt lat="37.614934" lon="-0.4424367"><ele>0.0</ele><time>2026-04-29T14:40:26.09Z</time></trkpt><trkpt lat="37.6150017" lon="-0.4423387"><ele>0.0</ele><time>2026-04-29T14:40:27.096Z</time></trkpt><trkpt lat="37.6150789" lon="-0.4422512"><ele>0.0</ele><time>2026-04-29T14:40:28.101Z</time></trkpt><trkpt lat="37.6151367" lon="-0.4421487"><ele>0.0</ele><time>2026-04-29T14:40:29.108Z</time></trkpt><trkpt lat="37.6151973" lon="-0.442047"><ele>0.0</ele><time>2026-04-29T14:40:30.114Z</time></trkpt><trkpt lat="37.6152807" lon="-0.4419712"><ele>0.0</ele><time>2026-04-29T14:40:31.12Z</time></trkpt><trkpt lat="37.6153762" lon="-0.4419201"><ele>0.0</ele><time>2026-04-29T14:40:32.125Z</time></trkpt><trkpt lat="37.6154681" lon="-0.4418668"><ele>0.0</ele><time>2026-04-29T14:40:33.132Z</time></trkpt><trkpt lat="37.6155487" lon="-0.4417974"><ele>0.0</ele><time>2026-04-29T14:40:34.137Z</time></trkpt><trkpt lat="37.6156268" lon="-0.4417202"><ele>0.0</ele><time>2026-04-29T14:40:35.142Z</time></trkpt><trkpt lat="37.6156928" lon="-0.4416306"><ele>0.0</ele><time>2026-04-29T14:40:36.149Z</time></trkpt><trkpt lat="37.6157318" lon="-0.4415204"><ele>0.0</ele><time>2026-04-29T14:40:38.161Z</time></trkpt><trkpt lat="37.615822" lon="-0.4414375"><ele>0.0</ele><time>2026-04-29T14:40:39.167Z</time></trkpt><trkpt lat="37.6159877" lon="-0.4413359"><ele>0.0</ele><time>2026-04-29T14:40:41.088Z</time></trkpt><trkpt lat="37.6160694" lon="-0.4412667"><ele>0.0</ele><time>2026-04-29T14:40:42.184Z</time></trkpt><trkpt lat="37.6161362" lon="-0.4411831"><ele>0.0</ele><time>2026-04-29T14:40:43.09Z</time></trkpt><trkpt lat="37.6162042" lon="-0.4411056"><ele>0.0</ele><time>2026-04-29T14:40:44.094Z</time></trkpt><trkpt lat="37.6162729" lon="-0.4410456"><ele>0.0</ele><time>2026-04-29T14:40:45.101Z</time></trkpt><trkpt lat="37.6163389" lon="-0.4409742"><ele>0.0</ele><time>2026-04-29T14:40:46.107Z</time></trkpt><trkpt lat="37.6164336" lon="-0.4409155"><ele>0.0</ele><time>2026-04-29T14:40:48.118Z</time></trkpt><trkpt lat="37.616542" lon="-0.4408495"><ele>0.0</ele><time>2026-04-29T14:40:49.125Z</time></trkpt><trkpt lat="37.6166492" lon="-0.4408261"><ele>0.0</ele><time>2026-04-29T14:40:50.13Z</time></trkpt><trkpt lat="37.6167448" lon="-0.4407784"><ele>0.0</ele><time>2026-04-29T14:40:51.135Z</time></trkpt><trkpt lat="37.61683" lon="-0.4407101"><ele>0.0</ele><time>2026-04-29T14:40:52.142Z</time></trkpt><trkpt lat="37.6169076" lon="-0.4406281"><ele>0.0</ele><time>2026-04-29T14:40:53.147Z</time></trkpt><trkpt lat="37.6169778" lon="-0.4405447"><ele>0.0</ele><time>2026-04-29T14:40:54.153Z</time></trkpt><trkpt lat="37.6171092" lon="-0.4403885"><ele>0.0</ele><time>2026-04-29T14:40:56.165Z</time></trkpt><trkpt lat="37.6171855" lon="-0.4403361"><ele>0.0</ele><time>2026-04-29T14:40:57.171Z</time></trkpt><trkpt lat="37.6172639" lon="-0.4403126"><ele>0.0</ele><time>2026-04-29T14:40:58.087Z</time></trkpt><trkpt lat="37.6173359" lon="-0.4402391"><ele>0.0</ele><time>2026-04-29T14:40:59.088Z</time></trkpt><trkpt lat="37.6174076" lon="-0.4401675"><ele>0.0</ele><time>2026-04-29T14:41:00.087Z</time></trkpt><trkpt lat="37.617574" lon="-0.4399223"><ele>0.0</ele><time>2026-04-29T14:41:04.111Z</time></trkpt><trkpt lat="37.6176636" lon="-0.4398454"><ele>0.0</ele><time>2026-04-29T14:41:05.117Z</time></trkpt><trkpt lat="37.6177541" lon="-0.439785"><ele>0.0</ele><time>2026-04-29T14:41:06.122Z</time></trkpt><trkpt lat="37.6178308" lon="-0.4397144"><ele>0.0</ele><time>2026-04-29T14:41:07.128Z</time></trkpt><trkpt lat="37.6179008" lon="-0.4396372"><ele>0.0</ele><time>2026-04-29T14:41:08.134Z</time></trkpt><trkpt lat="37.6179795" lon="-0.4395726"><ele>0.0</ele><time>2026-04-29T14:41:09.141Z</time></trkpt><trkpt lat="37.6180616" lon="-0.4395103"><ele>0.0</ele><time>2026-04-29T14:41:10.146Z</time></trkpt><trkpt lat="37.6181404" lon="-0.4393918"><ele>0.0</ele><time>2026-04-29T14:41:12.159Z</time></trkpt><trkpt lat="37.6182513" lon="-0.4393428"><ele>0.0</ele><time>2026-04-29T14:41:13.163Z</time></trkpt><trkpt lat="37.6183381" lon="-0.4392924"><ele>0.0</ele><time>2026-04-29T14:41:14.169Z</time></trkpt><trkpt lat="37.6184003" lon="-0.4392142"><ele>0.0</ele><time>2026-04-29T14:41:15.088Z</time></trkpt><trkpt lat="37.6184739" lon="-0.4391339"><ele>0.0</ele><time>2026-04-29T14:41:16.087Z</time></trkpt><trkpt lat="37.6185435" lon="-0.4390453"><ele>0.0</ele><time>2026-04-29T14:41:17.087Z</time></trkpt><trkpt lat="37.6186121" lon="-0.4389657"><ele>0.0</ele><time>2026-04-29T14:41:18.093Z</time></trkpt><trkpt lat="37.6186803" lon="-0.4388756"><ele>0.0</ele><time>2026-04-29T14:41:19.098Z</time></trkpt><trkpt lat="37.618763" lon="-0.438807"><ele>0.0</ele><time>2026-04-29T14:41:20.105Z</time></trkpt><trkpt lat="37.6189124" lon="-0.4386617"><ele>0.0</ele><time>2026-04-29T14:41:22.116Z</time></trkpt><trkpt lat="37.618984" lon="-0.438573"><ele>0.0</ele><time>2026-04-29T14:41:23.122Z</time></trkpt><trkpt lat="37.6190676" lon="-0.4384409"><ele>0.0</ele><time>2026-04-29T14:41:25.134Z</time></trkpt><trkpt lat="37.6191678" lon="-0.4383576"><ele>0.0</ele><time>2026-04-29T14:41:26.14Z</time></trkpt><trkpt lat="37.6193266" lon="-0.4382153"><ele>0.0</ele><time>2026-04-29T14:41:28.151Z</time></trkpt><trkpt lat="37.6194189" lon="-0.4381703"><ele>0.0</ele><time>2026-04-29T14:41:29.157Z</time></trkpt><trkpt lat="37.619493" lon="-0.4380985"><ele>0.0</ele><time>2026-04-29T14:41:30.162Z</time></trkpt><trkpt lat="37.6195515" lon="-0.4380062"><ele>0.0</ele><time>2026-04-29T14:41:31.169Z</time></trkpt><trkpt lat="37.6196289" lon="-0.4379516"><ele>0.0</ele><time>2026-04-29T14:41:32.088Z</time></trkpt><trkpt lat="37.6197057" lon="-0.437883"><ele>0.0</ele><time>2026-04-29T14:41:33.088Z</time></trkpt><trkpt lat="37.6197496" lon="-0.4378105"><ele>0.0</ele><time>2026-04-29T14:41:35.092Z</time></trkpt><trkpt lat="37.6198318" lon="-0.4377126"><ele>0.0</ele><time>2026-04-29T14:41:36.097Z</time></trkpt><trkpt lat="37.6199092" lon="-0.4376287"><ele>0.0</ele><time>2026-04-29T14:41:37.103Z</time></trkpt><trkpt lat="37.6199914" lon="-0.4375572"><ele>0.0</ele><time>2026-04-29T14:41:38.109Z</time></trkpt><trkpt lat="37.6200782" lon="-0.4374912"><ele>0.0</ele><time>2026-04-29T14:41:39.115Z</time></trkpt><trkpt lat="37.620156" lon="-0.4374087"><ele>0.0</ele><time>2026-04-29T14:41:40.121Z</time></trkpt><trkpt lat="37.6202359" lon="-0.437329"><ele>0.0</ele><time>2026-04-29T14:41:41.126Z</time></trkpt><trkpt lat="37.6204101" lon="-0.4371963"><ele>0.0</ele><time>2026-04-29T14:41:43.139Z</time></trkpt><trkpt lat="37.620488" lon="-0.4371212"><ele>0.0</ele><time>2026-04-29T14:41:44.144Z</time></trkpt><trkpt lat="37.6205701" lon="-0.4370438"><ele>0.0</ele><time>2026-04-29T14:41:45.151Z</time></trkpt><trkpt lat="37.6206423" lon="-0.436957"><ele>0.0</ele><time>2026-04-29T14:41:46.156Z</time></trkpt><trkpt lat="37.6207294" lon="-0.4369095"><ele>0.0</ele><time>2026-04-29T14:41:47.162Z</time></trkpt><trkpt lat="37.6208337" lon="-0.4368175"><ele>0.0</ele><time>2026-04-29T14:41:49.087Z</time></trkpt><trkpt lat="37.620903" lon="-0.4367464"><ele>0.0</ele><time>2026-04-29T14:41:50.088Z</time></trkpt><trkpt lat="37.6209743" lon="-0.4366727"><ele>0.0</ele><time>2026-04-29T14:41:51.088Z</time></trkpt><trkpt lat="37.6210425" lon="-0.4365951"><ele>0.0</ele><time>2026-04-29T14:41:52.091Z</time></trkpt><trkpt lat="37.6210962" lon="-0.4365033"><ele>0.0</ele><time>2026-04-29T14:41:53.096Z</time></trkpt><trkpt lat="37.6211514" lon="-0.4364157"><ele>0.0</ele><time>2026-04-29T14:41:54.103Z</time></trkpt><trkpt lat="37.6212105" lon="-0.4363366"><ele>0.0</ele><time>2026-04-29T14:41:55.108Z</time></trkpt><trkpt lat="37.6212852" lon="-0.4362817"><ele>0.0</ele><time>2026-04-29T14:41:56.114Z</time></trkpt><trkpt lat="37.6213728" lon="-0.4362481"><ele>0.0</ele><time>2026-04-29T14:41:57.12Z</time></trkpt><trkpt lat="37.6214439" lon="-0.4361671"><ele>0.0</ele><time>2026-04-29T14:41:58.126Z</time></trkpt><trkpt lat="37.6215871" lon="-0.4359841"><ele>0.0</ele><time>2026-04-29T14:42:00.137Z</time></trkpt><trkpt lat="37.6216642" lon="-0.4358729"><ele>0.0</ele><time>2026-04-29T14:42:02.15Z</time></trkpt><trkpt lat="37.6218447" lon="-0.4357135"><ele>0.0</ele><time>2026-04-29T14:42:04.161Z</time></trkpt><trkpt lat="37.6219132" lon="-0.4356306"><ele>0.0</ele><time>2026-04-29T14:42:05.166Z</time></trkpt><trkpt lat="37.6219766" lon="-0.4355549"><ele>0.0</ele><time>2026-04-29T14:42:06.087Z</time></trkpt><trkpt lat="37.6220524" lon="-0.4354848"><ele>0.0</ele><time>2026-04-29T14:42:07.087Z</time></trkpt><trkpt lat="37.6221186" lon="-0.4353925"><ele>0.0</ele><time>2026-04-29T14:42:08.088Z</time></trkpt><trkpt lat="37.6221859" lon="-0.4353033"><ele>0.0</ele><time>2026-04-29T14:42:09.09Z</time></trkpt><trkpt lat="37.622276" lon="-0.435244"><ele>0.0</ele><time>2026-04-29T14:42:10.096Z</time></trkpt><trkpt lat="37.6223664" lon="-0.4351963"><ele>0.0</ele><time>2026-04-29T14:42:11.101Z</time></trkpt><trkpt lat="37.6224381" lon="-0.4350787"><ele>0.0</ele><time>2026-04-29T14:42:13.112Z</time></trkpt><trkpt lat="37.6225114" lon="-0.4349821"><ele>0.0</ele><time>2026-04-29T14:42:14.119Z</time></trkpt><trkpt lat="37.622613" lon="-0.4349195"><ele>0.0</ele><time>2026-04-29T14:42:15.125Z</time></trkpt><trkpt lat="37.6226579" lon="-0.4347999"><ele>0.0</ele><time>2026-04-29T14:42:16.13Z</time></trkpt><trkpt lat="37.6227017" lon="-0.4346674"><ele>0.0</ele><time>2026-04-29T14:42:17.136Z</time></trkpt><trkpt lat="37.6227513" lon="-0.4345552"><ele>0.0</ele><time>2026-04-29T14:42:18.142Z</time></trkpt><trkpt lat="37.6228291" lon="-0.4344849"><ele>0.0</ele><time>2026-04-29T14:42:19.149Z</time></trkpt><trkpt lat="37.622912" lon="-0.4344364"><ele>0.0</ele><time>2026-04-29T14:42:20.154Z</time></trkpt><trkpt lat="37.623005" lon="-0.434409"><ele>0.0</ele><time>2026-04-29T14:42:21.159Z</time></trkpt><trkpt lat="37.6230973" lon="-0.4343694"><ele>0.0</ele><time>2026-04-29T14:42:22.165Z</time></trkpt><trkpt lat="37.6231725" lon="-0.4342955"><ele>0.0</ele><time>2026-04-29T14:42:23.172Z</time></trkpt><trkpt lat="37.6232995" lon="-0.4341187"><ele>0.0</ele><time>2026-04-29T14:42:25.087Z</time></trkpt><trkpt lat="37.6233672" lon="-0.4340331"><ele>0.0</ele><time>2026-04-29T14:42:26.088Z</time></trkpt><trkpt lat="37.6234343" lon="-0.4339457"><ele>0.0</ele><time>2026-04-29T14:42:28.1Z</time></trkpt><trkpt lat="37.6235371" lon="-0.4338639"><ele>0.0</ele><time>2026-04-29T14:42:29.105Z</time></trkpt><trkpt lat="37.6236245" lon="-0.4338028"><ele>0.0</ele><time>2026-04-29T14:42:30.112Z</time></trkpt><trkpt lat="37.6237907" lon="-0.4336937"><ele>0.0</ele><time>2026-04-29T14:42:32.124Z</time></trkpt><trkpt lat="37.6238624" lon="-0.4335946"><ele>0.0</ele><time>2026-04-29T14:42:34.135Z</time></trkpt><trkpt lat="37.6239467" lon="-0.4335016"><ele>0.0</ele><time>2026-04-29T14:42:35.141Z</time></trkpt><trkpt lat="37.6240282" lon="-0.4334274"><ele>0.0</ele><time>2026-04-29T14:42:36.147Z</time></trkpt><trkpt lat="37.6241033" lon="-0.4333544"><ele>0.0</ele><time>2026-04-29T14:42:37.152Z</time></trkpt><trkpt lat="37.6241896" lon="-0.4332915"><ele>0.0</ele><time>2026-04-29T14:42:38.158Z</time></trkpt><trkpt lat="37.6242759" lon="-0.4332334"><ele>0.0</ele><time>2026-04-29T14:42:39.165Z</time></trkpt><trkpt lat="37.624345" lon="-0.4331717"><ele>0.0</ele><time>2026-04-29T14:42:40.088Z</time></trkpt><trkpt lat="37.6244194" lon="-0.4331062"><ele>0.0</ele><time>2026-04-29T14:42:41.088Z</time></trkpt><trkpt lat="37.6244835" lon="-0.4330186"><ele>0.0</ele><time>2026-04-29T14:42:42.088Z</time></trkpt><trkpt lat="37.6245506" lon="-0.432936"><ele>0.0</ele><time>2026-04-29T14:42:43.088Z</time></trkpt><trkpt lat="37.6246254" lon="-0.4328623"><ele>0.0</ele><time>2026-04-29T14:42:44.094Z</time></trkpt><trkpt lat="37.6247683" lon="-0.4327114"><ele>0.0</ele><time>2026-04-29T14:42:46.106Z</time></trkpt><trkpt lat="37.6248389" lon="-0.4326307"><ele>0.0</ele><time>2026-04-29T14:42:47.11Z</time></trkpt><trkpt lat="37.6248997" lon="-0.4325576"><ele>0.0</ele><time>2026-04-29T14:42:48.116Z</time></trkpt><trkpt lat="37.6249498" lon="-0.4324741"><ele>0.0</ele><time>2026-04-29T14:42:50.129Z</time></trkpt><trkpt lat="37.6250497" lon="-0.4324041"><ele>0.0</ele><time>2026-04-29T14:42:51.135Z</time></trkpt><trkpt lat="37.6251228" lon="-0.4323346"><ele>0.0</ele><time>2026-04-29T14:42:52.141Z</time></trkpt><trkpt lat="37.6251928" lon="-0.4322591"><ele>0.0</ele><time>2026-04-29T14:42:53.146Z</time></trkpt><trkpt lat="37.6252685" lon="-0.432198"><ele>0.0</ele><time>2026-04-29T14:42:54.151Z</time></trkpt><trkpt lat="37.6253646" lon="-0.4321774"><ele>0.0</ele><time>2026-04-29T14:42:55.157Z</time></trkpt><trkpt lat="37.6254531" lon="-0.4321261"><ele>0.0</ele><time>2026-04-29T14:42:56.163Z</time></trkpt><trkpt lat="37.6255152" lon="-0.4320365"><ele>0.0</ele><time>2026-04-29T14:42:57.169Z</time></trkpt><trkpt lat="37.6255788" lon="-0.431947"><ele>0.0</ele><time>2026-04-29T14:42:58.087Z</time></trkpt><trkpt lat="37.625654" lon="-0.4318747"><ele>0.0</ele><time>2026-04-29T14:42:59.086Z</time></trkpt><trkpt lat="37.62573" lon="-0.431808"><ele>0.0</ele><time>2026-04-29T14:43:00.086Z</time></trkpt><trkpt lat="37.6258051" lon="-0.4317265"><ele>0.0</ele><time>2026-04-29T14:43:01.092Z</time></trkpt><trkpt lat="37.6258864" lon="-0.4316599"><ele>0.0</ele><time>2026-04-29T14:43:02.099Z</time></trkpt><trkpt lat="37.6259762" lon="-0.4316072"><ele>0.0</ele><time>2026-04-29T14:43:03.105Z</time></trkpt><trkpt lat="37.6260636" lon="-0.4315769"><ele>0.0</ele><time>2026-04-29T14:43:04.11Z</time></trkpt><trkpt lat="37.6261466" lon="-0.4315284"><ele>0.0</ele><time>2026-04-29T14:43:05.116Z</time></trkpt><trkpt lat="37.6262144" lon="-0.4312822"><ele>0.0</ele><time>2026-04-29T14:43:07.127Z</time></trkpt><trkpt lat="37.6262996" lon="-0.4312159"><ele>0.0</ele><time>2026-04-29T14:43:08.134Z</time></trkpt><trkpt lat="37.6263945" lon="-0.43118"><ele>0.0</ele><time>2026-04-29T14:43:09.139Z</time></trkpt><trkpt lat="37.6264835" lon="-0.4310778"><ele>0.0</ele><time>2026-04-29T14:43:11.15Z</time></trkpt><trkpt lat="37.6265893" lon="-0.4310165"><ele>0.0</ele><time>2026-04-29T14:43:12.157Z</time></trkpt><trkpt lat="37.6266852" lon="-0.4309776"><ele>0.0</ele><time>2026-04-29T14:43:13.162Z</time></trkpt><trkpt lat="37.6267639" lon="-0.430913"><ele>0.0</ele><time>2026-04-29T14:43:14.086Z</time></trkpt><trkpt lat="37.626843" lon="-0.4308415"><ele>0.0</ele><time>2026-04-29T14:43:15.087Z</time></trkpt><trkpt lat="37.626916" lon="-0.430766"><ele>0.0</ele><time>2026-04-29T14:43:16.086Z</time></trkpt><trkpt lat="37.6269922" lon="-0.4306914"><ele>0.0</ele><time>2026-04-29T14:43:17.086Z</time></trkpt><trkpt lat="37.6270677" lon="-0.4306155"><ele>0.0</ele><time>2026-04-29T14:43:18.092Z</time></trkpt><trkpt lat="37.6271442" lon="-0.4305394"><ele>0.0</ele><time>2026-04-29T14:43:19.098Z</time></trkpt><trkpt lat="37.6272088" lon="-0.4304551"><ele>0.0</ele><time>2026-04-29T14:43:20.103Z</time></trkpt><trkpt lat="37.6272829" lon="-0.4303923"><ele>0.0</ele><time>2026-04-29T14:43:21.108Z</time></trkpt><trkpt lat="37.627367" lon="-0.430278"><ele>0.0</ele><time>2026-04-29T14:43:23.12Z</time></trkpt><trkpt lat="37.6274589" lon="-0.430192"><ele>0.0</ele><time>2026-04-29T14:43:24.126Z</time></trkpt><trkpt lat="37.6275399" lon="-0.4301289"><ele>0.0</ele><time>2026-04-29T14:43:25.132Z</time></trkpt><trkpt lat="37.6276205" lon="-0.430062"><ele>0.0</ele><time>2026-04-29T14:43:26.139Z</time></trkpt><trkpt lat="37.6277637" lon="-0.4299187"><ele>0.0</ele><time>2026-04-29T14:43:28.15Z</time></trkpt><trkpt lat="37.6278402" lon="-0.429867"><ele>0.0</ele><time>2026-04-29T14:43:29.155Z</time></trkpt><trkpt lat="37.6279157" lon="-0.4298096"><ele>0.0</ele><time>2026-04-29T14:43:30.162Z</time></trkpt><trkpt lat="37.6279646" lon="-0.42968"><ele>0.0</ele><time>2026-04-29T14:43:32.174Z</time></trkpt><trkpt lat="37.6280613" lon="-0.429607"><ele>0.0</ele><time>2026-04-29T14:43:33.086Z</time></trkpt><trkpt lat="37.6281337" lon="-0.4295309"><ele>0.0</ele><time>2026-04-29T14:43:34.087Z</time></trkpt><trkpt lat="37.6282054" lon="-0.429453"><ele>0.0</ele><time>2026-04-29T14:43:35.091Z</time></trkpt><trkpt lat="37.6282779" lon="-0.4293706"><ele>0.0</ele><time>2026-04-29T14:43:36.096Z</time></trkpt><trkpt lat="37.628357" lon="-0.429294"><ele>0.0</ele><time>2026-04-29T14:43:37.101Z</time></trkpt><trkpt lat="37.6284076" lon="-0.4292464"><ele>0.0</ele><time>2026-04-29T14:43:38.087Z</time></trkpt><trkpt lat="37.6284429" lon="-0.4291631"><ele>0.0</ele><time>2026-04-29T14:43:39.114Z</time></trkpt><trkpt lat="37.6285359" lon="-0.429074"><ele>0.0</ele><time>2026-04-29T14:43:40.12Z</time></trkpt><trkpt lat="37.6286295" lon="-0.4290216"><ele>0.0</ele><time>2026-04-29T14:43:41.125Z</time></trkpt><trkpt lat="37.628707" lon="-0.428953"><ele>0.0</ele><time>2026-04-29T14:43:42.132Z</time></trkpt><trkpt lat="37.628787" lon="-0.4288823"><ele>0.0</ele><time>2026-04-29T14:43:43.137Z</time></trkpt><trkpt lat="37.6288651" lon="-0.4288114"><ele>0.0</ele><time>2026-04-29T14:43:44.143Z</time></trkpt><trkpt lat="37.6289439" lon="-0.428742"><ele>0.0</ele><time>2026-04-29T14:43:45.148Z</time></trkpt><trkpt lat="37.6290196" lon="-0.4286671"><ele>0.0</ele><time>2026-04-29T14:43:46.154Z</time></trkpt><trkpt lat="37.6290838" lon="-0.4285746"><ele>0.0</ele><time>2026-04-29T14:43:47.161Z</time></trkpt><trkpt lat="37.6292397" lon="-0.4284268"><ele>0.0</ele><time>2026-04-29T14:43:49.173Z</time></trkpt><trkpt lat="37.6293079" lon="-0.4283427"><ele>0.0</ele><time>2026-04-29T14:43:50.177Z</time></trkpt><trkpt lat="37.6293726" lon="-0.4282691"><ele>0.0</ele><time>2026-04-29T14:43:51.087Z</time></trkpt><trkpt lat="37.6294469" lon="-0.4281939"><ele>0.0</ele><time>2026-04-29T14:43:52.088Z</time></trkpt><trkpt lat="37.6295193" lon="-0.4281153"><ele>0.0</ele><time>2026-04-29T14:43:53.095Z</time></trkpt><trkpt lat="37.6295807" lon="-0.4280246"><ele>0.0</ele><time>2026-04-29T14:43:54.1Z</time></trkpt><trkpt lat="37.6296562" lon="-0.4279417"><ele>0.0</ele><time>2026-04-29T14:43:56.112Z</time></trkpt><trkpt lat="37.6297399" lon="-0.4278434"><ele>0.0</ele><time>2026-04-29T14:43:57.118Z</time></trkpt><trkpt lat="37.6298239" lon="-0.4277653"><ele>0.0</ele><time>2026-04-29T14:43:58.124Z</time></trkpt><trkpt lat="37.6298815" lon="-0.4276814"><ele>0.0</ele><time>2026-04-29T14:43:59.13Z</time></trkpt><trkpt lat="37.6299721" lon="-0.4276201"><ele>0.0</ele><time>2026-04-29T14:44:01.141Z</time></trkpt><trkpt lat="37.6300589" lon="-0.4275306"><ele>0.0</ele><time>2026-04-29T14:44:02.147Z</time></trkpt><trkpt lat="37.6301492" lon="-0.4274682"><ele>0.0</ele><time>2026-04-29T14:44:03.154Z</time></trkpt><trkpt lat="37.6302473" lon="-0.427419"><ele>0.0</ele><time>2026-04-29T14:44:04.159Z</time></trkpt><trkpt lat="37.6303451" lon="-0.4273724"><ele>0.0</ele><time>2026-04-29T14:44:05.165Z</time></trkpt><trkpt lat="37.6304278" lon="-0.4273169"><ele>0.0</ele><time>2026-04-29T14:44:06.17Z</time></trkpt><trkpt lat="37.6304834" lon="-0.4272323"><ele>0.0</ele><time>2026-04-29T14:44:07.087Z</time></trkpt><trkpt lat="37.6305424" lon="-0.4271445"><ele>0.0</ele><time>2026-04-29T14:44:08.087Z</time></trkpt><trkpt lat="37.6306865" lon="-0.4269803"><ele>0.0</ele><time>2026-04-29T14:44:10.093Z</time></trkpt><trkpt lat="37.6307698" lon="-0.4269137"><ele>0.0</ele><time>2026-04-29T14:44:11.1Z</time></trkpt><trkpt lat="37.6308509" lon="-0.4268472"><ele>0.0</ele><time>2026-04-29T14:44:12.105Z</time></trkpt><trkpt lat="37.6309134" lon="-0.4267476"><ele>0.0</ele><time>2026-04-29T14:44:13.111Z</time></trkpt><trkpt lat="37.6309771" lon="-0.4266512"><ele>0.0</ele><time>2026-04-29T14:44:14.117Z</time></trkpt><trkpt lat="37.6310586" lon="-0.426573"><ele>0.0</ele><time>2026-04-29T14:44:15.122Z</time></trkpt><trkpt lat="37.631144" lon="-0.4265018"><ele>0.0</ele><time>2026-04-29T14:44:16.128Z</time></trkpt><trkpt lat="37.631229" lon="-0.4264345"><ele>0.0</ele><time>2026-04-29T14:44:17.134Z</time></trkpt><trkpt lat="37.6312976" lon="-0.4263555"><ele>0.0</ele><time>2026-04-29T14:44:18.14Z</time></trkpt><trkpt lat="37.6313585" lon="-0.4262751"><ele>0.0</ele><time>2026-04-29T14:44:19.146Z</time></trkpt><trkpt lat="37.6314305" lon="-0.426199"><ele>0.0</ele><time>2026-04-29T14:44:20.153Z</time></trkpt><trkpt lat="37.631509" lon="-0.426126"><ele>0.0</ele><time>2026-04-29T14:44:21.158Z</time></trkpt><trkpt lat="37.6315821" lon="-0.4260512"><ele>0.0</ele><time>2026-04-29T14:44:22.164Z</time></trkpt><trkpt lat="37.6317117" lon="-0.4259351"><ele>0.0</ele><time>2026-04-29T14:44:25.087Z</time></trkpt><trkpt lat="37.631792" lon="-0.4258632"><ele>0.0</ele><time>2026-04-29T14:44:26.086Z</time></trkpt><trkpt lat="37.6318681" lon="-0.4257767"><ele>0.0</ele><time>2026-04-29T14:44:27.092Z</time></trkpt><trkpt lat="37.63195" lon="-0.4257033"><ele>0.0</ele><time>2026-04-29T14:44:28.099Z</time></trkpt><trkpt lat="37.6320298" lon="-0.4256272"><ele>0.0</ele><time>2026-04-29T14:44:29.104Z</time></trkpt><trkpt lat="37.6321819" lon="-0.4254572"><ele>0.0</ele><time>2026-04-29T14:44:31.115Z</time></trkpt><trkpt lat="37.6322681" lon="-0.425379"><ele>0.0</ele><time>2026-04-29T14:44:32.122Z</time></trkpt><trkpt lat="37.632334" lon="-0.4252607"><ele>0.0</ele><time>2026-04-29T14:44:34.133Z</time></trkpt><trkpt lat="37.632435" lon="-0.4251868"><ele>0.0</ele><time>2026-04-29T14:44:35.14Z</time></trkpt><trkpt lat="37.6325255" lon="-0.4251315"><ele>0.0</ele><time>2026-04-29T14:44:36.145Z</time></trkpt><trkpt lat="37.632657" lon="-0.4249825"><ele>0.0</ele><time>2026-04-29T14:44:38.156Z</time></trkpt><trkpt lat="37.6327356" lon="-0.4249317"><ele>0.0</ele><time>2026-04-29T14:44:39.163Z</time></trkpt><trkpt lat="37.6328126" lon="-0.4248719"><ele>0.0</ele><time>2026-04-29T14:44:40.168Z</time></trkpt><trkpt lat="37.6328717" lon="-0.4247776"><ele>0.0</ele><time>2026-04-29T14:44:41.087Z</time></trkpt><trkpt lat="37.6329519" lon="-0.4247034"><ele>0.0</ele><time>2026-04-29T14:44:42.087Z</time></trkpt><trkpt lat="37.6330229" lon="-0.4245704"><ele>0.0</ele><time>2026-04-29T14:44:44.092Z</time></trkpt><trkpt lat="37.6331091" lon="-0.4244837"><ele>0.0</ele><time>2026-04-29T14:44:45.097Z</time></trkpt><trkpt lat="37.6331913" lon="-0.4244259"><ele>0.0</ele><time>2026-04-29T14:44:46.104Z</time></trkpt><trkpt lat="37.6332649" lon="-0.4243626"><ele>0.0</ele><time>2026-04-29T14:44:47.108Z</time></trkpt><trkpt lat="37.6333405" lon="-0.4242926"><ele>0.0</ele><time>2026-04-29T14:44:48.115Z</time></trkpt><trkpt lat="37.6334145" lon="-0.4242135"><ele>0.0</ele><time>2026-04-29T14:44:49.121Z</time></trkpt><trkpt lat="37.6334858" lon="-0.4241229"><ele>0.0</ele><time>2026-04-29T14:44:50.127Z</time></trkpt><trkpt lat="37.6336435" lon="-0.4239699"><ele>0.0</ele><time>2026-04-29T14:44:52.138Z</time></trkpt><trkpt lat="37.6337119" lon="-0.423892"><ele>0.0</ele><time>2026-04-29T14:44:53.144Z</time></trkpt><trkpt lat="37.6337748" lon="-0.4238051"><ele>0.0</ele><time>2026-04-29T14:44:54.149Z</time></trkpt><trkpt lat="37.6338413" lon="-0.4237199"><ele>0.0</ele><time>2026-04-29T14:44:55.156Z</time></trkpt><trkpt lat="37.6339189" lon="-0.4236401"><ele>0.0</ele><time>2026-04-29T14:44:56.162Z</time></trkpt><trkpt lat="37.6339978" lon="-0.4235622"><ele>0.0</ele><time>2026-04-29T14:44:57.168Z</time></trkpt><trkpt lat="37.6340827" lon="-0.4234923"><ele>0.0</ele><time>2026-04-29T14:44:58.173Z</time></trkpt><trkpt lat="37.6341611" lon="-0.4234249"><ele>0.0</ele><time>2026-04-29T14:44:59.086Z</time></trkpt><trkpt lat="37.6342236" lon="-0.4233186"><ele>0.0</ele><time>2026-04-29T14:45:01.09Z</time></trkpt><trkpt lat="37.6343053" lon="-0.4232424"><ele>0.0</ele><time>2026-04-29T14:45:02.096Z</time></trkpt><trkpt lat="37.6343754" lon="-0.4231783"><ele>0.0</ele><time>2026-04-29T14:45:03.102Z</time></trkpt><trkpt lat="37.6344535" lon="-0.4231255"><ele>0.0</ele><time>2026-04-29T14:45:04.107Z</time></trkpt><trkpt lat="37.6345305" lon="-0.4230688"><ele>0.0</ele><time>2026-04-29T14:45:05.113Z</time></trkpt><trkpt lat="37.6346011" lon="-0.4230026"><ele>0.0</ele><time>2026-04-29T14:45:06.12Z</time></trkpt><trkpt lat="37.6346676" lon="-0.4229316"><ele>0.0</ele><time>2026-04-29T14:45:07.125Z</time></trkpt><trkpt lat="37.6347391" lon="-0.4228594"><ele>0.0</ele><time>2026-04-29T14:45:08.131Z</time></trkpt><trkpt lat="37.6348152" lon="-0.4227776"><ele>0.0</ele><time>2026-04-29T14:45:09.137Z</time></trkpt><trkpt lat="37.6348991" lon="-0.4227072"><ele>0.0</ele><time>2026-04-29T14:45:10.144Z</time></trkpt><trkpt lat="37.634984" lon="-0.422608"><ele>0.0</ele><time>2026-04-29T14:45:12.155Z</time></trkpt><trkpt lat="37.6351565" lon="-0.4224545"><ele>0.0</ele><time>2026-04-29T14:45:14.166Z</time></trkpt><trkpt lat="37.6352421" lon="-0.4223975"><ele>0.0</ele><time>2026-04-29T14:45:15.087Z</time></trkpt><trkpt lat="37.6353197" lon="-0.4223162"><ele>0.0</ele><time>2026-04-29T14:45:16.087Z</time></trkpt><trkpt lat="37.6353881" lon="-0.4222241"><ele>0.0</ele><time>2026-04-29T14:45:17.086Z</time></trkpt><trkpt lat="37.6354687" lon="-0.4220983"><ele>0.0</ele><time>2026-04-29T14:45:19.095Z</time></trkpt><trkpt lat="37.6355675" lon="-0.4220203"><ele>0.0</ele><time>2026-04-29T14:45:20.101Z</time></trkpt><trkpt lat="37.635641" lon="-0.4219451"><ele>0.0</ele><time>2026-04-29T14:45:21.106Z</time></trkpt><trkpt lat="37.6357121" lon="-0.4218664"><ele>0.0</ele><time>2026-04-29T14:45:22.113Z</time></trkpt><trkpt lat="37.6357846" lon="-0.421792"><ele>0.0</ele><time>2026-04-29T14:45:23.119Z</time></trkpt><trkpt lat="37.6358604" lon="-0.4217179"><ele>0.0</ele><time>2026-04-29T14:45:24.125Z</time></trkpt><trkpt lat="37.6359458" lon="-0.4216457"><ele>0.0</ele><time>2026-04-29T14:45:25.13Z</time></trkpt><trkpt lat="37.6360352" lon="-0.4215877"><ele>0.0</ele><time>2026-04-29T14:45:26.136Z</time></trkpt><trkpt lat="37.636096" lon="-0.4214552"><ele>0.0</ele><time>2026-04-29T14:45:28.147Z</time></trkpt><trkpt lat="37.6361821" lon="-0.4213648"><ele>0.0</ele><time>2026-04-29T14:45:29.153Z</time></trkpt><trkpt lat="37.636262" lon="-0.4212886"><ele>0.0</ele><time>2026-04-29T14:45:30.159Z</time></trkpt><trkpt lat="37.6363353" lon="-0.4212125"><ele>0.0</ele><time>2026-04-29T14:45:31.165Z</time></trkpt><trkpt lat="37.6364092" lon="-0.4211696"><ele>0.0</ele><time>2026-04-29T14:45:32.087Z</time></trkpt><trkpt lat="37.6364819" lon="-0.4210982"><ele>0.0</ele><time>2026-04-29T14:45:33.087Z</time></trkpt><trkpt lat="37.6366263" lon="-0.420931"><ele>0.0</ele><time>2026-04-29T14:45:35.088Z</time></trkpt><trkpt lat="37.6366996" lon="-0.4208452"><ele>0.0</ele><time>2026-04-29T14:45:36.094Z</time></trkpt><trkpt lat="37.6367764" lon="-0.420776"><ele>0.0</ele><time>2026-04-29T14:45:37.101Z</time></trkpt><trkpt lat="37.6368381" lon="-0.4206778"><ele>0.0</ele><time>2026-04-29T14:45:39.111Z</time></trkpt><trkpt lat="37.6369474" lon="-0.420612"><ele>0.0</ele><time>2026-04-29T14:45:40.117Z</time></trkpt><trkpt lat="37.637112" lon="-0.420543"><ele>0.0</ele><time>2026-04-29T14:45:42.13Z</time></trkpt><trkpt lat="37.637189" lon="-0.4204767"><ele>0.0</ele><time>2026-04-29T14:45:43.135Z</time></trkpt><trkpt lat="37.63726" lon="-0.4203973"><ele>0.0</ele><time>2026-04-29T14:45:44.141Z</time></trkpt><trkpt lat="37.6373314" lon="-0.4203235"><ele>0.0</ele><time>2026-04-29T14:45:45.147Z</time></trkpt><trkpt lat="37.6374183" lon="-0.4202655"><ele>0.0</ele><time>2026-04-29T14:45:46.152Z</time></trkpt><trkpt lat="37.6374957" lon="-0.4201882"><ele>0.0</ele><time>2026-04-29T14:45:47.158Z</time></trkpt><trkpt lat="37.6375678" lon="-0.4201087"><ele>0.0</ele><time>2026-04-29T14:45:48.164Z</time></trkpt><trkpt lat="37.6376807" lon="-0.4199997"><ele>0.0</ele><time>2026-04-29T14:45:50.086Z</time></trkpt><trkpt lat="37.6377569" lon="-0.4199408"><ele>0.0</ele><time>2026-04-29T14:45:51.087Z</time></trkpt><trkpt lat="37.6378278" lon="-0.4198719"><ele>0.0</ele><time>2026-04-29T14:45:52.088Z</time></trkpt><trkpt lat="37.6378982" lon="-0.4197946"><ele>0.0</ele><time>2026-04-29T14:45:53.093Z</time></trkpt><trkpt lat="37.637974" lon="-0.4197211"><ele>0.0</ele><time>2026-04-29T14:45:54.099Z</time></trkpt><trkpt lat="37.6381145" lon="-0.4195737"><ele>0.0</ele><time>2026-04-29T14:45:56.11Z</time></trkpt><trkpt lat="37.6381938" lon="-0.4195197"><ele>0.0</ele><time>2026-04-29T14:45:57.117Z</time></trkpt><trkpt lat="37.6382676" lon="-0.4194485"><ele>0.0</ele><time>2026-04-29T14:45:58.122Z</time></trkpt><trkpt lat="37.638331" lon="-0.4193375"><ele>0.0</ele><time>2026-04-29T14:46:00.134Z</time></trkpt><trkpt lat="37.6384281" lon="-0.4192545"><ele>0.0</ele><time>2026-04-29T14:46:01.14Z</time></trkpt><trkpt lat="37.6385238" lon="-0.4191872"><ele>0.0</ele><time>2026-04-29T14:46:02.145Z</time></trkpt><trkpt lat="37.6386038" lon="-0.4191098"><ele>0.0</ele><time>2026-04-29T14:46:03.151Z</time></trkpt><trkpt lat="37.6386824" lon="-0.4190349"><ele>0.0</ele><time>2026-04-29T14:46:04.158Z</time></trkpt><trkpt lat="37.6387609" lon="-0.4189621"><ele>0.0</ele><time>2026-04-29T14:46:05.164Z</time></trkpt><trkpt lat="37.6388309" lon="-0.4188733"><ele>0.0</ele><time>2026-04-29T14:46:06.169Z</time></trkpt><trkpt lat="37.6389022" lon="-0.4188138"><ele>0.0</ele><time>2026-04-29T14:46:07.086Z</time></trkpt><trkpt lat="37.6389745" lon="-0.4187347"><ele>0.0</ele><time>2026-04-29T14:46:08.086Z</time></trkpt><trkpt lat="37.6390403" lon="-0.4186513"><ele>0.0</ele><time>2026-04-29T14:46:09.087Z</time></trkpt><trkpt lat="37.6391084" lon="-0.418561"><ele>0.0</ele><time>2026-04-29T14:46:10.092Z</time></trkpt><trkpt lat="37.6391836" lon="-0.4184795"><ele>0.0</ele><time>2026-04-29T14:46:11.099Z</time></trkpt><trkpt lat="37.6392562" lon="-0.4183989"><ele>0.0</ele><time>2026-04-29T14:46:12.104Z</time></trkpt><trkpt lat="37.6393373" lon="-0.4183421"><ele>0.0</ele><time>2026-04-29T14:46:13.109Z</time></trkpt><trkpt lat="37.6394127" lon="-0.4182651"><ele>0.0</ele><time>2026-04-29T14:46:15.121Z</time></trkpt><trkpt lat="37.6395876" lon="-0.4181321"><ele>0.0</ele><time>2026-04-29T14:46:17.134Z</time></trkpt><trkpt lat="37.6396495" lon="-0.4180623"><ele>0.0</ele><time>2026-04-29T14:46:18.14Z</time></trkpt><trkpt lat="37.6397272" lon="-0.4180069"><ele>0.0</ele><time>2026-04-29T14:46:19.144Z</time></trkpt><trkpt lat="37.6398121" lon="-0.4179497"><ele>0.0</ele><time>2026-04-29T14:46:20.15Z</time></trkpt><trkpt lat="37.6398932" lon="-0.4178838"><ele>0.0</ele><time>2026-04-29T14:46:21.156Z</time></trkpt><trkpt lat="37.6399563" lon="-0.4177998"><ele>0.0</ele><time>2026-04-29T14:46:22.162Z</time></trkpt><trkpt lat="37.6399939" lon="-0.4176985"><ele>0.0</ele><time>2026-04-29T14:46:23.086Z</time></trkpt><trkpt lat="37.6400574" lon="-0.4175995"><ele>0.0</ele><time>2026-04-29T14:46:24.175Z</time></trkpt><trkpt lat="37.6401375" lon="-0.4175288"><ele>0.0</ele><time>2026-04-29T14:46:25.087Z</time></trkpt><trkpt lat="37.6402866" lon="-0.4174174"><ele>0.0</ele><time>2026-04-29T14:46:28.097Z</time></trkpt><trkpt lat="37.6403858" lon="-0.4173108"><ele>0.0</ele><time>2026-04-29T14:46:29.104Z</time></trkpt><trkpt lat="37.6404677" lon="-0.4172295"><ele>0.0</ele><time>2026-04-29T14:46:30.109Z</time></trkpt><trkpt lat="37.640542" lon="-0.4171512"><ele>0.0</ele><time>2026-04-29T14:46:31.114Z</time></trkpt><trkpt lat="37.6406176" lon="-0.4170833"><ele>0.0</ele><time>2026-04-29T14:46:32.12Z</time></trkpt><trkpt lat="37.6406879" lon="-0.4170061"><ele>0.0</ele><time>2026-04-29T14:46:33.126Z</time></trkpt><trkpt lat="37.6407614" lon="-0.4169321"><ele>0.0</ele><time>2026-04-29T14:46:34.133Z</time></trkpt><trkpt lat="37.6408463" lon="-0.4168687"><ele>0.0</ele><time>2026-04-29T14:46:35.139Z</time></trkpt><trkpt lat="37.640933" lon="-0.4168058"><ele>0.0</ele><time>2026-04-29T14:46:36.144Z</time></trkpt><trkpt lat="37.6410871" lon="-0.416656"><ele>0.0</ele><time>2026-04-29T14:46:38.155Z</time></trkpt><trkpt lat="37.6411619" lon="-0.4165825"><ele>0.0</ele><time>2026-04-29T14:46:39.161Z</time></trkpt><trkpt lat="37.6412337" lon="-0.416512"><ele>0.0</ele><time>2026-04-29T14:46:40.167Z</time></trkpt><trkpt lat="37.6413121" lon="-0.4164534"><ele>0.0</ele><time>2026-04-29T14:46:41.174Z</time></trkpt><trkpt lat="37.6414022" lon="-0.4163522"><ele>0.0</ele><time>2026-04-29T14:46:43.086Z</time></trkpt><trkpt lat="37.6414663" lon="-0.4162775"><ele>0.0</ele><time>2026-04-29T14:46:44.09Z</time></trkpt><trkpt lat="37.6416304" lon="-0.4161427"><ele>0.0</ele><time>2026-04-29T14:46:46.102Z</time></trkpt><trkpt lat="37.6417103" lon="-0.4160752"><ele>0.0</ele><time>2026-04-29T14:46:47.108Z</time></trkpt><trkpt lat="37.641786" lon="-0.4160029"><ele>0.0</ele><time>2026-04-29T14:46:48.113Z</time></trkpt><trkpt lat="37.6418545" lon="-0.4159296"><ele>0.0</ele><time>2026-04-29T14:46:49.119Z</time></trkpt><trkpt lat="37.6419261" lon="-0.4158519"><ele>0.0</ele><time>2026-04-29T14:46:50.125Z</time></trkpt><trkpt lat="37.6419926" lon="-0.4157655"><ele>0.0</ele><time>2026-04-29T14:46:51.131Z</time></trkpt><trkpt lat="37.6420578" lon="-0.4156875"><ele>0.0</ele><time>2026-04-29T14:46:52.138Z</time></trkpt><trkpt lat="37.6422143" lon="-0.4155995"><ele>0.0</ele><time>2026-04-29T14:46:55.156Z</time></trkpt><trkpt lat="37.6423144" lon="-0.415516"><ele>0.0</ele><time>2026-04-29T14:46:56.16Z</time></trkpt><trkpt lat="37.6424042" lon="-0.4154351"><ele>0.0</ele><time>2026-04-29T14:46:57.167Z</time></trkpt><trkpt lat="37.6425574" lon="-0.4153197"><ele>0.0</ele><time>2026-04-29T14:46:59.085Z</time></trkpt><trkpt lat="37.6426289" lon="-0.4152408"><ele>0.0</ele><time>2026-04-29T14:47:00.085Z</time></trkpt><trkpt lat="37.6427014" lon="-0.4151636"><ele>0.0</ele><time>2026-04-29T14:47:01.089Z</time></trkpt><trkpt lat="37.6427782" lon="-0.4150981"><ele>0.0</ele><time>2026-04-29T14:47:02.095Z</time></trkpt><trkpt lat="37.6428571" lon="-0.4150374"><ele>0.0</ele><time>2026-04-29T14:47:03.101Z</time></trkpt><trkpt lat="37.6429269" lon="-0.4148931"><ele>0.0</ele><time>2026-04-29T14:47:05.114Z</time></trkpt><trkpt lat="37.6430217" lon="-0.4148113"><ele>0.0</ele><time>2026-04-29T14:47:06.118Z</time></trkpt><trkpt lat="37.643101" lon="-0.4147429"><ele>0.0</ele><time>2026-04-29T14:47:07.125Z</time></trkpt><trkpt lat="37.6431679" lon="-0.4146611"><ele>0.0</ele><time>2026-04-29T14:47:08.13Z</time></trkpt><trkpt lat="37.6432438" lon="-0.4145795"><ele>0.0</ele><time>2026-04-29T14:47:09.137Z</time></trkpt><trkpt lat="37.6433204" lon="-0.4144956"><ele>0.0</ele><time>2026-04-29T14:47:10.142Z</time></trkpt><trkpt lat="37.6433894" lon="-0.4144001"><ele>0.0</ele><time>2026-04-29T14:47:11.148Z</time></trkpt><trkpt lat="37.6434523" lon="-0.414301"><ele>0.0</ele><time>2026-04-29T14:47:12.155Z</time></trkpt><trkpt lat="37.6435319" lon="-0.4142253"><ele>0.0</ele><time>2026-04-29T14:47:13.16Z</time></trkpt><trkpt lat="37.6436106" lon="-0.4141484"><ele>0.0</ele><time>2026-04-29T14:47:14.165Z</time></trkpt><trkpt lat="37.6436897" lon="-0.4140769"><ele>0.0</ele><time>2026-04-29T14:47:15.172Z</time></trkpt><trkpt lat="37.6437695" lon="-0.4140378"><ele>0.0</ele><time>2026-04-29T14:47:16.085Z</time></trkpt><trkpt lat="37.6439191" lon="-0.4139099"><ele>0.0</ele><time>2026-04-29T14:47:18.088Z</time></trkpt><trkpt lat="37.6440675" lon="-0.413714"><ele>0.0</ele><time>2026-04-29T14:47:21.107Z</time></trkpt><trkpt lat="37.6441423" lon="-0.4136216"><ele>0.0</ele><time>2026-04-29T14:47:22.113Z</time></trkpt><trkpt lat="37.6442099" lon="-0.4135401"><ele>0.0</ele><time>2026-04-29T14:47:23.117Z</time></trkpt><trkpt lat="37.6442767" lon="-0.4134609"><ele>0.0</ele><time>2026-04-29T14:47:24.123Z</time></trkpt><trkpt lat="37.6443512" lon="-0.4133868"><ele>0.0</ele><time>2026-04-29T14:47:25.129Z</time></trkpt><trkpt lat="37.6444283" lon="-0.4133128"><ele>0.0</ele><time>2026-04-29T14:47:26.135Z</time></trkpt><trkpt lat="37.6445026" lon="-0.4132363"><ele>0.0</ele><time>2026-04-29T14:47:27.141Z</time></trkpt><trkpt lat="37.6445623" lon="-0.4130966"><ele>0.0</ele><time>2026-04-29T14:47:29.153Z</time></trkpt><trkpt lat="37.6446598" lon="-0.4130022"><ele>0.0</ele><time>2026-04-29T14:47:30.158Z</time></trkpt><trkpt lat="37.6447341" lon="-0.4129331"><ele>0.0</ele><time>2026-04-29T14:47:31.086Z</time></trkpt><trkpt lat="37.6448069" lon="-0.4128519"><ele>0.0</ele><time>2026-04-29T14:47:32.17Z</time></trkpt><trkpt lat="37.6448749" lon="-0.412774"><ele>0.0</ele><time>2026-04-29T14:47:33.176Z</time></trkpt><trkpt lat="37.6449396" lon="-0.4127188"><ele>0.0</ele><time>2026-04-29T14:47:34.086Z</time></trkpt><trkpt lat="37.6450077" lon="-0.4126447"><ele>0.0</ele><time>2026-04-29T14:47:35.087Z</time></trkpt><trkpt lat="37.6450807" lon="-0.4125645"><ele>0.0</ele><time>2026-04-29T14:47:36.093Z</time></trkpt><trkpt lat="37.6451554" lon="-0.4124788"><ele>0.0</ele><time>2026-04-29T14:47:37.1Z</time></trkpt><trkpt lat="37.6452355" lon="-0.4124022"><ele>0.0</ele><time>2026-04-29T14:47:38.105Z</time></trkpt><trkpt lat="37.6453238" lon="-0.4123466"><ele>0.0</ele><time>2026-04-29T14:47:39.111Z</time></trkpt><trkpt lat="37.6454771" lon="-0.4121887"><ele>0.0</ele><time>2026-04-29T14:47:41.123Z</time></trkpt><trkpt lat="37.6455495" lon="-0.4121039"><ele>0.0</ele><time>2026-04-29T14:47:42.129Z</time></trkpt><trkpt lat="37.6456344" lon="-0.4120369"><ele>0.0</ele><time>2026-04-29T14:47:43.134Z</time></trkpt><trkpt lat="37.6457078" lon="-0.4119481"><ele>0.0</ele><time>2026-04-29T14:47:44.14Z</time></trkpt><trkpt lat="37.6457945" lon="-0.4118312"><ele>0.0</ele><time>2026-04-29T14:47:46.151Z</time></trkpt><trkpt lat="37.6459029" lon="-0.4117552"><ele>0.0</ele><time>2026-04-29T14:47:47.158Z</time></trkpt><trkpt lat="37.6459951" lon="-0.4116899"><ele>0.0</ele><time>2026-04-29T14:47:48.163Z</time></trkpt><trkpt lat="37.6460779" lon="-0.4116249"><ele>0.0</ele><time>2026-04-29T14:47:49.085Z</time></trkpt><trkpt lat="37.6461293" lon="-0.4115775"><ele>0.0</ele><time>2026-04-29T14:47:50.085Z</time></trkpt><trkpt lat="37.6461975" lon="-0.4115075"><ele>0.0</ele><time>2026-04-29T14:47:51.086Z</time></trkpt><trkpt lat="37.6462756" lon="-0.4114433"><ele>0.0</ele><time>2026-04-29T14:47:52.087Z</time></trkpt><trkpt lat="37.6463665" lon="-0.4113703"><ele>0.0</ele><time>2026-04-29T14:47:53.093Z</time></trkpt><trkpt lat="37.6464429" lon="-0.4112915"><ele>0.0</ele><time>2026-04-29T14:47:54.099Z</time></trkpt><trkpt lat="37.6465064" lon="-0.411201"><ele>0.0</ele><time>2026-04-29T14:47:55.104Z</time></trkpt><trkpt lat="37.6465697" lon="-0.4111193"><ele>0.0</ele><time>2026-04-29T14:47:56.109Z</time></trkpt><trkpt lat="37.6466368" lon="-0.4110406"><ele>0.0</ele><time>2026-04-29T14:47:57.116Z</time></trkpt><trkpt lat="37.6467183" lon="-0.410951"><ele>0.0</ele><time>2026-04-29T14:47:59.128Z</time></trkpt><trkpt lat="37.646824" lon="-0.4108793"><ele>0.0</ele><time>2026-04-29T14:48:00.133Z</time></trkpt><trkpt lat="37.6469903" lon="-0.4107609"><ele>0.0</ele><time>2026-04-29T14:48:02.146Z</time></trkpt><trkpt lat="37.6470677" lon="-0.4106531"><ele>0.0</ele><time>2026-04-29T14:48:04.157Z</time></trkpt><trkpt lat="37.6471827" lon="-0.4105877"><ele>0.0</ele><time>2026-04-29T14:48:05.162Z</time></trkpt><trkpt lat="37.647273" lon="-0.4105331"><ele>0.0</ele><time>2026-04-29T14:48:06.168Z</time></trkpt><trkpt lat="37.6473466" lon="-0.4104698"><ele>0.0</ele><time>2026-04-29T14:48:07.085Z</time></trkpt><trkpt lat="37.6474267" lon="-0.4103942"><ele>0.0</ele><time>2026-04-29T14:48:08.086Z</time></trkpt><trkpt lat="37.6475019" lon="-0.4103155"><ele>0.0</ele><time>2026-04-29T14:48:09.085Z</time></trkpt><trkpt lat="37.6475784" lon="-0.4102407"><ele>0.0</ele><time>2026-04-29T14:48:10.091Z</time></trkpt><trkpt lat="37.6476562" lon="-0.4101656"><ele>0.0</ele><time>2026-04-29T14:48:11.097Z</time></trkpt><trkpt lat="37.6477387" lon="-0.4100929"><ele>0.0</ele><time>2026-04-29T14:48:12.103Z</time></trkpt><trkpt lat="37.6478281" lon="-0.409967"><ele>0.0</ele><time>2026-04-29T14:48:14.114Z</time></trkpt><trkpt lat="37.6479195" lon="-0.4098802"><ele>0.0</ele><time>2026-04-29T14:48:15.121Z</time></trkpt><trkpt lat="37.6480065" lon="-0.4098168"><ele>0.0</ele><time>2026-04-29T14:48:16.127Z</time></trkpt><trkpt lat="37.6480875" lon="-0.4097549"><ele>0.0</ele><time>2026-04-29T14:48:17.133Z</time></trkpt><trkpt lat="37.6481712" lon="-0.4096994"><ele>0.0</ele><time>2026-04-29T14:48:18.138Z</time></trkpt><trkpt lat="37.6482538" lon="-0.4095875"><ele>0.0</ele><time>2026-04-29T14:48:20.149Z</time></trkpt><trkpt lat="37.648363" lon="-0.4095205"><ele>0.0</ele><time>2026-04-29T14:48:21.156Z</time></trkpt><trkpt lat="37.6485437" lon="-0.4094239"><ele>0.0</ele><time>2026-04-29T14:48:23.168Z</time></trkpt><trkpt lat="37.6486072" lon="-0.4093389"><ele>0.0</ele><time>2026-04-29T14:48:24.173Z</time></trkpt><trkpt lat="37.6486657" lon="-0.4092531"><ele>0.0</ele><time>2026-04-29T14:48:25.085Z</time></trkpt><trkpt lat="37.6487421" lon="-0.4091863"><ele>0.0</ele><time>2026-04-29T14:48:26.085Z</time></trkpt><trkpt lat="37.6488182" lon="-0.4091263"><ele>0.0</ele><time>2026-04-29T14:48:27.09Z</time></trkpt><trkpt lat="37.648903" lon="-0.4090035"><ele>0.0</ele><time>2026-04-29T14:48:29.102Z</time></trkpt><trkpt lat="37.6490154" lon="-0.4089398"><ele>0.0</ele><time>2026-04-29T14:48:30.107Z</time></trkpt><trkpt lat="37.6491009" lon="-0.4088672"><ele>0.0</ele><time>2026-04-29T14:48:31.114Z</time></trkpt><trkpt lat="37.6491835" lon="-0.4088034"><ele>0.0</ele><time>2026-04-29T14:48:32.12Z</time></trkpt><trkpt lat="37.6492629" lon="-0.4087423"><ele>0.0</ele><time>2026-04-29T14:48:33.125Z</time></trkpt><trkpt lat="37.6493461" lon="-0.4086791"><ele>0.0</ele><time>2026-04-29T14:48:34.131Z</time></trkpt><trkpt lat="37.6494241" lon="-0.4086115"><ele>0.0</ele><time>2026-04-29T14:48:35.136Z</time></trkpt><trkpt lat="37.6494894" lon="-0.4084698"><ele>0.0</ele><time>2026-04-29T14:48:37.149Z</time></trkpt><trkpt lat="37.6495943" lon="-0.4084021"><ele>0.0</ele><time>2026-04-29T14:48:38.154Z</time></trkpt><trkpt lat="37.6496819" lon="-0.4083536"><ele>0.0</ele><time>2026-04-29T14:48:39.16Z</time></trkpt><trkpt lat="37.6497748" lon="-0.4083191"><ele>0.0</ele><time>2026-04-29T14:48:40.167Z</time></trkpt><trkpt lat="37.6498605" lon="-0.408264"><ele>0.0</ele><time>2026-04-29T14:48:41.172Z</time></trkpt><trkpt lat="37.649923" lon="-0.4081863"><ele>0.0</ele><time>2026-04-29T14:48:42.086Z</time></trkpt><trkpt lat="37.6500656" lon="-0.4080351"><ele>0.0</ele><time>2026-04-29T14:48:44.09Z</time></trkpt><trkpt lat="37.650144" lon="-0.4079584"><ele>0.0</ele><time>2026-04-29T14:48:45.094Z</time></trkpt><trkpt lat="37.6502374" lon="-0.4079181"><ele>0.0</ele><time>2026-04-29T14:48:46.1Z</time></trkpt><trkpt lat="37.6503059" lon="-0.4078035"><ele>0.0</ele><time>2026-04-29T14:48:48.113Z</time></trkpt><trkpt lat="37.6504112" lon="-0.4077338"><ele>0.0</ele><time>2026-04-29T14:48:49.119Z</time></trkpt><trkpt lat="37.650489" lon="-0.4076677"><ele>0.0</ele><time>2026-04-29T14:48:50.125Z</time></trkpt><trkpt lat="37.650569" lon="-0.407607"><ele>0.0</ele><time>2026-04-29T14:48:51.129Z</time></trkpt><trkpt lat="37.650648" lon="-0.4075496"><ele>0.0</ele><time>2026-04-29T14:48:52.136Z</time></trkpt><trkpt lat="37.6507172" lon="-0.407469"><ele>0.0</ele><time>2026-04-29T14:48:53.142Z</time></trkpt><trkpt lat="37.6507928" lon="-0.4073885"><ele>0.0</ele><time>2026-04-29T14:48:54.148Z</time></trkpt><trkpt lat="37.6508801" lon="-0.4073196"><ele>0.0</ele><time>2026-04-29T14:48:55.153Z</time></trkpt><trkpt lat="37.6509658" lon="-0.4072464"><ele>0.0</ele><time>2026-04-29T14:48:56.159Z</time></trkpt><trkpt lat="37.6510506" lon="-0.4071828"><ele>0.0</ele><time>2026-04-29T14:48:57.166Z</time></trkpt><trkpt lat="37.6511344" lon="-0.4071043"><ele>0.0</ele><time>2026-04-29T14:48:58.17Z</time></trkpt><trkpt lat="37.6512193" lon="-0.4070586"><ele>0.0</ele><time>2026-04-29T14:48:59.085Z</time></trkpt><trkpt lat="37.6513027" lon="-0.4070063"><ele>0.0</ele><time>2026-04-29T14:49:00.085Z</time></trkpt><trkpt lat="37.6513857" lon="-0.4069547"><ele>0.0</ele><time>2026-04-29T14:49:01.087Z</time></trkpt><trkpt lat="37.6514689" lon="-0.406816"><ele>0.0</ele><time>2026-04-29T14:49:03.1Z</time></trkpt><trkpt lat="37.6516605" lon="-0.4066775"><ele>0.0</ele><time>2026-04-29T14:49:05.111Z</time></trkpt><trkpt lat="37.6517463" lon="-0.4066233"><ele>0.0</ele><time>2026-04-29T14:49:06.118Z</time></trkpt><trkpt lat="37.6518222" lon="-0.4065476"><ele>0.0</ele><time>2026-04-29T14:49:07.123Z</time></trkpt><trkpt lat="37.6518975" lon="-0.406478"><ele>0.0</ele><time>2026-04-29T14:49:08.128Z</time></trkpt><trkpt lat="37.6520137" lon="-0.4063329"><ele>0.0</ele><time>2026-04-29T14:49:11.146Z</time></trkpt><trkpt lat="37.6521096" lon="-0.4062712"><ele>0.0</ele><time>2026-04-29T14:49:12.152Z</time></trkpt><trkpt lat="37.6521939" lon="-0.4062046"><ele>0.0</ele><time>2026-04-29T14:49:13.158Z</time></trkpt><trkpt lat="37.652279" lon="-0.4061447"><ele>0.0</ele><time>2026-04-29T14:49:14.164Z</time></trkpt><trkpt lat="37.6523551" lon="-0.4060748"><ele>0.0</ele><time>2026-04-29T14:49:15.086Z</time></trkpt><trkpt lat="37.6524338" lon="-0.4060041"><ele>0.0</ele><time>2026-04-29T14:49:16.085Z</time></trkpt><trkpt lat="37.6525144" lon="-0.4059396"><ele>0.0</ele><time>2026-04-29T14:49:17.085Z</time></trkpt><trkpt lat="37.6525934" lon="-0.4058761"><ele>0.0</ele><time>2026-04-29T14:49:18.086Z</time></trkpt><trkpt lat="37.6526723" lon="-0.405811"><ele>0.0</ele><time>2026-04-29T14:49:19.093Z</time></trkpt><trkpt lat="37.6527585" lon="-0.4057514"><ele>0.0</ele><time>2026-04-29T14:49:20.099Z</time></trkpt><trkpt lat="37.6528328" lon="-0.4056747"><ele>0.0</ele><time>2026-04-29T14:49:21.105Z</time></trkpt><trkpt lat="37.6529032" lon="-0.405583"><ele>0.0</ele><time>2026-04-29T14:49:22.111Z</time></trkpt><trkpt lat="37.6529716" lon="-0.405514"><ele>0.0</ele><time>2026-04-29T14:49:23.116Z</time></trkpt><trkpt lat="37.6530606" lon="-0.4054595"><ele>0.0</ele><time>2026-04-29T14:49:24.122Z</time></trkpt><trkpt lat="37.6531309" lon="-0.4053772"><ele>0.0</ele><time>2026-04-29T14:49:25.128Z</time></trkpt><trkpt lat="37.6532962" lon="-0.405197"><ele>0.0</ele><time>2026-04-29T14:49:28.145Z</time></trkpt><trkpt lat="37.6533997" lon="-0.405121"><ele>0.0</ele><time>2026-04-29T14:49:29.151Z</time></trkpt><trkpt lat="37.6534833" lon="-0.40506"><ele>0.0</ele><time>2026-04-29T14:49:30.157Z</time></trkpt><trkpt lat="37.6535553" lon="-0.4050005"><ele>0.0</ele><time>2026-04-29T14:49:31.164Z</time></trkpt><trkpt lat="37.6536333" lon="-0.4049449"><ele>0.0</ele><time>2026-04-29T14:49:32.169Z</time></trkpt><trkpt lat="37.6537133" lon="-0.4048226"><ele>0.0</ele><time>2026-04-29T14:49:34.086Z</time></trkpt><trkpt lat="37.653789" lon="-0.4047668"><ele>0.0</ele><time>2026-04-29T14:49:35.087Z</time></trkpt><trkpt lat="37.653873" lon="-0.404699"><ele>0.0</ele><time>2026-04-29T14:49:36.092Z</time></trkpt><trkpt lat="37.6539573" lon="-0.4046371"><ele>0.0</ele><time>2026-04-29T14:49:37.098Z</time></trkpt><trkpt lat="37.6540385" lon="-0.4045832"><ele>0.0</ele><time>2026-04-29T14:49:38.104Z</time></trkpt><trkpt lat="37.6541204" lon="-0.4045271"><ele>0.0</ele><time>2026-04-29T14:49:39.109Z</time></trkpt><trkpt lat="37.6542039" lon="-0.4044688"><ele>0.0</ele><time>2026-04-29T14:49:40.115Z</time></trkpt><trkpt lat="37.6542833" lon="-0.4044109"><ele>0.0</ele><time>2026-04-29T14:49:41.122Z</time></trkpt><trkpt lat="37.6543598" lon="-0.4043468"><ele>0.0</ele><time>2026-04-29T14:49:42.127Z</time></trkpt><trkpt lat="37.6544347" lon="-0.404267"><ele>0.0</ele><time>2026-04-29T14:49:43.133Z</time></trkpt><trkpt lat="37.6545164" lon="-0.4041956"><ele>0.0</ele><time>2026-04-29T14:49:44.138Z</time></trkpt><trkpt lat="37.6546025" lon="-0.4040761"><ele>0.0</ele><time>2026-04-29T14:49:46.15Z</time></trkpt><trkpt lat="37.6548142" lon="-0.4039588"><ele>0.0</ele><time>2026-04-29T14:49:48.163Z</time></trkpt><trkpt lat="37.6548998" lon="-0.4038959"><ele>0.0</ele><time>2026-04-29T14:49:49.168Z</time></trkpt><trkpt lat="37.6549767" lon="-0.4038247"><ele>0.0</ele><time>2026-04-29T14:49:50.086Z</time></trkpt><trkpt lat="37.6550677" lon="-0.4037468"><ele>0.0</ele><time>2026-04-29T14:49:51.085Z</time></trkpt><trkpt lat="37.6551567" lon="-0.4036785"><ele>0.0</ele><time>2026-04-29T14:49:52.086Z</time></trkpt><trkpt lat="37.6552423" lon="-0.403608"><ele>0.0</ele><time>2026-04-29T14:49:53.091Z</time></trkpt><trkpt lat="37.6553267" lon="-0.4035502"><ele>0.0</ele><time>2026-04-29T14:49:54.096Z</time></trkpt><trkpt lat="37.6553513" lon="-0.4034678"><ele>0.0</ele><time>2026-04-29T14:49:56.108Z</time></trkpt><trkpt lat="37.6555875" lon="-0.4033274"><ele>0.0</ele><time>2026-04-29T14:49:58.121Z</time></trkpt><trkpt lat="37.6556885" lon="-0.4032748"><ele>0.0</ele><time>2026-04-29T14:49:59.126Z</time></trkpt><trkpt lat="37.6557754" lon="-0.4032044"><ele>0.0</ele><time>2026-04-29T14:50:00.132Z</time></trkpt><trkpt lat="37.6558459" lon="-0.4030868"><ele>0.0</ele><time>2026-04-29T14:50:02.144Z</time></trkpt><trkpt lat="37.6559381" lon="-0.4030323"><ele>0.0</ele><time>2026-04-29T14:50:03.15Z</time></trkpt><trkpt lat="37.6560258" lon="-0.4029918"><ele>0.0</ele><time>2026-04-29T14:50:04.155Z</time></trkpt><trkpt lat="37.6561114" lon="-0.4029404"><ele>0.0</ele><time>2026-04-29T14:50:05.162Z</time></trkpt><trkpt lat="37.6562036" lon="-0.4029018"><ele>0.0</ele><time>2026-04-29T14:50:06.167Z</time></trkpt><trkpt lat="37.6562927" lon="-0.4028427"><ele>0.0</ele><time>2026-04-29T14:50:07.085Z</time></trkpt><trkpt lat="37.6564748" lon="-0.4027142"><ele>0.0</ele><time>2026-04-29T14:50:09.085Z</time></trkpt><trkpt lat="37.6565613" lon="-0.4026582"><ele>0.0</ele><time>2026-04-29T14:50:10.09Z</time></trkpt><trkpt lat="37.6566536" lon="-0.4026122"><ele>0.0</ele><time>2026-04-29T14:50:11.096Z</time></trkpt><trkpt lat="37.6567404" lon="-0.402559"><ele>0.0</ele><time>2026-04-29T14:50:12.103Z</time></trkpt><trkpt lat="37.656813" lon="-0.4024452"><ele>0.0</ele><time>2026-04-29T14:50:14.114Z</time></trkpt><trkpt lat="37.6569013" lon="-0.4023661"><ele>0.0</ele><time>2026-04-29T14:50:15.119Z</time></trkpt><trkpt lat="37.6569856" lon="-0.4023181"><ele>0.0</ele><time>2026-04-29T14:50:16.126Z</time></trkpt><trkpt lat="37.657069" lon="-0.4022638"><ele>0.0</ele><time>2026-04-29T14:50:17.132Z</time></trkpt><trkpt lat="37.6571592" lon="-0.4022192"><ele>0.0</ele><time>2026-04-29T14:50:18.138Z</time></trkpt><trkpt lat="37.6572522" lon="-0.4021766"><ele>0.0</ele><time>2026-04-29T14:50:19.143Z</time></trkpt><trkpt lat="37.6573411" lon="-0.4021147"><ele>0.0</ele><time>2026-04-29T14:50:20.149Z</time></trkpt><trkpt lat="37.6574158" lon="-0.4019753"><ele>0.0</ele><time>2026-04-29T14:50:22.161Z</time></trkpt><trkpt lat="37.6575232" lon="-0.4019362"><ele>0.0</ele><time>2026-04-29T14:50:23.085Z</time></trkpt><trkpt lat="37.6576087" lon="-0.4018841"><ele>0.0</ele><time>2026-04-29T14:50:24.085Z</time></trkpt><trkpt lat="37.6576873" lon="-0.401808"><ele>0.0</ele><time>2026-04-29T14:50:25.085Z</time></trkpt><trkpt lat="37.6577608" lon="-0.4017261"><ele>0.0</ele><time>2026-04-29T14:50:26.085Z</time></trkpt><trkpt lat="37.6578355" lon="-0.4016497"><ele>0.0</ele><time>2026-04-29T14:50:27.09Z</time></trkpt><trkpt lat="37.6579263" lon="-0.4015397"><ele>0.0</ele><time>2026-04-29T14:50:29.101Z</time></trkpt><trkpt lat="37.6582072" lon="-0.4013628"><ele>0.0</ele><time>2026-04-29T14:50:32.119Z</time></trkpt><trkpt lat="37.6582963" lon="-0.4013061"><ele>0.0</ele><time>2026-04-29T14:50:33.125Z</time></trkpt><trkpt lat="37.658377" lon="-0.4012533"><ele>0.0</ele><time>2026-04-29T14:50:34.13Z</time></trkpt><trkpt lat="37.6584502" lon="-0.4011903"><ele>0.0</ele><time>2026-04-29T14:50:35.137Z</time></trkpt><trkpt lat="37.6585227" lon="-0.4011379"><ele>0.0</ele><time>2026-04-29T14:50:36.143Z</time></trkpt><trkpt lat="37.658609" lon="-0.4010952"><ele>0.0</ele><time>2026-04-29T14:50:37.148Z</time></trkpt><trkpt lat="37.6586904" lon="-0.4010305"><ele>0.0</ele><time>2026-04-29T14:50:38.154Z</time></trkpt><trkpt lat="37.6587741" lon="-0.4009165"><ele>0.0</ele><time>2026-04-29T14:50:40.166Z</time></trkpt><trkpt lat="37.6588708" lon="-0.4008558"><ele>0.0</ele><time>2026-04-29T14:50:41.173Z</time></trkpt><trkpt lat="37.6589638" lon="-0.4008112"><ele>0.0</ele><time>2026-04-29T14:50:42.177Z</time></trkpt><trkpt lat="37.659045" lon="-0.4007685"><ele>0.0</ele><time>2026-04-29T14:50:43.085Z</time></trkpt><trkpt lat="37.6591246" lon="-0.4007117"><ele>0.0</ele><time>2026-04-29T14:50:44.089Z</time></trkpt><trkpt lat="37.6592022" lon="-0.400652"><ele>0.0</ele><time>2026-04-29T14:50:45.095Z</time></trkpt><trkpt lat="37.6592825" lon="-0.4005853"><ele>0.0</ele><time>2026-04-29T14:50:46.1Z</time></trkpt><trkpt lat="37.6593629" lon="-0.4005289"><ele>0.0</ele><time>2026-04-29T14:50:47.107Z</time></trkpt><trkpt lat="37.6594372" lon="-0.4004674"><ele>0.0</ele><time>2026-04-29T14:50:48.113Z</time></trkpt><trkpt lat="37.6595054" lon="-0.4003978"><ele>0.0</ele><time>2026-04-29T14:50:49.119Z</time></trkpt><trkpt lat="37.6595533" lon="-0.4002942"><ele>0.0</ele><time>2026-04-29T14:50:50.125Z</time></trkpt><trkpt lat="37.6596048" lon="-0.400153"><ele>0.0</ele><time>2026-04-29T14:50:52.137Z</time></trkpt><trkpt lat="37.6597725" lon="-0.3999769"><ele>0.0</ele><time>2026-04-29T14:50:54.148Z</time></trkpt><trkpt lat="37.6598527" lon="-0.3998943"><ele>0.0</ele><time>2026-04-29T14:50:55.154Z</time></trkpt><trkpt lat="37.6599361" lon="-0.3998189"><ele>0.0</ele><time>2026-04-29T14:50:56.159Z</time></trkpt><trkpt lat="37.6600222" lon="-0.3997554"><ele>0.0</ele><time>2026-04-29T14:50:57.165Z</time></trkpt><trkpt lat="37.6600998" lon="-0.3997167"><ele>0.0</ele><time>2026-04-29T14:50:58.085Z</time></trkpt><trkpt lat="37.6601753" lon="-0.3996522"><ele>0.0</ele><time>2026-04-29T14:51:00.084Z</time></trkpt><trkpt lat="37.660258" lon="-0.3995941"><ele>0.0</ele><time>2026-04-29T14:51:01.089Z</time></trkpt><trkpt lat="37.6603406" lon="-0.3995174"><ele>0.0</ele><time>2026-04-29T14:51:02.095Z</time></trkpt><trkpt lat="37.6605033" lon="-0.3993633"><ele>0.0</ele><time>2026-04-29T14:51:04.107Z</time></trkpt><trkpt lat="37.6606008" lon="-0.3993061"><ele>0.0</ele><time>2026-04-29T14:51:05.113Z</time></trkpt><trkpt lat="37.6606989" lon="-0.3992522"><ele>0.0</ele><time>2026-04-29T14:51:06.119Z</time></trkpt><trkpt lat="37.6607901" lon="-0.3991912"><ele>0.0</ele><time>2026-04-29T14:51:07.125Z</time></trkpt><trkpt lat="37.6608822" lon="-0.3991345"><ele>0.0</ele><time>2026-04-29T14:51:08.13Z</time></trkpt><trkpt lat="37.6609386" lon="-0.3990937"><ele>0.0</ele><time>2026-04-29T14:51:09.084Z</time></trkpt><trkpt lat="37.6609825" lon="-0.3990071"><ele>0.0</ele><time>2026-04-29T14:51:10.141Z</time></trkpt><trkpt lat="37.6611028" lon="-0.3989595"><ele>0.0</ele><time>2026-04-29T14:51:11.148Z</time></trkpt><trkpt lat="37.6611982" lon="-0.3989239"><ele>0.0</ele><time>2026-04-29T14:51:12.153Z</time></trkpt><trkpt lat="37.6612747" lon="-0.3988524"><ele>0.0</ele><time>2026-04-29T14:51:13.159Z</time></trkpt><trkpt lat="37.661428" lon="-0.3987499"><ele>0.0</ele><time>2026-04-29T14:51:15.085Z</time></trkpt><trkpt lat="37.6615202" lon="-0.3987042"><ele>0.0</ele><time>2026-04-29T14:51:16.178Z</time></trkpt><trkpt lat="37.6615712" lon="-0.3986394"><ele>0.0</ele><time>2026-04-29T14:51:17.084Z</time></trkpt><trkpt lat="37.6616454" lon="-0.398573"><ele>0.0</ele><time>2026-04-29T14:51:18.084Z</time></trkpt><trkpt lat="37.6617235" lon="-0.3985008"><ele>0.0</ele><time>2026-04-29T14:51:19.084Z</time></trkpt><trkpt lat="37.6617987" lon="-0.3984342"><ele>0.0</ele><time>2026-04-29T14:51:20.084Z</time></trkpt><trkpt lat="37.6618766" lon="-0.3983702"><ele>0.0</ele><time>2026-04-29T14:51:21.085Z</time></trkpt><trkpt lat="37.6619532" lon="-0.3983037"><ele>0.0</ele><time>2026-04-29T14:51:22.084Z</time></trkpt><trkpt lat="37.6620315" lon="-0.3982419"><ele>0.0</ele><time>2026-04-29T14:51:23.084Z</time></trkpt><trkpt lat="37.6621058" lon="-0.3981803"><ele>0.0</ele><time>2026-04-29T14:51:24.085Z</time></trkpt><trkpt lat="37.6621744" lon="-0.3981188"><ele>0.0</ele><time>2026-04-29T14:51:25.085Z</time></trkpt><trkpt lat="37.6622482" lon="-0.3980531"><ele>0.0</ele><time>2026-04-29T14:51:26.084Z</time></trkpt><trkpt lat="37.6623218" lon="-0.3979946"><ele>0.0</ele><time>2026-04-29T14:51:27.084Z</time></trkpt><trkpt lat="37.6623974" lon="-0.3979407"><ele>0.0</ele><time>2026-04-29T14:51:28.085Z</time></trkpt><trkpt lat="37.6624756" lon="-0.3978806"><ele>0.0</ele><time>2026-04-29T14:51:29.085Z</time></trkpt><trkpt lat="37.6625629" lon="-0.3978287"><ele>0.0</ele><time>2026-04-29T14:51:30.084Z</time></trkpt><trkpt lat="37.6626446" lon="-0.3977758"><ele>0.0</ele><time>2026-04-29T14:51:31.085Z</time></trkpt><trkpt lat="37.6627206" lon="-0.3977143"><ele>0.0</ele><time>2026-04-29T14:51:32.085Z</time></trkpt><trkpt lat="37.6627913" lon="-0.3976553"><ele>0.0</ele><time>2026-04-29T14:51:33.085Z</time></trkpt><trkpt lat="37.6628683" lon="-0.3975992"><ele>0.0</ele><time>2026-04-29T14:51:34.085Z</time></trkpt><trkpt lat="37.6630991" lon="-0.3974233"><ele>0.0</ele><time>2026-04-29T14:51:37.085Z</time></trkpt><trkpt lat="37.6631738" lon="-0.3973603"><ele>0.0</ele><time>2026-04-29T14:51:38.084Z</time></trkpt><trkpt lat="37.6632472" lon="-0.3973096"><ele>0.0</ele><time>2026-04-29T14:51:39.085Z</time></trkpt><trkpt lat="37.6633147" lon="-0.3972557"><ele>0.0</ele><time>2026-04-29T14:51:40.084Z</time></trkpt><trkpt lat="37.6634086" lon="-0.3972039"><ele>0.0</ele><time>2026-04-29T14:51:41.084Z</time></trkpt><trkpt lat="37.6634808" lon="-0.3971452"><ele>0.0</ele><time>2026-04-29T14:51:43.145Z</time></trkpt><trkpt lat="37.663715" lon="-0.3969775"><ele>0.0</ele><time>2026-04-29T14:51:45.156Z</time></trkpt><trkpt lat="37.6638107" lon="-0.3969127"><ele>0.0</ele><time>2026-04-29T14:51:46.162Z</time></trkpt><trkpt lat="37.663896" lon="-0.3968418"><ele>0.0</ele><time>2026-04-29T14:51:47.169Z</time></trkpt><trkpt lat="37.6639801" lon="-0.3967751"><ele>0.0</ele><time>2026-04-29T14:51:48.084Z</time></trkpt><trkpt lat="37.6640665" lon="-0.39671"><ele>0.0</ele><time>2026-04-29T14:51:49.085Z</time></trkpt><trkpt lat="37.664149" lon="-0.3966472"><ele>0.0</ele><time>2026-04-29T14:51:50.086Z</time></trkpt><trkpt lat="37.6642305" lon="-0.3965823"><ele>0.0</ele><time>2026-04-29T14:51:51.092Z</time></trkpt><trkpt lat="37.6642802" lon="-0.3965302"><ele>0.0</ele><time>2026-04-29T14:51:52.084Z</time></trkpt><trkpt lat="37.6643202" lon="-0.3964427"><ele>0.0</ele><time>2026-04-29T14:51:53.104Z</time></trkpt><trkpt lat="37.6644352" lon="-0.3963829"><ele>0.0</ele><time>2026-04-29T14:51:54.109Z</time></trkpt><trkpt lat="37.6645366" lon="-0.3963629"><ele>0.0</ele><time>2026-04-29T14:51:55.115Z</time></trkpt><trkpt lat="37.6646187" lon="-0.3963116"><ele>0.0</ele><time>2026-04-29T14:51:56.121Z</time></trkpt><trkpt lat="37.6647663" lon="-0.3961924"><ele>0.0</ele><time>2026-04-29T14:51:58.132Z</time></trkpt><trkpt lat="37.6648385" lon="-0.396115"><ele>0.0</ele><time>2026-04-29T14:51:59.139Z</time></trkpt><trkpt lat="37.6649062" lon="-0.3959308"><ele>0.0</ele><time>2026-04-29T14:52:02.157Z</time></trkpt><trkpt lat="37.6650406" lon="-0.3958683"><ele>0.0</ele><time>2026-04-29T14:52:03.162Z</time></trkpt><trkpt lat="37.665153" lon="-0.3958227"><ele>0.0</ele><time>2026-04-29T14:52:04.168Z</time></trkpt><trkpt lat="37.6652418" lon="-0.3957671"><ele>0.0</ele><time>2026-04-29T14:52:05.174Z</time></trkpt><trkpt lat="37.6653364" lon="-0.395748"><ele>0.0</ele><time>2026-04-29T14:52:06.084Z</time></trkpt><trkpt lat="37.6655076" lon="-0.3956413"><ele>0.0</ele><time>2026-04-29T14:52:08.091Z</time></trkpt><trkpt lat="37.6655963" lon="-0.3955196"><ele>0.0</ele><time>2026-04-29T14:52:10.104Z</time></trkpt><trkpt lat="37.665712" lon="-0.3954684"><ele>0.0</ele><time>2026-04-29T14:52:11.108Z</time></trkpt><trkpt lat="37.6658026" lon="-0.3954389"><ele>0.0</ele><time>2026-04-29T14:52:12.114Z</time></trkpt><trkpt lat="37.6658851" lon="-0.3954045"><ele>0.0</ele><time>2026-04-29T14:52:13.12Z</time></trkpt><trkpt lat="37.665974" lon="-0.3953617"><ele>0.0</ele><time>2026-04-29T14:52:14.126Z</time></trkpt><trkpt lat="37.6660571" lon="-0.3953082"><ele>0.0</ele><time>2026-04-29T14:52:15.132Z</time></trkpt><trkpt lat="37.666142" lon="-0.3952141"><ele>0.0</ele><time>2026-04-29T14:52:17.144Z</time></trkpt><trkpt lat="37.6663376" lon="-0.3950863"><ele>0.0</ele><time>2026-04-29T14:52:19.156Z</time></trkpt><trkpt lat="37.6664159" lon="-0.3950075"><ele>0.0</ele><time>2026-04-29T14:52:20.163Z</time></trkpt><trkpt lat="37.666495" lon="-0.3949327"><ele>0.0</ele><time>2026-04-29T14:52:21.167Z</time></trkpt><trkpt lat="37.6665683" lon="-0.3948736"><ele>0.0</ele><time>2026-04-29T14:52:22.085Z</time></trkpt><trkpt lat="37.6666522" lon="-0.3948022"><ele>0.0</ele><time>2026-04-29T14:52:23.179Z</time></trkpt><trkpt lat="37.6667484" lon="-0.3947543"><ele>0.0</ele><time>2026-04-29T14:52:24.085Z</time></trkpt><trkpt lat="37.6668355" lon="-0.3946881"><ele>0.0</ele><time>2026-04-29T14:52:25.09Z</time></trkpt><trkpt lat="37.6669189" lon="-0.394564"><ele>0.0</ele><time>2026-04-29T14:52:27.102Z</time></trkpt><trkpt lat="37.6670209" lon="-0.3944921"><ele>0.0</ele><time>2026-04-29T14:52:28.108Z</time></trkpt><trkpt lat="37.6671152" lon="-0.3944477"><ele>0.0</ele><time>2026-04-29T14:52:29.115Z</time></trkpt><trkpt lat="37.6672031" lon="-0.3943999"><ele>0.0</ele><time>2026-04-29T14:52:30.12Z</time></trkpt><trkpt lat="37.6672872" lon="-0.3943487"><ele>0.0</ele><time>2026-04-29T14:52:31.127Z</time></trkpt><trkpt lat="37.6673677" lon="-0.3942901"><ele>0.0</ele><time>2026-04-29T14:52:32.132Z</time></trkpt><trkpt lat="37.667442" lon="-0.3942313"><ele>0.0</ele><time>2026-04-29T14:52:33.138Z</time></trkpt><trkpt lat="37.6675164" lon="-0.3941641"><ele>0.0</ele><time>2026-04-29T14:52:34.143Z</time></trkpt><trkpt lat="37.6675893" lon="-0.3941168"><ele>0.0</ele><time>2026-04-29T14:52:35.149Z</time></trkpt><trkpt lat="37.6676677" lon="-0.3940841"><ele>0.0</ele><time>2026-04-29T14:52:36.155Z</time></trkpt><trkpt lat="37.6677467" lon="-0.3940266"><ele>0.0</ele><time>2026-04-29T14:52:37.161Z</time></trkpt><trkpt lat="37.6678241" lon="-0.3939497"><ele>0.0</ele><time>2026-04-29T14:52:38.168Z</time></trkpt><trkpt lat="37.6679072" lon="-0.3938734"><ele>0.0</ele><time>2026-04-29T14:52:39.174Z</time></trkpt><trkpt lat="37.6681026" lon="-0.3936865"><ele>0.0</ele><time>2026-04-29T14:52:42.191Z</time></trkpt><trkpt lat="37.668206" lon="-0.3936786"><ele>0.0</ele><time>2026-04-29T14:52:43.097Z</time></trkpt><trkpt lat="37.6682964" lon="-0.3936377"><ele>0.0</ele><time>2026-04-29T14:52:44.103Z</time></trkpt><trkpt lat="37.6683783" lon="-0.3935769"><ele>0.0</ele><time>2026-04-29T14:52:45.108Z</time></trkpt><trkpt lat="37.6684622" lon="-0.3935179"><ele>0.0</ele><time>2026-04-29T14:52:46.114Z</time></trkpt><trkpt lat="37.668521" lon="-0.393409"><ele>0.0</ele><time>2026-04-29T14:52:48.126Z</time></trkpt><trkpt lat="37.6686115" lon="-0.3933363"><ele>0.0</ele><time>2026-04-29T14:52:49.131Z</time></trkpt><trkpt lat="37.6687031" lon="-0.393291"><ele>0.0</ele><time>2026-04-29T14:52:50.138Z</time></trkpt><trkpt lat="37.6687827" lon="-0.3932355"><ele>0.0</ele><time>2026-04-29T14:52:51.143Z</time></trkpt><trkpt lat="37.6688438" lon="-0.3931545"><ele>0.0</ele><time>2026-04-29T14:52:52.15Z</time></trkpt><trkpt lat="37.668909" lon="-0.39307"><ele>0.0</ele><time>2026-04-29T14:52:53.155Z</time></trkpt><trkpt lat="37.6689899" lon="-0.3930175"><ele>0.0</ele><time>2026-04-29T14:52:54.162Z</time></trkpt><trkpt lat="37.6690754" lon="-0.3929747"><ele>0.0</ele><time>2026-04-29T14:52:55.167Z</time></trkpt><trkpt lat="37.6691576" lon="-0.3929237"><ele>0.0</ele><time>2026-04-29T14:52:56.084Z</time></trkpt><trkpt lat="37.669246" lon="-0.3928712"><ele>0.0</ele><time>2026-04-29T14:52:57.084Z</time></trkpt><trkpt lat="37.6693331" lon="-0.3928169"><ele>0.0</ele><time>2026-04-29T14:52:58.084Z</time></trkpt><trkpt lat="37.6694202" lon="-0.392755"><ele>0.0</ele><time>2026-04-29T14:52:59.089Z</time></trkpt><trkpt lat="37.6695119" lon="-0.3926893"><ele>0.0</ele><time>2026-04-29T14:53:00.095Z</time></trkpt><trkpt lat="37.6696057" lon="-0.3925561"><ele>0.0</ele><time>2026-04-29T14:53:03.114Z</time></trkpt><trkpt lat="37.6698409" lon="-0.3924329"><ele>0.0</ele><time>2026-04-29T14:53:05.126Z</time></trkpt><trkpt lat="37.6699177" lon="-0.3923552"><ele>0.0</ele><time>2026-04-29T14:53:06.131Z</time></trkpt><trkpt lat="37.6699944" lon="-0.3922881"><ele>0.0</ele><time>2026-04-29T14:53:07.138Z</time></trkpt><trkpt lat="37.6700697" lon="-0.3922254"><ele>0.0</ele><time>2026-04-29T14:53:08.143Z</time></trkpt><trkpt lat="37.6701421" lon="-0.392122"><ele>0.0</ele><time>2026-04-29T14:53:10.154Z</time></trkpt><trkpt lat="37.6702256" lon="-0.3920405"><ele>0.0</ele><time>2026-04-29T14:53:11.161Z</time></trkpt><trkpt lat="37.6703952" lon="-0.391917"><ele>0.0</ele><time>2026-04-29T14:53:13.172Z</time></trkpt><trkpt lat="37.6704712" lon="-0.3918689"><ele>0.0</ele><time>2026-04-29T14:53:14.084Z</time></trkpt><trkpt lat="37.6705558" lon="-0.3918017"><ele>0.0</ele><time>2026-04-29T14:53:15.184Z</time></trkpt><trkpt lat="37.6706322" lon="-0.3917317"><ele>0.0</ele><time>2026-04-29T14:53:16.089Z</time></trkpt><trkpt lat="37.6707134" lon="-0.3916645"><ele>0.0</ele><time>2026-04-29T14:53:17.095Z</time></trkpt><trkpt lat="37.6707938" lon="-0.3915983"><ele>0.0</ele><time>2026-04-29T14:53:18.101Z</time></trkpt><trkpt lat="37.670876" lon="-0.391541"><ele>0.0</ele><time>2026-04-29T14:53:19.108Z</time></trkpt><trkpt lat="37.6709689" lon="-0.3914954"><ele>0.0</ele><time>2026-04-29T14:53:20.113Z</time></trkpt><trkpt lat="37.6710582" lon="-0.3914432"><ele>0.0</ele><time>2026-04-29T14:53:21.118Z</time></trkpt><trkpt lat="37.6711436" lon="-0.3913866"><ele>0.0</ele><time>2026-04-29T14:53:22.125Z</time></trkpt><trkpt lat="37.6712122" lon="-0.3912634"><ele>0.0</ele><time>2026-04-29T14:53:24.137Z</time></trkpt><trkpt lat="37.6713903" lon="-0.3911373"><ele>0.0</ele><time>2026-04-29T14:53:26.149Z</time></trkpt><trkpt lat="37.6714726" lon="-0.3910745"><ele>0.0</ele><time>2026-04-29T14:53:27.155Z</time></trkpt><trkpt lat="37.6715554" lon="-0.3910157"><ele>0.0</ele><time>2026-04-29T14:53:28.16Z</time></trkpt><trkpt lat="37.6716231" lon="-0.3909345"><ele>0.0</ele><time>2026-04-29T14:53:29.166Z</time></trkpt><trkpt lat="37.6716914" lon="-0.3908654"><ele>0.0</ele><time>2026-04-29T14:53:30.084Z</time></trkpt><trkpt lat="37.6717603" lon="-0.3908266"><ele>0.0</ele><time>2026-04-29T14:53:31.085Z</time></trkpt><trkpt lat="37.6718399" lon="-0.3907677"><ele>0.0</ele><time>2026-04-29T14:53:32.085Z</time></trkpt><trkpt lat="37.6719275" lon="-0.3907219"><ele>0.0</ele><time>2026-04-29T14:53:33.189Z</time></trkpt><trkpt lat="37.6720118" lon="-0.3906642"><ele>0.0</ele><time>2026-04-29T14:53:34.095Z</time></trkpt><trkpt lat="37.672095" lon="-0.3905955"><ele>0.0</ele><time>2026-04-29T14:53:35.101Z</time></trkpt><trkpt lat="37.6721747" lon="-0.3905234"><ele>0.0</ele><time>2026-04-29T14:53:36.107Z</time></trkpt><trkpt lat="37.6722575" lon="-0.3904719"><ele>0.0</ele><time>2026-04-29T14:53:37.113Z</time></trkpt><trkpt lat="37.6723428" lon="-0.3904283"><ele>0.0</ele><time>2026-04-29T14:53:38.118Z</time></trkpt><trkpt lat="37.6724228" lon="-0.3903684"><ele>0.0</ele><time>2026-04-29T14:53:39.124Z</time></trkpt><trkpt lat="37.6724526" lon="-0.3902473"><ele>0.0</ele><time>2026-04-29T14:53:41.137Z</time></trkpt><trkpt lat="37.6725495" lon="-0.3902088"><ele>0.0</ele><time>2026-04-29T14:53:42.142Z</time></trkpt><trkpt lat="37.6726748" lon="-0.3901425"><ele>0.0</ele><time>2026-04-29T14:53:43.148Z</time></trkpt><trkpt lat="37.6727747" lon="-0.3900892"><ele>0.0</ele><time>2026-04-29T14:53:44.153Z</time></trkpt><trkpt lat="37.6728585" lon="-0.3900313"><ele>0.0</ele><time>2026-04-29T14:53:45.16Z</time></trkpt><trkpt lat="37.6730033" lon="-0.3899225"><ele>0.0</ele><time>2026-04-29T14:53:47.085Z</time></trkpt><trkpt lat="37.6730802" lon="-0.3898545"><ele>0.0</ele><time>2026-04-29T14:53:48.085Z</time></trkpt><trkpt lat="37.6731673" lon="-0.3897936"><ele>0.0</ele><time>2026-04-29T14:53:49.084Z</time></trkpt><trkpt lat="37.673254" lon="-0.3897347"><ele>0.0</ele><time>2026-04-29T14:53:50.088Z</time></trkpt><trkpt lat="37.6733465" lon="-0.3896794"><ele>0.0</ele><time>2026-04-29T14:53:51.095Z</time></trkpt><trkpt lat="37.6734199" lon="-0.389534"><ele>0.0</ele><time>2026-04-29T14:53:53.107Z</time></trkpt><trkpt lat="37.6735169" lon="-0.3894598"><ele>0.0</ele><time>2026-04-29T14:53:54.113Z</time></trkpt><trkpt lat="37.6736056" lon="-0.3894017"><ele>0.0</ele><time>2026-04-29T14:53:55.118Z</time></trkpt><trkpt lat="37.6736794" lon="-0.3893352"><ele>0.0</ele><time>2026-04-29T14:53:56.124Z</time></trkpt><trkpt lat="37.6737664" lon="-0.3893035"><ele>0.0</ele><time>2026-04-29T14:53:57.13Z</time></trkpt><trkpt lat="37.6739283" lon="-0.3891662"><ele>0.0</ele><time>2026-04-29T14:53:59.141Z</time></trkpt><trkpt lat="37.6739967" lon="-0.3890192"><ele>0.0</ele><time>2026-04-29T14:54:01.153Z</time></trkpt><trkpt lat="37.6741106" lon="-0.3889496"><ele>0.0</ele><time>2026-04-29T14:54:02.16Z</time></trkpt><trkpt lat="37.6741973" lon="-0.3888932"><ele>0.0</ele><time>2026-04-29T14:54:03.166Z</time></trkpt><trkpt lat="37.6742819" lon="-0.3888416"><ele>0.0</ele><time>2026-04-29T14:54:04.171Z</time></trkpt><trkpt lat="37.6743717" lon="-0.3887908"><ele>0.0</ele><time>2026-04-29T14:54:05.177Z</time></trkpt><trkpt lat="37.6745372" lon="-0.3886923"><ele>0.0</ele><time>2026-04-29T14:54:07.088Z</time></trkpt><trkpt lat="37.6746233" lon="-0.3886478"><ele>0.0</ele><time>2026-04-29T14:54:08.094Z</time></trkpt><trkpt lat="37.6746865" lon="-0.3885695"><ele>0.0</ele><time>2026-04-29T14:54:09.1Z</time></trkpt><trkpt lat="37.6747384" lon="-0.3884901"><ele>0.0</ele><time>2026-04-29T14:54:10.106Z</time></trkpt><trkpt lat="37.6748134" lon="-0.3884331"><ele>0.0</ele><time>2026-04-29T14:54:11.113Z</time></trkpt><trkpt lat="37.6749058" lon="-0.3883995"><ele>0.0</ele><time>2026-04-29T14:54:12.119Z</time></trkpt><trkpt lat="37.6749906" lon="-0.3883531"><ele>0.0</ele><time>2026-04-29T14:54:13.124Z</time></trkpt><trkpt lat="37.6750707" lon="-0.3883083"><ele>0.0</ele><time>2026-04-29T14:54:14.13Z</time></trkpt><trkpt lat="37.6751547" lon="-0.3882569"><ele>0.0</ele><time>2026-04-29T14:54:15.135Z</time></trkpt><trkpt lat="37.6752351" lon="-0.3881159"><ele>0.0</ele><time>2026-04-29T14:54:17.148Z</time></trkpt><trkpt lat="37.6753446" lon="-0.3880405"><ele>0.0</ele><time>2026-04-29T14:54:18.154Z</time></trkpt><trkpt lat="37.6754468" lon="-0.388005"><ele>0.0</ele><time>2026-04-29T14:54:19.159Z</time></trkpt><trkpt lat="37.6755342" lon="-0.3879745"><ele>0.0</ele><time>2026-04-29T14:54:20.165Z</time></trkpt><trkpt lat="37.6756149" lon="-0.3879363"><ele>0.0</ele><time>2026-04-29T14:54:21.084Z</time></trkpt><trkpt lat="37.6756945" lon="-0.3878718"><ele>0.0</ele><time>2026-04-29T14:54:22.084Z</time></trkpt><trkpt lat="37.6757658" lon="-0.3878036"><ele>0.0</ele><time>2026-04-29T14:54:23.084Z</time></trkpt><trkpt lat="37.6758347" lon="-0.3877288"><ele>0.0</ele><time>2026-04-29T14:54:24.088Z</time></trkpt><trkpt lat="37.6758979" lon="-0.3876094"><ele>0.0</ele><time>2026-04-29T14:54:26.1Z</time></trkpt><trkpt lat="37.6760862" lon="-0.3874721"><ele>0.0</ele><time>2026-04-29T14:54:28.113Z</time></trkpt><trkpt lat="37.6761858" lon="-0.3874304"><ele>0.0</ele><time>2026-04-29T14:54:29.118Z</time></trkpt><trkpt lat="37.6762826" lon="-0.38739"><ele>0.0</ele><time>2026-04-29T14:54:30.124Z</time></trkpt><trkpt lat="37.6763736" lon="-0.3873352"><ele>0.0</ele><time>2026-04-29T14:54:31.131Z</time></trkpt><trkpt lat="37.67646" lon="-0.3872783"><ele>0.0</ele><time>2026-04-29T14:54:32.136Z</time></trkpt><trkpt lat="37.676546" lon="-0.3872222"><ele>0.0</ele><time>2026-04-29T14:54:33.143Z</time></trkpt><trkpt lat="37.67664" lon="-0.3871006"><ele>0.0</ele><time>2026-04-29T14:54:35.153Z</time></trkpt><trkpt lat="37.6767559" lon="-0.3870393"><ele>0.0</ele><time>2026-04-29T14:54:36.159Z</time></trkpt><trkpt lat="37.6768442" lon="-0.3869976"><ele>0.0</ele><time>2026-04-29T14:54:37.165Z</time></trkpt><trkpt lat="37.6769174" lon="-0.3869474"><ele>0.0</ele><time>2026-04-29T14:54:38.171Z</time></trkpt><trkpt lat="37.6769792" lon="-0.3868969"><ele>0.0</ele><time>2026-04-29T14:54:39.084Z</time></trkpt><trkpt lat="37.67706" lon="-0.3868367"><ele>0.0</ele><time>2026-04-29T14:54:40.084Z</time></trkpt><trkpt lat="37.677142" lon="-0.3867794"><ele>0.0</ele><time>2026-04-29T14:54:41.089Z</time></trkpt><trkpt lat="37.6772162" lon="-0.3867044"><ele>0.0</ele><time>2026-04-29T14:54:42.094Z</time></trkpt><trkpt lat="37.6772875" lon="-0.3866328"><ele>0.0</ele><time>2026-04-29T14:54:43.101Z</time></trkpt><trkpt lat="37.6773646" lon="-0.3865696"><ele>0.0</ele><time>2026-04-29T14:54:44.106Z</time></trkpt><trkpt lat="37.6774467" lon="-0.3865278"><ele>0.0</ele><time>2026-04-29T14:54:45.113Z</time></trkpt><trkpt lat="37.6775329" lon="-0.3864932"><ele>0.0</ele><time>2026-04-29T14:54:46.118Z</time></trkpt><trkpt lat="37.6776205" lon="-0.3864627"><ele>0.0</ele><time>2026-04-29T14:54:47.125Z</time></trkpt><trkpt lat="37.6776997" lon="-0.3863279"><ele>0.0</ele><time>2026-04-29T14:54:49.137Z</time></trkpt><trkpt lat="37.6779128" lon="-0.3862324"><ele>0.0</ele><time>2026-04-29T14:54:51.149Z</time></trkpt><trkpt lat="37.6779997" lon="-0.3862031"><ele>0.0</ele><time>2026-04-29T14:54:52.154Z</time></trkpt><trkpt lat="37.67808" lon="-0.3861658"><ele>0.0</ele><time>2026-04-29T14:54:53.161Z</time></trkpt><trkpt lat="37.6781659" lon="-0.3861187"><ele>0.0</ele><time>2026-04-29T14:54:54.166Z</time></trkpt><trkpt lat="37.6782531" lon="-0.3860691"><ele>0.0</ele><time>2026-04-29T14:54:55.173Z</time></trkpt><trkpt lat="37.6783326" lon="-0.3860133"><ele>0.0</ele><time>2026-04-29T14:54:56.084Z</time></trkpt><trkpt lat="37.6784221" lon="-0.3859509"><ele>0.0</ele><time>2026-04-29T14:54:57.084Z</time></trkpt><trkpt lat="37.6785173" lon="-0.3858887"><ele>0.0</ele><time>2026-04-29T14:54:58.19Z</time></trkpt><trkpt lat="37.6785965" lon="-0.3858211"><ele>0.0</ele><time>2026-04-29T14:54:59.096Z</time></trkpt><trkpt lat="37.6786673" lon="-0.3856785"><ele>0.0</ele><time>2026-04-29T14:55:02.113Z</time></trkpt><trkpt lat="37.6787544" lon="-0.3856136"><ele>0.0</ele><time>2026-04-29T14:55:03.118Z</time></trkpt><trkpt lat="37.6788584" lon="-0.3855534"><ele>0.0</ele><time>2026-04-29T14:55:04.124Z</time></trkpt><trkpt lat="37.6789482" lon="-0.3854823"><ele>0.0</ele><time>2026-04-29T14:55:05.13Z</time></trkpt><trkpt lat="37.6790249" lon="-0.3854004"><ele>0.0</ele><time>2026-04-29T14:55:06.136Z</time></trkpt><trkpt lat="37.6791074" lon="-0.3853213"><ele>0.0</ele><time>2026-04-29T14:55:07.142Z</time></trkpt><trkpt lat="37.6791964" lon="-0.3852515"><ele>0.0</ele><time>2026-04-29T14:55:08.148Z</time></trkpt><trkpt lat="37.6792864" lon="-0.3851907"><ele>0.0</ele><time>2026-04-29T14:55:09.155Z</time></trkpt><trkpt lat="37.6793704" lon="-0.3851266"><ele>0.0</ele><time>2026-04-29T14:55:10.161Z</time></trkpt><trkpt lat="37.6795314" lon="-0.3849853"><ele>0.0</ele><time>2026-04-29T14:55:12.083Z</time></trkpt><trkpt lat="37.6796134" lon="-0.3849149"><ele>0.0</ele><time>2026-04-29T14:55:13.083Z</time></trkpt><trkpt lat="37.6796702" lon="-0.384873"><ele>0.0</ele><time>2026-04-29T14:55:14.083Z</time></trkpt><trkpt lat="37.6797102" lon="-0.3847869"><ele>0.0</ele><time>2026-04-29T14:55:15.089Z</time></trkpt><trkpt lat="37.6798149" lon="-0.3847137"><ele>0.0</ele><time>2026-04-29T14:55:16.096Z</time></trkpt><trkpt lat="37.6799131" lon="-0.3846766"><ele>0.0</ele><time>2026-04-29T14:55:17.101Z</time></trkpt><trkpt lat="37.6800032" lon="-0.3846259"><ele>0.0</ele><time>2026-04-29T14:55:18.107Z</time></trkpt><trkpt lat="37.6800817" lon="-0.3845618"><ele>0.0</ele><time>2026-04-29T14:55:19.113Z</time></trkpt><trkpt lat="37.68016" lon="-0.3844994"><ele>0.0</ele><time>2026-04-29T14:55:20.118Z</time></trkpt><trkpt lat="37.6802744" lon="-0.3843974"><ele>0.0</ele><time>2026-04-29T14:55:22.083Z</time></trkpt><trkpt lat="37.6803121" lon="-0.3843174"><ele>0.0</ele><time>2026-04-29T14:55:23.136Z</time></trkpt><trkpt lat="37.6804076" lon="-0.38424"><ele>0.0</ele><time>2026-04-29T14:55:24.143Z</time></trkpt><trkpt lat="37.6804975" lon="-0.384182"><ele>0.0</ele><time>2026-04-29T14:55:25.148Z</time></trkpt><trkpt lat="37.6805654" lon="-0.3841037"><ele>0.0</ele><time>2026-04-29T14:55:26.154Z</time></trkpt><trkpt lat="37.6806384" lon="-0.3840208"><ele>0.0</ele><time>2026-04-29T14:55:27.161Z</time></trkpt><trkpt lat="37.6807255" lon="-0.3839509"><ele>0.0</ele><time>2026-04-29T14:55:28.166Z</time></trkpt><trkpt lat="37.6808475" lon="-0.3838676"><ele>0.0</ele><time>2026-04-29T14:55:30.083Z</time></trkpt><trkpt lat="37.6809141" lon="-0.3838147"><ele>0.0</ele><time>2026-04-29T14:55:31.083Z</time></trkpt><trkpt lat="37.6810629" lon="-0.3836995"><ele>0.0</ele><time>2026-04-29T14:55:33.083Z</time></trkpt><trkpt lat="37.6811389" lon="-0.383632"><ele>0.0</ele><time>2026-04-29T14:55:34.083Z</time></trkpt><trkpt lat="37.681214" lon="-0.3835721"><ele>0.0</ele><time>2026-04-29T14:55:35.084Z</time></trkpt><trkpt lat="37.6812917" lon="-0.3835122"><ele>0.0</ele><time>2026-04-29T14:55:36.084Z</time></trkpt><trkpt lat="37.6813672" lon="-0.3834451"><ele>0.0</ele><time>2026-04-29T14:55:37.083Z</time></trkpt><trkpt lat="37.681445" lon="-0.3833854"><ele>0.0</ele><time>2026-04-29T14:55:38.083Z</time></trkpt><trkpt lat="37.681516" lon="-0.3833193"><ele>0.0</ele><time>2026-04-29T14:55:39.083Z</time></trkpt><trkpt lat="37.6815946" lon="-0.3832581"><ele>0.0</ele><time>2026-04-29T14:55:40.084Z</time></trkpt><trkpt lat="37.6816635" lon="-0.3832007"><ele>0.0</ele><time>2026-04-29T14:55:41.084Z</time></trkpt><trkpt lat="37.681741" lon="-0.3831504"><ele>0.0</ele><time>2026-04-29T14:55:42.084Z</time></trkpt><trkpt lat="37.6818183" lon="-0.383093"><ele>0.0</ele><time>2026-04-29T14:55:43.083Z</time></trkpt><trkpt lat="37.6818809" lon="-0.3830306"><ele>0.0</ele><time>2026-04-29T14:55:44.084Z</time></trkpt><trkpt lat="37.6819488" lon="-0.3829761"><ele>0.0</ele><time>2026-04-29T14:55:45.083Z</time></trkpt><trkpt lat="37.6820243" lon="-0.3829143"><ele>0.0</ele><time>2026-04-29T14:55:46.083Z</time></trkpt><trkpt lat="37.6821003" lon="-0.3828426"><ele>0.0</ele><time>2026-04-29T14:55:47.083Z</time></trkpt><trkpt lat="37.6821669" lon="-0.382779"><ele>0.0</ele><time>2026-04-29T14:55:48.083Z</time></trkpt><trkpt lat="37.6822385" lon="-0.3827254"><ele>0.0</ele><time>2026-04-29T14:55:49.083Z</time></trkpt><trkpt lat="37.6823806" lon="-0.3826685"><ele>0.0</ele><time>2026-04-29T14:55:52.153Z</time></trkpt><trkpt lat="37.6825982" lon="-0.3824806"><ele>0.0</ele><time>2026-04-29T14:55:54.165Z</time></trkpt><trkpt lat="37.6827796" lon="-0.3823351"><ele>0.0</ele><time>2026-04-29T14:55:56.083Z</time></trkpt><trkpt lat="37.6828677" lon="-0.3822655"><ele>0.0</ele><time>2026-04-29T14:55:57.083Z</time></trkpt><trkpt lat="37.6829538" lon="-0.3821994"><ele>0.0</ele><time>2026-04-29T14:55:58.088Z</time></trkpt><trkpt lat="37.683045" lon="-0.3821318"><ele>0.0</ele><time>2026-04-29T14:55:59.094Z</time></trkpt><trkpt lat="37.6831279" lon="-0.382056"><ele>0.0</ele><time>2026-04-29T14:56:00.099Z</time></trkpt><trkpt lat="37.6832099" lon="-0.3819823"><ele>0.0</ele><time>2026-04-29T14:56:01.105Z</time></trkpt><trkpt lat="37.6832966" lon="-0.3819185"><ele>0.0</ele><time>2026-04-29T14:56:02.11Z</time></trkpt><trkpt lat="37.6833771" lon="-0.381865"><ele>0.0</ele><time>2026-04-29T14:56:03.116Z</time></trkpt><trkpt lat="37.6834521" lon="-0.3817482"><ele>0.0</ele><time>2026-04-29T14:56:05.128Z</time></trkpt><trkpt lat="37.6835605" lon="-0.381673"><ele>0.0</ele><time>2026-04-29T14:56:06.134Z</time></trkpt><trkpt lat="37.6836519" lon="-0.3816203"><ele>0.0</ele><time>2026-04-29T14:56:07.141Z</time></trkpt><trkpt lat="37.6837369" lon="-0.3815586"><ele>0.0</ele><time>2026-04-29T14:56:08.147Z</time></trkpt><trkpt lat="37.6838131" lon="-0.3814762"><ele>0.0</ele><time>2026-04-29T14:56:09.152Z</time></trkpt><trkpt lat="37.683884" lon="-0.3813903"><ele>0.0</ele><time>2026-04-29T14:56:10.159Z</time></trkpt><trkpt lat="37.6840643" lon="-0.3812655"><ele>0.0</ele><time>2026-04-29T14:56:13.083Z</time></trkpt><trkpt lat="37.6841619" lon="-0.3812093"><ele>0.0</ele><time>2026-04-29T14:56:14.183Z</time></trkpt><trkpt lat="37.6843979" lon="-0.380992"><ele>0.0</ele><time>2026-04-29T14:56:17.1Z</time></trkpt><trkpt lat="37.6844712" lon="-0.3809271"><ele>0.0</ele><time>2026-04-29T14:56:18.106Z</time></trkpt><trkpt lat="37.6845436" lon="-0.380844"><ele>0.0</ele><time>2026-04-29T14:56:20.116Z</time></trkpt><trkpt lat="37.6846507" lon="-0.3807828"><ele>0.0</ele><time>2026-04-29T14:56:21.122Z</time></trkpt><trkpt lat="37.684759" lon="-0.3807442"><ele>0.0</ele><time>2026-04-29T14:56:22.128Z</time></trkpt><trkpt lat="37.6848437" lon="-0.3806906"><ele>0.0</ele><time>2026-04-29T14:56:23.134Z</time></trkpt><trkpt lat="37.6849247" lon="-0.3806355"><ele>0.0</ele><time>2026-04-29T14:56:24.141Z</time></trkpt><trkpt lat="37.685005" lon="-0.3805677"><ele>0.0</ele><time>2026-04-29T14:56:25.146Z</time></trkpt><trkpt lat="37.6851603" lon="-0.3804106"><ele>0.0</ele><time>2026-04-29T14:56:27.158Z</time></trkpt><trkpt lat="37.6852549" lon="-0.3802984"><ele>0.0</ele><time>2026-04-29T14:56:29.17Z</time></trkpt><trkpt lat="37.6853792" lon="-0.3802684"><ele>0.0</ele><time>2026-04-29T14:56:30.084Z</time></trkpt><trkpt lat="37.6854659" lon="-0.3802148"><ele>0.0</ele><time>2026-04-29T14:56:31.083Z</time></trkpt><trkpt lat="37.6855499" lon="-0.3801534"><ele>0.0</ele><time>2026-04-29T14:56:32.088Z</time></trkpt><trkpt lat="37.6856315" lon="-0.380086"><ele>0.0</ele><time>2026-04-29T14:56:33.094Z</time></trkpt><trkpt lat="37.6857094" lon="-0.3800131"><ele>0.0</ele><time>2026-04-29T14:56:34.099Z</time></trkpt><trkpt lat="37.685802" lon="-0.3798976"><ele>0.0</ele><time>2026-04-29T14:56:36.111Z</time></trkpt><trkpt lat="37.6860052" lon="-0.3797691"><ele>0.0</ele><time>2026-04-29T14:56:38.122Z</time></trkpt><trkpt lat="37.6860899" lon="-0.3797131"><ele>0.0</ele><time>2026-04-29T14:56:39.128Z</time></trkpt><trkpt lat="37.6861695" lon="-0.3796492"><ele>0.0</ele><time>2026-04-29T14:56:40.134Z</time></trkpt><trkpt lat="37.6862555" lon="-0.3795886"><ele>0.0</ele><time>2026-04-29T14:56:41.14Z</time></trkpt><trkpt lat="37.6863332" lon="-0.3795232"><ele>0.0</ele><time>2026-04-29T14:56:42.146Z</time></trkpt><trkpt lat="37.6864088" lon="-0.3794614"><ele>0.0</ele><time>2026-04-29T14:56:43.152Z</time></trkpt><trkpt lat="37.6864803" lon="-0.3793522"><ele>0.0</ele><time>2026-04-29T14:56:45.164Z</time></trkpt><trkpt lat="37.6865937" lon="-0.3792934"><ele>0.0</ele><time>2026-04-29T14:56:46.17Z</time></trkpt><trkpt lat="37.6866825" lon="-0.3792535"><ele>0.0</ele><time>2026-04-29T14:56:47.177Z</time></trkpt><trkpt lat="37.6867617" lon="-0.3792011"><ele>0.0</ele><time>2026-04-29T14:56:48.182Z</time></trkpt><trkpt lat="37.6868321" lon="-0.3791347"><ele>0.0</ele><time>2026-04-29T14:56:49.088Z</time></trkpt><trkpt lat="37.6869109" lon="-0.3790659"><ele>0.0</ele><time>2026-04-29T14:56:50.094Z</time></trkpt><trkpt lat="37.6869921" lon="-0.3790066"><ele>0.0</ele><time>2026-04-29T14:56:51.1Z</time></trkpt><trkpt lat="37.6870676" lon="-0.3789342"><ele>0.0</ele><time>2026-04-29T14:56:52.105Z</time></trkpt><trkpt lat="37.6871567" lon="-0.3788267"><ele>0.0</ele><time>2026-04-29T14:56:54.117Z</time></trkpt><trkpt lat="37.6872651" lon="-0.3787646"><ele>0.0</ele><time>2026-04-29T14:56:55.123Z</time></trkpt><trkpt lat="37.6873522" lon="-0.3787413"><ele>0.0</ele><time>2026-04-29T14:56:56.129Z</time></trkpt><trkpt lat="37.6874446" lon="-0.3787115"><ele>0.0</ele><time>2026-04-29T14:56:57.135Z</time></trkpt><trkpt lat="37.6876266" lon="-0.3785986"><ele>0.0</ele><time>2026-04-29T14:56:59.146Z</time></trkpt><trkpt lat="37.6878075" lon="-0.3784806"><ele>0.0</ele><time>2026-04-29T14:57:01.159Z</time></trkpt><trkpt lat="37.6878977" lon="-0.3784243"><ele>0.0</ele><time>2026-04-29T14:57:02.165Z</time></trkpt><trkpt lat="37.6879804" lon="-0.3783474"><ele>0.0</ele><time>2026-04-29T14:57:03.17Z</time></trkpt><trkpt lat="37.688066" lon="-0.3782996"><ele>0.0</ele><time>2026-04-29T14:57:04.084Z</time></trkpt><trkpt lat="37.6880848" lon="-0.378217"><ele>0.0</ele><time>2026-04-29T14:57:06.087Z</time></trkpt><trkpt lat="37.688195" lon="-0.3781325"><ele>0.0</ele><time>2026-04-29T14:57:07.094Z</time></trkpt><trkpt lat="37.6882974" lon="-0.378069"><ele>0.0</ele><time>2026-04-29T14:57:08.099Z</time></trkpt><trkpt lat="37.6883852" lon="-0.378006"><ele>0.0</ele><time>2026-04-29T14:57:09.105Z</time></trkpt><trkpt lat="37.6884695" lon="-0.3779436"><ele>0.0</ele><time>2026-04-29T14:57:10.11Z</time></trkpt><trkpt lat="37.6885535" lon="-0.3778662"><ele>0.0</ele><time>2026-04-29T14:57:11.117Z</time></trkpt><trkpt lat="37.6886414" lon="-0.3777929"><ele>0.0</ele><time>2026-04-29T14:57:12.122Z</time></trkpt><trkpt lat="37.6887304" lon="-0.3777334"><ele>0.0</ele><time>2026-04-29T14:57:13.128Z</time></trkpt><trkpt lat="37.6888199" lon="-0.3776758"><ele>0.0</ele><time>2026-04-29T14:57:14.134Z</time></trkpt><trkpt lat="37.6889057" lon="-0.3776168"><ele>0.0</ele><time>2026-04-29T14:57:15.14Z</time></trkpt><trkpt lat="37.6889922" lon="-0.3775556"><ele>0.0</ele><time>2026-04-29T14:57:16.146Z</time></trkpt><trkpt lat="37.6890809" lon="-0.3775029"><ele>0.0</ele><time>2026-04-29T14:57:17.152Z</time></trkpt><trkpt lat="37.6891669" lon="-0.3774405"><ele>0.0</ele><time>2026-04-29T14:57:18.158Z</time></trkpt><trkpt lat="37.6892542" lon="-0.3773696"><ele>0.0</ele><time>2026-04-29T14:57:19.163Z</time></trkpt><trkpt lat="37.6893307" lon="-0.3772455"><ele>0.0</ele><time>2026-04-29T14:57:21.176Z</time></trkpt><trkpt lat="37.6895263" lon="-0.3771471"><ele>0.0</ele><time>2026-04-29T14:57:23.187Z</time></trkpt><trkpt lat="37.6895987" lon="-0.3770801"><ele>0.0</ele><time>2026-04-29T14:57:24.093Z</time></trkpt><trkpt lat="37.6896656" lon="-0.3769937"><ele>0.0</ele><time>2026-04-29T14:57:25.099Z</time></trkpt><trkpt lat="37.689752" lon="-0.3769294"><ele>0.0</ele><time>2026-04-29T14:57:26.104Z</time></trkpt><trkpt lat="37.6898454" lon="-0.3768787"><ele>0.0</ele><time>2026-04-29T14:57:27.11Z</time></trkpt><trkpt lat="37.6899348" lon="-0.3768326"><ele>0.0</ele><time>2026-04-29T14:57:28.117Z</time></trkpt><trkpt lat="37.6900178" lon="-0.376773"><ele>0.0</ele><time>2026-04-29T14:57:29.123Z</time></trkpt><trkpt lat="37.6900962" lon="-0.3767119"><ele>0.0</ele><time>2026-04-29T14:57:30.129Z</time></trkpt><trkpt lat="37.6901426" lon="-0.3765933"><ele>0.0</ele><time>2026-04-29T14:57:32.14Z</time></trkpt><trkpt lat="37.690264" lon="-0.37655"><ele>0.0</ele><time>2026-04-29T14:57:33.146Z</time></trkpt><trkpt lat="37.6903758" lon="-0.3764916"><ele>0.0</ele><time>2026-04-29T14:57:34.152Z</time></trkpt><trkpt lat="37.6904703" lon="-0.3764264"><ele>0.0</ele><time>2026-04-29T14:57:35.157Z</time></trkpt><trkpt lat="37.6905506" lon="-0.3763539"><ele>0.0</ele><time>2026-04-29T14:57:36.163Z</time></trkpt><trkpt lat="37.6906253" lon="-0.3762762"><ele>0.0</ele><time>2026-04-29T14:57:37.169Z</time></trkpt><trkpt lat="37.6907" lon="-0.3762275"><ele>0.0</ele><time>2026-04-29T14:57:38.084Z</time></trkpt><trkpt lat="37.6907856" lon="-0.3761741"><ele>0.0</ele><time>2026-04-29T14:57:39.083Z</time></trkpt><trkpt lat="37.69087" lon="-0.3761237"><ele>0.0</ele><time>2026-04-29T14:57:40.087Z</time></trkpt><trkpt lat="37.6909241" lon="-0.3759962"><ele>0.0</ele><time>2026-04-29T14:57:42.099Z</time></trkpt><trkpt lat="37.6911191" lon="-0.375887"><ele>0.0</ele><time>2026-04-29T14:57:44.111Z</time></trkpt><trkpt lat="37.6912105" lon="-0.3758515"><ele>0.0</ele><time>2026-04-29T14:57:45.117Z</time></trkpt><trkpt lat="37.6912962" lon="-0.3757973"><ele>0.0</ele><time>2026-04-29T14:57:46.122Z</time></trkpt><trkpt lat="37.6913802" lon="-0.3757414"><ele>0.0</ele><time>2026-04-29T14:57:47.129Z</time></trkpt><trkpt lat="37.6914646" lon="-0.3756819"><ele>0.0</ele><time>2026-04-29T14:57:48.134Z</time></trkpt><trkpt lat="37.6915318" lon="-0.3755659"><ele>0.0</ele><time>2026-04-29T14:57:50.146Z</time></trkpt><trkpt lat="37.6916278" lon="-0.3755089"><ele>0.0</ele><time>2026-04-29T14:57:51.151Z</time></trkpt><trkpt lat="37.6917171" lon="-0.3754703"><ele>0.0</ele><time>2026-04-29T14:57:52.157Z</time></trkpt><trkpt lat="37.6918153" lon="-0.3754267"><ele>0.0</ele><time>2026-04-29T14:57:53.164Z</time></trkpt><trkpt lat="37.6919004" lon="-0.3753636"><ele>0.0</ele><time>2026-04-29T14:57:54.17Z</time></trkpt><trkpt lat="37.6919834" lon="-0.3752991"><ele>0.0</ele><time>2026-04-29T14:57:55.175Z</time></trkpt><trkpt lat="37.6920637" lon="-0.375229"><ele>0.0</ele><time>2026-04-29T14:57:56.084Z</time></trkpt><trkpt lat="37.6921461" lon="-0.3751232"><ele>0.0</ele><time>2026-04-29T14:57:58.093Z</time></trkpt><trkpt lat="37.692254" lon="-0.3750682"><ele>0.0</ele><time>2026-04-29T14:57:59.098Z</time></trkpt><trkpt lat="37.6923497" lon="-0.3750264"><ele>0.0</ele><time>2026-04-29T14:58:00.105Z</time></trkpt><trkpt lat="37.6924294" lon="-0.3749794"><ele>0.0</ele><time>2026-04-29T14:58:01.11Z</time></trkpt><trkpt lat="37.6924907" lon="-0.3749131"><ele>0.0</ele><time>2026-04-29T14:58:02.117Z</time></trkpt><trkpt lat="37.6926453" lon="-0.3747574"><ele>0.0</ele><time>2026-04-29T14:58:05.134Z</time></trkpt><trkpt lat="37.6927579" lon="-0.3747011"><ele>0.0</ele><time>2026-04-29T14:58:06.139Z</time></trkpt><trkpt lat="37.6928641" lon="-0.3746727"><ele>0.0</ele><time>2026-04-29T14:58:07.146Z</time></trkpt><trkpt lat="37.6929553" lon="-0.3746293"><ele>0.0</ele><time>2026-04-29T14:58:08.151Z</time></trkpt><trkpt lat="37.6930382" lon="-0.3745754"><ele>0.0</ele><time>2026-04-29T14:58:09.157Z</time></trkpt><trkpt lat="37.6931131" lon="-0.3744466"><ele>0.0</ele><time>2026-04-29T14:58:11.169Z</time></trkpt><trkpt lat="37.6932215" lon="-0.3743747"><ele>0.0</ele><time>2026-04-29T14:58:12.176Z</time></trkpt><trkpt lat="37.6933184" lon="-0.3743388"><ele>0.0</ele><time>2026-04-29T14:58:13.083Z</time></trkpt><trkpt lat="37.6934043" lon="-0.3742815"><ele>0.0</ele><time>2026-04-29T14:58:14.087Z</time></trkpt><trkpt lat="37.6935094" lon="-0.3742773"><ele>0.0</ele><time>2026-04-29T14:58:15.093Z</time></trkpt><trkpt lat="37.6936084" lon="-0.3742894"><ele>0.0</ele><time>2026-04-29T14:58:16.098Z</time></trkpt><trkpt lat="37.693694" lon="-0.3742545"><ele>0.0</ele><time>2026-04-29T14:58:17.105Z</time></trkpt><trkpt lat="37.6937744" lon="-0.3741681"><ele>0.0</ele><time>2026-04-29T14:58:18.11Z</time></trkpt><trkpt lat="37.6938118" lon="-0.3740801"><ele>0.0</ele><time>2026-04-29T14:58:19.083Z</time></trkpt><trkpt lat="37.693851" lon="-0.3739937"><ele>0.0</ele><time>2026-04-29T14:58:20.122Z</time></trkpt><trkpt lat="37.6939463" lon="-0.3739089"><ele>0.0</ele><time>2026-04-29T14:58:21.128Z</time></trkpt><trkpt lat="37.6940378" lon="-0.3738585"><ele>0.0</ele><time>2026-04-29T14:58:22.133Z</time></trkpt><trkpt lat="37.6941315" lon="-0.3738141"><ele>0.0</ele><time>2026-04-29T14:58:23.14Z</time></trkpt><trkpt lat="37.6942209" lon="-0.373765"><ele>0.0</ele><time>2026-04-29T14:58:24.146Z</time></trkpt><trkpt lat="37.6943702" lon="-0.3735923"><ele>0.0</ele><time>2026-04-29T14:58:27.163Z</time></trkpt><trkpt lat="37.6944614" lon="-0.373512"><ele>0.0</ele><time>2026-04-29T14:58:28.169Z</time></trkpt><trkpt lat="37.6945538" lon="-0.3734631"><ele>0.0</ele><time>2026-04-29T14:58:29.174Z</time></trkpt><trkpt lat="37.6946354" lon="-0.3734236"><ele>0.0</ele><time>2026-04-29T14:58:30.083Z</time></trkpt><trkpt lat="37.6947185" lon="-0.3733676"><ele>0.0</ele><time>2026-04-29T14:58:31.086Z</time></trkpt><trkpt lat="37.6948" lon="-0.3733053"><ele>0.0</ele><time>2026-04-29T14:58:32.093Z</time></trkpt><trkpt lat="37.6948851" lon="-0.3732417"><ele>0.0</ele><time>2026-04-29T14:58:33.097Z</time></trkpt><trkpt lat="37.6949806" lon="-0.3732048"><ele>0.0</ele><time>2026-04-29T14:58:34.103Z</time></trkpt><trkpt lat="37.6951249" lon="-0.3730985"><ele>0.0</ele><time>2026-04-29T14:58:36.083Z</time></trkpt><trkpt lat="37.6951687" lon="-0.37301"><ele>0.0</ele><time>2026-04-29T14:58:37.122Z</time></trkpt><trkpt lat="37.6952784" lon="-0.3729521"><ele>0.0</ele><time>2026-04-29T14:58:38.128Z</time></trkpt><trkpt lat="37.6953726" lon="-0.3729117"><ele>0.0</ele><time>2026-04-29T14:58:39.134Z</time></trkpt><trkpt lat="37.6954449" lon="-0.3728447"><ele>0.0</ele><time>2026-04-29T14:58:40.14Z</time></trkpt><trkpt lat="37.6955025" lon="-0.3727715"><ele>0.0</ele><time>2026-04-29T14:58:41.146Z</time></trkpt><trkpt lat="37.6955687" lon="-0.3727088"><ele>0.0</ele><time>2026-04-29T14:58:42.151Z</time></trkpt><trkpt lat="37.6956476" lon="-0.3726503"><ele>0.0</ele><time>2026-04-29T14:58:43.157Z</time></trkpt><trkpt lat="37.6957247" lon="-0.3726001"><ele>0.0</ele><time>2026-04-29T14:58:44.163Z</time></trkpt><trkpt lat="37.695822" lon="-0.3725066"><ele>0.0</ele><time>2026-04-29T14:58:46.083Z</time></trkpt><trkpt lat="37.69598" lon="-0.3723931"><ele>0.0</ele><time>2026-04-29T14:58:48.085Z</time></trkpt><trkpt lat="37.6960593" lon="-0.3723241"><ele>0.0</ele><time>2026-04-29T14:58:49.091Z</time></trkpt><trkpt lat="37.6961404" lon="-0.3722554"><ele>0.0</ele><time>2026-04-29T14:58:50.097Z</time></trkpt><trkpt lat="37.6962189" lon="-0.3721931"><ele>0.0</ele><time>2026-04-29T14:58:51.103Z</time></trkpt><trkpt lat="37.6963008" lon="-0.3721378"><ele>0.0</ele><time>2026-04-29T14:58:52.109Z</time></trkpt><trkpt lat="37.6963833" lon="-0.3720768"><ele>0.0</ele><time>2026-04-29T14:58:53.115Z</time></trkpt><trkpt lat="37.6964546" lon="-0.3719946"><ele>0.0</ele><time>2026-04-29T14:58:54.122Z</time></trkpt><trkpt lat="37.6965215" lon="-0.3719024"><ele>0.0</ele><time>2026-04-29T14:58:55.128Z</time></trkpt><trkpt lat="37.6965941" lon="-0.3718223"><ele>0.0</ele><time>2026-04-29T14:58:56.134Z</time></trkpt><trkpt lat="37.6966573" lon="-0.3718093"><ele>0.0</ele><time>2026-04-29T14:58:57.083Z</time></trkpt><trkpt lat="37.6966953" lon="-0.3717213"><ele>0.0</ele><time>2026-04-29T14:58:58.146Z</time></trkpt><trkpt lat="37.6968088" lon="-0.3716691"><ele>0.0</ele><time>2026-04-29T14:58:59.15Z</time></trkpt><trkpt lat="37.6969043" lon="-0.3716383"><ele>0.0</ele><time>2026-04-29T14:59:00.157Z</time></trkpt><trkpt lat="37.696994" lon="-0.3715897"><ele>0.0</ele><time>2026-04-29T14:59:01.163Z</time></trkpt><trkpt lat="37.6970769" lon="-0.3715226"><ele>0.0</ele><time>2026-04-29T14:59:02.169Z</time></trkpt><trkpt lat="37.6971656" lon="-0.3714589"><ele>0.0</ele><time>2026-04-29T14:59:03.174Z</time></trkpt><trkpt lat="37.6972441" lon="-0.3713919"><ele>0.0</ele><time>2026-04-29T14:59:04.083Z</time></trkpt><trkpt lat="37.6973291" lon="-0.371322"><ele>0.0</ele><time>2026-04-29T14:59:05.187Z</time></trkpt><trkpt lat="37.6974109" lon="-0.3712567"><ele>0.0</ele><time>2026-04-29T14:59:06.092Z</time></trkpt><trkpt lat="37.6975008" lon="-0.3711273"><ele>0.0</ele><time>2026-04-29T14:59:08.104Z</time></trkpt><trkpt lat="37.6976725" lon="-0.3709766"><ele>0.0</ele><time>2026-04-29T14:59:10.116Z</time></trkpt><trkpt lat="37.6977609" lon="-0.3709332"><ele>0.0</ele><time>2026-04-29T14:59:11.121Z</time></trkpt><trkpt lat="37.6978533" lon="-0.3708908"><ele>0.0</ele><time>2026-04-29T14:59:12.128Z</time></trkpt><trkpt lat="37.6979401" lon="-0.3708395"><ele>0.0</ele><time>2026-04-29T14:59:13.133Z</time></trkpt><trkpt lat="37.6980269" lon="-0.3707838"><ele>0.0</ele><time>2026-04-29T14:59:14.139Z</time></trkpt><trkpt lat="37.6981181" lon="-0.3707379"><ele>0.0</ele><time>2026-04-29T14:59:15.144Z</time></trkpt><trkpt lat="37.6982586" lon="-0.3706016"><ele>0.0</ele><time>2026-04-29T14:59:18.162Z</time></trkpt><trkpt lat="37.6983593" lon="-0.3705413"><ele>0.0</ele><time>2026-04-29T14:59:19.168Z</time></trkpt><trkpt lat="37.6984477" lon="-0.3704759"><ele>0.0</ele><time>2026-04-29T14:59:20.175Z</time></trkpt><trkpt lat="37.6985324" lon="-0.3704092"><ele>0.0</ele><time>2026-04-29T14:59:21.181Z</time></trkpt><trkpt lat="37.6986097" lon="-0.3703499"><ele>0.0</ele><time>2026-04-29T14:59:22.085Z</time></trkpt><trkpt lat="37.6986893" lon="-0.3702869"><ele>0.0</ele><time>2026-04-29T14:59:23.091Z</time></trkpt><trkpt lat="37.6987748" lon="-0.3702267"><ele>0.0</ele><time>2026-04-29T14:59:24.097Z</time></trkpt><trkpt lat="37.6988515" lon="-0.3701502"><ele>0.0</ele><time>2026-04-29T14:59:25.103Z</time></trkpt><trkpt lat="37.698929" lon="-0.3700779"><ele>0.0</ele><time>2026-04-29T14:59:26.11Z</time></trkpt><trkpt lat="37.6990238" lon="-0.3699776"><ele>0.0</ele><time>2026-04-29T14:59:28.122Z</time></trkpt><trkpt lat="37.699131" lon="-0.3699091"><ele>0.0</ele><time>2026-04-29T14:59:29.127Z</time></trkpt><trkpt lat="37.6993118" lon="-0.3697886"><ele>0.0</ele><time>2026-04-29T14:59:31.138Z</time></trkpt><trkpt lat="37.6993914" lon="-0.3697269"><ele>0.0</ele><time>2026-04-29T14:59:32.145Z</time></trkpt><trkpt lat="37.6994727" lon="-0.3696791"><ele>0.0</ele><time>2026-04-29T14:59:33.15Z</time></trkpt><trkpt lat="37.6995628" lon="-0.3696469"><ele>0.0</ele><time>2026-04-29T14:59:34.156Z</time></trkpt><trkpt lat="37.6996569" lon="-0.3695956"><ele>0.0</ele><time>2026-04-29T14:59:35.163Z</time></trkpt><trkpt lat="37.6997369" lon="-0.3695177"><ele>0.0</ele><time>2026-04-29T14:59:36.168Z</time></trkpt><trkpt lat="37.6998194" lon="-0.3694495"><ele>0.0</ele><time>2026-04-29T14:59:37.175Z</time></trkpt><trkpt lat="37.6999073" lon="-0.3694124"><ele>0.0</ele><time>2026-04-29T14:59:38.082Z</time></trkpt><trkpt lat="37.7000417" lon="-0.3693281"><ele>0.0</ele><time>2026-04-29T14:59:40.082Z</time></trkpt><trkpt lat="37.7000839" lon="-0.3692407"><ele>0.0</ele><time>2026-04-29T14:59:41.097Z</time></trkpt><trkpt lat="37.7002864" lon="-0.3691267"><ele>0.0</ele><time>2026-04-29T14:59:43.11Z</time></trkpt><trkpt lat="37.7003648" lon="-0.3690576"><ele>0.0</ele><time>2026-04-29T14:59:44.116Z</time></trkpt><trkpt lat="37.7004532" lon="-0.369015"><ele>0.0</ele><time>2026-04-29T14:59:45.12Z</time></trkpt><trkpt lat="37.7005342" lon="-0.3689511"><ele>0.0</ele><time>2026-04-29T14:59:46.126Z</time></trkpt><trkpt lat="37.7006035" lon="-0.3688696"><ele>0.0</ele><time>2026-04-29T14:59:47.133Z</time></trkpt><trkpt lat="37.7006779" lon="-0.3687582"><ele>0.0</ele><time>2026-04-29T14:59:49.144Z</time></trkpt><trkpt lat="37.7007893" lon="-0.3686959"><ele>0.0</ele><time>2026-04-29T14:59:50.151Z</time></trkpt><trkpt lat="37.7009695" lon="-0.3686108"><ele>0.0</ele><time>2026-04-29T14:59:52.162Z</time></trkpt><trkpt lat="37.7010531" lon="-0.3685477"><ele>0.0</ele><time>2026-04-29T14:59:53.169Z</time></trkpt><trkpt lat="37.7011302" lon="-0.3684885"><ele>0.0</ele><time>2026-04-29T14:59:54.082Z</time></trkpt><trkpt lat="37.7012132" lon="-0.3684321"><ele>0.0</ele><time>2026-04-29T14:59:55.18Z</time></trkpt><trkpt lat="37.7012902" lon="-0.3683759"><ele>0.0</ele><time>2026-04-29T14:59:56.085Z</time></trkpt><trkpt lat="37.7013718" lon="-0.3683178"><ele>0.0</ele><time>2026-04-29T14:59:57.091Z</time></trkpt><trkpt lat="37.7014506" lon="-0.3681986"><ele>0.0</ele><time>2026-04-29T14:59:59.103Z</time></trkpt><trkpt lat="37.7015533" lon="-0.368133"><ele>0.0</ele><time>2026-04-29T15:00:00.11Z</time></trkpt><trkpt lat="37.7016331" lon="-0.3680609"><ele>0.0</ele><time>2026-04-29T15:00:01.115Z</time></trkpt><trkpt lat="37.7017124" lon="-0.3679946"><ele>0.0</ele><time>2026-04-29T15:00:02.121Z</time></trkpt><trkpt lat="37.701786" lon="-0.3679269"><ele>0.0</ele><time>2026-04-29T15:00:03.126Z</time></trkpt><trkpt lat="37.7018692" lon="-0.367884"><ele>0.0</ele><time>2026-04-29T15:00:04.132Z</time></trkpt><trkpt lat="37.7019597" lon="-0.3678436"><ele>0.0</ele><time>2026-04-29T15:00:05.138Z</time></trkpt><trkpt lat="37.7020474" lon="-0.3677819"><ele>0.0</ele><time>2026-04-29T15:00:06.145Z</time></trkpt><trkpt lat="37.7021279" lon="-0.3677123"><ele>0.0</ele><time>2026-04-29T15:00:07.15Z</time></trkpt><trkpt lat="37.7023107" lon="-0.3675679"><ele>0.0</ele><time>2026-04-29T15:00:10.168Z</time></trkpt><trkpt lat="37.7024119" lon="-0.3674862"><ele>0.0</ele><time>2026-04-29T15:00:11.083Z</time></trkpt><trkpt lat="37.7024999" lon="-0.367422"><ele>0.0</ele><time>2026-04-29T15:00:12.082Z</time></trkpt><trkpt lat="37.7026642" lon="-0.3673016"><ele>0.0</ele><time>2026-04-29T15:00:14.091Z</time></trkpt><trkpt lat="37.7027442" lon="-0.3672404"><ele>0.0</ele><time>2026-04-29T15:00:15.098Z</time></trkpt><trkpt lat="37.7028057" lon="-0.3671133"><ele>0.0</ele><time>2026-04-29T15:00:17.108Z</time></trkpt><trkpt lat="37.7028793" lon="-0.3670101"><ele>0.0</ele><time>2026-04-29T15:00:18.114Z</time></trkpt><trkpt lat="37.7029565" lon="-0.3669245"><ele>0.0</ele><time>2026-04-29T15:00:19.121Z</time></trkpt><trkpt lat="37.7030395" lon="-0.366861"><ele>0.0</ele><time>2026-04-29T15:00:20.126Z</time></trkpt><trkpt lat="37.7031299" lon="-0.3668198"><ele>0.0</ele><time>2026-04-29T15:00:21.132Z</time></trkpt><trkpt lat="37.703221" lon="-0.3667842"><ele>0.0</ele><time>2026-04-29T15:00:22.139Z</time></trkpt><trkpt lat="37.7033078" lon="-0.3667485"><ele>0.0</ele><time>2026-04-29T15:00:23.144Z</time></trkpt><trkpt lat="37.7033883" lon="-0.3667108"><ele>0.0</ele><time>2026-04-29T15:00:24.15Z</time></trkpt><trkpt lat="37.7034788" lon="-0.3666935"><ele>0.0</ele><time>2026-04-29T15:00:25.156Z</time></trkpt><trkpt lat="37.7035692" lon="-0.3666676"><ele>0.0</ele><time>2026-04-29T15:00:26.162Z</time></trkpt><trkpt lat="37.7036468" lon="-0.366592"><ele>0.0</ele><time>2026-04-29T15:00:27.168Z</time></trkpt><trkpt lat="37.703711" lon="-0.3665057"><ele>0.0</ele><time>2026-04-29T15:00:28.082Z</time></trkpt><trkpt lat="37.7037961" lon="-0.3664465"><ele>0.0</ele><time>2026-04-29T15:00:29.082Z</time></trkpt><trkpt lat="37.7038834" lon="-0.3663875"><ele>0.0</ele><time>2026-04-29T15:00:30.085Z</time></trkpt><trkpt lat="37.7039748" lon="-0.3663396"><ele>0.0</ele><time>2026-04-29T15:00:31.091Z</time></trkpt><trkpt lat="37.7040668" lon="-0.3662988"><ele>0.0</ele><time>2026-04-29T15:00:32.097Z</time></trkpt><trkpt lat="37.7042271" lon="-0.3661777"><ele>0.0</ele><time>2026-04-29T15:00:34.109Z</time></trkpt><trkpt lat="37.7041802" lon="-0.3661193"><ele>0.0</ele><time>2026-04-29T15:00:36.121Z</time></trkpt><trkpt lat="37.7042784" lon="-0.3660683"><ele>0.0</ele><time>2026-04-29T15:00:37.126Z</time></trkpt><trkpt lat="37.7044604" lon="-0.3660311"><ele>0.0</ele><time>2026-04-29T15:00:38.133Z</time></trkpt><trkpt lat="37.7045617" lon="-0.3659434"><ele>0.0</ele><time>2026-04-29T15:00:39.139Z</time></trkpt><trkpt lat="37.7046349" lon="-0.3658335"><ele>0.0</ele><time>2026-04-29T15:00:40.144Z</time></trkpt><trkpt lat="37.704714" lon="-0.3657515"><ele>0.0</ele><time>2026-04-29T15:00:41.151Z</time></trkpt><trkpt lat="37.7048031" lon="-0.3656929"><ele>0.0</ele><time>2026-04-29T15:00:42.157Z</time></trkpt><trkpt lat="37.7049878" lon="-0.3655794"><ele>0.0</ele><time>2026-04-29T15:00:44.167Z</time></trkpt><trkpt lat="37.7050644" lon="-0.3654958"><ele>0.0</ele><time>2026-04-29T15:00:45.082Z</time></trkpt><trkpt lat="37.7051418" lon="-0.365417"><ele>0.0</ele><time>2026-04-29T15:00:46.083Z</time></trkpt><trkpt lat="37.70522" lon="-0.3653017"><ele>0.0</ele><time>2026-04-29T15:00:48.09Z</time></trkpt><trkpt lat="37.7053322" lon="-0.3652359"><ele>0.0</ele><time>2026-04-29T15:00:49.096Z</time></trkpt><trkpt lat="37.7054341" lon="-0.3652071"><ele>0.0</ele><time>2026-04-29T15:00:50.103Z</time></trkpt><trkpt lat="37.7055103" lon="-0.3651528"><ele>0.0</ele><time>2026-04-29T15:00:51.109Z</time></trkpt><trkpt lat="37.7055884" lon="-0.3650889"><ele>0.0</ele><time>2026-04-29T15:00:52.114Z</time></trkpt><trkpt lat="37.705672" lon="-0.3650256"><ele>0.0</ele><time>2026-04-29T15:00:53.121Z</time></trkpt><trkpt lat="37.705829" lon="-0.3648764"><ele>0.0</ele><time>2026-04-29T15:00:55.133Z</time></trkpt><trkpt lat="37.7059088" lon="-0.3647596"><ele>0.0</ele><time>2026-04-29T15:00:57.144Z</time></trkpt><trkpt lat="37.7060073" lon="-0.3646847"><ele>0.0</ele><time>2026-04-29T15:00:58.15Z</time></trkpt><trkpt lat="37.7060981" lon="-0.3646366"><ele>0.0</ele><time>2026-04-29T15:00:59.156Z</time></trkpt><trkpt lat="37.7061838" lon="-0.3645967"><ele>0.0</ele><time>2026-04-29T15:01:00.161Z</time></trkpt><trkpt lat="37.7062584" lon="-0.3645481"><ele>0.0</ele><time>2026-04-29T15:01:01.082Z</time></trkpt><trkpt lat="37.7063434" lon="-0.3644844"><ele>0.0</ele><time>2026-04-29T15:01:02.174Z</time></trkpt><trkpt lat="37.7064212" lon="-0.364415"><ele>0.0</ele><time>2026-04-29T15:01:03.083Z</time></trkpt><trkpt lat="37.706502" lon="-0.3643466"><ele>0.0</ele><time>2026-04-29T15:01:04.085Z</time></trkpt><trkpt lat="37.7065879" lon="-0.3642848"><ele>0.0</ele><time>2026-04-29T15:01:05.09Z</time></trkpt><trkpt lat="37.70667" lon="-0.364207"><ele>0.0</ele><time>2026-04-29T15:01:06.096Z</time></trkpt><trkpt lat="37.7069104" lon="-0.3639944"><ele>0.0</ele><time>2026-04-29T15:01:10.12Z</time></trkpt><trkpt lat="37.7069997" lon="-0.3639217"><ele>0.0</ele><time>2026-04-29T15:01:11.127Z</time></trkpt><trkpt lat="37.7071008" lon="-0.363921"><ele>0.0</ele><time>2026-04-29T15:01:12.132Z</time></trkpt><trkpt lat="37.7071918" lon="-0.3638974"><ele>0.0</ele><time>2026-04-29T15:01:13.139Z</time></trkpt><trkpt lat="37.7072636" lon="-0.3638133"><ele>0.0</ele><time>2026-04-29T15:01:14.145Z</time></trkpt><trkpt lat="37.7073307" lon="-0.3637278"><ele>0.0</ele><time>2026-04-29T15:01:15.15Z</time></trkpt><trkpt lat="37.7074958" lon="-0.3635691"><ele>0.0</ele><time>2026-04-29T15:01:18.168Z</time></trkpt><trkpt lat="37.7076048" lon="-0.3635027"><ele>0.0</ele><time>2026-04-29T15:01:19.173Z</time></trkpt><trkpt lat="37.7077057" lon="-0.3634913"><ele>0.0</ele><time>2026-04-29T15:01:20.082Z</time></trkpt><trkpt lat="37.7077944" lon="-0.3634408"><ele>0.0</ele><time>2026-04-29T15:01:21.085Z</time></trkpt><trkpt lat="37.7078767" lon="-0.3633795"><ele>0.0</ele><time>2026-04-29T15:01:22.09Z</time></trkpt><trkpt lat="37.7079489" lon="-0.3633043"><ele>0.0</ele><time>2026-04-29T15:01:23.096Z</time></trkpt><trkpt lat="37.7080156" lon="-0.363236"><ele>0.0</ele><time>2026-04-29T15:01:24.102Z</time></trkpt><trkpt lat="37.7080901" lon="-0.3631711"><ele>0.0</ele><time>2026-04-29T15:01:25.108Z</time></trkpt><trkpt lat="37.7082678" lon="-0.3630572"><ele>0.0</ele><time>2026-04-29T15:01:27.12Z</time></trkpt><trkpt lat="37.7083583" lon="-0.3630041"><ele>0.0</ele><time>2026-04-29T15:01:28.126Z</time></trkpt><trkpt lat="37.70845" lon="-0.3629452"><ele>0.0</ele><time>2026-04-29T15:01:29.132Z</time></trkpt><trkpt lat="37.7085324" lon="-0.3628706"><ele>0.0</ele><time>2026-04-29T15:01:30.139Z</time></trkpt><trkpt lat="37.7085853" lon="-0.3628207"><ele>0.0</ele><time>2026-04-29T15:01:31.082Z</time></trkpt><trkpt lat="37.7086288" lon="-0.3627271"><ele>0.0</ele><time>2026-04-29T15:01:32.15Z</time></trkpt><trkpt lat="37.7087401" lon="-0.3626542"><ele>0.0</ele><time>2026-04-29T15:01:33.155Z</time></trkpt><trkpt lat="37.7088389" lon="-0.3626096"><ele>0.0</ele><time>2026-04-29T15:01:34.161Z</time></trkpt><trkpt lat="37.7089135" lon="-0.3625424"><ele>0.0</ele><time>2026-04-29T15:01:35.168Z</time></trkpt><trkpt lat="37.7089812" lon="-0.3624718"><ele>0.0</ele><time>2026-04-29T15:01:36.173Z</time></trkpt><trkpt lat="37.7090562" lon="-0.3624167"><ele>0.0</ele><time>2026-04-29T15:01:37.179Z</time></trkpt><trkpt lat="37.709273" lon="-0.3622234"><ele>0.0</ele><time>2026-04-29T15:01:40.096Z</time></trkpt><trkpt lat="37.7093578" lon="-0.362177"><ele>0.0</ele><time>2026-04-29T15:01:41.103Z</time></trkpt><trkpt lat="37.7094367" lon="-0.3620773"><ele>0.0</ele><time>2026-04-29T15:01:43.114Z</time></trkpt><trkpt lat="37.7095358" lon="-0.3620049"><ele>0.0</ele><time>2026-04-29T15:01:44.12Z</time></trkpt><trkpt lat="37.7096282" lon="-0.3619529"><ele>0.0</ele><time>2026-04-29T15:01:45.126Z</time></trkpt><trkpt lat="37.7097151" lon="-0.3618947"><ele>0.0</ele><time>2026-04-29T15:01:46.133Z</time></trkpt><trkpt lat="37.709803" lon="-0.3618354"><ele>0.0</ele><time>2026-04-29T15:01:47.139Z</time></trkpt><trkpt lat="37.7099721" lon="-0.3616953"><ele>0.0</ele><time>2026-04-29T15:01:49.151Z</time></trkpt><trkpt lat="37.7100542" lon="-0.3616244"><ele>0.0</ele><time>2026-04-29T15:01:50.156Z</time></trkpt><trkpt lat="37.710137" lon="-0.361513"><ele>0.0</ele><time>2026-04-29T15:01:52.168Z</time></trkpt><trkpt lat="37.7102584" lon="-0.3614573"><ele>0.0</ele><time>2026-04-29T15:01:53.082Z</time></trkpt><trkpt lat="37.7103483" lon="-0.3613915"><ele>0.0</ele><time>2026-04-29T15:01:54.083Z</time></trkpt><trkpt lat="37.7104278" lon="-0.3613253"><ele>0.0</ele><time>2026-04-29T15:01:55.086Z</time></trkpt><trkpt lat="37.7105042" lon="-0.3612713"><ele>0.0</ele><time>2026-04-29T15:01:56.092Z</time></trkpt><trkpt lat="37.710564" lon="-0.3612082"><ele>0.0</ele><time>2026-04-29T15:01:57.097Z</time></trkpt><trkpt lat="37.7106386" lon="-0.3611602"><ele>0.0</ele><time>2026-04-29T15:01:58.103Z</time></trkpt><trkpt lat="37.7108088" lon="-0.361062"><ele>0.0</ele><time>2026-04-29T15:02:00.114Z</time></trkpt><trkpt lat="37.7108726" lon="-0.3609745"><ele>0.0</ele><time>2026-04-29T15:02:01.12Z</time></trkpt><trkpt lat="37.7109483" lon="-0.3608726"><ele>0.0</ele><time>2026-04-29T15:02:03.133Z</time></trkpt><trkpt lat="37.7110654" lon="-0.3608006"><ele>0.0</ele><time>2026-04-29T15:02:04.138Z</time></trkpt><trkpt lat="37.711189" lon="-0.3608018"><ele>0.0</ele><time>2026-04-29T15:02:05.145Z</time></trkpt><trkpt lat="37.7112936" lon="-0.3607771"><ele>0.0</ele><time>2026-04-29T15:02:06.151Z</time></trkpt><trkpt lat="37.7113961" lon="-0.3607374"><ele>0.0</ele><time>2026-04-29T15:02:07.156Z</time></trkpt><trkpt lat="37.7114851" lon="-0.360664"><ele>0.0</ele><time>2026-04-29T15:02:08.162Z</time></trkpt><trkpt lat="37.711567" lon="-0.3605791"><ele>0.0</ele><time>2026-04-29T15:02:09.168Z</time></trkpt><trkpt lat="37.7116467" lon="-0.3605045"><ele>0.0</ele><time>2026-04-29T15:02:10.174Z</time></trkpt><trkpt lat="37.7116213" lon="-0.3605837"><ele>0.0</ele><time>2026-04-29T15:02:11.18Z</time></trkpt><trkpt lat="37.7116785" lon="-0.3605015"><ele>0.0</ele><time>2026-04-29T15:02:12.085Z</time></trkpt><trkpt lat="37.7118563" lon="-0.3603488"><ele>0.0</ele><time>2026-04-29T15:02:14.098Z</time></trkpt><trkpt lat="37.7119448" lon="-0.3602853"><ele>0.0</ele><time>2026-04-29T15:02:15.104Z</time></trkpt><trkpt lat="37.7120222" lon="-0.3602177"><ele>0.0</ele><time>2026-04-29T15:02:16.11Z</time></trkpt><trkpt lat="37.7121126" lon="-0.3601746"><ele>0.0</ele><time>2026-04-29T15:02:17.116Z</time></trkpt><trkpt lat="37.7121996" lon="-0.3601192"><ele>0.0</ele><time>2026-04-29T15:02:18.12Z</time></trkpt><trkpt lat="37.7122991" lon="-0.3600687"><ele>0.0</ele><time>2026-04-29T15:02:19.126Z</time></trkpt><trkpt lat="37.7123919" lon="-0.3600107"><ele>0.0</ele><time>2026-04-29T15:02:20.132Z</time></trkpt><trkpt lat="37.7126774" lon="-0.3598565"><ele>0.0</ele><time>2026-04-29T15:02:23.15Z</time></trkpt><trkpt lat="37.7127865" lon="-0.3598534"><ele>0.0</ele><time>2026-04-29T15:02:24.156Z</time></trkpt><trkpt lat="37.7128833" lon="-0.3597109"><ele>0.0</ele><time>2026-04-29T15:02:26.168Z</time></trkpt><trkpt lat="37.7129739" lon="-0.3596313"><ele>0.0</ele><time>2026-04-29T15:02:27.175Z</time></trkpt><trkpt lat="37.7130762" lon="-0.3596107"><ele>0.0</ele><time>2026-04-29T15:02:28.082Z</time></trkpt><trkpt lat="37.7131675" lon="-0.3595477"><ele>0.0</ele><time>2026-04-29T15:02:29.086Z</time></trkpt><trkpt lat="37.713248" lon="-0.3594712"><ele>0.0</ele><time>2026-04-29T15:02:30.092Z</time></trkpt><trkpt lat="37.7133314" lon="-0.3594033"><ele>0.0</ele><time>2026-04-29T15:02:31.098Z</time></trkpt><trkpt lat="37.7134375" lon="-0.3592602"><ele>0.0</ele><time>2026-04-29T15:02:34.115Z</time></trkpt><trkpt lat="37.7135316" lon="-0.359201"><ele>0.0</ele><time>2026-04-29T15:02:35.12Z</time></trkpt><trkpt lat="37.7136249" lon="-0.3591526"><ele>0.0</ele><time>2026-04-29T15:02:36.126Z</time></trkpt><trkpt lat="37.7137153" lon="-0.3591043"><ele>0.0</ele><time>2026-04-29T15:02:37.133Z</time></trkpt><trkpt lat="37.7138976" lon="-0.3590148"><ele>0.0</ele><time>2026-04-29T15:02:39.144Z</time></trkpt><trkpt lat="37.7139702" lon="-0.3589465"><ele>0.0</ele><time>2026-04-29T15:02:40.151Z</time></trkpt><trkpt lat="37.7140318" lon="-0.3588563"><ele>0.0</ele><time>2026-04-29T15:02:41.157Z</time></trkpt><trkpt lat="37.7141031" lon="-0.3587718"><ele>0.0</ele><time>2026-04-29T15:02:42.162Z</time></trkpt><trkpt lat="37.71424" lon="-0.3586419"><ele>0.0</ele><time>2026-04-29T15:02:44.081Z</time></trkpt><trkpt lat="37.7143068" lon="-0.3585577"><ele>0.0</ele><time>2026-04-29T15:02:45.082Z</time></trkpt><trkpt lat="37.7143739" lon="-0.3584808"><ele>0.0</ele><time>2026-04-29T15:02:46.085Z</time></trkpt><trkpt lat="37.7144439" lon="-0.3583777"><ele>0.0</ele><time>2026-04-29T15:02:48.097Z</time></trkpt><trkpt lat="37.7145517" lon="-0.3583175"><ele>0.0</ele><time>2026-04-29T15:02:49.104Z</time></trkpt><trkpt lat="37.7146426" lon="-0.358266"><ele>0.0</ele><time>2026-04-29T15:02:50.11Z</time></trkpt><trkpt lat="37.7147224" lon="-0.3582038"><ele>0.0</ele><time>2026-04-29T15:02:51.116Z</time></trkpt><trkpt lat="37.7147905" lon="-0.3581269"><ele>0.0</ele><time>2026-04-29T15:02:52.121Z</time></trkpt><trkpt lat="37.7149347" lon="-0.3579658"><ele>0.0</ele><time>2026-04-29T15:02:54.133Z</time></trkpt><trkpt lat="37.715023" lon="-0.3578941"><ele>0.0</ele><time>2026-04-29T15:02:55.138Z</time></trkpt><trkpt lat="37.7151113" lon="-0.3578145"><ele>0.0</ele><time>2026-04-29T15:02:56.145Z</time></trkpt><trkpt lat="37.7151992" lon="-0.3577582"><ele>0.0</ele><time>2026-04-29T15:02:57.151Z</time></trkpt><trkpt lat="37.7152843" lon="-0.3577154"><ele>0.0</ele><time>2026-04-29T15:02:58.157Z</time></trkpt><trkpt lat="37.7153661" lon="-0.3576756"><ele>0.0</ele><time>2026-04-29T15:02:59.163Z</time></trkpt><trkpt lat="37.7155183" lon="-0.3575614"><ele>0.0</ele><time>2026-04-29T15:03:02.082Z</time></trkpt><trkpt lat="37.7156076" lon="-0.3574988"><ele>0.0</ele><time>2026-04-29T15:03:03.086Z</time></trkpt><trkpt lat="37.7157917" lon="-0.3573907"><ele>0.0</ele><time>2026-04-29T15:03:05.097Z</time></trkpt><trkpt lat="37.7158765" lon="-0.357326"><ele>0.0</ele><time>2026-04-29T15:03:06.104Z</time></trkpt><trkpt lat="37.7159608" lon="-0.3572582"><ele>0.0</ele><time>2026-04-29T15:03:07.109Z</time></trkpt><trkpt lat="37.7160494" lon="-0.3571909"><ele>0.0</ele><time>2026-04-29T15:03:08.115Z</time></trkpt><trkpt lat="37.7161368" lon="-0.3571254"><ele>0.0</ele><time>2026-04-29T15:03:09.121Z</time></trkpt><trkpt lat="37.7162317" lon="-0.3570776"><ele>0.0</ele><time>2026-04-29T15:03:10.128Z</time></trkpt><trkpt lat="37.7163211" lon="-0.3570383"><ele>0.0</ele><time>2026-04-29T15:03:11.133Z</time></trkpt><trkpt lat="37.7164067" lon="-0.3569798"><ele>0.0</ele><time>2026-04-29T15:03:12.139Z</time></trkpt><trkpt lat="37.7165196" lon="-0.3568066"><ele>0.0</ele><time>2026-04-29T15:03:15.158Z</time></trkpt><trkpt lat="37.7166427" lon="-0.3567894"><ele>0.0</ele><time>2026-04-29T15:03:16.162Z</time></trkpt><trkpt lat="37.7167393" lon="-0.3567425"><ele>0.0</ele><time>2026-04-29T15:03:17.168Z</time></trkpt><trkpt lat="37.7168179" lon="-0.3566602"><ele>0.0</ele><time>2026-04-29T15:03:18.081Z</time></trkpt><trkpt lat="37.7168999" lon="-0.3565786"><ele>0.0</ele><time>2026-04-29T15:03:19.081Z</time></trkpt><trkpt lat="37.7169785" lon="-0.3565067"><ele>0.0</ele><time>2026-04-29T15:03:20.086Z</time></trkpt><trkpt lat="37.7170689" lon="-0.3564387"><ele>0.0</ele><time>2026-04-29T15:03:21.092Z</time></trkpt><trkpt lat="37.7171567" lon="-0.3563668"><ele>0.0</ele><time>2026-04-29T15:03:22.098Z</time></trkpt><trkpt lat="37.7172402" lon="-0.3562962"><ele>0.0</ele><time>2026-04-29T15:03:23.103Z</time></trkpt><trkpt lat="37.7173241" lon="-0.3562347"><ele>0.0</ele><time>2026-04-29T15:03:24.109Z</time></trkpt><trkpt lat="37.7174079" lon="-0.3561926"><ele>0.0</ele><time>2026-04-29T15:03:25.116Z</time></trkpt><trkpt lat="37.7176402" lon="-0.3560419"><ele>0.0</ele><time>2026-04-29T15:03:29.139Z</time></trkpt><trkpt lat="37.717735" lon="-0.3559889"><ele>0.0</ele><time>2026-04-29T15:03:30.145Z</time></trkpt><trkpt lat="37.7178292" lon="-0.3559351"><ele>0.0</ele><time>2026-04-29T15:03:31.151Z</time></trkpt><trkpt lat="37.7179249" lon="-0.3558821"><ele>0.0</ele><time>2026-04-29T15:03:32.158Z</time></trkpt><trkpt lat="37.7180102" lon="-0.3558192"><ele>0.0</ele><time>2026-04-29T15:03:33.164Z</time></trkpt><trkpt lat="37.7180837" lon="-0.3557346"><ele>0.0</ele><time>2026-04-29T15:03:34.169Z</time></trkpt><trkpt lat="37.7181502" lon="-0.3556872"><ele>0.0</ele><time>2026-04-29T15:03:35.081Z</time></trkpt><trkpt lat="37.7182359" lon="-0.3556767"><ele>0.0</ele><time>2026-04-29T15:03:36.082Z</time></trkpt><trkpt lat="37.7183326" lon="-0.35565"><ele>0.0</ele><time>2026-04-29T15:03:37.186Z</time></trkpt><trkpt lat="37.7184142" lon="-0.3555967"><ele>0.0</ele><time>2026-04-29T15:03:38.092Z</time></trkpt><trkpt lat="37.7185064" lon="-0.3555647"><ele>0.0</ele><time>2026-04-29T15:03:39.099Z</time></trkpt><trkpt lat="37.7185969" lon="-0.3555195"><ele>0.0</ele><time>2026-04-29T15:03:40.104Z</time></trkpt><trkpt lat="37.718675" lon="-0.3554397"><ele>0.0</ele><time>2026-04-29T15:03:41.109Z</time></trkpt><trkpt lat="37.7187316" lon="-0.3553411"><ele>0.0</ele><time>2026-04-29T15:03:42.116Z</time></trkpt><trkpt lat="37.7187973" lon="-0.3552524"><ele>0.0</ele><time>2026-04-29T15:03:43.121Z</time></trkpt><trkpt lat="37.7188867" lon="-0.3551932"><ele>0.0</ele><time>2026-04-29T15:03:44.127Z</time></trkpt><trkpt lat="37.7189916" lon="-0.3551857"><ele>0.0</ele><time>2026-04-29T15:03:45.134Z</time></trkpt><trkpt lat="37.7190902" lon="-0.3551592"><ele>0.0</ele><time>2026-04-29T15:03:46.14Z</time></trkpt><trkpt lat="37.7191845" lon="-0.3551108"><ele>0.0</ele><time>2026-04-29T15:03:47.145Z</time></trkpt><trkpt lat="37.7193095" lon="-0.3549268"><ele>0.0</ele><time>2026-04-29T15:03:49.158Z</time></trkpt><trkpt lat="37.7193964" lon="-0.3548114"><ele>0.0</ele><time>2026-04-29T15:03:51.169Z</time></trkpt><trkpt lat="37.7195116" lon="-0.3547603"><ele>0.0</ele><time>2026-04-29T15:03:52.082Z</time></trkpt><trkpt lat="37.7195935" lon="-0.3547016"><ele>0.0</ele><time>2026-04-29T15:03:53.082Z</time></trkpt><trkpt lat="37.7196728" lon="-0.3546383"><ele>0.0</ele><time>2026-04-29T15:03:54.086Z</time></trkpt><trkpt lat="37.7197574" lon="-0.3545926"><ele>0.0</ele><time>2026-04-29T15:03:55.093Z</time></trkpt><trkpt lat="37.7198415" lon="-0.3545414"><ele>0.0</ele><time>2026-04-29T15:03:56.098Z</time></trkpt><trkpt lat="37.7199176" lon="-0.3544818"><ele>0.0</ele><time>2026-04-29T15:03:57.104Z</time></trkpt><trkpt lat="37.7200798" lon="-0.354355"><ele>0.0</ele><time>2026-04-29T15:03:59.115Z</time></trkpt><trkpt lat="37.7201519" lon="-0.3542307"><ele>0.0</ele><time>2026-04-29T15:04:01.127Z</time></trkpt><trkpt lat="37.7202252" lon="-0.3541238"><ele>0.0</ele><time>2026-04-29T15:04:02.134Z</time></trkpt><trkpt lat="37.7203257" lon="-0.3540755"><ele>0.0</ele><time>2026-04-29T15:04:03.139Z</time></trkpt><trkpt lat="37.7204143" lon="-0.3540312"><ele>0.0</ele><time>2026-04-29T15:04:04.146Z</time></trkpt><trkpt lat="37.72049" lon="-0.3539794"><ele>0.0</ele><time>2026-04-29T15:04:05.152Z</time></trkpt><trkpt lat="37.7205684" lon="-0.3539262"><ele>0.0</ele><time>2026-04-29T15:04:06.157Z</time></trkpt><trkpt lat="37.7206478" lon="-0.3538547"><ele>0.0</ele><time>2026-04-29T15:04:07.164Z</time></trkpt><trkpt lat="37.7207287" lon="-0.3537773"><ele>0.0</ele><time>2026-04-29T15:04:08.169Z</time></trkpt><trkpt lat="37.7208905" lon="-0.3536399"><ele>0.0</ele><time>2026-04-29T15:04:10.081Z</time></trkpt><trkpt lat="37.7210115" lon="-0.353539"><ele>0.0</ele><time>2026-04-29T15:04:12.081Z</time></trkpt><trkpt lat="37.7210481" lon="-0.3534584"><ele>0.0</ele><time>2026-04-29T15:04:13.099Z</time></trkpt><trkpt lat="37.7211613" lon="-0.3533944"><ele>0.0</ele><time>2026-04-29T15:04:14.105Z</time></trkpt><trkpt lat="37.721259" lon="-0.3533522"><ele>0.0</ele><time>2026-04-29T15:04:15.111Z</time></trkpt><trkpt lat="37.7213377" lon="-0.353287"><ele>0.0</ele><time>2026-04-29T15:04:16.115Z</time></trkpt><trkpt lat="37.7214155" lon="-0.3532109"><ele>0.0</ele><time>2026-04-29T15:04:17.121Z</time></trkpt><trkpt lat="37.7215125" lon="-0.3531611"><ele>0.0</ele><time>2026-04-29T15:04:18.127Z</time></trkpt><trkpt lat="37.7216022" lon="-0.3531171"><ele>0.0</ele><time>2026-04-29T15:04:19.134Z</time></trkpt><trkpt lat="37.721686" lon="-0.3530682"><ele>0.0</ele><time>2026-04-29T15:04:20.14Z</time></trkpt><trkpt lat="37.7217788" lon="-0.3530374"><ele>0.0</ele><time>2026-04-29T15:04:21.145Z</time></trkpt><trkpt lat="37.7218642" lon="-0.3529955"><ele>0.0</ele><time>2026-04-29T15:04:22.151Z</time></trkpt><trkpt lat="37.7219513" lon="-0.3529431"><ele>0.0</ele><time>2026-04-29T15:04:23.158Z</time></trkpt><trkpt lat="37.7220405" lon="-0.3528764"><ele>0.0</ele><time>2026-04-29T15:04:24.163Z</time></trkpt><trkpt lat="37.7221315" lon="-0.3527568"><ele>0.0</ele><time>2026-04-29T15:04:26.175Z</time></trkpt><trkpt lat="37.7222348" lon="-0.3527018"><ele>0.0</ele><time>2026-04-29T15:04:27.081Z</time></trkpt><trkpt lat="37.7223163" lon="-0.3526352"><ele>0.0</ele><time>2026-04-29T15:04:28.087Z</time></trkpt><trkpt lat="37.7224049" lon="-0.3525675"><ele>0.0</ele><time>2026-04-29T15:04:29.092Z</time></trkpt><trkpt lat="37.7225797" lon="-0.3524388"><ele>0.0</ele><time>2026-04-29T15:04:31.104Z</time></trkpt><trkpt lat="37.7227363" lon="-0.352322"><ele>0.0</ele><time>2026-04-29T15:04:33.116Z</time></trkpt><trkpt lat="37.7228205" lon="-0.3522039"><ele>0.0</ele><time>2026-04-29T15:04:35.127Z</time></trkpt><trkpt lat="37.7229196" lon="-0.3521519"><ele>0.0</ele><time>2026-04-29T15:04:36.133Z</time></trkpt><trkpt lat="37.7230076" lon="-0.3521088"><ele>0.0</ele><time>2026-04-29T15:04:37.139Z</time></trkpt><trkpt lat="37.7230909" lon="-0.3520439"><ele>0.0</ele><time>2026-04-29T15:04:38.145Z</time></trkpt><trkpt lat="37.7231772" lon="-0.3519215"><ele>0.0</ele><time>2026-04-29T15:04:40.158Z</time></trkpt><trkpt lat="37.7233532" lon="-0.3517931"><ele>0.0</ele><time>2026-04-29T15:04:42.169Z</time></trkpt><trkpt lat="37.723428" lon="-0.3517899"><ele>0.0</ele><time>2026-04-29T15:04:43.082Z</time></trkpt><trkpt lat="37.7235144" lon="-0.3517551"><ele>0.0</ele><time>2026-04-29T15:04:44.082Z</time></trkpt><trkpt lat="37.7236032" lon="-0.351715"><ele>0.0</ele><time>2026-04-29T15:04:45.086Z</time></trkpt><trkpt lat="37.7236816" lon="-0.3516378"><ele>0.0</ele><time>2026-04-29T15:04:46.092Z</time></trkpt><trkpt lat="37.7238278" lon="-0.3514749"><ele>0.0</ele><time>2026-04-29T15:04:48.104Z</time></trkpt><trkpt lat="37.7238903" lon="-0.3514292"><ele>0.0</ele><time>2026-04-29T15:04:50.115Z</time></trkpt><trkpt lat="37.7240031" lon="-0.3513706"><ele>0.0</ele><time>2026-04-29T15:04:51.122Z</time></trkpt><trkpt lat="37.7242257" lon="-0.3513268"><ele>0.0</ele><time>2026-04-29T15:04:53.133Z</time></trkpt><trkpt lat="37.7243236" lon="-0.3512763"><ele>0.0</ele><time>2026-04-29T15:04:54.139Z</time></trkpt><trkpt lat="37.7244103" lon="-0.3511961"><ele>0.0</ele><time>2026-04-29T15:04:55.145Z</time></trkpt><trkpt lat="37.7244988" lon="-0.3511286"><ele>0.0</ele><time>2026-04-29T15:04:56.151Z</time></trkpt><trkpt lat="37.7245323" lon="-0.3510601"><ele>0.0</ele><time>2026-04-29T15:04:57.082Z</time></trkpt><trkpt lat="37.7245773" lon="-0.3509699"><ele>0.0</ele><time>2026-04-29T15:04:58.164Z</time></trkpt><trkpt lat="37.724695" lon="-0.3509117"><ele>0.0</ele><time>2026-04-29T15:04:59.17Z</time></trkpt><trkpt lat="37.7247939" lon="-0.3509212"><ele>0.0</ele><time>2026-04-29T15:05:00.081Z</time></trkpt><trkpt lat="37.7248956" lon="-0.3509029"><ele>0.0</ele><time>2026-04-29T15:05:01.081Z</time></trkpt><trkpt lat="37.7249943" lon="-0.3508778"><ele>0.0</ele><time>2026-04-29T15:05:02.086Z</time></trkpt><trkpt lat="37.7251118" lon="-0.3507413"><ele>0.0</ele><time>2026-04-29T15:05:04.082Z</time></trkpt><trkpt lat="37.7251513" lon="-0.3506585"><ele>0.0</ele><time>2026-04-29T15:05:05.105Z</time></trkpt><trkpt lat="37.7253466" lon="-0.3505398"><ele>0.0</ele><time>2026-04-29T15:05:07.116Z</time></trkpt><trkpt lat="37.7254086" lon="-0.3504545"><ele>0.0</ele><time>2026-04-29T15:05:08.122Z</time></trkpt><trkpt lat="37.7254816" lon="-0.3503797"><ele>0.0</ele><time>2026-04-29T15:05:09.127Z</time></trkpt><trkpt lat="37.7255694" lon="-0.3503302"><ele>0.0</ele><time>2026-04-29T15:05:10.133Z</time></trkpt><trkpt lat="37.725651" lon="-0.3502698"><ele>0.0</ele><time>2026-04-29T15:05:11.139Z</time></trkpt><trkpt lat="37.7257212" lon="-0.350184"><ele>0.0</ele><time>2026-04-29T15:05:12.146Z</time></trkpt><trkpt lat="37.7258762" lon="-0.3500298"><ele>0.0</ele><time>2026-04-29T15:05:14.158Z</time></trkpt><trkpt lat="37.7259832" lon="-0.3500146"><ele>0.0</ele><time>2026-04-29T15:05:15.164Z</time></trkpt><trkpt lat="37.7260986" lon="-0.3499229"><ele>0.0</ele><time>2026-04-29T15:05:17.082Z</time></trkpt><trkpt lat="37.7261764" lon="-0.3498684"><ele>0.0</ele><time>2026-04-29T15:05:18.082Z</time></trkpt><trkpt lat="37.7262463" lon="-0.3498066"><ele>0.0</ele><time>2026-04-29T15:05:19.086Z</time></trkpt><trkpt lat="37.7263123" lon="-0.3497186"><ele>0.0</ele><time>2026-04-29T15:05:20.093Z</time></trkpt><trkpt lat="37.7263752" lon="-0.3496314"><ele>0.0</ele><time>2026-04-29T15:05:21.098Z</time></trkpt><trkpt lat="37.7264511" lon="-0.3495645"><ele>0.0</ele><time>2026-04-29T15:05:22.104Z</time></trkpt><trkpt lat="37.7265142" lon="-0.3495622"><ele>0.0</ele><time>2026-04-29T15:05:23.082Z</time></trkpt><trkpt lat="37.7265485" lon="-0.3494828"><ele>0.0</ele><time>2026-04-29T15:05:24.117Z</time></trkpt><trkpt lat="37.7266715" lon="-0.3494233"><ele>0.0</ele><time>2026-04-29T15:05:25.121Z</time></trkpt><trkpt lat="37.7267793" lon="-0.3493788"><ele>0.0</ele><time>2026-04-29T15:05:26.127Z</time></trkpt><trkpt lat="37.7268828" lon="-0.3493555"><ele>0.0</ele><time>2026-04-29T15:05:27.133Z</time></trkpt><trkpt lat="37.7269765" lon="-0.3493182"><ele>0.0</ele><time>2026-04-29T15:05:28.139Z</time></trkpt><trkpt lat="37.727067" lon="-0.3492877"><ele>0.0</ele><time>2026-04-29T15:05:29.146Z</time></trkpt><trkpt lat="37.7271385" lon="-0.3492279"><ele>0.0</ele><time>2026-04-29T15:05:30.151Z</time></trkpt><trkpt lat="37.7272211" lon="-0.3491631"><ele>0.0</ele><time>2026-04-29T15:05:31.158Z</time></trkpt><trkpt lat="37.7273018" lon="-0.3490771"><ele>0.0</ele><time>2026-04-29T15:05:32.164Z</time></trkpt><trkpt lat="37.7273774" lon="-0.3489312"><ele>0.0</ele><time>2026-04-29T15:05:34.175Z</time></trkpt><trkpt lat="37.7276085" lon="-0.3488817"><ele>0.0</ele><time>2026-04-29T15:05:36.086Z</time></trkpt><trkpt lat="37.7278322" lon="-0.3486165"><ele>0.0</ele><time>2026-04-29T15:05:39.104Z</time></trkpt><trkpt lat="37.7279021" lon="-0.3484997"><ele>0.0</ele><time>2026-04-29T15:05:41.116Z</time></trkpt><trkpt lat="37.7280118" lon="-0.348432"><ele>0.0</ele><time>2026-04-29T15:05:42.122Z</time></trkpt><trkpt lat="37.7280982" lon="-0.3483839"><ele>0.0</ele><time>2026-04-29T15:05:43.127Z</time></trkpt><trkpt lat="37.7281847" lon="-0.3483422"><ele>0.0</ele><time>2026-04-29T15:05:44.133Z</time></trkpt><trkpt lat="37.7282751" lon="-0.3482919"><ele>0.0</ele><time>2026-04-29T15:05:45.139Z</time></trkpt><trkpt lat="37.7283476" lon="-0.3482191"><ele>0.0</ele><time>2026-04-29T15:05:46.145Z</time></trkpt><trkpt lat="37.7284158" lon="-0.3481378"><ele>0.0</ele><time>2026-04-29T15:05:47.151Z</time></trkpt><trkpt lat="37.7285004" lon="-0.3480344"><ele>0.0</ele><time>2026-04-29T15:05:49.164Z</time></trkpt><trkpt lat="37.7286053" lon="-0.3479674"><ele>0.0</ele><time>2026-04-29T15:05:50.169Z</time></trkpt><trkpt lat="37.7286831" lon="-0.3479064"><ele>0.0</ele><time>2026-04-29T15:05:51.175Z</time></trkpt><trkpt lat="37.7287725" lon="-0.3478808"><ele>0.0</ele><time>2026-04-29T15:05:52.081Z</time></trkpt><trkpt lat="37.7288636" lon="-0.3478327"><ele>0.0</ele><time>2026-04-29T15:05:53.086Z</time></trkpt><trkpt lat="37.7289566" lon="-0.3477757"><ele>0.0</ele><time>2026-04-29T15:05:54.092Z</time></trkpt><trkpt lat="37.7290494" lon="-0.3477208"><ele>0.0</ele><time>2026-04-29T15:05:55.098Z</time></trkpt><trkpt lat="37.7291429" lon="-0.3475833"><ele>0.0</ele><time>2026-04-29T15:05:57.11Z</time></trkpt><trkpt lat="37.7293526" lon="-0.3474656"><ele>0.0</ele><time>2026-04-29T15:05:59.122Z</time></trkpt><trkpt lat="37.729446" lon="-0.3474215"><ele>0.0</ele><time>2026-04-29T15:06:00.128Z</time></trkpt><trkpt lat="37.7295262" lon="-0.3473551"><ele>0.0</ele><time>2026-04-29T15:06:01.133Z</time></trkpt><trkpt lat="37.7295986" lon="-0.3472497"><ele>0.0</ele><time>2026-04-29T15:06:03.146Z</time></trkpt><trkpt lat="37.7296937" lon="-0.347158"><ele>0.0</ele><time>2026-04-29T15:06:04.152Z</time></trkpt><trkpt lat="37.7297948" lon="-0.3470984"><ele>0.0</ele><time>2026-04-29T15:06:05.157Z</time></trkpt><trkpt lat="37.729885" lon="-0.3470273"><ele>0.0</ele><time>2026-04-29T15:06:06.164Z</time></trkpt><trkpt lat="37.7301431" lon="-0.3468889"><ele>0.0</ele><time>2026-04-29T15:06:09.081Z</time></trkpt><trkpt lat="37.7301921" lon="-0.3468297"><ele>0.0</ele><time>2026-04-29T15:06:10.081Z</time></trkpt><trkpt lat="37.7302387" lon="-0.3467404"><ele>0.0</ele><time>2026-04-29T15:06:11.093Z</time></trkpt><trkpt lat="37.730341" lon="-0.3466578"><ele>0.0</ele><time>2026-04-29T15:06:12.098Z</time></trkpt><trkpt lat="37.7304392" lon="-0.3466029"><ele>0.0</ele><time>2026-04-29T15:06:13.104Z</time></trkpt><trkpt lat="37.7305029" lon="-0.3465723"><ele>0.0</ele><time>2026-04-29T15:06:14.081Z</time></trkpt><trkpt lat="37.730546" lon="-0.3464788"><ele>0.0</ele><time>2026-04-29T15:06:15.116Z</time></trkpt><trkpt lat="37.7306583" lon="-0.3464177"><ele>0.0</ele><time>2026-04-29T15:06:16.122Z</time></trkpt><trkpt lat="37.730773" lon="-0.3464208"><ele>0.0</ele><time>2026-04-29T15:06:17.128Z</time></trkpt><trkpt lat="37.730986" lon="-0.3462543"><ele>0.0</ele><time>2026-04-29T15:06:20.145Z</time></trkpt><trkpt lat="37.7311348" lon="-0.3461667"><ele>0.0</ele><time>2026-04-29T15:06:22.157Z</time></trkpt><trkpt lat="37.7311935" lon="-0.3460918"><ele>0.0</ele><time>2026-04-29T15:06:23.163Z</time></trkpt><trkpt lat="37.7312543" lon="-0.3460044"><ele>0.0</ele><time>2026-04-29T15:06:24.17Z</time></trkpt><trkpt lat="37.7313262" lon="-0.3459277"><ele>0.0</ele><time>2026-04-29T15:06:25.175Z</time></trkpt><trkpt lat="37.7314534" lon="-0.3458103"><ele>0.0</ele><time>2026-04-29T15:06:27.082Z</time></trkpt><trkpt lat="37.7314919" lon="-0.3457224"><ele>0.0</ele><time>2026-04-29T15:06:28.093Z</time></trkpt><trkpt lat="37.7315924" lon="-0.3456437"><ele>0.0</ele><time>2026-04-29T15:06:29.099Z</time></trkpt><trkpt lat="37.7316731" lon="-0.3455753"><ele>0.0</ele><time>2026-04-29T15:06:30.105Z</time></trkpt><trkpt lat="37.7317627" lon="-0.345521"><ele>0.0</ele><time>2026-04-29T15:06:31.11Z</time></trkpt><trkpt lat="37.7318582" lon="-0.3454741"><ele>0.0</ele><time>2026-04-29T15:06:32.116Z</time></trkpt><trkpt lat="37.7319104" lon="-0.3454071"><ele>0.0</ele><time>2026-04-29T15:06:34.129Z</time></trkpt><trkpt lat="37.7320496" lon="-0.3454062"><ele>0.0</ele><time>2026-04-29T15:06:35.134Z</time></trkpt><trkpt lat="37.7321429" lon="-0.3453345"><ele>0.0</ele><time>2026-04-29T15:06:36.14Z</time></trkpt><trkpt lat="37.7322282" lon="-0.3452604"><ele>0.0</ele><time>2026-04-29T15:06:37.146Z</time></trkpt><trkpt lat="37.7323107" lon="-0.3451856"><ele>0.0</ele><time>2026-04-29T15:06:38.152Z</time></trkpt><trkpt lat="37.7323939" lon="-0.3451099"><ele>0.0</ele><time>2026-04-29T15:06:39.158Z</time></trkpt><trkpt lat="37.7325636" lon="-0.3450061"><ele>0.0</ele><time>2026-04-29T15:06:41.17Z</time></trkpt><trkpt lat="37.7327364" lon="-0.3448858"><ele>0.0</ele><time>2026-04-29T15:06:43.081Z</time></trkpt><trkpt lat="37.7328279" lon="-0.3448222"><ele>0.0</ele><time>2026-04-29T15:06:44.087Z</time></trkpt><trkpt lat="37.7329305" lon="-0.3447649"><ele>0.0</ele><time>2026-04-29T15:06:45.093Z</time></trkpt><trkpt lat="37.7329894" lon="-0.3447308"><ele>0.0</ele><time>2026-04-29T15:06:46.081Z</time></trkpt><trkpt lat="37.7330409" lon="-0.3446366"><ele>0.0</ele><time>2026-04-29T15:06:47.104Z</time></trkpt><trkpt lat="37.7331288" lon="-0.3445638"><ele>0.0</ele><time>2026-04-29T15:06:48.11Z</time></trkpt><trkpt lat="37.7332169" lon="-0.3445252"><ele>0.0</ele><time>2026-04-29T15:06:49.117Z</time></trkpt><trkpt lat="37.7333043" lon="-0.3444822"><ele>0.0</ele><time>2026-04-29T15:06:50.123Z</time></trkpt><trkpt lat="37.7333979" lon="-0.3444389"><ele>0.0</ele><time>2026-04-29T15:06:51.129Z</time></trkpt><trkpt lat="37.7334984" lon="-0.3444172"><ele>0.0</ele><time>2026-04-29T15:06:52.135Z</time></trkpt><trkpt lat="37.7335835" lon="-0.3443615"><ele>0.0</ele><time>2026-04-29T15:06:53.14Z</time></trkpt><trkpt lat="37.7336689" lon="-0.3442461"><ele>0.0</ele><time>2026-04-29T15:06:55.153Z</time></trkpt><trkpt lat="37.7337645" lon="-0.3441637"><ele>0.0</ele><time>2026-04-29T15:06:56.159Z</time></trkpt><trkpt lat="37.7339552" lon="-0.3440706"><ele>0.0</ele><time>2026-04-29T15:06:58.17Z</time></trkpt><trkpt lat="37.7340296" lon="-0.3440087"><ele>0.0</ele><time>2026-04-29T15:06:59.081Z</time></trkpt><trkpt lat="37.7341039" lon="-0.3439392"><ele>0.0</ele><time>2026-04-29T15:07:00.081Z</time></trkpt><trkpt lat="37.734194" lon="-0.3438837"><ele>0.0</ele><time>2026-04-29T15:07:01.088Z</time></trkpt><trkpt lat="37.7342927" lon="-0.343839"><ele>0.0</ele><time>2026-04-29T15:07:02.094Z</time></trkpt><trkpt lat="37.7344597" lon="-0.3436558"><ele>0.0</ele><time>2026-04-29T15:07:05.11Z</time></trkpt><trkpt lat="37.7345511" lon="-0.3435982"><ele>0.0</ele><time>2026-04-29T15:07:06.116Z</time></trkpt><trkpt lat="37.7346308" lon="-0.343529"><ele>0.0</ele><time>2026-04-29T15:07:07.123Z</time></trkpt><trkpt lat="37.7347288" lon="-0.3434974"><ele>0.0</ele><time>2026-04-29T15:07:08.129Z</time></trkpt><trkpt lat="37.7348173" lon="-0.3434466"><ele>0.0</ele><time>2026-04-29T15:07:09.134Z</time></trkpt><trkpt lat="37.7349063" lon="-0.3434019"><ele>0.0</ele><time>2026-04-29T15:07:10.141Z</time></trkpt><trkpt lat="37.7349896" lon="-0.3433537"><ele>0.0</ele><time>2026-04-29T15:07:11.146Z</time></trkpt><trkpt lat="37.7350907" lon="-0.343217"><ele>0.0</ele><time>2026-04-29T15:07:13.159Z</time></trkpt><trkpt lat="37.7351972" lon="-0.3431521"><ele>0.0</ele><time>2026-04-29T15:07:14.164Z</time></trkpt><trkpt lat="37.7352855" lon="-0.3431066"><ele>0.0</ele><time>2026-04-29T15:07:15.171Z</time></trkpt><trkpt lat="37.7353763" lon="-0.3430729"><ele>0.0</ele><time>2026-04-29T15:07:16.176Z</time></trkpt><trkpt lat="37.7354492" lon="-0.3430127"><ele>0.0</ele><time>2026-04-29T15:07:17.081Z</time></trkpt><trkpt lat="37.7355494" lon="-0.3428601"><ele>0.0</ele><time>2026-04-29T15:07:20.099Z</time></trkpt><trkpt lat="37.7356993" lon="-0.3428233"><ele>0.0</ele><time>2026-04-29T15:07:21.081Z</time></trkpt><trkpt lat="37.7357949" lon="-0.34278"><ele>0.0</ele><time>2026-04-29T15:07:22.08Z</time></trkpt><trkpt lat="37.7358805" lon="-0.3427285"><ele>0.0</ele><time>2026-04-29T15:07:23.081Z</time></trkpt><trkpt lat="37.7360509" lon="-0.3426508"><ele>0.0</ele><time>2026-04-29T15:07:25.081Z</time></trkpt><trkpt lat="37.7361381" lon="-0.3425881"><ele>0.0</ele><time>2026-04-29T15:07:26.08Z</time></trkpt><trkpt lat="37.7362645" lon="-0.3424668"><ele>0.0</ele><time>2026-04-29T15:07:28.08Z</time></trkpt><trkpt lat="37.7363191" lon="-0.342411"><ele>0.0</ele><time>2026-04-29T15:07:29.08Z</time></trkpt><trkpt lat="37.7363909" lon="-0.3423371"><ele>0.0</ele><time>2026-04-29T15:07:30.081Z</time></trkpt><trkpt lat="37.736468" lon="-0.3422802"><ele>0.0</ele><time>2026-04-29T15:07:31.08Z</time></trkpt><trkpt lat="37.7365449" lon="-0.3422196"><ele>0.0</ele><time>2026-04-29T15:07:32.08Z</time></trkpt><trkpt lat="37.7366321" lon="-0.3421508"><ele>0.0</ele><time>2026-04-29T15:07:33.081Z</time></trkpt><trkpt lat="37.7367045" lon="-0.3420564"><ele>0.0</ele><time>2026-04-29T15:07:34.08Z</time></trkpt><trkpt lat="37.7367818" lon="-0.3419911"><ele>0.0</ele><time>2026-04-29T15:07:35.08Z</time></trkpt><trkpt lat="37.7368634" lon="-0.3419366"><ele>0.0</ele><time>2026-04-29T15:07:36.08Z</time></trkpt><trkpt lat="37.7369412" lon="-0.3418761"><ele>0.0</ele><time>2026-04-29T15:07:37.081Z</time></trkpt><trkpt lat="37.7370253" lon="-0.3418201"><ele>0.0</ele><time>2026-04-29T15:07:38.08Z</time></trkpt><trkpt lat="37.7371005" lon="-0.3417742"><ele>0.0</ele><time>2026-04-29T15:07:39.08Z</time></trkpt><trkpt lat="37.7371815" lon="-0.3417171"><ele>0.0</ele><time>2026-04-29T15:07:40.081Z</time></trkpt><trkpt lat="37.7372713" lon="-0.3416616"><ele>0.0</ele><time>2026-04-29T15:07:41.081Z</time></trkpt><trkpt lat="37.7373369" lon="-0.3415886"><ele>0.0</ele><time>2026-04-29T15:07:43.181Z</time></trkpt><trkpt lat="37.7375327" lon="-0.341391"><ele>0.0</ele><time>2026-04-29T15:07:45.092Z</time></trkpt><trkpt lat="37.737733" lon="-0.3412955"><ele>0.0</ele><time>2026-04-29T15:07:47.104Z</time></trkpt><trkpt lat="37.7378157" lon="-0.3412098"><ele>0.0</ele><time>2026-04-29T15:07:48.11Z</time></trkpt><trkpt lat="37.7379019" lon="-0.3411458"><ele>0.0</ele><time>2026-04-29T15:07:49.115Z</time></trkpt><trkpt lat="37.7379845" lon="-0.3410834"><ele>0.0</ele><time>2026-04-29T15:07:50.121Z</time></trkpt><trkpt lat="37.7380639" lon="-0.3410124"><ele>0.0</ele><time>2026-04-29T15:07:51.128Z</time></trkpt><trkpt lat="37.738118" lon="-0.3409537"><ele>0.0</ele><time>2026-04-29T15:07:52.08Z</time></trkpt><trkpt lat="37.7381559" lon="-0.3408754"><ele>0.0</ele><time>2026-04-29T15:07:53.139Z</time></trkpt><trkpt lat="37.7382914" lon="-0.3408525"><ele>0.0</ele><time>2026-04-29T15:07:54.144Z</time></trkpt><trkpt lat="37.738399" lon="-0.3408266"><ele>0.0</ele><time>2026-04-29T15:07:55.15Z</time></trkpt><trkpt lat="37.7384903" lon="-0.3407698"><ele>0.0</ele><time>2026-04-29T15:07:56.156Z</time></trkpt><trkpt lat="37.7385743" lon="-0.3407003"><ele>0.0</ele><time>2026-04-29T15:07:57.163Z</time></trkpt><trkpt lat="37.7386605" lon="-0.3406357"><ele>0.0</ele><time>2026-04-29T15:07:58.168Z</time></trkpt><trkpt lat="37.738737" lon="-0.3404925"><ele>0.0</ele><time>2026-04-29T15:08:00.081Z</time></trkpt><trkpt lat="37.7388133" lon="-0.3404368"><ele>0.0</ele><time>2026-04-29T15:08:01.086Z</time></trkpt><trkpt lat="37.7388935" lon="-0.3403631"><ele>0.0</ele><time>2026-04-29T15:08:02.091Z</time></trkpt><trkpt lat="37.7389648" lon="-0.3402868"><ele>0.0</ele><time>2026-04-29T15:08:03.098Z</time></trkpt><trkpt lat="37.7390912" lon="-0.3401492"><ele>0.0</ele><time>2026-04-29T15:08:05.11Z</time></trkpt><trkpt lat="37.7392673" lon="-0.3400568"><ele>0.0</ele><time>2026-04-29T15:08:08.127Z</time></trkpt><trkpt lat="37.7395205" lon="-0.3398198"><ele>0.0</ele><time>2026-04-29T15:08:11.144Z</time></trkpt><trkpt lat="37.7395952" lon="-0.3397377"><ele>0.0</ele><time>2026-04-29T15:08:12.15Z</time></trkpt><trkpt lat="37.7396659" lon="-0.3396547"><ele>0.0</ele><time>2026-04-29T15:08:13.156Z</time></trkpt><trkpt lat="37.7397429" lon="-0.3395845"><ele>0.0</ele><time>2026-04-29T15:08:14.163Z</time></trkpt><trkpt lat="37.7398406" lon="-0.3395448"><ele>0.0</ele><time>2026-04-29T15:08:15.168Z</time></trkpt><trkpt lat="37.7399989" lon="-0.3394705"><ele>0.0</ele><time>2026-04-29T15:08:17.081Z</time></trkpt><trkpt lat="37.7400785" lon="-0.3394304"><ele>0.0</ele><time>2026-04-29T15:08:18.085Z</time></trkpt><trkpt lat="37.740147" lon="-0.3393633"><ele>0.0</ele><time>2026-04-29T15:08:19.091Z</time></trkpt><trkpt lat="37.7402066" lon="-0.3392853"><ele>0.0</ele><time>2026-04-29T15:08:20.098Z</time></trkpt><trkpt lat="37.740281" lon="-0.339229"><ele>0.0</ele><time>2026-04-29T15:08:21.103Z</time></trkpt><trkpt lat="37.7403635" lon="-0.3391831"><ele>0.0</ele><time>2026-04-29T15:08:22.109Z</time></trkpt><trkpt lat="37.7404401" lon="-0.339121"><ele>0.0</ele><time>2026-04-29T15:08:23.116Z</time></trkpt><trkpt lat="37.740515" lon="-0.339059"><ele>0.0</ele><time>2026-04-29T15:08:24.121Z</time></trkpt><trkpt lat="37.7405978" lon="-0.3390062"><ele>0.0</ele><time>2026-04-29T15:08:25.127Z</time></trkpt><trkpt lat="37.7406822" lon="-0.3389462"><ele>0.0</ele><time>2026-04-29T15:08:26.133Z</time></trkpt><trkpt lat="37.7407709" lon="-0.338881"><ele>0.0</ele><time>2026-04-29T15:08:27.14Z</time></trkpt><trkpt lat="37.7408244" lon="-0.3388315"><ele>0.0</ele><time>2026-04-29T15:08:28.081Z</time></trkpt><trkpt lat="37.7408664" lon="-0.3387432"><ele>0.0</ele><time>2026-04-29T15:08:29.15Z</time></trkpt><trkpt lat="37.7410609" lon="-0.3386345"><ele>0.0</ele><time>2026-04-29T15:08:31.162Z</time></trkpt><trkpt lat="37.7412227" lon="-0.3385297"><ele>0.0</ele><time>2026-04-29T15:08:33.08Z</time></trkpt><trkpt lat="37.7413135" lon="-0.3384718"><ele>0.0</ele><time>2026-04-29T15:08:34.08Z</time></trkpt><trkpt lat="37.7414024" lon="-0.3384188"><ele>0.0</ele><time>2026-04-29T15:08:35.085Z</time></trkpt><trkpt lat="37.7414891" lon="-0.3383578"><ele>0.0</ele><time>2026-04-29T15:08:36.091Z</time></trkpt><trkpt lat="37.741566" lon="-0.3382098"><ele>0.0</ele><time>2026-04-29T15:08:38.103Z</time></trkpt><trkpt lat="37.7416696" lon="-0.3381468"><ele>0.0</ele><time>2026-04-29T15:08:39.109Z</time></trkpt><trkpt lat="37.7417667" lon="-0.3381259"><ele>0.0</ele><time>2026-04-29T15:08:40.115Z</time></trkpt><trkpt lat="37.7418429" lon="-0.3380513"><ele>0.0</ele><time>2026-04-29T15:08:41.121Z</time></trkpt><trkpt lat="37.7419483" lon="-0.3380123"><ele>0.0</ele><time>2026-04-29T15:08:42.127Z</time></trkpt><trkpt lat="37.7420528" lon="-0.3379682"><ele>0.0</ele><time>2026-04-29T15:08:43.133Z</time></trkpt><trkpt lat="37.7421676" lon="-0.3379388"><ele>0.0</ele><time>2026-04-29T15:08:44.14Z</time></trkpt><trkpt lat="37.7422632" lon="-0.3378904"><ele>0.0</ele><time>2026-04-29T15:08:45.145Z</time></trkpt><trkpt lat="37.7423477" lon="-0.337829"><ele>0.0</ele><time>2026-04-29T15:08:46.15Z</time></trkpt><trkpt lat="37.742438" lon="-0.3376906"><ele>0.0</ele><time>2026-04-29T15:08:48.162Z</time></trkpt><trkpt lat="37.7426067" lon="-0.3375748"><ele>0.0</ele><time>2026-04-29T15:08:50.175Z</time></trkpt><trkpt lat="37.7427634" lon="-0.337453"><ele>0.0</ele><time>2026-04-29T15:08:52.086Z</time></trkpt><trkpt lat="37.7428463" lon="-0.3373815"><ele>0.0</ele><time>2026-04-29T15:08:53.092Z</time></trkpt><trkpt lat="37.7429287" lon="-0.3372988"><ele>0.0</ele><time>2026-04-29T15:08:54.097Z</time></trkpt><trkpt lat="37.7430027" lon="-0.3372216"><ele>0.0</ele><time>2026-04-29T15:08:55.104Z</time></trkpt><trkpt lat="37.7430938" lon="-0.3371943"><ele>0.0</ele><time>2026-04-29T15:08:56.109Z</time></trkpt><trkpt lat="37.7431926" lon="-0.3372014"><ele>0.0</ele><time>2026-04-29T15:08:57.115Z</time></trkpt><trkpt lat="37.7432811" lon="-0.337167"><ele>0.0</ele><time>2026-04-29T15:08:58.121Z</time></trkpt><trkpt lat="37.7433608" lon="-0.3371071"><ele>0.0</ele><time>2026-04-29T15:08:59.127Z</time></trkpt><trkpt lat="37.7434343" lon="-0.3369788"><ele>0.0</ele><time>2026-04-29T15:09:01.139Z</time></trkpt><trkpt lat="37.7435373" lon="-0.3369108"><ele>0.0</ele><time>2026-04-29T15:09:02.145Z</time></trkpt><trkpt lat="37.7436399" lon="-0.3368763"><ele>0.0</ele><time>2026-04-29T15:09:03.152Z</time></trkpt><trkpt lat="37.7437084" lon="-0.3368115"><ele>0.0</ele><time>2026-04-29T15:09:04.156Z</time></trkpt><trkpt lat="37.7437793" lon="-0.336685"><ele>0.0</ele><time>2026-04-29T15:09:06.168Z</time></trkpt><trkpt lat="37.7439095" lon="-0.3366257"><ele>0.0</ele><time>2026-04-29T15:09:07.081Z</time></trkpt><trkpt lat="37.7439963" lon="-0.3365542"><ele>0.0</ele><time>2026-04-29T15:09:08.08Z</time></trkpt><trkpt lat="37.7440861" lon="-0.3364889"><ele>0.0</ele><time>2026-04-29T15:09:09.085Z</time></trkpt><trkpt lat="37.7441765" lon="-0.336429"><ele>0.0</ele><time>2026-04-29T15:09:10.091Z</time></trkpt><trkpt lat="37.7442639" lon="-0.3363714"><ele>0.0</ele><time>2026-04-29T15:09:11.098Z</time></trkpt><trkpt lat="37.7443555" lon="-0.3362294"><ele>0.0</ele><time>2026-04-29T15:09:13.109Z</time></trkpt><trkpt lat="37.7444666" lon="-0.3361503"><ele>0.0</ele><time>2026-04-29T15:09:14.115Z</time></trkpt><trkpt lat="37.7445629" lon="-0.3360917"><ele>0.0</ele><time>2026-04-29T15:09:15.121Z</time></trkpt><trkpt lat="37.7446102" lon="-0.3360138"><ele>0.0</ele><time>2026-04-29T15:09:17.134Z</time></trkpt><trkpt lat="37.7447661" lon="-0.3359641"><ele>0.0</ele><time>2026-04-29T15:09:18.14Z</time></trkpt><trkpt lat="37.7448814" lon="-0.3359268"><ele>0.0</ele><time>2026-04-29T15:09:19.145Z</time></trkpt><trkpt lat="37.7449856" lon="-0.335897"><ele>0.0</ele><time>2026-04-29T15:09:20.151Z</time></trkpt><trkpt lat="37.7450661" lon="-0.3357857"><ele>0.0</ele><time>2026-04-29T15:09:22.163Z</time></trkpt><trkpt lat="37.7451715" lon="-0.3357134"><ele>0.0</ele><time>2026-04-29T15:09:23.169Z</time></trkpt><trkpt lat="37.7452665" lon="-0.3356533"><ele>0.0</ele><time>2026-04-29T15:09:24.174Z</time></trkpt><trkpt lat="37.7453548" lon="-0.3355883"><ele>0.0</ele><time>2026-04-29T15:09:25.18Z</time></trkpt><trkpt lat="37.7454393" lon="-0.3355326"><ele>0.0</ele><time>2026-04-29T15:09:26.086Z</time></trkpt><trkpt lat="37.7454556" lon="-0.335445"><ele>0.0</ele><time>2026-04-29T15:09:28.098Z</time></trkpt><trkpt lat="37.7455531" lon="-0.3353643"><ele>0.0</ele><time>2026-04-29T15:09:29.103Z</time></trkpt><trkpt lat="37.7456483" lon="-0.3353062"><ele>0.0</ele><time>2026-04-29T15:09:30.109Z</time></trkpt><trkpt lat="37.7457461" lon="-0.3352597"><ele>0.0</ele><time>2026-04-29T15:09:31.115Z</time></trkpt><trkpt lat="37.7458452" lon="-0.335206"><ele>0.0</ele><time>2026-04-29T15:09:32.122Z</time></trkpt><trkpt lat="37.7460825" lon="-0.3349743"><ele>0.0</ele><time>2026-04-29T15:09:35.14Z</time></trkpt><trkpt lat="37.7461757" lon="-0.3349297"><ele>0.0</ele><time>2026-04-29T15:09:36.145Z</time></trkpt><trkpt lat="37.7462799" lon="-0.3349045"><ele>0.0</ele><time>2026-04-29T15:09:37.152Z</time></trkpt><trkpt lat="37.7463785" lon="-0.3348554"><ele>0.0</ele><time>2026-04-29T15:09:38.157Z</time></trkpt><trkpt lat="37.7464558" lon="-0.3347971"><ele>0.0</ele><time>2026-04-29T15:09:39.163Z</time></trkpt><trkpt lat="37.7465341" lon="-0.3347449"><ele>0.0</ele><time>2026-04-29T15:09:40.168Z</time></trkpt><trkpt lat="37.7466042" lon="-0.3346593"><ele>0.0</ele><time>2026-04-29T15:09:41.08Z</time></trkpt><trkpt lat="37.7466806" lon="-0.3345949"><ele>0.0</ele><time>2026-04-29T15:09:42.08Z</time></trkpt><trkpt lat="37.7467625" lon="-0.3345469"><ele>0.0</ele><time>2026-04-29T15:09:43.086Z</time></trkpt><trkpt lat="37.7468329" lon="-0.3344772"><ele>0.0</ele><time>2026-04-29T15:09:44.091Z</time></trkpt><trkpt lat="37.7470011" lon="-0.3343759"><ele>0.0</ele><time>2026-04-29T15:09:46.104Z</time></trkpt><trkpt lat="37.7470866" lon="-0.334321"><ele>0.0</ele><time>2026-04-29T15:09:47.109Z</time></trkpt><trkpt lat="37.747159" lon="-0.3342491"><ele>0.0</ele><time>2026-04-29T15:09:48.115Z</time></trkpt><trkpt lat="37.7472234" lon="-0.3341518"><ele>0.0</ele><time>2026-04-29T15:09:50.127Z</time></trkpt><trkpt lat="37.7473105" lon="-0.334072"><ele>0.0</ele><time>2026-04-29T15:09:51.133Z</time></trkpt><trkpt lat="37.7474099" lon="-0.3340339"><ele>0.0</ele><time>2026-04-29T15:09:52.139Z</time></trkpt><trkpt lat="37.7474841" lon="-0.3339656"><ele>0.0</ele><time>2026-04-29T15:09:53.145Z</time></trkpt><trkpt lat="37.7476354" lon="-0.3338424"><ele>0.0</ele><time>2026-04-29T15:09:55.158Z</time></trkpt><trkpt lat="37.7478015" lon="-0.3337644"><ele>0.0</ele><time>2026-04-29T15:09:57.081Z</time></trkpt><trkpt lat="37.7478955" lon="-0.333707"><ele>0.0</ele><time>2026-04-29T15:09:58.175Z</time></trkpt><trkpt lat="37.7479807" lon="-0.3336353"><ele>0.0</ele><time>2026-04-29T15:09:59.081Z</time></trkpt><trkpt lat="37.7480647" lon="-0.3335423"><ele>0.0</ele><time>2026-04-29T15:10:00.087Z</time></trkpt><trkpt lat="37.7481566" lon="-0.333459"><ele>0.0</ele><time>2026-04-29T15:10:01.092Z</time></trkpt><trkpt lat="37.7482596" lon="-0.3333924"><ele>0.0</ele><time>2026-04-29T15:10:02.098Z</time></trkpt><trkpt lat="37.7483498" lon="-0.3333039"><ele>0.0</ele><time>2026-04-29T15:10:04.11Z</time></trkpt><trkpt lat="37.7484911" lon="-0.3332858"><ele>0.0</ele><time>2026-04-29T15:10:05.115Z</time></trkpt><trkpt lat="37.7486836" lon="-0.3331331"><ele>0.0</ele><time>2026-04-29T15:10:07.127Z</time></trkpt><trkpt lat="37.7487761" lon="-0.3330008"><ele>0.0</ele><time>2026-04-29T15:10:09.14Z</time></trkpt><trkpt lat="37.7488995" lon="-0.332945"><ele>0.0</ele><time>2026-04-29T15:10:10.145Z</time></trkpt><trkpt lat="37.7489941" lon="-0.3329093"><ele>0.0</ele><time>2026-04-29T15:10:11.151Z</time></trkpt><trkpt lat="37.7490601" lon="-0.3328093"><ele>0.0</ele><time>2026-04-29T15:10:13.163Z</time></trkpt><trkpt lat="37.7491265" lon="-0.3327337"><ele>0.0</ele><time>2026-04-29T15:10:14.168Z</time></trkpt><trkpt lat="37.7491884" lon="-0.3326682"><ele>0.0</ele><time>2026-04-29T15:10:15.174Z</time></trkpt><trkpt lat="37.749351" lon="-0.3325705"><ele>0.0</ele><time>2026-04-29T15:10:17.087Z</time></trkpt><trkpt lat="37.7494355" lon="-0.3325149"><ele>0.0</ele><time>2026-04-29T15:10:18.093Z</time></trkpt><trkpt lat="37.7495094" lon="-0.3324462"><ele>0.0</ele><time>2026-04-29T15:10:19.099Z</time></trkpt><trkpt lat="37.7495741" lon="-0.3323617"><ele>0.0</ele><time>2026-04-29T15:10:20.104Z</time></trkpt><trkpt lat="37.7496389" lon="-0.3322428"><ele>0.0</ele><time>2026-04-29T15:10:22.115Z</time></trkpt><trkpt lat="37.7497549" lon="-0.3321804"><ele>0.0</ele><time>2026-04-29T15:10:23.122Z</time></trkpt><trkpt lat="37.7498579" lon="-0.3321341"><ele>0.0</ele><time>2026-04-29T15:10:24.127Z</time></trkpt><trkpt lat="37.7499569" lon="-0.3320834"><ele>0.0</ele><time>2026-04-29T15:10:25.134Z</time></trkpt><trkpt lat="37.7500755" lon="-0.332082"><ele>0.0</ele><time>2026-04-29T15:10:26.139Z</time></trkpt><trkpt lat="37.7502918" lon="-0.3320282"><ele>0.0</ele><time>2026-04-29T15:10:28.152Z</time></trkpt><trkpt lat="37.7503979" lon="-0.3319736"><ele>0.0</ele><time>2026-04-29T15:10:29.157Z</time></trkpt><trkpt lat="37.7504975" lon="-0.3319027"><ele>0.0</ele><time>2026-04-29T15:10:30.163Z</time></trkpt><trkpt lat="37.7505971" lon="-0.3318256"><ele>0.0</ele><time>2026-04-29T15:10:31.17Z</time></trkpt><trkpt lat="37.7506417" lon="-0.3317287"><ele>0.0</ele><time>2026-04-29T15:10:33.08Z</time></trkpt><trkpt lat="37.750749" lon="-0.3316586"><ele>0.0</ele><time>2026-04-29T15:10:34.087Z</time></trkpt><trkpt lat="37.7508363" lon="-0.3315924"><ele>0.0</ele><time>2026-04-29T15:10:35.092Z</time></trkpt><trkpt lat="37.7509175" lon="-0.331529"><ele>0.0</ele><time>2026-04-29T15:10:36.099Z</time></trkpt><trkpt lat="37.7510261" lon="-0.3314019"><ele>0.0</ele><time>2026-04-29T15:10:39.116Z</time></trkpt><trkpt lat="37.7511441" lon="-0.3313533"><ele>0.0</ele><time>2026-04-29T15:10:40.121Z</time></trkpt><trkpt lat="37.7512479" lon="-0.3313159"><ele>0.0</ele><time>2026-04-29T15:10:41.127Z</time></trkpt><trkpt lat="37.7513405" lon="-0.3312699"><ele>0.0</ele><time>2026-04-29T15:10:42.133Z</time></trkpt><trkpt lat="37.7514302" lon="-0.3312282"><ele>0.0</ele><time>2026-04-29T15:10:43.139Z</time></trkpt><trkpt lat="37.751506" lon="-0.3311579"><ele>0.0</ele><time>2026-04-29T15:10:44.145Z</time></trkpt><trkpt lat="37.7515686" lon="-0.3310674"><ele>0.0</ele><time>2026-04-29T15:10:45.152Z</time></trkpt><trkpt lat="37.7516364" lon="-0.3309894"><ele>0.0</ele><time>2026-04-29T15:10:46.158Z</time></trkpt><trkpt lat="37.751727" lon="-0.3308992"><ele>0.0</ele><time>2026-04-29T15:10:48.17Z</time></trkpt><trkpt lat="37.751822" lon="-0.3308102"><ele>0.0</ele><time>2026-04-29T15:10:49.175Z</time></trkpt><trkpt lat="37.7519199" lon="-0.3307484"><ele>0.0</ele><time>2026-04-29T15:10:50.181Z</time></trkpt><trkpt lat="37.7520047" lon="-0.3307008"><ele>0.0</ele><time>2026-04-29T15:10:51.086Z</time></trkpt><trkpt lat="37.7520874" lon="-0.3306446"><ele>0.0</ele><time>2026-04-29T15:10:52.093Z</time></trkpt><trkpt lat="37.7521733" lon="-0.3305741"><ele>0.0</ele><time>2026-04-29T15:10:53.099Z</time></trkpt><trkpt lat="37.7522323" lon="-0.3305398"><ele>0.0</ele><time>2026-04-29T15:10:54.079Z</time></trkpt><trkpt lat="37.7522745" lon="-0.3304539"><ele>0.0</ele><time>2026-04-29T15:10:55.11Z</time></trkpt><trkpt lat="37.752382" lon="-0.3303822"><ele>0.0</ele><time>2026-04-29T15:10:56.116Z</time></trkpt><trkpt lat="37.7525643" lon="-0.3303045"><ele>0.0</ele><time>2026-04-29T15:10:58.127Z</time></trkpt><trkpt lat="37.7526511" lon="-0.3302528"><ele>0.0</ele><time>2026-04-29T15:10:59.133Z</time></trkpt><trkpt lat="37.7529771" lon="-0.3300786"><ele>0.0</ele><time>2026-04-29T15:11:03.157Z</time></trkpt><trkpt lat="37.7531297" lon="-0.3300411"><ele>0.0</ele><time>2026-04-29T15:11:04.164Z</time></trkpt><trkpt lat="37.7532337" lon="-0.329984"><ele>0.0</ele><time>2026-04-29T15:11:05.169Z</time></trkpt><trkpt lat="37.7533259" lon="-0.3299433"><ele>0.0</ele><time>2026-04-29T15:11:06.175Z</time></trkpt><trkpt lat="37.753413" lon="-0.3298923"><ele>0.0</ele><time>2026-04-29T15:11:07.181Z</time></trkpt><trkpt lat="37.7535103" lon="-0.3297756"><ele>0.0</ele><time>2026-04-29T15:11:09.08Z</time></trkpt><trkpt lat="37.7535409" lon="-0.3297008"><ele>0.0</ele><time>2026-04-29T15:11:10.098Z</time></trkpt><trkpt lat="37.7536377" lon="-0.329629"><ele>0.0</ele><time>2026-04-29T15:11:11.105Z</time></trkpt><trkpt lat="37.7537166" lon="-0.3295719"><ele>0.0</ele><time>2026-04-29T15:11:12.111Z</time></trkpt><trkpt lat="37.7537905" lon="-0.3295034"><ele>0.0</ele><time>2026-04-29T15:11:13.116Z</time></trkpt><trkpt lat="37.7538677" lon="-0.3294355"><ele>0.0</ele><time>2026-04-29T15:11:14.121Z</time></trkpt><trkpt lat="37.7539505" lon="-0.3293705"><ele>0.0</ele><time>2026-04-29T15:11:15.128Z</time></trkpt><trkpt lat="37.7540268" lon="-0.3292951"><ele>0.0</ele><time>2026-04-29T15:11:16.133Z</time></trkpt><trkpt lat="37.7541015" lon="-0.3292224"><ele>0.0</ele><time>2026-04-29T15:11:17.14Z</time></trkpt><trkpt lat="37.7541794" lon="-0.3291554"><ele>0.0</ele><time>2026-04-29T15:11:18.145Z</time></trkpt><trkpt lat="37.7542548" lon="-0.3290172"><ele>0.0</ele><time>2026-04-29T15:11:20.157Z</time></trkpt><trkpt lat="37.7543397" lon="-0.3289295"><ele>0.0</ele><time>2026-04-29T15:11:21.164Z</time></trkpt><trkpt lat="37.7545036" lon="-0.3288202"><ele>0.0</ele><time>2026-04-29T15:11:23.079Z</time></trkpt><trkpt lat="37.7545951" lon="-0.3287694"><ele>0.0</ele><time>2026-04-29T15:11:24.081Z</time></trkpt><trkpt lat="37.7546915" lon="-0.3287262"><ele>0.0</ele><time>2026-04-29T15:11:25.087Z</time></trkpt><trkpt lat="37.7547475" lon="-0.3286869"><ele>0.0</ele><time>2026-04-29T15:11:26.079Z</time></trkpt><trkpt lat="37.7547893" lon="-0.3286031"><ele>0.0</ele><time>2026-04-29T15:11:27.098Z</time></trkpt><trkpt lat="37.7549079" lon="-0.3285642"><ele>0.0</ele><time>2026-04-29T15:11:28.104Z</time></trkpt><trkpt lat="37.7549987" lon="-0.3285115"><ele>0.0</ele><time>2026-04-29T15:11:29.111Z</time></trkpt><trkpt lat="37.7550786" lon="-0.3284425"><ele>0.0</ele><time>2026-04-29T15:11:30.117Z</time></trkpt><trkpt lat="37.7551562" lon="-0.3283748"><ele>0.0</ele><time>2026-04-29T15:11:31.122Z</time></trkpt><trkpt lat="37.7552447" lon="-0.3282515"><ele>0.0</ele><time>2026-04-29T15:11:33.133Z</time></trkpt><trkpt lat="37.7553577" lon="-0.3281909"><ele>0.0</ele><time>2026-04-29T15:11:34.14Z</time></trkpt><trkpt lat="37.7554588" lon="-0.3281443"><ele>0.0</ele><time>2026-04-29T15:11:35.145Z</time></trkpt><trkpt lat="37.7555514" lon="-0.3280798"><ele>0.0</ele><time>2026-04-29T15:11:36.151Z</time></trkpt><trkpt lat="37.7556308" lon="-0.3279986"><ele>0.0</ele><time>2026-04-29T15:11:37.157Z</time></trkpt><trkpt lat="37.7557171" lon="-0.3279321"><ele>0.0</ele><time>2026-04-29T15:11:38.164Z</time></trkpt><trkpt lat="37.7558091" lon="-0.3277944"><ele>0.0</ele><time>2026-04-29T15:11:40.175Z</time></trkpt><trkpt lat="37.7559362" lon="-0.3277669"><ele>0.0</ele><time>2026-04-29T15:11:41.08Z</time></trkpt><trkpt lat="37.756047" lon="-0.3277373"><ele>0.0</ele><time>2026-04-29T15:11:42.086Z</time></trkpt><trkpt lat="37.756208" lon="-0.3276058"><ele>0.0</ele><time>2026-04-29T15:11:44.099Z</time></trkpt><trkpt lat="37.7562777" lon="-0.3275273"><ele>0.0</ele><time>2026-04-29T15:11:45.105Z</time></trkpt><trkpt lat="37.7563446" lon="-0.3274371"><ele>0.0</ele><time>2026-04-29T15:11:46.111Z</time></trkpt><trkpt lat="37.7564147" lon="-0.3273636"><ele>0.0</ele><time>2026-04-29T15:11:47.116Z</time></trkpt><trkpt lat="37.7564761" lon="-0.3272487"><ele>0.0</ele><time>2026-04-29T15:11:49.128Z</time></trkpt><trkpt lat="37.7565704" lon="-0.3271771"><ele>0.0</ele><time>2026-04-29T15:11:50.134Z</time></trkpt><trkpt lat="37.7566516" lon="-0.3271271"><ele>0.0</ele><time>2026-04-29T15:11:51.14Z</time></trkpt><trkpt lat="37.7567232" lon="-0.3270702"><ele>0.0</ele><time>2026-04-29T15:11:52.145Z</time></trkpt><trkpt lat="37.7567974" lon="-0.3270099"><ele>0.0</ele><time>2026-04-29T15:11:53.151Z</time></trkpt><trkpt lat="37.7568726" lon="-0.3269024"><ele>0.0</ele><time>2026-04-29T15:11:55.163Z</time></trkpt><trkpt lat="37.7569796" lon="-0.3268501"><ele>0.0</ele><time>2026-04-29T15:11:56.17Z</time></trkpt><trkpt lat="37.7570591" lon="-0.3267921"><ele>0.0</ele><time>2026-04-29T15:11:57.08Z</time></trkpt><trkpt lat="37.757133" lon="-0.3267312"><ele>0.0</ele><time>2026-04-29T15:11:58.081Z</time></trkpt><trkpt lat="37.7572297" lon="-0.3266898"><ele>0.0</ele><time>2026-04-29T15:11:59.086Z</time></trkpt><trkpt lat="37.7573288" lon="-0.3266429"><ele>0.0</ele><time>2026-04-29T15:12:00.092Z</time></trkpt><trkpt lat="37.7574207" lon="-0.3265968"><ele>0.0</ele><time>2026-04-29T15:12:01.098Z</time></trkpt><trkpt lat="37.7574976" lon="-0.3265289"><ele>0.0</ele><time>2026-04-29T15:12:02.104Z</time></trkpt><trkpt lat="37.757574" lon="-0.3264596"><ele>0.0</ele><time>2026-04-29T15:12:03.11Z</time></trkpt><trkpt lat="37.7577262" lon="-0.3263098"><ele>0.0</ele><time>2026-04-29T15:12:05.123Z</time></trkpt><trkpt lat="37.757827" lon="-0.3261708"><ele>0.0</ele><time>2026-04-29T15:12:07.134Z</time></trkpt><trkpt lat="37.7579362" lon="-0.3260888"><ele>0.0</ele><time>2026-04-29T15:12:08.141Z</time></trkpt><trkpt lat="37.7580466" lon="-0.3260435"><ele>0.0</ele><time>2026-04-29T15:12:09.146Z</time></trkpt><trkpt lat="37.7581378" lon="-0.3259767"><ele>0.0</ele><time>2026-04-29T15:12:10.152Z</time></trkpt><trkpt lat="37.7582224" lon="-0.3258913"><ele>0.0</ele><time>2026-04-29T15:12:11.158Z</time></trkpt><trkpt lat="37.7583226" lon="-0.3258544"><ele>0.0</ele><time>2026-04-29T15:12:12.164Z</time></trkpt><trkpt lat="37.7583234" lon="-0.3257581"><ele>0.0</ele><time>2026-04-29T15:12:14.175Z</time></trkpt><trkpt lat="37.7584561" lon="-0.3256765"><ele>0.0</ele><time>2026-04-29T15:12:15.182Z</time></trkpt><trkpt lat="37.7585614" lon="-0.3256379"><ele>0.0</ele><time>2026-04-29T15:12:16.087Z</time></trkpt><trkpt lat="37.758651" lon="-0.3256016"><ele>0.0</ele><time>2026-04-29T15:12:17.092Z</time></trkpt><trkpt lat="37.7587396" lon="-0.325553"><ele>0.0</ele><time>2026-04-29T15:12:18.098Z</time></trkpt><trkpt lat="37.7588249" lon="-0.3254865"><ele>0.0</ele><time>2026-04-29T15:12:19.104Z</time></trkpt><trkpt lat="37.7589231" lon="-0.3254677"><ele>0.0</ele><time>2026-04-29T15:12:20.111Z</time></trkpt><trkpt lat="37.759103" lon="-0.3254345"><ele>0.0</ele><time>2026-04-29T15:12:22.122Z</time></trkpt><trkpt lat="37.7591682" lon="-0.3253289"><ele>0.0</ele><time>2026-04-29T15:12:23.128Z</time></trkpt><trkpt lat="37.7592157" lon="-0.3252727"><ele>0.0</ele><time>2026-04-29T15:12:24.08Z</time></trkpt><trkpt lat="37.7592497" lon="-0.3251883"><ele>0.0</ele><time>2026-04-29T15:12:25.141Z</time></trkpt><trkpt lat="37.7593526" lon="-0.3251025"><ele>0.0</ele><time>2026-04-29T15:12:26.147Z</time></trkpt><trkpt lat="37.7595385" lon="-0.3249957"><ele>0.0</ele><time>2026-04-29T15:12:28.158Z</time></trkpt><trkpt lat="37.7596289" lon="-0.3249537"><ele>0.0</ele><time>2026-04-29T15:12:29.164Z</time></trkpt><trkpt lat="37.7597395" lon="-0.3248532"><ele>0.0</ele><time>2026-04-29T15:12:31.079Z</time></trkpt><trkpt lat="37.7598142" lon="-0.3247877"><ele>0.0</ele><time>2026-04-29T15:12:32.082Z</time></trkpt><trkpt lat="37.759904" lon="-0.3247413"><ele>0.0</ele><time>2026-04-29T15:12:33.087Z</time></trkpt><trkpt lat="37.7599903" lon="-0.3246891"><ele>0.0</ele><time>2026-04-29T15:12:34.094Z</time></trkpt><trkpt lat="37.7600685" lon="-0.3246215"><ele>0.0</ele><time>2026-04-29T15:12:35.1Z</time></trkpt><trkpt lat="37.7602235" lon="-0.3244647"><ele>0.0</ele><time>2026-04-29T15:12:37.111Z</time></trkpt><trkpt lat="37.7603068" lon="-0.3244041"><ele>0.0</ele><time>2026-04-29T15:12:38.116Z</time></trkpt><trkpt lat="37.7603979" lon="-0.3243693"><ele>0.0</ele><time>2026-04-29T15:12:39.122Z</time></trkpt><trkpt lat="37.7604865" lon="-0.3242438"><ele>0.0</ele><time>2026-04-29T15:12:41.135Z</time></trkpt><trkpt lat="37.7606221" lon="-0.3242151"><ele>0.0</ele><time>2026-04-29T15:12:42.141Z</time></trkpt><trkpt lat="37.7607274" lon="-0.3242096"><ele>0.0</ele><time>2026-04-29T15:12:43.146Z</time></trkpt><trkpt lat="37.7608205" lon="-0.3241722"><ele>0.0</ele><time>2026-04-29T15:12:44.152Z</time></trkpt><trkpt lat="37.760895" lon="-0.3240887"><ele>0.0</ele><time>2026-04-29T15:12:45.158Z</time></trkpt><trkpt lat="37.7609638" lon="-0.3240124"><ele>0.0</ele><time>2026-04-29T15:12:46.165Z</time></trkpt><trkpt lat="37.7610553" lon="-0.3238905"><ele>0.0</ele><time>2026-04-29T15:12:48.176Z</time></trkpt><trkpt lat="37.7612533" lon="-0.3237968"><ele>0.0</ele><time>2026-04-29T15:12:50.087Z</time></trkpt><trkpt lat="37.7613371" lon="-0.3237527"><ele>0.0</ele><time>2026-04-29T15:12:51.093Z</time></trkpt><trkpt lat="37.7614131" lon="-0.3237096"><ele>0.0</ele><time>2026-04-29T15:12:52.099Z</time></trkpt><trkpt lat="37.7614823" lon="-0.3236582"><ele>0.0</ele><time>2026-04-29T15:12:53.105Z</time></trkpt><trkpt lat="37.7615506" lon="-0.3235843"><ele>0.0</ele><time>2026-04-29T15:12:54.111Z</time></trkpt><trkpt lat="37.7616254" lon="-0.3235168"><ele>0.0</ele><time>2026-04-29T15:12:55.117Z</time></trkpt><trkpt lat="37.7618407" lon="-0.3233691"><ele>0.0</ele><time>2026-04-29T15:12:58.134Z</time></trkpt><trkpt lat="37.761949" lon="-0.3233395"><ele>0.0</ele><time>2026-04-29T15:12:59.14Z</time></trkpt><trkpt lat="37.7620372" lon="-0.3232842"><ele>0.0</ele><time>2026-04-29T15:13:00.146Z</time></trkpt><trkpt lat="37.7621399" lon="-0.3232538"><ele>0.0</ele><time>2026-04-29T15:13:01.152Z</time></trkpt><trkpt lat="37.7622278" lon="-0.3232034"><ele>0.0</ele><time>2026-04-29T15:13:02.158Z</time></trkpt><trkpt lat="37.7623831" lon="-0.3230268"><ele>0.0</ele><time>2026-04-29T15:13:04.171Z</time></trkpt><trkpt lat="37.7624585" lon="-0.3229697"><ele>0.0</ele><time>2026-04-29T15:13:05.08Z</time></trkpt><trkpt lat="37.7625397" lon="-0.3229185"><ele>0.0</ele><time>2026-04-29T15:13:06.082Z</time></trkpt><trkpt lat="37.7626133" lon="-0.3227988"><ele>0.0</ele><time>2026-04-29T15:13:08.093Z</time></trkpt><trkpt lat="37.7628021" lon="-0.3226711"><ele>0.0</ele><time>2026-04-29T15:13:10.106Z</time></trkpt><trkpt lat="37.7629629" lon="-0.3225271"><ele>0.0</ele><time>2026-04-29T15:13:12.118Z</time></trkpt><trkpt lat="37.7630611" lon="-0.3224117"><ele>0.0</ele><time>2026-04-29T15:13:14.13Z</time></trkpt><trkpt lat="37.7631687" lon="-0.3223421"><ele>0.0</ele><time>2026-04-29T15:13:15.135Z</time></trkpt><trkpt lat="37.7632534" lon="-0.3222992"><ele>0.0</ele><time>2026-04-29T15:13:16.142Z</time></trkpt><trkpt lat="37.7633298" lon="-0.3222597"><ele>0.0</ele><time>2026-04-29T15:13:17.147Z</time></trkpt><trkpt lat="37.7633964" lon="-0.3221947"><ele>0.0</ele><time>2026-04-29T15:13:18.152Z</time></trkpt><trkpt lat="37.7634726" lon="-0.3221281"><ele>0.0</ele><time>2026-04-29T15:13:19.158Z</time></trkpt><trkpt lat="37.7635621" lon="-0.3220684"><ele>0.0</ele><time>2026-04-29T15:13:20.165Z</time></trkpt><trkpt lat="37.7636624" lon="-0.321947"><ele>0.0</ele><time>2026-04-29T15:13:22.176Z</time></trkpt><trkpt lat="37.7637707" lon="-0.3218929"><ele>0.0</ele><time>2026-04-29T15:13:23.082Z</time></trkpt><trkpt lat="37.7638668" lon="-0.3218552"><ele>0.0</ele><time>2026-04-29T15:13:24.088Z</time></trkpt><trkpt lat="37.7639566" lon="-0.3218084"><ele>0.0</ele><time>2026-04-29T15:13:25.094Z</time></trkpt><trkpt lat="37.7640642" lon="-0.3217904"><ele>0.0</ele><time>2026-04-29T15:13:26.099Z</time></trkpt><trkpt lat="37.7641693" lon="-0.3217392"><ele>0.0</ele><time>2026-04-29T15:13:27.106Z</time></trkpt><trkpt lat="37.7642636" lon="-0.321665"><ele>0.0</ele><time>2026-04-29T15:13:28.112Z</time></trkpt><trkpt lat="37.7643195" lon="-0.3216095"><ele>0.0</ele><time>2026-04-29T15:13:29.08Z</time></trkpt><trkpt lat="37.7643685" lon="-0.3215172"><ele>0.0</ele><time>2026-04-29T15:13:30.124Z</time></trkpt><trkpt lat="37.7645404" lon="-0.3213436"><ele>0.0</ele><time>2026-04-29T15:13:32.135Z</time></trkpt><trkpt lat="37.7646353" lon="-0.3212675"><ele>0.0</ele><time>2026-04-29T15:13:34.147Z</time></trkpt><trkpt lat="37.7647573" lon="-0.3212347"><ele>0.0</ele><time>2026-04-29T15:13:35.153Z</time></trkpt><trkpt lat="37.7648591" lon="-0.321226"><ele>0.0</ele><time>2026-04-29T15:13:36.159Z</time></trkpt><trkpt lat="37.764955" lon="-0.3211965"><ele>0.0</ele><time>2026-04-29T15:13:37.164Z</time></trkpt><trkpt lat="37.7650387" lon="-0.3211293"><ele>0.0</ele><time>2026-04-29T15:13:38.17Z</time></trkpt><trkpt lat="37.7651197" lon="-0.3210524"><ele>0.0</ele><time>2026-04-29T15:13:39.176Z</time></trkpt><trkpt lat="37.7651967" lon="-0.3209767"><ele>0.0</ele><time>2026-04-29T15:13:40.082Z</time></trkpt><trkpt lat="37.7652833" lon="-0.3209092"><ele>0.0</ele><time>2026-04-29T15:13:41.088Z</time></trkpt><trkpt lat="37.7653529" lon="-0.3208532"><ele>0.0</ele><time>2026-04-29T15:13:43.099Z</time></trkpt><trkpt lat="37.7654603" lon="-0.3207879"><ele>0.0</ele><time>2026-04-29T15:13:44.105Z</time></trkpt><trkpt lat="37.765637" lon="-0.3206586"><ele>0.0</ele><time>2026-04-29T15:13:46.117Z</time></trkpt><trkpt lat="37.765713" lon="-0.3205788"><ele>0.0</ele><time>2026-04-29T15:13:47.123Z</time></trkpt><trkpt lat="37.7657859" lon="-0.3204959"><ele>0.0</ele><time>2026-04-29T15:13:48.13Z</time></trkpt><trkpt lat="37.7658546" lon="-0.3204105"><ele>0.0</ele><time>2026-04-29T15:13:49.136Z</time></trkpt><trkpt lat="37.7659347" lon="-0.3203375"><ele>0.0</ele><time>2026-04-29T15:13:50.141Z</time></trkpt><trkpt lat="37.7660154" lon="-0.3202639"><ele>0.0</ele><time>2026-04-29T15:13:51.147Z</time></trkpt><trkpt lat="37.766206" lon="-0.320077"><ele>0.0</ele><time>2026-04-29T15:13:54.166Z</time></trkpt><trkpt lat="37.766283" lon="-0.3200092"><ele>0.0</ele><time>2026-04-29T15:13:55.171Z</time></trkpt><trkpt lat="37.7663475" lon="-0.3199298"><ele>0.0</ele><time>2026-04-29T15:13:56.177Z</time></trkpt><trkpt lat="37.7664905" lon="-0.3197833"><ele>0.0</ele><time>2026-04-29T15:13:58.089Z</time></trkpt><trkpt lat="37.7665835" lon="-0.3197373"><ele>0.0</ele><time>2026-04-29T15:13:59.094Z</time></trkpt><trkpt lat="37.7666688" lon="-0.3196848"><ele>0.0</ele><time>2026-04-29T15:14:00.1Z</time></trkpt><trkpt lat="37.7667445" lon="-0.3195964"><ele>0.0</ele><time>2026-04-29T15:14:01.106Z</time></trkpt><trkpt lat="37.7668192" lon="-0.3195113"><ele>0.0</ele><time>2026-04-29T15:14:02.112Z</time></trkpt><trkpt lat="37.7668978" lon="-0.3193905"><ele>0.0</ele><time>2026-04-29T15:14:04.123Z</time></trkpt><trkpt lat="37.7670346" lon="-0.3193607"><ele>0.0</ele><time>2026-04-29T15:14:05.129Z</time></trkpt><trkpt lat="37.7671436" lon="-0.3193504"><ele>0.0</ele><time>2026-04-29T15:14:06.135Z</time></trkpt><trkpt lat="37.767231" lon="-0.3192852"><ele>0.0</ele><time>2026-04-29T15:14:07.141Z</time></trkpt><trkpt lat="37.7673145" lon="-0.3192116"><ele>0.0</ele><time>2026-04-29T15:14:08.147Z</time></trkpt><trkpt lat="37.7673943" lon="-0.3191137"><ele>0.0</ele><time>2026-04-29T15:14:09.153Z</time></trkpt><trkpt lat="37.7674819" lon="-0.3189777"><ele>0.0</ele><time>2026-04-29T15:14:11.166Z</time></trkpt><trkpt lat="37.7675957" lon="-0.3189111"><ele>0.0</ele><time>2026-04-29T15:14:12.171Z</time></trkpt><trkpt lat="37.7676795" lon="-0.3188809"><ele>0.0</ele><time>2026-04-29T15:14:13.08Z</time></trkpt><trkpt lat="37.7679081" lon="-0.318676"><ele>0.0</ele><time>2026-04-29T15:14:16.095Z</time></trkpt><trkpt lat="37.7680002" lon="-0.3185707"><ele>0.0</ele><time>2026-04-29T15:14:18.107Z</time></trkpt><trkpt lat="37.7681011" lon="-0.3185023"><ele>0.0</ele><time>2026-04-29T15:14:19.112Z</time></trkpt><trkpt lat="37.7681816" lon="-0.318452"><ele>0.0</ele><time>2026-04-29T15:14:20.118Z</time></trkpt><trkpt lat="37.7682554" lon="-0.3183887"><ele>0.0</ele><time>2026-04-29T15:14:21.124Z</time></trkpt><trkpt lat="37.7683839" lon="-0.3182592"><ele>0.0</ele><time>2026-04-29T15:14:24.142Z</time></trkpt><trkpt lat="37.7684506" lon="-0.3181669"><ele>0.0</ele><time>2026-04-29T15:14:25.148Z</time></trkpt><trkpt lat="37.7685242" lon="-0.3180889"><ele>0.0</ele><time>2026-04-29T15:14:26.153Z</time></trkpt><trkpt lat="37.7686915" lon="-0.3179662"><ele>0.0</ele><time>2026-04-29T15:14:28.166Z</time></trkpt><trkpt lat="37.768778" lon="-0.3179169"><ele>0.0</ele><time>2026-04-29T15:14:29.172Z</time></trkpt><trkpt lat="37.7688595" lon="-0.3178688"><ele>0.0</ele><time>2026-04-29T15:14:30.178Z</time></trkpt><trkpt lat="37.7689329" lon="-0.3178151"><ele>0.0</ele><time>2026-04-29T15:14:31.082Z</time></trkpt><trkpt lat="37.7690991" lon="-0.3176723"><ele>0.0</ele><time>2026-04-29T15:14:33.095Z</time></trkpt><trkpt lat="37.7691899" lon="-0.3176279"><ele>0.0</ele><time>2026-04-29T15:14:34.1Z</time></trkpt><trkpt lat="37.7692787" lon="-0.3175756"><ele>0.0</ele><time>2026-04-29T15:14:35.106Z</time></trkpt><trkpt lat="37.7694266" lon="-0.3174221"><ele>0.0</ele><time>2026-04-29T15:14:38.124Z</time></trkpt><trkpt lat="37.7695651" lon="-0.3173365"><ele>0.0</ele><time>2026-04-29T15:14:39.131Z</time></trkpt><trkpt lat="37.7696531" lon="-0.3172722"><ele>0.0</ele><time>2026-04-29T15:14:40.136Z</time></trkpt><trkpt lat="37.7697163" lon="-0.3172249"><ele>0.0</ele><time>2026-04-29T15:14:41.142Z</time></trkpt><trkpt lat="37.7697918" lon="-0.3171794"><ele>0.0</ele><time>2026-04-29T15:14:42.148Z</time></trkpt><trkpt lat="37.769875" lon="-0.31711"><ele>0.0</ele><time>2026-04-29T15:14:43.155Z</time></trkpt><trkpt lat="37.7699505" lon="-0.3170798"><ele>0.0</ele><time>2026-04-29T15:14:44.078Z</time></trkpt><trkpt lat="37.7699959" lon="-0.3169934"><ele>0.0</ele><time>2026-04-29T15:14:45.167Z</time></trkpt><trkpt lat="37.7701177" lon="-0.3169472"><ele>0.0</ele><time>2026-04-29T15:14:46.172Z</time></trkpt><trkpt lat="37.7702751" lon="-0.3168628"><ele>0.0</ele><time>2026-04-29T15:14:48.083Z</time></trkpt><trkpt lat="37.7703569" lon="-0.316804"><ele>0.0</ele><time>2026-04-29T15:14:49.09Z</time></trkpt><trkpt lat="37.7704435" lon="-0.3167388"><ele>0.0</ele><time>2026-04-29T15:14:50.095Z</time></trkpt><trkpt lat="37.770513" lon="-0.3166845"><ele>0.0</ele><time>2026-04-29T15:14:51.079Z</time></trkpt><trkpt lat="37.7705535" lon="-0.316599"><ele>0.0</ele><time>2026-04-29T15:14:52.108Z</time></trkpt><trkpt lat="37.7706988" lon="-0.3165595"><ele>0.0</ele><time>2026-04-29T15:14:53.114Z</time></trkpt><trkpt lat="37.7708189" lon="-0.316532"><ele>0.0</ele><time>2026-04-29T15:14:54.12Z</time></trkpt><trkpt lat="37.7709152" lon="-0.3164768"><ele>0.0</ele><time>2026-04-29T15:14:55.126Z</time></trkpt><trkpt lat="37.7709986" lon="-0.3163427"><ele>0.0</ele><time>2026-04-29T15:14:57.137Z</time></trkpt><trkpt lat="37.7711956" lon="-0.3162259"><ele>0.0</ele><time>2026-04-29T15:14:59.149Z</time></trkpt><trkpt lat="37.7712716" lon="-0.316162"><ele>0.0</ele><time>2026-04-29T15:15:00.155Z</time></trkpt><trkpt lat="37.7713663" lon="-0.31605"><ele>0.0</ele><time>2026-04-29T15:15:02.079Z</time></trkpt><trkpt lat="37.7714228" lon="-0.3159783"><ele>0.0</ele><time>2026-04-29T15:15:03.078Z</time></trkpt><trkpt lat="37.7714883" lon="-0.3158999"><ele>0.0</ele><time>2026-04-29T15:15:04.179Z</time></trkpt><trkpt lat="37.7715623" lon="-0.3158272"><ele>0.0</ele><time>2026-04-29T15:15:05.083Z</time></trkpt><trkpt lat="37.7716364" lon="-0.3157477"><ele>0.0</ele><time>2026-04-29T15:15:06.089Z</time></trkpt><trkpt lat="37.7717136" lon="-0.3156776"><ele>0.0</ele><time>2026-04-29T15:15:07.096Z</time></trkpt><trkpt lat="37.7717783" lon="-0.3155899"><ele>0.0</ele><time>2026-04-29T15:15:08.101Z</time></trkpt><trkpt lat="37.7719655" lon="-0.3155231"><ele>0.0</ele><time>2026-04-29T15:15:10.113Z</time></trkpt><trkpt lat="37.7720314" lon="-0.3155176"><ele>0.0</ele><time>2026-04-29T15:15:11.078Z</time></trkpt><trkpt lat="37.7720736" lon="-0.315432"><ele>0.0</ele><time>2026-04-29T15:15:12.125Z</time></trkpt><trkpt lat="37.7721753" lon="-0.3153594"><ele>0.0</ele><time>2026-04-29T15:15:13.131Z</time></trkpt><trkpt lat="37.7722653" lon="-0.3153006"><ele>0.0</ele><time>2026-04-29T15:15:14.137Z</time></trkpt><trkpt lat="37.7723607" lon="-0.3152579"><ele>0.0</ele><time>2026-04-29T15:15:15.143Z</time></trkpt><trkpt lat="37.7724358" lon="-0.3152039"><ele>0.0</ele><time>2026-04-29T15:15:16.15Z</time></trkpt><trkpt lat="37.7724987" lon="-0.3151301"><ele>0.0</ele><time>2026-04-29T15:15:17.156Z</time></trkpt><trkpt lat="37.7725767" lon="-0.3150717"><ele>0.0</ele><time>2026-04-29T15:15:18.161Z</time></trkpt><trkpt lat="37.7726349" lon="-0.3150346"><ele>0.0</ele><time>2026-04-29T15:15:19.078Z</time></trkpt><trkpt lat="37.7728981" lon="-0.314896"><ele>0.0</ele><time>2026-04-29T15:15:22.084Z</time></trkpt><trkpt lat="37.7729819" lon="-0.3148263"><ele>0.0</ele><time>2026-04-29T15:15:23.091Z</time></trkpt><trkpt lat="37.7730646" lon="-0.314745"><ele>0.0</ele><time>2026-04-29T15:15:24.095Z</time></trkpt><trkpt lat="37.7731368" lon="-0.3146589"><ele>0.0</ele><time>2026-04-29T15:15:25.102Z</time></trkpt><trkpt lat="37.7732135" lon="-0.3145875"><ele>0.0</ele><time>2026-04-29T15:15:26.107Z</time></trkpt><trkpt lat="37.7733846" lon="-0.3145098"><ele>0.0</ele><time>2026-04-29T15:15:29.126Z</time></trkpt><trkpt lat="37.7734837" lon="-0.3143959"><ele>0.0</ele><time>2026-04-29T15:15:30.132Z</time></trkpt><trkpt lat="37.7735818" lon="-0.314317"><ele>0.0</ele><time>2026-04-29T15:15:31.138Z</time></trkpt><trkpt lat="37.7736689" lon="-0.3142591"><ele>0.0</ele><time>2026-04-29T15:15:32.143Z</time></trkpt><trkpt lat="37.7738206" lon="-0.3141265"><ele>0.0</ele><time>2026-04-29T15:15:35.162Z</time></trkpt><trkpt lat="37.773899" lon="-0.3140387"><ele>0.0</ele><time>2026-04-29T15:15:36.168Z</time></trkpt><trkpt lat="37.7739867" lon="-0.3139851"><ele>0.0</ele><time>2026-04-29T15:15:37.174Z</time></trkpt><trkpt lat="37.7741634" lon="-0.3139091"><ele>0.0</ele><time>2026-04-29T15:15:39.085Z</time></trkpt><trkpt lat="37.7742545" lon="-0.3138511"><ele>0.0</ele><time>2026-04-29T15:15:40.09Z</time></trkpt><trkpt lat="37.7743542" lon="-0.313804"><ele>0.0</ele><time>2026-04-29T15:15:41.096Z</time></trkpt><trkpt lat="37.7745743" lon="-0.3135824"><ele>0.0</ele><time>2026-04-29T15:15:44.114Z</time></trkpt><trkpt lat="37.7746608" lon="-0.3135288"><ele>0.0</ele><time>2026-04-29T15:15:45.121Z</time></trkpt><trkpt lat="37.7747456" lon="-0.3134696"><ele>0.0</ele><time>2026-04-29T15:15:46.126Z</time></trkpt><trkpt lat="37.7748308" lon="-0.3134176"><ele>0.0</ele><time>2026-04-29T15:15:47.132Z</time></trkpt><trkpt lat="37.774911" lon="-0.3133446"><ele>0.0</ele><time>2026-04-29T15:15:48.138Z</time></trkpt><trkpt lat="37.7749521" lon="-0.3132446"><ele>0.0</ele><time>2026-04-29T15:15:50.149Z</time></trkpt><trkpt lat="37.7750771" lon="-0.3131478"><ele>0.0</ele><time>2026-04-29T15:15:51.155Z</time></trkpt><trkpt lat="37.7752546" lon="-0.3130287"><ele>0.0</ele><time>2026-04-29T15:15:53.168Z</time></trkpt><trkpt lat="37.7753522" lon="-0.3129879"><ele>0.0</ele><time>2026-04-29T15:15:54.173Z</time></trkpt><trkpt lat="37.7754373" lon="-0.3129205"><ele>0.0</ele><time>2026-04-29T15:15:55.179Z</time></trkpt><trkpt lat="37.7755053" lon="-0.3128468"><ele>0.0</ele><time>2026-04-29T15:15:56.086Z</time></trkpt><trkpt lat="37.7755849" lon="-0.3127013"><ele>0.0</ele><time>2026-04-29T15:15:58.096Z</time></trkpt><trkpt lat="37.7756979" lon="-0.3126483"><ele>0.0</ele><time>2026-04-29T15:15:59.102Z</time></trkpt><trkpt lat="37.7758559" lon="-0.3125115"><ele>0.0</ele><time>2026-04-29T15:16:01.114Z</time></trkpt><trkpt lat="37.7759334" lon="-0.312438"><ele>0.0</ele><time>2026-04-29T15:16:02.12Z</time></trkpt><trkpt lat="37.776209" lon="-0.3121498"><ele>0.0</ele><time>2026-04-29T15:16:06.145Z</time></trkpt><trkpt lat="37.7762968" lon="-0.3120869"><ele>0.0</ele><time>2026-04-29T15:16:07.151Z</time></trkpt><trkpt lat="37.7763517" lon="-0.3120402"><ele>0.0</ele><time>2026-04-29T15:16:08.078Z</time></trkpt><trkpt lat="37.7763912" lon="-0.3119544"><ele>0.0</ele><time>2026-04-29T15:16:09.162Z</time></trkpt><trkpt lat="37.7765761" lon="-0.3118331"><ele>0.0</ele><time>2026-04-29T15:16:11.174Z</time></trkpt><trkpt lat="37.7766499" lon="-0.3117934"><ele>0.0</ele><time>2026-04-29T15:16:12.079Z</time></trkpt><trkpt lat="37.7767374" lon="-0.3117519"><ele>0.0</ele><time>2026-04-29T15:16:13.186Z</time></trkpt><trkpt lat="37.7769013" lon="-0.3116423"><ele>0.0</ele><time>2026-04-29T15:16:15.097Z</time></trkpt><trkpt lat="37.776942" lon="-0.3115636"><ele>0.0</ele><time>2026-04-29T15:16:17.11Z</time></trkpt><trkpt lat="37.7770432" lon="-0.3115155"><ele>0.0</ele><time>2026-04-29T15:16:18.116Z</time></trkpt><trkpt lat="37.7771226" lon="-0.3114324"><ele>0.0</ele><time>2026-04-29T15:16:19.121Z</time></trkpt><trkpt lat="37.7772262" lon="-0.3113925"><ele>0.0</ele><time>2026-04-29T15:16:20.128Z</time></trkpt><trkpt lat="37.7773292" lon="-0.3113472"><ele>0.0</ele><time>2026-04-29T15:16:21.134Z</time></trkpt><trkpt lat="37.7774234" lon="-0.311284"><ele>0.0</ele><time>2026-04-29T15:16:22.14Z</time></trkpt><trkpt lat="37.7775161" lon="-0.3112157"><ele>0.0</ele><time>2026-04-29T15:16:23.145Z</time></trkpt><trkpt lat="37.777606" lon="-0.3111532"><ele>0.0</ele><time>2026-04-29T15:16:24.151Z</time></trkpt><trkpt lat="37.7777451" lon="-0.3110455"><ele>0.0</ele><time>2026-04-29T15:16:26.079Z</time></trkpt><trkpt lat="37.7778734" lon="-0.3108742"><ele>0.0</ele><time>2026-04-29T15:16:28.176Z</time></trkpt><trkpt lat="37.7780152" lon="-0.3107309"><ele>0.0</ele><time>2026-04-29T15:16:30.086Z</time></trkpt><trkpt lat="37.7780829" lon="-0.3106594"><ele>0.0</ele><time>2026-04-29T15:16:31.092Z</time></trkpt><trkpt lat="37.7781492" lon="-0.3105836"><ele>0.0</ele><time>2026-04-29T15:16:32.098Z</time></trkpt><trkpt lat="37.7782138" lon="-0.3105003"><ele>0.0</ele><time>2026-04-29T15:16:33.104Z</time></trkpt><trkpt lat="37.7782955" lon="-0.310441"><ele>0.0</ele><time>2026-04-29T15:16:34.11Z</time></trkpt><trkpt lat="37.7783547" lon="-0.3104059"><ele>0.0</ele><time>2026-04-29T15:16:35.078Z</time></trkpt><trkpt lat="37.778485" lon="-0.3102406"><ele>0.0</ele><time>2026-04-29T15:16:37.129Z</time></trkpt><trkpt lat="37.7785835" lon="-0.3101787"><ele>0.0</ele><time>2026-04-29T15:16:38.134Z</time></trkpt><trkpt lat="37.77866" lon="-0.310081"><ele>0.0</ele><time>2026-04-29T15:16:39.14Z</time></trkpt><trkpt lat="37.7787343" lon="-0.3100057"><ele>0.0</ele><time>2026-04-29T15:16:40.145Z</time></trkpt><trkpt lat="37.7788956" lon="-0.309862"><ele>0.0</ele><time>2026-04-29T15:16:42.157Z</time></trkpt><trkpt lat="37.7789739" lon="-0.309783"><ele>0.0</ele><time>2026-04-29T15:16:43.163Z</time></trkpt><trkpt lat="37.7790497" lon="-0.309663"><ele>0.0</ele><time>2026-04-29T15:16:45.175Z</time></trkpt><trkpt lat="37.7791429" lon="-0.3095865"><ele>0.0</ele><time>2026-04-29T15:16:46.081Z</time></trkpt><trkpt lat="37.7792277" lon="-0.3095248"><ele>0.0</ele><time>2026-04-29T15:16:47.087Z</time></trkpt><trkpt lat="37.7794309" lon="-0.3092641"><ele>0.0</ele><time>2026-04-29T15:16:50.105Z</time></trkpt><trkpt lat="37.7794901" lon="-0.3091594"><ele>0.0</ele><time>2026-04-29T15:16:52.116Z</time></trkpt><trkpt lat="37.7796732" lon="-0.3090074"><ele>0.0</ele><time>2026-04-29T15:16:54.128Z</time></trkpt><trkpt lat="37.7797767" lon="-0.3089722"><ele>0.0</ele><time>2026-04-29T15:16:55.134Z</time></trkpt><trkpt lat="37.7798735" lon="-0.3089263"><ele>0.0</ele><time>2026-04-29T15:16:56.14Z</time></trkpt><trkpt lat="37.7799659" lon="-0.3088787"><ele>0.0</ele><time>2026-04-29T15:16:57.146Z</time></trkpt><trkpt lat="37.7801335" lon="-0.3087723"><ele>0.0</ele><time>2026-04-29T15:16:59.158Z</time></trkpt><trkpt lat="37.7802156" lon="-0.3087161"><ele>0.0</ele><time>2026-04-29T15:17:00.165Z</time></trkpt><trkpt lat="37.7801741" lon="-0.3086425"><ele>0.0</ele><time>2026-04-29T15:17:02.176Z</time></trkpt><trkpt lat="37.7802634" lon="-0.3086052"><ele>0.0</ele><time>2026-04-29T15:17:03.081Z</time></trkpt><trkpt lat="37.780445" lon="-0.3085444"><ele>0.0</ele><time>2026-04-29T15:17:04.087Z</time></trkpt><trkpt lat="37.780548" lon="-0.3084629"><ele>0.0</ele><time>2026-04-29T15:17:05.093Z</time></trkpt><trkpt lat="37.7806438" lon="-0.3083896"><ele>0.0</ele><time>2026-04-29T15:17:06.099Z</time></trkpt><trkpt lat="37.7808293" lon="-0.3082707"><ele>0.0</ele><time>2026-04-29T15:17:08.112Z</time></trkpt><trkpt lat="37.780985" lon="-0.308071"><ele>0.0</ele><time>2026-04-29T15:17:11.129Z</time></trkpt><trkpt lat="37.7810984" lon="-0.3080239"><ele>0.0</ele><time>2026-04-29T15:17:12.136Z</time></trkpt><trkpt lat="37.7812595" lon="-0.3079033"><ele>0.0</ele><time>2026-04-29T15:17:14.148Z</time></trkpt><trkpt lat="37.7813381" lon="-0.3078255"><ele>0.0</ele><time>2026-04-29T15:17:15.154Z</time></trkpt><trkpt lat="37.7814206" lon="-0.3077563"><ele>0.0</ele><time>2026-04-29T15:17:16.16Z</time></trkpt><trkpt lat="37.7815042" lon="-0.3076963"><ele>0.0</ele><time>2026-04-29T15:17:17.165Z</time></trkpt><trkpt lat="37.7815783" lon="-0.3076267"><ele>0.0</ele><time>2026-04-29T15:17:18.078Z</time></trkpt><trkpt lat="37.7816499" lon="-0.3075403"><ele>0.0</ele><time>2026-04-29T15:17:19.078Z</time></trkpt><trkpt lat="37.7817637" lon="-0.3073617"><ele>0.0</ele><time>2026-04-29T15:17:22.094Z</time></trkpt><trkpt lat="37.7818935" lon="-0.3073101"><ele>0.0</ele><time>2026-04-29T15:17:23.101Z</time></trkpt><trkpt lat="37.7820038" lon="-0.3072641"><ele>0.0</ele><time>2026-04-29T15:17:24.107Z</time></trkpt><trkpt lat="37.7821006" lon="-0.3072011"><ele>0.0</ele><time>2026-04-29T15:17:25.112Z</time></trkpt><trkpt lat="37.7821687" lon="-0.3070585"><ele>0.0</ele><time>2026-04-29T15:17:27.123Z</time></trkpt><trkpt lat="37.7823609" lon="-0.3069589"><ele>0.0</ele><time>2026-04-29T15:17:29.135Z</time></trkpt><trkpt lat="37.7826261" lon="-0.306779"><ele>0.0</ele><time>2026-04-29T15:17:32.153Z</time></trkpt><trkpt lat="37.7827035" lon="-0.306692"><ele>0.0</ele><time>2026-04-29T15:17:33.159Z</time></trkpt><trkpt lat="37.7828293" lon="-0.3066216"><ele>0.0</ele><time>2026-04-29T15:17:35.078Z</time></trkpt><trkpt lat="37.7828854" lon="-0.3065497"><ele>0.0</ele><time>2026-04-29T15:17:36.078Z</time></trkpt><trkpt lat="37.7829556" lon="-0.3064802"><ele>0.0</ele><time>2026-04-29T15:17:37.184Z</time></trkpt><trkpt lat="37.783028" lon="-0.3064116"><ele>0.0</ele><time>2026-04-29T15:17:38.088Z</time></trkpt><trkpt lat="37.7830988" lon="-0.306341"><ele>0.0</ele><time>2026-04-29T15:17:39.094Z</time></trkpt><trkpt lat="37.78317" lon="-0.3062724"><ele>0.0</ele><time>2026-04-29T15:17:40.1Z</time></trkpt><trkpt lat="37.7832378" lon="-0.306193"><ele>0.0</ele><time>2026-04-29T15:17:41.107Z</time></trkpt><trkpt lat="37.7833961" lon="-0.3060372"><ele>0.0</ele><time>2026-04-29T15:17:43.119Z</time></trkpt><trkpt lat="37.7834915" lon="-0.3059849"><ele>0.0</ele><time>2026-04-29T15:17:44.124Z</time></trkpt><trkpt lat="37.7835812" lon="-0.3059338"><ele>0.0</ele><time>2026-04-29T15:17:45.131Z</time></trkpt><trkpt lat="37.7836744" lon="-0.3058358"><ele>0.0</ele><time>2026-04-29T15:17:47.142Z</time></trkpt><trkpt lat="37.783784" lon="-0.3057846"><ele>0.0</ele><time>2026-04-29T15:17:48.149Z</time></trkpt><trkpt lat="37.7838602" lon="-0.3057157"><ele>0.0</ele><time>2026-04-29T15:17:49.153Z</time></trkpt><trkpt lat="37.7839297" lon="-0.305629"><ele>0.0</ele><time>2026-04-29T15:17:50.16Z</time></trkpt><trkpt lat="37.7840207" lon="-0.3055666"><ele>0.0</ele><time>2026-04-29T15:17:51.165Z</time></trkpt><trkpt lat="37.7841046" lon="-0.3054966"><ele>0.0</ele><time>2026-04-29T15:17:52.079Z</time></trkpt><trkpt lat="37.7841899" lon="-0.3054226"><ele>0.0</ele><time>2026-04-29T15:17:53.178Z</time></trkpt><trkpt lat="37.7843486" lon="-0.3052726"><ele>0.0</ele><time>2026-04-29T15:17:55.089Z</time></trkpt><trkpt lat="37.7844372" lon="-0.3052131"><ele>0.0</ele><time>2026-04-29T15:17:56.094Z</time></trkpt><trkpt lat="37.7845355" lon="-0.305044"><ele>0.0</ele><time>2026-04-29T15:17:59.112Z</time></trkpt><trkpt lat="37.7846742" lon="-0.3049971"><ele>0.0</ele><time>2026-04-29T15:18:00.118Z</time></trkpt><trkpt lat="37.7847557" lon="-0.3049047"><ele>0.0</ele><time>2026-04-29T15:18:01.124Z</time></trkpt><trkpt lat="37.7848372" lon="-0.3048267"><ele>0.0</ele><time>2026-04-29T15:18:02.13Z</time></trkpt><trkpt lat="37.7849228" lon="-0.3047521"><ele>0.0</ele><time>2026-04-29T15:18:03.137Z</time></trkpt><trkpt lat="37.7850241" lon="-0.3046604"><ele>0.0</ele><time>2026-04-29T15:18:05.149Z</time></trkpt><trkpt lat="37.7851166" lon="-0.3045902"><ele>0.0</ele><time>2026-04-29T15:18:06.154Z</time></trkpt><trkpt lat="37.7851963" lon="-0.3045365"><ele>0.0</ele><time>2026-04-29T15:18:07.161Z</time></trkpt><trkpt lat="37.7852774" lon="-0.3044921"><ele>0.0</ele><time>2026-04-29T15:18:08.167Z</time></trkpt><trkpt lat="37.7853603" lon="-0.3044365"><ele>0.0</ele><time>2026-04-29T15:18:09.173Z</time></trkpt><trkpt lat="37.785431" lon="-0.3043579"><ele>0.0</ele><time>2026-04-29T15:18:10.079Z</time></trkpt><trkpt lat="37.7855059" lon="-0.3042801"><ele>0.0</ele><time>2026-04-29T15:18:11.084Z</time></trkpt><trkpt lat="37.7855774" lon="-0.3042016"><ele>0.0</ele><time>2026-04-29T15:18:13.095Z</time></trkpt><trkpt lat="37.7857801" lon="-0.3040707"><ele>0.0</ele><time>2026-04-29T15:18:15.108Z</time></trkpt><trkpt lat="37.785956" lon="-0.3039189"><ele>0.0</ele><time>2026-04-29T15:18:17.119Z</time></trkpt><trkpt lat="37.7860321" lon="-0.3038426"><ele>0.0</ele><time>2026-04-29T15:18:18.126Z</time></trkpt><trkpt lat="37.7860991" lon="-0.3037475"><ele>0.0</ele><time>2026-04-29T15:18:19.131Z</time></trkpt><trkpt lat="37.7861763" lon="-0.3036643"><ele>0.0</ele><time>2026-04-29T15:18:20.136Z</time></trkpt><trkpt lat="37.7862469" lon="-0.3036146"><ele>0.0</ele><time>2026-04-29T15:18:22.148Z</time></trkpt><trkpt lat="37.786364" lon="-0.3035523"><ele>0.0</ele><time>2026-04-29T15:18:23.154Z</time></trkpt><trkpt lat="37.7865346" lon="-0.3033662"><ele>0.0</ele><time>2026-04-29T15:18:25.166Z</time></trkpt><trkpt lat="37.7866152" lon="-0.3032933"><ele>0.0</ele><time>2026-04-29T15:18:26.078Z</time></trkpt><trkpt lat="37.7866952" lon="-0.3032196"><ele>0.0</ele><time>2026-04-29T15:18:27.078Z</time></trkpt><trkpt lat="37.7868574" lon="-0.3030779"><ele>0.0</ele><time>2026-04-29T15:18:29.09Z</time></trkpt><trkpt lat="37.7869292" lon="-0.3029939"><ele>0.0</ele><time>2026-04-29T15:18:30.095Z</time></trkpt><trkpt lat="37.78701" lon="-0.3029111"><ele>0.0</ele><time>2026-04-29T15:18:31.101Z</time></trkpt><trkpt lat="37.7870762" lon="-0.3028209"><ele>0.0</ele><time>2026-04-29T15:18:33.113Z</time></trkpt><trkpt lat="37.7872002" lon="-0.3027426"><ele>0.0</ele><time>2026-04-29T15:18:34.12Z</time></trkpt><trkpt lat="37.7872836" lon="-0.3026981"><ele>0.0</ele><time>2026-04-29T15:18:35.126Z</time></trkpt><trkpt lat="37.7873709" lon="-0.3026462"><ele>0.0</ele><time>2026-04-29T15:18:36.132Z</time></trkpt><trkpt lat="37.7875275" lon="-0.3024869"><ele>0.0</ele><time>2026-04-29T15:18:38.144Z</time></trkpt><trkpt lat="37.7876643" lon="-0.3023408"><ele>0.0</ele><time>2026-04-29T15:18:40.077Z</time></trkpt><trkpt lat="37.7877033" lon="-0.3022557"><ele>0.0</ele><time>2026-04-29T15:18:41.162Z</time></trkpt><trkpt lat="37.787817" lon="-0.3021819"><ele>0.0</ele><time>2026-04-29T15:18:42.166Z</time></trkpt><trkpt lat="37.787882" lon="-0.3021392"><ele>0.0</ele><time>2026-04-29T15:18:43.077Z</time></trkpt><trkpt lat="37.7879516" lon="-0.3020663"><ele>0.0</ele><time>2026-04-29T15:18:44.078Z</time></trkpt><trkpt lat="37.7880264" lon="-0.3019898"><ele>0.0</ele><time>2026-04-29T15:18:45.085Z</time></trkpt><trkpt lat="37.7881059" lon="-0.3019168"><ele>0.0</ele><time>2026-04-29T15:18:46.09Z</time></trkpt><trkpt lat="37.7881888" lon="-0.30185"><ele>0.0</ele><time>2026-04-29T15:18:47.096Z</time></trkpt><trkpt lat="37.7882676" lon="-0.3017807"><ele>0.0</ele><time>2026-04-29T15:18:48.102Z</time></trkpt><trkpt lat="37.7883615" lon="-0.3016569"><ele>0.0</ele><time>2026-04-29T15:18:50.113Z</time></trkpt><trkpt lat="37.7884792" lon="-0.3016076"><ele>0.0</ele><time>2026-04-29T15:18:51.119Z</time></trkpt><trkpt lat="37.7885762" lon="-0.3015643"><ele>0.0</ele><time>2026-04-29T15:18:52.125Z</time></trkpt><trkpt lat="37.7886575" lon="-0.3015037"><ele>0.0</ele><time>2026-04-29T15:18:53.132Z</time></trkpt><trkpt lat="37.7887302" lon="-0.3014195"><ele>0.0</ele><time>2026-04-29T15:18:54.137Z</time></trkpt><trkpt lat="37.7888127" lon="-0.3012771"><ele>0.0</ele><time>2026-04-29T15:18:56.149Z</time></trkpt><trkpt lat="37.7889129" lon="-0.3011958"><ele>0.0</ele><time>2026-04-29T15:18:57.155Z</time></trkpt><trkpt lat="37.7890103" lon="-0.3011567"><ele>0.0</ele><time>2026-04-29T15:18:58.162Z</time></trkpt><trkpt lat="37.7890898" lon="-0.3011058"><ele>0.0</ele><time>2026-04-29T15:18:59.167Z</time></trkpt><trkpt lat="37.7891556" lon="-0.3010713"><ele>0.0</ele><time>2026-04-29T15:19:00.077Z</time></trkpt><trkpt lat="37.7893252" lon="-0.3009685"><ele>0.0</ele><time>2026-04-29T15:19:02.084Z</time></trkpt><trkpt lat="37.7893887" lon="-0.3008776"><ele>0.0</ele><time>2026-04-29T15:19:03.091Z</time></trkpt><trkpt lat="37.7894711" lon="-0.3007395"><ele>0.0</ele><time>2026-04-29T15:19:05.103Z</time></trkpt><trkpt lat="37.78957" lon="-0.3006518"><ele>0.0</ele><time>2026-04-29T15:19:06.108Z</time></trkpt><trkpt lat="37.7896683" lon="-0.3006216"><ele>0.0</ele><time>2026-04-29T15:19:07.114Z</time></trkpt><trkpt lat="37.7897493" lon="-0.3005673"><ele>0.0</ele><time>2026-04-29T15:19:08.12Z</time></trkpt><trkpt lat="37.7898248" lon="-0.3004898"><ele>0.0</ele><time>2026-04-29T15:19:09.126Z</time></trkpt><trkpt lat="37.7898922" lon="-0.3004548"><ele>0.0</ele><time>2026-04-29T15:19:11.139Z</time></trkpt><trkpt lat="37.7899648" lon="-0.3003631"><ele>0.0</ele><time>2026-04-29T15:19:12.144Z</time></trkpt><trkpt lat="37.7900842" lon="-0.3002909"><ele>0.0</ele><time>2026-04-29T15:19:13.149Z</time></trkpt><trkpt lat="37.7901707" lon="-0.3002117"><ele>0.0</ele><time>2026-04-29T15:19:14.155Z</time></trkpt><trkpt lat="37.7902618" lon="-0.3001415"><ele>0.0</ele><time>2026-04-29T15:19:15.161Z</time></trkpt><trkpt lat="37.7903563" lon="-0.3000828"><ele>0.0</ele><time>2026-04-29T15:19:16.168Z</time></trkpt><trkpt lat="37.7904205" lon="-0.3000247"><ele>0.0</ele><time>2026-04-29T15:19:17.078Z</time></trkpt><trkpt lat="37.7904624" lon="-0.2999394"><ele>0.0</ele><time>2026-04-29T15:19:18.18Z</time></trkpt><trkpt lat="37.7905573" lon="-0.2998694"><ele>0.0</ele><time>2026-04-29T15:19:19.085Z</time></trkpt><trkpt lat="37.7906391" lon="-0.2998091"><ele>0.0</ele><time>2026-04-29T15:19:20.091Z</time></trkpt><trkpt lat="37.7907115" lon="-0.2997389"><ele>0.0</ele><time>2026-04-29T15:19:21.097Z</time></trkpt><trkpt lat="37.7908648" lon="-0.2996088"><ele>0.0</ele><time>2026-04-29T15:19:23.108Z</time></trkpt><trkpt lat="37.7909454" lon="-0.2995501"><ele>0.0</ele><time>2026-04-29T15:19:24.115Z</time></trkpt><trkpt lat="37.7910236" lon="-0.2994877"><ele>0.0</ele><time>2026-04-29T15:19:25.12Z</time></trkpt><trkpt lat="37.7910991" lon="-0.2994063"><ele>0.0</ele><time>2026-04-29T15:19:26.127Z</time></trkpt><trkpt lat="37.7911785" lon="-0.2993361"><ele>0.0</ele><time>2026-04-29T15:19:27.132Z</time></trkpt><trkpt lat="37.7912145" lon="-0.2992701"><ele>0.0</ele><time>2026-04-29T15:19:28.077Z</time></trkpt><trkpt lat="37.7912508" lon="-0.2991884"><ele>0.0</ele><time>2026-04-29T15:19:29.145Z</time></trkpt><trkpt lat="37.7913442" lon="-0.2991149"><ele>0.0</ele><time>2026-04-29T15:19:30.15Z</time></trkpt><trkpt lat="37.7914314" lon="-0.2990562"><ele>0.0</ele><time>2026-04-29T15:19:31.156Z</time></trkpt><trkpt lat="37.7915906" lon="-0.298924"><ele>0.0</ele><time>2026-04-29T15:19:33.168Z</time></trkpt><trkpt lat="37.7916776" lon="-0.2988713"><ele>0.0</ele><time>2026-04-29T15:19:34.175Z</time></trkpt><trkpt lat="37.7917483" lon="-0.2987847"><ele>0.0</ele><time>2026-04-29T15:19:35.179Z</time></trkpt><trkpt lat="37.7918201" lon="-0.2987127"><ele>0.0</ele><time>2026-04-29T15:19:36.085Z</time></trkpt><trkpt lat="37.7919007" lon="-0.2986453"><ele>0.0</ele><time>2026-04-29T15:19:37.091Z</time></trkpt><trkpt lat="37.7919971" lon="-0.298603"><ele>0.0</ele><time>2026-04-29T15:19:38.097Z</time></trkpt><trkpt lat="37.7920858" lon="-0.2985458"><ele>0.0</ele><time>2026-04-29T15:19:39.104Z</time></trkpt><trkpt lat="37.7921679" lon="-0.2984106"><ele>0.0</ele><time>2026-04-29T15:19:41.115Z</time></trkpt><trkpt lat="37.7922602" lon="-0.2983316"><ele>0.0</ele><time>2026-04-29T15:19:42.12Z</time></trkpt><trkpt lat="37.7924511" lon="-0.2982431"><ele>0.0</ele><time>2026-04-29T15:19:44.132Z</time></trkpt><trkpt lat="37.7926207" lon="-0.298045"><ele>0.0</ele><time>2026-04-29T15:19:47.15Z</time></trkpt><trkpt lat="37.7927412" lon="-0.2979812"><ele>0.0</ele><time>2026-04-29T15:19:48.156Z</time></trkpt><trkpt lat="37.7928184" lon="-0.2979239"><ele>0.0</ele><time>2026-04-29T15:19:49.162Z</time></trkpt><trkpt lat="37.7929423" lon="-0.2977554"><ele>0.0</ele><time>2026-04-29T15:19:51.175Z</time></trkpt><trkpt lat="37.7930467" lon="-0.2976737"><ele>0.0</ele><time>2026-04-29T15:19:53.085Z</time></trkpt><trkpt lat="37.793211" lon="-0.2975124"><ele>0.0</ele><time>2026-04-29T15:19:55.097Z</time></trkpt><trkpt lat="37.7933011" lon="-0.2974857"><ele>0.0</ele><time>2026-04-29T15:19:56.103Z</time></trkpt><trkpt lat="37.7933749" lon="-0.2974392"><ele>0.0</ele><time>2026-04-29T15:19:57.109Z</time></trkpt><trkpt lat="37.7934382" lon="-0.2973623"><ele>0.0</ele><time>2026-04-29T15:19:58.116Z</time></trkpt><trkpt lat="37.7934987" lon="-0.2973362"><ele>0.0</ele><time>2026-04-29T15:19:59.077Z</time></trkpt><trkpt lat="37.7935318" lon="-0.2972524"><ele>0.0</ele><time>2026-04-29T15:20:00.127Z</time></trkpt><trkpt lat="37.7937287" lon="-0.2970904"><ele>0.0</ele><time>2026-04-29T15:20:02.14Z</time></trkpt><trkpt lat="37.7938181" lon="-0.297024"><ele>0.0</ele><time>2026-04-29T15:20:03.145Z</time></trkpt><trkpt lat="37.7939056" lon="-0.2970183"><ele>0.0</ele><time>2026-04-29T15:20:04.078Z</time></trkpt><trkpt lat="37.7939465" lon="-0.2969339"><ele>0.0</ele><time>2026-04-29T15:20:05.157Z</time></trkpt><trkpt lat="37.7942348" lon="-0.296756"><ele>0.0</ele><time>2026-04-29T15:20:08.078Z</time></trkpt><trkpt lat="37.7943179" lon="-0.2966936"><ele>0.0</ele><time>2026-04-29T15:20:09.081Z</time></trkpt><trkpt lat="37.7943872" lon="-0.2966155"><ele>0.0</ele><time>2026-04-29T15:20:10.086Z</time></trkpt><trkpt lat="37.7944546" lon="-0.2965323"><ele>0.0</ele><time>2026-04-29T15:20:11.093Z</time></trkpt><trkpt lat="37.7945403" lon="-0.2964225"><ele>0.0</ele><time>2026-04-29T15:20:13.104Z</time></trkpt><trkpt lat="37.7946394" lon="-0.2963466"><ele>0.0</ele><time>2026-04-29T15:20:14.11Z</time></trkpt><trkpt lat="37.7948504" lon="-0.2961504"><ele>0.0</ele><time>2026-04-29T15:20:17.078Z</time></trkpt><trkpt lat="37.794889" lon="-0.2960618"><ele>0.0</ele><time>2026-04-29T15:20:18.133Z</time></trkpt><trkpt lat="37.7949917" lon="-0.2959923"><ele>0.0</ele><time>2026-04-29T15:20:19.14Z</time></trkpt><trkpt lat="37.7950791" lon="-0.2959322"><ele>0.0</ele><time>2026-04-29T15:20:20.145Z</time></trkpt><trkpt lat="37.7951513" lon="-0.295848"><ele>0.0</ele><time>2026-04-29T15:20:21.151Z</time></trkpt><trkpt lat="37.7952288" lon="-0.2957839"><ele>0.0</ele><time>2026-04-29T15:20:22.157Z</time></trkpt><trkpt lat="37.795303" lon="-0.2957296"><ele>0.0</ele><time>2026-04-29T15:20:23.163Z</time></trkpt><trkpt lat="37.7953637" lon="-0.2955875"><ele>0.0</ele><time>2026-04-29T15:20:25.175Z</time></trkpt><trkpt lat="37.7955618" lon="-0.2954342"><ele>0.0</ele><time>2026-04-29T15:20:27.087Z</time></trkpt><trkpt lat="37.7957626" lon="-0.2953177"><ele>0.0</ele><time>2026-04-29T15:20:29.098Z</time></trkpt><trkpt lat="37.7958504" lon="-0.295257"><ele>0.0</ele><time>2026-04-29T15:20:30.104Z</time></trkpt><trkpt lat="37.7959261" lon="-0.2951888"><ele>0.0</ele><time>2026-04-29T15:20:31.111Z</time></trkpt><trkpt lat="37.7960123" lon="-0.295135"><ele>0.0</ele><time>2026-04-29T15:20:32.116Z</time></trkpt><trkpt lat="37.7960708" lon="-0.2950961"><ele>0.0</ele><time>2026-04-29T15:20:33.078Z</time></trkpt><trkpt lat="37.796116" lon="-0.2950055"><ele>0.0</ele><time>2026-04-29T15:20:34.128Z</time></trkpt><trkpt lat="37.7963238" lon="-0.2948846"><ele>0.0</ele><time>2026-04-29T15:20:36.14Z</time></trkpt><trkpt lat="37.7964023" lon="-0.2948155"><ele>0.0</ele><time>2026-04-29T15:20:37.145Z</time></trkpt><trkpt lat="37.7964657" lon="-0.2947875"><ele>0.0</ele><time>2026-04-29T15:20:38.077Z</time></trkpt><trkpt lat="37.7965073" lon="-0.2946976"><ele>0.0</ele><time>2026-04-29T15:20:39.157Z</time></trkpt><trkpt lat="37.7966089" lon="-0.2946128"><ele>0.0</ele><time>2026-04-29T15:20:40.163Z</time></trkpt><trkpt lat="37.7967066" lon="-0.2945807"><ele>0.0</ele><time>2026-04-29T15:20:41.169Z</time></trkpt><trkpt lat="37.7967887" lon="-0.2945282"><ele>0.0</ele><time>2026-04-29T15:20:42.175Z</time></trkpt><trkpt lat="37.7969454" lon="-0.2943945"><ele>0.0</ele><time>2026-04-29T15:20:45.093Z</time></trkpt><trkpt lat="37.7970273" lon="-0.2943106"><ele>0.0</ele><time>2026-04-29T15:20:46.099Z</time></trkpt><trkpt lat="37.7970948" lon="-0.2942279"><ele>0.0</ele><time>2026-04-29T15:20:47.104Z</time></trkpt><trkpt lat="37.7972717" lon="-0.2941411"><ele>0.0</ele><time>2026-04-29T15:20:49.117Z</time></trkpt><trkpt lat="37.797383" lon="-0.2939989"><ele>0.0</ele><time>2026-04-29T15:20:51.078Z</time></trkpt><trkpt lat="37.7974568" lon="-0.2939358"><ele>0.0</ele><time>2026-04-29T15:20:52.077Z</time></trkpt><trkpt lat="37.7975243" lon="-0.2938616"><ele>0.0</ele><time>2026-04-29T15:20:53.077Z</time></trkpt><trkpt lat="37.7975937" lon="-0.2937801"><ele>0.0</ele><time>2026-04-29T15:20:54.077Z</time></trkpt><trkpt lat="37.7976651" lon="-0.2937121"><ele>0.0</ele><time>2026-04-29T15:20:55.077Z</time></trkpt><trkpt lat="37.7977398" lon="-0.2936576"><ele>0.0</ele><time>2026-04-29T15:20:56.078Z</time></trkpt><trkpt lat="37.7978033" lon="-0.2936031"><ele>0.0</ele><time>2026-04-29T15:20:57.077Z</time></trkpt><trkpt lat="37.7978691" lon="-0.2935376"><ele>0.0</ele><time>2026-04-29T15:20:58.078Z</time></trkpt><trkpt lat="37.7979456" lon="-0.2934672"><ele>0.0</ele><time>2026-04-29T15:20:59.077Z</time></trkpt><trkpt lat="37.798021" lon="-0.2933928"><ele>0.0</ele><time>2026-04-29T15:21:00.077Z</time></trkpt><trkpt lat="37.7980962" lon="-0.293326"><ele>0.0</ele><time>2026-04-29T15:21:01.077Z</time></trkpt><trkpt lat="37.7981716" lon="-0.2932588"><ele>0.0</ele><time>2026-04-29T15:21:02.077Z</time></trkpt><trkpt lat="37.7982608" lon="-0.2932077"><ele>0.0</ele><time>2026-04-29T15:21:03.078Z</time></trkpt><trkpt lat="37.7983424" lon="-0.2931422"><ele>0.0</ele><time>2026-04-29T15:21:04.077Z</time></trkpt><trkpt lat="37.7984183" lon="-0.2930785"><ele>0.0</ele><time>2026-04-29T15:21:05.078Z</time></trkpt><trkpt lat="37.7985004" lon="-0.2930125"><ele>0.0</ele><time>2026-04-29T15:21:06.077Z</time></trkpt><trkpt lat="37.7985795" lon="-0.2929465"><ele>0.0</ele><time>2026-04-29T15:21:07.078Z</time></trkpt><trkpt lat="37.7986491" lon="-0.2928855"><ele>0.0</ele><time>2026-04-29T15:21:08.077Z</time></trkpt><trkpt lat="37.7987132" lon="-0.2928272"><ele>0.0</ele><time>2026-04-29T15:21:09.077Z</time></trkpt><trkpt lat="37.798779" lon="-0.2927748"><ele>0.0</ele><time>2026-04-29T15:21:10.077Z</time></trkpt><trkpt lat="37.7989448" lon="-0.2926671"><ele>0.0</ele><time>2026-04-29T15:21:12.077Z</time></trkpt><trkpt lat="37.7990273" lon="-0.2926106"><ele>0.0</ele><time>2026-04-29T15:21:13.077Z</time></trkpt><trkpt lat="37.7990964" lon="-0.2925383"><ele>0.0</ele><time>2026-04-29T15:21:14.078Z</time></trkpt><trkpt lat="37.7991675" lon="-0.2924648"><ele>0.0</ele><time>2026-04-29T15:21:15.078Z</time></trkpt><trkpt lat="37.799236" lon="-0.29238"><ele>0.0</ele><time>2026-04-29T15:21:16.077Z</time></trkpt><trkpt lat="37.7993042" lon="-0.2922927"><ele>0.0</ele><time>2026-04-29T15:21:17.077Z</time></trkpt><trkpt lat="37.7993836" lon="-0.2922331"><ele>0.0</ele><time>2026-04-29T15:21:18.077Z</time></trkpt><trkpt lat="37.7994595" lon="-0.2921663"><ele>0.0</ele><time>2026-04-29T15:21:19.078Z</time></trkpt><trkpt lat="37.7995235" lon="-0.292141"><ele>0.0</ele><time>2026-04-29T15:21:21.079Z</time></trkpt><trkpt lat="37.7995887" lon="-0.2920627"><ele>0.0</ele><time>2026-04-29T15:21:22.184Z</time></trkpt><trkpt lat="37.7998085" lon="-0.2918408"><ele>0.0</ele><time>2026-04-29T15:21:24.095Z</time></trkpt><trkpt lat="37.7999069" lon="-0.2917777"><ele>0.0</ele><time>2026-04-29T15:21:25.101Z</time></trkpt><trkpt lat="37.7999987" lon="-0.2917164"><ele>0.0</ele><time>2026-04-29T15:21:26.107Z</time></trkpt><trkpt lat="37.8001609" lon="-0.2915791"><ele>0.0</ele><time>2026-04-29T15:21:28.119Z</time></trkpt><trkpt lat="37.8002234" lon="-0.2914815"><ele>0.0</ele><time>2026-04-29T15:21:29.126Z</time></trkpt><trkpt lat="37.8002752" lon="-0.2913731"><ele>0.0</ele><time>2026-04-29T15:21:30.131Z</time></trkpt><trkpt lat="37.8003402" lon="-0.2912754"><ele>0.0</ele><time>2026-04-29T15:21:31.137Z</time></trkpt><trkpt lat="37.8005041" lon="-0.2911733"><ele>0.0</ele><time>2026-04-29T15:21:33.077Z</time></trkpt><trkpt lat="37.8005445" lon="-0.2910843"><ele>0.0</ele><time>2026-04-29T15:21:34.156Z</time></trkpt><trkpt lat="37.8006328" lon="-0.2909915"><ele>0.0</ele><time>2026-04-29T15:21:35.162Z</time></trkpt><trkpt lat="37.8007182" lon="-0.2909126"><ele>0.0</ele><time>2026-04-29T15:21:36.167Z</time></trkpt><trkpt lat="37.8008213" lon="-0.2908954"><ele>0.0</ele><time>2026-04-29T15:21:37.078Z</time></trkpt><trkpt lat="37.8009072" lon="-0.2908461"><ele>0.0</ele><time>2026-04-29T15:21:38.079Z</time></trkpt><trkpt lat="37.8009855" lon="-0.2907855"><ele>0.0</ele><time>2026-04-29T15:21:39.084Z</time></trkpt><trkpt lat="37.801066" lon="-0.2907365"><ele>0.0</ele><time>2026-04-29T15:21:40.09Z</time></trkpt><trkpt lat="37.8011416" lon="-0.2906587"><ele>0.0</ele><time>2026-04-29T15:21:41.096Z</time></trkpt><trkpt lat="37.8012146" lon="-0.2905829"><ele>0.0</ele><time>2026-04-29T15:21:42.102Z</time></trkpt><trkpt lat="37.8012947" lon="-0.2904553"><ele>0.0</ele><time>2026-04-29T15:21:44.114Z</time></trkpt><trkpt lat="37.8013823" lon="-0.2903716"><ele>0.0</ele><time>2026-04-29T15:21:45.121Z</time></trkpt><trkpt lat="37.8014788" lon="-0.2903149"><ele>0.0</ele><time>2026-04-29T15:21:46.126Z</time></trkpt><trkpt lat="37.8015708" lon="-0.2902502"><ele>0.0</ele><time>2026-04-29T15:21:47.133Z</time></trkpt><trkpt lat="37.8016541" lon="-0.2901913"><ele>0.0</ele><time>2026-04-29T15:21:48.137Z</time></trkpt><trkpt lat="37.8017434" lon="-0.2901469"><ele>0.0</ele><time>2026-04-29T15:21:49.143Z</time></trkpt><trkpt lat="37.8018196" lon="-0.2900246"><ele>0.0</ele><time>2026-04-29T15:21:51.156Z</time></trkpt><trkpt lat="37.801893" lon="-0.2899238"><ele>0.0</ele><time>2026-04-29T15:21:52.161Z</time></trkpt><trkpt lat="37.8021676" lon="-0.2896557"><ele>0.0</ele><time>2026-04-29T15:21:56.084Z</time></trkpt><trkpt lat="37.8022604" lon="-0.2895888"><ele>0.0</ele><time>2026-04-29T15:21:57.091Z</time></trkpt><trkpt lat="37.8023384" lon="-0.2895142"><ele>0.0</ele><time>2026-04-29T15:21:58.097Z</time></trkpt><trkpt lat="37.8024082" lon="-0.2894487"><ele>0.0</ele><time>2026-04-29T15:21:59.103Z</time></trkpt><trkpt lat="37.8024573" lon="-0.2893551"><ele>0.0</ele><time>2026-04-29T15:22:00.108Z</time></trkpt><trkpt lat="37.8025212" lon="-0.2893256"><ele>0.0</ele><time>2026-04-29T15:22:01.077Z</time></trkpt><trkpt lat="37.8025539" lon="-0.2892418"><ele>0.0</ele><time>2026-04-29T15:22:02.121Z</time></trkpt><trkpt lat="37.8026664" lon="-0.2891595"><ele>0.0</ele><time>2026-04-29T15:22:03.126Z</time></trkpt><trkpt lat="37.8027748" lon="-0.2891034"><ele>0.0</ele><time>2026-04-29T15:22:04.132Z</time></trkpt><trkpt lat="37.8028648" lon="-0.2890232"><ele>0.0</ele><time>2026-04-29T15:22:06.145Z</time></trkpt><trkpt lat="37.8029651" lon="-0.2889682"><ele>0.0</ele><time>2026-04-29T15:22:07.15Z</time></trkpt><trkpt lat="37.8030503" lon="-0.2889275"><ele>0.0</ele><time>2026-04-29T15:22:08.157Z</time></trkpt><trkpt lat="37.8031305" lon="-0.2888616"><ele>0.0</ele><time>2026-04-29T15:22:09.163Z</time></trkpt><trkpt lat="37.8031712" lon="-0.2887665"><ele>0.0</ele><time>2026-04-29T15:22:11.173Z</time></trkpt><trkpt lat="37.803373" lon="-0.2886308"><ele>0.0</ele><time>2026-04-29T15:22:13.085Z</time></trkpt><trkpt lat="37.8034596" lon="-0.2885541"><ele>0.0</ele><time>2026-04-29T15:22:14.091Z</time></trkpt><trkpt lat="37.8035445" lon="-0.2884779"><ele>0.0</ele><time>2026-04-29T15:22:15.098Z</time></trkpt><trkpt lat="37.8037207" lon="-0.2883366"><ele>0.0</ele><time>2026-04-29T15:22:17.109Z</time></trkpt><trkpt lat="37.8037997" lon="-0.2882639"><ele>0.0</ele><time>2026-04-29T15:22:18.114Z</time></trkpt><trkpt lat="37.803871" lon="-0.2881725"><ele>0.0</ele><time>2026-04-29T15:22:19.121Z</time></trkpt><trkpt lat="37.8039545" lon="-0.2880905"><ele>0.0</ele><time>2026-04-29T15:22:20.126Z</time></trkpt><trkpt lat="37.8040329" lon="-0.2880057"><ele>0.0</ele><time>2026-04-29T15:22:21.132Z</time></trkpt><trkpt lat="37.8041177" lon="-0.2878905"><ele>0.0</ele><time>2026-04-29T15:22:23.144Z</time></trkpt><trkpt lat="37.804308" lon="-0.2877479"><ele>0.0</ele><time>2026-04-29T15:22:25.156Z</time></trkpt><trkpt lat="37.8044017" lon="-0.2876918"><ele>0.0</ele><time>2026-04-29T15:22:26.162Z</time></trkpt><trkpt lat="37.8045722" lon="-0.2875633"><ele>0.0</ele><time>2026-04-29T15:22:28.077Z</time></trkpt><trkpt lat="37.8046876" lon="-0.2874663"><ele>0.0</ele><time>2026-04-29T15:22:31.092Z</time></trkpt><trkpt lat="37.8048359" lon="-0.2873806"><ele>0.0</ele><time>2026-04-29T15:22:32.097Z</time></trkpt><trkpt lat="37.8049232" lon="-0.2873195"><ele>0.0</ele><time>2026-04-29T15:22:33.076Z</time></trkpt><trkpt lat="37.8049957" lon="-0.2872566"><ele>0.0</ele><time>2026-04-29T15:22:34.076Z</time></trkpt><trkpt lat="37.8050673" lon="-0.2872066"><ele>0.0</ele><time>2026-04-29T15:22:35.076Z</time></trkpt><trkpt lat="37.8051399" lon="-0.2871408"><ele>0.0</ele><time>2026-04-29T15:22:36.077Z</time></trkpt><trkpt lat="37.8053007" lon="-0.2869855"><ele>0.0</ele><time>2026-04-29T15:22:38.077Z</time></trkpt><trkpt lat="37.8053839" lon="-0.2869183"><ele>0.0</ele><time>2026-04-29T15:22:39.076Z</time></trkpt><trkpt lat="37.8055436" lon="-0.2867786"><ele>0.0</ele><time>2026-04-29T15:22:41.077Z</time></trkpt><trkpt lat="37.8056215" lon="-0.286714"><ele>0.0</ele><time>2026-04-29T15:22:42.077Z</time></trkpt><trkpt lat="37.8057084" lon="-0.2866691"><ele>0.0</ele><time>2026-04-29T15:22:43.077Z</time></trkpt><trkpt lat="37.8057905" lon="-0.2866184"><ele>0.0</ele><time>2026-04-29T15:22:44.076Z</time></trkpt><trkpt lat="37.8058681" lon="-0.2865544"><ele>0.0</ele><time>2026-04-29T15:22:45.076Z</time></trkpt><trkpt lat="37.8060083" lon="-0.286417"><ele>0.0</ele><time>2026-04-29T15:22:47.077Z</time></trkpt><trkpt lat="37.806083" lon="-0.2863485"><ele>0.0</ele><time>2026-04-29T15:22:48.077Z</time></trkpt><trkpt lat="37.8061569" lon="-0.2862803"><ele>0.0</ele><time>2026-04-29T15:22:49.077Z</time></trkpt><trkpt lat="37.8062303" lon="-0.2862148"><ele>0.0</ele><time>2026-04-29T15:22:50.077Z</time></trkpt><trkpt lat="37.8063108" lon="-0.286154"><ele>0.0</ele><time>2026-04-29T15:22:51.077Z</time></trkpt><trkpt lat="37.8064716" lon="-0.2860522"><ele>0.0</ele><time>2026-04-29T15:22:53.077Z</time></trkpt><trkpt lat="37.8065424" lon="-0.2859947"><ele>0.0</ele><time>2026-04-29T15:22:54.077Z</time></trkpt><trkpt lat="37.8066168" lon="-0.2859274"><ele>0.0</ele><time>2026-04-29T15:22:55.076Z</time></trkpt><trkpt lat="37.806692" lon="-0.2858706"><ele>0.0</ele><time>2026-04-29T15:22:56.076Z</time></trkpt><trkpt lat="37.8067711" lon="-0.2858051"><ele>0.0</ele><time>2026-04-29T15:22:57.076Z</time></trkpt><trkpt lat="37.806913" lon="-0.2856797"><ele>0.0</ele><time>2026-04-29T15:22:59.076Z</time></trkpt><trkpt lat="37.8070569" lon="-0.2855558"><ele>0.0</ele><time>2026-04-29T15:23:01.077Z</time></trkpt><trkpt lat="37.8071251" lon="-0.2854968"><ele>0.0</ele><time>2026-04-29T15:23:02.076Z</time></trkpt><trkpt lat="37.8071942" lon="-0.285428"><ele>0.0</ele><time>2026-04-29T15:23:03.077Z</time></trkpt><trkpt lat="37.8072342" lon="-0.2853497"><ele>0.0</ele><time>2026-04-29T15:23:05.165Z</time></trkpt><trkpt lat="37.8073042" lon="-0.285261"><ele>0.0</ele><time>2026-04-29T15:23:06.171Z</time></trkpt><trkpt lat="37.8074367" lon="-0.2851781"><ele>0.0</ele><time>2026-04-29T15:23:07.178Z</time></trkpt><trkpt lat="37.8075126" lon="-0.2851041"><ele>0.0</ele><time>2026-04-29T15:23:08.083Z</time></trkpt><trkpt lat="37.8075871" lon="-0.2850239"><ele>0.0</ele><time>2026-04-29T15:23:09.088Z</time></trkpt><trkpt lat="37.8076662" lon="-0.2849456"><ele>0.0</ele><time>2026-04-29T15:23:10.094Z</time></trkpt><trkpt lat="37.8078307" lon="-0.2847849"><ele>0.0</ele><time>2026-04-29T15:23:12.107Z</time></trkpt><trkpt lat="37.807913" lon="-0.2847069"><ele>0.0</ele><time>2026-04-29T15:23:13.112Z</time></trkpt><trkpt lat="37.8079877" lon="-0.2846273"><ele>0.0</ele><time>2026-04-29T15:23:14.118Z</time></trkpt><trkpt lat="37.8080852" lon="-0.2845502"><ele>0.0</ele><time>2026-04-29T15:23:16.131Z</time></trkpt><trkpt lat="37.8081913" lon="-0.2844782"><ele>0.0</ele><time>2026-04-29T15:23:17.136Z</time></trkpt><trkpt lat="37.8082896" lon="-0.284435"><ele>0.0</ele><time>2026-04-29T15:23:18.142Z</time></trkpt><trkpt lat="37.8084619" lon="-0.2843223"><ele>0.0</ele><time>2026-04-29T15:23:20.154Z</time></trkpt><trkpt lat="37.8085462" lon="-0.2842633"><ele>0.0</ele><time>2026-04-29T15:23:21.16Z</time></trkpt><trkpt lat="37.8085959" lon="-0.2842103"><ele>0.0</ele><time>2026-04-29T15:23:22.076Z</time></trkpt><trkpt lat="37.8086644" lon="-0.2841352"><ele>0.0</ele><time>2026-04-29T15:23:23.076Z</time></trkpt><trkpt lat="37.8087415" lon="-0.28407"><ele>0.0</ele><time>2026-04-29T15:23:24.077Z</time></trkpt><trkpt lat="37.8088297" lon="-0.284005"><ele>0.0</ele><time>2026-04-29T15:23:25.083Z</time></trkpt><trkpt lat="37.8089227" lon="-0.2839507"><ele>0.0</ele><time>2026-04-29T15:23:26.09Z</time></trkpt><trkpt lat="37.8090704" lon="-0.2838431"><ele>0.0</ele><time>2026-04-29T15:23:28.077Z</time></trkpt><trkpt lat="37.8091155" lon="-0.2837548"><ele>0.0</ele><time>2026-04-29T15:23:29.106Z</time></trkpt><trkpt lat="37.8092209" lon="-0.2836744"><ele>0.0</ele><time>2026-04-29T15:23:30.112Z</time></trkpt><trkpt lat="37.8093853" lon="-0.2835457"><ele>0.0</ele><time>2026-04-29T15:23:32.125Z</time></trkpt><trkpt lat="37.8094557" lon="-0.2834748"><ele>0.0</ele><time>2026-04-29T15:23:33.13Z</time></trkpt><trkpt lat="37.809577" lon="-0.2833574"><ele>0.0</ele><time>2026-04-29T15:23:35.076Z</time></trkpt><trkpt lat="37.8096124" lon="-0.2832739"><ele>0.0</ele><time>2026-04-29T15:23:36.149Z</time></trkpt><trkpt lat="37.8097221" lon="-0.2831997"><ele>0.0</ele><time>2026-04-29T15:23:37.155Z</time></trkpt><trkpt lat="37.8098037" lon="-0.2831425"><ele>0.0</ele><time>2026-04-29T15:23:38.16Z</time></trkpt><trkpt lat="37.809947" lon="-0.2830219"><ele>0.0</ele><time>2026-04-29T15:23:40.076Z</time></trkpt><trkpt lat="37.8100852" lon="-0.2828827"><ele>0.0</ele><time>2026-04-29T15:23:42.076Z</time></trkpt><trkpt lat="37.8102356" lon="-0.2827338"><ele>0.0</ele><time>2026-04-29T15:23:44.076Z</time></trkpt><trkpt lat="37.8103041" lon="-0.2826656"><ele>0.0</ele><time>2026-04-29T15:23:45.077Z</time></trkpt><trkpt lat="37.8103655" lon="-0.2825988"><ele>0.0</ele><time>2026-04-29T15:23:46.076Z</time></trkpt><trkpt lat="37.8104285" lon="-0.2825263"><ele>0.0</ele><time>2026-04-29T15:23:47.077Z</time></trkpt><trkpt lat="37.8104873" lon="-0.2824455"><ele>0.0</ele><time>2026-04-29T15:23:48.077Z</time></trkpt><trkpt lat="37.810625" lon="-0.2823084"><ele>0.0</ele><time>2026-04-29T15:23:50.076Z</time></trkpt><trkpt lat="37.8107013" lon="-0.2822462"><ele>0.0</ele><time>2026-04-29T15:23:51.076Z</time></trkpt><trkpt lat="37.8107895" lon="-0.282199"><ele>0.0</ele><time>2026-04-29T15:23:52.076Z</time></trkpt><trkpt lat="37.8108724" lon="-0.2821514"><ele>0.0</ele><time>2026-04-29T15:23:53.077Z</time></trkpt><trkpt lat="37.8109465" lon="-0.2821037"><ele>0.0</ele><time>2026-04-29T15:23:54.077Z</time></trkpt><trkpt lat="37.8110975" lon="-0.2819708"><ele>0.0</ele><time>2026-04-29T15:23:56.077Z</time></trkpt><trkpt lat="37.8111773" lon="-0.2819001"><ele>0.0</ele><time>2026-04-29T15:23:57.076Z</time></trkpt><trkpt lat="37.8112531" lon="-0.281833"><ele>0.0</ele><time>2026-04-29T15:23:58.077Z</time></trkpt><trkpt lat="37.8113417" lon="-0.2817606"><ele>0.0</ele><time>2026-04-29T15:24:00.163Z</time></trkpt><trkpt lat="37.8114339" lon="-0.2816262"><ele>0.0</ele><time>2026-04-29T15:24:02.174Z</time></trkpt><trkpt lat="37.8118008" lon="-0.2814043"><ele>0.0</ele><time>2026-04-29T15:24:05.093Z</time></trkpt><trkpt lat="37.8119594" lon="-0.2812719"><ele>0.0</ele><time>2026-04-29T15:24:07.103Z</time></trkpt><trkpt lat="37.8120368" lon="-0.2812066"><ele>0.0</ele><time>2026-04-29T15:24:08.109Z</time></trkpt><trkpt lat="37.8121133" lon="-0.2810644"><ele>0.0</ele><time>2026-04-29T15:24:10.122Z</time></trkpt><trkpt lat="37.8122148" lon="-0.2809859"><ele>0.0</ele><time>2026-04-29T15:24:11.127Z</time></trkpt><trkpt lat="37.8122725" lon="-0.280939"><ele>0.0</ele><time>2026-04-29T15:24:12.076Z</time></trkpt><trkpt lat="37.8123101" lon="-0.2808561"><ele>0.0</ele><time>2026-04-29T15:24:13.14Z</time></trkpt><trkpt lat="37.8124138" lon="-0.2807776"><ele>0.0</ele><time>2026-04-29T15:24:14.146Z</time></trkpt><trkpt lat="37.8125063" lon="-0.2807238"><ele>0.0</ele><time>2026-04-29T15:24:15.151Z</time></trkpt><trkpt lat="37.8126831" lon="-0.2806447"><ele>0.0</ele><time>2026-04-29T15:24:17.164Z</time></trkpt><trkpt lat="37.8127727" lon="-0.2805919"><ele>0.0</ele><time>2026-04-29T15:24:18.169Z</time></trkpt><trkpt lat="37.8128505" lon="-0.2805242"><ele>0.0</ele><time>2026-04-29T15:24:19.077Z</time></trkpt><trkpt lat="37.8128303" lon="-0.2804447"><ele>0.0</ele><time>2026-04-29T15:24:21.086Z</time></trkpt><trkpt lat="37.8130895" lon="-0.2803445"><ele>0.0</ele><time>2026-04-29T15:24:23.098Z</time></trkpt><trkpt lat="37.8132729" lon="-0.2801753"><ele>0.0</ele><time>2026-04-29T15:24:25.111Z</time></trkpt><trkpt lat="37.8134478" lon="-0.2800424"><ele>0.0</ele><time>2026-04-29T15:24:27.123Z</time></trkpt><trkpt lat="37.813541" lon="-0.2799971"><ele>0.0</ele><time>2026-04-29T15:24:28.128Z</time></trkpt><trkpt lat="37.8136855" lon="-0.2797941"><ele>0.0</ele><time>2026-04-29T15:24:31.145Z</time></trkpt><trkpt lat="37.8137779" lon="-0.2797214"><ele>0.0</ele><time>2026-04-29T15:24:32.151Z</time></trkpt><trkpt lat="37.8138716" lon="-0.2796577"><ele>0.0</ele><time>2026-04-29T15:24:33.157Z</time></trkpt><trkpt lat="37.8140218" lon="-0.2795543"><ele>0.0</ele><time>2026-04-29T15:24:35.076Z</time></trkpt><trkpt lat="37.8140929" lon="-0.2794872"><ele>0.0</ele><time>2026-04-29T15:24:36.076Z</time></trkpt><trkpt lat="37.8141667" lon="-0.2794194"><ele>0.0</ele><time>2026-04-29T15:24:37.081Z</time></trkpt><trkpt lat="37.8142463" lon="-0.279345"><ele>0.0</ele><time>2026-04-29T15:24:38.086Z</time></trkpt><trkpt lat="37.8144203" lon="-0.2791303"><ele>0.0</ele><time>2026-04-29T15:24:41.104Z</time></trkpt><trkpt lat="37.814529" lon="-0.2790569"><ele>0.0</ele><time>2026-04-29T15:24:42.11Z</time></trkpt><trkpt lat="37.8146163" lon="-0.2790026"><ele>0.0</ele><time>2026-04-29T15:24:43.116Z</time></trkpt><trkpt lat="37.8147044" lon="-0.2789571"><ele>0.0</ele><time>2026-04-29T15:24:44.123Z</time></trkpt><trkpt lat="37.8149019" lon="-0.2787578"><ele>0.0</ele><time>2026-04-29T15:24:47.141Z</time></trkpt><trkpt lat="37.8149882" lon="-0.2787163"><ele>0.0</ele><time>2026-04-29T15:24:48.147Z</time></trkpt><trkpt lat="37.8150704" lon="-0.278663"><ele>0.0</ele><time>2026-04-29T15:24:49.152Z</time></trkpt><trkpt lat="37.8151477" lon="-0.2785928"><ele>0.0</ele><time>2026-04-29T15:24:50.158Z</time></trkpt><trkpt lat="37.815227" lon="-0.2784816"><ele>0.0</ele><time>2026-04-29T15:24:52.17Z</time></trkpt><trkpt lat="37.8153314" lon="-0.2784277"><ele>0.0</ele><time>2026-04-29T15:24:53.077Z</time></trkpt><trkpt lat="37.8154138" lon="-0.2783628"><ele>0.0</ele><time>2026-04-29T15:24:54.081Z</time></trkpt><trkpt lat="37.8154874" lon="-0.2782872"><ele>0.0</ele><time>2026-04-29T15:24:55.087Z</time></trkpt><trkpt lat="37.8155642" lon="-0.2782224"><ele>0.0</ele><time>2026-04-29T15:24:56.094Z</time></trkpt><trkpt lat="37.8156723" lon="-0.2781196"><ele>0.0</ele><time>2026-04-29T15:24:58.106Z</time></trkpt><trkpt lat="37.8157709" lon="-0.2780369"><ele>0.0</ele><time>2026-04-29T15:24:59.112Z</time></trkpt><trkpt lat="37.8158519" lon="-0.2779663"><ele>0.0</ele><time>2026-04-29T15:25:00.117Z</time></trkpt><trkpt lat="37.8159403" lon="-0.277909"><ele>0.0</ele><time>2026-04-29T15:25:01.122Z</time></trkpt><trkpt lat="37.8160908" lon="-0.2778038"><ele>0.0</ele><time>2026-04-29T15:25:03.076Z</time></trkpt><trkpt lat="37.8161346" lon="-0.2777154"><ele>0.0</ele><time>2026-04-29T15:25:04.14Z</time></trkpt><trkpt lat="37.8162523" lon="-0.2776503"><ele>0.0</ele><time>2026-04-29T15:25:05.146Z</time></trkpt><trkpt lat="37.8164099" lon="-0.2774331"><ele>0.0</ele><time>2026-04-29T15:25:08.165Z</time></trkpt><trkpt lat="37.8164786" lon="-0.2773294"><ele>0.0</ele><time>2026-04-29T15:25:09.17Z</time></trkpt><trkpt lat="37.8165819" lon="-0.277273"><ele>0.0</ele><time>2026-04-29T15:25:10.176Z</time></trkpt><trkpt lat="37.8166504" lon="-0.2771914"><ele>0.0</ele><time>2026-04-29T15:25:11.082Z</time></trkpt><trkpt lat="37.8168118" lon="-0.2770601"><ele>0.0</ele><time>2026-04-29T15:25:13.093Z</time></trkpt><trkpt lat="37.8168911" lon="-0.2769934"><ele>0.0</ele><time>2026-04-29T15:25:14.1Z</time></trkpt><trkpt lat="37.8170315" lon="-0.2768996"><ele>0.0</ele><time>2026-04-29T15:25:16.076Z</time></trkpt><trkpt lat="37.8170694" lon="-0.2768171"><ele>0.0</ele><time>2026-04-29T15:25:17.117Z</time></trkpt><trkpt lat="37.8171948" lon="-0.2767825"><ele>0.0</ele><time>2026-04-29T15:25:18.124Z</time></trkpt><trkpt lat="37.8173683" lon="-0.2766628"><ele>0.0</ele><time>2026-04-29T15:25:20.136Z</time></trkpt><trkpt lat="37.8173973" lon="-0.2765816"><ele>0.0</ele><time>2026-04-29T15:25:22.148Z</time></trkpt><trkpt lat="37.8175314" lon="-0.2765033"><ele>0.0</ele><time>2026-04-29T15:25:23.154Z</time></trkpt><trkpt lat="37.8176174" lon="-0.2764375"><ele>0.0</ele><time>2026-04-29T15:25:24.16Z</time></trkpt><trkpt lat="37.8176956" lon="-0.2763609"><ele>0.0</ele><time>2026-04-29T15:25:25.166Z</time></trkpt><trkpt lat="37.8178585" lon="-0.276233"><ele>0.0</ele><time>2026-04-29T15:25:27.076Z</time></trkpt><trkpt lat="37.8180894" lon="-0.2759631"><ele>0.0</ele><time>2026-04-29T15:25:31.1Z</time></trkpt><trkpt lat="37.8181868" lon="-0.2758804"><ele>0.0</ele><time>2026-04-29T15:25:32.106Z</time></trkpt><trkpt lat="37.81827" lon="-0.2757961"><ele>0.0</ele><time>2026-04-29T15:25:33.112Z</time></trkpt><trkpt lat="37.8184061" lon="-0.2756713"><ele>0.0</ele><time>2026-04-29T15:25:35.076Z</time></trkpt><trkpt lat="37.8184451" lon="-0.2755874"><ele>0.0</ele><time>2026-04-29T15:25:36.131Z</time></trkpt><trkpt lat="37.8185641" lon="-0.2755261"><ele>0.0</ele><time>2026-04-29T15:25:37.136Z</time></trkpt><trkpt lat="37.8187375" lon="-0.2754141"><ele>0.0</ele><time>2026-04-29T15:25:39.148Z</time></trkpt><trkpt lat="37.8187822" lon="-0.2753545"><ele>0.0</ele><time>2026-04-29T15:25:40.077Z</time></trkpt><trkpt lat="37.8188205" lon="-0.2752697"><ele>0.0</ele><time>2026-04-29T15:25:41.16Z</time></trkpt><trkpt lat="37.8190053" lon="-0.2751276"><ele>0.0</ele><time>2026-04-29T15:25:43.172Z</time></trkpt><trkpt lat="37.8192916" lon="-0.2748524"><ele>0.0</ele><time>2026-04-29T15:25:47.197Z</time></trkpt><trkpt lat="37.8195158" lon="-0.2746794"><ele>0.0</ele><time>2026-04-29T15:25:50.077Z</time></trkpt><trkpt lat="37.8195885" lon="-0.2746141"><ele>0.0</ele><time>2026-04-29T15:25:51.077Z</time></trkpt><trkpt lat="37.8196658" lon="-0.2745479"><ele>0.0</ele><time>2026-04-29T15:25:52.077Z</time></trkpt><trkpt lat="37.8197342" lon="-0.2744857"><ele>0.0</ele><time>2026-04-29T15:25:53.076Z</time></trkpt><trkpt lat="37.8197966" lon="-0.2744264"><ele>0.0</ele><time>2026-04-29T15:25:54.076Z</time></trkpt><trkpt lat="37.8198641" lon="-0.2743639"><ele>0.0</ele><time>2026-04-29T15:25:55.076Z</time></trkpt><trkpt lat="37.8199294" lon="-0.2742961"><ele>0.0</ele><time>2026-04-29T15:25:56.076Z</time></trkpt><trkpt lat="37.8200011" lon="-0.2742377"><ele>0.0</ele><time>2026-04-29T15:25:57.076Z</time></trkpt><trkpt lat="37.8200761" lon="-0.2741787"><ele>0.0</ele><time>2026-04-29T15:25:58.076Z</time></trkpt><trkpt lat="37.8201626" lon="-0.274129"><ele>0.0</ele><time>2026-04-29T15:25:59.076Z</time></trkpt><trkpt lat="37.8203211" lon="-0.2740092"><ele>0.0</ele><time>2026-04-29T15:26:01.077Z</time></trkpt><trkpt lat="37.8203977" lon="-0.2739452"><ele>0.0</ele><time>2026-04-29T15:26:02.077Z</time></trkpt><trkpt lat="37.8204689" lon="-0.2738784"><ele>0.0</ele><time>2026-04-29T15:26:03.076Z</time></trkpt><trkpt lat="37.8206172" lon="-0.273756"><ele>0.0</ele><time>2026-04-29T15:26:05.076Z</time></trkpt><trkpt lat="37.8206885" lon="-0.2736962"><ele>0.0</ele><time>2026-04-29T15:26:06.075Z</time></trkpt><trkpt lat="37.8207628" lon="-0.2736238"><ele>0.0</ele><time>2026-04-29T15:26:07.075Z</time></trkpt><trkpt lat="37.820915" lon="-0.2734978"><ele>0.0</ele><time>2026-04-29T15:26:09.075Z</time></trkpt><trkpt lat="37.8210695" lon="-0.2733557"><ele>0.0</ele><time>2026-04-29T15:26:11.076Z</time></trkpt><trkpt lat="37.8212166" lon="-0.2732136"><ele>0.0</ele><time>2026-04-29T15:26:13.075Z</time></trkpt><trkpt lat="37.8212915" lon="-0.2731455"><ele>0.0</ele><time>2026-04-29T15:26:14.075Z</time></trkpt><trkpt lat="37.8213636" lon="-0.2730685"><ele>0.0</ele><time>2026-04-29T15:26:15.076Z</time></trkpt><trkpt lat="37.8214321" lon="-0.2729882"><ele>0.0</ele><time>2026-04-29T15:26:16.075Z</time></trkpt><trkpt lat="37.8215016" lon="-0.2729122"><ele>0.0</ele><time>2026-04-29T15:26:17.076Z</time></trkpt><trkpt lat="37.8216449" lon="-0.2727683"><ele>0.0</ele><time>2026-04-29T15:26:19.075Z</time></trkpt><trkpt lat="37.8217307" lon="-0.2727105"><ele>0.0</ele><time>2026-04-29T15:26:21.117Z</time></trkpt><trkpt lat="37.8218289" lon="-0.2726016"><ele>0.0</ele><time>2026-04-29T15:26:22.123Z</time></trkpt><trkpt lat="37.8219645" lon="-0.2725081"><ele>0.0</ele><time>2026-04-29T15:26:23.128Z</time></trkpt><trkpt lat="37.8220465" lon="-0.2724261"><ele>0.0</ele><time>2026-04-29T15:26:24.134Z</time></trkpt><trkpt lat="37.822114" lon="-0.2723399"><ele>0.0</ele><time>2026-04-29T15:26:25.141Z</time></trkpt><trkpt lat="37.8221957" lon="-0.2722102"><ele>0.0</ele><time>2026-04-29T15:26:27.152Z</time></trkpt><trkpt lat="37.8223091" lon="-0.2721522"><ele>0.0</ele><time>2026-04-29T15:26:28.158Z</time></trkpt><trkpt lat="37.8223986" lon="-0.272116"><ele>0.0</ele><time>2026-04-29T15:26:29.165Z</time></trkpt><trkpt lat="37.8224779" lon="-0.2720663"><ele>0.0</ele><time>2026-04-29T15:26:30.171Z</time></trkpt><trkpt lat="37.8225594" lon="-0.2720083"><ele>0.0</ele><time>2026-04-29T15:26:31.177Z</time></trkpt><trkpt lat="37.8228173" lon="-0.2719329"><ele>0.0</ele><time>2026-04-29T15:26:34.094Z</time></trkpt><trkpt lat="37.8229145" lon="-0.2719112"><ele>0.0</ele><time>2026-04-29T15:26:35.099Z</time></trkpt><trkpt lat="37.823015" lon="-0.271798"><ele>0.0</ele><time>2026-04-29T15:26:37.112Z</time></trkpt><trkpt lat="37.8231298" lon="-0.2717608"><ele>0.0</ele><time>2026-04-29T15:26:38.118Z</time></trkpt><trkpt lat="37.8232229" lon="-0.2717384"><ele>0.0</ele><time>2026-04-29T15:26:39.123Z</time></trkpt><trkpt lat="37.8233011" lon="-0.2715265"><ele>0.0</ele><time>2026-04-29T15:26:41.135Z</time></trkpt><trkpt lat="37.8233738" lon="-0.2714457"><ele>0.0</ele><time>2026-04-29T15:26:42.141Z</time></trkpt><trkpt lat="37.8234618" lon="-0.2713787"><ele>0.0</ele><time>2026-04-29T15:26:43.147Z</time></trkpt><trkpt lat="37.8235526" lon="-0.271322"><ele>0.0</ele><time>2026-04-29T15:26:44.154Z</time></trkpt><trkpt lat="37.823606" lon="-0.2712687"><ele>0.0</ele><time>2026-04-29T15:26:45.075Z</time></trkpt><trkpt lat="37.8237437" lon="-0.2710999"><ele>0.0</ele><time>2026-04-29T15:26:47.17Z</time></trkpt><trkpt lat="37.823836" lon="-0.2710355"><ele>0.0</ele><time>2026-04-29T15:26:48.177Z</time></trkpt><trkpt lat="37.8239117" lon="-0.2709656"><ele>0.0</ele><time>2026-04-29T15:26:49.083Z</time></trkpt><trkpt lat="37.823985" lon="-0.2708824"><ele>0.0</ele><time>2026-04-29T15:26:50.088Z</time></trkpt><trkpt lat="37.824193" lon="-0.2706313"><ele>0.0</ele><time>2026-04-29T15:26:53.106Z</time></trkpt><trkpt lat="37.824386" lon="-0.270453"><ele>0.0</ele><time>2026-04-29T15:26:56.124Z</time></trkpt><trkpt lat="37.8244676" lon="-0.2703947"><ele>0.0</ele><time>2026-04-29T15:26:57.13Z</time></trkpt><trkpt lat="37.8246627" lon="-0.2702209"><ele>0.0</ele><time>2026-04-29T15:27:00.147Z</time></trkpt><trkpt lat="37.8247508" lon="-0.2701705"><ele>0.0</ele><time>2026-04-29T15:27:01.153Z</time></trkpt><trkpt lat="37.8248264" lon="-0.270092"><ele>0.0</ele><time>2026-04-29T15:27:02.16Z</time></trkpt><trkpt lat="37.8249168" lon="-0.2700889"><ele>0.0</ele><time>2026-04-29T15:27:04.172Z</time></trkpt><trkpt lat="37.8250182" lon="-0.2699563"><ele>0.0</ele><time>2026-04-29T15:27:05.077Z</time></trkpt><trkpt lat="37.8250996" lon="-0.2698402"><ele>0.0</ele><time>2026-04-29T15:27:06.083Z</time></trkpt><trkpt lat="37.8252526" lon="-0.2696724"><ele>0.0</ele><time>2026-04-29T15:27:08.095Z</time></trkpt><trkpt lat="37.8253283" lon="-0.2696002"><ele>0.0</ele><time>2026-04-29T15:27:09.1Z</time></trkpt><trkpt lat="37.8253905" lon="-0.2695017"><ele>0.0</ele><time>2026-04-29T15:27:10.106Z</time></trkpt><trkpt lat="37.8254447" lon="-0.269402"><ele>0.0</ele><time>2026-04-29T15:27:11.113Z</time></trkpt><trkpt lat="37.8256402" lon="-0.2692511"><ele>0.0</ele><time>2026-04-29T15:27:14.13Z</time></trkpt><trkpt lat="37.8257928" lon="-0.2691228"><ele>0.0</ele><time>2026-04-29T15:27:16.143Z</time></trkpt><trkpt lat="37.8259324" lon="-0.2689527"><ele>0.0</ele><time>2026-04-29T15:27:18.155Z</time></trkpt><trkpt lat="37.8260042" lon="-0.2688123"><ele>0.0</ele><time>2026-04-29T15:27:20.166Z</time></trkpt><trkpt lat="37.8261156" lon="-0.2687567"><ele>0.0</ele><time>2026-04-29T15:27:21.075Z</time></trkpt><trkpt lat="37.8261887" lon="-0.268685"><ele>0.0</ele><time>2026-04-29T15:27:22.075Z</time></trkpt><trkpt lat="37.8262599" lon="-0.2686171"><ele>0.0</ele><time>2026-04-29T15:27:23.075Z</time></trkpt><trkpt lat="37.8264031" lon="-0.2685008"><ele>0.0</ele><time>2026-04-29T15:27:25.076Z</time></trkpt><trkpt lat="37.8264737" lon="-0.268429"><ele>0.0</ele><time>2026-04-29T15:27:26.076Z</time></trkpt><trkpt lat="37.8265462" lon="-0.2683597"><ele>0.0</ele><time>2026-04-29T15:27:27.076Z</time></trkpt><trkpt lat="37.8266994" lon="-0.2682259"><ele>0.0</ele><time>2026-04-29T15:27:29.075Z</time></trkpt><trkpt lat="37.8267686" lon="-0.268158"><ele>0.0</ele><time>2026-04-29T15:27:30.076Z</time></trkpt><trkpt lat="37.8268383" lon="-0.2680927"><ele>0.0</ele><time>2026-04-29T15:27:31.076Z</time></trkpt><trkpt lat="37.8269152" lon="-0.2680503"><ele>0.0</ele><time>2026-04-29T15:27:32.075Z</time></trkpt><trkpt lat="37.8269909" lon="-0.2679849"><ele>0.0</ele><time>2026-04-29T15:27:33.076Z</time></trkpt><trkpt lat="37.8271423" lon="-0.2678489"><ele>0.0</ele><time>2026-04-29T15:27:35.076Z</time></trkpt><trkpt lat="37.8272897" lon="-0.2677164"><ele>0.0</ele><time>2026-04-29T15:27:37.075Z</time></trkpt><trkpt lat="37.8274282" lon="-0.2675847"><ele>0.0</ele><time>2026-04-29T15:27:39.075Z</time></trkpt><trkpt lat="37.8275013" lon="-0.2675199"><ele>0.0</ele><time>2026-04-29T15:27:40.076Z</time></trkpt><trkpt lat="37.8275736" lon="-0.2674418"><ele>0.0</ele><time>2026-04-29T15:27:41.075Z</time></trkpt><trkpt lat="37.8276437" lon="-0.2673704"><ele>0.0</ele><time>2026-04-29T15:27:42.076Z</time></trkpt><trkpt lat="37.827692" lon="-0.2673033"><ele>0.0</ele><time>2026-04-29T15:27:44.076Z</time></trkpt><trkpt lat="37.8278842" lon="-0.2671395"><ele>0.0</ele><time>2026-04-29T15:27:46.089Z</time></trkpt><trkpt lat="37.8279761" lon="-0.2670722"><ele>0.0</ele><time>2026-04-29T15:27:47.094Z</time></trkpt><trkpt lat="37.8280595" lon="-0.2669953"><ele>0.0</ele><time>2026-04-29T15:27:48.099Z</time></trkpt><trkpt lat="37.828142" lon="-0.2669083"><ele>0.0</ele><time>2026-04-29T15:27:49.106Z</time></trkpt><trkpt lat="37.8282283" lon="-0.2668358"><ele>0.0</ele><time>2026-04-29T15:27:50.112Z</time></trkpt><trkpt lat="37.8282999" lon="-0.2667406"><ele>0.0</ele><time>2026-04-29T15:27:51.117Z</time></trkpt><trkpt lat="37.8284605" lon="-0.2665739"><ele>0.0</ele><time>2026-04-29T15:27:53.129Z</time></trkpt><trkpt lat="37.828513" lon="-0.2664997"><ele>0.0</ele><time>2026-04-29T15:27:54.076Z</time></trkpt><trkpt lat="37.8285541" lon="-0.2664157"><ele>0.0</ele><time>2026-04-29T15:27:55.142Z</time></trkpt><trkpt lat="37.8286311" lon="-0.2663116"><ele>0.0</ele><time>2026-04-29T15:27:56.147Z</time></trkpt><trkpt lat="37.8288074" lon="-0.2661895"><ele>0.0</ele><time>2026-04-29T15:27:58.159Z</time></trkpt><trkpt lat="37.8289821" lon="-0.2661112"><ele>0.0</ele><time>2026-04-29T15:28:00.171Z</time></trkpt><trkpt lat="37.8290733" lon="-0.2660347"><ele>0.0</ele><time>2026-04-29T15:28:02.082Z</time></trkpt><trkpt lat="37.8291942" lon="-0.2659993"><ele>0.0</ele><time>2026-04-29T15:28:03.089Z</time></trkpt><trkpt lat="37.8292826" lon="-0.2659895"><ele>0.0</ele><time>2026-04-29T15:28:04.076Z</time></trkpt><trkpt lat="37.8293381" lon="-0.2659512"><ele>0.0</ele><time>2026-04-29T15:28:05.101Z</time></trkpt><trkpt lat="37.8294462" lon="-0.2658813"><ele>0.0</ele><time>2026-04-29T15:28:06.106Z</time></trkpt><trkpt lat="37.8295463" lon="-0.2658432"><ele>0.0</ele><time>2026-04-29T15:28:07.112Z</time></trkpt><trkpt lat="37.82963" lon="-0.2657778"><ele>0.0</ele><time>2026-04-29T15:28:08.118Z</time></trkpt><trkpt lat="37.8297094" lon="-0.2657216"><ele>0.0</ele><time>2026-04-29T15:28:09.125Z</time></trkpt><trkpt lat="37.8297779" lon="-0.2656415"><ele>0.0</ele><time>2026-04-29T15:28:11.136Z</time></trkpt><trkpt lat="37.8299671" lon="-0.2655312"><ele>0.0</ele><time>2026-04-29T15:28:13.148Z</time></trkpt><trkpt lat="37.8300587" lon="-0.2654951"><ele>0.0</ele><time>2026-04-29T15:28:14.154Z</time></trkpt><trkpt lat="37.8301365" lon="-0.2654289"><ele>0.0</ele><time>2026-04-29T15:28:15.16Z</time></trkpt><trkpt lat="37.8302088" lon="-0.2652874"><ele>0.0</ele><time>2026-04-29T15:28:17.173Z</time></trkpt><trkpt lat="37.8303082" lon="-0.2652044"><ele>0.0</ele><time>2026-04-29T15:28:18.178Z</time></trkpt><trkpt lat="37.8303938" lon="-0.2651505"><ele>0.0</ele><time>2026-04-29T15:28:19.083Z</time></trkpt><trkpt lat="37.8306122" lon="-0.2648803"><ele>0.0</ele><time>2026-04-29T15:28:23.108Z</time></trkpt><trkpt lat="37.8307982" lon="-0.2647836"><ele>0.0</ele><time>2026-04-29T15:28:25.076Z</time></trkpt><trkpt lat="37.8308675" lon="-0.264698"><ele>0.0</ele><time>2026-04-29T15:28:26.076Z</time></trkpt><trkpt lat="37.8309415" lon="-0.2646535"><ele>0.0</ele><time>2026-04-29T15:28:27.076Z</time></trkpt><trkpt lat="37.8310119" lon="-0.2645878"><ele>0.0</ele><time>2026-04-29T15:28:28.076Z</time></trkpt><trkpt lat="37.8310832" lon="-0.2645254"><ele>0.0</ele><time>2026-04-29T15:28:29.075Z</time></trkpt><trkpt lat="37.8312346" lon="-0.2643866"><ele>0.0</ele><time>2026-04-29T15:28:31.076Z</time></trkpt><trkpt lat="37.8313088" lon="-0.2643169"><ele>0.0</ele><time>2026-04-29T15:28:32.076Z</time></trkpt><trkpt lat="37.8314498" lon="-0.2641743"><ele>0.0</ele><time>2026-04-29T15:28:34.076Z</time></trkpt><trkpt lat="37.8315223" lon="-0.2641134"><ele>0.0</ele><time>2026-04-29T15:28:35.075Z</time></trkpt><trkpt lat="37.8315939" lon="-0.2640904"><ele>0.0</ele><time>2026-04-29T15:28:36.075Z</time></trkpt><trkpt lat="37.8316744" lon="-0.2640511"><ele>0.0</ele><time>2026-04-29T15:28:37.075Z</time></trkpt><trkpt lat="37.8317532" lon="-0.2640018"><ele>0.0</ele><time>2026-04-29T15:28:38.075Z</time></trkpt><trkpt lat="37.8318399" lon="-0.2639376"><ele>0.0</ele><time>2026-04-29T15:28:39.075Z</time></trkpt><trkpt lat="37.8319255" lon="-0.2639013"><ele>0.0</ele><time>2026-04-29T15:28:40.076Z</time></trkpt><trkpt lat="37.8320087" lon="-0.2638706"><ele>0.0</ele><time>2026-04-29T15:28:41.075Z</time></trkpt><trkpt lat="37.8321519" lon="-0.2637531"><ele>0.0</ele><time>2026-04-29T15:28:43.075Z</time></trkpt><trkpt lat="37.8322237" lon="-0.2637023"><ele>0.0</ele><time>2026-04-29T15:28:44.076Z</time></trkpt><trkpt lat="37.8322968" lon="-0.2636452"><ele>0.0</ele><time>2026-04-29T15:28:45.076Z</time></trkpt><trkpt lat="37.8325388" lon="-0.2634804"><ele>0.0</ele><time>2026-04-29T15:28:49.103Z</time></trkpt><trkpt lat="37.8327682" lon="-0.2632965"><ele>0.0</ele><time>2026-04-29T15:28:51.115Z</time></trkpt><trkpt lat="37.8328527" lon="-0.2632209"><ele>0.0</ele><time>2026-04-29T15:28:52.121Z</time></trkpt><trkpt lat="37.8329312" lon="-0.2631525"><ele>0.0</ele><time>2026-04-29T15:28:53.125Z</time></trkpt><trkpt lat="37.8330038" lon="-0.2630884"><ele>0.0</ele><time>2026-04-29T15:28:54.131Z</time></trkpt><trkpt lat="37.8330661" lon="-0.263005"><ele>0.0</ele><time>2026-04-29T15:28:55.137Z</time></trkpt><trkpt lat="37.8331462" lon="-0.2628798"><ele>0.0</ele><time>2026-04-29T15:28:57.15Z</time></trkpt><trkpt lat="37.83325" lon="-0.262799"><ele>0.0</ele><time>2026-04-29T15:28:58.155Z</time></trkpt><trkpt lat="37.8334083" lon="-0.2627003"><ele>0.0</ele><time>2026-04-29T15:29:00.167Z</time></trkpt><trkpt lat="37.8334925" lon="-0.2626531"><ele>0.0</ele><time>2026-04-29T15:29:01.173Z</time></trkpt><trkpt lat="37.8335772" lon="-0.2626016"><ele>0.0</ele><time>2026-04-29T15:29:02.179Z</time></trkpt><trkpt lat="37.8336532" lon="-0.2625408"><ele>0.0</ele><time>2026-04-29T15:29:03.084Z</time></trkpt><trkpt lat="37.833737" lon="-0.2624779"><ele>0.0</ele><time>2026-04-29T15:29:04.09Z</time></trkpt><trkpt lat="37.8338126" lon="-0.2623939"><ele>0.0</ele><time>2026-04-29T15:29:05.096Z</time></trkpt><trkpt lat="37.8339746" lon="-0.262241"><ele>0.0</ele><time>2026-04-29T15:29:07.108Z</time></trkpt><trkpt lat="37.8340586" lon="-0.2621686"><ele>0.0</ele><time>2026-04-29T15:29:08.114Z</time></trkpt><trkpt lat="37.8341305" lon="-0.2621359"><ele>0.0</ele><time>2026-04-29T15:29:09.075Z</time></trkpt><trkpt lat="37.8342168" lon="-0.2620914"><ele>0.0</ele><time>2026-04-29T15:29:10.076Z</time></trkpt><trkpt lat="37.8342951" lon="-0.2620748"><ele>0.0</ele><time>2026-04-29T15:29:11.075Z</time></trkpt><trkpt lat="37.8344796" lon="-0.2620202"><ele>0.0</ele><time>2026-04-29T15:29:13.076Z</time></trkpt><trkpt lat="37.8345603" lon="-0.2620155"><ele>0.0</ele><time>2026-04-29T15:29:14.076Z</time></trkpt><trkpt lat="37.8346471" lon="-0.2619674"><ele>0.0</ele><time>2026-04-29T15:29:15.076Z</time></trkpt><trkpt lat="37.8348266" lon="-0.2618577"><ele>0.0</ele><time>2026-04-29T15:29:17.075Z</time></trkpt><trkpt lat="37.83491" lon="-0.2617812"><ele>0.0</ele><time>2026-04-29T15:29:18.075Z</time></trkpt><trkpt lat="37.8349721" lon="-0.2616997"><ele>0.0</ele><time>2026-04-29T15:29:19.075Z</time></trkpt><trkpt lat="37.8350404" lon="-0.2616288"><ele>0.0</ele><time>2026-04-29T15:29:20.075Z</time></trkpt><trkpt lat="37.8351102" lon="-0.2615729"><ele>0.0</ele><time>2026-04-29T15:29:21.075Z</time></trkpt><trkpt lat="37.8352153" lon="-0.2614506"><ele>0.0</ele><time>2026-04-29T15:29:23.076Z</time></trkpt><trkpt lat="37.8352877" lon="-0.2613864"><ele>0.0</ele><time>2026-04-29T15:29:24.075Z</time></trkpt><trkpt lat="37.8353655" lon="-0.2613262"><ele>0.0</ele><time>2026-04-29T15:29:25.076Z</time></trkpt><trkpt lat="37.8355283" lon="-0.2612193"><ele>0.0</ele><time>2026-04-29T15:29:27.075Z</time></trkpt><trkpt lat="37.8356827" lon="-0.2610624"><ele>0.0</ele><time>2026-04-29T15:29:29.075Z</time></trkpt><trkpt lat="37.8357314" lon="-0.2609038"><ele>0.0</ele><time>2026-04-29T15:29:32.194Z</time></trkpt><trkpt lat="37.8360379" lon="-0.2606735"><ele>0.0</ele><time>2026-04-29T15:29:34.104Z</time></trkpt><trkpt lat="37.8361063" lon="-0.2605663"><ele>0.0</ele><time>2026-04-29T15:29:35.11Z</time></trkpt><trkpt lat="37.8362319" lon="-0.2603857"><ele>0.0</ele><time>2026-04-29T15:29:37.122Z</time></trkpt><trkpt lat="37.8363094" lon="-0.2603201"><ele>0.0</ele><time>2026-04-29T15:29:38.129Z</time></trkpt><trkpt lat="37.8363738" lon="-0.260228"><ele>0.0</ele><time>2026-04-29T15:29:39.134Z</time></trkpt><trkpt lat="37.836431" lon="-0.2601325"><ele>0.0</ele><time>2026-04-29T15:29:40.14Z</time></trkpt><trkpt lat="37.8365057" lon="-0.260062"><ele>0.0</ele><time>2026-04-29T15:29:41.146Z</time></trkpt><trkpt lat="37.8365908" lon="-0.2600051"><ele>0.0</ele><time>2026-04-29T15:29:42.152Z</time></trkpt><trkpt lat="37.8366744" lon="-0.2599521"><ele>0.0</ele><time>2026-04-29T15:29:43.159Z</time></trkpt><trkpt lat="37.8369325" lon="-0.2597674"><ele>0.0</ele><time>2026-04-29T15:29:47.082Z</time></trkpt><trkpt lat="37.8371278" lon="-0.2596616"><ele>0.0</ele><time>2026-04-29T15:29:49.193Z</time></trkpt><trkpt lat="37.8372199" lon="-0.2596153"><ele>0.0</ele><time>2026-04-29T15:29:50.1Z</time></trkpt><trkpt lat="37.8373022" lon="-0.259552"><ele>0.0</ele><time>2026-04-29T15:29:51.105Z</time></trkpt><trkpt lat="37.83737" lon="-0.2594643"><ele>0.0</ele><time>2026-04-29T15:29:52.111Z</time></trkpt><trkpt lat="37.8374423" lon="-0.2593842"><ele>0.0</ele><time>2026-04-29T15:29:53.116Z</time></trkpt><trkpt lat="37.8374976" lon="-0.2593395"><ele>0.0</ele><time>2026-04-29T15:29:54.075Z</time></trkpt><trkpt lat="37.8375364" lon="-0.2592528"><ele>0.0</ele><time>2026-04-29T15:29:55.128Z</time></trkpt><trkpt lat="37.8376336" lon="-0.2591664"><ele>0.0</ele><time>2026-04-29T15:29:56.134Z</time></trkpt><trkpt lat="37.8377324" lon="-0.2591109"><ele>0.0</ele><time>2026-04-29T15:29:57.14Z</time></trkpt><trkpt lat="37.8378217" lon="-0.2590515"><ele>0.0</ele><time>2026-04-29T15:29:58.146Z</time></trkpt><trkpt lat="37.8379106" lon="-0.2589868"><ele>0.0</ele><time>2026-04-29T15:29:59.152Z</time></trkpt><trkpt lat="37.8380573" lon="-0.2588051"><ele>0.0</ele><time>2026-04-29T15:30:01.164Z</time></trkpt><trkpt lat="37.8382244" lon="-0.2586658"><ele>0.0</ele><time>2026-04-29T15:30:04.074Z</time></trkpt><trkpt lat="37.8383129" lon="-0.2586087"><ele>0.0</ele><time>2026-04-29T15:30:05.074Z</time></trkpt><trkpt lat="37.8384508" lon="-0.2584803"><ele>0.0</ele><time>2026-04-29T15:30:07.075Z</time></trkpt><trkpt lat="37.8385233" lon="-0.2584229"><ele>0.0</ele><time>2026-04-29T15:30:08.074Z</time></trkpt><trkpt lat="37.8385981" lon="-0.2583677"><ele>0.0</ele><time>2026-04-29T15:30:09.075Z</time></trkpt><trkpt lat="37.838744" lon="-0.2582548"><ele>0.0</ele><time>2026-04-29T15:30:11.074Z</time></trkpt><trkpt lat="37.8388199" lon="-0.2581939"><ele>0.0</ele><time>2026-04-29T15:30:12.075Z</time></trkpt><trkpt lat="37.8388922" lon="-0.2581247"><ele>0.0</ele><time>2026-04-29T15:30:13.074Z</time></trkpt><trkpt lat="37.8389614" lon="-0.2580687"><ele>0.0</ele><time>2026-04-29T15:30:14.074Z</time></trkpt><trkpt lat="37.8390211" lon="-0.2580126"><ele>0.0</ele><time>2026-04-29T15:30:15.075Z</time></trkpt><trkpt lat="37.839167" lon="-0.2579051"><ele>0.0</ele><time>2026-04-29T15:30:17.074Z</time></trkpt><trkpt lat="37.8392474" lon="-0.2578551"><ele>0.0</ele><time>2026-04-29T15:30:18.075Z</time></trkpt><trkpt lat="37.8393246" lon="-0.2577923"><ele>0.0</ele><time>2026-04-29T15:30:19.075Z</time></trkpt><trkpt lat="37.8393984" lon="-0.2577274"><ele>0.0</ele><time>2026-04-29T15:30:20.074Z</time></trkpt><trkpt lat="37.8394733" lon="-0.2576584"><ele>0.0</ele><time>2026-04-29T15:30:21.075Z</time></trkpt><trkpt lat="37.8395469" lon="-0.2575744"><ele>0.0</ele><time>2026-04-29T15:30:22.074Z</time></trkpt><trkpt lat="37.8396217" lon="-0.257508"><ele>0.0</ele><time>2026-04-29T15:30:23.074Z</time></trkpt><trkpt lat="37.8396942" lon="-0.2574458"><ele>0.0</ele><time>2026-04-29T15:30:24.074Z</time></trkpt><trkpt lat="37.839753" lon="-0.2573819"><ele>0.0</ele><time>2026-04-29T15:30:26.157Z</time></trkpt><trkpt lat="37.839851" lon="-0.2572849"><ele>0.0</ele><time>2026-04-29T15:30:27.163Z</time></trkpt><trkpt lat="37.8399699" lon="-0.2572439"><ele>0.0</ele><time>2026-04-29T15:30:28.169Z</time></trkpt><trkpt lat="37.8400588" lon="-0.2571937"><ele>0.0</ele><time>2026-04-29T15:30:29.074Z</time></trkpt><trkpt lat="37.8401471" lon="-0.2571305"><ele>0.0</ele><time>2026-04-29T15:30:30.081Z</time></trkpt><trkpt lat="37.8403203" lon="-0.2570161"><ele>0.0</ele><time>2026-04-29T15:30:32.093Z</time></trkpt><trkpt lat="37.8404057" lon="-0.2569669"><ele>0.0</ele><time>2026-04-29T15:30:34.105Z</time></trkpt><trkpt lat="37.8405423" lon="-0.2569397"><ele>0.0</ele><time>2026-04-29T15:30:35.111Z</time></trkpt><trkpt lat="37.8406367" lon="-0.2568689"><ele>0.0</ele><time>2026-04-29T15:30:36.116Z</time></trkpt><trkpt lat="37.8407123" lon="-0.2567831"><ele>0.0</ele><time>2026-04-29T15:30:37.122Z</time></trkpt><trkpt lat="37.8407836" lon="-0.2567119"><ele>0.0</ele><time>2026-04-29T15:30:38.128Z</time></trkpt><trkpt lat="37.8408736" lon="-0.2566783"><ele>0.0</ele><time>2026-04-29T15:30:39.135Z</time></trkpt><trkpt lat="37.8409637" lon="-0.256638"><ele>0.0</ele><time>2026-04-29T15:30:40.14Z</time></trkpt><trkpt lat="37.8411696" lon="-0.2564781"><ele>0.0</ele><time>2026-04-29T15:30:43.159Z</time></trkpt><trkpt lat="37.8412549" lon="-0.25643"><ele>0.0</ele><time>2026-04-29T15:30:44.164Z</time></trkpt><trkpt lat="37.841317" lon="-0.256356"><ele>0.0</ele><time>2026-04-29T15:30:45.075Z</time></trkpt><trkpt lat="37.8413896" lon="-0.2562794"><ele>0.0</ele><time>2026-04-29T15:30:46.075Z</time></trkpt><trkpt lat="37.8416215" lon="-0.2561179"><ele>0.0</ele><time>2026-04-29T15:30:50.1Z</time></trkpt><trkpt lat="37.8417108" lon="-0.2560352"><ele>0.0</ele><time>2026-04-29T15:30:51.105Z</time></trkpt><trkpt lat="37.8419345" lon="-0.2557752"><ele>0.0</ele><time>2026-04-29T15:30:54.122Z</time></trkpt><trkpt lat="37.8420108" lon="-0.2556933"><ele>0.0</ele><time>2026-04-29T15:30:55.129Z</time></trkpt><trkpt lat="37.8420871" lon="-0.2556187"><ele>0.0</ele><time>2026-04-29T15:30:56.134Z</time></trkpt><trkpt lat="37.8421384" lon="-0.2555589"><ele>0.0</ele><time>2026-04-29T15:30:57.074Z</time></trkpt><trkpt lat="37.8421748" lon="-0.2554748"><ele>0.0</ele><time>2026-04-29T15:30:58.146Z</time></trkpt><trkpt lat="37.8422593" lon="-0.2553701"><ele>0.0</ele><time>2026-04-29T15:30:59.152Z</time></trkpt><trkpt lat="37.8423392" lon="-0.2552955"><ele>0.0</ele><time>2026-04-29T15:31:00.158Z</time></trkpt><trkpt lat="37.8425057" lon="-0.2551683"><ele>0.0</ele><time>2026-04-29T15:31:02.171Z</time></trkpt><trkpt lat="37.8425893" lon="-0.2551269"><ele>0.0</ele><time>2026-04-29T15:31:03.076Z</time></trkpt><trkpt lat="37.8426763" lon="-0.2550933"><ele>0.0</ele><time>2026-04-29T15:31:04.081Z</time></trkpt><trkpt lat="37.8427638" lon="-0.255048"><ele>0.0</ele><time>2026-04-29T15:31:05.088Z</time></trkpt><trkpt lat="37.8428677" lon="-0.254954"><ele>0.0</ele><time>2026-04-29T15:31:07.1Z</time></trkpt><trkpt lat="37.8429689" lon="-0.2548935"><ele>0.0</ele><time>2026-04-29T15:31:08.105Z</time></trkpt><trkpt lat="37.8430606" lon="-0.254798"><ele>0.0</ele><time>2026-04-29T15:31:10.118Z</time></trkpt><trkpt lat="37.8431992" lon="-0.2547705"><ele>0.0</ele><time>2026-04-29T15:31:11.123Z</time></trkpt><trkpt lat="37.843292" lon="-0.2547209"><ele>0.0</ele><time>2026-04-29T15:31:12.129Z</time></trkpt><trkpt lat="37.8434706" lon="-0.2545843"><ele>0.0</ele><time>2026-04-29T15:31:14.141Z</time></trkpt><trkpt lat="37.843688" lon="-0.2543691"><ele>0.0</ele><time>2026-04-29T15:31:17.16Z</time></trkpt><trkpt lat="37.843778" lon="-0.2543197"><ele>0.0</ele><time>2026-04-29T15:31:18.166Z</time></trkpt><trkpt lat="37.8438567" lon="-0.2542726"><ele>0.0</ele><time>2026-04-29T15:31:19.17Z</time></trkpt><trkpt lat="37.8439294" lon="-0.2541086"><ele>0.0</ele><time>2026-04-29T15:31:22.089Z</time></trkpt><trkpt lat="37.8440343" lon="-0.2540457"><ele>0.0</ele><time>2026-04-29T15:31:23.094Z</time></trkpt><trkpt lat="37.8441627" lon="-0.2539925"><ele>0.0</ele><time>2026-04-29T15:31:24.101Z</time></trkpt><trkpt lat="37.8442701" lon="-0.2539427"><ele>0.0</ele><time>2026-04-29T15:31:25.107Z</time></trkpt><trkpt lat="37.8444672" lon="-0.2538262"><ele>0.0</ele><time>2026-04-29T15:31:27.118Z</time></trkpt><trkpt lat="37.8445471" lon="-0.2537469"><ele>0.0</ele><time>2026-04-29T15:31:28.123Z</time></trkpt><trkpt lat="37.8446303" lon="-0.2536833"><ele>0.0</ele><time>2026-04-29T15:31:29.129Z</time></trkpt><trkpt lat="37.8447003" lon="-0.2536039"><ele>0.0</ele><time>2026-04-29T15:31:30.136Z</time></trkpt><trkpt lat="37.8447791" lon="-0.2534938"><ele>0.0</ele><time>2026-04-29T15:31:32.147Z</time></trkpt><trkpt lat="37.8448967" lon="-0.2534611"><ele>0.0</ele><time>2026-04-29T15:31:33.153Z</time></trkpt><trkpt lat="37.8449935" lon="-0.253447"><ele>0.0</ele><time>2026-04-29T15:31:34.159Z</time></trkpt><trkpt lat="37.8450729" lon="-0.2533851"><ele>0.0</ele><time>2026-04-29T15:31:35.165Z</time></trkpt><trkpt lat="37.8451414" lon="-0.2533086"><ele>0.0</ele><time>2026-04-29T15:31:36.172Z</time></trkpt><trkpt lat="37.8453871" lon="-0.2531392"><ele>0.0</ele><time>2026-04-29T15:31:39.089Z</time></trkpt><trkpt lat="37.8454536" lon="-0.2530184"><ele>0.0</ele><time>2026-04-29T15:31:41.101Z</time></trkpt><trkpt lat="37.8455546" lon="-0.2529551"><ele>0.0</ele><time>2026-04-29T15:31:42.106Z</time></trkpt><trkpt lat="37.8456374" lon="-0.2528988"><ele>0.0</ele><time>2026-04-29T15:31:43.113Z</time></trkpt><trkpt lat="37.8457107" lon="-0.2528334"><ele>0.0</ele><time>2026-04-29T15:31:44.118Z</time></trkpt><trkpt lat="37.8457753" lon="-0.2527559"><ele>0.0</ele><time>2026-04-29T15:31:45.124Z</time></trkpt><trkpt lat="37.8459158" lon="-0.2526729"><ele>0.0</ele><time>2026-04-29T15:31:47.075Z</time></trkpt><trkpt lat="37.8459509" lon="-0.2525965"><ele>0.0</ele><time>2026-04-29T15:31:48.142Z</time></trkpt><trkpt lat="37.8460562" lon="-0.2525151"><ele>0.0</ele><time>2026-04-29T15:31:49.149Z</time></trkpt><trkpt lat="37.8462496" lon="-0.2524193"><ele>0.0</ele><time>2026-04-29T15:31:51.16Z</time></trkpt><trkpt lat="37.8463256" lon="-0.2523909"><ele>0.0</ele><time>2026-04-29T15:31:52.075Z</time></trkpt><trkpt lat="37.8463671" lon="-0.252308"><ele>0.0</ele><time>2026-04-29T15:31:53.172Z</time></trkpt><trkpt lat="37.8464767" lon="-0.2522379"><ele>0.0</ele><time>2026-04-29T15:31:54.177Z</time></trkpt><trkpt lat="37.8465818" lon="-0.2521955"><ele>0.0</ele><time>2026-04-29T15:31:55.183Z</time></trkpt><trkpt lat="37.8466752" lon="-0.2521373"><ele>0.0</ele><time>2026-04-29T15:31:56.189Z</time></trkpt><trkpt lat="37.8467667" lon="-0.2520981"><ele>0.0</ele><time>2026-04-29T15:31:57.096Z</time></trkpt><trkpt lat="37.846857" lon="-0.2520398"><ele>0.0</ele><time>2026-04-29T15:31:58.1Z</time></trkpt><trkpt lat="37.8470991" lon="-0.2517937"><ele>0.0</ele><time>2026-04-29T15:32:01.118Z</time></trkpt><trkpt lat="37.8471532" lon="-0.2517419"><ele>0.0</ele><time>2026-04-29T15:32:02.075Z</time></trkpt><trkpt lat="37.8471953" lon="-0.2516551"><ele>0.0</ele><time>2026-04-29T15:32:03.131Z</time></trkpt><trkpt lat="37.8473887" lon="-0.2515508"><ele>0.0</ele><time>2026-04-29T15:32:05.142Z</time></trkpt><trkpt lat="37.8474526" lon="-0.2514705"><ele>0.0</ele><time>2026-04-29T15:32:06.148Z</time></trkpt><trkpt lat="37.8475111" lon="-0.2513834"><ele>0.0</ele><time>2026-04-29T15:32:07.154Z</time></trkpt><trkpt lat="37.8476355" lon="-0.2512538"><ele>0.0</ele><time>2026-04-29T15:32:10.173Z</time></trkpt><trkpt lat="37.8477577" lon="-0.2512034"><ele>0.0</ele><time>2026-04-29T15:32:11.078Z</time></trkpt><trkpt lat="37.8478391" lon="-0.2510935"><ele>0.0</ele><time>2026-04-29T15:32:12.185Z</time></trkpt><trkpt lat="37.8479044" lon="-0.2509971"><ele>0.0</ele><time>2026-04-29T15:32:13.09Z</time></trkpt><trkpt lat="37.8479949" lon="-0.2509497"><ele>0.0</ele><time>2026-04-29T15:32:14.095Z</time></trkpt><trkpt lat="37.8480854" lon="-0.2508986"><ele>0.0</ele><time>2026-04-29T15:32:15.102Z</time></trkpt><trkpt lat="37.8481651" lon="-0.2507729"><ele>0.0</ele><time>2026-04-29T15:32:17.113Z</time></trkpt><trkpt lat="37.8482564" lon="-0.2506884"><ele>0.0</ele><time>2026-04-29T15:32:18.12Z</time></trkpt><trkpt lat="37.848409" lon="-0.2506873"><ele>0.0</ele><time>2026-04-29T15:32:20.075Z</time></trkpt><trkpt lat="37.8486614" lon="-0.250522"><ele>0.0</ele><time>2026-04-29T15:32:23.15Z</time></trkpt><trkpt lat="37.8487458" lon="-0.2504693"><ele>0.0</ele><time>2026-04-29T15:32:24.154Z</time></trkpt><trkpt lat="37.8487918" lon="-0.2503785"><ele>0.0</ele><time>2026-04-29T15:32:25.075Z</time></trkpt><trkpt lat="37.8489373" lon="-0.2501965"><ele>0.0</ele><time>2026-04-29T15:32:27.173Z</time></trkpt><trkpt lat="37.8490394" lon="-0.2501432"><ele>0.0</ele><time>2026-04-29T15:32:28.179Z</time></trkpt><trkpt lat="37.8491178" lon="-0.2500616"><ele>0.0</ele><time>2026-04-29T15:32:29.184Z</time></trkpt><trkpt lat="37.849269" lon="-0.2499254"><ele>0.0</ele><time>2026-04-29T15:32:31.096Z</time></trkpt><trkpt lat="37.8493472" lon="-0.2498548"><ele>0.0</ele><time>2026-04-29T15:32:32.102Z</time></trkpt><trkpt lat="37.8494088" lon="-0.2497603"><ele>0.0</ele><time>2026-04-29T15:32:33.108Z</time></trkpt><trkpt lat="37.8495473" lon="-0.2495848"><ele>0.0</ele><time>2026-04-29T15:32:35.119Z</time></trkpt><trkpt lat="37.8496027" lon="-0.2495144"><ele>0.0</ele><time>2026-04-29T15:32:36.075Z</time></trkpt><trkpt lat="37.8496367" lon="-0.2494279"><ele>0.0</ele><time>2026-04-29T15:32:37.132Z</time></trkpt><trkpt lat="37.8498076" lon="-0.2492655"><ele>0.0</ele><time>2026-04-29T15:32:39.143Z</time></trkpt><trkpt lat="37.8498817" lon="-0.2491831"><ele>0.0</ele><time>2026-04-29T15:32:40.149Z</time></trkpt><trkpt lat="37.8499656" lon="-0.249109"><ele>0.0</ele><time>2026-04-29T15:32:41.155Z</time></trkpt><trkpt lat="37.850176" lon="-0.2488974"><ele>0.0</ele><time>2026-04-29T15:32:44.075Z</time></trkpt><trkpt lat="37.8502485" lon="-0.2488125"><ele>0.0</ele><time>2026-04-29T15:32:45.18Z</time></trkpt><trkpt lat="37.8504097" lon="-0.2487"><ele>0.0</ele><time>2026-04-29T15:32:47.091Z</time></trkpt><trkpt lat="37.8504922" lon="-0.2486435"><ele>0.0</ele><time>2026-04-29T15:32:48.096Z</time></trkpt><trkpt lat="37.8505643" lon="-0.2485659"><ele>0.0</ele><time>2026-04-29T15:32:49.102Z</time></trkpt><trkpt lat="37.8506893" lon="-0.2484318"><ele>0.0</ele><time>2026-04-29T15:32:52.12Z</time></trkpt><trkpt lat="37.8507821" lon="-0.248326"><ele>0.0</ele><time>2026-04-29T15:32:53.126Z</time></trkpt><trkpt lat="37.8508634" lon="-0.2482348"><ele>0.0</ele><time>2026-04-29T15:32:54.133Z</time></trkpt><trkpt lat="37.8509407" lon="-0.2481449"><ele>0.0</ele><time>2026-04-29T15:32:55.139Z</time></trkpt><trkpt lat="37.85113" lon="-0.2480295"><ele>0.0</ele><time>2026-04-29T15:32:57.151Z</time></trkpt><trkpt lat="37.8512177" lon="-0.2479628"><ele>0.0</ele><time>2026-04-29T15:32:58.156Z</time></trkpt><trkpt lat="37.8512613" lon="-0.2478993"><ele>0.0</ele><time>2026-04-29T15:32:59.074Z</time></trkpt><trkpt lat="37.851409" lon="-0.2477384"><ele>0.0</ele><time>2026-04-29T15:33:01.174Z</time></trkpt><trkpt lat="37.8515042" lon="-0.2477132"><ele>0.0</ele><time>2026-04-29T15:33:02.079Z</time></trkpt><trkpt lat="37.851614" lon="-0.2477245"><ele>0.0</ele><time>2026-04-29T15:33:05.097Z</time></trkpt><trkpt lat="37.8518744" lon="-0.2474394"><ele>0.0</ele><time>2026-04-29T15:33:07.109Z</time></trkpt><trkpt lat="37.8519622" lon="-0.2473626"><ele>0.0</ele><time>2026-04-29T15:33:08.115Z</time></trkpt><trkpt lat="37.8520297" lon="-0.2472563"><ele>0.0</ele><time>2026-04-29T15:33:09.121Z</time></trkpt><trkpt lat="37.8521682" lon="-0.2470814"><ele>0.0</ele><time>2026-04-29T15:33:11.133Z</time></trkpt><trkpt lat="37.8522362" lon="-0.2470029"><ele>0.0</ele><time>2026-04-29T15:33:12.14Z</time></trkpt><trkpt lat="37.8523015" lon="-0.2469259"><ele>0.0</ele><time>2026-04-29T15:33:13.145Z</time></trkpt><trkpt lat="37.8523721" lon="-0.2468433"><ele>0.0</ele><time>2026-04-29T15:33:14.151Z</time></trkpt><trkpt lat="37.8524407" lon="-0.2467609"><ele>0.0</ele><time>2026-04-29T15:33:15.156Z</time></trkpt><trkpt lat="37.8525291" lon="-0.246627"><ele>0.0</ele><time>2026-04-29T15:33:17.169Z</time></trkpt><trkpt lat="37.8526263" lon="-0.2465432"><ele>0.0</ele><time>2026-04-29T15:33:18.174Z</time></trkpt><trkpt lat="37.8527094" lon="-0.24648"><ele>0.0</ele><time>2026-04-29T15:33:19.08Z</time></trkpt><trkpt lat="37.8527942" lon="-0.2464195"><ele>0.0</ele><time>2026-04-29T15:33:20.086Z</time></trkpt><trkpt lat="37.8528677" lon="-0.2463432"><ele>0.0</ele><time>2026-04-29T15:33:21.093Z</time></trkpt><trkpt lat="37.8529718" lon="-0.2461826"><ele>0.0</ele><time>2026-04-29T15:33:23.074Z</time></trkpt><trkpt lat="37.853002" lon="-0.246099"><ele>0.0</ele><time>2026-04-29T15:33:24.11Z</time></trkpt><trkpt lat="37.8532189" lon="-0.2459826"><ele>0.0</ele><time>2026-04-29T15:33:26.121Z</time></trkpt><trkpt lat="37.8534855" lon="-0.2458179"><ele>0.0</ele><time>2026-04-29T15:33:29.139Z</time></trkpt><trkpt lat="37.8535627" lon="-0.2457359"><ele>0.0</ele><time>2026-04-29T15:33:30.146Z</time></trkpt><trkpt lat="37.8536521" lon="-0.2456059"><ele>0.0</ele><time>2026-04-29T15:33:32.158Z</time></trkpt><trkpt lat="37.8537569" lon="-0.2455277"><ele>0.0</ele><time>2026-04-29T15:33:33.163Z</time></trkpt><trkpt lat="37.8538552" lon="-0.2454893"><ele>0.0</ele><time>2026-04-29T15:33:34.169Z</time></trkpt><trkpt lat="37.853938" lon="-0.2454417"><ele>0.0</ele><time>2026-04-29T15:33:35.175Z</time></trkpt><trkpt lat="37.854017" lon="-0.2453929"><ele>0.0</ele><time>2026-04-29T15:33:36.08Z</time></trkpt><trkpt lat="37.854071" lon="-0.2453427"><ele>0.0</ele><time>2026-04-29T15:33:37.075Z</time></trkpt><trkpt lat="37.8541113" lon="-0.2452577"><ele>0.0</ele><time>2026-04-29T15:33:38.093Z</time></trkpt><trkpt lat="37.8542053" lon="-0.2451819"><ele>0.0</ele><time>2026-04-29T15:33:39.098Z</time></trkpt><trkpt lat="37.8542846" lon="-0.2451316"><ele>0.0</ele><time>2026-04-29T15:33:40.104Z</time></trkpt><trkpt lat="37.8543749" lon="-0.2450943"><ele>0.0</ele><time>2026-04-29T15:33:41.11Z</time></trkpt><trkpt lat="37.8544612" lon="-0.2449669"><ele>0.0</ele><time>2026-04-29T15:33:43.122Z</time></trkpt><trkpt lat="37.8545515" lon="-0.2448835"><ele>0.0</ele><time>2026-04-29T15:33:44.129Z</time></trkpt><trkpt lat="37.8546436" lon="-0.2448297"><ele>0.0</ele><time>2026-04-29T15:33:45.134Z</time></trkpt><trkpt lat="37.8547352" lon="-0.2447835"><ele>0.0</ele><time>2026-04-29T15:33:46.14Z</time></trkpt><trkpt lat="37.8548273" lon="-0.2446667"><ele>0.0</ele><time>2026-04-29T15:33:48.151Z</time></trkpt><trkpt lat="37.8550455" lon="-0.2446419"><ele>0.0</ele><time>2026-04-29T15:33:50.163Z</time></trkpt><trkpt lat="37.8551286" lon="-0.2445733"><ele>0.0</ele><time>2026-04-29T15:33:51.169Z</time></trkpt><trkpt lat="37.8552102" lon="-0.2445114"><ele>0.0</ele><time>2026-04-29T15:33:52.175Z</time></trkpt><trkpt lat="37.8552873" lon="-0.2444537"><ele>0.0</ele><time>2026-04-29T15:33:53.082Z</time></trkpt><trkpt lat="37.8553563" lon="-0.2444221"><ele>0.0</ele><time>2026-04-29T15:33:54.074Z</time></trkpt><trkpt lat="37.8555221" lon="-0.2443084"><ele>0.0</ele><time>2026-04-29T15:33:56.199Z</time></trkpt><trkpt lat="37.8556892" lon="-0.2441759"><ele>0.0</ele><time>2026-04-29T15:33:58.111Z</time></trkpt><trkpt lat="37.8557927" lon="-0.244168"><ele>0.0</ele><time>2026-04-29T15:33:59.117Z</time></trkpt><trkpt lat="37.8558501" lon="-0.2441179"><ele>0.0</ele><time>2026-04-29T15:34:00.073Z</time></trkpt><trkpt lat="37.8558978" lon="-0.2440314"><ele>0.0</ele><time>2026-04-29T15:34:01.128Z</time></trkpt><trkpt lat="37.856028" lon="-0.2440377"><ele>0.0</ele><time>2026-04-29T15:34:02.134Z</time></trkpt><trkpt lat="37.8561306" lon="-0.2440538"><ele>0.0</ele><time>2026-04-29T15:34:03.14Z</time></trkpt><trkpt lat="37.8562405" lon="-0.2438894"><ele>0.0</ele><time>2026-04-29T15:34:05.074Z</time></trkpt><trkpt lat="37.8562787" lon="-0.2438061"><ele>0.0</ele><time>2026-04-29T15:34:06.158Z</time></trkpt><trkpt lat="37.8563993" lon="-0.2437655"><ele>0.0</ele><time>2026-04-29T15:34:07.164Z</time></trkpt><trkpt lat="37.8564956" lon="-0.2437324"><ele>0.0</ele><time>2026-04-29T15:34:08.17Z</time></trkpt><trkpt lat="37.8565788" lon="-0.2436729"><ele>0.0</ele><time>2026-04-29T15:34:09.177Z</time></trkpt><trkpt lat="37.8567782" lon="-0.2435196"><ele>0.0</ele><time>2026-04-29T15:34:12.093Z</time></trkpt><trkpt lat="37.8568729" lon="-0.2434835"><ele>0.0</ele><time>2026-04-29T15:34:13.1Z</time></trkpt><trkpt lat="37.8569456" lon="-0.2433982"><ele>0.0</ele><time>2026-04-29T15:34:14.106Z</time></trkpt><trkpt lat="37.8570158" lon="-0.2433165"><ele>0.0</ele><time>2026-04-29T15:34:15.112Z</time></trkpt><trkpt lat="37.8570741" lon="-0.243273"><ele>0.0</ele><time>2026-04-29T15:34:16.074Z</time></trkpt><trkpt lat="37.8571109" lon="-0.2431918"><ele>0.0</ele><time>2026-04-29T15:34:17.124Z</time></trkpt><trkpt lat="37.8573154" lon="-0.243079"><ele>0.0</ele><time>2026-04-29T15:34:19.136Z</time></trkpt><trkpt lat="37.8573997" lon="-0.2430214"><ele>0.0</ele><time>2026-04-29T15:34:20.141Z</time></trkpt><trkpt lat="37.8574862" lon="-0.2429692"><ele>0.0</ele><time>2026-04-29T15:34:21.147Z</time></trkpt><trkpt lat="37.8576193" lon="-0.2428691"><ele>0.0</ele><time>2026-04-29T15:34:23.074Z</time></trkpt><trkpt lat="37.8576612" lon="-0.2427868"><ele>0.0</ele><time>2026-04-29T15:34:24.164Z</time></trkpt><trkpt lat="37.8577621" lon="-0.2427115"><ele>0.0</ele><time>2026-04-29T15:34:25.171Z</time></trkpt><trkpt lat="37.8579386" lon="-0.2426543"><ele>0.0</ele><time>2026-04-29T15:34:27.082Z</time></trkpt><trkpt lat="37.8579987" lon="-0.2426279"><ele>0.0</ele><time>2026-04-29T15:34:28.074Z</time></trkpt><trkpt lat="37.8582418" lon="-0.242487"><ele>0.0</ele><time>2026-04-29T15:34:31.105Z</time></trkpt><trkpt lat="37.8583641" lon="-0.2423669"><ele>0.0</ele><time>2026-04-29T15:34:33.074Z</time></trkpt><trkpt lat="37.858403" lon="-0.2422875"><ele>0.0</ele><time>2026-04-29T15:34:34.124Z</time></trkpt><trkpt lat="37.8585175" lon="-0.2422408"><ele>0.0</ele><time>2026-04-29T15:34:35.129Z</time></trkpt><trkpt lat="37.8586149" lon="-0.2421992"><ele>0.0</ele><time>2026-04-29T15:34:36.135Z</time></trkpt><trkpt lat="37.8586944" lon="-0.2421389"><ele>0.0</ele><time>2026-04-29T15:34:37.141Z</time></trkpt><trkpt lat="37.8587657" lon="-0.2420698"><ele>0.0</ele><time>2026-04-29T15:34:38.148Z</time></trkpt><trkpt lat="37.8588365" lon="-0.2420006"><ele>0.0</ele><time>2026-04-29T15:34:39.154Z</time></trkpt><trkpt lat="37.858927" lon="-0.2419231"><ele>0.0</ele><time>2026-04-29T15:34:41.165Z</time></trkpt><trkpt lat="37.859046" lon="-0.2418638"><ele>0.0</ele><time>2026-04-29T15:34:42.171Z</time></trkpt><trkpt lat="37.859138" lon="-0.2418131"><ele>0.0</ele><time>2026-04-29T15:34:43.177Z</time></trkpt><trkpt lat="37.8592188" lon="-0.2417389"><ele>0.0</ele><time>2026-04-29T15:34:44.183Z</time></trkpt><trkpt lat="37.8592959" lon="-0.2416671"><ele>0.0</ele><time>2026-04-29T15:34:45.088Z</time></trkpt><trkpt lat="37.8593735" lon="-0.2415976"><ele>0.0</ele><time>2026-04-29T15:34:46.094Z</time></trkpt><trkpt lat="37.8595326" lon="-0.2414588"><ele>0.0</ele><time>2026-04-29T15:34:48.107Z</time></trkpt><trkpt lat="37.8596133" lon="-0.2413261"><ele>0.0</ele><time>2026-04-29T15:34:50.118Z</time></trkpt><trkpt lat="37.8598104" lon="-0.2411909"><ele>0.0</ele><time>2026-04-29T15:34:52.131Z</time></trkpt><trkpt lat="37.8599603" lon="-0.2410563"><ele>0.0</ele><time>2026-04-29T15:34:54.141Z</time></trkpt><trkpt lat="37.8600365" lon="-0.2409932"><ele>0.0</ele><time>2026-04-29T15:34:55.147Z</time></trkpt><trkpt lat="37.8601106" lon="-0.2409214"><ele>0.0</ele><time>2026-04-29T15:34:56.154Z</time></trkpt><trkpt lat="37.8601859" lon="-0.2408566"><ele>0.0</ele><time>2026-04-29T15:34:57.159Z</time></trkpt><trkpt lat="37.8602812" lon="-0.2407467"><ele>0.0</ele><time>2026-04-29T15:34:59.172Z</time></trkpt><trkpt lat="37.8603808" lon="-0.2406637"><ele>0.0</ele><time>2026-04-29T15:35:00.177Z</time></trkpt><trkpt lat="37.8605387" lon="-0.2405457"><ele>0.0</ele><time>2026-04-29T15:35:02.088Z</time></trkpt><trkpt lat="37.8606224" lon="-0.2404905"><ele>0.0</ele><time>2026-04-29T15:35:03.095Z</time></trkpt><trkpt lat="37.8607794" lon="-0.2403544"><ele>0.0</ele><time>2026-04-29T15:35:05.106Z</time></trkpt><trkpt lat="37.8608573" lon="-0.2402275"><ele>0.0</ele><time>2026-04-29T15:35:07.118Z</time></trkpt><trkpt lat="37.8609687" lon="-0.2401657"><ele>0.0</ele><time>2026-04-29T15:35:08.124Z</time></trkpt><trkpt lat="37.8610599" lon="-0.2401206"><ele>0.0</ele><time>2026-04-29T15:35:09.13Z</time></trkpt><trkpt lat="37.8611394" lon="-0.2400647"><ele>0.0</ele><time>2026-04-29T15:35:10.136Z</time></trkpt><trkpt lat="37.8612148" lon="-0.239992"><ele>0.0</ele><time>2026-04-29T15:35:11.142Z</time></trkpt><trkpt lat="37.8612901" lon="-0.2399187"><ele>0.0</ele><time>2026-04-29T15:35:12.149Z</time></trkpt><trkpt lat="37.8613554" lon="-0.2398966"><ele>0.0</ele><time>2026-04-29T15:35:13.074Z</time></trkpt><trkpt lat="37.8615033" lon="-0.2397358"><ele>0.0</ele><time>2026-04-29T15:35:15.166Z</time></trkpt><trkpt lat="37.8616032" lon="-0.2396763"><ele>0.0</ele><time>2026-04-29T15:35:16.173Z</time></trkpt><trkpt lat="37.8616884" lon="-0.239612"><ele>0.0</ele><time>2026-04-29T15:35:17.178Z</time></trkpt><trkpt lat="37.8618034" lon="-0.2395064"><ele>0.0</ele><time>2026-04-29T15:35:20.095Z</time></trkpt><trkpt lat="37.8619314" lon="-0.239436"><ele>0.0</ele><time>2026-04-29T15:35:21.101Z</time></trkpt><trkpt lat="37.8620213" lon="-0.2393595"><ele>0.0</ele><time>2026-04-29T15:35:22.107Z</time></trkpt><trkpt lat="37.8621065" lon="-0.2392789"><ele>0.0</ele><time>2026-04-29T15:35:23.114Z</time></trkpt><trkpt lat="37.8622501" lon="-0.2390838"><ele>0.0</ele><time>2026-04-29T15:35:25.125Z</time></trkpt><trkpt lat="37.8623039" lon="-0.2390249"><ele>0.0</ele><time>2026-04-29T15:35:26.073Z</time></trkpt><trkpt lat="37.8623376" lon="-0.2389408"><ele>0.0</ele><time>2026-04-29T15:35:27.136Z</time></trkpt><trkpt lat="37.8624394" lon="-0.2388652"><ele>0.0</ele><time>2026-04-29T15:35:28.142Z</time></trkpt><trkpt lat="37.8625453" lon="-0.2388434"><ele>0.0</ele><time>2026-04-29T15:35:29.148Z</time></trkpt><trkpt lat="37.8626815" lon="-0.2387543"><ele>0.0</ele><time>2026-04-29T15:35:31.074Z</time></trkpt><trkpt lat="37.8627191" lon="-0.2386763"><ele>0.0</ele><time>2026-04-29T15:35:32.166Z</time></trkpt><trkpt lat="37.86282" lon="-0.2386081"><ele>0.0</ele><time>2026-04-29T15:35:33.172Z</time></trkpt><trkpt lat="37.8629063" lon="-0.2385695"><ele>0.0</ele><time>2026-04-29T15:35:34.077Z</time></trkpt><trkpt lat="37.8629994" lon="-0.2385406"><ele>0.0</ele><time>2026-04-29T15:35:35.084Z</time></trkpt><trkpt lat="37.8630847" lon="-0.2384918"><ele>0.0</ele><time>2026-04-29T15:35:36.089Z</time></trkpt><trkpt lat="37.8632714" lon="-0.2382702"><ele>0.0</ele><time>2026-04-29T15:35:39.108Z</time></trkpt><trkpt lat="37.8634218" lon="-0.2381154"><ele>0.0</ele><time>2026-04-29T15:35:41.119Z</time></trkpt><trkpt lat="37.8634936" lon="-0.2380251"><ele>0.0</ele><time>2026-04-29T15:35:42.126Z</time></trkpt><trkpt lat="37.863566" lon="-0.2379379"><ele>0.0</ele><time>2026-04-29T15:35:43.132Z</time></trkpt><trkpt lat="37.8636461" lon="-0.2378713"><ele>0.0</ele><time>2026-04-29T15:35:44.138Z</time></trkpt><trkpt lat="37.8637063" lon="-0.2378355"><ele>0.0</ele><time>2026-04-29T15:35:45.074Z</time></trkpt><trkpt lat="37.8637433" lon="-0.237754"><ele>0.0</ele><time>2026-04-29T15:35:46.149Z</time></trkpt><trkpt lat="37.863963" lon="-0.2377264"><ele>0.0</ele><time>2026-04-29T15:35:48.161Z</time></trkpt><trkpt lat="37.8640559" lon="-0.2376913"><ele>0.0</ele><time>2026-04-29T15:35:49.167Z</time></trkpt><trkpt lat="37.8641331" lon="-0.2376081"><ele>0.0</ele><time>2026-04-29T15:35:50.174Z</time></trkpt><trkpt lat="37.8642604" lon="-0.237443"><ele>0.0</ele><time>2026-04-29T15:35:52.085Z</time></trkpt><trkpt lat="37.8643433" lon="-0.237375"><ele>0.0</ele><time>2026-04-29T15:35:53.09Z</time></trkpt><trkpt lat="37.8644123" lon="-0.2373423"><ele>0.0</ele><time>2026-04-29T15:35:54.073Z</time></trkpt><trkpt lat="37.8644523" lon="-0.2372581"><ele>0.0</ele><time>2026-04-29T15:35:55.102Z</time></trkpt><trkpt lat="37.86462" lon="-0.2371031"><ele>0.0</ele><time>2026-04-29T15:35:57.114Z</time></trkpt><trkpt lat="37.8646955" lon="-0.2370271"><ele>0.0</ele><time>2026-04-29T15:35:58.119Z</time></trkpt><trkpt lat="37.8647723" lon="-0.2369545"><ele>0.0</ele><time>2026-04-29T15:35:59.126Z</time></trkpt><trkpt lat="37.8650439" lon="-0.2367486"><ele>0.0</ele><time>2026-04-29T15:36:03.15Z</time></trkpt><trkpt lat="37.8651301" lon="-0.236666"><ele>0.0</ele><time>2026-04-29T15:36:04.155Z</time></trkpt><trkpt lat="37.8652151" lon="-0.2365863"><ele>0.0</ele><time>2026-04-29T15:36:05.162Z</time></trkpt><trkpt lat="37.8652964" lon="-0.2364962"><ele>0.0</ele><time>2026-04-29T15:36:06.167Z</time></trkpt><trkpt lat="37.8653777" lon="-0.2364214"><ele>0.0</ele><time>2026-04-29T15:36:07.173Z</time></trkpt><trkpt lat="37.8654501" lon="-0.2363976"><ele>0.0</ele><time>2026-04-29T15:36:08.073Z</time></trkpt><trkpt lat="37.865589" lon="-0.2362414"><ele>0.0</ele><time>2026-04-29T15:36:10.09Z</time></trkpt><trkpt lat="37.8657731" lon="-0.236112"><ele>0.0</ele><time>2026-04-29T15:36:12.103Z</time></trkpt><trkpt lat="37.8658589" lon="-0.2360539"><ele>0.0</ele><time>2026-04-29T15:36:13.109Z</time></trkpt><trkpt lat="37.8659428" lon="-0.2359422"><ele>0.0</ele><time>2026-04-29T15:36:15.12Z</time></trkpt><trkpt lat="37.866058" lon="-0.2358787"><ele>0.0</ele><time>2026-04-29T15:36:16.126Z</time></trkpt><trkpt lat="37.8661472" lon="-0.2358253"><ele>0.0</ele><time>2026-04-29T15:36:17.133Z</time></trkpt><trkpt lat="37.8661911" lon="-0.2357347"><ele>0.0</ele><time>2026-04-29T15:36:18.138Z</time></trkpt><trkpt lat="37.8662571" lon="-0.235667"><ele>0.0</ele><time>2026-04-29T15:36:19.145Z</time></trkpt><trkpt lat="37.8663971" lon="-0.2355644"><ele>0.0</ele><time>2026-04-29T15:36:21.073Z</time></trkpt><trkpt lat="37.8665395" lon="-0.2353993"><ele>0.0</ele><time>2026-04-29T15:36:23.167Z</time></trkpt><trkpt lat="37.8666291" lon="-0.2353421"><ele>0.0</ele><time>2026-04-29T15:36:24.173Z</time></trkpt><trkpt lat="37.8667091" lon="-0.2352807"><ele>0.0</ele><time>2026-04-29T15:36:25.18Z</time></trkpt><trkpt lat="37.8667835" lon="-0.2352287"><ele>0.0</ele><time>2026-04-29T15:36:26.085Z</time></trkpt><trkpt lat="37.8668636" lon="-0.2351636"><ele>0.0</ele><time>2026-04-29T15:36:27.091Z</time></trkpt><trkpt lat="37.8669468" lon="-0.2350924"><ele>0.0</ele><time>2026-04-29T15:36:28.097Z</time></trkpt><trkpt lat="37.8670304" lon="-0.2350213"><ele>0.0</ele><time>2026-04-29T15:36:29.103Z</time></trkpt><trkpt lat="37.8671078" lon="-0.2348819"><ele>0.0</ele><time>2026-04-29T15:36:31.115Z</time></trkpt><trkpt lat="37.8672319" lon="-0.2348497"><ele>0.0</ele><time>2026-04-29T15:36:32.12Z</time></trkpt><trkpt lat="37.8673324" lon="-0.2348678"><ele>0.0</ele><time>2026-04-29T15:36:33.127Z</time></trkpt><trkpt lat="37.8674138" lon="-0.2348241"><ele>0.0</ele><time>2026-04-29T15:36:34.133Z</time></trkpt><trkpt lat="37.8674606" lon="-0.2347551"><ele>0.0</ele><time>2026-04-29T15:36:35.073Z</time></trkpt><trkpt lat="37.8675025" lon="-0.2346697"><ele>0.0</ele><time>2026-04-29T15:36:36.144Z</time></trkpt><trkpt lat="37.8676253" lon="-0.2346287"><ele>0.0</ele><time>2026-04-29T15:36:37.15Z</time></trkpt><trkpt lat="37.8677112" lon="-0.2345703"><ele>0.0</ele><time>2026-04-29T15:36:38.156Z</time></trkpt><trkpt lat="37.8677843" lon="-0.2344894"><ele>0.0</ele><time>2026-04-29T15:36:39.162Z</time></trkpt><trkpt lat="37.8678362" lon="-0.2344276"><ele>0.0</ele><time>2026-04-29T15:36:40.074Z</time></trkpt><trkpt lat="37.8678757" lon="-0.2343433"><ele>0.0</ele><time>2026-04-29T15:36:41.174Z</time></trkpt><trkpt lat="37.8679879" lon="-0.2342793"><ele>0.0</ele><time>2026-04-29T15:36:42.181Z</time></trkpt><trkpt lat="37.8682895" lon="-0.2340887"><ele>0.0</ele><time>2026-04-29T15:36:46.073Z</time></trkpt><trkpt lat="37.8683359" lon="-0.234001"><ele>0.0</ele><time>2026-04-29T15:36:47.11Z</time></trkpt><trkpt lat="37.8684424" lon="-0.2339267"><ele>0.0</ele><time>2026-04-29T15:36:48.115Z</time></trkpt><trkpt lat="37.8685219" lon="-0.2338575"><ele>0.0</ele><time>2026-04-29T15:36:49.122Z</time></trkpt><trkpt lat="37.8686065" lon="-0.2338046"><ele>0.0</ele><time>2026-04-29T15:36:50.128Z</time></trkpt><trkpt lat="37.8687619" lon="-0.2336487"><ele>0.0</ele><time>2026-04-29T15:36:52.14Z</time></trkpt><trkpt lat="37.8688461" lon="-0.2335877"><ele>0.0</ele><time>2026-04-29T15:36:53.146Z</time></trkpt><trkpt lat="37.8689228" lon="-0.2334501"><ele>0.0</ele><time>2026-04-29T15:36:55.157Z</time></trkpt><trkpt lat="37.8690076" lon="-0.2333593"><ele>0.0</ele><time>2026-04-29T15:36:56.162Z</time></trkpt><trkpt lat="37.8691774" lon="-0.2332246"><ele>0.0</ele><time>2026-04-29T15:36:58.175Z</time></trkpt><trkpt lat="37.8692422" lon="-0.2331515"><ele>0.0</ele><time>2026-04-29T15:36:59.081Z</time></trkpt><trkpt lat="37.8694293" lon="-0.2329807"><ele>0.0</ele><time>2026-04-29T15:37:02.097Z</time></trkpt><trkpt lat="37.8695179" lon="-0.2329152"><ele>0.0</ele><time>2026-04-29T15:37:03.104Z</time></trkpt><trkpt lat="37.8696107" lon="-0.232862"><ele>0.0</ele><time>2026-04-29T15:37:04.109Z</time></trkpt><trkpt lat="37.8697674" lon="-0.2328232"><ele>0.0</ele><time>2026-04-29T15:37:06.073Z</time></trkpt><trkpt lat="37.8699193" lon="-0.2326894"><ele>0.0</ele><time>2026-04-29T15:37:08.133Z</time></trkpt><trkpt lat="37.8700074" lon="-0.232619"><ele>0.0</ele><time>2026-04-29T15:37:09.139Z</time></trkpt><trkpt lat="37.8700939" lon="-0.2325393"><ele>0.0</ele><time>2026-04-29T15:37:10.146Z</time></trkpt><trkpt lat="37.8701714" lon="-0.2324587"><ele>0.0</ele><time>2026-04-29T15:37:11.152Z</time></trkpt><trkpt lat="37.8702289" lon="-0.2323406"><ele>0.0</ele><time>2026-04-29T15:37:12.157Z</time></trkpt><trkpt lat="37.8702909" lon="-0.232242"><ele>0.0</ele><time>2026-04-29T15:37:13.163Z</time></trkpt><trkpt lat="37.8703631" lon="-0.2322121"><ele>0.0</ele><time>2026-04-29T15:37:14.073Z</time></trkpt><trkpt lat="37.8703967" lon="-0.2321259"><ele>0.0</ele><time>2026-04-29T15:37:15.175Z</time></trkpt><trkpt lat="37.8705853" lon="-0.2319934"><ele>0.0</ele><time>2026-04-29T15:37:17.087Z</time></trkpt><trkpt lat="37.8706769" lon="-0.2319564"><ele>0.0</ele><time>2026-04-29T15:37:18.092Z</time></trkpt><trkpt lat="37.8707488" lon="-0.2318815"><ele>0.0</ele><time>2026-04-29T15:37:19.098Z</time></trkpt><trkpt lat="37.8708028" lon="-0.231733"><ele>0.0</ele><time>2026-04-29T15:37:21.111Z</time></trkpt><trkpt lat="37.8708925" lon="-0.2316462"><ele>0.0</ele><time>2026-04-29T15:37:22.117Z</time></trkpt><trkpt lat="37.8709664" lon="-0.2315686"><ele>0.0</ele><time>2026-04-29T15:37:23.122Z</time></trkpt><trkpt lat="37.8710366" lon="-0.2314878"><ele>0.0</ele><time>2026-04-29T15:37:24.128Z</time></trkpt><trkpt lat="37.8711191" lon="-0.2314147"><ele>0.0</ele><time>2026-04-29T15:37:25.134Z</time></trkpt><trkpt lat="37.8712039" lon="-0.231356"><ele>0.0</ele><time>2026-04-29T15:37:26.139Z</time></trkpt><trkpt lat="37.8712703" lon="-0.2312859"><ele>0.0</ele><time>2026-04-29T15:37:27.146Z</time></trkpt><trkpt lat="37.8713985" lon="-0.2311306"><ele>0.0</ele><time>2026-04-29T15:37:29.157Z</time></trkpt><trkpt lat="37.8715412" lon="-0.2310209"><ele>0.0</ele><time>2026-04-29T15:37:31.074Z</time></trkpt><trkpt lat="37.8715769" lon="-0.2309393"><ele>0.0</ele><time>2026-04-29T15:37:32.074Z</time></trkpt><trkpt lat="37.8717174" lon="-0.2309108"><ele>0.0</ele><time>2026-04-29T15:37:33.181Z</time></trkpt><trkpt lat="37.8718093" lon="-0.2308774"><ele>0.0</ele><time>2026-04-29T15:37:34.086Z</time></trkpt><trkpt lat="37.8718857" lon="-0.2307974"><ele>0.0</ele><time>2026-04-29T15:37:35.092Z</time></trkpt><trkpt lat="37.871958" lon="-0.2307087"><ele>0.0</ele><time>2026-04-29T15:37:36.098Z</time></trkpt><trkpt lat="37.8720418" lon="-0.2305576"><ele>0.0</ele><time>2026-04-29T15:37:38.11Z</time></trkpt><trkpt lat="37.8721524" lon="-0.2304807"><ele>0.0</ele><time>2026-04-29T15:37:39.117Z</time></trkpt><trkpt lat="37.8722416" lon="-0.2304144"><ele>0.0</ele><time>2026-04-29T15:37:40.123Z</time></trkpt><trkpt lat="37.8723364" lon="-0.2302828"><ele>0.0</ele><time>2026-04-29T15:37:42.135Z</time></trkpt><trkpt lat="37.872443" lon="-0.2302115"><ele>0.0</ele><time>2026-04-29T15:37:43.141Z</time></trkpt><trkpt lat="37.8725321" lon="-0.2301583"><ele>0.0</ele><time>2026-04-29T15:37:44.147Z</time></trkpt><trkpt lat="37.8726705" lon="-0.2300523"><ele>0.0</ele><time>2026-04-29T15:37:46.072Z</time></trkpt><trkpt lat="37.8727125" lon="-0.2299619"><ele>0.0</ele><time>2026-04-29T15:37:47.164Z</time></trkpt><trkpt lat="37.8729069" lon="-0.2298494"><ele>0.0</ele><time>2026-04-29T15:37:49.076Z</time></trkpt><trkpt lat="37.8729951" lon="-0.2297915"><ele>0.0</ele><time>2026-04-29T15:37:50.183Z</time></trkpt><trkpt lat="37.8730717" lon="-0.2297338"><ele>0.0</ele><time>2026-04-29T15:37:51.087Z</time></trkpt><trkpt lat="37.8733223" lon="-0.2295673"><ele>0.0</ele><time>2026-04-29T15:37:54.106Z</time></trkpt><trkpt lat="37.8735029" lon="-0.2293612"><ele>0.0</ele><time>2026-04-29T15:37:57.123Z</time></trkpt><trkpt lat="37.8735848" lon="-0.2292985"><ele>0.0</ele><time>2026-04-29T15:37:58.129Z</time></trkpt><trkpt lat="37.8736524" lon="-0.2292315"><ele>0.0</ele><time>2026-04-29T15:37:59.135Z</time></trkpt><trkpt lat="37.8737558" lon="-0.2291197"><ele>0.0</ele><time>2026-04-29T15:38:01.072Z</time></trkpt><trkpt lat="37.873791" lon="-0.2290375"><ele>0.0</ele><time>2026-04-29T15:38:02.153Z</time></trkpt><trkpt lat="37.8739005" lon="-0.2289646"><ele>0.0</ele><time>2026-04-29T15:38:03.158Z</time></trkpt><trkpt lat="37.8740421" lon="-0.2289054"><ele>0.0</ele><time>2026-04-29T15:38:05.072Z</time></trkpt><trkpt lat="37.8740749" lon="-0.228837"><ele>0.0</ele><time>2026-04-29T15:38:06.077Z</time></trkpt><trkpt lat="37.8741857" lon="-0.2287694"><ele>0.0</ele><time>2026-04-29T15:38:07.082Z</time></trkpt><trkpt lat="37.8743585" lon="-0.2286177"><ele>0.0</ele><time>2026-04-29T15:38:09.095Z</time></trkpt><trkpt lat="37.874432" lon="-0.2285927"><ele>0.0</ele><time>2026-04-29T15:38:10.073Z</time></trkpt><trkpt lat="37.8744699" lon="-0.2285077"><ele>0.0</ele><time>2026-04-29T15:38:11.106Z</time></trkpt><trkpt lat="37.8746956" lon="-0.2284117"><ele>0.0</ele><time>2026-04-29T15:38:13.117Z</time></trkpt><trkpt lat="37.8748138" lon="-0.22825"><ele>0.0</ele><time>2026-04-29T15:38:15.129Z</time></trkpt><trkpt lat="37.8749656" lon="-0.2281208"><ele>0.0</ele><time>2026-04-29T15:38:17.141Z</time></trkpt><trkpt lat="37.8749293" lon="-0.2280528"><ele>0.0</ele><time>2026-04-29T15:38:19.153Z</time></trkpt><trkpt lat="37.8750209" lon="-0.2279687"><ele>0.0</ele><time>2026-04-29T15:38:20.16Z</time></trkpt><trkpt lat="37.8753024" lon="-0.2278363"><ele>0.0</ele><time>2026-04-29T15:38:22.172Z</time></trkpt><trkpt lat="37.8753971" lon="-0.2277533"><ele>0.0</ele><time>2026-04-29T15:38:23.178Z</time></trkpt><trkpt lat="37.8754798" lon="-0.2276825"><ele>0.0</ele><time>2026-04-29T15:38:24.082Z</time></trkpt><trkpt lat="37.8755627" lon="-0.2276052"><ele>0.0</ele><time>2026-04-29T15:38:25.088Z</time></trkpt><trkpt lat="37.8756458" lon="-0.2274634"><ele>0.0</ele><time>2026-04-29T15:38:27.101Z</time></trkpt><trkpt lat="37.8757379" lon="-0.2273745"><ele>0.0</ele><time>2026-04-29T15:38:28.107Z</time></trkpt><trkpt lat="37.8758336" lon="-0.2273163"><ele>0.0</ele><time>2026-04-29T15:38:29.113Z</time></trkpt><trkpt lat="37.875918" lon="-0.2272623"><ele>0.0</ele><time>2026-04-29T15:38:30.119Z</time></trkpt><trkpt lat="37.875986" lon="-0.2271991"><ele>0.0</ele><time>2026-04-29T15:38:31.125Z</time></trkpt><trkpt lat="37.8760448" lon="-0.2271184"><ele>0.0</ele><time>2026-04-29T15:38:32.13Z</time></trkpt><trkpt lat="37.876109" lon="-0.2270063"><ele>0.0</ele><time>2026-04-29T15:38:34.142Z</time></trkpt><trkpt lat="37.8762971" lon="-0.2268452"><ele>0.0</ele><time>2026-04-29T15:38:36.155Z</time></trkpt><trkpt lat="37.8763706" lon="-0.2267722"><ele>0.0</ele><time>2026-04-29T15:38:37.16Z</time></trkpt><trkpt lat="37.876448" lon="-0.2267116"><ele>0.0</ele><time>2026-04-29T15:38:38.166Z</time></trkpt><trkpt lat="37.8766139" lon="-0.2266021"><ele>0.0</ele><time>2026-04-29T15:38:40.178Z</time></trkpt><trkpt lat="37.8766884" lon="-0.226541"><ele>0.0</ele><time>2026-04-29T15:38:41.084Z</time></trkpt><trkpt lat="37.8767516" lon="-0.2265562"><ele>0.0</ele><time>2026-04-29T15:38:42.072Z</time></trkpt><trkpt lat="37.8767916" lon="-0.2264745"><ele>0.0</ele><time>2026-04-29T15:38:43.096Z</time></trkpt><trkpt lat="37.8769209" lon="-0.2265104"><ele>0.0</ele><time>2026-04-29T15:38:44.101Z</time></trkpt><trkpt lat="37.8770275" lon="-0.226501"><ele>0.0</ele><time>2026-04-29T15:38:45.108Z</time></trkpt><trkpt lat="37.877103" lon="-0.2264286"><ele>0.0</ele><time>2026-04-29T15:38:46.113Z</time></trkpt><trkpt lat="37.8771835" lon="-0.22636"><ele>0.0</ele><time>2026-04-29T15:38:47.119Z</time></trkpt><trkpt lat="37.8772758" lon="-0.2262946"><ele>0.0</ele><time>2026-04-29T15:38:48.126Z</time></trkpt><trkpt lat="37.8773583" lon="-0.2262304"><ele>0.0</ele><time>2026-04-29T15:38:49.131Z</time></trkpt><trkpt lat="37.8774297" lon="-0.2261453"><ele>0.0</ele><time>2026-04-29T15:38:50.137Z</time></trkpt><trkpt lat="37.8774981" lon="-0.226056"><ele>0.0</ele><time>2026-04-29T15:38:51.142Z</time></trkpt><trkpt lat="37.8775745" lon="-0.2259864"><ele>0.0</ele><time>2026-04-29T15:38:52.148Z</time></trkpt><trkpt lat="37.8776547" lon="-0.2259328"><ele>0.0</ele><time>2026-04-29T15:38:53.154Z</time></trkpt><trkpt lat="37.8777693" lon="-0.2258117"><ele>0.0</ele><time>2026-04-29T15:38:55.072Z</time></trkpt><trkpt lat="37.8778958" lon="-0.2256458"><ele>0.0</ele><time>2026-04-29T15:38:57.178Z</time></trkpt><trkpt lat="37.8779743" lon="-0.2255625"><ele>0.0</ele><time>2026-04-29T15:38:58.185Z</time></trkpt><trkpt lat="37.8781446" lon="-0.2254245"><ele>0.0</ele><time>2026-04-29T15:39:00.095Z</time></trkpt><trkpt lat="37.8782383" lon="-0.225286"><ele>0.0</ele><time>2026-04-29T15:39:02.107Z</time></trkpt><trkpt lat="37.878333" lon="-0.225191"><ele>0.0</ele><time>2026-04-29T15:39:03.113Z</time></trkpt><trkpt lat="37.8784122" lon="-0.2251136"><ele>0.0</ele><time>2026-04-29T15:39:04.12Z</time></trkpt><trkpt lat="37.8785551" lon="-0.2249756"><ele>0.0</ele><time>2026-04-29T15:39:06.131Z</time></trkpt><trkpt lat="37.8786319" lon="-0.2248359"><ele>0.0</ele><time>2026-04-29T15:39:08.144Z</time></trkpt><trkpt lat="37.8787461" lon="-0.2247626"><ele>0.0</ele><time>2026-04-29T15:39:09.149Z</time></trkpt><trkpt lat="37.878837" lon="-0.2247027"><ele>0.0</ele><time>2026-04-29T15:39:10.156Z</time></trkpt><trkpt lat="37.8789073" lon="-0.2246215"><ele>0.0</ele><time>2026-04-29T15:39:11.161Z</time></trkpt><trkpt lat="37.878961" lon="-0.2245244"><ele>0.0</ele><time>2026-04-29T15:39:12.167Z</time></trkpt><trkpt lat="37.8790202" lon="-0.2244335"><ele>0.0</ele><time>2026-04-29T15:39:13.173Z</time></trkpt><trkpt lat="37.8790989" lon="-0.2243658"><ele>0.0</ele><time>2026-04-29T15:39:14.179Z</time></trkpt><trkpt lat="37.8792441" lon="-0.2242243"><ele>0.0</ele><time>2026-04-29T15:39:16.09Z</time></trkpt><trkpt lat="37.8793524" lon="-0.2241138"><ele>0.0</ele><time>2026-04-29T15:39:18.102Z</time></trkpt><trkpt lat="37.8794643" lon="-0.2240335"><ele>0.0</ele><time>2026-04-29T15:39:19.109Z</time></trkpt><trkpt lat="37.8795637" lon="-0.2239796"><ele>0.0</ele><time>2026-04-29T15:39:20.115Z</time></trkpt><trkpt lat="37.8797306" lon="-0.2238689"><ele>0.0</ele><time>2026-04-29T15:39:22.126Z</time></trkpt><trkpt lat="37.8798085" lon="-0.2238107"><ele>0.0</ele><time>2026-04-29T15:39:23.131Z</time></trkpt><trkpt lat="37.8798708" lon="-0.2236693"><ele>0.0</ele><time>2026-04-29T15:39:25.144Z</time></trkpt><trkpt lat="37.879964" lon="-0.2235851"><ele>0.0</ele><time>2026-04-29T15:39:26.15Z</time></trkpt><trkpt lat="37.8801357" lon="-0.2234883"><ele>0.0</ele><time>2026-04-29T15:39:28.161Z</time></trkpt><trkpt lat="37.8802686" lon="-0.2233081"><ele>0.0</ele><time>2026-04-29T15:39:30.174Z</time></trkpt><trkpt lat="37.880336" lon="-0.2232265"><ele>0.0</ele><time>2026-04-29T15:39:31.078Z</time></trkpt><trkpt lat="37.8804574" lon="-0.2231131"><ele>0.0</ele><time>2026-04-29T15:39:33.073Z</time></trkpt><trkpt lat="37.880497" lon="-0.2230211"><ele>0.0</ele><time>2026-04-29T15:39:34.097Z</time></trkpt><trkpt lat="37.8805885" lon="-0.2229296"><ele>0.0</ele><time>2026-04-29T15:39:35.103Z</time></trkpt><trkpt lat="37.880683" lon="-0.2228761"><ele>0.0</ele><time>2026-04-29T15:39:36.109Z</time></trkpt><trkpt lat="37.8807621" lon="-0.2228092"><ele>0.0</ele><time>2026-04-29T15:39:37.114Z</time></trkpt><trkpt lat="37.8809221" lon="-0.2226255"><ele>0.0</ele><time>2026-04-29T15:39:40.132Z</time></trkpt><trkpt lat="37.8810333" lon="-0.222561"><ele>0.0</ele><time>2026-04-29T15:39:41.138Z</time></trkpt><trkpt lat="37.8811923" lon="-0.2224277"><ele>0.0</ele><time>2026-04-29T15:39:43.151Z</time></trkpt><trkpt lat="37.8812719" lon="-0.2223619"><ele>0.0</ele><time>2026-04-29T15:39:44.156Z</time></trkpt><trkpt lat="37.8813278" lon="-0.2222579"><ele>0.0</ele><time>2026-04-29T15:39:45.163Z</time></trkpt><trkpt lat="37.8814321" lon="-0.2220421"><ele>0.0</ele><time>2026-04-29T15:39:47.175Z</time></trkpt><trkpt lat="37.8814866" lon="-0.2219424"><ele>0.0</ele><time>2026-04-29T15:39:48.079Z</time></trkpt><trkpt lat="37.8815294" lon="-0.2218789"><ele>0.0</ele><time>2026-04-29T15:39:49.072Z</time></trkpt><trkpt lat="37.8815569" lon="-0.2217938"><ele>0.0</ele><time>2026-04-29T15:39:50.092Z</time></trkpt><trkpt lat="37.8816731" lon="-0.221707"><ele>0.0</ele><time>2026-04-29T15:39:51.198Z</time></trkpt><trkpt lat="37.8817703" lon="-0.2216817"><ele>0.0</ele><time>2026-04-29T15:39:52.104Z</time></trkpt><trkpt lat="37.8818648" lon="-0.2216497"><ele>0.0</ele><time>2026-04-29T15:39:53.11Z</time></trkpt><trkpt lat="37.8819518" lon="-0.2216053"><ele>0.0</ele><time>2026-04-29T15:39:54.115Z</time></trkpt><trkpt lat="37.882037" lon="-0.2215632"><ele>0.0</ele><time>2026-04-29T15:39:55.121Z</time></trkpt><trkpt lat="37.8821211" lon="-0.2215168"><ele>0.0</ele><time>2026-04-29T15:39:56.127Z</time></trkpt><trkpt lat="37.8822004" lon="-0.2214636"><ele>0.0</ele><time>2026-04-29T15:39:57.134Z</time></trkpt><trkpt lat="37.8822753" lon="-0.2214027"><ele>0.0</ele><time>2026-04-29T15:39:58.14Z</time></trkpt><trkpt lat="37.8823958" lon="-0.2213187"><ele>0.0</ele><time>2026-04-29T15:40:00.073Z</time></trkpt><trkpt lat="37.8825421" lon="-0.2211685"><ele>0.0</ele><time>2026-04-29T15:40:02.162Z</time></trkpt><trkpt lat="37.8826322" lon="-0.2211065"><ele>0.0</ele><time>2026-04-29T15:40:03.168Z</time></trkpt><trkpt lat="37.8827185" lon="-0.2210448"><ele>0.0</ele><time>2026-04-29T15:40:04.174Z</time></trkpt><trkpt lat="37.8827961" lon="-0.2209824"><ele>0.0</ele><time>2026-04-29T15:40:05.181Z</time></trkpt><trkpt lat="37.8828631" lon="-0.2209237"><ele>0.0</ele><time>2026-04-29T15:40:06.086Z</time></trkpt><trkpt lat="37.8829369" lon="-0.2208822"><ele>0.0</ele><time>2026-04-29T15:40:07.092Z</time></trkpt><trkpt lat="37.8830146" lon="-0.2208336"><ele>0.0</ele><time>2026-04-29T15:40:08.098Z</time></trkpt><trkpt lat="37.8830811" lon="-0.2206895"><ele>0.0</ele><time>2026-04-29T15:40:10.11Z</time></trkpt><trkpt lat="37.8831832" lon="-0.2206066"><ele>0.0</ele><time>2026-04-29T15:40:11.115Z</time></trkpt><trkpt lat="37.8832625" lon="-0.2205401"><ele>0.0</ele><time>2026-04-29T15:40:12.121Z</time></trkpt><trkpt lat="37.8833304" lon="-0.2204602"><ele>0.0</ele><time>2026-04-29T15:40:13.127Z</time></trkpt><trkpt lat="37.8833935" lon="-0.2203774"><ele>0.0</ele><time>2026-04-29T15:40:14.134Z</time></trkpt><trkpt lat="37.8834664" lon="-0.2202957"><ele>0.0</ele><time>2026-04-29T15:40:15.139Z</time></trkpt><trkpt lat="37.8835404" lon="-0.2202221"><ele>0.0</ele><time>2026-04-29T15:40:16.145Z</time></trkpt><trkpt lat="37.8836176" lon="-0.2201058"><ele>0.0</ele><time>2026-04-29T15:40:18.158Z</time></trkpt><trkpt lat="37.883712" lon="-0.2200292"><ele>0.0</ele><time>2026-04-29T15:40:19.164Z</time></trkpt><trkpt lat="37.8838027" lon="-0.2199729"><ele>0.0</ele><time>2026-04-29T15:40:20.169Z</time></trkpt><trkpt lat="37.883891" lon="-0.2199129"><ele>0.0</ele><time>2026-04-29T15:40:21.176Z</time></trkpt><trkpt lat="37.8840576" lon="-0.2197845"><ele>0.0</ele><time>2026-04-29T15:40:23.087Z</time></trkpt><trkpt lat="37.8841392" lon="-0.2197187"><ele>0.0</ele><time>2026-04-29T15:40:24.092Z</time></trkpt><trkpt lat="37.8842106" lon="-0.2196434"><ele>0.0</ele><time>2026-04-29T15:40:25.099Z</time></trkpt><trkpt lat="37.8842857" lon="-0.2195437"><ele>0.0</ele><time>2026-04-29T15:40:27.111Z</time></trkpt><trkpt lat="37.8843798" lon="-0.2194656"><ele>0.0</ele><time>2026-04-29T15:40:28.117Z</time></trkpt><trkpt lat="37.8844662" lon="-0.2194091"><ele>0.0</ele><time>2026-04-29T15:40:29.122Z</time></trkpt><trkpt lat="37.8845504" lon="-0.2193454"><ele>0.0</ele><time>2026-04-29T15:40:30.128Z</time></trkpt><trkpt lat="37.8846315" lon="-0.2192694"><ele>0.0</ele><time>2026-04-29T15:40:31.134Z</time></trkpt><trkpt lat="37.8848713" lon="-0.219026"><ele>0.0</ele><time>2026-04-29T15:40:34.152Z</time></trkpt><trkpt lat="37.8850027" lon="-0.2188769"><ele>0.0</ele><time>2026-04-29T15:40:37.169Z</time></trkpt><trkpt lat="37.8850961" lon="-0.2187939"><ele>0.0</ele><time>2026-04-29T15:40:38.175Z</time></trkpt><trkpt lat="37.8851869" lon="-0.2187221"><ele>0.0</ele><time>2026-04-29T15:40:39.181Z</time></trkpt><trkpt lat="37.8852689" lon="-0.218666"><ele>0.0</ele><time>2026-04-29T15:40:40.087Z</time></trkpt><trkpt lat="37.8853788" lon="-0.2185644"><ele>0.0</ele><time>2026-04-29T15:40:42.073Z</time></trkpt><trkpt lat="37.8855251" lon="-0.218416"><ele>0.0</ele><time>2026-04-29T15:40:44.11Z</time></trkpt><trkpt lat="37.885622" lon="-0.2183705"><ele>0.0</ele><time>2026-04-29T15:40:45.116Z</time></trkpt><trkpt lat="37.8857078" lon="-0.2183107"><ele>0.0</ele><time>2026-04-29T15:40:46.123Z</time></trkpt><trkpt lat="37.8857925" lon="-0.2182423"><ele>0.0</ele><time>2026-04-29T15:40:47.129Z</time></trkpt><trkpt lat="37.8858738" lon="-0.2181822"><ele>0.0</ele><time>2026-04-29T15:40:48.134Z</time></trkpt><trkpt lat="37.8859429" lon="-0.2181249"><ele>0.0</ele><time>2026-04-29T15:40:49.14Z</time></trkpt><trkpt lat="37.8860214" lon="-0.2181163"><ele>0.0</ele><time>2026-04-29T15:40:50.147Z</time></trkpt><trkpt lat="37.8861049" lon="-0.2180848"><ele>0.0</ele><time>2026-04-29T15:40:51.153Z</time></trkpt><trkpt lat="37.8861881" lon="-0.2180253"><ele>0.0</ele><time>2026-04-29T15:40:52.159Z</time></trkpt><trkpt lat="37.8862632" lon="-0.2179492"><ele>0.0</ele><time>2026-04-29T15:40:53.164Z</time></trkpt><trkpt lat="37.8863361" lon="-0.2178742"><ele>0.0</ele><time>2026-04-29T15:40:54.17Z</time></trkpt><trkpt lat="37.8864898" lon="-0.2177442"><ele>0.0</ele><time>2026-04-29T15:40:56.183Z</time></trkpt><trkpt lat="37.8865636" lon="-0.2176896"><ele>0.0</ele><time>2026-04-29T15:40:57.088Z</time></trkpt><trkpt lat="37.8866299" lon="-0.2176111"><ele>0.0</ele><time>2026-04-29T15:40:58.094Z</time></trkpt><trkpt lat="37.8867263" lon="-0.2175141"><ele>0.0</ele><time>2026-04-29T15:41:00.073Z</time></trkpt><trkpt lat="37.8867547" lon="-0.2174384"><ele>0.0</ele><time>2026-04-29T15:41:01.111Z</time></trkpt><trkpt lat="37.8868324" lon="-0.2173467"><ele>0.0</ele><time>2026-04-29T15:41:02.118Z</time></trkpt><trkpt lat="37.8869307" lon="-0.2172946"><ele>0.0</ele><time>2026-04-29T15:41:03.123Z</time></trkpt><trkpt lat="37.887013" lon="-0.2172302"><ele>0.0</ele><time>2026-04-29T15:41:04.13Z</time></trkpt><trkpt lat="37.8871749" lon="-0.2171086"><ele>0.0</ele><time>2026-04-29T15:41:06.141Z</time></trkpt><trkpt lat="37.8873304" lon="-0.2169602"><ele>0.0</ele><time>2026-04-29T15:41:08.152Z</time></trkpt><trkpt lat="37.8873878" lon="-0.2169242"><ele>0.0</ele><time>2026-04-29T15:41:09.072Z</time></trkpt><trkpt lat="37.8874269" lon="-0.2168336"><ele>0.0</ele><time>2026-04-29T15:41:10.164Z</time></trkpt><trkpt lat="37.8875359" lon="-0.216772"><ele>0.0</ele><time>2026-04-29T15:41:11.17Z</time></trkpt><trkpt lat="37.8876135" lon="-0.2167247"><ele>0.0</ele><time>2026-04-29T15:41:12.077Z</time></trkpt><trkpt lat="37.8876925" lon="-0.2166661"><ele>0.0</ele><time>2026-04-29T15:41:13.083Z</time></trkpt><trkpt lat="37.8877754" lon="-0.2166014"><ele>0.0</ele><time>2026-04-29T15:41:14.089Z</time></trkpt><trkpt lat="37.8878618" lon="-0.2165432"><ele>0.0</ele><time>2026-04-29T15:41:15.093Z</time></trkpt><trkpt lat="37.887943" lon="-0.2164776"><ele>0.0</ele><time>2026-04-29T15:41:16.1Z</time></trkpt><trkpt lat="37.8880224" lon="-0.2164115"><ele>0.0</ele><time>2026-04-29T15:41:17.106Z</time></trkpt><trkpt lat="37.8881" lon="-0.2162971"><ele>0.0</ele><time>2026-04-29T15:41:19.118Z</time></trkpt><trkpt lat="37.8882127" lon="-0.2162386"><ele>0.0</ele><time>2026-04-29T15:41:20.123Z</time></trkpt><trkpt lat="37.8883049" lon="-0.2162018"><ele>0.0</ele><time>2026-04-29T15:41:21.129Z</time></trkpt><trkpt lat="37.8883793" lon="-0.2161334"><ele>0.0</ele><time>2026-04-29T15:41:22.135Z</time></trkpt><trkpt lat="37.8884496" lon="-0.2160624"><ele>0.0</ele><time>2026-04-29T15:41:23.141Z</time></trkpt><trkpt lat="37.8885248" lon="-0.2159896"><ele>0.0</ele><time>2026-04-29T15:41:24.147Z</time></trkpt><trkpt lat="37.8886128" lon="-0.215895"><ele>0.0</ele><time>2026-04-29T15:41:26.159Z</time></trkpt><trkpt lat="37.8887153" lon="-0.2158213"><ele>0.0</ele><time>2026-04-29T15:41:27.166Z</time></trkpt><trkpt lat="37.8888848" lon="-0.215729"><ele>0.0</ele><time>2026-04-29T15:41:29.177Z</time></trkpt><trkpt lat="37.8890551" lon="-0.2156461"><ele>0.0</ele><time>2026-04-29T15:41:31.088Z</time></trkpt><trkpt lat="37.8891373" lon="-0.2155799"><ele>0.0</ele><time>2026-04-29T15:41:32.095Z</time></trkpt><trkpt lat="37.8892182" lon="-0.2155143"><ele>0.0</ele><time>2026-04-29T15:41:33.1Z</time></trkpt><trkpt lat="37.8893022" lon="-0.2154539"><ele>0.0</ele><time>2026-04-29T15:41:34.107Z</time></trkpt><trkpt lat="37.8893887" lon="-0.2153997"><ele>0.0</ele><time>2026-04-29T15:41:35.113Z</time></trkpt><trkpt lat="37.8894697" lon="-0.2153397"><ele>0.0</ele><time>2026-04-29T15:41:36.118Z</time></trkpt><trkpt lat="37.8897343" lon="-0.2151032"><ele>0.0</ele><time>2026-04-29T15:41:40.142Z</time></trkpt><trkpt lat="37.8898204" lon="-0.2150417"><ele>0.0</ele><time>2026-04-29T15:41:41.147Z</time></trkpt><trkpt lat="37.8898981" lon="-0.2149909"><ele>0.0</ele><time>2026-04-29T15:41:42.153Z</time></trkpt><trkpt lat="37.889976" lon="-0.2149455"><ele>0.0</ele><time>2026-04-29T15:41:43.16Z</time></trkpt><trkpt lat="37.8900604" lon="-0.2148943"><ele>0.0</ele><time>2026-04-29T15:41:44.165Z</time></trkpt><trkpt lat="37.8902107" lon="-0.2147669"><ele>0.0</ele><time>2026-04-29T15:41:46.177Z</time></trkpt><trkpt lat="37.8902814" lon="-0.214702"><ele>0.0</ele><time>2026-04-29T15:41:47.082Z</time></trkpt><trkpt lat="37.8903612" lon="-0.2146335"><ele>0.0</ele><time>2026-04-29T15:41:48.089Z</time></trkpt><trkpt lat="37.8905232" lon="-0.214444"><ele>0.0</ele><time>2026-04-29T15:41:51.107Z</time></trkpt><trkpt lat="37.8906106" lon="-0.2143865"><ele>0.0</ele><time>2026-04-29T15:41:52.112Z</time></trkpt><trkpt lat="37.8907764" lon="-0.2142659"><ele>0.0</ele><time>2026-04-29T15:41:54.124Z</time></trkpt><trkpt lat="37.8908582" lon="-0.2142072"><ele>0.0</ele><time>2026-04-29T15:41:55.13Z</time></trkpt><trkpt lat="37.8909342" lon="-0.2141339"><ele>0.0</ele><time>2026-04-29T15:41:56.137Z</time></trkpt><trkpt lat="37.8910091" lon="-0.2140647"><ele>0.0</ele><time>2026-04-29T15:41:57.142Z</time></trkpt><trkpt lat="37.8910915" lon="-0.2140082"><ele>0.0</ele><time>2026-04-29T15:41:58.148Z</time></trkpt><trkpt lat="37.8911705" lon="-0.2139369"><ele>0.0</ele><time>2026-04-29T15:41:59.154Z</time></trkpt><trkpt lat="37.8912684" lon="-0.2138233"><ele>0.0</ele><time>2026-04-29T15:42:01.071Z</time></trkpt><trkpt lat="37.8913412" lon="-0.2137584"><ele>0.0</ele><time>2026-04-29T15:42:02.071Z</time></trkpt><trkpt lat="37.8914145" lon="-0.2136937"><ele>0.0</ele><time>2026-04-29T15:42:03.071Z</time></trkpt><trkpt lat="37.8915202" lon="-0.2136987"><ele>0.0</ele><time>2026-04-29T15:42:04.072Z</time></trkpt><trkpt lat="37.8916726" lon="-0.2135771"><ele>0.0</ele><time>2026-04-29T15:42:06.072Z</time></trkpt><trkpt lat="37.8917491" lon="-0.2135082"><ele>0.0</ele><time>2026-04-29T15:42:07.071Z</time></trkpt><trkpt lat="37.8918191" lon="-0.2134421"><ele>0.0</ele><time>2026-04-29T15:42:08.072Z</time></trkpt><trkpt lat="37.8918904" lon="-0.2133814"><ele>0.0</ele><time>2026-04-29T15:42:09.071Z</time></trkpt><trkpt lat="37.891956" lon="-0.2133201"><ele>0.0</ele><time>2026-04-29T15:42:10.071Z</time></trkpt><trkpt lat="37.8920298" lon="-0.2132646"><ele>0.0</ele><time>2026-04-29T15:42:11.071Z</time></trkpt><trkpt lat="37.8920979" lon="-0.2131843"><ele>0.0</ele><time>2026-04-29T15:42:12.071Z</time></trkpt><trkpt lat="37.892242" lon="-0.2130485"><ele>0.0</ele><time>2026-04-29T15:42:14.071Z</time></trkpt><trkpt lat="37.8923195" lon="-0.2129881"><ele>0.0</ele><time>2026-04-29T15:42:15.071Z</time></trkpt><trkpt lat="37.8924718" lon="-0.2128857"><ele>0.0</ele><time>2026-04-29T15:42:17.071Z</time></trkpt><trkpt lat="37.8925404" lon="-0.2128331"><ele>0.0</ele><time>2026-04-29T15:42:18.071Z</time></trkpt><trkpt lat="37.8926076" lon="-0.2127775"><ele>0.0</ele><time>2026-04-29T15:42:19.071Z</time></trkpt><trkpt lat="37.8926882" lon="-0.2127107"><ele>0.0</ele><time>2026-04-29T15:42:21.083Z</time></trkpt><trkpt lat="37.8927422" lon="-0.2126527"><ele>0.0</ele><time>2026-04-29T15:42:22.089Z</time></trkpt><trkpt lat="37.8928604" lon="-0.2125613"><ele>0.0</ele><time>2026-04-29T15:42:23.096Z</time></trkpt><trkpt lat="37.8929596" lon="-0.212488"><ele>0.0</ele><time>2026-04-29T15:42:24.102Z</time></trkpt><trkpt lat="37.8930503" lon="-0.2124275"><ele>0.0</ele><time>2026-04-29T15:42:25.108Z</time></trkpt><trkpt lat="37.893148" lon="-0.2123702"><ele>0.0</ele><time>2026-04-29T15:42:26.114Z</time></trkpt><trkpt lat="37.8932369" lon="-0.2123106"><ele>0.0</ele><time>2026-04-29T15:42:27.12Z</time></trkpt><trkpt lat="37.8933213" lon="-0.2122511"><ele>0.0</ele><time>2026-04-29T15:42:28.126Z</time></trkpt><trkpt lat="37.8934012" lon="-0.2121853"><ele>0.0</ele><time>2026-04-29T15:42:29.131Z</time></trkpt><trkpt lat="37.8934752" lon="-0.2121181"><ele>0.0</ele><time>2026-04-29T15:42:30.138Z</time></trkpt><trkpt lat="37.8935503" lon="-0.2120477"><ele>0.0</ele><time>2026-04-29T15:42:31.144Z</time></trkpt><trkpt lat="37.8936903" lon="-0.2118944"><ele>0.0</ele><time>2026-04-29T15:42:33.154Z</time></trkpt><trkpt lat="37.8938976" lon="-0.2117903"><ele>0.0</ele><time>2026-04-29T15:42:37.078Z</time></trkpt><trkpt lat="37.8940177" lon="-0.2116646"><ele>0.0</ele><time>2026-04-29T15:42:38.084Z</time></trkpt><trkpt lat="37.8941167" lon="-0.2115973"><ele>0.0</ele><time>2026-04-29T15:42:39.091Z</time></trkpt><trkpt lat="37.89421" lon="-0.2115357"><ele>0.0</ele><time>2026-04-29T15:42:40.095Z</time></trkpt><trkpt lat="37.8942985" lon="-0.211464"><ele>0.0</ele><time>2026-04-29T15:42:41.101Z</time></trkpt><trkpt lat="37.8943884" lon="-0.2114"><ele>0.0</ele><time>2026-04-29T15:42:42.108Z</time></trkpt><trkpt lat="37.8945657" lon="-0.211306"><ele>0.0</ele><time>2026-04-29T15:42:44.12Z</time></trkpt><trkpt lat="37.8946645" lon="-0.2113491"><ele>0.0</ele><time>2026-04-29T15:42:45.126Z</time></trkpt><trkpt lat="37.8947609" lon="-0.2113827"><ele>0.0</ele><time>2026-04-29T15:42:46.131Z</time></trkpt><trkpt lat="37.8948533" lon="-0.2114028"><ele>0.0</ele><time>2026-04-29T15:42:47.137Z</time></trkpt><trkpt lat="37.8949367" lon="-0.211329"><ele>0.0</ele><time>2026-04-29T15:42:48.143Z</time></trkpt><trkpt lat="37.8950152" lon="-0.2112719"><ele>0.0</ele><time>2026-04-29T15:42:49.15Z</time></trkpt><trkpt lat="37.8950881" lon="-0.2111885"><ele>0.0</ele><time>2026-04-29T15:42:50.155Z</time></trkpt><trkpt lat="37.8951681" lon="-0.2111266"><ele>0.0</ele><time>2026-04-29T15:42:51.161Z</time></trkpt><trkpt lat="37.8952521" lon="-0.2110073"><ele>0.0</ele><time>2026-04-29T15:42:53.072Z</time></trkpt><trkpt lat="37.8953484" lon="-0.210942"><ele>0.0</ele><time>2026-04-29T15:42:54.079Z</time></trkpt><trkpt lat="37.8955089" lon="-0.2108321"><ele>0.0</ele><time>2026-04-29T15:42:56.09Z</time></trkpt><trkpt lat="37.895588" lon="-0.2107737"><ele>0.0</ele><time>2026-04-29T15:42:57.097Z</time></trkpt><trkpt lat="37.8956611" lon="-0.2107135"><ele>0.0</ele><time>2026-04-29T15:42:58.102Z</time></trkpt><trkpt lat="37.8957947" lon="-0.2105843"><ele>0.0</ele><time>2026-04-29T15:43:00.114Z</time></trkpt><trkpt lat="37.8958938" lon="-0.2105908"><ele>0.0</ele><time>2026-04-29T15:43:01.12Z</time></trkpt><trkpt lat="37.895995" lon="-0.2106076"><ele>0.0</ele><time>2026-04-29T15:43:02.126Z</time></trkpt><trkpt lat="37.8960908" lon="-0.2105996"><ele>0.0</ele><time>2026-04-29T15:43:03.132Z</time></trkpt><trkpt lat="37.8961793" lon="-0.210533"><ele>0.0</ele><time>2026-04-29T15:43:04.138Z</time></trkpt><trkpt lat="37.8962518" lon="-0.2104261"><ele>0.0</ele><time>2026-04-29T15:43:05.143Z</time></trkpt><trkpt lat="37.8963253" lon="-0.2104234"><ele>0.0</ele><time>2026-04-29T15:43:06.071Z</time></trkpt><trkpt lat="37.8963636" lon="-0.2103406"><ele>0.0</ele><time>2026-04-29T15:43:07.155Z</time></trkpt><trkpt lat="37.8964691" lon="-0.210261"><ele>0.0</ele><time>2026-04-29T15:43:08.161Z</time></trkpt><trkpt lat="37.8966276" lon="-0.2101865"><ele>0.0</ele><time>2026-04-29T15:43:10.072Z</time></trkpt><trkpt lat="37.8967668" lon="-0.210049"><ele>0.0</ele><time>2026-04-29T15:43:12.085Z</time></trkpt><trkpt lat="37.8968497" lon="-0.2099773"><ele>0.0</ele><time>2026-04-29T15:43:13.09Z</time></trkpt><trkpt lat="37.8969096" lon="-0.2098899"><ele>0.0</ele><time>2026-04-29T15:43:14.096Z</time></trkpt><trkpt lat="37.897054" lon="-0.2097966"><ele>0.0</ele><time>2026-04-29T15:43:16.108Z</time></trkpt><trkpt lat="37.8973005" lon="-0.2095509"><ele>0.0</ele><time>2026-04-29T15:43:20.132Z</time></trkpt><trkpt lat="37.8973701" lon="-0.2094678"><ele>0.0</ele><time>2026-04-29T15:43:21.139Z</time></trkpt><trkpt lat="37.8974405" lon="-0.2093965"><ele>0.0</ele><time>2026-04-29T15:43:22.145Z</time></trkpt><trkpt lat="37.8975161" lon="-0.2093377"><ele>0.0</ele><time>2026-04-29T15:43:23.151Z</time></trkpt><trkpt lat="37.897589" lon="-0.2092651"><ele>0.0</ele><time>2026-04-29T15:43:24.157Z</time></trkpt><trkpt lat="37.8976659" lon="-0.2091981"><ele>0.0</ele><time>2026-04-29T15:43:25.163Z</time></trkpt><trkpt lat="37.8977432" lon="-0.2091244"><ele>0.0</ele><time>2026-04-29T15:43:26.168Z</time></trkpt><trkpt lat="37.8978379" lon="-0.2090347"><ele>0.0</ele><time>2026-04-29T15:43:28.079Z</time></trkpt><trkpt lat="37.8979246" lon="-0.2089422"><ele>0.0</ele><time>2026-04-29T15:43:29.086Z</time></trkpt><trkpt lat="37.8980131" lon="-0.2088661"><ele>0.0</ele><time>2026-04-29T15:43:30.191Z</time></trkpt><trkpt lat="37.8981529" lon="-0.2087214"><ele>0.0</ele><time>2026-04-29T15:43:32.103Z</time></trkpt><trkpt lat="37.898225" lon="-0.2086557"><ele>0.0</ele><time>2026-04-29T15:43:33.108Z</time></trkpt><trkpt lat="37.8983032" lon="-0.2085975"><ele>0.0</ele><time>2026-04-29T15:43:34.114Z</time></trkpt><trkpt lat="37.8983788" lon="-0.2085381"><ele>0.0</ele><time>2026-04-29T15:43:35.12Z</time></trkpt><trkpt lat="37.8984476" lon="-0.2084598"><ele>0.0</ele><time>2026-04-29T15:43:36.126Z</time></trkpt><trkpt lat="37.8985304" lon="-0.208405"><ele>0.0</ele><time>2026-04-29T15:43:37.133Z</time></trkpt><trkpt lat="37.8986948" lon="-0.2082971"><ele>0.0</ele><time>2026-04-29T15:43:39.144Z</time></trkpt><trkpt lat="37.8987645" lon="-0.2082169"><ele>0.0</ele><time>2026-04-29T15:43:40.151Z</time></trkpt><trkpt lat="37.8988495" lon="-0.2081112"><ele>0.0</ele><time>2026-04-29T15:43:42.162Z</time></trkpt><trkpt lat="37.8989457" lon="-0.2080256"><ele>0.0</ele><time>2026-04-29T15:43:43.168Z</time></trkpt><trkpt lat="37.8990233" lon="-0.2079548"><ele>0.0</ele><time>2026-04-29T15:43:44.174Z</time></trkpt><trkpt lat="37.8991151" lon="-0.2079187"><ele>0.0</ele><time>2026-04-29T15:43:45.18Z</time></trkpt><trkpt lat="37.8991936" lon="-0.2078598"><ele>0.0</ele><time>2026-04-29T15:43:46.085Z</time></trkpt><trkpt lat="37.8992674" lon="-0.2077791"><ele>0.0</ele><time>2026-04-29T15:43:47.091Z</time></trkpt><trkpt lat="37.899335" lon="-0.207696"><ele>0.0</ele><time>2026-04-29T15:43:48.098Z</time></trkpt><trkpt lat="37.8994089" lon="-0.2076235"><ele>0.0</ele><time>2026-04-29T15:43:49.103Z</time></trkpt><trkpt lat="37.8994748" lon="-0.2075459"><ele>0.0</ele><time>2026-04-29T15:43:50.109Z</time></trkpt><trkpt lat="37.8995491" lon="-0.2074744"><ele>0.0</ele><time>2026-04-29T15:43:51.116Z</time></trkpt><trkpt lat="37.8996352" lon="-0.2073889"><ele>0.0</ele><time>2026-04-29T15:43:53.128Z</time></trkpt><trkpt lat="37.899731" lon="-0.2073179"><ele>0.0</ele><time>2026-04-29T15:43:54.133Z</time></trkpt><trkpt lat="37.8998104" lon="-0.2072744"><ele>0.0</ele><time>2026-04-29T15:43:55.14Z</time></trkpt><trkpt lat="37.8998868" lon="-0.207216"><ele>0.0</ele><time>2026-04-29T15:43:56.144Z</time></trkpt><trkpt lat="37.9000566" lon="-0.2070975"><ele>0.0</ele><time>2026-04-29T15:43:58.156Z</time></trkpt><trkpt lat="37.9002409" lon="-0.206993"><ele>0.0</ele><time>2026-04-29T15:44:00.168Z</time></trkpt><trkpt lat="37.9003216" lon="-0.2069206"><ele>0.0</ele><time>2026-04-29T15:44:01.175Z</time></trkpt><trkpt lat="37.9004321" lon="-0.2067427"><ele>0.0</ele><time>2026-04-29T15:44:03.086Z</time></trkpt><trkpt lat="37.9005083" lon="-0.2066658"><ele>0.0</ele><time>2026-04-29T15:44:04.091Z</time></trkpt><trkpt lat="37.9005915" lon="-0.2066008"><ele>0.0</ele><time>2026-04-29T15:44:05.097Z</time></trkpt><trkpt lat="37.9006505" lon="-0.2065435"><ele>0.0</ele><time>2026-04-29T15:44:07.11Z</time></trkpt><trkpt lat="37.9007547" lon="-0.2064847"><ele>0.0</ele><time>2026-04-29T15:44:08.115Z</time></trkpt><trkpt lat="37.9008427" lon="-0.2064122"><ele>0.0</ele><time>2026-04-29T15:44:09.121Z</time></trkpt><trkpt lat="37.9009325" lon="-0.2063421"><ele>0.0</ele><time>2026-04-29T15:44:10.128Z</time></trkpt><trkpt lat="37.901102" lon="-0.2061837"><ele>0.0</ele><time>2026-04-29T15:44:12.14Z</time></trkpt><trkpt lat="37.9011719" lon="-0.2061278"><ele>0.0</ele><time>2026-04-29T15:44:13.072Z</time></trkpt><trkpt lat="37.9012173" lon="-0.2060389"><ele>0.0</ele><time>2026-04-29T15:44:14.152Z</time></trkpt><trkpt lat="37.9013352" lon="-0.2059694"><ele>0.0</ele><time>2026-04-29T15:44:15.157Z</time></trkpt><trkpt lat="37.9014253" lon="-0.2059161"><ele>0.0</ele><time>2026-04-29T15:44:16.164Z</time></trkpt><trkpt lat="37.901576" lon="-0.205774"><ele>0.0</ele><time>2026-04-29T15:44:18.175Z</time></trkpt><trkpt lat="37.9016825" lon="-0.2057472"><ele>0.0</ele><time>2026-04-29T15:44:20.087Z</time></trkpt><trkpt lat="37.9018691" lon="-0.2055992"><ele>0.0</ele><time>2026-04-29T15:44:22.098Z</time></trkpt><trkpt lat="37.9019518" lon="-0.2055369"><ele>0.0</ele><time>2026-04-29T15:44:23.104Z</time></trkpt><trkpt lat="37.9020284" lon="-0.2054735"><ele>0.0</ele><time>2026-04-29T15:44:24.11Z</time></trkpt><trkpt lat="37.9021617" lon="-0.2053168"><ele>0.0</ele><time>2026-04-29T15:44:26.122Z</time></trkpt><trkpt lat="37.902238" lon="-0.2052684"><ele>0.0</ele><time>2026-04-29T15:44:27.129Z</time></trkpt><trkpt lat="37.9023178" lon="-0.205216"><ele>0.0</ele><time>2026-04-29T15:44:28.134Z</time></trkpt><trkpt lat="37.9024384" lon="-0.2051111"><ele>0.0</ele><time>2026-04-29T15:44:30.071Z</time></trkpt><trkpt lat="37.9024747" lon="-0.205034"><ele>0.0</ele><time>2026-04-29T15:44:31.152Z</time></trkpt><trkpt lat="37.9025739" lon="-0.2049589"><ele>0.0</ele><time>2026-04-29T15:44:32.159Z</time></trkpt><trkpt lat="37.9027626" lon="-0.2048747"><ele>0.0</ele><time>2026-04-29T15:44:34.171Z</time></trkpt><trkpt lat="37.9028439" lon="-0.2048023"><ele>0.0</ele><time>2026-04-29T15:44:35.176Z</time></trkpt><trkpt lat="37.9029142" lon="-0.2047318"><ele>0.0</ele><time>2026-04-29T15:44:36.081Z</time></trkpt><trkpt lat="37.9030836" lon="-0.2045982"><ele>0.0</ele><time>2026-04-29T15:44:38.094Z</time></trkpt><trkpt lat="37.9031627" lon="-0.2045329"><ele>0.0</ele><time>2026-04-29T15:44:39.1Z</time></trkpt><trkpt lat="37.9032458" lon="-0.204481"><ele>0.0</ele><time>2026-04-29T15:44:40.106Z</time></trkpt><trkpt lat="37.9033345" lon="-0.2043283"><ele>0.0</ele><time>2026-04-29T15:44:42.118Z</time></trkpt><trkpt lat="37.9035125" lon="-0.2041787"><ele>0.0</ele><time>2026-04-29T15:44:44.129Z</time></trkpt><trkpt lat="37.9036011" lon="-0.2041198"><ele>0.0</ele><time>2026-04-29T15:44:45.136Z</time></trkpt><trkpt lat="37.9037436" lon="-0.2039479"><ele>0.0</ele><time>2026-04-29T15:44:47.147Z</time></trkpt><trkpt lat="37.9038279" lon="-0.2038247"><ele>0.0</ele><time>2026-04-29T15:44:49.159Z</time></trkpt><trkpt lat="37.9039264" lon="-0.2037432"><ele>0.0</ele><time>2026-04-29T15:44:50.165Z</time></trkpt><trkpt lat="37.9040059" lon="-0.2036709"><ele>0.0</ele><time>2026-04-29T15:44:51.171Z</time></trkpt><trkpt lat="37.9040683" lon="-0.2035789"><ele>0.0</ele><time>2026-04-29T15:44:52.177Z</time></trkpt><trkpt lat="37.9042748" lon="-0.2034547"><ele>0.0</ele><time>2026-04-29T15:44:55.094Z</time></trkpt><trkpt lat="37.9043702" lon="-0.2034257"><ele>0.0</ele><time>2026-04-29T15:44:56.101Z</time></trkpt><trkpt lat="37.9044553" lon="-0.2033683"><ele>0.0</ele><time>2026-04-29T15:44:57.106Z</time></trkpt><trkpt lat="37.9046266" lon="-0.2032993"><ele>0.0</ele><time>2026-04-29T15:44:59.117Z</time></trkpt><trkpt lat="37.9046887" lon="-0.2031489"><ele>0.0</ele><time>2026-04-29T15:45:01.13Z</time></trkpt><trkpt lat="37.9047762" lon="-0.2030713"><ele>0.0</ele><time>2026-04-29T15:45:02.135Z</time></trkpt><trkpt lat="37.9048531" lon="-0.2030062"><ele>0.0</ele><time>2026-04-29T15:45:03.141Z</time></trkpt><trkpt lat="37.9049931" lon="-0.2028223"><ele>0.0</ele><time>2026-04-29T15:45:05.153Z</time></trkpt><trkpt lat="37.905077" lon="-0.202747"><ele>0.0</ele><time>2026-04-29T15:45:06.159Z</time></trkpt><trkpt lat="37.9051594" lon="-0.2026735"><ele>0.0</ele><time>2026-04-29T15:45:07.165Z</time></trkpt><trkpt lat="37.9052149" lon="-0.202558"><ele>0.0</ele><time>2026-04-29T15:45:08.171Z</time></trkpt><trkpt lat="37.9052531" lon="-0.2024452"><ele>0.0</ele><time>2026-04-29T15:45:09.077Z</time></trkpt><trkpt lat="37.9053255" lon="-0.202359"><ele>0.0</ele><time>2026-04-29T15:45:10.184Z</time></trkpt><trkpt lat="37.9054124" lon="-0.2023028"><ele>0.0</ele><time>2026-04-29T15:45:11.089Z</time></trkpt><trkpt lat="37.9055077" lon="-0.2022222"><ele>0.0</ele><time>2026-04-29T15:45:13.1Z</time></trkpt><trkpt lat="37.9056115" lon="-0.2021546"><ele>0.0</ele><time>2026-04-29T15:45:14.107Z</time></trkpt><trkpt lat="37.9057096" lon="-0.2021113"><ele>0.0</ele><time>2026-04-29T15:45:15.112Z</time></trkpt><trkpt lat="37.9057936" lon="-0.20205"><ele>0.0</ele><time>2026-04-29T15:45:16.118Z</time></trkpt><trkpt lat="37.9058731" lon="-0.2019872"><ele>0.0</ele><time>2026-04-29T15:45:17.124Z</time></trkpt><trkpt lat="37.905951" lon="-0.2019237"><ele>0.0</ele><time>2026-04-29T15:45:18.13Z</time></trkpt><trkpt lat="37.9060286" lon="-0.2018575"><ele>0.0</ele><time>2026-04-29T15:45:19.136Z</time></trkpt><trkpt lat="37.9060964" lon="-0.2017771"><ele>0.0</ele><time>2026-04-29T15:45:20.143Z</time></trkpt><trkpt lat="37.9061919" lon="-0.2017479"><ele>0.0</ele><time>2026-04-29T15:45:21.148Z</time></trkpt><trkpt lat="37.9062793" lon="-0.2017004"><ele>0.0</ele><time>2026-04-29T15:45:22.154Z</time></trkpt><trkpt lat="37.9063625" lon="-0.2016454"><ele>0.0</ele><time>2026-04-29T15:45:23.161Z</time></trkpt><trkpt lat="37.9064364" lon="-0.2015752"><ele>0.0</ele><time>2026-04-29T15:45:24.167Z</time></trkpt><trkpt lat="37.9065281" lon="-0.2015818"><ele>0.0</ele><time>2026-04-29T15:45:25.171Z</time></trkpt><trkpt lat="37.9066155" lon="-0.2015717"><ele>0.0</ele><time>2026-04-29T15:45:26.077Z</time></trkpt><trkpt lat="37.9067725" lon="-0.2013814"><ele>0.0</ele><time>2026-04-29T15:45:29.095Z</time></trkpt><trkpt lat="37.906853" lon="-0.2013105"><ele>0.0</ele><time>2026-04-29T15:45:30.101Z</time></trkpt><trkpt lat="37.9069319" lon="-0.2012419"><ele>0.0</ele><time>2026-04-29T15:45:31.107Z</time></trkpt><trkpt lat="37.9070259" lon="-0.2012193"><ele>0.0</ele><time>2026-04-29T15:45:32.112Z</time></trkpt><trkpt lat="37.9070845" lon="-0.2011722"><ele>0.0</ele><time>2026-04-29T15:45:33.071Z</time></trkpt><trkpt lat="37.9071588" lon="-0.201108"><ele>0.0</ele><time>2026-04-29T15:45:34.071Z</time></trkpt><trkpt lat="37.9073352" lon="-0.2010659"><ele>0.0</ele><time>2026-04-29T15:45:36.07Z</time></trkpt><trkpt lat="37.9074119" lon="-0.2010166"><ele>0.0</ele><time>2026-04-29T15:45:37.071Z</time></trkpt><trkpt lat="37.9074885" lon="-0.2009452"><ele>0.0</ele><time>2026-04-29T15:45:38.07Z</time></trkpt><trkpt lat="37.907656" lon="-0.2008471"><ele>0.0</ele><time>2026-04-29T15:45:40.071Z</time></trkpt><trkpt lat="37.9077265" lon="-0.2007863"><ele>0.0</ele><time>2026-04-29T15:45:41.07Z</time></trkpt><trkpt lat="37.9077951" lon="-0.2007274"><ele>0.0</ele><time>2026-04-29T15:45:42.07Z</time></trkpt><trkpt lat="37.9078675" lon="-0.2006632"><ele>0.0</ele><time>2026-04-29T15:45:43.07Z</time></trkpt><trkpt lat="37.9080096" lon="-0.2005081"><ele>0.0</ele><time>2026-04-29T15:45:45.07Z</time></trkpt><trkpt lat="37.9080798" lon="-0.2004353"><ele>0.0</ele><time>2026-04-29T15:45:46.07Z</time></trkpt><trkpt lat="37.9081497" lon="-0.2003586"><ele>0.0</ele><time>2026-04-29T15:45:47.071Z</time></trkpt><trkpt lat="37.9082212" lon="-0.2002801"><ele>0.0</ele><time>2026-04-29T15:45:48.07Z</time></trkpt><trkpt lat="37.9083712" lon="-0.200134"><ele>0.0</ele><time>2026-04-29T15:45:50.07Z</time></trkpt><trkpt lat="37.9085231" lon="-0.1999934"><ele>0.0</ele><time>2026-04-29T15:45:52.07Z</time></trkpt><trkpt lat="37.908591" lon="-0.1999186"><ele>0.0</ele><time>2026-04-29T15:45:53.07Z</time></trkpt><trkpt lat="37.9086993" lon="-0.1997041"><ele>0.0</ele><time>2026-04-29T15:45:56.106Z</time></trkpt><trkpt lat="37.9088332" lon="-0.199627"><ele>0.0</ele><time>2026-04-29T15:45:57.111Z</time></trkpt><trkpt lat="37.9090127" lon="-0.1994907"><ele>0.0</ele><time>2026-04-29T15:45:59.123Z</time></trkpt><trkpt lat="37.9090963" lon="-0.1994265"><ele>0.0</ele><time>2026-04-29T15:46:00.129Z</time></trkpt><trkpt lat="37.9091743" lon="-0.1993601"><ele>0.0</ele><time>2026-04-29T15:46:01.135Z</time></trkpt><trkpt lat="37.9092423" lon="-0.1992835"><ele>0.0</ele><time>2026-04-29T15:46:02.142Z</time></trkpt><trkpt lat="37.9094099" lon="-0.1991547"><ele>0.0</ele><time>2026-04-29T15:46:05.159Z</time></trkpt><trkpt lat="37.9094972" lon="-0.1990962"><ele>0.0</ele><time>2026-04-29T15:46:06.164Z</time></trkpt><trkpt lat="37.9095818" lon="-0.199048"><ele>0.0</ele><time>2026-04-29T15:46:07.17Z</time></trkpt><trkpt lat="37.9096665" lon="-0.1989945"><ele>0.0</ele><time>2026-04-29T15:46:08.177Z</time></trkpt><trkpt lat="37.9098031" lon="-0.1988262"><ele>0.0</ele><time>2026-04-29T15:46:10.088Z</time></trkpt><trkpt lat="37.909867" lon="-0.1987195"><ele>0.0</ele><time>2026-04-29T15:46:11.094Z</time></trkpt><trkpt lat="37.9100336" lon="-0.1985495"><ele>0.0</ele><time>2026-04-29T15:46:13.106Z</time></trkpt><trkpt lat="37.9101371" lon="-0.1985029"><ele>0.0</ele><time>2026-04-29T15:46:14.112Z</time></trkpt><trkpt lat="37.9101997" lon="-0.1984477"><ele>0.0</ele><time>2026-04-29T15:46:15.07Z</time></trkpt><trkpt lat="37.9103627" lon="-0.1982992"><ele>0.0</ele><time>2026-04-29T15:46:17.13Z</time></trkpt><trkpt lat="37.9104372" lon="-0.1982454"><ele>0.0</ele><time>2026-04-29T15:46:18.136Z</time></trkpt><trkpt lat="37.9105201" lon="-0.1982388"><ele>0.0</ele><time>2026-04-29T15:46:19.142Z</time></trkpt><trkpt lat="37.9106632" lon="-0.198189"><ele>0.0</ele><time>2026-04-29T15:46:21.07Z</time></trkpt><trkpt lat="37.9107081" lon="-0.1981032"><ele>0.0</ele><time>2026-04-29T15:46:22.16Z</time></trkpt><trkpt lat="37.9107989" lon="-0.1980199"><ele>0.0</ele><time>2026-04-29T15:46:23.166Z</time></trkpt><trkpt lat="37.9109823" lon="-0.1979084"><ele>0.0</ele><time>2026-04-29T15:46:25.177Z</time></trkpt><trkpt lat="37.9110657" lon="-0.1978612"><ele>0.0</ele><time>2026-04-29T15:46:26.083Z</time></trkpt><trkpt lat="37.9111464" lon="-0.1977967"><ele>0.0</ele><time>2026-04-29T15:46:27.09Z</time></trkpt><trkpt lat="37.9112216" lon="-0.1976644"><ele>0.0</ele><time>2026-04-29T15:46:29.101Z</time></trkpt><trkpt lat="37.911323" lon="-0.197598"><ele>0.0</ele><time>2026-04-29T15:46:30.107Z</time></trkpt><trkpt lat="37.9114938" lon="-0.1974837"><ele>0.0</ele><time>2026-04-29T15:46:32.119Z</time></trkpt><trkpt lat="37.9116422" lon="-0.197342"><ele>0.0</ele><time>2026-04-29T15:46:34.131Z</time></trkpt><trkpt lat="37.9118822" lon="-0.1971898"><ele>0.0</ele><time>2026-04-29T15:46:38.155Z</time></trkpt><trkpt lat="37.9120772" lon="-0.1970968"><ele>0.0</ele><time>2026-04-29T15:46:40.167Z</time></trkpt><trkpt lat="37.9121477" lon="-0.1969959"><ele>0.0</ele><time>2026-04-29T15:46:41.173Z</time></trkpt><trkpt lat="37.9122332" lon="-0.1969316"><ele>0.0</ele><time>2026-04-29T15:46:42.18Z</time></trkpt><trkpt lat="37.9123179" lon="-0.1968753"><ele>0.0</ele><time>2026-04-29T15:46:43.186Z</time></trkpt><trkpt lat="37.9124978" lon="-0.1968398"><ele>0.0</ele><time>2026-04-29T15:46:45.096Z</time></trkpt><trkpt lat="37.9125813" lon="-0.1968516"><ele>0.0</ele><time>2026-04-29T15:46:46.102Z</time></trkpt><trkpt lat="37.9126462" lon="-0.1967652"><ele>0.0</ele><time>2026-04-29T15:46:47.109Z</time></trkpt><trkpt lat="37.9127403" lon="-0.1965732"><ele>0.0</ele><time>2026-04-29T15:46:49.121Z</time></trkpt><trkpt lat="37.9128283" lon="-0.1965134"><ele>0.0</ele><time>2026-04-29T15:46:50.126Z</time></trkpt><trkpt lat="37.9129264" lon="-0.1964772"><ele>0.0</ele><time>2026-04-29T15:46:51.132Z</time></trkpt><trkpt lat="37.9130188" lon="-0.196434"><ele>0.0</ele><time>2026-04-29T15:46:52.139Z</time></trkpt><trkpt lat="37.9131066" lon="-0.1963954"><ele>0.0</ele><time>2026-04-29T15:46:53.145Z</time></trkpt><trkpt lat="37.9131768" lon="-0.1963177"><ele>0.0</ele><time>2026-04-29T15:46:54.15Z</time></trkpt><trkpt lat="37.9134063" lon="-0.1960039"><ele>0.0</ele><time>2026-04-29T15:46:58.174Z</time></trkpt><trkpt lat="37.9134731" lon="-0.1959259"><ele>0.0</ele><time>2026-04-29T15:46:59.079Z</time></trkpt><trkpt lat="37.9135663" lon="-0.1958843"><ele>0.0</ele><time>2026-04-29T15:47:00.085Z</time></trkpt><trkpt lat="37.913649" lon="-0.1958178"><ele>0.0</ele><time>2026-04-29T15:47:01.091Z</time></trkpt><trkpt lat="37.9137117" lon="-0.1957193"><ele>0.0</ele><time>2026-04-29T15:47:02.098Z</time></trkpt><trkpt lat="37.9137676" lon="-0.1956179"><ele>0.0</ele><time>2026-04-29T15:47:03.103Z</time></trkpt><trkpt lat="37.9141554" lon="-0.1952967"><ele>0.0</ele><time>2026-04-29T15:47:08.133Z</time></trkpt><trkpt lat="37.9142454" lon="-0.1952578"><ele>0.0</ele><time>2026-04-29T15:47:09.139Z</time></trkpt><trkpt lat="37.9143168" lon="-0.1951894"><ele>0.0</ele><time>2026-04-29T15:47:10.146Z</time></trkpt><trkpt lat="37.9143879" lon="-0.1951181"><ele>0.0</ele><time>2026-04-29T15:47:11.152Z</time></trkpt><trkpt lat="37.9145547" lon="-0.1950073"><ele>0.0</ele><time>2026-04-29T15:47:14.17Z</time></trkpt><trkpt lat="37.9146629" lon="-0.1949665"><ele>0.0</ele><time>2026-04-29T15:47:15.175Z</time></trkpt><trkpt lat="37.914752" lon="-0.1949139"><ele>0.0</ele><time>2026-04-29T15:47:16.182Z</time></trkpt><trkpt lat="37.9148454" lon="-0.1948848"><ele>0.0</ele><time>2026-04-29T15:47:17.188Z</time></trkpt><trkpt lat="37.9149306" lon="-0.194838"><ele>0.0</ele><time>2026-04-29T15:47:18.092Z</time></trkpt><trkpt lat="37.9151518" lon="-0.1945684"><ele>0.0</ele><time>2026-04-29T15:47:22.117Z</time></trkpt><trkpt lat="37.91525" lon="-0.1944935"><ele>0.0</ele><time>2026-04-29T15:47:23.122Z</time></trkpt><trkpt lat="37.9153335" lon="-0.1944422"><ele>0.0</ele><time>2026-04-29T15:47:24.128Z</time></trkpt><trkpt lat="37.9154145" lon="-0.1943972"><ele>0.0</ele><time>2026-04-29T15:47:25.134Z</time></trkpt><trkpt lat="37.9156034" lon="-0.1943435"><ele>0.0</ele><time>2026-04-29T15:47:27.147Z</time></trkpt><trkpt lat="37.9156806" lon="-0.1942614"><ele>0.0</ele><time>2026-04-29T15:47:28.152Z</time></trkpt><trkpt lat="37.9157565" lon="-0.1941847"><ele>0.0</ele><time>2026-04-29T15:47:29.159Z</time></trkpt><trkpt lat="37.9158256" lon="-0.1940972"><ele>0.0</ele><time>2026-04-29T15:47:30.165Z</time></trkpt><trkpt lat="37.9158912" lon="-0.1940753"><ele>0.0</ele><time>2026-04-29T15:47:32.176Z</time></trkpt><trkpt lat="37.916013" lon="-0.1939879"><ele>0.0</ele><time>2026-04-29T15:47:33.083Z</time></trkpt><trkpt lat="37.9161121" lon="-0.1939352"><ele>0.0</ele><time>2026-04-29T15:47:34.088Z</time></trkpt><trkpt lat="37.9162119" lon="-0.1938857"><ele>0.0</ele><time>2026-04-29T15:47:35.194Z</time></trkpt><trkpt lat="37.9163715" lon="-0.193776"><ele>0.0</ele><time>2026-04-29T15:47:37.106Z</time></trkpt><trkpt lat="37.9164461" lon="-0.1937132"><ele>0.0</ele><time>2026-04-29T15:47:38.112Z</time></trkpt><trkpt lat="37.9165603" lon="-0.1936164"><ele>0.0</ele><time>2026-04-29T15:47:41.13Z</time></trkpt><trkpt lat="37.9167861" lon="-0.19336"><ele>0.0</ele><time>2026-04-29T15:47:44.148Z</time></trkpt><trkpt lat="37.9168647" lon="-0.1932878"><ele>0.0</ele><time>2026-04-29T15:47:45.154Z</time></trkpt><trkpt lat="37.91702" lon="-0.1931539"><ele>0.0</ele><time>2026-04-29T15:47:47.165Z</time></trkpt><trkpt lat="37.9171007" lon="-0.1930863"><ele>0.0</ele><time>2026-04-29T15:47:48.171Z</time></trkpt><trkpt lat="37.9171772" lon="-0.1930285"><ele>0.0</ele><time>2026-04-29T15:47:49.078Z</time></trkpt><trkpt lat="37.9173358" lon="-0.1929027"><ele>0.0</ele><time>2026-04-29T15:47:51.089Z</time></trkpt><trkpt lat="37.9174167" lon="-0.1928427"><ele>0.0</ele><time>2026-04-29T15:47:52.096Z</time></trkpt><trkpt lat="37.9175" lon="-0.192792"><ele>0.0</ele><time>2026-04-29T15:47:53.102Z</time></trkpt><trkpt lat="37.9176315" lon="-0.1927186"><ele>0.0</ele><time>2026-04-29T15:47:55.07Z</time></trkpt><trkpt lat="37.9176686" lon="-0.1926422"><ele>0.0</ele><time>2026-04-29T15:47:56.119Z</time></trkpt><trkpt lat="37.9177666" lon="-0.1925718"><ele>0.0</ele><time>2026-04-29T15:47:57.125Z</time></trkpt><trkpt lat="37.9178596" lon="-0.1925251"><ele>0.0</ele><time>2026-04-29T15:47:58.132Z</time></trkpt><trkpt lat="37.9179526" lon="-0.1924783"><ele>0.0</ele><time>2026-04-29T15:47:59.137Z</time></trkpt><trkpt lat="37.9180437" lon="-0.1924356"><ele>0.0</ele><time>2026-04-29T15:48:00.143Z</time></trkpt><trkpt lat="37.9182018" lon="-0.1923238"><ele>0.0</ele><time>2026-04-29T15:48:02.154Z</time></trkpt><trkpt lat="37.9182808" lon="-0.1922775"><ele>0.0</ele><time>2026-04-29T15:48:03.161Z</time></trkpt><trkpt lat="37.9184538" lon="-0.192111"><ele>0.0</ele><time>2026-04-29T15:48:06.071Z</time></trkpt><trkpt lat="37.9184847" lon="-0.1920355"><ele>0.0</ele><time>2026-04-29T15:48:07.085Z</time></trkpt><trkpt lat="37.9185914" lon="-0.1919856"><ele>0.0</ele><time>2026-04-29T15:48:08.09Z</time></trkpt><trkpt lat="37.9187492" lon="-0.1918908"><ele>0.0</ele><time>2026-04-29T15:48:10.101Z</time></trkpt><trkpt lat="37.9188111" lon="-0.1918072"><ele>0.0</ele><time>2026-04-29T15:48:11.108Z</time></trkpt><trkpt lat="37.9188656" lon="-0.1917154"><ele>0.0</ele><time>2026-04-29T15:48:12.114Z</time></trkpt><trkpt lat="37.9189795" lon="-0.1915458"><ele>0.0</ele><time>2026-04-29T15:48:14.125Z</time></trkpt><trkpt lat="37.9190349" lon="-0.1914462"><ele>0.0</ele><time>2026-04-29T15:48:15.131Z</time></trkpt><trkpt lat="37.9191129" lon="-0.1913735"><ele>0.0</ele><time>2026-04-29T15:48:16.138Z</time></trkpt><trkpt lat="37.9192087" lon="-0.1913299"><ele>0.0</ele><time>2026-04-29T15:48:17.143Z</time></trkpt><trkpt lat="37.9192984" lon="-0.1912175"><ele>0.0</ele><time>2026-04-29T15:48:19.155Z</time></trkpt><trkpt lat="37.9194992" lon="-0.1910923"><ele>0.0</ele><time>2026-04-29T15:48:21.168Z</time></trkpt><trkpt lat="37.9195916" lon="-0.1910408"><ele>0.0</ele><time>2026-04-29T15:48:22.173Z</time></trkpt><trkpt lat="37.9196801" lon="-0.1909842"><ele>0.0</ele><time>2026-04-29T15:48:23.179Z</time></trkpt><trkpt lat="37.9198746" lon="-0.1909039"><ele>0.0</ele><time>2026-04-29T15:48:25.09Z</time></trkpt><trkpt lat="37.9200574" lon="-0.1907679"><ele>0.0</ele><time>2026-04-29T15:48:27.102Z</time></trkpt><trkpt lat="37.9201343" lon="-0.1906953"><ele>0.0</ele><time>2026-04-29T15:48:28.108Z</time></trkpt><trkpt lat="37.9202165" lon="-0.1906392"><ele>0.0</ele><time>2026-04-29T15:48:29.114Z</time></trkpt><trkpt lat="37.9203003" lon="-0.1906047"><ele>0.0</ele><time>2026-04-29T15:48:30.12Z</time></trkpt><trkpt lat="37.9203638" lon="-0.1904957"><ele>0.0</ele><time>2026-04-29T15:48:32.132Z</time></trkpt><trkpt lat="37.9204736" lon="-0.1904351"><ele>0.0</ele><time>2026-04-29T15:48:33.139Z</time></trkpt><trkpt lat="37.9206576" lon="-0.1903503"><ele>0.0</ele><time>2026-04-29T15:48:35.15Z</time></trkpt><trkpt lat="37.9207395" lon="-0.1902914"><ele>0.0</ele><time>2026-04-29T15:48:36.157Z</time></trkpt><trkpt lat="37.9209033" lon="-0.1901218"><ele>0.0</ele><time>2026-04-29T15:48:39.174Z</time></trkpt><trkpt lat="37.9209837" lon="-0.1900786"><ele>0.0</ele><time>2026-04-29T15:48:40.08Z</time></trkpt><trkpt lat="37.921065" lon="-0.1900173"><ele>0.0</ele><time>2026-04-29T15:48:41.086Z</time></trkpt><trkpt lat="37.9211352" lon="-0.1899366"><ele>0.0</ele><time>2026-04-29T15:48:42.092Z</time></trkpt><trkpt lat="37.9212085" lon="-0.1898745"><ele>0.0</ele><time>2026-04-29T15:48:43.098Z</time></trkpt><trkpt lat="37.9212951" lon="-0.1898242"><ele>0.0</ele><time>2026-04-29T15:48:44.104Z</time></trkpt><trkpt lat="37.9215183" lon="-0.1895421"><ele>0.0</ele><time>2026-04-29T15:48:48.127Z</time></trkpt><trkpt lat="37.9216059" lon="-0.1894881"><ele>0.0</ele><time>2026-04-29T15:48:49.133Z</time></trkpt><trkpt lat="37.9217667" lon="-0.1893686"><ele>0.0</ele><time>2026-04-29T15:48:51.145Z</time></trkpt><trkpt lat="37.9218503" lon="-0.1893054"><ele>0.0</ele><time>2026-04-29T15:48:52.15Z</time></trkpt><trkpt lat="37.9219098" lon="-0.189202"><ele>0.0</ele><time>2026-04-29T15:48:53.157Z</time></trkpt><trkpt lat="37.9219805" lon="-0.18911"><ele>0.0</ele><time>2026-04-29T15:48:54.162Z</time></trkpt><trkpt lat="37.9220575" lon="-0.1890539"><ele>0.0</ele><time>2026-04-29T15:48:55.07Z</time></trkpt><trkpt lat="37.9222107" lon="-0.1889273"><ele>0.0</ele><time>2026-04-29T15:48:57.08Z</time></trkpt><trkpt lat="37.9222909" lon="-0.1888627"><ele>0.0</ele><time>2026-04-29T15:48:58.085Z</time></trkpt><trkpt lat="37.9223699" lon="-0.188796"><ele>0.0</ele><time>2026-04-29T15:48:59.091Z</time></trkpt><trkpt lat="37.9224461" lon="-0.1887196"><ele>0.0</ele><time>2026-04-29T15:49:00.097Z</time></trkpt><trkpt lat="37.922513" lon="-0.1886327"><ele>0.0</ele><time>2026-04-29T15:49:01.104Z</time></trkpt><trkpt lat="37.9225835" lon="-0.1885303"><ele>0.0</ele><time>2026-04-29T15:49:03.115Z</time></trkpt><trkpt lat="37.9226864" lon="-0.1884659"><ele>0.0</ele><time>2026-04-29T15:49:04.121Z</time></trkpt><trkpt lat="37.9227806" lon="-0.1884248"><ele>0.0</ele><time>2026-04-29T15:49:05.128Z</time></trkpt><trkpt lat="37.922964" lon="-0.1883522"><ele>0.0</ele><time>2026-04-29T15:49:07.139Z</time></trkpt><trkpt lat="37.9231069" lon="-0.1881992"><ele>0.0</ele><time>2026-04-29T15:49:09.152Z</time></trkpt><trkpt lat="37.9232453" lon="-0.1880764"><ele>0.0</ele><time>2026-04-29T15:49:11.164Z</time></trkpt><trkpt lat="37.9233035" lon="-0.1879964"><ele>0.0</ele><time>2026-04-29T15:49:12.07Z</time></trkpt><trkpt lat="37.9233747" lon="-0.1879263"><ele>0.0</ele><time>2026-04-29T15:49:13.074Z</time></trkpt><trkpt lat="37.9235314" lon="-0.1878877"><ele>0.0</ele><time>2026-04-29T15:49:15.071Z</time></trkpt><trkpt lat="37.9235904" lon="-0.1878462"><ele>0.0</ele><time>2026-04-29T15:49:16.092Z</time></trkpt><trkpt lat="37.9237009" lon="-0.1877845"><ele>0.0</ele><time>2026-04-29T15:49:17.099Z</time></trkpt><trkpt lat="37.9238811" lon="-0.1876481"><ele>0.0</ele><time>2026-04-29T15:49:19.11Z</time></trkpt><trkpt lat="37.9239674" lon="-0.1875914"><ele>0.0</ele><time>2026-04-29T15:49:20.117Z</time></trkpt><trkpt lat="37.9240446" lon="-0.1875296"><ele>0.0</ele><time>2026-04-29T15:49:21.122Z</time></trkpt><trkpt lat="37.9241238" lon="-0.1874669"><ele>0.0</ele><time>2026-04-29T15:49:22.127Z</time></trkpt><trkpt lat="37.9242037" lon="-0.1874027"><ele>0.0</ele><time>2026-04-29T15:49:23.133Z</time></trkpt><trkpt lat="37.9242813" lon="-0.1873369"><ele>0.0</ele><time>2026-04-29T15:49:24.139Z</time></trkpt><trkpt lat="37.9243494" lon="-0.1872157"><ele>0.0</ele><time>2026-04-29T15:49:26.151Z</time></trkpt><trkpt lat="37.9244676" lon="-0.1872735"><ele>0.0</ele><time>2026-04-29T15:49:27.157Z</time></trkpt><trkpt lat="37.9245659" lon="-0.1872504"><ele>0.0</ele><time>2026-04-29T15:49:28.163Z</time></trkpt><trkpt lat="37.9246824" lon="-0.1870518"><ele>0.0</ele><time>2026-04-29T15:49:30.175Z</time></trkpt><trkpt lat="37.9247497" lon="-0.1869911"><ele>0.0</ele><time>2026-04-29T15:49:31.08Z</time></trkpt><trkpt lat="37.9248344" lon="-0.1869375"><ele>0.0</ele><time>2026-04-29T15:49:32.086Z</time></trkpt><trkpt lat="37.9249228" lon="-0.186884"><ele>0.0</ele><time>2026-04-29T15:49:33.092Z</time></trkpt><trkpt lat="37.9249705" lon="-0.1868152"><ele>0.0</ele><time>2026-04-29T15:49:34.069Z</time></trkpt><trkpt lat="37.9250446" lon="-0.18674"><ele>0.0</ele><time>2026-04-29T15:49:35.069Z</time></trkpt><trkpt lat="37.9252029" lon="-0.1865994"><ele>0.0</ele><time>2026-04-29T15:49:37.07Z</time></trkpt><trkpt lat="37.9252827" lon="-0.1865364"><ele>0.0</ele><time>2026-04-29T15:49:38.07Z</time></trkpt><trkpt lat="37.9253571" lon="-0.1864637"><ele>0.0</ele><time>2026-04-29T15:49:39.07Z</time></trkpt><trkpt lat="37.9254276" lon="-0.1863981"><ele>0.0</ele><time>2026-04-29T15:49:40.069Z</time></trkpt><trkpt lat="37.925496" lon="-0.1863364"><ele>0.0</ele><time>2026-04-29T15:49:41.069Z</time></trkpt><trkpt lat="37.925643" lon="-0.1862095"><ele>0.0</ele><time>2026-04-29T15:49:43.07Z</time></trkpt><trkpt lat="37.9257168" lon="-0.1861454"><ele>0.0</ele><time>2026-04-29T15:49:44.069Z</time></trkpt><trkpt lat="37.9257946" lon="-0.1860801"><ele>0.0</ele><time>2026-04-29T15:49:45.069Z</time></trkpt><trkpt lat="37.9258656" lon="-0.1860064"><ele>0.0</ele><time>2026-04-29T15:49:46.069Z</time></trkpt><trkpt lat="37.9259337" lon="-0.1859257"><ele>0.0</ele><time>2026-04-29T15:49:47.069Z</time></trkpt><trkpt lat="37.9259976" lon="-0.185831"><ele>0.0</ele><time>2026-04-29T15:49:48.069Z</time></trkpt><trkpt lat="37.9260613" lon="-0.1857265"><ele>0.0</ele><time>2026-04-29T15:49:49.069Z</time></trkpt><trkpt lat="37.9261377" lon="-0.1856656"><ele>0.0</ele><time>2026-04-29T15:49:50.07Z</time></trkpt><trkpt lat="37.9262934" lon="-0.1855819"><ele>0.0</ele><time>2026-04-29T15:49:52.069Z</time></trkpt><trkpt lat="37.9264404" lon="-0.1854683"><ele>0.0</ele><time>2026-04-29T15:49:54.069Z</time></trkpt><trkpt lat="37.9264783" lon="-0.1853984"><ele>0.0</ele><time>2026-04-29T15:49:56.16Z</time></trkpt><trkpt lat="37.9265683" lon="-0.1852981"><ele>0.0</ele><time>2026-04-29T15:49:57.166Z</time></trkpt><trkpt lat="37.9267775" lon="-0.18518"><ele>0.0</ele><time>2026-04-29T15:49:59.079Z</time></trkpt><trkpt lat="37.9268737" lon="-0.185138"><ele>0.0</ele><time>2026-04-29T15:50:00.083Z</time></trkpt><trkpt lat="37.926964" lon="-0.1850817"><ele>0.0</ele><time>2026-04-29T15:50:01.09Z</time></trkpt><trkpt lat="37.9271352" lon="-0.1849475"><ele>0.0</ele><time>2026-04-29T15:50:03.102Z</time></trkpt><trkpt lat="37.9272174" lon="-0.1848728"><ele>0.0</ele><time>2026-04-29T15:50:04.108Z</time></trkpt><trkpt lat="37.9272833" lon="-0.1847649"><ele>0.0</ele><time>2026-04-29T15:50:05.114Z</time></trkpt><trkpt lat="37.9273521" lon="-0.1846691"><ele>0.0</ele><time>2026-04-29T15:50:06.119Z</time></trkpt><trkpt lat="37.9274283" lon="-0.1845874"><ele>0.0</ele><time>2026-04-29T15:50:07.125Z</time></trkpt><trkpt lat="37.9274958" lon="-0.1845728"><ele>0.0</ele><time>2026-04-29T15:50:09.137Z</time></trkpt><trkpt lat="37.9275174" lon="-0.1844841"><ele>0.0</ele><time>2026-04-29T15:50:10.143Z</time></trkpt><trkpt lat="37.9275775" lon="-0.1844036"><ele>0.0</ele><time>2026-04-29T15:50:11.149Z</time></trkpt><trkpt lat="37.9278233" lon="-0.184275"><ele>0.0</ele><time>2026-04-29T15:50:13.161Z</time></trkpt><trkpt lat="37.9279813" lon="-0.18411"><ele>0.0</ele><time>2026-04-29T15:50:15.173Z</time></trkpt><trkpt lat="37.9280499" lon="-0.1840276"><ele>0.0</ele><time>2026-04-29T15:50:16.078Z</time></trkpt><trkpt lat="37.928127" lon="-0.1839533"><ele>0.0</ele><time>2026-04-29T15:50:17.085Z</time></trkpt><trkpt lat="37.9282145" lon="-0.1839012"><ele>0.0</ele><time>2026-04-29T15:50:18.09Z</time></trkpt><trkpt lat="37.9282723" lon="-0.1838609"><ele>0.0</ele><time>2026-04-29T15:50:19.069Z</time></trkpt><trkpt lat="37.9284173" lon="-0.1837281"><ele>0.0</ele><time>2026-04-29T15:50:21.069Z</time></trkpt><trkpt lat="37.9284922" lon="-0.1836789"><ele>0.0</ele><time>2026-04-29T15:50:22.07Z</time></trkpt><trkpt lat="37.9285736" lon="-0.1836222"><ele>0.0</ele><time>2026-04-29T15:50:23.07Z</time></trkpt><trkpt lat="37.9287376" lon="-0.1834987"><ele>0.0</ele><time>2026-04-29T15:50:25.069Z</time></trkpt><trkpt lat="37.9288075" lon="-0.1834382"><ele>0.0</ele><time>2026-04-29T15:50:26.07Z</time></trkpt><trkpt lat="37.928957" lon="-0.1833179"><ele>0.0</ele><time>2026-04-29T15:50:28.069Z</time></trkpt><trkpt lat="37.9290286" lon="-0.1832565"><ele>0.0</ele><time>2026-04-29T15:50:29.07Z</time></trkpt><trkpt lat="37.9291015" lon="-0.1832178"><ele>0.0</ele><time>2026-04-29T15:50:30.07Z</time></trkpt><trkpt lat="37.9291721" lon="-0.1831618"><ele>0.0</ele><time>2026-04-29T15:50:31.07Z</time></trkpt><trkpt lat="37.9292466" lon="-0.1830993"><ele>0.0</ele><time>2026-04-29T15:50:32.07Z</time></trkpt><trkpt lat="37.9293963" lon="-0.1829943"><ele>0.0</ele><time>2026-04-29T15:50:34.069Z</time></trkpt><trkpt lat="37.9295466" lon="-0.182878"><ele>0.0</ele><time>2026-04-29T15:50:36.069Z</time></trkpt><trkpt lat="37.9296155" lon="-0.1828181"><ele>0.0</ele><time>2026-04-29T15:50:37.069Z</time></trkpt><trkpt lat="37.9296983" lon="-0.1827583"><ele>0.0</ele><time>2026-04-29T15:50:38.069Z</time></trkpt><trkpt lat="37.9298554" lon="-0.182638"><ele>0.0</ele><time>2026-04-29T15:50:40.07Z</time></trkpt><trkpt lat="37.9299333" lon="-0.1825777"><ele>0.0</ele><time>2026-04-29T15:50:41.07Z</time></trkpt><trkpt lat="37.9300128" lon="-0.1825117"><ele>0.0</ele><time>2026-04-29T15:50:42.069Z</time></trkpt><trkpt lat="37.9301666" lon="-0.1823906"><ele>0.0</ele><time>2026-04-29T15:50:44.069Z</time></trkpt><trkpt lat="37.9302389" lon="-0.1823223"><ele>0.0</ele><time>2026-04-29T15:50:45.07Z</time></trkpt><trkpt lat="37.9303946" lon="-0.1821532"><ele>0.0</ele><time>2026-04-29T15:50:48.158Z</time></trkpt><trkpt lat="37.9304924" lon="-0.1820649"><ele>0.0</ele><time>2026-04-29T15:50:49.164Z</time></trkpt><trkpt lat="37.9305732" lon="-0.1819946"><ele>0.0</ele><time>2026-04-29T15:50:50.17Z</time></trkpt><trkpt lat="37.9307063" lon="-0.1818278"><ele>0.0</ele><time>2026-04-29T15:50:52.082Z</time></trkpt><trkpt lat="37.9307787" lon="-0.1817573"><ele>0.0</ele><time>2026-04-29T15:50:53.07Z</time></trkpt><trkpt lat="37.9308496" lon="-0.1816877"><ele>0.0</ele><time>2026-04-29T15:50:54.07Z</time></trkpt><trkpt lat="37.9309201" lon="-0.1816137"><ele>0.0</ele><time>2026-04-29T15:50:55.069Z</time></trkpt><trkpt lat="37.9309946" lon="-0.1815446"><ele>0.0</ele><time>2026-04-29T15:50:56.07Z</time></trkpt><trkpt lat="37.9312854" lon="-0.1812962"><ele>0.0</ele><time>2026-04-29T15:51:00.069Z</time></trkpt><trkpt lat="37.9313737" lon="-0.1812584"><ele>0.0</ele><time>2026-04-29T15:51:01.07Z</time></trkpt><trkpt lat="37.9314565" lon="-0.1811956"><ele>0.0</ele><time>2026-04-29T15:51:02.069Z</time></trkpt><trkpt lat="37.9315326" lon="-0.1811335"><ele>0.0</ele><time>2026-04-29T15:51:03.069Z</time></trkpt><trkpt lat="37.9316079" lon="-0.1810694"><ele>0.0</ele><time>2026-04-29T15:51:04.07Z</time></trkpt><trkpt lat="37.9316819" lon="-0.1810072"><ele>0.0</ele><time>2026-04-29T15:51:05.069Z</time></trkpt><trkpt lat="37.9317552" lon="-0.1809452"><ele>0.0</ele><time>2026-04-29T15:51:06.069Z</time></trkpt><trkpt lat="37.9318313" lon="-0.1808837"><ele>0.0</ele><time>2026-04-29T15:51:07.07Z</time></trkpt><trkpt lat="37.9319623" lon="-0.1807556"><ele>0.0</ele><time>2026-04-29T15:51:09.07Z</time></trkpt><trkpt lat="37.9320316" lon="-0.1807264"><ele>0.0</ele><time>2026-04-29T15:51:10.069Z</time></trkpt><trkpt lat="37.9321001" lon="-0.1806682"><ele>0.0</ele><time>2026-04-29T15:51:11.07Z</time></trkpt><trkpt lat="37.9321739" lon="-0.1806296"><ele>0.0</ele><time>2026-04-29T15:51:12.07Z</time></trkpt><trkpt lat="37.9322378" lon="-0.1805517"><ele>0.0</ele><time>2026-04-29T15:51:13.069Z</time></trkpt><trkpt lat="37.9323026" lon="-0.180444"><ele>0.0</ele><time>2026-04-29T15:51:14.069Z</time></trkpt><trkpt lat="37.9323659" lon="-0.1803617"><ele>0.0</ele><time>2026-04-29T15:51:15.069Z</time></trkpt><trkpt lat="37.9324346" lon="-0.1802983"><ele>0.0</ele><time>2026-04-29T15:51:16.07Z</time></trkpt><trkpt lat="37.9325101" lon="-0.1801872"><ele>0.0</ele><time>2026-04-29T15:51:17.069Z</time></trkpt><trkpt lat="37.9325886" lon="-0.1800888"><ele>0.0</ele><time>2026-04-29T15:51:18.07Z</time></trkpt><trkpt lat="37.9327339" lon="-0.179992"><ele>0.0</ele><time>2026-04-29T15:51:22.087Z</time></trkpt><trkpt lat="37.9330433" lon="-0.1797536"><ele>0.0</ele><time>2026-04-29T15:51:24.098Z</time></trkpt><trkpt lat="37.9331396" lon="-0.1796765"><ele>0.0</ele><time>2026-04-29T15:51:25.105Z</time></trkpt><trkpt lat="37.9332262" lon="-0.1796017"><ele>0.0</ele><time>2026-04-29T15:51:26.111Z</time></trkpt><trkpt lat="37.9333087" lon="-0.1795336"><ele>0.0</ele><time>2026-04-29T15:51:27.116Z</time></trkpt><trkpt lat="37.9333898" lon="-0.1794649"><ele>0.0</ele><time>2026-04-29T15:51:28.122Z</time></trkpt><trkpt lat="37.9334647" lon="-0.179389"><ele>0.0</ele><time>2026-04-29T15:51:29.128Z</time></trkpt><trkpt lat="37.9335311" lon="-0.1793043"><ele>0.0</ele><time>2026-04-29T15:51:31.14Z</time></trkpt><trkpt lat="37.9336596" lon="-0.1792777"><ele>0.0</ele><time>2026-04-29T15:51:32.145Z</time></trkpt><trkpt lat="37.9337459" lon="-0.1792189"><ele>0.0</ele><time>2026-04-29T15:51:33.151Z</time></trkpt><trkpt lat="37.9338262" lon="-0.1791498"><ele>0.0</ele><time>2026-04-29T15:51:34.157Z</time></trkpt><trkpt lat="37.9340423" lon="-0.1789782"><ele>0.0</ele><time>2026-04-29T15:51:37.176Z</time></trkpt><trkpt lat="37.9341344" lon="-0.1789466"><ele>0.0</ele><time>2026-04-29T15:51:38.081Z</time></trkpt><trkpt lat="37.9342137" lon="-0.1788875"><ele>0.0</ele><time>2026-04-29T15:51:39.087Z</time></trkpt><trkpt lat="37.9342992" lon="-0.178854"><ele>0.0</ele><time>2026-04-29T15:51:40.092Z</time></trkpt><trkpt lat="37.9343802" lon="-0.1788004"><ele>0.0</ele><time>2026-04-29T15:51:41.099Z</time></trkpt><trkpt lat="37.9344537" lon="-0.178721"><ele>0.0</ele><time>2026-04-29T15:51:42.104Z</time></trkpt><trkpt lat="37.9345332" lon="-0.1786468"><ele>0.0</ele><time>2026-04-29T15:51:43.111Z</time></trkpt><trkpt lat="37.9347241" lon="-0.1784516"><ele>0.0</ele><time>2026-04-29T15:51:46.128Z</time></trkpt><trkpt lat="37.934816" lon="-0.178398"><ele>0.0</ele><time>2026-04-29T15:51:47.134Z</time></trkpt><trkpt lat="37.9349027" lon="-0.1783422"><ele>0.0</ele><time>2026-04-29T15:51:48.141Z</time></trkpt><trkpt lat="37.9349733" lon="-0.178209"><ele>0.0</ele><time>2026-04-29T15:51:50.152Z</time></trkpt><trkpt lat="37.9350418" lon="-0.1781069"><ele>0.0</ele><time>2026-04-29T15:51:51.158Z</time></trkpt><trkpt lat="37.9351001" lon="-0.1780133"><ele>0.0</ele><time>2026-04-29T15:51:52.164Z</time></trkpt><trkpt lat="37.9351732" lon="-0.1779391"><ele>0.0</ele><time>2026-04-29T15:51:53.17Z</time></trkpt><trkpt lat="37.9352422" lon="-0.1778708"><ele>0.0</ele><time>2026-04-29T15:51:54.075Z</time></trkpt><trkpt lat="37.9353228" lon="-0.1777928"><ele>0.0</ele><time>2026-04-29T15:51:55.181Z</time></trkpt><trkpt lat="37.9353905" lon="-0.1777181"><ele>0.0</ele><time>2026-04-29T15:51:56.088Z</time></trkpt><trkpt lat="37.935459" lon="-0.1776451"><ele>0.0</ele><time>2026-04-29T15:51:57.093Z</time></trkpt><trkpt lat="37.9355329" lon="-0.1775836"><ele>0.0</ele><time>2026-04-29T15:51:58.098Z</time></trkpt><trkpt lat="37.9356174" lon="-0.1775412"><ele>0.0</ele><time>2026-04-29T15:51:59.104Z</time></trkpt><trkpt lat="37.9357072" lon="-0.1774994"><ele>0.0</ele><time>2026-04-29T15:52:00.111Z</time></trkpt><trkpt lat="37.9357864" lon="-0.1774325"><ele>0.0</ele><time>2026-04-29T15:52:01.116Z</time></trkpt><trkpt lat="37.9358653" lon="-0.1773658"><ele>0.0</ele><time>2026-04-29T15:52:02.123Z</time></trkpt><trkpt lat="37.9359516" lon="-0.1773067"><ele>0.0</ele><time>2026-04-29T15:52:03.128Z</time></trkpt><trkpt lat="37.9360385" lon="-0.177252"><ele>0.0</ele><time>2026-04-29T15:52:04.134Z</time></trkpt><trkpt lat="37.9362447" lon="-0.1770461"><ele>0.0</ele><time>2026-04-29T15:52:07.069Z</time></trkpt><trkpt lat="37.9362843" lon="-0.1769633"><ele>0.0</ele><time>2026-04-29T15:52:08.159Z</time></trkpt><trkpt lat="37.9363729" lon="-0.1768816"><ele>0.0</ele><time>2026-04-29T15:52:09.165Z</time></trkpt><trkpt lat="37.9364481" lon="-0.1768145"><ele>0.0</ele><time>2026-04-29T15:52:10.17Z</time></trkpt><trkpt lat="37.9365948" lon="-0.1766802"><ele>0.0</ele><time>2026-04-29T15:52:12.081Z</time></trkpt><trkpt lat="37.9366874" lon="-0.1766442"><ele>0.0</ele><time>2026-04-29T15:52:13.088Z</time></trkpt><trkpt lat="37.9367725" lon="-0.1765933"><ele>0.0</ele><time>2026-04-29T15:52:14.093Z</time></trkpt><trkpt lat="37.9368561" lon="-0.1765251"><ele>0.0</ele><time>2026-04-29T15:52:15.099Z</time></trkpt><trkpt lat="37.9369161" lon="-0.1764885"><ele>0.0</ele><time>2026-04-29T15:52:17.111Z</time></trkpt><trkpt lat="37.9369545" lon="-0.1764029"><ele>0.0</ele><time>2026-04-29T15:52:18.118Z</time></trkpt><trkpt lat="37.9370791" lon="-0.1763074"><ele>0.0</ele><time>2026-04-29T15:52:19.123Z</time></trkpt><trkpt lat="37.9371893" lon="-0.1762786"><ele>0.0</ele><time>2026-04-29T15:52:20.129Z</time></trkpt><trkpt lat="37.9372896" lon="-0.1762401"><ele>0.0</ele><time>2026-04-29T15:52:21.134Z</time></trkpt><trkpt lat="37.9374667" lon="-0.1761345"><ele>0.0</ele><time>2026-04-29T15:52:23.147Z</time></trkpt><trkpt lat="37.93755" lon="-0.1760743"><ele>0.0</ele><time>2026-04-29T15:52:24.152Z</time></trkpt><trkpt lat="37.9376283" lon="-0.1760078"><ele>0.0</ele><time>2026-04-29T15:52:25.159Z</time></trkpt><trkpt lat="37.9376994" lon="-0.1758784"><ele>0.0</ele><time>2026-04-29T15:52:27.17Z</time></trkpt><trkpt lat="37.9378771" lon="-0.1757616"><ele>0.0</ele><time>2026-04-29T15:52:29.081Z</time></trkpt><trkpt lat="37.938046" lon="-0.17564"><ele>0.0</ele><time>2026-04-29T15:52:31.094Z</time></trkpt><trkpt lat="37.9381296" lon="-0.1755808"><ele>0.0</ele><time>2026-04-29T15:52:32.099Z</time></trkpt><trkpt lat="37.938212" lon="-0.1755226"><ele>0.0</ele><time>2026-04-29T15:52:33.105Z</time></trkpt><trkpt lat="37.9383463" lon="-0.1754822"><ele>0.0</ele><time>2026-04-29T15:52:35.07Z</time></trkpt><trkpt lat="37.9383836" lon="-0.1754061"><ele>0.0</ele><time>2026-04-29T15:52:36.124Z</time></trkpt><trkpt lat="37.9385684" lon="-0.1753174"><ele>0.0</ele><time>2026-04-29T15:52:38.07Z</time></trkpt><trkpt lat="37.9386366" lon="-0.1752534"><ele>0.0</ele><time>2026-04-29T15:52:39.069Z</time></trkpt><trkpt lat="37.9387091" lon="-0.1751848"><ele>0.0</ele><time>2026-04-29T15:52:40.069Z</time></trkpt><trkpt lat="37.9387813" lon="-0.175113"><ele>0.0</ele><time>2026-04-29T15:52:41.069Z</time></trkpt><trkpt lat="37.9388536" lon="-0.1750711"><ele>0.0</ele><time>2026-04-29T15:52:42.069Z</time></trkpt><trkpt lat="37.9389296" lon="-0.1750422"><ele>0.0</ele><time>2026-04-29T15:52:43.07Z</time></trkpt><trkpt lat="37.939004" lon="-0.1749994"><ele>0.0</ele><time>2026-04-29T15:52:44.07Z</time></trkpt><trkpt lat="37.9390875" lon="-0.1749608"><ele>0.0</ele><time>2026-04-29T15:52:45.069Z</time></trkpt><trkpt lat="37.9391674" lon="-0.174908"><ele>0.0</ele><time>2026-04-29T15:52:46.07Z</time></trkpt><trkpt lat="37.939247" lon="-0.1748549"><ele>0.0</ele><time>2026-04-29T15:52:47.07Z</time></trkpt><trkpt lat="37.9393229" lon="-0.1748016"><ele>0.0</ele><time>2026-04-29T15:52:48.069Z</time></trkpt><trkpt lat="37.9394824" lon="-0.1747034"><ele>0.0</ele><time>2026-04-29T15:52:50.069Z</time></trkpt><trkpt lat="37.9395596" lon="-0.1746561"><ele>0.0</ele><time>2026-04-29T15:52:51.07Z</time></trkpt><trkpt lat="37.9396442" lon="-0.1746026"><ele>0.0</ele><time>2026-04-29T15:52:52.07Z</time></trkpt><trkpt lat="37.9397209" lon="-0.1745462"><ele>0.0</ele><time>2026-04-29T15:52:53.069Z</time></trkpt><trkpt lat="37.9397974" lon="-0.1744923"><ele>0.0</ele><time>2026-04-29T15:52:54.069Z</time></trkpt><trkpt lat="37.9398754" lon="-0.1744377"><ele>0.0</ele><time>2026-04-29T15:52:55.069Z</time></trkpt><trkpt lat="37.9399464" lon="-0.174374"><ele>0.0</ele><time>2026-04-29T15:52:56.069Z</time></trkpt><trkpt lat="37.9401049" lon="-0.1742544"><ele>0.0</ele><time>2026-04-29T15:52:58.07Z</time></trkpt><trkpt lat="37.9401788" lon="-0.1741918"><ele>0.0</ele><time>2026-04-29T15:52:59.07Z</time></trkpt><trkpt lat="37.9402532" lon="-0.174133"><ele>0.0</ele><time>2026-04-29T15:53:00.07Z</time></trkpt><trkpt lat="37.9403244" lon="-0.1740634"><ele>0.0</ele><time>2026-04-29T15:53:01.07Z</time></trkpt><trkpt lat="37.9403962" lon="-0.1739926"><ele>0.0</ele><time>2026-04-29T15:53:02.07Z</time></trkpt><trkpt lat="37.9404644" lon="-0.1739245"><ele>0.0</ele><time>2026-04-29T15:53:03.069Z</time></trkpt><trkpt lat="37.9405314" lon="-0.1738607"><ele>0.0</ele><time>2026-04-29T15:53:04.069Z</time></trkpt><trkpt lat="37.9405932" lon="-0.1738057"><ele>0.0</ele><time>2026-04-29T15:53:06.156Z</time></trkpt><trkpt lat="37.9408819" lon="-0.1735757"><ele>0.0</ele><time>2026-04-29T15:53:09.173Z</time></trkpt><trkpt lat="37.9410428" lon="-0.1734202"><ele>0.0</ele><time>2026-04-29T15:53:11.184Z</time></trkpt><trkpt lat="37.9411174" lon="-0.1733507"><ele>0.0</ele><time>2026-04-29T15:53:12.091Z</time></trkpt><trkpt lat="37.9411931" lon="-0.1732793"><ele>0.0</ele><time>2026-04-29T15:53:13.097Z</time></trkpt><trkpt lat="37.9412696" lon="-0.1732016"><ele>0.0</ele><time>2026-04-29T15:53:14.102Z</time></trkpt><trkpt lat="37.9413237" lon="-0.1731071"><ele>0.0</ele><time>2026-04-29T15:53:15.069Z</time></trkpt><trkpt lat="37.9413931" lon="-0.1730156"><ele>0.0</ele><time>2026-04-29T15:53:16.068Z</time></trkpt><trkpt lat="37.9414645" lon="-0.172941"><ele>0.0</ele><time>2026-04-29T15:53:17.068Z</time></trkpt><trkpt lat="37.9415417" lon="-0.1728757"><ele>0.0</ele><time>2026-04-29T15:53:18.069Z</time></trkpt><trkpt lat="37.9416103" lon="-0.1728139"><ele>0.0</ele><time>2026-04-29T15:53:19.069Z</time></trkpt><trkpt lat="37.9416799" lon="-0.1727577"><ele>0.0</ele><time>2026-04-29T15:53:20.069Z</time></trkpt><trkpt lat="37.9417587" lon="-0.1727015"><ele>0.0</ele><time>2026-04-29T15:53:21.068Z</time></trkpt><trkpt lat="37.941827" lon="-0.1726391"><ele>0.0</ele><time>2026-04-29T15:53:22.068Z</time></trkpt><trkpt lat="37.9418948" lon="-0.1725777"><ele>0.0</ele><time>2026-04-29T15:53:23.069Z</time></trkpt><trkpt lat="37.9419684" lon="-0.1725174"><ele>0.0</ele><time>2026-04-29T15:53:24.068Z</time></trkpt><trkpt lat="37.9420358" lon="-0.1724455"><ele>0.0</ele><time>2026-04-29T15:53:25.068Z</time></trkpt><trkpt lat="37.9421648" lon="-0.172306"><ele>0.0</ele><time>2026-04-29T15:53:27.069Z</time></trkpt><trkpt lat="37.942229" lon="-0.172232"><ele>0.0</ele><time>2026-04-29T15:53:28.069Z</time></trkpt><trkpt lat="37.9422921" lon="-0.1721585"><ele>0.0</ele><time>2026-04-29T15:53:29.068Z</time></trkpt><trkpt lat="37.9423535" lon="-0.1720907"><ele>0.0</ele><time>2026-04-29T15:53:30.069Z</time></trkpt><trkpt lat="37.9425452" lon="-0.1718108"><ele>0.0</ele><time>2026-04-29T15:53:33.069Z</time></trkpt><trkpt lat="37.9426198" lon="-0.1717197"><ele>0.0</ele><time>2026-04-29T15:53:34.068Z</time></trkpt><trkpt lat="37.9426941" lon="-0.1716538"><ele>0.0</ele><time>2026-04-29T15:53:35.069Z</time></trkpt><trkpt lat="37.9427733" lon="-0.1715923"><ele>0.0</ele><time>2026-04-29T15:53:36.069Z</time></trkpt><trkpt lat="37.9428392" lon="-0.1715203"><ele>0.0</ele><time>2026-04-29T15:53:37.068Z</time></trkpt><trkpt lat="37.9429144" lon="-0.171446"><ele>0.0</ele><time>2026-04-29T15:53:38.068Z</time></trkpt><trkpt lat="37.9429953" lon="-0.1713819"><ele>0.0</ele><time>2026-04-29T15:53:39.069Z</time></trkpt><trkpt lat="37.9431508" lon="-0.1712509"><ele>0.0</ele><time>2026-04-29T15:53:41.068Z</time></trkpt><trkpt lat="37.9432276" lon="-0.1711929"><ele>0.0</ele><time>2026-04-29T15:53:42.069Z</time></trkpt><trkpt lat="37.9433031" lon="-0.171132"><ele>0.0</ele><time>2026-04-29T15:53:43.068Z</time></trkpt><trkpt lat="37.9433813" lon="-0.1710514"><ele>0.0</ele><time>2026-04-29T15:53:44.068Z</time></trkpt><trkpt lat="37.9434467" lon="-0.1709885"><ele>0.0</ele><time>2026-04-29T15:53:45.068Z</time></trkpt><trkpt lat="37.9435106" lon="-0.1709156"><ele>0.0</ele><time>2026-04-29T15:53:46.069Z</time></trkpt><trkpt lat="37.9435758" lon="-0.1708255"><ele>0.0</ele><time>2026-04-29T15:53:47.068Z</time></trkpt><trkpt lat="37.9436555" lon="-0.1707752"><ele>0.0</ele><time>2026-04-29T15:53:48.069Z</time></trkpt><trkpt lat="37.9437416" lon="-0.1707695"><ele>0.0</ele><time>2026-04-29T15:53:49.068Z</time></trkpt><trkpt lat="37.9438232" lon="-0.1707354"><ele>0.0</ele><time>2026-04-29T15:53:50.069Z</time></trkpt><trkpt lat="37.9439068" lon="-0.1706881"><ele>0.0</ele><time>2026-04-29T15:53:51.068Z</time></trkpt><trkpt lat="37.9440677" lon="-0.1706044"><ele>0.0</ele><time>2026-04-29T15:53:53.069Z</time></trkpt><trkpt lat="37.9442132" lon="-0.1705149"><ele>0.0</ele><time>2026-04-29T15:53:55.068Z</time></trkpt><trkpt lat="37.9442861" lon="-0.1704639"><ele>0.0</ele><time>2026-04-29T15:53:56.068Z</time></trkpt><trkpt lat="37.9443527" lon="-0.1704436"><ele>0.0</ele><time>2026-04-29T15:53:58.166Z</time></trkpt><trkpt lat="37.9444221" lon="-0.170356"><ele>0.0</ele><time>2026-04-29T15:53:59.173Z</time></trkpt><trkpt lat="37.944537" lon="-0.1702484"><ele>0.0</ele><time>2026-04-29T15:54:00.078Z</time></trkpt><trkpt lat="37.944626" lon="-0.1701998"><ele>0.0</ele><time>2026-04-29T15:54:01.084Z</time></trkpt><trkpt lat="37.9447107" lon="-0.1701405"><ele>0.0</ele><time>2026-04-29T15:54:02.091Z</time></trkpt><trkpt lat="37.9447967" lon="-0.1700665"><ele>0.0</ele><time>2026-04-29T15:54:03.096Z</time></trkpt><trkpt lat="37.9448868" lon="-0.1700014"><ele>0.0</ele><time>2026-04-29T15:54:04.102Z</time></trkpt><trkpt lat="37.9450457" lon="-0.1698383"><ele>0.0</ele><time>2026-04-29T15:54:06.114Z</time></trkpt><trkpt lat="37.9451264" lon="-0.1697655"><ele>0.0</ele><time>2026-04-29T15:54:07.12Z</time></trkpt><trkpt lat="37.9452073" lon="-0.1696943"><ele>0.0</ele><time>2026-04-29T15:54:08.125Z</time></trkpt><trkpt lat="37.9452888" lon="-0.1696286"><ele>0.0</ele><time>2026-04-29T15:54:09.131Z</time></trkpt><trkpt lat="37.9453748" lon="-0.1695711"><ele>0.0</ele><time>2026-04-29T15:54:10.137Z</time></trkpt><trkpt lat="37.9454591" lon="-0.1695189"><ele>0.0</ele><time>2026-04-29T15:54:11.143Z</time></trkpt><trkpt lat="37.9455435" lon="-0.1694209"><ele>0.0</ele><time>2026-04-29T15:54:13.156Z</time></trkpt><trkpt lat="37.9456937" lon="-0.1692459"><ele>0.0</ele><time>2026-04-29T15:54:15.167Z</time></trkpt><trkpt lat="37.9457912" lon="-0.1692125"><ele>0.0</ele><time>2026-04-29T15:54:16.173Z</time></trkpt><trkpt lat="37.9458753" lon="-0.1691805"><ele>0.0</ele><time>2026-04-29T15:54:17.078Z</time></trkpt><trkpt lat="37.9459567" lon="-0.1691325"><ele>0.0</ele><time>2026-04-29T15:54:18.084Z</time></trkpt><trkpt lat="37.9460343" lon="-0.1690786"><ele>0.0</ele><time>2026-04-29T15:54:19.091Z</time></trkpt><trkpt lat="37.9461123" lon="-0.1690196"><ele>0.0</ele><time>2026-04-29T15:54:20.096Z</time></trkpt><trkpt lat="37.9461939" lon="-0.1689073"><ele>0.0</ele><time>2026-04-29T15:54:22.108Z</time></trkpt><trkpt lat="37.9462954" lon="-0.1688138"><ele>0.0</ele><time>2026-04-29T15:54:23.115Z</time></trkpt><trkpt lat="37.9463843" lon="-0.1687527"><ele>0.0</ele><time>2026-04-29T15:54:24.121Z</time></trkpt><trkpt lat="37.9464558" lon="-0.1686825"><ele>0.0</ele><time>2026-04-29T15:54:25.126Z</time></trkpt><trkpt lat="37.946529" lon="-0.1686181"><ele>0.0</ele><time>2026-04-29T15:54:26.132Z</time></trkpt><trkpt lat="37.9466053" lon="-0.1685666"><ele>0.0</ele><time>2026-04-29T15:54:27.137Z</time></trkpt><trkpt lat="37.9466875" lon="-0.1685204"><ele>0.0</ele><time>2026-04-29T15:54:28.144Z</time></trkpt><trkpt lat="37.9467669" lon="-0.1684677"><ele>0.0</ele><time>2026-04-29T15:54:29.149Z</time></trkpt><trkpt lat="37.9468421" lon="-0.1684105"><ele>0.0</ele><time>2026-04-29T15:54:30.155Z</time></trkpt><trkpt lat="37.9469106" lon="-0.1683405"><ele>0.0</ele><time>2026-04-29T15:54:31.162Z</time></trkpt><trkpt lat="37.9469847" lon="-0.1682356"><ele>0.0</ele><time>2026-04-29T15:54:33.072Z</time></trkpt><trkpt lat="37.9470889" lon="-0.1681738"><ele>0.0</ele><time>2026-04-29T15:54:34.079Z</time></trkpt><trkpt lat="37.9472701" lon="-0.1680667"><ele>0.0</ele><time>2026-04-29T15:54:36.091Z</time></trkpt><trkpt lat="37.9473411" lon="-0.1679772"><ele>0.0</ele><time>2026-04-29T15:54:37.096Z</time></trkpt><trkpt lat="37.9473847" lon="-0.1678532"><ele>0.0</ele><time>2026-04-29T15:54:38.102Z</time></trkpt><trkpt lat="37.9474602" lon="-0.1677821"><ele>0.0</ele><time>2026-04-29T15:54:39.109Z</time></trkpt><trkpt lat="37.9475478" lon="-0.1677415"><ele>0.0</ele><time>2026-04-29T15:54:40.114Z</time></trkpt><trkpt lat="37.9476339" lon="-0.167704"><ele>0.0</ele><time>2026-04-29T15:54:41.12Z</time></trkpt><trkpt lat="37.9477173" lon="-0.1676571"><ele>0.0</ele><time>2026-04-29T15:54:42.127Z</time></trkpt><trkpt lat="37.9477854" lon="-0.1675747"><ele>0.0</ele><time>2026-04-29T15:54:43.132Z</time></trkpt><trkpt lat="37.9478591" lon="-0.1674945"><ele>0.0</ele><time>2026-04-29T15:54:44.138Z</time></trkpt><trkpt lat="37.9480205" lon="-0.1673523"><ele>0.0</ele><time>2026-04-29T15:54:46.151Z</time></trkpt><trkpt lat="37.94818" lon="-0.1672348"><ele>0.0</ele><time>2026-04-29T15:54:48.161Z</time></trkpt><trkpt lat="37.9482574" lon="-0.1671926"><ele>0.0</ele><time>2026-04-29T15:54:49.068Z</time></trkpt><trkpt lat="37.948333" lon="-0.1671337"><ele>0.0</ele><time>2026-04-29T15:54:50.074Z</time></trkpt><trkpt lat="37.9484403" lon="-0.1670495"><ele>0.0</ele><time>2026-04-29T15:54:52.069Z</time></trkpt><trkpt lat="37.9485161" lon="-0.1670121"><ele>0.0</ele><time>2026-04-29T15:54:53.069Z</time></trkpt><trkpt lat="37.9485881" lon="-0.1669572"><ele>0.0</ele><time>2026-04-29T15:54:54.068Z</time></trkpt><trkpt lat="37.9486597" lon="-0.1668972"><ele>0.0</ele><time>2026-04-29T15:54:55.069Z</time></trkpt><trkpt lat="37.9488095" lon="-0.1667804"><ele>0.0</ele><time>2026-04-29T15:54:57.069Z</time></trkpt><trkpt lat="37.9489716" lon="-0.1667192"><ele>0.0</ele><time>2026-04-29T15:54:59.068Z</time></trkpt><trkpt lat="37.949051" lon="-0.1666649"><ele>0.0</ele><time>2026-04-29T15:55:00.069Z</time></trkpt><trkpt lat="37.9491239" lon="-0.1666066"><ele>0.0</ele><time>2026-04-29T15:55:01.069Z</time></trkpt><trkpt lat="37.9491953" lon="-0.1665481"><ele>0.0</ele><time>2026-04-29T15:55:02.068Z</time></trkpt><trkpt lat="37.9493526" lon="-0.1664497"><ele>0.0</ele><time>2026-04-29T15:55:04.068Z</time></trkpt><trkpt lat="37.9494329" lon="-0.1664044"><ele>0.0</ele><time>2026-04-29T15:55:05.069Z</time></trkpt><trkpt lat="37.9495105" lon="-0.1663499"><ele>0.0</ele><time>2026-04-29T15:55:06.069Z</time></trkpt><trkpt lat="37.9495831" lon="-0.1662949"><ele>0.0</ele><time>2026-04-29T15:55:07.068Z</time></trkpt><trkpt lat="37.9496547" lon="-0.1662452"><ele>0.0</ele><time>2026-04-29T15:55:08.068Z</time></trkpt><trkpt lat="37.9497246" lon="-0.1661868"><ele>0.0</ele><time>2026-04-29T15:55:09.068Z</time></trkpt><trkpt lat="37.9497945" lon="-0.1661237"><ele>0.0</ele><time>2026-04-29T15:55:10.069Z</time></trkpt><trkpt lat="37.9498672" lon="-0.1660613"><ele>0.0</ele><time>2026-04-29T15:55:11.068Z</time></trkpt><trkpt lat="37.9499387" lon="-0.1660414"><ele>0.0</ele><time>2026-04-29T15:55:12.069Z</time></trkpt><trkpt lat="37.9500075" lon="-0.1659666"><ele>0.0</ele><time>2026-04-29T15:55:13.068Z</time></trkpt><trkpt lat="37.9500701" lon="-0.1658985"><ele>0.0</ele><time>2026-04-29T15:55:14.068Z</time></trkpt><trkpt lat="37.9501949" lon="-0.1657901"><ele>0.0</ele><time>2026-04-29T15:55:17.173Z</time></trkpt><trkpt lat="37.9504002" lon="-0.1656173"><ele>0.0</ele><time>2026-04-29T15:55:19.085Z</time></trkpt><trkpt lat="37.9505661" lon="-0.165476"><ele>0.0</ele><time>2026-04-29T15:55:21.096Z</time></trkpt><trkpt lat="37.9506366" lon="-0.1653906"><ele>0.0</ele><time>2026-04-29T15:55:22.102Z</time></trkpt><trkpt lat="37.9507106" lon="-0.1653133"><ele>0.0</ele><time>2026-04-29T15:55:23.108Z</time></trkpt><trkpt lat="37.950784" lon="-0.1652393"><ele>0.0</ele><time>2026-04-29T15:55:24.114Z</time></trkpt><trkpt lat="37.9508508" lon="-0.1651486"><ele>0.0</ele><time>2026-04-29T15:55:25.12Z</time></trkpt><trkpt lat="37.9509345" lon="-0.1650869"><ele>0.0</ele><time>2026-04-29T15:55:26.126Z</time></trkpt><trkpt lat="37.9510145" lon="-0.1650169"><ele>0.0</ele><time>2026-04-29T15:55:27.133Z</time></trkpt><trkpt lat="37.9510947" lon="-0.1649414"><ele>0.0</ele><time>2026-04-29T15:55:28.138Z</time></trkpt><trkpt lat="37.9511621" lon="-0.1648514"><ele>0.0</ele><time>2026-04-29T15:55:29.069Z</time></trkpt><trkpt lat="37.9512322" lon="-0.164782"><ele>0.0</ele><time>2026-04-29T15:55:30.068Z</time></trkpt><trkpt lat="37.9513076" lon="-0.1647259"><ele>0.0</ele><time>2026-04-29T15:55:31.068Z</time></trkpt><trkpt lat="37.951383" lon="-0.1646656"><ele>0.0</ele><time>2026-04-29T15:55:32.069Z</time></trkpt><trkpt lat="37.951451" lon="-0.1645866"><ele>0.0</ele><time>2026-04-29T15:55:33.069Z</time></trkpt><trkpt lat="37.9515137" lon="-0.1645036"><ele>0.0</ele><time>2026-04-29T15:55:34.069Z</time></trkpt><trkpt lat="37.9515792" lon="-0.1644259"><ele>0.0</ele><time>2026-04-29T15:55:35.068Z</time></trkpt><trkpt lat="37.9516461" lon="-0.1643521"><ele>0.0</ele><time>2026-04-29T15:55:36.069Z</time></trkpt><trkpt lat="37.9517161" lon="-0.1642792"><ele>0.0</ele><time>2026-04-29T15:55:37.068Z</time></trkpt><trkpt lat="37.9517833" lon="-0.1642159"><ele>0.0</ele><time>2026-04-29T15:55:38.068Z</time></trkpt><trkpt lat="37.9518652" lon="-0.1641615"><ele>0.0</ele><time>2026-04-29T15:55:39.068Z</time></trkpt><trkpt lat="37.9519407" lon="-0.1640838"><ele>0.0</ele><time>2026-04-29T15:55:40.068Z</time></trkpt><trkpt lat="37.9520973" lon="-0.1639248"><ele>0.0</ele><time>2026-04-29T15:55:42.068Z</time></trkpt><trkpt lat="37.952169" lon="-0.1638671"><ele>0.0</ele><time>2026-04-29T15:55:43.068Z</time></trkpt><trkpt lat="37.9522401" lon="-0.1638026"><ele>0.0</ele><time>2026-04-29T15:55:44.069Z</time></trkpt><trkpt lat="37.9523916" lon="-0.1636777"><ele>0.0</ele><time>2026-04-29T15:55:46.068Z</time></trkpt><trkpt lat="37.9524622" lon="-0.1636191"><ele>0.0</ele><time>2026-04-29T15:55:47.069Z</time></trkpt><trkpt lat="37.9525348" lon="-0.1635592"><ele>0.0</ele><time>2026-04-29T15:55:48.068Z</time></trkpt><trkpt lat="37.9526094" lon="-0.1635001"><ele>0.0</ele><time>2026-04-29T15:55:49.068Z</time></trkpt><trkpt lat="37.9526813" lon="-0.1634344"><ele>0.0</ele><time>2026-04-29T15:55:50.069Z</time></trkpt><trkpt lat="37.9528499" lon="-0.1633243"><ele>0.0</ele><time>2026-04-29T15:55:52.068Z</time></trkpt><trkpt lat="37.9529328" lon="-0.1632622"><ele>0.0</ele><time>2026-04-29T15:55:53.068Z</time></trkpt><trkpt lat="37.9530146" lon="-0.1632119"><ele>0.0</ele><time>2026-04-29T15:55:54.068Z</time></trkpt><trkpt lat="37.9531665" lon="-0.1631335"><ele>0.0</ele><time>2026-04-29T15:55:56.068Z</time></trkpt><trkpt lat="37.9532381" lon="-0.163062"><ele>0.0</ele><time>2026-04-29T15:55:57.069Z</time></trkpt><trkpt lat="37.9533081" lon="-0.1629895"><ele>0.0</ele><time>2026-04-29T15:55:58.068Z</time></trkpt><trkpt lat="37.9533789" lon="-0.1629135"><ele>0.0</ele><time>2026-04-29T15:55:59.068Z</time></trkpt><trkpt lat="37.9534522" lon="-0.1628411"><ele>0.0</ele><time>2026-04-29T15:56:00.069Z</time></trkpt><trkpt lat="37.9535261" lon="-0.1627783"><ele>0.0</ele><time>2026-04-29T15:56:01.068Z</time></trkpt><trkpt lat="37.953678" lon="-0.1626587"><ele>0.0</ele><time>2026-04-29T15:56:03.068Z</time></trkpt><trkpt lat="37.9537534" lon="-0.1625948"><ele>0.0</ele><time>2026-04-29T15:56:04.069Z</time></trkpt><trkpt lat="37.9538285" lon="-0.1625289"><ele>0.0</ele><time>2026-04-29T15:56:05.068Z</time></trkpt><trkpt lat="37.953898" lon="-0.1624676"><ele>0.0</ele><time>2026-04-29T15:56:06.069Z</time></trkpt><trkpt lat="37.9539718" lon="-0.1624113"><ele>0.0</ele><time>2026-04-29T15:56:07.068Z</time></trkpt><trkpt lat="37.9540435" lon="-0.1623533"><ele>0.0</ele><time>2026-04-29T15:56:08.068Z</time></trkpt><trkpt lat="37.9541191" lon="-0.1622863"><ele>0.0</ele><time>2026-04-29T15:56:09.068Z</time></trkpt><trkpt lat="37.95419" lon="-0.1622177"><ele>0.0</ele><time>2026-04-29T15:56:10.069Z</time></trkpt><trkpt lat="37.9542512" lon="-0.1621321"><ele>0.0</ele><time>2026-04-29T15:56:11.068Z</time></trkpt><trkpt lat="37.9543243" lon="-0.1620854"><ele>0.0</ele><time>2026-04-29T15:56:12.069Z</time></trkpt><trkpt lat="37.9543952" lon="-0.162041"><ele>0.0</ele><time>2026-04-29T15:56:13.069Z</time></trkpt><trkpt lat="37.9544655" lon="-0.1619882"><ele>0.0</ele><time>2026-04-29T15:56:14.069Z</time></trkpt><trkpt lat="37.9545357" lon="-0.1619154"><ele>0.0</ele><time>2026-04-29T15:56:15.069Z</time></trkpt><trkpt lat="37.9546087" lon="-0.1618547"><ele>0.0</ele><time>2026-04-29T15:56:16.068Z</time></trkpt><trkpt lat="37.9546753" lon="-0.1617881"><ele>0.0</ele><time>2026-04-29T15:56:17.068Z</time></trkpt><trkpt lat="37.9547498" lon="-0.1617201"><ele>0.0</ele><time>2026-04-29T15:56:18.068Z</time></trkpt><trkpt lat="37.9548175" lon="-0.1616417"><ele>0.0</ele><time>2026-04-29T15:56:19.068Z</time></trkpt><trkpt lat="37.9548841" lon="-0.161571"><ele>0.0</ele><time>2026-04-29T15:56:20.068Z</time></trkpt><trkpt lat="37.9549494" lon="-0.1615011"><ele>0.0</ele><time>2026-04-29T15:56:21.069Z</time></trkpt><trkpt lat="37.955014" lon="-0.1614358"><ele>0.0</ele><time>2026-04-29T15:56:22.068Z</time></trkpt><trkpt lat="37.9552871" lon="-0.1611686"><ele>0.0</ele><time>2026-04-29T15:56:26.068Z</time></trkpt><trkpt lat="37.9553636" lon="-0.1611582"><ele>0.0</ele><time>2026-04-29T15:56:27.068Z</time></trkpt><trkpt lat="37.9554332" lon="-0.161085"><ele>0.0</ele><time>2026-04-29T15:56:28.068Z</time></trkpt><trkpt lat="37.9555046" lon="-0.1610171"><ele>0.0</ele><time>2026-04-29T15:56:29.069Z</time></trkpt><trkpt lat="37.9555835" lon="-0.1609751"><ele>0.0</ele><time>2026-04-29T15:56:30.068Z</time></trkpt><trkpt lat="37.9557384" lon="-0.1608605"><ele>0.0</ele><time>2026-04-29T15:56:32.069Z</time></trkpt><trkpt lat="37.9558057" lon="-0.1607833"><ele>0.0</ele><time>2026-04-29T15:56:33.069Z</time></trkpt><trkpt lat="37.955885" lon="-0.1607556"><ele>0.0</ele><time>2026-04-29T15:56:34.068Z</time></trkpt><trkpt lat="37.9559607" lon="-0.1606923"><ele>0.0</ele><time>2026-04-29T15:56:35.069Z</time></trkpt><trkpt lat="37.9560345" lon="-0.1606271"><ele>0.0</ele><time>2026-04-29T15:56:36.068Z</time></trkpt><trkpt lat="37.9561092" lon="-0.1605541"><ele>0.0</ele><time>2026-04-29T15:56:37.068Z</time></trkpt><trkpt lat="37.956183" lon="-0.1604932"><ele>0.0</ele><time>2026-04-29T15:56:38.068Z</time></trkpt><trkpt lat="37.9562568" lon="-0.160433"><ele>0.0</ele><time>2026-04-29T15:56:39.068Z</time></trkpt><trkpt lat="37.9563316" lon="-0.1603653"><ele>0.0</ele><time>2026-04-29T15:56:40.068Z</time></trkpt><trkpt lat="37.9564064" lon="-0.1602785"><ele>0.0</ele><time>2026-04-29T15:56:41.068Z</time></trkpt><trkpt lat="37.9564856" lon="-0.1602025"><ele>0.0</ele><time>2026-04-29T15:56:42.069Z</time></trkpt><trkpt lat="37.9565603" lon="-0.1601286"><ele>0.0</ele><time>2026-04-29T15:56:43.068Z</time></trkpt><trkpt lat="37.9566277" lon="-0.1600506"><ele>0.0</ele><time>2026-04-29T15:56:44.068Z</time></trkpt><trkpt lat="37.9566967" lon="-0.1599747"><ele>0.0</ele><time>2026-04-29T15:56:45.068Z</time></trkpt><trkpt lat="37.9568179" lon="-0.1598272"><ele>0.0</ele><time>2026-04-29T15:56:47.069Z</time></trkpt><trkpt lat="37.9568747" lon="-0.1597452"><ele>0.0</ele><time>2026-04-29T15:56:48.069Z</time></trkpt><trkpt lat="37.9569382" lon="-0.1596686"><ele>0.0</ele><time>2026-04-29T15:56:49.068Z</time></trkpt><trkpt lat="37.9570031" lon="-0.1595862"><ele>0.0</ele><time>2026-04-29T15:56:50.069Z</time></trkpt><trkpt lat="37.9570742" lon="-0.1595058"><ele>0.0</ele><time>2026-04-29T15:56:51.069Z</time></trkpt><trkpt lat="37.9571501" lon="-0.1594324"><ele>0.0</ele><time>2026-04-29T15:56:52.069Z</time></trkpt><trkpt lat="37.9572255" lon="-0.1593665"><ele>0.0</ele><time>2026-04-29T15:56:53.069Z</time></trkpt><trkpt lat="37.9572979" lon="-0.1592991"><ele>0.0</ele><time>2026-04-29T15:56:54.068Z</time></trkpt><trkpt lat="37.9573705" lon="-0.1592365"><ele>0.0</ele><time>2026-04-29T15:56:55.068Z</time></trkpt><trkpt lat="37.9574482" lon="-0.159165"><ele>0.0</ele><time>2026-04-29T15:56:56.068Z</time></trkpt><trkpt lat="37.9575283" lon="-0.1591032"><ele>0.0</ele><time>2026-04-29T15:56:57.068Z</time></trkpt><trkpt lat="37.9576041" lon="-0.1590405"><ele>0.0</ele><time>2026-04-29T15:56:58.069Z</time></trkpt><trkpt lat="37.9576652" lon="-0.1589636"><ele>0.0</ele><time>2026-04-29T15:56:59.068Z</time></trkpt><trkpt lat="37.9577383" lon="-0.1588994"><ele>0.0</ele><time>2026-04-29T15:57:00.068Z</time></trkpt><trkpt lat="37.9578031" lon="-0.1588251"><ele>0.0</ele><time>2026-04-29T15:57:01.068Z</time></trkpt><trkpt lat="37.9578749" lon="-0.1587627"><ele>0.0</ele><time>2026-04-29T15:57:02.068Z</time></trkpt><trkpt lat="37.9579451" lon="-0.1586912"><ele>0.0</ele><time>2026-04-29T15:57:03.068Z</time></trkpt><trkpt lat="37.9580156" lon="-0.1586141"><ele>0.0</ele><time>2026-04-29T15:57:04.067Z</time></trkpt><trkpt lat="37.9580886" lon="-0.158544"><ele>0.0</ele><time>2026-04-29T15:57:05.068Z</time></trkpt><trkpt lat="37.9581621" lon="-0.1584827"><ele>0.0</ele><time>2026-04-29T15:57:06.068Z</time></trkpt><trkpt lat="37.9583067" lon="-0.1583574"><ele>0.0</ele><time>2026-04-29T15:57:08.068Z</time></trkpt><trkpt lat="37.9583805" lon="-0.1582995"><ele>0.0</ele><time>2026-04-29T15:57:09.068Z</time></trkpt><trkpt lat="37.958455" lon="-0.1582429"><ele>0.0</ele><time>2026-04-29T15:57:10.068Z</time></trkpt><trkpt lat="37.9585384" lon="-0.1582116"><ele>0.0</ele><time>2026-04-29T15:57:11.067Z</time></trkpt><trkpt lat="37.9586208" lon="-0.1581585"><ele>0.0</ele><time>2026-04-29T15:57:12.067Z</time></trkpt><trkpt lat="37.9586985" lon="-0.1581012"><ele>0.0</ele><time>2026-04-29T15:57:13.068Z</time></trkpt><trkpt lat="37.9587749" lon="-0.1580473"><ele>0.0</ele><time>2026-04-29T15:57:14.067Z</time></trkpt><trkpt lat="37.9588499" lon="-0.1579968"><ele>0.0</ele><time>2026-04-29T15:57:15.067Z</time></trkpt><trkpt lat="37.9589233" lon="-0.1579433"><ele>0.0</ele><time>2026-04-29T15:57:16.068Z</time></trkpt><trkpt lat="37.9589979" lon="-0.1578812"><ele>0.0</ele><time>2026-04-29T15:57:17.067Z</time></trkpt><trkpt lat="37.9590761" lon="-0.1578271"><ele>0.0</ele><time>2026-04-29T15:57:18.068Z</time></trkpt><trkpt lat="37.9591547" lon="-0.1577758"><ele>0.0</ele><time>2026-04-29T15:57:19.068Z</time></trkpt><trkpt lat="37.9592317" lon="-0.1577276"><ele>0.0</ele><time>2026-04-29T15:57:20.068Z</time></trkpt><trkpt lat="37.9593138" lon="-0.157671"><ele>0.0</ele><time>2026-04-29T15:57:21.067Z</time></trkpt><trkpt lat="37.9593874" lon="-0.1576056"><ele>0.0</ele><time>2026-04-29T15:57:22.067Z</time></trkpt><trkpt lat="37.9594591" lon="-0.1575443"><ele>0.0</ele><time>2026-04-29T15:57:23.067Z</time></trkpt><trkpt lat="37.9595333" lon="-0.1574872"><ele>0.0</ele><time>2026-04-29T15:57:24.068Z</time></trkpt><trkpt lat="37.9596767" lon="-0.1573439"><ele>0.0</ele><time>2026-04-29T15:57:26.067Z</time></trkpt><trkpt lat="37.9597499" lon="-0.157276"><ele>0.0</ele><time>2026-04-29T15:57:27.068Z</time></trkpt><trkpt lat="37.959897" lon="-0.1571944"><ele>0.0</ele><time>2026-04-29T15:57:29.067Z</time></trkpt><trkpt lat="37.9600493" lon="-0.1571187"><ele>0.0</ele><time>2026-04-29T15:57:31.067Z</time></trkpt><trkpt lat="37.9601173" lon="-0.1570586"><ele>0.0</ele><time>2026-04-29T15:57:32.068Z</time></trkpt><trkpt lat="37.9601897" lon="-0.157011"><ele>0.0</ele><time>2026-04-29T15:57:33.068Z</time></trkpt><trkpt lat="37.9602588" lon="-0.1569463"><ele>0.0</ele><time>2026-04-29T15:57:34.068Z</time></trkpt><trkpt lat="37.9603314" lon="-0.1568738"><ele>0.0</ele><time>2026-04-29T15:57:35.068Z</time></trkpt><trkpt lat="37.9604032" lon="-0.1568201"><ele>0.0</ele><time>2026-04-29T15:57:36.067Z</time></trkpt><trkpt lat="37.9605575" lon="-0.1567522"><ele>0.0</ele><time>2026-04-29T15:57:38.067Z</time></trkpt><trkpt lat="37.9606344" lon="-0.1567223"><ele>0.0</ele><time>2026-04-29T15:57:39.067Z</time></trkpt><trkpt lat="37.9607069" lon="-0.1566673"><ele>0.0</ele><time>2026-04-29T15:57:40.067Z</time></trkpt><trkpt lat="37.9607786" lon="-0.1565993"><ele>0.0</ele><time>2026-04-29T15:57:41.068Z</time></trkpt><trkpt lat="37.9608533" lon="-0.1565279"><ele>0.0</ele><time>2026-04-29T15:57:42.067Z</time></trkpt><trkpt lat="37.9609242" lon="-0.1564558"><ele>0.0</ele><time>2026-04-29T15:57:43.067Z</time></trkpt><trkpt lat="37.9609982" lon="-0.156387"><ele>0.0</ele><time>2026-04-29T15:57:44.067Z</time></trkpt><trkpt lat="37.961072" lon="-0.1563115"><ele>0.0</ele><time>2026-04-29T15:57:45.068Z</time></trkpt><trkpt lat="37.9611449" lon="-0.1562461"><ele>0.0</ele><time>2026-04-29T15:57:46.068Z</time></trkpt><trkpt lat="37.9612186" lon="-0.156177"><ele>0.0</ele><time>2026-04-29T15:57:47.067Z</time></trkpt><trkpt lat="37.961302" lon="-0.1561368"><ele>0.0</ele><time>2026-04-29T15:57:48.067Z</time></trkpt><trkpt lat="37.9613844" lon="-0.1560777"><ele>0.0</ele><time>2026-04-29T15:57:49.067Z</time></trkpt><trkpt lat="37.9614607" lon="-0.1560169"><ele>0.0</ele><time>2026-04-29T15:57:50.067Z</time></trkpt><trkpt lat="37.9616952" lon="-0.1558459"><ele>0.0</ele><time>2026-04-29T15:57:53.067Z</time></trkpt><trkpt lat="37.9617723" lon="-0.1557824"><ele>0.0</ele><time>2026-04-29T15:57:54.067Z</time></trkpt><trkpt lat="37.9618456" lon="-0.1557231"><ele>0.0</ele><time>2026-04-29T15:57:55.067Z</time></trkpt><trkpt lat="37.9619173" lon="-0.1556619"><ele>0.0</ele><time>2026-04-29T15:57:56.068Z</time></trkpt><trkpt lat="37.9619916" lon="-0.1556004"><ele>0.0</ele><time>2026-04-29T15:57:57.067Z</time></trkpt><trkpt lat="37.9620754" lon="-0.155536"><ele>0.0</ele><time>2026-04-29T15:57:58.067Z</time></trkpt><trkpt lat="37.9621484" lon="-0.1554683"><ele>0.0</ele><time>2026-04-29T15:57:59.068Z</time></trkpt><trkpt lat="37.9622176" lon="-0.1554025"><ele>0.0</ele><time>2026-04-29T15:58:00.067Z</time></trkpt><trkpt lat="37.9623546" lon="-0.1553212"><ele>0.0</ele><time>2026-04-29T15:58:02.067Z</time></trkpt><trkpt lat="37.9624119" lon="-0.1552566"><ele>0.0</ele><time>2026-04-29T15:58:03.067Z</time></trkpt><trkpt lat="37.9624738" lon="-0.1551935"><ele>0.0</ele><time>2026-04-29T15:58:04.067Z</time></trkpt><trkpt lat="37.96254" lon="-0.1551292"><ele>0.0</ele><time>2026-04-29T15:58:05.067Z</time></trkpt><trkpt lat="37.9626127" lon="-0.1550806"><ele>0.0</ele><time>2026-04-29T15:58:06.067Z</time></trkpt><trkpt lat="37.9626883" lon="-0.1550212"><ele>0.0</ele><time>2026-04-29T15:58:07.068Z</time></trkpt><trkpt lat="37.9627607" lon="-0.1549642"><ele>0.0</ele><time>2026-04-29T15:58:08.068Z</time></trkpt><trkpt lat="37.9628303" lon="-0.1549025"><ele>0.0</ele><time>2026-04-29T15:58:09.067Z</time></trkpt><trkpt lat="37.9628942" lon="-0.154833"><ele>0.0</ele><time>2026-04-29T15:58:10.067Z</time></trkpt><trkpt lat="37.9629604" lon="-0.1547544"><ele>0.0</ele><time>2026-04-29T15:58:11.067Z</time></trkpt><trkpt lat="37.9630981" lon="-0.154612"><ele>0.0</ele><time>2026-04-29T15:58:13.067Z</time></trkpt><trkpt lat="37.96317" lon="-0.1545387"><ele>0.0</ele><time>2026-04-29T15:58:14.068Z</time></trkpt><trkpt lat="37.9632403" lon="-0.1544728"><ele>0.0</ele><time>2026-04-29T15:58:15.068Z</time></trkpt><trkpt lat="37.9633146" lon="-0.1544147"><ele>0.0</ele><time>2026-04-29T15:58:16.067Z</time></trkpt><trkpt lat="37.9633855" lon="-0.1543564"><ele>0.0</ele><time>2026-04-29T15:58:17.068Z</time></trkpt><trkpt lat="37.963455" lon="-0.1542991"><ele>0.0</ele><time>2026-04-29T15:58:18.068Z</time></trkpt><trkpt lat="37.9635296" lon="-0.1542398"><ele>0.0</ele><time>2026-04-29T15:58:19.068Z</time></trkpt><trkpt lat="37.9636017" lon="-0.1541825"><ele>0.0</ele><time>2026-04-29T15:58:20.068Z</time></trkpt><trkpt lat="37.9636762" lon="-0.1541198"><ele>0.0</ele><time>2026-04-29T15:58:21.067Z</time></trkpt><trkpt lat="37.9637546" lon="-0.1540561"><ele>0.0</ele><time>2026-04-29T15:58:22.067Z</time></trkpt><trkpt lat="37.9638317" lon="-0.1539932"><ele>0.0</ele><time>2026-04-29T15:58:23.067Z</time></trkpt><trkpt lat="37.9639067" lon="-0.1539315"><ele>0.0</ele><time>2026-04-29T15:58:24.067Z</time></trkpt><trkpt lat="37.9639759" lon="-0.1538711"><ele>0.0</ele><time>2026-04-29T15:58:25.067Z</time></trkpt><trkpt lat="37.9640522" lon="-0.1538055"><ele>0.0</ele><time>2026-04-29T15:58:26.068Z</time></trkpt><trkpt lat="37.9641235" lon="-0.1537391"><ele>0.0</ele><time>2026-04-29T15:58:27.067Z</time></trkpt><trkpt lat="37.964194" lon="-0.1536722"><ele>0.0</ele><time>2026-04-29T15:58:28.067Z</time></trkpt><trkpt lat="37.9642597" lon="-0.1536036"><ele>0.0</ele><time>2026-04-29T15:58:29.067Z</time></trkpt><trkpt lat="37.964326" lon="-0.1535481"><ele>0.0</ele><time>2026-04-29T15:58:30.068Z</time></trkpt><trkpt lat="37.9644014" lon="-0.1534972"><ele>0.0</ele><time>2026-04-29T15:58:31.068Z</time></trkpt><trkpt lat="37.9644696" lon="-0.1534353"><ele>0.0</ele><time>2026-04-29T15:58:32.067Z</time></trkpt><trkpt lat="37.9645409" lon="-0.1533741"><ele>0.0</ele><time>2026-04-29T15:58:33.067Z</time></trkpt><trkpt lat="37.9646999" lon="-0.1532494"><ele>0.0</ele><time>2026-04-29T15:58:35.067Z</time></trkpt><trkpt lat="37.9648335" lon="-0.1530999"><ele>0.0</ele><time>2026-04-29T15:58:37.068Z</time></trkpt><trkpt lat="37.9649063" lon="-0.1530288"><ele>0.0</ele><time>2026-04-29T15:58:38.067Z</time></trkpt><trkpt lat="37.9649786" lon="-0.1529588"><ele>0.0</ele><time>2026-04-29T15:58:39.067Z</time></trkpt><trkpt lat="37.9650488" lon="-0.1528944"><ele>0.0</ele><time>2026-04-29T15:58:40.067Z</time></trkpt><trkpt lat="37.9651211" lon="-0.1528255"><ele>0.0</ele><time>2026-04-29T15:58:41.068Z</time></trkpt><trkpt lat="37.9651948" lon="-0.152764"><ele>0.0</ele><time>2026-04-29T15:58:42.068Z</time></trkpt><trkpt lat="37.9652637" lon="-0.1527039"><ele>0.0</ele><time>2026-04-29T15:58:43.067Z</time></trkpt><trkpt lat="37.9653317" lon="-0.1526366"><ele>0.0</ele><time>2026-04-29T15:58:44.068Z</time></trkpt><trkpt lat="37.965403" lon="-0.1525661"><ele>0.0</ele><time>2026-04-29T15:58:45.067Z</time></trkpt><trkpt lat="37.9654693" lon="-0.1524972"><ele>0.0</ele><time>2026-04-29T15:58:46.067Z</time></trkpt><trkpt lat="37.9655398" lon="-0.1524281"><ele>0.0</ele><time>2026-04-29T15:58:47.067Z</time></trkpt><trkpt lat="37.9656953" lon="-0.1523007"><ele>0.0</ele><time>2026-04-29T15:58:49.067Z</time></trkpt><trkpt lat="37.9657721" lon="-0.1522305"><ele>0.0</ele><time>2026-04-29T15:58:50.068Z</time></trkpt><trkpt lat="37.9658428" lon="-0.1521685"><ele>0.0</ele><time>2026-04-29T15:58:51.068Z</time></trkpt><trkpt lat="37.9659081" lon="-0.1521076"><ele>0.0</ele><time>2026-04-29T15:58:52.067Z</time></trkpt><trkpt lat="37.9659769" lon="-0.1520469"><ele>0.0</ele><time>2026-04-29T15:58:53.067Z</time></trkpt><trkpt lat="37.9660454" lon="-0.1519809"><ele>0.0</ele><time>2026-04-29T15:58:54.068Z</time></trkpt><trkpt lat="37.9661106" lon="-0.1519222"><ele>0.0</ele><time>2026-04-29T15:58:55.068Z</time></trkpt><trkpt lat="37.9661854" lon="-0.1518592"><ele>0.0</ele><time>2026-04-29T15:58:56.067Z</time></trkpt><trkpt lat="37.9663175" lon="-0.1517496"><ele>0.0</ele><time>2026-04-29T15:58:58.067Z</time></trkpt><trkpt lat="37.9663817" lon="-0.1516853"><ele>0.0</ele><time>2026-04-29T15:58:59.067Z</time></trkpt><trkpt lat="37.9664493" lon="-0.1516287"><ele>0.0</ele><time>2026-04-29T15:59:00.067Z</time></trkpt><trkpt lat="37.9665163" lon="-0.1515694"><ele>0.0</ele><time>2026-04-29T15:59:01.068Z</time></trkpt><trkpt lat="37.9665891" lon="-0.1515035"><ele>0.0</ele><time>2026-04-29T15:59:02.068Z</time></trkpt><trkpt lat="37.9666658" lon="-0.1514415"><ele>0.0</ele><time>2026-04-29T15:59:03.067Z</time></trkpt><trkpt lat="37.9667444" lon="-0.1513831"><ele>0.0</ele><time>2026-04-29T15:59:04.067Z</time></trkpt><trkpt lat="37.9668217" lon="-0.1513309"><ele>0.0</ele><time>2026-04-29T15:59:05.068Z</time></trkpt><trkpt lat="37.9668955" lon="-0.1512724"><ele>0.0</ele><time>2026-04-29T15:59:06.068Z</time></trkpt><trkpt lat="37.9669681" lon="-0.1512124"><ele>0.0</ele><time>2026-04-29T15:59:07.068Z</time></trkpt><trkpt lat="37.9670394" lon="-0.1511495"><ele>0.0</ele><time>2026-04-29T15:59:08.068Z</time></trkpt><trkpt lat="37.9671113" lon="-0.1510858"><ele>0.0</ele><time>2026-04-29T15:59:09.067Z</time></trkpt><trkpt lat="37.9671845" lon="-0.1510166"><ele>0.0</ele><time>2026-04-29T15:59:10.068Z</time></trkpt><trkpt lat="37.9672563" lon="-0.1509507"><ele>0.0</ele><time>2026-04-29T15:59:11.068Z</time></trkpt><trkpt lat="37.9673248" lon="-0.1508853"><ele>0.0</ele><time>2026-04-29T15:59:12.067Z</time></trkpt><trkpt lat="37.9674005" lon="-0.1508079"><ele>0.0</ele><time>2026-04-29T15:59:13.068Z</time></trkpt><trkpt lat="37.9674789" lon="-0.1507434"><ele>0.0</ele><time>2026-04-29T15:59:14.068Z</time></trkpt><trkpt lat="37.9675535" lon="-0.1506759"><ele>0.0</ele><time>2026-04-29T15:59:15.067Z</time></trkpt><trkpt lat="37.9676275" lon="-0.1506149"><ele>0.0</ele><time>2026-04-29T15:59:16.067Z</time></trkpt><trkpt lat="37.9677025" lon="-0.1505492"><ele>0.0</ele><time>2026-04-29T15:59:17.067Z</time></trkpt><trkpt lat="37.9678448" lon="-0.1504182"><ele>0.0</ele><time>2026-04-29T15:59:19.068Z</time></trkpt><trkpt lat="37.9679174" lon="-0.1503559"><ele>0.0</ele><time>2026-04-29T15:59:20.067Z</time></trkpt><trkpt lat="37.9679911" lon="-0.1503001"><ele>0.0</ele><time>2026-04-29T15:59:21.067Z</time></trkpt><trkpt lat="37.9680693" lon="-0.1502443"><ele>0.0</ele><time>2026-04-29T15:59:22.067Z</time></trkpt><trkpt lat="37.9681447" lon="-0.150194"><ele>0.0</ele><time>2026-04-29T15:59:23.068Z</time></trkpt><trkpt lat="37.9682111" lon="-0.1501397"><ele>0.0</ele><time>2026-04-29T15:59:24.068Z</time></trkpt><trkpt lat="37.9682774" lon="-0.1500775"><ele>0.0</ele><time>2026-04-29T15:59:25.067Z</time></trkpt><trkpt lat="37.9683496" lon="-0.1500112"><ele>0.0</ele><time>2026-04-29T15:59:26.068Z</time></trkpt><trkpt lat="37.9684217" lon="-0.1499403"><ele>0.0</ele><time>2026-04-29T15:59:27.067Z</time></trkpt><trkpt lat="37.968492" lon="-0.1498798"><ele>0.0</ele><time>2026-04-29T15:59:28.068Z</time></trkpt><trkpt lat="37.968566" lon="-0.1498197"><ele>0.0</ele><time>2026-04-29T15:59:29.068Z</time></trkpt><trkpt lat="37.9686411" lon="-0.1497615"><ele>0.0</ele><time>2026-04-29T15:59:30.067Z</time></trkpt><trkpt lat="37.968715" lon="-0.1497038"><ele>0.0</ele><time>2026-04-29T15:59:31.067Z</time></trkpt><trkpt lat="37.9687895" lon="-0.1496386"><ele>0.0</ele><time>2026-04-29T15:59:32.068Z</time></trkpt><trkpt lat="37.9688646" lon="-0.1495759"><ele>0.0</ele><time>2026-04-29T15:59:33.068Z</time></trkpt><trkpt lat="37.9689377" lon="-0.149517"><ele>0.0</ele><time>2026-04-29T15:59:34.068Z</time></trkpt><trkpt lat="37.9690127" lon="-0.149457"><ele>0.0</ele><time>2026-04-29T15:59:35.068Z</time></trkpt><trkpt lat="37.9690895" lon="-0.1493916"><ele>0.0</ele><time>2026-04-29T15:59:36.067Z</time></trkpt><trkpt lat="37.9691624" lon="-0.1493304"><ele>0.0</ele><time>2026-04-29T15:59:37.068Z</time></trkpt><trkpt lat="37.9693102" lon="-0.1492049"><ele>0.0</ele><time>2026-04-29T15:59:39.067Z</time></trkpt><trkpt lat="37.9694571" lon="-0.149087"><ele>0.0</ele><time>2026-04-29T15:59:41.068Z</time></trkpt><trkpt lat="37.9695289" lon="-0.1490356"><ele>0.0</ele><time>2026-04-29T15:59:42.067Z</time></trkpt><trkpt lat="37.9695945" lon="-0.1489685"><ele>0.0</ele><time>2026-04-29T15:59:43.068Z</time></trkpt><trkpt lat="37.969657" lon="-0.148904"><ele>0.0</ele><time>2026-04-29T15:59:44.067Z</time></trkpt><trkpt lat="37.9697157" lon="-0.1488392"><ele>0.0</ele><time>2026-04-29T15:59:45.067Z</time></trkpt><trkpt lat="37.9697763" lon="-0.1487717"><ele>0.0</ele><time>2026-04-29T15:59:46.068Z</time></trkpt><trkpt lat="37.9698379" lon="-0.1487139"><ele>0.0</ele><time>2026-04-29T15:59:47.067Z</time></trkpt><trkpt lat="37.9699024" lon="-0.1486588"><ele>0.0</ele><time>2026-04-29T15:59:48.067Z</time></trkpt><trkpt lat="37.9699759" lon="-0.1485925"><ele>0.0</ele><time>2026-04-29T15:59:49.067Z</time></trkpt><trkpt lat="37.9700479" lon="-0.1485296"><ele>0.0</ele><time>2026-04-29T15:59:50.067Z</time></trkpt><trkpt lat="37.9702046" lon="-0.1484108"><ele>0.0</ele><time>2026-04-29T15:59:52.067Z</time></trkpt><trkpt lat="37.970278" lon="-0.1483506"><ele>0.0</ele><time>2026-04-29T15:59:53.068Z</time></trkpt><trkpt lat="37.9703528" lon="-0.1482888"><ele>0.0</ele><time>2026-04-29T15:59:54.067Z</time></trkpt><trkpt lat="37.9704337" lon="-0.1482304"><ele>0.0</ele><time>2026-04-29T15:59:55.067Z</time></trkpt><trkpt lat="37.9705129" lon="-0.1481685"><ele>0.0</ele><time>2026-04-29T15:59:56.067Z</time></trkpt><trkpt lat="37.9705882" lon="-0.1481035"><ele>0.0</ele><time>2026-04-29T15:59:57.067Z</time></trkpt><trkpt lat="37.9706643" lon="-0.1480481"><ele>0.0</ele><time>2026-04-29T15:59:58.067Z</time></trkpt><trkpt lat="37.9707383" lon="-0.1479906"><ele>0.0</ele><time>2026-04-29T15:59:59.067Z</time></trkpt><trkpt lat="37.9708054" lon="-0.1479297"><ele>0.0</ele><time>2026-04-29T16:00:00.068Z</time></trkpt><trkpt lat="37.970951" lon="-0.1478143"><ele>0.0</ele><time>2026-04-29T16:00:02.068Z</time></trkpt><trkpt lat="37.9710276" lon="-0.1477561"><ele>0.0</ele><time>2026-04-29T16:00:03.067Z</time></trkpt><trkpt lat="37.9711046" lon="-0.1476952"><ele>0.0</ele><time>2026-04-29T16:00:04.067Z</time></trkpt><trkpt lat="37.9711756" lon="-0.1476384"><ele>0.0</ele><time>2026-04-29T16:00:05.068Z</time></trkpt><trkpt lat="37.9712484" lon="-0.1475792"><ele>0.0</ele><time>2026-04-29T16:00:06.067Z</time></trkpt><trkpt lat="37.971326" lon="-0.147523"><ele>0.0</ele><time>2026-04-29T16:00:07.067Z</time></trkpt><trkpt lat="37.9714016" lon="-0.1474581"><ele>0.0</ele><time>2026-04-29T16:00:08.068Z</time></trkpt><trkpt lat="37.9714723" lon="-0.1473886"><ele>0.0</ele><time>2026-04-29T16:00:09.068Z</time></trkpt><trkpt lat="37.971539" lon="-0.1473181"><ele>0.0</ele><time>2026-04-29T16:00:10.068Z</time></trkpt><trkpt lat="37.9716098" lon="-0.1472492"><ele>0.0</ele><time>2026-04-29T16:00:11.067Z</time></trkpt><trkpt lat="37.9716827" lon="-0.1471894"><ele>0.0</ele><time>2026-04-29T16:00:12.067Z</time></trkpt><trkpt lat="37.9718404" lon="-0.1470918"><ele>0.0</ele><time>2026-04-29T16:00:14.068Z</time></trkpt><trkpt lat="37.9719152" lon="-0.1470312"><ele>0.0</ele><time>2026-04-29T16:00:15.068Z</time></trkpt><trkpt lat="37.9719881" lon="-0.1469718"><ele>0.0</ele><time>2026-04-29T16:00:16.068Z</time></trkpt><trkpt lat="37.972064" lon="-0.1469177"><ele>0.0</ele><time>2026-04-29T16:00:17.067Z</time></trkpt><trkpt lat="37.9721311" lon="-0.1468577"><ele>0.0</ele><time>2026-04-29T16:00:18.067Z</time></trkpt><trkpt lat="37.9722043" lon="-0.1467917"><ele>0.0</ele><time>2026-04-29T16:00:19.068Z</time></trkpt><trkpt lat="37.9723545" lon="-0.1466627"><ele>0.0</ele><time>2026-04-29T16:00:21.067Z</time></trkpt><trkpt lat="37.9725067" lon="-0.1465386"><ele>0.0</ele><time>2026-04-29T16:00:23.068Z</time></trkpt><trkpt lat="37.972594" lon="-0.1465306"><ele>0.0</ele><time>2026-04-29T16:00:24.067Z</time></trkpt><trkpt lat="37.9726651" lon="-0.1464748"><ele>0.0</ele><time>2026-04-29T16:00:25.068Z</time></trkpt><trkpt lat="37.9727364" lon="-0.1464193"><ele>0.0</ele><time>2026-04-29T16:00:26.068Z</time></trkpt><trkpt lat="37.9728111" lon="-0.1464013"><ele>0.0</ele><time>2026-04-29T16:00:27.067Z</time></trkpt><trkpt lat="37.9728781" lon="-0.1463495"><ele>0.0</ele><time>2026-04-29T16:00:28.067Z</time></trkpt><trkpt lat="37.9729592" lon="-0.1463303"><ele>0.0</ele><time>2026-04-29T16:00:29.067Z</time></trkpt><trkpt lat="37.9730386" lon="-0.1462742"><ele>0.0</ele><time>2026-04-29T16:00:30.067Z</time></trkpt><trkpt lat="37.9731841" lon="-0.1461176"><ele>0.0</ele><time>2026-04-29T16:00:32.068Z</time></trkpt><trkpt lat="37.9732551" lon="-0.1460471"><ele>0.0</ele><time>2026-04-29T16:00:33.067Z</time></trkpt><trkpt lat="37.9733253" lon="-0.1459827"><ele>0.0</ele><time>2026-04-29T16:00:34.068Z</time></trkpt><trkpt lat="37.9733983" lon="-0.1459083"><ele>0.0</ele><time>2026-04-29T16:00:35.067Z</time></trkpt><trkpt lat="37.97347" lon="-0.1458439"><ele>0.0</ele><time>2026-04-29T16:00:36.068Z</time></trkpt><trkpt lat="37.9735415" lon="-0.1457879"><ele>0.0</ele><time>2026-04-29T16:00:37.068Z</time></trkpt><trkpt lat="37.9736149" lon="-0.1457278"><ele>0.0</ele><time>2026-04-29T16:00:38.067Z</time></trkpt><trkpt lat="37.9737558" lon="-0.1456057"><ele>0.0</ele><time>2026-04-29T16:00:40.067Z</time></trkpt><trkpt lat="37.9738257" lon="-0.1455403"><ele>0.0</ele><time>2026-04-29T16:00:41.067Z</time></trkpt><trkpt lat="37.9738939" lon="-0.1454746"><ele>0.0</ele><time>2026-04-29T16:00:42.067Z</time></trkpt><trkpt lat="37.9740285" lon="-0.1453513"><ele>0.0</ele><time>2026-04-29T16:00:44.068Z</time></trkpt><trkpt lat="37.9741729" lon="-0.1452252"><ele>0.0</ele><time>2026-04-29T16:00:46.067Z</time></trkpt><trkpt lat="37.9742475" lon="-0.1451509"><ele>0.0</ele><time>2026-04-29T16:00:47.067Z</time></trkpt><trkpt lat="37.9743212" lon="-0.1450886"><ele>0.0</ele><time>2026-04-29T16:00:48.067Z</time></trkpt><trkpt lat="37.9743947" lon="-0.1450257"><ele>0.0</ele><time>2026-04-29T16:00:49.067Z</time></trkpt><trkpt lat="37.974468" lon="-0.1449652"><ele>0.0</ele><time>2026-04-29T16:00:50.066Z</time></trkpt><trkpt lat="37.9745414" lon="-0.1448949"><ele>0.0</ele><time>2026-04-29T16:00:51.066Z</time></trkpt><trkpt lat="37.974615" lon="-0.1448364"><ele>0.0</ele><time>2026-04-29T16:00:52.067Z</time></trkpt><trkpt lat="37.9746854" lon="-0.1447767"><ele>0.0</ele><time>2026-04-29T16:00:53.066Z</time></trkpt><trkpt lat="37.9747559" lon="-0.1447128"><ele>0.0</ele><time>2026-04-29T16:00:54.067Z</time></trkpt><trkpt lat="37.9748879" lon="-0.1445822"><ele>0.0</ele><time>2026-04-29T16:00:56.067Z</time></trkpt><trkpt lat="37.9749545" lon="-0.1445064"><ele>0.0</ele><time>2026-04-29T16:00:57.066Z</time></trkpt><trkpt lat="37.9750181" lon="-0.144438"><ele>0.0</ele><time>2026-04-29T16:00:58.067Z</time></trkpt><trkpt lat="37.9750782" lon="-0.1443643"><ele>0.0</ele><time>2026-04-29T16:00:59.066Z</time></trkpt><trkpt lat="37.9751394" lon="-0.1443089"><ele>0.0</ele><time>2026-04-29T16:01:00.067Z</time></trkpt><trkpt lat="37.9752764" lon="-0.1441862"><ele>0.0</ele><time>2026-04-29T16:01:02.066Z</time></trkpt><trkpt lat="37.9753397" lon="-0.144123"><ele>0.0</ele><time>2026-04-29T16:01:03.066Z</time></trkpt><trkpt lat="37.9754102" lon="-0.144057"><ele>0.0</ele><time>2026-04-29T16:01:04.066Z</time></trkpt><trkpt lat="37.9754804" lon="-0.1439857"><ele>0.0</ele><time>2026-04-29T16:01:05.066Z</time></trkpt><trkpt lat="37.9756234" lon="-0.1438566"><ele>0.0</ele><time>2026-04-29T16:01:07.067Z</time></trkpt><trkpt lat="37.9756908" lon="-0.1437939"><ele>0.0</ele><time>2026-04-29T16:01:08.066Z</time></trkpt><trkpt lat="37.9757589" lon="-0.1437307"><ele>0.0</ele><time>2026-04-29T16:01:09.066Z</time></trkpt><trkpt lat="37.9758228" lon="-0.1436631"><ele>0.0</ele><time>2026-04-29T16:01:10.066Z</time></trkpt><trkpt lat="37.9758849" lon="-0.1436003"><ele>0.0</ele><time>2026-04-29T16:01:11.066Z</time></trkpt><trkpt lat="37.9759578" lon="-0.1435331"><ele>0.0</ele><time>2026-04-29T16:01:12.066Z</time></trkpt><trkpt lat="37.9760327" lon="-0.1434681"><ele>0.0</ele><time>2026-04-29T16:01:13.067Z</time></trkpt><trkpt lat="37.9761016" lon="-0.1433987"><ele>0.0</ele><time>2026-04-29T16:01:14.066Z</time></trkpt><trkpt lat="37.9762407" lon="-0.1432705"><ele>0.0</ele><time>2026-04-29T16:01:16.067Z</time></trkpt><trkpt lat="37.9763926" lon="-0.1431577"><ele>0.0</ele><time>2026-04-29T16:01:18.067Z</time></trkpt><trkpt lat="37.9764693" lon="-0.1431003"><ele>0.0</ele><time>2026-04-29T16:01:19.067Z</time></trkpt><trkpt lat="37.9765399" lon="-0.1430422"><ele>0.0</ele><time>2026-04-29T16:01:20.067Z</time></trkpt><trkpt lat="37.9766067" lon="-0.1429883"><ele>0.0</ele><time>2026-04-29T16:01:21.066Z</time></trkpt><trkpt lat="37.9766786" lon="-0.1429349"><ele>0.0</ele><time>2026-04-29T16:01:22.066Z</time></trkpt><trkpt lat="37.9767549" lon="-0.1428727"><ele>0.0</ele><time>2026-04-29T16:01:23.066Z</time></trkpt><trkpt lat="37.9769075" lon="-0.1427456"><ele>0.0</ele><time>2026-04-29T16:01:25.067Z</time></trkpt><trkpt lat="37.9770469" lon="-0.1426186"><ele>0.0</ele><time>2026-04-29T16:01:27.066Z</time></trkpt><trkpt lat="37.9771984" lon="-0.1424864"><ele>0.0</ele><time>2026-04-29T16:01:29.067Z</time></trkpt><trkpt lat="37.9772735" lon="-0.1424197"><ele>0.0</ele><time>2026-04-29T16:01:30.067Z</time></trkpt><trkpt lat="37.9773515" lon="-0.1423567"><ele>0.0</ele><time>2026-04-29T16:01:31.066Z</time></trkpt><trkpt lat="37.9774945" lon="-0.1422126"><ele>0.0</ele><time>2026-04-29T16:01:33.066Z</time></trkpt><trkpt lat="37.9775705" lon="-0.1421442"><ele>0.0</ele><time>2026-04-29T16:01:34.066Z</time></trkpt><trkpt lat="37.9776503" lon="-0.1420807"><ele>0.0</ele><time>2026-04-29T16:01:35.066Z</time></trkpt><trkpt lat="37.9777217" lon="-0.1420118"><ele>0.0</ele><time>2026-04-29T16:01:36.066Z</time></trkpt><trkpt lat="37.9778018" lon="-0.1419433"><ele>0.0</ele><time>2026-04-29T16:01:37.067Z</time></trkpt><trkpt lat="37.9779545" lon="-0.1418097"><ele>0.0</ele><time>2026-04-29T16:01:39.066Z</time></trkpt><trkpt lat="37.9780265" lon="-0.1417469"><ele>0.0</ele><time>2026-04-29T16:01:40.066Z</time></trkpt><trkpt lat="37.9781054" lon="-0.1416904"><ele>0.0</ele><time>2026-04-29T16:01:41.066Z</time></trkpt><trkpt lat="37.9782501" lon="-0.1415785"><ele>0.0</ele><time>2026-04-29T16:01:43.067Z</time></trkpt><trkpt lat="37.978322" lon="-0.1415154"><ele>0.0</ele><time>2026-04-29T16:01:44.067Z</time></trkpt><trkpt lat="37.9783952" lon="-0.1414595"><ele>0.0</ele><time>2026-04-29T16:01:45.066Z</time></trkpt><trkpt lat="37.9784726" lon="-0.1413935"><ele>0.0</ele><time>2026-04-29T16:01:46.066Z</time></trkpt><trkpt lat="37.9786366" lon="-0.1412906"><ele>0.0</ele><time>2026-04-29T16:01:48.066Z</time></trkpt><trkpt lat="37.9787948" lon="-0.1411819"><ele>0.0</ele><time>2026-04-29T16:01:50.066Z</time></trkpt><trkpt lat="37.9788679" lon="-0.1411257"><ele>0.0</ele><time>2026-04-29T16:01:51.067Z</time></trkpt><trkpt lat="37.9789348" lon="-0.1410751"><ele>0.0</ele><time>2026-04-29T16:01:52.067Z</time></trkpt><trkpt lat="37.9790008" lon="-0.1410266"><ele>0.0</ele><time>2026-04-29T16:01:53.066Z</time></trkpt><trkpt lat="37.9791526" lon="-0.140918"><ele>0.0</ele><time>2026-04-29T16:01:55.066Z</time></trkpt><trkpt lat="37.9792285" lon="-0.1408698"><ele>0.0</ele><time>2026-04-29T16:01:56.067Z</time></trkpt><trkpt lat="37.9793001" lon="-0.1408117"><ele>0.0</ele><time>2026-04-29T16:01:57.066Z</time></trkpt><trkpt lat="37.979376" lon="-0.1407432"><ele>0.0</ele><time>2026-04-29T16:01:58.067Z</time></trkpt><trkpt lat="37.9794541" lon="-0.1406815"><ele>0.0</ele><time>2026-04-29T16:01:59.067Z</time></trkpt><trkpt lat="37.9795298" lon="-0.1406239"><ele>0.0</ele><time>2026-04-29T16:02:00.066Z</time></trkpt><trkpt lat="37.9796005" lon="-0.1405692"><ele>0.0</ele><time>2026-04-29T16:02:01.066Z</time></trkpt><trkpt lat="37.9796716" lon="-0.140501"><ele>0.0</ele><time>2026-04-29T16:02:02.067Z</time></trkpt><trkpt lat="37.979739" lon="-0.1404264"><ele>0.0</ele><time>2026-04-29T16:02:03.066Z</time></trkpt><trkpt lat="37.9798126" lon="-0.1403649"><ele>0.0</ele><time>2026-04-29T16:02:04.067Z</time></trkpt><trkpt lat="37.9798867" lon="-0.1403079"><ele>0.0</ele><time>2026-04-29T16:02:05.066Z</time></trkpt><trkpt lat="37.9799603" lon="-0.1402456"><ele>0.0</ele><time>2026-04-29T16:02:06.067Z</time></trkpt><trkpt lat="37.9800382" lon="-0.1401803"><ele>0.0</ele><time>2026-04-29T16:02:07.066Z</time></trkpt><trkpt lat="37.9801101" lon="-0.1401176"><ele>0.0</ele><time>2026-04-29T16:02:08.066Z</time></trkpt><trkpt lat="37.9801816" lon="-0.1400557"><ele>0.0</ele><time>2026-04-29T16:02:09.066Z</time></trkpt><trkpt lat="37.9803078" lon="-0.1399466"><ele>0.0</ele><time>2026-04-29T16:02:12.084Z</time></trkpt><trkpt lat="37.9804231" lon="-0.1398884"><ele>0.0</ele><time>2026-04-29T16:02:13.089Z</time></trkpt><trkpt lat="37.9805104" lon="-0.1397405"><ele>0.0</ele><time>2026-04-29T16:02:14.096Z</time></trkpt><trkpt lat="37.9805617" lon="-0.1396291"><ele>0.0</ele><time>2026-04-29T16:02:15.101Z</time></trkpt><trkpt lat="37.9806305" lon="-0.1395607"><ele>0.0</ele><time>2026-04-29T16:02:16.108Z</time></trkpt><trkpt lat="37.9807039" lon="-0.1395441"><ele>0.0</ele><time>2026-04-29T16:02:17.114Z</time></trkpt><trkpt lat="37.9807688" lon="-0.1394897"><ele>0.0</ele><time>2026-04-29T16:02:18.119Z</time></trkpt><trkpt lat="37.9808402" lon="-0.1394191"><ele>0.0</ele><time>2026-04-29T16:02:19.126Z</time></trkpt><trkpt lat="37.9809186" lon="-0.1393474"><ele>0.0</ele><time>2026-04-29T16:02:20.131Z</time></trkpt><trkpt lat="37.9809949" lon="-0.1392796"><ele>0.0</ele><time>2026-04-29T16:02:21.138Z</time></trkpt><trkpt lat="37.9811093" lon="-0.1391204"><ele>0.0</ele><time>2026-04-29T16:02:24.155Z</time></trkpt><trkpt lat="37.9812438" lon="-0.1390651"><ele>0.0</ele><time>2026-04-29T16:02:25.16Z</time></trkpt><trkpt lat="37.9813381" lon="-0.1389969"><ele>0.0</ele><time>2026-04-29T16:02:26.166Z</time></trkpt><trkpt lat="37.9814291" lon="-0.1389332"><ele>0.0</ele><time>2026-04-29T16:02:27.173Z</time></trkpt><trkpt lat="37.9815071" lon="-0.138868"><ele>0.0</ele><time>2026-04-29T16:02:28.079Z</time></trkpt><trkpt lat="37.9815954" lon="-0.1388081"><ele>0.0</ele><time>2026-04-29T16:02:29.084Z</time></trkpt><trkpt lat="37.9816782" lon="-0.1387466"><ele>0.0</ele><time>2026-04-29T16:02:30.089Z</time></trkpt><trkpt lat="37.9818313" lon="-0.1386165"><ele>0.0</ele><time>2026-04-29T16:02:32.102Z</time></trkpt><trkpt lat="37.9819357" lon="-0.1384927"><ele>0.0</ele><time>2026-04-29T16:02:34.066Z</time></trkpt><trkpt lat="37.9819722" lon="-0.1384104"><ele>0.0</ele><time>2026-04-29T16:02:35.12Z</time></trkpt><trkpt lat="37.9820771" lon="-0.1383395"><ele>0.0</ele><time>2026-04-29T16:02:36.125Z</time></trkpt><trkpt lat="37.9821668" lon="-0.138294"><ele>0.0</ele><time>2026-04-29T16:02:37.132Z</time></trkpt><trkpt lat="37.9822416" lon="-0.1382273"><ele>0.0</ele><time>2026-04-29T16:02:38.137Z</time></trkpt><trkpt lat="37.9823135" lon="-0.1381596"><ele>0.0</ele><time>2026-04-29T16:02:39.143Z</time></trkpt><trkpt lat="37.9824006" lon="-0.1380361"><ele>0.0</ele><time>2026-04-29T16:02:41.156Z</time></trkpt><trkpt lat="37.9825144" lon="-0.1379844"><ele>0.0</ele><time>2026-04-29T16:02:42.161Z</time></trkpt><trkpt lat="37.9825978" lon="-0.1379283"><ele>0.0</ele><time>2026-04-29T16:02:43.167Z</time></trkpt><trkpt lat="37.9826684" lon="-0.1378689"><ele>0.0</ele><time>2026-04-29T16:02:44.072Z</time></trkpt><trkpt lat="37.9827837" lon="-0.1377677"><ele>0.0</ele><time>2026-04-29T16:02:46.066Z</time></trkpt><trkpt lat="37.9828562" lon="-0.1377091"><ele>0.0</ele><time>2026-04-29T16:02:47.067Z</time></trkpt><trkpt lat="37.9829309" lon="-0.1376467"><ele>0.0</ele><time>2026-04-29T16:02:48.066Z</time></trkpt><trkpt lat="37.9830061" lon="-0.1375861"><ele>0.0</ele><time>2026-04-29T16:02:49.066Z</time></trkpt><trkpt lat="37.9830828" lon="-0.1375244"><ele>0.0</ele><time>2026-04-29T16:02:50.067Z</time></trkpt><trkpt lat="37.9831579" lon="-0.1374688"><ele>0.0</ele><time>2026-04-29T16:02:51.067Z</time></trkpt><trkpt lat="37.9832287" lon="-0.1374083"><ele>0.0</ele><time>2026-04-29T16:02:52.066Z</time></trkpt><trkpt lat="37.9833018" lon="-0.1373454"><ele>0.0</ele><time>2026-04-29T16:02:53.066Z</time></trkpt><trkpt lat="37.9834594" lon="-0.1372251"><ele>0.0</ele><time>2026-04-29T16:02:55.067Z</time></trkpt><trkpt lat="37.9835329" lon="-0.1371564"><ele>0.0</ele><time>2026-04-29T16:02:56.066Z</time></trkpt><trkpt lat="37.9836052" lon="-0.1370845"><ele>0.0</ele><time>2026-04-29T16:02:57.066Z</time></trkpt><trkpt lat="37.9836874" lon="-0.1370424"><ele>0.0</ele><time>2026-04-29T16:02:58.066Z</time></trkpt><trkpt lat="37.983763" lon="-0.1369827"><ele>0.0</ele><time>2026-04-29T16:02:59.066Z</time></trkpt><trkpt lat="37.983836" lon="-0.1369143"><ele>0.0</ele><time>2026-04-29T16:03:00.066Z</time></trkpt><trkpt lat="37.9839631" lon="-0.1367799"><ele>0.0</ele><time>2026-04-29T16:03:02.067Z</time></trkpt><trkpt lat="37.9840253" lon="-0.1367154"><ele>0.0</ele><time>2026-04-29T16:03:03.066Z</time></trkpt><trkpt lat="37.9840934" lon="-0.1366538"><ele>0.0</ele><time>2026-04-29T16:03:04.066Z</time></trkpt><trkpt lat="37.9841622" lon="-0.1365928"><ele>0.0</ele><time>2026-04-29T16:03:05.067Z</time></trkpt><trkpt lat="37.9842303" lon="-0.1365388"><ele>0.0</ele><time>2026-04-29T16:03:06.067Z</time></trkpt><trkpt lat="37.9843031" lon="-0.1364875"><ele>0.0</ele><time>2026-04-29T16:03:07.066Z</time></trkpt><trkpt lat="37.9843796" lon="-0.1364332"><ele>0.0</ele><time>2026-04-29T16:03:08.067Z</time></trkpt><trkpt lat="37.9844597" lon="-0.1363773"><ele>0.0</ele><time>2026-04-29T16:03:09.067Z</time></trkpt><trkpt lat="37.9845371" lon="-0.1363236"><ele>0.0</ele><time>2026-04-29T16:03:10.066Z</time></trkpt><trkpt lat="37.9846126" lon="-0.1362673"><ele>0.0</ele><time>2026-04-29T16:03:11.066Z</time></trkpt><trkpt lat="37.9846859" lon="-0.1362134"><ele>0.0</ele><time>2026-04-29T16:03:12.067Z</time></trkpt><trkpt lat="37.9847605" lon="-0.13616"><ele>0.0</ele><time>2026-04-29T16:03:13.066Z</time></trkpt><trkpt lat="37.984831" lon="-0.1361054"><ele>0.0</ele><time>2026-04-29T16:03:14.066Z</time></trkpt><trkpt lat="37.9849724" lon="-0.1359875"><ele>0.0</ele><time>2026-04-29T16:03:16.066Z</time></trkpt><trkpt lat="37.985044" lon="-0.1359251"><ele>0.0</ele><time>2026-04-29T16:03:17.067Z</time></trkpt><trkpt lat="37.9851125" lon="-0.1358566"><ele>0.0</ele><time>2026-04-29T16:03:18.066Z</time></trkpt><trkpt lat="37.9851788" lon="-0.1357901"><ele>0.0</ele><time>2026-04-29T16:03:19.066Z</time></trkpt><trkpt lat="37.9852434" lon="-0.1357091"><ele>0.0</ele><time>2026-04-29T16:03:20.067Z</time></trkpt><trkpt lat="37.9853084" lon="-0.1356347"><ele>0.0</ele><time>2026-04-29T16:03:21.067Z</time></trkpt><trkpt lat="37.9853761" lon="-0.1355637"><ele>0.0</ele><time>2026-04-29T16:03:22.066Z</time></trkpt><trkpt lat="37.9854448" lon="-0.1354878"><ele>0.0</ele><time>2026-04-29T16:03:23.066Z</time></trkpt><trkpt lat="37.9855146" lon="-0.1354166"><ele>0.0</ele><time>2026-04-29T16:03:24.067Z</time></trkpt><trkpt lat="37.9855861" lon="-0.1353562"><ele>0.0</ele><time>2026-04-29T16:03:25.066Z</time></trkpt><trkpt lat="37.9856578" lon="-0.1352921"><ele>0.0</ele><time>2026-04-29T16:03:26.067Z</time></trkpt><trkpt lat="37.9857296" lon="-0.1352332"><ele>0.0</ele><time>2026-04-29T16:03:27.067Z</time></trkpt><trkpt lat="37.9858013" lon="-0.1351749"><ele>0.0</ele><time>2026-04-29T16:03:28.066Z</time></trkpt><trkpt lat="37.985873" lon="-0.1351111"><ele>0.0</ele><time>2026-04-29T16:03:29.067Z</time></trkpt><trkpt lat="37.9860295" lon="-0.1350221"><ele>0.0</ele><time>2026-04-29T16:03:31.066Z</time></trkpt><trkpt lat="37.9861111" lon="-0.134982"><ele>0.0</ele><time>2026-04-29T16:03:32.066Z</time></trkpt><trkpt lat="37.9861871" lon="-0.1349231"><ele>0.0</ele><time>2026-04-29T16:03:33.066Z</time></trkpt><trkpt lat="37.9862685" lon="-0.1348795"><ele>0.0</ele><time>2026-04-29T16:03:34.067Z</time></trkpt><trkpt lat="37.9863386" lon="-0.1348254"><ele>0.0</ele><time>2026-04-29T16:03:35.067Z</time></trkpt><trkpt lat="37.9864669" lon="-0.1346926"><ele>0.0</ele><time>2026-04-29T16:03:37.067Z</time></trkpt><trkpt lat="37.9865374" lon="-0.1346038"><ele>0.0</ele><time>2026-04-29T16:03:38.066Z</time></trkpt><trkpt lat="37.9866088" lon="-0.1345365"><ele>0.0</ele><time>2026-04-29T16:03:39.066Z</time></trkpt><trkpt lat="37.9866781" lon="-0.1344741"><ele>0.0</ele><time>2026-04-29T16:03:40.067Z</time></trkpt><trkpt lat="37.986748" lon="-0.1344169"><ele>0.0</ele><time>2026-04-29T16:03:41.066Z</time></trkpt><trkpt lat="37.9868119" lon="-0.1343561"><ele>0.0</ele><time>2026-04-29T16:03:42.067Z</time></trkpt><trkpt lat="37.9868811" lon="-0.1342959"><ele>0.0</ele><time>2026-04-29T16:03:43.067Z</time></trkpt><trkpt lat="37.9869583" lon="-0.1342387"><ele>0.0</ele><time>2026-04-29T16:03:44.067Z</time></trkpt><trkpt lat="37.9870341" lon="-0.1341771"><ele>0.0</ele><time>2026-04-29T16:03:45.066Z</time></trkpt><trkpt lat="37.9871877" lon="-0.1340565"><ele>0.0</ele><time>2026-04-29T16:03:47.067Z</time></trkpt><trkpt lat="37.9872685" lon="-0.1339938"><ele>0.0</ele><time>2026-04-29T16:03:48.067Z</time></trkpt><trkpt lat="37.9873476" lon="-0.1339331"><ele>0.0</ele><time>2026-04-29T16:03:49.066Z</time></trkpt><trkpt lat="37.9874219" lon="-0.1338772"><ele>0.0</ele><time>2026-04-29T16:03:50.066Z</time></trkpt><trkpt lat="37.9874982" lon="-0.133821"><ele>0.0</ele><time>2026-04-29T16:03:51.067Z</time></trkpt><trkpt lat="37.9875789" lon="-0.1337642"><ele>0.0</ele><time>2026-04-29T16:03:52.067Z</time></trkpt><trkpt lat="37.9876589" lon="-0.1337075"><ele>0.0</ele><time>2026-04-29T16:03:53.067Z</time></trkpt><trkpt lat="37.9877316" lon="-0.1336463"><ele>0.0</ele><time>2026-04-29T16:03:54.067Z</time></trkpt><trkpt lat="37.9878061" lon="-0.1335893"><ele>0.0</ele><time>2026-04-29T16:03:55.066Z</time></trkpt><trkpt lat="37.9878796" lon="-0.1335282"><ele>0.0</ele><time>2026-04-29T16:03:56.066Z</time></trkpt><trkpt lat="37.9879545" lon="-0.1334664"><ele>0.0</ele><time>2026-04-29T16:03:57.066Z</time></trkpt><trkpt lat="37.9881044" lon="-0.1333297"><ele>0.0</ele><time>2026-04-29T16:03:59.066Z</time></trkpt><trkpt lat="37.9881782" lon="-0.1332689"><ele>0.0</ele><time>2026-04-29T16:04:00.067Z</time></trkpt><trkpt lat="37.9882546" lon="-0.1332096"><ele>0.0</ele><time>2026-04-29T16:04:01.066Z</time></trkpt><trkpt lat="37.9883314" lon="-0.1331412"><ele>0.0</ele><time>2026-04-29T16:04:02.066Z</time></trkpt><trkpt lat="37.9884051" lon="-0.133087"><ele>0.0</ele><time>2026-04-29T16:04:03.067Z</time></trkpt><trkpt lat="37.9884795" lon="-0.1330354"><ele>0.0</ele><time>2026-04-29T16:04:04.066Z</time></trkpt><trkpt lat="37.9885587" lon="-0.1329783"><ele>0.0</ele><time>2026-04-29T16:04:05.066Z</time></trkpt><trkpt lat="37.9886314" lon="-0.1329234"><ele>0.0</ele><time>2026-04-29T16:04:06.067Z</time></trkpt><trkpt lat="37.9887064" lon="-0.1328706"><ele>0.0</ele><time>2026-04-29T16:04:07.066Z</time></trkpt><trkpt lat="37.9887873" lon="-0.1328517"><ele>0.0</ele><time>2026-04-29T16:04:08.066Z</time></trkpt><trkpt lat="37.9888648" lon="-0.1328027"><ele>0.0</ele><time>2026-04-29T16:04:09.067Z</time></trkpt><trkpt lat="37.9889437" lon="-0.1327499"><ele>0.0</ele><time>2026-04-29T16:04:10.066Z</time></trkpt><trkpt lat="37.9890192" lon="-0.1326911"><ele>0.0</ele><time>2026-04-29T16:04:11.066Z</time></trkpt><trkpt lat="37.9890972" lon="-0.1326694"><ele>0.0</ele><time>2026-04-29T16:04:12.067Z</time></trkpt><trkpt lat="37.9891653" lon="-0.1326134"><ele>0.0</ele><time>2026-04-29T16:04:13.066Z</time></trkpt><trkpt lat="37.9892333" lon="-0.1325394"><ele>0.0</ele><time>2026-04-29T16:04:14.066Z</time></trkpt><trkpt lat="37.9892971" lon="-0.1324609"><ele>0.0</ele><time>2026-04-29T16:04:15.067Z</time></trkpt><trkpt lat="37.9893598" lon="-0.1323855"><ele>0.0</ele><time>2026-04-29T16:04:16.067Z</time></trkpt><trkpt lat="37.9894274" lon="-0.1323219"><ele>0.0</ele><time>2026-04-29T16:04:17.066Z</time></trkpt><trkpt lat="37.9894895" lon="-0.1322575"><ele>0.0</ele><time>2026-04-29T16:04:18.066Z</time></trkpt><trkpt lat="37.9896215" lon="-0.1321316"><ele>0.0</ele><time>2026-04-29T16:04:20.066Z</time></trkpt><trkpt lat="37.989694" lon="-0.1320732"><ele>0.0</ele><time>2026-04-29T16:04:21.067Z</time></trkpt><trkpt lat="37.9897629" lon="-0.132011"><ele>0.0</ele><time>2026-04-29T16:04:22.066Z</time></trkpt><trkpt lat="37.9898349" lon="-0.1319498"><ele>0.0</ele><time>2026-04-29T16:04:23.066Z</time></trkpt><trkpt lat="37.9899038" lon="-0.1318847"><ele>0.0</ele><time>2026-04-29T16:04:24.067Z</time></trkpt><trkpt lat="37.9899688" lon="-0.1318195"><ele>0.0</ele><time>2026-04-29T16:04:25.067Z</time></trkpt><trkpt lat="37.990045" lon="-0.1317758"><ele>0.0</ele><time>2026-04-29T16:04:26.066Z</time></trkpt><trkpt lat="37.9901208" lon="-0.1317178"><ele>0.0</ele><time>2026-04-29T16:04:27.067Z</time></trkpt><trkpt lat="37.9903285" lon="-0.1315319"><ele>0.0</ele><time>2026-04-29T16:04:30.067Z</time></trkpt><trkpt lat="37.9903932" lon="-0.1314624"><ele>0.0</ele><time>2026-04-29T16:04:31.066Z</time></trkpt><trkpt lat="37.9904617" lon="-0.131391"><ele>0.0</ele><time>2026-04-29T16:04:32.066Z</time></trkpt><trkpt lat="37.9905303" lon="-0.1313291"><ele>0.0</ele><time>2026-04-29T16:04:33.066Z</time></trkpt><trkpt lat="37.9906014" lon="-0.131267"><ele>0.0</ele><time>2026-04-29T16:04:34.067Z</time></trkpt><trkpt lat="37.9906749" lon="-0.1312078"><ele>0.0</ele><time>2026-04-29T16:04:35.066Z</time></trkpt><trkpt lat="37.9907638" lon="-0.1311849"><ele>0.0</ele><time>2026-04-29T16:04:36.067Z</time></trkpt><trkpt lat="37.9908457" lon="-0.131171"><ele>0.0</ele><time>2026-04-29T16:04:37.066Z</time></trkpt><trkpt lat="37.9909215" lon="-0.1311207"><ele>0.0</ele><time>2026-04-29T16:04:38.067Z</time></trkpt><trkpt lat="37.9909949" lon="-0.131066"><ele>0.0</ele><time>2026-04-29T16:04:39.067Z</time></trkpt><trkpt lat="37.9911386" lon="-0.1309323"><ele>0.0</ele><time>2026-04-29T16:04:41.065Z</time></trkpt><trkpt lat="37.9912054" lon="-0.1308687"><ele>0.0</ele><time>2026-04-29T16:04:42.066Z</time></trkpt><trkpt lat="37.9912764" lon="-0.1308091"><ele>0.0</ele><time>2026-04-29T16:04:43.065Z</time></trkpt><trkpt lat="37.9913481" lon="-0.1307481"><ele>0.0</ele><time>2026-04-29T16:04:44.066Z</time></trkpt><trkpt lat="37.9914185" lon="-0.1306829"><ele>0.0</ele><time>2026-04-29T16:04:45.065Z</time></trkpt><trkpt lat="37.9914858" lon="-0.130619"><ele>0.0</ele><time>2026-04-29T16:04:46.066Z</time></trkpt><trkpt lat="37.9915666" lon="-0.1305824"><ele>0.0</ele><time>2026-04-29T16:04:47.065Z</time></trkpt><trkpt lat="37.9916385" lon="-0.1305219"><ele>0.0</ele><time>2026-04-29T16:04:48.065Z</time></trkpt><trkpt lat="37.9917102" lon="-0.1304559"><ele>0.0</ele><time>2026-04-29T16:04:49.065Z</time></trkpt><trkpt lat="37.9917831" lon="-0.1303859"><ele>0.0</ele><time>2026-04-29T16:04:50.065Z</time></trkpt><trkpt lat="37.9919333" lon="-0.130258"><ele>0.0</ele><time>2026-04-29T16:04:52.065Z</time></trkpt><trkpt lat="37.9920121" lon="-0.1301941"><ele>0.0</ele><time>2026-04-29T16:04:53.065Z</time></trkpt><trkpt lat="37.9920891" lon="-0.1301279"><ele>0.0</ele><time>2026-04-29T16:04:54.066Z</time></trkpt><trkpt lat="37.9921616" lon="-0.1300624"><ele>0.0</ele><time>2026-04-29T16:04:55.065Z</time></trkpt><trkpt lat="37.9922362" lon="-0.1299828"><ele>0.0</ele><time>2026-04-29T16:04:56.066Z</time></trkpt><trkpt lat="37.9923055" lon="-0.1299124"><ele>0.0</ele><time>2026-04-29T16:04:57.066Z</time></trkpt><trkpt lat="37.9923795" lon="-0.1298396"><ele>0.0</ele><time>2026-04-29T16:04:58.065Z</time></trkpt><trkpt lat="37.9924573" lon="-0.1297647"><ele>0.0</ele><time>2026-04-29T16:04:59.065Z</time></trkpt><trkpt lat="37.9925268" lon="-0.1297044"><ele>0.0</ele><time>2026-04-29T16:05:00.065Z</time></trkpt><trkpt lat="37.9927685" lon="-0.129487"><ele>0.0</ele><time>2026-04-29T16:05:04.076Z</time></trkpt><trkpt lat="37.9928611" lon="-0.1294161"><ele>0.0</ele><time>2026-04-29T16:05:05.082Z</time></trkpt><trkpt lat="37.9930223" lon="-0.1292697"><ele>0.0</ele><time>2026-04-29T16:05:07.093Z</time></trkpt><trkpt lat="37.9930744" lon="-0.1292133"><ele>0.0</ele><time>2026-04-29T16:05:08.065Z</time></trkpt><trkpt lat="37.9931358" lon="-0.1291525"><ele>0.0</ele><time>2026-04-29T16:05:09.065Z</time></trkpt><trkpt lat="37.9932034" lon="-0.1290845"><ele>0.0</ele><time>2026-04-29T16:05:10.065Z</time></trkpt><trkpt lat="37.9932748" lon="-0.1290182"><ele>0.0</ele><time>2026-04-29T16:05:11.066Z</time></trkpt><trkpt lat="37.9933509" lon="-0.1289486"><ele>0.0</ele><time>2026-04-29T16:05:12.065Z</time></trkpt><trkpt lat="37.9934307" lon="-0.1288808"><ele>0.0</ele><time>2026-04-29T16:05:13.065Z</time></trkpt><trkpt lat="37.9935078" lon="-0.1288174"><ele>0.0</ele><time>2026-04-29T16:05:14.066Z</time></trkpt><trkpt lat="37.9935787" lon="-0.128751"><ele>0.0</ele><time>2026-04-29T16:05:15.065Z</time></trkpt><trkpt lat="37.9936529" lon="-0.1286854"><ele>0.0</ele><time>2026-04-29T16:05:16.065Z</time></trkpt><trkpt lat="37.9937234" lon="-0.1286222"><ele>0.0</ele><time>2026-04-29T16:05:17.065Z</time></trkpt><trkpt lat="37.9937965" lon="-0.128565"><ele>0.0</ele><time>2026-04-29T16:05:18.066Z</time></trkpt><trkpt lat="37.9938629" lon="-0.1285048"><ele>0.0</ele><time>2026-04-29T16:05:19.066Z</time></trkpt><trkpt lat="37.9939333" lon="-0.1284434"><ele>0.0</ele><time>2026-04-29T16:05:20.065Z</time></trkpt><trkpt lat="37.9939977" lon="-0.1283832"><ele>0.0</ele><time>2026-04-29T16:05:21.065Z</time></trkpt><trkpt lat="37.994068" lon="-0.1283117"><ele>0.0</ele><time>2026-04-29T16:05:22.065Z</time></trkpt><trkpt lat="37.9941398" lon="-0.1282421"><ele>0.0</ele><time>2026-04-29T16:05:23.065Z</time></trkpt><trkpt lat="37.9942874" lon="-0.1281026"><ele>0.0</ele><time>2026-04-29T16:05:25.065Z</time></trkpt><trkpt lat="37.9943599" lon="-0.1280465"><ele>0.0</ele><time>2026-04-29T16:05:26.066Z</time></trkpt><trkpt lat="37.9944313" lon="-0.1279863"><ele>0.0</ele><time>2026-04-29T16:05:27.065Z</time></trkpt><trkpt lat="37.9945029" lon="-0.1279256"><ele>0.0</ele><time>2026-04-29T16:05:28.065Z</time></trkpt><trkpt lat="37.9945791" lon="-0.1278642"><ele>0.0</ele><time>2026-04-29T16:05:29.065Z</time></trkpt><trkpt lat="37.9946561" lon="-0.1278005"><ele>0.0</ele><time>2026-04-29T16:05:30.065Z</time></trkpt><trkpt lat="37.9947284" lon="-0.127734"><ele>0.0</ele><time>2026-04-29T16:05:31.065Z</time></trkpt><trkpt lat="37.9948" lon="-0.1276701"><ele>0.0</ele><time>2026-04-29T16:05:32.065Z</time></trkpt><trkpt lat="37.9948673" lon="-0.1276036"><ele>0.0</ele><time>2026-04-29T16:05:33.066Z</time></trkpt><trkpt lat="37.9950842" lon="-0.1274173"><ele>0.0</ele><time>2026-04-29T16:05:36.066Z</time></trkpt><trkpt lat="37.995154" lon="-0.1273583"><ele>0.0</ele><time>2026-04-29T16:05:37.065Z</time></trkpt><trkpt lat="37.9952262" lon="-0.1272977"><ele>0.0</ele><time>2026-04-29T16:05:38.065Z</time></trkpt><trkpt lat="37.9952983" lon="-0.1272302"><ele>0.0</ele><time>2026-04-29T16:05:39.065Z</time></trkpt><trkpt lat="37.9953673" lon="-0.1271703"><ele>0.0</ele><time>2026-04-29T16:05:40.065Z</time></trkpt><trkpt lat="37.9954367" lon="-0.1271152"><ele>0.0</ele><time>2026-04-29T16:05:41.066Z</time></trkpt><trkpt lat="37.995498" lon="-0.1270583"><ele>0.0</ele><time>2026-04-29T16:05:42.066Z</time></trkpt><trkpt lat="37.9955602" lon="-0.1269994"><ele>0.0</ele><time>2026-04-29T16:05:43.066Z</time></trkpt><trkpt lat="37.9957066" lon="-0.1268891"><ele>0.0</ele><time>2026-04-29T16:05:45.066Z</time></trkpt><trkpt lat="37.995778" lon="-0.1268329"><ele>0.0</ele><time>2026-04-29T16:05:46.066Z</time></trkpt><trkpt lat="37.9958511" lon="-0.1267758"><ele>0.0</ele><time>2026-04-29T16:05:47.066Z</time></trkpt><trkpt lat="37.9959263" lon="-0.126713"><ele>0.0</ele><time>2026-04-29T16:05:48.066Z</time></trkpt><trkpt lat="37.9959986" lon="-0.1266513"><ele>0.0</ele><time>2026-04-29T16:05:49.065Z</time></trkpt><trkpt lat="37.9960654" lon="-0.1265913"><ele>0.0</ele><time>2026-04-29T16:05:50.066Z</time></trkpt><trkpt lat="37.9961283" lon="-0.1265287"><ele>0.0</ele><time>2026-04-29T16:05:51.065Z</time></trkpt><trkpt lat="37.9961967" lon="-0.126454"><ele>0.0</ele><time>2026-04-29T16:05:52.065Z</time></trkpt><trkpt lat="37.9962595" lon="-0.1263893"><ele>0.0</ele><time>2026-04-29T16:05:53.065Z</time></trkpt><trkpt lat="37.9963238" lon="-0.1263266"><ele>0.0</ele><time>2026-04-29T16:05:54.065Z</time></trkpt><trkpt lat="37.9963875" lon="-0.1262633"><ele>0.0</ele><time>2026-04-29T16:05:55.065Z</time></trkpt><trkpt lat="37.9964506" lon="-0.126195"><ele>0.0</ele><time>2026-04-29T16:05:56.065Z</time></trkpt><trkpt lat="37.996518" lon="-0.1261247"><ele>0.0</ele><time>2026-04-29T16:05:57.065Z</time></trkpt><trkpt lat="37.9965907" lon="-0.1260587"><ele>0.0</ele><time>2026-04-29T16:05:58.065Z</time></trkpt><trkpt lat="37.9966644" lon="-0.1259898"><ele>0.0</ele><time>2026-04-29T16:05:59.065Z</time></trkpt><trkpt lat="37.996735" lon="-0.1259242"><ele>0.0</ele><time>2026-04-29T16:06:00.065Z</time></trkpt><trkpt lat="37.9968133" lon="-0.1258609"><ele>0.0</ele><time>2026-04-29T16:06:01.065Z</time></trkpt><trkpt lat="37.9968905" lon="-0.1257947"><ele>0.0</ele><time>2026-04-29T16:06:02.066Z</time></trkpt><trkpt lat="37.9969633" lon="-0.1257307"><ele>0.0</ele><time>2026-04-29T16:06:03.066Z</time></trkpt><trkpt lat="37.9970346" lon="-0.1256717"><ele>0.0</ele><time>2026-04-29T16:06:04.065Z</time></trkpt><trkpt lat="37.9971844" lon="-0.1255375"><ele>0.0</ele><time>2026-04-29T16:06:06.065Z</time></trkpt><trkpt lat="37.9974113" lon="-0.1253341"><ele>0.0</ele><time>2026-04-29T16:06:09.065Z</time></trkpt><trkpt lat="37.9974819" lon="-0.1252664"><ele>0.0</ele><time>2026-04-29T16:06:10.066Z</time></trkpt><trkpt lat="37.9975519" lon="-0.1251668"><ele>0.0</ele><time>2026-04-29T16:06:11.065Z</time></trkpt><trkpt lat="37.9976273" lon="-0.1250934"><ele>0.0</ele><time>2026-04-29T16:06:12.065Z</time></trkpt><trkpt lat="37.9977001" lon="-0.1250112"><ele>0.0</ele><time>2026-04-29T16:06:13.065Z</time></trkpt><trkpt lat="37.9977858" lon="-0.1249437"><ele>0.0</ele><time>2026-04-29T16:06:14.066Z</time></trkpt><trkpt lat="37.9978614" lon="-0.1248882"><ele>0.0</ele><time>2026-04-29T16:06:15.065Z</time></trkpt><trkpt lat="37.9979275" lon="-0.1248282"><ele>0.0</ele><time>2026-04-29T16:06:16.065Z</time></trkpt><trkpt lat="37.9979986" lon="-0.1247925"><ele>0.0</ele><time>2026-04-29T16:06:18.175Z</time></trkpt><trkpt lat="37.9981025" lon="-0.1247209"><ele>0.0</ele><time>2026-04-29T16:06:19.08Z</time></trkpt><trkpt lat="37.9981775" lon="-0.1246428"><ele>0.0</ele><time>2026-04-29T16:06:20.087Z</time></trkpt><trkpt lat="37.9982548" lon="-0.1245666"><ele>0.0</ele><time>2026-04-29T16:06:21.092Z</time></trkpt><trkpt lat="37.9984128" lon="-0.1244242"><ele>0.0</ele><time>2026-04-29T16:06:23.104Z</time></trkpt><trkpt lat="37.9984867" lon="-0.1243519"><ele>0.0</ele><time>2026-04-29T16:06:24.11Z</time></trkpt><trkpt lat="37.9985646" lon="-0.1242838"><ele>0.0</ele><time>2026-04-29T16:06:25.116Z</time></trkpt><trkpt lat="37.9987322" lon="-0.1241062"><ele>0.0</ele><time>2026-04-29T16:06:28.135Z</time></trkpt><trkpt lat="37.9988347" lon="-0.1240321"><ele>0.0</ele><time>2026-04-29T16:06:29.14Z</time></trkpt><trkpt lat="37.9989166" lon="-0.123965"><ele>0.0</ele><time>2026-04-29T16:06:30.147Z</time></trkpt><trkpt lat="37.998992" lon="-0.1238889"><ele>0.0</ele><time>2026-04-29T16:06:31.151Z</time></trkpt><trkpt lat="37.9990691" lon="-0.1238183"><ele>0.0</ele><time>2026-04-29T16:06:32.157Z</time></trkpt><trkpt lat="37.9991401" lon="-0.1237502"><ele>0.0</ele><time>2026-04-29T16:06:33.066Z</time></trkpt><trkpt lat="37.9992348" lon="-0.1235936"><ele>0.0</ele><time>2026-04-29T16:06:36.08Z</time></trkpt><trkpt lat="37.9993621" lon="-0.1235068"><ele>0.0</ele><time>2026-04-29T16:06:37.086Z</time></trkpt><trkpt lat="37.9994532" lon="-0.1234452"><ele>0.0</ele><time>2026-04-29T16:06:38.065Z</time></trkpt><trkpt lat="37.9995318" lon="-0.1233785"><ele>0.0</ele><time>2026-04-29T16:06:39.066Z</time></trkpt><trkpt lat="37.9996779" lon="-0.1232923"><ele>0.0</ele><time>2026-04-29T16:06:41.066Z</time></trkpt><trkpt lat="37.999748" lon="-0.1232345"><ele>0.0</ele><time>2026-04-29T16:06:42.065Z</time></trkpt><trkpt lat="37.9998259" lon="-0.1231808"><ele>0.0</ele><time>2026-04-29T16:06:43.065Z</time></trkpt><trkpt lat="37.9999026" lon="-0.123129"><ele>0.0</ele><time>2026-04-29T16:06:44.065Z</time></trkpt><trkpt lat="37.9999797" lon="-0.1230716"><ele>0.0</ele><time>2026-04-29T16:06:45.065Z</time></trkpt><trkpt lat="38.0000552" lon="-0.1230158"><ele>0.0</ele><time>2026-04-29T16:06:46.065Z</time></trkpt><trkpt lat="38.000278" lon="-0.1228352"><ele>0.0</ele><time>2026-04-29T16:06:49.065Z</time></trkpt><trkpt lat="38.0003548" lon="-0.1227715"><ele>0.0</ele><time>2026-04-29T16:06:50.066Z</time></trkpt><trkpt lat="38.0004326" lon="-0.1227112"><ele>0.0</ele><time>2026-04-29T16:06:51.065Z</time></trkpt><trkpt lat="38.0005027" lon="-0.1226589"><ele>0.0</ele><time>2026-04-29T16:06:52.065Z</time></trkpt><trkpt lat="38.0005747" lon="-0.1226047"><ele>0.0</ele><time>2026-04-29T16:06:53.065Z</time></trkpt><trkpt lat="38.0006495" lon="-0.1225479"><ele>0.0</ele><time>2026-04-29T16:06:54.066Z</time></trkpt><trkpt lat="38.00072" lon="-0.1224914"><ele>0.0</ele><time>2026-04-29T16:06:55.065Z</time></trkpt><trkpt lat="38.0007854" lon="-0.1224293"><ele>0.0</ele><time>2026-04-29T16:06:56.065Z</time></trkpt><trkpt lat="38.0008515" lon="-0.122364"><ele>0.0</ele><time>2026-04-29T16:06:57.066Z</time></trkpt><trkpt lat="38.0009171" lon="-0.1223062"><ele>0.0</ele><time>2026-04-29T16:06:58.066Z</time></trkpt><trkpt lat="38.0009732" lon="-0.1222522"><ele>0.0</ele><time>2026-04-29T16:07:00.163Z</time></trkpt><trkpt lat="38.0011382" lon="-0.1221237"><ele>0.0</ele><time>2026-04-29T16:07:01.065Z</time></trkpt><trkpt lat="38.0012856" lon="-0.1219778"><ele>0.0</ele><time>2026-04-29T16:07:03.065Z</time></trkpt><trkpt lat="38.0013525" lon="-0.1219152"><ele>0.0</ele><time>2026-04-29T16:07:04.066Z</time></trkpt><trkpt lat="38.0014186" lon="-0.1218479"><ele>0.0</ele><time>2026-04-29T16:07:05.065Z</time></trkpt><trkpt lat="38.0014896" lon="-0.1217907"><ele>0.0</ele><time>2026-04-29T16:07:06.065Z</time></trkpt><trkpt lat="38.0015685" lon="-0.1217856"><ele>0.0</ele><time>2026-04-29T16:07:07.065Z</time></trkpt><trkpt lat="38.0018035" lon="-0.1216046"><ele>0.0</ele><time>2026-04-29T16:07:10.065Z</time></trkpt><trkpt lat="38.001877" lon="-0.1215366"><ele>0.0</ele><time>2026-04-29T16:07:11.066Z</time></trkpt><trkpt lat="38.0020129" lon="-0.1213894"><ele>0.0</ele><time>2026-04-29T16:07:13.066Z</time></trkpt><trkpt lat="38.0020818" lon="-0.1213198"><ele>0.0</ele><time>2026-04-29T16:07:14.065Z</time></trkpt><trkpt lat="38.002156" lon="-0.1212585"><ele>0.0</ele><time>2026-04-29T16:07:15.065Z</time></trkpt><trkpt lat="38.0022369" lon="-0.1212379"><ele>0.0</ele><time>2026-04-29T16:07:16.065Z</time></trkpt><trkpt lat="38.0023188" lon="-0.121222"><ele>0.0</ele><time>2026-04-29T16:07:17.066Z</time></trkpt><trkpt lat="38.0023992" lon="-0.1211998"><ele>0.0</ele><time>2026-04-29T16:07:18.065Z</time></trkpt><trkpt lat="38.002473" lon="-0.1211869"><ele>0.0</ele><time>2026-04-29T16:07:19.066Z</time></trkpt><trkpt lat="38.0025522" lon="-0.1211611"><ele>0.0</ele><time>2026-04-29T16:07:20.066Z</time></trkpt><trkpt lat="38.0026281" lon="-0.1211001"><ele>0.0</ele><time>2026-04-29T16:07:21.065Z</time></trkpt><trkpt lat="38.0027101" lon="-0.1210435"><ele>0.0</ele><time>2026-04-29T16:07:22.066Z</time></trkpt><trkpt lat="38.0027892" lon="-0.1209704"><ele>0.0</ele><time>2026-04-29T16:07:23.066Z</time></trkpt><trkpt lat="38.0028648" lon="-0.1209212"><ele>0.0</ele><time>2026-04-29T16:07:24.065Z</time></trkpt><trkpt lat="38.0029397" lon="-0.1208626"><ele>0.0</ele><time>2026-04-29T16:07:25.065Z</time></trkpt><trkpt lat="38.003012" lon="-0.1208004"><ele>0.0</ele><time>2026-04-29T16:07:26.065Z</time></trkpt><trkpt lat="38.0030793" lon="-0.1207396"><ele>0.0</ele><time>2026-04-29T16:07:27.065Z</time></trkpt><trkpt lat="38.0031472" lon="-0.1206706"><ele>0.0</ele><time>2026-04-29T16:07:28.065Z</time></trkpt><trkpt lat="38.0032882" lon="-0.120545"><ele>0.0</ele><time>2026-04-29T16:07:30.066Z</time></trkpt><trkpt lat="38.0033568" lon="-0.1204659"><ele>0.0</ele><time>2026-04-29T16:07:31.065Z</time></trkpt><trkpt lat="38.0034239" lon="-0.1203928"><ele>0.0</ele><time>2026-04-29T16:07:32.066Z</time></trkpt><trkpt lat="38.0034766" lon="-0.120299"><ele>0.0</ele><time>2026-04-29T16:07:33.065Z</time></trkpt><trkpt lat="38.003531" lon="-0.1202243"><ele>0.0</ele><time>2026-04-29T16:07:34.066Z</time></trkpt><trkpt lat="38.0035961" lon="-0.1201577"><ele>0.0</ele><time>2026-04-29T16:07:35.066Z</time></trkpt><trkpt lat="38.0036525" lon="-0.1200981"><ele>0.0</ele><time>2026-04-29T16:07:37.081Z</time></trkpt><trkpt lat="38.0037137" lon="-0.1200006"><ele>0.0</ele><time>2026-04-29T16:07:38.086Z</time></trkpt><trkpt lat="38.0038303" lon="-0.1199365"><ele>0.0</ele><time>2026-04-29T16:07:39.092Z</time></trkpt><trkpt lat="38.0039445" lon="-0.1198815"><ele>0.0</ele><time>2026-04-29T16:07:40.099Z</time></trkpt><trkpt lat="38.0040354" lon="-0.1198147"><ele>0.0</ele><time>2026-04-29T16:07:41.104Z</time></trkpt><trkpt lat="38.0041179" lon="-0.1197378"><ele>0.0</ele><time>2026-04-29T16:07:42.111Z</time></trkpt><trkpt lat="38.0041983" lon="-0.1196706"><ele>0.0</ele><time>2026-04-29T16:07:43.117Z</time></trkpt><trkpt lat="38.0043575" lon="-0.1195366"><ele>0.0</ele><time>2026-04-29T16:07:45.128Z</time></trkpt><trkpt lat="38.0044333" lon="-0.1194792"><ele>0.0</ele><time>2026-04-29T16:07:46.135Z</time></trkpt><trkpt lat="38.0045073" lon="-0.1194136"><ele>0.0</ele><time>2026-04-29T16:07:47.141Z</time></trkpt><trkpt lat="38.004568" lon="-0.1192848"><ele>0.0</ele><time>2026-04-29T16:07:49.153Z</time></trkpt><trkpt lat="38.0047617" lon="-0.1191711"><ele>0.0</ele><time>2026-04-29T16:07:51.163Z</time></trkpt><trkpt lat="38.0048439" lon="-0.1191197"><ele>0.0</ele><time>2026-04-29T16:07:52.169Z</time></trkpt><trkpt lat="38.0049101" lon="-0.1190577"><ele>0.0</ele><time>2026-04-29T16:07:53.075Z</time></trkpt><trkpt lat="38.004983" lon="-0.1189912"><ele>0.0</ele><time>2026-04-29T16:07:54.082Z</time></trkpt><trkpt lat="38.0050571" lon="-0.1189251"><ele>0.0</ele><time>2026-04-29T16:07:55.087Z</time></trkpt><trkpt lat="38.0051272" lon="-0.1188583"><ele>0.0</ele><time>2026-04-29T16:07:56.092Z</time></trkpt><trkpt lat="38.0052038" lon="-0.1187981"><ele>0.0</ele><time>2026-04-29T16:07:57.099Z</time></trkpt><trkpt lat="38.0052803" lon="-0.1187321"><ele>0.0</ele><time>2026-04-29T16:07:58.104Z</time></trkpt><trkpt lat="38.005375" lon="-0.1187226"><ele>0.0</ele><time>2026-04-29T16:07:59.11Z</time></trkpt><trkpt lat="38.0054591" lon="-0.1186765"><ele>0.0</ele><time>2026-04-29T16:08:00.116Z</time></trkpt><trkpt lat="38.0055285" lon="-0.1185922"><ele>0.0</ele><time>2026-04-29T16:08:01.122Z</time></trkpt><trkpt lat="38.0055975" lon="-0.1185233"><ele>0.0</ele><time>2026-04-29T16:08:02.129Z</time></trkpt><trkpt lat="38.0056619" lon="-0.1184489"><ele>0.0</ele><time>2026-04-29T16:08:03.135Z</time></trkpt><trkpt lat="38.0057323" lon="-0.1183863"><ele>0.0</ele><time>2026-04-29T16:08:04.14Z</time></trkpt><trkpt lat="38.0058062" lon="-0.1183312"><ele>0.0</ele><time>2026-04-29T16:08:05.147Z</time></trkpt><trkpt lat="38.0058857" lon="-0.1182748"><ele>0.0</ele><time>2026-04-29T16:08:06.152Z</time></trkpt><trkpt lat="38.0059538" lon="-0.118207"><ele>0.0</ele><time>2026-04-29T16:08:07.158Z</time></trkpt><trkpt lat="38.0060156" lon="-0.1180865"><ele>0.0</ele><time>2026-04-29T16:08:09.17Z</time></trkpt><trkpt lat="38.0061129" lon="-0.1179991"><ele>0.0</ele><time>2026-04-29T16:08:10.175Z</time></trkpt><trkpt lat="38.0062657" lon="-0.1178587"><ele>0.0</ele><time>2026-04-29T16:08:12.087Z</time></trkpt><trkpt lat="38.0063409" lon="-0.1177931"><ele>0.0</ele><time>2026-04-29T16:08:13.094Z</time></trkpt><trkpt lat="38.0064236" lon="-0.1177416"><ele>0.0</ele><time>2026-04-29T16:08:14.1Z</time></trkpt><trkpt lat="38.0064926" lon="-0.1176765"><ele>0.0</ele><time>2026-04-29T16:08:15.106Z</time></trkpt><trkpt lat="38.0066466" lon="-0.1175427"><ele>0.0</ele><time>2026-04-29T16:08:17.116Z</time></trkpt><trkpt lat="38.0067064" lon="-0.1174066"><ele>0.0</ele><time>2026-04-29T16:08:19.128Z</time></trkpt><trkpt lat="38.0067939" lon="-0.1173237"><ele>0.0</ele><time>2026-04-29T16:08:20.134Z</time></trkpt><trkpt lat="38.0068749" lon="-0.1172599"><ele>0.0</ele><time>2026-04-29T16:08:21.14Z</time></trkpt><trkpt lat="38.0069341" lon="-0.1171711"><ele>0.0</ele><time>2026-04-29T16:08:22.147Z</time></trkpt><trkpt lat="38.0069995" lon="-0.1170995"><ele>0.0</ele><time>2026-04-29T16:08:23.152Z</time></trkpt><trkpt lat="38.0071591" lon="-0.1171039"><ele>0.0</ele><time>2026-04-29T16:08:25.066Z</time></trkpt><trkpt lat="38.0072327" lon="-0.1170561"><ele>0.0</ele><time>2026-04-29T16:08:26.066Z</time></trkpt><trkpt lat="38.0073064" lon="-0.1170016"><ele>0.0</ele><time>2026-04-29T16:08:27.065Z</time></trkpt><trkpt lat="38.0074548" lon="-0.1168777"><ele>0.0</ele><time>2026-04-29T16:08:29.065Z</time></trkpt><trkpt lat="38.007538" lon="-0.1168343"><ele>0.0</ele><time>2026-04-29T16:08:30.065Z</time></trkpt><trkpt lat="38.0076217" lon="-0.1167909"><ele>0.0</ele><time>2026-04-29T16:08:31.065Z</time></trkpt><trkpt lat="38.0078312" lon="-0.1166029"><ele>0.0</ele><time>2026-04-29T16:08:34.065Z</time></trkpt><trkpt lat="38.0079106" lon="-0.1165379"><ele>0.0</ele><time>2026-04-29T16:08:35.065Z</time></trkpt><trkpt lat="38.007985" lon="-0.1164688"><ele>0.0</ele><time>2026-04-29T16:08:36.064Z</time></trkpt><trkpt lat="38.0081186" lon="-0.1163308"><ele>0.0</ele><time>2026-04-29T16:08:38.064Z</time></trkpt><trkpt lat="38.0081883" lon="-0.1162635"><ele>0.0</ele><time>2026-04-29T16:08:39.065Z</time></trkpt><trkpt lat="38.0082568" lon="-0.1161939"><ele>0.0</ele><time>2026-04-29T16:08:40.065Z</time></trkpt><trkpt lat="38.0083253" lon="-0.1161231"><ele>0.0</ele><time>2026-04-29T16:08:41.064Z</time></trkpt><trkpt lat="38.008392" lon="-0.1160505"><ele>0.0</ele><time>2026-04-29T16:08:42.065Z</time></trkpt><trkpt lat="38.0084582" lon="-0.1159777"><ele>0.0</ele><time>2026-04-29T16:08:43.064Z</time></trkpt><trkpt lat="38.0085983" lon="-0.1158469"><ele>0.0</ele><time>2026-04-29T16:08:45.065Z</time></trkpt><trkpt lat="38.0086693" lon="-0.1157805"><ele>0.0</ele><time>2026-04-29T16:08:46.064Z</time></trkpt><trkpt lat="38.0087386" lon="-0.1157139"><ele>0.0</ele><time>2026-04-29T16:08:47.064Z</time></trkpt><trkpt lat="38.008807" lon="-0.1156502"><ele>0.0</ele><time>2026-04-29T16:08:48.065Z</time></trkpt><trkpt lat="38.0089519" lon="-0.1155279"><ele>0.0</ele><time>2026-04-29T16:08:50.064Z</time></trkpt><trkpt lat="38.0090219" lon="-0.115465"><ele>0.0</ele><time>2026-04-29T16:08:51.065Z</time></trkpt><trkpt lat="38.0090904" lon="-0.1154007"><ele>0.0</ele><time>2026-04-29T16:08:52.065Z</time></trkpt><trkpt lat="38.0092347" lon="-0.1152517"><ele>0.0</ele><time>2026-04-29T16:08:54.065Z</time></trkpt><trkpt lat="38.0093037" lon="-0.1151782"><ele>0.0</ele><time>2026-04-29T16:08:55.064Z</time></trkpt><trkpt lat="38.0093694" lon="-0.1151102"><ele>0.0</ele><time>2026-04-29T16:08:56.064Z</time></trkpt><trkpt lat="38.0094369" lon="-0.1150507"><ele>0.0</ele><time>2026-04-29T16:08:57.064Z</time></trkpt><trkpt lat="38.0095041" lon="-0.1149941"><ele>0.0</ele><time>2026-04-29T16:08:58.065Z</time></trkpt><trkpt lat="38.0095722" lon="-0.1149387"><ele>0.0</ele><time>2026-04-29T16:08:59.065Z</time></trkpt><trkpt lat="38.0096405" lon="-0.1148743"><ele>0.0</ele><time>2026-04-29T16:09:00.065Z</time></trkpt><trkpt lat="38.0097119" lon="-0.1148089"><ele>0.0</ele><time>2026-04-29T16:09:01.064Z</time></trkpt><trkpt lat="38.0097876" lon="-0.114751"><ele>0.0</ele><time>2026-04-29T16:09:02.065Z</time></trkpt><trkpt lat="38.009927" lon="-0.1146237"><ele>0.0</ele><time>2026-04-29T16:09:04.064Z</time></trkpt><trkpt lat="38.010001" lon="-0.1145614"><ele>0.0</ele><time>2026-04-29T16:09:05.064Z</time></trkpt><trkpt lat="38.0100702" lon="-0.1144998"><ele>0.0</ele><time>2026-04-29T16:09:06.064Z</time></trkpt><trkpt lat="38.0101397" lon="-0.1144269"><ele>0.0</ele><time>2026-04-29T16:09:07.065Z</time></trkpt><trkpt lat="38.010213" lon="-0.1143602"><ele>0.0</ele><time>2026-04-29T16:09:08.064Z</time></trkpt><trkpt lat="38.010351" lon="-0.1142191"><ele>0.0</ele><time>2026-04-29T16:09:10.064Z</time></trkpt><trkpt lat="38.0104215" lon="-0.1141547"><ele>0.0</ele><time>2026-04-29T16:09:11.065Z</time></trkpt><trkpt lat="38.0104934" lon="-0.1140946"><ele>0.0</ele><time>2026-04-29T16:09:12.064Z</time></trkpt><trkpt lat="38.0106326" lon="-0.1139685"><ele>0.0</ele><time>2026-04-29T16:09:14.064Z</time></trkpt><trkpt lat="38.0107742" lon="-0.1138463"><ele>0.0</ele><time>2026-04-29T16:09:16.064Z</time></trkpt><trkpt lat="38.0108422" lon="-0.1137816"><ele>0.0</ele><time>2026-04-29T16:09:17.064Z</time></trkpt><trkpt lat="38.0109088" lon="-0.1137179"><ele>0.0</ele><time>2026-04-29T16:09:18.064Z</time></trkpt><trkpt lat="38.0109797" lon="-0.1136509"><ele>0.0</ele><time>2026-04-29T16:09:19.064Z</time></trkpt><trkpt lat="38.0110554" lon="-0.1135909"><ele>0.0</ele><time>2026-04-29T16:09:20.064Z</time></trkpt><trkpt lat="38.0111297" lon="-0.1135255"><ele>0.0</ele><time>2026-04-29T16:09:21.064Z</time></trkpt><trkpt lat="38.0112633" lon="-0.1133828"><ele>0.0</ele><time>2026-04-29T16:09:23.065Z</time></trkpt><trkpt lat="38.011386" lon="-0.1132592"><ele>0.0</ele><time>2026-04-29T16:09:25.065Z</time></trkpt><trkpt lat="38.0114507" lon="-0.1131909"><ele>0.0</ele><time>2026-04-29T16:09:26.065Z</time></trkpt><trkpt lat="38.0115128" lon="-0.1131303"><ele>0.0</ele><time>2026-04-29T16:09:27.065Z</time></trkpt><trkpt lat="38.0115816" lon="-0.1130575"><ele>0.0</ele><time>2026-04-29T16:09:28.065Z</time></trkpt><trkpt lat="38.0116501" lon="-0.1129839"><ele>0.0</ele><time>2026-04-29T16:09:29.065Z</time></trkpt><trkpt lat="38.0117984" lon="-0.1128487"><ele>0.0</ele><time>2026-04-29T16:09:31.065Z</time></trkpt><trkpt lat="38.0118724" lon="-0.1127838"><ele>0.0</ele><time>2026-04-29T16:09:32.064Z</time></trkpt><trkpt lat="38.0119557" lon="-0.1127585"><ele>0.0</ele><time>2026-04-29T16:09:33.064Z</time></trkpt><trkpt lat="38.0120364" lon="-0.1127277"><ele>0.0</ele><time>2026-04-29T16:09:35.17Z</time></trkpt><trkpt lat="38.0123002" lon="-0.1125052"><ele>0.0</ele><time>2026-04-29T16:09:38.086Z</time></trkpt><trkpt lat="38.012394" lon="-0.1124554"><ele>0.0</ele><time>2026-04-29T16:09:39.092Z</time></trkpt><trkpt lat="38.0124759" lon="-0.1123779"><ele>0.0</ele><time>2026-04-29T16:09:40.098Z</time></trkpt><trkpt lat="38.0125768" lon="-0.1123796"><ele>0.0</ele><time>2026-04-29T16:09:41.105Z</time></trkpt><trkpt lat="38.0126684" lon="-0.1123378"><ele>0.0</ele><time>2026-04-29T16:09:42.111Z</time></trkpt><trkpt lat="38.0127457" lon="-0.1122638"><ele>0.0</ele><time>2026-04-29T16:09:43.117Z</time></trkpt><trkpt lat="38.0128189" lon="-0.1121809"><ele>0.0</ele><time>2026-04-29T16:09:44.122Z</time></trkpt><trkpt lat="38.0128969" lon="-0.1121121"><ele>0.0</ele><time>2026-04-29T16:09:46.134Z</time></trkpt><trkpt lat="38.012995" lon="-0.1120556"><ele>0.0</ele><time>2026-04-29T16:09:47.14Z</time></trkpt><trkpt lat="38.0130574" lon="-0.1120068"><ele>0.0</ele><time>2026-04-29T16:09:48.064Z</time></trkpt><trkpt lat="38.0131226" lon="-0.111942"><ele>0.0</ele><time>2026-04-29T16:09:49.065Z</time></trkpt><trkpt lat="38.0131914" lon="-0.1118771"><ele>0.0</ele><time>2026-04-29T16:09:50.064Z</time></trkpt><trkpt lat="38.0132628" lon="-0.111849"><ele>0.0</ele><time>2026-04-29T16:09:51.064Z</time></trkpt><trkpt lat="38.0133297" lon="-0.111783"><ele>0.0</ele><time>2026-04-29T16:09:52.064Z</time></trkpt><trkpt lat="38.0133973" lon="-0.1117198"><ele>0.0</ele><time>2026-04-29T16:09:53.064Z</time></trkpt><trkpt lat="38.0134715" lon="-0.111652"><ele>0.0</ele><time>2026-04-29T16:09:54.065Z</time></trkpt><trkpt lat="38.0136031" lon="-0.1115192"><ele>0.0</ele><time>2026-04-29T16:09:56.064Z</time></trkpt><trkpt lat="38.0137439" lon="-0.111428"><ele>0.0</ele><time>2026-04-29T16:09:58.065Z</time></trkpt><trkpt lat="38.013818" lon="-0.1113489"><ele>0.0</ele><time>2026-04-29T16:09:59.065Z</time></trkpt><trkpt lat="38.0138867" lon="-0.111276"><ele>0.0</ele><time>2026-04-29T16:10:00.064Z</time></trkpt><trkpt lat="38.0139493" lon="-0.1112059"><ele>0.0</ele><time>2026-04-29T16:10:01.065Z</time></trkpt><trkpt lat="38.0140212" lon="-0.1111329"><ele>0.0</ele><time>2026-04-29T16:10:02.065Z</time></trkpt><trkpt lat="38.0140909" lon="-0.111062"><ele>0.0</ele><time>2026-04-29T16:10:03.064Z</time></trkpt><trkpt lat="38.0141669" lon="-0.1109947"><ele>0.0</ele><time>2026-04-29T16:10:04.064Z</time></trkpt><trkpt lat="38.0142332" lon="-0.1109192"><ele>0.0</ele><time>2026-04-29T16:10:05.064Z</time></trkpt><trkpt lat="38.0143022" lon="-0.1108456"><ele>0.0</ele><time>2026-04-29T16:10:06.064Z</time></trkpt><trkpt lat="38.0143697" lon="-0.1107737"><ele>0.0</ele><time>2026-04-29T16:10:07.065Z</time></trkpt><trkpt lat="38.0144314" lon="-0.1107117"><ele>0.0</ele><time>2026-04-29T16:10:08.064Z</time></trkpt><trkpt lat="38.0144914" lon="-0.1106478"><ele>0.0</ele><time>2026-04-29T16:10:09.064Z</time></trkpt><trkpt lat="38.0145524" lon="-0.1105848"><ele>0.0</ele><time>2026-04-29T16:10:10.065Z</time></trkpt><trkpt lat="38.0146183" lon="-0.1105259"><ele>0.0</ele><time>2026-04-29T16:10:11.064Z</time></trkpt><trkpt lat="38.0146867" lon="-0.1104558"><ele>0.0</ele><time>2026-04-29T16:10:12.065Z</time></trkpt><trkpt lat="38.0147525" lon="-0.1103873"><ele>0.0</ele><time>2026-04-29T16:10:13.064Z</time></trkpt><trkpt lat="38.0148229" lon="-0.1103432"><ele>0.0</ele><time>2026-04-29T16:10:14.065Z</time></trkpt><trkpt lat="38.014893" lon="-0.1102793"><ele>0.0</ele><time>2026-04-29T16:10:15.065Z</time></trkpt><trkpt lat="38.0149559" lon="-0.1102075"><ele>0.0</ele><time>2026-04-29T16:10:16.065Z</time></trkpt><trkpt lat="38.0150276" lon="-0.11014"><ele>0.0</ele><time>2026-04-29T16:10:17.065Z</time></trkpt><trkpt lat="38.0151828" lon="-0.1100016"><ele>0.0</ele><time>2026-04-29T16:10:19.065Z</time></trkpt><trkpt lat="38.0152733" lon="-0.109987"><ele>0.0</ele><time>2026-04-29T16:10:20.064Z</time></trkpt><trkpt lat="38.0153521" lon="-0.1099317"><ele>0.0</ele><time>2026-04-29T16:10:21.064Z</time></trkpt><trkpt lat="38.015426" lon="-0.1098717"><ele>0.0</ele><time>2026-04-29T16:10:22.064Z</time></trkpt><trkpt lat="38.0154963" lon="-0.109806"><ele>0.0</ele><time>2026-04-29T16:10:23.065Z</time></trkpt><trkpt lat="38.015569" lon="-0.1097428"><ele>0.0</ele><time>2026-04-29T16:10:24.064Z</time></trkpt><trkpt lat="38.0156425" lon="-0.1096767"><ele>0.0</ele><time>2026-04-29T16:10:25.065Z</time></trkpt><trkpt lat="38.0157247" lon="-0.1096725"><ele>0.0</ele><time>2026-04-29T16:10:26.064Z</time></trkpt><trkpt lat="38.0158182" lon="-0.109662"><ele>0.0</ele><time>2026-04-29T16:10:27.065Z</time></trkpt><trkpt lat="38.0159035" lon="-0.1096395"><ele>0.0</ele><time>2026-04-29T16:10:28.064Z</time></trkpt><trkpt lat="38.0159798" lon="-0.1095766"><ele>0.0</ele><time>2026-04-29T16:10:29.064Z</time></trkpt><trkpt lat="38.0160532" lon="-0.1095121"><ele>0.0</ele><time>2026-04-29T16:10:30.065Z</time></trkpt><trkpt lat="38.0161251" lon="-0.1094414"><ele>0.0</ele><time>2026-04-29T16:10:31.064Z</time></trkpt><trkpt lat="38.0161979" lon="-0.1093961"><ele>0.0</ele><time>2026-04-29T16:10:32.064Z</time></trkpt><trkpt lat="38.0162701" lon="-0.1093291"><ele>0.0</ele><time>2026-04-29T16:10:33.064Z</time></trkpt><trkpt lat="38.0163414" lon="-0.1092664"><ele>0.0</ele><time>2026-04-29T16:10:34.065Z</time></trkpt><trkpt lat="38.016416" lon="-0.1092061"><ele>0.0</ele><time>2026-04-29T16:10:35.064Z</time></trkpt><trkpt lat="38.0164925" lon="-0.1091781"><ele>0.0</ele><time>2026-04-29T16:10:36.064Z</time></trkpt><trkpt lat="38.0165674" lon="-0.109112"><ele>0.0</ele><time>2026-04-29T16:10:37.064Z</time></trkpt><trkpt lat="38.0166432" lon="-0.1090534"><ele>0.0</ele><time>2026-04-29T16:10:38.064Z</time></trkpt><trkpt lat="38.0167981" lon="-0.1089633"><ele>0.0</ele><time>2026-04-29T16:10:40.065Z</time></trkpt><trkpt lat="38.0168738" lon="-0.1089136"><ele>0.0</ele><time>2026-04-29T16:10:41.065Z</time></trkpt><trkpt lat="38.0169468" lon="-0.1088865"><ele>0.0</ele><time>2026-04-29T16:10:42.065Z</time></trkpt><trkpt lat="38.0170192" lon="-0.1088547"><ele>0.0</ele><time>2026-04-29T16:10:43.064Z</time></trkpt><trkpt lat="38.0170847" lon="-0.1088012"><ele>0.0</ele><time>2026-04-29T16:10:44.064Z</time></trkpt><trkpt lat="38.0171493" lon="-0.108731"><ele>0.0</ele><time>2026-04-29T16:10:45.064Z</time></trkpt><trkpt lat="38.0172168" lon="-0.1086881"><ele>0.0</ele><time>2026-04-29T16:10:46.064Z</time></trkpt><trkpt lat="38.0172853" lon="-0.1086139"><ele>0.0</ele><time>2026-04-29T16:10:47.064Z</time></trkpt><trkpt lat="38.0173551" lon="-0.1085343"><ele>0.0</ele><time>2026-04-29T16:10:48.064Z</time></trkpt><trkpt lat="38.0174228" lon="-0.1084818"><ele>0.0</ele><time>2026-04-29T16:10:49.064Z</time></trkpt><trkpt lat="38.0174878" lon="-0.1084078"><ele>0.0</ele><time>2026-04-29T16:10:50.065Z</time></trkpt><trkpt lat="38.0175567" lon="-0.1083314"><ele>0.0</ele><time>2026-04-29T16:10:51.064Z</time></trkpt><trkpt lat="38.0176339" lon="-0.1082974"><ele>0.0</ele><time>2026-04-29T16:10:52.064Z</time></trkpt><trkpt lat="38.0177109" lon="-0.1082777"><ele>0.0</ele><time>2026-04-29T16:10:53.065Z</time></trkpt><trkpt lat="38.0177861" lon="-0.1082502"><ele>0.0</ele><time>2026-04-29T16:10:54.064Z</time></trkpt><trkpt lat="38.0178572" lon="-0.1081942"><ele>0.0</ele><time>2026-04-29T16:10:55.064Z</time></trkpt><trkpt lat="38.0179326" lon="-0.1081291"><ele>0.0</ele><time>2026-04-29T16:10:56.065Z</time></trkpt><trkpt lat="38.0180748" lon="-0.1080288"><ele>0.0</ele><time>2026-04-29T16:10:58.065Z</time></trkpt><trkpt lat="38.0181436" lon="-0.107971"><ele>0.0</ele><time>2026-04-29T16:10:59.064Z</time></trkpt><trkpt lat="38.01835" lon="-0.1077525"><ele>0.0</ele><time>2026-04-29T16:11:02.064Z</time></trkpt><trkpt lat="38.0184169" lon="-0.107679"><ele>0.0</ele><time>2026-04-29T16:11:03.065Z</time></trkpt><trkpt lat="38.018492" lon="-0.1076492"><ele>0.0</ele><time>2026-04-29T16:11:04.064Z</time></trkpt><trkpt lat="38.0185632" lon="-0.1076001"><ele>0.0</ele><time>2026-04-29T16:11:05.064Z</time></trkpt><trkpt lat="38.0186322" lon="-0.1075556"><ele>0.0</ele><time>2026-04-29T16:11:06.065Z</time></trkpt><trkpt lat="38.0186919" lon="-0.1074726"><ele>0.0</ele><time>2026-04-29T16:11:07.064Z</time></trkpt><trkpt lat="38.0187515" lon="-0.1073859"><ele>0.0</ele><time>2026-04-29T16:11:08.064Z</time></trkpt><trkpt lat="38.0188168" lon="-0.1073059"><ele>0.0</ele><time>2026-04-29T16:11:09.065Z</time></trkpt><trkpt lat="38.0190678" lon="-0.106979"><ele>0.0</ele><time>2026-04-29T16:11:13.173Z</time></trkpt><trkpt lat="38.0191554" lon="-0.1068867"><ele>0.0</ele><time>2026-04-29T16:11:14.179Z</time></trkpt><trkpt lat="38.0192392" lon="-0.1068085"><ele>0.0</ele><time>2026-04-29T16:11:15.186Z</time></trkpt><trkpt lat="38.019308" lon="-0.1067257"><ele>0.0</ele><time>2026-04-29T16:11:16.091Z</time></trkpt><trkpt lat="38.0193664" lon="-0.1066606"><ele>0.0</ele><time>2026-04-29T16:11:17.064Z</time></trkpt><trkpt lat="38.0194351" lon="-0.1065884"><ele>0.0</ele><time>2026-04-29T16:11:18.065Z</time></trkpt><trkpt lat="38.0195029" lon="-0.1065181"><ele>0.0</ele><time>2026-04-29T16:11:19.065Z</time></trkpt><trkpt lat="38.0196479" lon="-0.1063385"><ele>0.0</ele><time>2026-04-29T16:11:21.065Z</time></trkpt><trkpt lat="38.0198002" lon="-0.106189"><ele>0.0</ele><time>2026-04-29T16:11:23.065Z</time></trkpt><trkpt lat="38.0198742" lon="-0.1061147"><ele>0.0</ele><time>2026-04-29T16:11:24.065Z</time></trkpt><trkpt lat="38.0199434" lon="-0.1060257"><ele>0.0</ele><time>2026-04-29T16:11:25.064Z</time></trkpt><trkpt lat="38.0200087" lon="-0.1059496"><ele>0.0</ele><time>2026-04-29T16:11:26.064Z</time></trkpt><trkpt lat="38.020072" lon="-0.1058719"><ele>0.0</ele><time>2026-04-29T16:11:27.065Z</time></trkpt><trkpt lat="38.020144" lon="-0.1057889"><ele>0.0</ele><time>2026-04-29T16:11:28.065Z</time></trkpt><trkpt lat="38.0202269" lon="-0.1057408"><ele>0.0</ele><time>2026-04-29T16:11:29.064Z</time></trkpt><trkpt lat="38.0203055" lon="-0.1057049"><ele>0.0</ele><time>2026-04-29T16:11:30.065Z</time></trkpt><trkpt lat="38.0203791" lon="-0.1056664"><ele>0.0</ele><time>2026-04-29T16:11:31.064Z</time></trkpt><trkpt lat="38.0205221" lon="-0.1055372"><ele>0.0</ele><time>2026-04-29T16:11:33.064Z</time></trkpt><trkpt lat="38.0205907" lon="-0.1054679"><ele>0.0</ele><time>2026-04-29T16:11:34.065Z</time></trkpt><trkpt lat="38.0206558" lon="-0.105396"><ele>0.0</ele><time>2026-04-29T16:11:35.065Z</time></trkpt><trkpt lat="38.020732" lon="-0.1053364"><ele>0.0</ele><time>2026-04-29T16:11:36.064Z</time></trkpt><trkpt lat="38.0208133" lon="-0.1053015"><ele>0.0</ele><time>2026-04-29T16:11:37.064Z</time></trkpt><trkpt lat="38.0208892" lon="-0.1052612"><ele>0.0</ele><time>2026-04-29T16:11:38.065Z</time></trkpt><trkpt lat="38.020963" lon="-0.1052059"><ele>0.0</ele><time>2026-04-29T16:11:39.064Z</time></trkpt><trkpt lat="38.021041" lon="-0.1051396"><ele>0.0</ele><time>2026-04-29T16:11:40.064Z</time></trkpt><trkpt lat="38.0211958" lon="-0.1050426"><ele>0.0</ele><time>2026-04-29T16:11:42.065Z</time></trkpt><trkpt lat="38.0213303" lon="-0.1049297"><ele>0.0</ele><time>2026-04-29T16:11:44.065Z</time></trkpt><trkpt lat="38.0213969" lon="-0.10489"><ele>0.0</ele><time>2026-04-29T16:11:45.065Z</time></trkpt><trkpt lat="38.0214563" lon="-0.1048321"><ele>0.0</ele><time>2026-04-29T16:11:46.064Z</time></trkpt><trkpt lat="38.0215217" lon="-0.1047652"><ele>0.0</ele><time>2026-04-29T16:11:47.064Z</time></trkpt><trkpt lat="38.0215913" lon="-0.1046937"><ele>0.0</ele><time>2026-04-29T16:11:48.064Z</time></trkpt><trkpt lat="38.0216685" lon="-0.1046426"><ele>0.0</ele><time>2026-04-29T16:11:49.064Z</time></trkpt><trkpt lat="38.0217469" lon="-0.1046033"><ele>0.0</ele><time>2026-04-29T16:11:50.064Z</time></trkpt><trkpt lat="38.021825" lon="-0.104582"><ele>0.0</ele><time>2026-04-29T16:11:51.064Z</time></trkpt><trkpt lat="38.0218934" lon="-0.1045406"><ele>0.0</ele><time>2026-04-29T16:11:52.064Z</time></trkpt><trkpt lat="38.0219592" lon="-0.1044736"><ele>0.0</ele><time>2026-04-29T16:11:53.064Z</time></trkpt><trkpt lat="38.0220298" lon="-0.1044025"><ele>0.0</ele><time>2026-04-29T16:11:54.064Z</time></trkpt><trkpt lat="38.0221012" lon="-0.1043578"><ele>0.0</ele><time>2026-04-29T16:11:55.065Z</time></trkpt><trkpt lat="38.0221725" lon="-0.1042888"><ele>0.0</ele><time>2026-04-29T16:11:56.064Z</time></trkpt><trkpt lat="38.0222361" lon="-0.104214"><ele>0.0</ele><time>2026-04-29T16:11:57.064Z</time></trkpt><trkpt lat="38.0223074" lon="-0.1041442"><ele>0.0</ele><time>2026-04-29T16:11:58.064Z</time></trkpt><trkpt lat="38.0223692" lon="-0.1041225"><ele>0.0</ele><time>2026-04-29T16:12:00.17Z</time></trkpt><trkpt lat="38.0225993" lon="-0.1039245"><ele>0.0</ele><time>2026-04-29T16:12:02.064Z</time></trkpt><trkpt lat="38.0227489" lon="-0.1038566"><ele>0.0</ele><time>2026-04-29T16:12:04.064Z</time></trkpt><trkpt lat="38.0228979" lon="-0.1037522"><ele>0.0</ele><time>2026-04-29T16:12:06.064Z</time></trkpt><trkpt lat="38.0229742" lon="-0.1037191"><ele>0.0</ele><time>2026-04-29T16:12:07.064Z</time></trkpt><trkpt lat="38.0231263" lon="-0.1036192"><ele>0.0</ele><time>2026-04-29T16:12:09.064Z</time></trkpt><trkpt lat="38.0231999" lon="-0.1035842"><ele>0.0</ele><time>2026-04-29T16:12:10.064Z</time></trkpt><trkpt lat="38.0232759" lon="-0.1035257"><ele>0.0</ele><time>2026-04-29T16:12:11.064Z</time></trkpt><trkpt lat="38.0233497" lon="-0.1034592"><ele>0.0</ele><time>2026-04-29T16:12:12.065Z</time></trkpt><trkpt lat="38.0234203" lon="-0.1033825"><ele>0.0</ele><time>2026-04-29T16:12:13.065Z</time></trkpt><trkpt lat="38.0235626" lon="-0.1032613"><ele>0.0</ele><time>2026-04-29T16:12:15.065Z</time></trkpt><trkpt lat="38.0236338" lon="-0.1031961"><ele>0.0</ele><time>2026-04-29T16:12:16.065Z</time></trkpt><trkpt lat="38.0237086" lon="-0.1031215"><ele>0.0</ele><time>2026-04-29T16:12:17.065Z</time></trkpt><trkpt lat="38.0237793" lon="-0.1030443"><ele>0.0</ele><time>2026-04-29T16:12:18.065Z</time></trkpt><trkpt lat="38.0238475" lon="-0.1029537"><ele>0.0</ele><time>2026-04-29T16:12:19.064Z</time></trkpt><trkpt lat="38.0239932" lon="-0.1028258"><ele>0.0</ele><time>2026-04-29T16:12:21.064Z</time></trkpt><trkpt lat="38.0240607" lon="-0.1027488"><ele>0.0</ele><time>2026-04-29T16:12:22.065Z</time></trkpt><trkpt lat="38.0241255" lon="-0.1026729"><ele>0.0</ele><time>2026-04-29T16:12:23.064Z</time></trkpt><trkpt lat="38.0241862" lon="-0.1026062"><ele>0.0</ele><time>2026-04-29T16:12:24.063Z</time></trkpt><trkpt lat="38.0242533" lon="-0.1025356"><ele>0.0</ele><time>2026-04-29T16:12:25.063Z</time></trkpt><trkpt lat="38.0244134" lon="-0.1024293"><ele>0.0</ele><time>2026-04-29T16:12:27.063Z</time></trkpt><trkpt lat="38.0244818" lon="-0.1023639"><ele>0.0</ele><time>2026-04-29T16:12:28.063Z</time></trkpt><trkpt lat="38.0245507" lon="-0.102301"><ele>0.0</ele><time>2026-04-29T16:12:29.063Z</time></trkpt><trkpt lat="38.0246229" lon="-0.1022415"><ele>0.0</ele><time>2026-04-29T16:12:30.063Z</time></trkpt><trkpt lat="38.0246965" lon="-0.1021781"><ele>0.0</ele><time>2026-04-29T16:12:31.064Z</time></trkpt><trkpt lat="38.0247726" lon="-0.1021202"><ele>0.0</ele><time>2026-04-29T16:12:32.063Z</time></trkpt><trkpt lat="38.0248419" lon="-0.1020589"><ele>0.0</ele><time>2026-04-29T16:12:33.064Z</time></trkpt><trkpt lat="38.0249115" lon="-0.1019951"><ele>0.0</ele><time>2026-04-29T16:12:34.063Z</time></trkpt><trkpt lat="38.0249917" lon="-0.1019302"><ele>0.0</ele><time>2026-04-29T16:12:35.063Z</time></trkpt><trkpt lat="38.0250691" lon="-0.101879"><ele>0.0</ele><time>2026-04-29T16:12:36.063Z</time></trkpt><trkpt lat="38.025292" lon="-0.1016866"><ele>0.0</ele><time>2026-04-29T16:12:39.063Z</time></trkpt><trkpt lat="38.0253576" lon="-0.101621"><ele>0.0</ele><time>2026-04-29T16:12:40.063Z</time></trkpt><trkpt lat="38.0254282" lon="-0.1015688"><ele>0.0</ele><time>2026-04-29T16:12:41.064Z</time></trkpt><trkpt lat="38.0255002" lon="-0.1015076"><ele>0.0</ele><time>2026-04-29T16:12:42.064Z</time></trkpt><trkpt lat="38.0255747" lon="-0.1014743"><ele>0.0</ele><time>2026-04-29T16:12:43.063Z</time></trkpt><trkpt lat="38.0256479" lon="-0.1014342"><ele>0.0</ele><time>2026-04-29T16:12:44.063Z</time></trkpt><trkpt lat="38.025717" lon="-0.1013815"><ele>0.0</ele><time>2026-04-29T16:12:45.063Z</time></trkpt><trkpt lat="38.0257812" lon="-0.1012899"><ele>0.0</ele><time>2026-04-29T16:12:46.063Z</time></trkpt><trkpt lat="38.0259998" lon="-0.1010861"><ele>0.0</ele><time>2026-04-29T16:12:49.064Z</time></trkpt><trkpt lat="38.0260758" lon="-0.1010312"><ele>0.0</ele><time>2026-04-29T16:12:50.064Z</time></trkpt><trkpt lat="38.0261514" lon="-0.1010078"><ele>0.0</ele><time>2026-04-29T16:12:51.064Z</time></trkpt><trkpt lat="38.0262274" lon="-0.1009612"><ele>0.0</ele><time>2026-04-29T16:12:52.063Z</time></trkpt><trkpt lat="38.0263002" lon="-0.1009211"><ele>0.0</ele><time>2026-04-29T16:12:53.063Z</time></trkpt><trkpt lat="38.0263658" lon="-0.1008527"><ele>0.0</ele><time>2026-04-29T16:12:54.064Z</time></trkpt><trkpt lat="38.0264316" lon="-0.1007939"><ele>0.0</ele><time>2026-04-29T16:12:55.063Z</time></trkpt><trkpt lat="38.0265011" lon="-0.100726"><ele>0.0</ele><time>2026-04-29T16:12:56.063Z</time></trkpt><trkpt lat="38.0265771" lon="-0.100703"><ele>0.0</ele><time>2026-04-29T16:12:57.064Z</time></trkpt><trkpt lat="38.0266525" lon="-0.1006748"><ele>0.0</ele><time>2026-04-29T16:12:58.063Z</time></trkpt><trkpt lat="38.0267221" lon="-0.1006283"><ele>0.0</ele><time>2026-04-29T16:12:59.064Z</time></trkpt><trkpt lat="38.026793" lon="-0.1005873"><ele>0.0</ele><time>2026-04-29T16:13:00.063Z</time></trkpt><trkpt lat="38.0268706" lon="-0.1005266"><ele>0.0</ele><time>2026-04-29T16:13:01.064Z</time></trkpt><trkpt lat="38.0269373" lon="-0.1004594"><ele>0.0</ele><time>2026-04-29T16:13:02.064Z</time></trkpt><trkpt lat="38.0270082" lon="-0.100402"><ele>0.0</ele><time>2026-04-29T16:13:03.064Z</time></trkpt><trkpt lat="38.0270785" lon="-0.1003423"><ele>0.0</ele><time>2026-04-29T16:13:04.064Z</time></trkpt><trkpt lat="38.0271879" lon="-0.1003288"><ele>0.0</ele><time>2026-04-29T16:13:07.086Z</time></trkpt><trkpt lat="38.0274525" lon="-0.1000624"><ele>0.0</ele><time>2026-04-29T16:13:09.098Z</time></trkpt><trkpt lat="38.0275911" lon="-0.099934"><ele>0.0</ele><time>2026-04-29T16:13:11.063Z</time></trkpt><trkpt lat="38.0276603" lon="-0.0998671"><ele>0.0</ele><time>2026-04-29T16:13:12.063Z</time></trkpt><trkpt lat="38.0277366" lon="-0.0997993"><ele>0.0</ele><time>2026-04-29T16:13:13.063Z</time></trkpt><trkpt lat="38.027807" lon="-0.0997347"><ele>0.0</ele><time>2026-04-29T16:13:14.063Z</time></trkpt><trkpt lat="38.0278754" lon="-0.0996829"><ele>0.0</ele><time>2026-04-29T16:13:15.064Z</time></trkpt><trkpt lat="38.0279465" lon="-0.0996342"><ele>0.0</ele><time>2026-04-29T16:13:16.063Z</time></trkpt><trkpt lat="38.0280207" lon="-0.0995678"><ele>0.0</ele><time>2026-04-29T16:13:17.064Z</time></trkpt><trkpt lat="38.0280947" lon="-0.0994934"><ele>0.0</ele><time>2026-04-29T16:13:18.064Z</time></trkpt><trkpt lat="38.0282383" lon="-0.0993406"><ele>0.0</ele><time>2026-04-29T16:13:20.063Z</time></trkpt><trkpt lat="38.0283012" lon="-0.0992646"><ele>0.0</ele><time>2026-04-29T16:13:21.063Z</time></trkpt><trkpt lat="38.028371" lon="-0.0992088"><ele>0.0</ele><time>2026-04-29T16:13:22.064Z</time></trkpt><trkpt lat="38.0284401" lon="-0.0991402"><ele>0.0</ele><time>2026-04-29T16:13:23.063Z</time></trkpt><trkpt lat="38.0285116" lon="-0.0990696"><ele>0.0</ele><time>2026-04-29T16:13:24.063Z</time></trkpt><trkpt lat="38.0285859" lon="-0.0990008"><ele>0.0</ele><time>2026-04-29T16:13:25.064Z</time></trkpt><trkpt lat="38.0286553" lon="-0.0989311"><ele>0.0</ele><time>2026-04-29T16:13:26.063Z</time></trkpt><trkpt lat="38.0287268" lon="-0.0988628"><ele>0.0</ele><time>2026-04-29T16:13:27.063Z</time></trkpt><trkpt lat="38.0288709" lon="-0.0987572"><ele>0.0</ele><time>2026-04-29T16:13:29.064Z</time></trkpt><trkpt lat="38.0289483" lon="-0.0986977"><ele>0.0</ele><time>2026-04-29T16:13:30.064Z</time></trkpt><trkpt lat="38.029017" lon="-0.09863"><ele>0.0</ele><time>2026-04-29T16:13:31.064Z</time></trkpt><trkpt lat="38.0290765" lon="-0.0985636"><ele>0.0</ele><time>2026-04-29T16:13:32.063Z</time></trkpt><trkpt lat="38.0291429" lon="-0.0984947"><ele>0.0</ele><time>2026-04-29T16:13:33.063Z</time></trkpt><trkpt lat="38.0292191" lon="-0.0984387"><ele>0.0</ele><time>2026-04-29T16:13:34.064Z</time></trkpt><trkpt lat="38.029292" lon="-0.0983717"><ele>0.0</ele><time>2026-04-29T16:13:35.064Z</time></trkpt><trkpt lat="38.0293531" lon="-0.0982917"><ele>0.0</ele><time>2026-04-29T16:13:36.064Z</time></trkpt><trkpt lat="38.0294128" lon="-0.0982231"><ele>0.0</ele><time>2026-04-29T16:13:37.063Z</time></trkpt><trkpt lat="38.0294781" lon="-0.0981561"><ele>0.0</ele><time>2026-04-29T16:13:38.063Z</time></trkpt><trkpt lat="38.029542" lon="-0.0980908"><ele>0.0</ele><time>2026-04-29T16:13:39.064Z</time></trkpt><trkpt lat="38.0296113" lon="-0.0980013"><ele>0.0</ele><time>2026-04-29T16:13:40.063Z</time></trkpt><trkpt lat="38.0296778" lon="-0.0979206"><ele>0.0</ele><time>2026-04-29T16:13:41.063Z</time></trkpt><trkpt lat="38.0297382" lon="-0.0978437"><ele>0.0</ele><time>2026-04-29T16:13:42.064Z</time></trkpt><trkpt lat="38.0299342" lon="-0.0976387"><ele>0.0</ele><time>2026-04-29T16:13:45.063Z</time></trkpt><trkpt lat="38.0300075" lon="-0.0975775"><ele>0.0</ele><time>2026-04-29T16:13:46.064Z</time></trkpt><trkpt lat="38.0300778" lon="-0.0975093"><ele>0.0</ele><time>2026-04-29T16:13:47.063Z</time></trkpt><trkpt lat="38.030154" lon="-0.0974435"><ele>0.0</ele><time>2026-04-29T16:13:48.064Z</time></trkpt><trkpt lat="38.0303612" lon="-0.0972259"><ele>0.0</ele><time>2026-04-29T16:13:51.063Z</time></trkpt><trkpt lat="38.0304241" lon="-0.09714"><ele>0.0</ele><time>2026-04-29T16:13:52.063Z</time></trkpt><trkpt lat="38.0304957" lon="-0.0970801"><ele>0.0</ele><time>2026-04-29T16:13:53.064Z</time></trkpt><trkpt lat="38.0306361" lon="-0.0969213"><ele>0.0</ele><time>2026-04-29T16:13:55.064Z</time></trkpt><trkpt lat="38.0307105" lon="-0.096875"><ele>0.0</ele><time>2026-04-29T16:13:56.063Z</time></trkpt><trkpt lat="38.0308188" lon="-0.0967265"><ele>0.0</ele><time>2026-04-29T16:13:59.179Z</time></trkpt><trkpt lat="38.030938" lon="-0.0965995"><ele>0.0</ele><time>2026-04-29T16:14:00.186Z</time></trkpt><trkpt lat="38.0310381" lon="-0.0965444"><ele>0.0</ele><time>2026-04-29T16:14:01.09Z</time></trkpt><trkpt lat="38.0311381" lon="-0.0964957"><ele>0.0</ele><time>2026-04-29T16:14:02.063Z</time></trkpt><trkpt lat="38.0312092" lon="-0.0964294"><ele>0.0</ele><time>2026-04-29T16:14:03.063Z</time></trkpt><trkpt lat="38.0312787" lon="-0.0963626"><ele>0.0</ele><time>2026-04-29T16:14:04.063Z</time></trkpt><trkpt lat="38.0313485" lon="-0.0963081"><ele>0.0</ele><time>2026-04-29T16:14:05.063Z</time></trkpt><trkpt lat="38.031417" lon="-0.0962363"><ele>0.0</ele><time>2026-04-29T16:14:06.063Z</time></trkpt><trkpt lat="38.0314938" lon="-0.096166"><ele>0.0</ele><time>2026-04-29T16:14:07.063Z</time></trkpt><trkpt lat="38.0315635" lon="-0.096086"><ele>0.0</ele><time>2026-04-29T16:14:08.064Z</time></trkpt><trkpt lat="38.0316377" lon="-0.0960392"><ele>0.0</ele><time>2026-04-29T16:14:09.064Z</time></trkpt><trkpt lat="38.0317103" lon="-0.0959712"><ele>0.0</ele><time>2026-04-29T16:14:10.063Z</time></trkpt><trkpt lat="38.0318699" lon="-0.0958593"><ele>0.0</ele><time>2026-04-29T16:14:12.063Z</time></trkpt><trkpt lat="38.0319421" lon="-0.0957858"><ele>0.0</ele><time>2026-04-29T16:14:13.063Z</time></trkpt><trkpt lat="38.0320079" lon="-0.0957118"><ele>0.0</ele><time>2026-04-29T16:14:14.063Z</time></trkpt><trkpt lat="38.032074" lon="-0.0956433"><ele>0.0</ele><time>2026-04-29T16:14:15.064Z</time></trkpt><trkpt lat="38.032204" lon="-0.09552"><ele>0.0</ele><time>2026-04-29T16:14:17.064Z</time></trkpt><trkpt lat="38.0322686" lon="-0.0954478"><ele>0.0</ele><time>2026-04-29T16:14:18.064Z</time></trkpt><trkpt lat="38.0323367" lon="-0.0953714"><ele>0.0</ele><time>2026-04-29T16:14:19.063Z</time></trkpt><trkpt lat="38.0324118" lon="-0.0952984"><ele>0.0</ele><time>2026-04-29T16:14:20.064Z</time></trkpt><trkpt lat="38.0324787" lon="-0.0952264"><ele>0.0</ele><time>2026-04-29T16:14:21.063Z</time></trkpt><trkpt lat="38.0325494" lon="-0.0951476"><ele>0.0</ele><time>2026-04-29T16:14:22.063Z</time></trkpt><trkpt lat="38.0326268" lon="-0.0950874"><ele>0.0</ele><time>2026-04-29T16:14:23.063Z</time></trkpt><trkpt lat="38.032701" lon="-0.0950256"><ele>0.0</ele><time>2026-04-29T16:14:24.063Z</time></trkpt><trkpt lat="38.0327784" lon="-0.0949808"><ele>0.0</ele><time>2026-04-29T16:14:25.063Z</time></trkpt><trkpt lat="38.032847" lon="-0.0949218"><ele>0.0</ele><time>2026-04-29T16:14:26.063Z</time></trkpt><trkpt lat="38.032915" lon="-0.0948532"><ele>0.0</ele><time>2026-04-29T16:14:27.063Z</time></trkpt><trkpt lat="38.0329893" lon="-0.0948158"><ele>0.0</ele><time>2026-04-29T16:14:28.063Z</time></trkpt><trkpt lat="38.0330637" lon="-0.09478"><ele>0.0</ele><time>2026-04-29T16:14:29.064Z</time></trkpt><trkpt lat="38.0331244" lon="-0.0947212"><ele>0.0</ele><time>2026-04-29T16:14:30.064Z</time></trkpt><trkpt lat="38.0332586" lon="-0.0945843"><ele>0.0</ele><time>2026-04-29T16:14:32.064Z</time></trkpt><trkpt lat="38.0332742" lon="-0.0944509"><ele>0.0</ele><time>2026-04-29T16:14:35.164Z</time></trkpt><trkpt lat="38.0335191" lon="-0.0943495"><ele>0.0</ele><time>2026-04-29T16:14:36.171Z</time></trkpt><trkpt lat="38.0336283" lon="-0.0942881"><ele>0.0</ele><time>2026-04-29T16:14:37.176Z</time></trkpt><trkpt lat="38.033797" lon="-0.0941676"><ele>0.0</ele><time>2026-04-29T16:14:39.088Z</time></trkpt><trkpt lat="38.0338707" lon="-0.0940832"><ele>0.0</ele><time>2026-04-29T16:14:40.093Z</time></trkpt><trkpt lat="38.033933" lon="-0.0939975"><ele>0.0</ele><time>2026-04-29T16:14:41.1Z</time></trkpt><trkpt lat="38.0340446" lon="-0.0939256"><ele>0.0</ele><time>2026-04-29T16:14:43.063Z</time></trkpt><trkpt lat="38.0341555" lon="-0.0937757"><ele>0.0</ele><time>2026-04-29T16:14:45.124Z</time></trkpt><trkpt lat="38.0342258" lon="-0.0937056"><ele>0.0</ele><time>2026-04-29T16:14:46.129Z</time></trkpt><trkpt lat="38.0343102" lon="-0.0936598"><ele>0.0</ele><time>2026-04-29T16:14:47.135Z</time></trkpt><trkpt lat="38.0344603" lon="-0.0935291"><ele>0.0</ele><time>2026-04-29T16:14:49.147Z</time></trkpt><trkpt lat="38.0345367" lon="-0.0934514"><ele>0.0</ele><time>2026-04-29T16:14:50.154Z</time></trkpt><trkpt lat="38.0346335" lon="-0.0933986"><ele>0.0</ele><time>2026-04-29T16:14:51.16Z</time></trkpt><trkpt lat="38.0348322" lon="-0.093228"><ele>0.0</ele><time>2026-04-29T16:14:54.064Z</time></trkpt><trkpt lat="38.034894" lon="-0.0931711"><ele>0.0</ele><time>2026-04-29T16:14:55.063Z</time></trkpt><trkpt lat="38.0349582" lon="-0.0931064"><ele>0.0</ele><time>2026-04-29T16:14:56.064Z</time></trkpt><trkpt lat="38.0350403" lon="-0.0930802"><ele>0.0</ele><time>2026-04-29T16:14:57.064Z</time></trkpt><trkpt lat="38.0351138" lon="-0.0930156"><ele>0.0</ele><time>2026-04-29T16:14:58.064Z</time></trkpt><trkpt lat="38.0351934" lon="-0.0929631"><ele>0.0</ele><time>2026-04-29T16:14:59.063Z</time></trkpt><trkpt lat="38.0352633" lon="-0.0928867"><ele>0.0</ele><time>2026-04-29T16:15:00.063Z</time></trkpt><trkpt lat="38.0353401" lon="-0.0928415"><ele>0.0</ele><time>2026-04-29T16:15:01.063Z</time></trkpt><trkpt lat="38.0354145" lon="-0.0927758"><ele>0.0</ele><time>2026-04-29T16:15:02.063Z</time></trkpt><trkpt lat="38.0354878" lon="-0.0927055"><ele>0.0</ele><time>2026-04-29T16:15:03.064Z</time></trkpt><trkpt lat="38.035634" lon="-0.0925923"><ele>0.0</ele><time>2026-04-29T16:15:05.063Z</time></trkpt><trkpt lat="38.0357042" lon="-0.0925289"><ele>0.0</ele><time>2026-04-29T16:15:06.063Z</time></trkpt><trkpt lat="38.0357672" lon="-0.0924612"><ele>0.0</ele><time>2026-04-29T16:15:07.063Z</time></trkpt><trkpt lat="38.0359201" lon="-0.0923629"><ele>0.0</ele><time>2026-04-29T16:15:09.063Z</time></trkpt><trkpt lat="38.0359888" lon="-0.0923095"><ele>0.0</ele><time>2026-04-29T16:15:10.064Z</time></trkpt><trkpt lat="38.0360588" lon="-0.0922497"><ele>0.0</ele><time>2026-04-29T16:15:11.064Z</time></trkpt><trkpt lat="38.0361246" lon="-0.0921807"><ele>0.0</ele><time>2026-04-29T16:15:12.064Z</time></trkpt><trkpt lat="38.0362579" lon="-0.0920375"><ele>0.0</ele><time>2026-04-29T16:15:14.064Z</time></trkpt><trkpt lat="38.0363189" lon="-0.0919757"><ele>0.0</ele><time>2026-04-29T16:15:15.064Z</time></trkpt><trkpt lat="38.0363968" lon="-0.0919493"><ele>0.0</ele><time>2026-04-29T16:15:16.063Z</time></trkpt><trkpt lat="38.0364622" lon="-0.091881"><ele>0.0</ele><time>2026-04-29T16:15:17.064Z</time></trkpt><trkpt lat="38.0365299" lon="-0.0918156"><ele>0.0</ele><time>2026-04-29T16:15:18.063Z</time></trkpt><trkpt lat="38.0366012" lon="-0.0917567"><ele>0.0</ele><time>2026-04-29T16:15:19.063Z</time></trkpt><trkpt lat="38.03674" lon="-0.0916387"><ele>0.0</ele><time>2026-04-29T16:15:21.063Z</time></trkpt><trkpt lat="38.0368214" lon="-0.0915549"><ele>0.0</ele><time>2026-04-29T16:15:23.18Z</time></trkpt><trkpt lat="38.0368777" lon="-0.0915031"><ele>0.0</ele><time>2026-04-29T16:15:24.086Z</time></trkpt><trkpt lat="38.0369234" lon="-0.091433"><ele>0.0</ele><time>2026-04-29T16:15:25.092Z</time></trkpt><trkpt lat="38.0370524" lon="-0.0913442"><ele>0.0</ele><time>2026-04-29T16:15:26.097Z</time></trkpt><trkpt lat="38.03715" lon="-0.0912666"><ele>0.0</ele><time>2026-04-29T16:15:27.103Z</time></trkpt><trkpt lat="38.037232" lon="-0.0911995"><ele>0.0</ele><time>2026-04-29T16:15:28.11Z</time></trkpt><trkpt lat="38.037308" lon="-0.0911201"><ele>0.0</ele><time>2026-04-29T16:15:29.115Z</time></trkpt><trkpt lat="38.0374818" lon="-0.0909998"><ele>0.0</ele><time>2026-04-29T16:15:31.126Z</time></trkpt><trkpt lat="38.03758" lon="-0.0910017"><ele>0.0</ele><time>2026-04-29T16:15:32.132Z</time></trkpt><trkpt lat="38.0376628" lon="-0.0909582"><ele>0.0</ele><time>2026-04-29T16:15:33.138Z</time></trkpt><trkpt lat="38.0378087" lon="-0.0907917"><ele>0.0</ele><time>2026-04-29T16:15:35.15Z</time></trkpt><trkpt lat="38.0378924" lon="-0.0907257"><ele>0.0</ele><time>2026-04-29T16:15:36.156Z</time></trkpt><trkpt lat="38.0379651" lon="-0.090593"><ele>0.0</ele><time>2026-04-29T16:15:38.169Z</time></trkpt><trkpt lat="38.0380508" lon="-0.0905547"><ele>0.0</ele><time>2026-04-29T16:15:39.073Z</time></trkpt><trkpt lat="38.0381344" lon="-0.0905227"><ele>0.0</ele><time>2026-04-29T16:15:40.079Z</time></trkpt><trkpt lat="38.038207" lon="-0.0904447"><ele>0.0</ele><time>2026-04-29T16:15:41.086Z</time></trkpt><trkpt lat="38.0382732" lon="-0.0903666"><ele>0.0</ele><time>2026-04-29T16:15:42.092Z</time></trkpt><trkpt lat="38.0383427" lon="-0.090297"><ele>0.0</ele><time>2026-04-29T16:15:43.098Z</time></trkpt><trkpt lat="38.0384219" lon="-0.0902387"><ele>0.0</ele><time>2026-04-29T16:15:44.103Z</time></trkpt><trkpt lat="38.0384968" lon="-0.0901805"><ele>0.0</ele><time>2026-04-29T16:15:45.109Z</time></trkpt><trkpt lat="38.0385624" lon="-0.0901059"><ele>0.0</ele><time>2026-04-29T16:15:46.115Z</time></trkpt><trkpt lat="38.0386292" lon="-0.0900271"><ele>0.0</ele><time>2026-04-29T16:15:47.122Z</time></trkpt><trkpt lat="38.0386963" lon="-0.0899488"><ele>0.0</ele><time>2026-04-29T16:15:48.128Z</time></trkpt><trkpt lat="38.0388535" lon="-0.0898266"><ele>0.0</ele><time>2026-04-29T16:15:51.145Z</time></trkpt><trkpt lat="38.0389372" lon="-0.0897689"><ele>0.0</ele><time>2026-04-29T16:15:52.151Z</time></trkpt><trkpt lat="38.0391572" lon="-0.0895929"><ele>0.0</ele><time>2026-04-29T16:15:55.064Z</time></trkpt><trkpt lat="38.0393033" lon="-0.0894862"><ele>0.0</ele><time>2026-04-29T16:15:57.063Z</time></trkpt><trkpt lat="38.0393776" lon="-0.0894223"><ele>0.0</ele><time>2026-04-29T16:15:58.063Z</time></trkpt><trkpt lat="38.0394558" lon="-0.0893628"><ele>0.0</ele><time>2026-04-29T16:15:59.064Z</time></trkpt><trkpt lat="38.0395328" lon="-0.0893044"><ele>0.0</ele><time>2026-04-29T16:16:00.063Z</time></trkpt><trkpt lat="38.0396053" lon="-0.0892447"><ele>0.0</ele><time>2026-04-29T16:16:01.063Z</time></trkpt><trkpt lat="38.0396772" lon="-0.0891824"><ele>0.0</ele><time>2026-04-29T16:16:02.063Z</time></trkpt><trkpt lat="38.0397428" lon="-0.0891193"><ele>0.0</ele><time>2026-04-29T16:16:03.063Z</time></trkpt><trkpt lat="38.03981" lon="-0.0890559"><ele>0.0</ele><time>2026-04-29T16:16:04.064Z</time></trkpt><trkpt lat="38.0398842" lon="-0.08899"><ele>0.0</ele><time>2026-04-29T16:16:05.063Z</time></trkpt><trkpt lat="38.0399523" lon="-0.0889186"><ele>0.0</ele><time>2026-04-29T16:16:06.064Z</time></trkpt><trkpt lat="38.0400244" lon="-0.088858"><ele>0.0</ele><time>2026-04-29T16:16:07.063Z</time></trkpt><trkpt lat="38.040105" lon="-0.0887867"><ele>0.0</ele><time>2026-04-29T16:16:08.063Z</time></trkpt><trkpt lat="38.0401826" lon="-0.0887167"><ele>0.0</ele><time>2026-04-29T16:16:09.063Z</time></trkpt><trkpt lat="38.0402582" lon="-0.0886414"><ele>0.0</ele><time>2026-04-29T16:16:10.064Z</time></trkpt><trkpt lat="38.0403347" lon="-0.088569"><ele>0.0</ele><time>2026-04-29T16:16:11.064Z</time></trkpt><trkpt lat="38.0404071" lon="-0.0885"><ele>0.0</ele><time>2026-04-29T16:16:12.064Z</time></trkpt><trkpt lat="38.0404815" lon="-0.0884276"><ele>0.0</ele><time>2026-04-29T16:16:13.064Z</time></trkpt><trkpt lat="38.0405552" lon="-0.0883558"><ele>0.0</ele><time>2026-04-29T16:16:14.063Z</time></trkpt><trkpt lat="38.040634" lon="-0.0882913"><ele>0.0</ele><time>2026-04-29T16:16:15.062Z</time></trkpt><trkpt lat="38.0407883" lon="-0.0881788"><ele>0.0</ele><time>2026-04-29T16:16:17.063Z</time></trkpt><trkpt lat="38.0408647" lon="-0.0881253"><ele>0.0</ele><time>2026-04-29T16:16:18.062Z</time></trkpt><trkpt lat="38.0409367" lon="-0.0880805"><ele>0.0</ele><time>2026-04-29T16:16:20.078Z</time></trkpt><trkpt lat="38.0410273" lon="-0.0879233"><ele>0.0</ele><time>2026-04-29T16:16:21.084Z</time></trkpt><trkpt lat="38.0411459" lon="-0.0878707"><ele>0.0</ele><time>2026-04-29T16:16:22.063Z</time></trkpt><trkpt lat="38.0412263" lon="-0.087804"><ele>0.0</ele><time>2026-04-29T16:16:23.062Z</time></trkpt><trkpt lat="38.0412993" lon="-0.0877415"><ele>0.0</ele><time>2026-04-29T16:16:24.063Z</time></trkpt><trkpt lat="38.0413681" lon="-0.0876732"><ele>0.0</ele><time>2026-04-29T16:16:25.063Z</time></trkpt><trkpt lat="38.0415086" lon="-0.0875407"><ele>0.0</ele><time>2026-04-29T16:16:27.063Z</time></trkpt><trkpt lat="38.0415757" lon="-0.0874753"><ele>0.0</ele><time>2026-04-29T16:16:28.062Z</time></trkpt><trkpt lat="38.0416365" lon="-0.0874062"><ele>0.0</ele><time>2026-04-29T16:16:29.062Z</time></trkpt><trkpt lat="38.0417036" lon="-0.0873436"><ele>0.0</ele><time>2026-04-29T16:16:30.063Z</time></trkpt><trkpt lat="38.0417647" lon="-0.0872846"><ele>0.0</ele><time>2026-04-29T16:16:31.063Z</time></trkpt><trkpt lat="38.0418332" lon="-0.0872325"><ele>0.0</ele><time>2026-04-29T16:16:32.063Z</time></trkpt><trkpt lat="38.0418903" lon="-0.0871794"><ele>0.0</ele><time>2026-04-29T16:16:33.063Z</time></trkpt><trkpt lat="38.041945" lon="-0.0871195"><ele>0.0</ele><time>2026-04-29T16:16:34.062Z</time></trkpt><trkpt lat="38.042017" lon="-0.0870472"><ele>0.0</ele><time>2026-04-29T16:16:35.062Z</time></trkpt><trkpt lat="38.0420875" lon="-0.0869697"><ele>0.0</ele><time>2026-04-29T16:16:36.063Z</time></trkpt><trkpt lat="38.0422569" lon="-0.086943"><ele>0.0</ele><time>2026-04-29T16:16:38.062Z</time></trkpt><trkpt lat="38.0423399" lon="-0.086893"><ele>0.0</ele><time>2026-04-29T16:16:39.063Z</time></trkpt><trkpt lat="38.0424162" lon="-0.0868286"><ele>0.0</ele><time>2026-04-29T16:16:40.062Z</time></trkpt><trkpt lat="38.0424981" lon="-0.0867615"><ele>0.0</ele><time>2026-04-29T16:16:41.063Z</time></trkpt><trkpt lat="38.0425699" lon="-0.0866987"><ele>0.0</ele><time>2026-04-29T16:16:42.063Z</time></trkpt><trkpt lat="38.0426401" lon="-0.0866397"><ele>0.0</ele><time>2026-04-29T16:16:43.062Z</time></trkpt><trkpt lat="38.042723" lon="-0.0866141"><ele>0.0</ele><time>2026-04-29T16:16:44.062Z</time></trkpt><trkpt lat="38.0428077" lon="-0.0866176"><ele>0.0</ele><time>2026-04-29T16:16:45.062Z</time></trkpt><trkpt lat="38.0428759" lon="-0.0865621"><ele>0.0</ele><time>2026-04-29T16:16:46.063Z</time></trkpt><trkpt lat="38.0429493" lon="-0.0865302"><ele>0.0</ele><time>2026-04-29T16:16:47.063Z</time></trkpt><trkpt lat="38.0430095" lon="-0.08647"><ele>0.0</ele><time>2026-04-29T16:16:48.062Z</time></trkpt><trkpt lat="38.0430727" lon="-0.0864061"><ele>0.0</ele><time>2026-04-29T16:16:49.063Z</time></trkpt><trkpt lat="38.0431418" lon="-0.0863582"><ele>0.0</ele><time>2026-04-29T16:16:50.062Z</time></trkpt><trkpt lat="38.0432109" lon="-0.0862947"><ele>0.0</ele><time>2026-04-29T16:16:51.063Z</time></trkpt><trkpt lat="38.0432764" lon="-0.0861937"><ele>0.0</ele><time>2026-04-29T16:16:52.062Z</time></trkpt><trkpt lat="38.0433442" lon="-0.0861069"><ele>0.0</ele><time>2026-04-29T16:16:53.062Z</time></trkpt><trkpt lat="38.043408" lon="-0.0860333"><ele>0.0</ele><time>2026-04-29T16:16:54.062Z</time></trkpt><trkpt lat="38.0434707" lon="-0.0859664"><ele>0.0</ele><time>2026-04-29T16:16:55.062Z</time></trkpt><trkpt lat="38.0435422" lon="-0.0859004"><ele>0.0</ele><time>2026-04-29T16:16:56.062Z</time></trkpt><trkpt lat="38.0436171" lon="-0.0858362"><ele>0.0</ele><time>2026-04-29T16:16:57.062Z</time></trkpt><trkpt lat="38.0436898" lon="-0.0857658"><ele>0.0</ele><time>2026-04-29T16:16:58.062Z</time></trkpt><trkpt lat="38.0437663" lon="-0.0857025"><ele>0.0</ele><time>2026-04-29T16:16:59.062Z</time></trkpt><trkpt lat="38.0438985" lon="-0.0855794"><ele>0.0</ele><time>2026-04-29T16:17:01.062Z</time></trkpt><trkpt lat="38.0439649" lon="-0.0855078"><ele>0.0</ele><time>2026-04-29T16:17:02.062Z</time></trkpt><trkpt lat="38.044027" lon="-0.0854372"><ele>0.0</ele><time>2026-04-29T16:17:03.063Z</time></trkpt><trkpt lat="38.044094" lon="-0.085364"><ele>0.0</ele><time>2026-04-29T16:17:04.062Z</time></trkpt><trkpt lat="38.0441595" lon="-0.0852949"><ele>0.0</ele><time>2026-04-29T16:17:05.062Z</time></trkpt><trkpt lat="38.0442159" lon="-0.0852221"><ele>0.0</ele><time>2026-04-29T16:17:06.062Z</time></trkpt><trkpt lat="38.0442887" lon="-0.0851943"><ele>0.0</ele><time>2026-04-29T16:17:07.062Z</time></trkpt><trkpt lat="38.0443537" lon="-0.0851341"><ele>0.0</ele><time>2026-04-29T16:17:08.063Z</time></trkpt><trkpt lat="38.044416" lon="-0.0850684"><ele>0.0</ele><time>2026-04-29T16:17:09.062Z</time></trkpt><trkpt lat="38.0444847" lon="-0.0849986"><ele>0.0</ele><time>2026-04-29T16:17:10.062Z</time></trkpt><trkpt lat="38.0445551" lon="-0.0849312"><ele>0.0</ele><time>2026-04-29T16:17:11.062Z</time></trkpt><trkpt lat="38.0446179" lon="-0.0848589"><ele>0.0</ele><time>2026-04-29T16:17:12.063Z</time></trkpt><trkpt lat="38.0446924" lon="-0.0847979"><ele>0.0</ele><time>2026-04-29T16:17:13.062Z</time></trkpt><trkpt lat="38.0447664" lon="-0.0847319"><ele>0.0</ele><time>2026-04-29T16:17:14.062Z</time></trkpt><trkpt lat="38.0448388" lon="-0.0846692"><ele>0.0</ele><time>2026-04-29T16:17:15.063Z</time></trkpt><trkpt lat="38.0449058" lon="-0.0846019"><ele>0.0</ele><time>2026-04-29T16:17:16.062Z</time></trkpt><trkpt lat="38.0449813" lon="-0.0845339"><ele>0.0</ele><time>2026-04-29T16:17:17.062Z</time></trkpt><trkpt lat="38.0450693" lon="-0.0844802"><ele>0.0</ele><time>2026-04-29T16:17:18.063Z</time></trkpt><trkpt lat="38.0451546" lon="-0.0844283"><ele>0.0</ele><time>2026-04-29T16:17:19.062Z</time></trkpt><trkpt lat="38.0452409" lon="-0.0843653"><ele>0.0</ele><time>2026-04-29T16:17:20.062Z</time></trkpt><trkpt lat="38.0453205" lon="-0.0842941"><ele>0.0</ele><time>2026-04-29T16:17:21.063Z</time></trkpt><trkpt lat="38.0454853" lon="-0.0841488"><ele>0.0</ele><time>2026-04-29T16:17:23.063Z</time></trkpt><trkpt lat="38.0455698" lon="-0.0840748"><ele>0.0</ele><time>2026-04-29T16:17:24.062Z</time></trkpt><trkpt lat="38.045651" lon="-0.0840123"><ele>0.0</ele><time>2026-04-29T16:17:25.063Z</time></trkpt><trkpt lat="38.0457269" lon="-0.083959"><ele>0.0</ele><time>2026-04-29T16:17:26.062Z</time></trkpt><trkpt lat="38.0458084" lon="-0.0839498"><ele>0.0</ele><time>2026-04-29T16:17:27.062Z</time></trkpt><trkpt lat="38.0458859" lon="-0.0838967"><ele>0.0</ele><time>2026-04-29T16:17:28.062Z</time></trkpt><trkpt lat="38.0459559" lon="-0.0838371"><ele>0.0</ele><time>2026-04-29T16:17:29.062Z</time></trkpt><trkpt lat="38.0460882" lon="-0.0837001"><ele>0.0</ele><time>2026-04-29T16:17:31.062Z</time></trkpt><trkpt lat="38.0461577" lon="-0.0836296"><ele>0.0</ele><time>2026-04-29T16:17:32.062Z</time></trkpt><trkpt lat="38.0462391" lon="-0.0836249"><ele>0.0</ele><time>2026-04-29T16:17:33.063Z</time></trkpt><trkpt lat="38.0463268" lon="-0.0836234"><ele>0.0</ele><time>2026-04-29T16:17:34.063Z</time></trkpt><trkpt lat="38.0464026" lon="-0.0835726"><ele>0.0</ele><time>2026-04-29T16:17:35.062Z</time></trkpt><trkpt lat="38.0464751" lon="-0.0835283"><ele>0.0</ele><time>2026-04-29T16:17:36.063Z</time></trkpt><trkpt lat="38.0465483" lon="-0.0834594"><ele>0.0</ele><time>2026-04-29T16:17:37.063Z</time></trkpt><trkpt lat="38.0466143" lon="-0.0833819"><ele>0.0</ele><time>2026-04-29T16:17:38.063Z</time></trkpt><trkpt lat="38.0466735" lon="-0.083303"><ele>0.0</ele><time>2026-04-29T16:17:39.062Z</time></trkpt><trkpt lat="38.0467462" lon="-0.0832388"><ele>0.0</ele><time>2026-04-29T16:17:40.063Z</time></trkpt><trkpt lat="38.0468143" lon="-0.0831647"><ele>0.0</ele><time>2026-04-29T16:17:41.062Z</time></trkpt><trkpt lat="38.0468869" lon="-0.0831024"><ele>0.0</ele><time>2026-04-29T16:17:42.062Z</time></trkpt><trkpt lat="38.0470458" lon="-0.0830056"><ele>0.0</ele><time>2026-04-29T16:17:44.062Z</time></trkpt><trkpt lat="38.0471171" lon="-0.0829379"><ele>0.0</ele><time>2026-04-29T16:17:45.062Z</time></trkpt><trkpt lat="38.0471746" lon="-0.0828625"><ele>0.0</ele><time>2026-04-29T16:17:46.063Z</time></trkpt><trkpt lat="38.0472359" lon="-0.0827769"><ele>0.0</ele><time>2026-04-29T16:17:47.062Z</time></trkpt><trkpt lat="38.0472932" lon="-0.0826887"><ele>0.0</ele><time>2026-04-29T16:17:48.063Z</time></trkpt><trkpt lat="38.0473541" lon="-0.0826114"><ele>0.0</ele><time>2026-04-29T16:17:49.063Z</time></trkpt><trkpt lat="38.0474167" lon="-0.082528"><ele>0.0</ele><time>2026-04-29T16:17:50.062Z</time></trkpt><trkpt lat="38.0474815" lon="-0.0824438"><ele>0.0</ele><time>2026-04-29T16:17:51.062Z</time></trkpt><trkpt lat="38.0475372" lon="-0.0823833"><ele>0.0</ele><time>2026-04-29T16:17:52.062Z</time></trkpt><trkpt lat="38.047605" lon="-0.0823324"><ele>0.0</ele><time>2026-04-29T16:17:53.062Z</time></trkpt><trkpt lat="38.0476694" lon="-0.0822854"><ele>0.0</ele><time>2026-04-29T16:17:54.062Z</time></trkpt><trkpt lat="38.047728" lon="-0.0822407"><ele>0.0</ele><time>2026-04-29T16:17:55.063Z</time></trkpt><trkpt lat="38.047795" lon="-0.082167"><ele>0.0</ele><time>2026-04-29T16:17:56.063Z</time></trkpt><trkpt lat="38.0478694" lon="-0.0821037"><ele>0.0</ele><time>2026-04-29T16:17:57.062Z</time></trkpt><trkpt lat="38.0479455" lon="-0.0820376"><ele>0.0</ele><time>2026-04-29T16:17:58.062Z</time></trkpt><trkpt lat="38.0480177" lon="-0.0819865"><ele>0.0</ele><time>2026-04-29T16:17:59.063Z</time></trkpt><trkpt lat="38.048088" lon="-0.0819317"><ele>0.0</ele><time>2026-04-29T16:18:00.062Z</time></trkpt><trkpt lat="38.0481579" lon="-0.0818701"><ele>0.0</ele><time>2026-04-29T16:18:01.062Z</time></trkpt><trkpt lat="38.0483018" lon="-0.0816947"><ele>0.0</ele><time>2026-04-29T16:18:03.063Z</time></trkpt><trkpt lat="38.048451" lon="-0.0816172"><ele>0.0</ele><time>2026-04-29T16:18:05.062Z</time></trkpt><trkpt lat="38.0485221" lon="-0.0815615"><ele>0.0</ele><time>2026-04-29T16:18:06.063Z</time></trkpt><trkpt lat="38.0485995" lon="-0.0815491"><ele>0.0</ele><time>2026-04-29T16:18:07.063Z</time></trkpt><trkpt lat="38.0486708" lon="-0.0814894"><ele>0.0</ele><time>2026-04-29T16:18:08.063Z</time></trkpt><trkpt lat="38.0487392" lon="-0.0814209"><ele>0.0</ele><time>2026-04-29T16:18:09.062Z</time></trkpt><trkpt lat="38.0488186" lon="-0.0813944"><ele>0.0</ele><time>2026-04-29T16:18:10.062Z</time></trkpt><trkpt lat="38.0489002" lon="-0.0813529"><ele>0.0</ele><time>2026-04-29T16:18:11.062Z</time></trkpt><trkpt lat="38.0489777" lon="-0.0812928"><ele>0.0</ele><time>2026-04-29T16:18:12.063Z</time></trkpt><trkpt lat="38.0490477" lon="-0.0812144"><ele>0.0</ele><time>2026-04-29T16:18:13.063Z</time></trkpt><trkpt lat="38.0491227" lon="-0.0811372"><ele>0.0</ele><time>2026-04-29T16:18:14.063Z</time></trkpt><trkpt lat="38.049193" lon="-0.0810767"><ele>0.0</ele><time>2026-04-29T16:18:15.062Z</time></trkpt><trkpt lat="38.0492689" lon="-0.0810405"><ele>0.0</ele><time>2026-04-29T16:18:16.063Z</time></trkpt><trkpt lat="38.0493386" lon="-0.0809813"><ele>0.0</ele><time>2026-04-29T16:18:17.062Z</time></trkpt><trkpt lat="38.0494069" lon="-0.0809118"><ele>0.0</ele><time>2026-04-29T16:18:18.062Z</time></trkpt><trkpt lat="38.0494767" lon="-0.0808475"><ele>0.0</ele><time>2026-04-29T16:18:19.062Z</time></trkpt><trkpt lat="38.0495387" lon="-0.0807859"><ele>0.0</ele><time>2026-04-29T16:18:20.062Z</time></trkpt><trkpt lat="38.0496038" lon="-0.0807278"><ele>0.0</ele><time>2026-04-29T16:18:21.063Z</time></trkpt><trkpt lat="38.0496735" lon="-0.0806539"><ele>0.0</ele><time>2026-04-29T16:18:22.063Z</time></trkpt><trkpt lat="38.0497436" lon="-0.080571"><ele>0.0</ele><time>2026-04-29T16:18:23.063Z</time></trkpt><trkpt lat="38.0498096" lon="-0.0804881"><ele>0.0</ele><time>2026-04-29T16:18:24.062Z</time></trkpt><trkpt lat="38.0499403" lon="-0.0803394"><ele>0.0</ele><time>2026-04-29T16:18:26.062Z</time></trkpt><trkpt lat="38.0500117" lon="-0.0802977"><ele>0.0</ele><time>2026-04-29T16:18:27.062Z</time></trkpt><trkpt lat="38.0500964" lon="-0.0802497"><ele>0.0</ele><time>2026-04-29T16:18:28.062Z</time></trkpt><trkpt lat="38.0501687" lon="-0.0801752"><ele>0.0</ele><time>2026-04-29T16:18:29.063Z</time></trkpt><trkpt lat="38.0502302" lon="-0.0801013"><ele>0.0</ele><time>2026-04-29T16:18:30.063Z</time></trkpt><trkpt lat="38.0502983" lon="-0.0800283"><ele>0.0</ele><time>2026-04-29T16:18:31.062Z</time></trkpt><trkpt lat="38.0503579" lon="-0.0799626"><ele>0.0</ele><time>2026-04-29T16:18:32.062Z</time></trkpt><trkpt lat="38.050428" lon="-0.0798943"><ele>0.0</ele><time>2026-04-29T16:18:33.062Z</time></trkpt><trkpt lat="38.0505878" lon="-0.0797661"><ele>0.0</ele><time>2026-04-29T16:18:35.062Z</time></trkpt><trkpt lat="38.0506605" lon="-0.0796991"><ele>0.0</ele><time>2026-04-29T16:18:36.063Z</time></trkpt><trkpt lat="38.050736" lon="-0.0796488"><ele>0.0</ele><time>2026-04-29T16:18:37.062Z</time></trkpt><trkpt lat="38.0508052" lon="-0.0795877"><ele>0.0</ele><time>2026-04-29T16:18:38.063Z</time></trkpt><trkpt lat="38.0508704" lon="-0.0795161"><ele>0.0</ele><time>2026-04-29T16:18:39.062Z</time></trkpt><trkpt lat="38.0509366" lon="-0.0794577"><ele>0.0</ele><time>2026-04-29T16:18:40.062Z</time></trkpt><trkpt lat="38.0510048" lon="-0.0794051"><ele>0.0</ele><time>2026-04-29T16:18:41.062Z</time></trkpt><trkpt lat="38.0510803" lon="-0.079349"><ele>0.0</ele><time>2026-04-29T16:18:42.063Z</time></trkpt><trkpt lat="38.0511515" lon="-0.0792987"><ele>0.0</ele><time>2026-04-29T16:18:43.062Z</time></trkpt><trkpt lat="38.0512218" lon="-0.0792413"><ele>0.0</ele><time>2026-04-29T16:18:44.062Z</time></trkpt><trkpt lat="38.0513717" lon="-0.0791759"><ele>0.0</ele><time>2026-04-29T16:18:46.062Z</time></trkpt><trkpt lat="38.0514369" lon="-0.0791196"><ele>0.0</ele><time>2026-04-29T16:18:47.062Z</time></trkpt><trkpt lat="38.0515013" lon="-0.0790486"><ele>0.0</ele><time>2026-04-29T16:18:48.063Z</time></trkpt><trkpt lat="38.0515646" lon="-0.0789746"><ele>0.0</ele><time>2026-04-29T16:18:49.063Z</time></trkpt><trkpt lat="38.0516263" lon="-0.0789072"><ele>0.0</ele><time>2026-04-29T16:18:50.062Z</time></trkpt><trkpt lat="38.0516913" lon="-0.0788379"><ele>0.0</ele><time>2026-04-29T16:18:51.063Z</time></trkpt><trkpt lat="38.0517591" lon="-0.0787654"><ele>0.0</ele><time>2026-04-29T16:18:52.063Z</time></trkpt><trkpt lat="38.0518256" lon="-0.078693"><ele>0.0</ele><time>2026-04-29T16:18:53.063Z</time></trkpt><trkpt lat="38.0518967" lon="-0.0786151"><ele>0.0</ele><time>2026-04-29T16:18:54.063Z</time></trkpt><trkpt lat="38.0519783" lon="-0.0785463"><ele>0.0</ele><time>2026-04-29T16:18:55.062Z</time></trkpt><trkpt lat="38.052053" lon="-0.078465"><ele>0.0</ele><time>2026-04-29T16:18:56.063Z</time></trkpt><trkpt lat="38.0521223" lon="-0.0783934"><ele>0.0</ele><time>2026-04-29T16:18:57.063Z</time></trkpt><trkpt lat="38.0521849" lon="-0.0783264"><ele>0.0</ele><time>2026-04-29T16:18:58.062Z</time></trkpt><trkpt lat="38.0522568" lon="-0.0782659"><ele>0.0</ele><time>2026-04-29T16:18:59.063Z</time></trkpt><trkpt lat="38.0523229" lon="-0.0781979"><ele>0.0</ele><time>2026-04-29T16:19:00.062Z</time></trkpt><trkpt lat="38.0523969" lon="-0.0781353"><ele>0.0</ele><time>2026-04-29T16:19:01.063Z</time></trkpt><trkpt lat="38.0524775" lon="-0.078065"><ele>0.0</ele><time>2026-04-29T16:19:02.062Z</time></trkpt><trkpt lat="38.0525505" lon="-0.0779971"><ele>0.0</ele><time>2026-04-29T16:19:03.063Z</time></trkpt><trkpt lat="38.0526317" lon="-0.0779394"><ele>0.0</ele><time>2026-04-29T16:19:04.062Z</time></trkpt><trkpt lat="38.0527092" lon="-0.0778787"><ele>0.0</ele><time>2026-04-29T16:19:05.062Z</time></trkpt><trkpt lat="38.0530417" lon="-0.0776459"><ele>0.0</ele><time>2026-04-29T16:19:10.101Z</time></trkpt><trkpt lat="38.0531219" lon="-0.0775577"><ele>0.0</ele><time>2026-04-29T16:19:11.107Z</time></trkpt><trkpt lat="38.0532046" lon="-0.077493"><ele>0.0</ele><time>2026-04-29T16:19:12.112Z</time></trkpt><trkpt lat="38.0532842" lon="-0.0774307"><ele>0.0</ele><time>2026-04-29T16:19:13.118Z</time></trkpt><trkpt lat="38.0533659" lon="-0.0773883"><ele>0.0</ele><time>2026-04-29T16:19:14.123Z</time></trkpt><trkpt lat="38.0534846" lon="-0.0772663"><ele>0.0</ele><time>2026-04-29T16:19:17.141Z</time></trkpt><trkpt lat="38.0536099" lon="-0.0771971"><ele>0.0</ele><time>2026-04-29T16:19:18.148Z</time></trkpt><trkpt lat="38.053704" lon="-0.0771437"><ele>0.0</ele><time>2026-04-29T16:19:19.154Z</time></trkpt><trkpt lat="38.0537907" lon="-0.0770801"><ele>0.0</ele><time>2026-04-29T16:19:20.16Z</time></trkpt><trkpt lat="38.0538608" lon="-0.0769988"><ele>0.0</ele><time>2026-04-29T16:19:21.165Z</time></trkpt><trkpt lat="38.0539453" lon="-0.0769165"><ele>0.0</ele><time>2026-04-29T16:19:23.177Z</time></trkpt><trkpt lat="38.0540248" lon="-0.0768254"><ele>0.0</ele><time>2026-04-29T16:19:24.083Z</time></trkpt><trkpt lat="38.0541019" lon="-0.0767592"><ele>0.0</ele><time>2026-04-29T16:19:25.088Z</time></trkpt><trkpt lat="38.0541788" lon="-0.0766954"><ele>0.0</ele><time>2026-04-29T16:19:26.093Z</time></trkpt><trkpt lat="38.0542467" lon="-0.0766289"><ele>0.0</ele><time>2026-04-29T16:19:27.1Z</time></trkpt><trkpt lat="38.0543752" lon="-0.0765136"><ele>0.0</ele><time>2026-04-29T16:19:29.062Z</time></trkpt><trkpt lat="38.0544421" lon="-0.0764453"><ele>0.0</ele><time>2026-04-29T16:19:30.062Z</time></trkpt><trkpt lat="38.0545072" lon="-0.0763843"><ele>0.0</ele><time>2026-04-29T16:19:31.063Z</time></trkpt><trkpt lat="38.0545783" lon="-0.0763115"><ele>0.0</ele><time>2026-04-29T16:19:32.063Z</time></trkpt><trkpt lat="38.0546516" lon="-0.0762406"><ele>0.0</ele><time>2026-04-29T16:19:33.063Z</time></trkpt><trkpt lat="38.0547244" lon="-0.0761768"><ele>0.0</ele><time>2026-04-29T16:19:34.062Z</time></trkpt><trkpt lat="38.054799" lon="-0.0761507"><ele>0.0</ele><time>2026-04-29T16:19:35.063Z</time></trkpt><trkpt lat="38.0548785" lon="-0.0761155"><ele>0.0</ele><time>2026-04-29T16:19:36.063Z</time></trkpt><trkpt lat="38.0549644" lon="-0.0760727"><ele>0.0</ele><time>2026-04-29T16:19:37.063Z</time></trkpt><trkpt lat="38.0550452" lon="-0.0760168"><ele>0.0</ele><time>2026-04-29T16:19:38.063Z</time></trkpt><trkpt lat="38.055203" lon="-0.0758942"><ele>0.0</ele><time>2026-04-29T16:19:40.063Z</time></trkpt><trkpt lat="38.0552793" lon="-0.0758328"><ele>0.0</ele><time>2026-04-29T16:19:41.062Z</time></trkpt><trkpt lat="38.055424" lon="-0.0757047"><ele>0.0</ele><time>2026-04-29T16:19:43.063Z</time></trkpt><trkpt lat="38.0554928" lon="-0.0756305"><ele>0.0</ele><time>2026-04-29T16:19:44.062Z</time></trkpt><trkpt lat="38.0555672" lon="-0.0755613"><ele>0.0</ele><time>2026-04-29T16:19:45.062Z</time></trkpt><trkpt lat="38.0556308" lon="-0.075491"><ele>0.0</ele><time>2026-04-29T16:19:46.062Z</time></trkpt><trkpt lat="38.0556898" lon="-0.0753943"><ele>0.0</ele><time>2026-04-29T16:19:47.062Z</time></trkpt><trkpt lat="38.0557509" lon="-0.0752835"><ele>0.0</ele><time>2026-04-29T16:19:48.063Z</time></trkpt><trkpt lat="38.0558892" lon="-0.075145"><ele>0.0</ele><time>2026-04-29T16:19:50.062Z</time></trkpt><trkpt lat="38.0559506" lon="-0.0750839"><ele>0.0</ele><time>2026-04-29T16:19:52.165Z</time></trkpt><trkpt lat="38.056034" lon="-0.0749728"><ele>0.0</ele><time>2026-04-29T16:19:53.17Z</time></trkpt><trkpt lat="38.0561186" lon="-0.0749037"><ele>0.0</ele><time>2026-04-29T16:19:54.076Z</time></trkpt><trkpt lat="38.0562118" lon="-0.07484"><ele>0.0</ele><time>2026-04-29T16:19:55.182Z</time></trkpt><trkpt lat="38.056292" lon="-0.0747758"><ele>0.0</ele><time>2026-04-29T16:19:56.089Z</time></trkpt><trkpt lat="38.0563663" lon="-0.0746997"><ele>0.0</ele><time>2026-04-29T16:19:57.093Z</time></trkpt><trkpt lat="38.0564401" lon="-0.074621"><ele>0.0</ele><time>2026-04-29T16:19:58.1Z</time></trkpt><trkpt lat="38.0565203" lon="-0.0745525"><ele>0.0</ele><time>2026-04-29T16:19:59.105Z</time></trkpt><trkpt lat="38.0566012" lon="-0.0744908"><ele>0.0</ele><time>2026-04-29T16:20:00.111Z</time></trkpt><trkpt lat="38.0566985" lon="-0.0744712"><ele>0.0</ele><time>2026-04-29T16:20:01.117Z</time></trkpt><trkpt lat="38.0567596" lon="-0.0744109"><ele>0.0</ele><time>2026-04-29T16:20:02.062Z</time></trkpt><trkpt lat="38.0568419" lon="-0.0743686"><ele>0.0</ele><time>2026-04-29T16:20:03.062Z</time></trkpt><trkpt lat="38.0569182" lon="-0.0743252"><ele>0.0</ele><time>2026-04-29T16:20:04.062Z</time></trkpt><trkpt lat="38.0569926" lon="-0.0742769"><ele>0.0</ele><time>2026-04-29T16:20:05.061Z</time></trkpt><trkpt lat="38.0570688" lon="-0.0742254"><ele>0.0</ele><time>2026-04-29T16:20:06.062Z</time></trkpt><trkpt lat="38.0571378" lon="-0.0741639"><ele>0.0</ele><time>2026-04-29T16:20:07.062Z</time></trkpt><trkpt lat="38.0572117" lon="-0.0741241"><ele>0.0</ele><time>2026-04-29T16:20:08.062Z</time></trkpt><trkpt lat="38.0572784" lon="-0.0740615"><ele>0.0</ele><time>2026-04-29T16:20:09.062Z</time></trkpt><trkpt lat="38.0574381" lon="-0.0739527"><ele>0.0</ele><time>2026-04-29T16:20:11.062Z</time></trkpt><trkpt lat="38.0575934" lon="-0.0738684"><ele>0.0</ele><time>2026-04-29T16:20:13.062Z</time></trkpt><trkpt lat="38.0576718" lon="-0.0738077"><ele>0.0</ele><time>2026-04-29T16:20:14.062Z</time></trkpt><trkpt lat="38.057743" lon="-0.073747"><ele>0.0</ele><time>2026-04-29T16:20:15.062Z</time></trkpt><trkpt lat="38.0578163" lon="-0.0736866"><ele>0.0</ele><time>2026-04-29T16:20:16.062Z</time></trkpt><trkpt lat="38.0578925" lon="-0.0736222"><ele>0.0</ele><time>2026-04-29T16:20:17.061Z</time></trkpt><trkpt lat="38.0579634" lon="-0.0735616"><ele>0.0</ele><time>2026-04-29T16:20:18.061Z</time></trkpt><trkpt lat="38.0580324" lon="-0.0735066"><ele>0.0</ele><time>2026-04-29T16:20:19.061Z</time></trkpt><trkpt lat="38.0580991" lon="-0.0734467"><ele>0.0</ele><time>2026-04-29T16:20:20.061Z</time></trkpt><trkpt lat="38.0581656" lon="-0.073378"><ele>0.0</ele><time>2026-04-29T16:20:21.062Z</time></trkpt><trkpt lat="38.0582322" lon="-0.0733117"><ele>0.0</ele><time>2026-04-29T16:20:22.061Z</time></trkpt><trkpt lat="38.0582956" lon="-0.0732415"><ele>0.0</ele><time>2026-04-29T16:20:23.061Z</time></trkpt><trkpt lat="38.058357" lon="-0.0731753"><ele>0.0</ele><time>2026-04-29T16:20:24.061Z</time></trkpt><trkpt lat="38.0584234" lon="-0.0731045"><ele>0.0</ele><time>2026-04-29T16:20:25.062Z</time></trkpt><trkpt lat="38.0584874" lon="-0.0730385"><ele>0.0</ele><time>2026-04-29T16:20:26.062Z</time></trkpt><trkpt lat="38.0585576" lon="-0.0729782"><ele>0.0</ele><time>2026-04-29T16:20:27.062Z</time></trkpt><trkpt lat="38.0586336" lon="-0.0729282"><ele>0.0</ele><time>2026-04-29T16:20:28.062Z</time></trkpt><trkpt lat="38.0587092" lon="-0.0728687"><ele>0.0</ele><time>2026-04-29T16:20:29.061Z</time></trkpt><trkpt lat="38.05878" lon="-0.0728026"><ele>0.0</ele><time>2026-04-29T16:20:30.061Z</time></trkpt><trkpt lat="38.0589154" lon="-0.07267"><ele>0.0</ele><time>2026-04-29T16:20:32.062Z</time></trkpt><trkpt lat="38.0589926" lon="-0.072613"><ele>0.0</ele><time>2026-04-29T16:20:33.061Z</time></trkpt><trkpt lat="38.0590789" lon="-0.0725546"><ele>0.0</ele><time>2026-04-29T16:20:34.062Z</time></trkpt><trkpt lat="38.0591672" lon="-0.0725254"><ele>0.0</ele><time>2026-04-29T16:20:35.062Z</time></trkpt><trkpt lat="38.0592975" lon="-0.0724276"><ele>0.0</ele><time>2026-04-29T16:20:38.166Z</time></trkpt><trkpt lat="38.0594218" lon="-0.072351"><ele>0.0</ele><time>2026-04-29T16:20:39.071Z</time></trkpt><trkpt lat="38.0595061" lon="-0.0722651"><ele>0.0</ele><time>2026-04-29T16:20:40.077Z</time></trkpt><trkpt lat="38.0595799" lon="-0.0721778"><ele>0.0</ele><time>2026-04-29T16:20:41.084Z</time></trkpt><trkpt lat="38.059652" lon="-0.0721045"><ele>0.0</ele><time>2026-04-29T16:20:42.089Z</time></trkpt><trkpt lat="38.0597181" lon="-0.0720871"><ele>0.0</ele><time>2026-04-29T16:20:43.061Z</time></trkpt><trkpt lat="38.05984" lon="-0.0719711"><ele>0.0</ele><time>2026-04-29T16:20:45.062Z</time></trkpt><trkpt lat="38.0599095" lon="-0.0719106"><ele>0.0</ele><time>2026-04-29T16:20:46.062Z</time></trkpt><trkpt lat="38.0599664" lon="-0.071849"><ele>0.0</ele><time>2026-04-29T16:20:47.061Z</time></trkpt><trkpt lat="38.0600205" lon="-0.0717939"><ele>0.0</ele><time>2026-04-29T16:20:48.061Z</time></trkpt><trkpt lat="38.060075" lon="-0.0717406"><ele>0.0</ele><time>2026-04-29T16:20:49.061Z</time></trkpt><trkpt lat="38.0601392" lon="-0.0716834"><ele>0.0</ele><time>2026-04-29T16:20:50.062Z</time></trkpt><trkpt lat="38.0602115" lon="-0.0716234"><ele>0.0</ele><time>2026-04-29T16:20:51.062Z</time></trkpt><trkpt lat="38.060352" lon="-0.0714962"><ele>0.0</ele><time>2026-04-29T16:20:53.061Z</time></trkpt><trkpt lat="38.0604275" lon="-0.0714336"><ele>0.0</ele><time>2026-04-29T16:20:54.061Z</time></trkpt><trkpt lat="38.0605024" lon="-0.0713688"><ele>0.0</ele><time>2026-04-29T16:20:55.062Z</time></trkpt><trkpt lat="38.0606602" lon="-0.0712524"><ele>0.0</ele><time>2026-04-29T16:20:57.061Z</time></trkpt><trkpt lat="38.0607313" lon="-0.0711891"><ele>0.0</ele><time>2026-04-29T16:20:58.061Z</time></trkpt><trkpt lat="38.0608015" lon="-0.0711321"><ele>0.0</ele><time>2026-04-29T16:20:59.061Z</time></trkpt><trkpt lat="38.0608683" lon="-0.0710758"><ele>0.0</ele><time>2026-04-29T16:21:00.061Z</time></trkpt><trkpt lat="38.0609409" lon="-0.0710168"><ele>0.0</ele><time>2026-04-29T16:21:01.061Z</time></trkpt><trkpt lat="38.0610063" lon="-0.0709512"><ele>0.0</ele><time>2026-04-29T16:21:02.061Z</time></trkpt><trkpt lat="38.061075" lon="-0.0708866"><ele>0.0</ele><time>2026-04-29T16:21:03.061Z</time></trkpt><trkpt lat="38.0611381" lon="-0.0708194"><ele>0.0</ele><time>2026-04-29T16:21:04.061Z</time></trkpt><trkpt lat="38.0612061" lon="-0.070753"><ele>0.0</ele><time>2026-04-29T16:21:05.061Z</time></trkpt><trkpt lat="38.0612767" lon="-0.0706876"><ele>0.0</ele><time>2026-04-29T16:21:06.061Z</time></trkpt><trkpt lat="38.0613485" lon="-0.0706203"><ele>0.0</ele><time>2026-04-29T16:21:07.062Z</time></trkpt><trkpt lat="38.0614202" lon="-0.070558"><ele>0.0</ele><time>2026-04-29T16:21:08.061Z</time></trkpt><trkpt lat="38.0614893" lon="-0.0704969"><ele>0.0</ele><time>2026-04-29T16:21:09.061Z</time></trkpt><trkpt lat="38.0615633" lon="-0.070434"><ele>0.0</ele><time>2026-04-29T16:21:10.062Z</time></trkpt><trkpt lat="38.0616367" lon="-0.0703761"><ele>0.0</ele><time>2026-04-29T16:21:11.061Z</time></trkpt><trkpt lat="38.0617015" lon="-0.0703097"><ele>0.0</ele><time>2026-04-29T16:21:12.061Z</time></trkpt><trkpt lat="38.0618194" lon="-0.0701933"><ele>0.0</ele><time>2026-04-29T16:21:14.062Z</time></trkpt><trkpt lat="38.0618743" lon="-0.0701313"><ele>0.0</ele><time>2026-04-29T16:21:15.062Z</time></trkpt><trkpt lat="38.0619391" lon="-0.0700703"><ele>0.0</ele><time>2026-04-29T16:21:16.061Z</time></trkpt><trkpt lat="38.062079" lon="-0.0699518"><ele>0.0</ele><time>2026-04-29T16:21:18.062Z</time></trkpt><trkpt lat="38.062157" lon="-0.0698965"><ele>0.0</ele><time>2026-04-29T16:21:19.061Z</time></trkpt><trkpt lat="38.0622383" lon="-0.0698441"><ele>0.0</ele><time>2026-04-29T16:21:20.061Z</time></trkpt><trkpt lat="38.0623184" lon="-0.0697893"><ele>0.0</ele><time>2026-04-29T16:21:21.061Z</time></trkpt><trkpt lat="38.0623897" lon="-0.0697285"><ele>0.0</ele><time>2026-04-29T16:21:22.061Z</time></trkpt><trkpt lat="38.0624567" lon="-0.0696585"><ele>0.0</ele><time>2026-04-29T16:21:23.062Z</time></trkpt><trkpt lat="38.0625251" lon="-0.0695925"><ele>0.0</ele><time>2026-04-29T16:21:24.062Z</time></trkpt><trkpt lat="38.0625936" lon="-0.069525"><ele>0.0</ele><time>2026-04-29T16:21:25.061Z</time></trkpt><trkpt lat="38.0626631" lon="-0.0694596"><ele>0.0</ele><time>2026-04-29T16:21:26.061Z</time></trkpt><trkpt lat="38.0627333" lon="-0.0694016"><ele>0.0</ele><time>2026-04-29T16:21:27.061Z</time></trkpt><trkpt lat="38.0628034" lon="-0.0693398"><ele>0.0</ele><time>2026-04-29T16:21:28.061Z</time></trkpt><trkpt lat="38.0628734" lon="-0.0692775"><ele>0.0</ele><time>2026-04-29T16:21:29.061Z</time></trkpt><trkpt lat="38.0629422" lon="-0.0692176"><ele>0.0</ele><time>2026-04-29T16:21:30.061Z</time></trkpt><trkpt lat="38.0630117" lon="-0.0691537"><ele>0.0</ele><time>2026-04-29T16:21:31.061Z</time></trkpt><trkpt lat="38.0630788" lon="-0.0690842"><ele>0.0</ele><time>2026-04-29T16:21:32.062Z</time></trkpt><trkpt lat="38.0631442" lon="-0.0690156"><ele>0.0</ele><time>2026-04-29T16:21:33.062Z</time></trkpt><trkpt lat="38.06328" lon="-0.0688984"><ele>0.0</ele><time>2026-04-29T16:21:35.062Z</time></trkpt><trkpt lat="38.0633483" lon="-0.068828"><ele>0.0</ele><time>2026-04-29T16:21:36.062Z</time></trkpt><trkpt lat="38.0634167" lon="-0.0687481"><ele>0.0</ele><time>2026-04-29T16:21:37.062Z</time></trkpt><trkpt lat="38.0634881" lon="-0.0686738"><ele>0.0</ele><time>2026-04-29T16:21:38.062Z</time></trkpt><trkpt lat="38.0635581" lon="-0.0686012"><ele>0.0</ele><time>2026-04-29T16:21:39.061Z</time></trkpt><trkpt lat="38.0636282" lon="-0.0685307"><ele>0.0</ele><time>2026-04-29T16:21:40.061Z</time></trkpt><trkpt lat="38.0636966" lon="-0.0684633"><ele>0.0</ele><time>2026-04-29T16:21:41.061Z</time></trkpt><trkpt lat="38.0637634" lon="-0.0683941"><ele>0.0</ele><time>2026-04-29T16:21:42.062Z</time></trkpt><trkpt lat="38.0638327" lon="-0.0683281"><ele>0.0</ele><time>2026-04-29T16:21:43.061Z</time></trkpt><trkpt lat="38.0639018" lon="-0.0682548"><ele>0.0</ele><time>2026-04-29T16:21:44.061Z</time></trkpt><trkpt lat="38.0639744" lon="-0.0681923"><ele>0.0</ele><time>2026-04-29T16:21:45.061Z</time></trkpt><trkpt lat="38.0640453" lon="-0.0681384"><ele>0.0</ele><time>2026-04-29T16:21:46.061Z</time></trkpt><trkpt lat="38.0641151" lon="-0.0680822"><ele>0.0</ele><time>2026-04-29T16:21:47.061Z</time></trkpt><trkpt lat="38.0641851" lon="-0.068027"><ele>0.0</ele><time>2026-04-29T16:21:48.062Z</time></trkpt><trkpt lat="38.0643191" lon="-0.067897"><ele>0.0</ele><time>2026-04-29T16:21:50.061Z</time></trkpt><trkpt lat="38.0643855" lon="-0.0678362"><ele>0.0</ele><time>2026-04-29T16:21:51.061Z</time></trkpt><trkpt lat="38.0645267" lon="-0.0677131"><ele>0.0</ele><time>2026-04-29T16:21:53.061Z</time></trkpt><trkpt lat="38.0645968" lon="-0.0676486"><ele>0.0</ele><time>2026-04-29T16:21:54.062Z</time></trkpt><trkpt lat="38.0647353" lon="-0.0675361"><ele>0.0</ele><time>2026-04-29T16:21:56.062Z</time></trkpt><trkpt lat="38.0648049" lon="-0.0674729"><ele>0.0</ele><time>2026-04-29T16:21:57.061Z</time></trkpt><trkpt lat="38.0648752" lon="-0.0674095"><ele>0.0</ele><time>2026-04-29T16:21:58.061Z</time></trkpt><trkpt lat="38.0649436" lon="-0.0673474"><ele>0.0</ele><time>2026-04-29T16:21:59.061Z</time></trkpt><trkpt lat="38.0650132" lon="-0.0672824"><ele>0.0</ele><time>2026-04-29T16:22:00.062Z</time></trkpt><trkpt lat="38.0650847" lon="-0.0672204"><ele>0.0</ele><time>2026-04-29T16:22:01.061Z</time></trkpt><trkpt lat="38.0651537" lon="-0.0671623"><ele>0.0</ele><time>2026-04-29T16:22:02.062Z</time></trkpt><trkpt lat="38.0652233" lon="-0.0671085"><ele>0.0</ele><time>2026-04-29T16:22:03.061Z</time></trkpt><trkpt lat="38.0652978" lon="-0.0670554"><ele>0.0</ele><time>2026-04-29T16:22:04.061Z</time></trkpt><trkpt lat="38.0653731" lon="-0.0669937"><ele>0.0</ele><time>2026-04-29T16:22:05.061Z</time></trkpt><trkpt lat="38.0654463" lon="-0.0669258"><ele>0.0</ele><time>2026-04-29T16:22:06.061Z</time></trkpt><trkpt lat="38.065508" lon="-0.0668851"><ele>0.0</ele><time>2026-04-29T16:22:07.062Z</time></trkpt><trkpt lat="38.0655699" lon="-0.0668228"><ele>0.0</ele><time>2026-04-29T16:22:08.062Z</time></trkpt><trkpt lat="38.0656343" lon="-0.0667538"><ele>0.0</ele><time>2026-04-29T16:22:09.062Z</time></trkpt><trkpt lat="38.0657048" lon="-0.0666888"><ele>0.0</ele><time>2026-04-29T16:22:10.062Z</time></trkpt><trkpt lat="38.065772" lon="-0.0666109"><ele>0.0</ele><time>2026-04-29T16:22:11.062Z</time></trkpt><trkpt lat="38.0658378" lon="-0.0665111"><ele>0.0</ele><time>2026-04-29T16:22:12.061Z</time></trkpt><trkpt lat="38.0658985" lon="-0.0664191"><ele>0.0</ele><time>2026-04-29T16:22:13.061Z</time></trkpt><trkpt lat="38.0659655" lon="-0.0663357"><ele>0.0</ele><time>2026-04-29T16:22:14.061Z</time></trkpt><trkpt lat="38.0660292" lon="-0.066227"><ele>0.0</ele><time>2026-04-29T16:22:15.061Z</time></trkpt><trkpt lat="38.0661719" lon="-0.0660695"><ele>0.0</ele><time>2026-04-29T16:22:17.062Z</time></trkpt><trkpt lat="38.0662406" lon="-0.0659885"><ele>0.0</ele><time>2026-04-29T16:22:18.061Z</time></trkpt><trkpt lat="38.0663005" lon="-0.0658876"><ele>0.0</ele><time>2026-04-29T16:22:19.061Z</time></trkpt><trkpt lat="38.0663654" lon="-0.0658191"><ele>0.0</ele><time>2026-04-29T16:22:20.061Z</time></trkpt><trkpt lat="38.0664322" lon="-0.0657539"><ele>0.0</ele><time>2026-04-29T16:22:21.062Z</time></trkpt><trkpt lat="38.0665733" lon="-0.0656723"><ele>0.0</ele><time>2026-04-29T16:22:23.062Z</time></trkpt><trkpt lat="38.0666432" lon="-0.0656161"><ele>0.0</ele><time>2026-04-29T16:22:24.062Z</time></trkpt><trkpt lat="38.0667136" lon="-0.0655637"><ele>0.0</ele><time>2026-04-29T16:22:25.062Z</time></trkpt><trkpt lat="38.0667863" lon="-0.0655216"><ele>0.0</ele><time>2026-04-29T16:22:26.062Z</time></trkpt><trkpt lat="38.0668591" lon="-0.065463"><ele>0.0</ele><time>2026-04-29T16:22:27.061Z</time></trkpt><trkpt lat="38.066927" lon="-0.065392"><ele>0.0</ele><time>2026-04-29T16:22:28.061Z</time></trkpt><trkpt lat="38.0669935" lon="-0.0653227"><ele>0.0</ele><time>2026-04-29T16:22:29.061Z</time></trkpt><trkpt lat="38.0670563" lon="-0.0652478"><ele>0.0</ele><time>2026-04-29T16:22:30.061Z</time></trkpt><trkpt lat="38.0671225" lon="-0.0651713"><ele>0.0</ele><time>2026-04-29T16:22:31.061Z</time></trkpt><trkpt lat="38.0671905" lon="-0.0651031"><ele>0.0</ele><time>2026-04-29T16:22:32.061Z</time></trkpt><trkpt lat="38.0672616" lon="-0.0650308"><ele>0.0</ele><time>2026-04-29T16:22:33.061Z</time></trkpt><trkpt lat="38.0673259" lon="-0.064953"><ele>0.0</ele><time>2026-04-29T16:22:34.061Z</time></trkpt><trkpt lat="38.0673948" lon="-0.0648775"><ele>0.0</ele><time>2026-04-29T16:22:35.062Z</time></trkpt><trkpt lat="38.0674648" lon="-0.0648088"><ele>0.0</ele><time>2026-04-29T16:22:36.061Z</time></trkpt><trkpt lat="38.0676002" lon="-0.0646669"><ele>0.0</ele><time>2026-04-29T16:22:38.062Z</time></trkpt><trkpt lat="38.0676673" lon="-0.0645971"><ele>0.0</ele><time>2026-04-29T16:22:39.062Z</time></trkpt><trkpt lat="38.0677371" lon="-0.0645298"><ele>0.0</ele><time>2026-04-29T16:22:40.062Z</time></trkpt><trkpt lat="38.0678041" lon="-0.064467"><ele>0.0</ele><time>2026-04-29T16:22:41.061Z</time></trkpt><trkpt lat="38.067872" lon="-0.0643906"><ele>0.0</ele><time>2026-04-29T16:22:42.061Z</time></trkpt><trkpt lat="38.0679391" lon="-0.0643118"><ele>0.0</ele><time>2026-04-29T16:22:43.061Z</time></trkpt><trkpt lat="38.0680027" lon="-0.0642332"><ele>0.0</ele><time>2026-04-29T16:22:44.062Z</time></trkpt><trkpt lat="38.0680717" lon="-0.0641604"><ele>0.0</ele><time>2026-04-29T16:22:45.061Z</time></trkpt><trkpt lat="38.0681404" lon="-0.0640869"><ele>0.0</ele><time>2026-04-29T16:22:46.061Z</time></trkpt><trkpt lat="38.0682042" lon="-0.0640135"><ele>0.0</ele><time>2026-04-29T16:22:47.061Z</time></trkpt><trkpt lat="38.068276" lon="-0.0639494"><ele>0.0</ele><time>2026-04-29T16:22:48.061Z</time></trkpt><trkpt lat="38.0683451" lon="-0.0638835"><ele>0.0</ele><time>2026-04-29T16:22:49.061Z</time></trkpt><trkpt lat="38.0684165" lon="-0.0638174"><ele>0.0</ele><time>2026-04-29T16:22:50.061Z</time></trkpt><trkpt lat="38.0684925" lon="-0.0637583"><ele>0.0</ele><time>2026-04-29T16:22:51.061Z</time></trkpt><trkpt lat="38.0685618" lon="-0.0637001"><ele>0.0</ele><time>2026-04-29T16:22:52.062Z</time></trkpt><trkpt lat="38.0686244" lon="-0.0636402"><ele>0.0</ele><time>2026-04-29T16:22:53.062Z</time></trkpt><trkpt lat="38.0687602" lon="-0.0635375"><ele>0.0</ele><time>2026-04-29T16:22:55.062Z</time></trkpt><trkpt lat="38.0688298" lon="-0.0634777"><ele>0.0</ele><time>2026-04-29T16:22:56.061Z</time></trkpt><trkpt lat="38.0689056" lon="-0.0634239"><ele>0.0</ele><time>2026-04-29T16:22:57.061Z</time></trkpt><trkpt lat="38.0690503" lon="-0.0633076"><ele>0.0</ele><time>2026-04-29T16:22:59.061Z</time></trkpt><trkpt lat="38.0691228" lon="-0.0632677"><ele>0.0</ele><time>2026-04-29T16:23:00.062Z</time></trkpt><trkpt lat="38.0691942" lon="-0.0631978"><ele>0.0</ele><time>2026-04-29T16:23:01.061Z</time></trkpt><trkpt lat="38.06926" lon="-0.0631247"><ele>0.0</ele><time>2026-04-29T16:23:02.061Z</time></trkpt><trkpt lat="38.0693268" lon="-0.0630615"><ele>0.0</ele><time>2026-04-29T16:23:03.062Z</time></trkpt><trkpt lat="38.0693979" lon="-0.0629976"><ele>0.0</ele><time>2026-04-29T16:23:04.061Z</time></trkpt><trkpt lat="38.0694749" lon="-0.0629379"><ele>0.0</ele><time>2026-04-29T16:23:05.061Z</time></trkpt><trkpt lat="38.0695468" lon="-0.0628755"><ele>0.0</ele><time>2026-04-29T16:23:06.061Z</time></trkpt><trkpt lat="38.069613" lon="-0.0628164"><ele>0.0</ele><time>2026-04-29T16:23:07.062Z</time></trkpt><trkpt lat="38.0696819" lon="-0.0627634"><ele>0.0</ele><time>2026-04-29T16:23:08.061Z</time></trkpt><trkpt lat="38.0697507" lon="-0.0626977"><ele>0.0</ele><time>2026-04-29T16:23:09.061Z</time></trkpt><trkpt lat="38.0698216" lon="-0.0626333"><ele>0.0</ele><time>2026-04-29T16:23:10.062Z</time></trkpt><trkpt lat="38.0698932" lon="-0.0625788"><ele>0.0</ele><time>2026-04-29T16:23:11.062Z</time></trkpt><trkpt lat="38.0699636" lon="-0.0625241"><ele>0.0</ele><time>2026-04-29T16:23:12.061Z</time></trkpt><trkpt lat="38.0700336" lon="-0.0624633"><ele>0.0</ele><time>2026-04-29T16:23:13.062Z</time></trkpt><trkpt lat="38.0701077" lon="-0.0623979"><ele>0.0</ele><time>2026-04-29T16:23:14.062Z</time></trkpt><trkpt lat="38.0701814" lon="-0.0623521"><ele>0.0</ele><time>2026-04-29T16:23:15.061Z</time></trkpt><trkpt lat="38.0702522" lon="-0.0623156"><ele>0.0</ele><time>2026-04-29T16:23:16.061Z</time></trkpt><trkpt lat="38.0703178" lon="-0.062251"><ele>0.0</ele><time>2026-04-29T16:23:17.061Z</time></trkpt><trkpt lat="38.0703865" lon="-0.0621856"><ele>0.0</ele><time>2026-04-29T16:23:18.061Z</time></trkpt><trkpt lat="38.0705308" lon="-0.0620646"><ele>0.0</ele><time>2026-04-29T16:23:20.062Z</time></trkpt><trkpt lat="38.0706042" lon="-0.0619977"><ele>0.0</ele><time>2026-04-29T16:23:21.062Z</time></trkpt><trkpt lat="38.070675" lon="-0.0619339"><ele>0.0</ele><time>2026-04-29T16:23:22.061Z</time></trkpt><trkpt lat="38.0707437" lon="-0.0618659"><ele>0.0</ele><time>2026-04-29T16:23:23.061Z</time></trkpt><trkpt lat="38.0708087" lon="-0.0618059"><ele>0.0</ele><time>2026-04-29T16:23:24.062Z</time></trkpt><trkpt lat="38.070878" lon="-0.0617398"><ele>0.0</ele><time>2026-04-29T16:23:25.062Z</time></trkpt><trkpt lat="38.0709466" lon="-0.0616708"><ele>0.0</ele><time>2026-04-29T16:23:26.061Z</time></trkpt><trkpt lat="38.0710881" lon="-0.061552"><ele>0.0</ele><time>2026-04-29T16:23:28.061Z</time></trkpt><trkpt lat="38.0711568" lon="-0.0614916"><ele>0.0</ele><time>2026-04-29T16:23:29.061Z</time></trkpt><trkpt lat="38.0712266" lon="-0.0614325"><ele>0.0</ele><time>2026-04-29T16:23:30.062Z</time></trkpt><trkpt lat="38.0712951" lon="-0.0613719"><ele>0.0</ele><time>2026-04-29T16:23:31.061Z</time></trkpt><trkpt lat="38.0713662" lon="-0.0613099"><ele>0.0</ele><time>2026-04-29T16:23:32.062Z</time></trkpt><trkpt lat="38.071435" lon="-0.0612483"><ele>0.0</ele><time>2026-04-29T16:23:33.062Z</time></trkpt><trkpt lat="38.0715064" lon="-0.0611852"><ele>0.0</ele><time>2026-04-29T16:23:34.061Z</time></trkpt><trkpt lat="38.0715799" lon="-0.0611285"><ele>0.0</ele><time>2026-04-29T16:23:35.061Z</time></trkpt><trkpt lat="38.0716576" lon="-0.0610995"><ele>0.0</ele><time>2026-04-29T16:23:36.061Z</time></trkpt><trkpt lat="38.0717284" lon="-0.0610486"><ele>0.0</ele><time>2026-04-29T16:23:37.061Z</time></trkpt><trkpt lat="38.0717998" lon="-0.0609873"><ele>0.0</ele><time>2026-04-29T16:23:38.062Z</time></trkpt><trkpt lat="38.0718718" lon="-0.0609339"><ele>0.0</ele><time>2026-04-29T16:23:39.061Z</time></trkpt><trkpt lat="38.0720155" lon="-0.0608168"><ele>0.0</ele><time>2026-04-29T16:23:41.062Z</time></trkpt><trkpt lat="38.0720876" lon="-0.0607612"><ele>0.0</ele><time>2026-04-29T16:23:42.061Z</time></trkpt><trkpt lat="38.0721538" lon="-0.0607045"><ele>0.0</ele><time>2026-04-29T16:23:43.061Z</time></trkpt><trkpt lat="38.0722247" lon="-0.0606465"><ele>0.0</ele><time>2026-04-29T16:23:44.061Z</time></trkpt><trkpt lat="38.0722978" lon="-0.060588"><ele>0.0</ele><time>2026-04-29T16:23:45.062Z</time></trkpt><trkpt lat="38.0723673" lon="-0.0605303"><ele>0.0</ele><time>2026-04-29T16:23:46.061Z</time></trkpt><trkpt lat="38.0724358" lon="-0.0604693"><ele>0.0</ele><time>2026-04-29T16:23:47.061Z</time></trkpt><trkpt lat="38.0725029" lon="-0.0604024"><ele>0.0</ele><time>2026-04-29T16:23:48.062Z</time></trkpt><trkpt lat="38.0725734" lon="-0.0603406"><ele>0.0</ele><time>2026-04-29T16:23:49.061Z</time></trkpt><trkpt lat="38.0726434" lon="-0.0602702"><ele>0.0</ele><time>2026-04-29T16:23:50.061Z</time></trkpt><trkpt lat="38.0727191" lon="-0.0602088"><ele>0.0</ele><time>2026-04-29T16:23:51.062Z</time></trkpt><trkpt lat="38.0727971" lon="-0.060143"><ele>0.0</ele><time>2026-04-29T16:23:52.062Z</time></trkpt><trkpt lat="38.0728668" lon="-0.060079"><ele>0.0</ele><time>2026-04-29T16:23:53.061Z</time></trkpt><trkpt lat="38.0729372" lon="-0.0600258"><ele>0.0</ele><time>2026-04-29T16:23:54.061Z</time></trkpt><trkpt lat="38.07301" lon="-0.0599739"><ele>0.0</ele><time>2026-04-29T16:23:55.061Z</time></trkpt><trkpt lat="38.0730818" lon="-0.0599139"><ele>0.0</ele><time>2026-04-29T16:23:56.061Z</time></trkpt><trkpt lat="38.0731509" lon="-0.059857"><ele>0.0</ele><time>2026-04-29T16:23:57.06Z</time></trkpt><trkpt lat="38.0732188" lon="-0.0597995"><ele>0.0</ele><time>2026-04-29T16:23:58.06Z</time></trkpt><trkpt lat="38.0733491" lon="-0.0596696"><ele>0.0</ele><time>2026-04-29T16:24:00.06Z</time></trkpt><trkpt lat="38.0734814" lon="-0.0595389"><ele>0.0</ele><time>2026-04-29T16:24:02.061Z</time></trkpt><trkpt lat="38.0735515" lon="-0.0594727"><ele>0.0</ele><time>2026-04-29T16:24:03.06Z</time></trkpt><trkpt lat="38.0736204" lon="-0.0594032"><ele>0.0</ele><time>2026-04-29T16:24:04.061Z</time></trkpt><trkpt lat="38.0736898" lon="-0.05934"><ele>0.0</ele><time>2026-04-29T16:24:05.061Z</time></trkpt><trkpt lat="38.0737601" lon="-0.0592813"><ele>0.0</ele><time>2026-04-29T16:24:06.06Z</time></trkpt><trkpt lat="38.0738243" lon="-0.0592146"><ele>0.0</ele><time>2026-04-29T16:24:07.06Z</time></trkpt><trkpt lat="38.0738891" lon="-0.0591463"><ele>0.0</ele><time>2026-04-29T16:24:08.061Z</time></trkpt><trkpt lat="38.0739558" lon="-0.0590843"><ele>0.0</ele><time>2026-04-29T16:24:09.06Z</time></trkpt><trkpt lat="38.0740292" lon="-0.0590275"><ele>0.0</ele><time>2026-04-29T16:24:10.06Z</time></trkpt><trkpt lat="38.0741018" lon="-0.0589713"><ele>0.0</ele><time>2026-04-29T16:24:11.06Z</time></trkpt><trkpt lat="38.0741777" lon="-0.0589148"><ele>0.0</ele><time>2026-04-29T16:24:12.06Z</time></trkpt><trkpt lat="38.0742499" lon="-0.0588636"><ele>0.0</ele><time>2026-04-29T16:24:13.06Z</time></trkpt><trkpt lat="38.0743243" lon="-0.0588104"><ele>0.0</ele><time>2026-04-29T16:24:14.06Z</time></trkpt><trkpt lat="38.0743982" lon="-0.0587535"><ele>0.0</ele><time>2026-04-29T16:24:15.06Z</time></trkpt><trkpt lat="38.0744733" lon="-0.0587014"><ele>0.0</ele><time>2026-04-29T16:24:16.06Z</time></trkpt><trkpt lat="38.0745463" lon="-0.058651"><ele>0.0</ele><time>2026-04-29T16:24:17.06Z</time></trkpt><trkpt lat="38.074624" lon="-0.0585987"><ele>0.0</ele><time>2026-04-29T16:24:18.061Z</time></trkpt><trkpt lat="38.0746954" lon="-0.0585389"><ele>0.0</ele><time>2026-04-29T16:24:19.061Z</time></trkpt><trkpt lat="38.0747641" lon="-0.0584802"><ele>0.0</ele><time>2026-04-29T16:24:20.06Z</time></trkpt><trkpt lat="38.074832" lon="-0.0584194"><ele>0.0</ele><time>2026-04-29T16:24:21.06Z</time></trkpt><trkpt lat="38.0749632" lon="-0.0583028"><ele>0.0</ele><time>2026-04-29T16:24:23.061Z</time></trkpt><trkpt lat="38.0750362" lon="-0.0582362"><ele>0.0</ele><time>2026-04-29T16:24:24.061Z</time></trkpt><trkpt lat="38.0751137" lon="-0.0581821"><ele>0.0</ele><time>2026-04-29T16:24:25.061Z</time></trkpt><trkpt lat="38.0751853" lon="-0.0581224"><ele>0.0</ele><time>2026-04-29T16:24:26.06Z</time></trkpt><trkpt lat="38.0752555" lon="-0.0580606"><ele>0.0</ele><time>2026-04-29T16:24:27.06Z</time></trkpt><trkpt lat="38.0753233" lon="-0.0579913"><ele>0.0</ele><time>2026-04-29T16:24:28.061Z</time></trkpt><trkpt lat="38.0753932" lon="-0.0579285"><ele>0.0</ele><time>2026-04-29T16:24:29.061Z</time></trkpt><trkpt lat="38.0754602" lon="-0.0578595"><ele>0.0</ele><time>2026-04-29T16:24:30.06Z</time></trkpt><trkpt lat="38.0755936" lon="-0.0577342"><ele>0.0</ele><time>2026-04-29T16:24:32.061Z</time></trkpt><trkpt lat="38.0756675" lon="-0.0576984"><ele>0.0</ele><time>2026-04-29T16:24:33.06Z</time></trkpt><trkpt lat="38.0757393" lon="-0.057646"><ele>0.0</ele><time>2026-04-29T16:24:34.06Z</time></trkpt><trkpt lat="38.075808" lon="-0.057586"><ele>0.0</ele><time>2026-04-29T16:24:35.061Z</time></trkpt><trkpt lat="38.0758808" lon="-0.0575314"><ele>0.0</ele><time>2026-04-29T16:24:36.061Z</time></trkpt><trkpt lat="38.075957" lon="-0.0574812"><ele>0.0</ele><time>2026-04-29T16:24:37.06Z</time></trkpt><trkpt lat="38.0760306" lon="-0.057434"><ele>0.0</ele><time>2026-04-29T16:24:38.06Z</time></trkpt><trkpt lat="38.0761028" lon="-0.0573897"><ele>0.0</ele><time>2026-04-29T16:24:39.06Z</time></trkpt><trkpt lat="38.0761737" lon="-0.057333"><ele>0.0</ele><time>2026-04-29T16:24:40.061Z</time></trkpt><trkpt lat="38.0762378" lon="-0.0572746"><ele>0.0</ele><time>2026-04-29T16:24:41.06Z</time></trkpt><trkpt lat="38.0763063" lon="-0.057206"><ele>0.0</ele><time>2026-04-29T16:24:42.06Z</time></trkpt><trkpt lat="38.0764435" lon="-0.0570758"><ele>0.0</ele><time>2026-04-29T16:24:44.06Z</time></trkpt><trkpt lat="38.076513" lon="-0.0570091"><ele>0.0</ele><time>2026-04-29T16:24:45.06Z</time></trkpt><trkpt lat="38.0765873" lon="-0.0569426"><ele>0.0</ele><time>2026-04-29T16:24:46.061Z</time></trkpt><trkpt lat="38.0766567" lon="-0.0568759"><ele>0.0</ele><time>2026-04-29T16:24:47.061Z</time></trkpt><trkpt lat="38.0767277" lon="-0.0568074"><ele>0.0</ele><time>2026-04-29T16:24:48.06Z</time></trkpt><trkpt lat="38.0767986" lon="-0.0567527"><ele>0.0</ele><time>2026-04-29T16:24:49.06Z</time></trkpt><trkpt lat="38.0768643" lon="-0.0566888"><ele>0.0</ele><time>2026-04-29T16:24:50.06Z</time></trkpt><trkpt lat="38.0769291" lon="-0.0566209"><ele>0.0</ele><time>2026-04-29T16:24:51.06Z</time></trkpt><trkpt lat="38.0770057" lon="-0.0565754"><ele>0.0</ele><time>2026-04-29T16:24:52.06Z</time></trkpt><trkpt lat="38.0770798" lon="-0.0565196"><ele>0.0</ele><time>2026-04-29T16:24:53.06Z</time></trkpt><trkpt lat="38.0771549" lon="-0.0564561"><ele>0.0</ele><time>2026-04-29T16:24:54.061Z</time></trkpt><trkpt lat="38.0772322" lon="-0.0564038"><ele>0.0</ele><time>2026-04-29T16:24:55.06Z</time></trkpt><trkpt lat="38.0773021" lon="-0.056348"><ele>0.0</ele><time>2026-04-29T16:24:56.06Z</time></trkpt><trkpt lat="38.0773703" lon="-0.0562855"><ele>0.0</ele><time>2026-04-29T16:24:57.06Z</time></trkpt><trkpt lat="38.0774402" lon="-0.0562179"><ele>0.0</ele><time>2026-04-29T16:24:58.061Z</time></trkpt><trkpt lat="38.0775127" lon="-0.0561538"><ele>0.0</ele><time>2026-04-29T16:24:59.06Z</time></trkpt><trkpt lat="38.077579" lon="-0.056086"><ele>0.0</ele><time>2026-04-29T16:25:00.06Z</time></trkpt><trkpt lat="38.0776381" lon="-0.0560203"><ele>0.0</ele><time>2026-04-29T16:25:01.06Z</time></trkpt><trkpt lat="38.0777078" lon="-0.0559622"><ele>0.0</ele><time>2026-04-29T16:25:02.06Z</time></trkpt><trkpt lat="38.0779239" lon="-0.0557994"><ele>0.0</ele><time>2026-04-29T16:25:05.06Z</time></trkpt><trkpt lat="38.0779949" lon="-0.0557363"><ele>0.0</ele><time>2026-04-29T16:25:06.061Z</time></trkpt><trkpt lat="38.0780582" lon="-0.0556655"><ele>0.0</ele><time>2026-04-29T16:25:07.061Z</time></trkpt><trkpt lat="38.0781243" lon="-0.055607"><ele>0.0</ele><time>2026-04-29T16:25:08.061Z</time></trkpt><trkpt lat="38.0781921" lon="-0.0555568"><ele>0.0</ele><time>2026-04-29T16:25:09.06Z</time></trkpt><trkpt lat="38.0782586" lon="-0.0554954"><ele>0.0</ele><time>2026-04-29T16:25:10.061Z</time></trkpt><trkpt lat="38.0783219" lon="-0.0554331"><ele>0.0</ele><time>2026-04-29T16:25:11.06Z</time></trkpt><trkpt lat="38.0783916" lon="-0.0553677"><ele>0.0</ele><time>2026-04-29T16:25:12.06Z</time></trkpt><trkpt lat="38.078463" lon="-0.0553023"><ele>0.0</ele><time>2026-04-29T16:25:13.061Z</time></trkpt><trkpt lat="38.0785333" lon="-0.0552343"><ele>0.0</ele><time>2026-04-29T16:25:14.061Z</time></trkpt><trkpt lat="38.0785991" lon="-0.0551663"><ele>0.0</ele><time>2026-04-29T16:25:15.061Z</time></trkpt><trkpt lat="38.078667" lon="-0.0551051"><ele>0.0</ele><time>2026-04-29T16:25:16.06Z</time></trkpt><trkpt lat="38.0787412" lon="-0.055049"><ele>0.0</ele><time>2026-04-29T16:25:17.06Z</time></trkpt><trkpt lat="38.078806" lon="-0.0549975"><ele>0.0</ele><time>2026-04-29T16:25:18.061Z</time></trkpt><trkpt lat="38.0788777" lon="-0.054941"><ele>0.0</ele><time>2026-04-29T16:25:19.061Z</time></trkpt><trkpt lat="38.0789481" lon="-0.054882"><ele>0.0</ele><time>2026-04-29T16:25:20.061Z</time></trkpt><trkpt lat="38.0790211" lon="-0.0548143"><ele>0.0</ele><time>2026-04-29T16:25:21.061Z</time></trkpt><trkpt lat="38.0790912" lon="-0.0547395"><ele>0.0</ele><time>2026-04-29T16:25:22.06Z</time></trkpt><trkpt lat="38.0791629" lon="-0.0546723"><ele>0.0</ele><time>2026-04-29T16:25:23.06Z</time></trkpt><trkpt lat="38.0792361" lon="-0.0546075"><ele>0.0</ele><time>2026-04-29T16:25:24.06Z</time></trkpt><trkpt lat="38.0793791" lon="-0.0544731"><ele>0.0</ele><time>2026-04-29T16:25:26.061Z</time></trkpt><trkpt lat="38.0794531" lon="-0.0544122"><ele>0.0</ele><time>2026-04-29T16:25:27.06Z</time></trkpt><trkpt lat="38.0795221" lon="-0.054352"><ele>0.0</ele><time>2026-04-29T16:25:28.061Z</time></trkpt><trkpt lat="38.0795893" lon="-0.0542907"><ele>0.0</ele><time>2026-04-29T16:25:29.06Z</time></trkpt><trkpt lat="38.0796572" lon="-0.0542331"><ele>0.0</ele><time>2026-04-29T16:25:30.061Z</time></trkpt><trkpt lat="38.0797299" lon="-0.0541709"><ele>0.0</ele><time>2026-04-29T16:25:31.06Z</time></trkpt><trkpt lat="38.0798003" lon="-0.0541064"><ele>0.0</ele><time>2026-04-29T16:25:32.06Z</time></trkpt><trkpt lat="38.0798704" lon="-0.0540396"><ele>0.0</ele><time>2026-04-29T16:25:33.06Z</time></trkpt><trkpt lat="38.07994" lon="-0.0539789"><ele>0.0</ele><time>2026-04-29T16:25:34.06Z</time></trkpt><trkpt lat="38.0800105" lon="-0.0539187"><ele>0.0</ele><time>2026-04-29T16:25:35.061Z</time></trkpt><trkpt lat="38.0801551" lon="-0.0537936"><ele>0.0</ele><time>2026-04-29T16:25:37.06Z</time></trkpt><trkpt lat="38.0802281" lon="-0.0537222"><ele>0.0</ele><time>2026-04-29T16:25:38.061Z</time></trkpt><trkpt lat="38.0803041" lon="-0.0536659"><ele>0.0</ele><time>2026-04-29T16:25:39.06Z</time></trkpt><trkpt lat="38.0803765" lon="-0.0536064"><ele>0.0</ele><time>2026-04-29T16:25:40.06Z</time></trkpt><trkpt lat="38.0804483" lon="-0.0535418"><ele>0.0</ele><time>2026-04-29T16:25:41.061Z</time></trkpt><trkpt lat="38.0805219" lon="-0.0534723"><ele>0.0</ele><time>2026-04-29T16:25:42.061Z</time></trkpt><trkpt lat="38.0805859" lon="-0.0534063"><ele>0.0</ele><time>2026-04-29T16:25:43.06Z</time></trkpt><trkpt lat="38.0806518" lon="-0.0533411"><ele>0.0</ele><time>2026-04-29T16:25:44.06Z</time></trkpt><trkpt lat="38.0807927" lon="-0.0532233"><ele>0.0</ele><time>2026-04-29T16:25:46.061Z</time></trkpt><trkpt lat="38.0808569" lon="-0.0531863"><ele>0.0</ele><time>2026-04-29T16:25:47.06Z</time></trkpt><trkpt lat="38.0809355" lon="-0.0531537"><ele>0.0</ele><time>2026-04-29T16:25:48.06Z</time></trkpt><trkpt lat="38.0810053" lon="-0.0531049"><ele>0.0</ele><time>2026-04-29T16:25:49.06Z</time></trkpt><trkpt lat="38.0810807" lon="-0.0530833"><ele>0.0</ele><time>2026-04-29T16:25:50.06Z</time></trkpt><trkpt lat="38.0811494" lon="-0.0530427"><ele>0.0</ele><time>2026-04-29T16:25:51.061Z</time></trkpt><trkpt lat="38.0812245" lon="-0.0530009"><ele>0.0</ele><time>2026-04-29T16:25:52.06Z</time></trkpt><trkpt lat="38.0812995" lon="-0.0529485"><ele>0.0</ele><time>2026-04-29T16:25:53.061Z</time></trkpt><trkpt lat="38.0813701" lon="-0.0528864"><ele>0.0</ele><time>2026-04-29T16:25:54.061Z</time></trkpt><trkpt lat="38.0814404" lon="-0.0528287"><ele>0.0</ele><time>2026-04-29T16:25:55.061Z</time></trkpt><trkpt lat="38.0815114" lon="-0.0527621"><ele>0.0</ele><time>2026-04-29T16:25:56.061Z</time></trkpt><trkpt lat="38.0815891" lon="-0.0527007"><ele>0.0</ele><time>2026-04-29T16:25:57.06Z</time></trkpt><trkpt lat="38.0816643" lon="-0.0526392"><ele>0.0</ele><time>2026-04-29T16:25:58.06Z</time></trkpt><trkpt lat="38.0817335" lon="-0.0525742"><ele>0.0</ele><time>2026-04-29T16:25:59.061Z</time></trkpt><trkpt lat="38.0818062" lon="-0.0525089"><ele>0.0</ele><time>2026-04-29T16:26:00.06Z</time></trkpt><trkpt lat="38.0818808" lon="-0.0524404"><ele>0.0</ele><time>2026-04-29T16:26:01.061Z</time></trkpt><trkpt lat="38.0819542" lon="-0.0523693"><ele>0.0</ele><time>2026-04-29T16:26:02.06Z</time></trkpt><trkpt lat="38.0820248" lon="-0.0523022"><ele>0.0</ele><time>2026-04-29T16:26:03.061Z</time></trkpt><trkpt lat="38.0820931" lon="-0.0522351"><ele>0.0</ele><time>2026-04-29T16:26:04.06Z</time></trkpt><trkpt lat="38.0821627" lon="-0.0521744"><ele>0.0</ele><time>2026-04-29T16:26:05.061Z</time></trkpt><trkpt lat="38.0822967" lon="-0.0520437"><ele>0.0</ele><time>2026-04-29T16:26:07.06Z</time></trkpt><trkpt lat="38.0823662" lon="-0.0519895"><ele>0.0</ele><time>2026-04-29T16:26:08.061Z</time></trkpt><trkpt lat="38.0824984" lon="-0.0518583"><ele>0.0</ele><time>2026-04-29T16:26:10.06Z</time></trkpt><trkpt lat="38.0825667" lon="-0.0517919"><ele>0.0</ele><time>2026-04-29T16:26:11.06Z</time></trkpt><trkpt lat="38.0826338" lon="-0.0517356"><ele>0.0</ele><time>2026-04-29T16:26:12.06Z</time></trkpt><trkpt lat="38.0827076" lon="-0.0516832"><ele>0.0</ele><time>2026-04-29T16:26:13.061Z</time></trkpt><trkpt lat="38.0827751" lon="-0.0516173"><ele>0.0</ele><time>2026-04-29T16:26:14.061Z</time></trkpt><trkpt lat="38.0828414" lon="-0.0515484"><ele>0.0</ele><time>2026-04-29T16:26:15.061Z</time></trkpt><trkpt lat="38.0829144" lon="-0.0514852"><ele>0.0</ele><time>2026-04-29T16:26:16.06Z</time></trkpt><trkpt lat="38.0829878" lon="-0.0514218"><ele>0.0</ele><time>2026-04-29T16:26:17.061Z</time></trkpt><trkpt lat="38.0830613" lon="-0.0513573"><ele>0.0</ele><time>2026-04-29T16:26:18.061Z</time></trkpt><trkpt lat="38.0831359" lon="-0.0512922"><ele>0.0</ele><time>2026-04-29T16:26:19.061Z</time></trkpt><trkpt lat="38.0832124" lon="-0.0512297"><ele>0.0</ele><time>2026-04-29T16:26:20.061Z</time></trkpt><trkpt lat="38.0832815" lon="-0.0511664"><ele>0.0</ele><time>2026-04-29T16:26:21.061Z</time></trkpt><trkpt lat="38.0833527" lon="-0.0511002"><ele>0.0</ele><time>2026-04-29T16:26:22.061Z</time></trkpt><trkpt lat="38.0834285" lon="-0.0510393"><ele>0.0</ele><time>2026-04-29T16:26:23.061Z</time></trkpt><trkpt lat="38.0834997" lon="-0.0509789"><ele>0.0</ele><time>2026-04-29T16:26:24.061Z</time></trkpt><trkpt lat="38.0835672" lon="-0.0509176"><ele>0.0</ele><time>2026-04-29T16:26:25.061Z</time></trkpt><trkpt lat="38.0836311" lon="-0.0508667"><ele>0.0</ele><time>2026-04-29T16:26:26.06Z</time></trkpt><trkpt lat="38.0837643" lon="-0.0507473"><ele>0.0</ele><time>2026-04-29T16:26:28.061Z</time></trkpt><trkpt lat="38.0838318" lon="-0.050686"><ele>0.0</ele><time>2026-04-29T16:26:29.061Z</time></trkpt><trkpt lat="38.0839003" lon="-0.0506259"><ele>0.0</ele><time>2026-04-29T16:26:30.06Z</time></trkpt><trkpt lat="38.0839684" lon="-0.0505699"><ele>0.0</ele><time>2026-04-29T16:26:31.061Z</time></trkpt><trkpt lat="38.0840413" lon="-0.050512"><ele>0.0</ele><time>2026-04-29T16:26:32.061Z</time></trkpt><trkpt lat="38.0841133" lon="-0.0504535"><ele>0.0</ele><time>2026-04-29T16:26:33.061Z</time></trkpt><trkpt lat="38.0841832" lon="-0.0503938"><ele>0.0</ele><time>2026-04-29T16:26:34.06Z</time></trkpt><trkpt lat="38.0842593" lon="-0.0503341"><ele>0.0</ele><time>2026-04-29T16:26:35.06Z</time></trkpt><trkpt lat="38.084333" lon="-0.0502756"><ele>0.0</ele><time>2026-04-29T16:26:36.06Z</time></trkpt><trkpt lat="38.0844047" lon="-0.050214"><ele>0.0</ele><time>2026-04-29T16:26:37.061Z</time></trkpt><trkpt lat="38.0844735" lon="-0.0501432"><ele>0.0</ele><time>2026-04-29T16:26:38.06Z</time></trkpt><trkpt lat="38.084543" lon="-0.0500836"><ele>0.0</ele><time>2026-04-29T16:26:39.06Z</time></trkpt><trkpt lat="38.0846866" lon="-0.0499685"><ele>0.0</ele><time>2026-04-29T16:26:41.06Z</time></trkpt><trkpt lat="38.0847612" lon="-0.0499071"><ele>0.0</ele><time>2026-04-29T16:26:42.061Z</time></trkpt><trkpt lat="38.0848366" lon="-0.0498478"><ele>0.0</ele><time>2026-04-29T16:26:43.061Z</time></trkpt><trkpt lat="38.0849186" lon="-0.049775"><ele>0.0</ele><time>2026-04-29T16:26:44.06Z</time></trkpt><trkpt lat="38.0849885" lon="-0.0497071"><ele>0.0</ele><time>2026-04-29T16:26:45.06Z</time></trkpt><trkpt lat="38.0850564" lon="-0.0496356"><ele>0.0</ele><time>2026-04-29T16:26:46.06Z</time></trkpt><trkpt lat="38.0851266" lon="-0.0495667"><ele>0.0</ele><time>2026-04-29T16:26:47.06Z</time></trkpt><trkpt lat="38.0852632" lon="-0.0494611"><ele>0.0</ele><time>2026-04-29T16:26:49.061Z</time></trkpt><trkpt lat="38.0853358" lon="-0.0494011"><ele>0.0</ele><time>2026-04-29T16:26:50.061Z</time></trkpt><trkpt lat="38.0854133" lon="-0.049351"><ele>0.0</ele><time>2026-04-29T16:26:51.06Z</time></trkpt><trkpt lat="38.0854946" lon="-0.0493437"><ele>0.0</ele><time>2026-04-29T16:26:52.06Z</time></trkpt><trkpt lat="38.0855603" lon="-0.04929"><ele>0.0</ele><time>2026-04-29T16:26:53.06Z</time></trkpt><trkpt lat="38.0856257" lon="-0.049235"><ele>0.0</ele><time>2026-04-29T16:26:54.06Z</time></trkpt><trkpt lat="38.0856938" lon="-0.0491816"><ele>0.0</ele><time>2026-04-29T16:26:55.061Z</time></trkpt><trkpt lat="38.0857622" lon="-0.0491235"><ele>0.0</ele><time>2026-04-29T16:26:56.061Z</time></trkpt><trkpt lat="38.0858322" lon="-0.0490757"><ele>0.0</ele><time>2026-04-29T16:26:57.06Z</time></trkpt><trkpt lat="38.0859097" lon="-0.0490256"><ele>0.0</ele><time>2026-04-29T16:26:58.061Z</time></trkpt><trkpt lat="38.0859825" lon="-0.0489788"><ele>0.0</ele><time>2026-04-29T16:26:59.061Z</time></trkpt><trkpt lat="38.0860608" lon="-0.04895"><ele>0.0</ele><time>2026-04-29T16:27:00.061Z</time></trkpt><trkpt lat="38.0861307" lon="-0.0488995"><ele>0.0</ele><time>2026-04-29T16:27:01.061Z</time></trkpt><trkpt lat="38.0862008" lon="-0.0488356"><ele>0.0</ele><time>2026-04-29T16:27:02.06Z</time></trkpt><trkpt lat="38.0862692" lon="-0.0487717"><ele>0.0</ele><time>2026-04-29T16:27:03.06Z</time></trkpt><trkpt lat="38.0863403" lon="-0.0487025"><ele>0.0</ele><time>2026-04-29T16:27:04.061Z</time></trkpt><trkpt lat="38.0864101" lon="-0.0486393"><ele>0.0</ele><time>2026-04-29T16:27:05.061Z</time></trkpt><trkpt lat="38.0864876" lon="-0.0485744"><ele>0.0</ele><time>2026-04-29T16:27:06.06Z</time></trkpt><trkpt lat="38.0865569" lon="-0.0485155"><ele>0.0</ele><time>2026-04-29T16:27:07.06Z</time></trkpt><trkpt lat="38.0866278" lon="-0.0484529"><ele>0.0</ele><time>2026-04-29T16:27:08.06Z</time></trkpt><trkpt lat="38.0867807" lon="-0.0483302"><ele>0.0</ele><time>2026-04-29T16:27:10.06Z</time></trkpt><trkpt lat="38.0868483" lon="-0.0482664"><ele>0.0</ele><time>2026-04-29T16:27:11.06Z</time></trkpt><trkpt lat="38.086915" lon="-0.0482029"><ele>0.0</ele><time>2026-04-29T16:27:12.06Z</time></trkpt><trkpt lat="38.0870445" lon="-0.0480659"><ele>0.0</ele><time>2026-04-29T16:27:14.061Z</time></trkpt><trkpt lat="38.0871101" lon="-0.0479987"><ele>0.0</ele><time>2026-04-29T16:27:15.061Z</time></trkpt><trkpt lat="38.0871814" lon="-0.0479397"><ele>0.0</ele><time>2026-04-29T16:27:16.061Z</time></trkpt><trkpt lat="38.0872527" lon="-0.0478795"><ele>0.0</ele><time>2026-04-29T16:27:17.06Z</time></trkpt><trkpt lat="38.0873227" lon="-0.0478127"><ele>0.0</ele><time>2026-04-29T16:27:18.06Z</time></trkpt><trkpt lat="38.0873949" lon="-0.0477491"><ele>0.0</ele><time>2026-04-29T16:27:19.061Z</time></trkpt><trkpt lat="38.0874663" lon="-0.0476843"><ele>0.0</ele><time>2026-04-29T16:27:20.06Z</time></trkpt><trkpt lat="38.0875354" lon="-0.0476177"><ele>0.0</ele><time>2026-04-29T16:27:21.06Z</time></trkpt><trkpt lat="38.0876025" lon="-0.0475541"><ele>0.0</ele><time>2026-04-29T16:27:22.06Z</time></trkpt><trkpt lat="38.0876658" lon="-0.0474938"><ele>0.0</ele><time>2026-04-29T16:27:23.06Z</time></trkpt><trkpt lat="38.0877317" lon="-0.0474311"><ele>0.0</ele><time>2026-04-29T16:27:24.06Z</time></trkpt><trkpt lat="38.0877977" lon="-0.047351"><ele>0.0</ele><time>2026-04-29T16:27:25.06Z</time></trkpt><trkpt lat="38.0878684" lon="-0.0472833"><ele>0.0</ele><time>2026-04-29T16:27:26.06Z</time></trkpt><trkpt lat="38.08794" lon="-0.0472249"><ele>0.0</ele><time>2026-04-29T16:27:27.06Z</time></trkpt><trkpt lat="38.0880129" lon="-0.0471655"><ele>0.0</ele><time>2026-04-29T16:27:28.06Z</time></trkpt><trkpt lat="38.0880817" lon="-0.0471032"><ele>0.0</ele><time>2026-04-29T16:27:29.061Z</time></trkpt><trkpt lat="38.0882252" lon="-0.0469883"><ele>0.0</ele><time>2026-04-29T16:27:31.06Z</time></trkpt><trkpt lat="38.0882961" lon="-0.0469304"><ele>0.0</ele><time>2026-04-29T16:27:32.061Z</time></trkpt><trkpt lat="38.0883683" lon="-0.0468722"><ele>0.0</ele><time>2026-04-29T16:27:33.06Z</time></trkpt><trkpt lat="38.0884384" lon="-0.0467919"><ele>0.0</ele><time>2026-04-29T16:27:34.061Z</time></trkpt><trkpt lat="38.0885097" lon="-0.0467261"><ele>0.0</ele><time>2026-04-29T16:27:35.061Z</time></trkpt><trkpt lat="38.0885799" lon="-0.0466666"><ele>0.0</ele><time>2026-04-29T16:27:36.06Z</time></trkpt><trkpt lat="38.0886481" lon="-0.0466085"><ele>0.0</ele><time>2026-04-29T16:27:37.06Z</time></trkpt><trkpt lat="38.0887263" lon="-0.0465516"><ele>0.0</ele><time>2026-04-29T16:27:38.06Z</time></trkpt><trkpt lat="38.0888007" lon="-0.0464953"><ele>0.0</ele><time>2026-04-29T16:27:39.061Z</time></trkpt><trkpt lat="38.0888757" lon="-0.0464309"><ele>0.0</ele><time>2026-04-29T16:27:40.06Z</time></trkpt><trkpt lat="38.0889509" lon="-0.0463689"><ele>0.0</ele><time>2026-04-29T16:27:41.06Z</time></trkpt><trkpt lat="38.0890261" lon="-0.0463068"><ele>0.0</ele><time>2026-04-29T16:27:42.061Z</time></trkpt><trkpt lat="38.0890897" lon="-0.0462504"><ele>0.0</ele><time>2026-04-29T16:27:43.061Z</time></trkpt><trkpt lat="38.0891574" lon="-0.046191"><ele>0.0</ele><time>2026-04-29T16:27:44.061Z</time></trkpt><trkpt lat="38.0893132" lon="-0.0461003"><ele>0.0</ele><time>2026-04-29T16:27:46.06Z</time></trkpt><trkpt lat="38.0893836" lon="-0.0460394"><ele>0.0</ele><time>2026-04-29T16:27:47.06Z</time></trkpt><trkpt lat="38.0894491" lon="-0.045982"><ele>0.0</ele><time>2026-04-29T16:27:48.059Z</time></trkpt><trkpt lat="38.089518" lon="-0.04592"><ele>0.0</ele><time>2026-04-29T16:27:49.059Z</time></trkpt><trkpt lat="38.0895894" lon="-0.0458412"><ele>0.0</ele><time>2026-04-29T16:27:50.059Z</time></trkpt><trkpt lat="38.0897185" lon="-0.0456998"><ele>0.0</ele><time>2026-04-29T16:27:52.059Z</time></trkpt><trkpt lat="38.0897868" lon="-0.0456348"><ele>0.0</ele><time>2026-04-29T16:27:53.06Z</time></trkpt><trkpt lat="38.0898482" lon="-0.0455781"><ele>0.0</ele><time>2026-04-29T16:27:54.06Z</time></trkpt><trkpt lat="38.0899167" lon="-0.0455164"><ele>0.0</ele><time>2026-04-29T16:27:55.06Z</time></trkpt><trkpt lat="38.0899905" lon="-0.045467"><ele>0.0</ele><time>2026-04-29T16:27:56.06Z</time></trkpt><trkpt lat="38.0900657" lon="-0.0454116"><ele>0.0</ele><time>2026-04-29T16:27:57.059Z</time></trkpt><trkpt lat="38.0901408" lon="-0.045351"><ele>0.0</ele><time>2026-04-29T16:27:58.06Z</time></trkpt><trkpt lat="38.0902115" lon="-0.0452952"><ele>0.0</ele><time>2026-04-29T16:27:59.06Z</time></trkpt><trkpt lat="38.0902857" lon="-0.045243"><ele>0.0</ele><time>2026-04-29T16:28:00.059Z</time></trkpt><trkpt lat="38.0903632" lon="-0.0451825"><ele>0.0</ele><time>2026-04-29T16:28:01.059Z</time></trkpt><trkpt lat="38.0904333" lon="-0.04512"><ele>0.0</ele><time>2026-04-29T16:28:02.06Z</time></trkpt><trkpt lat="38.0905006" lon="-0.0450642"><ele>0.0</ele><time>2026-04-29T16:28:03.059Z</time></trkpt><trkpt lat="38.0905658" lon="-0.0450148"><ele>0.0</ele><time>2026-04-29T16:28:04.059Z</time></trkpt><trkpt lat="38.0906392" lon="-0.0449579"><ele>0.0</ele><time>2026-04-29T16:28:05.059Z</time></trkpt><trkpt lat="38.0907085" lon="-0.0449138"><ele>0.0</ele><time>2026-04-29T16:28:06.06Z</time></trkpt><trkpt lat="38.0907811" lon="-0.044851"><ele>0.0</ele><time>2026-04-29T16:28:07.06Z</time></trkpt><trkpt lat="38.0908517" lon="-0.0447915"><ele>0.0</ele><time>2026-04-29T16:28:08.059Z</time></trkpt><trkpt lat="38.0909275" lon="-0.0447247"><ele>0.0</ele><time>2026-04-29T16:28:09.06Z</time></trkpt><trkpt lat="38.0910017" lon="-0.0446655"><ele>0.0</ele><time>2026-04-29T16:28:10.059Z</time></trkpt><trkpt lat="38.0910708" lon="-0.0446116"><ele>0.0</ele><time>2026-04-29T16:28:11.06Z</time></trkpt><trkpt lat="38.091212" lon="-0.0444852"><ele>0.0</ele><time>2026-04-29T16:28:13.059Z</time></trkpt><trkpt lat="38.0912849" lon="-0.0444255"><ele>0.0</ele><time>2026-04-29T16:28:14.059Z</time></trkpt><trkpt lat="38.0913613" lon="-0.0443673"><ele>0.0</ele><time>2026-04-29T16:28:15.059Z</time></trkpt><trkpt lat="38.0914319" lon="-0.0443087"><ele>0.0</ele><time>2026-04-29T16:28:16.06Z</time></trkpt><trkpt lat="38.0914997" lon="-0.044242"><ele>0.0</ele><time>2026-04-29T16:28:17.06Z</time></trkpt><trkpt lat="38.0916434" lon="-0.0441094"><ele>0.0</ele><time>2026-04-29T16:28:19.06Z</time></trkpt><trkpt lat="38.0917107" lon="-0.0440477"><ele>0.0</ele><time>2026-04-29T16:28:20.059Z</time></trkpt><trkpt lat="38.0917779" lon="-0.0439993"><ele>0.0</ele><time>2026-04-29T16:28:21.06Z</time></trkpt><trkpt lat="38.0918517" lon="-0.0439408"><ele>0.0</ele><time>2026-04-29T16:28:22.06Z</time></trkpt><trkpt lat="38.0919235" lon="-0.0438709"><ele>0.0</ele><time>2026-04-29T16:28:23.06Z</time></trkpt><trkpt lat="38.0919883" lon="-0.0438173"><ele>0.0</ele><time>2026-04-29T16:28:24.06Z</time></trkpt><trkpt lat="38.092057" lon="-0.0437768"><ele>0.0</ele><time>2026-04-29T16:28:25.06Z</time></trkpt><trkpt lat="38.0921284" lon="-0.0437287"><ele>0.0</ele><time>2026-04-29T16:28:26.06Z</time></trkpt><trkpt lat="38.092203" lon="-0.0436762"><ele>0.0</ele><time>2026-04-29T16:28:27.06Z</time></trkpt><trkpt lat="38.0922766" lon="-0.0436179"><ele>0.0</ele><time>2026-04-29T16:28:28.059Z</time></trkpt><trkpt lat="38.0923498" lon="-0.0435523"><ele>0.0</ele><time>2026-04-29T16:28:29.06Z</time></trkpt><trkpt lat="38.0924304" lon="-0.0434854"><ele>0.0</ele><time>2026-04-29T16:28:30.059Z</time></trkpt><trkpt lat="38.0925082" lon="-0.0434273"><ele>0.0</ele><time>2026-04-29T16:28:31.059Z</time></trkpt><trkpt lat="38.0925798" lon="-0.0433651"><ele>0.0</ele><time>2026-04-29T16:28:32.059Z</time></trkpt><trkpt lat="38.0927268" lon="-0.0432562"><ele>0.0</ele><time>2026-04-29T16:28:34.06Z</time></trkpt><trkpt lat="38.0927973" lon="-0.0432017"><ele>0.0</ele><time>2026-04-29T16:28:35.059Z</time></trkpt><trkpt lat="38.092865" lon="-0.0431376"><ele>0.0</ele><time>2026-04-29T16:28:36.059Z</time></trkpt><trkpt lat="38.0929354" lon="-0.0430788"><ele>0.0</ele><time>2026-04-29T16:28:37.06Z</time></trkpt><trkpt lat="38.0930066" lon="-0.0430236"><ele>0.0</ele><time>2026-04-29T16:28:38.059Z</time></trkpt><trkpt lat="38.0930845" lon="-0.0429954"><ele>0.0</ele><time>2026-04-29T16:28:39.059Z</time></trkpt><trkpt lat="38.0931599" lon="-0.0429619"><ele>0.0</ele><time>2026-04-29T16:28:40.06Z</time></trkpt><trkpt lat="38.0932332" lon="-0.0429031"><ele>0.0</ele><time>2026-04-29T16:28:41.06Z</time></trkpt><trkpt lat="38.0933038" lon="-0.0428429"><ele>0.0</ele><time>2026-04-29T16:28:42.06Z</time></trkpt><trkpt lat="38.0933765" lon="-0.0427792"><ele>0.0</ele><time>2026-04-29T16:28:43.059Z</time></trkpt><trkpt lat="38.0934515" lon="-0.0427198"><ele>0.0</ele><time>2026-04-29T16:28:44.059Z</time></trkpt><trkpt lat="38.0935209" lon="-0.0426625"><ele>0.0</ele><time>2026-04-29T16:28:45.06Z</time></trkpt><trkpt lat="38.0935856" lon="-0.0425944"><ele>0.0</ele><time>2026-04-29T16:28:46.059Z</time></trkpt><trkpt lat="38.0936579" lon="-0.0425299"><ele>0.0</ele><time>2026-04-29T16:28:47.059Z</time></trkpt><trkpt lat="38.0937289" lon="-0.0424585"><ele>0.0</ele><time>2026-04-29T16:28:48.06Z</time></trkpt><trkpt lat="38.0938001" lon="-0.0423921"><ele>0.0</ele><time>2026-04-29T16:28:49.06Z</time></trkpt><trkpt lat="38.0939353" lon="-0.0422583"><ele>0.0</ele><time>2026-04-29T16:28:51.06Z</time></trkpt><trkpt lat="38.0940035" lon="-0.0421964"><ele>0.0</ele><time>2026-04-29T16:28:52.06Z</time></trkpt><trkpt lat="38.0940749" lon="-0.0421309"><ele>0.0</ele><time>2026-04-29T16:28:53.06Z</time></trkpt><trkpt lat="38.0942117" lon="-0.0420094"><ele>0.0</ele><time>2026-04-29T16:28:55.06Z</time></trkpt><trkpt lat="38.0942818" lon="-0.0419519"><ele>0.0</ele><time>2026-04-29T16:28:56.06Z</time></trkpt><trkpt lat="38.0943547" lon="-0.0418905"><ele>0.0</ele><time>2026-04-29T16:28:57.059Z</time></trkpt><trkpt lat="38.0944294" lon="-0.0418345"><ele>0.0</ele><time>2026-04-29T16:28:58.059Z</time></trkpt><trkpt lat="38.094505" lon="-0.041777"><ele>0.0</ele><time>2026-04-29T16:28:59.059Z</time></trkpt><trkpt lat="38.094578" lon="-0.0417137"><ele>0.0</ele><time>2026-04-29T16:29:00.059Z</time></trkpt><trkpt lat="38.0946452" lon="-0.0416473"><ele>0.0</ele><time>2026-04-29T16:29:01.06Z</time></trkpt><trkpt lat="38.0947167" lon="-0.0415876"><ele>0.0</ele><time>2026-04-29T16:29:02.06Z</time></trkpt><trkpt lat="38.0947894" lon="-0.0415283"><ele>0.0</ele><time>2026-04-29T16:29:03.059Z</time></trkpt><trkpt lat="38.0948658" lon="-0.0414843"><ele>0.0</ele><time>2026-04-29T16:29:04.059Z</time></trkpt><trkpt lat="38.0949394" lon="-0.0414312"><ele>0.0</ele><time>2026-04-29T16:29:05.059Z</time></trkpt><trkpt lat="38.095007" lon="-0.0413763"><ele>0.0</ele><time>2026-04-29T16:29:06.06Z</time></trkpt><trkpt lat="38.095078" lon="-0.0413265"><ele>0.0</ele><time>2026-04-29T16:29:07.059Z</time></trkpt><trkpt lat="38.0951459" lon="-0.0412768"><ele>0.0</ele><time>2026-04-29T16:29:08.06Z</time></trkpt><trkpt lat="38.095214" lon="-0.0412245"><ele>0.0</ele><time>2026-04-29T16:29:09.06Z</time></trkpt><trkpt lat="38.0952866" lon="-0.0411681"><ele>0.0</ele><time>2026-04-29T16:29:10.059Z</time></trkpt><trkpt lat="38.0953667" lon="-0.0411413"><ele>0.0</ele><time>2026-04-29T16:29:11.059Z</time></trkpt><trkpt lat="38.0954445" lon="-0.041085"><ele>0.0</ele><time>2026-04-29T16:29:12.06Z</time></trkpt><trkpt lat="38.0955212" lon="-0.0410181"><ele>0.0</ele><time>2026-04-29T16:29:13.06Z</time></trkpt><trkpt lat="38.0955946" lon="-0.0409592"><ele>0.0</ele><time>2026-04-29T16:29:14.059Z</time></trkpt><trkpt lat="38.0957413" lon="-0.0408424"><ele>0.0</ele><time>2026-04-29T16:29:16.059Z</time></trkpt><trkpt lat="38.095812" lon="-0.0407952"><ele>0.0</ele><time>2026-04-29T16:29:17.059Z</time></trkpt><trkpt lat="38.095885" lon="-0.0407388"><ele>0.0</ele><time>2026-04-29T16:29:18.06Z</time></trkpt><trkpt lat="38.0959584" lon="-0.0406751"><ele>0.0</ele><time>2026-04-29T16:29:19.06Z</time></trkpt><trkpt lat="38.096026" lon="-0.0406175"><ele>0.0</ele><time>2026-04-29T16:29:20.06Z</time></trkpt><trkpt lat="38.0960953" lon="-0.0405597"><ele>0.0</ele><time>2026-04-29T16:29:21.059Z</time></trkpt><trkpt lat="38.0961657" lon="-0.0405082"><ele>0.0</ele><time>2026-04-29T16:29:22.06Z</time></trkpt><trkpt lat="38.0963209" lon="-0.0403851"><ele>0.0</ele><time>2026-04-29T16:29:24.059Z</time></trkpt><trkpt lat="38.0963909" lon="-0.0403202"><ele>0.0</ele><time>2026-04-29T16:29:25.06Z</time></trkpt><trkpt lat="38.0964576" lon="-0.0402566"><ele>0.0</ele><time>2026-04-29T16:29:26.059Z</time></trkpt><trkpt lat="38.0965256" lon="-0.040194"><ele>0.0</ele><time>2026-04-29T16:29:27.06Z</time></trkpt><trkpt lat="38.0965936" lon="-0.0401403"><ele>0.0</ele><time>2026-04-29T16:29:28.06Z</time></trkpt><trkpt lat="38.0966666" lon="-0.0400793"><ele>0.0</ele><time>2026-04-29T16:29:29.059Z</time></trkpt><trkpt lat="38.0967386" lon="-0.0400166"><ele>0.0</ele><time>2026-04-29T16:29:30.06Z</time></trkpt><trkpt lat="38.0968072" lon="-0.0399484"><ele>0.0</ele><time>2026-04-29T16:29:31.06Z</time></trkpt><trkpt lat="38.0968799" lon="-0.0398867"><ele>0.0</ele><time>2026-04-29T16:29:32.06Z</time></trkpt><trkpt lat="38.0969502" lon="-0.0398282"><ele>0.0</ele><time>2026-04-29T16:29:33.06Z</time></trkpt><trkpt lat="38.0970204" lon="-0.0397701"><ele>0.0</ele><time>2026-04-29T16:29:34.059Z</time></trkpt><trkpt lat="38.0970908" lon="-0.0397019"><ele>0.0</ele><time>2026-04-29T16:29:35.059Z</time></trkpt><trkpt lat="38.0972281" lon="-0.0395801"><ele>0.0</ele><time>2026-04-29T16:29:37.059Z</time></trkpt><trkpt lat="38.0972983" lon="-0.0395192"><ele>0.0</ele><time>2026-04-29T16:29:38.059Z</time></trkpt><trkpt lat="38.0973723" lon="-0.0394541"><ele>0.0</ele><time>2026-04-29T16:29:39.06Z</time></trkpt><trkpt lat="38.0974502" lon="-0.0394094"><ele>0.0</ele><time>2026-04-29T16:29:40.06Z</time></trkpt><trkpt lat="38.0975302" lon="-0.039351"><ele>0.0</ele><time>2026-04-29T16:29:41.06Z</time></trkpt><trkpt lat="38.0976002" lon="-0.0392995"><ele>0.0</ele><time>2026-04-29T16:29:42.059Z</time></trkpt><trkpt lat="38.097676" lon="-0.0392376"><ele>0.0</ele><time>2026-04-29T16:29:43.059Z</time></trkpt><trkpt lat="38.0977481" lon="-0.0391739"><ele>0.0</ele><time>2026-04-29T16:29:44.059Z</time></trkpt><trkpt lat="38.0978199" lon="-0.0391105"><ele>0.0</ele><time>2026-04-29T16:29:45.06Z</time></trkpt><trkpt lat="38.0978932" lon="-0.0390786"><ele>0.0</ele><time>2026-04-29T16:29:46.059Z</time></trkpt><trkpt lat="38.0979676" lon="-0.0390394"><ele>0.0</ele><time>2026-04-29T16:29:47.06Z</time></trkpt><trkpt lat="38.0980373" lon="-0.0389924"><ele>0.0</ele><time>2026-04-29T16:29:48.059Z</time></trkpt><trkpt lat="38.0981086" lon="-0.0389357"><ele>0.0</ele><time>2026-04-29T16:29:49.06Z</time></trkpt><trkpt lat="38.0981792" lon="-0.0388711"><ele>0.0</ele><time>2026-04-29T16:29:50.06Z</time></trkpt><trkpt lat="38.0982489" lon="-0.0388137"><ele>0.0</ele><time>2026-04-29T16:29:51.059Z</time></trkpt><trkpt lat="38.0983141" lon="-0.0387563"><ele>0.0</ele><time>2026-04-29T16:29:52.06Z</time></trkpt><trkpt lat="38.098386" lon="-0.0386849"><ele>0.0</ele><time>2026-04-29T16:29:53.06Z</time></trkpt><trkpt lat="38.0984598" lon="-0.0386183"><ele>0.0</ele><time>2026-04-29T16:29:54.06Z</time></trkpt><trkpt lat="38.0985298" lon="-0.0385529"><ele>0.0</ele><time>2026-04-29T16:29:55.06Z</time></trkpt><trkpt lat="38.0987408" lon="-0.0383575"><ele>0.0</ele><time>2026-04-29T16:29:58.059Z</time></trkpt><trkpt lat="38.0988089" lon="-0.0382928"><ele>0.0</ele><time>2026-04-29T16:29:59.059Z</time></trkpt><trkpt lat="38.0988743" lon="-0.0382307"><ele>0.0</ele><time>2026-04-29T16:30:00.059Z</time></trkpt><trkpt lat="38.0989432" lon="-0.0381745"><ele>0.0</ele><time>2026-04-29T16:30:01.059Z</time></trkpt><trkpt lat="38.0990113" lon="-0.0381205"><ele>0.0</ele><time>2026-04-29T16:30:02.06Z</time></trkpt><trkpt lat="38.099081" lon="-0.0380606"><ele>0.0</ele><time>2026-04-29T16:30:03.06Z</time></trkpt><trkpt lat="38.0991544" lon="-0.0380039"><ele>0.0</ele><time>2026-04-29T16:30:04.059Z</time></trkpt><trkpt lat="38.0992193" lon="-0.0379508"><ele>0.0</ele><time>2026-04-29T16:30:05.06Z</time></trkpt><trkpt lat="38.0992843" lon="-0.037896"><ele>0.0</ele><time>2026-04-29T16:30:06.059Z</time></trkpt><trkpt lat="38.0993523" lon="-0.0378396"><ele>0.0</ele><time>2026-04-29T16:30:07.06Z</time></trkpt><trkpt lat="38.0994246" lon="-0.0377799"><ele>0.0</ele><time>2026-04-29T16:30:08.06Z</time></trkpt><trkpt lat="38.0994903" lon="-0.0377211"><ele>0.0</ele><time>2026-04-29T16:30:09.059Z</time></trkpt><trkpt lat="38.0995643" lon="-0.0376602"><ele>0.0</ele><time>2026-04-29T16:30:10.059Z</time></trkpt><trkpt lat="38.0996366" lon="-0.0376029"><ele>0.0</ele><time>2026-04-29T16:30:11.059Z</time></trkpt><trkpt lat="38.0997108" lon="-0.0375463"><ele>0.0</ele><time>2026-04-29T16:30:12.06Z</time></trkpt><trkpt lat="38.0997773" lon="-0.0374971"><ele>0.0</ele><time>2026-04-29T16:30:13.059Z</time></trkpt><trkpt lat="38.0998538" lon="-0.0374554"><ele>0.0</ele><time>2026-04-29T16:30:14.059Z</time></trkpt><trkpt lat="38.0999289" lon="-0.0374079"><ele>0.0</ele><time>2026-04-29T16:30:15.06Z</time></trkpt><trkpt lat="38.1000071" lon="-0.0373516"><ele>0.0</ele><time>2026-04-29T16:30:16.06Z</time></trkpt><trkpt lat="38.1000823" lon="-0.0372903"><ele>0.0</ele><time>2026-04-29T16:30:17.06Z</time></trkpt><trkpt lat="38.1002328" lon="-0.0371715"><ele>0.0</ele><time>2026-04-29T16:30:19.06Z</time></trkpt><trkpt lat="38.1003062" lon="-0.0371168"><ele>0.0</ele><time>2026-04-29T16:30:20.059Z</time></trkpt><trkpt lat="38.1003777" lon="-0.0370644"><ele>0.0</ele><time>2026-04-29T16:30:21.06Z</time></trkpt><trkpt lat="38.100453" lon="-0.037003"><ele>0.0</ele><time>2026-04-29T16:30:22.06Z</time></trkpt><trkpt lat="38.1005296" lon="-0.0369353"><ele>0.0</ele><time>2026-04-29T16:30:23.06Z</time></trkpt><trkpt lat="38.1006006" lon="-0.0368752"><ele>0.0</ele><time>2026-04-29T16:30:24.059Z</time></trkpt><trkpt lat="38.1006722" lon="-0.0368183"><ele>0.0</ele><time>2026-04-29T16:30:25.059Z</time></trkpt><trkpt lat="38.1007409" lon="-0.0367515"><ele>0.0</ele><time>2026-04-29T16:30:26.06Z</time></trkpt><trkpt lat="38.1008103" lon="-0.036694"><ele>0.0</ele><time>2026-04-29T16:30:27.06Z</time></trkpt><trkpt lat="38.1008788" lon="-0.0366347"><ele>0.0</ele><time>2026-04-29T16:30:28.06Z</time></trkpt><trkpt lat="38.1010249" lon="-0.0365269"><ele>0.0</ele><time>2026-04-29T16:30:30.06Z</time></trkpt><trkpt lat="38.1010949" lon="-0.0364612"><ele>0.0</ele><time>2026-04-29T16:30:31.06Z</time></trkpt><trkpt lat="38.1011651" lon="-0.0363976"><ele>0.0</ele><time>2026-04-29T16:30:32.059Z</time></trkpt><trkpt lat="38.101235" lon="-0.0363309"><ele>0.0</ele><time>2026-04-29T16:30:33.059Z</time></trkpt><trkpt lat="38.1013096" lon="-0.0362701"><ele>0.0</ele><time>2026-04-29T16:30:34.06Z</time></trkpt><trkpt lat="38.10138" lon="-0.0362029"><ele>0.0</ele><time>2026-04-29T16:30:35.06Z</time></trkpt><trkpt lat="38.1014571" lon="-0.0361344"><ele>0.0</ele><time>2026-04-29T16:30:36.059Z</time></trkpt><trkpt lat="38.10153" lon="-0.0360706"><ele>0.0</ele><time>2026-04-29T16:30:37.059Z</time></trkpt><trkpt lat="38.1016028" lon="-0.0360146"><ele>0.0</ele><time>2026-04-29T16:30:38.06Z</time></trkpt><trkpt lat="38.1017449" lon="-0.0359068"><ele>0.0</ele><time>2026-04-29T16:30:40.059Z</time></trkpt><trkpt lat="38.1018194" lon="-0.0358613"><ele>0.0</ele><time>2026-04-29T16:30:41.06Z</time></trkpt><trkpt lat="38.1018874" lon="-0.0358077"><ele>0.0</ele><time>2026-04-29T16:30:42.06Z</time></trkpt><trkpt lat="38.1019526" lon="-0.0357527"><ele>0.0</ele><time>2026-04-29T16:30:43.06Z</time></trkpt><trkpt lat="38.1020221" lon="-0.0356902"><ele>0.0</ele><time>2026-04-29T16:30:44.06Z</time></trkpt><trkpt lat="38.1020992" lon="-0.0356318"><ele>0.0</ele><time>2026-04-29T16:30:45.059Z</time></trkpt><trkpt lat="38.1021773" lon="-0.0355851"><ele>0.0</ele><time>2026-04-29T16:30:46.059Z</time></trkpt><trkpt lat="38.1022529" lon="-0.0355274"><ele>0.0</ele><time>2026-04-29T16:30:47.059Z</time></trkpt><trkpt lat="38.102328" lon="-0.0354621"><ele>0.0</ele><time>2026-04-29T16:30:48.06Z</time></trkpt><trkpt lat="38.1024038" lon="-0.0354079"><ele>0.0</ele><time>2026-04-29T16:30:49.06Z</time></trkpt><trkpt lat="38.1024768" lon="-0.0353439"><ele>0.0</ele><time>2026-04-29T16:30:50.059Z</time></trkpt><trkpt lat="38.1025477" lon="-0.0352829"><ele>0.0</ele><time>2026-04-29T16:30:51.059Z</time></trkpt><trkpt lat="38.1026086" lon="-0.0352139"><ele>0.0</ele><time>2026-04-29T16:30:52.059Z</time></trkpt><trkpt lat="38.1026722" lon="-0.0351432"><ele>0.0</ele><time>2026-04-29T16:30:53.059Z</time></trkpt><trkpt lat="38.1027432" lon="-0.0350836"><ele>0.0</ele><time>2026-04-29T16:30:54.059Z</time></trkpt><trkpt lat="38.102812" lon="-0.0350268"><ele>0.0</ele><time>2026-04-29T16:30:55.06Z</time></trkpt><trkpt lat="38.1028805" lon="-0.0349686"><ele>0.0</ele><time>2026-04-29T16:30:56.059Z</time></trkpt><trkpt lat="38.1029501" lon="-0.0349129"><ele>0.0</ele><time>2026-04-29T16:30:57.059Z</time></trkpt><trkpt lat="38.1030186" lon="-0.0348579"><ele>0.0</ele><time>2026-04-29T16:30:58.06Z</time></trkpt><trkpt lat="38.1030901" lon="-0.0348049"><ele>0.0</ele><time>2026-04-29T16:30:59.06Z</time></trkpt><trkpt lat="38.1031628" lon="-0.034751"><ele>0.0</ele><time>2026-04-29T16:31:00.06Z</time></trkpt><trkpt lat="38.1033913" lon="-0.0345985"><ele>0.0</ele><time>2026-04-29T16:31:03.06Z</time></trkpt><trkpt lat="38.1034663" lon="-0.0345419"><ele>0.0</ele><time>2026-04-29T16:31:04.059Z</time></trkpt><trkpt lat="38.1035408" lon="-0.0344867"><ele>0.0</ele><time>2026-04-29T16:31:05.059Z</time></trkpt><trkpt lat="38.1036156" lon="-0.0344307"><ele>0.0</ele><time>2026-04-29T16:31:06.06Z</time></trkpt><trkpt lat="38.1036912" lon="-0.0343774"><ele>0.0</ele><time>2026-04-29T16:31:07.06Z</time></trkpt><trkpt lat="38.1037633" lon="-0.0343252"><ele>0.0</ele><time>2026-04-29T16:31:08.059Z</time></trkpt><trkpt lat="38.1038365" lon="-0.0342729"><ele>0.0</ele><time>2026-04-29T16:31:09.06Z</time></trkpt><trkpt lat="38.1039195" lon="-0.0342374"><ele>0.0</ele><time>2026-04-29T16:31:10.059Z</time></trkpt><trkpt lat="38.103993" lon="-0.0341831"><ele>0.0</ele><time>2026-04-29T16:31:11.059Z</time></trkpt><trkpt lat="38.1040622" lon="-0.0341208"><ele>0.0</ele><time>2026-04-29T16:31:12.06Z</time></trkpt><trkpt lat="38.1041348" lon="-0.0340595"><ele>0.0</ele><time>2026-04-29T16:31:13.059Z</time></trkpt><trkpt lat="38.104207" lon="-0.0339993"><ele>0.0</ele><time>2026-04-29T16:31:14.06Z</time></trkpt><trkpt lat="38.1042801" lon="-0.033936"><ele>0.0</ele><time>2026-04-29T16:31:15.059Z</time></trkpt><trkpt lat="38.1043518" lon="-0.0338939"><ele>0.0</ele><time>2026-04-29T16:31:16.059Z</time></trkpt><trkpt lat="38.1044245" lon="-0.0338609"><ele>0.0</ele><time>2026-04-29T16:31:17.059Z</time></trkpt><trkpt lat="38.1045005" lon="-0.0338326"><ele>0.0</ele><time>2026-04-29T16:31:18.059Z</time></trkpt><trkpt lat="38.1045775" lon="-0.0337974"><ele>0.0</ele><time>2026-04-29T16:31:19.059Z</time></trkpt><trkpt lat="38.1046516" lon="-0.0337427"><ele>0.0</ele><time>2026-04-29T16:31:20.06Z</time></trkpt><trkpt lat="38.1047238" lon="-0.0336758"><ele>0.0</ele><time>2026-04-29T16:31:21.059Z</time></trkpt><trkpt lat="38.1047934" lon="-0.0336084"><ele>0.0</ele><time>2026-04-29T16:31:22.059Z</time></trkpt><trkpt lat="38.1049254" lon="-0.0334939"><ele>0.0</ele><time>2026-04-29T16:31:24.06Z</time></trkpt><trkpt lat="38.1050023" lon="-0.033454"><ele>0.0</ele><time>2026-04-29T16:31:25.059Z</time></trkpt><trkpt lat="38.1050792" lon="-0.0334008"><ele>0.0</ele><time>2026-04-29T16:31:26.059Z</time></trkpt><trkpt lat="38.1051539" lon="-0.0333334"><ele>0.0</ele><time>2026-04-29T16:31:27.06Z</time></trkpt><trkpt lat="38.1052239" lon="-0.0332687"><ele>0.0</ele><time>2026-04-29T16:31:28.059Z</time></trkpt><trkpt lat="38.1052935" lon="-0.0332016"><ele>0.0</ele><time>2026-04-29T16:31:29.059Z</time></trkpt><trkpt lat="38.1053665" lon="-0.0331376"><ele>0.0</ele><time>2026-04-29T16:31:30.06Z</time></trkpt><trkpt lat="38.10544" lon="-0.0330788"><ele>0.0</ele><time>2026-04-29T16:31:31.059Z</time></trkpt><trkpt lat="38.1055059" lon="-0.0330165"><ele>0.0</ele><time>2026-04-29T16:31:32.06Z</time></trkpt><trkpt lat="38.1056404" lon="-0.0329"><ele>0.0</ele><time>2026-04-29T16:31:34.059Z</time></trkpt><trkpt lat="38.1057084" lon="-0.0328417"><ele>0.0</ele><time>2026-04-29T16:31:35.059Z</time></trkpt><trkpt lat="38.1057786" lon="-0.0327754"><ele>0.0</ele><time>2026-04-29T16:31:36.06Z</time></trkpt><trkpt lat="38.105852" lon="-0.0327185"><ele>0.0</ele><time>2026-04-29T16:31:37.059Z</time></trkpt><trkpt lat="38.1059187" lon="-0.0326611"><ele>0.0</ele><time>2026-04-29T16:31:38.06Z</time></trkpt><trkpt lat="38.1059852" lon="-0.032603"><ele>0.0</ele><time>2026-04-29T16:31:39.06Z</time></trkpt><trkpt lat="38.1060561" lon="-0.0325405"><ele>0.0</ele><time>2026-04-29T16:31:40.059Z</time></trkpt><trkpt lat="38.1061352" lon="-0.0324803"><ele>0.0</ele><time>2026-04-29T16:31:41.058Z</time></trkpt><trkpt lat="38.1062125" lon="-0.0324186"><ele>0.0</ele><time>2026-04-29T16:31:42.058Z</time></trkpt><trkpt lat="38.1063682" lon="-0.0322865"><ele>0.0</ele><time>2026-04-29T16:31:44.059Z</time></trkpt><trkpt lat="38.1064371" lon="-0.0322152"><ele>0.0</ele><time>2026-04-29T16:31:45.059Z</time></trkpt><trkpt lat="38.1065026" lon="-0.0321553"><ele>0.0</ele><time>2026-04-29T16:31:46.058Z</time></trkpt><trkpt lat="38.106569" lon="-0.0320999"><ele>0.0</ele><time>2026-04-29T16:31:47.059Z</time></trkpt><trkpt lat="38.10664" lon="-0.0320355"><ele>0.0</ele><time>2026-04-29T16:31:48.058Z</time></trkpt><trkpt lat="38.1067102" lon="-0.0319748"><ele>0.0</ele><time>2026-04-29T16:31:49.059Z</time></trkpt><trkpt lat="38.1067874" lon="-0.0319168"><ele>0.0</ele><time>2026-04-29T16:31:50.058Z</time></trkpt><trkpt lat="38.106857" lon="-0.0318554"><ele>0.0</ele><time>2026-04-29T16:31:51.058Z</time></trkpt><trkpt lat="38.1069253" lon="-0.0317948"><ele>0.0</ele><time>2026-04-29T16:31:52.058Z</time></trkpt><trkpt lat="38.1069954" lon="-0.0317393"><ele>0.0</ele><time>2026-04-29T16:31:53.058Z</time></trkpt><trkpt lat="38.1070668" lon="-0.0316859"><ele>0.0</ele><time>2026-04-29T16:31:54.058Z</time></trkpt><trkpt lat="38.1071411" lon="-0.0316338"><ele>0.0</ele><time>2026-04-29T16:31:55.058Z</time></trkpt><trkpt lat="38.1072101" lon="-0.0315763"><ele>0.0</ele><time>2026-04-29T16:31:56.059Z</time></trkpt><trkpt lat="38.1072787" lon="-0.0315166"><ele>0.0</ele><time>2026-04-29T16:31:57.058Z</time></trkpt><trkpt lat="38.1073558" lon="-0.0314663"><ele>0.0</ele><time>2026-04-29T16:31:58.058Z</time></trkpt><trkpt lat="38.1074354" lon="-0.0314084"><ele>0.0</ele><time>2026-04-29T16:31:59.058Z</time></trkpt><trkpt lat="38.1075083" lon="-0.0313507"><ele>0.0</ele><time>2026-04-29T16:32:00.058Z</time></trkpt><trkpt lat="38.1075811" lon="-0.0312891"><ele>0.0</ele><time>2026-04-29T16:32:01.058Z</time></trkpt><trkpt lat="38.1076556" lon="-0.0312287"><ele>0.0</ele><time>2026-04-29T16:32:02.059Z</time></trkpt><trkpt lat="38.1077266" lon="-0.031163"><ele>0.0</ele><time>2026-04-29T16:32:03.058Z</time></trkpt><trkpt lat="38.107796" lon="-0.0310903"><ele>0.0</ele><time>2026-04-29T16:32:04.058Z</time></trkpt><trkpt lat="38.108001" lon="-0.0309049"><ele>0.0</ele><time>2026-04-29T16:32:07.058Z</time></trkpt><trkpt lat="38.1080777" lon="-0.0308569"><ele>0.0</ele><time>2026-04-29T16:32:08.058Z</time></trkpt><trkpt lat="38.1081547" lon="-0.030803"><ele>0.0</ele><time>2026-04-29T16:32:09.059Z</time></trkpt><trkpt lat="38.108224" lon="-0.0307489"><ele>0.0</ele><time>2026-04-29T16:32:10.058Z</time></trkpt><trkpt lat="38.1082965" lon="-0.0306911"><ele>0.0</ele><time>2026-04-29T16:32:11.058Z</time></trkpt><trkpt lat="38.1083652" lon="-0.0306366"><ele>0.0</ele><time>2026-04-29T16:32:12.058Z</time></trkpt><trkpt lat="38.1084462" lon="-0.0305933"><ele>0.0</ele><time>2026-04-29T16:32:13.058Z</time></trkpt><trkpt lat="38.108519" lon="-0.0305313"><ele>0.0</ele><time>2026-04-29T16:32:14.059Z</time></trkpt><trkpt lat="38.1085796" lon="-0.0304864"><ele>0.0</ele><time>2026-04-29T16:32:15.058Z</time></trkpt><trkpt lat="38.1086588" lon="-0.0304368"><ele>0.0</ele><time>2026-04-29T16:32:16.059Z</time></trkpt><trkpt lat="38.1087359" lon="-0.0303781"><ele>0.0</ele><time>2026-04-29T16:32:17.059Z</time></trkpt><trkpt lat="38.108811" lon="-0.030315"><ele>0.0</ele><time>2026-04-29T16:32:18.059Z</time></trkpt><trkpt lat="38.1088829" lon="-0.0302519"><ele>0.0</ele><time>2026-04-29T16:32:19.059Z</time></trkpt><trkpt lat="38.1089615" lon="-0.0302067"><ele>0.0</ele><time>2026-04-29T16:32:20.058Z</time></trkpt><trkpt lat="38.1090372" lon="-0.0301484"><ele>0.0</ele><time>2026-04-29T16:32:21.058Z</time></trkpt><trkpt lat="38.1091108" lon="-0.0300833"><ele>0.0</ele><time>2026-04-29T16:32:22.059Z</time></trkpt><trkpt lat="38.1091745" lon="-0.0300105"><ele>0.0</ele><time>2026-04-29T16:32:23.058Z</time></trkpt><trkpt lat="38.1092445" lon="-0.0299371"><ele>0.0</ele><time>2026-04-29T16:32:24.059Z</time></trkpt><trkpt lat="38.1093107" lon="-0.0298728"><ele>0.0</ele><time>2026-04-29T16:32:25.058Z</time></trkpt><trkpt lat="38.109377" lon="-0.0298167"><ele>0.0</ele><time>2026-04-29T16:32:26.059Z</time></trkpt><trkpt lat="38.1095143" lon="-0.0297133"><ele>0.0</ele><time>2026-04-29T16:32:28.059Z</time></trkpt><trkpt lat="38.1095893" lon="-0.0296574"><ele>0.0</ele><time>2026-04-29T16:32:29.059Z</time></trkpt><trkpt lat="38.1096618" lon="-0.0295897"><ele>0.0</ele><time>2026-04-29T16:32:30.058Z</time></trkpt><trkpt lat="38.1097362" lon="-0.0295297"><ele>0.0</ele><time>2026-04-29T16:32:31.059Z</time></trkpt><trkpt lat="38.1098067" lon="-0.0294633"><ele>0.0</ele><time>2026-04-29T16:32:32.058Z</time></trkpt><trkpt lat="38.109877" lon="-0.0294094"><ele>0.0</ele><time>2026-04-29T16:32:33.058Z</time></trkpt><trkpt lat="38.1099495" lon="-0.0293588"><ele>0.0</ele><time>2026-04-29T16:32:34.058Z</time></trkpt><trkpt lat="38.1100271" lon="-0.0293233"><ele>0.0</ele><time>2026-04-29T16:32:35.058Z</time></trkpt><trkpt lat="38.110101" lon="-0.0292784"><ele>0.0</ele><time>2026-04-29T16:32:36.059Z</time></trkpt><trkpt lat="38.1102581" lon="-0.0291714"><ele>0.0</ele><time>2026-04-29T16:32:38.059Z</time></trkpt><trkpt lat="38.1103317" lon="-0.0291164"><ele>0.0</ele><time>2026-04-29T16:32:39.058Z</time></trkpt><trkpt lat="38.1104016" lon="-0.0290663"><ele>0.0</ele><time>2026-04-29T16:32:40.058Z</time></trkpt><trkpt lat="38.1104688" lon="-0.0290091"><ele>0.0</ele><time>2026-04-29T16:32:41.058Z</time></trkpt><trkpt lat="38.1105353" lon="-0.0289467"><ele>0.0</ele><time>2026-04-29T16:32:42.058Z</time></trkpt><trkpt lat="38.1106082" lon="-0.0288835"><ele>0.0</ele><time>2026-04-29T16:32:43.058Z</time></trkpt><trkpt lat="38.1106814" lon="-0.0288154"><ele>0.0</ele><time>2026-04-29T16:32:44.058Z</time></trkpt><trkpt lat="38.1107576" lon="-0.0287551"><ele>0.0</ele><time>2026-04-29T16:32:45.059Z</time></trkpt><trkpt lat="38.1108265" lon="-0.0286925"><ele>0.0</ele><time>2026-04-29T16:32:46.058Z</time></trkpt><trkpt lat="38.1109021" lon="-0.0286401"><ele>0.0</ele><time>2026-04-29T16:32:47.059Z</time></trkpt><trkpt lat="38.1110526" lon="-0.0285445"><ele>0.0</ele><time>2026-04-29T16:32:49.058Z</time></trkpt><trkpt lat="38.1111276" lon="-0.0285105"><ele>0.0</ele><time>2026-04-29T16:32:50.059Z</time></trkpt><trkpt lat="38.1112098" lon="-0.0284816"><ele>0.0</ele><time>2026-04-29T16:32:51.059Z</time></trkpt><trkpt lat="38.1112804" lon="-0.0284248"><ele>0.0</ele><time>2026-04-29T16:32:52.059Z</time></trkpt><trkpt lat="38.1113514" lon="-0.0283577"><ele>0.0</ele><time>2026-04-29T16:32:53.058Z</time></trkpt><trkpt lat="38.1114273" lon="-0.028295"><ele>0.0</ele><time>2026-04-29T16:32:54.059Z</time></trkpt><trkpt lat="38.1114984" lon="-0.0282277"><ele>0.0</ele><time>2026-04-29T16:32:55.059Z</time></trkpt><trkpt lat="38.1115679" lon="-0.0281676"><ele>0.0</ele><time>2026-04-29T16:32:56.058Z</time></trkpt><trkpt lat="38.111637" lon="-0.0281089"><ele>0.0</ele><time>2026-04-29T16:32:57.058Z</time></trkpt><trkpt lat="38.1117054" lon="-0.0280652"><ele>0.0</ele><time>2026-04-29T16:32:58.059Z</time></trkpt><trkpt lat="38.1117797" lon="-0.0280311"><ele>0.0</ele><time>2026-04-29T16:32:59.059Z</time></trkpt><trkpt lat="38.1118545" lon="-0.027971"><ele>0.0</ele><time>2026-04-29T16:33:00.059Z</time></trkpt><trkpt lat="38.1119254" lon="-0.0279142"><ele>0.0</ele><time>2026-04-29T16:33:01.059Z</time></trkpt><trkpt lat="38.1119911" lon="-0.0278351"><ele>0.0</ele><time>2026-04-29T16:33:02.058Z</time></trkpt><trkpt lat="38.1120602" lon="-0.0277684"><ele>0.0</ele><time>2026-04-29T16:33:03.059Z</time></trkpt><trkpt lat="38.1121283" lon="-0.027703"><ele>0.0</ele><time>2026-04-29T16:33:04.058Z</time></trkpt><trkpt lat="38.1122006" lon="-0.0276391"><ele>0.0</ele><time>2026-04-29T16:33:05.059Z</time></trkpt><trkpt lat="38.1122725" lon="-0.0275693"><ele>0.0</ele><time>2026-04-29T16:33:06.059Z</time></trkpt><trkpt lat="38.1123447" lon="-0.0274979"><ele>0.0</ele><time>2026-04-29T16:33:07.058Z</time></trkpt><trkpt lat="38.1124139" lon="-0.0274305"><ele>0.0</ele><time>2026-04-29T16:33:08.059Z</time></trkpt><trkpt lat="38.1126247" lon="-0.0272409"><ele>0.0</ele><time>2026-04-29T16:33:11.058Z</time></trkpt><trkpt lat="38.1127005" lon="-0.0271746"><ele>0.0</ele><time>2026-04-29T16:33:12.059Z</time></trkpt><trkpt lat="38.1127654" lon="-0.0271051"><ele>0.0</ele><time>2026-04-29T16:33:13.059Z</time></trkpt><trkpt lat="38.1128301" lon="-0.027038"><ele>0.0</ele><time>2026-04-29T16:33:14.058Z</time></trkpt><trkpt lat="38.1128969" lon="-0.0269751"><ele>0.0</ele><time>2026-04-29T16:33:15.058Z</time></trkpt><trkpt lat="38.1129686" lon="-0.0269162"><ele>0.0</ele><time>2026-04-29T16:33:16.058Z</time></trkpt><trkpt lat="38.1130396" lon="-0.0268581"><ele>0.0</ele><time>2026-04-29T16:33:17.059Z</time></trkpt><trkpt lat="38.113111" lon="-0.0268068"><ele>0.0</ele><time>2026-04-29T16:33:18.059Z</time></trkpt><trkpt lat="38.1131861" lon="-0.0267657"><ele>0.0</ele><time>2026-04-29T16:33:19.059Z</time></trkpt><trkpt lat="38.11326" lon="-0.0267201"><ele>0.0</ele><time>2026-04-29T16:33:20.059Z</time></trkpt><trkpt lat="38.1133361" lon="-0.0266751"><ele>0.0</ele><time>2026-04-29T16:33:21.058Z</time></trkpt><trkpt lat="38.1134096" lon="-0.0266219"><ele>0.0</ele><time>2026-04-29T16:33:22.058Z</time></trkpt><trkpt lat="38.1134884" lon="-0.0265754"><ele>0.0</ele><time>2026-04-29T16:33:23.058Z</time></trkpt><trkpt lat="38.1135661" lon="-0.0265186"><ele>0.0</ele><time>2026-04-29T16:33:24.059Z</time></trkpt><trkpt lat="38.1136412" lon="-0.0264556"><ele>0.0</ele><time>2026-04-29T16:33:25.058Z</time></trkpt><trkpt lat="38.1137131" lon="-0.0263932"><ele>0.0</ele><time>2026-04-29T16:33:26.058Z</time></trkpt><trkpt lat="38.1137774" lon="-0.0263308"><ele>0.0</ele><time>2026-04-29T16:33:27.058Z</time></trkpt><trkpt lat="38.1138452" lon="-0.0262707"><ele>0.0</ele><time>2026-04-29T16:33:28.059Z</time></trkpt><trkpt lat="38.1139156" lon="-0.0262201"><ele>0.0</ele><time>2026-04-29T16:33:29.058Z</time></trkpt><trkpt lat="38.1139848" lon="-0.0261673"><ele>0.0</ele><time>2026-04-29T16:33:30.058Z</time></trkpt><trkpt lat="38.1141264" lon="-0.0260656"><ele>0.0</ele><time>2026-04-29T16:33:32.058Z</time></trkpt><trkpt lat="38.1142026" lon="-0.0260279"><ele>0.0</ele><time>2026-04-29T16:33:33.058Z</time></trkpt><trkpt lat="38.114283" lon="-0.0259835"><ele>0.0</ele><time>2026-04-29T16:33:34.058Z</time></trkpt><trkpt lat="38.1143598" lon="-0.0259292"><ele>0.0</ele><time>2026-04-29T16:33:35.059Z</time></trkpt><trkpt lat="38.114426" lon="-0.0258614"><ele>0.0</ele><time>2026-04-29T16:33:36.058Z</time></trkpt><trkpt lat="38.1144994" lon="-0.0258033"><ele>0.0</ele><time>2026-04-29T16:33:37.058Z</time></trkpt><trkpt lat="38.1145742" lon="-0.0257463"><ele>0.0</ele><time>2026-04-29T16:33:38.059Z</time></trkpt><trkpt lat="38.1146509" lon="-0.025688"><ele>0.0</ele><time>2026-04-29T16:33:39.059Z</time></trkpt><trkpt lat="38.1147191" lon="-0.0256184"><ele>0.0</ele><time>2026-04-29T16:33:40.058Z</time></trkpt><trkpt lat="38.1147901" lon="-0.0255581"><ele>0.0</ele><time>2026-04-29T16:33:41.058Z</time></trkpt><trkpt lat="38.1148617" lon="-0.0255026"><ele>0.0</ele><time>2026-04-29T16:33:42.059Z</time></trkpt><trkpt lat="38.1149391" lon="-0.0254442"><ele>0.0</ele><time>2026-04-29T16:33:43.059Z</time></trkpt><trkpt lat="38.1150142" lon="-0.025384"><ele>0.0</ele><time>2026-04-29T16:33:44.059Z</time></trkpt><trkpt lat="38.1150937" lon="-0.0253182"><ele>0.0</ele><time>2026-04-29T16:33:45.059Z</time></trkpt><trkpt lat="38.1151636" lon="-0.0252486"><ele>0.0</ele><time>2026-04-29T16:33:46.059Z</time></trkpt><trkpt lat="38.1152319" lon="-0.0251734"><ele>0.0</ele><time>2026-04-29T16:33:47.059Z</time></trkpt><trkpt lat="38.1153023" lon="-0.0251086"><ele>0.0</ele><time>2026-04-29T16:33:48.059Z</time></trkpt><trkpt lat="38.1153707" lon="-0.0250495"><ele>0.0</ele><time>2026-04-29T16:33:49.059Z</time></trkpt><trkpt lat="38.11544" lon="-0.0249869"><ele>0.0</ele><time>2026-04-29T16:33:50.058Z</time></trkpt><trkpt lat="38.1155129" lon="-0.024934"><ele>0.0</ele><time>2026-04-29T16:33:51.058Z</time></trkpt><trkpt lat="38.115655" lon="-0.0248163"><ele>0.0</ele><time>2026-04-29T16:33:53.058Z</time></trkpt><trkpt lat="38.1157267" lon="-0.0247546"><ele>0.0</ele><time>2026-04-29T16:33:54.058Z</time></trkpt><trkpt lat="38.1158014" lon="-0.0246942"><ele>0.0</ele><time>2026-04-29T16:33:55.058Z</time></trkpt><trkpt lat="38.115878" lon="-0.0246384"><ele>0.0</ele><time>2026-04-29T16:33:56.058Z</time></trkpt><trkpt lat="38.1159483" lon="-0.024579"><ele>0.0</ele><time>2026-04-29T16:33:57.058Z</time></trkpt><trkpt lat="38.1160166" lon="-0.0245093"><ele>0.0</ele><time>2026-04-29T16:33:58.058Z</time></trkpt><trkpt lat="38.116085" lon="-0.0244459"><ele>0.0</ele><time>2026-04-29T16:33:59.058Z</time></trkpt><trkpt lat="38.1161533" lon="-0.0243865"><ele>0.0</ele><time>2026-04-29T16:34:00.059Z</time></trkpt><trkpt lat="38.1162236" lon="-0.0243295"><ele>0.0</ele><time>2026-04-29T16:34:01.058Z</time></trkpt><trkpt lat="38.116288" lon="-0.0242827"><ele>0.0</ele><time>2026-04-29T16:34:02.059Z</time></trkpt><trkpt lat="38.1163669" lon="-0.024269"><ele>0.0</ele><time>2026-04-29T16:34:03.059Z</time></trkpt><trkpt lat="38.11645" lon="-0.0242573"><ele>0.0</ele><time>2026-04-29T16:34:04.059Z</time></trkpt><trkpt lat="38.1165305" lon="-0.0242298"><ele>0.0</ele><time>2026-04-29T16:34:05.058Z</time></trkpt><trkpt lat="38.1166091" lon="-0.0241846"><ele>0.0</ele><time>2026-04-29T16:34:06.058Z</time></trkpt><trkpt lat="38.1166847" lon="-0.0241337"><ele>0.0</ele><time>2026-04-29T16:34:07.059Z</time></trkpt><trkpt lat="38.1167618" lon="-0.024084"><ele>0.0</ele><time>2026-04-29T16:34:08.058Z</time></trkpt><trkpt lat="38.1168311" lon="-0.0240228"><ele>0.0</ele><time>2026-04-29T16:34:09.059Z</time></trkpt><trkpt lat="38.1168976" lon="-0.0239663"><ele>0.0</ele><time>2026-04-29T16:34:10.058Z</time></trkpt><trkpt lat="38.1169653" lon="-0.0239028"><ele>0.0</ele><time>2026-04-29T16:34:11.059Z</time></trkpt><trkpt lat="38.1171726" lon="-0.023726"><ele>0.0</ele><time>2026-04-29T16:34:14.058Z</time></trkpt><trkpt lat="38.1172435" lon="-0.0236648"><ele>0.0</ele><time>2026-04-29T16:34:15.058Z</time></trkpt><trkpt lat="38.1173165" lon="-0.0235976"><ele>0.0</ele><time>2026-04-29T16:34:16.058Z</time></trkpt><trkpt lat="38.1173954" lon="-0.023555"><ele>0.0</ele><time>2026-04-29T16:34:17.059Z</time></trkpt><trkpt lat="38.1174703" lon="-0.0234993"><ele>0.0</ele><time>2026-04-29T16:34:18.059Z</time></trkpt><trkpt lat="38.117546" lon="-0.023448"><ele>0.0</ele><time>2026-04-29T16:34:19.059Z</time></trkpt><trkpt lat="38.1176199" lon="-0.0233974"><ele>0.0</ele><time>2026-04-29T16:34:20.058Z</time></trkpt><trkpt lat="38.1176904" lon="-0.0233417"><ele>0.0</ele><time>2026-04-29T16:34:21.059Z</time></trkpt><trkpt lat="38.1177599" lon="-0.0232804"><ele>0.0</ele><time>2026-04-29T16:34:22.059Z</time></trkpt><trkpt lat="38.1178301" lon="-0.0232119"><ele>0.0</ele><time>2026-04-29T16:34:23.058Z</time></trkpt><trkpt lat="38.1179001" lon="-0.0231502"><ele>0.0</ele><time>2026-04-29T16:34:24.058Z</time></trkpt><trkpt lat="38.1179734" lon="-0.0230909"><ele>0.0</ele><time>2026-04-29T16:34:25.059Z</time></trkpt><trkpt lat="38.1180417" lon="-0.0230294"><ele>0.0</ele><time>2026-04-29T16:34:26.059Z</time></trkpt><trkpt lat="38.1181148" lon="-0.0229713"><ele>0.0</ele><time>2026-04-29T16:34:27.058Z</time></trkpt><trkpt lat="38.1181884" lon="-0.0229241"><ele>0.0</ele><time>2026-04-29T16:34:28.059Z</time></trkpt><trkpt lat="38.1182631" lon="-0.0228714"><ele>0.0</ele><time>2026-04-29T16:34:29.058Z</time></trkpt><trkpt lat="38.1183333" lon="-0.0228163"><ele>0.0</ele><time>2026-04-29T16:34:30.058Z</time></trkpt><trkpt lat="38.1184077" lon="-0.0227624"><ele>0.0</ele><time>2026-04-29T16:34:31.059Z</time></trkpt><trkpt lat="38.1184824" lon="-0.0227061"><ele>0.0</ele><time>2026-04-29T16:34:32.059Z</time></trkpt><trkpt lat="38.1185574" lon="-0.0226483"><ele>0.0</ele><time>2026-04-29T16:34:33.058Z</time></trkpt><trkpt lat="38.1186953" lon="-0.0225221"><ele>0.0</ele><time>2026-04-29T16:34:35.058Z</time></trkpt><trkpt lat="38.1187665" lon="-0.0224564"><ele>0.0</ele><time>2026-04-29T16:34:36.059Z</time></trkpt><trkpt lat="38.1188354" lon="-0.0223915"><ele>0.0</ele><time>2026-04-29T16:34:37.058Z</time></trkpt><trkpt lat="38.1189122" lon="-0.0223313"><ele>0.0</ele><time>2026-04-29T16:34:38.059Z</time></trkpt><trkpt lat="38.1189889" lon="-0.0222712"><ele>0.0</ele><time>2026-04-29T16:34:39.058Z</time></trkpt><trkpt lat="38.1190615" lon="-0.0222106"><ele>0.0</ele><time>2026-04-29T16:34:40.059Z</time></trkpt><trkpt lat="38.1191319" lon="-0.0221506"><ele>0.0</ele><time>2026-04-29T16:34:41.059Z</time></trkpt><trkpt lat="38.1192018" lon="-0.0221058"><ele>0.0</ele><time>2026-04-29T16:34:42.058Z</time></trkpt><trkpt lat="38.1192703" lon="-0.0220451"><ele>0.0</ele><time>2026-04-29T16:34:43.058Z</time></trkpt><trkpt lat="38.1193401" lon="-0.0219889"><ele>0.0</ele><time>2026-04-29T16:34:44.058Z</time></trkpt><trkpt lat="38.1194083" lon="-0.0219279"><ele>0.0</ele><time>2026-04-29T16:34:45.058Z</time></trkpt><trkpt lat="38.1194739" lon="-0.0218748"><ele>0.0</ele><time>2026-04-29T16:34:46.058Z</time></trkpt><trkpt lat="38.1195447" lon="-0.0218221"><ele>0.0</ele><time>2026-04-29T16:34:47.059Z</time></trkpt><trkpt lat="38.1196192" lon="-0.0217723"><ele>0.0</ele><time>2026-04-29T16:34:48.059Z</time></trkpt><trkpt lat="38.1196917" lon="-0.0217153"><ele>0.0</ele><time>2026-04-29T16:34:49.058Z</time></trkpt><trkpt lat="38.1197632" lon="-0.0216539"><ele>0.0</ele><time>2026-04-29T16:34:50.058Z</time></trkpt><trkpt lat="38.119835" lon="-0.0215935"><ele>0.0</ele><time>2026-04-29T16:34:51.058Z</time></trkpt><trkpt lat="38.1199048" lon="-0.0215289"><ele>0.0</ele><time>2026-04-29T16:34:52.059Z</time></trkpt><trkpt lat="38.119976" lon="-0.0214668"><ele>0.0</ele><time>2026-04-29T16:34:53.058Z</time></trkpt><trkpt lat="38.1200451" lon="-0.021408"><ele>0.0</ele><time>2026-04-29T16:34:54.059Z</time></trkpt><trkpt lat="38.1201923" lon="-0.0212944"><ele>0.0</ele><time>2026-04-29T16:34:56.058Z</time></trkpt><trkpt lat="38.1202647" lon="-0.0212482"><ele>0.0</ele><time>2026-04-29T16:34:57.059Z</time></trkpt><trkpt lat="38.120341" lon="-0.0211907"><ele>0.0</ele><time>2026-04-29T16:34:58.059Z</time></trkpt><trkpt lat="38.1204209" lon="-0.0211266"><ele>0.0</ele><time>2026-04-29T16:34:59.058Z</time></trkpt><trkpt lat="38.1204922" lon="-0.021063"><ele>0.0</ele><time>2026-04-29T16:35:00.058Z</time></trkpt><trkpt lat="38.1205663" lon="-0.0210024"><ele>0.0</ele><time>2026-04-29T16:35:01.058Z</time></trkpt><trkpt lat="38.1206355" lon="-0.0209439"><ele>0.0</ele><time>2026-04-29T16:35:02.058Z</time></trkpt><trkpt lat="38.1207083" lon="-0.0208883"><ele>0.0</ele><time>2026-04-29T16:35:03.058Z</time></trkpt><trkpt lat="38.1207844" lon="-0.0208361"><ele>0.0</ele><time>2026-04-29T16:35:04.059Z</time></trkpt><trkpt lat="38.1208568" lon="-0.0207727"><ele>0.0</ele><time>2026-04-29T16:35:05.058Z</time></trkpt><trkpt lat="38.120927" lon="-0.0207077"><ele>0.0</ele><time>2026-04-29T16:35:06.059Z</time></trkpt><trkpt lat="38.1209955" lon="-0.0206425"><ele>0.0</ele><time>2026-04-29T16:35:07.059Z</time></trkpt><trkpt lat="38.1210642" lon="-0.0205767"><ele>0.0</ele><time>2026-04-29T16:35:08.059Z</time></trkpt><trkpt lat="38.1211381" lon="-0.0205132"><ele>0.0</ele><time>2026-04-29T16:35:09.058Z</time></trkpt><trkpt lat="38.1212225" lon="-0.020462"><ele>0.0</ele><time>2026-04-29T16:35:10.058Z</time></trkpt><trkpt lat="38.1212973" lon="-0.0204032"><ele>0.0</ele><time>2026-04-29T16:35:11.058Z</time></trkpt><trkpt lat="38.1213675" lon="-0.0203452"><ele>0.0</ele><time>2026-04-29T16:35:12.058Z</time></trkpt><trkpt lat="38.1214374" lon="-0.020288"><ele>0.0</ele><time>2026-04-29T16:35:13.058Z</time></trkpt><trkpt lat="38.1215085" lon="-0.0202298"><ele>0.0</ele><time>2026-04-29T16:35:14.058Z</time></trkpt><trkpt lat="38.1215812" lon="-0.0201957"><ele>0.0</ele><time>2026-04-29T16:35:15.058Z</time></trkpt><trkpt lat="38.1216485" lon="-0.020143"><ele>0.0</ele><time>2026-04-29T16:35:16.059Z</time></trkpt><trkpt lat="38.1217868" lon="-0.0200333"><ele>0.0</ele><time>2026-04-29T16:35:18.058Z</time></trkpt><trkpt lat="38.1218567" lon="-0.0199766"><ele>0.0</ele><time>2026-04-29T16:35:19.058Z</time></trkpt><trkpt lat="38.1219325" lon="-0.0199227"><ele>0.0</ele><time>2026-04-29T16:35:20.059Z</time></trkpt><trkpt lat="38.1220076" lon="-0.0198734"><ele>0.0</ele><time>2026-04-29T16:35:21.059Z</time></trkpt><trkpt lat="38.1220858" lon="-0.0198314"><ele>0.0</ele><time>2026-04-29T16:35:22.059Z</time></trkpt><trkpt lat="38.1221567" lon="-0.0197796"><ele>0.0</ele><time>2026-04-29T16:35:23.058Z</time></trkpt><trkpt lat="38.1222312" lon="-0.0197253"><ele>0.0</ele><time>2026-04-29T16:35:24.058Z</time></trkpt><trkpt lat="38.1223091" lon="-0.0196728"><ele>0.0</ele><time>2026-04-29T16:35:25.059Z</time></trkpt><trkpt lat="38.1223833" lon="-0.0196144"><ele>0.0</ele><time>2026-04-29T16:35:26.058Z</time></trkpt><trkpt lat="38.1224525" lon="-0.019553"><ele>0.0</ele><time>2026-04-29T16:35:27.058Z</time></trkpt><trkpt lat="38.122521" lon="-0.0194856"><ele>0.0</ele><time>2026-04-29T16:35:28.059Z</time></trkpt><trkpt lat="38.1225888" lon="-0.0194294"><ele>0.0</ele><time>2026-04-29T16:35:29.058Z</time></trkpt><trkpt lat="38.1226543" lon="-0.0193722"><ele>0.0</ele><time>2026-04-29T16:35:30.058Z</time></trkpt><trkpt lat="38.1227251" lon="-0.0193121"><ele>0.0</ele><time>2026-04-29T16:35:31.058Z</time></trkpt><trkpt lat="38.1227924" lon="-0.0192484"><ele>0.0</ele><time>2026-04-29T16:35:32.057Z</time></trkpt><trkpt lat="38.1228637" lon="-0.0191847"><ele>0.0</ele><time>2026-04-29T16:35:33.057Z</time></trkpt><trkpt lat="38.1229282" lon="-0.0191144"><ele>0.0</ele><time>2026-04-29T16:35:34.057Z</time></trkpt><trkpt lat="38.1229954" lon="-0.0190441"><ele>0.0</ele><time>2026-04-29T16:35:35.058Z</time></trkpt><trkpt lat="38.1230647" lon="-0.0189831"><ele>0.0</ele><time>2026-04-29T16:35:36.058Z</time></trkpt><trkpt lat="38.1231393" lon="-0.0189319"><ele>0.0</ele><time>2026-04-29T16:35:37.058Z</time></trkpt><trkpt lat="38.1232849" lon="-0.0188436"><ele>0.0</ele><time>2026-04-29T16:35:39.058Z</time></trkpt><trkpt lat="38.1233521" lon="-0.018788"><ele>0.0</ele><time>2026-04-29T16:35:40.057Z</time></trkpt><trkpt lat="38.1234233" lon="-0.0187242"><ele>0.0</ele><time>2026-04-29T16:35:41.058Z</time></trkpt><trkpt lat="38.1235014" lon="-0.0186787"><ele>0.0</ele><time>2026-04-29T16:35:42.058Z</time></trkpt><trkpt lat="38.1235759" lon="-0.0186243"><ele>0.0</ele><time>2026-04-29T16:35:43.057Z</time></trkpt><trkpt lat="38.1236419" lon="-0.0185604"><ele>0.0</ele><time>2026-04-29T16:35:44.058Z</time></trkpt><trkpt lat="38.1237043" lon="-0.0184901"><ele>0.0</ele><time>2026-04-29T16:35:45.057Z</time></trkpt><trkpt lat="38.1237685" lon="-0.0184285"><ele>0.0</ele><time>2026-04-29T16:35:46.057Z</time></trkpt><trkpt lat="38.123918" lon="-0.0183176"><ele>0.0</ele><time>2026-04-29T16:35:48.058Z</time></trkpt><trkpt lat="38.1239882" lon="-0.0182537"><ele>0.0</ele><time>2026-04-29T16:35:49.057Z</time></trkpt><trkpt lat="38.1240612" lon="-0.0181948"><ele>0.0</ele><time>2026-04-29T16:35:50.057Z</time></trkpt><trkpt lat="38.1241315" lon="-0.0181294"><ele>0.0</ele><time>2026-04-29T16:35:51.058Z</time></trkpt><trkpt lat="38.1242031" lon="-0.0180677"><ele>0.0</ele><time>2026-04-29T16:35:52.057Z</time></trkpt><trkpt lat="38.1242791" lon="-0.0180068"><ele>0.0</ele><time>2026-04-29T16:35:53.057Z</time></trkpt><trkpt lat="38.1243559" lon="-0.0179357"><ele>0.0</ele><time>2026-04-29T16:35:54.058Z</time></trkpt><trkpt lat="38.1244269" lon="-0.0178695"><ele>0.0</ele><time>2026-04-29T16:35:55.058Z</time></trkpt><trkpt lat="38.1244967" lon="-0.0178026"><ele>0.0</ele><time>2026-04-29T16:35:56.057Z</time></trkpt><trkpt lat="38.1245681" lon="-0.0177383"><ele>0.0</ele><time>2026-04-29T16:35:57.057Z</time></trkpt><trkpt lat="38.1247002" lon="-0.0176211"><ele>0.0</ele><time>2026-04-29T16:35:59.057Z</time></trkpt><trkpt lat="38.1247715" lon="-0.0175542"><ele>0.0</ele><time>2026-04-29T16:36:00.057Z</time></trkpt><trkpt lat="38.124845" lon="-0.0174902"><ele>0.0</ele><time>2026-04-29T16:36:01.057Z</time></trkpt><trkpt lat="38.1249164" lon="-0.0174315"><ele>0.0</ele><time>2026-04-29T16:36:02.057Z</time></trkpt><trkpt lat="38.1249908" lon="-0.0173812"><ele>0.0</ele><time>2026-04-29T16:36:03.058Z</time></trkpt><trkpt lat="38.125059" lon="-0.0173276"><ele>0.0</ele><time>2026-04-29T16:36:04.058Z</time></trkpt><trkpt lat="38.1251326" lon="-0.017276"><ele>0.0</ele><time>2026-04-29T16:36:05.058Z</time></trkpt><trkpt lat="38.125209" lon="-0.0172185"><ele>0.0</ele><time>2026-04-29T16:36:06.058Z</time></trkpt><trkpt lat="38.1252871" lon="-0.0171648"><ele>0.0</ele><time>2026-04-29T16:36:07.057Z</time></trkpt><trkpt lat="38.1253658" lon="-0.0171168"><ele>0.0</ele><time>2026-04-29T16:36:08.058Z</time></trkpt><trkpt lat="38.1254396" lon="-0.0170596"><ele>0.0</ele><time>2026-04-29T16:36:09.058Z</time></trkpt><trkpt lat="38.1255115" lon="-0.0169992"><ele>0.0</ele><time>2026-04-29T16:36:10.058Z</time></trkpt><trkpt lat="38.1255905" lon="-0.0169452"><ele>0.0</ele><time>2026-04-29T16:36:11.057Z</time></trkpt><trkpt lat="38.1256658" lon="-0.0168853"><ele>0.0</ele><time>2026-04-29T16:36:12.057Z</time></trkpt><trkpt lat="38.1257392" lon="-0.0168294"><ele>0.0</ele><time>2026-04-29T16:36:13.057Z</time></trkpt><trkpt lat="38.1258131" lon="-0.0167699"><ele>0.0</ele><time>2026-04-29T16:36:14.058Z</time></trkpt><trkpt lat="38.1258867" lon="-0.0167099"><ele>0.0</ele><time>2026-04-29T16:36:15.057Z</time></trkpt><trkpt lat="38.1259556" lon="-0.0166528"><ele>0.0</ele><time>2026-04-29T16:36:16.058Z</time></trkpt><trkpt lat="38.126031" lon="-0.0166297"><ele>0.0</ele><time>2026-04-29T16:36:17.057Z</time></trkpt><trkpt lat="38.1261017" lon="-0.0165941"><ele>0.0</ele><time>2026-04-29T16:36:18.058Z</time></trkpt><trkpt lat="38.1263124" lon="-0.0164551"><ele>0.0</ele><time>2026-04-29T16:36:21.058Z</time></trkpt><trkpt lat="38.126388" lon="-0.0163983"><ele>0.0</ele><time>2026-04-29T16:36:22.058Z</time></trkpt><trkpt lat="38.126463" lon="-0.0163386"><ele>0.0</ele><time>2026-04-29T16:36:23.057Z</time></trkpt><trkpt lat="38.1265373" lon="-0.0162814"><ele>0.0</ele><time>2026-04-29T16:36:24.057Z</time></trkpt><trkpt lat="38.1266035" lon="-0.0162115"><ele>0.0</ele><time>2026-04-29T16:36:25.057Z</time></trkpt><trkpt lat="38.1266749" lon="-0.0161547"><ele>0.0</ele><time>2026-04-29T16:36:26.057Z</time></trkpt><trkpt lat="38.1267492" lon="-0.0160996"><ele>0.0</ele><time>2026-04-29T16:36:27.057Z</time></trkpt><trkpt lat="38.1268184" lon="-0.016046"><ele>0.0</ele><time>2026-04-29T16:36:28.058Z</time></trkpt><trkpt lat="38.1268869" lon="-0.0159799"><ele>0.0</ele><time>2026-04-29T16:36:29.058Z</time></trkpt><trkpt lat="38.1269585" lon="-0.015926"><ele>0.0</ele><time>2026-04-29T16:36:30.057Z</time></trkpt><trkpt lat="38.127036" lon="-0.0158756"><ele>0.0</ele><time>2026-04-29T16:36:31.057Z</time></trkpt><trkpt lat="38.1271043" lon="-0.0158174"><ele>0.0</ele><time>2026-04-29T16:36:32.058Z</time></trkpt><trkpt lat="38.1271651" lon="-0.0157574"><ele>0.0</ele><time>2026-04-29T16:36:33.057Z</time></trkpt><trkpt lat="38.1272348" lon="-0.0156998"><ele>0.0</ele><time>2026-04-29T16:36:34.058Z</time></trkpt><trkpt lat="38.1273048" lon="-0.0156405"><ele>0.0</ele><time>2026-04-29T16:36:35.058Z</time></trkpt><trkpt lat="38.1273705" lon="-0.0155834"><ele>0.0</ele><time>2026-04-29T16:36:36.058Z</time></trkpt><trkpt lat="38.1274386" lon="-0.0155223"><ele>0.0</ele><time>2026-04-29T16:36:37.057Z</time></trkpt><trkpt lat="38.1275151" lon="-0.01549"><ele>0.0</ele><time>2026-04-29T16:36:38.058Z</time></trkpt><trkpt lat="38.1275861" lon="-0.0154334"><ele>0.0</ele><time>2026-04-29T16:36:39.057Z</time></trkpt><trkpt lat="38.127661" lon="-0.0153781"><ele>0.0</ele><time>2026-04-29T16:36:40.057Z</time></trkpt><trkpt lat="38.1278082" lon="-0.0152905"><ele>0.0</ele><time>2026-04-29T16:36:42.057Z</time></trkpt><trkpt lat="38.1278844" lon="-0.0152353"><ele>0.0</ele><time>2026-04-29T16:36:43.057Z</time></trkpt><trkpt lat="38.1279614" lon="-0.0151873"><ele>0.0</ele><time>2026-04-29T16:36:44.057Z</time></trkpt><trkpt lat="38.1280303" lon="-0.0151215"><ele>0.0</ele><time>2026-04-29T16:36:45.057Z</time></trkpt><trkpt lat="38.1280943" lon="-0.015055"><ele>0.0</ele><time>2026-04-29T16:36:46.057Z</time></trkpt><trkpt lat="38.1281618" lon="-0.0149956"><ele>0.0</ele><time>2026-04-29T16:36:47.057Z</time></trkpt><trkpt lat="38.1282329" lon="-0.0149387"><ele>0.0</ele><time>2026-04-29T16:36:48.057Z</time></trkpt><trkpt lat="38.1283022" lon="-0.0148797"><ele>0.0</ele><time>2026-04-29T16:36:49.057Z</time></trkpt><trkpt lat="38.1283731" lon="-0.0148295"><ele>0.0</ele><time>2026-04-29T16:36:50.058Z</time></trkpt><trkpt lat="38.1285217" lon="-0.0147209"><ele>0.0</ele><time>2026-04-29T16:36:52.057Z</time></trkpt><trkpt lat="38.128592" lon="-0.0146624"><ele>0.0</ele><time>2026-04-29T16:36:53.057Z</time></trkpt><trkpt lat="38.1286678" lon="-0.0146052"><ele>0.0</ele><time>2026-04-29T16:36:54.058Z</time></trkpt><trkpt lat="38.1287489" lon="-0.0145531"><ele>0.0</ele><time>2026-04-29T16:36:55.058Z</time></trkpt><trkpt lat="38.1288232" lon="-0.0144978"><ele>0.0</ele><time>2026-04-29T16:36:56.058Z</time></trkpt><trkpt lat="38.1289006" lon="-0.0144426"><ele>0.0</ele><time>2026-04-29T16:36:57.058Z</time></trkpt><trkpt lat="38.1289707" lon="-0.0143869"><ele>0.0</ele><time>2026-04-29T16:36:58.058Z</time></trkpt><trkpt lat="38.1290403" lon="-0.0143371"><ele>0.0</ele><time>2026-04-29T16:36:59.058Z</time></trkpt><trkpt lat="38.1291132" lon="-0.0142821"><ele>0.0</ele><time>2026-04-29T16:37:00.057Z</time></trkpt><trkpt lat="38.1291921" lon="-0.0142248"><ele>0.0</ele><time>2026-04-29T16:37:01.058Z</time></trkpt><trkpt lat="38.1293362" lon="-0.0141045"><ele>0.0</ele><time>2026-04-29T16:37:03.058Z</time></trkpt><trkpt lat="38.1294116" lon="-0.014046"><ele>0.0</ele><time>2026-04-29T16:37:04.057Z</time></trkpt><trkpt lat="38.1294834" lon="-0.013976"><ele>0.0</ele><time>2026-04-29T16:37:05.057Z</time></trkpt><trkpt lat="38.1295534" lon="-0.0139267"><ele>0.0</ele><time>2026-04-29T16:37:06.057Z</time></trkpt><trkpt lat="38.1296249" lon="-0.0138689"><ele>0.0</ele><time>2026-04-29T16:37:07.057Z</time></trkpt><trkpt lat="38.1296937" lon="-0.0137995"><ele>0.0</ele><time>2026-04-29T16:37:08.058Z</time></trkpt><trkpt lat="38.1297679" lon="-0.0137534"><ele>0.0</ele><time>2026-04-29T16:37:09.057Z</time></trkpt><trkpt lat="38.1298412" lon="-0.0136957"><ele>0.0</ele><time>2026-04-29T16:37:10.057Z</time></trkpt><trkpt lat="38.1299104" lon="-0.0136377"><ele>0.0</ele><time>2026-04-29T16:37:11.058Z</time></trkpt><trkpt lat="38.1299827" lon="-0.0135963"><ele>0.0</ele><time>2026-04-29T16:37:12.058Z</time></trkpt><trkpt lat="38.1300569" lon="-0.0135462"><ele>0.0</ele><time>2026-04-29T16:37:13.057Z</time></trkpt><trkpt lat="38.1301327" lon="-0.0134862"><ele>0.0</ele><time>2026-04-29T16:37:14.057Z</time></trkpt><trkpt lat="38.1302004" lon="-0.0134238"><ele>0.0</ele><time>2026-04-29T16:37:15.057Z</time></trkpt><trkpt lat="38.1302784" lon="-0.0133907"><ele>0.0</ele><time>2026-04-29T16:37:16.057Z</time></trkpt><trkpt lat="38.1303502" lon="-0.013332"><ele>0.0</ele><time>2026-04-29T16:37:17.057Z</time></trkpt><trkpt lat="38.1304278" lon="-0.0132887"><ele>0.0</ele><time>2026-04-29T16:37:18.057Z</time></trkpt><trkpt lat="38.1305044" lon="-0.0132424"><ele>0.0</ele><time>2026-04-29T16:37:19.057Z</time></trkpt><trkpt lat="38.1305753" lon="-0.0131984"><ele>0.0</ele><time>2026-04-29T16:37:20.058Z</time></trkpt><trkpt lat="38.1306437" lon="-0.0131347"><ele>0.0</ele><time>2026-04-29T16:37:21.057Z</time></trkpt><trkpt lat="38.1307089" lon="-0.0130661"><ele>0.0</ele><time>2026-04-29T16:37:22.058Z</time></trkpt><trkpt lat="38.130912" lon="-0.0128597"><ele>0.0</ele><time>2026-04-29T16:37:25.057Z</time></trkpt><trkpt lat="38.1309834" lon="-0.0127968"><ele>0.0</ele><time>2026-04-29T16:37:26.058Z</time></trkpt><trkpt lat="38.131051" lon="-0.0127315"><ele>0.0</ele><time>2026-04-29T16:37:27.058Z</time></trkpt><trkpt lat="38.1311218" lon="-0.0126788"><ele>0.0</ele><time>2026-04-29T16:37:28.057Z</time></trkpt><trkpt lat="38.1311906" lon="-0.0126164"><ele>0.0</ele><time>2026-04-29T16:37:29.057Z</time></trkpt><trkpt lat="38.1312601" lon="-0.012544"><ele>0.0</ele><time>2026-04-29T16:37:30.057Z</time></trkpt><trkpt lat="38.1313299" lon="-0.0124935"><ele>0.0</ele><time>2026-04-29T16:37:31.057Z</time></trkpt><trkpt lat="38.1314114" lon="-0.0124714"><ele>0.0</ele><time>2026-04-29T16:37:32.057Z</time></trkpt><trkpt lat="38.1314817" lon="-0.0124211"><ele>0.0</ele><time>2026-04-29T16:37:33.057Z</time></trkpt><trkpt lat="38.131551" lon="-0.0123602"><ele>0.0</ele><time>2026-04-29T16:37:34.058Z</time></trkpt><trkpt lat="38.1316219" lon="-0.012316"><ele>0.0</ele><time>2026-04-29T16:37:35.057Z</time></trkpt><trkpt lat="38.131696" lon="-0.0122519"><ele>0.0</ele><time>2026-04-29T16:37:36.057Z</time></trkpt><trkpt lat="38.1317595" lon="-0.0121882"><ele>0.0</ele><time>2026-04-29T16:37:37.058Z</time></trkpt><trkpt lat="38.1318327" lon="-0.0121265"><ele>0.0</ele><time>2026-04-29T16:37:38.058Z</time></trkpt><trkpt lat="38.1319017" lon="-0.0120548"><ele>0.0</ele><time>2026-04-29T16:37:39.058Z</time></trkpt><trkpt lat="38.1319731" lon="-0.0119878"><ele>0.0</ele><time>2026-04-29T16:37:40.058Z</time></trkpt><trkpt lat="38.1320484" lon="-0.0119289"><ele>0.0</ele><time>2026-04-29T16:37:41.058Z</time></trkpt><trkpt lat="38.1321175" lon="-0.0118673"><ele>0.0</ele><time>2026-04-29T16:37:42.058Z</time></trkpt><trkpt lat="38.1321886" lon="-0.0118096"><ele>0.0</ele><time>2026-04-29T16:37:43.058Z</time></trkpt><trkpt lat="38.1322633" lon="-0.01175"><ele>0.0</ele><time>2026-04-29T16:37:44.057Z</time></trkpt><trkpt lat="38.1324052" lon="-0.0116225"><ele>0.0</ele><time>2026-04-29T16:37:46.057Z</time></trkpt><trkpt lat="38.1324792" lon="-0.011569"><ele>0.0</ele><time>2026-04-29T16:37:47.057Z</time></trkpt><trkpt lat="38.1325564" lon="-0.0115109"><ele>0.0</ele><time>2026-04-29T16:37:48.057Z</time></trkpt><trkpt lat="38.1326331" lon="-0.0114526"><ele>0.0</ele><time>2026-04-29T16:37:49.057Z</time></trkpt><trkpt lat="38.1327023" lon="-0.0113926"><ele>0.0</ele><time>2026-04-29T16:37:50.057Z</time></trkpt><trkpt lat="38.1327724" lon="-0.011334"><ele>0.0</ele><time>2026-04-29T16:37:51.058Z</time></trkpt><trkpt lat="38.1328448" lon="-0.0112711"><ele>0.0</ele><time>2026-04-29T16:37:52.057Z</time></trkpt><trkpt lat="38.1329194" lon="-0.0112075"><ele>0.0</ele><time>2026-04-29T16:37:53.058Z</time></trkpt><trkpt lat="38.1329944" lon="-0.0111441"><ele>0.0</ele><time>2026-04-29T16:37:54.057Z</time></trkpt><trkpt lat="38.1331314" lon="-0.0110214"><ele>0.0</ele><time>2026-04-29T16:37:56.058Z</time></trkpt><trkpt lat="38.1332025" lon="-0.0109657"><ele>0.0</ele><time>2026-04-29T16:37:57.057Z</time></trkpt><trkpt lat="38.1332721" lon="-0.0109063"><ele>0.0</ele><time>2026-04-29T16:37:58.058Z</time></trkpt><trkpt lat="38.1333419" lon="-0.0108478"><ele>0.0</ele><time>2026-04-29T16:37:59.057Z</time></trkpt><trkpt lat="38.1334131" lon="-0.0107869"><ele>0.0</ele><time>2026-04-29T16:38:00.058Z</time></trkpt><trkpt lat="38.1334834" lon="-0.0107308"><ele>0.0</ele><time>2026-04-29T16:38:01.057Z</time></trkpt><trkpt lat="38.1335552" lon="-0.0106743"><ele>0.0</ele><time>2026-04-29T16:38:02.058Z</time></trkpt><trkpt lat="38.1336258" lon="-0.0106191"><ele>0.0</ele><time>2026-04-29T16:38:03.057Z</time></trkpt><trkpt lat="38.1336957" lon="-0.0105615"><ele>0.0</ele><time>2026-04-29T16:38:04.057Z</time></trkpt><trkpt lat="38.1337663" lon="-0.010504"><ele>0.0</ele><time>2026-04-29T16:38:05.058Z</time></trkpt><trkpt lat="38.133897" lon="-0.01038"><ele>0.0</ele><time>2026-04-29T16:38:07.057Z</time></trkpt><trkpt lat="38.1339711" lon="-0.0103198"><ele>0.0</ele><time>2026-04-29T16:38:08.058Z</time></trkpt><trkpt lat="38.1340431" lon="-0.0102581"><ele>0.0</ele><time>2026-04-29T16:38:09.057Z</time></trkpt><trkpt lat="38.1341161" lon="-0.0101951"><ele>0.0</ele><time>2026-04-29T16:38:10.057Z</time></trkpt><trkpt lat="38.1341892" lon="-0.0101331"><ele>0.0</ele><time>2026-04-29T16:38:11.057Z</time></trkpt><trkpt lat="38.1342567" lon="-0.0100765"><ele>0.0</ele><time>2026-04-29T16:38:12.058Z</time></trkpt><trkpt lat="38.1343279" lon="-0.0100135"><ele>0.0</ele><time>2026-04-29T16:38:13.057Z</time></trkpt><trkpt lat="38.1343981" lon="-0.009946"><ele>0.0</ele><time>2026-04-29T16:38:14.058Z</time></trkpt><trkpt lat="38.134468" lon="-0.0098764"><ele>0.0</ele><time>2026-04-29T16:38:15.058Z</time></trkpt><trkpt lat="38.1345366" lon="-0.0098077"><ele>0.0</ele><time>2026-04-29T16:38:16.057Z</time></trkpt><trkpt lat="38.1346079" lon="-0.0097507"><ele>0.0</ele><time>2026-04-29T16:38:17.057Z</time></trkpt><trkpt lat="38.1346764" lon="-0.0096891"><ele>0.0</ele><time>2026-04-29T16:38:18.057Z</time></trkpt><trkpt lat="38.1347478" lon="-0.0096322"><ele>0.0</ele><time>2026-04-29T16:38:19.057Z</time></trkpt><trkpt lat="38.1348226" lon="-0.0095786"><ele>0.0</ele><time>2026-04-29T16:38:20.058Z</time></trkpt><trkpt lat="38.1348977" lon="-0.0095226"><ele>0.0</ele><time>2026-04-29T16:38:21.057Z</time></trkpt><trkpt lat="38.1349739" lon="-0.0094656"><ele>0.0</ele><time>2026-04-29T16:38:22.057Z</time></trkpt><trkpt lat="38.1350479" lon="-0.0094161"><ele>0.0</ele><time>2026-04-29T16:38:23.058Z</time></trkpt><trkpt lat="38.135123" lon="-0.009373"><ele>0.0</ele><time>2026-04-29T16:38:24.057Z</time></trkpt><trkpt lat="38.1351973" lon="-0.0093279"><ele>0.0</ele><time>2026-04-29T16:38:25.057Z</time></trkpt><trkpt lat="38.1352672" lon="-0.0092757"><ele>0.0</ele><time>2026-04-29T16:38:26.058Z</time></trkpt><trkpt lat="38.1354849" lon="-0.0091111"><ele>0.0</ele><time>2026-04-29T16:38:29.058Z</time></trkpt><trkpt lat="38.1355579" lon="-0.0090519"><ele>0.0</ele><time>2026-04-29T16:38:30.057Z</time></trkpt><trkpt lat="38.1356315" lon="-0.0089967"><ele>0.0</ele><time>2026-04-29T16:38:31.057Z</time></trkpt><trkpt lat="38.1357022" lon="-0.0089412"><ele>0.0</ele><time>2026-04-29T16:38:32.057Z</time></trkpt><trkpt lat="38.1357732" lon="-0.0088801"><ele>0.0</ele><time>2026-04-29T16:38:33.058Z</time></trkpt><trkpt lat="38.1358464" lon="-0.0088268"><ele>0.0</ele><time>2026-04-29T16:38:34.058Z</time></trkpt><trkpt lat="38.1359178" lon="-0.0087675"><ele>0.0</ele><time>2026-04-29T16:38:35.057Z</time></trkpt><trkpt lat="38.1359839" lon="-0.0087079"><ele>0.0</ele><time>2026-04-29T16:38:36.058Z</time></trkpt><trkpt lat="38.1360561" lon="-0.0086594"><ele>0.0</ele><time>2026-04-29T16:38:37.057Z</time></trkpt><trkpt lat="38.1361278" lon="-0.0086015"><ele>0.0</ele><time>2026-04-29T16:38:38.057Z</time></trkpt><trkpt lat="38.1361985" lon="-0.0085446"><ele>0.0</ele><time>2026-04-29T16:38:39.057Z</time></trkpt><trkpt lat="38.1362757" lon="-0.008502"><ele>0.0</ele><time>2026-04-29T16:38:40.058Z</time></trkpt><trkpt lat="38.1363482" lon="-0.0084464"><ele>0.0</ele><time>2026-04-29T16:38:41.057Z</time></trkpt><trkpt lat="38.1364185" lon="-0.0083829"><ele>0.0</ele><time>2026-04-29T16:38:42.058Z</time></trkpt><trkpt lat="38.1364896" lon="-0.0083203"><ele>0.0</ele><time>2026-04-29T16:38:43.058Z</time></trkpt><trkpt lat="38.1365598" lon="-0.0082602"><ele>0.0</ele><time>2026-04-29T16:38:44.058Z</time></trkpt><trkpt lat="38.1366325" lon="-0.0081972"><ele>0.0</ele><time>2026-04-29T16:38:45.057Z</time></trkpt><trkpt lat="38.1367108" lon="-0.008144"><ele>0.0</ele><time>2026-04-29T16:38:46.058Z</time></trkpt><trkpt lat="38.1367847" lon="-0.0080898"><ele>0.0</ele><time>2026-04-29T16:38:47.057Z</time></trkpt><trkpt lat="38.1368574" lon="-0.0080359"><ele>0.0</ele><time>2026-04-29T16:38:48.058Z</time></trkpt><trkpt lat="38.1370014" lon="-0.0079216"><ele>0.0</ele><time>2026-04-29T16:38:50.058Z</time></trkpt><trkpt lat="38.1370758" lon="-0.0078659"><ele>0.0</ele><time>2026-04-29T16:38:51.057Z</time></trkpt><trkpt lat="38.1371493" lon="-0.0078122"><ele>0.0</ele><time>2026-04-29T16:38:52.058Z</time></trkpt><trkpt lat="38.1372203" lon="-0.0077566"><ele>0.0</ele><time>2026-04-29T16:38:53.057Z</time></trkpt><trkpt lat="38.1372876" lon="-0.0077026"><ele>0.0</ele><time>2026-04-29T16:38:54.057Z</time></trkpt><trkpt lat="38.1373535" lon="-0.0076416"><ele>0.0</ele><time>2026-04-29T16:38:55.058Z</time></trkpt><trkpt lat="38.1374262" lon="-0.0075788"><ele>0.0</ele><time>2026-04-29T16:38:56.058Z</time></trkpt><trkpt lat="38.1374995" lon="-0.0075155"><ele>0.0</ele><time>2026-04-29T16:38:57.058Z</time></trkpt><trkpt lat="38.1375707" lon="-0.0074583"><ele>0.0</ele><time>2026-04-29T16:38:58.057Z</time></trkpt><trkpt lat="38.1377178" lon="-0.0073842"><ele>0.0</ele><time>2026-04-29T16:39:00.058Z</time></trkpt><trkpt lat="38.1377928" lon="-0.0073566"><ele>0.0</ele><time>2026-04-29T16:39:01.057Z</time></trkpt><trkpt lat="38.1378637" lon="-0.0073001"><ele>0.0</ele><time>2026-04-29T16:39:02.057Z</time></trkpt><trkpt lat="38.1379368" lon="-0.0072505"><ele>0.0</ele><time>2026-04-29T16:39:03.058Z</time></trkpt><trkpt lat="38.1380141" lon="-0.0072246"><ele>0.0</ele><time>2026-04-29T16:39:04.058Z</time></trkpt><trkpt lat="38.138085" lon="-0.0071686"><ele>0.0</ele><time>2026-04-29T16:39:05.057Z</time></trkpt><trkpt lat="38.1381622" lon="-0.0071149"><ele>0.0</ele><time>2026-04-29T16:39:06.057Z</time></trkpt><trkpt lat="38.1382363" lon="-0.0070549"><ele>0.0</ele><time>2026-04-29T16:39:07.058Z</time></trkpt><trkpt lat="38.1383069" lon="-0.0069944"><ele>0.0</ele><time>2026-04-29T16:39:08.057Z</time></trkpt><trkpt lat="38.1383726" lon="-0.0069457"><ele>0.0</ele><time>2026-04-29T16:39:09.058Z</time></trkpt><trkpt lat="38.1385107" lon="-0.0068482"><ele>0.0</ele><time>2026-04-29T16:39:11.057Z</time></trkpt><trkpt lat="38.1385842" lon="-0.0067891"><ele>0.0</ele><time>2026-04-29T16:39:12.057Z</time></trkpt><trkpt lat="38.1386568" lon="-0.0067333"><ele>0.0</ele><time>2026-04-29T16:39:13.057Z</time></trkpt><trkpt lat="38.1387269" lon="-0.0066809"><ele>0.0</ele><time>2026-04-29T16:39:14.057Z</time></trkpt><trkpt lat="38.1387998" lon="-0.0066237"><ele>0.0</ele><time>2026-04-29T16:39:15.057Z</time></trkpt><trkpt lat="38.1388758" lon="-0.0065626"><ele>0.0</ele><time>2026-04-29T16:39:16.058Z</time></trkpt><trkpt lat="38.1389526" lon="-0.0065038"><ele>0.0</ele><time>2026-04-29T16:39:17.058Z</time></trkpt><trkpt lat="38.1390265" lon="-0.0064395"><ele>0.0</ele><time>2026-04-29T16:39:18.057Z</time></trkpt><trkpt lat="38.1390997" lon="-0.0063762"><ele>0.0</ele><time>2026-04-29T16:39:19.058Z</time></trkpt><trkpt lat="38.1391675" lon="-0.0063089"><ele>0.0</ele><time>2026-04-29T16:39:20.057Z</time></trkpt><trkpt lat="38.1392371" lon="-0.0062461"><ele>0.0</ele><time>2026-04-29T16:39:21.058Z</time></trkpt><trkpt lat="38.1393072" lon="-0.0061886"><ele>0.0</ele><time>2026-04-29T16:39:22.058Z</time></trkpt><trkpt lat="38.1393794" lon="-0.0061288"><ele>0.0</ele><time>2026-04-29T16:39:23.057Z</time></trkpt><trkpt lat="38.1394514" lon="-0.0060674"><ele>0.0</ele><time>2026-04-29T16:39:24.058Z</time></trkpt><trkpt lat="38.1395261" lon="-0.0060055"><ele>0.0</ele><time>2026-04-29T16:39:25.056Z</time></trkpt><trkpt lat="38.139594" lon="-0.005954"><ele>0.0</ele><time>2026-04-29T16:39:26.057Z</time></trkpt><trkpt lat="38.1396653" lon="-0.0058997"><ele>0.0</ele><time>2026-04-29T16:39:27.056Z</time></trkpt><trkpt lat="38.1397395" lon="-0.0058422"><ele>0.0</ele><time>2026-04-29T16:39:28.056Z</time></trkpt><trkpt lat="38.1398145" lon="-0.0057825"><ele>0.0</ele><time>2026-04-29T16:39:29.056Z</time></trkpt><trkpt lat="38.1398881" lon="-0.0057222"><ele>0.0</ele><time>2026-04-29T16:39:30.057Z</time></trkpt><trkpt lat="38.1399581" lon="-0.0056587"><ele>0.0</ele><time>2026-04-29T16:39:31.056Z</time></trkpt><trkpt lat="38.1401711" lon="-0.0054748"><ele>0.0</ele><time>2026-04-29T16:39:34.056Z</time></trkpt><trkpt lat="38.1402446" lon="-0.005412"><ele>0.0</ele><time>2026-04-29T16:39:35.056Z</time></trkpt><trkpt lat="38.1403196" lon="-0.005352"><ele>0.0</ele><time>2026-04-29T16:39:36.056Z</time></trkpt><trkpt lat="38.1403931" lon="-0.0052886"><ele>0.0</ele><time>2026-04-29T16:39:37.057Z</time></trkpt><trkpt lat="38.1404623" lon="-0.005227"><ele>0.0</ele><time>2026-04-29T16:39:38.056Z</time></trkpt><trkpt lat="38.1405331" lon="-0.0051753"><ele>0.0</ele><time>2026-04-29T16:39:39.056Z</time></trkpt><trkpt lat="38.1406073" lon="-0.0051494"><ele>0.0</ele><time>2026-04-29T16:39:40.057Z</time></trkpt><trkpt lat="38.1406868" lon="-0.0051345"><ele>0.0</ele><time>2026-04-29T16:39:41.056Z</time></trkpt><trkpt lat="38.1407614" lon="-0.0050878"><ele>0.0</ele><time>2026-04-29T16:39:42.056Z</time></trkpt><trkpt lat="38.140832" lon="-0.0050458"><ele>0.0</ele><time>2026-04-29T16:39:43.056Z</time></trkpt><trkpt lat="38.1409006" lon="-0.004989"><ele>0.0</ele><time>2026-04-29T16:39:44.056Z</time></trkpt><trkpt lat="38.1409719" lon="-0.0049336"><ele>0.0</ele><time>2026-04-29T16:39:45.057Z</time></trkpt><trkpt lat="38.1410462" lon="-0.0048741"><ele>0.0</ele><time>2026-04-29T16:39:46.056Z</time></trkpt><trkpt lat="38.1411229" lon="-0.0048269"><ele>0.0</ele><time>2026-04-29T16:39:47.057Z</time></trkpt><trkpt lat="38.1412034" lon="-0.004791"><ele>0.0</ele><time>2026-04-29T16:39:48.057Z</time></trkpt><trkpt lat="38.1412782" lon="-0.004739"><ele>0.0</ele><time>2026-04-29T16:39:49.056Z</time></trkpt><trkpt lat="38.1413555" lon="-0.0046871"><ele>0.0</ele><time>2026-04-29T16:39:50.056Z</time></trkpt><trkpt lat="38.1414283" lon="-0.0046225"><ele>0.0</ele><time>2026-04-29T16:39:51.057Z</time></trkpt><trkpt lat="38.1415005" lon="-0.004566"><ele>0.0</ele><time>2026-04-29T16:39:52.056Z</time></trkpt><trkpt lat="38.141562" lon="-0.0044921"><ele>0.0</ele><time>2026-04-29T16:39:53.056Z</time></trkpt><trkpt lat="38.141696" lon="-0.0043612"><ele>0.0</ele><time>2026-04-29T16:39:55.057Z</time></trkpt><trkpt lat="38.141765" lon="-0.0042972"><ele>0.0</ele><time>2026-04-29T16:39:56.057Z</time></trkpt><trkpt lat="38.1418383" lon="-0.0042302"><ele>0.0</ele><time>2026-04-29T16:39:57.056Z</time></trkpt><trkpt lat="38.1419083" lon="-0.0041644"><ele>0.0</ele><time>2026-04-29T16:39:58.056Z</time></trkpt><trkpt lat="38.1419741" lon="-0.0040965"><ele>0.0</ele><time>2026-04-29T16:39:59.056Z</time></trkpt><trkpt lat="38.1420448" lon="-0.0040335"><ele>0.0</ele><time>2026-04-29T16:40:00.056Z</time></trkpt><trkpt lat="38.1421123" lon="-0.003962"><ele>0.0</ele><time>2026-04-29T16:40:01.057Z</time></trkpt><trkpt lat="38.1421875" lon="-0.0039153"><ele>0.0</ele><time>2026-04-29T16:40:02.056Z</time></trkpt><trkpt lat="38.1422598" lon="-0.0038563"><ele>0.0</ele><time>2026-04-29T16:40:03.056Z</time></trkpt><trkpt lat="38.1423314" lon="-0.0037937"><ele>0.0</ele><time>2026-04-29T16:40:04.057Z</time></trkpt><trkpt lat="38.142473" lon="-0.0036901"><ele>0.0</ele><time>2026-04-29T16:40:06.056Z</time></trkpt><trkpt lat="38.1425419" lon="-0.0036272"><ele>0.0</ele><time>2026-04-29T16:40:07.056Z</time></trkpt><trkpt lat="38.1426145" lon="-0.003571"><ele>0.0</ele><time>2026-04-29T16:40:08.057Z</time></trkpt><trkpt lat="38.1426881" lon="-0.0035151"><ele>0.0</ele><time>2026-04-29T16:40:09.056Z</time></trkpt><trkpt lat="38.1427617" lon="-0.0034583"><ele>0.0</ele><time>2026-04-29T16:40:10.056Z</time></trkpt><trkpt lat="38.1428321" lon="-0.0034004"><ele>0.0</ele><time>2026-04-29T16:40:11.057Z</time></trkpt><trkpt lat="38.142902" lon="-0.0033363"><ele>0.0</ele><time>2026-04-29T16:40:12.057Z</time></trkpt><trkpt lat="38.1429749" lon="-0.0032767"><ele>0.0</ele><time>2026-04-29T16:40:13.056Z</time></trkpt><trkpt lat="38.1430509" lon="-0.0032154"><ele>0.0</ele><time>2026-04-29T16:40:14.057Z</time></trkpt><trkpt lat="38.1431918" lon="-0.0030949"><ele>0.0</ele><time>2026-04-29T16:40:16.056Z</time></trkpt><trkpt lat="38.143262" lon="-0.0030297"><ele>0.0</ele><time>2026-04-29T16:40:17.057Z</time></trkpt><trkpt lat="38.1433303" lon="-0.0029601"><ele>0.0</ele><time>2026-04-29T16:40:18.057Z</time></trkpt><trkpt lat="38.1434016" lon="-0.0029031"><ele>0.0</ele><time>2026-04-29T16:40:19.057Z</time></trkpt><trkpt lat="38.1434762" lon="-0.0028423"><ele>0.0</ele><time>2026-04-29T16:40:20.056Z</time></trkpt><trkpt lat="38.1435483" lon="-0.0027808"><ele>0.0</ele><time>2026-04-29T16:40:21.057Z</time></trkpt><trkpt lat="38.1436183" lon="-0.0027159"><ele>0.0</ele><time>2026-04-29T16:40:22.057Z</time></trkpt><trkpt lat="38.1436882" lon="-0.0026555"><ele>0.0</ele><time>2026-04-29T16:40:23.057Z</time></trkpt><trkpt lat="38.1437655" lon="-0.0025984"><ele>0.0</ele><time>2026-04-29T16:40:24.057Z</time></trkpt><trkpt lat="38.1438465" lon="-0.0025428"><ele>0.0</ele><time>2026-04-29T16:40:25.056Z</time></trkpt><trkpt lat="38.1439184" lon="-0.0024796"><ele>0.0</ele><time>2026-04-29T16:40:26.056Z</time></trkpt><trkpt lat="38.1439927" lon="-0.002423"><ele>0.0</ele><time>2026-04-29T16:40:27.057Z</time></trkpt><trkpt lat="38.1440648" lon="-0.0023667"><ele>0.0</ele><time>2026-04-29T16:40:28.057Z</time></trkpt><trkpt lat="38.1441367" lon="-0.0023187"><ele>0.0</ele><time>2026-04-29T16:40:29.057Z</time></trkpt><trkpt lat="38.1442136" lon="-0.0022721"><ele>0.0</ele><time>2026-04-29T16:40:30.056Z</time></trkpt><trkpt lat="38.1442893" lon="-0.0022213"><ele>0.0</ele><time>2026-04-29T16:40:31.056Z</time></trkpt><trkpt lat="38.1443646" lon="-0.002165"><ele>0.0</ele><time>2026-04-29T16:40:32.056Z</time></trkpt><trkpt lat="38.1444365" lon="-0.0021092"><ele>0.0</ele><time>2026-04-29T16:40:33.056Z</time></trkpt><trkpt lat="38.1445052" lon="-0.002053"><ele>0.0</ele><time>2026-04-29T16:40:34.056Z</time></trkpt><trkpt lat="38.1445778" lon="-0.0020046"><ele>0.0</ele><time>2026-04-29T16:40:35.057Z</time></trkpt><trkpt lat="38.1446516" lon="-0.0019554"><ele>0.0</ele><time>2026-04-29T16:40:36.056Z</time></trkpt><trkpt lat="38.1448568" lon="-0.0017814"><ele>0.0</ele><time>2026-04-29T16:40:39.057Z</time></trkpt><trkpt lat="38.1449294" lon="-0.0017306"><ele>0.0</ele><time>2026-04-29T16:40:40.057Z</time></trkpt><trkpt lat="38.1450026" lon="-0.0016793"><ele>0.0</ele><time>2026-04-29T16:40:41.056Z</time></trkpt><trkpt lat="38.1450746" lon="-0.001622"><ele>0.0</ele><time>2026-04-29T16:40:42.057Z</time></trkpt><trkpt lat="38.1451523" lon="-0.001565"><ele>0.0</ele><time>2026-04-29T16:40:43.056Z</time></trkpt><trkpt lat="38.1452266" lon="-0.0015084"><ele>0.0</ele><time>2026-04-29T16:40:44.056Z</time></trkpt><trkpt lat="38.1452969" lon="-0.0014533"><ele>0.0</ele><time>2026-04-29T16:40:45.057Z</time></trkpt><trkpt lat="38.1453663" lon="-0.0013955"><ele>0.0</ele><time>2026-04-29T16:40:46.057Z</time></trkpt><trkpt lat="38.1454312" lon="-0.0013334"><ele>0.0</ele><time>2026-04-29T16:40:47.057Z</time></trkpt><trkpt lat="38.1454956" lon="-0.0012723"><ele>0.0</ele><time>2026-04-29T16:40:48.057Z</time></trkpt><trkpt lat="38.1455706" lon="-0.0012266"><ele>0.0</ele><time>2026-04-29T16:40:49.056Z</time></trkpt><trkpt lat="38.1456358" lon="-0.0011663"><ele>0.0</ele><time>2026-04-29T16:40:50.056Z</time></trkpt><trkpt lat="38.1457166" lon="-0.0011248"><ele>0.0</ele><time>2026-04-29T16:40:51.057Z</time></trkpt><trkpt lat="38.1457898" lon="-0.0010691"><ele>0.0</ele><time>2026-04-29T16:40:52.056Z</time></trkpt><trkpt lat="38.1458577" lon="-0.0010083"><ele>0.0</ele><time>2026-04-29T16:40:53.057Z</time></trkpt><trkpt lat="38.1459259" lon="-9.508E-4"><ele>0.0</ele><time>2026-04-29T16:40:54.056Z</time></trkpt><trkpt lat="38.1459971" lon="-9.029E-4"><ele>0.0</ele><time>2026-04-29T16:40:55.056Z</time></trkpt><trkpt lat="38.1460696" lon="-8.446E-4"><ele>0.0</ele><time>2026-04-29T16:40:56.056Z</time></trkpt><trkpt lat="38.1461444" lon="-7.85E-4"><ele>0.0</ele><time>2026-04-29T16:40:57.056Z</time></trkpt><trkpt lat="38.1462193" lon="-7.234E-4"><ele>0.0</ele><time>2026-04-29T16:40:58.056Z</time></trkpt><trkpt lat="38.146372" lon="-6.15E-4"><ele>0.0</ele><time>2026-04-29T16:41:00.057Z</time></trkpt><trkpt lat="38.1464473" lon="-5.523E-4"><ele>0.0</ele><time>2026-04-29T16:41:01.057Z</time></trkpt><trkpt lat="38.1465172" lon="-4.889E-4"><ele>0.0</ele><time>2026-04-29T16:41:02.056Z</time></trkpt><trkpt lat="38.1465885" lon="-4.214E-4"><ele>0.0</ele><time>2026-04-29T16:41:03.057Z</time></trkpt><trkpt lat="38.1466558" lon="-3.575E-4"><ele>0.0</ele><time>2026-04-29T16:41:04.056Z</time></trkpt><trkpt lat="38.1467225" lon="-2.931E-4"><ele>0.0</ele><time>2026-04-29T16:41:05.057Z</time></trkpt><trkpt lat="38.1467962" lon="-2.407E-4"><ele>0.0</ele><time>2026-04-29T16:41:06.056Z</time></trkpt><trkpt lat="38.1468628" lon="-1.878E-4"><ele>0.0</ele><time>2026-04-29T16:41:07.057Z</time></trkpt><trkpt lat="38.1469291" lon="-1.317E-4"><ele>0.0</ele><time>2026-04-29T16:41:08.056Z</time></trkpt><trkpt lat="38.1470671" lon="-2.4E-5"><ele>0.0</ele><time>2026-04-29T16:41:10.057Z</time></trkpt><trkpt lat="38.1471401" lon="3.6E-5"><ele>0.0</ele><time>2026-04-29T16:41:11.056Z</time></trkpt><trkpt lat="38.1472105" lon="9.87E-5"><ele>0.0</ele><time>2026-04-29T16:41:12.056Z</time></trkpt><trkpt lat="38.1472828" lon="1.587E-4"><ele>0.0</ele><time>2026-04-29T16:41:13.057Z</time></trkpt><trkpt lat="38.1473529" lon="2.22E-4"><ele>0.0</ele><time>2026-04-29T16:41:14.056Z</time></trkpt><trkpt lat="38.1474318" lon="2.684E-4"><ele>0.0</ele><time>2026-04-29T16:41:15.056Z</time></trkpt><trkpt lat="38.1475022" lon="3.228E-4"><ele>0.0</ele><time>2026-04-29T16:41:16.056Z</time></trkpt><trkpt lat="38.1475723" lon="3.838E-4"><ele>0.0</ele><time>2026-04-29T16:41:17.057Z</time></trkpt><trkpt lat="38.1476421" lon="4.401E-4"><ele>0.0</ele><time>2026-04-29T16:41:18.056Z</time></trkpt><trkpt lat="38.1477824" lon="5.673E-4"><ele>0.0</ele><time>2026-04-29T16:41:20.057Z</time></trkpt><trkpt lat="38.147848" lon="6.413E-4"><ele>0.0</ele><time>2026-04-29T16:41:21.057Z</time></trkpt><trkpt lat="38.1479167" lon="7.053E-4"><ele>0.0</ele><time>2026-04-29T16:41:22.057Z</time></trkpt><trkpt lat="38.1479897" lon="7.631E-4"><ele>0.0</ele><time>2026-04-29T16:41:23.056Z</time></trkpt><trkpt lat="38.1480588" lon="8.228E-4"><ele>0.0</ele><time>2026-04-29T16:41:24.056Z</time></trkpt><trkpt lat="38.1481325" lon="8.758E-4"><ele>0.0</ele><time>2026-04-29T16:41:25.056Z</time></trkpt><trkpt lat="38.1482089" lon="9.317E-4"><ele>0.0</ele><time>2026-04-29T16:41:26.056Z</time></trkpt><trkpt lat="38.1482828" lon="9.943E-4"><ele>0.0</ele><time>2026-04-29T16:41:27.057Z</time></trkpt><trkpt lat="38.1483576" lon="0.0010462"><ele>0.0</ele><time>2026-04-29T16:41:28.056Z</time></trkpt><trkpt lat="38.1484342" lon="0.0010988"><ele>0.0</ele><time>2026-04-29T16:41:29.057Z</time></trkpt><trkpt lat="38.1485111" lon="0.0011445"><ele>0.0</ele><time>2026-04-29T16:41:30.057Z</time></trkpt><trkpt lat="38.1485891" lon="0.0011927"><ele>0.0</ele><time>2026-04-29T16:41:31.056Z</time></trkpt><trkpt lat="38.1486633" lon="0.0012411"><ele>0.0</ele><time>2026-04-29T16:41:32.057Z</time></trkpt><trkpt lat="38.1487392" lon="0.0012785"><ele>0.0</ele><time>2026-04-29T16:41:33.056Z</time></trkpt><trkpt lat="38.1488103" lon="0.0013334"><ele>0.0</ele><time>2026-04-29T16:41:34.056Z</time></trkpt><trkpt lat="38.1488904" lon="0.0013617"><ele>0.0</ele><time>2026-04-29T16:41:35.057Z</time></trkpt><trkpt lat="38.1489676" lon="0.0014052"><ele>0.0</ele><time>2026-04-29T16:41:36.056Z</time></trkpt><trkpt lat="38.1490443" lon="0.0014644"><ele>0.0</ele><time>2026-04-29T16:41:37.056Z</time></trkpt><trkpt lat="38.1491093" lon="0.0015324"><ele>0.0</ele><time>2026-04-29T16:41:38.057Z</time></trkpt><trkpt lat="38.1491774" lon="0.001598"><ele>0.0</ele><time>2026-04-29T16:41:39.056Z</time></trkpt><trkpt lat="38.1493103" lon="0.0017223"><ele>0.0</ele><time>2026-04-29T16:41:41.057Z</time></trkpt><trkpt lat="38.1494625" lon="0.0018308"><ele>0.0</ele><time>2026-04-29T16:41:43.056Z</time></trkpt><trkpt lat="38.1495348" lon="0.0018854"><ele>0.0</ele><time>2026-04-29T16:41:44.057Z</time></trkpt><trkpt lat="38.1496047" lon="0.0019451"><ele>0.0</ele><time>2026-04-29T16:41:45.057Z</time></trkpt><trkpt lat="38.149675" lon="0.0020023"><ele>0.0</ele><time>2026-04-29T16:41:46.057Z</time></trkpt><trkpt lat="38.1497494" lon="0.0020567"><ele>0.0</ele><time>2026-04-29T16:41:47.056Z</time></trkpt><trkpt lat="38.1498245" lon="0.0021142"><ele>0.0</ele><time>2026-04-29T16:41:48.056Z</time></trkpt><trkpt lat="38.1499022" lon="0.0021589"><ele>0.0</ele><time>2026-04-29T16:41:49.056Z</time></trkpt><trkpt lat="38.1499749" lon="0.0022145"><ele>0.0</ele><time>2026-04-29T16:41:50.057Z</time></trkpt><trkpt lat="38.1500481" lon="0.0022753"><ele>0.0</ele><time>2026-04-29T16:41:51.056Z</time></trkpt><trkpt lat="38.1501229" lon="0.0023371"><ele>0.0</ele><time>2026-04-29T16:41:52.057Z</time></trkpt><trkpt lat="38.1501979" lon="0.0023935"><ele>0.0</ele><time>2026-04-29T16:41:53.057Z</time></trkpt><trkpt lat="38.1502688" lon="0.0024511"><ele>0.0</ele><time>2026-04-29T16:41:54.056Z</time></trkpt><trkpt lat="38.1503384" lon="0.002508"><ele>0.0</ele><time>2026-04-29T16:41:55.057Z</time></trkpt><trkpt lat="38.1504084" lon="0.0025702"><ele>0.0</ele><time>2026-04-29T16:41:56.057Z</time></trkpt><trkpt lat="38.1504743" lon="0.0026377"><ele>0.0</ele><time>2026-04-29T16:41:57.056Z</time></trkpt><trkpt lat="38.150542" lon="0.0027034"><ele>0.0</ele><time>2026-04-29T16:41:58.056Z</time></trkpt><trkpt lat="38.1506106" lon="0.0027767"><ele>0.0</ele><time>2026-04-29T16:41:59.057Z</time></trkpt><trkpt lat="38.1506854" lon="0.0028387"><ele>0.0</ele><time>2026-04-29T16:42:00.056Z</time></trkpt><trkpt lat="38.1508321" lon="0.0029602"><ele>0.0</ele><time>2026-04-29T16:42:02.056Z</time></trkpt><trkpt lat="38.1509033" lon="0.0030268"><ele>0.0</ele><time>2026-04-29T16:42:03.056Z</time></trkpt><trkpt lat="38.1509776" lon="0.0030892"><ele>0.0</ele><time>2026-04-29T16:42:04.057Z</time></trkpt><trkpt lat="38.1510486" lon="0.0031481"><ele>0.0</ele><time>2026-04-29T16:42:05.057Z</time></trkpt><trkpt lat="38.1511159" lon="0.003208"><ele>0.0</ele><time>2026-04-29T16:42:06.057Z</time></trkpt><trkpt lat="38.1511833" lon="0.0032657"><ele>0.0</ele><time>2026-04-29T16:42:07.056Z</time></trkpt><trkpt lat="38.1512547" lon="0.0033181"><ele>0.0</ele><time>2026-04-29T16:42:08.057Z</time></trkpt><trkpt lat="38.1513281" lon="0.0033776"><ele>0.0</ele><time>2026-04-29T16:42:09.056Z</time></trkpt><trkpt lat="38.1514013" lon="0.0034324"><ele>0.0</ele><time>2026-04-29T16:42:10.056Z</time></trkpt><trkpt lat="38.1514804" lon="0.0034857"><ele>0.0</ele><time>2026-04-29T16:42:11.057Z</time></trkpt><trkpt lat="38.1515504" lon="0.0035399"><ele>0.0</ele><time>2026-04-29T16:42:12.056Z</time></trkpt><trkpt lat="38.1516217" lon="0.003585"><ele>0.0</ele><time>2026-04-29T16:42:13.056Z</time></trkpt><trkpt lat="38.1517677" lon="0.0036963"><ele>0.0</ele><time>2026-04-29T16:42:15.057Z</time></trkpt><trkpt lat="38.1518373" lon="0.0037542"><ele>0.0</ele><time>2026-04-29T16:42:16.056Z</time></trkpt><trkpt lat="38.1519185" lon="0.0037906"><ele>0.0</ele><time>2026-04-29T16:42:17.057Z</time></trkpt><trkpt lat="38.1519875" lon="0.0038442"><ele>0.0</ele><time>2026-04-29T16:42:18.056Z</time></trkpt><trkpt lat="38.1520599" lon="0.0038808"><ele>0.0</ele><time>2026-04-29T16:42:19.057Z</time></trkpt><trkpt lat="38.1521319" lon="0.0039346"><ele>0.0</ele><time>2026-04-29T16:42:20.056Z</time></trkpt><trkpt lat="38.1522091" lon="0.0039953"><ele>0.0</ele><time>2026-04-29T16:42:21.057Z</time></trkpt><trkpt lat="38.1523536" lon="0.0041112"><ele>0.0</ele><time>2026-04-29T16:42:23.057Z</time></trkpt><trkpt lat="38.1525112" lon="0.0041969"><ele>0.0</ele><time>2026-04-29T16:42:25.057Z</time></trkpt><trkpt lat="38.152581" lon="0.0042616"><ele>0.0</ele><time>2026-04-29T16:42:26.057Z</time></trkpt><trkpt lat="38.1526519" lon="0.0043159"><ele>0.0</ele><time>2026-04-29T16:42:27.056Z</time></trkpt><trkpt lat="38.1527135" lon="0.0043859"><ele>0.0</ele><time>2026-04-29T16:42:28.056Z</time></trkpt><trkpt lat="38.1527818" lon="0.0044372"><ele>0.0</ele><time>2026-04-29T16:42:29.057Z</time></trkpt><trkpt lat="38.1528534" lon="0.004494"><ele>0.0</ele><time>2026-04-29T16:42:30.056Z</time></trkpt><trkpt lat="38.1529265" lon="0.0045551"><ele>0.0</ele><time>2026-04-29T16:42:31.057Z</time></trkpt><trkpt lat="38.1530001" lon="0.0046156"><ele>0.0</ele><time>2026-04-29T16:42:32.057Z</time></trkpt><trkpt lat="38.1530805" lon="0.0046365"><ele>0.0</ele><time>2026-04-29T16:42:33.056Z</time></trkpt><trkpt lat="38.1531507" lon="0.0046884"><ele>0.0</ele><time>2026-04-29T16:42:34.056Z</time></trkpt><trkpt lat="38.1532218" lon="0.0047496"><ele>0.0</ele><time>2026-04-29T16:42:35.056Z</time></trkpt><trkpt lat="38.1532923" lon="0.0048129"><ele>0.0</ele><time>2026-04-29T16:42:36.056Z</time></trkpt><trkpt lat="38.1533636" lon="0.0048616"><ele>0.0</ele><time>2026-04-29T16:42:37.056Z</time></trkpt><trkpt lat="38.1534365" lon="0.0049082"><ele>0.0</ele><time>2026-04-29T16:42:38.056Z</time></trkpt><trkpt lat="38.1535167" lon="0.0049579"><ele>0.0</ele><time>2026-04-29T16:42:39.056Z</time></trkpt><trkpt lat="38.1535913" lon="0.0050147"><ele>0.0</ele><time>2026-04-29T16:42:40.056Z</time></trkpt><trkpt lat="38.1536677" lon="0.0050701"><ele>0.0</ele><time>2026-04-29T16:42:41.057Z</time></trkpt><trkpt lat="38.15374" lon="0.0051321"><ele>0.0</ele><time>2026-04-29T16:42:42.056Z</time></trkpt><trkpt lat="38.1538923" lon="0.005258"><ele>0.0</ele><time>2026-04-29T16:42:44.056Z</time></trkpt><trkpt lat="38.1539663" lon="0.0053195"><ele>0.0</ele><time>2026-04-29T16:42:45.056Z</time></trkpt><trkpt lat="38.1540483" lon="0.0053566"><ele>0.0</ele><time>2026-04-29T16:42:46.056Z</time></trkpt><trkpt lat="38.1541948" lon="0.0054747"><ele>0.0</ele><time>2026-04-29T16:42:48.056Z</time></trkpt><trkpt lat="38.1542681" lon="0.0055342"><ele>0.0</ele><time>2026-04-29T16:42:49.056Z</time></trkpt><trkpt lat="38.1543405" lon="0.0055956"><ele>0.0</ele><time>2026-04-29T16:42:50.056Z</time></trkpt><trkpt lat="38.154412" lon="0.0056569"><ele>0.0</ele><time>2026-04-29T16:42:51.056Z</time></trkpt><trkpt lat="38.1544807" lon="0.0057234"><ele>0.0</ele><time>2026-04-29T16:42:52.057Z</time></trkpt><trkpt lat="38.154549" lon="0.0057945"><ele>0.0</ele><time>2026-04-29T16:42:53.057Z</time></trkpt><trkpt lat="38.1546227" lon="0.005849"><ele>0.0</ele><time>2026-04-29T16:42:54.057Z</time></trkpt><trkpt lat="38.1546963" lon="0.0059079"><ele>0.0</ele><time>2026-04-29T16:42:55.057Z</time></trkpt><trkpt lat="38.1547669" lon="0.005958"><ele>0.0</ele><time>2026-04-29T16:42:56.057Z</time></trkpt><trkpt lat="38.1548483" lon="0.0059879"><ele>0.0</ele><time>2026-04-29T16:42:57.056Z</time></trkpt><trkpt lat="38.1549258" lon="0.0060419"><ele>0.0</ele><time>2026-04-29T16:42:58.056Z</time></trkpt><trkpt lat="38.1549942" lon="0.006105"><ele>0.0</ele><time>2026-04-29T16:42:59.056Z</time></trkpt><trkpt lat="38.1550698" lon="0.0061628"><ele>0.0</ele><time>2026-04-29T16:43:00.056Z</time></trkpt><trkpt lat="38.1551422" lon="0.0062228"><ele>0.0</ele><time>2026-04-29T16:43:01.056Z</time></trkpt><trkpt lat="38.1552082" lon="0.0062859"><ele>0.0</ele><time>2026-04-29T16:43:02.057Z</time></trkpt><trkpt lat="38.1552739" lon="0.0063398"><ele>0.0</ele><time>2026-04-29T16:43:03.057Z</time></trkpt><trkpt lat="38.1554111" lon="0.0064596"><ele>0.0</ele><time>2026-04-29T16:43:05.057Z</time></trkpt><trkpt lat="38.1554817" lon="0.0065221"><ele>0.0</ele><time>2026-04-29T16:43:06.056Z</time></trkpt><trkpt lat="38.1555516" lon="0.0065844"><ele>0.0</ele><time>2026-04-29T16:43:07.056Z</time></trkpt><trkpt lat="38.1556189" lon="0.0066478"><ele>0.0</ele><time>2026-04-29T16:43:08.056Z</time></trkpt><trkpt lat="38.1556916" lon="0.0066924"><ele>0.0</ele><time>2026-04-29T16:43:09.057Z</time></trkpt><trkpt lat="38.155762" lon="0.0067528"><ele>0.0</ele><time>2026-04-29T16:43:10.057Z</time></trkpt><trkpt lat="38.1558361" lon="0.0068141"><ele>0.0</ele><time>2026-04-29T16:43:11.057Z</time></trkpt><trkpt lat="38.1559127" lon="0.0068714"><ele>0.0</ele><time>2026-04-29T16:43:12.057Z</time></trkpt><trkpt lat="38.1559881" lon="0.0069279"><ele>0.0</ele><time>2026-04-29T16:43:13.056Z</time></trkpt><trkpt lat="38.1560585" lon="0.0069903"><ele>0.0</ele><time>2026-04-29T16:43:14.057Z</time></trkpt><trkpt lat="38.15613" lon="0.0070513"><ele>0.0</ele><time>2026-04-29T16:43:15.056Z</time></trkpt><trkpt lat="38.1562072" lon="0.0070995"><ele>0.0</ele><time>2026-04-29T16:43:16.056Z</time></trkpt><trkpt lat="38.156277" lon="0.0071619"><ele>0.0</ele><time>2026-04-29T16:43:17.055Z</time></trkpt><trkpt lat="38.1563495" lon="0.0072357"><ele>0.0</ele><time>2026-04-29T16:43:18.055Z</time></trkpt><trkpt lat="38.1564186" lon="0.0072976"><ele>0.0</ele><time>2026-04-29T16:43:19.055Z</time></trkpt><trkpt lat="38.1565655" lon="0.0073875"><ele>0.0</ele><time>2026-04-29T16:43:21.056Z</time></trkpt><trkpt lat="38.156637" lon="0.0074371"><ele>0.0</ele><time>2026-04-29T16:43:22.056Z</time></trkpt><trkpt lat="38.1567155" lon="0.0074804"><ele>0.0</ele><time>2026-04-29T16:43:23.055Z</time></trkpt><trkpt lat="38.1567885" lon="0.0075371"><ele>0.0</ele><time>2026-04-29T16:43:24.056Z</time></trkpt><trkpt lat="38.1569331" lon="0.007656"><ele>0.0</ele><time>2026-04-29T16:43:26.056Z</time></trkpt><trkpt lat="38.1570036" lon="0.0077211"><ele>0.0</ele><time>2026-04-29T16:43:27.056Z</time></trkpt><trkpt lat="38.1570732" lon="0.007786"><ele>0.0</ele><time>2026-04-29T16:43:28.055Z</time></trkpt><trkpt lat="38.1571452" lon="0.0078421"><ele>0.0</ele><time>2026-04-29T16:43:29.056Z</time></trkpt><trkpt lat="38.1572111" lon="0.0079045"><ele>0.0</ele><time>2026-04-29T16:43:30.055Z</time></trkpt><trkpt lat="38.157279" lon="0.007962"><ele>0.0</ele><time>2026-04-29T16:43:31.055Z</time></trkpt><trkpt lat="38.1573514" lon="0.0080215"><ele>0.0</ele><time>2026-04-29T16:43:32.056Z</time></trkpt><trkpt lat="38.1574261" lon="0.0080812"><ele>0.0</ele><time>2026-04-29T16:43:33.055Z</time></trkpt><trkpt lat="38.1574967" lon="0.0081382"><ele>0.0</ele><time>2026-04-29T16:43:34.056Z</time></trkpt><trkpt lat="38.1575696" lon="0.008198"><ele>0.0</ele><time>2026-04-29T16:43:35.056Z</time></trkpt><trkpt lat="38.1576459" lon="0.0082592"><ele>0.0</ele><time>2026-04-29T16:43:36.055Z</time></trkpt><trkpt lat="38.157724" lon="0.0083174"><ele>0.0</ele><time>2026-04-29T16:43:37.056Z</time></trkpt><trkpt lat="38.1577997" lon="0.0083742"><ele>0.0</ele><time>2026-04-29T16:43:38.055Z</time></trkpt><trkpt lat="38.1578719" lon="0.0084283"><ele>0.0</ele><time>2026-04-29T16:43:39.055Z</time></trkpt><trkpt lat="38.1579451" lon="0.0084846"><ele>0.0</ele><time>2026-04-29T16:43:40.055Z</time></trkpt><trkpt lat="38.1580136" lon="0.0085446"><ele>0.0</ele><time>2026-04-29T16:43:41.055Z</time></trkpt><trkpt lat="38.1580869" lon="0.0086002"><ele>0.0</ele><time>2026-04-29T16:43:42.056Z</time></trkpt><trkpt lat="38.1581586" lon="0.0086567"><ele>0.0</ele><time>2026-04-29T16:43:43.055Z</time></trkpt><trkpt lat="38.1582286" lon="0.008715"><ele>0.0</ele><time>2026-04-29T16:43:44.055Z</time></trkpt><trkpt lat="38.1583016" lon="0.0087683"><ele>0.0</ele><time>2026-04-29T16:43:45.056Z</time></trkpt><trkpt lat="38.158453" lon="0.0088816"><ele>0.0</ele><time>2026-04-29T16:43:47.056Z</time></trkpt><trkpt lat="38.1585222" lon="0.0089383"><ele>0.0</ele><time>2026-04-29T16:43:48.055Z</time></trkpt><trkpt lat="38.1585962" lon="0.0089958"><ele>0.0</ele><time>2026-04-29T16:43:49.055Z</time></trkpt><trkpt lat="38.158667" lon="0.0090547"><ele>0.0</ele><time>2026-04-29T16:43:50.056Z</time></trkpt><trkpt lat="38.1587372" lon="0.0091101"><ele>0.0</ele><time>2026-04-29T16:43:51.055Z</time></trkpt><trkpt lat="38.1588038" lon="0.0091795"><ele>0.0</ele><time>2026-04-29T16:43:52.055Z</time></trkpt><trkpt lat="38.1589555" lon="0.0092854"><ele>0.0</ele><time>2026-04-29T16:43:54.056Z</time></trkpt><trkpt lat="38.1590297" lon="0.0093416"><ele>0.0</ele><time>2026-04-29T16:43:55.056Z</time></trkpt><trkpt lat="38.1590977" lon="0.0093884"><ele>0.0</ele><time>2026-04-29T16:43:56.055Z</time></trkpt><trkpt lat="38.1591713" lon="0.0094305"><ele>0.0</ele><time>2026-04-29T16:43:57.055Z</time></trkpt><trkpt lat="38.1592505" lon="0.0094753"><ele>0.0</ele><time>2026-04-29T16:43:58.056Z</time></trkpt><trkpt lat="38.1593306" lon="0.0095173"><ele>0.0</ele><time>2026-04-29T16:43:59.055Z</time></trkpt><trkpt lat="38.1594036" lon="0.0095678"><ele>0.0</ele><time>2026-04-29T16:44:00.055Z</time></trkpt><trkpt lat="38.159471" lon="0.0096132"><ele>0.0</ele><time>2026-04-29T16:44:01.056Z</time></trkpt><trkpt lat="38.1595533" lon="0.0096593"><ele>0.0</ele><time>2026-04-29T16:44:02.056Z</time></trkpt><trkpt lat="38.1596337" lon="0.0097017"><ele>0.0</ele><time>2026-04-29T16:44:03.055Z</time></trkpt><trkpt lat="38.1597112" lon="0.0097535"><ele>0.0</ele><time>2026-04-29T16:44:04.055Z</time></trkpt><trkpt lat="38.1597851" lon="0.0098097"><ele>0.0</ele><time>2026-04-29T16:44:05.056Z</time></trkpt><trkpt lat="38.159857" lon="0.0098651"><ele>0.0</ele><time>2026-04-29T16:44:06.055Z</time></trkpt><trkpt lat="38.159999" lon="0.0099736"><ele>0.0</ele><time>2026-04-29T16:44:08.055Z</time></trkpt><trkpt lat="38.1600716" lon="0.0100312"><ele>0.0</ele><time>2026-04-29T16:44:09.055Z</time></trkpt><trkpt lat="38.1601463" lon="0.0100912"><ele>0.0</ele><time>2026-04-29T16:44:10.055Z</time></trkpt><trkpt lat="38.16022" lon="0.0101479"><ele>0.0</ele><time>2026-04-29T16:44:11.056Z</time></trkpt><trkpt lat="38.1602946" lon="0.0102074"><ele>0.0</ele><time>2026-04-29T16:44:12.055Z</time></trkpt><trkpt lat="38.1603701" lon="0.0102613"><ele>0.0</ele><time>2026-04-29T16:44:13.056Z</time></trkpt><trkpt lat="38.1604406" lon="0.0103127"><ele>0.0</ele><time>2026-04-29T16:44:14.056Z</time></trkpt><trkpt lat="38.1605082" lon="0.0103724"><ele>0.0</ele><time>2026-04-29T16:44:15.055Z</time></trkpt><trkpt lat="38.1605767" lon="0.0104271"><ele>0.0</ele><time>2026-04-29T16:44:16.055Z</time></trkpt><trkpt lat="38.1606457" lon="0.0104822"><ele>0.0</ele><time>2026-04-29T16:44:17.055Z</time></trkpt><trkpt lat="38.1607187" lon="0.0105336"><ele>0.0</ele><time>2026-04-29T16:44:18.055Z</time></trkpt><trkpt lat="38.1607933" lon="0.0105863"><ele>0.0</ele><time>2026-04-29T16:44:19.055Z</time></trkpt><trkpt lat="38.1608653" lon="0.0106327"><ele>0.0</ele><time>2026-04-29T16:44:20.056Z</time></trkpt><trkpt lat="38.1609381" lon="0.0106859"><ele>0.0</ele><time>2026-04-29T16:44:21.055Z</time></trkpt><trkpt lat="38.1610116" lon="0.0107399"><ele>0.0</ele><time>2026-04-29T16:44:22.056Z</time></trkpt><trkpt lat="38.1610808" lon="0.0107909"><ele>0.0</ele><time>2026-04-29T16:44:23.055Z</time></trkpt><trkpt lat="38.1611463" lon="0.0108467"><ele>0.0</ele><time>2026-04-29T16:44:24.055Z</time></trkpt><trkpt lat="38.1612167" lon="0.0109028"><ele>0.0</ele><time>2026-04-29T16:44:25.056Z</time></trkpt><trkpt lat="38.1613696" lon="0.0110173"><ele>0.0</ele><time>2026-04-29T16:44:27.056Z</time></trkpt><trkpt lat="38.1615167" lon="0.0111222"><ele>0.0</ele><time>2026-04-29T16:44:29.055Z</time></trkpt><trkpt lat="38.161594" lon="0.0111753"><ele>0.0</ele><time>2026-04-29T16:44:30.055Z</time></trkpt><trkpt lat="38.1616685" lon="0.0112329"><ele>0.0</ele><time>2026-04-29T16:44:31.055Z</time></trkpt><trkpt lat="38.1617332" lon="0.0112986"><ele>0.0</ele><time>2026-04-29T16:44:32.056Z</time></trkpt><trkpt lat="38.1618062" lon="0.0113576"><ele>0.0</ele><time>2026-04-29T16:44:33.056Z</time></trkpt><trkpt lat="38.1618811" lon="0.0114146"><ele>0.0</ele><time>2026-04-29T16:44:34.056Z</time></trkpt><trkpt lat="38.1619538" lon="0.0114739"><ele>0.0</ele><time>2026-04-29T16:44:35.055Z</time></trkpt><trkpt lat="38.1620251" lon="0.0115329"><ele>0.0</ele><time>2026-04-29T16:44:36.055Z</time></trkpt><trkpt lat="38.1620959" lon="0.0115909"><ele>0.0</ele><time>2026-04-29T16:44:37.056Z</time></trkpt><trkpt lat="38.1621644" lon="0.0116536"><ele>0.0</ele><time>2026-04-29T16:44:38.056Z</time></trkpt><trkpt lat="38.1622324" lon="0.0117112"><ele>0.0</ele><time>2026-04-29T16:44:39.056Z</time></trkpt><trkpt lat="38.1622979" lon="0.0117751"><ele>0.0</ele><time>2026-04-29T16:44:40.055Z</time></trkpt><trkpt lat="38.1623584" lon="0.0118417"><ele>0.0</ele><time>2026-04-29T16:44:41.055Z</time></trkpt><trkpt lat="38.1624239" lon="0.0118967"><ele>0.0</ele><time>2026-04-29T16:44:42.056Z</time></trkpt><trkpt lat="38.1624994" lon="0.0119538"><ele>0.0</ele><time>2026-04-29T16:44:43.056Z</time></trkpt><trkpt lat="38.1625775" lon="0.012002"><ele>0.0</ele><time>2026-04-29T16:44:44.056Z</time></trkpt><trkpt lat="38.1626545" lon="0.0120529"><ele>0.0</ele><time>2026-04-29T16:44:45.056Z</time></trkpt><trkpt lat="38.1627294" lon="0.0121121"><ele>0.0</ele><time>2026-04-29T16:44:46.055Z</time></trkpt><trkpt lat="38.1628033" lon="0.0121698"><ele>0.0</ele><time>2026-04-29T16:44:47.055Z</time></trkpt><trkpt lat="38.1628752" lon="0.0122311"><ele>0.0</ele><time>2026-04-29T16:44:48.055Z</time></trkpt><trkpt lat="38.1630181" lon="0.0123495"><ele>0.0</ele><time>2026-04-29T16:44:50.056Z</time></trkpt><trkpt lat="38.1630931" lon="0.0124042"><ele>0.0</ele><time>2026-04-29T16:44:51.055Z</time></trkpt><trkpt lat="38.1631694" lon="0.0124579"><ele>0.0</ele><time>2026-04-29T16:44:52.056Z</time></trkpt><trkpt lat="38.1632465" lon="0.0125127"><ele>0.0</ele><time>2026-04-29T16:44:53.056Z</time></trkpt><trkpt lat="38.1633183" lon="0.0125727"><ele>0.0</ele><time>2026-04-29T16:44:54.056Z</time></trkpt><trkpt lat="38.1633887" lon="0.0126297"><ele>0.0</ele><time>2026-04-29T16:44:55.056Z</time></trkpt><trkpt lat="38.1634599" lon="0.0126897"><ele>0.0</ele><time>2026-04-29T16:44:56.056Z</time></trkpt><trkpt lat="38.1635244" lon="0.0127339"><ele>0.0</ele><time>2026-04-29T16:44:57.055Z</time></trkpt><trkpt lat="38.1636035" lon="0.0127541"><ele>0.0</ele><time>2026-04-29T16:44:58.056Z</time></trkpt><trkpt lat="38.1636709" lon="0.0128039"><ele>0.0</ele><time>2026-04-29T16:44:59.056Z</time></trkpt><trkpt lat="38.1637445" lon="0.0128586"><ele>0.0</ele><time>2026-04-29T16:45:00.056Z</time></trkpt><trkpt lat="38.1638198" lon="0.0129214"><ele>0.0</ele><time>2026-04-29T16:45:01.056Z</time></trkpt><trkpt lat="38.1638919" lon="0.0129824"><ele>0.0</ele><time>2026-04-29T16:45:02.055Z</time></trkpt><trkpt lat="38.1639647" lon="0.0130455"><ele>0.0</ele><time>2026-04-29T16:45:03.056Z</time></trkpt><trkpt lat="38.1640366" lon="0.0131044"><ele>0.0</ele><time>2026-04-29T16:45:04.056Z</time></trkpt><trkpt lat="38.1641034" lon="0.0131647"><ele>0.0</ele><time>2026-04-29T16:45:05.055Z</time></trkpt><trkpt lat="38.1641765" lon="0.0132196"><ele>0.0</ele><time>2026-04-29T16:45:06.055Z</time></trkpt><trkpt lat="38.1642518" lon="0.0132717"><ele>0.0</ele><time>2026-04-29T16:45:07.055Z</time></trkpt><trkpt lat="38.164326" lon="0.0133324"><ele>0.0</ele><time>2026-04-29T16:45:08.056Z</time></trkpt><trkpt lat="38.1643968" lon="0.0133972"><ele>0.0</ele><time>2026-04-29T16:45:09.055Z</time></trkpt><trkpt lat="38.16454" lon="0.0135181"><ele>0.0</ele><time>2026-04-29T16:45:11.055Z</time></trkpt><trkpt lat="38.1646114" lon="0.0135779"><ele>0.0</ele><time>2026-04-29T16:45:12.056Z</time></trkpt><trkpt lat="38.1646846" lon="0.0136346"><ele>0.0</ele><time>2026-04-29T16:45:13.056Z</time></trkpt><trkpt lat="38.1647602" lon="0.0136821"><ele>0.0</ele><time>2026-04-29T16:45:14.055Z</time></trkpt><trkpt lat="38.1648333" lon="0.0137334"><ele>0.0</ele><time>2026-04-29T16:45:15.055Z</time></trkpt><trkpt lat="38.1649066" lon="0.0137867"><ele>0.0</ele><time>2026-04-29T16:45:16.055Z</time></trkpt><trkpt lat="38.1649754" lon="0.0138384"><ele>0.0</ele><time>2026-04-29T16:45:17.056Z</time></trkpt><trkpt lat="38.1650466" lon="0.013898"><ele>0.0</ele><time>2026-04-29T16:45:18.056Z</time></trkpt><trkpt lat="38.1651172" lon="0.0139552"><ele>0.0</ele><time>2026-04-29T16:45:19.055Z</time></trkpt><trkpt lat="38.1651839" lon="0.0140132"><ele>0.0</ele><time>2026-04-29T16:45:20.055Z</time></trkpt><trkpt lat="38.1652528" lon="0.0140745"><ele>0.0</ele><time>2026-04-29T16:45:21.055Z</time></trkpt><trkpt lat="38.1653289" lon="0.014137"><ele>0.0</ele><time>2026-04-29T16:45:22.056Z</time></trkpt><trkpt lat="38.1654042" lon="0.0141941"><ele>0.0</ele><time>2026-04-29T16:45:23.055Z</time></trkpt><trkpt lat="38.1654795" lon="0.0142493"><ele>0.0</ele><time>2026-04-29T16:45:24.055Z</time></trkpt><trkpt lat="38.1655561" lon="0.0143058"><ele>0.0</ele><time>2026-04-29T16:45:25.055Z</time></trkpt><trkpt lat="38.1656298" lon="0.0143641"><ele>0.0</ele><time>2026-04-29T16:45:26.055Z</time></trkpt><trkpt lat="38.1657004" lon="0.0144234"><ele>0.0</ele><time>2026-04-29T16:45:27.056Z</time></trkpt><trkpt lat="38.1657716" lon="0.014486"><ele>0.0</ele><time>2026-04-29T16:45:28.056Z</time></trkpt><trkpt lat="38.1658432" lon="0.0145463"><ele>0.0</ele><time>2026-04-29T16:45:29.056Z</time></trkpt><trkpt lat="38.1659151" lon="0.0146045"><ele>0.0</ele><time>2026-04-29T16:45:30.055Z</time></trkpt><trkpt lat="38.1659868" lon="0.0146628"><ele>0.0</ele><time>2026-04-29T16:45:31.055Z</time></trkpt><trkpt lat="38.1661319" lon="0.0147847"><ele>0.0</ele><time>2026-04-29T16:45:33.056Z</time></trkpt><trkpt lat="38.1662047" lon="0.0148445"><ele>0.0</ele><time>2026-04-29T16:45:34.055Z</time></trkpt><trkpt lat="38.1662766" lon="0.0149062"><ele>0.0</ele><time>2026-04-29T16:45:35.055Z</time></trkpt><trkpt lat="38.1663467" lon="0.014968"><ele>0.0</ele><time>2026-04-29T16:45:36.055Z</time></trkpt><trkpt lat="38.1664166" lon="0.0150338"><ele>0.0</ele><time>2026-04-29T16:45:37.055Z</time></trkpt><trkpt lat="38.1664883" lon="0.0151017"><ele>0.0</ele><time>2026-04-29T16:45:38.055Z</time></trkpt><trkpt lat="38.1665557" lon="0.0151658"><ele>0.0</ele><time>2026-04-29T16:45:39.056Z</time></trkpt><trkpt lat="38.166628" lon="0.0152228"><ele>0.0</ele><time>2026-04-29T16:45:40.055Z</time></trkpt><trkpt lat="38.166703" lon="0.0152777"><ele>0.0</ele><time>2026-04-29T16:45:41.056Z</time></trkpt><trkpt lat="38.1667795" lon="0.0153148"><ele>0.0</ele><time>2026-04-29T16:45:42.055Z</time></trkpt><trkpt lat="38.1668525" lon="0.0153612"><ele>0.0</ele><time>2026-04-29T16:45:43.056Z</time></trkpt><trkpt lat="38.1669236" lon="0.0154184"><ele>0.0</ele><time>2026-04-29T16:45:44.055Z</time></trkpt><trkpt lat="38.1669907" lon="0.0154753"><ele>0.0</ele><time>2026-04-29T16:45:45.055Z</time></trkpt><trkpt lat="38.1670602" lon="0.0155351"><ele>0.0</ele><time>2026-04-29T16:45:46.055Z</time></trkpt><trkpt lat="38.1671286" lon="0.0155887"><ele>0.0</ele><time>2026-04-29T16:45:47.056Z</time></trkpt><trkpt lat="38.1672033" lon="0.0156463"><ele>0.0</ele><time>2026-04-29T16:45:48.055Z</time></trkpt><trkpt lat="38.1672767" lon="0.0157046"><ele>0.0</ele><time>2026-04-29T16:45:49.056Z</time></trkpt><trkpt lat="38.1673428" lon="0.0157519"><ele>0.0</ele><time>2026-04-29T16:45:50.056Z</time></trkpt><trkpt lat="38.1674132" lon="0.0158107"><ele>0.0</ele><time>2026-04-29T16:45:51.056Z</time></trkpt><trkpt lat="38.1674879" lon="0.015874"><ele>0.0</ele><time>2026-04-29T16:45:52.055Z</time></trkpt><trkpt lat="38.1676333" lon="0.0159947"><ele>0.0</ele><time>2026-04-29T16:45:54.056Z</time></trkpt><trkpt lat="38.1677063" lon="0.0160533"><ele>0.0</ele><time>2026-04-29T16:45:55.055Z</time></trkpt><trkpt lat="38.1677779" lon="0.0161101"><ele>0.0</ele><time>2026-04-29T16:45:56.056Z</time></trkpt><trkpt lat="38.1678498" lon="0.0161683"><ele>0.0</ele><time>2026-04-29T16:45:57.055Z</time></trkpt><trkpt lat="38.1679204" lon="0.0162252"><ele>0.0</ele><time>2026-04-29T16:45:58.055Z</time></trkpt><trkpt lat="38.1679914" lon="0.0162863"><ele>0.0</ele><time>2026-04-29T16:45:59.056Z</time></trkpt><trkpt lat="38.1680602" lon="0.0163449"><ele>0.0</ele><time>2026-04-29T16:46:00.055Z</time></trkpt><trkpt lat="38.1681316" lon="0.016403"><ele>0.0</ele><time>2026-04-29T16:46:01.055Z</time></trkpt><trkpt lat="38.168202" lon="0.0164586"><ele>0.0</ele><time>2026-04-29T16:46:02.055Z</time></trkpt><trkpt lat="38.168272" lon="0.0165117"><ele>0.0</ele><time>2026-04-29T16:46:03.055Z</time></trkpt><trkpt lat="38.1683422" lon="0.0165636"><ele>0.0</ele><time>2026-04-29T16:46:04.055Z</time></trkpt><trkpt lat="38.1684133" lon="0.0166182"><ele>0.0</ele><time>2026-04-29T16:46:05.056Z</time></trkpt><trkpt lat="38.1684848" lon="0.0166735"><ele>0.0</ele><time>2026-04-29T16:46:06.055Z</time></trkpt><trkpt lat="38.1685582" lon="0.0167316"><ele>0.0</ele><time>2026-04-29T16:46:07.056Z</time></trkpt><trkpt lat="38.1686316" lon="0.0167899"><ele>0.0</ele><time>2026-04-29T16:46:08.056Z</time></trkpt><trkpt lat="38.1686991" lon="0.0168368"><ele>0.0</ele><time>2026-04-29T16:46:09.055Z</time></trkpt><trkpt lat="38.168771" lon="0.0168884"><ele>0.0</ele><time>2026-04-29T16:46:10.056Z</time></trkpt><trkpt lat="38.1688458" lon="0.0169284"><ele>0.0</ele><time>2026-04-29T16:46:11.055Z</time></trkpt><trkpt lat="38.168921" lon="0.0169787"><ele>0.0</ele><time>2026-04-29T16:46:12.056Z</time></trkpt><trkpt lat="38.1689948" lon="0.0170318"><ele>0.0</ele><time>2026-04-29T16:46:13.055Z</time></trkpt><trkpt lat="38.1691384" lon="0.0171448"><ele>0.0</ele><time>2026-04-29T16:46:15.055Z</time></trkpt><trkpt lat="38.1692142" lon="0.0172041"><ele>0.0</ele><time>2026-04-29T16:46:16.056Z</time></trkpt><trkpt lat="38.1692866" lon="0.0172668"><ele>0.0</ele><time>2026-04-29T16:46:17.056Z</time></trkpt><trkpt lat="38.169358" lon="0.0173228"><ele>0.0</ele><time>2026-04-29T16:46:18.055Z</time></trkpt><trkpt lat="38.1694273" lon="0.0173946"><ele>0.0</ele><time>2026-04-29T16:46:19.056Z</time></trkpt><trkpt lat="38.1694986" lon="0.0174639"><ele>0.0</ele><time>2026-04-29T16:46:20.055Z</time></trkpt><trkpt lat="38.1695688" lon="0.017527"><ele>0.0</ele><time>2026-04-29T16:46:21.056Z</time></trkpt><trkpt lat="38.1696428" lon="0.0175836"><ele>0.0</ele><time>2026-04-29T16:46:22.056Z</time></trkpt><trkpt lat="38.1697132" lon="0.0176476"><ele>0.0</ele><time>2026-04-29T16:46:23.056Z</time></trkpt><trkpt lat="38.1697819" lon="0.0177146"><ele>0.0</ele><time>2026-04-29T16:46:24.056Z</time></trkpt><trkpt lat="38.1698529" lon="0.0177769"><ele>0.0</ele><time>2026-04-29T16:46:25.055Z</time></trkpt><trkpt lat="38.1699234" lon="0.0178366"><ele>0.0</ele><time>2026-04-29T16:46:26.055Z</time></trkpt><trkpt lat="38.1699975" lon="0.0178782"><ele>0.0</ele><time>2026-04-29T16:46:27.056Z</time></trkpt><trkpt lat="38.1700713" lon="0.0179368"><ele>0.0</ele><time>2026-04-29T16:46:28.056Z</time></trkpt><trkpt lat="38.1701476" lon="0.0179935"><ele>0.0</ele><time>2026-04-29T16:46:29.056Z</time></trkpt><trkpt lat="38.1702215" lon="0.018034"><ele>0.0</ele><time>2026-04-29T16:46:30.056Z</time></trkpt><trkpt lat="38.1702874" lon="0.0180906"><ele>0.0</ele><time>2026-04-29T16:46:31.056Z</time></trkpt><trkpt lat="38.1703567" lon="0.0181271"><ele>0.0</ele><time>2026-04-29T16:46:32.056Z</time></trkpt><trkpt lat="38.1704236" lon="0.0181788"><ele>0.0</ele><time>2026-04-29T16:46:33.056Z</time></trkpt><trkpt lat="38.1706416" lon="0.0183434"><ele>0.0</ele><time>2026-04-29T16:46:36.055Z</time></trkpt><trkpt lat="38.1707117" lon="0.0183964"><ele>0.0</ele><time>2026-04-29T16:46:37.056Z</time></trkpt><trkpt lat="38.1707846" lon="0.0184497"><ele>0.0</ele><time>2026-04-29T16:46:38.055Z</time></trkpt><trkpt lat="38.1708553" lon="0.0185047"><ele>0.0</ele><time>2026-04-29T16:46:39.056Z</time></trkpt><trkpt lat="38.1709236" lon="0.0185632"><ele>0.0</ele><time>2026-04-29T16:46:40.056Z</time></trkpt><trkpt lat="38.1709934" lon="0.0186248"><ele>0.0</ele><time>2026-04-29T16:46:41.055Z</time></trkpt><trkpt lat="38.1710677" lon="0.0186816"><ele>0.0</ele><time>2026-04-29T16:46:42.055Z</time></trkpt><trkpt lat="38.1711357" lon="0.0187437"><ele>0.0</ele><time>2026-04-29T16:46:43.056Z</time></trkpt><trkpt lat="38.1712052" lon="0.0188063"><ele>0.0</ele><time>2026-04-29T16:46:44.055Z</time></trkpt><trkpt lat="38.1712782" lon="0.0188659"><ele>0.0</ele><time>2026-04-29T16:46:45.056Z</time></trkpt><trkpt lat="38.1713483" lon="0.0189214"><ele>0.0</ele><time>2026-04-29T16:46:46.055Z</time></trkpt><trkpt lat="38.1714227" lon="0.0189708"><ele>0.0</ele><time>2026-04-29T16:46:47.055Z</time></trkpt><trkpt lat="38.1714932" lon="0.0190277"><ele>0.0</ele><time>2026-04-29T16:46:48.056Z</time></trkpt><trkpt lat="38.1715662" lon="0.0190822"><ele>0.0</ele><time>2026-04-29T16:46:49.055Z</time></trkpt><trkpt lat="38.1716383" lon="0.0191418"><ele>0.0</ele><time>2026-04-29T16:46:50.055Z</time></trkpt><trkpt lat="38.1717055" lon="0.0192027"><ele>0.0</ele><time>2026-04-29T16:46:51.056Z</time></trkpt><trkpt lat="38.171778" lon="0.0192637"><ele>0.0</ele><time>2026-04-29T16:46:52.056Z</time></trkpt><trkpt lat="38.1718473" lon="0.0193224"><ele>0.0</ele><time>2026-04-29T16:46:53.055Z</time></trkpt><trkpt lat="38.1719227" lon="0.0193723"><ele>0.0</ele><time>2026-04-29T16:46:54.055Z</time></trkpt><trkpt lat="38.1719907" lon="0.0194293"><ele>0.0</ele><time>2026-04-29T16:46:55.055Z</time></trkpt><trkpt lat="38.1721379" lon="0.0195366"><ele>0.0</ele><time>2026-04-29T16:46:57.056Z</time></trkpt><trkpt lat="38.1722053" lon="0.0196002"><ele>0.0</ele><time>2026-04-29T16:46:58.056Z</time></trkpt><trkpt lat="38.1722859" lon="0.0196331"><ele>0.0</ele><time>2026-04-29T16:46:59.055Z</time></trkpt><trkpt lat="38.1723555" lon="0.0196905"><ele>0.0</ele><time>2026-04-29T16:47:00.056Z</time></trkpt><trkpt lat="38.1724255" lon="0.019747"><ele>0.0</ele><time>2026-04-29T16:47:01.056Z</time></trkpt><trkpt lat="38.1724967" lon="0.0198063"><ele>0.0</ele><time>2026-04-29T16:47:02.055Z</time></trkpt><trkpt lat="38.1725721" lon="0.0198496"><ele>0.0</ele><time>2026-04-29T16:47:03.056Z</time></trkpt><trkpt lat="38.17264" lon="0.0199114"><ele>0.0</ele><time>2026-04-29T16:47:04.055Z</time></trkpt><trkpt lat="38.1727114" lon="0.0199713"><ele>0.0</ele><time>2026-04-29T16:47:05.055Z</time></trkpt><trkpt lat="38.172851" lon="0.0200893"><ele>0.0</ele><time>2026-04-29T16:47:07.055Z</time></trkpt><trkpt lat="38.1729218" lon="0.020146"><ele>0.0</ele><time>2026-04-29T16:47:08.056Z</time></trkpt><trkpt lat="38.1730017" lon="0.0201803"><ele>0.0</ele><time>2026-04-29T16:47:09.055Z</time></trkpt><trkpt lat="38.1730761" lon="0.0202222"><ele>0.0</ele><time>2026-04-29T16:47:10.055Z</time></trkpt><trkpt lat="38.1731494" lon="0.0202825"><ele>0.0</ele><time>2026-04-29T16:47:11.055Z</time></trkpt><trkpt lat="38.1732168" lon="0.0203504"><ele>0.0</ele><time>2026-04-29T16:47:12.054Z</time></trkpt><trkpt lat="38.1732936" lon="0.0203919"><ele>0.0</ele><time>2026-04-29T16:47:13.055Z</time></trkpt><trkpt lat="38.1733661" lon="0.0204417"><ele>0.0</ele><time>2026-04-29T16:47:14.054Z</time></trkpt><trkpt lat="38.1734352" lon="0.0204985"><ele>0.0</ele><time>2026-04-29T16:47:15.054Z</time></trkpt><trkpt lat="38.1735009" lon="0.0205648"><ele>0.0</ele><time>2026-04-29T16:47:16.054Z</time></trkpt><trkpt lat="38.1736383" lon="0.0206962"><ele>0.0</ele><time>2026-04-29T16:47:18.055Z</time></trkpt><trkpt lat="38.1737155" lon="0.0207355"><ele>0.0</ele><time>2026-04-29T16:47:19.055Z</time></trkpt><trkpt lat="38.1737936" lon="0.0207721"><ele>0.0</ele><time>2026-04-29T16:47:20.054Z</time></trkpt><trkpt lat="38.1738665" lon="0.0208219"><ele>0.0</ele><time>2026-04-29T16:47:21.054Z</time></trkpt><trkpt lat="38.1739468" lon="0.0208521"><ele>0.0</ele><time>2026-04-29T16:47:22.054Z</time></trkpt><trkpt lat="38.1740222" lon="0.0209047"><ele>0.0</ele><time>2026-04-29T16:47:23.054Z</time></trkpt><trkpt lat="38.1740988" lon="0.0209597"><ele>0.0</ele><time>2026-04-29T16:47:24.054Z</time></trkpt><trkpt lat="38.1741704" lon="0.0210191"><ele>0.0</ele><time>2026-04-29T16:47:25.054Z</time></trkpt><trkpt lat="38.1742421" lon="0.0210747"><ele>0.0</ele><time>2026-04-29T16:47:26.054Z</time></trkpt><trkpt lat="38.1743047" lon="0.0211494"><ele>0.0</ele><time>2026-04-29T16:47:27.054Z</time></trkpt><trkpt lat="38.1743735" lon="0.0212104"><ele>0.0</ele><time>2026-04-29T16:47:28.054Z</time></trkpt><trkpt lat="38.1744434" lon="0.0212705"><ele>0.0</ele><time>2026-04-29T16:47:29.055Z</time></trkpt><trkpt lat="38.1745193" lon="0.0213318"><ele>0.0</ele><time>2026-04-29T16:47:30.055Z</time></trkpt><trkpt lat="38.1745919" lon="0.0213925"><ele>0.0</ele><time>2026-04-29T16:47:31.054Z</time></trkpt><trkpt lat="38.1746618" lon="0.0214516"><ele>0.0</ele><time>2026-04-29T16:47:32.054Z</time></trkpt><trkpt lat="38.1747316" lon="0.0215115"><ele>0.0</ele><time>2026-04-29T16:47:33.055Z</time></trkpt><trkpt lat="38.1748044" lon="0.0215631"><ele>0.0</ele><time>2026-04-29T16:47:34.055Z</time></trkpt><trkpt lat="38.1748793" lon="0.0216055"><ele>0.0</ele><time>2026-04-29T16:47:35.054Z</time></trkpt><trkpt lat="38.1749499" lon="0.0216683"><ele>0.0</ele><time>2026-04-29T16:47:36.054Z</time></trkpt><trkpt lat="38.1750188" lon="0.0217317"><ele>0.0</ele><time>2026-04-29T16:47:37.055Z</time></trkpt><trkpt lat="38.175234" lon="0.0219092"><ele>0.0</ele><time>2026-04-29T16:47:40.054Z</time></trkpt><trkpt lat="38.1752994" lon="0.0219754"><ele>0.0</ele><time>2026-04-29T16:47:41.054Z</time></trkpt><trkpt lat="38.1753655" lon="0.0220433"><ele>0.0</ele><time>2026-04-29T16:47:42.054Z</time></trkpt><trkpt lat="38.1754352" lon="0.0220943"><ele>0.0</ele><time>2026-04-29T16:47:43.054Z</time></trkpt><trkpt lat="38.1755076" lon="0.0221428"><ele>0.0</ele><time>2026-04-29T16:47:44.055Z</time></trkpt><trkpt lat="38.1755783" lon="0.0221968"><ele>0.0</ele><time>2026-04-29T16:47:45.055Z</time></trkpt><trkpt lat="38.1756599" lon="0.0222536"><ele>0.0</ele><time>2026-04-29T16:47:46.055Z</time></trkpt><trkpt lat="38.1757402" lon="0.0222974"><ele>0.0</ele><time>2026-04-29T16:47:47.055Z</time></trkpt><trkpt lat="38.175813" lon="0.0223531"><ele>0.0</ele><time>2026-04-29T16:47:48.055Z</time></trkpt><trkpt lat="38.1758822" lon="0.0224051"><ele>0.0</ele><time>2026-04-29T16:47:49.054Z</time></trkpt><trkpt lat="38.175952" lon="0.0224539"><ele>0.0</ele><time>2026-04-29T16:47:50.054Z</time></trkpt><trkpt lat="38.1760262" lon="0.022508"><ele>0.0</ele><time>2026-04-29T16:47:51.054Z</time></trkpt><trkpt lat="38.1760982" lon="0.0225633"><ele>0.0</ele><time>2026-04-29T16:47:52.054Z</time></trkpt><trkpt lat="38.1761653" lon="0.0226245"><ele>0.0</ele><time>2026-04-29T16:47:53.055Z</time></trkpt><trkpt lat="38.1762349" lon="0.0226763"><ele>0.0</ele><time>2026-04-29T16:47:54.054Z</time></trkpt><trkpt lat="38.1763078" lon="0.0227285"><ele>0.0</ele><time>2026-04-29T16:47:55.054Z</time></trkpt><trkpt lat="38.17638" lon="0.0227785"><ele>0.0</ele><time>2026-04-29T16:47:56.055Z</time></trkpt><trkpt lat="38.1764474" lon="0.0228344"><ele>0.0</ele><time>2026-04-29T16:47:57.055Z</time></trkpt><trkpt lat="38.1765181" lon="0.0228846"><ele>0.0</ele><time>2026-04-29T16:47:58.055Z</time></trkpt><trkpt lat="38.176577" lon="0.0229668"><ele>0.0</ele><time>2026-04-29T16:47:59.054Z</time></trkpt><trkpt lat="38.1767051" lon="0.0231362"><ele>0.0</ele><time>2026-04-29T16:48:01.054Z</time></trkpt><trkpt lat="38.1767735" lon="0.0232011"><ele>0.0</ele><time>2026-04-29T16:48:02.055Z</time></trkpt><trkpt lat="38.1768419" lon="0.0232623"><ele>0.0</ele><time>2026-04-29T16:48:03.054Z</time></trkpt><trkpt lat="38.1769117" lon="0.0233281"><ele>0.0</ele><time>2026-04-29T16:48:04.054Z</time></trkpt><trkpt lat="38.1769821" lon="0.0233876"><ele>0.0</ele><time>2026-04-29T16:48:05.054Z</time></trkpt><trkpt lat="38.177049" lon="0.0234508"><ele>0.0</ele><time>2026-04-29T16:48:06.055Z</time></trkpt><trkpt lat="38.1771254" lon="0.0234938"><ele>0.0</ele><time>2026-04-29T16:48:07.054Z</time></trkpt><trkpt lat="38.1772052" lon="0.0235329"><ele>0.0</ele><time>2026-04-29T16:48:08.055Z</time></trkpt><trkpt lat="38.1772866" lon="0.0235726"><ele>0.0</ele><time>2026-04-29T16:48:09.055Z</time></trkpt><trkpt lat="38.1774319" lon="0.0236803"><ele>0.0</ele><time>2026-04-29T16:48:11.054Z</time></trkpt><trkpt lat="38.1775046" lon="0.0237271"><ele>0.0</ele><time>2026-04-29T16:48:12.054Z</time></trkpt><trkpt lat="38.1775763" lon="0.0237779"><ele>0.0</ele><time>2026-04-29T16:48:13.054Z</time></trkpt><trkpt lat="38.1776465" lon="0.0238353"><ele>0.0</ele><time>2026-04-29T16:48:14.054Z</time></trkpt><trkpt lat="38.1777255" lon="0.0238772"><ele>0.0</ele><time>2026-04-29T16:48:15.054Z</time></trkpt><trkpt lat="38.1777994" lon="0.0239181"><ele>0.0</ele><time>2026-04-29T16:48:16.055Z</time></trkpt><trkpt lat="38.1778787" lon="0.0239578"><ele>0.0</ele><time>2026-04-29T16:48:17.054Z</time></trkpt><trkpt lat="38.1779543" lon="0.0240013"><ele>0.0</ele><time>2026-04-29T16:48:18.055Z</time></trkpt><trkpt lat="38.178018" lon="0.0240579"><ele>0.0</ele><time>2026-04-29T16:48:19.054Z</time></trkpt><trkpt lat="38.1780923" lon="0.0240991"><ele>0.0</ele><time>2026-04-29T16:48:20.055Z</time></trkpt><trkpt lat="38.1782311" lon="0.0242165"><ele>0.0</ele><time>2026-04-29T16:48:22.055Z</time></trkpt><trkpt lat="38.1783044" lon="0.0242763"><ele>0.0</ele><time>2026-04-29T16:48:23.055Z</time></trkpt><trkpt lat="38.178375" lon="0.0243354"><ele>0.0</ele><time>2026-04-29T16:48:24.054Z</time></trkpt><trkpt lat="38.1784465" lon="0.0243955"><ele>0.0</ele><time>2026-04-29T16:48:25.055Z</time></trkpt><trkpt lat="38.1785194" lon="0.024449"><ele>0.0</ele><time>2026-04-29T16:48:26.054Z</time></trkpt><trkpt lat="38.1785905" lon="0.0245048"><ele>0.0</ele><time>2026-04-29T16:48:27.055Z</time></trkpt><trkpt lat="38.1786588" lon="0.0245644"><ele>0.0</ele><time>2026-04-29T16:48:28.055Z</time></trkpt><trkpt lat="38.1787269" lon="0.0246248"><ele>0.0</ele><time>2026-04-29T16:48:29.055Z</time></trkpt><trkpt lat="38.1787953" lon="0.0246816"><ele>0.0</ele><time>2026-04-29T16:48:30.055Z</time></trkpt><trkpt lat="38.1788665" lon="0.0247438"><ele>0.0</ele><time>2026-04-29T16:48:31.054Z</time></trkpt><trkpt lat="38.1789397" lon="0.0248061"><ele>0.0</ele><time>2026-04-29T16:48:32.054Z</time></trkpt><trkpt lat="38.1790119" lon="0.0248661"><ele>0.0</ele><time>2026-04-29T16:48:33.054Z</time></trkpt><trkpt lat="38.1790819" lon="0.0249334"><ele>0.0</ele><time>2026-04-29T16:48:34.054Z</time></trkpt><trkpt lat="38.1791506" lon="0.0249961"><ele>0.0</ele><time>2026-04-29T16:48:35.055Z</time></trkpt><trkpt lat="38.1792249" lon="0.0250391"><ele>0.0</ele><time>2026-04-29T16:48:36.055Z</time></trkpt><trkpt lat="38.1792982" lon="0.0250961"><ele>0.0</ele><time>2026-04-29T16:48:37.054Z</time></trkpt><trkpt lat="38.1793686" lon="0.0251544"><ele>0.0</ele><time>2026-04-29T16:48:38.055Z</time></trkpt><trkpt lat="38.1794356" lon="0.0252182"><ele>0.0</ele><time>2026-04-29T16:48:39.054Z</time></trkpt><trkpt lat="38.1795016" lon="0.0252797"><ele>0.0</ele><time>2026-04-29T16:48:40.054Z</time></trkpt><trkpt lat="38.1795728" lon="0.0253398"><ele>0.0</ele><time>2026-04-29T16:48:41.054Z</time></trkpt><trkpt lat="38.1796418" lon="0.0254171"><ele>0.0</ele><time>2026-04-29T16:48:42.054Z</time></trkpt><trkpt lat="38.1797865" lon="0.0255352"><ele>0.0</ele><time>2026-04-29T16:48:44.054Z</time></trkpt><trkpt lat="38.179857" lon="0.0255883"><ele>0.0</ele><time>2026-04-29T16:48:45.055Z</time></trkpt><trkpt lat="38.17993" lon="0.0256417"><ele>0.0</ele><time>2026-04-29T16:48:46.054Z</time></trkpt><trkpt lat="38.1800031" lon="0.0256953"><ele>0.0</ele><time>2026-04-29T16:48:47.054Z</time></trkpt><trkpt lat="38.1800792" lon="0.0257518"><ele>0.0</ele><time>2026-04-29T16:48:48.055Z</time></trkpt><trkpt lat="38.1801431" lon="0.0258295"><ele>0.0</ele><time>2026-04-29T16:48:49.054Z</time></trkpt><trkpt lat="38.1802045" lon="0.0259139"><ele>0.0</ele><time>2026-04-29T16:48:50.054Z</time></trkpt><trkpt lat="38.1802691" lon="0.0259768"><ele>0.0</ele><time>2026-04-29T16:48:51.054Z</time></trkpt><trkpt lat="38.1803354" lon="0.0260478"><ele>0.0</ele><time>2026-04-29T16:48:52.054Z</time></trkpt><trkpt lat="38.1804138" lon="0.0260912"><ele>0.0</ele><time>2026-04-29T16:48:53.055Z</time></trkpt><trkpt lat="38.1804921" lon="0.0261271"><ele>0.0</ele><time>2026-04-29T16:48:54.054Z</time></trkpt><trkpt lat="38.1805648" lon="0.0261806"><ele>0.0</ele><time>2026-04-29T16:48:55.055Z</time></trkpt><trkpt lat="38.1806379" lon="0.0262356"><ele>0.0</ele><time>2026-04-29T16:48:56.054Z</time></trkpt><trkpt lat="38.1807097" lon="0.0262933"><ele>0.0</ele><time>2026-04-29T16:48:57.055Z</time></trkpt><trkpt lat="38.1807828" lon="0.0263386"><ele>0.0</ele><time>2026-04-29T16:48:58.055Z</time></trkpt><trkpt lat="38.1808607" lon="0.0263646"><ele>0.0</ele><time>2026-04-29T16:48:59.054Z</time></trkpt><trkpt lat="38.1809331" lon="0.0264223"><ele>0.0</ele><time>2026-04-29T16:49:00.055Z</time></trkpt><trkpt lat="38.1810104" lon="0.0264769"><ele>0.0</ele><time>2026-04-29T16:49:01.054Z</time></trkpt><trkpt lat="38.1810902" lon="0.0265167"><ele>0.0</ele><time>2026-04-29T16:49:02.054Z</time></trkpt><trkpt lat="38.1811619" lon="0.0265687"><ele>0.0</ele><time>2026-04-29T16:49:03.054Z</time></trkpt><trkpt lat="38.1812965" lon="0.0266939"><ele>0.0</ele><time>2026-04-29T16:49:05.054Z</time></trkpt><trkpt lat="38.1813625" lon="0.0267612"><ele>0.0</ele><time>2026-04-29T16:49:06.055Z</time></trkpt><trkpt lat="38.1814332" lon="0.0268224"><ele>0.0</ele><time>2026-04-29T16:49:07.055Z</time></trkpt><trkpt lat="38.1815046" lon="0.0268872"><ele>0.0</ele><time>2026-04-29T16:49:08.055Z</time></trkpt><trkpt lat="38.1815809" lon="0.026948"><ele>0.0</ele><time>2026-04-29T16:49:09.054Z</time></trkpt><trkpt lat="38.1816487" lon="0.027002"><ele>0.0</ele><time>2026-04-29T16:49:10.054Z</time></trkpt><trkpt lat="38.1817015" lon="0.0270953"><ele>0.0</ele><time>2026-04-29T16:49:11.054Z</time></trkpt><trkpt lat="38.1817662" lon="0.0271588"><ele>0.0</ele><time>2026-04-29T16:49:12.055Z</time></trkpt><trkpt lat="38.1819158" lon="0.0272559"><ele>0.0</ele><time>2026-04-29T16:49:14.054Z</time></trkpt><trkpt lat="38.1819895" lon="0.0273107"><ele>0.0</ele><time>2026-04-29T16:49:15.054Z</time></trkpt><trkpt lat="38.1820657" lon="0.0273557"><ele>0.0</ele><time>2026-04-29T16:49:16.055Z</time></trkpt><trkpt lat="38.1821394" lon="0.0274053"><ele>0.0</ele><time>2026-04-29T16:49:17.055Z</time></trkpt><trkpt lat="38.1822102" lon="0.027465"><ele>0.0</ele><time>2026-04-29T16:49:18.055Z</time></trkpt><trkpt lat="38.1822815" lon="0.0275258"><ele>0.0</ele><time>2026-04-29T16:49:19.054Z</time></trkpt><trkpt lat="38.1823617" lon="0.0275677"><ele>0.0</ele><time>2026-04-29T16:49:20.054Z</time></trkpt><trkpt lat="38.182442" lon="0.0276149"><ele>0.0</ele><time>2026-04-29T16:49:21.054Z</time></trkpt><trkpt lat="38.182514" lon="0.0276726"><ele>0.0</ele><time>2026-04-29T16:49:22.055Z</time></trkpt><trkpt lat="38.1825824" lon="0.027724"><ele>0.0</ele><time>2026-04-29T16:49:23.055Z</time></trkpt><trkpt lat="38.1826563" lon="0.0277632"><ele>0.0</ele><time>2026-04-29T16:49:24.054Z</time></trkpt><trkpt lat="38.1827986" lon="0.0278651"><ele>0.0</ele><time>2026-04-29T16:49:26.055Z</time></trkpt><trkpt lat="38.1828672" lon="0.0279199"><ele>0.0</ele><time>2026-04-29T16:49:27.055Z</time></trkpt><trkpt lat="38.18294" lon="0.0279759"><ele>0.0</ele><time>2026-04-29T16:49:28.054Z</time></trkpt><trkpt lat="38.183012" lon="0.0280317"><ele>0.0</ele><time>2026-04-29T16:49:29.054Z</time></trkpt><trkpt lat="38.1830843" lon="0.028092"><ele>0.0</ele><time>2026-04-29T16:49:30.055Z</time></trkpt><trkpt lat="38.1831495" lon="0.0281574"><ele>0.0</ele><time>2026-04-29T16:49:31.055Z</time></trkpt><trkpt lat="38.1832205" lon="0.0282374"><ele>0.0</ele><time>2026-04-29T16:49:32.054Z</time></trkpt><trkpt lat="38.1832904" lon="0.0282964"><ele>0.0</ele><time>2026-04-29T16:49:33.055Z</time></trkpt><trkpt lat="38.1833617" lon="0.0283487"><ele>0.0</ele><time>2026-04-29T16:49:34.054Z</time></trkpt><trkpt lat="38.1834319" lon="0.0284008"><ele>0.0</ele><time>2026-04-29T16:49:35.054Z</time></trkpt><trkpt lat="38.183502" lon="0.0284533"><ele>0.0</ele><time>2026-04-29T16:49:36.054Z</time></trkpt><trkpt lat="38.1835749" lon="0.0285081"><ele>0.0</ele><time>2026-04-29T16:49:37.054Z</time></trkpt><trkpt lat="38.1836511" lon="0.0285633"><ele>0.0</ele><time>2026-04-29T16:49:38.054Z</time></trkpt><trkpt lat="38.1837251" lon="0.028618"><ele>0.0</ele><time>2026-04-29T16:49:39.054Z</time></trkpt><trkpt lat="38.1837999" lon="0.0286662"><ele>0.0</ele><time>2026-04-29T16:49:40.055Z</time></trkpt><trkpt lat="38.1838747" lon="0.0287118"><ele>0.0</ele><time>2026-04-29T16:49:41.054Z</time></trkpt><trkpt lat="38.1839526" lon="0.0287567"><ele>0.0</ele><time>2026-04-29T16:49:42.054Z</time></trkpt><trkpt lat="38.1840294" lon="0.0288044"><ele>0.0</ele><time>2026-04-29T16:49:43.055Z</time></trkpt><trkpt lat="38.184109" lon="0.0288559"><ele>0.0</ele><time>2026-04-29T16:49:44.055Z</time></trkpt><trkpt lat="38.1841837" lon="0.0289122"><ele>0.0</ele><time>2026-04-29T16:49:45.055Z</time></trkpt><trkpt lat="38.1844099" lon="0.0290682"><ele>0.0</ele><time>2026-04-29T16:49:48.055Z</time></trkpt><trkpt lat="38.1844798" lon="0.0291303"><ele>0.0</ele><time>2026-04-29T16:49:49.055Z</time></trkpt><trkpt lat="38.18455" lon="0.0291939"><ele>0.0</ele><time>2026-04-29T16:49:50.054Z</time></trkpt><trkpt lat="38.1846215" lon="0.0292489"><ele>0.0</ele><time>2026-04-29T16:49:51.055Z</time></trkpt><trkpt lat="38.1846889" lon="0.0293107"><ele>0.0</ele><time>2026-04-29T16:49:52.054Z</time></trkpt><trkpt lat="38.1847586" lon="0.0293681"><ele>0.0</ele><time>2026-04-29T16:49:53.054Z</time></trkpt><trkpt lat="38.1848313" lon="0.0294234"><ele>0.0</ele><time>2026-04-29T16:49:54.055Z</time></trkpt><trkpt lat="38.1848988" lon="0.0294872"><ele>0.0</ele><time>2026-04-29T16:49:55.055Z</time></trkpt><trkpt lat="38.184967" lon="0.0295574"><ele>0.0</ele><time>2026-04-29T16:49:56.054Z</time></trkpt><trkpt lat="38.1850328" lon="0.0296273"><ele>0.0</ele><time>2026-04-29T16:49:57.054Z</time></trkpt><trkpt lat="38.185103" lon="0.0296993"><ele>0.0</ele><time>2026-04-29T16:49:58.054Z</time></trkpt><trkpt lat="38.1851745" lon="0.0297643"><ele>0.0</ele><time>2026-04-29T16:49:59.055Z</time></trkpt><trkpt lat="38.185248" lon="0.0298149"><ele>0.0</ele><time>2026-04-29T16:50:00.054Z</time></trkpt><trkpt lat="38.1853159" lon="0.0298662"><ele>0.0</ele><time>2026-04-29T16:50:01.055Z</time></trkpt><trkpt lat="38.1853835" lon="0.0299222"><ele>0.0</ele><time>2026-04-29T16:50:02.054Z</time></trkpt><trkpt lat="38.1854444" lon="0.0299957"><ele>0.0</ele><time>2026-04-29T16:50:03.054Z</time></trkpt><trkpt lat="38.1855176" lon="0.0300575"><ele>0.0</ele><time>2026-04-29T16:50:04.055Z</time></trkpt><trkpt lat="38.1855871" lon="0.0301149"><ele>0.0</ele><time>2026-04-29T16:50:05.054Z</time></trkpt><trkpt lat="38.185657" lon="0.0301757"><ele>0.0</ele><time>2026-04-29T16:50:06.054Z</time></trkpt><trkpt lat="38.1857381" lon="0.0302122"><ele>0.0</ele><time>2026-04-29T16:50:07.054Z</time></trkpt><trkpt lat="38.1858903" lon="0.0303016"><ele>0.0</ele><time>2026-04-29T16:50:09.054Z</time></trkpt><trkpt lat="38.1859656" lon="0.0303404"><ele>0.0</ele><time>2026-04-29T16:50:10.054Z</time></trkpt><trkpt lat="38.1860364" lon="0.0303968"><ele>0.0</ele><time>2026-04-29T16:50:11.055Z</time></trkpt><trkpt lat="38.1861065" lon="0.0304576"><ele>0.0</ele><time>2026-04-29T16:50:12.054Z</time></trkpt><trkpt lat="38.1861783" lon="0.0305122"><ele>0.0</ele><time>2026-04-29T16:50:13.054Z</time></trkpt><trkpt lat="38.1862485" lon="0.0305695"><ele>0.0</ele><time>2026-04-29T16:50:14.055Z</time></trkpt><trkpt lat="38.1863187" lon="0.0306278"><ele>0.0</ele><time>2026-04-29T16:50:15.055Z</time></trkpt><trkpt lat="38.1863874" lon="0.0306875"><ele>0.0</ele><time>2026-04-29T16:50:16.054Z</time></trkpt><trkpt lat="38.1864569" lon="0.0307462"><ele>0.0</ele><time>2026-04-29T16:50:17.054Z</time></trkpt><trkpt lat="38.1865922" lon="0.0308701"><ele>0.0</ele><time>2026-04-29T16:50:19.054Z</time></trkpt><trkpt lat="38.1866592" lon="0.0309268"><ele>0.0</ele><time>2026-04-29T16:50:20.055Z</time></trkpt><trkpt lat="38.1867286" lon="0.0309827"><ele>0.0</ele><time>2026-04-29T16:50:21.054Z</time></trkpt><trkpt lat="38.1867958" lon="0.0310453"><ele>0.0</ele><time>2026-04-29T16:50:22.054Z</time></trkpt><trkpt lat="38.1868655" lon="0.0311089"><ele>0.0</ele><time>2026-04-29T16:50:23.055Z</time></trkpt><trkpt lat="38.1869368" lon="0.0311669"><ele>0.0</ele><time>2026-04-29T16:50:24.054Z</time></trkpt><trkpt lat="38.1870084" lon="0.0312221"><ele>0.0</ele><time>2026-04-29T16:50:25.055Z</time></trkpt><trkpt lat="38.1870829" lon="0.0312771"><ele>0.0</ele><time>2026-04-29T16:50:26.054Z</time></trkpt><trkpt lat="38.1871527" lon="0.0313361"><ele>0.0</ele><time>2026-04-29T16:50:27.054Z</time></trkpt><trkpt lat="38.1872193" lon="0.0313993"><ele>0.0</ele><time>2026-04-29T16:50:28.054Z</time></trkpt><trkpt lat="38.1873587" lon="0.0315132"><ele>0.0</ele><time>2026-04-29T16:50:30.055Z</time></trkpt><trkpt lat="38.1874274" lon="0.0315695"><ele>0.0</ele><time>2026-04-29T16:50:31.054Z</time></trkpt><trkpt lat="38.1874996" lon="0.031625"><ele>0.0</ele><time>2026-04-29T16:50:32.055Z</time></trkpt><trkpt lat="38.1875702" lon="0.031686"><ele>0.0</ele><time>2026-04-29T16:50:33.054Z</time></trkpt><trkpt lat="38.1876417" lon="0.0317478"><ele>0.0</ele><time>2026-04-29T16:50:34.054Z</time></trkpt><trkpt lat="38.1877118" lon="0.0318094"><ele>0.0</ele><time>2026-04-29T16:50:35.054Z</time></trkpt><trkpt lat="38.1877818" lon="0.0318766"><ele>0.0</ele><time>2026-04-29T16:50:36.055Z</time></trkpt><trkpt lat="38.1878531" lon="0.0319395"><ele>0.0</ele><time>2026-04-29T16:50:37.054Z</time></trkpt><trkpt lat="38.1879365" lon="0.0319702"><ele>0.0</ele><time>2026-04-29T16:50:38.054Z</time></trkpt><trkpt lat="38.1880169" lon="0.0319979"><ele>0.0</ele><time>2026-04-29T16:50:39.055Z</time></trkpt><trkpt lat="38.1881025" lon="0.032012"><ele>0.0</ele><time>2026-04-29T16:50:40.054Z</time></trkpt><trkpt lat="38.1881836" lon="0.0320465"><ele>0.0</ele><time>2026-04-29T16:50:41.055Z</time></trkpt><trkpt lat="38.1882623" lon="0.0320831"><ele>0.0</ele><time>2026-04-29T16:50:42.054Z</time></trkpt><trkpt lat="38.1883293" lon="0.0321452"><ele>0.0</ele><time>2026-04-29T16:50:43.055Z</time></trkpt><trkpt lat="38.1883981" lon="0.0322149"><ele>0.0</ele><time>2026-04-29T16:50:44.054Z</time></trkpt><trkpt lat="38.1884652" lon="0.0322864"><ele>0.0</ele><time>2026-04-29T16:50:45.054Z</time></trkpt><trkpt lat="38.1885332" lon="0.0323611"><ele>0.0</ele><time>2026-04-29T16:50:46.055Z</time></trkpt><trkpt lat="38.18861" lon="0.0324271"><ele>0.0</ele><time>2026-04-29T16:50:47.054Z</time></trkpt><trkpt lat="38.1886828" lon="0.0324935"><ele>0.0</ele><time>2026-04-29T16:50:48.054Z</time></trkpt><trkpt lat="38.1887534" lon="0.0325542"><ele>0.0</ele><time>2026-04-29T16:50:49.055Z</time></trkpt><trkpt lat="38.1889777" lon="0.0326862"><ele>0.0</ele><time>2026-04-29T16:50:52.055Z</time></trkpt><trkpt lat="38.1890413" lon="0.0327573"><ele>0.0</ele><time>2026-04-29T16:50:53.054Z</time></trkpt><trkpt lat="38.1891077" lon="0.032822"><ele>0.0</ele><time>2026-04-29T16:50:54.055Z</time></trkpt><trkpt lat="38.1891784" lon="0.0328871"><ele>0.0</ele><time>2026-04-29T16:50:55.055Z</time></trkpt><trkpt lat="38.1892487" lon="0.0329537"><ele>0.0</ele><time>2026-04-29T16:50:56.054Z</time></trkpt><trkpt lat="38.1893227" lon="0.0330163"><ele>0.0</ele><time>2026-04-29T16:50:57.055Z</time></trkpt><trkpt lat="38.189399" lon="0.0330651"><ele>0.0</ele><time>2026-04-29T16:50:58.054Z</time></trkpt><trkpt lat="38.1894656" lon="0.0331283"><ele>0.0</ele><time>2026-04-29T16:50:59.054Z</time></trkpt><trkpt lat="38.1895323" lon="0.0331954"><ele>0.0</ele><time>2026-04-29T16:51:00.054Z</time></trkpt><trkpt lat="38.1895916" lon="0.0332745"><ele>0.0</ele><time>2026-04-29T16:51:01.054Z</time></trkpt><trkpt lat="38.1896588" lon="0.0333335"><ele>0.0</ele><time>2026-04-29T16:51:02.054Z</time></trkpt><trkpt lat="38.1897323" lon="0.0333923"><ele>0.0</ele><time>2026-04-29T16:51:03.054Z</time></trkpt><trkpt lat="38.1898033" lon="0.0334544"><ele>0.0</ele><time>2026-04-29T16:51:04.053Z</time></trkpt><trkpt lat="38.1898817" lon="0.0335067"><ele>0.0</ele><time>2026-04-29T16:51:05.054Z</time></trkpt><trkpt lat="38.1899569" lon="0.0335403"><ele>0.0</ele><time>2026-04-29T16:51:06.054Z</time></trkpt><trkpt lat="38.1900318" lon="0.0335788"><ele>0.0</ele><time>2026-04-29T16:51:07.053Z</time></trkpt><trkpt lat="38.19011" lon="0.0336185"><ele>0.0</ele><time>2026-04-29T16:51:08.054Z</time></trkpt><trkpt lat="38.1901871" lon="0.0336654"><ele>0.0</ele><time>2026-04-29T16:51:09.053Z</time></trkpt><trkpt lat="38.1902569" lon="0.0337259"><ele>0.0</ele><time>2026-04-29T16:51:10.053Z</time></trkpt><trkpt lat="38.1903296" lon="0.0337849"><ele>0.0</ele><time>2026-04-29T16:51:11.053Z</time></trkpt><trkpt lat="38.1904835" lon="0.0338909"><ele>0.0</ele><time>2026-04-29T16:51:13.053Z</time></trkpt><trkpt lat="38.1905577" lon="0.0339457"><ele>0.0</ele><time>2026-04-29T16:51:14.053Z</time></trkpt><trkpt lat="38.1906259" lon="0.0340073"><ele>0.0</ele><time>2026-04-29T16:51:15.053Z</time></trkpt><trkpt lat="38.1906883" lon="0.0340715"><ele>0.0</ele><time>2026-04-29T16:51:16.054Z</time></trkpt><trkpt lat="38.1907537" lon="0.0341331"><ele>0.0</ele><time>2026-04-29T16:51:17.053Z</time></trkpt><trkpt lat="38.1908246" lon="0.0341885"><ele>0.0</ele><time>2026-04-29T16:51:18.053Z</time></trkpt><trkpt lat="38.190892" lon="0.0342508"><ele>0.0</ele><time>2026-04-29T16:51:19.053Z</time></trkpt><trkpt lat="38.1909642" lon="0.0343056"><ele>0.0</ele><time>2026-04-29T16:51:20.053Z</time></trkpt><trkpt lat="38.1910361" lon="0.0343635"><ele>0.0</ele><time>2026-04-29T16:51:21.054Z</time></trkpt><trkpt lat="38.1911068" lon="0.0344288"><ele>0.0</ele><time>2026-04-29T16:51:22.054Z</time></trkpt><trkpt lat="38.1912495" lon="0.0345597"><ele>0.0</ele><time>2026-04-29T16:51:24.053Z</time></trkpt><trkpt lat="38.1913218" lon="0.034627"><ele>0.0</ele><time>2026-04-29T16:51:25.053Z</time></trkpt><trkpt lat="38.1913962" lon="0.0346859"><ele>0.0</ele><time>2026-04-29T16:51:26.054Z</time></trkpt><trkpt lat="38.1914698" lon="0.0347483"><ele>0.0</ele><time>2026-04-29T16:51:27.054Z</time></trkpt><trkpt lat="38.1915418" lon="0.0348087"><ele>0.0</ele><time>2026-04-29T16:51:28.054Z</time></trkpt><trkpt lat="38.1916106" lon="0.0348719"><ele>0.0</ele><time>2026-04-29T16:51:29.054Z</time></trkpt><trkpt lat="38.1916803" lon="0.0349351"><ele>0.0</ele><time>2026-04-29T16:51:30.053Z</time></trkpt><trkpt lat="38.1917517" lon="0.0349973"><ele>0.0</ele><time>2026-04-29T16:51:31.054Z</time></trkpt><trkpt lat="38.1918249" lon="0.0350536"><ele>0.0</ele><time>2026-04-29T16:51:32.053Z</time></trkpt><trkpt lat="38.1919693" lon="0.035161"><ele>0.0</ele><time>2026-04-29T16:51:34.053Z</time></trkpt><trkpt lat="38.1920402" lon="0.0352128"><ele>0.0</ele><time>2026-04-29T16:51:35.054Z</time></trkpt><trkpt lat="38.1921115" lon="0.0352761"><ele>0.0</ele><time>2026-04-29T16:51:36.054Z</time></trkpt><trkpt lat="38.1921886" lon="0.0353329"><ele>0.0</ele><time>2026-04-29T16:51:37.053Z</time></trkpt><trkpt lat="38.1922629" lon="0.035383"><ele>0.0</ele><time>2026-04-29T16:51:38.054Z</time></trkpt><trkpt lat="38.1923334" lon="0.0354414"><ele>0.0</ele><time>2026-04-29T16:51:39.054Z</time></trkpt><trkpt lat="38.1924022" lon="0.0354983"><ele>0.0</ele><time>2026-04-29T16:51:40.054Z</time></trkpt><trkpt lat="38.1924675" lon="0.0355551"><ele>0.0</ele><time>2026-04-29T16:51:41.054Z</time></trkpt><trkpt lat="38.1925352" lon="0.0356078"><ele>0.0</ele><time>2026-04-29T16:51:42.054Z</time></trkpt><trkpt lat="38.192605" lon="0.0356682"><ele>0.0</ele><time>2026-04-29T16:51:43.054Z</time></trkpt><trkpt lat="38.1926766" lon="0.0357254"><ele>0.0</ele><time>2026-04-29T16:51:44.053Z</time></trkpt><trkpt lat="38.1927435" lon="0.0357897"><ele>0.0</ele><time>2026-04-29T16:51:45.053Z</time></trkpt><trkpt lat="38.1928131" lon="0.0358515"><ele>0.0</ele><time>2026-04-29T16:51:46.053Z</time></trkpt><trkpt lat="38.1928832" lon="0.0359198"><ele>0.0</ele><time>2026-04-29T16:51:47.053Z</time></trkpt><trkpt lat="38.1929534" lon="0.0359839"><ele>0.0</ele><time>2026-04-29T16:51:48.054Z</time></trkpt><trkpt lat="38.1930163" lon="0.0360728"><ele>0.0</ele><time>2026-04-29T16:51:49.053Z</time></trkpt><trkpt lat="38.1930851" lon="0.0361363"><ele>0.0</ele><time>2026-04-29T16:51:50.053Z</time></trkpt><trkpt lat="38.1931578" lon="0.0361952"><ele>0.0</ele><time>2026-04-29T16:51:51.053Z</time></trkpt><trkpt lat="38.1932283" lon="0.0362563"><ele>0.0</ele><time>2026-04-29T16:51:52.054Z</time></trkpt><trkpt lat="38.1932998" lon="0.0363152"><ele>0.0</ele><time>2026-04-29T16:51:53.053Z</time></trkpt><trkpt lat="38.1933715" lon="0.0363766"><ele>0.0</ele><time>2026-04-29T16:51:54.054Z</time></trkpt><trkpt lat="38.193583" lon="0.0365533"><ele>0.0</ele><time>2026-04-29T16:51:57.053Z</time></trkpt><trkpt lat="38.1936574" lon="0.0366213"><ele>0.0</ele><time>2026-04-29T16:51:58.053Z</time></trkpt><trkpt lat="38.1937339" lon="0.0366675"><ele>0.0</ele><time>2026-04-29T16:51:59.053Z</time></trkpt><trkpt lat="38.1938191" lon="0.0366959"><ele>0.0</ele><time>2026-04-29T16:52:00.053Z</time></trkpt><trkpt lat="38.1938874" lon="0.0367478"><ele>0.0</ele><time>2026-04-29T16:52:01.054Z</time></trkpt><trkpt lat="38.1939555" lon="0.0367992"><ele>0.0</ele><time>2026-04-29T16:52:02.054Z</time></trkpt><trkpt lat="38.1940223" lon="0.0368624"><ele>0.0</ele><time>2026-04-29T16:52:03.053Z</time></trkpt><trkpt lat="38.1940891" lon="0.0369219"><ele>0.0</ele><time>2026-04-29T16:52:04.053Z</time></trkpt><trkpt lat="38.1941571" lon="0.0369811"><ele>0.0</ele><time>2026-04-29T16:52:05.054Z</time></trkpt><trkpt lat="38.194224" lon="0.0370435"><ele>0.0</ele><time>2026-04-29T16:52:06.054Z</time></trkpt><trkpt lat="38.1942906" lon="0.0371069"><ele>0.0</ele><time>2026-04-29T16:52:07.053Z</time></trkpt><trkpt lat="38.1943581" lon="0.0371679"><ele>0.0</ele><time>2026-04-29T16:52:08.053Z</time></trkpt><trkpt lat="38.1944278" lon="0.0372279"><ele>0.0</ele><time>2026-04-29T16:52:09.053Z</time></trkpt><trkpt lat="38.1944977" lon="0.0372924"><ele>0.0</ele><time>2026-04-29T16:52:10.054Z</time></trkpt><trkpt lat="38.1945708" lon="0.0373501"><ele>0.0</ele><time>2026-04-29T16:52:11.054Z</time></trkpt><trkpt lat="38.1946457" lon="0.0374"><ele>0.0</ele><time>2026-04-29T16:52:12.054Z</time></trkpt><trkpt lat="38.1947195" lon="0.0374609"><ele>0.0</ele><time>2026-04-29T16:52:13.054Z</time></trkpt><trkpt lat="38.1947915" lon="0.037521"><ele>0.0</ele><time>2026-04-29T16:52:14.054Z</time></trkpt><trkpt lat="38.1948676" lon="0.0375794"><ele>0.0</ele><time>2026-04-29T16:52:15.054Z</time></trkpt><trkpt lat="38.1949432" lon="0.0376364"><ele>0.0</ele><time>2026-04-29T16:52:16.053Z</time></trkpt><trkpt lat="38.1950933" lon="0.0377507"><ele>0.0</ele><time>2026-04-29T16:52:18.054Z</time></trkpt><trkpt lat="38.1951678" lon="0.0378111"><ele>0.0</ele><time>2026-04-29T16:52:19.054Z</time></trkpt><trkpt lat="38.1952326" lon="0.0378771"><ele>0.0</ele><time>2026-04-29T16:52:20.053Z</time></trkpt><trkpt lat="38.1953004" lon="0.0379382"><ele>0.0</ele><time>2026-04-29T16:52:21.053Z</time></trkpt><trkpt lat="38.195373" lon="0.0379953"><ele>0.0</ele><time>2026-04-29T16:52:22.054Z</time></trkpt><trkpt lat="38.1954466" lon="0.0380513"><ele>0.0</ele><time>2026-04-29T16:52:23.053Z</time></trkpt><trkpt lat="38.1955185" lon="0.0381078"><ele>0.0</ele><time>2026-04-29T16:52:24.053Z</time></trkpt><trkpt lat="38.1955929" lon="0.0381647"><ele>0.0</ele><time>2026-04-29T16:52:25.054Z</time></trkpt><trkpt lat="38.1956624" lon="0.0382311"><ele>0.0</ele><time>2026-04-29T16:52:26.053Z</time></trkpt><trkpt lat="38.1958086" lon="0.038327"><ele>0.0</ele><time>2026-04-29T16:52:28.054Z</time></trkpt><trkpt lat="38.1958867" lon="0.0383584"><ele>0.0</ele><time>2026-04-29T16:52:29.054Z</time></trkpt><trkpt lat="38.1959581" lon="0.0384104"><ele>0.0</ele><time>2026-04-29T16:52:30.054Z</time></trkpt><trkpt lat="38.1960282" lon="0.0384662"><ele>0.0</ele><time>2026-04-29T16:52:31.054Z</time></trkpt><trkpt lat="38.1961072" lon="0.038496"><ele>0.0</ele><time>2026-04-29T16:52:32.053Z</time></trkpt><trkpt lat="38.1961814" lon="0.0385485"><ele>0.0</ele><time>2026-04-29T16:52:33.054Z</time></trkpt><trkpt lat="38.1962521" lon="0.0386203"><ele>0.0</ele><time>2026-04-29T16:52:34.053Z</time></trkpt><trkpt lat="38.1963235" lon="0.0386839"><ele>0.0</ele><time>2026-04-29T16:52:35.053Z</time></trkpt><trkpt lat="38.1963979" lon="0.0387487"><ele>0.0</ele><time>2026-04-29T16:52:36.053Z</time></trkpt><trkpt lat="38.1964671" lon="0.0388121"><ele>0.0</ele><time>2026-04-29T16:52:37.053Z</time></trkpt><trkpt lat="38.1966151" lon="0.0389302"><ele>0.0</ele><time>2026-04-29T16:52:39.054Z</time></trkpt><trkpt lat="38.1966867" lon="0.0389847"><ele>0.0</ele><time>2026-04-29T16:52:40.053Z</time></trkpt><trkpt lat="38.196754" lon="0.0390501"><ele>0.0</ele><time>2026-04-29T16:52:41.053Z</time></trkpt><trkpt lat="38.1968236" lon="0.039114"><ele>0.0</ele><time>2026-04-29T16:52:42.053Z</time></trkpt><trkpt lat="38.1968935" lon="0.0391828"><ele>0.0</ele><time>2026-04-29T16:52:43.054Z</time></trkpt><trkpt lat="38.1969623" lon="0.0392531"><ele>0.0</ele><time>2026-04-29T16:52:44.054Z</time></trkpt><trkpt lat="38.1970303" lon="0.0393214"><ele>0.0</ele><time>2026-04-29T16:52:45.053Z</time></trkpt><trkpt lat="38.1970987" lon="0.039387"><ele>0.0</ele><time>2026-04-29T16:52:46.053Z</time></trkpt><trkpt lat="38.1971726" lon="0.0394481"><ele>0.0</ele><time>2026-04-29T16:52:47.053Z</time></trkpt><trkpt lat="38.1972464" lon="0.0395079"><ele>0.0</ele><time>2026-04-29T16:52:48.054Z</time></trkpt><trkpt lat="38.197317" lon="0.0395653"><ele>0.0</ele><time>2026-04-29T16:52:49.053Z</time></trkpt><trkpt lat="38.1973769" lon="0.0396456"><ele>0.0</ele><time>2026-04-29T16:52:50.053Z</time></trkpt><trkpt lat="38.1974452" lon="0.039705"><ele>0.0</ele><time>2026-04-29T16:52:51.054Z</time></trkpt><trkpt lat="38.1975108" lon="0.0397704"><ele>0.0</ele><time>2026-04-29T16:52:52.053Z</time></trkpt><trkpt lat="38.1975786" lon="0.0398328"><ele>0.0</ele><time>2026-04-29T16:52:53.053Z</time></trkpt><trkpt lat="38.1976471" lon="0.0398963"><ele>0.0</ele><time>2026-04-29T16:52:54.053Z</time></trkpt><trkpt lat="38.1977151" lon="0.0399556"><ele>0.0</ele><time>2026-04-29T16:52:55.053Z</time></trkpt><trkpt lat="38.1977873" lon="0.0399923"><ele>0.0</ele><time>2026-04-29T16:52:56.053Z</time></trkpt><trkpt lat="38.1978565" lon="0.0400473"><ele>0.0</ele><time>2026-04-29T16:52:57.054Z</time></trkpt><trkpt lat="38.1979278" lon="0.0401003"><ele>0.0</ele><time>2026-04-29T16:52:58.053Z</time></trkpt><trkpt lat="38.1981543" lon="0.040256"><ele>0.0</ele><time>2026-04-29T16:53:01.053Z</time></trkpt><trkpt lat="38.1982182" lon="0.0403268"><ele>0.0</ele><time>2026-04-29T16:53:02.053Z</time></trkpt><trkpt lat="38.1982887" lon="0.0404004"><ele>0.0</ele><time>2026-04-29T16:53:03.053Z</time></trkpt><trkpt lat="38.1983583" lon="0.0404657"><ele>0.0</ele><time>2026-04-29T16:53:04.054Z</time></trkpt><trkpt lat="38.1984296" lon="0.0405108"><ele>0.0</ele><time>2026-04-29T16:53:05.053Z</time></trkpt><trkpt lat="38.1984996" lon="0.0405674"><ele>0.0</ele><time>2026-04-29T16:53:06.053Z</time></trkpt><trkpt lat="38.1985714" lon="0.0406282"><ele>0.0</ele><time>2026-04-29T16:53:07.054Z</time></trkpt><trkpt lat="38.1986388" lon="0.0406884"><ele>0.0</ele><time>2026-04-29T16:53:08.053Z</time></trkpt><trkpt lat="38.1987066" lon="0.0407508"><ele>0.0</ele><time>2026-04-29T16:53:09.053Z</time></trkpt><trkpt lat="38.198782" lon="0.0408081"><ele>0.0</ele><time>2026-04-29T16:53:10.053Z</time></trkpt><trkpt lat="38.1988573" lon="0.0408648"><ele>0.0</ele><time>2026-04-29T16:53:11.054Z</time></trkpt><trkpt lat="38.1989328" lon="0.0409098"><ele>0.0</ele><time>2026-04-29T16:53:12.053Z</time></trkpt><trkpt lat="38.1990123" lon="0.0409572"><ele>0.0</ele><time>2026-04-29T16:53:13.054Z</time></trkpt><trkpt lat="38.1990907" lon="0.0410089"><ele>0.0</ele><time>2026-04-29T16:53:14.054Z</time></trkpt><trkpt lat="38.1991708" lon="0.0410572"><ele>0.0</ele><time>2026-04-29T16:53:15.054Z</time></trkpt><trkpt lat="38.1992451" lon="0.0411083"><ele>0.0</ele><time>2026-04-29T16:53:16.054Z</time></trkpt><trkpt lat="38.1993184" lon="0.04116"><ele>0.0</ele><time>2026-04-29T16:53:17.053Z</time></trkpt><trkpt lat="38.1993874" lon="0.0412148"><ele>0.0</ele><time>2026-04-29T16:53:18.053Z</time></trkpt><trkpt lat="38.1994572" lon="0.0412676"><ele>0.0</ele><time>2026-04-29T16:53:19.054Z</time></trkpt><trkpt lat="38.1995282" lon="0.0413233"><ele>0.0</ele><time>2026-04-29T16:53:20.053Z</time></trkpt><trkpt lat="38.1996751" lon="0.0414321"><ele>0.0</ele><time>2026-04-29T16:53:22.053Z</time></trkpt><trkpt lat="38.1997473" lon="0.041492"><ele>0.0</ele><time>2026-04-29T16:53:23.053Z</time></trkpt><trkpt lat="38.1998218" lon="0.0415462"><ele>0.0</ele><time>2026-04-29T16:53:24.053Z</time></trkpt><trkpt lat="38.1998935" lon="0.0416031"><ele>0.0</ele><time>2026-04-29T16:53:25.053Z</time></trkpt><trkpt lat="38.1999607" lon="0.0416546"><ele>0.0</ele><time>2026-04-29T16:53:26.053Z</time></trkpt><trkpt lat="38.2000286" lon="0.041718"><ele>0.0</ele><time>2026-04-29T16:53:27.053Z</time></trkpt><trkpt lat="38.2000996" lon="0.0417759"><ele>0.0</ele><time>2026-04-29T16:53:28.054Z</time></trkpt><trkpt lat="38.2001703" lon="0.0418334"><ele>0.0</ele><time>2026-04-29T16:53:29.054Z</time></trkpt><trkpt lat="38.2002386" lon="0.0418817"><ele>0.0</ele><time>2026-04-29T16:53:30.053Z</time></trkpt><trkpt lat="38.2003984" lon="0.0419511"><ele>0.0</ele><time>2026-04-29T16:53:32.054Z</time></trkpt><trkpt lat="38.2004673" lon="0.0420094"><ele>0.0</ele><time>2026-04-29T16:53:33.054Z</time></trkpt><trkpt lat="38.2005351" lon="0.0420694"><ele>0.0</ele><time>2026-04-29T16:53:34.053Z</time></trkpt><trkpt lat="38.2006047" lon="0.0421367"><ele>0.0</ele><time>2026-04-29T16:53:35.053Z</time></trkpt><trkpt lat="38.2006716" lon="0.0422018"><ele>0.0</ele><time>2026-04-29T16:53:36.053Z</time></trkpt><trkpt lat="38.2007428" lon="0.0422607"><ele>0.0</ele><time>2026-04-29T16:53:37.053Z</time></trkpt><trkpt lat="38.2008131" lon="0.0423209"><ele>0.0</ele><time>2026-04-29T16:53:38.053Z</time></trkpt><trkpt lat="38.2008836" lon="0.0423783"><ele>0.0</ele><time>2026-04-29T16:53:39.053Z</time></trkpt><trkpt lat="38.2009548" lon="0.0424363"><ele>0.0</ele><time>2026-04-29T16:53:40.053Z</time></trkpt><trkpt lat="38.2010262" lon="0.0424982"><ele>0.0</ele><time>2026-04-29T16:53:41.054Z</time></trkpt><trkpt lat="38.2011746" lon="0.0426024"><ele>0.0</ele><time>2026-04-29T16:53:43.053Z</time></trkpt><trkpt lat="38.201258" lon="0.0426455"><ele>0.0</ele><time>2026-04-29T16:53:44.054Z</time></trkpt><trkpt lat="38.201333" lon="0.0426943"><ele>0.0</ele><time>2026-04-29T16:53:45.054Z</time></trkpt><trkpt lat="38.2014121" lon="0.0427474"><ele>0.0</ele><time>2026-04-29T16:53:46.053Z</time></trkpt><trkpt lat="38.2014821" lon="0.0428015"><ele>0.0</ele><time>2026-04-29T16:53:47.054Z</time></trkpt><trkpt lat="38.2015533" lon="0.042856"><ele>0.0</ele><time>2026-04-29T16:53:48.053Z</time></trkpt><trkpt lat="38.2016296" lon="0.0429143"><ele>0.0</ele><time>2026-04-29T16:53:49.053Z</time></trkpt><trkpt lat="38.2017031" lon="0.0429714"><ele>0.0</ele><time>2026-04-29T16:53:50.054Z</time></trkpt><trkpt lat="38.201775" lon="0.0430309"><ele>0.0</ele><time>2026-04-29T16:53:51.053Z</time></trkpt><trkpt lat="38.201845" lon="0.0430927"><ele>0.0</ele><time>2026-04-29T16:53:52.053Z</time></trkpt><trkpt lat="38.2019117" lon="0.0431563"><ele>0.0</ele><time>2026-04-29T16:53:53.053Z</time></trkpt><trkpt lat="38.2019815" lon="0.0432193"><ele>0.0</ele><time>2026-04-29T16:53:54.054Z</time></trkpt><trkpt lat="38.2020504" lon="0.0432881"><ele>0.0</ele><time>2026-04-29T16:53:55.053Z</time></trkpt><trkpt lat="38.2021177" lon="0.0433575"><ele>0.0</ele><time>2026-04-29T16:53:56.054Z</time></trkpt><trkpt lat="38.2021841" lon="0.0434215"><ele>0.0</ele><time>2026-04-29T16:53:57.054Z</time></trkpt><trkpt lat="38.2022549" lon="0.0434849"><ele>0.0</ele><time>2026-04-29T16:53:58.053Z</time></trkpt><trkpt lat="38.2023268" lon="0.0435517"><ele>0.0</ele><time>2026-04-29T16:53:59.053Z</time></trkpt><trkpt lat="38.2023973" lon="0.0436086"><ele>0.0</ele><time>2026-04-29T16:54:00.053Z</time></trkpt><trkpt lat="38.2024682" lon="0.0436667"><ele>0.0</ele><time>2026-04-29T16:54:01.053Z</time></trkpt><trkpt lat="38.2025369" lon="0.043728"><ele>0.0</ele><time>2026-04-29T16:54:02.053Z</time></trkpt><trkpt lat="38.2026049" lon="0.0437931"><ele>0.0</ele><time>2026-04-29T16:54:03.053Z</time></trkpt><trkpt lat="38.2027448" lon="0.0439146"><ele>0.0</ele><time>2026-04-29T16:54:05.054Z</time></trkpt><trkpt lat="38.2028189" lon="0.0439764"><ele>0.0</ele><time>2026-04-29T16:54:06.054Z</time></trkpt><trkpt lat="38.2028929" lon="0.0440363"><ele>0.0</ele><time>2026-04-29T16:54:07.054Z</time></trkpt><trkpt lat="38.2029764" lon="0.0440673"><ele>0.0</ele><time>2026-04-29T16:54:08.053Z</time></trkpt><trkpt lat="38.2030501" lon="0.0441197"><ele>0.0</ele><time>2026-04-29T16:54:09.054Z</time></trkpt><trkpt lat="38.2031203" lon="0.0441774"><ele>0.0</ele><time>2026-04-29T16:54:10.053Z</time></trkpt><trkpt lat="38.2031886" lon="0.0442396"><ele>0.0</ele><time>2026-04-29T16:54:11.053Z</time></trkpt><trkpt lat="38.203257" lon="0.0443027"><ele>0.0</ele><time>2026-04-29T16:54:12.053Z</time></trkpt><trkpt lat="38.2033237" lon="0.0443649"><ele>0.0</ele><time>2026-04-29T16:54:13.053Z</time></trkpt><trkpt lat="38.2033872" lon="0.0444283"><ele>0.0</ele><time>2026-04-29T16:54:14.053Z</time></trkpt><trkpt lat="38.2034501" lon="0.044487"><ele>0.0</ele><time>2026-04-29T16:54:15.053Z</time></trkpt><trkpt lat="38.2035197" lon="0.0445478"><ele>0.0</ele><time>2026-04-29T16:54:16.054Z</time></trkpt><trkpt lat="38.203593" lon="0.0446053"><ele>0.0</ele><time>2026-04-29T16:54:17.053Z</time></trkpt><trkpt lat="38.203665" lon="0.0446632"><ele>0.0</ele><time>2026-04-29T16:54:18.054Z</time></trkpt><trkpt lat="38.2037336" lon="0.0447248"><ele>0.0</ele><time>2026-04-29T16:54:19.054Z</time></trkpt><trkpt lat="38.2038021" lon="0.0447836"><ele>0.0</ele><time>2026-04-29T16:54:20.054Z</time></trkpt><trkpt lat="38.2038717" lon="0.0448433"><ele>0.0</ele><time>2026-04-29T16:54:21.053Z</time></trkpt><trkpt lat="38.2039434" lon="0.0448974"><ele>0.0</ele><time>2026-04-29T16:54:22.053Z</time></trkpt><trkpt lat="38.2040089" lon="0.0449518"><ele>0.0</ele><time>2026-04-29T16:54:23.053Z</time></trkpt><trkpt lat="38.2040747" lon="0.0450083"><ele>0.0</ele><time>2026-04-29T16:54:24.053Z</time></trkpt><trkpt lat="38.2042251" lon="0.0450945"><ele>0.0</ele><time>2026-04-29T16:54:26.054Z</time></trkpt><trkpt lat="38.2042996" lon="0.0451518"><ele>0.0</ele><time>2026-04-29T16:54:27.053Z</time></trkpt><trkpt lat="38.2043715" lon="0.0452089"><ele>0.0</ele><time>2026-04-29T16:54:28.053Z</time></trkpt><trkpt lat="38.2044457" lon="0.0452682"><ele>0.0</ele><time>2026-04-29T16:54:29.053Z</time></trkpt><trkpt lat="38.2045324" lon="0.0453028"><ele>0.0</ele><time>2026-04-29T16:54:30.054Z</time></trkpt><trkpt lat="38.204615" lon="0.0453432"><ele>0.0</ele><time>2026-04-29T16:54:31.054Z</time></trkpt><trkpt lat="38.2046882" lon="0.0453941"><ele>0.0</ele><time>2026-04-29T16:54:32.053Z</time></trkpt><trkpt lat="38.2047583" lon="0.0454514"><ele>0.0</ele><time>2026-04-29T16:54:33.053Z</time></trkpt><trkpt lat="38.2048281" lon="0.0455083"><ele>0.0</ele><time>2026-04-29T16:54:34.053Z</time></trkpt><trkpt lat="38.2049583" lon="0.0456424"><ele>0.0</ele><time>2026-04-29T16:54:36.054Z</time></trkpt><trkpt lat="38.2050296" lon="0.0457045"><ele>0.0</ele><time>2026-04-29T16:54:37.053Z</time></trkpt><trkpt lat="38.2051" lon="0.0457632"><ele>0.0</ele><time>2026-04-29T16:54:38.053Z</time></trkpt><trkpt lat="38.2051703" lon="0.0458226"><ele>0.0</ele><time>2026-04-29T16:54:39.054Z</time></trkpt><trkpt lat="38.2052488" lon="0.0458788"><ele>0.0</ele><time>2026-04-29T16:54:40.053Z</time></trkpt><trkpt lat="38.2053429" lon="0.0458948"><ele>0.0</ele><time>2026-04-29T16:54:41.053Z</time></trkpt><trkpt lat="38.2054167" lon="0.045946"><ele>0.0</ele><time>2026-04-29T16:54:42.054Z</time></trkpt><trkpt lat="38.2054992" lon="0.0459693"><ele>0.0</ele><time>2026-04-29T16:54:43.053Z</time></trkpt><trkpt lat="38.2055741" lon="0.0460246"><ele>0.0</ele><time>2026-04-29T16:54:44.054Z</time></trkpt><trkpt lat="38.2056627" lon="0.0460597"><ele>0.0</ele><time>2026-04-29T16:54:45.054Z</time></trkpt><trkpt lat="38.2058282" lon="0.0461362"><ele>0.0</ele><time>2026-04-29T16:54:47.053Z</time></trkpt><trkpt lat="38.2058988" lon="0.0461882"><ele>0.0</ele><time>2026-04-29T16:54:48.054Z</time></trkpt><trkpt lat="38.2059717" lon="0.0462512"><ele>0.0</ele><time>2026-04-29T16:54:49.053Z</time></trkpt><trkpt lat="38.2060464" lon="0.0463095"><ele>0.0</ele><time>2026-04-29T16:54:50.053Z</time></trkpt><trkpt lat="38.2061341" lon="0.0463472"><ele>0.0</ele><time>2026-04-29T16:54:51.053Z</time></trkpt><trkpt lat="38.2062142" lon="0.0463969"><ele>0.0</ele><time>2026-04-29T16:54:52.053Z</time></trkpt><trkpt lat="38.206286" lon="0.0464549"><ele>0.0</ele><time>2026-04-29T16:54:53.054Z</time></trkpt><trkpt lat="38.206356" lon="0.0465161"><ele>0.0</ele><time>2026-04-29T16:54:54.054Z</time></trkpt><trkpt lat="38.2064286" lon="0.0465712"><ele>0.0</ele><time>2026-04-29T16:54:55.054Z</time></trkpt><trkpt lat="38.2064989" lon="0.0466335"><ele>0.0</ele><time>2026-04-29T16:54:56.053Z</time></trkpt><trkpt lat="38.2065717" lon="0.0466941"><ele>0.0</ele><time>2026-04-29T16:54:57.052Z</time></trkpt><trkpt lat="38.2066435" lon="0.0467534"><ele>0.0</ele><time>2026-04-29T16:54:58.052Z</time></trkpt><trkpt lat="38.206712" lon="0.0468187"><ele>0.0</ele><time>2026-04-29T16:54:59.053Z</time></trkpt><trkpt lat="38.2067791" lon="0.0468821"><ele>0.0</ele><time>2026-04-29T16:55:00.053Z</time></trkpt><trkpt lat="38.2068488" lon="0.0469382"><ele>0.0</ele><time>2026-04-29T16:55:01.052Z</time></trkpt><trkpt lat="38.2069204" lon="0.0469943"><ele>0.0</ele><time>2026-04-29T16:55:02.053Z</time></trkpt><trkpt lat="38.2070019" lon="0.0470325"><ele>0.0</ele><time>2026-04-29T16:55:03.052Z</time></trkpt><trkpt lat="38.2070779" lon="0.0470835"><ele>0.0</ele><time>2026-04-29T16:55:04.052Z</time></trkpt><trkpt lat="38.2071528" lon="0.047137"><ele>0.0</ele><time>2026-04-29T16:55:05.053Z</time></trkpt><trkpt lat="38.2072267" lon="0.0471933"><ele>0.0</ele><time>2026-04-29T16:55:06.053Z</time></trkpt><trkpt lat="38.2074531" lon="0.0473396"><ele>0.0</ele><time>2026-04-29T16:55:09.052Z</time></trkpt><trkpt lat="38.2075169" lon="0.047408"><ele>0.0</ele><time>2026-04-29T16:55:10.052Z</time></trkpt><trkpt lat="38.2075901" lon="0.0474681"><ele>0.0</ele><time>2026-04-29T16:55:11.053Z</time></trkpt><trkpt lat="38.207662" lon="0.0475316"><ele>0.0</ele><time>2026-04-29T16:55:12.053Z</time></trkpt><trkpt lat="38.2077364" lon="0.0475913"><ele>0.0</ele><time>2026-04-29T16:55:13.052Z</time></trkpt><trkpt lat="38.2078053" lon="0.047651"><ele>0.0</ele><time>2026-04-29T16:55:14.053Z</time></trkpt><trkpt lat="38.2078736" lon="0.047714"><ele>0.0</ele><time>2026-04-29T16:55:15.052Z</time></trkpt><trkpt lat="38.2079474" lon="0.0477634"><ele>0.0</ele><time>2026-04-29T16:55:16.052Z</time></trkpt><trkpt lat="38.2080224" lon="0.0478174"><ele>0.0</ele><time>2026-04-29T16:55:17.052Z</time></trkpt><trkpt lat="38.2080992" lon="0.0478746"><ele>0.0</ele><time>2026-04-29T16:55:18.052Z</time></trkpt><trkpt lat="38.2081676" lon="0.04794"><ele>0.0</ele><time>2026-04-29T16:55:19.052Z</time></trkpt><trkpt lat="38.2082397" lon="0.0480054"><ele>0.0</ele><time>2026-04-29T16:55:20.052Z</time></trkpt><trkpt lat="38.208313" lon="0.0480649"><ele>0.0</ele><time>2026-04-29T16:55:21.052Z</time></trkpt><trkpt lat="38.2083852" lon="0.0481255"><ele>0.0</ele><time>2026-04-29T16:55:22.052Z</time></trkpt><trkpt lat="38.2084541" lon="0.0481895"><ele>0.0</ele><time>2026-04-29T16:55:23.052Z</time></trkpt><trkpt lat="38.2085237" lon="0.0482558"><ele>0.0</ele><time>2026-04-29T16:55:24.052Z</time></trkpt><trkpt lat="38.2085924" lon="0.0483215"><ele>0.0</ele><time>2026-04-29T16:55:25.053Z</time></trkpt><trkpt lat="38.2086662" lon="0.0483782"><ele>0.0</ele><time>2026-04-29T16:55:26.052Z</time></trkpt><trkpt lat="38.2087386" lon="0.0484332"><ele>0.0</ele><time>2026-04-29T16:55:27.052Z</time></trkpt><trkpt lat="38.2088129" lon="0.0484883"><ele>0.0</ele><time>2026-04-29T16:55:28.052Z</time></trkpt><trkpt lat="38.2089614" lon="0.0486058"><ele>0.0</ele><time>2026-04-29T16:55:30.053Z</time></trkpt><trkpt lat="38.2090309" lon="0.0486685"><ele>0.0</ele><time>2026-04-29T16:55:31.053Z</time></trkpt><trkpt lat="38.2091019" lon="0.0487291"><ele>0.0</ele><time>2026-04-29T16:55:32.052Z</time></trkpt><trkpt lat="38.2091722" lon="0.0487893"><ele>0.0</ele><time>2026-04-29T16:55:33.052Z</time></trkpt><trkpt lat="38.2092434" lon="0.048848"><ele>0.0</ele><time>2026-04-29T16:55:34.052Z</time></trkpt><trkpt lat="38.2093125" lon="0.0489092"><ele>0.0</ele><time>2026-04-29T16:55:35.053Z</time></trkpt><trkpt lat="38.2093822" lon="0.0489726"><ele>0.0</ele><time>2026-04-29T16:55:36.052Z</time></trkpt><trkpt lat="38.2094534" lon="0.0490292"><ele>0.0</ele><time>2026-04-29T16:55:37.053Z</time></trkpt><trkpt lat="38.2095222" lon="0.0490886"><ele>0.0</ele><time>2026-04-29T16:55:38.052Z</time></trkpt><trkpt lat="38.2096522" lon="0.0492113"><ele>0.0</ele><time>2026-04-29T16:55:40.053Z</time></trkpt><trkpt lat="38.2097222" lon="0.0492713"><ele>0.0</ele><time>2026-04-29T16:55:41.053Z</time></trkpt><trkpt lat="38.2097904" lon="0.0493316"><ele>0.0</ele><time>2026-04-29T16:55:42.052Z</time></trkpt><trkpt lat="38.2098605" lon="0.0493931"><ele>0.0</ele><time>2026-04-29T16:55:43.053Z</time></trkpt><trkpt lat="38.2099275" lon="0.0494546"><ele>0.0</ele><time>2026-04-29T16:55:44.052Z</time></trkpt><trkpt lat="38.2099868" lon="0.0495293"><ele>0.0</ele><time>2026-04-29T16:55:45.052Z</time></trkpt><trkpt lat="38.2100536" lon="0.0495974"><ele>0.0</ele><time>2026-04-29T16:55:46.052Z</time></trkpt><trkpt lat="38.210122" lon="0.0496639"><ele>0.0</ele><time>2026-04-29T16:55:47.053Z</time></trkpt><trkpt lat="38.2101888" lon="0.0497305"><ele>0.0</ele><time>2026-04-29T16:55:48.052Z</time></trkpt><trkpt lat="38.2102539" lon="0.0498026"><ele>0.0</ele><time>2026-04-29T16:55:49.053Z</time></trkpt><trkpt lat="38.2103858" lon="0.0499412"><ele>0.0</ele><time>2026-04-29T16:55:51.052Z</time></trkpt><trkpt lat="38.2104521" lon="0.0500144"><ele>0.0</ele><time>2026-04-29T16:55:52.052Z</time></trkpt><trkpt lat="38.2105203" lon="0.0500855"><ele>0.0</ele><time>2026-04-29T16:55:53.052Z</time></trkpt><trkpt lat="38.2105925" lon="0.0501515"><ele>0.0</ele><time>2026-04-29T16:55:54.052Z</time></trkpt><trkpt lat="38.2106658" lon="0.0502135"><ele>0.0</ele><time>2026-04-29T16:55:55.052Z</time></trkpt><trkpt lat="38.2107337" lon="0.0502851"><ele>0.0</ele><time>2026-04-29T16:55:56.053Z</time></trkpt><trkpt lat="38.2107961" lon="0.0503582"><ele>0.0</ele><time>2026-04-29T16:55:57.053Z</time></trkpt><trkpt lat="38.2108634" lon="0.0504244"><ele>0.0</ele><time>2026-04-29T16:55:58.053Z</time></trkpt><trkpt lat="38.2109305" lon="0.0504852"><ele>0.0</ele><time>2026-04-29T16:55:59.053Z</time></trkpt><trkpt lat="38.2109972" lon="0.0505496"><ele>0.0</ele><time>2026-04-29T16:56:00.052Z</time></trkpt><trkpt lat="38.2110649" lon="0.0506188"><ele>0.0</ele><time>2026-04-29T16:56:01.052Z</time></trkpt><trkpt lat="38.2111334" lon="0.0506892"><ele>0.0</ele><time>2026-04-29T16:56:02.052Z</time></trkpt><trkpt lat="38.2112046" lon="0.0507589"><ele>0.0</ele><time>2026-04-29T16:56:03.053Z</time></trkpt><trkpt lat="38.2112708" lon="0.0508305"><ele>0.0</ele><time>2026-04-29T16:56:04.052Z</time></trkpt><trkpt lat="38.2113411" lon="0.0508995"><ele>0.0</ele><time>2026-04-29T16:56:05.052Z</time></trkpt><trkpt lat="38.2114103" lon="0.05097"><ele>0.0</ele><time>2026-04-29T16:56:06.052Z</time></trkpt><trkpt lat="38.2114789" lon="0.0510412"><ele>0.0</ele><time>2026-04-29T16:56:07.053Z</time></trkpt><trkpt lat="38.2115488" lon="0.0511086"><ele>0.0</ele><time>2026-04-29T16:56:08.052Z</time></trkpt><trkpt lat="38.2116171" lon="0.0511745"><ele>0.0</ele><time>2026-04-29T16:56:09.052Z</time></trkpt><trkpt lat="38.2116821" lon="0.0512412"><ele>0.0</ele><time>2026-04-29T16:56:10.052Z</time></trkpt><trkpt lat="38.2117498" lon="0.0513054"><ele>0.0</ele><time>2026-04-29T16:56:11.052Z</time></trkpt><trkpt lat="38.2118882" lon="0.0514354"><ele>0.0</ele><time>2026-04-29T16:56:13.053Z</time></trkpt><trkpt lat="38.2119594" lon="0.0514958"><ele>0.0</ele><time>2026-04-29T16:56:14.053Z</time></trkpt><trkpt lat="38.2120326" lon="0.0515558"><ele>0.0</ele><time>2026-04-29T16:56:15.052Z</time></trkpt><trkpt lat="38.2121021" lon="0.05162"><ele>0.0</ele><time>2026-04-29T16:56:16.052Z</time></trkpt><trkpt lat="38.2121745" lon="0.0516817"><ele>0.0</ele><time>2026-04-29T16:56:17.053Z</time></trkpt><trkpt lat="38.2122417" lon="0.0517445"><ele>0.0</ele><time>2026-04-29T16:56:18.052Z</time></trkpt><trkpt lat="38.2123097" lon="0.0518108"><ele>0.0</ele><time>2026-04-29T16:56:19.053Z</time></trkpt><trkpt lat="38.2123767" lon="0.0518761"><ele>0.0</ele><time>2026-04-29T16:56:20.052Z</time></trkpt><trkpt lat="38.2124618" lon="0.0518993"><ele>0.0</ele><time>2026-04-29T16:56:21.053Z</time></trkpt><trkpt lat="38.2125384" lon="0.0519431"><ele>0.0</ele><time>2026-04-29T16:56:22.052Z</time></trkpt><trkpt lat="38.2126284" lon="0.0519694"><ele>0.0</ele><time>2026-04-29T16:56:23.052Z</time></trkpt><trkpt lat="38.2127058" lon="0.0520211"><ele>0.0</ele><time>2026-04-29T16:56:24.053Z</time></trkpt><trkpt lat="38.2127811" lon="0.0520786"><ele>0.0</ele><time>2026-04-29T16:56:25.053Z</time></trkpt><trkpt lat="38.212853" lon="0.0521387"><ele>0.0</ele><time>2026-04-29T16:56:26.053Z</time></trkpt><trkpt lat="38.2129219" lon="0.0521974"><ele>0.0</ele><time>2026-04-29T16:56:27.052Z</time></trkpt><trkpt lat="38.2129938" lon="0.0522508"><ele>0.0</ele><time>2026-04-29T16:56:28.052Z</time></trkpt><trkpt lat="38.2130753" lon="0.0522935"><ele>0.0</ele><time>2026-04-29T16:56:29.053Z</time></trkpt><trkpt lat="38.2131501" lon="0.0523474"><ele>0.0</ele><time>2026-04-29T16:56:30.052Z</time></trkpt><trkpt lat="38.2132305" lon="0.052391"><ele>0.0</ele><time>2026-04-29T16:56:31.053Z</time></trkpt><trkpt lat="38.2133016" lon="0.0524445"><ele>0.0</ele><time>2026-04-29T16:56:32.052Z</time></trkpt><trkpt lat="38.2134504" lon="0.0525429"><ele>0.0</ele><time>2026-04-29T16:56:34.052Z</time></trkpt><trkpt lat="38.2135204" lon="0.0526042"><ele>0.0</ele><time>2026-04-29T16:56:35.053Z</time></trkpt><trkpt lat="38.2135962" lon="0.0526515"><ele>0.0</ele><time>2026-04-29T16:56:36.052Z</time></trkpt><trkpt lat="38.2136769" lon="0.0526881"><ele>0.0</ele><time>2026-04-29T16:56:37.053Z</time></trkpt><trkpt lat="38.2137544" lon="0.0527301"><ele>0.0</ele><time>2026-04-29T16:56:38.052Z</time></trkpt><trkpt lat="38.2138241" lon="0.052784"><ele>0.0</ele><time>2026-04-29T16:56:39.052Z</time></trkpt><trkpt lat="38.213891" lon="0.0528423"><ele>0.0</ele><time>2026-04-29T16:56:40.053Z</time></trkpt><trkpt lat="38.2139618" lon="0.0528806"><ele>0.0</ele><time>2026-04-29T16:56:41.052Z</time></trkpt><trkpt lat="38.2141128" lon="0.0529927"><ele>0.0</ele><time>2026-04-29T16:56:43.053Z</time></trkpt><trkpt lat="38.2141851" lon="0.0530536"><ele>0.0</ele><time>2026-04-29T16:56:44.053Z</time></trkpt><trkpt lat="38.2142526" lon="0.0531183"><ele>0.0</ele><time>2026-04-29T16:56:45.053Z</time></trkpt><trkpt lat="38.2143222" lon="0.053173"><ele>0.0</ele><time>2026-04-29T16:56:46.052Z</time></trkpt><trkpt lat="38.2143933" lon="0.0532253"><ele>0.0</ele><time>2026-04-29T16:56:47.053Z</time></trkpt><trkpt lat="38.2144706" lon="0.0532718"><ele>0.0</ele><time>2026-04-29T16:56:48.052Z</time></trkpt><trkpt lat="38.2145388" lon="0.0533255"><ele>0.0</ele><time>2026-04-29T16:56:49.052Z</time></trkpt><trkpt lat="38.2146072" lon="0.0533863"><ele>0.0</ele><time>2026-04-29T16:56:50.053Z</time></trkpt><trkpt lat="38.2146756" lon="0.0534521"><ele>0.0</ele><time>2026-04-29T16:56:51.052Z</time></trkpt><trkpt lat="38.2147478" lon="0.0535127"><ele>0.0</ele><time>2026-04-29T16:56:52.052Z</time></trkpt><trkpt lat="38.2148215" lon="0.0535754"><ele>0.0</ele><time>2026-04-29T16:56:53.053Z</time></trkpt><trkpt lat="38.2149545" lon="0.0537079"><ele>0.0</ele><time>2026-04-29T16:56:55.053Z</time></trkpt><trkpt lat="38.2150275" lon="0.0537469"><ele>0.0</ele><time>2026-04-29T16:56:56.053Z</time></trkpt><trkpt lat="38.2151037" lon="0.0537939"><ele>0.0</ele><time>2026-04-29T16:56:57.052Z</time></trkpt><trkpt lat="38.2151776" lon="0.0538503"><ele>0.0</ele><time>2026-04-29T16:56:58.052Z</time></trkpt><trkpt lat="38.2152566" lon="0.0539015"><ele>0.0</ele><time>2026-04-29T16:56:59.052Z</time></trkpt><trkpt lat="38.2153394" lon="0.0539472"><ele>0.0</ele><time>2026-04-29T16:57:00.052Z</time></trkpt><trkpt lat="38.2154129" lon="0.0540048"><ele>0.0</ele><time>2026-04-29T16:57:01.053Z</time></trkpt><trkpt lat="38.2154836" lon="0.0540663"><ele>0.0</ele><time>2026-04-29T16:57:02.053Z</time></trkpt><trkpt lat="38.2155536" lon="0.0541262"><ele>0.0</ele><time>2026-04-29T16:57:03.052Z</time></trkpt><trkpt lat="38.2156307" lon="0.0541823"><ele>0.0</ele><time>2026-04-29T16:57:04.052Z</time></trkpt><trkpt lat="38.2157017" lon="0.0542345"><ele>0.0</ele><time>2026-04-29T16:57:05.052Z</time></trkpt><trkpt lat="38.2157677" lon="0.0543018"><ele>0.0</ele><time>2026-04-29T16:57:06.053Z</time></trkpt><trkpt lat="38.2158338" lon="0.0543644"><ele>0.0</ele><time>2026-04-29T16:57:07.053Z</time></trkpt><trkpt lat="38.2159018" lon="0.0544199"><ele>0.0</ele><time>2026-04-29T16:57:08.053Z</time></trkpt><trkpt lat="38.215976" lon="0.054472"><ele>0.0</ele><time>2026-04-29T16:57:09.052Z</time></trkpt><trkpt lat="38.2160512" lon="0.0545251"><ele>0.0</ele><time>2026-04-29T16:57:10.052Z</time></trkpt><trkpt lat="38.2161235" lon="0.0545866"><ele>0.0</ele><time>2026-04-29T16:57:11.053Z</time></trkpt><trkpt lat="38.2161935" lon="0.0546504"><ele>0.0</ele><time>2026-04-29T16:57:12.052Z</time></trkpt><trkpt lat="38.2162633" lon="0.0547139"><ele>0.0</ele><time>2026-04-29T16:57:13.053Z</time></trkpt><trkpt lat="38.2164889" lon="0.0548977"><ele>0.0</ele><time>2026-04-29T16:57:16.052Z</time></trkpt><trkpt lat="38.2165547" lon="0.054973"><ele>0.0</ele><time>2026-04-29T16:57:17.053Z</time></trkpt><trkpt lat="38.2166279" lon="0.0550344"><ele>0.0</ele><time>2026-04-29T16:57:18.053Z</time></trkpt><trkpt lat="38.2166888" lon="0.0550963"><ele>0.0</ele><time>2026-04-29T16:57:19.053Z</time></trkpt><trkpt lat="38.2167573" lon="0.0551536"><ele>0.0</ele><time>2026-04-29T16:57:20.052Z</time></trkpt><trkpt lat="38.2168243" lon="0.0552199"><ele>0.0</ele><time>2026-04-29T16:57:21.053Z</time></trkpt><trkpt lat="38.2168978" lon="0.0552857"><ele>0.0</ele><time>2026-04-29T16:57:22.052Z</time></trkpt><trkpt lat="38.2169727" lon="0.0553389"><ele>0.0</ele><time>2026-04-29T16:57:23.053Z</time></trkpt><trkpt lat="38.2170478" lon="0.0553886"><ele>0.0</ele><time>2026-04-29T16:57:24.052Z</time></trkpt><trkpt lat="38.2171171" lon="0.055443"><ele>0.0</ele><time>2026-04-29T16:57:25.052Z</time></trkpt><trkpt lat="38.2171867" lon="0.0555051"><ele>0.0</ele><time>2026-04-29T16:57:26.052Z</time></trkpt><trkpt lat="38.2172622" lon="0.0555631"><ele>0.0</ele><time>2026-04-29T16:57:27.053Z</time></trkpt><trkpt lat="38.2173335" lon="0.0556237"><ele>0.0</ele><time>2026-04-29T16:57:28.052Z</time></trkpt><trkpt lat="38.2174037" lon="0.0556767"><ele>0.0</ele><time>2026-04-29T16:57:29.052Z</time></trkpt><trkpt lat="38.2174764" lon="0.0557349"><ele>0.0</ele><time>2026-04-29T16:57:30.053Z</time></trkpt><trkpt lat="38.2175496" lon="0.0557916"><ele>0.0</ele><time>2026-04-29T16:57:31.053Z</time></trkpt><trkpt lat="38.2176243" lon="0.0558512"><ele>0.0</ele><time>2026-04-29T16:57:32.052Z</time></trkpt><trkpt lat="38.2176935" lon="0.0559193"><ele>0.0</ele><time>2026-04-29T16:57:33.052Z</time></trkpt><trkpt lat="38.2177664" lon="0.0559826"><ele>0.0</ele><time>2026-04-29T16:57:34.052Z</time></trkpt><trkpt lat="38.2178396" lon="0.0560374"><ele>0.0</ele><time>2026-04-29T16:57:35.052Z</time></trkpt><trkpt lat="38.2179831" lon="0.0561423"><ele>0.0</ele><time>2026-04-29T16:57:37.052Z</time></trkpt><trkpt lat="38.2180508" lon="0.0561982"><ele>0.0</ele><time>2026-04-29T16:57:38.052Z</time></trkpt><trkpt lat="38.218118" lon="0.0562612"><ele>0.0</ele><time>2026-04-29T16:57:39.053Z</time></trkpt><trkpt lat="38.2181907" lon="0.056323"><ele>0.0</ele><time>2026-04-29T16:57:40.053Z</time></trkpt><trkpt lat="38.2182787" lon="0.0563623"><ele>0.0</ele><time>2026-04-29T16:57:41.052Z</time></trkpt><trkpt lat="38.218357" lon="0.0564142"><ele>0.0</ele><time>2026-04-29T16:57:42.053Z</time></trkpt><trkpt lat="38.2184298" lon="0.0564766"><ele>0.0</ele><time>2026-04-29T16:57:43.053Z</time></trkpt><trkpt lat="38.2185086" lon="0.0565305"><ele>0.0</ele><time>2026-04-29T16:57:44.053Z</time></trkpt><trkpt lat="38.2185841" lon="0.056574"><ele>0.0</ele><time>2026-04-29T16:57:45.053Z</time></trkpt><trkpt lat="38.218732" lon="0.0566732"><ele>0.0</ele><time>2026-04-29T16:57:47.053Z</time></trkpt><trkpt lat="38.2187977" lon="0.0567356"><ele>0.0</ele><time>2026-04-29T16:57:48.052Z</time></trkpt><trkpt lat="38.2188629" lon="0.0567929"><ele>0.0</ele><time>2026-04-29T16:57:49.053Z</time></trkpt><trkpt lat="38.2189292" lon="0.0568581"><ele>0.0</ele><time>2026-04-29T16:57:50.053Z</time></trkpt><trkpt lat="38.2190016" lon="0.056921"><ele>0.0</ele><time>2026-04-29T16:57:51.053Z</time></trkpt><trkpt lat="38.219076" lon="0.0569602"><ele>0.0</ele><time>2026-04-29T16:57:52.053Z</time></trkpt><trkpt lat="38.2191494" lon="0.0570211"><ele>0.0</ele><time>2026-04-29T16:57:53.053Z</time></trkpt><trkpt lat="38.2192215" lon="0.0570839"><ele>0.0</ele><time>2026-04-29T16:57:54.052Z</time></trkpt><trkpt lat="38.2192927" lon="0.0571414"><ele>0.0</ele><time>2026-04-29T16:57:55.052Z</time></trkpt><trkpt lat="38.2193617" lon="0.0572019"><ele>0.0</ele><time>2026-04-29T16:57:56.053Z</time></trkpt><trkpt lat="38.2195169" lon="0.0573231"><ele>0.0</ele><time>2026-04-29T16:57:58.052Z</time></trkpt><trkpt lat="38.2195928" lon="0.0573799"><ele>0.0</ele><time>2026-04-29T16:57:59.052Z</time></trkpt><trkpt lat="38.2196603" lon="0.0574381"><ele>0.0</ele><time>2026-04-29T16:58:00.052Z</time></trkpt><trkpt lat="38.2197227" lon="0.0575158"><ele>0.0</ele><time>2026-04-29T16:58:01.053Z</time></trkpt><trkpt lat="38.2197821" lon="0.0575897"><ele>0.0</ele><time>2026-04-29T16:58:02.052Z</time></trkpt><trkpt lat="38.2198535" lon="0.0576489"><ele>0.0</ele><time>2026-04-29T16:58:03.053Z</time></trkpt><trkpt lat="38.2199204" lon="0.0577154"><ele>0.0</ele><time>2026-04-29T16:58:04.052Z</time></trkpt><trkpt lat="38.2199858" lon="0.0577817"><ele>0.0</ele><time>2026-04-29T16:58:05.052Z</time></trkpt><trkpt lat="38.2200479" lon="0.0578542"><ele>0.0</ele><time>2026-04-29T16:58:06.052Z</time></trkpt><trkpt lat="38.2201218" lon="0.0579066"><ele>0.0</ele><time>2026-04-29T16:58:07.052Z</time></trkpt><trkpt lat="38.2201884" lon="0.057968"><ele>0.0</ele><time>2026-04-29T16:58:08.053Z</time></trkpt><trkpt lat="38.2202564" lon="0.0580275"><ele>0.0</ele><time>2026-04-29T16:58:09.053Z</time></trkpt><trkpt lat="38.2203278" lon="0.0580852"><ele>0.0</ele><time>2026-04-29T16:58:10.053Z</time></trkpt><trkpt lat="38.2204041" lon="0.0581368"><ele>0.0</ele><time>2026-04-29T16:58:11.052Z</time></trkpt><trkpt lat="38.2204863" lon="0.0581786"><ele>0.0</ele><time>2026-04-29T16:58:12.053Z</time></trkpt><trkpt lat="38.2205625" lon="0.0582263"><ele>0.0</ele><time>2026-04-29T16:58:13.052Z</time></trkpt><trkpt lat="38.2206374" lon="0.058282"><ele>0.0</ele><time>2026-04-29T16:58:14.053Z</time></trkpt><trkpt lat="38.2207132" lon="0.0583281"><ele>0.0</ele><time>2026-04-29T16:58:15.052Z</time></trkpt><trkpt lat="38.2207905" lon="0.0583772"><ele>0.0</ele><time>2026-04-29T16:58:16.053Z</time></trkpt><trkpt lat="38.2208617" lon="0.0584373"><ele>0.0</ele><time>2026-04-29T16:58:17.053Z</time></trkpt><trkpt lat="38.2209315" lon="0.0584976"><ele>0.0</ele><time>2026-04-29T16:58:18.053Z</time></trkpt><trkpt lat="38.2210751" lon="0.0586098"><ele>0.0</ele><time>2026-04-29T16:58:20.052Z</time></trkpt><trkpt lat="38.2211407" lon="0.0586635"><ele>0.0</ele><time>2026-04-29T16:58:21.052Z</time></trkpt><trkpt lat="38.2212118" lon="0.0587267"><ele>0.0</ele><time>2026-04-29T16:58:22.052Z</time></trkpt><trkpt lat="38.221285" lon="0.05879"><ele>0.0</ele><time>2026-04-29T16:58:23.053Z</time></trkpt><trkpt lat="38.2213588" lon="0.0588515"><ele>0.0</ele><time>2026-04-29T16:58:24.052Z</time></trkpt><trkpt lat="38.2214262" lon="0.0589186"><ele>0.0</ele><time>2026-04-29T16:58:25.052Z</time></trkpt><trkpt lat="38.2214907" lon="0.0589877"><ele>0.0</ele><time>2026-04-29T16:58:26.053Z</time></trkpt><trkpt lat="38.2215567" lon="0.0590537"><ele>0.0</ele><time>2026-04-29T16:58:27.053Z</time></trkpt><trkpt lat="38.2216252" lon="0.0591214"><ele>0.0</ele><time>2026-04-29T16:58:28.052Z</time></trkpt><trkpt lat="38.2216982" lon="0.0591844"><ele>0.0</ele><time>2026-04-29T16:58:29.053Z</time></trkpt><trkpt lat="38.2217698" lon="0.0592376"><ele>0.0</ele><time>2026-04-29T16:58:30.052Z</time></trkpt><trkpt lat="38.2218404" lon="0.0592956"><ele>0.0</ele><time>2026-04-29T16:58:31.052Z</time></trkpt><trkpt lat="38.2219115" lon="0.0593597"><ele>0.0</ele><time>2026-04-29T16:58:32.053Z</time></trkpt><trkpt lat="38.2219829" lon="0.0594265"><ele>0.0</ele><time>2026-04-29T16:58:33.053Z</time></trkpt><trkpt lat="38.2220518" lon="0.0594898"><ele>0.0</ele><time>2026-04-29T16:58:34.052Z</time></trkpt><trkpt lat="38.222122" lon="0.0595562"><ele>0.0</ele><time>2026-04-29T16:58:35.053Z</time></trkpt><trkpt lat="38.2221906" lon="0.0596286"><ele>0.0</ele><time>2026-04-29T16:58:36.053Z</time></trkpt><trkpt lat="38.22226" lon="0.0596957"><ele>0.0</ele><time>2026-04-29T16:58:37.052Z</time></trkpt><trkpt lat="38.2223412" lon="0.0597328"><ele>0.0</ele><time>2026-04-29T16:58:38.053Z</time></trkpt><trkpt lat="38.2224099" lon="0.0597934"><ele>0.0</ele><time>2026-04-29T16:58:39.053Z</time></trkpt><trkpt lat="38.222547" lon="0.059914"><ele>0.0</ele><time>2026-04-29T16:58:41.052Z</time></trkpt><trkpt lat="38.222614" lon="0.0599761"><ele>0.0</ele><time>2026-04-29T16:58:42.053Z</time></trkpt><trkpt lat="38.2226803" lon="0.0600419"><ele>0.0</ele><time>2026-04-29T16:58:43.052Z</time></trkpt><trkpt lat="38.222753" lon="0.0601043"><ele>0.0</ele><time>2026-04-29T16:58:44.053Z</time></trkpt><trkpt lat="38.2228248" lon="0.0601646"><ele>0.0</ele><time>2026-04-29T16:58:45.052Z</time></trkpt><trkpt lat="38.2229007" lon="0.0602187"><ele>0.0</ele><time>2026-04-29T16:58:46.053Z</time></trkpt><trkpt lat="38.2229659" lon="0.0602812"><ele>0.0</ele><time>2026-04-29T16:58:47.053Z</time></trkpt><trkpt lat="38.2230304" lon="0.0603483"><ele>0.0</ele><time>2026-04-29T16:58:48.052Z</time></trkpt><trkpt lat="38.2231839" lon="0.0604685"><ele>0.0</ele><time>2026-04-29T16:58:50.052Z</time></trkpt><trkpt lat="38.2232577" lon="0.0605334"><ele>0.0</ele><time>2026-04-29T16:58:51.051Z</time></trkpt><trkpt lat="38.2233327" lon="0.0605898"><ele>0.0</ele><time>2026-04-29T16:58:52.052Z</time></trkpt><trkpt lat="38.2234149" lon="0.0606312"><ele>0.0</ele><time>2026-04-29T16:58:53.051Z</time></trkpt><trkpt lat="38.2234839" lon="0.0606841"><ele>0.0</ele><time>2026-04-29T16:58:54.051Z</time></trkpt><trkpt lat="38.2235477" lon="0.0607408"><ele>0.0</ele><time>2026-04-29T16:58:55.052Z</time></trkpt><trkpt lat="38.2236164" lon="0.0608046"><ele>0.0</ele><time>2026-04-29T16:58:56.052Z</time></trkpt><trkpt lat="38.2236951" lon="0.060861"><ele>0.0</ele><time>2026-04-29T16:58:57.052Z</time></trkpt><trkpt lat="38.2237682" lon="0.0609217"><ele>0.0</ele><time>2026-04-29T16:58:58.051Z</time></trkpt><trkpt lat="38.2238485" lon="0.0609621"><ele>0.0</ele><time>2026-04-29T16:58:59.051Z</time></trkpt><trkpt lat="38.2239158" lon="0.0610253"><ele>0.0</ele><time>2026-04-29T16:59:00.052Z</time></trkpt><trkpt lat="38.224055" lon="0.0611507"><ele>0.0</ele><time>2026-04-29T16:59:02.051Z</time></trkpt><trkpt lat="38.224127" lon="0.0612093"><ele>0.0</ele><time>2026-04-29T16:59:03.051Z</time></trkpt><trkpt lat="38.2241973" lon="0.0612693"><ele>0.0</ele><time>2026-04-29T16:59:04.052Z</time></trkpt><trkpt lat="38.2242641" lon="0.0613365"><ele>0.0</ele><time>2026-04-29T16:59:05.051Z</time></trkpt><trkpt lat="38.2243347" lon="0.0614024"><ele>0.0</ele><time>2026-04-29T16:59:06.051Z</time></trkpt><trkpt lat="38.2244019" lon="0.061463"><ele>0.0</ele><time>2026-04-29T16:59:07.051Z</time></trkpt><trkpt lat="38.224467" lon="0.0615264"><ele>0.0</ele><time>2026-04-29T16:59:08.052Z</time></trkpt><trkpt lat="38.2245334" lon="0.0615879"><ele>0.0</ele><time>2026-04-29T16:59:09.051Z</time></trkpt><trkpt lat="38.2246013" lon="0.0616565"><ele>0.0</ele><time>2026-04-29T16:59:10.052Z</time></trkpt><trkpt lat="38.224673" lon="0.061724"><ele>0.0</ele><time>2026-04-29T16:59:11.051Z</time></trkpt><trkpt lat="38.2247451" lon="0.061786"><ele>0.0</ele><time>2026-04-29T16:59:12.052Z</time></trkpt><trkpt lat="38.2248183" lon="0.0618477"><ele>0.0</ele><time>2026-04-29T16:59:13.051Z</time></trkpt><trkpt lat="38.2248942" lon="0.0619049"><ele>0.0</ele><time>2026-04-29T16:59:14.052Z</time></trkpt><trkpt lat="38.2249691" lon="0.0619703"><ele>0.0</ele><time>2026-04-29T16:59:15.052Z</time></trkpt><trkpt lat="38.2250429" lon="0.0620345"><ele>0.0</ele><time>2026-04-29T16:59:16.051Z</time></trkpt><trkpt lat="38.2251133" lon="0.0621027"><ele>0.0</ele><time>2026-04-29T16:59:17.051Z</time></trkpt><trkpt lat="38.2251804" lon="0.062171"><ele>0.0</ele><time>2026-04-29T16:59:18.051Z</time></trkpt><trkpt lat="38.225244" lon="0.0622319"><ele>0.0</ele><time>2026-04-29T16:59:19.051Z</time></trkpt><trkpt lat="38.2253158" lon="0.0622926"><ele>0.0</ele><time>2026-04-29T16:59:20.052Z</time></trkpt><trkpt lat="38.2255301" lon="0.062467"><ele>0.0</ele><time>2026-04-29T16:59:23.051Z</time></trkpt><trkpt lat="38.2256004" lon="0.0625232"><ele>0.0</ele><time>2026-04-29T16:59:24.051Z</time></trkpt><trkpt lat="38.225667" lon="0.0625873"><ele>0.0</ele><time>2026-04-29T16:59:25.051Z</time></trkpt><trkpt lat="38.2257348" lon="0.0626516"><ele>0.0</ele><time>2026-04-29T16:59:26.051Z</time></trkpt><trkpt lat="38.2258032" lon="0.0627145"><ele>0.0</ele><time>2026-04-29T16:59:27.052Z</time></trkpt><trkpt lat="38.2258733" lon="0.0627934"><ele>0.0</ele><time>2026-04-29T16:59:28.052Z</time></trkpt><trkpt lat="38.2259417" lon="0.0628717"><ele>0.0</ele><time>2026-04-29T16:59:29.052Z</time></trkpt><trkpt lat="38.2260112" lon="0.0629295"><ele>0.0</ele><time>2026-04-29T16:59:30.052Z</time></trkpt><trkpt lat="38.2260828" lon="0.0629916"><ele>0.0</ele><time>2026-04-29T16:59:31.052Z</time></trkpt><trkpt lat="38.2261487" lon="0.0630546"><ele>0.0</ele><time>2026-04-29T16:59:32.052Z</time></trkpt><trkpt lat="38.2262179" lon="0.0631213"><ele>0.0</ele><time>2026-04-29T16:59:33.052Z</time></trkpt><trkpt lat="38.2262852" lon="0.0631926"><ele>0.0</ele><time>2026-04-29T16:59:34.051Z</time></trkpt><trkpt lat="38.2263516" lon="0.0632601"><ele>0.0</ele><time>2026-04-29T16:59:35.051Z</time></trkpt><trkpt lat="38.2264226" lon="0.0633218"><ele>0.0</ele><time>2026-04-29T16:59:36.051Z</time></trkpt><trkpt lat="38.2264945" lon="0.0633844"><ele>0.0</ele><time>2026-04-29T16:59:37.051Z</time></trkpt><trkpt lat="38.2265678" lon="0.0634298"><ele>0.0</ele><time>2026-04-29T16:59:38.052Z</time></trkpt><trkpt lat="38.2266424" lon="0.0634745"><ele>0.0</ele><time>2026-04-29T16:59:39.052Z</time></trkpt><trkpt lat="38.2267117" lon="0.0635324"><ele>0.0</ele><time>2026-04-29T16:59:40.052Z</time></trkpt><trkpt lat="38.2267815" lon="0.0635898"><ele>0.0</ele><time>2026-04-29T16:59:41.051Z</time></trkpt><trkpt lat="38.2268496" lon="0.063649"><ele>0.0</ele><time>2026-04-29T16:59:42.052Z</time></trkpt><trkpt lat="38.2269911" lon="0.0637634"><ele>0.0</ele><time>2026-04-29T16:59:44.052Z</time></trkpt><trkpt lat="38.22706" lon="0.0638261"><ele>0.0</ele><time>2026-04-29T16:59:45.052Z</time></trkpt><trkpt lat="38.2271312" lon="0.0638896"><ele>0.0</ele><time>2026-04-29T16:59:46.052Z</time></trkpt><trkpt lat="38.2272044" lon="0.0639531"><ele>0.0</ele><time>2026-04-29T16:59:47.051Z</time></trkpt><trkpt lat="38.2272722" lon="0.0640225"><ele>0.0</ele><time>2026-04-29T16:59:48.051Z</time></trkpt><trkpt lat="38.2273404" lon="0.0640896"><ele>0.0</ele><time>2026-04-29T16:59:49.051Z</time></trkpt><trkpt lat="38.2274085" lon="0.064152"><ele>0.0</ele><time>2026-04-29T16:59:50.051Z</time></trkpt><trkpt lat="38.2274781" lon="0.0642139"><ele>0.0</ele><time>2026-04-29T16:59:51.051Z</time></trkpt><trkpt lat="38.2275496" lon="0.0642726"><ele>0.0</ele><time>2026-04-29T16:59:52.052Z</time></trkpt><trkpt lat="38.2276898" lon="0.0643935"><ele>0.0</ele><time>2026-04-29T16:59:54.051Z</time></trkpt><trkpt lat="38.2277582" lon="0.0644509"><ele>0.0</ele><time>2026-04-29T16:59:55.051Z</time></trkpt><trkpt lat="38.2278325" lon="0.0645084"><ele>0.0</ele><time>2026-04-29T16:59:56.052Z</time></trkpt><trkpt lat="38.2279076" lon="0.0645668"><ele>0.0</ele><time>2026-04-29T16:59:57.051Z</time></trkpt><trkpt lat="38.2279811" lon="0.0646299"><ele>0.0</ele><time>2026-04-29T16:59:58.051Z</time></trkpt><trkpt lat="38.2280561" lon="0.0646867"><ele>0.0</ele><time>2026-04-29T16:59:59.052Z</time></trkpt><trkpt lat="38.2281292" lon="0.0647373"><ele>0.0</ele><time>2026-04-29T17:00:00.051Z</time></trkpt><trkpt lat="38.2282182" lon="0.0647582"><ele>0.0</ele><time>2026-04-29T17:00:01.052Z</time></trkpt><trkpt lat="38.228296" lon="0.0648096"><ele>0.0</ele><time>2026-04-29T17:00:02.051Z</time></trkpt><trkpt lat="38.2283683" lon="0.0648639"><ele>0.0</ele><time>2026-04-29T17:00:03.051Z</time></trkpt><trkpt lat="38.2285147" lon="0.064981"><ele>0.0</ele><time>2026-04-29T17:00:05.052Z</time></trkpt><trkpt lat="38.2285869" lon="0.0650399"><ele>0.0</ele><time>2026-04-29T17:00:06.052Z</time></trkpt><trkpt lat="38.2286627" lon="0.0650936"><ele>0.0</ele><time>2026-04-29T17:00:07.051Z</time></trkpt><trkpt lat="38.2287494" lon="0.065124"><ele>0.0</ele><time>2026-04-29T17:00:08.051Z</time></trkpt><trkpt lat="38.2288347" lon="0.0651552"><ele>0.0</ele><time>2026-04-29T17:00:09.052Z</time></trkpt><trkpt lat="38.2289067" lon="0.0652072"><ele>0.0</ele><time>2026-04-29T17:00:10.051Z</time></trkpt><trkpt lat="38.2289766" lon="0.0652628"><ele>0.0</ele><time>2026-04-29T17:00:11.051Z</time></trkpt><trkpt lat="38.2290495" lon="0.065324"><ele>0.0</ele><time>2026-04-29T17:00:12.051Z</time></trkpt><trkpt lat="38.2291301" lon="0.0653703"><ele>0.0</ele><time>2026-04-29T17:00:13.052Z</time></trkpt><trkpt lat="38.2292086" lon="0.0654252"><ele>0.0</ele><time>2026-04-29T17:00:14.052Z</time></trkpt><trkpt lat="38.2292828" lon="0.0654859"><ele>0.0</ele><time>2026-04-29T17:00:15.051Z</time></trkpt><trkpt lat="38.2293577" lon="0.0655401"><ele>0.0</ele><time>2026-04-29T17:00:16.052Z</time></trkpt><trkpt lat="38.229427" lon="0.0655991"><ele>0.0</ele><time>2026-04-29T17:00:17.051Z</time></trkpt><trkpt lat="38.2294971" lon="0.0656561"><ele>0.0</ele><time>2026-04-29T17:00:18.051Z</time></trkpt><trkpt lat="38.2295657" lon="0.0657169"><ele>0.0</ele><time>2026-04-29T17:00:19.052Z</time></trkpt><trkpt lat="38.2296352" lon="0.0657775"><ele>0.0</ele><time>2026-04-29T17:00:20.051Z</time></trkpt><trkpt lat="38.2297095" lon="0.0658264"><ele>0.0</ele><time>2026-04-29T17:00:21.052Z</time></trkpt><trkpt lat="38.2297787" lon="0.0658833"><ele>0.0</ele><time>2026-04-29T17:00:22.051Z</time></trkpt><trkpt lat="38.2298484" lon="0.0659384"><ele>0.0</ele><time>2026-04-29T17:00:23.052Z</time></trkpt><trkpt lat="38.229914" lon="0.0659931"><ele>0.0</ele><time>2026-04-29T17:00:24.051Z</time></trkpt><trkpt lat="38.2301279" lon="0.0661765"><ele>0.0</ele><time>2026-04-29T17:00:27.051Z</time></trkpt><trkpt lat="38.2302019" lon="0.0662345"><ele>0.0</ele><time>2026-04-29T17:00:28.052Z</time></trkpt><trkpt lat="38.2302719" lon="0.0662972"><ele>0.0</ele><time>2026-04-29T17:00:29.051Z</time></trkpt><trkpt lat="38.2303444" lon="0.0663564"><ele>0.0</ele><time>2026-04-29T17:00:30.052Z</time></trkpt><trkpt lat="38.2304178" lon="0.0664164"><ele>0.0</ele><time>2026-04-29T17:00:31.051Z</time></trkpt><trkpt lat="38.2304916" lon="0.0664777"><ele>0.0</ele><time>2026-04-29T17:00:32.052Z</time></trkpt><trkpt lat="38.2305675" lon="0.0665339"><ele>0.0</ele><time>2026-04-29T17:00:33.051Z</time></trkpt><trkpt lat="38.2306383" lon="0.0665903"><ele>0.0</ele><time>2026-04-29T17:00:34.052Z</time></trkpt><trkpt lat="38.2307082" lon="0.0666465"><ele>0.0</ele><time>2026-04-29T17:00:35.051Z</time></trkpt><trkpt lat="38.2307826" lon="0.0667026"><ele>0.0</ele><time>2026-04-29T17:00:36.052Z</time></trkpt><trkpt lat="38.2308576" lon="0.0667609"><ele>0.0</ele><time>2026-04-29T17:00:37.051Z</time></trkpt><trkpt lat="38.2309384" lon="0.066814"><ele>0.0</ele><time>2026-04-29T17:00:38.051Z</time></trkpt><trkpt lat="38.2310171" lon="0.0668696"><ele>0.0</ele><time>2026-04-29T17:00:39.052Z</time></trkpt><trkpt lat="38.2311054" lon="0.0669055"><ele>0.0</ele><time>2026-04-29T17:00:40.052Z</time></trkpt><trkpt lat="38.2311798" lon="0.0669591"><ele>0.0</ele><time>2026-04-29T17:00:41.051Z</time></trkpt><trkpt lat="38.2312546" lon="0.0670135"><ele>0.0</ele><time>2026-04-29T17:00:42.052Z</time></trkpt><trkpt lat="38.2313298" lon="0.0670598"><ele>0.0</ele><time>2026-04-29T17:00:43.051Z</time></trkpt><trkpt lat="38.2314018" lon="0.0671101"><ele>0.0</ele><time>2026-04-29T17:00:44.052Z</time></trkpt><trkpt lat="38.2314708" lon="0.0671748"><ele>0.0</ele><time>2026-04-29T17:00:45.051Z</time></trkpt><trkpt lat="38.231542" lon="0.0672357"><ele>0.0</ele><time>2026-04-29T17:00:46.051Z</time></trkpt><trkpt lat="38.2316901" lon="0.0673498"><ele>0.0</ele><time>2026-04-29T17:00:48.051Z</time></trkpt><trkpt lat="38.2317645" lon="0.06741"><ele>0.0</ele><time>2026-04-29T17:00:49.051Z</time></trkpt><trkpt lat="38.2318397" lon="0.0674722"><ele>0.0</ele><time>2026-04-29T17:00:50.051Z</time></trkpt><trkpt lat="38.2319146" lon="0.0675328"><ele>0.0</ele><time>2026-04-29T17:00:51.051Z</time></trkpt><trkpt lat="38.2319867" lon="0.0675988"><ele>0.0</ele><time>2026-04-29T17:00:52.052Z</time></trkpt><trkpt lat="38.2320599" lon="0.0676567"><ele>0.0</ele><time>2026-04-29T17:00:53.051Z</time></trkpt><trkpt lat="38.2321333" lon="0.0677132"><ele>0.0</ele><time>2026-04-29T17:00:54.052Z</time></trkpt><trkpt lat="38.2322093" lon="0.0677755"><ele>0.0</ele><time>2026-04-29T17:00:55.052Z</time></trkpt><trkpt lat="38.2322847" lon="0.0678317"><ele>0.0</ele><time>2026-04-29T17:00:56.052Z</time></trkpt><trkpt lat="38.232424" lon="0.0679491"><ele>0.0</ele><time>2026-04-29T17:00:58.051Z</time></trkpt><trkpt lat="38.2324883" lon="0.0680121"><ele>0.0</ele><time>2026-04-29T17:00:59.051Z</time></trkpt><trkpt lat="38.2325541" lon="0.0680839"><ele>0.0</ele><time>2026-04-29T17:01:00.052Z</time></trkpt><trkpt lat="38.232619" lon="0.0681503"><ele>0.0</ele><time>2026-04-29T17:01:01.051Z</time></trkpt><trkpt lat="38.2326873" lon="0.0682068"><ele>0.0</ele><time>2026-04-29T17:01:02.052Z</time></trkpt><trkpt lat="38.2327656" lon="0.0682589"><ele>0.0</ele><time>2026-04-29T17:01:03.051Z</time></trkpt><trkpt lat="38.2328399" lon="0.0683159"><ele>0.0</ele><time>2026-04-29T17:01:04.052Z</time></trkpt><trkpt lat="38.2329175" lon="0.0683645"><ele>0.0</ele><time>2026-04-29T17:01:05.051Z</time></trkpt><trkpt lat="38.2329887" lon="0.0684258"><ele>0.0</ele><time>2026-04-29T17:01:06.051Z</time></trkpt><trkpt lat="38.2330573" lon="0.0684932"><ele>0.0</ele><time>2026-04-29T17:01:07.052Z</time></trkpt><trkpt lat="38.2331952" lon="0.0686305"><ele>0.0</ele><time>2026-04-29T17:01:09.051Z</time></trkpt><trkpt lat="38.2332709" lon="0.0686758"><ele>0.0</ele><time>2026-04-29T17:01:10.051Z</time></trkpt><trkpt lat="38.2333419" lon="0.0687299"><ele>0.0</ele><time>2026-04-29T17:01:11.051Z</time></trkpt><trkpt lat="38.2334146" lon="0.0687918"><ele>0.0</ele><time>2026-04-29T17:01:12.052Z</time></trkpt><trkpt lat="38.2334942" lon="0.0688429"><ele>0.0</ele><time>2026-04-29T17:01:13.051Z</time></trkpt><trkpt lat="38.2335628" lon="0.0689102"><ele>0.0</ele><time>2026-04-29T17:01:14.052Z</time></trkpt><trkpt lat="38.2336408" lon="0.0689675"><ele>0.0</ele><time>2026-04-29T17:01:15.051Z</time></trkpt><trkpt lat="38.2337076" lon="0.0690265"><ele>0.0</ele><time>2026-04-29T17:01:16.051Z</time></trkpt><trkpt lat="38.2337784" lon="0.0690794"><ele>0.0</ele><time>2026-04-29T17:01:17.052Z</time></trkpt><trkpt lat="38.2338473" lon="0.0691325"><ele>0.0</ele><time>2026-04-29T17:01:18.051Z</time></trkpt><trkpt lat="38.2339197" lon="0.0691901"><ele>0.0</ele><time>2026-04-29T17:01:19.052Z</time></trkpt><trkpt lat="38.2339947" lon="0.069258"><ele>0.0</ele><time>2026-04-29T17:01:20.052Z</time></trkpt><trkpt lat="38.234064" lon="0.0693251"><ele>0.0</ele><time>2026-04-29T17:01:21.051Z</time></trkpt><trkpt lat="38.2341308" lon="0.0693833"><ele>0.0</ele><time>2026-04-29T17:01:22.052Z</time></trkpt><trkpt lat="38.234202" lon="0.0694357"><ele>0.0</ele><time>2026-04-29T17:01:23.051Z</time></trkpt><trkpt lat="38.234272" lon="0.0694907"><ele>0.0</ele><time>2026-04-29T17:01:24.052Z</time></trkpt><trkpt lat="38.2343363" lon="0.0695387"><ele>0.0</ele><time>2026-04-29T17:01:25.051Z</time></trkpt><trkpt lat="38.2344122" lon="0.0695892"><ele>0.0</ele><time>2026-04-29T17:01:26.051Z</time></trkpt><trkpt lat="38.2344878" lon="0.0696464"><ele>0.0</ele><time>2026-04-29T17:01:27.051Z</time></trkpt><trkpt lat="38.2345573" lon="0.0697057"><ele>0.0</ele><time>2026-04-29T17:01:28.052Z</time></trkpt><trkpt lat="38.2347637" lon="0.0698675"><ele>0.0</ele><time>2026-04-29T17:01:31.052Z</time></trkpt><trkpt lat="38.2348326" lon="0.0699203"><ele>0.0</ele><time>2026-04-29T17:01:32.051Z</time></trkpt><trkpt lat="38.2349051" lon="0.0699794"><ele>0.0</ele><time>2026-04-29T17:01:33.052Z</time></trkpt><trkpt lat="38.2349869" lon="0.0700242"><ele>0.0</ele><time>2026-04-29T17:01:34.052Z</time></trkpt><trkpt lat="38.2350555" lon="0.0700784"><ele>0.0</ele><time>2026-04-29T17:01:35.051Z</time></trkpt><trkpt lat="38.2351195" lon="0.0701392"><ele>0.0</ele><time>2026-04-29T17:01:36.052Z</time></trkpt><trkpt lat="38.2351882" lon="0.0702008"><ele>0.0</ele><time>2026-04-29T17:01:37.052Z</time></trkpt><trkpt lat="38.2352677" lon="0.0702429"><ele>0.0</ele><time>2026-04-29T17:01:38.052Z</time></trkpt><trkpt lat="38.2353426" lon="0.0703"><ele>0.0</ele><time>2026-04-29T17:01:39.052Z</time></trkpt><trkpt lat="38.2354209" lon="0.0703595"><ele>0.0</ele><time>2026-04-29T17:01:40.051Z</time></trkpt><trkpt lat="38.2354993" lon="0.0704251"><ele>0.0</ele><time>2026-04-29T17:01:41.051Z</time></trkpt><trkpt lat="38.2355693" lon="0.0704826"><ele>0.0</ele><time>2026-04-29T17:01:42.051Z</time></trkpt><trkpt lat="38.2356336" lon="0.0705411"><ele>0.0</ele><time>2026-04-29T17:01:43.051Z</time></trkpt><trkpt lat="38.2357066" lon="0.0705956"><ele>0.0</ele><time>2026-04-29T17:01:44.052Z</time></trkpt><trkpt lat="38.2357795" lon="0.0706527"><ele>0.0</ele><time>2026-04-29T17:01:45.051Z</time></trkpt><trkpt lat="38.2358475" lon="0.0707221"><ele>0.0</ele><time>2026-04-29T17:01:46.051Z</time></trkpt><trkpt lat="38.2359226" lon="0.0707823"><ele>0.0</ele><time>2026-04-29T17:01:47.052Z</time></trkpt><trkpt lat="38.2359967" lon="0.0708373"><ele>0.0</ele><time>2026-04-29T17:01:48.051Z</time></trkpt><trkpt lat="38.2360727" lon="0.070876"><ele>0.0</ele><time>2026-04-29T17:01:49.051Z</time></trkpt><trkpt lat="38.2361424" lon="0.0709339"><ele>0.0</ele><time>2026-04-29T17:01:50.051Z</time></trkpt><trkpt lat="38.236284" lon="0.0710587"><ele>0.0</ele><time>2026-04-29T17:01:52.051Z</time></trkpt><trkpt lat="38.2363552" lon="0.0711222"><ele>0.0</ele><time>2026-04-29T17:01:53.051Z</time></trkpt><trkpt lat="38.2364282" lon="0.0711842"><ele>0.0</ele><time>2026-04-29T17:01:54.052Z</time></trkpt><trkpt lat="38.2364945" lon="0.0712534"><ele>0.0</ele><time>2026-04-29T17:01:55.051Z</time></trkpt><trkpt lat="38.236559" lon="0.0713213"><ele>0.0</ele><time>2026-04-29T17:01:56.051Z</time></trkpt><trkpt lat="38.2366272" lon="0.0713934"><ele>0.0</ele><time>2026-04-29T17:01:57.052Z</time></trkpt><trkpt lat="38.2366997" lon="0.0714538"><ele>0.0</ele><time>2026-04-29T17:01:58.051Z</time></trkpt><trkpt lat="38.2367691" lon="0.0715161"><ele>0.0</ele><time>2026-04-29T17:01:59.052Z</time></trkpt><trkpt lat="38.2368421" lon="0.071578"><ele>0.0</ele><time>2026-04-29T17:02:00.051Z</time></trkpt><trkpt lat="38.2369795" lon="0.0716945"><ele>0.0</ele><time>2026-04-29T17:02:02.052Z</time></trkpt><trkpt lat="38.2370499" lon="0.0717461"><ele>0.0</ele><time>2026-04-29T17:02:03.052Z</time></trkpt><trkpt lat="38.2371199" lon="0.0718076"><ele>0.0</ele><time>2026-04-29T17:02:04.052Z</time></trkpt><trkpt lat="38.2371944" lon="0.0718637"><ele>0.0</ele><time>2026-04-29T17:02:05.052Z</time></trkpt><trkpt lat="38.2372683" lon="0.071917"><ele>0.0</ele><time>2026-04-29T17:02:06.051Z</time></trkpt><trkpt lat="38.2373401" lon="0.0719803"><ele>0.0</ele><time>2026-04-29T17:02:07.052Z</time></trkpt><trkpt lat="38.2374134" lon="0.0720413"><ele>0.0</ele><time>2026-04-29T17:02:08.051Z</time></trkpt><trkpt lat="38.2374839" lon="0.0720969"><ele>0.0</ele><time>2026-04-29T17:02:09.052Z</time></trkpt><trkpt lat="38.2375552" lon="0.072156"><ele>0.0</ele><time>2026-04-29T17:02:10.052Z</time></trkpt><trkpt lat="38.2376253" lon="0.0722165"><ele>0.0</ele><time>2026-04-29T17:02:11.051Z</time></trkpt><trkpt lat="38.2377604" lon="0.072341"><ele>0.0</ele><time>2026-04-29T17:02:13.051Z</time></trkpt><trkpt lat="38.2378283" lon="0.0724027"><ele>0.0</ele><time>2026-04-29T17:02:14.051Z</time></trkpt><trkpt lat="38.2378999" lon="0.0724616"><ele>0.0</ele><time>2026-04-29T17:02:15.051Z</time></trkpt><trkpt lat="38.2379674" lon="0.0725236"><ele>0.0</ele><time>2026-04-29T17:02:16.051Z</time></trkpt><trkpt lat="38.2380459" lon="0.0725658"><ele>0.0</ele><time>2026-04-29T17:02:17.052Z</time></trkpt><trkpt lat="38.2381143" lon="0.0726183"><ele>0.0</ele><time>2026-04-29T17:02:18.052Z</time></trkpt><trkpt lat="38.2381824" lon="0.0726784"><ele>0.0</ele><time>2026-04-29T17:02:19.052Z</time></trkpt><trkpt lat="38.2382606" lon="0.0727407"><ele>0.0</ele><time>2026-04-29T17:02:20.052Z</time></trkpt><trkpt lat="38.2383334" lon="0.072801"><ele>0.0</ele><time>2026-04-29T17:02:21.051Z</time></trkpt><trkpt lat="38.2384051" lon="0.0728643"><ele>0.0</ele><time>2026-04-29T17:02:22.052Z</time></trkpt><trkpt lat="38.2384739" lon="0.0729319"><ele>0.0</ele><time>2026-04-29T17:02:23.052Z</time></trkpt><trkpt lat="38.2385451" lon="0.0729965"><ele>0.0</ele><time>2026-04-29T17:02:24.052Z</time></trkpt><trkpt lat="38.2386153" lon="0.0730552"><ele>0.0</ele><time>2026-04-29T17:02:25.052Z</time></trkpt><trkpt lat="38.2386838" lon="0.0731103"><ele>0.0</ele><time>2026-04-29T17:02:26.051Z</time></trkpt><trkpt lat="38.2387492" lon="0.0731663"><ele>0.0</ele><time>2026-04-29T17:02:27.052Z</time></trkpt><trkpt lat="38.2388184" lon="0.0732288"><ele>0.0</ele><time>2026-04-29T17:02:28.051Z</time></trkpt><trkpt lat="38.2388915" lon="0.0732873"><ele>0.0</ele><time>2026-04-29T17:02:29.052Z</time></trkpt><trkpt lat="38.238963" lon="0.0733447"><ele>0.0</ele><time>2026-04-29T17:02:30.051Z</time></trkpt><trkpt lat="38.2390403" lon="0.0734048"><ele>0.0</ele><time>2026-04-29T17:02:31.052Z</time></trkpt><trkpt lat="38.2391188" lon="0.0734666"><ele>0.0</ele><time>2026-04-29T17:02:32.051Z</time></trkpt><trkpt lat="38.2393385" lon="0.0736467"><ele>0.0</ele><time>2026-04-29T17:02:35.051Z</time></trkpt><trkpt lat="38.2394054" lon="0.0737045"><ele>0.0</ele><time>2026-04-29T17:02:36.051Z</time></trkpt><trkpt lat="38.2394765" lon="0.0737691"><ele>0.0</ele><time>2026-04-29T17:02:37.052Z</time></trkpt><trkpt lat="38.2395496" lon="0.0738297"><ele>0.0</ele><time>2026-04-29T17:02:38.051Z</time></trkpt><trkpt lat="38.2396201" lon="0.0738979"><ele>0.0</ele><time>2026-04-29T17:02:39.051Z</time></trkpt><trkpt lat="38.2396885" lon="0.0739627"><ele>0.0</ele><time>2026-04-29T17:02:40.051Z</time></trkpt><trkpt lat="38.2397556" lon="0.0740287"><ele>0.0</ele><time>2026-04-29T17:02:41.051Z</time></trkpt><trkpt lat="38.2398325" lon="0.0740841"><ele>0.0</ele><time>2026-04-29T17:02:42.051Z</time></trkpt><trkpt lat="38.2399077" lon="0.074138"><ele>0.0</ele><time>2026-04-29T17:02:43.051Z</time></trkpt><trkpt lat="38.2399783" lon="0.0741978"><ele>0.0</ele><time>2026-04-29T17:02:44.052Z</time></trkpt><trkpt lat="38.2400471" lon="0.0742658"><ele>0.0</ele><time>2026-04-29T17:02:45.052Z</time></trkpt><trkpt lat="38.240111" lon="0.0743286"><ele>0.0</ele><time>2026-04-29T17:02:46.05Z</time></trkpt><trkpt lat="38.2401896" lon="0.0743834"><ele>0.0</ele><time>2026-04-29T17:02:47.051Z</time></trkpt><trkpt lat="38.2402698" lon="0.0744239"><ele>0.0</ele><time>2026-04-29T17:02:48.051Z</time></trkpt><trkpt lat="38.2403425" lon="0.0744733"><ele>0.0</ele><time>2026-04-29T17:02:49.05Z</time></trkpt><trkpt lat="38.2404312" lon="0.0745049"><ele>0.0</ele><time>2026-04-29T17:02:50.05Z</time></trkpt><trkpt lat="38.240509" lon="0.0745569"><ele>0.0</ele><time>2026-04-29T17:02:51.051Z</time></trkpt><trkpt lat="38.240582" lon="0.0746131"><ele>0.0</ele><time>2026-04-29T17:02:52.05Z</time></trkpt><trkpt lat="38.2406566" lon="0.0746708"><ele>0.0</ele><time>2026-04-29T17:02:53.05Z</time></trkpt><trkpt lat="38.2407285" lon="0.0747351"><ele>0.0</ele><time>2026-04-29T17:02:54.05Z</time></trkpt><trkpt lat="38.2408715" lon="0.0748659"><ele>0.0</ele><time>2026-04-29T17:02:56.051Z</time></trkpt><trkpt lat="38.240945" lon="0.0749274"><ele>0.0</ele><time>2026-04-29T17:02:57.05Z</time></trkpt><trkpt lat="38.2410113" lon="0.0749975"><ele>0.0</ele><time>2026-04-29T17:02:58.051Z</time></trkpt><trkpt lat="38.2410809" lon="0.0750619"><ele>0.0</ele><time>2026-04-29T17:02:59.05Z</time></trkpt><trkpt lat="38.241151" lon="0.0751293"><ele>0.0</ele><time>2026-04-29T17:03:00.051Z</time></trkpt><trkpt lat="38.2412252" lon="0.075174"><ele>0.0</ele><time>2026-04-29T17:03:01.051Z</time></trkpt><trkpt lat="38.2412938" lon="0.0752273"><ele>0.0</ele><time>2026-04-29T17:03:02.05Z</time></trkpt><trkpt lat="38.2413606" lon="0.0752836"><ele>0.0</ele><time>2026-04-29T17:03:03.051Z</time></trkpt><trkpt lat="38.241433" lon="0.0753388"><ele>0.0</ele><time>2026-04-29T17:03:04.05Z</time></trkpt><trkpt lat="38.2415727" lon="0.0754448"><ele>0.0</ele><time>2026-04-29T17:03:06.05Z</time></trkpt><trkpt lat="38.2416448" lon="0.0754959"><ele>0.0</ele><time>2026-04-29T17:03:07.05Z</time></trkpt><trkpt lat="38.2417265" lon="0.0755388"><ele>0.0</ele><time>2026-04-29T17:03:08.05Z</time></trkpt><trkpt lat="38.2418024" lon="0.0755929"><ele>0.0</ele><time>2026-04-29T17:03:09.05Z</time></trkpt><trkpt lat="38.2418817" lon="0.0756466"><ele>0.0</ele><time>2026-04-29T17:03:10.051Z</time></trkpt><trkpt lat="38.2419691" lon="0.0756943"><ele>0.0</ele><time>2026-04-29T17:03:11.05Z</time></trkpt><trkpt lat="38.2420475" lon="0.0757544"><ele>0.0</ele><time>2026-04-29T17:03:12.051Z</time></trkpt><trkpt lat="38.2421219" lon="0.0758103"><ele>0.0</ele><time>2026-04-29T17:03:13.051Z</time></trkpt><trkpt lat="38.2421911" lon="0.0758747"><ele>0.0</ele><time>2026-04-29T17:03:14.051Z</time></trkpt><trkpt lat="38.2422649" lon="0.0759328"><ele>0.0</ele><time>2026-04-29T17:03:15.05Z</time></trkpt><trkpt lat="38.2424082" lon="0.0760554"><ele>0.0</ele><time>2026-04-29T17:03:17.051Z</time></trkpt><trkpt lat="38.2424772" lon="0.0761174"><ele>0.0</ele><time>2026-04-29T17:03:18.051Z</time></trkpt><trkpt lat="38.2425564" lon="0.0761607"><ele>0.0</ele><time>2026-04-29T17:03:19.051Z</time></trkpt><trkpt lat="38.2426296" lon="0.0762178"><ele>0.0</ele><time>2026-04-29T17:03:20.05Z</time></trkpt><trkpt lat="38.2427049" lon="0.0762849"><ele>0.0</ele><time>2026-04-29T17:03:21.05Z</time></trkpt><trkpt lat="38.2427844" lon="0.0763335"><ele>0.0</ele><time>2026-04-29T17:03:22.05Z</time></trkpt><trkpt lat="38.242857" lon="0.0763852"><ele>0.0</ele><time>2026-04-29T17:03:23.05Z</time></trkpt><trkpt lat="38.242929" lon="0.0764395"><ele>0.0</ele><time>2026-04-29T17:03:24.05Z</time></trkpt><trkpt lat="38.2429975" lon="0.0764933"><ele>0.0</ele><time>2026-04-29T17:03:25.051Z</time></trkpt><trkpt lat="38.2430669" lon="0.076551"><ele>0.0</ele><time>2026-04-29T17:03:26.05Z</time></trkpt><trkpt lat="38.2431298" lon="0.076621"><ele>0.0</ele><time>2026-04-29T17:03:27.05Z</time></trkpt><trkpt lat="38.2432015" lon="0.0767012"><ele>0.0</ele><time>2026-04-29T17:03:28.05Z</time></trkpt><trkpt lat="38.2432701" lon="0.0767844"><ele>0.0</ele><time>2026-04-29T17:03:29.05Z</time></trkpt><trkpt lat="38.2433317" lon="0.0768691"><ele>0.0</ele><time>2026-04-29T17:03:30.05Z</time></trkpt><trkpt lat="38.2433975" lon="0.076943"><ele>0.0</ele><time>2026-04-29T17:03:31.051Z</time></trkpt><trkpt lat="38.2434685" lon="0.0770004"><ele>0.0</ele><time>2026-04-29T17:03:32.051Z</time></trkpt><trkpt lat="38.2435403" lon="0.0770581"><ele>0.0</ele><time>2026-04-29T17:03:33.05Z</time></trkpt><trkpt lat="38.2436147" lon="0.0771149"><ele>0.0</ele><time>2026-04-29T17:03:34.051Z</time></trkpt><trkpt lat="38.2436826" lon="0.0771746"><ele>0.0</ele><time>2026-04-29T17:03:35.05Z</time></trkpt><trkpt lat="38.2437535" lon="0.0772296"><ele>0.0</ele><time>2026-04-29T17:03:36.05Z</time></trkpt><trkpt lat="38.2439627" lon="0.0774309"><ele>0.0</ele><time>2026-04-29T17:03:39.05Z</time></trkpt><trkpt lat="38.2440405" lon="0.0774918"><ele>0.0</ele><time>2026-04-29T17:03:40.05Z</time></trkpt><trkpt lat="38.2441077" lon="0.0775518"><ele>0.0</ele><time>2026-04-29T17:03:41.05Z</time></trkpt><trkpt lat="38.2441769" lon="0.0776146"><ele>0.0</ele><time>2026-04-29T17:03:42.051Z</time></trkpt><trkpt lat="38.2442467" lon="0.0776791"><ele>0.0</ele><time>2026-04-29T17:03:43.05Z</time></trkpt><trkpt lat="38.244318" lon="0.0777413"><ele>0.0</ele><time>2026-04-29T17:03:44.05Z</time></trkpt><trkpt lat="38.244391" lon="0.0777976"><ele>0.0</ele><time>2026-04-29T17:03:45.051Z</time></trkpt><trkpt lat="38.2444602" lon="0.0778612"><ele>0.0</ele><time>2026-04-29T17:03:46.05Z</time></trkpt><trkpt lat="38.2445302" lon="0.0779169"><ele>0.0</ele><time>2026-04-29T17:03:47.051Z</time></trkpt><trkpt lat="38.2446035" lon="0.0779833"><ele>0.0</ele><time>2026-04-29T17:03:48.05Z</time></trkpt><trkpt lat="38.244673" lon="0.0780519"><ele>0.0</ele><time>2026-04-29T17:03:49.05Z</time></trkpt><trkpt lat="38.2447438" lon="0.0781147"><ele>0.0</ele><time>2026-04-29T17:03:50.05Z</time></trkpt><trkpt lat="38.2448178" lon="0.0781821"><ele>0.0</ele><time>2026-04-29T17:03:51.051Z</time></trkpt><trkpt lat="38.2448884" lon="0.0782504"><ele>0.0</ele><time>2026-04-29T17:03:52.05Z</time></trkpt><trkpt lat="38.2449583" lon="0.0783189"><ele>0.0</ele><time>2026-04-29T17:03:53.05Z</time></trkpt><trkpt lat="38.245031" lon="0.0783733"><ele>0.0</ele><time>2026-04-29T17:03:54.051Z</time></trkpt><trkpt lat="38.2451031" lon="0.0784285"><ele>0.0</ele><time>2026-04-29T17:03:55.051Z</time></trkpt><trkpt lat="38.245175" lon="0.0784866"><ele>0.0</ele><time>2026-04-29T17:03:56.05Z</time></trkpt><trkpt lat="38.2452455" lon="0.0785465"><ele>0.0</ele><time>2026-04-29T17:03:57.05Z</time></trkpt><trkpt lat="38.2453194" lon="0.0786096"><ele>0.0</ele><time>2026-04-29T17:03:58.05Z</time></trkpt><trkpt lat="38.2454566" lon="0.0787327"><ele>0.0</ele><time>2026-04-29T17:04:00.05Z</time></trkpt><trkpt lat="38.2455277" lon="0.0787961"><ele>0.0</ele><time>2026-04-29T17:04:01.05Z</time></trkpt><trkpt lat="38.2456012" lon="0.0788522"><ele>0.0</ele><time>2026-04-29T17:04:02.05Z</time></trkpt><trkpt lat="38.2456746" lon="0.0789084"><ele>0.0</ele><time>2026-04-29T17:04:03.05Z</time></trkpt><trkpt lat="38.245744" lon="0.0789677"><ele>0.0</ele><time>2026-04-29T17:04:04.051Z</time></trkpt><trkpt lat="38.2458091" lon="0.0790321"><ele>0.0</ele><time>2026-04-29T17:04:05.051Z</time></trkpt><trkpt lat="38.2458738" lon="0.0791002"><ele>0.0</ele><time>2026-04-29T17:04:06.051Z</time></trkpt><trkpt lat="38.2459458" lon="0.0791652"><ele>0.0</ele><time>2026-04-29T17:04:07.051Z</time></trkpt><trkpt lat="38.2460178" lon="0.0792281"><ele>0.0</ele><time>2026-04-29T17:04:08.05Z</time></trkpt><trkpt lat="38.2460896" lon="0.0792903"><ele>0.0</ele><time>2026-04-29T17:04:09.05Z</time></trkpt><trkpt lat="38.2461618" lon="0.0793501"><ele>0.0</ele><time>2026-04-29T17:04:10.05Z</time></trkpt><trkpt lat="38.2462364" lon="0.079414"><ele>0.0</ele><time>2026-04-29T17:04:11.05Z</time></trkpt><trkpt lat="38.2463072" lon="0.0794788"><ele>0.0</ele><time>2026-04-29T17:04:12.05Z</time></trkpt><trkpt lat="38.2463802" lon="0.0795379"><ele>0.0</ele><time>2026-04-29T17:04:13.05Z</time></trkpt><trkpt lat="38.2464492" lon="0.0796034"><ele>0.0</ele><time>2026-04-29T17:04:14.051Z</time></trkpt><trkpt lat="38.246513" lon="0.079666"><ele>0.0</ele><time>2026-04-29T17:04:15.05Z</time></trkpt><trkpt lat="38.2465833" lon="0.0797322"><ele>0.0</ele><time>2026-04-29T17:04:16.05Z</time></trkpt><trkpt lat="38.2466476" lon="0.0797976"><ele>0.0</ele><time>2026-04-29T17:04:17.051Z</time></trkpt><trkpt lat="38.2467381" lon="0.0798416"><ele>0.0</ele><time>2026-04-29T17:04:18.051Z</time></trkpt><trkpt lat="38.2468114" lon="0.0799051"><ele>0.0</ele><time>2026-04-29T17:04:19.05Z</time></trkpt><trkpt lat="38.2469475" lon="0.0800332"><ele>0.0</ele><time>2026-04-29T17:04:21.05Z</time></trkpt><trkpt lat="38.2470099" lon="0.0800932"><ele>0.0</ele><time>2026-04-29T17:04:22.051Z</time></trkpt><trkpt lat="38.2470784" lon="0.0801489"><ele>0.0</ele><time>2026-04-29T17:04:23.05Z</time></trkpt><trkpt lat="38.2471556" lon="0.0801889"><ele>0.0</ele><time>2026-04-29T17:04:24.05Z</time></trkpt><trkpt lat="38.2472292" lon="0.0802476"><ele>0.0</ele><time>2026-04-29T17:04:25.05Z</time></trkpt><trkpt lat="38.2472997" lon="0.0803067"><ele>0.0</ele><time>2026-04-29T17:04:26.05Z</time></trkpt><trkpt lat="38.2473696" lon="0.0803635"><ele>0.0</ele><time>2026-04-29T17:04:27.051Z</time></trkpt><trkpt lat="38.2474424" lon="0.080423"><ele>0.0</ele><time>2026-04-29T17:04:28.051Z</time></trkpt><trkpt lat="38.2475133" lon="0.0804785"><ele>0.0</ele><time>2026-04-29T17:04:29.051Z</time></trkpt><trkpt lat="38.2475879" lon="0.0805345"><ele>0.0</ele><time>2026-04-29T17:04:30.051Z</time></trkpt><trkpt lat="38.2476588" lon="0.0805884"><ele>0.0</ele><time>2026-04-29T17:04:31.051Z</time></trkpt><trkpt lat="38.2477345" lon="0.0806421"><ele>0.0</ele><time>2026-04-29T17:04:32.051Z</time></trkpt><trkpt lat="38.2478036" lon="0.0807054"><ele>0.0</ele><time>2026-04-29T17:04:33.051Z</time></trkpt><trkpt lat="38.2478764" lon="0.0807691"><ele>0.0</ele><time>2026-04-29T17:04:34.05Z</time></trkpt><trkpt lat="38.2479481" lon="0.0808345"><ele>0.0</ele><time>2026-04-29T17:04:35.05Z</time></trkpt><trkpt lat="38.2480214" lon="0.0808898"><ele>0.0</ele><time>2026-04-29T17:04:36.05Z</time></trkpt><trkpt lat="38.2480989" lon="0.0809516"><ele>0.0</ele><time>2026-04-29T17:04:37.051Z</time></trkpt><trkpt lat="38.2481729" lon="0.0810129"><ele>0.0</ele><time>2026-04-29T17:04:38.051Z</time></trkpt><trkpt lat="38.2482552" lon="0.0810787"><ele>0.0</ele><time>2026-04-29T17:04:39.05Z</time></trkpt><trkpt lat="38.2483387" lon="0.0811269"><ele>0.0</ele><time>2026-04-29T17:04:40.05Z</time></trkpt><trkpt lat="38.2484234" lon="0.0811637"><ele>0.0</ele><time>2026-04-29T17:04:41.051Z</time></trkpt><trkpt lat="38.2485756" lon="0.0812766"><ele>0.0</ele><time>2026-04-29T17:04:43.05Z</time></trkpt><trkpt lat="38.2486519" lon="0.0813356"><ele>0.0</ele><time>2026-04-29T17:04:44.051Z</time></trkpt><trkpt lat="38.2487238" lon="0.0813974"><ele>0.0</ele><time>2026-04-29T17:04:45.05Z</time></trkpt><trkpt lat="38.2487925" lon="0.0814632"><ele>0.0</ele><time>2026-04-29T17:04:46.05Z</time></trkpt><trkpt lat="38.2488595" lon="0.0815273"><ele>0.0</ele><time>2026-04-29T17:04:47.05Z</time></trkpt><trkpt lat="38.2489347" lon="0.0815891"><ele>0.0</ele><time>2026-04-29T17:04:48.05Z</time></trkpt><trkpt lat="38.2490068" lon="0.0816495"><ele>0.0</ele><time>2026-04-29T17:04:49.05Z</time></trkpt><trkpt lat="38.2490772" lon="0.0817115"><ele>0.0</ele><time>2026-04-29T17:04:50.05Z</time></trkpt><trkpt lat="38.2491497" lon="0.0817676"><ele>0.0</ele><time>2026-04-29T17:04:51.051Z</time></trkpt><trkpt lat="38.249223" lon="0.0818238"><ele>0.0</ele><time>2026-04-29T17:04:52.05Z</time></trkpt><trkpt lat="38.2492952" lon="0.0818818"><ele>0.0</ele><time>2026-04-29T17:04:53.051Z</time></trkpt><trkpt lat="38.2493682" lon="0.0819445"><ele>0.0</ele><time>2026-04-29T17:04:54.051Z</time></trkpt><trkpt lat="38.2494386" lon="0.0820031"><ele>0.0</ele><time>2026-04-29T17:04:55.05Z</time></trkpt><trkpt lat="38.2494984" lon="0.0820664"><ele>0.0</ele><time>2026-04-29T17:04:56.05Z</time></trkpt><trkpt lat="38.2495672" lon="0.0821276"><ele>0.0</ele><time>2026-04-29T17:04:57.05Z</time></trkpt><trkpt lat="38.2496354" lon="0.0821894"><ele>0.0</ele><time>2026-04-29T17:04:58.051Z</time></trkpt><trkpt lat="38.2497053" lon="0.0822513"><ele>0.0</ele><time>2026-04-29T17:04:59.05Z</time></trkpt><trkpt lat="38.2497754" lon="0.0823172"><ele>0.0</ele><time>2026-04-29T17:05:00.05Z</time></trkpt><trkpt lat="38.2498425" lon="0.082378"><ele>0.0</ele><time>2026-04-29T17:05:01.05Z</time></trkpt><trkpt lat="38.2499895" lon="0.0824886"><ele>0.0</ele><time>2026-04-29T17:05:03.051Z</time></trkpt><trkpt lat="38.2500616" lon="0.0825443"><ele>0.0</ele><time>2026-04-29T17:05:04.05Z</time></trkpt><trkpt lat="38.2501346" lon="0.0826035"><ele>0.0</ele><time>2026-04-29T17:05:05.051Z</time></trkpt><trkpt lat="38.2502055" lon="0.0826589"><ele>0.0</ele><time>2026-04-29T17:05:06.05Z</time></trkpt><trkpt lat="38.2502782" lon="0.0827134"><ele>0.0</ele><time>2026-04-29T17:05:07.051Z</time></trkpt><trkpt lat="38.2503441" lon="0.0827726"><ele>0.0</ele><time>2026-04-29T17:05:08.051Z</time></trkpt><trkpt lat="38.2504089" lon="0.0828293"><ele>0.0</ele><time>2026-04-29T17:05:09.05Z</time></trkpt><trkpt lat="38.2504793" lon="0.0828922"><ele>0.0</ele><time>2026-04-29T17:05:10.051Z</time></trkpt><trkpt lat="38.2505469" lon="0.0829576"><ele>0.0</ele><time>2026-04-29T17:05:11.05Z</time></trkpt><trkpt lat="38.2506165" lon="0.0830173"><ele>0.0</ele><time>2026-04-29T17:05:12.05Z</time></trkpt><trkpt lat="38.2506854" lon="0.083078"><ele>0.0</ele><time>2026-04-29T17:05:13.051Z</time></trkpt><trkpt lat="38.2507537" lon="0.0831349"><ele>0.0</ele><time>2026-04-29T17:05:14.051Z</time></trkpt><trkpt lat="38.2508248" lon="0.0831943"><ele>0.0</ele><time>2026-04-29T17:05:15.05Z</time></trkpt><trkpt lat="38.2508922" lon="0.0832529"><ele>0.0</ele><time>2026-04-29T17:05:16.05Z</time></trkpt><trkpt lat="38.2509616" lon="0.0833157"><ele>0.0</ele><time>2026-04-29T17:05:17.05Z</time></trkpt><trkpt lat="38.2510243" lon="0.0833822"><ele>0.0</ele><time>2026-04-29T17:05:18.05Z</time></trkpt><trkpt lat="38.2510961" lon="0.0834461"><ele>0.0</ele><time>2026-04-29T17:05:19.051Z</time></trkpt><trkpt lat="38.2511667" lon="0.0835077"><ele>0.0</ele><time>2026-04-29T17:05:20.051Z</time></trkpt><trkpt lat="38.2512366" lon="0.0835679"><ele>0.0</ele><time>2026-04-29T17:05:21.05Z</time></trkpt><trkpt lat="38.2513123" lon="0.0836311"><ele>0.0</ele><time>2026-04-29T17:05:22.05Z</time></trkpt><trkpt lat="38.2514596" lon="0.0837568"><ele>0.0</ele><time>2026-04-29T17:05:24.051Z</time></trkpt><trkpt lat="38.2515358" lon="0.083814"><ele>0.0</ele><time>2026-04-29T17:05:25.051Z</time></trkpt><trkpt lat="38.2516068" lon="0.0838702"><ele>0.0</ele><time>2026-04-29T17:05:26.05Z</time></trkpt><trkpt lat="38.2516766" lon="0.0839321"><ele>0.0</ele><time>2026-04-29T17:05:27.051Z</time></trkpt><trkpt lat="38.2517467" lon="0.0839957"><ele>0.0</ele><time>2026-04-29T17:05:28.05Z</time></trkpt><trkpt lat="38.2518147" lon="0.0840603"><ele>0.0</ele><time>2026-04-29T17:05:29.05Z</time></trkpt><trkpt lat="38.2518874" lon="0.0841243"><ele>0.0</ele><time>2026-04-29T17:05:30.051Z</time></trkpt><trkpt lat="38.2519695" lon="0.0841792"><ele>0.0</ele><time>2026-04-29T17:05:31.051Z</time></trkpt><trkpt lat="38.2520385" lon="0.0842466"><ele>0.0</ele><time>2026-04-29T17:05:32.05Z</time></trkpt><trkpt lat="38.2521112" lon="0.084308"><ele>0.0</ele><time>2026-04-29T17:05:33.051Z</time></trkpt><trkpt lat="38.2521875" lon="0.0843594"><ele>0.0</ele><time>2026-04-29T17:05:34.05Z</time></trkpt><trkpt lat="38.2522572" lon="0.0844181"><ele>0.0</ele><time>2026-04-29T17:05:35.051Z</time></trkpt><trkpt lat="38.2523285" lon="0.0844794"><ele>0.0</ele><time>2026-04-29T17:05:36.05Z</time></trkpt><trkpt lat="38.2524023" lon="0.0845457"><ele>0.0</ele><time>2026-04-29T17:05:37.05Z</time></trkpt><trkpt lat="38.2524759" lon="0.0846093"><ele>0.0</ele><time>2026-04-29T17:05:38.051Z</time></trkpt><trkpt lat="38.2525512" lon="0.0846671"><ele>0.0</ele><time>2026-04-29T17:05:39.05Z</time></trkpt><trkpt lat="38.2526319" lon="0.0847151"><ele>0.0</ele><time>2026-04-29T17:05:40.05Z</time></trkpt><trkpt lat="38.2527065" lon="0.0847745"><ele>0.0</ele><time>2026-04-29T17:05:41.051Z</time></trkpt><trkpt lat="38.2527843" lon="0.0848305"><ele>0.0</ele><time>2026-04-29T17:05:42.051Z</time></trkpt><trkpt lat="38.2528669" lon="0.0848812"><ele>0.0</ele><time>2026-04-29T17:05:43.05Z</time></trkpt><trkpt lat="38.2530116" lon="0.0850049"><ele>0.0</ele><time>2026-04-29T17:05:45.051Z</time></trkpt><trkpt lat="38.2530876" lon="0.0850592"><ele>0.0</ele><time>2026-04-29T17:05:46.05Z</time></trkpt><trkpt lat="38.2531616" lon="0.0851155"><ele>0.0</ele><time>2026-04-29T17:05:47.05Z</time></trkpt><trkpt lat="38.2532348" lon="0.0851711"><ele>0.0</ele><time>2026-04-29T17:05:48.05Z</time></trkpt><trkpt lat="38.2533097" lon="0.0852285"><ele>0.0</ele><time>2026-04-29T17:05:49.05Z</time></trkpt><trkpt lat="38.2533831" lon="0.0852854"><ele>0.0</ele><time>2026-04-29T17:05:50.05Z</time></trkpt><trkpt lat="38.2534539" lon="0.0853418"><ele>0.0</ele><time>2026-04-29T17:05:51.051Z</time></trkpt><trkpt lat="38.2535268" lon="0.0853869"><ele>0.0</ele><time>2026-04-29T17:05:52.05Z</time></trkpt><trkpt lat="38.2535972" lon="0.0854413"><ele>0.0</ele><time>2026-04-29T17:05:53.051Z</time></trkpt><trkpt lat="38.2536684" lon="0.0854954"><ele>0.0</ele><time>2026-04-29T17:05:54.05Z</time></trkpt><trkpt lat="38.2537387" lon="0.0855558"><ele>0.0</ele><time>2026-04-29T17:05:55.05Z</time></trkpt><trkpt lat="38.253813" lon="0.085612"><ele>0.0</ele><time>2026-04-29T17:05:56.05Z</time></trkpt><trkpt lat="38.2538839" lon="0.0856713"><ele>0.0</ele><time>2026-04-29T17:05:57.05Z</time></trkpt><trkpt lat="38.2539526" lon="0.0857314"><ele>0.0</ele><time>2026-04-29T17:05:58.051Z</time></trkpt><trkpt lat="38.2540177" lon="0.08579"><ele>0.0</ele><time>2026-04-29T17:05:59.05Z</time></trkpt><trkpt lat="38.2540867" lon="0.0858468"><ele>0.0</ele><time>2026-04-29T17:06:00.05Z</time></trkpt><trkpt lat="38.2541611" lon="0.0858994"><ele>0.0</ele><time>2026-04-29T17:06:01.05Z</time></trkpt><trkpt lat="38.2542362" lon="0.0859568"><ele>0.0</ele><time>2026-04-29T17:06:02.051Z</time></trkpt><trkpt lat="38.2543086" lon="0.0860123"><ele>0.0</ele><time>2026-04-29T17:06:03.05Z</time></trkpt><trkpt lat="38.2543898" lon="0.0860553"><ele>0.0</ele><time>2026-04-29T17:06:04.05Z</time></trkpt><trkpt lat="38.2544666" lon="0.0861096"><ele>0.0</ele><time>2026-04-29T17:06:05.05Z</time></trkpt><trkpt lat="38.2545399" lon="0.0861675"><ele>0.0</ele><time>2026-04-29T17:06:06.05Z</time></trkpt><trkpt lat="38.2546855" lon="0.0862746"><ele>0.0</ele><time>2026-04-29T17:06:08.05Z</time></trkpt><trkpt lat="38.2547523" lon="0.0863365"><ele>0.0</ele><time>2026-04-29T17:06:09.05Z</time></trkpt><trkpt lat="38.2548218" lon="0.0863977"><ele>0.0</ele><time>2026-04-29T17:06:10.05Z</time></trkpt><trkpt lat="38.2548931" lon="0.0864607"><ele>0.0</ele><time>2026-04-29T17:06:11.051Z</time></trkpt><trkpt lat="38.2549666" lon="0.0865226"><ele>0.0</ele><time>2026-04-29T17:06:12.05Z</time></trkpt><trkpt lat="38.2550355" lon="0.0865853"><ele>0.0</ele><time>2026-04-29T17:06:13.05Z</time></trkpt><trkpt lat="38.2551098" lon="0.0866487"><ele>0.0</ele><time>2026-04-29T17:06:14.051Z</time></trkpt><trkpt lat="38.2551832" lon="0.0867126"><ele>0.0</ele><time>2026-04-29T17:06:15.05Z</time></trkpt><trkpt lat="38.2552577" lon="0.0867747"><ele>0.0</ele><time>2026-04-29T17:06:16.05Z</time></trkpt><trkpt lat="38.2553272" lon="0.0868335"><ele>0.0</ele><time>2026-04-29T17:06:17.051Z</time></trkpt><trkpt lat="38.2553979" lon="0.0868915"><ele>0.0</ele><time>2026-04-29T17:06:18.05Z</time></trkpt><trkpt lat="38.2554713" lon="0.0869543"><ele>0.0</ele><time>2026-04-29T17:06:19.05Z</time></trkpt><trkpt lat="38.2555418" lon="0.0870189"><ele>0.0</ele><time>2026-04-29T17:06:20.05Z</time></trkpt><trkpt lat="38.2556152" lon="0.0870811"><ele>0.0</ele><time>2026-04-29T17:06:21.05Z</time></trkpt><trkpt lat="38.2556816" lon="0.087144"><ele>0.0</ele><time>2026-04-29T17:06:22.05Z</time></trkpt><trkpt lat="38.2557478" lon="0.0872062"><ele>0.0</ele><time>2026-04-29T17:06:23.051Z</time></trkpt><trkpt lat="38.2558124" lon="0.0872717"><ele>0.0</ele><time>2026-04-29T17:06:24.051Z</time></trkpt><trkpt lat="38.2558816" lon="0.0873335"><ele>0.0</ele><time>2026-04-29T17:06:25.051Z</time></trkpt><trkpt lat="38.2559518" lon="0.0873949"><ele>0.0</ele><time>2026-04-29T17:06:26.05Z</time></trkpt><trkpt lat="38.2560175" lon="0.0874565"><ele>0.0</ele><time>2026-04-29T17:06:27.051Z</time></trkpt><trkpt lat="38.2561551" lon="0.0875929"><ele>0.0</ele><time>2026-04-29T17:06:29.051Z</time></trkpt><trkpt lat="38.2562238" lon="0.0876609"><ele>0.0</ele><time>2026-04-29T17:06:30.051Z</time></trkpt><trkpt lat="38.2562934" lon="0.0877255"><ele>0.0</ele><time>2026-04-29T17:06:31.05Z</time></trkpt><trkpt lat="38.2563606" lon="0.0877873"><ele>0.0</ele><time>2026-04-29T17:06:32.05Z</time></trkpt><trkpt lat="38.2564342" lon="0.0878467"><ele>0.0</ele><time>2026-04-29T17:06:33.05Z</time></trkpt><trkpt lat="38.2565093" lon="0.08791"><ele>0.0</ele><time>2026-04-29T17:06:34.051Z</time></trkpt><trkpt lat="38.2565818" lon="0.087974"><ele>0.0</ele><time>2026-04-29T17:06:35.051Z</time></trkpt><trkpt lat="38.256652" lon="0.0880365"><ele>0.0</ele><time>2026-04-29T17:06:36.051Z</time></trkpt><trkpt lat="38.256722" lon="0.0880979"><ele>0.0</ele><time>2026-04-29T17:06:37.05Z</time></trkpt><trkpt lat="38.2567921" lon="0.0881579"><ele>0.0</ele><time>2026-04-29T17:06:38.051Z</time></trkpt><trkpt lat="38.2568639" lon="0.0882197"><ele>0.0</ele><time>2026-04-29T17:06:39.051Z</time></trkpt><trkpt lat="38.2569311" lon="0.0882758"><ele>0.0</ele><time>2026-04-29T17:06:40.051Z</time></trkpt><trkpt lat="38.2570002" lon="0.0883292"><ele>0.0</ele><time>2026-04-29T17:06:41.05Z</time></trkpt><trkpt lat="38.2570657" lon="0.0883849"><ele>0.0</ele><time>2026-04-29T17:06:42.049Z</time></trkpt><trkpt lat="38.2571306" lon="0.0884472"><ele>0.0</ele><time>2026-04-29T17:06:43.049Z</time></trkpt><trkpt lat="38.2571996" lon="0.0885119"><ele>0.0</ele><time>2026-04-29T17:06:44.049Z</time></trkpt><trkpt lat="38.2572669" lon="0.0885732"><ele>0.0</ele><time>2026-04-29T17:06:45.05Z</time></trkpt><trkpt lat="38.2573338" lon="0.0886267"><ele>0.0</ele><time>2026-04-29T17:06:46.05Z</time></trkpt><trkpt lat="38.2574044" lon="0.0886808"><ele>0.0</ele><time>2026-04-29T17:06:47.049Z</time></trkpt><trkpt lat="38.2574762" lon="0.0887348"><ele>0.0</ele><time>2026-04-29T17:06:48.049Z</time></trkpt><trkpt lat="38.2575479" lon="0.088788"><ele>0.0</ele><time>2026-04-29T17:06:49.049Z</time></trkpt><trkpt lat="38.2576995" lon="0.0889061"><ele>0.0</ele><time>2026-04-29T17:06:51.05Z</time></trkpt><trkpt lat="38.257773" lon="0.0889647"><ele>0.0</ele><time>2026-04-29T17:06:52.05Z</time></trkpt><trkpt lat="38.2578505" lon="0.0890244"><ele>0.0</ele><time>2026-04-29T17:06:53.05Z</time></trkpt><trkpt lat="38.2579235" lon="0.0890848"><ele>0.0</ele><time>2026-04-29T17:06:54.05Z</time></trkpt><trkpt lat="38.2579979" lon="0.0891499"><ele>0.0</ele><time>2026-04-29T17:06:55.05Z</time></trkpt><trkpt lat="38.258069" lon="0.0892142"><ele>0.0</ele><time>2026-04-29T17:06:56.049Z</time></trkpt><trkpt lat="38.2581404" lon="0.0892789"><ele>0.0</ele><time>2026-04-29T17:06:57.05Z</time></trkpt><trkpt lat="38.2582162" lon="0.0893413"><ele>0.0</ele><time>2026-04-29T17:06:58.049Z</time></trkpt><trkpt lat="38.2582914" lon="0.0894031"><ele>0.0</ele><time>2026-04-29T17:06:59.049Z</time></trkpt><trkpt lat="38.2583607" lon="0.089462"><ele>0.0</ele><time>2026-04-29T17:07:00.049Z</time></trkpt><trkpt lat="38.2584342" lon="0.0895213"><ele>0.0</ele><time>2026-04-29T17:07:01.049Z</time></trkpt><trkpt lat="38.2585049" lon="0.0895887"><ele>0.0</ele><time>2026-04-29T17:07:02.05Z</time></trkpt><trkpt lat="38.2585784" lon="0.0896613"><ele>0.0</ele><time>2026-04-29T17:07:03.049Z</time></trkpt><trkpt lat="38.2586507" lon="0.0897234"><ele>0.0</ele><time>2026-04-29T17:07:04.049Z</time></trkpt><trkpt lat="38.258725" lon="0.0897807"><ele>0.0</ele><time>2026-04-29T17:07:05.05Z</time></trkpt><trkpt lat="38.2587957" lon="0.0898404"><ele>0.0</ele><time>2026-04-29T17:07:06.049Z</time></trkpt><trkpt lat="38.2588611" lon="0.089903"><ele>0.0</ele><time>2026-04-29T17:07:07.05Z</time></trkpt><trkpt lat="38.2589329" lon="0.0899619"><ele>0.0</ele><time>2026-04-29T17:07:08.05Z</time></trkpt><trkpt lat="38.2590047" lon="0.0900237"><ele>0.0</ele><time>2026-04-29T17:07:09.05Z</time></trkpt><trkpt lat="38.2590762" lon="0.0900846"><ele>0.0</ele><time>2026-04-29T17:07:10.049Z</time></trkpt><trkpt lat="38.2592199" lon="0.090208"><ele>0.0</ele><time>2026-04-29T17:07:12.05Z</time></trkpt><trkpt lat="38.2592892" lon="0.0902741"><ele>0.0</ele><time>2026-04-29T17:07:13.049Z</time></trkpt><trkpt lat="38.2593602" lon="0.0903337"><ele>0.0</ele><time>2026-04-29T17:07:14.05Z</time></trkpt><trkpt lat="38.2594316" lon="0.0903903"><ele>0.0</ele><time>2026-04-29T17:07:15.049Z</time></trkpt><trkpt lat="38.2595033" lon="0.0904497"><ele>0.0</ele><time>2026-04-29T17:07:16.049Z</time></trkpt><trkpt lat="38.2595763" lon="0.0905115"><ele>0.0</ele><time>2026-04-29T17:07:17.05Z</time></trkpt><trkpt lat="38.259647" lon="0.0905706"><ele>0.0</ele><time>2026-04-29T17:07:18.049Z</time></trkpt><trkpt lat="38.2597181" lon="0.0906287"><ele>0.0</ele><time>2026-04-29T17:07:19.049Z</time></trkpt><trkpt lat="38.2597902" lon="0.0906868"><ele>0.0</ele><time>2026-04-29T17:07:20.05Z</time></trkpt><trkpt lat="38.2598616" lon="0.0907422"><ele>0.0</ele><time>2026-04-29T17:07:21.049Z</time></trkpt><trkpt lat="38.2599348" lon="0.0907946"><ele>0.0</ele><time>2026-04-29T17:07:22.049Z</time></trkpt><trkpt lat="38.2600079" lon="0.090853"><ele>0.0</ele><time>2026-04-29T17:07:23.049Z</time></trkpt><trkpt lat="38.2600913" lon="0.0908963"><ele>0.0</ele><time>2026-04-29T17:07:24.049Z</time></trkpt><trkpt lat="38.260162" lon="0.0909566"><ele>0.0</ele><time>2026-04-29T17:07:25.05Z</time></trkpt><trkpt lat="38.2602304" lon="0.0910199"><ele>0.0</ele><time>2026-04-29T17:07:26.049Z</time></trkpt><trkpt lat="38.2602992" lon="0.0910858"><ele>0.0</ele><time>2026-04-29T17:07:27.049Z</time></trkpt><trkpt lat="38.2603674" lon="0.0911532"><ele>0.0</ele><time>2026-04-29T17:07:28.05Z</time></trkpt><trkpt lat="38.2604372" lon="0.0912108"><ele>0.0</ele><time>2026-04-29T17:07:29.05Z</time></trkpt><trkpt lat="38.2605085" lon="0.0912716"><ele>0.0</ele><time>2026-04-29T17:07:30.049Z</time></trkpt><trkpt lat="38.2605817" lon="0.0913306"><ele>0.0</ele><time>2026-04-29T17:07:31.05Z</time></trkpt><trkpt lat="38.2607182" lon="0.0914445"><ele>0.0</ele><time>2026-04-29T17:07:33.049Z</time></trkpt><trkpt lat="38.260787" lon="0.0915009"><ele>0.0</ele><time>2026-04-29T17:07:34.05Z</time></trkpt><trkpt lat="38.2608539" lon="0.0915638"><ele>0.0</ele><time>2026-04-29T17:07:35.049Z</time></trkpt><trkpt lat="38.2609236" lon="0.0916303"><ele>0.0</ele><time>2026-04-29T17:07:36.049Z</time></trkpt><trkpt lat="38.2609965" lon="0.0916931"><ele>0.0</ele><time>2026-04-29T17:07:37.049Z</time></trkpt><trkpt lat="38.261071" lon="0.0917563"><ele>0.0</ele><time>2026-04-29T17:07:38.05Z</time></trkpt><trkpt lat="38.2611387" lon="0.0918144"><ele>0.0</ele><time>2026-04-29T17:07:39.049Z</time></trkpt><trkpt lat="38.2612126" lon="0.0918746"><ele>0.0</ele><time>2026-04-29T17:07:40.05Z</time></trkpt><trkpt lat="38.2612865" lon="0.0919318"><ele>0.0</ele><time>2026-04-29T17:07:41.049Z</time></trkpt><trkpt lat="38.2613599" lon="0.0919925"><ele>0.0</ele><time>2026-04-29T17:07:42.049Z</time></trkpt><trkpt lat="38.2614305" lon="0.0920533"><ele>0.0</ele><time>2026-04-29T17:07:43.05Z</time></trkpt><trkpt lat="38.2615019" lon="0.0921062"><ele>0.0</ele><time>2026-04-29T17:07:44.05Z</time></trkpt><trkpt lat="38.2615735" lon="0.092166"><ele>0.0</ele><time>2026-04-29T17:07:45.05Z</time></trkpt><trkpt lat="38.261645" lon="0.092225"><ele>0.0</ele><time>2026-04-29T17:07:46.05Z</time></trkpt><trkpt lat="38.2617165" lon="0.0922893"><ele>0.0</ele><time>2026-04-29T17:07:47.05Z</time></trkpt><trkpt lat="38.2617869" lon="0.0923547"><ele>0.0</ele><time>2026-04-29T17:07:48.049Z</time></trkpt><trkpt lat="38.2618582" lon="0.0924151"><ele>0.0</ele><time>2026-04-29T17:07:49.049Z</time></trkpt><trkpt lat="38.2619259" lon="0.0924779"><ele>0.0</ele><time>2026-04-29T17:07:50.049Z</time></trkpt><trkpt lat="38.2619968" lon="0.0925384"><ele>0.0</ele><time>2026-04-29T17:07:51.049Z</time></trkpt><trkpt lat="38.2620698" lon="0.0925986"><ele>0.0</ele><time>2026-04-29T17:07:52.049Z</time></trkpt><trkpt lat="38.262295" lon="0.0927745"><ele>0.0</ele><time>2026-04-29T17:07:55.05Z</time></trkpt><trkpt lat="38.2623666" lon="0.0928365"><ele>0.0</ele><time>2026-04-29T17:07:56.049Z</time></trkpt><trkpt lat="38.2624379" lon="0.0928993"><ele>0.0</ele><time>2026-04-29T17:07:57.05Z</time></trkpt><trkpt lat="38.2625127" lon="0.09297"><ele>0.0</ele><time>2026-04-29T17:07:58.05Z</time></trkpt><trkpt lat="38.262581" lon="0.0930402"><ele>0.0</ele><time>2026-04-29T17:07:59.049Z</time></trkpt><trkpt lat="38.2626533" lon="0.0931103"><ele>0.0</ele><time>2026-04-29T17:08:00.049Z</time></trkpt><trkpt lat="38.2627213" lon="0.0931761"><ele>0.0</ele><time>2026-04-29T17:08:01.05Z</time></trkpt><trkpt lat="38.2627904" lon="0.0932378"><ele>0.0</ele><time>2026-04-29T17:08:02.049Z</time></trkpt><trkpt lat="38.2628616" lon="0.0932921"><ele>0.0</ele><time>2026-04-29T17:08:03.049Z</time></trkpt><trkpt lat="38.262937" lon="0.0933466"><ele>0.0</ele><time>2026-04-29T17:08:04.05Z</time></trkpt><trkpt lat="38.263014" lon="0.0934045"><ele>0.0</ele><time>2026-04-29T17:08:05.05Z</time></trkpt><trkpt lat="38.2630864" lon="0.0934646"><ele>0.0</ele><time>2026-04-29T17:08:06.05Z</time></trkpt><trkpt lat="38.263155" lon="0.0935226"><ele>0.0</ele><time>2026-04-29T17:08:07.049Z</time></trkpt><trkpt lat="38.263228" lon="0.0935796"><ele>0.0</ele><time>2026-04-29T17:08:08.05Z</time></trkpt><trkpt lat="38.2632999" lon="0.0936385"><ele>0.0</ele><time>2026-04-29T17:08:09.05Z</time></trkpt><trkpt lat="38.2633704" lon="0.0936998"><ele>0.0</ele><time>2026-04-29T17:08:10.05Z</time></trkpt><trkpt lat="38.2634448" lon="0.0937594"><ele>0.0</ele><time>2026-04-29T17:08:11.05Z</time></trkpt><trkpt lat="38.2635167" lon="0.0938213"><ele>0.0</ele><time>2026-04-29T17:08:12.049Z</time></trkpt><trkpt lat="38.2635897" lon="0.0938818"><ele>0.0</ele><time>2026-04-29T17:08:13.049Z</time></trkpt><trkpt lat="38.2637313" lon="0.0940101"><ele>0.0</ele><time>2026-04-29T17:08:15.049Z</time></trkpt><trkpt lat="38.2638001" lon="0.0940696"><ele>0.0</ele><time>2026-04-29T17:08:16.049Z</time></trkpt><trkpt lat="38.2638713" lon="0.0941267"><ele>0.0</ele><time>2026-04-29T17:08:17.049Z</time></trkpt><trkpt lat="38.2639428" lon="0.0941827"><ele>0.0</ele><time>2026-04-29T17:08:18.05Z</time></trkpt><trkpt lat="38.2640206" lon="0.0942439"><ele>0.0</ele><time>2026-04-29T17:08:19.05Z</time></trkpt><trkpt lat="38.2640979" lon="0.0943094"><ele>0.0</ele><time>2026-04-29T17:08:20.049Z</time></trkpt><trkpt lat="38.2641701" lon="0.0943721"><ele>0.0</ele><time>2026-04-29T17:08:21.05Z</time></trkpt><trkpt lat="38.264249" lon="0.0944322"><ele>0.0</ele><time>2026-04-29T17:08:22.049Z</time></trkpt><trkpt lat="38.2643221" lon="0.0944883"><ele>0.0</ele><time>2026-04-29T17:08:23.05Z</time></trkpt><trkpt lat="38.2643936" lon="0.0945399"><ele>0.0</ele><time>2026-04-29T17:08:24.049Z</time></trkpt><trkpt lat="38.2645387" lon="0.0946534"><ele>0.0</ele><time>2026-04-29T17:08:26.049Z</time></trkpt><trkpt lat="38.264612" lon="0.0947147"><ele>0.0</ele><time>2026-04-29T17:08:27.049Z</time></trkpt><trkpt lat="38.2646883" lon="0.0947736"><ele>0.0</ele><time>2026-04-29T17:08:28.05Z</time></trkpt><trkpt lat="38.2647607" lon="0.0948332"><ele>0.0</ele><time>2026-04-29T17:08:29.05Z</time></trkpt><trkpt lat="38.264829" lon="0.0948901"><ele>0.0</ele><time>2026-04-29T17:08:30.049Z</time></trkpt><trkpt lat="38.2648997" lon="0.0949467"><ele>0.0</ele><time>2026-04-29T17:08:31.049Z</time></trkpt><trkpt lat="38.2649686" lon="0.0950061"><ele>0.0</ele><time>2026-04-29T17:08:32.049Z</time></trkpt><trkpt lat="38.2650386" lon="0.0950633"><ele>0.0</ele><time>2026-04-29T17:08:33.05Z</time></trkpt><trkpt lat="38.2651128" lon="0.095126"><ele>0.0</ele><time>2026-04-29T17:08:34.049Z</time></trkpt><trkpt lat="38.2652648" lon="0.0952496"><ele>0.0</ele><time>2026-04-29T17:08:36.049Z</time></trkpt><trkpt lat="38.26534" lon="0.0953145"><ele>0.0</ele><time>2026-04-29T17:08:37.05Z</time></trkpt><trkpt lat="38.2654095" lon="0.0953782"><ele>0.0</ele><time>2026-04-29T17:08:38.05Z</time></trkpt><trkpt lat="38.2654821" lon="0.0954368"><ele>0.0</ele><time>2026-04-29T17:08:39.049Z</time></trkpt><trkpt lat="38.2655538" lon="0.0954952"><ele>0.0</ele><time>2026-04-29T17:08:40.049Z</time></trkpt><trkpt lat="38.2656238" lon="0.0955533"><ele>0.0</ele><time>2026-04-29T17:08:41.05Z</time></trkpt><trkpt lat="38.2656935" lon="0.0956103"><ele>0.0</ele><time>2026-04-29T17:08:42.049Z</time></trkpt><trkpt lat="38.2657635" lon="0.0956698"><ele>0.0</ele><time>2026-04-29T17:08:43.049Z</time></trkpt><trkpt lat="38.2658364" lon="0.0957281"><ele>0.0</ele><time>2026-04-29T17:08:44.049Z</time></trkpt><trkpt lat="38.2659081" lon="0.0957937"><ele>0.0</ele><time>2026-04-29T17:08:45.049Z</time></trkpt><trkpt lat="38.2659784" lon="0.0958535"><ele>0.0</ele><time>2026-04-29T17:08:46.05Z</time></trkpt><trkpt lat="38.2660526" lon="0.0959142"><ele>0.0</ele><time>2026-04-29T17:08:47.049Z</time></trkpt><trkpt lat="38.2661269" lon="0.0959749"><ele>0.0</ele><time>2026-04-29T17:08:48.049Z</time></trkpt><trkpt lat="38.2662017" lon="0.0960374"><ele>0.0</ele><time>2026-04-29T17:08:49.049Z</time></trkpt><trkpt lat="38.2662696" lon="0.0961038"><ele>0.0</ele><time>2026-04-29T17:08:50.049Z</time></trkpt><trkpt lat="38.2663372" lon="0.096166"><ele>0.0</ele><time>2026-04-29T17:08:51.049Z</time></trkpt><trkpt lat="38.2664093" lon="0.0962252"><ele>0.0</ele><time>2026-04-29T17:08:52.05Z</time></trkpt><trkpt lat="38.26648" lon="0.0962852"><ele>0.0</ele><time>2026-04-29T17:08:53.049Z</time></trkpt><trkpt lat="38.2665514" lon="0.0963408"><ele>0.0</ele><time>2026-04-29T17:08:54.049Z</time></trkpt><trkpt lat="38.2666229" lon="0.0964011"><ele>0.0</ele><time>2026-04-29T17:08:55.049Z</time></trkpt><trkpt lat="38.2666934" lon="0.0964673"><ele>0.0</ele><time>2026-04-29T17:08:56.049Z</time></trkpt><trkpt lat="38.2668276" lon="0.0965933"><ele>0.0</ele><time>2026-04-29T17:08:58.05Z</time></trkpt><trkpt lat="38.2668955" lon="0.0966563"><ele>0.0</ele><time>2026-04-29T17:08:59.049Z</time></trkpt><trkpt lat="38.266968" lon="0.0967182"><ele>0.0</ele><time>2026-04-29T17:09:00.049Z</time></trkpt><trkpt lat="38.2670384" lon="0.0967784"><ele>0.0</ele><time>2026-04-29T17:09:01.049Z</time></trkpt><trkpt lat="38.267114" lon="0.0968299"><ele>0.0</ele><time>2026-04-29T17:09:02.049Z</time></trkpt><trkpt lat="38.2671863" lon="0.096888"><ele>0.0</ele><time>2026-04-29T17:09:03.049Z</time></trkpt><trkpt lat="38.2672595" lon="0.0969483"><ele>0.0</ele><time>2026-04-29T17:09:04.05Z</time></trkpt><trkpt lat="38.2673284" lon="0.0970115"><ele>0.0</ele><time>2026-04-29T17:09:05.049Z</time></trkpt><trkpt lat="38.2673964" lon="0.0970728"><ele>0.0</ele><time>2026-04-29T17:09:06.049Z</time></trkpt><trkpt lat="38.2674677" lon="0.0971358"><ele>0.0</ele><time>2026-04-29T17:09:07.05Z</time></trkpt><trkpt lat="38.2675371" lon="0.0971982"><ele>0.0</ele><time>2026-04-29T17:09:08.049Z</time></trkpt><trkpt lat="38.2676068" lon="0.0972609"><ele>0.0</ele><time>2026-04-29T17:09:09.049Z</time></trkpt><trkpt lat="38.2676825" lon="0.0973196"><ele>0.0</ele><time>2026-04-29T17:09:10.049Z</time></trkpt><trkpt lat="38.267758" lon="0.0973752"><ele>0.0</ele><time>2026-04-29T17:09:11.049Z</time></trkpt><trkpt lat="38.2678274" lon="0.0974384"><ele>0.0</ele><time>2026-04-29T17:09:12.049Z</time></trkpt><trkpt lat="38.2678928" lon="0.0975035"><ele>0.0</ele><time>2026-04-29T17:09:13.05Z</time></trkpt><trkpt lat="38.2679635" lon="0.0975643"><ele>0.0</ele><time>2026-04-29T17:09:14.049Z</time></trkpt><trkpt lat="38.2680367" lon="0.0976229"><ele>0.0</ele><time>2026-04-29T17:09:15.05Z</time></trkpt><trkpt lat="38.2681054" lon="0.0976784"><ele>0.0</ele><time>2026-04-29T17:09:16.05Z</time></trkpt><trkpt lat="38.2681693" lon="0.0977382"><ele>0.0</ele><time>2026-04-29T17:09:17.05Z</time></trkpt><trkpt lat="38.2682395" lon="0.0978032"><ele>0.0</ele><time>2026-04-29T17:09:18.049Z</time></trkpt><trkpt lat="38.2683839" lon="0.0979341"><ele>0.0</ele><time>2026-04-29T17:09:20.049Z</time></trkpt><trkpt lat="38.2684509" lon="0.0979944"><ele>0.0</ele><time>2026-04-29T17:09:21.049Z</time></trkpt><trkpt lat="38.2685187" lon="0.0980539"><ele>0.0</ele><time>2026-04-29T17:09:22.049Z</time></trkpt><trkpt lat="38.2685913" lon="0.0981124"><ele>0.0</ele><time>2026-04-29T17:09:23.05Z</time></trkpt><trkpt lat="38.2686683" lon="0.0981681"><ele>0.0</ele><time>2026-04-29T17:09:24.05Z</time></trkpt><trkpt lat="38.2687417" lon="0.098226"><ele>0.0</ele><time>2026-04-29T17:09:25.05Z</time></trkpt><trkpt lat="38.268815" lon="0.0982845"><ele>0.0</ele><time>2026-04-29T17:09:26.049Z</time></trkpt><trkpt lat="38.2688914" lon="0.0983445"><ele>0.0</ele><time>2026-04-29T17:09:27.05Z</time></trkpt><trkpt lat="38.2689634" lon="0.0984045"><ele>0.0</ele><time>2026-04-29T17:09:28.05Z</time></trkpt><trkpt lat="38.2690363" lon="0.0984632"><ele>0.0</ele><time>2026-04-29T17:09:29.05Z</time></trkpt><trkpt lat="38.2691116" lon="0.098524"><ele>0.0</ele><time>2026-04-29T17:09:30.049Z</time></trkpt><trkpt lat="38.2691836" lon="0.09858"><ele>0.0</ele><time>2026-04-29T17:09:31.049Z</time></trkpt><trkpt lat="38.2692578" lon="0.0986352"><ele>0.0</ele><time>2026-04-29T17:09:32.049Z</time></trkpt><trkpt lat="38.2693288" lon="0.0986928"><ele>0.0</ele><time>2026-04-29T17:09:33.049Z</time></trkpt><trkpt lat="38.2694031" lon="0.0987537"><ele>0.0</ele><time>2026-04-29T17:09:34.049Z</time></trkpt><trkpt lat="38.2694751" lon="0.0988159"><ele>0.0</ele><time>2026-04-29T17:09:35.049Z</time></trkpt><trkpt lat="38.2695467" lon="0.0988746"><ele>0.0</ele><time>2026-04-29T17:09:36.05Z</time></trkpt><trkpt lat="38.269617" lon="0.0989373"><ele>0.0</ele><time>2026-04-29T17:09:37.049Z</time></trkpt><trkpt lat="38.2696873" lon="0.0990022"><ele>0.0</ele><time>2026-04-29T17:09:38.05Z</time></trkpt><trkpt lat="38.2697607" lon="0.0990634"><ele>0.0</ele><time>2026-04-29T17:09:39.049Z</time></trkpt><trkpt lat="38.2698996" lon="0.099183"><ele>0.0</ele><time>2026-04-29T17:09:41.049Z</time></trkpt><trkpt lat="38.2699722" lon="0.0992404"><ele>0.0</ele><time>2026-04-29T17:09:42.049Z</time></trkpt><trkpt lat="38.2700518" lon="0.0992871"><ele>0.0</ele><time>2026-04-29T17:09:43.05Z</time></trkpt><trkpt lat="38.2701221" lon="0.099345"><ele>0.0</ele><time>2026-04-29T17:09:44.049Z</time></trkpt><trkpt lat="38.2701919" lon="0.0994062"><ele>0.0</ele><time>2026-04-29T17:09:45.05Z</time></trkpt><trkpt lat="38.2702562" lon="0.0994678"><ele>0.0</ele><time>2026-04-29T17:09:46.049Z</time></trkpt><trkpt lat="38.2703235" lon="0.0995237"><ele>0.0</ele><time>2026-04-29T17:09:47.049Z</time></trkpt><trkpt lat="38.2703952" lon="0.0995782"><ele>0.0</ele><time>2026-04-29T17:09:48.049Z</time></trkpt><trkpt lat="38.2704699" lon="0.0996329"><ele>0.0</ele><time>2026-04-29T17:09:49.05Z</time></trkpt><trkpt lat="38.2705449" lon="0.0996908"><ele>0.0</ele><time>2026-04-29T17:09:50.049Z</time></trkpt><trkpt lat="38.2706171" lon="0.0997511"><ele>0.0</ele><time>2026-04-29T17:09:51.049Z</time></trkpt><trkpt lat="38.2706857" lon="0.0998126"><ele>0.0</ele><time>2026-04-29T17:09:52.049Z</time></trkpt><trkpt lat="38.2707566" lon="0.0998715"><ele>0.0</ele><time>2026-04-29T17:09:53.049Z</time></trkpt><trkpt lat="38.2708266" lon="0.0999352"><ele>0.0</ele><time>2026-04-29T17:09:54.05Z</time></trkpt><trkpt lat="38.2708999" lon="0.0999978"><ele>0.0</ele><time>2026-04-29T17:09:55.049Z</time></trkpt><trkpt lat="38.2709763" lon="0.1000581"><ele>0.0</ele><time>2026-04-29T17:09:56.05Z</time></trkpt><trkpt lat="38.2710476" lon="0.1001167"><ele>0.0</ele><time>2026-04-29T17:09:57.049Z</time></trkpt><trkpt lat="38.2711229" lon="0.1001761"><ele>0.0</ele><time>2026-04-29T17:09:58.049Z</time></trkpt><trkpt lat="38.2711972" lon="0.1002379"><ele>0.0</ele><time>2026-04-29T17:09:59.05Z</time></trkpt><trkpt lat="38.2712647" lon="0.1003014"><ele>0.0</ele><time>2026-04-29T17:10:00.05Z</time></trkpt><trkpt lat="38.271408" lon="0.1004138"><ele>0.0</ele><time>2026-04-29T17:10:02.049Z</time></trkpt><trkpt lat="38.2714829" lon="0.1004706"><ele>0.0</ele><time>2026-04-29T17:10:03.05Z</time></trkpt><trkpt lat="38.2715553" lon="0.1005268"><ele>0.0</ele><time>2026-04-29T17:10:04.049Z</time></trkpt><trkpt lat="38.2716256" lon="0.1005921"><ele>0.0</ele><time>2026-04-29T17:10:05.049Z</time></trkpt><trkpt lat="38.2716939" lon="0.1006565"><ele>0.0</ele><time>2026-04-29T17:10:06.05Z</time></trkpt><trkpt lat="38.2717665" lon="0.1007183"><ele>0.0</ele><time>2026-04-29T17:10:07.05Z</time></trkpt><trkpt lat="38.271841" lon="0.1007755"><ele>0.0</ele><time>2026-04-29T17:10:08.05Z</time></trkpt><trkpt lat="38.2719162" lon="0.100833"><ele>0.0</ele><time>2026-04-29T17:10:09.05Z</time></trkpt><trkpt lat="38.2719898" lon="0.1008915"><ele>0.0</ele><time>2026-04-29T17:10:10.049Z</time></trkpt><trkpt lat="38.2720647" lon="0.1009542"><ele>0.0</ele><time>2026-04-29T17:10:11.049Z</time></trkpt><trkpt lat="38.2721369" lon="0.101008"><ele>0.0</ele><time>2026-04-29T17:10:12.049Z</time></trkpt><trkpt lat="38.2722069" lon="0.1010638"><ele>0.0</ele><time>2026-04-29T17:10:13.05Z</time></trkpt><trkpt lat="38.2722824" lon="0.1011147"><ele>0.0</ele><time>2026-04-29T17:10:14.05Z</time></trkpt><trkpt lat="38.2723531" lon="0.1011715"><ele>0.0</ele><time>2026-04-29T17:10:15.049Z</time></trkpt><trkpt lat="38.2724233" lon="0.1012285"><ele>0.0</ele><time>2026-04-29T17:10:16.05Z</time></trkpt><trkpt lat="38.2725076" lon="0.101278"><ele>0.0</ele><time>2026-04-29T17:10:17.05Z</time></trkpt><trkpt lat="38.2725819" lon="0.1013401"><ele>0.0</ele><time>2026-04-29T17:10:18.05Z</time></trkpt><trkpt lat="38.2726584" lon="0.1014005"><ele>0.0</ele><time>2026-04-29T17:10:19.05Z</time></trkpt><trkpt lat="38.2727336" lon="0.1014603"><ele>0.0</ele><time>2026-04-29T17:10:20.049Z</time></trkpt><trkpt lat="38.272807" lon="0.1015175"><ele>0.0</ele><time>2026-04-29T17:10:21.049Z</time></trkpt><trkpt lat="38.2729503" lon="0.1016352"><ele>0.0</ele><time>2026-04-29T17:10:23.049Z</time></trkpt><trkpt lat="38.2730246" lon="0.1016868"><ele>0.0</ele><time>2026-04-29T17:10:24.05Z</time></trkpt><trkpt lat="38.273098" lon="0.1017424"><ele>0.0</ele><time>2026-04-29T17:10:25.049Z</time></trkpt><trkpt lat="38.2731745" lon="0.1017991"><ele>0.0</ele><time>2026-04-29T17:10:26.049Z</time></trkpt><trkpt lat="38.2732437" lon="0.1018589"><ele>0.0</ele><time>2026-04-29T17:10:27.049Z</time></trkpt><trkpt lat="38.2733135" lon="0.1019224"><ele>0.0</ele><time>2026-04-29T17:10:28.049Z</time></trkpt><trkpt lat="38.2733795" lon="0.1019846"><ele>0.0</ele><time>2026-04-29T17:10:29.05Z</time></trkpt><trkpt lat="38.2734497" lon="0.1020501"><ele>0.0</ele><time>2026-04-29T17:10:30.05Z</time></trkpt><trkpt lat="38.2735234" lon="0.1021199"><ele>0.0</ele><time>2026-04-29T17:10:31.049Z</time></trkpt><trkpt lat="38.2735951" lon="0.1021849"><ele>0.0</ele><time>2026-04-29T17:10:32.05Z</time></trkpt><trkpt lat="38.2736678" lon="0.1022467"><ele>0.0</ele><time>2026-04-29T17:10:33.05Z</time></trkpt><trkpt lat="38.2737424" lon="0.1023049"><ele>0.0</ele><time>2026-04-29T17:10:34.049Z</time></trkpt><trkpt lat="38.2738189" lon="0.1023672"><ele>0.0</ele><time>2026-04-29T17:10:35.05Z</time></trkpt><trkpt lat="38.2738961" lon="0.1024367"><ele>0.0</ele><time>2026-04-29T17:10:36.05Z</time></trkpt><trkpt lat="38.2739673" lon="0.1025072"><ele>0.0</ele><time>2026-04-29T17:10:37.049Z</time></trkpt><trkpt lat="38.2740374" lon="0.1025704"><ele>0.0</ele><time>2026-04-29T17:10:38.049Z</time></trkpt><trkpt lat="38.274104" lon="0.1026398"><ele>0.0</ele><time>2026-04-29T17:10:39.049Z</time></trkpt><trkpt lat="38.274172" lon="0.102713"><ele>0.0</ele><time>2026-04-29T17:10:40.048Z</time></trkpt><trkpt lat="38.2742396" lon="0.1027835"><ele>0.0</ele><time>2026-04-29T17:10:41.048Z</time></trkpt><trkpt lat="38.2743085" lon="0.1028526"><ele>0.0</ele><time>2026-04-29T17:10:42.048Z</time></trkpt><trkpt lat="38.2744481" lon="0.1029745"><ele>0.0</ele><time>2026-04-29T17:10:44.048Z</time></trkpt><trkpt lat="38.2745229" lon="0.1030332"><ele>0.0</ele><time>2026-04-29T17:10:45.049Z</time></trkpt><trkpt lat="38.2745935" lon="0.1030961"><ele>0.0</ele><time>2026-04-29T17:10:46.048Z</time></trkpt><trkpt lat="38.2746562" lon="0.1031667"><ele>0.0</ele><time>2026-04-29T17:10:47.048Z</time></trkpt><trkpt lat="38.274725" lon="0.1032275"><ele>0.0</ele><time>2026-04-29T17:10:48.049Z</time></trkpt><trkpt lat="38.2747952" lon="0.1032871"><ele>0.0</ele><time>2026-04-29T17:10:49.048Z</time></trkpt><trkpt lat="38.2748695" lon="0.1033427"><ele>0.0</ele><time>2026-04-29T17:10:50.048Z</time></trkpt><trkpt lat="38.2749501" lon="0.1033933"><ele>0.0</ele><time>2026-04-29T17:10:51.049Z</time></trkpt><trkpt lat="38.2750234" lon="0.1034504"><ele>0.0</ele><time>2026-04-29T17:10:52.049Z</time></trkpt><trkpt lat="38.275099" lon="0.1035132"><ele>0.0</ele><time>2026-04-29T17:10:53.049Z</time></trkpt><trkpt lat="38.2751729" lon="0.1035735"><ele>0.0</ele><time>2026-04-29T17:10:54.048Z</time></trkpt><trkpt lat="38.2752403" lon="0.1036361"><ele>0.0</ele><time>2026-04-29T17:10:55.048Z</time></trkpt><trkpt lat="38.2753169" lon="0.1036922"><ele>0.0</ele><time>2026-04-29T17:10:56.048Z</time></trkpt><trkpt lat="38.2753909" lon="0.1037524"><ele>0.0</ele><time>2026-04-29T17:10:57.048Z</time></trkpt><trkpt lat="38.2754708" lon="0.1038131"><ele>0.0</ele><time>2026-04-29T17:10:58.049Z</time></trkpt><trkpt lat="38.2755452" lon="0.1038733"><ele>0.0</ele><time>2026-04-29T17:10:59.049Z</time></trkpt><trkpt lat="38.2756131" lon="0.1039292"><ele>0.0</ele><time>2026-04-29T17:11:00.049Z</time></trkpt><trkpt lat="38.2756766" lon="0.1039871"><ele>0.0</ele><time>2026-04-29T17:11:01.048Z</time></trkpt><trkpt lat="38.2757478" lon="0.104045"><ele>0.0</ele><time>2026-04-29T17:11:02.049Z</time></trkpt><trkpt lat="38.2758258" lon="0.1040832"><ele>0.0</ele><time>2026-04-29T17:11:03.049Z</time></trkpt><trkpt lat="38.275891" lon="0.1041373"><ele>0.0</ele><time>2026-04-29T17:11:04.049Z</time></trkpt><trkpt lat="38.2760309" lon="0.1042728"><ele>0.0</ele><time>2026-04-29T17:11:06.048Z</time></trkpt><trkpt lat="38.276103" lon="0.1043401"><ele>0.0</ele><time>2026-04-29T17:11:07.049Z</time></trkpt><trkpt lat="38.2761706" lon="0.1044086"><ele>0.0</ele><time>2026-04-29T17:11:08.048Z</time></trkpt><trkpt lat="38.2762432" lon="0.10447"><ele>0.0</ele><time>2026-04-29T17:11:09.048Z</time></trkpt><trkpt lat="38.276321" lon="0.1045324"><ele>0.0</ele><time>2026-04-29T17:11:10.049Z</time></trkpt><trkpt lat="38.2763979" lon="0.1045903"><ele>0.0</ele><time>2026-04-29T17:11:11.048Z</time></trkpt><trkpt lat="38.2764666" lon="0.1046415"><ele>0.0</ele><time>2026-04-29T17:11:12.048Z</time></trkpt><trkpt lat="38.2765352" lon="0.1046851"><ele>0.0</ele><time>2026-04-29T17:11:13.049Z</time></trkpt><trkpt lat="38.2766051" lon="0.1047339"><ele>0.0</ele><time>2026-04-29T17:11:14.049Z</time></trkpt><trkpt lat="38.2766763" lon="0.104787"><ele>0.0</ele><time>2026-04-29T17:11:15.049Z</time></trkpt><trkpt lat="38.2767467" lon="0.1048447"><ele>0.0</ele><time>2026-04-29T17:11:16.049Z</time></trkpt><trkpt lat="38.2768273" lon="0.1048937"><ele>0.0</ele><time>2026-04-29T17:11:17.048Z</time></trkpt><trkpt lat="38.2769084" lon="0.1049562"><ele>0.0</ele><time>2026-04-29T17:11:18.049Z</time></trkpt><trkpt lat="38.2769818" lon="0.1050207"><ele>0.0</ele><time>2026-04-29T17:11:19.048Z</time></trkpt><trkpt lat="38.2770691" lon="0.1050744"><ele>0.0</ele><time>2026-04-29T17:11:20.048Z</time></trkpt><trkpt lat="38.2771493" lon="0.1051262"><ele>0.0</ele><time>2026-04-29T17:11:21.048Z</time></trkpt><trkpt lat="38.2772251" lon="0.1051825"><ele>0.0</ele><time>2026-04-29T17:11:22.048Z</time></trkpt><trkpt lat="38.2773014" lon="0.1052414"><ele>0.0</ele><time>2026-04-29T17:11:23.048Z</time></trkpt><trkpt lat="38.2773782" lon="0.105289"><ele>0.0</ele><time>2026-04-29T17:11:24.049Z</time></trkpt><trkpt lat="38.2774519" lon="0.1053424"><ele>0.0</ele><time>2026-04-29T17:11:25.049Z</time></trkpt><trkpt lat="38.2775975" lon="0.1054456"><ele>0.0</ele><time>2026-04-29T17:11:27.048Z</time></trkpt><trkpt lat="38.2776655" lon="0.1055034"><ele>0.0</ele><time>2026-04-29T17:11:28.049Z</time></trkpt><trkpt lat="38.2777325" lon="0.1055664"><ele>0.0</ele><time>2026-04-29T17:11:29.049Z</time></trkpt><trkpt lat="38.2778008" lon="0.1056295"><ele>0.0</ele><time>2026-04-29T17:11:30.048Z</time></trkpt><trkpt lat="38.2778835" lon="0.105681"><ele>0.0</ele><time>2026-04-29T17:11:31.048Z</time></trkpt><trkpt lat="38.2779585" lon="0.1057328"><ele>0.0</ele><time>2026-04-29T17:11:32.049Z</time></trkpt><trkpt lat="38.2780276" lon="0.10578"><ele>0.0</ele><time>2026-04-29T17:11:33.048Z</time></trkpt><trkpt lat="38.2780982" lon="0.105852"><ele>0.0</ele><time>2026-04-29T17:11:34.049Z</time></trkpt><trkpt lat="38.2781697" lon="0.1059241"><ele>0.0</ele><time>2026-04-29T17:11:35.048Z</time></trkpt><trkpt lat="38.2782447" lon="0.1059966"><ele>0.0</ele><time>2026-04-29T17:11:36.049Z</time></trkpt><trkpt lat="38.2783089" lon="0.106077"><ele>0.0</ele><time>2026-04-29T17:11:37.049Z</time></trkpt><trkpt lat="38.2783735" lon="0.1061444"><ele>0.0</ele><time>2026-04-29T17:11:38.048Z</time></trkpt><trkpt lat="38.2784437" lon="0.1062049"><ele>0.0</ele><time>2026-04-29T17:11:39.049Z</time></trkpt><trkpt lat="38.278505" lon="0.1062648"><ele>0.0</ele><time>2026-04-29T17:11:40.048Z</time></trkpt><trkpt lat="38.2785723" lon="0.1063269"><ele>0.0</ele><time>2026-04-29T17:11:41.049Z</time></trkpt><trkpt lat="38.2786433" lon="0.1063882"><ele>0.0</ele><time>2026-04-29T17:11:42.048Z</time></trkpt><trkpt lat="38.2787197" lon="0.1064443"><ele>0.0</ele><time>2026-04-29T17:11:43.049Z</time></trkpt><trkpt lat="38.2787921" lon="0.1065006"><ele>0.0</ele><time>2026-04-29T17:11:44.049Z</time></trkpt><trkpt lat="38.2788636" lon="0.1065587"><ele>0.0</ele><time>2026-04-29T17:11:45.049Z</time></trkpt><trkpt lat="38.2789349" lon="0.1066168"><ele>0.0</ele><time>2026-04-29T17:11:46.049Z</time></trkpt><trkpt lat="38.2790796" lon="0.1067546"><ele>0.0</ele><time>2026-04-29T17:11:48.048Z</time></trkpt><trkpt lat="38.2791498" lon="0.1068151"><ele>0.0</ele><time>2026-04-29T17:11:49.048Z</time></trkpt><trkpt lat="38.2792216" lon="0.1068794"><ele>0.0</ele><time>2026-04-29T17:11:50.048Z</time></trkpt><trkpt lat="38.2792948" lon="0.1069371"><ele>0.0</ele><time>2026-04-29T17:11:51.048Z</time></trkpt><trkpt lat="38.2793652" lon="0.1069966"><ele>0.0</ele><time>2026-04-29T17:11:52.048Z</time></trkpt><trkpt lat="38.2793936" lon="0.1071191"><ele>0.0</ele><time>2026-04-29T17:11:55.167Z</time></trkpt><trkpt lat="38.2796153" lon="0.107218"><ele>0.0</ele><time>2026-04-29T17:11:56.073Z</time></trkpt><trkpt lat="38.2797223" lon="0.1072945"><ele>0.0</ele><time>2026-04-29T17:11:57.048Z</time></trkpt><trkpt lat="38.2797937" lon="0.1073565"><ele>0.0</ele><time>2026-04-29T17:11:58.048Z</time></trkpt><trkpt lat="38.2798548" lon="0.1074279"><ele>0.0</ele><time>2026-04-29T17:11:59.049Z</time></trkpt><trkpt lat="38.2799135" lon="0.1075025"><ele>0.0</ele><time>2026-04-29T17:12:00.048Z</time></trkpt><trkpt lat="38.2799788" lon="0.107575"><ele>0.0</ele><time>2026-04-29T17:12:01.048Z</time></trkpt><trkpt lat="38.2800512" lon="0.1076413"><ele>0.0</ele><time>2026-04-29T17:12:02.049Z</time></trkpt><trkpt lat="38.2801231" lon="0.1077049"><ele>0.0</ele><time>2026-04-29T17:12:03.048Z</time></trkpt><trkpt lat="38.2801952" lon="0.107774"><ele>0.0</ele><time>2026-04-29T17:12:04.048Z</time></trkpt><trkpt lat="38.2802626" lon="0.1078426"><ele>0.0</ele><time>2026-04-29T17:12:05.048Z</time></trkpt><trkpt lat="38.2803333" lon="0.1079026"><ele>0.0</ele><time>2026-04-29T17:12:06.048Z</time></trkpt><trkpt lat="38.2804033" lon="0.1079633"><ele>0.0</ele><time>2026-04-29T17:12:07.049Z</time></trkpt><trkpt lat="38.2804772" lon="0.1080237"><ele>0.0</ele><time>2026-04-29T17:12:08.049Z</time></trkpt><trkpt lat="38.2806181" lon="0.1081534"><ele>0.0</ele><time>2026-04-29T17:12:10.049Z</time></trkpt><trkpt lat="38.280688" lon="0.108216"><ele>0.0</ele><time>2026-04-29T17:12:11.048Z</time></trkpt><trkpt lat="38.2807709" lon="0.1082638"><ele>0.0</ele><time>2026-04-29T17:12:12.048Z</time></trkpt><trkpt lat="38.2808505" lon="0.1083167"><ele>0.0</ele><time>2026-04-29T17:12:13.049Z</time></trkpt><trkpt lat="38.2809247" lon="0.1083725"><ele>0.0</ele><time>2026-04-29T17:12:14.049Z</time></trkpt><trkpt lat="38.2810027" lon="0.1084289"><ele>0.0</ele><time>2026-04-29T17:12:15.049Z</time></trkpt><trkpt lat="38.2810727" lon="0.1084902"><ele>0.0</ele><time>2026-04-29T17:12:16.048Z</time></trkpt><trkpt lat="38.2811466" lon="0.1085445"><ele>0.0</ele><time>2026-04-29T17:12:17.048Z</time></trkpt><trkpt lat="38.2812211" lon="0.1086036"><ele>0.0</ele><time>2026-04-29T17:12:18.048Z</time></trkpt><trkpt lat="38.281289" lon="0.1086679"><ele>0.0</ele><time>2026-04-29T17:12:19.048Z</time></trkpt><trkpt lat="38.2813588" lon="0.1087198"><ele>0.0</ele><time>2026-04-29T17:12:20.049Z</time></trkpt><trkpt lat="38.2814281" lon="0.1087791"><ele>0.0</ele><time>2026-04-29T17:12:21.049Z</time></trkpt><trkpt lat="38.2815041" lon="0.1088371"><ele>0.0</ele><time>2026-04-29T17:12:22.048Z</time></trkpt><trkpt lat="38.28158" lon="0.1089008"><ele>0.0</ele><time>2026-04-29T17:12:23.048Z</time></trkpt><trkpt lat="38.2816524" lon="0.1089606"><ele>0.0</ele><time>2026-04-29T17:12:24.048Z</time></trkpt><trkpt lat="38.2817221" lon="0.1090204"><ele>0.0</ele><time>2026-04-29T17:12:25.049Z</time></trkpt><trkpt lat="38.2817918" lon="0.109079"><ele>0.0</ele><time>2026-04-29T17:12:26.048Z</time></trkpt><trkpt lat="38.2818631" lon="0.1091384"><ele>0.0</ele><time>2026-04-29T17:12:27.049Z</time></trkpt><trkpt lat="38.2819406" lon="0.1092024"><ele>0.0</ele><time>2026-04-29T17:12:28.048Z</time></trkpt><trkpt lat="38.2820148" lon="0.1092577"><ele>0.0</ele><time>2026-04-29T17:12:29.049Z</time></trkpt><trkpt lat="38.2821554" lon="0.109367"><ele>0.0</ele><time>2026-04-29T17:12:31.048Z</time></trkpt><trkpt lat="38.2822207" lon="0.1094264"><ele>0.0</ele><time>2026-04-29T17:12:32.048Z</time></trkpt><trkpt lat="38.2822838" lon="0.1094903"><ele>0.0</ele><time>2026-04-29T17:12:33.048Z</time></trkpt><trkpt lat="38.2823656" lon="0.1095524"><ele>0.0</ele><time>2026-04-29T17:12:34.049Z</time></trkpt><trkpt lat="38.2824469" lon="0.1096158"><ele>0.0</ele><time>2026-04-29T17:12:35.048Z</time></trkpt><trkpt lat="38.2825244" lon="0.1096807"><ele>0.0</ele><time>2026-04-29T17:12:36.048Z</time></trkpt><trkpt lat="38.2825982" lon="0.1097472"><ele>0.0</ele><time>2026-04-29T17:12:37.049Z</time></trkpt><trkpt lat="38.28267" lon="0.1098064"><ele>0.0</ele><time>2026-04-29T17:12:38.049Z</time></trkpt><trkpt lat="38.2827441" lon="0.1098647"><ele>0.0</ele><time>2026-04-29T17:12:39.049Z</time></trkpt><trkpt lat="38.2828149" lon="0.1099261"><ele>0.0</ele><time>2026-04-29T17:12:40.049Z</time></trkpt><trkpt lat="38.2828877" lon="0.1099879"><ele>0.0</ele><time>2026-04-29T17:12:41.048Z</time></trkpt><trkpt lat="38.2829659" lon="0.1100467"><ele>0.0</ele><time>2026-04-29T17:12:42.048Z</time></trkpt><trkpt lat="38.2830473" lon="0.1101036"><ele>0.0</ele><time>2026-04-29T17:12:43.049Z</time></trkpt><trkpt lat="38.2831192" lon="0.1101618"><ele>0.0</ele><time>2026-04-29T17:12:44.049Z</time></trkpt><trkpt lat="38.2831922" lon="0.1102168"><ele>0.0</ele><time>2026-04-29T17:12:45.048Z</time></trkpt><trkpt lat="38.2832637" lon="0.1102747"><ele>0.0</ele><time>2026-04-29T17:12:46.048Z</time></trkpt><trkpt lat="38.2833325" lon="0.1103347"><ele>0.0</ele><time>2026-04-29T17:12:47.048Z</time></trkpt><trkpt lat="38.2834007" lon="0.1103991"><ele>0.0</ele><time>2026-04-29T17:12:48.048Z</time></trkpt><trkpt lat="38.283469" lon="0.1104598"><ele>0.0</ele><time>2026-04-29T17:12:49.048Z</time></trkpt><trkpt lat="38.2835375" lon="0.1105225"><ele>0.0</ele><time>2026-04-29T17:12:50.049Z</time></trkpt><trkpt lat="38.2836714" lon="0.1106409"><ele>0.0</ele><time>2026-04-29T17:12:52.048Z</time></trkpt><trkpt lat="38.283736" lon="0.1106971"><ele>0.0</ele><time>2026-04-29T17:12:53.048Z</time></trkpt><trkpt lat="38.2837997" lon="0.1107552"><ele>0.0</ele><time>2026-04-29T17:12:54.048Z</time></trkpt><trkpt lat="38.2838655" lon="0.1108176"><ele>0.0</ele><time>2026-04-29T17:12:55.048Z</time></trkpt><trkpt lat="38.283935" lon="0.1108796"><ele>0.0</ele><time>2026-04-29T17:12:56.048Z</time></trkpt><trkpt lat="38.2840111" lon="0.1109372"><ele>0.0</ele><time>2026-04-29T17:12:57.048Z</time></trkpt><trkpt lat="38.2840862" lon="0.1109956"><ele>0.0</ele><time>2026-04-29T17:12:58.049Z</time></trkpt><trkpt lat="38.2841726" lon="0.1110449"><ele>0.0</ele><time>2026-04-29T17:12:59.048Z</time></trkpt><trkpt lat="38.2842525" lon="0.1111022"><ele>0.0</ele><time>2026-04-29T17:13:00.048Z</time></trkpt><trkpt lat="38.2843293" lon="0.1111597"><ele>0.0</ele><time>2026-04-29T17:13:01.049Z</time></trkpt><trkpt lat="38.2844045" lon="0.1112227"><ele>0.0</ele><time>2026-04-29T17:13:02.048Z</time></trkpt><trkpt lat="38.2844742" lon="0.1112861"><ele>0.0</ele><time>2026-04-29T17:13:03.048Z</time></trkpt><trkpt lat="38.2845433" lon="0.1113475"><ele>0.0</ele><time>2026-04-29T17:13:04.048Z</time></trkpt><trkpt lat="38.2846133" lon="0.1114108"><ele>0.0</ele><time>2026-04-29T17:13:05.049Z</time></trkpt><trkpt lat="38.2846836" lon="0.1114761"><ele>0.0</ele><time>2026-04-29T17:13:06.049Z</time></trkpt><trkpt lat="38.2847581" lon="0.1115352"><ele>0.0</ele><time>2026-04-29T17:13:07.048Z</time></trkpt><trkpt lat="38.2848323" lon="0.1115961"><ele>0.0</ele><time>2026-04-29T17:13:08.049Z</time></trkpt><trkpt lat="38.2849084" lon="0.1116535"><ele>0.0</ele><time>2026-04-29T17:13:09.048Z</time></trkpt><trkpt lat="38.2849808" lon="0.1117115"><ele>0.0</ele><time>2026-04-29T17:13:10.048Z</time></trkpt><trkpt lat="38.2850537" lon="0.1117645"><ele>0.0</ele><time>2026-04-29T17:13:11.049Z</time></trkpt><trkpt lat="38.2851877" lon="0.1118718"><ele>0.0</ele><time>2026-04-29T17:13:13.049Z</time></trkpt><trkpt lat="38.2852627" lon="0.111916"><ele>0.0</ele><time>2026-04-29T17:13:14.048Z</time></trkpt><trkpt lat="38.2853354" lon="0.1119675"><ele>0.0</ele><time>2026-04-29T17:13:15.048Z</time></trkpt><trkpt lat="38.2854039" lon="0.1120239"><ele>0.0</ele><time>2026-04-29T17:13:16.049Z</time></trkpt><trkpt lat="38.2854799" lon="0.1120807"><ele>0.0</ele><time>2026-04-29T17:13:17.048Z</time></trkpt><trkpt lat="38.285553" lon="0.1121545"><ele>0.0</ele><time>2026-04-29T17:13:18.049Z</time></trkpt><trkpt lat="38.2856248" lon="0.1122185"><ele>0.0</ele><time>2026-04-29T17:13:19.049Z</time></trkpt><trkpt lat="38.2857006" lon="0.11228"><ele>0.0</ele><time>2026-04-29T17:13:20.048Z</time></trkpt><trkpt lat="38.2857735" lon="0.1123413"><ele>0.0</ele><time>2026-04-29T17:13:21.049Z</time></trkpt><trkpt lat="38.285837" lon="0.1124126"><ele>0.0</ele><time>2026-04-29T17:13:22.049Z</time></trkpt><trkpt lat="38.2858972" lon="0.1124919"><ele>0.0</ele><time>2026-04-29T17:13:23.049Z</time></trkpt><trkpt lat="38.2859684" lon="0.1125534"><ele>0.0</ele><time>2026-04-29T17:13:24.048Z</time></trkpt><trkpt lat="38.286037" lon="0.1126159"><ele>0.0</ele><time>2026-04-29T17:13:25.048Z</time></trkpt><trkpt lat="38.2861052" lon="0.1126839"><ele>0.0</ele><time>2026-04-29T17:13:26.048Z</time></trkpt><trkpt lat="38.2861721" lon="0.112743"><ele>0.0</ele><time>2026-04-29T17:13:27.049Z</time></trkpt><trkpt lat="38.2862416" lon="0.1127986"><ele>0.0</ele><time>2026-04-29T17:13:28.048Z</time></trkpt><trkpt lat="38.2863116" lon="0.1128608"><ele>0.0</ele><time>2026-04-29T17:13:29.049Z</time></trkpt><trkpt lat="38.286382" lon="0.1129183"><ele>0.0</ele><time>2026-04-29T17:13:30.048Z</time></trkpt><trkpt lat="38.2864411" lon="0.1129936"><ele>0.0</ele><time>2026-04-29T17:13:31.048Z</time></trkpt><trkpt lat="38.2865132" lon="0.1130546"><ele>0.0</ele><time>2026-04-29T17:13:32.048Z</time></trkpt><trkpt lat="38.2866568" lon="0.113164"><ele>0.0</ele><time>2026-04-29T17:13:34.049Z</time></trkpt><trkpt lat="38.2867281" lon="0.1132218"><ele>0.0</ele><time>2026-04-29T17:13:35.049Z</time></trkpt><trkpt lat="38.2868037" lon="0.1132744"><ele>0.0</ele><time>2026-04-29T17:13:36.049Z</time></trkpt><trkpt lat="38.28688" lon="0.1133309"><ele>0.0</ele><time>2026-04-29T17:13:37.049Z</time></trkpt><trkpt lat="38.2869738" lon="0.1133717"><ele>0.0</ele><time>2026-04-29T17:13:38.049Z</time></trkpt><trkpt lat="38.2870766" lon="0.1134143"><ele>0.0</ele><time>2026-04-29T17:13:39.048Z</time></trkpt><trkpt lat="38.2871845" lon="0.113456"><ele>0.0</ele><time>2026-04-29T17:13:40.048Z</time></trkpt><trkpt lat="38.2872802" lon="0.1135003"><ele>0.0</ele><time>2026-04-29T17:13:41.049Z</time></trkpt><trkpt lat="38.2873708" lon="0.1135499"><ele>0.0</ele><time>2026-04-29T17:13:42.049Z</time></trkpt><trkpt lat="38.2874555" lon="0.1136032"><ele>0.0</ele><time>2026-04-29T17:13:43.049Z</time></trkpt><trkpt lat="38.2875357" lon="0.1136727"><ele>0.0</ele><time>2026-04-29T17:13:44.049Z</time></trkpt><trkpt lat="38.2876057" lon="0.1137302"><ele>0.0</ele><time>2026-04-29T17:13:45.049Z</time></trkpt><trkpt lat="38.2876727" lon="0.113794"><ele>0.0</ele><time>2026-04-29T17:13:46.049Z</time></trkpt><trkpt lat="38.2877418" lon="0.1138632"><ele>0.0</ele><time>2026-04-29T17:13:47.048Z</time></trkpt><trkpt lat="38.2878175" lon="0.1139285"><ele>0.0</ele><time>2026-04-29T17:13:48.048Z</time></trkpt><trkpt lat="38.2878904" lon="0.114001"><ele>0.0</ele><time>2026-04-29T17:13:49.049Z</time></trkpt><trkpt lat="38.2879609" lon="0.1140626"><ele>0.0</ele><time>2026-04-29T17:13:50.048Z</time></trkpt><trkpt lat="38.2880254" lon="0.1141224"><ele>0.0</ele><time>2026-04-29T17:13:51.048Z</time></trkpt><trkpt lat="38.2880927" lon="0.1141776"><ele>0.0</ele><time>2026-04-29T17:13:52.048Z</time></trkpt><trkpt lat="38.2881581" lon="0.114232"><ele>0.0</ele><time>2026-04-29T17:13:53.049Z</time></trkpt><trkpt lat="38.2883013" lon="0.1143418"><ele>0.0</ele><time>2026-04-29T17:13:55.049Z</time></trkpt><trkpt lat="38.2883693" lon="0.1144046"><ele>0.0</ele><time>2026-04-29T17:13:56.049Z</time></trkpt><trkpt lat="38.2884416" lon="0.1144641"><ele>0.0</ele><time>2026-04-29T17:13:57.049Z</time></trkpt><trkpt lat="38.2885178" lon="0.1145179"><ele>0.0</ele><time>2026-04-29T17:13:58.048Z</time></trkpt><trkpt lat="38.2885891" lon="0.1145766"><ele>0.0</ele><time>2026-04-29T17:13:59.049Z</time></trkpt><trkpt lat="38.2886575" lon="0.1146338"><ele>0.0</ele><time>2026-04-29T17:14:00.049Z</time></trkpt><trkpt lat="38.2887171" lon="0.1147042"><ele>0.0</ele><time>2026-04-29T17:14:01.048Z</time></trkpt><trkpt lat="38.2887755" lon="0.1147762"><ele>0.0</ele><time>2026-04-29T17:14:02.048Z</time></trkpt><trkpt lat="38.2888437" lon="0.114838"><ele>0.0</ele><time>2026-04-29T17:14:03.048Z</time></trkpt><trkpt lat="38.2889133" lon="0.1149001"><ele>0.0</ele><time>2026-04-29T17:14:04.048Z</time></trkpt><trkpt lat="38.2889847" lon="0.1149575"><ele>0.0</ele><time>2026-04-29T17:14:05.048Z</time></trkpt><trkpt lat="38.2890552" lon="0.1150184"><ele>0.0</ele><time>2026-04-29T17:14:06.048Z</time></trkpt><trkpt lat="38.2891268" lon="0.1150723"><ele>0.0</ele><time>2026-04-29T17:14:07.048Z</time></trkpt><trkpt lat="38.2891913" lon="0.1151369"><ele>0.0</ele><time>2026-04-29T17:14:08.048Z</time></trkpt><trkpt lat="38.2892645" lon="0.1151951"><ele>0.0</ele><time>2026-04-29T17:14:09.049Z</time></trkpt><trkpt lat="38.2893365" lon="0.1152597"><ele>0.0</ele><time>2026-04-29T17:14:10.048Z</time></trkpt><trkpt lat="38.2894054" lon="0.1153219"><ele>0.0</ele><time>2026-04-29T17:14:11.048Z</time></trkpt><trkpt lat="38.2894765" lon="0.1153849"><ele>0.0</ele><time>2026-04-29T17:14:12.048Z</time></trkpt><trkpt lat="38.2895495" lon="0.1154454"><ele>0.0</ele><time>2026-04-29T17:14:13.048Z</time></trkpt><trkpt lat="38.2896241" lon="0.1154997"><ele>0.0</ele><time>2026-04-29T17:14:14.048Z</time></trkpt><trkpt lat="38.2897804" lon="0.1156249"><ele>0.0</ele><time>2026-04-29T17:14:16.049Z</time></trkpt><trkpt lat="38.2898562" lon="0.1156837"><ele>0.0</ele><time>2026-04-29T17:14:17.048Z</time></trkpt><trkpt lat="38.289934" lon="0.1157416"><ele>0.0</ele><time>2026-04-29T17:14:18.049Z</time></trkpt><trkpt lat="38.2900097" lon="0.1158015"><ele>0.0</ele><time>2026-04-29T17:14:19.048Z</time></trkpt><trkpt lat="38.2900775" lon="0.1158647"><ele>0.0</ele><time>2026-04-29T17:14:20.048Z</time></trkpt><trkpt lat="38.2901485" lon="0.1159249"><ele>0.0</ele><time>2026-04-29T17:14:21.048Z</time></trkpt><trkpt lat="38.2902186" lon="0.1159852"><ele>0.0</ele><time>2026-04-29T17:14:22.049Z</time></trkpt><trkpt lat="38.2902871" lon="0.1160452"><ele>0.0</ele><time>2026-04-29T17:14:23.048Z</time></trkpt><trkpt lat="38.290357" lon="0.1161038"><ele>0.0</ele><time>2026-04-29T17:14:24.049Z</time></trkpt><trkpt lat="38.2904324" lon="0.1161663"><ele>0.0</ele><time>2026-04-29T17:14:25.048Z</time></trkpt><trkpt lat="38.2905107" lon="0.116228"><ele>0.0</ele><time>2026-04-29T17:14:26.049Z</time></trkpt><trkpt lat="38.2905822" lon="0.1162868"><ele>0.0</ele><time>2026-04-29T17:14:27.049Z</time></trkpt><trkpt lat="38.2906548" lon="0.1163483"><ele>0.0</ele><time>2026-04-29T17:14:28.049Z</time></trkpt><trkpt lat="38.2907221" lon="0.11641"><ele>0.0</ele><time>2026-04-29T17:14:29.048Z</time></trkpt><trkpt lat="38.2907945" lon="0.1164615"><ele>0.0</ele><time>2026-04-29T17:14:30.049Z</time></trkpt><trkpt lat="38.2908585" lon="0.1165348"><ele>0.0</ele><time>2026-04-29T17:14:31.049Z</time></trkpt><trkpt lat="38.290929" lon="0.1165934"><ele>0.0</ele><time>2026-04-29T17:14:32.049Z</time></trkpt><trkpt lat="38.2910017" lon="0.1166492"><ele>0.0</ele><time>2026-04-29T17:14:33.048Z</time></trkpt><trkpt lat="38.2910731" lon="0.1167012"><ele>0.0</ele><time>2026-04-29T17:14:34.047Z</time></trkpt><trkpt lat="38.2911434" lon="0.1167597"><ele>0.0</ele><time>2026-04-29T17:14:35.048Z</time></trkpt><trkpt lat="38.29129" lon="0.116878"><ele>0.0</ele><time>2026-04-29T17:14:37.048Z</time></trkpt><trkpt lat="38.2913631" lon="0.1169407"><ele>0.0</ele><time>2026-04-29T17:14:38.047Z</time></trkpt><trkpt lat="38.291434" lon="0.1170104"><ele>0.0</ele><time>2026-04-29T17:14:39.047Z</time></trkpt><trkpt lat="38.2915038" lon="0.1170803"><ele>0.0</ele><time>2026-04-29T17:14:40.048Z</time></trkpt><trkpt lat="38.2915793" lon="0.1171438"><ele>0.0</ele><time>2026-04-29T17:14:41.047Z</time></trkpt><trkpt lat="38.2916474" lon="0.1172108"><ele>0.0</ele><time>2026-04-29T17:14:42.047Z</time></trkpt><trkpt lat="38.2917122" lon="0.1172739"><ele>0.0</ele><time>2026-04-29T17:14:43.047Z</time></trkpt><trkpt lat="38.2917792" lon="0.117333"><ele>0.0</ele><time>2026-04-29T17:14:44.047Z</time></trkpt><trkpt lat="38.2918457" lon="0.1173972"><ele>0.0</ele><time>2026-04-29T17:14:45.048Z</time></trkpt><trkpt lat="38.2919137" lon="0.1174593"><ele>0.0</ele><time>2026-04-29T17:14:46.048Z</time></trkpt><trkpt lat="38.2919848" lon="0.1175302"><ele>0.0</ele><time>2026-04-29T17:14:47.048Z</time></trkpt><trkpt lat="38.292058" lon="0.1175945"><ele>0.0</ele><time>2026-04-29T17:14:48.047Z</time></trkpt><trkpt lat="38.2921357" lon="0.1176567"><ele>0.0</ele><time>2026-04-29T17:14:49.048Z</time></trkpt><trkpt lat="38.2922083" lon="0.1177199"><ele>0.0</ele><time>2026-04-29T17:14:50.047Z</time></trkpt><trkpt lat="38.2922769" lon="0.1177779"><ele>0.0</ele><time>2026-04-29T17:14:51.048Z</time></trkpt><trkpt lat="38.2923496" lon="0.1178359"><ele>0.0</ele><time>2026-04-29T17:14:52.048Z</time></trkpt><trkpt lat="38.2924215" lon="0.1178921"><ele>0.0</ele><time>2026-04-29T17:14:53.047Z</time></trkpt><trkpt lat="38.2924915" lon="0.1179541"><ele>0.0</ele><time>2026-04-29T17:14:54.047Z</time></trkpt><trkpt lat="38.2925646" lon="0.1180121"><ele>0.0</ele><time>2026-04-29T17:14:55.048Z</time></trkpt><trkpt lat="38.2926396" lon="0.1180697"><ele>0.0</ele><time>2026-04-29T17:14:56.047Z</time></trkpt><trkpt lat="38.2927908" lon="0.1181895"><ele>0.0</ele><time>2026-04-29T17:14:58.047Z</time></trkpt><trkpt lat="38.2928693" lon="0.118248"><ele>0.0</ele><time>2026-04-29T17:14:59.048Z</time></trkpt><trkpt lat="38.2929404" lon="0.1183165"><ele>0.0</ele><time>2026-04-29T17:15:00.047Z</time></trkpt><trkpt lat="38.2930145" lon="0.11838"><ele>0.0</ele><time>2026-04-29T17:15:01.047Z</time></trkpt><trkpt lat="38.2930865" lon="0.1184459"><ele>0.0</ele><time>2026-04-29T17:15:02.048Z</time></trkpt><trkpt lat="38.2931553" lon="0.1185113"><ele>0.0</ele><time>2026-04-29T17:15:03.047Z</time></trkpt><trkpt lat="38.2932251" lon="0.1185766"><ele>0.0</ele><time>2026-04-29T17:15:04.047Z</time></trkpt><trkpt lat="38.2932911" lon="0.1186479"><ele>0.0</ele><time>2026-04-29T17:15:05.047Z</time></trkpt><trkpt lat="38.2933616" lon="0.1187132"><ele>0.0</ele><time>2026-04-29T17:15:06.047Z</time></trkpt><trkpt lat="38.293432" lon="0.1187778"><ele>0.0</ele><time>2026-04-29T17:15:07.048Z</time></trkpt><trkpt lat="38.2935034" lon="0.1188417"><ele>0.0</ele><time>2026-04-29T17:15:08.047Z</time></trkpt><trkpt lat="38.2935724" lon="0.1189064"><ele>0.0</ele><time>2026-04-29T17:15:09.048Z</time></trkpt><trkpt lat="38.2936404" lon="0.1189699"><ele>0.0</ele><time>2026-04-29T17:15:10.048Z</time></trkpt><trkpt lat="38.2937102" lon="0.1190347"><ele>0.0</ele><time>2026-04-29T17:15:11.048Z</time></trkpt><trkpt lat="38.2937815" lon="0.1190968"><ele>0.0</ele><time>2026-04-29T17:15:12.048Z</time></trkpt><trkpt lat="38.2938547" lon="0.119159"><ele>0.0</ele><time>2026-04-29T17:15:13.048Z</time></trkpt><trkpt lat="38.2939226" lon="0.1192182"><ele>0.0</ele><time>2026-04-29T17:15:14.047Z</time></trkpt><trkpt lat="38.293988" lon="0.1192819"><ele>0.0</ele><time>2026-04-29T17:15:15.047Z</time></trkpt><trkpt lat="38.2940596" lon="0.1193402"><ele>0.0</ele><time>2026-04-29T17:15:16.048Z</time></trkpt><trkpt lat="38.2941328" lon="0.1193983"><ele>0.0</ele><time>2026-04-29T17:15:17.047Z</time></trkpt><trkpt lat="38.2942787" lon="0.1195181"><ele>0.0</ele><time>2026-04-29T17:15:19.047Z</time></trkpt><trkpt lat="38.2943459" lon="0.1195772"><ele>0.0</ele><time>2026-04-29T17:15:20.048Z</time></trkpt><trkpt lat="38.2944084" lon="0.1196441"><ele>0.0</ele><time>2026-04-29T17:15:21.047Z</time></trkpt><trkpt lat="38.29447" lon="0.1197111"><ele>0.0</ele><time>2026-04-29T17:15:22.047Z</time></trkpt><trkpt lat="38.2945364" lon="0.1197733"><ele>0.0</ele><time>2026-04-29T17:15:23.047Z</time></trkpt><trkpt lat="38.2946053" lon="0.1198338"><ele>0.0</ele><time>2026-04-29T17:15:24.047Z</time></trkpt><trkpt lat="38.2946765" lon="0.1198983"><ele>0.0</ele><time>2026-04-29T17:15:25.047Z</time></trkpt><trkpt lat="38.2947441" lon="0.1199643"><ele>0.0</ele><time>2026-04-29T17:15:26.048Z</time></trkpt><trkpt lat="38.2948108" lon="0.1200297"><ele>0.0</ele><time>2026-04-29T17:15:27.047Z</time></trkpt><trkpt lat="38.2948789" lon="0.1200919"><ele>0.0</ele><time>2026-04-29T17:15:28.047Z</time></trkpt><trkpt lat="38.2949529" lon="0.120152"><ele>0.0</ele><time>2026-04-29T17:15:29.048Z</time></trkpt><trkpt lat="38.2950255" lon="0.1202103"><ele>0.0</ele><time>2026-04-29T17:15:30.047Z</time></trkpt><trkpt lat="38.2950957" lon="0.1202699"><ele>0.0</ele><time>2026-04-29T17:15:31.047Z</time></trkpt><trkpt lat="38.295167" lon="0.1203342"><ele>0.0</ele><time>2026-04-29T17:15:32.047Z</time></trkpt><trkpt lat="38.2952357" lon="0.1203963"><ele>0.0</ele><time>2026-04-29T17:15:33.048Z</time></trkpt><trkpt lat="38.2953038" lon="0.1204592"><ele>0.0</ele><time>2026-04-29T17:15:34.048Z</time></trkpt><trkpt lat="38.2953734" lon="0.1205199"><ele>0.0</ele><time>2026-04-29T17:15:35.047Z</time></trkpt><trkpt lat="38.2954448" lon="0.1205801"><ele>0.0</ele><time>2026-04-29T17:15:36.047Z</time></trkpt><trkpt lat="38.2955165" lon="0.1206416"><ele>0.0</ele><time>2026-04-29T17:15:37.048Z</time></trkpt><trkpt lat="38.2955883" lon="0.1207048"><ele>0.0</ele><time>2026-04-29T17:15:38.048Z</time></trkpt><trkpt lat="38.2957269" lon="0.1208305"><ele>0.0</ele><time>2026-04-29T17:15:40.048Z</time></trkpt><trkpt lat="38.2957984" lon="0.1208903"><ele>0.0</ele><time>2026-04-29T17:15:41.047Z</time></trkpt><trkpt lat="38.2958702" lon="0.1209452"><ele>0.0</ele><time>2026-04-29T17:15:42.048Z</time></trkpt><trkpt lat="38.2959448" lon="0.1210014"><ele>0.0</ele><time>2026-04-29T17:15:43.047Z</time></trkpt><trkpt lat="38.2960184" lon="0.1210579"><ele>0.0</ele><time>2026-04-29T17:15:44.047Z</time></trkpt><trkpt lat="38.2960917" lon="0.1211163"><ele>0.0</ele><time>2026-04-29T17:15:45.047Z</time></trkpt><trkpt lat="38.2961636" lon="0.1211746"><ele>0.0</ele><time>2026-04-29T17:15:46.047Z</time></trkpt><trkpt lat="38.296234" lon="0.1212341"><ele>0.0</ele><time>2026-04-29T17:15:47.048Z</time></trkpt><trkpt lat="38.2963071" lon="0.1212927"><ele>0.0</ele><time>2026-04-29T17:15:48.047Z</time></trkpt><trkpt lat="38.2963803" lon="0.1213497"><ele>0.0</ele><time>2026-04-29T17:15:49.047Z</time></trkpt><trkpt lat="38.2964522" lon="0.1214095"><ele>0.0</ele><time>2026-04-29T17:15:50.047Z</time></trkpt><trkpt lat="38.2965267" lon="0.1214709"><ele>0.0</ele><time>2026-04-29T17:15:51.047Z</time></trkpt><trkpt lat="38.2966001" lon="0.1215314"><ele>0.0</ele><time>2026-04-29T17:15:52.048Z</time></trkpt><trkpt lat="38.2966748" lon="0.1215914"><ele>0.0</ele><time>2026-04-29T17:15:53.047Z</time></trkpt><trkpt lat="38.2967494" lon="0.1216546"><ele>0.0</ele><time>2026-04-29T17:15:54.047Z</time></trkpt><trkpt lat="38.2968261" lon="0.1217178"><ele>0.0</ele><time>2026-04-29T17:15:55.048Z</time></trkpt><trkpt lat="38.2969057" lon="0.1217771"><ele>0.0</ele><time>2026-04-29T17:15:56.047Z</time></trkpt><trkpt lat="38.2969817" lon="0.1218382"><ele>0.0</ele><time>2026-04-29T17:15:57.048Z</time></trkpt><trkpt lat="38.2970564" lon="0.1218969"><ele>0.0</ele><time>2026-04-29T17:15:58.048Z</time></trkpt><trkpt lat="38.2971314" lon="0.1219547"><ele>0.0</ele><time>2026-04-29T17:15:59.047Z</time></trkpt><trkpt lat="38.2972845" lon="0.1220737"><ele>0.0</ele><time>2026-04-29T17:16:01.047Z</time></trkpt><trkpt lat="38.2973597" lon="0.1221311"><ele>0.0</ele><time>2026-04-29T17:16:02.047Z</time></trkpt><trkpt lat="38.2974332" lon="0.1221888"><ele>0.0</ele><time>2026-04-29T17:16:03.048Z</time></trkpt><trkpt lat="38.2975054" lon="0.1222451"><ele>0.0</ele><time>2026-04-29T17:16:04.047Z</time></trkpt><trkpt lat="38.2975784" lon="0.1223033"><ele>0.0</ele><time>2026-04-29T17:16:05.048Z</time></trkpt><trkpt lat="38.2976504" lon="0.1223586"><ele>0.0</ele><time>2026-04-29T17:16:06.047Z</time></trkpt><trkpt lat="38.2977205" lon="0.1224174"><ele>0.0</ele><time>2026-04-29T17:16:07.047Z</time></trkpt><trkpt lat="38.2977949" lon="0.122472"><ele>0.0</ele><time>2026-04-29T17:16:08.047Z</time></trkpt><trkpt lat="38.2978655" lon="0.12253"><ele>0.0</ele><time>2026-04-29T17:16:09.048Z</time></trkpt><trkpt lat="38.2979367" lon="0.1225898"><ele>0.0</ele><time>2026-04-29T17:16:10.048Z</time></trkpt><trkpt lat="38.2980071" lon="0.1226486"><ele>0.0</ele><time>2026-04-29T17:16:11.048Z</time></trkpt><trkpt lat="38.2980784" lon="0.1227073"><ele>0.0</ele><time>2026-04-29T17:16:12.048Z</time></trkpt><trkpt lat="38.298147" lon="0.1227672"><ele>0.0</ele><time>2026-04-29T17:16:13.048Z</time></trkpt><trkpt lat="38.2982169" lon="0.1228283"><ele>0.0</ele><time>2026-04-29T17:16:14.048Z</time></trkpt><trkpt lat="38.2982871" lon="0.1228869"><ele>0.0</ele><time>2026-04-29T17:16:15.048Z</time></trkpt><trkpt lat="38.2983553" lon="0.1229495"><ele>0.0</ele><time>2026-04-29T17:16:16.048Z</time></trkpt><trkpt lat="38.2984235" lon="0.1230074"><ele>0.0</ele><time>2026-04-29T17:16:17.047Z</time></trkpt><trkpt lat="38.2984949" lon="0.1230679"><ele>0.0</ele><time>2026-04-29T17:16:18.047Z</time></trkpt><trkpt lat="38.2985696" lon="0.1231283"><ele>0.0</ele><time>2026-04-29T17:16:19.047Z</time></trkpt><trkpt lat="38.2986431" lon="0.1231855"><ele>0.0</ele><time>2026-04-29T17:16:20.047Z</time></trkpt><trkpt lat="38.2987122" lon="0.1232468"><ele>0.0</ele><time>2026-04-29T17:16:21.048Z</time></trkpt><trkpt lat="38.2988521" lon="0.1233963"><ele>0.0</ele><time>2026-04-29T17:16:23.047Z</time></trkpt><trkpt lat="38.298922" lon="0.1234663"><ele>0.0</ele><time>2026-04-29T17:16:24.047Z</time></trkpt><trkpt lat="38.298991" lon="0.1235367"><ele>0.0</ele><time>2026-04-29T17:16:25.048Z</time></trkpt><trkpt lat="38.2990603" lon="0.1236014"><ele>0.0</ele><time>2026-04-29T17:16:26.048Z</time></trkpt><trkpt lat="38.2991302" lon="0.1236664"><ele>0.0</ele><time>2026-04-29T17:16:27.048Z</time></trkpt><trkpt lat="38.2992018" lon="0.1237301"><ele>0.0</ele><time>2026-04-29T17:16:28.047Z</time></trkpt><trkpt lat="38.299275" lon="0.1237947"><ele>0.0</ele><time>2026-04-29T17:16:29.048Z</time></trkpt><trkpt lat="38.299347" lon="0.1238555"><ele>0.0</ele><time>2026-04-29T17:16:30.047Z</time></trkpt><trkpt lat="38.2994185" lon="0.1239116"><ele>0.0</ele><time>2026-04-29T17:16:31.047Z</time></trkpt><trkpt lat="38.2994898" lon="0.1239703"><ele>0.0</ele><time>2026-04-29T17:16:32.048Z</time></trkpt><trkpt lat="38.2995631" lon="0.1240314"><ele>0.0</ele><time>2026-04-29T17:16:33.047Z</time></trkpt><trkpt lat="38.2996382" lon="0.1240852"><ele>0.0</ele><time>2026-04-29T17:16:34.047Z</time></trkpt><trkpt lat="38.2997149" lon="0.1241381"><ele>0.0</ele><time>2026-04-29T17:16:35.048Z</time></trkpt><trkpt lat="38.2997901" lon="0.1241931"><ele>0.0</ele><time>2026-04-29T17:16:36.048Z</time></trkpt><trkpt lat="38.2998648" lon="0.1242545"><ele>0.0</ele><time>2026-04-29T17:16:37.048Z</time></trkpt><trkpt lat="38.2999412" lon="0.1243132"><ele>0.0</ele><time>2026-04-29T17:16:38.047Z</time></trkpt><trkpt lat="38.300015" lon="0.1243717"><ele>0.0</ele><time>2026-04-29T17:16:39.048Z</time></trkpt><trkpt lat="38.3000853" lon="0.124432"><ele>0.0</ele><time>2026-04-29T17:16:40.047Z</time></trkpt><trkpt lat="38.3001541" lon="0.1244865"><ele>0.0</ele><time>2026-04-29T17:16:41.048Z</time></trkpt><trkpt lat="38.3002309" lon="0.1245322"><ele>0.0</ele><time>2026-04-29T17:16:42.047Z</time></trkpt><trkpt lat="38.3003828" lon="0.1246332"><ele>0.0</ele><time>2026-04-29T17:16:44.047Z</time></trkpt><trkpt lat="38.3004568" lon="0.124689"><ele>0.0</ele><time>2026-04-29T17:16:45.048Z</time></trkpt><trkpt lat="38.3005313" lon="0.1247519"><ele>0.0</ele><time>2026-04-29T17:16:46.048Z</time></trkpt><trkpt lat="38.3006075" lon="0.1248116"><ele>0.0</ele><time>2026-04-29T17:16:47.047Z</time></trkpt><trkpt lat="38.3006841" lon="0.1248677"><ele>0.0</ele><time>2026-04-29T17:16:48.047Z</time></trkpt><trkpt lat="38.3007581" lon="0.1249255"><ele>0.0</ele><time>2026-04-29T17:16:49.047Z</time></trkpt><trkpt lat="38.3008327" lon="0.1249842"><ele>0.0</ele><time>2026-04-29T17:16:50.048Z</time></trkpt><trkpt lat="38.3009095" lon="0.1250408"><ele>0.0</ele><time>2026-04-29T17:16:51.048Z</time></trkpt><trkpt lat="38.3009821" lon="0.1250994"><ele>0.0</ele><time>2026-04-29T17:16:52.048Z</time></trkpt><trkpt lat="38.3010537" lon="0.1251618"><ele>0.0</ele><time>2026-04-29T17:16:53.048Z</time></trkpt><trkpt lat="38.3011239" lon="0.1252236"><ele>0.0</ele><time>2026-04-29T17:16:54.048Z</time></trkpt><trkpt lat="38.3011965" lon="0.1252874"><ele>0.0</ele><time>2026-04-29T17:16:55.048Z</time></trkpt><trkpt lat="38.3012728" lon="0.1253434"><ele>0.0</ele><time>2026-04-29T17:16:56.047Z</time></trkpt><trkpt lat="38.3013492" lon="0.1253998"><ele>0.0</ele><time>2026-04-29T17:16:57.047Z</time></trkpt><trkpt lat="38.301426" lon="0.1254569"><ele>0.0</ele><time>2026-04-29T17:16:58.047Z</time></trkpt><trkpt lat="38.3014997" lon="0.1255195"><ele>0.0</ele><time>2026-04-29T17:16:59.047Z</time></trkpt><trkpt lat="38.3015731" lon="0.1255785"><ele>0.0</ele><time>2026-04-29T17:17:00.047Z</time></trkpt><trkpt lat="38.3016481" lon="0.1256385"><ele>0.0</ele><time>2026-04-29T17:17:01.047Z</time></trkpt><trkpt lat="38.3017218" lon="0.1256979"><ele>0.0</ele><time>2026-04-29T17:17:02.047Z</time></trkpt><trkpt lat="38.3017879" lon="0.1257593"><ele>0.0</ele><time>2026-04-29T17:17:03.047Z</time></trkpt><trkpt lat="38.3019275" lon="0.1258763"><ele>0.0</ele><time>2026-04-29T17:17:05.047Z</time></trkpt><trkpt lat="38.3019983" lon="0.1259346"><ele>0.0</ele><time>2026-04-29T17:17:06.047Z</time></trkpt><trkpt lat="38.3020686" lon="0.1259945"><ele>0.0</ele><time>2026-04-29T17:17:07.047Z</time></trkpt><trkpt lat="38.3021403" lon="0.1260532"><ele>0.0</ele><time>2026-04-29T17:17:08.048Z</time></trkpt><trkpt lat="38.3022064" lon="0.1261223"><ele>0.0</ele><time>2026-04-29T17:17:09.047Z</time></trkpt><trkpt lat="38.3022728" lon="0.1261866"><ele>0.0</ele><time>2026-04-29T17:17:10.047Z</time></trkpt><trkpt lat="38.3023437" lon="0.1262474"><ele>0.0</ele><time>2026-04-29T17:17:11.048Z</time></trkpt><trkpt lat="38.3024125" lon="0.1263136"><ele>0.0</ele><time>2026-04-29T17:17:12.047Z</time></trkpt><trkpt lat="38.3024837" lon="0.1263731"><ele>0.0</ele><time>2026-04-29T17:17:13.048Z</time></trkpt><trkpt lat="38.3025521" lon="0.1264432"><ele>0.0</ele><time>2026-04-29T17:17:14.047Z</time></trkpt><trkpt lat="38.3026247" lon="0.1265108"><ele>0.0</ele><time>2026-04-29T17:17:15.048Z</time></trkpt><trkpt lat="38.302698" lon="0.1265735"><ele>0.0</ele><time>2026-04-29T17:17:16.048Z</time></trkpt><trkpt lat="38.3027728" lon="0.1266344"><ele>0.0</ele><time>2026-04-29T17:17:17.048Z</time></trkpt><trkpt lat="38.3028469" lon="0.1266963"><ele>0.0</ele><time>2026-04-29T17:17:18.048Z</time></trkpt><trkpt lat="38.3029202" lon="0.1267547"><ele>0.0</ele><time>2026-04-29T17:17:19.047Z</time></trkpt><trkpt lat="38.3029918" lon="0.1268157"><ele>0.0</ele><time>2026-04-29T17:17:20.048Z</time></trkpt><trkpt lat="38.303061" lon="0.1268789"><ele>0.0</ele><time>2026-04-29T17:17:21.048Z</time></trkpt><trkpt lat="38.3031302" lon="0.1269399"><ele>0.0</ele><time>2026-04-29T17:17:22.048Z</time></trkpt><trkpt lat="38.3032002" lon="0.1269998"><ele>0.0</ele><time>2026-04-29T17:17:23.047Z</time></trkpt><trkpt lat="38.3032719" lon="0.1270618"><ele>0.0</ele><time>2026-04-29T17:17:24.047Z</time></trkpt><trkpt lat="38.3033448" lon="0.1271262"><ele>0.0</ele><time>2026-04-29T17:17:25.048Z</time></trkpt><trkpt lat="38.3034816" lon="0.1272581"><ele>0.0</ele><time>2026-04-29T17:17:27.048Z</time></trkpt><trkpt lat="38.3035535" lon="0.1273148"><ele>0.0</ele><time>2026-04-29T17:17:28.048Z</time></trkpt><trkpt lat="38.3036249" lon="0.127373"><ele>0.0</ele><time>2026-04-29T17:17:29.048Z</time></trkpt><trkpt lat="38.3036965" lon="0.1274344"><ele>0.0</ele><time>2026-04-29T17:17:30.047Z</time></trkpt><trkpt lat="38.3037696" lon="0.1275042"><ele>0.0</ele><time>2026-04-29T17:17:31.047Z</time></trkpt><trkpt lat="38.3038417" lon="0.1275726"><ele>0.0</ele><time>2026-04-29T17:17:32.047Z</time></trkpt><trkpt lat="38.3039128" lon="0.1276355"><ele>0.0</ele><time>2026-04-29T17:17:33.047Z</time></trkpt><trkpt lat="38.3039862" lon="0.1277029"><ele>0.0</ele><time>2026-04-29T17:17:34.048Z</time></trkpt><trkpt lat="38.3040555" lon="0.1277707"><ele>0.0</ele><time>2026-04-29T17:17:35.048Z</time></trkpt><trkpt lat="38.3041252" lon="0.1278366"><ele>0.0</ele><time>2026-04-29T17:17:36.047Z</time></trkpt><trkpt lat="38.3041938" lon="0.1279"><ele>0.0</ele><time>2026-04-29T17:17:37.048Z</time></trkpt><trkpt lat="38.3042593" lon="0.1279598"><ele>0.0</ele><time>2026-04-29T17:17:38.048Z</time></trkpt><trkpt lat="38.3043285" lon="0.1280211"><ele>0.0</ele><time>2026-04-29T17:17:39.047Z</time></trkpt><trkpt lat="38.3043983" lon="0.1280826"><ele>0.0</ele><time>2026-04-29T17:17:40.047Z</time></trkpt><trkpt lat="38.3044686" lon="0.128147"><ele>0.0</ele><time>2026-04-29T17:17:41.047Z</time></trkpt><trkpt lat="38.304543" lon="0.1282047"><ele>0.0</ele><time>2026-04-29T17:17:42.047Z</time></trkpt><trkpt lat="38.3046181" lon="0.1282588"><ele>0.0</ele><time>2026-04-29T17:17:43.048Z</time></trkpt><trkpt lat="38.3046918" lon="0.1283176"><ele>0.0</ele><time>2026-04-29T17:17:44.048Z</time></trkpt><trkpt lat="38.3047649" lon="0.1283785"><ele>0.0</ele><time>2026-04-29T17:17:45.048Z</time></trkpt><trkpt lat="38.3048367" lon="0.1284358"><ele>0.0</ele><time>2026-04-29T17:17:46.047Z</time></trkpt><trkpt lat="38.3049803" lon="0.1285523"><ele>0.0</ele><time>2026-04-29T17:17:48.047Z</time></trkpt><trkpt lat="38.3050517" lon="0.1286099"><ele>0.0</ele><time>2026-04-29T17:17:49.048Z</time></trkpt><trkpt lat="38.3051247" lon="0.1286629"><ele>0.0</ele><time>2026-04-29T17:17:50.047Z</time></trkpt><trkpt lat="38.3051995" lon="0.1287208"><ele>0.0</ele><time>2026-04-29T17:17:51.047Z</time></trkpt><trkpt lat="38.3052761" lon="0.1287795"><ele>0.0</ele><time>2026-04-29T17:17:52.048Z</time></trkpt><trkpt lat="38.3053516" lon="0.1288392"><ele>0.0</ele><time>2026-04-29T17:17:53.048Z</time></trkpt><trkpt lat="38.3054265" lon="0.1289028"><ele>0.0</ele><time>2026-04-29T17:17:54.047Z</time></trkpt><trkpt lat="38.3054999" lon="0.1289629"><ele>0.0</ele><time>2026-04-29T17:17:55.047Z</time></trkpt><trkpt lat="38.3055632" lon="0.1290428"><ele>0.0</ele><time>2026-04-29T17:17:56.048Z</time></trkpt><trkpt lat="38.3056312" lon="0.1291116"><ele>0.0</ele><time>2026-04-29T17:17:57.048Z</time></trkpt><trkpt lat="38.3057036" lon="0.1291807"><ele>0.0</ele><time>2026-04-29T17:17:58.048Z</time></trkpt><trkpt lat="38.3057811" lon="0.1292368"><ele>0.0</ele><time>2026-04-29T17:17:59.047Z</time></trkpt><trkpt lat="38.3058578" lon="0.1292945"><ele>0.0</ele><time>2026-04-29T17:18:00.047Z</time></trkpt><trkpt lat="38.3059318" lon="0.1293661"><ele>0.0</ele><time>2026-04-29T17:18:01.047Z</time></trkpt><trkpt lat="38.3060021" lon="0.1294283"><ele>0.0</ele><time>2026-04-29T17:18:02.047Z</time></trkpt><trkpt lat="38.3060774" lon="0.1294828"><ele>0.0</ele><time>2026-04-29T17:18:03.047Z</time></trkpt><trkpt lat="38.3061485" lon="0.1295432"><ele>0.0</ele><time>2026-04-29T17:18:04.048Z</time></trkpt><trkpt lat="38.3062229" lon="0.1296074"><ele>0.0</ele><time>2026-04-29T17:18:05.048Z</time></trkpt><trkpt lat="38.3062983" lon="0.1296692"><ele>0.0</ele><time>2026-04-29T17:18:06.048Z</time></trkpt><trkpt lat="38.3063675" lon="0.1297335"><ele>0.0</ele><time>2026-04-29T17:18:07.048Z</time></trkpt><trkpt lat="38.306509" lon="0.1298581"><ele>0.0</ele><time>2026-04-29T17:18:09.048Z</time></trkpt><trkpt lat="38.3065789" lon="0.129924"><ele>0.0</ele><time>2026-04-29T17:18:10.048Z</time></trkpt><trkpt lat="38.3066574" lon="0.1299801"><ele>0.0</ele><time>2026-04-29T17:18:11.047Z</time></trkpt><trkpt lat="38.3067286" lon="0.1300383"><ele>0.0</ele><time>2026-04-29T17:18:12.047Z</time></trkpt><trkpt lat="38.3068014" lon="0.1301069"><ele>0.0</ele><time>2026-04-29T17:18:13.048Z</time></trkpt><trkpt lat="38.3068733" lon="0.130174"><ele>0.0</ele><time>2026-04-29T17:18:14.048Z</time></trkpt><trkpt lat="38.3069451" lon="0.1302412"><ele>0.0</ele><time>2026-04-29T17:18:15.047Z</time></trkpt><trkpt lat="38.3070179" lon="0.130308"><ele>0.0</ele><time>2026-04-29T17:18:16.048Z</time></trkpt><trkpt lat="38.3070913" lon="0.130366"><ele>0.0</ele><time>2026-04-29T17:18:17.048Z</time></trkpt><trkpt lat="38.3071645" lon="0.1304298"><ele>0.0</ele><time>2026-04-29T17:18:18.047Z</time></trkpt><trkpt lat="38.3072353" lon="0.1304885"><ele>0.0</ele><time>2026-04-29T17:18:19.047Z</time></trkpt><trkpt lat="38.3073039" lon="0.1305455"><ele>0.0</ele><time>2026-04-29T17:18:20.048Z</time></trkpt><trkpt lat="38.3073781" lon="0.1306076"><ele>0.0</ele><time>2026-04-29T17:18:21.047Z</time></trkpt><trkpt lat="38.3074474" lon="0.1306682"><ele>0.0</ele><time>2026-04-29T17:18:22.048Z</time></trkpt><trkpt lat="38.3075185" lon="0.1307321"><ele>0.0</ele><time>2026-04-29T17:18:23.047Z</time></trkpt><trkpt lat="38.3075901" lon="0.1307945"><ele>0.0</ele><time>2026-04-29T17:18:24.047Z</time></trkpt><trkpt lat="38.3076602" lon="0.1308618"><ele>0.0</ele><time>2026-04-29T17:18:25.048Z</time></trkpt><trkpt lat="38.3077258" lon="0.130921"><ele>0.0</ele><time>2026-04-29T17:18:26.047Z</time></trkpt><trkpt lat="38.3077982" lon="0.1309744"><ele>0.0</ele><time>2026-04-29T17:18:27.048Z</time></trkpt><trkpt lat="38.3078702" lon="0.1310256"><ele>0.0</ele><time>2026-04-29T17:18:28.047Z</time></trkpt><trkpt lat="38.3079418" lon="0.1310818"><ele>0.0</ele><time>2026-04-29T17:18:29.046Z</time></trkpt><trkpt lat="38.3080867" lon="0.1311955"><ele>0.0</ele><time>2026-04-29T17:18:31.046Z</time></trkpt><trkpt lat="38.3081542" lon="0.1312523"><ele>0.0</ele><time>2026-04-29T17:18:32.046Z</time></trkpt><trkpt lat="38.3082195" lon="0.131312"><ele>0.0</ele><time>2026-04-29T17:18:33.046Z</time></trkpt><trkpt lat="38.3082917" lon="0.1313714"><ele>0.0</ele><time>2026-04-29T17:18:34.046Z</time></trkpt><trkpt lat="38.3083644" lon="0.1314361"><ele>0.0</ele><time>2026-04-29T17:18:35.047Z</time></trkpt><trkpt lat="38.3084381" lon="0.1315009"><ele>0.0</ele><time>2026-04-29T17:18:36.047Z</time></trkpt><trkpt lat="38.3085115" lon="0.1315629"><ele>0.0</ele><time>2026-04-29T17:18:37.046Z</time></trkpt><trkpt lat="38.3085864" lon="0.1316276"><ele>0.0</ele><time>2026-04-29T17:18:38.046Z</time></trkpt><trkpt lat="38.3086596" lon="0.131688"><ele>0.0</ele><time>2026-04-29T17:18:39.047Z</time></trkpt><trkpt lat="38.3087346" lon="0.131749"><ele>0.0</ele><time>2026-04-29T17:18:40.046Z</time></trkpt><trkpt lat="38.3088098" lon="0.1318079"><ele>0.0</ele><time>2026-04-29T17:18:41.046Z</time></trkpt><trkpt lat="38.3088845" lon="0.1318675"><ele>0.0</ele><time>2026-04-29T17:18:42.046Z</time></trkpt><trkpt lat="38.3089597" lon="0.1319248"><ele>0.0</ele><time>2026-04-29T17:18:43.047Z</time></trkpt><trkpt lat="38.3090319" lon="0.1319921"><ele>0.0</ele><time>2026-04-29T17:18:44.046Z</time></trkpt><trkpt lat="38.3091024" lon="0.1320608"><ele>0.0</ele><time>2026-04-29T17:18:45.046Z</time></trkpt><trkpt lat="38.3091736" lon="0.1321233"><ele>0.0</ele><time>2026-04-29T17:18:46.047Z</time></trkpt><trkpt lat="38.3092453" lon="0.1321831"><ele>0.0</ele><time>2026-04-29T17:18:47.046Z</time></trkpt><trkpt lat="38.3093182" lon="0.1322432"><ele>0.0</ele><time>2026-04-29T17:18:48.047Z</time></trkpt><trkpt lat="38.3093919" lon="0.1323019"><ele>0.0</ele><time>2026-04-29T17:18:49.046Z</time></trkpt><trkpt lat="38.3094667" lon="0.1323584"><ele>0.0</ele><time>2026-04-29T17:18:50.047Z</time></trkpt><trkpt lat="38.3096149" lon="0.1324723"><ele>0.0</ele><time>2026-04-29T17:18:52.047Z</time></trkpt><trkpt lat="38.3096881" lon="0.1325282"><ele>0.0</ele><time>2026-04-29T17:18:53.047Z</time></trkpt><trkpt lat="38.3097616" lon="0.1325848"><ele>0.0</ele><time>2026-04-29T17:18:54.047Z</time></trkpt><trkpt lat="38.3098351" lon="0.1326487"><ele>0.0</ele><time>2026-04-29T17:18:55.046Z</time></trkpt><trkpt lat="38.309907" lon="0.1327103"><ele>0.0</ele><time>2026-04-29T17:18:56.046Z</time></trkpt><trkpt lat="38.3099772" lon="0.1327705"><ele>0.0</ele><time>2026-04-29T17:18:57.046Z</time></trkpt><trkpt lat="38.3100485" lon="0.1328308"><ele>0.0</ele><time>2026-04-29T17:18:58.047Z</time></trkpt><trkpt lat="38.3101187" lon="0.1328904"><ele>0.0</ele><time>2026-04-29T17:18:59.046Z</time></trkpt><trkpt lat="38.3101929" lon="0.1329434"><ele>0.0</ele><time>2026-04-29T17:19:00.046Z</time></trkpt><trkpt lat="38.3102692" lon="0.1330065"><ele>0.0</ele><time>2026-04-29T17:19:01.047Z</time></trkpt><trkpt lat="38.3103419" lon="0.1330608"><ele>0.0</ele><time>2026-04-29T17:19:02.047Z</time></trkpt><trkpt lat="38.3104166" lon="0.133113"><ele>0.0</ele><time>2026-04-29T17:19:03.046Z</time></trkpt><trkpt lat="38.310483" lon="0.133173"><ele>0.0</ele><time>2026-04-29T17:19:04.046Z</time></trkpt><trkpt lat="38.3105568" lon="0.1332321"><ele>0.0</ele><time>2026-04-29T17:19:05.047Z</time></trkpt><trkpt lat="38.31063" lon="0.1332974"><ele>0.0</ele><time>2026-04-29T17:19:06.047Z</time></trkpt><trkpt lat="38.3107019" lon="0.1333643"><ele>0.0</ele><time>2026-04-29T17:19:07.046Z</time></trkpt><trkpt lat="38.3107735" lon="0.1334313"><ele>0.0</ele><time>2026-04-29T17:19:08.046Z</time></trkpt><trkpt lat="38.3108449" lon="0.1334964"><ele>0.0</ele><time>2026-04-29T17:19:09.046Z</time></trkpt><trkpt lat="38.3109166" lon="0.13356"><ele>0.0</ele><time>2026-04-29T17:19:10.047Z</time></trkpt><trkpt lat="38.3109898" lon="0.1336245"><ele>0.0</ele><time>2026-04-29T17:19:11.047Z</time></trkpt><trkpt lat="38.3111352" lon="0.1337464"><ele>0.0</ele><time>2026-04-29T17:19:13.047Z</time></trkpt><trkpt lat="38.3112068" lon="0.1338065"><ele>0.0</ele><time>2026-04-29T17:19:14.046Z</time></trkpt><trkpt lat="38.3112787" lon="0.1338644"><ele>0.0</ele><time>2026-04-29T17:19:15.047Z</time></trkpt><trkpt lat="38.3113515" lon="0.1339272"><ele>0.0</ele><time>2026-04-29T17:19:16.046Z</time></trkpt><trkpt lat="38.3114249" lon="0.1339868"><ele>0.0</ele><time>2026-04-29T17:19:17.046Z</time></trkpt><trkpt lat="38.3114967" lon="0.1340449"><ele>0.0</ele><time>2026-04-29T17:19:18.047Z</time></trkpt><trkpt lat="38.3115683" lon="0.1341041"><ele>0.0</ele><time>2026-04-29T17:19:19.046Z</time></trkpt><trkpt lat="38.3116418" lon="0.1341629"><ele>0.0</ele><time>2026-04-29T17:19:20.047Z</time></trkpt><trkpt lat="38.3117106" lon="0.1342288"><ele>0.0</ele><time>2026-04-29T17:19:21.047Z</time></trkpt><trkpt lat="38.3117814" lon="0.1342932"><ele>0.0</ele><time>2026-04-29T17:19:22.047Z</time></trkpt><trkpt lat="38.3118535" lon="0.1343608"><ele>0.0</ele><time>2026-04-29T17:19:23.046Z</time></trkpt><trkpt lat="38.3119223" lon="0.134425"><ele>0.0</ele><time>2026-04-29T17:19:24.047Z</time></trkpt><trkpt lat="38.3119961" lon="0.1344848"><ele>0.0</ele><time>2026-04-29T17:19:25.046Z</time></trkpt><trkpt lat="38.3120697" lon="0.1345495"><ele>0.0</ele><time>2026-04-29T17:19:26.046Z</time></trkpt><trkpt lat="38.3121447" lon="0.1346115"><ele>0.0</ele><time>2026-04-29T17:19:27.047Z</time></trkpt><trkpt lat="38.3122152" lon="0.1346725"><ele>0.0</ele><time>2026-04-29T17:19:28.046Z</time></trkpt><trkpt lat="38.312287" lon="0.1347312"><ele>0.0</ele><time>2026-04-29T17:19:29.047Z</time></trkpt><trkpt lat="38.3123586" lon="0.1347924"><ele>0.0</ele><time>2026-04-29T17:19:30.046Z</time></trkpt><trkpt lat="38.3124277" lon="0.1348535"><ele>0.0</ele><time>2026-04-29T17:19:31.046Z</time></trkpt><trkpt lat="38.3124968" lon="0.1349147"><ele>0.0</ele><time>2026-04-29T17:19:32.046Z</time></trkpt><trkpt lat="38.3125655" lon="0.1349801"><ele>0.0</ele><time>2026-04-29T17:19:33.046Z</time></trkpt><trkpt lat="38.3127071" lon="0.1351029"><ele>0.0</ele><time>2026-04-29T17:19:35.046Z</time></trkpt><trkpt lat="38.3127815" lon="0.1351588"><ele>0.0</ele><time>2026-04-29T17:19:36.046Z</time></trkpt><trkpt lat="38.3128567" lon="0.1352177"><ele>0.0</ele><time>2026-04-29T17:19:37.047Z</time></trkpt><trkpt lat="38.3129258" lon="0.1352791"><ele>0.0</ele><time>2026-04-29T17:19:38.046Z</time></trkpt><trkpt lat="38.3129982" lon="0.1353376"><ele>0.0</ele><time>2026-04-29T17:19:39.046Z</time></trkpt><trkpt lat="38.3130719" lon="0.1353947"><ele>0.0</ele><time>2026-04-29T17:19:40.046Z</time></trkpt><trkpt lat="38.3131448" lon="0.1354545"><ele>0.0</ele><time>2026-04-29T17:19:41.047Z</time></trkpt><trkpt lat="38.3132198" lon="0.1355123"><ele>0.0</ele><time>2026-04-29T17:19:42.046Z</time></trkpt><trkpt lat="38.313292" lon="0.135568"><ele>0.0</ele><time>2026-04-29T17:19:43.046Z</time></trkpt><trkpt lat="38.3133662" lon="0.1356281"><ele>0.0</ele><time>2026-04-29T17:19:44.047Z</time></trkpt><trkpt lat="38.3134369" lon="0.135696"><ele>0.0</ele><time>2026-04-29T17:19:45.046Z</time></trkpt><trkpt lat="38.3135085" lon="0.1357612"><ele>0.0</ele><time>2026-04-29T17:19:46.046Z</time></trkpt><trkpt lat="38.3135786" lon="0.1358261"><ele>0.0</ele><time>2026-04-29T17:19:47.047Z</time></trkpt><trkpt lat="38.3136499" lon="0.1358913"><ele>0.0</ele><time>2026-04-29T17:19:48.047Z</time></trkpt><trkpt lat="38.313722" lon="0.1359489"><ele>0.0</ele><time>2026-04-29T17:19:49.046Z</time></trkpt><trkpt lat="38.3137922" lon="0.1360053"><ele>0.0</ele><time>2026-04-29T17:19:50.047Z</time></trkpt><trkpt lat="38.3138637" lon="0.1360656"><ele>0.0</ele><time>2026-04-29T17:19:51.047Z</time></trkpt><trkpt lat="38.3139352" lon="0.136123"><ele>0.0</ele><time>2026-04-29T17:19:52.047Z</time></trkpt><trkpt lat="38.3140082" lon="0.1361854"><ele>0.0</ele><time>2026-04-29T17:19:53.046Z</time></trkpt><trkpt lat="38.3140832" lon="0.1362443"><ele>0.0</ele><time>2026-04-29T17:19:54.046Z</time></trkpt><trkpt lat="38.3142265" lon="0.1363745"><ele>0.0</ele><time>2026-04-29T17:19:56.046Z</time></trkpt><trkpt lat="38.3142996" lon="0.1364379"><ele>0.0</ele><time>2026-04-29T17:19:57.046Z</time></trkpt><trkpt lat="38.314373" lon="0.1365046"><ele>0.0</ele><time>2026-04-29T17:19:58.047Z</time></trkpt><trkpt lat="38.3144437" lon="0.1365742"><ele>0.0</ele><time>2026-04-29T17:19:59.047Z</time></trkpt><trkpt lat="38.3145095" lon="0.1366444"><ele>0.0</ele><time>2026-04-29T17:20:00.046Z</time></trkpt><trkpt lat="38.3145789" lon="0.1367117"><ele>0.0</ele><time>2026-04-29T17:20:01.046Z</time></trkpt><trkpt lat="38.3146502" lon="0.1367766"><ele>0.0</ele><time>2026-04-29T17:20:02.046Z</time></trkpt><trkpt lat="38.314722" lon="0.13684"><ele>0.0</ele><time>2026-04-29T17:20:03.046Z</time></trkpt><trkpt lat="38.314792" lon="0.1369048"><ele>0.0</ele><time>2026-04-29T17:20:04.046Z</time></trkpt><trkpt lat="38.3148651" lon="0.1369662"><ele>0.0</ele><time>2026-04-29T17:20:05.046Z</time></trkpt><trkpt lat="38.3149401" lon="0.1370248"><ele>0.0</ele><time>2026-04-29T17:20:06.047Z</time></trkpt><trkpt lat="38.315015" lon="0.1370832"><ele>0.0</ele><time>2026-04-29T17:20:07.046Z</time></trkpt><trkpt lat="38.3150897" lon="0.137142"><ele>0.0</ele><time>2026-04-29T17:20:08.046Z</time></trkpt><trkpt lat="38.3151646" lon="0.1372061"><ele>0.0</ele><time>2026-04-29T17:20:09.046Z</time></trkpt><trkpt lat="38.315241" lon="0.1372662"><ele>0.0</ele><time>2026-04-29T17:20:10.046Z</time></trkpt><trkpt lat="38.3153174" lon="0.1373244"><ele>0.0</ele><time>2026-04-29T17:20:11.047Z</time></trkpt><trkpt lat="38.3153915" lon="0.13738"><ele>0.0</ele><time>2026-04-29T17:20:12.047Z</time></trkpt><trkpt lat="38.3154633" lon="0.1374515"><ele>0.0</ele><time>2026-04-29T17:20:13.047Z</time></trkpt><trkpt lat="38.3155363" lon="0.1375177"><ele>0.0</ele><time>2026-04-29T17:20:14.047Z</time></trkpt><trkpt lat="38.3156084" lon="0.1375815"><ele>0.0</ele><time>2026-04-29T17:20:15.047Z</time></trkpt><trkpt lat="38.3157532" lon="0.1377047"><ele>0.0</ele><time>2026-04-29T17:20:17.047Z</time></trkpt><trkpt lat="38.3158249" lon="0.1377697"><ele>0.0</ele><time>2026-04-29T17:20:18.047Z</time></trkpt><trkpt lat="38.3158985" lon="0.1378348"><ele>0.0</ele><time>2026-04-29T17:20:19.047Z</time></trkpt><trkpt lat="38.3159701" lon="0.1378998"><ele>0.0</ele><time>2026-04-29T17:20:20.047Z</time></trkpt><trkpt lat="38.3160416" lon="0.1379647"><ele>0.0</ele><time>2026-04-29T17:20:21.046Z</time></trkpt><trkpt lat="38.3161149" lon="0.138025"><ele>0.0</ele><time>2026-04-29T17:20:22.046Z</time></trkpt><trkpt lat="38.3161869" lon="0.1380862"><ele>0.0</ele><time>2026-04-29T17:20:23.047Z</time></trkpt><trkpt lat="38.3162585" lon="0.138148"><ele>0.0</ele><time>2026-04-29T17:20:24.047Z</time></trkpt><trkpt lat="38.3163317" lon="0.1382116"><ele>0.0</ele><time>2026-04-29T17:20:25.047Z</time></trkpt><trkpt lat="38.3164035" lon="0.1382763"><ele>0.0</ele><time>2026-04-29T17:20:26.047Z</time></trkpt><trkpt lat="38.3164736" lon="0.1383401"><ele>0.0</ele><time>2026-04-29T17:20:27.047Z</time></trkpt><trkpt lat="38.3165449" lon="0.1383995"><ele>0.0</ele><time>2026-04-29T17:20:28.047Z</time></trkpt><trkpt lat="38.3166166" lon="0.1384601"><ele>0.0</ele><time>2026-04-29T17:20:29.047Z</time></trkpt><trkpt lat="38.3166868" lon="0.1385216"><ele>0.0</ele><time>2026-04-29T17:20:30.046Z</time></trkpt><trkpt lat="38.3167571" lon="0.1385841"><ele>0.0</ele><time>2026-04-29T17:20:31.046Z</time></trkpt><trkpt lat="38.316827" lon="0.1386479"><ele>0.0</ele><time>2026-04-29T17:20:32.046Z</time></trkpt><trkpt lat="38.3168983" lon="0.1387099"><ele>0.0</ele><time>2026-04-29T17:20:33.047Z</time></trkpt><trkpt lat="38.3169686" lon="0.1387707"><ele>0.0</ele><time>2026-04-29T17:20:34.046Z</time></trkpt><trkpt lat="38.3170386" lon="0.1388303"><ele>0.0</ele><time>2026-04-29T17:20:35.046Z</time></trkpt><trkpt lat="38.3171116" lon="0.1388919"><ele>0.0</ele><time>2026-04-29T17:20:36.046Z</time></trkpt><trkpt lat="38.3171849" lon="0.1389535"><ele>0.0</ele><time>2026-04-29T17:20:37.046Z</time></trkpt><trkpt lat="38.3173289" lon="0.1390843"><ele>0.0</ele><time>2026-04-29T17:20:39.047Z</time></trkpt><trkpt lat="38.317403" lon="0.1391463"><ele>0.0</ele><time>2026-04-29T17:20:40.046Z</time></trkpt><trkpt lat="38.3174737" lon="0.1391996"><ele>0.0</ele><time>2026-04-29T17:20:41.046Z</time></trkpt><trkpt lat="38.3175423" lon="0.1392588"><ele>0.0</ele><time>2026-04-29T17:20:42.046Z</time></trkpt><trkpt lat="38.3176123" lon="0.1393175"><ele>0.0</ele><time>2026-04-29T17:20:43.046Z</time></trkpt><trkpt lat="38.3176808" lon="0.139379"><ele>0.0</ele><time>2026-04-29T17:20:44.046Z</time></trkpt><trkpt lat="38.3177523" lon="0.1394398"><ele>0.0</ele><time>2026-04-29T17:20:45.047Z</time></trkpt><trkpt lat="38.3178235" lon="0.1394986"><ele>0.0</ele><time>2026-04-29T17:20:46.046Z</time></trkpt><trkpt lat="38.3178938" lon="0.1395613"><ele>0.0</ele><time>2026-04-29T17:20:47.046Z</time></trkpt><trkpt lat="38.3179652" lon="0.1396206"><ele>0.0</ele><time>2026-04-29T17:20:48.047Z</time></trkpt><trkpt lat="38.3180354" lon="0.1396786"><ele>0.0</ele><time>2026-04-29T17:20:49.047Z</time></trkpt><trkpt lat="38.3181109" lon="0.1397396"><ele>0.0</ele><time>2026-04-29T17:20:50.047Z</time></trkpt><trkpt lat="38.3181833" lon="0.1398027"><ele>0.0</ele><time>2026-04-29T17:20:51.046Z</time></trkpt><trkpt lat="38.3182523" lon="0.139865"><ele>0.0</ele><time>2026-04-29T17:20:52.046Z</time></trkpt><trkpt lat="38.318322" lon="0.139928"><ele>0.0</ele><time>2026-04-29T17:20:53.046Z</time></trkpt><trkpt lat="38.3183949" lon="0.1399911"><ele>0.0</ele><time>2026-04-29T17:20:54.046Z</time></trkpt><trkpt lat="38.3184668" lon="0.1400601"><ele>0.0</ele><time>2026-04-29T17:20:55.047Z</time></trkpt><trkpt lat="38.3185371" lon="0.1401292"><ele>0.0</ele><time>2026-04-29T17:20:56.046Z</time></trkpt><trkpt lat="38.3186086" lon="0.1401931"><ele>0.0</ele><time>2026-04-29T17:20:57.046Z</time></trkpt><trkpt lat="38.3186802" lon="0.1402566"><ele>0.0</ele><time>2026-04-29T17:20:58.046Z</time></trkpt><trkpt lat="38.3188224" lon="0.1403817"><ele>0.0</ele><time>2026-04-29T17:21:00.046Z</time></trkpt><trkpt lat="38.3188938" lon="0.1404423"><ele>0.0</ele><time>2026-04-29T17:21:01.046Z</time></trkpt><trkpt lat="38.3189664" lon="0.1405023"><ele>0.0</ele><time>2026-04-29T17:21:02.046Z</time></trkpt><trkpt lat="38.3190398" lon="0.1405615"><ele>0.0</ele><time>2026-04-29T17:21:03.046Z</time></trkpt><trkpt lat="38.319112" lon="0.14062"><ele>0.0</ele><time>2026-04-29T17:21:04.046Z</time></trkpt><trkpt lat="38.3191867" lon="0.1406761"><ele>0.0</ele><time>2026-04-29T17:21:05.046Z</time></trkpt><trkpt lat="38.3192599" lon="0.1407324"><ele>0.0</ele><time>2026-04-29T17:21:06.047Z</time></trkpt><trkpt lat="38.3193334" lon="0.1407906"><ele>0.0</ele><time>2026-04-29T17:21:07.046Z</time></trkpt><trkpt lat="38.3194065" lon="0.1408549"><ele>0.0</ele><time>2026-04-29T17:21:08.046Z</time></trkpt><trkpt lat="38.3194842" lon="0.1409172"><ele>0.0</ele><time>2026-04-29T17:21:09.046Z</time></trkpt><trkpt lat="38.3195614" lon="0.1409761"><ele>0.0</ele><time>2026-04-29T17:21:10.047Z</time></trkpt><trkpt lat="38.3196366" lon="0.1410365"><ele>0.0</ele><time>2026-04-29T17:21:11.046Z</time></trkpt><trkpt lat="38.319707" lon="0.1411043"><ele>0.0</ele><time>2026-04-29T17:21:12.046Z</time></trkpt><trkpt lat="38.3197801" lon="0.1411661"><ele>0.0</ele><time>2026-04-29T17:21:13.047Z</time></trkpt><trkpt lat="38.3198547" lon="0.1412326"><ele>0.0</ele><time>2026-04-29T17:21:14.047Z</time></trkpt><trkpt lat="38.3199297" lon="0.1413011"><ele>0.0</ele><time>2026-04-29T17:21:15.046Z</time></trkpt><trkpt lat="38.3200032" lon="0.1413599"><ele>0.0</ele><time>2026-04-29T17:21:16.046Z</time></trkpt><trkpt lat="38.3200766" lon="0.1414179"><ele>0.0</ele><time>2026-04-29T17:21:17.047Z</time></trkpt><trkpt lat="38.3201513" lon="0.1414796"><ele>0.0</ele><time>2026-04-29T17:21:18.046Z</time></trkpt><trkpt lat="38.3202233" lon="0.1415459"><ele>0.0</ele><time>2026-04-29T17:21:19.046Z</time></trkpt><trkpt lat="38.3203667" lon="0.1416767"><ele>0.0</ele><time>2026-04-29T17:21:21.046Z</time></trkpt><trkpt lat="38.3204385" lon="0.1417375"><ele>0.0</ele><time>2026-04-29T17:21:22.046Z</time></trkpt><trkpt lat="38.3205117" lon="0.1417979"><ele>0.0</ele><time>2026-04-29T17:21:23.047Z</time></trkpt><trkpt lat="38.3205836" lon="0.141857"><ele>0.0</ele><time>2026-04-29T17:21:24.046Z</time></trkpt><trkpt lat="38.3206539" lon="0.141919"><ele>0.0</ele><time>2026-04-29T17:21:25.046Z</time></trkpt><trkpt lat="38.3207266" lon="0.1419812"><ele>0.0</ele><time>2026-04-29T17:21:26.046Z</time></trkpt><trkpt lat="38.3207999" lon="0.1420441"><ele>0.0</ele><time>2026-04-29T17:21:27.046Z</time></trkpt><trkpt lat="38.3208719" lon="0.142105"><ele>0.0</ele><time>2026-04-29T17:21:28.046Z</time></trkpt><trkpt lat="38.3209448" lon="0.142167"><ele>0.0</ele><time>2026-04-29T17:21:29.047Z</time></trkpt><trkpt lat="38.3210184" lon="0.1422213"><ele>0.0</ele><time>2026-04-29T17:21:30.046Z</time></trkpt><trkpt lat="38.3210915" lon="0.1422816"><ele>0.0</ele><time>2026-04-29T17:21:31.047Z</time></trkpt><trkpt lat="38.3211635" lon="0.1423421"><ele>0.0</ele><time>2026-04-29T17:21:32.047Z</time></trkpt><trkpt lat="38.3212368" lon="0.142402"><ele>0.0</ele><time>2026-04-29T17:21:33.047Z</time></trkpt><trkpt lat="38.3213058" lon="0.1424674"><ele>0.0</ele><time>2026-04-29T17:21:34.046Z</time></trkpt><trkpt lat="38.3213742" lon="0.1425272"><ele>0.0</ele><time>2026-04-29T17:21:35.047Z</time></trkpt><trkpt lat="38.3214452" lon="0.1425797"><ele>0.0</ele><time>2026-04-29T17:21:36.047Z</time></trkpt><trkpt lat="38.3215127" lon="0.1426442"><ele>0.0</ele><time>2026-04-29T17:21:37.046Z</time></trkpt><trkpt lat="38.3215861" lon="0.1427162"><ele>0.0</ele><time>2026-04-29T17:21:38.046Z</time></trkpt><trkpt lat="38.3216598" lon="0.1427738"><ele>0.0</ele><time>2026-04-29T17:21:39.047Z</time></trkpt><trkpt lat="38.3217363" lon="0.1428319"><ele>0.0</ele><time>2026-04-29T17:21:40.046Z</time></trkpt><trkpt lat="38.3218073" lon="0.1428863"><ele>0.0</ele><time>2026-04-29T17:21:41.046Z</time></trkpt><trkpt lat="38.3219442" lon="0.1430108"><ele>0.0</ele><time>2026-04-29T17:21:43.047Z</time></trkpt><trkpt lat="38.3220169" lon="0.1430711"><ele>0.0</ele><time>2026-04-29T17:21:44.047Z</time></trkpt><trkpt lat="38.3220902" lon="0.1431315"><ele>0.0</ele><time>2026-04-29T17:21:45.047Z</time></trkpt><trkpt lat="38.3221605" lon="0.1431945"><ele>0.0</ele><time>2026-04-29T17:21:46.047Z</time></trkpt><trkpt lat="38.3222304" lon="0.143258"><ele>0.0</ele><time>2026-04-29T17:21:47.046Z</time></trkpt><trkpt lat="38.3223004" lon="0.1433242"><ele>0.0</ele><time>2026-04-29T17:21:48.046Z</time></trkpt><trkpt lat="38.3223718" lon="0.1433901"><ele>0.0</ele><time>2026-04-29T17:21:49.046Z</time></trkpt><trkpt lat="38.3224449" lon="0.1434554"><ele>0.0</ele><time>2026-04-29T17:21:50.046Z</time></trkpt><trkpt lat="38.3225155" lon="0.1435229"><ele>0.0</ele><time>2026-04-29T17:21:51.046Z</time></trkpt><trkpt lat="38.3225869" lon="0.1435903"><ele>0.0</ele><time>2026-04-29T17:21:52.046Z</time></trkpt><trkpt lat="38.3226571" lon="0.1436582"><ele>0.0</ele><time>2026-04-29T17:21:53.047Z</time></trkpt><trkpt lat="38.3227284" lon="0.1437172"><ele>0.0</ele><time>2026-04-29T17:21:54.047Z</time></trkpt><trkpt lat="38.3227986" lon="0.1437784"><ele>0.0</ele><time>2026-04-29T17:21:55.046Z</time></trkpt><trkpt lat="38.3228698" lon="0.1438374"><ele>0.0</ele><time>2026-04-29T17:21:56.046Z</time></trkpt><trkpt lat="38.322943" lon="0.1438974"><ele>0.0</ele><time>2026-04-29T17:21:57.047Z</time></trkpt><trkpt lat="38.323015" lon="0.1439546"><ele>0.0</ele><time>2026-04-29T17:21:58.047Z</time></trkpt><trkpt lat="38.3230867" lon="0.1440053"><ele>0.0</ele><time>2026-04-29T17:21:59.046Z</time></trkpt><trkpt lat="38.3231568" lon="0.1440574"><ele>0.0</ele><time>2026-04-29T17:22:00.046Z</time></trkpt><trkpt lat="38.3232258" lon="0.1441166"><ele>0.0</ele><time>2026-04-29T17:22:01.046Z</time></trkpt><trkpt lat="38.3232995" lon="0.1441762"><ele>0.0</ele><time>2026-04-29T17:22:02.046Z</time></trkpt><trkpt lat="38.3234466" lon="0.1442997"><ele>0.0</ele><time>2026-04-29T17:22:04.046Z</time></trkpt><trkpt lat="38.3235184" lon="0.1443572"><ele>0.0</ele><time>2026-04-29T17:22:05.046Z</time></trkpt><trkpt lat="38.3235914" lon="0.1444209"><ele>0.0</ele><time>2026-04-29T17:22:06.046Z</time></trkpt><trkpt lat="38.3236621" lon="0.1444889"><ele>0.0</ele><time>2026-04-29T17:22:07.047Z</time></trkpt><trkpt lat="38.3237364" lon="0.1445517"><ele>0.0</ele><time>2026-04-29T17:22:08.047Z</time></trkpt><trkpt lat="38.3238098" lon="0.1446205"><ele>0.0</ele><time>2026-04-29T17:22:09.047Z</time></trkpt><trkpt lat="38.3238858" lon="0.1446929"><ele>0.0</ele><time>2026-04-29T17:22:10.046Z</time></trkpt><trkpt lat="38.3239612" lon="0.1447505"><ele>0.0</ele><time>2026-04-29T17:22:11.046Z</time></trkpt><trkpt lat="38.3240337" lon="0.1448108"><ele>0.0</ele><time>2026-04-29T17:22:12.047Z</time></trkpt><trkpt lat="38.3241038" lon="0.1448758"><ele>0.0</ele><time>2026-04-29T17:22:13.046Z</time></trkpt><trkpt lat="38.3241779" lon="0.1449421"><ele>0.0</ele><time>2026-04-29T17:22:14.046Z</time></trkpt><trkpt lat="38.3242513" lon="0.1450065"><ele>0.0</ele><time>2026-04-29T17:22:15.046Z</time></trkpt><trkpt lat="38.3243175" lon="0.1450695"><ele>0.0</ele><time>2026-04-29T17:22:16.047Z</time></trkpt><trkpt lat="38.324383" lon="0.1451272"><ele>0.0</ele><time>2026-04-29T17:22:17.047Z</time></trkpt><trkpt lat="38.3244536" lon="0.1451846"><ele>0.0</ele><time>2026-04-29T17:22:18.047Z</time></trkpt><trkpt lat="38.3245261" lon="0.1452414"><ele>0.0</ele><time>2026-04-29T17:22:19.046Z</time></trkpt><trkpt lat="38.3246041" lon="0.1453031"><ele>0.0</ele><time>2026-04-29T17:22:20.046Z</time></trkpt><trkpt lat="38.3246765" lon="0.14536"><ele>0.0</ele><time>2026-04-29T17:22:21.047Z</time></trkpt><trkpt lat="38.3247526" lon="0.1454211"><ele>0.0</ele><time>2026-04-29T17:22:22.046Z</time></trkpt><trkpt lat="38.3248225" lon="0.1454945"><ele>0.0</ele><time>2026-04-29T17:22:23.047Z</time></trkpt><trkpt lat="38.3249608" lon="0.145635"><ele>0.0</ele><time>2026-04-29T17:22:25.046Z</time></trkpt><trkpt lat="38.3250246" lon="0.1457054"><ele>0.0</ele><time>2026-04-29T17:22:26.047Z</time></trkpt><trkpt lat="38.3250941" lon="0.1457702"><ele>0.0</ele><time>2026-04-29T17:22:27.047Z</time></trkpt><trkpt lat="38.3251665" lon="0.1458348"><ele>0.0</ele><time>2026-04-29T17:22:28.045Z</time></trkpt><trkpt lat="38.3252399" lon="0.1458982"><ele>0.0</ele><time>2026-04-29T17:22:29.046Z</time></trkpt><trkpt lat="38.3253119" lon="0.1459479"><ele>0.0</ele><time>2026-04-29T17:22:30.046Z</time></trkpt><trkpt lat="38.3253846" lon="0.1460048"><ele>0.0</ele><time>2026-04-29T17:22:31.045Z</time></trkpt><trkpt lat="38.3254582" lon="0.1460616"><ele>0.0</ele><time>2026-04-29T17:22:32.046Z</time></trkpt><trkpt lat="38.3255347" lon="0.1461314"><ele>0.0</ele><time>2026-04-29T17:22:33.045Z</time></trkpt><trkpt lat="38.3256098" lon="0.1461957"><ele>0.0</ele><time>2026-04-29T17:22:34.046Z</time></trkpt><trkpt lat="38.3256777" lon="0.1462609"><ele>0.0</ele><time>2026-04-29T17:22:35.045Z</time></trkpt><trkpt lat="38.3257501" lon="0.1463195"><ele>0.0</ele><time>2026-04-29T17:22:36.045Z</time></trkpt><trkpt lat="38.3258247" lon="0.1463779"><ele>0.0</ele><time>2026-04-29T17:22:37.045Z</time></trkpt><trkpt lat="38.3259009" lon="0.1464315"><ele>0.0</ele><time>2026-04-29T17:22:38.045Z</time></trkpt><trkpt lat="38.3259748" lon="0.1464826"><ele>0.0</ele><time>2026-04-29T17:22:39.046Z</time></trkpt><trkpt lat="38.3260496" lon="0.1465341"><ele>0.0</ele><time>2026-04-29T17:22:40.045Z</time></trkpt><trkpt lat="38.326126" lon="0.1465885"><ele>0.0</ele><time>2026-04-29T17:22:41.045Z</time></trkpt><trkpt lat="38.3262027" lon="0.1466393"><ele>0.0</ele><time>2026-04-29T17:22:42.046Z</time></trkpt><trkpt lat="38.3262794" lon="0.1466943"><ele>0.0</ele><time>2026-04-29T17:22:43.045Z</time></trkpt><trkpt lat="38.3263589" lon="0.1467462"><ele>0.0</ele><time>2026-04-29T17:22:44.046Z</time></trkpt><trkpt lat="38.3265081" lon="0.1468635"><ele>0.0</ele><time>2026-04-29T17:22:46.046Z</time></trkpt><trkpt lat="38.3265873" lon="0.1469144"><ele>0.0</ele><time>2026-04-29T17:22:47.045Z</time></trkpt><trkpt lat="38.3266614" lon="0.1469657"><ele>0.0</ele><time>2026-04-29T17:22:48.046Z</time></trkpt><trkpt lat="38.3267322" lon="0.1470305"><ele>0.0</ele><time>2026-04-29T17:22:49.045Z</time></trkpt><trkpt lat="38.3268034" lon="0.147096"><ele>0.0</ele><time>2026-04-29T17:22:50.045Z</time></trkpt><trkpt lat="38.3268737" lon="0.1471601"><ele>0.0</ele><time>2026-04-29T17:22:51.045Z</time></trkpt><trkpt lat="38.3269369" lon="0.1472233"><ele>0.0</ele><time>2026-04-29T17:22:52.045Z</time></trkpt><trkpt lat="38.3270027" lon="0.1472838"><ele>0.0</ele><time>2026-04-29T17:22:53.045Z</time></trkpt><trkpt lat="38.327071" lon="0.1473439"><ele>0.0</ele><time>2026-04-29T17:22:54.045Z</time></trkpt><trkpt lat="38.3271405" lon="0.1474023"><ele>0.0</ele><time>2026-04-29T17:22:55.046Z</time></trkpt><trkpt lat="38.3272078" lon="0.1474651"><ele>0.0</ele><time>2026-04-29T17:22:56.046Z</time></trkpt><trkpt lat="38.3272787" lon="0.1475286"><ele>0.0</ele><time>2026-04-29T17:22:57.045Z</time></trkpt><trkpt lat="38.3273543" lon="0.1475908"><ele>0.0</ele><time>2026-04-29T17:22:58.046Z</time></trkpt><trkpt lat="38.3274293" lon="0.1476521"><ele>0.0</ele><time>2026-04-29T17:22:59.045Z</time></trkpt><trkpt lat="38.3275003" lon="0.1477142"><ele>0.0</ele><time>2026-04-29T17:23:00.045Z</time></trkpt><trkpt lat="38.327573" lon="0.1477835"><ele>0.0</ele><time>2026-04-29T17:23:01.046Z</time></trkpt><trkpt lat="38.327646" lon="0.1478553"><ele>0.0</ele><time>2026-04-29T17:23:02.045Z</time></trkpt><trkpt lat="38.3277223" lon="0.1479205"><ele>0.0</ele><time>2026-04-29T17:23:03.046Z</time></trkpt><trkpt lat="38.3277962" lon="0.1479817"><ele>0.0</ele><time>2026-04-29T17:23:04.046Z</time></trkpt><trkpt lat="38.3278712" lon="0.1480445"><ele>0.0</ele><time>2026-04-29T17:23:05.045Z</time></trkpt><trkpt lat="38.3280171" lon="0.1481681"><ele>0.0</ele><time>2026-04-29T17:23:07.045Z</time></trkpt><trkpt lat="38.328084" lon="0.1482256"><ele>0.0</ele><time>2026-04-29T17:23:08.045Z</time></trkpt><trkpt lat="38.3281536" lon="0.1482825"><ele>0.0</ele><time>2026-04-29T17:23:09.046Z</time></trkpt><trkpt lat="38.3282236" lon="0.1483389"><ele>0.0</ele><time>2026-04-29T17:23:10.045Z</time></trkpt><trkpt lat="38.328295" lon="0.1483958"><ele>0.0</ele><time>2026-04-29T17:23:11.046Z</time></trkpt><trkpt lat="38.3283665" lon="0.1484612"><ele>0.0</ele><time>2026-04-29T17:23:12.045Z</time></trkpt><trkpt lat="38.3284342" lon="0.1485304"><ele>0.0</ele><time>2026-04-29T17:23:13.045Z</time></trkpt><trkpt lat="38.3285077" lon="0.1485909"><ele>0.0</ele><time>2026-04-29T17:23:14.045Z</time></trkpt><trkpt lat="38.3285758" lon="0.1486565"><ele>0.0</ele><time>2026-04-29T17:23:15.046Z</time></trkpt><trkpt lat="38.328651" lon="0.1487179"><ele>0.0</ele><time>2026-04-29T17:23:16.045Z</time></trkpt><trkpt lat="38.3287289" lon="0.1487823"><ele>0.0</ele><time>2026-04-29T17:23:17.045Z</time></trkpt><trkpt lat="38.3288044" lon="0.1488453"><ele>0.0</ele><time>2026-04-29T17:23:18.045Z</time></trkpt><trkpt lat="38.3288781" lon="0.1489065"><ele>0.0</ele><time>2026-04-29T17:23:19.046Z</time></trkpt><trkpt lat="38.3289484" lon="0.1489696"><ele>0.0</ele><time>2026-04-29T17:23:20.046Z</time></trkpt><trkpt lat="38.3290172" lon="0.1490305"><ele>0.0</ele><time>2026-04-29T17:23:21.045Z</time></trkpt><trkpt lat="38.3290854" lon="0.1490866"><ele>0.0</ele><time>2026-04-29T17:23:22.045Z</time></trkpt><trkpt lat="38.3291567" lon="0.1491384"><ele>0.0</ele><time>2026-04-29T17:23:23.046Z</time></trkpt><trkpt lat="38.3292298" lon="0.1491927"><ele>0.0</ele><time>2026-04-29T17:23:24.046Z</time></trkpt><trkpt lat="38.3293017" lon="0.1492535"><ele>0.0</ele><time>2026-04-29T17:23:25.045Z</time></trkpt><trkpt lat="38.3293792" lon="0.149312"><ele>0.0</ele><time>2026-04-29T17:23:26.045Z</time></trkpt><trkpt lat="38.3295281" lon="0.1494431"><ele>0.0</ele><time>2026-04-29T17:23:28.046Z</time></trkpt><trkpt lat="38.3296005" lon="0.1495107"><ele>0.0</ele><time>2026-04-29T17:23:29.045Z</time></trkpt><trkpt lat="38.3296647" lon="0.1495834"><ele>0.0</ele><time>2026-04-29T17:23:30.046Z</time></trkpt><trkpt lat="38.3297339" lon="0.1496525"><ele>0.0</ele><time>2026-04-29T17:23:31.045Z</time></trkpt><trkpt lat="38.3298036" lon="0.1497212"><ele>0.0</ele><time>2026-04-29T17:23:32.045Z</time></trkpt><trkpt lat="38.3298708" lon="0.149783"><ele>0.0</ele><time>2026-04-29T17:23:33.045Z</time></trkpt><trkpt lat="38.3299399" lon="0.1498417"><ele>0.0</ele><time>2026-04-29T17:23:34.046Z</time></trkpt><trkpt lat="38.3300119" lon="0.1499071"><ele>0.0</ele><time>2026-04-29T17:23:35.046Z</time></trkpt><trkpt lat="38.3300851" lon="0.1499747"><ele>0.0</ele><time>2026-04-29T17:23:36.045Z</time></trkpt><trkpt lat="38.330158" lon="0.1500362"><ele>0.0</ele><time>2026-04-29T17:23:37.046Z</time></trkpt><trkpt lat="38.330237" lon="0.1500944"><ele>0.0</ele><time>2026-04-29T17:23:38.045Z</time></trkpt><trkpt lat="38.3303128" lon="0.1501553"><ele>0.0</ele><time>2026-04-29T17:23:39.045Z</time></trkpt><trkpt lat="38.3303866" lon="0.1502152"><ele>0.0</ele><time>2026-04-29T17:23:40.045Z</time></trkpt><trkpt lat="38.3304599" lon="0.1502754"><ele>0.0</ele><time>2026-04-29T17:23:41.045Z</time></trkpt><trkpt lat="38.3305333" lon="0.1503352"><ele>0.0</ele><time>2026-04-29T17:23:42.046Z</time></trkpt><trkpt lat="38.3306068" lon="0.1503963"><ele>0.0</ele><time>2026-04-29T17:23:43.045Z</time></trkpt><trkpt lat="38.3306798" lon="0.1504555"><ele>0.0</ele><time>2026-04-29T17:23:44.046Z</time></trkpt><trkpt lat="38.3307504" lon="0.1505113"><ele>0.0</ele><time>2026-04-29T17:23:45.046Z</time></trkpt><trkpt lat="38.3308206" lon="0.1505707"><ele>0.0</ele><time>2026-04-29T17:23:46.045Z</time></trkpt><trkpt lat="38.3308902" lon="0.150633"><ele>0.0</ele><time>2026-04-29T17:23:47.045Z</time></trkpt><trkpt lat="38.3310299" lon="0.1507616"><ele>0.0</ele><time>2026-04-29T17:23:49.046Z</time></trkpt><trkpt lat="38.3311018" lon="0.1508263"><ele>0.0</ele><time>2026-04-29T17:23:50.045Z</time></trkpt><trkpt lat="38.3311751" lon="0.1508854"><ele>0.0</ele><time>2026-04-29T17:23:51.045Z</time></trkpt><trkpt lat="38.3312439" lon="0.1509489"><ele>0.0</ele><time>2026-04-29T17:23:52.045Z</time></trkpt><trkpt lat="38.3313151" lon="0.1510098"><ele>0.0</ele><time>2026-04-29T17:23:53.045Z</time></trkpt><trkpt lat="38.3313925" lon="0.1510726"><ele>0.0</ele><time>2026-04-29T17:23:54.045Z</time></trkpt><trkpt lat="38.3314653" lon="0.1511367"><ele>0.0</ele><time>2026-04-29T17:23:55.046Z</time></trkpt><trkpt lat="38.3315397" lon="0.1512027"><ele>0.0</ele><time>2026-04-29T17:23:56.046Z</time></trkpt><trkpt lat="38.3316118" lon="0.151264"><ele>0.0</ele><time>2026-04-29T17:23:57.046Z</time></trkpt><trkpt lat="38.3316793" lon="0.1513408"><ele>0.0</ele><time>2026-04-29T17:23:58.046Z</time></trkpt><trkpt lat="38.3317504" lon="0.1514058"><ele>0.0</ele><time>2026-04-29T17:23:59.045Z</time></trkpt><trkpt lat="38.331819" lon="0.1514732"><ele>0.0</ele><time>2026-04-29T17:24:00.046Z</time></trkpt><trkpt lat="38.3318888" lon="0.1515414"><ele>0.0</ele><time>2026-04-29T17:24:01.046Z</time></trkpt><trkpt lat="38.3319604" lon="0.1516024"><ele>0.0</ele><time>2026-04-29T17:24:02.045Z</time></trkpt><trkpt lat="38.3320334" lon="0.1516623"><ele>0.0</ele><time>2026-04-29T17:24:03.046Z</time></trkpt><trkpt lat="38.332108" lon="0.1517254"><ele>0.0</ele><time>2026-04-29T17:24:04.045Z</time></trkpt><trkpt lat="38.3321831" lon="0.151786"><ele>0.0</ele><time>2026-04-29T17:24:05.046Z</time></trkpt><trkpt lat="38.332254" lon="0.1518458"><ele>0.0</ele><time>2026-04-29T17:24:06.045Z</time></trkpt><trkpt lat="38.3323213" lon="0.1519061"><ele>0.0</ele><time>2026-04-29T17:24:07.046Z</time></trkpt><trkpt lat="38.3323863" lon="0.1519605"><ele>0.0</ele><time>2026-04-29T17:24:08.045Z</time></trkpt><trkpt lat="38.3325283" lon="0.1520883"><ele>0.0</ele><time>2026-04-29T17:24:10.046Z</time></trkpt><trkpt lat="38.3326046" lon="0.1521499"><ele>0.0</ele><time>2026-04-29T17:24:11.046Z</time></trkpt><trkpt lat="38.3326823" lon="0.1522103"><ele>0.0</ele><time>2026-04-29T17:24:12.045Z</time></trkpt><trkpt lat="38.3327562" lon="0.1522724"><ele>0.0</ele><time>2026-04-29T17:24:13.046Z</time></trkpt><trkpt lat="38.3328241" lon="0.1523375"><ele>0.0</ele><time>2026-04-29T17:24:14.046Z</time></trkpt><trkpt lat="38.3328968" lon="0.1523984"><ele>0.0</ele><time>2026-04-29T17:24:15.045Z</time></trkpt><trkpt lat="38.3329711" lon="0.1524635"><ele>0.0</ele><time>2026-04-29T17:24:16.045Z</time></trkpt><trkpt lat="38.333046" lon="0.1525229"><ele>0.0</ele><time>2026-04-29T17:24:17.046Z</time></trkpt><trkpt lat="38.3331197" lon="0.1525797"><ele>0.0</ele><time>2026-04-29T17:24:18.045Z</time></trkpt><trkpt lat="38.3331928" lon="0.1526376"><ele>0.0</ele><time>2026-04-29T17:24:19.045Z</time></trkpt><trkpt lat="38.3332665" lon="0.1527008"><ele>0.0</ele><time>2026-04-29T17:24:20.046Z</time></trkpt><trkpt lat="38.3333398" lon="0.1527572"><ele>0.0</ele><time>2026-04-29T17:24:21.046Z</time></trkpt><trkpt lat="38.333412" lon="0.1528184"><ele>0.0</ele><time>2026-04-29T17:24:22.046Z</time></trkpt><trkpt lat="38.3334864" lon="0.1528816"><ele>0.0</ele><time>2026-04-29T17:24:23.046Z</time></trkpt><trkpt lat="38.3335572" lon="0.1529467"><ele>0.0</ele><time>2026-04-29T17:24:24.045Z</time></trkpt><trkpt lat="38.3336288" lon="0.153009"><ele>0.0</ele><time>2026-04-29T17:24:25.046Z</time></trkpt><trkpt lat="38.3336989" lon="0.1530711"><ele>0.0</ele><time>2026-04-29T17:24:26.045Z</time></trkpt><trkpt lat="38.3337673" lon="0.1531315"><ele>0.0</ele><time>2026-04-29T17:24:27.046Z</time></trkpt><trkpt lat="38.3338385" lon="0.1531884"><ele>0.0</ele><time>2026-04-29T17:24:28.046Z</time></trkpt><trkpt lat="38.3339083" lon="0.1532431"><ele>0.0</ele><time>2026-04-29T17:24:29.045Z</time></trkpt><trkpt lat="38.3340568" lon="0.153363"><ele>0.0</ele><time>2026-04-29T17:24:31.045Z</time></trkpt><trkpt lat="38.3341299" lon="0.1534183"><ele>0.0</ele><time>2026-04-29T17:24:32.046Z</time></trkpt><trkpt lat="38.3342033" lon="0.1534718"><ele>0.0</ele><time>2026-04-29T17:24:33.046Z</time></trkpt><trkpt lat="38.3342766" lon="0.1535296"><ele>0.0</ele><time>2026-04-29T17:24:34.045Z</time></trkpt><trkpt lat="38.3343498" lon="0.1535916"><ele>0.0</ele><time>2026-04-29T17:24:35.046Z</time></trkpt><trkpt lat="38.3344233" lon="0.1536589"><ele>0.0</ele><time>2026-04-29T17:24:36.045Z</time></trkpt><trkpt lat="38.3344924" lon="0.1537309"><ele>0.0</ele><time>2026-04-29T17:24:37.045Z</time></trkpt><trkpt lat="38.3345648" lon="0.1538003"><ele>0.0</ele><time>2026-04-29T17:24:38.045Z</time></trkpt><trkpt lat="38.3346367" lon="0.1538657"><ele>0.0</ele><time>2026-04-29T17:24:39.045Z</time></trkpt><trkpt lat="38.3347097" lon="0.1539211"><ele>0.0</ele><time>2026-04-29T17:24:40.045Z</time></trkpt><trkpt lat="38.3347845" lon="0.1539809"><ele>0.0</ele><time>2026-04-29T17:24:41.046Z</time></trkpt><trkpt lat="38.3348595" lon="0.1540423"><ele>0.0</ele><time>2026-04-29T17:24:42.046Z</time></trkpt><trkpt lat="38.3349259" lon="0.1541115"><ele>0.0</ele><time>2026-04-29T17:24:43.045Z</time></trkpt><trkpt lat="38.3349942" lon="0.1541763"><ele>0.0</ele><time>2026-04-29T17:24:44.045Z</time></trkpt><trkpt lat="38.3350657" lon="0.1542391"><ele>0.0</ele><time>2026-04-29T17:24:45.045Z</time></trkpt><trkpt lat="38.3351326" lon="0.1543064"><ele>0.0</ele><time>2026-04-29T17:24:46.046Z</time></trkpt><trkpt lat="38.3352005" lon="0.1543671"><ele>0.0</ele><time>2026-04-29T17:24:47.045Z</time></trkpt><trkpt lat="38.3352733" lon="0.154425"><ele>0.0</ele><time>2026-04-29T17:24:48.046Z</time></trkpt><trkpt lat="38.3353466" lon="0.1544868"><ele>0.0</ele><time>2026-04-29T17:24:49.045Z</time></trkpt><trkpt lat="38.3354183" lon="0.1545484"><ele>0.0</ele><time>2026-04-29T17:24:50.045Z</time></trkpt><trkpt lat="38.3354926" lon="0.1546119"><ele>0.0</ele><time>2026-04-29T17:24:51.045Z</time></trkpt><trkpt lat="38.3356393" lon="0.1547335"><ele>0.0</ele><time>2026-04-29T17:24:53.046Z</time></trkpt><trkpt lat="38.3357132" lon="0.1547969"><ele>0.0</ele><time>2026-04-29T17:24:54.045Z</time></trkpt><trkpt lat="38.3357878" lon="0.1548577"><ele>0.0</ele><time>2026-04-29T17:24:55.045Z</time></trkpt><trkpt lat="38.3358598" lon="0.1549307"><ele>0.0</ele><time>2026-04-29T17:24:56.046Z</time></trkpt><trkpt lat="38.3359274" lon="0.1549995"><ele>0.0</ele><time>2026-04-29T17:24:57.046Z</time></trkpt><trkpt lat="38.3359984" lon="0.1550629"><ele>0.0</ele><time>2026-04-29T17:24:58.045Z</time></trkpt><trkpt lat="38.33607" lon="0.1551235"><ele>0.0</ele><time>2026-04-29T17:24:59.045Z</time></trkpt><trkpt lat="38.3361401" lon="0.1551884"><ele>0.0</ele><time>2026-04-29T17:25:00.046Z</time></trkpt><trkpt lat="38.3362101" lon="0.1552541"><ele>0.0</ele><time>2026-04-29T17:25:01.046Z</time></trkpt><trkpt lat="38.3362829" lon="0.1553165"><ele>0.0</ele><time>2026-04-29T17:25:02.045Z</time></trkpt><trkpt lat="38.3363493" lon="0.1553717"><ele>0.0</ele><time>2026-04-29T17:25:03.045Z</time></trkpt><trkpt lat="38.3364217" lon="0.1554338"><ele>0.0</ele><time>2026-04-29T17:25:04.045Z</time></trkpt><trkpt lat="38.3364889" lon="0.1554971"><ele>0.0</ele><time>2026-04-29T17:25:05.046Z</time></trkpt><trkpt lat="38.3365642" lon="0.1555735"><ele>0.0</ele><time>2026-04-29T17:25:06.045Z</time></trkpt><trkpt lat="38.3366436" lon="0.1556426"><ele>0.0</ele><time>2026-04-29T17:25:07.045Z</time></trkpt><trkpt lat="38.3367191" lon="0.1557066"><ele>0.0</ele><time>2026-04-29T17:25:08.045Z</time></trkpt><trkpt lat="38.336793" lon="0.1557695"><ele>0.0</ele><time>2026-04-29T17:25:09.046Z</time></trkpt><trkpt lat="38.3368677" lon="0.1558284"><ele>0.0</ele><time>2026-04-29T17:25:10.046Z</time></trkpt><trkpt lat="38.3369389" lon="0.155889"><ele>0.0</ele><time>2026-04-29T17:25:11.046Z</time></trkpt><trkpt lat="38.337006" lon="0.1559587"><ele>0.0</ele><time>2026-04-29T17:25:12.046Z</time></trkpt><trkpt lat="38.3371411" lon="0.1560812"><ele>0.0</ele><time>2026-04-29T17:25:14.046Z</time></trkpt><trkpt lat="38.3372148" lon="0.1561364"><ele>0.0</ele><time>2026-04-29T17:25:15.046Z</time></trkpt><trkpt lat="38.3372896" lon="0.156198"><ele>0.0</ele><time>2026-04-29T17:25:16.045Z</time></trkpt><trkpt lat="38.3373618" lon="0.156252"><ele>0.0</ele><time>2026-04-29T17:25:17.045Z</time></trkpt><trkpt lat="38.3374394" lon="0.1563035"><ele>0.0</ele><time>2026-04-29T17:25:18.046Z</time></trkpt><trkpt lat="38.3375164" lon="0.1563613"><ele>0.0</ele><time>2026-04-29T17:25:19.045Z</time></trkpt><trkpt lat="38.337586" lon="0.1564258"><ele>0.0</ele><time>2026-04-29T17:25:20.045Z</time></trkpt><trkpt lat="38.3376571" lon="0.1564866"><ele>0.0</ele><time>2026-04-29T17:25:21.045Z</time></trkpt><trkpt lat="38.3377275" lon="0.1565512"><ele>0.0</ele><time>2026-04-29T17:25:22.045Z</time></trkpt><trkpt lat="38.3377984" lon="0.1566157"><ele>0.0</ele><time>2026-04-29T17:25:23.045Z</time></trkpt><trkpt lat="38.3378701" lon="0.1566801"><ele>0.0</ele><time>2026-04-29T17:25:24.045Z</time></trkpt><trkpt lat="38.337942" lon="0.1567451"><ele>0.0</ele><time>2026-04-29T17:25:25.046Z</time></trkpt><trkpt lat="38.3380164" lon="0.1568071"><ele>0.0</ele><time>2026-04-29T17:25:26.045Z</time></trkpt><trkpt lat="38.3380902" lon="0.1568635"><ele>0.0</ele><time>2026-04-29T17:25:27.046Z</time></trkpt><trkpt lat="38.3381619" lon="0.1569132"><ele>0.0</ele><time>2026-04-29T17:25:28.045Z</time></trkpt><trkpt lat="38.3382364" lon="0.1569688"><ele>0.0</ele><time>2026-04-29T17:25:29.045Z</time></trkpt><trkpt lat="38.3383113" lon="0.1570294"><ele>0.0</ele><time>2026-04-29T17:25:30.046Z</time></trkpt><trkpt lat="38.3383805" lon="0.1570906"><ele>0.0</ele><time>2026-04-29T17:25:31.046Z</time></trkpt><trkpt lat="38.338455" lon="0.157161"><ele>0.0</ele><time>2026-04-29T17:25:32.045Z</time></trkpt><trkpt lat="38.338527" lon="0.15722"><ele>0.0</ele><time>2026-04-29T17:25:33.045Z</time></trkpt><trkpt lat="38.3386644" lon="0.1573438"><ele>0.0</ele><time>2026-04-29T17:25:35.045Z</time></trkpt><trkpt lat="38.3387367" lon="0.157403"><ele>0.0</ele><time>2026-04-29T17:25:36.046Z</time></trkpt><trkpt lat="38.3388129" lon="0.1574585"><ele>0.0</ele><time>2026-04-29T17:25:37.045Z</time></trkpt><trkpt lat="38.3388908" lon="0.1575167"><ele>0.0</ele><time>2026-04-29T17:25:38.046Z</time></trkpt><trkpt lat="38.3389692" lon="0.1575706"><ele>0.0</ele><time>2026-04-29T17:25:39.045Z</time></trkpt><trkpt lat="38.3390431" lon="0.1576436"><ele>0.0</ele><time>2026-04-29T17:25:40.046Z</time></trkpt><trkpt lat="38.3391068" lon="0.1577112"><ele>0.0</ele><time>2026-04-29T17:25:41.045Z</time></trkpt><trkpt lat="38.3391746" lon="0.1577867"><ele>0.0</ele><time>2026-04-29T17:25:42.046Z</time></trkpt><trkpt lat="38.3392455" lon="0.157858"><ele>0.0</ele><time>2026-04-29T17:25:43.045Z</time></trkpt><trkpt lat="38.3393128" lon="0.1579213"><ele>0.0</ele><time>2026-04-29T17:25:44.045Z</time></trkpt><trkpt lat="38.3393824" lon="0.1579825"><ele>0.0</ele><time>2026-04-29T17:25:45.045Z</time></trkpt><trkpt lat="38.3394534" lon="0.1580547"><ele>0.0</ele><time>2026-04-29T17:25:46.046Z</time></trkpt><trkpt lat="38.3395269" lon="0.1581254"><ele>0.0</ele><time>2026-04-29T17:25:47.045Z</time></trkpt><trkpt lat="38.3396029" lon="0.1581839"><ele>0.0</ele><time>2026-04-29T17:25:48.045Z</time></trkpt><trkpt lat="38.3396807" lon="0.158254"><ele>0.0</ele><time>2026-04-29T17:25:49.046Z</time></trkpt><trkpt lat="38.339752" lon="0.1583135"><ele>0.0</ele><time>2026-04-29T17:25:50.046Z</time></trkpt><trkpt lat="38.3398234" lon="0.1583811"><ele>0.0</ele><time>2026-04-29T17:25:51.046Z</time></trkpt><trkpt lat="38.3398934" lon="0.1584551"><ele>0.0</ele><time>2026-04-29T17:25:52.046Z</time></trkpt><trkpt lat="38.3399666" lon="0.158518"><ele>0.0</ele><time>2026-04-29T17:25:53.046Z</time></trkpt><trkpt lat="38.3400398" lon="0.1585769"><ele>0.0</ele><time>2026-04-29T17:25:54.045Z</time></trkpt><trkpt lat="38.3401829" lon="0.1586876"><ele>0.0</ele><time>2026-04-29T17:25:56.046Z</time></trkpt><trkpt lat="38.3402523" lon="0.158745"><ele>0.0</ele><time>2026-04-29T17:25:57.045Z</time></trkpt><trkpt lat="38.3403251" lon="0.1588044"><ele>0.0</ele><time>2026-04-29T17:25:58.045Z</time></trkpt><trkpt lat="38.3403982" lon="0.1588618"><ele>0.0</ele><time>2026-04-29T17:25:59.045Z</time></trkpt><trkpt lat="38.34047" lon="0.1589244"><ele>0.0</ele><time>2026-04-29T17:26:00.045Z</time></trkpt><trkpt lat="38.3405417" lon="0.1589834"><ele>0.0</ele><time>2026-04-29T17:26:01.045Z</time></trkpt><trkpt lat="38.3406119" lon="0.1590421"><ele>0.0</ele><time>2026-04-29T17:26:02.046Z</time></trkpt><trkpt lat="38.3406817" lon="0.1590985"><ele>0.0</ele><time>2026-04-29T17:26:03.046Z</time></trkpt><trkpt lat="38.3407532" lon="0.1591617"><ele>0.0</ele><time>2026-04-29T17:26:04.045Z</time></trkpt><trkpt lat="38.3408265" lon="0.1592213"><ele>0.0</ele><time>2026-04-29T17:26:05.046Z</time></trkpt><trkpt lat="38.340897" lon="0.1592826"><ele>0.0</ele><time>2026-04-29T17:26:06.046Z</time></trkpt><trkpt lat="38.3409713" lon="0.1593414"><ele>0.0</ele><time>2026-04-29T17:26:07.045Z</time></trkpt><trkpt lat="38.3410448" lon="0.1593971"><ele>0.0</ele><time>2026-04-29T17:26:08.045Z</time></trkpt><trkpt lat="38.3411165" lon="0.1594582"><ele>0.0</ele><time>2026-04-29T17:26:09.045Z</time></trkpt><trkpt lat="38.3411896" lon="0.1595171"><ele>0.0</ele><time>2026-04-29T17:26:10.045Z</time></trkpt><trkpt lat="38.34126" lon="0.1595832"><ele>0.0</ele><time>2026-04-29T17:26:11.045Z</time></trkpt><trkpt lat="38.3413343" lon="0.1596421"><ele>0.0</ele><time>2026-04-29T17:26:12.045Z</time></trkpt><trkpt lat="38.3414066" lon="0.1597048"><ele>0.0</ele><time>2026-04-29T17:26:13.046Z</time></trkpt><trkpt lat="38.3414796" lon="0.1597705"><ele>0.0</ele><time>2026-04-29T17:26:14.045Z</time></trkpt><trkpt lat="38.3415544" lon="0.1598363"><ele>0.0</ele><time>2026-04-29T17:26:15.046Z</time></trkpt><trkpt lat="38.3416967" lon="0.1599622"><ele>0.0</ele><time>2026-04-29T17:26:17.046Z</time></trkpt><trkpt lat="38.341767" lon="0.1600249"><ele>0.0</ele><time>2026-04-29T17:26:18.046Z</time></trkpt><trkpt lat="38.3418369" lon="0.1600869"><ele>0.0</ele><time>2026-04-29T17:26:19.045Z</time></trkpt><trkpt lat="38.3419056" lon="0.1601467"><ele>0.0</ele><time>2026-04-29T17:26:20.045Z</time></trkpt><trkpt lat="38.341974" lon="0.1602116"><ele>0.0</ele><time>2026-04-29T17:26:21.046Z</time></trkpt><trkpt lat="38.3420436" lon="0.1602711"><ele>0.0</ele><time>2026-04-29T17:26:22.045Z</time></trkpt><trkpt lat="38.3421153" lon="0.1603272"><ele>0.0</ele><time>2026-04-29T17:26:23.045Z</time></trkpt><trkpt lat="38.3421826" lon="0.1603843"><ele>0.0</ele><time>2026-04-29T17:26:24.045Z</time></trkpt><trkpt lat="38.3422508" lon="0.1604457"><ele>0.0</ele><time>2026-04-29T17:26:25.045Z</time></trkpt><trkpt lat="38.3423202" lon="0.1605094"><ele>0.0</ele><time>2026-04-29T17:26:26.046Z</time></trkpt><trkpt lat="38.3423946" lon="0.1605733"><ele>0.0</ele><time>2026-04-29T17:26:27.044Z</time></trkpt><trkpt lat="38.3424709" lon="0.1606326"><ele>0.0</ele><time>2026-04-29T17:26:28.044Z</time></trkpt><trkpt lat="38.3425531" lon="0.1606805"><ele>0.0</ele><time>2026-04-29T17:26:29.044Z</time></trkpt><trkpt lat="38.3426293" lon="0.1607404"><ele>0.0</ele><time>2026-04-29T17:26:30.044Z</time></trkpt><trkpt lat="38.3427043" lon="0.1608024"><ele>0.0</ele><time>2026-04-29T17:26:31.044Z</time></trkpt><trkpt lat="38.3427822" lon="0.1608624"><ele>0.0</ele><time>2026-04-29T17:26:32.044Z</time></trkpt><trkpt lat="38.3428524" lon="0.1609234"><ele>0.0</ele><time>2026-04-29T17:26:33.045Z</time></trkpt><trkpt lat="38.3429235" lon="0.1609826"><ele>0.0</ele><time>2026-04-29T17:26:34.044Z</time></trkpt><trkpt lat="38.3429966" lon="0.1610401"><ele>0.0</ele><time>2026-04-29T17:26:35.045Z</time></trkpt><trkpt lat="38.343064" lon="0.1611094"><ele>0.0</ele><time>2026-04-29T17:26:36.044Z</time></trkpt><trkpt lat="38.3432022" lon="0.1612478"><ele>0.0</ele><time>2026-04-29T17:26:38.044Z</time></trkpt><trkpt lat="38.3432705" lon="0.1613144"><ele>0.0</ele><time>2026-04-29T17:26:39.044Z</time></trkpt><trkpt lat="38.3433448" lon="0.1613785"><ele>0.0</ele><time>2026-04-29T17:26:40.045Z</time></trkpt><trkpt lat="38.3434138" lon="0.1614428"><ele>0.0</ele><time>2026-04-29T17:26:41.044Z</time></trkpt><trkpt lat="38.343484" lon="0.1615109"><ele>0.0</ele><time>2026-04-29T17:26:42.045Z</time></trkpt><trkpt lat="38.3435569" lon="0.161576"><ele>0.0</ele><time>2026-04-29T17:26:43.044Z</time></trkpt><trkpt lat="38.3436328" lon="0.1616367"><ele>0.0</ele><time>2026-04-29T17:26:44.045Z</time></trkpt><trkpt lat="38.343705" lon="0.1616973"><ele>0.0</ele><time>2026-04-29T17:26:45.045Z</time></trkpt><trkpt lat="38.3437781" lon="0.1617517"><ele>0.0</ele><time>2026-04-29T17:26:46.044Z</time></trkpt><trkpt lat="38.3438543" lon="0.1618075"><ele>0.0</ele><time>2026-04-29T17:26:47.045Z</time></trkpt><trkpt lat="38.3439266" lon="0.1618726"><ele>0.0</ele><time>2026-04-29T17:26:48.044Z</time></trkpt><trkpt lat="38.3439985" lon="0.1619432"><ele>0.0</ele><time>2026-04-29T17:26:49.044Z</time></trkpt><trkpt lat="38.3440702" lon="0.1620101"><ele>0.0</ele><time>2026-04-29T17:26:50.044Z</time></trkpt><trkpt lat="38.3441406" lon="0.1620808"><ele>0.0</ele><time>2026-04-29T17:26:51.044Z</time></trkpt><trkpt lat="38.3442105" lon="0.1621443"><ele>0.0</ele><time>2026-04-29T17:26:52.044Z</time></trkpt><trkpt lat="38.3442818" lon="0.1622066"><ele>0.0</ele><time>2026-04-29T17:26:53.045Z</time></trkpt><trkpt lat="38.3443549" lon="0.1622656"><ele>0.0</ele><time>2026-04-29T17:26:54.044Z</time></trkpt><trkpt lat="38.3444254" lon="0.1623279"><ele>0.0</ele><time>2026-04-29T17:26:55.045Z</time></trkpt><trkpt lat="38.3444981" lon="0.1623857"><ele>0.0</ele><time>2026-04-29T17:26:56.045Z</time></trkpt><trkpt lat="38.3445717" lon="0.1624456"><ele>0.0</ele><time>2026-04-29T17:26:57.044Z</time></trkpt><trkpt lat="38.34472" lon="0.1625675"><ele>0.0</ele><time>2026-04-29T17:26:59.044Z</time></trkpt><trkpt lat="38.3447905" lon="0.1626325"><ele>0.0</ele><time>2026-04-29T17:27:00.045Z</time></trkpt><trkpt lat="38.3448648" lon="0.1626972"><ele>0.0</ele><time>2026-04-29T17:27:01.045Z</time></trkpt><trkpt lat="38.3449367" lon="0.1627669"><ele>0.0</ele><time>2026-04-29T17:27:02.044Z</time></trkpt><trkpt lat="38.3450041" lon="0.1628503"><ele>0.0</ele><time>2026-04-29T17:27:03.044Z</time></trkpt><trkpt lat="38.3450749" lon="0.1629309"><ele>0.0</ele><time>2026-04-29T17:27:04.044Z</time></trkpt><trkpt lat="38.3451469" lon="0.1630062"><ele>0.0</ele><time>2026-04-29T17:27:05.045Z</time></trkpt><trkpt lat="38.3452183" lon="0.1630735"><ele>0.0</ele><time>2026-04-29T17:27:06.044Z</time></trkpt><trkpt lat="38.3452932" lon="0.1631312"><ele>0.0</ele><time>2026-04-29T17:27:07.045Z</time></trkpt><trkpt lat="38.3453682" lon="0.1631834"><ele>0.0</ele><time>2026-04-29T17:27:08.045Z</time></trkpt><trkpt lat="38.3454419" lon="0.1632447"><ele>0.0</ele><time>2026-04-29T17:27:09.044Z</time></trkpt><trkpt lat="38.3455148" lon="0.163294"><ele>0.0</ele><time>2026-04-29T17:27:10.044Z</time></trkpt><trkpt lat="38.3455911" lon="0.1633437"><ele>0.0</ele><time>2026-04-29T17:27:11.045Z</time></trkpt><trkpt lat="38.3456633" lon="0.1634111"><ele>0.0</ele><time>2026-04-29T17:27:12.045Z</time></trkpt><trkpt lat="38.3457346" lon="0.1634726"><ele>0.0</ele><time>2026-04-29T17:27:13.044Z</time></trkpt><trkpt lat="38.3458037" lon="0.1635401"><ele>0.0</ele><time>2026-04-29T17:27:14.044Z</time></trkpt><trkpt lat="38.3458779" lon="0.1635968"><ele>0.0</ele><time>2026-04-29T17:27:15.045Z</time></trkpt><trkpt lat="38.3459529" lon="0.1636412"><ele>0.0</ele><time>2026-04-29T17:27:16.045Z</time></trkpt><trkpt lat="38.3460265" lon="0.1636952"><ele>0.0</ele><time>2026-04-29T17:27:17.045Z</time></trkpt><trkpt lat="38.3461057" lon="0.163745"><ele>0.0</ele><time>2026-04-29T17:27:18.044Z</time></trkpt><trkpt lat="38.3462519" lon="0.1638695"><ele>0.0</ele><time>2026-04-29T17:27:20.044Z</time></trkpt><trkpt lat="38.3463204" lon="0.1639409"><ele>0.0</ele><time>2026-04-29T17:27:21.044Z</time></trkpt><trkpt lat="38.3463918" lon="0.1640075"><ele>0.0</ele><time>2026-04-29T17:27:22.044Z</time></trkpt><trkpt lat="38.3464548" lon="0.1640744"><ele>0.0</ele><time>2026-04-29T17:27:23.044Z</time></trkpt><trkpt lat="38.3465227" lon="0.16414"><ele>0.0</ele><time>2026-04-29T17:27:24.045Z</time></trkpt><trkpt lat="38.3465934" lon="0.1641953"><ele>0.0</ele><time>2026-04-29T17:27:25.045Z</time></trkpt><trkpt lat="38.346661" lon="0.1642548"><ele>0.0</ele><time>2026-04-29T17:27:26.045Z</time></trkpt><trkpt lat="38.3467303" lon="0.1643201"><ele>0.0</ele><time>2026-04-29T17:27:27.044Z</time></trkpt><trkpt lat="38.3468017" lon="0.1643777"><ele>0.0</ele><time>2026-04-29T17:27:28.044Z</time></trkpt><trkpt lat="38.3468721" lon="0.1644355"><ele>0.0</ele><time>2026-04-29T17:27:29.045Z</time></trkpt><trkpt lat="38.3469405" lon="0.1645006"><ele>0.0</ele><time>2026-04-29T17:27:30.044Z</time></trkpt><trkpt lat="38.3470087" lon="0.1645644"><ele>0.0</ele><time>2026-04-29T17:27:31.044Z</time></trkpt><trkpt lat="38.3470802" lon="0.1646249"><ele>0.0</ele><time>2026-04-29T17:27:32.044Z</time></trkpt><trkpt lat="38.3471575" lon="0.1646882"><ele>0.0</ele><time>2026-04-29T17:27:33.045Z</time></trkpt><trkpt lat="38.3472283" lon="0.1647516"><ele>0.0</ele><time>2026-04-29T17:27:34.044Z</time></trkpt><trkpt lat="38.3473029" lon="0.1648149"><ele>0.0</ele><time>2026-04-29T17:27:35.045Z</time></trkpt><trkpt lat="38.3473779" lon="0.1648739"><ele>0.0</ele><time>2026-04-29T17:27:36.045Z</time></trkpt><trkpt lat="38.3474529" lon="0.1649409"><ele>0.0</ele><time>2026-04-29T17:27:37.044Z</time></trkpt><trkpt lat="38.3475321" lon="0.1650075"><ele>0.0</ele><time>2026-04-29T17:27:38.044Z</time></trkpt><trkpt lat="38.3476078" lon="0.165075"><ele>0.0</ele><time>2026-04-29T17:27:39.044Z</time></trkpt><trkpt lat="38.3477516" lon="0.1652051"><ele>0.0</ele><time>2026-04-29T17:27:41.045Z</time></trkpt><trkpt lat="38.3478248" lon="0.1652639"><ele>0.0</ele><time>2026-04-29T17:27:42.044Z</time></trkpt><trkpt lat="38.3478967" lon="0.1653262"><ele>0.0</ele><time>2026-04-29T17:27:43.045Z</time></trkpt><trkpt lat="38.3479629" lon="0.1653891"><ele>0.0</ele><time>2026-04-29T17:27:44.044Z</time></trkpt><trkpt lat="38.3480311" lon="0.1654512"><ele>0.0</ele><time>2026-04-29T17:27:45.045Z</time></trkpt><trkpt lat="38.3481009" lon="0.1655155"><ele>0.0</ele><time>2026-04-29T17:27:46.044Z</time></trkpt><trkpt lat="38.3481719" lon="0.1655768"><ele>0.0</ele><time>2026-04-29T17:27:47.044Z</time></trkpt><trkpt lat="38.3482406" lon="0.1656356"><ele>0.0</ele><time>2026-04-29T17:27:48.044Z</time></trkpt><trkpt lat="38.3483133" lon="0.1656969"><ele>0.0</ele><time>2026-04-29T17:27:49.044Z</time></trkpt><trkpt lat="38.3483922" lon="0.1657557"><ele>0.0</ele><time>2026-04-29T17:27:50.045Z</time></trkpt><trkpt lat="38.3484722" lon="0.1658122"><ele>0.0</ele><time>2026-04-29T17:27:51.044Z</time></trkpt><trkpt lat="38.3485479" lon="0.1658683"><ele>0.0</ele><time>2026-04-29T17:27:52.044Z</time></trkpt><trkpt lat="38.3486246" lon="0.1659293"><ele>0.0</ele><time>2026-04-29T17:27:53.044Z</time></trkpt><trkpt lat="38.3486997" lon="0.1659854"><ele>0.0</ele><time>2026-04-29T17:27:54.045Z</time></trkpt><trkpt lat="38.348769" lon="0.1660476"><ele>0.0</ele><time>2026-04-29T17:27:55.045Z</time></trkpt><trkpt lat="38.3488373" lon="0.1661166"><ele>0.0</ele><time>2026-04-29T17:27:56.044Z</time></trkpt><trkpt lat="38.3489115" lon="0.1661785"><ele>0.0</ele><time>2026-04-29T17:27:57.045Z</time></trkpt><trkpt lat="38.3489819" lon="0.1662376"><ele>0.0</ele><time>2026-04-29T17:27:58.044Z</time></trkpt><trkpt lat="38.3490506" lon="0.1662974"><ele>0.0</ele><time>2026-04-29T17:27:59.045Z</time></trkpt><trkpt lat="38.3491247" lon="0.1663579"><ele>0.0</ele><time>2026-04-29T17:28:00.044Z</time></trkpt><trkpt lat="38.3491995" lon="0.1664168"><ele>0.0</ele><time>2026-04-29T17:28:01.044Z</time></trkpt><trkpt lat="38.3493439" lon="0.1665418"><ele>0.0</ele><time>2026-04-29T17:28:03.045Z</time></trkpt><trkpt lat="38.3494082" lon="0.1666105"><ele>0.0</ele><time>2026-04-29T17:28:04.044Z</time></trkpt><trkpt lat="38.3494743" lon="0.1666766"><ele>0.0</ele><time>2026-04-29T17:28:05.045Z</time></trkpt><trkpt lat="38.3495481" lon="0.1667371"><ele>0.0</ele><time>2026-04-29T17:28:06.045Z</time></trkpt><trkpt lat="38.3496227" lon="0.1668009"><ele>0.0</ele><time>2026-04-29T17:28:07.044Z</time></trkpt><trkpt lat="38.3496934" lon="0.1668582"><ele>0.0</ele><time>2026-04-29T17:28:08.045Z</time></trkpt><trkpt lat="38.3497663" lon="0.1669157"><ele>0.0</ele><time>2026-04-29T17:28:09.044Z</time></trkpt><trkpt lat="38.3498428" lon="0.1669785"><ele>0.0</ele><time>2026-04-29T17:28:10.044Z</time></trkpt><trkpt lat="38.3499221" lon="0.1670341"><ele>0.0</ele><time>2026-04-29T17:28:11.045Z</time></trkpt><trkpt lat="38.3500004" lon="0.1671186"><ele>0.0</ele><time>2026-04-29T17:28:12.045Z</time></trkpt><trkpt lat="38.3500775" lon="0.1672094"><ele>0.0</ele><time>2026-04-29T17:28:13.044Z</time></trkpt><trkpt lat="38.3501444" lon="0.1672791"><ele>0.0</ele><time>2026-04-29T17:28:14.044Z</time></trkpt><trkpt lat="38.3502137" lon="0.1673412"><ele>0.0</ele><time>2026-04-29T17:28:15.045Z</time></trkpt><trkpt lat="38.3502852" lon="0.167395"><ele>0.0</ele><time>2026-04-29T17:28:16.044Z</time></trkpt><trkpt lat="38.350357" lon="0.1674496"><ele>0.0</ele><time>2026-04-29T17:28:17.044Z</time></trkpt><trkpt lat="38.3504258" lon="0.1675062"><ele>0.0</ele><time>2026-04-29T17:28:18.045Z</time></trkpt><trkpt lat="38.3504899" lon="0.1675867"><ele>0.0</ele><time>2026-04-29T17:28:19.044Z</time></trkpt><trkpt lat="38.350556" lon="0.1676645"><ele>0.0</ele><time>2026-04-29T17:28:20.045Z</time></trkpt><trkpt lat="38.3506235" lon="0.1677273"><ele>0.0</ele><time>2026-04-29T17:28:21.044Z</time></trkpt><trkpt lat="38.3506921" lon="0.1677909"><ele>0.0</ele><time>2026-04-29T17:28:22.044Z</time></trkpt><trkpt lat="38.3508334" lon="0.1679229"><ele>0.0</ele><time>2026-04-29T17:28:24.045Z</time></trkpt><trkpt lat="38.3509052" lon="0.1679844"><ele>0.0</ele><time>2026-04-29T17:28:25.045Z</time></trkpt><trkpt lat="38.3509781" lon="0.1680427"><ele>0.0</ele><time>2026-04-29T17:28:26.044Z</time></trkpt><trkpt lat="38.3510528" lon="0.1681046"><ele>0.0</ele><time>2026-04-29T17:28:27.044Z</time></trkpt><trkpt lat="38.3511278" lon="0.1681741"><ele>0.0</ele><time>2026-04-29T17:28:28.044Z</time></trkpt><trkpt lat="38.3512028" lon="0.1682303"><ele>0.0</ele><time>2026-04-29T17:28:29.045Z</time></trkpt><trkpt lat="38.3512779" lon="0.1682844"><ele>0.0</ele><time>2026-04-29T17:28:30.044Z</time></trkpt><trkpt lat="38.3513442" lon="0.1683367"><ele>0.0</ele><time>2026-04-29T17:28:31.045Z</time></trkpt><trkpt lat="38.3514123" lon="0.1683923"><ele>0.0</ele><time>2026-04-29T17:28:32.045Z</time></trkpt><trkpt lat="38.3514865" lon="0.1684519"><ele>0.0</ele><time>2026-04-29T17:28:33.044Z</time></trkpt><trkpt lat="38.3515585" lon="0.1685073"><ele>0.0</ele><time>2026-04-29T17:28:34.045Z</time></trkpt><trkpt lat="38.3516331" lon="0.1685612"><ele>0.0</ele><time>2026-04-29T17:28:35.044Z</time></trkpt><trkpt lat="38.3517123" lon="0.168614"><ele>0.0</ele><time>2026-04-29T17:28:36.044Z</time></trkpt><trkpt lat="38.3517862" lon="0.1686655"><ele>0.0</ele><time>2026-04-29T17:28:37.044Z</time></trkpt><trkpt lat="38.3518584" lon="0.1687224"><ele>0.0</ele><time>2026-04-29T17:28:38.045Z</time></trkpt><trkpt lat="38.3519302" lon="0.168786"><ele>0.0</ele><time>2026-04-29T17:28:39.045Z</time></trkpt><trkpt lat="38.3520017" lon="0.168844"><ele>0.0</ele><time>2026-04-29T17:28:40.044Z</time></trkpt><trkpt lat="38.3520676" lon="0.1688965"><ele>0.0</ele><time>2026-04-29T17:28:41.044Z</time></trkpt><trkpt lat="38.3521416" lon="0.1689536"><ele>0.0</ele><time>2026-04-29T17:28:42.044Z</time></trkpt><trkpt lat="38.3522108" lon="0.1690168"><ele>0.0</ele><time>2026-04-29T17:28:43.044Z</time></trkpt><trkpt lat="38.3523502" lon="0.1691412"><ele>0.0</ele><time>2026-04-29T17:28:45.045Z</time></trkpt><trkpt lat="38.3524234" lon="0.1692008"><ele>0.0</ele><time>2026-04-29T17:28:46.045Z</time></trkpt><trkpt lat="38.3524979" lon="0.1692544"><ele>0.0</ele><time>2026-04-29T17:28:47.044Z</time></trkpt><trkpt lat="38.3525687" lon="0.1693058"><ele>0.0</ele><time>2026-04-29T17:28:48.044Z</time></trkpt><trkpt lat="38.3526444" lon="0.1693567"><ele>0.0</ele><time>2026-04-29T17:28:49.044Z</time></trkpt><trkpt lat="38.3527237" lon="0.1694124"><ele>0.0</ele><time>2026-04-29T17:28:50.045Z</time></trkpt><trkpt lat="38.3527981" lon="0.1694737"><ele>0.0</ele><time>2026-04-29T17:28:51.045Z</time></trkpt><trkpt lat="38.3528743" lon="0.1695323"><ele>0.0</ele><time>2026-04-29T17:28:52.044Z</time></trkpt><trkpt lat="38.3529493" lon="0.1695962"><ele>0.0</ele><time>2026-04-29T17:28:53.044Z</time></trkpt><trkpt lat="38.3530189" lon="0.1696591"><ele>0.0</ele><time>2026-04-29T17:28:54.044Z</time></trkpt><trkpt lat="38.353086" lon="0.1697274"><ele>0.0</ele><time>2026-04-29T17:28:55.045Z</time></trkpt><trkpt lat="38.3531555" lon="0.169791"><ele>0.0</ele><time>2026-04-29T17:28:56.044Z</time></trkpt><trkpt lat="38.353231" lon="0.1698515"><ele>0.0</ele><time>2026-04-29T17:28:57.045Z</time></trkpt><trkpt lat="38.3533062" lon="0.1699159"><ele>0.0</ele><time>2026-04-29T17:28:58.044Z</time></trkpt><trkpt lat="38.3533771" lon="0.1699794"><ele>0.0</ele><time>2026-04-29T17:28:59.044Z</time></trkpt><trkpt lat="38.3534516" lon="0.1700475"><ele>0.0</ele><time>2026-04-29T17:29:00.044Z</time></trkpt><trkpt lat="38.353522" lon="0.170113"><ele>0.0</ele><time>2026-04-29T17:29:01.045Z</time></trkpt><trkpt lat="38.3535961" lon="0.1701709"><ele>0.0</ele><time>2026-04-29T17:29:02.045Z</time></trkpt><trkpt lat="38.3536698" lon="0.1702281"><ele>0.0</ele><time>2026-04-29T17:29:03.045Z</time></trkpt><trkpt lat="38.3537393" lon="0.170295"><ele>0.0</ele><time>2026-04-29T17:29:04.045Z</time></trkpt><trkpt lat="38.3538115" lon="0.170359"><ele>0.0</ele><time>2026-04-29T17:29:05.044Z</time></trkpt><trkpt lat="38.3539578" lon="0.1704894"><ele>0.0</ele><time>2026-04-29T17:29:07.045Z</time></trkpt><trkpt lat="38.3540297" lon="0.1705559"><ele>0.0</ele><time>2026-04-29T17:29:08.044Z</time></trkpt><trkpt lat="38.3541017" lon="0.17062"><ele>0.0</ele><time>2026-04-29T17:29:09.045Z</time></trkpt><trkpt lat="38.354172" lon="0.1706834"><ele>0.0</ele><time>2026-04-29T17:29:10.044Z</time></trkpt><trkpt lat="38.3542403" lon="0.1707441"><ele>0.0</ele><time>2026-04-29T17:29:11.044Z</time></trkpt><trkpt lat="38.3543131" lon="0.1707967"><ele>0.0</ele><time>2026-04-29T17:29:12.044Z</time></trkpt><trkpt lat="38.3543891" lon="0.1708664"><ele>0.0</ele><time>2026-04-29T17:29:13.045Z</time></trkpt><trkpt lat="38.3544573" lon="0.1709272"><ele>0.0</ele><time>2026-04-29T17:29:14.044Z</time></trkpt><trkpt lat="38.3545256" lon="0.1709884"><ele>0.0</ele><time>2026-04-29T17:29:15.044Z</time></trkpt><trkpt lat="38.354594" lon="0.1710501"><ele>0.0</ele><time>2026-04-29T17:29:16.045Z</time></trkpt><trkpt lat="38.3546664" lon="0.1711101"><ele>0.0</ele><time>2026-04-29T17:29:17.044Z</time></trkpt><trkpt lat="38.3547381" lon="0.1711719"><ele>0.0</ele><time>2026-04-29T17:29:18.044Z</time></trkpt><trkpt lat="38.3548072" lon="0.171239"><ele>0.0</ele><time>2026-04-29T17:29:19.044Z</time></trkpt><trkpt lat="38.354874" lon="0.1712958"><ele>0.0</ele><time>2026-04-29T17:29:20.045Z</time></trkpt><trkpt lat="38.3549434" lon="0.1713545"><ele>0.0</ele><time>2026-04-29T17:29:21.044Z</time></trkpt><trkpt lat="38.3550163" lon="0.1714147"><ele>0.0</ele><time>2026-04-29T17:29:22.044Z</time></trkpt><trkpt lat="38.3550895" lon="0.171475"><ele>0.0</ele><time>2026-04-29T17:29:23.044Z</time></trkpt><trkpt lat="38.3551559" lon="0.1715349"><ele>0.0</ele><time>2026-04-29T17:29:24.044Z</time></trkpt><trkpt lat="38.3552281" lon="0.1715948"><ele>0.0</ele><time>2026-04-29T17:29:25.045Z</time></trkpt><trkpt lat="38.3553013" lon="0.1716565"><ele>0.0</ele><time>2026-04-29T17:29:26.044Z</time></trkpt><trkpt lat="38.3554451" lon="0.1718089"><ele>0.0</ele><time>2026-04-29T17:29:28.045Z</time></trkpt><trkpt lat="38.3555137" lon="0.1718866"><ele>0.0</ele><time>2026-04-29T17:29:29.045Z</time></trkpt><trkpt lat="38.3555865" lon="0.1719536"><ele>0.0</ele><time>2026-04-29T17:29:30.044Z</time></trkpt><trkpt lat="38.3556528" lon="0.1720205"><ele>0.0</ele><time>2026-04-29T17:29:31.044Z</time></trkpt><trkpt lat="38.3557219" lon="0.1720889"><ele>0.0</ele><time>2026-04-29T17:29:32.044Z</time></trkpt><trkpt lat="38.3557947" lon="0.1721557"><ele>0.0</ele><time>2026-04-29T17:29:33.045Z</time></trkpt><trkpt lat="38.3558695" lon="0.1722221"><ele>0.0</ele><time>2026-04-29T17:29:34.045Z</time></trkpt><trkpt lat="38.3559433" lon="0.1722907"><ele>0.0</ele><time>2026-04-29T17:29:35.044Z</time></trkpt><trkpt lat="38.3560121" lon="0.1723622"><ele>0.0</ele><time>2026-04-29T17:29:36.045Z</time></trkpt><trkpt lat="38.3560819" lon="0.1724311"><ele>0.0</ele><time>2026-04-29T17:29:37.045Z</time></trkpt><trkpt lat="38.3561535" lon="0.1724856"><ele>0.0</ele><time>2026-04-29T17:29:38.044Z</time></trkpt><trkpt lat="38.3562265" lon="0.1725404"><ele>0.0</ele><time>2026-04-29T17:29:39.045Z</time></trkpt><trkpt lat="38.356297" lon="0.1726039"><ele>0.0</ele><time>2026-04-29T17:29:40.045Z</time></trkpt><trkpt lat="38.3563698" lon="0.1726746"><ele>0.0</ele><time>2026-04-29T17:29:41.044Z</time></trkpt><trkpt lat="38.3564344" lon="0.1727323"><ele>0.0</ele><time>2026-04-29T17:29:42.045Z</time></trkpt><trkpt lat="38.3564997" lon="0.1727824"><ele>0.0</ele><time>2026-04-29T17:29:43.044Z</time></trkpt><trkpt lat="38.3565703" lon="0.1728403"><ele>0.0</ele><time>2026-04-29T17:29:44.045Z</time></trkpt><trkpt lat="38.3566418" lon="0.1728954"><ele>0.0</ele><time>2026-04-29T17:29:45.044Z</time></trkpt><trkpt lat="38.3567132" lon="0.1729661"><ele>0.0</ele><time>2026-04-29T17:29:46.045Z</time></trkpt><trkpt lat="38.3567868" lon="0.1730232"><ele>0.0</ele><time>2026-04-29T17:29:47.045Z</time></trkpt><trkpt lat="38.3569379" lon="0.1731373"><ele>0.0</ele><time>2026-04-29T17:29:49.044Z</time></trkpt><trkpt lat="38.3570073" lon="0.1731986"><ele>0.0</ele><time>2026-04-29T17:29:50.045Z</time></trkpt><trkpt lat="38.35707" lon="0.1732576"><ele>0.0</ele><time>2026-04-29T17:29:51.045Z</time></trkpt><trkpt lat="38.3571377" lon="0.1733293"><ele>0.0</ele><time>2026-04-29T17:29:52.045Z</time></trkpt><trkpt lat="38.3572086" lon="0.1734023"><ele>0.0</ele><time>2026-04-29T17:29:53.044Z</time></trkpt><trkpt lat="38.3572801" lon="0.1734631"><ele>0.0</ele><time>2026-04-29T17:29:54.044Z</time></trkpt><trkpt lat="38.3573574" lon="0.1735208"><ele>0.0</ele><time>2026-04-29T17:29:55.044Z</time></trkpt><trkpt lat="38.3574326" lon="0.1735881"><ele>0.0</ele><time>2026-04-29T17:29:56.044Z</time></trkpt><trkpt lat="38.3575078" lon="0.1736483"><ele>0.0</ele><time>2026-04-29T17:29:57.045Z</time></trkpt><trkpt lat="38.3575855" lon="0.1737064"><ele>0.0</ele><time>2026-04-29T17:29:58.044Z</time></trkpt><trkpt lat="38.3576624" lon="0.1737644"><ele>0.0</ele><time>2026-04-29T17:29:59.045Z</time></trkpt><trkpt lat="38.3577366" lon="0.1738258"><ele>0.0</ele><time>2026-04-29T17:30:00.045Z</time></trkpt><trkpt lat="38.3578083" lon="0.1738795"><ele>0.0</ele><time>2026-04-29T17:30:01.044Z</time></trkpt><trkpt lat="38.3578742" lon="0.1739398"><ele>0.0</ele><time>2026-04-29T17:30:02.045Z</time></trkpt><trkpt lat="38.3579422" lon="0.1740008"><ele>0.0</ele><time>2026-04-29T17:30:03.044Z</time></trkpt><trkpt lat="38.3580147" lon="0.1740617"><ele>0.0</ele><time>2026-04-29T17:30:04.044Z</time></trkpt><trkpt lat="38.3580838" lon="0.1741213"><ele>0.0</ele><time>2026-04-29T17:30:05.044Z</time></trkpt><trkpt lat="38.3581509" lon="0.1741841"><ele>0.0</ele><time>2026-04-29T17:30:06.045Z</time></trkpt><trkpt lat="38.358219" lon="0.174243"><ele>0.0</ele><time>2026-04-29T17:30:07.045Z</time></trkpt><trkpt lat="38.3582872" lon="0.1743134"><ele>0.0</ele><time>2026-04-29T17:30:08.045Z</time></trkpt><trkpt lat="38.3583569" lon="0.1743855"><ele>0.0</ele><time>2026-04-29T17:30:09.045Z</time></trkpt><trkpt lat="38.3584983" lon="0.1745344"><ele>0.0</ele><time>2026-04-29T17:30:11.045Z</time></trkpt><trkpt lat="38.3585672" lon="0.1745963"><ele>0.0</ele><time>2026-04-29T17:30:12.045Z</time></trkpt><trkpt lat="38.3586371" lon="0.1746523"><ele>0.0</ele><time>2026-04-29T17:30:13.045Z</time></trkpt><trkpt lat="38.3587085" lon="0.1747062"><ele>0.0</ele><time>2026-04-29T17:30:14.045Z</time></trkpt><trkpt lat="38.3587798" lon="0.1747656"><ele>0.0</ele><time>2026-04-29T17:30:15.045Z</time></trkpt><trkpt lat="38.3588529" lon="0.1748238"><ele>0.0</ele><time>2026-04-29T17:30:16.044Z</time></trkpt><trkpt lat="38.3589306" lon="0.1748865"><ele>0.0</ele><time>2026-04-29T17:30:17.044Z</time></trkpt><trkpt lat="38.3590059" lon="0.1749518"><ele>0.0</ele><time>2026-04-29T17:30:18.044Z</time></trkpt><trkpt lat="38.3590795" lon="0.1750126"><ele>0.0</ele><time>2026-04-29T17:30:19.045Z</time></trkpt><trkpt lat="38.3591513" lon="0.1750712"><ele>0.0</ele><time>2026-04-29T17:30:20.044Z</time></trkpt><trkpt lat="38.3592229" lon="0.1751316"><ele>0.0</ele><time>2026-04-29T17:30:21.044Z</time></trkpt><trkpt lat="38.359295" lon="0.1751932"><ele>0.0</ele><time>2026-04-29T17:30:22.045Z</time></trkpt><trkpt lat="38.3593638" lon="0.175256"><ele>0.0</ele><time>2026-04-29T17:30:23.045Z</time></trkpt><trkpt lat="38.359435" lon="0.1753189"><ele>0.0</ele><time>2026-04-29T17:30:24.044Z</time></trkpt><trkpt lat="38.3595079" lon="0.1753746"><ele>0.0</ele><time>2026-04-29T17:30:25.045Z</time></trkpt><trkpt lat="38.3595814" lon="0.1754321"><ele>0.0</ele><time>2026-04-29T17:30:26.045Z</time></trkpt><trkpt lat="38.3596532" lon="0.1754951"><ele>0.0</ele><time>2026-04-29T17:30:27.045Z</time></trkpt><trkpt lat="38.3597266" lon="0.1755481"><ele>0.0</ele><time>2026-04-29T17:30:28.044Z</time></trkpt><trkpt lat="38.3597997" lon="0.175605"><ele>0.0</ele><time>2026-04-29T17:30:29.044Z</time></trkpt><trkpt lat="38.3598716" lon="0.175666"><ele>0.0</ele><time>2026-04-29T17:30:30.044Z</time></trkpt><trkpt lat="38.3600134" lon="0.1757896"><ele>0.0</ele><time>2026-04-29T17:30:32.044Z</time></trkpt><trkpt lat="38.3600848" lon="0.1758542"><ele>0.0</ele><time>2026-04-29T17:30:33.043Z</time></trkpt><trkpt lat="38.3601535" lon="0.1759149"><ele>0.0</ele><time>2026-04-29T17:30:34.043Z</time></trkpt><trkpt lat="38.3602233" lon="0.175975"><ele>0.0</ele><time>2026-04-29T17:30:35.043Z</time></trkpt><trkpt lat="38.3602963" lon="0.1760418"><ele>0.0</ele><time>2026-04-29T17:30:36.044Z</time></trkpt><trkpt lat="38.360367" lon="0.1761063"><ele>0.0</ele><time>2026-04-29T17:30:37.043Z</time></trkpt><trkpt lat="38.3604427" lon="0.1761698"><ele>0.0</ele><time>2026-04-29T17:30:38.043Z</time></trkpt><trkpt lat="38.360515" lon="0.176236"><ele>0.0</ele><time>2026-04-29T17:30:39.043Z</time></trkpt><trkpt lat="38.3605881" lon="0.1763028"><ele>0.0</ele><time>2026-04-29T17:30:40.043Z</time></trkpt><trkpt lat="38.3606602" lon="0.176367"><ele>0.0</ele><time>2026-04-29T17:30:41.044Z</time></trkpt><trkpt lat="38.3607347" lon="0.1764257"><ele>0.0</ele><time>2026-04-29T17:30:42.043Z</time></trkpt><trkpt lat="38.3608078" lon="0.1764828"><ele>0.0</ele><time>2026-04-29T17:30:43.043Z</time></trkpt><trkpt lat="38.3608813" lon="0.176541"><ele>0.0</ele><time>2026-04-29T17:30:44.043Z</time></trkpt><trkpt lat="38.3609548" lon="0.1765967"><ele>0.0</ele><time>2026-04-29T17:30:45.043Z</time></trkpt><trkpt lat="38.3610281" lon="0.1766584"><ele>0.0</ele><time>2026-04-29T17:30:46.043Z</time></trkpt><trkpt lat="38.3611045" lon="0.1767273"><ele>0.0</ele><time>2026-04-29T17:30:47.044Z</time></trkpt><trkpt lat="38.3611779" lon="0.1767993"><ele>0.0</ele><time>2026-04-29T17:30:48.043Z</time></trkpt><trkpt lat="38.3612555" lon="0.1768639"><ele>0.0</ele><time>2026-04-29T17:30:49.043Z</time></trkpt><trkpt lat="38.3613285" lon="0.1769315"><ele>0.0</ele><time>2026-04-29T17:30:50.044Z</time></trkpt><trkpt lat="38.3614003" lon="0.17699"><ele>0.0</ele><time>2026-04-29T17:30:51.044Z</time></trkpt><trkpt lat="38.3615482" lon="0.1771087"><ele>0.0</ele><time>2026-04-29T17:30:53.043Z</time></trkpt><trkpt lat="38.3616174" lon="0.1771646"><ele>0.0</ele><time>2026-04-29T17:30:54.043Z</time></trkpt><trkpt lat="38.3616873" lon="0.177217"><ele>0.0</ele><time>2026-04-29T17:30:55.043Z</time></trkpt><trkpt lat="38.361753" lon="0.1772746"><ele>0.0</ele><time>2026-04-29T17:30:56.044Z</time></trkpt><trkpt lat="38.3618194" lon="0.1773329"><ele>0.0</ele><time>2026-04-29T17:30:57.044Z</time></trkpt><trkpt lat="38.3618917" lon="0.1773894"><ele>0.0</ele><time>2026-04-29T17:30:58.044Z</time></trkpt><trkpt lat="38.3619692" lon="0.1774492"><ele>0.0</ele><time>2026-04-29T17:30:59.043Z</time></trkpt><trkpt lat="38.3620461" lon="0.1775089"><ele>0.0</ele><time>2026-04-29T17:31:00.043Z</time></trkpt><trkpt lat="38.3621197" lon="0.1775659"><ele>0.0</ele><time>2026-04-29T17:31:01.043Z</time></trkpt><trkpt lat="38.3621892" lon="0.1776229"><ele>0.0</ele><time>2026-04-29T17:31:02.044Z</time></trkpt><trkpt lat="38.3622546" lon="0.177676"><ele>0.0</ele><time>2026-04-29T17:31:03.044Z</time></trkpt><trkpt lat="38.3623254" lon="0.1777299"><ele>0.0</ele><time>2026-04-29T17:31:04.043Z</time></trkpt><trkpt lat="38.3623968" lon="0.1777864"><ele>0.0</ele><time>2026-04-29T17:31:05.043Z</time></trkpt><trkpt lat="38.3624685" lon="0.1778456"><ele>0.0</ele><time>2026-04-29T17:31:06.043Z</time></trkpt><trkpt lat="38.3625374" lon="0.1779055"><ele>0.0</ele><time>2026-04-29T17:31:07.044Z</time></trkpt><trkpt lat="38.3626114" lon="0.1779597"><ele>0.0</ele><time>2026-04-29T17:31:08.044Z</time></trkpt><trkpt lat="38.3626875" lon="0.1780142"><ele>0.0</ele><time>2026-04-29T17:31:09.044Z</time></trkpt><trkpt lat="38.3627658" lon="0.1780708"><ele>0.0</ele><time>2026-04-29T17:31:10.043Z</time></trkpt><trkpt lat="38.3628353" lon="0.1781272"><ele>0.0</ele><time>2026-04-29T17:31:11.044Z</time></trkpt><trkpt lat="38.3629081" lon="0.1781884"><ele>0.0</ele><time>2026-04-29T17:31:12.043Z</time></trkpt><trkpt lat="38.363053" lon="0.1783223"><ele>0.0</ele><time>2026-04-29T17:31:14.044Z</time></trkpt><trkpt lat="38.3631249" lon="0.1783894"><ele>0.0</ele><time>2026-04-29T17:31:15.044Z</time></trkpt><trkpt lat="38.3631956" lon="0.1784578"><ele>0.0</ele><time>2026-04-29T17:31:16.043Z</time></trkpt><trkpt lat="38.3632711" lon="0.1785225"><ele>0.0</ele><time>2026-04-29T17:31:17.043Z</time></trkpt><trkpt lat="38.3633404" lon="0.1785845"><ele>0.0</ele><time>2026-04-29T17:31:18.044Z</time></trkpt><trkpt lat="38.3634145" lon="0.178644"><ele>0.0</ele><time>2026-04-29T17:31:19.044Z</time></trkpt><trkpt lat="38.3634823" lon="0.1786984"><ele>0.0</ele><time>2026-04-29T17:31:20.043Z</time></trkpt><trkpt lat="38.3635533" lon="0.1787631"><ele>0.0</ele><time>2026-04-29T17:31:21.043Z</time></trkpt><trkpt lat="38.3636295" lon="0.1788238"><ele>0.0</ele><time>2026-04-29T17:31:22.044Z</time></trkpt><trkpt lat="38.3637017" lon="0.178889"><ele>0.0</ele><time>2026-04-29T17:31:23.043Z</time></trkpt><trkpt lat="38.3637732" lon="0.1789469"><ele>0.0</ele><time>2026-04-29T17:31:24.043Z</time></trkpt><trkpt lat="38.3638447" lon="0.1790117"><ele>0.0</ele><time>2026-04-29T17:31:25.044Z</time></trkpt><trkpt lat="38.3639165" lon="0.1790823"><ele>0.0</ele><time>2026-04-29T17:31:26.044Z</time></trkpt><trkpt lat="38.3639912" lon="0.1791449"><ele>0.0</ele><time>2026-04-29T17:31:27.044Z</time></trkpt><trkpt lat="38.3640603" lon="0.1792107"><ele>0.0</ele><time>2026-04-29T17:31:28.044Z</time></trkpt><trkpt lat="38.3641273" lon="0.179273"><ele>0.0</ele><time>2026-04-29T17:31:29.044Z</time></trkpt><trkpt lat="38.3641941" lon="0.1793373"><ele>0.0</ele><time>2026-04-29T17:31:30.043Z</time></trkpt><trkpt lat="38.3642652" lon="0.1793977"><ele>0.0</ele><time>2026-04-29T17:31:31.044Z</time></trkpt><trkpt lat="38.3643383" lon="0.1794602"><ele>0.0</ele><time>2026-04-29T17:31:32.043Z</time></trkpt><trkpt lat="38.3644085" lon="0.1795122"><ele>0.0</ele><time>2026-04-29T17:31:33.043Z</time></trkpt><trkpt lat="38.3645563" lon="0.1796148"><ele>0.0</ele><time>2026-04-29T17:31:35.044Z</time></trkpt><trkpt lat="38.3646215" lon="0.1796734"><ele>0.0</ele><time>2026-04-29T17:31:36.043Z</time></trkpt><trkpt lat="38.3646878" lon="0.1797351"><ele>0.0</ele><time>2026-04-29T17:31:37.043Z</time></trkpt><trkpt lat="38.3647585" lon="0.1798003"><ele>0.0</ele><time>2026-04-29T17:31:38.043Z</time></trkpt><trkpt lat="38.3648285" lon="0.1798652"><ele>0.0</ele><time>2026-04-29T17:31:39.044Z</time></trkpt><trkpt lat="38.3649001" lon="0.1799313"><ele>0.0</ele><time>2026-04-29T17:31:40.044Z</time></trkpt><trkpt lat="38.364969" lon="0.1800023"><ele>0.0</ele><time>2026-04-29T17:31:41.044Z</time></trkpt><trkpt lat="38.3650389" lon="0.1800773"><ele>0.0</ele><time>2026-04-29T17:31:42.043Z</time></trkpt><trkpt lat="38.3651131" lon="0.1801576"><ele>0.0</ele><time>2026-04-29T17:31:43.043Z</time></trkpt><trkpt lat="38.3651922" lon="0.1802278"><ele>0.0</ele><time>2026-04-29T17:31:44.044Z</time></trkpt><trkpt lat="38.3652677" lon="0.180291"><ele>0.0</ele><time>2026-04-29T17:31:45.043Z</time></trkpt><trkpt lat="38.3653416" lon="0.1803481"><ele>0.0</ele><time>2026-04-29T17:31:46.043Z</time></trkpt><trkpt lat="38.3654165" lon="0.1804046"><ele>0.0</ele><time>2026-04-29T17:31:47.043Z</time></trkpt><trkpt lat="38.3654872" lon="0.1804717"><ele>0.0</ele><time>2026-04-29T17:31:48.044Z</time></trkpt><trkpt lat="38.365553" lon="0.1805364"><ele>0.0</ele><time>2026-04-29T17:31:49.044Z</time></trkpt><trkpt lat="38.365621" lon="0.1805975"><ele>0.0</ele><time>2026-04-29T17:31:50.043Z</time></trkpt><trkpt lat="38.365689" lon="0.1806575"><ele>0.0</ele><time>2026-04-29T17:31:51.043Z</time></trkpt><trkpt lat="38.3657601" lon="0.1807146"><ele>0.0</ele><time>2026-04-29T17:31:52.043Z</time></trkpt><trkpt lat="38.3658359" lon="0.1807713"><ele>0.0</ele><time>2026-04-29T17:31:53.044Z</time></trkpt><trkpt lat="38.3659138" lon="0.1808289"><ele>0.0</ele><time>2026-04-29T17:31:54.043Z</time></trkpt><trkpt lat="38.3660622" lon="0.1809525"><ele>0.0</ele><time>2026-04-29T17:31:56.043Z</time></trkpt><trkpt lat="38.3661294" lon="0.1810235"><ele>0.0</ele><time>2026-04-29T17:31:57.044Z</time></trkpt><trkpt lat="38.3662002" lon="0.1810827"><ele>0.0</ele><time>2026-04-29T17:31:58.043Z</time></trkpt><trkpt lat="38.3662704" lon="0.1811422"><ele>0.0</ele><time>2026-04-29T17:31:59.044Z</time></trkpt><trkpt lat="38.3663419" lon="0.1812074"><ele>0.0</ele><time>2026-04-29T17:32:00.043Z</time></trkpt><trkpt lat="38.3664166" lon="0.1812768"><ele>0.0</ele><time>2026-04-29T17:32:01.043Z</time></trkpt><trkpt lat="38.3664859" lon="0.181339"><ele>0.0</ele><time>2026-04-29T17:32:02.044Z</time></trkpt><trkpt lat="38.3665571" lon="0.1814024"><ele>0.0</ele><time>2026-04-29T17:32:03.043Z</time></trkpt><trkpt lat="38.3666285" lon="0.1814639"><ele>0.0</ele><time>2026-04-29T17:32:04.043Z</time></trkpt><trkpt lat="38.366703" lon="0.1815182"><ele>0.0</ele><time>2026-04-29T17:32:05.044Z</time></trkpt><trkpt lat="38.3667796" lon="0.1815772"><ele>0.0</ele><time>2026-04-29T17:32:06.043Z</time></trkpt><trkpt lat="38.3668533" lon="0.1816387"><ele>0.0</ele><time>2026-04-29T17:32:07.043Z</time></trkpt><trkpt lat="38.3669264" lon="0.1817025"><ele>0.0</ele><time>2026-04-29T17:32:08.044Z</time></trkpt><trkpt lat="38.3670013" lon="0.1817615"><ele>0.0</ele><time>2026-04-29T17:32:09.044Z</time></trkpt><trkpt lat="38.3670748" lon="0.1818245"><ele>0.0</ele><time>2026-04-29T17:32:10.043Z</time></trkpt><trkpt lat="38.367147" lon="0.1818893"><ele>0.0</ele><time>2026-04-29T17:32:11.043Z</time></trkpt><trkpt lat="38.3672185" lon="0.1819527"><ele>0.0</ele><time>2026-04-29T17:32:12.043Z</time></trkpt><trkpt lat="38.36729" lon="0.1820106"><ele>0.0</ele><time>2026-04-29T17:32:13.043Z</time></trkpt><trkpt lat="38.3673602" lon="0.1820745"><ele>0.0</ele><time>2026-04-29T17:32:14.044Z</time></trkpt><trkpt lat="38.3674289" lon="0.1821391"><ele>0.0</ele><time>2026-04-29T17:32:15.043Z</time></trkpt><trkpt lat="38.3675687" lon="0.1822725"><ele>0.0</ele><time>2026-04-29T17:32:17.043Z</time></trkpt><trkpt lat="38.3676416" lon="0.1823469"><ele>0.0</ele><time>2026-04-29T17:32:18.044Z</time></trkpt><trkpt lat="38.3677121" lon="0.1824106"><ele>0.0</ele><time>2026-04-29T17:32:19.044Z</time></trkpt><trkpt lat="38.3677822" lon="0.1824653"><ele>0.0</ele><time>2026-04-29T17:32:20.044Z</time></trkpt><trkpt lat="38.3678508" lon="0.182523"><ele>0.0</ele><time>2026-04-29T17:32:21.044Z</time></trkpt><trkpt lat="38.3679219" lon="0.1825843"><ele>0.0</ele><time>2026-04-29T17:32:22.044Z</time></trkpt><trkpt lat="38.3679908" lon="0.1826507"><ele>0.0</ele><time>2026-04-29T17:32:23.044Z</time></trkpt><trkpt lat="38.3680576" lon="0.1827146"><ele>0.0</ele><time>2026-04-29T17:32:24.043Z</time></trkpt><trkpt lat="38.3681256" lon="0.1827766"><ele>0.0</ele><time>2026-04-29T17:32:25.044Z</time></trkpt><trkpt lat="38.3681955" lon="0.1828423"><ele>0.0</ele><time>2026-04-29T17:32:26.043Z</time></trkpt><trkpt lat="38.3682695" lon="0.1829058"><ele>0.0</ele><time>2026-04-29T17:32:27.044Z</time></trkpt><trkpt lat="38.3683477" lon="0.1829679"><ele>0.0</ele><time>2026-04-29T17:32:28.043Z</time></trkpt><trkpt lat="38.3684202" lon="0.1830322"><ele>0.0</ele><time>2026-04-29T17:32:29.043Z</time></trkpt><trkpt lat="38.3684921" lon="0.1830955"><ele>0.0</ele><time>2026-04-29T17:32:30.043Z</time></trkpt><trkpt lat="38.3685593" lon="0.183159"><ele>0.0</ele><time>2026-04-29T17:32:31.043Z</time></trkpt><trkpt lat="38.3686243" lon="0.1832269"><ele>0.0</ele><time>2026-04-29T17:32:32.043Z</time></trkpt><trkpt lat="38.3686965" lon="0.1832848"><ele>0.0</ele><time>2026-04-29T17:32:33.043Z</time></trkpt><trkpt lat="38.3687686" lon="0.1833442"><ele>0.0</ele><time>2026-04-29T17:32:34.044Z</time></trkpt><trkpt lat="38.3688415" lon="0.1834062"><ele>0.0</ele><time>2026-04-29T17:32:35.044Z</time></trkpt><trkpt lat="38.368915" lon="0.1834695"><ele>0.0</ele><time>2026-04-29T17:32:36.043Z</time></trkpt><trkpt lat="38.3690641" lon="0.1835855"><ele>0.0</ele><time>2026-04-29T17:32:38.043Z</time></trkpt><trkpt lat="38.3691409" lon="0.1836384"><ele>0.0</ele><time>2026-04-29T17:32:39.044Z</time></trkpt><trkpt lat="38.3692148" lon="0.1837006"><ele>0.0</ele><time>2026-04-29T17:32:40.044Z</time></trkpt><trkpt lat="38.3692866" lon="0.1837708"><ele>0.0</ele><time>2026-04-29T17:32:41.043Z</time></trkpt><trkpt lat="38.3693613" lon="0.1838383"><ele>0.0</ele><time>2026-04-29T17:32:42.043Z</time></trkpt><trkpt lat="38.3694292" lon="0.1839051"><ele>0.0</ele><time>2026-04-29T17:32:43.043Z</time></trkpt><trkpt lat="38.3694989" lon="0.1839693"><ele>0.0</ele><time>2026-04-29T17:32:44.044Z</time></trkpt><trkpt lat="38.3695686" lon="0.1840354"><ele>0.0</ele><time>2026-04-29T17:32:45.043Z</time></trkpt><trkpt lat="38.3696388" lon="0.1841093"><ele>0.0</ele><time>2026-04-29T17:32:46.043Z</time></trkpt><trkpt lat="38.3697088" lon="0.1841818"><ele>0.0</ele><time>2026-04-29T17:32:47.044Z</time></trkpt><trkpt lat="38.3697815" lon="0.1842412"><ele>0.0</ele><time>2026-04-29T17:32:48.044Z</time></trkpt><trkpt lat="38.3698521" lon="0.1842992"><ele>0.0</ele><time>2026-04-29T17:32:49.043Z</time></trkpt><trkpt lat="38.3699265" lon="0.1843645"><ele>0.0</ele><time>2026-04-29T17:32:50.043Z</time></trkpt><trkpt lat="38.37" lon="0.1844336"><ele>0.0</ele><time>2026-04-29T17:32:51.043Z</time></trkpt><trkpt lat="38.3700706" lon="0.1844964"><ele>0.0</ele><time>2026-04-29T17:32:52.044Z</time></trkpt><trkpt lat="38.3701433" lon="0.1845622"><ele>0.0</ele><time>2026-04-29T17:32:53.044Z</time></trkpt><trkpt lat="38.3702149" lon="0.1846132"><ele>0.0</ele><time>2026-04-29T17:32:54.044Z</time></trkpt><trkpt lat="38.3702853" lon="0.1846647"><ele>0.0</ele><time>2026-04-29T17:32:55.043Z</time></trkpt><trkpt lat="38.3703554" lon="0.1847147"><ele>0.0</ele><time>2026-04-29T17:32:56.044Z</time></trkpt><trkpt lat="38.3704269" lon="0.1847722"><ele>0.0</ele><time>2026-04-29T17:32:57.043Z</time></trkpt><trkpt lat="38.3705613" lon="0.1848761"><ele>0.0</ele><time>2026-04-29T17:32:59.043Z</time></trkpt><trkpt lat="38.3706321" lon="0.184938"><ele>0.0</ele><time>2026-04-29T17:33:00.043Z</time></trkpt><trkpt lat="38.3707021" lon="0.1850071"><ele>0.0</ele><time>2026-04-29T17:33:01.044Z</time></trkpt><trkpt lat="38.3707748" lon="0.1850715"><ele>0.0</ele><time>2026-04-29T17:33:02.043Z</time></trkpt><trkpt lat="38.3708467" lon="0.1851372"><ele>0.0</ele><time>2026-04-29T17:33:03.043Z</time></trkpt><trkpt lat="38.370917" lon="0.1852009"><ele>0.0</ele><time>2026-04-29T17:33:04.044Z</time></trkpt><trkpt lat="38.3709925" lon="0.1852597"><ele>0.0</ele><time>2026-04-29T17:33:05.043Z</time></trkpt><trkpt lat="38.3710707" lon="0.1853185"><ele>0.0</ele><time>2026-04-29T17:33:06.043Z</time></trkpt><trkpt lat="38.3711446" lon="0.1853769"><ele>0.0</ele><time>2026-04-29T17:33:07.044Z</time></trkpt><trkpt lat="38.371221" lon="0.1854343"><ele>0.0</ele><time>2026-04-29T17:33:08.043Z</time></trkpt><trkpt lat="38.3712947" lon="0.1855015"><ele>0.0</ele><time>2026-04-29T17:33:09.043Z</time></trkpt><trkpt lat="38.371368" lon="0.1855683"><ele>0.0</ele><time>2026-04-29T17:33:10.044Z</time></trkpt><trkpt lat="38.3714384" lon="0.1856267"><ele>0.0</ele><time>2026-04-29T17:33:11.044Z</time></trkpt><trkpt lat="38.3715056" lon="0.1856921"><ele>0.0</ele><time>2026-04-29T17:33:12.043Z</time></trkpt><trkpt lat="38.3715724" lon="0.1857543"><ele>0.0</ele><time>2026-04-29T17:33:13.044Z</time></trkpt><trkpt lat="38.3716434" lon="0.1858134"><ele>0.0</ele><time>2026-04-29T17:33:14.043Z</time></trkpt><trkpt lat="38.371711" lon="0.1858767"><ele>0.0</ele><time>2026-04-29T17:33:15.043Z</time></trkpt><trkpt lat="38.3717816" lon="0.1859399"><ele>0.0</ele><time>2026-04-29T17:33:16.044Z</time></trkpt><trkpt lat="38.3718519" lon="0.1860005"><ele>0.0</ele><time>2026-04-29T17:33:17.043Z</time></trkpt><trkpt lat="38.3719162" lon="0.1860571"><ele>0.0</ele><time>2026-04-29T17:33:18.043Z</time></trkpt><trkpt lat="38.3720516" lon="0.1861782"><ele>0.0</ele><time>2026-04-29T17:33:20.043Z</time></trkpt><trkpt lat="38.3721277" lon="0.1862472"><ele>0.0</ele><time>2026-04-29T17:33:21.043Z</time></trkpt><trkpt lat="38.3722015" lon="0.1863177"><ele>0.0</ele><time>2026-04-29T17:33:22.043Z</time></trkpt><trkpt lat="38.3722692" lon="0.1863952"><ele>0.0</ele><time>2026-04-29T17:33:23.044Z</time></trkpt><trkpt lat="38.3723358" lon="0.1864725"><ele>0.0</ele><time>2026-04-29T17:33:24.043Z</time></trkpt><trkpt lat="38.372411" lon="0.1865376"><ele>0.0</ele><time>2026-04-29T17:33:25.044Z</time></trkpt><trkpt lat="38.3724846" lon="0.1866044"><ele>0.0</ele><time>2026-04-29T17:33:26.044Z</time></trkpt><trkpt lat="38.372558" lon="0.1866667"><ele>0.0</ele><time>2026-04-29T17:33:27.044Z</time></trkpt><trkpt lat="38.3726327" lon="0.1867335"><ele>0.0</ele><time>2026-04-29T17:33:28.044Z</time></trkpt><trkpt lat="38.3727121" lon="0.1868005"><ele>0.0</ele><time>2026-04-29T17:33:29.044Z</time></trkpt><trkpt lat="38.3727862" lon="0.1868617"><ele>0.0</ele><time>2026-04-29T17:33:30.043Z</time></trkpt><trkpt lat="38.372861" lon="0.1869187"><ele>0.0</ele><time>2026-04-29T17:33:31.043Z</time></trkpt><trkpt lat="38.3729305" lon="0.1869724"><ele>0.0</ele><time>2026-04-29T17:33:32.044Z</time></trkpt><trkpt lat="38.3730032" lon="0.1870272"><ele>0.0</ele><time>2026-04-29T17:33:33.043Z</time></trkpt><trkpt lat="38.3730724" lon="0.187082"><ele>0.0</ele><time>2026-04-29T17:33:34.043Z</time></trkpt><trkpt lat="38.3731453" lon="0.1871402"><ele>0.0</ele><time>2026-04-29T17:33:35.043Z</time></trkpt><trkpt lat="38.3732196" lon="0.1871958"><ele>0.0</ele><time>2026-04-29T17:33:36.043Z</time></trkpt><trkpt lat="38.3732917" lon="0.1872565"><ele>0.0</ele><time>2026-04-29T17:33:37.044Z</time></trkpt><trkpt lat="38.3733705" lon="0.1873095"><ele>0.0</ele><time>2026-04-29T17:33:38.043Z</time></trkpt><trkpt lat="38.3734422" lon="0.1873691"><ele>0.0</ele><time>2026-04-29T17:33:39.043Z</time></trkpt><trkpt lat="38.3735773" lon="0.187492"><ele>0.0</ele><time>2026-04-29T17:33:41.043Z</time></trkpt><trkpt lat="38.37364" lon="0.1875513"><ele>0.0</ele><time>2026-04-29T17:33:42.044Z</time></trkpt><trkpt lat="38.3737074" lon="0.1876128"><ele>0.0</ele><time>2026-04-29T17:33:43.043Z</time></trkpt><trkpt lat="38.3737798" lon="0.187676"><ele>0.0</ele><time>2026-04-29T17:33:44.044Z</time></trkpt><trkpt lat="38.3738502" lon="0.1877407"><ele>0.0</ele><time>2026-04-29T17:33:45.043Z</time></trkpt><trkpt lat="38.3739231" lon="0.1878042"><ele>0.0</ele><time>2026-04-29T17:33:46.044Z</time></trkpt><trkpt lat="38.373995" lon="0.1878722"><ele>0.0</ele><time>2026-04-29T17:33:47.043Z</time></trkpt><trkpt lat="38.3740683" lon="0.1879335"><ele>0.0</ele><time>2026-04-29T17:33:48.044Z</time></trkpt><trkpt lat="38.3741461" lon="0.1879929"><ele>0.0</ele><time>2026-04-29T17:33:49.044Z</time></trkpt><trkpt lat="38.3742157" lon="0.188059"><ele>0.0</ele><time>2026-04-29T17:33:50.043Z</time></trkpt><trkpt lat="38.3742841" lon="0.1881284"><ele>0.0</ele><time>2026-04-29T17:33:51.044Z</time></trkpt><trkpt lat="38.3743551" lon="0.1882038"><ele>0.0</ele><time>2026-04-29T17:33:52.044Z</time></trkpt><trkpt lat="38.3744239" lon="0.1882739"><ele>0.0</ele><time>2026-04-29T17:33:53.044Z</time></trkpt><trkpt lat="38.3744965" lon="0.1883424"><ele>0.0</ele><time>2026-04-29T17:33:54.044Z</time></trkpt><trkpt lat="38.3745701" lon="0.1884006"><ele>0.0</ele><time>2026-04-29T17:33:55.044Z</time></trkpt><trkpt lat="38.3746419" lon="0.1884675"><ele>0.0</ele><time>2026-04-29T17:33:56.044Z</time></trkpt><trkpt lat="38.3747118" lon="0.188537"><ele>0.0</ele><time>2026-04-29T17:33:57.043Z</time></trkpt><trkpt lat="38.3747863" lon="0.1886041"><ele>0.0</ele><time>2026-04-29T17:33:58.044Z</time></trkpt><trkpt lat="38.3748611" lon="0.1886724"><ele>0.0</ele><time>2026-04-29T17:33:59.044Z</time></trkpt><trkpt lat="38.3749333" lon="0.1887388"><ele>0.0</ele><time>2026-04-29T17:34:00.043Z</time></trkpt><trkpt lat="38.3750747" lon="0.1888768"><ele>0.0</ele><time>2026-04-29T17:34:02.044Z</time></trkpt><trkpt lat="38.3751465" lon="0.1889414"><ele>0.0</ele><time>2026-04-29T17:34:03.044Z</time></trkpt><trkpt lat="38.3752183" lon="0.1890047"><ele>0.0</ele><time>2026-04-29T17:34:04.043Z</time></trkpt><trkpt lat="38.3752899" lon="0.1890654"><ele>0.0</ele><time>2026-04-29T17:34:05.044Z</time></trkpt><trkpt lat="38.3753602" lon="0.1891268"><ele>0.0</ele><time>2026-04-29T17:34:06.043Z</time></trkpt><trkpt lat="38.3754318" lon="0.1891856"><ele>0.0</ele><time>2026-04-29T17:34:07.043Z</time></trkpt><trkpt lat="38.3755005" lon="0.1892527"><ele>0.0</ele><time>2026-04-29T17:34:08.043Z</time></trkpt><trkpt lat="38.3755602" lon="0.1893281"><ele>0.0</ele><time>2026-04-29T17:34:09.044Z</time></trkpt><trkpt lat="38.3756316" lon="0.1893933"><ele>0.0</ele><time>2026-04-29T17:34:10.044Z</time></trkpt><trkpt lat="38.3757035" lon="0.1894509"><ele>0.0</ele><time>2026-04-29T17:34:11.043Z</time></trkpt><trkpt lat="38.3757794" lon="0.1894964"><ele>0.0</ele><time>2026-04-29T17:34:12.044Z</time></trkpt><trkpt lat="38.3758503" lon="0.1895486"><ele>0.0</ele><time>2026-04-29T17:34:13.043Z</time></trkpt><trkpt lat="38.3759204" lon="0.189607"><ele>0.0</ele><time>2026-04-29T17:34:14.043Z</time></trkpt><trkpt lat="38.375992" lon="0.1896594"><ele>0.0</ele><time>2026-04-29T17:34:15.044Z</time></trkpt><trkpt lat="38.3760622" lon="0.1897224"><ele>0.0</ele><time>2026-04-29T17:34:16.043Z</time></trkpt><trkpt lat="38.3761337" lon="0.1897693"><ele>0.0</ele><time>2026-04-29T17:34:17.043Z</time></trkpt><trkpt lat="38.3762108" lon="0.18982"><ele>0.0</ele><time>2026-04-29T17:34:18.044Z</time></trkpt><trkpt lat="38.376283" lon="0.1898713"><ele>0.0</ele><time>2026-04-29T17:34:19.043Z</time></trkpt><trkpt lat="38.376358" lon="0.1899272"><ele>0.0</ele><time>2026-04-29T17:34:20.044Z</time></trkpt><trkpt lat="38.3764318" lon="0.1899821"><ele>0.0</ele><time>2026-04-29T17:34:21.044Z</time></trkpt><trkpt lat="38.3765704" lon="0.1901056"><ele>0.0</ele><time>2026-04-29T17:34:23.043Z</time></trkpt><trkpt lat="38.3766404" lon="0.1901675"><ele>0.0</ele><time>2026-04-29T17:34:24.044Z</time></trkpt><trkpt lat="38.3767135" lon="0.1902326"><ele>0.0</ele><time>2026-04-29T17:34:25.044Z</time></trkpt><trkpt lat="38.3767838" lon="0.1902965"><ele>0.0</ele><time>2026-04-29T17:34:26.044Z</time></trkpt><trkpt lat="38.3768581" lon="0.1903659"><ele>0.0</ele><time>2026-04-29T17:34:27.043Z</time></trkpt><trkpt lat="38.3769357" lon="0.1904343"><ele>0.0</ele><time>2026-04-29T17:34:28.043Z</time></trkpt><trkpt lat="38.3770124" lon="0.1905054"><ele>0.0</ele><time>2026-04-29T17:34:29.043Z</time></trkpt><trkpt lat="38.3770892" lon="0.1905682"><ele>0.0</ele><time>2026-04-29T17:34:30.043Z</time></trkpt><trkpt lat="38.3771604" lon="0.1906285"><ele>0.0</ele><time>2026-04-29T17:34:31.044Z</time></trkpt><trkpt lat="38.3772359" lon="0.1906899"><ele>0.0</ele><time>2026-04-29T17:34:32.044Z</time></trkpt><trkpt lat="38.3773056" lon="0.1907486"><ele>0.0</ele><time>2026-04-29T17:34:33.044Z</time></trkpt><trkpt lat="38.3773739" lon="0.1908079"><ele>0.0</ele><time>2026-04-29T17:34:34.043Z</time></trkpt><trkpt lat="38.377441" lon="0.1908693"><ele>0.0</ele><time>2026-04-29T17:34:35.043Z</time></trkpt><trkpt lat="38.3775106" lon="0.1909366"><ele>0.0</ele><time>2026-04-29T17:34:36.043Z</time></trkpt><trkpt lat="38.3775804" lon="0.1910036"><ele>0.0</ele><time>2026-04-29T17:34:37.042Z</time></trkpt><trkpt lat="38.3776504" lon="0.191075"><ele>0.0</ele><time>2026-04-29T17:34:38.042Z</time></trkpt><trkpt lat="38.3777216" lon="0.1911415"><ele>0.0</ele><time>2026-04-29T17:34:39.043Z</time></trkpt><trkpt lat="38.3777919" lon="0.1912019"><ele>0.0</ele><time>2026-04-29T17:34:40.042Z</time></trkpt><trkpt lat="38.3778607" lon="0.1912673"><ele>0.0</ele><time>2026-04-29T17:34:41.042Z</time></trkpt><trkpt lat="38.3779317" lon="0.1913277"><ele>0.0</ele><time>2026-04-29T17:34:42.042Z</time></trkpt><trkpt lat="38.3780812" lon="0.1914457"><ele>0.0</ele><time>2026-04-29T17:34:44.043Z</time></trkpt><trkpt lat="38.378156" lon="0.1914996"><ele>0.0</ele><time>2026-04-29T17:34:45.043Z</time></trkpt><trkpt lat="38.3782326" lon="0.1915569"><ele>0.0</ele><time>2026-04-29T17:34:46.043Z</time></trkpt><trkpt lat="38.378305" lon="0.1916209"><ele>0.0</ele><time>2026-04-29T17:34:47.043Z</time></trkpt><trkpt lat="38.3783735" lon="0.1916871"><ele>0.0</ele><time>2026-04-29T17:34:48.043Z</time></trkpt><trkpt lat="38.3784465" lon="0.1917537"><ele>0.0</ele><time>2026-04-29T17:34:49.042Z</time></trkpt><trkpt lat="38.3785197" lon="0.1918217"><ele>0.0</ele><time>2026-04-29T17:34:50.042Z</time></trkpt><trkpt lat="38.378592" lon="0.1918903"><ele>0.0</ele><time>2026-04-29T17:34:51.042Z</time></trkpt><trkpt lat="38.3786634" lon="0.1919715"><ele>0.0</ele><time>2026-04-29T17:34:52.042Z</time></trkpt><trkpt lat="38.3787291" lon="0.1920468"><ele>0.0</ele><time>2026-04-29T17:34:53.043Z</time></trkpt><trkpt lat="38.3787956" lon="0.1921184"><ele>0.0</ele><time>2026-04-29T17:34:54.043Z</time></trkpt><trkpt lat="38.3788639" lon="0.1921973"><ele>0.0</ele><time>2026-04-29T17:34:55.042Z</time></trkpt><trkpt lat="38.3789351" lon="0.1922757"><ele>0.0</ele><time>2026-04-29T17:34:56.042Z</time></trkpt><trkpt lat="38.379001" lon="0.1923494"><ele>0.0</ele><time>2026-04-29T17:34:57.042Z</time></trkpt><trkpt lat="38.379066" lon="0.1924238"><ele>0.0</ele><time>2026-04-29T17:34:58.043Z</time></trkpt><trkpt lat="38.3791326" lon="0.1924886"><ele>0.0</ele><time>2026-04-29T17:34:59.042Z</time></trkpt><trkpt lat="38.3792005" lon="0.1925467"><ele>0.0</ele><time>2026-04-29T17:35:00.042Z</time></trkpt><trkpt lat="38.3792743" lon="0.1926018"><ele>0.0</ele><time>2026-04-29T17:35:01.043Z</time></trkpt><trkpt lat="38.379348" lon="0.1926518"><ele>0.0</ele><time>2026-04-29T17:35:02.043Z</time></trkpt><trkpt lat="38.3794215" lon="0.1927046"><ele>0.0</ele><time>2026-04-29T17:35:03.042Z</time></trkpt><trkpt lat="38.3795653" lon="0.1928299"><ele>0.0</ele><time>2026-04-29T17:35:05.043Z</time></trkpt><trkpt lat="38.379641" lon="0.1928921"><ele>0.0</ele><time>2026-04-29T17:35:06.042Z</time></trkpt><trkpt lat="38.3797145" lon="0.1929465"><ele>0.0</ele><time>2026-04-29T17:35:07.043Z</time></trkpt><trkpt lat="38.3797867" lon="0.193007"><ele>0.0</ele><time>2026-04-29T17:35:08.043Z</time></trkpt><trkpt lat="38.3798557" lon="0.1930714"><ele>0.0</ele><time>2026-04-29T17:35:09.042Z</time></trkpt><trkpt lat="38.379921" lon="0.1931462"><ele>0.0</ele><time>2026-04-29T17:35:10.043Z</time></trkpt><trkpt lat="38.3799978" lon="0.1932127"><ele>0.0</ele><time>2026-04-29T17:35:11.042Z</time></trkpt><trkpt lat="38.3800729" lon="0.1932817"><ele>0.0</ele><time>2026-04-29T17:35:12.042Z</time></trkpt><trkpt lat="38.3801479" lon="0.1933418"><ele>0.0</ele><time>2026-04-29T17:35:13.043Z</time></trkpt><trkpt lat="38.3802216" lon="0.1934064"><ele>0.0</ele><time>2026-04-29T17:35:14.043Z</time></trkpt><trkpt lat="38.3802935" lon="0.1934685"><ele>0.0</ele><time>2026-04-29T17:35:15.043Z</time></trkpt><trkpt lat="38.3803638" lon="0.1935274"><ele>0.0</ele><time>2026-04-29T17:35:16.043Z</time></trkpt><trkpt lat="38.3804352" lon="0.1935815"><ele>0.0</ele><time>2026-04-29T17:35:17.043Z</time></trkpt><trkpt lat="38.3805054" lon="0.1936261"><ele>0.0</ele><time>2026-04-29T17:35:18.043Z</time></trkpt><trkpt lat="38.3805838" lon="0.1936739"><ele>0.0</ele><time>2026-04-29T17:35:19.043Z</time></trkpt><trkpt lat="38.3806595" lon="0.1937303"><ele>0.0</ele><time>2026-04-29T17:35:20.043Z</time></trkpt><trkpt lat="38.3807361" lon="0.1938043"><ele>0.0</ele><time>2026-04-29T17:35:21.042Z</time></trkpt><trkpt lat="38.3808126" lon="0.1938639"><ele>0.0</ele><time>2026-04-29T17:35:22.042Z</time></trkpt><trkpt lat="38.3808864" lon="0.1939297"><ele>0.0</ele><time>2026-04-29T17:35:23.042Z</time></trkpt><trkpt lat="38.3809584" lon="0.1939949"><ele>0.0</ele><time>2026-04-29T17:35:24.042Z</time></trkpt><trkpt lat="38.3811022" lon="0.1941263"><ele>0.0</ele><time>2026-04-29T17:35:26.043Z</time></trkpt><trkpt lat="38.381169" lon="0.1941871"><ele>0.0</ele><time>2026-04-29T17:35:27.043Z</time></trkpt><trkpt lat="38.3812385" lon="0.1942469"><ele>0.0</ele><time>2026-04-29T17:35:28.043Z</time></trkpt><trkpt lat="38.3813102" lon="0.1943099"><ele>0.0</ele><time>2026-04-29T17:35:29.042Z</time></trkpt><trkpt lat="38.3813816" lon="0.1943712"><ele>0.0</ele><time>2026-04-29T17:35:30.042Z</time></trkpt><trkpt lat="38.3814593" lon="0.1944342"><ele>0.0</ele><time>2026-04-29T17:35:31.042Z</time></trkpt><trkpt lat="38.381529" lon="0.1944873"><ele>0.0</ele><time>2026-04-29T17:35:32.042Z</time></trkpt><trkpt lat="38.3815987" lon="0.1945433"><ele>0.0</ele><time>2026-04-29T17:35:33.042Z</time></trkpt><trkpt lat="38.3816716" lon="0.1946078"><ele>0.0</ele><time>2026-04-29T17:35:34.042Z</time></trkpt><trkpt lat="38.3817432" lon="0.1946716"><ele>0.0</ele><time>2026-04-29T17:35:35.043Z</time></trkpt><trkpt lat="38.3818151" lon="0.1947391"><ele>0.0</ele><time>2026-04-29T17:35:36.043Z</time></trkpt><trkpt lat="38.3818853" lon="0.1947977"><ele>0.0</ele><time>2026-04-29T17:35:37.042Z</time></trkpt><trkpt lat="38.3819568" lon="0.1948575"><ele>0.0</ele><time>2026-04-29T17:35:38.043Z</time></trkpt><trkpt lat="38.382023" lon="0.1949128"><ele>0.0</ele><time>2026-04-29T17:35:39.042Z</time></trkpt><trkpt lat="38.3820924" lon="0.1949748"><ele>0.0</ele><time>2026-04-29T17:35:40.043Z</time></trkpt><trkpt lat="38.3821608" lon="0.1950329"><ele>0.0</ele><time>2026-04-29T17:35:41.043Z</time></trkpt><trkpt lat="38.3822333" lon="0.1950962"><ele>0.0</ele><time>2026-04-29T17:35:42.043Z</time></trkpt><trkpt lat="38.382308" lon="0.1951626"><ele>0.0</ele><time>2026-04-29T17:35:43.043Z</time></trkpt><trkpt lat="38.3823814" lon="0.1952264"><ele>0.0</ele><time>2026-04-29T17:35:44.042Z</time></trkpt><trkpt lat="38.3824548" lon="0.1952898"><ele>0.0</ele><time>2026-04-29T17:35:45.043Z</time></trkpt><trkpt lat="38.3826126" lon="0.1954336"><ele>0.0</ele><time>2026-04-29T17:35:47.042Z</time></trkpt><trkpt lat="38.3826808" lon="0.1955022"><ele>0.0</ele><time>2026-04-29T17:35:48.043Z</time></trkpt><trkpt lat="38.3827488" lon="0.1955675"><ele>0.0</ele><time>2026-04-29T17:35:49.043Z</time></trkpt><trkpt lat="38.3828172" lon="0.1956355"><ele>0.0</ele><time>2026-04-29T17:35:50.042Z</time></trkpt><trkpt lat="38.3828871" lon="0.1957024"><ele>0.0</ele><time>2026-04-29T17:35:51.042Z</time></trkpt><trkpt lat="38.38296" lon="0.1957647"><ele>0.0</ele><time>2026-04-29T17:35:52.042Z</time></trkpt><trkpt lat="38.3830362" lon="0.1958222"><ele>0.0</ele><time>2026-04-29T17:35:53.042Z</time></trkpt><trkpt lat="38.3831041" lon="0.1958828"><ele>0.0</ele><time>2026-04-29T17:35:54.042Z</time></trkpt><trkpt lat="38.3831782" lon="0.1959515"><ele>0.0</ele><time>2026-04-29T17:35:55.042Z</time></trkpt><trkpt lat="38.383249" lon="0.1960119"><ele>0.0</ele><time>2026-04-29T17:35:56.042Z</time></trkpt><trkpt lat="38.3833193" lon="0.19607"><ele>0.0</ele><time>2026-04-29T17:35:57.043Z</time></trkpt><trkpt lat="38.3833901" lon="0.1961284"><ele>0.0</ele><time>2026-04-29T17:35:58.042Z</time></trkpt><trkpt lat="38.3834619" lon="0.196194"><ele>0.0</ele><time>2026-04-29T17:35:59.042Z</time></trkpt><trkpt lat="38.3835421" lon="0.1962663"><ele>0.0</ele><time>2026-04-29T17:36:00.043Z</time></trkpt><trkpt lat="38.3836221" lon="0.1963426"><ele>0.0</ele><time>2026-04-29T17:36:01.043Z</time></trkpt><trkpt lat="38.3836966" lon="0.1964112"><ele>0.0</ele><time>2026-04-29T17:36:02.042Z</time></trkpt><trkpt lat="38.38377" lon="0.1964764"><ele>0.0</ele><time>2026-04-29T17:36:03.042Z</time></trkpt><trkpt lat="38.3838447" lon="0.1965343"><ele>0.0</ele><time>2026-04-29T17:36:04.042Z</time></trkpt><trkpt lat="38.383921" lon="0.1965984"><ele>0.0</ele><time>2026-04-29T17:36:05.042Z</time></trkpt><trkpt lat="38.3839949" lon="0.1966603"><ele>0.0</ele><time>2026-04-29T17:36:06.042Z</time></trkpt><trkpt lat="38.3841344" lon="0.1967724"><ele>0.0</ele><time>2026-04-29T17:36:08.042Z</time></trkpt><trkpt lat="38.3842026" lon="0.1968301"><ele>0.0</ele><time>2026-04-29T17:36:09.043Z</time></trkpt><trkpt lat="38.3842723" lon="0.1968901"><ele>0.0</ele><time>2026-04-29T17:36:10.042Z</time></trkpt><trkpt lat="38.384342" lon="0.1969505"><ele>0.0</ele><time>2026-04-29T17:36:11.042Z</time></trkpt><trkpt lat="38.3844107" lon="0.1970087"><ele>0.0</ele><time>2026-04-29T17:36:12.043Z</time></trkpt><trkpt lat="38.3844848" lon="0.1970596"><ele>0.0</ele><time>2026-04-29T17:36:13.042Z</time></trkpt><trkpt lat="38.3845611" lon="0.1971101"><ele>0.0</ele><time>2026-04-29T17:36:14.043Z</time></trkpt><trkpt lat="38.3846309" lon="0.1971668"><ele>0.0</ele><time>2026-04-29T17:36:15.042Z</time></trkpt><trkpt lat="38.3847006" lon="0.1972304"><ele>0.0</ele><time>2026-04-29T17:36:16.042Z</time></trkpt><trkpt lat="38.3847691" lon="0.1972886"><ele>0.0</ele><time>2026-04-29T17:36:17.042Z</time></trkpt><trkpt lat="38.3848375" lon="0.1973484"><ele>0.0</ele><time>2026-04-29T17:36:18.042Z</time></trkpt><trkpt lat="38.3849074" lon="0.1974071"><ele>0.0</ele><time>2026-04-29T17:36:19.043Z</time></trkpt><trkpt lat="38.3849829" lon="0.1974655"><ele>0.0</ele><time>2026-04-29T17:36:20.042Z</time></trkpt><trkpt lat="38.3850608" lon="0.197522"><ele>0.0</ele><time>2026-04-29T17:36:21.042Z</time></trkpt><trkpt lat="38.3851407" lon="0.1975813"><ele>0.0</ele><time>2026-04-29T17:36:22.043Z</time></trkpt><trkpt lat="38.3852165" lon="0.1976412"><ele>0.0</ele><time>2026-04-29T17:36:23.042Z</time></trkpt><trkpt lat="38.38529" lon="0.1977085"><ele>0.0</ele><time>2026-04-29T17:36:24.042Z</time></trkpt><trkpt lat="38.3853574" lon="0.1977812"><ele>0.0</ele><time>2026-04-29T17:36:25.042Z</time></trkpt><trkpt lat="38.3854341" lon="0.197845"><ele>0.0</ele><time>2026-04-29T17:36:26.042Z</time></trkpt><trkpt lat="38.3855097" lon="0.1978996"><ele>0.0</ele><time>2026-04-29T17:36:27.042Z</time></trkpt><trkpt lat="38.3855916" lon="0.1979599"><ele>0.0</ele><time>2026-04-29T17:36:28.043Z</time></trkpt><trkpt lat="38.3857371" lon="0.198077"><ele>0.0</ele><time>2026-04-29T17:36:30.043Z</time></trkpt><trkpt lat="38.3858059" lon="0.1981366"><ele>0.0</ele><time>2026-04-29T17:36:31.043Z</time></trkpt><trkpt lat="38.3858742" lon="0.198201"><ele>0.0</ele><time>2026-04-29T17:36:32.042Z</time></trkpt><trkpt lat="38.3859469" lon="0.1982631"><ele>0.0</ele><time>2026-04-29T17:36:33.042Z</time></trkpt><trkpt lat="38.3860185" lon="0.1983195"><ele>0.0</ele><time>2026-04-29T17:36:34.043Z</time></trkpt><trkpt lat="38.3860916" lon="0.1983818"><ele>0.0</ele><time>2026-04-29T17:36:35.042Z</time></trkpt><trkpt lat="38.3861633" lon="0.1984427"><ele>0.0</ele><time>2026-04-29T17:36:36.042Z</time></trkpt><trkpt lat="38.3862381" lon="0.1985024"><ele>0.0</ele><time>2026-04-29T17:36:37.043Z</time></trkpt><trkpt lat="38.3863101" lon="0.1985632"><ele>0.0</ele><time>2026-04-29T17:36:38.043Z</time></trkpt><trkpt lat="38.3863833" lon="0.1986248"><ele>0.0</ele><time>2026-04-29T17:36:39.042Z</time></trkpt><trkpt lat="38.3864538" lon="0.1986869"><ele>0.0</ele><time>2026-04-29T17:36:40.043Z</time></trkpt><trkpt lat="38.3865235" lon="0.1987454"><ele>0.0</ele><time>2026-04-29T17:36:41.042Z</time></trkpt><trkpt lat="38.3865952" lon="0.1988079"><ele>0.0</ele><time>2026-04-29T17:36:42.042Z</time></trkpt><trkpt lat="38.3866668" lon="0.1988685"><ele>0.0</ele><time>2026-04-29T17:36:43.043Z</time></trkpt><trkpt lat="38.3867427" lon="0.1989309"><ele>0.0</ele><time>2026-04-29T17:36:44.043Z</time></trkpt><trkpt lat="38.3868164" lon="0.1990003"><ele>0.0</ele><time>2026-04-29T17:36:45.042Z</time></trkpt><trkpt lat="38.3868897" lon="0.1990657"><ele>0.0</ele><time>2026-04-29T17:36:46.043Z</time></trkpt><trkpt lat="38.3869645" lon="0.1991363"><ele>0.0</ele><time>2026-04-29T17:36:47.042Z</time></trkpt><trkpt lat="38.3870353" lon="0.1992026"><ele>0.0</ele><time>2026-04-29T17:36:48.043Z</time></trkpt><trkpt lat="38.3871066" lon="0.1992697"><ele>0.0</ele><time>2026-04-29T17:36:49.042Z</time></trkpt><trkpt lat="38.387246" lon="0.1993957"><ele>0.0</ele><time>2026-04-29T17:36:51.042Z</time></trkpt><trkpt lat="38.3873169" lon="0.1994569"><ele>0.0</ele><time>2026-04-29T17:36:52.042Z</time></trkpt><trkpt lat="38.3873867" lon="0.1995248"><ele>0.0</ele><time>2026-04-29T17:36:53.043Z</time></trkpt><trkpt lat="38.387454" lon="0.199589"><ele>0.0</ele><time>2026-04-29T17:36:54.043Z</time></trkpt><trkpt lat="38.3875265" lon="0.1996406"><ele>0.0</ele><time>2026-04-29T17:36:55.042Z</time></trkpt><trkpt lat="38.3875983" lon="0.1996941"><ele>0.0</ele><time>2026-04-29T17:36:56.042Z</time></trkpt><trkpt lat="38.3876702" lon="0.1997556"><ele>0.0</ele><time>2026-04-29T17:36:57.042Z</time></trkpt><trkpt lat="38.3877432" lon="0.19982"><ele>0.0</ele><time>2026-04-29T17:36:58.042Z</time></trkpt><trkpt lat="38.3878153" lon="0.1998859"><ele>0.0</ele><time>2026-04-29T17:36:59.043Z</time></trkpt><trkpt lat="38.3878871" lon="0.1999556"><ele>0.0</ele><time>2026-04-29T17:37:00.042Z</time></trkpt><trkpt lat="38.3879571" lon="0.2000238"><ele>0.0</ele><time>2026-04-29T17:37:01.042Z</time></trkpt><trkpt lat="38.3880281" lon="0.2000933"><ele>0.0</ele><time>2026-04-29T17:37:02.042Z</time></trkpt><trkpt lat="38.3881014" lon="0.200168"><ele>0.0</ele><time>2026-04-29T17:37:03.043Z</time></trkpt><trkpt lat="38.3881751" lon="0.2002342"><ele>0.0</ele><time>2026-04-29T17:37:04.043Z</time></trkpt><trkpt lat="38.3882479" lon="0.2002999"><ele>0.0</ele><time>2026-04-29T17:37:05.043Z</time></trkpt><trkpt lat="38.3883185" lon="0.2003648"><ele>0.0</ele><time>2026-04-29T17:37:06.043Z</time></trkpt><trkpt lat="38.38839" lon="0.200427"><ele>0.0</ele><time>2026-04-29T17:37:07.043Z</time></trkpt><trkpt lat="38.3884605" lon="0.2004915"><ele>0.0</ele><time>2026-04-29T17:37:08.043Z</time></trkpt><trkpt lat="38.388533" lon="0.2005511"><ele>0.0</ele><time>2026-04-29T17:37:09.042Z</time></trkpt><trkpt lat="38.3886021" lon="0.2006061"><ele>0.0</ele><time>2026-04-29T17:37:10.043Z</time></trkpt><trkpt lat="38.3887363" lon="0.2007256"><ele>0.0</ele><time>2026-04-29T17:37:12.043Z</time></trkpt><trkpt lat="38.3888069" lon="0.2007877"><ele>0.0</ele><time>2026-04-29T17:37:13.043Z</time></trkpt><trkpt lat="38.388876" lon="0.2008553"><ele>0.0</ele><time>2026-04-29T17:37:14.043Z</time></trkpt><trkpt lat="38.3889443" lon="0.2009174"><ele>0.0</ele><time>2026-04-29T17:37:15.043Z</time></trkpt><trkpt lat="38.3890154" lon="0.2009812"><ele>0.0</ele><time>2026-04-29T17:37:16.042Z</time></trkpt><trkpt lat="38.3890899" lon="0.2010461"><ele>0.0</ele><time>2026-04-29T17:37:17.042Z</time></trkpt><trkpt lat="38.389158" lon="0.2011122"><ele>0.0</ele><time>2026-04-29T17:37:18.043Z</time></trkpt><trkpt lat="38.3892218" lon="0.2011905"><ele>0.0</ele><time>2026-04-29T17:37:19.043Z</time></trkpt><trkpt lat="38.3892935" lon="0.201255"><ele>0.0</ele><time>2026-04-29T17:37:20.043Z</time></trkpt><trkpt lat="38.3893697" lon="0.2013153"><ele>0.0</ele><time>2026-04-29T17:37:21.043Z</time></trkpt><trkpt lat="38.389445" lon="0.2013751"><ele>0.0</ele><time>2026-04-29T17:37:22.043Z</time></trkpt><trkpt lat="38.3895212" lon="0.201434"><ele>0.0</ele><time>2026-04-29T17:37:23.043Z</time></trkpt><trkpt lat="38.389598" lon="0.2014879"><ele>0.0</ele><time>2026-04-29T17:37:24.043Z</time></trkpt><trkpt lat="38.38967" lon="0.2015443"><ele>0.0</ele><time>2026-04-29T17:37:25.042Z</time></trkpt><trkpt lat="38.3897475" lon="0.201605"><ele>0.0</ele><time>2026-04-29T17:37:26.043Z</time></trkpt><trkpt lat="38.3898241" lon="0.2016596"><ele>0.0</ele><time>2026-04-29T17:37:27.043Z</time></trkpt><trkpt lat="38.3899023" lon="0.2017109"><ele>0.0</ele><time>2026-04-29T17:37:28.042Z</time></trkpt><trkpt lat="38.3899774" lon="0.2017695"><ele>0.0</ele><time>2026-04-29T17:37:29.042Z</time></trkpt><trkpt lat="38.3900555" lon="0.2018287"><ele>0.0</ele><time>2026-04-29T17:37:30.042Z</time></trkpt><trkpt lat="38.3901255" lon="0.2018944"><ele>0.0</ele><time>2026-04-29T17:37:31.042Z</time></trkpt><trkpt lat="38.3901942" lon="0.2019611"><ele>0.0</ele><time>2026-04-29T17:37:32.043Z</time></trkpt><trkpt lat="38.3903412" lon="0.2020772"><ele>0.0</ele><time>2026-04-29T17:37:34.043Z</time></trkpt><trkpt lat="38.3904165" lon="0.2021341"><ele>0.0</ele><time>2026-04-29T17:37:35.042Z</time></trkpt><trkpt lat="38.3904918" lon="0.2021907"><ele>0.0</ele><time>2026-04-29T17:37:36.042Z</time></trkpt><trkpt lat="38.3905637" lon="0.2022472"><ele>0.0</ele><time>2026-04-29T17:37:37.042Z</time></trkpt><trkpt lat="38.3906356" lon="0.2023039"><ele>0.0</ele><time>2026-04-29T17:37:38.043Z</time></trkpt><trkpt lat="38.3907082" lon="0.2023624"><ele>0.0</ele><time>2026-04-29T17:37:39.042Z</time></trkpt><trkpt lat="38.3907802" lon="0.2024204"><ele>0.0</ele><time>2026-04-29T17:37:40.042Z</time></trkpt><trkpt lat="38.390852" lon="0.2024791"><ele>0.0</ele><time>2026-04-29T17:37:41.042Z</time></trkpt><trkpt lat="38.3909281" lon="0.2025342"><ele>0.0</ele><time>2026-04-29T17:37:42.043Z</time></trkpt><trkpt lat="38.3910029" lon="0.2026002"><ele>0.0</ele><time>2026-04-29T17:37:43.043Z</time></trkpt><trkpt lat="38.3910736" lon="0.202667"><ele>0.0</ele><time>2026-04-29T17:37:44.043Z</time></trkpt><trkpt lat="38.391148" lon="0.2027296"><ele>0.0</ele><time>2026-04-29T17:37:45.042Z</time></trkpt><trkpt lat="38.3912227" lon="0.2027902"><ele>0.0</ele><time>2026-04-29T17:37:46.042Z</time></trkpt><trkpt lat="38.3912995" lon="0.2028456"><ele>0.0</ele><time>2026-04-29T17:37:47.042Z</time></trkpt><trkpt lat="38.3913763" lon="0.2029089"><ele>0.0</ele><time>2026-04-29T17:37:48.043Z</time></trkpt><trkpt lat="38.3914485" lon="0.2029742"><ele>0.0</ele><time>2026-04-29T17:37:49.042Z</time></trkpt><trkpt lat="38.39152" lon="0.203039"><ele>0.0</ele><time>2026-04-29T17:37:50.042Z</time></trkpt><trkpt lat="38.3915922" lon="0.2031093"><ele>0.0</ele><time>2026-04-29T17:37:51.043Z</time></trkpt><trkpt lat="38.3916651" lon="0.2031784"><ele>0.0</ele><time>2026-04-29T17:37:52.043Z</time></trkpt><trkpt lat="38.3917356" lon="0.2032417"><ele>0.0</ele><time>2026-04-29T17:37:53.042Z</time></trkpt><trkpt lat="38.3918828" lon="0.2033733"><ele>0.0</ele><time>2026-04-29T17:37:55.042Z</time></trkpt><trkpt lat="38.391958" lon="0.2034419"><ele>0.0</ele><time>2026-04-29T17:37:56.043Z</time></trkpt><trkpt lat="38.3920299" lon="0.2035058"><ele>0.0</ele><time>2026-04-29T17:37:57.042Z</time></trkpt><trkpt lat="38.3920987" lon="0.2035709"><ele>0.0</ele><time>2026-04-29T17:37:58.043Z</time></trkpt><trkpt lat="38.3921714" lon="0.2036331"><ele>0.0</ele><time>2026-04-29T17:37:59.043Z</time></trkpt><trkpt lat="38.3922462" lon="0.2036965"><ele>0.0</ele><time>2026-04-29T17:38:00.042Z</time></trkpt><trkpt lat="38.3923214" lon="0.2037614"><ele>0.0</ele><time>2026-04-29T17:38:01.042Z</time></trkpt><trkpt lat="38.3923935" lon="0.2038264"><ele>0.0</ele><time>2026-04-29T17:38:02.042Z</time></trkpt><trkpt lat="38.392461" lon="0.203893"><ele>0.0</ele><time>2026-04-29T17:38:03.042Z</time></trkpt><trkpt lat="38.3925291" lon="0.2039568"><ele>0.0</ele><time>2026-04-29T17:38:04.042Z</time></trkpt><trkpt lat="38.3925987" lon="0.2040202"><ele>0.0</ele><time>2026-04-29T17:38:05.042Z</time></trkpt><trkpt lat="38.3926685" lon="0.2040774"><ele>0.0</ele><time>2026-04-29T17:38:06.042Z</time></trkpt><trkpt lat="38.3927415" lon="0.2041395"><ele>0.0</ele><time>2026-04-29T17:38:07.043Z</time></trkpt><trkpt lat="38.3928138" lon="0.2042006"><ele>0.0</ele><time>2026-04-29T17:38:08.043Z</time></trkpt><trkpt lat="38.3928866" lon="0.2042661"><ele>0.0</ele><time>2026-04-29T17:38:09.042Z</time></trkpt><trkpt lat="38.39296" lon="0.2043323"><ele>0.0</ele><time>2026-04-29T17:38:10.042Z</time></trkpt><trkpt lat="38.3930348" lon="0.2043975"><ele>0.0</ele><time>2026-04-29T17:38:11.043Z</time></trkpt><trkpt lat="38.3931081" lon="0.2044526"><ele>0.0</ele><time>2026-04-29T17:38:12.043Z</time></trkpt><trkpt lat="38.3931802" lon="0.2045147"><ele>0.0</ele><time>2026-04-29T17:38:13.042Z</time></trkpt><trkpt lat="38.3932536" lon="0.2045795"><ele>0.0</ele><time>2026-04-29T17:38:14.042Z</time></trkpt><trkpt lat="38.3934013" lon="0.2047051"><ele>0.0</ele><time>2026-04-29T17:38:16.042Z</time></trkpt><trkpt lat="38.3934706" lon="0.204762"><ele>0.0</ele><time>2026-04-29T17:38:17.042Z</time></trkpt><trkpt lat="38.3935433" lon="0.2048264"><ele>0.0</ele><time>2026-04-29T17:38:18.043Z</time></trkpt><trkpt lat="38.3936152" lon="0.204891"><ele>0.0</ele><time>2026-04-29T17:38:19.043Z</time></trkpt><trkpt lat="38.3936941" lon="0.2049602"><ele>0.0</ele><time>2026-04-29T17:38:20.042Z</time></trkpt><trkpt lat="38.3937709" lon="0.2050176"><ele>0.0</ele><time>2026-04-29T17:38:21.042Z</time></trkpt><trkpt lat="38.3938465" lon="0.2050813"><ele>0.0</ele><time>2026-04-29T17:38:22.043Z</time></trkpt><trkpt lat="38.3939201" lon="0.2051401"><ele>0.0</ele><time>2026-04-29T17:38:23.043Z</time></trkpt><trkpt lat="38.3939876" lon="0.2052043"><ele>0.0</ele><time>2026-04-29T17:38:24.042Z</time></trkpt><trkpt lat="38.3940572" lon="0.2052698"><ele>0.0</ele><time>2026-04-29T17:38:25.043Z</time></trkpt><trkpt lat="38.3941272" lon="0.2053335"><ele>0.0</ele><time>2026-04-29T17:38:26.042Z</time></trkpt><trkpt lat="38.394193" lon="0.2053892"><ele>0.0</ele><time>2026-04-29T17:38:27.043Z</time></trkpt><trkpt lat="38.394261" lon="0.2054412"><ele>0.0</ele><time>2026-04-29T17:38:28.042Z</time></trkpt><trkpt lat="38.3943349" lon="0.2054986"><ele>0.0</ele><time>2026-04-29T17:38:29.042Z</time></trkpt><trkpt lat="38.3944072" lon="0.2055615"><ele>0.0</ele><time>2026-04-29T17:38:30.043Z</time></trkpt><trkpt lat="38.3944801" lon="0.2056204"><ele>0.0</ele><time>2026-04-29T17:38:31.043Z</time></trkpt><trkpt lat="38.3945562" lon="0.2056802"><ele>0.0</ele><time>2026-04-29T17:38:32.043Z</time></trkpt><trkpt lat="38.39463" lon="0.2057441"><ele>0.0</ele><time>2026-04-29T17:38:33.042Z</time></trkpt><trkpt lat="38.3947076" lon="0.2058047"><ele>0.0</ele><time>2026-04-29T17:38:34.042Z</time></trkpt><trkpt lat="38.3947829" lon="0.2058665"><ele>0.0</ele><time>2026-04-29T17:38:35.043Z</time></trkpt><trkpt lat="38.3949238" lon="0.2059837"><ele>0.0</ele><time>2026-04-29T17:38:37.043Z</time></trkpt><trkpt lat="38.3949967" lon="0.2060498"><ele>0.0</ele><time>2026-04-29T17:38:38.042Z</time></trkpt><trkpt lat="38.3950729" lon="0.2061168"><ele>0.0</ele><time>2026-04-29T17:38:39.043Z</time></trkpt><trkpt lat="38.3951409" lon="0.2061845"><ele>0.0</ele><time>2026-04-29T17:38:40.042Z</time></trkpt><trkpt lat="38.3952147" lon="0.2062438"><ele>0.0</ele><time>2026-04-29T17:38:41.042Z</time></trkpt><trkpt lat="38.3952884" lon="0.2063072"><ele>0.0</ele><time>2026-04-29T17:38:42.042Z</time></trkpt><trkpt lat="38.3953617" lon="0.2063767"><ele>0.0</ele><time>2026-04-29T17:38:43.043Z</time></trkpt><trkpt lat="38.3954334" lon="0.2064387"><ele>0.0</ele><time>2026-04-29T17:38:44.043Z</time></trkpt><trkpt lat="38.3955077" lon="0.2064985"><ele>0.0</ele><time>2026-04-29T17:38:45.043Z</time></trkpt><trkpt lat="38.3955843" lon="0.2065556"><ele>0.0</ele><time>2026-04-29T17:38:46.043Z</time></trkpt><trkpt lat="38.3956611" lon="0.2066149"><ele>0.0</ele><time>2026-04-29T17:38:47.042Z</time></trkpt><trkpt lat="38.3957377" lon="0.2066765"><ele>0.0</ele><time>2026-04-29T17:38:48.041Z</time></trkpt><trkpt lat="38.395814" lon="0.2067385"><ele>0.0</ele><time>2026-04-29T17:38:49.041Z</time></trkpt><trkpt lat="38.395888" lon="0.2067927"><ele>0.0</ele><time>2026-04-29T17:38:50.041Z</time></trkpt><trkpt lat="38.3959588" lon="0.2068488"><ele>0.0</ele><time>2026-04-29T17:38:51.042Z</time></trkpt><trkpt lat="38.3960301" lon="0.2069098"><ele>0.0</ele><time>2026-04-29T17:38:52.042Z</time></trkpt><trkpt lat="38.3961003" lon="0.206972"><ele>0.0</ele><time>2026-04-29T17:38:53.041Z</time></trkpt><trkpt lat="38.3961676" lon="0.2070331"><ele>0.0</ele><time>2026-04-29T17:38:54.041Z</time></trkpt><trkpt lat="38.3962386" lon="0.2070905"><ele>0.0</ele><time>2026-04-29T17:38:55.041Z</time></trkpt><trkpt lat="38.3963119" lon="0.2071603"><ele>0.0</ele><time>2026-04-29T17:38:56.041Z</time></trkpt><trkpt lat="38.3964558" lon="0.2072916"><ele>0.0</ele><time>2026-04-29T17:38:58.042Z</time></trkpt><trkpt lat="38.3965229" lon="0.2073504"><ele>0.0</ele><time>2026-04-29T17:38:59.042Z</time></trkpt><trkpt lat="38.3965885" lon="0.2074157"><ele>0.0</ele><time>2026-04-29T17:39:00.042Z</time></trkpt><trkpt lat="38.3966576" lon="0.2074796"><ele>0.0</ele><time>2026-04-29T17:39:01.041Z</time></trkpt><trkpt lat="38.3967256" lon="0.2075447"><ele>0.0</ele><time>2026-04-29T17:39:02.042Z</time></trkpt><trkpt lat="38.3967939" lon="0.207608"><ele>0.0</ele><time>2026-04-29T17:39:03.041Z</time></trkpt><trkpt lat="38.3968648" lon="0.2076803"><ele>0.0</ele><time>2026-04-29T17:39:04.042Z</time></trkpt><trkpt lat="38.3969425" lon="0.2077518"><ele>0.0</ele><time>2026-04-29T17:39:05.041Z</time></trkpt><trkpt lat="38.3970195" lon="0.2078162"><ele>0.0</ele><time>2026-04-29T17:39:06.042Z</time></trkpt><trkpt lat="38.3970945" lon="0.2078801"><ele>0.0</ele><time>2026-04-29T17:39:07.041Z</time></trkpt><trkpt lat="38.3971682" lon="0.2079444"><ele>0.0</ele><time>2026-04-29T17:39:08.042Z</time></trkpt><trkpt lat="38.3972429" lon="0.2080091"><ele>0.0</ele><time>2026-04-29T17:39:09.041Z</time></trkpt><trkpt lat="38.3973138" lon="0.208077"><ele>0.0</ele><time>2026-04-29T17:39:10.042Z</time></trkpt><trkpt lat="38.3973851" lon="0.2081342"><ele>0.0</ele><time>2026-04-29T17:39:11.041Z</time></trkpt><trkpt lat="38.3974585" lon="0.2081924"><ele>0.0</ele><time>2026-04-29T17:39:12.042Z</time></trkpt><trkpt lat="38.3975317" lon="0.208255"><ele>0.0</ele><time>2026-04-29T17:39:13.041Z</time></trkpt><trkpt lat="38.3976038" lon="0.2083192"><ele>0.0</ele><time>2026-04-29T17:39:14.042Z</time></trkpt><trkpt lat="38.3976771" lon="0.2083845"><ele>0.0</ele><time>2026-04-29T17:39:15.041Z</time></trkpt><trkpt lat="38.3977485" lon="0.2084477"><ele>0.0</ele><time>2026-04-29T17:39:16.041Z</time></trkpt><trkpt lat="38.3978202" lon="0.2085143"><ele>0.0</ele><time>2026-04-29T17:39:17.042Z</time></trkpt><trkpt lat="38.3979576" lon="0.2086451"><ele>0.0</ele><time>2026-04-29T17:39:19.042Z</time></trkpt><trkpt lat="38.3980288" lon="0.2087052"><ele>0.0</ele><time>2026-04-29T17:39:20.041Z</time></trkpt><trkpt lat="38.3981004" lon="0.2087653"><ele>0.0</ele><time>2026-04-29T17:39:21.041Z</time></trkpt><trkpt lat="38.398169" lon="0.20883"><ele>0.0</ele><time>2026-04-29T17:39:22.042Z</time></trkpt><trkpt lat="38.3982386" lon="0.2088976"><ele>0.0</ele><time>2026-04-29T17:39:23.041Z</time></trkpt><trkpt lat="38.3983115" lon="0.2089588"><ele>0.0</ele><time>2026-04-29T17:39:24.042Z</time></trkpt><trkpt lat="38.398388" lon="0.2090201"><ele>0.0</ele><time>2026-04-29T17:39:25.042Z</time></trkpt><trkpt lat="38.3984656" lon="0.2090845"><ele>0.0</ele><time>2026-04-29T17:39:26.042Z</time></trkpt><trkpt lat="38.3985368" lon="0.2091441"><ele>0.0</ele><time>2026-04-29T17:39:27.041Z</time></trkpt><trkpt lat="38.3986113" lon="0.209206"><ele>0.0</ele><time>2026-04-29T17:39:28.041Z</time></trkpt><trkpt lat="38.398685" lon="0.2092639"><ele>0.0</ele><time>2026-04-29T17:39:29.042Z</time></trkpt><trkpt lat="38.3987583" lon="0.2093278"><ele>0.0</ele><time>2026-04-29T17:39:30.042Z</time></trkpt><trkpt lat="38.3988316" lon="0.2093943"><ele>0.0</ele><time>2026-04-29T17:39:31.042Z</time></trkpt><trkpt lat="38.3989049" lon="0.2094568"><ele>0.0</ele><time>2026-04-29T17:39:32.042Z</time></trkpt><trkpt lat="38.3989796" lon="0.2095171"><ele>0.0</ele><time>2026-04-29T17:39:33.041Z</time></trkpt><trkpt lat="38.3990529" lon="0.2095759"><ele>0.0</ele><time>2026-04-29T17:39:34.042Z</time></trkpt><trkpt lat="38.399126" lon="0.2096382"><ele>0.0</ele><time>2026-04-29T17:39:35.041Z</time></trkpt><trkpt lat="38.3991996" lon="0.2096985"><ele>0.0</ele><time>2026-04-29T17:39:36.041Z</time></trkpt><trkpt lat="38.3992747" lon="0.2097617"><ele>0.0</ele><time>2026-04-29T17:39:37.042Z</time></trkpt><trkpt lat="38.3993437" lon="0.209819"><ele>0.0</ele><time>2026-04-29T17:39:38.041Z</time></trkpt><trkpt lat="38.3994194" lon="0.2098767"><ele>0.0</ele><time>2026-04-29T17:39:39.041Z</time></trkpt><trkpt lat="38.3995628" lon="0.2100014"><ele>0.0</ele><time>2026-04-29T17:39:41.041Z</time></trkpt><trkpt lat="38.3996323" lon="0.210062"><ele>0.0</ele><time>2026-04-29T17:39:42.041Z</time></trkpt><trkpt lat="38.3996993" lon="0.2101192"><ele>0.0</ele><time>2026-04-29T17:39:43.042Z</time></trkpt><trkpt lat="38.3997717" lon="0.210176"><ele>0.0</ele><time>2026-04-29T17:39:44.041Z</time></trkpt><trkpt lat="38.3998504" lon="0.2102297"><ele>0.0</ele><time>2026-04-29T17:39:45.042Z</time></trkpt><trkpt lat="38.3999229" lon="0.2102935"><ele>0.0</ele><time>2026-04-29T17:39:46.041Z</time></trkpt><trkpt lat="38.3999934" lon="0.2103581"><ele>0.0</ele><time>2026-04-29T17:39:47.041Z</time></trkpt><trkpt lat="38.4000606" lon="0.2104297"><ele>0.0</ele><time>2026-04-29T17:39:48.041Z</time></trkpt><trkpt lat="38.4001302" lon="0.2105003"><ele>0.0</ele><time>2026-04-29T17:39:49.041Z</time></trkpt><trkpt lat="38.4001986" lon="0.2105693"><ele>0.0</ele><time>2026-04-29T17:39:50.041Z</time></trkpt><trkpt lat="38.4002698" lon="0.2106334"><ele>0.0</ele><time>2026-04-29T17:39:51.042Z</time></trkpt><trkpt lat="38.4003446" lon="0.2106994"><ele>0.0</ele><time>2026-04-29T17:39:52.041Z</time></trkpt><trkpt lat="38.4004169" lon="0.2107678"><ele>0.0</ele><time>2026-04-29T17:39:53.042Z</time></trkpt><trkpt lat="38.400488" lon="0.2108289"><ele>0.0</ele><time>2026-04-29T17:39:54.041Z</time></trkpt><trkpt lat="38.4005671" lon="0.2108916"><ele>0.0</ele><time>2026-04-29T17:39:55.042Z</time></trkpt><trkpt lat="38.400643" lon="0.2109529"><ele>0.0</ele><time>2026-04-29T17:39:56.042Z</time></trkpt><trkpt lat="38.4007138" lon="0.2110134"><ele>0.0</ele><time>2026-04-29T17:39:57.042Z</time></trkpt><trkpt lat="38.400788" lon="0.2110741"><ele>0.0</ele><time>2026-04-29T17:39:58.042Z</time></trkpt><trkpt lat="38.4008574" lon="0.2111368"><ele>0.0</ele><time>2026-04-29T17:39:59.042Z</time></trkpt><trkpt lat="38.4009244" lon="0.2112038"><ele>0.0</ele><time>2026-04-29T17:40:00.041Z</time></trkpt><trkpt lat="38.4010716" lon="0.2113232"><ele>0.0</ele><time>2026-04-29T17:40:02.041Z</time></trkpt><trkpt lat="38.401145" lon="0.2113859"><ele>0.0</ele><time>2026-04-29T17:40:03.042Z</time></trkpt><trkpt lat="38.4012194" lon="0.2114513"><ele>0.0</ele><time>2026-04-29T17:40:04.041Z</time></trkpt><trkpt lat="38.4012942" lon="0.2115145"><ele>0.0</ele><time>2026-04-29T17:40:05.042Z</time></trkpt><trkpt lat="38.4013653" lon="0.2115736"><ele>0.0</ele><time>2026-04-29T17:40:06.041Z</time></trkpt><trkpt lat="38.4014409" lon="0.2116353"><ele>0.0</ele><time>2026-04-29T17:40:07.042Z</time></trkpt><trkpt lat="38.4015091" lon="0.2116936"><ele>0.0</ele><time>2026-04-29T17:40:08.041Z</time></trkpt><trkpt lat="38.4015803" lon="0.2117576"><ele>0.0</ele><time>2026-04-29T17:40:09.041Z</time></trkpt><trkpt lat="38.4016489" lon="0.2118284"><ele>0.0</ele><time>2026-04-29T17:40:10.041Z</time></trkpt><trkpt lat="38.4017228" lon="0.2118977"><ele>0.0</ele><time>2026-04-29T17:40:11.041Z</time></trkpt><trkpt lat="38.401802" lon="0.2119617"><ele>0.0</ele><time>2026-04-29T17:40:12.041Z</time></trkpt><trkpt lat="38.4018779" lon="0.2120183"><ele>0.0</ele><time>2026-04-29T17:40:13.041Z</time></trkpt><trkpt lat="38.4019431" lon="0.2120809"><ele>0.0</ele><time>2026-04-29T17:40:14.042Z</time></trkpt><trkpt lat="38.4020123" lon="0.2121475"><ele>0.0</ele><time>2026-04-29T17:40:15.041Z</time></trkpt><trkpt lat="38.402085" lon="0.212209"><ele>0.0</ele><time>2026-04-29T17:40:16.042Z</time></trkpt><trkpt lat="38.4021581" lon="0.2122621"><ele>0.0</ele><time>2026-04-29T17:40:17.042Z</time></trkpt><trkpt lat="38.4022332" lon="0.2123164"><ele>0.0</ele><time>2026-04-29T17:40:18.042Z</time></trkpt><trkpt lat="38.4023079" lon="0.2123868"><ele>0.0</ele><time>2026-04-29T17:40:19.041Z</time></trkpt><trkpt lat="38.4023829" lon="0.2124457"><ele>0.0</ele><time>2026-04-29T17:40:20.041Z</time></trkpt><trkpt lat="38.4024537" lon="0.2125024"><ele>0.0</ele><time>2026-04-29T17:40:21.042Z</time></trkpt><trkpt lat="38.4025971" lon="0.2126272"><ele>0.0</ele><time>2026-04-29T17:40:23.041Z</time></trkpt><trkpt lat="38.4026658" lon="0.2126875"><ele>0.0</ele><time>2026-04-29T17:40:24.042Z</time></trkpt><trkpt lat="38.4027367" lon="0.2127456"><ele>0.0</ele><time>2026-04-29T17:40:25.042Z</time></trkpt><trkpt lat="38.4028112" lon="0.2128012"><ele>0.0</ele><time>2026-04-29T17:40:26.041Z</time></trkpt><trkpt lat="38.4028888" lon="0.2128621"><ele>0.0</ele><time>2026-04-29T17:40:27.042Z</time></trkpt><trkpt lat="38.4029647" lon="0.2129234"><ele>0.0</ele><time>2026-04-29T17:40:28.041Z</time></trkpt><trkpt lat="38.4030313" lon="0.2129856"><ele>0.0</ele><time>2026-04-29T17:40:29.041Z</time></trkpt><trkpt lat="38.4030994" lon="0.2130528"><ele>0.0</ele><time>2026-04-29T17:40:30.042Z</time></trkpt><trkpt lat="38.4031744" lon="0.2131217"><ele>0.0</ele><time>2026-04-29T17:40:31.042Z</time></trkpt><trkpt lat="38.4032509" lon="0.2131785"><ele>0.0</ele><time>2026-04-29T17:40:32.041Z</time></trkpt><trkpt lat="38.4033279" lon="0.213237"><ele>0.0</ele><time>2026-04-29T17:40:33.041Z</time></trkpt><trkpt lat="38.40341" lon="0.2132925"><ele>0.0</ele><time>2026-04-29T17:40:34.042Z</time></trkpt><trkpt lat="38.403492" lon="0.2133422"><ele>0.0</ele><time>2026-04-29T17:40:35.042Z</time></trkpt><trkpt lat="38.4035649" lon="0.2133961"><ele>0.0</ele><time>2026-04-29T17:40:36.041Z</time></trkpt><trkpt lat="38.4036383" lon="0.2134581"><ele>0.0</ele><time>2026-04-29T17:40:37.042Z</time></trkpt><trkpt lat="38.4037088" lon="0.2135213"><ele>0.0</ele><time>2026-04-29T17:40:38.042Z</time></trkpt><trkpt lat="38.4037785" lon="0.2135888"><ele>0.0</ele><time>2026-04-29T17:40:39.042Z</time></trkpt><trkpt lat="38.4038487" lon="0.2136569"><ele>0.0</ele><time>2026-04-29T17:40:40.041Z</time></trkpt><trkpt lat="38.4039187" lon="0.2137202"><ele>0.0</ele><time>2026-04-29T17:40:41.041Z</time></trkpt><trkpt lat="38.4039872" lon="0.2137833"><ele>0.0</ele><time>2026-04-29T17:40:42.041Z</time></trkpt><trkpt lat="38.4042049" lon="0.2139569"><ele>0.0</ele><time>2026-04-29T17:40:45.041Z</time></trkpt><trkpt lat="38.4042797" lon="0.2140295"><ele>0.0</ele><time>2026-04-29T17:40:46.042Z</time></trkpt><trkpt lat="38.4043519" lon="0.2141006"><ele>0.0</ele><time>2026-04-29T17:40:47.041Z</time></trkpt><trkpt lat="38.4044235" lon="0.2141666"><ele>0.0</ele><time>2026-04-29T17:40:48.041Z</time></trkpt><trkpt lat="38.4044948" lon="0.2142359"><ele>0.0</ele><time>2026-04-29T17:40:49.041Z</time></trkpt><trkpt lat="38.4045669" lon="0.2143034"><ele>0.0</ele><time>2026-04-29T17:40:50.042Z</time></trkpt><trkpt lat="38.4046416" lon="0.2143668"><ele>0.0</ele><time>2026-04-29T17:40:51.042Z</time></trkpt><trkpt lat="38.4047178" lon="0.2144261"><ele>0.0</ele><time>2026-04-29T17:40:52.042Z</time></trkpt><trkpt lat="38.4047874" lon="0.2144881"><ele>0.0</ele><time>2026-04-29T17:40:53.041Z</time></trkpt><trkpt lat="38.4048572" lon="0.2145571"><ele>0.0</ele><time>2026-04-29T17:40:54.041Z</time></trkpt><trkpt lat="38.4049254" lon="0.2146249"><ele>0.0</ele><time>2026-04-29T17:40:55.042Z</time></trkpt><trkpt lat="38.4050008" lon="0.2146858"><ele>0.0</ele><time>2026-04-29T17:40:56.041Z</time></trkpt><trkpt lat="38.4050691" lon="0.2147526"><ele>0.0</ele><time>2026-04-29T17:40:57.041Z</time></trkpt><trkpt lat="38.40514" lon="0.2148267"><ele>0.0</ele><time>2026-04-29T17:40:58.041Z</time></trkpt><trkpt lat="38.4052132" lon="0.2148959"><ele>0.0</ele><time>2026-04-29T17:40:59.042Z</time></trkpt><trkpt lat="38.4052824" lon="0.2149574"><ele>0.0</ele><time>2026-04-29T17:41:00.041Z</time></trkpt><trkpt lat="38.4053591" lon="0.2150132"><ele>0.0</ele><time>2026-04-29T17:41:01.042Z</time></trkpt><trkpt lat="38.4054287" lon="0.2150747"><ele>0.0</ele><time>2026-04-29T17:41:02.042Z</time></trkpt><trkpt lat="38.4054974" lon="0.2151392"><ele>0.0</ele><time>2026-04-29T17:41:03.042Z</time></trkpt><trkpt lat="38.4056432" lon="0.2152752"><ele>0.0</ele><time>2026-04-29T17:41:05.041Z</time></trkpt><trkpt lat="38.4057152" lon="0.2153348"><ele>0.0</ele><time>2026-04-29T17:41:06.042Z</time></trkpt><trkpt lat="38.4057867" lon="0.2153941"><ele>0.0</ele><time>2026-04-29T17:41:07.041Z</time></trkpt><trkpt lat="38.405864" lon="0.2154524"><ele>0.0</ele><time>2026-04-29T17:41:08.042Z</time></trkpt><trkpt lat="38.4059394" lon="0.2155047"><ele>0.0</ele><time>2026-04-29T17:41:09.042Z</time></trkpt><trkpt lat="38.4060074" lon="0.2155579"><ele>0.0</ele><time>2026-04-29T17:41:10.041Z</time></trkpt><trkpt lat="38.406077" lon="0.2156184"><ele>0.0</ele><time>2026-04-29T17:41:11.041Z</time></trkpt><trkpt lat="38.4061441" lon="0.2156786"><ele>0.0</ele><time>2026-04-29T17:41:12.041Z</time></trkpt><trkpt lat="38.4062195" lon="0.2157417"><ele>0.0</ele><time>2026-04-29T17:41:13.041Z</time></trkpt><trkpt lat="38.4062932" lon="0.2158038"><ele>0.0</ele><time>2026-04-29T17:41:14.041Z</time></trkpt><trkpt lat="38.406365" lon="0.2158633"><ele>0.0</ele><time>2026-04-29T17:41:15.041Z</time></trkpt><trkpt lat="38.4064367" lon="0.2159158"><ele>0.0</ele><time>2026-04-29T17:41:16.042Z</time></trkpt><trkpt lat="38.4065044" lon="0.2159786"><ele>0.0</ele><time>2026-04-29T17:41:17.042Z</time></trkpt><trkpt lat="38.4065725" lon="0.216044"><ele>0.0</ele><time>2026-04-29T17:41:18.041Z</time></trkpt><trkpt lat="38.4066464" lon="0.2161126"><ele>0.0</ele><time>2026-04-29T17:41:19.041Z</time></trkpt><trkpt lat="38.4067198" lon="0.2161739"><ele>0.0</ele><time>2026-04-29T17:41:20.042Z</time></trkpt><trkpt lat="38.406793" lon="0.21624"><ele>0.0</ele><time>2026-04-29T17:41:21.041Z</time></trkpt><trkpt lat="38.4068633" lon="0.2163078"><ele>0.0</ele><time>2026-04-29T17:41:22.041Z</time></trkpt><trkpt lat="38.4069346" lon="0.2163703"><ele>0.0</ele><time>2026-04-29T17:41:23.041Z</time></trkpt><trkpt lat="38.4070117" lon="0.2164323"><ele>0.0</ele><time>2026-04-29T17:41:24.042Z</time></trkpt><trkpt lat="38.4071643" lon="0.2165548"><ele>0.0</ele><time>2026-04-29T17:41:26.041Z</time></trkpt><trkpt lat="38.4072407" lon="0.2166173"><ele>0.0</ele><time>2026-04-29T17:41:27.042Z</time></trkpt><trkpt lat="38.407316" lon="0.2166721"><ele>0.0</ele><time>2026-04-29T17:41:28.041Z</time></trkpt><trkpt lat="38.4073828" lon="0.2167353"><ele>0.0</ele><time>2026-04-29T17:41:29.041Z</time></trkpt><trkpt lat="38.4074507" lon="0.2167974"><ele>0.0</ele><time>2026-04-29T17:41:30.041Z</time></trkpt><trkpt lat="38.4075217" lon="0.2168633"><ele>0.0</ele><time>2026-04-29T17:41:31.041Z</time></trkpt><trkpt lat="38.4075934" lon="0.2169282"><ele>0.0</ele><time>2026-04-29T17:41:32.041Z</time></trkpt><trkpt lat="38.4076664" lon="0.2169969"><ele>0.0</ele><time>2026-04-29T17:41:33.041Z</time></trkpt><trkpt lat="38.4077369" lon="0.2170583"><ele>0.0</ele><time>2026-04-29T17:41:34.042Z</time></trkpt><trkpt lat="38.4078085" lon="0.217118"><ele>0.0</ele><time>2026-04-29T17:41:35.041Z</time></trkpt><trkpt lat="38.4078817" lon="0.217178"><ele>0.0</ele><time>2026-04-29T17:41:36.041Z</time></trkpt><trkpt lat="38.4079549" lon="0.2172408"><ele>0.0</ele><time>2026-04-29T17:41:37.041Z</time></trkpt><trkpt lat="38.4080211" lon="0.2172998"><ele>0.0</ele><time>2026-04-29T17:41:38.042Z</time></trkpt><trkpt lat="38.4080961" lon="0.2173623"><ele>0.0</ele><time>2026-04-29T17:41:39.041Z</time></trkpt><trkpt lat="38.4081741" lon="0.2174255"><ele>0.0</ele><time>2026-04-29T17:41:40.041Z</time></trkpt><trkpt lat="38.4082523" lon="0.2174921"><ele>0.0</ele><time>2026-04-29T17:41:41.042Z</time></trkpt><trkpt lat="38.4083234" lon="0.217564"><ele>0.0</ele><time>2026-04-29T17:41:42.042Z</time></trkpt><trkpt lat="38.4083941" lon="0.2176262"><ele>0.0</ele><time>2026-04-29T17:41:43.041Z</time></trkpt><trkpt lat="38.4084693" lon="0.2176918"><ele>0.0</ele><time>2026-04-29T17:41:44.041Z</time></trkpt><trkpt lat="38.4085345" lon="0.2177547"><ele>0.0</ele><time>2026-04-29T17:41:45.042Z</time></trkpt><trkpt lat="38.4085995" lon="0.2178258"><ele>0.0</ele><time>2026-04-29T17:41:46.041Z</time></trkpt><trkpt lat="38.4087387" lon="0.2179632"><ele>0.0</ele><time>2026-04-29T17:41:48.041Z</time></trkpt><trkpt lat="38.4088131" lon="0.218029"><ele>0.0</ele><time>2026-04-29T17:41:49.041Z</time></trkpt><trkpt lat="38.4088839" lon="0.2180957"><ele>0.0</ele><time>2026-04-29T17:41:50.042Z</time></trkpt><trkpt lat="38.4089595" lon="0.2181566"><ele>0.0</ele><time>2026-04-29T17:41:51.041Z</time></trkpt><trkpt lat="38.4090308" lon="0.2182177"><ele>0.0</ele><time>2026-04-29T17:41:52.042Z</time></trkpt><trkpt lat="38.4091048" lon="0.2182825"><ele>0.0</ele><time>2026-04-29T17:41:53.042Z</time></trkpt><trkpt lat="38.4091686" lon="0.2183505"><ele>0.0</ele><time>2026-04-29T17:41:54.041Z</time></trkpt><trkpt lat="38.4092387" lon="0.2184062"><ele>0.0</ele><time>2026-04-29T17:41:55.042Z</time></trkpt><trkpt lat="38.409309" lon="0.2184636"><ele>0.0</ele><time>2026-04-29T17:41:56.041Z</time></trkpt><trkpt lat="38.4093746" lon="0.2185192"><ele>0.0</ele><time>2026-04-29T17:41:57.041Z</time></trkpt><trkpt lat="38.4094481" lon="0.2185844"><ele>0.0</ele><time>2026-04-29T17:41:58.041Z</time></trkpt><trkpt lat="38.4095186" lon="0.2186438"><ele>0.0</ele><time>2026-04-29T17:41:59.041Z</time></trkpt><trkpt lat="38.4095932" lon="0.2187078"><ele>0.0</ele><time>2026-04-29T17:42:00.042Z</time></trkpt><trkpt lat="38.4096694" lon="0.2187708"><ele>0.0</ele><time>2026-04-29T17:42:01.042Z</time></trkpt><trkpt lat="38.4097446" lon="0.2188341"><ele>0.0</ele><time>2026-04-29T17:42:02.042Z</time></trkpt><trkpt lat="38.4098153" lon="0.2188966"><ele>0.0</ele><time>2026-04-29T17:42:03.041Z</time></trkpt><trkpt lat="38.4098896" lon="0.2189626"><ele>0.0</ele><time>2026-04-29T17:42:04.041Z</time></trkpt><trkpt lat="38.4099602" lon="0.2190263"><ele>0.0</ele><time>2026-04-29T17:42:05.041Z</time></trkpt><trkpt lat="38.410036" lon="0.2190922"><ele>0.0</ele><time>2026-04-29T17:42:06.041Z</time></trkpt><trkpt lat="38.4101085" lon="0.2191568"><ele>0.0</ele><time>2026-04-29T17:42:07.042Z</time></trkpt><trkpt lat="38.4102567" lon="0.2192862"><ele>0.0</ele><time>2026-04-29T17:42:09.042Z</time></trkpt><trkpt lat="38.4103283" lon="0.2193507"><ele>0.0</ele><time>2026-04-29T17:42:10.042Z</time></trkpt><trkpt lat="38.4104005" lon="0.2194171"><ele>0.0</ele><time>2026-04-29T17:42:11.041Z</time></trkpt><trkpt lat="38.4104749" lon="0.2194794"><ele>0.0</ele><time>2026-04-29T17:42:12.042Z</time></trkpt><trkpt lat="38.4105498" lon="0.2195428"><ele>0.0</ele><time>2026-04-29T17:42:13.042Z</time></trkpt><trkpt lat="38.4106234" lon="0.2196031"><ele>0.0</ele><time>2026-04-29T17:42:14.042Z</time></trkpt><trkpt lat="38.4106936" lon="0.2196604"><ele>0.0</ele><time>2026-04-29T17:42:15.041Z</time></trkpt><trkpt lat="38.4107699" lon="0.219718"><ele>0.0</ele><time>2026-04-29T17:42:16.041Z</time></trkpt><trkpt lat="38.4108464" lon="0.2197808"><ele>0.0</ele><time>2026-04-29T17:42:17.042Z</time></trkpt><trkpt lat="38.4109229" lon="0.219846"><ele>0.0</ele><time>2026-04-29T17:42:18.042Z</time></trkpt><trkpt lat="38.410998" lon="0.2199095"><ele>0.0</ele><time>2026-04-29T17:42:19.042Z</time></trkpt><trkpt lat="38.4110701" lon="0.2199717"><ele>0.0</ele><time>2026-04-29T17:42:20.041Z</time></trkpt><trkpt lat="38.4111404" lon="0.2200288"><ele>0.0</ele><time>2026-04-29T17:42:21.042Z</time></trkpt><trkpt lat="38.4112132" lon="0.2200799"><ele>0.0</ele><time>2026-04-29T17:42:22.041Z</time></trkpt><trkpt lat="38.4112867" lon="0.220137"><ele>0.0</ele><time>2026-04-29T17:42:23.041Z</time></trkpt><trkpt lat="38.4113572" lon="0.2201901"><ele>0.0</ele><time>2026-04-29T17:42:24.041Z</time></trkpt><trkpt lat="38.4114302" lon="0.2202502"><ele>0.0</ele><time>2026-04-29T17:42:25.042Z</time></trkpt><trkpt lat="38.4115017" lon="0.2203043"><ele>0.0</ele><time>2026-04-29T17:42:26.042Z</time></trkpt><trkpt lat="38.4115748" lon="0.2203676"><ele>0.0</ele><time>2026-04-29T17:42:27.042Z</time></trkpt><trkpt lat="38.4116468" lon="0.2204286"><ele>0.0</ele><time>2026-04-29T17:42:28.042Z</time></trkpt><trkpt lat="38.4117904" lon="0.2205537"><ele>0.0</ele><time>2026-04-29T17:42:30.041Z</time></trkpt><trkpt lat="38.4118619" lon="0.2206179"><ele>0.0</ele><time>2026-04-29T17:42:31.042Z</time></trkpt><trkpt lat="38.4119322" lon="0.2206787"><ele>0.0</ele><time>2026-04-29T17:42:32.041Z</time></trkpt><trkpt lat="38.412005" lon="0.220743"><ele>0.0</ele><time>2026-04-29T17:42:33.041Z</time></trkpt><trkpt lat="38.412074" lon="0.2208076"><ele>0.0</ele><time>2026-04-29T17:42:34.041Z</time></trkpt><trkpt lat="38.4121424" lon="0.2208689"><ele>0.0</ele><time>2026-04-29T17:42:35.041Z</time></trkpt><trkpt lat="38.412209" lon="0.2209303"><ele>0.0</ele><time>2026-04-29T17:42:36.042Z</time></trkpt><trkpt lat="38.41228" lon="0.220992"><ele>0.0</ele><time>2026-04-29T17:42:37.041Z</time></trkpt><trkpt lat="38.4123549" lon="0.2210548"><ele>0.0</ele><time>2026-04-29T17:42:38.042Z</time></trkpt><trkpt lat="38.4124268" lon="0.2211181"><ele>0.0</ele><time>2026-04-29T17:42:39.042Z</time></trkpt><trkpt lat="38.4124969" lon="0.2211859"><ele>0.0</ele><time>2026-04-29T17:42:40.041Z</time></trkpt><trkpt lat="38.412567" lon="0.2212485"><ele>0.0</ele><time>2026-04-29T17:42:41.041Z</time></trkpt><trkpt lat="38.4126373" lon="0.2213103"><ele>0.0</ele><time>2026-04-29T17:42:42.041Z</time></trkpt><trkpt lat="38.4127054" lon="0.2213733"><ele>0.0</ele><time>2026-04-29T17:42:43.041Z</time></trkpt><trkpt lat="38.4127765" lon="0.2214411"><ele>0.0</ele><time>2026-04-29T17:42:44.042Z</time></trkpt><trkpt lat="38.4128496" lon="0.2215095"><ele>0.0</ele><time>2026-04-29T17:42:45.042Z</time></trkpt><trkpt lat="38.4129244" lon="0.2215772"><ele>0.0</ele><time>2026-04-29T17:42:46.041Z</time></trkpt><trkpt lat="38.412998" lon="0.2216441"><ele>0.0</ele><time>2026-04-29T17:42:47.042Z</time></trkpt><trkpt lat="38.4130715" lon="0.2217113"><ele>0.0</ele><time>2026-04-29T17:42:48.042Z</time></trkpt><trkpt lat="38.4131419" lon="0.2217652"><ele>0.0</ele><time>2026-04-29T17:42:49.041Z</time></trkpt><trkpt lat="38.4132118" lon="0.2218286"><ele>0.0</ele><time>2026-04-29T17:42:50.041Z</time></trkpt><trkpt lat="38.4133614" lon="0.2219648"><ele>0.0</ele><time>2026-04-29T17:42:52.041Z</time></trkpt><trkpt lat="38.413436" lon="0.2220182"><ele>0.0</ele><time>2026-04-29T17:42:53.041Z</time></trkpt><trkpt lat="38.4135096" lon="0.2220814"><ele>0.0</ele><time>2026-04-29T17:42:54.042Z</time></trkpt><trkpt lat="38.4135816" lon="0.222151"><ele>0.0</ele><time>2026-04-29T17:42:55.042Z</time></trkpt><trkpt lat="38.4136533" lon="0.2222168"><ele>0.0</ele><time>2026-04-29T17:42:56.041Z</time></trkpt><trkpt lat="38.4137235" lon="0.222279"><ele>0.0</ele><time>2026-04-29T17:42:57.041Z</time></trkpt><trkpt lat="38.4137909" lon="0.222342"><ele>0.0</ele><time>2026-04-29T17:42:58.042Z</time></trkpt><trkpt lat="38.4138591" lon="0.2224025"><ele>0.0</ele><time>2026-04-29T17:42:59.042Z</time></trkpt><trkpt lat="38.4139301" lon="0.2224634"><ele>0.0</ele><time>2026-04-29T17:43:00.042Z</time></trkpt><trkpt lat="38.414002" lon="0.2225225"><ele>0.0</ele><time>2026-04-29T17:43:01.041Z</time></trkpt><trkpt lat="38.4140747" lon="0.2225862"><ele>0.0</ele><time>2026-04-29T17:43:02.041Z</time></trkpt><trkpt lat="38.4141451" lon="0.2226471"><ele>0.0</ele><time>2026-04-29T17:43:03.04Z</time></trkpt><trkpt lat="38.4142223" lon="0.2227127"><ele>0.0</ele><time>2026-04-29T17:43:04.04Z</time></trkpt><trkpt lat="38.4142951" lon="0.2227783"><ele>0.0</ele><time>2026-04-29T17:43:05.041Z</time></trkpt><trkpt lat="38.4143654" lon="0.2228405"><ele>0.0</ele><time>2026-04-29T17:43:06.04Z</time></trkpt><trkpt lat="38.4144368" lon="0.2229032"><ele>0.0</ele><time>2026-04-29T17:43:07.041Z</time></trkpt><trkpt lat="38.4145113" lon="0.2229693"><ele>0.0</ele><time>2026-04-29T17:43:08.041Z</time></trkpt><trkpt lat="38.4145821" lon="0.2230321"><ele>0.0</ele><time>2026-04-29T17:43:09.04Z</time></trkpt><trkpt lat="38.4146553" lon="0.2230949"><ele>0.0</ele><time>2026-04-29T17:43:10.04Z</time></trkpt><trkpt lat="38.4147257" lon="0.2231581"><ele>0.0</ele><time>2026-04-29T17:43:11.04Z</time></trkpt><trkpt lat="38.4148641" lon="0.2232932"><ele>0.0</ele><time>2026-04-29T17:43:13.041Z</time></trkpt><trkpt lat="38.4149351" lon="0.2233627"><ele>0.0</ele><time>2026-04-29T17:43:14.04Z</time></trkpt><trkpt lat="38.4150067" lon="0.2234309"><ele>0.0</ele><time>2026-04-29T17:43:15.04Z</time></trkpt><trkpt lat="38.4150785" lon="0.2234937"><ele>0.0</ele><time>2026-04-29T17:43:16.04Z</time></trkpt><trkpt lat="38.4151503" lon="0.2235599"><ele>0.0</ele><time>2026-04-29T17:43:17.04Z</time></trkpt><trkpt lat="38.4152201" lon="0.2236264"><ele>0.0</ele><time>2026-04-29T17:43:18.041Z</time></trkpt><trkpt lat="38.4152933" lon="0.2236857"><ele>0.0</ele><time>2026-04-29T17:43:19.04Z</time></trkpt><trkpt lat="38.4153723" lon="0.2237452"><ele>0.0</ele><time>2026-04-29T17:43:20.04Z</time></trkpt><trkpt lat="38.4154491" lon="0.2238109"><ele>0.0</ele><time>2026-04-29T17:43:21.04Z</time></trkpt><trkpt lat="38.4155189" lon="0.2238706"><ele>0.0</ele><time>2026-04-29T17:43:22.041Z</time></trkpt><trkpt lat="38.41559" lon="0.2239314"><ele>0.0</ele><time>2026-04-29T17:43:23.041Z</time></trkpt><trkpt lat="38.4156672" lon="0.2240006"><ele>0.0</ele><time>2026-04-29T17:43:24.04Z</time></trkpt><trkpt lat="38.415743" lon="0.2240677"><ele>0.0</ele><time>2026-04-29T17:43:25.04Z</time></trkpt><trkpt lat="38.4158108" lon="0.2241292"><ele>0.0</ele><time>2026-04-29T17:43:26.041Z</time></trkpt><trkpt lat="38.4158833" lon="0.2241864"><ele>0.0</ele><time>2026-04-29T17:43:27.041Z</time></trkpt><trkpt lat="38.4159593" lon="0.224247"><ele>0.0</ele><time>2026-04-29T17:43:28.041Z</time></trkpt><trkpt lat="38.4160356" lon="0.2243131"><ele>0.0</ele><time>2026-04-29T17:43:29.041Z</time></trkpt><trkpt lat="38.4161111" lon="0.2243754"><ele>0.0</ele><time>2026-04-29T17:43:30.04Z</time></trkpt><trkpt lat="38.4161847" lon="0.2244372"><ele>0.0</ele><time>2026-04-29T17:43:31.041Z</time></trkpt><trkpt lat="38.416261" lon="0.224496"><ele>0.0</ele><time>2026-04-29T17:43:32.04Z</time></trkpt><trkpt lat="38.4164022" lon="0.2246198"><ele>0.0</ele><time>2026-04-29T17:43:34.04Z</time></trkpt><trkpt lat="38.4164722" lon="0.2246822"><ele>0.0</ele><time>2026-04-29T17:43:35.041Z</time></trkpt><trkpt lat="38.416545" lon="0.2247467"><ele>0.0</ele><time>2026-04-29T17:43:36.041Z</time></trkpt><trkpt lat="38.4166167" lon="0.2248129"><ele>0.0</ele><time>2026-04-29T17:43:37.04Z</time></trkpt><trkpt lat="38.4166883" lon="0.224881"><ele>0.0</ele><time>2026-04-29T17:43:38.04Z</time></trkpt><trkpt lat="38.416757" lon="0.2249466"><ele>0.0</ele><time>2026-04-29T17:43:39.041Z</time></trkpt><trkpt lat="38.4168339" lon="0.2250212"><ele>0.0</ele><time>2026-04-29T17:43:40.041Z</time></trkpt><trkpt lat="38.4169066" lon="0.2250925"><ele>0.0</ele><time>2026-04-29T17:43:41.041Z</time></trkpt><trkpt lat="38.4169742" lon="0.2251581"><ele>0.0</ele><time>2026-04-29T17:43:42.041Z</time></trkpt><trkpt lat="38.4170422" lon="0.2252199"><ele>0.0</ele><time>2026-04-29T17:43:43.041Z</time></trkpt><trkpt lat="38.4171065" lon="0.2252835"><ele>0.0</ele><time>2026-04-29T17:43:44.041Z</time></trkpt><trkpt lat="38.4171739" lon="0.225347"><ele>0.0</ele><time>2026-04-29T17:43:45.04Z</time></trkpt><trkpt lat="38.417242" lon="0.2254153"><ele>0.0</ele><time>2026-04-29T17:43:46.04Z</time></trkpt><trkpt lat="38.4173104" lon="0.2254783"><ele>0.0</ele><time>2026-04-29T17:43:47.041Z</time></trkpt><trkpt lat="38.4173861" lon="0.2255416"><ele>0.0</ele><time>2026-04-29T17:43:48.041Z</time></trkpt><trkpt lat="38.4174583" lon="0.2256059"><ele>0.0</ele><time>2026-04-29T17:43:49.041Z</time></trkpt><trkpt lat="38.4175286" lon="0.2256697"><ele>0.0</ele><time>2026-04-29T17:43:50.04Z</time></trkpt><trkpt lat="38.4176002" lon="0.225736"><ele>0.0</ele><time>2026-04-29T17:43:51.04Z</time></trkpt><trkpt lat="38.4176746" lon="0.2258022"><ele>0.0</ele><time>2026-04-29T17:43:52.04Z</time></trkpt><trkpt lat="38.4177409" lon="0.2258732"><ele>0.0</ele><time>2026-04-29T17:43:53.041Z</time></trkpt><trkpt lat="38.4178129" lon="0.2259411"><ele>0.0</ele><time>2026-04-29T17:43:54.04Z</time></trkpt><trkpt lat="38.4179491" lon="0.2260652"><ele>0.0</ele><time>2026-04-29T17:43:56.04Z</time></trkpt><trkpt lat="38.4180191" lon="0.2261285"><ele>0.0</ele><time>2026-04-29T17:43:57.04Z</time></trkpt><trkpt lat="38.4180888" lon="0.2261947"><ele>0.0</ele><time>2026-04-29T17:43:58.041Z</time></trkpt><trkpt lat="38.4181585" lon="0.2262583"><ele>0.0</ele><time>2026-04-29T17:43:59.041Z</time></trkpt><trkpt lat="38.4182299" lon="0.2263188"><ele>0.0</ele><time>2026-04-29T17:44:00.04Z</time></trkpt><trkpt lat="38.4183057" lon="0.2263767"><ele>0.0</ele><time>2026-04-29T17:44:01.041Z</time></trkpt><trkpt lat="38.4183727" lon="0.2264385"><ele>0.0</ele><time>2026-04-29T17:44:02.04Z</time></trkpt><trkpt lat="38.4184464" lon="0.2265036"><ele>0.0</ele><time>2026-04-29T17:44:03.041Z</time></trkpt><trkpt lat="38.4185198" lon="0.2265669"><ele>0.0</ele><time>2026-04-29T17:44:04.04Z</time></trkpt><trkpt lat="38.418593" lon="0.2266316"><ele>0.0</ele><time>2026-04-29T17:44:05.041Z</time></trkpt><trkpt lat="38.4186679" lon="0.2266935"><ele>0.0</ele><time>2026-04-29T17:44:06.041Z</time></trkpt><trkpt lat="38.4187428" lon="0.2267526"><ele>0.0</ele><time>2026-04-29T17:44:07.04Z</time></trkpt><trkpt lat="38.4188138" lon="0.2268162"><ele>0.0</ele><time>2026-04-29T17:44:08.041Z</time></trkpt><trkpt lat="38.4188867" lon="0.226877"><ele>0.0</ele><time>2026-04-29T17:44:09.041Z</time></trkpt><trkpt lat="38.4189573" lon="0.2269327"><ele>0.0</ele><time>2026-04-29T17:44:10.04Z</time></trkpt><trkpt lat="38.4190254" lon="0.2269951"><ele>0.0</ele><time>2026-04-29T17:44:11.04Z</time></trkpt><trkpt lat="38.419102" lon="0.22705"><ele>0.0</ele><time>2026-04-29T17:44:12.041Z</time></trkpt><trkpt lat="38.4191777" lon="0.2271131"><ele>0.0</ele><time>2026-04-29T17:44:13.041Z</time></trkpt><trkpt lat="38.4192546" lon="0.2271747"><ele>0.0</ele><time>2026-04-29T17:44:14.041Z</time></trkpt><trkpt lat="38.4193343" lon="0.2272407"><ele>0.0</ele><time>2026-04-29T17:44:15.04Z</time></trkpt><trkpt lat="38.4194844" lon="0.2273623"><ele>0.0</ele><time>2026-04-29T17:44:17.041Z</time></trkpt><trkpt lat="38.4195597" lon="0.2274251"><ele>0.0</ele><time>2026-04-29T17:44:18.041Z</time></trkpt><trkpt lat="38.4196277" lon="0.2274897"><ele>0.0</ele><time>2026-04-29T17:44:19.04Z</time></trkpt><trkpt lat="38.4196997" lon="0.227554"><ele>0.0</ele><time>2026-04-29T17:44:20.041Z</time></trkpt><trkpt lat="38.4197715" lon="0.2276195"><ele>0.0</ele><time>2026-04-29T17:44:21.041Z</time></trkpt><trkpt lat="38.4198419" lon="0.2276806"><ele>0.0</ele><time>2026-04-29T17:44:22.041Z</time></trkpt><trkpt lat="38.4199135" lon="0.2277419"><ele>0.0</ele><time>2026-04-29T17:44:23.04Z</time></trkpt><trkpt lat="38.4199867" lon="0.2278061"><ele>0.0</ele><time>2026-04-29T17:44:24.041Z</time></trkpt><trkpt lat="38.4200571" lon="0.227868"><ele>0.0</ele><time>2026-04-29T17:44:25.041Z</time></trkpt><trkpt lat="38.4201299" lon="0.2279283"><ele>0.0</ele><time>2026-04-29T17:44:26.04Z</time></trkpt><trkpt lat="38.4202046" lon="0.2279841"><ele>0.0</ele><time>2026-04-29T17:44:27.04Z</time></trkpt><trkpt lat="38.42027" lon="0.228042"><ele>0.0</ele><time>2026-04-29T17:44:28.04Z</time></trkpt><trkpt lat="38.4203359" lon="0.2281012"><ele>0.0</ele><time>2026-04-29T17:44:29.04Z</time></trkpt><trkpt lat="38.420407" lon="0.2281627"><ele>0.0</ele><time>2026-04-29T17:44:30.04Z</time></trkpt><trkpt lat="38.4204826" lon="0.2282358"><ele>0.0</ele><time>2026-04-29T17:44:31.041Z</time></trkpt><trkpt lat="38.4205563" lon="0.2283087"><ele>0.0</ele><time>2026-04-29T17:44:32.041Z</time></trkpt><trkpt lat="38.4206269" lon="0.2283764"><ele>0.0</ele><time>2026-04-29T17:44:33.041Z</time></trkpt><trkpt lat="38.4206955" lon="0.2284489"><ele>0.0</ele><time>2026-04-29T17:44:34.041Z</time></trkpt><trkpt lat="38.4207651" lon="0.2285123"><ele>0.0</ele><time>2026-04-29T17:44:35.04Z</time></trkpt><trkpt lat="38.4208393" lon="0.2285733"><ele>0.0</ele><time>2026-04-29T17:44:36.04Z</time></trkpt><trkpt lat="38.4209917" lon="0.2286961"><ele>0.0</ele><time>2026-04-29T17:44:38.04Z</time></trkpt><trkpt lat="38.4210635" lon="0.2287651"><ele>0.0</ele><time>2026-04-29T17:44:39.041Z</time></trkpt><trkpt lat="38.4211377" lon="0.2288322"><ele>0.0</ele><time>2026-04-29T17:44:40.04Z</time></trkpt><trkpt lat="38.4212089" lon="0.2288991"><ele>0.0</ele><time>2026-04-29T17:44:41.04Z</time></trkpt><trkpt lat="38.4212815" lon="0.2289674"><ele>0.0</ele><time>2026-04-29T17:44:42.041Z</time></trkpt><trkpt lat="38.4213564" lon="0.2290286"><ele>0.0</ele><time>2026-04-29T17:44:43.04Z</time></trkpt><trkpt lat="38.4214311" lon="0.2290904"><ele>0.0</ele><time>2026-04-29T17:44:44.04Z</time></trkpt><trkpt lat="38.4215017" lon="0.2291547"><ele>0.0</ele><time>2026-04-29T17:44:45.04Z</time></trkpt><trkpt lat="38.4215732" lon="0.2292208"><ele>0.0</ele><time>2026-04-29T17:44:46.041Z</time></trkpt><trkpt lat="38.4216403" lon="0.2292818"><ele>0.0</ele><time>2026-04-29T17:44:47.04Z</time></trkpt><trkpt lat="38.4217129" lon="0.2293461"><ele>0.0</ele><time>2026-04-29T17:44:48.04Z</time></trkpt><trkpt lat="38.4217863" lon="0.2294142"><ele>0.0</ele><time>2026-04-29T17:44:49.04Z</time></trkpt><trkpt lat="38.421857" lon="0.2294812"><ele>0.0</ele><time>2026-04-29T17:44:50.04Z</time></trkpt><trkpt lat="38.4219281" lon="0.2295508"><ele>0.0</ele><time>2026-04-29T17:44:51.04Z</time></trkpt><trkpt lat="38.4220043" lon="0.2296182"><ele>0.0</ele><time>2026-04-29T17:44:52.041Z</time></trkpt><trkpt lat="38.4220782" lon="0.2296845"><ele>0.0</ele><time>2026-04-29T17:44:53.041Z</time></trkpt><trkpt lat="38.4221502" lon="0.2297581"><ele>0.0</ele><time>2026-04-29T17:44:54.041Z</time></trkpt><trkpt lat="38.4222188" lon="0.2298245"><ele>0.0</ele><time>2026-04-29T17:44:55.041Z</time></trkpt><trkpt lat="38.4222858" lon="0.2298883"><ele>0.0</ele><time>2026-04-29T17:44:56.041Z</time></trkpt><trkpt lat="38.4223527" lon="0.2299501"><ele>0.0</ele><time>2026-04-29T17:44:57.04Z</time></trkpt><trkpt lat="38.422428" lon="0.2300063"><ele>0.0</ele><time>2026-04-29T17:44:58.04Z</time></trkpt><trkpt lat="38.4225768" lon="0.2301341"><ele>0.0</ele><time>2026-04-29T17:45:00.04Z</time></trkpt><trkpt lat="38.4226474" lon="0.2302008"><ele>0.0</ele><time>2026-04-29T17:45:01.04Z</time></trkpt><trkpt lat="38.4227185" lon="0.2302675"><ele>0.0</ele><time>2026-04-29T17:45:02.04Z</time></trkpt><trkpt lat="38.4227929" lon="0.2303272"><ele>0.0</ele><time>2026-04-29T17:45:03.041Z</time></trkpt><trkpt lat="38.422865" lon="0.2303888"><ele>0.0</ele><time>2026-04-29T17:45:04.041Z</time></trkpt><trkpt lat="38.4229338" lon="0.2304561"><ele>0.0</ele><time>2026-04-29T17:45:05.04Z</time></trkpt><trkpt lat="38.4230064" lon="0.2305227"><ele>0.0</ele><time>2026-04-29T17:45:06.041Z</time></trkpt><trkpt lat="38.4230799" lon="0.2305781"><ele>0.0</ele><time>2026-04-29T17:45:07.04Z</time></trkpt><trkpt lat="38.4231532" lon="0.2306387"><ele>0.0</ele><time>2026-04-29T17:45:08.041Z</time></trkpt><trkpt lat="38.4232223" lon="0.2306959"><ele>0.0</ele><time>2026-04-29T17:45:09.04Z</time></trkpt><trkpt lat="38.4232861" lon="0.2307615"><ele>0.0</ele><time>2026-04-29T17:45:10.041Z</time></trkpt><trkpt lat="38.4233566" lon="0.2308207"><ele>0.0</ele><time>2026-04-29T17:45:11.04Z</time></trkpt><trkpt lat="38.4234266" lon="0.2308882"><ele>0.0</ele><time>2026-04-29T17:45:12.04Z</time></trkpt><trkpt lat="38.4234997" lon="0.2309514"><ele>0.0</ele><time>2026-04-29T17:45:13.041Z</time></trkpt><trkpt lat="38.4235717" lon="0.2310098"><ele>0.0</ele><time>2026-04-29T17:45:14.041Z</time></trkpt><trkpt lat="38.423647" lon="0.2310683"><ele>0.0</ele><time>2026-04-29T17:45:15.041Z</time></trkpt><trkpt lat="38.4237242" lon="0.2311305"><ele>0.0</ele><time>2026-04-29T17:45:16.04Z</time></trkpt><trkpt lat="38.4237966" lon="0.2311981"><ele>0.0</ele><time>2026-04-29T17:45:17.041Z</time></trkpt><trkpt lat="38.4238667" lon="0.23127"><ele>0.0</ele><time>2026-04-29T17:45:18.04Z</time></trkpt><trkpt lat="38.4239382" lon="0.2313429"><ele>0.0</ele><time>2026-04-29T17:45:19.041Z</time></trkpt><trkpt lat="38.4240767" lon="0.2314662"><ele>0.0</ele><time>2026-04-29T17:45:21.041Z</time></trkpt><trkpt lat="38.4241553" lon="0.2315226"><ele>0.0</ele><time>2026-04-29T17:45:22.041Z</time></trkpt><trkpt lat="38.4242313" lon="0.231581"><ele>0.0</ele><time>2026-04-29T17:45:23.04Z</time></trkpt><trkpt lat="38.424305" lon="0.2316372"><ele>0.0</ele><time>2026-04-29T17:45:24.04Z</time></trkpt><trkpt lat="38.4243784" lon="0.2316966"><ele>0.0</ele><time>2026-04-29T17:45:25.041Z</time></trkpt><trkpt lat="38.4244522" lon="0.2317533"><ele>0.0</ele><time>2026-04-29T17:45:26.04Z</time></trkpt><trkpt lat="38.4245251" lon="0.2318114"><ele>0.0</ele><time>2026-04-29T17:45:27.04Z</time></trkpt><trkpt lat="38.4246029" lon="0.2318717"><ele>0.0</ele><time>2026-04-29T17:45:28.04Z</time></trkpt><trkpt lat="38.4246737" lon="0.2319318"><ele>0.0</ele><time>2026-04-29T17:45:29.04Z</time></trkpt><trkpt lat="38.4247437" lon="0.2319892"><ele>0.0</ele><time>2026-04-29T17:45:30.04Z</time></trkpt><trkpt lat="38.4248164" lon="0.2320564"><ele>0.0</ele><time>2026-04-29T17:45:31.041Z</time></trkpt><trkpt lat="38.4248968" lon="0.2321163"><ele>0.0</ele><time>2026-04-29T17:45:32.04Z</time></trkpt><trkpt lat="38.4249657" lon="0.2321859"><ele>0.0</ele><time>2026-04-29T17:45:33.041Z</time></trkpt><trkpt lat="38.425037" lon="0.2322579"><ele>0.0</ele><time>2026-04-29T17:45:34.04Z</time></trkpt><trkpt lat="38.4251039" lon="0.2323209"><ele>0.0</ele><time>2026-04-29T17:45:35.04Z</time></trkpt><trkpt lat="38.4251765" lon="0.2323892"><ele>0.0</ele><time>2026-04-29T17:45:36.04Z</time></trkpt><trkpt lat="38.4252498" lon="0.2324573"><ele>0.0</ele><time>2026-04-29T17:45:37.04Z</time></trkpt><trkpt lat="38.4253263" lon="0.2325216"><ele>0.0</ele><time>2026-04-29T17:45:38.04Z</time></trkpt><trkpt lat="38.4253999" lon="0.232586"><ele>0.0</ele><time>2026-04-29T17:45:39.041Z</time></trkpt><trkpt lat="38.4254706" lon="0.2326507"><ele>0.0</ele><time>2026-04-29T17:45:40.04Z</time></trkpt><trkpt lat="38.4256248" lon="0.2327806"><ele>0.0</ele><time>2026-04-29T17:45:42.04Z</time></trkpt><trkpt lat="38.4256927" lon="0.2328515"><ele>0.0</ele><time>2026-04-29T17:45:43.04Z</time></trkpt><trkpt lat="38.4257594" lon="0.2329233"><ele>0.0</ele><time>2026-04-29T17:45:44.04Z</time></trkpt><trkpt lat="38.4258274" lon="0.2329911"><ele>0.0</ele><time>2026-04-29T17:45:45.04Z</time></trkpt><trkpt lat="38.4258971" lon="0.2330565"><ele>0.0</ele><time>2026-04-29T17:45:46.04Z</time></trkpt><trkpt lat="38.4259686" lon="0.2331182"><ele>0.0</ele><time>2026-04-29T17:45:47.04Z</time></trkpt><trkpt lat="38.4260404" lon="0.2331845"><ele>0.0</ele><time>2026-04-29T17:45:48.041Z</time></trkpt><trkpt lat="38.4261148" lon="0.2332465"><ele>0.0</ele><time>2026-04-29T17:45:49.041Z</time></trkpt><trkpt lat="38.4261885" lon="0.2333094"><ele>0.0</ele><time>2026-04-29T17:45:50.04Z</time></trkpt><trkpt lat="38.4262616" lon="0.2333742"><ele>0.0</ele><time>2026-04-29T17:45:51.041Z</time></trkpt><trkpt lat="38.4263321" lon="0.2334422"><ele>0.0</ele><time>2026-04-29T17:45:52.04Z</time></trkpt><trkpt lat="38.426409" lon="0.2335087"><ele>0.0</ele><time>2026-04-29T17:45:53.041Z</time></trkpt><trkpt lat="38.4264888" lon="0.2335742"><ele>0.0</ele><time>2026-04-29T17:45:54.04Z</time></trkpt><trkpt lat="38.4265661" lon="0.2336389"><ele>0.0</ele><time>2026-04-29T17:45:55.04Z</time></trkpt><trkpt lat="38.426637" lon="0.2336974"><ele>0.0</ele><time>2026-04-29T17:45:56.041Z</time></trkpt><trkpt lat="38.4267083" lon="0.2337556"><ele>0.0</ele><time>2026-04-29T17:45:57.04Z</time></trkpt><trkpt lat="38.4267759" lon="0.2338197"><ele>0.0</ele><time>2026-04-29T17:45:58.04Z</time></trkpt><trkpt lat="38.4268429" lon="0.2338858"><ele>0.0</ele><time>2026-04-29T17:45:59.041Z</time></trkpt><trkpt lat="38.4269067" lon="0.2339607"><ele>0.0</ele><time>2026-04-29T17:46:00.04Z</time></trkpt><trkpt lat="38.426975" lon="0.2340276"><ele>0.0</ele><time>2026-04-29T17:46:01.04Z</time></trkpt><trkpt lat="38.4271195" lon="0.2341504"><ele>0.0</ele><time>2026-04-29T17:46:03.041Z</time></trkpt><trkpt lat="38.4271905" lon="0.2342187"><ele>0.0</ele><time>2026-04-29T17:46:04.041Z</time></trkpt><trkpt lat="38.4272633" lon="0.234288"><ele>0.0</ele><time>2026-04-29T17:46:05.04Z</time></trkpt><trkpt lat="38.4273334" lon="0.2343579"><ele>0.0</ele><time>2026-04-29T17:46:06.04Z</time></trkpt><trkpt lat="38.4274031" lon="0.2344316"><ele>0.0</ele><time>2026-04-29T17:46:07.041Z</time></trkpt><trkpt lat="38.4274701" lon="0.2345067"><ele>0.0</ele><time>2026-04-29T17:46:08.04Z</time></trkpt><trkpt lat="38.4275451" lon="0.234571"><ele>0.0</ele><time>2026-04-29T17:46:09.041Z</time></trkpt><trkpt lat="38.4276119" lon="0.2346456"><ele>0.0</ele><time>2026-04-29T17:46:10.04Z</time></trkpt><trkpt lat="38.4276802" lon="0.2347134"><ele>0.0</ele><time>2026-04-29T17:46:11.041Z</time></trkpt><trkpt lat="38.4277516" lon="0.2347834"><ele>0.0</ele><time>2026-04-29T17:46:12.041Z</time></trkpt><trkpt lat="38.4278204" lon="0.2348488"><ele>0.0</ele><time>2026-04-29T17:46:13.041Z</time></trkpt><trkpt lat="38.4278903" lon="0.2349116"><ele>0.0</ele><time>2026-04-29T17:46:14.041Z</time></trkpt><trkpt lat="38.4279602" lon="0.2349722"><ele>0.0</ele><time>2026-04-29T17:46:15.04Z</time></trkpt><trkpt lat="38.4280315" lon="0.2350332"><ele>0.0</ele><time>2026-04-29T17:46:16.041Z</time></trkpt><trkpt lat="38.4281049" lon="0.2350948"><ele>0.0</ele><time>2026-04-29T17:46:17.041Z</time></trkpt><trkpt lat="38.4281814" lon="0.2351592"><ele>0.0</ele><time>2026-04-29T17:46:18.04Z</time></trkpt><trkpt lat="38.4282522" lon="0.2352169"><ele>0.0</ele><time>2026-04-29T17:46:19.04Z</time></trkpt><trkpt lat="38.428328" lon="0.2352797"><ele>0.0</ele><time>2026-04-29T17:46:20.041Z</time></trkpt><trkpt lat="38.4284015" lon="0.2353399"><ele>0.0</ele><time>2026-04-29T17:46:21.04Z</time></trkpt><trkpt lat="38.4284734" lon="0.2354028"><ele>0.0</ele><time>2026-04-29T17:46:22.04Z</time></trkpt><trkpt lat="38.428545" lon="0.2354677"><ele>0.0</ele><time>2026-04-29T17:46:23.04Z</time></trkpt><trkpt lat="38.4286905" lon="0.2355968"><ele>0.0</ele><time>2026-04-29T17:46:25.04Z</time></trkpt><trkpt lat="38.4287575" lon="0.2356647"><ele>0.0</ele><time>2026-04-29T17:46:26.041Z</time></trkpt><trkpt lat="38.4288269" lon="0.2357308"><ele>0.0</ele><time>2026-04-29T17:46:27.04Z</time></trkpt><trkpt lat="38.428898" lon="0.2357804"><ele>0.0</ele><time>2026-04-29T17:46:28.041Z</time></trkpt><trkpt lat="38.4289667" lon="0.2358403"><ele>0.0</ele><time>2026-04-29T17:46:29.04Z</time></trkpt><trkpt lat="38.4290379" lon="0.2358987"><ele>0.0</ele><time>2026-04-29T17:46:30.04Z</time></trkpt><trkpt lat="38.429114" lon="0.2359533"><ele>0.0</ele><time>2026-04-29T17:46:31.04Z</time></trkpt><trkpt lat="38.4291908" lon="0.2360157"><ele>0.0</ele><time>2026-04-29T17:46:32.04Z</time></trkpt><trkpt lat="38.4292652" lon="0.2360791"><ele>0.0</ele><time>2026-04-29T17:46:33.04Z</time></trkpt><trkpt lat="38.4293371" lon="0.2361405"><ele>0.0</ele><time>2026-04-29T17:46:34.041Z</time></trkpt><trkpt lat="38.4294085" lon="0.2362029"><ele>0.0</ele><time>2026-04-29T17:46:35.04Z</time></trkpt><trkpt lat="38.429479" lon="0.2362691"><ele>0.0</ele><time>2026-04-29T17:46:36.04Z</time></trkpt><trkpt lat="38.4295547" lon="0.2363332"><ele>0.0</ele><time>2026-04-29T17:46:37.041Z</time></trkpt><trkpt lat="38.4296254" lon="0.2363994"><ele>0.0</ele><time>2026-04-29T17:46:38.041Z</time></trkpt><trkpt lat="38.4296939" lon="0.2364705"><ele>0.0</ele><time>2026-04-29T17:46:39.04Z</time></trkpt><trkpt lat="38.4297621" lon="0.2365408"><ele>0.0</ele><time>2026-04-29T17:46:40.041Z</time></trkpt><trkpt lat="38.4298334" lon="0.2366053"><ele>0.0</ele><time>2026-04-29T17:46:41.041Z</time></trkpt><trkpt lat="38.4299053" lon="0.2366698"><ele>0.0</ele><time>2026-04-29T17:46:42.041Z</time></trkpt><trkpt lat="38.4299782" lon="0.2367353"><ele>0.0</ele><time>2026-04-29T17:46:43.04Z</time></trkpt><trkpt lat="38.4300514" lon="0.2367981"><ele>0.0</ele><time>2026-04-29T17:46:44.04Z</time></trkpt><trkpt lat="38.4301964" lon="0.2369313"><ele>0.0</ele><time>2026-04-29T17:46:46.04Z</time></trkpt><trkpt lat="38.4302669" lon="0.2369986"><ele>0.0</ele><time>2026-04-29T17:46:47.04Z</time></trkpt><trkpt lat="38.430338" lon="0.2370701"><ele>0.0</ele><time>2026-04-29T17:46:48.041Z</time></trkpt><trkpt lat="38.4304053" lon="0.2371417"><ele>0.0</ele><time>2026-04-29T17:46:49.041Z</time></trkpt><trkpt lat="38.4304776" lon="0.2372061"><ele>0.0</ele><time>2026-04-29T17:46:50.041Z</time></trkpt><trkpt lat="38.4305467" lon="0.237275"><ele>0.0</ele><time>2026-04-29T17:46:51.04Z</time></trkpt><trkpt lat="38.4306184" lon="0.2373414"><ele>0.0</ele><time>2026-04-29T17:46:52.04Z</time></trkpt><trkpt lat="38.4306884" lon="0.2374098"><ele>0.0</ele><time>2026-04-29T17:46:53.041Z</time></trkpt><trkpt lat="38.4307599" lon="0.2374762"><ele>0.0</ele><time>2026-04-29T17:46:54.04Z</time></trkpt><trkpt lat="38.4308305" lon="0.2375427"><ele>0.0</ele><time>2026-04-29T17:46:55.041Z</time></trkpt><trkpt lat="38.4309038" lon="0.2376118"><ele>0.0</ele><time>2026-04-29T17:46:56.04Z</time></trkpt><trkpt lat="38.4309781" lon="0.2376746"><ele>0.0</ele><time>2026-04-29T17:46:57.04Z</time></trkpt><trkpt lat="38.431056" lon="0.237739"><ele>0.0</ele><time>2026-04-29T17:46:58.041Z</time></trkpt><trkpt lat="38.4311315" lon="0.2378061"><ele>0.0</ele><time>2026-04-29T17:46:59.041Z</time></trkpt><trkpt lat="38.4312011" lon="0.2378649"><ele>0.0</ele><time>2026-04-29T17:47:00.041Z</time></trkpt><trkpt lat="38.4312664" lon="0.2379262"><ele>0.0</ele><time>2026-04-29T17:47:01.041Z</time></trkpt><trkpt lat="38.4313357" lon="0.2379906"><ele>0.0</ele><time>2026-04-29T17:47:02.04Z</time></trkpt><trkpt lat="38.4314098" lon="0.2380484"><ele>0.0</ele><time>2026-04-29T17:47:03.04Z</time></trkpt><trkpt lat="38.4314807" lon="0.2381079"><ele>0.0</ele><time>2026-04-29T17:47:04.04Z</time></trkpt><trkpt lat="38.431552" lon="0.2381637"><ele>0.0</ele><time>2026-04-29T17:47:05.041Z</time></trkpt><trkpt lat="38.4316965" lon="0.2382882"><ele>0.0</ele><time>2026-04-29T17:47:07.041Z</time></trkpt><trkpt lat="38.4317693" lon="0.2383525"><ele>0.0</ele><time>2026-04-29T17:47:08.04Z</time></trkpt><trkpt lat="38.4318427" lon="0.2384186"><ele>0.0</ele><time>2026-04-29T17:47:09.04Z</time></trkpt><trkpt lat="38.4319203" lon="0.2384817"><ele>0.0</ele><time>2026-04-29T17:47:10.04Z</time></trkpt><trkpt lat="38.4319973" lon="0.2385388"><ele>0.0</ele><time>2026-04-29T17:47:11.04Z</time></trkpt><trkpt lat="38.4320726" lon="0.2386008"><ele>0.0</ele><time>2026-04-29T17:47:12.04Z</time></trkpt><trkpt lat="38.4321435" lon="0.2386643"><ele>0.0</ele><time>2026-04-29T17:47:13.04Z</time></trkpt><trkpt lat="38.4322133" lon="0.2387302"><ele>0.0</ele><time>2026-04-29T17:47:14.041Z</time></trkpt><trkpt lat="38.4322822" lon="0.2387938"><ele>0.0</ele><time>2026-04-29T17:47:15.041Z</time></trkpt><trkpt lat="38.432356" lon="0.2388591"><ele>0.0</ele><time>2026-04-29T17:47:16.041Z</time></trkpt><trkpt lat="38.4324295" lon="0.2389254"><ele>0.0</ele><time>2026-04-29T17:47:17.04Z</time></trkpt><trkpt lat="38.4325001" lon="0.2389984"><ele>0.0</ele><time>2026-04-29T17:47:18.041Z</time></trkpt><trkpt lat="38.4325645" lon="0.2390745"><ele>0.0</ele><time>2026-04-29T17:47:19.041Z</time></trkpt><trkpt lat="38.432632" lon="0.2391423"><ele>0.0</ele><time>2026-04-29T17:47:20.04Z</time></trkpt><trkpt lat="38.4326934" lon="0.2392076"><ele>0.0</ele><time>2026-04-29T17:47:21.04Z</time></trkpt><trkpt lat="38.4327564" lon="0.2392691"><ele>0.0</ele><time>2026-04-29T17:47:22.04Z</time></trkpt><trkpt lat="38.4328281" lon="0.2393297"><ele>0.0</ele><time>2026-04-29T17:47:23.039Z</time></trkpt><trkpt lat="38.4329056" lon="0.2393909"><ele>0.0</ele><time>2026-04-29T17:47:24.039Z</time></trkpt><trkpt lat="38.432974" lon="0.2394569"><ele>0.0</ele><time>2026-04-29T17:47:25.04Z</time></trkpt><trkpt lat="38.4330451" lon="0.2395216"><ele>0.0</ele><time>2026-04-29T17:47:26.039Z</time></trkpt><trkpt lat="38.4331956" lon="0.2396565"><ele>0.0</ele><time>2026-04-29T17:47:28.039Z</time></trkpt><trkpt lat="38.4332698" lon="0.239715"><ele>0.0</ele><time>2026-04-29T17:47:29.04Z</time></trkpt><trkpt lat="38.4333457" lon="0.2397727"><ele>0.0</ele><time>2026-04-29T17:47:30.039Z</time></trkpt><trkpt lat="38.4334172" lon="0.2398318"><ele>0.0</ele><time>2026-04-29T17:47:31.039Z</time></trkpt><trkpt lat="38.4334902" lon="0.2398916"><ele>0.0</ele><time>2026-04-29T17:47:32.039Z</time></trkpt><trkpt lat="38.4335621" lon="0.2399516"><ele>0.0</ele><time>2026-04-29T17:47:33.039Z</time></trkpt><trkpt lat="38.4336322" lon="0.2400103"><ele>0.0</ele><time>2026-04-29T17:47:34.04Z</time></trkpt><trkpt lat="38.4337037" lon="0.2400727"><ele>0.0</ele><time>2026-04-29T17:47:35.039Z</time></trkpt><trkpt lat="38.4337787" lon="0.2401331"><ele>0.0</ele><time>2026-04-29T17:47:36.04Z</time></trkpt><trkpt lat="38.4338522" lon="0.2401944"><ele>0.0</ele><time>2026-04-29T17:47:37.039Z</time></trkpt><trkpt lat="38.4339268" lon="0.2402573"><ele>0.0</ele><time>2026-04-29T17:47:38.04Z</time></trkpt><trkpt lat="38.4340045" lon="0.2403234"><ele>0.0</ele><time>2026-04-29T17:47:39.039Z</time></trkpt><trkpt lat="38.4340829" lon="0.2403873"><ele>0.0</ele><time>2026-04-29T17:47:40.039Z</time></trkpt><trkpt lat="38.434151" lon="0.2404567"><ele>0.0</ele><time>2026-04-29T17:47:41.039Z</time></trkpt><trkpt lat="38.4342239" lon="0.2405259"><ele>0.0</ele><time>2026-04-29T17:47:42.039Z</time></trkpt><trkpt lat="38.4342999" lon="0.2405922"><ele>0.0</ele><time>2026-04-29T17:47:43.039Z</time></trkpt><trkpt lat="38.4343719" lon="0.2406592"><ele>0.0</ele><time>2026-04-29T17:47:44.04Z</time></trkpt><trkpt lat="38.4344397" lon="0.2407276"><ele>0.0</ele><time>2026-04-29T17:47:45.039Z</time></trkpt><trkpt lat="38.4345132" lon="0.2407852"><ele>0.0</ele><time>2026-04-29T17:47:46.04Z</time></trkpt><trkpt lat="38.4345839" lon="0.2408449"><ele>0.0</ele><time>2026-04-29T17:47:47.04Z</time></trkpt><trkpt lat="38.4347265" lon="0.2409727"><ele>0.0</ele><time>2026-04-29T17:47:49.039Z</time></trkpt><trkpt lat="38.4347984" lon="0.2410361"><ele>0.0</ele><time>2026-04-29T17:47:50.039Z</time></trkpt><trkpt lat="38.4348728" lon="0.2411011"><ele>0.0</ele><time>2026-04-29T17:47:51.04Z</time></trkpt><trkpt lat="38.4349448" lon="0.2411691"><ele>0.0</ele><time>2026-04-29T17:47:52.039Z</time></trkpt><trkpt lat="38.4350184" lon="0.2412358"><ele>0.0</ele><time>2026-04-29T17:47:53.04Z</time></trkpt><trkpt lat="38.4350901" lon="0.2413015"><ele>0.0</ele><time>2026-04-29T17:47:54.04Z</time></trkpt><trkpt lat="38.4351635" lon="0.2413662"><ele>0.0</ele><time>2026-04-29T17:47:55.04Z</time></trkpt><trkpt lat="38.4352339" lon="0.2414314"><ele>0.0</ele><time>2026-04-29T17:47:56.04Z</time></trkpt><trkpt lat="38.435298" lon="0.2414992"><ele>0.0</ele><time>2026-04-29T17:47:57.039Z</time></trkpt><trkpt lat="38.4353685" lon="0.2415658"><ele>0.0</ele><time>2026-04-29T17:47:58.039Z</time></trkpt><trkpt lat="38.4354382" lon="0.2416346"><ele>0.0</ele><time>2026-04-29T17:47:59.039Z</time></trkpt><trkpt lat="38.4355054" lon="0.2417016"><ele>0.0</ele><time>2026-04-29T17:48:00.039Z</time></trkpt><trkpt lat="38.4355739" lon="0.2417683"><ele>0.0</ele><time>2026-04-29T17:48:01.04Z</time></trkpt><trkpt lat="38.4356407" lon="0.2418348"><ele>0.0</ele><time>2026-04-29T17:48:02.04Z</time></trkpt><trkpt lat="38.4357102" lon="0.2419015"><ele>0.0</ele><time>2026-04-29T17:48:03.039Z</time></trkpt><trkpt lat="38.4357803" lon="0.2419662"><ele>0.0</ele><time>2026-04-29T17:48:04.039Z</time></trkpt><trkpt lat="38.4358503" lon="0.2420318"><ele>0.0</ele><time>2026-04-29T17:48:05.039Z</time></trkpt><trkpt lat="38.4359233" lon="0.2420928"><ele>0.0</ele><time>2026-04-29T17:48:06.039Z</time></trkpt><trkpt lat="38.4359953" lon="0.2421594"><ele>0.0</ele><time>2026-04-29T17:48:07.04Z</time></trkpt><trkpt lat="38.4360653" lon="0.2422237"><ele>0.0</ele><time>2026-04-29T17:48:08.039Z</time></trkpt><trkpt lat="38.4362085" lon="0.2423498"><ele>0.0</ele><time>2026-04-29T17:48:10.04Z</time></trkpt><trkpt lat="38.4362801" lon="0.2424131"><ele>0.0</ele><time>2026-04-29T17:48:11.039Z</time></trkpt><trkpt lat="38.4363517" lon="0.2424746"><ele>0.0</ele><time>2026-04-29T17:48:12.04Z</time></trkpt><trkpt lat="38.4364247" lon="0.2425394"><ele>0.0</ele><time>2026-04-29T17:48:13.04Z</time></trkpt><trkpt lat="38.4364964" lon="0.2426076"><ele>0.0</ele><time>2026-04-29T17:48:14.04Z</time></trkpt><trkpt lat="38.436567" lon="0.2426767"><ele>0.0</ele><time>2026-04-29T17:48:15.039Z</time></trkpt><trkpt lat="38.4366383" lon="0.2427429"><ele>0.0</ele><time>2026-04-29T17:48:16.04Z</time></trkpt><trkpt lat="38.4367084" lon="0.2428097"><ele>0.0</ele><time>2026-04-29T17:48:17.04Z</time></trkpt><trkpt lat="38.4367812" lon="0.2428777"><ele>0.0</ele><time>2026-04-29T17:48:18.039Z</time></trkpt><trkpt lat="38.4368489" lon="0.242942"><ele>0.0</ele><time>2026-04-29T17:48:19.039Z</time></trkpt><trkpt lat="38.43692" lon="0.2430135"><ele>0.0</ele><time>2026-04-29T17:48:20.04Z</time></trkpt><trkpt lat="38.4369932" lon="0.2430809"><ele>0.0</ele><time>2026-04-29T17:48:21.039Z</time></trkpt><trkpt lat="38.4370663" lon="0.2431463"><ele>0.0</ele><time>2026-04-29T17:48:22.039Z</time></trkpt><trkpt lat="38.4371382" lon="0.2432124"><ele>0.0</ele><time>2026-04-29T17:48:23.039Z</time></trkpt><trkpt lat="38.4372098" lon="0.2432811"><ele>0.0</ele><time>2026-04-29T17:48:24.039Z</time></trkpt><trkpt lat="38.4372817" lon="0.2433497"><ele>0.0</ele><time>2026-04-29T17:48:25.039Z</time></trkpt><trkpt lat="38.4373504" lon="0.2434165"><ele>0.0</ele><time>2026-04-29T17:48:26.039Z</time></trkpt><trkpt lat="38.4374188" lon="0.2434803"><ele>0.0</ele><time>2026-04-29T17:48:27.039Z</time></trkpt><trkpt lat="38.4374888" lon="0.2435475"><ele>0.0</ele><time>2026-04-29T17:48:28.04Z</time></trkpt><trkpt lat="38.437563" lon="0.2436058"><ele>0.0</ele><time>2026-04-29T17:48:29.04Z</time></trkpt><trkpt lat="38.4377085" lon="0.2437343"><ele>0.0</ele><time>2026-04-29T17:48:31.04Z</time></trkpt><trkpt lat="38.4377785" lon="0.2438"><ele>0.0</ele><time>2026-04-29T17:48:32.04Z</time></trkpt><trkpt lat="38.4378516" lon="0.2438593"><ele>0.0</ele><time>2026-04-29T17:48:33.039Z</time></trkpt><trkpt lat="38.4379266" lon="0.2439209"><ele>0.0</ele><time>2026-04-29T17:48:34.039Z</time></trkpt><trkpt lat="38.4380026" lon="0.2439879"><ele>0.0</ele><time>2026-04-29T17:48:35.039Z</time></trkpt><trkpt lat="38.4380765" lon="0.2440547"><ele>0.0</ele><time>2026-04-29T17:48:36.039Z</time></trkpt><trkpt lat="38.4381512" lon="0.2441255"><ele>0.0</ele><time>2026-04-29T17:48:37.04Z</time></trkpt><trkpt lat="38.4382218" lon="0.2441871"><ele>0.0</ele><time>2026-04-29T17:48:38.04Z</time></trkpt><trkpt lat="38.4382879" lon="0.2442446"><ele>0.0</ele><time>2026-04-29T17:48:39.04Z</time></trkpt><trkpt lat="38.4383543" lon="0.2443071"><ele>0.0</ele><time>2026-04-29T17:48:40.04Z</time></trkpt><trkpt lat="38.4384237" lon="0.2443684"><ele>0.0</ele><time>2026-04-29T17:48:41.039Z</time></trkpt><trkpt lat="38.4384992" lon="0.2444303"><ele>0.0</ele><time>2026-04-29T17:48:42.04Z</time></trkpt><trkpt lat="38.4385785" lon="0.2444934"><ele>0.0</ele><time>2026-04-29T17:48:43.04Z</time></trkpt><trkpt lat="38.4386543" lon="0.2445608"><ele>0.0</ele><time>2026-04-29T17:48:44.039Z</time></trkpt><trkpt lat="38.4387234" lon="0.2446296"><ele>0.0</ele><time>2026-04-29T17:48:45.039Z</time></trkpt><trkpt lat="38.4387936" lon="0.2446937"><ele>0.0</ele><time>2026-04-29T17:48:46.04Z</time></trkpt><trkpt lat="38.4388621" lon="0.2447567"><ele>0.0</ele><time>2026-04-29T17:48:47.04Z</time></trkpt><trkpt lat="38.4389347" lon="0.2448242"><ele>0.0</ele><time>2026-04-29T17:48:48.039Z</time></trkpt><trkpt lat="38.4390082" lon="0.244891"><ele>0.0</ele><time>2026-04-29T17:48:49.04Z</time></trkpt><trkpt lat="38.4390842" lon="0.2449638"><ele>0.0</ele><time>2026-04-29T17:48:50.039Z</time></trkpt><trkpt lat="38.439223" lon="0.2450993"><ele>0.0</ele><time>2026-04-29T17:48:52.039Z</time></trkpt><trkpt lat="38.4392921" lon="0.2451679"><ele>0.0</ele><time>2026-04-29T17:48:53.039Z</time></trkpt><trkpt lat="38.4393602" lon="0.2452349"><ele>0.0</ele><time>2026-04-29T17:48:54.04Z</time></trkpt><trkpt lat="38.4394361" lon="0.2453015"><ele>0.0</ele><time>2026-04-29T17:48:55.039Z</time></trkpt><trkpt lat="38.439508" lon="0.2453663"><ele>0.0</ele><time>2026-04-29T17:48:56.04Z</time></trkpt><trkpt lat="38.4395829" lon="0.2454284"><ele>0.0</ele><time>2026-04-29T17:48:57.039Z</time></trkpt><trkpt lat="38.4396551" lon="0.2454887"><ele>0.0</ele><time>2026-04-29T17:48:58.039Z</time></trkpt><trkpt lat="38.4397253" lon="0.2455473"><ele>0.0</ele><time>2026-04-29T17:48:59.039Z</time></trkpt><trkpt lat="38.4397956" lon="0.2456086"><ele>0.0</ele><time>2026-04-29T17:49:00.039Z</time></trkpt><trkpt lat="38.4398682" lon="0.2456687"><ele>0.0</ele><time>2026-04-29T17:49:01.039Z</time></trkpt><trkpt lat="38.4399404" lon="0.2457286"><ele>0.0</ele><time>2026-04-29T17:49:02.039Z</time></trkpt><trkpt lat="38.4400133" lon="0.2457899"><ele>0.0</ele><time>2026-04-29T17:49:03.04Z</time></trkpt><trkpt lat="38.4400851" lon="0.2458531"><ele>0.0</ele><time>2026-04-29T17:49:04.04Z</time></trkpt><trkpt lat="38.4401566" lon="0.2459198"><ele>0.0</ele><time>2026-04-29T17:49:05.04Z</time></trkpt><trkpt lat="38.4402258" lon="0.245984"><ele>0.0</ele><time>2026-04-29T17:49:06.039Z</time></trkpt><trkpt lat="38.4402955" lon="0.2460414"><ele>0.0</ele><time>2026-04-29T17:49:07.039Z</time></trkpt><trkpt lat="38.440364" lon="0.2461009"><ele>0.0</ele><time>2026-04-29T17:49:08.04Z</time></trkpt><trkpt lat="38.4404368" lon="0.246166"><ele>0.0</ele><time>2026-04-29T17:49:09.039Z</time></trkpt><trkpt lat="38.4405184" lon="0.246227"><ele>0.0</ele><time>2026-04-29T17:49:10.04Z</time></trkpt><trkpt lat="38.4405953" lon="0.2462899"><ele>0.0</ele><time>2026-04-29T17:49:11.039Z</time></trkpt><trkpt lat="38.4407537" lon="0.2464095"><ele>0.0</ele><time>2026-04-29T17:49:13.04Z</time></trkpt><trkpt lat="38.4408281" lon="0.2464729"><ele>0.0</ele><time>2026-04-29T17:49:14.039Z</time></trkpt><trkpt lat="38.4409013" lon="0.2465394"><ele>0.0</ele><time>2026-04-29T17:49:15.039Z</time></trkpt><trkpt lat="38.4409648" lon="0.2466118"><ele>0.0</ele><time>2026-04-29T17:49:16.039Z</time></trkpt><trkpt lat="38.4410306" lon="0.2466786"><ele>0.0</ele><time>2026-04-29T17:49:17.039Z</time></trkpt><trkpt lat="38.4411016" lon="0.2467463"><ele>0.0</ele><time>2026-04-29T17:49:18.039Z</time></trkpt><trkpt lat="38.4411728" lon="0.2468192"><ele>0.0</ele><time>2026-04-29T17:49:19.039Z</time></trkpt><trkpt lat="38.4412405" lon="0.2468853"><ele>0.0</ele><time>2026-04-29T17:49:20.04Z</time></trkpt><trkpt lat="38.4413102" lon="0.2469529"><ele>0.0</ele><time>2026-04-29T17:49:21.039Z</time></trkpt><trkpt lat="38.44138" lon="0.2470172"><ele>0.0</ele><time>2026-04-29T17:49:22.039Z</time></trkpt><trkpt lat="38.4414486" lon="0.2470864"><ele>0.0</ele><time>2026-04-29T17:49:23.039Z</time></trkpt><trkpt lat="38.44152" lon="0.2471561"><ele>0.0</ele><time>2026-04-29T17:49:24.039Z</time></trkpt><trkpt lat="38.4415877" lon="0.2472217"><ele>0.0</ele><time>2026-04-29T17:49:25.039Z</time></trkpt><trkpt lat="38.4416599" lon="0.2472894"><ele>0.0</ele><time>2026-04-29T17:49:26.039Z</time></trkpt><trkpt lat="38.4417288" lon="0.2473576"><ele>0.0</ele><time>2026-04-29T17:49:27.039Z</time></trkpt><trkpt lat="38.4417971" lon="0.2474194"><ele>0.0</ele><time>2026-04-29T17:49:28.039Z</time></trkpt><trkpt lat="38.4418641" lon="0.2474851"><ele>0.0</ele><time>2026-04-29T17:49:29.039Z</time></trkpt><trkpt lat="38.4419334" lon="0.2475515"><ele>0.0</ele><time>2026-04-29T17:49:30.04Z</time></trkpt><trkpt lat="38.4420023" lon="0.2476155"><ele>0.0</ele><time>2026-04-29T17:49:31.039Z</time></trkpt><trkpt lat="38.442072" lon="0.2476883"><ele>0.0</ele><time>2026-04-29T17:49:32.039Z</time></trkpt><trkpt lat="38.4422179" lon="0.2478161"><ele>0.0</ele><time>2026-04-29T17:49:34.039Z</time></trkpt><trkpt lat="38.4422956" lon="0.24788"><ele>0.0</ele><time>2026-04-29T17:49:35.039Z</time></trkpt><trkpt lat="38.442368" lon="0.2479471"><ele>0.0</ele><time>2026-04-29T17:49:36.039Z</time></trkpt><trkpt lat="38.4424427" lon="0.2480165"><ele>0.0</ele><time>2026-04-29T17:49:37.039Z</time></trkpt><trkpt lat="38.4425167" lon="0.2480828"><ele>0.0</ele><time>2026-04-29T17:49:38.04Z</time></trkpt><trkpt lat="38.4425857" lon="0.2481451"><ele>0.0</ele><time>2026-04-29T17:49:39.04Z</time></trkpt><trkpt lat="38.4426555" lon="0.2482093"><ele>0.0</ele><time>2026-04-29T17:49:40.04Z</time></trkpt><trkpt lat="38.4427284" lon="0.2482689"><ele>0.0</ele><time>2026-04-29T17:49:41.039Z</time></trkpt><trkpt lat="38.4428018" lon="0.2483297"><ele>0.0</ele><time>2026-04-29T17:49:42.04Z</time></trkpt><trkpt lat="38.4428735" lon="0.2483928"><ele>0.0</ele><time>2026-04-29T17:49:43.039Z</time></trkpt><trkpt lat="38.4429423" lon="0.2484546"><ele>0.0</ele><time>2026-04-29T17:49:44.039Z</time></trkpt><trkpt lat="38.4430149" lon="0.2485164"><ele>0.0</ele><time>2026-04-29T17:49:45.04Z</time></trkpt><trkpt lat="38.4430954" lon="0.2485838"><ele>0.0</ele><time>2026-04-29T17:49:46.04Z</time></trkpt><trkpt lat="38.4431602" lon="0.2486494"><ele>0.0</ele><time>2026-04-29T17:49:47.039Z</time></trkpt><trkpt lat="38.4432274" lon="0.2487157"><ele>0.0</ele><time>2026-04-29T17:49:48.039Z</time></trkpt><trkpt lat="38.4432974" lon="0.2487841"><ele>0.0</ele><time>2026-04-29T17:49:49.039Z</time></trkpt><trkpt lat="38.44337" lon="0.2488541"><ele>0.0</ele><time>2026-04-29T17:49:50.04Z</time></trkpt><trkpt lat="38.4434432" lon="0.2489241"><ele>0.0</ele><time>2026-04-29T17:49:51.04Z</time></trkpt><trkpt lat="38.4435221" lon="0.2489828"><ele>0.0</ele><time>2026-04-29T17:49:52.04Z</time></trkpt><trkpt lat="38.4435964" lon="0.2490394"><ele>0.0</ele><time>2026-04-29T17:49:53.039Z</time></trkpt><trkpt lat="38.4437407" lon="0.2491563"><ele>0.0</ele><time>2026-04-29T17:49:55.04Z</time></trkpt><trkpt lat="38.4438148" lon="0.249215"><ele>0.0</ele><time>2026-04-29T17:49:56.04Z</time></trkpt><trkpt lat="38.4438853" lon="0.2492781"><ele>0.0</ele><time>2026-04-29T17:49:57.039Z</time></trkpt><trkpt lat="38.443961" lon="0.2493404"><ele>0.0</ele><time>2026-04-29T17:49:58.039Z</time></trkpt><trkpt lat="38.4440316" lon="0.2494107"><ele>0.0</ele><time>2026-04-29T17:49:59.039Z</time></trkpt><trkpt lat="38.4441032" lon="0.2494753"><ele>0.0</ele><time>2026-04-29T17:50:00.039Z</time></trkpt><trkpt lat="38.4441736" lon="0.2495353"><ele>0.0</ele><time>2026-04-29T17:50:01.039Z</time></trkpt><trkpt lat="38.4442464" lon="0.2495939"><ele>0.0</ele><time>2026-04-29T17:50:02.04Z</time></trkpt><trkpt lat="38.4443225" lon="0.2496551"><ele>0.0</ele><time>2026-04-29T17:50:03.04Z</time></trkpt><trkpt lat="38.4444009" lon="0.2497184"><ele>0.0</ele><time>2026-04-29T17:50:04.039Z</time></trkpt><trkpt lat="38.4444765" lon="0.2497797"><ele>0.0</ele><time>2026-04-29T17:50:05.039Z</time></trkpt><trkpt lat="38.44455" lon="0.2498503"><ele>0.0</ele><time>2026-04-29T17:50:06.039Z</time></trkpt><trkpt lat="38.444619" lon="0.2499189"><ele>0.0</ele><time>2026-04-29T17:50:07.039Z</time></trkpt><trkpt lat="38.4446917" lon="0.2499844"><ele>0.0</ele><time>2026-04-29T17:50:08.039Z</time></trkpt><trkpt lat="38.4447664" lon="0.2500436"><ele>0.0</ele><time>2026-04-29T17:50:09.039Z</time></trkpt><trkpt lat="38.4448399" lon="0.2501108"><ele>0.0</ele><time>2026-04-29T17:50:10.04Z</time></trkpt><trkpt lat="38.4449094" lon="0.2501809"><ele>0.0</ele><time>2026-04-29T17:50:11.039Z</time></trkpt><trkpt lat="38.4449804" lon="0.2502487"><ele>0.0</ele><time>2026-04-29T17:50:12.04Z</time></trkpt><trkpt lat="38.4450489" lon="0.2503161"><ele>0.0</ele><time>2026-04-29T17:50:13.039Z</time></trkpt><trkpt lat="38.4451188" lon="0.2503816"><ele>0.0</ele><time>2026-04-29T17:50:14.039Z</time></trkpt><trkpt lat="38.4452612" lon="0.2505174"><ele>0.0</ele><time>2026-04-29T17:50:16.039Z</time></trkpt><trkpt lat="38.4453331" lon="0.2505816"><ele>0.0</ele><time>2026-04-29T17:50:17.039Z</time></trkpt><trkpt lat="38.4454049" lon="0.2506465"><ele>0.0</ele><time>2026-04-29T17:50:18.04Z</time></trkpt><trkpt lat="38.4454709" lon="0.2507108"><ele>0.0</ele><time>2026-04-29T17:50:19.04Z</time></trkpt><trkpt lat="38.4455401" lon="0.2507712"><ele>0.0</ele><time>2026-04-29T17:50:20.039Z</time></trkpt><trkpt lat="38.4456103" lon="0.2508407"><ele>0.0</ele><time>2026-04-29T17:50:21.039Z</time></trkpt><trkpt lat="38.4456719" lon="0.2509065"><ele>0.0</ele><time>2026-04-29T17:50:22.04Z</time></trkpt><trkpt lat="38.4457335" lon="0.2509725"><ele>0.0</ele><time>2026-04-29T17:50:23.039Z</time></trkpt><trkpt lat="38.445805" lon="0.2510367"><ele>0.0</ele><time>2026-04-29T17:50:24.039Z</time></trkpt><trkpt lat="38.4458765" lon="0.251106"><ele>0.0</ele><time>2026-04-29T17:50:25.04Z</time></trkpt><trkpt lat="38.4459467" lon="0.2511744"><ele>0.0</ele><time>2026-04-29T17:50:26.04Z</time></trkpt><trkpt lat="38.4460197" lon="0.2512387"><ele>0.0</ele><time>2026-04-29T17:50:27.039Z</time></trkpt><trkpt lat="38.4460915" lon="0.2513069"><ele>0.0</ele><time>2026-04-29T17:50:28.039Z</time></trkpt><trkpt lat="38.4461671" lon="0.2513716"><ele>0.0</ele><time>2026-04-29T17:50:29.039Z</time></trkpt><trkpt lat="38.4462398" lon="0.2514418"><ele>0.0</ele><time>2026-04-29T17:50:30.04Z</time></trkpt><trkpt lat="38.4463106" lon="0.2515069"><ele>0.0</ele><time>2026-04-29T17:50:31.039Z</time></trkpt><trkpt lat="38.4463787" lon="0.2515703"><ele>0.0</ele><time>2026-04-29T17:50:32.04Z</time></trkpt><trkpt lat="38.446447" lon="0.2516404"><ele>0.0</ele><time>2026-04-29T17:50:33.04Z</time></trkpt><trkpt lat="38.4465171" lon="0.2517078"><ele>0.0</ele><time>2026-04-29T17:50:34.039Z</time></trkpt><trkpt lat="38.4465845" lon="0.2517717"><ele>0.0</ele><time>2026-04-29T17:50:35.04Z</time></trkpt><trkpt lat="38.4467218" lon="0.2519093"><ele>0.0</ele><time>2026-04-29T17:50:37.039Z</time></trkpt><trkpt lat="38.4467947" lon="0.2519793"><ele>0.0</ele><time>2026-04-29T17:50:38.04Z</time></trkpt><trkpt lat="38.4468723" lon="0.2520451"><ele>0.0</ele><time>2026-04-29T17:50:39.04Z</time></trkpt><trkpt lat="38.446952" lon="0.2521097"><ele>0.0</ele><time>2026-04-29T17:50:40.04Z</time></trkpt><trkpt lat="38.447025" lon="0.2521719"><ele>0.0</ele><time>2026-04-29T17:50:41.039Z</time></trkpt><trkpt lat="38.4470966" lon="0.2522284"><ele>0.0</ele><time>2026-04-29T17:50:42.04Z</time></trkpt><trkpt lat="38.4471698" lon="0.2522877"><ele>0.0</ele><time>2026-04-29T17:50:43.039Z</time></trkpt><trkpt lat="38.4472432" lon="0.2523529"><ele>0.0</ele><time>2026-04-29T17:50:44.04Z</time></trkpt><trkpt lat="38.4473149" lon="0.2524195"><ele>0.0</ele><time>2026-04-29T17:50:45.039Z</time></trkpt><trkpt lat="38.4473854" lon="0.2524937"><ele>0.0</ele><time>2026-04-29T17:50:46.039Z</time></trkpt><trkpt lat="38.4474597" lon="0.2525665"><ele>0.0</ele><time>2026-04-29T17:50:47.039Z</time></trkpt><trkpt lat="38.4475333" lon="0.2526399"><ele>0.0</ele><time>2026-04-29T17:50:48.04Z</time></trkpt><trkpt lat="38.4476011" lon="0.2527062"><ele>0.0</ele><time>2026-04-29T17:50:49.04Z</time></trkpt><trkpt lat="38.4476651" lon="0.2527742"><ele>0.0</ele><time>2026-04-29T17:50:50.039Z</time></trkpt><trkpt lat="38.4477352" lon="0.2528386"><ele>0.0</ele><time>2026-04-29T17:50:51.04Z</time></trkpt><trkpt lat="38.4478082" lon="0.2529005"><ele>0.0</ele><time>2026-04-29T17:50:52.039Z</time></trkpt><trkpt lat="38.4478827" lon="0.252966"><ele>0.0</ele><time>2026-04-29T17:50:53.04Z</time></trkpt><trkpt lat="38.4479575" lon="0.2530313"><ele>0.0</ele><time>2026-04-29T17:50:54.039Z</time></trkpt><trkpt lat="38.4480324" lon="0.2530979"><ele>0.0</ele><time>2026-04-29T17:50:55.04Z</time></trkpt><trkpt lat="38.4481033" lon="0.253162"><ele>0.0</ele><time>2026-04-29T17:50:56.04Z</time></trkpt><trkpt lat="38.4482485" lon="0.2532769"><ele>0.0</ele><time>2026-04-29T17:50:58.039Z</time></trkpt><trkpt lat="38.4483203" lon="0.2533288"><ele>0.0</ele><time>2026-04-29T17:50:59.04Z</time></trkpt><trkpt lat="38.4483863" lon="0.2533874"><ele>0.0</ele><time>2026-04-29T17:51:00.039Z</time></trkpt><trkpt lat="38.4484582" lon="0.2534457"><ele>0.0</ele><time>2026-04-29T17:51:01.039Z</time></trkpt><trkpt lat="38.4485312" lon="0.2535059"><ele>0.0</ele><time>2026-04-29T17:51:02.04Z</time></trkpt><trkpt lat="38.4486018" lon="0.2535657"><ele>0.0</ele><time>2026-04-29T17:51:03.039Z</time></trkpt><trkpt lat="38.4486735" lon="0.2536312"><ele>0.0</ele><time>2026-04-29T17:51:04.04Z</time></trkpt><trkpt lat="38.4487436" lon="0.2536982"><ele>0.0</ele><time>2026-04-29T17:51:05.039Z</time></trkpt><trkpt lat="38.448818" lon="0.2537629"><ele>0.0</ele><time>2026-04-29T17:51:06.039Z</time></trkpt><trkpt lat="38.448893" lon="0.2538206"><ele>0.0</ele><time>2026-04-29T17:51:07.04Z</time></trkpt><trkpt lat="38.4489695" lon="0.2538849"><ele>0.0</ele><time>2026-04-29T17:51:08.04Z</time></trkpt><trkpt lat="38.449043" lon="0.2539499"><ele>0.0</ele><time>2026-04-29T17:51:09.04Z</time></trkpt><trkpt lat="38.4491192" lon="0.2540134"><ele>0.0</ele><time>2026-04-29T17:51:10.039Z</time></trkpt><trkpt lat="38.449192" lon="0.2540796"><ele>0.0</ele><time>2026-04-29T17:51:11.04Z</time></trkpt><trkpt lat="38.4492636" lon="0.2541404"><ele>0.0</ele><time>2026-04-29T17:51:12.04Z</time></trkpt><trkpt lat="38.4493338" lon="0.2541977"><ele>0.0</ele><time>2026-04-29T17:51:13.04Z</time></trkpt><trkpt lat="38.4494068" lon="0.2542542"><ele>0.0</ele><time>2026-04-29T17:51:14.039Z</time></trkpt><trkpt lat="38.4494716" lon="0.2543207"><ele>0.0</ele><time>2026-04-29T17:51:15.039Z</time></trkpt><trkpt lat="38.4495363" lon="0.2543892"><ele>0.0</ele><time>2026-04-29T17:51:16.04Z</time></trkpt><trkpt lat="38.4496111" lon="0.2544621"><ele>0.0</ele><time>2026-04-29T17:51:17.039Z</time></trkpt><trkpt lat="38.4497551" lon="0.2545927"><ele>0.0</ele><time>2026-04-29T17:51:19.039Z</time></trkpt><trkpt lat="38.4498308" lon="0.2546597"><ele>0.0</ele><time>2026-04-29T17:51:20.04Z</time></trkpt><trkpt lat="38.4499059" lon="0.2547201"><ele>0.0</ele><time>2026-04-29T17:51:21.039Z</time></trkpt><trkpt lat="38.4499795" lon="0.2547805"><ele>0.0</ele><time>2026-04-29T17:51:22.039Z</time></trkpt><trkpt lat="38.4500531" lon="0.2548462"><ele>0.0</ele><time>2026-04-29T17:51:23.04Z</time></trkpt><trkpt lat="38.450122" lon="0.2549091"><ele>0.0</ele><time>2026-04-29T17:51:24.039Z</time></trkpt><trkpt lat="38.4501931" lon="0.2549738"><ele>0.0</ele><time>2026-04-29T17:51:25.039Z</time></trkpt><trkpt lat="38.4502652" lon="0.2550384"><ele>0.0</ele><time>2026-04-29T17:51:26.039Z</time></trkpt><trkpt lat="38.4503295" lon="0.2551144"><ele>0.0</ele><time>2026-04-29T17:51:27.039Z</time></trkpt><trkpt lat="38.4503977" lon="0.2551843"><ele>0.0</ele><time>2026-04-29T17:51:28.04Z</time></trkpt><trkpt lat="38.4504702" lon="0.2552543"><ele>0.0</ele><time>2026-04-29T17:51:29.039Z</time></trkpt><trkpt lat="38.4505374" lon="0.2553246"><ele>0.0</ele><time>2026-04-29T17:51:30.04Z</time></trkpt><trkpt lat="38.4506054" lon="0.2553872"><ele>0.0</ele><time>2026-04-29T17:51:31.039Z</time></trkpt><trkpt lat="38.4506725" lon="0.2554519"><ele>0.0</ele><time>2026-04-29T17:51:32.039Z</time></trkpt><trkpt lat="38.4507506" lon="0.2555092"><ele>0.0</ele><time>2026-04-29T17:51:33.039Z</time></trkpt><trkpt lat="38.4508274" lon="0.2555723"><ele>0.0</ele><time>2026-04-29T17:51:34.04Z</time></trkpt><trkpt lat="38.4509017" lon="0.2556468"><ele>0.0</ele><time>2026-04-29T17:51:35.039Z</time></trkpt><trkpt lat="38.450969" lon="0.2557146"><ele>0.0</ele><time>2026-04-29T17:51:36.039Z</time></trkpt><trkpt lat="38.4510401" lon="0.2557784"><ele>0.0</ele><time>2026-04-29T17:51:37.04Z</time></trkpt><trkpt lat="38.4511115" lon="0.2558416"><ele>0.0</ele><time>2026-04-29T17:51:38.04Z</time></trkpt><trkpt lat="38.4512629" lon="0.2559722"><ele>0.0</ele><time>2026-04-29T17:51:40.039Z</time></trkpt><trkpt lat="38.4513393" lon="0.2560368"><ele>0.0</ele><time>2026-04-29T17:51:41.04Z</time></trkpt><trkpt lat="38.4514115" lon="0.2561025"><ele>0.0</ele><time>2026-04-29T17:51:42.039Z</time></trkpt><trkpt lat="38.451479" lon="0.2561725"><ele>0.0</ele><time>2026-04-29T17:51:43.039Z</time></trkpt><trkpt lat="38.4515429" lon="0.2562428"><ele>0.0</ele><time>2026-04-29T17:51:44.039Z</time></trkpt><trkpt lat="38.4516091" lon="0.2563086"><ele>0.0</ele><time>2026-04-29T17:51:45.038Z</time></trkpt><trkpt lat="38.451666" lon="0.2563858"><ele>0.0</ele><time>2026-04-29T17:51:46.038Z</time></trkpt><trkpt lat="38.4517354" lon="0.2564556"><ele>0.0</ele><time>2026-04-29T17:51:47.039Z</time></trkpt><trkpt lat="38.4518108" lon="0.2565243"><ele>0.0</ele><time>2026-04-29T17:51:48.039Z</time></trkpt><trkpt lat="38.4518872" lon="0.2565928"><ele>0.0</ele><time>2026-04-29T17:51:49.038Z</time></trkpt><trkpt lat="38.4519607" lon="0.2566513"><ele>0.0</ele><time>2026-04-29T17:51:50.039Z</time></trkpt><trkpt lat="38.4520363" lon="0.256709"><ele>0.0</ele><time>2026-04-29T17:51:51.039Z</time></trkpt><trkpt lat="38.45211" lon="0.2567728"><ele>0.0</ele><time>2026-04-29T17:51:52.039Z</time></trkpt><trkpt lat="38.4521791" lon="0.2568369"><ele>0.0</ele><time>2026-04-29T17:51:53.038Z</time></trkpt><trkpt lat="38.4522473" lon="0.2569047"><ele>0.0</ele><time>2026-04-29T17:51:54.038Z</time></trkpt><trkpt lat="38.4523167" lon="0.2569717"><ele>0.0</ele><time>2026-04-29T17:51:55.039Z</time></trkpt><trkpt lat="38.4523839" lon="0.2570385"><ele>0.0</ele><time>2026-04-29T17:51:56.038Z</time></trkpt><trkpt lat="38.4524577" lon="0.2570992"><ele>0.0</ele><time>2026-04-29T17:51:57.038Z</time></trkpt><trkpt lat="38.4525359" lon="0.2571647"><ele>0.0</ele><time>2026-04-29T17:51:58.038Z</time></trkpt><trkpt lat="38.4526071" lon="0.2572324"><ele>0.0</ele><time>2026-04-29T17:51:59.039Z</time></trkpt><trkpt lat="38.4527533" lon="0.2573696"><ele>0.0</ele><time>2026-04-29T17:52:01.038Z</time></trkpt><trkpt lat="38.4528279" lon="0.2574349"><ele>0.0</ele><time>2026-04-29T17:52:02.039Z</time></trkpt><trkpt lat="38.4528975" lon="0.2575026"><ele>0.0</ele><time>2026-04-29T17:52:03.039Z</time></trkpt><trkpt lat="38.4529702" lon="0.2575634"><ele>0.0</ele><time>2026-04-29T17:52:04.039Z</time></trkpt><trkpt lat="38.4530448" lon="0.2576267"><ele>0.0</ele><time>2026-04-29T17:52:05.039Z</time></trkpt><trkpt lat="38.4531177" lon="0.2576944"><ele>0.0</ele><time>2026-04-29T17:52:06.039Z</time></trkpt><trkpt lat="38.4531914" lon="0.2577613"><ele>0.0</ele><time>2026-04-29T17:52:07.039Z</time></trkpt><trkpt lat="38.4532674" lon="0.2578277"><ele>0.0</ele><time>2026-04-29T17:52:08.038Z</time></trkpt><trkpt lat="38.4533442" lon="0.2578932"><ele>0.0</ele><time>2026-04-29T17:52:09.038Z</time></trkpt><trkpt lat="38.453418" lon="0.2579611"><ele>0.0</ele><time>2026-04-29T17:52:10.039Z</time></trkpt><trkpt lat="38.453496" lon="0.2580219"><ele>0.0</ele><time>2026-04-29T17:52:11.038Z</time></trkpt><trkpt lat="38.4535797" lon="0.258075"><ele>0.0</ele><time>2026-04-29T17:52:12.039Z</time></trkpt><trkpt lat="38.4536617" lon="0.2581295"><ele>0.0</ele><time>2026-04-29T17:52:13.039Z</time></trkpt><trkpt lat="38.4537349" lon="0.2581927"><ele>0.0</ele><time>2026-04-29T17:52:14.039Z</time></trkpt><trkpt lat="38.4538055" lon="0.258252"><ele>0.0</ele><time>2026-04-29T17:52:15.038Z</time></trkpt><trkpt lat="38.4538782" lon="0.2583153"><ele>0.0</ele><time>2026-04-29T17:52:16.038Z</time></trkpt><trkpt lat="38.4539473" lon="0.2583768"><ele>0.0</ele><time>2026-04-29T17:52:17.039Z</time></trkpt><trkpt lat="38.4540157" lon="0.2584455"><ele>0.0</ele><time>2026-04-29T17:52:18.038Z</time></trkpt><trkpt lat="38.4540839" lon="0.2585113"><ele>0.0</ele><time>2026-04-29T17:52:19.038Z</time></trkpt><trkpt lat="38.4541539" lon="0.2585806"><ele>0.0</ele><time>2026-04-29T17:52:20.039Z</time></trkpt><trkpt lat="38.454228" lon="0.2586478"><ele>0.0</ele><time>2026-04-29T17:52:21.038Z</time></trkpt><trkpt lat="38.4543708" lon="0.2587875"><ele>0.0</ele><time>2026-04-29T17:52:23.038Z</time></trkpt><trkpt lat="38.454436" lon="0.2588543"><ele>0.0</ele><time>2026-04-29T17:52:24.038Z</time></trkpt><trkpt lat="38.4544997" lon="0.2589197"><ele>0.0</ele><time>2026-04-29T17:52:25.038Z</time></trkpt><trkpt lat="38.4545659" lon="0.2589897"><ele>0.0</ele><time>2026-04-29T17:52:26.038Z</time></trkpt><trkpt lat="38.4546378" lon="0.2590496"><ele>0.0</ele><time>2026-04-29T17:52:27.039Z</time></trkpt><trkpt lat="38.4547085" lon="0.2591092"><ele>0.0</ele><time>2026-04-29T17:52:28.039Z</time></trkpt><trkpt lat="38.4547774" lon="0.2591764"><ele>0.0</ele><time>2026-04-29T17:52:29.038Z</time></trkpt><trkpt lat="38.4548496" lon="0.2592476"><ele>0.0</ele><time>2026-04-29T17:52:30.038Z</time></trkpt><trkpt lat="38.4549229" lon="0.2593193"><ele>0.0</ele><time>2026-04-29T17:52:31.039Z</time></trkpt><trkpt lat="38.4549965" lon="0.2593849"><ele>0.0</ele><time>2026-04-29T17:52:32.038Z</time></trkpt><trkpt lat="38.4550684" lon="0.2594471"><ele>0.0</ele><time>2026-04-29T17:52:33.038Z</time></trkpt><trkpt lat="38.455136" lon="0.2595115"><ele>0.0</ele><time>2026-04-29T17:52:34.038Z</time></trkpt><trkpt lat="38.4552084" lon="0.2595781"><ele>0.0</ele><time>2026-04-29T17:52:35.039Z</time></trkpt><trkpt lat="38.4552784" lon="0.259642"><ele>0.0</ele><time>2026-04-29T17:52:36.039Z</time></trkpt><trkpt lat="38.4553497" lon="0.2597077"><ele>0.0</ele><time>2026-04-29T17:52:37.038Z</time></trkpt><trkpt lat="38.4554185" lon="0.2597732"><ele>0.0</ele><time>2026-04-29T17:52:38.039Z</time></trkpt><trkpt lat="38.4554929" lon="0.2598327"><ele>0.0</ele><time>2026-04-29T17:52:39.038Z</time></trkpt><trkpt lat="38.4555652" lon="0.2599008"><ele>0.0</ele><time>2026-04-29T17:52:40.038Z</time></trkpt><trkpt lat="38.4556367" lon="0.2599723"><ele>0.0</ele><time>2026-04-29T17:52:41.038Z</time></trkpt><trkpt lat="38.4557055" lon="0.260044"><ele>0.0</ele><time>2026-04-29T17:52:42.039Z</time></trkpt><trkpt lat="38.4558446" lon="0.2601833"><ele>0.0</ele><time>2026-04-29T17:52:44.039Z</time></trkpt><trkpt lat="38.4559166" lon="0.2602531"><ele>0.0</ele><time>2026-04-29T17:52:45.039Z</time></trkpt><trkpt lat="38.455987" lon="0.2603214"><ele>0.0</ele><time>2026-04-29T17:52:46.038Z</time></trkpt><trkpt lat="38.4560554" lon="0.2603895"><ele>0.0</ele><time>2026-04-29T17:52:47.038Z</time></trkpt><trkpt lat="38.4561252" lon="0.2604512"><ele>0.0</ele><time>2026-04-29T17:52:48.038Z</time></trkpt><trkpt lat="38.4561992" lon="0.260514"><ele>0.0</ele><time>2026-04-29T17:52:49.038Z</time></trkpt><trkpt lat="38.4562716" lon="0.260579"><ele>0.0</ele><time>2026-04-29T17:52:50.039Z</time></trkpt><trkpt lat="38.4563419" lon="0.2606408"><ele>0.0</ele><time>2026-04-29T17:52:51.038Z</time></trkpt><trkpt lat="38.4564146" lon="0.2607037"><ele>0.0</ele><time>2026-04-29T17:52:52.038Z</time></trkpt><trkpt lat="38.4564837" lon="0.2607753"><ele>0.0</ele><time>2026-04-29T17:52:53.039Z</time></trkpt><trkpt lat="38.4565533" lon="0.2608442"><ele>0.0</ele><time>2026-04-29T17:52:54.038Z</time></trkpt><trkpt lat="38.4566235" lon="0.260916"><ele>0.0</ele><time>2026-04-29T17:52:55.038Z</time></trkpt><trkpt lat="38.4566936" lon="0.2609814"><ele>0.0</ele><time>2026-04-29T17:52:56.038Z</time></trkpt><trkpt lat="38.4567679" lon="0.261044"><ele>0.0</ele><time>2026-04-29T17:52:57.039Z</time></trkpt><trkpt lat="38.4568469" lon="0.2611012"><ele>0.0</ele><time>2026-04-29T17:52:58.039Z</time></trkpt><trkpt lat="38.4569196" lon="0.2611649"><ele>0.0</ele><time>2026-04-29T17:52:59.039Z</time></trkpt><trkpt lat="38.4569932" lon="0.2612339"><ele>0.0</ele><time>2026-04-29T17:53:00.038Z</time></trkpt><trkpt lat="38.4570607" lon="0.2613"><ele>0.0</ele><time>2026-04-29T17:53:01.039Z</time></trkpt><trkpt lat="38.4571301" lon="0.2613636"><ele>0.0</ele><time>2026-04-29T17:53:02.038Z</time></trkpt><trkpt lat="38.4571992" lon="0.261431"><ele>0.0</ele><time>2026-04-29T17:53:03.039Z</time></trkpt><trkpt lat="38.4573461" lon="0.2615754"><ele>0.0</ele><time>2026-04-29T17:53:05.038Z</time></trkpt><trkpt lat="38.4574198" lon="0.2616369"><ele>0.0</ele><time>2026-04-29T17:53:06.039Z</time></trkpt><trkpt lat="38.4574887" lon="0.2616997"><ele>0.0</ele><time>2026-04-29T17:53:07.038Z</time></trkpt><trkpt lat="38.4575587" lon="0.2617687"><ele>0.0</ele><time>2026-04-29T17:53:08.039Z</time></trkpt><trkpt lat="38.4576328" lon="0.2618361"><ele>0.0</ele><time>2026-04-29T17:53:09.039Z</time></trkpt><trkpt lat="38.4577025" lon="0.2618986"><ele>0.0</ele><time>2026-04-29T17:53:10.038Z</time></trkpt><trkpt lat="38.4577719" lon="0.2619648"><ele>0.0</ele><time>2026-04-29T17:53:11.039Z</time></trkpt><trkpt lat="38.4578434" lon="0.2620271"><ele>0.0</ele><time>2026-04-29T17:53:12.038Z</time></trkpt><trkpt lat="38.4579193" lon="0.2620875"><ele>0.0</ele><time>2026-04-29T17:53:13.039Z</time></trkpt><trkpt lat="38.4579963" lon="0.2621415"><ele>0.0</ele><time>2026-04-29T17:53:14.038Z</time></trkpt><trkpt lat="38.458067" lon="0.2622006"><ele>0.0</ele><time>2026-04-29T17:53:15.038Z</time></trkpt><trkpt lat="38.4581343" lon="0.2622661"><ele>0.0</ele><time>2026-04-29T17:53:16.038Z</time></trkpt><trkpt lat="38.4582066" lon="0.2623343"><ele>0.0</ele><time>2026-04-29T17:53:17.038Z</time></trkpt><trkpt lat="38.4582785" lon="0.2623972"><ele>0.0</ele><time>2026-04-29T17:53:18.038Z</time></trkpt><trkpt lat="38.4583515" lon="0.2624574"><ele>0.0</ele><time>2026-04-29T17:53:19.038Z</time></trkpt><trkpt lat="38.4584292" lon="0.2625187"><ele>0.0</ele><time>2026-04-29T17:53:20.038Z</time></trkpt><trkpt lat="38.4585044" lon="0.262585"><ele>0.0</ele><time>2026-04-29T17:53:21.039Z</time></trkpt><trkpt lat="38.4585754" lon="0.2626554"><ele>0.0</ele><time>2026-04-29T17:53:22.038Z</time></trkpt><trkpt lat="38.4586515" lon="0.2627172"><ele>0.0</ele><time>2026-04-29T17:53:23.038Z</time></trkpt><trkpt lat="38.4587278" lon="0.2627773"><ele>0.0</ele><time>2026-04-29T17:53:24.039Z</time></trkpt><trkpt lat="38.4588749" lon="0.2629071"><ele>0.0</ele><time>2026-04-29T17:53:26.039Z</time></trkpt><trkpt lat="38.4589471" lon="0.2629667"><ele>0.0</ele><time>2026-04-29T17:53:27.038Z</time></trkpt><trkpt lat="38.4590142" lon="0.2630232"><ele>0.0</ele><time>2026-04-29T17:53:28.039Z</time></trkpt><trkpt lat="38.4590823" lon="0.2630842"><ele>0.0</ele><time>2026-04-29T17:53:29.038Z</time></trkpt><trkpt lat="38.4591533" lon="0.2631511"><ele>0.0</ele><time>2026-04-29T17:53:30.039Z</time></trkpt><trkpt lat="38.4592348" lon="0.2632139"><ele>0.0</ele><time>2026-04-29T17:53:31.038Z</time></trkpt><trkpt lat="38.4593251" lon="0.2632771"><ele>0.0</ele><time>2026-04-29T17:53:32.038Z</time></trkpt><trkpt lat="38.4593969" lon="0.2633432"><ele>0.0</ele><time>2026-04-29T17:53:33.038Z</time></trkpt><trkpt lat="38.45947" lon="0.2634094"><ele>0.0</ele><time>2026-04-29T17:53:34.039Z</time></trkpt><trkpt lat="38.4595361" lon="0.2634801"><ele>0.0</ele><time>2026-04-29T17:53:35.039Z</time></trkpt><trkpt lat="38.4596038" lon="0.2635493"><ele>0.0</ele><time>2026-04-29T17:53:36.039Z</time></trkpt><trkpt lat="38.4596739" lon="0.2636164"><ele>0.0</ele><time>2026-04-29T17:53:37.038Z</time></trkpt><trkpt lat="38.4597412" lon="0.2636814"><ele>0.0</ele><time>2026-04-29T17:53:38.038Z</time></trkpt><trkpt lat="38.4598104" lon="0.2637475"><ele>0.0</ele><time>2026-04-29T17:53:39.039Z</time></trkpt><trkpt lat="38.4598763" lon="0.2638115"><ele>0.0</ele><time>2026-04-29T17:53:40.038Z</time></trkpt><trkpt lat="38.4599454" lon="0.2638811"><ele>0.0</ele><time>2026-04-29T17:53:41.038Z</time></trkpt><trkpt lat="38.4600181" lon="0.2639439"><ele>0.0</ele><time>2026-04-29T17:53:42.038Z</time></trkpt><trkpt lat="38.4600859" lon="0.2640113"><ele>0.0</ele><time>2026-04-29T17:53:43.038Z</time></trkpt><trkpt lat="38.460157" lon="0.2640748"><ele>0.0</ele><time>2026-04-29T17:53:44.039Z</time></trkpt><trkpt lat="38.4602257" lon="0.2641442"><ele>0.0</ele><time>2026-04-29T17:53:45.039Z</time></trkpt><trkpt lat="38.4603632" lon="0.2642717"><ele>0.0</ele><time>2026-04-29T17:53:47.038Z</time></trkpt><trkpt lat="38.460439" lon="0.2643368"><ele>0.0</ele><time>2026-04-29T17:53:48.038Z</time></trkpt><trkpt lat="38.4605084" lon="0.2644034"><ele>0.0</ele><time>2026-04-29T17:53:49.039Z</time></trkpt><trkpt lat="38.4605828" lon="0.2644669"><ele>0.0</ele><time>2026-04-29T17:53:50.039Z</time></trkpt><trkpt lat="38.4606547" lon="0.264536"><ele>0.0</ele><time>2026-04-29T17:53:51.038Z</time></trkpt><trkpt lat="38.4607225" lon="0.2646043"><ele>0.0</ele><time>2026-04-29T17:53:52.039Z</time></trkpt><trkpt lat="38.4607921" lon="0.2646642"><ele>0.0</ele><time>2026-04-29T17:53:53.039Z</time></trkpt><trkpt lat="38.4608676" lon="0.2647255"><ele>0.0</ele><time>2026-04-29T17:53:54.039Z</time></trkpt><trkpt lat="38.4609414" lon="0.26479"><ele>0.0</ele><time>2026-04-29T17:53:55.038Z</time></trkpt><trkpt lat="38.4610162" lon="0.2648622"><ele>0.0</ele><time>2026-04-29T17:53:56.038Z</time></trkpt><trkpt lat="38.4610938" lon="0.2649339"><ele>0.0</ele><time>2026-04-29T17:53:57.039Z</time></trkpt><trkpt lat="38.4611637" lon="0.2649941"><ele>0.0</ele><time>2026-04-29T17:53:58.038Z</time></trkpt><trkpt lat="38.461231" lon="0.2650581"><ele>0.0</ele><time>2026-04-29T17:53:59.038Z</time></trkpt><trkpt lat="38.4613029" lon="0.2651275"><ele>0.0</ele><time>2026-04-29T17:54:00.038Z</time></trkpt><trkpt lat="38.4613749" lon="0.2651976"><ele>0.0</ele><time>2026-04-29T17:54:01.039Z</time></trkpt><trkpt lat="38.4614392" lon="0.2652709"><ele>0.0</ele><time>2026-04-29T17:54:02.038Z</time></trkpt><trkpt lat="38.4615113" lon="0.2653383"><ele>0.0</ele><time>2026-04-29T17:54:03.038Z</time></trkpt><trkpt lat="38.4615804" lon="0.2654095"><ele>0.0</ele><time>2026-04-29T17:54:04.039Z</time></trkpt><trkpt lat="38.4616546" lon="0.2654798"><ele>0.0</ele><time>2026-04-29T17:54:05.039Z</time></trkpt><trkpt lat="38.4617238" lon="0.2655425"><ele>0.0</ele><time>2026-04-29T17:54:06.038Z</time></trkpt><trkpt lat="38.4618618" lon="0.2656712"><ele>0.0</ele><time>2026-04-29T17:54:08.038Z</time></trkpt><trkpt lat="38.461935" lon="0.2657363"><ele>0.0</ele><time>2026-04-29T17:54:09.038Z</time></trkpt><trkpt lat="38.4620069" lon="0.265803"><ele>0.0</ele><time>2026-04-29T17:54:10.039Z</time></trkpt><trkpt lat="38.4620797" lon="0.265867"><ele>0.0</ele><time>2026-04-29T17:54:11.038Z</time></trkpt><trkpt lat="38.4621501" lon="0.265929"><ele>0.0</ele><time>2026-04-29T17:54:12.039Z</time></trkpt><trkpt lat="38.4622217" lon="0.2659936"><ele>0.0</ele><time>2026-04-29T17:54:13.038Z</time></trkpt><trkpt lat="38.462295" lon="0.2660581"><ele>0.0</ele><time>2026-04-29T17:54:14.038Z</time></trkpt><trkpt lat="38.4623666" lon="0.2661248"><ele>0.0</ele><time>2026-04-29T17:54:15.038Z</time></trkpt><trkpt lat="38.4624382" lon="0.2661915"><ele>0.0</ele><time>2026-04-29T17:54:16.038Z</time></trkpt><trkpt lat="38.4625127" lon="0.2662582"><ele>0.0</ele><time>2026-04-29T17:54:17.038Z</time></trkpt><trkpt lat="38.4625806" lon="0.2663221"><ele>0.0</ele><time>2026-04-29T17:54:18.038Z</time></trkpt><trkpt lat="38.4626503" lon="0.2663879"><ele>0.0</ele><time>2026-04-29T17:54:19.039Z</time></trkpt><trkpt lat="38.4627203" lon="0.2664539"><ele>0.0</ele><time>2026-04-29T17:54:20.038Z</time></trkpt><trkpt lat="38.4627918" lon="0.266517"><ele>0.0</ele><time>2026-04-29T17:54:21.038Z</time></trkpt><trkpt lat="38.4628578" lon="0.266583"><ele>0.0</ele><time>2026-04-29T17:54:22.039Z</time></trkpt><trkpt lat="38.4629287" lon="0.2666511"><ele>0.0</ele><time>2026-04-29T17:54:23.039Z</time></trkpt><trkpt lat="38.4629973" lon="0.266721"><ele>0.0</ele><time>2026-04-29T17:54:24.038Z</time></trkpt><trkpt lat="38.4630683" lon="0.2667864"><ele>0.0</ele><time>2026-04-29T17:54:25.038Z</time></trkpt><trkpt lat="38.4631457" lon="0.2668504"><ele>0.0</ele><time>2026-04-29T17:54:26.039Z</time></trkpt><trkpt lat="38.463224" lon="0.2669109"><ele>0.0</ele><time>2026-04-29T17:54:27.038Z</time></trkpt><trkpt lat="38.4633008" lon="0.2669754"><ele>0.0</ele><time>2026-04-29T17:54:28.038Z</time></trkpt><trkpt lat="38.4634492" lon="0.2670987"><ele>0.0</ele><time>2026-04-29T17:54:30.039Z</time></trkpt><trkpt lat="38.4635218" lon="0.2671627"><ele>0.0</ele><time>2026-04-29T17:54:31.039Z</time></trkpt><trkpt lat="38.4635934" lon="0.2672277"><ele>0.0</ele><time>2026-04-29T17:54:32.039Z</time></trkpt><trkpt lat="38.4636607" lon="0.2672987"><ele>0.0</ele><time>2026-04-29T17:54:33.039Z</time></trkpt><trkpt lat="38.463729" lon="0.2673686"><ele>0.0</ele><time>2026-04-29T17:54:34.038Z</time></trkpt><trkpt lat="38.4637985" lon="0.2674376"><ele>0.0</ele><time>2026-04-29T17:54:35.039Z</time></trkpt><trkpt lat="38.4638672" lon="0.2675048"><ele>0.0</ele><time>2026-04-29T17:54:36.038Z</time></trkpt><trkpt lat="38.4639384" lon="0.2675695"><ele>0.0</ele><time>2026-04-29T17:54:37.039Z</time></trkpt><trkpt lat="38.4640118" lon="0.2676333"><ele>0.0</ele><time>2026-04-29T17:54:38.039Z</time></trkpt><trkpt lat="38.4640862" lon="0.2677011"><ele>0.0</ele><time>2026-04-29T17:54:39.039Z</time></trkpt><trkpt lat="38.4641612" lon="0.2677693"><ele>0.0</ele><time>2026-04-29T17:54:40.039Z</time></trkpt><trkpt lat="38.4642334" lon="0.2678346"><ele>0.0</ele><time>2026-04-29T17:54:41.039Z</time></trkpt><trkpt lat="38.4643066" lon="0.2679024"><ele>0.0</ele><time>2026-04-29T17:54:42.039Z</time></trkpt><trkpt lat="38.4643774" lon="0.2679705"><ele>0.0</ele><time>2026-04-29T17:54:43.039Z</time></trkpt><trkpt lat="38.4644447" lon="0.2680332"><ele>0.0</ele><time>2026-04-29T17:54:44.038Z</time></trkpt><trkpt lat="38.4645183" lon="0.2680963"><ele>0.0</ele><time>2026-04-29T17:54:45.039Z</time></trkpt><trkpt lat="38.4645833" lon="0.2681684"><ele>0.0</ele><time>2026-04-29T17:54:46.039Z</time></trkpt><trkpt lat="38.4646549" lon="0.2682345"><ele>0.0</ele><time>2026-04-29T17:54:47.039Z</time></trkpt><trkpt lat="38.4647279" lon="0.2682941"><ele>0.0</ele><time>2026-04-29T17:54:48.038Z</time></trkpt><trkpt lat="38.4648029" lon="0.2683557"><ele>0.0</ele><time>2026-04-29T17:54:49.038Z</time></trkpt><trkpt lat="38.4649626" lon="0.2684668"><ele>0.0</ele><time>2026-04-29T17:54:51.038Z</time></trkpt><trkpt lat="38.4650452" lon="0.2685228"><ele>0.0</ele><time>2026-04-29T17:54:52.038Z</time></trkpt><trkpt lat="38.4651212" lon="0.2685847"><ele>0.0</ele><time>2026-04-29T17:54:53.039Z</time></trkpt><trkpt lat="38.4651993" lon="0.2686467"><ele>0.0</ele><time>2026-04-29T17:54:54.038Z</time></trkpt><trkpt lat="38.4652706" lon="0.2687083"><ele>0.0</ele><time>2026-04-29T17:54:55.038Z</time></trkpt><trkpt lat="38.4653446" lon="0.2687676"><ele>0.0</ele><time>2026-04-29T17:54:56.039Z</time></trkpt><trkpt lat="38.4654138" lon="0.2688275"><ele>0.0</ele><time>2026-04-29T17:54:57.038Z</time></trkpt><trkpt lat="38.4654894" lon="0.2688914"><ele>0.0</ele><time>2026-04-29T17:54:58.039Z</time></trkpt><trkpt lat="38.4655618" lon="0.2689549"><ele>0.0</ele><time>2026-04-29T17:54:59.039Z</time></trkpt><trkpt lat="38.465625" lon="0.2690241"><ele>0.0</ele><time>2026-04-29T17:55:00.038Z</time></trkpt><trkpt lat="38.4656869" lon="0.2690926"><ele>0.0</ele><time>2026-04-29T17:55:01.038Z</time></trkpt><trkpt lat="38.4657542" lon="0.2691581"><ele>0.0</ele><time>2026-04-29T17:55:02.038Z</time></trkpt><trkpt lat="38.4658181" lon="0.2692245"><ele>0.0</ele><time>2026-04-29T17:55:03.039Z</time></trkpt><trkpt lat="38.4658899" lon="0.2692869"><ele>0.0</ele><time>2026-04-29T17:55:04.038Z</time></trkpt><trkpt lat="38.4659574" lon="0.2693529"><ele>0.0</ele><time>2026-04-29T17:55:05.039Z</time></trkpt><trkpt lat="38.4660314" lon="0.2694224"><ele>0.0</ele><time>2026-04-29T17:55:06.039Z</time></trkpt><trkpt lat="38.4661015" lon="0.2694958"><ele>0.0</ele><time>2026-04-29T17:55:07.039Z</time></trkpt><trkpt lat="38.466173" lon="0.2695605"><ele>0.0</ele><time>2026-04-29T17:55:08.039Z</time></trkpt><trkpt lat="38.4662461" lon="0.269624"><ele>0.0</ele><time>2026-04-29T17:55:09.038Z</time></trkpt><trkpt lat="38.4663167" lon="0.2696872"><ele>0.0</ele><time>2026-04-29T17:55:10.038Z</time></trkpt><trkpt lat="38.466469" lon="0.2698147"><ele>0.0</ele><time>2026-04-29T17:55:12.038Z</time></trkpt><trkpt lat="38.46654" lon="0.2698829"><ele>0.0</ele><time>2026-04-29T17:55:13.039Z</time></trkpt><trkpt lat="38.4666119" lon="0.2699479"><ele>0.0</ele><time>2026-04-29T17:55:14.038Z</time></trkpt><trkpt lat="38.466681" lon="0.2700185"><ele>0.0</ele><time>2026-04-29T17:55:15.038Z</time></trkpt><trkpt lat="38.4667487" lon="0.2700879"><ele>0.0</ele><time>2026-04-29T17:55:16.039Z</time></trkpt><trkpt lat="38.4668157" lon="0.2701576"><ele>0.0</ele><time>2026-04-29T17:55:17.038Z</time></trkpt><trkpt lat="38.4668854" lon="0.2702263"><ele>0.0</ele><time>2026-04-29T17:55:18.039Z</time></trkpt><trkpt lat="38.4669582" lon="0.2702915"><ele>0.0</ele><time>2026-04-29T17:55:19.039Z</time></trkpt><trkpt lat="38.4670286" lon="0.2703551"><ele>0.0</ele><time>2026-04-29T17:55:20.038Z</time></trkpt><trkpt lat="38.4671057" lon="0.2704143"><ele>0.0</ele><time>2026-04-29T17:55:21.038Z</time></trkpt><trkpt lat="38.4671755" lon="0.270477"><ele>0.0</ele><time>2026-04-29T17:55:22.039Z</time></trkpt><trkpt lat="38.467251" lon="0.2705374"><ele>0.0</ele><time>2026-04-29T17:55:23.039Z</time></trkpt><trkpt lat="38.467326" lon="0.2705974"><ele>0.0</ele><time>2026-04-29T17:55:24.038Z</time></trkpt><trkpt lat="38.4673954" lon="0.2706605"><ele>0.0</ele><time>2026-04-29T17:55:25.038Z</time></trkpt><trkpt lat="38.4674666" lon="0.2707251"><ele>0.0</ele><time>2026-04-29T17:55:26.038Z</time></trkpt><trkpt lat="38.4675398" lon="0.2707885"><ele>0.0</ele><time>2026-04-29T17:55:27.039Z</time></trkpt><trkpt lat="38.4676089" lon="0.2708505"><ele>0.0</ele><time>2026-04-29T17:55:28.038Z</time></trkpt><trkpt lat="38.4676804" lon="0.2709149"><ele>0.0</ele><time>2026-04-29T17:55:29.038Z</time></trkpt><trkpt lat="38.4677516" lon="0.2709815"><ele>0.0</ele><time>2026-04-29T17:55:30.039Z</time></trkpt><trkpt lat="38.4678232" lon="0.2710468"><ele>0.0</ele><time>2026-04-29T17:55:31.038Z</time></trkpt><trkpt lat="38.4679007" lon="0.2711059"><ele>0.0</ele><time>2026-04-29T17:55:32.038Z</time></trkpt><trkpt lat="38.4680513" lon="0.2712346"><ele>0.0</ele><time>2026-04-29T17:55:34.038Z</time></trkpt><trkpt lat="38.4681276" lon="0.2712939"><ele>0.0</ele><time>2026-04-29T17:55:35.039Z</time></trkpt><trkpt lat="38.4681959" lon="0.2713623"><ele>0.0</ele><time>2026-04-29T17:55:36.038Z</time></trkpt><trkpt lat="38.4682639" lon="0.2714297"><ele>0.0</ele><time>2026-04-29T17:55:37.039Z</time></trkpt><trkpt lat="38.4683336" lon="0.2714937"><ele>0.0</ele><time>2026-04-29T17:55:38.039Z</time></trkpt><trkpt lat="38.4684037" lon="0.2715597"><ele>0.0</ele><time>2026-04-29T17:55:39.038Z</time></trkpt><trkpt lat="38.4684766" lon="0.2716249"><ele>0.0</ele><time>2026-04-29T17:55:40.039Z</time></trkpt><trkpt lat="38.468547" lon="0.2716899"><ele>0.0</ele><time>2026-04-29T17:55:41.038Z</time></trkpt><trkpt lat="38.4686183" lon="0.2717552"><ele>0.0</ele><time>2026-04-29T17:55:42.038Z</time></trkpt><trkpt lat="38.4686956" lon="0.2718244"><ele>0.0</ele><time>2026-04-29T17:55:43.039Z</time></trkpt><trkpt lat="38.4687754" lon="0.2718938"><ele>0.0</ele><time>2026-04-29T17:55:44.039Z</time></trkpt><trkpt lat="38.4688524" lon="0.2719555"><ele>0.0</ele><time>2026-04-29T17:55:45.039Z</time></trkpt><trkpt lat="38.4689194" lon="0.2720212"><ele>0.0</ele><time>2026-04-29T17:55:46.039Z</time></trkpt><trkpt lat="38.4689875" lon="0.2720893"><ele>0.0</ele><time>2026-04-29T17:55:47.039Z</time></trkpt><trkpt lat="38.4690584" lon="0.2721578"><ele>0.0</ele><time>2026-04-29T17:55:48.038Z</time></trkpt><trkpt lat="38.4691284" lon="0.2722262"><ele>0.0</ele><time>2026-04-29T17:55:49.038Z</time></trkpt><trkpt lat="38.469197" lon="0.2722976"><ele>0.0</ele><time>2026-04-29T17:55:50.038Z</time></trkpt><trkpt lat="38.4692709" lon="0.2723653"><ele>0.0</ele><time>2026-04-29T17:55:51.039Z</time></trkpt><trkpt lat="38.4693444" lon="0.2724319"><ele>0.0</ele><time>2026-04-29T17:55:52.039Z</time></trkpt><trkpt lat="38.4694165" lon="0.2724997"><ele>0.0</ele><time>2026-04-29T17:55:53.039Z</time></trkpt><trkpt lat="38.4695439" lon="0.272643"><ele>0.0</ele><time>2026-04-29T17:55:55.039Z</time></trkpt><trkpt lat="38.4696093" lon="0.2727155"><ele>0.0</ele><time>2026-04-29T17:55:56.038Z</time></trkpt><trkpt lat="38.4696788" lon="0.2727818"><ele>0.0</ele><time>2026-04-29T17:55:57.039Z</time></trkpt><trkpt lat="38.4697485" lon="0.2728433"><ele>0.0</ele><time>2026-04-29T17:55:58.039Z</time></trkpt><trkpt lat="38.4698184" lon="0.2729097"><ele>0.0</ele><time>2026-04-29T17:55:59.039Z</time></trkpt><trkpt lat="38.4698888" lon="0.2729736"><ele>0.0</ele><time>2026-04-29T17:56:00.038Z</time></trkpt><trkpt lat="38.4699617" lon="0.2730384"><ele>0.0</ele><time>2026-04-29T17:56:01.038Z</time></trkpt><trkpt lat="38.470032" lon="0.2731074"><ele>0.0</ele><time>2026-04-29T17:56:02.038Z</time></trkpt><trkpt lat="38.4701049" lon="0.273176"><ele>0.0</ele><time>2026-04-29T17:56:03.039Z</time></trkpt><trkpt lat="38.4701754" lon="0.2732486"><ele>0.0</ele><time>2026-04-29T17:56:04.038Z</time></trkpt><trkpt lat="38.4702453" lon="0.2733146"><ele>0.0</ele><time>2026-04-29T17:56:05.038Z</time></trkpt><trkpt lat="38.4703195" lon="0.273377"><ele>0.0</ele><time>2026-04-29T17:56:06.038Z</time></trkpt><trkpt lat="38.4703942" lon="0.2734418"><ele>0.0</ele><time>2026-04-29T17:56:07.039Z</time></trkpt><trkpt lat="38.4704652" lon="0.2735006"><ele>0.0</ele><time>2026-04-29T17:56:08.038Z</time></trkpt><trkpt lat="38.4705353" lon="0.2735621"><ele>0.0</ele><time>2026-04-29T17:56:09.038Z</time></trkpt><trkpt lat="38.4706055" lon="0.2736268"><ele>0.0</ele><time>2026-04-29T17:56:10.039Z</time></trkpt><trkpt lat="38.470677" lon="0.27369"><ele>0.0</ele><time>2026-04-29T17:56:11.038Z</time></trkpt><trkpt lat="38.4707497" lon="0.2737579"><ele>0.0</ele><time>2026-04-29T17:56:12.039Z</time></trkpt><trkpt lat="38.470817" lon="0.2738267"><ele>0.0</ele><time>2026-04-29T17:56:13.039Z</time></trkpt><trkpt lat="38.4708924" lon="0.2738925"><ele>0.0</ele><time>2026-04-29T17:56:14.039Z</time></trkpt><trkpt lat="38.4710361" lon="0.2740268"><ele>0.0</ele><time>2026-04-29T17:56:16.039Z</time></trkpt><trkpt lat="38.4711085" lon="0.2740946"><ele>0.0</ele><time>2026-04-29T17:56:17.037Z</time></trkpt><trkpt lat="38.4711787" lon="0.2741627"><ele>0.0</ele><time>2026-04-29T17:56:18.038Z</time></trkpt><trkpt lat="38.471252" lon="0.2742278"><ele>0.0</ele><time>2026-04-29T17:56:19.038Z</time></trkpt><trkpt lat="38.4713267" lon="0.27429"><ele>0.0</ele><time>2026-04-29T17:56:20.038Z</time></trkpt><trkpt lat="38.4714002" lon="0.2743503"><ele>0.0</ele><time>2026-04-29T17:56:21.038Z</time></trkpt><trkpt lat="38.4714762" lon="0.2744091"><ele>0.0</ele><time>2026-04-29T17:56:22.038Z</time></trkpt><trkpt lat="38.4715515" lon="0.2744687"><ele>0.0</ele><time>2026-04-29T17:56:23.038Z</time></trkpt><trkpt lat="38.4716266" lon="0.2745315"><ele>0.0</ele><time>2026-04-29T17:56:24.038Z</time></trkpt><trkpt lat="38.471696" lon="0.2745976"><ele>0.0</ele><time>2026-04-29T17:56:25.038Z</time></trkpt><trkpt lat="38.4717672" lon="0.274664"><ele>0.0</ele><time>2026-04-29T17:56:26.037Z</time></trkpt><trkpt lat="38.4718416" lon="0.2747324"><ele>0.0</ele><time>2026-04-29T17:56:27.038Z</time></trkpt><trkpt lat="38.4719153" lon="0.2747961"><ele>0.0</ele><time>2026-04-29T17:56:28.037Z</time></trkpt><trkpt lat="38.4719772" lon="0.2748698"><ele>0.0</ele><time>2026-04-29T17:56:29.038Z</time></trkpt><trkpt lat="38.4720455" lon="0.2749379"><ele>0.0</ele><time>2026-04-29T17:56:30.037Z</time></trkpt><trkpt lat="38.4721165" lon="0.2750061"><ele>0.0</ele><time>2026-04-29T17:56:31.038Z</time></trkpt><trkpt lat="38.4721884" lon="0.2750715"><ele>0.0</ele><time>2026-04-29T17:56:32.038Z</time></trkpt><trkpt lat="38.4722601" lon="0.2751352"><ele>0.0</ele><time>2026-04-29T17:56:33.038Z</time></trkpt><trkpt lat="38.472332" lon="0.2752012"><ele>0.0</ele><time>2026-04-29T17:56:34.037Z</time></trkpt><trkpt lat="38.4724035" lon="0.2752666"><ele>0.0</ele><time>2026-04-29T17:56:35.038Z</time></trkpt><trkpt lat="38.472478" lon="0.2753313"><ele>0.0</ele><time>2026-04-29T17:56:36.037Z</time></trkpt><trkpt lat="38.472627" lon="0.2754531"><ele>0.0</ele><time>2026-04-29T17:56:38.038Z</time></trkpt><trkpt lat="38.4726988" lon="0.2755118"><ele>0.0</ele><time>2026-04-29T17:56:39.038Z</time></trkpt><trkpt lat="38.4727704" lon="0.2755719"><ele>0.0</ele><time>2026-04-29T17:56:40.037Z</time></trkpt><trkpt lat="38.4728448" lon="0.275635"><ele>0.0</ele><time>2026-04-29T17:56:41.037Z</time></trkpt><trkpt lat="38.4729196" lon="0.2756996"><ele>0.0</ele><time>2026-04-29T17:56:42.038Z</time></trkpt><trkpt lat="38.472995" lon="0.2757631"><ele>0.0</ele><time>2026-04-29T17:56:43.037Z</time></trkpt><trkpt lat="38.4730666" lon="0.2758281"><ele>0.0</ele><time>2026-04-29T17:56:44.037Z</time></trkpt><trkpt lat="38.4731413" lon="0.2758947"><ele>0.0</ele><time>2026-04-29T17:56:45.037Z</time></trkpt><trkpt lat="38.4732133" lon="0.2759613"><ele>0.0</ele><time>2026-04-29T17:56:46.037Z</time></trkpt><trkpt lat="38.4732866" lon="0.2760294"><ele>0.0</ele><time>2026-04-29T17:56:47.037Z</time></trkpt><trkpt lat="38.4733529" lon="0.2760977"><ele>0.0</ele><time>2026-04-29T17:56:48.037Z</time></trkpt><trkpt lat="38.4734178" lon="0.276169"><ele>0.0</ele><time>2026-04-29T17:56:49.038Z</time></trkpt><trkpt lat="38.47349" lon="0.2762337"><ele>0.0</ele><time>2026-04-29T17:56:50.037Z</time></trkpt><trkpt lat="38.4735604" lon="0.2762998"><ele>0.0</ele><time>2026-04-29T17:56:51.037Z</time></trkpt><trkpt lat="38.473633" lon="0.2763623"><ele>0.0</ele><time>2026-04-29T17:56:52.037Z</time></trkpt><trkpt lat="38.473708" lon="0.2764251"><ele>0.0</ele><time>2026-04-29T17:56:53.037Z</time></trkpt><trkpt lat="38.4737788" lon="0.276487"><ele>0.0</ele><time>2026-04-29T17:56:54.037Z</time></trkpt><trkpt lat="38.4738461" lon="0.27655"><ele>0.0</ele><time>2026-04-29T17:56:55.038Z</time></trkpt><trkpt lat="38.4739184" lon="0.2766147"><ele>0.0</ele><time>2026-04-29T17:56:56.037Z</time></trkpt><trkpt lat="38.4739888" lon="0.2766796"><ele>0.0</ele><time>2026-04-29T17:56:57.037Z</time></trkpt><trkpt lat="38.4741321" lon="0.2768144"><ele>0.0</ele><time>2026-04-29T17:56:59.037Z</time></trkpt><trkpt lat="38.4742035" lon="0.2768823"><ele>0.0</ele><time>2026-04-29T17:57:00.037Z</time></trkpt><trkpt lat="38.4742765" lon="0.2769495"><ele>0.0</ele><time>2026-04-29T17:57:01.037Z</time></trkpt><trkpt lat="38.474347" lon="0.2770148"><ele>0.0</ele><time>2026-04-29T17:57:02.037Z</time></trkpt><trkpt lat="38.47442" lon="0.2770782"><ele>0.0</ele><time>2026-04-29T17:57:03.038Z</time></trkpt><trkpt lat="38.474489" lon="0.2771419"><ele>0.0</ele><time>2026-04-29T17:57:04.038Z</time></trkpt><trkpt lat="38.47456" lon="0.2772036"><ele>0.0</ele><time>2026-04-29T17:57:05.037Z</time></trkpt><trkpt lat="38.4746318" lon="0.2772712"><ele>0.0</ele><time>2026-04-29T17:57:06.038Z</time></trkpt><trkpt lat="38.4747004" lon="0.2773367"><ele>0.0</ele><time>2026-04-29T17:57:07.037Z</time></trkpt><trkpt lat="38.4747759" lon="0.2774019"><ele>0.0</ele><time>2026-04-29T17:57:08.038Z</time></trkpt><trkpt lat="38.4748482" lon="0.277468"><ele>0.0</ele><time>2026-04-29T17:57:09.037Z</time></trkpt><trkpt lat="38.4749185" lon="0.2775387"><ele>0.0</ele><time>2026-04-29T17:57:10.038Z</time></trkpt><trkpt lat="38.4749885" lon="0.2776102"><ele>0.0</ele><time>2026-04-29T17:57:11.037Z</time></trkpt><trkpt lat="38.4750587" lon="0.2776835"><ele>0.0</ele><time>2026-04-29T17:57:12.038Z</time></trkpt><trkpt lat="38.4751341" lon="0.277754"><ele>0.0</ele><time>2026-04-29T17:57:13.037Z</time></trkpt><trkpt lat="38.4752066" lon="0.277817"><ele>0.0</ele><time>2026-04-29T17:57:14.038Z</time></trkpt><trkpt lat="38.4752756" lon="0.2778872"><ele>0.0</ele><time>2026-04-29T17:57:15.037Z</time></trkpt><trkpt lat="38.4753511" lon="0.2779545"><ele>0.0</ele><time>2026-04-29T17:57:16.037Z</time></trkpt><trkpt lat="38.4754276" lon="0.2780203"><ele>0.0</ele><time>2026-04-29T17:57:17.037Z</time></trkpt><trkpt lat="38.4755" lon="0.2780854"><ele>0.0</ele><time>2026-04-29T17:57:18.037Z</time></trkpt><trkpt lat="38.4756462" lon="0.2782122"><ele>0.0</ele><time>2026-04-29T17:57:20.037Z</time></trkpt><trkpt lat="38.4757155" lon="0.2782795"><ele>0.0</ele><time>2026-04-29T17:57:21.037Z</time></trkpt><trkpt lat="38.475784" lon="0.2783463"><ele>0.0</ele><time>2026-04-29T17:57:22.037Z</time></trkpt><trkpt lat="38.4758508" lon="0.2784114"><ele>0.0</ele><time>2026-04-29T17:57:23.037Z</time></trkpt><trkpt lat="38.4759231" lon="0.2784723"><ele>0.0</ele><time>2026-04-29T17:57:24.038Z</time></trkpt><trkpt lat="38.4759933" lon="0.2785382"><ele>0.0</ele><time>2026-04-29T17:57:25.037Z</time></trkpt><trkpt lat="38.4760622" lon="0.2786031"><ele>0.0</ele><time>2026-04-29T17:57:26.037Z</time></trkpt><trkpt lat="38.4761319" lon="0.278668"><ele>0.0</ele><time>2026-04-29T17:57:27.037Z</time></trkpt><trkpt lat="38.4762049" lon="0.2787343"><ele>0.0</ele><time>2026-04-29T17:57:28.037Z</time></trkpt><trkpt lat="38.4762796" lon="0.2788041"><ele>0.0</ele><time>2026-04-29T17:57:29.038Z</time></trkpt><trkpt lat="38.4763588" lon="0.2788684"><ele>0.0</ele><time>2026-04-29T17:57:30.037Z</time></trkpt><trkpt lat="38.4764358" lon="0.2789358"><ele>0.0</ele><time>2026-04-29T17:57:31.038Z</time></trkpt><trkpt lat="38.4765111" lon="0.2790015"><ele>0.0</ele><time>2026-04-29T17:57:32.038Z</time></trkpt><trkpt lat="38.4765849" lon="0.2790664"><ele>0.0</ele><time>2026-04-29T17:57:33.037Z</time></trkpt><trkpt lat="38.476654" lon="0.2791302"><ele>0.0</ele><time>2026-04-29T17:57:34.038Z</time></trkpt><trkpt lat="38.4767235" lon="0.2791951"><ele>0.0</ele><time>2026-04-29T17:57:35.037Z</time></trkpt><trkpt lat="38.4767892" lon="0.279253"><ele>0.0</ele><time>2026-04-29T17:57:36.037Z</time></trkpt><trkpt lat="38.4768603" lon="0.2793095"><ele>0.0</ele><time>2026-04-29T17:57:37.038Z</time></trkpt><trkpt lat="38.4769307" lon="0.2793744"><ele>0.0</ele><time>2026-04-29T17:57:38.038Z</time></trkpt><trkpt lat="38.4769992" lon="0.2794424"><ele>0.0</ele><time>2026-04-29T17:57:39.038Z</time></trkpt><trkpt lat="38.4771369" lon="0.2795767"><ele>0.0</ele><time>2026-04-29T17:57:41.037Z</time></trkpt><trkpt lat="38.4772071" lon="0.2796441"><ele>0.0</ele><time>2026-04-29T17:57:42.038Z</time></trkpt><trkpt lat="38.4772827" lon="0.2797095"><ele>0.0</ele><time>2026-04-29T17:57:43.038Z</time></trkpt><trkpt lat="38.4773549" lon="0.2797734"><ele>0.0</ele><time>2026-04-29T17:57:44.037Z</time></trkpt><trkpt lat="38.4774237" lon="0.2798399"><ele>0.0</ele><time>2026-04-29T17:57:45.038Z</time></trkpt><trkpt lat="38.4774933" lon="0.2799095"><ele>0.0</ele><time>2026-04-29T17:57:46.038Z</time></trkpt><trkpt lat="38.4775636" lon="0.279978"><ele>0.0</ele><time>2026-04-29T17:57:47.037Z</time></trkpt><trkpt lat="38.4776351" lon="0.280046"><ele>0.0</ele><time>2026-04-29T17:57:48.038Z</time></trkpt><trkpt lat="38.4777065" lon="0.2801116"><ele>0.0</ele><time>2026-04-29T17:57:49.037Z</time></trkpt><trkpt lat="38.4777742" lon="0.2801753"><ele>0.0</ele><time>2026-04-29T17:57:50.038Z</time></trkpt><trkpt lat="38.4778437" lon="0.2802375"><ele>0.0</ele><time>2026-04-29T17:57:51.038Z</time></trkpt><trkpt lat="38.4779179" lon="0.2803018"><ele>0.0</ele><time>2026-04-29T17:57:52.038Z</time></trkpt><trkpt lat="38.4779913" lon="0.2803682"><ele>0.0</ele><time>2026-04-29T17:57:53.038Z</time></trkpt><trkpt lat="38.4780603" lon="0.2804334"><ele>0.0</ele><time>2026-04-29T17:57:54.038Z</time></trkpt><trkpt lat="38.4781316" lon="0.2804998"><ele>0.0</ele><time>2026-04-29T17:57:55.037Z</time></trkpt><trkpt lat="38.4782018" lon="0.2805662"><ele>0.0</ele><time>2026-04-29T17:57:56.038Z</time></trkpt><trkpt lat="38.4782775" lon="0.2806342"><ele>0.0</ele><time>2026-04-29T17:57:57.037Z</time></trkpt><trkpt lat="38.4783529" lon="0.2806981"><ele>0.0</ele><time>2026-04-29T17:57:58.037Z</time></trkpt><trkpt lat="38.478425" lon="0.2807615"><ele>0.0</ele><time>2026-04-29T17:57:59.038Z</time></trkpt><trkpt lat="38.4784965" lon="0.2808253"><ele>0.0</ele><time>2026-04-29T17:58:00.038Z</time></trkpt><trkpt lat="38.4785698" lon="0.2808882"><ele>0.0</ele><time>2026-04-29T17:58:01.037Z</time></trkpt><trkpt lat="38.4787138" lon="0.2810106"><ele>0.0</ele><time>2026-04-29T17:58:03.037Z</time></trkpt><trkpt lat="38.4787839" lon="0.2810717"><ele>0.0</ele><time>2026-04-29T17:58:04.037Z</time></trkpt><trkpt lat="38.4788553" lon="0.2811335"><ele>0.0</ele><time>2026-04-29T17:58:05.038Z</time></trkpt><trkpt lat="38.4789266" lon="0.2811988"><ele>0.0</ele><time>2026-04-29T17:58:06.037Z</time></trkpt><trkpt lat="38.4789955" lon="0.2812608"><ele>0.0</ele><time>2026-04-29T17:58:07.038Z</time></trkpt><trkpt lat="38.4790666" lon="0.2813252"><ele>0.0</ele><time>2026-04-29T17:58:08.037Z</time></trkpt><trkpt lat="38.4791398" lon="0.2813882"><ele>0.0</ele><time>2026-04-29T17:58:09.038Z</time></trkpt><trkpt lat="38.4792144" lon="0.2814531"><ele>0.0</ele><time>2026-04-29T17:58:10.038Z</time></trkpt><trkpt lat="38.4792869" lon="0.2815184"><ele>0.0</ele><time>2026-04-29T17:58:11.037Z</time></trkpt><trkpt lat="38.479357" lon="0.2815804"><ele>0.0</ele><time>2026-04-29T17:58:12.037Z</time></trkpt><trkpt lat="38.4794315" lon="0.2816434"><ele>0.0</ele><time>2026-04-29T17:58:13.037Z</time></trkpt><trkpt lat="38.4795022" lon="0.2817052"><ele>0.0</ele><time>2026-04-29T17:58:14.037Z</time></trkpt><trkpt lat="38.479575" lon="0.2817669"><ele>0.0</ele><time>2026-04-29T17:58:15.037Z</time></trkpt><trkpt lat="38.4796468" lon="0.2818313"><ele>0.0</ele><time>2026-04-29T17:58:16.038Z</time></trkpt><trkpt lat="38.4797202" lon="0.2818947"><ele>0.0</ele><time>2026-04-29T17:58:17.037Z</time></trkpt><trkpt lat="38.4797918" lon="0.2819599"><ele>0.0</ele><time>2026-04-29T17:58:18.037Z</time></trkpt><trkpt lat="38.4798623" lon="0.282022"><ele>0.0</ele><time>2026-04-29T17:58:19.037Z</time></trkpt><trkpt lat="38.4799377" lon="0.2820863"><ele>0.0</ele><time>2026-04-29T17:58:20.037Z</time></trkpt><trkpt lat="38.4800116" lon="0.2821513"><ele>0.0</ele><time>2026-04-29T17:58:21.038Z</time></trkpt><trkpt lat="38.4800838" lon="0.2822087"><ele>0.0</ele><time>2026-04-29T17:58:22.038Z</time></trkpt><trkpt lat="38.4802352" lon="0.2823314"><ele>0.0</ele><time>2026-04-29T17:58:24.038Z</time></trkpt><trkpt lat="38.4803071" lon="0.2823919"><ele>0.0</ele><time>2026-04-29T17:58:25.038Z</time></trkpt><trkpt lat="38.4803802" lon="0.2824519"><ele>0.0</ele><time>2026-04-29T17:58:26.037Z</time></trkpt><trkpt lat="38.4804534" lon="0.2825133"><ele>0.0</ele><time>2026-04-29T17:58:27.038Z</time></trkpt><trkpt lat="38.4805296" lon="0.2825732"><ele>0.0</ele><time>2026-04-29T17:58:28.038Z</time></trkpt><trkpt lat="38.4806034" lon="0.2826332"><ele>0.0</ele><time>2026-04-29T17:58:29.037Z</time></trkpt><trkpt lat="38.4806767" lon="0.2826948"><ele>0.0</ele><time>2026-04-29T17:58:30.037Z</time></trkpt><trkpt lat="38.4807517" lon="0.2827564"><ele>0.0</ele><time>2026-04-29T17:58:31.038Z</time></trkpt><trkpt lat="38.4808222" lon="0.2828178"><ele>0.0</ele><time>2026-04-29T17:58:32.038Z</time></trkpt><trkpt lat="38.4808923" lon="0.2828812"><ele>0.0</ele><time>2026-04-29T17:58:33.037Z</time></trkpt><trkpt lat="38.4809663" lon="0.2829443"><ele>0.0</ele><time>2026-04-29T17:58:34.037Z</time></trkpt><trkpt lat="38.4810383" lon="0.2830095"><ele>0.0</ele><time>2026-04-29T17:58:35.037Z</time></trkpt><trkpt lat="38.4811102" lon="0.2830731"><ele>0.0</ele><time>2026-04-29T17:58:36.038Z</time></trkpt><trkpt lat="38.4811819" lon="0.2831393"><ele>0.0</ele><time>2026-04-29T17:58:37.038Z</time></trkpt><trkpt lat="38.4812508" lon="0.2832085"><ele>0.0</ele><time>2026-04-29T17:58:38.037Z</time></trkpt><trkpt lat="38.4813249" lon="0.2832699"><ele>0.0</ele><time>2026-04-29T17:58:39.038Z</time></trkpt><trkpt lat="38.4813985" lon="0.2833299"><ele>0.0</ele><time>2026-04-29T17:58:40.038Z</time></trkpt><trkpt lat="38.4814687" lon="0.2833876"><ele>0.0</ele><time>2026-04-29T17:58:41.038Z</time></trkpt><trkpt lat="38.48154" lon="0.2834484"><ele>0.0</ele><time>2026-04-29T17:58:42.038Z</time></trkpt><trkpt lat="38.4816119" lon="0.283513"><ele>0.0</ele><time>2026-04-29T17:58:43.038Z</time></trkpt><trkpt lat="38.4817552" lon="0.2836365"><ele>0.0</ele><time>2026-04-29T17:58:45.037Z</time></trkpt><trkpt lat="38.4818297" lon="0.2836971"><ele>0.0</ele><time>2026-04-29T17:58:46.038Z</time></trkpt><trkpt lat="38.4819064" lon="0.2837581"><ele>0.0</ele><time>2026-04-29T17:58:47.037Z</time></trkpt><trkpt lat="38.4819814" lon="0.283823"><ele>0.0</ele><time>2026-04-29T17:58:48.037Z</time></trkpt><trkpt lat="38.4820549" lon="0.2838852"><ele>0.0</ele><time>2026-04-29T17:58:49.038Z</time></trkpt><trkpt lat="38.4821283" lon="0.2839466"><ele>0.0</ele><time>2026-04-29T17:58:50.037Z</time></trkpt><trkpt lat="38.4822003" lon="0.28401"><ele>0.0</ele><time>2026-04-29T17:58:51.038Z</time></trkpt><trkpt lat="38.4822732" lon="0.2840735"><ele>0.0</ele><time>2026-04-29T17:58:52.037Z</time></trkpt><trkpt lat="38.4823478" lon="0.2841396"><ele>0.0</ele><time>2026-04-29T17:58:53.038Z</time></trkpt><trkpt lat="38.482423" lon="0.2842029"><ele>0.0</ele><time>2026-04-29T17:58:54.037Z</time></trkpt><trkpt lat="38.4824953" lon="0.2842688"><ele>0.0</ele><time>2026-04-29T17:58:55.037Z</time></trkpt><trkpt lat="38.4825643" lon="0.2843358"><ele>0.0</ele><time>2026-04-29T17:58:56.037Z</time></trkpt><trkpt lat="38.4826337" lon="0.2844014"><ele>0.0</ele><time>2026-04-29T17:58:57.038Z</time></trkpt><trkpt lat="38.4827066" lon="0.284462"><ele>0.0</ele><time>2026-04-29T17:58:58.038Z</time></trkpt><trkpt lat="38.4827787" lon="0.284523"><ele>0.0</ele><time>2026-04-29T17:58:59.038Z</time></trkpt><trkpt lat="38.4828502" lon="0.2845865"><ele>0.0</ele><time>2026-04-29T17:59:00.038Z</time></trkpt><trkpt lat="38.482922" lon="0.2846481"><ele>0.0</ele><time>2026-04-29T17:59:01.037Z</time></trkpt><trkpt lat="38.482999" lon="0.2847072"><ele>0.0</ele><time>2026-04-29T17:59:02.037Z</time></trkpt><trkpt lat="38.4830756" lon="0.284769"><ele>0.0</ele><time>2026-04-29T17:59:03.037Z</time></trkpt><trkpt lat="38.4831511" lon="0.284833"><ele>0.0</ele><time>2026-04-29T17:59:04.037Z</time></trkpt><trkpt lat="38.483302" lon="0.2849626"><ele>0.0</ele><time>2026-04-29T17:59:06.037Z</time></trkpt><trkpt lat="38.4833701" lon="0.2850277"><ele>0.0</ele><time>2026-04-29T17:59:07.037Z</time></trkpt><trkpt lat="38.483443" lon="0.2850917"><ele>0.0</ele><time>2026-04-29T17:59:08.037Z</time></trkpt><trkpt lat="38.4835235" lon="0.2851506"><ele>0.0</ele><time>2026-04-29T17:59:09.037Z</time></trkpt><trkpt lat="38.4835994" lon="0.2852175"><ele>0.0</ele><time>2026-04-29T17:59:10.037Z</time></trkpt><trkpt lat="38.4836733" lon="0.2852855"><ele>0.0</ele><time>2026-04-29T17:59:11.038Z</time></trkpt><trkpt lat="38.483744" lon="0.2853481"><ele>0.0</ele><time>2026-04-29T17:59:12.038Z</time></trkpt><trkpt lat="38.4838114" lon="0.2854082"><ele>0.0</ele><time>2026-04-29T17:59:13.037Z</time></trkpt><trkpt lat="38.4838864" lon="0.2854709"><ele>0.0</ele><time>2026-04-29T17:59:14.037Z</time></trkpt><trkpt lat="38.4839603" lon="0.2855329"><ele>0.0</ele><time>2026-04-29T17:59:15.038Z</time></trkpt><trkpt lat="38.4840351" lon="0.2855947"><ele>0.0</ele><time>2026-04-29T17:59:16.038Z</time></trkpt><trkpt lat="38.4841097" lon="0.2856578"><ele>0.0</ele><time>2026-04-29T17:59:17.038Z</time></trkpt><trkpt lat="38.4841849" lon="0.2857196"><ele>0.0</ele><time>2026-04-29T17:59:18.038Z</time></trkpt><trkpt lat="38.48426" lon="0.2857827"><ele>0.0</ele><time>2026-04-29T17:59:19.037Z</time></trkpt><trkpt lat="38.4843321" lon="0.2858449"><ele>0.0</ele><time>2026-04-29T17:59:20.037Z</time></trkpt><trkpt lat="38.4844036" lon="0.2859068"><ele>0.0</ele><time>2026-04-29T17:59:21.037Z</time></trkpt><trkpt lat="38.4844754" lon="0.2859683"><ele>0.0</ele><time>2026-04-29T17:59:22.037Z</time></trkpt><trkpt lat="38.4845469" lon="0.286033"><ele>0.0</ele><time>2026-04-29T17:59:23.038Z</time></trkpt><trkpt lat="38.4846154" lon="0.2860987"><ele>0.0</ele><time>2026-04-29T17:59:24.038Z</time></trkpt><trkpt lat="38.4846837" lon="0.2861652"><ele>0.0</ele><time>2026-04-29T17:59:25.037Z</time></trkpt><trkpt lat="38.48482" lon="0.2862984"><ele>0.0</ele><time>2026-04-29T17:59:27.038Z</time></trkpt><trkpt lat="38.4848927" lon="0.2863678"><ele>0.0</ele><time>2026-04-29T17:59:28.037Z</time></trkpt><trkpt lat="38.484969" lon="0.2864319"><ele>0.0</ele><time>2026-04-29T17:59:29.038Z</time></trkpt><trkpt lat="38.4850431" lon="0.2864992"><ele>0.0</ele><time>2026-04-29T17:59:30.038Z</time></trkpt><trkpt lat="38.4851192" lon="0.2865602"><ele>0.0</ele><time>2026-04-29T17:59:31.038Z</time></trkpt><trkpt lat="38.4851919" lon="0.2866244"><ele>0.0</ele><time>2026-04-29T17:59:32.037Z</time></trkpt><trkpt lat="38.4852606" lon="0.2866923"><ele>0.0</ele><time>2026-04-29T17:59:33.038Z</time></trkpt><trkpt lat="38.4853305" lon="0.2867564"><ele>0.0</ele><time>2026-04-29T17:59:34.037Z</time></trkpt><trkpt lat="38.4853961" lon="0.2868215"><ele>0.0</ele><time>2026-04-29T17:59:35.037Z</time></trkpt><trkpt lat="38.4854657" lon="0.2868846"><ele>0.0</ele><time>2026-04-29T17:59:36.037Z</time></trkpt><trkpt lat="38.4855385" lon="0.2869536"><ele>0.0</ele><time>2026-04-29T17:59:37.037Z</time></trkpt><trkpt lat="38.4856119" lon="0.2870192"><ele>0.0</ele><time>2026-04-29T17:59:38.038Z</time></trkpt><trkpt lat="38.485678" lon="0.287087"><ele>0.0</ele><time>2026-04-29T17:59:39.037Z</time></trkpt><trkpt lat="38.4857475" lon="0.2871511"><ele>0.0</ele><time>2026-04-29T17:59:40.038Z</time></trkpt><trkpt lat="38.485823" lon="0.2872146"><ele>0.0</ele><time>2026-04-29T17:59:41.038Z</time></trkpt><trkpt lat="38.4858979" lon="0.287275"><ele>0.0</ele><time>2026-04-29T17:59:42.037Z</time></trkpt><trkpt lat="38.4859717" lon="0.2873352"><ele>0.0</ele><time>2026-04-29T17:59:43.038Z</time></trkpt><trkpt lat="38.4860405" lon="0.2874002"><ele>0.0</ele><time>2026-04-29T17:59:44.038Z</time></trkpt><trkpt lat="38.4861101" lon="0.2874655"><ele>0.0</ele><time>2026-04-29T17:59:45.038Z</time></trkpt><trkpt lat="38.4861843" lon="0.2875333"><ele>0.0</ele><time>2026-04-29T17:59:46.038Z</time></trkpt><trkpt lat="38.4863256" lon="0.2876654"><ele>0.0</ele><time>2026-04-29T17:59:48.037Z</time></trkpt><trkpt lat="38.4863954" lon="0.2877318"><ele>0.0</ele><time>2026-04-29T17:59:49.038Z</time></trkpt><trkpt lat="38.4864697" lon="0.2877967"><ele>0.0</ele><time>2026-04-29T17:59:50.038Z</time></trkpt><trkpt lat="38.4865418" lon="0.2878617"><ele>0.0</ele><time>2026-04-29T17:59:51.038Z</time></trkpt><trkpt lat="38.4866132" lon="0.2879184"><ele>0.0</ele><time>2026-04-29T17:59:52.038Z</time></trkpt><trkpt lat="38.4866892" lon="0.2879748"><ele>0.0</ele><time>2026-04-29T17:59:53.037Z</time></trkpt><trkpt lat="38.4867698" lon="0.2880344"><ele>0.0</ele><time>2026-04-29T17:59:54.037Z</time></trkpt><trkpt lat="38.4868432" lon="0.2880915"><ele>0.0</ele><time>2026-04-29T17:59:55.037Z</time></trkpt><trkpt lat="38.4869094" lon="0.2881569"><ele>0.0</ele><time>2026-04-29T17:59:56.037Z</time></trkpt><trkpt lat="38.4869801" lon="0.2882187"><ele>0.0</ele><time>2026-04-29T17:59:57.038Z</time></trkpt><trkpt lat="38.4870505" lon="0.2882817"><ele>0.0</ele><time>2026-04-29T17:59:58.037Z</time></trkpt><trkpt lat="38.487122" lon="0.2883446"><ele>0.0</ele><time>2026-04-29T17:59:59.037Z</time></trkpt><trkpt lat="38.4871934" lon="0.2884098"><ele>0.0</ele><time>2026-04-29T18:00:00.037Z</time></trkpt><trkpt lat="38.4872654" lon="0.2884744"><ele>0.0</ele><time>2026-04-29T18:00:01.038Z</time></trkpt><trkpt lat="38.4873355" lon="0.2885368"><ele>0.0</ele><time>2026-04-29T18:00:02.037Z</time></trkpt><trkpt lat="38.4874071" lon="0.2885983"><ele>0.0</ele><time>2026-04-29T18:00:03.038Z</time></trkpt><trkpt lat="38.4874786" lon="0.288663"><ele>0.0</ele><time>2026-04-29T18:00:04.037Z</time></trkpt><trkpt lat="38.48755" lon="0.2887299"><ele>0.0</ele><time>2026-04-29T18:00:05.037Z</time></trkpt><trkpt lat="38.4876247" lon="0.2887946"><ele>0.0</ele><time>2026-04-29T18:00:06.038Z</time></trkpt><trkpt lat="38.4876998" lon="0.2888608"><ele>0.0</ele><time>2026-04-29T18:00:07.037Z</time></trkpt><trkpt lat="38.4878467" lon="0.289001"><ele>0.0</ele><time>2026-04-29T18:00:09.038Z</time></trkpt><trkpt lat="38.4879233" lon="0.2890646"><ele>0.0</ele><time>2026-04-29T18:00:10.038Z</time></trkpt><trkpt lat="38.4879981" lon="0.2891324"><ele>0.0</ele><time>2026-04-29T18:00:11.037Z</time></trkpt><trkpt lat="38.4880704" lon="0.2891918"><ele>0.0</ele><time>2026-04-29T18:00:12.037Z</time></trkpt><trkpt lat="38.488142" lon="0.2892532"><ele>0.0</ele><time>2026-04-29T18:00:13.037Z</time></trkpt><trkpt lat="38.4882135" lon="0.2893179"><ele>0.0</ele><time>2026-04-29T18:00:14.037Z</time></trkpt><trkpt lat="38.4882838" lon="0.2893816"><ele>0.0</ele><time>2026-04-29T18:00:15.038Z</time></trkpt><trkpt lat="38.4883538" lon="0.2894452"><ele>0.0</ele><time>2026-04-29T18:00:16.037Z</time></trkpt><trkpt lat="38.4884282" lon="0.2895095"><ele>0.0</ele><time>2026-04-29T18:00:17.037Z</time></trkpt><trkpt lat="38.4885033" lon="0.289573"><ele>0.0</ele><time>2026-04-29T18:00:18.037Z</time></trkpt><trkpt lat="38.4885684" lon="0.2896374"><ele>0.0</ele><time>2026-04-29T18:00:19.037Z</time></trkpt><trkpt lat="38.4886431" lon="0.2897025"><ele>0.0</ele><time>2026-04-29T18:00:20.037Z</time></trkpt><trkpt lat="38.4887181" lon="0.2897662"><ele>0.0</ele><time>2026-04-29T18:00:21.037Z</time></trkpt><trkpt lat="38.4887946" lon="0.2898279"><ele>0.0</ele><time>2026-04-29T18:00:22.037Z</time></trkpt><trkpt lat="38.4888729" lon="0.2898909"><ele>0.0</ele><time>2026-04-29T18:00:23.037Z</time></trkpt><trkpt lat="38.4889399" lon="0.2899587"><ele>0.0</ele><time>2026-04-29T18:00:24.037Z</time></trkpt><trkpt lat="38.4890134" lon="0.2900176"><ele>0.0</ele><time>2026-04-29T18:00:25.037Z</time></trkpt><trkpt lat="38.4890884" lon="0.2900797"><ele>0.0</ele><time>2026-04-29T18:00:26.038Z</time></trkpt><trkpt lat="38.4891591" lon="0.2901414"><ele>0.0</ele><time>2026-04-29T18:00:27.038Z</time></trkpt><trkpt lat="38.4892263" lon="0.2902071"><ele>0.0</ele><time>2026-04-29T18:00:28.037Z</time></trkpt><trkpt lat="38.489364" lon="0.2903372"><ele>0.0</ele><time>2026-04-29T18:00:30.037Z</time></trkpt><trkpt lat="38.4894338" lon="0.2904027"><ele>0.0</ele><time>2026-04-29T18:00:31.038Z</time></trkpt><trkpt lat="38.4895077" lon="0.2904669"><ele>0.0</ele><time>2026-04-29T18:00:32.037Z</time></trkpt><trkpt lat="38.4895854" lon="0.2905262"><ele>0.0</ele><time>2026-04-29T18:00:33.037Z</time></trkpt><trkpt lat="38.4896595" lon="0.2905816"><ele>0.0</ele><time>2026-04-29T18:00:34.038Z</time></trkpt><trkpt lat="38.4897386" lon="0.2906398"><ele>0.0</ele><time>2026-04-29T18:00:35.038Z</time></trkpt><trkpt lat="38.4898157" lon="0.2907037"><ele>0.0</ele><time>2026-04-29T18:00:36.038Z</time></trkpt><trkpt lat="38.4898854" lon="0.2907682"><ele>0.0</ele><time>2026-04-29T18:00:37.038Z</time></trkpt><trkpt lat="38.4899596" lon="0.2908244"><ele>0.0</ele><time>2026-04-29T18:00:38.038Z</time></trkpt><trkpt lat="38.490032" lon="0.2908851"><ele>0.0</ele><time>2026-04-29T18:00:39.038Z</time></trkpt><trkpt lat="38.490105" lon="0.2909512"><ele>0.0</ele><time>2026-04-29T18:00:40.037Z</time></trkpt><trkpt lat="38.4901823" lon="0.2910108"><ele>0.0</ele><time>2026-04-29T18:00:41.038Z</time></trkpt><trkpt lat="38.4902563" lon="0.291075"><ele>0.0</ele><time>2026-04-29T18:00:42.037Z</time></trkpt><trkpt lat="38.4903297" lon="0.2911371"><ele>0.0</ele><time>2026-04-29T18:00:43.038Z</time></trkpt><trkpt lat="38.4903935" lon="0.2912028"><ele>0.0</ele><time>2026-04-29T18:00:44.038Z</time></trkpt><trkpt lat="38.4904655" lon="0.2912649"><ele>0.0</ele><time>2026-04-29T18:00:45.038Z</time></trkpt><trkpt lat="38.4905388" lon="0.2913248"><ele>0.0</ele><time>2026-04-29T18:00:46.037Z</time></trkpt><trkpt lat="38.4906118" lon="0.2913879"><ele>0.0</ele><time>2026-04-29T18:00:47.038Z</time></trkpt><trkpt lat="38.4906857" lon="0.2914535"><ele>0.0</ele><time>2026-04-29T18:00:48.038Z</time></trkpt><trkpt lat="38.4907556" lon="0.2915236"><ele>0.0</ele><time>2026-04-29T18:00:49.038Z</time></trkpt><trkpt lat="38.4908919" lon="0.2916613"><ele>0.0</ele><time>2026-04-29T18:00:51.037Z</time></trkpt><trkpt lat="38.4909679" lon="0.2917218"><ele>0.0</ele><time>2026-04-29T18:00:52.036Z</time></trkpt><trkpt lat="38.4910471" lon="0.2917835"><ele>0.0</ele><time>2026-04-29T18:00:53.037Z</time></trkpt><trkpt lat="38.4911214" lon="0.291848"><ele>0.0</ele><time>2026-04-29T18:00:54.036Z</time></trkpt><trkpt lat="38.4911935" lon="0.2919101"><ele>0.0</ele><time>2026-04-29T18:00:55.036Z</time></trkpt><trkpt lat="38.4912638" lon="0.2919723"><ele>0.0</ele><time>2026-04-29T18:00:56.037Z</time></trkpt><trkpt lat="38.4913323" lon="0.2920356"><ele>0.0</ele><time>2026-04-29T18:00:57.037Z</time></trkpt><trkpt lat="38.491402" lon="0.2920985"><ele>0.0</ele><time>2026-04-29T18:00:58.036Z</time></trkpt><trkpt lat="38.4914719" lon="0.2921649"><ele>0.0</ele><time>2026-04-29T18:00:59.036Z</time></trkpt><trkpt lat="38.4915469" lon="0.2922251"><ele>0.0</ele><time>2026-04-29T18:01:00.036Z</time></trkpt><trkpt lat="38.4916219" lon="0.2922833"><ele>0.0</ele><time>2026-04-29T18:01:01.037Z</time></trkpt><trkpt lat="38.4916982" lon="0.2923431"><ele>0.0</ele><time>2026-04-29T18:01:02.037Z</time></trkpt><trkpt lat="38.4917733" lon="0.2924047"><ele>0.0</ele><time>2026-04-29T18:01:03.036Z</time></trkpt><trkpt lat="38.4918483" lon="0.2924681"><ele>0.0</ele><time>2026-04-29T18:01:04.037Z</time></trkpt><trkpt lat="38.4919232" lon="0.2925328"><ele>0.0</ele><time>2026-04-29T18:01:05.036Z</time></trkpt><trkpt lat="38.4919983" lon="0.2925964"><ele>0.0</ele><time>2026-04-29T18:01:06.037Z</time></trkpt><trkpt lat="38.492072" lon="0.292658"><ele>0.0</ele><time>2026-04-29T18:01:07.036Z</time></trkpt><trkpt lat="38.4921465" lon="0.2927216"><ele>0.0</ele><time>2026-04-29T18:01:08.036Z</time></trkpt><trkpt lat="38.4922201" lon="0.2927848"><ele>0.0</ele><time>2026-04-29T18:01:09.036Z</time></trkpt><trkpt lat="38.4922904" lon="0.2928514"><ele>0.0</ele><time>2026-04-29T18:01:10.037Z</time></trkpt><trkpt lat="38.492429" lon="0.2929804"><ele>0.0</ele><time>2026-04-29T18:01:12.036Z</time></trkpt><trkpt lat="38.4924992" lon="0.2930419"><ele>0.0</ele><time>2026-04-29T18:01:13.036Z</time></trkpt><trkpt lat="38.4925687" lon="0.2931037"><ele>0.0</ele><time>2026-04-29T18:01:14.036Z</time></trkpt><trkpt lat="38.4926404" lon="0.2931693"><ele>0.0</ele><time>2026-04-29T18:01:15.036Z</time></trkpt><trkpt lat="38.4927131" lon="0.2932333"><ele>0.0</ele><time>2026-04-29T18:01:16.037Z</time></trkpt><trkpt lat="38.4927952" lon="0.2932926"><ele>0.0</ele><time>2026-04-29T18:01:17.037Z</time></trkpt><trkpt lat="38.4928742" lon="0.2933479"><ele>0.0</ele><time>2026-04-29T18:01:18.037Z</time></trkpt><trkpt lat="38.4929498" lon="0.2934099"><ele>0.0</ele><time>2026-04-29T18:01:19.036Z</time></trkpt><trkpt lat="38.493022" lon="0.293472"><ele>0.0</ele><time>2026-04-29T18:01:20.037Z</time></trkpt><trkpt lat="38.4930937" lon="0.2935316"><ele>0.0</ele><time>2026-04-29T18:01:21.036Z</time></trkpt><trkpt lat="38.4931665" lon="0.2935978"><ele>0.0</ele><time>2026-04-29T18:01:22.036Z</time></trkpt><trkpt lat="38.4932385" lon="0.2936616"><ele>0.0</ele><time>2026-04-29T18:01:23.036Z</time></trkpt><trkpt lat="38.4933103" lon="0.2937228"><ele>0.0</ele><time>2026-04-29T18:01:24.036Z</time></trkpt><trkpt lat="38.4933851" lon="0.2937816"><ele>0.0</ele><time>2026-04-29T18:01:25.036Z</time></trkpt><trkpt lat="38.4934571" lon="0.2938429"><ele>0.0</ele><time>2026-04-29T18:01:26.036Z</time></trkpt><trkpt lat="38.4935287" lon="0.2939031"><ele>0.0</ele><time>2026-04-29T18:01:27.037Z</time></trkpt><trkpt lat="38.4936004" lon="0.2939645"><ele>0.0</ele><time>2026-04-29T18:01:28.037Z</time></trkpt><trkpt lat="38.4936721" lon="0.2940318"><ele>0.0</ele><time>2026-04-29T18:01:29.037Z</time></trkpt><trkpt lat="38.4937434" lon="0.2940979"><ele>0.0</ele><time>2026-04-29T18:01:30.036Z</time></trkpt><trkpt lat="38.4938164" lon="0.2941631"><ele>0.0</ele><time>2026-04-29T18:01:31.036Z</time></trkpt><trkpt lat="38.4939585" lon="0.2942931"><ele>0.0</ele><time>2026-04-29T18:01:33.036Z</time></trkpt><trkpt lat="38.4940299" lon="0.2943595"><ele>0.0</ele><time>2026-04-29T18:01:34.037Z</time></trkpt><trkpt lat="38.4941" lon="0.2944306"><ele>0.0</ele><time>2026-04-29T18:01:35.036Z</time></trkpt><trkpt lat="38.4941701" lon="0.2944966"><ele>0.0</ele><time>2026-04-29T18:01:36.036Z</time></trkpt><trkpt lat="38.4942418" lon="0.2945609"><ele>0.0</ele><time>2026-04-29T18:01:37.037Z</time></trkpt><trkpt lat="38.4943137" lon="0.294626"><ele>0.0</ele><time>2026-04-29T18:01:38.037Z</time></trkpt><trkpt lat="38.4943867" lon="0.2946898"><ele>0.0</ele><time>2026-04-29T18:01:39.037Z</time></trkpt><trkpt lat="38.4944598" lon="0.294752"><ele>0.0</ele><time>2026-04-29T18:01:40.037Z</time></trkpt><trkpt lat="38.4945346" lon="0.2948135"><ele>0.0</ele><time>2026-04-29T18:01:41.037Z</time></trkpt><trkpt lat="38.4946083" lon="0.2948764"><ele>0.0</ele><time>2026-04-29T18:01:42.036Z</time></trkpt><trkpt lat="38.4946812" lon="0.2949405"><ele>0.0</ele><time>2026-04-29T18:01:43.036Z</time></trkpt><trkpt lat="38.494756" lon="0.2950024"><ele>0.0</ele><time>2026-04-29T18:01:44.037Z</time></trkpt><trkpt lat="38.4948302" lon="0.2950646"><ele>0.0</ele><time>2026-04-29T18:01:45.037Z</time></trkpt><trkpt lat="38.4949035" lon="0.2951266"><ele>0.0</ele><time>2026-04-29T18:01:46.036Z</time></trkpt><trkpt lat="38.4949783" lon="0.2951891"><ele>0.0</ele><time>2026-04-29T18:01:47.036Z</time></trkpt><trkpt lat="38.4950548" lon="0.2952499"><ele>0.0</ele><time>2026-04-29T18:01:48.036Z</time></trkpt><trkpt lat="38.4951284" lon="0.295313"><ele>0.0</ele><time>2026-04-29T18:01:49.036Z</time></trkpt><trkpt lat="38.4952018" lon="0.2953749"><ele>0.0</ele><time>2026-04-29T18:01:50.036Z</time></trkpt><trkpt lat="38.4952752" lon="0.2954367"><ele>0.0</ele><time>2026-04-29T18:01:51.037Z</time></trkpt><trkpt lat="38.4953453" lon="0.2955016"><ele>0.0</ele><time>2026-04-29T18:01:52.036Z</time></trkpt><trkpt lat="38.4954921" lon="0.2956265"><ele>0.0</ele><time>2026-04-29T18:01:54.036Z</time></trkpt><trkpt lat="38.4955652" lon="0.2956879"><ele>0.0</ele><time>2026-04-29T18:01:55.037Z</time></trkpt><trkpt lat="38.4956386" lon="0.2957482"><ele>0.0</ele><time>2026-04-29T18:01:56.037Z</time></trkpt><trkpt lat="38.4957119" lon="0.2958082"><ele>0.0</ele><time>2026-04-29T18:01:57.037Z</time></trkpt><trkpt lat="38.4957834" lon="0.2958697"><ele>0.0</ele><time>2026-04-29T18:01:58.036Z</time></trkpt><trkpt lat="38.4958566" lon="0.2959318"><ele>0.0</ele><time>2026-04-29T18:01:59.037Z</time></trkpt><trkpt lat="38.4959283" lon="0.295998"><ele>0.0</ele><time>2026-04-29T18:02:00.037Z</time></trkpt><trkpt lat="38.4959998" lon="0.2960623"><ele>0.0</ele><time>2026-04-29T18:02:01.037Z</time></trkpt><trkpt lat="38.4960731" lon="0.2961267"><ele>0.0</ele><time>2026-04-29T18:02:02.036Z</time></trkpt><trkpt lat="38.4961467" lon="0.2961911"><ele>0.0</ele><time>2026-04-29T18:02:03.037Z</time></trkpt><trkpt lat="38.4962198" lon="0.2962551"><ele>0.0</ele><time>2026-04-29T18:02:04.036Z</time></trkpt><trkpt lat="38.4962945" lon="0.2963213"><ele>0.0</ele><time>2026-04-29T18:02:05.036Z</time></trkpt><trkpt lat="38.4963694" lon="0.2963879"><ele>0.0</ele><time>2026-04-29T18:02:06.036Z</time></trkpt><trkpt lat="38.4964416" lon="0.2964531"><ele>0.0</ele><time>2026-04-29T18:02:07.037Z</time></trkpt><trkpt lat="38.4965164" lon="0.2965149"><ele>0.0</ele><time>2026-04-29T18:02:08.036Z</time></trkpt><trkpt lat="38.4965882" lon="0.2965783"><ele>0.0</ele><time>2026-04-29T18:02:09.036Z</time></trkpt><trkpt lat="38.4966616" lon="0.296643"><ele>0.0</ele><time>2026-04-29T18:02:10.037Z</time></trkpt><trkpt lat="38.496735" lon="0.2967048"><ele>0.0</ele><time>2026-04-29T18:02:11.036Z</time></trkpt><trkpt lat="38.4968083" lon="0.2967679"><ele>0.0</ele><time>2026-04-29T18:02:12.036Z</time></trkpt><trkpt lat="38.4968815" lon="0.2968315"><ele>0.0</ele><time>2026-04-29T18:02:13.037Z</time></trkpt><trkpt lat="38.4970252" lon="0.2969616"><ele>0.0</ele><time>2026-04-29T18:02:15.037Z</time></trkpt><trkpt lat="38.4970969" lon="0.2970235"><ele>0.0</ele><time>2026-04-29T18:02:16.036Z</time></trkpt><trkpt lat="38.4971689" lon="0.2970848"><ele>0.0</ele><time>2026-04-29T18:02:17.036Z</time></trkpt><trkpt lat="38.4972404" lon="0.2971451"><ele>0.0</ele><time>2026-04-29T18:02:18.036Z</time></trkpt><trkpt lat="38.4973122" lon="0.2972049"><ele>0.0</ele><time>2026-04-29T18:02:19.036Z</time></trkpt><trkpt lat="38.4973839" lon="0.2972664"><ele>0.0</ele><time>2026-04-29T18:02:20.036Z</time></trkpt><trkpt lat="38.4974568" lon="0.2973282"><ele>0.0</ele><time>2026-04-29T18:02:21.037Z</time></trkpt><trkpt lat="38.4975305" lon="0.2973881"><ele>0.0</ele><time>2026-04-29T18:02:22.037Z</time></trkpt><trkpt lat="38.4975951" lon="0.2974608"><ele>0.0</ele><time>2026-04-29T18:02:23.036Z</time></trkpt><trkpt lat="38.497663" lon="0.2975226"><ele>0.0</ele><time>2026-04-29T18:02:24.037Z</time></trkpt><trkpt lat="38.4977323" lon="0.2975846"><ele>0.0</ele><time>2026-04-29T18:02:25.037Z</time></trkpt><trkpt lat="38.4978034" lon="0.2976513"><ele>0.0</ele><time>2026-04-29T18:02:26.036Z</time></trkpt><trkpt lat="38.4978738" lon="0.2977146"><ele>0.0</ele><time>2026-04-29T18:02:27.037Z</time></trkpt><trkpt lat="38.4979464" lon="0.2977815"><ele>0.0</ele><time>2026-04-29T18:02:28.036Z</time></trkpt><trkpt lat="38.4980196" lon="0.2978496"><ele>0.0</ele><time>2026-04-29T18:02:29.037Z</time></trkpt><trkpt lat="38.4980931" lon="0.297923"><ele>0.0</ele><time>2026-04-29T18:02:30.037Z</time></trkpt><trkpt lat="38.4981679" lon="0.2979911"><ele>0.0</ele><time>2026-04-29T18:02:31.037Z</time></trkpt><trkpt lat="38.498243" lon="0.2980591"><ele>0.0</ele><time>2026-04-29T18:02:32.036Z</time></trkpt><trkpt lat="38.4983169" lon="0.2981226"><ele>0.0</ele><time>2026-04-29T18:02:33.037Z</time></trkpt><trkpt lat="38.4983884" lon="0.2981846"><ele>0.0</ele><time>2026-04-29T18:02:34.037Z</time></trkpt><trkpt lat="38.4985368" lon="0.2983131"><ele>0.0</ele><time>2026-04-29T18:02:36.037Z</time></trkpt><trkpt lat="38.4986056" lon="0.2983793"><ele>0.0</ele><time>2026-04-29T18:02:37.036Z</time></trkpt><trkpt lat="38.4986737" lon="0.2984464"><ele>0.0</ele><time>2026-04-29T18:02:38.037Z</time></trkpt><trkpt lat="38.4987447" lon="0.2985161"><ele>0.0</ele><time>2026-04-29T18:02:39.037Z</time></trkpt><trkpt lat="38.4988151" lon="0.2985817"><ele>0.0</ele><time>2026-04-29T18:02:40.036Z</time></trkpt><trkpt lat="38.4988899" lon="0.2986448"><ele>0.0</ele><time>2026-04-29T18:02:41.036Z</time></trkpt><trkpt lat="38.4989621" lon="0.2987049"><ele>0.0</ele><time>2026-04-29T18:02:42.036Z</time></trkpt><trkpt lat="38.4990294" lon="0.2987739"><ele>0.0</ele><time>2026-04-29T18:02:43.037Z</time></trkpt><trkpt lat="38.499096" lon="0.2988337"><ele>0.0</ele><time>2026-04-29T18:02:44.036Z</time></trkpt><trkpt lat="38.4991654" lon="0.2988954"><ele>0.0</ele><time>2026-04-29T18:02:45.036Z</time></trkpt><trkpt lat="38.4992369" lon="0.2989597"><ele>0.0</ele><time>2026-04-29T18:02:46.036Z</time></trkpt><trkpt lat="38.4993099" lon="0.2990249"><ele>0.0</ele><time>2026-04-29T18:02:47.037Z</time></trkpt><trkpt lat="38.4993801" lon="0.2990957"><ele>0.0</ele><time>2026-04-29T18:02:48.037Z</time></trkpt><trkpt lat="38.4994562" lon="0.2991613"><ele>0.0</ele><time>2026-04-29T18:02:49.037Z</time></trkpt><trkpt lat="38.4995303" lon="0.2992231"><ele>0.0</ele><time>2026-04-29T18:02:50.037Z</time></trkpt><trkpt lat="38.4996049" lon="0.2992846"><ele>0.0</ele><time>2026-04-29T18:02:51.036Z</time></trkpt><trkpt lat="38.499677" lon="0.2993479"><ele>0.0</ele><time>2026-04-29T18:02:52.037Z</time></trkpt><trkpt lat="38.4997515" lon="0.2994099"><ele>0.0</ele><time>2026-04-29T18:02:53.037Z</time></trkpt><trkpt lat="38.4998234" lon="0.2994763"><ele>0.0</ele><time>2026-04-29T18:02:54.037Z</time></trkpt><trkpt lat="38.4998966" lon="0.2995399"><ele>0.0</ele><time>2026-04-29T18:02:55.036Z</time></trkpt><trkpt lat="38.5000406" lon="0.2996637"><ele>0.0</ele><time>2026-04-29T18:02:57.037Z</time></trkpt><trkpt lat="38.5001151" lon="0.2997231"><ele>0.0</ele><time>2026-04-29T18:02:58.037Z</time></trkpt><trkpt lat="38.5001884" lon="0.2997835"><ele>0.0</ele><time>2026-04-29T18:02:59.037Z</time></trkpt><trkpt lat="38.5002588" lon="0.2998452"><ele>0.0</ele><time>2026-04-29T18:03:00.036Z</time></trkpt><trkpt lat="38.5003307" lon="0.2999037"><ele>0.0</ele><time>2026-04-29T18:03:01.037Z</time></trkpt><trkpt lat="38.500402" lon="0.2999652"><ele>0.0</ele><time>2026-04-29T18:03:02.037Z</time></trkpt><trkpt lat="38.500475" lon="0.3000283"><ele>0.0</ele><time>2026-04-29T18:03:03.036Z</time></trkpt><trkpt lat="38.5005482" lon="0.3000901"><ele>0.0</ele><time>2026-04-29T18:03:04.037Z</time></trkpt><trkpt lat="38.5006228" lon="0.3001531"><ele>0.0</ele><time>2026-04-29T18:03:05.037Z</time></trkpt><trkpt lat="38.5006996" lon="0.3002164"><ele>0.0</ele><time>2026-04-29T18:03:06.036Z</time></trkpt><trkpt lat="38.5007764" lon="0.3002763"><ele>0.0</ele><time>2026-04-29T18:03:07.037Z</time></trkpt><trkpt lat="38.5008503" lon="0.3003349"><ele>0.0</ele><time>2026-04-29T18:03:08.036Z</time></trkpt><trkpt lat="38.5009221" lon="0.3003962"><ele>0.0</ele><time>2026-04-29T18:03:09.037Z</time></trkpt><trkpt lat="38.5009939" lon="0.3004566"><ele>0.0</ele><time>2026-04-29T18:03:10.036Z</time></trkpt><trkpt lat="38.5010671" lon="0.3005167"><ele>0.0</ele><time>2026-04-29T18:03:11.036Z</time></trkpt><trkpt lat="38.501136" lon="0.3005783"><ele>0.0</ele><time>2026-04-29T18:03:12.036Z</time></trkpt><trkpt lat="38.5012071" lon="0.300643"><ele>0.0</ele><time>2026-04-29T18:03:13.036Z</time></trkpt><trkpt lat="38.5012814" lon="0.3007121"><ele>0.0</ele><time>2026-04-29T18:03:14.036Z</time></trkpt><trkpt lat="38.5013534" lon="0.3007792"><ele>0.0</ele><time>2026-04-29T18:03:15.036Z</time></trkpt><trkpt lat="38.5014298" lon="0.3008357"><ele>0.0</ele><time>2026-04-29T18:03:16.037Z</time></trkpt><trkpt lat="38.5015772" lon="0.3009616"><ele>0.0</ele><time>2026-04-29T18:03:18.037Z</time></trkpt><trkpt lat="38.5016503" lon="0.3010269"><ele>0.0</ele><time>2026-04-29T18:03:19.036Z</time></trkpt><trkpt lat="38.501722" lon="0.3010953"><ele>0.0</ele><time>2026-04-29T18:03:20.037Z</time></trkpt><trkpt lat="38.5017979" lon="0.3011612"><ele>0.0</ele><time>2026-04-29T18:03:21.036Z</time></trkpt><trkpt lat="38.5018677" lon="0.3012301"><ele>0.0</ele><time>2026-04-29T18:03:22.037Z</time></trkpt><trkpt lat="38.5019386" lon="0.3012946"><ele>0.0</ele><time>2026-04-29T18:03:23.036Z</time></trkpt><trkpt lat="38.5020104" lon="0.3013538"><ele>0.0</ele><time>2026-04-29T18:03:24.037Z</time></trkpt><trkpt lat="38.5020849" lon="0.3014164"><ele>0.0</ele><time>2026-04-29T18:03:25.036Z</time></trkpt><trkpt lat="38.5021597" lon="0.3014813"><ele>0.0</ele><time>2026-04-29T18:03:26.036Z</time></trkpt><trkpt lat="38.5022348" lon="0.3015436"><ele>0.0</ele><time>2026-04-29T18:03:27.036Z</time></trkpt><trkpt lat="38.5023059" lon="0.3016021"><ele>0.0</ele><time>2026-04-29T18:03:28.037Z</time></trkpt><trkpt lat="38.5023787" lon="0.3016603"><ele>0.0</ele><time>2026-04-29T18:03:29.037Z</time></trkpt><trkpt lat="38.502449" lon="0.3017172"><ele>0.0</ele><time>2026-04-29T18:03:30.036Z</time></trkpt><trkpt lat="38.5025248" lon="0.3017795"><ele>0.0</ele><time>2026-04-29T18:03:31.036Z</time></trkpt><trkpt lat="38.5026012" lon="0.3018471"><ele>0.0</ele><time>2026-04-29T18:03:32.037Z</time></trkpt><trkpt lat="38.5026746" lon="0.3019147"><ele>0.0</ele><time>2026-04-29T18:03:33.036Z</time></trkpt><trkpt lat="38.5027454" lon="0.3019814"><ele>0.0</ele><time>2026-04-29T18:03:34.036Z</time></trkpt><trkpt lat="38.5028154" lon="0.3020483"><ele>0.0</ele><time>2026-04-29T18:03:35.037Z</time></trkpt><trkpt lat="38.5028856" lon="0.3021121"><ele>0.0</ele><time>2026-04-29T18:03:36.036Z</time></trkpt><trkpt lat="38.5029572" lon="0.3021766"><ele>0.0</ele><time>2026-04-29T18:03:37.037Z</time></trkpt><trkpt lat="38.5031062" lon="0.3022974"><ele>0.0</ele><time>2026-04-29T18:03:39.037Z</time></trkpt><trkpt lat="38.5031771" lon="0.3023572"><ele>0.0</ele><time>2026-04-29T18:03:40.037Z</time></trkpt><trkpt lat="38.5032529" lon="0.3024187"><ele>0.0</ele><time>2026-04-29T18:03:41.037Z</time></trkpt><trkpt lat="38.5033283" lon="0.3024826"><ele>0.0</ele><time>2026-04-29T18:03:42.036Z</time></trkpt><trkpt lat="38.5034005" lon="0.3025431"><ele>0.0</ele><time>2026-04-29T18:03:43.037Z</time></trkpt><trkpt lat="38.5034707" lon="0.3026032"><ele>0.0</ele><time>2026-04-29T18:03:44.036Z</time></trkpt><trkpt lat="38.5035449" lon="0.3026691"><ele>0.0</ele><time>2026-04-29T18:03:45.036Z</time></trkpt><trkpt lat="38.5036183" lon="0.3027346"><ele>0.0</ele><time>2026-04-29T18:03:46.037Z</time></trkpt><trkpt lat="38.5036945" lon="0.3028007"><ele>0.0</ele><time>2026-04-29T18:03:47.037Z</time></trkpt><trkpt lat="38.5037684" lon="0.3028642"><ele>0.0</ele><time>2026-04-29T18:03:48.037Z</time></trkpt><trkpt lat="38.5038417" lon="0.3029278"><ele>0.0</ele><time>2026-04-29T18:03:49.036Z</time></trkpt><trkpt lat="38.5039148" lon="0.3029911"><ele>0.0</ele><time>2026-04-29T18:03:50.036Z</time></trkpt><trkpt lat="38.5039884" lon="0.3030546"><ele>0.0</ele><time>2026-04-29T18:03:51.037Z</time></trkpt><trkpt lat="38.5040647" lon="0.3031177"><ele>0.0</ele><time>2026-04-29T18:03:52.037Z</time></trkpt><trkpt lat="38.504135" lon="0.3031861"><ele>0.0</ele><time>2026-04-29T18:03:53.037Z</time></trkpt><trkpt lat="38.5042052" lon="0.30325"><ele>0.0</ele><time>2026-04-29T18:03:54.037Z</time></trkpt><trkpt lat="38.504278" lon="0.3033166"><ele>0.0</ele><time>2026-04-29T18:03:55.037Z</time></trkpt><trkpt lat="38.5043469" lon="0.303382"><ele>0.0</ele><time>2026-04-29T18:03:56.036Z</time></trkpt><trkpt lat="38.5044171" lon="0.3034435"><ele>0.0</ele><time>2026-04-29T18:03:57.037Z</time></trkpt><trkpt lat="38.5044886" lon="0.3035081"><ele>0.0</ele><time>2026-04-29T18:03:58.036Z</time></trkpt><trkpt lat="38.5046366" lon="0.3036333"><ele>0.0</ele><time>2026-04-29T18:04:00.037Z</time></trkpt><trkpt lat="38.5047074" lon="0.3036936"><ele>0.0</ele><time>2026-04-29T18:04:01.036Z</time></trkpt><trkpt lat="38.5047771" lon="0.3037566"><ele>0.0</ele><time>2026-04-29T18:04:02.036Z</time></trkpt><trkpt lat="38.5048458" lon="0.30382"><ele>0.0</ele><time>2026-04-29T18:04:03.037Z</time></trkpt><trkpt lat="38.5049111" lon="0.3038837"><ele>0.0</ele><time>2026-04-29T18:04:04.037Z</time></trkpt><trkpt lat="38.5049778" lon="0.3039456"><ele>0.0</ele><time>2026-04-29T18:04:05.037Z</time></trkpt><trkpt lat="38.5050469" lon="0.30402"><ele>0.0</ele><time>2026-04-29T18:04:06.036Z</time></trkpt><trkpt lat="38.5051183" lon="0.304088"><ele>0.0</ele><time>2026-04-29T18:04:07.036Z</time></trkpt><trkpt lat="38.5051914" lon="0.3041518"><ele>0.0</ele><time>2026-04-29T18:04:08.036Z</time></trkpt><trkpt lat="38.5052607" lon="0.3042122"><ele>0.0</ele><time>2026-04-29T18:04:09.036Z</time></trkpt><trkpt lat="38.5053336" lon="0.30427"><ele>0.0</ele><time>2026-04-29T18:04:10.036Z</time></trkpt><trkpt lat="38.5054069" lon="0.3043299"><ele>0.0</ele><time>2026-04-29T18:04:11.037Z</time></trkpt><trkpt lat="38.5054786" lon="0.3043944"><ele>0.0</ele><time>2026-04-29T18:04:12.037Z</time></trkpt><trkpt lat="38.5055515" lon="0.3044594"><ele>0.0</ele><time>2026-04-29T18:04:13.036Z</time></trkpt><trkpt lat="38.5056219" lon="0.3045265"><ele>0.0</ele><time>2026-04-29T18:04:14.036Z</time></trkpt><trkpt lat="38.505695" lon="0.3045885"><ele>0.0</ele><time>2026-04-29T18:04:15.036Z</time></trkpt><trkpt lat="38.5057713" lon="0.30465"><ele>0.0</ele><time>2026-04-29T18:04:16.036Z</time></trkpt><trkpt lat="38.5058421" lon="0.3047132"><ele>0.0</ele><time>2026-04-29T18:04:17.036Z</time></trkpt><trkpt lat="38.5059081" lon="0.3047711"><ele>0.0</ele><time>2026-04-29T18:04:18.037Z</time></trkpt><trkpt lat="38.505976" lon="0.3048275"><ele>0.0</ele><time>2026-04-29T18:04:19.037Z</time></trkpt><trkpt lat="38.5061233" lon="0.3049447"><ele>0.0</ele><time>2026-04-29T18:04:21.036Z</time></trkpt><trkpt lat="38.5062013" lon="0.3050044"><ele>0.0</ele><time>2026-04-29T18:04:22.036Z</time></trkpt><trkpt lat="38.5062796" lon="0.3050674"><ele>0.0</ele><time>2026-04-29T18:04:23.036Z</time></trkpt><trkpt lat="38.5063577" lon="0.305131"><ele>0.0</ele><time>2026-04-29T18:04:24.037Z</time></trkpt><trkpt lat="38.5064332" lon="0.3051912"><ele>0.0</ele><time>2026-04-29T18:04:25.037Z</time></trkpt><trkpt lat="38.5065026" lon="0.3052568"><ele>0.0</ele><time>2026-04-29T18:04:26.036Z</time></trkpt><trkpt lat="38.5065767" lon="0.3053194"><ele>0.0</ele><time>2026-04-29T18:04:27.036Z</time></trkpt><trkpt lat="38.5066515" lon="0.3053811"><ele>0.0</ele><time>2026-04-29T18:04:28.036Z</time></trkpt><trkpt lat="38.5067236" lon="0.3054431"><ele>0.0</ele><time>2026-04-29T18:04:29.036Z</time></trkpt><trkpt lat="38.5067968" lon="0.3055063"><ele>0.0</ele><time>2026-04-29T18:04:30.036Z</time></trkpt><trkpt lat="38.5068688" lon="0.3055666"><ele>0.0</ele><time>2026-04-29T18:04:31.036Z</time></trkpt><trkpt lat="38.5069362" lon="0.3056269"><ele>0.0</ele><time>2026-04-29T18:04:32.036Z</time></trkpt><trkpt lat="38.5070085" lon="0.30569"><ele>0.0</ele><time>2026-04-29T18:04:33.036Z</time></trkpt><trkpt lat="38.5070789" lon="0.305752"><ele>0.0</ele><time>2026-04-29T18:04:34.037Z</time></trkpt><trkpt lat="38.5071503" lon="0.3058135"><ele>0.0</ele><time>2026-04-29T18:04:35.036Z</time></trkpt><trkpt lat="38.5072236" lon="0.3058733"><ele>0.0</ele><time>2026-04-29T18:04:36.036Z</time></trkpt><trkpt lat="38.5072968" lon="0.3059364"><ele>0.0</ele><time>2026-04-29T18:04:37.036Z</time></trkpt><trkpt lat="38.5073671" lon="0.3059998"><ele>0.0</ele><time>2026-04-29T18:04:38.036Z</time></trkpt><trkpt lat="38.5074414" lon="0.3060628"><ele>0.0</ele><time>2026-04-29T18:04:39.036Z</time></trkpt><trkpt lat="38.5075135" lon="0.3061262"><ele>0.0</ele><time>2026-04-29T18:04:40.037Z</time></trkpt><trkpt lat="38.5076569" lon="0.306253"><ele>0.0</ele><time>2026-04-29T18:04:42.037Z</time></trkpt><trkpt lat="38.5077343" lon="0.3063163"><ele>0.0</ele><time>2026-04-29T18:04:43.036Z</time></trkpt><trkpt lat="38.507804" lon="0.3063736"><ele>0.0</ele><time>2026-04-29T18:04:44.036Z</time></trkpt><trkpt lat="38.5078768" lon="0.3064392"><ele>0.0</ele><time>2026-04-29T18:04:45.036Z</time></trkpt><trkpt lat="38.5079456" lon="0.3065047"><ele>0.0</ele><time>2026-04-29T18:04:46.037Z</time></trkpt><trkpt lat="38.5080112" lon="0.3065765"><ele>0.0</ele><time>2026-04-29T18:04:47.037Z</time></trkpt><trkpt lat="38.508085" lon="0.3066439"><ele>0.0</ele><time>2026-04-29T18:04:48.036Z</time></trkpt><trkpt lat="38.5081597" lon="0.3067095"><ele>0.0</ele><time>2026-04-29T18:04:49.037Z</time></trkpt><trkpt lat="38.508232" lon="0.3067684"><ele>0.0</ele><time>2026-04-29T18:04:50.036Z</time></trkpt><trkpt lat="38.5083036" lon="0.3068271"><ele>0.0</ele><time>2026-04-29T18:04:51.037Z</time></trkpt><trkpt lat="38.5083753" lon="0.3068882"><ele>0.0</ele><time>2026-04-29T18:04:52.036Z</time></trkpt><trkpt lat="38.5084555" lon="0.3069587"><ele>0.0</ele><time>2026-04-29T18:04:53.036Z</time></trkpt><trkpt lat="38.5085325" lon="0.3070286"><ele>0.0</ele><time>2026-04-29T18:04:54.037Z</time></trkpt><trkpt lat="38.5086064" lon="0.3070944"><ele>0.0</ele><time>2026-04-29T18:04:55.036Z</time></trkpt><trkpt lat="38.5086814" lon="0.3071565"><ele>0.0</ele><time>2026-04-29T18:04:56.036Z</time></trkpt><trkpt lat="38.5087566" lon="0.3072166"><ele>0.0</ele><time>2026-04-29T18:04:57.036Z</time></trkpt><trkpt lat="38.5088267" lon="0.3072784"><ele>0.0</ele><time>2026-04-29T18:04:58.036Z</time></trkpt><trkpt lat="38.5089001" lon="0.3073386"><ele>0.0</ele><time>2026-04-29T18:04:59.036Z</time></trkpt><trkpt lat="38.508975" lon="0.307397"><ele>0.0</ele><time>2026-04-29T18:05:00.036Z</time></trkpt><trkpt lat="38.5090457" lon="0.307457"><ele>0.0</ele><time>2026-04-29T18:05:01.037Z</time></trkpt><trkpt lat="38.5091935" lon="0.3075747"><ele>0.0</ele><time>2026-04-29T18:05:03.036Z</time></trkpt><trkpt lat="38.5092631" lon="0.3076303"><ele>0.0</ele><time>2026-04-29T18:05:04.037Z</time></trkpt><trkpt lat="38.5093363" lon="0.3076972"><ele>0.0</ele><time>2026-04-29T18:05:05.036Z</time></trkpt><trkpt lat="38.5094061" lon="0.3077724"><ele>0.0</ele><time>2026-04-29T18:05:06.036Z</time></trkpt><trkpt lat="38.5094738" lon="0.3078411"><ele>0.0</ele><time>2026-04-29T18:05:07.036Z</time></trkpt><trkpt lat="38.5095492" lon="0.3079078"><ele>0.0</ele><time>2026-04-29T18:05:08.036Z</time></trkpt><trkpt lat="38.5096218" lon="0.3079701"><ele>0.0</ele><time>2026-04-29T18:05:09.037Z</time></trkpt><trkpt lat="38.5096935" lon="0.3080319"><ele>0.0</ele><time>2026-04-29T18:05:10.037Z</time></trkpt><trkpt lat="38.5097684" lon="0.308096"><ele>0.0</ele><time>2026-04-29T18:05:11.036Z</time></trkpt><trkpt lat="38.5098431" lon="0.3081595"><ele>0.0</ele><time>2026-04-29T18:05:12.037Z</time></trkpt><trkpt lat="38.5099158" lon="0.3082202"><ele>0.0</ele><time>2026-04-29T18:05:13.037Z</time></trkpt><trkpt lat="38.5099857" lon="0.3082788"><ele>0.0</ele><time>2026-04-29T18:05:14.036Z</time></trkpt><trkpt lat="38.510057" lon="0.3083382"><ele>0.0</ele><time>2026-04-29T18:05:15.036Z</time></trkpt><trkpt lat="38.5101326" lon="0.3083985"><ele>0.0</ele><time>2026-04-29T18:05:16.036Z</time></trkpt><trkpt lat="38.5102096" lon="0.3084612"><ele>0.0</ele><time>2026-04-29T18:05:17.036Z</time></trkpt><trkpt lat="38.5102835" lon="0.3085314"><ele>0.0</ele><time>2026-04-29T18:05:18.036Z</time></trkpt><trkpt lat="38.5103541" lon="0.3085972"><ele>0.0</ele><time>2026-04-29T18:05:19.037Z</time></trkpt><trkpt lat="38.5104199" lon="0.3086679"><ele>0.0</ele><time>2026-04-29T18:05:20.036Z</time></trkpt><trkpt lat="38.5104847" lon="0.3087409"><ele>0.0</ele><time>2026-04-29T18:05:21.036Z</time></trkpt><trkpt lat="38.5105556" lon="0.3088046"><ele>0.0</ele><time>2026-04-29T18:05:22.036Z</time></trkpt><trkpt lat="38.5106916" lon="0.3089301"><ele>0.0</ele><time>2026-04-29T18:05:24.037Z</time></trkpt><trkpt lat="38.5107638" lon="0.30899"><ele>0.0</ele><time>2026-04-29T18:05:25.036Z</time></trkpt><trkpt lat="38.510837" lon="0.3090514"><ele>0.0</ele><time>2026-04-29T18:05:26.035Z</time></trkpt><trkpt lat="38.5109117" lon="0.3091162"><ele>0.0</ele><time>2026-04-29T18:05:27.035Z</time></trkpt><trkpt lat="38.510988" lon="0.3091779"><ele>0.0</ele><time>2026-04-29T18:05:28.035Z</time></trkpt><trkpt lat="38.5110663" lon="0.309238"><ele>0.0</ele><time>2026-04-29T18:05:29.036Z</time></trkpt><trkpt lat="38.5111431" lon="0.3092966"><ele>0.0</ele><time>2026-04-29T18:05:30.035Z</time></trkpt><trkpt lat="38.5112182" lon="0.3093583"><ele>0.0</ele><time>2026-04-29T18:05:31.036Z</time></trkpt><trkpt lat="38.5112947" lon="0.3094137"><ele>0.0</ele><time>2026-04-29T18:05:32.035Z</time></trkpt><trkpt lat="38.5113683" lon="0.3094735"><ele>0.0</ele><time>2026-04-29T18:05:33.036Z</time></trkpt><trkpt lat="38.5114373" lon="0.3095366"><ele>0.0</ele><time>2026-04-29T18:05:34.036Z</time></trkpt><trkpt lat="38.51151" lon="0.3096024"><ele>0.0</ele><time>2026-04-29T18:05:35.036Z</time></trkpt><trkpt lat="38.5115804" lon="0.3096678"><ele>0.0</ele><time>2026-04-29T18:05:36.036Z</time></trkpt><trkpt lat="38.511656" lon="0.3097218"><ele>0.0</ele><time>2026-04-29T18:05:37.036Z</time></trkpt><trkpt lat="38.5117273" lon="0.3097802"><ele>0.0</ele><time>2026-04-29T18:05:38.036Z</time></trkpt><trkpt lat="38.5117986" lon="0.3098278"><ele>0.0</ele><time>2026-04-29T18:05:39.036Z</time></trkpt><trkpt lat="38.5118746" lon="0.3098771"><ele>0.0</ele><time>2026-04-29T18:05:40.035Z</time></trkpt><trkpt lat="38.5119483" lon="0.3099312"><ele>0.0</ele><time>2026-04-29T18:05:41.035Z</time></trkpt><trkpt lat="38.5120244" lon="0.3099832"><ele>0.0</ele><time>2026-04-29T18:05:42.035Z</time></trkpt><trkpt lat="38.5120966" lon="0.3100432"><ele>0.0</ele><time>2026-04-29T18:05:43.036Z</time></trkpt><trkpt lat="38.5122433" lon="0.3101785"><ele>0.0</ele><time>2026-04-29T18:05:45.035Z</time></trkpt><trkpt lat="38.5123194" lon="0.3102459"><ele>0.0</ele><time>2026-04-29T18:05:46.035Z</time></trkpt><trkpt lat="38.5123918" lon="0.3103113"><ele>0.0</ele><time>2026-04-29T18:05:47.035Z</time></trkpt><trkpt lat="38.5124663" lon="0.3103773"><ele>0.0</ele><time>2026-04-29T18:05:48.035Z</time></trkpt><trkpt lat="38.512544" lon="0.310443"><ele>0.0</ele><time>2026-04-29T18:05:49.036Z</time></trkpt><trkpt lat="38.5126201" lon="0.3105091"><ele>0.0</ele><time>2026-04-29T18:05:50.035Z</time></trkpt><trkpt lat="38.5126906" lon="0.3105771"><ele>0.0</ele><time>2026-04-29T18:05:51.035Z</time></trkpt><trkpt lat="38.5127633" lon="0.31064"><ele>0.0</ele><time>2026-04-29T18:05:52.036Z</time></trkpt><trkpt lat="38.5128336" lon="0.3107003"><ele>0.0</ele><time>2026-04-29T18:05:53.036Z</time></trkpt><trkpt lat="38.5129111" lon="0.3107703"><ele>0.0</ele><time>2026-04-29T18:05:54.036Z</time></trkpt><trkpt lat="38.5129874" lon="0.3108367"><ele>0.0</ele><time>2026-04-29T18:05:55.036Z</time></trkpt><trkpt lat="38.5130612" lon="0.3109028"><ele>0.0</ele><time>2026-04-29T18:05:56.035Z</time></trkpt><trkpt lat="38.5131418" lon="0.3109682"><ele>0.0</ele><time>2026-04-29T18:05:57.036Z</time></trkpt><trkpt lat="38.5132123" lon="0.3110286"><ele>0.0</ele><time>2026-04-29T18:05:58.035Z</time></trkpt><trkpt lat="38.5132847" lon="0.311093"><ele>0.0</ele><time>2026-04-29T18:05:59.036Z</time></trkpt><trkpt lat="38.5133569" lon="0.3111563"><ele>0.0</ele><time>2026-04-29T18:06:00.036Z</time></trkpt><trkpt lat="38.5134286" lon="0.3112199"><ele>0.0</ele><time>2026-04-29T18:06:01.035Z</time></trkpt><trkpt lat="38.5134961" lon="0.311289"><ele>0.0</ele><time>2026-04-29T18:06:02.035Z</time></trkpt><trkpt lat="38.513564" lon="0.3113536"><ele>0.0</ele><time>2026-04-29T18:06:03.035Z</time></trkpt><trkpt lat="38.5136281" lon="0.3114182"><ele>0.0</ele><time>2026-04-29T18:06:04.035Z</time></trkpt><trkpt lat="38.5137729" lon="0.3115422"><ele>0.0</ele><time>2026-04-29T18:06:06.035Z</time></trkpt><trkpt lat="38.5138465" lon="0.3116032"><ele>0.0</ele><time>2026-04-29T18:06:07.035Z</time></trkpt><trkpt lat="38.5139113" lon="0.3116792"><ele>0.0</ele><time>2026-04-29T18:06:08.036Z</time></trkpt><trkpt lat="38.5139775" lon="0.3117534"><ele>0.0</ele><time>2026-04-29T18:06:09.035Z</time></trkpt><trkpt lat="38.5140466" lon="0.3118238"><ele>0.0</ele><time>2026-04-29T18:06:10.036Z</time></trkpt><trkpt lat="38.5141121" lon="0.3118944"><ele>0.0</ele><time>2026-04-29T18:06:11.035Z</time></trkpt><trkpt lat="38.5141815" lon="0.3119661"><ele>0.0</ele><time>2026-04-29T18:06:12.035Z</time></trkpt><trkpt lat="38.5142516" lon="0.3120346"><ele>0.0</ele><time>2026-04-29T18:06:13.035Z</time></trkpt><trkpt lat="38.5143204" lon="0.3120941"><ele>0.0</ele><time>2026-04-29T18:06:14.035Z</time></trkpt><trkpt lat="38.5143931" lon="0.3121551"><ele>0.0</ele><time>2026-04-29T18:06:15.035Z</time></trkpt><trkpt lat="38.5144626" lon="0.3122122"><ele>0.0</ele><time>2026-04-29T18:06:16.036Z</time></trkpt><trkpt lat="38.5145464" lon="0.3122817"><ele>0.0</ele><time>2026-04-29T18:06:17.035Z</time></trkpt><trkpt lat="38.5146313" lon="0.3123504"><ele>0.0</ele><time>2026-04-29T18:06:18.036Z</time></trkpt><trkpt lat="38.5147047" lon="0.3124163"><ele>0.0</ele><time>2026-04-29T18:06:19.036Z</time></trkpt><trkpt lat="38.5147797" lon="0.3124796"><ele>0.0</ele><time>2026-04-29T18:06:20.036Z</time></trkpt><trkpt lat="38.5148519" lon="0.3125401"><ele>0.0</ele><time>2026-04-29T18:06:21.036Z</time></trkpt><trkpt lat="38.5149248" lon="0.312596"><ele>0.0</ele><time>2026-04-29T18:06:22.035Z</time></trkpt><trkpt lat="38.5149984" lon="0.3126526"><ele>0.0</ele><time>2026-04-29T18:06:23.036Z</time></trkpt><trkpt lat="38.5150717" lon="0.3127091"><ele>0.0</ele><time>2026-04-29T18:06:24.036Z</time></trkpt><trkpt lat="38.5151464" lon="0.312763"><ele>0.0</ele><time>2026-04-29T18:06:25.036Z</time></trkpt><trkpt lat="38.5153006" lon="0.312894"><ele>0.0</ele><time>2026-04-29T18:06:27.035Z</time></trkpt><trkpt lat="38.5153733" lon="0.3129637"><ele>0.0</ele><time>2026-04-29T18:06:28.035Z</time></trkpt><trkpt lat="38.5154438" lon="0.3130306"><ele>0.0</ele><time>2026-04-29T18:06:29.035Z</time></trkpt><trkpt lat="38.5155125" lon="0.3130902"><ele>0.0</ele><time>2026-04-29T18:06:30.035Z</time></trkpt><trkpt lat="38.5155823" lon="0.3131487"><ele>0.0</ele><time>2026-04-29T18:06:31.035Z</time></trkpt><trkpt lat="38.5156568" lon="0.3132052"><ele>0.0</ele><time>2026-04-29T18:06:32.035Z</time></trkpt><trkpt lat="38.5157303" lon="0.3132661"><ele>0.0</ele><time>2026-04-29T18:06:33.035Z</time></trkpt><trkpt lat="38.5158074" lon="0.3133297"><ele>0.0</ele><time>2026-04-29T18:06:34.036Z</time></trkpt><trkpt lat="38.5158859" lon="0.3133888"><ele>0.0</ele><time>2026-04-29T18:06:35.036Z</time></trkpt><trkpt lat="38.5159625" lon="0.3134417"><ele>0.0</ele><time>2026-04-29T18:06:36.035Z</time></trkpt><trkpt lat="38.5160322" lon="0.3135021"><ele>0.0</ele><time>2026-04-29T18:06:37.036Z</time></trkpt><trkpt lat="38.5161051" lon="0.3135679"><ele>0.0</ele><time>2026-04-29T18:06:38.036Z</time></trkpt><trkpt lat="38.5161783" lon="0.3136316"><ele>0.0</ele><time>2026-04-29T18:06:39.035Z</time></trkpt><trkpt lat="38.5162504" lon="0.3136919"><ele>0.0</ele><time>2026-04-29T18:06:40.036Z</time></trkpt><trkpt lat="38.5163235" lon="0.3137559"><ele>0.0</ele><time>2026-04-29T18:06:41.035Z</time></trkpt><trkpt lat="38.5163968" lon="0.3138167"><ele>0.0</ele><time>2026-04-29T18:06:42.036Z</time></trkpt><trkpt lat="38.5164657" lon="0.3138788"><ele>0.0</ele><time>2026-04-29T18:06:43.035Z</time></trkpt><trkpt lat="38.5165441" lon="0.3139431"><ele>0.0</ele><time>2026-04-29T18:06:44.035Z</time></trkpt><trkpt lat="38.5166185" lon="0.3139963"><ele>0.0</ele><time>2026-04-29T18:06:45.035Z</time></trkpt><trkpt lat="38.5166975" lon="0.3140555"><ele>0.0</ele><time>2026-04-29T18:06:46.035Z</time></trkpt><trkpt lat="38.5168396" lon="0.3141662"><ele>0.0</ele><time>2026-04-29T18:06:48.035Z</time></trkpt><trkpt lat="38.5169063" lon="0.3142239"><ele>0.0</ele><time>2026-04-29T18:06:49.036Z</time></trkpt><trkpt lat="38.5169828" lon="0.3142878"><ele>0.0</ele><time>2026-04-29T18:06:50.035Z</time></trkpt><trkpt lat="38.5170541" lon="0.3143483"><ele>0.0</ele><time>2026-04-29T18:06:51.035Z</time></trkpt><trkpt lat="38.5171299" lon="0.3144098"><ele>0.0</ele><time>2026-04-29T18:06:52.035Z</time></trkpt><trkpt lat="38.5172051" lon="0.3144732"><ele>0.0</ele><time>2026-04-29T18:06:53.035Z</time></trkpt><trkpt lat="38.5172789" lon="0.3145286"><ele>0.0</ele><time>2026-04-29T18:06:54.036Z</time></trkpt><trkpt lat="38.5173547" lon="0.3145911"><ele>0.0</ele><time>2026-04-29T18:06:55.035Z</time></trkpt><trkpt lat="38.5174286" lon="0.3146523"><ele>0.0</ele><time>2026-04-29T18:06:56.035Z</time></trkpt><trkpt lat="38.5175036" lon="0.3147116"><ele>0.0</ele><time>2026-04-29T18:06:57.035Z</time></trkpt><trkpt lat="38.5175758" lon="0.3147725"><ele>0.0</ele><time>2026-04-29T18:06:58.036Z</time></trkpt><trkpt lat="38.5176489" lon="0.3148326"><ele>0.0</ele><time>2026-04-29T18:06:59.036Z</time></trkpt><trkpt lat="38.5177233" lon="0.3148918"><ele>0.0</ele><time>2026-04-29T18:07:00.036Z</time></trkpt><trkpt lat="38.5177984" lon="0.3149514"><ele>0.0</ele><time>2026-04-29T18:07:01.036Z</time></trkpt><trkpt lat="38.5178732" lon="0.3150128"><ele>0.0</ele><time>2026-04-29T18:07:02.035Z</time></trkpt><trkpt lat="38.5179499" lon="0.3150717"><ele>0.0</ele><time>2026-04-29T18:07:03.036Z</time></trkpt><trkpt lat="38.5180265" lon="0.3151314"><ele>0.0</ele><time>2026-04-29T18:07:04.035Z</time></trkpt><trkpt lat="38.5181019" lon="0.3151901"><ele>0.0</ele><time>2026-04-29T18:07:05.036Z</time></trkpt><trkpt lat="38.5181737" lon="0.3152502"><ele>0.0</ele><time>2026-04-29T18:07:06.035Z</time></trkpt><trkpt lat="38.5182468" lon="0.3153102"><ele>0.0</ele><time>2026-04-29T18:07:07.036Z</time></trkpt><trkpt lat="38.5183218" lon="0.3153683"><ele>0.0</ele><time>2026-04-29T18:07:08.035Z</time></trkpt><trkpt lat="38.5184684" lon="0.3154886"><ele>0.0</ele><time>2026-04-29T18:07:10.035Z</time></trkpt><trkpt lat="38.5185431" lon="0.31555"><ele>0.0</ele><time>2026-04-29T18:07:11.036Z</time></trkpt><trkpt lat="38.5186183" lon="0.3156097"><ele>0.0</ele><time>2026-04-29T18:07:12.035Z</time></trkpt><trkpt lat="38.5186962" lon="0.3156714"><ele>0.0</ele><time>2026-04-29T18:07:13.035Z</time></trkpt><trkpt lat="38.5187686" lon="0.3157319"><ele>0.0</ele><time>2026-04-29T18:07:14.035Z</time></trkpt><trkpt lat="38.518839" lon="0.3157923"><ele>0.0</ele><time>2026-04-29T18:07:15.036Z</time></trkpt><trkpt lat="38.5189076" lon="0.3158505"><ele>0.0</ele><time>2026-04-29T18:07:16.035Z</time></trkpt><trkpt lat="38.5189801" lon="0.3159147"><ele>0.0</ele><time>2026-04-29T18:07:17.035Z</time></trkpt><trkpt lat="38.5190531" lon="0.3159781"><ele>0.0</ele><time>2026-04-29T18:07:18.035Z</time></trkpt><trkpt lat="38.5191252" lon="0.316043"><ele>0.0</ele><time>2026-04-29T18:07:19.036Z</time></trkpt><trkpt lat="38.5191972" lon="0.3161036"><ele>0.0</ele><time>2026-04-29T18:07:20.035Z</time></trkpt><trkpt lat="38.5192744" lon="0.3161678"><ele>0.0</ele><time>2026-04-29T18:07:21.036Z</time></trkpt><trkpt lat="38.5193484" lon="0.3162299"><ele>0.0</ele><time>2026-04-29T18:07:22.035Z</time></trkpt><trkpt lat="38.5194259" lon="0.3162915"><ele>0.0</ele><time>2026-04-29T18:07:23.036Z</time></trkpt><trkpt lat="38.5195044" lon="0.3163541"><ele>0.0</ele><time>2026-04-29T18:07:24.035Z</time></trkpt><trkpt lat="38.5195815" lon="0.3164203"><ele>0.0</ele><time>2026-04-29T18:07:25.036Z</time></trkpt><trkpt lat="38.5196479" lon="0.3164871"><ele>0.0</ele><time>2026-04-29T18:07:26.035Z</time></trkpt><trkpt lat="38.51972" lon="0.3165541"><ele>0.0</ele><time>2026-04-29T18:07:27.035Z</time></trkpt><trkpt lat="38.5197962" lon="0.3166192"><ele>0.0</ele><time>2026-04-29T18:07:28.035Z</time></trkpt><trkpt lat="38.5198702" lon="0.3166844"><ele>0.0</ele><time>2026-04-29T18:07:29.035Z</time></trkpt><trkpt lat="38.5200171" lon="0.3168051"><ele>0.0</ele><time>2026-04-29T18:07:31.035Z</time></trkpt><trkpt lat="38.5200886" lon="0.3168637"><ele>0.0</ele><time>2026-04-29T18:07:32.036Z</time></trkpt><trkpt lat="38.5201633" lon="0.3169233"><ele>0.0</ele><time>2026-04-29T18:07:33.035Z</time></trkpt><trkpt lat="38.5202355" lon="0.3169861"><ele>0.0</ele><time>2026-04-29T18:07:34.036Z</time></trkpt><trkpt lat="38.5203096" lon="0.3170543"><ele>0.0</ele><time>2026-04-29T18:07:35.035Z</time></trkpt><trkpt lat="38.5203802" lon="0.3171194"><ele>0.0</ele><time>2026-04-29T18:07:36.035Z</time></trkpt><trkpt lat="38.520455" lon="0.3171856"><ele>0.0</ele><time>2026-04-29T18:07:37.036Z</time></trkpt><trkpt lat="38.5205283" lon="0.317248"><ele>0.0</ele><time>2026-04-29T18:07:38.035Z</time></trkpt><trkpt lat="38.5206047" lon="0.3173079"><ele>0.0</ele><time>2026-04-29T18:07:39.036Z</time></trkpt><trkpt lat="38.52068" lon="0.3173626"><ele>0.0</ele><time>2026-04-29T18:07:40.035Z</time></trkpt><trkpt lat="38.5207551" lon="0.3174201"><ele>0.0</ele><time>2026-04-29T18:07:41.036Z</time></trkpt><trkpt lat="38.5208299" lon="0.3174743"><ele>0.0</ele><time>2026-04-29T18:07:42.035Z</time></trkpt><trkpt lat="38.520905" lon="0.3175324"><ele>0.0</ele><time>2026-04-29T18:07:43.035Z</time></trkpt><trkpt lat="38.5209826" lon="0.3175835"><ele>0.0</ele><time>2026-04-29T18:07:44.035Z</time></trkpt><trkpt lat="38.5210565" lon="0.3176438"><ele>0.0</ele><time>2026-04-29T18:07:45.036Z</time></trkpt><trkpt lat="38.5211271" lon="0.317701"><ele>0.0</ele><time>2026-04-29T18:07:46.036Z</time></trkpt><trkpt lat="38.5212" lon="0.3177634"><ele>0.0</ele><time>2026-04-29T18:07:47.035Z</time></trkpt><trkpt lat="38.521272" lon="0.3178267"><ele>0.0</ele><time>2026-04-29T18:07:48.036Z</time></trkpt><trkpt lat="38.5213466" lon="0.3178912"><ele>0.0</ele><time>2026-04-29T18:07:49.035Z</time></trkpt><trkpt lat="38.52142" lon="0.317956"><ele>0.0</ele><time>2026-04-29T18:07:50.036Z</time></trkpt><trkpt lat="38.5215793" lon="0.3181057"><ele>0.0</ele><time>2026-04-29T18:07:52.035Z</time></trkpt><trkpt lat="38.5216504" lon="0.3181811"><ele>0.0</ele><time>2026-04-29T18:07:53.035Z</time></trkpt><trkpt lat="38.5217204" lon="0.3182508"><ele>0.0</ele><time>2026-04-29T18:07:54.036Z</time></trkpt><trkpt lat="38.521785" lon="0.3183304"><ele>0.0</ele><time>2026-04-29T18:07:55.035Z</time></trkpt><trkpt lat="38.5218584" lon="0.3183945"><ele>0.0</ele><time>2026-04-29T18:07:56.035Z</time></trkpt><trkpt lat="38.5219318" lon="0.3184566"><ele>0.0</ele><time>2026-04-29T18:07:57.036Z</time></trkpt><trkpt lat="38.522001" lon="0.3185099"><ele>0.0</ele><time>2026-04-29T18:07:58.035Z</time></trkpt><trkpt lat="38.5220718" lon="0.3185667"><ele>0.0</ele><time>2026-04-29T18:07:59.036Z</time></trkpt><trkpt lat="38.522142" lon="0.3186217"><ele>0.0</ele><time>2026-04-29T18:08:00.035Z</time></trkpt><trkpt lat="38.522211" lon="0.3186788"><ele>0.0</ele><time>2026-04-29T18:08:01.036Z</time></trkpt><trkpt lat="38.5222891" lon="0.3187318"><ele>0.0</ele><time>2026-04-29T18:08:02.036Z</time></trkpt><trkpt lat="38.5223661" lon="0.3187947"><ele>0.0</ele><time>2026-04-29T18:08:03.036Z</time></trkpt><trkpt lat="38.5224358" lon="0.3188598"><ele>0.0</ele><time>2026-04-29T18:08:04.036Z</time></trkpt><trkpt lat="38.5225084" lon="0.3189232"><ele>0.0</ele><time>2026-04-29T18:08:05.035Z</time></trkpt><trkpt lat="38.5225887" lon="0.318981"><ele>0.0</ele><time>2026-04-29T18:08:06.036Z</time></trkpt><trkpt lat="38.5226646" lon="0.3190392"><ele>0.0</ele><time>2026-04-29T18:08:07.036Z</time></trkpt><trkpt lat="38.5227412" lon="0.3191025"><ele>0.0</ele><time>2026-04-29T18:08:08.035Z</time></trkpt><trkpt lat="38.5228163" lon="0.3191675"><ele>0.0</ele><time>2026-04-29T18:08:09.035Z</time></trkpt><trkpt lat="38.5228916" lon="0.3192268"><ele>0.0</ele><time>2026-04-29T18:08:10.036Z</time></trkpt><trkpt lat="38.522961" lon="0.3192874"><ele>0.0</ele><time>2026-04-29T18:08:11.035Z</time></trkpt><trkpt lat="38.5230805" lon="0.3194093"><ele>0.0</ele><time>2026-04-29T18:08:13.035Z</time></trkpt><trkpt lat="38.5231561" lon="0.3194674"><ele>0.0</ele><time>2026-04-29T18:08:14.035Z</time></trkpt><trkpt lat="38.5232342" lon="0.3195241"><ele>0.0</ele><time>2026-04-29T18:08:15.035Z</time></trkpt><trkpt lat="38.5233112" lon="0.3195833"><ele>0.0</ele><time>2026-04-29T18:08:16.035Z</time></trkpt><trkpt lat="38.5233902" lon="0.3196467"><ele>0.0</ele><time>2026-04-29T18:08:17.035Z</time></trkpt><trkpt lat="38.5234689" lon="0.319706"><ele>0.0</ele><time>2026-04-29T18:08:18.035Z</time></trkpt><trkpt lat="38.5235415" lon="0.3197686"><ele>0.0</ele><time>2026-04-29T18:08:19.035Z</time></trkpt><trkpt lat="38.5236189" lon="0.3198318"><ele>0.0</ele><time>2026-04-29T18:08:20.035Z</time></trkpt><trkpt lat="38.5236943" lon="0.3198948"><ele>0.0</ele><time>2026-04-29T18:08:21.035Z</time></trkpt><trkpt lat="38.5237644" lon="0.319965"><ele>0.0</ele><time>2026-04-29T18:08:22.035Z</time></trkpt><trkpt lat="38.5238355" lon="0.320034"><ele>0.0</ele><time>2026-04-29T18:08:23.036Z</time></trkpt><trkpt lat="38.5239042" lon="0.3200968"><ele>0.0</ele><time>2026-04-29T18:08:24.035Z</time></trkpt><trkpt lat="38.5239783" lon="0.3201597"><ele>0.0</ele><time>2026-04-29T18:08:25.035Z</time></trkpt><trkpt lat="38.5240545" lon="0.3202274"><ele>0.0</ele><time>2026-04-29T18:08:26.036Z</time></trkpt><trkpt lat="38.5241296" lon="0.3202873"><ele>0.0</ele><time>2026-04-29T18:08:27.036Z</time></trkpt><trkpt lat="38.5242062" lon="0.3203525"><ele>0.0</ele><time>2026-04-29T18:08:28.035Z</time></trkpt><trkpt lat="38.5242784" lon="0.3204178"><ele>0.0</ele><time>2026-04-29T18:08:29.035Z</time></trkpt><trkpt lat="38.5243503" lon="0.3204784"><ele>0.0</ele><time>2026-04-29T18:08:30.035Z</time></trkpt><trkpt lat="38.5244248" lon="0.3205395"><ele>0.0</ele><time>2026-04-29T18:08:31.035Z</time></trkpt><trkpt lat="38.5244983" lon="0.3206015"><ele>0.0</ele><time>2026-04-29T18:08:32.035Z</time></trkpt><trkpt lat="38.5246477" lon="0.3207309"><ele>0.0</ele><time>2026-04-29T18:08:34.036Z</time></trkpt><trkpt lat="38.5247246" lon="0.3207929"><ele>0.0</ele><time>2026-04-29T18:08:35.035Z</time></trkpt><trkpt lat="38.5247999" lon="0.3208574"><ele>0.0</ele><time>2026-04-29T18:08:36.035Z</time></trkpt><trkpt lat="38.5248721" lon="0.3209149"><ele>0.0</ele><time>2026-04-29T18:08:37.035Z</time></trkpt><trkpt lat="38.5249468" lon="0.3209778"><ele>0.0</ele><time>2026-04-29T18:08:38.035Z</time></trkpt><trkpt lat="38.5250231" lon="0.3210411"><ele>0.0</ele><time>2026-04-29T18:08:39.036Z</time></trkpt><trkpt lat="38.5250982" lon="0.3211029"><ele>0.0</ele><time>2026-04-29T18:08:40.035Z</time></trkpt><trkpt lat="38.5251718" lon="0.3211649"><ele>0.0</ele><time>2026-04-29T18:08:41.036Z</time></trkpt><trkpt lat="38.5252467" lon="0.3212249"><ele>0.0</ele><time>2026-04-29T18:08:42.035Z</time></trkpt><trkpt lat="38.5253204" lon="0.3212837"><ele>0.0</ele><time>2026-04-29T18:08:43.035Z</time></trkpt><trkpt lat="38.5253952" lon="0.3213463"><ele>0.0</ele><time>2026-04-29T18:08:44.035Z</time></trkpt><trkpt lat="38.5254714" lon="0.3214112"><ele>0.0</ele><time>2026-04-29T18:08:45.036Z</time></trkpt><trkpt lat="38.5255495" lon="0.3214723"><ele>0.0</ele><time>2026-04-29T18:08:46.036Z</time></trkpt><trkpt lat="38.5256238" lon="0.3215327"><ele>0.0</ele><time>2026-04-29T18:08:47.035Z</time></trkpt><trkpt lat="38.5256896" lon="0.3215922"><ele>0.0</ele><time>2026-04-29T18:08:48.035Z</time></trkpt><trkpt lat="38.5257561" lon="0.3216535"><ele>0.0</ele><time>2026-04-29T18:08:49.035Z</time></trkpt><trkpt lat="38.5258299" lon="0.3217192"><ele>0.0</ele><time>2026-04-29T18:08:50.036Z</time></trkpt><trkpt lat="38.5259089" lon="0.3217873"><ele>0.0</ele><time>2026-04-29T18:08:51.036Z</time></trkpt><trkpt lat="38.525986" lon="0.3218512"><ele>0.0</ele><time>2026-04-29T18:08:52.036Z</time></trkpt><trkpt lat="38.5260629" lon="0.3219144"><ele>0.0</ele><time>2026-04-29T18:08:53.035Z</time></trkpt><trkpt lat="38.5262071" lon="0.3220252"><ele>0.0</ele><time>2026-04-29T18:08:55.035Z</time></trkpt><trkpt lat="38.5262777" lon="0.3220802"><ele>0.0</ele><time>2026-04-29T18:08:56.036Z</time></trkpt><trkpt lat="38.5263506" lon="0.3221324"><ele>0.0</ele><time>2026-04-29T18:08:57.036Z</time></trkpt><trkpt lat="38.5264222" lon="0.3221846"><ele>0.0</ele><time>2026-04-29T18:08:58.036Z</time></trkpt><trkpt lat="38.5264981" lon="0.3222407"><ele>0.0</ele><time>2026-04-29T18:08:59.036Z</time></trkpt><trkpt lat="38.5265745" lon="0.3222989"><ele>0.0</ele><time>2026-04-29T18:09:00.036Z</time></trkpt><trkpt lat="38.5266302" lon="0.3223654"><ele>0.0</ele><time>2026-04-29T18:09:01.035Z</time></trkpt><trkpt lat="38.5267007" lon="0.3224264"><ele>0.0</ele><time>2026-04-29T18:09:02.035Z</time></trkpt><trkpt lat="38.5267738" lon="0.3224962"><ele>0.0</ele><time>2026-04-29T18:09:03.035Z</time></trkpt><trkpt lat="38.5268411" lon="0.3225637"><ele>0.0</ele><time>2026-04-29T18:09:04.035Z</time></trkpt><trkpt lat="38.5269164" lon="0.3226232"><ele>0.0</ele><time>2026-04-29T18:09:05.036Z</time></trkpt><trkpt lat="38.526993" lon="0.3226819"><ele>0.0</ele><time>2026-04-29T18:09:06.036Z</time></trkpt><trkpt lat="38.5270697" lon="0.3227403"><ele>0.0</ele><time>2026-04-29T18:09:07.036Z</time></trkpt><trkpt lat="38.5271434" lon="0.3227999"><ele>0.0</ele><time>2026-04-29T18:09:08.035Z</time></trkpt><trkpt lat="38.5272167" lon="0.3228658"><ele>0.0</ele><time>2026-04-29T18:09:09.035Z</time></trkpt><trkpt lat="38.52729" lon="0.3229295"><ele>0.0</ele><time>2026-04-29T18:09:10.036Z</time></trkpt><trkpt lat="38.5273662" lon="0.3229915"><ele>0.0</ele><time>2026-04-29T18:09:11.036Z</time></trkpt><trkpt lat="38.5274403" lon="0.3230556"><ele>0.0</ele><time>2026-04-29T18:09:12.035Z</time></trkpt><trkpt lat="38.5275177" lon="0.3231196"><ele>0.0</ele><time>2026-04-29T18:09:13.036Z</time></trkpt><trkpt lat="38.5275885" lon="0.3231872"><ele>0.0</ele><time>2026-04-29T18:09:14.036Z</time></trkpt><trkpt lat="38.5276617" lon="0.3232515"><ele>0.0</ele><time>2026-04-29T18:09:15.035Z</time></trkpt><trkpt lat="38.5278042" lon="0.3233756"><ele>0.0</ele><time>2026-04-29T18:09:17.035Z</time></trkpt><trkpt lat="38.5278786" lon="0.3234349"><ele>0.0</ele><time>2026-04-29T18:09:18.036Z</time></trkpt><trkpt lat="38.5279502" lon="0.3234939"><ele>0.0</ele><time>2026-04-29T18:09:19.036Z</time></trkpt><trkpt lat="38.5280249" lon="0.3235505"><ele>0.0</ele><time>2026-04-29T18:09:20.035Z</time></trkpt><trkpt lat="38.528097" lon="0.3236131"><ele>0.0</ele><time>2026-04-29T18:09:21.035Z</time></trkpt><trkpt lat="38.5281728" lon="0.323678"><ele>0.0</ele><time>2026-04-29T18:09:22.035Z</time></trkpt><trkpt lat="38.5282468" lon="0.3237375"><ele>0.0</ele><time>2026-04-29T18:09:23.035Z</time></trkpt><trkpt lat="38.5283212" lon="0.3237956"><ele>0.0</ele><time>2026-04-29T18:09:24.035Z</time></trkpt><trkpt lat="38.5283935" lon="0.3238567"><ele>0.0</ele><time>2026-04-29T18:09:25.036Z</time></trkpt><trkpt lat="38.5284642" lon="0.3239238"><ele>0.0</ele><time>2026-04-29T18:09:26.035Z</time></trkpt><trkpt lat="38.5285355" lon="0.3239878"><ele>0.0</ele><time>2026-04-29T18:09:27.036Z</time></trkpt><trkpt lat="38.5286073" lon="0.3240451"><ele>0.0</ele><time>2026-04-29T18:09:28.035Z</time></trkpt><trkpt lat="38.5286891" lon="0.3240995"><ele>0.0</ele><time>2026-04-29T18:09:29.036Z</time></trkpt><trkpt lat="38.5287718" lon="0.3241538"><ele>0.0</ele><time>2026-04-29T18:09:30.035Z</time></trkpt><trkpt lat="38.5288466" lon="0.3242119"><ele>0.0</ele><time>2026-04-29T18:09:31.035Z</time></trkpt><trkpt lat="38.5289172" lon="0.3242785"><ele>0.0</ele><time>2026-04-29T18:09:32.035Z</time></trkpt><trkpt lat="38.5289859" lon="0.324347"><ele>0.0</ele><time>2026-04-29T18:09:33.036Z</time></trkpt><trkpt lat="38.5290612" lon="0.324417"><ele>0.0</ele><time>2026-04-29T18:09:34.035Z</time></trkpt><trkpt lat="38.5291307" lon="0.3244829"><ele>0.0</ele><time>2026-04-29T18:09:35.035Z</time></trkpt><trkpt lat="38.5292018" lon="0.3245481"><ele>0.0</ele><time>2026-04-29T18:09:36.035Z</time></trkpt><trkpt lat="38.5293454" lon="0.3246776"><ele>0.0</ele><time>2026-04-29T18:09:38.035Z</time></trkpt><trkpt lat="38.5294251" lon="0.3247416"><ele>0.0</ele><time>2026-04-29T18:09:39.036Z</time></trkpt><trkpt lat="38.5295013" lon="0.3247991"><ele>0.0</ele><time>2026-04-29T18:09:40.036Z</time></trkpt><trkpt lat="38.5295747" lon="0.3248521"><ele>0.0</ele><time>2026-04-29T18:09:41.035Z</time></trkpt><trkpt lat="38.5296485" lon="0.3249092"><ele>0.0</ele><time>2026-04-29T18:09:42.036Z</time></trkpt><trkpt lat="38.5297245" lon="0.3249601"><ele>0.0</ele><time>2026-04-29T18:09:43.035Z</time></trkpt><trkpt lat="38.5297984" lon="0.3250185"><ele>0.0</ele><time>2026-04-29T18:09:44.036Z</time></trkpt><trkpt lat="38.5298647" lon="0.3250842"><ele>0.0</ele><time>2026-04-29T18:09:45.035Z</time></trkpt><trkpt lat="38.5299384" lon="0.3251465"><ele>0.0</ele><time>2026-04-29T18:09:46.035Z</time></trkpt><trkpt lat="38.5300074" lon="0.3252183"><ele>0.0</ele><time>2026-04-29T18:09:47.035Z</time></trkpt><trkpt lat="38.5300801" lon="0.3252816"><ele>0.0</ele><time>2026-04-29T18:09:48.036Z</time></trkpt><trkpt lat="38.5301522" lon="0.3253375"><ele>0.0</ele><time>2026-04-29T18:09:49.036Z</time></trkpt><trkpt lat="38.5302254" lon="0.3254038"><ele>0.0</ele><time>2026-04-29T18:09:50.036Z</time></trkpt><trkpt lat="38.5302943" lon="0.3254749"><ele>0.0</ele><time>2026-04-29T18:09:51.036Z</time></trkpt><trkpt lat="38.5303654" lon="0.3255408"><ele>0.0</ele><time>2026-04-29T18:09:52.036Z</time></trkpt><trkpt lat="38.5304327" lon="0.3256048"><ele>0.0</ele><time>2026-04-29T18:09:53.035Z</time></trkpt><trkpt lat="38.5305051" lon="0.3256682"><ele>0.0</ele><time>2026-04-29T18:09:54.035Z</time></trkpt><trkpt lat="38.5305795" lon="0.325736"><ele>0.0</ele><time>2026-04-29T18:09:55.035Z</time></trkpt><trkpt lat="38.5306505" lon="0.3257926"><ele>0.0</ele><time>2026-04-29T18:09:56.036Z</time></trkpt><trkpt lat="38.530722" lon="0.3258463"><ele>0.0</ele><time>2026-04-29T18:09:57.035Z</time></trkpt><trkpt lat="38.5308702" lon="0.3259664"><ele>0.0</ele><time>2026-04-29T18:09:59.036Z</time></trkpt><trkpt lat="38.5309434" lon="0.32603"><ele>0.0</ele><time>2026-04-29T18:10:00.036Z</time></trkpt><trkpt lat="38.5310197" lon="0.3260931"><ele>0.0</ele><time>2026-04-29T18:10:01.035Z</time></trkpt><trkpt lat="38.5310933" lon="0.3261567"><ele>0.0</ele><time>2026-04-29T18:10:02.035Z</time></trkpt><trkpt lat="38.5311668" lon="0.3262183"><ele>0.0</ele><time>2026-04-29T18:10:03.036Z</time></trkpt><trkpt lat="38.5312415" lon="0.3262813"><ele>0.0</ele><time>2026-04-29T18:10:04.035Z</time></trkpt><trkpt lat="38.5313152" lon="0.3263416"><ele>0.0</ele><time>2026-04-29T18:10:05.036Z</time></trkpt><trkpt lat="38.5313898" lon="0.3264029"><ele>0.0</ele><time>2026-04-29T18:10:06.035Z</time></trkpt><trkpt lat="38.5314633" lon="0.326468"><ele>0.0</ele><time>2026-04-29T18:10:07.035Z</time></trkpt><trkpt lat="38.531538" lon="0.3265316"><ele>0.0</ele><time>2026-04-29T18:10:08.035Z</time></trkpt><trkpt lat="38.5316131" lon="0.3265947"><ele>0.0</ele><time>2026-04-29T18:10:09.035Z</time></trkpt><trkpt lat="38.5316912" lon="0.3266578"><ele>0.0</ele><time>2026-04-29T18:10:10.034Z</time></trkpt><trkpt lat="38.5317635" lon="0.3267201"><ele>0.0</ele><time>2026-04-29T18:10:11.034Z</time></trkpt><trkpt lat="38.5318338" lon="0.3267819"><ele>0.0</ele><time>2026-04-29T18:10:12.034Z</time></trkpt><trkpt lat="38.5319071" lon="0.3268404"><ele>0.0</ele><time>2026-04-29T18:10:13.035Z</time></trkpt><trkpt lat="38.5319787" lon="0.3269002"><ele>0.0</ele><time>2026-04-29T18:10:14.034Z</time></trkpt><trkpt lat="38.5320501" lon="0.3269615"><ele>0.0</ele><time>2026-04-29T18:10:15.034Z</time></trkpt><trkpt lat="38.5321234" lon="0.3270215"><ele>0.0</ele><time>2026-04-29T18:10:16.034Z</time></trkpt><trkpt lat="38.532198" lon="0.3270831"><ele>0.0</ele><time>2026-04-29T18:10:17.034Z</time></trkpt><trkpt lat="38.5322719" lon="0.3271433"><ele>0.0</ele><time>2026-04-29T18:10:18.034Z</time></trkpt><trkpt lat="38.5323453" lon="0.3272029"><ele>0.0</ele><time>2026-04-29T18:10:19.035Z</time></trkpt><trkpt lat="38.5324997" lon="0.3273243"><ele>0.0</ele><time>2026-04-29T18:10:21.035Z</time></trkpt><trkpt lat="38.5325792" lon="0.3273877"><ele>0.0</ele><time>2026-04-29T18:10:22.035Z</time></trkpt><trkpt lat="38.5326566" lon="0.327448"><ele>0.0</ele><time>2026-04-29T18:10:23.034Z</time></trkpt><trkpt lat="38.5327318" lon="0.3275066"><ele>0.0</ele><time>2026-04-29T18:10:24.035Z</time></trkpt><trkpt lat="38.5328037" lon="0.3275651"><ele>0.0</ele><time>2026-04-29T18:10:25.035Z</time></trkpt><trkpt lat="38.5328768" lon="0.327624"><ele>0.0</ele><time>2026-04-29T18:10:26.034Z</time></trkpt><trkpt lat="38.5329462" lon="0.3276819"><ele>0.0</ele><time>2026-04-29T18:10:27.035Z</time></trkpt><trkpt lat="38.5330184" lon="0.3277407"><ele>0.0</ele><time>2026-04-29T18:10:28.034Z</time></trkpt><trkpt lat="38.5330934" lon="0.3277998"><ele>0.0</ele><time>2026-04-29T18:10:29.034Z</time></trkpt><trkpt lat="38.5331697" lon="0.327861"><ele>0.0</ele><time>2026-04-29T18:10:30.035Z</time></trkpt><trkpt lat="38.5332447" lon="0.3279189"><ele>0.0</ele><time>2026-04-29T18:10:31.035Z</time></trkpt><trkpt lat="38.533317" lon="0.3279815"><ele>0.0</ele><time>2026-04-29T18:10:32.035Z</time></trkpt><trkpt lat="38.5333914" lon="0.3280431"><ele>0.0</ele><time>2026-04-29T18:10:33.034Z</time></trkpt><trkpt lat="38.5334678" lon="0.3281021"><ele>0.0</ele><time>2026-04-29T18:10:34.035Z</time></trkpt><trkpt lat="38.5335476" lon="0.3281625"><ele>0.0</ele><time>2026-04-29T18:10:35.034Z</time></trkpt><trkpt lat="38.5336218" lon="0.3282211"><ele>0.0</ele><time>2026-04-29T18:10:36.035Z</time></trkpt><trkpt lat="38.533694" lon="0.328281"><ele>0.0</ele><time>2026-04-29T18:10:37.034Z</time></trkpt><trkpt lat="38.5337655" lon="0.3283394"><ele>0.0</ele><time>2026-04-29T18:10:38.035Z</time></trkpt><trkpt lat="38.5338373" lon="0.3283992"><ele>0.0</ele><time>2026-04-29T18:10:39.035Z</time></trkpt><trkpt lat="38.5339075" lon="0.3284622"><ele>0.0</ele><time>2026-04-29T18:10:40.034Z</time></trkpt><trkpt lat="38.5340566" lon="0.3285946"><ele>0.0</ele><time>2026-04-29T18:10:42.034Z</time></trkpt><trkpt lat="38.5341301" lon="0.328672"><ele>0.0</ele><time>2026-04-29T18:10:43.035Z</time></trkpt><trkpt lat="38.5342007" lon="0.3287333"><ele>0.0</ele><time>2026-04-29T18:10:44.034Z</time></trkpt><trkpt lat="38.5342752" lon="0.328793"><ele>0.0</ele><time>2026-04-29T18:10:45.034Z</time></trkpt><trkpt lat="38.5343471" lon="0.3288535"><ele>0.0</ele><time>2026-04-29T18:10:46.034Z</time></trkpt><trkpt lat="38.5344201" lon="0.3289118"><ele>0.0</ele><time>2026-04-29T18:10:47.035Z</time></trkpt><trkpt lat="38.5344922" lon="0.3289654"><ele>0.0</ele><time>2026-04-29T18:10:48.034Z</time></trkpt><trkpt lat="38.5345653" lon="0.3290219"><ele>0.0</ele><time>2026-04-29T18:10:49.034Z</time></trkpt><trkpt lat="38.534644" lon="0.3290804"><ele>0.0</ele><time>2026-04-29T18:10:50.035Z</time></trkpt><trkpt lat="38.5347199" lon="0.3291416"><ele>0.0</ele><time>2026-04-29T18:10:51.035Z</time></trkpt><trkpt lat="38.534795" lon="0.3292013"><ele>0.0</ele><time>2026-04-29T18:10:52.035Z</time></trkpt><trkpt lat="38.534867" lon="0.3292586"><ele>0.0</ele><time>2026-04-29T18:10:53.035Z</time></trkpt><trkpt lat="38.5349404" lon="0.3293174"><ele>0.0</ele><time>2026-04-29T18:10:54.034Z</time></trkpt><trkpt lat="38.5350165" lon="0.3293754"><ele>0.0</ele><time>2026-04-29T18:10:55.035Z</time></trkpt><trkpt lat="38.5350899" lon="0.3294366"><ele>0.0</ele><time>2026-04-29T18:10:56.035Z</time></trkpt><trkpt lat="38.5351618" lon="0.3295006"><ele>0.0</ele><time>2026-04-29T18:10:57.034Z</time></trkpt><trkpt lat="38.5352335" lon="0.3295633"><ele>0.0</ele><time>2026-04-29T18:10:58.035Z</time></trkpt><trkpt lat="38.5353068" lon="0.3296309"><ele>0.0</ele><time>2026-04-29T18:10:59.034Z</time></trkpt><trkpt lat="38.5353787" lon="0.3296974"><ele>0.0</ele><time>2026-04-29T18:11:00.034Z</time></trkpt><trkpt lat="38.5354377" lon="0.3297641"><ele>0.0</ele><time>2026-04-29T18:11:01.034Z</time></trkpt><trkpt lat="38.5355785" lon="0.3298951"><ele>0.0</ele><time>2026-04-29T18:11:03.035Z</time></trkpt><trkpt lat="38.5356512" lon="0.3299632"><ele>0.0</ele><time>2026-04-29T18:11:04.035Z</time></trkpt><trkpt lat="38.5357259" lon="0.3300313"><ele>0.0</ele><time>2026-04-29T18:11:05.034Z</time></trkpt><trkpt lat="38.5357996" lon="0.3301003"><ele>0.0</ele><time>2026-04-29T18:11:06.034Z</time></trkpt><trkpt lat="38.5358713" lon="0.3301558"><ele>0.0</ele><time>2026-04-29T18:11:07.035Z</time></trkpt><trkpt lat="38.5359431" lon="0.3302178"><ele>0.0</ele><time>2026-04-29T18:11:08.035Z</time></trkpt><trkpt lat="38.5360121" lon="0.3302764"><ele>0.0</ele><time>2026-04-29T18:11:09.034Z</time></trkpt><trkpt lat="38.5360805" lon="0.3303316"><ele>0.0</ele><time>2026-04-29T18:11:10.034Z</time></trkpt><trkpt lat="38.5361504" lon="0.3303853"><ele>0.0</ele><time>2026-04-29T18:11:11.035Z</time></trkpt><trkpt lat="38.536229" lon="0.3304508"><ele>0.0</ele><time>2026-04-29T18:11:12.035Z</time></trkpt><trkpt lat="38.5363074" lon="0.3305191"><ele>0.0</ele><time>2026-04-29T18:11:13.034Z</time></trkpt><trkpt lat="38.5363873" lon="0.3305745"><ele>0.0</ele><time>2026-04-29T18:11:14.034Z</time></trkpt><trkpt lat="38.5364587" lon="0.330634"><ele>0.0</ele><time>2026-04-29T18:11:15.034Z</time></trkpt><trkpt lat="38.5365244" lon="0.3306881"><ele>0.0</ele><time>2026-04-29T18:11:16.034Z</time></trkpt><trkpt lat="38.5365983" lon="0.3307454"><ele>0.0</ele><time>2026-04-29T18:11:17.034Z</time></trkpt><trkpt lat="38.5366719" lon="0.3308061"><ele>0.0</ele><time>2026-04-29T18:11:18.035Z</time></trkpt><trkpt lat="38.5367493" lon="0.330865"><ele>0.0</ele><time>2026-04-29T18:11:19.034Z</time></trkpt><trkpt lat="38.5368302" lon="0.3309208"><ele>0.0</ele><time>2026-04-29T18:11:20.034Z</time></trkpt><trkpt lat="38.5369104" lon="0.3309781"><ele>0.0</ele><time>2026-04-29T18:11:21.035Z</time></trkpt><trkpt lat="38.5369811" lon="0.3310368"><ele>0.0</ele><time>2026-04-29T18:11:22.034Z</time></trkpt><trkpt lat="38.537132" lon="0.3311399"><ele>0.0</ele><time>2026-04-29T18:11:24.034Z</time></trkpt><trkpt lat="38.5372098" lon="0.3311928"><ele>0.0</ele><time>2026-04-29T18:11:25.035Z</time></trkpt><trkpt lat="38.5372849" lon="0.3312475"><ele>0.0</ele><time>2026-04-29T18:11:26.034Z</time></trkpt><trkpt lat="38.5373585" lon="0.3313124"><ele>0.0</ele><time>2026-04-29T18:11:27.034Z</time></trkpt><trkpt lat="38.5374261" lon="0.3313765"><ele>0.0</ele><time>2026-04-29T18:11:28.035Z</time></trkpt><trkpt lat="38.5374984" lon="0.3314414"><ele>0.0</ele><time>2026-04-29T18:11:29.035Z</time></trkpt><trkpt lat="38.5375747" lon="0.3315047"><ele>0.0</ele><time>2026-04-29T18:11:30.035Z</time></trkpt><trkpt lat="38.5376441" lon="0.3315637"><ele>0.0</ele><time>2026-04-29T18:11:31.034Z</time></trkpt><trkpt lat="38.5377183" lon="0.3316205"><ele>0.0</ele><time>2026-04-29T18:11:32.035Z</time></trkpt><trkpt lat="38.5377947" lon="0.3316769"><ele>0.0</ele><time>2026-04-29T18:11:33.035Z</time></trkpt><trkpt lat="38.5378715" lon="0.3317378"><ele>0.0</ele><time>2026-04-29T18:11:34.035Z</time></trkpt><trkpt lat="38.5379453" lon="0.3317927"><ele>0.0</ele><time>2026-04-29T18:11:35.035Z</time></trkpt><trkpt lat="38.5380144" lon="0.3318547"><ele>0.0</ele><time>2026-04-29T18:11:36.034Z</time></trkpt><trkpt lat="38.5380855" lon="0.3319225"><ele>0.0</ele><time>2026-04-29T18:11:37.034Z</time></trkpt><trkpt lat="38.5381583" lon="0.3319847"><ele>0.0</ele><time>2026-04-29T18:11:38.034Z</time></trkpt><trkpt lat="38.538233" lon="0.3320465"><ele>0.0</ele><time>2026-04-29T18:11:39.034Z</time></trkpt><trkpt lat="38.538308" lon="0.3321081"><ele>0.0</ele><time>2026-04-29T18:11:40.035Z</time></trkpt><trkpt lat="38.5383845" lon="0.332171"><ele>0.0</ele><time>2026-04-29T18:11:41.035Z</time></trkpt><trkpt lat="38.5384597" lon="0.3322328"><ele>0.0</ele><time>2026-04-29T18:11:42.034Z</time></trkpt><trkpt lat="38.5385362" lon="0.3322917"><ele>0.0</ele><time>2026-04-29T18:11:43.034Z</time></trkpt><trkpt lat="38.5386869" lon="0.3324132"><ele>0.0</ele><time>2026-04-29T18:11:45.034Z</time></trkpt><trkpt lat="38.5387529" lon="0.3324734"><ele>0.0</ele><time>2026-04-29T18:11:46.034Z</time></trkpt><trkpt lat="38.5388335" lon="0.3325217"><ele>0.0</ele><time>2026-04-29T18:11:47.035Z</time></trkpt><trkpt lat="38.5389023" lon="0.3325806"><ele>0.0</ele><time>2026-04-29T18:11:48.034Z</time></trkpt><trkpt lat="38.5389692" lon="0.3326334"><ele>0.0</ele><time>2026-04-29T18:11:49.034Z</time></trkpt><trkpt lat="38.5390401" lon="0.3326897"><ele>0.0</ele><time>2026-04-29T18:11:50.034Z</time></trkpt><trkpt lat="38.5391104" lon="0.3327528"><ele>0.0</ele><time>2026-04-29T18:11:51.034Z</time></trkpt><trkpt lat="38.5391818" lon="0.3328168"><ele>0.0</ele><time>2026-04-29T18:11:52.034Z</time></trkpt><trkpt lat="38.5392562" lon="0.3328794"><ele>0.0</ele><time>2026-04-29T18:11:53.034Z</time></trkpt><trkpt lat="38.5393285" lon="0.3329432"><ele>0.0</ele><time>2026-04-29T18:11:54.035Z</time></trkpt><trkpt lat="38.5394" lon="0.3330078"><ele>0.0</ele><time>2026-04-29T18:11:55.035Z</time></trkpt><trkpt lat="38.5394717" lon="0.3330699"><ele>0.0</ele><time>2026-04-29T18:11:56.035Z</time></trkpt><trkpt lat="38.5395465" lon="0.3331313"><ele>0.0</ele><time>2026-04-29T18:11:57.034Z</time></trkpt><trkpt lat="38.5396198" lon="0.3332005"><ele>0.0</ele><time>2026-04-29T18:11:58.034Z</time></trkpt><trkpt lat="38.5396873" lon="0.3332641"><ele>0.0</ele><time>2026-04-29T18:11:59.034Z</time></trkpt><trkpt lat="38.5397566" lon="0.3333319"><ele>0.0</ele><time>2026-04-29T18:12:00.035Z</time></trkpt><trkpt lat="38.5398324" lon="0.3334028"><ele>0.0</ele><time>2026-04-29T18:12:01.035Z</time></trkpt><trkpt lat="38.5399091" lon="0.3334756"><ele>0.0</ele><time>2026-04-29T18:12:02.034Z</time></trkpt><trkpt lat="38.5399758" lon="0.3335421"><ele>0.0</ele><time>2026-04-29T18:12:03.035Z</time></trkpt><trkpt lat="38.5400392" lon="0.3336089"><ele>0.0</ele><time>2026-04-29T18:12:04.034Z</time></trkpt><trkpt lat="38.540186" lon="0.33374"><ele>0.0</ele><time>2026-04-29T18:12:06.034Z</time></trkpt><trkpt lat="38.540267" lon="0.333801"><ele>0.0</ele><time>2026-04-29T18:12:07.035Z</time></trkpt><trkpt lat="38.540347" lon="0.333869"><ele>0.0</ele><time>2026-04-29T18:12:08.034Z</time></trkpt><trkpt lat="38.5404215" lon="0.3339318"><ele>0.0</ele><time>2026-04-29T18:12:09.034Z</time></trkpt><trkpt lat="38.540495" lon="0.3339954"><ele>0.0</ele><time>2026-04-29T18:12:10.034Z</time></trkpt><trkpt lat="38.540568" lon="0.3340571"><ele>0.0</ele><time>2026-04-29T18:12:11.034Z</time></trkpt><trkpt lat="38.5406372" lon="0.3341174"><ele>0.0</ele><time>2026-04-29T18:12:12.034Z</time></trkpt><trkpt lat="38.5407086" lon="0.3341773"><ele>0.0</ele><time>2026-04-29T18:12:13.034Z</time></trkpt><trkpt lat="38.5407845" lon="0.33424"><ele>0.0</ele><time>2026-04-29T18:12:14.034Z</time></trkpt><trkpt lat="38.5408555" lon="0.3343002"><ele>0.0</ele><time>2026-04-29T18:12:15.035Z</time></trkpt><trkpt lat="38.5409256" lon="0.3343605"><ele>0.0</ele><time>2026-04-29T18:12:16.035Z</time></trkpt><trkpt lat="38.5409997" lon="0.3344247"><ele>0.0</ele><time>2026-04-29T18:12:17.034Z</time></trkpt><trkpt lat="38.5410717" lon="0.3344853"><ele>0.0</ele><time>2026-04-29T18:12:18.034Z</time></trkpt><trkpt lat="38.5411479" lon="0.3345464"><ele>0.0</ele><time>2026-04-29T18:12:19.034Z</time></trkpt><trkpt lat="38.5412204" lon="0.3346126"><ele>0.0</ele><time>2026-04-29T18:12:20.034Z</time></trkpt><trkpt lat="38.5412991" lon="0.3346776"><ele>0.0</ele><time>2026-04-29T18:12:21.034Z</time></trkpt><trkpt lat="38.5413806" lon="0.3347323"><ele>0.0</ele><time>2026-04-29T18:12:22.034Z</time></trkpt><trkpt lat="38.5414577" lon="0.3347913"><ele>0.0</ele><time>2026-04-29T18:12:23.035Z</time></trkpt><trkpt lat="38.5415317" lon="0.334855"><ele>0.0</ele><time>2026-04-29T18:12:24.034Z</time></trkpt><trkpt lat="38.5416066" lon="0.3349213"><ele>0.0</ele><time>2026-04-29T18:12:25.035Z</time></trkpt><trkpt lat="38.5417534" lon="0.3350384"><ele>0.0</ele><time>2026-04-29T18:12:27.034Z</time></trkpt><trkpt lat="38.5418254" lon="0.3350951"><ele>0.0</ele><time>2026-04-29T18:12:28.035Z</time></trkpt><trkpt lat="38.5418957" lon="0.3351503"><ele>0.0</ele><time>2026-04-29T18:12:29.034Z</time></trkpt><trkpt lat="38.5419698" lon="0.3352098"><ele>0.0</ele><time>2026-04-29T18:12:30.035Z</time></trkpt><trkpt lat="38.5420448" lon="0.3352694"><ele>0.0</ele><time>2026-04-29T18:12:31.034Z</time></trkpt><trkpt lat="38.542117" lon="0.3353279"><ele>0.0</ele><time>2026-04-29T18:12:32.034Z</time></trkpt><trkpt lat="38.5421915" lon="0.3353877"><ele>0.0</ele><time>2026-04-29T18:12:33.034Z</time></trkpt><trkpt lat="38.5422649" lon="0.3354479"><ele>0.0</ele><time>2026-04-29T18:12:34.035Z</time></trkpt><trkpt lat="38.5423415" lon="0.3355066"><ele>0.0</ele><time>2026-04-29T18:12:35.034Z</time></trkpt><trkpt lat="38.5424123" lon="0.3355637"><ele>0.0</ele><time>2026-04-29T18:12:36.035Z</time></trkpt><trkpt lat="38.5424833" lon="0.3356218"><ele>0.0</ele><time>2026-04-29T18:12:37.035Z</time></trkpt><trkpt lat="38.5425551" lon="0.3356814"><ele>0.0</ele><time>2026-04-29T18:12:38.035Z</time></trkpt><trkpt lat="38.5426285" lon="0.3357412"><ele>0.0</ele><time>2026-04-29T18:12:39.034Z</time></trkpt><trkpt lat="38.5427019" lon="0.3357998"><ele>0.0</ele><time>2026-04-29T18:12:40.034Z</time></trkpt><trkpt lat="38.5427738" lon="0.3358595"><ele>0.0</ele><time>2026-04-29T18:12:41.034Z</time></trkpt><trkpt lat="38.5428466" lon="0.3359245"><ele>0.0</ele><time>2026-04-29T18:12:42.034Z</time></trkpt><trkpt lat="38.5429186" lon="0.3359866"><ele>0.0</ele><time>2026-04-29T18:12:43.035Z</time></trkpt><trkpt lat="38.5429932" lon="0.3360511"><ele>0.0</ele><time>2026-04-29T18:12:44.034Z</time></trkpt><trkpt lat="38.5430654" lon="0.3361115"><ele>0.0</ele><time>2026-04-29T18:12:45.035Z</time></trkpt><trkpt lat="38.5431371" lon="0.3361747"><ele>0.0</ele><time>2026-04-29T18:12:46.035Z</time></trkpt><trkpt lat="38.5432785" lon="0.3362996"><ele>0.0</ele><time>2026-04-29T18:12:48.034Z</time></trkpt><trkpt lat="38.54335" lon="0.3363613"><ele>0.0</ele><time>2026-04-29T18:12:49.034Z</time></trkpt><trkpt lat="38.5434192" lon="0.336424"><ele>0.0</ele><time>2026-04-29T18:12:50.034Z</time></trkpt><trkpt lat="38.5434921" lon="0.3364863"><ele>0.0</ele><time>2026-04-29T18:12:51.034Z</time></trkpt><trkpt lat="38.5435669" lon="0.3365477"><ele>0.0</ele><time>2026-04-29T18:12:52.034Z</time></trkpt><trkpt lat="38.543639" lon="0.3366136"><ele>0.0</ele><time>2026-04-29T18:12:53.034Z</time></trkpt><trkpt lat="38.5437116" lon="0.336679"><ele>0.0</ele><time>2026-04-29T18:12:54.035Z</time></trkpt><trkpt lat="38.5437865" lon="0.336747"><ele>0.0</ele><time>2026-04-29T18:12:55.035Z</time></trkpt><trkpt lat="38.5438572" lon="0.336827"><ele>0.0</ele><time>2026-04-29T18:12:56.034Z</time></trkpt><trkpt lat="38.5439245" lon="0.3369042"><ele>0.0</ele><time>2026-04-29T18:12:57.034Z</time></trkpt><trkpt lat="38.5439954" lon="0.3369696"><ele>0.0</ele><time>2026-04-29T18:12:58.035Z</time></trkpt><trkpt lat="38.5440654" lon="0.3370334"><ele>0.0</ele><time>2026-04-29T18:12:59.035Z</time></trkpt><trkpt lat="38.5441379" lon="0.3370895"><ele>0.0</ele><time>2026-04-29T18:13:00.034Z</time></trkpt><trkpt lat="38.5442088" lon="0.3371476"><ele>0.0</ele><time>2026-04-29T18:13:01.035Z</time></trkpt><trkpt lat="38.5442833" lon="0.3372082"><ele>0.0</ele><time>2026-04-29T18:13:02.034Z</time></trkpt><trkpt lat="38.5443554" lon="0.3372703"><ele>0.0</ele><time>2026-04-29T18:13:03.034Z</time></trkpt><trkpt lat="38.5444283" lon="0.3373365"><ele>0.0</ele><time>2026-04-29T18:13:04.034Z</time></trkpt><trkpt lat="38.5445003" lon="0.3374"><ele>0.0</ele><time>2026-04-29T18:13:05.034Z</time></trkpt><trkpt lat="38.5445718" lon="0.3374645"><ele>0.0</ele><time>2026-04-29T18:13:06.035Z</time></trkpt><trkpt lat="38.5446405" lon="0.337528"><ele>0.0</ele><time>2026-04-29T18:13:07.034Z</time></trkpt><trkpt lat="38.544775" lon="0.3376641"><ele>0.0</ele><time>2026-04-29T18:13:09.035Z</time></trkpt><trkpt lat="38.5448553" lon="0.3377338"><ele>0.0</ele><time>2026-04-29T18:13:10.034Z</time></trkpt><trkpt lat="38.5449368" lon="0.3377929"><ele>0.0</ele><time>2026-04-29T18:13:11.035Z</time></trkpt><trkpt lat="38.5450096" lon="0.3378453"><ele>0.0</ele><time>2026-04-29T18:13:12.034Z</time></trkpt><trkpt lat="38.5450803" lon="0.337904"><ele>0.0</ele><time>2026-04-29T18:13:13.034Z</time></trkpt><trkpt lat="38.5451518" lon="0.3379575"><ele>0.0</ele><time>2026-04-29T18:13:14.034Z</time></trkpt><trkpt lat="38.5452263" lon="0.3380178"><ele>0.0</ele><time>2026-04-29T18:13:15.035Z</time></trkpt><trkpt lat="38.5452987" lon="0.3380778"><ele>0.0</ele><time>2026-04-29T18:13:16.034Z</time></trkpt><trkpt lat="38.5453701" lon="0.33814"><ele>0.0</ele><time>2026-04-29T18:13:17.034Z</time></trkpt><trkpt lat="38.5454393" lon="0.3382003"><ele>0.0</ele><time>2026-04-29T18:13:18.034Z</time></trkpt><trkpt lat="38.5455118" lon="0.3382616"><ele>0.0</ele><time>2026-04-29T18:13:19.034Z</time></trkpt><trkpt lat="38.5455851" lon="0.3383162"><ele>0.0</ele><time>2026-04-29T18:13:20.034Z</time></trkpt><trkpt lat="38.5456584" lon="0.3383719"><ele>0.0</ele><time>2026-04-29T18:13:21.034Z</time></trkpt><trkpt lat="38.5457371" lon="0.338426"><ele>0.0</ele><time>2026-04-29T18:13:22.034Z</time></trkpt><trkpt lat="38.5458184" lon="0.3384805"><ele>0.0</ele><time>2026-04-29T18:13:23.034Z</time></trkpt><trkpt lat="38.5458935" lon="0.338542"><ele>0.0</ele><time>2026-04-29T18:13:24.034Z</time></trkpt><trkpt lat="38.5459611" lon="0.3386074"><ele>0.0</ele><time>2026-04-29T18:13:25.034Z</time></trkpt><trkpt lat="38.5460306" lon="0.3386743"><ele>0.0</ele><time>2026-04-29T18:13:26.035Z</time></trkpt><trkpt lat="38.5460988" lon="0.3387379"><ele>0.0</ele><time>2026-04-29T18:13:27.034Z</time></trkpt><trkpt lat="38.5461674" lon="0.3388029"><ele>0.0</ele><time>2026-04-29T18:13:28.034Z</time></trkpt><trkpt lat="38.5462399" lon="0.3388579"><ele>0.0</ele><time>2026-04-29T18:13:29.035Z</time></trkpt><trkpt lat="38.5463918" lon="0.3389475"><ele>0.0</ele><time>2026-04-29T18:13:31.034Z</time></trkpt><trkpt lat="38.5464607" lon="0.3390121"><ele>0.0</ele><time>2026-04-29T18:13:32.035Z</time></trkpt><trkpt lat="38.5465262" lon="0.3390802"><ele>0.0</ele><time>2026-04-29T18:13:33.034Z</time></trkpt><trkpt lat="38.5465986" lon="0.339148"><ele>0.0</ele><time>2026-04-29T18:13:34.035Z</time></trkpt><trkpt lat="38.5466701" lon="0.3392125"><ele>0.0</ele><time>2026-04-29T18:13:35.035Z</time></trkpt><trkpt lat="38.5467432" lon="0.3392771"><ele>0.0</ele><time>2026-04-29T18:13:36.034Z</time></trkpt><trkpt lat="38.5468149" lon="0.339344"><ele>0.0</ele><time>2026-04-29T18:13:37.034Z</time></trkpt><trkpt lat="38.5468824" lon="0.3394079"><ele>0.0</ele><time>2026-04-29T18:13:38.034Z</time></trkpt><trkpt lat="38.5469479" lon="0.3394665"><ele>0.0</ele><time>2026-04-29T18:13:39.035Z</time></trkpt><trkpt lat="38.5470186" lon="0.3395273"><ele>0.0</ele><time>2026-04-29T18:13:40.034Z</time></trkpt><trkpt lat="38.54709" lon="0.3395864"><ele>0.0</ele><time>2026-04-29T18:13:41.035Z</time></trkpt><trkpt lat="38.5471677" lon="0.339643"><ele>0.0</ele><time>2026-04-29T18:13:42.034Z</time></trkpt><trkpt lat="38.5472433" lon="0.3397012"><ele>0.0</ele><time>2026-04-29T18:13:43.035Z</time></trkpt><trkpt lat="38.5473195" lon="0.3397569"><ele>0.0</ele><time>2026-04-29T18:13:44.034Z</time></trkpt><trkpt lat="38.5473989" lon="0.3398137"><ele>0.0</ele><time>2026-04-29T18:13:45.034Z</time></trkpt><trkpt lat="38.5474748" lon="0.3398729"><ele>0.0</ele><time>2026-04-29T18:13:46.035Z</time></trkpt><trkpt lat="38.5475413" lon="0.3399363"><ele>0.0</ele><time>2026-04-29T18:13:47.034Z</time></trkpt><trkpt lat="38.5476137" lon="0.3399966"><ele>0.0</ele><time>2026-04-29T18:13:48.034Z</time></trkpt><trkpt lat="38.5476869" lon="0.3400633"><ele>0.0</ele><time>2026-04-29T18:13:49.035Z</time></trkpt><trkpt lat="38.5477568" lon="0.3401248"><ele>0.0</ele><time>2026-04-29T18:13:50.035Z</time></trkpt><trkpt lat="38.5479145" lon="0.3402709"><ele>0.0</ele><time>2026-04-29T18:13:52.034Z</time></trkpt><trkpt lat="38.5479854" lon="0.3403317"><ele>0.0</ele><time>2026-04-29T18:13:53.035Z</time></trkpt><trkpt lat="38.5480598" lon="0.3403915"><ele>0.0</ele><time>2026-04-29T18:13:54.034Z</time></trkpt><trkpt lat="38.5481348" lon="0.3404444"><ele>0.0</ele><time>2026-04-29T18:13:55.034Z</time></trkpt><trkpt lat="38.5482" lon="0.3405017"><ele>0.0</ele><time>2026-04-29T18:13:56.034Z</time></trkpt><trkpt lat="38.5482678" lon="0.3405601"><ele>0.0</ele><time>2026-04-29T18:13:57.035Z</time></trkpt><trkpt lat="38.5483343" lon="0.3406185"><ele>0.0</ele><time>2026-04-29T18:13:58.034Z</time></trkpt><trkpt lat="38.548408" lon="0.3406797"><ele>0.0</ele><time>2026-04-29T18:13:59.034Z</time></trkpt><trkpt lat="38.5484816" lon="0.3407382"><ele>0.0</ele><time>2026-04-29T18:14:00.034Z</time></trkpt><trkpt lat="38.5485482" lon="0.3407875"><ele>0.0</ele><time>2026-04-29T18:14:01.034Z</time></trkpt><trkpt lat="38.5486175" lon="0.3408449"><ele>0.0</ele><time>2026-04-29T18:14:02.034Z</time></trkpt><trkpt lat="38.5486874" lon="0.3409003"><ele>0.0</ele><time>2026-04-29T18:14:03.034Z</time></trkpt><trkpt lat="38.5487599" lon="0.3409611"><ele>0.0</ele><time>2026-04-29T18:14:04.034Z</time></trkpt><trkpt lat="38.5488318" lon="0.3410213"><ele>0.0</ele><time>2026-04-29T18:14:05.035Z</time></trkpt><trkpt lat="38.5489048" lon="0.3410861"><ele>0.0</ele><time>2026-04-29T18:14:06.035Z</time></trkpt><trkpt lat="38.5489824" lon="0.3411512"><ele>0.0</ele><time>2026-04-29T18:14:07.035Z</time></trkpt><trkpt lat="38.5490596" lon="0.3412127"><ele>0.0</ele><time>2026-04-29T18:14:08.034Z</time></trkpt><trkpt lat="38.549132" lon="0.3412745"><ele>0.0</ele><time>2026-04-29T18:14:09.034Z</time></trkpt><trkpt lat="38.5492032" lon="0.3413305"><ele>0.0</ele><time>2026-04-29T18:14:10.034Z</time></trkpt><trkpt lat="38.549272" lon="0.3413929"><ele>0.0</ele><time>2026-04-29T18:14:11.035Z</time></trkpt><trkpt lat="38.5494244" lon="0.3415222"><ele>0.0</ele><time>2026-04-29T18:14:13.034Z</time></trkpt><trkpt lat="38.5494968" lon="0.341604"><ele>0.0</ele><time>2026-04-29T18:14:14.034Z</time></trkpt><trkpt lat="38.5495715" lon="0.3416781"><ele>0.0</ele><time>2026-04-29T18:14:15.035Z</time></trkpt><trkpt lat="38.549643" lon="0.3417506"><ele>0.0</ele><time>2026-04-29T18:14:16.034Z</time></trkpt><trkpt lat="38.5497148" lon="0.341819"><ele>0.0</ele><time>2026-04-29T18:14:17.034Z</time></trkpt><trkpt lat="38.5497837" lon="0.3418847"><ele>0.0</ele><time>2026-04-29T18:14:18.034Z</time></trkpt><trkpt lat="38.549852" lon="0.3419542"><ele>0.0</ele><time>2026-04-29T18:14:19.034Z</time></trkpt><trkpt lat="38.5499204" lon="0.3420185"><ele>0.0</ele><time>2026-04-29T18:14:20.035Z</time></trkpt><trkpt lat="38.5499901" lon="0.3420866"><ele>0.0</ele><time>2026-04-29T18:14:21.034Z</time></trkpt><trkpt lat="38.550062" lon="0.3421468"><ele>0.0</ele><time>2026-04-29T18:14:22.034Z</time></trkpt><trkpt lat="38.5501323" lon="0.3422096"><ele>0.0</ele><time>2026-04-29T18:14:23.035Z</time></trkpt><trkpt lat="38.5502065" lon="0.3422771"><ele>0.0</ele><time>2026-04-29T18:14:24.034Z</time></trkpt><trkpt lat="38.5502798" lon="0.3423452"><ele>0.0</ele><time>2026-04-29T18:14:25.034Z</time></trkpt><trkpt lat="38.5503503" lon="0.3424039"><ele>0.0</ele><time>2026-04-29T18:14:26.035Z</time></trkpt><trkpt lat="38.5504275" lon="0.3424621"><ele>0.0</ele><time>2026-04-29T18:14:27.034Z</time></trkpt><trkpt lat="38.5505" lon="0.342519"><ele>0.0</ele><time>2026-04-29T18:14:28.035Z</time></trkpt><trkpt lat="38.5505688" lon="0.3425755"><ele>0.0</ele><time>2026-04-29T18:14:29.035Z</time></trkpt><trkpt lat="38.5506418" lon="0.3426222"><ele>0.0</ele><time>2026-04-29T18:14:30.035Z</time></trkpt><trkpt lat="38.5507164" lon="0.3426698"><ele>0.0</ele><time>2026-04-29T18:14:31.034Z</time></trkpt><trkpt lat="38.5507913" lon="0.3427152"><ele>0.0</ele><time>2026-04-29T18:14:32.035Z</time></trkpt><trkpt lat="38.5509331" lon="0.3428161"><ele>0.0</ele><time>2026-04-29T18:14:34.034Z</time></trkpt><trkpt lat="38.5510053" lon="0.3428732"><ele>0.0</ele><time>2026-04-29T18:14:35.035Z</time></trkpt><trkpt lat="38.5510755" lon="0.3429291"><ele>0.0</ele><time>2026-04-29T18:14:36.034Z</time></trkpt><trkpt lat="38.5511512" lon="0.342991"><ele>0.0</ele><time>2026-04-29T18:14:37.034Z</time></trkpt><trkpt lat="38.5512208" lon="0.3430518"><ele>0.0</ele><time>2026-04-29T18:14:38.034Z</time></trkpt><trkpt lat="38.5512904" lon="0.3431123"><ele>0.0</ele><time>2026-04-29T18:14:39.034Z</time></trkpt><trkpt lat="38.5513617" lon="0.343172"><ele>0.0</ele><time>2026-04-29T18:14:40.034Z</time></trkpt><trkpt lat="38.5514405" lon="0.3432194"><ele>0.0</ele><time>2026-04-29T18:14:41.035Z</time></trkpt><trkpt lat="38.5515177" lon="0.3432755"><ele>0.0</ele><time>2026-04-29T18:14:42.034Z</time></trkpt><trkpt lat="38.5515944" lon="0.3433324"><ele>0.0</ele><time>2026-04-29T18:14:43.035Z</time></trkpt><trkpt lat="38.551671" lon="0.3433929"><ele>0.0</ele><time>2026-04-29T18:14:44.035Z</time></trkpt><trkpt lat="38.5517434" lon="0.3434499"><ele>0.0</ele><time>2026-04-29T18:14:45.034Z</time></trkpt><trkpt lat="38.5518196" lon="0.3435067"><ele>0.0</ele><time>2026-04-29T18:14:46.034Z</time></trkpt><trkpt lat="38.5518864" lon="0.3435751"><ele>0.0</ele><time>2026-04-29T18:14:47.034Z</time></trkpt><trkpt lat="38.5519569" lon="0.3436395"><ele>0.0</ele><time>2026-04-29T18:14:48.033Z</time></trkpt><trkpt lat="38.5520313" lon="0.3436985"><ele>0.0</ele><time>2026-04-29T18:14:49.033Z</time></trkpt><trkpt lat="38.5521052" lon="0.3437605"><ele>0.0</ele><time>2026-04-29T18:14:50.033Z</time></trkpt><trkpt lat="38.5521858" lon="0.3438096"><ele>0.0</ele><time>2026-04-29T18:14:51.033Z</time></trkpt><trkpt lat="38.552263" lon="0.3438623"><ele>0.0</ele><time>2026-04-29T18:14:52.033Z</time></trkpt><trkpt lat="38.5523338" lon="0.343917"><ele>0.0</ele><time>2026-04-29T18:14:53.034Z</time></trkpt><trkpt lat="38.5524766" lon="0.3440453"><ele>0.0</ele><time>2026-04-29T18:14:55.033Z</time></trkpt><trkpt lat="38.5525498" lon="0.3441096"><ele>0.0</ele><time>2026-04-29T18:14:56.034Z</time></trkpt><trkpt lat="38.552622" lon="0.3441713"><ele>0.0</ele><time>2026-04-29T18:14:57.033Z</time></trkpt><trkpt lat="38.5526863" lon="0.344235"><ele>0.0</ele><time>2026-04-29T18:14:58.033Z</time></trkpt><trkpt lat="38.5527553" lon="0.3442969"><ele>0.0</ele><time>2026-04-29T18:14:59.033Z</time></trkpt><trkpt lat="38.5528254" lon="0.3443627"><ele>0.0</ele><time>2026-04-29T18:15:00.033Z</time></trkpt><trkpt lat="38.5528968" lon="0.3444345"><ele>0.0</ele><time>2026-04-29T18:15:01.034Z</time></trkpt><trkpt lat="38.5529714" lon="0.3445123"><ele>0.0</ele><time>2026-04-29T18:15:02.033Z</time></trkpt><trkpt lat="38.5530477" lon="0.3445874"><ele>0.0</ele><time>2026-04-29T18:15:03.034Z</time></trkpt><trkpt lat="38.5531214" lon="0.3446601"><ele>0.0</ele><time>2026-04-29T18:15:04.034Z</time></trkpt><trkpt lat="38.5531904" lon="0.3447333"><ele>0.0</ele><time>2026-04-29T18:15:05.033Z</time></trkpt><trkpt lat="38.5532604" lon="0.3447961"><ele>0.0</ele><time>2026-04-29T18:15:06.033Z</time></trkpt><trkpt lat="38.5533349" lon="0.3448568"><ele>0.0</ele><time>2026-04-29T18:15:07.034Z</time></trkpt><trkpt lat="38.5534111" lon="0.3449221"><ele>0.0</ele><time>2026-04-29T18:15:08.033Z</time></trkpt><trkpt lat="38.5534818" lon="0.3449876"><ele>0.0</ele><time>2026-04-29T18:15:09.034Z</time></trkpt><trkpt lat="38.553555" lon="0.3450515"><ele>0.0</ele><time>2026-04-29T18:15:10.033Z</time></trkpt><trkpt lat="38.5536298" lon="0.3451178"><ele>0.0</ele><time>2026-04-29T18:15:11.033Z</time></trkpt><trkpt lat="38.5537061" lon="0.3451857"><ele>0.0</ele><time>2026-04-29T18:15:12.033Z</time></trkpt><trkpt lat="38.5537782" lon="0.3452553"><ele>0.0</ele><time>2026-04-29T18:15:13.033Z</time></trkpt><trkpt lat="38.5538486" lon="0.3453256"><ele>0.0</ele><time>2026-04-29T18:15:14.033Z</time></trkpt><trkpt lat="38.5539962" lon="0.3454614"><ele>0.0</ele><time>2026-04-29T18:15:16.033Z</time></trkpt><trkpt lat="38.5540614" lon="0.345526"><ele>0.0</ele><time>2026-04-29T18:15:17.033Z</time></trkpt><trkpt lat="38.5541374" lon="0.3455811"><ele>0.0</ele><time>2026-04-29T18:15:18.034Z</time></trkpt><trkpt lat="38.5542112" lon="0.345633"><ele>0.0</ele><time>2026-04-29T18:15:19.033Z</time></trkpt><trkpt lat="38.5542793" lon="0.3456843"><ele>0.0</ele><time>2026-04-29T18:15:20.033Z</time></trkpt><trkpt lat="38.5543502" lon="0.3457463"><ele>0.0</ele><time>2026-04-29T18:15:21.033Z</time></trkpt><trkpt lat="38.5544246" lon="0.345814"><ele>0.0</ele><time>2026-04-29T18:15:22.034Z</time></trkpt><trkpt lat="38.5544926" lon="0.3458722"><ele>0.0</ele><time>2026-04-29T18:15:23.033Z</time></trkpt><trkpt lat="38.5545651" lon="0.3459318"><ele>0.0</ele><time>2026-04-29T18:15:24.034Z</time></trkpt><trkpt lat="38.5546369" lon="0.3459942"><ele>0.0</ele><time>2026-04-29T18:15:25.033Z</time></trkpt><trkpt lat="38.5547126" lon="0.3460479"><ele>0.0</ele><time>2026-04-29T18:15:26.033Z</time></trkpt><trkpt lat="38.5547863" lon="0.3461099"><ele>0.0</ele><time>2026-04-29T18:15:27.033Z</time></trkpt><trkpt lat="38.5548626" lon="0.3461647"><ele>0.0</ele><time>2026-04-29T18:15:28.033Z</time></trkpt><trkpt lat="38.5549279" lon="0.3462264"><ele>0.0</ele><time>2026-04-29T18:15:29.034Z</time></trkpt><trkpt lat="38.5549915" lon="0.346287"><ele>0.0</ele><time>2026-04-29T18:15:30.034Z</time></trkpt><trkpt lat="38.5550632" lon="0.3463473"><ele>0.0</ele><time>2026-04-29T18:15:31.033Z</time></trkpt><trkpt lat="38.5551324" lon="0.3464164"><ele>0.0</ele><time>2026-04-29T18:15:32.033Z</time></trkpt><trkpt lat="38.5552037" lon="0.3464765"><ele>0.0</ele><time>2026-04-29T18:15:33.033Z</time></trkpt><trkpt lat="38.5552765" lon="0.3465458"><ele>0.0</ele><time>2026-04-29T18:15:34.034Z</time></trkpt><trkpt lat="38.5553467" lon="0.3466158"><ele>0.0</ele><time>2026-04-29T18:15:35.034Z</time></trkpt><trkpt lat="38.5554978" lon="0.3467632"><ele>0.0</ele><time>2026-04-29T18:15:37.034Z</time></trkpt><trkpt lat="38.5555594" lon="0.3468209"><ele>0.0</ele><time>2026-04-29T18:15:38.034Z</time></trkpt><trkpt lat="38.5556271" lon="0.3468805"><ele>0.0</ele><time>2026-04-29T18:15:39.033Z</time></trkpt><trkpt lat="38.5556957" lon="0.346939"><ele>0.0</ele><time>2026-04-29T18:15:40.033Z</time></trkpt><trkpt lat="38.5557625" lon="0.3469959"><ele>0.0</ele><time>2026-04-29T18:15:41.034Z</time></trkpt><trkpt lat="38.5558319" lon="0.3470571"><ele>0.0</ele><time>2026-04-29T18:15:42.033Z</time></trkpt><trkpt lat="38.5559003" lon="0.3471172"><ele>0.0</ele><time>2026-04-29T18:15:43.033Z</time></trkpt><trkpt lat="38.5559688" lon="0.3471759"><ele>0.0</ele><time>2026-04-29T18:15:44.033Z</time></trkpt><trkpt lat="38.5560445" lon="0.3472367"><ele>0.0</ele><time>2026-04-29T18:15:45.033Z</time></trkpt><trkpt lat="38.5561196" lon="0.3472964"><ele>0.0</ele><time>2026-04-29T18:15:46.033Z</time></trkpt><trkpt lat="38.5561947" lon="0.347348"><ele>0.0</ele><time>2026-04-29T18:15:47.034Z</time></trkpt><trkpt lat="38.5562667" lon="0.3474079"><ele>0.0</ele><time>2026-04-29T18:15:48.033Z</time></trkpt><trkpt lat="38.5563384" lon="0.34747"><ele>0.0</ele><time>2026-04-29T18:15:49.033Z</time></trkpt><trkpt lat="38.5564113" lon="0.3475259"><ele>0.0</ele><time>2026-04-29T18:15:50.034Z</time></trkpt><trkpt lat="38.5564795" lon="0.347582"><ele>0.0</ele><time>2026-04-29T18:15:51.034Z</time></trkpt><trkpt lat="38.5565504" lon="0.3476355"><ele>0.0</ele><time>2026-04-29T18:15:52.034Z</time></trkpt><trkpt lat="38.5566249" lon="0.3476942"><ele>0.0</ele><time>2026-04-29T18:15:53.033Z</time></trkpt><trkpt lat="38.5566971" lon="0.3477725"><ele>0.0</ele><time>2026-04-29T18:15:54.034Z</time></trkpt><trkpt lat="38.55677" lon="0.3478555"><ele>0.0</ele><time>2026-04-29T18:15:55.033Z</time></trkpt><trkpt lat="38.5568386" lon="0.3479293"><ele>0.0</ele><time>2026-04-29T18:15:56.034Z</time></trkpt><trkpt lat="38.5569816" lon="0.3480643"><ele>0.0</ele><time>2026-04-29T18:15:58.034Z</time></trkpt><trkpt lat="38.5570499" lon="0.348133"><ele>0.0</ele><time>2026-04-29T18:15:59.034Z</time></trkpt><trkpt lat="38.5571229" lon="0.3481977"><ele>0.0</ele><time>2026-04-29T18:16:00.033Z</time></trkpt><trkpt lat="38.5571991" lon="0.348257"><ele>0.0</ele><time>2026-04-29T18:16:01.033Z</time></trkpt><trkpt lat="38.5572792" lon="0.3483108"><ele>0.0</ele><time>2026-04-29T18:16:02.033Z</time></trkpt><trkpt lat="38.5573546" lon="0.348371"><ele>0.0</ele><time>2026-04-29T18:16:03.033Z</time></trkpt><trkpt lat="38.5574295" lon="0.3484287"><ele>0.0</ele><time>2026-04-29T18:16:04.034Z</time></trkpt><trkpt lat="38.5575017" lon="0.3484884"><ele>0.0</ele><time>2026-04-29T18:16:05.033Z</time></trkpt><trkpt lat="38.5575734" lon="0.348547"><ele>0.0</ele><time>2026-04-29T18:16:06.034Z</time></trkpt><trkpt lat="38.5576424" lon="0.348604"><ele>0.0</ele><time>2026-04-29T18:16:07.034Z</time></trkpt><trkpt lat="38.5577136" lon="0.3486558"><ele>0.0</ele><time>2026-04-29T18:16:08.033Z</time></trkpt><trkpt lat="38.5577867" lon="0.3487159"><ele>0.0</ele><time>2026-04-29T18:16:09.034Z</time></trkpt><trkpt lat="38.5578615" lon="0.3487732"><ele>0.0</ele><time>2026-04-29T18:16:10.033Z</time></trkpt><trkpt lat="38.5579339" lon="0.3488373"><ele>0.0</ele><time>2026-04-29T18:16:11.033Z</time></trkpt><trkpt lat="38.5580053" lon="0.3489014"><ele>0.0</ele><time>2026-04-29T18:16:12.034Z</time></trkpt><trkpt lat="38.558078" lon="0.348965"><ele>0.0</ele><time>2026-04-29T18:16:13.034Z</time></trkpt><trkpt lat="38.5581517" lon="0.3490266"><ele>0.0</ele><time>2026-04-29T18:16:14.033Z</time></trkpt><trkpt lat="38.558219" lon="0.3490866"><ele>0.0</ele><time>2026-04-29T18:16:15.033Z</time></trkpt><trkpt lat="38.5582913" lon="0.3491527"><ele>0.0</ele><time>2026-04-29T18:16:16.033Z</time></trkpt><trkpt lat="38.558365" lon="0.3492163"><ele>0.0</ele><time>2026-04-29T18:16:17.033Z</time></trkpt><trkpt lat="38.5585121" lon="0.349345"><ele>0.0</ele><time>2026-04-29T18:16:19.033Z</time></trkpt><trkpt lat="38.5585834" lon="0.3494138"><ele>0.0</ele><time>2026-04-29T18:16:20.034Z</time></trkpt><trkpt lat="38.558655" lon="0.3494739"><ele>0.0</ele><time>2026-04-29T18:16:21.034Z</time></trkpt><trkpt lat="38.5587253" lon="0.3495337"><ele>0.0</ele><time>2026-04-29T18:16:22.034Z</time></trkpt><trkpt lat="38.5587939" lon="0.3495891"><ele>0.0</ele><time>2026-04-29T18:16:23.033Z</time></trkpt><trkpt lat="38.5588581" lon="0.3496399"><ele>0.0</ele><time>2026-04-29T18:16:24.034Z</time></trkpt><trkpt lat="38.5589314" lon="0.3496869"><ele>0.0</ele><time>2026-04-29T18:16:25.034Z</time></trkpt><trkpt lat="38.5590091" lon="0.349738"><ele>0.0</ele><time>2026-04-29T18:16:26.033Z</time></trkpt><trkpt lat="38.5590848" lon="0.3497951"><ele>0.0</ele><time>2026-04-29T18:16:27.034Z</time></trkpt><trkpt lat="38.559158" lon="0.3498531"><ele>0.0</ele><time>2026-04-29T18:16:28.034Z</time></trkpt><trkpt lat="38.5592286" lon="0.3499147"><ele>0.0</ele><time>2026-04-29T18:16:29.033Z</time></trkpt><trkpt lat="38.5592986" lon="0.349971"><ele>0.0</ele><time>2026-04-29T18:16:30.034Z</time></trkpt><trkpt lat="38.5593684" lon="0.3500275"><ele>0.0</ele><time>2026-04-29T18:16:31.033Z</time></trkpt><trkpt lat="38.559436" lon="0.3500841"><ele>0.0</ele><time>2026-04-29T18:16:32.033Z</time></trkpt><trkpt lat="38.5595012" lon="0.3501423"><ele>0.0</ele><time>2026-04-29T18:16:33.033Z</time></trkpt><trkpt lat="38.5595717" lon="0.3502128"><ele>0.0</ele><time>2026-04-29T18:16:34.034Z</time></trkpt><trkpt lat="38.5596505" lon="0.3502729"><ele>0.0</ele><time>2026-04-29T18:16:35.033Z</time></trkpt><trkpt lat="38.5597261" lon="0.3503357"><ele>0.0</ele><time>2026-04-29T18:16:36.033Z</time></trkpt><trkpt lat="38.5597999" lon="0.3503934"><ele>0.0</ele><time>2026-04-29T18:16:37.033Z</time></trkpt><trkpt lat="38.5598748" lon="0.3504363"><ele>0.0</ele><time>2026-04-29T18:16:38.034Z</time></trkpt><trkpt lat="38.5599481" lon="0.3504923"><ele>0.0</ele><time>2026-04-29T18:16:39.034Z</time></trkpt><trkpt lat="38.5600983" lon="0.3506116"><ele>0.0</ele><time>2026-04-29T18:16:41.033Z</time></trkpt><trkpt lat="38.5601717" lon="0.3506715"><ele>0.0</ele><time>2026-04-29T18:16:42.034Z</time></trkpt><trkpt lat="38.5602409" lon="0.3507301"><ele>0.0</ele><time>2026-04-29T18:16:43.034Z</time></trkpt><trkpt lat="38.5603134" lon="0.3507975"><ele>0.0</ele><time>2026-04-29T18:16:44.033Z</time></trkpt><trkpt lat="38.5603852" lon="0.350854"><ele>0.0</ele><time>2026-04-29T18:16:45.033Z</time></trkpt><trkpt lat="38.5604611" lon="0.3509089"><ele>0.0</ele><time>2026-04-29T18:16:46.033Z</time></trkpt><trkpt lat="38.5605363" lon="0.350965"><ele>0.0</ele><time>2026-04-29T18:16:47.034Z</time></trkpt><trkpt lat="38.5606112" lon="0.3510291"><ele>0.0</ele><time>2026-04-29T18:16:48.034Z</time></trkpt><trkpt lat="38.5606838" lon="0.3510839"><ele>0.0</ele><time>2026-04-29T18:16:49.034Z</time></trkpt><trkpt lat="38.5607596" lon="0.351139"><ele>0.0</ele><time>2026-04-29T18:16:50.034Z</time></trkpt><trkpt lat="38.5608317" lon="0.351198"><ele>0.0</ele><time>2026-04-29T18:16:51.034Z</time></trkpt><trkpt lat="38.5609037" lon="0.3512578"><ele>0.0</ele><time>2026-04-29T18:16:52.033Z</time></trkpt><trkpt lat="38.5609723" lon="0.3513151"><ele>0.0</ele><time>2026-04-29T18:16:53.034Z</time></trkpt><trkpt lat="38.5610432" lon="0.3513736"><ele>0.0</ele><time>2026-04-29T18:16:54.033Z</time></trkpt><trkpt lat="38.5611151" lon="0.3514317"><ele>0.0</ele><time>2026-04-29T18:16:55.033Z</time></trkpt><trkpt lat="38.5611896" lon="0.3514942"><ele>0.0</ele><time>2026-04-29T18:16:56.034Z</time></trkpt><trkpt lat="38.5612632" lon="0.3515518"><ele>0.0</ele><time>2026-04-29T18:16:57.033Z</time></trkpt><trkpt lat="38.561335" lon="0.3516096"><ele>0.0</ele><time>2026-04-29T18:16:58.034Z</time></trkpt><trkpt lat="38.5614028" lon="0.3516684"><ele>0.0</ele><time>2026-04-29T18:16:59.033Z</time></trkpt><trkpt lat="38.5614795" lon="0.3517324"><ele>0.0</ele><time>2026-04-29T18:17:00.033Z</time></trkpt><trkpt lat="38.5616299" lon="0.3518625"><ele>0.0</ele><time>2026-04-29T18:17:02.033Z</time></trkpt><trkpt lat="38.5617028" lon="0.3519321"><ele>0.0</ele><time>2026-04-29T18:17:03.033Z</time></trkpt><trkpt lat="38.5617721" lon="0.3519952"><ele>0.0</ele><time>2026-04-29T18:17:04.033Z</time></trkpt><trkpt lat="38.5618461" lon="0.3520626"><ele>0.0</ele><time>2026-04-29T18:17:05.034Z</time></trkpt><trkpt lat="38.5619183" lon="0.3521268"><ele>0.0</ele><time>2026-04-29T18:17:06.034Z</time></trkpt><trkpt lat="38.5619902" lon="0.352184"><ele>0.0</ele><time>2026-04-29T18:17:07.033Z</time></trkpt><trkpt lat="38.5620593" lon="0.3522388"><ele>0.0</ele><time>2026-04-29T18:17:08.033Z</time></trkpt><trkpt lat="38.5621317" lon="0.3522966"><ele>0.0</ele><time>2026-04-29T18:17:09.033Z</time></trkpt><trkpt lat="38.5622038" lon="0.3523535"><ele>0.0</ele><time>2026-04-29T18:17:10.033Z</time></trkpt><trkpt lat="38.5622678" lon="0.3524106"><ele>0.0</ele><time>2026-04-29T18:17:11.034Z</time></trkpt><trkpt lat="38.5623313" lon="0.3524646"><ele>0.0</ele><time>2026-04-29T18:17:12.033Z</time></trkpt><trkpt lat="38.5624005" lon="0.3525221"><ele>0.0</ele><time>2026-04-29T18:17:13.033Z</time></trkpt><trkpt lat="38.5624703" lon="0.3525788"><ele>0.0</ele><time>2026-04-29T18:17:14.033Z</time></trkpt><trkpt lat="38.5625418" lon="0.3526416"><ele>0.0</ele><time>2026-04-29T18:17:15.033Z</time></trkpt><trkpt lat="38.5626093" lon="0.3526989"><ele>0.0</ele><time>2026-04-29T18:17:16.033Z</time></trkpt><trkpt lat="38.5626829" lon="0.3527625"><ele>0.0</ele><time>2026-04-29T18:17:17.033Z</time></trkpt><trkpt lat="38.5627592" lon="0.3528305"><ele>0.0</ele><time>2026-04-29T18:17:18.034Z</time></trkpt><trkpt lat="38.5628359" lon="0.3528986"><ele>0.0</ele><time>2026-04-29T18:17:19.033Z</time></trkpt><trkpt lat="38.5629113" lon="0.3529595"><ele>0.0</ele><time>2026-04-29T18:17:20.033Z</time></trkpt><trkpt lat="38.562986" lon="0.3530149"><ele>0.0</ele><time>2026-04-29T18:17:21.034Z</time></trkpt><trkpt lat="38.5631231" lon="0.3531365"><ele>0.0</ele><time>2026-04-29T18:17:23.033Z</time></trkpt><trkpt lat="38.5631907" lon="0.353205"><ele>0.0</ele><time>2026-04-29T18:17:24.034Z</time></trkpt><trkpt lat="38.5632591" lon="0.3532693"><ele>0.0</ele><time>2026-04-29T18:17:25.033Z</time></trkpt><trkpt lat="38.5633343" lon="0.3533371"><ele>0.0</ele><time>2026-04-29T18:17:26.033Z</time></trkpt><trkpt lat="38.5634108" lon="0.3534038"><ele>0.0</ele><time>2026-04-29T18:17:27.034Z</time></trkpt><trkpt lat="38.5634776" lon="0.3534651"><ele>0.0</ele><time>2026-04-29T18:17:28.033Z</time></trkpt><trkpt lat="38.5635455" lon="0.3535251"><ele>0.0</ele><time>2026-04-29T18:17:29.033Z</time></trkpt><trkpt lat="38.5636155" lon="0.3535882"><ele>0.0</ele><time>2026-04-29T18:17:30.033Z</time></trkpt><trkpt lat="38.5636895" lon="0.353657"><ele>0.0</ele><time>2026-04-29T18:17:31.033Z</time></trkpt><trkpt lat="38.5637659" lon="0.3537301"><ele>0.0</ele><time>2026-04-29T18:17:32.034Z</time></trkpt><trkpt lat="38.5638355" lon="0.3537978"><ele>0.0</ele><time>2026-04-29T18:17:33.033Z</time></trkpt><trkpt lat="38.5638992" lon="0.353862"><ele>0.0</ele><time>2026-04-29T18:17:34.034Z</time></trkpt><trkpt lat="38.5639688" lon="0.353925"><ele>0.0</ele><time>2026-04-29T18:17:35.034Z</time></trkpt><trkpt lat="38.5640373" lon="0.3539885"><ele>0.0</ele><time>2026-04-29T18:17:36.033Z</time></trkpt><trkpt lat="38.564104" lon="0.3540457"><ele>0.0</ele><time>2026-04-29T18:17:37.033Z</time></trkpt><trkpt lat="38.5641722" lon="0.3541038"><ele>0.0</ele><time>2026-04-29T18:17:38.034Z</time></trkpt><trkpt lat="38.5642408" lon="0.3541622"><ele>0.0</ele><time>2026-04-29T18:17:39.034Z</time></trkpt><trkpt lat="38.5643089" lon="0.3542344"><ele>0.0</ele><time>2026-04-29T18:17:40.033Z</time></trkpt><trkpt lat="38.5643856" lon="0.354302"><ele>0.0</ele><time>2026-04-29T18:17:41.033Z</time></trkpt><trkpt lat="38.5644612" lon="0.3543756"><ele>0.0</ele><time>2026-04-29T18:17:42.033Z</time></trkpt><trkpt lat="38.5646897" lon="0.3545444"><ele>0.0</ele><time>2026-04-29T18:17:45.033Z</time></trkpt><trkpt lat="38.5647704" lon="0.3545921"><ele>0.0</ele><time>2026-04-29T18:17:46.033Z</time></trkpt><trkpt lat="38.5648548" lon="0.3546428"><ele>0.0</ele><time>2026-04-29T18:17:47.033Z</time></trkpt><trkpt lat="38.5649297" lon="0.3546957"><ele>0.0</ele><time>2026-04-29T18:17:48.033Z</time></trkpt><trkpt lat="38.5650005" lon="0.3547531"><ele>0.0</ele><time>2026-04-29T18:17:49.033Z</time></trkpt><trkpt lat="38.5650721" lon="0.3548156"><ele>0.0</ele><time>2026-04-29T18:17:50.034Z</time></trkpt><trkpt lat="38.5651436" lon="0.3548734"><ele>0.0</ele><time>2026-04-29T18:17:51.033Z</time></trkpt><trkpt lat="38.5652126" lon="0.3549219"><ele>0.0</ele><time>2026-04-29T18:17:52.034Z</time></trkpt><trkpt lat="38.5652823" lon="0.3549741"><ele>0.0</ele><time>2026-04-29T18:17:53.034Z</time></trkpt><trkpt lat="38.5653509" lon="0.355029"><ele>0.0</ele><time>2026-04-29T18:17:54.033Z</time></trkpt><trkpt lat="38.565422" lon="0.3550864"><ele>0.0</ele><time>2026-04-29T18:17:55.033Z</time></trkpt><trkpt lat="38.5654982" lon="0.35514"><ele>0.0</ele><time>2026-04-29T18:17:56.033Z</time></trkpt><trkpt lat="38.565569" lon="0.3552035"><ele>0.0</ele><time>2026-04-29T18:17:57.033Z</time></trkpt><trkpt lat="38.565636" lon="0.3552729"><ele>0.0</ele><time>2026-04-29T18:17:58.033Z</time></trkpt><trkpt lat="38.5657098" lon="0.355339"><ele>0.0</ele><time>2026-04-29T18:17:59.034Z</time></trkpt><trkpt lat="38.5657816" lon="0.3553958"><ele>0.0</ele><time>2026-04-29T18:18:00.034Z</time></trkpt><trkpt lat="38.5658491" lon="0.3554597"><ele>0.0</ele><time>2026-04-29T18:18:01.034Z</time></trkpt><trkpt lat="38.5659227" lon="0.3555204"><ele>0.0</ele><time>2026-04-29T18:18:02.034Z</time></trkpt><trkpt lat="38.5659903" lon="0.355585"><ele>0.0</ele><time>2026-04-29T18:18:03.033Z</time></trkpt><trkpt lat="38.5661264" lon="0.3557203"><ele>0.0</ele><time>2026-04-29T18:18:05.033Z</time></trkpt><trkpt lat="38.5662012" lon="0.3557864"><ele>0.0</ele><time>2026-04-29T18:18:06.034Z</time></trkpt><trkpt lat="38.5662706" lon="0.3558523"><ele>0.0</ele><time>2026-04-29T18:18:07.033Z</time></trkpt><trkpt lat="38.5663446" lon="0.3559177"><ele>0.0</ele><time>2026-04-29T18:18:08.034Z</time></trkpt><trkpt lat="38.5664179" lon="0.3559859"><ele>0.0</ele><time>2026-04-29T18:18:09.034Z</time></trkpt><trkpt lat="38.5664841" lon="0.3560569"><ele>0.0</ele><time>2026-04-29T18:18:10.034Z</time></trkpt><trkpt lat="38.5665578" lon="0.3561218"><ele>0.0</ele><time>2026-04-29T18:18:11.033Z</time></trkpt><trkpt lat="38.566631" lon="0.3561879"><ele>0.0</ele><time>2026-04-29T18:18:12.033Z</time></trkpt><trkpt lat="38.5667003" lon="0.3562545"><ele>0.0</ele><time>2026-04-29T18:18:13.034Z</time></trkpt><trkpt lat="38.5667741" lon="0.3563169"><ele>0.0</ele><time>2026-04-29T18:18:14.034Z</time></trkpt><trkpt lat="38.566848" lon="0.3563799"><ele>0.0</ele><time>2026-04-29T18:18:15.033Z</time></trkpt><trkpt lat="38.566917" lon="0.3564345"><ele>0.0</ele><time>2026-04-29T18:18:16.033Z</time></trkpt><trkpt lat="38.5669896" lon="0.3564932"><ele>0.0</ele><time>2026-04-29T18:18:17.034Z</time></trkpt><trkpt lat="38.567059" lon="0.3565545"><ele>0.0</ele><time>2026-04-29T18:18:18.033Z</time></trkpt><trkpt lat="38.5671344" lon="0.3566152"><ele>0.0</ele><time>2026-04-29T18:18:19.034Z</time></trkpt><trkpt lat="38.5672066" lon="0.356675"><ele>0.0</ele><time>2026-04-29T18:18:20.033Z</time></trkpt><trkpt lat="38.5672828" lon="0.3567376"><ele>0.0</ele><time>2026-04-29T18:18:21.033Z</time></trkpt><trkpt lat="38.5673551" lon="0.3568028"><ele>0.0</ele><time>2026-04-29T18:18:22.033Z</time></trkpt><trkpt lat="38.5674241" lon="0.3568652"><ele>0.0</ele><time>2026-04-29T18:18:23.033Z</time></trkpt><trkpt lat="38.5674924" lon="0.3569265"><ele>0.0</ele><time>2026-04-29T18:18:24.034Z</time></trkpt><trkpt lat="38.5676251" lon="0.3570502"><ele>0.0</ele><time>2026-04-29T18:18:26.034Z</time></trkpt><trkpt lat="38.5676978" lon="0.3571112"><ele>0.0</ele><time>2026-04-29T18:18:27.033Z</time></trkpt><trkpt lat="38.5677727" lon="0.3571743"><ele>0.0</ele><time>2026-04-29T18:18:28.033Z</time></trkpt><trkpt lat="38.5678477" lon="0.3572422"><ele>0.0</ele><time>2026-04-29T18:18:29.034Z</time></trkpt><trkpt lat="38.5679199" lon="0.3573017"><ele>0.0</ele><time>2026-04-29T18:18:30.033Z</time></trkpt><trkpt lat="38.567989" lon="0.3573544"><ele>0.0</ele><time>2026-04-29T18:18:31.033Z</time></trkpt><trkpt lat="38.5680615" lon="0.357408"><ele>0.0</ele><time>2026-04-29T18:18:32.033Z</time></trkpt><trkpt lat="38.5681391" lon="0.3574666"><ele>0.0</ele><time>2026-04-29T18:18:33.033Z</time></trkpt><trkpt lat="38.5682175" lon="0.3575192"><ele>0.0</ele><time>2026-04-29T18:18:34.034Z</time></trkpt><trkpt lat="38.5682886" lon="0.3575781"><ele>0.0</ele><time>2026-04-29T18:18:35.033Z</time></trkpt><trkpt lat="38.5683675" lon="0.3576378"><ele>0.0</ele><time>2026-04-29T18:18:36.033Z</time></trkpt><trkpt lat="38.5684421" lon="0.3576964"><ele>0.0</ele><time>2026-04-29T18:18:37.034Z</time></trkpt><trkpt lat="38.5685134" lon="0.3577608"><ele>0.0</ele><time>2026-04-29T18:18:38.033Z</time></trkpt><trkpt lat="38.5685849" lon="0.3578246"><ele>0.0</ele><time>2026-04-29T18:18:39.033Z</time></trkpt><trkpt lat="38.5686508" lon="0.3578839"><ele>0.0</ele><time>2026-04-29T18:18:40.034Z</time></trkpt><trkpt lat="38.5687186" lon="0.3579494"><ele>0.0</ele><time>2026-04-29T18:18:41.033Z</time></trkpt><trkpt lat="38.5687883" lon="0.3580159"><ele>0.0</ele><time>2026-04-29T18:18:42.033Z</time></trkpt><trkpt lat="38.5688556" lon="0.3580756"><ele>0.0</ele><time>2026-04-29T18:18:43.034Z</time></trkpt><trkpt lat="38.5689266" lon="0.358131"><ele>0.0</ele><time>2026-04-29T18:18:44.034Z</time></trkpt><trkpt lat="38.5689983" lon="0.3581958"><ele>0.0</ele><time>2026-04-29T18:18:45.033Z</time></trkpt><trkpt lat="38.56907" lon="0.3582554"><ele>0.0</ele><time>2026-04-29T18:18:46.034Z</time></trkpt><trkpt lat="38.5692085" lon="0.3583878"><ele>0.0</ele><time>2026-04-29T18:18:48.033Z</time></trkpt><trkpt lat="38.5692814" lon="0.358446"><ele>0.0</ele><time>2026-04-29T18:18:49.034Z</time></trkpt><trkpt lat="38.5693507" lon="0.3585137"><ele>0.0</ele><time>2026-04-29T18:18:50.034Z</time></trkpt><trkpt lat="38.5694218" lon="0.3585835"><ele>0.0</ele><time>2026-04-29T18:18:51.034Z</time></trkpt><trkpt lat="38.5694917" lon="0.3586483"><ele>0.0</ele><time>2026-04-29T18:18:52.033Z</time></trkpt><trkpt lat="38.5695631" lon="0.3587186"><ele>0.0</ele><time>2026-04-29T18:18:53.034Z</time></trkpt><trkpt lat="38.5696347" lon="0.3587837"><ele>0.0</ele><time>2026-04-29T18:18:54.033Z</time></trkpt><trkpt lat="38.5697038" lon="0.3588511"><ele>0.0</ele><time>2026-04-29T18:18:55.034Z</time></trkpt><trkpt lat="38.5697734" lon="0.3589166"><ele>0.0</ele><time>2026-04-29T18:18:56.034Z</time></trkpt><trkpt lat="38.5698418" lon="0.3589816"><ele>0.0</ele><time>2026-04-29T18:18:57.033Z</time></trkpt><trkpt lat="38.5699115" lon="0.3590468"><ele>0.0</ele><time>2026-04-29T18:18:58.034Z</time></trkpt><trkpt lat="38.5699848" lon="0.3591085"><ele>0.0</ele><time>2026-04-29T18:18:59.033Z</time></trkpt><trkpt lat="38.5700608" lon="0.3591686"><ele>0.0</ele><time>2026-04-29T18:19:00.033Z</time></trkpt><trkpt lat="38.5701346" lon="0.3592304"><ele>0.0</ele><time>2026-04-29T18:19:01.033Z</time></trkpt><trkpt lat="38.5702053" lon="0.3592919"><ele>0.0</ele><time>2026-04-29T18:19:02.034Z</time></trkpt><trkpt lat="38.570271" lon="0.3593551"><ele>0.0</ele><time>2026-04-29T18:19:03.034Z</time></trkpt><trkpt lat="38.5703403" lon="0.3594156"><ele>0.0</ele><time>2026-04-29T18:19:04.033Z</time></trkpt><trkpt lat="38.5704116" lon="0.3594767"><ele>0.0</ele><time>2026-04-29T18:19:05.033Z</time></trkpt><trkpt lat="38.5704805" lon="0.359537"><ele>0.0</ele><time>2026-04-29T18:19:06.033Z</time></trkpt><trkpt lat="38.5705516" lon="0.3595954"><ele>0.0</ele><time>2026-04-29T18:19:07.034Z</time></trkpt><trkpt lat="38.5706952" lon="0.3597184"><ele>0.0</ele><time>2026-04-29T18:19:09.034Z</time></trkpt><trkpt lat="38.5707637" lon="0.359782"><ele>0.0</ele><time>2026-04-29T18:19:10.033Z</time></trkpt><trkpt lat="38.5708349" lon="0.3598464"><ele>0.0</ele><time>2026-04-29T18:19:11.033Z</time></trkpt><trkpt lat="38.5709066" lon="0.3599093"><ele>0.0</ele><time>2026-04-29T18:19:12.033Z</time></trkpt><trkpt lat="38.5709766" lon="0.3599748"><ele>0.0</ele><time>2026-04-29T18:19:13.033Z</time></trkpt><trkpt lat="38.5710453" lon="0.3600382"><ele>0.0</ele><time>2026-04-29T18:19:14.033Z</time></trkpt><trkpt lat="38.5711151" lon="0.3600981"><ele>0.0</ele><time>2026-04-29T18:19:15.033Z</time></trkpt><trkpt lat="38.5711841" lon="0.3601549"><ele>0.0</ele><time>2026-04-29T18:19:16.034Z</time></trkpt><trkpt lat="38.5712526" lon="0.360212"><ele>0.0</ele><time>2026-04-29T18:19:17.034Z</time></trkpt><trkpt lat="38.5713248" lon="0.360273"><ele>0.0</ele><time>2026-04-29T18:19:18.033Z</time></trkpt><trkpt lat="38.5713908" lon="0.3603333"><ele>0.0</ele><time>2026-04-29T18:19:19.033Z</time></trkpt><trkpt lat="38.5714616" lon="0.3603948"><ele>0.0</ele><time>2026-04-29T18:19:20.034Z</time></trkpt><trkpt lat="38.5715361" lon="0.3604552"><ele>0.0</ele><time>2026-04-29T18:19:21.033Z</time></trkpt><trkpt lat="38.5716144" lon="0.3605154"><ele>0.0</ele><time>2026-04-29T18:19:22.033Z</time></trkpt><trkpt lat="38.5716855" lon="0.3605767"><ele>0.0</ele><time>2026-04-29T18:19:23.034Z</time></trkpt><trkpt lat="38.5717581" lon="0.3606313"><ele>0.0</ele><time>2026-04-29T18:19:24.033Z</time></trkpt><trkpt lat="38.5718317" lon="0.3606886"><ele>0.0</ele><time>2026-04-29T18:19:25.033Z</time></trkpt><trkpt lat="38.5719048" lon="0.3607437"><ele>0.0</ele><time>2026-04-29T18:19:26.034Z</time></trkpt><trkpt lat="38.5719767" lon="0.3608047"><ele>0.0</ele><time>2026-04-29T18:19:27.034Z</time></trkpt><trkpt lat="38.57205" lon="0.3608623"><ele>0.0</ele><time>2026-04-29T18:19:28.033Z</time></trkpt><trkpt lat="38.572195" lon="0.3609865"><ele>0.0</ele><time>2026-04-29T18:19:30.034Z</time></trkpt><trkpt lat="38.5722641" lon="0.3610458"><ele>0.0</ele><time>2026-04-29T18:19:31.034Z</time></trkpt><trkpt lat="38.5723312" lon="0.3611025"><ele>0.0</ele><time>2026-04-29T18:19:32.033Z</time></trkpt><trkpt lat="38.5724023" lon="0.3611579"><ele>0.0</ele><time>2026-04-29T18:19:33.033Z</time></trkpt><trkpt lat="38.5724807" lon="0.3612071"><ele>0.0</ele><time>2026-04-29T18:19:34.034Z</time></trkpt><trkpt lat="38.5725559" lon="0.3612556"><ele>0.0</ele><time>2026-04-29T18:19:35.033Z</time></trkpt><trkpt lat="38.57263" lon="0.3613006"><ele>0.0</ele><time>2026-04-29T18:19:36.032Z</time></trkpt><trkpt lat="38.5727033" lon="0.3613571"><ele>0.0</ele><time>2026-04-29T18:19:37.033Z</time></trkpt><trkpt lat="38.5727734" lon="0.3614112"><ele>0.0</ele><time>2026-04-29T18:19:38.032Z</time></trkpt><trkpt lat="38.5728475" lon="0.361472"><ele>0.0</ele><time>2026-04-29T18:19:39.033Z</time></trkpt><trkpt lat="38.5729214" lon="0.361536"><ele>0.0</ele><time>2026-04-29T18:19:40.032Z</time></trkpt><trkpt lat="38.5729889" lon="0.3616052"><ele>0.0</ele><time>2026-04-29T18:19:41.032Z</time></trkpt><trkpt lat="38.5730558" lon="0.3616706"><ele>0.0</ele><time>2026-04-29T18:19:42.032Z</time></trkpt><trkpt lat="38.5731238" lon="0.3617291"><ele>0.0</ele><time>2026-04-29T18:19:43.033Z</time></trkpt><trkpt lat="38.5731934" lon="0.3617931"><ele>0.0</ele><time>2026-04-29T18:19:44.033Z</time></trkpt><trkpt lat="38.5732662" lon="0.3618569"><ele>0.0</ele><time>2026-04-29T18:19:45.033Z</time></trkpt><trkpt lat="38.5733381" lon="0.361914"><ele>0.0</ele><time>2026-04-29T18:19:46.032Z</time></trkpt><trkpt lat="38.5734099" lon="0.361972"><ele>0.0</ele><time>2026-04-29T18:19:47.032Z</time></trkpt><trkpt lat="38.5734828" lon="0.362036"><ele>0.0</ele><time>2026-04-29T18:19:48.033Z</time></trkpt><trkpt lat="38.5735564" lon="0.3620986"><ele>0.0</ele><time>2026-04-29T18:19:49.033Z</time></trkpt><trkpt lat="38.5736966" lon="0.3622283"><ele>0.0</ele><time>2026-04-29T18:19:51.033Z</time></trkpt><trkpt lat="38.573768" lon="0.3622904"><ele>0.0</ele><time>2026-04-29T18:19:52.032Z</time></trkpt><trkpt lat="38.5738328" lon="0.3623531"><ele>0.0</ele><time>2026-04-29T18:19:53.032Z</time></trkpt><trkpt lat="38.5739051" lon="0.3624137"><ele>0.0</ele><time>2026-04-29T18:19:54.032Z</time></trkpt><trkpt lat="38.573978" lon="0.3624793"><ele>0.0</ele><time>2026-04-29T18:19:55.033Z</time></trkpt><trkpt lat="38.5740481" lon="0.362544"><ele>0.0</ele><time>2026-04-29T18:19:56.033Z</time></trkpt><trkpt lat="38.5741212" lon="0.3626114"><ele>0.0</ele><time>2026-04-29T18:19:57.033Z</time></trkpt><trkpt lat="38.5741918" lon="0.3626905"><ele>0.0</ele><time>2026-04-29T18:19:58.033Z</time></trkpt><trkpt lat="38.5742648" lon="0.3627676"><ele>0.0</ele><time>2026-04-29T18:19:59.032Z</time></trkpt><trkpt lat="38.5743367" lon="0.3628454"><ele>0.0</ele><time>2026-04-29T18:20:00.032Z</time></trkpt><trkpt lat="38.574408" lon="0.3629139"><ele>0.0</ele><time>2026-04-29T18:20:01.032Z</time></trkpt><trkpt lat="38.5744816" lon="0.3629761"><ele>0.0</ele><time>2026-04-29T18:20:02.033Z</time></trkpt><trkpt lat="38.5745533" lon="0.3630393"><ele>0.0</ele><time>2026-04-29T18:20:03.032Z</time></trkpt><trkpt lat="38.5746261" lon="0.3631045"><ele>0.0</ele><time>2026-04-29T18:20:04.032Z</time></trkpt><trkpt lat="38.5746953" lon="0.3631739"><ele>0.0</ele><time>2026-04-29T18:20:05.033Z</time></trkpt><trkpt lat="38.5747664" lon="0.3632426"><ele>0.0</ele><time>2026-04-29T18:20:06.032Z</time></trkpt><trkpt lat="38.5748367" lon="0.3633121"><ele>0.0</ele><time>2026-04-29T18:20:07.032Z</time></trkpt><trkpt lat="38.5749069" lon="0.3633867"><ele>0.0</ele><time>2026-04-29T18:20:08.033Z</time></trkpt><trkpt lat="38.5749727" lon="0.363461"><ele>0.0</ele><time>2026-04-29T18:20:09.033Z</time></trkpt><trkpt lat="38.5750392" lon="0.3635292"><ele>0.0</ele><time>2026-04-29T18:20:10.033Z</time></trkpt><trkpt lat="38.5751814" lon="0.3636721"><ele>0.0</ele><time>2026-04-29T18:20:12.033Z</time></trkpt><trkpt lat="38.5752434" lon="0.3637324"><ele>0.0</ele><time>2026-04-29T18:20:13.033Z</time></trkpt><trkpt lat="38.5753091" lon="0.3638007"><ele>0.0</ele><time>2026-04-29T18:20:14.032Z</time></trkpt><trkpt lat="38.5753785" lon="0.3638633"><ele>0.0</ele><time>2026-04-29T18:20:15.033Z</time></trkpt><trkpt lat="38.5754486" lon="0.3639261"><ele>0.0</ele><time>2026-04-29T18:20:16.033Z</time></trkpt><trkpt lat="38.5755199" lon="0.3639896"><ele>0.0</ele><time>2026-04-29T18:20:17.032Z</time></trkpt><trkpt lat="38.5755956" lon="0.3640295"><ele>0.0</ele><time>2026-04-29T18:20:18.033Z</time></trkpt><trkpt lat="38.5756667" lon="0.3640887"><ele>0.0</ele><time>2026-04-29T18:20:19.033Z</time></trkpt><trkpt lat="38.5757358" lon="0.3641197"><ele>0.0</ele><time>2026-04-29T18:20:20.033Z</time></trkpt><trkpt lat="38.5758069" lon="0.364157"><ele>0.0</ele><time>2026-04-29T18:20:21.032Z</time></trkpt><trkpt lat="38.5758787" lon="0.3642085"><ele>0.0</ele><time>2026-04-29T18:20:22.032Z</time></trkpt><trkpt lat="38.5759444" lon="0.3642648"><ele>0.0</ele><time>2026-04-29T18:20:23.032Z</time></trkpt><trkpt lat="38.5760109" lon="0.364322"><ele>0.0</ele><time>2026-04-29T18:20:24.032Z</time></trkpt><trkpt lat="38.576079" lon="0.3643768"><ele>0.0</ele><time>2026-04-29T18:20:25.032Z</time></trkpt><trkpt lat="38.5761503" lon="0.3644315"><ele>0.0</ele><time>2026-04-29T18:20:26.033Z</time></trkpt><trkpt lat="38.5762175" lon="0.3644895"><ele>0.0</ele><time>2026-04-29T18:20:27.033Z</time></trkpt><trkpt lat="38.5762883" lon="0.3645525"><ele>0.0</ele><time>2026-04-29T18:20:28.032Z</time></trkpt><trkpt lat="38.5763638" lon="0.3646202"><ele>0.0</ele><time>2026-04-29T18:20:29.033Z</time></trkpt><trkpt lat="38.5764361" lon="0.3646902"><ele>0.0</ele><time>2026-04-29T18:20:30.032Z</time></trkpt><trkpt lat="38.5765036" lon="0.3647588"><ele>0.0</ele><time>2026-04-29T18:20:31.033Z</time></trkpt><trkpt lat="38.5766504" lon="0.3648855"><ele>0.0</ele><time>2026-04-29T18:20:33.032Z</time></trkpt><trkpt lat="38.57672" lon="0.3649451"><ele>0.0</ele><time>2026-04-29T18:20:34.032Z</time></trkpt><trkpt lat="38.5767855" lon="0.3650079"><ele>0.0</ele><time>2026-04-29T18:20:35.033Z</time></trkpt><trkpt lat="38.5768535" lon="0.3650682"><ele>0.0</ele><time>2026-04-29T18:20:36.033Z</time></trkpt><trkpt lat="38.5769231" lon="0.3651278"><ele>0.0</ele><time>2026-04-29T18:20:37.032Z</time></trkpt><trkpt lat="38.5769948" lon="0.3651867"><ele>0.0</ele><time>2026-04-29T18:20:38.033Z</time></trkpt><trkpt lat="38.5770652" lon="0.3652533"><ele>0.0</ele><time>2026-04-29T18:20:39.032Z</time></trkpt><trkpt lat="38.5771395" lon="0.3653185"><ele>0.0</ele><time>2026-04-29T18:20:40.033Z</time></trkpt><trkpt lat="38.5772118" lon="0.3653897"><ele>0.0</ele><time>2026-04-29T18:20:41.032Z</time></trkpt><trkpt lat="38.5772807" lon="0.3654642"><ele>0.0</ele><time>2026-04-29T18:20:42.033Z</time></trkpt><trkpt lat="38.5773514" lon="0.3655322"><ele>0.0</ele><time>2026-04-29T18:20:43.032Z</time></trkpt><trkpt lat="38.5774229" lon="0.3656005"><ele>0.0</ele><time>2026-04-29T18:20:44.033Z</time></trkpt><trkpt lat="38.5774925" lon="0.3656716"><ele>0.0</ele><time>2026-04-29T18:20:45.033Z</time></trkpt><trkpt lat="38.5775619" lon="0.3657346"><ele>0.0</ele><time>2026-04-29T18:20:46.032Z</time></trkpt><trkpt lat="38.5776303" lon="0.3658099"><ele>0.0</ele><time>2026-04-29T18:20:47.032Z</time></trkpt><trkpt lat="38.5776973" lon="0.3658693"><ele>0.0</ele><time>2026-04-29T18:20:48.032Z</time></trkpt><trkpt lat="38.57777" lon="0.36593"><ele>0.0</ele><time>2026-04-29T18:20:49.032Z</time></trkpt><trkpt lat="38.5778414" lon="0.3659915"><ele>0.0</ele><time>2026-04-29T18:20:50.032Z</time></trkpt><trkpt lat="38.577906" lon="0.3660401"><ele>0.0</ele><time>2026-04-29T18:20:51.033Z</time></trkpt><trkpt lat="38.5779755" lon="0.3660923"><ele>0.0</ele><time>2026-04-29T18:20:52.032Z</time></trkpt><trkpt lat="38.5780524" lon="0.3661317"><ele>0.0</ele><time>2026-04-29T18:20:53.033Z</time></trkpt><trkpt lat="38.5781939" lon="0.3662479"><ele>0.0</ele><time>2026-04-29T18:20:55.032Z</time></trkpt><trkpt lat="38.5782639" lon="0.3663063"><ele>0.0</ele><time>2026-04-29T18:20:56.032Z</time></trkpt><trkpt lat="38.5783339" lon="0.3663661"><ele>0.0</ele><time>2026-04-29T18:20:57.033Z</time></trkpt><trkpt lat="38.5784079" lon="0.3664251"><ele>0.0</ele><time>2026-04-29T18:20:58.033Z</time></trkpt><trkpt lat="38.5784812" lon="0.3664781"><ele>0.0</ele><time>2026-04-29T18:20:59.032Z</time></trkpt><trkpt lat="38.5785562" lon="0.3665285"><ele>0.0</ele><time>2026-04-29T18:21:00.032Z</time></trkpt><trkpt lat="38.5786254" lon="0.3665985"><ele>0.0</ele><time>2026-04-29T18:21:01.032Z</time></trkpt><trkpt lat="38.5786952" lon="0.3666659"><ele>0.0</ele><time>2026-04-29T18:21:02.032Z</time></trkpt><trkpt lat="38.578768" lon="0.3667254"><ele>0.0</ele><time>2026-04-29T18:21:03.033Z</time></trkpt><trkpt lat="38.5788399" lon="0.3667835"><ele>0.0</ele><time>2026-04-29T18:21:04.033Z</time></trkpt><trkpt lat="38.5789102" lon="0.3668429"><ele>0.0</ele><time>2026-04-29T18:21:05.032Z</time></trkpt><trkpt lat="38.578982" lon="0.3668971"><ele>0.0</ele><time>2026-04-29T18:21:06.033Z</time></trkpt><trkpt lat="38.5790523" lon="0.3669534"><ele>0.0</ele><time>2026-04-29T18:21:07.033Z</time></trkpt><trkpt lat="38.5791207" lon="0.3670147"><ele>0.0</ele><time>2026-04-29T18:21:08.032Z</time></trkpt><trkpt lat="38.5791931" lon="0.3670776"><ele>0.0</ele><time>2026-04-29T18:21:09.033Z</time></trkpt><trkpt lat="38.5792635" lon="0.3671347"><ele>0.0</ele><time>2026-04-29T18:21:10.032Z</time></trkpt><trkpt lat="38.5793366" lon="0.3671919"><ele>0.0</ele><time>2026-04-29T18:21:11.032Z</time></trkpt><trkpt lat="38.5794113" lon="0.3672465"><ele>0.0</ele><time>2026-04-29T18:21:12.033Z</time></trkpt><trkpt lat="38.5794878" lon="0.3673029"><ele>0.0</ele><time>2026-04-29T18:21:13.032Z</time></trkpt><trkpt lat="38.5795601" lon="0.3673595"><ele>0.0</ele><time>2026-04-29T18:21:14.032Z</time></trkpt><trkpt lat="38.579708" lon="0.3674781"><ele>0.0</ele><time>2026-04-29T18:21:16.032Z</time></trkpt><trkpt lat="38.57978" lon="0.3675351"><ele>0.0</ele><time>2026-04-29T18:21:17.033Z</time></trkpt><trkpt lat="38.5798547" lon="0.3675959"><ele>0.0</ele><time>2026-04-29T18:21:18.032Z</time></trkpt><trkpt lat="38.5799252" lon="0.3676466"><ele>0.0</ele><time>2026-04-29T18:21:19.032Z</time></trkpt><trkpt lat="38.5800053" lon="0.3677088"><ele>0.0</ele><time>2026-04-29T18:21:20.032Z</time></trkpt><trkpt lat="38.5800782" lon="0.3677663"><ele>0.0</ele><time>2026-04-29T18:21:21.033Z</time></trkpt><trkpt lat="38.580146" lon="0.3678285"><ele>0.0</ele><time>2026-04-29T18:21:22.033Z</time></trkpt><trkpt lat="38.5802202" lon="0.3678877"><ele>0.0</ele><time>2026-04-29T18:21:23.032Z</time></trkpt><trkpt lat="38.580289" lon="0.3679511"><ele>0.0</ele><time>2026-04-29T18:21:24.032Z</time></trkpt><trkpt lat="38.5803587" lon="0.3680126"><ele>0.0</ele><time>2026-04-29T18:21:25.032Z</time></trkpt><trkpt lat="38.58043" lon="0.3680717"><ele>0.0</ele><time>2026-04-29T18:21:26.033Z</time></trkpt><trkpt lat="38.580503" lon="0.3681365"><ele>0.0</ele><time>2026-04-29T18:21:27.032Z</time></trkpt><trkpt lat="38.5805767" lon="0.3681979"><ele>0.0</ele><time>2026-04-29T18:21:28.033Z</time></trkpt><trkpt lat="38.5806485" lon="0.3682563"><ele>0.0</ele><time>2026-04-29T18:21:29.033Z</time></trkpt><trkpt lat="38.5807201" lon="0.3683177"><ele>0.0</ele><time>2026-04-29T18:21:30.032Z</time></trkpt><trkpt lat="38.5807903" lon="0.3683824"><ele>0.0</ele><time>2026-04-29T18:21:31.032Z</time></trkpt><trkpt lat="38.5808586" lon="0.3684478"><ele>0.0</ele><time>2026-04-29T18:21:32.032Z</time></trkpt><trkpt lat="38.580923" lon="0.3685356"><ele>0.0</ele><time>2026-04-29T18:21:33.032Z</time></trkpt><trkpt lat="38.5809889" lon="0.368619"><ele>0.0</ele><time>2026-04-29T18:21:34.032Z</time></trkpt><trkpt lat="38.5810541" lon="0.3686996"><ele>0.0</ele><time>2026-04-29T18:21:35.032Z</time></trkpt><trkpt lat="38.5811883" lon="0.3688491"><ele>0.0</ele><time>2026-04-29T18:21:37.033Z</time></trkpt><trkpt lat="38.5812613" lon="0.3689161"><ele>0.0</ele><time>2026-04-29T18:21:38.032Z</time></trkpt><trkpt lat="38.5813331" lon="0.3689873"><ele>0.0</ele><time>2026-04-29T18:21:39.033Z</time></trkpt><trkpt lat="38.5813988" lon="0.3690636"><ele>0.0</ele><time>2026-04-29T18:21:40.032Z</time></trkpt><trkpt lat="38.5814693" lon="0.369135"><ele>0.0</ele><time>2026-04-29T18:21:41.032Z</time></trkpt><trkpt lat="38.5815385" lon="0.3691976"><ele>0.0</ele><time>2026-04-29T18:21:42.033Z</time></trkpt><trkpt lat="38.5816066" lon="0.3692607"><ele>0.0</ele><time>2026-04-29T18:21:43.032Z</time></trkpt><trkpt lat="38.581678" lon="0.3693247"><ele>0.0</ele><time>2026-04-29T18:21:44.033Z</time></trkpt><trkpt lat="38.5817511" lon="0.3693896"><ele>0.0</ele><time>2026-04-29T18:21:45.033Z</time></trkpt><trkpt lat="38.5818262" lon="0.3694507"><ele>0.0</ele><time>2026-04-29T18:21:46.033Z</time></trkpt><trkpt lat="38.5818954" lon="0.3695076"><ele>0.0</ele><time>2026-04-29T18:21:47.033Z</time></trkpt><trkpt lat="38.581961" lon="0.3695599"><ele>0.0</ele><time>2026-04-29T18:21:48.032Z</time></trkpt><trkpt lat="38.5820303" lon="0.3696174"><ele>0.0</ele><time>2026-04-29T18:21:49.032Z</time></trkpt><trkpt lat="38.5820972" lon="0.3696729"><ele>0.0</ele><time>2026-04-29T18:21:50.032Z</time></trkpt><trkpt lat="38.582167" lon="0.3697289"><ele>0.0</ele><time>2026-04-29T18:21:51.033Z</time></trkpt><trkpt lat="38.5822397" lon="0.3697928"><ele>0.0</ele><time>2026-04-29T18:21:52.033Z</time></trkpt><trkpt lat="38.5823104" lon="0.3698491"><ele>0.0</ele><time>2026-04-29T18:21:53.033Z</time></trkpt><trkpt lat="38.582385" lon="0.3699067"><ele>0.0</ele><time>2026-04-29T18:21:54.033Z</time></trkpt><trkpt lat="38.5824583" lon="0.3699665"><ele>0.0</ele><time>2026-04-29T18:21:55.033Z</time></trkpt><trkpt lat="38.58253" lon="0.3700265"><ele>0.0</ele><time>2026-04-29T18:21:56.033Z</time></trkpt><trkpt lat="38.5825986" lon="0.3700836"><ele>0.0</ele><time>2026-04-29T18:21:57.032Z</time></trkpt><trkpt lat="38.5827337" lon="0.3701887"><ele>0.0</ele><time>2026-04-29T18:21:59.032Z</time></trkpt><trkpt lat="38.5828066" lon="0.370248"><ele>0.0</ele><time>2026-04-29T18:22:00.032Z</time></trkpt><trkpt lat="38.5828814" lon="0.3703095"><ele>0.0</ele><time>2026-04-29T18:22:01.032Z</time></trkpt><trkpt lat="38.5829535" lon="0.3703683"><ele>0.0</ele><time>2026-04-29T18:22:02.033Z</time></trkpt><trkpt lat="38.5830189" lon="0.3704387"><ele>0.0</ele><time>2026-04-29T18:22:03.033Z</time></trkpt><trkpt lat="38.5830883" lon="0.3705075"><ele>0.0</ele><time>2026-04-29T18:22:04.032Z</time></trkpt><trkpt lat="38.5831571" lon="0.3705684"><ele>0.0</ele><time>2026-04-29T18:22:05.033Z</time></trkpt><trkpt lat="38.5832253" lon="0.370627"><ele>0.0</ele><time>2026-04-29T18:22:06.032Z</time></trkpt><trkpt lat="38.5833009" lon="0.3706922"><ele>0.0</ele><time>2026-04-29T18:22:07.032Z</time></trkpt><trkpt lat="38.583373" lon="0.3707505"><ele>0.0</ele><time>2026-04-29T18:22:08.032Z</time></trkpt><trkpt lat="38.5834423" lon="0.3708084"><ele>0.0</ele><time>2026-04-29T18:22:09.032Z</time></trkpt><trkpt lat="38.5835161" lon="0.3708713"><ele>0.0</ele><time>2026-04-29T18:22:10.033Z</time></trkpt><trkpt lat="38.5835868" lon="0.3709347"><ele>0.0</ele><time>2026-04-29T18:22:11.033Z</time></trkpt><trkpt lat="38.5836638" lon="0.3710039"><ele>0.0</ele><time>2026-04-29T18:22:12.032Z</time></trkpt><trkpt lat="38.5837352" lon="0.3710648"><ele>0.0</ele><time>2026-04-29T18:22:13.032Z</time></trkpt><trkpt lat="38.5838069" lon="0.3711205"><ele>0.0</ele><time>2026-04-29T18:22:14.033Z</time></trkpt><trkpt lat="38.5838814" lon="0.3711809"><ele>0.0</ele><time>2026-04-29T18:22:15.032Z</time></trkpt><trkpt lat="38.5839561" lon="0.3712443"><ele>0.0</ele><time>2026-04-29T18:22:16.032Z</time></trkpt><trkpt lat="38.5840325" lon="0.3713009"><ele>0.0</ele><time>2026-04-29T18:22:17.033Z</time></trkpt><trkpt lat="38.5841063" lon="0.3713601"><ele>0.0</ele><time>2026-04-29T18:22:18.033Z</time></trkpt><trkpt lat="38.5842515" lon="0.3714817"><ele>0.0</ele><time>2026-04-29T18:22:20.032Z</time></trkpt><trkpt lat="38.5843219" lon="0.3715416"><ele>0.0</ele><time>2026-04-29T18:22:21.032Z</time></trkpt><trkpt lat="38.5843917" lon="0.3716017"><ele>0.0</ele><time>2026-04-29T18:22:22.033Z</time></trkpt><trkpt lat="38.5844648" lon="0.371663"><ele>0.0</ele><time>2026-04-29T18:22:23.032Z</time></trkpt><trkpt lat="38.5845337" lon="0.3717203"><ele>0.0</ele><time>2026-04-29T18:22:24.033Z</time></trkpt><trkpt lat="38.5846006" lon="0.3717774"><ele>0.0</ele><time>2026-04-29T18:22:25.033Z</time></trkpt><trkpt lat="38.5846715" lon="0.371833"><ele>0.0</ele><time>2026-04-29T18:22:26.032Z</time></trkpt><trkpt lat="38.584742" lon="0.3718919"><ele>0.0</ele><time>2026-04-29T18:22:27.032Z</time></trkpt><trkpt lat="38.5848159" lon="0.3719365"><ele>0.0</ele><time>2026-04-29T18:22:28.033Z</time></trkpt><trkpt lat="38.5848909" lon="0.3719923"><ele>0.0</ele><time>2026-04-29T18:22:29.032Z</time></trkpt><trkpt lat="38.5849606" lon="0.3720501"><ele>0.0</ele><time>2026-04-29T18:22:30.032Z</time></trkpt><trkpt lat="38.5850302" lon="0.3721041"><ele>0.0</ele><time>2026-04-29T18:22:31.032Z</time></trkpt><trkpt lat="38.5851002" lon="0.3721644"><ele>0.0</ele><time>2026-04-29T18:22:32.032Z</time></trkpt><trkpt lat="38.5851687" lon="0.3722251"><ele>0.0</ele><time>2026-04-29T18:22:33.033Z</time></trkpt><trkpt lat="38.5852397" lon="0.3722881"><ele>0.0</ele><time>2026-04-29T18:22:34.032Z</time></trkpt><trkpt lat="38.58531" lon="0.3723526"><ele>0.0</ele><time>2026-04-29T18:22:35.033Z</time></trkpt><trkpt lat="38.5853818" lon="0.3724132"><ele>0.0</ele><time>2026-04-29T18:22:36.032Z</time></trkpt><trkpt lat="38.5854545" lon="0.3724759"><ele>0.0</ele><time>2026-04-29T18:22:37.033Z</time></trkpt><trkpt lat="38.5855279" lon="0.3725423"><ele>0.0</ele><time>2026-04-29T18:22:38.032Z</time></trkpt><trkpt lat="38.5856016" lon="0.3726044"><ele>0.0</ele><time>2026-04-29T18:22:39.033Z</time></trkpt><trkpt lat="38.5857499" lon="0.3727328"><ele>0.0</ele><time>2026-04-29T18:22:41.033Z</time></trkpt><trkpt lat="38.5858233" lon="0.3727959"><ele>0.0</ele><time>2026-04-29T18:22:42.032Z</time></trkpt><trkpt lat="38.5858951" lon="0.372858"><ele>0.0</ele><time>2026-04-29T18:22:43.032Z</time></trkpt><trkpt lat="38.5859722" lon="0.372928"><ele>0.0</ele><time>2026-04-29T18:22:44.032Z</time></trkpt><trkpt lat="38.586046" lon="0.3729985"><ele>0.0</ele><time>2026-04-29T18:22:45.032Z</time></trkpt><trkpt lat="38.5861196" lon="0.373066"><ele>0.0</ele><time>2026-04-29T18:22:46.032Z</time></trkpt><trkpt lat="38.5861903" lon="0.373134"><ele>0.0</ele><time>2026-04-29T18:22:47.032Z</time></trkpt><trkpt lat="38.5862592" lon="0.3732067"><ele>0.0</ele><time>2026-04-29T18:22:48.033Z</time></trkpt><trkpt lat="38.5863329" lon="0.3732817"><ele>0.0</ele><time>2026-04-29T18:22:49.032Z</time></trkpt><trkpt lat="38.5863989" lon="0.3733614"><ele>0.0</ele><time>2026-04-29T18:22:50.032Z</time></trkpt><trkpt lat="38.5864653" lon="0.3734295"><ele>0.0</ele><time>2026-04-29T18:22:51.032Z</time></trkpt><trkpt lat="38.586535" lon="0.3734917"><ele>0.0</ele><time>2026-04-29T18:22:52.032Z</time></trkpt><trkpt lat="38.5866039" lon="0.3735538"><ele>0.0</ele><time>2026-04-29T18:22:53.032Z</time></trkpt><trkpt lat="38.5866694" lon="0.3736183"><ele>0.0</ele><time>2026-04-29T18:22:54.033Z</time></trkpt><trkpt lat="38.5867385" lon="0.3736816"><ele>0.0</ele><time>2026-04-29T18:22:55.032Z</time></trkpt><trkpt lat="38.5868086" lon="0.3737385"><ele>0.0</ele><time>2026-04-29T18:22:56.032Z</time></trkpt><trkpt lat="38.5868798" lon="0.3737949"><ele>0.0</ele><time>2026-04-29T18:22:57.032Z</time></trkpt><trkpt lat="38.5869502" lon="0.3738524"><ele>0.0</ele><time>2026-04-29T18:22:58.033Z</time></trkpt><trkpt lat="38.5870202" lon="0.373912"><ele>0.0</ele><time>2026-04-29T18:22:59.032Z</time></trkpt><trkpt lat="38.587096" lon="0.3739759"><ele>0.0</ele><time>2026-04-29T18:23:00.032Z</time></trkpt><trkpt lat="38.5871713" lon="0.3740398"><ele>0.0</ele><time>2026-04-29T18:23:01.032Z</time></trkpt><trkpt lat="38.5873124" lon="0.3741628"><ele>0.0</ele><time>2026-04-29T18:23:03.032Z</time></trkpt><trkpt lat="38.5873823" lon="0.3742258"><ele>0.0</ele><time>2026-04-29T18:23:04.032Z</time></trkpt><trkpt lat="38.5874524" lon="0.3742917"><ele>0.0</ele><time>2026-04-29T18:23:05.032Z</time></trkpt><trkpt lat="38.587525" lon="0.3743563"><ele>0.0</ele><time>2026-04-29T18:23:06.032Z</time></trkpt><trkpt lat="38.5875952" lon="0.3744183"><ele>0.0</ele><time>2026-04-29T18:23:07.033Z</time></trkpt><trkpt lat="38.5876633" lon="0.374483"><ele>0.0</ele><time>2026-04-29T18:23:08.032Z</time></trkpt><trkpt lat="38.5877333" lon="0.3745451"><ele>0.0</ele><time>2026-04-29T18:23:09.033Z</time></trkpt><trkpt lat="38.5878075" lon="0.3746096"><ele>0.0</ele><time>2026-04-29T18:23:10.032Z</time></trkpt><trkpt lat="38.58788" lon="0.3746746"><ele>0.0</ele><time>2026-04-29T18:23:11.032Z</time></trkpt><trkpt lat="38.5879499" lon="0.3747303"><ele>0.0</ele><time>2026-04-29T18:23:12.033Z</time></trkpt><trkpt lat="38.5880214" lon="0.3747904"><ele>0.0</ele><time>2026-04-29T18:23:13.033Z</time></trkpt><trkpt lat="38.5880918" lon="0.3748517"><ele>0.0</ele><time>2026-04-29T18:23:14.033Z</time></trkpt><trkpt lat="38.5881662" lon="0.3749144"><ele>0.0</ele><time>2026-04-29T18:23:15.032Z</time></trkpt><trkpt lat="38.5882382" lon="0.3749794"><ele>0.0</ele><time>2026-04-29T18:23:16.032Z</time></trkpt><trkpt lat="38.5883099" lon="0.3750413"><ele>0.0</ele><time>2026-04-29T18:23:17.032Z</time></trkpt><trkpt lat="38.5883814" lon="0.3751076"><ele>0.0</ele><time>2026-04-29T18:23:18.033Z</time></trkpt><trkpt lat="38.5884532" lon="0.3751713"><ele>0.0</ele><time>2026-04-29T18:23:19.033Z</time></trkpt><trkpt lat="38.588525" lon="0.3752365"><ele>0.0</ele><time>2026-04-29T18:23:20.033Z</time></trkpt><trkpt lat="38.5885969" lon="0.3752996"><ele>0.0</ele><time>2026-04-29T18:23:21.032Z</time></trkpt><trkpt lat="38.5886653" lon="0.3753628"><ele>0.0</ele><time>2026-04-29T18:23:22.033Z</time></trkpt><trkpt lat="38.5887997" lon="0.375459"><ele>0.0</ele><time>2026-04-29T18:23:24.033Z</time></trkpt><trkpt lat="38.588867" lon="0.375512"><ele>0.0</ele><time>2026-04-29T18:23:25.033Z</time></trkpt><trkpt lat="38.5889384" lon="0.3755492"><ele>0.0</ele><time>2026-04-29T18:23:26.032Z</time></trkpt><trkpt lat="38.5890127" lon="0.3755932"><ele>0.0</ele><time>2026-04-29T18:23:27.032Z</time></trkpt><trkpt lat="38.5890851" lon="0.375653"><ele>0.0</ele><time>2026-04-29T18:23:28.032Z</time></trkpt><trkpt lat="38.5891555" lon="0.3757156"><ele>0.0</ele><time>2026-04-29T18:23:29.032Z</time></trkpt><trkpt lat="38.5892268" lon="0.3757804"><ele>0.0</ele><time>2026-04-29T18:23:30.032Z</time></trkpt><trkpt lat="38.5892998" lon="0.3758397"><ele>0.0</ele><time>2026-04-29T18:23:31.032Z</time></trkpt><trkpt lat="38.5893776" lon="0.3759023"><ele>0.0</ele><time>2026-04-29T18:23:32.032Z</time></trkpt><trkpt lat="38.5894485" lon="0.3759649"><ele>0.0</ele><time>2026-04-29T18:23:33.033Z</time></trkpt><trkpt lat="38.5895214" lon="0.3760305"><ele>0.0</ele><time>2026-04-29T18:23:34.032Z</time></trkpt><trkpt lat="38.589593" lon="0.3760957"><ele>0.0</ele><time>2026-04-29T18:23:35.032Z</time></trkpt><trkpt lat="38.5896635" lon="0.3761565"><ele>0.0</ele><time>2026-04-29T18:23:36.032Z</time></trkpt><trkpt lat="38.5897351" lon="0.3762194"><ele>0.0</ele><time>2026-04-29T18:23:37.032Z</time></trkpt><trkpt lat="38.5898053" lon="0.3762862"><ele>0.0</ele><time>2026-04-29T18:23:38.033Z</time></trkpt><trkpt lat="38.5898737" lon="0.3763514"><ele>0.0</ele><time>2026-04-29T18:23:39.032Z</time></trkpt><trkpt lat="38.5899422" lon="0.3764093"><ele>0.0</ele><time>2026-04-29T18:23:40.032Z</time></trkpt><trkpt lat="38.5900163" lon="0.3764773"><ele>0.0</ele><time>2026-04-29T18:23:41.032Z</time></trkpt><trkpt lat="38.5900882" lon="0.3765444"><ele>0.0</ele><time>2026-04-29T18:23:42.032Z</time></trkpt><trkpt lat="38.5901581" lon="0.3766112"><ele>0.0</ele><time>2026-04-29T18:23:43.032Z</time></trkpt><trkpt lat="38.5902938" lon="0.3767401"><ele>0.0</ele><time>2026-04-29T18:23:45.033Z</time></trkpt><trkpt lat="38.5903605" lon="0.376806"><ele>0.0</ele><time>2026-04-29T18:23:46.032Z</time></trkpt><trkpt lat="38.590429" lon="0.3768715"><ele>0.0</ele><time>2026-04-29T18:23:47.032Z</time></trkpt><trkpt lat="38.5904973" lon="0.3769249"><ele>0.0</ele><time>2026-04-29T18:23:48.032Z</time></trkpt><trkpt lat="38.5905638" lon="0.3769856"><ele>0.0</ele><time>2026-04-29T18:23:49.032Z</time></trkpt><trkpt lat="38.5906306" lon="0.3770483"><ele>0.0</ele><time>2026-04-29T18:23:50.033Z</time></trkpt><trkpt lat="38.5907016" lon="0.3771099"><ele>0.0</ele><time>2026-04-29T18:23:51.033Z</time></trkpt><trkpt lat="38.5907706" lon="0.3771673"><ele>0.0</ele><time>2026-04-29T18:23:52.033Z</time></trkpt><trkpt lat="38.5908372" lon="0.3772326"><ele>0.0</ele><time>2026-04-29T18:23:53.033Z</time></trkpt><trkpt lat="38.5909079" lon="0.377298"><ele>0.0</ele><time>2026-04-29T18:23:54.033Z</time></trkpt><trkpt lat="38.5909781" lon="0.3773631"><ele>0.0</ele><time>2026-04-29T18:23:55.032Z</time></trkpt><trkpt lat="38.5910529" lon="0.377423"><ele>0.0</ele><time>2026-04-29T18:23:56.032Z</time></trkpt><trkpt lat="38.5911206" lon="0.377481"><ele>0.0</ele><time>2026-04-29T18:23:57.032Z</time></trkpt><trkpt lat="38.5911944" lon="0.3775234"><ele>0.0</ele><time>2026-04-29T18:23:58.032Z</time></trkpt><trkpt lat="38.591262" lon="0.3775812"><ele>0.0</ele><time>2026-04-29T18:23:59.032Z</time></trkpt><trkpt lat="38.5913343" lon="0.3776308"><ele>0.0</ele><time>2026-04-29T18:24:00.033Z</time></trkpt><trkpt lat="38.5914102" lon="0.3776924"><ele>0.0</ele><time>2026-04-29T18:24:01.032Z</time></trkpt><trkpt lat="38.5914842" lon="0.3777595"><ele>0.0</ele><time>2026-04-29T18:24:02.033Z</time></trkpt><trkpt lat="38.5915547" lon="0.3778265"><ele>0.0</ele><time>2026-04-29T18:24:03.033Z</time></trkpt><trkpt lat="38.5916231" lon="0.3779008"><ele>0.0</ele><time>2026-04-29T18:24:04.032Z</time></trkpt><trkpt lat="38.5917562" lon="0.3780426"><ele>0.0</ele><time>2026-04-29T18:24:06.032Z</time></trkpt><trkpt lat="38.5918193" lon="0.3781141"><ele>0.0</ele><time>2026-04-29T18:24:07.033Z</time></trkpt><trkpt lat="38.591887" lon="0.3781784"><ele>0.0</ele><time>2026-04-29T18:24:08.032Z</time></trkpt><trkpt lat="38.5919536" lon="0.3782449"><ele>0.0</ele><time>2026-04-29T18:24:09.033Z</time></trkpt><trkpt lat="38.5920233" lon="0.3783117"><ele>0.0</ele><time>2026-04-29T18:24:10.032Z</time></trkpt><trkpt lat="38.5920917" lon="0.3783765"><ele>0.0</ele><time>2026-04-29T18:24:11.032Z</time></trkpt><trkpt lat="38.5921627" lon="0.3784413"><ele>0.0</ele><time>2026-04-29T18:24:12.032Z</time></trkpt><trkpt lat="38.5922302" lon="0.378505"><ele>0.0</ele><time>2026-04-29T18:24:13.033Z</time></trkpt><trkpt lat="38.5923001" lon="0.3785637"><ele>0.0</ele><time>2026-04-29T18:24:14.032Z</time></trkpt><trkpt lat="38.5923729" lon="0.3786249"><ele>0.0</ele><time>2026-04-29T18:24:15.033Z</time></trkpt><trkpt lat="38.5924449" lon="0.3786821"><ele>0.0</ele><time>2026-04-29T18:24:16.032Z</time></trkpt><trkpt lat="38.5925168" lon="0.3787358"><ele>0.0</ele><time>2026-04-29T18:24:17.032Z</time></trkpt><trkpt lat="38.5925884" lon="0.3787906"><ele>0.0</ele><time>2026-04-29T18:24:18.033Z</time></trkpt><trkpt lat="38.5926614" lon="0.37885"><ele>0.0</ele><time>2026-04-29T18:24:19.032Z</time></trkpt><trkpt lat="38.5927363" lon="0.3789082"><ele>0.0</ele><time>2026-04-29T18:24:20.032Z</time></trkpt><trkpt lat="38.5928129" lon="0.3789665"><ele>0.0</ele><time>2026-04-29T18:24:21.032Z</time></trkpt><trkpt lat="38.5928853" lon="0.3790265"><ele>0.0</ele><time>2026-04-29T18:24:22.032Z</time></trkpt><trkpt lat="38.5929582" lon="0.3790684"><ele>0.0</ele><time>2026-04-29T18:24:23.032Z</time></trkpt><trkpt lat="38.5930341" lon="0.3791264"><ele>0.0</ele><time>2026-04-29T18:24:24.031Z</time></trkpt><trkpt lat="38.5931096" lon="0.3791874"><ele>0.0</ele><time>2026-04-29T18:24:25.031Z</time></trkpt><trkpt lat="38.5932529" lon="0.3793127"><ele>0.0</ele><time>2026-04-29T18:24:27.031Z</time></trkpt><trkpt lat="38.5933263" lon="0.3793767"><ele>0.0</ele><time>2026-04-29T18:24:28.032Z</time></trkpt><trkpt lat="38.5933982" lon="0.3794386"><ele>0.0</ele><time>2026-04-29T18:24:29.031Z</time></trkpt><trkpt lat="38.5934701" lon="0.3794995"><ele>0.0</ele><time>2026-04-29T18:24:30.031Z</time></trkpt><trkpt lat="38.5935446" lon="0.379561"><ele>0.0</ele><time>2026-04-29T18:24:31.031Z</time></trkpt><trkpt lat="38.5936128" lon="0.3796166"><ele>0.0</ele><time>2026-04-29T18:24:32.032Z</time></trkpt><trkpt lat="38.5936806" lon="0.3796756"><ele>0.0</ele><time>2026-04-29T18:24:33.032Z</time></trkpt><trkpt lat="38.5937519" lon="0.3797404"><ele>0.0</ele><time>2026-04-29T18:24:34.031Z</time></trkpt><trkpt lat="38.5938251" lon="0.3798041"><ele>0.0</ele><time>2026-04-29T18:24:35.031Z</time></trkpt><trkpt lat="38.5938939" lon="0.3798761"><ele>0.0</ele><time>2026-04-29T18:24:36.031Z</time></trkpt><trkpt lat="38.5939664" lon="0.3799423"><ele>0.0</ele><time>2026-04-29T18:24:37.032Z</time></trkpt><trkpt lat="38.5940412" lon="0.3800057"><ele>0.0</ele><time>2026-04-29T18:24:38.031Z</time></trkpt><trkpt lat="38.5941149" lon="0.380068"><ele>0.0</ele><time>2026-04-29T18:24:39.032Z</time></trkpt><trkpt lat="38.5941923" lon="0.3801335"><ele>0.0</ele><time>2026-04-29T18:24:40.031Z</time></trkpt><trkpt lat="38.5942661" lon="0.3802006"><ele>0.0</ele><time>2026-04-29T18:24:41.031Z</time></trkpt><trkpt lat="38.594338" lon="0.3802659"><ele>0.0</ele><time>2026-04-29T18:24:42.031Z</time></trkpt><trkpt lat="38.5944084" lon="0.3803299"><ele>0.0</ele><time>2026-04-29T18:24:43.031Z</time></trkpt><trkpt lat="38.5944786" lon="0.3803914"><ele>0.0</ele><time>2026-04-29T18:24:44.032Z</time></trkpt><trkpt lat="38.5945501" lon="0.3804548"><ele>0.0</ele><time>2026-04-29T18:24:45.032Z</time></trkpt><trkpt lat="38.5946198" lon="0.3805212"><ele>0.0</ele><time>2026-04-29T18:24:46.032Z</time></trkpt><trkpt lat="38.5947627" lon="0.3806606"><ele>0.0</ele><time>2026-04-29T18:24:48.032Z</time></trkpt><trkpt lat="38.594833" lon="0.3807345"><ele>0.0</ele><time>2026-04-29T18:24:49.032Z</time></trkpt><trkpt lat="38.5949042" lon="0.3808155"><ele>0.0</ele><time>2026-04-29T18:24:50.032Z</time></trkpt><trkpt lat="38.5949743" lon="0.3808888"><ele>0.0</ele><time>2026-04-29T18:24:51.032Z</time></trkpt><trkpt lat="38.5950447" lon="0.3809615"><ele>0.0</ele><time>2026-04-29T18:24:52.032Z</time></trkpt><trkpt lat="38.5951151" lon="0.3810318"><ele>0.0</ele><time>2026-04-29T18:24:53.032Z</time></trkpt><trkpt lat="38.5951866" lon="0.3810996"><ele>0.0</ele><time>2026-04-29T18:24:54.031Z</time></trkpt><trkpt lat="38.5952596" lon="0.3811693"><ele>0.0</ele><time>2026-04-29T18:24:55.032Z</time></trkpt><trkpt lat="38.5953347" lon="0.3812343"><ele>0.0</ele><time>2026-04-29T18:24:56.031Z</time></trkpt><trkpt lat="38.5954069" lon="0.3812965"><ele>0.0</ele><time>2026-04-29T18:24:57.032Z</time></trkpt><trkpt lat="38.5954784" lon="0.3813566"><ele>0.0</ele><time>2026-04-29T18:24:58.032Z</time></trkpt><trkpt lat="38.5955488" lon="0.3814169"><ele>0.0</ele><time>2026-04-29T18:24:59.031Z</time></trkpt><trkpt lat="38.5956184" lon="0.3814768"><ele>0.0</ele><time>2026-04-29T18:25:00.032Z</time></trkpt><trkpt lat="38.5956886" lon="0.381538"><ele>0.0</ele><time>2026-04-29T18:25:01.031Z</time></trkpt><trkpt lat="38.5957584" lon="0.3815987"><ele>0.0</ele><time>2026-04-29T18:25:02.031Z</time></trkpt><trkpt lat="38.5958312" lon="0.3816556"><ele>0.0</ele><time>2026-04-29T18:25:03.031Z</time></trkpt><trkpt lat="38.5959017" lon="0.3817149"><ele>0.0</ele><time>2026-04-29T18:25:04.032Z</time></trkpt><trkpt lat="38.5959734" lon="0.3817749"><ele>0.0</ele><time>2026-04-29T18:25:05.031Z</time></trkpt><trkpt lat="38.5960453" lon="0.3818321"><ele>0.0</ele><time>2026-04-29T18:25:06.032Z</time></trkpt><trkpt lat="38.5961154" lon="0.38189"><ele>0.0</ele><time>2026-04-29T18:25:07.032Z</time></trkpt><trkpt lat="38.5961809" lon="0.3819473"><ele>0.0</ele><time>2026-04-29T18:25:08.032Z</time></trkpt><trkpt lat="38.5963153" lon="0.3820651"><ele>0.0</ele><time>2026-04-29T18:25:10.032Z</time></trkpt><trkpt lat="38.5963834" lon="0.382127"><ele>0.0</ele><time>2026-04-29T18:25:11.032Z</time></trkpt><trkpt lat="38.596455" lon="0.382193"><ele>0.0</ele><time>2026-04-29T18:25:12.031Z</time></trkpt><trkpt lat="38.5965222" lon="0.3822558"><ele>0.0</ele><time>2026-04-29T18:25:13.032Z</time></trkpt><trkpt lat="38.5965887" lon="0.3823172"><ele>0.0</ele><time>2026-04-29T18:25:14.032Z</time></trkpt><trkpt lat="38.5966583" lon="0.3823785"><ele>0.0</ele><time>2026-04-29T18:25:15.031Z</time></trkpt><trkpt lat="38.59673" lon="0.3824401"><ele>0.0</ele><time>2026-04-29T18:25:16.031Z</time></trkpt><trkpt lat="38.5968015" lon="0.3825001"><ele>0.0</ele><time>2026-04-29T18:25:17.032Z</time></trkpt><trkpt lat="38.5968748" lon="0.3825582"><ele>0.0</ele><time>2026-04-29T18:25:18.032Z</time></trkpt><trkpt lat="38.5969454" lon="0.3826149"><ele>0.0</ele><time>2026-04-29T18:25:19.032Z</time></trkpt><trkpt lat="38.5970167" lon="0.3826731"><ele>0.0</ele><time>2026-04-29T18:25:20.031Z</time></trkpt><trkpt lat="38.5970884" lon="0.3827301"><ele>0.0</ele><time>2026-04-29T18:25:21.031Z</time></trkpt><trkpt lat="38.5971612" lon="0.382788"><ele>0.0</ele><time>2026-04-29T18:25:22.031Z</time></trkpt><trkpt lat="38.5972331" lon="0.382848"><ele>0.0</ele><time>2026-04-29T18:25:23.031Z</time></trkpt><trkpt lat="38.5973049" lon="0.3829068"><ele>0.0</ele><time>2026-04-29T18:25:24.031Z</time></trkpt><trkpt lat="38.5973781" lon="0.3829664"><ele>0.0</ele><time>2026-04-29T18:25:25.031Z</time></trkpt><trkpt lat="38.5974513" lon="0.3830247"><ele>0.0</ele><time>2026-04-29T18:25:26.031Z</time></trkpt><trkpt lat="38.5975261" lon="0.3830848"><ele>0.0</ele><time>2026-04-29T18:25:27.031Z</time></trkpt><trkpt lat="38.5975996" lon="0.3831379"><ele>0.0</ele><time>2026-04-29T18:25:28.031Z</time></trkpt><trkpt lat="38.5976726" lon="0.3831996"><ele>0.0</ele><time>2026-04-29T18:25:29.031Z</time></trkpt><trkpt lat="38.5978195" lon="0.3833282"><ele>0.0</ele><time>2026-04-29T18:25:31.032Z</time></trkpt><trkpt lat="38.5978901" lon="0.3833899"><ele>0.0</ele><time>2026-04-29T18:25:32.031Z</time></trkpt><trkpt lat="38.5979573" lon="0.3834529"><ele>0.0</ele><time>2026-04-29T18:25:33.031Z</time></trkpt><trkpt lat="38.5980255" lon="0.3835131"><ele>0.0</ele><time>2026-04-29T18:25:34.031Z</time></trkpt><trkpt lat="38.5980952" lon="0.3835777"><ele>0.0</ele><time>2026-04-29T18:25:35.031Z</time></trkpt><trkpt lat="38.5981636" lon="0.3836383"><ele>0.0</ele><time>2026-04-29T18:25:36.031Z</time></trkpt><trkpt lat="38.5982333" lon="0.383697"><ele>0.0</ele><time>2026-04-29T18:25:37.032Z</time></trkpt><trkpt lat="38.5983023" lon="0.3837535"><ele>0.0</ele><time>2026-04-29T18:25:38.031Z</time></trkpt><trkpt lat="38.5983736" lon="0.3838113"><ele>0.0</ele><time>2026-04-29T18:25:39.032Z</time></trkpt><trkpt lat="38.5984455" lon="0.3838709"><ele>0.0</ele><time>2026-04-29T18:25:40.032Z</time></trkpt><trkpt lat="38.5985187" lon="0.3839263"><ele>0.0</ele><time>2026-04-29T18:25:41.031Z</time></trkpt><trkpt lat="38.5985922" lon="0.3839783"><ele>0.0</ele><time>2026-04-29T18:25:42.032Z</time></trkpt><trkpt lat="38.5986623" lon="0.3840332"><ele>0.0</ele><time>2026-04-29T18:25:43.031Z</time></trkpt><trkpt lat="38.5987321" lon="0.3840929"><ele>0.0</ele><time>2026-04-29T18:25:44.032Z</time></trkpt><trkpt lat="38.5988021" lon="0.3841532"><ele>0.0</ele><time>2026-04-29T18:25:45.031Z</time></trkpt><trkpt lat="38.5988722" lon="0.3842134"><ele>0.0</ele><time>2026-04-29T18:25:46.031Z</time></trkpt><trkpt lat="38.5989432" lon="0.3842794"><ele>0.0</ele><time>2026-04-29T18:25:47.031Z</time></trkpt><trkpt lat="38.5990131" lon="0.384343"><ele>0.0</ele><time>2026-04-29T18:25:48.031Z</time></trkpt><trkpt lat="38.5990834" lon="0.3844067"><ele>0.0</ele><time>2026-04-29T18:25:49.031Z</time></trkpt><trkpt lat="38.5991549" lon="0.3844746"><ele>0.0</ele><time>2026-04-29T18:25:50.031Z</time></trkpt><trkpt lat="38.5992936" lon="0.3846051"><ele>0.0</ele><time>2026-04-29T18:25:52.032Z</time></trkpt><trkpt lat="38.5993586" lon="0.384672"><ele>0.0</ele><time>2026-04-29T18:25:53.032Z</time></trkpt><trkpt lat="38.5994323" lon="0.3847425"><ele>0.0</ele><time>2026-04-29T18:25:54.031Z</time></trkpt><trkpt lat="38.5995031" lon="0.3848114"><ele>0.0</ele><time>2026-04-29T18:25:55.032Z</time></trkpt><trkpt lat="38.5995727" lon="0.3848797"><ele>0.0</ele><time>2026-04-29T18:25:56.031Z</time></trkpt><trkpt lat="38.5996399" lon="0.3849497"><ele>0.0</ele><time>2026-04-29T18:25:57.032Z</time></trkpt><trkpt lat="38.599707" lon="0.3850166"><ele>0.0</ele><time>2026-04-29T18:25:58.032Z</time></trkpt><trkpt lat="38.5997748" lon="0.3850832"><ele>0.0</ele><time>2026-04-29T18:25:59.032Z</time></trkpt><trkpt lat="38.5998483" lon="0.3851481"><ele>0.0</ele><time>2026-04-29T18:26:00.031Z</time></trkpt><trkpt lat="38.5999203" lon="0.3852103"><ele>0.0</ele><time>2026-04-29T18:26:01.032Z</time></trkpt><trkpt lat="38.5999915" lon="0.3852708"><ele>0.0</ele><time>2026-04-29T18:26:02.031Z</time></trkpt><trkpt lat="38.6000632" lon="0.3853335"><ele>0.0</ele><time>2026-04-29T18:26:03.031Z</time></trkpt><trkpt lat="38.6001306" lon="0.3853956"><ele>0.0</ele><time>2026-04-29T18:26:04.032Z</time></trkpt><trkpt lat="38.6001986" lon="0.385459"><ele>0.0</ele><time>2026-04-29T18:26:05.032Z</time></trkpt><trkpt lat="38.6002659" lon="0.3855157"><ele>0.0</ele><time>2026-04-29T18:26:06.031Z</time></trkpt><trkpt lat="38.6003367" lon="0.3855767"><ele>0.0</ele><time>2026-04-29T18:26:07.032Z</time></trkpt><trkpt lat="38.6004112" lon="0.3856409"><ele>0.0</ele><time>2026-04-29T18:26:08.032Z</time></trkpt><trkpt lat="38.6004821" lon="0.3857027"><ele>0.0</ele><time>2026-04-29T18:26:09.031Z</time></trkpt><trkpt lat="38.6005535" lon="0.3857703"><ele>0.0</ele><time>2026-04-29T18:26:10.032Z</time></trkpt><trkpt lat="38.6006234" lon="0.3858316"><ele>0.0</ele><time>2026-04-29T18:26:11.031Z</time></trkpt><trkpt lat="38.6007621" lon="0.3859469"><ele>0.0</ele><time>2026-04-29T18:26:13.031Z</time></trkpt><trkpt lat="38.6008361" lon="0.3860107"><ele>0.0</ele><time>2026-04-29T18:26:14.031Z</time></trkpt><trkpt lat="38.6009079" lon="0.3860747"><ele>0.0</ele><time>2026-04-29T18:26:15.031Z</time></trkpt><trkpt lat="38.6009802" lon="0.3861317"><ele>0.0</ele><time>2026-04-29T18:26:16.032Z</time></trkpt><trkpt lat="38.601049" lon="0.3861903"><ele>0.0</ele><time>2026-04-29T18:26:17.032Z</time></trkpt><trkpt lat="38.6011174" lon="0.3862532"><ele>0.0</ele><time>2026-04-29T18:26:18.032Z</time></trkpt><trkpt lat="38.6011901" lon="0.3863149"><ele>0.0</ele><time>2026-04-29T18:26:19.032Z</time></trkpt><trkpt lat="38.6012614" lon="0.386381"><ele>0.0</ele><time>2026-04-29T18:26:20.032Z</time></trkpt><trkpt lat="38.6013316" lon="0.386444"><ele>0.0</ele><time>2026-04-29T18:26:21.031Z</time></trkpt><trkpt lat="38.6014031" lon="0.3865028"><ele>0.0</ele><time>2026-04-29T18:26:22.031Z</time></trkpt><trkpt lat="38.6014766" lon="0.3865644"><ele>0.0</ele><time>2026-04-29T18:26:23.031Z</time></trkpt><trkpt lat="38.6015469" lon="0.3866276"><ele>0.0</ele><time>2026-04-29T18:26:24.031Z</time></trkpt><trkpt lat="38.6016169" lon="0.3866867"><ele>0.0</ele><time>2026-04-29T18:26:25.032Z</time></trkpt><trkpt lat="38.6016867" lon="0.3867495"><ele>0.0</ele><time>2026-04-29T18:26:26.032Z</time></trkpt><trkpt lat="38.6017582" lon="0.3868115"><ele>0.0</ele><time>2026-04-29T18:26:27.031Z</time></trkpt><trkpt lat="38.60183" lon="0.3868713"><ele>0.0</ele><time>2026-04-29T18:26:28.032Z</time></trkpt><trkpt lat="38.6019" lon="0.3869331"><ele>0.0</ele><time>2026-04-29T18:26:29.032Z</time></trkpt><trkpt lat="38.6019687" lon="0.3869973"><ele>0.0</ele><time>2026-04-29T18:26:30.031Z</time></trkpt><trkpt lat="38.6020398" lon="0.3870639"><ele>0.0</ele><time>2026-04-29T18:26:31.031Z</time></trkpt><trkpt lat="38.6021104" lon="0.3871249"><ele>0.0</ele><time>2026-04-29T18:26:32.032Z</time></trkpt><trkpt lat="38.6022484" lon="0.3872446"><ele>0.0</ele><time>2026-04-29T18:26:34.032Z</time></trkpt><trkpt lat="38.6023186" lon="0.3873105"><ele>0.0</ele><time>2026-04-29T18:26:35.032Z</time></trkpt><trkpt lat="38.6023885" lon="0.3873731"><ele>0.0</ele><time>2026-04-29T18:26:36.032Z</time></trkpt><trkpt lat="38.6024557" lon="0.3874243"><ele>0.0</ele><time>2026-04-29T18:26:37.032Z</time></trkpt><trkpt lat="38.6025252" lon="0.3874829"><ele>0.0</ele><time>2026-04-29T18:26:38.032Z</time></trkpt><trkpt lat="38.6025965" lon="0.3875388"><ele>0.0</ele><time>2026-04-29T18:26:39.032Z</time></trkpt><trkpt lat="38.6026654" lon="0.3875951"><ele>0.0</ele><time>2026-04-29T18:26:40.032Z</time></trkpt><trkpt lat="38.6027354" lon="0.3876631"><ele>0.0</ele><time>2026-04-29T18:26:41.032Z</time></trkpt><trkpt lat="38.6028064" lon="0.3877261"><ele>0.0</ele><time>2026-04-29T18:26:42.032Z</time></trkpt><trkpt lat="38.6028779" lon="0.3877891"><ele>0.0</ele><time>2026-04-29T18:26:43.031Z</time></trkpt><trkpt lat="38.6029512" lon="0.3878497"><ele>0.0</ele><time>2026-04-29T18:26:44.032Z</time></trkpt><trkpt lat="38.6030176" lon="0.3879011"><ele>0.0</ele><time>2026-04-29T18:26:45.031Z</time></trkpt><trkpt lat="38.603087" lon="0.3879654"><ele>0.0</ele><time>2026-04-29T18:26:46.032Z</time></trkpt><trkpt lat="38.6031567" lon="0.3880307"><ele>0.0</ele><time>2026-04-29T18:26:47.032Z</time></trkpt><trkpt lat="38.6032296" lon="0.3880959"><ele>0.0</ele><time>2026-04-29T18:26:48.031Z</time></trkpt><trkpt lat="38.6033041" lon="0.3881591"><ele>0.0</ele><time>2026-04-29T18:26:49.031Z</time></trkpt><trkpt lat="38.6033775" lon="0.3882271"><ele>0.0</ele><time>2026-04-29T18:26:50.031Z</time></trkpt><trkpt lat="38.6034494" lon="0.3882943"><ele>0.0</ele><time>2026-04-29T18:26:51.032Z</time></trkpt><trkpt lat="38.6035172" lon="0.3883632"><ele>0.0</ele><time>2026-04-29T18:26:52.032Z</time></trkpt><trkpt lat="38.6035914" lon="0.3884318"><ele>0.0</ele><time>2026-04-29T18:26:53.032Z</time></trkpt><trkpt lat="38.603729" lon="0.38856"><ele>0.0</ele><time>2026-04-29T18:26:55.031Z</time></trkpt><trkpt lat="38.6037999" lon="0.3886278"><ele>0.0</ele><time>2026-04-29T18:26:56.032Z</time></trkpt><trkpt lat="38.6038705" lon="0.3886867"><ele>0.0</ele><time>2026-04-29T18:26:57.032Z</time></trkpt><trkpt lat="38.6039428" lon="0.3887541"><ele>0.0</ele><time>2026-04-29T18:26:58.031Z</time></trkpt><trkpt lat="38.6040132" lon="0.3888195"><ele>0.0</ele><time>2026-04-29T18:26:59.032Z</time></trkpt><trkpt lat="38.604082" lon="0.3888819"><ele>0.0</ele><time>2026-04-29T18:27:00.031Z</time></trkpt><trkpt lat="38.6041517" lon="0.3889463"><ele>0.0</ele><time>2026-04-29T18:27:01.031Z</time></trkpt><trkpt lat="38.6042218" lon="0.3890127"><ele>0.0</ele><time>2026-04-29T18:27:02.031Z</time></trkpt><trkpt lat="38.6042901" lon="0.3890822"><ele>0.0</ele><time>2026-04-29T18:27:03.031Z</time></trkpt><trkpt lat="38.6043602" lon="0.3891463"><ele>0.0</ele><time>2026-04-29T18:27:04.032Z</time></trkpt><trkpt lat="38.6044286" lon="0.3892084"><ele>0.0</ele><time>2026-04-29T18:27:05.031Z</time></trkpt><trkpt lat="38.6044927" lon="0.3892806"><ele>0.0</ele><time>2026-04-29T18:27:06.032Z</time></trkpt><trkpt lat="38.6045622" lon="0.3893416"><ele>0.0</ele><time>2026-04-29T18:27:07.032Z</time></trkpt><trkpt lat="38.6046347" lon="0.3894057"><ele>0.0</ele><time>2026-04-29T18:27:08.031Z</time></trkpt><trkpt lat="38.604708" lon="0.389471"><ele>0.0</ele><time>2026-04-29T18:27:09.031Z</time></trkpt><trkpt lat="38.6047799" lon="0.3895329"><ele>0.0</ele><time>2026-04-29T18:27:10.031Z</time></trkpt><trkpt lat="38.6048514" lon="0.3895936"><ele>0.0</ele><time>2026-04-29T18:27:11.032Z</time></trkpt><trkpt lat="38.6049234" lon="0.3896562"><ele>0.0</ele><time>2026-04-29T18:27:12.032Z</time></trkpt><trkpt lat="38.6049964" lon="0.3897263"><ele>0.0</ele><time>2026-04-29T18:27:13.031Z</time></trkpt><trkpt lat="38.6050683" lon="0.3897912"><ele>0.0</ele><time>2026-04-29T18:27:14.031Z</time></trkpt><trkpt lat="38.6052103" lon="0.3898928"><ele>0.0</ele><time>2026-04-29T18:27:16.032Z</time></trkpt><trkpt lat="38.605284" lon="0.3899566"><ele>0.0</ele><time>2026-04-29T18:27:17.031Z</time></trkpt><trkpt lat="38.6053564" lon="0.3900182"><ele>0.0</ele><time>2026-04-29T18:27:18.032Z</time></trkpt><trkpt lat="38.6054316" lon="0.3900779"><ele>0.0</ele><time>2026-04-29T18:27:19.032Z</time></trkpt><trkpt lat="38.6055021" lon="0.3901409"><ele>0.0</ele><time>2026-04-29T18:27:20.032Z</time></trkpt><trkpt lat="38.6055717" lon="0.3902019"><ele>0.0</ele><time>2026-04-29T18:27:21.032Z</time></trkpt><trkpt lat="38.6056433" lon="0.3902617"><ele>0.0</ele><time>2026-04-29T18:27:22.031Z</time></trkpt><trkpt lat="38.6057149" lon="0.3903216"><ele>0.0</ele><time>2026-04-29T18:27:23.032Z</time></trkpt><trkpt lat="38.6057871" lon="0.3903816"><ele>0.0</ele><time>2026-04-29T18:27:24.031Z</time></trkpt><trkpt lat="38.6058573" lon="0.3904369"><ele>0.0</ele><time>2026-04-29T18:27:25.031Z</time></trkpt><trkpt lat="38.6059253" lon="0.390498"><ele>0.0</ele><time>2026-04-29T18:27:26.031Z</time></trkpt><trkpt lat="38.6059949" lon="0.3905593"><ele>0.0</ele><time>2026-04-29T18:27:27.032Z</time></trkpt><trkpt lat="38.6060651" lon="0.3906186"><ele>0.0</ele><time>2026-04-29T18:27:28.031Z</time></trkpt><trkpt lat="38.606138" lon="0.3906796"><ele>0.0</ele><time>2026-04-29T18:27:29.032Z</time></trkpt><trkpt lat="38.6062116" lon="0.3907383"><ele>0.0</ele><time>2026-04-29T18:27:30.032Z</time></trkpt><trkpt lat="38.6062874" lon="0.3908013"><ele>0.0</ele><time>2026-04-29T18:27:31.031Z</time></trkpt><trkpt lat="38.6063627" lon="0.3908602"><ele>0.0</ele><time>2026-04-29T18:27:32.031Z</time></trkpt><trkpt lat="38.6064349" lon="0.390914"><ele>0.0</ele><time>2026-04-29T18:27:33.032Z</time></trkpt><trkpt lat="38.606508" lon="0.3909705"><ele>0.0</ele><time>2026-04-29T18:27:34.031Z</time></trkpt><trkpt lat="38.6065729" lon="0.3910328"><ele>0.0</ele><time>2026-04-29T18:27:35.032Z</time></trkpt><trkpt lat="38.606713" lon="0.3911494"><ele>0.0</ele><time>2026-04-29T18:27:37.031Z</time></trkpt><trkpt lat="38.6067792" lon="0.391214"><ele>0.0</ele><time>2026-04-29T18:27:38.032Z</time></trkpt><trkpt lat="38.6068428" lon="0.3912805"><ele>0.0</ele><time>2026-04-29T18:27:39.032Z</time></trkpt><trkpt lat="38.6069103" lon="0.3913288"><ele>0.0</ele><time>2026-04-29T18:27:40.032Z</time></trkpt><trkpt lat="38.6069759" lon="0.3913837"><ele>0.0</ele><time>2026-04-29T18:27:41.031Z</time></trkpt><trkpt lat="38.6070477" lon="0.3914492"><ele>0.0</ele><time>2026-04-29T18:27:42.031Z</time></trkpt><trkpt lat="38.6071212" lon="0.3915111"><ele>0.0</ele><time>2026-04-29T18:27:43.032Z</time></trkpt><trkpt lat="38.6071931" lon="0.3915742"><ele>0.0</ele><time>2026-04-29T18:27:44.031Z</time></trkpt><trkpt lat="38.6072636" lon="0.3916388"><ele>0.0</ele><time>2026-04-29T18:27:45.031Z</time></trkpt><trkpt lat="38.6073319" lon="0.3917086"><ele>0.0</ele><time>2026-04-29T18:27:46.031Z</time></trkpt><trkpt lat="38.6074042" lon="0.3917717"><ele>0.0</ele><time>2026-04-29T18:27:47.031Z</time></trkpt><trkpt lat="38.6074794" lon="0.3918302"><ele>0.0</ele><time>2026-04-29T18:27:48.032Z</time></trkpt><trkpt lat="38.607555" lon="0.3918881"><ele>0.0</ele><time>2026-04-29T18:27:49.031Z</time></trkpt><trkpt lat="38.6076264" lon="0.3919511"><ele>0.0</ele><time>2026-04-29T18:27:50.031Z</time></trkpt><trkpt lat="38.6076966" lon="0.3920176"><ele>0.0</ele><time>2026-04-29T18:27:51.032Z</time></trkpt><trkpt lat="38.6077683" lon="0.392083"><ele>0.0</ele><time>2026-04-29T18:27:52.031Z</time></trkpt><trkpt lat="38.6078384" lon="0.392148"><ele>0.0</ele><time>2026-04-29T18:27:53.031Z</time></trkpt><trkpt lat="38.6079057" lon="0.3922142"><ele>0.0</ele><time>2026-04-29T18:27:54.031Z</time></trkpt><trkpt lat="38.6079679" lon="0.3922847"><ele>0.0</ele><time>2026-04-29T18:27:55.031Z</time></trkpt><trkpt lat="38.6080354" lon="0.3923477"><ele>0.0</ele><time>2026-04-29T18:27:56.031Z</time></trkpt><trkpt lat="38.6081766" lon="0.392468"><ele>0.0</ele><time>2026-04-29T18:27:58.032Z</time></trkpt><trkpt lat="38.6082495" lon="0.3925297"><ele>0.0</ele><time>2026-04-29T18:27:59.031Z</time></trkpt><trkpt lat="38.6083215" lon="0.3925916"><ele>0.0</ele><time>2026-04-29T18:28:00.031Z</time></trkpt><trkpt lat="38.608392" lon="0.3926559"><ele>0.0</ele><time>2026-04-29T18:28:01.032Z</time></trkpt><trkpt lat="38.6084634" lon="0.3927179"><ele>0.0</ele><time>2026-04-29T18:28:02.032Z</time></trkpt><trkpt lat="38.608533" lon="0.3927787"><ele>0.0</ele><time>2026-04-29T18:28:03.031Z</time></trkpt><trkpt lat="38.6086035" lon="0.3928443"><ele>0.0</ele><time>2026-04-29T18:28:04.031Z</time></trkpt><trkpt lat="38.6086722" lon="0.3929122"><ele>0.0</ele><time>2026-04-29T18:28:05.032Z</time></trkpt><trkpt lat="38.608739" lon="0.3929775"><ele>0.0</ele><time>2026-04-29T18:28:06.031Z</time></trkpt><trkpt lat="38.6088085" lon="0.3930397"><ele>0.0</ele><time>2026-04-29T18:28:07.032Z</time></trkpt><trkpt lat="38.6088803" lon="0.3931012"><ele>0.0</ele><time>2026-04-29T18:28:08.031Z</time></trkpt><trkpt lat="38.608949" lon="0.3931672"><ele>0.0</ele><time>2026-04-29T18:28:09.031Z</time></trkpt><trkpt lat="38.6090216" lon="0.3932296"><ele>0.0</ele><time>2026-04-29T18:28:10.031Z</time></trkpt><trkpt lat="38.6090905" lon="0.3932902"><ele>0.0</ele><time>2026-04-29T18:28:11.031Z</time></trkpt><trkpt lat="38.6091587" lon="0.3933484"><ele>0.0</ele><time>2026-04-29T18:28:12.031Z</time></trkpt><trkpt lat="38.6092271" lon="0.3934165"><ele>0.0</ele><time>2026-04-29T18:28:13.032Z</time></trkpt><trkpt lat="38.6093009" lon="0.3934822"><ele>0.0</ele><time>2026-04-29T18:28:14.031Z</time></trkpt><trkpt lat="38.609373" lon="0.3935461"><ele>0.0</ele><time>2026-04-29T18:28:15.031Z</time></trkpt><trkpt lat="38.6094447" lon="0.3936095"><ele>0.0</ele><time>2026-04-29T18:28:16.032Z</time></trkpt><trkpt lat="38.609518" lon="0.3936726"><ele>0.0</ele><time>2026-04-29T18:28:17.032Z</time></trkpt><trkpt lat="38.6096619" lon="0.3937977"><ele>0.0</ele><time>2026-04-29T18:28:19.032Z</time></trkpt><trkpt lat="38.6097332" lon="0.3938637"><ele>0.0</ele><time>2026-04-29T18:28:20.032Z</time></trkpt><trkpt lat="38.6098017" lon="0.3939314"><ele>0.0</ele><time>2026-04-29T18:28:21.032Z</time></trkpt><trkpt lat="38.6098716" lon="0.3939966"><ele>0.0</ele><time>2026-04-29T18:28:22.031Z</time></trkpt><trkpt lat="38.6099403" lon="0.3940599"><ele>0.0</ele><time>2026-04-29T18:28:23.031Z</time></trkpt><trkpt lat="38.6100133" lon="0.3941229"><ele>0.0</ele><time>2026-04-29T18:28:24.031Z</time></trkpt><trkpt lat="38.610085" lon="0.3941867"><ele>0.0</ele><time>2026-04-29T18:28:25.031Z</time></trkpt><trkpt lat="38.6101567" lon="0.3942513"><ele>0.0</ele><time>2026-04-29T18:28:26.032Z</time></trkpt><trkpt lat="38.6102267" lon="0.3943148"><ele>0.0</ele><time>2026-04-29T18:28:27.032Z</time></trkpt><trkpt lat="38.6102972" lon="0.3943737"><ele>0.0</ele><time>2026-04-29T18:28:28.031Z</time></trkpt><trkpt lat="38.6103672" lon="0.3944352"><ele>0.0</ele><time>2026-04-29T18:28:29.031Z</time></trkpt><trkpt lat="38.6104401" lon="0.394498"><ele>0.0</ele><time>2026-04-29T18:28:30.031Z</time></trkpt><trkpt lat="38.6105114" lon="0.3945597"><ele>0.0</ele><time>2026-04-29T18:28:31.031Z</time></trkpt><trkpt lat="38.6105832" lon="0.394623"><ele>0.0</ele><time>2026-04-29T18:28:32.032Z</time></trkpt><trkpt lat="38.6106548" lon="0.3946866"><ele>0.0</ele><time>2026-04-29T18:28:33.031Z</time></trkpt><trkpt lat="38.6107268" lon="0.3947471"><ele>0.0</ele><time>2026-04-29T18:28:34.031Z</time></trkpt><trkpt lat="38.6107957" lon="0.394804"><ele>0.0</ele><time>2026-04-29T18:28:35.031Z</time></trkpt><trkpt lat="38.610865" lon="0.3948623"><ele>0.0</ele><time>2026-04-29T18:28:36.031Z</time></trkpt><trkpt lat="38.6109352" lon="0.394922"><ele>0.0</ele><time>2026-04-29T18:28:37.031Z</time></trkpt><trkpt lat="38.6110053" lon="0.3949834"><ele>0.0</ele><time>2026-04-29T18:28:38.031Z</time></trkpt><trkpt lat="38.6111485" lon="0.3951032"><ele>0.0</ele><time>2026-04-29T18:28:40.032Z</time></trkpt><trkpt lat="38.6112185" lon="0.3951635"><ele>0.0</ele><time>2026-04-29T18:28:41.031Z</time></trkpt><trkpt lat="38.6112916" lon="0.3952231"><ele>0.0</ele><time>2026-04-29T18:28:42.031Z</time></trkpt><trkpt lat="38.6113635" lon="0.3952833"><ele>0.0</ele><time>2026-04-29T18:28:43.031Z</time></trkpt><trkpt lat="38.6114335" lon="0.3953446"><ele>0.0</ele><time>2026-04-29T18:28:44.032Z</time></trkpt><trkpt lat="38.6115048" lon="0.3954047"><ele>0.0</ele><time>2026-04-29T18:28:45.032Z</time></trkpt><trkpt lat="38.6115766" lon="0.395468"><ele>0.0</ele><time>2026-04-29T18:28:46.032Z</time></trkpt><trkpt lat="38.611647" lon="0.3955303"><ele>0.0</ele><time>2026-04-29T18:28:47.032Z</time></trkpt><trkpt lat="38.6117197" lon="0.3955927"><ele>0.0</ele><time>2026-04-29T18:28:48.031Z</time></trkpt><trkpt lat="38.6117947" lon="0.3956545"><ele>0.0</ele><time>2026-04-29T18:28:49.031Z</time></trkpt><trkpt lat="38.6118654" lon="0.395715"><ele>0.0</ele><time>2026-04-29T18:28:50.031Z</time></trkpt><trkpt lat="38.6119349" lon="0.395781"><ele>0.0</ele><time>2026-04-29T18:28:51.032Z</time></trkpt><trkpt lat="38.6120036" lon="0.3958448"><ele>0.0</ele><time>2026-04-29T18:28:52.031Z</time></trkpt><trkpt lat="38.6120733" lon="0.3959099"><ele>0.0</ele><time>2026-04-29T18:28:53.031Z</time></trkpt><trkpt lat="38.6121388" lon="0.3959755"><ele>0.0</ele><time>2026-04-29T18:28:54.031Z</time></trkpt><trkpt lat="38.6122083" lon="0.3960386"><ele>0.0</ele><time>2026-04-29T18:28:55.031Z</time></trkpt><trkpt lat="38.6122784" lon="0.3961021"><ele>0.0</ele><time>2026-04-29T18:28:56.031Z</time></trkpt><trkpt lat="38.6123499" lon="0.3961666"><ele>0.0</ele><time>2026-04-29T18:28:57.032Z</time></trkpt><trkpt lat="38.6124227" lon="0.3962298"><ele>0.0</ele><time>2026-04-29T18:28:58.032Z</time></trkpt><trkpt lat="38.6124965" lon="0.3962932"><ele>0.0</ele><time>2026-04-29T18:28:59.031Z</time></trkpt><trkpt lat="38.6126398" lon="0.396415"><ele>0.0</ele><time>2026-04-29T18:29:01.031Z</time></trkpt><trkpt lat="38.6127127" lon="0.3964795"><ele>0.0</ele><time>2026-04-29T18:29:02.031Z</time></trkpt><trkpt lat="38.612785" lon="0.3965418"><ele>0.0</ele><time>2026-04-29T18:29:03.031Z</time></trkpt><trkpt lat="38.6128594" lon="0.3965906"><ele>0.0</ele><time>2026-04-29T18:29:04.032Z</time></trkpt><trkpt lat="38.6129313" lon="0.3966474"><ele>0.0</ele><time>2026-04-29T18:29:05.032Z</time></trkpt><trkpt lat="38.6130003" lon="0.3967091"><ele>0.0</ele><time>2026-04-29T18:29:06.032Z</time></trkpt><trkpt lat="38.6130684" lon="0.396767"><ele>0.0</ele><time>2026-04-29T18:29:07.03Z</time></trkpt><trkpt lat="38.6131398" lon="0.396831"><ele>0.0</ele><time>2026-04-29T18:29:08.03Z</time></trkpt><trkpt lat="38.6132133" lon="0.3968928"><ele>0.0</ele><time>2026-04-29T18:29:09.031Z</time></trkpt><trkpt lat="38.6132837" lon="0.3969516"><ele>0.0</ele><time>2026-04-29T18:29:10.031Z</time></trkpt><trkpt lat="38.6133567" lon="0.3970128"><ele>0.0</ele><time>2026-04-29T18:29:11.03Z</time></trkpt><trkpt lat="38.6134285" lon="0.3970744"><ele>0.0</ele><time>2026-04-29T18:29:12.031Z</time></trkpt><trkpt lat="38.6135057" lon="0.3971337"><ele>0.0</ele><time>2026-04-29T18:29:13.03Z</time></trkpt><trkpt lat="38.613579" lon="0.3971902"><ele>0.0</ele><time>2026-04-29T18:29:14.03Z</time></trkpt><trkpt lat="38.6136487" lon="0.39725"><ele>0.0</ele><time>2026-04-29T18:29:15.031Z</time></trkpt><trkpt lat="38.6137202" lon="0.39731"><ele>0.0</ele><time>2026-04-29T18:29:16.03Z</time></trkpt><trkpt lat="38.6137932" lon="0.3973697"><ele>0.0</ele><time>2026-04-29T18:29:17.03Z</time></trkpt><trkpt lat="38.6138652" lon="0.3974297"><ele>0.0</ele><time>2026-04-29T18:29:18.03Z</time></trkpt><trkpt lat="38.6139397" lon="0.3974911"><ele>0.0</ele><time>2026-04-29T18:29:19.031Z</time></trkpt><trkpt lat="38.6140092" lon="0.3975487"><ele>0.0</ele><time>2026-04-29T18:29:20.03Z</time></trkpt><trkpt lat="38.6141468" lon="0.3976712"><ele>0.0</ele><time>2026-04-29T18:29:22.03Z</time></trkpt><trkpt lat="38.6142142" lon="0.3977249"><ele>0.0</ele><time>2026-04-29T18:29:23.03Z</time></trkpt><trkpt lat="38.6142837" lon="0.3977835"><ele>0.0</ele><time>2026-04-29T18:29:24.031Z</time></trkpt><trkpt lat="38.6143521" lon="0.3978446"><ele>0.0</ele><time>2026-04-29T18:29:25.031Z</time></trkpt><trkpt lat="38.6144218" lon="0.3979081"><ele>0.0</ele><time>2026-04-29T18:29:26.031Z</time></trkpt><trkpt lat="38.6144916" lon="0.3979761"><ele>0.0</ele><time>2026-04-29T18:29:27.031Z</time></trkpt><trkpt lat="38.6145645" lon="0.3980427"><ele>0.0</ele><time>2026-04-29T18:29:28.03Z</time></trkpt><trkpt lat="38.6146335" lon="0.398111"><ele>0.0</ele><time>2026-04-29T18:29:29.03Z</time></trkpt><trkpt lat="38.6147078" lon="0.398155"><ele>0.0</ele><time>2026-04-29T18:29:30.03Z</time></trkpt><trkpt lat="38.6147775" lon="0.3982216"><ele>0.0</ele><time>2026-04-29T18:29:31.03Z</time></trkpt><trkpt lat="38.6148499" lon="0.3982844"><ele>0.0</ele><time>2026-04-29T18:29:32.03Z</time></trkpt><trkpt lat="38.6149219" lon="0.3983432"><ele>0.0</ele><time>2026-04-29T18:29:33.03Z</time></trkpt><trkpt lat="38.6149906" lon="0.3983977"><ele>0.0</ele><time>2026-04-29T18:29:34.031Z</time></trkpt><trkpt lat="38.6150605" lon="0.3984523"><ele>0.0</ele><time>2026-04-29T18:29:35.031Z</time></trkpt><trkpt lat="38.6151286" lon="0.3985016"><ele>0.0</ele><time>2026-04-29T18:29:36.03Z</time></trkpt><trkpt lat="38.6152015" lon="0.3985504"><ele>0.0</ele><time>2026-04-29T18:29:37.03Z</time></trkpt><trkpt lat="38.6152689" lon="0.3986084"><ele>0.0</ele><time>2026-04-29T18:29:38.03Z</time></trkpt><trkpt lat="38.6153414" lon="0.3986713"><ele>0.0</ele><time>2026-04-29T18:29:39.031Z</time></trkpt><trkpt lat="38.6154166" lon="0.3987313"><ele>0.0</ele><time>2026-04-29T18:29:40.031Z</time></trkpt><trkpt lat="38.6154914" lon="0.3987942"><ele>0.0</ele><time>2026-04-29T18:29:41.031Z</time></trkpt><trkpt lat="38.615635" lon="0.3989228"><ele>0.0</ele><time>2026-04-29T18:29:43.03Z</time></trkpt><trkpt lat="38.6157032" lon="0.3989893"><ele>0.0</ele><time>2026-04-29T18:29:44.03Z</time></trkpt><trkpt lat="38.6157747" lon="0.399056"><ele>0.0</ele><time>2026-04-29T18:29:45.03Z</time></trkpt><trkpt lat="38.6158451" lon="0.3991196"><ele>0.0</ele><time>2026-04-29T18:29:46.031Z</time></trkpt><trkpt lat="38.615912" lon="0.3991875"><ele>0.0</ele><time>2026-04-29T18:29:47.031Z</time></trkpt><trkpt lat="38.6159774" lon="0.3992658"><ele>0.0</ele><time>2026-04-29T18:29:48.03Z</time></trkpt><trkpt lat="38.6160466" lon="0.3993405"><ele>0.0</ele><time>2026-04-29T18:29:49.03Z</time></trkpt><trkpt lat="38.6161164" lon="0.3994129"><ele>0.0</ele><time>2026-04-29T18:29:50.031Z</time></trkpt><trkpt lat="38.616191" lon="0.3994841"><ele>0.0</ele><time>2026-04-29T18:29:51.031Z</time></trkpt><trkpt lat="38.6162646" lon="0.3995528"><ele>0.0</ele><time>2026-04-29T18:29:52.031Z</time></trkpt><trkpt lat="38.6163378" lon="0.3996176"><ele>0.0</ele><time>2026-04-29T18:29:53.03Z</time></trkpt><trkpt lat="38.6164126" lon="0.3996829"><ele>0.0</ele><time>2026-04-29T18:29:54.031Z</time></trkpt><trkpt lat="38.616485" lon="0.3997465"><ele>0.0</ele><time>2026-04-29T18:29:55.03Z</time></trkpt><trkpt lat="38.6165567" lon="0.3998129"><ele>0.0</ele><time>2026-04-29T18:29:56.03Z</time></trkpt><trkpt lat="38.616627" lon="0.3998785"><ele>0.0</ele><time>2026-04-29T18:29:57.031Z</time></trkpt><trkpt lat="38.6166982" lon="0.3999417"><ele>0.0</ele><time>2026-04-29T18:29:58.031Z</time></trkpt><trkpt lat="38.6167698" lon="0.4000065"><ele>0.0</ele><time>2026-04-29T18:29:59.03Z</time></trkpt><trkpt lat="38.6168402" lon="0.4000701"><ele>0.0</ele><time>2026-04-29T18:30:00.03Z</time></trkpt><trkpt lat="38.6169088" lon="0.4001363"><ele>0.0</ele><time>2026-04-29T18:30:01.03Z</time></trkpt><trkpt lat="38.6169769" lon="0.4002029"><ele>0.0</ele><time>2026-04-29T18:30:02.03Z</time></trkpt><trkpt lat="38.6171116" lon="0.4003217"><ele>0.0</ele><time>2026-04-29T18:30:04.03Z</time></trkpt><trkpt lat="38.6171819" lon="0.4003852"><ele>0.0</ele><time>2026-04-29T18:30:05.03Z</time></trkpt><trkpt lat="38.6172502" lon="0.4004454"><ele>0.0</ele><time>2026-04-29T18:30:06.03Z</time></trkpt><trkpt lat="38.6173204" lon="0.4005036"><ele>0.0</ele><time>2026-04-29T18:30:07.03Z</time></trkpt><trkpt lat="38.6173902" lon="0.4005647"><ele>0.0</ele><time>2026-04-29T18:30:08.03Z</time></trkpt><trkpt lat="38.6174584" lon="0.4006283"><ele>0.0</ele><time>2026-04-29T18:30:09.031Z</time></trkpt><trkpt lat="38.6175269" lon="0.4006886"><ele>0.0</ele><time>2026-04-29T18:30:10.03Z</time></trkpt><trkpt lat="38.6175971" lon="0.4007438"><ele>0.0</ele><time>2026-04-29T18:30:11.03Z</time></trkpt><trkpt lat="38.6176659" lon="0.4008007"><ele>0.0</ele><time>2026-04-29T18:30:12.031Z</time></trkpt><trkpt lat="38.6177313" lon="0.40085"><ele>0.0</ele><time>2026-04-29T18:30:13.03Z</time></trkpt><trkpt lat="38.6177988" lon="0.4009097"><ele>0.0</ele><time>2026-04-29T18:30:14.031Z</time></trkpt><trkpt lat="38.6178655" lon="0.4009693"><ele>0.0</ele><time>2026-04-29T18:30:15.031Z</time></trkpt><trkpt lat="38.6179372" lon="0.4010249"><ele>0.0</ele><time>2026-04-29T18:30:16.03Z</time></trkpt><trkpt lat="38.6180112" lon="0.4010856"><ele>0.0</ele><time>2026-04-29T18:30:17.031Z</time></trkpt><trkpt lat="38.6180875" lon="0.4011429"><ele>0.0</ele><time>2026-04-29T18:30:18.03Z</time></trkpt><trkpt lat="38.6181655" lon="0.4012057"><ele>0.0</ele><time>2026-04-29T18:30:19.031Z</time></trkpt><trkpt lat="38.6182371" lon="0.4012745"><ele>0.0</ele><time>2026-04-29T18:30:20.031Z</time></trkpt><trkpt lat="38.6183146" lon="0.4013389"><ele>0.0</ele><time>2026-04-29T18:30:21.031Z</time></trkpt><trkpt lat="38.6183911" lon="0.401407"><ele>0.0</ele><time>2026-04-29T18:30:22.03Z</time></trkpt><trkpt lat="38.6184605" lon="0.401484"><ele>0.0</ele><time>2026-04-29T18:30:23.03Z</time></trkpt><trkpt lat="38.6186015" lon="0.4016247"><ele>0.0</ele><time>2026-04-29T18:30:25.03Z</time></trkpt><trkpt lat="38.6186741" lon="0.4016891"><ele>0.0</ele><time>2026-04-29T18:30:26.031Z</time></trkpt><trkpt lat="38.6187427" lon="0.4017497"><ele>0.0</ele><time>2026-04-29T18:30:27.031Z</time></trkpt><trkpt lat="38.6188061" lon="0.401806"><ele>0.0</ele><time>2026-04-29T18:30:28.031Z</time></trkpt><trkpt lat="38.6188739" lon="0.4018654"><ele>0.0</ele><time>2026-04-29T18:30:29.031Z</time></trkpt><trkpt lat="38.6189452" lon="0.4019282"><ele>0.0</ele><time>2026-04-29T18:30:30.03Z</time></trkpt><trkpt lat="38.6190182" lon="0.4019916"><ele>0.0</ele><time>2026-04-29T18:30:31.03Z</time></trkpt><trkpt lat="38.6190856" lon="0.4020504"><ele>0.0</ele><time>2026-04-29T18:30:32.03Z</time></trkpt><trkpt lat="38.6191553" lon="0.4021075"><ele>0.0</ele><time>2026-04-29T18:30:33.03Z</time></trkpt><trkpt lat="38.6192285" lon="0.4021577"><ele>0.0</ele><time>2026-04-29T18:30:34.03Z</time></trkpt><trkpt lat="38.6193048" lon="0.4022147"><ele>0.0</ele><time>2026-04-29T18:30:35.03Z</time></trkpt><trkpt lat="38.6193798" lon="0.4022635"><ele>0.0</ele><time>2026-04-29T18:30:36.03Z</time></trkpt><trkpt lat="38.6194549" lon="0.402323"><ele>0.0</ele><time>2026-04-29T18:30:37.031Z</time></trkpt><trkpt lat="38.6195283" lon="0.4023814"><ele>0.0</ele><time>2026-04-29T18:30:38.031Z</time></trkpt><trkpt lat="38.6195985" lon="0.4024503"><ele>0.0</ele><time>2026-04-29T18:30:39.03Z</time></trkpt><trkpt lat="38.6196672" lon="0.4025244"><ele>0.0</ele><time>2026-04-29T18:30:40.03Z</time></trkpt><trkpt lat="38.6197413" lon="0.4025926"><ele>0.0</ele><time>2026-04-29T18:30:41.031Z</time></trkpt><trkpt lat="38.6198131" lon="0.4026607"><ele>0.0</ele><time>2026-04-29T18:30:42.031Z</time></trkpt><trkpt lat="38.619885" lon="0.4027229"><ele>0.0</ele><time>2026-04-29T18:30:43.031Z</time></trkpt><trkpt lat="38.6199481" lon="0.4027944"><ele>0.0</ele><time>2026-04-29T18:30:44.031Z</time></trkpt><trkpt lat="38.6200862" lon="0.4029243"><ele>0.0</ele><time>2026-04-29T18:30:46.031Z</time></trkpt><trkpt lat="38.6201547" lon="0.4029926"><ele>0.0</ele><time>2026-04-29T18:30:47.03Z</time></trkpt><trkpt lat="38.6202217" lon="0.4030585"><ele>0.0</ele><time>2026-04-29T18:30:48.03Z</time></trkpt><trkpt lat="38.6202913" lon="0.4031276"><ele>0.0</ele><time>2026-04-29T18:30:49.03Z</time></trkpt><trkpt lat="38.6203613" lon="0.4031979"><ele>0.0</ele><time>2026-04-29T18:30:50.031Z</time></trkpt><trkpt lat="38.620433" lon="0.4032647"><ele>0.0</ele><time>2026-04-29T18:30:51.03Z</time></trkpt><trkpt lat="38.6205033" lon="0.4033321"><ele>0.0</ele><time>2026-04-29T18:30:52.03Z</time></trkpt><trkpt lat="38.6205777" lon="0.4034025"><ele>0.0</ele><time>2026-04-29T18:30:53.03Z</time></trkpt><trkpt lat="38.6206499" lon="0.4034709"><ele>0.0</ele><time>2026-04-29T18:30:54.03Z</time></trkpt><trkpt lat="38.620723" lon="0.4035378"><ele>0.0</ele><time>2026-04-29T18:30:55.03Z</time></trkpt><trkpt lat="38.6207936" lon="0.403605"><ele>0.0</ele><time>2026-04-29T18:30:56.03Z</time></trkpt><trkpt lat="38.6208633" lon="0.40367"><ele>0.0</ele><time>2026-04-29T18:30:57.03Z</time></trkpt><trkpt lat="38.6209321" lon="0.4037352"><ele>0.0</ele><time>2026-04-29T18:30:58.03Z</time></trkpt><trkpt lat="38.6210002" lon="0.4038017"><ele>0.0</ele><time>2026-04-29T18:30:59.031Z</time></trkpt><trkpt lat="38.6210686" lon="0.4038671"><ele>0.0</ele><time>2026-04-29T18:31:00.03Z</time></trkpt><trkpt lat="38.6211384" lon="0.4039318"><ele>0.0</ele><time>2026-04-29T18:31:01.03Z</time></trkpt><trkpt lat="38.6212082" lon="0.403997"><ele>0.0</ele><time>2026-04-29T18:31:02.031Z</time></trkpt><trkpt lat="38.6212754" lon="0.4040617"><ele>0.0</ele><time>2026-04-29T18:31:03.03Z</time></trkpt><trkpt lat="38.6213434" lon="0.4041265"><ele>0.0</ele><time>2026-04-29T18:31:04.03Z</time></trkpt><trkpt lat="38.6214118" lon="0.4041919"><ele>0.0</ele><time>2026-04-29T18:31:05.03Z</time></trkpt><trkpt lat="38.6215502" lon="0.4043215"><ele>0.0</ele><time>2026-04-29T18:31:07.031Z</time></trkpt><trkpt lat="38.6216185" lon="0.4043883"><ele>0.0</ele><time>2026-04-29T18:31:08.03Z</time></trkpt><trkpt lat="38.6216868" lon="0.4044535"><ele>0.0</ele><time>2026-04-29T18:31:09.03Z</time></trkpt><trkpt lat="38.6217564" lon="0.4045184"><ele>0.0</ele><time>2026-04-29T18:31:10.03Z</time></trkpt><trkpt lat="38.6218294" lon="0.4045862"><ele>0.0</ele><time>2026-04-29T18:31:11.031Z</time></trkpt><trkpt lat="38.621902" lon="0.4046482"><ele>0.0</ele><time>2026-04-29T18:31:12.03Z</time></trkpt><trkpt lat="38.6219733" lon="0.40471"><ele>0.0</ele><time>2026-04-29T18:31:13.03Z</time></trkpt><trkpt lat="38.6220434" lon="0.4047729"><ele>0.0</ele><time>2026-04-29T18:31:14.03Z</time></trkpt><trkpt lat="38.6221134" lon="0.4048366"><ele>0.0</ele><time>2026-04-29T18:31:15.03Z</time></trkpt><trkpt lat="38.6221861" lon="0.4048945"><ele>0.0</ele><time>2026-04-29T18:31:16.031Z</time></trkpt><trkpt lat="38.6222557" lon="0.4049463"><ele>0.0</ele><time>2026-04-29T18:31:17.03Z</time></trkpt><trkpt lat="38.6223281" lon="0.4050068"><ele>0.0</ele><time>2026-04-29T18:31:18.03Z</time></trkpt><trkpt lat="38.6224004" lon="0.4050652"><ele>0.0</ele><time>2026-04-29T18:31:19.03Z</time></trkpt><trkpt lat="38.6224736" lon="0.4051219"><ele>0.0</ele><time>2026-04-29T18:31:20.031Z</time></trkpt><trkpt lat="38.6225468" lon="0.4051783"><ele>0.0</ele><time>2026-04-29T18:31:21.03Z</time></trkpt><trkpt lat="38.6226184" lon="0.4052383"><ele>0.0</ele><time>2026-04-29T18:31:22.03Z</time></trkpt><trkpt lat="38.6226886" lon="0.4052983"><ele>0.0</ele><time>2026-04-29T18:31:23.03Z</time></trkpt><trkpt lat="38.6227586" lon="0.4053569"><ele>0.0</ele><time>2026-04-29T18:31:24.031Z</time></trkpt><trkpt lat="38.6228299" lon="0.4054197"><ele>0.0</ele><time>2026-04-29T18:31:25.03Z</time></trkpt><trkpt lat="38.6228975" lon="0.4054827"><ele>0.0</ele><time>2026-04-29T18:31:26.03Z</time></trkpt><trkpt lat="38.6229697" lon="0.4055479"><ele>0.0</ele><time>2026-04-29T18:31:27.03Z</time></trkpt><trkpt lat="38.62311" lon="0.4056782"><ele>0.0</ele><time>2026-04-29T18:31:29.03Z</time></trkpt><trkpt lat="38.6231816" lon="0.4057403"><ele>0.0</ele><time>2026-04-29T18:31:30.03Z</time></trkpt><trkpt lat="38.6232533" lon="0.4057789"><ele>0.0</ele><time>2026-04-29T18:31:31.03Z</time></trkpt><trkpt lat="38.6233235" lon="0.4058358"><ele>0.0</ele><time>2026-04-29T18:31:32.03Z</time></trkpt><trkpt lat="38.6233907" lon="0.4058968"><ele>0.0</ele><time>2026-04-29T18:31:33.03Z</time></trkpt><trkpt lat="38.6234629" lon="0.405961"><ele>0.0</ele><time>2026-04-29T18:31:34.031Z</time></trkpt><trkpt lat="38.6235362" lon="0.4060246"><ele>0.0</ele><time>2026-04-29T18:31:35.03Z</time></trkpt><trkpt lat="38.6236053" lon="0.4060883"><ele>0.0</ele><time>2026-04-29T18:31:36.031Z</time></trkpt><trkpt lat="38.623678" lon="0.4061517"><ele>0.0</ele><time>2026-04-29T18:31:37.031Z</time></trkpt><trkpt lat="38.6237516" lon="0.4062188"><ele>0.0</ele><time>2026-04-29T18:31:38.03Z</time></trkpt><trkpt lat="38.6238239" lon="0.4062834"><ele>0.0</ele><time>2026-04-29T18:31:39.03Z</time></trkpt><trkpt lat="38.6238984" lon="0.4063448"><ele>0.0</ele><time>2026-04-29T18:31:40.031Z</time></trkpt><trkpt lat="38.6239705" lon="0.406405"><ele>0.0</ele><time>2026-04-29T18:31:41.03Z</time></trkpt><trkpt lat="38.6240419" lon="0.4064668"><ele>0.0</ele><time>2026-04-29T18:31:42.03Z</time></trkpt><trkpt lat="38.6241133" lon="0.4065294"><ele>0.0</ele><time>2026-04-29T18:31:43.03Z</time></trkpt><trkpt lat="38.6241864" lon="0.4065929"><ele>0.0</ele><time>2026-04-29T18:31:44.03Z</time></trkpt><trkpt lat="38.6242614" lon="0.4066594"><ele>0.0</ele><time>2026-04-29T18:31:45.03Z</time></trkpt><trkpt lat="38.6243349" lon="0.4067246"><ele>0.0</ele><time>2026-04-29T18:31:46.031Z</time></trkpt><trkpt lat="38.6244047" lon="0.4067911"><ele>0.0</ele><time>2026-04-29T18:31:47.031Z</time></trkpt><trkpt lat="38.6244748" lon="0.4068578"><ele>0.0</ele><time>2026-04-29T18:31:48.031Z</time></trkpt><trkpt lat="38.6246133" lon="0.4069961"><ele>0.0</ele><time>2026-04-29T18:31:50.03Z</time></trkpt><trkpt lat="38.6246833" lon="0.4070634"><ele>0.0</ele><time>2026-04-29T18:31:51.03Z</time></trkpt><trkpt lat="38.6247546" lon="0.4071282"><ele>0.0</ele><time>2026-04-29T18:31:52.03Z</time></trkpt><trkpt lat="38.6248281" lon="0.4071901"><ele>0.0</ele><time>2026-04-29T18:31:53.03Z</time></trkpt><trkpt lat="38.6248982" lon="0.407255"><ele>0.0</ele><time>2026-04-29T18:31:54.031Z</time></trkpt><trkpt lat="38.6249684" lon="0.4073183"><ele>0.0</ele><time>2026-04-29T18:31:55.03Z</time></trkpt><trkpt lat="38.625037" lon="0.4073802"><ele>0.0</ele><time>2026-04-29T18:31:56.03Z</time></trkpt><trkpt lat="38.6251051" lon="0.4074445"><ele>0.0</ele><time>2026-04-29T18:31:57.031Z</time></trkpt><trkpt lat="38.6251766" lon="0.4075079"><ele>0.0</ele><time>2026-04-29T18:31:58.03Z</time></trkpt><trkpt lat="38.6252481" lon="0.4075729"><ele>0.0</ele><time>2026-04-29T18:31:59.03Z</time></trkpt><trkpt lat="38.625317" lon="0.4076366"><ele>0.0</ele><time>2026-04-29T18:32:00.03Z</time></trkpt><trkpt lat="38.6253879" lon="0.4077011"><ele>0.0</ele><time>2026-04-29T18:32:01.03Z</time></trkpt><trkpt lat="38.6254585" lon="0.4077632"><ele>0.0</ele><time>2026-04-29T18:32:02.031Z</time></trkpt><trkpt lat="38.6255289" lon="0.40782"><ele>0.0</ele><time>2026-04-29T18:32:03.031Z</time></trkpt><trkpt lat="38.6255986" lon="0.4078814"><ele>0.0</ele><time>2026-04-29T18:32:04.031Z</time></trkpt><trkpt lat="38.625667" lon="0.4079494"><ele>0.0</ele><time>2026-04-29T18:32:05.031Z</time></trkpt><trkpt lat="38.6257342" lon="0.4080089"><ele>0.0</ele><time>2026-04-29T18:32:06.031Z</time></trkpt><trkpt lat="38.6258037" lon="0.4080761"><ele>0.0</ele><time>2026-04-29T18:32:07.03Z</time></trkpt><trkpt lat="38.6258734" lon="0.4081384"><ele>0.0</ele><time>2026-04-29T18:32:08.03Z</time></trkpt><trkpt lat="38.6259437" lon="0.4081998"><ele>0.0</ele><time>2026-04-29T18:32:09.03Z</time></trkpt><trkpt lat="38.6260806" lon="0.4083235"><ele>0.0</ele><time>2026-04-29T18:32:11.03Z</time></trkpt><trkpt lat="38.6261487" lon="0.4083852"><ele>0.0</ele><time>2026-04-29T18:32:12.03Z</time></trkpt><trkpt lat="38.6262168" lon="0.4084516"><ele>0.0</ele><time>2026-04-29T18:32:13.031Z</time></trkpt><trkpt lat="38.6262883" lon="0.4085162"><ele>0.0</ele><time>2026-04-29T18:32:14.03Z</time></trkpt><trkpt lat="38.6263586" lon="0.4085801"><ele>0.0</ele><time>2026-04-29T18:32:15.03Z</time></trkpt><trkpt lat="38.626427" lon="0.408645"><ele>0.0</ele><time>2026-04-29T18:32:16.03Z</time></trkpt><trkpt lat="38.6264982" lon="0.408708"><ele>0.0</ele><time>2026-04-29T18:32:17.03Z</time></trkpt><trkpt lat="38.6265682" lon="0.4087746"><ele>0.0</ele><time>2026-04-29T18:32:18.031Z</time></trkpt><trkpt lat="38.6266412" lon="0.4088396"><ele>0.0</ele><time>2026-04-29T18:32:19.031Z</time></trkpt><trkpt lat="38.6267149" lon="0.4089018"><ele>0.0</ele><time>2026-04-29T18:32:20.03Z</time></trkpt><trkpt lat="38.626788" lon="0.4089648"><ele>0.0</ele><time>2026-04-29T18:32:21.03Z</time></trkpt><trkpt lat="38.6268628" lon="0.4089982"><ele>0.0</ele><time>2026-04-29T18:32:22.031Z</time></trkpt><trkpt lat="38.6269346" lon="0.4090551"><ele>0.0</ele><time>2026-04-29T18:32:23.03Z</time></trkpt><trkpt lat="38.6270095" lon="0.409115"><ele>0.0</ele><time>2026-04-29T18:32:24.031Z</time></trkpt><trkpt lat="38.6270846" lon="0.4091747"><ele>0.0</ele><time>2026-04-29T18:32:25.03Z</time></trkpt><trkpt lat="38.6271581" lon="0.4092346"><ele>0.0</ele><time>2026-04-29T18:32:26.031Z</time></trkpt><trkpt lat="38.6272314" lon="0.4092976"><ele>0.0</ele><time>2026-04-29T18:32:27.03Z</time></trkpt><trkpt lat="38.6273065" lon="0.4093581"><ele>0.0</ele><time>2026-04-29T18:32:28.031Z</time></trkpt><trkpt lat="38.6273815" lon="0.409421"><ele>0.0</ele><time>2026-04-29T18:32:29.031Z</time></trkpt><trkpt lat="38.6274545" lon="0.4094844"><ele>0.0</ele><time>2026-04-29T18:32:30.031Z</time></trkpt><trkpt lat="38.6276045" lon="0.4096092"><ele>0.0</ele><time>2026-04-29T18:32:32.031Z</time></trkpt><trkpt lat="38.6276776" lon="0.4096758"><ele>0.0</ele><time>2026-04-29T18:32:33.03Z</time></trkpt><trkpt lat="38.6277527" lon="0.4097393"><ele>0.0</ele><time>2026-04-29T18:32:34.03Z</time></trkpt><trkpt lat="38.6278265" lon="0.4098042"><ele>0.0</ele><time>2026-04-29T18:32:35.03Z</time></trkpt><trkpt lat="38.6278983" lon="0.409868"><ele>0.0</ele><time>2026-04-29T18:32:36.03Z</time></trkpt><trkpt lat="38.6279672" lon="0.4099332"><ele>0.0</ele><time>2026-04-29T18:32:37.03Z</time></trkpt><trkpt lat="38.6280353" lon="0.41"><ele>0.0</ele><time>2026-04-29T18:32:38.03Z</time></trkpt><trkpt lat="38.6281022" lon="0.4100667"><ele>0.0</ele><time>2026-04-29T18:32:39.03Z</time></trkpt><trkpt lat="38.6281718" lon="0.4101346"><ele>0.0</ele><time>2026-04-29T18:32:40.03Z</time></trkpt><trkpt lat="38.6282447" lon="0.4101997"><ele>0.0</ele><time>2026-04-29T18:32:41.031Z</time></trkpt><trkpt lat="38.6283153" lon="0.4102661"><ele>0.0</ele><time>2026-04-29T18:32:42.03Z</time></trkpt><trkpt lat="38.628385" lon="0.4103312"><ele>0.0</ele><time>2026-04-29T18:32:43.03Z</time></trkpt><trkpt lat="38.6284578" lon="0.4103979"><ele>0.0</ele><time>2026-04-29T18:32:44.03Z</time></trkpt><trkpt lat="38.6285283" lon="0.4104616"><ele>0.0</ele><time>2026-04-29T18:32:45.031Z</time></trkpt><trkpt lat="38.6285985" lon="0.4105251"><ele>0.0</ele><time>2026-04-29T18:32:46.031Z</time></trkpt><trkpt lat="38.6286656" lon="0.4105855"><ele>0.0</ele><time>2026-04-29T18:32:47.031Z</time></trkpt><trkpt lat="38.6287322" lon="0.4106485"><ele>0.0</ele><time>2026-04-29T18:32:48.031Z</time></trkpt><trkpt lat="38.6287992" lon="0.4107031"><ele>0.0</ele><time>2026-04-29T18:32:49.03Z</time></trkpt><trkpt lat="38.6288673" lon="0.410765"><ele>0.0</ele><time>2026-04-29T18:32:50.03Z</time></trkpt><trkpt lat="38.6289369" lon="0.4108266"><ele>0.0</ele><time>2026-04-29T18:32:51.031Z</time></trkpt><trkpt lat="38.6290813" lon="0.4109505"><ele>0.0</ele><time>2026-04-29T18:32:53.03Z</time></trkpt><trkpt lat="38.6291547" lon="0.4110097"><ele>0.0</ele><time>2026-04-29T18:32:54.031Z</time></trkpt><trkpt lat="38.6292266" lon="0.4110713"><ele>0.0</ele><time>2026-04-29T18:32:55.03Z</time></trkpt><trkpt lat="38.6292984" lon="0.4111317"><ele>0.0</ele><time>2026-04-29T18:32:56.03Z</time></trkpt><trkpt lat="38.6293681" lon="0.4111947"><ele>0.0</ele><time>2026-04-29T18:32:57.031Z</time></trkpt><trkpt lat="38.6294415" lon="0.4112549"><ele>0.0</ele><time>2026-04-29T18:32:58.03Z</time></trkpt><trkpt lat="38.629518" lon="0.4113051"><ele>0.0</ele><time>2026-04-29T18:32:59.03Z</time></trkpt><trkpt lat="38.6295905" lon="0.4113658"><ele>0.0</ele><time>2026-04-29T18:33:00.031Z</time></trkpt><trkpt lat="38.6296609" lon="0.4114217"><ele>0.0</ele><time>2026-04-29T18:33:01.03Z</time></trkpt><trkpt lat="38.6297263" lon="0.4114941"><ele>0.0</ele><time>2026-04-29T18:33:02.03Z</time></trkpt><trkpt lat="38.6297955" lon="0.4115559"><ele>0.0</ele><time>2026-04-29T18:33:03.031Z</time></trkpt><trkpt lat="38.6298611" lon="0.4116217"><ele>0.0</ele><time>2026-04-29T18:33:04.031Z</time></trkpt><trkpt lat="38.6299275" lon="0.4116879"><ele>0.0</ele><time>2026-04-29T18:33:05.03Z</time></trkpt><trkpt lat="38.6299983" lon="0.4117519"><ele>0.0</ele><time>2026-04-29T18:33:06.031Z</time></trkpt><trkpt lat="38.6300684" lon="0.4118143"><ele>0.0</ele><time>2026-04-29T18:33:07.03Z</time></trkpt><trkpt lat="38.6301397" lon="0.4118795"><ele>0.0</ele><time>2026-04-29T18:33:08.03Z</time></trkpt><trkpt lat="38.6302117" lon="0.4119431"><ele>0.0</ele><time>2026-04-29T18:33:09.03Z</time></trkpt><trkpt lat="38.630279" lon="0.4120081"><ele>0.0</ele><time>2026-04-29T18:33:10.03Z</time></trkpt><trkpt lat="38.6303487" lon="0.41207"><ele>0.0</ele><time>2026-04-29T18:33:11.031Z</time></trkpt><trkpt lat="38.6304174" lon="0.4121374"><ele>0.0</ele><time>2026-04-29T18:33:12.03Z</time></trkpt><trkpt lat="38.6305521" lon="0.412268"><ele>0.0</ele><time>2026-04-29T18:33:14.03Z</time></trkpt><trkpt lat="38.630623" lon="0.41233"><ele>0.0</ele><time>2026-04-29T18:33:15.031Z</time></trkpt><trkpt lat="38.630695" lon="0.4123942"><ele>0.0</ele><time>2026-04-29T18:33:16.03Z</time></trkpt><trkpt lat="38.6307667" lon="0.4124566"><ele>0.0</ele><time>2026-04-29T18:33:17.03Z</time></trkpt><trkpt lat="38.6308398" lon="0.4125134"><ele>0.0</ele><time>2026-04-29T18:33:18.03Z</time></trkpt><trkpt lat="38.630913" lon="0.4125747"><ele>0.0</ele><time>2026-04-29T18:33:19.031Z</time></trkpt><trkpt lat="38.6309863" lon="0.4126352"><ele>0.0</ele><time>2026-04-29T18:33:20.03Z</time></trkpt><trkpt lat="38.6310597" lon="0.4126953"><ele>0.0</ele><time>2026-04-29T18:33:21.03Z</time></trkpt><trkpt lat="38.6311303" lon="0.412755"><ele>0.0</ele><time>2026-04-29T18:33:22.03Z</time></trkpt><trkpt lat="38.6311975" lon="0.4128192"><ele>0.0</ele><time>2026-04-29T18:33:23.03Z</time></trkpt><trkpt lat="38.6312641" lon="0.4128741"><ele>0.0</ele><time>2026-04-29T18:33:24.03Z</time></trkpt><trkpt lat="38.631335" lon="0.4129361"><ele>0.0</ele><time>2026-04-29T18:33:25.03Z</time></trkpt><trkpt lat="38.631401" lon="0.4129855"><ele>0.0</ele><time>2026-04-29T18:33:26.031Z</time></trkpt><trkpt lat="38.631472" lon="0.4130234"><ele>0.0</ele><time>2026-04-29T18:33:27.03Z</time></trkpt><trkpt lat="38.6315464" lon="0.4130616"><ele>0.0</ele><time>2026-04-29T18:33:28.031Z</time></trkpt><trkpt lat="38.6316172" lon="0.4131166"><ele>0.0</ele><time>2026-04-29T18:33:29.031Z</time></trkpt><trkpt lat="38.6316841" lon="0.4131783"><ele>0.0</ele><time>2026-04-29T18:33:30.031Z</time></trkpt><trkpt lat="38.6317565" lon="0.4132378"><ele>0.0</ele><time>2026-04-29T18:33:31.03Z</time></trkpt><trkpt lat="38.6318311" lon="0.4133024"><ele>0.0</ele><time>2026-04-29T18:33:32.03Z</time></trkpt><trkpt lat="38.6319073" lon="0.4133686"><ele>0.0</ele><time>2026-04-29T18:33:33.03Z</time></trkpt><trkpt lat="38.631977" lon="0.4134297"><ele>0.0</ele><time>2026-04-29T18:33:34.03Z</time></trkpt><trkpt lat="38.6321231" lon="0.413559"><ele>0.0</ele><time>2026-04-29T18:33:36.03Z</time></trkpt><trkpt lat="38.6321951" lon="0.4136294"><ele>0.0</ele><time>2026-04-29T18:33:37.03Z</time></trkpt><trkpt lat="38.632268" lon="0.4136957"><ele>0.0</ele><time>2026-04-29T18:33:38.03Z</time></trkpt><trkpt lat="38.6323373" lon="0.4137538"><ele>0.0</ele><time>2026-04-29T18:33:39.031Z</time></trkpt><trkpt lat="38.6324084" lon="0.4138293"><ele>0.0</ele><time>2026-04-29T18:33:40.031Z</time></trkpt><trkpt lat="38.6324812" lon="0.4139019"><ele>0.0</ele><time>2026-04-29T18:33:41.031Z</time></trkpt><trkpt lat="38.632556" lon="0.4139693"><ele>0.0</ele><time>2026-04-29T18:33:42.03Z</time></trkpt><trkpt lat="38.6326239" lon="0.4140209"><ele>0.0</ele><time>2026-04-29T18:33:43.031Z</time></trkpt><trkpt lat="38.6326911" lon="0.4140619"><ele>0.0</ele><time>2026-04-29T18:33:44.031Z</time></trkpt><trkpt lat="38.6327664" lon="0.4141216"><ele>0.0</ele><time>2026-04-29T18:33:45.031Z</time></trkpt><trkpt lat="38.6328342" lon="0.4141915"><ele>0.0</ele><time>2026-04-29T18:33:46.03Z</time></trkpt><trkpt lat="38.6329064" lon="0.4142557"><ele>0.0</ele><time>2026-04-29T18:33:47.031Z</time></trkpt><trkpt lat="38.63298" lon="0.4143146"><ele>0.0</ele><time>2026-04-29T18:33:48.03Z</time></trkpt><trkpt lat="38.6330507" lon="0.4143703"><ele>0.0</ele><time>2026-04-29T18:33:49.031Z</time></trkpt><trkpt lat="38.6331305" lon="0.4144337"><ele>0.0</ele><time>2026-04-29T18:33:50.031Z</time></trkpt><trkpt lat="38.6332092" lon="0.4144989"><ele>0.0</ele><time>2026-04-29T18:33:51.031Z</time></trkpt><trkpt lat="38.6332791" lon="0.4145527"><ele>0.0</ele><time>2026-04-29T18:33:52.031Z</time></trkpt><trkpt lat="38.6333505" lon="0.4146075"><ele>0.0</ele><time>2026-04-29T18:33:53.03Z</time></trkpt><trkpt lat="38.6334293" lon="0.4146482"><ele>0.0</ele><time>2026-04-29T18:33:54.03Z</time></trkpt><trkpt lat="38.6335088" lon="0.4147083"><ele>0.0</ele><time>2026-04-29T18:33:55.03Z</time></trkpt><trkpt lat="38.6336621" lon="0.4148387"><ele>0.0</ele><time>2026-04-29T18:33:57.03Z</time></trkpt><trkpt lat="38.633738" lon="0.4148969"><ele>0.0</ele><time>2026-04-29T18:33:58.03Z</time></trkpt><trkpt lat="38.6338089" lon="0.4149594"><ele>0.0</ele><time>2026-04-29T18:33:59.029Z</time></trkpt><trkpt lat="38.6338819" lon="0.4150197"><ele>0.0</ele><time>2026-04-29T18:34:00.029Z</time></trkpt><trkpt lat="38.6339524" lon="0.4150767"><ele>0.0</ele><time>2026-04-29T18:34:01.029Z</time></trkpt><trkpt lat="38.634021" lon="0.4151376"><ele>0.0</ele><time>2026-04-29T18:34:02.03Z</time></trkpt><trkpt lat="38.6340904" lon="0.4151964"><ele>0.0</ele><time>2026-04-29T18:34:03.029Z</time></trkpt><trkpt lat="38.6341617" lon="0.4152536"><ele>0.0</ele><time>2026-04-29T18:34:04.029Z</time></trkpt><trkpt lat="38.6342281" lon="0.4153171"><ele>0.0</ele><time>2026-04-29T18:34:05.029Z</time></trkpt><trkpt lat="38.6343004" lon="0.415382"><ele>0.0</ele><time>2026-04-29T18:34:06.03Z</time></trkpt><trkpt lat="38.6343679" lon="0.415443"><ele>0.0</ele><time>2026-04-29T18:34:07.029Z</time></trkpt><trkpt lat="38.6344429" lon="0.4154974"><ele>0.0</ele><time>2026-04-29T18:34:08.03Z</time></trkpt><trkpt lat="38.6345197" lon="0.4155575"><ele>0.0</ele><time>2026-04-29T18:34:09.03Z</time></trkpt><trkpt lat="38.634595" lon="0.4156165"><ele>0.0</ele><time>2026-04-29T18:34:10.03Z</time></trkpt><trkpt lat="38.6346718" lon="0.4156759"><ele>0.0</ele><time>2026-04-29T18:34:11.03Z</time></trkpt><trkpt lat="38.6347467" lon="0.4157375"><ele>0.0</ele><time>2026-04-29T18:34:12.029Z</time></trkpt><trkpt lat="38.6348258" lon="0.4158006"><ele>0.0</ele><time>2026-04-29T18:34:13.03Z</time></trkpt><trkpt lat="38.6349014" lon="0.4158627"><ele>0.0</ele><time>2026-04-29T18:34:14.029Z</time></trkpt><trkpt lat="38.6349708" lon="0.4159231"><ele>0.0</ele><time>2026-04-29T18:34:15.029Z</time></trkpt><trkpt lat="38.6350405" lon="0.4159836"><ele>0.0</ele><time>2026-04-29T18:34:16.03Z</time></trkpt><trkpt lat="38.6351763" lon="0.4161064"><ele>0.0</ele><time>2026-04-29T18:34:18.029Z</time></trkpt><trkpt lat="38.6352427" lon="0.4161732"><ele>0.0</ele><time>2026-04-29T18:34:19.029Z</time></trkpt><trkpt lat="38.6353208" lon="0.4162317"><ele>0.0</ele><time>2026-04-29T18:34:20.03Z</time></trkpt><trkpt lat="38.6353962" lon="0.4162984"><ele>0.0</ele><time>2026-04-29T18:34:21.029Z</time></trkpt><trkpt lat="38.6354737" lon="0.4163623"><ele>0.0</ele><time>2026-04-29T18:34:22.029Z</time></trkpt><trkpt lat="38.6355561" lon="0.4164246"><ele>0.0</ele><time>2026-04-29T18:34:23.029Z</time></trkpt><trkpt lat="38.6356327" lon="0.4164851"><ele>0.0</ele><time>2026-04-29T18:34:24.029Z</time></trkpt><trkpt lat="38.6357051" lon="0.4165451"><ele>0.0</ele><time>2026-04-29T18:34:25.029Z</time></trkpt><trkpt lat="38.6357686" lon="0.416601"><ele>0.0</ele><time>2026-04-29T18:34:26.03Z</time></trkpt><trkpt lat="38.6358431" lon="0.4166618"><ele>0.0</ele><time>2026-04-29T18:34:27.029Z</time></trkpt><trkpt lat="38.6359193" lon="0.4167259"><ele>0.0</ele><time>2026-04-29T18:34:28.03Z</time></trkpt><trkpt lat="38.6359946" lon="0.4167894"><ele>0.0</ele><time>2026-04-29T18:34:29.029Z</time></trkpt><trkpt lat="38.6360685" lon="0.416851"><ele>0.0</ele><time>2026-04-29T18:34:30.03Z</time></trkpt><trkpt lat="38.636143" lon="0.4169046"><ele>0.0</ele><time>2026-04-29T18:34:31.03Z</time></trkpt><trkpt lat="38.6362194" lon="0.4169552"><ele>0.0</ele><time>2026-04-29T18:34:32.029Z</time></trkpt><trkpt lat="38.6362917" lon="0.4169929"><ele>0.0</ele><time>2026-04-29T18:34:33.029Z</time></trkpt><trkpt lat="38.636362" lon="0.4170371"><ele>0.0</ele><time>2026-04-29T18:34:34.029Z</time></trkpt><trkpt lat="38.6364263" lon="0.4170822"><ele>0.0</ele><time>2026-04-29T18:34:35.03Z</time></trkpt><trkpt lat="38.6364955" lon="0.4171389"><ele>0.0</ele><time>2026-04-29T18:34:36.03Z</time></trkpt><trkpt lat="38.6365695" lon="0.4172039"><ele>0.0</ele><time>2026-04-29T18:34:37.029Z</time></trkpt><trkpt lat="38.6367084" lon="0.4173259"><ele>0.0</ele><time>2026-04-29T18:34:39.029Z</time></trkpt><trkpt lat="38.6367829" lon="0.4173876"><ele>0.0</ele><time>2026-04-29T18:34:40.03Z</time></trkpt><trkpt lat="38.6368565" lon="0.4174496"><ele>0.0</ele><time>2026-04-29T18:34:41.03Z</time></trkpt><trkpt lat="38.6369298" lon="0.4175078"><ele>0.0</ele><time>2026-04-29T18:34:42.029Z</time></trkpt><trkpt lat="38.6370019" lon="0.4175663"><ele>0.0</ele><time>2026-04-29T18:34:43.03Z</time></trkpt><trkpt lat="38.6370734" lon="0.4176294"><ele>0.0</ele><time>2026-04-29T18:34:44.029Z</time></trkpt><trkpt lat="38.637142" lon="0.4176931"><ele>0.0</ele><time>2026-04-29T18:34:45.03Z</time></trkpt><trkpt lat="38.6372121" lon="0.4177562"><ele>0.0</ele><time>2026-04-29T18:34:46.029Z</time></trkpt><trkpt lat="38.6372779" lon="0.4178064"><ele>0.0</ele><time>2026-04-29T18:34:47.029Z</time></trkpt><trkpt lat="38.6373527" lon="0.4178673"><ele>0.0</ele><time>2026-04-29T18:34:48.03Z</time></trkpt><trkpt lat="38.6374278" lon="0.4179293"><ele>0.0</ele><time>2026-04-29T18:34:49.03Z</time></trkpt><trkpt lat="38.6375014" lon="0.4179923"><ele>0.0</ele><time>2026-04-29T18:34:50.03Z</time></trkpt><trkpt lat="38.6375746" lon="0.4180541"><ele>0.0</ele><time>2026-04-29T18:34:51.029Z</time></trkpt><trkpt lat="38.6376524" lon="0.4181188"><ele>0.0</ele><time>2026-04-29T18:34:52.029Z</time></trkpt><trkpt lat="38.637731" lon="0.4181791"><ele>0.0</ele><time>2026-04-29T18:34:53.029Z</time></trkpt><trkpt lat="38.637799" lon="0.4182454"><ele>0.0</ele><time>2026-04-29T18:34:54.03Z</time></trkpt><trkpt lat="38.6378732" lon="0.4183077"><ele>0.0</ele><time>2026-04-29T18:34:55.029Z</time></trkpt><trkpt lat="38.6379413" lon="0.4183563"><ele>0.0</ele><time>2026-04-29T18:34:56.029Z</time></trkpt><trkpt lat="38.6380108" lon="0.4184119"><ele>0.0</ele><time>2026-04-29T18:34:57.029Z</time></trkpt><trkpt lat="38.6380862" lon="0.418471"><ele>0.0</ele><time>2026-04-29T18:34:58.029Z</time></trkpt><trkpt lat="38.6381602" lon="0.4185281"><ele>0.0</ele><time>2026-04-29T18:34:59.03Z</time></trkpt><trkpt lat="38.6383033" lon="0.4186475"><ele>0.0</ele><time>2026-04-29T18:35:01.029Z</time></trkpt><trkpt lat="38.6383768" lon="0.4187095"><ele>0.0</ele><time>2026-04-29T18:35:02.03Z</time></trkpt><trkpt lat="38.638446" lon="0.4187653"><ele>0.0</ele><time>2026-04-29T18:35:03.029Z</time></trkpt><trkpt lat="38.6385168" lon="0.41882"><ele>0.0</ele><time>2026-04-29T18:35:04.029Z</time></trkpt><trkpt lat="38.6385888" lon="0.4188817"><ele>0.0</ele><time>2026-04-29T18:35:05.029Z</time></trkpt><trkpt lat="38.6386576" lon="0.4189428"><ele>0.0</ele><time>2026-04-29T18:35:06.03Z</time></trkpt><trkpt lat="38.6387284" lon="0.4190018"><ele>0.0</ele><time>2026-04-29T18:35:07.03Z</time></trkpt><trkpt lat="38.6387987" lon="0.4190631"><ele>0.0</ele><time>2026-04-29T18:35:08.03Z</time></trkpt><trkpt lat="38.6388715" lon="0.4191278"><ele>0.0</ele><time>2026-04-29T18:35:09.029Z</time></trkpt><trkpt lat="38.6389461" lon="0.4191896"><ele>0.0</ele><time>2026-04-29T18:35:10.029Z</time></trkpt><trkpt lat="38.6390183" lon="0.4192527"><ele>0.0</ele><time>2026-04-29T18:35:11.029Z</time></trkpt><trkpt lat="38.6390931" lon="0.4193173"><ele>0.0</ele><time>2026-04-29T18:35:12.029Z</time></trkpt><trkpt lat="38.6391693" lon="0.419381"><ele>0.0</ele><time>2026-04-29T18:35:13.029Z</time></trkpt><trkpt lat="38.6392464" lon="0.4194399"><ele>0.0</ele><time>2026-04-29T18:35:14.03Z</time></trkpt><trkpt lat="38.639323" lon="0.4194982"><ele>0.0</ele><time>2026-04-29T18:35:15.029Z</time></trkpt><trkpt lat="38.639398" lon="0.4195613"><ele>0.0</ele><time>2026-04-29T18:35:16.029Z</time></trkpt><trkpt lat="38.6394714" lon="0.4196261"><ele>0.0</ele><time>2026-04-29T18:35:17.029Z</time></trkpt><trkpt lat="38.6395421" lon="0.4196835"><ele>0.0</ele><time>2026-04-29T18:35:18.029Z</time></trkpt><trkpt lat="38.6396177" lon="0.419749"><ele>0.0</ele><time>2026-04-29T18:35:19.029Z</time></trkpt><trkpt lat="38.6396961" lon="0.4198123"><ele>0.0</ele><time>2026-04-29T18:35:20.029Z</time></trkpt><trkpt lat="38.6398409" lon="0.4199512"><ele>0.0</ele><time>2026-04-29T18:35:22.029Z</time></trkpt><trkpt lat="38.639909" lon="0.420013"><ele>0.0</ele><time>2026-04-29T18:35:23.029Z</time></trkpt><trkpt lat="38.6399818" lon="0.4200691"><ele>0.0</ele><time>2026-04-29T18:35:24.029Z</time></trkpt><trkpt lat="38.6400508" lon="0.4201237"><ele>0.0</ele><time>2026-04-29T18:35:25.029Z</time></trkpt><trkpt lat="38.6401192" lon="0.4201808"><ele>0.0</ele><time>2026-04-29T18:35:26.03Z</time></trkpt><trkpt lat="38.6401945" lon="0.4202303"><ele>0.0</ele><time>2026-04-29T18:35:27.029Z</time></trkpt><trkpt lat="38.6402642" lon="0.4202865"><ele>0.0</ele><time>2026-04-29T18:35:28.03Z</time></trkpt><trkpt lat="38.6403356" lon="0.4203459"><ele>0.0</ele><time>2026-04-29T18:35:29.029Z</time></trkpt><trkpt lat="38.6404142" lon="0.4204033"><ele>0.0</ele><time>2026-04-29T18:35:30.029Z</time></trkpt><trkpt lat="38.6404882" lon="0.4204588"><ele>0.0</ele><time>2026-04-29T18:35:31.03Z</time></trkpt><trkpt lat="38.6405633" lon="0.420511"><ele>0.0</ele><time>2026-04-29T18:35:32.029Z</time></trkpt><trkpt lat="38.6406338" lon="0.4205538"><ele>0.0</ele><time>2026-04-29T18:35:33.03Z</time></trkpt><trkpt lat="38.6407054" lon="0.4206038"><ele>0.0</ele><time>2026-04-29T18:35:34.03Z</time></trkpt><trkpt lat="38.6407775" lon="0.420654"><ele>0.0</ele><time>2026-04-29T18:35:35.029Z</time></trkpt><trkpt lat="38.6408516" lon="0.4207059"><ele>0.0</ele><time>2026-04-29T18:35:36.03Z</time></trkpt><trkpt lat="38.6409293" lon="0.4207685"><ele>0.0</ele><time>2026-04-29T18:35:37.03Z</time></trkpt><trkpt lat="38.6410048" lon="0.420829"><ele>0.0</ele><time>2026-04-29T18:35:38.03Z</time></trkpt><trkpt lat="38.6410841" lon="0.4208817"><ele>0.0</ele><time>2026-04-29T18:35:39.029Z</time></trkpt><trkpt lat="38.6411554" lon="0.4209408"><ele>0.0</ele><time>2026-04-29T18:35:40.029Z</time></trkpt><trkpt lat="38.6412281" lon="0.4209966"><ele>0.0</ele><time>2026-04-29T18:35:41.029Z</time></trkpt><trkpt lat="38.6413102" lon="0.4210516"><ele>0.0</ele><time>2026-04-29T18:35:42.029Z</time></trkpt><trkpt lat="38.6414743" lon="0.4211623"><ele>0.0</ele><time>2026-04-29T18:35:44.029Z</time></trkpt><trkpt lat="38.6415485" lon="0.4212238"><ele>0.0</ele><time>2026-04-29T18:35:45.029Z</time></trkpt><trkpt lat="38.6416205" lon="0.4212826"><ele>0.0</ele><time>2026-04-29T18:35:46.029Z</time></trkpt><trkpt lat="38.6416932" lon="0.4213386"><ele>0.0</ele><time>2026-04-29T18:35:47.029Z</time></trkpt><trkpt lat="38.6417614" lon="0.4213918"><ele>0.0</ele><time>2026-04-29T18:35:48.029Z</time></trkpt><trkpt lat="38.6418338" lon="0.4214481"><ele>0.0</ele><time>2026-04-29T18:35:49.03Z</time></trkpt><trkpt lat="38.6419056" lon="0.4215048"><ele>0.0</ele><time>2026-04-29T18:35:50.03Z</time></trkpt><trkpt lat="38.6419786" lon="0.4215614"><ele>0.0</ele><time>2026-04-29T18:35:51.029Z</time></trkpt><trkpt lat="38.6420503" lon="0.4216169"><ele>0.0</ele><time>2026-04-29T18:35:52.029Z</time></trkpt><trkpt lat="38.6421181" lon="0.4216694"><ele>0.0</ele><time>2026-04-29T18:35:53.029Z</time></trkpt><trkpt lat="38.6421904" lon="0.4217266"><ele>0.0</ele><time>2026-04-29T18:35:54.029Z</time></trkpt><trkpt lat="38.6422708" lon="0.4217744"><ele>0.0</ele><time>2026-04-29T18:35:55.029Z</time></trkpt><trkpt lat="38.6423522" lon="0.4218237"><ele>0.0</ele><time>2026-04-29T18:35:56.03Z</time></trkpt><trkpt lat="38.6424295" lon="0.4218851"><ele>0.0</ele><time>2026-04-29T18:35:57.029Z</time></trkpt><trkpt lat="38.642509" lon="0.42194"><ele>0.0</ele><time>2026-04-29T18:35:58.029Z</time></trkpt><trkpt lat="38.6425847" lon="0.4219984"><ele>0.0</ele><time>2026-04-29T18:35:59.03Z</time></trkpt><trkpt lat="38.642657" lon="0.4220578"><ele>0.0</ele><time>2026-04-29T18:36:00.029Z</time></trkpt><trkpt lat="38.6427347" lon="0.4221078"><ele>0.0</ele><time>2026-04-29T18:36:01.029Z</time></trkpt><trkpt lat="38.6428098" lon="0.4221534"><ele>0.0</ele><time>2026-04-29T18:36:02.03Z</time></trkpt><trkpt lat="38.6428821" lon="0.4222126"><ele>0.0</ele><time>2026-04-29T18:36:03.029Z</time></trkpt><trkpt lat="38.6430285" lon="0.4223023"><ele>0.0</ele><time>2026-04-29T18:36:05.03Z</time></trkpt><trkpt lat="38.6430977" lon="0.4223579"><ele>0.0</ele><time>2026-04-29T18:36:06.029Z</time></trkpt><trkpt lat="38.6431701" lon="0.4224148"><ele>0.0</ele><time>2026-04-29T18:36:07.03Z</time></trkpt><trkpt lat="38.6432406" lon="0.4224699"><ele>0.0</ele><time>2026-04-29T18:36:08.03Z</time></trkpt><trkpt lat="38.6433036" lon="0.4225283"><ele>0.0</ele><time>2026-04-29T18:36:09.03Z</time></trkpt><trkpt lat="38.6433821" lon="0.4225879"><ele>0.0</ele><time>2026-04-29T18:36:10.03Z</time></trkpt><trkpt lat="38.643461" lon="0.4226402"><ele>0.0</ele><time>2026-04-29T18:36:11.029Z</time></trkpt><trkpt lat="38.6435368" lon="0.4227005"><ele>0.0</ele><time>2026-04-29T18:36:12.029Z</time></trkpt><trkpt lat="38.643606" lon="0.4227688"><ele>0.0</ele><time>2026-04-29T18:36:13.029Z</time></trkpt><trkpt lat="38.6436777" lon="0.4228363"><ele>0.0</ele><time>2026-04-29T18:36:14.029Z</time></trkpt><trkpt lat="38.6437517" lon="0.4228933"><ele>0.0</ele><time>2026-04-29T18:36:15.029Z</time></trkpt><trkpt lat="38.6438223" lon="0.4229472"><ele>0.0</ele><time>2026-04-29T18:36:16.029Z</time></trkpt><trkpt lat="38.6438952" lon="0.4230102"><ele>0.0</ele><time>2026-04-29T18:36:17.029Z</time></trkpt><trkpt lat="38.6439698" lon="0.4230664"><ele>0.0</ele><time>2026-04-29T18:36:18.029Z</time></trkpt><trkpt lat="38.6440436" lon="0.4231274"><ele>0.0</ele><time>2026-04-29T18:36:19.03Z</time></trkpt><trkpt lat="38.6441157" lon="0.4231904"><ele>0.0</ele><time>2026-04-29T18:36:20.029Z</time></trkpt><trkpt lat="38.64419" lon="0.4232454"><ele>0.0</ele><time>2026-04-29T18:36:21.029Z</time></trkpt><trkpt lat="38.6442618" lon="0.4233075"><ele>0.0</ele><time>2026-04-29T18:36:22.029Z</time></trkpt><trkpt lat="38.6443336" lon="0.4233624"><ele>0.0</ele><time>2026-04-29T18:36:23.029Z</time></trkpt><trkpt lat="38.6444084" lon="0.4234089"><ele>0.0</ele><time>2026-04-29T18:36:24.03Z</time></trkpt><trkpt lat="38.6445568" lon="0.4235214"><ele>0.0</ele><time>2026-04-29T18:36:26.03Z</time></trkpt><trkpt lat="38.6446273" lon="0.4235751"><ele>0.0</ele><time>2026-04-29T18:36:27.03Z</time></trkpt><trkpt lat="38.6446989" lon="0.4236301"><ele>0.0</ele><time>2026-04-29T18:36:28.029Z</time></trkpt><trkpt lat="38.6447723" lon="0.4236909"><ele>0.0</ele><time>2026-04-29T18:36:29.03Z</time></trkpt><trkpt lat="38.6448469" lon="0.423748"><ele>0.0</ele><time>2026-04-29T18:36:30.029Z</time></trkpt><trkpt lat="38.6449233" lon="0.4237958"><ele>0.0</ele><time>2026-04-29T18:36:31.029Z</time></trkpt><trkpt lat="38.6450069" lon="0.4238454"><ele>0.0</ele><time>2026-04-29T18:36:32.03Z</time></trkpt><trkpt lat="38.6450876" lon="0.4239018"><ele>0.0</ele><time>2026-04-29T18:36:33.03Z</time></trkpt><trkpt lat="38.645162" lon="0.4239576"><ele>0.0</ele><time>2026-04-29T18:36:34.03Z</time></trkpt><trkpt lat="38.6452382" lon="0.4240102"><ele>0.0</ele><time>2026-04-29T18:36:35.029Z</time></trkpt><trkpt lat="38.645312" lon="0.4240637"><ele>0.0</ele><time>2026-04-29T18:36:36.029Z</time></trkpt><trkpt lat="38.6453841" lon="0.4241183"><ele>0.0</ele><time>2026-04-29T18:36:37.03Z</time></trkpt><trkpt lat="38.6454584" lon="0.4241804"><ele>0.0</ele><time>2026-04-29T18:36:38.029Z</time></trkpt><trkpt lat="38.645532" lon="0.4242376"><ele>0.0</ele><time>2026-04-29T18:36:39.029Z</time></trkpt><trkpt lat="38.6456068" lon="0.4242986"><ele>0.0</ele><time>2026-04-29T18:36:40.029Z</time></trkpt><trkpt lat="38.645679" lon="0.4243578"><ele>0.0</ele><time>2026-04-29T18:36:41.029Z</time></trkpt><trkpt lat="38.6457506" lon="0.4244189"><ele>0.0</ele><time>2026-04-29T18:36:42.029Z</time></trkpt><trkpt lat="38.645823" lon="0.4244765"><ele>0.0</ele><time>2026-04-29T18:36:43.03Z</time></trkpt><trkpt lat="38.6458982" lon="0.4245288"><ele>0.0</ele><time>2026-04-29T18:36:44.029Z</time></trkpt><trkpt lat="38.6459746" lon="0.424582"><ele>0.0</ele><time>2026-04-29T18:36:45.029Z</time></trkpt><trkpt lat="38.6460487" lon="0.4246331"><ele>0.0</ele><time>2026-04-29T18:36:46.03Z</time></trkpt><trkpt lat="38.6461932" lon="0.4247328"><ele>0.0</ele><time>2026-04-29T18:36:48.029Z</time></trkpt><trkpt lat="38.6462723" lon="0.4247899"><ele>0.0</ele><time>2026-04-29T18:36:49.029Z</time></trkpt><trkpt lat="38.6463511" lon="0.4248539"><ele>0.0</ele><time>2026-04-29T18:36:50.03Z</time></trkpt><trkpt lat="38.6464235" lon="0.4249132"><ele>0.0</ele><time>2026-04-29T18:36:51.029Z</time></trkpt><trkpt lat="38.6465008" lon="0.4249678"><ele>0.0</ele><time>2026-04-29T18:36:52.029Z</time></trkpt><trkpt lat="38.6465739" lon="0.4250228"><ele>0.0</ele><time>2026-04-29T18:36:53.03Z</time></trkpt><trkpt lat="38.6466469" lon="0.4250775"><ele>0.0</ele><time>2026-04-29T18:36:54.029Z</time></trkpt><trkpt lat="38.6467204" lon="0.4251348"><ele>0.0</ele><time>2026-04-29T18:36:55.03Z</time></trkpt><trkpt lat="38.6467921" lon="0.4251917"><ele>0.0</ele><time>2026-04-29T18:36:56.03Z</time></trkpt><trkpt lat="38.6468637" lon="0.42526"><ele>0.0</ele><time>2026-04-29T18:36:57.029Z</time></trkpt><trkpt lat="38.6469323" lon="0.4253168"><ele>0.0</ele><time>2026-04-29T18:36:58.029Z</time></trkpt><trkpt lat="38.6470051" lon="0.4253691"><ele>0.0</ele><time>2026-04-29T18:36:59.03Z</time></trkpt><trkpt lat="38.6470798" lon="0.4254251"><ele>0.0</ele><time>2026-04-29T18:37:00.029Z</time></trkpt><trkpt lat="38.6471562" lon="0.4254802"><ele>0.0</ele><time>2026-04-29T18:37:01.029Z</time></trkpt><trkpt lat="38.6472298" lon="0.42553"><ele>0.0</ele><time>2026-04-29T18:37:02.03Z</time></trkpt><trkpt lat="38.6473036" lon="0.425582"><ele>0.0</ele><time>2026-04-29T18:37:03.029Z</time></trkpt><trkpt lat="38.6473741" lon="0.4256333"><ele>0.0</ele><time>2026-04-29T18:37:04.03Z</time></trkpt><trkpt lat="38.647447" lon="0.4257"><ele>0.0</ele><time>2026-04-29T18:37:05.029Z</time></trkpt><trkpt lat="38.6475216" lon="0.4257659"><ele>0.0</ele><time>2026-04-29T18:37:06.029Z</time></trkpt><trkpt lat="38.6475923" lon="0.4258169"><ele>0.0</ele><time>2026-04-29T18:37:07.029Z</time></trkpt><trkpt lat="38.6477264" lon="0.4259311"><ele>0.0</ele><time>2026-04-29T18:37:09.029Z</time></trkpt><trkpt lat="38.6478043" lon="0.4259809"><ele>0.0</ele><time>2026-04-29T18:37:10.03Z</time></trkpt><trkpt lat="38.64788" lon="0.4260318"><ele>0.0</ele><time>2026-04-29T18:37:11.03Z</time></trkpt><trkpt lat="38.6479605" lon="0.4260778"><ele>0.0</ele><time>2026-04-29T18:37:12.029Z</time></trkpt><trkpt lat="38.6480337" lon="0.4261248"><ele>0.0</ele><time>2026-04-29T18:37:13.029Z</time></trkpt><trkpt lat="38.6481067" lon="0.4261741"><ele>0.0</ele><time>2026-04-29T18:37:14.029Z</time></trkpt><trkpt lat="38.6481784" lon="0.4262359"><ele>0.0</ele><time>2026-04-29T18:37:15.029Z</time></trkpt><trkpt lat="38.6482549" lon="0.4262987"><ele>0.0</ele><time>2026-04-29T18:37:16.029Z</time></trkpt><trkpt lat="38.6483288" lon="0.4263547"><ele>0.0</ele><time>2026-04-29T18:37:17.03Z</time></trkpt><trkpt lat="38.6484007" lon="0.4264151"><ele>0.0</ele><time>2026-04-29T18:37:18.029Z</time></trkpt><trkpt lat="38.6484741" lon="0.4264694"><ele>0.0</ele><time>2026-04-29T18:37:19.03Z</time></trkpt><trkpt lat="38.6485486" lon="0.4265268"><ele>0.0</ele><time>2026-04-29T18:37:20.029Z</time></trkpt><trkpt lat="38.6486277" lon="0.4265812"><ele>0.0</ele><time>2026-04-29T18:37:21.029Z</time></trkpt><trkpt lat="38.648702" lon="0.4266332"><ele>0.0</ele><time>2026-04-29T18:37:22.029Z</time></trkpt><trkpt lat="38.6487711" lon="0.4266909"><ele>0.0</ele><time>2026-04-29T18:37:23.029Z</time></trkpt><trkpt lat="38.6488411" lon="0.4267468"><ele>0.0</ele><time>2026-04-29T18:37:24.029Z</time></trkpt><trkpt lat="38.6489137" lon="0.4267975"><ele>0.0</ele><time>2026-04-29T18:37:25.029Z</time></trkpt><trkpt lat="38.6489883" lon="0.4268465"><ele>0.0</ele><time>2026-04-29T18:37:26.029Z</time></trkpt><trkpt lat="38.6490635" lon="0.4268981"><ele>0.0</ele><time>2026-04-29T18:37:27.03Z</time></trkpt><trkpt lat="38.6491353" lon="0.4269552"><ele>0.0</ele><time>2026-04-29T18:37:28.03Z</time></trkpt><trkpt lat="38.6492934" lon="0.4270712"><ele>0.0</ele><time>2026-04-29T18:37:30.029Z</time></trkpt><trkpt lat="38.6493729" lon="0.4271333"><ele>0.0</ele><time>2026-04-29T18:37:31.029Z</time></trkpt><trkpt lat="38.6494554" lon="0.4271895"><ele>0.0</ele><time>2026-04-29T18:37:32.029Z</time></trkpt><trkpt lat="38.6495369" lon="0.4272463"><ele>0.0</ele><time>2026-04-29T18:37:33.029Z</time></trkpt><trkpt lat="38.6496175" lon="0.4273"><ele>0.0</ele><time>2026-04-29T18:37:34.029Z</time></trkpt><trkpt lat="38.6496921" lon="0.4273551"><ele>0.0</ele><time>2026-04-29T18:37:35.029Z</time></trkpt><trkpt lat="38.6497624" lon="0.4274142"><ele>0.0</ele><time>2026-04-29T18:37:36.029Z</time></trkpt><trkpt lat="38.6498353" lon="0.4274836"><ele>0.0</ele><time>2026-04-29T18:37:37.029Z</time></trkpt><trkpt lat="38.6499139" lon="0.4275456"><ele>0.0</ele><time>2026-04-29T18:37:38.03Z</time></trkpt><trkpt lat="38.649988" lon="0.4275995"><ele>0.0</ele><time>2026-04-29T18:37:39.03Z</time></trkpt><trkpt lat="38.6500618" lon="0.4276538"><ele>0.0</ele><time>2026-04-29T18:37:40.03Z</time></trkpt><trkpt lat="38.6501348" lon="0.4277049"><ele>0.0</ele><time>2026-04-29T18:37:41.029Z</time></trkpt><trkpt lat="38.6502157" lon="0.4277429"><ele>0.0</ele><time>2026-04-29T18:37:42.03Z</time></trkpt><trkpt lat="38.6502914" lon="0.4277926"><ele>0.0</ele><time>2026-04-29T18:37:43.029Z</time></trkpt><trkpt lat="38.6503721" lon="0.4278485"><ele>0.0</ele><time>2026-04-29T18:37:44.029Z</time></trkpt><trkpt lat="38.650451" lon="0.4279024"><ele>0.0</ele><time>2026-04-29T18:37:45.03Z</time></trkpt><trkpt lat="38.6505234" lon="0.4279562"><ele>0.0</ele><time>2026-04-29T18:37:46.03Z</time></trkpt><trkpt lat="38.6505925" lon="0.4280083"><ele>0.0</ele><time>2026-04-29T18:37:47.029Z</time></trkpt><trkpt lat="38.6506612" lon="0.4280694"><ele>0.0</ele><time>2026-04-29T18:37:48.029Z</time></trkpt><trkpt lat="38.6507297" lon="0.4281279"><ele>0.0</ele><time>2026-04-29T18:37:49.029Z</time></trkpt><trkpt lat="38.6508815" lon="0.4282393"><ele>0.0</ele><time>2026-04-29T18:37:51.029Z</time></trkpt><trkpt lat="38.6509559" lon="0.4282952"><ele>0.0</ele><time>2026-04-29T18:37:52.029Z</time></trkpt><trkpt lat="38.6510246" lon="0.4283551"><ele>0.0</ele><time>2026-04-29T18:37:53.03Z</time></trkpt><trkpt lat="38.6511028" lon="0.4284052"><ele>0.0</ele><time>2026-04-29T18:37:54.029Z</time></trkpt><trkpt lat="38.6511825" lon="0.428464"><ele>0.0</ele><time>2026-04-29T18:37:55.029Z</time></trkpt><trkpt lat="38.6512612" lon="0.4285239"><ele>0.0</ele><time>2026-04-29T18:37:56.029Z</time></trkpt><trkpt lat="38.651331" lon="0.4285838"><ele>0.0</ele><time>2026-04-29T18:37:57.029Z</time></trkpt><trkpt lat="38.6514009" lon="0.4286398"><ele>0.0</ele><time>2026-04-29T18:37:58.03Z</time></trkpt><trkpt lat="38.6514748" lon="0.4286976"><ele>0.0</ele><time>2026-04-29T18:37:59.029Z</time></trkpt><trkpt lat="38.6515471" lon="0.4287504"><ele>0.0</ele><time>2026-04-29T18:38:00.029Z</time></trkpt><trkpt lat="38.6516187" lon="0.4288068"><ele>0.0</ele><time>2026-04-29T18:38:01.03Z</time></trkpt><trkpt lat="38.6516974" lon="0.4288476"><ele>0.0</ele><time>2026-04-29T18:38:02.029Z</time></trkpt><trkpt lat="38.6517748" lon="0.428894"><ele>0.0</ele><time>2026-04-29T18:38:03.029Z</time></trkpt><trkpt lat="38.6518498" lon="0.4289445"><ele>0.0</ele><time>2026-04-29T18:38:04.029Z</time></trkpt><trkpt lat="38.6519243" lon="0.4289948"><ele>0.0</ele><time>2026-04-29T18:38:05.03Z</time></trkpt><trkpt lat="38.6519996" lon="0.4290506"><ele>0.0</ele><time>2026-04-29T18:38:06.029Z</time></trkpt><trkpt lat="38.6520744" lon="0.4291122"><ele>0.0</ele><time>2026-04-29T18:38:07.03Z</time></trkpt><trkpt lat="38.6521482" lon="0.4291635"><ele>0.0</ele><time>2026-04-29T18:38:08.029Z</time></trkpt><trkpt lat="38.6522219" lon="0.429229"><ele>0.0</ele><time>2026-04-29T18:38:09.03Z</time></trkpt><trkpt lat="38.6522976" lon="0.4292898"><ele>0.0</ele><time>2026-04-29T18:38:10.03Z</time></trkpt><trkpt lat="38.6524439" lon="0.4294092"><ele>0.0</ele><time>2026-04-29T18:38:12.029Z</time></trkpt><trkpt lat="38.6525168" lon="0.4294753"><ele>0.0</ele><time>2026-04-29T18:38:13.029Z</time></trkpt><trkpt lat="38.652589" lon="0.429532"><ele>0.0</ele><time>2026-04-29T18:38:14.03Z</time></trkpt><trkpt lat="38.6526606" lon="0.4295868"><ele>0.0</ele><time>2026-04-29T18:38:15.03Z</time></trkpt><trkpt lat="38.6527351" lon="0.4296386"><ele>0.0</ele><time>2026-04-29T18:38:16.029Z</time></trkpt><trkpt lat="38.6528087" lon="0.4296886"><ele>0.0</ele><time>2026-04-29T18:38:17.029Z</time></trkpt><trkpt lat="38.6528849" lon="0.4297389"><ele>0.0</ele><time>2026-04-29T18:38:18.029Z</time></trkpt><trkpt lat="38.6529586" lon="0.4297911"><ele>0.0</ele><time>2026-04-29T18:38:19.029Z</time></trkpt><trkpt lat="38.6530306" lon="0.4298474"><ele>0.0</ele><time>2026-04-29T18:38:20.029Z</time></trkpt><trkpt lat="38.6531097" lon="0.4298958"><ele>0.0</ele><time>2026-04-29T18:38:21.03Z</time></trkpt><trkpt lat="38.6531852" lon="0.4299539"><ele>0.0</ele><time>2026-04-29T18:38:22.029Z</time></trkpt><trkpt lat="38.6532628" lon="0.4300039"><ele>0.0</ele><time>2026-04-29T18:38:23.029Z</time></trkpt><trkpt lat="38.6533382" lon="0.430055"><ele>0.0</ele><time>2026-04-29T18:38:24.029Z</time></trkpt><trkpt lat="38.6534149" lon="0.4301091"><ele>0.0</ele><time>2026-04-29T18:38:25.03Z</time></trkpt><trkpt lat="38.6534886" lon="0.4301573"><ele>0.0</ele><time>2026-04-29T18:38:26.03Z</time></trkpt><trkpt lat="38.6535619" lon="0.4302219"><ele>0.0</ele><time>2026-04-29T18:38:27.029Z</time></trkpt><trkpt lat="38.6536351" lon="0.4302773"><ele>0.0</ele><time>2026-04-29T18:38:28.029Z</time></trkpt><trkpt lat="38.6537066" lon="0.4303342"><ele>0.0</ele><time>2026-04-29T18:38:29.03Z</time></trkpt><trkpt lat="38.6537786" lon="0.4303908"><ele>0.0</ele><time>2026-04-29T18:38:30.03Z</time></trkpt><trkpt lat="38.6538502" lon="0.43044"><ele>0.0</ele><time>2026-04-29T18:38:31.03Z</time></trkpt><trkpt lat="38.6540028" lon="0.4305474"><ele>0.0</ele><time>2026-04-29T18:38:33.03Z</time></trkpt><trkpt lat="38.6540795" lon="0.430601"><ele>0.0</ele><time>2026-04-29T18:38:34.03Z</time></trkpt><trkpt lat="38.654152" lon="0.4306586"><ele>0.0</ele><time>2026-04-29T18:38:35.03Z</time></trkpt><trkpt lat="38.6542222" lon="0.4307237"><ele>0.0</ele><time>2026-04-29T18:38:36.03Z</time></trkpt><trkpt lat="38.6542965" lon="0.430786"><ele>0.0</ele><time>2026-04-29T18:38:37.029Z</time></trkpt><trkpt lat="38.6543702" lon="0.4308444"><ele>0.0</ele><time>2026-04-29T18:38:38.029Z</time></trkpt><trkpt lat="38.6544423" lon="0.4309011"><ele>0.0</ele><time>2026-04-29T18:38:39.03Z</time></trkpt><trkpt lat="38.6545167" lon="0.430959"><ele>0.0</ele><time>2026-04-29T18:38:40.03Z</time></trkpt><trkpt lat="38.6545915" lon="0.4310179"><ele>0.0</ele><time>2026-04-29T18:38:41.03Z</time></trkpt><trkpt lat="38.6546756" lon="0.4310702"><ele>0.0</ele><time>2026-04-29T18:38:42.03Z</time></trkpt><trkpt lat="38.6547558" lon="0.4311251"><ele>0.0</ele><time>2026-04-29T18:38:43.029Z</time></trkpt><trkpt lat="38.6548328" lon="0.4311845"><ele>0.0</ele><time>2026-04-29T18:38:44.03Z</time></trkpt><trkpt lat="38.6549083" lon="0.4312397"><ele>0.0</ele><time>2026-04-29T18:38:45.03Z</time></trkpt><trkpt lat="38.654982" lon="0.4313003"><ele>0.0</ele><time>2026-04-29T18:38:46.03Z</time></trkpt><trkpt lat="38.655057" lon="0.4313592"><ele>0.0</ele><time>2026-04-29T18:38:47.03Z</time></trkpt><trkpt lat="38.6551331" lon="0.4314118"><ele>0.0</ele><time>2026-04-29T18:38:48.029Z</time></trkpt><trkpt lat="38.655211" lon="0.4314667"><ele>0.0</ele><time>2026-04-29T18:38:49.03Z</time></trkpt><trkpt lat="38.6552878" lon="0.431523"><ele>0.0</ele><time>2026-04-29T18:38:50.028Z</time></trkpt><trkpt lat="38.6553631" lon="0.4315727"><ele>0.0</ele><time>2026-04-29T18:38:51.029Z</time></trkpt><trkpt lat="38.6554408" lon="0.4316225"><ele>0.0</ele><time>2026-04-29T18:38:52.028Z</time></trkpt><trkpt lat="38.6555178" lon="0.4316659"><ele>0.0</ele><time>2026-04-29T18:38:53.028Z</time></trkpt><trkpt lat="38.6556603" lon="0.4317744"><ele>0.0</ele><time>2026-04-29T18:38:55.028Z</time></trkpt><trkpt lat="38.6557308" lon="0.4318388"><ele>0.0</ele><time>2026-04-29T18:38:56.029Z</time></trkpt><trkpt lat="38.6558007" lon="0.431907"><ele>0.0</ele><time>2026-04-29T18:38:57.029Z</time></trkpt><trkpt lat="38.6558721" lon="0.4319739"><ele>0.0</ele><time>2026-04-29T18:38:58.028Z</time></trkpt><trkpt lat="38.6559436" lon="0.4320455"><ele>0.0</ele><time>2026-04-29T18:38:59.029Z</time></trkpt><trkpt lat="38.6560197" lon="0.4321082"><ele>0.0</ele><time>2026-04-29T18:39:00.029Z</time></trkpt><trkpt lat="38.6560933" lon="0.4321741"><ele>0.0</ele><time>2026-04-29T18:39:01.028Z</time></trkpt><trkpt lat="38.656161" lon="0.4322396"><ele>0.0</ele><time>2026-04-29T18:39:02.029Z</time></trkpt><trkpt lat="38.6562362" lon="0.4322961"><ele>0.0</ele><time>2026-04-29T18:39:03.029Z</time></trkpt><trkpt lat="38.6563187" lon="0.4323478"><ele>0.0</ele><time>2026-04-29T18:39:04.028Z</time></trkpt><trkpt lat="38.656395" lon="0.4324063"><ele>0.0</ele><time>2026-04-29T18:39:05.028Z</time></trkpt><trkpt lat="38.6564642" lon="0.4324633"><ele>0.0</ele><time>2026-04-29T18:39:06.028Z</time></trkpt><trkpt lat="38.6565372" lon="0.4325227"><ele>0.0</ele><time>2026-04-29T18:39:07.028Z</time></trkpt><trkpt lat="38.6566102" lon="0.43258"><ele>0.0</ele><time>2026-04-29T18:39:08.029Z</time></trkpt><trkpt lat="38.6566808" lon="0.4326365"><ele>0.0</ele><time>2026-04-29T18:39:09.028Z</time></trkpt><trkpt lat="38.6567549" lon="0.4326978"><ele>0.0</ele><time>2026-04-29T18:39:10.028Z</time></trkpt><trkpt lat="38.6568328" lon="0.4327593"><ele>0.0</ele><time>2026-04-29T18:39:11.029Z</time></trkpt><trkpt lat="38.6569068" lon="0.4328198"><ele>0.0</ele><time>2026-04-29T18:39:12.028Z</time></trkpt><trkpt lat="38.6569814" lon="0.4328741"><ele>0.0</ele><time>2026-04-29T18:39:13.029Z</time></trkpt><trkpt lat="38.6570566" lon="0.4329271"><ele>0.0</ele><time>2026-04-29T18:39:14.029Z</time></trkpt><trkpt lat="38.6571993" lon="0.4330248"><ele>0.0</ele><time>2026-04-29T18:39:16.028Z</time></trkpt><trkpt lat="38.6572757" lon="0.4330645"><ele>0.0</ele><time>2026-04-29T18:39:17.028Z</time></trkpt><trkpt lat="38.6573518" lon="0.4331177"><ele>0.0</ele><time>2026-04-29T18:39:18.029Z</time></trkpt><trkpt lat="38.6574254" lon="0.4331699"><ele>0.0</ele><time>2026-04-29T18:39:19.028Z</time></trkpt><trkpt lat="38.6575015" lon="0.4332265"><ele>0.0</ele><time>2026-04-29T18:39:20.028Z</time></trkpt><trkpt lat="38.657578" lon="0.4332775"><ele>0.0</ele><time>2026-04-29T18:39:21.028Z</time></trkpt><trkpt lat="38.6576563" lon="0.4333229"><ele>0.0</ele><time>2026-04-29T18:39:22.028Z</time></trkpt><trkpt lat="38.6577303" lon="0.4333738"><ele>0.0</ele><time>2026-04-29T18:39:23.029Z</time></trkpt><trkpt lat="38.6578079" lon="0.4334275"><ele>0.0</ele><time>2026-04-29T18:39:24.029Z</time></trkpt><trkpt lat="38.6578834" lon="0.4334883"><ele>0.0</ele><time>2026-04-29T18:39:25.028Z</time></trkpt><trkpt lat="38.657953" lon="0.4335597"><ele>0.0</ele><time>2026-04-29T18:39:26.029Z</time></trkpt><trkpt lat="38.6580241" lon="0.4336214"><ele>0.0</ele><time>2026-04-29T18:39:27.028Z</time></trkpt><trkpt lat="38.6581026" lon="0.4336805"><ele>0.0</ele><time>2026-04-29T18:39:28.028Z</time></trkpt><trkpt lat="38.6581825" lon="0.4337324"><ele>0.0</ele><time>2026-04-29T18:39:29.028Z</time></trkpt><trkpt lat="38.6582596" lon="0.4337876"><ele>0.0</ele><time>2026-04-29T18:39:30.028Z</time></trkpt><trkpt lat="38.6583352" lon="0.4338417"><ele>0.0</ele><time>2026-04-29T18:39:31.029Z</time></trkpt><trkpt lat="38.6584098" lon="0.4339022"><ele>0.0</ele><time>2026-04-29T18:39:32.028Z</time></trkpt><trkpt lat="38.6584851" lon="0.4339608"><ele>0.0</ele><time>2026-04-29T18:39:33.029Z</time></trkpt><trkpt lat="38.6585587" lon="0.4340177"><ele>0.0</ele><time>2026-04-29T18:39:34.028Z</time></trkpt><trkpt lat="38.6586264" lon="0.4340762"><ele>0.0</ele><time>2026-04-29T18:39:35.029Z</time></trkpt><trkpt lat="38.6587687" lon="0.4341813"><ele>0.0</ele><time>2026-04-29T18:39:37.029Z</time></trkpt><trkpt lat="38.6588392" lon="0.4342423"><ele>0.0</ele><time>2026-04-29T18:39:38.029Z</time></trkpt><trkpt lat="38.6589122" lon="0.434305"><ele>0.0</ele><time>2026-04-29T18:39:39.028Z</time></trkpt><trkpt lat="38.6589836" lon="0.4343672"><ele>0.0</ele><time>2026-04-29T18:39:40.028Z</time></trkpt><trkpt lat="38.6590571" lon="0.4344272"><ele>0.0</ele><time>2026-04-29T18:39:41.029Z</time></trkpt><trkpt lat="38.6591303" lon="0.4344789"><ele>0.0</ele><time>2026-04-29T18:39:42.029Z</time></trkpt><trkpt lat="38.6592054" lon="0.434526"><ele>0.0</ele><time>2026-04-29T18:39:43.029Z</time></trkpt><trkpt lat="38.65928" lon="0.4345759"><ele>0.0</ele><time>2026-04-29T18:39:44.028Z</time></trkpt><trkpt lat="38.6593509" lon="0.434624"><ele>0.0</ele><time>2026-04-29T18:39:45.028Z</time></trkpt><trkpt lat="38.6594295" lon="0.4346807"><ele>0.0</ele><time>2026-04-29T18:39:46.028Z</time></trkpt><trkpt lat="38.6595063" lon="0.4347362"><ele>0.0</ele><time>2026-04-29T18:39:47.028Z</time></trkpt><trkpt lat="38.6595802" lon="0.4347927"><ele>0.0</ele><time>2026-04-29T18:39:48.028Z</time></trkpt><trkpt lat="38.659655" lon="0.4348452"><ele>0.0</ele><time>2026-04-29T18:39:49.029Z</time></trkpt><trkpt lat="38.659737" lon="0.4348899"><ele>0.0</ele><time>2026-04-29T18:39:50.029Z</time></trkpt><trkpt lat="38.6598104" lon="0.4349459"><ele>0.0</ele><time>2026-04-29T18:39:51.028Z</time></trkpt><trkpt lat="38.659881" lon="0.4350011"><ele>0.0</ele><time>2026-04-29T18:39:52.029Z</time></trkpt><trkpt lat="38.6599551" lon="0.4350545"><ele>0.0</ele><time>2026-04-29T18:39:53.029Z</time></trkpt><trkpt lat="38.6600315" lon="0.4351051"><ele>0.0</ele><time>2026-04-29T18:39:54.028Z</time></trkpt><trkpt lat="38.6601054" lon="0.4351606"><ele>0.0</ele><time>2026-04-29T18:39:55.028Z</time></trkpt><trkpt lat="38.6601816" lon="0.4352202"><ele>0.0</ele><time>2026-04-29T18:39:56.028Z</time></trkpt><trkpt lat="38.6603227" lon="0.4353402"><ele>0.0</ele><time>2026-04-29T18:39:58.028Z</time></trkpt><trkpt lat="38.6603967" lon="0.4353961"><ele>0.0</ele><time>2026-04-29T18:39:59.029Z</time></trkpt><trkpt lat="38.6604659" lon="0.4354512"><ele>0.0</ele><time>2026-04-29T18:40:00.029Z</time></trkpt><trkpt lat="38.6605431" lon="0.4354879"><ele>0.0</ele><time>2026-04-29T18:40:01.029Z</time></trkpt><trkpt lat="38.6606153" lon="0.4355372"><ele>0.0</ele><time>2026-04-29T18:40:02.028Z</time></trkpt><trkpt lat="38.6606856" lon="0.43558"><ele>0.0</ele><time>2026-04-29T18:40:03.029Z</time></trkpt><trkpt lat="38.6607601" lon="0.4356248"><ele>0.0</ele><time>2026-04-29T18:40:04.028Z</time></trkpt><trkpt lat="38.6608365" lon="0.4356766"><ele>0.0</ele><time>2026-04-29T18:40:05.029Z</time></trkpt><trkpt lat="38.6609146" lon="0.4357322"><ele>0.0</ele><time>2026-04-29T18:40:06.029Z</time></trkpt><trkpt lat="38.6609827" lon="0.4357877"><ele>0.0</ele><time>2026-04-29T18:40:07.028Z</time></trkpt><trkpt lat="38.6610594" lon="0.4358414"><ele>0.0</ele><time>2026-04-29T18:40:08.028Z</time></trkpt><trkpt lat="38.6611361" lon="0.4358972"><ele>0.0</ele><time>2026-04-29T18:40:09.029Z</time></trkpt><trkpt lat="38.6612129" lon="0.4359539"><ele>0.0</ele><time>2026-04-29T18:40:10.029Z</time></trkpt><trkpt lat="38.6612953" lon="0.4360106"><ele>0.0</ele><time>2026-04-29T18:40:11.028Z</time></trkpt><trkpt lat="38.6613772" lon="0.4360731"><ele>0.0</ele><time>2026-04-29T18:40:12.029Z</time></trkpt><trkpt lat="38.6614561" lon="0.4361294"><ele>0.0</ele><time>2026-04-29T18:40:13.028Z</time></trkpt><trkpt lat="38.6615333" lon="0.4361888"><ele>0.0</ele><time>2026-04-29T18:40:14.028Z</time></trkpt><trkpt lat="38.6616073" lon="0.4362472"><ele>0.0</ele><time>2026-04-29T18:40:15.028Z</time></trkpt><trkpt lat="38.6616806" lon="0.4363044"><ele>0.0</ele><time>2026-04-29T18:40:16.028Z</time></trkpt><trkpt lat="38.6617536" lon="0.4363666"><ele>0.0</ele><time>2026-04-29T18:40:17.028Z</time></trkpt><trkpt lat="38.6618285" lon="0.4364229"><ele>0.0</ele><time>2026-04-29T18:40:18.029Z</time></trkpt><trkpt lat="38.6619737" lon="0.4365426"><ele>0.0</ele><time>2026-04-29T18:40:20.028Z</time></trkpt><trkpt lat="38.6620474" lon="0.4366017"><ele>0.0</ele><time>2026-04-29T18:40:21.029Z</time></trkpt><trkpt lat="38.6621163" lon="0.4366604"><ele>0.0</ele><time>2026-04-29T18:40:22.029Z</time></trkpt><trkpt lat="38.6621989" lon="0.436716"><ele>0.0</ele><time>2026-04-29T18:40:23.028Z</time></trkpt><trkpt lat="38.6622781" lon="0.4367756"><ele>0.0</ele><time>2026-04-29T18:40:24.029Z</time></trkpt><trkpt lat="38.6623591" lon="0.4368285"><ele>0.0</ele><time>2026-04-29T18:40:25.028Z</time></trkpt><trkpt lat="38.6624322" lon="0.4368716"><ele>0.0</ele><time>2026-04-29T18:40:26.028Z</time></trkpt><trkpt lat="38.6625041" lon="0.4369248"><ele>0.0</ele><time>2026-04-29T18:40:27.029Z</time></trkpt><trkpt lat="38.6625812" lon="0.4369726"><ele>0.0</ele><time>2026-04-29T18:40:28.028Z</time></trkpt><trkpt lat="38.662651" lon="0.4370255"><ele>0.0</ele><time>2026-04-29T18:40:29.029Z</time></trkpt><trkpt lat="38.6627207" lon="0.43708"><ele>0.0</ele><time>2026-04-29T18:40:30.028Z</time></trkpt><trkpt lat="38.662795" lon="0.4371377"><ele>0.0</ele><time>2026-04-29T18:40:31.028Z</time></trkpt><trkpt lat="38.6628673" lon="0.4371983"><ele>0.0</ele><time>2026-04-29T18:40:32.028Z</time></trkpt><trkpt lat="38.6629491" lon="0.437254"><ele>0.0</ele><time>2026-04-29T18:40:33.028Z</time></trkpt><trkpt lat="38.6630264" lon="0.4373093"><ele>0.0</ele><time>2026-04-29T18:40:34.028Z</time></trkpt><trkpt lat="38.6631001" lon="0.4373606"><ele>0.0</ele><time>2026-04-29T18:40:35.028Z</time></trkpt><trkpt lat="38.6631753" lon="0.4374165"><ele>0.0</ele><time>2026-04-29T18:40:36.028Z</time></trkpt><trkpt lat="38.6632472" lon="0.437472"><ele>0.0</ele><time>2026-04-29T18:40:37.028Z</time></trkpt><trkpt lat="38.6633247" lon="0.4375336"><ele>0.0</ele><time>2026-04-29T18:40:38.029Z</time></trkpt><trkpt lat="38.663402" lon="0.4375896"><ele>0.0</ele><time>2026-04-29T18:40:39.028Z</time></trkpt><trkpt lat="38.6635518" lon="0.4377045"><ele>0.0</ele><time>2026-04-29T18:40:41.028Z</time></trkpt><trkpt lat="38.6636255" lon="0.4377584"><ele>0.0</ele><time>2026-04-29T18:40:42.028Z</time></trkpt><trkpt lat="38.6636987" lon="0.4378134"><ele>0.0</ele><time>2026-04-29T18:40:43.028Z</time></trkpt><trkpt lat="38.6637704" lon="0.4378683"><ele>0.0</ele><time>2026-04-29T18:40:44.028Z</time></trkpt><trkpt lat="38.6638434" lon="0.4379295"><ele>0.0</ele><time>2026-04-29T18:40:45.028Z</time></trkpt><trkpt lat="38.6639183" lon="0.4379878"><ele>0.0</ele><time>2026-04-29T18:40:46.029Z</time></trkpt><trkpt lat="38.6639918" lon="0.4380464"><ele>0.0</ele><time>2026-04-29T18:40:47.028Z</time></trkpt><trkpt lat="38.6640665" lon="0.4381043"><ele>0.0</ele><time>2026-04-29T18:40:48.029Z</time></trkpt><trkpt lat="38.6641357" lon="0.4381576"><ele>0.0</ele><time>2026-04-29T18:40:49.029Z</time></trkpt><trkpt lat="38.6642142" lon="0.4382146"><ele>0.0</ele><time>2026-04-29T18:40:50.029Z</time></trkpt><trkpt lat="38.6642899" lon="0.4382654"><ele>0.0</ele><time>2026-04-29T18:40:51.029Z</time></trkpt><trkpt lat="38.6643678" lon="0.4383195"><ele>0.0</ele><time>2026-04-29T18:40:52.028Z</time></trkpt><trkpt lat="38.6644422" lon="0.4383777"><ele>0.0</ele><time>2026-04-29T18:40:53.028Z</time></trkpt><trkpt lat="38.6645138" lon="0.4384364"><ele>0.0</ele><time>2026-04-29T18:40:54.028Z</time></trkpt><trkpt lat="38.6645883" lon="0.4384916"><ele>0.0</ele><time>2026-04-29T18:40:55.028Z</time></trkpt><trkpt lat="38.6646619" lon="0.438545"><ele>0.0</ele><time>2026-04-29T18:40:56.028Z</time></trkpt><trkpt lat="38.6647351" lon="0.4386045"><ele>0.0</ele><time>2026-04-29T18:40:57.029Z</time></trkpt><trkpt lat="38.664811" lon="0.4386572"><ele>0.0</ele><time>2026-04-29T18:40:58.029Z</time></trkpt><trkpt lat="38.6648892" lon="0.4387103"><ele>0.0</ele><time>2026-04-29T18:40:59.028Z</time></trkpt><trkpt lat="38.6649679" lon="0.4387661"><ele>0.0</ele><time>2026-04-29T18:41:00.028Z</time></trkpt><trkpt lat="38.6650404" lon="0.438828"><ele>0.0</ele><time>2026-04-29T18:41:01.029Z</time></trkpt><trkpt lat="38.6651892" lon="0.4389431"><ele>0.0</ele><time>2026-04-29T18:41:03.029Z</time></trkpt><trkpt lat="38.6652634" lon="0.4389955"><ele>0.0</ele><time>2026-04-29T18:41:04.029Z</time></trkpt><trkpt lat="38.6653368" lon="0.4390532"><ele>0.0</ele><time>2026-04-29T18:41:05.028Z</time></trkpt><trkpt lat="38.6654144" lon="0.4391157"><ele>0.0</ele><time>2026-04-29T18:41:06.028Z</time></trkpt><trkpt lat="38.6654883" lon="0.4391732"><ele>0.0</ele><time>2026-04-29T18:41:07.029Z</time></trkpt><trkpt lat="38.6655676" lon="0.4392238"><ele>0.0</ele><time>2026-04-29T18:41:08.028Z</time></trkpt><trkpt lat="38.6656406" lon="0.4392808"><ele>0.0</ele><time>2026-04-29T18:41:09.029Z</time></trkpt><trkpt lat="38.6657109" lon="0.4393377"><ele>0.0</ele><time>2026-04-29T18:41:10.029Z</time></trkpt><trkpt lat="38.6657878" lon="0.4393992"><ele>0.0</ele><time>2026-04-29T18:41:11.028Z</time></trkpt><trkpt lat="38.6658631" lon="0.4394566"><ele>0.0</ele><time>2026-04-29T18:41:12.028Z</time></trkpt><trkpt lat="38.6659398" lon="0.4395129"><ele>0.0</ele><time>2026-04-29T18:41:13.028Z</time></trkpt><trkpt lat="38.6660122" lon="0.4395767"><ele>0.0</ele><time>2026-04-29T18:41:14.028Z</time></trkpt><trkpt lat="38.6660852" lon="0.4396341"><ele>0.0</ele><time>2026-04-29T18:41:15.029Z</time></trkpt><trkpt lat="38.6661544" lon="0.4396931"><ele>0.0</ele><time>2026-04-29T18:41:16.028Z</time></trkpt><trkpt lat="38.666227" lon="0.439743"><ele>0.0</ele><time>2026-04-29T18:41:17.029Z</time></trkpt><trkpt lat="38.666303" lon="0.4397941"><ele>0.0</ele><time>2026-04-29T18:41:18.029Z</time></trkpt><trkpt lat="38.6663827" lon="0.4398466"><ele>0.0</ele><time>2026-04-29T18:41:19.029Z</time></trkpt><trkpt lat="38.6664585" lon="0.4398998"><ele>0.0</ele><time>2026-04-29T18:41:20.028Z</time></trkpt><trkpt lat="38.6665308" lon="0.4399476"><ele>0.0</ele><time>2026-04-29T18:41:21.028Z</time></trkpt><trkpt lat="38.6666055" lon="0.4399934"><ele>0.0</ele><time>2026-04-29T18:41:22.028Z</time></trkpt><trkpt lat="38.6667567" lon="0.4400997"><ele>0.0</ele><time>2026-04-29T18:41:24.028Z</time></trkpt><trkpt lat="38.666833" lon="0.440149"><ele>0.0</ele><time>2026-04-29T18:41:25.029Z</time></trkpt><trkpt lat="38.6669096" lon="0.4402048"><ele>0.0</ele><time>2026-04-29T18:41:26.028Z</time></trkpt><trkpt lat="38.6669881" lon="0.4402596"><ele>0.0</ele><time>2026-04-29T18:41:27.028Z</time></trkpt><trkpt lat="38.6670692" lon="0.4403173"><ele>0.0</ele><time>2026-04-29T18:41:28.029Z</time></trkpt><trkpt lat="38.6671449" lon="0.4403757"><ele>0.0</ele><time>2026-04-29T18:41:29.029Z</time></trkpt><trkpt lat="38.667223" lon="0.4404213"><ele>0.0</ele><time>2026-04-29T18:41:30.028Z</time></trkpt><trkpt lat="38.6673014" lon="0.4404695"><ele>0.0</ele><time>2026-04-29T18:41:31.029Z</time></trkpt><trkpt lat="38.6673771" lon="0.4405316"><ele>0.0</ele><time>2026-04-29T18:41:32.029Z</time></trkpt><trkpt lat="38.6674493" lon="0.4405877"><ele>0.0</ele><time>2026-04-29T18:41:33.029Z</time></trkpt><trkpt lat="38.6675108" lon="0.4406472"><ele>0.0</ele><time>2026-04-29T18:41:34.028Z</time></trkpt><trkpt lat="38.6675807" lon="0.4407087"><ele>0.0</ele><time>2026-04-29T18:41:35.028Z</time></trkpt><trkpt lat="38.6676523" lon="0.4407715"><ele>0.0</ele><time>2026-04-29T18:41:36.029Z</time></trkpt><trkpt lat="38.667731" lon="0.4408289"><ele>0.0</ele><time>2026-04-29T18:41:37.029Z</time></trkpt><trkpt lat="38.6678008" lon="0.4408904"><ele>0.0</ele><time>2026-04-29T18:41:38.028Z</time></trkpt><trkpt lat="38.6678737" lon="0.4409581"><ele>0.0</ele><time>2026-04-29T18:41:39.028Z</time></trkpt><trkpt lat="38.6679479" lon="0.4410137"><ele>0.0</ele><time>2026-04-29T18:41:40.028Z</time></trkpt><trkpt lat="38.6680187" lon="0.4410685"><ele>0.0</ele><time>2026-04-29T18:41:41.028Z</time></trkpt><trkpt lat="38.6680943" lon="0.441122"><ele>0.0</ele><time>2026-04-29T18:41:42.029Z</time></trkpt><trkpt lat="38.6681697" lon="0.4411787"><ele>0.0</ele><time>2026-04-29T18:41:43.028Z</time></trkpt><trkpt lat="38.6683157" lon="0.4412653"><ele>0.0</ele><time>2026-04-29T18:41:45.029Z</time></trkpt><trkpt lat="38.6683958" lon="0.4413198"><ele>0.0</ele><time>2026-04-29T18:41:46.029Z</time></trkpt><trkpt lat="38.6684743" lon="0.4413768"><ele>0.0</ele><time>2026-04-29T18:41:47.028Z</time></trkpt><trkpt lat="38.6685498" lon="0.4414334"><ele>0.0</ele><time>2026-04-29T18:41:48.029Z</time></trkpt><trkpt lat="38.668632" lon="0.4414926"><ele>0.0</ele><time>2026-04-29T18:41:49.028Z</time></trkpt><trkpt lat="38.6687098" lon="0.4415478"><ele>0.0</ele><time>2026-04-29T18:41:50.028Z</time></trkpt><trkpt lat="38.6687792" lon="0.441612"><ele>0.0</ele><time>2026-04-29T18:41:51.029Z</time></trkpt><trkpt lat="38.6688504" lon="0.4416758"><ele>0.0</ele><time>2026-04-29T18:41:52.029Z</time></trkpt><trkpt lat="38.6689165" lon="0.4417263"><ele>0.0</ele><time>2026-04-29T18:41:53.028Z</time></trkpt><trkpt lat="38.668993" lon="0.4417831"><ele>0.0</ele><time>2026-04-29T18:41:54.029Z</time></trkpt><trkpt lat="38.6690683" lon="0.4418383"><ele>0.0</ele><time>2026-04-29T18:41:55.029Z</time></trkpt><trkpt lat="38.6691406" lon="0.4418903"><ele>0.0</ele><time>2026-04-29T18:41:56.028Z</time></trkpt><trkpt lat="38.6692137" lon="0.4419421"><ele>0.0</ele><time>2026-04-29T18:41:57.028Z</time></trkpt><trkpt lat="38.6692868" lon="0.4419935"><ele>0.0</ele><time>2026-04-29T18:41:58.028Z</time></trkpt><trkpt lat="38.669363" lon="0.4420512"><ele>0.0</ele><time>2026-04-29T18:41:59.028Z</time></trkpt><trkpt lat="38.6694371" lon="0.4421047"><ele>0.0</ele><time>2026-04-29T18:42:00.028Z</time></trkpt><trkpt lat="38.6695117" lon="0.4421579"><ele>0.0</ele><time>2026-04-29T18:42:01.028Z</time></trkpt><trkpt lat="38.6695899" lon="0.4422143"><ele>0.0</ele><time>2026-04-29T18:42:02.029Z</time></trkpt><trkpt lat="38.6696592" lon="0.4422671"><ele>0.0</ele><time>2026-04-29T18:42:03.028Z</time></trkpt><trkpt lat="38.6697277" lon="0.4423203"><ele>0.0</ele><time>2026-04-29T18:42:04.028Z</time></trkpt><trkpt lat="38.6697987" lon="0.4423809"><ele>0.0</ele><time>2026-04-29T18:42:05.029Z</time></trkpt><trkpt lat="38.669958" lon="0.44249"><ele>0.0</ele><time>2026-04-29T18:42:07.029Z</time></trkpt><trkpt lat="38.6700363" lon="0.4425434"><ele>0.0</ele><time>2026-04-29T18:42:08.028Z</time></trkpt><trkpt lat="38.6701123" lon="0.4426007"><ele>0.0</ele><time>2026-04-29T18:42:09.029Z</time></trkpt><trkpt lat="38.6701912" lon="0.4426518"><ele>0.0</ele><time>2026-04-29T18:42:10.028Z</time></trkpt><trkpt lat="38.6702681" lon="0.4427111"><ele>0.0</ele><time>2026-04-29T18:42:11.029Z</time></trkpt><trkpt lat="38.670349" lon="0.4427699"><ele>0.0</ele><time>2026-04-29T18:42:12.029Z</time></trkpt><trkpt lat="38.6704275" lon="0.442827"><ele>0.0</ele><time>2026-04-29T18:42:13.029Z</time></trkpt><trkpt lat="38.6705074" lon="0.4428822"><ele>0.0</ele><time>2026-04-29T18:42:14.029Z</time></trkpt><trkpt lat="38.670582" lon="0.4429383"><ele>0.0</ele><time>2026-04-29T18:42:15.028Z</time></trkpt><trkpt lat="38.6706538" lon="0.4429891"><ele>0.0</ele><time>2026-04-29T18:42:16.029Z</time></trkpt><trkpt lat="38.6707289" lon="0.4430418"><ele>0.0</ele><time>2026-04-29T18:42:17.028Z</time></trkpt><trkpt lat="38.6708035" lon="0.443092"><ele>0.0</ele><time>2026-04-29T18:42:18.029Z</time></trkpt><trkpt lat="38.670877" lon="0.4431447"><ele>0.0</ele><time>2026-04-29T18:42:19.028Z</time></trkpt><trkpt lat="38.6709532" lon="0.4431998"><ele>0.0</ele><time>2026-04-29T18:42:20.029Z</time></trkpt><trkpt lat="38.6710255" lon="0.4432582"><ele>0.0</ele><time>2026-04-29T18:42:21.028Z</time></trkpt><trkpt lat="38.6710985" lon="0.4433133"><ele>0.0</ele><time>2026-04-29T18:42:22.029Z</time></trkpt><trkpt lat="38.671172" lon="0.4433684"><ele>0.0</ele><time>2026-04-29T18:42:23.028Z</time></trkpt><trkpt lat="38.6712409" lon="0.4434177"><ele>0.0</ele><time>2026-04-29T18:42:24.029Z</time></trkpt><trkpt lat="38.6713095" lon="0.443468"><ele>0.0</ele><time>2026-04-29T18:42:25.028Z</time></trkpt><trkpt lat="38.6713805" lon="0.4435173"><ele>0.0</ele><time>2026-04-29T18:42:26.028Z</time></trkpt><trkpt lat="38.6715346" lon="0.4436279"><ele>0.0</ele><time>2026-04-29T18:42:28.029Z</time></trkpt><trkpt lat="38.6716114" lon="0.4436858"><ele>0.0</ele><time>2026-04-29T18:42:29.028Z</time></trkpt><trkpt lat="38.6716866" lon="0.4437444"><ele>0.0</ele><time>2026-04-29T18:42:30.028Z</time></trkpt><trkpt lat="38.6717615" lon="0.4438062"><ele>0.0</ele><time>2026-04-29T18:42:31.028Z</time></trkpt><trkpt lat="38.6718375" lon="0.4438675"><ele>0.0</ele><time>2026-04-29T18:42:32.028Z</time></trkpt><trkpt lat="38.6719164" lon="0.4439243"><ele>0.0</ele><time>2026-04-29T18:42:33.029Z</time></trkpt><trkpt lat="38.6719876" lon="0.4439801"><ele>0.0</ele><time>2026-04-29T18:42:34.028Z</time></trkpt><trkpt lat="38.6720587" lon="0.4440398"><ele>0.0</ele><time>2026-04-29T18:42:35.029Z</time></trkpt><trkpt lat="38.6721375" lon="0.444101"><ele>0.0</ele><time>2026-04-29T18:42:36.029Z</time></trkpt><trkpt lat="38.6722173" lon="0.4441639"><ele>0.0</ele><time>2026-04-29T18:42:37.028Z</time></trkpt><trkpt lat="38.6722946" lon="0.4442227"><ele>0.0</ele><time>2026-04-29T18:42:38.028Z</time></trkpt><trkpt lat="38.6723698" lon="0.4442796"><ele>0.0</ele><time>2026-04-29T18:42:39.028Z</time></trkpt><trkpt lat="38.6724434" lon="0.4443394"><ele>0.0</ele><time>2026-04-29T18:42:40.029Z</time></trkpt><trkpt lat="38.6725169" lon="0.4443978"><ele>0.0</ele><time>2026-04-29T18:42:41.029Z</time></trkpt><trkpt lat="38.6725886" lon="0.4444612"><ele>0.0</ele><time>2026-04-29T18:42:42.028Z</time></trkpt><trkpt lat="38.6726589" lon="0.44452"><ele>0.0</ele><time>2026-04-29T18:42:43.028Z</time></trkpt><trkpt lat="38.6727318" lon="0.4445813"><ele>0.0</ele><time>2026-04-29T18:42:44.029Z</time></trkpt><trkpt lat="38.6727954" lon="0.4446345"><ele>0.0</ele><time>2026-04-29T18:42:45.028Z</time></trkpt><trkpt lat="38.672873" lon="0.4446993"><ele>0.0</ele><time>2026-04-29T18:42:46.029Z</time></trkpt><trkpt lat="38.6729469" lon="0.4447596"><ele>0.0</ele><time>2026-04-29T18:42:47.029Z</time></trkpt><trkpt lat="38.6730935" lon="0.4448853"><ele>0.0</ele><time>2026-04-29T18:42:49.028Z</time></trkpt><trkpt lat="38.6731683" lon="0.4449419"><ele>0.0</ele><time>2026-04-29T18:42:50.028Z</time></trkpt><trkpt lat="38.6732446" lon="0.4450026"><ele>0.0</ele><time>2026-04-29T18:42:51.028Z</time></trkpt><trkpt lat="38.6733171" lon="0.4450684"><ele>0.0</ele><time>2026-04-29T18:42:52.029Z</time></trkpt><trkpt lat="38.6733859" lon="0.4451311"><ele>0.0</ele><time>2026-04-29T18:42:53.028Z</time></trkpt><trkpt lat="38.6734585" lon="0.4451858"><ele>0.0</ele><time>2026-04-29T18:42:54.028Z</time></trkpt><trkpt lat="38.6735349" lon="0.4452407"><ele>0.0</ele><time>2026-04-29T18:42:55.028Z</time></trkpt><trkpt lat="38.6736085" lon="0.4452927"><ele>0.0</ele><time>2026-04-29T18:42:56.029Z</time></trkpt><trkpt lat="38.6736831" lon="0.4453411"><ele>0.0</ele><time>2026-04-29T18:42:57.028Z</time></trkpt><trkpt lat="38.6737683" lon="0.4453848"><ele>0.0</ele><time>2026-04-29T18:42:58.029Z</time></trkpt><trkpt lat="38.6738493" lon="0.4454396"><ele>0.0</ele><time>2026-04-29T18:42:59.029Z</time></trkpt><trkpt lat="38.6739206" lon="0.445511"><ele>0.0</ele><time>2026-04-29T18:43:00.028Z</time></trkpt><trkpt lat="38.6740009" lon="0.4455668"><ele>0.0</ele><time>2026-04-29T18:43:01.028Z</time></trkpt><trkpt lat="38.6740779" lon="0.4456235"><ele>0.0</ele><time>2026-04-29T18:43:02.029Z</time></trkpt><trkpt lat="38.6741602" lon="0.4456748"><ele>0.0</ele><time>2026-04-29T18:43:03.028Z</time></trkpt><trkpt lat="38.6742307" lon="0.4457331"><ele>0.0</ele><time>2026-04-29T18:43:04.029Z</time></trkpt><trkpt lat="38.6743077" lon="0.4457931"><ele>0.0</ele><time>2026-04-29T18:43:05.029Z</time></trkpt><trkpt lat="38.6743849" lon="0.4458515"><ele>0.0</ele><time>2026-04-29T18:43:06.028Z</time></trkpt><trkpt lat="38.6744615" lon="0.4459082"><ele>0.0</ele><time>2026-04-29T18:43:07.029Z</time></trkpt><trkpt lat="38.6745326" lon="0.4459621"><ele>0.0</ele><time>2026-04-29T18:43:08.028Z</time></trkpt><trkpt lat="38.6746741" lon="0.4460547"><ele>0.0</ele><time>2026-04-29T18:43:10.028Z</time></trkpt><trkpt lat="38.6747457" lon="0.4461097"><ele>0.0</ele><time>2026-04-29T18:43:11.028Z</time></trkpt><trkpt lat="38.6748229" lon="0.4461636"><ele>0.0</ele><time>2026-04-29T18:43:12.028Z</time></trkpt><trkpt lat="38.6748955" lon="0.446223"><ele>0.0</ele><time>2026-04-29T18:43:13.028Z</time></trkpt><trkpt lat="38.6749681" lon="0.4462814"><ele>0.0</ele><time>2026-04-29T18:43:14.028Z</time></trkpt><trkpt lat="38.6750447" lon="0.4463413"><ele>0.0</ele><time>2026-04-29T18:43:15.028Z</time></trkpt><trkpt lat="38.6751159" lon="0.4463972"><ele>0.0</ele><time>2026-04-29T18:43:16.029Z</time></trkpt><trkpt lat="38.6751887" lon="0.4464444"><ele>0.0</ele><time>2026-04-29T18:43:17.028Z</time></trkpt><trkpt lat="38.6752694" lon="0.4464939"><ele>0.0</ele><time>2026-04-29T18:43:18.028Z</time></trkpt><trkpt lat="38.6753481" lon="0.4465498"><ele>0.0</ele><time>2026-04-29T18:43:19.028Z</time></trkpt><trkpt lat="38.6754265" lon="0.4466018"><ele>0.0</ele><time>2026-04-29T18:43:20.029Z</time></trkpt><trkpt lat="38.6755003" lon="0.4466502"><ele>0.0</ele><time>2026-04-29T18:43:21.028Z</time></trkpt><trkpt lat="38.6755695" lon="0.4467063"><ele>0.0</ele><time>2026-04-29T18:43:22.028Z</time></trkpt><trkpt lat="38.675635" lon="0.4467603"><ele>0.0</ele><time>2026-04-29T18:43:23.028Z</time></trkpt><trkpt lat="38.6757013" lon="0.4468149"><ele>0.0</ele><time>2026-04-29T18:43:24.028Z</time></trkpt><trkpt lat="38.6757739" lon="0.4468768"><ele>0.0</ele><time>2026-04-29T18:43:25.028Z</time></trkpt><trkpt lat="38.6758458" lon="0.4469329"><ele>0.0</ele><time>2026-04-29T18:43:26.029Z</time></trkpt><trkpt lat="38.6759178" lon="0.4469919"><ele>0.0</ele><time>2026-04-29T18:43:27.028Z</time></trkpt><trkpt lat="38.675989" lon="0.4470523"><ele>0.0</ele><time>2026-04-29T18:43:28.028Z</time></trkpt><trkpt lat="38.6760581" lon="0.4470972"><ele>0.0</ele><time>2026-04-29T18:43:29.028Z</time></trkpt><trkpt lat="38.6762147" lon="0.4472116"><ele>0.0</ele><time>2026-04-29T18:43:31.029Z</time></trkpt><trkpt lat="38.6763" lon="0.4472577"><ele>0.0</ele><time>2026-04-29T18:43:32.028Z</time></trkpt><trkpt lat="38.6763765" lon="0.4473113"><ele>0.0</ele><time>2026-04-29T18:43:33.028Z</time></trkpt><trkpt lat="38.6764529" lon="0.4473666"><ele>0.0</ele><time>2026-04-29T18:43:34.029Z</time></trkpt><trkpt lat="38.6765273" lon="0.4474203"><ele>0.0</ele><time>2026-04-29T18:43:35.028Z</time></trkpt><trkpt lat="38.6766032" lon="0.4474766"><ele>0.0</ele><time>2026-04-29T18:43:36.028Z</time></trkpt><trkpt lat="38.6766727" lon="0.4475289"><ele>0.0</ele><time>2026-04-29T18:43:37.028Z</time></trkpt><trkpt lat="38.6767464" lon="0.4475846"><ele>0.0</ele><time>2026-04-29T18:43:38.029Z</time></trkpt><trkpt lat="38.6768273" lon="0.4476411"><ele>0.0</ele><time>2026-04-29T18:43:39.028Z</time></trkpt><trkpt lat="38.6769033" lon="0.4476968"><ele>0.0</ele><time>2026-04-29T18:43:40.028Z</time></trkpt><trkpt lat="38.6769813" lon="0.4477532"><ele>0.0</ele><time>2026-04-29T18:43:41.029Z</time></trkpt><trkpt lat="38.677054" lon="0.4478009"><ele>0.0</ele><time>2026-04-29T18:43:42.028Z</time></trkpt><trkpt lat="38.6771342" lon="0.447848"><ele>0.0</ele><time>2026-04-29T18:43:43.028Z</time></trkpt><trkpt lat="38.6772113" lon="0.4479033"><ele>0.0</ele><time>2026-04-29T18:43:44.028Z</time></trkpt><trkpt lat="38.6772852" lon="0.4479584"><ele>0.0</ele><time>2026-04-29T18:43:45.028Z</time></trkpt><trkpt lat="38.6773554" lon="0.4480166"><ele>0.0</ele><time>2026-04-29T18:43:46.027Z</time></trkpt><trkpt lat="38.6774271" lon="0.448072"><ele>0.0</ele><time>2026-04-29T18:43:47.027Z</time></trkpt><trkpt lat="38.6775017" lon="0.4481313"><ele>0.0</ele><time>2026-04-29T18:43:48.027Z</time></trkpt><trkpt lat="38.677578" lon="0.448188"><ele>0.0</ele><time>2026-04-29T18:43:49.028Z</time></trkpt><trkpt lat="38.6776521" lon="0.448246"><ele>0.0</ele><time>2026-04-29T18:43:50.027Z</time></trkpt><trkpt lat="38.6778031" lon="0.4483658"><ele>0.0</ele><time>2026-04-29T18:43:52.028Z</time></trkpt><trkpt lat="38.6778837" lon="0.4484277"><ele>0.0</ele><time>2026-04-29T18:43:53.027Z</time></trkpt><trkpt lat="38.6779641" lon="0.448482"><ele>0.0</ele><time>2026-04-29T18:43:54.027Z</time></trkpt><trkpt lat="38.6780441" lon="0.4485379"><ele>0.0</ele><time>2026-04-29T18:43:55.027Z</time></trkpt><trkpt lat="38.6781184" lon="0.4485961"><ele>0.0</ele><time>2026-04-29T18:43:56.028Z</time></trkpt><trkpt lat="38.6781903" lon="0.4486501"><ele>0.0</ele><time>2026-04-29T18:43:57.027Z</time></trkpt><trkpt lat="38.6782657" lon="0.4487003"><ele>0.0</ele><time>2026-04-29T18:43:58.028Z</time></trkpt><trkpt lat="38.6783433" lon="0.4487516"><ele>0.0</ele><time>2026-04-29T18:43:59.028Z</time></trkpt><trkpt lat="38.6784156" lon="0.4488036"><ele>0.0</ele><time>2026-04-29T18:44:00.028Z</time></trkpt><trkpt lat="38.6784873" lon="0.4488609"><ele>0.0</ele><time>2026-04-29T18:44:01.028Z</time></trkpt><trkpt lat="38.6785576" lon="0.4489261"><ele>0.0</ele><time>2026-04-29T18:44:02.027Z</time></trkpt><trkpt lat="38.6786319" lon="0.4489845"><ele>0.0</ele><time>2026-04-29T18:44:03.027Z</time></trkpt><trkpt lat="38.6787054" lon="0.4490419"><ele>0.0</ele><time>2026-04-29T18:44:04.027Z</time></trkpt><trkpt lat="38.6787715" lon="0.4490981"><ele>0.0</ele><time>2026-04-29T18:44:05.027Z</time></trkpt><trkpt lat="38.6788404" lon="0.4491518"><ele>0.0</ele><time>2026-04-29T18:44:06.028Z</time></trkpt><trkpt lat="38.6789178" lon="0.4492068"><ele>0.0</ele><time>2026-04-29T18:44:07.027Z</time></trkpt><trkpt lat="38.6789977" lon="0.4492571"><ele>0.0</ele><time>2026-04-29T18:44:08.027Z</time></trkpt><trkpt lat="38.6790765" lon="0.4493085"><ele>0.0</ele><time>2026-04-29T18:44:09.027Z</time></trkpt><trkpt lat="38.6791505" lon="0.449355"><ele>0.0</ele><time>2026-04-29T18:44:10.028Z</time></trkpt><trkpt lat="38.6792238" lon="0.4494179"><ele>0.0</ele><time>2026-04-29T18:44:11.028Z</time></trkpt><trkpt lat="38.6793755" lon="0.4495248"><ele>0.0</ele><time>2026-04-29T18:44:13.027Z</time></trkpt><trkpt lat="38.6794507" lon="0.4495721"><ele>0.0</ele><time>2026-04-29T18:44:14.028Z</time></trkpt><trkpt lat="38.6795225" lon="0.4496234"><ele>0.0</ele><time>2026-04-29T18:44:15.028Z</time></trkpt><trkpt lat="38.6795971" lon="0.4496751"><ele>0.0</ele><time>2026-04-29T18:44:16.028Z</time></trkpt><trkpt lat="38.6796747" lon="0.4497299"><ele>0.0</ele><time>2026-04-29T18:44:17.027Z</time></trkpt><trkpt lat="38.6797474" lon="0.4497789"><ele>0.0</ele><time>2026-04-29T18:44:18.028Z</time></trkpt><trkpt lat="38.6798179" lon="0.4498414"><ele>0.0</ele><time>2026-04-29T18:44:19.027Z</time></trkpt><trkpt lat="38.6798934" lon="0.4498993"><ele>0.0</ele><time>2026-04-29T18:44:20.027Z</time></trkpt><trkpt lat="38.6799699" lon="0.4499562"><ele>0.0</ele><time>2026-04-29T18:44:21.027Z</time></trkpt><trkpt lat="38.6800519" lon="0.4500298"><ele>0.0</ele><time>2026-04-29T18:44:22.028Z</time></trkpt><trkpt lat="38.6801255" lon="0.450088"><ele>0.0</ele><time>2026-04-29T18:44:23.028Z</time></trkpt><trkpt lat="38.6801903" lon="0.4501668"><ele>0.0</ele><time>2026-04-29T18:44:24.028Z</time></trkpt><trkpt lat="38.6802592" lon="0.4502187"><ele>0.0</ele><time>2026-04-29T18:44:25.028Z</time></trkpt><trkpt lat="38.6803348" lon="0.4502664"><ele>0.0</ele><time>2026-04-29T18:44:26.027Z</time></trkpt><trkpt lat="38.680417" lon="0.450313"><ele>0.0</ele><time>2026-04-29T18:44:27.027Z</time></trkpt><trkpt lat="38.6804964" lon="0.4503609"><ele>0.0</ele><time>2026-04-29T18:44:28.027Z</time></trkpt><trkpt lat="38.6805731" lon="0.4504177"><ele>0.0</ele><time>2026-04-29T18:44:29.028Z</time></trkpt><trkpt lat="38.6806525" lon="0.4504729"><ele>0.0</ele><time>2026-04-29T18:44:30.027Z</time></trkpt><trkpt lat="38.6807254" lon="0.4505252"><ele>0.0</ele><time>2026-04-29T18:44:31.027Z</time></trkpt><trkpt lat="38.6807987" lon="0.4505801"><ele>0.0</ele><time>2026-04-29T18:44:32.027Z</time></trkpt><trkpt lat="38.6809576" lon="0.4506864"><ele>0.0</ele><time>2026-04-29T18:44:34.027Z</time></trkpt><trkpt lat="38.681032" lon="0.4507373"><ele>0.0</ele><time>2026-04-29T18:44:35.027Z</time></trkpt><trkpt lat="38.681107" lon="0.4507885"><ele>0.0</ele><time>2026-04-29T18:44:36.028Z</time></trkpt><trkpt lat="38.681182" lon="0.4508429"><ele>0.0</ele><time>2026-04-29T18:44:37.028Z</time></trkpt><trkpt lat="38.6812567" lon="0.4509025"><ele>0.0</ele><time>2026-04-29T18:44:38.027Z</time></trkpt><trkpt lat="38.681333" lon="0.4509642"><ele>0.0</ele><time>2026-04-29T18:44:39.028Z</time></trkpt><trkpt lat="38.6814083" lon="0.4510231"><ele>0.0</ele><time>2026-04-29T18:44:40.027Z</time></trkpt><trkpt lat="38.6814818" lon="0.4510825"><ele>0.0</ele><time>2026-04-29T18:44:41.027Z</time></trkpt><trkpt lat="38.6815604" lon="0.4511453"><ele>0.0</ele><time>2026-04-29T18:44:42.028Z</time></trkpt><trkpt lat="38.6816337" lon="0.4512198"><ele>0.0</ele><time>2026-04-29T18:44:43.027Z</time></trkpt><trkpt lat="38.6817099" lon="0.4512808"><ele>0.0</ele><time>2026-04-29T18:44:44.027Z</time></trkpt><trkpt lat="38.6817794" lon="0.4513349"><ele>0.0</ele><time>2026-04-29T18:44:45.028Z</time></trkpt><trkpt lat="38.6818506" lon="0.4513889"><ele>0.0</ele><time>2026-04-29T18:44:46.028Z</time></trkpt><trkpt lat="38.681928" lon="0.4514376"><ele>0.0</ele><time>2026-04-29T18:44:47.027Z</time></trkpt><trkpt lat="38.6819989" lon="0.4514903"><ele>0.0</ele><time>2026-04-29T18:44:48.027Z</time></trkpt><trkpt lat="38.6820704" lon="0.4515435"><ele>0.0</ele><time>2026-04-29T18:44:49.028Z</time></trkpt><trkpt lat="38.6821438" lon="0.4515972"><ele>0.0</ele><time>2026-04-29T18:44:50.027Z</time></trkpt><trkpt lat="38.6822168" lon="0.4516503"><ele>0.0</ele><time>2026-04-29T18:44:51.027Z</time></trkpt><trkpt lat="38.6822943" lon="0.4517035"><ele>0.0</ele><time>2026-04-29T18:44:52.027Z</time></trkpt><trkpt lat="38.6823728" lon="0.4517614"><ele>0.0</ele><time>2026-04-29T18:44:53.028Z</time></trkpt><trkpt lat="38.6825232" lon="0.4518747"><ele>0.0</ele><time>2026-04-29T18:44:55.028Z</time></trkpt><trkpt lat="38.682597" lon="0.4519413"><ele>0.0</ele><time>2026-04-29T18:44:56.027Z</time></trkpt><trkpt lat="38.6826763" lon="0.451998"><ele>0.0</ele><time>2026-04-29T18:44:57.027Z</time></trkpt><trkpt lat="38.6827573" lon="0.4520562"><ele>0.0</ele><time>2026-04-29T18:44:58.028Z</time></trkpt><trkpt lat="38.6828378" lon="0.452113"><ele>0.0</ele><time>2026-04-29T18:44:59.028Z</time></trkpt><trkpt lat="38.6829144" lon="0.452171"><ele>0.0</ele><time>2026-04-29T18:45:00.028Z</time></trkpt><trkpt lat="38.6829867" lon="0.4522263"><ele>0.0</ele><time>2026-04-29T18:45:01.028Z</time></trkpt><trkpt lat="38.6830558" lon="0.452277"><ele>0.0</ele><time>2026-04-29T18:45:02.027Z</time></trkpt><trkpt lat="38.6831317" lon="0.4523259"><ele>0.0</ele><time>2026-04-29T18:45:03.028Z</time></trkpt><trkpt lat="38.6832053" lon="0.4523757"><ele>0.0</ele><time>2026-04-29T18:45:04.028Z</time></trkpt><trkpt lat="38.6832774" lon="0.4524285"><ele>0.0</ele><time>2026-04-29T18:45:05.027Z</time></trkpt><trkpt lat="38.6833478" lon="0.4524804"><ele>0.0</ele><time>2026-04-29T18:45:06.027Z</time></trkpt><trkpt lat="38.6834218" lon="0.4525333"><ele>0.0</ele><time>2026-04-29T18:45:07.028Z</time></trkpt><trkpt lat="38.6834955" lon="0.4525794"><ele>0.0</ele><time>2026-04-29T18:45:08.027Z</time></trkpt><trkpt lat="38.683573" lon="0.4526313"><ele>0.0</ele><time>2026-04-29T18:45:09.027Z</time></trkpt><trkpt lat="38.6836484" lon="0.4526853"><ele>0.0</ele><time>2026-04-29T18:45:10.027Z</time></trkpt><trkpt lat="38.6837249" lon="0.4527382"><ele>0.0</ele><time>2026-04-29T18:45:11.027Z</time></trkpt><trkpt lat="38.6838028" lon="0.4527945"><ele>0.0</ele><time>2026-04-29T18:45:12.028Z</time></trkpt><trkpt lat="38.6838742" lon="0.4528441"><ele>0.0</ele><time>2026-04-29T18:45:13.027Z</time></trkpt><trkpt lat="38.6839557" lon="0.4528881"><ele>0.0</ele><time>2026-04-29T18:45:14.027Z</time></trkpt><trkpt lat="38.6841007" lon="0.4529979"><ele>0.0</ele><time>2026-04-29T18:45:16.027Z</time></trkpt><trkpt lat="38.6841717" lon="0.4530619"><ele>0.0</ele><time>2026-04-29T18:45:17.028Z</time></trkpt><trkpt lat="38.6842424" lon="0.4531323"><ele>0.0</ele><time>2026-04-29T18:45:18.028Z</time></trkpt><trkpt lat="38.684311" lon="0.4531884"><ele>0.0</ele><time>2026-04-29T18:45:19.028Z</time></trkpt><trkpt lat="38.6843809" lon="0.4532424"><ele>0.0</ele><time>2026-04-29T18:45:20.028Z</time></trkpt><trkpt lat="38.6844522" lon="0.4532971"><ele>0.0</ele><time>2026-04-29T18:45:21.027Z</time></trkpt><trkpt lat="38.684527" lon="0.453352"><ele>0.0</ele><time>2026-04-29T18:45:22.028Z</time></trkpt><trkpt lat="38.6845963" lon="0.4534158"><ele>0.0</ele><time>2026-04-29T18:45:23.028Z</time></trkpt><trkpt lat="38.68467" lon="0.4534746"><ele>0.0</ele><time>2026-04-29T18:45:24.027Z</time></trkpt><trkpt lat="38.6847408" lon="0.4535272"><ele>0.0</ele><time>2026-04-29T18:45:25.028Z</time></trkpt><trkpt lat="38.6848165" lon="0.4535801"><ele>0.0</ele><time>2026-04-29T18:45:26.027Z</time></trkpt><trkpt lat="38.6848887" lon="0.4536322"><ele>0.0</ele><time>2026-04-29T18:45:27.028Z</time></trkpt><trkpt lat="38.6849648" lon="0.4536752"><ele>0.0</ele><time>2026-04-29T18:45:28.028Z</time></trkpt><trkpt lat="38.6850384" lon="0.4537243"><ele>0.0</ele><time>2026-04-29T18:45:29.027Z</time></trkpt><trkpt lat="38.6851132" lon="0.4537781"><ele>0.0</ele><time>2026-04-29T18:45:30.027Z</time></trkpt><trkpt lat="38.6851869" lon="0.4538333"><ele>0.0</ele><time>2026-04-29T18:45:31.028Z</time></trkpt><trkpt lat="38.685263" lon="0.4538915"><ele>0.0</ele><time>2026-04-29T18:45:32.028Z</time></trkpt><trkpt lat="38.6853353" lon="0.453947"><ele>0.0</ele><time>2026-04-29T18:45:33.027Z</time></trkpt><trkpt lat="38.6854099" lon="0.4539946"><ele>0.0</ele><time>2026-04-29T18:45:34.028Z</time></trkpt><trkpt lat="38.6854877" lon="0.454051"><ele>0.0</ele><time>2026-04-29T18:45:35.028Z</time></trkpt><trkpt lat="38.6856343" lon="0.454173"><ele>0.0</ele><time>2026-04-29T18:45:37.027Z</time></trkpt><trkpt lat="38.6856994" lon="0.4542582"><ele>0.0</ele><time>2026-04-29T18:45:38.027Z</time></trkpt><trkpt lat="38.6857677" lon="0.4543407"><ele>0.0</ele><time>2026-04-29T18:45:39.027Z</time></trkpt><trkpt lat="38.6858385" lon="0.4544236"><ele>0.0</ele><time>2026-04-29T18:45:40.027Z</time></trkpt><trkpt lat="38.6859145" lon="0.4544846"><ele>0.0</ele><time>2026-04-29T18:45:41.027Z</time></trkpt><trkpt lat="38.6859872" lon="0.4545362"><ele>0.0</ele><time>2026-04-29T18:45:42.027Z</time></trkpt><trkpt lat="38.6860586" lon="0.4545918"><ele>0.0</ele><time>2026-04-29T18:45:43.027Z</time></trkpt><trkpt lat="38.6861389" lon="0.454645"><ele>0.0</ele><time>2026-04-29T18:45:44.027Z</time></trkpt><trkpt lat="38.6862134" lon="0.4547"><ele>0.0</ele><time>2026-04-29T18:45:45.027Z</time></trkpt><trkpt lat="38.686294" lon="0.4547565"><ele>0.0</ele><time>2026-04-29T18:45:46.027Z</time></trkpt><trkpt lat="38.6863699" lon="0.4548142"><ele>0.0</ele><time>2026-04-29T18:45:47.028Z</time></trkpt><trkpt lat="38.6864478" lon="0.4548724"><ele>0.0</ele><time>2026-04-29T18:45:48.027Z</time></trkpt><trkpt lat="38.6865162" lon="0.4549167"><ele>0.0</ele><time>2026-04-29T18:45:49.027Z</time></trkpt><trkpt lat="38.6865902" lon="0.4549675"><ele>0.0</ele><time>2026-04-29T18:45:50.027Z</time></trkpt><trkpt lat="38.686665" lon="0.4550177"><ele>0.0</ele><time>2026-04-29T18:45:51.028Z</time></trkpt><trkpt lat="38.6867385" lon="0.4550732"><ele>0.0</ele><time>2026-04-29T18:45:52.028Z</time></trkpt><trkpt lat="38.686816" lon="0.4551269"><ele>0.0</ele><time>2026-04-29T18:45:53.028Z</time></trkpt><trkpt lat="38.6868874" lon="0.4551773"><ele>0.0</ele><time>2026-04-29T18:45:54.027Z</time></trkpt><trkpt lat="38.6869659" lon="0.4552272"><ele>0.0</ele><time>2026-04-29T18:45:55.027Z</time></trkpt><trkpt lat="38.6870404" lon="0.4552757"><ele>0.0</ele><time>2026-04-29T18:45:56.028Z</time></trkpt><trkpt lat="38.6871861" lon="0.4553779"><ele>0.0</ele><time>2026-04-29T18:45:58.028Z</time></trkpt><trkpt lat="38.6872628" lon="0.4554304"><ele>0.0</ele><time>2026-04-29T18:45:59.027Z</time></trkpt><trkpt lat="38.6873396" lon="0.455457"><ele>0.0</ele><time>2026-04-29T18:46:00.027Z</time></trkpt><trkpt lat="38.6874207" lon="0.4555101"><ele>0.0</ele><time>2026-04-29T18:46:01.027Z</time></trkpt><trkpt lat="38.6875025" lon="0.4555692"><ele>0.0</ele><time>2026-04-29T18:46:02.027Z</time></trkpt><trkpt lat="38.6875784" lon="0.4556293"><ele>0.0</ele><time>2026-04-29T18:46:03.027Z</time></trkpt><trkpt lat="38.6876522" lon="0.4556908"><ele>0.0</ele><time>2026-04-29T18:46:04.027Z</time></trkpt><trkpt lat="38.6877255" lon="0.4557446"><ele>0.0</ele><time>2026-04-29T18:46:05.027Z</time></trkpt><trkpt lat="38.6878027" lon="0.4558013"><ele>0.0</ele><time>2026-04-29T18:46:06.028Z</time></trkpt><trkpt lat="38.6878812" lon="0.4558547"><ele>0.0</ele><time>2026-04-29T18:46:07.027Z</time></trkpt><trkpt lat="38.6879555" lon="0.4559057"><ele>0.0</ele><time>2026-04-29T18:46:08.028Z</time></trkpt><trkpt lat="38.6880317" lon="0.4559569"><ele>0.0</ele><time>2026-04-29T18:46:09.028Z</time></trkpt><trkpt lat="38.6881081" lon="0.4560066"><ele>0.0</ele><time>2026-04-29T18:46:10.028Z</time></trkpt><trkpt lat="38.688185" lon="0.4560581"><ele>0.0</ele><time>2026-04-29T18:46:11.028Z</time></trkpt><trkpt lat="38.6882572" lon="0.4561102"><ele>0.0</ele><time>2026-04-29T18:46:12.027Z</time></trkpt><trkpt lat="38.6883275" lon="0.4561639"><ele>0.0</ele><time>2026-04-29T18:46:13.028Z</time></trkpt><trkpt lat="38.6884032" lon="0.4562157"><ele>0.0</ele><time>2026-04-29T18:46:14.027Z</time></trkpt><trkpt lat="38.6884782" lon="0.4562641"><ele>0.0</ele><time>2026-04-29T18:46:15.027Z</time></trkpt><trkpt lat="38.6885534" lon="0.456319"><ele>0.0</ele><time>2026-04-29T18:46:16.027Z</time></trkpt><trkpt lat="38.688699" lon="0.456434"><ele>0.0</ele><time>2026-04-29T18:46:18.027Z</time></trkpt><trkpt lat="38.6887675" lon="0.4565136"><ele>0.0</ele><time>2026-04-29T18:46:19.027Z</time></trkpt><trkpt lat="38.6888373" lon="0.4565724"><ele>0.0</ele><time>2026-04-29T18:46:20.028Z</time></trkpt><trkpt lat="38.6889184" lon="0.4566213"><ele>0.0</ele><time>2026-04-29T18:46:21.027Z</time></trkpt><trkpt lat="38.6889918" lon="0.4566773"><ele>0.0</ele><time>2026-04-29T18:46:22.028Z</time></trkpt><trkpt lat="38.6890694" lon="0.4567318"><ele>0.0</ele><time>2026-04-29T18:46:23.028Z</time></trkpt><trkpt lat="38.689148" lon="0.4567842"><ele>0.0</ele><time>2026-04-29T18:46:24.027Z</time></trkpt><trkpt lat="38.6892218" lon="0.4568317"><ele>0.0</ele><time>2026-04-29T18:46:25.027Z</time></trkpt><trkpt lat="38.6892951" lon="0.4568855"><ele>0.0</ele><time>2026-04-29T18:46:26.028Z</time></trkpt><trkpt lat="38.6893726" lon="0.4569372"><ele>0.0</ele><time>2026-04-29T18:46:27.028Z</time></trkpt><trkpt lat="38.6894454" lon="0.4570143"><ele>0.0</ele><time>2026-04-29T18:46:28.027Z</time></trkpt><trkpt lat="38.689523" lon="0.4570729"><ele>0.0</ele><time>2026-04-29T18:46:29.027Z</time></trkpt><trkpt lat="38.6895957" lon="0.4571314"><ele>0.0</ele><time>2026-04-29T18:46:30.027Z</time></trkpt><trkpt lat="38.6896672" lon="0.4571866"><ele>0.0</ele><time>2026-04-29T18:46:31.027Z</time></trkpt><trkpt lat="38.6897418" lon="0.4572389"><ele>0.0</ele><time>2026-04-29T18:46:32.027Z</time></trkpt><trkpt lat="38.6898182" lon="0.4572989"><ele>0.0</ele><time>2026-04-29T18:46:33.028Z</time></trkpt><trkpt lat="38.6898921" lon="0.4573578"><ele>0.0</ele><time>2026-04-29T18:46:34.027Z</time></trkpt><trkpt lat="38.6899683" lon="0.4574173"><ele>0.0</ele><time>2026-04-29T18:46:35.028Z</time></trkpt><trkpt lat="38.6900463" lon="0.4574744"><ele>0.0</ele><time>2026-04-29T18:46:36.027Z</time></trkpt><trkpt lat="38.6901202" lon="0.4575441"><ele>0.0</ele><time>2026-04-29T18:46:37.027Z</time></trkpt><trkpt lat="38.6902544" lon="0.4576834"><ele>0.0</ele><time>2026-04-29T18:46:39.027Z</time></trkpt><trkpt lat="38.6903201" lon="0.457754"><ele>0.0</ele><time>2026-04-29T18:46:40.028Z</time></trkpt><trkpt lat="38.6903934" lon="0.4578129"><ele>0.0</ele><time>2026-04-29T18:46:41.027Z</time></trkpt><trkpt lat="38.6904655" lon="0.4578697"><ele>0.0</ele><time>2026-04-29T18:46:42.027Z</time></trkpt><trkpt lat="38.6905416" lon="0.4579262"><ele>0.0</ele><time>2026-04-29T18:46:43.028Z</time></trkpt><trkpt lat="38.6906152" lon="0.4579813"><ele>0.0</ele><time>2026-04-29T18:46:44.027Z</time></trkpt><trkpt lat="38.6906904" lon="0.4580366"><ele>0.0</ele><time>2026-04-29T18:46:45.028Z</time></trkpt><trkpt lat="38.6907709" lon="0.4580975"><ele>0.0</ele><time>2026-04-29T18:46:46.028Z</time></trkpt><trkpt lat="38.690851" lon="0.458159"><ele>0.0</ele><time>2026-04-29T18:46:47.027Z</time></trkpt><trkpt lat="38.6909294" lon="0.4582164"><ele>0.0</ele><time>2026-04-29T18:46:48.027Z</time></trkpt><trkpt lat="38.6910034" lon="0.4582699"><ele>0.0</ele><time>2026-04-29T18:46:49.027Z</time></trkpt><trkpt lat="38.691081" lon="0.4583229"><ele>0.0</ele><time>2026-04-29T18:46:50.027Z</time></trkpt><trkpt lat="38.6911509" lon="0.4583709"><ele>0.0</ele><time>2026-04-29T18:46:51.027Z</time></trkpt><trkpt lat="38.6912265" lon="0.4584094"><ele>0.0</ele><time>2026-04-29T18:46:52.028Z</time></trkpt><trkpt lat="38.6913002" lon="0.4584593"><ele>0.0</ele><time>2026-04-29T18:46:53.027Z</time></trkpt><trkpt lat="38.6913737" lon="0.4585133"><ele>0.0</ele><time>2026-04-29T18:46:54.028Z</time></trkpt><trkpt lat="38.6914541" lon="0.4585787"><ele>0.0</ele><time>2026-04-29T18:46:55.027Z</time></trkpt><trkpt lat="38.6915268" lon="0.4586381"><ele>0.0</ele><time>2026-04-29T18:46:56.028Z</time></trkpt><trkpt lat="38.6916014" lon="0.4586977"><ele>0.0</ele><time>2026-04-29T18:46:57.027Z</time></trkpt><trkpt lat="38.6916751" lon="0.4587599"><ele>0.0</ele><time>2026-04-29T18:46:58.027Z</time></trkpt><trkpt lat="38.6918202" lon="0.4588733"><ele>0.0</ele><time>2026-04-29T18:47:00.027Z</time></trkpt><trkpt lat="38.6918952" lon="0.4589226"><ele>0.0</ele><time>2026-04-29T18:47:01.028Z</time></trkpt><trkpt lat="38.6919716" lon="0.4589752"><ele>0.0</ele><time>2026-04-29T18:47:02.027Z</time></trkpt><trkpt lat="38.6920467" lon="0.4590283"><ele>0.0</ele><time>2026-04-29T18:47:03.027Z</time></trkpt><trkpt lat="38.6921203" lon="0.4590788"><ele>0.0</ele><time>2026-04-29T18:47:04.028Z</time></trkpt><trkpt lat="38.692195" lon="0.4591335"><ele>0.0</ele><time>2026-04-29T18:47:05.028Z</time></trkpt><trkpt lat="38.6922673" lon="0.4591902"><ele>0.0</ele><time>2026-04-29T18:47:06.027Z</time></trkpt><trkpt lat="38.6923404" lon="0.4592427"><ele>0.0</ele><time>2026-04-29T18:47:07.027Z</time></trkpt><trkpt lat="38.6924179" lon="0.4592994"><ele>0.0</ele><time>2026-04-29T18:47:08.028Z</time></trkpt><trkpt lat="38.692496" lon="0.4593594"><ele>0.0</ele><time>2026-04-29T18:47:09.027Z</time></trkpt><trkpt lat="38.6925788" lon="0.459413"><ele>0.0</ele><time>2026-04-29T18:47:10.027Z</time></trkpt><trkpt lat="38.6926522" lon="0.4594625"><ele>0.0</ele><time>2026-04-29T18:47:11.027Z</time></trkpt><trkpt lat="38.6927285" lon="0.4595122"><ele>0.0</ele><time>2026-04-29T18:47:12.028Z</time></trkpt><trkpt lat="38.6928051" lon="0.4595664"><ele>0.0</ele><time>2026-04-29T18:47:13.027Z</time></trkpt><trkpt lat="38.6928802" lon="0.4596198"><ele>0.0</ele><time>2026-04-29T18:47:14.028Z</time></trkpt><trkpt lat="38.6929539" lon="0.4596686"><ele>0.0</ele><time>2026-04-29T18:47:15.027Z</time></trkpt><trkpt lat="38.6930271" lon="0.4597172"><ele>0.0</ele><time>2026-04-29T18:47:16.028Z</time></trkpt><trkpt lat="38.6931017" lon="0.4597694"><ele>0.0</ele><time>2026-04-29T18:47:17.027Z</time></trkpt><trkpt lat="38.6931752" lon="0.4598218"><ele>0.0</ele><time>2026-04-29T18:47:18.027Z</time></trkpt><trkpt lat="38.6932443" lon="0.4598634"><ele>0.0</ele><time>2026-04-29T18:47:19.028Z</time></trkpt><trkpt lat="38.6933955" lon="0.4599598"><ele>0.0</ele><time>2026-04-29T18:47:21.028Z</time></trkpt><trkpt lat="38.693476" lon="0.46001"><ele>0.0</ele><time>2026-04-29T18:47:22.028Z</time></trkpt><trkpt lat="38.6935533" lon="0.4600601"><ele>0.0</ele><time>2026-04-29T18:47:23.027Z</time></trkpt><trkpt lat="38.6936342" lon="0.460116"><ele>0.0</ele><time>2026-04-29T18:47:24.027Z</time></trkpt><trkpt lat="38.6937119" lon="0.4601668"><ele>0.0</ele><time>2026-04-29T18:47:25.027Z</time></trkpt><trkpt lat="38.6937823" lon="0.4602187"><ele>0.0</ele><time>2026-04-29T18:47:26.027Z</time></trkpt><trkpt lat="38.6938608" lon="0.460282"><ele>0.0</ele><time>2026-04-29T18:47:27.028Z</time></trkpt><trkpt lat="38.6939325" lon="0.460337"><ele>0.0</ele><time>2026-04-29T18:47:28.027Z</time></trkpt><trkpt lat="38.6940024" lon="0.4603857"><ele>0.0</ele><time>2026-04-29T18:47:29.027Z</time></trkpt><trkpt lat="38.6940758" lon="0.4604384"><ele>0.0</ele><time>2026-04-29T18:47:30.028Z</time></trkpt><trkpt lat="38.6941532" lon="0.460489"><ele>0.0</ele><time>2026-04-29T18:47:31.027Z</time></trkpt><trkpt lat="38.694228" lon="0.4605432"><ele>0.0</ele><time>2026-04-29T18:47:32.027Z</time></trkpt><trkpt lat="38.6943032" lon="0.460598"><ele>0.0</ele><time>2026-04-29T18:47:33.028Z</time></trkpt><trkpt lat="38.6943856" lon="0.4606532"><ele>0.0</ele><time>2026-04-29T18:47:34.027Z</time></trkpt><trkpt lat="38.6944613" lon="0.4607082"><ele>0.0</ele><time>2026-04-29T18:47:35.028Z</time></trkpt><trkpt lat="38.6945309" lon="0.4607651"><ele>0.0</ele><time>2026-04-29T18:47:36.027Z</time></trkpt><trkpt lat="38.6946049" lon="0.4608259"><ele>0.0</ele><time>2026-04-29T18:47:37.028Z</time></trkpt><trkpt lat="38.694676" lon="0.4608885"><ele>0.0</ele><time>2026-04-29T18:47:38.028Z</time></trkpt><trkpt lat="38.6947512" lon="0.4609564"><ele>0.0</ele><time>2026-04-29T18:47:39.028Z</time></trkpt><trkpt lat="38.6948206" lon="0.4610216"><ele>0.0</ele><time>2026-04-29T18:47:40.027Z</time></trkpt><trkpt lat="38.6949598" lon="0.4611629"><ele>0.0</ele><time>2026-04-29T18:47:42.027Z</time></trkpt><trkpt lat="38.6950393" lon="0.4612244"><ele>0.0</ele><time>2026-04-29T18:47:43.027Z</time></trkpt><trkpt lat="38.6951164" lon="0.4612814"><ele>0.0</ele><time>2026-04-29T18:47:44.027Z</time></trkpt><trkpt lat="38.6951905" lon="0.4613309"><ele>0.0</ele><time>2026-04-29T18:47:45.027Z</time></trkpt><trkpt lat="38.6952653" lon="0.4613826"><ele>0.0</ele><time>2026-04-29T18:47:46.027Z</time></trkpt><trkpt lat="38.6953431" lon="0.4614396"><ele>0.0</ele><time>2026-04-29T18:47:47.028Z</time></trkpt><trkpt lat="38.6954185" lon="0.4614994"><ele>0.0</ele><time>2026-04-29T18:47:48.028Z</time></trkpt><trkpt lat="38.6954964" lon="0.4615605"><ele>0.0</ele><time>2026-04-29T18:47:49.027Z</time></trkpt><trkpt lat="38.695566" lon="0.4616307"><ele>0.0</ele><time>2026-04-29T18:47:50.027Z</time></trkpt><trkpt lat="38.6956371" lon="0.4616881"><ele>0.0</ele><time>2026-04-29T18:47:51.027Z</time></trkpt><trkpt lat="38.6957131" lon="0.4617436"><ele>0.0</ele><time>2026-04-29T18:47:52.027Z</time></trkpt><trkpt lat="38.6957915" lon="0.4618029"><ele>0.0</ele><time>2026-04-29T18:47:53.027Z</time></trkpt><trkpt lat="38.6958681" lon="0.4618595"><ele>0.0</ele><time>2026-04-29T18:47:54.027Z</time></trkpt><trkpt lat="38.6959418" lon="0.4619167"><ele>0.0</ele><time>2026-04-29T18:47:55.027Z</time></trkpt><trkpt lat="38.696018" lon="0.4619763"><ele>0.0</ele><time>2026-04-29T18:47:56.027Z</time></trkpt><trkpt lat="38.6960976" lon="0.462048"><ele>0.0</ele><time>2026-04-29T18:47:57.028Z</time></trkpt><trkpt lat="38.6961691" lon="0.4621053"><ele>0.0</ele><time>2026-04-29T18:47:58.027Z</time></trkpt><trkpt lat="38.6962445" lon="0.4621707"><ele>0.0</ele><time>2026-04-29T18:47:59.028Z</time></trkpt><trkpt lat="38.6963197" lon="0.4622331"><ele>0.0</ele><time>2026-04-29T18:48:00.027Z</time></trkpt><trkpt lat="38.6963947" lon="0.4622927"><ele>0.0</ele><time>2026-04-29T18:48:01.027Z</time></trkpt><trkpt lat="38.6965495" lon="0.4624095"><ele>0.0</ele><time>2026-04-29T18:48:03.028Z</time></trkpt><trkpt lat="38.6966267" lon="0.4624664"><ele>0.0</ele><time>2026-04-29T18:48:04.028Z</time></trkpt><trkpt lat="38.6966989" lon="0.4625203"><ele>0.0</ele><time>2026-04-29T18:48:05.028Z</time></trkpt><trkpt lat="38.6967732" lon="0.462575"><ele>0.0</ele><time>2026-04-29T18:48:06.027Z</time></trkpt><trkpt lat="38.6968483" lon="0.4626266"><ele>0.0</ele><time>2026-04-29T18:48:07.027Z</time></trkpt><trkpt lat="38.6969207" lon="0.4626787"><ele>0.0</ele><time>2026-04-29T18:48:08.028Z</time></trkpt><trkpt lat="38.6969939" lon="0.4627322"><ele>0.0</ele><time>2026-04-29T18:48:09.028Z</time></trkpt><trkpt lat="38.6970656" lon="0.462784"><ele>0.0</ele><time>2026-04-29T18:48:10.028Z</time></trkpt><trkpt lat="38.6971402" lon="0.4628365"><ele>0.0</ele><time>2026-04-29T18:48:11.028Z</time></trkpt><trkpt lat="38.6972197" lon="0.4628727"><ele>0.0</ele><time>2026-04-29T18:48:12.028Z</time></trkpt><trkpt lat="38.6972866" lon="0.4629122"><ele>0.0</ele><time>2026-04-29T18:48:13.027Z</time></trkpt><trkpt lat="38.6973573" lon="0.4629453"><ele>0.0</ele><time>2026-04-29T18:48:14.027Z</time></trkpt><trkpt lat="38.6974287" lon="0.4629971"><ele>0.0</ele><time>2026-04-29T18:48:15.027Z</time></trkpt><trkpt lat="38.6975105" lon="0.4630233"><ele>0.0</ele><time>2026-04-29T18:48:16.028Z</time></trkpt><trkpt lat="38.6975937" lon="0.4630716"><ele>0.0</ele><time>2026-04-29T18:48:17.027Z</time></trkpt><trkpt lat="38.6976769" lon="0.4631304"><ele>0.0</ele><time>2026-04-29T18:48:18.027Z</time></trkpt><trkpt lat="38.6977588" lon="0.463195"><ele>0.0</ele><time>2026-04-29T18:48:19.028Z</time></trkpt><trkpt lat="38.6978378" lon="0.4632615"><ele>0.0</ele><time>2026-04-29T18:48:20.027Z</time></trkpt><trkpt lat="38.6979105" lon="0.4633179"><ele>0.0</ele><time>2026-04-29T18:48:21.028Z</time></trkpt><trkpt lat="38.6979832" lon="0.4633793"><ele>0.0</ele><time>2026-04-29T18:48:22.028Z</time></trkpt><trkpt lat="38.6980577" lon="0.4634425"><ele>0.0</ele><time>2026-04-29T18:48:23.027Z</time></trkpt><trkpt lat="38.698206" lon="0.463562"><ele>0.0</ele><time>2026-04-29T18:48:25.027Z</time></trkpt><trkpt lat="38.6982857" lon="0.4636252"><ele>0.0</ele><time>2026-04-29T18:48:26.028Z</time></trkpt><trkpt lat="38.6983575" lon="0.4636943"><ele>0.0</ele><time>2026-04-29T18:48:27.028Z</time></trkpt><trkpt lat="38.6984331" lon="0.4637576"><ele>0.0</ele><time>2026-04-29T18:48:28.028Z</time></trkpt><trkpt lat="38.6985034" lon="0.4638187"><ele>0.0</ele><time>2026-04-29T18:48:29.027Z</time></trkpt><trkpt lat="38.6985751" lon="0.4638644"><ele>0.0</ele><time>2026-04-29T18:48:30.028Z</time></trkpt><trkpt lat="38.6986495" lon="0.4639195"><ele>0.0</ele><time>2026-04-29T18:48:31.028Z</time></trkpt><trkpt lat="38.6987218" lon="0.4639741"><ele>0.0</ele><time>2026-04-29T18:48:32.027Z</time></trkpt><trkpt lat="38.6987908" lon="0.464029"><ele>0.0</ele><time>2026-04-29T18:48:33.027Z</time></trkpt><trkpt lat="38.6988637" lon="0.4640867"><ele>0.0</ele><time>2026-04-29T18:48:34.028Z</time></trkpt><trkpt lat="38.6989412" lon="0.4641431"><ele>0.0</ele><time>2026-04-29T18:48:35.028Z</time></trkpt><trkpt lat="38.6990071" lon="0.4641882"><ele>0.0</ele><time>2026-04-29T18:48:36.027Z</time></trkpt><trkpt lat="38.6990786" lon="0.4642467"><ele>0.0</ele><time>2026-04-29T18:48:37.028Z</time></trkpt><trkpt lat="38.6991535" lon="0.4643032"><ele>0.0</ele><time>2026-04-29T18:48:38.028Z</time></trkpt><trkpt lat="38.6992272" lon="0.4643579"><ele>0.0</ele><time>2026-04-29T18:48:39.027Z</time></trkpt><trkpt lat="38.6992904" lon="0.4644334"><ele>0.0</ele><time>2026-04-29T18:48:40.027Z</time></trkpt><trkpt lat="38.6993647" lon="0.4645001"><ele>0.0</ele><time>2026-04-29T18:48:41.027Z</time></trkpt><trkpt lat="38.6994382" lon="0.4645622"><ele>0.0</ele><time>2026-04-29T18:48:42.027Z</time></trkpt><trkpt lat="38.6995229" lon="0.464617"><ele>0.0</ele><time>2026-04-29T18:48:43.028Z</time></trkpt><trkpt lat="38.6995982" lon="0.4646693"><ele>0.0</ele><time>2026-04-29T18:48:44.027Z</time></trkpt><trkpt lat="38.699744" lon="0.4647691"><ele>0.0</ele><time>2026-04-29T18:48:46.027Z</time></trkpt><trkpt lat="38.6998183" lon="0.4648203"><ele>0.0</ele><time>2026-04-29T18:48:47.026Z</time></trkpt><trkpt lat="38.6998986" lon="0.4648762"><ele>0.0</ele><time>2026-04-29T18:48:48.026Z</time></trkpt><trkpt lat="38.6999752" lon="0.4649285"><ele>0.0</ele><time>2026-04-29T18:48:49.026Z</time></trkpt><trkpt lat="38.700043" lon="0.4649735"><ele>0.0</ele><time>2026-04-29T18:48:50.026Z</time></trkpt><trkpt lat="38.7001196" lon="0.4650235"><ele>0.0</ele><time>2026-04-29T18:48:51.026Z</time></trkpt><trkpt lat="38.7001955" lon="0.4650704"><ele>0.0</ele><time>2026-04-29T18:48:52.027Z</time></trkpt><trkpt lat="38.7002615" lon="0.4651132"><ele>0.0</ele><time>2026-04-29T18:48:53.026Z</time></trkpt><trkpt lat="38.7003378" lon="0.4651619"><ele>0.0</ele><time>2026-04-29T18:48:54.026Z</time></trkpt><trkpt lat="38.700415" lon="0.4652118"><ele>0.0</ele><time>2026-04-29T18:48:55.027Z</time></trkpt><trkpt lat="38.7004929" lon="0.4652644"><ele>0.0</ele><time>2026-04-29T18:48:56.026Z</time></trkpt><trkpt lat="38.7005739" lon="0.4653211"><ele>0.0</ele><time>2026-04-29T18:48:57.026Z</time></trkpt><trkpt lat="38.7006499" lon="0.4653749"><ele>0.0</ele><time>2026-04-29T18:48:58.026Z</time></trkpt><trkpt lat="38.7007251" lon="0.4654235"><ele>0.0</ele><time>2026-04-29T18:48:59.027Z</time></trkpt><trkpt lat="38.7008043" lon="0.4654767"><ele>0.0</ele><time>2026-04-29T18:49:00.026Z</time></trkpt><trkpt lat="38.7008862" lon="0.4655298"><ele>0.0</ele><time>2026-04-29T18:49:01.026Z</time></trkpt><trkpt lat="38.700969" lon="0.4655758"><ele>0.0</ele><time>2026-04-29T18:49:02.026Z</time></trkpt><trkpt lat="38.7010507" lon="0.4656212"><ele>0.0</ele><time>2026-04-29T18:49:03.027Z</time></trkpt><trkpt lat="38.701128" lon="0.4656651"><ele>0.0</ele><time>2026-04-29T18:49:04.026Z</time></trkpt><trkpt lat="38.7011977" lon="0.4657096"><ele>0.0</ele><time>2026-04-29T18:49:05.027Z</time></trkpt><trkpt lat="38.7013439" lon="0.4658135"><ele>0.0</ele><time>2026-04-29T18:49:07.026Z</time></trkpt><trkpt lat="38.7014139" lon="0.4658682"><ele>0.0</ele><time>2026-04-29T18:49:08.026Z</time></trkpt><trkpt lat="38.701484" lon="0.4659187"><ele>0.0</ele><time>2026-04-29T18:49:09.026Z</time></trkpt><trkpt lat="38.7015539" lon="0.4659916"><ele>0.0</ele><time>2026-04-29T18:49:10.027Z</time></trkpt><trkpt lat="38.7016253" lon="0.4660493"><ele>0.0</ele><time>2026-04-29T18:49:11.027Z</time></trkpt><trkpt lat="38.7016982" lon="0.4661022"><ele>0.0</ele><time>2026-04-29T18:49:12.026Z</time></trkpt><trkpt lat="38.7017717" lon="0.4661567"><ele>0.0</ele><time>2026-04-29T18:49:13.027Z</time></trkpt><trkpt lat="38.7018522" lon="0.4662089"><ele>0.0</ele><time>2026-04-29T18:49:14.026Z</time></trkpt><trkpt lat="38.7019268" lon="0.4662621"><ele>0.0</ele><time>2026-04-29T18:49:15.026Z</time></trkpt><trkpt lat="38.7019989" lon="0.4663151"><ele>0.0</ele><time>2026-04-29T18:49:16.027Z</time></trkpt><trkpt lat="38.7020703" lon="0.4663671"><ele>0.0</ele><time>2026-04-29T18:49:17.026Z</time></trkpt><trkpt lat="38.7021447" lon="0.4664184"><ele>0.0</ele><time>2026-04-29T18:49:18.026Z</time></trkpt><trkpt lat="38.7022256" lon="0.4664787"><ele>0.0</ele><time>2026-04-29T18:49:19.027Z</time></trkpt><trkpt lat="38.7023032" lon="0.4665299"><ele>0.0</ele><time>2026-04-29T18:49:20.026Z</time></trkpt><trkpt lat="38.7023752" lon="0.4665834"><ele>0.0</ele><time>2026-04-29T18:49:21.027Z</time></trkpt><trkpt lat="38.7024471" lon="0.4666369"><ele>0.0</ele><time>2026-04-29T18:49:22.026Z</time></trkpt><trkpt lat="38.7025201" lon="0.4666917"><ele>0.0</ele><time>2026-04-29T18:49:23.027Z</time></trkpt><trkpt lat="38.7025961" lon="0.4667524"><ele>0.0</ele><time>2026-04-29T18:49:24.026Z</time></trkpt><trkpt lat="38.7026717" lon="0.4668097"><ele>0.0</ele><time>2026-04-29T18:49:25.026Z</time></trkpt><trkpt lat="38.7027457" lon="0.4668601"><ele>0.0</ele><time>2026-04-29T18:49:26.027Z</time></trkpt><trkpt lat="38.7028201" lon="0.4669119"><ele>0.0</ele><time>2026-04-29T18:49:27.026Z</time></trkpt><trkpt lat="38.7029652" lon="0.4670162"><ele>0.0</ele><time>2026-04-29T18:49:29.026Z</time></trkpt><trkpt lat="38.7030399" lon="0.467068"><ele>0.0</ele><time>2026-04-29T18:49:30.026Z</time></trkpt><trkpt lat="38.7031135" lon="0.4671199"><ele>0.0</ele><time>2026-04-29T18:49:31.026Z</time></trkpt><trkpt lat="38.703187" lon="0.4671701"><ele>0.0</ele><time>2026-04-29T18:49:32.026Z</time></trkpt><trkpt lat="38.7032631" lon="0.4672244"><ele>0.0</ele><time>2026-04-29T18:49:33.027Z</time></trkpt><trkpt lat="38.7033398" lon="0.467286"><ele>0.0</ele><time>2026-04-29T18:49:34.026Z</time></trkpt><trkpt lat="38.7034133" lon="0.4673432"><ele>0.0</ele><time>2026-04-29T18:49:35.026Z</time></trkpt><trkpt lat="38.7034867" lon="0.4673954"><ele>0.0</ele><time>2026-04-29T18:49:36.027Z</time></trkpt><trkpt lat="38.7035614" lon="0.4674499"><ele>0.0</ele><time>2026-04-29T18:49:37.027Z</time></trkpt><trkpt lat="38.7036392" lon="0.4675179"><ele>0.0</ele><time>2026-04-29T18:49:38.026Z</time></trkpt><trkpt lat="38.7037244" lon="0.4675878"><ele>0.0</ele><time>2026-04-29T18:49:39.027Z</time></trkpt><trkpt lat="38.7038095" lon="0.4676382"><ele>0.0</ele><time>2026-04-29T18:49:40.026Z</time></trkpt><trkpt lat="38.7038901" lon="0.4676969"><ele>0.0</ele><time>2026-04-29T18:49:41.026Z</time></trkpt><trkpt lat="38.703963" lon="0.4677678"><ele>0.0</ele><time>2026-04-29T18:49:42.026Z</time></trkpt><trkpt lat="38.7040348" lon="0.4678376"><ele>0.0</ele><time>2026-04-29T18:49:43.026Z</time></trkpt><trkpt lat="38.7040982" lon="0.467895"><ele>0.0</ele><time>2026-04-29T18:49:44.026Z</time></trkpt><trkpt lat="38.70417" lon="0.4679476"><ele>0.0</ele><time>2026-04-29T18:49:45.026Z</time></trkpt><trkpt lat="38.7042518" lon="0.4680137"><ele>0.0</ele><time>2026-04-29T18:49:46.027Z</time></trkpt><trkpt lat="38.7043294" lon="0.4680694"><ele>0.0</ele><time>2026-04-29T18:49:47.027Z</time></trkpt><trkpt lat="38.7044073" lon="0.4681313"><ele>0.0</ele><time>2026-04-29T18:49:48.026Z</time></trkpt><trkpt lat="38.7045589" lon="0.4682408"><ele>0.0</ele><time>2026-04-29T18:49:50.026Z</time></trkpt><trkpt lat="38.7046332" lon="0.4682958"><ele>0.0</ele><time>2026-04-29T18:49:51.027Z</time></trkpt><trkpt lat="38.7047118" lon="0.4683542"><ele>0.0</ele><time>2026-04-29T18:49:52.027Z</time></trkpt><trkpt lat="38.7047893" lon="0.4684165"><ele>0.0</ele><time>2026-04-29T18:49:53.026Z</time></trkpt><trkpt lat="38.7048606" lon="0.4684741"><ele>0.0</ele><time>2026-04-29T18:49:54.026Z</time></trkpt><trkpt lat="38.7049263" lon="0.4685265"><ele>0.0</ele><time>2026-04-29T18:49:55.027Z</time></trkpt><trkpt lat="38.7049986" lon="0.4685791"><ele>0.0</ele><time>2026-04-29T18:49:56.027Z</time></trkpt><trkpt lat="38.705072" lon="0.4686322"><ele>0.0</ele><time>2026-04-29T18:49:57.027Z</time></trkpt><trkpt lat="38.7051491" lon="0.4686885"><ele>0.0</ele><time>2026-04-29T18:49:58.026Z</time></trkpt><trkpt lat="38.705222" lon="0.4687452"><ele>0.0</ele><time>2026-04-29T18:49:59.027Z</time></trkpt><trkpt lat="38.7052991" lon="0.4688153"><ele>0.0</ele><time>2026-04-29T18:50:00.026Z</time></trkpt><trkpt lat="38.7053719" lon="0.4688752"><ele>0.0</ele><time>2026-04-29T18:50:01.027Z</time></trkpt><trkpt lat="38.7054463" lon="0.4689263"><ele>0.0</ele><time>2026-04-29T18:50:02.027Z</time></trkpt><trkpt lat="38.7055255" lon="0.4689804"><ele>0.0</ele><time>2026-04-29T18:50:03.026Z</time></trkpt><trkpt lat="38.7055972" lon="0.4690431"><ele>0.0</ele><time>2026-04-29T18:50:04.026Z</time></trkpt><trkpt lat="38.7056673" lon="0.4691024"><ele>0.0</ele><time>2026-04-29T18:50:05.026Z</time></trkpt><trkpt lat="38.7057371" lon="0.469154"><ele>0.0</ele><time>2026-04-29T18:50:06.026Z</time></trkpt><trkpt lat="38.7058073" lon="0.4692122"><ele>0.0</ele><time>2026-04-29T18:50:07.027Z</time></trkpt><trkpt lat="38.7058815" lon="0.4692673"><ele>0.0</ele><time>2026-04-29T18:50:08.026Z</time></trkpt><trkpt lat="38.7059577" lon="0.4693181"><ele>0.0</ele><time>2026-04-29T18:50:09.026Z</time></trkpt><trkpt lat="38.706108" lon="0.4694402"><ele>0.0</ele><time>2026-04-29T18:50:11.026Z</time></trkpt><trkpt lat="38.7061848" lon="0.4694994"><ele>0.0</ele><time>2026-04-29T18:50:12.027Z</time></trkpt><trkpt lat="38.70626" lon="0.4695592"><ele>0.0</ele><time>2026-04-29T18:50:13.026Z</time></trkpt><trkpt lat="38.7063322" lon="0.469617"><ele>0.0</ele><time>2026-04-29T18:50:14.026Z</time></trkpt><trkpt lat="38.7064025" lon="0.4696767"><ele>0.0</ele><time>2026-04-29T18:50:15.027Z</time></trkpt><trkpt lat="38.7064725" lon="0.4697324"><ele>0.0</ele><time>2026-04-29T18:50:16.026Z</time></trkpt><trkpt lat="38.7065428" lon="0.4697825"><ele>0.0</ele><time>2026-04-29T18:50:17.026Z</time></trkpt><trkpt lat="38.7066137" lon="0.4698355"><ele>0.0</ele><time>2026-04-29T18:50:18.026Z</time></trkpt><trkpt lat="38.7066852" lon="0.4698833"><ele>0.0</ele><time>2026-04-29T18:50:19.026Z</time></trkpt><trkpt lat="38.7067567" lon="0.4699383"><ele>0.0</ele><time>2026-04-29T18:50:20.026Z</time></trkpt><trkpt lat="38.7068282" lon="0.4699964"><ele>0.0</ele><time>2026-04-29T18:50:21.026Z</time></trkpt><trkpt lat="38.7069014" lon="0.4700548"><ele>0.0</ele><time>2026-04-29T18:50:22.026Z</time></trkpt><trkpt lat="38.7069806" lon="0.4701186"><ele>0.0</ele><time>2026-04-29T18:50:23.027Z</time></trkpt><trkpt lat="38.707058" lon="0.470175"><ele>0.0</ele><time>2026-04-29T18:50:24.027Z</time></trkpt><trkpt lat="38.707132" lon="0.4702256"><ele>0.0</ele><time>2026-04-29T18:50:25.026Z</time></trkpt><trkpt lat="38.7072067" lon="0.4702809"><ele>0.0</ele><time>2026-04-29T18:50:26.027Z</time></trkpt><trkpt lat="38.7072815" lon="0.4703404"><ele>0.0</ele><time>2026-04-29T18:50:27.027Z</time></trkpt><trkpt lat="38.7073565" lon="0.4703992"><ele>0.0</ele><time>2026-04-29T18:50:28.026Z</time></trkpt><trkpt lat="38.7074316" lon="0.4704546"><ele>0.0</ele><time>2026-04-29T18:50:29.026Z</time></trkpt><trkpt lat="38.7075137" lon="0.470517"><ele>0.0</ele><time>2026-04-29T18:50:30.026Z</time></trkpt><trkpt lat="38.7076727" lon="0.4706344"><ele>0.0</ele><time>2026-04-29T18:50:32.027Z</time></trkpt><trkpt lat="38.7077525" lon="0.4706939"><ele>0.0</ele><time>2026-04-29T18:50:33.026Z</time></trkpt><trkpt lat="38.7078271" lon="0.4707308"><ele>0.0</ele><time>2026-04-29T18:50:34.026Z</time></trkpt><trkpt lat="38.7079019" lon="0.4707846"><ele>0.0</ele><time>2026-04-29T18:50:35.026Z</time></trkpt><trkpt lat="38.707974" lon="0.4708398"><ele>0.0</ele><time>2026-04-29T18:50:36.027Z</time></trkpt><trkpt lat="38.7080482" lon="0.4709087"><ele>0.0</ele><time>2026-04-29T18:50:37.026Z</time></trkpt><trkpt lat="38.7081223" lon="0.470968"><ele>0.0</ele><time>2026-04-29T18:50:38.027Z</time></trkpt><trkpt lat="38.708197" lon="0.4710249"><ele>0.0</ele><time>2026-04-29T18:50:39.027Z</time></trkpt><trkpt lat="38.7082661" lon="0.4710819"><ele>0.0</ele><time>2026-04-29T18:50:40.026Z</time></trkpt><trkpt lat="38.70834" lon="0.4711398"><ele>0.0</ele><time>2026-04-29T18:50:41.026Z</time></trkpt><trkpt lat="38.7084108" lon="0.4711979"><ele>0.0</ele><time>2026-04-29T18:50:42.027Z</time></trkpt><trkpt lat="38.7084765" lon="0.471261"><ele>0.0</ele><time>2026-04-29T18:50:43.026Z</time></trkpt><trkpt lat="38.7085488" lon="0.4713223"><ele>0.0</ele><time>2026-04-29T18:50:44.026Z</time></trkpt><trkpt lat="38.7086248" lon="0.471385"><ele>0.0</ele><time>2026-04-29T18:50:45.026Z</time></trkpt><trkpt lat="38.7086999" lon="0.4714397"><ele>0.0</ele><time>2026-04-29T18:50:46.027Z</time></trkpt><trkpt lat="38.7087779" lon="0.4714929"><ele>0.0</ele><time>2026-04-29T18:50:47.027Z</time></trkpt><trkpt lat="38.7088568" lon="0.4715419"><ele>0.0</ele><time>2026-04-29T18:50:48.027Z</time></trkpt><trkpt lat="38.7089276" lon="0.4715902"><ele>0.0</ele><time>2026-04-29T18:50:49.026Z</time></trkpt><trkpt lat="38.708993" lon="0.4716437"><ele>0.0</ele><time>2026-04-29T18:50:50.027Z</time></trkpt><trkpt lat="38.7090623" lon="0.4717003"><ele>0.0</ele><time>2026-04-29T18:50:51.026Z</time></trkpt><trkpt lat="38.7091348" lon="0.4717599"><ele>0.0</ele><time>2026-04-29T18:50:52.026Z</time></trkpt><trkpt lat="38.7092866" lon="0.4718727"><ele>0.0</ele><time>2026-04-29T18:50:54.026Z</time></trkpt><trkpt lat="38.7093659" lon="0.4719343"><ele>0.0</ele><time>2026-04-29T18:50:55.027Z</time></trkpt><trkpt lat="38.7094401" lon="0.4719931"><ele>0.0</ele><time>2026-04-29T18:50:56.026Z</time></trkpt><trkpt lat="38.7095166" lon="0.4720499"><ele>0.0</ele><time>2026-04-29T18:50:57.027Z</time></trkpt><trkpt lat="38.7095961" lon="0.4721063"><ele>0.0</ele><time>2026-04-29T18:50:58.027Z</time></trkpt><trkpt lat="38.7096713" lon="0.4721612"><ele>0.0</ele><time>2026-04-29T18:50:59.026Z</time></trkpt><trkpt lat="38.709748" lon="0.472215"><ele>0.0</ele><time>2026-04-29T18:51:00.026Z</time></trkpt><trkpt lat="38.7098219" lon="0.47227"><ele>0.0</ele><time>2026-04-29T18:51:01.026Z</time></trkpt><trkpt lat="38.7098978" lon="0.472334"><ele>0.0</ele><time>2026-04-29T18:51:02.027Z</time></trkpt><trkpt lat="38.7099745" lon="0.472389"><ele>0.0</ele><time>2026-04-29T18:51:03.027Z</time></trkpt><trkpt lat="38.7100526" lon="0.4724427"><ele>0.0</ele><time>2026-04-29T18:51:04.027Z</time></trkpt><trkpt lat="38.710131" lon="0.4725045"><ele>0.0</ele><time>2026-04-29T18:51:05.027Z</time></trkpt><trkpt lat="38.7102096" lon="0.4725648"><ele>0.0</ele><time>2026-04-29T18:51:06.027Z</time></trkpt><trkpt lat="38.7102878" lon="0.472618"><ele>0.0</ele><time>2026-04-29T18:51:07.027Z</time></trkpt><trkpt lat="38.7103632" lon="0.4726698"><ele>0.0</ele><time>2026-04-29T18:51:08.026Z</time></trkpt><trkpt lat="38.7104378" lon="0.4727317"><ele>0.0</ele><time>2026-04-29T18:51:09.027Z</time></trkpt><trkpt lat="38.71051" lon="0.4727917"><ele>0.0</ele><time>2026-04-29T18:51:10.027Z</time></trkpt><trkpt lat="38.7105857" lon="0.472856"><ele>0.0</ele><time>2026-04-29T18:51:11.026Z</time></trkpt><trkpt lat="38.7106599" lon="0.4729182"><ele>0.0</ele><time>2026-04-29T18:51:12.026Z</time></trkpt><trkpt lat="38.7107316" lon="0.4729785"><ele>0.0</ele><time>2026-04-29T18:51:13.027Z</time></trkpt><trkpt lat="38.7108768" lon="0.4730912"><ele>0.0</ele><time>2026-04-29T18:51:15.026Z</time></trkpt><trkpt lat="38.7109528" lon="0.4731397"><ele>0.0</ele><time>2026-04-29T18:51:16.026Z</time></trkpt><trkpt lat="38.7110267" lon="0.4731907"><ele>0.0</ele><time>2026-04-29T18:51:17.026Z</time></trkpt><trkpt lat="38.7110984" lon="0.4732466"><ele>0.0</ele><time>2026-04-29T18:51:18.027Z</time></trkpt><trkpt lat="38.7111703" lon="0.4732998"><ele>0.0</ele><time>2026-04-29T18:51:19.026Z</time></trkpt><trkpt lat="38.7112406" lon="0.4733503"><ele>0.0</ele><time>2026-04-29T18:51:20.027Z</time></trkpt><trkpt lat="38.7113121" lon="0.4734032"><ele>0.0</ele><time>2026-04-29T18:51:21.027Z</time></trkpt><trkpt lat="38.7113823" lon="0.4734565"><ele>0.0</ele><time>2026-04-29T18:51:22.026Z</time></trkpt><trkpt lat="38.711455" lon="0.4735054"><ele>0.0</ele><time>2026-04-29T18:51:23.026Z</time></trkpt><trkpt lat="38.7115328" lon="0.4735532"><ele>0.0</ele><time>2026-04-29T18:51:24.027Z</time></trkpt><trkpt lat="38.7116129" lon="0.4736034"><ele>0.0</ele><time>2026-04-29T18:51:25.026Z</time></trkpt><trkpt lat="38.7116902" lon="0.4736531"><ele>0.0</ele><time>2026-04-29T18:51:26.026Z</time></trkpt><trkpt lat="38.7117669" lon="0.4737017"><ele>0.0</ele><time>2026-04-29T18:51:27.027Z</time></trkpt><trkpt lat="38.7118462" lon="0.4737572"><ele>0.0</ele><time>2026-04-29T18:51:28.026Z</time></trkpt><trkpt lat="38.7119218" lon="0.4738095"><ele>0.0</ele><time>2026-04-29T18:51:29.026Z</time></trkpt><trkpt lat="38.7119995" lon="0.473858"><ele>0.0</ele><time>2026-04-29T18:51:30.027Z</time></trkpt><trkpt lat="38.712075" lon="0.4739104"><ele>0.0</ele><time>2026-04-29T18:51:31.026Z</time></trkpt><trkpt lat="38.7121544" lon="0.4739627"><ele>0.0</ele><time>2026-04-29T18:51:32.026Z</time></trkpt><trkpt lat="38.7122346" lon="0.4740096"><ele>0.0</ele><time>2026-04-29T18:51:33.026Z</time></trkpt><trkpt lat="38.7123163" lon="0.4740553"><ele>0.0</ele><time>2026-04-29T18:51:34.027Z</time></trkpt><trkpt lat="38.712395" lon="0.4741"><ele>0.0</ele><time>2026-04-29T18:51:35.026Z</time></trkpt><trkpt lat="38.7125465" lon="0.4741927"><ele>0.0</ele><time>2026-04-29T18:51:37.026Z</time></trkpt><trkpt lat="38.7126233" lon="0.4742412"><ele>0.0</ele><time>2026-04-29T18:51:38.026Z</time></trkpt><trkpt lat="38.7127013" lon="0.4742926"><ele>0.0</ele><time>2026-04-29T18:51:39.027Z</time></trkpt><trkpt lat="38.7127727" lon="0.474339"><ele>0.0</ele><time>2026-04-29T18:51:40.026Z</time></trkpt><trkpt lat="38.7128445" lon="0.4743844"><ele>0.0</ele><time>2026-04-29T18:51:41.026Z</time></trkpt><trkpt lat="38.7129147" lon="0.4744235"><ele>0.0</ele><time>2026-04-29T18:51:42.026Z</time></trkpt><trkpt lat="38.7129873" lon="0.4744713"><ele>0.0</ele><time>2026-04-29T18:51:43.027Z</time></trkpt><trkpt lat="38.7130592" lon="0.4745171"><ele>0.0</ele><time>2026-04-29T18:51:44.026Z</time></trkpt><trkpt lat="38.7131322" lon="0.4745646"><ele>0.0</ele><time>2026-04-29T18:51:45.027Z</time></trkpt><trkpt lat="38.7132066" lon="0.4746161"><ele>0.0</ele><time>2026-04-29T18:51:46.027Z</time></trkpt><trkpt lat="38.71328" lon="0.4746683"><ele>0.0</ele><time>2026-04-29T18:51:47.026Z</time></trkpt><trkpt lat="38.7133578" lon="0.4747281"><ele>0.0</ele><time>2026-04-29T18:51:48.026Z</time></trkpt><trkpt lat="38.7134345" lon="0.4747829"><ele>0.0</ele><time>2026-04-29T18:51:49.026Z</time></trkpt><trkpt lat="38.7135085" lon="0.4748376"><ele>0.0</ele><time>2026-04-29T18:51:50.027Z</time></trkpt><trkpt lat="38.7135805" lon="0.4748898"><ele>0.0</ele><time>2026-04-29T18:51:51.026Z</time></trkpt><trkpt lat="38.7136575" lon="0.4749472"><ele>0.0</ele><time>2026-04-29T18:51:52.027Z</time></trkpt><trkpt lat="38.7137329" lon="0.4750023"><ele>0.0</ele><time>2026-04-29T18:51:53.027Z</time></trkpt><trkpt lat="38.7138096" lon="0.4750574"><ele>0.0</ele><time>2026-04-29T18:51:54.027Z</time></trkpt><trkpt lat="38.7138827" lon="0.4751053"><ele>0.0</ele><time>2026-04-29T18:51:55.027Z</time></trkpt><trkpt lat="38.7139525" lon="0.4751503"><ele>0.0</ele><time>2026-04-29T18:51:56.027Z</time></trkpt><trkpt lat="38.7140957" lon="0.4752564"><ele>0.0</ele><time>2026-04-29T18:51:58.026Z</time></trkpt><trkpt lat="38.7141686" lon="0.47531"><ele>0.0</ele><time>2026-04-29T18:51:59.027Z</time></trkpt><trkpt lat="38.714242" lon="0.4753638"><ele>0.0</ele><time>2026-04-29T18:52:00.026Z</time></trkpt><trkpt lat="38.7143167" lon="0.4754161"><ele>0.0</ele><time>2026-04-29T18:52:01.026Z</time></trkpt><trkpt lat="38.7143918" lon="0.4754662"><ele>0.0</ele><time>2026-04-29T18:52:02.026Z</time></trkpt><trkpt lat="38.7144667" lon="0.4755158"><ele>0.0</ele><time>2026-04-29T18:52:03.026Z</time></trkpt><trkpt lat="38.7145444" lon="0.475564"><ele>0.0</ele><time>2026-04-29T18:52:04.026Z</time></trkpt><trkpt lat="38.7146244" lon="0.4756159"><ele>0.0</ele><time>2026-04-29T18:52:05.026Z</time></trkpt><trkpt lat="38.7147017" lon="0.4756649"><ele>0.0</ele><time>2026-04-29T18:52:06.027Z</time></trkpt><trkpt lat="38.7147785" lon="0.4757079"><ele>0.0</ele><time>2026-04-29T18:52:07.027Z</time></trkpt><trkpt lat="38.7148551" lon="0.4757553"><ele>0.0</ele><time>2026-04-29T18:52:08.026Z</time></trkpt><trkpt lat="38.7149303" lon="0.4758086"><ele>0.0</ele><time>2026-04-29T18:52:09.026Z</time></trkpt><trkpt lat="38.7150007" lon="0.4758601"><ele>0.0</ele><time>2026-04-29T18:52:10.027Z</time></trkpt><trkpt lat="38.7150737" lon="0.4759129"><ele>0.0</ele><time>2026-04-29T18:52:11.027Z</time></trkpt><trkpt lat="38.7151357" lon="0.4759604"><ele>0.0</ele><time>2026-04-29T18:52:12.026Z</time></trkpt><trkpt lat="38.7152025" lon="0.4760149"><ele>0.0</ele><time>2026-04-29T18:52:13.026Z</time></trkpt><trkpt lat="38.7152723" lon="0.4760713"><ele>0.0</ele><time>2026-04-29T18:52:14.027Z</time></trkpt><trkpt lat="38.7153468" lon="0.4761264"><ele>0.0</ele><time>2026-04-29T18:52:15.027Z</time></trkpt><trkpt lat="38.7154205" lon="0.4761798"><ele>0.0</ele><time>2026-04-29T18:52:16.026Z</time></trkpt><trkpt lat="38.7154948" lon="0.4762375"><ele>0.0</ele><time>2026-04-29T18:52:17.026Z</time></trkpt><trkpt lat="38.7156498" lon="0.4763399"><ele>0.0</ele><time>2026-04-29T18:52:19.027Z</time></trkpt><trkpt lat="38.7157294" lon="0.4763897"><ele>0.0</ele><time>2026-04-29T18:52:20.026Z</time></trkpt><trkpt lat="38.7158053" lon="0.4764464"><ele>0.0</ele><time>2026-04-29T18:52:21.026Z</time></trkpt><trkpt lat="38.7158801" lon="0.4765032"><ele>0.0</ele><time>2026-04-29T18:52:22.026Z</time></trkpt><trkpt lat="38.7159579" lon="0.4765558"><ele>0.0</ele><time>2026-04-29T18:52:23.027Z</time></trkpt><trkpt lat="38.7160343" lon="0.4766107"><ele>0.0</ele><time>2026-04-29T18:52:24.027Z</time></trkpt><trkpt lat="38.7161099" lon="0.4766656"><ele>0.0</ele><time>2026-04-29T18:52:25.026Z</time></trkpt><trkpt lat="38.7161864" lon="0.4767194"><ele>0.0</ele><time>2026-04-29T18:52:26.027Z</time></trkpt><trkpt lat="38.7162575" lon="0.4767737"><ele>0.0</ele><time>2026-04-29T18:52:27.027Z</time></trkpt><trkpt lat="38.7163277" lon="0.4768255"><ele>0.0</ele><time>2026-04-29T18:52:28.026Z</time></trkpt><trkpt lat="38.7164031" lon="0.4768776"><ele>0.0</ele><time>2026-04-29T18:52:29.026Z</time></trkpt><trkpt lat="38.7164798" lon="0.4769292"><ele>0.0</ele><time>2026-04-29T18:52:30.026Z</time></trkpt><trkpt lat="38.7165576" lon="0.4769765"><ele>0.0</ele><time>2026-04-29T18:52:31.027Z</time></trkpt><trkpt lat="38.716633" lon="0.4770247"><ele>0.0</ele><time>2026-04-29T18:52:32.027Z</time></trkpt><trkpt lat="38.7167081" lon="0.4770758"><ele>0.0</ele><time>2026-04-29T18:52:33.026Z</time></trkpt><trkpt lat="38.7167846" lon="0.4771308"><ele>0.0</ele><time>2026-04-29T18:52:34.026Z</time></trkpt><trkpt lat="38.7168642" lon="0.4771882"><ele>0.0</ele><time>2026-04-29T18:52:35.026Z</time></trkpt><trkpt lat="38.7169414" lon="0.4772495"><ele>0.0</ele><time>2026-04-29T18:52:36.026Z</time></trkpt><trkpt lat="38.7170168" lon="0.4773086"><ele>0.0</ele><time>2026-04-29T18:52:37.026Z</time></trkpt><trkpt lat="38.7170904" lon="0.4773608"><ele>0.0</ele><time>2026-04-29T18:52:38.026Z</time></trkpt><trkpt lat="38.7172331" lon="0.477473"><ele>0.0</ele><time>2026-04-29T18:52:40.027Z</time></trkpt><trkpt lat="38.7173036" lon="0.4775336"><ele>0.0</ele><time>2026-04-29T18:52:41.027Z</time></trkpt><trkpt lat="38.7173807" lon="0.4775937"><ele>0.0</ele><time>2026-04-29T18:52:42.027Z</time></trkpt><trkpt lat="38.7174536" lon="0.4776509"><ele>0.0</ele><time>2026-04-29T18:52:43.026Z</time></trkpt><trkpt lat="38.7175266" lon="0.4777021"><ele>0.0</ele><time>2026-04-29T18:52:44.027Z</time></trkpt><trkpt lat="38.7176018" lon="0.4777573"><ele>0.0</ele><time>2026-04-29T18:52:45.027Z</time></trkpt><trkpt lat="38.7176781" lon="0.4778168"><ele>0.0</ele><time>2026-04-29T18:52:46.027Z</time></trkpt><trkpt lat="38.7177547" lon="0.4778767"><ele>0.0</ele><time>2026-04-29T18:52:47.026Z</time></trkpt><trkpt lat="38.7178354" lon="0.4779368"><ele>0.0</ele><time>2026-04-29T18:52:48.026Z</time></trkpt><trkpt lat="38.7179145" lon="0.4779997"><ele>0.0</ele><time>2026-04-29T18:52:49.026Z</time></trkpt><trkpt lat="38.7179871" lon="0.4780603"><ele>0.0</ele><time>2026-04-29T18:52:50.026Z</time></trkpt><trkpt lat="38.7180599" lon="0.4781194"><ele>0.0</ele><time>2026-04-29T18:52:51.027Z</time></trkpt><trkpt lat="38.718139" lon="0.4781709"><ele>0.0</ele><time>2026-04-29T18:52:52.026Z</time></trkpt><trkpt lat="38.7182123" lon="0.4782276"><ele>0.0</ele><time>2026-04-29T18:52:53.026Z</time></trkpt><trkpt lat="38.718281" lon="0.4782828"><ele>0.0</ele><time>2026-04-29T18:52:54.026Z</time></trkpt><trkpt lat="38.7183532" lon="0.4783355"><ele>0.0</ele><time>2026-04-29T18:52:55.027Z</time></trkpt><trkpt lat="38.7184264" lon="0.4783915"><ele>0.0</ele><time>2026-04-29T18:52:56.026Z</time></trkpt><trkpt lat="38.7185041" lon="0.4784454"><ele>0.0</ele><time>2026-04-29T18:52:57.027Z</time></trkpt><trkpt lat="38.7185809" lon="0.4785013"><ele>0.0</ele><time>2026-04-29T18:52:58.026Z</time></trkpt><trkpt lat="38.7186547" lon="0.4785598"><ele>0.0</ele><time>2026-04-29T18:52:59.026Z</time></trkpt><trkpt lat="38.7188013" lon="0.4786842"><ele>0.0</ele><time>2026-04-29T18:53:01.027Z</time></trkpt><trkpt lat="38.7188748" lon="0.4787449"><ele>0.0</ele><time>2026-04-29T18:53:02.026Z</time></trkpt><trkpt lat="38.718947" lon="0.4788057"><ele>0.0</ele><time>2026-04-29T18:53:03.026Z</time></trkpt><trkpt lat="38.7190201" lon="0.4788589"><ele>0.0</ele><time>2026-04-29T18:53:04.027Z</time></trkpt><trkpt lat="38.7190936" lon="0.4789132"><ele>0.0</ele><time>2026-04-29T18:53:05.027Z</time></trkpt><trkpt lat="38.7191642" lon="0.4789737"><ele>0.0</ele><time>2026-04-29T18:53:06.027Z</time></trkpt><trkpt lat="38.7192341" lon="0.4790326"><ele>0.0</ele><time>2026-04-29T18:53:07.027Z</time></trkpt><trkpt lat="38.7193054" lon="0.4790895"><ele>0.0</ele><time>2026-04-29T18:53:08.026Z</time></trkpt><trkpt lat="38.7193784" lon="0.4791406"><ele>0.0</ele><time>2026-04-29T18:53:09.026Z</time></trkpt><trkpt lat="38.719452" lon="0.4791903"><ele>0.0</ele><time>2026-04-29T18:53:10.026Z</time></trkpt><trkpt lat="38.7195268" lon="0.4792403"><ele>0.0</ele><time>2026-04-29T18:53:11.026Z</time></trkpt><trkpt lat="38.7196016" lon="0.4792989"><ele>0.0</ele><time>2026-04-29T18:53:12.026Z</time></trkpt><trkpt lat="38.7196809" lon="0.479356"><ele>0.0</ele><time>2026-04-29T18:53:13.026Z</time></trkpt><trkpt lat="38.7197622" lon="0.479412"><ele>0.0</ele><time>2026-04-29T18:53:14.027Z</time></trkpt><trkpt lat="38.7198382" lon="0.4794669"><ele>0.0</ele><time>2026-04-29T18:53:15.027Z</time></trkpt><trkpt lat="38.7199186" lon="0.4795278"><ele>0.0</ele><time>2026-04-29T18:53:16.027Z</time></trkpt><trkpt lat="38.7199959" lon="0.479588"><ele>0.0</ele><time>2026-04-29T18:53:17.026Z</time></trkpt><trkpt lat="38.72008" lon="0.4796436"><ele>0.0</ele><time>2026-04-29T18:53:18.027Z</time></trkpt><trkpt lat="38.7201535" lon="0.4796974"><ele>0.0</ele><time>2026-04-29T18:53:19.026Z</time></trkpt><trkpt lat="38.7202255" lon="0.4797577"><ele>0.0</ele><time>2026-04-29T18:53:20.026Z</time></trkpt><trkpt lat="38.720376" lon="0.4798715"><ele>0.0</ele><time>2026-04-29T18:53:22.026Z</time></trkpt><trkpt lat="38.7204458" lon="0.479927"><ele>0.0</ele><time>2026-04-29T18:53:23.027Z</time></trkpt><trkpt lat="38.7205184" lon="0.479983"><ele>0.0</ele><time>2026-04-29T18:53:24.026Z</time></trkpt><trkpt lat="38.7205903" lon="0.4800402"><ele>0.0</ele><time>2026-04-29T18:53:25.027Z</time></trkpt><trkpt lat="38.7206667" lon="0.4800932"><ele>0.0</ele><time>2026-04-29T18:53:26.027Z</time></trkpt><trkpt lat="38.720742" lon="0.4801465"><ele>0.0</ele><time>2026-04-29T18:53:27.026Z</time></trkpt><trkpt lat="38.7208141" lon="0.4802001"><ele>0.0</ele><time>2026-04-29T18:53:28.027Z</time></trkpt><trkpt lat="38.7208881" lon="0.4802548"><ele>0.0</ele><time>2026-04-29T18:53:29.026Z</time></trkpt><trkpt lat="38.7209589" lon="0.4803142"><ele>0.0</ele><time>2026-04-29T18:53:30.027Z</time></trkpt><trkpt lat="38.7210346" lon="0.4803723"><ele>0.0</ele><time>2026-04-29T18:53:31.026Z</time></trkpt><trkpt lat="38.7211099" lon="0.4804293"><ele>0.0</ele><time>2026-04-29T18:53:32.026Z</time></trkpt><trkpt lat="38.7211865" lon="0.4804924"><ele>0.0</ele><time>2026-04-29T18:53:33.026Z</time></trkpt><trkpt lat="38.7212661" lon="0.4805506"><ele>0.0</ele><time>2026-04-29T18:53:34.026Z</time></trkpt><trkpt lat="38.7213434" lon="0.4806079"><ele>0.0</ele><time>2026-04-29T18:53:35.027Z</time></trkpt><trkpt lat="38.721431" lon="0.4806698"><ele>0.0</ele><time>2026-04-29T18:53:36.027Z</time></trkpt><trkpt lat="38.7215082" lon="0.4807319"><ele>0.0</ele><time>2026-04-29T18:53:37.027Z</time></trkpt><trkpt lat="38.7215818" lon="0.4807966"><ele>0.0</ele><time>2026-04-29T18:53:38.026Z</time></trkpt><trkpt lat="38.7216536" lon="0.4808653"><ele>0.0</ele><time>2026-04-29T18:53:39.027Z</time></trkpt><trkpt lat="38.7217269" lon="0.480925"><ele>0.0</ele><time>2026-04-29T18:53:40.026Z</time></trkpt><trkpt lat="38.721806" lon="0.4809773"><ele>0.0</ele><time>2026-04-29T18:53:41.026Z</time></trkpt><trkpt lat="38.721954" lon="0.4810854"><ele>0.0</ele><time>2026-04-29T18:53:43.025Z</time></trkpt><trkpt lat="38.7220253" lon="0.4811385"><ele>0.0</ele><time>2026-04-29T18:53:44.025Z</time></trkpt><trkpt lat="38.7220969" lon="0.4811917"><ele>0.0</ele><time>2026-04-29T18:53:45.026Z</time></trkpt><trkpt lat="38.7221714" lon="0.4812417"><ele>0.0</ele><time>2026-04-29T18:53:46.025Z</time></trkpt><trkpt lat="38.7222494" lon="0.4812971"><ele>0.0</ele><time>2026-04-29T18:53:47.025Z</time></trkpt><trkpt lat="38.7223249" lon="0.4813507"><ele>0.0</ele><time>2026-04-29T18:53:48.025Z</time></trkpt><trkpt lat="38.7223956" lon="0.4814026"><ele>0.0</ele><time>2026-04-29T18:53:49.025Z</time></trkpt><trkpt lat="38.7224682" lon="0.4814482"><ele>0.0</ele><time>2026-04-29T18:53:50.025Z</time></trkpt><trkpt lat="38.7225446" lon="0.4814962"><ele>0.0</ele><time>2026-04-29T18:53:51.026Z</time></trkpt><trkpt lat="38.72262" lon="0.4815458"><ele>0.0</ele><time>2026-04-29T18:53:52.026Z</time></trkpt><trkpt lat="38.7226977" lon="0.4815962"><ele>0.0</ele><time>2026-04-29T18:53:53.026Z</time></trkpt><trkpt lat="38.7227766" lon="0.4816454"><ele>0.0</ele><time>2026-04-29T18:53:54.025Z</time></trkpt><trkpt lat="38.7228533" lon="0.4816926"><ele>0.0</ele><time>2026-04-29T18:53:55.025Z</time></trkpt><trkpt lat="38.7229283" lon="0.4817363"><ele>0.0</ele><time>2026-04-29T18:53:56.025Z</time></trkpt><trkpt lat="38.7230064" lon="0.4817895"><ele>0.0</ele><time>2026-04-29T18:53:57.026Z</time></trkpt><trkpt lat="38.7230788" lon="0.4818447"><ele>0.0</ele><time>2026-04-29T18:53:58.026Z</time></trkpt><trkpt lat="38.7231503" lon="0.4819009"><ele>0.0</ele><time>2026-04-29T18:53:59.025Z</time></trkpt><trkpt lat="38.7232209" lon="0.4819631"><ele>0.0</ele><time>2026-04-29T18:54:00.025Z</time></trkpt><trkpt lat="38.7232936" lon="0.4820228"><ele>0.0</ele><time>2026-04-29T18:54:01.025Z</time></trkpt><trkpt lat="38.7233685" lon="0.4820798"><ele>0.0</ele><time>2026-04-29T18:54:02.026Z</time></trkpt><trkpt lat="38.7235243" lon="0.4821959"><ele>0.0</ele><time>2026-04-29T18:54:04.025Z</time></trkpt><trkpt lat="38.7235995" lon="0.482252"><ele>0.0</ele><time>2026-04-29T18:54:05.025Z</time></trkpt><trkpt lat="38.7236763" lon="0.4823068"><ele>0.0</ele><time>2026-04-29T18:54:06.026Z</time></trkpt><trkpt lat="38.7237533" lon="0.4823588"><ele>0.0</ele><time>2026-04-29T18:54:07.025Z</time></trkpt><trkpt lat="38.723828" lon="0.4824132"><ele>0.0</ele><time>2026-04-29T18:54:08.025Z</time></trkpt><trkpt lat="38.723903" lon="0.4824626"><ele>0.0</ele><time>2026-04-29T18:54:09.026Z</time></trkpt><trkpt lat="38.7239768" lon="0.4825148"><ele>0.0</ele><time>2026-04-29T18:54:10.026Z</time></trkpt><trkpt lat="38.7240446" lon="0.4825714"><ele>0.0</ele><time>2026-04-29T18:54:11.026Z</time></trkpt><trkpt lat="38.724114" lon="0.4826268"><ele>0.0</ele><time>2026-04-29T18:54:12.025Z</time></trkpt><trkpt lat="38.7241799" lon="0.4826874"><ele>0.0</ele><time>2026-04-29T18:54:13.025Z</time></trkpt><trkpt lat="38.7242489" lon="0.4827401"><ele>0.0</ele><time>2026-04-29T18:54:14.025Z</time></trkpt><trkpt lat="38.7243274" lon="0.4827907"><ele>0.0</ele><time>2026-04-29T18:54:15.025Z</time></trkpt><trkpt lat="38.7244016" lon="0.4828404"><ele>0.0</ele><time>2026-04-29T18:54:16.025Z</time></trkpt><trkpt lat="38.7244764" lon="0.4828901"><ele>0.0</ele><time>2026-04-29T18:54:17.026Z</time></trkpt><trkpt lat="38.7245529" lon="0.4829446"><ele>0.0</ele><time>2026-04-29T18:54:18.025Z</time></trkpt><trkpt lat="38.7246254" lon="0.4829966"><ele>0.0</ele><time>2026-04-29T18:54:19.025Z</time></trkpt><trkpt lat="38.7247013" lon="0.4830502"><ele>0.0</ele><time>2026-04-29T18:54:20.025Z</time></trkpt><trkpt lat="38.724778" lon="0.483104"><ele>0.0</ele><time>2026-04-29T18:54:21.025Z</time></trkpt><trkpt lat="38.7248519" lon="0.4831599"><ele>0.0</ele><time>2026-04-29T18:54:22.026Z</time></trkpt><trkpt lat="38.7250049" lon="0.4832618"><ele>0.0</ele><time>2026-04-29T18:54:24.026Z</time></trkpt><trkpt lat="38.7250814" lon="0.4833139"><ele>0.0</ele><time>2026-04-29T18:54:25.025Z</time></trkpt><trkpt lat="38.7251553" lon="0.4833668"><ele>0.0</ele><time>2026-04-29T18:54:26.025Z</time></trkpt><trkpt lat="38.7252327" lon="0.4834146"><ele>0.0</ele><time>2026-04-29T18:54:27.026Z</time></trkpt><trkpt lat="38.7253097" lon="0.4834609"><ele>0.0</ele><time>2026-04-29T18:54:28.026Z</time></trkpt><trkpt lat="38.7253909" lon="0.4835144"><ele>0.0</ele><time>2026-04-29T18:54:29.025Z</time></trkpt><trkpt lat="38.7254712" lon="0.4835681"><ele>0.0</ele><time>2026-04-29T18:54:30.025Z</time></trkpt><trkpt lat="38.7255484" lon="0.4836213"><ele>0.0</ele><time>2026-04-29T18:54:31.025Z</time></trkpt><trkpt lat="38.725625" lon="0.4836708"><ele>0.0</ele><time>2026-04-29T18:54:32.026Z</time></trkpt><trkpt lat="38.7257017" lon="0.4837259"><ele>0.0</ele><time>2026-04-29T18:54:33.025Z</time></trkpt><trkpt lat="38.7257795" lon="0.4837859"><ele>0.0</ele><time>2026-04-29T18:54:34.025Z</time></trkpt><trkpt lat="38.7258565" lon="0.483835"><ele>0.0</ele><time>2026-04-29T18:54:35.025Z</time></trkpt><trkpt lat="38.7259361" lon="0.4838917"><ele>0.0</ele><time>2026-04-29T18:54:36.025Z</time></trkpt><trkpt lat="38.7260118" lon="0.4839486"><ele>0.0</ele><time>2026-04-29T18:54:37.025Z</time></trkpt><trkpt lat="38.7260868" lon="0.4840038"><ele>0.0</ele><time>2026-04-29T18:54:38.025Z</time></trkpt><trkpt lat="38.7261576" lon="0.4840569"><ele>0.0</ele><time>2026-04-29T18:54:39.025Z</time></trkpt><trkpt lat="38.7262273" lon="0.4841059"><ele>0.0</ele><time>2026-04-29T18:54:40.025Z</time></trkpt><trkpt lat="38.7263" lon="0.4841551"><ele>0.0</ele><time>2026-04-29T18:54:41.026Z</time></trkpt><trkpt lat="38.7263719" lon="0.4842078"><ele>0.0</ele><time>2026-04-29T18:54:42.025Z</time></trkpt><trkpt lat="38.7264509" lon="0.4842647"><ele>0.0</ele><time>2026-04-29T18:54:43.025Z</time></trkpt><trkpt lat="38.726525" lon="0.4843217"><ele>0.0</ele><time>2026-04-29T18:54:44.026Z</time></trkpt><trkpt lat="38.7266799" lon="0.4844334"><ele>0.0</ele><time>2026-04-29T18:54:46.026Z</time></trkpt><trkpt lat="38.7267551" lon="0.4844847"><ele>0.0</ele><time>2026-04-29T18:54:47.026Z</time></trkpt><trkpt lat="38.7268285" lon="0.4845382"><ele>0.0</ele><time>2026-04-29T18:54:48.026Z</time></trkpt><trkpt lat="38.7269047" lon="0.4845899"><ele>0.0</ele><time>2026-04-29T18:54:49.025Z</time></trkpt><trkpt lat="38.7269813" lon="0.4846464"><ele>0.0</ele><time>2026-04-29T18:54:50.025Z</time></trkpt><trkpt lat="38.7270594" lon="0.4846982"><ele>0.0</ele><time>2026-04-29T18:54:51.025Z</time></trkpt><trkpt lat="38.7271406" lon="0.4847449"><ele>0.0</ele><time>2026-04-29T18:54:52.026Z</time></trkpt><trkpt lat="38.7272173" lon="0.4847957"><ele>0.0</ele><time>2026-04-29T18:54:53.025Z</time></trkpt><trkpt lat="38.7272933" lon="0.4848426"><ele>0.0</ele><time>2026-04-29T18:54:54.025Z</time></trkpt><trkpt lat="38.7273712" lon="0.4848952"><ele>0.0</ele><time>2026-04-29T18:54:55.026Z</time></trkpt><trkpt lat="38.7274438" lon="0.4849512"><ele>0.0</ele><time>2026-04-29T18:54:56.026Z</time></trkpt><trkpt lat="38.727518" lon="0.4850025"><ele>0.0</ele><time>2026-04-29T18:54:57.026Z</time></trkpt><trkpt lat="38.7275904" lon="0.4850569"><ele>0.0</ele><time>2026-04-29T18:54:58.025Z</time></trkpt><trkpt lat="38.7276624" lon="0.4851144"><ele>0.0</ele><time>2026-04-29T18:54:59.025Z</time></trkpt><trkpt lat="38.7277341" lon="0.4851655"><ele>0.0</ele><time>2026-04-29T18:55:00.026Z</time></trkpt><trkpt lat="38.7278084" lon="0.4852145"><ele>0.0</ele><time>2026-04-29T18:55:01.026Z</time></trkpt><trkpt lat="38.7278832" lon="0.4852653"><ele>0.0</ele><time>2026-04-29T18:55:02.025Z</time></trkpt><trkpt lat="38.7279599" lon="0.4853281"><ele>0.0</ele><time>2026-04-29T18:55:03.025Z</time></trkpt><trkpt lat="38.7280379" lon="0.4853908"><ele>0.0</ele><time>2026-04-29T18:55:04.026Z</time></trkpt><trkpt lat="38.7281137" lon="0.4854449"><ele>0.0</ele><time>2026-04-29T18:55:05.025Z</time></trkpt><trkpt lat="38.7282654" lon="0.4855658"><ele>0.0</ele><time>2026-04-29T18:55:07.025Z</time></trkpt><trkpt lat="38.7283398" lon="0.4856288"><ele>0.0</ele><time>2026-04-29T18:55:08.025Z</time></trkpt><trkpt lat="38.7284134" lon="0.4856894"><ele>0.0</ele><time>2026-04-29T18:55:09.025Z</time></trkpt><trkpt lat="38.7284849" lon="0.4857455"><ele>0.0</ele><time>2026-04-29T18:55:10.025Z</time></trkpt><trkpt lat="38.7285622" lon="0.4857992"><ele>0.0</ele><time>2026-04-29T18:55:11.025Z</time></trkpt><trkpt lat="38.7286393" lon="0.4858533"><ele>0.0</ele><time>2026-04-29T18:55:12.025Z</time></trkpt><trkpt lat="38.7287164" lon="0.4859042"><ele>0.0</ele><time>2026-04-29T18:55:13.025Z</time></trkpt><trkpt lat="38.7287902" lon="0.4859575"><ele>0.0</ele><time>2026-04-29T18:55:14.025Z</time></trkpt><trkpt lat="38.7288652" lon="0.4860159"><ele>0.0</ele><time>2026-04-29T18:55:15.025Z</time></trkpt><trkpt lat="38.7289385" lon="0.4860719"><ele>0.0</ele><time>2026-04-29T18:55:16.025Z</time></trkpt><trkpt lat="38.7290093" lon="0.4861241"><ele>0.0</ele><time>2026-04-29T18:55:17.025Z</time></trkpt><trkpt lat="38.729082" lon="0.4861728"><ele>0.0</ele><time>2026-04-29T18:55:18.025Z</time></trkpt><trkpt lat="38.7291526" lon="0.4862211"><ele>0.0</ele><time>2026-04-29T18:55:19.025Z</time></trkpt><trkpt lat="38.7292252" lon="0.4862709"><ele>0.0</ele><time>2026-04-29T18:55:20.026Z</time></trkpt><trkpt lat="38.7293011" lon="0.4863185"><ele>0.0</ele><time>2026-04-29T18:55:21.025Z</time></trkpt><trkpt lat="38.7293769" lon="0.4863684"><ele>0.0</ele><time>2026-04-29T18:55:22.025Z</time></trkpt><trkpt lat="38.7294506" lon="0.4864205"><ele>0.0</ele><time>2026-04-29T18:55:23.026Z</time></trkpt><trkpt lat="38.7295194" lon="0.4864745"><ele>0.0</ele><time>2026-04-29T18:55:24.026Z</time></trkpt><trkpt lat="38.7295965" lon="0.4865357"><ele>0.0</ele><time>2026-04-29T18:55:25.025Z</time></trkpt><trkpt lat="38.7296673" lon="0.4865929"><ele>0.0</ele><time>2026-04-29T18:55:26.026Z</time></trkpt><trkpt lat="38.7298159" lon="0.486702"><ele>0.0</ele><time>2026-04-29T18:55:28.026Z</time></trkpt><trkpt lat="38.7298917" lon="0.4867597"><ele>0.0</ele><time>2026-04-29T18:55:29.026Z</time></trkpt><trkpt lat="38.7299739" lon="0.486807"><ele>0.0</ele><time>2026-04-29T18:55:30.025Z</time></trkpt><trkpt lat="38.7300515" lon="0.4868577"><ele>0.0</ele><time>2026-04-29T18:55:31.025Z</time></trkpt><trkpt lat="38.7301255" lon="0.48691"><ele>0.0</ele><time>2026-04-29T18:55:32.026Z</time></trkpt><trkpt lat="38.7302017" lon="0.486962"><ele>0.0</ele><time>2026-04-29T18:55:33.026Z</time></trkpt><trkpt lat="38.7302769" lon="0.4870135"><ele>0.0</ele><time>2026-04-29T18:55:34.025Z</time></trkpt><trkpt lat="38.7303474" lon="0.4870683"><ele>0.0</ele><time>2026-04-29T18:55:35.026Z</time></trkpt><trkpt lat="38.7304199" lon="0.4871233"><ele>0.0</ele><time>2026-04-29T18:55:36.025Z</time></trkpt><trkpt lat="38.7304948" lon="0.4871828"><ele>0.0</ele><time>2026-04-29T18:55:37.025Z</time></trkpt><trkpt lat="38.7305702" lon="0.4872385"><ele>0.0</ele><time>2026-04-29T18:55:38.026Z</time></trkpt><trkpt lat="38.7306449" lon="0.4872933"><ele>0.0</ele><time>2026-04-29T18:55:39.026Z</time></trkpt><trkpt lat="38.7307169" lon="0.48735"><ele>0.0</ele><time>2026-04-29T18:55:40.026Z</time></trkpt><trkpt lat="38.7307854" lon="0.4874052"><ele>0.0</ele><time>2026-04-29T18:55:41.025Z</time></trkpt><trkpt lat="38.7308583" lon="0.4874634"><ele>0.0</ele><time>2026-04-29T18:55:42.025Z</time></trkpt><trkpt lat="38.7309277" lon="0.4875216"><ele>0.0</ele><time>2026-04-29T18:55:43.026Z</time></trkpt><trkpt lat="38.7310018" lon="0.4875669"><ele>0.0</ele><time>2026-04-29T18:55:44.026Z</time></trkpt><trkpt lat="38.7310741" lon="0.4876142"><ele>0.0</ele><time>2026-04-29T18:55:45.026Z</time></trkpt><trkpt lat="38.7311454" lon="0.4876635"><ele>0.0</ele><time>2026-04-29T18:55:46.025Z</time></trkpt><trkpt lat="38.7312183" lon="0.487715"><ele>0.0</ele><time>2026-04-29T18:55:47.025Z</time></trkpt><trkpt lat="38.7313801" lon="0.4878168"><ele>0.0</ele><time>2026-04-29T18:55:49.026Z</time></trkpt><trkpt lat="38.7314592" lon="0.4878639"><ele>0.0</ele><time>2026-04-29T18:55:50.026Z</time></trkpt><trkpt lat="38.7315349" lon="0.4879178"><ele>0.0</ele><time>2026-04-29T18:55:51.026Z</time></trkpt><trkpt lat="38.7316099" lon="0.4879698"><ele>0.0</ele><time>2026-04-29T18:55:52.025Z</time></trkpt><trkpt lat="38.7317006" lon="0.4880188"><ele>0.0</ele><time>2026-04-29T18:55:53.026Z</time></trkpt><trkpt lat="38.7317869" lon="0.4880686"><ele>0.0</ele><time>2026-04-29T18:55:54.025Z</time></trkpt><trkpt lat="38.731868" lon="0.4881229"><ele>0.0</ele><time>2026-04-29T18:55:55.025Z</time></trkpt><trkpt lat="38.7319408" lon="0.4881811"><ele>0.0</ele><time>2026-04-29T18:55:56.026Z</time></trkpt><trkpt lat="38.7320149" lon="0.4882411"><ele>0.0</ele><time>2026-04-29T18:55:57.025Z</time></trkpt><trkpt lat="38.7320896" lon="0.4882956"><ele>0.0</ele><time>2026-04-29T18:55:58.026Z</time></trkpt><trkpt lat="38.7321618" lon="0.4883534"><ele>0.0</ele><time>2026-04-29T18:55:59.025Z</time></trkpt><trkpt lat="38.7322321" lon="0.4884116"><ele>0.0</ele><time>2026-04-29T18:56:00.026Z</time></trkpt><trkpt lat="38.7322976" lon="0.4884709"><ele>0.0</ele><time>2026-04-29T18:56:01.026Z</time></trkpt><trkpt lat="38.7323667" lon="0.4885266"><ele>0.0</ele><time>2026-04-29T18:56:02.025Z</time></trkpt><trkpt lat="38.7324341" lon="0.4885857"><ele>0.0</ele><time>2026-04-29T18:56:03.025Z</time></trkpt><trkpt lat="38.7325038" lon="0.4886413"><ele>0.0</ele><time>2026-04-29T18:56:04.025Z</time></trkpt><trkpt lat="38.7325737" lon="0.4886995"><ele>0.0</ele><time>2026-04-29T18:56:05.026Z</time></trkpt><trkpt lat="38.7326466" lon="0.4887539"><ele>0.0</ele><time>2026-04-29T18:56:06.025Z</time></trkpt><trkpt lat="38.7327215" lon="0.4888101"><ele>0.0</ele><time>2026-04-29T18:56:07.025Z</time></trkpt><trkpt lat="38.7327979" lon="0.488865"><ele>0.0</ele><time>2026-04-29T18:56:08.025Z</time></trkpt><trkpt lat="38.732876" lon="0.4889175"><ele>0.0</ele><time>2026-04-29T18:56:09.025Z</time></trkpt><trkpt lat="38.7330268" lon="0.4890267"><ele>0.0</ele><time>2026-04-29T18:56:11.026Z</time></trkpt><trkpt lat="38.7330987" lon="0.4890833"><ele>0.0</ele><time>2026-04-29T18:56:12.026Z</time></trkpt><trkpt lat="38.7331702" lon="0.4891371"><ele>0.0</ele><time>2026-04-29T18:56:13.026Z</time></trkpt><trkpt lat="38.733242" lon="0.4891902"><ele>0.0</ele><time>2026-04-29T18:56:14.026Z</time></trkpt><trkpt lat="38.733315" lon="0.4892448"><ele>0.0</ele><time>2026-04-29T18:56:15.026Z</time></trkpt><trkpt lat="38.7333899" lon="0.4892982"><ele>0.0</ele><time>2026-04-29T18:56:16.026Z</time></trkpt><trkpt lat="38.733465" lon="0.4893471"><ele>0.0</ele><time>2026-04-29T18:56:17.025Z</time></trkpt><trkpt lat="38.7335383" lon="0.4893965"><ele>0.0</ele><time>2026-04-29T18:56:18.025Z</time></trkpt><trkpt lat="38.733613" lon="0.4894466"><ele>0.0</ele><time>2026-04-29T18:56:19.026Z</time></trkpt><trkpt lat="38.7336914" lon="0.4895006"><ele>0.0</ele><time>2026-04-29T18:56:20.025Z</time></trkpt><trkpt lat="38.7337695" lon="0.4895527"><ele>0.0</ele><time>2026-04-29T18:56:21.026Z</time></trkpt><trkpt lat="38.7338493" lon="0.4896042"><ele>0.0</ele><time>2026-04-29T18:56:22.025Z</time></trkpt><trkpt lat="38.7339277" lon="0.4896575"><ele>0.0</ele><time>2026-04-29T18:56:23.026Z</time></trkpt><trkpt lat="38.734005" lon="0.4897114"><ele>0.0</ele><time>2026-04-29T18:56:24.026Z</time></trkpt><trkpt lat="38.7340817" lon="0.4897651"><ele>0.0</ele><time>2026-04-29T18:56:25.026Z</time></trkpt><trkpt lat="38.7341583" lon="0.4898185"><ele>0.0</ele><time>2026-04-29T18:56:26.025Z</time></trkpt><trkpt lat="38.734236" lon="0.4898707"><ele>0.0</ele><time>2026-04-29T18:56:27.026Z</time></trkpt><trkpt lat="38.7343104" lon="0.4899187"><ele>0.0</ele><time>2026-04-29T18:56:28.026Z</time></trkpt><trkpt lat="38.7343834" lon="0.4899659"><ele>0.0</ele><time>2026-04-29T18:56:29.026Z</time></trkpt><trkpt lat="38.734457" lon="0.4900172"><ele>0.0</ele><time>2026-04-29T18:56:30.025Z</time></trkpt><trkpt lat="38.7346043" lon="0.4901228"><ele>0.0</ele><time>2026-04-29T18:56:32.025Z</time></trkpt><trkpt lat="38.7346802" lon="0.4901817"><ele>0.0</ele><time>2026-04-29T18:56:33.026Z</time></trkpt><trkpt lat="38.7347579" lon="0.4902404"><ele>0.0</ele><time>2026-04-29T18:56:34.025Z</time></trkpt><trkpt lat="38.7348348" lon="0.4902991"><ele>0.0</ele><time>2026-04-29T18:56:35.025Z</time></trkpt><trkpt lat="38.7349116" lon="0.4903555"><ele>0.0</ele><time>2026-04-29T18:56:36.025Z</time></trkpt><trkpt lat="38.7349911" lon="0.4904114"><ele>0.0</ele><time>2026-04-29T18:56:37.026Z</time></trkpt><trkpt lat="38.7350711" lon="0.4904636"><ele>0.0</ele><time>2026-04-29T18:56:38.025Z</time></trkpt><trkpt lat="38.7351497" lon="0.4905163"><ele>0.0</ele><time>2026-04-29T18:56:39.025Z</time></trkpt><trkpt lat="38.7352265" lon="0.4905728"><ele>0.0</ele><time>2026-04-29T18:56:40.026Z</time></trkpt><trkpt lat="38.735303" lon="0.4906279"><ele>0.0</ele><time>2026-04-29T18:56:41.026Z</time></trkpt><trkpt lat="38.7353796" lon="0.4906844"><ele>0.0</ele><time>2026-04-29T18:56:42.026Z</time></trkpt><trkpt lat="38.7354578" lon="0.4907425"><ele>0.0</ele><time>2026-04-29T18:56:43.025Z</time></trkpt><trkpt lat="38.7355362" lon="0.490798"><ele>0.0</ele><time>2026-04-29T18:56:44.025Z</time></trkpt><trkpt lat="38.7356119" lon="0.4908515"><ele>0.0</ele><time>2026-04-29T18:56:45.025Z</time></trkpt><trkpt lat="38.7356855" lon="0.4909065"><ele>0.0</ele><time>2026-04-29T18:56:46.025Z</time></trkpt><trkpt lat="38.7357557" lon="0.4909539"><ele>0.0</ele><time>2026-04-29T18:56:47.025Z</time></trkpt><trkpt lat="38.7358255" lon="0.4910013"><ele>0.0</ele><time>2026-04-29T18:56:48.026Z</time></trkpt><trkpt lat="38.7359026" lon="0.4910558"><ele>0.0</ele><time>2026-04-29T18:56:49.026Z</time></trkpt><trkpt lat="38.7359836" lon="0.4911087"><ele>0.0</ele><time>2026-04-29T18:56:50.025Z</time></trkpt><trkpt lat="38.7360627" lon="0.4911643"><ele>0.0</ele><time>2026-04-29T18:56:51.025Z</time></trkpt><trkpt lat="38.7361424" lon="0.4912224"><ele>0.0</ele><time>2026-04-29T18:56:52.026Z</time></trkpt><trkpt lat="38.736295" lon="0.4913313"><ele>0.0</ele><time>2026-04-29T18:56:54.025Z</time></trkpt><trkpt lat="38.7363714" lon="0.4913863"><ele>0.0</ele><time>2026-04-29T18:56:55.026Z</time></trkpt><trkpt lat="38.7364439" lon="0.49144"><ele>0.0</ele><time>2026-04-29T18:56:56.025Z</time></trkpt><trkpt lat="38.7365195" lon="0.491496"><ele>0.0</ele><time>2026-04-29T18:56:57.025Z</time></trkpt><trkpt lat="38.7365906" lon="0.4915536"><ele>0.0</ele><time>2026-04-29T18:56:58.025Z</time></trkpt><trkpt lat="38.7366649" lon="0.491608"><ele>0.0</ele><time>2026-04-29T18:56:59.026Z</time></trkpt><trkpt lat="38.7367385" lon="0.4916633"><ele>0.0</ele><time>2026-04-29T18:57:00.026Z</time></trkpt><trkpt lat="38.736812" lon="0.4917167"><ele>0.0</ele><time>2026-04-29T18:57:01.026Z</time></trkpt><trkpt lat="38.7368821" lon="0.4917703"><ele>0.0</ele><time>2026-04-29T18:57:02.026Z</time></trkpt><trkpt lat="38.7369565" lon="0.4918246"><ele>0.0</ele><time>2026-04-29T18:57:03.025Z</time></trkpt><trkpt lat="38.737029" lon="0.4918798"><ele>0.0</ele><time>2026-04-29T18:57:04.025Z</time></trkpt><trkpt lat="38.7371006" lon="0.4919333"><ele>0.0</ele><time>2026-04-29T18:57:05.026Z</time></trkpt><trkpt lat="38.7371723" lon="0.4919856"><ele>0.0</ele><time>2026-04-29T18:57:06.025Z</time></trkpt><trkpt lat="38.7372438" lon="0.4920383"><ele>0.0</ele><time>2026-04-29T18:57:07.025Z</time></trkpt><trkpt lat="38.737317" lon="0.4920906"><ele>0.0</ele><time>2026-04-29T18:57:08.026Z</time></trkpt><trkpt lat="38.7373931" lon="0.4921352"><ele>0.0</ele><time>2026-04-29T18:57:09.026Z</time></trkpt><trkpt lat="38.7374625" lon="0.4921809"><ele>0.0</ele><time>2026-04-29T18:57:10.026Z</time></trkpt><trkpt lat="38.7375364" lon="0.4922318"><ele>0.0</ele><time>2026-04-29T18:57:11.025Z</time></trkpt><trkpt lat="38.7376103" lon="0.4922805"><ele>0.0</ele><time>2026-04-29T18:57:12.026Z</time></trkpt><trkpt lat="38.737685" lon="0.492333"><ele>0.0</ele><time>2026-04-29T18:57:13.025Z</time></trkpt><trkpt lat="38.7378347" lon="0.4924332"><ele>0.0</ele><time>2026-04-29T18:57:15.026Z</time></trkpt><trkpt lat="38.7379115" lon="0.4924877"><ele>0.0</ele><time>2026-04-29T18:57:16.025Z</time></trkpt><trkpt lat="38.7379838" lon="0.4925413"><ele>0.0</ele><time>2026-04-29T18:57:17.025Z</time></trkpt><trkpt lat="38.7380578" lon="0.4925948"><ele>0.0</ele><time>2026-04-29T18:57:18.026Z</time></trkpt><trkpt lat="38.7381344" lon="0.4926498"><ele>0.0</ele><time>2026-04-29T18:57:19.025Z</time></trkpt><trkpt lat="38.7382099" lon="0.4927065"><ele>0.0</ele><time>2026-04-29T18:57:20.025Z</time></trkpt><trkpt lat="38.7382835" lon="0.49276"><ele>0.0</ele><time>2026-04-29T18:57:21.025Z</time></trkpt><trkpt lat="38.7383595" lon="0.4928117"><ele>0.0</ele><time>2026-04-29T18:57:22.025Z</time></trkpt><trkpt lat="38.7384346" lon="0.4928662"><ele>0.0</ele><time>2026-04-29T18:57:23.026Z</time></trkpt><trkpt lat="38.738511" lon="0.4929182"><ele>0.0</ele><time>2026-04-29T18:57:24.026Z</time></trkpt><trkpt lat="38.7385864" lon="0.4929655"><ele>0.0</ele><time>2026-04-29T18:57:25.025Z</time></trkpt><trkpt lat="38.7386575" lon="0.4930136"><ele>0.0</ele><time>2026-04-29T18:57:26.025Z</time></trkpt><trkpt lat="38.7387301" lon="0.493063"><ele>0.0</ele><time>2026-04-29T18:57:27.026Z</time></trkpt><trkpt lat="38.7388062" lon="0.4931146"><ele>0.0</ele><time>2026-04-29T18:57:28.025Z</time></trkpt><trkpt lat="38.7388815" lon="0.4931676"><ele>0.0</ele><time>2026-04-29T18:57:29.025Z</time></trkpt><trkpt lat="38.7389552" lon="0.4932158"><ele>0.0</ele><time>2026-04-29T18:57:30.025Z</time></trkpt><trkpt lat="38.7390313" lon="0.4932698"><ele>0.0</ele><time>2026-04-29T18:57:31.025Z</time></trkpt><trkpt lat="38.7391081" lon="0.4933251"><ele>0.0</ele><time>2026-04-29T18:57:32.026Z</time></trkpt><trkpt lat="38.7391875" lon="0.4933855"><ele>0.0</ele><time>2026-04-29T18:57:33.025Z</time></trkpt><trkpt lat="38.7392619" lon="0.4934476"><ele>0.0</ele><time>2026-04-29T18:57:34.026Z</time></trkpt><trkpt lat="38.739406" lon="0.4935645"><ele>0.0</ele><time>2026-04-29T18:57:36.026Z</time></trkpt><trkpt lat="38.7394803" lon="0.493618"><ele>0.0</ele><time>2026-04-29T18:57:37.026Z</time></trkpt><trkpt lat="38.7395575" lon="0.4936696"><ele>0.0</ele><time>2026-04-29T18:57:38.025Z</time></trkpt><trkpt lat="38.7396323" lon="0.4937247"><ele>0.0</ele><time>2026-04-29T18:57:39.025Z</time></trkpt><trkpt lat="38.7397068" lon="0.49378"><ele>0.0</ele><time>2026-04-29T18:57:40.026Z</time></trkpt><trkpt lat="38.7397816" lon="0.4938293"><ele>0.0</ele><time>2026-04-29T18:57:41.025Z</time></trkpt><trkpt lat="38.7398538" lon="0.4938836"><ele>0.0</ele><time>2026-04-29T18:57:42.026Z</time></trkpt><trkpt lat="38.7399268" lon="0.4939358"><ele>0.0</ele><time>2026-04-29T18:57:43.026Z</time></trkpt><trkpt lat="38.7399988" lon="0.4939929"><ele>0.0</ele><time>2026-04-29T18:57:44.025Z</time></trkpt><trkpt lat="38.7400705" lon="0.4940497"><ele>0.0</ele><time>2026-04-29T18:57:45.025Z</time></trkpt><trkpt lat="38.7401422" lon="0.4941035"><ele>0.0</ele><time>2026-04-29T18:57:46.026Z</time></trkpt><trkpt lat="38.740218" lon="0.4941548"><ele>0.0</ele><time>2026-04-29T18:57:47.026Z</time></trkpt><trkpt lat="38.7402935" lon="0.4942022"><ele>0.0</ele><time>2026-04-29T18:57:48.025Z</time></trkpt><trkpt lat="38.7403656" lon="0.4942545"><ele>0.0</ele><time>2026-04-29T18:57:49.026Z</time></trkpt><trkpt lat="38.7404386" lon="0.4943093"><ele>0.0</ele><time>2026-04-29T18:57:50.025Z</time></trkpt><trkpt lat="38.7405106" lon="0.4943707"><ele>0.0</ele><time>2026-04-29T18:57:51.026Z</time></trkpt><trkpt lat="38.7405836" lon="0.4944276"><ele>0.0</ele><time>2026-04-29T18:57:52.025Z</time></trkpt><trkpt lat="38.7406557" lon="0.4944853"><ele>0.0</ele><time>2026-04-29T18:57:53.025Z</time></trkpt><trkpt lat="38.7407317" lon="0.4945406"><ele>0.0</ele><time>2026-04-29T18:57:54.026Z</time></trkpt><trkpt lat="38.7408082" lon="0.4945915"><ele>0.0</ele><time>2026-04-29T18:57:55.026Z</time></trkpt><trkpt lat="38.7409656" lon="0.4947105"><ele>0.0</ele><time>2026-04-29T18:57:57.026Z</time></trkpt><trkpt lat="38.741043" lon="0.494766"><ele>0.0</ele><time>2026-04-29T18:57:58.026Z</time></trkpt><trkpt lat="38.7411212" lon="0.4948242"><ele>0.0</ele><time>2026-04-29T18:57:59.025Z</time></trkpt><trkpt lat="38.7412023" lon="0.4948824"><ele>0.0</ele><time>2026-04-29T18:58:00.025Z</time></trkpt><trkpt lat="38.7412845" lon="0.4949377"><ele>0.0</ele><time>2026-04-29T18:58:01.026Z</time></trkpt><trkpt lat="38.7413586" lon="0.4949933"><ele>0.0</ele><time>2026-04-29T18:58:02.025Z</time></trkpt><trkpt lat="38.7414322" lon="0.4950451"><ele>0.0</ele><time>2026-04-29T18:58:03.026Z</time></trkpt><trkpt lat="38.7415037" lon="0.4950968"><ele>0.0</ele><time>2026-04-29T18:58:04.025Z</time></trkpt><trkpt lat="38.7415779" lon="0.4951497"><ele>0.0</ele><time>2026-04-29T18:58:05.025Z</time></trkpt><trkpt lat="38.7416502" lon="0.4952021"><ele>0.0</ele><time>2026-04-29T18:58:06.025Z</time></trkpt><trkpt lat="38.7417221" lon="0.4952546"><ele>0.0</ele><time>2026-04-29T18:58:07.025Z</time></trkpt><trkpt lat="38.7417936" lon="0.4953053"><ele>0.0</ele><time>2026-04-29T18:58:08.025Z</time></trkpt><trkpt lat="38.7418654" lon="0.4953551"><ele>0.0</ele><time>2026-04-29T18:58:09.025Z</time></trkpt><trkpt lat="38.7419371" lon="0.4954069"><ele>0.0</ele><time>2026-04-29T18:58:10.025Z</time></trkpt><trkpt lat="38.7420102" lon="0.4954617"><ele>0.0</ele><time>2026-04-29T18:58:11.025Z</time></trkpt><trkpt lat="38.742085" lon="0.4955136"><ele>0.0</ele><time>2026-04-29T18:58:12.025Z</time></trkpt><trkpt lat="38.7421572" lon="0.4955667"><ele>0.0</ele><time>2026-04-29T18:58:13.025Z</time></trkpt><trkpt lat="38.7422303" lon="0.4956169"><ele>0.0</ele><time>2026-04-29T18:58:14.026Z</time></trkpt><trkpt lat="38.7423063" lon="0.4956642"><ele>0.0</ele><time>2026-04-29T18:58:15.025Z</time></trkpt><trkpt lat="38.7423816" lon="0.495715"><ele>0.0</ele><time>2026-04-29T18:58:16.025Z</time></trkpt><trkpt lat="38.7425267" lon="0.4958184"><ele>0.0</ele><time>2026-04-29T18:58:18.025Z</time></trkpt><trkpt lat="38.7426029" lon="0.4958699"><ele>0.0</ele><time>2026-04-29T18:58:19.025Z</time></trkpt><trkpt lat="38.7426797" lon="0.4959233"><ele>0.0</ele><time>2026-04-29T18:58:20.026Z</time></trkpt><trkpt lat="38.7427564" lon="0.4959752"><ele>0.0</ele><time>2026-04-29T18:58:21.026Z</time></trkpt><trkpt lat="38.742833" lon="0.4960361"><ele>0.0</ele><time>2026-04-29T18:58:22.025Z</time></trkpt><trkpt lat="38.742914" lon="0.4960918"><ele>0.0</ele><time>2026-04-29T18:58:23.025Z</time></trkpt><trkpt lat="38.7429868" lon="0.496147"><ele>0.0</ele><time>2026-04-29T18:58:24.025Z</time></trkpt><trkpt lat="38.7430569" lon="0.4962072"><ele>0.0</ele><time>2026-04-29T18:58:25.026Z</time></trkpt><trkpt lat="38.7431299" lon="0.4962661"><ele>0.0</ele><time>2026-04-29T18:58:26.026Z</time></trkpt><trkpt lat="38.7432049" lon="0.4963214"><ele>0.0</ele><time>2026-04-29T18:58:27.025Z</time></trkpt><trkpt lat="38.7432756" lon="0.4963755"><ele>0.0</ele><time>2026-04-29T18:58:28.025Z</time></trkpt><trkpt lat="38.7433412" lon="0.4964228"><ele>0.0</ele><time>2026-04-29T18:58:29.026Z</time></trkpt><trkpt lat="38.7434148" lon="0.496476"><ele>0.0</ele><time>2026-04-29T18:58:30.026Z</time></trkpt><trkpt lat="38.74349" lon="0.4965279"><ele>0.0</ele><time>2026-04-29T18:58:31.026Z</time></trkpt><trkpt lat="38.7435551" lon="0.4965766"><ele>0.0</ele><time>2026-04-29T18:58:32.025Z</time></trkpt><trkpt lat="38.7436256" lon="0.4966242"><ele>0.0</ele><time>2026-04-29T18:58:33.025Z</time></trkpt><trkpt lat="38.7436999" lon="0.4966816"><ele>0.0</ele><time>2026-04-29T18:58:34.025Z</time></trkpt><trkpt lat="38.7437763" lon="0.4967395"><ele>0.0</ele><time>2026-04-29T18:58:35.026Z</time></trkpt><trkpt lat="38.7438558" lon="0.4967942"><ele>0.0</ele><time>2026-04-29T18:58:36.025Z</time></trkpt><trkpt lat="38.7439317" lon="0.4968459"><ele>0.0</ele><time>2026-04-29T18:58:37.026Z</time></trkpt><trkpt lat="38.7440929" lon="0.496937"><ele>0.0</ele><time>2026-04-29T18:58:39.026Z</time></trkpt><trkpt lat="38.7441673" lon="0.4969897"><ele>0.0</ele><time>2026-04-29T18:58:40.026Z</time></trkpt><trkpt lat="38.7442387" lon="0.497042"><ele>0.0</ele><time>2026-04-29T18:58:41.025Z</time></trkpt><trkpt lat="38.7443118" lon="0.4970932"><ele>0.0</ele><time>2026-04-29T18:58:42.025Z</time></trkpt><trkpt lat="38.744385" lon="0.4971478"><ele>0.0</ele><time>2026-04-29T18:58:43.024Z</time></trkpt><trkpt lat="38.7444612" lon="0.4971957"><ele>0.0</ele><time>2026-04-29T18:58:44.024Z</time></trkpt><trkpt lat="38.7445355" lon="0.4972424"><ele>0.0</ele><time>2026-04-29T18:58:45.025Z</time></trkpt><trkpt lat="38.7446101" lon="0.4972934"><ele>0.0</ele><time>2026-04-29T18:58:46.024Z</time></trkpt><trkpt lat="38.744685" lon="0.4973438"><ele>0.0</ele><time>2026-04-29T18:58:47.024Z</time></trkpt><trkpt lat="38.7447601" lon="0.4973978"><ele>0.0</ele><time>2026-04-29T18:58:48.025Z</time></trkpt><trkpt lat="38.7448308" lon="0.4974598"><ele>0.0</ele><time>2026-04-29T18:58:49.025Z</time></trkpt><trkpt lat="38.7449021" lon="0.4975375"><ele>0.0</ele><time>2026-04-29T18:58:50.024Z</time></trkpt><trkpt lat="38.7449782" lon="0.4975979"><ele>0.0</ele><time>2026-04-29T18:58:51.025Z</time></trkpt><trkpt lat="38.7450563" lon="0.4976531"><ele>0.0</ele><time>2026-04-29T18:58:52.025Z</time></trkpt><trkpt lat="38.7451307" lon="0.4977084"><ele>0.0</ele><time>2026-04-29T18:58:53.025Z</time></trkpt><trkpt lat="38.7452064" lon="0.4977605"><ele>0.0</ele><time>2026-04-29T18:58:54.024Z</time></trkpt><trkpt lat="38.7452789" lon="0.4978164"><ele>0.0</ele><time>2026-04-29T18:58:55.024Z</time></trkpt><trkpt lat="38.7453532" lon="0.4978683"><ele>0.0</ele><time>2026-04-29T18:58:56.025Z</time></trkpt><trkpt lat="38.7454327" lon="0.4979197"><ele>0.0</ele><time>2026-04-29T18:58:57.024Z</time></trkpt><trkpt lat="38.745513" lon="0.4979702"><ele>0.0</ele><time>2026-04-29T18:58:58.024Z</time></trkpt><trkpt lat="38.7455927" lon="0.4980274"><ele>0.0</ele><time>2026-04-29T18:58:59.024Z</time></trkpt><trkpt lat="38.7457495" lon="0.4981443"><ele>0.0</ele><time>2026-04-29T18:59:01.024Z</time></trkpt><trkpt lat="38.7458251" lon="0.4982155"><ele>0.0</ele><time>2026-04-29T18:59:02.024Z</time></trkpt><trkpt lat="38.7458986" lon="0.498291"><ele>0.0</ele><time>2026-04-29T18:59:03.024Z</time></trkpt><trkpt lat="38.7459777" lon="0.4983579"><ele>0.0</ele><time>2026-04-29T18:59:04.025Z</time></trkpt><trkpt lat="38.7460535" lon="0.4984301"><ele>0.0</ele><time>2026-04-29T18:59:05.024Z</time></trkpt><trkpt lat="38.7461243" lon="0.4985007"><ele>0.0</ele><time>2026-04-29T18:59:06.025Z</time></trkpt><trkpt lat="38.7461956" lon="0.4985654"><ele>0.0</ele><time>2026-04-29T18:59:07.024Z</time></trkpt><trkpt lat="38.7462656" lon="0.4986178"><ele>0.0</ele><time>2026-04-29T18:59:08.025Z</time></trkpt><trkpt lat="38.7463413" lon="0.4986777"><ele>0.0</ele><time>2026-04-29T18:59:09.024Z</time></trkpt><trkpt lat="38.7464164" lon="0.498736"><ele>0.0</ele><time>2026-04-29T18:59:10.025Z</time></trkpt><trkpt lat="38.7464916" lon="0.4987913"><ele>0.0</ele><time>2026-04-29T18:59:11.025Z</time></trkpt><trkpt lat="38.7465663" lon="0.4988411"><ele>0.0</ele><time>2026-04-29T18:59:12.024Z</time></trkpt><trkpt lat="38.7466386" lon="0.498894"><ele>0.0</ele><time>2026-04-29T18:59:13.024Z</time></trkpt><trkpt lat="38.7467118" lon="0.498947"><ele>0.0</ele><time>2026-04-29T18:59:14.024Z</time></trkpt><trkpt lat="38.7467852" lon="0.4989997"><ele>0.0</ele><time>2026-04-29T18:59:15.025Z</time></trkpt><trkpt lat="38.7468591" lon="0.4990549"><ele>0.0</ele><time>2026-04-29T18:59:16.024Z</time></trkpt><trkpt lat="38.7469315" lon="0.4991103"><ele>0.0</ele><time>2026-04-29T18:59:17.025Z</time></trkpt><trkpt lat="38.7470066" lon="0.4991619"><ele>0.0</ele><time>2026-04-29T18:59:18.024Z</time></trkpt><trkpt lat="38.7470801" lon="0.4992107"><ele>0.0</ele><time>2026-04-29T18:59:19.024Z</time></trkpt><trkpt lat="38.747155" lon="0.4992575"><ele>0.0</ele><time>2026-04-29T18:59:20.024Z</time></trkpt><trkpt lat="38.7473079" lon="0.4993351"><ele>0.0</ele><time>2026-04-29T18:59:22.025Z</time></trkpt><trkpt lat="38.7473905" lon="0.4993773"><ele>0.0</ele><time>2026-04-29T18:59:23.024Z</time></trkpt><trkpt lat="38.7474652" lon="0.4994295"><ele>0.0</ele><time>2026-04-29T18:59:24.025Z</time></trkpt><trkpt lat="38.7475471" lon="0.4994787"><ele>0.0</ele><time>2026-04-29T18:59:25.025Z</time></trkpt><trkpt lat="38.7476231" lon="0.4995342"><ele>0.0</ele><time>2026-04-29T18:59:26.024Z</time></trkpt><trkpt lat="38.7476941" lon="0.4995866"><ele>0.0</ele><time>2026-04-29T18:59:27.024Z</time></trkpt><trkpt lat="38.7477669" lon="0.4996384"><ele>0.0</ele><time>2026-04-29T18:59:28.024Z</time></trkpt><trkpt lat="38.7478404" lon="0.4996918"><ele>0.0</ele><time>2026-04-29T18:59:29.025Z</time></trkpt><trkpt lat="38.7479137" lon="0.4997451"><ele>0.0</ele><time>2026-04-29T18:59:30.025Z</time></trkpt><trkpt lat="38.7479883" lon="0.4997982"><ele>0.0</ele><time>2026-04-29T18:59:31.024Z</time></trkpt><trkpt lat="38.7480633" lon="0.4998468"><ele>0.0</ele><time>2026-04-29T18:59:32.025Z</time></trkpt><trkpt lat="38.7481382" lon="0.4998979"><ele>0.0</ele><time>2026-04-29T18:59:33.025Z</time></trkpt><trkpt lat="38.7482129" lon="0.4999496"><ele>0.0</ele><time>2026-04-29T18:59:34.024Z</time></trkpt><trkpt lat="38.7482895" lon="0.5000045"><ele>0.0</ele><time>2026-04-29T18:59:35.024Z</time></trkpt><trkpt lat="38.7483663" lon="0.5000585"><ele>0.0</ele><time>2026-04-29T18:59:36.024Z</time></trkpt><trkpt lat="38.748446" lon="0.5001103"><ele>0.0</ele><time>2026-04-29T18:59:37.025Z</time></trkpt><trkpt lat="38.7485218" lon="0.5001618"><ele>0.0</ele><time>2026-04-29T18:59:38.025Z</time></trkpt><trkpt lat="38.7485953" lon="0.5002168"><ele>0.0</ele><time>2026-04-29T18:59:39.025Z</time></trkpt><trkpt lat="38.7486697" lon="0.5002704"><ele>0.0</ele><time>2026-04-29T18:59:40.025Z</time></trkpt><trkpt lat="38.7487434" lon="0.5003194"><ele>0.0</ele><time>2026-04-29T18:59:41.025Z</time></trkpt><trkpt lat="38.7488914" lon="0.5004216"><ele>0.0</ele><time>2026-04-29T18:59:43.024Z</time></trkpt><trkpt lat="38.7489652" lon="0.5004778"><ele>0.0</ele><time>2026-04-29T18:59:44.024Z</time></trkpt><trkpt lat="38.7490415" lon="0.5005329"><ele>0.0</ele><time>2026-04-29T18:59:45.025Z</time></trkpt><trkpt lat="38.7491198" lon="0.5005876"><ele>0.0</ele><time>2026-04-29T18:59:46.025Z</time></trkpt><trkpt lat="38.7491938" lon="0.5006456"><ele>0.0</ele><time>2026-04-29T18:59:47.025Z</time></trkpt><trkpt lat="38.7492685" lon="0.5007027"><ele>0.0</ele><time>2026-04-29T18:59:48.024Z</time></trkpt><trkpt lat="38.7493419" lon="0.5007608"><ele>0.0</ele><time>2026-04-29T18:59:49.024Z</time></trkpt><trkpt lat="38.749418" lon="0.5008176"><ele>0.0</ele><time>2026-04-29T18:59:50.024Z</time></trkpt><trkpt lat="38.7494951" lon="0.500881"><ele>0.0</ele><time>2026-04-29T18:59:51.024Z</time></trkpt><trkpt lat="38.7495705" lon="0.5009363"><ele>0.0</ele><time>2026-04-29T18:59:52.024Z</time></trkpt><trkpt lat="38.7496466" lon="0.5009953"><ele>0.0</ele><time>2026-04-29T18:59:53.025Z</time></trkpt><trkpt lat="38.749719" lon="0.5010569"><ele>0.0</ele><time>2026-04-29T18:59:54.024Z</time></trkpt><trkpt lat="38.7497891" lon="0.5011157"><ele>0.0</ele><time>2026-04-29T18:59:55.024Z</time></trkpt><trkpt lat="38.7498549" lon="0.5011762"><ele>0.0</ele><time>2026-04-29T18:59:56.024Z</time></trkpt><trkpt lat="38.7499284" lon="0.501228"><ele>0.0</ele><time>2026-04-29T18:59:57.025Z</time></trkpt><trkpt lat="38.7500062" lon="0.5012816"><ele>0.0</ele><time>2026-04-29T18:59:58.025Z</time></trkpt><trkpt lat="38.7500831" lon="0.5013348"><ele>0.0</ele><time>2026-04-29T18:59:59.024Z</time></trkpt><trkpt lat="38.7501611" lon="0.5013843"><ele>0.0</ele><time>2026-04-29T19:00:00.025Z</time></trkpt><trkpt lat="38.7502379" lon="0.5014399"><ele>0.0</ele><time>2026-04-29T19:00:01.025Z</time></trkpt><trkpt lat="38.7503194" lon="0.5014877"><ele>0.0</ele><time>2026-04-29T19:00:02.024Z</time></trkpt><trkpt lat="38.7503953" lon="0.5015355"><ele>0.0</ele><time>2026-04-29T19:00:03.024Z</time></trkpt><trkpt lat="38.7505344" lon="0.5016437"><ele>0.0</ele><time>2026-04-29T19:00:05.024Z</time></trkpt><trkpt lat="38.75061" lon="0.5016917"><ele>0.0</ele><time>2026-04-29T19:00:06.024Z</time></trkpt><trkpt lat="38.7506876" lon="0.5017417"><ele>0.0</ele><time>2026-04-29T19:00:07.024Z</time></trkpt><trkpt lat="38.7507632" lon="0.5017944"><ele>0.0</ele><time>2026-04-29T19:00:08.025Z</time></trkpt><trkpt lat="38.7508366" lon="0.5018483"><ele>0.0</ele><time>2026-04-29T19:00:09.024Z</time></trkpt><trkpt lat="38.7509127" lon="0.5018957"><ele>0.0</ele><time>2026-04-29T19:00:10.024Z</time></trkpt><trkpt lat="38.7509909" lon="0.5019437"><ele>0.0</ele><time>2026-04-29T19:00:11.025Z</time></trkpt><trkpt lat="38.751068" lon="0.5019947"><ele>0.0</ele><time>2026-04-29T19:00:12.024Z</time></trkpt><trkpt lat="38.7511434" lon="0.5020494"><ele>0.0</ele><time>2026-04-29T19:00:13.025Z</time></trkpt><trkpt lat="38.7512157" lon="0.5021013"><ele>0.0</ele><time>2026-04-29T19:00:14.024Z</time></trkpt><trkpt lat="38.7512856" lon="0.5021576"><ele>0.0</ele><time>2026-04-29T19:00:15.024Z</time></trkpt><trkpt lat="38.7513554" lon="0.5022189"><ele>0.0</ele><time>2026-04-29T19:00:16.025Z</time></trkpt><trkpt lat="38.75143" lon="0.5022763"><ele>0.0</ele><time>2026-04-29T19:00:17.025Z</time></trkpt><trkpt lat="38.7515051" lon="0.5023318"><ele>0.0</ele><time>2026-04-29T19:00:18.025Z</time></trkpt><trkpt lat="38.7515813" lon="0.5023828"><ele>0.0</ele><time>2026-04-29T19:00:19.024Z</time></trkpt><trkpt lat="38.7516609" lon="0.5024341"><ele>0.0</ele><time>2026-04-29T19:00:20.025Z</time></trkpt><trkpt lat="38.7517396" lon="0.5024838"><ele>0.0</ele><time>2026-04-29T19:00:21.025Z</time></trkpt><trkpt lat="38.7518205" lon="0.5025338"><ele>0.0</ele><time>2026-04-29T19:00:22.024Z</time></trkpt><trkpt lat="38.751905" lon="0.5025949"><ele>0.0</ele><time>2026-04-29T19:00:23.025Z</time></trkpt><trkpt lat="38.7519842" lon="0.5026483"><ele>0.0</ele><time>2026-04-29T19:00:24.025Z</time></trkpt><trkpt lat="38.7521396" lon="0.5027609"><ele>0.0</ele><time>2026-04-29T19:00:26.024Z</time></trkpt><trkpt lat="38.7522121" lon="0.5028148"><ele>0.0</ele><time>2026-04-29T19:00:27.025Z</time></trkpt><trkpt lat="38.7522865" lon="0.5028752"><ele>0.0</ele><time>2026-04-29T19:00:28.024Z</time></trkpt><trkpt lat="38.752365" lon="0.5029326"><ele>0.0</ele><time>2026-04-29T19:00:29.024Z</time></trkpt><trkpt lat="38.7524375" lon="0.5029984"><ele>0.0</ele><time>2026-04-29T19:00:30.025Z</time></trkpt><trkpt lat="38.7525103" lon="0.5030572"><ele>0.0</ele><time>2026-04-29T19:00:31.025Z</time></trkpt><trkpt lat="38.752581" lon="0.5031091"><ele>0.0</ele><time>2026-04-29T19:00:32.024Z</time></trkpt><trkpt lat="38.7526494" lon="0.5031589"><ele>0.0</ele><time>2026-04-29T19:00:33.024Z</time></trkpt><trkpt lat="38.752725" lon="0.5032073"><ele>0.0</ele><time>2026-04-29T19:00:34.025Z</time></trkpt><trkpt lat="38.7527986" lon="0.5032544"><ele>0.0</ele><time>2026-04-29T19:00:35.024Z</time></trkpt><trkpt lat="38.752872" lon="0.5033051"><ele>0.0</ele><time>2026-04-29T19:00:36.025Z</time></trkpt><trkpt lat="38.7529468" lon="0.5033566"><ele>0.0</ele><time>2026-04-29T19:00:37.024Z</time></trkpt><trkpt lat="38.7530192" lon="0.5034054"><ele>0.0</ele><time>2026-04-29T19:00:38.024Z</time></trkpt><trkpt lat="38.7530918" lon="0.5034585"><ele>0.0</ele><time>2026-04-29T19:00:39.024Z</time></trkpt><trkpt lat="38.753168" lon="0.5035221"><ele>0.0</ele><time>2026-04-29T19:00:40.025Z</time></trkpt><trkpt lat="38.7532447" lon="0.5035807"><ele>0.0</ele><time>2026-04-29T19:00:41.025Z</time></trkpt><trkpt lat="38.7533173" lon="0.5036378"><ele>0.0</ele><time>2026-04-29T19:00:42.024Z</time></trkpt><trkpt lat="38.7533891" lon="0.5036949"><ele>0.0</ele><time>2026-04-29T19:00:43.025Z</time></trkpt><trkpt lat="38.7534634" lon="0.5037486"><ele>0.0</ele><time>2026-04-29T19:00:44.025Z</time></trkpt><trkpt lat="38.7535353" lon="0.5038114"><ele>0.0</ele><time>2026-04-29T19:00:45.024Z</time></trkpt><trkpt lat="38.7536915" lon="0.5039178"><ele>0.0</ele><time>2026-04-29T19:00:47.024Z</time></trkpt><trkpt lat="38.7537618" lon="0.5039721"><ele>0.0</ele><time>2026-04-29T19:00:48.024Z</time></trkpt><trkpt lat="38.7538367" lon="0.5040279"><ele>0.0</ele><time>2026-04-29T19:00:49.025Z</time></trkpt><trkpt lat="38.753913" lon="0.5040847"><ele>0.0</ele><time>2026-04-29T19:00:50.024Z</time></trkpt><trkpt lat="38.7539797" lon="0.50414"><ele>0.0</ele><time>2026-04-29T19:00:51.025Z</time></trkpt><trkpt lat="38.7540518" lon="0.5041952"><ele>0.0</ele><time>2026-04-29T19:00:52.025Z</time></trkpt><trkpt lat="38.7541267" lon="0.5042504"><ele>0.0</ele><time>2026-04-29T19:00:53.024Z</time></trkpt><trkpt lat="38.754203" lon="0.5043026"><ele>0.0</ele><time>2026-04-29T19:00:54.024Z</time></trkpt><trkpt lat="38.7542779" lon="0.5043563"><ele>0.0</ele><time>2026-04-29T19:00:55.025Z</time></trkpt><trkpt lat="38.7543535" lon="0.5044119"><ele>0.0</ele><time>2026-04-29T19:00:56.025Z</time></trkpt><trkpt lat="38.7544255" lon="0.5044695"><ele>0.0</ele><time>2026-04-29T19:00:57.024Z</time></trkpt><trkpt lat="38.7545012" lon="0.5045214"><ele>0.0</ele><time>2026-04-29T19:00:58.024Z</time></trkpt><trkpt lat="38.754582" lon="0.5045762"><ele>0.0</ele><time>2026-04-29T19:00:59.025Z</time></trkpt><trkpt lat="38.7546628" lon="0.5046271"><ele>0.0</ele><time>2026-04-29T19:01:00.024Z</time></trkpt><trkpt lat="38.7547412" lon="0.5046714"><ele>0.0</ele><time>2026-04-29T19:01:01.025Z</time></trkpt><trkpt lat="38.7548211" lon="0.504716"><ele>0.0</ele><time>2026-04-29T19:01:02.024Z</time></trkpt><trkpt lat="38.7548996" lon="0.5047694"><ele>0.0</ele><time>2026-04-29T19:01:03.024Z</time></trkpt><trkpt lat="38.7549766" lon="0.5048242"><ele>0.0</ele><time>2026-04-29T19:01:04.025Z</time></trkpt><trkpt lat="38.7550532" lon="0.5048783"><ele>0.0</ele><time>2026-04-29T19:01:05.025Z</time></trkpt><trkpt lat="38.7551298" lon="0.5049289"><ele>0.0</ele><time>2026-04-29T19:01:06.025Z</time></trkpt><trkpt lat="38.7552052" lon="0.5049796"><ele>0.0</ele><time>2026-04-29T19:01:07.025Z</time></trkpt><trkpt lat="38.7553551" lon="0.5050798"><ele>0.0</ele><time>2026-04-29T19:01:09.024Z</time></trkpt><trkpt lat="38.7554359" lon="0.5051342"><ele>0.0</ele><time>2026-04-29T19:01:10.025Z</time></trkpt><trkpt lat="38.7555116" lon="0.5051857"><ele>0.0</ele><time>2026-04-29T19:01:11.025Z</time></trkpt><trkpt lat="38.7555853" lon="0.5052368"><ele>0.0</ele><time>2026-04-29T19:01:12.025Z</time></trkpt><trkpt lat="38.7556614" lon="0.5052846"><ele>0.0</ele><time>2026-04-29T19:01:13.025Z</time></trkpt><trkpt lat="38.7557368" lon="0.5053384"><ele>0.0</ele><time>2026-04-29T19:01:14.024Z</time></trkpt><trkpt lat="38.7558075" lon="0.5053959"><ele>0.0</ele><time>2026-04-29T19:01:15.025Z</time></trkpt><trkpt lat="38.7558846" lon="0.5054485"><ele>0.0</ele><time>2026-04-29T19:01:16.025Z</time></trkpt><trkpt lat="38.7559589" lon="0.5055013"><ele>0.0</ele><time>2026-04-29T19:01:17.024Z</time></trkpt><trkpt lat="38.7560308" lon="0.505554"><ele>0.0</ele><time>2026-04-29T19:01:18.024Z</time></trkpt><trkpt lat="38.7561065" lon="0.5056092"><ele>0.0</ele><time>2026-04-29T19:01:19.025Z</time></trkpt><trkpt lat="38.7561816" lon="0.5056641"><ele>0.0</ele><time>2026-04-29T19:01:20.025Z</time></trkpt><trkpt lat="38.7562582" lon="0.505717"><ele>0.0</ele><time>2026-04-29T19:01:21.024Z</time></trkpt><trkpt lat="38.7563333" lon="0.5057704"><ele>0.0</ele><time>2026-04-29T19:01:22.025Z</time></trkpt><trkpt lat="38.7564097" lon="0.5058194"><ele>0.0</ele><time>2026-04-29T19:01:23.025Z</time></trkpt><trkpt lat="38.7564878" lon="0.5058716"><ele>0.0</ele><time>2026-04-29T19:01:24.025Z</time></trkpt><trkpt lat="38.7565647" lon="0.5059296"><ele>0.0</ele><time>2026-04-29T19:01:25.024Z</time></trkpt><trkpt lat="38.7566414" lon="0.5059865"><ele>0.0</ele><time>2026-04-29T19:01:26.024Z</time></trkpt><trkpt lat="38.7567151" lon="0.5060544"><ele>0.0</ele><time>2026-04-29T19:01:27.025Z</time></trkpt><trkpt lat="38.756787" lon="0.5061074"><ele>0.0</ele><time>2026-04-29T19:01:28.024Z</time></trkpt><trkpt lat="38.7569428" lon="0.5062155"><ele>0.0</ele><time>2026-04-29T19:01:30.025Z</time></trkpt><trkpt lat="38.7570186" lon="0.5062715"><ele>0.0</ele><time>2026-04-29T19:01:31.025Z</time></trkpt><trkpt lat="38.7570921" lon="0.5063296"><ele>0.0</ele><time>2026-04-29T19:01:32.024Z</time></trkpt><trkpt lat="38.7571684" lon="0.5063747"><ele>0.0</ele><time>2026-04-29T19:01:33.025Z</time></trkpt><trkpt lat="38.7572423" lon="0.5064293"><ele>0.0</ele><time>2026-04-29T19:01:34.024Z</time></trkpt><trkpt lat="38.7573197" lon="0.5064805"><ele>0.0</ele><time>2026-04-29T19:01:35.024Z</time></trkpt><trkpt lat="38.7573976" lon="0.5065263"><ele>0.0</ele><time>2026-04-29T19:01:36.024Z</time></trkpt><trkpt lat="38.7574722" lon="0.5065725"><ele>0.0</ele><time>2026-04-29T19:01:37.025Z</time></trkpt><trkpt lat="38.7575453" lon="0.5066205"><ele>0.0</ele><time>2026-04-29T19:01:38.025Z</time></trkpt><trkpt lat="38.7576185" lon="0.5066698"><ele>0.0</ele><time>2026-04-29T19:01:39.025Z</time></trkpt><trkpt lat="38.7576934" lon="0.5067199"><ele>0.0</ele><time>2026-04-29T19:01:40.025Z</time></trkpt><trkpt lat="38.7577656" lon="0.5067681"><ele>0.0</ele><time>2026-04-29T19:01:41.024Z</time></trkpt><trkpt lat="38.7578402" lon="0.5068193"><ele>0.0</ele><time>2026-04-29T19:01:42.024Z</time></trkpt><trkpt lat="38.7579154" lon="0.50687"><ele>0.0</ele><time>2026-04-29T19:01:43.025Z</time></trkpt><trkpt lat="38.7579917" lon="0.5069242"><ele>0.0</ele><time>2026-04-29T19:01:44.025Z</time></trkpt><trkpt lat="38.7580655" lon="0.5069738"><ele>0.0</ele><time>2026-04-29T19:01:45.024Z</time></trkpt><trkpt lat="38.7581386" lon="0.5070261"><ele>0.0</ele><time>2026-04-29T19:01:46.024Z</time></trkpt><trkpt lat="38.7582106" lon="0.5070782"><ele>0.0</ele><time>2026-04-29T19:01:47.024Z</time></trkpt><trkpt lat="38.7582819" lon="0.5071317"><ele>0.0</ele><time>2026-04-29T19:01:48.025Z</time></trkpt><trkpt lat="38.7583563" lon="0.5071865"><ele>0.0</ele><time>2026-04-29T19:01:49.024Z</time></trkpt><trkpt lat="38.7585081" lon="0.507304"><ele>0.0</ele><time>2026-04-29T19:01:51.025Z</time></trkpt><trkpt lat="38.7585819" lon="0.5073726"><ele>0.0</ele><time>2026-04-29T19:01:52.025Z</time></trkpt><trkpt lat="38.7586581" lon="0.5074312"><ele>0.0</ele><time>2026-04-29T19:01:53.024Z</time></trkpt><trkpt lat="38.7587348" lon="0.5074867"><ele>0.0</ele><time>2026-04-29T19:01:54.024Z</time></trkpt><trkpt lat="38.75881" lon="0.5075411"><ele>0.0</ele><time>2026-04-29T19:01:55.025Z</time></trkpt><trkpt lat="38.7588862" lon="0.5075993"><ele>0.0</ele><time>2026-04-29T19:01:56.025Z</time></trkpt><trkpt lat="38.7589629" lon="0.5076592"><ele>0.0</ele><time>2026-04-29T19:01:57.024Z</time></trkpt><trkpt lat="38.7590381" lon="0.507719"><ele>0.0</ele><time>2026-04-29T19:01:58.024Z</time></trkpt><trkpt lat="38.7591103" lon="0.5077737"><ele>0.0</ele><time>2026-04-29T19:01:59.024Z</time></trkpt><trkpt lat="38.7591809" lon="0.5078293"><ele>0.0</ele><time>2026-04-29T19:02:00.024Z</time></trkpt><trkpt lat="38.7592568" lon="0.5078833"><ele>0.0</ele><time>2026-04-29T19:02:01.024Z</time></trkpt><trkpt lat="38.7593319" lon="0.5079326"><ele>0.0</ele><time>2026-04-29T19:02:02.025Z</time></trkpt><trkpt lat="38.7594025" lon="0.507988"><ele>0.0</ele><time>2026-04-29T19:02:03.025Z</time></trkpt><trkpt lat="38.7594795" lon="0.5080432"><ele>0.0</ele><time>2026-04-29T19:02:04.025Z</time></trkpt><trkpt lat="38.7595552" lon="0.5080997"><ele>0.0</ele><time>2026-04-29T19:02:05.024Z</time></trkpt><trkpt lat="38.7596272" lon="0.5081561"><ele>0.0</ele><time>2026-04-29T19:02:06.024Z</time></trkpt><trkpt lat="38.7597017" lon="0.5082175"><ele>0.0</ele><time>2026-04-29T19:02:07.024Z</time></trkpt><trkpt lat="38.7597767" lon="0.5082747"><ele>0.0</ele><time>2026-04-29T19:02:08.024Z</time></trkpt><trkpt lat="38.7598501" lon="0.5083317"><ele>0.0</ele><time>2026-04-29T19:02:09.024Z</time></trkpt><trkpt lat="38.7599233" lon="0.5083911"><ele>0.0</ele><time>2026-04-29T19:02:10.025Z</time></trkpt><trkpt lat="38.7599952" lon="0.5084496"><ele>0.0</ele><time>2026-04-29T19:02:11.025Z</time></trkpt><trkpt lat="38.7601498" lon="0.5085538"><ele>0.0</ele><time>2026-04-29T19:02:13.025Z</time></trkpt><trkpt lat="38.7602252" lon="0.50861"><ele>0.0</ele><time>2026-04-29T19:02:14.025Z</time></trkpt><trkpt lat="38.7603017" lon="0.5086579"><ele>0.0</ele><time>2026-04-29T19:02:15.025Z</time></trkpt><trkpt lat="38.7603768" lon="0.5087134"><ele>0.0</ele><time>2026-04-29T19:02:16.024Z</time></trkpt><trkpt lat="38.7604474" lon="0.5087701"><ele>0.0</ele><time>2026-04-29T19:02:17.024Z</time></trkpt><trkpt lat="38.760523" lon="0.5088229"><ele>0.0</ele><time>2026-04-29T19:02:18.024Z</time></trkpt><trkpt lat="38.7605971" lon="0.5088788"><ele>0.0</ele><time>2026-04-29T19:02:19.025Z</time></trkpt><trkpt lat="38.7606719" lon="0.5089347"><ele>0.0</ele><time>2026-04-29T19:02:20.024Z</time></trkpt><trkpt lat="38.7607479" lon="0.5089881"><ele>0.0</ele><time>2026-04-29T19:02:21.024Z</time></trkpt><trkpt lat="38.7608246" lon="0.5090426"><ele>0.0</ele><time>2026-04-29T19:02:22.024Z</time></trkpt><trkpt lat="38.7609044" lon="0.5090946"><ele>0.0</ele><time>2026-04-29T19:02:23.025Z</time></trkpt><trkpt lat="38.7609844" lon="0.5091544"><ele>0.0</ele><time>2026-04-29T19:02:24.025Z</time></trkpt><trkpt lat="38.7610644" lon="0.5092049"><ele>0.0</ele><time>2026-04-29T19:02:25.025Z</time></trkpt><trkpt lat="38.7611417" lon="0.5092565"><ele>0.0</ele><time>2026-04-29T19:02:26.025Z</time></trkpt><trkpt lat="38.7612183" lon="0.5093101"><ele>0.0</ele><time>2026-04-29T19:02:27.024Z</time></trkpt><trkpt lat="38.7612964" lon="0.5093692"><ele>0.0</ele><time>2026-04-29T19:02:28.024Z</time></trkpt><trkpt lat="38.7613749" lon="0.5094307"><ele>0.0</ele><time>2026-04-29T19:02:29.025Z</time></trkpt><trkpt lat="38.7614427" lon="0.5094941"><ele>0.0</ele><time>2026-04-29T19:02:30.025Z</time></trkpt><trkpt lat="38.7615108" lon="0.509556"><ele>0.0</ele><time>2026-04-29T19:02:31.024Z</time></trkpt><trkpt lat="38.7615809" lon="0.5096215"><ele>0.0</ele><time>2026-04-29T19:02:32.024Z</time></trkpt><trkpt lat="38.7617359" lon="0.5097358"><ele>0.0</ele><time>2026-04-29T19:02:34.024Z</time></trkpt><trkpt lat="38.7618102" lon="0.5097871"><ele>0.0</ele><time>2026-04-29T19:02:35.024Z</time></trkpt><trkpt lat="38.7618865" lon="0.5098429"><ele>0.0</ele><time>2026-04-29T19:02:36.024Z</time></trkpt><trkpt lat="38.7619647" lon="0.5098961"><ele>0.0</ele><time>2026-04-29T19:02:37.024Z</time></trkpt><trkpt lat="38.7620415" lon="0.5099535"><ele>0.0</ele><time>2026-04-29T19:02:38.025Z</time></trkpt><trkpt lat="38.7621182" lon="0.5100076"><ele>0.0</ele><time>2026-04-29T19:02:39.024Z</time></trkpt><trkpt lat="38.7621921" lon="0.510062"><ele>0.0</ele><time>2026-04-29T19:02:40.024Z</time></trkpt><trkpt lat="38.7622657" lon="0.5101168"><ele>0.0</ele><time>2026-04-29T19:02:41.024Z</time></trkpt><trkpt lat="38.7623387" lon="0.5101707"><ele>0.0</ele><time>2026-04-29T19:02:42.025Z</time></trkpt><trkpt lat="38.7624105" lon="0.5102269"><ele>0.0</ele><time>2026-04-29T19:02:43.025Z</time></trkpt><trkpt lat="38.7624806" lon="0.5102856"><ele>0.0</ele><time>2026-04-29T19:02:44.024Z</time></trkpt><trkpt lat="38.7625537" lon="0.5103462"><ele>0.0</ele><time>2026-04-29T19:02:45.024Z</time></trkpt><trkpt lat="38.7626283" lon="0.5103946"><ele>0.0</ele><time>2026-04-29T19:02:46.024Z</time></trkpt><trkpt lat="38.7627005" lon="0.510444"><ele>0.0</ele><time>2026-04-29T19:02:47.025Z</time></trkpt><trkpt lat="38.762775" lon="0.5104928"><ele>0.0</ele><time>2026-04-29T19:02:48.024Z</time></trkpt><trkpt lat="38.7628512" lon="0.51054"><ele>0.0</ele><time>2026-04-29T19:02:49.025Z</time></trkpt><trkpt lat="38.762928" lon="0.5105888"><ele>0.0</ele><time>2026-04-29T19:02:50.024Z</time></trkpt><trkpt lat="38.763002" lon="0.5106478"><ele>0.0</ele><time>2026-04-29T19:02:51.025Z</time></trkpt><trkpt lat="38.7630779" lon="0.5106996"><ele>0.0</ele><time>2026-04-29T19:02:52.024Z</time></trkpt><trkpt lat="38.7631564" lon="0.5107492"><ele>0.0</ele><time>2026-04-29T19:02:53.025Z</time></trkpt><trkpt lat="38.7633129" lon="0.510847"><ele>0.0</ele><time>2026-04-29T19:02:55.024Z</time></trkpt><trkpt lat="38.7633901" lon="0.5108989"><ele>0.0</ele><time>2026-04-29T19:02:56.025Z</time></trkpt><trkpt lat="38.7634663" lon="0.5109506"><ele>0.0</ele><time>2026-04-29T19:02:57.024Z</time></trkpt><trkpt lat="38.7635418" lon="0.5110025"><ele>0.0</ele><time>2026-04-29T19:02:58.024Z</time></trkpt><trkpt lat="38.7636179" lon="0.5110571"><ele>0.0</ele><time>2026-04-29T19:02:59.025Z</time></trkpt><trkpt lat="38.7636977" lon="0.5111088"><ele>0.0</ele><time>2026-04-29T19:03:00.024Z</time></trkpt><trkpt lat="38.7637762" lon="0.5111608"><ele>0.0</ele><time>2026-04-29T19:03:01.024Z</time></trkpt><trkpt lat="38.7638528" lon="0.5112133"><ele>0.0</ele><time>2026-04-29T19:03:02.024Z</time></trkpt><trkpt lat="38.7639348" lon="0.511256"><ele>0.0</ele><time>2026-04-29T19:03:03.024Z</time></trkpt><trkpt lat="38.7640159" lon="0.5113189"><ele>0.0</ele><time>2026-04-29T19:03:04.025Z</time></trkpt><trkpt lat="38.7640847" lon="0.5113842"><ele>0.0</ele><time>2026-04-29T19:03:05.024Z</time></trkpt><trkpt lat="38.7641575" lon="0.5114466"><ele>0.0</ele><time>2026-04-29T19:03:06.024Z</time></trkpt><trkpt lat="38.764235" lon="0.5115038"><ele>0.0</ele><time>2026-04-29T19:03:07.025Z</time></trkpt><trkpt lat="38.7643159" lon="0.5115608"><ele>0.0</ele><time>2026-04-29T19:03:08.024Z</time></trkpt><trkpt lat="38.7643931" lon="0.5116143"><ele>0.0</ele><time>2026-04-29T19:03:09.025Z</time></trkpt><trkpt lat="38.7644654" lon="0.5116688"><ele>0.0</ele><time>2026-04-29T19:03:10.024Z</time></trkpt><trkpt lat="38.7645372" lon="0.5117245"><ele>0.0</ele><time>2026-04-29T19:03:11.025Z</time></trkpt><trkpt lat="38.7646075" lon="0.5117768"><ele>0.0</ele><time>2026-04-29T19:03:12.025Z</time></trkpt><trkpt lat="38.7646816" lon="0.5118281"><ele>0.0</ele><time>2026-04-29T19:03:13.024Z</time></trkpt><trkpt lat="38.7647555" lon="0.5118772"><ele>0.0</ele><time>2026-04-29T19:03:14.025Z</time></trkpt><trkpt lat="38.7649036" lon="0.5119882"><ele>0.0</ele><time>2026-04-29T19:03:16.024Z</time></trkpt><trkpt lat="38.7649817" lon="0.5120463"><ele>0.0</ele><time>2026-04-29T19:03:17.025Z</time></trkpt><trkpt lat="38.7650613" lon="0.5121006"><ele>0.0</ele><time>2026-04-29T19:03:18.024Z</time></trkpt><trkpt lat="38.7651386" lon="0.512157"><ele>0.0</ele><time>2026-04-29T19:03:19.024Z</time></trkpt><trkpt lat="38.7652107" lon="0.5122169"><ele>0.0</ele><time>2026-04-29T19:03:20.024Z</time></trkpt><trkpt lat="38.7652811" lon="0.5122709"><ele>0.0</ele><time>2026-04-29T19:03:21.024Z</time></trkpt><trkpt lat="38.7653522" lon="0.512322"><ele>0.0</ele><time>2026-04-29T19:03:22.025Z</time></trkpt><trkpt lat="38.765427" lon="0.5123738"><ele>0.0</ele><time>2026-04-29T19:03:23.024Z</time></trkpt><trkpt lat="38.765499" lon="0.5124254"><ele>0.0</ele><time>2026-04-29T19:03:24.024Z</time></trkpt><trkpt lat="38.7655776" lon="0.512484"><ele>0.0</ele><time>2026-04-29T19:03:25.024Z</time></trkpt><trkpt lat="38.765656" lon="0.5125413"><ele>0.0</ele><time>2026-04-29T19:03:26.025Z</time></trkpt><trkpt lat="38.7657273" lon="0.512601"><ele>0.0</ele><time>2026-04-29T19:03:27.024Z</time></trkpt><trkpt lat="38.7658017" lon="0.5126587"><ele>0.0</ele><time>2026-04-29T19:03:28.024Z</time></trkpt><trkpt lat="38.7658781" lon="0.5127096"><ele>0.0</ele><time>2026-04-29T19:03:29.024Z</time></trkpt><trkpt lat="38.7659532" lon="0.5127597"><ele>0.0</ele><time>2026-04-29T19:03:30.024Z</time></trkpt><trkpt lat="38.7660312" lon="0.5128059"><ele>0.0</ele><time>2026-04-29T19:03:31.024Z</time></trkpt><trkpt lat="38.7661081" lon="0.5128551"><ele>0.0</ele><time>2026-04-29T19:03:32.024Z</time></trkpt><trkpt lat="38.7661891" lon="0.5129067"><ele>0.0</ele><time>2026-04-29T19:03:33.025Z</time></trkpt><trkpt lat="38.7662663" lon="0.5129614"><ele>0.0</ele><time>2026-04-29T19:03:34.025Z</time></trkpt><trkpt lat="38.7663431" lon="0.513012"><ele>0.0</ele><time>2026-04-29T19:03:35.025Z</time></trkpt><trkpt lat="38.7664945" lon="0.5131232"><ele>0.0</ele><time>2026-04-29T19:03:37.024Z</time></trkpt><trkpt lat="38.7665669" lon="0.513193"><ele>0.0</ele><time>2026-04-29T19:03:38.025Z</time></trkpt><trkpt lat="38.7666413" lon="0.5132519"><ele>0.0</ele><time>2026-04-29T19:03:39.024Z</time></trkpt><trkpt lat="38.7667147" lon="0.5133198"><ele>0.0</ele><time>2026-04-29T19:03:40.024Z</time></trkpt><trkpt lat="38.7667915" lon="0.5133786"><ele>0.0</ele><time>2026-04-29T19:03:41.024Z</time></trkpt><trkpt lat="38.766867" lon="0.5134333"><ele>0.0</ele><time>2026-04-29T19:03:42.024Z</time></trkpt><trkpt lat="38.7669419" lon="0.5134868"><ele>0.0</ele><time>2026-04-29T19:03:43.024Z</time></trkpt><trkpt lat="38.7670197" lon="0.5135374"><ele>0.0</ele><time>2026-04-29T19:03:44.025Z</time></trkpt><trkpt lat="38.7670981" lon="0.5135855"><ele>0.0</ele><time>2026-04-29T19:03:45.024Z</time></trkpt><trkpt lat="38.7671706" lon="0.5136353"><ele>0.0</ele><time>2026-04-29T19:03:46.023Z</time></trkpt><trkpt lat="38.7672417" lon="0.5136836"><ele>0.0</ele><time>2026-04-29T19:03:47.023Z</time></trkpt><trkpt lat="38.7673193" lon="0.5137339"><ele>0.0</ele><time>2026-04-29T19:03:48.023Z</time></trkpt><trkpt lat="38.7673951" lon="0.5137922"><ele>0.0</ele><time>2026-04-29T19:03:49.023Z</time></trkpt><trkpt lat="38.7674687" lon="0.5138437"><ele>0.0</ele><time>2026-04-29T19:03:50.024Z</time></trkpt><trkpt lat="38.7675419" lon="0.5138973"><ele>0.0</ele><time>2026-04-29T19:03:51.023Z</time></trkpt><trkpt lat="38.7676171" lon="0.5139473"><ele>0.0</ele><time>2026-04-29T19:03:52.023Z</time></trkpt><trkpt lat="38.767692" lon="0.5139988"><ele>0.0</ele><time>2026-04-29T19:03:53.023Z</time></trkpt><trkpt lat="38.7677669" lon="0.5140473"><ele>0.0</ele><time>2026-04-29T19:03:54.023Z</time></trkpt><trkpt lat="38.7678422" lon="0.5140924"><ele>0.0</ele><time>2026-04-29T19:03:55.023Z</time></trkpt><trkpt lat="38.767914" lon="0.5141385"><ele>0.0</ele><time>2026-04-29T19:03:56.024Z</time></trkpt><trkpt lat="38.7680644" lon="0.5142386"><ele>0.0</ele><time>2026-04-29T19:03:58.023Z</time></trkpt><trkpt lat="38.7681415" lon="0.5142894"><ele>0.0</ele><time>2026-04-29T19:03:59.023Z</time></trkpt><trkpt lat="38.7682198" lon="0.5143498"><ele>0.0</ele><time>2026-04-29T19:04:00.023Z</time></trkpt><trkpt lat="38.7682938" lon="0.5144102"><ele>0.0</ele><time>2026-04-29T19:04:01.023Z</time></trkpt><trkpt lat="38.7683756" lon="0.5144676"><ele>0.0</ele><time>2026-04-29T19:04:02.024Z</time></trkpt><trkpt lat="38.7684557" lon="0.5145352"><ele>0.0</ele><time>2026-04-29T19:04:03.024Z</time></trkpt><trkpt lat="38.7685317" lon="0.5146019"><ele>0.0</ele><time>2026-04-29T19:04:04.023Z</time></trkpt><trkpt lat="38.7686053" lon="0.514673"><ele>0.0</ele><time>2026-04-29T19:04:05.023Z</time></trkpt><trkpt lat="38.7686816" lon="0.5147393"><ele>0.0</ele><time>2026-04-29T19:04:06.024Z</time></trkpt><trkpt lat="38.7687567" lon="0.5148045"><ele>0.0</ele><time>2026-04-29T19:04:07.023Z</time></trkpt><trkpt lat="38.7688302" lon="0.5148652"><ele>0.0</ele><time>2026-04-29T19:04:08.023Z</time></trkpt><trkpt lat="38.7688978" lon="0.5149477"><ele>0.0</ele><time>2026-04-29T19:04:09.024Z</time></trkpt><trkpt lat="38.7689663" lon="0.5150136"><ele>0.0</ele><time>2026-04-29T19:04:10.023Z</time></trkpt><trkpt lat="38.7690369" lon="0.5150716"><ele>0.0</ele><time>2026-04-29T19:04:11.023Z</time></trkpt><trkpt lat="38.7691071" lon="0.5151282"><ele>0.0</ele><time>2026-04-29T19:04:12.023Z</time></trkpt><trkpt lat="38.7691787" lon="0.5151822"><ele>0.0</ele><time>2026-04-29T19:04:13.024Z</time></trkpt><trkpt lat="38.7692546" lon="0.5152332"><ele>0.0</ele><time>2026-04-29T19:04:14.023Z</time></trkpt><trkpt lat="38.7693311" lon="0.5152846"><ele>0.0</ele><time>2026-04-29T19:04:15.023Z</time></trkpt><trkpt lat="38.7694039" lon="0.515349"><ele>0.0</ele><time>2026-04-29T19:04:16.024Z</time></trkpt><trkpt lat="38.7694865" lon="0.5153983"><ele>0.0</ele><time>2026-04-29T19:04:17.023Z</time></trkpt><trkpt lat="38.7695614" lon="0.5154508"><ele>0.0</ele><time>2026-04-29T19:04:18.023Z</time></trkpt><trkpt lat="38.7697052" lon="0.5155822"><ele>0.0</ele><time>2026-04-29T19:04:20.024Z</time></trkpt><trkpt lat="38.7697828" lon="0.5156376"><ele>0.0</ele><time>2026-04-29T19:04:21.023Z</time></trkpt><trkpt lat="38.7698568" lon="0.5156922"><ele>0.0</ele><time>2026-04-29T19:04:22.024Z</time></trkpt><trkpt lat="38.7699286" lon="0.515752"><ele>0.0</ele><time>2026-04-29T19:04:23.023Z</time></trkpt><trkpt lat="38.7700045" lon="0.515809"><ele>0.0</ele><time>2026-04-29T19:04:24.024Z</time></trkpt><trkpt lat="38.7700798" lon="0.51588"><ele>0.0</ele><time>2026-04-29T19:04:25.023Z</time></trkpt><trkpt lat="38.7701524" lon="0.5159402"><ele>0.0</ele><time>2026-04-29T19:04:26.023Z</time></trkpt><trkpt lat="38.7702278" lon="0.5159955"><ele>0.0</ele><time>2026-04-29T19:04:27.023Z</time></trkpt><trkpt lat="38.7703032" lon="0.5160544"><ele>0.0</ele><time>2026-04-29T19:04:28.024Z</time></trkpt><trkpt lat="38.7703754" lon="0.5161107"><ele>0.0</ele><time>2026-04-29T19:04:29.024Z</time></trkpt><trkpt lat="38.7704456" lon="0.5161692"><ele>0.0</ele><time>2026-04-29T19:04:30.023Z</time></trkpt><trkpt lat="38.7705142" lon="0.5162399"><ele>0.0</ele><time>2026-04-29T19:04:31.024Z</time></trkpt><trkpt lat="38.7705882" lon="0.5162892"><ele>0.0</ele><time>2026-04-29T19:04:32.023Z</time></trkpt><trkpt lat="38.7706588" lon="0.5163363"><ele>0.0</ele><time>2026-04-29T19:04:33.024Z</time></trkpt><trkpt lat="38.7707319" lon="0.5163884"><ele>0.0</ele><time>2026-04-29T19:04:34.023Z</time></trkpt><trkpt lat="38.7708109" lon="0.5164321"><ele>0.0</ele><time>2026-04-29T19:04:35.024Z</time></trkpt><trkpt lat="38.7708868" lon="0.5164832"><ele>0.0</ele><time>2026-04-29T19:04:36.024Z</time></trkpt><trkpt lat="38.7709603" lon="0.5165367"><ele>0.0</ele><time>2026-04-29T19:04:37.023Z</time></trkpt><trkpt lat="38.7710378" lon="0.516584"><ele>0.0</ele><time>2026-04-29T19:04:38.023Z</time></trkpt><trkpt lat="38.771116" lon="0.516635"><ele>0.0</ele><time>2026-04-29T19:04:39.024Z</time></trkpt><trkpt lat="38.7712685" lon="0.516732"><ele>0.0</ele><time>2026-04-29T19:04:41.024Z</time></trkpt><trkpt lat="38.771339" lon="0.5167807"><ele>0.0</ele><time>2026-04-29T19:04:42.023Z</time></trkpt><trkpt lat="38.7714131" lon="0.5168315"><ele>0.0</ele><time>2026-04-29T19:04:43.023Z</time></trkpt><trkpt lat="38.77149" lon="0.5168831"><ele>0.0</ele><time>2026-04-29T19:04:44.023Z</time></trkpt><trkpt lat="38.7715666" lon="0.516936"><ele>0.0</ele><time>2026-04-29T19:04:45.023Z</time></trkpt><trkpt lat="38.7716437" lon="0.5169876"><ele>0.0</ele><time>2026-04-29T19:04:46.023Z</time></trkpt><trkpt lat="38.7717157" lon="0.517039"><ele>0.0</ele><time>2026-04-29T19:04:47.023Z</time></trkpt><trkpt lat="38.7717882" lon="0.5170927"><ele>0.0</ele><time>2026-04-29T19:04:48.024Z</time></trkpt><trkpt lat="38.7718663" lon="0.5171428"><ele>0.0</ele><time>2026-04-29T19:04:49.023Z</time></trkpt><trkpt lat="38.7719433" lon="0.5171975"><ele>0.0</ele><time>2026-04-29T19:04:50.024Z</time></trkpt><trkpt lat="38.7720156" lon="0.5172727"><ele>0.0</ele><time>2026-04-29T19:04:51.024Z</time></trkpt><trkpt lat="38.7720889" lon="0.5173359"><ele>0.0</ele><time>2026-04-29T19:04:52.024Z</time></trkpt><trkpt lat="38.7721632" lon="0.5173954"><ele>0.0</ele><time>2026-04-29T19:04:53.023Z</time></trkpt><trkpt lat="38.7722398" lon="0.517446"><ele>0.0</ele><time>2026-04-29T19:04:54.024Z</time></trkpt><trkpt lat="38.7723167" lon="0.517497"><ele>0.0</ele><time>2026-04-29T19:04:55.024Z</time></trkpt><trkpt lat="38.7723861" lon="0.5175473"><ele>0.0</ele><time>2026-04-29T19:04:56.023Z</time></trkpt><trkpt lat="38.7724601" lon="0.5176004"><ele>0.0</ele><time>2026-04-29T19:04:57.023Z</time></trkpt><trkpt lat="38.7725366" lon="0.5176538"><ele>0.0</ele><time>2026-04-29T19:04:58.024Z</time></trkpt><trkpt lat="38.7726147" lon="0.5176974"><ele>0.0</ele><time>2026-04-29T19:04:59.024Z</time></trkpt><trkpt lat="38.7726897" lon="0.5177474"><ele>0.0</ele><time>2026-04-29T19:05:00.024Z</time></trkpt><trkpt lat="38.7728345" lon="0.5178598"><ele>0.0</ele><time>2026-04-29T19:05:02.023Z</time></trkpt><trkpt lat="38.7729045" lon="0.517916"><ele>0.0</ele><time>2026-04-29T19:05:03.023Z</time></trkpt><trkpt lat="38.7729774" lon="0.517967"><ele>0.0</ele><time>2026-04-29T19:05:04.023Z</time></trkpt><trkpt lat="38.7730575" lon="0.5180141"><ele>0.0</ele><time>2026-04-29T19:05:05.024Z</time></trkpt><trkpt lat="38.7731333" lon="0.5180609"><ele>0.0</ele><time>2026-04-29T19:05:06.023Z</time></trkpt><trkpt lat="38.7732026" lon="0.5181215"><ele>0.0</ele><time>2026-04-29T19:05:07.023Z</time></trkpt><trkpt lat="38.7732712" lon="0.5181777"><ele>0.0</ele><time>2026-04-29T19:05:08.023Z</time></trkpt><trkpt lat="38.773342" lon="0.5182239"><ele>0.0</ele><time>2026-04-29T19:05:09.024Z</time></trkpt><trkpt lat="38.7734164" lon="0.5182681"><ele>0.0</ele><time>2026-04-29T19:05:10.024Z</time></trkpt><trkpt lat="38.7734957" lon="0.5183162"><ele>0.0</ele><time>2026-04-29T19:05:11.023Z</time></trkpt><trkpt lat="38.7735799" lon="0.5183611"><ele>0.0</ele><time>2026-04-29T19:05:12.023Z</time></trkpt><trkpt lat="38.7736608" lon="0.5184116"><ele>0.0</ele><time>2026-04-29T19:05:13.023Z</time></trkpt><trkpt lat="38.7737381" lon="0.5184574"><ele>0.0</ele><time>2026-04-29T19:05:14.023Z</time></trkpt><trkpt lat="38.773819" lon="0.518508"><ele>0.0</ele><time>2026-04-29T19:05:15.024Z</time></trkpt><trkpt lat="38.7738965" lon="0.5185657"><ele>0.0</ele><time>2026-04-29T19:05:16.023Z</time></trkpt><trkpt lat="38.773976" lon="0.518621"><ele>0.0</ele><time>2026-04-29T19:05:17.023Z</time></trkpt><trkpt lat="38.7740517" lon="0.5186743"><ele>0.0</ele><time>2026-04-29T19:05:18.023Z</time></trkpt><trkpt lat="38.7741294" lon="0.5187261"><ele>0.0</ele><time>2026-04-29T19:05:19.023Z</time></trkpt><trkpt lat="38.7742036" lon="0.5187786"><ele>0.0</ele><time>2026-04-29T19:05:20.023Z</time></trkpt><trkpt lat="38.7742768" lon="0.5188358"><ele>0.0</ele><time>2026-04-29T19:05:21.023Z</time></trkpt><trkpt lat="38.7744194" lon="0.5189703"><ele>0.0</ele><time>2026-04-29T19:05:23.023Z</time></trkpt><trkpt lat="38.7744906" lon="0.5190317"><ele>0.0</ele><time>2026-04-29T19:05:24.024Z</time></trkpt><trkpt lat="38.7745634" lon="0.5190891"><ele>0.0</ele><time>2026-04-29T19:05:25.023Z</time></trkpt><trkpt lat="38.7746382" lon="0.5191484"><ele>0.0</ele><time>2026-04-29T19:05:26.023Z</time></trkpt><trkpt lat="38.7747135" lon="0.5192061"><ele>0.0</ele><time>2026-04-29T19:05:27.024Z</time></trkpt><trkpt lat="38.7747871" lon="0.519266"><ele>0.0</ele><time>2026-04-29T19:05:28.023Z</time></trkpt><trkpt lat="38.7748617" lon="0.5193229"><ele>0.0</ele><time>2026-04-29T19:05:29.024Z</time></trkpt><trkpt lat="38.7749395" lon="0.5193794"><ele>0.0</ele><time>2026-04-29T19:05:30.024Z</time></trkpt><trkpt lat="38.7750168" lon="0.5194332"><ele>0.0</ele><time>2026-04-29T19:05:31.024Z</time></trkpt><trkpt lat="38.7750918" lon="0.5194884"><ele>0.0</ele><time>2026-04-29T19:05:32.024Z</time></trkpt><trkpt lat="38.7751653" lon="0.5195417"><ele>0.0</ele><time>2026-04-29T19:05:33.023Z</time></trkpt><trkpt lat="38.7752417" lon="0.5195966"><ele>0.0</ele><time>2026-04-29T19:05:34.024Z</time></trkpt><trkpt lat="38.7753168" lon="0.5196532"><ele>0.0</ele><time>2026-04-29T19:05:35.023Z</time></trkpt><trkpt lat="38.7753904" lon="0.5197071"><ele>0.0</ele><time>2026-04-29T19:05:36.023Z</time></trkpt><trkpt lat="38.7754667" lon="0.5197591"><ele>0.0</ele><time>2026-04-29T19:05:37.024Z</time></trkpt><trkpt lat="38.7755461" lon="0.5198162"><ele>0.0</ele><time>2026-04-29T19:05:38.023Z</time></trkpt><trkpt lat="38.7756232" lon="0.5198716"><ele>0.0</ele><time>2026-04-29T19:05:39.023Z</time></trkpt><trkpt lat="38.7756953" lon="0.519927"><ele>0.0</ele><time>2026-04-29T19:05:40.023Z</time></trkpt><trkpt lat="38.7757716" lon="0.519977"><ele>0.0</ele><time>2026-04-29T19:05:41.023Z</time></trkpt><trkpt lat="38.7758468" lon="0.5200283"><ele>0.0</ele><time>2026-04-29T19:05:42.024Z</time></trkpt><trkpt lat="38.7759985" lon="0.5201302"><ele>0.0</ele><time>2026-04-29T19:05:44.023Z</time></trkpt><trkpt lat="38.7760719" lon="0.5201851"><ele>0.0</ele><time>2026-04-29T19:05:45.023Z</time></trkpt><trkpt lat="38.7761454" lon="0.5202353"><ele>0.0</ele><time>2026-04-29T19:05:46.024Z</time></trkpt><trkpt lat="38.7762174" lon="0.5202811"><ele>0.0</ele><time>2026-04-29T19:05:47.024Z</time></trkpt><trkpt lat="38.7762921" lon="0.5203271"><ele>0.0</ele><time>2026-04-29T19:05:48.023Z</time></trkpt><trkpt lat="38.7763667" lon="0.520374"><ele>0.0</ele><time>2026-04-29T19:05:49.024Z</time></trkpt><trkpt lat="38.7764402" lon="0.5204208"><ele>0.0</ele><time>2026-04-29T19:05:50.023Z</time></trkpt><trkpt lat="38.776512" lon="0.5204687"><ele>0.0</ele><time>2026-04-29T19:05:51.023Z</time></trkpt><trkpt lat="38.7765908" lon="0.520517"><ele>0.0</ele><time>2026-04-29T19:05:52.023Z</time></trkpt><trkpt lat="38.7766711" lon="0.5205654"><ele>0.0</ele><time>2026-04-29T19:05:53.024Z</time></trkpt><trkpt lat="38.7767395" lon="0.5206223"><ele>0.0</ele><time>2026-04-29T19:05:54.024Z</time></trkpt><trkpt lat="38.7768151" lon="0.5206731"><ele>0.0</ele><time>2026-04-29T19:05:55.024Z</time></trkpt><trkpt lat="38.7768871" lon="0.5207205"><ele>0.0</ele><time>2026-04-29T19:05:56.024Z</time></trkpt><trkpt lat="38.7769616" lon="0.5207684"><ele>0.0</ele><time>2026-04-29T19:05:57.023Z</time></trkpt><trkpt lat="38.7770369" lon="0.5208149"><ele>0.0</ele><time>2026-04-29T19:05:58.024Z</time></trkpt><trkpt lat="38.7771132" lon="0.5208709"><ele>0.0</ele><time>2026-04-29T19:05:59.023Z</time></trkpt><trkpt lat="38.7771957" lon="0.5209191"><ele>0.0</ele><time>2026-04-29T19:06:00.024Z</time></trkpt><trkpt lat="38.7772757" lon="0.5209689"><ele>0.0</ele><time>2026-04-29T19:06:01.023Z</time></trkpt><trkpt lat="38.7773517" lon="0.5210342"><ele>0.0</ele><time>2026-04-29T19:06:02.024Z</time></trkpt><trkpt lat="38.7774963" lon="0.5211371"><ele>0.0</ele><time>2026-04-29T19:06:04.023Z</time></trkpt><trkpt lat="38.7775771" lon="0.5211882"><ele>0.0</ele><time>2026-04-29T19:06:05.023Z</time></trkpt><trkpt lat="38.7776547" lon="0.5212457"><ele>0.0</ele><time>2026-04-29T19:06:06.023Z</time></trkpt><trkpt lat="38.7777272" lon="0.5213055"><ele>0.0</ele><time>2026-04-29T19:06:07.024Z</time></trkpt><trkpt lat="38.7778033" lon="0.5213639"><ele>0.0</ele><time>2026-04-29T19:06:08.023Z</time></trkpt><trkpt lat="38.7778783" lon="0.5214185"><ele>0.0</ele><time>2026-04-29T19:06:09.023Z</time></trkpt><trkpt lat="38.777952" lon="0.521476"><ele>0.0</ele><time>2026-04-29T19:06:10.024Z</time></trkpt><trkpt lat="38.778027" lon="0.5215241"><ele>0.0</ele><time>2026-04-29T19:06:11.024Z</time></trkpt><trkpt lat="38.7781049" lon="0.5215777"><ele>0.0</ele><time>2026-04-29T19:06:12.023Z</time></trkpt><trkpt lat="38.7781814" lon="0.5216358"><ele>0.0</ele><time>2026-04-29T19:06:13.024Z</time></trkpt><trkpt lat="38.7782509" lon="0.5217007"><ele>0.0</ele><time>2026-04-29T19:06:14.023Z</time></trkpt><trkpt lat="38.7783235" lon="0.5217603"><ele>0.0</ele><time>2026-04-29T19:06:15.024Z</time></trkpt><trkpt lat="38.7783983" lon="0.5218169"><ele>0.0</ele><time>2026-04-29T19:06:16.023Z</time></trkpt><trkpt lat="38.7784657" lon="0.5218759"><ele>0.0</ele><time>2026-04-29T19:06:17.023Z</time></trkpt><trkpt lat="38.7785413" lon="0.5219245"><ele>0.0</ele><time>2026-04-29T19:06:18.023Z</time></trkpt><trkpt lat="38.7786163" lon="0.5219766"><ele>0.0</ele><time>2026-04-29T19:06:19.023Z</time></trkpt><trkpt lat="38.7786872" lon="0.5220337"><ele>0.0</ele><time>2026-04-29T19:06:20.023Z</time></trkpt><trkpt lat="38.7787619" lon="0.5220893"><ele>0.0</ele><time>2026-04-29T19:06:21.024Z</time></trkpt><trkpt lat="38.7788411" lon="0.5221598"><ele>0.0</ele><time>2026-04-29T19:06:22.024Z</time></trkpt><trkpt lat="38.7789134" lon="0.5222201"><ele>0.0</ele><time>2026-04-29T19:06:23.023Z</time></trkpt><trkpt lat="38.7790648" lon="0.5223179"><ele>0.0</ele><time>2026-04-29T19:06:25.023Z</time></trkpt><trkpt lat="38.77914" lon="0.5223681"><ele>0.0</ele><time>2026-04-29T19:06:26.024Z</time></trkpt><trkpt lat="38.7792149" lon="0.5224152"><ele>0.0</ele><time>2026-04-29T19:06:27.023Z</time></trkpt><trkpt lat="38.7792887" lon="0.522465"><ele>0.0</ele><time>2026-04-29T19:06:28.023Z</time></trkpt><trkpt lat="38.7793619" lon="0.5225233"><ele>0.0</ele><time>2026-04-29T19:06:29.023Z</time></trkpt><trkpt lat="38.779441" lon="0.5225882"><ele>0.0</ele><time>2026-04-29T19:06:30.023Z</time></trkpt><trkpt lat="38.7795111" lon="0.5226661"><ele>0.0</ele><time>2026-04-29T19:06:31.023Z</time></trkpt><trkpt lat="38.779588" lon="0.5227344"><ele>0.0</ele><time>2026-04-29T19:06:32.023Z</time></trkpt><trkpt lat="38.7796589" lon="0.5227987"><ele>0.0</ele><time>2026-04-29T19:06:33.023Z</time></trkpt><trkpt lat="38.7797323" lon="0.5228678"><ele>0.0</ele><time>2026-04-29T19:06:34.023Z</time></trkpt><trkpt lat="38.7798112" lon="0.5229315"><ele>0.0</ele><time>2026-04-29T19:06:35.023Z</time></trkpt><trkpt lat="38.7798912" lon="0.5229891"><ele>0.0</ele><time>2026-04-29T19:06:36.024Z</time></trkpt><trkpt lat="38.7799707" lon="0.5230423"><ele>0.0</ele><time>2026-04-29T19:06:37.023Z</time></trkpt><trkpt lat="38.7800522" lon="0.523074"><ele>0.0</ele><time>2026-04-29T19:06:38.024Z</time></trkpt><trkpt lat="38.7801227" lon="0.5231364"><ele>0.0</ele><time>2026-04-29T19:06:39.023Z</time></trkpt><trkpt lat="38.7801953" lon="0.5232025"><ele>0.0</ele><time>2026-04-29T19:06:40.023Z</time></trkpt><trkpt lat="38.78027" lon="0.5232611"><ele>0.0</ele><time>2026-04-29T19:06:41.023Z</time></trkpt><trkpt lat="38.7803436" lon="0.5233184"><ele>0.0</ele><time>2026-04-29T19:06:42.023Z</time></trkpt><trkpt lat="38.7804199" lon="0.5233738"><ele>0.0</ele><time>2026-04-29T19:06:43.023Z</time></trkpt><trkpt lat="38.7804981" lon="0.5234199"><ele>0.0</ele><time>2026-04-29T19:06:44.024Z</time></trkpt><trkpt lat="38.7806541" lon="0.523522"><ele>0.0</ele><time>2026-04-29T19:06:46.024Z</time></trkpt><trkpt lat="38.7807289" lon="0.5235789"><ele>0.0</ele><time>2026-04-29T19:06:47.024Z</time></trkpt><trkpt lat="38.7807978" lon="0.5236325"><ele>0.0</ele><time>2026-04-29T19:06:48.024Z</time></trkpt><trkpt lat="38.7808733" lon="0.5236866"><ele>0.0</ele><time>2026-04-29T19:06:49.023Z</time></trkpt><trkpt lat="38.780957" lon="0.5237317"><ele>0.0</ele><time>2026-04-29T19:06:50.023Z</time></trkpt><trkpt lat="38.7810335" lon="0.5237853"><ele>0.0</ele><time>2026-04-29T19:06:51.024Z</time></trkpt><trkpt lat="38.7811142" lon="0.5238368"><ele>0.0</ele><time>2026-04-29T19:06:52.024Z</time></trkpt><trkpt lat="38.7811926" lon="0.5238911"><ele>0.0</ele><time>2026-04-29T19:06:53.023Z</time></trkpt><trkpt lat="38.7812698" lon="0.5239436"><ele>0.0</ele><time>2026-04-29T19:06:54.023Z</time></trkpt><trkpt lat="38.781344" lon="0.5239984"><ele>0.0</ele><time>2026-04-29T19:06:55.023Z</time></trkpt><trkpt lat="38.7814114" lon="0.5240537"><ele>0.0</ele><time>2026-04-29T19:06:56.024Z</time></trkpt><trkpt lat="38.7814806" lon="0.5241096"><ele>0.0</ele><time>2026-04-29T19:06:57.023Z</time></trkpt><trkpt lat="38.7815508" lon="0.5241635"><ele>0.0</ele><time>2026-04-29T19:06:58.023Z</time></trkpt><trkpt lat="38.7816233" lon="0.5242094"><ele>0.0</ele><time>2026-04-29T19:06:59.023Z</time></trkpt><trkpt lat="38.7816983" lon="0.5242556"><ele>0.0</ele><time>2026-04-29T19:07:00.024Z</time></trkpt><trkpt lat="38.7817675" lon="0.5243296"><ele>0.0</ele><time>2026-04-29T19:07:01.023Z</time></trkpt><trkpt lat="38.7818416" lon="0.5243876"><ele>0.0</ele><time>2026-04-29T19:07:02.023Z</time></trkpt><trkpt lat="38.7819181" lon="0.5244416"><ele>0.0</ele><time>2026-04-29T19:07:03.024Z</time></trkpt><trkpt lat="38.7819921" lon="0.5244937"><ele>0.0</ele><time>2026-04-29T19:07:04.024Z</time></trkpt><trkpt lat="38.782068" lon="0.5245467"><ele>0.0</ele><time>2026-04-29T19:07:05.023Z</time></trkpt><trkpt lat="38.7822212" lon="0.524647"><ele>0.0</ele><time>2026-04-29T19:07:07.024Z</time></trkpt><trkpt lat="38.782299" lon="0.5246958"><ele>0.0</ele><time>2026-04-29T19:07:08.023Z</time></trkpt><trkpt lat="38.7823775" lon="0.524741"><ele>0.0</ele><time>2026-04-29T19:07:09.024Z</time></trkpt><trkpt lat="38.7824546" lon="0.5247921"><ele>0.0</ele><time>2026-04-29T19:07:10.024Z</time></trkpt><trkpt lat="38.7825315" lon="0.5248418"><ele>0.0</ele><time>2026-04-29T19:07:11.023Z</time></trkpt><trkpt lat="38.7826053" lon="0.5248954"><ele>0.0</ele><time>2026-04-29T19:07:12.024Z</time></trkpt><trkpt lat="38.7826846" lon="0.524941"><ele>0.0</ele><time>2026-04-29T19:07:13.024Z</time></trkpt><trkpt lat="38.7827602" lon="0.5249902"><ele>0.0</ele><time>2026-04-29T19:07:14.024Z</time></trkpt><trkpt lat="38.7828326" lon="0.5250373"><ele>0.0</ele><time>2026-04-29T19:07:15.023Z</time></trkpt><trkpt lat="38.7829084" lon="0.5250868"><ele>0.0</ele><time>2026-04-29T19:07:16.023Z</time></trkpt><trkpt lat="38.7829851" lon="0.5251385"><ele>0.0</ele><time>2026-04-29T19:07:17.024Z</time></trkpt><trkpt lat="38.7830631" lon="0.5251947"><ele>0.0</ele><time>2026-04-29T19:07:18.024Z</time></trkpt><trkpt lat="38.7831441" lon="0.5252438"><ele>0.0</ele><time>2026-04-29T19:07:19.023Z</time></trkpt><trkpt lat="38.7832201" lon="0.525293"><ele>0.0</ele><time>2026-04-29T19:07:20.024Z</time></trkpt><trkpt lat="38.7832951" lon="0.5253485"><ele>0.0</ele><time>2026-04-29T19:07:21.023Z</time></trkpt><trkpt lat="38.783373" lon="0.5254054"><ele>0.0</ele><time>2026-04-29T19:07:22.024Z</time></trkpt><trkpt lat="38.783443" lon="0.5254636"><ele>0.0</ele><time>2026-04-29T19:07:23.023Z</time></trkpt><trkpt lat="38.7835212" lon="0.5255217"><ele>0.0</ele><time>2026-04-29T19:07:24.024Z</time></trkpt><trkpt lat="38.7835923" lon="0.5255887"><ele>0.0</ele><time>2026-04-29T19:07:25.023Z</time></trkpt><trkpt lat="38.7836637" lon="0.5256571"><ele>0.0</ele><time>2026-04-29T19:07:26.024Z</time></trkpt><trkpt lat="38.7838083" lon="0.5257925"><ele>0.0</ele><time>2026-04-29T19:07:28.024Z</time></trkpt><trkpt lat="38.7838818" lon="0.5258511"><ele>0.0</ele><time>2026-04-29T19:07:29.024Z</time></trkpt><trkpt lat="38.7839592" lon="0.5259107"><ele>0.0</ele><time>2026-04-29T19:07:30.023Z</time></trkpt><trkpt lat="38.7840322" lon="0.5259652"><ele>0.0</ele><time>2026-04-29T19:07:31.024Z</time></trkpt><trkpt lat="38.7841126" lon="0.5260224"><ele>0.0</ele><time>2026-04-29T19:07:32.023Z</time></trkpt><trkpt lat="38.7841899" lon="0.5260777"><ele>0.0</ele><time>2026-04-29T19:07:33.023Z</time></trkpt><trkpt lat="38.7842626" lon="0.5261287"><ele>0.0</ele><time>2026-04-29T19:07:34.024Z</time></trkpt><trkpt lat="38.7843384" lon="0.5261847"><ele>0.0</ele><time>2026-04-29T19:07:35.023Z</time></trkpt><trkpt lat="38.7844149" lon="0.5262387"><ele>0.0</ele><time>2026-04-29T19:07:36.023Z</time></trkpt><trkpt lat="38.784493" lon="0.5262965"><ele>0.0</ele><time>2026-04-29T19:07:37.023Z</time></trkpt><trkpt lat="38.7845658" lon="0.5263517"><ele>0.0</ele><time>2026-04-29T19:07:38.024Z</time></trkpt><trkpt lat="38.7846416" lon="0.526405"><ele>0.0</ele><time>2026-04-29T19:07:39.023Z</time></trkpt><trkpt lat="38.7847099" lon="0.5264696"><ele>0.0</ele><time>2026-04-29T19:07:40.024Z</time></trkpt><trkpt lat="38.7847835" lon="0.5265212"><ele>0.0</ele><time>2026-04-29T19:07:41.023Z</time></trkpt><trkpt lat="38.7848602" lon="0.5265746"><ele>0.0</ele><time>2026-04-29T19:07:42.024Z</time></trkpt><trkpt lat="38.7849422" lon="0.526634"><ele>0.0</ele><time>2026-04-29T19:07:43.024Z</time></trkpt><trkpt lat="38.7850173" lon="0.5266836"><ele>0.0</ele><time>2026-04-29T19:07:44.023Z</time></trkpt><trkpt lat="38.7850921" lon="0.5267383"><ele>0.0</ele><time>2026-04-29T19:07:45.023Z</time></trkpt><trkpt lat="38.7851668" lon="0.5267948"><ele>0.0</ele><time>2026-04-29T19:07:46.024Z</time></trkpt><trkpt lat="38.7852386" lon="0.5268502"><ele>0.0</ele><time>2026-04-29T19:07:47.024Z</time></trkpt><trkpt lat="38.7853957" lon="0.5269566"><ele>0.0</ele><time>2026-04-29T19:07:49.023Z</time></trkpt><trkpt lat="38.7854746" lon="0.5270042"><ele>0.0</ele><time>2026-04-29T19:07:50.024Z</time></trkpt><trkpt lat="38.7855504" lon="0.5270526"><ele>0.0</ele><time>2026-04-29T19:07:51.024Z</time></trkpt><trkpt lat="38.7856254" lon="0.5270994"><ele>0.0</ele><time>2026-04-29T19:07:52.023Z</time></trkpt><trkpt lat="38.7857018" lon="0.5271488"><ele>0.0</ele><time>2026-04-29T19:07:53.023Z</time></trkpt><trkpt lat="38.7857783" lon="0.5272026"><ele>0.0</ele><time>2026-04-29T19:07:54.023Z</time></trkpt><trkpt lat="38.7858492" lon="0.527245"><ele>0.0</ele><time>2026-04-29T19:07:55.023Z</time></trkpt><trkpt lat="38.7859205" lon="0.5272957"><ele>0.0</ele><time>2026-04-29T19:07:56.023Z</time></trkpt><trkpt lat="38.7859951" lon="0.5273499"><ele>0.0</ele><time>2026-04-29T19:07:57.024Z</time></trkpt><trkpt lat="38.7860729" lon="0.5274033"><ele>0.0</ele><time>2026-04-29T19:07:58.023Z</time></trkpt><trkpt lat="38.7861485" lon="0.5274608"><ele>0.0</ele><time>2026-04-29T19:07:59.023Z</time></trkpt><trkpt lat="38.7862306" lon="0.5275132"><ele>0.0</ele><time>2026-04-29T19:08:00.023Z</time></trkpt><trkpt lat="38.786308" lon="0.5275678"><ele>0.0</ele><time>2026-04-29T19:08:01.024Z</time></trkpt><trkpt lat="38.7863834" lon="0.5276266"><ele>0.0</ele><time>2026-04-29T19:08:02.023Z</time></trkpt><trkpt lat="38.7864512" lon="0.5276909"><ele>0.0</ele><time>2026-04-29T19:08:03.024Z</time></trkpt><trkpt lat="38.7865235" lon="0.5277478"><ele>0.0</ele><time>2026-04-29T19:08:04.023Z</time></trkpt><trkpt lat="38.7865986" lon="0.5277944"><ele>0.0</ele><time>2026-04-29T19:08:05.023Z</time></trkpt><trkpt lat="38.7866775" lon="0.5278254"><ele>0.0</ele><time>2026-04-29T19:08:06.024Z</time></trkpt><trkpt lat="38.7867576" lon="0.5278694"><ele>0.0</ele><time>2026-04-29T19:08:07.023Z</time></trkpt><trkpt lat="38.7868362" lon="0.5279163"><ele>0.0</ele><time>2026-04-29T19:08:08.023Z</time></trkpt><trkpt lat="38.7869852" lon="0.5280138"><ele>0.0</ele><time>2026-04-29T19:08:10.024Z</time></trkpt><trkpt lat="38.7870572" lon="0.5280604"><ele>0.0</ele><time>2026-04-29T19:08:11.024Z</time></trkpt><trkpt lat="38.7871344" lon="0.5281288"><ele>0.0</ele><time>2026-04-29T19:08:12.023Z</time></trkpt><trkpt lat="38.7872154" lon="0.5281917"><ele>0.0</ele><time>2026-04-29T19:08:13.024Z</time></trkpt><trkpt lat="38.7872959" lon="0.5282476"><ele>0.0</ele><time>2026-04-29T19:08:14.024Z</time></trkpt><trkpt lat="38.7873659" lon="0.528297"><ele>0.0</ele><time>2026-04-29T19:08:15.023Z</time></trkpt><trkpt lat="38.7874414" lon="0.5283457"><ele>0.0</ele><time>2026-04-29T19:08:16.024Z</time></trkpt><trkpt lat="38.7875124" lon="0.5284013"><ele>0.0</ele><time>2026-04-29T19:08:17.023Z</time></trkpt><trkpt lat="38.7875869" lon="0.5284547"><ele>0.0</ele><time>2026-04-29T19:08:18.024Z</time></trkpt><trkpt lat="38.7876628" lon="0.5285092"><ele>0.0</ele><time>2026-04-29T19:08:19.024Z</time></trkpt><trkpt lat="38.7877396" lon="0.5285702"><ele>0.0</ele><time>2026-04-29T19:08:20.023Z</time></trkpt><trkpt lat="38.7878177" lon="0.5286265"><ele>0.0</ele><time>2026-04-29T19:08:21.024Z</time></trkpt><trkpt lat="38.7878949" lon="0.5286816"><ele>0.0</ele><time>2026-04-29T19:08:22.023Z</time></trkpt><trkpt lat="38.7879717" lon="0.5287349"><ele>0.0</ele><time>2026-04-29T19:08:23.024Z</time></trkpt><trkpt lat="38.7880453" lon="0.5287866"><ele>0.0</ele><time>2026-04-29T19:08:24.023Z</time></trkpt><trkpt lat="38.7881139" lon="0.5288441"><ele>0.0</ele><time>2026-04-29T19:08:25.023Z</time></trkpt><trkpt lat="38.7881837" lon="0.5289007"><ele>0.0</ele><time>2026-04-29T19:08:26.024Z</time></trkpt><trkpt lat="38.7882569" lon="0.5289516"><ele>0.0</ele><time>2026-04-29T19:08:27.024Z</time></trkpt><trkpt lat="38.7883316" lon="0.5290085"><ele>0.0</ele><time>2026-04-29T19:08:28.024Z</time></trkpt><trkpt lat="38.788408" lon="0.5290641"><ele>0.0</ele><time>2026-04-29T19:08:29.023Z</time></trkpt><trkpt lat="38.788555" lon="0.5291761"><ele>0.0</ele><time>2026-04-29T19:08:31.024Z</time></trkpt><trkpt lat="38.7886286" lon="0.5292299"><ele>0.0</ele><time>2026-04-29T19:08:32.024Z</time></trkpt><trkpt lat="38.7887091" lon="0.5292876"><ele>0.0</ele><time>2026-04-29T19:08:33.024Z</time></trkpt><trkpt lat="38.7887876" lon="0.5293432"><ele>0.0</ele><time>2026-04-29T19:08:34.023Z</time></trkpt><trkpt lat="38.7888631" lon="0.5293966"><ele>0.0</ele><time>2026-04-29T19:08:35.024Z</time></trkpt><trkpt lat="38.7889338" lon="0.5294597"><ele>0.0</ele><time>2026-04-29T19:08:36.024Z</time></trkpt><trkpt lat="38.7890057" lon="0.5295331"><ele>0.0</ele><time>2026-04-29T19:08:37.023Z</time></trkpt><trkpt lat="38.7890799" lon="0.5295991"><ele>0.0</ele><time>2026-04-29T19:08:38.023Z</time></trkpt><trkpt lat="38.7891552" lon="0.5296625"><ele>0.0</ele><time>2026-04-29T19:08:39.023Z</time></trkpt><trkpt lat="38.789229" lon="0.5297289"><ele>0.0</ele><time>2026-04-29T19:08:40.024Z</time></trkpt><trkpt lat="38.7892992" lon="0.5297991"><ele>0.0</ele><time>2026-04-29T19:08:41.024Z</time></trkpt><trkpt lat="38.7893689" lon="0.5298663"><ele>0.0</ele><time>2026-04-29T19:08:42.023Z</time></trkpt><trkpt lat="38.7894418" lon="0.5299369"><ele>0.0</ele><time>2026-04-29T19:08:43.024Z</time></trkpt><trkpt lat="38.7895225" lon="0.5299966"><ele>0.0</ele><time>2026-04-29T19:08:44.024Z</time></trkpt><trkpt lat="38.7895968" lon="0.530058"><ele>0.0</ele><time>2026-04-29T19:08:45.023Z</time></trkpt><trkpt lat="38.7896659" lon="0.5301157"><ele>0.0</ele><time>2026-04-29T19:08:46.023Z</time></trkpt><trkpt lat="38.7897403" lon="0.5301752"><ele>0.0</ele><time>2026-04-29T19:08:47.024Z</time></trkpt><trkpt lat="38.7898167" lon="0.5302321"><ele>0.0</ele><time>2026-04-29T19:08:48.023Z</time></trkpt><trkpt lat="38.7898945" lon="0.5302931"><ele>0.0</ele><time>2026-04-29T19:08:49.022Z</time></trkpt><trkpt lat="38.7899728" lon="0.530353"><ele>0.0</ele><time>2026-04-29T19:08:50.023Z</time></trkpt><trkpt lat="38.7901274" lon="0.5304628"><ele>0.0</ele><time>2026-04-29T19:08:52.023Z</time></trkpt><trkpt lat="38.7902064" lon="0.5305112"><ele>0.0</ele><time>2026-04-29T19:08:53.022Z</time></trkpt><trkpt lat="38.7902819" lon="0.5305555"><ele>0.0</ele><time>2026-04-29T19:08:54.022Z</time></trkpt><trkpt lat="38.7903596" lon="0.5305947"><ele>0.0</ele><time>2026-04-29T19:08:55.022Z</time></trkpt><trkpt lat="38.7904325" lon="0.5306638"><ele>0.0</ele><time>2026-04-29T19:08:56.023Z</time></trkpt><trkpt lat="38.7905086" lon="0.5307174"><ele>0.0</ele><time>2026-04-29T19:08:57.023Z</time></trkpt><trkpt lat="38.7905849" lon="0.5307717"><ele>0.0</ele><time>2026-04-29T19:08:58.022Z</time></trkpt><trkpt lat="38.7906588" lon="0.5308227"><ele>0.0</ele><time>2026-04-29T19:08:59.023Z</time></trkpt><trkpt lat="38.7907281" lon="0.5308785"><ele>0.0</ele><time>2026-04-29T19:09:00.023Z</time></trkpt><trkpt lat="38.7907938" lon="0.5309291"><ele>0.0</ele><time>2026-04-29T19:09:01.022Z</time></trkpt><trkpt lat="38.7908698" lon="0.530968"><ele>0.0</ele><time>2026-04-29T19:09:02.023Z</time></trkpt><trkpt lat="38.7909465" lon="0.5310147"><ele>0.0</ele><time>2026-04-29T19:09:03.022Z</time></trkpt><trkpt lat="38.7910231" lon="0.5310673"><ele>0.0</ele><time>2026-04-29T19:09:04.023Z</time></trkpt><trkpt lat="38.7910999" lon="0.5311188"><ele>0.0</ele><time>2026-04-29T19:09:05.022Z</time></trkpt><trkpt lat="38.7911728" lon="0.5311687"><ele>0.0</ele><time>2026-04-29T19:09:06.022Z</time></trkpt><trkpt lat="38.7912455" lon="0.5312186"><ele>0.0</ele><time>2026-04-29T19:09:07.022Z</time></trkpt><trkpt lat="38.7913242" lon="0.5312646"><ele>0.0</ele><time>2026-04-29T19:09:08.023Z</time></trkpt><trkpt lat="38.7914014" lon="0.5313186"><ele>0.0</ele><time>2026-04-29T19:09:09.022Z</time></trkpt><trkpt lat="38.7914767" lon="0.5313704"><ele>0.0</ele><time>2026-04-29T19:09:10.022Z</time></trkpt><trkpt lat="38.7915546" lon="0.5314238"><ele>0.0</ele><time>2026-04-29T19:09:11.022Z</time></trkpt><trkpt lat="38.7917164" lon="0.531506"><ele>0.0</ele><time>2026-04-29T19:09:13.022Z</time></trkpt><trkpt lat="38.7918031" lon="0.5315235"><ele>0.0</ele><time>2026-04-29T19:09:14.023Z</time></trkpt><trkpt lat="38.7918867" lon="0.5315676"><ele>0.0</ele><time>2026-04-29T19:09:15.022Z</time></trkpt><trkpt lat="38.7919674" lon="0.5316012"><ele>0.0</ele><time>2026-04-29T19:09:16.022Z</time></trkpt><trkpt lat="38.7920478" lon="0.5316433"><ele>0.0</ele><time>2026-04-29T19:09:17.022Z</time></trkpt><trkpt lat="38.7921277" lon="0.5316926"><ele>0.0</ele><time>2026-04-29T19:09:18.022Z</time></trkpt><trkpt lat="38.7922048" lon="0.531741"><ele>0.0</ele><time>2026-04-29T19:09:19.022Z</time></trkpt><trkpt lat="38.7922787" lon="0.5317919"><ele>0.0</ele><time>2026-04-29T19:09:20.023Z</time></trkpt><trkpt lat="38.792355" lon="0.5318462"><ele>0.0</ele><time>2026-04-29T19:09:21.023Z</time></trkpt><trkpt lat="38.7924331" lon="0.531898"><ele>0.0</ele><time>2026-04-29T19:09:22.023Z</time></trkpt><trkpt lat="38.7925101" lon="0.5319516"><ele>0.0</ele><time>2026-04-29T19:09:23.023Z</time></trkpt><trkpt lat="38.7925864" lon="0.5320022"><ele>0.0</ele><time>2026-04-29T19:09:24.023Z</time></trkpt><trkpt lat="38.7926661" lon="0.5320496"><ele>0.0</ele><time>2026-04-29T19:09:25.022Z</time></trkpt><trkpt lat="38.792746" lon="0.532102"><ele>0.0</ele><time>2026-04-29T19:09:26.023Z</time></trkpt><trkpt lat="38.792819" lon="0.5321549"><ele>0.0</ele><time>2026-04-29T19:09:27.022Z</time></trkpt><trkpt lat="38.7928966" lon="0.5322114"><ele>0.0</ele><time>2026-04-29T19:09:28.023Z</time></trkpt><trkpt lat="38.7929688" lon="0.5322638"><ele>0.0</ele><time>2026-04-29T19:09:29.022Z</time></trkpt><trkpt lat="38.7930391" lon="0.5323142"><ele>0.0</ele><time>2026-04-29T19:09:30.023Z</time></trkpt><trkpt lat="38.7931164" lon="0.53237"><ele>0.0</ele><time>2026-04-29T19:09:31.023Z</time></trkpt><trkpt lat="38.7931905" lon="0.5324369"><ele>0.0</ele><time>2026-04-29T19:09:32.022Z</time></trkpt><trkpt lat="38.7933341" lon="0.5325655"><ele>0.0</ele><time>2026-04-29T19:09:34.023Z</time></trkpt><trkpt lat="38.793407" lon="0.5326315"><ele>0.0</ele><time>2026-04-29T19:09:35.023Z</time></trkpt><trkpt lat="38.793483" lon="0.5326878"><ele>0.0</ele><time>2026-04-29T19:09:36.022Z</time></trkpt><trkpt lat="38.7935595" lon="0.5327439"><ele>0.0</ele><time>2026-04-29T19:09:37.023Z</time></trkpt><trkpt lat="38.7936319" lon="0.5328019"><ele>0.0</ele><time>2026-04-29T19:09:38.022Z</time></trkpt><trkpt lat="38.7937024" lon="0.532856"><ele>0.0</ele><time>2026-04-29T19:09:39.022Z</time></trkpt><trkpt lat="38.7937853" lon="0.5329082"><ele>0.0</ele><time>2026-04-29T19:09:40.023Z</time></trkpt><trkpt lat="38.7938645" lon="0.5329756"><ele>0.0</ele><time>2026-04-29T19:09:41.022Z</time></trkpt><trkpt lat="38.7939385" lon="0.5330608"><ele>0.0</ele><time>2026-04-29T19:09:42.023Z</time></trkpt><trkpt lat="38.7940163" lon="0.5331185"><ele>0.0</ele><time>2026-04-29T19:09:43.023Z</time></trkpt><trkpt lat="38.7940943" lon="0.5331761"><ele>0.0</ele><time>2026-04-29T19:09:44.023Z</time></trkpt><trkpt lat="38.7941612" lon="0.53326"><ele>0.0</ele><time>2026-04-29T19:09:45.023Z</time></trkpt><trkpt lat="38.7942366" lon="0.5333312"><ele>0.0</ele><time>2026-04-29T19:09:46.022Z</time></trkpt><trkpt lat="38.7943119" lon="0.5333876"><ele>0.0</ele><time>2026-04-29T19:09:47.022Z</time></trkpt><trkpt lat="38.7943955" lon="0.5334439"><ele>0.0</ele><time>2026-04-29T19:09:48.022Z</time></trkpt><trkpt lat="38.7944729" lon="0.5334982"><ele>0.0</ele><time>2026-04-29T19:09:49.023Z</time></trkpt><trkpt lat="38.7945456" lon="0.5335595"><ele>0.0</ele><time>2026-04-29T19:09:50.022Z</time></trkpt><trkpt lat="38.7946219" lon="0.5336129"><ele>0.0</ele><time>2026-04-29T19:09:51.023Z</time></trkpt><trkpt lat="38.794694" lon="0.5336663"><ele>0.0</ele><time>2026-04-29T19:09:52.022Z</time></trkpt><trkpt lat="38.7947672" lon="0.5337225"><ele>0.0</ele><time>2026-04-29T19:09:53.023Z</time></trkpt><trkpt lat="38.7949289" lon="0.5337922"><ele>0.0</ele><time>2026-04-29T19:09:55.023Z</time></trkpt><trkpt lat="38.795009" lon="0.5338375"><ele>0.0</ele><time>2026-04-29T19:09:56.022Z</time></trkpt><trkpt lat="38.7950894" lon="0.5338862"><ele>0.0</ele><time>2026-04-29T19:09:57.022Z</time></trkpt><trkpt lat="38.7951708" lon="0.5339362"><ele>0.0</ele><time>2026-04-29T19:09:58.022Z</time></trkpt><trkpt lat="38.7952497" lon="0.5339793"><ele>0.0</ele><time>2026-04-29T19:09:59.022Z</time></trkpt><trkpt lat="38.7953282" lon="0.5340251"><ele>0.0</ele><time>2026-04-29T19:10:00.023Z</time></trkpt><trkpt lat="38.7954025" lon="0.5340683"><ele>0.0</ele><time>2026-04-29T19:10:01.022Z</time></trkpt><trkpt lat="38.7954728" lon="0.5341207"><ele>0.0</ele><time>2026-04-29T19:10:02.022Z</time></trkpt><trkpt lat="38.7955468" lon="0.5341766"><ele>0.0</ele><time>2026-04-29T19:10:03.022Z</time></trkpt><trkpt lat="38.7956221" lon="0.5342243"><ele>0.0</ele><time>2026-04-29T19:10:04.023Z</time></trkpt><trkpt lat="38.7956997" lon="0.5342664"><ele>0.0</ele><time>2026-04-29T19:10:05.022Z</time></trkpt><trkpt lat="38.7957792" lon="0.5343208"><ele>0.0</ele><time>2026-04-29T19:10:06.022Z</time></trkpt><trkpt lat="38.7958565" lon="0.5343761"><ele>0.0</ele><time>2026-04-29T19:10:07.022Z</time></trkpt><trkpt lat="38.7959333" lon="0.5344371"><ele>0.0</ele><time>2026-04-29T19:10:08.022Z</time></trkpt><trkpt lat="38.7960042" lon="0.5345193"><ele>0.0</ele><time>2026-04-29T19:10:09.022Z</time></trkpt><trkpt lat="38.7960772" lon="0.5345937"><ele>0.0</ele><time>2026-04-29T19:10:10.022Z</time></trkpt><trkpt lat="38.7961519" lon="0.5346588"><ele>0.0</ele><time>2026-04-29T19:10:11.022Z</time></trkpt><trkpt lat="38.7962312" lon="0.5347151"><ele>0.0</ele><time>2026-04-29T19:10:12.022Z</time></trkpt><trkpt lat="38.796317" lon="0.5347463"><ele>0.0</ele><time>2026-04-29T19:10:13.023Z</time></trkpt><trkpt lat="38.7963975" lon="0.5348061"><ele>0.0</ele><time>2026-04-29T19:10:14.022Z</time></trkpt><trkpt lat="38.7965516" lon="0.5348978"><ele>0.0</ele><time>2026-04-29T19:10:16.022Z</time></trkpt><trkpt lat="38.796627" lon="0.5349483"><ele>0.0</ele><time>2026-04-29T19:10:17.022Z</time></trkpt><trkpt lat="38.7967034" lon="0.5350005"><ele>0.0</ele><time>2026-04-29T19:10:18.023Z</time></trkpt><trkpt lat="38.7967801" lon="0.5350463"><ele>0.0</ele><time>2026-04-29T19:10:19.023Z</time></trkpt><trkpt lat="38.7968567" lon="0.5351012"><ele>0.0</ele><time>2026-04-29T19:10:20.023Z</time></trkpt><trkpt lat="38.7969306" lon="0.5351534"><ele>0.0</ele><time>2026-04-29T19:10:21.023Z</time></trkpt><trkpt lat="38.7970096" lon="0.5352097"><ele>0.0</ele><time>2026-04-29T19:10:22.023Z</time></trkpt><trkpt lat="38.7970869" lon="0.53527"><ele>0.0</ele><time>2026-04-29T19:10:23.022Z</time></trkpt><trkpt lat="38.7971648" lon="0.5353193"><ele>0.0</ele><time>2026-04-29T19:10:24.022Z</time></trkpt><trkpt lat="38.7972416" lon="0.535366"><ele>0.0</ele><time>2026-04-29T19:10:25.022Z</time></trkpt><trkpt lat="38.7973171" lon="0.5354142"><ele>0.0</ele><time>2026-04-29T19:10:26.022Z</time></trkpt><trkpt lat="38.7973921" lon="0.5354699"><ele>0.0</ele><time>2026-04-29T19:10:27.022Z</time></trkpt><trkpt lat="38.7974639" lon="0.5355251"><ele>0.0</ele><time>2026-04-29T19:10:28.022Z</time></trkpt><trkpt lat="38.7975402" lon="0.5355786"><ele>0.0</ele><time>2026-04-29T19:10:29.023Z</time></trkpt><trkpt lat="38.7976154" lon="0.5356232"><ele>0.0</ele><time>2026-04-29T19:10:30.023Z</time></trkpt><trkpt lat="38.7976906" lon="0.5356767"><ele>0.0</ele><time>2026-04-29T19:10:31.023Z</time></trkpt><trkpt lat="38.7977639" lon="0.5357287"><ele>0.0</ele><time>2026-04-29T19:10:32.022Z</time></trkpt><trkpt lat="38.7978386" lon="0.5357819"><ele>0.0</ele><time>2026-04-29T19:10:33.023Z</time></trkpt><trkpt lat="38.7979171" lon="0.5358335"><ele>0.0</ele><time>2026-04-29T19:10:34.023Z</time></trkpt><trkpt lat="38.7979923" lon="0.5358871"><ele>0.0</ele><time>2026-04-29T19:10:35.022Z</time></trkpt><trkpt lat="38.7981479" lon="0.5360022"><ele>0.0</ele><time>2026-04-29T19:10:37.023Z</time></trkpt><trkpt lat="38.7982233" lon="0.5360579"><ele>0.0</ele><time>2026-04-29T19:10:38.022Z</time></trkpt><trkpt lat="38.7983016" lon="0.5361147"><ele>0.0</ele><time>2026-04-29T19:10:39.022Z</time></trkpt><trkpt lat="38.7983784" lon="0.5361643"><ele>0.0</ele><time>2026-04-29T19:10:40.023Z</time></trkpt><trkpt lat="38.7984562" lon="0.536213"><ele>0.0</ele><time>2026-04-29T19:10:41.022Z</time></trkpt><trkpt lat="38.7985316" lon="0.5362627"><ele>0.0</ele><time>2026-04-29T19:10:42.022Z</time></trkpt><trkpt lat="38.7986097" lon="0.5363122"><ele>0.0</ele><time>2026-04-29T19:10:43.022Z</time></trkpt><trkpt lat="38.7986867" lon="0.536365"><ele>0.0</ele><time>2026-04-29T19:10:44.023Z</time></trkpt><trkpt lat="38.7987635" lon="0.5364144"><ele>0.0</ele><time>2026-04-29T19:10:45.023Z</time></trkpt><trkpt lat="38.7988374" lon="0.5364636"><ele>0.0</ele><time>2026-04-29T19:10:46.022Z</time></trkpt><trkpt lat="38.7989137" lon="0.5365164"><ele>0.0</ele><time>2026-04-29T19:10:47.023Z</time></trkpt><trkpt lat="38.798986" lon="0.5365636"><ele>0.0</ele><time>2026-04-29T19:10:48.023Z</time></trkpt><trkpt lat="38.7990571" lon="0.5365982"><ele>0.0</ele><time>2026-04-29T19:10:49.023Z</time></trkpt><trkpt lat="38.7991319" lon="0.5366472"><ele>0.0</ele><time>2026-04-29T19:10:50.023Z</time></trkpt><trkpt lat="38.7992071" lon="0.5366972"><ele>0.0</ele><time>2026-04-29T19:10:51.023Z</time></trkpt><trkpt lat="38.7992876" lon="0.5367482"><ele>0.0</ele><time>2026-04-29T19:10:52.022Z</time></trkpt><trkpt lat="38.7993691" lon="0.5368025"><ele>0.0</ele><time>2026-04-29T19:10:53.023Z</time></trkpt><trkpt lat="38.7994498" lon="0.5368515"><ele>0.0</ele><time>2026-04-29T19:10:54.023Z</time></trkpt><trkpt lat="38.7995282" lon="0.5369028"><ele>0.0</ele><time>2026-04-29T19:10:55.022Z</time></trkpt><trkpt lat="38.7996022" lon="0.5369529"><ele>0.0</ele><time>2026-04-29T19:10:56.022Z</time></trkpt><trkpt lat="38.799755" lon="0.5370545"><ele>0.0</ele><time>2026-04-29T19:10:58.023Z</time></trkpt><trkpt lat="38.799824" lon="0.5371168"><ele>0.0</ele><time>2026-04-29T19:10:59.022Z</time></trkpt><trkpt lat="38.799897" lon="0.537179"><ele>0.0</ele><time>2026-04-29T19:11:00.023Z</time></trkpt><trkpt lat="38.7999748" lon="0.5372342"><ele>0.0</ele><time>2026-04-29T19:11:01.023Z</time></trkpt><trkpt lat="38.8000514" lon="0.537289"><ele>0.0</ele><time>2026-04-29T19:11:02.022Z</time></trkpt><trkpt lat="38.8001296" lon="0.5373485"><ele>0.0</ele><time>2026-04-29T19:11:03.022Z</time></trkpt><trkpt lat="38.8002049" lon="0.537427"><ele>0.0</ele><time>2026-04-29T19:11:04.023Z</time></trkpt><trkpt lat="38.8002744" lon="0.5374939"><ele>0.0</ele><time>2026-04-29T19:11:05.022Z</time></trkpt><trkpt lat="38.8003529" lon="0.5375547"><ele>0.0</ele><time>2026-04-29T19:11:06.023Z</time></trkpt><trkpt lat="38.8004299" lon="0.5376081"><ele>0.0</ele><time>2026-04-29T19:11:07.022Z</time></trkpt><trkpt lat="38.8005067" lon="0.5376573"><ele>0.0</ele><time>2026-04-29T19:11:08.022Z</time></trkpt><trkpt lat="38.8005877" lon="0.5377086"><ele>0.0</ele><time>2026-04-29T19:11:09.023Z</time></trkpt><trkpt lat="38.8006667" lon="0.53776"><ele>0.0</ele><time>2026-04-29T19:11:10.023Z</time></trkpt><trkpt lat="38.8007451" lon="0.5378145"><ele>0.0</ele><time>2026-04-29T19:11:11.023Z</time></trkpt><trkpt lat="38.8008233" lon="0.5378623"><ele>0.0</ele><time>2026-04-29T19:11:12.023Z</time></trkpt><trkpt lat="38.8008973" lon="0.5379231"><ele>0.0</ele><time>2026-04-29T19:11:13.023Z</time></trkpt><trkpt lat="38.8009693" lon="0.5379808"><ele>0.0</ele><time>2026-04-29T19:11:14.022Z</time></trkpt><trkpt lat="38.8010449" lon="0.5380292"><ele>0.0</ele><time>2026-04-29T19:11:15.022Z</time></trkpt><trkpt lat="38.8011205" lon="0.5380794"><ele>0.0</ele><time>2026-04-29T19:11:16.022Z</time></trkpt><trkpt lat="38.8011953" lon="0.5381232"><ele>0.0</ele><time>2026-04-29T19:11:17.023Z</time></trkpt><trkpt lat="38.8013518" lon="0.5382141"><ele>0.0</ele><time>2026-04-29T19:11:19.022Z</time></trkpt><trkpt lat="38.8014312" lon="0.5382641"><ele>0.0</ele><time>2026-04-29T19:11:20.023Z</time></trkpt><trkpt lat="38.8015098" lon="0.5383038"><ele>0.0</ele><time>2026-04-29T19:11:21.022Z</time></trkpt><trkpt lat="38.8015856" lon="0.538354"><ele>0.0</ele><time>2026-04-29T19:11:22.022Z</time></trkpt><trkpt lat="38.8016648" lon="0.5384114"><ele>0.0</ele><time>2026-04-29T19:11:23.023Z</time></trkpt><trkpt lat="38.8017417" lon="0.5384673"><ele>0.0</ele><time>2026-04-29T19:11:24.022Z</time></trkpt><trkpt lat="38.8018213" lon="0.538519"><ele>0.0</ele><time>2026-04-29T19:11:25.022Z</time></trkpt><trkpt lat="38.8019028" lon="0.538574"><ele>0.0</ele><time>2026-04-29T19:11:26.022Z</time></trkpt><trkpt lat="38.8019845" lon="0.5386311"><ele>0.0</ele><time>2026-04-29T19:11:27.023Z</time></trkpt><trkpt lat="38.8020675" lon="0.5386892"><ele>0.0</ele><time>2026-04-29T19:11:28.022Z</time></trkpt><trkpt lat="38.8021449" lon="0.5387476"><ele>0.0</ele><time>2026-04-29T19:11:29.022Z</time></trkpt><trkpt lat="38.8022204" lon="0.5388029"><ele>0.0</ele><time>2026-04-29T19:11:30.023Z</time></trkpt><trkpt lat="38.8022973" lon="0.5388627"><ele>0.0</ele><time>2026-04-29T19:11:31.023Z</time></trkpt><trkpt lat="38.8023706" lon="0.5389199"><ele>0.0</ele><time>2026-04-29T19:11:32.022Z</time></trkpt><trkpt lat="38.80245" lon="0.5389766"><ele>0.0</ele><time>2026-04-29T19:11:33.022Z</time></trkpt><trkpt lat="38.8025286" lon="0.5390387"><ele>0.0</ele><time>2026-04-29T19:11:34.023Z</time></trkpt><trkpt lat="38.8026052" lon="0.5390998"><ele>0.0</ele><time>2026-04-29T19:11:35.023Z</time></trkpt><trkpt lat="38.8026821" lon="0.5391583"><ele>0.0</ele><time>2026-04-29T19:11:36.022Z</time></trkpt><trkpt lat="38.8027598" lon="0.5392122"><ele>0.0</ele><time>2026-04-29T19:11:37.022Z</time></trkpt><trkpt lat="38.8028397" lon="0.5392697"><ele>0.0</ele><time>2026-04-29T19:11:38.023Z</time></trkpt><trkpt lat="38.8029887" lon="0.5393599"><ele>0.0</ele><time>2026-04-29T19:11:40.023Z</time></trkpt><trkpt lat="38.8030694" lon="0.539402"><ele>0.0</ele><time>2026-04-29T19:11:41.023Z</time></trkpt><trkpt lat="38.8031511" lon="0.5394378"><ele>0.0</ele><time>2026-04-29T19:11:42.022Z</time></trkpt><trkpt lat="38.8032272" lon="0.5394755"><ele>0.0</ele><time>2026-04-29T19:11:43.022Z</time></trkpt><trkpt lat="38.8032981" lon="0.5395295"><ele>0.0</ele><time>2026-04-29T19:11:44.022Z</time></trkpt><trkpt lat="38.8033736" lon="0.5395877"><ele>0.0</ele><time>2026-04-29T19:11:45.023Z</time></trkpt><trkpt lat="38.8034499" lon="0.5396406"><ele>0.0</ele><time>2026-04-29T19:11:46.022Z</time></trkpt><trkpt lat="38.8035228" lon="0.5396922"><ele>0.0</ele><time>2026-04-29T19:11:47.022Z</time></trkpt><trkpt lat="38.8035988" lon="0.5397469"><ele>0.0</ele><time>2026-04-29T19:11:48.023Z</time></trkpt><trkpt lat="38.8036792" lon="0.5398029"><ele>0.0</ele><time>2026-04-29T19:11:49.022Z</time></trkpt><trkpt lat="38.8037594" lon="0.5398539"><ele>0.0</ele><time>2026-04-29T19:11:50.022Z</time></trkpt><trkpt lat="38.8038425" lon="0.5399066"><ele>0.0</ele><time>2026-04-29T19:11:51.022Z</time></trkpt><trkpt lat="38.8039228" lon="0.5399588"><ele>0.0</ele><time>2026-04-29T19:11:52.022Z</time></trkpt><trkpt lat="38.8040003" lon="0.5400122"><ele>0.0</ele><time>2026-04-29T19:11:53.023Z</time></trkpt><trkpt lat="38.8040769" lon="0.5400724"><ele>0.0</ele><time>2026-04-29T19:11:54.022Z</time></trkpt><trkpt lat="38.8041578" lon="0.5401325"><ele>0.0</ele><time>2026-04-29T19:11:55.022Z</time></trkpt><trkpt lat="38.8042323" lon="0.5401964"><ele>0.0</ele><time>2026-04-29T19:11:56.022Z</time></trkpt><trkpt lat="38.8043071" lon="0.5402543"><ele>0.0</ele><time>2026-04-29T19:11:57.022Z</time></trkpt><trkpt lat="38.8043807" lon="0.5403075"><ele>0.0</ele><time>2026-04-29T19:11:58.023Z</time></trkpt><trkpt lat="38.8044596" lon="0.5403603"><ele>0.0</ele><time>2026-04-29T19:11:59.022Z</time></trkpt><trkpt lat="38.8046104" lon="0.5404666"><ele>0.0</ele><time>2026-04-29T19:12:01.023Z</time></trkpt><trkpt lat="38.8046871" lon="0.5405205"><ele>0.0</ele><time>2026-04-29T19:12:02.023Z</time></trkpt><trkpt lat="38.804768" lon="0.5405767"><ele>0.0</ele><time>2026-04-29T19:12:03.022Z</time></trkpt><trkpt lat="38.8048436" lon="0.5406303"><ele>0.0</ele><time>2026-04-29T19:12:04.022Z</time></trkpt><trkpt lat="38.8049241" lon="0.5406841"><ele>0.0</ele><time>2026-04-29T19:12:05.022Z</time></trkpt><trkpt lat="38.8050018" lon="0.5407315"><ele>0.0</ele><time>2026-04-29T19:12:06.022Z</time></trkpt><trkpt lat="38.8050771" lon="0.5407782"><ele>0.0</ele><time>2026-04-29T19:12:07.022Z</time></trkpt><trkpt lat="38.8051506" lon="0.5408287"><ele>0.0</ele><time>2026-04-29T19:12:08.022Z</time></trkpt><trkpt lat="38.8052266" lon="0.5408849"><ele>0.0</ele><time>2026-04-29T19:12:09.022Z</time></trkpt><trkpt lat="38.8052989" lon="0.5409387"><ele>0.0</ele><time>2026-04-29T19:12:10.023Z</time></trkpt><trkpt lat="38.805379" lon="0.5409889"><ele>0.0</ele><time>2026-04-29T19:12:11.022Z</time></trkpt><trkpt lat="38.8054564" lon="0.5410396"><ele>0.0</ele><time>2026-04-29T19:12:12.022Z</time></trkpt><trkpt lat="38.8055336" lon="0.5410906"><ele>0.0</ele><time>2026-04-29T19:12:13.022Z</time></trkpt><trkpt lat="38.8056173" lon="0.5411438"><ele>0.0</ele><time>2026-04-29T19:12:14.023Z</time></trkpt><trkpt lat="38.805692" lon="0.5411966"><ele>0.0</ele><time>2026-04-29T19:12:15.023Z</time></trkpt><trkpt lat="38.8057667" lon="0.5412469"><ele>0.0</ele><time>2026-04-29T19:12:16.023Z</time></trkpt><trkpt lat="38.8058434" lon="0.5412939"><ele>0.0</ele><time>2026-04-29T19:12:17.023Z</time></trkpt><trkpt lat="38.8059244" lon="0.5413481"><ele>0.0</ele><time>2026-04-29T19:12:18.022Z</time></trkpt><trkpt lat="38.8060075" lon="0.5414021"><ele>0.0</ele><time>2026-04-29T19:12:19.022Z</time></trkpt><trkpt lat="38.806088" lon="0.541454"><ele>0.0</ele><time>2026-04-29T19:12:20.023Z</time></trkpt><trkpt lat="38.8062545" lon="0.5415725"><ele>0.0</ele><time>2026-04-29T19:12:22.022Z</time></trkpt><trkpt lat="38.8063365" lon="0.5416315"><ele>0.0</ele><time>2026-04-29T19:12:23.023Z</time></trkpt><trkpt lat="38.8064123" lon="0.5416861"><ele>0.0</ele><time>2026-04-29T19:12:24.022Z</time></trkpt><trkpt lat="38.8064857" lon="0.541738"><ele>0.0</ele><time>2026-04-29T19:12:25.022Z</time></trkpt><trkpt lat="38.8065589" lon="0.5417886"><ele>0.0</ele><time>2026-04-29T19:12:26.023Z</time></trkpt><trkpt lat="38.8066351" lon="0.5418433"><ele>0.0</ele><time>2026-04-29T19:12:27.022Z</time></trkpt><trkpt lat="38.8067117" lon="0.5418915"><ele>0.0</ele><time>2026-04-29T19:12:28.022Z</time></trkpt><trkpt lat="38.8067884" lon="0.541947"><ele>0.0</ele><time>2026-04-29T19:12:29.022Z</time></trkpt><trkpt lat="38.8068679" lon="0.5420049"><ele>0.0</ele><time>2026-04-29T19:12:30.022Z</time></trkpt><trkpt lat="38.8069479" lon="0.5420551"><ele>0.0</ele><time>2026-04-29T19:12:31.023Z</time></trkpt><trkpt lat="38.8070293" lon="0.5421143"><ele>0.0</ele><time>2026-04-29T19:12:32.022Z</time></trkpt><trkpt lat="38.8071077" lon="0.5421774"><ele>0.0</ele><time>2026-04-29T19:12:33.022Z</time></trkpt><trkpt lat="38.8071861" lon="0.5422407"><ele>0.0</ele><time>2026-04-29T19:12:34.023Z</time></trkpt><trkpt lat="38.8072546" lon="0.5423002"><ele>0.0</ele><time>2026-04-29T19:12:35.022Z</time></trkpt><trkpt lat="38.8073288" lon="0.5423617"><ele>0.0</ele><time>2026-04-29T19:12:36.022Z</time></trkpt><trkpt lat="38.8074068" lon="0.5423989"><ele>0.0</ele><time>2026-04-29T19:12:37.022Z</time></trkpt><trkpt lat="38.8074804" lon="0.5424568"><ele>0.0</ele><time>2026-04-29T19:12:38.022Z</time></trkpt><trkpt lat="38.8075567" lon="0.5425179"><ele>0.0</ele><time>2026-04-29T19:12:39.022Z</time></trkpt><trkpt lat="38.8076335" lon="0.5425597"><ele>0.0</ele><time>2026-04-29T19:12:40.022Z</time></trkpt><trkpt lat="38.8077946" lon="0.542685"><ele>0.0</ele><time>2026-04-29T19:12:42.023Z</time></trkpt><trkpt lat="38.8078704" lon="0.5427534"><ele>0.0</ele><time>2026-04-29T19:12:43.023Z</time></trkpt><trkpt lat="38.8079444" lon="0.5428132"><ele>0.0</ele><time>2026-04-29T19:12:44.022Z</time></trkpt><trkpt lat="38.8080234" lon="0.5428731"><ele>0.0</ele><time>2026-04-29T19:12:45.023Z</time></trkpt><trkpt lat="38.8080975" lon="0.5429348"><ele>0.0</ele><time>2026-04-29T19:12:46.023Z</time></trkpt><trkpt lat="38.8081731" lon="0.5429928"><ele>0.0</ele><time>2026-04-29T19:12:47.022Z</time></trkpt><trkpt lat="38.8082513" lon="0.5430492"><ele>0.0</ele><time>2026-04-29T19:12:48.022Z</time></trkpt><trkpt lat="38.8083251" lon="0.5431031"><ele>0.0</ele><time>2026-04-29T19:12:49.023Z</time></trkpt><trkpt lat="38.8084029" lon="0.5431638"><ele>0.0</ele><time>2026-04-29T19:12:50.023Z</time></trkpt><trkpt lat="38.8084784" lon="0.5432112"><ele>0.0</ele><time>2026-04-29T19:12:51.023Z</time></trkpt><trkpt lat="38.8085564" lon="0.5432591"><ele>0.0</ele><time>2026-04-29T19:12:52.023Z</time></trkpt><trkpt lat="38.8086304" lon="0.5433077"><ele>0.0</ele><time>2026-04-29T19:12:53.023Z</time></trkpt><trkpt lat="38.8087069" lon="0.543357"><ele>0.0</ele><time>2026-04-29T19:12:54.023Z</time></trkpt><trkpt lat="38.8087804" lon="0.5433979"><ele>0.0</ele><time>2026-04-29T19:12:55.022Z</time></trkpt><trkpt lat="38.8088569" lon="0.5434382"><ele>0.0</ele><time>2026-04-29T19:12:56.022Z</time></trkpt><trkpt lat="38.8089364" lon="0.5434734"><ele>0.0</ele><time>2026-04-29T19:12:57.023Z</time></trkpt><trkpt lat="38.8090124" lon="0.5435142"><ele>0.0</ele><time>2026-04-29T19:12:58.022Z</time></trkpt><trkpt lat="38.8090887" lon="0.5435577"><ele>0.0</ele><time>2026-04-29T19:12:59.023Z</time></trkpt><trkpt lat="38.8091677" lon="0.5436019"><ele>0.0</ele><time>2026-04-29T19:13:00.023Z</time></trkpt><trkpt lat="38.8092453" lon="0.5436499"><ele>0.0</ele><time>2026-04-29T19:13:01.023Z</time></trkpt><trkpt lat="38.8094052" lon="0.5437576"><ele>0.0</ele><time>2026-04-29T19:13:03.023Z</time></trkpt><trkpt lat="38.8094846" lon="0.5438164"><ele>0.0</ele><time>2026-04-29T19:13:04.022Z</time></trkpt><trkpt lat="38.8095661" lon="0.5438619"><ele>0.0</ele><time>2026-04-29T19:13:05.023Z</time></trkpt><trkpt lat="38.8096423" lon="0.5439036"><ele>0.0</ele><time>2026-04-29T19:13:06.023Z</time></trkpt><trkpt lat="38.8097197" lon="0.5439516"><ele>0.0</ele><time>2026-04-29T19:13:07.022Z</time></trkpt><trkpt lat="38.809798" lon="0.5440039"><ele>0.0</ele><time>2026-04-29T19:13:08.022Z</time></trkpt><trkpt lat="38.8098765" lon="0.5440528"><ele>0.0</ele><time>2026-04-29T19:13:09.023Z</time></trkpt><trkpt lat="38.8099534" lon="0.5441058"><ele>0.0</ele><time>2026-04-29T19:13:10.023Z</time></trkpt><trkpt lat="38.8100299" lon="0.5441562"><ele>0.0</ele><time>2026-04-29T19:13:11.022Z</time></trkpt><trkpt lat="38.8101084" lon="0.5442072"><ele>0.0</ele><time>2026-04-29T19:13:12.022Z</time></trkpt><trkpt lat="38.8101877" lon="0.5442648"><ele>0.0</ele><time>2026-04-29T19:13:13.022Z</time></trkpt><trkpt lat="38.8102635" lon="0.5443225"><ele>0.0</ele><time>2026-04-29T19:13:14.023Z</time></trkpt><trkpt lat="38.8103414" lon="0.5443774"><ele>0.0</ele><time>2026-04-29T19:13:15.022Z</time></trkpt><trkpt lat="38.8104171" lon="0.5444378"><ele>0.0</ele><time>2026-04-29T19:13:16.022Z</time></trkpt><trkpt lat="38.8104948" lon="0.5444805"><ele>0.0</ele><time>2026-04-29T19:13:17.023Z</time></trkpt><trkpt lat="38.8105776" lon="0.5445344"><ele>0.0</ele><time>2026-04-29T19:13:18.022Z</time></trkpt><trkpt lat="38.810662" lon="0.544586"><ele>0.0</ele><time>2026-04-29T19:13:19.022Z</time></trkpt><trkpt lat="38.8107419" lon="0.544635"><ele>0.0</ele><time>2026-04-29T19:13:20.023Z</time></trkpt><trkpt lat="38.8108158" lon="0.5446824"><ele>0.0</ele><time>2026-04-29T19:13:21.022Z</time></trkpt><trkpt lat="38.8108949" lon="0.5447446"><ele>0.0</ele><time>2026-04-29T19:13:22.023Z</time></trkpt><trkpt lat="38.8110482" lon="0.5448537"><ele>0.0</ele><time>2026-04-29T19:13:24.022Z</time></trkpt><trkpt lat="38.8111234" lon="0.5449173"><ele>0.0</ele><time>2026-04-29T19:13:25.022Z</time></trkpt><trkpt lat="38.8111988" lon="0.5449807"><ele>0.0</ele><time>2026-04-29T19:13:26.022Z</time></trkpt><trkpt lat="38.811275" lon="0.545036"><ele>0.0</ele><time>2026-04-29T19:13:27.022Z</time></trkpt><trkpt lat="38.8113506" lon="0.5450921"><ele>0.0</ele><time>2026-04-29T19:13:28.022Z</time></trkpt><trkpt lat="38.8114282" lon="0.5451488"><ele>0.0</ele><time>2026-04-29T19:13:29.022Z</time></trkpt><trkpt lat="38.811508" lon="0.545207"><ele>0.0</ele><time>2026-04-29T19:13:30.022Z</time></trkpt><trkpt lat="38.8115852" lon="0.5452622"><ele>0.0</ele><time>2026-04-29T19:13:31.022Z</time></trkpt><trkpt lat="38.8116651" lon="0.5453227"><ele>0.0</ele><time>2026-04-29T19:13:32.023Z</time></trkpt><trkpt lat="38.8117434" lon="0.5453791"><ele>0.0</ele><time>2026-04-29T19:13:33.022Z</time></trkpt><trkpt lat="38.8118218" lon="0.545435"><ele>0.0</ele><time>2026-04-29T19:13:34.023Z</time></trkpt><trkpt lat="38.811899" lon="0.5454819"><ele>0.0</ele><time>2026-04-29T19:13:35.022Z</time></trkpt><trkpt lat="38.8119732" lon="0.5455341"><ele>0.0</ele><time>2026-04-29T19:13:36.023Z</time></trkpt><trkpt lat="38.8120518" lon="0.5455862"><ele>0.0</ele><time>2026-04-29T19:13:37.023Z</time></trkpt><trkpt lat="38.8121344" lon="0.545638"><ele>0.0</ele><time>2026-04-29T19:13:38.022Z</time></trkpt><trkpt lat="38.8122149" lon="0.5456939"><ele>0.0</ele><time>2026-04-29T19:13:39.022Z</time></trkpt><trkpt lat="38.812293" lon="0.5457505"><ele>0.0</ele><time>2026-04-29T19:13:40.023Z</time></trkpt><trkpt lat="38.8123645" lon="0.5458122"><ele>0.0</ele><time>2026-04-29T19:13:41.022Z</time></trkpt><trkpt lat="38.8124432" lon="0.5458704"><ele>0.0</ele><time>2026-04-29T19:13:42.022Z</time></trkpt><trkpt lat="38.812523" lon="0.5459259"><ele>0.0</ele><time>2026-04-29T19:13:43.023Z</time></trkpt><trkpt lat="38.8126769" lon="0.5460311"><ele>0.0</ele><time>2026-04-29T19:13:45.023Z</time></trkpt><trkpt lat="38.8127564" lon="0.5460814"><ele>0.0</ele><time>2026-04-29T19:13:46.022Z</time></trkpt><trkpt lat="38.8128376" lon="0.5461356"><ele>0.0</ele><time>2026-04-29T19:13:47.022Z</time></trkpt><trkpt lat="38.8129157" lon="0.5461921"><ele>0.0</ele><time>2026-04-29T19:13:48.021Z</time></trkpt><trkpt lat="38.8129965" lon="0.5462474"><ele>0.0</ele><time>2026-04-29T19:13:49.021Z</time></trkpt><trkpt lat="38.8130736" lon="0.546297"><ele>0.0</ele><time>2026-04-29T19:13:50.021Z</time></trkpt><trkpt lat="38.8131504" lon="0.5463463"><ele>0.0</ele><time>2026-04-29T19:13:51.022Z</time></trkpt><trkpt lat="38.8132282" lon="0.5463956"><ele>0.0</ele><time>2026-04-29T19:13:52.022Z</time></trkpt><trkpt lat="38.8133049" lon="0.546457"><ele>0.0</ele><time>2026-04-29T19:13:53.022Z</time></trkpt><trkpt lat="38.8133859" lon="0.5465176"><ele>0.0</ele><time>2026-04-29T19:13:54.021Z</time></trkpt><trkpt lat="38.813465" lon="0.5465622"><ele>0.0</ele><time>2026-04-29T19:13:55.021Z</time></trkpt><trkpt lat="38.813545" lon="0.5466248"><ele>0.0</ele><time>2026-04-29T19:13:56.022Z</time></trkpt><trkpt lat="38.8136235" lon="0.5466781"><ele>0.0</ele><time>2026-04-29T19:13:57.022Z</time></trkpt><trkpt lat="38.8137048" lon="0.546729"><ele>0.0</ele><time>2026-04-29T19:13:58.021Z</time></trkpt><trkpt lat="38.8137836" lon="0.5467795"><ele>0.0</ele><time>2026-04-29T19:13:59.021Z</time></trkpt><trkpt lat="38.8138618" lon="0.5468305"><ele>0.0</ele><time>2026-04-29T19:14:00.021Z</time></trkpt><trkpt lat="38.81394" lon="0.5468809"><ele>0.0</ele><time>2026-04-29T19:14:01.021Z</time></trkpt><trkpt lat="38.8140154" lon="0.546932"><ele>0.0</ele><time>2026-04-29T19:14:02.022Z</time></trkpt><trkpt lat="38.8140876" lon="0.5469818"><ele>0.0</ele><time>2026-04-29T19:14:03.022Z</time></trkpt><trkpt lat="38.8141594" lon="0.5470319"><ele>0.0</ele><time>2026-04-29T19:14:04.022Z</time></trkpt><trkpt lat="38.8143193" lon="0.5471354"><ele>0.0</ele><time>2026-04-29T19:14:06.022Z</time></trkpt><trkpt lat="38.8144023" lon="0.5471898"><ele>0.0</ele><time>2026-04-29T19:14:07.022Z</time></trkpt><trkpt lat="38.8144843" lon="0.5472419"><ele>0.0</ele><time>2026-04-29T19:14:08.021Z</time></trkpt><trkpt lat="38.8145632" lon="0.5472948"><ele>0.0</ele><time>2026-04-29T19:14:09.022Z</time></trkpt><trkpt lat="38.8146443" lon="0.5473339"><ele>0.0</ele><time>2026-04-29T19:14:10.021Z</time></trkpt><trkpt lat="38.8147147" lon="0.5473907"><ele>0.0</ele><time>2026-04-29T19:14:11.021Z</time></trkpt><trkpt lat="38.8147857" lon="0.547454"><ele>0.0</ele><time>2026-04-29T19:14:12.021Z</time></trkpt><trkpt lat="38.8148619" lon="0.547506"><ele>0.0</ele><time>2026-04-29T19:14:13.021Z</time></trkpt><trkpt lat="38.8149402" lon="0.5475576"><ele>0.0</ele><time>2026-04-29T19:14:14.021Z</time></trkpt><trkpt lat="38.8150243" lon="0.5476062"><ele>0.0</ele><time>2026-04-29T19:14:15.021Z</time></trkpt><trkpt lat="38.8151077" lon="0.5476489"><ele>0.0</ele><time>2026-04-29T19:14:16.022Z</time></trkpt><trkpt lat="38.8151896" lon="0.5476994"><ele>0.0</ele><time>2026-04-29T19:14:17.021Z</time></trkpt><trkpt lat="38.8152696" lon="0.5477409"><ele>0.0</ele><time>2026-04-29T19:14:18.021Z</time></trkpt><trkpt lat="38.8153515" lon="0.5477811"><ele>0.0</ele><time>2026-04-29T19:14:19.022Z</time></trkpt><trkpt lat="38.81543" lon="0.5478216"><ele>0.0</ele><time>2026-04-29T19:14:20.021Z</time></trkpt><trkpt lat="38.8155057" lon="0.5478727"><ele>0.0</ele><time>2026-04-29T19:14:21.022Z</time></trkpt><trkpt lat="38.8155851" lon="0.5479222"><ele>0.0</ele><time>2026-04-29T19:14:22.021Z</time></trkpt><trkpt lat="38.8156652" lon="0.5479666"><ele>0.0</ele><time>2026-04-29T19:14:23.021Z</time></trkpt><trkpt lat="38.8157451" lon="0.5480156"><ele>0.0</ele><time>2026-04-29T19:14:24.022Z</time></trkpt><trkpt lat="38.8158233" lon="0.5480671"><ele>0.0</ele><time>2026-04-29T19:14:25.021Z</time></trkpt><trkpt lat="38.8159826" lon="0.5481868"><ele>0.0</ele><time>2026-04-29T19:14:27.022Z</time></trkpt><trkpt lat="38.8160587" lon="0.548245"><ele>0.0</ele><time>2026-04-29T19:14:28.022Z</time></trkpt><trkpt lat="38.8161312" lon="0.5483083"><ele>0.0</ele><time>2026-04-29T19:14:29.022Z</time></trkpt><trkpt lat="38.8162011" lon="0.5483712"><ele>0.0</ele><time>2026-04-29T19:14:30.022Z</time></trkpt><trkpt lat="38.8162752" lon="0.5484243"><ele>0.0</ele><time>2026-04-29T19:14:31.021Z</time></trkpt><trkpt lat="38.8163516" lon="0.5484818"><ele>0.0</ele><time>2026-04-29T19:14:32.022Z</time></trkpt><trkpt lat="38.8164301" lon="0.548531"><ele>0.0</ele><time>2026-04-29T19:14:33.022Z</time></trkpt><trkpt lat="38.8165083" lon="0.5485769"><ele>0.0</ele><time>2026-04-29T19:14:34.022Z</time></trkpt><trkpt lat="38.8165878" lon="0.5486201"><ele>0.0</ele><time>2026-04-29T19:14:35.021Z</time></trkpt><trkpt lat="38.8166635" lon="0.5486789"><ele>0.0</ele><time>2026-04-29T19:14:36.022Z</time></trkpt><trkpt lat="38.8167459" lon="0.5487287"><ele>0.0</ele><time>2026-04-29T19:14:37.022Z</time></trkpt><trkpt lat="38.8168278" lon="0.548779"><ele>0.0</ele><time>2026-04-29T19:14:38.022Z</time></trkpt><trkpt lat="38.8169078" lon="0.5488307"><ele>0.0</ele><time>2026-04-29T19:14:39.022Z</time></trkpt><trkpt lat="38.8169849" lon="0.5488819"><ele>0.0</ele><time>2026-04-29T19:14:40.021Z</time></trkpt><trkpt lat="38.8170646" lon="0.5489374"><ele>0.0</ele><time>2026-04-29T19:14:41.022Z</time></trkpt><trkpt lat="38.8171463" lon="0.5489953"><ele>0.0</ele><time>2026-04-29T19:14:42.021Z</time></trkpt><trkpt lat="38.817229" lon="0.5490518"><ele>0.0</ele><time>2026-04-29T19:14:43.022Z</time></trkpt><trkpt lat="38.8173069" lon="0.5491112"><ele>0.0</ele><time>2026-04-29T19:14:44.021Z</time></trkpt><trkpt lat="38.817388" lon="0.5491696"><ele>0.0</ele><time>2026-04-29T19:14:45.021Z</time></trkpt><trkpt lat="38.8174712" lon="0.5492165"><ele>0.0</ele><time>2026-04-29T19:14:46.021Z</time></trkpt><trkpt lat="38.8176276" lon="0.5493192"><ele>0.0</ele><time>2026-04-29T19:14:48.021Z</time></trkpt><trkpt lat="38.8177037" lon="0.5493764"><ele>0.0</ele><time>2026-04-29T19:14:49.022Z</time></trkpt><trkpt lat="38.8177802" lon="0.5494348"><ele>0.0</ele><time>2026-04-29T19:14:50.022Z</time></trkpt><trkpt lat="38.8178573" lon="0.54949"><ele>0.0</ele><time>2026-04-29T19:14:51.021Z</time></trkpt><trkpt lat="38.8179393" lon="0.5495468"><ele>0.0</ele><time>2026-04-29T19:14:52.021Z</time></trkpt><trkpt lat="38.818017" lon="0.5496059"><ele>0.0</ele><time>2026-04-29T19:14:53.021Z</time></trkpt><trkpt lat="38.8180953" lon="0.5496535"><ele>0.0</ele><time>2026-04-29T19:14:54.022Z</time></trkpt><trkpt lat="38.8181749" lon="0.5497173"><ele>0.0</ele><time>2026-04-29T19:14:55.022Z</time></trkpt><trkpt lat="38.8182559" lon="0.5497822"><ele>0.0</ele><time>2026-04-29T19:14:56.022Z</time></trkpt><trkpt lat="38.8183365" lon="0.5498429"><ele>0.0</ele><time>2026-04-29T19:14:57.022Z</time></trkpt><trkpt lat="38.8184151" lon="0.5499031"><ele>0.0</ele><time>2026-04-29T19:14:58.022Z</time></trkpt><trkpt lat="38.8184949" lon="0.5499529"><ele>0.0</ele><time>2026-04-29T19:14:59.021Z</time></trkpt><trkpt lat="38.8185806" lon="0.5499857"><ele>0.0</ele><time>2026-04-29T19:15:00.021Z</time></trkpt><trkpt lat="38.8186599" lon="0.5500354"><ele>0.0</ele><time>2026-04-29T19:15:01.022Z</time></trkpt><trkpt lat="38.8187382" lon="0.5500901"><ele>0.0</ele><time>2026-04-29T19:15:02.021Z</time></trkpt><trkpt lat="38.8188124" lon="0.550149"><ele>0.0</ele><time>2026-04-29T19:15:03.021Z</time></trkpt><trkpt lat="38.8188901" lon="0.5501961"><ele>0.0</ele><time>2026-04-29T19:15:04.021Z</time></trkpt><trkpt lat="38.818974" lon="0.5502478"><ele>0.0</ele><time>2026-04-29T19:15:05.021Z</time></trkpt><trkpt lat="38.819049" lon="0.5502971"><ele>0.0</ele><time>2026-04-29T19:15:06.021Z</time></trkpt><trkpt lat="38.8191213" lon="0.5503442"><ele>0.0</ele><time>2026-04-29T19:15:07.021Z</time></trkpt><trkpt lat="38.8192767" lon="0.550447"><ele>0.0</ele><time>2026-04-29T19:15:09.022Z</time></trkpt><trkpt lat="38.8193554" lon="0.5505004"><ele>0.0</ele><time>2026-04-29T19:15:10.021Z</time></trkpt><trkpt lat="38.8194294" lon="0.5505525"><ele>0.0</ele><time>2026-04-29T19:15:11.022Z</time></trkpt><trkpt lat="38.8195141" lon="0.5505986"><ele>0.0</ele><time>2026-04-29T19:15:12.022Z</time></trkpt><trkpt lat="38.8195893" lon="0.5506404"><ele>0.0</ele><time>2026-04-29T19:15:13.022Z</time></trkpt><trkpt lat="38.8196682" lon="0.5506829"><ele>0.0</ele><time>2026-04-29T19:15:14.022Z</time></trkpt><trkpt lat="38.8197523" lon="0.5507276"><ele>0.0</ele><time>2026-04-29T19:15:15.021Z</time></trkpt><trkpt lat="38.8198331" lon="0.5507827"><ele>0.0</ele><time>2026-04-29T19:15:16.021Z</time></trkpt><trkpt lat="38.8199132" lon="0.5508364"><ele>0.0</ele><time>2026-04-29T19:15:17.021Z</time></trkpt><trkpt lat="38.8199931" lon="0.550897"><ele>0.0</ele><time>2026-04-29T19:15:18.021Z</time></trkpt><trkpt lat="38.8200705" lon="0.5509615"><ele>0.0</ele><time>2026-04-29T19:15:19.021Z</time></trkpt><trkpt lat="38.8201515" lon="0.5510095"><ele>0.0</ele><time>2026-04-29T19:15:20.022Z</time></trkpt><trkpt lat="38.8202328" lon="0.5510563"><ele>0.0</ele><time>2026-04-29T19:15:21.022Z</time></trkpt><trkpt lat="38.820316" lon="0.5511013"><ele>0.0</ele><time>2026-04-29T19:15:22.022Z</time></trkpt><trkpt lat="38.8203938" lon="0.5511439"><ele>0.0</ele><time>2026-04-29T19:15:23.021Z</time></trkpt><trkpt lat="38.8204744" lon="0.5511879"><ele>0.0</ele><time>2026-04-29T19:15:24.021Z</time></trkpt><trkpt lat="38.8205573" lon="0.5512338"><ele>0.0</ele><time>2026-04-29T19:15:25.021Z</time></trkpt><trkpt lat="38.8206393" lon="0.5512815"><ele>0.0</ele><time>2026-04-29T19:15:26.021Z</time></trkpt><trkpt lat="38.8207168" lon="0.5513328"><ele>0.0</ele><time>2026-04-29T19:15:27.021Z</time></trkpt><trkpt lat="38.820798" lon="0.5513973"><ele>0.0</ele><time>2026-04-29T19:15:28.021Z</time></trkpt><trkpt lat="38.8209556" lon="0.551503"><ele>0.0</ele><time>2026-04-29T19:15:30.021Z</time></trkpt><trkpt lat="38.8210355" lon="0.551561"><ele>0.0</ele><time>2026-04-29T19:15:31.022Z</time></trkpt><trkpt lat="38.8211148" lon="0.5516121"><ele>0.0</ele><time>2026-04-29T19:15:32.022Z</time></trkpt><trkpt lat="38.8211919" lon="0.5516609"><ele>0.0</ele><time>2026-04-29T19:15:33.021Z</time></trkpt><trkpt lat="38.8212716" lon="0.5517161"><ele>0.0</ele><time>2026-04-29T19:15:34.021Z</time></trkpt><trkpt lat="38.8213514" lon="0.551771"><ele>0.0</ele><time>2026-04-29T19:15:35.021Z</time></trkpt><trkpt lat="38.8214258" lon="0.5518243"><ele>0.0</ele><time>2026-04-29T19:15:36.021Z</time></trkpt><trkpt lat="38.8215004" lon="0.5518763"><ele>0.0</ele><time>2026-04-29T19:15:37.022Z</time></trkpt><trkpt lat="38.8215797" lon="0.5519299"><ele>0.0</ele><time>2026-04-29T19:15:38.022Z</time></trkpt><trkpt lat="38.8216597" lon="0.5519848"><ele>0.0</ele><time>2026-04-29T19:15:39.022Z</time></trkpt><trkpt lat="38.8217383" lon="0.552037"><ele>0.0</ele><time>2026-04-29T19:15:40.021Z</time></trkpt><trkpt lat="38.8218196" lon="0.5520809"><ele>0.0</ele><time>2026-04-29T19:15:41.021Z</time></trkpt><trkpt lat="38.8218984" lon="0.5521192"><ele>0.0</ele><time>2026-04-29T19:15:42.021Z</time></trkpt><trkpt lat="38.8219724" lon="0.5521675"><ele>0.0</ele><time>2026-04-29T19:15:43.022Z</time></trkpt><trkpt lat="38.8220459" lon="0.5522141"><ele>0.0</ele><time>2026-04-29T19:15:44.022Z</time></trkpt><trkpt lat="38.8221237" lon="0.5522596"><ele>0.0</ele><time>2026-04-29T19:15:45.022Z</time></trkpt><trkpt lat="38.8221919" lon="0.5523136"><ele>0.0</ele><time>2026-04-29T19:15:46.021Z</time></trkpt><trkpt lat="38.8222642" lon="0.5523656"><ele>0.0</ele><time>2026-04-29T19:15:47.021Z</time></trkpt><trkpt lat="38.8223403" lon="0.5524201"><ele>0.0</ele><time>2026-04-29T19:15:48.022Z</time></trkpt><trkpt lat="38.8225045" lon="0.5525018"><ele>0.0</ele><time>2026-04-29T19:15:50.021Z</time></trkpt><trkpt lat="38.8225862" lon="0.5525474"><ele>0.0</ele><time>2026-04-29T19:15:51.021Z</time></trkpt><trkpt lat="38.8226707" lon="0.5525953"><ele>0.0</ele><time>2026-04-29T19:15:52.022Z</time></trkpt><trkpt lat="38.8227559" lon="0.5526398"><ele>0.0</ele><time>2026-04-29T19:15:53.022Z</time></trkpt><trkpt lat="38.8228381" lon="0.5526898"><ele>0.0</ele><time>2026-04-29T19:15:54.022Z</time></trkpt><trkpt lat="38.8229209" lon="0.552743"><ele>0.0</ele><time>2026-04-29T19:15:55.021Z</time></trkpt><trkpt lat="38.8229981" lon="0.5527908"><ele>0.0</ele><time>2026-04-29T19:15:56.021Z</time></trkpt><trkpt lat="38.8230768" lon="0.5528429"><ele>0.0</ele><time>2026-04-29T19:15:57.021Z</time></trkpt><trkpt lat="38.8231552" lon="0.5528992"><ele>0.0</ele><time>2026-04-29T19:15:58.022Z</time></trkpt><trkpt lat="38.8232348" lon="0.5529532"><ele>0.0</ele><time>2026-04-29T19:15:59.021Z</time></trkpt><trkpt lat="38.8233119" lon="0.5530148"><ele>0.0</ele><time>2026-04-29T19:16:00.022Z</time></trkpt><trkpt lat="38.823393" lon="0.5530794"><ele>0.0</ele><time>2026-04-29T19:16:01.021Z</time></trkpt><trkpt lat="38.8234748" lon="0.5531391"><ele>0.0</ele><time>2026-04-29T19:16:02.021Z</time></trkpt><trkpt lat="38.8235538" lon="0.553195"><ele>0.0</ele><time>2026-04-29T19:16:03.021Z</time></trkpt><trkpt lat="38.8236292" lon="0.55325"><ele>0.0</ele><time>2026-04-29T19:16:04.022Z</time></trkpt><trkpt lat="38.8237043" lon="0.5533092"><ele>0.0</ele><time>2026-04-29T19:16:05.021Z</time></trkpt><trkpt lat="38.8237823" lon="0.5533596"><ele>0.0</ele><time>2026-04-29T19:16:06.022Z</time></trkpt><trkpt lat="38.8238604" lon="0.5534248"><ele>0.0</ele><time>2026-04-29T19:16:07.021Z</time></trkpt><trkpt lat="38.8239314" lon="0.5534783"><ele>0.0</ele><time>2026-04-29T19:16:08.022Z</time></trkpt><trkpt lat="38.8240057" lon="0.5535394"><ele>0.0</ele><time>2026-04-29T19:16:09.022Z</time></trkpt><trkpt lat="38.8241565" lon="0.5536343"><ele>0.0</ele><time>2026-04-29T19:16:11.021Z</time></trkpt><trkpt lat="38.8242361" lon="0.5536975"><ele>0.0</ele><time>2026-04-29T19:16:12.021Z</time></trkpt><trkpt lat="38.8243149" lon="0.5537575"><ele>0.0</ele><time>2026-04-29T19:16:13.022Z</time></trkpt><trkpt lat="38.8243902" lon="0.5538156"><ele>0.0</ele><time>2026-04-29T19:16:14.021Z</time></trkpt><trkpt lat="38.8244626" lon="0.5538712"><ele>0.0</ele><time>2026-04-29T19:16:15.021Z</time></trkpt><trkpt lat="38.8245384" lon="0.5539259"><ele>0.0</ele><time>2026-04-29T19:16:16.022Z</time></trkpt><trkpt lat="38.8246149" lon="0.5539759"><ele>0.0</ele><time>2026-04-29T19:16:17.021Z</time></trkpt><trkpt lat="38.8246945" lon="0.5540264"><ele>0.0</ele><time>2026-04-29T19:16:18.021Z</time></trkpt><trkpt lat="38.8247742" lon="0.5540724"><ele>0.0</ele><time>2026-04-29T19:16:19.021Z</time></trkpt><trkpt lat="38.8248505" lon="0.554132"><ele>0.0</ele><time>2026-04-29T19:16:20.022Z</time></trkpt><trkpt lat="38.8249285" lon="0.554183"><ele>0.0</ele><time>2026-04-29T19:16:21.021Z</time></trkpt><trkpt lat="38.8250067" lon="0.5542475"><ele>0.0</ele><time>2026-04-29T19:16:22.022Z</time></trkpt><trkpt lat="38.8250822" lon="0.5543026"><ele>0.0</ele><time>2026-04-29T19:16:23.021Z</time></trkpt><trkpt lat="38.8251613" lon="0.5543476"><ele>0.0</ele><time>2026-04-29T19:16:24.021Z</time></trkpt><trkpt lat="38.8252411" lon="0.554392"><ele>0.0</ele><time>2026-04-29T19:16:25.022Z</time></trkpt><trkpt lat="38.825321" lon="0.5544435"><ele>0.0</ele><time>2026-04-29T19:16:26.021Z</time></trkpt><trkpt lat="38.8254055" lon="0.5545038"><ele>0.0</ele><time>2026-04-29T19:16:27.022Z</time></trkpt><trkpt lat="38.825482" lon="0.5545586"><ele>0.0</ele><time>2026-04-29T19:16:28.021Z</time></trkpt><trkpt lat="38.8255597" lon="0.554616"><ele>0.0</ele><time>2026-04-29T19:16:29.021Z</time></trkpt><trkpt lat="38.8256383" lon="0.5546753"><ele>0.0</ele><time>2026-04-29T19:16:30.022Z</time></trkpt><trkpt lat="38.8257938" lon="0.5548073"><ele>0.0</ele><time>2026-04-29T19:16:32.022Z</time></trkpt><trkpt lat="38.8258716" lon="0.5548706"><ele>0.0</ele><time>2026-04-29T19:16:33.021Z</time></trkpt><trkpt lat="38.8259501" lon="0.5549341"><ele>0.0</ele><time>2026-04-29T19:16:34.022Z</time></trkpt><trkpt lat="38.8260282" lon="0.5549927"><ele>0.0</ele><time>2026-04-29T19:16:35.022Z</time></trkpt><trkpt lat="38.8261066" lon="0.5550482"><ele>0.0</ele><time>2026-04-29T19:16:36.021Z</time></trkpt><trkpt lat="38.8261865" lon="0.5551006"><ele>0.0</ele><time>2026-04-29T19:16:37.022Z</time></trkpt><trkpt lat="38.8262681" lon="0.5551544"><ele>0.0</ele><time>2026-04-29T19:16:38.021Z</time></trkpt><trkpt lat="38.8263497" lon="0.5552116"><ele>0.0</ele><time>2026-04-29T19:16:39.022Z</time></trkpt><trkpt lat="38.8264298" lon="0.5552689"><ele>0.0</ele><time>2026-04-29T19:16:40.021Z</time></trkpt><trkpt lat="38.8265083" lon="0.5553218"><ele>0.0</ele><time>2026-04-29T19:16:41.022Z</time></trkpt><trkpt lat="38.8265882" lon="0.555372"><ele>0.0</ele><time>2026-04-29T19:16:42.022Z</time></trkpt><trkpt lat="38.8266698" lon="0.5554232"><ele>0.0</ele><time>2026-04-29T19:16:43.022Z</time></trkpt><trkpt lat="38.8267485" lon="0.5554781"><ele>0.0</ele><time>2026-04-29T19:16:44.022Z</time></trkpt><trkpt lat="38.8268283" lon="0.5555259"><ele>0.0</ele><time>2026-04-29T19:16:45.021Z</time></trkpt><trkpt lat="38.8269083" lon="0.5555769"><ele>0.0</ele><time>2026-04-29T19:16:46.021Z</time></trkpt><trkpt lat="38.826985" lon="0.5556268"><ele>0.0</ele><time>2026-04-29T19:16:47.021Z</time></trkpt><trkpt lat="38.8270632" lon="0.5556768"><ele>0.0</ele><time>2026-04-29T19:16:48.021Z</time></trkpt><trkpt lat="38.8271431" lon="0.5557179"><ele>0.0</ele><time>2026-04-29T19:16:49.021Z</time></trkpt><trkpt lat="38.8272229" lon="0.5557565"><ele>0.0</ele><time>2026-04-29T19:16:50.021Z</time></trkpt><trkpt lat="38.827304" lon="0.5557949"><ele>0.0</ele><time>2026-04-29T19:16:51.022Z</time></trkpt><trkpt lat="38.8274714" lon="0.555881"><ele>0.0</ele><time>2026-04-29T19:16:53.022Z</time></trkpt><trkpt lat="38.8275529" lon="0.5559244"><ele>0.0</ele><time>2026-04-29T19:16:54.022Z</time></trkpt><trkpt lat="38.8276336" lon="0.5559734"><ele>0.0</ele><time>2026-04-29T19:16:55.021Z</time></trkpt><trkpt lat="38.8277089" lon="0.556026"><ele>0.0</ele><time>2026-04-29T19:16:56.022Z</time></trkpt><trkpt lat="38.8277858" lon="0.5560767"><ele>0.0</ele><time>2026-04-29T19:16:57.022Z</time></trkpt><trkpt lat="38.8278608" lon="0.5561182"><ele>0.0</ele><time>2026-04-29T19:16:58.021Z</time></trkpt><trkpt lat="38.8279372" lon="0.556163"><ele>0.0</ele><time>2026-04-29T19:16:59.021Z</time></trkpt><trkpt lat="38.8280182" lon="0.5562144"><ele>0.0</ele><time>2026-04-29T19:17:00.022Z</time></trkpt><trkpt lat="38.8281011" lon="0.5562565"><ele>0.0</ele><time>2026-04-29T19:17:01.022Z</time></trkpt><trkpt lat="38.8281857" lon="0.55632"><ele>0.0</ele><time>2026-04-29T19:17:02.022Z</time></trkpt><trkpt lat="38.8282653" lon="0.556385"><ele>0.0</ele><time>2026-04-29T19:17:03.022Z</time></trkpt><trkpt lat="38.8283466" lon="0.5564481"><ele>0.0</ele><time>2026-04-29T19:17:04.021Z</time></trkpt><trkpt lat="38.8284281" lon="0.5565054"><ele>0.0</ele><time>2026-04-29T19:17:05.022Z</time></trkpt><trkpt lat="38.8285097" lon="0.5565635"><ele>0.0</ele><time>2026-04-29T19:17:06.022Z</time></trkpt><trkpt lat="38.828583" lon="0.5566106"><ele>0.0</ele><time>2026-04-29T19:17:07.022Z</time></trkpt><trkpt lat="38.8286537" lon="0.5566546"><ele>0.0</ele><time>2026-04-29T19:17:08.022Z</time></trkpt><trkpt lat="38.8287304" lon="0.556701"><ele>0.0</ele><time>2026-04-29T19:17:09.022Z</time></trkpt><trkpt lat="38.8288058" lon="0.556755"><ele>0.0</ele><time>2026-04-29T19:17:10.021Z</time></trkpt><trkpt lat="38.8288807" lon="0.5568077"><ele>0.0</ele><time>2026-04-29T19:17:11.021Z</time></trkpt><trkpt lat="38.8289574" lon="0.5568608"><ele>0.0</ele><time>2026-04-29T19:17:12.021Z</time></trkpt><trkpt lat="38.8291136" lon="0.5569507"><ele>0.0</ele><time>2026-04-29T19:17:14.021Z</time></trkpt><trkpt lat="38.8291904" lon="0.5570003"><ele>0.0</ele><time>2026-04-29T19:17:15.022Z</time></trkpt><trkpt lat="38.829268" lon="0.5570507"><ele>0.0</ele><time>2026-04-29T19:17:16.022Z</time></trkpt><trkpt lat="38.8293522" lon="0.5571024"><ele>0.0</ele><time>2026-04-29T19:17:17.022Z</time></trkpt><trkpt lat="38.8294361" lon="0.557149"><ele>0.0</ele><time>2026-04-29T19:17:18.022Z</time></trkpt><trkpt lat="38.8295176" lon="0.5571972"><ele>0.0</ele><time>2026-04-29T19:17:19.021Z</time></trkpt><trkpt lat="38.829595" lon="0.5572546"><ele>0.0</ele><time>2026-04-29T19:17:20.021Z</time></trkpt><trkpt lat="38.8296721" lon="0.5573056"><ele>0.0</ele><time>2026-04-29T19:17:21.021Z</time></trkpt><trkpt lat="38.8297487" lon="0.5573564"><ele>0.0</ele><time>2026-04-29T19:17:22.022Z</time></trkpt><trkpt lat="38.8298297" lon="0.5573995"><ele>0.0</ele><time>2026-04-29T19:17:23.022Z</time></trkpt><trkpt lat="38.8299115" lon="0.5574483"><ele>0.0</ele><time>2026-04-29T19:17:24.021Z</time></trkpt><trkpt lat="38.8299943" lon="0.5574972"><ele>0.0</ele><time>2026-04-29T19:17:25.022Z</time></trkpt><trkpt lat="38.8300762" lon="0.5575541"><ele>0.0</ele><time>2026-04-29T19:17:26.021Z</time></trkpt><trkpt lat="38.8301563" lon="0.5576046"><ele>0.0</ele><time>2026-04-29T19:17:27.022Z</time></trkpt><trkpt lat="38.8302391" lon="0.5576537"><ele>0.0</ele><time>2026-04-29T19:17:28.022Z</time></trkpt><trkpt lat="38.8303201" lon="0.5576962"><ele>0.0</ele><time>2026-04-29T19:17:29.022Z</time></trkpt><trkpt lat="38.8303984" lon="0.5577381"><ele>0.0</ele><time>2026-04-29T19:17:30.021Z</time></trkpt><trkpt lat="38.8304739" lon="0.557784"><ele>0.0</ele><time>2026-04-29T19:17:31.022Z</time></trkpt><trkpt lat="38.8305543" lon="0.5578464"><ele>0.0</ele><time>2026-04-29T19:17:32.021Z</time></trkpt><trkpt lat="38.8306346" lon="0.5579138"><ele>0.0</ele><time>2026-04-29T19:17:33.021Z</time></trkpt><trkpt lat="38.8307931" lon="0.5580275"><ele>0.0</ele><time>2026-04-29T19:17:35.022Z</time></trkpt><trkpt lat="38.8308708" lon="0.5580813"><ele>0.0</ele><time>2026-04-29T19:17:36.022Z</time></trkpt><trkpt lat="38.8309498" lon="0.5581437"><ele>0.0</ele><time>2026-04-29T19:17:37.022Z</time></trkpt><trkpt lat="38.8310269" lon="0.5581876"><ele>0.0</ele><time>2026-04-29T19:17:38.021Z</time></trkpt><trkpt lat="38.8311024" lon="0.5582333"><ele>0.0</ele><time>2026-04-29T19:17:39.021Z</time></trkpt><trkpt lat="38.8311787" lon="0.5582811"><ele>0.0</ele><time>2026-04-29T19:17:40.021Z</time></trkpt><trkpt lat="38.8312567" lon="0.5583392"><ele>0.0</ele><time>2026-04-29T19:17:41.022Z</time></trkpt><trkpt lat="38.8313363" lon="0.5583892"><ele>0.0</ele><time>2026-04-29T19:17:42.022Z</time></trkpt><trkpt lat="38.8314133" lon="0.5584381"><ele>0.0</ele><time>2026-04-29T19:17:43.022Z</time></trkpt><trkpt lat="38.8314945" lon="0.5584815"><ele>0.0</ele><time>2026-04-29T19:17:44.021Z</time></trkpt><trkpt lat="38.8315735" lon="0.5585391"><ele>0.0</ele><time>2026-04-29T19:17:45.022Z</time></trkpt><trkpt lat="38.8316476" lon="0.5585865"><ele>0.0</ele><time>2026-04-29T19:17:46.022Z</time></trkpt><trkpt lat="38.8317252" lon="0.5586331"><ele>0.0</ele><time>2026-04-29T19:17:47.021Z</time></trkpt><trkpt lat="38.8317991" lon="0.5586818"><ele>0.0</ele><time>2026-04-29T19:17:48.022Z</time></trkpt><trkpt lat="38.8318727" lon="0.558739"><ele>0.0</ele><time>2026-04-29T19:17:49.022Z</time></trkpt><trkpt lat="38.8319473" lon="0.5587924"><ele>0.0</ele><time>2026-04-29T19:17:50.022Z</time></trkpt><trkpt lat="38.8320251" lon="0.5588554"><ele>0.0</ele><time>2026-04-29T19:17:51.022Z</time></trkpt><trkpt lat="38.8321062" lon="0.558913"><ele>0.0</ele><time>2026-04-29T19:17:52.021Z</time></trkpt><trkpt lat="38.8321877" lon="0.5589642"><ele>0.0</ele><time>2026-04-29T19:17:53.021Z</time></trkpt><trkpt lat="38.8323452" lon="0.5590643"><ele>0.0</ele><time>2026-04-29T19:17:55.021Z</time></trkpt><trkpt lat="38.8324232" lon="0.5591174"><ele>0.0</ele><time>2026-04-29T19:17:56.021Z</time></trkpt><trkpt lat="38.8325002" lon="0.5591719"><ele>0.0</ele><time>2026-04-29T19:17:57.022Z</time></trkpt><trkpt lat="38.8325797" lon="0.5592297"><ele>0.0</ele><time>2026-04-29T19:17:58.022Z</time></trkpt><trkpt lat="38.8326612" lon="0.5592826"><ele>0.0</ele><time>2026-04-29T19:17:59.021Z</time></trkpt><trkpt lat="38.8327446" lon="0.5593383"><ele>0.0</ele><time>2026-04-29T19:18:00.021Z</time></trkpt><trkpt lat="38.832825" lon="0.559394"><ele>0.0</ele><time>2026-04-29T19:18:01.022Z</time></trkpt><trkpt lat="38.8329048" lon="0.55945"><ele>0.0</ele><time>2026-04-29T19:18:02.022Z</time></trkpt><trkpt lat="38.8329847" lon="0.559515"><ele>0.0</ele><time>2026-04-29T19:18:03.022Z</time></trkpt><trkpt lat="38.8330662" lon="0.5595709"><ele>0.0</ele><time>2026-04-29T19:18:04.021Z</time></trkpt><trkpt lat="38.8331438" lon="0.5596247"><ele>0.0</ele><time>2026-04-29T19:18:05.021Z</time></trkpt><trkpt lat="38.8332263" lon="0.559668"><ele>0.0</ele><time>2026-04-29T19:18:06.022Z</time></trkpt><trkpt lat="38.8332993" lon="0.5597156"><ele>0.0</ele><time>2026-04-29T19:18:07.021Z</time></trkpt><trkpt lat="38.833377" lon="0.5597648"><ele>0.0</ele><time>2026-04-29T19:18:08.021Z</time></trkpt><trkpt lat="38.8334561" lon="0.5598209"><ele>0.0</ele><time>2026-04-29T19:18:09.021Z</time></trkpt><trkpt lat="38.8335363" lon="0.5598788"><ele>0.0</ele><time>2026-04-29T19:18:10.021Z</time></trkpt><trkpt lat="38.833615" lon="0.5599381"><ele>0.0</ele><time>2026-04-29T19:18:11.021Z</time></trkpt><trkpt lat="38.8336938" lon="0.5599952"><ele>0.0</ele><time>2026-04-29T19:18:12.021Z</time></trkpt><trkpt lat="38.8337707" lon="0.5600508"><ele>0.0</ele><time>2026-04-29T19:18:13.022Z</time></trkpt><trkpt lat="38.833847" lon="0.5601102"><ele>0.0</ele><time>2026-04-29T19:18:14.021Z</time></trkpt><trkpt lat="38.8340017" lon="0.5602197"><ele>0.0</ele><time>2026-04-29T19:18:16.021Z</time></trkpt><trkpt lat="38.83408" lon="0.5602704"><ele>0.0</ele><time>2026-04-29T19:18:17.021Z</time></trkpt><trkpt lat="38.83416" lon="0.5603316"><ele>0.0</ele><time>2026-04-29T19:18:18.022Z</time></trkpt><trkpt lat="38.834237" lon="0.5603921"><ele>0.0</ele><time>2026-04-29T19:18:19.021Z</time></trkpt><trkpt lat="38.8343166" lon="0.5604406"><ele>0.0</ele><time>2026-04-29T19:18:20.022Z</time></trkpt><trkpt lat="38.8343968" lon="0.5604899"><ele>0.0</ele><time>2026-04-29T19:18:21.021Z</time></trkpt><trkpt lat="38.8344765" lon="0.5605429"><ele>0.0</ele><time>2026-04-29T19:18:22.022Z</time></trkpt><trkpt lat="38.8345551" lon="0.5605935"><ele>0.0</ele><time>2026-04-29T19:18:23.021Z</time></trkpt><trkpt lat="38.8346317" lon="0.5606448"><ele>0.0</ele><time>2026-04-29T19:18:24.021Z</time></trkpt><trkpt lat="38.8347098" lon="0.5606894"><ele>0.0</ele><time>2026-04-29T19:18:25.022Z</time></trkpt><trkpt lat="38.8347924" lon="0.5607302"><ele>0.0</ele><time>2026-04-29T19:18:26.022Z</time></trkpt><trkpt lat="38.8348745" lon="0.5607796"><ele>0.0</ele><time>2026-04-29T19:18:27.021Z</time></trkpt><trkpt lat="38.8349546" lon="0.5608371"><ele>0.0</ele><time>2026-04-29T19:18:28.022Z</time></trkpt><trkpt lat="38.8350317" lon="0.560891"><ele>0.0</ele><time>2026-04-29T19:18:29.021Z</time></trkpt><trkpt lat="38.8351144" lon="0.5609485"><ele>0.0</ele><time>2026-04-29T19:18:30.022Z</time></trkpt><trkpt lat="38.8351935" lon="0.5609995"><ele>0.0</ele><time>2026-04-29T19:18:31.022Z</time></trkpt><trkpt lat="38.8352732" lon="0.5610569"><ele>0.0</ele><time>2026-04-29T19:18:32.021Z</time></trkpt><trkpt lat="38.8353546" lon="0.5611091"><ele>0.0</ele><time>2026-04-29T19:18:33.021Z</time></trkpt><trkpt lat="38.8354364" lon="0.561163"><ele>0.0</ele><time>2026-04-29T19:18:34.02Z</time></trkpt><trkpt lat="38.835518" lon="0.5612193"><ele>0.0</ele><time>2026-04-29T19:18:35.02Z</time></trkpt><trkpt lat="38.8356737" lon="0.5613254"><ele>0.0</ele><time>2026-04-29T19:18:37.02Z</time></trkpt><trkpt lat="38.8357505" lon="0.561375"><ele>0.0</ele><time>2026-04-29T19:18:38.021Z</time></trkpt><trkpt lat="38.8358272" lon="0.5614232"><ele>0.0</ele><time>2026-04-29T19:18:39.02Z</time></trkpt><trkpt lat="38.8359034" lon="0.5614702"><ele>0.0</ele><time>2026-04-29T19:18:40.02Z</time></trkpt><trkpt lat="38.835983" lon="0.5615153"><ele>0.0</ele><time>2026-04-29T19:18:41.02Z</time></trkpt><trkpt lat="38.8360619" lon="0.5615644"><ele>0.0</ele><time>2026-04-29T19:18:42.02Z</time></trkpt><trkpt lat="38.8361374" lon="0.5616114"><ele>0.0</ele><time>2026-04-29T19:18:43.021Z</time></trkpt><trkpt lat="38.8362134" lon="0.561661"><ele>0.0</ele><time>2026-04-29T19:18:44.02Z</time></trkpt><trkpt lat="38.8362915" lon="0.5617113"><ele>0.0</ele><time>2026-04-29T19:18:45.02Z</time></trkpt><trkpt lat="38.8363702" lon="0.561763"><ele>0.0</ele><time>2026-04-29T19:18:46.02Z</time></trkpt><trkpt lat="38.836447" lon="0.5618166"><ele>0.0</ele><time>2026-04-29T19:18:47.02Z</time></trkpt><trkpt lat="38.8365266" lon="0.5618712"><ele>0.0</ele><time>2026-04-29T19:18:48.02Z</time></trkpt><trkpt lat="38.8366021" lon="0.5619266"><ele>0.0</ele><time>2026-04-29T19:18:49.02Z</time></trkpt><trkpt lat="38.8366773" lon="0.5619797"><ele>0.0</ele><time>2026-04-29T19:18:50.02Z</time></trkpt><trkpt lat="38.8367535" lon="0.5620332"><ele>0.0</ele><time>2026-04-29T19:18:51.021Z</time></trkpt><trkpt lat="38.8368288" lon="0.5620846"><ele>0.0</ele><time>2026-04-29T19:18:52.021Z</time></trkpt><trkpt lat="38.8369021" lon="0.562139"><ele>0.0</ele><time>2026-04-29T19:18:53.02Z</time></trkpt><trkpt lat="38.8369784" lon="0.5621966"><ele>0.0</ele><time>2026-04-29T19:18:54.02Z</time></trkpt><trkpt lat="38.8370553" lon="0.5622592"><ele>0.0</ele><time>2026-04-29T19:18:55.021Z</time></trkpt><trkpt lat="38.8372079" lon="0.5623857"><ele>0.0</ele><time>2026-04-29T19:18:57.021Z</time></trkpt><trkpt lat="38.8372892" lon="0.5624492"><ele>0.0</ele><time>2026-04-29T19:18:58.02Z</time></trkpt><trkpt lat="38.8373695" lon="0.5625077"><ele>0.0</ele><time>2026-04-29T19:18:59.021Z</time></trkpt><trkpt lat="38.8374513" lon="0.5625642"><ele>0.0</ele><time>2026-04-29T19:19:00.021Z</time></trkpt><trkpt lat="38.8375326" lon="0.5626206"><ele>0.0</ele><time>2026-04-29T19:19:01.02Z</time></trkpt><trkpt lat="38.8376129" lon="0.5626745"><ele>0.0</ele><time>2026-04-29T19:19:02.02Z</time></trkpt><trkpt lat="38.8376931" lon="0.5627305"><ele>0.0</ele><time>2026-04-29T19:19:03.02Z</time></trkpt><trkpt lat="38.837773" lon="0.562781"><ele>0.0</ele><time>2026-04-29T19:19:04.02Z</time></trkpt><trkpt lat="38.8378485" lon="0.5628323"><ele>0.0</ele><time>2026-04-29T19:19:05.02Z</time></trkpt><trkpt lat="38.8379267" lon="0.5628802"><ele>0.0</ele><time>2026-04-29T19:19:06.02Z</time></trkpt><trkpt lat="38.8380024" lon="0.562922"><ele>0.0</ele><time>2026-04-29T19:19:07.02Z</time></trkpt><trkpt lat="38.8380799" lon="0.5629651"><ele>0.0</ele><time>2026-04-29T19:19:08.02Z</time></trkpt><trkpt lat="38.8381623" lon="0.5629986"><ele>0.0</ele><time>2026-04-29T19:19:09.02Z</time></trkpt><trkpt lat="38.8382446" lon="0.5630379"><ele>0.0</ele><time>2026-04-29T19:19:10.021Z</time></trkpt><trkpt lat="38.8383249" lon="0.5630893"><ele>0.0</ele><time>2026-04-29T19:19:11.02Z</time></trkpt><trkpt lat="38.8384035" lon="0.5631342"><ele>0.0</ele><time>2026-04-29T19:19:12.02Z</time></trkpt><trkpt lat="38.8384787" lon="0.563178"><ele>0.0</ele><time>2026-04-29T19:19:13.02Z</time></trkpt><trkpt lat="38.838558" lon="0.5632185"><ele>0.0</ele><time>2026-04-29T19:19:14.021Z</time></trkpt><trkpt lat="38.8386364" lon="0.5632638"><ele>0.0</ele><time>2026-04-29T19:19:15.02Z</time></trkpt><trkpt lat="38.8387163" lon="0.56331"><ele>0.0</ele><time>2026-04-29T19:19:16.02Z</time></trkpt><trkpt lat="38.8388762" lon="0.5634132"><ele>0.0</ele><time>2026-04-29T19:19:18.02Z</time></trkpt><trkpt lat="38.8389523" lon="0.5634651"><ele>0.0</ele><time>2026-04-29T19:19:19.021Z</time></trkpt><trkpt lat="38.8390302" lon="0.5635167"><ele>0.0</ele><time>2026-04-29T19:19:20.021Z</time></trkpt><trkpt lat="38.8391083" lon="0.5635672"><ele>0.0</ele><time>2026-04-29T19:19:21.02Z</time></trkpt><trkpt lat="38.8391853" lon="0.5636202"><ele>0.0</ele><time>2026-04-29T19:19:22.021Z</time></trkpt><trkpt lat="38.8392635" lon="0.5636707"><ele>0.0</ele><time>2026-04-29T19:19:23.021Z</time></trkpt><trkpt lat="38.8393447" lon="0.5637114"><ele>0.0</ele><time>2026-04-29T19:19:24.021Z</time></trkpt><trkpt lat="38.8394236" lon="0.5637562"><ele>0.0</ele><time>2026-04-29T19:19:25.02Z</time></trkpt><trkpt lat="38.8394992" lon="0.5638057"><ele>0.0</ele><time>2026-04-29T19:19:26.02Z</time></trkpt><trkpt lat="38.8395754" lon="0.5638585"><ele>0.0</ele><time>2026-04-29T19:19:27.02Z</time></trkpt><trkpt lat="38.8396579" lon="0.5639148"><ele>0.0</ele><time>2026-04-29T19:19:28.02Z</time></trkpt><trkpt lat="38.8397409" lon="0.5639649"><ele>0.0</ele><time>2026-04-29T19:19:29.021Z</time></trkpt><trkpt lat="38.8398184" lon="0.5640309"><ele>0.0</ele><time>2026-04-29T19:19:30.021Z</time></trkpt><trkpt lat="38.8399014" lon="0.5640764"><ele>0.0</ele><time>2026-04-29T19:19:31.021Z</time></trkpt><trkpt lat="38.8399848" lon="0.564116"><ele>0.0</ele><time>2026-04-29T19:19:32.02Z</time></trkpt><trkpt lat="38.840065" lon="0.5641683"><ele>0.0</ele><time>2026-04-29T19:19:33.021Z</time></trkpt><trkpt lat="38.8401387" lon="0.5642176"><ele>0.0</ele><time>2026-04-29T19:19:34.02Z</time></trkpt><trkpt lat="38.8402169" lon="0.5642685"><ele>0.0</ele><time>2026-04-29T19:19:35.02Z</time></trkpt><trkpt lat="38.8402983" lon="0.5643171"><ele>0.0</ele><time>2026-04-29T19:19:36.021Z</time></trkpt><trkpt lat="38.84038" lon="0.564361"><ele>0.0</ele><time>2026-04-29T19:19:37.021Z</time></trkpt><trkpt lat="38.8405404" lon="0.5644571"><ele>0.0</ele><time>2026-04-29T19:19:39.021Z</time></trkpt><trkpt lat="38.8406243" lon="0.564506"><ele>0.0</ele><time>2026-04-29T19:19:40.02Z</time></trkpt><trkpt lat="38.8407066" lon="0.5645561"><ele>0.0</ele><time>2026-04-29T19:19:41.021Z</time></trkpt><trkpt lat="38.8407865" lon="0.5646054"><ele>0.0</ele><time>2026-04-29T19:19:42.02Z</time></trkpt><trkpt lat="38.8408697" lon="0.5646521"><ele>0.0</ele><time>2026-04-29T19:19:43.02Z</time></trkpt><trkpt lat="38.8409473" lon="0.5647029"><ele>0.0</ele><time>2026-04-29T19:19:44.02Z</time></trkpt><trkpt lat="38.8410277" lon="0.5647562"><ele>0.0</ele><time>2026-04-29T19:19:45.021Z</time></trkpt><trkpt lat="38.8411055" lon="0.5648172"><ele>0.0</ele><time>2026-04-29T19:19:46.02Z</time></trkpt><trkpt lat="38.8411879" lon="0.5648731"><ele>0.0</ele><time>2026-04-29T19:19:47.02Z</time></trkpt><trkpt lat="38.8412669" lon="0.564924"><ele>0.0</ele><time>2026-04-29T19:19:48.02Z</time></trkpt><trkpt lat="38.8413437" lon="0.5649769"><ele>0.0</ele><time>2026-04-29T19:19:49.021Z</time></trkpt><trkpt lat="38.8414219" lon="0.5650375"><ele>0.0</ele><time>2026-04-29T19:19:50.021Z</time></trkpt><trkpt lat="38.8414947" lon="0.5650843"><ele>0.0</ele><time>2026-04-29T19:19:51.02Z</time></trkpt><trkpt lat="38.841573" lon="0.5651373"><ele>0.0</ele><time>2026-04-29T19:19:52.021Z</time></trkpt><trkpt lat="38.841652" lon="0.5651851"><ele>0.0</ele><time>2026-04-29T19:19:53.021Z</time></trkpt><trkpt lat="38.8417299" lon="0.5652348"><ele>0.0</ele><time>2026-04-29T19:19:54.021Z</time></trkpt><trkpt lat="38.8418096" lon="0.5652907"><ele>0.0</ele><time>2026-04-29T19:19:55.021Z</time></trkpt><trkpt lat="38.8418885" lon="0.5653493"><ele>0.0</ele><time>2026-04-29T19:19:56.021Z</time></trkpt><trkpt lat="38.8419669" lon="0.5654051"><ele>0.0</ele><time>2026-04-29T19:19:57.02Z</time></trkpt><trkpt lat="38.8420435" lon="0.5654583"><ele>0.0</ele><time>2026-04-29T19:19:58.02Z</time></trkpt><trkpt lat="38.8422031" lon="0.5655644"><ele>0.0</ele><time>2026-04-29T19:20:00.02Z</time></trkpt><trkpt lat="38.8422803" lon="0.5656169"><ele>0.0</ele><time>2026-04-29T19:20:01.02Z</time></trkpt><trkpt lat="38.8423583" lon="0.5656658"><ele>0.0</ele><time>2026-04-29T19:20:02.021Z</time></trkpt><trkpt lat="38.8424367" lon="0.5657171"><ele>0.0</ele><time>2026-04-29T19:20:03.021Z</time></trkpt><trkpt lat="38.8425166" lon="0.5657681"><ele>0.0</ele><time>2026-04-29T19:20:04.021Z</time></trkpt><trkpt lat="38.8425935" lon="0.5658184"><ele>0.0</ele><time>2026-04-29T19:20:05.02Z</time></trkpt><trkpt lat="38.8426731" lon="0.5658675"><ele>0.0</ele><time>2026-04-29T19:20:06.02Z</time></trkpt><trkpt lat="38.8427532" lon="0.5659168"><ele>0.0</ele><time>2026-04-29T19:20:07.02Z</time></trkpt><trkpt lat="38.8428288" lon="0.5659732"><ele>0.0</ele><time>2026-04-29T19:20:08.021Z</time></trkpt><trkpt lat="38.8429052" lon="0.5660242"><ele>0.0</ele><time>2026-04-29T19:20:09.02Z</time></trkpt><trkpt lat="38.8429817" lon="0.5660794"><ele>0.0</ele><time>2026-04-29T19:20:10.021Z</time></trkpt><trkpt lat="38.8430644" lon="0.5661271"><ele>0.0</ele><time>2026-04-29T19:20:11.021Z</time></trkpt><trkpt lat="38.8431447" lon="0.5661787"><ele>0.0</ele><time>2026-04-29T19:20:12.02Z</time></trkpt><trkpt lat="38.8432236" lon="0.5662278"><ele>0.0</ele><time>2026-04-29T19:20:13.021Z</time></trkpt><trkpt lat="38.8433048" lon="0.5662758"><ele>0.0</ele><time>2026-04-29T19:20:14.021Z</time></trkpt><trkpt lat="38.8433821" lon="0.5663314"><ele>0.0</ele><time>2026-04-29T19:20:15.02Z</time></trkpt><trkpt lat="38.8434602" lon="0.5663862"><ele>0.0</ele><time>2026-04-29T19:20:16.02Z</time></trkpt><trkpt lat="38.8435372" lon="0.5664324"><ele>0.0</ele><time>2026-04-29T19:20:17.02Z</time></trkpt><trkpt lat="38.8436119" lon="0.5664876"><ele>0.0</ele><time>2026-04-29T19:20:18.02Z</time></trkpt><trkpt lat="38.8436915" lon="0.5665426"><ele>0.0</ele><time>2026-04-29T19:20:19.02Z</time></trkpt><trkpt lat="38.8438548" lon="0.566647"><ele>0.0</ele><time>2026-04-29T19:20:21.021Z</time></trkpt><trkpt lat="38.8439348" lon="0.5667037"><ele>0.0</ele><time>2026-04-29T19:20:22.021Z</time></trkpt><trkpt lat="38.8440161" lon="0.5667585"><ele>0.0</ele><time>2026-04-29T19:20:23.02Z</time></trkpt><trkpt lat="38.8441006" lon="0.5668215"><ele>0.0</ele><time>2026-04-29T19:20:24.02Z</time></trkpt><trkpt lat="38.8441826" lon="0.5668806"><ele>0.0</ele><time>2026-04-29T19:20:25.021Z</time></trkpt><trkpt lat="38.844263" lon="0.5669318"><ele>0.0</ele><time>2026-04-29T19:20:26.021Z</time></trkpt><trkpt lat="38.8443387" lon="0.566985"><ele>0.0</ele><time>2026-04-29T19:20:27.02Z</time></trkpt><trkpt lat="38.8444156" lon="0.5670368"><ele>0.0</ele><time>2026-04-29T19:20:28.02Z</time></trkpt><trkpt lat="38.8444921" lon="0.5670866"><ele>0.0</ele><time>2026-04-29T19:20:29.02Z</time></trkpt><trkpt lat="38.8445699" lon="0.5671388"><ele>0.0</ele><time>2026-04-29T19:20:30.02Z</time></trkpt><trkpt lat="38.844647" lon="0.56719"><ele>0.0</ele><time>2026-04-29T19:20:31.02Z</time></trkpt><trkpt lat="38.8447265" lon="0.5672374"><ele>0.0</ele><time>2026-04-29T19:20:32.021Z</time></trkpt><trkpt lat="38.8448107" lon="0.5672741"><ele>0.0</ele><time>2026-04-29T19:20:33.02Z</time></trkpt><trkpt lat="38.84489" lon="0.5673251"><ele>0.0</ele><time>2026-04-29T19:20:34.02Z</time></trkpt><trkpt lat="38.8449654" lon="0.5673709"><ele>0.0</ele><time>2026-04-29T19:20:35.021Z</time></trkpt><trkpt lat="38.845043" lon="0.56743"><ele>0.0</ele><time>2026-04-29T19:20:36.02Z</time></trkpt><trkpt lat="38.8451202" lon="0.5674862"><ele>0.0</ele><time>2026-04-29T19:20:37.021Z</time></trkpt><trkpt lat="38.8451972" lon="0.567538"><ele>0.0</ele><time>2026-04-29T19:20:38.021Z</time></trkpt><trkpt lat="38.8452767" lon="0.5675942"><ele>0.0</ele><time>2026-04-29T19:20:39.021Z</time></trkpt><trkpt lat="38.8453566" lon="0.5676382"><ele>0.0</ele><time>2026-04-29T19:20:40.021Z</time></trkpt><trkpt lat="38.8455175" lon="0.567745"><ele>0.0</ele><time>2026-04-29T19:20:42.021Z</time></trkpt><trkpt lat="38.8455979" lon="0.5677864"><ele>0.0</ele><time>2026-04-29T19:20:43.02Z</time></trkpt><trkpt lat="38.8456767" lon="0.5678277"><ele>0.0</ele><time>2026-04-29T19:20:44.02Z</time></trkpt><trkpt lat="38.8457552" lon="0.5678783"><ele>0.0</ele><time>2026-04-29T19:20:45.02Z</time></trkpt><trkpt lat="38.8458289" lon="0.5679382"><ele>0.0</ele><time>2026-04-29T19:20:46.021Z</time></trkpt><trkpt lat="38.8458996" lon="0.5679952"><ele>0.0</ele><time>2026-04-29T19:20:47.02Z</time></trkpt><trkpt lat="38.8459783" lon="0.5680505"><ele>0.0</ele><time>2026-04-29T19:20:48.021Z</time></trkpt><trkpt lat="38.8460537" lon="0.5681097"><ele>0.0</ele><time>2026-04-29T19:20:49.02Z</time></trkpt><trkpt lat="38.8461317" lon="0.5681724"><ele>0.0</ele><time>2026-04-29T19:20:50.021Z</time></trkpt><trkpt lat="38.8462087" lon="0.5682291"><ele>0.0</ele><time>2026-04-29T19:20:51.02Z</time></trkpt><trkpt lat="38.8462841" lon="0.5682701"><ele>0.0</ele><time>2026-04-29T19:20:52.021Z</time></trkpt><trkpt lat="38.8463645" lon="0.5683173"><ele>0.0</ele><time>2026-04-29T19:20:53.02Z</time></trkpt><trkpt lat="38.8464474" lon="0.5683645"><ele>0.0</ele><time>2026-04-29T19:20:54.021Z</time></trkpt><trkpt lat="38.8465308" lon="0.5684155"><ele>0.0</ele><time>2026-04-29T19:20:55.021Z</time></trkpt><trkpt lat="38.8466099" lon="0.5684684"><ele>0.0</ele><time>2026-04-29T19:20:56.021Z</time></trkpt><trkpt lat="38.8466855" lon="0.5685188"><ele>0.0</ele><time>2026-04-29T19:20:57.02Z</time></trkpt><trkpt lat="38.8467632" lon="0.5685643"><ele>0.0</ele><time>2026-04-29T19:20:58.02Z</time></trkpt><trkpt lat="38.8468428" lon="0.5686181"><ele>0.0</ele><time>2026-04-29T19:20:59.021Z</time></trkpt><trkpt lat="38.846926" lon="0.5686676"><ele>0.0</ele><time>2026-04-29T19:21:00.021Z</time></trkpt><trkpt lat="38.8470079" lon="0.5687164"><ele>0.0</ele><time>2026-04-29T19:21:01.02Z</time></trkpt><trkpt lat="38.8471565" lon="0.5688282"><ele>0.0</ele><time>2026-04-29T19:21:03.02Z</time></trkpt><trkpt lat="38.8472323" lon="0.5688818"><ele>0.0</ele><time>2026-04-29T19:21:04.02Z</time></trkpt><trkpt lat="38.8473074" lon="0.5689323"><ele>0.0</ele><time>2026-04-29T19:21:05.02Z</time></trkpt><trkpt lat="38.8473865" lon="0.5689794"><ele>0.0</ele><time>2026-04-29T19:21:06.02Z</time></trkpt><trkpt lat="38.8474706" lon="0.5690304"><ele>0.0</ele><time>2026-04-29T19:21:07.021Z</time></trkpt><trkpt lat="38.8475557" lon="0.5690846"><ele>0.0</ele><time>2026-04-29T19:21:08.02Z</time></trkpt><trkpt lat="38.8476369" lon="0.5691394"><ele>0.0</ele><time>2026-04-29T19:21:09.02Z</time></trkpt><trkpt lat="38.8477137" lon="0.5691877"><ele>0.0</ele><time>2026-04-29T19:21:10.021Z</time></trkpt><trkpt lat="38.8477919" lon="0.5692368"><ele>0.0</ele><time>2026-04-29T19:21:11.02Z</time></trkpt><trkpt lat="38.8478705" lon="0.569283"><ele>0.0</ele><time>2026-04-29T19:21:12.021Z</time></trkpt><trkpt lat="38.8479512" lon="0.5693321"><ele>0.0</ele><time>2026-04-29T19:21:13.021Z</time></trkpt><trkpt lat="38.8480357" lon="0.5693785"><ele>0.0</ele><time>2026-04-29T19:21:14.02Z</time></trkpt><trkpt lat="38.8481123" lon="0.5694238"><ele>0.0</ele><time>2026-04-29T19:21:15.02Z</time></trkpt><trkpt lat="38.8481862" lon="0.5694692"><ele>0.0</ele><time>2026-04-29T19:21:16.02Z</time></trkpt><trkpt lat="38.8482623" lon="0.5695132"><ele>0.0</ele><time>2026-04-29T19:21:17.02Z</time></trkpt><trkpt lat="38.8483416" lon="0.569559"><ele>0.0</ele><time>2026-04-29T19:21:18.02Z</time></trkpt><trkpt lat="38.848423" lon="0.5696081"><ele>0.0</ele><time>2026-04-29T19:21:19.021Z</time></trkpt><trkpt lat="38.8485017" lon="0.5696599"><ele>0.0</ele><time>2026-04-29T19:21:20.021Z</time></trkpt><trkpt lat="38.8485804" lon="0.5697062"><ele>0.0</ele><time>2026-04-29T19:21:21.02Z</time></trkpt><trkpt lat="38.8486614" lon="0.5697453"><ele>0.0</ele><time>2026-04-29T19:21:22.021Z</time></trkpt><trkpt lat="38.8488154" lon="0.5698398"><ele>0.0</ele><time>2026-04-29T19:21:24.021Z</time></trkpt><trkpt lat="38.8488922" lon="0.5698885"><ele>0.0</ele><time>2026-04-29T19:21:25.021Z</time></trkpt><trkpt lat="38.8489744" lon="0.5699428"><ele>0.0</ele><time>2026-04-29T19:21:26.02Z</time></trkpt><trkpt lat="38.8490548" lon="0.5699893"><ele>0.0</ele><time>2026-04-29T19:21:27.021Z</time></trkpt><trkpt lat="38.8491321" lon="0.5700433"><ele>0.0</ele><time>2026-04-29T19:21:28.02Z</time></trkpt><trkpt lat="38.8492088" lon="0.5700982"><ele>0.0</ele><time>2026-04-29T19:21:29.02Z</time></trkpt><trkpt lat="38.8492854" lon="0.5701521"><ele>0.0</ele><time>2026-04-29T19:21:30.021Z</time></trkpt><trkpt lat="38.849365" lon="0.5701919"><ele>0.0</ele><time>2026-04-29T19:21:31.021Z</time></trkpt><trkpt lat="38.8494434" lon="0.570249"><ele>0.0</ele><time>2026-04-29T19:21:32.021Z</time></trkpt><trkpt lat="38.8495217" lon="0.5703064"><ele>0.0</ele><time>2026-04-29T19:21:33.02Z</time></trkpt><trkpt lat="38.8496017" lon="0.5703633"><ele>0.0</ele><time>2026-04-29T19:21:34.02Z</time></trkpt><trkpt lat="38.8496817" lon="0.57042"><ele>0.0</ele><time>2026-04-29T19:21:35.02Z</time></trkpt><trkpt lat="38.8497631" lon="0.5704708"><ele>0.0</ele><time>2026-04-29T19:21:36.02Z</time></trkpt><trkpt lat="38.849843" lon="0.5705234"><ele>0.0</ele><time>2026-04-29T19:21:37.02Z</time></trkpt><trkpt lat="38.849923" lon="0.570575"><ele>0.0</ele><time>2026-04-29T19:21:38.02Z</time></trkpt><trkpt lat="38.850003" lon="0.5706294"><ele>0.0</ele><time>2026-04-29T19:21:39.021Z</time></trkpt><trkpt lat="38.8500816" lon="0.5706878"><ele>0.0</ele><time>2026-04-29T19:21:40.02Z</time></trkpt><trkpt lat="38.8501627" lon="0.5707447"><ele>0.0</ele><time>2026-04-29T19:21:41.021Z</time></trkpt><trkpt lat="38.8502432" lon="0.5708017"><ele>0.0</ele><time>2026-04-29T19:21:42.021Z</time></trkpt><trkpt lat="38.8503218" lon="0.5708582"><ele>0.0</ele><time>2026-04-29T19:21:43.021Z</time></trkpt><trkpt lat="38.8504766" lon="0.5709697"><ele>0.0</ele><time>2026-04-29T19:21:45.02Z</time></trkpt><trkpt lat="38.8505566" lon="0.571022"><ele>0.0</ele><time>2026-04-29T19:21:46.021Z</time></trkpt><trkpt lat="38.8506337" lon="0.5710794"><ele>0.0</ele><time>2026-04-29T19:21:47.021Z</time></trkpt><trkpt lat="38.8507129" lon="0.5711352"><ele>0.0</ele><time>2026-04-29T19:21:48.021Z</time></trkpt><trkpt lat="38.850789" lon="0.5711876"><ele>0.0</ele><time>2026-04-29T19:21:49.02Z</time></trkpt><trkpt lat="38.8508685" lon="0.5712404"><ele>0.0</ele><time>2026-04-29T19:21:50.021Z</time></trkpt><trkpt lat="38.8509453" lon="0.5712937"><ele>0.0</ele><time>2026-04-29T19:21:51.02Z</time></trkpt><trkpt lat="38.8510259" lon="0.571324"><ele>0.0</ele><time>2026-04-29T19:21:52.021Z</time></trkpt><trkpt lat="38.8511018" lon="0.57137"><ele>0.0</ele><time>2026-04-29T19:21:53.021Z</time></trkpt><trkpt lat="38.85118" lon="0.5714247"><ele>0.0</ele><time>2026-04-29T19:21:54.02Z</time></trkpt><trkpt lat="38.8512582" lon="0.5714769"><ele>0.0</ele><time>2026-04-29T19:21:55.02Z</time></trkpt><trkpt lat="38.8513394" lon="0.57153"><ele>0.0</ele><time>2026-04-29T19:21:56.02Z</time></trkpt><trkpt lat="38.8514184" lon="0.5715835"><ele>0.0</ele><time>2026-04-29T19:21:57.02Z</time></trkpt><trkpt lat="38.8514966" lon="0.5716384"><ele>0.0</ele><time>2026-04-29T19:21:58.021Z</time></trkpt><trkpt lat="38.8515768" lon="0.5716948"><ele>0.0</ele><time>2026-04-29T19:21:59.021Z</time></trkpt><trkpt lat="38.8516565" lon="0.5717515"><ele>0.0</ele><time>2026-04-29T19:22:00.021Z</time></trkpt><trkpt lat="38.8517351" lon="0.5718037"><ele>0.0</ele><time>2026-04-29T19:22:01.02Z</time></trkpt><trkpt lat="38.8518118" lon="0.5718566"><ele>0.0</ele><time>2026-04-29T19:22:02.02Z</time></trkpt><trkpt lat="38.8518843" lon="0.5719033"><ele>0.0</ele><time>2026-04-29T19:22:03.02Z</time></trkpt><trkpt lat="38.851962" lon="0.5719536"><ele>0.0</ele><time>2026-04-29T19:22:04.02Z</time></trkpt><trkpt lat="38.8521166" lon="0.5720599"><ele>0.0</ele><time>2026-04-29T19:22:06.021Z</time></trkpt><trkpt lat="38.8521949" lon="0.5721087"><ele>0.0</ele><time>2026-04-29T19:22:07.021Z</time></trkpt><trkpt lat="38.8522732" lon="0.5721617"><ele>0.0</ele><time>2026-04-29T19:22:08.021Z</time></trkpt><trkpt lat="38.8523529" lon="0.5722174"><ele>0.0</ele><time>2026-04-29T19:22:09.02Z</time></trkpt><trkpt lat="38.8524304" lon="0.5722759"><ele>0.0</ele><time>2026-04-29T19:22:10.02Z</time></trkpt><trkpt lat="38.8525052" lon="0.5723265"><ele>0.0</ele><time>2026-04-29T19:22:11.02Z</time></trkpt><trkpt lat="38.8525818" lon="0.5723761"><ele>0.0</ele><time>2026-04-29T19:22:12.02Z</time></trkpt><trkpt lat="38.8526599" lon="0.5724021"><ele>0.0</ele><time>2026-04-29T19:22:13.021Z</time></trkpt><trkpt lat="38.8527368" lon="0.5724385"><ele>0.0</ele><time>2026-04-29T19:22:14.021Z</time></trkpt><trkpt lat="38.8528201" lon="0.5724633"><ele>0.0</ele><time>2026-04-29T19:22:15.021Z</time></trkpt><trkpt lat="38.8529024" lon="0.5724994"><ele>0.0</ele><time>2026-04-29T19:22:16.021Z</time></trkpt><trkpt lat="38.852987" lon="0.5725354"><ele>0.0</ele><time>2026-04-29T19:22:17.02Z</time></trkpt><trkpt lat="38.8530694" lon="0.5725851"><ele>0.0</ele><time>2026-04-29T19:22:18.02Z</time></trkpt><trkpt lat="38.8531469" lon="0.5726388"><ele>0.0</ele><time>2026-04-29T19:22:19.021Z</time></trkpt><trkpt lat="38.8532264" lon="0.5726921"><ele>0.0</ele><time>2026-04-29T19:22:20.021Z</time></trkpt><trkpt lat="38.8533006" lon="0.5727365"><ele>0.0</ele><time>2026-04-29T19:22:21.021Z</time></trkpt><trkpt lat="38.8533798" lon="0.57279"><ele>0.0</ele><time>2026-04-29T19:22:22.021Z</time></trkpt><trkpt lat="38.8534583" lon="0.5728448"><ele>0.0</ele><time>2026-04-29T19:22:23.02Z</time></trkpt><trkpt lat="38.8535367" lon="0.5728979"><ele>0.0</ele><time>2026-04-29T19:22:24.021Z</time></trkpt><trkpt lat="38.8536178" lon="0.5729481"><ele>0.0</ele><time>2026-04-29T19:22:25.02Z</time></trkpt><trkpt lat="38.8537766" lon="0.5730517"><ele>0.0</ele><time>2026-04-29T19:22:27.02Z</time></trkpt><trkpt lat="38.8538536" lon="0.5731058"><ele>0.0</ele><time>2026-04-29T19:22:28.02Z</time></trkpt><trkpt lat="38.8539345" lon="0.5731606"><ele>0.0</ele><time>2026-04-29T19:22:29.021Z</time></trkpt><trkpt lat="38.8540136" lon="0.5732214"><ele>0.0</ele><time>2026-04-29T19:22:30.021Z</time></trkpt><trkpt lat="38.8540918" lon="0.573282"><ele>0.0</ele><time>2026-04-29T19:22:31.02Z</time></trkpt><trkpt lat="38.8541684" lon="0.573348"><ele>0.0</ele><time>2026-04-29T19:22:32.02Z</time></trkpt><trkpt lat="38.8542469" lon="0.5734148"><ele>0.0</ele><time>2026-04-29T19:22:33.021Z</time></trkpt><trkpt lat="38.8543281" lon="0.5734727"><ele>0.0</ele><time>2026-04-29T19:22:34.021Z</time></trkpt><trkpt lat="38.8544084" lon="0.5735188"><ele>0.0</ele><time>2026-04-29T19:22:35.02Z</time></trkpt><trkpt lat="38.8544853" lon="0.5735711"><ele>0.0</ele><time>2026-04-29T19:22:36.021Z</time></trkpt><trkpt lat="38.8545635" lon="0.5736317"><ele>0.0</ele><time>2026-04-29T19:22:37.02Z</time></trkpt><trkpt lat="38.8546361" lon="0.5737013"><ele>0.0</ele><time>2026-04-29T19:22:38.021Z</time></trkpt><trkpt lat="38.8547093" lon="0.5737684"><ele>0.0</ele><time>2026-04-29T19:22:39.02Z</time></trkpt><trkpt lat="38.8547856" lon="0.5738243"><ele>0.0</ele><time>2026-04-29T19:22:40.02Z</time></trkpt><trkpt lat="38.8548668" lon="0.5738666"><ele>0.0</ele><time>2026-04-29T19:22:41.02Z</time></trkpt><trkpt lat="38.8549509" lon="0.5739068"><ele>0.0</ele><time>2026-04-29T19:22:42.02Z</time></trkpt><trkpt lat="38.8550319" lon="0.5739594"><ele>0.0</ele><time>2026-04-29T19:22:43.021Z</time></trkpt><trkpt lat="38.8551087" lon="0.5740066"><ele>0.0</ele><time>2026-04-29T19:22:44.02Z</time></trkpt><trkpt lat="38.8551895" lon="0.5740543"><ele>0.0</ele><time>2026-04-29T19:22:45.02Z</time></trkpt><trkpt lat="38.8552681" lon="0.5740931"><ele>0.0</ele><time>2026-04-29T19:22:46.02Z</time></trkpt><trkpt lat="38.8554233" lon="0.5741768"><ele>0.0</ele><time>2026-04-29T19:22:48.021Z</time></trkpt><trkpt lat="38.8554989" lon="0.5742273"><ele>0.0</ele><time>2026-04-29T19:22:49.021Z</time></trkpt><trkpt lat="38.8555766" lon="0.5742793"><ele>0.0</ele><time>2026-04-29T19:22:50.02Z</time></trkpt><trkpt lat="38.8556565" lon="0.5743309"><ele>0.0</ele><time>2026-04-29T19:22:51.02Z</time></trkpt><trkpt lat="38.8557353" lon="0.5743816"><ele>0.0</ele><time>2026-04-29T19:22:52.02Z</time></trkpt><trkpt lat="38.8558164" lon="0.5744316"><ele>0.0</ele><time>2026-04-29T19:22:53.02Z</time></trkpt><trkpt lat="38.8558952" lon="0.5744817"><ele>0.0</ele><time>2026-04-29T19:22:54.02Z</time></trkpt><trkpt lat="38.8559748" lon="0.5745361"><ele>0.0</ele><time>2026-04-29T19:22:55.02Z</time></trkpt><trkpt lat="38.8560561" lon="0.5745924"><ele>0.0</ele><time>2026-04-29T19:22:56.02Z</time></trkpt><trkpt lat="38.8561378" lon="0.5746473"><ele>0.0</ele><time>2026-04-29T19:22:57.021Z</time></trkpt><trkpt lat="38.8562196" lon="0.5747041"><ele>0.0</ele><time>2026-04-29T19:22:58.02Z</time></trkpt><trkpt lat="38.8562983" lon="0.5747624"><ele>0.0</ele><time>2026-04-29T19:22:59.02Z</time></trkpt><trkpt lat="38.8563779" lon="0.5748158"><ele>0.0</ele><time>2026-04-29T19:23:00.021Z</time></trkpt><trkpt lat="38.8564567" lon="0.5748678"><ele>0.0</ele><time>2026-04-29T19:23:01.021Z</time></trkpt><trkpt lat="38.8565368" lon="0.5749212"><ele>0.0</ele><time>2026-04-29T19:23:02.02Z</time></trkpt><trkpt lat="38.8566155" lon="0.5749658"><ele>0.0</ele><time>2026-04-29T19:23:03.02Z</time></trkpt><trkpt lat="38.8566905" lon="0.5750212"><ele>0.0</ele><time>2026-04-29T19:23:04.021Z</time></trkpt><trkpt lat="38.8567668" lon="0.5750733"><ele>0.0</ele><time>2026-04-29T19:23:05.02Z</time></trkpt><trkpt lat="38.8568433" lon="0.575123"><ele>0.0</ele><time>2026-04-29T19:23:06.02Z</time></trkpt><trkpt lat="38.8569233" lon="0.5751744"><ele>0.0</ele><time>2026-04-29T19:23:07.02Z</time></trkpt><trkpt lat="38.8570802" lon="0.5752733"><ele>0.0</ele><time>2026-04-29T19:23:09.02Z</time></trkpt><trkpt lat="38.8571598" lon="0.5753267"><ele>0.0</ele><time>2026-04-29T19:23:10.021Z</time></trkpt><trkpt lat="38.8572385" lon="0.5753798"><ele>0.0</ele><time>2026-04-29T19:23:11.02Z</time></trkpt><trkpt lat="38.8573168" lon="0.575433"><ele>0.0</ele><time>2026-04-29T19:23:12.02Z</time></trkpt><trkpt lat="38.8573936" lon="0.5754883"><ele>0.0</ele><time>2026-04-29T19:23:13.021Z</time></trkpt><trkpt lat="38.8574718" lon="0.5755389"><ele>0.0</ele><time>2026-04-29T19:23:14.021Z</time></trkpt><trkpt lat="38.8575498" lon="0.5755868"><ele>0.0</ele><time>2026-04-29T19:23:15.021Z</time></trkpt><trkpt lat="38.8576268" lon="0.5756351"><ele>0.0</ele><time>2026-04-29T19:23:16.021Z</time></trkpt><trkpt lat="38.857705" lon="0.5756842"><ele>0.0</ele><time>2026-04-29T19:23:17.02Z</time></trkpt><trkpt lat="38.8577833" lon="0.5757347"><ele>0.0</ele><time>2026-04-29T19:23:18.02Z</time></trkpt><trkpt lat="38.8578616" lon="0.5757851"><ele>0.0</ele><time>2026-04-29T19:23:19.019Z</time></trkpt><trkpt lat="38.8579384" lon="0.5758354"><ele>0.0</ele><time>2026-04-29T19:23:20.019Z</time></trkpt><trkpt lat="38.8580168" lon="0.5758765"><ele>0.0</ele><time>2026-04-29T19:23:21.02Z</time></trkpt><trkpt lat="38.8580952" lon="0.5759249"><ele>0.0</ele><time>2026-04-29T19:23:22.019Z</time></trkpt><trkpt lat="38.8581704" lon="0.5759762"><ele>0.0</ele><time>2026-04-29T19:23:23.019Z</time></trkpt><trkpt lat="38.8582482" lon="0.5760306"><ele>0.0</ele><time>2026-04-29T19:23:24.019Z</time></trkpt><trkpt lat="38.8583279" lon="0.5760833"><ele>0.0</ele><time>2026-04-29T19:23:25.019Z</time></trkpt><trkpt lat="38.8584068" lon="0.5761316"><ele>0.0</ele><time>2026-04-29T19:23:26.019Z</time></trkpt><trkpt lat="38.8584864" lon="0.5761871"><ele>0.0</ele><time>2026-04-29T19:23:27.02Z</time></trkpt><trkpt lat="38.8585652" lon="0.5762416"><ele>0.0</ele><time>2026-04-29T19:23:28.019Z</time></trkpt><trkpt lat="38.8587249" lon="0.5763394"><ele>0.0</ele><time>2026-04-29T19:23:30.019Z</time></trkpt><trkpt lat="38.8588065" lon="0.5763833"><ele>0.0</ele><time>2026-04-29T19:23:31.019Z</time></trkpt><trkpt lat="38.858885" lon="0.5764312"><ele>0.0</ele><time>2026-04-29T19:23:32.019Z</time></trkpt><trkpt lat="38.8589648" lon="0.5764836"><ele>0.0</ele><time>2026-04-29T19:23:33.019Z</time></trkpt><trkpt lat="38.8590463" lon="0.576535"><ele>0.0</ele><time>2026-04-29T19:23:34.019Z</time></trkpt><trkpt lat="38.8591256" lon="0.5765832"><ele>0.0</ele><time>2026-04-29T19:23:35.019Z</time></trkpt><trkpt lat="38.8592034" lon="0.5766239"><ele>0.0</ele><time>2026-04-29T19:23:36.019Z</time></trkpt><trkpt lat="38.8592805" lon="0.5766689"><ele>0.0</ele><time>2026-04-29T19:23:37.019Z</time></trkpt><trkpt lat="38.859357" lon="0.5767109"><ele>0.0</ele><time>2026-04-29T19:23:38.02Z</time></trkpt><trkpt lat="38.8594349" lon="0.5767575"><ele>0.0</ele><time>2026-04-29T19:23:39.019Z</time></trkpt><trkpt lat="38.8595105" lon="0.576806"><ele>0.0</ele><time>2026-04-29T19:23:40.019Z</time></trkpt><trkpt lat="38.8595868" lon="0.576856"><ele>0.0</ele><time>2026-04-29T19:23:41.019Z</time></trkpt><trkpt lat="38.8596665" lon="0.5769033"><ele>0.0</ele><time>2026-04-29T19:23:42.019Z</time></trkpt><trkpt lat="38.8597495" lon="0.5769403"><ele>0.0</ele><time>2026-04-29T19:23:43.019Z</time></trkpt><trkpt lat="38.8598269" lon="0.5769865"><ele>0.0</ele><time>2026-04-29T19:23:44.019Z</time></trkpt><trkpt lat="38.8599035" lon="0.5770358"><ele>0.0</ele><time>2026-04-29T19:23:45.019Z</time></trkpt><trkpt lat="38.8599787" lon="0.5770828"><ele>0.0</ele><time>2026-04-29T19:23:46.019Z</time></trkpt><trkpt lat="38.860055" lon="0.5771368"><ele>0.0</ele><time>2026-04-29T19:23:47.019Z</time></trkpt><trkpt lat="38.8601321" lon="0.5772003"><ele>0.0</ele><time>2026-04-29T19:23:48.019Z</time></trkpt><trkpt lat="38.8602057" lon="0.5772836"><ele>0.0</ele><time>2026-04-29T19:23:49.02Z</time></trkpt><trkpt lat="38.8603647" lon="0.5774102"><ele>0.0</ele><time>2026-04-29T19:23:51.019Z</time></trkpt><trkpt lat="38.8604441" lon="0.5774672"><ele>0.0</ele><time>2026-04-29T19:23:52.02Z</time></trkpt><trkpt lat="38.8605229" lon="0.5775224"><ele>0.0</ele><time>2026-04-29T19:23:53.019Z</time></trkpt><trkpt lat="38.860603" lon="0.577579"><ele>0.0</ele><time>2026-04-29T19:23:54.019Z</time></trkpt><trkpt lat="38.8606801" lon="0.5776356"><ele>0.0</ele><time>2026-04-29T19:23:55.019Z</time></trkpt><trkpt lat="38.8607594" lon="0.5776896"><ele>0.0</ele><time>2026-04-29T19:23:56.02Z</time></trkpt><trkpt lat="38.8608369" lon="0.5777374"><ele>0.0</ele><time>2026-04-29T19:23:57.019Z</time></trkpt><trkpt lat="38.8609148" lon="0.5777924"><ele>0.0</ele><time>2026-04-29T19:23:58.019Z</time></trkpt><trkpt lat="38.8609937" lon="0.5778511"><ele>0.0</ele><time>2026-04-29T19:23:59.019Z</time></trkpt><trkpt lat="38.8610688" lon="0.5779123"><ele>0.0</ele><time>2026-04-29T19:24:00.019Z</time></trkpt><trkpt lat="38.8611436" lon="0.5779702"><ele>0.0</ele><time>2026-04-29T19:24:01.02Z</time></trkpt><trkpt lat="38.8612203" lon="0.5780241"><ele>0.0</ele><time>2026-04-29T19:24:02.019Z</time></trkpt><trkpt lat="38.8612984" lon="0.5780727"><ele>0.0</ele><time>2026-04-29T19:24:03.019Z</time></trkpt><trkpt lat="38.8613781" lon="0.5781238"><ele>0.0</ele><time>2026-04-29T19:24:04.019Z</time></trkpt><trkpt lat="38.8614568" lon="0.5781754"><ele>0.0</ele><time>2026-04-29T19:24:05.019Z</time></trkpt><trkpt lat="38.8615334" lon="0.5782244"><ele>0.0</ele><time>2026-04-29T19:24:06.02Z</time></trkpt><trkpt lat="38.8616117" lon="0.5782744"><ele>0.0</ele><time>2026-04-29T19:24:07.019Z</time></trkpt><trkpt lat="38.8616899" lon="0.5783239"><ele>0.0</ele><time>2026-04-29T19:24:08.02Z</time></trkpt><trkpt lat="38.8617669" lon="0.5783754"><ele>0.0</ele><time>2026-04-29T19:24:09.02Z</time></trkpt><trkpt lat="38.8618454" lon="0.5784255"><ele>0.0</ele><time>2026-04-29T19:24:10.019Z</time></trkpt><trkpt lat="38.8620064" lon="0.5785142"><ele>0.0</ele><time>2026-04-29T19:24:12.019Z</time></trkpt><trkpt lat="38.862085" lon="0.5785497"><ele>0.0</ele><time>2026-04-29T19:24:13.019Z</time></trkpt><trkpt lat="38.8621661" lon="0.5785976"><ele>0.0</ele><time>2026-04-29T19:24:14.019Z</time></trkpt><trkpt lat="38.8622463" lon="0.5786519"><ele>0.0</ele><time>2026-04-29T19:24:15.02Z</time></trkpt><trkpt lat="38.8623262" lon="0.5787025"><ele>0.0</ele><time>2026-04-29T19:24:16.019Z</time></trkpt><trkpt lat="38.8624079" lon="0.5787546"><ele>0.0</ele><time>2026-04-29T19:24:17.019Z</time></trkpt><trkpt lat="38.8624868" lon="0.5788049"><ele>0.0</ele><time>2026-04-29T19:24:18.019Z</time></trkpt><trkpt lat="38.8625607" lon="0.5788537"><ele>0.0</ele><time>2026-04-29T19:24:19.019Z</time></trkpt><trkpt lat="38.8626373" lon="0.578902"><ele>0.0</ele><time>2026-04-29T19:24:20.019Z</time></trkpt><trkpt lat="38.8627126" lon="0.5789472"><ele>0.0</ele><time>2026-04-29T19:24:21.019Z</time></trkpt><trkpt lat="38.8627859" lon="0.5789931"><ele>0.0</ele><time>2026-04-29T19:24:22.019Z</time></trkpt><trkpt lat="38.8628632" lon="0.5790401"><ele>0.0</ele><time>2026-04-29T19:24:23.02Z</time></trkpt><trkpt lat="38.8629429" lon="0.5790849"><ele>0.0</ele><time>2026-04-29T19:24:24.019Z</time></trkpt><trkpt lat="38.8630203" lon="0.5791399"><ele>0.0</ele><time>2026-04-29T19:24:25.019Z</time></trkpt><trkpt lat="38.8631001" lon="0.5791925"><ele>0.0</ele><time>2026-04-29T19:24:26.019Z</time></trkpt><trkpt lat="38.8631787" lon="0.5792447"><ele>0.0</ele><time>2026-04-29T19:24:27.019Z</time></trkpt><trkpt lat="38.8632567" lon="0.5792916"><ele>0.0</ele><time>2026-04-29T19:24:28.019Z</time></trkpt><trkpt lat="38.8633337" lon="0.5793469"><ele>0.0</ele><time>2026-04-29T19:24:29.019Z</time></trkpt><trkpt lat="38.8634116" lon="0.5794013"><ele>0.0</ele><time>2026-04-29T19:24:30.019Z</time></trkpt><trkpt lat="38.8634917" lon="0.5794573"><ele>0.0</ele><time>2026-04-29T19:24:31.02Z</time></trkpt><trkpt lat="38.8636511" lon="0.5795608"><ele>0.0</ele><time>2026-04-29T19:24:33.02Z</time></trkpt><trkpt lat="38.863733" lon="0.5796113"><ele>0.0</ele><time>2026-04-29T19:24:34.019Z</time></trkpt><trkpt lat="38.8638102" lon="0.57966"><ele>0.0</ele><time>2026-04-29T19:24:35.02Z</time></trkpt><trkpt lat="38.8638913" lon="0.5797096"><ele>0.0</ele><time>2026-04-29T19:24:36.02Z</time></trkpt><trkpt lat="38.8639729" lon="0.5797596"><ele>0.0</ele><time>2026-04-29T19:24:37.02Z</time></trkpt><trkpt lat="38.8640544" lon="0.5798122"><ele>0.0</ele><time>2026-04-29T19:24:38.019Z</time></trkpt><trkpt lat="38.8641376" lon="0.5798624"><ele>0.0</ele><time>2026-04-29T19:24:39.019Z</time></trkpt><trkpt lat="38.864217" lon="0.5799147"><ele>0.0</ele><time>2026-04-29T19:24:40.019Z</time></trkpt><trkpt lat="38.8642927" lon="0.5799636"><ele>0.0</ele><time>2026-04-29T19:24:41.019Z</time></trkpt><trkpt lat="38.8643648" lon="0.5800264"><ele>0.0</ele><time>2026-04-29T19:24:42.019Z</time></trkpt><trkpt lat="38.8644394" lon="0.5800799"><ele>0.0</ele><time>2026-04-29T19:24:43.019Z</time></trkpt><trkpt lat="38.8645169" lon="0.5801277"><ele>0.0</ele><time>2026-04-29T19:24:44.019Z</time></trkpt><trkpt lat="38.8645967" lon="0.5801772"><ele>0.0</ele><time>2026-04-29T19:24:45.019Z</time></trkpt><trkpt lat="38.8646779" lon="0.5802267"><ele>0.0</ele><time>2026-04-29T19:24:46.02Z</time></trkpt><trkpt lat="38.8647582" lon="0.5802721"><ele>0.0</ele><time>2026-04-29T19:24:47.02Z</time></trkpt><trkpt lat="38.8648397" lon="0.5803169"><ele>0.0</ele><time>2026-04-29T19:24:48.019Z</time></trkpt><trkpt lat="38.8649195" lon="0.5803636"><ele>0.0</ele><time>2026-04-29T19:24:49.019Z</time></trkpt><trkpt lat="38.8649996" lon="0.5804115"><ele>0.0</ele><time>2026-04-29T19:24:50.019Z</time></trkpt><trkpt lat="38.8650824" lon="0.5804601"><ele>0.0</ele><time>2026-04-29T19:24:51.019Z</time></trkpt><trkpt lat="38.8651644" lon="0.580513"><ele>0.0</ele><time>2026-04-29T19:24:52.02Z</time></trkpt><trkpt lat="38.8652405" lon="0.5805667"><ele>0.0</ele><time>2026-04-29T19:24:53.019Z</time></trkpt><trkpt lat="38.8653959" lon="0.5806737"><ele>0.0</ele><time>2026-04-29T19:24:55.019Z</time></trkpt><trkpt lat="38.8654724" lon="0.5807294"><ele>0.0</ele><time>2026-04-29T19:24:56.02Z</time></trkpt><trkpt lat="38.8655488" lon="0.5807795"><ele>0.0</ele><time>2026-04-29T19:24:57.019Z</time></trkpt><trkpt lat="38.8656268" lon="0.580827"><ele>0.0</ele><time>2026-04-29T19:24:58.02Z</time></trkpt><trkpt lat="38.8657066" lon="0.5808763"><ele>0.0</ele><time>2026-04-29T19:24:59.019Z</time></trkpt><trkpt lat="38.8657836" lon="0.5809308"><ele>0.0</ele><time>2026-04-29T19:25:00.02Z</time></trkpt><trkpt lat="38.8658604" lon="0.580986"><ele>0.0</ele><time>2026-04-29T19:25:01.019Z</time></trkpt><trkpt lat="38.8659382" lon="0.5810348"><ele>0.0</ele><time>2026-04-29T19:25:02.019Z</time></trkpt><trkpt lat="38.8660181" lon="0.5810855"><ele>0.0</ele><time>2026-04-29T19:25:03.02Z</time></trkpt><trkpt lat="38.8660968" lon="0.5811339"><ele>0.0</ele><time>2026-04-29T19:25:04.02Z</time></trkpt><trkpt lat="38.866175" lon="0.5811892"><ele>0.0</ele><time>2026-04-29T19:25:05.02Z</time></trkpt><trkpt lat="38.8662532" lon="0.5812438"><ele>0.0</ele><time>2026-04-29T19:25:06.019Z</time></trkpt><trkpt lat="38.8663316" lon="0.581301"><ele>0.0</ele><time>2026-04-29T19:25:07.02Z</time></trkpt><trkpt lat="38.8664099" lon="0.5813531"><ele>0.0</ele><time>2026-04-29T19:25:08.02Z</time></trkpt><trkpt lat="38.8664898" lon="0.5814057"><ele>0.0</ele><time>2026-04-29T19:25:09.019Z</time></trkpt><trkpt lat="38.8665684" lon="0.5814585"><ele>0.0</ele><time>2026-04-29T19:25:10.019Z</time></trkpt><trkpt lat="38.8666469" lon="0.5814967"><ele>0.0</ele><time>2026-04-29T19:25:11.019Z</time></trkpt><trkpt lat="38.8667235" lon="0.5815401"><ele>0.0</ele><time>2026-04-29T19:25:12.019Z</time></trkpt><trkpt lat="38.8668031" lon="0.5815821"><ele>0.0</ele><time>2026-04-29T19:25:13.02Z</time></trkpt><trkpt lat="38.8668832" lon="0.5816265"><ele>0.0</ele><time>2026-04-29T19:25:14.019Z</time></trkpt><trkpt lat="38.8670399" lon="0.5817194"><ele>0.0</ele><time>2026-04-29T19:25:16.02Z</time></trkpt><trkpt lat="38.8671168" lon="0.5817686"><ele>0.0</ele><time>2026-04-29T19:25:17.019Z</time></trkpt><trkpt lat="38.8671967" lon="0.5818167"><ele>0.0</ele><time>2026-04-29T19:25:18.02Z</time></trkpt><trkpt lat="38.8672767" lon="0.5818492"><ele>0.0</ele><time>2026-04-29T19:25:19.019Z</time></trkpt><trkpt lat="38.8673548" lon="0.5818908"><ele>0.0</ele><time>2026-04-29T19:25:20.019Z</time></trkpt><trkpt lat="38.867433" lon="0.5819381"><ele>0.0</ele><time>2026-04-29T19:25:21.019Z</time></trkpt><trkpt lat="38.8675089" lon="0.5819851"><ele>0.0</ele><time>2026-04-29T19:25:22.02Z</time></trkpt><trkpt lat="38.867585" lon="0.5820307"><ele>0.0</ele><time>2026-04-29T19:25:23.019Z</time></trkpt><trkpt lat="38.867662" lon="0.5820709"><ele>0.0</ele><time>2026-04-29T19:25:24.02Z</time></trkpt><trkpt lat="38.8677427" lon="0.5821175"><ele>0.0</ele><time>2026-04-29T19:25:25.019Z</time></trkpt><trkpt lat="38.8678203" lon="0.5821671"><ele>0.0</ele><time>2026-04-29T19:25:26.019Z</time></trkpt><trkpt lat="38.8679012" lon="0.5822162"><ele>0.0</ele><time>2026-04-29T19:25:27.02Z</time></trkpt><trkpt lat="38.8679811" lon="0.5822657"><ele>0.0</ele><time>2026-04-29T19:25:28.019Z</time></trkpt><trkpt lat="38.8680613" lon="0.582316"><ele>0.0</ele><time>2026-04-29T19:25:29.019Z</time></trkpt><trkpt lat="38.8681429" lon="0.5823718"><ele>0.0</ele><time>2026-04-29T19:25:30.019Z</time></trkpt><trkpt lat="38.8682218" lon="0.5824245"><ele>0.0</ele><time>2026-04-29T19:25:31.02Z</time></trkpt><trkpt lat="38.8683016" lon="0.5824703"><ele>0.0</ele><time>2026-04-29T19:25:32.019Z</time></trkpt><trkpt lat="38.8683817" lon="0.582518"><ele>0.0</ele><time>2026-04-29T19:25:33.02Z</time></trkpt><trkpt lat="38.8684628" lon="0.5825678"><ele>0.0</ele><time>2026-04-29T19:25:34.02Z</time></trkpt><trkpt lat="38.8685417" lon="0.5826164"><ele>0.0</ele><time>2026-04-29T19:25:35.02Z</time></trkpt><trkpt lat="38.8686974" lon="0.5827194"><ele>0.0</ele><time>2026-04-29T19:25:37.02Z</time></trkpt><trkpt lat="38.8687737" lon="0.5827754"><ele>0.0</ele><time>2026-04-29T19:25:38.019Z</time></trkpt><trkpt lat="38.8688518" lon="0.5828243"><ele>0.0</ele><time>2026-04-29T19:25:39.019Z</time></trkpt><trkpt lat="38.8689317" lon="0.5828725"><ele>0.0</ele><time>2026-04-29T19:25:40.019Z</time></trkpt><trkpt lat="38.8690116" lon="0.582925"><ele>0.0</ele><time>2026-04-29T19:25:41.02Z</time></trkpt><trkpt lat="38.8690917" lon="0.5829737"><ele>0.0</ele><time>2026-04-29T19:25:42.02Z</time></trkpt><trkpt lat="38.8691714" lon="0.5830225"><ele>0.0</ele><time>2026-04-29T19:25:43.02Z</time></trkpt><trkpt lat="38.8692558" lon="0.5830742"><ele>0.0</ele><time>2026-04-29T19:25:44.02Z</time></trkpt><trkpt lat="38.8693368" lon="0.5831279"><ele>0.0</ele><time>2026-04-29T19:25:45.019Z</time></trkpt><trkpt lat="38.8694151" lon="0.5831785"><ele>0.0</ele><time>2026-04-29T19:25:46.02Z</time></trkpt><trkpt lat="38.8694976" lon="0.5832324"><ele>0.0</ele><time>2026-04-29T19:25:47.019Z</time></trkpt><trkpt lat="38.8695767" lon="0.5832772"><ele>0.0</ele><time>2026-04-29T19:25:48.02Z</time></trkpt><trkpt lat="38.869655" lon="0.5833245"><ele>0.0</ele><time>2026-04-29T19:25:49.019Z</time></trkpt><trkpt lat="38.8697317" lon="0.5833789"><ele>0.0</ele><time>2026-04-29T19:25:50.019Z</time></trkpt><trkpt lat="38.8698031" lon="0.5834407"><ele>0.0</ele><time>2026-04-29T19:25:51.019Z</time></trkpt><trkpt lat="38.869882" lon="0.5834997"><ele>0.0</ele><time>2026-04-29T19:25:52.02Z</time></trkpt><trkpt lat="38.8699601" lon="0.5835544"><ele>0.0</ele><time>2026-04-29T19:25:53.02Z</time></trkpt><trkpt lat="38.8700383" lon="0.583603"><ele>0.0</ele><time>2026-04-29T19:25:54.019Z</time></trkpt><trkpt lat="38.8701169" lon="0.5836551"><ele>0.0</ele><time>2026-04-29T19:25:55.019Z</time></trkpt><trkpt lat="38.8701924" lon="0.5837001"><ele>0.0</ele><time>2026-04-29T19:25:56.019Z</time></trkpt><trkpt lat="38.8703561" lon="0.5837941"><ele>0.0</ele><time>2026-04-29T19:25:58.02Z</time></trkpt><trkpt lat="38.8704336" lon="0.5838427"><ele>0.0</ele><time>2026-04-29T19:25:59.02Z</time></trkpt><trkpt lat="38.8705115" lon="0.5838986"><ele>0.0</ele><time>2026-04-29T19:26:00.02Z</time></trkpt><trkpt lat="38.8705886" lon="0.5839542"><ele>0.0</ele><time>2026-04-29T19:26:01.019Z</time></trkpt><trkpt lat="38.8706681" lon="0.5840142"><ele>0.0</ele><time>2026-04-29T19:26:02.019Z</time></trkpt><trkpt lat="38.8707451" lon="0.5840562"><ele>0.0</ele><time>2026-04-29T19:26:03.019Z</time></trkpt><trkpt lat="38.870822" lon="0.5841075"><ele>0.0</ele><time>2026-04-29T19:26:04.019Z</time></trkpt><trkpt lat="38.8708987" lon="0.584163"><ele>0.0</ele><time>2026-04-29T19:26:05.02Z</time></trkpt><trkpt lat="38.8709796" lon="0.5842171"><ele>0.0</ele><time>2026-04-29T19:26:06.02Z</time></trkpt><trkpt lat="38.8710569" lon="0.5842719"><ele>0.0</ele><time>2026-04-29T19:26:07.02Z</time></trkpt><trkpt lat="38.8711362" lon="0.5843196"><ele>0.0</ele><time>2026-04-29T19:26:08.02Z</time></trkpt><trkpt lat="38.8712166" lon="0.5843794"><ele>0.0</ele><time>2026-04-29T19:26:09.019Z</time></trkpt><trkpt lat="38.8712921" lon="0.5844294"><ele>0.0</ele><time>2026-04-29T19:26:10.019Z</time></trkpt><trkpt lat="38.8713727" lon="0.5844842"><ele>0.0</ele><time>2026-04-29T19:26:11.02Z</time></trkpt><trkpt lat="38.871453" lon="0.5845348"><ele>0.0</ele><time>2026-04-29T19:26:12.019Z</time></trkpt><trkpt lat="38.871533" lon="0.5845831"><ele>0.0</ele><time>2026-04-29T19:26:13.019Z</time></trkpt><trkpt lat="38.8716143" lon="0.5846359"><ele>0.0</ele><time>2026-04-29T19:26:14.019Z</time></trkpt><trkpt lat="38.8716918" lon="0.5846895"><ele>0.0</ele><time>2026-04-29T19:26:15.019Z</time></trkpt><trkpt lat="38.8717672" lon="0.5847485"><ele>0.0</ele><time>2026-04-29T19:26:16.019Z</time></trkpt><trkpt lat="38.8718422" lon="0.5848034"><ele>0.0</ele><time>2026-04-29T19:26:17.019Z</time></trkpt><trkpt lat="38.8719999" lon="0.5849083"><ele>0.0</ele><time>2026-04-29T19:26:19.019Z</time></trkpt><trkpt lat="38.8720784" lon="0.5849632"><ele>0.0</ele><time>2026-04-29T19:26:20.02Z</time></trkpt><trkpt lat="38.8721537" lon="0.5850201"><ele>0.0</ele><time>2026-04-29T19:26:21.02Z</time></trkpt><trkpt lat="38.8722275" lon="0.5850751"><ele>0.0</ele><time>2026-04-29T19:26:22.019Z</time></trkpt><trkpt lat="38.8723008" lon="0.5851332"><ele>0.0</ele><time>2026-04-29T19:26:23.02Z</time></trkpt><trkpt lat="38.8723783" lon="0.5851855"><ele>0.0</ele><time>2026-04-29T19:26:24.02Z</time></trkpt><trkpt lat="38.8724537" lon="0.5852398"><ele>0.0</ele><time>2026-04-29T19:26:25.019Z</time></trkpt><trkpt lat="38.8725304" lon="0.5852994"><ele>0.0</ele><time>2026-04-29T19:26:26.019Z</time></trkpt><trkpt lat="38.8726081" lon="0.5853495"><ele>0.0</ele><time>2026-04-29T19:26:27.02Z</time></trkpt><trkpt lat="38.8726894" lon="0.5854004"><ele>0.0</ele><time>2026-04-29T19:26:28.019Z</time></trkpt><trkpt lat="38.8727712" lon="0.5854588"><ele>0.0</ele><time>2026-04-29T19:26:29.02Z</time></trkpt><trkpt lat="38.87285" lon="0.5855131"><ele>0.0</ele><time>2026-04-29T19:26:30.019Z</time></trkpt><trkpt lat="38.8729228" lon="0.5855604"><ele>0.0</ele><time>2026-04-29T19:26:31.02Z</time></trkpt><trkpt lat="38.872996" lon="0.5856173"><ele>0.0</ele><time>2026-04-29T19:26:32.019Z</time></trkpt><trkpt lat="38.8730723" lon="0.5856714"><ele>0.0</ele><time>2026-04-29T19:26:33.019Z</time></trkpt><trkpt lat="38.8731486" lon="0.5857207"><ele>0.0</ele><time>2026-04-29T19:26:34.019Z</time></trkpt><trkpt lat="38.8732279" lon="0.5857652"><ele>0.0</ele><time>2026-04-29T19:26:35.02Z</time></trkpt><trkpt lat="38.8733079" lon="0.5858106"><ele>0.0</ele><time>2026-04-29T19:26:36.02Z</time></trkpt><trkpt lat="38.873385" lon="0.5858611"><ele>0.0</ele><time>2026-04-29T19:26:37.019Z</time></trkpt><trkpt lat="38.8734676" lon="0.585902"><ele>0.0</ele><time>2026-04-29T19:26:38.019Z</time></trkpt><trkpt lat="38.8736201" lon="0.5859919"><ele>0.0</ele><time>2026-04-29T19:26:40.019Z</time></trkpt><trkpt lat="38.8736955" lon="0.5860381"><ele>0.0</ele><time>2026-04-29T19:26:41.02Z</time></trkpt><trkpt lat="38.8737732" lon="0.5860877"><ele>0.0</ele><time>2026-04-29T19:26:42.019Z</time></trkpt><trkpt lat="38.87385" lon="0.5861393"><ele>0.0</ele><time>2026-04-29T19:26:43.019Z</time></trkpt><trkpt lat="38.8739282" lon="0.5861904"><ele>0.0</ele><time>2026-04-29T19:26:44.019Z</time></trkpt><trkpt lat="38.8740054" lon="0.5862415"><ele>0.0</ele><time>2026-04-29T19:26:45.019Z</time></trkpt><trkpt lat="38.8740864" lon="0.5862902"><ele>0.0</ele><time>2026-04-29T19:26:46.02Z</time></trkpt><trkpt lat="38.8741664" lon="0.5863402"><ele>0.0</ele><time>2026-04-29T19:26:47.02Z</time></trkpt><trkpt lat="38.8742433" lon="0.5863935"><ele>0.0</ele><time>2026-04-29T19:26:48.02Z</time></trkpt><trkpt lat="38.8743219" lon="0.5864388"><ele>0.0</ele><time>2026-04-29T19:26:49.02Z</time></trkpt><trkpt lat="38.8744014" lon="0.5864885"><ele>0.0</ele><time>2026-04-29T19:26:50.019Z</time></trkpt><trkpt lat="38.87448" lon="0.5865372"><ele>0.0</ele><time>2026-04-29T19:26:51.019Z</time></trkpt><trkpt lat="38.8745551" lon="0.586587"><ele>0.0</ele><time>2026-04-29T19:26:52.02Z</time></trkpt><trkpt lat="38.8746332" lon="0.5866369"><ele>0.0</ele><time>2026-04-29T19:26:53.019Z</time></trkpt><trkpt lat="38.8747105" lon="0.5866945"><ele>0.0</ele><time>2026-04-29T19:26:54.019Z</time></trkpt><trkpt lat="38.8747873" lon="0.5867495"><ele>0.0</ele><time>2026-04-29T19:26:55.019Z</time></trkpt><trkpt lat="38.874861" lon="0.5867964"><ele>0.0</ele><time>2026-04-29T19:26:56.019Z</time></trkpt><trkpt lat="38.874937" lon="0.586844"><ele>0.0</ele><time>2026-04-29T19:26:57.02Z</time></trkpt><trkpt lat="38.8750095" lon="0.5868949"><ele>0.0</ele><time>2026-04-29T19:26:58.02Z</time></trkpt><trkpt lat="38.8750853" lon="0.5869508"><ele>0.0</ele><time>2026-04-29T19:26:59.019Z</time></trkpt><trkpt lat="38.8751604" lon="0.5870031"><ele>0.0</ele><time>2026-04-29T19:27:00.019Z</time></trkpt><trkpt lat="38.8753109" lon="0.5871035"><ele>0.0</ele><time>2026-04-29T19:27:02.019Z</time></trkpt><trkpt lat="38.8753914" lon="0.5871548"><ele>0.0</ele><time>2026-04-29T19:27:03.019Z</time></trkpt><trkpt lat="38.8754686" lon="0.587205"><ele>0.0</ele><time>2026-04-29T19:27:04.019Z</time></trkpt><trkpt lat="38.8755466" lon="0.5872569"><ele>0.0</ele><time>2026-04-29T19:27:05.02Z</time></trkpt><trkpt lat="38.8756248" lon="0.5873089"><ele>0.0</ele><time>2026-04-29T19:27:06.019Z</time></trkpt><trkpt lat="38.8757045" lon="0.5873609"><ele>0.0</ele><time>2026-04-29T19:27:07.019Z</time></trkpt><trkpt lat="38.8757863" lon="0.5874055"><ele>0.0</ele><time>2026-04-29T19:27:08.019Z</time></trkpt><trkpt lat="38.8758649" lon="0.5874469"><ele>0.0</ele><time>2026-04-29T19:27:09.019Z</time></trkpt><trkpt lat="38.8759431" lon="0.587494"><ele>0.0</ele><time>2026-04-29T19:27:10.02Z</time></trkpt><trkpt lat="38.8760256" lon="0.5875439"><ele>0.0</ele><time>2026-04-29T19:27:11.019Z</time></trkpt><trkpt lat="38.8761073" lon="0.5875945"><ele>0.0</ele><time>2026-04-29T19:27:12.02Z</time></trkpt><trkpt lat="38.876188" lon="0.5876431"><ele>0.0</ele><time>2026-04-29T19:27:13.02Z</time></trkpt><trkpt lat="38.8762709" lon="0.5876894"><ele>0.0</ele><time>2026-04-29T19:27:14.019Z</time></trkpt><trkpt lat="38.8763557" lon="0.5877371"><ele>0.0</ele><time>2026-04-29T19:27:15.02Z</time></trkpt><trkpt lat="38.8764378" lon="0.587786"><ele>0.0</ele><time>2026-04-29T19:27:16.019Z</time></trkpt><trkpt lat="38.8765184" lon="0.5878297"><ele>0.0</ele><time>2026-04-29T19:27:17.019Z</time></trkpt><trkpt lat="38.8765996" lon="0.5878777"><ele>0.0</ele><time>2026-04-29T19:27:18.019Z</time></trkpt><trkpt lat="38.876681" lon="0.5879245"><ele>0.0</ele><time>2026-04-29T19:27:19.02Z</time></trkpt><trkpt lat="38.8767632" lon="0.5879695"><ele>0.0</ele><time>2026-04-29T19:27:20.02Z</time></trkpt><trkpt lat="38.8768474" lon="0.5880186"><ele>0.0</ele><time>2026-04-29T19:27:21.019Z</time></trkpt><trkpt lat="38.8770046" lon="0.5881376"><ele>0.0</ele><time>2026-04-29T19:27:23.02Z</time></trkpt><trkpt lat="38.8770819" lon="0.5882011"><ele>0.0</ele><time>2026-04-29T19:27:24.02Z</time></trkpt><trkpt lat="38.8771586" lon="0.5882588"><ele>0.0</ele><time>2026-04-29T19:27:25.02Z</time></trkpt><trkpt lat="38.8772399" lon="0.5883081"><ele>0.0</ele><time>2026-04-29T19:27:26.019Z</time></trkpt><trkpt lat="38.8773213" lon="0.5883579"><ele>0.0</ele><time>2026-04-29T19:27:27.02Z</time></trkpt><trkpt lat="38.877403" lon="0.5884079"><ele>0.0</ele><time>2026-04-29T19:27:28.02Z</time></trkpt><trkpt lat="38.8774841" lon="0.588466"><ele>0.0</ele><time>2026-04-29T19:27:29.02Z</time></trkpt><trkpt lat="38.8775672" lon="0.588524"><ele>0.0</ele><time>2026-04-29T19:27:30.019Z</time></trkpt><trkpt lat="38.8776422" lon="0.5885739"><ele>0.0</ele><time>2026-04-29T19:27:31.019Z</time></trkpt><trkpt lat="38.8777161" lon="0.5886189"><ele>0.0</ele><time>2026-04-29T19:27:32.02Z</time></trkpt><trkpt lat="38.8777919" lon="0.588678"><ele>0.0</ele><time>2026-04-29T19:27:33.02Z</time></trkpt><trkpt lat="38.8778702" lon="0.5887328"><ele>0.0</ele><time>2026-04-29T19:27:34.02Z</time></trkpt><trkpt lat="38.877947" lon="0.5887866"><ele>0.0</ele><time>2026-04-29T19:27:35.02Z</time></trkpt><trkpt lat="38.8780222" lon="0.5888408"><ele>0.0</ele><time>2026-04-29T19:27:36.019Z</time></trkpt><trkpt lat="38.8781014" lon="0.5888959"><ele>0.0</ele><time>2026-04-29T19:27:37.019Z</time></trkpt><trkpt lat="38.8781844" lon="0.588949"><ele>0.0</ele><time>2026-04-29T19:27:38.019Z</time></trkpt><trkpt lat="38.8782634" lon="0.5889999"><ele>0.0</ele><time>2026-04-29T19:27:39.019Z</time></trkpt><trkpt lat="38.8783416" lon="0.5890504"><ele>0.0</ele><time>2026-04-29T19:27:40.02Z</time></trkpt><trkpt lat="38.8784198" lon="0.5890984"><ele>0.0</ele><time>2026-04-29T19:27:41.019Z</time></trkpt><trkpt lat="38.8784971" lon="0.5891434"><ele>0.0</ele><time>2026-04-29T19:27:42.02Z</time></trkpt><trkpt lat="38.8786519" lon="0.5892431"><ele>0.0</ele><time>2026-04-29T19:27:44.02Z</time></trkpt><trkpt lat="38.8787287" lon="0.5892964"><ele>0.0</ele><time>2026-04-29T19:27:45.019Z</time></trkpt><trkpt lat="38.8788082" lon="0.5893532"><ele>0.0</ele><time>2026-04-29T19:27:46.019Z</time></trkpt><trkpt lat="38.8788853" lon="0.5894084"><ele>0.0</ele><time>2026-04-29T19:27:47.019Z</time></trkpt><trkpt lat="38.8789634" lon="0.5894649"><ele>0.0</ele><time>2026-04-29T19:27:48.02Z</time></trkpt><trkpt lat="38.8790403" lon="0.5895152"><ele>0.0</ele><time>2026-04-29T19:27:49.019Z</time></trkpt><trkpt lat="38.87912" lon="0.5895654"><ele>0.0</ele><time>2026-04-29T19:27:50.019Z</time></trkpt><trkpt lat="38.879203" lon="0.589617"><ele>0.0</ele><time>2026-04-29T19:27:51.019Z</time></trkpt><trkpt lat="38.8792763" lon="0.5896643"><ele>0.0</ele><time>2026-04-29T19:27:52.02Z</time></trkpt><trkpt lat="38.8793479" lon="0.5897157"><ele>0.0</ele><time>2026-04-29T19:27:53.019Z</time></trkpt><trkpt lat="38.8794193" lon="0.589763"><ele>0.0</ele><time>2026-04-29T19:27:54.02Z</time></trkpt><trkpt lat="38.8795066" lon="0.5898037"><ele>0.0</ele><time>2026-04-29T19:27:55.02Z</time></trkpt><trkpt lat="38.8795863" lon="0.5898538"><ele>0.0</ele><time>2026-04-29T19:27:56.019Z</time></trkpt><trkpt lat="38.8796664" lon="0.5899036"><ele>0.0</ele><time>2026-04-29T19:27:57.02Z</time></trkpt><trkpt lat="38.8797518" lon="0.5899386"><ele>0.0</ele><time>2026-04-29T19:27:58.018Z</time></trkpt><trkpt lat="38.8798358" lon="0.5899827"><ele>0.0</ele><time>2026-04-29T19:27:59.018Z</time></trkpt><trkpt lat="38.8799162" lon="0.5900372"><ele>0.0</ele><time>2026-04-29T19:28:00.018Z</time></trkpt><trkpt lat="38.8799976" lon="0.5900915"><ele>0.0</ele><time>2026-04-29T19:28:01.018Z</time></trkpt><trkpt lat="38.8800822" lon="0.590151"><ele>0.0</ele><time>2026-04-29T19:28:02.019Z</time></trkpt><trkpt lat="38.8801583" lon="0.5902085"><ele>0.0</ele><time>2026-04-29T19:28:03.018Z</time></trkpt><trkpt lat="38.8802378" lon="0.590258"><ele>0.0</ele><time>2026-04-29T19:28:04.019Z</time></trkpt><trkpt lat="38.8803975" lon="0.5903567"><ele>0.0</ele><time>2026-04-29T19:28:06.019Z</time></trkpt><trkpt lat="38.8804779" lon="0.5904069"><ele>0.0</ele><time>2026-04-29T19:28:07.018Z</time></trkpt><trkpt lat="38.8805566" lon="0.5904449"><ele>0.0</ele><time>2026-04-29T19:28:08.018Z</time></trkpt><trkpt lat="38.880635" lon="0.5904906"><ele>0.0</ele><time>2026-04-29T19:28:09.019Z</time></trkpt><trkpt lat="38.8807159" lon="0.5905348"><ele>0.0</ele><time>2026-04-29T19:28:10.018Z</time></trkpt><trkpt lat="38.8807976" lon="0.5905801"><ele>0.0</ele><time>2026-04-29T19:28:11.018Z</time></trkpt><trkpt lat="38.8808768" lon="0.5906286"><ele>0.0</ele><time>2026-04-29T19:28:12.018Z</time></trkpt><trkpt lat="38.8809522" lon="0.5906785"><ele>0.0</ele><time>2026-04-29T19:28:13.019Z</time></trkpt><trkpt lat="38.8810277" lon="0.5907327"><ele>0.0</ele><time>2026-04-29T19:28:14.018Z</time></trkpt><trkpt lat="38.8811091" lon="0.5907804"><ele>0.0</ele><time>2026-04-29T19:28:15.018Z</time></trkpt><trkpt lat="38.8811896" lon="0.5908271"><ele>0.0</ele><time>2026-04-29T19:28:16.018Z</time></trkpt><trkpt lat="38.8812697" lon="0.5908766"><ele>0.0</ele><time>2026-04-29T19:28:17.019Z</time></trkpt><trkpt lat="38.8813498" lon="0.5909305"><ele>0.0</ele><time>2026-04-29T19:28:18.019Z</time></trkpt><trkpt lat="38.881427" lon="0.5909927"><ele>0.0</ele><time>2026-04-29T19:28:19.018Z</time></trkpt><trkpt lat="38.8815007" lon="0.5910497"><ele>0.0</ele><time>2026-04-29T19:28:20.018Z</time></trkpt><trkpt lat="38.8815757" lon="0.591102"><ele>0.0</ele><time>2026-04-29T19:28:21.018Z</time></trkpt><trkpt lat="38.881651" lon="0.591149"><ele>0.0</ele><time>2026-04-29T19:28:22.019Z</time></trkpt><trkpt lat="38.8817288" lon="0.5912038"><ele>0.0</ele><time>2026-04-29T19:28:23.018Z</time></trkpt><trkpt lat="38.8818028" lon="0.5912531"><ele>0.0</ele><time>2026-04-29T19:28:24.018Z</time></trkpt><trkpt lat="38.8818831" lon="0.5913012"><ele>0.0</ele><time>2026-04-29T19:28:25.019Z</time></trkpt><trkpt lat="38.8820432" lon="0.5914194"><ele>0.0</ele><time>2026-04-29T19:28:27.019Z</time></trkpt><trkpt lat="38.8821203" lon="0.5914716"><ele>0.0</ele><time>2026-04-29T19:28:28.019Z</time></trkpt><trkpt lat="38.8821984" lon="0.5915216"><ele>0.0</ele><time>2026-04-29T19:28:29.018Z</time></trkpt><trkpt lat="38.8822767" lon="0.5915729"><ele>0.0</ele><time>2026-04-29T19:28:30.019Z</time></trkpt><trkpt lat="38.882355" lon="0.591627"><ele>0.0</ele><time>2026-04-29T19:28:31.018Z</time></trkpt><trkpt lat="38.8824361" lon="0.5916811"><ele>0.0</ele><time>2026-04-29T19:28:32.019Z</time></trkpt><trkpt lat="38.8825134" lon="0.5917279"><ele>0.0</ele><time>2026-04-29T19:28:33.018Z</time></trkpt><trkpt lat="38.8825888" lon="0.5917785"><ele>0.0</ele><time>2026-04-29T19:28:34.019Z</time></trkpt><trkpt lat="38.8826694" lon="0.5918329"><ele>0.0</ele><time>2026-04-29T19:28:35.019Z</time></trkpt><trkpt lat="38.8827483" lon="0.5918821"><ele>0.0</ele><time>2026-04-29T19:28:36.018Z</time></trkpt><trkpt lat="38.8828269" lon="0.5919318"><ele>0.0</ele><time>2026-04-29T19:28:37.018Z</time></trkpt><trkpt lat="38.8828993" lon="0.5919877"><ele>0.0</ele><time>2026-04-29T19:28:38.018Z</time></trkpt><trkpt lat="38.8829769" lon="0.5920308"><ele>0.0</ele><time>2026-04-29T19:28:39.018Z</time></trkpt><trkpt lat="38.883052" lon="0.5920758"><ele>0.0</ele><time>2026-04-29T19:28:40.019Z</time></trkpt><trkpt lat="38.8831245" lon="0.592109"><ele>0.0</ele><time>2026-04-29T19:28:41.019Z</time></trkpt><trkpt lat="38.8832019" lon="0.5921553"><ele>0.0</ele><time>2026-04-29T19:28:42.018Z</time></trkpt><trkpt lat="38.8832814" lon="0.5922024"><ele>0.0</ele><time>2026-04-29T19:28:43.018Z</time></trkpt><trkpt lat="38.8833599" lon="0.5922555"><ele>0.0</ele><time>2026-04-29T19:28:44.019Z</time></trkpt><trkpt lat="38.8834399" lon="0.5922995"><ele>0.0</ele><time>2026-04-29T19:28:45.019Z</time></trkpt><trkpt lat="38.8835168" lon="0.5923479"><ele>0.0</ele><time>2026-04-29T19:28:46.018Z</time></trkpt><trkpt lat="38.8836807" lon="0.5924361"><ele>0.0</ele><time>2026-04-29T19:28:48.018Z</time></trkpt><trkpt lat="38.883764" lon="0.5924823"><ele>0.0</ele><time>2026-04-29T19:28:49.018Z</time></trkpt><trkpt lat="38.8838475" lon="0.592536"><ele>0.0</ele><time>2026-04-29T19:28:50.018Z</time></trkpt><trkpt lat="38.8839298" lon="0.5925857"><ele>0.0</ele><time>2026-04-29T19:28:51.019Z</time></trkpt><trkpt lat="38.8840098" lon="0.5926389"><ele>0.0</ele><time>2026-04-29T19:28:52.019Z</time></trkpt><trkpt lat="38.884093" lon="0.5926876"><ele>0.0</ele><time>2026-04-29T19:28:53.018Z</time></trkpt><trkpt lat="38.8841705" lon="0.5927333"><ele>0.0</ele><time>2026-04-29T19:28:54.018Z</time></trkpt><trkpt lat="38.8842502" lon="0.5927835"><ele>0.0</ele><time>2026-04-29T19:28:55.018Z</time></trkpt><trkpt lat="38.8843283" lon="0.5928276"><ele>0.0</ele><time>2026-04-29T19:28:56.018Z</time></trkpt><trkpt lat="38.8844083" lon="0.5928758"><ele>0.0</ele><time>2026-04-29T19:28:57.018Z</time></trkpt><trkpt lat="38.8844869" lon="0.592923"><ele>0.0</ele><time>2026-04-29T19:28:58.019Z</time></trkpt><trkpt lat="38.8845623" lon="0.5929686"><ele>0.0</ele><time>2026-04-29T19:28:59.019Z</time></trkpt><trkpt lat="38.8846442" lon="0.5930241"><ele>0.0</ele><time>2026-04-29T19:29:00.018Z</time></trkpt><trkpt lat="38.8847278" lon="0.5930778"><ele>0.0</ele><time>2026-04-29T19:29:01.019Z</time></trkpt><trkpt lat="38.884808" lon="0.593131"><ele>0.0</ele><time>2026-04-29T19:29:02.018Z</time></trkpt><trkpt lat="38.8848881" lon="0.5931797"><ele>0.0</ele><time>2026-04-29T19:29:03.018Z</time></trkpt><trkpt lat="38.8849682" lon="0.5932261"><ele>0.0</ele><time>2026-04-29T19:29:04.018Z</time></trkpt><trkpt lat="38.8850483" lon="0.5932696"><ele>0.0</ele><time>2026-04-29T19:29:05.019Z</time></trkpt><trkpt lat="38.8851279" lon="0.5933163"><ele>0.0</ele><time>2026-04-29T19:29:06.019Z</time></trkpt><trkpt lat="38.8852068" lon="0.5933642"><ele>0.0</ele><time>2026-04-29T19:29:07.019Z</time></trkpt><trkpt lat="38.8852866" lon="0.5934106"><ele>0.0</ele><time>2026-04-29T19:29:08.019Z</time></trkpt><trkpt lat="38.8854494" lon="0.5935108"><ele>0.0</ele><time>2026-04-29T19:29:10.018Z</time></trkpt><trkpt lat="38.8855229" lon="0.593558"><ele>0.0</ele><time>2026-04-29T19:29:11.018Z</time></trkpt><trkpt lat="38.8856033" lon="0.593613"><ele>0.0</ele><time>2026-04-29T19:29:12.019Z</time></trkpt><trkpt lat="38.8856818" lon="0.5936646"><ele>0.0</ele><time>2026-04-29T19:29:13.018Z</time></trkpt><trkpt lat="38.8857615" lon="0.5937137"><ele>0.0</ele><time>2026-04-29T19:29:14.018Z</time></trkpt><trkpt lat="38.8858384" lon="0.5937731"><ele>0.0</ele><time>2026-04-29T19:29:15.019Z</time></trkpt><trkpt lat="38.8859192" lon="0.593832"><ele>0.0</ele><time>2026-04-29T19:29:16.018Z</time></trkpt><trkpt lat="38.8859954" lon="0.5938886"><ele>0.0</ele><time>2026-04-29T19:29:17.019Z</time></trkpt><trkpt lat="38.8860677" lon="0.5939407"><ele>0.0</ele><time>2026-04-29T19:29:18.018Z</time></trkpt><trkpt lat="38.886148" lon="0.5939837"><ele>0.0</ele><time>2026-04-29T19:29:19.019Z</time></trkpt><trkpt lat="38.8862253" lon="0.5940298"><ele>0.0</ele><time>2026-04-29T19:29:20.019Z</time></trkpt><trkpt lat="38.8863021" lon="0.594088"><ele>0.0</ele><time>2026-04-29T19:29:21.019Z</time></trkpt><trkpt lat="38.88638" lon="0.5941455"><ele>0.0</ele><time>2026-04-29T19:29:22.019Z</time></trkpt><trkpt lat="38.8864618" lon="0.5942027"><ele>0.0</ele><time>2026-04-29T19:29:23.018Z</time></trkpt><trkpt lat="38.8865388" lon="0.5942592"><ele>0.0</ele><time>2026-04-29T19:29:24.019Z</time></trkpt><trkpt lat="38.8866196" lon="0.5943129"><ele>0.0</ele><time>2026-04-29T19:29:25.019Z</time></trkpt><trkpt lat="38.8866998" lon="0.5943689"><ele>0.0</ele><time>2026-04-29T19:29:26.019Z</time></trkpt><trkpt lat="38.8867827" lon="0.594418"><ele>0.0</ele><time>2026-04-29T19:29:27.019Z</time></trkpt><trkpt lat="38.886866" lon="0.5944669"><ele>0.0</ele><time>2026-04-29T19:29:28.018Z</time></trkpt><trkpt lat="38.8869451" lon="0.5945206"><ele>0.0</ele><time>2026-04-29T19:29:29.018Z</time></trkpt><trkpt lat="38.8870951" lon="0.5946274"><ele>0.0</ele><time>2026-04-29T19:29:31.018Z</time></trkpt><trkpt lat="38.8871675" lon="0.5946867"><ele>0.0</ele><time>2026-04-29T19:29:32.019Z</time></trkpt><trkpt lat="38.887249" lon="0.594737"><ele>0.0</ele><time>2026-04-29T19:29:33.018Z</time></trkpt><trkpt lat="38.8873312" lon="0.5947909"><ele>0.0</ele><time>2026-04-29T19:29:34.019Z</time></trkpt><trkpt lat="38.8874144" lon="0.594836"><ele>0.0</ele><time>2026-04-29T19:29:35.018Z</time></trkpt><trkpt lat="38.8874917" lon="0.594894"><ele>0.0</ele><time>2026-04-29T19:29:36.019Z</time></trkpt><trkpt lat="38.8875745" lon="0.5949438"><ele>0.0</ele><time>2026-04-29T19:29:37.018Z</time></trkpt><trkpt lat="38.8876562" lon="0.5949912"><ele>0.0</ele><time>2026-04-29T19:29:38.019Z</time></trkpt><trkpt lat="38.8877308" lon="0.5950436"><ele>0.0</ele><time>2026-04-29T19:29:39.018Z</time></trkpt><trkpt lat="38.8878026" lon="0.5950983"><ele>0.0</ele><time>2026-04-29T19:29:40.018Z</time></trkpt><trkpt lat="38.8878847" lon="0.5951516"><ele>0.0</ele><time>2026-04-29T19:29:41.018Z</time></trkpt><trkpt lat="38.887965" lon="0.595201"><ele>0.0</ele><time>2026-04-29T19:29:42.018Z</time></trkpt><trkpt lat="38.8880465" lon="0.5952506"><ele>0.0</ele><time>2026-04-29T19:29:43.019Z</time></trkpt><trkpt lat="38.8881266" lon="0.5953019"><ele>0.0</ele><time>2026-04-29T19:29:44.019Z</time></trkpt><trkpt lat="38.8882048" lon="0.5953546"><ele>0.0</ele><time>2026-04-29T19:29:45.018Z</time></trkpt><trkpt lat="38.888282" lon="0.5954094"><ele>0.0</ele><time>2026-04-29T19:29:46.018Z</time></trkpt><trkpt lat="38.8883573" lon="0.5954619"><ele>0.0</ele><time>2026-04-29T19:29:47.019Z</time></trkpt><trkpt lat="38.8884365" lon="0.5955157"><ele>0.0</ele><time>2026-04-29T19:29:48.018Z</time></trkpt><trkpt lat="38.8885081" lon="0.59557"><ele>0.0</ele><time>2026-04-29T19:29:49.019Z</time></trkpt><trkpt lat="38.8885839" lon="0.5956228"><ele>0.0</ele><time>2026-04-29T19:29:50.019Z</time></trkpt><trkpt lat="38.8887431" lon="0.5957136"><ele>0.0</ele><time>2026-04-29T19:29:52.018Z</time></trkpt><trkpt lat="38.8888215" lon="0.5957571"><ele>0.0</ele><time>2026-04-29T19:29:53.019Z</time></trkpt><trkpt lat="38.8888985" lon="0.595801"><ele>0.0</ele><time>2026-04-29T19:29:54.019Z</time></trkpt><trkpt lat="38.8889796" lon="0.5958568"><ele>0.0</ele><time>2026-04-29T19:29:55.019Z</time></trkpt><trkpt lat="38.8890597" lon="0.5959101"><ele>0.0</ele><time>2026-04-29T19:29:56.018Z</time></trkpt><trkpt lat="38.8891413" lon="0.5959589"><ele>0.0</ele><time>2026-04-29T19:29:57.019Z</time></trkpt><trkpt lat="38.8892145" lon="0.596008"><ele>0.0</ele><time>2026-04-29T19:29:58.018Z</time></trkpt><trkpt lat="38.8892904" lon="0.5960574"><ele>0.0</ele><time>2026-04-29T19:29:59.018Z</time></trkpt><trkpt lat="38.8893584" lon="0.5961129"><ele>0.0</ele><time>2026-04-29T19:30:00.018Z</time></trkpt><trkpt lat="38.8894295" lon="0.5961691"><ele>0.0</ele><time>2026-04-29T19:30:01.018Z</time></trkpt><trkpt lat="38.8895055" lon="0.5962218"><ele>0.0</ele><time>2026-04-29T19:30:02.018Z</time></trkpt><trkpt lat="38.8895805" lon="0.596266"><ele>0.0</ele><time>2026-04-29T19:30:03.019Z</time></trkpt><trkpt lat="38.8896639" lon="0.596314"><ele>0.0</ele><time>2026-04-29T19:30:04.019Z</time></trkpt><trkpt lat="38.8897432" lon="0.5963514"><ele>0.0</ele><time>2026-04-29T19:30:05.018Z</time></trkpt><trkpt lat="38.8898232" lon="0.5963935"><ele>0.0</ele><time>2026-04-29T19:30:06.018Z</time></trkpt><trkpt lat="38.8899045" lon="0.5964395"><ele>0.0</ele><time>2026-04-29T19:30:07.019Z</time></trkpt><trkpt lat="38.8899814" lon="0.5964909"><ele>0.0</ele><time>2026-04-29T19:30:08.019Z</time></trkpt><trkpt lat="38.8900597" lon="0.596542"><ele>0.0</ele><time>2026-04-29T19:30:09.018Z</time></trkpt><trkpt lat="38.890141" lon="0.5965951"><ele>0.0</ele><time>2026-04-29T19:30:10.019Z</time></trkpt><trkpt lat="38.890221" lon="0.5966457"><ele>0.0</ele><time>2026-04-29T19:30:11.018Z</time></trkpt><trkpt lat="38.8903013" lon="0.5966954"><ele>0.0</ele><time>2026-04-29T19:30:12.018Z</time></trkpt><trkpt lat="38.8904628" lon="0.5968069"><ele>0.0</ele><time>2026-04-29T19:30:14.018Z</time></trkpt><trkpt lat="38.8905445" lon="0.5968641"><ele>0.0</ele><time>2026-04-29T19:30:15.019Z</time></trkpt><trkpt lat="38.8906193" lon="0.5969199"><ele>0.0</ele><time>2026-04-29T19:30:16.018Z</time></trkpt><trkpt lat="38.8906985" lon="0.5969778"><ele>0.0</ele><time>2026-04-29T19:30:17.018Z</time></trkpt><trkpt lat="38.8907754" lon="0.5970365"><ele>0.0</ele><time>2026-04-29T19:30:18.018Z</time></trkpt><trkpt lat="38.8908535" lon="0.5970852"><ele>0.0</ele><time>2026-04-29T19:30:19.019Z</time></trkpt><trkpt lat="38.8909317" lon="0.5971334"><ele>0.0</ele><time>2026-04-29T19:30:20.018Z</time></trkpt><trkpt lat="38.8910043" lon="0.597186"><ele>0.0</ele><time>2026-04-29T19:30:21.018Z</time></trkpt><trkpt lat="38.8910776" lon="0.5972332"><ele>0.0</ele><time>2026-04-29T19:30:22.018Z</time></trkpt><trkpt lat="38.8911568" lon="0.5972784"><ele>0.0</ele><time>2026-04-29T19:30:23.018Z</time></trkpt><trkpt lat="38.891238" lon="0.5973186"><ele>0.0</ele><time>2026-04-29T19:30:24.018Z</time></trkpt><trkpt lat="38.891318" lon="0.5973672"><ele>0.0</ele><time>2026-04-29T19:30:25.018Z</time></trkpt><trkpt lat="38.8913965" lon="0.5974159"><ele>0.0</ele><time>2026-04-29T19:30:26.019Z</time></trkpt><trkpt lat="38.8914751" lon="0.5974629"><ele>0.0</ele><time>2026-04-29T19:30:27.019Z</time></trkpt><trkpt lat="38.8915521" lon="0.5975115"><ele>0.0</ele><time>2026-04-29T19:30:28.018Z</time></trkpt><trkpt lat="38.891636" lon="0.5975585"><ele>0.0</ele><time>2026-04-29T19:30:29.018Z</time></trkpt><trkpt lat="38.8917181" lon="0.5976078"><ele>0.0</ele><time>2026-04-29T19:30:30.019Z</time></trkpt><trkpt lat="38.8917982" lon="0.5976611"><ele>0.0</ele><time>2026-04-29T19:30:31.018Z</time></trkpt><trkpt lat="38.8918767" lon="0.5977115"><ele>0.0</ele><time>2026-04-29T19:30:32.019Z</time></trkpt><trkpt lat="38.8919592" lon="0.5977639"><ele>0.0</ele><time>2026-04-29T19:30:33.018Z</time></trkpt><trkpt lat="38.8921261" lon="0.5978474"><ele>0.0</ele><time>2026-04-29T19:30:35.019Z</time></trkpt><trkpt lat="38.8922049" lon="0.5978921"><ele>0.0</ele><time>2026-04-29T19:30:36.018Z</time></trkpt><trkpt lat="38.8922803" lon="0.5979394"><ele>0.0</ele><time>2026-04-29T19:30:37.018Z</time></trkpt><trkpt lat="38.8923599" lon="0.5979853"><ele>0.0</ele><time>2026-04-29T19:30:38.018Z</time></trkpt><trkpt lat="38.8924401" lon="0.5980309"><ele>0.0</ele><time>2026-04-29T19:30:39.018Z</time></trkpt><trkpt lat="38.8925215" lon="0.5980819"><ele>0.0</ele><time>2026-04-29T19:30:40.019Z</time></trkpt><trkpt lat="38.8926065" lon="0.5981251"><ele>0.0</ele><time>2026-04-29T19:30:41.019Z</time></trkpt><trkpt lat="38.8926867" lon="0.5981684"><ele>0.0</ele><time>2026-04-29T19:30:42.019Z</time></trkpt><trkpt lat="38.8927665" lon="0.5982133"><ele>0.0</ele><time>2026-04-29T19:30:43.019Z</time></trkpt><trkpt lat="38.8928493" lon="0.5982611"><ele>0.0</ele><time>2026-04-29T19:30:44.018Z</time></trkpt><trkpt lat="38.8929269" lon="0.5983142"><ele>0.0</ele><time>2026-04-29T19:30:45.019Z</time></trkpt><trkpt lat="38.8930064" lon="0.5983657"><ele>0.0</ele><time>2026-04-29T19:30:46.019Z</time></trkpt><trkpt lat="38.8930907" lon="0.5984129"><ele>0.0</ele><time>2026-04-29T19:30:47.019Z</time></trkpt><trkpt lat="38.89317" lon="0.5984681"><ele>0.0</ele><time>2026-04-29T19:30:48.018Z</time></trkpt><trkpt lat="38.8932516" lon="0.598522"><ele>0.0</ele><time>2026-04-29T19:30:49.019Z</time></trkpt><trkpt lat="38.8933331" lon="0.5985739"><ele>0.0</ele><time>2026-04-29T19:30:50.018Z</time></trkpt><trkpt lat="38.8934106" lon="0.5986222"><ele>0.0</ele><time>2026-04-29T19:30:51.018Z</time></trkpt><trkpt lat="38.893487" lon="0.598675"><ele>0.0</ele><time>2026-04-29T19:30:52.018Z</time></trkpt><trkpt lat="38.893565" lon="0.5987339"><ele>0.0</ele><time>2026-04-29T19:30:53.019Z</time></trkpt><trkpt lat="38.8936446" lon="0.598791"><ele>0.0</ele><time>2026-04-29T19:30:54.018Z</time></trkpt><trkpt lat="38.8938078" lon="0.5988989"><ele>0.0</ele><time>2026-04-29T19:30:56.018Z</time></trkpt><trkpt lat="38.8938879" lon="0.5989503"><ele>0.0</ele><time>2026-04-29T19:30:57.018Z</time></trkpt><trkpt lat="38.8939665" lon="0.5989994"><ele>0.0</ele><time>2026-04-29T19:30:58.018Z</time></trkpt><trkpt lat="38.8940467" lon="0.5990461"><ele>0.0</ele><time>2026-04-29T19:30:59.018Z</time></trkpt><trkpt lat="38.8941266" lon="0.5990913"><ele>0.0</ele><time>2026-04-29T19:31:00.019Z</time></trkpt><trkpt lat="38.8942064" lon="0.5991387"><ele>0.0</ele><time>2026-04-29T19:31:01.018Z</time></trkpt><trkpt lat="38.8942865" lon="0.5991886"><ele>0.0</ele><time>2026-04-29T19:31:02.018Z</time></trkpt><trkpt lat="38.8943652" lon="0.5992416"><ele>0.0</ele><time>2026-04-29T19:31:03.018Z</time></trkpt><trkpt lat="38.8944449" lon="0.5992951"><ele>0.0</ele><time>2026-04-29T19:31:04.018Z</time></trkpt><trkpt lat="38.894522" lon="0.5993481"><ele>0.0</ele><time>2026-04-29T19:31:05.018Z</time></trkpt><trkpt lat="38.8945959" lon="0.5993972"><ele>0.0</ele><time>2026-04-29T19:31:06.018Z</time></trkpt><trkpt lat="38.8946707" lon="0.5994441"><ele>0.0</ele><time>2026-04-29T19:31:07.019Z</time></trkpt><trkpt lat="38.894749" lon="0.5994955"><ele>0.0</ele><time>2026-04-29T19:31:08.019Z</time></trkpt><trkpt lat="38.8948197" lon="0.5995477"><ele>0.0</ele><time>2026-04-29T19:31:09.018Z</time></trkpt><trkpt lat="38.8948923" lon="0.5995975"><ele>0.0</ele><time>2026-04-29T19:31:10.019Z</time></trkpt><trkpt lat="38.8949628" lon="0.5996543"><ele>0.0</ele><time>2026-04-29T19:31:11.018Z</time></trkpt><trkpt lat="38.8950325" lon="0.5997181"><ele>0.0</ele><time>2026-04-29T19:31:12.018Z</time></trkpt><trkpt lat="38.8951043" lon="0.599779"><ele>0.0</ele><time>2026-04-29T19:31:13.018Z</time></trkpt><trkpt lat="38.8951761" lon="0.5998437"><ele>0.0</ele><time>2026-04-29T19:31:14.018Z</time></trkpt><trkpt lat="38.8952485" lon="0.5998993"><ele>0.0</ele><time>2026-04-29T19:31:15.018Z</time></trkpt><trkpt lat="38.8953279" lon="0.5999472"><ele>0.0</ele><time>2026-04-29T19:31:16.019Z</time></trkpt><trkpt lat="38.8954961" lon="0.6000412"><ele>0.0</ele><time>2026-04-29T19:31:18.018Z</time></trkpt><trkpt lat="38.8955707" lon="0.600096"><ele>0.0</ele><time>2026-04-29T19:31:19.019Z</time></trkpt><trkpt lat="38.8956525" lon="0.6001425"><ele>0.0</ele><time>2026-04-29T19:31:20.018Z</time></trkpt><trkpt lat="38.8957301" lon="0.6001888"><ele>0.0</ele><time>2026-04-29T19:31:21.018Z</time></trkpt><trkpt lat="38.8958072" lon="0.600238"><ele>0.0</ele><time>2026-04-29T19:31:22.019Z</time></trkpt><trkpt lat="38.8958851" lon="0.6002885"><ele>0.0</ele><time>2026-04-29T19:31:23.019Z</time></trkpt><trkpt lat="38.8959651" lon="0.600337"><ele>0.0</ele><time>2026-04-29T19:31:24.019Z</time></trkpt><trkpt lat="38.8960452" lon="0.6003827"><ele>0.0</ele><time>2026-04-29T19:31:25.018Z</time></trkpt><trkpt lat="38.8961253" lon="0.6004225"><ele>0.0</ele><time>2026-04-29T19:31:26.019Z</time></trkpt><trkpt lat="38.8962133" lon="0.6004587"><ele>0.0</ele><time>2026-04-29T19:31:27.018Z</time></trkpt><trkpt lat="38.8962982" lon="0.6005036"><ele>0.0</ele><time>2026-04-29T19:31:28.018Z</time></trkpt><trkpt lat="38.8963754" lon="0.600546"><ele>0.0</ele><time>2026-04-29T19:31:29.019Z</time></trkpt><trkpt lat="38.8964521" lon="0.6005852"><ele>0.0</ele><time>2026-04-29T19:31:30.018Z</time></trkpt><trkpt lat="38.8965375" lon="0.6006224"><ele>0.0</ele><time>2026-04-29T19:31:31.018Z</time></trkpt><trkpt lat="38.896614" lon="0.6006673"><ele>0.0</ele><time>2026-04-29T19:31:32.018Z</time></trkpt><trkpt lat="38.8966904" lon="0.600716"><ele>0.0</ele><time>2026-04-29T19:31:33.019Z</time></trkpt><trkpt lat="38.896767" lon="0.6007647"><ele>0.0</ele><time>2026-04-29T19:31:34.018Z</time></trkpt><trkpt lat="38.8968494" lon="0.6008111"><ele>0.0</ele><time>2026-04-29T19:31:35.018Z</time></trkpt><trkpt lat="38.8969316" lon="0.6008587"><ele>0.0</ele><time>2026-04-29T19:31:36.019Z</time></trkpt><trkpt lat="38.8970088" lon="0.6009067"><ele>0.0</ele><time>2026-04-29T19:31:37.018Z</time></trkpt><trkpt lat="38.8971648" lon="0.6010104"><ele>0.0</ele><time>2026-04-29T19:31:39.019Z</time></trkpt><trkpt lat="38.8972471" lon="0.6010632"><ele>0.0</ele><time>2026-04-29T19:31:40.018Z</time></trkpt><trkpt lat="38.8973277" lon="0.6011155"><ele>0.0</ele><time>2026-04-29T19:31:41.018Z</time></trkpt><trkpt lat="38.8974082" lon="0.6011669"><ele>0.0</ele><time>2026-04-29T19:31:42.018Z</time></trkpt><trkpt lat="38.8974851" lon="0.6012186"><ele>0.0</ele><time>2026-04-29T19:31:43.019Z</time></trkpt><trkpt lat="38.8975663" lon="0.6012645"><ele>0.0</ele><time>2026-04-29T19:31:44.019Z</time></trkpt><trkpt lat="38.8976475" lon="0.6013125"><ele>0.0</ele><time>2026-04-29T19:31:45.019Z</time></trkpt><trkpt lat="38.8977355" lon="0.6013589"><ele>0.0</ele><time>2026-04-29T19:31:46.019Z</time></trkpt><trkpt lat="38.8978264" lon="0.6014134"><ele>0.0</ele><time>2026-04-29T19:31:47.018Z</time></trkpt><trkpt lat="38.8979093" lon="0.6014675"><ele>0.0</ele><time>2026-04-29T19:31:48.019Z</time></trkpt><trkpt lat="38.8979913" lon="0.6015224"><ele>0.0</ele><time>2026-04-29T19:31:49.018Z</time></trkpt><trkpt lat="38.8980701" lon="0.6015784"><ele>0.0</ele><time>2026-04-29T19:31:50.019Z</time></trkpt><trkpt lat="38.898144" lon="0.6016306"><ele>0.0</ele><time>2026-04-29T19:31:51.018Z</time></trkpt><trkpt lat="38.8982184" lon="0.6016824"><ele>0.0</ele><time>2026-04-29T19:31:52.019Z</time></trkpt><trkpt lat="38.8982956" lon="0.6017379"><ele>0.0</ele><time>2026-04-29T19:31:53.019Z</time></trkpt><trkpt lat="38.8983709" lon="0.6017862"><ele>0.0</ele><time>2026-04-29T19:31:54.019Z</time></trkpt><trkpt lat="38.8984475" lon="0.6018434"><ele>0.0</ele><time>2026-04-29T19:31:55.018Z</time></trkpt><trkpt lat="38.89852" lon="0.6018971"><ele>0.0</ele><time>2026-04-29T19:31:56.018Z</time></trkpt><trkpt lat="38.898596" lon="0.6019486"><ele>0.0</ele><time>2026-04-29T19:31:57.019Z</time></trkpt><trkpt lat="38.8986721" lon="0.6020018"><ele>0.0</ele><time>2026-04-29T19:31:58.018Z</time></trkpt><trkpt lat="38.8988194" lon="0.6021019"><ele>0.0</ele><time>2026-04-29T19:32:00.018Z</time></trkpt><trkpt lat="38.8988949" lon="0.6021536"><ele>0.0</ele><time>2026-04-29T19:32:01.019Z</time></trkpt><trkpt lat="38.8989745" lon="0.6022031"><ele>0.0</ele><time>2026-04-29T19:32:02.019Z</time></trkpt><trkpt lat="38.8990517" lon="0.6022502"><ele>0.0</ele><time>2026-04-29T19:32:03.019Z</time></trkpt><trkpt lat="38.899131" lon="0.6022962"><ele>0.0</ele><time>2026-04-29T19:32:04.019Z</time></trkpt><trkpt lat="38.8992115" lon="0.6023396"><ele>0.0</ele><time>2026-04-29T19:32:05.018Z</time></trkpt><trkpt lat="38.8992844" lon="0.6023872"><ele>0.0</ele><time>2026-04-29T19:32:06.018Z</time></trkpt><trkpt lat="38.8993546" lon="0.6024488"><ele>0.0</ele><time>2026-04-29T19:32:07.018Z</time></trkpt><trkpt lat="38.8994348" lon="0.6025019"><ele>0.0</ele><time>2026-04-29T19:32:08.019Z</time></trkpt><trkpt lat="38.8995159" lon="0.6025536"><ele>0.0</ele><time>2026-04-29T19:32:09.018Z</time></trkpt><trkpt lat="38.8996033" lon="0.6025899"><ele>0.0</ele><time>2026-04-29T19:32:10.018Z</time></trkpt><trkpt lat="38.8996861" lon="0.6026326"><ele>0.0</ele><time>2026-04-29T19:32:11.018Z</time></trkpt><trkpt lat="38.8997708" lon="0.6026776"><ele>0.0</ele><time>2026-04-29T19:32:12.018Z</time></trkpt><trkpt lat="38.8998501" lon="0.6027282"><ele>0.0</ele><time>2026-04-29T19:32:13.018Z</time></trkpt><trkpt lat="38.8999328" lon="0.6027783"><ele>0.0</ele><time>2026-04-29T19:32:14.019Z</time></trkpt><trkpt lat="38.9000129" lon="0.602832"><ele>0.0</ele><time>2026-04-29T19:32:15.018Z</time></trkpt><trkpt lat="38.9000955" lon="0.6028827"><ele>0.0</ele><time>2026-04-29T19:32:16.019Z</time></trkpt><trkpt lat="38.9001781" lon="0.6029321"><ele>0.0</ele><time>2026-04-29T19:32:17.019Z</time></trkpt><trkpt lat="38.9002515" lon="0.6029809"><ele>0.0</ele><time>2026-04-29T19:32:18.019Z</time></trkpt><trkpt lat="38.9003285" lon="0.6030334"><ele>0.0</ele><time>2026-04-29T19:32:19.019Z</time></trkpt><trkpt lat="38.900491" lon="0.6031379"><ele>0.0</ele><time>2026-04-29T19:32:21.019Z</time></trkpt><trkpt lat="38.9005744" lon="0.6031858"><ele>0.0</ele><time>2026-04-29T19:32:22.018Z</time></trkpt><trkpt lat="38.900658" lon="0.6032311"><ele>0.0</ele><time>2026-04-29T19:32:23.019Z</time></trkpt><trkpt lat="38.9007427" lon="0.603273"><ele>0.0</ele><time>2026-04-29T19:32:24.018Z</time></trkpt><trkpt lat="38.9008247" lon="0.6033296"><ele>0.0</ele><time>2026-04-29T19:32:25.018Z</time></trkpt><trkpt lat="38.9009034" lon="0.6033778"><ele>0.0</ele><time>2026-04-29T19:32:26.018Z</time></trkpt><trkpt lat="38.9009817" lon="0.603427"><ele>0.0</ele><time>2026-04-29T19:32:27.018Z</time></trkpt><trkpt lat="38.9010588" lon="0.6034799"><ele>0.0</ele><time>2026-04-29T19:32:28.019Z</time></trkpt><trkpt lat="38.9011385" lon="0.6035188"><ele>0.0</ele><time>2026-04-29T19:32:29.018Z</time></trkpt><trkpt lat="38.9012112" lon="0.6035631"><ele>0.0</ele><time>2026-04-29T19:32:30.019Z</time></trkpt><trkpt lat="38.9012842" lon="0.6036184"><ele>0.0</ele><time>2026-04-29T19:32:31.019Z</time></trkpt><trkpt lat="38.9013603" lon="0.6036698"><ele>0.0</ele><time>2026-04-29T19:32:32.019Z</time></trkpt><trkpt lat="38.9014346" lon="0.6037237"><ele>0.0</ele><time>2026-04-29T19:32:33.018Z</time></trkpt><trkpt lat="38.9015109" lon="0.6037806"><ele>0.0</ele><time>2026-04-29T19:32:34.019Z</time></trkpt><trkpt lat="38.9015877" lon="0.6038321"><ele>0.0</ele><time>2026-04-29T19:32:35.019Z</time></trkpt><trkpt lat="38.901665" lon="0.6038829"><ele>0.0</ele><time>2026-04-29T19:32:36.017Z</time></trkpt><trkpt lat="38.9017388" lon="0.6039347"><ele>0.0</ele><time>2026-04-29T19:32:37.017Z</time></trkpt><trkpt lat="38.9018125" lon="0.6039841"><ele>0.0</ele><time>2026-04-29T19:32:38.017Z</time></trkpt><trkpt lat="38.9018946" lon="0.60403"><ele>0.0</ele><time>2026-04-29T19:32:39.017Z</time></trkpt><trkpt lat="38.9019762" lon="0.6040778"><ele>0.0</ele><time>2026-04-29T19:32:40.017Z</time></trkpt><trkpt lat="38.9021424" lon="0.6041811"><ele>0.0</ele><time>2026-04-29T19:32:42.017Z</time></trkpt><trkpt lat="38.9022232" lon="0.6042317"><ele>0.0</ele><time>2026-04-29T19:32:43.017Z</time></trkpt><trkpt lat="38.9023031" lon="0.6042855"><ele>0.0</ele><time>2026-04-29T19:32:44.017Z</time></trkpt><trkpt lat="38.902379" lon="0.6043372"><ele>0.0</ele><time>2026-04-29T19:32:45.018Z</time></trkpt><trkpt lat="38.9024539" lon="0.6043986"><ele>0.0</ele><time>2026-04-29T19:32:46.018Z</time></trkpt><trkpt lat="38.9025405" lon="0.6044418"><ele>0.0</ele><time>2026-04-29T19:32:47.017Z</time></trkpt><trkpt lat="38.9026243" lon="0.6044868"><ele>0.0</ele><time>2026-04-29T19:32:48.017Z</time></trkpt><trkpt lat="38.9027046" lon="0.6045344"><ele>0.0</ele><time>2026-04-29T19:32:49.018Z</time></trkpt><trkpt lat="38.902786" lon="0.6045829"><ele>0.0</ele><time>2026-04-29T19:32:50.017Z</time></trkpt><trkpt lat="38.9028636" lon="0.6046328"><ele>0.0</ele><time>2026-04-29T19:32:51.017Z</time></trkpt><trkpt lat="38.9029404" lon="0.6046815"><ele>0.0</ele><time>2026-04-29T19:32:52.018Z</time></trkpt><trkpt lat="38.9030159" lon="0.6047317"><ele>0.0</ele><time>2026-04-29T19:32:53.017Z</time></trkpt><trkpt lat="38.9030837" lon="0.6047816"><ele>0.0</ele><time>2026-04-29T19:32:54.017Z</time></trkpt><trkpt lat="38.9031588" lon="0.6048458"><ele>0.0</ele><time>2026-04-29T19:32:55.017Z</time></trkpt><trkpt lat="38.9032368" lon="0.6048964"><ele>0.0</ele><time>2026-04-29T19:32:56.017Z</time></trkpt><trkpt lat="38.903321" lon="0.6049422"><ele>0.0</ele><time>2026-04-29T19:32:57.018Z</time></trkpt><trkpt lat="38.9033982" lon="0.6049946"><ele>0.0</ele><time>2026-04-29T19:32:58.018Z</time></trkpt><trkpt lat="38.9034763" lon="0.605048"><ele>0.0</ele><time>2026-04-29T19:32:59.017Z</time></trkpt><trkpt lat="38.9035575" lon="0.6051011"><ele>0.0</ele><time>2026-04-29T19:33:00.018Z</time></trkpt><trkpt lat="38.9036381" lon="0.6051513"><ele>0.0</ele><time>2026-04-29T19:33:01.017Z</time></trkpt><trkpt lat="38.90379" lon="0.605255"><ele>0.0</ele><time>2026-04-29T19:33:03.018Z</time></trkpt><trkpt lat="38.9038686" lon="0.6052984"><ele>0.0</ele><time>2026-04-29T19:33:04.018Z</time></trkpt><trkpt lat="38.9039468" lon="0.6053448"><ele>0.0</ele><time>2026-04-29T19:33:05.017Z</time></trkpt><trkpt lat="38.9040264" lon="0.6053933"><ele>0.0</ele><time>2026-04-29T19:33:06.017Z</time></trkpt><trkpt lat="38.9041021" lon="0.6054431"><ele>0.0</ele><time>2026-04-29T19:33:07.018Z</time></trkpt><trkpt lat="38.9041776" lon="0.6054902"><ele>0.0</ele><time>2026-04-29T19:33:08.018Z</time></trkpt><trkpt lat="38.9042581" lon="0.6055428"><ele>0.0</ele><time>2026-04-29T19:33:09.017Z</time></trkpt><trkpt lat="38.9043396" lon="0.6055964"><ele>0.0</ele><time>2026-04-29T19:33:10.018Z</time></trkpt><trkpt lat="38.9044183" lon="0.6056469"><ele>0.0</ele><time>2026-04-29T19:33:11.017Z</time></trkpt><trkpt lat="38.9044969" lon="0.6056978"><ele>0.0</ele><time>2026-04-29T19:33:12.018Z</time></trkpt><trkpt lat="38.9045737" lon="0.6057496"><ele>0.0</ele><time>2026-04-29T19:33:13.017Z</time></trkpt><trkpt lat="38.9046542" lon="0.6058021"><ele>0.0</ele><time>2026-04-29T19:33:14.017Z</time></trkpt><trkpt lat="38.9047387" lon="0.6058585"><ele>0.0</ele><time>2026-04-29T19:33:15.018Z</time></trkpt><trkpt lat="38.9048126" lon="0.6059135"><ele>0.0</ele><time>2026-04-29T19:33:16.018Z</time></trkpt><trkpt lat="38.9048874" lon="0.6059717"><ele>0.0</ele><time>2026-04-29T19:33:17.017Z</time></trkpt><trkpt lat="38.9049623" lon="0.6060271"><ele>0.0</ele><time>2026-04-29T19:33:18.017Z</time></trkpt><trkpt lat="38.9050345" lon="0.6060879"><ele>0.0</ele><time>2026-04-29T19:33:19.017Z</time></trkpt><trkpt lat="38.9051103" lon="0.6061412"><ele>0.0</ele><time>2026-04-29T19:33:20.018Z</time></trkpt><trkpt lat="38.9051859" lon="0.6061945"><ele>0.0</ele><time>2026-04-29T19:33:21.018Z</time></trkpt><trkpt lat="38.9052662" lon="0.6062464"><ele>0.0</ele><time>2026-04-29T19:33:22.017Z</time></trkpt><trkpt lat="38.9053497" lon="0.6062947"><ele>0.0</ele><time>2026-04-29T19:33:23.017Z</time></trkpt><trkpt lat="38.9055101" lon="0.6063899"><ele>0.0</ele><time>2026-04-29T19:33:25.017Z</time></trkpt><trkpt lat="38.9055929" lon="0.6064369"><ele>0.0</ele><time>2026-04-29T19:33:26.018Z</time></trkpt><trkpt lat="38.9056759" lon="0.6064845"><ele>0.0</ele><time>2026-04-29T19:33:27.018Z</time></trkpt><trkpt lat="38.9057581" lon="0.6065316"><ele>0.0</ele><time>2026-04-29T19:33:28.018Z</time></trkpt><trkpt lat="38.9058369" lon="0.6065802"><ele>0.0</ele><time>2026-04-29T19:33:29.017Z</time></trkpt><trkpt lat="38.9059151" lon="0.6066299"><ele>0.0</ele><time>2026-04-29T19:33:30.018Z</time></trkpt><trkpt lat="38.9059905" lon="0.6066801"><ele>0.0</ele><time>2026-04-29T19:33:31.017Z</time></trkpt><trkpt lat="38.9060698" lon="0.6067271"><ele>0.0</ele><time>2026-04-29T19:33:32.017Z</time></trkpt><trkpt lat="38.9061511" lon="0.6067763"><ele>0.0</ele><time>2026-04-29T19:33:33.018Z</time></trkpt><trkpt lat="38.9062317" lon="0.6068235"><ele>0.0</ele><time>2026-04-29T19:33:34.017Z</time></trkpt><trkpt lat="38.9063087" lon="0.6068752"><ele>0.0</ele><time>2026-04-29T19:33:35.018Z</time></trkpt><trkpt lat="38.9063857" lon="0.6069248"><ele>0.0</ele><time>2026-04-29T19:33:36.017Z</time></trkpt><trkpt lat="38.9064624" lon="0.6069705"><ele>0.0</ele><time>2026-04-29T19:33:37.017Z</time></trkpt><trkpt lat="38.9065446" lon="0.6070201"><ele>0.0</ele><time>2026-04-29T19:33:38.018Z</time></trkpt><trkpt lat="38.9066236" lon="0.6070687"><ele>0.0</ele><time>2026-04-29T19:33:39.017Z</time></trkpt><trkpt lat="38.9067006" lon="0.6071198"><ele>0.0</ele><time>2026-04-29T19:33:40.017Z</time></trkpt><trkpt lat="38.9067773" lon="0.6071696"><ele>0.0</ele><time>2026-04-29T19:33:41.018Z</time></trkpt><trkpt lat="38.9068596" lon="0.6072175"><ele>0.0</ele><time>2026-04-29T19:33:42.017Z</time></trkpt><trkpt lat="38.9069427" lon="0.6072662"><ele>0.0</ele><time>2026-04-29T19:33:43.017Z</time></trkpt><trkpt lat="38.9070214" lon="0.607318"><ele>0.0</ele><time>2026-04-29T19:33:44.018Z</time></trkpt><trkpt lat="38.9071737" lon="0.607413"><ele>0.0</ele><time>2026-04-29T19:33:46.018Z</time></trkpt><trkpt lat="38.9072504" lon="0.6074612"><ele>0.0</ele><time>2026-04-29T19:33:47.017Z</time></trkpt><trkpt lat="38.9073207" lon="0.6075187"><ele>0.0</ele><time>2026-04-29T19:33:48.017Z</time></trkpt><trkpt lat="38.9073967" lon="0.6075709"><ele>0.0</ele><time>2026-04-29T19:33:49.018Z</time></trkpt><trkpt lat="38.9074777" lon="0.6076214"><ele>0.0</ele><time>2026-04-29T19:33:50.018Z</time></trkpt><trkpt lat="38.907561" lon="0.6076724"><ele>0.0</ele><time>2026-04-29T19:33:51.017Z</time></trkpt><trkpt lat="38.907644" lon="0.6077278"><ele>0.0</ele><time>2026-04-29T19:33:52.017Z</time></trkpt><trkpt lat="38.9077292" lon="0.6077749"><ele>0.0</ele><time>2026-04-29T19:33:53.018Z</time></trkpt><trkpt lat="38.9078069" lon="0.607826"><ele>0.0</ele><time>2026-04-29T19:33:54.018Z</time></trkpt><trkpt lat="38.907888" lon="0.6078825"><ele>0.0</ele><time>2026-04-29T19:33:55.017Z</time></trkpt><trkpt lat="38.9079707" lon="0.6079392"><ele>0.0</ele><time>2026-04-29T19:33:56.018Z</time></trkpt><trkpt lat="38.9080498" lon="0.607988"><ele>0.0</ele><time>2026-04-29T19:33:57.018Z</time></trkpt><trkpt lat="38.9081262" lon="0.6080366"><ele>0.0</ele><time>2026-04-29T19:33:58.017Z</time></trkpt><trkpt lat="38.908202" lon="0.6080819"><ele>0.0</ele><time>2026-04-29T19:33:59.017Z</time></trkpt><trkpt lat="38.9082842" lon="0.6081283"><ele>0.0</ele><time>2026-04-29T19:34:00.018Z</time></trkpt><trkpt lat="38.908365" lon="0.6081767"><ele>0.0</ele><time>2026-04-29T19:34:01.018Z</time></trkpt><trkpt lat="38.9084449" lon="0.6082283"><ele>0.0</ele><time>2026-04-29T19:34:02.017Z</time></trkpt><trkpt lat="38.9085278" lon="0.6082798"><ele>0.0</ele><time>2026-04-29T19:34:03.018Z</time></trkpt><trkpt lat="38.9086099" lon="0.6083245"><ele>0.0</ele><time>2026-04-29T19:34:04.018Z</time></trkpt><trkpt lat="38.9086842" lon="0.608376"><ele>0.0</ele><time>2026-04-29T19:34:05.017Z</time></trkpt><trkpt lat="38.908834" lon="0.6084666"><ele>0.0</ele><time>2026-04-29T19:34:07.017Z</time></trkpt><trkpt lat="38.9089162" lon="0.6085131"><ele>0.0</ele><time>2026-04-29T19:34:08.018Z</time></trkpt><trkpt lat="38.9089953" lon="0.6085599"><ele>0.0</ele><time>2026-04-29T19:34:09.017Z</time></trkpt><trkpt lat="38.9090777" lon="0.6086075"><ele>0.0</ele><time>2026-04-29T19:34:10.018Z</time></trkpt><trkpt lat="38.9091567" lon="0.6086532"><ele>0.0</ele><time>2026-04-29T19:34:11.017Z</time></trkpt><trkpt lat="38.9092383" lon="0.6087"><ele>0.0</ele><time>2026-04-29T19:34:12.018Z</time></trkpt><trkpt lat="38.9093155" lon="0.6087482"><ele>0.0</ele><time>2026-04-29T19:34:13.018Z</time></trkpt><trkpt lat="38.9093948" lon="0.6087981"><ele>0.0</ele><time>2026-04-29T19:34:14.017Z</time></trkpt><trkpt lat="38.9094763" lon="0.6088479"><ele>0.0</ele><time>2026-04-29T19:34:15.017Z</time></trkpt><trkpt lat="38.9095593" lon="0.6088978"><ele>0.0</ele><time>2026-04-29T19:34:16.018Z</time></trkpt><trkpt lat="38.9096399" lon="0.6089508"><ele>0.0</ele><time>2026-04-29T19:34:17.017Z</time></trkpt><trkpt lat="38.9097184" lon="0.6090011"><ele>0.0</ele><time>2026-04-29T19:34:18.017Z</time></trkpt><trkpt lat="38.9097984" lon="0.6090451"><ele>0.0</ele><time>2026-04-29T19:34:19.018Z</time></trkpt><trkpt lat="38.9098754" lon="0.6091019"><ele>0.0</ele><time>2026-04-29T19:34:20.018Z</time></trkpt><trkpt lat="38.9099525" lon="0.6091519"><ele>0.0</ele><time>2026-04-29T19:34:21.017Z</time></trkpt><trkpt lat="38.9100321" lon="0.6092079"><ele>0.0</ele><time>2026-04-29T19:34:22.017Z</time></trkpt><trkpt lat="38.9101085" lon="0.6092594"><ele>0.0</ele><time>2026-04-29T19:34:23.018Z</time></trkpt><trkpt lat="38.9101883" lon="0.6093163"><ele>0.0</ele><time>2026-04-29T19:34:24.017Z</time></trkpt><trkpt lat="38.9102624" lon="0.6093762"><ele>0.0</ele><time>2026-04-29T19:34:25.018Z</time></trkpt><trkpt lat="38.9103375" lon="0.6094305"><ele>0.0</ele><time>2026-04-29T19:34:26.017Z</time></trkpt><trkpt lat="38.91049" lon="0.6095396"><ele>0.0</ele><time>2026-04-29T19:34:28.018Z</time></trkpt><trkpt lat="38.9105651" lon="0.6095947"><ele>0.0</ele><time>2026-04-29T19:34:29.018Z</time></trkpt><trkpt lat="38.9106473" lon="0.609651"><ele>0.0</ele><time>2026-04-29T19:34:30.018Z</time></trkpt><trkpt lat="38.9107265" lon="0.6097017"><ele>0.0</ele><time>2026-04-29T19:34:31.017Z</time></trkpt><trkpt lat="38.9108081" lon="0.6097528"><ele>0.0</ele><time>2026-04-29T19:34:32.018Z</time></trkpt><trkpt lat="38.9108884" lon="0.6098048"><ele>0.0</ele><time>2026-04-29T19:34:33.017Z</time></trkpt><trkpt lat="38.9109656" lon="0.6098551"><ele>0.0</ele><time>2026-04-29T19:34:34.017Z</time></trkpt><trkpt lat="38.9110434" lon="0.609908"><ele>0.0</ele><time>2026-04-29T19:34:35.017Z</time></trkpt><trkpt lat="38.911119" lon="0.6099534"><ele>0.0</ele><time>2026-04-29T19:34:36.017Z</time></trkpt><trkpt lat="38.9111939" lon="0.610007"><ele>0.0</ele><time>2026-04-29T19:34:37.018Z</time></trkpt><trkpt lat="38.9112719" lon="0.6100563"><ele>0.0</ele><time>2026-04-29T19:34:38.017Z</time></trkpt><trkpt lat="38.9113519" lon="0.6101043"><ele>0.0</ele><time>2026-04-29T19:34:39.017Z</time></trkpt><trkpt lat="38.9114302" lon="0.6101517"><ele>0.0</ele><time>2026-04-29T19:34:40.018Z</time></trkpt><trkpt lat="38.9115093" lon="0.6102013"><ele>0.0</ele><time>2026-04-29T19:34:41.017Z</time></trkpt><trkpt lat="38.9115915" lon="0.6102496"><ele>0.0</ele><time>2026-04-29T19:34:42.017Z</time></trkpt><trkpt lat="38.91167" lon="0.6103012"><ele>0.0</ele><time>2026-04-29T19:34:43.017Z</time></trkpt><trkpt lat="38.9117544" lon="0.6103539"><ele>0.0</ele><time>2026-04-29T19:34:44.017Z</time></trkpt><trkpt lat="38.9118322" lon="0.6104032"><ele>0.0</ele><time>2026-04-29T19:34:45.017Z</time></trkpt><trkpt lat="38.911907" lon="0.6104599"><ele>0.0</ele><time>2026-04-29T19:34:46.018Z</time></trkpt><trkpt lat="38.9119863" lon="0.6105178"><ele>0.0</ele><time>2026-04-29T19:34:47.017Z</time></trkpt><trkpt lat="38.9121466" lon="0.6106261"><ele>0.0</ele><time>2026-04-29T19:34:49.017Z</time></trkpt><trkpt lat="38.9122248" lon="0.6106809"><ele>0.0</ele><time>2026-04-29T19:34:50.017Z</time></trkpt><trkpt lat="38.9123047" lon="0.6107342"><ele>0.0</ele><time>2026-04-29T19:34:51.018Z</time></trkpt><trkpt lat="38.9123791" lon="0.6107859"><ele>0.0</ele><time>2026-04-29T19:34:52.017Z</time></trkpt><trkpt lat="38.9124565" lon="0.6108362"><ele>0.0</ele><time>2026-04-29T19:34:53.017Z</time></trkpt><trkpt lat="38.9125363" lon="0.6108844"><ele>0.0</ele><time>2026-04-29T19:34:54.018Z</time></trkpt><trkpt lat="38.9126167" lon="0.6109329"><ele>0.0</ele><time>2026-04-29T19:34:55.017Z</time></trkpt><trkpt lat="38.9126968" lon="0.6109862"><ele>0.0</ele><time>2026-04-29T19:34:56.017Z</time></trkpt><trkpt lat="38.9127708" lon="0.6110403"><ele>0.0</ele><time>2026-04-29T19:34:57.017Z</time></trkpt><trkpt lat="38.9128426" lon="0.6110922"><ele>0.0</ele><time>2026-04-29T19:34:58.017Z</time></trkpt><trkpt lat="38.9129186" lon="0.6111436"><ele>0.0</ele><time>2026-04-29T19:34:59.018Z</time></trkpt><trkpt lat="38.9129953" lon="0.6111935"><ele>0.0</ele><time>2026-04-29T19:35:00.017Z</time></trkpt><trkpt lat="38.9130749" lon="0.6112371"><ele>0.0</ele><time>2026-04-29T19:35:01.017Z</time></trkpt><trkpt lat="38.9131533" lon="0.61128"><ele>0.0</ele><time>2026-04-29T19:35:02.017Z</time></trkpt><trkpt lat="38.9132315" lon="0.6113283"><ele>0.0</ele><time>2026-04-29T19:35:03.017Z</time></trkpt><trkpt lat="38.9133121" lon="0.6113733"><ele>0.0</ele><time>2026-04-29T19:35:04.017Z</time></trkpt><trkpt lat="38.9133891" lon="0.6114273"><ele>0.0</ele><time>2026-04-29T19:35:05.018Z</time></trkpt><trkpt lat="38.9134665" lon="0.6114827"><ele>0.0</ele><time>2026-04-29T19:35:06.018Z</time></trkpt><trkpt lat="38.9135434" lon="0.6115351"><ele>0.0</ele><time>2026-04-29T19:35:07.017Z</time></trkpt><trkpt lat="38.9136217" lon="0.6115867"><ele>0.0</ele><time>2026-04-29T19:35:08.017Z</time></trkpt><trkpt lat="38.9137833" lon="0.611681"><ele>0.0</ele><time>2026-04-29T19:35:10.018Z</time></trkpt><trkpt lat="38.913862" lon="0.6117271"><ele>0.0</ele><time>2026-04-29T19:35:11.018Z</time></trkpt><trkpt lat="38.913937" lon="0.6117747"><ele>0.0</ele><time>2026-04-29T19:35:12.017Z</time></trkpt><trkpt lat="38.9140133" lon="0.6118246"><ele>0.0</ele><time>2026-04-29T19:35:13.018Z</time></trkpt><trkpt lat="38.9140913" lon="0.6118776"><ele>0.0</ele><time>2026-04-29T19:35:14.017Z</time></trkpt><trkpt lat="38.9141684" lon="0.6119322"><ele>0.0</ele><time>2026-04-29T19:35:15.018Z</time></trkpt><trkpt lat="38.9142461" lon="0.611984"><ele>0.0</ele><time>2026-04-29T19:35:16.018Z</time></trkpt><trkpt lat="38.9143262" lon="0.6120312"><ele>0.0</ele><time>2026-04-29T19:35:17.017Z</time></trkpt><trkpt lat="38.9144063" lon="0.6120828"><ele>0.0</ele><time>2026-04-29T19:35:18.017Z</time></trkpt><trkpt lat="38.914485" lon="0.6121331"><ele>0.0</ele><time>2026-04-29T19:35:19.017Z</time></trkpt><trkpt lat="38.9145677" lon="0.6121847"><ele>0.0</ele><time>2026-04-29T19:35:20.017Z</time></trkpt><trkpt lat="38.9146482" lon="0.6122265"><ele>0.0</ele><time>2026-04-29T19:35:21.017Z</time></trkpt><trkpt lat="38.9147298" lon="0.612275"><ele>0.0</ele><time>2026-04-29T19:35:22.018Z</time></trkpt><trkpt lat="38.9148111" lon="0.6123279"><ele>0.0</ele><time>2026-04-29T19:35:23.017Z</time></trkpt><trkpt lat="38.9148913" lon="0.6123798"><ele>0.0</ele><time>2026-04-29T19:35:24.018Z</time></trkpt><trkpt lat="38.9149715" lon="0.6124265"><ele>0.0</ele><time>2026-04-29T19:35:25.017Z</time></trkpt><trkpt lat="38.9150532" lon="0.6124729"><ele>0.0</ele><time>2026-04-29T19:35:26.017Z</time></trkpt><trkpt lat="38.9151348" lon="0.6125198"><ele>0.0</ele><time>2026-04-29T19:35:27.017Z</time></trkpt><trkpt lat="38.9152153" lon="0.6125667"><ele>0.0</ele><time>2026-04-29T19:35:28.017Z</time></trkpt><trkpt lat="38.9152951" lon="0.6126132"><ele>0.0</ele><time>2026-04-29T19:35:29.018Z</time></trkpt><trkpt lat="38.9154537" lon="0.6127043"><ele>0.0</ele><time>2026-04-29T19:35:31.017Z</time></trkpt><trkpt lat="38.9155333" lon="0.6127545"><ele>0.0</ele><time>2026-04-29T19:35:32.018Z</time></trkpt><trkpt lat="38.9156101" lon="0.6128058"><ele>0.0</ele><time>2026-04-29T19:35:33.017Z</time></trkpt><trkpt lat="38.9156884" lon="0.6128564"><ele>0.0</ele><time>2026-04-29T19:35:34.017Z</time></trkpt><trkpt lat="38.9157682" lon="0.6129079"><ele>0.0</ele><time>2026-04-29T19:35:35.017Z</time></trkpt><trkpt lat="38.9158455" lon="0.6129601"><ele>0.0</ele><time>2026-04-29T19:35:36.017Z</time></trkpt><trkpt lat="38.9159219" lon="0.6130133"><ele>0.0</ele><time>2026-04-29T19:35:37.017Z</time></trkpt><trkpt lat="38.9159969" lon="0.6130665"><ele>0.0</ele><time>2026-04-29T19:35:38.018Z</time></trkpt><trkpt lat="38.9160763" lon="0.6131181"><ele>0.0</ele><time>2026-04-29T19:35:39.017Z</time></trkpt><trkpt lat="38.9161568" lon="0.6131699"><ele>0.0</ele><time>2026-04-29T19:35:40.017Z</time></trkpt><trkpt lat="38.9162338" lon="0.6132246"><ele>0.0</ele><time>2026-04-29T19:35:41.017Z</time></trkpt><trkpt lat="38.9163074" lon="0.6132768"><ele>0.0</ele><time>2026-04-29T19:35:42.017Z</time></trkpt><trkpt lat="38.9163837" lon="0.6133297"><ele>0.0</ele><time>2026-04-29T19:35:43.018Z</time></trkpt><trkpt lat="38.9164592" lon="0.6133779"><ele>0.0</ele><time>2026-04-29T19:35:44.018Z</time></trkpt><trkpt lat="38.9165352" lon="0.6134273"><ele>0.0</ele><time>2026-04-29T19:35:45.017Z</time></trkpt><trkpt lat="38.9166133" lon="0.613476"><ele>0.0</ele><time>2026-04-29T19:35:46.018Z</time></trkpt><trkpt lat="38.9166903" lon="0.6135272"><ele>0.0</ele><time>2026-04-29T19:35:47.018Z</time></trkpt><trkpt lat="38.9167667" lon="0.6135795"><ele>0.0</ele><time>2026-04-29T19:35:48.017Z</time></trkpt><trkpt lat="38.9168465" lon="0.613638"><ele>0.0</ele><time>2026-04-29T19:35:49.017Z</time></trkpt><trkpt lat="38.9169208" lon="0.6136917"><ele>0.0</ele><time>2026-04-29T19:35:50.017Z</time></trkpt><trkpt lat="38.9170704" lon="0.6138099"><ele>0.0</ele><time>2026-04-29T19:35:52.017Z</time></trkpt><trkpt lat="38.9171484" lon="0.6138598"><ele>0.0</ele><time>2026-04-29T19:35:53.017Z</time></trkpt><trkpt lat="38.9172284" lon="0.6139097"><ele>0.0</ele><time>2026-04-29T19:35:54.018Z</time></trkpt><trkpt lat="38.9173079" lon="0.6139597"><ele>0.0</ele><time>2026-04-29T19:35:55.017Z</time></trkpt><trkpt lat="38.9173863" lon="0.6140162"><ele>0.0</ele><time>2026-04-29T19:35:56.017Z</time></trkpt><trkpt lat="38.9174665" lon="0.61407"><ele>0.0</ele><time>2026-04-29T19:35:57.017Z</time></trkpt><trkpt lat="38.9175423" lon="0.6141259"><ele>0.0</ele><time>2026-04-29T19:35:58.017Z</time></trkpt><trkpt lat="38.9176173" lon="0.6141785"><ele>0.0</ele><time>2026-04-29T19:35:59.018Z</time></trkpt><trkpt lat="38.9176938" lon="0.6142283"><ele>0.0</ele><time>2026-04-29T19:36:00.017Z</time></trkpt><trkpt lat="38.9177705" lon="0.6142769"><ele>0.0</ele><time>2026-04-29T19:36:01.018Z</time></trkpt><trkpt lat="38.9178464" lon="0.6143311"><ele>0.0</ele><time>2026-04-29T19:36:02.018Z</time></trkpt><trkpt lat="38.9179233" lon="0.6143813"><ele>0.0</ele><time>2026-04-29T19:36:03.017Z</time></trkpt><trkpt lat="38.9180016" lon="0.6144269"><ele>0.0</ele><time>2026-04-29T19:36:04.018Z</time></trkpt><trkpt lat="38.9180798" lon="0.614475"><ele>0.0</ele><time>2026-04-29T19:36:05.018Z</time></trkpt><trkpt lat="38.9181581" lon="0.6145297"><ele>0.0</ele><time>2026-04-29T19:36:06.017Z</time></trkpt><trkpt lat="38.9182369" lon="0.614586"><ele>0.0</ele><time>2026-04-29T19:36:07.017Z</time></trkpt><trkpt lat="38.9183167" lon="0.6146383"><ele>0.0</ele><time>2026-04-29T19:36:08.017Z</time></trkpt><trkpt lat="38.9183949" lon="0.6146902"><ele>0.0</ele><time>2026-04-29T19:36:09.017Z</time></trkpt><trkpt lat="38.9184748" lon="0.6147449"><ele>0.0</ele><time>2026-04-29T19:36:10.017Z</time></trkpt><trkpt lat="38.9185534" lon="0.6147963"><ele>0.0</ele><time>2026-04-29T19:36:11.018Z</time></trkpt><trkpt lat="38.9187113" lon="0.6149012"><ele>0.0</ele><time>2026-04-29T19:36:13.017Z</time></trkpt><trkpt lat="38.9187899" lon="0.6149546"><ele>0.0</ele><time>2026-04-29T19:36:14.018Z</time></trkpt><trkpt lat="38.918868" lon="0.6150113"><ele>0.0</ele><time>2026-04-29T19:36:15.017Z</time></trkpt><trkpt lat="38.9189465" lon="0.6150634"><ele>0.0</ele><time>2026-04-29T19:36:16.018Z</time></trkpt><trkpt lat="38.9190236" lon="0.6151132"><ele>0.0</ele><time>2026-04-29T19:36:17.018Z</time></trkpt><trkpt lat="38.9191061" lon="0.6151616"><ele>0.0</ele><time>2026-04-29T19:36:18.018Z</time></trkpt><trkpt lat="38.9191864" lon="0.6152161"><ele>0.0</ele><time>2026-04-29T19:36:19.018Z</time></trkpt><trkpt lat="38.9192664" lon="0.6152664"><ele>0.0</ele><time>2026-04-29T19:36:20.017Z</time></trkpt><trkpt lat="38.9193438" lon="0.6153149"><ele>0.0</ele><time>2026-04-29T19:36:21.018Z</time></trkpt><trkpt lat="38.9194188" lon="0.615369"><ele>0.0</ele><time>2026-04-29T19:36:22.017Z</time></trkpt><trkpt lat="38.9194968" lon="0.6154197"><ele>0.0</ele><time>2026-04-29T19:36:23.017Z</time></trkpt><trkpt lat="38.9195734" lon="0.6154683"><ele>0.0</ele><time>2026-04-29T19:36:24.018Z</time></trkpt><trkpt lat="38.9196501" lon="0.6155183"><ele>0.0</ele><time>2026-04-29T19:36:25.018Z</time></trkpt><trkpt lat="38.9197273" lon="0.615568"><ele>0.0</ele><time>2026-04-29T19:36:26.017Z</time></trkpt><trkpt lat="38.9198025" lon="0.6156155"><ele>0.0</ele><time>2026-04-29T19:36:27.017Z</time></trkpt><trkpt lat="38.9198785" lon="0.6156634"><ele>0.0</ele><time>2026-04-29T19:36:28.017Z</time></trkpt><trkpt lat="38.9199551" lon="0.6157117"><ele>0.0</ele><time>2026-04-29T19:36:29.018Z</time></trkpt><trkpt lat="38.9200349" lon="0.6157613"><ele>0.0</ele><time>2026-04-29T19:36:30.018Z</time></trkpt><trkpt lat="38.920115" lon="0.6158054"><ele>0.0</ele><time>2026-04-29T19:36:31.017Z</time></trkpt><trkpt lat="38.9201949" lon="0.6158558"><ele>0.0</ele><time>2026-04-29T19:36:32.018Z</time></trkpt><trkpt lat="38.9203487" lon="0.6159581"><ele>0.0</ele><time>2026-04-29T19:36:34.018Z</time></trkpt><trkpt lat="38.9204283" lon="0.6160054"><ele>0.0</ele><time>2026-04-29T19:36:35.018Z</time></trkpt><trkpt lat="38.9205054" lon="0.616055"><ele>0.0</ele><time>2026-04-29T19:36:36.018Z</time></trkpt><trkpt lat="38.9205832" lon="0.6161065"><ele>0.0</ele><time>2026-04-29T19:36:37.017Z</time></trkpt><trkpt lat="38.920663" lon="0.6161551"><ele>0.0</ele><time>2026-04-29T19:36:38.017Z</time></trkpt><trkpt lat="38.9207432" lon="0.616205"><ele>0.0</ele><time>2026-04-29T19:36:39.017Z</time></trkpt><trkpt lat="38.9208202" lon="0.6162521"><ele>0.0</ele><time>2026-04-29T19:36:40.017Z</time></trkpt><trkpt lat="38.9208983" lon="0.6162942"><ele>0.0</ele><time>2026-04-29T19:36:41.017Z</time></trkpt><trkpt lat="38.920978" lon="0.6163384"><ele>0.0</ele><time>2026-04-29T19:36:42.017Z</time></trkpt><trkpt lat="38.9210571" lon="0.6163832"><ele>0.0</ele><time>2026-04-29T19:36:43.017Z</time></trkpt><trkpt lat="38.9211341" lon="0.6164268"><ele>0.0</ele><time>2026-04-29T19:36:44.017Z</time></trkpt><trkpt lat="38.9212149" lon="0.6164729"><ele>0.0</ele><time>2026-04-29T19:36:45.017Z</time></trkpt><trkpt lat="38.9212978" lon="0.6165209"><ele>0.0</ele><time>2026-04-29T19:36:46.017Z</time></trkpt><trkpt lat="38.9213764" lon="0.6165729"><ele>0.0</ele><time>2026-04-29T19:36:47.017Z</time></trkpt><trkpt lat="38.921458" lon="0.6166212"><ele>0.0</ele><time>2026-04-29T19:36:48.017Z</time></trkpt><trkpt lat="38.9215394" lon="0.6166676"><ele>0.0</ele><time>2026-04-29T19:36:49.017Z</time></trkpt><trkpt lat="38.9216214" lon="0.6167127"><ele>0.0</ele><time>2026-04-29T19:36:50.017Z</time></trkpt><trkpt lat="38.9217016" lon="0.6167594"><ele>0.0</ele><time>2026-04-29T19:36:51.017Z</time></trkpt><trkpt lat="38.9217814" lon="0.6168109"><ele>0.0</ele><time>2026-04-29T19:36:52.017Z</time></trkpt><trkpt lat="38.9218614" lon="0.6168627"><ele>0.0</ele><time>2026-04-29T19:36:53.018Z</time></trkpt><trkpt lat="38.9220188" lon="0.6169681"><ele>0.0</ele><time>2026-04-29T19:36:55.017Z</time></trkpt><trkpt lat="38.922101" lon="0.6170245"><ele>0.0</ele><time>2026-04-29T19:36:56.017Z</time></trkpt><trkpt lat="38.9221845" lon="0.6170778"><ele>0.0</ele><time>2026-04-29T19:36:57.017Z</time></trkpt><trkpt lat="38.9222693" lon="0.6171276"><ele>0.0</ele><time>2026-04-29T19:36:58.017Z</time></trkpt><trkpt lat="38.9223487" lon="0.6171763"><ele>0.0</ele><time>2026-04-29T19:36:59.017Z</time></trkpt><trkpt lat="38.9224268" lon="0.6172293"><ele>0.0</ele><time>2026-04-29T19:37:00.017Z</time></trkpt><trkpt lat="38.9225005" lon="0.6172827"><ele>0.0</ele><time>2026-04-29T19:37:01.017Z</time></trkpt><trkpt lat="38.9225811" lon="0.6173341"><ele>0.0</ele><time>2026-04-29T19:37:02.017Z</time></trkpt><trkpt lat="38.9226602" lon="0.617387"><ele>0.0</ele><time>2026-04-29T19:37:03.017Z</time></trkpt><trkpt lat="38.9227401" lon="0.6174396"><ele>0.0</ele><time>2026-04-29T19:37:04.017Z</time></trkpt><trkpt lat="38.922817" lon="0.6174898"><ele>0.0</ele><time>2026-04-29T19:37:05.017Z</time></trkpt><trkpt lat="38.9228937" lon="0.6175399"><ele>0.0</ele><time>2026-04-29T19:37:06.017Z</time></trkpt><trkpt lat="38.9229688" lon="0.6175915"><ele>0.0</ele><time>2026-04-29T19:37:07.018Z</time></trkpt><trkpt lat="38.9230465" lon="0.6176448"><ele>0.0</ele><time>2026-04-29T19:37:08.018Z</time></trkpt><trkpt lat="38.9231222" lon="0.6177001"><ele>0.0</ele><time>2026-04-29T19:37:09.017Z</time></trkpt><trkpt lat="38.9232002" lon="0.6177528"><ele>0.0</ele><time>2026-04-29T19:37:10.017Z</time></trkpt><trkpt lat="38.9232767" lon="0.6178029"><ele>0.0</ele><time>2026-04-29T19:37:11.018Z</time></trkpt><trkpt lat="38.9233532" lon="0.6178529"><ele>0.0</ele><time>2026-04-29T19:37:12.017Z</time></trkpt><trkpt lat="38.9234342" lon="0.6179061"><ele>0.0</ele><time>2026-04-29T19:37:13.018Z</time></trkpt><trkpt lat="38.9235163" lon="0.617958"><ele>0.0</ele><time>2026-04-29T19:37:14.017Z</time></trkpt><trkpt lat="38.9236735" lon="0.6180615"><ele>0.0</ele><time>2026-04-29T19:37:16.016Z</time></trkpt><trkpt lat="38.9237503" lon="0.6181153"><ele>0.0</ele><time>2026-04-29T19:37:17.016Z</time></trkpt><trkpt lat="38.9238302" lon="0.618161"><ele>0.0</ele><time>2026-04-29T19:37:18.016Z</time></trkpt><trkpt lat="38.9239103" lon="0.6182072"><ele>0.0</ele><time>2026-04-29T19:37:19.016Z</time></trkpt><trkpt lat="38.9239859" lon="0.6182533"><ele>0.0</ele><time>2026-04-29T19:37:20.016Z</time></trkpt><trkpt lat="38.9240622" lon="0.618297"><ele>0.0</ele><time>2026-04-29T19:37:21.016Z</time></trkpt><trkpt lat="38.9241343" lon="0.6183472"><ele>0.0</ele><time>2026-04-29T19:37:22.016Z</time></trkpt><trkpt lat="38.92421" lon="0.6183932"><ele>0.0</ele><time>2026-04-29T19:37:23.017Z</time></trkpt><trkpt lat="38.9242853" lon="0.6184399"><ele>0.0</ele><time>2026-04-29T19:37:24.017Z</time></trkpt><trkpt lat="38.9243589" lon="0.6184919"><ele>0.0</ele><time>2026-04-29T19:37:25.016Z</time></trkpt><trkpt lat="38.9244349" lon="0.6185427"><ele>0.0</ele><time>2026-04-29T19:37:26.016Z</time></trkpt><trkpt lat="38.9245149" lon="0.6185932"><ele>0.0</ele><time>2026-04-29T19:37:27.016Z</time></trkpt><trkpt lat="38.9245932" lon="0.6186449"><ele>0.0</ele><time>2026-04-29T19:37:28.016Z</time></trkpt><trkpt lat="38.9246733" lon="0.6186978"><ele>0.0</ele><time>2026-04-29T19:37:29.017Z</time></trkpt><trkpt lat="38.9247502" lon="0.6187561"><ele>0.0</ele><time>2026-04-29T19:37:30.017Z</time></trkpt><trkpt lat="38.9248283" lon="0.6188145"><ele>0.0</ele><time>2026-04-29T19:37:31.016Z</time></trkpt><trkpt lat="38.9249056" lon="0.6188731"><ele>0.0</ele><time>2026-04-29T19:37:32.016Z</time></trkpt><trkpt lat="38.9249835" lon="0.6189285"><ele>0.0</ele><time>2026-04-29T19:37:33.016Z</time></trkpt><trkpt lat="38.9250647" lon="0.6189829"><ele>0.0</ele><time>2026-04-29T19:37:34.016Z</time></trkpt><trkpt lat="38.9251422" lon="0.6190396"><ele>0.0</ele><time>2026-04-29T19:37:35.016Z</time></trkpt><trkpt lat="38.9252978" lon="0.6191411"><ele>0.0</ele><time>2026-04-29T19:37:37.016Z</time></trkpt><trkpt lat="38.925377" lon="0.6191932"><ele>0.0</ele><time>2026-04-29T19:37:38.016Z</time></trkpt><trkpt lat="38.925455" lon="0.6192442"><ele>0.0</ele><time>2026-04-29T19:37:39.016Z</time></trkpt><trkpt lat="38.9255363" lon="0.6192945"><ele>0.0</ele><time>2026-04-29T19:37:40.016Z</time></trkpt><trkpt lat="38.9256194" lon="0.6193446"><ele>0.0</ele><time>2026-04-29T19:37:41.016Z</time></trkpt><trkpt lat="38.9257027" lon="0.619389"><ele>0.0</ele><time>2026-04-29T19:37:42.017Z</time></trkpt><trkpt lat="38.925788" lon="0.6194349"><ele>0.0</ele><time>2026-04-29T19:37:43.016Z</time></trkpt><trkpt lat="38.9258667" lon="0.6194849"><ele>0.0</ele><time>2026-04-29T19:37:44.017Z</time></trkpt><trkpt lat="38.9259469" lon="0.6195383"><ele>0.0</ele><time>2026-04-29T19:37:45.016Z</time></trkpt><trkpt lat="38.9260269" lon="0.6195902"><ele>0.0</ele><time>2026-04-29T19:37:46.016Z</time></trkpt><trkpt lat="38.9261054" lon="0.6196384"><ele>0.0</ele><time>2026-04-29T19:37:47.016Z</time></trkpt><trkpt lat="38.9261851" lon="0.6196863"><ele>0.0</ele><time>2026-04-29T19:37:48.016Z</time></trkpt><trkpt lat="38.9262649" lon="0.6197338"><ele>0.0</ele><time>2026-04-29T19:37:49.017Z</time></trkpt><trkpt lat="38.9263399" lon="0.6197867"><ele>0.0</ele><time>2026-04-29T19:37:50.016Z</time></trkpt><trkpt lat="38.926421" lon="0.6198315"><ele>0.0</ele><time>2026-04-29T19:37:51.017Z</time></trkpt><trkpt lat="38.9265016" lon="0.6198789"><ele>0.0</ele><time>2026-04-29T19:37:52.017Z</time></trkpt><trkpt lat="38.9265829" lon="0.6199365"><ele>0.0</ele><time>2026-04-29T19:37:53.017Z</time></trkpt><trkpt lat="38.9266621" lon="0.6199939"><ele>0.0</ele><time>2026-04-29T19:37:54.017Z</time></trkpt><trkpt lat="38.9267404" lon="0.6200449"><ele>0.0</ele><time>2026-04-29T19:37:55.016Z</time></trkpt><trkpt lat="38.9268201" lon="0.6200985"><ele>0.0</ele><time>2026-04-29T19:37:56.016Z</time></trkpt><trkpt lat="38.9269781" lon="0.6202057"><ele>0.0</ele><time>2026-04-29T19:37:58.016Z</time></trkpt><trkpt lat="38.9270555" lon="0.6202583"><ele>0.0</ele><time>2026-04-29T19:37:59.016Z</time></trkpt><trkpt lat="38.9271317" lon="0.6203086"><ele>0.0</ele><time>2026-04-29T19:38:00.017Z</time></trkpt><trkpt lat="38.9272099" lon="0.6203571"><ele>0.0</ele><time>2026-04-29T19:38:01.016Z</time></trkpt><trkpt lat="38.9272873" lon="0.6204048"><ele>0.0</ele><time>2026-04-29T19:38:02.016Z</time></trkpt><trkpt lat="38.9273637" lon="0.6204555"><ele>0.0</ele><time>2026-04-29T19:38:03.016Z</time></trkpt><trkpt lat="38.9274387" lon="0.6205055"><ele>0.0</ele><time>2026-04-29T19:38:04.017Z</time></trkpt><trkpt lat="38.9275151" lon="0.6205586"><ele>0.0</ele><time>2026-04-29T19:38:05.017Z</time></trkpt><trkpt lat="38.9275947" lon="0.6206106"><ele>0.0</ele><time>2026-04-29T19:38:06.017Z</time></trkpt><trkpt lat="38.9276723" lon="0.6206591"><ele>0.0</ele><time>2026-04-29T19:38:07.017Z</time></trkpt><trkpt lat="38.9277501" lon="0.6207086"><ele>0.0</ele><time>2026-04-29T19:38:08.016Z</time></trkpt><trkpt lat="38.9278256" lon="0.6207618"><ele>0.0</ele><time>2026-04-29T19:38:09.017Z</time></trkpt><trkpt lat="38.9279004" lon="0.6208135"><ele>0.0</ele><time>2026-04-29T19:38:10.017Z</time></trkpt><trkpt lat="38.9279768" lon="0.6208666"><ele>0.0</ele><time>2026-04-29T19:38:11.016Z</time></trkpt><trkpt lat="38.928055" lon="0.6209169"><ele>0.0</ele><time>2026-04-29T19:38:12.016Z</time></trkpt><trkpt lat="38.9281347" lon="0.6209655"><ele>0.0</ele><time>2026-04-29T19:38:13.016Z</time></trkpt><trkpt lat="38.9282165" lon="0.6210134"><ele>0.0</ele><time>2026-04-29T19:38:14.016Z</time></trkpt><trkpt lat="38.9282983" lon="0.6210572"><ele>0.0</ele><time>2026-04-29T19:38:15.016Z</time></trkpt><trkpt lat="38.9283784" lon="0.6211048"><ele>0.0</ele><time>2026-04-29T19:38:16.017Z</time></trkpt><trkpt lat="38.9284582" lon="0.6211535"><ele>0.0</ele><time>2026-04-29T19:38:17.017Z</time></trkpt><trkpt lat="38.9286109" lon="0.6212622"><ele>0.0</ele><time>2026-04-29T19:38:19.017Z</time></trkpt><trkpt lat="38.9286898" lon="0.6213147"><ele>0.0</ele><time>2026-04-29T19:38:20.016Z</time></trkpt><trkpt lat="38.9287685" lon="0.62136"><ele>0.0</ele><time>2026-04-29T19:38:21.017Z</time></trkpt><trkpt lat="38.9288453" lon="0.6213987"><ele>0.0</ele><time>2026-04-29T19:38:22.017Z</time></trkpt><trkpt lat="38.9289219" lon="0.6214514"><ele>0.0</ele><time>2026-04-29T19:38:23.016Z</time></trkpt><trkpt lat="38.9290003" lon="0.6215009"><ele>0.0</ele><time>2026-04-29T19:38:24.016Z</time></trkpt><trkpt lat="38.9290786" lon="0.6215516"><ele>0.0</ele><time>2026-04-29T19:38:25.016Z</time></trkpt><trkpt lat="38.9291555" lon="0.6216056"><ele>0.0</ele><time>2026-04-29T19:38:26.017Z</time></trkpt><trkpt lat="38.929232" lon="0.6216626"><ele>0.0</ele><time>2026-04-29T19:38:27.016Z</time></trkpt><trkpt lat="38.92931" lon="0.6217191"><ele>0.0</ele><time>2026-04-29T19:38:28.017Z</time></trkpt><trkpt lat="38.9293853" lon="0.6217776"><ele>0.0</ele><time>2026-04-29T19:38:29.016Z</time></trkpt><trkpt lat="38.9294619" lon="0.6218329"><ele>0.0</ele><time>2026-04-29T19:38:30.016Z</time></trkpt><trkpt lat="38.9295398" lon="0.6218865"><ele>0.0</ele><time>2026-04-29T19:38:31.017Z</time></trkpt><trkpt lat="38.9296199" lon="0.6219409"><ele>0.0</ele><time>2026-04-29T19:38:32.017Z</time></trkpt><trkpt lat="38.9297001" lon="0.6219941"><ele>0.0</ele><time>2026-04-29T19:38:33.016Z</time></trkpt><trkpt lat="38.9297757" lon="0.6220508"><ele>0.0</ele><time>2026-04-29T19:38:34.017Z</time></trkpt><trkpt lat="38.9298551" lon="0.6220941"><ele>0.0</ele><time>2026-04-29T19:38:35.017Z</time></trkpt><trkpt lat="38.9299378" lon="0.6221389"><ele>0.0</ele><time>2026-04-29T19:38:36.017Z</time></trkpt><trkpt lat="38.9300168" lon="0.6221895"><ele>0.0</ele><time>2026-04-29T19:38:37.016Z</time></trkpt><trkpt lat="38.9300937" lon="0.6222356"><ele>0.0</ele><time>2026-04-29T19:38:38.016Z</time></trkpt><trkpt lat="38.9302523" lon="0.622326"><ele>0.0</ele><time>2026-04-29T19:38:40.017Z</time></trkpt><trkpt lat="38.9303319" lon="0.6223707"><ele>0.0</ele><time>2026-04-29T19:38:41.016Z</time></trkpt><trkpt lat="38.930412" lon="0.6224165"><ele>0.0</ele><time>2026-04-29T19:38:42.017Z</time></trkpt><trkpt lat="38.9304905" lon="0.6224632"><ele>0.0</ele><time>2026-04-29T19:38:43.016Z</time></trkpt><trkpt lat="38.9305684" lon="0.6225143"><ele>0.0</ele><time>2026-04-29T19:38:44.017Z</time></trkpt><trkpt lat="38.930645" lon="0.6225607"><ele>0.0</ele><time>2026-04-29T19:38:45.016Z</time></trkpt><trkpt lat="38.930725" lon="0.6226087"><ele>0.0</ele><time>2026-04-29T19:38:46.016Z</time></trkpt><trkpt lat="38.9308012" lon="0.6226609"><ele>0.0</ele><time>2026-04-29T19:38:47.016Z</time></trkpt><trkpt lat="38.9308801" lon="0.6227158"><ele>0.0</ele><time>2026-04-29T19:38:48.017Z</time></trkpt><trkpt lat="38.93096" lon="0.6227673"><ele>0.0</ele><time>2026-04-29T19:38:49.017Z</time></trkpt><trkpt lat="38.9310402" lon="0.6228124"><ele>0.0</ele><time>2026-04-29T19:38:50.016Z</time></trkpt><trkpt lat="38.9311203" lon="0.6228595"><ele>0.0</ele><time>2026-04-29T19:38:51.016Z</time></trkpt><trkpt lat="38.9312001" lon="0.6229079"><ele>0.0</ele><time>2026-04-29T19:38:52.016Z</time></trkpt><trkpt lat="38.9312801" lon="0.6229555"><ele>0.0</ele><time>2026-04-29T19:38:53.017Z</time></trkpt><trkpt lat="38.9313588" lon="0.623006"><ele>0.0</ele><time>2026-04-29T19:38:54.017Z</time></trkpt><trkpt lat="38.9314399" lon="0.6230524"><ele>0.0</ele><time>2026-04-29T19:38:55.017Z</time></trkpt><trkpt lat="38.9315201" lon="0.6230952"><ele>0.0</ele><time>2026-04-29T19:38:56.017Z</time></trkpt><trkpt lat="38.9316016" lon="0.6231445"><ele>0.0</ele><time>2026-04-29T19:38:57.016Z</time></trkpt><trkpt lat="38.9316819" lon="0.6231958"><ele>0.0</ele><time>2026-04-29T19:38:58.016Z</time></trkpt><trkpt lat="38.9317606" lon="0.6232446"><ele>0.0</ele><time>2026-04-29T19:38:59.016Z</time></trkpt><trkpt lat="38.93184" lon="0.623296"><ele>0.0</ele><time>2026-04-29T19:39:00.017Z</time></trkpt><trkpt lat="38.9319973" lon="0.6233914"><ele>0.0</ele><time>2026-04-29T19:39:02.016Z</time></trkpt><trkpt lat="38.9320725" lon="0.6234413"><ele>0.0</ele><time>2026-04-29T19:39:03.016Z</time></trkpt><trkpt lat="38.9321506" lon="0.6234897"><ele>0.0</ele><time>2026-04-29T19:39:04.016Z</time></trkpt><trkpt lat="38.9322275" lon="0.6235425"><ele>0.0</ele><time>2026-04-29T19:39:05.016Z</time></trkpt><trkpt lat="38.932304" lon="0.6235932"><ele>0.0</ele><time>2026-04-29T19:39:06.017Z</time></trkpt><trkpt lat="38.9323775" lon="0.6236425"><ele>0.0</ele><time>2026-04-29T19:39:07.016Z</time></trkpt><trkpt lat="38.9324517" lon="0.6236947"><ele>0.0</ele><time>2026-04-29T19:39:08.017Z</time></trkpt><trkpt lat="38.9325301" lon="0.6237417"><ele>0.0</ele><time>2026-04-29T19:39:09.017Z</time></trkpt><trkpt lat="38.9326103" lon="0.6237894"><ele>0.0</ele><time>2026-04-29T19:39:10.016Z</time></trkpt><trkpt lat="38.9326873" lon="0.6238382"><ele>0.0</ele><time>2026-04-29T19:39:11.016Z</time></trkpt><trkpt lat="38.9327635" lon="0.6238863"><ele>0.0</ele><time>2026-04-29T19:39:12.016Z</time></trkpt><trkpt lat="38.9328429" lon="0.6239346"><ele>0.0</ele><time>2026-04-29T19:39:13.016Z</time></trkpt><trkpt lat="38.9329221" lon="0.6239869"><ele>0.0</ele><time>2026-04-29T19:39:14.016Z</time></trkpt><trkpt lat="38.9330003" lon="0.6240381"><ele>0.0</ele><time>2026-04-29T19:39:15.016Z</time></trkpt><trkpt lat="38.9330774" lon="0.6240895"><ele>0.0</ele><time>2026-04-29T19:39:16.017Z</time></trkpt><trkpt lat="38.9331507" lon="0.6241481"><ele>0.0</ele><time>2026-04-29T19:39:17.017Z</time></trkpt><trkpt lat="38.9332238" lon="0.6242024"><ele>0.0</ele><time>2026-04-29T19:39:18.017Z</time></trkpt><trkpt lat="38.9333002" lon="0.6242526"><ele>0.0</ele><time>2026-04-29T19:39:19.016Z</time></trkpt><trkpt lat="38.9333799" lon="0.6243014"><ele>0.0</ele><time>2026-04-29T19:39:20.016Z</time></trkpt><trkpt lat="38.9334601" lon="0.6243511"><ele>0.0</ele><time>2026-04-29T19:39:21.017Z</time></trkpt><trkpt lat="38.9336164" lon="0.6244547"><ele>0.0</ele><time>2026-04-29T19:39:23.017Z</time></trkpt><trkpt lat="38.9336977" lon="0.6245051"><ele>0.0</ele><time>2026-04-29T19:39:24.016Z</time></trkpt><trkpt lat="38.9337782" lon="0.6245589"><ele>0.0</ele><time>2026-04-29T19:39:25.016Z</time></trkpt><trkpt lat="38.9338569" lon="0.6246123"><ele>0.0</ele><time>2026-04-29T19:39:26.016Z</time></trkpt><trkpt lat="38.9339339" lon="0.6246643"><ele>0.0</ele><time>2026-04-29T19:39:27.016Z</time></trkpt><trkpt lat="38.9340132" lon="0.6247151"><ele>0.0</ele><time>2026-04-29T19:39:28.016Z</time></trkpt><trkpt lat="38.9340933" lon="0.624764"><ele>0.0</ele><time>2026-04-29T19:39:29.016Z</time></trkpt><trkpt lat="38.9341733" lon="0.6248128"><ele>0.0</ele><time>2026-04-29T19:39:30.016Z</time></trkpt><trkpt lat="38.9342534" lon="0.6248612"><ele>0.0</ele><time>2026-04-29T19:39:31.017Z</time></trkpt><trkpt lat="38.9343334" lon="0.6249099"><ele>0.0</ele><time>2026-04-29T19:39:32.016Z</time></trkpt><trkpt lat="38.9344105" lon="0.6249593"><ele>0.0</ele><time>2026-04-29T19:39:33.017Z</time></trkpt><trkpt lat="38.9344872" lon="0.6250123"><ele>0.0</ele><time>2026-04-29T19:39:34.016Z</time></trkpt><trkpt lat="38.934562" lon="0.6250688"><ele>0.0</ele><time>2026-04-29T19:39:35.016Z</time></trkpt><trkpt lat="38.9346371" lon="0.6251217"><ele>0.0</ele><time>2026-04-29T19:39:36.017Z</time></trkpt><trkpt lat="38.9347166" lon="0.6251748"><ele>0.0</ele><time>2026-04-29T19:39:37.016Z</time></trkpt><trkpt lat="38.9347951" lon="0.6252284"><ele>0.0</ele><time>2026-04-29T19:39:38.016Z</time></trkpt><trkpt lat="38.9348735" lon="0.6252783"><ele>0.0</ele><time>2026-04-29T19:39:39.016Z</time></trkpt><trkpt lat="38.9349521" lon="0.6253281"><ele>0.0</ele><time>2026-04-29T19:39:40.016Z</time></trkpt><trkpt lat="38.9350331" lon="0.6253751"><ele>0.0</ele><time>2026-04-29T19:39:41.016Z</time></trkpt><trkpt lat="38.9351123" lon="0.6254239"><ele>0.0</ele><time>2026-04-29T19:39:42.016Z</time></trkpt><trkpt lat="38.9352704" lon="0.6255252"><ele>0.0</ele><time>2026-04-29T19:39:44.017Z</time></trkpt><trkpt lat="38.9353442" lon="0.6255777"><ele>0.0</ele><time>2026-04-29T19:39:45.017Z</time></trkpt><trkpt lat="38.9354172" lon="0.6256337"><ele>0.0</ele><time>2026-04-29T19:39:46.017Z</time></trkpt><trkpt lat="38.9354924" lon="0.6256855"><ele>0.0</ele><time>2026-04-29T19:39:47.016Z</time></trkpt><trkpt lat="38.9355654" lon="0.6257388"><ele>0.0</ele><time>2026-04-29T19:39:48.016Z</time></trkpt><trkpt lat="38.9356419" lon="0.6257889"><ele>0.0</ele><time>2026-04-29T19:39:49.016Z</time></trkpt><trkpt lat="38.9357186" lon="0.6258405"><ele>0.0</ele><time>2026-04-29T19:39:50.016Z</time></trkpt><trkpt lat="38.9357969" lon="0.6258905"><ele>0.0</ele><time>2026-04-29T19:39:51.017Z</time></trkpt><trkpt lat="38.9358722" lon="0.6259452"><ele>0.0</ele><time>2026-04-29T19:39:52.016Z</time></trkpt><trkpt lat="38.9359498" lon="0.6259965"><ele>0.0</ele><time>2026-04-29T19:39:53.016Z</time></trkpt><trkpt lat="38.9360265" lon="0.626046"><ele>0.0</ele><time>2026-04-29T19:39:54.016Z</time></trkpt><trkpt lat="38.9361075" lon="0.6260956"><ele>0.0</ele><time>2026-04-29T19:39:55.016Z</time></trkpt><trkpt lat="38.9361895" lon="0.6261441"><ele>0.0</ele><time>2026-04-29T19:39:56.016Z</time></trkpt><trkpt lat="38.9362698" lon="0.6261927"><ele>0.0</ele><time>2026-04-29T19:39:57.017Z</time></trkpt><trkpt lat="38.9363458" lon="0.6262606"><ele>0.0</ele><time>2026-04-29T19:39:58.016Z</time></trkpt><trkpt lat="38.9364217" lon="0.6263173"><ele>0.0</ele><time>2026-04-29T19:39:59.017Z</time></trkpt><trkpt lat="38.9364999" lon="0.6263736"><ele>0.0</ele><time>2026-04-29T19:40:00.017Z</time></trkpt><trkpt lat="38.9365783" lon="0.6264296"><ele>0.0</ele><time>2026-04-29T19:40:01.016Z</time></trkpt><trkpt lat="38.9366539" lon="0.6264844"><ele>0.0</ele><time>2026-04-29T19:40:02.016Z</time></trkpt><trkpt lat="38.93673" lon="0.6265377"><ele>0.0</ele><time>2026-04-29T19:40:03.016Z</time></trkpt><trkpt lat="38.9368819" lon="0.6266554"><ele>0.0</ele><time>2026-04-29T19:40:05.016Z</time></trkpt><trkpt lat="38.9369569" lon="0.6267152"><ele>0.0</ele><time>2026-04-29T19:40:06.016Z</time></trkpt><trkpt lat="38.9370335" lon="0.6267691"><ele>0.0</ele><time>2026-04-29T19:40:07.016Z</time></trkpt><trkpt lat="38.9371114" lon="0.6268244"><ele>0.0</ele><time>2026-04-29T19:40:08.016Z</time></trkpt><trkpt lat="38.9371899" lon="0.6268785"><ele>0.0</ele><time>2026-04-29T19:40:09.017Z</time></trkpt><trkpt lat="38.9372657" lon="0.6269329"><ele>0.0</ele><time>2026-04-29T19:40:10.016Z</time></trkpt><trkpt lat="38.9373414" lon="0.6269868"><ele>0.0</ele><time>2026-04-29T19:40:11.016Z</time></trkpt><trkpt lat="38.9374226" lon="0.6270354"><ele>0.0</ele><time>2026-04-29T19:40:12.017Z</time></trkpt><trkpt lat="38.9375045" lon="0.6270864"><ele>0.0</ele><time>2026-04-29T19:40:13.016Z</time></trkpt><trkpt lat="38.9375865" lon="0.6271392"><ele>0.0</ele><time>2026-04-29T19:40:14.016Z</time></trkpt><trkpt lat="38.9376667" lon="0.6271878"><ele>0.0</ele><time>2026-04-29T19:40:15.016Z</time></trkpt><trkpt lat="38.9377451" lon="0.627235"><ele>0.0</ele><time>2026-04-29T19:40:16.017Z</time></trkpt><trkpt lat="38.9378218" lon="0.6272827"><ele>0.0</ele><time>2026-04-29T19:40:17.017Z</time></trkpt><trkpt lat="38.9379028" lon="0.6273248"><ele>0.0</ele><time>2026-04-29T19:40:18.016Z</time></trkpt><trkpt lat="38.9379831" lon="0.6273697"><ele>0.0</ele><time>2026-04-29T19:40:19.017Z</time></trkpt><trkpt lat="38.9380632" lon="0.6274154"><ele>0.0</ele><time>2026-04-29T19:40:20.016Z</time></trkpt><trkpt lat="38.9381414" lon="0.627465"><ele>0.0</ele><time>2026-04-29T19:40:21.016Z</time></trkpt><trkpt lat="38.9382218" lon="0.6275191"><ele>0.0</ele><time>2026-04-29T19:40:22.016Z</time></trkpt><trkpt lat="38.9382988" lon="0.6275744"><ele>0.0</ele><time>2026-04-29T19:40:23.016Z</time></trkpt><trkpt lat="38.9383735" lon="0.627628"><ele>0.0</ele><time>2026-04-29T19:40:24.017Z</time></trkpt><trkpt lat="38.9385285" lon="0.6277383"><ele>0.0</ele><time>2026-04-29T19:40:26.016Z</time></trkpt><trkpt lat="38.9386038" lon="0.6277878"><ele>0.0</ele><time>2026-04-29T19:40:27.017Z</time></trkpt><trkpt lat="38.9386791" lon="0.627833"><ele>0.0</ele><time>2026-04-29T19:40:28.017Z</time></trkpt><trkpt lat="38.9387537" lon="0.6278874"><ele>0.0</ele><time>2026-04-29T19:40:29.017Z</time></trkpt><trkpt lat="38.938833" lon="0.6279359"><ele>0.0</ele><time>2026-04-29T19:40:30.016Z</time></trkpt><trkpt lat="38.9389119" lon="0.6279887"><ele>0.0</ele><time>2026-04-29T19:40:31.017Z</time></trkpt><trkpt lat="38.9389889" lon="0.6280553"><ele>0.0</ele><time>2026-04-29T19:40:32.016Z</time></trkpt><trkpt lat="38.9390681" lon="0.6281115"><ele>0.0</ele><time>2026-04-29T19:40:33.016Z</time></trkpt><trkpt lat="38.9391453" lon="0.6281665"><ele>0.0</ele><time>2026-04-29T19:40:34.016Z</time></trkpt><trkpt lat="38.9392249" lon="0.62822"><ele>0.0</ele><time>2026-04-29T19:40:35.016Z</time></trkpt><trkpt lat="38.9393094" lon="0.6282705"><ele>0.0</ele><time>2026-04-29T19:40:36.016Z</time></trkpt><trkpt lat="38.9393935" lon="0.6283189"><ele>0.0</ele><time>2026-04-29T19:40:37.017Z</time></trkpt><trkpt lat="38.9394766" lon="0.6283676"><ele>0.0</ele><time>2026-04-29T19:40:38.016Z</time></trkpt><trkpt lat="38.9395572" lon="0.6284105"><ele>0.0</ele><time>2026-04-29T19:40:39.017Z</time></trkpt><trkpt lat="38.9396355" lon="0.6284564"><ele>0.0</ele><time>2026-04-29T19:40:40.016Z</time></trkpt><trkpt lat="38.9397123" lon="0.6285088"><ele>0.0</ele><time>2026-04-29T19:40:41.016Z</time></trkpt><trkpt lat="38.9397903" lon="0.6285591"><ele>0.0</ele><time>2026-04-29T19:40:42.017Z</time></trkpt><trkpt lat="38.939867" lon="0.6286079"><ele>0.0</ele><time>2026-04-29T19:40:43.017Z</time></trkpt><trkpt lat="38.9399452" lon="0.6286576"><ele>0.0</ele><time>2026-04-29T19:40:44.016Z</time></trkpt><trkpt lat="38.9400221" lon="0.6287078"><ele>0.0</ele><time>2026-04-29T19:40:45.017Z</time></trkpt><trkpt lat="38.9400986" lon="0.6287609"><ele>0.0</ele><time>2026-04-29T19:40:46.017Z</time></trkpt><trkpt lat="38.940255" lon="0.628863"><ele>0.0</ele><time>2026-04-29T19:40:48.016Z</time></trkpt><trkpt lat="38.9403304" lon="0.6289127"><ele>0.0</ele><time>2026-04-29T19:40:49.016Z</time></trkpt><trkpt lat="38.9404095" lon="0.6289555"><ele>0.0</ele><time>2026-04-29T19:40:50.016Z</time></trkpt><trkpt lat="38.9404898" lon="0.6289998"><ele>0.0</ele><time>2026-04-29T19:40:51.016Z</time></trkpt><trkpt lat="38.9405712" lon="0.6290436"><ele>0.0</ele><time>2026-04-29T19:40:52.016Z</time></trkpt><trkpt lat="38.9406514" lon="0.6290898"><ele>0.0</ele><time>2026-04-29T19:40:53.016Z</time></trkpt><trkpt lat="38.9407315" lon="0.629135"><ele>0.0</ele><time>2026-04-29T19:40:54.017Z</time></trkpt><trkpt lat="38.9408129" lon="0.6291786"><ele>0.0</ele><time>2026-04-29T19:40:55.016Z</time></trkpt><trkpt lat="38.9408951" lon="0.6292214"><ele>0.0</ele><time>2026-04-29T19:40:56.016Z</time></trkpt><trkpt lat="38.9409763" lon="0.6292649"><ele>0.0</ele><time>2026-04-29T19:40:57.017Z</time></trkpt><trkpt lat="38.9410568" lon="0.6293155"><ele>0.0</ele><time>2026-04-29T19:40:58.016Z</time></trkpt><trkpt lat="38.9411353" lon="0.6293675"><ele>0.0</ele><time>2026-04-29T19:40:59.016Z</time></trkpt><trkpt lat="38.9412151" lon="0.6294169"><ele>0.0</ele><time>2026-04-29T19:41:00.016Z</time></trkpt><trkpt lat="38.9412921" lon="0.6294664"><ele>0.0</ele><time>2026-04-29T19:41:01.017Z</time></trkpt><trkpt lat="38.9413671" lon="0.6295135"><ele>0.0</ele><time>2026-04-29T19:41:02.017Z</time></trkpt><trkpt lat="38.9414451" lon="0.6295612"><ele>0.0</ele><time>2026-04-29T19:41:03.017Z</time></trkpt><trkpt lat="38.9415221" lon="0.6296109"><ele>0.0</ele><time>2026-04-29T19:41:04.016Z</time></trkpt><trkpt lat="38.9415914" lon="0.6296765"><ele>0.0</ele><time>2026-04-29T19:41:05.016Z</time></trkpt><trkpt lat="38.941664" lon="0.6297361"><ele>0.0</ele><time>2026-04-29T19:41:06.017Z</time></trkpt><trkpt lat="38.9417383" lon="0.6297937"><ele>0.0</ele><time>2026-04-29T19:41:07.016Z</time></trkpt><trkpt lat="38.9418899" lon="0.6298963"><ele>0.0</ele><time>2026-04-29T19:41:09.017Z</time></trkpt><trkpt lat="38.9419685" lon="0.6299452"><ele>0.0</ele><time>2026-04-29T19:41:10.017Z</time></trkpt><trkpt lat="38.9420451" lon="0.6299917"><ele>0.0</ele><time>2026-04-29T19:41:11.016Z</time></trkpt><trkpt lat="38.9421234" lon="0.6300403"><ele>0.0</ele><time>2026-04-29T19:41:12.016Z</time></trkpt><trkpt lat="38.9422003" lon="0.6300886"><ele>0.0</ele><time>2026-04-29T19:41:13.016Z</time></trkpt><trkpt lat="38.9422782" lon="0.630134"><ele>0.0</ele><time>2026-04-29T19:41:14.017Z</time></trkpt><trkpt lat="38.9423607" lon="0.6301811"><ele>0.0</ele><time>2026-04-29T19:41:15.016Z</time></trkpt><trkpt lat="38.9424428" lon="0.6302278"><ele>0.0</ele><time>2026-04-29T19:41:16.016Z</time></trkpt><trkpt lat="38.9425185" lon="0.6302782"><ele>0.0</ele><time>2026-04-29T19:41:17.017Z</time></trkpt><trkpt lat="38.9425976" lon="0.6303285"><ele>0.0</ele><time>2026-04-29T19:41:18.016Z</time></trkpt><trkpt lat="38.9426767" lon="0.6303867"><ele>0.0</ele><time>2026-04-29T19:41:19.017Z</time></trkpt><trkpt lat="38.9427567" lon="0.6304346"><ele>0.0</ele><time>2026-04-29T19:41:20.017Z</time></trkpt><trkpt lat="38.9428351" lon="0.6304856"><ele>0.0</ele><time>2026-04-29T19:41:21.017Z</time></trkpt><trkpt lat="38.942913" lon="0.6305359"><ele>0.0</ele><time>2026-04-29T19:41:22.017Z</time></trkpt><trkpt lat="38.9429903" lon="0.6305855"><ele>0.0</ele><time>2026-04-29T19:41:23.017Z</time></trkpt><trkpt lat="38.9430684" lon="0.6306357"><ele>0.0</ele><time>2026-04-29T19:41:24.016Z</time></trkpt><trkpt lat="38.9431456" lon="0.6306915"><ele>0.0</ele><time>2026-04-29T19:41:25.017Z</time></trkpt><trkpt lat="38.9432263" lon="0.6307383"><ele>0.0</ele><time>2026-04-29T19:41:26.016Z</time></trkpt><trkpt lat="38.9433051" lon="0.6307852"><ele>0.0</ele><time>2026-04-29T19:41:27.017Z</time></trkpt><trkpt lat="38.9433893" lon="0.6308362"><ele>0.0</ele><time>2026-04-29T19:41:28.017Z</time></trkpt><trkpt lat="38.9435504" lon="0.6309437"><ele>0.0</ele><time>2026-04-29T19:41:30.016Z</time></trkpt><trkpt lat="38.943627" lon="0.6309943"><ele>0.0</ele><time>2026-04-29T19:41:31.016Z</time></trkpt><trkpt lat="38.9437049" lon="0.6310387"><ele>0.0</ele><time>2026-04-29T19:41:32.017Z</time></trkpt><trkpt lat="38.9437816" lon="0.6310846"><ele>0.0</ele><time>2026-04-29T19:41:33.017Z</time></trkpt><trkpt lat="38.9438583" lon="0.6311346"><ele>0.0</ele><time>2026-04-29T19:41:34.016Z</time></trkpt><trkpt lat="38.9439353" lon="0.6311905"><ele>0.0</ele><time>2026-04-29T19:41:35.016Z</time></trkpt><trkpt lat="38.9440091" lon="0.6312488"><ele>0.0</ele><time>2026-04-29T19:41:36.017Z</time></trkpt><trkpt lat="38.9440835" lon="0.6313039"><ele>0.0</ele><time>2026-04-29T19:41:37.017Z</time></trkpt><trkpt lat="38.9441601" lon="0.6313559"><ele>0.0</ele><time>2026-04-29T19:41:38.017Z</time></trkpt><trkpt lat="38.9442371" lon="0.6314086"><ele>0.0</ele><time>2026-04-29T19:41:39.017Z</time></trkpt><trkpt lat="38.9443165" lon="0.6314621"><ele>0.0</ele><time>2026-04-29T19:41:40.017Z</time></trkpt><trkpt lat="38.944395" lon="0.6315155"><ele>0.0</ele><time>2026-04-29T19:41:41.016Z</time></trkpt><trkpt lat="38.9444733" lon="0.6315638"><ele>0.0</ele><time>2026-04-29T19:41:42.016Z</time></trkpt><trkpt lat="38.944553" lon="0.6316101"><ele>0.0</ele><time>2026-04-29T19:41:43.016Z</time></trkpt><trkpt lat="38.9446333" lon="0.6316563"><ele>0.0</ele><time>2026-04-29T19:41:44.017Z</time></trkpt><trkpt lat="38.9447131" lon="0.6317016"><ele>0.0</ele><time>2026-04-29T19:41:45.017Z</time></trkpt><trkpt lat="38.9447901" lon="0.6317477"><ele>0.0</ele><time>2026-04-29T19:41:46.017Z</time></trkpt><trkpt lat="38.9448679" lon="0.6318059"><ele>0.0</ele><time>2026-04-29T19:41:47.017Z</time></trkpt><trkpt lat="38.9449493" lon="0.6318504"><ele>0.0</ele><time>2026-04-29T19:41:48.016Z</time></trkpt><trkpt lat="38.9450313" lon="0.6318945"><ele>0.0</ele><time>2026-04-29T19:41:49.016Z</time></trkpt><trkpt lat="38.9451115" lon="0.6319442"><ele>0.0</ele><time>2026-04-29T19:41:50.015Z</time></trkpt><trkpt lat="38.9452733" lon="0.6320423"><ele>0.0</ele><time>2026-04-29T19:41:52.016Z</time></trkpt><trkpt lat="38.9453516" lon="0.6320955"><ele>0.0</ele><time>2026-04-29T19:41:53.016Z</time></trkpt><trkpt lat="38.9454299" lon="0.6321445"><ele>0.0</ele><time>2026-04-29T19:41:54.016Z</time></trkpt><trkpt lat="38.9455071" lon="0.632196"><ele>0.0</ele><time>2026-04-29T19:41:55.016Z</time></trkpt><trkpt lat="38.9455848" lon="0.632248"><ele>0.0</ele><time>2026-04-29T19:41:56.015Z</time></trkpt><trkpt lat="38.9456632" lon="0.6322939"><ele>0.0</ele><time>2026-04-29T19:41:57.016Z</time></trkpt><trkpt lat="38.9457416" lon="0.6323376"><ele>0.0</ele><time>2026-04-29T19:41:58.016Z</time></trkpt><trkpt lat="38.9458211" lon="0.6323823"><ele>0.0</ele><time>2026-04-29T19:41:59.016Z</time></trkpt><trkpt lat="38.9459016" lon="0.6324286"><ele>0.0</ele><time>2026-04-29T19:42:00.016Z</time></trkpt><trkpt lat="38.9459817" lon="0.6324735"><ele>0.0</ele><time>2026-04-29T19:42:01.015Z</time></trkpt><trkpt lat="38.9460603" lon="0.6325248"><ele>0.0</ele><time>2026-04-29T19:42:02.016Z</time></trkpt><trkpt lat="38.9461399" lon="0.6325749"><ele>0.0</ele><time>2026-04-29T19:42:03.016Z</time></trkpt><trkpt lat="38.9462204" lon="0.6326249"><ele>0.0</ele><time>2026-04-29T19:42:04.016Z</time></trkpt><trkpt lat="38.9462971" lon="0.6326777"><ele>0.0</ele><time>2026-04-29T19:42:05.016Z</time></trkpt><trkpt lat="38.9463722" lon="0.6327368"><ele>0.0</ele><time>2026-04-29T19:42:06.015Z</time></trkpt><trkpt lat="38.9464512" lon="0.6327929"><ele>0.0</ele><time>2026-04-29T19:42:07.015Z</time></trkpt><trkpt lat="38.9465319" lon="0.6328499"><ele>0.0</ele><time>2026-04-29T19:42:08.016Z</time></trkpt><trkpt lat="38.9466102" lon="0.6329041"><ele>0.0</ele><time>2026-04-29T19:42:09.016Z</time></trkpt><trkpt lat="38.9466902" lon="0.6329526"><ele>0.0</ele><time>2026-04-29T19:42:10.015Z</time></trkpt><trkpt lat="38.94677" lon="0.6329994"><ele>0.0</ele><time>2026-04-29T19:42:11.015Z</time></trkpt><trkpt lat="38.9469283" lon="0.6331053"><ele>0.0</ele><time>2026-04-29T19:42:13.016Z</time></trkpt><trkpt lat="38.9470067" lon="0.6331626"><ele>0.0</ele><time>2026-04-29T19:42:14.015Z</time></trkpt><trkpt lat="38.9470851" lon="0.6332092"><ele>0.0</ele><time>2026-04-29T19:42:15.015Z</time></trkpt><trkpt lat="38.9471632" lon="0.6332557"><ele>0.0</ele><time>2026-04-29T19:42:16.015Z</time></trkpt><trkpt lat="38.9472447" lon="0.633303"><ele>0.0</ele><time>2026-04-29T19:42:17.015Z</time></trkpt><trkpt lat="38.9473235" lon="0.6333597"><ele>0.0</ele><time>2026-04-29T19:42:18.015Z</time></trkpt><trkpt lat="38.9474016" lon="0.6334143"><ele>0.0</ele><time>2026-04-29T19:42:19.015Z</time></trkpt><trkpt lat="38.9474813" lon="0.633465"><ele>0.0</ele><time>2026-04-29T19:42:20.015Z</time></trkpt><trkpt lat="38.9475614" lon="0.63351"><ele>0.0</ele><time>2026-04-29T19:42:21.015Z</time></trkpt><trkpt lat="38.9476428" lon="0.6335568"><ele>0.0</ele><time>2026-04-29T19:42:22.016Z</time></trkpt><trkpt lat="38.9477248" lon="0.6336054"><ele>0.0</ele><time>2026-04-29T19:42:23.015Z</time></trkpt><trkpt lat="38.9478048" lon="0.6336574"><ele>0.0</ele><time>2026-04-29T19:42:24.016Z</time></trkpt><trkpt lat="38.9478876" lon="0.6337074"><ele>0.0</ele><time>2026-04-29T19:42:25.015Z</time></trkpt><trkpt lat="38.9479697" lon="0.6337597"><ele>0.0</ele><time>2026-04-29T19:42:26.015Z</time></trkpt><trkpt lat="38.9480499" lon="0.6338145"><ele>0.0</ele><time>2026-04-29T19:42:27.015Z</time></trkpt><trkpt lat="38.9481281" lon="0.6338713"><ele>0.0</ele><time>2026-04-29T19:42:28.015Z</time></trkpt><trkpt lat="38.9482063" lon="0.6339297"><ele>0.0</ele><time>2026-04-29T19:42:29.015Z</time></trkpt><trkpt lat="38.948285" lon="0.6339805"><ele>0.0</ele><time>2026-04-29T19:42:30.016Z</time></trkpt><trkpt lat="38.9483607" lon="0.6340323"><ele>0.0</ele><time>2026-04-29T19:42:31.016Z</time></trkpt><trkpt lat="38.9484338" lon="0.6340886"><ele>0.0</ele><time>2026-04-29T19:42:32.015Z</time></trkpt><trkpt lat="38.9485838" lon="0.6341951"><ele>0.0</ele><time>2026-04-29T19:42:34.015Z</time></trkpt><trkpt lat="38.948662" lon="0.6342433"><ele>0.0</ele><time>2026-04-29T19:42:35.015Z</time></trkpt><trkpt lat="38.9487374" lon="0.6342898"><ele>0.0</ele><time>2026-04-29T19:42:36.016Z</time></trkpt><trkpt lat="38.9488123" lon="0.6343377"><ele>0.0</ele><time>2026-04-29T19:42:37.015Z</time></trkpt><trkpt lat="38.9488873" lon="0.6343874"><ele>0.0</ele><time>2026-04-29T19:42:38.015Z</time></trkpt><trkpt lat="38.948962" lon="0.6344362"><ele>0.0</ele><time>2026-04-29T19:42:39.016Z</time></trkpt><trkpt lat="38.9490369" lon="0.6344856"><ele>0.0</ele><time>2026-04-29T19:42:40.015Z</time></trkpt><trkpt lat="38.9491091" lon="0.6345342"><ele>0.0</ele><time>2026-04-29T19:42:41.015Z</time></trkpt><trkpt lat="38.9491834" lon="0.6345858"><ele>0.0</ele><time>2026-04-29T19:42:42.016Z</time></trkpt><trkpt lat="38.9492585" lon="0.6346402"><ele>0.0</ele><time>2026-04-29T19:42:43.016Z</time></trkpt><trkpt lat="38.9493366" lon="0.6346867"><ele>0.0</ele><time>2026-04-29T19:42:44.015Z</time></trkpt><trkpt lat="38.9494151" lon="0.6347325"><ele>0.0</ele><time>2026-04-29T19:42:45.015Z</time></trkpt><trkpt lat="38.9494935" lon="0.634785"><ele>0.0</ele><time>2026-04-29T19:42:46.015Z</time></trkpt><trkpt lat="38.9495717" lon="0.6348412"><ele>0.0</ele><time>2026-04-29T19:42:47.015Z</time></trkpt><trkpt lat="38.9496529" lon="0.6348943"><ele>0.0</ele><time>2026-04-29T19:42:48.015Z</time></trkpt><trkpt lat="38.9497331" lon="0.6349518"><ele>0.0</ele><time>2026-04-29T19:42:49.016Z</time></trkpt><trkpt lat="38.9498159" lon="0.6350117"><ele>0.0</ele><time>2026-04-29T19:42:50.015Z</time></trkpt><trkpt lat="38.9498951" lon="0.6350691"><ele>0.0</ele><time>2026-04-29T19:42:51.016Z</time></trkpt><trkpt lat="38.949976" lon="0.6351181"><ele>0.0</ele><time>2026-04-29T19:42:52.016Z</time></trkpt><trkpt lat="38.9500565" lon="0.6351718"><ele>0.0</ele><time>2026-04-29T19:42:53.015Z</time></trkpt><trkpt lat="38.9501378" lon="0.6352226"><ele>0.0</ele><time>2026-04-29T19:42:54.016Z</time></trkpt><trkpt lat="38.9502962" lon="0.6353112"><ele>0.0</ele><time>2026-04-29T19:42:56.015Z</time></trkpt><trkpt lat="38.9503765" lon="0.6353527"><ele>0.0</ele><time>2026-04-29T19:42:57.016Z</time></trkpt><trkpt lat="38.9504567" lon="0.6353967"><ele>0.0</ele><time>2026-04-29T19:42:58.016Z</time></trkpt><trkpt lat="38.9505376" lon="0.635453"><ele>0.0</ele><time>2026-04-29T19:42:59.015Z</time></trkpt><trkpt lat="38.9506178" lon="0.6354984"><ele>0.0</ele><time>2026-04-29T19:43:00.016Z</time></trkpt><trkpt lat="38.9506968" lon="0.6355449"><ele>0.0</ele><time>2026-04-29T19:43:01.015Z</time></trkpt><trkpt lat="38.9507777" lon="0.6355968"><ele>0.0</ele><time>2026-04-29T19:43:02.015Z</time></trkpt><trkpt lat="38.9508541" lon="0.6356482"><ele>0.0</ele><time>2026-04-29T19:43:03.015Z</time></trkpt><trkpt lat="38.9509303" lon="0.6357006"><ele>0.0</ele><time>2026-04-29T19:43:04.015Z</time></trkpt><trkpt lat="38.9510043" lon="0.6357451"><ele>0.0</ele><time>2026-04-29T19:43:05.015Z</time></trkpt><trkpt lat="38.9510816" lon="0.6357965"><ele>0.0</ele><time>2026-04-29T19:43:06.016Z</time></trkpt><trkpt lat="38.9511575" lon="0.6358425"><ele>0.0</ele><time>2026-04-29T19:43:07.015Z</time></trkpt><trkpt lat="38.9512351" lon="0.6358888"><ele>0.0</ele><time>2026-04-29T19:43:08.016Z</time></trkpt><trkpt lat="38.9513121" lon="0.6359416"><ele>0.0</ele><time>2026-04-29T19:43:09.015Z</time></trkpt><trkpt lat="38.9513885" lon="0.6359844"><ele>0.0</ele><time>2026-04-29T19:43:10.015Z</time></trkpt><trkpt lat="38.9514653" lon="0.6360271"><ele>0.0</ele><time>2026-04-29T19:43:11.015Z</time></trkpt><trkpt lat="38.9515433" lon="0.6360766"><ele>0.0</ele><time>2026-04-29T19:43:12.016Z</time></trkpt><trkpt lat="38.9516231" lon="0.6361256"><ele>0.0</ele><time>2026-04-29T19:43:13.015Z</time></trkpt><trkpt lat="38.9517029" lon="0.6361753"><ele>0.0</ele><time>2026-04-29T19:43:14.015Z</time></trkpt><trkpt lat="38.9517828" lon="0.6362246"><ele>0.0</ele><time>2026-04-29T19:43:15.015Z</time></trkpt><trkpt lat="38.95194" lon="0.6363245"><ele>0.0</ele><time>2026-04-29T19:43:17.015Z</time></trkpt><trkpt lat="38.9520155" lon="0.6363811"><ele>0.0</ele><time>2026-04-29T19:43:18.015Z</time></trkpt><trkpt lat="38.9520946" lon="0.636444"><ele>0.0</ele><time>2026-04-29T19:43:19.015Z</time></trkpt><trkpt lat="38.9521733" lon="0.6365067"><ele>0.0</ele><time>2026-04-29T19:43:20.015Z</time></trkpt><trkpt lat="38.9522515" lon="0.6365623"><ele>0.0</ele><time>2026-04-29T19:43:21.016Z</time></trkpt><trkpt lat="38.9523299" lon="0.6366201"><ele>0.0</ele><time>2026-04-29T19:43:22.016Z</time></trkpt><trkpt lat="38.9524083" lon="0.6366769"><ele>0.0</ele><time>2026-04-29T19:43:23.015Z</time></trkpt><trkpt lat="38.9524852" lon="0.6367322"><ele>0.0</ele><time>2026-04-29T19:43:24.015Z</time></trkpt><trkpt lat="38.9525646" lon="0.636792"><ele>0.0</ele><time>2026-04-29T19:43:25.015Z</time></trkpt><trkpt lat="38.9526475" lon="0.6368454"><ele>0.0</ele><time>2026-04-29T19:43:26.015Z</time></trkpt><trkpt lat="38.9527297" lon="0.6368931"><ele>0.0</ele><time>2026-04-29T19:43:27.015Z</time></trkpt><trkpt lat="38.9528071" lon="0.6369345"><ele>0.0</ele><time>2026-04-29T19:43:28.016Z</time></trkpt><trkpt lat="38.9528847" lon="0.6369771"><ele>0.0</ele><time>2026-04-29T19:43:29.015Z</time></trkpt><trkpt lat="38.952963" lon="0.6370193"><ele>0.0</ele><time>2026-04-29T19:43:30.015Z</time></trkpt><trkpt lat="38.9530401" lon="0.6370648"><ele>0.0</ele><time>2026-04-29T19:43:31.015Z</time></trkpt><trkpt lat="38.9531213" lon="0.6371032"><ele>0.0</ele><time>2026-04-29T19:43:32.015Z</time></trkpt><trkpt lat="38.9532016" lon="0.6371453"><ele>0.0</ele><time>2026-04-29T19:43:33.015Z</time></trkpt><trkpt lat="38.9532787" lon="0.6371932"><ele>0.0</ele><time>2026-04-29T19:43:34.016Z</time></trkpt><trkpt lat="38.9533551" lon="0.637241"><ele>0.0</ele><time>2026-04-29T19:43:35.016Z</time></trkpt><trkpt lat="38.9534304" lon="0.637289"><ele>0.0</ele><time>2026-04-29T19:43:36.016Z</time></trkpt><trkpt lat="38.9535803" lon="0.6374014"><ele>0.0</ele><time>2026-04-29T19:43:38.015Z</time></trkpt><trkpt lat="38.953658" lon="0.6374607"><ele>0.0</ele><time>2026-04-29T19:43:39.015Z</time></trkpt><trkpt lat="38.9537394" lon="0.6375121"><ele>0.0</ele><time>2026-04-29T19:43:40.016Z</time></trkpt><trkpt lat="38.9538184" lon="0.6375519"><ele>0.0</ele><time>2026-04-29T19:43:41.015Z</time></trkpt><trkpt lat="38.9538967" lon="0.637603"><ele>0.0</ele><time>2026-04-29T19:43:42.016Z</time></trkpt><trkpt lat="38.9539734" lon="0.6376551"><ele>0.0</ele><time>2026-04-29T19:43:43.015Z</time></trkpt><trkpt lat="38.9540529" lon="0.637702"><ele>0.0</ele><time>2026-04-29T19:43:44.016Z</time></trkpt><trkpt lat="38.9541299" lon="0.6377531"><ele>0.0</ele><time>2026-04-29T19:43:45.015Z</time></trkpt><trkpt lat="38.9542112" lon="0.6378019"><ele>0.0</ele><time>2026-04-29T19:43:46.015Z</time></trkpt><trkpt lat="38.9542872" lon="0.6378548"><ele>0.0</ele><time>2026-04-29T19:43:47.016Z</time></trkpt><trkpt lat="38.9543631" lon="0.6379054"><ele>0.0</ele><time>2026-04-29T19:43:48.015Z</time></trkpt><trkpt lat="38.9544397" lon="0.6379567"><ele>0.0</ele><time>2026-04-29T19:43:49.015Z</time></trkpt><trkpt lat="38.9545192" lon="0.6380051"><ele>0.0</ele><time>2026-04-29T19:43:50.015Z</time></trkpt><trkpt lat="38.954597" lon="0.638055"><ele>0.0</ele><time>2026-04-29T19:43:51.015Z</time></trkpt><trkpt lat="38.9546735" lon="0.6381062"><ele>0.0</ele><time>2026-04-29T19:43:52.016Z</time></trkpt><trkpt lat="38.9547534" lon="0.6381561"><ele>0.0</ele><time>2026-04-29T19:43:53.015Z</time></trkpt><trkpt lat="38.9548301" lon="0.6382052"><ele>0.0</ele><time>2026-04-29T19:43:54.015Z</time></trkpt><trkpt lat="38.9549093" lon="0.6382534"><ele>0.0</ele><time>2026-04-29T19:43:55.015Z</time></trkpt><trkpt lat="38.9549898" lon="0.6383014"><ele>0.0</ele><time>2026-04-29T19:43:56.016Z</time></trkpt><trkpt lat="38.9550683" lon="0.6383532"><ele>0.0</ele><time>2026-04-29T19:43:57.016Z</time></trkpt><trkpt lat="38.9552247" lon="0.6384548"><ele>0.0</ele><time>2026-04-29T19:43:59.016Z</time></trkpt><trkpt lat="38.9553043" lon="0.6385042"><ele>0.0</ele><time>2026-04-29T19:44:00.015Z</time></trkpt><trkpt lat="38.955383" lon="0.6385512"><ele>0.0</ele><time>2026-04-29T19:44:01.015Z</time></trkpt><trkpt lat="38.9554658" lon="0.6385979"><ele>0.0</ele><time>2026-04-29T19:44:02.015Z</time></trkpt><trkpt lat="38.9555476" lon="0.6386446"><ele>0.0</ele><time>2026-04-29T19:44:03.015Z</time></trkpt><trkpt lat="38.9556281" lon="0.6386971"><ele>0.0</ele><time>2026-04-29T19:44:04.015Z</time></trkpt><trkpt lat="38.9557037" lon="0.6387493"><ele>0.0</ele><time>2026-04-29T19:44:05.016Z</time></trkpt><trkpt lat="38.9557828" lon="0.6387988"><ele>0.0</ele><time>2026-04-29T19:44:06.016Z</time></trkpt><trkpt lat="38.9558615" lon="0.6388472"><ele>0.0</ele><time>2026-04-29T19:44:07.015Z</time></trkpt><trkpt lat="38.9559416" lon="0.6388928"><ele>0.0</ele><time>2026-04-29T19:44:08.016Z</time></trkpt><trkpt lat="38.9560159" lon="0.6389503"><ele>0.0</ele><time>2026-04-29T19:44:09.015Z</time></trkpt><trkpt lat="38.9560921" lon="0.6390042"><ele>0.0</ele><time>2026-04-29T19:44:10.015Z</time></trkpt><trkpt lat="38.9561681" lon="0.6390578"><ele>0.0</ele><time>2026-04-29T19:44:11.015Z</time></trkpt><trkpt lat="38.9562468" lon="0.6391096"><ele>0.0</ele><time>2026-04-29T19:44:12.016Z</time></trkpt><trkpt lat="38.9563252" lon="0.6391607"><ele>0.0</ele><time>2026-04-29T19:44:13.015Z</time></trkpt><trkpt lat="38.9564021" lon="0.6391998"><ele>0.0</ele><time>2026-04-29T19:44:14.016Z</time></trkpt><trkpt lat="38.9564803" lon="0.6392437"><ele>0.0</ele><time>2026-04-29T19:44:15.016Z</time></trkpt><trkpt lat="38.9565573" lon="0.6392917"><ele>0.0</ele><time>2026-04-29T19:44:16.015Z</time></trkpt><trkpt lat="38.9566295" lon="0.6393475"><ele>0.0</ele><time>2026-04-29T19:44:17.015Z</time></trkpt><trkpt lat="38.9567028" lon="0.6394027"><ele>0.0</ele><time>2026-04-29T19:44:18.016Z</time></trkpt><trkpt lat="38.9568571" lon="0.6395202"><ele>0.0</ele><time>2026-04-29T19:44:20.016Z</time></trkpt><trkpt lat="38.9569349" lon="0.6395723"><ele>0.0</ele><time>2026-04-29T19:44:21.015Z</time></trkpt><trkpt lat="38.9570149" lon="0.6396264"><ele>0.0</ele><time>2026-04-29T19:44:22.015Z</time></trkpt><trkpt lat="38.9570935" lon="0.6396809"><ele>0.0</ele><time>2026-04-29T19:44:23.016Z</time></trkpt><trkpt lat="38.9571677" lon="0.6397326"><ele>0.0</ele><time>2026-04-29T19:44:24.015Z</time></trkpt><trkpt lat="38.9572439" lon="0.6397695"><ele>0.0</ele><time>2026-04-29T19:44:25.016Z</time></trkpt><trkpt lat="38.9573201" lon="0.6398115"><ele>0.0</ele><time>2026-04-29T19:44:26.016Z</time></trkpt><trkpt lat="38.9573983" lon="0.6398655"><ele>0.0</ele><time>2026-04-29T19:44:27.015Z</time></trkpt><trkpt lat="38.9574784" lon="0.6399208"><ele>0.0</ele><time>2026-04-29T19:44:28.015Z</time></trkpt><trkpt lat="38.9575567" lon="0.6399799"><ele>0.0</ele><time>2026-04-29T19:44:29.015Z</time></trkpt><trkpt lat="38.9576337" lon="0.6400353"><ele>0.0</ele><time>2026-04-29T19:44:30.015Z</time></trkpt><trkpt lat="38.9577115" lon="0.6400808"><ele>0.0</ele><time>2026-04-29T19:44:31.015Z</time></trkpt><trkpt lat="38.9577855" lon="0.6401295"><ele>0.0</ele><time>2026-04-29T19:44:32.016Z</time></trkpt><trkpt lat="38.9578663" lon="0.6401894"><ele>0.0</ele><time>2026-04-29T19:44:33.015Z</time></trkpt><trkpt lat="38.957952" lon="0.640244"><ele>0.0</ele><time>2026-04-29T19:44:34.015Z</time></trkpt><trkpt lat="38.9580358" lon="0.6403039"><ele>0.0</ele><time>2026-04-29T19:44:35.015Z</time></trkpt><trkpt lat="38.9581162" lon="0.6403598"><ele>0.0</ele><time>2026-04-29T19:44:36.015Z</time></trkpt><trkpt lat="38.9581946" lon="0.6404149"><ele>0.0</ele><time>2026-04-29T19:44:37.015Z</time></trkpt><trkpt lat="38.9582719" lon="0.6404697"><ele>0.0</ele><time>2026-04-29T19:44:38.016Z</time></trkpt><trkpt lat="38.9583512" lon="0.6405203"><ele>0.0</ele><time>2026-04-29T19:44:39.015Z</time></trkpt><trkpt lat="38.9585051" lon="0.640623"><ele>0.0</ele><time>2026-04-29T19:44:41.016Z</time></trkpt><trkpt lat="38.9585843" lon="0.6406704"><ele>0.0</ele><time>2026-04-29T19:44:42.015Z</time></trkpt><trkpt lat="38.9586629" lon="0.6407183"><ele>0.0</ele><time>2026-04-29T19:44:43.015Z</time></trkpt><trkpt lat="38.9587384" lon="0.6407697"><ele>0.0</ele><time>2026-04-29T19:44:44.016Z</time></trkpt><trkpt lat="38.9588091" lon="0.6408174"><ele>0.0</ele><time>2026-04-29T19:44:45.015Z</time></trkpt><trkpt lat="38.958881" lon="0.6408683"><ele>0.0</ele><time>2026-04-29T19:44:46.016Z</time></trkpt><trkpt lat="38.958957" lon="0.6409213"><ele>0.0</ele><time>2026-04-29T19:44:47.016Z</time></trkpt><trkpt lat="38.959032" lon="0.6409691"><ele>0.0</ele><time>2026-04-29T19:44:48.016Z</time></trkpt><trkpt lat="38.9591072" lon="0.6410176"><ele>0.0</ele><time>2026-04-29T19:44:49.016Z</time></trkpt><trkpt lat="38.9591817" lon="0.641066"><ele>0.0</ele><time>2026-04-29T19:44:50.015Z</time></trkpt><trkpt lat="38.9592596" lon="0.6411165"><ele>0.0</ele><time>2026-04-29T19:44:51.015Z</time></trkpt><trkpt lat="38.9593394" lon="0.6411635"><ele>0.0</ele><time>2026-04-29T19:44:52.015Z</time></trkpt><trkpt lat="38.9594196" lon="0.6412069"><ele>0.0</ele><time>2026-04-29T19:44:53.016Z</time></trkpt><trkpt lat="38.9594969" lon="0.6412548"><ele>0.0</ele><time>2026-04-29T19:44:54.015Z</time></trkpt><trkpt lat="38.9595718" lon="0.6413059"><ele>0.0</ele><time>2026-04-29T19:44:55.015Z</time></trkpt><trkpt lat="38.9596514" lon="0.641354"><ele>0.0</ele><time>2026-04-29T19:44:56.016Z</time></trkpt><trkpt lat="38.9597286" lon="0.6414055"><ele>0.0</ele><time>2026-04-29T19:44:57.015Z</time></trkpt><trkpt lat="38.9598037" lon="0.6414585"><ele>0.0</ele><time>2026-04-29T19:44:58.015Z</time></trkpt><trkpt lat="38.9598816" lon="0.6415106"><ele>0.0</ele><time>2026-04-29T19:44:59.016Z</time></trkpt><trkpt lat="38.9599627" lon="0.6415602"><ele>0.0</ele><time>2026-04-29T19:45:00.016Z</time></trkpt><trkpt lat="38.9601214" lon="0.6416522"><ele>0.0</ele><time>2026-04-29T19:45:02.015Z</time></trkpt><trkpt lat="38.9602029" lon="0.6416965"><ele>0.0</ele><time>2026-04-29T19:45:03.016Z</time></trkpt><trkpt lat="38.9602848" lon="0.6417472"><ele>0.0</ele><time>2026-04-29T19:45:04.015Z</time></trkpt><trkpt lat="38.9603652" lon="0.6418028"><ele>0.0</ele><time>2026-04-29T19:45:05.016Z</time></trkpt><trkpt lat="38.960442" lon="0.64185"><ele>0.0</ele><time>2026-04-29T19:45:06.016Z</time></trkpt><trkpt lat="38.9605189" lon="0.6418966"><ele>0.0</ele><time>2026-04-29T19:45:07.015Z</time></trkpt><trkpt lat="38.960597" lon="0.6419446"><ele>0.0</ele><time>2026-04-29T19:45:08.016Z</time></trkpt><trkpt lat="38.9606769" lon="0.641993"><ele>0.0</ele><time>2026-04-29T19:45:09.015Z</time></trkpt><trkpt lat="38.9607579" lon="0.6420446"><ele>0.0</ele><time>2026-04-29T19:45:10.015Z</time></trkpt><trkpt lat="38.9608378" lon="0.6420981"><ele>0.0</ele><time>2026-04-29T19:45:11.015Z</time></trkpt><trkpt lat="38.9609179" lon="0.6421488"><ele>0.0</ele><time>2026-04-29T19:45:12.016Z</time></trkpt><trkpt lat="38.9609951" lon="0.642196"><ele>0.0</ele><time>2026-04-29T19:45:13.016Z</time></trkpt><trkpt lat="38.9610677" lon="0.6422524"><ele>0.0</ele><time>2026-04-29T19:45:14.016Z</time></trkpt><trkpt lat="38.961142" lon="0.6423109"><ele>0.0</ele><time>2026-04-29T19:45:15.015Z</time></trkpt><trkpt lat="38.9612155" lon="0.6423626"><ele>0.0</ele><time>2026-04-29T19:45:16.016Z</time></trkpt><trkpt lat="38.9612932" lon="0.6424084"><ele>0.0</ele><time>2026-04-29T19:45:17.016Z</time></trkpt><trkpt lat="38.9613731" lon="0.6424625"><ele>0.0</ele><time>2026-04-29T19:45:18.015Z</time></trkpt><trkpt lat="38.9614532" lon="0.6425131"><ele>0.0</ele><time>2026-04-29T19:45:19.015Z</time></trkpt><trkpt lat="38.961535" lon="0.6425576"><ele>0.0</ele><time>2026-04-29T19:45:20.015Z</time></trkpt><trkpt lat="38.9616123" lon="0.6426006"><ele>0.0</ele><time>2026-04-29T19:45:21.016Z</time></trkpt><trkpt lat="38.9617579" lon="0.6426934"><ele>0.0</ele><time>2026-04-29T19:45:23.016Z</time></trkpt><trkpt lat="38.9618307" lon="0.6427472"><ele>0.0</ele><time>2026-04-29T19:45:24.015Z</time></trkpt><trkpt lat="38.9619082" lon="0.6428021"><ele>0.0</ele><time>2026-04-29T19:45:25.015Z</time></trkpt><trkpt lat="38.9619894" lon="0.6428512"><ele>0.0</ele><time>2026-04-29T19:45:26.016Z</time></trkpt><trkpt lat="38.9620669" lon="0.6429006"><ele>0.0</ele><time>2026-04-29T19:45:27.016Z</time></trkpt><trkpt lat="38.9621461" lon="0.6429497"><ele>0.0</ele><time>2026-04-29T19:45:28.015Z</time></trkpt><trkpt lat="38.9622276" lon="0.6429994"><ele>0.0</ele><time>2026-04-29T19:45:29.016Z</time></trkpt><trkpt lat="38.9623053" lon="0.6430467"><ele>0.0</ele><time>2026-04-29T19:45:30.016Z</time></trkpt><trkpt lat="38.9623878" lon="0.6430928"><ele>0.0</ele><time>2026-04-29T19:45:31.016Z</time></trkpt><trkpt lat="38.9624726" lon="0.6431536"><ele>0.0</ele><time>2026-04-29T19:45:32.015Z</time></trkpt><trkpt lat="38.9625506" lon="0.6432161"><ele>0.0</ele><time>2026-04-29T19:45:33.015Z</time></trkpt><trkpt lat="38.9626284" lon="0.6432672"><ele>0.0</ele><time>2026-04-29T19:45:34.016Z</time></trkpt><trkpt lat="38.9627112" lon="0.6433116"><ele>0.0</ele><time>2026-04-29T19:45:35.016Z</time></trkpt><trkpt lat="38.9627943" lon="0.6433564"><ele>0.0</ele><time>2026-04-29T19:45:36.016Z</time></trkpt><trkpt lat="38.9628809" lon="0.643403"><ele>0.0</ele><time>2026-04-29T19:45:37.016Z</time></trkpt><trkpt lat="38.9629668" lon="0.6434531"><ele>0.0</ele><time>2026-04-29T19:45:38.016Z</time></trkpt><trkpt lat="38.9630506" lon="0.6435049"><ele>0.0</ele><time>2026-04-29T19:45:39.015Z</time></trkpt><trkpt lat="38.9631356" lon="0.6435552"><ele>0.0</ele><time>2026-04-29T19:45:40.016Z</time></trkpt><trkpt lat="38.9632196" lon="0.6436042"><ele>0.0</ele><time>2026-04-29T19:45:41.015Z</time></trkpt><trkpt lat="38.9633016" lon="0.6436508"><ele>0.0</ele><time>2026-04-29T19:45:42.015Z</time></trkpt><trkpt lat="38.9634569" lon="0.6437353"><ele>0.0</ele><time>2026-04-29T19:45:44.016Z</time></trkpt><trkpt lat="38.9635368" lon="0.6437771"><ele>0.0</ele><time>2026-04-29T19:45:45.016Z</time></trkpt><trkpt lat="38.9636151" lon="0.6438189"><ele>0.0</ele><time>2026-04-29T19:45:46.016Z</time></trkpt><trkpt lat="38.9636933" lon="0.643862"><ele>0.0</ele><time>2026-04-29T19:45:47.016Z</time></trkpt><trkpt lat="38.9637692" lon="0.6439066"><ele>0.0</ele><time>2026-04-29T19:45:48.016Z</time></trkpt><trkpt lat="38.9638485" lon="0.6439504"><ele>0.0</ele><time>2026-04-29T19:45:49.015Z</time></trkpt><trkpt lat="38.96393" lon="0.6439954"><ele>0.0</ele><time>2026-04-29T19:45:50.015Z</time></trkpt><trkpt lat="38.9640104" lon="0.6440408"><ele>0.0</ele><time>2026-04-29T19:45:51.015Z</time></trkpt><trkpt lat="38.96409" lon="0.6440886"><ele>0.0</ele><time>2026-04-29T19:45:52.015Z</time></trkpt><trkpt lat="38.9641701" lon="0.6441314"><ele>0.0</ele><time>2026-04-29T19:45:53.016Z</time></trkpt><trkpt lat="38.9642487" lon="0.6441765"><ele>0.0</ele><time>2026-04-29T19:45:54.016Z</time></trkpt><trkpt lat="38.9643241" lon="0.6442155"><ele>0.0</ele><time>2026-04-29T19:45:55.016Z</time></trkpt><trkpt lat="38.9644034" lon="0.6442637"><ele>0.0</ele><time>2026-04-29T19:45:56.016Z</time></trkpt><trkpt lat="38.9644818" lon="0.6443095"><ele>0.0</ele><time>2026-04-29T19:45:57.015Z</time></trkpt><trkpt lat="38.9645586" lon="0.6443577"><ele>0.0</ele><time>2026-04-29T19:45:58.015Z</time></trkpt><trkpt lat="38.9646383" lon="0.644409"><ele>0.0</ele><time>2026-04-29T19:45:59.015Z</time></trkpt><trkpt lat="38.9647197" lon="0.6444634"><ele>0.0</ele><time>2026-04-29T19:46:00.015Z</time></trkpt><trkpt lat="38.9647996" lon="0.6445188"><ele>0.0</ele><time>2026-04-29T19:46:01.015Z</time></trkpt><trkpt lat="38.9648855" lon="0.6445659"><ele>0.0</ele><time>2026-04-29T19:46:02.016Z</time></trkpt><trkpt lat="38.965053" lon="0.6446525"><ele>0.0</ele><time>2026-04-29T19:46:04.015Z</time></trkpt><trkpt lat="38.9651361" lon="0.644694"><ele>0.0</ele><time>2026-04-29T19:46:05.015Z</time></trkpt><trkpt lat="38.965218" lon="0.6447388"><ele>0.0</ele><time>2026-04-29T19:46:06.015Z</time></trkpt><trkpt lat="38.965298" lon="0.6447848"><ele>0.0</ele><time>2026-04-29T19:46:07.015Z</time></trkpt><trkpt lat="38.9653795" lon="0.6448314"><ele>0.0</ele><time>2026-04-29T19:46:08.015Z</time></trkpt><trkpt lat="38.9654614" lon="0.6448702"><ele>0.0</ele><time>2026-04-29T19:46:09.015Z</time></trkpt><trkpt lat="38.9655474" lon="0.6449132"><ele>0.0</ele><time>2026-04-29T19:46:10.016Z</time></trkpt><trkpt lat="38.9656295" lon="0.6449551"><ele>0.0</ele><time>2026-04-29T19:46:11.015Z</time></trkpt><trkpt lat="38.9657127" lon="0.6449935"><ele>0.0</ele><time>2026-04-29T19:46:12.015Z</time></trkpt><trkpt lat="38.965795" lon="0.6450344"><ele>0.0</ele><time>2026-04-29T19:46:13.015Z</time></trkpt><trkpt lat="38.9658795" lon="0.6450752"><ele>0.0</ele><time>2026-04-29T19:46:14.015Z</time></trkpt><trkpt lat="38.9659647" lon="0.6451145"><ele>0.0</ele><time>2026-04-29T19:46:15.015Z</time></trkpt><trkpt lat="38.9660478" lon="0.6451583"><ele>0.0</ele><time>2026-04-29T19:46:16.016Z</time></trkpt><trkpt lat="38.9661296" lon="0.6451978"><ele>0.0</ele><time>2026-04-29T19:46:17.015Z</time></trkpt><trkpt lat="38.9662115" lon="0.6452406"><ele>0.0</ele><time>2026-04-29T19:46:18.016Z</time></trkpt><trkpt lat="38.9662975" lon="0.6452797"><ele>0.0</ele><time>2026-04-29T19:46:19.016Z</time></trkpt><trkpt lat="38.9663772" lon="0.6453179"><ele>0.0</ele><time>2026-04-29T19:46:20.015Z</time></trkpt><trkpt lat="38.9664553" lon="0.6453591"><ele>0.0</ele><time>2026-04-29T19:46:21.015Z</time></trkpt><trkpt lat="38.9665336" lon="0.6454092"><ele>0.0</ele><time>2026-04-29T19:46:22.016Z</time></trkpt><trkpt lat="38.9666103" lon="0.6454613"><ele>0.0</ele><time>2026-04-29T19:46:23.016Z</time></trkpt><trkpt lat="38.9667761" lon="0.6455573"><ele>0.0</ele><time>2026-04-29T19:46:25.015Z</time></trkpt><trkpt lat="38.9668584" lon="0.64561"><ele>0.0</ele><time>2026-04-29T19:46:26.015Z</time></trkpt><trkpt lat="38.9669398" lon="0.645654"><ele>0.0</ele><time>2026-04-29T19:46:27.016Z</time></trkpt><trkpt lat="38.9670201" lon="0.6456888"><ele>0.0</ele><time>2026-04-29T19:46:28.014Z</time></trkpt><trkpt lat="38.9671014" lon="0.6457261"><ele>0.0</ele><time>2026-04-29T19:46:29.015Z</time></trkpt><trkpt lat="38.9671792" lon="0.6457645"><ele>0.0</ele><time>2026-04-29T19:46:30.015Z</time></trkpt><trkpt lat="38.9672556" lon="0.6458055"><ele>0.0</ele><time>2026-04-29T19:46:31.015Z</time></trkpt><trkpt lat="38.9673365" lon="0.6458495"><ele>0.0</ele><time>2026-04-29T19:46:32.014Z</time></trkpt><trkpt lat="38.9674183" lon="0.6458885"><ele>0.0</ele><time>2026-04-29T19:46:33.014Z</time></trkpt><trkpt lat="38.9674985" lon="0.6459298"><ele>0.0</ele><time>2026-04-29T19:46:34.014Z</time></trkpt><trkpt lat="38.9675756" lon="0.645972"><ele>0.0</ele><time>2026-04-29T19:46:35.015Z</time></trkpt><trkpt lat="38.9676523" lon="0.6460193"><ele>0.0</ele><time>2026-04-29T19:46:36.015Z</time></trkpt><trkpt lat="38.9677288" lon="0.6460667"><ele>0.0</ele><time>2026-04-29T19:46:37.014Z</time></trkpt><trkpt lat="38.9678055" lon="0.6461135"><ele>0.0</ele><time>2026-04-29T19:46:38.014Z</time></trkpt><trkpt lat="38.9678865" lon="0.646156"><ele>0.0</ele><time>2026-04-29T19:46:39.015Z</time></trkpt><trkpt lat="38.9679693" lon="0.6461987"><ele>0.0</ele><time>2026-04-29T19:46:40.015Z</time></trkpt><trkpt lat="38.9680518" lon="0.6462421"><ele>0.0</ele><time>2026-04-29T19:46:41.015Z</time></trkpt><trkpt lat="38.9681318" lon="0.6462897"><ele>0.0</ele><time>2026-04-29T19:46:42.015Z</time></trkpt><trkpt lat="38.9682131" lon="0.6463354"><ele>0.0</ele><time>2026-04-29T19:46:43.014Z</time></trkpt><trkpt lat="38.9682922" lon="0.6463832"><ele>0.0</ele><time>2026-04-29T19:46:44.015Z</time></trkpt><trkpt lat="38.9684485" lon="0.6464739"><ele>0.0</ele><time>2026-04-29T19:46:46.014Z</time></trkpt><trkpt lat="38.9685311" lon="0.646522"><ele>0.0</ele><time>2026-04-29T19:46:47.015Z</time></trkpt><trkpt lat="38.9686104" lon="0.6465677"><ele>0.0</ele><time>2026-04-29T19:46:48.014Z</time></trkpt><trkpt lat="38.9686914" lon="0.6466162"><ele>0.0</ele><time>2026-04-29T19:46:49.014Z</time></trkpt><trkpt lat="38.968773" lon="0.6466617"><ele>0.0</ele><time>2026-04-29T19:46:50.014Z</time></trkpt><trkpt lat="38.9688522" lon="0.6467035"><ele>0.0</ele><time>2026-04-29T19:46:51.014Z</time></trkpt><trkpt lat="38.9689349" lon="0.6467434"><ele>0.0</ele><time>2026-04-29T19:46:52.015Z</time></trkpt><trkpt lat="38.9690134" lon="0.6467838"><ele>0.0</ele><time>2026-04-29T19:46:53.014Z</time></trkpt><trkpt lat="38.9690962" lon="0.6468209"><ele>0.0</ele><time>2026-04-29T19:46:54.015Z</time></trkpt><trkpt lat="38.9691739" lon="0.6468538"><ele>0.0</ele><time>2026-04-29T19:46:55.014Z</time></trkpt><trkpt lat="38.9692573" lon="0.6468885"><ele>0.0</ele><time>2026-04-29T19:46:56.015Z</time></trkpt><trkpt lat="38.9693371" lon="0.6469225"><ele>0.0</ele><time>2026-04-29T19:46:57.015Z</time></trkpt><trkpt lat="38.9694156" lon="0.6469601"><ele>0.0</ele><time>2026-04-29T19:46:58.014Z</time></trkpt><trkpt lat="38.9694968" lon="0.6470046"><ele>0.0</ele><time>2026-04-29T19:46:59.014Z</time></trkpt><trkpt lat="38.9695755" lon="0.6470611"><ele>0.0</ele><time>2026-04-29T19:47:00.015Z</time></trkpt><trkpt lat="38.9696569" lon="0.6471125"><ele>0.0</ele><time>2026-04-29T19:47:01.014Z</time></trkpt><trkpt lat="38.9697393" lon="0.6471659"><ele>0.0</ele><time>2026-04-29T19:47:02.014Z</time></trkpt><trkpt lat="38.96982" lon="0.6472145"><ele>0.0</ele><time>2026-04-29T19:47:03.014Z</time></trkpt><trkpt lat="38.9699003" lon="0.6472614"><ele>0.0</ele><time>2026-04-29T19:47:04.014Z</time></trkpt><trkpt lat="38.9699798" lon="0.6473066"><ele>0.0</ele><time>2026-04-29T19:47:05.014Z</time></trkpt><trkpt lat="38.9700627" lon="0.6473588"><ele>0.0</ele><time>2026-04-29T19:47:06.015Z</time></trkpt><trkpt lat="38.9702219" lon="0.6474565"><ele>0.0</ele><time>2026-04-29T19:47:08.015Z</time></trkpt><trkpt lat="38.9703029" lon="0.6475017"><ele>0.0</ele><time>2026-04-29T19:47:09.014Z</time></trkpt><trkpt lat="38.9703821" lon="0.6475487"><ele>0.0</ele><time>2026-04-29T19:47:10.014Z</time></trkpt><trkpt lat="38.9704603" lon="0.647591"><ele>0.0</ele><time>2026-04-29T19:47:11.014Z</time></trkpt><trkpt lat="38.9705388" lon="0.647627"><ele>0.0</ele><time>2026-04-29T19:47:12.015Z</time></trkpt><trkpt lat="38.9706138" lon="0.6476688"><ele>0.0</ele><time>2026-04-29T19:47:13.014Z</time></trkpt><trkpt lat="38.9706899" lon="0.6477179"><ele>0.0</ele><time>2026-04-29T19:47:14.015Z</time></trkpt><trkpt lat="38.9707708" lon="0.6477619"><ele>0.0</ele><time>2026-04-29T19:47:15.015Z</time></trkpt><trkpt lat="38.9708543" lon="0.647803"><ele>0.0</ele><time>2026-04-29T19:47:16.015Z</time></trkpt><trkpt lat="38.9709377" lon="0.6478446"><ele>0.0</ele><time>2026-04-29T19:47:17.014Z</time></trkpt><trkpt lat="38.9710197" lon="0.6478898"><ele>0.0</ele><time>2026-04-29T19:47:18.014Z</time></trkpt><trkpt lat="38.9711001" lon="0.6479334"><ele>0.0</ele><time>2026-04-29T19:47:19.014Z</time></trkpt><trkpt lat="38.97118" lon="0.6479761"><ele>0.0</ele><time>2026-04-29T19:47:20.015Z</time></trkpt><trkpt lat="38.9712602" lon="0.6480228"><ele>0.0</ele><time>2026-04-29T19:47:21.015Z</time></trkpt><trkpt lat="38.9713415" lon="0.6480698"><ele>0.0</ele><time>2026-04-29T19:47:22.014Z</time></trkpt><trkpt lat="38.9714234" lon="0.6481164"><ele>0.0</ele><time>2026-04-29T19:47:23.015Z</time></trkpt><trkpt lat="38.9715031" lon="0.6481585"><ele>0.0</ele><time>2026-04-29T19:47:24.015Z</time></trkpt><trkpt lat="38.9715859" lon="0.6482024"><ele>0.0</ele><time>2026-04-29T19:47:25.015Z</time></trkpt><trkpt lat="38.9716653" lon="0.6482474"><ele>0.0</ele><time>2026-04-29T19:47:26.014Z</time></trkpt><trkpt lat="38.9717466" lon="0.648285"><ele>0.0</ele><time>2026-04-29T19:47:27.014Z</time></trkpt><trkpt lat="38.9719109" lon="0.6483664"><ele>0.0</ele><time>2026-04-29T19:47:29.014Z</time></trkpt><trkpt lat="38.9719928" lon="0.6484141"><ele>0.0</ele><time>2026-04-29T19:47:30.015Z</time></trkpt><trkpt lat="38.9720762" lon="0.6484583"><ele>0.0</ele><time>2026-04-29T19:47:31.014Z</time></trkpt><trkpt lat="38.9721536" lon="0.6485002"><ele>0.0</ele><time>2026-04-29T19:47:32.014Z</time></trkpt><trkpt lat="38.9722245" lon="0.6485458"><ele>0.0</ele><time>2026-04-29T19:47:33.014Z</time></trkpt><trkpt lat="38.9723022" lon="0.6485805"><ele>0.0</ele><time>2026-04-29T19:47:34.014Z</time></trkpt><trkpt lat="38.9723761" lon="0.6486251"><ele>0.0</ele><time>2026-04-29T19:47:35.015Z</time></trkpt><trkpt lat="38.9724535" lon="0.6486563"><ele>0.0</ele><time>2026-04-29T19:47:36.015Z</time></trkpt><trkpt lat="38.9725345" lon="0.6486899"><ele>0.0</ele><time>2026-04-29T19:47:37.014Z</time></trkpt><trkpt lat="38.9726193" lon="0.6487265"><ele>0.0</ele><time>2026-04-29T19:47:38.015Z</time></trkpt><trkpt lat="38.9727" lon="0.6487646"><ele>0.0</ele><time>2026-04-29T19:47:39.014Z</time></trkpt><trkpt lat="38.9727786" lon="0.6488034"><ele>0.0</ele><time>2026-04-29T19:47:40.015Z</time></trkpt><trkpt lat="38.9728627" lon="0.6488465"><ele>0.0</ele><time>2026-04-29T19:47:41.014Z</time></trkpt><trkpt lat="38.9729364" lon="0.6488808"><ele>0.0</ele><time>2026-04-29T19:47:42.014Z</time></trkpt><trkpt lat="38.9730149" lon="0.6489244"><ele>0.0</ele><time>2026-04-29T19:47:43.014Z</time></trkpt><trkpt lat="38.9731005" lon="0.6489749"><ele>0.0</ele><time>2026-04-29T19:47:44.015Z</time></trkpt><trkpt lat="38.9731843" lon="0.6490212"><ele>0.0</ele><time>2026-04-29T19:47:45.014Z</time></trkpt><trkpt lat="38.9732631" lon="0.6490665"><ele>0.0</ele><time>2026-04-29T19:47:46.014Z</time></trkpt><trkpt lat="38.9733458" lon="0.649111"><ele>0.0</ele><time>2026-04-29T19:47:47.015Z</time></trkpt><trkpt lat="38.9734223" lon="0.6491792"><ele>0.0</ele><time>2026-04-29T19:47:48.015Z</time></trkpt><trkpt lat="38.9735736" lon="0.6492716"><ele>0.0</ele><time>2026-04-29T19:47:50.015Z</time></trkpt><trkpt lat="38.9736442" lon="0.6493122"><ele>0.0</ele><time>2026-04-29T19:47:51.014Z</time></trkpt><trkpt lat="38.9737256" lon="0.6493559"><ele>0.0</ele><time>2026-04-29T19:47:52.014Z</time></trkpt><trkpt lat="38.9738107" lon="0.6493954"><ele>0.0</ele><time>2026-04-29T19:47:53.014Z</time></trkpt><trkpt lat="38.9738916" lon="0.6494384"><ele>0.0</ele><time>2026-04-29T19:47:54.015Z</time></trkpt><trkpt lat="38.973976" lon="0.6494815"><ele>0.0</ele><time>2026-04-29T19:47:55.015Z</time></trkpt><trkpt lat="38.9740625" lon="0.649526"><ele>0.0</ele><time>2026-04-29T19:47:56.015Z</time></trkpt><trkpt lat="38.974145" lon="0.6495702"><ele>0.0</ele><time>2026-04-29T19:47:57.014Z</time></trkpt><trkpt lat="38.9742321" lon="0.6496081"><ele>0.0</ele><time>2026-04-29T19:47:58.014Z</time></trkpt><trkpt lat="38.9743173" lon="0.6496541"><ele>0.0</ele><time>2026-04-29T19:47:59.014Z</time></trkpt><trkpt lat="38.9744007" lon="0.649702"><ele>0.0</ele><time>2026-04-29T19:48:00.015Z</time></trkpt><trkpt lat="38.97448" lon="0.6497507"><ele>0.0</ele><time>2026-04-29T19:48:01.014Z</time></trkpt><trkpt lat="38.9745582" lon="0.6498004"><ele>0.0</ele><time>2026-04-29T19:48:02.015Z</time></trkpt><trkpt lat="38.9746397" lon="0.6498469"><ele>0.0</ele><time>2026-04-29T19:48:03.014Z</time></trkpt><trkpt lat="38.9747204" lon="0.6498915"><ele>0.0</ele><time>2026-04-29T19:48:04.014Z</time></trkpt><trkpt lat="38.9748017" lon="0.6499411"><ele>0.0</ele><time>2026-04-29T19:48:05.014Z</time></trkpt><trkpt lat="38.9748776" lon="0.649985"><ele>0.0</ele><time>2026-04-29T19:48:06.015Z</time></trkpt><trkpt lat="38.9749466" lon="0.6500324"><ele>0.0</ele><time>2026-04-29T19:48:07.014Z</time></trkpt><trkpt lat="38.9750175" lon="0.6500762"><ele>0.0</ele><time>2026-04-29T19:48:08.014Z</time></trkpt><trkpt lat="38.9751021" lon="0.6501207"><ele>0.0</ele><time>2026-04-29T19:48:09.014Z</time></trkpt><trkpt lat="38.9752603" lon="0.6502035"><ele>0.0</ele><time>2026-04-29T19:48:11.015Z</time></trkpt><trkpt lat="38.9753401" lon="0.6502447"><ele>0.0</ele><time>2026-04-29T19:48:12.014Z</time></trkpt><trkpt lat="38.97542" lon="0.6502844"><ele>0.0</ele><time>2026-04-29T19:48:13.015Z</time></trkpt><trkpt lat="38.9755016" lon="0.6503182"><ele>0.0</ele><time>2026-04-29T19:48:14.014Z</time></trkpt><trkpt lat="38.9755849" lon="0.6503587"><ele>0.0</ele><time>2026-04-29T19:48:15.014Z</time></trkpt><trkpt lat="38.9756638" lon="0.650401"><ele>0.0</ele><time>2026-04-29T19:48:16.014Z</time></trkpt><trkpt lat="38.9757433" lon="0.650446"><ele>0.0</ele><time>2026-04-29T19:48:17.015Z</time></trkpt><trkpt lat="38.9758205" lon="0.6504851"><ele>0.0</ele><time>2026-04-29T19:48:18.014Z</time></trkpt><trkpt lat="38.975907" lon="0.6505322"><ele>0.0</ele><time>2026-04-29T19:48:19.015Z</time></trkpt><trkpt lat="38.9759909" lon="0.650579"><ele>0.0</ele><time>2026-04-29T19:48:20.014Z</time></trkpt><trkpt lat="38.9760704" lon="0.6506248"><ele>0.0</ele><time>2026-04-29T19:48:21.015Z</time></trkpt><trkpt lat="38.9761486" lon="0.6506686"><ele>0.0</ele><time>2026-04-29T19:48:22.014Z</time></trkpt><trkpt lat="38.9762299" lon="0.6507149"><ele>0.0</ele><time>2026-04-29T19:48:23.014Z</time></trkpt><trkpt lat="38.9763072" lon="0.6507525"><ele>0.0</ele><time>2026-04-29T19:48:24.014Z</time></trkpt><trkpt lat="38.9763881" lon="0.6507945"><ele>0.0</ele><time>2026-04-29T19:48:25.015Z</time></trkpt><trkpt lat="38.97647" lon="0.6508417"><ele>0.0</ele><time>2026-04-29T19:48:26.014Z</time></trkpt><trkpt lat="38.9765527" lon="0.6508864"><ele>0.0</ele><time>2026-04-29T19:48:27.014Z</time></trkpt><trkpt lat="38.9766332" lon="0.6509285"><ele>0.0</ele><time>2026-04-29T19:48:28.014Z</time></trkpt><trkpt lat="38.976712" lon="0.6509683"><ele>0.0</ele><time>2026-04-29T19:48:29.014Z</time></trkpt><trkpt lat="38.9767886" lon="0.6510183"><ele>0.0</ele><time>2026-04-29T19:48:30.015Z</time></trkpt><trkpt lat="38.9769531" lon="0.6511158"><ele>0.0</ele><time>2026-04-29T19:48:32.014Z</time></trkpt><trkpt lat="38.9770375" lon="0.6511832"><ele>0.0</ele><time>2026-04-29T19:48:33.014Z</time></trkpt><trkpt lat="38.9771211" lon="0.6512303"><ele>0.0</ele><time>2026-04-29T19:48:34.014Z</time></trkpt><trkpt lat="38.9772017" lon="0.6512728"><ele>0.0</ele><time>2026-04-29T19:48:35.015Z</time></trkpt><trkpt lat="38.977283" lon="0.6513163"><ele>0.0</ele><time>2026-04-29T19:48:36.014Z</time></trkpt><trkpt lat="38.9773633" lon="0.6513612"><ele>0.0</ele><time>2026-04-29T19:48:37.014Z</time></trkpt><trkpt lat="38.9774416" lon="0.6514078"><ele>0.0</ele><time>2026-04-29T19:48:38.014Z</time></trkpt><trkpt lat="38.9775249" lon="0.6514526"><ele>0.0</ele><time>2026-04-29T19:48:39.015Z</time></trkpt><trkpt lat="38.9776003" lon="0.6514953"><ele>0.0</ele><time>2026-04-29T19:48:40.014Z</time></trkpt><trkpt lat="38.9776812" lon="0.6515351"><ele>0.0</ele><time>2026-04-29T19:48:41.014Z</time></trkpt><trkpt lat="38.9777614" lon="0.6515734"><ele>0.0</ele><time>2026-04-29T19:48:42.015Z</time></trkpt><trkpt lat="38.9778429" lon="0.6516186"><ele>0.0</ele><time>2026-04-29T19:48:43.015Z</time></trkpt><trkpt lat="38.9779263" lon="0.6516668"><ele>0.0</ele><time>2026-04-29T19:48:44.014Z</time></trkpt><trkpt lat="38.9780093" lon="0.6517142"><ele>0.0</ele><time>2026-04-29T19:48:45.015Z</time></trkpt><trkpt lat="38.9780895" lon="0.6517615"><ele>0.0</ele><time>2026-04-29T19:48:46.014Z</time></trkpt><trkpt lat="38.9781698" lon="0.6518011"><ele>0.0</ele><time>2026-04-29T19:48:47.014Z</time></trkpt><trkpt lat="38.9782477" lon="0.6518414"><ele>0.0</ele><time>2026-04-29T19:48:48.014Z</time></trkpt><trkpt lat="38.9783228" lon="0.651884"><ele>0.0</ele><time>2026-04-29T19:48:49.014Z</time></trkpt><trkpt lat="38.9784015" lon="0.6519179"><ele>0.0</ele><time>2026-04-29T19:48:50.014Z</time></trkpt><trkpt lat="38.9784812" lon="0.6519506"><ele>0.0</ele><time>2026-04-29T19:48:51.015Z</time></trkpt><trkpt lat="38.9786506" lon="0.6520372"><ele>0.0</ele><time>2026-04-29T19:48:53.015Z</time></trkpt><trkpt lat="38.9787315" lon="0.6520829"><ele>0.0</ele><time>2026-04-29T19:48:54.015Z</time></trkpt><trkpt lat="38.9788106" lon="0.6521336"><ele>0.0</ele><time>2026-04-29T19:48:55.014Z</time></trkpt><trkpt lat="38.9788832" lon="0.6521916"><ele>0.0</ele><time>2026-04-29T19:48:56.014Z</time></trkpt><trkpt lat="38.978963" lon="0.6522394"><ele>0.0</ele><time>2026-04-29T19:48:57.015Z</time></trkpt><trkpt lat="38.9790404" lon="0.6522889"><ele>0.0</ele><time>2026-04-29T19:48:58.014Z</time></trkpt><trkpt lat="38.9791186" lon="0.6523335"><ele>0.0</ele><time>2026-04-29T19:48:59.015Z</time></trkpt><trkpt lat="38.9791996" lon="0.6523767"><ele>0.0</ele><time>2026-04-29T19:49:00.014Z</time></trkpt><trkpt lat="38.9792813" lon="0.6524214"><ele>0.0</ele><time>2026-04-29T19:49:01.014Z</time></trkpt><trkpt lat="38.9793632" lon="0.6524663"><ele>0.0</ele><time>2026-04-29T19:49:02.015Z</time></trkpt><trkpt lat="38.9794388" lon="0.6525087"><ele>0.0</ele><time>2026-04-29T19:49:03.014Z</time></trkpt><trkpt lat="38.9795136" lon="0.6525561"><ele>0.0</ele><time>2026-04-29T19:49:04.015Z</time></trkpt><trkpt lat="38.9795961" lon="0.6526062"><ele>0.0</ele><time>2026-04-29T19:49:05.014Z</time></trkpt><trkpt lat="38.9796782" lon="0.6526547"><ele>0.0</ele><time>2026-04-29T19:49:06.014Z</time></trkpt><trkpt lat="38.9797581" lon="0.6526975"><ele>0.0</ele><time>2026-04-29T19:49:07.014Z</time></trkpt><trkpt lat="38.9798395" lon="0.6527401"><ele>0.0</ele><time>2026-04-29T19:49:08.014Z</time></trkpt><trkpt lat="38.9799215" lon="0.6527814"><ele>0.0</ele><time>2026-04-29T19:49:09.015Z</time></trkpt><trkpt lat="38.9800017" lon="0.6528244"><ele>0.0</ele><time>2026-04-29T19:49:10.014Z</time></trkpt><trkpt lat="38.9800746" lon="0.6528652"><ele>0.0</ele><time>2026-04-29T19:49:11.014Z</time></trkpt><trkpt lat="38.9801448" lon="0.6529072"><ele>0.0</ele><time>2026-04-29T19:49:12.015Z</time></trkpt><trkpt lat="38.9802994" lon="0.6530025"><ele>0.0</ele><time>2026-04-29T19:49:14.015Z</time></trkpt><trkpt lat="38.9803794" lon="0.653048"><ele>0.0</ele><time>2026-04-29T19:49:15.014Z</time></trkpt><trkpt lat="38.9804623" lon="0.6530895"><ele>0.0</ele><time>2026-04-29T19:49:16.014Z</time></trkpt><trkpt lat="38.9805501" lon="0.6531276"><ele>0.0</ele><time>2026-04-29T19:49:17.015Z</time></trkpt><trkpt lat="38.9806296" lon="0.653173"><ele>0.0</ele><time>2026-04-29T19:49:18.014Z</time></trkpt><trkpt lat="38.9807095" lon="0.6532167"><ele>0.0</ele><time>2026-04-29T19:49:19.014Z</time></trkpt><trkpt lat="38.98079" lon="0.6532552"><ele>0.0</ele><time>2026-04-29T19:49:20.014Z</time></trkpt><trkpt lat="38.9808728" lon="0.653298"><ele>0.0</ele><time>2026-04-29T19:49:21.014Z</time></trkpt><trkpt lat="38.9809592" lon="0.6533398"><ele>0.0</ele><time>2026-04-29T19:49:22.014Z</time></trkpt><trkpt lat="38.9810401" lon="0.6533818"><ele>0.0</ele><time>2026-04-29T19:49:23.014Z</time></trkpt><trkpt lat="38.9811201" lon="0.6534254"><ele>0.0</ele><time>2026-04-29T19:49:24.014Z</time></trkpt><trkpt lat="38.9811933" lon="0.6534659"><ele>0.0</ele><time>2026-04-29T19:49:25.015Z</time></trkpt><trkpt lat="38.9812762" lon="0.6535163"><ele>0.0</ele><time>2026-04-29T19:49:26.014Z</time></trkpt><trkpt lat="38.9813608" lon="0.6535694"><ele>0.0</ele><time>2026-04-29T19:49:27.014Z</time></trkpt><trkpt lat="38.9814461" lon="0.6536082"><ele>0.0</ele><time>2026-04-29T19:49:28.014Z</time></trkpt><trkpt lat="38.9815339" lon="0.6536409"><ele>0.0</ele><time>2026-04-29T19:49:29.015Z</time></trkpt><trkpt lat="38.9816135" lon="0.6536702"><ele>0.0</ele><time>2026-04-29T19:49:30.015Z</time></trkpt><trkpt lat="38.9816903" lon="0.6537136"><ele>0.0</ele><time>2026-04-29T19:49:31.014Z</time></trkpt><trkpt lat="38.9817716" lon="0.6537557"><ele>0.0</ele><time>2026-04-29T19:49:32.014Z</time></trkpt><trkpt lat="38.9818575" lon="0.6538057"><ele>0.0</ele><time>2026-04-29T19:49:33.015Z</time></trkpt><trkpt lat="38.9820197" lon="0.6539153"><ele>0.0</ele><time>2026-04-29T19:49:35.014Z</time></trkpt><trkpt lat="38.9821003" lon="0.6539696"><ele>0.0</ele><time>2026-04-29T19:49:36.015Z</time></trkpt><trkpt lat="38.9821771" lon="0.6540135"><ele>0.0</ele><time>2026-04-29T19:49:37.014Z</time></trkpt><trkpt lat="38.9822609" lon="0.6540599"><ele>0.0</ele><time>2026-04-29T19:49:38.014Z</time></trkpt><trkpt lat="38.9823359" lon="0.6541161"><ele>0.0</ele><time>2026-04-29T19:49:39.015Z</time></trkpt><trkpt lat="38.9824205" lon="0.6541632"><ele>0.0</ele><time>2026-04-29T19:49:40.014Z</time></trkpt><trkpt lat="38.9825028" lon="0.6542087"><ele>0.0</ele><time>2026-04-29T19:49:41.014Z</time></trkpt><trkpt lat="38.9825875" lon="0.6542631"><ele>0.0</ele><time>2026-04-29T19:49:42.014Z</time></trkpt><trkpt lat="38.9826653" lon="0.6543083"><ele>0.0</ele><time>2026-04-29T19:49:43.014Z</time></trkpt><trkpt lat="38.982747" lon="0.6543445"><ele>0.0</ele><time>2026-04-29T19:49:44.015Z</time></trkpt><trkpt lat="38.9828334" lon="0.6543873"><ele>0.0</ele><time>2026-04-29T19:49:45.015Z</time></trkpt><trkpt lat="38.9829261" lon="0.6544288"><ele>0.0</ele><time>2026-04-29T19:49:46.014Z</time></trkpt><trkpt lat="38.9830068" lon="0.6544662"><ele>0.0</ele><time>2026-04-29T19:49:47.015Z</time></trkpt><trkpt lat="38.9830911" lon="0.6545053"><ele>0.0</ele><time>2026-04-29T19:49:48.014Z</time></trkpt><trkpt lat="38.9831733" lon="0.6545534"><ele>0.0</ele><time>2026-04-29T19:49:49.015Z</time></trkpt><trkpt lat="38.9832522" lon="0.6545934"><ele>0.0</ele><time>2026-04-29T19:49:50.015Z</time></trkpt><trkpt lat="38.9833272" lon="0.6546361"><ele>0.0</ele><time>2026-04-29T19:49:51.014Z</time></trkpt><trkpt lat="38.9834022" lon="0.6546934"><ele>0.0</ele><time>2026-04-29T19:49:52.014Z</time></trkpt><trkpt lat="38.9834676" lon="0.6547518"><ele>0.0</ele><time>2026-04-29T19:49:53.014Z</time></trkpt><trkpt lat="38.9835435" lon="0.6548119"><ele>0.0</ele><time>2026-04-29T19:49:54.015Z</time></trkpt><trkpt lat="38.9836998" lon="0.6549167"><ele>0.0</ele><time>2026-04-29T19:49:56.015Z</time></trkpt><trkpt lat="38.98378" lon="0.654965"><ele>0.0</ele><time>2026-04-29T19:49:57.014Z</time></trkpt><trkpt lat="38.9838587" lon="0.6549936"><ele>0.0</ele><time>2026-04-29T19:49:58.015Z</time></trkpt><trkpt lat="38.9839426" lon="0.6550402"><ele>0.0</ele><time>2026-04-29T19:49:59.014Z</time></trkpt><trkpt lat="38.9840204" lon="0.655081"><ele>0.0</ele><time>2026-04-29T19:50:00.015Z</time></trkpt><trkpt lat="38.9841004" lon="0.6551237"><ele>0.0</ele><time>2026-04-29T19:50:01.015Z</time></trkpt><trkpt lat="38.9841759" lon="0.6551672"><ele>0.0</ele><time>2026-04-29T19:50:02.014Z</time></trkpt><trkpt lat="38.9842481" lon="0.6552108"><ele>0.0</ele><time>2026-04-29T19:50:03.015Z</time></trkpt><trkpt lat="38.9843322" lon="0.6552621"><ele>0.0</ele><time>2026-04-29T19:50:04.015Z</time></trkpt><trkpt lat="38.9844203" lon="0.6553133"><ele>0.0</ele><time>2026-04-29T19:50:05.014Z</time></trkpt><trkpt lat="38.9845085" lon="0.6553666"><ele>0.0</ele><time>2026-04-29T19:50:06.015Z</time></trkpt><trkpt lat="38.984581" lon="0.6554277"><ele>0.0</ele><time>2026-04-29T19:50:07.015Z</time></trkpt><trkpt lat="38.9846571" lon="0.6554849"><ele>0.0</ele><time>2026-04-29T19:50:08.015Z</time></trkpt><trkpt lat="38.9847337" lon="0.6555331"><ele>0.0</ele><time>2026-04-29T19:50:09.014Z</time></trkpt><trkpt lat="38.9848105" lon="0.6555844"><ele>0.0</ele><time>2026-04-29T19:50:10.015Z</time></trkpt><trkpt lat="38.9848894" lon="0.6556405"><ele>0.0</ele><time>2026-04-29T19:50:11.014Z</time></trkpt><trkpt lat="38.9849712" lon="0.6557055"><ele>0.0</ele><time>2026-04-29T19:50:12.014Z</time></trkpt><trkpt lat="38.9850478" lon="0.6557786"><ele>0.0</ele><time>2026-04-29T19:50:13.015Z</time></trkpt><trkpt lat="38.9851283" lon="0.6558347"><ele>0.0</ele><time>2026-04-29T19:50:14.015Z</time></trkpt><trkpt lat="38.9852101" lon="0.6558831"><ele>0.0</ele><time>2026-04-29T19:50:15.015Z</time></trkpt><trkpt lat="38.9853722" lon="0.65598"><ele>0.0</ele><time>2026-04-29T19:50:17.014Z</time></trkpt><trkpt lat="38.9854504" lon="0.6560293"><ele>0.0</ele><time>2026-04-29T19:50:18.014Z</time></trkpt><trkpt lat="38.985526" lon="0.6560709"><ele>0.0</ele><time>2026-04-29T19:50:19.015Z</time></trkpt><trkpt lat="38.9855981" lon="0.656111"><ele>0.0</ele><time>2026-04-29T19:50:20.014Z</time></trkpt><trkpt lat="38.9856755" lon="0.6561347"><ele>0.0</ele><time>2026-04-29T19:50:21.014Z</time></trkpt><trkpt lat="38.9857565" lon="0.6561692"><ele>0.0</ele><time>2026-04-29T19:50:22.014Z</time></trkpt><trkpt lat="38.9858354" lon="0.6561958"><ele>0.0</ele><time>2026-04-29T19:50:23.015Z</time></trkpt><trkpt lat="38.9859122" lon="0.6562308"><ele>0.0</ele><time>2026-04-29T19:50:24.014Z</time></trkpt><trkpt lat="38.9859888" lon="0.6562675"><ele>0.0</ele><time>2026-04-29T19:50:25.015Z</time></trkpt><trkpt lat="38.9860715" lon="0.6562883"><ele>0.0</ele><time>2026-04-29T19:50:26.014Z</time></trkpt><trkpt lat="38.9861564" lon="0.6563158"><ele>0.0</ele><time>2026-04-29T19:50:27.014Z</time></trkpt><trkpt lat="38.9862411" lon="0.6563467"><ele>0.0</ele><time>2026-04-29T19:50:28.014Z</time></trkpt><trkpt lat="38.9863273" lon="0.6563767"><ele>0.0</ele><time>2026-04-29T19:50:29.014Z</time></trkpt><trkpt lat="38.9864111" lon="0.6564093"><ele>0.0</ele><time>2026-04-29T19:50:30.014Z</time></trkpt><trkpt lat="38.9864959" lon="0.6564383"><ele>0.0</ele><time>2026-04-29T19:50:31.015Z</time></trkpt><trkpt lat="38.9865781" lon="0.6564667"><ele>0.0</ele><time>2026-04-29T19:50:32.014Z</time></trkpt><trkpt lat="38.9866613" lon="0.6564965"><ele>0.0</ele><time>2026-04-29T19:50:33.014Z</time></trkpt><trkpt lat="38.9867428" lon="0.6565322"><ele>0.0</ele><time>2026-04-29T19:50:34.014Z</time></trkpt><trkpt lat="38.986826" lon="0.6565696"><ele>0.0</ele><time>2026-04-29T19:50:35.014Z</time></trkpt><trkpt lat="38.9869037" lon="0.6566045"><ele>0.0</ele><time>2026-04-29T19:50:36.014Z</time></trkpt><trkpt lat="38.9870638" lon="0.6566754"><ele>0.0</ele><time>2026-04-29T19:50:38.015Z</time></trkpt><trkpt lat="38.9871449" lon="0.6567133"><ele>0.0</ele><time>2026-04-29T19:50:39.015Z</time></trkpt><trkpt lat="38.9872264" lon="0.6567519"><ele>0.0</ele><time>2026-04-29T19:50:40.015Z</time></trkpt><trkpt lat="38.9873096" lon="0.6567888"><ele>0.0</ele><time>2026-04-29T19:50:41.015Z</time></trkpt><trkpt lat="38.9873874" lon="0.6568253"><ele>0.0</ele><time>2026-04-29T19:50:42.015Z</time></trkpt><trkpt lat="38.987467" lon="0.6568665"><ele>0.0</ele><time>2026-04-29T19:50:43.015Z</time></trkpt><trkpt lat="38.987544" lon="0.6569064"><ele>0.0</ele><time>2026-04-29T19:50:44.014Z</time></trkpt><trkpt lat="38.9876235" lon="0.6569477"><ele>0.0</ele><time>2026-04-29T19:50:45.015Z</time></trkpt><trkpt lat="38.9877032" lon="0.656991"><ele>0.0</ele><time>2026-04-29T19:50:46.015Z</time></trkpt><trkpt lat="38.9877845" lon="0.6570362"><ele>0.0</ele><time>2026-04-29T19:50:47.015Z</time></trkpt><trkpt lat="38.9878707" lon="0.6570857"><ele>0.0</ele><time>2026-04-29T19:50:48.014Z</time></trkpt><trkpt lat="38.9879572" lon="0.6571279"><ele>0.0</ele><time>2026-04-29T19:50:49.015Z</time></trkpt><trkpt lat="38.9880378" lon="0.6571697"><ele>0.0</ele><time>2026-04-29T19:50:50.014Z</time></trkpt><trkpt lat="38.9881266" lon="0.6572158"><ele>0.0</ele><time>2026-04-29T19:50:51.014Z</time></trkpt><trkpt lat="38.9882165" lon="0.6572624"><ele>0.0</ele><time>2026-04-29T19:50:52.014Z</time></trkpt><trkpt lat="38.9882968" lon="0.6573077"><ele>0.0</ele><time>2026-04-29T19:50:53.014Z</time></trkpt><trkpt lat="38.9883782" lon="0.6573545"><ele>0.0</ele><time>2026-04-29T19:50:54.015Z</time></trkpt><trkpt lat="38.9884596" lon="0.6574084"><ele>0.0</ele><time>2026-04-29T19:50:55.015Z</time></trkpt><trkpt lat="38.9885369" lon="0.6574502"><ele>0.0</ele><time>2026-04-29T19:50:56.015Z</time></trkpt><trkpt lat="38.9886167" lon="0.6574869"><ele>0.0</ele><time>2026-04-29T19:50:57.015Z</time></trkpt><trkpt lat="38.9887704" lon="0.6575572"><ele>0.0</ele><time>2026-04-29T19:50:59.015Z</time></trkpt><trkpt lat="38.9888483" lon="0.6575951"><ele>0.0</ele><time>2026-04-29T19:51:00.015Z</time></trkpt><trkpt lat="38.9889253" lon="0.6576337"><ele>0.0</ele><time>2026-04-29T19:51:01.014Z</time></trkpt><trkpt lat="38.9890134" lon="0.6576602"><ele>0.0</ele><time>2026-04-29T19:51:02.014Z</time></trkpt><trkpt lat="38.9891017" lon="0.6576996"><ele>0.0</ele><time>2026-04-29T19:51:03.014Z</time></trkpt><trkpt lat="38.9891872" lon="0.6577408"><ele>0.0</ele><time>2026-04-29T19:51:04.014Z</time></trkpt><trkpt lat="38.9892695" lon="0.6577801"><ele>0.0</ele><time>2026-04-29T19:51:05.013Z</time></trkpt><trkpt lat="38.9893501" lon="0.6578249"><ele>0.0</ele><time>2026-04-29T19:51:06.013Z</time></trkpt><trkpt lat="38.9894314" lon="0.6578585"><ele>0.0</ele><time>2026-04-29T19:51:07.014Z</time></trkpt><trkpt lat="38.9895159" lon="0.6578969"><ele>0.0</ele><time>2026-04-29T19:51:08.013Z</time></trkpt><trkpt lat="38.9895951" lon="0.65794"><ele>0.0</ele><time>2026-04-29T19:51:09.013Z</time></trkpt><trkpt lat="38.9896794" lon="0.6579843"><ele>0.0</ele><time>2026-04-29T19:51:10.013Z</time></trkpt><trkpt lat="38.9897641" lon="0.6580314"><ele>0.0</ele><time>2026-04-29T19:51:11.014Z</time></trkpt><trkpt lat="38.9898464" lon="0.6580663"><ele>0.0</ele><time>2026-04-29T19:51:12.013Z</time></trkpt><trkpt lat="38.9899367" lon="0.6581067"><ele>0.0</ele><time>2026-04-29T19:51:13.013Z</time></trkpt><trkpt lat="38.9900226" lon="0.6581481"><ele>0.0</ele><time>2026-04-29T19:51:14.013Z</time></trkpt><trkpt lat="38.9901075" lon="0.6581914"><ele>0.0</ele><time>2026-04-29T19:51:15.014Z</time></trkpt><trkpt lat="38.990187" lon="0.6582365"><ele>0.0</ele><time>2026-04-29T19:51:16.014Z</time></trkpt><trkpt lat="38.9902693" lon="0.6582844"><ele>0.0</ele><time>2026-04-29T19:51:17.013Z</time></trkpt><trkpt lat="38.9903512" lon="0.6583297"><ele>0.0</ele><time>2026-04-29T19:51:18.014Z</time></trkpt><trkpt lat="38.9905032" lon="0.658439"><ele>0.0</ele><time>2026-04-29T19:51:20.013Z</time></trkpt><trkpt lat="38.990586" lon="0.6584947"><ele>0.0</ele><time>2026-04-29T19:51:21.013Z</time></trkpt><trkpt lat="38.990665" lon="0.6585358"><ele>0.0</ele><time>2026-04-29T19:51:22.014Z</time></trkpt><trkpt lat="38.9907419" lon="0.6585861"><ele>0.0</ele><time>2026-04-29T19:51:23.013Z</time></trkpt><trkpt lat="38.9908188" lon="0.6586285"><ele>0.0</ele><time>2026-04-29T19:51:24.014Z</time></trkpt><trkpt lat="38.9908956" lon="0.658663"><ele>0.0</ele><time>2026-04-29T19:51:25.014Z</time></trkpt><trkpt lat="38.9909751" lon="0.658707"><ele>0.0</ele><time>2026-04-29T19:51:26.013Z</time></trkpt><trkpt lat="38.9910553" lon="0.6587478"><ele>0.0</ele><time>2026-04-29T19:51:27.014Z</time></trkpt><trkpt lat="38.9911307" lon="0.6587899"><ele>0.0</ele><time>2026-04-29T19:51:28.013Z</time></trkpt><trkpt lat="38.9912102" lon="0.6588348"><ele>0.0</ele><time>2026-04-29T19:51:29.013Z</time></trkpt><trkpt lat="38.9912971" lon="0.6588746"><ele>0.0</ele><time>2026-04-29T19:51:30.014Z</time></trkpt><trkpt lat="38.9913782" lon="0.6589192"><ele>0.0</ele><time>2026-04-29T19:51:31.013Z</time></trkpt><trkpt lat="38.9914611" lon="0.6589632"><ele>0.0</ele><time>2026-04-29T19:51:32.014Z</time></trkpt><trkpt lat="38.9915405" lon="0.6590102"><ele>0.0</ele><time>2026-04-29T19:51:33.013Z</time></trkpt><trkpt lat="38.9916245" lon="0.6590518"><ele>0.0</ele><time>2026-04-29T19:51:34.013Z</time></trkpt><trkpt lat="38.9917052" lon="0.6590819"><ele>0.0</ele><time>2026-04-29T19:51:35.014Z</time></trkpt><trkpt lat="38.9917862" lon="0.659119"><ele>0.0</ele><time>2026-04-29T19:51:36.014Z</time></trkpt><trkpt lat="38.9918636" lon="0.6591576"><ele>0.0</ele><time>2026-04-29T19:51:37.014Z</time></trkpt><trkpt lat="38.9919449" lon="0.6592048"><ele>0.0</ele><time>2026-04-29T19:51:38.013Z</time></trkpt><trkpt lat="38.9920193" lon="0.6592441"><ele>0.0</ele><time>2026-04-29T19:51:39.013Z</time></trkpt><trkpt lat="38.9921635" lon="0.6592981"><ele>0.0</ele><time>2026-04-29T19:51:41.014Z</time></trkpt><trkpt lat="38.9922394" lon="0.6593276"><ele>0.0</ele><time>2026-04-29T19:51:42.013Z</time></trkpt><trkpt lat="38.9923255" lon="0.6593697"><ele>0.0</ele><time>2026-04-29T19:51:43.013Z</time></trkpt><trkpt lat="38.992408" lon="0.6594205"><ele>0.0</ele><time>2026-04-29T19:51:44.013Z</time></trkpt><trkpt lat="38.9924884" lon="0.6595074"><ele>0.0</ele><time>2026-04-29T19:51:45.014Z</time></trkpt><trkpt lat="38.9925713" lon="0.6595572"><ele>0.0</ele><time>2026-04-29T19:51:46.013Z</time></trkpt><trkpt lat="38.9926518" lon="0.6596041"><ele>0.0</ele><time>2026-04-29T19:51:47.013Z</time></trkpt><trkpt lat="38.9927333" lon="0.6596424"><ele>0.0</ele><time>2026-04-29T19:51:48.014Z</time></trkpt><trkpt lat="38.9928119" lon="0.659689"><ele>0.0</ele><time>2026-04-29T19:51:49.013Z</time></trkpt><trkpt lat="38.9928901" lon="0.6597322"><ele>0.0</ele><time>2026-04-29T19:51:50.014Z</time></trkpt><trkpt lat="38.992973" lon="0.6597757"><ele>0.0</ele><time>2026-04-29T19:51:51.014Z</time></trkpt><trkpt lat="38.9930535" lon="0.6598086"><ele>0.0</ele><time>2026-04-29T19:51:52.014Z</time></trkpt><trkpt lat="38.9931289" lon="0.6598417"><ele>0.0</ele><time>2026-04-29T19:51:53.013Z</time></trkpt><trkpt lat="38.9932096" lon="0.6598696"><ele>0.0</ele><time>2026-04-29T19:51:54.013Z</time></trkpt><trkpt lat="38.9932926" lon="0.6599041"><ele>0.0</ele><time>2026-04-29T19:51:55.013Z</time></trkpt><trkpt lat="38.9933762" lon="0.65994"><ele>0.0</ele><time>2026-04-29T19:51:56.013Z</time></trkpt><trkpt lat="38.9934611" lon="0.6599839"><ele>0.0</ele><time>2026-04-29T19:51:57.013Z</time></trkpt><trkpt lat="38.9935415" lon="0.6600227"><ele>0.0</ele><time>2026-04-29T19:51:58.014Z</time></trkpt><trkpt lat="38.9936215" lon="0.6600666"><ele>0.0</ele><time>2026-04-29T19:51:59.013Z</time></trkpt><trkpt lat="38.9937016" lon="0.660106"><ele>0.0</ele><time>2026-04-29T19:52:00.013Z</time></trkpt><trkpt lat="38.9938564" lon="0.6601897"><ele>0.0</ele><time>2026-04-29T19:52:02.013Z</time></trkpt><trkpt lat="38.9939437" lon="0.6602376"><ele>0.0</ele><time>2026-04-29T19:52:03.014Z</time></trkpt><trkpt lat="38.9940231" lon="0.6602815"><ele>0.0</ele><time>2026-04-29T19:52:04.013Z</time></trkpt><trkpt lat="38.9941003" lon="0.6603271"><ele>0.0</ele><time>2026-04-29T19:52:05.014Z</time></trkpt><trkpt lat="38.994184" lon="0.660376"><ele>0.0</ele><time>2026-04-29T19:52:06.013Z</time></trkpt><trkpt lat="38.9942677" lon="0.6604342"><ele>0.0</ele><time>2026-04-29T19:52:07.013Z</time></trkpt><trkpt lat="38.9943524" lon="0.6604745"><ele>0.0</ele><time>2026-04-29T19:52:08.013Z</time></trkpt><trkpt lat="38.994433" lon="0.6605176"><ele>0.0</ele><time>2026-04-29T19:52:09.013Z</time></trkpt><trkpt lat="38.9945086" lon="0.6605585"><ele>0.0</ele><time>2026-04-29T19:52:10.013Z</time></trkpt><trkpt lat="38.9945882" lon="0.6606002"><ele>0.0</ele><time>2026-04-29T19:52:11.014Z</time></trkpt><trkpt lat="38.9946683" lon="0.6606434"><ele>0.0</ele><time>2026-04-29T19:52:12.014Z</time></trkpt><trkpt lat="38.994753" lon="0.6606867"><ele>0.0</ele><time>2026-04-29T19:52:13.013Z</time></trkpt><trkpt lat="38.9948347" lon="0.6607249"><ele>0.0</ele><time>2026-04-29T19:52:14.013Z</time></trkpt><trkpt lat="38.994919" lon="0.6607628"><ele>0.0</ele><time>2026-04-29T19:52:15.013Z</time></trkpt><trkpt lat="38.9950055" lon="0.6608045"><ele>0.0</ele><time>2026-04-29T19:52:16.013Z</time></trkpt><trkpt lat="38.9950868" lon="0.6608433"><ele>0.0</ele><time>2026-04-29T19:52:17.013Z</time></trkpt><trkpt lat="38.9951594" lon="0.6608915"><ele>0.0</ele><time>2026-04-29T19:52:18.013Z</time></trkpt><trkpt lat="38.9952398" lon="0.6609345"><ele>0.0</ele><time>2026-04-29T19:52:19.014Z</time></trkpt><trkpt lat="38.9953197" lon="0.660976"><ele>0.0</ele><time>2026-04-29T19:52:20.013Z</time></trkpt><trkpt lat="38.9953956" lon="0.6610179"><ele>0.0</ele><time>2026-04-29T19:52:21.014Z</time></trkpt><trkpt lat="38.9954761" lon="0.6610585"><ele>0.0</ele><time>2026-04-29T19:52:22.013Z</time></trkpt><trkpt lat="38.9956452" lon="0.6611351"><ele>0.0</ele><time>2026-04-29T19:52:24.014Z</time></trkpt><trkpt lat="38.9957305" lon="0.6611776"><ele>0.0</ele><time>2026-04-29T19:52:25.014Z</time></trkpt><trkpt lat="38.9958142" lon="0.6612198"><ele>0.0</ele><time>2026-04-29T19:52:26.013Z</time></trkpt><trkpt lat="38.9958934" lon="0.6612633"><ele>0.0</ele><time>2026-04-29T19:52:27.013Z</time></trkpt><trkpt lat="38.9959648" lon="0.6613169"><ele>0.0</ele><time>2026-04-29T19:52:28.013Z</time></trkpt><trkpt lat="38.9960434" lon="0.661366"><ele>0.0</ele><time>2026-04-29T19:52:29.013Z</time></trkpt><trkpt lat="38.9961218" lon="0.6614053"><ele>0.0</ele><time>2026-04-29T19:52:30.013Z</time></trkpt><trkpt lat="38.9961916" lon="0.6614432"><ele>0.0</ele><time>2026-04-29T19:52:31.013Z</time></trkpt><trkpt lat="38.9962724" lon="0.6614843"><ele>0.0</ele><time>2026-04-29T19:52:32.013Z</time></trkpt><trkpt lat="38.9963528" lon="0.6615204"><ele>0.0</ele><time>2026-04-29T19:52:33.014Z</time></trkpt><trkpt lat="38.9964333" lon="0.6615597"><ele>0.0</ele><time>2026-04-29T19:52:34.013Z</time></trkpt><trkpt lat="38.9965118" lon="0.6616004"><ele>0.0</ele><time>2026-04-29T19:52:35.014Z</time></trkpt><trkpt lat="38.9965885" lon="0.6616404"><ele>0.0</ele><time>2026-04-29T19:52:36.013Z</time></trkpt><trkpt lat="38.9966654" lon="0.6616824"><ele>0.0</ele><time>2026-04-29T19:52:37.013Z</time></trkpt><trkpt lat="38.9967502" lon="0.6617098"><ele>0.0</ele><time>2026-04-29T19:52:38.013Z</time></trkpt><trkpt lat="38.9968327" lon="0.6617507"><ele>0.0</ele><time>2026-04-29T19:52:39.013Z</time></trkpt><trkpt lat="38.9969185" lon="0.661805"><ele>0.0</ele><time>2026-04-29T19:52:40.013Z</time></trkpt><trkpt lat="38.9970012" lon="0.6618587"><ele>0.0</ele><time>2026-04-29T19:52:41.014Z</time></trkpt><trkpt lat="38.9970901" lon="0.6619019"><ele>0.0</ele><time>2026-04-29T19:52:42.013Z</time></trkpt><trkpt lat="38.9971829" lon="0.6619533"><ele>0.0</ele><time>2026-04-29T19:52:43.013Z</time></trkpt><trkpt lat="38.9973558" lon="0.6620794"><ele>0.0</ele><time>2026-04-29T19:52:45.013Z</time></trkpt><trkpt lat="38.9974269" lon="0.6621357"><ele>0.0</ele><time>2026-04-29T19:52:46.014Z</time></trkpt><trkpt lat="38.9975026" lon="0.6621902"><ele>0.0</ele><time>2026-04-29T19:52:47.013Z</time></trkpt><trkpt lat="38.997585" lon="0.6622449"><ele>0.0</ele><time>2026-04-29T19:52:48.013Z</time></trkpt><trkpt lat="38.9976667" lon="0.6622875"><ele>0.0</ele><time>2026-04-29T19:52:49.013Z</time></trkpt><trkpt lat="38.997738" lon="0.6623254"><ele>0.0</ele><time>2026-04-29T19:52:50.013Z</time></trkpt><trkpt lat="38.9978109" lon="0.6623653"><ele>0.0</ele><time>2026-04-29T19:52:51.013Z</time></trkpt><trkpt lat="38.9978858" lon="0.6623989"><ele>0.0</ele><time>2026-04-29T19:52:52.013Z</time></trkpt><trkpt lat="38.9979635" lon="0.662434"><ele>0.0</ele><time>2026-04-29T19:52:53.013Z</time></trkpt><trkpt lat="38.9980373" lon="0.6624636"><ele>0.0</ele><time>2026-04-29T19:52:54.013Z</time></trkpt><trkpt lat="38.9981152" lon="0.6624919"><ele>0.0</ele><time>2026-04-29T19:52:55.013Z</time></trkpt><trkpt lat="38.9981919" lon="0.6625241"><ele>0.0</ele><time>2026-04-29T19:52:56.013Z</time></trkpt><trkpt lat="38.9982728" lon="0.66257"><ele>0.0</ele><time>2026-04-29T19:52:57.013Z</time></trkpt><trkpt lat="38.9983589" lon="0.6626099"><ele>0.0</ele><time>2026-04-29T19:52:58.014Z</time></trkpt><trkpt lat="38.9984454" lon="0.6626552"><ele>0.0</ele><time>2026-04-29T19:52:59.014Z</time></trkpt><trkpt lat="38.9985321" lon="0.6627052"><ele>0.0</ele><time>2026-04-29T19:53:00.014Z</time></trkpt><trkpt lat="38.9986119" lon="0.662771"><ele>0.0</ele><time>2026-04-29T19:53:01.013Z</time></trkpt><trkpt lat="38.9986931" lon="0.6628322"><ele>0.0</ele><time>2026-04-29T19:53:02.013Z</time></trkpt><trkpt lat="38.9987761" lon="0.6628969"><ele>0.0</ele><time>2026-04-29T19:53:03.013Z</time></trkpt><trkpt lat="38.9988495" lon="0.6629334"><ele>0.0</ele><time>2026-04-29T19:53:04.013Z</time></trkpt><trkpt lat="38.9989942" lon="0.6630017"><ele>0.0</ele><time>2026-04-29T19:53:06.014Z</time></trkpt><trkpt lat="38.999073" lon="0.6630437"><ele>0.0</ele><time>2026-04-29T19:53:07.013Z</time></trkpt><trkpt lat="38.9991545" lon="0.6630886"><ele>0.0</ele><time>2026-04-29T19:53:08.013Z</time></trkpt><trkpt lat="38.9992408" lon="0.6631296"><ele>0.0</ele><time>2026-04-29T19:53:09.013Z</time></trkpt><trkpt lat="38.9993219" lon="0.6631703"><ele>0.0</ele><time>2026-04-29T19:53:10.013Z</time></trkpt><trkpt lat="38.9994076" lon="0.6632161"><ele>0.0</ele><time>2026-04-29T19:53:11.014Z</time></trkpt><trkpt lat="38.9994955" lon="0.6632635"><ele>0.0</ele><time>2026-04-29T19:53:12.014Z</time></trkpt><trkpt lat="38.9995751" lon="0.6633085"><ele>0.0</ele><time>2026-04-29T19:53:13.013Z</time></trkpt><trkpt lat="38.9996564" lon="0.6633518"><ele>0.0</ele><time>2026-04-29T19:53:14.014Z</time></trkpt><trkpt lat="38.9997393" lon="0.66337"><ele>0.0</ele><time>2026-04-29T19:53:15.014Z</time></trkpt><trkpt lat="38.9998185" lon="0.6634061"><ele>0.0</ele><time>2026-04-29T19:53:16.013Z</time></trkpt><trkpt lat="38.9999027" lon="0.6634342"><ele>0.0</ele><time>2026-04-29T19:53:17.014Z</time></trkpt><trkpt lat="38.9999805" lon="0.6634724"><ele>0.0</ele><time>2026-04-29T19:53:18.013Z</time></trkpt><trkpt lat="39.0000615" lon="0.6635148"><ele>0.0</ele><time>2026-04-29T19:53:19.014Z</time></trkpt><trkpt lat="39.0001461" lon="0.6635508"><ele>0.0</ele><time>2026-04-29T19:53:20.013Z</time></trkpt><trkpt lat="39.0002295" lon="0.6635935"><ele>0.0</ele><time>2026-04-29T19:53:21.014Z</time></trkpt><trkpt lat="39.0003158" lon="0.6636376"><ele>0.0</ele><time>2026-04-29T19:53:22.014Z</time></trkpt><trkpt lat="39.0003968" lon="0.6636926"><ele>0.0</ele><time>2026-04-29T19:53:23.013Z</time></trkpt><trkpt lat="39.0004738" lon="0.6637383"><ele>0.0</ele><time>2026-04-29T19:53:24.013Z</time></trkpt><trkpt lat="39.0005516" lon="0.6637824"><ele>0.0</ele><time>2026-04-29T19:53:25.014Z</time></trkpt><trkpt lat="39.0007079" lon="0.6638731"><ele>0.0</ele><time>2026-04-29T19:53:27.013Z</time></trkpt><trkpt lat="39.0007856" lon="0.6639153"><ele>0.0</ele><time>2026-04-29T19:53:28.013Z</time></trkpt><trkpt lat="39.0008696" lon="0.6639597"><ele>0.0</ele><time>2026-04-29T19:53:29.013Z</time></trkpt><trkpt lat="39.0009563" lon="0.6640048"><ele>0.0</ele><time>2026-04-29T19:53:30.013Z</time></trkpt><trkpt lat="39.0010371" lon="0.6640504"><ele>0.0</ele><time>2026-04-29T19:53:31.013Z</time></trkpt><trkpt lat="39.0011238" lon="0.6641054"><ele>0.0</ele><time>2026-04-29T19:53:32.013Z</time></trkpt><trkpt lat="39.0012051" lon="0.6641564"><ele>0.0</ele><time>2026-04-29T19:53:33.014Z</time></trkpt><trkpt lat="39.0012879" lon="0.6642134"><ele>0.0</ele><time>2026-04-29T19:53:34.014Z</time></trkpt><trkpt lat="39.0013652" lon="0.6642716"><ele>0.0</ele><time>2026-04-29T19:53:35.013Z</time></trkpt><trkpt lat="39.0014508" lon="0.664312"><ele>0.0</ele><time>2026-04-29T19:53:36.014Z</time></trkpt><trkpt lat="39.0015359" lon="0.6643478"><ele>0.0</ele><time>2026-04-29T19:53:37.014Z</time></trkpt><trkpt lat="39.0016182" lon="0.6643912"><ele>0.0</ele><time>2026-04-29T19:53:38.014Z</time></trkpt><trkpt lat="39.0017" lon="0.6644323"><ele>0.0</ele><time>2026-04-29T19:53:39.013Z</time></trkpt><trkpt lat="39.0017873" lon="0.6644704"><ele>0.0</ele><time>2026-04-29T19:53:40.014Z</time></trkpt><trkpt lat="39.0018698" lon="0.6645101"><ele>0.0</ele><time>2026-04-29T19:53:41.014Z</time></trkpt><trkpt lat="39.0019431" lon="0.6645458"><ele>0.0</ele><time>2026-04-29T19:53:42.013Z</time></trkpt><trkpt lat="39.0020216" lon="0.6645866"><ele>0.0</ele><time>2026-04-29T19:53:43.013Z</time></trkpt><trkpt lat="39.0020949" lon="0.6646223"><ele>0.0</ele><time>2026-04-29T19:53:44.013Z</time></trkpt><trkpt lat="39.0021677" lon="0.6646649"><ele>0.0</ele><time>2026-04-29T19:53:45.014Z</time></trkpt><trkpt lat="39.0022426" lon="0.6647049"><ele>0.0</ele><time>2026-04-29T19:53:46.013Z</time></trkpt><trkpt lat="39.0023248" lon="0.6647427"><ele>0.0</ele><time>2026-04-29T19:53:47.014Z</time></trkpt><trkpt lat="39.0024836" lon="0.6648275"><ele>0.0</ele><time>2026-04-29T19:53:49.014Z</time></trkpt><trkpt lat="39.0025631" lon="0.6648715"><ele>0.0</ele><time>2026-04-29T19:53:50.013Z</time></trkpt><trkpt lat="39.0026445" lon="0.6649174"><ele>0.0</ele><time>2026-04-29T19:53:51.014Z</time></trkpt><trkpt lat="39.0027235" lon="0.6649506"><ele>0.0</ele><time>2026-04-29T19:53:52.013Z</time></trkpt><trkpt lat="39.0028036" lon="0.6649868"><ele>0.0</ele><time>2026-04-29T19:53:53.014Z</time></trkpt><trkpt lat="39.0028808" lon="0.6650287"><ele>0.0</ele><time>2026-04-29T19:53:54.014Z</time></trkpt><trkpt lat="39.0029573" lon="0.6650718"><ele>0.0</ele><time>2026-04-29T19:53:55.014Z</time></trkpt><trkpt lat="39.0030266" lon="0.6651124"><ele>0.0</ele><time>2026-04-29T19:53:56.013Z</time></trkpt><trkpt lat="39.0031063" lon="0.6651535"><ele>0.0</ele><time>2026-04-29T19:53:57.014Z</time></trkpt><trkpt lat="39.003185" lon="0.6651967"><ele>0.0</ele><time>2026-04-29T19:53:58.014Z</time></trkpt><trkpt lat="39.0032705" lon="0.6652253"><ele>0.0</ele><time>2026-04-29T19:53:59.013Z</time></trkpt><trkpt lat="39.003354" lon="0.6652682"><ele>0.0</ele><time>2026-04-29T19:54:00.013Z</time></trkpt><trkpt lat="39.0034316" lon="0.6653118"><ele>0.0</ele><time>2026-04-29T19:54:01.013Z</time></trkpt><trkpt lat="39.0035098" lon="0.6653484"><ele>0.0</ele><time>2026-04-29T19:54:02.013Z</time></trkpt><trkpt lat="39.0035884" lon="0.6653963"><ele>0.0</ele><time>2026-04-29T19:54:03.013Z</time></trkpt><trkpt lat="39.0036638" lon="0.6654384"><ele>0.0</ele><time>2026-04-29T19:54:04.013Z</time></trkpt><trkpt lat="39.0037445" lon="0.6654826"><ele>0.0</ele><time>2026-04-29T19:54:05.014Z</time></trkpt><trkpt lat="39.0038204" lon="0.6655265"><ele>0.0</ele><time>2026-04-29T19:54:06.014Z</time></trkpt><trkpt lat="39.0039026" lon="0.6655755"><ele>0.0</ele><time>2026-04-29T19:54:07.014Z</time></trkpt><trkpt lat="39.003986" lon="0.6656268"><ele>0.0</ele><time>2026-04-29T19:54:08.014Z</time></trkpt><trkpt lat="39.0041454" lon="0.6657131"><ele>0.0</ele><time>2026-04-29T19:54:10.013Z</time></trkpt><trkpt lat="39.0042276" lon="0.6657618"><ele>0.0</ele><time>2026-04-29T19:54:11.013Z</time></trkpt><trkpt lat="39.0043186" lon="0.6658244"><ele>0.0</ele><time>2026-04-29T19:54:12.013Z</time></trkpt><trkpt lat="39.0044015" lon="0.6658893"><ele>0.0</ele><time>2026-04-29T19:54:13.013Z</time></trkpt><trkpt lat="39.0044844" lon="0.6659471"><ele>0.0</ele><time>2026-04-29T19:54:14.013Z</time></trkpt><trkpt lat="39.0045649" lon="0.6660161"><ele>0.0</ele><time>2026-04-29T19:54:15.013Z</time></trkpt><trkpt lat="39.0046407" lon="0.6660494"><ele>0.0</ele><time>2026-04-29T19:54:16.013Z</time></trkpt><trkpt lat="39.0047155" lon="0.6660779"><ele>0.0</ele><time>2026-04-29T19:54:17.013Z</time></trkpt><trkpt lat="39.0047964" lon="0.6661086"><ele>0.0</ele><time>2026-04-29T19:54:18.013Z</time></trkpt><trkpt lat="39.0048793" lon="0.6661421"><ele>0.0</ele><time>2026-04-29T19:54:19.013Z</time></trkpt><trkpt lat="39.0049657" lon="0.6661725"><ele>0.0</ele><time>2026-04-29T19:54:20.013Z</time></trkpt><trkpt lat="39.0050466" lon="0.6662039"><ele>0.0</ele><time>2026-04-29T19:54:21.013Z</time></trkpt><trkpt lat="39.0051252" lon="0.6662426"><ele>0.0</ele><time>2026-04-29T19:54:22.013Z</time></trkpt><trkpt lat="39.0052075" lon="0.6662839"><ele>0.0</ele><time>2026-04-29T19:54:23.013Z</time></trkpt><trkpt lat="39.0052897" lon="0.6663308"><ele>0.0</ele><time>2026-04-29T19:54:24.013Z</time></trkpt><trkpt lat="39.0053684" lon="0.6663766"><ele>0.0</ele><time>2026-04-29T19:54:25.013Z</time></trkpt><trkpt lat="39.0054479" lon="0.6664181"><ele>0.0</ele><time>2026-04-29T19:54:26.013Z</time></trkpt><trkpt lat="39.0055309" lon="0.6664647"><ele>0.0</ele><time>2026-04-29T19:54:27.013Z</time></trkpt><trkpt lat="39.0056115" lon="0.6665055"><ele>0.0</ele><time>2026-04-29T19:54:28.013Z</time></trkpt><trkpt lat="39.0056918" lon="0.6665506"><ele>0.0</ele><time>2026-04-29T19:54:29.014Z</time></trkpt><trkpt lat="39.0057761" lon="0.6665967"><ele>0.0</ele><time>2026-04-29T19:54:30.014Z</time></trkpt><trkpt lat="39.0059379" lon="0.666689"><ele>0.0</ele><time>2026-04-29T19:54:32.014Z</time></trkpt><trkpt lat="39.0060165" lon="0.6667376"><ele>0.0</ele><time>2026-04-29T19:54:33.013Z</time></trkpt><trkpt lat="39.0060932" lon="0.6667935"><ele>0.0</ele><time>2026-04-29T19:54:34.014Z</time></trkpt><trkpt lat="39.0061674" lon="0.6668465"><ele>0.0</ele><time>2026-04-29T19:54:35.013Z</time></trkpt><trkpt lat="39.0062465" lon="0.6668878"><ele>0.0</ele><time>2026-04-29T19:54:36.013Z</time></trkpt><trkpt lat="39.006324" lon="0.6669215"><ele>0.0</ele><time>2026-04-29T19:54:37.013Z</time></trkpt><trkpt lat="39.006402" lon="0.6669615"><ele>0.0</ele><time>2026-04-29T19:54:38.013Z</time></trkpt><trkpt lat="39.006473" lon="0.666991"><ele>0.0</ele><time>2026-04-29T19:54:39.014Z</time></trkpt><trkpt lat="39.0065504" lon="0.6670231"><ele>0.0</ele><time>2026-04-29T19:54:40.013Z</time></trkpt><trkpt lat="39.0066217" lon="0.6670575"><ele>0.0</ele><time>2026-04-29T19:54:41.013Z</time></trkpt><trkpt lat="39.0066931" lon="0.667094"><ele>0.0</ele><time>2026-04-29T19:54:42.013Z</time></trkpt><trkpt lat="39.0067674" lon="0.6671399"><ele>0.0</ele><time>2026-04-29T19:54:43.013Z</time></trkpt><trkpt lat="39.0068479" lon="0.6671755"><ele>0.0</ele><time>2026-04-29T19:54:44.013Z</time></trkpt><trkpt lat="39.0069295" lon="0.667214"><ele>0.0</ele><time>2026-04-29T19:54:45.014Z</time></trkpt><trkpt lat="39.0070113" lon="0.6672637"><ele>0.0</ele><time>2026-04-29T19:54:46.014Z</time></trkpt><trkpt lat="39.0070973" lon="0.6672993"><ele>0.0</ele><time>2026-04-29T19:54:47.013Z</time></trkpt><trkpt lat="39.0071825" lon="0.6673341"><ele>0.0</ele><time>2026-04-29T19:54:48.014Z</time></trkpt><trkpt lat="39.007273" lon="0.6673786"><ele>0.0</ele><time>2026-04-29T19:54:49.013Z</time></trkpt><trkpt lat="39.0073548" lon="0.6674228"><ele>0.0</ele><time>2026-04-29T19:54:50.014Z</time></trkpt><trkpt lat="39.0074367" lon="0.6674682"><ele>0.0</ele><time>2026-04-29T19:54:51.014Z</time></trkpt><trkpt lat="39.0076027" lon="0.6675661"><ele>0.0</ele><time>2026-04-29T19:54:53.014Z</time></trkpt><trkpt lat="39.007683" lon="0.667621"><ele>0.0</ele><time>2026-04-29T19:54:54.014Z</time></trkpt><trkpt lat="39.0077633" lon="0.6676744"><ele>0.0</ele><time>2026-04-29T19:54:55.013Z</time></trkpt><trkpt lat="39.0078364" lon="0.6677222"><ele>0.0</ele><time>2026-04-29T19:54:56.014Z</time></trkpt><trkpt lat="39.0079123" lon="0.6677763"><ele>0.0</ele><time>2026-04-29T19:54:57.013Z</time></trkpt><trkpt lat="39.0079843" lon="0.6678268"><ele>0.0</ele><time>2026-04-29T19:54:58.013Z</time></trkpt><trkpt lat="39.0080604" lon="0.6678779"><ele>0.0</ele><time>2026-04-29T19:54:59.013Z</time></trkpt><trkpt lat="39.0081368" lon="0.6679277"><ele>0.0</ele><time>2026-04-29T19:55:00.014Z</time></trkpt><trkpt lat="39.0082178" lon="0.6679743"><ele>0.0</ele><time>2026-04-29T19:55:01.014Z</time></trkpt><trkpt lat="39.0083037" lon="0.668022"><ele>0.0</ele><time>2026-04-29T19:55:02.014Z</time></trkpt><trkpt lat="39.0083889" lon="0.6680672"><ele>0.0</ele><time>2026-04-29T19:55:03.014Z</time></trkpt><trkpt lat="39.0084669" lon="0.6681066"><ele>0.0</ele><time>2026-04-29T19:55:04.014Z</time></trkpt><trkpt lat="39.0085478" lon="0.6681459"><ele>0.0</ele><time>2026-04-29T19:55:05.014Z</time></trkpt><trkpt lat="39.0086262" lon="0.6681889"><ele>0.0</ele><time>2026-04-29T19:55:06.014Z</time></trkpt><trkpt lat="39.0087032" lon="0.6682365"><ele>0.0</ele><time>2026-04-29T19:55:07.013Z</time></trkpt><trkpt lat="39.0087801" lon="0.6682713"><ele>0.0</ele><time>2026-04-29T19:55:08.013Z</time></trkpt><trkpt lat="39.0088612" lon="0.6683097"><ele>0.0</ele><time>2026-04-29T19:55:09.013Z</time></trkpt><trkpt lat="39.0089441" lon="0.6683443"><ele>0.0</ele><time>2026-04-29T19:55:10.013Z</time></trkpt><trkpt lat="39.0090257" lon="0.6683827"><ele>0.0</ele><time>2026-04-29T19:55:11.014Z</time></trkpt><trkpt lat="39.0091078" lon="0.668429"><ele>0.0</ele><time>2026-04-29T19:55:12.013Z</time></trkpt><trkpt lat="39.0092755" lon="0.6685107"><ele>0.0</ele><time>2026-04-29T19:55:14.013Z</time></trkpt><trkpt lat="39.0093565" lon="0.668548"><ele>0.0</ele><time>2026-04-29T19:55:15.013Z</time></trkpt><trkpt lat="39.0094365" lon="0.6685853"><ele>0.0</ele><time>2026-04-29T19:55:16.014Z</time></trkpt><trkpt lat="39.0095124" lon="0.6686241"><ele>0.0</ele><time>2026-04-29T19:55:17.014Z</time></trkpt><trkpt lat="39.009596" lon="0.6686666"><ele>0.0</ele><time>2026-04-29T19:55:18.014Z</time></trkpt><trkpt lat="39.009673" lon="0.668713"><ele>0.0</ele><time>2026-04-29T19:55:19.013Z</time></trkpt><trkpt lat="39.0097529" lon="0.6687582"><ele>0.0</ele><time>2026-04-29T19:55:20.014Z</time></trkpt><trkpt lat="39.0098402" lon="0.6688009"><ele>0.0</ele><time>2026-04-29T19:55:21.014Z</time></trkpt><trkpt lat="39.0099214" lon="0.6688455"><ele>0.0</ele><time>2026-04-29T19:55:22.013Z</time></trkpt><trkpt lat="39.0100044" lon="0.6688818"><ele>0.0</ele><time>2026-04-29T19:55:23.014Z</time></trkpt><trkpt lat="39.0100886" lon="0.6689327"><ele>0.0</ele><time>2026-04-29T19:55:24.014Z</time></trkpt><trkpt lat="39.0101723" lon="0.6689859"><ele>0.0</ele><time>2026-04-29T19:55:25.013Z</time></trkpt><trkpt lat="39.0102573" lon="0.6690372"><ele>0.0</ele><time>2026-04-29T19:55:26.013Z</time></trkpt><trkpt lat="39.0103438" lon="0.6690734"><ele>0.0</ele><time>2026-04-29T19:55:27.014Z</time></trkpt><trkpt lat="39.0104305" lon="0.6691119"><ele>0.0</ele><time>2026-04-29T19:55:28.014Z</time></trkpt><trkpt lat="39.0105133" lon="0.669155"><ele>0.0</ele><time>2026-04-29T19:55:29.013Z</time></trkpt><trkpt lat="39.010592" lon="0.6691854"><ele>0.0</ele><time>2026-04-29T19:55:30.014Z</time></trkpt><trkpt lat="39.0106746" lon="0.6692324"><ele>0.0</ele><time>2026-04-29T19:55:31.013Z</time></trkpt><trkpt lat="39.0107537" lon="0.6692812"><ele>0.0</ele><time>2026-04-29T19:55:32.013Z</time></trkpt><trkpt lat="39.0108347" lon="0.6693326"><ele>0.0</ele><time>2026-04-29T19:55:33.013Z</time></trkpt><trkpt lat="39.0109836" lon="0.6694183"><ele>0.0</ele><time>2026-04-29T19:55:35.014Z</time></trkpt><trkpt lat="39.0110621" lon="0.6694535"><ele>0.0</ele><time>2026-04-29T19:55:36.014Z</time></trkpt><trkpt lat="39.0111433" lon="0.6694916"><ele>0.0</ele><time>2026-04-29T19:55:37.014Z</time></trkpt><trkpt lat="39.0112192" lon="0.6695269"><ele>0.0</ele><time>2026-04-29T19:55:38.013Z</time></trkpt><trkpt lat="39.0112938" lon="0.6695636"><ele>0.0</ele><time>2026-04-29T19:55:39.012Z</time></trkpt><trkpt lat="39.0113704" lon="0.6696001"><ele>0.0</ele><time>2026-04-29T19:55:40.012Z</time></trkpt><trkpt lat="39.011451" lon="0.6696397"><ele>0.0</ele><time>2026-04-29T19:55:41.012Z</time></trkpt><trkpt lat="39.0115287" lon="0.6696824"><ele>0.0</ele><time>2026-04-29T19:55:42.013Z</time></trkpt><trkpt lat="39.0116112" lon="0.6697253"><ele>0.0</ele><time>2026-04-29T19:55:43.012Z</time></trkpt><trkpt lat="39.011689" lon="0.6697676"><ele>0.0</ele><time>2026-04-29T19:55:44.012Z</time></trkpt><trkpt lat="39.011767" lon="0.669812"><ele>0.0</ele><time>2026-04-29T19:55:45.013Z</time></trkpt><trkpt lat="39.0118451" lon="0.6698586"><ele>0.0</ele><time>2026-04-29T19:55:46.012Z</time></trkpt><trkpt lat="39.0119221" lon="0.6699024"><ele>0.0</ele><time>2026-04-29T19:55:47.012Z</time></trkpt><trkpt lat="39.012006" lon="0.6699555"><ele>0.0</ele><time>2026-04-29T19:55:48.012Z</time></trkpt><trkpt lat="39.0120936" lon="0.6699952"><ele>0.0</ele><time>2026-04-29T19:55:49.012Z</time></trkpt><trkpt lat="39.0121779" lon="0.6700422"><ele>0.0</ele><time>2026-04-29T19:55:50.013Z</time></trkpt><trkpt lat="39.0122572" lon="0.6700881"><ele>0.0</ele><time>2026-04-29T19:55:51.013Z</time></trkpt><trkpt lat="39.012328" lon="0.6701392"><ele>0.0</ele><time>2026-04-29T19:55:52.012Z</time></trkpt><trkpt lat="39.0124049" lon="0.6701941"><ele>0.0</ele><time>2026-04-29T19:55:53.013Z</time></trkpt><trkpt lat="39.0124875" lon="0.6702401"><ele>0.0</ele><time>2026-04-29T19:55:54.013Z</time></trkpt><trkpt lat="39.0126591" lon="0.6703344"><ele>0.0</ele><time>2026-04-29T19:55:56.012Z</time></trkpt><trkpt lat="39.0127414" lon="0.6703868"><ele>0.0</ele><time>2026-04-29T19:55:57.013Z</time></trkpt><trkpt lat="39.0128182" lon="0.6704424"><ele>0.0</ele><time>2026-04-29T19:55:58.012Z</time></trkpt><trkpt lat="39.0128963" lon="0.6704933"><ele>0.0</ele><time>2026-04-29T19:55:59.012Z</time></trkpt><trkpt lat="39.0129736" lon="0.6705465"><ele>0.0</ele><time>2026-04-29T19:56:00.012Z</time></trkpt><trkpt lat="39.0130501" lon="0.6705964"><ele>0.0</ele><time>2026-04-29T19:56:01.012Z</time></trkpt><trkpt lat="39.0131253" lon="0.6706396"><ele>0.0</ele><time>2026-04-29T19:56:02.013Z</time></trkpt><trkpt lat="39.0132077" lon="0.6706917"><ele>0.0</ele><time>2026-04-29T19:56:03.013Z</time></trkpt><trkpt lat="39.0132869" lon="0.670734"><ele>0.0</ele><time>2026-04-29T19:56:04.013Z</time></trkpt><trkpt lat="39.0133698" lon="0.6707719"><ele>0.0</ele><time>2026-04-29T19:56:05.012Z</time></trkpt><trkpt lat="39.0134487" lon="0.6708098"><ele>0.0</ele><time>2026-04-29T19:56:06.013Z</time></trkpt><trkpt lat="39.0135301" lon="0.6708489"><ele>0.0</ele><time>2026-04-29T19:56:07.012Z</time></trkpt><trkpt lat="39.0136075" lon="0.6708868"><ele>0.0</ele><time>2026-04-29T19:56:08.013Z</time></trkpt><trkpt lat="39.0136796" lon="0.6709258"><ele>0.0</ele><time>2026-04-29T19:56:09.012Z</time></trkpt><trkpt lat="39.0137597" lon="0.6709673"><ele>0.0</ele><time>2026-04-29T19:56:10.012Z</time></trkpt><trkpt lat="39.013838" lon="0.6709851"><ele>0.0</ele><time>2026-04-29T19:56:11.012Z</time></trkpt><trkpt lat="39.0139209" lon="0.6710325"><ele>0.0</ele><time>2026-04-29T19:56:12.013Z</time></trkpt><trkpt lat="39.0140045" lon="0.6710826"><ele>0.0</ele><time>2026-04-29T19:56:13.013Z</time></trkpt><trkpt lat="39.0140863" lon="0.6711455"><ele>0.0</ele><time>2026-04-29T19:56:14.012Z</time></trkpt><trkpt lat="39.0141636" lon="0.6711908"><ele>0.0</ele><time>2026-04-29T19:56:15.012Z</time></trkpt><trkpt lat="39.0143141" lon="0.6712966"><ele>0.0</ele><time>2026-04-29T19:56:17.013Z</time></trkpt><trkpt lat="39.014389" lon="0.6713568"><ele>0.0</ele><time>2026-04-29T19:56:18.012Z</time></trkpt><trkpt lat="39.0144598" lon="0.6714098"><ele>0.0</ele><time>2026-04-29T19:56:19.012Z</time></trkpt><trkpt lat="39.0145412" lon="0.6714666"><ele>0.0</ele><time>2026-04-29T19:56:20.013Z</time></trkpt><trkpt lat="39.0146214" lon="0.671512"><ele>0.0</ele><time>2026-04-29T19:56:21.012Z</time></trkpt><trkpt lat="39.0147029" lon="0.671552"><ele>0.0</ele><time>2026-04-29T19:56:22.012Z</time></trkpt><trkpt lat="39.0147846" lon="0.671593"><ele>0.0</ele><time>2026-04-29T19:56:23.013Z</time></trkpt><trkpt lat="39.0148691" lon="0.6716284"><ele>0.0</ele><time>2026-04-29T19:56:24.013Z</time></trkpt><trkpt lat="39.0149499" lon="0.6716686"><ele>0.0</ele><time>2026-04-29T19:56:25.012Z</time></trkpt><trkpt lat="39.0150313" lon="0.6717134"><ele>0.0</ele><time>2026-04-29T19:56:26.013Z</time></trkpt><trkpt lat="39.0151159" lon="0.6717591"><ele>0.0</ele><time>2026-04-29T19:56:27.012Z</time></trkpt><trkpt lat="39.015195" lon="0.6718031"><ele>0.0</ele><time>2026-04-29T19:56:28.012Z</time></trkpt><trkpt lat="39.015276" lon="0.6718446"><ele>0.0</ele><time>2026-04-29T19:56:29.012Z</time></trkpt><trkpt lat="39.0153594" lon="0.6718831"><ele>0.0</ele><time>2026-04-29T19:56:30.013Z</time></trkpt><trkpt lat="39.0154359" lon="0.6719254"><ele>0.0</ele><time>2026-04-29T19:56:31.012Z</time></trkpt><trkpt lat="39.0155124" lon="0.6719717"><ele>0.0</ele><time>2026-04-29T19:56:32.012Z</time></trkpt><trkpt lat="39.0155873" lon="0.6720099"><ele>0.0</ele><time>2026-04-29T19:56:33.013Z</time></trkpt><trkpt lat="39.0156652" lon="0.6720393"><ele>0.0</ele><time>2026-04-29T19:56:34.012Z</time></trkpt><trkpt lat="39.0157408" lon="0.672078"><ele>0.0</ele><time>2026-04-29T19:56:35.012Z</time></trkpt><trkpt lat="39.0158156" lon="0.6721099"><ele>0.0</ele><time>2026-04-29T19:56:36.012Z</time></trkpt><trkpt lat="39.0159006" lon="0.6721578"><ele>0.0</ele><time>2026-04-29T19:56:37.012Z</time></trkpt><trkpt lat="39.0160684" lon="0.6722476"><ele>0.0</ele><time>2026-04-29T19:56:39.012Z</time></trkpt><trkpt lat="39.0161429" lon="0.67228"><ele>0.0</ele><time>2026-04-29T19:56:40.012Z</time></trkpt><trkpt lat="39.0162204" lon="0.6723179"><ele>0.0</ele><time>2026-04-29T19:56:41.013Z</time></trkpt><trkpt lat="39.0163025" lon="0.6723622"><ele>0.0</ele><time>2026-04-29T19:56:42.012Z</time></trkpt><trkpt lat="39.0163858" lon="0.6724044"><ele>0.0</ele><time>2026-04-29T19:56:43.012Z</time></trkpt><trkpt lat="39.0164734" lon="0.6724693"><ele>0.0</ele><time>2026-04-29T19:56:44.012Z</time></trkpt><trkpt lat="39.0165601" lon="0.672532"><ele>0.0</ele><time>2026-04-29T19:56:45.012Z</time></trkpt><trkpt lat="39.0166398" lon="0.672581"><ele>0.0</ele><time>2026-04-29T19:56:46.012Z</time></trkpt><trkpt lat="39.0167182" lon="0.6726296"><ele>0.0</ele><time>2026-04-29T19:56:47.013Z</time></trkpt><trkpt lat="39.0168025" lon="0.6726555"><ele>0.0</ele><time>2026-04-29T19:56:48.013Z</time></trkpt><trkpt lat="39.0168832" lon="0.6726919"><ele>0.0</ele><time>2026-04-29T19:56:49.012Z</time></trkpt><trkpt lat="39.0169704" lon="0.6727338"><ele>0.0</ele><time>2026-04-29T19:56:50.012Z</time></trkpt><trkpt lat="39.0170506" lon="0.6727769"><ele>0.0</ele><time>2026-04-29T19:56:51.012Z</time></trkpt><trkpt lat="39.017129" lon="0.6728148"><ele>0.0</ele><time>2026-04-29T19:56:52.012Z</time></trkpt><trkpt lat="39.0172057" lon="0.6728694"><ele>0.0</ele><time>2026-04-29T19:56:53.012Z</time></trkpt><trkpt lat="39.0172796" lon="0.6729187"><ele>0.0</ele><time>2026-04-29T19:56:54.013Z</time></trkpt><trkpt lat="39.0173555" lon="0.6729718"><ele>0.0</ele><time>2026-04-29T19:56:55.013Z</time></trkpt><trkpt lat="39.0174323" lon="0.6730187"><ele>0.0</ele><time>2026-04-29T19:56:56.013Z</time></trkpt><trkpt lat="39.0175102" lon="0.6730537"><ele>0.0</ele><time>2026-04-29T19:56:57.012Z</time></trkpt><trkpt lat="39.0175916" lon="0.6730927"><ele>0.0</ele><time>2026-04-29T19:56:58.013Z</time></trkpt><trkpt lat="39.0177529" lon="0.6731718"><ele>0.0</ele><time>2026-04-29T19:57:00.013Z</time></trkpt><trkpt lat="39.0178322" lon="0.6732132"><ele>0.0</ele><time>2026-04-29T19:57:01.013Z</time></trkpt><trkpt lat="39.0179075" lon="0.6732521"><ele>0.0</ele><time>2026-04-29T19:57:02.012Z</time></trkpt><trkpt lat="39.0179799" lon="0.6732762"><ele>0.0</ele><time>2026-04-29T19:57:03.012Z</time></trkpt><trkpt lat="39.0180587" lon="0.6732938"><ele>0.0</ele><time>2026-04-29T19:57:04.012Z</time></trkpt><trkpt lat="39.0181428" lon="0.6733393"><ele>0.0</ele><time>2026-04-29T19:57:05.013Z</time></trkpt><trkpt lat="39.0182276" lon="0.6733892"><ele>0.0</ele><time>2026-04-29T19:57:06.012Z</time></trkpt><trkpt lat="39.0183097" lon="0.6734365"><ele>0.0</ele><time>2026-04-29T19:57:07.012Z</time></trkpt><trkpt lat="39.0183927" lon="0.6734776"><ele>0.0</ele><time>2026-04-29T19:57:08.013Z</time></trkpt><trkpt lat="39.0184731" lon="0.6735096"><ele>0.0</ele><time>2026-04-29T19:57:09.012Z</time></trkpt><trkpt lat="39.018552" lon="0.6735468"><ele>0.0</ele><time>2026-04-29T19:57:10.013Z</time></trkpt><trkpt lat="39.0186277" lon="0.6735938"><ele>0.0</ele><time>2026-04-29T19:57:11.012Z</time></trkpt><trkpt lat="39.0187055" lon="0.6736587"><ele>0.0</ele><time>2026-04-29T19:57:12.013Z</time></trkpt><trkpt lat="39.0187793" lon="0.6737056"><ele>0.0</ele><time>2026-04-29T19:57:13.013Z</time></trkpt><trkpt lat="39.0188569" lon="0.6737461"><ele>0.0</ele><time>2026-04-29T19:57:14.012Z</time></trkpt><trkpt lat="39.018938" lon="0.6737751"><ele>0.0</ele><time>2026-04-29T19:57:15.013Z</time></trkpt><trkpt lat="39.0190254" lon="0.6738203"><ele>0.0</ele><time>2026-04-29T19:57:16.013Z</time></trkpt><trkpt lat="39.0191109" lon="0.6738674"><ele>0.0</ele><time>2026-04-29T19:57:17.012Z</time></trkpt><trkpt lat="39.0191957" lon="0.6739123"><ele>0.0</ele><time>2026-04-29T19:57:18.013Z</time></trkpt><trkpt lat="39.0192666" lon="0.6739427"><ele>0.0</ele><time>2026-04-29T19:57:19.013Z</time></trkpt><trkpt lat="39.0194285" lon="0.6740342"><ele>0.0</ele><time>2026-04-29T19:57:21.013Z</time></trkpt><trkpt lat="39.0195113" lon="0.6740806"><ele>0.0</ele><time>2026-04-29T19:57:22.012Z</time></trkpt><trkpt lat="39.0195918" lon="0.6741201"><ele>0.0</ele><time>2026-04-29T19:57:23.012Z</time></trkpt><trkpt lat="39.0196704" lon="0.6741654"><ele>0.0</ele><time>2026-04-29T19:57:24.013Z</time></trkpt><trkpt lat="39.0197513" lon="0.6742137"><ele>0.0</ele><time>2026-04-29T19:57:25.013Z</time></trkpt><trkpt lat="39.0198296" lon="0.6742528"><ele>0.0</ele><time>2026-04-29T19:57:26.012Z</time></trkpt><trkpt lat="39.019911" lon="0.6742902"><ele>0.0</ele><time>2026-04-29T19:57:27.013Z</time></trkpt><trkpt lat="39.0199903" lon="0.6743303"><ele>0.0</ele><time>2026-04-29T19:57:28.013Z</time></trkpt><trkpt lat="39.0200719" lon="0.6743684"><ele>0.0</ele><time>2026-04-29T19:57:29.012Z</time></trkpt><trkpt lat="39.0201522" lon="0.6744078"><ele>0.0</ele><time>2026-04-29T19:57:30.012Z</time></trkpt><trkpt lat="39.0202306" lon="0.6744449"><ele>0.0</ele><time>2026-04-29T19:57:31.013Z</time></trkpt><trkpt lat="39.0203114" lon="0.6744842"><ele>0.0</ele><time>2026-04-29T19:57:32.012Z</time></trkpt><trkpt lat="39.0203888" lon="0.6745305"><ele>0.0</ele><time>2026-04-29T19:57:33.012Z</time></trkpt><trkpt lat="39.0204654" lon="0.674575"><ele>0.0</ele><time>2026-04-29T19:57:34.013Z</time></trkpt><trkpt lat="39.0205453" lon="0.6746126"><ele>0.0</ele><time>2026-04-29T19:57:35.012Z</time></trkpt><trkpt lat="39.0206195" lon="0.6746441"><ele>0.0</ele><time>2026-04-29T19:57:36.012Z</time></trkpt><trkpt lat="39.020693" lon="0.6746858"><ele>0.0</ele><time>2026-04-29T19:57:37.013Z</time></trkpt><trkpt lat="39.0207704" lon="0.6747372"><ele>0.0</ele><time>2026-04-29T19:57:38.013Z</time></trkpt><trkpt lat="39.0208487" lon="0.6747926"><ele>0.0</ele><time>2026-04-29T19:57:39.012Z</time></trkpt><trkpt lat="39.0209323" lon="0.674842"><ele>0.0</ele><time>2026-04-29T19:57:40.013Z</time></trkpt><trkpt lat="39.021013" lon="0.6748847"><ele>0.0</ele><time>2026-04-29T19:57:41.012Z</time></trkpt><trkpt lat="39.0211632" lon="0.6749687"><ele>0.0</ele><time>2026-04-29T19:57:43.012Z</time></trkpt><trkpt lat="39.0212433" lon="0.6749971"><ele>0.0</ele><time>2026-04-29T19:57:44.013Z</time></trkpt><trkpt lat="39.0213189" lon="0.6750313"><ele>0.0</ele><time>2026-04-29T19:57:45.013Z</time></trkpt><trkpt lat="39.0214038" lon="0.6750779"><ele>0.0</ele><time>2026-04-29T19:57:46.013Z</time></trkpt><trkpt lat="39.0214848" lon="0.6751214"><ele>0.0</ele><time>2026-04-29T19:57:47.012Z</time></trkpt><trkpt lat="39.0215622" lon="0.6751625"><ele>0.0</ele><time>2026-04-29T19:57:48.012Z</time></trkpt><trkpt lat="39.0216445" lon="0.6752063"><ele>0.0</ele><time>2026-04-29T19:57:49.012Z</time></trkpt><trkpt lat="39.0217247" lon="0.6752465"><ele>0.0</ele><time>2026-04-29T19:57:50.012Z</time></trkpt><trkpt lat="39.0217974" lon="0.6752867"><ele>0.0</ele><time>2026-04-29T19:57:51.012Z</time></trkpt><trkpt lat="39.0218746" lon="0.6753338"><ele>0.0</ele><time>2026-04-29T19:57:52.012Z</time></trkpt><trkpt lat="39.0219541" lon="0.6753653"><ele>0.0</ele><time>2026-04-29T19:57:53.013Z</time></trkpt><trkpt lat="39.022039" lon="0.6754087"><ele>0.0</ele><time>2026-04-29T19:57:54.012Z</time></trkpt><trkpt lat="39.0221215" lon="0.67546"><ele>0.0</ele><time>2026-04-29T19:57:55.012Z</time></trkpt><trkpt lat="39.0222045" lon="0.6755078"><ele>0.0</ele><time>2026-04-29T19:57:56.013Z</time></trkpt><trkpt lat="39.022295" lon="0.675555"><ele>0.0</ele><time>2026-04-29T19:57:57.012Z</time></trkpt><trkpt lat="39.0223824" lon="0.6756018"><ele>0.0</ele><time>2026-04-29T19:57:58.012Z</time></trkpt><trkpt lat="39.0224635" lon="0.675646"><ele>0.0</ele><time>2026-04-29T19:57:59.012Z</time></trkpt><trkpt lat="39.0225432" lon="0.6756977"><ele>0.0</ele><time>2026-04-29T19:58:00.012Z</time></trkpt><trkpt lat="39.0226218" lon="0.6757497"><ele>0.0</ele><time>2026-04-29T19:58:01.013Z</time></trkpt><trkpt lat="39.0227042" lon="0.6757976"><ele>0.0</ele><time>2026-04-29T19:58:02.012Z</time></trkpt><trkpt lat="39.0228605" lon="0.6758932"><ele>0.0</ele><time>2026-04-29T19:58:04.012Z</time></trkpt><trkpt lat="39.0229415" lon="0.6759352"><ele>0.0</ele><time>2026-04-29T19:58:05.012Z</time></trkpt><trkpt lat="39.0230243" lon="0.675971"><ele>0.0</ele><time>2026-04-29T19:58:06.012Z</time></trkpt><trkpt lat="39.0231076" lon="0.676003"><ele>0.0</ele><time>2026-04-29T19:58:07.013Z</time></trkpt><trkpt lat="39.0231897" lon="0.6760373"><ele>0.0</ele><time>2026-04-29T19:58:08.013Z</time></trkpt><trkpt lat="39.0232686" lon="0.6760711"><ele>0.0</ele><time>2026-04-29T19:58:09.012Z</time></trkpt><trkpt lat="39.023347" lon="0.6761116"><ele>0.0</ele><time>2026-04-29T19:58:10.012Z</time></trkpt><trkpt lat="39.0234295" lon="0.6761578"><ele>0.0</ele><time>2026-04-29T19:58:11.013Z</time></trkpt><trkpt lat="39.0235132" lon="0.6762033"><ele>0.0</ele><time>2026-04-29T19:58:12.012Z</time></trkpt><trkpt lat="39.0236766" lon="0.6762983"><ele>0.0</ele><time>2026-04-29T19:58:14.012Z</time></trkpt><trkpt lat="39.0237568" lon="0.6763482"><ele>0.0</ele><time>2026-04-29T19:58:15.013Z</time></trkpt><trkpt lat="39.0238339" lon="0.6763931"><ele>0.0</ele><time>2026-04-29T19:58:16.012Z</time></trkpt><trkpt lat="39.0239133" lon="0.6764677"><ele>0.0</ele><time>2026-04-29T19:58:17.012Z</time></trkpt><trkpt lat="39.0239844" lon="0.6765075"><ele>0.0</ele><time>2026-04-29T19:58:18.012Z</time></trkpt><trkpt lat="39.0240576" lon="0.6765483"><ele>0.0</ele><time>2026-04-29T19:58:19.013Z</time></trkpt><trkpt lat="39.0241296" lon="0.6765945"><ele>0.0</ele><time>2026-04-29T19:58:20.012Z</time></trkpt><trkpt lat="39.0242029" lon="0.6766397"><ele>0.0</ele><time>2026-04-29T19:58:21.013Z</time></trkpt><trkpt lat="39.0242778" lon="0.6766845"><ele>0.0</ele><time>2026-04-29T19:58:22.013Z</time></trkpt><trkpt lat="39.0243537" lon="0.6767202"><ele>0.0</ele><time>2026-04-29T19:58:23.013Z</time></trkpt><trkpt lat="39.0245151" lon="0.6767961"><ele>0.0</ele><time>2026-04-29T19:58:25.012Z</time></trkpt><trkpt lat="39.0245968" lon="0.6768298"><ele>0.0</ele><time>2026-04-29T19:58:26.012Z</time></trkpt><trkpt lat="39.0246853" lon="0.6768253"><ele>0.0</ele><time>2026-04-29T19:58:27.012Z</time></trkpt><trkpt lat="39.0247678" lon="0.6768502"><ele>0.0</ele><time>2026-04-29T19:58:28.013Z</time></trkpt><trkpt lat="39.0248567" lon="0.6768869"><ele>0.0</ele><time>2026-04-29T19:58:29.012Z</time></trkpt><trkpt lat="39.0249437" lon="0.6769266"><ele>0.0</ele><time>2026-04-29T19:58:30.012Z</time></trkpt><trkpt lat="39.0250273" lon="0.6769744"><ele>0.0</ele><time>2026-04-29T19:58:31.012Z</time></trkpt><trkpt lat="39.0251069" lon="0.6770204"><ele>0.0</ele><time>2026-04-29T19:58:32.012Z</time></trkpt><trkpt lat="39.025187" lon="0.6770658"><ele>0.0</ele><time>2026-04-29T19:58:33.012Z</time></trkpt><trkpt lat="39.0252667" lon="0.6771223"><ele>0.0</ele><time>2026-04-29T19:58:34.013Z</time></trkpt><trkpt lat="39.0253454" lon="0.67717"><ele>0.0</ele><time>2026-04-29T19:58:35.013Z</time></trkpt><trkpt lat="39.0254251" lon="0.6772115"><ele>0.0</ele><time>2026-04-29T19:58:36.013Z</time></trkpt><trkpt lat="39.0255019" lon="0.6772548"><ele>0.0</ele><time>2026-04-29T19:58:37.013Z</time></trkpt><trkpt lat="39.0255801" lon="0.6773008"><ele>0.0</ele><time>2026-04-29T19:58:38.012Z</time></trkpt><trkpt lat="39.025658" lon="0.6773403"><ele>0.0</ele><time>2026-04-29T19:58:39.012Z</time></trkpt><trkpt lat="39.0257366" lon="0.6773917"><ele>0.0</ele><time>2026-04-29T19:58:40.013Z</time></trkpt><trkpt lat="39.0258182" lon="0.6774377"><ele>0.0</ele><time>2026-04-29T19:58:41.013Z</time></trkpt><trkpt lat="39.0258998" lon="0.6774845"><ele>0.0</ele><time>2026-04-29T19:58:42.012Z</time></trkpt><trkpt lat="39.0259825" lon="0.6775278"><ele>0.0</ele><time>2026-04-29T19:58:43.013Z</time></trkpt><trkpt lat="39.026063" lon="0.6775752"><ele>0.0</ele><time>2026-04-29T19:58:44.012Z</time></trkpt><trkpt lat="39.0262198" lon="0.677667"><ele>0.0</ele><time>2026-04-29T19:58:46.013Z</time></trkpt><trkpt lat="39.0262983" lon="0.6777111"><ele>0.0</ele><time>2026-04-29T19:58:47.012Z</time></trkpt><trkpt lat="39.026378" lon="0.6777551"><ele>0.0</ele><time>2026-04-29T19:58:48.012Z</time></trkpt><trkpt lat="39.0264568" lon="0.6777983"><ele>0.0</ele><time>2026-04-29T19:58:49.012Z</time></trkpt><trkpt lat="39.0265327" lon="0.6778407"><ele>0.0</ele><time>2026-04-29T19:58:50.012Z</time></trkpt><trkpt lat="39.0266133" lon="0.6778881"><ele>0.0</ele><time>2026-04-29T19:58:51.013Z</time></trkpt><trkpt lat="39.0266952" lon="0.6779291"><ele>0.0</ele><time>2026-04-29T19:58:52.012Z</time></trkpt><trkpt lat="39.0267755" lon="0.6779778"><ele>0.0</ele><time>2026-04-29T19:58:53.012Z</time></trkpt><trkpt lat="39.0268548" lon="0.6780193"><ele>0.0</ele><time>2026-04-29T19:58:54.013Z</time></trkpt><trkpt lat="39.0269417" lon="0.6780683"><ele>0.0</ele><time>2026-04-29T19:58:55.012Z</time></trkpt><trkpt lat="39.0270298" lon="0.6781192"><ele>0.0</ele><time>2026-04-29T19:58:56.012Z</time></trkpt><trkpt lat="39.0271127" lon="0.6781561"><ele>0.0</ele><time>2026-04-29T19:58:57.012Z</time></trkpt><trkpt lat="39.0271903" lon="0.6781995"><ele>0.0</ele><time>2026-04-29T19:58:58.013Z</time></trkpt><trkpt lat="39.0272715" lon="0.67825"><ele>0.0</ele><time>2026-04-29T19:58:59.013Z</time></trkpt><trkpt lat="39.0273517" lon="0.6783099"><ele>0.0</ele><time>2026-04-29T19:59:00.013Z</time></trkpt><trkpt lat="39.0274286" lon="0.678363"><ele>0.0</ele><time>2026-04-29T19:59:01.013Z</time></trkpt><trkpt lat="39.0275011" lon="0.6784118"><ele>0.0</ele><time>2026-04-29T19:59:02.012Z</time></trkpt><trkpt lat="39.0275814" lon="0.678456"><ele>0.0</ele><time>2026-04-29T19:59:03.012Z</time></trkpt><trkpt lat="39.0276614" lon="0.6785039"><ele>0.0</ele><time>2026-04-29T19:59:04.013Z</time></trkpt><trkpt lat="39.0277385" lon="0.6785423"><ele>0.0</ele><time>2026-04-29T19:59:05.013Z</time></trkpt><trkpt lat="39.0278924" lon="0.6786277"><ele>0.0</ele><time>2026-04-29T19:59:07.012Z</time></trkpt><trkpt lat="39.0279688" lon="0.6786581"><ele>0.0</ele><time>2026-04-29T19:59:08.012Z</time></trkpt><trkpt lat="39.0280483" lon="0.6786954"><ele>0.0</ele><time>2026-04-29T19:59:09.012Z</time></trkpt><trkpt lat="39.0281327" lon="0.6787336"><ele>0.0</ele><time>2026-04-29T19:59:10.013Z</time></trkpt><trkpt lat="39.0282092" lon="0.678765"><ele>0.0</ele><time>2026-04-29T19:59:11.013Z</time></trkpt><trkpt lat="39.02829" lon="0.6787929"><ele>0.0</ele><time>2026-04-29T19:59:12.012Z</time></trkpt><trkpt lat="39.0283714" lon="0.6788335"><ele>0.0</ele><time>2026-04-29T19:59:13.012Z</time></trkpt><trkpt lat="39.0284489" lon="0.6788785"><ele>0.0</ele><time>2026-04-29T19:59:14.012Z</time></trkpt><trkpt lat="39.0285283" lon="0.6789308"><ele>0.0</ele><time>2026-04-29T19:59:15.013Z</time></trkpt><trkpt lat="39.028608" lon="0.6789895"><ele>0.0</ele><time>2026-04-29T19:59:16.013Z</time></trkpt><trkpt lat="39.028694" lon="0.679039"><ele>0.0</ele><time>2026-04-29T19:59:17.013Z</time></trkpt><trkpt lat="39.0287763" lon="0.6790874"><ele>0.0</ele><time>2026-04-29T19:59:18.012Z</time></trkpt><trkpt lat="39.0288569" lon="0.6791318"><ele>0.0</ele><time>2026-04-29T19:59:19.013Z</time></trkpt><trkpt lat="39.0289408" lon="0.679157"><ele>0.0</ele><time>2026-04-29T19:59:20.013Z</time></trkpt><trkpt lat="39.0290187" lon="0.6791962"><ele>0.0</ele><time>2026-04-29T19:59:21.013Z</time></trkpt><trkpt lat="39.0290982" lon="0.679242"><ele>0.0</ele><time>2026-04-29T19:59:22.013Z</time></trkpt><trkpt lat="39.0291727" lon="0.6792886"><ele>0.0</ele><time>2026-04-29T19:59:23.012Z</time></trkpt><trkpt lat="39.02925" lon="0.679337"><ele>0.0</ele><time>2026-04-29T19:59:24.012Z</time></trkpt><trkpt lat="39.0293315" lon="0.6793875"><ele>0.0</ele><time>2026-04-29T19:59:25.012Z</time></trkpt><trkpt lat="39.0294133" lon="0.6794377"><ele>0.0</ele><time>2026-04-29T19:59:26.013Z</time></trkpt><trkpt lat="39.0295733" lon="0.6795267"><ele>0.0</ele><time>2026-04-29T19:59:28.012Z</time></trkpt><trkpt lat="39.0296549" lon="0.6795779"><ele>0.0</ele><time>2026-04-29T19:59:29.012Z</time></trkpt><trkpt lat="39.0297365" lon="0.6796424"><ele>0.0</ele><time>2026-04-29T19:59:30.012Z</time></trkpt><trkpt lat="39.0298182" lon="0.6797035"><ele>0.0</ele><time>2026-04-29T19:59:31.012Z</time></trkpt><trkpt lat="39.0298985" lon="0.6797567"><ele>0.0</ele><time>2026-04-29T19:59:32.012Z</time></trkpt><trkpt lat="39.0299796" lon="0.6798066"><ele>0.0</ele><time>2026-04-29T19:59:33.013Z</time></trkpt><trkpt lat="39.0300643" lon="0.6798558"><ele>0.0</ele><time>2026-04-29T19:59:34.013Z</time></trkpt><trkpt lat="39.0301465" lon="0.6798986"><ele>0.0</ele><time>2026-04-29T19:59:35.012Z</time></trkpt><trkpt lat="39.0302225" lon="0.6799407"><ele>0.0</ele><time>2026-04-29T19:59:36.012Z</time></trkpt><trkpt lat="39.0302975" lon="0.6799789"><ele>0.0</ele><time>2026-04-29T19:59:37.013Z</time></trkpt><trkpt lat="39.0303796" lon="0.6800091"><ele>0.0</ele><time>2026-04-29T19:59:38.012Z</time></trkpt><trkpt lat="39.0304584" lon="0.6800413"><ele>0.0</ele><time>2026-04-29T19:59:39.012Z</time></trkpt><trkpt lat="39.0305381" lon="0.6800846"><ele>0.0</ele><time>2026-04-29T19:59:40.012Z</time></trkpt><trkpt lat="39.0306181" lon="0.6801333"><ele>0.0</ele><time>2026-04-29T19:59:41.013Z</time></trkpt><trkpt lat="39.0306968" lon="0.6801781"><ele>0.0</ele><time>2026-04-29T19:59:42.012Z</time></trkpt><trkpt lat="39.030775" lon="0.6802215"><ele>0.0</ele><time>2026-04-29T19:59:43.013Z</time></trkpt><trkpt lat="39.0308477" lon="0.6802547"><ele>0.0</ele><time>2026-04-29T19:59:44.012Z</time></trkpt><trkpt lat="39.0309312" lon="0.6803031"><ele>0.0</ele><time>2026-04-29T19:59:45.012Z</time></trkpt><trkpt lat="39.031016" lon="0.6803507"><ele>0.0</ele><time>2026-04-29T19:59:46.012Z</time></trkpt><trkpt lat="39.0310954" lon="0.6804004"><ele>0.0</ele><time>2026-04-29T19:59:47.013Z</time></trkpt><trkpt lat="39.0311793" lon="0.6804606"><ele>0.0</ele><time>2026-04-29T19:59:48.012Z</time></trkpt><trkpt lat="39.0313392" lon="0.6805285"><ele>0.0</ele><time>2026-04-29T19:59:50.013Z</time></trkpt><trkpt lat="39.0314185" lon="0.6805565"><ele>0.0</ele><time>2026-04-29T19:59:51.013Z</time></trkpt><trkpt lat="39.031497" lon="0.6805744"><ele>0.0</ele><time>2026-04-29T19:59:52.013Z</time></trkpt><trkpt lat="39.0315725" lon="0.680601"><ele>0.0</ele><time>2026-04-29T19:59:53.013Z</time></trkpt><trkpt lat="39.0316447" lon="0.6806249"><ele>0.0</ele><time>2026-04-29T19:59:54.013Z</time></trkpt><trkpt lat="39.0317192" lon="0.6806592"><ele>0.0</ele><time>2026-04-29T19:59:55.013Z</time></trkpt><trkpt lat="39.0317965" lon="0.6807017"><ele>0.0</ele><time>2026-04-29T19:59:56.012Z</time></trkpt><trkpt lat="39.0318769" lon="0.6807408"><ele>0.0</ele><time>2026-04-29T19:59:57.013Z</time></trkpt><trkpt lat="39.0319552" lon="0.6807848"><ele>0.0</ele><time>2026-04-29T19:59:58.012Z</time></trkpt><trkpt lat="39.0320377" lon="0.6808254"><ele>0.0</ele><time>2026-04-29T19:59:59.012Z</time></trkpt><trkpt lat="39.0321238" lon="0.68087"><ele>0.0</ele><time>2026-04-29T20:00:00.012Z</time></trkpt><trkpt lat="39.0322049" lon="0.6809136"><ele>0.0</ele><time>2026-04-29T20:00:01.013Z</time></trkpt><trkpt lat="39.0322866" lon="0.6809573"><ele>0.0</ele><time>2026-04-29T20:00:02.012Z</time></trkpt><trkpt lat="39.0323681" lon="0.6809996"><ele>0.0</ele><time>2026-04-29T20:00:03.012Z</time></trkpt><trkpt lat="39.032448" lon="0.6810431"><ele>0.0</ele><time>2026-04-29T20:00:04.013Z</time></trkpt><trkpt lat="39.0325294" lon="0.6810893"><ele>0.0</ele><time>2026-04-29T20:00:05.012Z</time></trkpt><trkpt lat="39.0326113" lon="0.6811361"><ele>0.0</ele><time>2026-04-29T20:00:06.013Z</time></trkpt><trkpt lat="39.0326946" lon="0.6811815"><ele>0.0</ele><time>2026-04-29T20:00:07.013Z</time></trkpt><trkpt lat="39.0327807" lon="0.6812219"><ele>0.0</ele><time>2026-04-29T20:00:08.013Z</time></trkpt><trkpt lat="39.0328647" lon="0.6812615"><ele>0.0</ele><time>2026-04-29T20:00:09.013Z</time></trkpt><trkpt lat="39.033036" lon="0.6813475"><ele>0.0</ele><time>2026-04-29T20:00:11.012Z</time></trkpt><trkpt lat="39.0331197" lon="0.6813911"><ele>0.0</ele><time>2026-04-29T20:00:12.013Z</time></trkpt><trkpt lat="39.0332015" lon="0.6814284"><ele>0.0</ele><time>2026-04-29T20:00:13.012Z</time></trkpt><trkpt lat="39.0332819" lon="0.6814653"><ele>0.0</ele><time>2026-04-29T20:00:14.013Z</time></trkpt><trkpt lat="39.0333575" lon="0.6815095"><ele>0.0</ele><time>2026-04-29T20:00:15.013Z</time></trkpt><trkpt lat="39.0334324" lon="0.6815295"><ele>0.0</ele><time>2026-04-29T20:00:16.013Z</time></trkpt><trkpt lat="39.0335086" lon="0.6815746"><ele>0.0</ele><time>2026-04-29T20:00:17.011Z</time></trkpt><trkpt lat="39.033582" lon="0.6816205"><ele>0.0</ele><time>2026-04-29T20:00:18.011Z</time></trkpt><trkpt lat="39.0336582" lon="0.6816693"><ele>0.0</ele><time>2026-04-29T20:00:19.011Z</time></trkpt><trkpt lat="39.0337397" lon="0.6817141"><ele>0.0</ele><time>2026-04-29T20:00:20.012Z</time></trkpt><trkpt lat="39.0338196" lon="0.6817577"><ele>0.0</ele><time>2026-04-29T20:00:21.011Z</time></trkpt><trkpt lat="39.0338981" lon="0.6818081"><ele>0.0</ele><time>2026-04-29T20:00:22.011Z</time></trkpt><trkpt lat="39.0339791" lon="0.6818595"><ele>0.0</ele><time>2026-04-29T20:00:23.011Z</time></trkpt><trkpt lat="39.0340581" lon="0.6819155"><ele>0.0</ele><time>2026-04-29T20:00:24.012Z</time></trkpt><trkpt lat="39.0341409" lon="0.6819836"><ele>0.0</ele><time>2026-04-29T20:00:25.011Z</time></trkpt><trkpt lat="39.0342245" lon="0.6820422"><ele>0.0</ele><time>2026-04-29T20:00:26.011Z</time></trkpt><trkpt lat="39.0343069" lon="0.6820889"><ele>0.0</ele><time>2026-04-29T20:00:27.011Z</time></trkpt><trkpt lat="39.0343828" lon="0.6821392"><ele>0.0</ele><time>2026-04-29T20:00:28.011Z</time></trkpt><trkpt lat="39.0344588" lon="0.6821954"><ele>0.0</ele><time>2026-04-29T20:00:29.011Z</time></trkpt><trkpt lat="39.0345396" lon="0.6822421"><ele>0.0</ele><time>2026-04-29T20:00:30.011Z</time></trkpt><trkpt lat="39.0347004" lon="0.6823237"><ele>0.0</ele><time>2026-04-29T20:00:32.012Z</time></trkpt><trkpt lat="39.0347773" lon="0.6823606"><ele>0.0</ele><time>2026-04-29T20:00:33.012Z</time></trkpt><trkpt lat="39.0348595" lon="0.6824014"><ele>0.0</ele><time>2026-04-29T20:00:34.011Z</time></trkpt><trkpt lat="39.0349413" lon="0.6824446"><ele>0.0</ele><time>2026-04-29T20:00:35.011Z</time></trkpt><trkpt lat="39.0350214" lon="0.6824799"><ele>0.0</ele><time>2026-04-29T20:00:36.012Z</time></trkpt><trkpt lat="39.0351056" lon="0.6825209"><ele>0.0</ele><time>2026-04-29T20:00:37.011Z</time></trkpt><trkpt lat="39.0351936" lon="0.6825661"><ele>0.0</ele><time>2026-04-29T20:00:38.012Z</time></trkpt><trkpt lat="39.0352766" lon="0.6826101"><ele>0.0</ele><time>2026-04-29T20:00:39.012Z</time></trkpt><trkpt lat="39.0353626" lon="0.6826547"><ele>0.0</ele><time>2026-04-29T20:00:40.011Z</time></trkpt><trkpt lat="39.0354492" lon="0.6826748"><ele>0.0</ele><time>2026-04-29T20:00:41.011Z</time></trkpt><trkpt lat="39.0355328" lon="0.6826975"><ele>0.0</ele><time>2026-04-29T20:00:42.011Z</time></trkpt><trkpt lat="39.0356177" lon="0.6827333"><ele>0.0</ele><time>2026-04-29T20:00:43.011Z</time></trkpt><trkpt lat="39.0356997" lon="0.6827785"><ele>0.0</ele><time>2026-04-29T20:00:44.011Z</time></trkpt><trkpt lat="39.0357815" lon="0.6828267"><ele>0.0</ele><time>2026-04-29T20:00:45.011Z</time></trkpt><trkpt lat="39.0358587" lon="0.6828738"><ele>0.0</ele><time>2026-04-29T20:00:46.011Z</time></trkpt><trkpt lat="39.0359426" lon="0.6829178"><ele>0.0</ele><time>2026-04-29T20:00:47.011Z</time></trkpt><trkpt lat="39.0360247" lon="0.6829651"><ele>0.0</ele><time>2026-04-29T20:00:48.012Z</time></trkpt><trkpt lat="39.0361065" lon="0.6830117"><ele>0.0</ele><time>2026-04-29T20:00:49.011Z</time></trkpt><trkpt lat="39.0361908" lon="0.6830563"><ele>0.0</ele><time>2026-04-29T20:00:50.012Z</time></trkpt><trkpt lat="39.0362732" lon="0.6831052"><ele>0.0</ele><time>2026-04-29T20:00:51.011Z</time></trkpt><trkpt lat="39.0363552" lon="0.6831546"><ele>0.0</ele><time>2026-04-29T20:00:52.012Z</time></trkpt><trkpt lat="39.0365089" lon="0.683243"><ele>0.0</ele><time>2026-04-29T20:00:54.012Z</time></trkpt><trkpt lat="39.0365868" lon="0.683284"><ele>0.0</ele><time>2026-04-29T20:00:55.011Z</time></trkpt><trkpt lat="39.036668" lon="0.6833279"><ele>0.0</ele><time>2026-04-29T20:00:56.012Z</time></trkpt><trkpt lat="39.036751" lon="0.6833733"><ele>0.0</ele><time>2026-04-29T20:00:57.011Z</time></trkpt><trkpt lat="39.0368388" lon="0.68342"><ele>0.0</ele><time>2026-04-29T20:00:58.012Z</time></trkpt><trkpt lat="39.0369201" lon="0.6834713"><ele>0.0</ele><time>2026-04-29T20:00:59.012Z</time></trkpt><trkpt lat="39.036997" lon="0.6835144"><ele>0.0</ele><time>2026-04-29T20:01:00.011Z</time></trkpt><trkpt lat="39.0370763" lon="0.6835522"><ele>0.0</ele><time>2026-04-29T20:01:01.011Z</time></trkpt><trkpt lat="39.0371552" lon="0.6835888"><ele>0.0</ele><time>2026-04-29T20:01:02.012Z</time></trkpt><trkpt lat="39.0372361" lon="0.6836382"><ele>0.0</ele><time>2026-04-29T20:01:03.011Z</time></trkpt><trkpt lat="39.0373163" lon="0.6836877"><ele>0.0</ele><time>2026-04-29T20:01:04.011Z</time></trkpt><trkpt lat="39.0373982" lon="0.6837374"><ele>0.0</ele><time>2026-04-29T20:01:05.011Z</time></trkpt><trkpt lat="39.0374785" lon="0.683789"><ele>0.0</ele><time>2026-04-29T20:01:06.012Z</time></trkpt><trkpt lat="39.0375556" lon="0.6838356"><ele>0.0</ele><time>2026-04-29T20:01:07.011Z</time></trkpt><trkpt lat="39.0376364" lon="0.6838787"><ele>0.0</ele><time>2026-04-29T20:01:08.011Z</time></trkpt><trkpt lat="39.0377154" lon="0.6839175"><ele>0.0</ele><time>2026-04-29T20:01:09.012Z</time></trkpt><trkpt lat="39.0377936" lon="0.6839451"><ele>0.0</ele><time>2026-04-29T20:01:10.011Z</time></trkpt><trkpt lat="39.0378705" lon="0.6839735"><ele>0.0</ele><time>2026-04-29T20:01:11.011Z</time></trkpt><trkpt lat="39.0379529" lon="0.6840199"><ele>0.0</ele><time>2026-04-29T20:01:12.011Z</time></trkpt><trkpt lat="39.0380306" lon="0.6840578"><ele>0.0</ele><time>2026-04-29T20:01:13.012Z</time></trkpt><trkpt lat="39.03819" lon="0.6841494"><ele>0.0</ele><time>2026-04-29T20:01:15.011Z</time></trkpt><trkpt lat="39.0382739" lon="0.6841906"><ele>0.0</ele><time>2026-04-29T20:01:16.011Z</time></trkpt><trkpt lat="39.0383565" lon="0.6842356"><ele>0.0</ele><time>2026-04-29T20:01:17.012Z</time></trkpt><trkpt lat="39.0384366" lon="0.6842689"><ele>0.0</ele><time>2026-04-29T20:01:18.011Z</time></trkpt><trkpt lat="39.0385205" lon="0.684309"><ele>0.0</ele><time>2026-04-29T20:01:19.011Z</time></trkpt><trkpt lat="39.0385998" lon="0.6843435"><ele>0.0</ele><time>2026-04-29T20:01:20.012Z</time></trkpt><trkpt lat="39.0386825" lon="0.6843832"><ele>0.0</ele><time>2026-04-29T20:01:21.011Z</time></trkpt><trkpt lat="39.0387659" lon="0.6844215"><ele>0.0</ele><time>2026-04-29T20:01:22.011Z</time></trkpt><trkpt lat="39.038845" lon="0.6844668"><ele>0.0</ele><time>2026-04-29T20:01:23.011Z</time></trkpt><trkpt lat="39.0389233" lon="0.6845138"><ele>0.0</ele><time>2026-04-29T20:01:24.012Z</time></trkpt><trkpt lat="39.0390045" lon="0.6845561"><ele>0.0</ele><time>2026-04-29T20:01:25.012Z</time></trkpt><trkpt lat="39.0390819" lon="0.684591"><ele>0.0</ele><time>2026-04-29T20:01:26.012Z</time></trkpt><trkpt lat="39.0391644" lon="0.6846343"><ele>0.0</ele><time>2026-04-29T20:01:27.012Z</time></trkpt><trkpt lat="39.039245" lon="0.6846783"><ele>0.0</ele><time>2026-04-29T20:01:28.012Z</time></trkpt><trkpt lat="39.0393264" lon="0.6847237"><ele>0.0</ele><time>2026-04-29T20:01:29.012Z</time></trkpt><trkpt lat="39.0394054" lon="0.6847658"><ele>0.0</ele><time>2026-04-29T20:01:30.011Z</time></trkpt><trkpt lat="39.0394823" lon="0.6848134"><ele>0.0</ele><time>2026-04-29T20:01:31.012Z</time></trkpt><trkpt lat="39.0395633" lon="0.6848585"><ele>0.0</ele><time>2026-04-29T20:01:32.011Z</time></trkpt><trkpt lat="39.0396461" lon="0.6849042"><ele>0.0</ele><time>2026-04-29T20:01:33.011Z</time></trkpt><trkpt lat="39.039804" lon="0.6849912"><ele>0.0</ele><time>2026-04-29T20:01:35.011Z</time></trkpt><trkpt lat="39.0398821" lon="0.6850358"><ele>0.0</ele><time>2026-04-29T20:01:36.012Z</time></trkpt><trkpt lat="39.0399618" lon="0.685085"><ele>0.0</ele><time>2026-04-29T20:01:37.011Z</time></trkpt><trkpt lat="39.0400404" lon="0.6851383"><ele>0.0</ele><time>2026-04-29T20:01:38.012Z</time></trkpt><trkpt lat="39.0401157" lon="0.6851873"><ele>0.0</ele><time>2026-04-29T20:01:39.012Z</time></trkpt><trkpt lat="39.0401888" lon="0.685236"><ele>0.0</ele><time>2026-04-29T20:01:40.012Z</time></trkpt><trkpt lat="39.0402695" lon="0.6852858"><ele>0.0</ele><time>2026-04-29T20:01:41.012Z</time></trkpt><trkpt lat="39.0403482" lon="0.6853219"><ele>0.0</ele><time>2026-04-29T20:01:42.011Z</time></trkpt><trkpt lat="39.0404311" lon="0.6853588"><ele>0.0</ele><time>2026-04-29T20:01:43.011Z</time></trkpt><trkpt lat="39.0405128" lon="0.6853914"><ele>0.0</ele><time>2026-04-29T20:01:44.011Z</time></trkpt><trkpt lat="39.0405961" lon="0.6854282"><ele>0.0</ele><time>2026-04-29T20:01:45.011Z</time></trkpt><trkpt lat="39.0406783" lon="0.6854655"><ele>0.0</ele><time>2026-04-29T20:01:46.011Z</time></trkpt><trkpt lat="39.0407584" lon="0.6855073"><ele>0.0</ele><time>2026-04-29T20:01:47.011Z</time></trkpt><trkpt lat="39.0408399" lon="0.6855513"><ele>0.0</ele><time>2026-04-29T20:01:48.012Z</time></trkpt><trkpt lat="39.0409202" lon="0.6855948"><ele>0.0</ele><time>2026-04-29T20:01:49.011Z</time></trkpt><trkpt lat="39.0409999" lon="0.6856363"><ele>0.0</ele><time>2026-04-29T20:01:50.012Z</time></trkpt><trkpt lat="39.0410843" lon="0.6856794"><ele>0.0</ele><time>2026-04-29T20:01:51.012Z</time></trkpt><trkpt lat="39.0411678" lon="0.6857269"><ele>0.0</ele><time>2026-04-29T20:01:52.011Z</time></trkpt><trkpt lat="39.041251" lon="0.6857754"><ele>0.0</ele><time>2026-04-29T20:01:53.011Z</time></trkpt><trkpt lat="39.0413331" lon="0.6858236"><ele>0.0</ele><time>2026-04-29T20:01:54.011Z</time></trkpt><trkpt lat="39.0414158" lon="0.6858676"><ele>0.0</ele><time>2026-04-29T20:01:55.011Z</time></trkpt><trkpt lat="39.0415723" lon="0.6859467"><ele>0.0</ele><time>2026-04-29T20:01:57.011Z</time></trkpt><trkpt lat="39.0416461" lon="0.685977"><ele>0.0</ele><time>2026-04-29T20:01:58.012Z</time></trkpt><trkpt lat="39.0417233" lon="0.6860136"><ele>0.0</ele><time>2026-04-29T20:01:59.012Z</time></trkpt><trkpt lat="39.0418018" lon="0.6860526"><ele>0.0</ele><time>2026-04-29T20:02:00.011Z</time></trkpt><trkpt lat="39.0418788" lon="0.6860897"><ele>0.0</ele><time>2026-04-29T20:02:01.011Z</time></trkpt><trkpt lat="39.0419569" lon="0.6861332"><ele>0.0</ele><time>2026-04-29T20:02:02.012Z</time></trkpt><trkpt lat="39.0420308" lon="0.6861767"><ele>0.0</ele><time>2026-04-29T20:02:03.011Z</time></trkpt><trkpt lat="39.0421072" lon="0.6862269"><ele>0.0</ele><time>2026-04-29T20:02:04.011Z</time></trkpt><trkpt lat="39.0421868" lon="0.6862733"><ele>0.0</ele><time>2026-04-29T20:02:05.011Z</time></trkpt><trkpt lat="39.0422667" lon="0.6863141"><ele>0.0</ele><time>2026-04-29T20:02:06.012Z</time></trkpt><trkpt lat="39.0423511" lon="0.6863616"><ele>0.0</ele><time>2026-04-29T20:02:07.011Z</time></trkpt><trkpt lat="39.0424402" lon="0.6864048"><ele>0.0</ele><time>2026-04-29T20:02:08.012Z</time></trkpt><trkpt lat="39.0425215" lon="0.6864501"><ele>0.0</ele><time>2026-04-29T20:02:09.012Z</time></trkpt><trkpt lat="39.0425972" lon="0.6864721"><ele>0.0</ele><time>2026-04-29T20:02:10.012Z</time></trkpt><trkpt lat="39.0426753" lon="0.686497"><ele>0.0</ele><time>2026-04-29T20:02:11.011Z</time></trkpt><trkpt lat="39.0427594" lon="0.6865402"><ele>0.0</ele><time>2026-04-29T20:02:12.012Z</time></trkpt><trkpt lat="39.0428318" lon="0.6865692"><ele>0.0</ele><time>2026-04-29T20:02:13.012Z</time></trkpt><trkpt lat="39.0429072" lon="0.6866068"><ele>0.0</ele><time>2026-04-29T20:02:14.012Z</time></trkpt><trkpt lat="39.0429882" lon="0.6866362"><ele>0.0</ele><time>2026-04-29T20:02:15.011Z</time></trkpt><trkpt lat="39.0430742" lon="0.6866655"><ele>0.0</ele><time>2026-04-29T20:02:16.011Z</time></trkpt><trkpt lat="39.0432419" lon="0.6867325"><ele>0.0</ele><time>2026-04-29T20:02:18.011Z</time></trkpt><trkpt lat="39.043326" lon="0.6867728"><ele>0.0</ele><time>2026-04-29T20:02:19.012Z</time></trkpt><trkpt lat="39.043408" lon="0.6868177"><ele>0.0</ele><time>2026-04-29T20:02:20.012Z</time></trkpt><trkpt lat="39.0434884" lon="0.6868555"><ele>0.0</ele><time>2026-04-29T20:02:21.011Z</time></trkpt><trkpt lat="39.0435682" lon="0.6868938"><ele>0.0</ele><time>2026-04-29T20:02:22.011Z</time></trkpt><trkpt lat="39.0436458" lon="0.6869388"><ele>0.0</ele><time>2026-04-29T20:02:23.012Z</time></trkpt><trkpt lat="39.0437253" lon="0.6869781"><ele>0.0</ele><time>2026-04-29T20:02:24.012Z</time></trkpt><trkpt lat="39.0438066" lon="0.6870163"><ele>0.0</ele><time>2026-04-29T20:02:25.012Z</time></trkpt><trkpt lat="39.0438885" lon="0.6870561"><ele>0.0</ele><time>2026-04-29T20:02:26.011Z</time></trkpt><trkpt lat="39.0439688" lon="0.6870983"><ele>0.0</ele><time>2026-04-29T20:02:27.011Z</time></trkpt><trkpt lat="39.0440472" lon="0.6871437"><ele>0.0</ele><time>2026-04-29T20:02:28.011Z</time></trkpt><trkpt lat="39.0441281" lon="0.6871883"><ele>0.0</ele><time>2026-04-29T20:02:29.011Z</time></trkpt><trkpt lat="39.0442096" lon="0.6872505"><ele>0.0</ele><time>2026-04-29T20:02:30.012Z</time></trkpt><trkpt lat="39.0442926" lon="0.6872944"><ele>0.0</ele><time>2026-04-29T20:02:31.012Z</time></trkpt><trkpt lat="39.0443721" lon="0.687335"><ele>0.0</ele><time>2026-04-29T20:02:32.011Z</time></trkpt><trkpt lat="39.0444502" lon="0.6873681"><ele>0.0</ele><time>2026-04-29T20:02:33.012Z</time></trkpt><trkpt lat="39.0445271" lon="0.6874028"><ele>0.0</ele><time>2026-04-29T20:02:34.011Z</time></trkpt><trkpt lat="39.044608" lon="0.6874386"><ele>0.0</ele><time>2026-04-29T20:02:35.011Z</time></trkpt><trkpt lat="39.0446886" lon="0.6874722"><ele>0.0</ele><time>2026-04-29T20:02:36.012Z</time></trkpt><trkpt lat="39.0447671" lon="0.6875066"><ele>0.0</ele><time>2026-04-29T20:02:37.012Z</time></trkpt><trkpt lat="39.0449295" lon="0.6875769"><ele>0.0</ele><time>2026-04-29T20:02:39.012Z</time></trkpt><trkpt lat="39.045013" lon="0.6876243"><ele>0.0</ele><time>2026-04-29T20:02:40.011Z</time></trkpt><trkpt lat="39.0450993" lon="0.6876904"><ele>0.0</ele><time>2026-04-29T20:02:41.012Z</time></trkpt><trkpt lat="39.045182" lon="0.6877225"><ele>0.0</ele><time>2026-04-29T20:02:42.012Z</time></trkpt><trkpt lat="39.0452631" lon="0.687768"><ele>0.0</ele><time>2026-04-29T20:02:43.011Z</time></trkpt><trkpt lat="39.0453462" lon="0.687818"><ele>0.0</ele><time>2026-04-29T20:02:44.011Z</time></trkpt><trkpt lat="39.0454227" lon="0.6878657"><ele>0.0</ele><time>2026-04-29T20:02:45.011Z</time></trkpt><trkpt lat="39.0455034" lon="0.6879008"><ele>0.0</ele><time>2026-04-29T20:02:46.011Z</time></trkpt><trkpt lat="39.0455809" lon="0.6879409"><ele>0.0</ele><time>2026-04-29T20:02:47.011Z</time></trkpt><trkpt lat="39.0456618" lon="0.6879809"><ele>0.0</ele><time>2026-04-29T20:02:48.011Z</time></trkpt><trkpt lat="39.0457406" lon="0.6880212"><ele>0.0</ele><time>2026-04-29T20:02:49.012Z</time></trkpt><trkpt lat="39.0458204" lon="0.6880655"><ele>0.0</ele><time>2026-04-29T20:02:50.011Z</time></trkpt><trkpt lat="39.0458988" lon="0.6881022"><ele>0.0</ele><time>2026-04-29T20:02:51.012Z</time></trkpt><trkpt lat="39.0459783" lon="0.6881391"><ele>0.0</ele><time>2026-04-29T20:02:52.011Z</time></trkpt><trkpt lat="39.0460584" lon="0.6881856"><ele>0.0</ele><time>2026-04-29T20:02:53.012Z</time></trkpt><trkpt lat="39.046137" lon="0.6882271"><ele>0.0</ele><time>2026-04-29T20:02:54.011Z</time></trkpt><trkpt lat="39.0462181" lon="0.6882744"><ele>0.0</ele><time>2026-04-29T20:02:55.012Z</time></trkpt><trkpt lat="39.0463" lon="0.6883209"><ele>0.0</ele><time>2026-04-29T20:02:56.012Z</time></trkpt><trkpt lat="39.04638" lon="0.6883612"><ele>0.0</ele><time>2026-04-29T20:02:57.011Z</time></trkpt><trkpt lat="39.0464598" lon="0.6884019"><ele>0.0</ele><time>2026-04-29T20:02:58.011Z</time></trkpt><trkpt lat="39.0466195" lon="0.688492"><ele>0.0</ele><time>2026-04-29T20:03:00.011Z</time></trkpt><trkpt lat="39.0466997" lon="0.6885329"><ele>0.0</ele><time>2026-04-29T20:03:01.012Z</time></trkpt><trkpt lat="39.0467799" lon="0.6885689"><ele>0.0</ele><time>2026-04-29T20:03:02.011Z</time></trkpt><trkpt lat="39.0468569" lon="0.6886088"><ele>0.0</ele><time>2026-04-29T20:03:03.011Z</time></trkpt><trkpt lat="39.0469323" lon="0.6886446"><ele>0.0</ele><time>2026-04-29T20:03:04.012Z</time></trkpt><trkpt lat="39.0470088" lon="0.6886837"><ele>0.0</ele><time>2026-04-29T20:03:05.011Z</time></trkpt><trkpt lat="39.0470882" lon="0.6887128"><ele>0.0</ele><time>2026-04-29T20:03:06.012Z</time></trkpt><trkpt lat="39.0471626" lon="0.6887471"><ele>0.0</ele><time>2026-04-29T20:03:07.011Z</time></trkpt><trkpt lat="39.047236" lon="0.6887798"><ele>0.0</ele><time>2026-04-29T20:03:08.011Z</time></trkpt><trkpt lat="39.0473132" lon="0.6888205"><ele>0.0</ele><time>2026-04-29T20:03:09.012Z</time></trkpt><trkpt lat="39.047392" lon="0.6888609"><ele>0.0</ele><time>2026-04-29T20:03:10.012Z</time></trkpt><trkpt lat="39.0474719" lon="0.6889037"><ele>0.0</ele><time>2026-04-29T20:03:11.011Z</time></trkpt><trkpt lat="39.0475519" lon="0.6889567"><ele>0.0</ele><time>2026-04-29T20:03:12.011Z</time></trkpt><trkpt lat="39.0476317" lon="0.6890039"><ele>0.0</ele><time>2026-04-29T20:03:13.011Z</time></trkpt><trkpt lat="39.0477131" lon="0.6890456"><ele>0.0</ele><time>2026-04-29T20:03:14.011Z</time></trkpt><trkpt lat="39.0477904" lon="0.6890957"><ele>0.0</ele><time>2026-04-29T20:03:15.011Z</time></trkpt><trkpt lat="39.0478659" lon="0.6891407"><ele>0.0</ele><time>2026-04-29T20:03:16.011Z</time></trkpt><trkpt lat="39.0479422" lon="0.6891814"><ele>0.0</ele><time>2026-04-29T20:03:17.011Z</time></trkpt><trkpt lat="39.0480257" lon="0.6892225"><ele>0.0</ele><time>2026-04-29T20:03:18.011Z</time></trkpt><trkpt lat="39.0481065" lon="0.6892709"><ele>0.0</ele><time>2026-04-29T20:03:19.011Z</time></trkpt><trkpt lat="39.0482745" lon="0.6893589"><ele>0.0</ele><time>2026-04-29T20:03:21.011Z</time></trkpt><trkpt lat="39.0483521" lon="0.6893926"><ele>0.0</ele><time>2026-04-29T20:03:22.011Z</time></trkpt><trkpt lat="39.0484326" lon="0.6894309"><ele>0.0</ele><time>2026-04-29T20:03:23.011Z</time></trkpt><trkpt lat="39.0485125" lon="0.6894754"><ele>0.0</ele><time>2026-04-29T20:03:24.011Z</time></trkpt><trkpt lat="39.0485914" lon="0.6895227"><ele>0.0</ele><time>2026-04-29T20:03:25.012Z</time></trkpt><trkpt lat="39.0486711" lon="0.6895683"><ele>0.0</ele><time>2026-04-29T20:03:26.011Z</time></trkpt><trkpt lat="39.0487515" lon="0.689614"><ele>0.0</ele><time>2026-04-29T20:03:27.011Z</time></trkpt><trkpt lat="39.0488317" lon="0.6896533"><ele>0.0</ele><time>2026-04-29T20:03:28.012Z</time></trkpt><trkpt lat="39.0489119" lon="0.6896954"><ele>0.0</ele><time>2026-04-29T20:03:29.011Z</time></trkpt><trkpt lat="39.0490005" lon="0.6897437"><ele>0.0</ele><time>2026-04-29T20:03:30.012Z</time></trkpt><trkpt lat="39.0490844" lon="0.6897911"><ele>0.0</ele><time>2026-04-29T20:03:31.011Z</time></trkpt><trkpt lat="39.0491651" lon="0.6898351"><ele>0.0</ele><time>2026-04-29T20:03:32.012Z</time></trkpt><trkpt lat="39.0492424" lon="0.6898669"><ele>0.0</ele><time>2026-04-29T20:03:33.012Z</time></trkpt><trkpt lat="39.0493186" lon="0.6899042"><ele>0.0</ele><time>2026-04-29T20:03:34.011Z</time></trkpt><trkpt lat="39.0493971" lon="0.6899419"><ele>0.0</ele><time>2026-04-29T20:03:35.012Z</time></trkpt><trkpt lat="39.0494757" lon="0.6899836"><ele>0.0</ele><time>2026-04-29T20:03:36.012Z</time></trkpt><trkpt lat="39.0495524" lon="0.6900257"><ele>0.0</ele><time>2026-04-29T20:03:37.012Z</time></trkpt><trkpt lat="39.0496331" lon="0.6900687"><ele>0.0</ele><time>2026-04-29T20:03:38.012Z</time></trkpt><trkpt lat="39.049715" lon="0.6901159"><ele>0.0</ele><time>2026-04-29T20:03:39.012Z</time></trkpt><trkpt lat="39.0497935" lon="0.6901554"><ele>0.0</ele><time>2026-04-29T20:03:40.012Z</time></trkpt><trkpt lat="39.0499529" lon="0.6902409"><ele>0.0</ele><time>2026-04-29T20:03:42.012Z</time></trkpt><trkpt lat="39.050033" lon="0.6902814"><ele>0.0</ele><time>2026-04-29T20:03:43.012Z</time></trkpt><trkpt lat="39.0501132" lon="0.6903204"><ele>0.0</ele><time>2026-04-29T20:03:44.011Z</time></trkpt><trkpt lat="39.0501976" lon="0.6903533"><ele>0.0</ele><time>2026-04-29T20:03:45.012Z</time></trkpt><trkpt lat="39.0502809" lon="0.690391"><ele>0.0</ele><time>2026-04-29T20:03:46.011Z</time></trkpt><trkpt lat="39.0503674" lon="0.690429"><ele>0.0</ele><time>2026-04-29T20:03:47.011Z</time></trkpt><trkpt lat="39.0504527" lon="0.690467"><ele>0.0</ele><time>2026-04-29T20:03:48.011Z</time></trkpt><trkpt lat="39.0505334" lon="0.6905018"><ele>0.0</ele><time>2026-04-29T20:03:49.011Z</time></trkpt><trkpt lat="39.0506163" lon="0.6905454"><ele>0.0</ele><time>2026-04-29T20:03:50.012Z</time></trkpt><trkpt lat="39.050694" lon="0.6905855"><ele>0.0</ele><time>2026-04-29T20:03:51.012Z</time></trkpt><trkpt lat="39.0507721" lon="0.6906151"><ele>0.0</ele><time>2026-04-29T20:03:52.012Z</time></trkpt><trkpt lat="39.0508573" lon="0.6906196"><ele>0.0</ele><time>2026-04-29T20:03:53.012Z</time></trkpt><trkpt lat="39.0509424" lon="0.6906559"><ele>0.0</ele><time>2026-04-29T20:03:54.011Z</time></trkpt><trkpt lat="39.0510261" lon="0.6906955"><ele>0.0</ele><time>2026-04-29T20:03:55.011Z</time></trkpt><trkpt lat="39.0511153" lon="0.6907149"><ele>0.0</ele><time>2026-04-29T20:03:56.011Z</time></trkpt><trkpt lat="39.0511968" lon="0.6907536"><ele>0.0</ele><time>2026-04-29T20:03:57.011Z</time></trkpt><trkpt lat="39.0512769" lon="0.6907976"><ele>0.0</ele><time>2026-04-29T20:03:58.012Z</time></trkpt><trkpt lat="39.0513552" lon="0.6908414"><ele>0.0</ele><time>2026-04-29T20:03:59.012Z</time></trkpt><trkpt lat="39.0514322" lon="0.6908856"><ele>0.0</ele><time>2026-04-29T20:04:00.012Z</time></trkpt><trkpt lat="39.0515119" lon="0.6909269"><ele>0.0</ele><time>2026-04-29T20:04:01.012Z</time></trkpt><trkpt lat="39.0515915" lon="0.6909696"><ele>0.0</ele><time>2026-04-29T20:04:02.011Z</time></trkpt><trkpt lat="39.0517518" lon="0.6910776"><ele>0.0</ele><time>2026-04-29T20:04:04.011Z</time></trkpt><trkpt lat="39.0518302" lon="0.6911232"><ele>0.0</ele><time>2026-04-29T20:04:05.011Z</time></trkpt><trkpt lat="39.0519071" lon="0.6911646"><ele>0.0</ele><time>2026-04-29T20:04:06.011Z</time></trkpt><trkpt lat="39.0519839" lon="0.6911753"><ele>0.0</ele><time>2026-04-29T20:04:07.012Z</time></trkpt><trkpt lat="39.0520633" lon="0.6912096"><ele>0.0</ele><time>2026-04-29T20:04:08.012Z</time></trkpt><trkpt lat="39.052142" lon="0.6912431"><ele>0.0</ele><time>2026-04-29T20:04:09.011Z</time></trkpt><trkpt lat="39.05222" lon="0.6912803"><ele>0.0</ele><time>2026-04-29T20:04:10.012Z</time></trkpt><trkpt lat="39.052304" lon="0.6913219"><ele>0.0</ele><time>2026-04-29T20:04:11.011Z</time></trkpt><trkpt lat="39.0523877" lon="0.6913666"><ele>0.0</ele><time>2026-04-29T20:04:12.011Z</time></trkpt><trkpt lat="39.0524671" lon="0.6914087"><ele>0.0</ele><time>2026-04-29T20:04:13.012Z</time></trkpt><trkpt lat="39.0525468" lon="0.6914455"><ele>0.0</ele><time>2026-04-29T20:04:14.011Z</time></trkpt><trkpt lat="39.0526328" lon="0.6914824"><ele>0.0</ele><time>2026-04-29T20:04:15.012Z</time></trkpt><trkpt lat="39.0527193" lon="0.6915044"><ele>0.0</ele><time>2026-04-29T20:04:16.012Z</time></trkpt><trkpt lat="39.0528057" lon="0.6915389"><ele>0.0</ele><time>2026-04-29T20:04:17.011Z</time></trkpt><trkpt lat="39.052888" lon="0.6915753"><ele>0.0</ele><time>2026-04-29T20:04:18.011Z</time></trkpt><trkpt lat="39.0529682" lon="0.6916132"><ele>0.0</ele><time>2026-04-29T20:04:19.012Z</time></trkpt><trkpt lat="39.0530496" lon="0.6916526"><ele>0.0</ele><time>2026-04-29T20:04:20.012Z</time></trkpt><trkpt lat="39.0531283" lon="0.6916922"><ele>0.0</ele><time>2026-04-29T20:04:21.011Z</time></trkpt><trkpt lat="39.0532067" lon="0.6917308"><ele>0.0</ele><time>2026-04-29T20:04:22.012Z</time></trkpt><trkpt lat="39.0532866" lon="0.6917749"><ele>0.0</ele><time>2026-04-29T20:04:23.011Z</time></trkpt><trkpt lat="39.0534453" lon="0.6918601"><ele>0.0</ele><time>2026-04-29T20:04:25.011Z</time></trkpt><trkpt lat="39.0535251" lon="0.6918983"><ele>0.0</ele><time>2026-04-29T20:04:26.011Z</time></trkpt><trkpt lat="39.0536006" lon="0.6919381"><ele>0.0</ele><time>2026-04-29T20:04:27.011Z</time></trkpt><trkpt lat="39.053681" lon="0.6919808"><ele>0.0</ele><time>2026-04-29T20:04:28.012Z</time></trkpt><trkpt lat="39.0537629" lon="0.6920208"><ele>0.0</ele><time>2026-04-29T20:04:29.012Z</time></trkpt><trkpt lat="39.0538451" lon="0.6920706"><ele>0.0</ele><time>2026-04-29T20:04:30.011Z</time></trkpt><trkpt lat="39.0539269" lon="0.6921149"><ele>0.0</ele><time>2026-04-29T20:04:31.012Z</time></trkpt><trkpt lat="39.0540055" lon="0.692162"><ele>0.0</ele><time>2026-04-29T20:04:32.012Z</time></trkpt><trkpt lat="39.0540865" lon="0.6922134"><ele>0.0</ele><time>2026-04-29T20:04:33.012Z</time></trkpt><trkpt lat="39.0541695" lon="0.6922871"><ele>0.0</ele><time>2026-04-29T20:04:34.011Z</time></trkpt><trkpt lat="39.0542503" lon="0.6923451"><ele>0.0</ele><time>2026-04-29T20:04:35.011Z</time></trkpt><trkpt lat="39.0543287" lon="0.6923917"><ele>0.0</ele><time>2026-04-29T20:04:36.012Z</time></trkpt><trkpt lat="39.0544054" lon="0.6924469"><ele>0.0</ele><time>2026-04-29T20:04:37.012Z</time></trkpt><trkpt lat="39.0544831" lon="0.6925023"><ele>0.0</ele><time>2026-04-29T20:04:38.011Z</time></trkpt><trkpt lat="39.0545634" lon="0.692552"><ele>0.0</ele><time>2026-04-29T20:04:39.012Z</time></trkpt><trkpt lat="39.0546434" lon="0.6926064"><ele>0.0</ele><time>2026-04-29T20:04:40.012Z</time></trkpt><trkpt lat="39.0547191" lon="0.6926489"><ele>0.0</ele><time>2026-04-29T20:04:41.011Z</time></trkpt><trkpt lat="39.0547954" lon="0.6926883"><ele>0.0</ele><time>2026-04-29T20:04:42.012Z</time></trkpt><trkpt lat="39.0548735" lon="0.6927302"><ele>0.0</ele><time>2026-04-29T20:04:43.012Z</time></trkpt><trkpt lat="39.0549533" lon="0.6927731"><ele>0.0</ele><time>2026-04-29T20:04:44.012Z</time></trkpt><trkpt lat="39.0551097" lon="0.6928637"><ele>0.0</ele><time>2026-04-29T20:04:46.011Z</time></trkpt><trkpt lat="39.0551884" lon="0.6929061"><ele>0.0</ele><time>2026-04-29T20:04:47.012Z</time></trkpt><trkpt lat="39.0552672" lon="0.6929545"><ele>0.0</ele><time>2026-04-29T20:04:48.011Z</time></trkpt><trkpt lat="39.0553467" lon="0.69301"><ele>0.0</ele><time>2026-04-29T20:04:49.012Z</time></trkpt><trkpt lat="39.0554238" lon="0.6930517"><ele>0.0</ele><time>2026-04-29T20:04:50.012Z</time></trkpt><trkpt lat="39.0555034" lon="0.6931074"><ele>0.0</ele><time>2026-04-29T20:04:51.011Z</time></trkpt><trkpt lat="39.0555833" lon="0.6931663"><ele>0.0</ele><time>2026-04-29T20:04:52.01Z</time></trkpt><trkpt lat="39.0556632" lon="0.6931968"><ele>0.0</ele><time>2026-04-29T20:04:53.01Z</time></trkpt><trkpt lat="39.0557445" lon="0.693253"><ele>0.0</ele><time>2026-04-29T20:04:54.01Z</time></trkpt><trkpt lat="39.0558266" lon="0.6933133"><ele>0.0</ele><time>2026-04-29T20:04:55.01Z</time></trkpt><trkpt lat="39.0559069" lon="0.6933536"><ele>0.0</ele><time>2026-04-29T20:04:56.011Z</time></trkpt><trkpt lat="39.0559855" lon="0.6933882"><ele>0.0</ele><time>2026-04-29T20:04:57.01Z</time></trkpt><trkpt lat="39.0560636" lon="0.6934194"><ele>0.0</ele><time>2026-04-29T20:04:58.011Z</time></trkpt><trkpt lat="39.0561435" lon="0.6934565"><ele>0.0</ele><time>2026-04-29T20:04:59.01Z</time></trkpt><trkpt lat="39.0562276" lon="0.6934931"><ele>0.0</ele><time>2026-04-29T20:05:00.011Z</time></trkpt><trkpt lat="39.0563082" lon="0.6935315"><ele>0.0</ele><time>2026-04-29T20:05:01.011Z</time></trkpt><trkpt lat="39.0563921" lon="0.69357"><ele>0.0</ele><time>2026-04-29T20:05:02.01Z</time></trkpt><trkpt lat="39.0564759" lon="0.6936119"><ele>0.0</ele><time>2026-04-29T20:05:03.01Z</time></trkpt><trkpt lat="39.0565566" lon="0.6936478"><ele>0.0</ele><time>2026-04-29T20:05:04.01Z</time></trkpt><trkpt lat="39.0566411" lon="0.6936849"><ele>0.0</ele><time>2026-04-29T20:05:05.011Z</time></trkpt><trkpt lat="39.056799" lon="0.6937544"><ele>0.0</ele><time>2026-04-29T20:05:07.011Z</time></trkpt><trkpt lat="39.0568765" lon="0.6937912"><ele>0.0</ele><time>2026-04-29T20:05:08.011Z</time></trkpt><trkpt lat="39.0569521" lon="0.6938276"><ele>0.0</ele><time>2026-04-29T20:05:09.011Z</time></trkpt><trkpt lat="39.0570287" lon="0.6938626"><ele>0.0</ele><time>2026-04-29T20:05:10.01Z</time></trkpt><trkpt lat="39.0571079" lon="0.6938969"><ele>0.0</ele><time>2026-04-29T20:05:11.011Z</time></trkpt><trkpt lat="39.0571878" lon="0.6939265"><ele>0.0</ele><time>2026-04-29T20:05:12.011Z</time></trkpt><trkpt lat="39.0572681" lon="0.6939611"><ele>0.0</ele><time>2026-04-29T20:05:13.011Z</time></trkpt><trkpt lat="39.0573491" lon="0.6939949"><ele>0.0</ele><time>2026-04-29T20:05:14.01Z</time></trkpt><trkpt lat="39.0574312" lon="0.6940314"><ele>0.0</ele><time>2026-04-29T20:05:15.01Z</time></trkpt><trkpt lat="39.0575116" lon="0.6940684"><ele>0.0</ele><time>2026-04-29T20:05:16.011Z</time></trkpt><trkpt lat="39.0575932" lon="0.6941055"><ele>0.0</ele><time>2026-04-29T20:05:17.011Z</time></trkpt><trkpt lat="39.0576752" lon="0.6941421"><ele>0.0</ele><time>2026-04-29T20:05:18.01Z</time></trkpt><trkpt lat="39.057758" lon="0.6941831"><ele>0.0</ele><time>2026-04-29T20:05:19.011Z</time></trkpt><trkpt lat="39.0578415" lon="0.6942009"><ele>0.0</ele><time>2026-04-29T20:05:20.011Z</time></trkpt><trkpt lat="39.0579219" lon="0.694243"><ele>0.0</ele><time>2026-04-29T20:05:21.01Z</time></trkpt><trkpt lat="39.0579991" lon="0.6942848"><ele>0.0</ele><time>2026-04-29T20:05:22.01Z</time></trkpt><trkpt lat="39.0580739" lon="0.6943265"><ele>0.0</ele><time>2026-04-29T20:05:23.01Z</time></trkpt><trkpt lat="39.058153" lon="0.6943706"><ele>0.0</ele><time>2026-04-29T20:05:24.011Z</time></trkpt><trkpt lat="39.0582315" lon="0.6944084"><ele>0.0</ele><time>2026-04-29T20:05:25.01Z</time></trkpt><trkpt lat="39.0583146" lon="0.6944489"><ele>0.0</ele><time>2026-04-29T20:05:26.01Z</time></trkpt><trkpt lat="39.0584688" lon="0.6945244"><ele>0.0</ele><time>2026-04-29T20:05:28.011Z</time></trkpt><trkpt lat="39.0585479" lon="0.6945623"><ele>0.0</ele><time>2026-04-29T20:05:29.01Z</time></trkpt><trkpt lat="39.0586283" lon="0.6945979"><ele>0.0</ele><time>2026-04-29T20:05:30.011Z</time></trkpt><trkpt lat="39.0587083" lon="0.6946212"><ele>0.0</ele><time>2026-04-29T20:05:31.011Z</time></trkpt><trkpt lat="39.0587882" lon="0.6946555"><ele>0.0</ele><time>2026-04-29T20:05:32.01Z</time></trkpt><trkpt lat="39.0588669" lon="0.6946946"><ele>0.0</ele><time>2026-04-29T20:05:33.011Z</time></trkpt><trkpt lat="39.0589465" lon="0.6947307"><ele>0.0</ele><time>2026-04-29T20:05:34.01Z</time></trkpt><trkpt lat="39.0590267" lon="0.6947615"><ele>0.0</ele><time>2026-04-29T20:05:35.01Z</time></trkpt><trkpt lat="39.0591122" lon="0.6947889"><ele>0.0</ele><time>2026-04-29T20:05:36.011Z</time></trkpt><trkpt lat="39.059193" lon="0.6948234"><ele>0.0</ele><time>2026-04-29T20:05:37.01Z</time></trkpt><trkpt lat="39.0592731" lon="0.6948571"><ele>0.0</ele><time>2026-04-29T20:05:38.011Z</time></trkpt><trkpt lat="39.0593502" lon="0.6948905"><ele>0.0</ele><time>2026-04-29T20:05:39.01Z</time></trkpt><trkpt lat="39.0594283" lon="0.6949266"><ele>0.0</ele><time>2026-04-29T20:05:40.01Z</time></trkpt><trkpt lat="39.0595067" lon="0.6949633"><ele>0.0</ele><time>2026-04-29T20:05:41.01Z</time></trkpt><trkpt lat="39.0595863" lon="0.6950018"><ele>0.0</ele><time>2026-04-29T20:05:42.011Z</time></trkpt><trkpt lat="39.0596635" lon="0.6950446"><ele>0.0</ele><time>2026-04-29T20:05:43.011Z</time></trkpt><trkpt lat="39.0597446" lon="0.695085"><ele>0.0</ele><time>2026-04-29T20:05:44.01Z</time></trkpt><trkpt lat="39.059829" lon="0.6951405"><ele>0.0</ele><time>2026-04-29T20:05:45.011Z</time></trkpt><trkpt lat="39.059913" lon="0.6951905"><ele>0.0</ele><time>2026-04-29T20:05:46.01Z</time></trkpt><trkpt lat="39.059992" lon="0.695236"><ele>0.0</ele><time>2026-04-29T20:05:47.01Z</time></trkpt><trkpt lat="39.0601563" lon="0.6953196"><ele>0.0</ele><time>2026-04-29T20:05:49.011Z</time></trkpt><trkpt lat="39.0602363" lon="0.6953631"><ele>0.0</ele><time>2026-04-29T20:05:50.011Z</time></trkpt><trkpt lat="39.0603139" lon="0.6954103"><ele>0.0</ele><time>2026-04-29T20:05:51.01Z</time></trkpt><trkpt lat="39.0603933" lon="0.6954511"><ele>0.0</ele><time>2026-04-29T20:05:52.01Z</time></trkpt><trkpt lat="39.0604745" lon="0.6954939"><ele>0.0</ele><time>2026-04-29T20:05:53.011Z</time></trkpt><trkpt lat="39.0605567" lon="0.6955431"><ele>0.0</ele><time>2026-04-29T20:05:54.01Z</time></trkpt><trkpt lat="39.0606384" lon="0.6955887"><ele>0.0</ele><time>2026-04-29T20:05:55.01Z</time></trkpt><trkpt lat="39.0607187" lon="0.6956293"><ele>0.0</ele><time>2026-04-29T20:05:56.011Z</time></trkpt><trkpt lat="39.0608015" lon="0.6956916"><ele>0.0</ele><time>2026-04-29T20:05:57.01Z</time></trkpt><trkpt lat="39.0608847" lon="0.6957266"><ele>0.0</ele><time>2026-04-29T20:05:58.01Z</time></trkpt><trkpt lat="39.0609649" lon="0.6957772"><ele>0.0</ele><time>2026-04-29T20:05:59.01Z</time></trkpt><trkpt lat="39.0610435" lon="0.6958273"><ele>0.0</ele><time>2026-04-29T20:06:00.011Z</time></trkpt><trkpt lat="39.0611204" lon="0.6958629"><ele>0.0</ele><time>2026-04-29T20:06:01.011Z</time></trkpt><trkpt lat="39.0611997" lon="0.6959275"><ele>0.0</ele><time>2026-04-29T20:06:02.011Z</time></trkpt><trkpt lat="39.0612869" lon="0.6959924"><ele>0.0</ele><time>2026-04-29T20:06:03.011Z</time></trkpt><trkpt lat="39.0613743" lon="0.696064"><ele>0.0</ele><time>2026-04-29T20:06:04.011Z</time></trkpt><trkpt lat="39.0614556" lon="0.6961164"><ele>0.0</ele><time>2026-04-29T20:06:05.01Z</time></trkpt><trkpt lat="39.0615296" lon="0.6961535"><ele>0.0</ele><time>2026-04-29T20:06:06.011Z</time></trkpt><trkpt lat="39.0616096" lon="0.6961888"><ele>0.0</ele><time>2026-04-29T20:06:07.01Z</time></trkpt><trkpt lat="39.0616917" lon="0.6962209"><ele>0.0</ele><time>2026-04-29T20:06:08.011Z</time></trkpt><trkpt lat="39.0617793" lon="0.6962537"><ele>0.0</ele><time>2026-04-29T20:06:09.01Z</time></trkpt><trkpt lat="39.0619466" lon="0.6963235"><ele>0.0</ele><time>2026-04-29T20:06:11.011Z</time></trkpt><trkpt lat="39.0620259" lon="0.6963087"><ele>0.0</ele><time>2026-04-29T20:06:12.01Z</time></trkpt><trkpt lat="39.0621053" lon="0.6963322"><ele>0.0</ele><time>2026-04-29T20:06:13.011Z</time></trkpt><trkpt lat="39.0621868" lon="0.696368"><ele>0.0</ele><time>2026-04-29T20:06:14.011Z</time></trkpt><trkpt lat="39.0622672" lon="0.6964077"><ele>0.0</ele><time>2026-04-29T20:06:15.01Z</time></trkpt><trkpt lat="39.0623469" lon="0.6964511"><ele>0.0</ele><time>2026-04-29T20:06:16.011Z</time></trkpt><trkpt lat="39.0624267" lon="0.6964889"><ele>0.0</ele><time>2026-04-29T20:06:17.011Z</time></trkpt><trkpt lat="39.0625011" lon="0.6965221"><ele>0.0</ele><time>2026-04-29T20:06:18.011Z</time></trkpt><trkpt lat="39.0625833" lon="0.6965655"><ele>0.0</ele><time>2026-04-29T20:06:19.01Z</time></trkpt><trkpt lat="39.0626668" lon="0.6966103"><ele>0.0</ele><time>2026-04-29T20:06:20.011Z</time></trkpt><trkpt lat="39.0627469" lon="0.696654"><ele>0.0</ele><time>2026-04-29T20:06:21.011Z</time></trkpt><trkpt lat="39.0628255" lon="0.6966943"><ele>0.0</ele><time>2026-04-29T20:06:22.011Z</time></trkpt><trkpt lat="39.062905" lon="0.6967384"><ele>0.0</ele><time>2026-04-29T20:06:23.011Z</time></trkpt><trkpt lat="39.062988" lon="0.696782"><ele>0.0</ele><time>2026-04-29T20:06:24.011Z</time></trkpt><trkpt lat="39.0630727" lon="0.6968101"><ele>0.0</ele><time>2026-04-29T20:06:25.011Z</time></trkpt><trkpt lat="39.0631578" lon="0.6968575"><ele>0.0</ele><time>2026-04-29T20:06:26.01Z</time></trkpt><trkpt lat="39.0632387" lon="0.6969022"><ele>0.0</ele><time>2026-04-29T20:06:27.01Z</time></trkpt><trkpt lat="39.0633196" lon="0.6969468"><ele>0.0</ele><time>2026-04-29T20:06:28.01Z</time></trkpt><trkpt lat="39.0634029" lon="0.6969917"><ele>0.0</ele><time>2026-04-29T20:06:29.011Z</time></trkpt><trkpt lat="39.0634865" lon="0.6970384"><ele>0.0</ele><time>2026-04-29T20:06:30.011Z</time></trkpt><trkpt lat="39.0636483" lon="0.6970859"><ele>0.0</ele><time>2026-04-29T20:06:32.011Z</time></trkpt><trkpt lat="39.0637357" lon="0.697121"><ele>0.0</ele><time>2026-04-29T20:06:33.011Z</time></trkpt><trkpt lat="39.0638198" lon="0.6971572"><ele>0.0</ele><time>2026-04-29T20:06:34.011Z</time></trkpt><trkpt lat="39.0639016" lon="0.6971947"><ele>0.0</ele><time>2026-04-29T20:06:35.011Z</time></trkpt><trkpt lat="39.0639817" lon="0.6972312"><ele>0.0</ele><time>2026-04-29T20:06:36.01Z</time></trkpt><trkpt lat="39.0640632" lon="0.6972664"><ele>0.0</ele><time>2026-04-29T20:06:37.01Z</time></trkpt><trkpt lat="39.064142" lon="0.697308"><ele>0.0</ele><time>2026-04-29T20:06:38.01Z</time></trkpt><trkpt lat="39.0642215" lon="0.6973506"><ele>0.0</ele><time>2026-04-29T20:06:39.011Z</time></trkpt><trkpt lat="39.0643016" lon="0.6973942"><ele>0.0</ele><time>2026-04-29T20:06:40.01Z</time></trkpt><trkpt lat="39.064383" lon="0.6974421"><ele>0.0</ele><time>2026-04-29T20:06:41.01Z</time></trkpt><trkpt lat="39.064462" lon="0.697481"><ele>0.0</ele><time>2026-04-29T20:06:42.011Z</time></trkpt><trkpt lat="39.0645457" lon="0.69754"><ele>0.0</ele><time>2026-04-29T20:06:43.011Z</time></trkpt><trkpt lat="39.0646278" lon="0.6975822"><ele>0.0</ele><time>2026-04-29T20:06:44.01Z</time></trkpt><trkpt lat="39.06471" lon="0.6976229"><ele>0.0</ele><time>2026-04-29T20:06:45.01Z</time></trkpt><trkpt lat="39.0647901" lon="0.6976642"><ele>0.0</ele><time>2026-04-29T20:06:46.011Z</time></trkpt><trkpt lat="39.0648686" lon="0.6977027"><ele>0.0</ele><time>2026-04-29T20:06:47.01Z</time></trkpt><trkpt lat="39.0649484" lon="0.6977438"><ele>0.0</ele><time>2026-04-29T20:06:48.01Z</time></trkpt><trkpt lat="39.0650301" lon="0.6977859"><ele>0.0</ele><time>2026-04-29T20:06:49.011Z</time></trkpt><trkpt lat="39.0651115" lon="0.6978331"><ele>0.0</ele><time>2026-04-29T20:06:50.01Z</time></trkpt><trkpt lat="39.0651948" lon="0.6978815"><ele>0.0</ele><time>2026-04-29T20:06:51.01Z</time></trkpt><trkpt lat="39.0653488" lon="0.6979642"><ele>0.0</ele><time>2026-04-29T20:06:53.01Z</time></trkpt><trkpt lat="39.0654269" lon="0.6980029"><ele>0.0</ele><time>2026-04-29T20:06:54.011Z</time></trkpt><trkpt lat="39.0655053" lon="0.6980467"><ele>0.0</ele><time>2026-04-29T20:06:55.01Z</time></trkpt><trkpt lat="39.065582" lon="0.6980879"><ele>0.0</ele><time>2026-04-29T20:06:56.01Z</time></trkpt><trkpt lat="39.0656614" lon="0.6981346"><ele>0.0</ele><time>2026-04-29T20:06:57.011Z</time></trkpt><trkpt lat="39.0657443" lon="0.6981966"><ele>0.0</ele><time>2026-04-29T20:06:58.011Z</time></trkpt><trkpt lat="39.0658294" lon="0.698249"><ele>0.0</ele><time>2026-04-29T20:06:59.011Z</time></trkpt><trkpt lat="39.0659127" lon="0.698315"><ele>0.0</ele><time>2026-04-29T20:07:00.01Z</time></trkpt><trkpt lat="39.0659933" lon="0.6983673"><ele>0.0</ele><time>2026-04-29T20:07:01.01Z</time></trkpt><trkpt lat="39.0660762" lon="0.6984129"><ele>0.0</ele><time>2026-04-29T20:07:02.011Z</time></trkpt><trkpt lat="39.066154" lon="0.6984582"><ele>0.0</ele><time>2026-04-29T20:07:03.011Z</time></trkpt><trkpt lat="39.0662336" lon="0.6985046"><ele>0.0</ele><time>2026-04-29T20:07:04.011Z</time></trkpt><trkpt lat="39.0663124" lon="0.6985536"><ele>0.0</ele><time>2026-04-29T20:07:05.011Z</time></trkpt><trkpt lat="39.066393" lon="0.6985961"><ele>0.0</ele><time>2026-04-29T20:07:06.01Z</time></trkpt><trkpt lat="39.0664731" lon="0.6986395"><ele>0.0</ele><time>2026-04-29T20:07:07.011Z</time></trkpt><trkpt lat="39.0665547" lon="0.6986785"><ele>0.0</ele><time>2026-04-29T20:07:08.01Z</time></trkpt><trkpt lat="39.0666378" lon="0.6987186"><ele>0.0</ele><time>2026-04-29T20:07:09.01Z</time></trkpt><trkpt lat="39.0667198" lon="0.6987619"><ele>0.0</ele><time>2026-04-29T20:07:10.01Z</time></trkpt><trkpt lat="39.0668012" lon="0.6987968"><ele>0.0</ele><time>2026-04-29T20:07:11.01Z</time></trkpt><trkpt lat="39.0668871" lon="0.698833"><ele>0.0</ele><time>2026-04-29T20:07:12.01Z</time></trkpt><trkpt lat="39.0670512" lon="0.6989141"><ele>0.0</ele><time>2026-04-29T20:07:14.011Z</time></trkpt><trkpt lat="39.0671304" lon="0.6989602"><ele>0.0</ele><time>2026-04-29T20:07:15.01Z</time></trkpt><trkpt lat="39.0672073" lon="0.6990069"><ele>0.0</ele><time>2026-04-29T20:07:16.01Z</time></trkpt><trkpt lat="39.0672836" lon="0.6990573"><ele>0.0</ele><time>2026-04-29T20:07:17.011Z</time></trkpt><trkpt lat="39.0673673" lon="0.699101"><ele>0.0</ele><time>2026-04-29T20:07:18.011Z</time></trkpt><trkpt lat="39.0674485" lon="0.6991447"><ele>0.0</ele><time>2026-04-29T20:07:19.011Z</time></trkpt><trkpt lat="39.0675288" lon="0.6991893"><ele>0.0</ele><time>2026-04-29T20:07:20.01Z</time></trkpt><trkpt lat="39.0676084" lon="0.6992368"><ele>0.0</ele><time>2026-04-29T20:07:21.01Z</time></trkpt><trkpt lat="39.0676913" lon="0.6992805"><ele>0.0</ele><time>2026-04-29T20:07:22.011Z</time></trkpt><trkpt lat="39.0677687" lon="0.6993241"><ele>0.0</ele><time>2026-04-29T20:07:23.011Z</time></trkpt><trkpt lat="39.0678456" lon="0.6993706"><ele>0.0</ele><time>2026-04-29T20:07:24.01Z</time></trkpt><trkpt lat="39.067925" lon="0.6994194"><ele>0.0</ele><time>2026-04-29T20:07:25.011Z</time></trkpt><trkpt lat="39.0680023" lon="0.6994602"><ele>0.0</ele><time>2026-04-29T20:07:26.01Z</time></trkpt><trkpt lat="39.0680713" lon="0.6994898"><ele>0.0</ele><time>2026-04-29T20:07:27.011Z</time></trkpt><trkpt lat="39.0681528" lon="0.6995235"><ele>0.0</ele><time>2026-04-29T20:07:28.011Z</time></trkpt><trkpt lat="39.0682348" lon="0.6995596"><ele>0.0</ele><time>2026-04-29T20:07:29.01Z</time></trkpt><trkpt lat="39.0683152" lon="0.6995965"><ele>0.0</ele><time>2026-04-29T20:07:30.01Z</time></trkpt><trkpt lat="39.0683953" lon="0.6996383"><ele>0.0</ele><time>2026-04-29T20:07:31.011Z</time></trkpt><trkpt lat="39.0684749" lon="0.6996772"><ele>0.0</ele><time>2026-04-29T20:07:32.01Z</time></trkpt><trkpt lat="39.068555" lon="0.6997146"><ele>0.0</ele><time>2026-04-29T20:07:33.011Z</time></trkpt><trkpt lat="39.0687134" lon="0.6997683"><ele>0.0</ele><time>2026-04-29T20:07:35.011Z</time></trkpt><trkpt lat="39.0687918" lon="0.6997988"><ele>0.0</ele><time>2026-04-29T20:07:36.011Z</time></trkpt><trkpt lat="39.0688684" lon="0.6998299"><ele>0.0</ele><time>2026-04-29T20:07:37.011Z</time></trkpt><trkpt lat="39.0689466" lon="0.6998711"><ele>0.0</ele><time>2026-04-29T20:07:38.011Z</time></trkpt><trkpt lat="39.0690223" lon="0.6999136"><ele>0.0</ele><time>2026-04-29T20:07:39.01Z</time></trkpt><trkpt lat="39.069104" lon="0.6999583"><ele>0.0</ele><time>2026-04-29T20:07:40.01Z</time></trkpt><trkpt lat="39.069186" lon="0.700008"><ele>0.0</ele><time>2026-04-29T20:07:41.011Z</time></trkpt><trkpt lat="39.0692665" lon="0.7000541"><ele>0.0</ele><time>2026-04-29T20:07:42.011Z</time></trkpt><trkpt lat="39.0693483" lon="0.7000952"><ele>0.0</ele><time>2026-04-29T20:07:43.011Z</time></trkpt><trkpt lat="39.0694281" lon="0.7001374"><ele>0.0</ele><time>2026-04-29T20:07:44.011Z</time></trkpt><trkpt lat="39.069504" lon="0.7001877"><ele>0.0</ele><time>2026-04-29T20:07:45.011Z</time></trkpt><trkpt lat="39.0695875" lon="0.7002352"><ele>0.0</ele><time>2026-04-29T20:07:46.01Z</time></trkpt><trkpt lat="39.0696709" lon="0.7002791"><ele>0.0</ele><time>2026-04-29T20:07:47.01Z</time></trkpt><trkpt lat="39.0697572" lon="0.7003237"><ele>0.0</ele><time>2026-04-29T20:07:48.01Z</time></trkpt><trkpt lat="39.0698366" lon="0.7003734"><ele>0.0</ele><time>2026-04-29T20:07:49.01Z</time></trkpt><trkpt lat="39.0699165" lon="0.7004166"><ele>0.0</ele><time>2026-04-29T20:07:50.01Z</time></trkpt><trkpt lat="39.0699967" lon="0.7004606"><ele>0.0</ele><time>2026-04-29T20:07:51.01Z</time></trkpt><trkpt lat="39.070078" lon="0.7005039"><ele>0.0</ele><time>2026-04-29T20:07:52.01Z</time></trkpt><trkpt lat="39.0701581" lon="0.7005486"><ele>0.0</ele><time>2026-04-29T20:07:53.011Z</time></trkpt><trkpt lat="39.0702393" lon="0.7005954"><ele>0.0</ele><time>2026-04-29T20:07:54.011Z</time></trkpt><trkpt lat="39.0704" lon="0.7006783"><ele>0.0</ele><time>2026-04-29T20:07:56.01Z</time></trkpt><trkpt lat="39.0704784" lon="0.7007182"><ele>0.0</ele><time>2026-04-29T20:07:57.01Z</time></trkpt><trkpt lat="39.070554" lon="0.7007551"><ele>0.0</ele><time>2026-04-29T20:07:58.01Z</time></trkpt><trkpt lat="39.0706285" lon="0.7007965"><ele>0.0</ele><time>2026-04-29T20:07:59.01Z</time></trkpt><trkpt lat="39.0707063" lon="0.700836"><ele>0.0</ele><time>2026-04-29T20:08:00.01Z</time></trkpt><trkpt lat="39.0707836" lon="0.7008761"><ele>0.0</ele><time>2026-04-29T20:08:01.01Z</time></trkpt><trkpt lat="39.0708619" lon="0.7009176"><ele>0.0</ele><time>2026-04-29T20:08:02.011Z</time></trkpt><trkpt lat="39.0709387" lon="0.7009552"><ele>0.0</ele><time>2026-04-29T20:08:03.01Z</time></trkpt><trkpt lat="39.0710199" lon="0.700993"><ele>0.0</ele><time>2026-04-29T20:08:04.011Z</time></trkpt><trkpt lat="39.0710985" lon="0.7010343"><ele>0.0</ele><time>2026-04-29T20:08:05.01Z</time></trkpt><trkpt lat="39.0711808" lon="0.7010771"><ele>0.0</ele><time>2026-04-29T20:08:06.01Z</time></trkpt><trkpt lat="39.0712614" lon="0.7011321"><ele>0.0</ele><time>2026-04-29T20:08:07.01Z</time></trkpt><trkpt lat="39.0713419" lon="0.7011887"><ele>0.0</ele><time>2026-04-29T20:08:08.011Z</time></trkpt><trkpt lat="39.0714243" lon="0.7012532"><ele>0.0</ele><time>2026-04-29T20:08:09.011Z</time></trkpt><trkpt lat="39.0715021" lon="0.7013037"><ele>0.0</ele><time>2026-04-29T20:08:10.011Z</time></trkpt><trkpt lat="39.0715787" lon="0.7013495"><ele>0.0</ele><time>2026-04-29T20:08:11.011Z</time></trkpt><trkpt lat="39.0716554" lon="0.701389"><ele>0.0</ele><time>2026-04-29T20:08:12.01Z</time></trkpt><trkpt lat="39.0717322" lon="0.7014216"><ele>0.0</ele><time>2026-04-29T20:08:13.011Z</time></trkpt><trkpt lat="39.0718117" lon="0.7014661"><ele>0.0</ele><time>2026-04-29T20:08:14.011Z</time></trkpt><trkpt lat="39.0718902" lon="0.7015082"><ele>0.0</ele><time>2026-04-29T20:08:15.01Z</time></trkpt><trkpt lat="39.0720498" lon="0.7015957"><ele>0.0</ele><time>2026-04-29T20:08:17.01Z</time></trkpt><trkpt lat="39.0721274" lon="0.7016346"><ele>0.0</ele><time>2026-04-29T20:08:18.011Z</time></trkpt><trkpt lat="39.0722054" lon="0.701676"><ele>0.0</ele><time>2026-04-29T20:08:19.01Z</time></trkpt><trkpt lat="39.0722808" lon="0.7017148"><ele>0.0</ele><time>2026-04-29T20:08:20.011Z</time></trkpt><trkpt lat="39.0723581" lon="0.7017546"><ele>0.0</ele><time>2026-04-29T20:08:21.011Z</time></trkpt><trkpt lat="39.0724397" lon="0.7017988"><ele>0.0</ele><time>2026-04-29T20:08:22.01Z</time></trkpt><trkpt lat="39.0725216" lon="0.7018393"><ele>0.0</ele><time>2026-04-29T20:08:23.01Z</time></trkpt><trkpt lat="39.0726018" lon="0.7018855"><ele>0.0</ele><time>2026-04-29T20:08:24.01Z</time></trkpt><trkpt lat="39.0726832" lon="0.7019349"><ele>0.0</ele><time>2026-04-29T20:08:25.011Z</time></trkpt><trkpt lat="39.0727707" lon="0.7019861"><ele>0.0</ele><time>2026-04-29T20:08:26.01Z</time></trkpt><trkpt lat="39.07286" lon="0.7020426"><ele>0.0</ele><time>2026-04-29T20:08:27.011Z</time></trkpt><trkpt lat="39.0729462" lon="0.7020894"><ele>0.0</ele><time>2026-04-29T20:08:28.01Z</time></trkpt><trkpt lat="39.0730269" lon="0.702136"><ele>0.0</ele><time>2026-04-29T20:08:29.011Z</time></trkpt><trkpt lat="39.0731025" lon="0.7021698"><ele>0.0</ele><time>2026-04-29T20:08:30.01Z</time></trkpt><trkpt lat="39.073183" lon="0.7022084"><ele>0.0</ele><time>2026-04-29T20:08:31.011Z</time></trkpt><trkpt lat="39.0732633" lon="0.7022437"><ele>0.0</ele><time>2026-04-29T20:08:32.011Z</time></trkpt><trkpt lat="39.0733389" lon="0.7022767"><ele>0.0</ele><time>2026-04-29T20:08:33.01Z</time></trkpt><trkpt lat="39.0734183" lon="0.7023131"><ele>0.0</ele><time>2026-04-29T20:08:34.01Z</time></trkpt><trkpt lat="39.0734968" lon="0.7023495"><ele>0.0</ele><time>2026-04-29T20:08:35.01Z</time></trkpt><trkpt lat="39.0735775" lon="0.7023977"><ele>0.0</ele><time>2026-04-29T20:08:36.011Z</time></trkpt><trkpt lat="39.0737463" lon="0.7024951"><ele>0.0</ele><time>2026-04-29T20:08:38.011Z</time></trkpt><trkpt lat="39.073832" lon="0.7025442"><ele>0.0</ele><time>2026-04-29T20:08:39.01Z</time></trkpt><trkpt lat="39.0739258" lon="0.7026087"><ele>0.0</ele><time>2026-04-29T20:08:40.01Z</time></trkpt><trkpt lat="39.0740094" lon="0.7026687"><ele>0.0</ele><time>2026-04-29T20:08:41.01Z</time></trkpt><trkpt lat="39.0740908" lon="0.7027286"><ele>0.0</ele><time>2026-04-29T20:08:42.01Z</time></trkpt><trkpt lat="39.0741727" lon="0.7027804"><ele>0.0</ele><time>2026-04-29T20:08:43.01Z</time></trkpt><trkpt lat="39.0742576" lon="0.7028362"><ele>0.0</ele><time>2026-04-29T20:08:44.01Z</time></trkpt><trkpt lat="39.0743383" lon="0.7028864"><ele>0.0</ele><time>2026-04-29T20:08:45.01Z</time></trkpt><trkpt lat="39.0744184" lon="0.7029361"><ele>0.0</ele><time>2026-04-29T20:08:46.01Z</time></trkpt><trkpt lat="39.0744926" lon="0.7029859"><ele>0.0</ele><time>2026-04-29T20:08:47.01Z</time></trkpt><trkpt lat="39.0745717" lon="0.7030333"><ele>0.0</ele><time>2026-04-29T20:08:48.01Z</time></trkpt><trkpt lat="39.0746546" lon="0.7030573"><ele>0.0</ele><time>2026-04-29T20:08:49.01Z</time></trkpt><trkpt lat="39.0747352" lon="0.7030699"><ele>0.0</ele><time>2026-04-29T20:08:50.01Z</time></trkpt><trkpt lat="39.0748166" lon="0.7031092"><ele>0.0</ele><time>2026-04-29T20:08:51.01Z</time></trkpt><trkpt lat="39.0748958" lon="0.7031405"><ele>0.0</ele><time>2026-04-29T20:08:52.011Z</time></trkpt><trkpt lat="39.0749722" lon="0.7031712"><ele>0.0</ele><time>2026-04-29T20:08:53.01Z</time></trkpt><trkpt lat="39.0750482" lon="0.7032083"><ele>0.0</ele><time>2026-04-29T20:08:54.01Z</time></trkpt><trkpt lat="39.0751269" lon="0.7032511"><ele>0.0</ele><time>2026-04-29T20:08:55.01Z</time></trkpt><trkpt lat="39.0752052" lon="0.7032901"><ele>0.0</ele><time>2026-04-29T20:08:56.01Z</time></trkpt><trkpt lat="39.0752819" lon="0.7033368"><ele>0.0</ele><time>2026-04-29T20:08:57.011Z</time></trkpt><trkpt lat="39.0754389" lon="0.7034282"><ele>0.0</ele><time>2026-04-29T20:08:59.01Z</time></trkpt><trkpt lat="39.075517" lon="0.7034692"><ele>0.0</ele><time>2026-04-29T20:09:00.01Z</time></trkpt><trkpt lat="39.0755984" lon="0.7035117"><ele>0.0</ele><time>2026-04-29T20:09:01.01Z</time></trkpt><trkpt lat="39.0756798" lon="0.7035533"><ele>0.0</ele><time>2026-04-29T20:09:02.011Z</time></trkpt><trkpt lat="39.0757642" lon="0.7036004"><ele>0.0</ele><time>2026-04-29T20:09:03.011Z</time></trkpt><trkpt lat="39.0758426" lon="0.703647"><ele>0.0</ele><time>2026-04-29T20:09:04.011Z</time></trkpt><trkpt lat="39.0759189" lon="0.7036912"><ele>0.0</ele><time>2026-04-29T20:09:05.011Z</time></trkpt><trkpt lat="39.0759956" lon="0.7037407"><ele>0.0</ele><time>2026-04-29T20:09:06.01Z</time></trkpt><trkpt lat="39.0760723" lon="0.7037898"><ele>0.0</ele><time>2026-04-29T20:09:07.01Z</time></trkpt><trkpt lat="39.0761501" lon="0.7038271"><ele>0.0</ele><time>2026-04-29T20:09:08.011Z</time></trkpt><trkpt lat="39.0762288" lon="0.7038692"><ele>0.0</ele><time>2026-04-29T20:09:09.01Z</time></trkpt><trkpt lat="39.0763112" lon="0.7039128"><ele>0.0</ele><time>2026-04-29T20:09:10.011Z</time></trkpt><trkpt lat="39.0763874" lon="0.7039518"><ele>0.0</ele><time>2026-04-29T20:09:11.01Z</time></trkpt><trkpt lat="39.0764678" lon="0.7039957"><ele>0.0</ele><time>2026-04-29T20:09:12.011Z</time></trkpt><trkpt lat="39.0765497" lon="0.7040396"><ele>0.0</ele><time>2026-04-29T20:09:13.01Z</time></trkpt><trkpt lat="39.0766343" lon="0.7040859"><ele>0.0</ele><time>2026-04-29T20:09:14.01Z</time></trkpt><trkpt lat="39.0767163" lon="0.7041287"><ele>0.0</ele><time>2026-04-29T20:09:15.011Z</time></trkpt><trkpt lat="39.0767995" lon="0.7041687"><ele>0.0</ele><time>2026-04-29T20:09:16.011Z</time></trkpt><trkpt lat="39.0768845" lon="0.7042105"><ele>0.0</ele><time>2026-04-29T20:09:17.011Z</time></trkpt><trkpt lat="39.0769653" lon="0.7042597"><ele>0.0</ele><time>2026-04-29T20:09:18.01Z</time></trkpt><trkpt lat="39.077048" lon="0.7043044"><ele>0.0</ele><time>2026-04-29T20:09:19.01Z</time></trkpt><trkpt lat="39.0772069" lon="0.7043865"><ele>0.0</ele><time>2026-04-29T20:09:21.01Z</time></trkpt><trkpt lat="39.0772839" lon="0.7044298"><ele>0.0</ele><time>2026-04-29T20:09:22.011Z</time></trkpt><trkpt lat="39.077365" lon="0.7044706"><ele>0.0</ele><time>2026-04-29T20:09:23.011Z</time></trkpt><trkpt lat="39.0774451" lon="0.7045132"><ele>0.0</ele><time>2026-04-29T20:09:24.011Z</time></trkpt><trkpt lat="39.0775239" lon="0.704554"><ele>0.0</ele><time>2026-04-29T20:09:25.01Z</time></trkpt><trkpt lat="39.0776034" lon="0.7046039"><ele>0.0</ele><time>2026-04-29T20:09:26.01Z</time></trkpt><trkpt lat="39.0776865" lon="0.7046561"><ele>0.0</ele><time>2026-04-29T20:09:27.011Z</time></trkpt><trkpt lat="39.0777657" lon="0.7046963"><ele>0.0</ele><time>2026-04-29T20:09:28.01Z</time></trkpt><trkpt lat="39.0778467" lon="0.7047352"><ele>0.0</ele><time>2026-04-29T20:09:29.011Z</time></trkpt><trkpt lat="39.0779268" lon="0.7047719"><ele>0.0</ele><time>2026-04-29T20:09:30.01Z</time></trkpt><trkpt lat="39.0780003" lon="0.7048141"><ele>0.0</ele><time>2026-04-29T20:09:31.01Z</time></trkpt><trkpt lat="39.0780779" lon="0.7048544"><ele>0.0</ele><time>2026-04-29T20:09:32.01Z</time></trkpt><trkpt lat="39.0781594" lon="0.7048975"><ele>0.0</ele><time>2026-04-29T20:09:33.009Z</time></trkpt><trkpt lat="39.07824" lon="0.7049442"><ele>0.0</ele><time>2026-04-29T20:09:34.01Z</time></trkpt><trkpt lat="39.0783171" lon="0.704997"><ele>0.0</ele><time>2026-04-29T20:09:35.009Z</time></trkpt><trkpt lat="39.0783993" lon="0.7050318"><ele>0.0</ele><time>2026-04-29T20:09:36.01Z</time></trkpt><trkpt lat="39.0784856" lon="0.7050702"><ele>0.0</ele><time>2026-04-29T20:09:37.01Z</time></trkpt><trkpt lat="39.078565" lon="0.7051136"><ele>0.0</ele><time>2026-04-29T20:09:38.009Z</time></trkpt><trkpt lat="39.0786507" lon="0.7051575"><ele>0.0</ele><time>2026-04-29T20:09:39.01Z</time></trkpt><trkpt lat="39.0787349" lon="0.7052013"><ele>0.0</ele><time>2026-04-29T20:09:40.009Z</time></trkpt><trkpt lat="39.0788924" lon="0.7052878"><ele>0.0</ele><time>2026-04-29T20:09:42.009Z</time></trkpt><trkpt lat="39.0789789" lon="0.705343"><ele>0.0</ele><time>2026-04-29T20:09:43.01Z</time></trkpt><trkpt lat="39.0790573" lon="0.7053918"><ele>0.0</ele><time>2026-04-29T20:09:44.009Z</time></trkpt><trkpt lat="39.0791396" lon="0.7054411"><ele>0.0</ele><time>2026-04-29T20:09:45.01Z</time></trkpt><trkpt lat="39.0792175" lon="0.7054866"><ele>0.0</ele><time>2026-04-29T20:09:46.01Z</time></trkpt><trkpt lat="39.0792911" lon="0.7055439"><ele>0.0</ele><time>2026-04-29T20:09:47.01Z</time></trkpt><trkpt lat="39.0793744" lon="0.7055987"><ele>0.0</ele><time>2026-04-29T20:09:48.01Z</time></trkpt><trkpt lat="39.0794513" lon="0.7056418"><ele>0.0</ele><time>2026-04-29T20:09:49.01Z</time></trkpt><trkpt lat="39.0795288" lon="0.7056854"><ele>0.0</ele><time>2026-04-29T20:09:50.009Z</time></trkpt><trkpt lat="39.0796099" lon="0.7057116"><ele>0.0</ele><time>2026-04-29T20:09:51.009Z</time></trkpt><trkpt lat="39.0796899" lon="0.7057381"><ele>0.0</ele><time>2026-04-29T20:09:52.009Z</time></trkpt><trkpt lat="39.0797675" lon="0.7057759"><ele>0.0</ele><time>2026-04-29T20:09:53.009Z</time></trkpt><trkpt lat="39.0798454" lon="0.7058133"><ele>0.0</ele><time>2026-04-29T20:09:54.009Z</time></trkpt><trkpt lat="39.0799267" lon="0.7058358"><ele>0.0</ele><time>2026-04-29T20:09:55.01Z</time></trkpt><trkpt lat="39.0800095" lon="0.7058702"><ele>0.0</ele><time>2026-04-29T20:09:56.01Z</time></trkpt><trkpt lat="39.0800902" lon="0.7059115"><ele>0.0</ele><time>2026-04-29T20:09:57.009Z</time></trkpt><trkpt lat="39.0801703" lon="0.7059549"><ele>0.0</ele><time>2026-04-29T20:09:58.009Z</time></trkpt><trkpt lat="39.0802513" lon="0.7060008"><ele>0.0</ele><time>2026-04-29T20:09:59.009Z</time></trkpt><trkpt lat="39.0803304" lon="0.7060515"><ele>0.0</ele><time>2026-04-29T20:10:00.009Z</time></trkpt><trkpt lat="39.0804085" lon="0.7060882"><ele>0.0</ele><time>2026-04-29T20:10:01.01Z</time></trkpt><trkpt lat="39.0805731" lon="0.7061666"><ele>0.0</ele><time>2026-04-29T20:10:03.01Z</time></trkpt><trkpt lat="39.0806519" lon="0.7062052"><ele>0.0</ele><time>2026-04-29T20:10:04.009Z</time></trkpt><trkpt lat="39.0807275" lon="0.7062464"><ele>0.0</ele><time>2026-04-29T20:10:05.01Z</time></trkpt><trkpt lat="39.0808081" lon="0.7062888"><ele>0.0</ele><time>2026-04-29T20:10:06.01Z</time></trkpt><trkpt lat="39.0808882" lon="0.7063354"><ele>0.0</ele><time>2026-04-29T20:10:07.01Z</time></trkpt><trkpt lat="39.0809652" lon="0.7063846"><ele>0.0</ele><time>2026-04-29T20:10:08.009Z</time></trkpt><trkpt lat="39.0810464" lon="0.7064289"><ele>0.0</ele><time>2026-04-29T20:10:09.01Z</time></trkpt><trkpt lat="39.081121" lon="0.7064605"><ele>0.0</ele><time>2026-04-29T20:10:10.01Z</time></trkpt><trkpt lat="39.0811971" lon="0.7064979"><ele>0.0</ele><time>2026-04-29T20:10:11.01Z</time></trkpt><trkpt lat="39.0812766" lon="0.7065446"><ele>0.0</ele><time>2026-04-29T20:10:12.009Z</time></trkpt><trkpt lat="39.0813566" lon="0.7065912"><ele>0.0</ele><time>2026-04-29T20:10:13.01Z</time></trkpt><trkpt lat="39.0814393" lon="0.7066436"><ele>0.0</ele><time>2026-04-29T20:10:14.009Z</time></trkpt><trkpt lat="39.08152" lon="0.7066947"><ele>0.0</ele><time>2026-04-29T20:10:15.009Z</time></trkpt><trkpt lat="39.0816016" lon="0.7067434"><ele>0.0</ele><time>2026-04-29T20:10:16.009Z</time></trkpt><trkpt lat="39.0816846" lon="0.7067935"><ele>0.0</ele><time>2026-04-29T20:10:17.009Z</time></trkpt><trkpt lat="39.0817711" lon="0.7068465"><ele>0.0</ele><time>2026-04-29T20:10:18.009Z</time></trkpt><trkpt lat="39.0818562" lon="0.7068768"><ele>0.0</ele><time>2026-04-29T20:10:19.009Z</time></trkpt><trkpt lat="39.0819381" lon="0.7069118"><ele>0.0</ele><time>2026-04-29T20:10:20.01Z</time></trkpt><trkpt lat="39.0820229" lon="0.7069492"><ele>0.0</ele><time>2026-04-29T20:10:21.009Z</time></trkpt><trkpt lat="39.0821064" lon="0.7069907"><ele>0.0</ele><time>2026-04-29T20:10:22.01Z</time></trkpt><trkpt lat="39.0822595" lon="0.7070818"><ele>0.0</ele><time>2026-04-29T20:10:24.009Z</time></trkpt><trkpt lat="39.0823371" lon="0.7071329"><ele>0.0</ele><time>2026-04-29T20:10:25.01Z</time></trkpt><trkpt lat="39.0824141" lon="0.7071804"><ele>0.0</ele><time>2026-04-29T20:10:26.009Z</time></trkpt><trkpt lat="39.0824921" lon="0.707228"><ele>0.0</ele><time>2026-04-29T20:10:27.01Z</time></trkpt><trkpt lat="39.082572" lon="0.7072659"><ele>0.0</ele><time>2026-04-29T20:10:28.009Z</time></trkpt><trkpt lat="39.0826517" lon="0.7073011"><ele>0.0</ele><time>2026-04-29T20:10:29.009Z</time></trkpt><trkpt lat="39.0827316" lon="0.7073401"><ele>0.0</ele><time>2026-04-29T20:10:30.01Z</time></trkpt><trkpt lat="39.0828105" lon="0.7073871"><ele>0.0</ele><time>2026-04-29T20:10:31.009Z</time></trkpt><trkpt lat="39.0828887" lon="0.7074344"><ele>0.0</ele><time>2026-04-29T20:10:32.01Z</time></trkpt><trkpt lat="39.0829713" lon="0.7074773"><ele>0.0</ele><time>2026-04-29T20:10:33.009Z</time></trkpt><trkpt lat="39.0830529" lon="0.7075208"><ele>0.0</ele><time>2026-04-29T20:10:34.009Z</time></trkpt><trkpt lat="39.0831361" lon="0.7075611"><ele>0.0</ele><time>2026-04-29T20:10:35.01Z</time></trkpt><trkpt lat="39.0832151" lon="0.7076115"><ele>0.0</ele><time>2026-04-29T20:10:36.009Z</time></trkpt><trkpt lat="39.0832965" lon="0.7076503"><ele>0.0</ele><time>2026-04-29T20:10:37.01Z</time></trkpt><trkpt lat="39.0833781" lon="0.707698"><ele>0.0</ele><time>2026-04-29T20:10:38.009Z</time></trkpt><trkpt lat="39.0834557" lon="0.7077506"><ele>0.0</ele><time>2026-04-29T20:10:39.009Z</time></trkpt><trkpt lat="39.0835337" lon="0.7078023"><ele>0.0</ele><time>2026-04-29T20:10:40.01Z</time></trkpt><trkpt lat="39.0836134" lon="0.7078509"><ele>0.0</ele><time>2026-04-29T20:10:41.009Z</time></trkpt><trkpt lat="39.083696" lon="0.7079022"><ele>0.0</ele><time>2026-04-29T20:10:42.009Z</time></trkpt><trkpt lat="39.083778" lon="0.7079515"><ele>0.0</ele><time>2026-04-29T20:10:43.009Z</time></trkpt><trkpt lat="39.083937" lon="0.7080519"><ele>0.0</ele><time>2026-04-29T20:10:45.01Z</time></trkpt><trkpt lat="39.0840155" lon="0.7080938"><ele>0.0</ele><time>2026-04-29T20:10:46.009Z</time></trkpt><trkpt lat="39.084102" lon="0.708128"><ele>0.0</ele><time>2026-04-29T20:10:47.01Z</time></trkpt><trkpt lat="39.0841859" lon="0.7081643"><ele>0.0</ele><time>2026-04-29T20:10:48.009Z</time></trkpt><trkpt lat="39.0842682" lon="0.7081944"><ele>0.0</ele><time>2026-04-29T20:10:49.009Z</time></trkpt><trkpt lat="39.0843455" lon="0.7082322"><ele>0.0</ele><time>2026-04-29T20:10:50.01Z</time></trkpt><trkpt lat="39.0844225" lon="0.7082798"><ele>0.0</ele><time>2026-04-29T20:10:51.01Z</time></trkpt><trkpt lat="39.0844932" lon="0.7083081"><ele>0.0</ele><time>2026-04-29T20:10:52.01Z</time></trkpt><trkpt lat="39.0845719" lon="0.7083475"><ele>0.0</ele><time>2026-04-29T20:10:53.009Z</time></trkpt><trkpt lat="39.0846504" lon="0.7083917"><ele>0.0</ele><time>2026-04-29T20:10:54.01Z</time></trkpt><trkpt lat="39.0847287" lon="0.7084317"><ele>0.0</ele><time>2026-04-29T20:10:55.009Z</time></trkpt><trkpt lat="39.0848055" lon="0.7084684"><ele>0.0</ele><time>2026-04-29T20:10:56.009Z</time></trkpt><trkpt lat="39.0848849" lon="0.7085048"><ele>0.0</ele><time>2026-04-29T20:10:57.009Z</time></trkpt><trkpt lat="39.0849644" lon="0.708546"><ele>0.0</ele><time>2026-04-29T20:10:58.01Z</time></trkpt><trkpt lat="39.0850461" lon="0.7085944"><ele>0.0</ele><time>2026-04-29T20:10:59.009Z</time></trkpt><trkpt lat="39.0851295" lon="0.7086429"><ele>0.0</ele><time>2026-04-29T20:11:00.009Z</time></trkpt><trkpt lat="39.0852143" lon="0.7086884"><ele>0.0</ele><time>2026-04-29T20:11:01.009Z</time></trkpt><trkpt lat="39.0853021" lon="0.7087679"><ele>0.0</ele><time>2026-04-29T20:11:02.01Z</time></trkpt><trkpt lat="39.0853875" lon="0.7088293"><ele>0.0</ele><time>2026-04-29T20:11:03.01Z</time></trkpt><trkpt lat="39.0854697" lon="0.7089008"><ele>0.0</ele><time>2026-04-29T20:11:04.009Z</time></trkpt><trkpt lat="39.0856363" lon="0.7090155"><ele>0.0</ele><time>2026-04-29T20:11:06.009Z</time></trkpt><trkpt lat="39.0857168" lon="0.7090628"><ele>0.0</ele><time>2026-04-29T20:11:07.01Z</time></trkpt><trkpt lat="39.0857927" lon="0.7091033"><ele>0.0</ele><time>2026-04-29T20:11:08.01Z</time></trkpt><trkpt lat="39.0858705" lon="0.7091447"><ele>0.0</ele><time>2026-04-29T20:11:09.009Z</time></trkpt><trkpt lat="39.0859459" lon="0.7091913"><ele>0.0</ele><time>2026-04-29T20:11:10.009Z</time></trkpt><trkpt lat="39.0860263" lon="0.7092405"><ele>0.0</ele><time>2026-04-29T20:11:11.009Z</time></trkpt><trkpt lat="39.0861051" lon="0.7092813"><ele>0.0</ele><time>2026-04-29T20:11:12.01Z</time></trkpt><trkpt lat="39.086181" lon="0.7093103"><ele>0.0</ele><time>2026-04-29T20:11:13.009Z</time></trkpt><trkpt lat="39.0862545" lon="0.7093485"><ele>0.0</ele><time>2026-04-29T20:11:14.009Z</time></trkpt><trkpt lat="39.0863276" lon="0.7093862"><ele>0.0</ele><time>2026-04-29T20:11:15.009Z</time></trkpt><trkpt lat="39.0864104" lon="0.7094323"><ele>0.0</ele><time>2026-04-29T20:11:16.01Z</time></trkpt><trkpt lat="39.0864944" lon="0.7094837"><ele>0.0</ele><time>2026-04-29T20:11:17.01Z</time></trkpt><trkpt lat="39.0865806" lon="0.7095246"><ele>0.0</ele><time>2026-04-29T20:11:18.009Z</time></trkpt><trkpt lat="39.0866626" lon="0.7095643"><ele>0.0</ele><time>2026-04-29T20:11:19.009Z</time></trkpt><trkpt lat="39.0867501" lon="0.7096091"><ele>0.0</ele><time>2026-04-29T20:11:20.01Z</time></trkpt><trkpt lat="39.086833" lon="0.7096509"><ele>0.0</ele><time>2026-04-29T20:11:21.009Z</time></trkpt><trkpt lat="39.0869135" lon="0.7096887"><ele>0.0</ele><time>2026-04-29T20:11:22.009Z</time></trkpt><trkpt lat="39.0869962" lon="0.7097346"><ele>0.0</ele><time>2026-04-29T20:11:23.01Z</time></trkpt><trkpt lat="39.0870784" lon="0.7097789"><ele>0.0</ele><time>2026-04-29T20:11:24.01Z</time></trkpt><trkpt lat="39.087156" lon="0.7098168"><ele>0.0</ele><time>2026-04-29T20:11:25.01Z</time></trkpt><trkpt lat="39.0873212" lon="0.7098978"><ele>0.0</ele><time>2026-04-29T20:11:27.01Z</time></trkpt><trkpt lat="39.0873976" lon="0.7099397"><ele>0.0</ele><time>2026-04-29T20:11:28.01Z</time></trkpt><trkpt lat="39.0874753" lon="0.7099819"><ele>0.0</ele><time>2026-04-29T20:11:29.009Z</time></trkpt><trkpt lat="39.0875551" lon="0.7100059"><ele>0.0</ele><time>2026-04-29T20:11:30.009Z</time></trkpt><trkpt lat="39.0876321" lon="0.7100439"><ele>0.0</ele><time>2026-04-29T20:11:31.009Z</time></trkpt><trkpt lat="39.0877102" lon="0.7100811"><ele>0.0</ele><time>2026-04-29T20:11:32.009Z</time></trkpt><trkpt lat="39.0877901" lon="0.7101096"><ele>0.0</ele><time>2026-04-29T20:11:33.01Z</time></trkpt><trkpt lat="39.0878745" lon="0.7101439"><ele>0.0</ele><time>2026-04-29T20:11:34.01Z</time></trkpt><trkpt lat="39.087948" lon="0.7101815"><ele>0.0</ele><time>2026-04-29T20:11:35.009Z</time></trkpt><trkpt lat="39.0880256" lon="0.7102181"><ele>0.0</ele><time>2026-04-29T20:11:36.01Z</time></trkpt><trkpt lat="39.0881069" lon="0.7102398"><ele>0.0</ele><time>2026-04-29T20:11:37.009Z</time></trkpt><trkpt lat="39.0881856" lon="0.7102749"><ele>0.0</ele><time>2026-04-29T20:11:38.009Z</time></trkpt><trkpt lat="39.0882609" lon="0.7103087"><ele>0.0</ele><time>2026-04-29T20:11:39.009Z</time></trkpt><trkpt lat="39.088337" lon="0.7103526"><ele>0.0</ele><time>2026-04-29T20:11:40.01Z</time></trkpt><trkpt lat="39.0884156" lon="0.7103848"><ele>0.0</ele><time>2026-04-29T20:11:41.009Z</time></trkpt><trkpt lat="39.0884936" lon="0.7104291"><ele>0.0</ele><time>2026-04-29T20:11:42.01Z</time></trkpt><trkpt lat="39.088569" lon="0.7104768"><ele>0.0</ele><time>2026-04-29T20:11:43.009Z</time></trkpt><trkpt lat="39.0886484" lon="0.7105258"><ele>0.0</ele><time>2026-04-29T20:11:44.009Z</time></trkpt><trkpt lat="39.0887265" lon="0.7105742"><ele>0.0</ele><time>2026-04-29T20:11:45.01Z</time></trkpt><trkpt lat="39.0888078" lon="0.710615"><ele>0.0</ele><time>2026-04-29T20:11:46.01Z</time></trkpt><trkpt lat="39.0888921" lon="0.7106534"><ele>0.0</ele><time>2026-04-29T20:11:47.01Z</time></trkpt><trkpt lat="39.0890637" lon="0.7107416"><ele>0.0</ele><time>2026-04-29T20:11:49.009Z</time></trkpt><trkpt lat="39.0891464" lon="0.7107855"><ele>0.0</ele><time>2026-04-29T20:11:50.009Z</time></trkpt><trkpt lat="39.0892264" lon="0.7108304"><ele>0.0</ele><time>2026-04-29T20:11:51.01Z</time></trkpt><trkpt lat="39.0893075" lon="0.7108724"><ele>0.0</ele><time>2026-04-29T20:11:52.01Z</time></trkpt><trkpt lat="39.0893865" lon="0.7109189"><ele>0.0</ele><time>2026-04-29T20:11:53.01Z</time></trkpt><trkpt lat="39.0894696" lon="0.7109601"><ele>0.0</ele><time>2026-04-29T20:11:54.009Z</time></trkpt><trkpt lat="39.0895484" lon="0.7110041"><ele>0.0</ele><time>2026-04-29T20:11:55.01Z</time></trkpt><trkpt lat="39.0896244" lon="0.7110334"><ele>0.0</ele><time>2026-04-29T20:11:56.009Z</time></trkpt><trkpt lat="39.0897049" lon="0.7110733"><ele>0.0</ele><time>2026-04-29T20:11:57.01Z</time></trkpt><trkpt lat="39.0897847" lon="0.7111183"><ele>0.0</ele><time>2026-04-29T20:11:58.01Z</time></trkpt><trkpt lat="39.0898705" lon="0.7111679"><ele>0.0</ele><time>2026-04-29T20:11:59.01Z</time></trkpt><trkpt lat="39.0899502" lon="0.7112137"><ele>0.0</ele><time>2026-04-29T20:12:00.01Z</time></trkpt><trkpt lat="39.0900315" lon="0.7112741"><ele>0.0</ele><time>2026-04-29T20:12:01.01Z</time></trkpt><trkpt lat="39.0901127" lon="0.7113209"><ele>0.0</ele><time>2026-04-29T20:12:02.009Z</time></trkpt><trkpt lat="39.0901962" lon="0.7113619"><ele>0.0</ele><time>2026-04-29T20:12:03.01Z</time></trkpt><trkpt lat="39.0902806" lon="0.7114018"><ele>0.0</ele><time>2026-04-29T20:12:04.01Z</time></trkpt><trkpt lat="39.0903644" lon="0.711442"><ele>0.0</ele><time>2026-04-29T20:12:05.009Z</time></trkpt><trkpt lat="39.0904465" lon="0.7114866"><ele>0.0</ele><time>2026-04-29T20:12:06.01Z</time></trkpt><trkpt lat="39.0905252" lon="0.7115252"><ele>0.0</ele><time>2026-04-29T20:12:07.01Z</time></trkpt><trkpt lat="39.0906052" lon="0.7115717"><ele>0.0</ele><time>2026-04-29T20:12:08.009Z</time></trkpt><trkpt lat="39.0907682" lon="0.7116354"><ele>0.0</ele><time>2026-04-29T20:12:10.01Z</time></trkpt><trkpt lat="39.0908456" lon="0.7116655"><ele>0.0</ele><time>2026-04-29T20:12:11.01Z</time></trkpt><trkpt lat="39.0909249" lon="0.711686"><ele>0.0</ele><time>2026-04-29T20:12:12.009Z</time></trkpt><trkpt lat="39.0910062" lon="0.7117283"><ele>0.0</ele><time>2026-04-29T20:12:13.01Z</time></trkpt><trkpt lat="39.0910867" lon="0.711775"><ele>0.0</ele><time>2026-04-29T20:12:14.01Z</time></trkpt><trkpt lat="39.0911723" lon="0.71182"><ele>0.0</ele><time>2026-04-29T20:12:15.01Z</time></trkpt><trkpt lat="39.0912506" lon="0.7118843"><ele>0.0</ele><time>2026-04-29T20:12:16.01Z</time></trkpt><trkpt lat="39.0913302" lon="0.7119554"><ele>0.0</ele><time>2026-04-29T20:12:17.009Z</time></trkpt><trkpt lat="39.091413" lon="0.7120099"><ele>0.0</ele><time>2026-04-29T20:12:18.01Z</time></trkpt><trkpt lat="39.0914946" lon="0.7120578"><ele>0.0</ele><time>2026-04-29T20:12:19.01Z</time></trkpt><trkpt lat="39.0915776" lon="0.7120999"><ele>0.0</ele><time>2026-04-29T20:12:20.009Z</time></trkpt><trkpt lat="39.0916612" lon="0.7121431"><ele>0.0</ele><time>2026-04-29T20:12:21.009Z</time></trkpt><trkpt lat="39.0917445" lon="0.7121903"><ele>0.0</ele><time>2026-04-29T20:12:22.01Z</time></trkpt><trkpt lat="39.0918208" lon="0.7122289"><ele>0.0</ele><time>2026-04-29T20:12:23.01Z</time></trkpt><trkpt lat="39.0918911" lon="0.7122765"><ele>0.0</ele><time>2026-04-29T20:12:24.01Z</time></trkpt><trkpt lat="39.0919714" lon="0.7123221"><ele>0.0</ele><time>2026-04-29T20:12:25.009Z</time></trkpt><trkpt lat="39.0920517" lon="0.7123775"><ele>0.0</ele><time>2026-04-29T20:12:26.009Z</time></trkpt><trkpt lat="39.0921285" lon="0.712422"><ele>0.0</ele><time>2026-04-29T20:12:27.01Z</time></trkpt><trkpt lat="39.0922039" lon="0.7124651"><ele>0.0</ele><time>2026-04-29T20:12:28.01Z</time></trkpt><trkpt lat="39.0922788" lon="0.7125068"><ele>0.0</ele><time>2026-04-29T20:12:29.01Z</time></trkpt><trkpt lat="39.0923552" lon="0.7125465"><ele>0.0</ele><time>2026-04-29T20:12:30.009Z</time></trkpt><trkpt lat="39.0925149" lon="0.712635"><ele>0.0</ele><time>2026-04-29T20:12:32.009Z</time></trkpt><trkpt lat="39.092595" lon="0.7126771"><ele>0.0</ele><time>2026-04-29T20:12:33.01Z</time></trkpt><trkpt lat="39.0926763" lon="0.7127141"><ele>0.0</ele><time>2026-04-29T20:12:34.009Z</time></trkpt><trkpt lat="39.0927522" lon="0.7127604"><ele>0.0</ele><time>2026-04-29T20:12:35.009Z</time></trkpt><trkpt lat="39.0928311" lon="0.7128121"><ele>0.0</ele><time>2026-04-29T20:12:36.009Z</time></trkpt><trkpt lat="39.0929098" lon="0.712857"><ele>0.0</ele><time>2026-04-29T20:12:37.009Z</time></trkpt><trkpt lat="39.0929936" lon="0.712891"><ele>0.0</ele><time>2026-04-29T20:12:38.01Z</time></trkpt><trkpt lat="39.0930789" lon="0.7129267"><ele>0.0</ele><time>2026-04-29T20:12:39.009Z</time></trkpt><trkpt lat="39.0931611" lon="0.7129676"><ele>0.0</ele><time>2026-04-29T20:12:40.009Z</time></trkpt><trkpt lat="39.0932415" lon="0.7130126"><ele>0.0</ele><time>2026-04-29T20:12:41.01Z</time></trkpt><trkpt lat="39.0933186" lon="0.7130523"><ele>0.0</ele><time>2026-04-29T20:12:42.01Z</time></trkpt><trkpt lat="39.0933983" lon="0.7130729"><ele>0.0</ele><time>2026-04-29T20:12:43.009Z</time></trkpt><trkpt lat="39.0934729" lon="0.7131175"><ele>0.0</ele><time>2026-04-29T20:12:44.009Z</time></trkpt><trkpt lat="39.0935507" lon="0.7131641"><ele>0.0</ele><time>2026-04-29T20:12:45.009Z</time></trkpt><trkpt lat="39.0936298" lon="0.7132087"><ele>0.0</ele><time>2026-04-29T20:12:46.01Z</time></trkpt><trkpt lat="39.0937098" lon="0.7132549"><ele>0.0</ele><time>2026-04-29T20:12:47.009Z</time></trkpt><trkpt lat="39.0937855" lon="0.7132972"><ele>0.0</ele><time>2026-04-29T20:12:48.009Z</time></trkpt><trkpt lat="39.0938673" lon="0.7133229"><ele>0.0</ele><time>2026-04-29T20:12:49.01Z</time></trkpt><trkpt lat="39.0939524" lon="0.7133649"><ele>0.0</ele><time>2026-04-29T20:12:50.009Z</time></trkpt><trkpt lat="39.094039" lon="0.7134011"><ele>0.0</ele><time>2026-04-29T20:12:51.009Z</time></trkpt><trkpt lat="39.0941988" lon="0.7134881"><ele>0.0</ele><time>2026-04-29T20:12:53.009Z</time></trkpt><trkpt lat="39.0942773" lon="0.7135301"><ele>0.0</ele><time>2026-04-29T20:12:54.009Z</time></trkpt><trkpt lat="39.0943567" lon="0.7135738"><ele>0.0</ele><time>2026-04-29T20:12:55.01Z</time></trkpt><trkpt lat="39.0944367" lon="0.7136209"><ele>0.0</ele><time>2026-04-29T20:12:56.009Z</time></trkpt><trkpt lat="39.0945155" lon="0.7136723"><ele>0.0</ele><time>2026-04-29T20:12:57.01Z</time></trkpt><trkpt lat="39.0945965" lon="0.7137176"><ele>0.0</ele><time>2026-04-29T20:12:58.009Z</time></trkpt><trkpt lat="39.0946783" lon="0.7137597"><ele>0.0</ele><time>2026-04-29T20:12:59.01Z</time></trkpt><trkpt lat="39.0947612" lon="0.7138059"><ele>0.0</ele><time>2026-04-29T20:13:00.009Z</time></trkpt><trkpt lat="39.0948433" lon="0.7138529"><ele>0.0</ele><time>2026-04-29T20:13:01.01Z</time></trkpt><trkpt lat="39.094922" lon="0.7138967"><ele>0.0</ele><time>2026-04-29T20:13:02.009Z</time></trkpt><trkpt lat="39.0950005" lon="0.7139416"><ele>0.0</ele><time>2026-04-29T20:13:03.01Z</time></trkpt><trkpt lat="39.0950788" lon="0.7139831"><ele>0.0</ele><time>2026-04-29T20:13:04.01Z</time></trkpt><trkpt lat="39.0951682" lon="0.7140345"><ele>0.0</ele><time>2026-04-29T20:13:05.01Z</time></trkpt><trkpt lat="39.0952484" lon="0.7141175"><ele>0.0</ele><time>2026-04-29T20:13:06.01Z</time></trkpt><trkpt lat="39.095334" lon="0.7141968"><ele>0.0</ele><time>2026-04-29T20:13:07.01Z</time></trkpt><trkpt lat="39.0954166" lon="0.7142498"><ele>0.0</ele><time>2026-04-29T20:13:08.009Z</time></trkpt><trkpt lat="39.0954936" lon="0.7142953"><ele>0.0</ele><time>2026-04-29T20:13:09.009Z</time></trkpt><trkpt lat="39.095572" lon="0.7143342"><ele>0.0</ele><time>2026-04-29T20:13:10.009Z</time></trkpt><trkpt lat="39.0956545" lon="0.7143723"><ele>0.0</ele><time>2026-04-29T20:13:11.009Z</time></trkpt><trkpt lat="39.0957365" lon="0.7144079"><ele>0.0</ele><time>2026-04-29T20:13:12.009Z</time></trkpt><trkpt lat="39.0958969" lon="0.7144928"><ele>0.0</ele><time>2026-04-29T20:13:14.009Z</time></trkpt><trkpt lat="39.0959725" lon="0.7145321"><ele>0.0</ele><time>2026-04-29T20:13:15.009Z</time></trkpt><trkpt lat="39.0960491" lon="0.7145721"><ele>0.0</ele><time>2026-04-29T20:13:16.009Z</time></trkpt><trkpt lat="39.0961286" lon="0.714605"><ele>0.0</ele><time>2026-04-29T20:13:17.009Z</time></trkpt><trkpt lat="39.0962117" lon="0.7146297"><ele>0.0</ele><time>2026-04-29T20:13:18.01Z</time></trkpt><trkpt lat="39.0962932" lon="0.7146632"><ele>0.0</ele><time>2026-04-29T20:13:19.01Z</time></trkpt><trkpt lat="39.096375" lon="0.7147037"><ele>0.0</ele><time>2026-04-29T20:13:20.009Z</time></trkpt><trkpt lat="39.0964553" lon="0.7147451"><ele>0.0</ele><time>2026-04-29T20:13:21.009Z</time></trkpt><trkpt lat="39.0965354" lon="0.7147661"><ele>0.0</ele><time>2026-04-29T20:13:22.009Z</time></trkpt><trkpt lat="39.0966181" lon="0.714784"><ele>0.0</ele><time>2026-04-29T20:13:23.009Z</time></trkpt><trkpt lat="39.0966995" lon="0.7148181"><ele>0.0</ele><time>2026-04-29T20:13:24.009Z</time></trkpt><trkpt lat="39.0967755" lon="0.7148533"><ele>0.0</ele><time>2026-04-29T20:13:25.009Z</time></trkpt><trkpt lat="39.0968478" lon="0.7148912"><ele>0.0</ele><time>2026-04-29T20:13:26.009Z</time></trkpt><trkpt lat="39.0969297" lon="0.7149403"><ele>0.0</ele><time>2026-04-29T20:13:27.009Z</time></trkpt><trkpt lat="39.0970141" lon="0.7150008"><ele>0.0</ele><time>2026-04-29T20:13:28.009Z</time></trkpt><trkpt lat="39.097098" lon="0.7150617"><ele>0.0</ele><time>2026-04-29T20:13:29.01Z</time></trkpt><trkpt lat="39.0971801" lon="0.71513"><ele>0.0</ele><time>2026-04-29T20:13:30.01Z</time></trkpt><trkpt lat="39.0972644" lon="0.7152112"><ele>0.0</ele><time>2026-04-29T20:13:31.01Z</time></trkpt><trkpt lat="39.0973454" lon="0.7152583"><ele>0.0</ele><time>2026-04-29T20:13:32.01Z</time></trkpt><trkpt lat="39.0974237" lon="0.7153029"><ele>0.0</ele><time>2026-04-29T20:13:33.009Z</time></trkpt><trkpt lat="39.0975879" lon="0.7153651"><ele>0.0</ele><time>2026-04-29T20:13:35.009Z</time></trkpt><trkpt lat="39.0976653" lon="0.71539"><ele>0.0</ele><time>2026-04-29T20:13:36.01Z</time></trkpt><trkpt lat="39.0977364" lon="0.7154209"><ele>0.0</ele><time>2026-04-29T20:13:37.009Z</time></trkpt><trkpt lat="39.0978134" lon="0.7154608"><ele>0.0</ele><time>2026-04-29T20:13:38.009Z</time></trkpt><trkpt lat="39.0978946" lon="0.7155021"><ele>0.0</ele><time>2026-04-29T20:13:39.009Z</time></trkpt><trkpt lat="39.0979762" lon="0.7155468"><ele>0.0</ele><time>2026-04-29T20:13:40.009Z</time></trkpt><trkpt lat="39.0980592" lon="0.7155748"><ele>0.0</ele><time>2026-04-29T20:13:41.009Z</time></trkpt><trkpt lat="39.0981411" lon="0.7156039"><ele>0.0</ele><time>2026-04-29T20:13:42.009Z</time></trkpt><trkpt lat="39.0982231" lon="0.7156451"><ele>0.0</ele><time>2026-04-29T20:13:43.009Z</time></trkpt><trkpt lat="39.0983065" lon="0.7156872"><ele>0.0</ele><time>2026-04-29T20:13:44.01Z</time></trkpt><trkpt lat="39.0983899" lon="0.7157361"><ele>0.0</ele><time>2026-04-29T20:13:45.01Z</time></trkpt><trkpt lat="39.0984673" lon="0.7157818"><ele>0.0</ele><time>2026-04-29T20:13:46.009Z</time></trkpt><trkpt lat="39.0985512" lon="0.7158322"><ele>0.0</ele><time>2026-04-29T20:13:47.01Z</time></trkpt><trkpt lat="39.098619" lon="0.7158537"><ele>0.0</ele><time>2026-04-29T20:13:48.01Z</time></trkpt><trkpt lat="39.0986969" lon="0.7158834"><ele>0.0</ele><time>2026-04-29T20:13:49.009Z</time></trkpt><trkpt lat="39.0987768" lon="0.7159177"><ele>0.0</ele><time>2026-04-29T20:13:50.01Z</time></trkpt><trkpt lat="39.09886" lon="0.7159486"><ele>0.0</ele><time>2026-04-29T20:13:51.009Z</time></trkpt><trkpt lat="39.0989401" lon="0.7159873"><ele>0.0</ele><time>2026-04-29T20:13:52.009Z</time></trkpt><trkpt lat="39.0990228" lon="0.7160316"><ele>0.0</ele><time>2026-04-29T20:13:53.009Z</time></trkpt><trkpt lat="39.0991046" lon="0.7160796"><ele>0.0</ele><time>2026-04-29T20:13:54.01Z</time></trkpt><trkpt lat="39.0992577" lon="0.7161567"><ele>0.0</ele><time>2026-04-29T20:13:56.009Z</time></trkpt><trkpt lat="39.0993379" lon="0.7161851"><ele>0.0</ele><time>2026-04-29T20:13:57.01Z</time></trkpt><trkpt lat="39.0994208" lon="0.7162197"><ele>0.0</ele><time>2026-04-29T20:13:58.01Z</time></trkpt><trkpt lat="39.0995001" lon="0.7162544"><ele>0.0</ele><time>2026-04-29T20:13:59.009Z</time></trkpt><trkpt lat="39.0995768" lon="0.7162864"><ele>0.0</ele><time>2026-04-29T20:14:00.009Z</time></trkpt><trkpt lat="39.0996505" lon="0.716331"><ele>0.0</ele><time>2026-04-29T20:14:01.009Z</time></trkpt><trkpt lat="39.0997408" lon="0.7163831"><ele>0.0</ele><time>2026-04-29T20:14:02.009Z</time></trkpt><trkpt lat="39.0998227" lon="0.7164315"><ele>0.0</ele><time>2026-04-29T20:14:03.01Z</time></trkpt><trkpt lat="39.0999044" lon="0.7164774"><ele>0.0</ele><time>2026-04-29T20:14:04.009Z</time></trkpt><trkpt lat="39.0999821" lon="0.7165346"><ele>0.0</ele><time>2026-04-29T20:14:05.009Z</time></trkpt><trkpt lat="39.1000617" lon="0.7165863"><ele>0.0</ele><time>2026-04-29T20:14:06.01Z</time></trkpt><trkpt lat="39.1001391" lon="0.7166316"><ele>0.0</ele><time>2026-04-29T20:14:07.009Z</time></trkpt><trkpt lat="39.1002173" lon="0.7166819"><ele>0.0</ele><time>2026-04-29T20:14:08.009Z</time></trkpt><trkpt lat="39.1002955" lon="0.7167305"><ele>0.0</ele><time>2026-04-29T20:14:09.009Z</time></trkpt><trkpt lat="39.1003723" lon="0.7167806"><ele>0.0</ele><time>2026-04-29T20:14:10.009Z</time></trkpt><trkpt lat="39.1004546" lon="0.7168292"><ele>0.0</ele><time>2026-04-29T20:14:11.009Z</time></trkpt><trkpt lat="39.1005292" lon="0.7168665"><ele>0.0</ele><time>2026-04-29T20:14:12.008Z</time></trkpt><trkpt lat="39.1006112" lon="0.7169127"><ele>0.0</ele><time>2026-04-29T20:14:13.008Z</time></trkpt><trkpt lat="39.1006961" lon="0.7169578"><ele>0.0</ele><time>2026-04-29T20:14:14.009Z</time></trkpt><trkpt lat="39.1007767" lon="0.7170028"><ele>0.0</ele><time>2026-04-29T20:14:15.009Z</time></trkpt><trkpt lat="39.1009379" lon="0.7170952"><ele>0.0</ele><time>2026-04-29T20:14:17.008Z</time></trkpt><trkpt lat="39.1010167" lon="0.7171279"><ele>0.0</ele><time>2026-04-29T20:14:18.008Z</time></trkpt><trkpt lat="39.1011036" lon="0.7171467"><ele>0.0</ele><time>2026-04-29T20:14:19.009Z</time></trkpt><trkpt lat="39.1011833" lon="0.7171876"><ele>0.0</ele><time>2026-04-29T20:14:20.008Z</time></trkpt><trkpt lat="39.1012618" lon="0.7172408"><ele>0.0</ele><time>2026-04-29T20:14:21.008Z</time></trkpt><trkpt lat="39.1013417" lon="0.7173001"><ele>0.0</ele><time>2026-04-29T20:14:22.008Z</time></trkpt><trkpt lat="39.1014214" lon="0.7173565"><ele>0.0</ele><time>2026-04-29T20:14:23.008Z</time></trkpt><trkpt lat="39.1015016" lon="0.7174042"><ele>0.0</ele><time>2026-04-29T20:14:24.008Z</time></trkpt><trkpt lat="39.1015828" lon="0.7174517"><ele>0.0</ele><time>2026-04-29T20:14:25.009Z</time></trkpt><trkpt lat="39.1016603" lon="0.7174926"><ele>0.0</ele><time>2026-04-29T20:14:26.009Z</time></trkpt><trkpt lat="39.1017424" lon="0.7175368"><ele>0.0</ele><time>2026-04-29T20:14:27.009Z</time></trkpt><trkpt lat="39.1018259" lon="0.7175881"><ele>0.0</ele><time>2026-04-29T20:14:28.009Z</time></trkpt><trkpt lat="39.1019109" lon="0.7176529"><ele>0.0</ele><time>2026-04-29T20:14:29.009Z</time></trkpt><trkpt lat="39.1019916" lon="0.717704"><ele>0.0</ele><time>2026-04-29T20:14:30.009Z</time></trkpt><trkpt lat="39.1020718" lon="0.7177452"><ele>0.0</ele><time>2026-04-29T20:14:31.009Z</time></trkpt><trkpt lat="39.102153" lon="0.7177906"><ele>0.0</ele><time>2026-04-29T20:14:32.009Z</time></trkpt><trkpt lat="39.1022362" lon="0.7178354"><ele>0.0</ele><time>2026-04-29T20:14:33.008Z</time></trkpt><trkpt lat="39.1023124" lon="0.7178761"><ele>0.0</ele><time>2026-04-29T20:14:34.009Z</time></trkpt><trkpt lat="39.1023874" lon="0.7179232"><ele>0.0</ele><time>2026-04-29T20:14:35.009Z</time></trkpt><trkpt lat="39.1024684" lon="0.7179656"><ele>0.0</ele><time>2026-04-29T20:14:36.008Z</time></trkpt><trkpt lat="39.1025497" lon="0.718012"><ele>0.0</ele><time>2026-04-29T20:14:37.008Z</time></trkpt><trkpt lat="39.1027102" lon="0.7180937"><ele>0.0</ele><time>2026-04-29T20:14:39.008Z</time></trkpt><trkpt lat="39.1027858" lon="0.7181326"><ele>0.0</ele><time>2026-04-29T20:14:40.008Z</time></trkpt><trkpt lat="39.1028666" lon="0.718177"><ele>0.0</ele><time>2026-04-29T20:14:41.008Z</time></trkpt><trkpt lat="39.1029481" lon="0.718235"><ele>0.0</ele><time>2026-04-29T20:14:42.008Z</time></trkpt><trkpt lat="39.1030329" lon="0.7182998"><ele>0.0</ele><time>2026-04-29T20:14:43.009Z</time></trkpt><trkpt lat="39.1031135" lon="0.7183469"><ele>0.0</ele><time>2026-04-29T20:14:44.009Z</time></trkpt><trkpt lat="39.1031925" lon="0.7183816"><ele>0.0</ele><time>2026-04-29T20:14:45.009Z</time></trkpt><trkpt lat="39.1032707" lon="0.7184129"><ele>0.0</ele><time>2026-04-29T20:14:46.009Z</time></trkpt><trkpt lat="39.1033506" lon="0.7184498"><ele>0.0</ele><time>2026-04-29T20:14:47.009Z</time></trkpt><trkpt lat="39.1034334" lon="0.7184708"><ele>0.0</ele><time>2026-04-29T20:14:48.008Z</time></trkpt><trkpt lat="39.103515" lon="0.7184961"><ele>0.0</ele><time>2026-04-29T20:14:49.009Z</time></trkpt><trkpt lat="39.1035932" lon="0.7185286"><ele>0.0</ele><time>2026-04-29T20:14:50.009Z</time></trkpt><trkpt lat="39.1036773" lon="0.7185662"><ele>0.0</ele><time>2026-04-29T20:14:51.009Z</time></trkpt><trkpt lat="39.1037612" lon="0.7186068"><ele>0.0</ele><time>2026-04-29T20:14:52.008Z</time></trkpt><trkpt lat="39.1038444" lon="0.7186506"><ele>0.0</ele><time>2026-04-29T20:14:53.009Z</time></trkpt><trkpt lat="39.1039309" lon="0.7187159"><ele>0.0</ele><time>2026-04-29T20:14:54.008Z</time></trkpt><trkpt lat="39.1040203" lon="0.718777"><ele>0.0</ele><time>2026-04-29T20:14:55.008Z</time></trkpt><trkpt lat="39.1041017" lon="0.718819"><ele>0.0</ele><time>2026-04-29T20:14:56.009Z</time></trkpt><trkpt lat="39.1041819" lon="0.718861"><ele>0.0</ele><time>2026-04-29T20:14:57.009Z</time></trkpt><trkpt lat="39.1042615" lon="0.718898"><ele>0.0</ele><time>2026-04-29T20:14:58.009Z</time></trkpt><trkpt lat="39.1044183" lon="0.7189507"><ele>0.0</ele><time>2026-04-29T20:15:00.009Z</time></trkpt><trkpt lat="39.1045052" lon="0.7190015"><ele>0.0</ele><time>2026-04-29T20:15:01.008Z</time></trkpt><trkpt lat="39.1045881" lon="0.7190412"><ele>0.0</ele><time>2026-04-29T20:15:02.008Z</time></trkpt><trkpt lat="39.1046684" lon="0.7190723"><ele>0.0</ele><time>2026-04-29T20:15:03.008Z</time></trkpt><trkpt lat="39.1047483" lon="0.7191142"><ele>0.0</ele><time>2026-04-29T20:15:04.008Z</time></trkpt><trkpt lat="39.104841" lon="0.7191672"><ele>0.0</ele><time>2026-04-29T20:15:05.009Z</time></trkpt><trkpt lat="39.1049258" lon="0.7192225"><ele>0.0</ele><time>2026-04-29T20:15:06.009Z</time></trkpt><trkpt lat="39.1050093" lon="0.7192719"><ele>0.0</ele><time>2026-04-29T20:15:07.008Z</time></trkpt><trkpt lat="39.1050888" lon="0.7193432"><ele>0.0</ele><time>2026-04-29T20:15:08.008Z</time></trkpt><trkpt lat="39.1051586" lon="0.7194171"><ele>0.0</ele><time>2026-04-29T20:15:09.008Z</time></trkpt><trkpt lat="39.105238" lon="0.7194767"><ele>0.0</ele><time>2026-04-29T20:15:10.009Z</time></trkpt><trkpt lat="39.1053195" lon="0.7195333"><ele>0.0</ele><time>2026-04-29T20:15:11.009Z</time></trkpt><trkpt lat="39.1054015" lon="0.7195856"><ele>0.0</ele><time>2026-04-29T20:15:12.008Z</time></trkpt><trkpt lat="39.1054788" lon="0.7196339"><ele>0.0</ele><time>2026-04-29T20:15:13.008Z</time></trkpt><trkpt lat="39.1055571" lon="0.7196712"><ele>0.0</ele><time>2026-04-29T20:15:14.009Z</time></trkpt><trkpt lat="39.1056321" lon="0.7197091"><ele>0.0</ele><time>2026-04-29T20:15:15.009Z</time></trkpt><trkpt lat="39.105713" lon="0.7197444"><ele>0.0</ele><time>2026-04-29T20:15:16.008Z</time></trkpt><trkpt lat="39.105796" lon="0.7197721"><ele>0.0</ele><time>2026-04-29T20:15:17.009Z</time></trkpt><trkpt lat="39.1058778" lon="0.7197919"><ele>0.0</ele><time>2026-04-29T20:15:18.008Z</time></trkpt><trkpt lat="39.1059552" lon="0.719829"><ele>0.0</ele><time>2026-04-29T20:15:19.008Z</time></trkpt><trkpt lat="39.1061095" lon="0.7198731"><ele>0.0</ele><time>2026-04-29T20:15:21.009Z</time></trkpt><trkpt lat="39.1061857" lon="0.7199017"><ele>0.0</ele><time>2026-04-29T20:15:22.008Z</time></trkpt><trkpt lat="39.1062666" lon="0.7199365"><ele>0.0</ele><time>2026-04-29T20:15:23.008Z</time></trkpt><trkpt lat="39.1063438" lon="0.7199746"><ele>0.0</ele><time>2026-04-29T20:15:24.008Z</time></trkpt><trkpt lat="39.1064231" lon="0.7200054"><ele>0.0</ele><time>2026-04-29T20:15:25.008Z</time></trkpt><trkpt lat="39.1065034" lon="0.7200378"><ele>0.0</ele><time>2026-04-29T20:15:26.008Z</time></trkpt><trkpt lat="39.1065834" lon="0.7200853"><ele>0.0</ele><time>2026-04-29T20:15:27.008Z</time></trkpt><trkpt lat="39.1066634" lon="0.7201349"><ele>0.0</ele><time>2026-04-29T20:15:28.009Z</time></trkpt><trkpt lat="39.1067435" lon="0.7201817"><ele>0.0</ele><time>2026-04-29T20:15:29.009Z</time></trkpt><trkpt lat="39.1068221" lon="0.720225"><ele>0.0</ele><time>2026-04-29T20:15:30.009Z</time></trkpt><trkpt lat="39.1069013" lon="0.7202581"><ele>0.0</ele><time>2026-04-29T20:15:31.009Z</time></trkpt><trkpt lat="39.1069815" lon="0.7202941"><ele>0.0</ele><time>2026-04-29T20:15:32.008Z</time></trkpt><trkpt lat="39.1070656" lon="0.720327"><ele>0.0</ele><time>2026-04-29T20:15:33.009Z</time></trkpt><trkpt lat="39.1071409" lon="0.7203655"><ele>0.0</ele><time>2026-04-29T20:15:34.008Z</time></trkpt><trkpt lat="39.1072198" lon="0.7204096"><ele>0.0</ele><time>2026-04-29T20:15:35.009Z</time></trkpt><trkpt lat="39.1072973" lon="0.7204556"><ele>0.0</ele><time>2026-04-29T20:15:36.008Z</time></trkpt><trkpt lat="39.1073755" lon="0.7205007"><ele>0.0</ele><time>2026-04-29T20:15:37.008Z</time></trkpt><trkpt lat="39.1074565" lon="0.7205369"><ele>0.0</ele><time>2026-04-29T20:15:38.009Z</time></trkpt><trkpt lat="39.1075364" lon="0.7205779"><ele>0.0</ele><time>2026-04-29T20:15:39.008Z</time></trkpt><trkpt lat="39.1076153" lon="0.7206205"><ele>0.0</ele><time>2026-04-29T20:15:40.009Z</time></trkpt><trkpt lat="39.1077005" lon="0.7206652"><ele>0.0</ele><time>2026-04-29T20:15:41.008Z</time></trkpt><trkpt lat="39.107854" lon="0.7207742"><ele>0.0</ele><time>2026-04-29T20:15:43.009Z</time></trkpt><trkpt lat="39.107932" lon="0.7208143"><ele>0.0</ele><time>2026-04-29T20:15:44.008Z</time></trkpt><trkpt lat="39.1080085" lon="0.7208544"><ele>0.0</ele><time>2026-04-29T20:15:45.008Z</time></trkpt><trkpt lat="39.1080911" lon="0.7208976"><ele>0.0</ele><time>2026-04-29T20:15:46.009Z</time></trkpt><trkpt lat="39.108173" lon="0.7209512"><ele>0.0</ele><time>2026-04-29T20:15:47.008Z</time></trkpt><trkpt lat="39.1082562" lon="0.7209975"><ele>0.0</ele><time>2026-04-29T20:15:48.009Z</time></trkpt><trkpt lat="39.1083309" lon="0.721035"><ele>0.0</ele><time>2026-04-29T20:15:49.009Z</time></trkpt><trkpt lat="39.1084145" lon="0.7210705"><ele>0.0</ele><time>2026-04-29T20:15:50.008Z</time></trkpt><trkpt lat="39.1084908" lon="0.7211239"><ele>0.0</ele><time>2026-04-29T20:15:51.008Z</time></trkpt><trkpt lat="39.1085658" lon="0.7211659"><ele>0.0</ele><time>2026-04-29T20:15:52.009Z</time></trkpt><trkpt lat="39.1086394" lon="0.7212026"><ele>0.0</ele><time>2026-04-29T20:15:53.008Z</time></trkpt><trkpt lat="39.1087154" lon="0.7212479"><ele>0.0</ele><time>2026-04-29T20:15:54.008Z</time></trkpt><trkpt lat="39.1087908" lon="0.7212963"><ele>0.0</ele><time>2026-04-29T20:15:55.008Z</time></trkpt><trkpt lat="39.108873" lon="0.7213452"><ele>0.0</ele><time>2026-04-29T20:15:56.009Z</time></trkpt><trkpt lat="39.1089553" lon="0.7213793"><ele>0.0</ele><time>2026-04-29T20:15:57.008Z</time></trkpt><trkpt lat="39.1090351" lon="0.7214132"><ele>0.0</ele><time>2026-04-29T20:15:58.008Z</time></trkpt><trkpt lat="39.109118" lon="0.7214531"><ele>0.0</ele><time>2026-04-29T20:15:59.008Z</time></trkpt><trkpt lat="39.1091972" lon="0.7214966"><ele>0.0</ele><time>2026-04-29T20:16:00.008Z</time></trkpt><trkpt lat="39.1092781" lon="0.7215397"><ele>0.0</ele><time>2026-04-29T20:16:01.009Z</time></trkpt><trkpt lat="39.1093598" lon="0.7215749"><ele>0.0</ele><time>2026-04-29T20:16:02.008Z</time></trkpt><trkpt lat="39.1095254" lon="0.721649"><ele>0.0</ele><time>2026-04-29T20:16:04.009Z</time></trkpt><trkpt lat="39.1096093" lon="0.7216904"><ele>0.0</ele><time>2026-04-29T20:16:05.008Z</time></trkpt><trkpt lat="39.1096887" lon="0.7217313"><ele>0.0</ele><time>2026-04-29T20:16:06.008Z</time></trkpt><trkpt lat="39.109767" lon="0.7217595"><ele>0.0</ele><time>2026-04-29T20:16:07.009Z</time></trkpt><trkpt lat="39.109845" lon="0.721781"><ele>0.0</ele><time>2026-04-29T20:16:08.009Z</time></trkpt><trkpt lat="39.1099275" lon="0.721821"><ele>0.0</ele><time>2026-04-29T20:16:09.008Z</time></trkpt><trkpt lat="39.1100066" lon="0.7218563"><ele>0.0</ele><time>2026-04-29T20:16:10.008Z</time></trkpt><trkpt lat="39.1100951" lon="0.7219039"><ele>0.0</ele><time>2026-04-29T20:16:11.008Z</time></trkpt><trkpt lat="39.1101822" lon="0.721949"><ele>0.0</ele><time>2026-04-29T20:16:12.008Z</time></trkpt><trkpt lat="39.1103529" lon="0.7220749"><ele>0.0</ele><time>2026-04-29T20:16:14.008Z</time></trkpt><trkpt lat="39.1104335" lon="0.722134"><ele>0.0</ele><time>2026-04-29T20:16:15.008Z</time></trkpt><trkpt lat="39.1105178" lon="0.7221956"><ele>0.0</ele><time>2026-04-29T20:16:16.009Z</time></trkpt><trkpt lat="39.1105997" lon="0.7222444"><ele>0.0</ele><time>2026-04-29T20:16:17.008Z</time></trkpt><trkpt lat="39.1106774" lon="0.7222799"><ele>0.0</ele><time>2026-04-29T20:16:18.008Z</time></trkpt><trkpt lat="39.1107502" lon="0.7223258"><ele>0.0</ele><time>2026-04-29T20:16:19.008Z</time></trkpt><trkpt lat="39.1108197" lon="0.7223715"><ele>0.0</ele><time>2026-04-29T20:16:20.008Z</time></trkpt><trkpt lat="39.110894" lon="0.7224039"><ele>0.0</ele><time>2026-04-29T20:16:21.009Z</time></trkpt><trkpt lat="39.1109763" lon="0.7224431"><ele>0.0</ele><time>2026-04-29T20:16:22.008Z</time></trkpt><trkpt lat="39.1110553" lon="0.7224853"><ele>0.0</ele><time>2026-04-29T20:16:23.009Z</time></trkpt><trkpt lat="39.1112153" lon="0.7225608"><ele>0.0</ele><time>2026-04-29T20:16:25.008Z</time></trkpt><trkpt lat="39.1112951" lon="0.7226022"><ele>0.0</ele><time>2026-04-29T20:16:26.008Z</time></trkpt><trkpt lat="39.1113748" lon="0.7226481"><ele>0.0</ele><time>2026-04-29T20:16:27.008Z</time></trkpt><trkpt lat="39.1114551" lon="0.7226949"><ele>0.0</ele><time>2026-04-29T20:16:28.009Z</time></trkpt><trkpt lat="39.1115339" lon="0.7227417"><ele>0.0</ele><time>2026-04-29T20:16:29.009Z</time></trkpt><trkpt lat="39.1116151" lon="0.7227881"><ele>0.0</ele><time>2026-04-29T20:16:30.009Z</time></trkpt><trkpt lat="39.1116966" lon="0.7228663"><ele>0.0</ele><time>2026-04-29T20:16:31.009Z</time></trkpt><trkpt lat="39.1117786" lon="0.722936"><ele>0.0</ele><time>2026-04-29T20:16:32.008Z</time></trkpt><trkpt lat="39.1118584" lon="0.7229815"><ele>0.0</ele><time>2026-04-29T20:16:33.009Z</time></trkpt><trkpt lat="39.1119397" lon="0.7230268"><ele>0.0</ele><time>2026-04-29T20:16:34.009Z</time></trkpt><trkpt lat="39.1120187" lon="0.7230737"><ele>0.0</ele><time>2026-04-29T20:16:35.009Z</time></trkpt><trkpt lat="39.1120872" lon="0.7231094"><ele>0.0</ele><time>2026-04-29T20:16:36.008Z</time></trkpt><trkpt lat="39.1121651" lon="0.7231535"><ele>0.0</ele><time>2026-04-29T20:16:37.008Z</time></trkpt><trkpt lat="39.1122507" lon="0.7231742"><ele>0.0</ele><time>2026-04-29T20:16:38.009Z</time></trkpt><trkpt lat="39.1123342" lon="0.7232102"><ele>0.0</ele><time>2026-04-29T20:16:39.009Z</time></trkpt><trkpt lat="39.112416" lon="0.7232453"><ele>0.0</ele><time>2026-04-29T20:16:40.009Z</time></trkpt><trkpt lat="39.1125049" lon="0.7232905"><ele>0.0</ele><time>2026-04-29T20:16:41.008Z</time></trkpt><trkpt lat="39.1125908" lon="0.7233495"><ele>0.0</ele><time>2026-04-29T20:16:42.008Z</time></trkpt><trkpt lat="39.1126772" lon="0.7234004"><ele>0.0</ele><time>2026-04-29T20:16:43.008Z</time></trkpt><trkpt lat="39.1127622" lon="0.7234424"><ele>0.0</ele><time>2026-04-29T20:16:44.009Z</time></trkpt><trkpt lat="39.1129236" lon="0.7235263"><ele>0.0</ele><time>2026-04-29T20:16:46.008Z</time></trkpt><trkpt lat="39.1130032" lon="0.7235679"><ele>0.0</ele><time>2026-04-29T20:16:47.008Z</time></trkpt><trkpt lat="39.1130874" lon="0.7236201"><ele>0.0</ele><time>2026-04-29T20:16:48.009Z</time></trkpt><trkpt lat="39.1131626" lon="0.7236655"><ele>0.0</ele><time>2026-04-29T20:16:49.009Z</time></trkpt><trkpt lat="39.1132431" lon="0.7237208"><ele>0.0</ele><time>2026-04-29T20:16:50.009Z</time></trkpt><trkpt lat="39.1133205" lon="0.7237638"><ele>0.0</ele><time>2026-04-29T20:16:51.008Z</time></trkpt><trkpt lat="39.1134057" lon="0.7238075"><ele>0.0</ele><time>2026-04-29T20:16:52.009Z</time></trkpt><trkpt lat="39.1134853" lon="0.7238362"><ele>0.0</ele><time>2026-04-29T20:16:53.009Z</time></trkpt><trkpt lat="39.1135638" lon="0.7238755"><ele>0.0</ele><time>2026-04-29T20:16:54.009Z</time></trkpt><trkpt lat="39.1136448" lon="0.7239074"><ele>0.0</ele><time>2026-04-29T20:16:55.009Z</time></trkpt><trkpt lat="39.1137263" lon="0.7239446"><ele>0.0</ele><time>2026-04-29T20:16:56.008Z</time></trkpt><trkpt lat="39.1138038" lon="0.7239789"><ele>0.0</ele><time>2026-04-29T20:16:57.008Z</time></trkpt><trkpt lat="39.1138848" lon="0.7240262"><ele>0.0</ele><time>2026-04-29T20:16:58.009Z</time></trkpt><trkpt lat="39.1139611" lon="0.7240783"><ele>0.0</ele><time>2026-04-29T20:16:59.008Z</time></trkpt><trkpt lat="39.1140378" lon="0.7241244"><ele>0.0</ele><time>2026-04-29T20:17:00.009Z</time></trkpt><trkpt lat="39.1141225" lon="0.724166"><ele>0.0</ele><time>2026-04-29T20:17:01.008Z</time></trkpt><trkpt lat="39.1142031" lon="0.7242147"><ele>0.0</ele><time>2026-04-29T20:17:02.009Z</time></trkpt><trkpt lat="39.1142818" lon="0.7242644"><ele>0.0</ele><time>2026-04-29T20:17:03.008Z</time></trkpt><trkpt lat="39.1143603" lon="0.7243076"><ele>0.0</ele><time>2026-04-29T20:17:04.008Z</time></trkpt><trkpt lat="39.1144427" lon="0.7243506"><ele>0.0</ele><time>2026-04-29T20:17:05.009Z</time></trkpt><trkpt lat="39.1145934" lon="0.7244282"><ele>0.0</ele><time>2026-04-29T20:17:07.008Z</time></trkpt><trkpt lat="39.1146764" lon="0.7244801"><ele>0.0</ele><time>2026-04-29T20:17:08.008Z</time></trkpt><trkpt lat="39.114758" lon="0.724534"><ele>0.0</ele><time>2026-04-29T20:17:09.008Z</time></trkpt><trkpt lat="39.1148393" lon="0.7245777"><ele>0.0</ele><time>2026-04-29T20:17:10.008Z</time></trkpt><trkpt lat="39.1149229" lon="0.7246136"><ele>0.0</ele><time>2026-04-29T20:17:11.008Z</time></trkpt><trkpt lat="39.1149992" lon="0.7246544"><ele>0.0</ele><time>2026-04-29T20:17:12.008Z</time></trkpt><trkpt lat="39.1150755" lon="0.7247006"><ele>0.0</ele><time>2026-04-29T20:17:13.008Z</time></trkpt><trkpt lat="39.115155" lon="0.724748"><ele>0.0</ele><time>2026-04-29T20:17:14.008Z</time></trkpt><trkpt lat="39.1152365" lon="0.7247885"><ele>0.0</ele><time>2026-04-29T20:17:15.009Z</time></trkpt><trkpt lat="39.1153139" lon="0.7248262"><ele>0.0</ele><time>2026-04-29T20:17:16.009Z</time></trkpt><trkpt lat="39.1153962" lon="0.7248696"><ele>0.0</ele><time>2026-04-29T20:17:17.008Z</time></trkpt><trkpt lat="39.1154736" lon="0.7249217"><ele>0.0</ele><time>2026-04-29T20:17:18.008Z</time></trkpt><trkpt lat="39.1155489" lon="0.7249643"><ele>0.0</ele><time>2026-04-29T20:17:19.009Z</time></trkpt><trkpt lat="39.1156298" lon="0.7250102"><ele>0.0</ele><time>2026-04-29T20:17:20.009Z</time></trkpt><trkpt lat="39.1157086" lon="0.7250475"><ele>0.0</ele><time>2026-04-29T20:17:21.009Z</time></trkpt><trkpt lat="39.1157867" lon="0.7250869"><ele>0.0</ele><time>2026-04-29T20:17:22.008Z</time></trkpt><trkpt lat="39.1158697" lon="0.7251377"><ele>0.0</ele><time>2026-04-29T20:17:23.009Z</time></trkpt><trkpt lat="39.1159528" lon="0.7251926"><ele>0.0</ele><time>2026-04-29T20:17:24.009Z</time></trkpt><trkpt lat="39.1160305" lon="0.7252349"><ele>0.0</ele><time>2026-04-29T20:17:25.008Z</time></trkpt><trkpt lat="39.1161156" lon="0.7252523"><ele>0.0</ele><time>2026-04-29T20:17:26.009Z</time></trkpt><trkpt lat="39.1162729" lon="0.7253474"><ele>0.0</ele><time>2026-04-29T20:17:28.008Z</time></trkpt><trkpt lat="39.1163501" lon="0.7254019"><ele>0.0</ele><time>2026-04-29T20:17:29.009Z</time></trkpt><trkpt lat="39.1164357" lon="0.7254521"><ele>0.0</ele><time>2026-04-29T20:17:30.008Z</time></trkpt><trkpt lat="39.1165155" lon="0.725508"><ele>0.0</ele><time>2026-04-29T20:17:31.008Z</time></trkpt><trkpt lat="39.1165937" lon="0.7255545"><ele>0.0</ele><time>2026-04-29T20:17:32.009Z</time></trkpt><trkpt lat="39.1166747" lon="0.7256096"><ele>0.0</ele><time>2026-04-29T20:17:33.008Z</time></trkpt><trkpt lat="39.1167548" lon="0.725661"><ele>0.0</ele><time>2026-04-29T20:17:34.008Z</time></trkpt><trkpt lat="39.1168305" lon="0.7256979"><ele>0.0</ele><time>2026-04-29T20:17:35.008Z</time></trkpt><trkpt lat="39.1169052" lon="0.7257475"><ele>0.0</ele><time>2026-04-29T20:17:36.009Z</time></trkpt><trkpt lat="39.1169821" lon="0.725772"><ele>0.0</ele><time>2026-04-29T20:17:37.008Z</time></trkpt><trkpt lat="39.1170601" lon="0.7257706"><ele>0.0</ele><time>2026-04-29T20:17:38.008Z</time></trkpt><trkpt lat="39.1171426" lon="0.7257924"><ele>0.0</ele><time>2026-04-29T20:17:39.008Z</time></trkpt><trkpt lat="39.1172246" lon="0.7258314"><ele>0.0</ele><time>2026-04-29T20:17:40.008Z</time></trkpt><trkpt lat="39.1173078" lon="0.7258659"><ele>0.0</ele><time>2026-04-29T20:17:41.008Z</time></trkpt><trkpt lat="39.117387" lon="0.7259031"><ele>0.0</ele><time>2026-04-29T20:17:42.008Z</time></trkpt><trkpt lat="39.1174636" lon="0.7259385"><ele>0.0</ele><time>2026-04-29T20:17:43.009Z</time></trkpt><trkpt lat="39.1175419" lon="0.7259797"><ele>0.0</ele><time>2026-04-29T20:17:44.009Z</time></trkpt><trkpt lat="39.1176186" lon="0.7260179"><ele>0.0</ele><time>2026-04-29T20:17:45.008Z</time></trkpt><trkpt lat="39.117704" lon="0.726067"><ele>0.0</ele><time>2026-04-29T20:17:46.008Z</time></trkpt><trkpt lat="39.117792" lon="0.7261211"><ele>0.0</ele><time>2026-04-29T20:17:47.009Z</time></trkpt><trkpt lat="39.1178704" lon="0.7261817"><ele>0.0</ele><time>2026-04-29T20:17:48.008Z</time></trkpt><trkpt lat="39.1180306" lon="0.7262817"><ele>0.0</ele><time>2026-04-29T20:17:50.009Z</time></trkpt><trkpt lat="39.1181087" lon="0.72633"><ele>0.0</ele><time>2026-04-29T20:17:51.008Z</time></trkpt><trkpt lat="39.1181913" lon="0.7263731"><ele>0.0</ele><time>2026-04-29T20:17:52.008Z</time></trkpt><trkpt lat="39.1182692" lon="0.7264095"><ele>0.0</ele><time>2026-04-29T20:17:53.008Z</time></trkpt><trkpt lat="39.11835" lon="0.7264566"><ele>0.0</ele><time>2026-04-29T20:17:54.008Z</time></trkpt><trkpt lat="39.1184285" lon="0.7264992"><ele>0.0</ele><time>2026-04-29T20:17:55.009Z</time></trkpt><trkpt lat="39.1185084" lon="0.7265306"><ele>0.0</ele><time>2026-04-29T20:17:56.009Z</time></trkpt><trkpt lat="39.1185955" lon="0.7265803"><ele>0.0</ele><time>2026-04-29T20:17:57.009Z</time></trkpt><trkpt lat="39.118684" lon="0.7266388"><ele>0.0</ele><time>2026-04-29T20:17:58.008Z</time></trkpt><trkpt lat="39.1187637" lon="0.7266736"><ele>0.0</ele><time>2026-04-29T20:17:59.008Z</time></trkpt><trkpt lat="39.1188445" lon="0.726705"><ele>0.0</ele><time>2026-04-29T20:18:00.008Z</time></trkpt><trkpt lat="39.1189234" lon="0.7267474"><ele>0.0</ele><time>2026-04-29T20:18:01.008Z</time></trkpt><trkpt lat="39.1190073" lon="0.7267888"><ele>0.0</ele><time>2026-04-29T20:18:02.009Z</time></trkpt><trkpt lat="39.119084" lon="0.7268313"><ele>0.0</ele><time>2026-04-29T20:18:03.008Z</time></trkpt><trkpt lat="39.1191563" lon="0.7268879"><ele>0.0</ele><time>2026-04-29T20:18:04.008Z</time></trkpt><trkpt lat="39.1192352" lon="0.726933"><ele>0.0</ele><time>2026-04-29T20:18:05.008Z</time></trkpt><trkpt lat="39.119311" lon="0.7269641"><ele>0.0</ele><time>2026-04-29T20:18:06.008Z</time></trkpt><trkpt lat="39.1193916" lon="0.727"><ele>0.0</ele><time>2026-04-29T20:18:07.008Z</time></trkpt><trkpt lat="39.1194733" lon="0.7270479"><ele>0.0</ele><time>2026-04-29T20:18:08.009Z</time></trkpt><trkpt lat="39.1195447" lon="0.7270689"><ele>0.0</ele><time>2026-04-29T20:18:09.008Z</time></trkpt><trkpt lat="39.1197063" lon="0.7271342"><ele>0.0</ele><time>2026-04-29T20:18:11.008Z</time></trkpt><trkpt lat="39.1197862" lon="0.7271755"><ele>0.0</ele><time>2026-04-29T20:18:12.008Z</time></trkpt><trkpt lat="39.119862" lon="0.7272158"><ele>0.0</ele><time>2026-04-29T20:18:13.008Z</time></trkpt><trkpt lat="39.1199457" lon="0.7272643"><ele>0.0</ele><time>2026-04-29T20:18:14.009Z</time></trkpt><trkpt lat="39.1200278" lon="0.7273"><ele>0.0</ele><time>2026-04-29T20:18:15.008Z</time></trkpt><trkpt lat="39.120111" lon="0.7273427"><ele>0.0</ele><time>2026-04-29T20:18:16.008Z</time></trkpt><trkpt lat="39.1201886" lon="0.7273806"><ele>0.0</ele><time>2026-04-29T20:18:17.008Z</time></trkpt><trkpt lat="39.1202711" lon="0.7274324"><ele>0.0</ele><time>2026-04-29T20:18:18.008Z</time></trkpt><trkpt lat="39.1203544" lon="0.7274791"><ele>0.0</ele><time>2026-04-29T20:18:19.008Z</time></trkpt><trkpt lat="39.1204379" lon="0.7275308"><ele>0.0</ele><time>2026-04-29T20:18:20.008Z</time></trkpt><trkpt lat="39.1205198" lon="0.7275859"><ele>0.0</ele><time>2026-04-29T20:18:21.009Z</time></trkpt><trkpt lat="39.1205997" lon="0.7276407"><ele>0.0</ele><time>2026-04-29T20:18:22.009Z</time></trkpt><trkpt lat="39.1206783" lon="0.7276924"><ele>0.0</ele><time>2026-04-29T20:18:23.009Z</time></trkpt><trkpt lat="39.1207566" lon="0.727747"><ele>0.0</ele><time>2026-04-29T20:18:24.009Z</time></trkpt><trkpt lat="39.1208366" lon="0.7278007"><ele>0.0</ele><time>2026-04-29T20:18:25.008Z</time></trkpt><trkpt lat="39.120918" lon="0.7278477"><ele>0.0</ele><time>2026-04-29T20:18:26.009Z</time></trkpt><trkpt lat="39.1209981" lon="0.7278941"><ele>0.0</ele><time>2026-04-29T20:18:27.008Z</time></trkpt><trkpt lat="39.1210795" lon="0.727941"><ele>0.0</ele><time>2026-04-29T20:18:28.009Z</time></trkpt><trkpt lat="39.1211699" lon="0.7279938"><ele>0.0</ele><time>2026-04-29T20:18:29.008Z</time></trkpt><trkpt lat="39.1212517" lon="0.7280362"><ele>0.0</ele><time>2026-04-29T20:18:30.008Z</time></trkpt><trkpt lat="39.1214168" lon="0.7281274"><ele>0.0</ele><time>2026-04-29T20:18:32.008Z</time></trkpt><trkpt lat="39.1214882" lon="0.7281648"><ele>0.0</ele><time>2026-04-29T20:18:33.008Z</time></trkpt><trkpt lat="39.1215667" lon="0.7282139"><ele>0.0</ele><time>2026-04-29T20:18:34.009Z</time></trkpt><trkpt lat="39.1216521" lon="0.7282683"><ele>0.0</ele><time>2026-04-29T20:18:35.008Z</time></trkpt><trkpt lat="39.1217408" lon="0.7283339"><ele>0.0</ele><time>2026-04-29T20:18:36.009Z</time></trkpt><trkpt lat="39.1218278" lon="0.7283952"><ele>0.0</ele><time>2026-04-29T20:18:37.009Z</time></trkpt><trkpt lat="39.1219028" lon="0.7284395"><ele>0.0</ele><time>2026-04-29T20:18:38.008Z</time></trkpt><trkpt lat="39.121979" lon="0.7284752"><ele>0.0</ele><time>2026-04-29T20:18:39.009Z</time></trkpt><trkpt lat="39.1220501" lon="0.7285045"><ele>0.0</ele><time>2026-04-29T20:18:40.009Z</time></trkpt><trkpt lat="39.1221242" lon="0.7285384"><ele>0.0</ele><time>2026-04-29T20:18:41.009Z</time></trkpt><trkpt lat="39.1222017" lon="0.7285762"><ele>0.0</ele><time>2026-04-29T20:18:42.008Z</time></trkpt><trkpt lat="39.1222874" lon="0.728626"><ele>0.0</ele><time>2026-04-29T20:18:43.009Z</time></trkpt><trkpt lat="39.1223713" lon="0.7286901"><ele>0.0</ele><time>2026-04-29T20:18:44.007Z</time></trkpt><trkpt lat="39.1224518" lon="0.728737"><ele>0.0</ele><time>2026-04-29T20:18:45.007Z</time></trkpt><trkpt lat="39.1225321" lon="0.7287761"><ele>0.0</ele><time>2026-04-29T20:18:46.008Z</time></trkpt><trkpt lat="39.1226133" lon="0.7288102"><ele>0.0</ele><time>2026-04-29T20:18:47.007Z</time></trkpt><trkpt lat="39.1226949" lon="0.7288423"><ele>0.0</ele><time>2026-04-29T20:18:48.007Z</time></trkpt><trkpt lat="39.1227767" lon="0.7288805"><ele>0.0</ele><time>2026-04-29T20:18:49.007Z</time></trkpt><trkpt lat="39.122853" lon="0.7289093"><ele>0.0</ele><time>2026-04-29T20:18:50.008Z</time></trkpt><trkpt lat="39.1229406" lon="0.7289204"><ele>0.0</ele><time>2026-04-29T20:18:51.007Z</time></trkpt><trkpt lat="39.123098" lon="0.7289859"><ele>0.0</ele><time>2026-04-29T20:18:53.008Z</time></trkpt><trkpt lat="39.1231758" lon="0.7290338"><ele>0.0</ele><time>2026-04-29T20:18:54.007Z</time></trkpt><trkpt lat="39.1232568" lon="0.7290738"><ele>0.0</ele><time>2026-04-29T20:18:55.008Z</time></trkpt><trkpt lat="39.1233395" lon="0.7291136"><ele>0.0</ele><time>2026-04-29T20:18:56.008Z</time></trkpt><trkpt lat="39.12342" lon="0.7291554"><ele>0.0</ele><time>2026-04-29T20:18:57.008Z</time></trkpt><trkpt lat="39.1234988" lon="0.7291958"><ele>0.0</ele><time>2026-04-29T20:18:58.007Z</time></trkpt><trkpt lat="39.123577" lon="0.7292385"><ele>0.0</ele><time>2026-04-29T20:18:59.008Z</time></trkpt><trkpt lat="39.1236553" lon="0.72928"><ele>0.0</ele><time>2026-04-29T20:19:00.007Z</time></trkpt><trkpt lat="39.1237323" lon="0.7293149"><ele>0.0</ele><time>2026-04-29T20:19:01.007Z</time></trkpt><trkpt lat="39.1238149" lon="0.729352"><ele>0.0</ele><time>2026-04-29T20:19:02.007Z</time></trkpt><trkpt lat="39.1238993" lon="0.7293957"><ele>0.0</ele><time>2026-04-29T20:19:03.007Z</time></trkpt><trkpt lat="39.1239839" lon="0.7294425"><ele>0.0</ele><time>2026-04-29T20:19:04.007Z</time></trkpt><trkpt lat="39.1240649" lon="0.7294923"><ele>0.0</ele><time>2026-04-29T20:19:05.007Z</time></trkpt><trkpt lat="39.1241467" lon="0.7295283"><ele>0.0</ele><time>2026-04-29T20:19:06.007Z</time></trkpt><trkpt lat="39.1242269" lon="0.7295701"><ele>0.0</ele><time>2026-04-29T20:19:07.008Z</time></trkpt><trkpt lat="39.1243093" lon="0.7296107"><ele>0.0</ele><time>2026-04-29T20:19:08.007Z</time></trkpt><trkpt lat="39.124393" lon="0.729665"><ele>0.0</ele><time>2026-04-29T20:19:09.007Z</time></trkpt><trkpt lat="39.1244735" lon="0.7297151"><ele>0.0</ele><time>2026-04-29T20:19:10.008Z</time></trkpt><trkpt lat="39.1245521" lon="0.7297617"><ele>0.0</ele><time>2026-04-29T20:19:11.007Z</time></trkpt><trkpt lat="39.1246287" lon="0.7298061"><ele>0.0</ele><time>2026-04-29T20:19:12.007Z</time></trkpt><trkpt lat="39.1247896" lon="0.7298912"><ele>0.0</ele><time>2026-04-29T20:19:14.007Z</time></trkpt><trkpt lat="39.1248702" lon="0.7299405"><ele>0.0</ele><time>2026-04-29T20:19:15.007Z</time></trkpt><trkpt lat="39.1249485" lon="0.7299781"><ele>0.0</ele><time>2026-04-29T20:19:16.007Z</time></trkpt><trkpt lat="39.1250238" lon="0.7300297"><ele>0.0</ele><time>2026-04-29T20:19:17.007Z</time></trkpt><trkpt lat="39.1251045" lon="0.7300777"><ele>0.0</ele><time>2026-04-29T20:19:18.008Z</time></trkpt><trkpt lat="39.1251877" lon="0.7301335"><ele>0.0</ele><time>2026-04-29T20:19:19.008Z</time></trkpt><trkpt lat="39.1252685" lon="0.7301876"><ele>0.0</ele><time>2026-04-29T20:19:20.008Z</time></trkpt><trkpt lat="39.1253484" lon="0.7302443"><ele>0.0</ele><time>2026-04-29T20:19:21.008Z</time></trkpt><trkpt lat="39.1254285" lon="0.7302952"><ele>0.0</ele><time>2026-04-29T20:19:22.007Z</time></trkpt><trkpt lat="39.1255113" lon="0.7303504"><ele>0.0</ele><time>2026-04-29T20:19:23.007Z</time></trkpt><trkpt lat="39.1255959" lon="0.7303921"><ele>0.0</ele><time>2026-04-29T20:19:24.007Z</time></trkpt><trkpt lat="39.1256795" lon="0.7304324"><ele>0.0</ele><time>2026-04-29T20:19:25.007Z</time></trkpt><trkpt lat="39.1257643" lon="0.7304795"><ele>0.0</ele><time>2026-04-29T20:19:26.007Z</time></trkpt><trkpt lat="39.1258426" lon="0.7305193"><ele>0.0</ele><time>2026-04-29T20:19:27.008Z</time></trkpt><trkpt lat="39.1259245" lon="0.7305615"><ele>0.0</ele><time>2026-04-29T20:19:28.007Z</time></trkpt><trkpt lat="39.1260049" lon="0.7306023"><ele>0.0</ele><time>2026-04-29T20:19:29.008Z</time></trkpt><trkpt lat="39.1260822" lon="0.7306509"><ele>0.0</ele><time>2026-04-29T20:19:30.008Z</time></trkpt><trkpt lat="39.1261634" lon="0.7306954"><ele>0.0</ele><time>2026-04-29T20:19:31.008Z</time></trkpt><trkpt lat="39.1262479" lon="0.7307334"><ele>0.0</ele><time>2026-04-29T20:19:32.007Z</time></trkpt><trkpt lat="39.1263326" lon="0.7307709"><ele>0.0</ele><time>2026-04-29T20:19:33.007Z</time></trkpt><trkpt lat="39.1265014" lon="0.7308401"><ele>0.0</ele><time>2026-04-29T20:19:35.008Z</time></trkpt><trkpt lat="39.1265851" lon="0.7308811"><ele>0.0</ele><time>2026-04-29T20:19:36.008Z</time></trkpt><trkpt lat="39.1266652" lon="0.7309205"><ele>0.0</ele><time>2026-04-29T20:19:37.008Z</time></trkpt><trkpt lat="39.1267439" lon="0.7309594"><ele>0.0</ele><time>2026-04-29T20:19:38.008Z</time></trkpt><trkpt lat="39.1268236" lon="0.7310031"><ele>0.0</ele><time>2026-04-29T20:19:39.008Z</time></trkpt><trkpt lat="39.1269036" lon="0.731044"><ele>0.0</ele><time>2026-04-29T20:19:40.008Z</time></trkpt><trkpt lat="39.1269806" lon="0.7310834"><ele>0.0</ele><time>2026-04-29T20:19:41.007Z</time></trkpt><trkpt lat="39.1270601" lon="0.7311131"><ele>0.0</ele><time>2026-04-29T20:19:42.007Z</time></trkpt><trkpt lat="39.1271418" lon="0.7311488"><ele>0.0</ele><time>2026-04-29T20:19:43.008Z</time></trkpt><trkpt lat="39.1272251" lon="0.7311821"><ele>0.0</ele><time>2026-04-29T20:19:44.007Z</time></trkpt><trkpt lat="39.1273066" lon="0.7312163"><ele>0.0</ele><time>2026-04-29T20:19:45.007Z</time></trkpt><trkpt lat="39.1273881" lon="0.7312548"><ele>0.0</ele><time>2026-04-29T20:19:46.008Z</time></trkpt><trkpt lat="39.1274684" lon="0.7313186"><ele>0.0</ele><time>2026-04-29T20:19:47.008Z</time></trkpt><trkpt lat="39.1275528" lon="0.7313644"><ele>0.0</ele><time>2026-04-29T20:19:48.007Z</time></trkpt><trkpt lat="39.1276334" lon="0.7314222"><ele>0.0</ele><time>2026-04-29T20:19:49.008Z</time></trkpt><trkpt lat="39.127719" lon="0.7314733"><ele>0.0</ele><time>2026-04-29T20:19:50.007Z</time></trkpt><trkpt lat="39.1278057" lon="0.7315308"><ele>0.0</ele><time>2026-04-29T20:19:51.007Z</time></trkpt><trkpt lat="39.1278899" lon="0.731582"><ele>0.0</ele><time>2026-04-29T20:19:52.008Z</time></trkpt><trkpt lat="39.1279688" lon="0.7316283"><ele>0.0</ele><time>2026-04-29T20:19:53.007Z</time></trkpt><trkpt lat="39.1280486" lon="0.7316768"><ele>0.0</ele><time>2026-04-29T20:19:54.007Z</time></trkpt><trkpt lat="39.1282109" lon="0.7317895"><ele>0.0</ele><time>2026-04-29T20:19:56.008Z</time></trkpt><trkpt lat="39.1282903" lon="0.7318394"><ele>0.0</ele><time>2026-04-29T20:19:57.007Z</time></trkpt><trkpt lat="39.1283684" lon="0.7318951"><ele>0.0</ele><time>2026-04-29T20:19:58.008Z</time></trkpt><trkpt lat="39.1284485" lon="0.7319395"><ele>0.0</ele><time>2026-04-29T20:19:59.007Z</time></trkpt><trkpt lat="39.1285199" lon="0.7319696"><ele>0.0</ele><time>2026-04-29T20:20:00.007Z</time></trkpt><trkpt lat="39.1285959" lon="0.7320089"><ele>0.0</ele><time>2026-04-29T20:20:01.007Z</time></trkpt><trkpt lat="39.1286782" lon="0.7320471"><ele>0.0</ele><time>2026-04-29T20:20:02.008Z</time></trkpt><trkpt lat="39.1287557" lon="0.7320847"><ele>0.0</ele><time>2026-04-29T20:20:03.008Z</time></trkpt><trkpt lat="39.1288368" lon="0.7321283"><ele>0.0</ele><time>2026-04-29T20:20:04.008Z</time></trkpt><trkpt lat="39.1289168" lon="0.7321627"><ele>0.0</ele><time>2026-04-29T20:20:05.007Z</time></trkpt><trkpt lat="39.1289908" lon="0.7322048"><ele>0.0</ele><time>2026-04-29T20:20:06.008Z</time></trkpt><trkpt lat="39.1290713" lon="0.7322457"><ele>0.0</ele><time>2026-04-29T20:20:07.007Z</time></trkpt><trkpt lat="39.1291574" lon="0.7322725"><ele>0.0</ele><time>2026-04-29T20:20:08.007Z</time></trkpt><trkpt lat="39.1292413" lon="0.7323012"><ele>0.0</ele><time>2026-04-29T20:20:09.007Z</time></trkpt><trkpt lat="39.1293219" lon="0.7323353"><ele>0.0</ele><time>2026-04-29T20:20:10.008Z</time></trkpt><trkpt lat="39.1294046" lon="0.7323749"><ele>0.0</ele><time>2026-04-29T20:20:11.007Z</time></trkpt><trkpt lat="39.1294876" lon="0.7324196"><ele>0.0</ele><time>2026-04-29T20:20:12.008Z</time></trkpt><trkpt lat="39.1295695" lon="0.7324632"><ele>0.0</ele><time>2026-04-29T20:20:13.008Z</time></trkpt><trkpt lat="39.1296485" lon="0.7325021"><ele>0.0</ele><time>2026-04-29T20:20:14.007Z</time></trkpt><trkpt lat="39.1297241" lon="0.7325461"><ele>0.0</ele><time>2026-04-29T20:20:15.008Z</time></trkpt><trkpt lat="39.1298973" lon="0.7326442"><ele>0.0</ele><time>2026-04-29T20:20:17.007Z</time></trkpt><trkpt lat="39.1299836" lon="0.7326829"><ele>0.0</ele><time>2026-04-29T20:20:18.008Z</time></trkpt><trkpt lat="39.1300658" lon="0.7327408"><ele>0.0</ele><time>2026-04-29T20:20:19.007Z</time></trkpt><trkpt lat="39.1301465" lon="0.7327909"><ele>0.0</ele><time>2026-04-29T20:20:20.007Z</time></trkpt><trkpt lat="39.1302254" lon="0.7328453"><ele>0.0</ele><time>2026-04-29T20:20:21.008Z</time></trkpt><trkpt lat="39.130305" lon="0.7328946"><ele>0.0</ele><time>2026-04-29T20:20:22.008Z</time></trkpt><trkpt lat="39.1303834" lon="0.732946"><ele>0.0</ele><time>2026-04-29T20:20:23.007Z</time></trkpt><trkpt lat="39.1304647" lon="0.7329945"><ele>0.0</ele><time>2026-04-29T20:20:24.007Z</time></trkpt><trkpt lat="39.1305478" lon="0.7330386"><ele>0.0</ele><time>2026-04-29T20:20:25.008Z</time></trkpt><trkpt lat="39.130627" lon="0.7330999"><ele>0.0</ele><time>2026-04-29T20:20:26.007Z</time></trkpt><trkpt lat="39.1307084" lon="0.7331622"><ele>0.0</ele><time>2026-04-29T20:20:27.008Z</time></trkpt><trkpt lat="39.1307899" lon="0.7332285"><ele>0.0</ele><time>2026-04-29T20:20:28.007Z</time></trkpt><trkpt lat="39.1308672" lon="0.7332682"><ele>0.0</ele><time>2026-04-29T20:20:29.007Z</time></trkpt><trkpt lat="39.1309666" lon="0.733316"><ele>0.0</ele><time>2026-04-29T20:20:30.008Z</time></trkpt><trkpt lat="39.1310528" lon="0.7333719"><ele>0.0</ele><time>2026-04-29T20:20:31.007Z</time></trkpt><trkpt lat="39.1311336" lon="0.7334244"><ele>0.0</ele><time>2026-04-29T20:20:32.008Z</time></trkpt><trkpt lat="39.1312111" lon="0.73347"><ele>0.0</ele><time>2026-04-29T20:20:33.007Z</time></trkpt><trkpt lat="39.1312859" lon="0.7335144"><ele>0.0</ele><time>2026-04-29T20:20:34.008Z</time></trkpt><trkpt lat="39.131365" lon="0.7335564"><ele>0.0</ele><time>2026-04-29T20:20:35.007Z</time></trkpt><trkpt lat="39.1314395" lon="0.7335878"><ele>0.0</ele><time>2026-04-29T20:20:36.007Z</time></trkpt><trkpt lat="39.1315984" lon="0.733654"><ele>0.0</ele><time>2026-04-29T20:20:38.007Z</time></trkpt><trkpt lat="39.1316772" lon="0.7336868"><ele>0.0</ele><time>2026-04-29T20:20:39.008Z</time></trkpt><trkpt lat="39.1317569" lon="0.7337129"><ele>0.0</ele><time>2026-04-29T20:20:40.008Z</time></trkpt><trkpt lat="39.1318381" lon="0.7337431"><ele>0.0</ele><time>2026-04-29T20:20:41.007Z</time></trkpt><trkpt lat="39.1319098" lon="0.7337674"><ele>0.0</ele><time>2026-04-29T20:20:42.007Z</time></trkpt><trkpt lat="39.1319953" lon="0.7338034"><ele>0.0</ele><time>2026-04-29T20:20:43.007Z</time></trkpt><trkpt lat="39.132081" lon="0.7338476"><ele>0.0</ele><time>2026-04-29T20:20:44.007Z</time></trkpt><trkpt lat="39.1321605" lon="0.7338816"><ele>0.0</ele><time>2026-04-29T20:20:45.007Z</time></trkpt><trkpt lat="39.1322402" lon="0.7339181"><ele>0.0</ele><time>2026-04-29T20:20:46.008Z</time></trkpt><trkpt lat="39.1323246" lon="0.7339528"><ele>0.0</ele><time>2026-04-29T20:20:47.007Z</time></trkpt><trkpt lat="39.1324036" lon="0.7339883"><ele>0.0</ele><time>2026-04-29T20:20:48.008Z</time></trkpt><trkpt lat="39.1324807" lon="0.7340286"><ele>0.0</ele><time>2026-04-29T20:20:49.007Z</time></trkpt><trkpt lat="39.1325556" lon="0.7340685"><ele>0.0</ele><time>2026-04-29T20:20:50.007Z</time></trkpt><trkpt lat="39.1326351" lon="0.7341041"><ele>0.0</ele><time>2026-04-29T20:20:51.007Z</time></trkpt><trkpt lat="39.1327167" lon="0.7341432"><ele>0.0</ele><time>2026-04-29T20:20:52.007Z</time></trkpt><trkpt lat="39.1327997" lon="0.7341768"><ele>0.0</ele><time>2026-04-29T20:20:53.007Z</time></trkpt><trkpt lat="39.1328846" lon="0.7342141"><ele>0.0</ele><time>2026-04-29T20:20:54.007Z</time></trkpt><trkpt lat="39.1329666" lon="0.734272"><ele>0.0</ele><time>2026-04-29T20:20:55.007Z</time></trkpt><trkpt lat="39.1330512" lon="0.7343394"><ele>0.0</ele><time>2026-04-29T20:20:56.007Z</time></trkpt><trkpt lat="39.1331259" lon="0.7343979"><ele>0.0</ele><time>2026-04-29T20:20:57.008Z</time></trkpt><trkpt lat="39.1332037" lon="0.7344489"><ele>0.0</ele><time>2026-04-29T20:20:58.007Z</time></trkpt><trkpt lat="39.1333619" lon="0.734546"><ele>0.0</ele><time>2026-04-29T20:21:00.007Z</time></trkpt><trkpt lat="39.1334362" lon="0.734589"><ele>0.0</ele><time>2026-04-29T20:21:01.007Z</time></trkpt><trkpt lat="39.1335113" lon="0.7346364"><ele>0.0</ele><time>2026-04-29T20:21:02.007Z</time></trkpt><trkpt lat="39.1335899" lon="0.734675"><ele>0.0</ele><time>2026-04-29T20:21:03.007Z</time></trkpt><trkpt lat="39.1336712" lon="0.7347188"><ele>0.0</ele><time>2026-04-29T20:21:04.008Z</time></trkpt><trkpt lat="39.1337531" lon="0.7347655"><ele>0.0</ele><time>2026-04-29T20:21:05.008Z</time></trkpt><trkpt lat="39.1338373" lon="0.7348148"><ele>0.0</ele><time>2026-04-29T20:21:06.007Z</time></trkpt><trkpt lat="39.1339239" lon="0.7348661"><ele>0.0</ele><time>2026-04-29T20:21:07.008Z</time></trkpt><trkpt lat="39.1340074" lon="0.7349221"><ele>0.0</ele><time>2026-04-29T20:21:08.007Z</time></trkpt><trkpt lat="39.1340924" lon="0.7349764"><ele>0.0</ele><time>2026-04-29T20:21:09.007Z</time></trkpt><trkpt lat="39.1341744" lon="0.7350226"><ele>0.0</ele><time>2026-04-29T20:21:10.008Z</time></trkpt><trkpt lat="39.1342578" lon="0.7350762"><ele>0.0</ele><time>2026-04-29T20:21:11.008Z</time></trkpt><trkpt lat="39.1343455" lon="0.7351267"><ele>0.0</ele><time>2026-04-29T20:21:12.007Z</time></trkpt><trkpt lat="39.1344281" lon="0.7351793"><ele>0.0</ele><time>2026-04-29T20:21:13.008Z</time></trkpt><trkpt lat="39.1345042" lon="0.7352201"><ele>0.0</ele><time>2026-04-29T20:21:14.007Z</time></trkpt><trkpt lat="39.1345836" lon="0.7352562"><ele>0.0</ele><time>2026-04-29T20:21:15.008Z</time></trkpt><trkpt lat="39.1346606" lon="0.7352963"><ele>0.0</ele><time>2026-04-29T20:21:16.007Z</time></trkpt><trkpt lat="39.1347476" lon="0.7353365"><ele>0.0</ele><time>2026-04-29T20:21:17.007Z</time></trkpt><trkpt lat="39.1348315" lon="0.735386"><ele>0.0</ele><time>2026-04-29T20:21:18.008Z</time></trkpt><trkpt lat="39.1349133" lon="0.7354228"><ele>0.0</ele><time>2026-04-29T20:21:19.008Z</time></trkpt><trkpt lat="39.1350754" lon="0.7355056"><ele>0.0</ele><time>2026-04-29T20:21:21.007Z</time></trkpt><trkpt lat="39.1351551" lon="0.7355463"><ele>0.0</ele><time>2026-04-29T20:21:22.007Z</time></trkpt><trkpt lat="39.1352337" lon="0.7355828"><ele>0.0</ele><time>2026-04-29T20:21:23.008Z</time></trkpt><trkpt lat="39.1353118" lon="0.7356197"><ele>0.0</ele><time>2026-04-29T20:21:24.007Z</time></trkpt><trkpt lat="39.135393" lon="0.7356564"><ele>0.0</ele><time>2026-04-29T20:21:25.007Z</time></trkpt><trkpt lat="39.135472" lon="0.7357038"><ele>0.0</ele><time>2026-04-29T20:21:26.007Z</time></trkpt><trkpt lat="39.1355474" lon="0.7357398"><ele>0.0</ele><time>2026-04-29T20:21:27.007Z</time></trkpt><trkpt lat="39.1356323" lon="0.7357857"><ele>0.0</ele><time>2026-04-29T20:21:28.008Z</time></trkpt><trkpt lat="39.1357159" lon="0.7358345"><ele>0.0</ele><time>2026-04-29T20:21:29.008Z</time></trkpt><trkpt lat="39.1357967" lon="0.7358789"><ele>0.0</ele><time>2026-04-29T20:21:30.008Z</time></trkpt><trkpt lat="39.1358791" lon="0.7359216"><ele>0.0</ele><time>2026-04-29T20:21:31.007Z</time></trkpt><trkpt lat="39.1359616" lon="0.7359589"><ele>0.0</ele><time>2026-04-29T20:21:32.007Z</time></trkpt><trkpt lat="39.136043" lon="0.7360074"><ele>0.0</ele><time>2026-04-29T20:21:33.007Z</time></trkpt><trkpt lat="39.1361231" lon="0.7360437"><ele>0.0</ele><time>2026-04-29T20:21:34.007Z</time></trkpt><trkpt lat="39.1361992" lon="0.7360766"><ele>0.0</ele><time>2026-04-29T20:21:35.008Z</time></trkpt><trkpt lat="39.1362727" lon="0.7361299"><ele>0.0</ele><time>2026-04-29T20:21:36.008Z</time></trkpt><trkpt lat="39.1363502" lon="0.736181"><ele>0.0</ele><time>2026-04-29T20:21:37.007Z</time></trkpt><trkpt lat="39.1364311" lon="0.7362173"><ele>0.0</ele><time>2026-04-29T20:21:38.008Z</time></trkpt><trkpt lat="39.13651" lon="0.7362505"><ele>0.0</ele><time>2026-04-29T20:21:39.007Z</time></trkpt><trkpt lat="39.1365915" lon="0.7362861"><ele>0.0</ele><time>2026-04-29T20:21:40.007Z</time></trkpt><trkpt lat="39.1367522" lon="0.736358"><ele>0.0</ele><time>2026-04-29T20:21:42.008Z</time></trkpt><trkpt lat="39.1368305" lon="0.736409"><ele>0.0</ele><time>2026-04-29T20:21:43.007Z</time></trkpt><trkpt lat="39.1369103" lon="0.736465"><ele>0.0</ele><time>2026-04-29T20:21:44.007Z</time></trkpt><trkpt lat="39.1369887" lon="0.7365078"><ele>0.0</ele><time>2026-04-29T20:21:45.007Z</time></trkpt><trkpt lat="39.1370698" lon="0.7365501"><ele>0.0</ele><time>2026-04-29T20:21:46.007Z</time></trkpt><trkpt lat="39.1371489" lon="0.7365889"><ele>0.0</ele><time>2026-04-29T20:21:47.008Z</time></trkpt><trkpt lat="39.1372242" lon="0.7366105"><ele>0.0</ele><time>2026-04-29T20:21:48.008Z</time></trkpt><trkpt lat="39.137305" lon="0.7366449"><ele>0.0</ele><time>2026-04-29T20:21:49.008Z</time></trkpt><trkpt lat="39.1373868" lon="0.736681"><ele>0.0</ele><time>2026-04-29T20:21:50.008Z</time></trkpt><trkpt lat="39.1374713" lon="0.7367159"><ele>0.0</ele><time>2026-04-29T20:21:51.007Z</time></trkpt><trkpt lat="39.137558" lon="0.7367587"><ele>0.0</ele><time>2026-04-29T20:21:52.007Z</time></trkpt><trkpt lat="39.1376417" lon="0.7367987"><ele>0.0</ele><time>2026-04-29T20:21:53.007Z</time></trkpt><trkpt lat="39.1377229" lon="0.736839"><ele>0.0</ele><time>2026-04-29T20:21:54.008Z</time></trkpt><trkpt lat="39.1378046" lon="0.7368825"><ele>0.0</ele><time>2026-04-29T20:21:55.007Z</time></trkpt><trkpt lat="39.1378861" lon="0.7369301"><ele>0.0</ele><time>2026-04-29T20:21:56.007Z</time></trkpt><trkpt lat="39.1379688" lon="0.7369818"><ele>0.0</ele><time>2026-04-29T20:21:57.007Z</time></trkpt><trkpt lat="39.1380527" lon="0.73703"><ele>0.0</ele><time>2026-04-29T20:21:58.007Z</time></trkpt><trkpt lat="39.1381376" lon="0.7370889"><ele>0.0</ele><time>2026-04-29T20:21:59.007Z</time></trkpt><trkpt lat="39.1382243" lon="0.7371409"><ele>0.0</ele><time>2026-04-29T20:22:00.008Z</time></trkpt><trkpt lat="39.1383069" lon="0.7371909"><ele>0.0</ele><time>2026-04-29T20:22:01.007Z</time></trkpt><trkpt lat="39.1383871" lon="0.7372319"><ele>0.0</ele><time>2026-04-29T20:22:02.008Z</time></trkpt><trkpt lat="39.1385455" lon="0.737314"><ele>0.0</ele><time>2026-04-29T20:22:04.008Z</time></trkpt><trkpt lat="39.1386255" lon="0.7373546"><ele>0.0</ele><time>2026-04-29T20:22:05.007Z</time></trkpt><trkpt lat="39.1387036" lon="0.7373916"><ele>0.0</ele><time>2026-04-29T20:22:06.008Z</time></trkpt><trkpt lat="39.1387834" lon="0.7374287"><ele>0.0</ele><time>2026-04-29T20:22:07.007Z</time></trkpt><trkpt lat="39.138869" lon="0.7374615"><ele>0.0</ele><time>2026-04-29T20:22:08.007Z</time></trkpt><trkpt lat="39.1389455" lon="0.7375014"><ele>0.0</ele><time>2026-04-29T20:22:09.008Z</time></trkpt><trkpt lat="39.1390252" lon="0.7375144"><ele>0.0</ele><time>2026-04-29T20:22:10.008Z</time></trkpt><trkpt lat="39.1391064" lon="0.7375569"><ele>0.0</ele><time>2026-04-29T20:22:11.007Z</time></trkpt><trkpt lat="39.139185" lon="0.7376088"><ele>0.0</ele><time>2026-04-29T20:22:12.008Z</time></trkpt><trkpt lat="39.1392687" lon="0.737662"><ele>0.0</ele><time>2026-04-29T20:22:13.007Z</time></trkpt><trkpt lat="39.1393497" lon="0.7377033"><ele>0.0</ele><time>2026-04-29T20:22:14.007Z</time></trkpt><trkpt lat="39.1394317" lon="0.7377389"><ele>0.0</ele><time>2026-04-29T20:22:15.007Z</time></trkpt><trkpt lat="39.1395161" lon="0.7377924"><ele>0.0</ele><time>2026-04-29T20:22:16.007Z</time></trkpt><trkpt lat="39.1395994" lon="0.7378372"><ele>0.0</ele><time>2026-04-29T20:22:17.007Z</time></trkpt><trkpt lat="39.1396786" lon="0.7378788"><ele>0.0</ele><time>2026-04-29T20:22:18.007Z</time></trkpt><trkpt lat="39.1397585" lon="0.7379183"><ele>0.0</ele><time>2026-04-29T20:22:19.007Z</time></trkpt><trkpt lat="39.13984" lon="0.7379559"><ele>0.0</ele><time>2026-04-29T20:22:20.008Z</time></trkpt><trkpt lat="39.1399187" lon="0.7379958"><ele>0.0</ele><time>2026-04-29T20:22:21.008Z</time></trkpt><trkpt lat="39.1400014" lon="0.7380358"><ele>0.0</ele><time>2026-04-29T20:22:22.008Z</time></trkpt><trkpt lat="39.1400831" lon="0.7380779"><ele>0.0</ele><time>2026-04-29T20:22:23.007Z</time></trkpt><trkpt lat="39.1402383" lon="0.73814"><ele>0.0</ele><time>2026-04-29T20:22:25.007Z</time></trkpt><trkpt lat="39.1403211" lon="0.7381806"><ele>0.0</ele><time>2026-04-29T20:22:26.008Z</time></trkpt><trkpt lat="39.1404041" lon="0.7382307"><ele>0.0</ele><time>2026-04-29T20:22:27.007Z</time></trkpt><trkpt lat="39.1404787" lon="0.7382704"><ele>0.0</ele><time>2026-04-29T20:22:28.007Z</time></trkpt><trkpt lat="39.1405627" lon="0.7383107"><ele>0.0</ele><time>2026-04-29T20:22:29.008Z</time></trkpt><trkpt lat="39.1406488" lon="0.7383521"><ele>0.0</ele><time>2026-04-29T20:22:30.008Z</time></trkpt><trkpt lat="39.1407327" lon="0.7384025"><ele>0.0</ele><time>2026-04-29T20:22:31.007Z</time></trkpt><trkpt lat="39.1408178" lon="0.738457"><ele>0.0</ele><time>2026-04-29T20:22:32.007Z</time></trkpt><trkpt lat="39.1408956" lon="0.7385054"><ele>0.0</ele><time>2026-04-29T20:22:33.008Z</time></trkpt><trkpt lat="39.140978" lon="0.7385415"><ele>0.0</ele><time>2026-04-29T20:22:34.007Z</time></trkpt><trkpt lat="39.1410581" lon="0.7385801"><ele>0.0</ele><time>2026-04-29T20:22:35.007Z</time></trkpt><trkpt lat="39.1411354" lon="0.7386255"><ele>0.0</ele><time>2026-04-29T20:22:36.008Z</time></trkpt><trkpt lat="39.1412164" lon="0.738664"><ele>0.0</ele><time>2026-04-29T20:22:37.007Z</time></trkpt><trkpt lat="39.1412996" lon="0.7386985"><ele>0.0</ele><time>2026-04-29T20:22:38.008Z</time></trkpt><trkpt lat="39.1413776" lon="0.7387395"><ele>0.0</ele><time>2026-04-29T20:22:39.008Z</time></trkpt><trkpt lat="39.1414571" lon="0.7387812"><ele>0.0</ele><time>2026-04-29T20:22:40.007Z</time></trkpt><trkpt lat="39.1415381" lon="0.7388325"><ele>0.0</ele><time>2026-04-29T20:22:41.007Z</time></trkpt><trkpt lat="39.1416232" lon="0.7388835"><ele>0.0</ele><time>2026-04-29T20:22:42.007Z</time></trkpt><trkpt lat="39.1417095" lon="0.7389265"><ele>0.0</ele><time>2026-04-29T20:22:43.008Z</time></trkpt><trkpt lat="39.1417877" lon="0.7389898"><ele>0.0</ele><time>2026-04-29T20:22:44.007Z</time></trkpt><trkpt lat="39.1419355" lon="0.7391129"><ele>0.0</ele><time>2026-04-29T20:22:46.007Z</time></trkpt><trkpt lat="39.1420193" lon="0.7391537"><ele>0.0</ele><time>2026-04-29T20:22:47.008Z</time></trkpt><trkpt lat="39.1421017" lon="0.7391959"><ele>0.0</ele><time>2026-04-29T20:22:48.008Z</time></trkpt><trkpt lat="39.1421832" lon="0.7392353"><ele>0.0</ele><time>2026-04-29T20:22:49.008Z</time></trkpt><trkpt lat="39.1422662" lon="0.7392789"><ele>0.0</ele><time>2026-04-29T20:22:50.007Z</time></trkpt><trkpt lat="39.1423467" lon="0.7393226"><ele>0.0</ele><time>2026-04-29T20:22:51.007Z</time></trkpt><trkpt lat="39.1424279" lon="0.7393691"><ele>0.0</ele><time>2026-04-29T20:22:52.007Z</time></trkpt><trkpt lat="39.1425126" lon="0.7394038"><ele>0.0</ele><time>2026-04-29T20:22:53.007Z</time></trkpt><trkpt lat="39.1425936" lon="0.7394445"><ele>0.0</ele><time>2026-04-29T20:22:54.007Z</time></trkpt><trkpt lat="39.1426745" lon="0.7394951"><ele>0.0</ele><time>2026-04-29T20:22:55.007Z</time></trkpt><trkpt lat="39.1427507" lon="0.7395454"><ele>0.0</ele><time>2026-04-29T20:22:56.007Z</time></trkpt><trkpt lat="39.1428275" lon="0.7395896"><ele>0.0</ele><time>2026-04-29T20:22:57.007Z</time></trkpt><trkpt lat="39.1429024" lon="0.7396388"><ele>0.0</ele><time>2026-04-29T20:22:58.007Z</time></trkpt><trkpt lat="39.1429803" lon="0.7396785"><ele>0.0</ele><time>2026-04-29T20:22:59.007Z</time></trkpt><trkpt lat="39.1430605" lon="0.7397249"><ele>0.0</ele><time>2026-04-29T20:23:00.007Z</time></trkpt><trkpt lat="39.1431406" lon="0.7397655"><ele>0.0</ele><time>2026-04-29T20:23:01.008Z</time></trkpt><trkpt lat="39.1432186" lon="0.7398104"><ele>0.0</ele><time>2026-04-29T20:23:02.007Z</time></trkpt><trkpt lat="39.1432944" lon="0.7398605"><ele>0.0</ele><time>2026-04-29T20:23:03.007Z</time></trkpt><trkpt lat="39.1433735" lon="0.7399022"><ele>0.0</ele><time>2026-04-29T20:23:04.007Z</time></trkpt><trkpt lat="39.1434549" lon="0.739951"><ele>0.0</ele><time>2026-04-29T20:23:05.008Z</time></trkpt><trkpt lat="39.1435351" lon="0.7399966"><ele>0.0</ele><time>2026-04-29T20:23:06.007Z</time></trkpt><trkpt lat="39.1436981" lon="0.7400896"><ele>0.0</ele><time>2026-04-29T20:23:08.007Z</time></trkpt><trkpt lat="39.1437814" lon="0.7401421"><ele>0.0</ele><time>2026-04-29T20:23:09.007Z</time></trkpt><trkpt lat="39.143862" lon="0.7401879"><ele>0.0</ele><time>2026-04-29T20:23:10.007Z</time></trkpt><trkpt lat="39.1439488" lon="0.7402332"><ele>0.0</ele><time>2026-04-29T20:23:11.007Z</time></trkpt><trkpt lat="39.1440255" lon="0.7402813"><ele>0.0</ele><time>2026-04-29T20:23:12.008Z</time></trkpt><trkpt lat="39.1441092" lon="0.7403282"><ele>0.0</ele><time>2026-04-29T20:23:13.008Z</time></trkpt><trkpt lat="39.1441955" lon="0.740375"><ele>0.0</ele><time>2026-04-29T20:23:14.006Z</time></trkpt><trkpt lat="39.1442739" lon="0.7404468"><ele>0.0</ele><time>2026-04-29T20:23:15.006Z</time></trkpt><trkpt lat="39.1443521" lon="0.7405261"><ele>0.0</ele><time>2026-04-29T20:23:16.007Z</time></trkpt><trkpt lat="39.144426" lon="0.7405811"><ele>0.0</ele><time>2026-04-29T20:23:17.006Z</time></trkpt><trkpt lat="39.1444978" lon="0.740647"><ele>0.0</ele><time>2026-04-29T20:23:18.007Z</time></trkpt><trkpt lat="39.1445723" lon="0.7407067"><ele>0.0</ele><time>2026-04-29T20:23:19.007Z</time></trkpt><trkpt lat="39.1446531" lon="0.7407704"><ele>0.0</ele><time>2026-04-29T20:23:20.006Z</time></trkpt><trkpt lat="39.1447365" lon="0.7408059"><ele>0.0</ele><time>2026-04-29T20:23:21.007Z</time></trkpt><trkpt lat="39.1448194" lon="0.740866"><ele>0.0</ele><time>2026-04-29T20:23:22.006Z</time></trkpt><trkpt lat="39.1448928" lon="0.7409088"><ele>0.0</ele><time>2026-04-29T20:23:23.006Z</time></trkpt><trkpt lat="39.1449749" lon="0.7409431"><ele>0.0</ele><time>2026-04-29T20:23:24.006Z</time></trkpt><trkpt lat="39.1450596" lon="0.740981"><ele>0.0</ele><time>2026-04-29T20:23:25.006Z</time></trkpt><trkpt lat="39.145142" lon="0.7409944"><ele>0.0</ele><time>2026-04-29T20:23:26.007Z</time></trkpt><trkpt lat="39.1452276" lon="0.7410287"><ele>0.0</ele><time>2026-04-29T20:23:27.006Z</time></trkpt><trkpt lat="39.1453899" lon="0.741093"><ele>0.0</ele><time>2026-04-29T20:23:29.007Z</time></trkpt><trkpt lat="39.1454702" lon="0.7411326"><ele>0.0</ele><time>2026-04-29T20:23:30.006Z</time></trkpt><trkpt lat="39.1455474" lon="0.7411909"><ele>0.0</ele><time>2026-04-29T20:23:31.007Z</time></trkpt><trkpt lat="39.145624" lon="0.7412358"><ele>0.0</ele><time>2026-04-29T20:23:32.007Z</time></trkpt><trkpt lat="39.145698" lon="0.7412646"><ele>0.0</ele><time>2026-04-29T20:23:33.006Z</time></trkpt><trkpt lat="39.1457785" lon="0.7412987"><ele>0.0</ele><time>2026-04-29T20:23:34.007Z</time></trkpt><trkpt lat="39.1458572" lon="0.7413254"><ele>0.0</ele><time>2026-04-29T20:23:35.007Z</time></trkpt><trkpt lat="39.1459397" lon="0.7413542"><ele>0.0</ele><time>2026-04-29T20:23:36.006Z</time></trkpt><trkpt lat="39.1460158" lon="0.7413911"><ele>0.0</ele><time>2026-04-29T20:23:37.007Z</time></trkpt><trkpt lat="39.1460925" lon="0.7414253"><ele>0.0</ele><time>2026-04-29T20:23:38.007Z</time></trkpt><trkpt lat="39.1461748" lon="0.7414639"><ele>0.0</ele><time>2026-04-29T20:23:39.007Z</time></trkpt><trkpt lat="39.1462575" lon="0.7414995"><ele>0.0</ele><time>2026-04-29T20:23:40.006Z</time></trkpt><trkpt lat="39.1463437" lon="0.7415437"><ele>0.0</ele><time>2026-04-29T20:23:41.006Z</time></trkpt><trkpt lat="39.1464248" lon="0.7415907"><ele>0.0</ele><time>2026-04-29T20:23:42.006Z</time></trkpt><trkpt lat="39.1465062" lon="0.7416379"><ele>0.0</ele><time>2026-04-29T20:23:43.006Z</time></trkpt><trkpt lat="39.1465866" lon="0.7416749"><ele>0.0</ele><time>2026-04-29T20:23:44.006Z</time></trkpt><trkpt lat="39.1466695" lon="0.741712"><ele>0.0</ele><time>2026-04-29T20:23:45.006Z</time></trkpt><trkpt lat="39.1467528" lon="0.7417485"><ele>0.0</ele><time>2026-04-29T20:23:46.006Z</time></trkpt><trkpt lat="39.1468375" lon="0.7417865"><ele>0.0</ele><time>2026-04-29T20:23:47.006Z</time></trkpt><trkpt lat="39.1469166" lon="0.7418302"><ele>0.0</ele><time>2026-04-29T20:23:48.006Z</time></trkpt><trkpt lat="39.1470842" lon="0.7419117"><ele>0.0</ele><time>2026-04-29T20:23:50.006Z</time></trkpt><trkpt lat="39.1471704" lon="0.7419613"><ele>0.0</ele><time>2026-04-29T20:23:51.006Z</time></trkpt><trkpt lat="39.1472502" lon="0.7420058"><ele>0.0</ele><time>2026-04-29T20:23:52.007Z</time></trkpt><trkpt lat="39.1473284" lon="0.7420516"><ele>0.0</ele><time>2026-04-29T20:23:53.007Z</time></trkpt><trkpt lat="39.1474072" lon="0.7420856"><ele>0.0</ele><time>2026-04-29T20:23:54.007Z</time></trkpt><trkpt lat="39.1474858" lon="0.7421133"><ele>0.0</ele><time>2026-04-29T20:23:55.006Z</time></trkpt><trkpt lat="39.1475665" lon="0.7421539"><ele>0.0</ele><time>2026-04-29T20:23:56.006Z</time></trkpt><trkpt lat="39.1476448" lon="0.7421927"><ele>0.0</ele><time>2026-04-29T20:23:57.006Z</time></trkpt><trkpt lat="39.1477276" lon="0.7422372"><ele>0.0</ele><time>2026-04-29T20:23:58.006Z</time></trkpt><trkpt lat="39.1478122" lon="0.742284"><ele>0.0</ele><time>2026-04-29T20:23:59.006Z</time></trkpt><trkpt lat="39.1479017" lon="0.7423272"><ele>0.0</ele><time>2026-04-29T20:24:00.006Z</time></trkpt><trkpt lat="39.1479892" lon="0.7423686"><ele>0.0</ele><time>2026-04-29T20:24:01.006Z</time></trkpt><trkpt lat="39.1480733" lon="0.7424079"><ele>0.0</ele><time>2026-04-29T20:24:02.006Z</time></trkpt><trkpt lat="39.1481594" lon="0.7424554"><ele>0.0</ele><time>2026-04-29T20:24:03.007Z</time></trkpt><trkpt lat="39.1482343" lon="0.7424984"><ele>0.0</ele><time>2026-04-29T20:24:04.006Z</time></trkpt><trkpt lat="39.1483151" lon="0.7425358"><ele>0.0</ele><time>2026-04-29T20:24:05.007Z</time></trkpt><trkpt lat="39.1483952" lon="0.7425776"><ele>0.0</ele><time>2026-04-29T20:24:06.006Z</time></trkpt><trkpt lat="39.1484794" lon="0.7426203"><ele>0.0</ele><time>2026-04-29T20:24:07.006Z</time></trkpt><trkpt lat="39.1485573" lon="0.7426723"><ele>0.0</ele><time>2026-04-29T20:24:08.006Z</time></trkpt><trkpt lat="39.1486384" lon="0.7427269"><ele>0.0</ele><time>2026-04-29T20:24:09.007Z</time></trkpt><trkpt lat="39.1487945" lon="0.7428122"><ele>0.0</ele><time>2026-04-29T20:24:11.006Z</time></trkpt><trkpt lat="39.1488734" lon="0.7428481"><ele>0.0</ele><time>2026-04-29T20:24:12.007Z</time></trkpt><trkpt lat="39.1489505" lon="0.7428766"><ele>0.0</ele><time>2026-04-29T20:24:13.006Z</time></trkpt><trkpt lat="39.1490299" lon="0.7429134"><ele>0.0</ele><time>2026-04-29T20:24:14.006Z</time></trkpt><trkpt lat="39.1491142" lon="0.7429545"><ele>0.0</ele><time>2026-04-29T20:24:15.007Z</time></trkpt><trkpt lat="39.1491967" lon="0.7429953"><ele>0.0</ele><time>2026-04-29T20:24:16.006Z</time></trkpt><trkpt lat="39.1492768" lon="0.743047"><ele>0.0</ele><time>2026-04-29T20:24:17.007Z</time></trkpt><trkpt lat="39.1493525" lon="0.743101"><ele>0.0</ele><time>2026-04-29T20:24:18.007Z</time></trkpt><trkpt lat="39.1494293" lon="0.7431459"><ele>0.0</ele><time>2026-04-29T20:24:19.006Z</time></trkpt><trkpt lat="39.1495011" lon="0.7431873"><ele>0.0</ele><time>2026-04-29T20:24:20.006Z</time></trkpt><trkpt lat="39.1495856" lon="0.7432213"><ele>0.0</ele><time>2026-04-29T20:24:21.006Z</time></trkpt><trkpt lat="39.1496752" lon="0.7432642"><ele>0.0</ele><time>2026-04-29T20:24:22.006Z</time></trkpt><trkpt lat="39.1497624" lon="0.7433077"><ele>0.0</ele><time>2026-04-29T20:24:23.007Z</time></trkpt><trkpt lat="39.1498432" lon="0.7433584"><ele>0.0</ele><time>2026-04-29T20:24:24.006Z</time></trkpt><trkpt lat="39.1499208" lon="0.7434023"><ele>0.0</ele><time>2026-04-29T20:24:25.006Z</time></trkpt><trkpt lat="39.1499932" lon="0.7434459"><ele>0.0</ele><time>2026-04-29T20:24:26.006Z</time></trkpt><trkpt lat="39.1500689" lon="0.7434887"><ele>0.0</ele><time>2026-04-29T20:24:27.007Z</time></trkpt><trkpt lat="39.1501453" lon="0.7435294"><ele>0.0</ele><time>2026-04-29T20:24:28.007Z</time></trkpt><trkpt lat="39.1502378" lon="0.7435596"><ele>0.0</ele><time>2026-04-29T20:24:29.006Z</time></trkpt><trkpt lat="39.1503214" lon="0.743597"><ele>0.0</ele><time>2026-04-29T20:24:30.006Z</time></trkpt><trkpt lat="39.1504738" lon="0.7436995"><ele>0.0</ele><time>2026-04-29T20:24:32.006Z</time></trkpt><trkpt lat="39.1505518" lon="0.7437549"><ele>0.0</ele><time>2026-04-29T20:24:33.006Z</time></trkpt><trkpt lat="39.1506258" lon="0.7437975"><ele>0.0</ele><time>2026-04-29T20:24:34.007Z</time></trkpt><trkpt lat="39.1507034" lon="0.7438419"><ele>0.0</ele><time>2026-04-29T20:24:35.007Z</time></trkpt><trkpt lat="39.1507844" lon="0.7438886"><ele>0.0</ele><time>2026-04-29T20:24:36.006Z</time></trkpt><trkpt lat="39.1508676" lon="0.743944"><ele>0.0</ele><time>2026-04-29T20:24:37.006Z</time></trkpt><trkpt lat="39.1509483" lon="0.7440098"><ele>0.0</ele><time>2026-04-29T20:24:38.006Z</time></trkpt><trkpt lat="39.1510263" lon="0.7440715"><ele>0.0</ele><time>2026-04-29T20:24:39.007Z</time></trkpt><trkpt lat="39.1511078" lon="0.7441265"><ele>0.0</ele><time>2026-04-29T20:24:40.006Z</time></trkpt><trkpt lat="39.1511909" lon="0.7441797"><ele>0.0</ele><time>2026-04-29T20:24:41.007Z</time></trkpt><trkpt lat="39.1512745" lon="0.7442315"><ele>0.0</ele><time>2026-04-29T20:24:42.006Z</time></trkpt><trkpt lat="39.1513469" lon="0.7442569"><ele>0.0</ele><time>2026-04-29T20:24:43.006Z</time></trkpt><trkpt lat="39.1514157" lon="0.7442704"><ele>0.0</ele><time>2026-04-29T20:24:44.007Z</time></trkpt><trkpt lat="39.1514983" lon="0.7443201"><ele>0.0</ele><time>2026-04-29T20:24:45.006Z</time></trkpt><trkpt lat="39.1515823" lon="0.7443777"><ele>0.0</ele><time>2026-04-29T20:24:46.006Z</time></trkpt><trkpt lat="39.1516645" lon="0.7444392"><ele>0.0</ele><time>2026-04-29T20:24:47.006Z</time></trkpt><trkpt lat="39.1517505" lon="0.7445156"><ele>0.0</ele><time>2026-04-29T20:24:48.006Z</time></trkpt><trkpt lat="39.1518247" lon="0.7445657"><ele>0.0</ele><time>2026-04-29T20:24:49.006Z</time></trkpt><trkpt lat="39.1519052" lon="0.7446351"><ele>0.0</ele><time>2026-04-29T20:24:50.007Z</time></trkpt><trkpt lat="39.1519881" lon="0.7446997"><ele>0.0</ele><time>2026-04-29T20:24:51.006Z</time></trkpt><trkpt lat="39.1521545" lon="0.744808"><ele>0.0</ele><time>2026-04-29T20:24:53.007Z</time></trkpt><trkpt lat="39.1522292" lon="0.7448543"><ele>0.0</ele><time>2026-04-29T20:24:54.006Z</time></trkpt><trkpt lat="39.1523056" lon="0.7448969"><ele>0.0</ele><time>2026-04-29T20:24:55.006Z</time></trkpt><trkpt lat="39.1523852" lon="0.7449339"><ele>0.0</ele><time>2026-04-29T20:24:56.006Z</time></trkpt><trkpt lat="39.1524709" lon="0.7449675"><ele>0.0</ele><time>2026-04-29T20:24:57.006Z</time></trkpt><trkpt lat="39.1525489" lon="0.7450034"><ele>0.0</ele><time>2026-04-29T20:24:58.006Z</time></trkpt><trkpt lat="39.1526229" lon="0.7450462"><ele>0.0</ele><time>2026-04-29T20:24:59.006Z</time></trkpt><trkpt lat="39.1527003" lon="0.7450963"><ele>0.0</ele><time>2026-04-29T20:25:00.006Z</time></trkpt><trkpt lat="39.1527876" lon="0.7451463"><ele>0.0</ele><time>2026-04-29T20:25:01.006Z</time></trkpt><trkpt lat="39.1528712" lon="0.7451909"><ele>0.0</ele><time>2026-04-29T20:25:02.006Z</time></trkpt><trkpt lat="39.152952" lon="0.7452344"><ele>0.0</ele><time>2026-04-29T20:25:03.007Z</time></trkpt><trkpt lat="39.1530293" lon="0.7452744"><ele>0.0</ele><time>2026-04-29T20:25:04.006Z</time></trkpt><trkpt lat="39.1531041" lon="0.7453079"><ele>0.0</ele><time>2026-04-29T20:25:05.006Z</time></trkpt><trkpt lat="39.1531806" lon="0.745343"><ele>0.0</ele><time>2026-04-29T20:25:06.007Z</time></trkpt><trkpt lat="39.1532606" lon="0.7453803"><ele>0.0</ele><time>2026-04-29T20:25:07.006Z</time></trkpt><trkpt lat="39.1533431" lon="0.7454034"><ele>0.0</ele><time>2026-04-29T20:25:08.007Z</time></trkpt><trkpt lat="39.1534248" lon="0.7454345"><ele>0.0</ele><time>2026-04-29T20:25:09.006Z</time></trkpt><trkpt lat="39.1535168" lon="0.7454636"><ele>0.0</ele><time>2026-04-29T20:25:10.007Z</time></trkpt><trkpt lat="39.1536027" lon="0.7454961"><ele>0.0</ele><time>2026-04-29T20:25:11.007Z</time></trkpt><trkpt lat="39.1536904" lon="0.745543"><ele>0.0</ele><time>2026-04-29T20:25:12.006Z</time></trkpt><trkpt lat="39.1538652" lon="0.7456346"><ele>0.0</ele><time>2026-04-29T20:25:14.006Z</time></trkpt><trkpt lat="39.1539492" lon="0.7456879"><ele>0.0</ele><time>2026-04-29T20:25:15.006Z</time></trkpt><trkpt lat="39.1540313" lon="0.7457433"><ele>0.0</ele><time>2026-04-29T20:25:16.006Z</time></trkpt><trkpt lat="39.1541131" lon="0.7457987"><ele>0.0</ele><time>2026-04-29T20:25:17.006Z</time></trkpt><trkpt lat="39.1541918" lon="0.7458494"><ele>0.0</ele><time>2026-04-29T20:25:18.006Z</time></trkpt><trkpt lat="39.1542745" lon="0.7458871"><ele>0.0</ele><time>2026-04-29T20:25:19.006Z</time></trkpt><trkpt lat="39.1543509" lon="0.745925"><ele>0.0</ele><time>2026-04-29T20:25:20.007Z</time></trkpt><trkpt lat="39.1544333" lon="0.7459709"><ele>0.0</ele><time>2026-04-29T20:25:21.006Z</time></trkpt><trkpt lat="39.1545106" lon="0.7460137"><ele>0.0</ele><time>2026-04-29T20:25:22.007Z</time></trkpt><trkpt lat="39.1545914" lon="0.7460586"><ele>0.0</ele><time>2026-04-29T20:25:23.006Z</time></trkpt><trkpt lat="39.154673" lon="0.7460994"><ele>0.0</ele><time>2026-04-29T20:25:24.007Z</time></trkpt><trkpt lat="39.1547504" lon="0.7461226"><ele>0.0</ele><time>2026-04-29T20:25:25.006Z</time></trkpt><trkpt lat="39.1548326" lon="0.7461577"><ele>0.0</ele><time>2026-04-29T20:25:26.006Z</time></trkpt><trkpt lat="39.1549147" lon="0.7461903"><ele>0.0</ele><time>2026-04-29T20:25:27.007Z</time></trkpt><trkpt lat="39.1549966" lon="0.746225"><ele>0.0</ele><time>2026-04-29T20:25:28.007Z</time></trkpt><trkpt lat="39.1550753" lon="0.7462562"><ele>0.0</ele><time>2026-04-29T20:25:29.006Z</time></trkpt><trkpt lat="39.1551593" lon="0.7462745"><ele>0.0</ele><time>2026-04-29T20:25:30.007Z</time></trkpt><trkpt lat="39.1552415" lon="0.7463174"><ele>0.0</ele><time>2026-04-29T20:25:31.006Z</time></trkpt><trkpt lat="39.1553176" lon="0.7463596"><ele>0.0</ele><time>2026-04-29T20:25:32.006Z</time></trkpt><trkpt lat="39.1553938" lon="0.7464145"><ele>0.0</ele><time>2026-04-29T20:25:33.006Z</time></trkpt><trkpt lat="39.1555493" lon="0.7465203"><ele>0.0</ele><time>2026-04-29T20:25:35.006Z</time></trkpt><trkpt lat="39.1556257" lon="0.746577"><ele>0.0</ele><time>2026-04-29T20:25:36.007Z</time></trkpt><trkpt lat="39.1557122" lon="0.7466297"><ele>0.0</ele><time>2026-04-29T20:25:37.006Z</time></trkpt><trkpt lat="39.1557964" lon="0.7466831"><ele>0.0</ele><time>2026-04-29T20:25:38.006Z</time></trkpt><trkpt lat="39.1558811" lon="0.7467335"><ele>0.0</ele><time>2026-04-29T20:25:39.007Z</time></trkpt><trkpt lat="39.1559619" lon="0.7467819"><ele>0.0</ele><time>2026-04-29T20:25:40.006Z</time></trkpt><trkpt lat="39.1560419" lon="0.7468345"><ele>0.0</ele><time>2026-04-29T20:25:41.007Z</time></trkpt><trkpt lat="39.1561199" lon="0.7468894"><ele>0.0</ele><time>2026-04-29T20:25:42.007Z</time></trkpt><trkpt lat="39.156204" lon="0.7469504"><ele>0.0</ele><time>2026-04-29T20:25:43.007Z</time></trkpt><trkpt lat="39.1562807" lon="0.7470051"><ele>0.0</ele><time>2026-04-29T20:25:44.007Z</time></trkpt><trkpt lat="39.1563588" lon="0.7470468"><ele>0.0</ele><time>2026-04-29T20:25:45.007Z</time></trkpt><trkpt lat="39.1564385" lon="0.7470926"><ele>0.0</ele><time>2026-04-29T20:25:46.007Z</time></trkpt><trkpt lat="39.1565218" lon="0.7471409"><ele>0.0</ele><time>2026-04-29T20:25:47.006Z</time></trkpt><trkpt lat="39.1566063" lon="0.7471852"><ele>0.0</ele><time>2026-04-29T20:25:48.007Z</time></trkpt><trkpt lat="39.1566896" lon="0.747232"><ele>0.0</ele><time>2026-04-29T20:25:49.007Z</time></trkpt><trkpt lat="39.1567744" lon="0.7472517"><ele>0.0</ele><time>2026-04-29T20:25:50.006Z</time></trkpt><trkpt lat="39.1568537" lon="0.7472818"><ele>0.0</ele><time>2026-04-29T20:25:51.006Z</time></trkpt><trkpt lat="39.1569248" lon="0.7473147"><ele>0.0</ele><time>2026-04-29T20:25:52.006Z</time></trkpt><trkpt lat="39.1570053" lon="0.7473216"><ele>0.0</ele><time>2026-04-29T20:25:53.006Z</time></trkpt><trkpt lat="39.1570836" lon="0.7473411"><ele>0.0</ele><time>2026-04-29T20:25:54.007Z</time></trkpt><trkpt lat="39.1572519" lon="0.7474164"><ele>0.0</ele><time>2026-04-29T20:25:56.006Z</time></trkpt><trkpt lat="39.1573361" lon="0.7474538"><ele>0.0</ele><time>2026-04-29T20:25:57.006Z</time></trkpt><trkpt lat="39.1574154" lon="0.7474991"><ele>0.0</ele><time>2026-04-29T20:25:58.006Z</time></trkpt><trkpt lat="39.1574976" lon="0.7475555"><ele>0.0</ele><time>2026-04-29T20:25:59.006Z</time></trkpt><trkpt lat="39.1575838" lon="0.7476129"><ele>0.0</ele><time>2026-04-29T20:26:00.006Z</time></trkpt><trkpt lat="39.1576673" lon="0.7476687"><ele>0.0</ele><time>2026-04-29T20:26:01.007Z</time></trkpt><trkpt lat="39.157745" lon="0.7477193"><ele>0.0</ele><time>2026-04-29T20:26:02.007Z</time></trkpt><trkpt lat="39.1578217" lon="0.7477679"><ele>0.0</ele><time>2026-04-29T20:26:03.006Z</time></trkpt><trkpt lat="39.1579032" lon="0.7478177"><ele>0.0</ele><time>2026-04-29T20:26:04.007Z</time></trkpt><trkpt lat="39.1579809" lon="0.7478682"><ele>0.0</ele><time>2026-04-29T20:26:05.007Z</time></trkpt><trkpt lat="39.1580599" lon="0.7479172"><ele>0.0</ele><time>2026-04-29T20:26:06.006Z</time></trkpt><trkpt lat="39.1581371" lon="0.7479671"><ele>0.0</ele><time>2026-04-29T20:26:07.006Z</time></trkpt><trkpt lat="39.1582209" lon="0.7480171"><ele>0.0</ele><time>2026-04-29T20:26:08.006Z</time></trkpt><trkpt lat="39.1583035" lon="0.7480795"><ele>0.0</ele><time>2026-04-29T20:26:09.007Z</time></trkpt><trkpt lat="39.1583828" lon="0.7481287"><ele>0.0</ele><time>2026-04-29T20:26:10.007Z</time></trkpt><trkpt lat="39.1584632" lon="0.7481784"><ele>0.0</ele><time>2026-04-29T20:26:11.007Z</time></trkpt><trkpt lat="39.1585432" lon="0.7482269"><ele>0.0</ele><time>2026-04-29T20:26:12.006Z</time></trkpt><trkpt lat="39.1586292" lon="0.7482703"><ele>0.0</ele><time>2026-04-29T20:26:13.006Z</time></trkpt><trkpt lat="39.1587172" lon="0.748308"><ele>0.0</ele><time>2026-04-29T20:26:14.007Z</time></trkpt><trkpt lat="39.1587987" lon="0.7483503"><ele>0.0</ele><time>2026-04-29T20:26:15.006Z</time></trkpt><trkpt lat="39.1588802" lon="0.7483978"><ele>0.0</ele><time>2026-04-29T20:26:16.007Z</time></trkpt><trkpt lat="39.1590316" lon="0.7484836"><ele>0.0</ele><time>2026-04-29T20:26:18.006Z</time></trkpt><trkpt lat="39.1591099" lon="0.7485198"><ele>0.0</ele><time>2026-04-29T20:26:19.007Z</time></trkpt><trkpt lat="39.1591929" lon="0.7485522"><ele>0.0</ele><time>2026-04-29T20:26:20.007Z</time></trkpt><trkpt lat="39.1592806" lon="0.7485922"><ele>0.0</ele><time>2026-04-29T20:26:21.007Z</time></trkpt><trkpt lat="39.1593649" lon="0.748634"><ele>0.0</ele><time>2026-04-29T20:26:22.006Z</time></trkpt><trkpt lat="39.1594408" lon="0.7486766"><ele>0.0</ele><time>2026-04-29T20:26:23.006Z</time></trkpt><trkpt lat="39.1595288" lon="0.7487131"><ele>0.0</ele><time>2026-04-29T20:26:24.007Z</time></trkpt><trkpt lat="39.1596174" lon="0.7487504"><ele>0.0</ele><time>2026-04-29T20:26:25.007Z</time></trkpt><trkpt lat="39.1597086" lon="0.7487888"><ele>0.0</ele><time>2026-04-29T20:26:26.006Z</time></trkpt><trkpt lat="39.1597936" lon="0.748826"><ele>0.0</ele><time>2026-04-29T20:26:27.007Z</time></trkpt><trkpt lat="39.1598734" lon="0.7488637"><ele>0.0</ele><time>2026-04-29T20:26:28.007Z</time></trkpt><trkpt lat="39.1599576" lon="0.7489026"><ele>0.0</ele><time>2026-04-29T20:26:29.007Z</time></trkpt><trkpt lat="39.1600374" lon="0.7489421"><ele>0.0</ele><time>2026-04-29T20:26:30.006Z</time></trkpt><trkpt lat="39.1601158" lon="0.7489777"><ele>0.0</ele><time>2026-04-29T20:26:31.006Z</time></trkpt><trkpt lat="39.1601937" lon="0.7490171"><ele>0.0</ele><time>2026-04-29T20:26:32.007Z</time></trkpt><trkpt lat="39.160274" lon="0.7490661"><ele>0.0</ele><time>2026-04-29T20:26:33.006Z</time></trkpt><trkpt lat="39.160358" lon="0.7491155"><ele>0.0</ele><time>2026-04-29T20:26:34.006Z</time></trkpt><trkpt lat="39.1604386" lon="0.7491629"><ele>0.0</ele><time>2026-04-29T20:26:35.006Z</time></trkpt><trkpt lat="39.1605211" lon="0.7492203"><ele>0.0</ele><time>2026-04-29T20:26:36.006Z</time></trkpt><trkpt lat="39.1605991" lon="0.7492643"><ele>0.0</ele><time>2026-04-29T20:26:37.007Z</time></trkpt><trkpt lat="39.1607582" lon="0.7493574"><ele>0.0</ele><time>2026-04-29T20:26:39.006Z</time></trkpt><trkpt lat="39.1608389" lon="0.7494047"><ele>0.0</ele><time>2026-04-29T20:26:40.006Z</time></trkpt><trkpt lat="39.1609087" lon="0.7494565"><ele>0.0</ele><time>2026-04-29T20:26:41.007Z</time></trkpt><trkpt lat="39.1609859" lon="0.7494993"><ele>0.0</ele><time>2026-04-29T20:26:42.006Z</time></trkpt><trkpt lat="39.1610656" lon="0.7495422"><ele>0.0</ele><time>2026-04-29T20:26:43.006Z</time></trkpt><trkpt lat="39.1611451" lon="0.7495986"><ele>0.0</ele><time>2026-04-29T20:26:44.006Z</time></trkpt><trkpt lat="39.161231" lon="0.7496466"><ele>0.0</ele><time>2026-04-29T20:26:45.007Z</time></trkpt><trkpt lat="39.1613132" lon="0.7496923"><ele>0.0</ele><time>2026-04-29T20:26:46.007Z</time></trkpt><trkpt lat="39.1613907" lon="0.7497473"><ele>0.0</ele><time>2026-04-29T20:26:47.007Z</time></trkpt><trkpt lat="39.1614698" lon="0.749802"><ele>0.0</ele><time>2026-04-29T20:26:48.007Z</time></trkpt><trkpt lat="39.1615502" lon="0.7498527"><ele>0.0</ele><time>2026-04-29T20:26:49.007Z</time></trkpt><trkpt lat="39.1616357" lon="0.7499323"><ele>0.0</ele><time>2026-04-29T20:26:50.007Z</time></trkpt><trkpt lat="39.1617209" lon="0.7500002"><ele>0.0</ele><time>2026-04-29T20:26:51.007Z</time></trkpt><trkpt lat="39.161806" lon="0.75005"><ele>0.0</ele><time>2026-04-29T20:26:52.006Z</time></trkpt><trkpt lat="39.1618898" lon="0.7500958"><ele>0.0</ele><time>2026-04-29T20:26:53.006Z</time></trkpt><trkpt lat="39.1619716" lon="0.75015"><ele>0.0</ele><time>2026-04-29T20:26:54.007Z</time></trkpt><trkpt lat="39.162049" lon="0.7501918"><ele>0.0</ele><time>2026-04-29T20:26:55.007Z</time></trkpt><trkpt lat="39.162127" lon="0.7502351"><ele>0.0</ele><time>2026-04-29T20:26:56.006Z</time></trkpt><trkpt lat="39.1622036" lon="0.7502831"><ele>0.0</ele><time>2026-04-29T20:26:57.006Z</time></trkpt><trkpt lat="39.1622846" lon="0.7503346"><ele>0.0</ele><time>2026-04-29T20:26:58.006Z</time></trkpt><trkpt lat="39.1624453" lon="0.750419"><ele>0.0</ele><time>2026-04-29T20:27:00.006Z</time></trkpt><trkpt lat="39.1625207" lon="0.7504684"><ele>0.0</ele><time>2026-04-29T20:27:01.006Z</time></trkpt><trkpt lat="39.1625969" lon="0.7505114"><ele>0.0</ele><time>2026-04-29T20:27:02.007Z</time></trkpt><trkpt lat="39.1626778" lon="0.7505516"><ele>0.0</ele><time>2026-04-29T20:27:03.007Z</time></trkpt><trkpt lat="39.1627613" lon="0.7506099"><ele>0.0</ele><time>2026-04-29T20:27:04.007Z</time></trkpt><trkpt lat="39.1628405" lon="0.7506666"><ele>0.0</ele><time>2026-04-29T20:27:05.007Z</time></trkpt><trkpt lat="39.1629162" lon="0.7507215"><ele>0.0</ele><time>2026-04-29T20:27:06.006Z</time></trkpt><trkpt lat="39.1629935" lon="0.7507751"><ele>0.0</ele><time>2026-04-29T20:27:07.006Z</time></trkpt><trkpt lat="39.1630707" lon="0.7508136"><ele>0.0</ele><time>2026-04-29T20:27:08.007Z</time></trkpt><trkpt lat="39.1631518" lon="0.7508557"><ele>0.0</ele><time>2026-04-29T20:27:09.006Z</time></trkpt><trkpt lat="39.163229" lon="0.7508976"><ele>0.0</ele><time>2026-04-29T20:27:10.007Z</time></trkpt><trkpt lat="39.1633085" lon="0.7509336"><ele>0.0</ele><time>2026-04-29T20:27:11.007Z</time></trkpt><trkpt lat="39.1633874" lon="0.7509619"><ele>0.0</ele><time>2026-04-29T20:27:12.007Z</time></trkpt><trkpt lat="39.1634698" lon="0.7510003"><ele>0.0</ele><time>2026-04-29T20:27:13.006Z</time></trkpt><trkpt lat="39.163546" lon="0.751026"><ele>0.0</ele><time>2026-04-29T20:27:14.007Z</time></trkpt><trkpt lat="39.1636237" lon="0.7510665"><ele>0.0</ele><time>2026-04-29T20:27:15.007Z</time></trkpt><trkpt lat="39.1637036" lon="0.7511113"><ele>0.0</ele><time>2026-04-29T20:27:16.006Z</time></trkpt><trkpt lat="39.1637892" lon="0.7511505"><ele>0.0</ele><time>2026-04-29T20:27:17.007Z</time></trkpt><trkpt lat="39.1638773" lon="0.7511882"><ele>0.0</ele><time>2026-04-29T20:27:18.006Z</time></trkpt><trkpt lat="39.1639597" lon="0.7512156"><ele>0.0</ele><time>2026-04-29T20:27:19.006Z</time></trkpt><trkpt lat="39.1641249" lon="0.7512758"><ele>0.0</ele><time>2026-04-29T20:27:21.006Z</time></trkpt><trkpt lat="39.1642049" lon="0.7513069"><ele>0.0</ele><time>2026-04-29T20:27:22.006Z</time></trkpt><trkpt lat="39.1642819" lon="0.7513517"><ele>0.0</ele><time>2026-04-29T20:27:23.007Z</time></trkpt><trkpt lat="39.1643588" lon="0.7513824"><ele>0.0</ele><time>2026-04-29T20:27:24.006Z</time></trkpt><trkpt lat="39.1644397" lon="0.7514251"><ele>0.0</ele><time>2026-04-29T20:27:25.006Z</time></trkpt><trkpt lat="39.1645185" lon="0.7514747"><ele>0.0</ele><time>2026-04-29T20:27:26.007Z</time></trkpt><trkpt lat="39.1646023" lon="0.7515167"><ele>0.0</ele><time>2026-04-29T20:27:27.007Z</time></trkpt><trkpt lat="39.1646818" lon="0.7515544"><ele>0.0</ele><time>2026-04-29T20:27:28.007Z</time></trkpt><trkpt lat="39.1647602" lon="0.7516063"><ele>0.0</ele><time>2026-04-29T20:27:29.007Z</time></trkpt><trkpt lat="39.1648381" lon="0.7516574"><ele>0.0</ele><time>2026-04-29T20:27:30.007Z</time></trkpt><trkpt lat="39.1649213" lon="0.7517073"><ele>0.0</ele><time>2026-04-29T20:27:31.006Z</time></trkpt><trkpt lat="39.1650035" lon="0.7517529"><ele>0.0</ele><time>2026-04-29T20:27:32.007Z</time></trkpt><trkpt lat="39.1650863" lon="0.7517975"><ele>0.0</ele><time>2026-04-29T20:27:33.007Z</time></trkpt><trkpt lat="39.1651666" lon="0.7518438"><ele>0.0</ele><time>2026-04-29T20:27:34.007Z</time></trkpt><trkpt lat="39.1652453" lon="0.751895"><ele>0.0</ele><time>2026-04-29T20:27:35.007Z</time></trkpt><trkpt lat="39.1653292" lon="0.7519397"><ele>0.0</ele><time>2026-04-29T20:27:36.007Z</time></trkpt><trkpt lat="39.1654044" lon="0.75198"><ele>0.0</ele><time>2026-04-29T20:27:37.006Z</time></trkpt><trkpt lat="39.1654804" lon="0.752015"><ele>0.0</ele><time>2026-04-29T20:27:38.007Z</time></trkpt><trkpt lat="39.1655629" lon="0.7520543"><ele>0.0</ele><time>2026-04-29T20:27:39.006Z</time></trkpt><trkpt lat="39.1656476" lon="0.7521042"><ele>0.0</ele><time>2026-04-29T20:27:40.006Z</time></trkpt><trkpt lat="39.1658145" lon="0.752243"><ele>0.0</ele><time>2026-04-29T20:27:42.006Z</time></trkpt><trkpt lat="39.1658992" lon="0.7522825"><ele>0.0</ele><time>2026-04-29T20:27:43.006Z</time></trkpt><trkpt lat="39.1659801" lon="0.752338"><ele>0.0</ele><time>2026-04-29T20:27:44.005Z</time></trkpt><trkpt lat="39.1660625" lon="0.7523892"><ele>0.0</ele><time>2026-04-29T20:27:45.005Z</time></trkpt><trkpt lat="39.1661416" lon="0.7524419"><ele>0.0</ele><time>2026-04-29T20:27:46.005Z</time></trkpt><trkpt lat="39.1662219" lon="0.7524983"><ele>0.0</ele><time>2026-04-29T20:27:47.005Z</time></trkpt><trkpt lat="39.1663056" lon="0.752553"><ele>0.0</ele><time>2026-04-29T20:27:48.006Z</time></trkpt><trkpt lat="39.1663867" lon="0.7526066"><ele>0.0</ele><time>2026-04-29T20:27:49.005Z</time></trkpt><trkpt lat="39.1664625" lon="0.7526331"><ele>0.0</ele><time>2026-04-29T20:27:50.005Z</time></trkpt><trkpt lat="39.1665331" lon="0.752661"><ele>0.0</ele><time>2026-04-29T20:27:51.006Z</time></trkpt><trkpt lat="39.1666091" lon="0.7526975"><ele>0.0</ele><time>2026-04-29T20:27:52.006Z</time></trkpt><trkpt lat="39.1666885" lon="0.7527361"><ele>0.0</ele><time>2026-04-29T20:27:53.006Z</time></trkpt><trkpt lat="39.1667672" lon="0.7527835"><ele>0.0</ele><time>2026-04-29T20:27:54.006Z</time></trkpt><trkpt lat="39.1668395" lon="0.7528245"><ele>0.0</ele><time>2026-04-29T20:27:55.006Z</time></trkpt><trkpt lat="39.1669168" lon="0.7528497"><ele>0.0</ele><time>2026-04-29T20:27:56.006Z</time></trkpt><trkpt lat="39.1669936" lon="0.7528914"><ele>0.0</ele><time>2026-04-29T20:27:57.006Z</time></trkpt><trkpt lat="39.1670789" lon="0.7529335"><ele>0.0</ele><time>2026-04-29T20:27:58.005Z</time></trkpt><trkpt lat="39.1671615" lon="0.7529892"><ele>0.0</ele><time>2026-04-29T20:27:59.005Z</time></trkpt><trkpt lat="39.1672485" lon="0.7530345"><ele>0.0</ele><time>2026-04-29T20:28:00.006Z</time></trkpt><trkpt lat="39.1674028" lon="0.7531398"><ele>0.0</ele><time>2026-04-29T20:28:02.005Z</time></trkpt><trkpt lat="39.16748" lon="0.7531847"><ele>0.0</ele><time>2026-04-29T20:28:03.005Z</time></trkpt><trkpt lat="39.1675624" lon="0.7532323"><ele>0.0</ele><time>2026-04-29T20:28:04.006Z</time></trkpt><trkpt lat="39.1676427" lon="0.7532696"><ele>0.0</ele><time>2026-04-29T20:28:05.005Z</time></trkpt><trkpt lat="39.1677219" lon="0.7533035"><ele>0.0</ele><time>2026-04-29T20:28:06.006Z</time></trkpt><trkpt lat="39.1678055" lon="0.7533313"><ele>0.0</ele><time>2026-04-29T20:28:07.005Z</time></trkpt><trkpt lat="39.1678875" lon="0.7533782"><ele>0.0</ele><time>2026-04-29T20:28:08.006Z</time></trkpt><trkpt lat="39.1679582" lon="0.753416"><ele>0.0</ele><time>2026-04-29T20:28:09.006Z</time></trkpt><trkpt lat="39.1680396" lon="0.7534507"><ele>0.0</ele><time>2026-04-29T20:28:10.005Z</time></trkpt><trkpt lat="39.1681169" lon="0.7534912"><ele>0.0</ele><time>2026-04-29T20:28:11.006Z</time></trkpt><trkpt lat="39.1681993" lon="0.7535401"><ele>0.0</ele><time>2026-04-29T20:28:12.005Z</time></trkpt><trkpt lat="39.1682714" lon="0.7535782"><ele>0.0</ele><time>2026-04-29T20:28:13.006Z</time></trkpt><trkpt lat="39.168353" lon="0.7536122"><ele>0.0</ele><time>2026-04-29T20:28:14.006Z</time></trkpt><trkpt lat="39.1684365" lon="0.7536558"><ele>0.0</ele><time>2026-04-29T20:28:15.006Z</time></trkpt><trkpt lat="39.1685184" lon="0.7536981"><ele>0.0</ele><time>2026-04-29T20:28:16.005Z</time></trkpt><trkpt lat="39.1685955" lon="0.753743"><ele>0.0</ele><time>2026-04-29T20:28:17.005Z</time></trkpt><trkpt lat="39.1686779" lon="0.7537895"><ele>0.0</ele><time>2026-04-29T20:28:18.005Z</time></trkpt><trkpt lat="39.1687525" lon="0.7538234"><ele>0.0</ele><time>2026-04-29T20:28:19.005Z</time></trkpt><trkpt lat="39.1688287" lon="0.7538585"><ele>0.0</ele><time>2026-04-29T20:28:20.005Z</time></trkpt><trkpt lat="39.1689097" lon="0.7538955"><ele>0.0</ele><time>2026-04-29T20:28:21.006Z</time></trkpt><trkpt lat="39.1690791" lon="0.7539963"><ele>0.0</ele><time>2026-04-29T20:28:23.005Z</time></trkpt><trkpt lat="39.1691565" lon="0.7540527"><ele>0.0</ele><time>2026-04-29T20:28:24.006Z</time></trkpt><trkpt lat="39.1692365" lon="0.7540947"><ele>0.0</ele><time>2026-04-29T20:28:25.005Z</time></trkpt><trkpt lat="39.1693155" lon="0.7541283"><ele>0.0</ele><time>2026-04-29T20:28:26.006Z</time></trkpt><trkpt lat="39.1693935" lon="0.754161"><ele>0.0</ele><time>2026-04-29T20:28:27.006Z</time></trkpt><trkpt lat="39.169473" lon="0.7541981"><ele>0.0</ele><time>2026-04-29T20:28:28.006Z</time></trkpt><trkpt lat="39.1695531" lon="0.7542414"><ele>0.0</ele><time>2026-04-29T20:28:29.006Z</time></trkpt><trkpt lat="39.1696334" lon="0.7542862"><ele>0.0</ele><time>2026-04-29T20:28:30.005Z</time></trkpt><trkpt lat="39.1697122" lon="0.754327"><ele>0.0</ele><time>2026-04-29T20:28:31.006Z</time></trkpt><trkpt lat="39.1697948" lon="0.7543704"><ele>0.0</ele><time>2026-04-29T20:28:32.005Z</time></trkpt><trkpt lat="39.1698807" lon="0.7544188"><ele>0.0</ele><time>2026-04-29T20:28:33.005Z</time></trkpt><trkpt lat="39.169963" lon="0.7544689"><ele>0.0</ele><time>2026-04-29T20:28:34.006Z</time></trkpt><trkpt lat="39.170104" lon="0.7545392"><ele>0.0</ele><time>2026-04-29T20:28:36.005Z</time></trkpt><trkpt lat="39.1701878" lon="0.7545918"><ele>0.0</ele><time>2026-04-29T20:28:37.005Z</time></trkpt><trkpt lat="39.170275" lon="0.7546369"><ele>0.0</ele><time>2026-04-29T20:28:38.006Z</time></trkpt><trkpt lat="39.1703594" lon="0.7546844"><ele>0.0</ele><time>2026-04-29T20:28:39.006Z</time></trkpt><trkpt lat="39.1704446" lon="0.7547381"><ele>0.0</ele><time>2026-04-29T20:28:40.006Z</time></trkpt><trkpt lat="39.1705269" lon="0.754781"><ele>0.0</ele><time>2026-04-29T20:28:41.005Z</time></trkpt><trkpt lat="39.1706065" lon="0.7548231"><ele>0.0</ele><time>2026-04-29T20:28:42.005Z</time></trkpt><trkpt lat="39.1707682" lon="0.7549153"><ele>0.0</ele><time>2026-04-29T20:28:44.006Z</time></trkpt><trkpt lat="39.1708469" lon="0.7549594"><ele>0.0</ele><time>2026-04-29T20:28:45.005Z</time></trkpt><trkpt lat="39.1709325" lon="0.7549931"><ele>0.0</ele><time>2026-04-29T20:28:46.005Z</time></trkpt><trkpt lat="39.171012" lon="0.75504"><ele>0.0</ele><time>2026-04-29T20:28:47.005Z</time></trkpt><trkpt lat="39.1710939" lon="0.7550851"><ele>0.0</ele><time>2026-04-29T20:28:48.005Z</time></trkpt><trkpt lat="39.1711752" lon="0.7551388"><ele>0.0</ele><time>2026-04-29T20:28:49.006Z</time></trkpt><trkpt lat="39.1712537" lon="0.7551923"><ele>0.0</ele><time>2026-04-29T20:28:50.006Z</time></trkpt><trkpt lat="39.1713365" lon="0.7552347"><ele>0.0</ele><time>2026-04-29T20:28:51.006Z</time></trkpt><trkpt lat="39.1714153" lon="0.7552876"><ele>0.0</ele><time>2026-04-29T20:28:52.005Z</time></trkpt><trkpt lat="39.1714863" lon="0.755337"><ele>0.0</ele><time>2026-04-29T20:28:53.005Z</time></trkpt><trkpt lat="39.1715583" lon="0.7553926"><ele>0.0</ele><time>2026-04-29T20:28:54.005Z</time></trkpt><trkpt lat="39.1716425" lon="0.7554478"><ele>0.0</ele><time>2026-04-29T20:28:55.006Z</time></trkpt><trkpt lat="39.1717263" lon="0.7555059"><ele>0.0</ele><time>2026-04-29T20:28:56.006Z</time></trkpt><trkpt lat="39.1718052" lon="0.7555647"><ele>0.0</ele><time>2026-04-29T20:28:57.006Z</time></trkpt><trkpt lat="39.1718836" lon="0.7556263"><ele>0.0</ele><time>2026-04-29T20:28:58.005Z</time></trkpt><trkpt lat="39.1719617" lon="0.7556835"><ele>0.0</ele><time>2026-04-29T20:28:59.005Z</time></trkpt><trkpt lat="39.1720459" lon="0.7557415"><ele>0.0</ele><time>2026-04-29T20:29:00.005Z</time></trkpt><trkpt lat="39.1721264" lon="0.7557793"><ele>0.0</ele><time>2026-04-29T20:29:01.006Z</time></trkpt><trkpt lat="39.1722032" lon="0.7558158"><ele>0.0</ele><time>2026-04-29T20:29:02.005Z</time></trkpt><trkpt lat="39.1722828" lon="0.7558564"><ele>0.0</ele><time>2026-04-29T20:29:03.005Z</time></trkpt><trkpt lat="39.172435" lon="0.7559449"><ele>0.0</ele><time>2026-04-29T20:29:05.005Z</time></trkpt><trkpt lat="39.1725145" lon="0.7559922"><ele>0.0</ele><time>2026-04-29T20:29:06.005Z</time></trkpt><trkpt lat="39.1725959" lon="0.7560405"><ele>0.0</ele><time>2026-04-29T20:29:07.005Z</time></trkpt><trkpt lat="39.1726749" lon="0.756085"><ele>0.0</ele><time>2026-04-29T20:29:08.006Z</time></trkpt><trkpt lat="39.1727533" lon="0.756131"><ele>0.0</ele><time>2026-04-29T20:29:09.005Z</time></trkpt><trkpt lat="39.1728416" lon="0.7561886"><ele>0.0</ele><time>2026-04-29T20:29:10.006Z</time></trkpt><trkpt lat="39.1729273" lon="0.7562293"><ele>0.0</ele><time>2026-04-29T20:29:11.005Z</time></trkpt><trkpt lat="39.1730085" lon="0.7562647"><ele>0.0</ele><time>2026-04-29T20:29:12.005Z</time></trkpt><trkpt lat="39.1730849" lon="0.7562938"><ele>0.0</ele><time>2026-04-29T20:29:13.005Z</time></trkpt><trkpt lat="39.1731592" lon="0.7563322"><ele>0.0</ele><time>2026-04-29T20:29:14.005Z</time></trkpt><trkpt lat="39.1732353" lon="0.7563725"><ele>0.0</ele><time>2026-04-29T20:29:15.005Z</time></trkpt><trkpt lat="39.1733106" lon="0.7564097"><ele>0.0</ele><time>2026-04-29T20:29:16.006Z</time></trkpt><trkpt lat="39.1733897" lon="0.7564549"><ele>0.0</ele><time>2026-04-29T20:29:17.006Z</time></trkpt><trkpt lat="39.1734696" lon="0.7565053"><ele>0.0</ele><time>2026-04-29T20:29:18.005Z</time></trkpt><trkpt lat="39.1735535" lon="0.7565582"><ele>0.0</ele><time>2026-04-29T20:29:19.005Z</time></trkpt><trkpt lat="39.1736345" lon="0.756616"><ele>0.0</ele><time>2026-04-29T20:29:20.005Z</time></trkpt><trkpt lat="39.1737161" lon="0.7566714"><ele>0.0</ele><time>2026-04-29T20:29:21.005Z</time></trkpt><trkpt lat="39.1737934" lon="0.7567026"><ele>0.0</ele><time>2026-04-29T20:29:22.005Z</time></trkpt><trkpt lat="39.1738676" lon="0.7567335"><ele>0.0</ele><time>2026-04-29T20:29:23.005Z</time></trkpt><trkpt lat="39.1739421" lon="0.7567736"><ele>0.0</ele><time>2026-04-29T20:29:24.005Z</time></trkpt><trkpt lat="39.1740197" lon="0.7568191"><ele>0.0</ele><time>2026-04-29T20:29:25.006Z</time></trkpt><trkpt lat="39.1741772" lon="0.756902"><ele>0.0</ele><time>2026-04-29T20:29:27.006Z</time></trkpt><trkpt lat="39.1742539" lon="0.7569322"><ele>0.0</ele><time>2026-04-29T20:29:28.005Z</time></trkpt><trkpt lat="39.1743358" lon="0.7569628"><ele>0.0</ele><time>2026-04-29T20:29:29.006Z</time></trkpt><trkpt lat="39.174418" lon="0.7570036"><ele>0.0</ele><time>2026-04-29T20:29:30.005Z</time></trkpt><trkpt lat="39.1744969" lon="0.7570457"><ele>0.0</ele><time>2026-04-29T20:29:31.005Z</time></trkpt><trkpt lat="39.1745793" lon="0.757082"><ele>0.0</ele><time>2026-04-29T20:29:32.005Z</time></trkpt><trkpt lat="39.1746601" lon="0.7571151"><ele>0.0</ele><time>2026-04-29T20:29:33.005Z</time></trkpt><trkpt lat="39.1747353" lon="0.757144"><ele>0.0</ele><time>2026-04-29T20:29:34.006Z</time></trkpt><trkpt lat="39.1748174" lon="0.7571807"><ele>0.0</ele><time>2026-04-29T20:29:35.006Z</time></trkpt><trkpt lat="39.1748922" lon="0.7572205"><ele>0.0</ele><time>2026-04-29T20:29:36.006Z</time></trkpt><trkpt lat="39.1749686" lon="0.7572774"><ele>0.0</ele><time>2026-04-29T20:29:37.006Z</time></trkpt><trkpt lat="39.1750454" lon="0.7573313"><ele>0.0</ele><time>2026-04-29T20:29:38.006Z</time></trkpt><trkpt lat="39.1751257" lon="0.7573802"><ele>0.0</ele><time>2026-04-29T20:29:39.006Z</time></trkpt><trkpt lat="39.1752022" lon="0.7574315"><ele>0.0</ele><time>2026-04-29T20:29:40.006Z</time></trkpt><trkpt lat="39.1752801" lon="0.7574749"><ele>0.0</ele><time>2026-04-29T20:29:41.006Z</time></trkpt><trkpt lat="39.1753627" lon="0.7575124"><ele>0.0</ele><time>2026-04-29T20:29:42.006Z</time></trkpt><trkpt lat="39.1754447" lon="0.7575515"><ele>0.0</ele><time>2026-04-29T20:29:43.005Z</time></trkpt><trkpt lat="39.175528" lon="0.7575911"><ele>0.0</ele><time>2026-04-29T20:29:44.006Z</time></trkpt><trkpt lat="39.1756087" lon="0.7576297"><ele>0.0</ele><time>2026-04-29T20:29:45.006Z</time></trkpt><trkpt lat="39.1756899" lon="0.7576693"><ele>0.0</ele><time>2026-04-29T20:29:46.005Z</time></trkpt><trkpt lat="39.1758568" lon="0.7577566"><ele>0.0</ele><time>2026-04-29T20:29:48.005Z</time></trkpt><trkpt lat="39.1759324" lon="0.7577928"><ele>0.0</ele><time>2026-04-29T20:29:49.005Z</time></trkpt><trkpt lat="39.1760075" lon="0.757837"><ele>0.0</ele><time>2026-04-29T20:29:50.006Z</time></trkpt><trkpt lat="39.1760854" lon="0.7578823"><ele>0.0</ele><time>2026-04-29T20:29:51.006Z</time></trkpt><trkpt lat="39.1761666" lon="0.7579246"><ele>0.0</ele><time>2026-04-29T20:29:52.006Z</time></trkpt><trkpt lat="39.1762482" lon="0.7579664"><ele>0.0</ele><time>2026-04-29T20:29:53.006Z</time></trkpt><trkpt lat="39.1763271" lon="0.7580151"><ele>0.0</ele><time>2026-04-29T20:29:54.005Z</time></trkpt><trkpt lat="39.176411" lon="0.7580556"><ele>0.0</ele><time>2026-04-29T20:29:55.005Z</time></trkpt><trkpt lat="39.1764959" lon="0.7581039"><ele>0.0</ele><time>2026-04-29T20:29:56.005Z</time></trkpt><trkpt lat="39.1765795" lon="0.758157"><ele>0.0</ele><time>2026-04-29T20:29:57.006Z</time></trkpt><trkpt lat="39.1766626" lon="0.7582156"><ele>0.0</ele><time>2026-04-29T20:29:58.006Z</time></trkpt><trkpt lat="39.1767415" lon="0.7582705"><ele>0.0</ele><time>2026-04-29T20:29:59.006Z</time></trkpt><trkpt lat="39.1768233" lon="0.7583298"><ele>0.0</ele><time>2026-04-29T20:30:00.005Z</time></trkpt><trkpt lat="39.1769008" lon="0.758381"><ele>0.0</ele><time>2026-04-29T20:30:01.005Z</time></trkpt><trkpt lat="39.1769743" lon="0.7584343"><ele>0.0</ele><time>2026-04-29T20:30:02.005Z</time></trkpt><trkpt lat="39.1770478" lon="0.7584895"><ele>0.0</ele><time>2026-04-29T20:30:03.005Z</time></trkpt><trkpt lat="39.1771178" lon="0.7585332"><ele>0.0</ele><time>2026-04-29T20:30:04.005Z</time></trkpt><trkpt lat="39.177195" lon="0.7585842"><ele>0.0</ele><time>2026-04-29T20:30:05.005Z</time></trkpt><trkpt lat="39.1772746" lon="0.7586171"><ele>0.0</ele><time>2026-04-29T20:30:06.005Z</time></trkpt><trkpt lat="39.177358" lon="0.7586529"><ele>0.0</ele><time>2026-04-29T20:30:07.005Z</time></trkpt><trkpt lat="39.1775167" lon="0.7587325"><ele>0.0</ele><time>2026-04-29T20:30:09.006Z</time></trkpt><trkpt lat="39.1775989" lon="0.7587821"><ele>0.0</ele><time>2026-04-29T20:30:10.006Z</time></trkpt><trkpt lat="39.1776709" lon="0.7588207"><ele>0.0</ele><time>2026-04-29T20:30:11.006Z</time></trkpt><trkpt lat="39.1777514" lon="0.7588631"><ele>0.0</ele><time>2026-04-29T20:30:12.006Z</time></trkpt><trkpt lat="39.1778242" lon="0.7589135"><ele>0.0</ele><time>2026-04-29T20:30:13.005Z</time></trkpt><trkpt lat="39.1779021" lon="0.7589638"><ele>0.0</ele><time>2026-04-29T20:30:14.006Z</time></trkpt><trkpt lat="39.1779842" lon="0.75902"><ele>0.0</ele><time>2026-04-29T20:30:15.006Z</time></trkpt><trkpt lat="39.1780648" lon="0.7590781"><ele>0.0</ele><time>2026-04-29T20:30:16.005Z</time></trkpt><trkpt lat="39.1781422" lon="0.7591203"><ele>0.0</ele><time>2026-04-29T20:30:17.006Z</time></trkpt><trkpt lat="39.1782244" lon="0.7591588"><ele>0.0</ele><time>2026-04-29T20:30:18.006Z</time></trkpt><trkpt lat="39.178312" lon="0.7591995"><ele>0.0</ele><time>2026-04-29T20:30:19.005Z</time></trkpt><trkpt lat="39.178399" lon="0.7592382"><ele>0.0</ele><time>2026-04-29T20:30:20.005Z</time></trkpt><trkpt lat="39.1784786" lon="0.7592682"><ele>0.0</ele><time>2026-04-29T20:30:21.006Z</time></trkpt><trkpt lat="39.1785611" lon="0.7593012"><ele>0.0</ele><time>2026-04-29T20:30:22.005Z</time></trkpt><trkpt lat="39.1786399" lon="0.7593392"><ele>0.0</ele><time>2026-04-29T20:30:23.006Z</time></trkpt><trkpt lat="39.1787154" lon="0.7593789"><ele>0.0</ele><time>2026-04-29T20:30:24.005Z</time></trkpt><trkpt lat="39.1788005" lon="0.7594181"><ele>0.0</ele><time>2026-04-29T20:30:25.006Z</time></trkpt><trkpt lat="39.1788845" lon="0.7594587"><ele>0.0</ele><time>2026-04-29T20:30:26.006Z</time></trkpt><trkpt lat="39.1789639" lon="0.7594926"><ele>0.0</ele><time>2026-04-29T20:30:27.006Z</time></trkpt><trkpt lat="39.1790423" lon="0.7595203"><ele>0.0</ele><time>2026-04-29T20:30:28.005Z</time></trkpt><trkpt lat="39.1791161" lon="0.7595442"><ele>0.0</ele><time>2026-04-29T20:30:29.006Z</time></trkpt><trkpt lat="39.1792818" lon="0.7596265"><ele>0.0</ele><time>2026-04-29T20:30:31.005Z</time></trkpt><trkpt lat="39.1793675" lon="0.7596706"><ele>0.0</ele><time>2026-04-29T20:30:32.006Z</time></trkpt><trkpt lat="39.1794471" lon="0.759726"><ele>0.0</ele><time>2026-04-29T20:30:33.005Z</time></trkpt><trkpt lat="39.1795284" lon="0.759774"><ele>0.0</ele><time>2026-04-29T20:30:34.006Z</time></trkpt><trkpt lat="39.1796116" lon="0.7598132"><ele>0.0</ele><time>2026-04-29T20:30:35.006Z</time></trkpt><trkpt lat="39.1796858" lon="0.7598627"><ele>0.0</ele><time>2026-04-29T20:30:36.006Z</time></trkpt><trkpt lat="39.1797647" lon="0.7598993"><ele>0.0</ele><time>2026-04-29T20:30:37.006Z</time></trkpt><trkpt lat="39.1798509" lon="0.7599422"><ele>0.0</ele><time>2026-04-29T20:30:38.005Z</time></trkpt><trkpt lat="39.1799288" lon="0.7599825"><ele>0.0</ele><time>2026-04-29T20:30:39.005Z</time></trkpt><trkpt lat="39.1800054" lon="0.7600224"><ele>0.0</ele><time>2026-04-29T20:30:40.006Z</time></trkpt><trkpt lat="39.180082" lon="0.7600613"><ele>0.0</ele><time>2026-04-29T20:30:41.005Z</time></trkpt><trkpt lat="39.1801642" lon="0.7601129"><ele>0.0</ele><time>2026-04-29T20:30:42.005Z</time></trkpt><trkpt lat="39.1802467" lon="0.7601517"><ele>0.0</ele><time>2026-04-29T20:30:43.005Z</time></trkpt><trkpt lat="39.1803314" lon="0.7601844"><ele>0.0</ele><time>2026-04-29T20:30:44.005Z</time></trkpt><trkpt lat="39.1804092" lon="0.7602181"><ele>0.0</ele><time>2026-04-29T20:30:45.005Z</time></trkpt><trkpt lat="39.1804859" lon="0.7602525"><ele>0.0</ele><time>2026-04-29T20:30:46.005Z</time></trkpt><trkpt lat="39.1805623" lon="0.7603108"><ele>0.0</ele><time>2026-04-29T20:30:47.005Z</time></trkpt><trkpt lat="39.1806301" lon="0.760369"><ele>0.0</ele><time>2026-04-29T20:30:48.006Z</time></trkpt><trkpt lat="39.1807037" lon="0.7604295"><ele>0.0</ele><time>2026-04-29T20:30:49.005Z</time></trkpt><trkpt lat="39.1807775" lon="0.7604774"><ele>0.0</ele><time>2026-04-29T20:30:50.005Z</time></trkpt><trkpt lat="39.1809335" lon="0.7605917"><ele>0.0</ele><time>2026-04-29T20:30:52.006Z</time></trkpt><trkpt lat="39.1810132" lon="0.7606406"><ele>0.0</ele><time>2026-04-29T20:30:53.005Z</time></trkpt><trkpt lat="39.181092" lon="0.7607054"><ele>0.0</ele><time>2026-04-29T20:30:54.005Z</time></trkpt><trkpt lat="39.181173" lon="0.7607538"><ele>0.0</ele><time>2026-04-29T20:30:55.006Z</time></trkpt><trkpt lat="39.1812532" lon="0.7608165"><ele>0.0</ele><time>2026-04-29T20:30:56.005Z</time></trkpt><trkpt lat="39.1813345" lon="0.7608842"><ele>0.0</ele><time>2026-04-29T20:30:57.006Z</time></trkpt><trkpt lat="39.1814108" lon="0.7609397"><ele>0.0</ele><time>2026-04-29T20:30:58.006Z</time></trkpt><trkpt lat="39.1814885" lon="0.7609945"><ele>0.0</ele><time>2026-04-29T20:30:59.006Z</time></trkpt><trkpt lat="39.1815782" lon="0.7610461"><ele>0.0</ele><time>2026-04-29T20:31:00.006Z</time></trkpt><trkpt lat="39.1816684" lon="0.7611021"><ele>0.0</ele><time>2026-04-29T20:31:01.005Z</time></trkpt><trkpt lat="39.18175" lon="0.7611558"><ele>0.0</ele><time>2026-04-29T20:31:02.005Z</time></trkpt><trkpt lat="39.1818216" lon="0.7611982"><ele>0.0</ele><time>2026-04-29T20:31:03.006Z</time></trkpt><trkpt lat="39.1818962" lon="0.7612093"><ele>0.0</ele><time>2026-04-29T20:31:04.005Z</time></trkpt><trkpt lat="39.1819753" lon="0.7612299"><ele>0.0</ele><time>2026-04-29T20:31:05.006Z</time></trkpt><trkpt lat="39.1820509" lon="0.7612654"><ele>0.0</ele><time>2026-04-29T20:31:06.005Z</time></trkpt><trkpt lat="39.1821282" lon="0.7613113"><ele>0.0</ele><time>2026-04-29T20:31:07.005Z</time></trkpt><trkpt lat="39.1822065" lon="0.7613653"><ele>0.0</ele><time>2026-04-29T20:31:08.006Z</time></trkpt><trkpt lat="39.1822823" lon="0.7614197"><ele>0.0</ele><time>2026-04-29T20:31:09.005Z</time></trkpt><trkpt lat="39.1823615" lon="0.7614731"><ele>0.0</ele><time>2026-04-29T20:31:10.005Z</time></trkpt><trkpt lat="39.1824315" lon="0.7615137"><ele>0.0</ele><time>2026-04-29T20:31:11.005Z</time></trkpt><trkpt lat="39.1825927" lon="0.7615952"><ele>0.0</ele><time>2026-04-29T20:31:13.006Z</time></trkpt><trkpt lat="39.1826692" lon="0.7616358"><ele>0.0</ele><time>2026-04-29T20:31:14.005Z</time></trkpt><trkpt lat="39.1827469" lon="0.7616759"><ele>0.0</ele><time>2026-04-29T20:31:15.006Z</time></trkpt><trkpt lat="39.1828232" lon="0.7617154"><ele>0.0</ele><time>2026-04-29T20:31:16.006Z</time></trkpt><trkpt lat="39.1829032" lon="0.7617414"><ele>0.0</ele><time>2026-04-29T20:31:17.005Z</time></trkpt><trkpt lat="39.1829876" lon="0.7617794"><ele>0.0</ele><time>2026-04-29T20:31:18.005Z</time></trkpt><trkpt lat="39.1830697" lon="0.7618114"><ele>0.0</ele><time>2026-04-29T20:31:19.006Z</time></trkpt><trkpt lat="39.1831458" lon="0.7618499"><ele>0.0</ele><time>2026-04-29T20:31:20.006Z</time></trkpt><trkpt lat="39.1832218" lon="0.7618956"><ele>0.0</ele><time>2026-04-29T20:31:21.005Z</time></trkpt><trkpt lat="39.1833043" lon="0.7619412"><ele>0.0</ele><time>2026-04-29T20:31:22.006Z</time></trkpt><trkpt lat="39.1833918" lon="0.7619895"><ele>0.0</ele><time>2026-04-29T20:31:23.006Z</time></trkpt><trkpt lat="39.1834731" lon="0.7620277"><ele>0.0</ele><time>2026-04-29T20:31:24.005Z</time></trkpt><trkpt lat="39.1835512" lon="0.7620698"><ele>0.0</ele><time>2026-04-29T20:31:25.006Z</time></trkpt><trkpt lat="39.1836301" lon="0.7621159"><ele>0.0</ele><time>2026-04-29T20:31:26.006Z</time></trkpt><trkpt lat="39.183713" lon="0.7621513"><ele>0.0</ele><time>2026-04-29T20:31:27.006Z</time></trkpt><trkpt lat="39.1837992" lon="0.7621875"><ele>0.0</ele><time>2026-04-29T20:31:28.005Z</time></trkpt><trkpt lat="39.1838759" lon="0.7622328"><ele>0.0</ele><time>2026-04-29T20:31:29.006Z</time></trkpt><trkpt lat="39.1839568" lon="0.7622666"><ele>0.0</ele><time>2026-04-29T20:31:30.005Z</time></trkpt><trkpt lat="39.1840384" lon="0.7623114"><ele>0.0</ele><time>2026-04-29T20:31:31.006Z</time></trkpt><trkpt lat="39.184117" lon="0.7623451"><ele>0.0</ele><time>2026-04-29T20:31:32.005Z</time></trkpt><trkpt lat="39.1841909" lon="0.7623867"><ele>0.0</ele><time>2026-04-29T20:31:33.005Z</time></trkpt><trkpt lat="39.1843462" lon="0.7624873"><ele>0.0</ele><time>2026-04-29T20:31:35.005Z</time></trkpt><trkpt lat="39.1844207" lon="0.7625391"><ele>0.0</ele><time>2026-04-29T20:31:36.005Z</time></trkpt><trkpt lat="39.1844996" lon="0.7625917"><ele>0.0</ele><time>2026-04-29T20:31:37.005Z</time></trkpt><trkpt lat="39.1845809" lon="0.7626436"><ele>0.0</ele><time>2026-04-29T20:31:38.006Z</time></trkpt><trkpt lat="39.1846612" lon="0.7627185"><ele>0.0</ele><time>2026-04-29T20:31:39.005Z</time></trkpt><trkpt lat="39.1847255" lon="0.7627962"><ele>0.0</ele><time>2026-04-29T20:31:40.006Z</time></trkpt><trkpt lat="39.184796" lon="0.7628592"><ele>0.0</ele><time>2026-04-29T20:31:41.006Z</time></trkpt><trkpt lat="39.1848748" lon="0.7629238"><ele>0.0</ele><time>2026-04-29T20:31:42.006Z</time></trkpt><trkpt lat="39.1849484" lon="0.7629847"><ele>0.0</ele><time>2026-04-29T20:31:43.006Z</time></trkpt><trkpt lat="39.1850241" lon="0.7630467"><ele>0.0</ele><time>2026-04-29T20:31:44.005Z</time></trkpt><trkpt lat="39.1851032" lon="0.7631089"><ele>0.0</ele><time>2026-04-29T20:31:45.006Z</time></trkpt><trkpt lat="39.1851844" lon="0.7631755"><ele>0.0</ele><time>2026-04-29T20:31:46.005Z</time></trkpt><trkpt lat="39.1852613" lon="0.7632284"><ele>0.0</ele><time>2026-04-29T20:31:47.006Z</time></trkpt><trkpt lat="39.1853382" lon="0.7632931"><ele>0.0</ele><time>2026-04-29T20:31:48.006Z</time></trkpt><trkpt lat="39.1854138" lon="0.7633506"><ele>0.0</ele><time>2026-04-29T20:31:49.005Z</time></trkpt><trkpt lat="39.185486" lon="0.7634038"><ele>0.0</ele><time>2026-04-29T20:31:50.006Z</time></trkpt><trkpt lat="39.1855577" lon="0.7634563"><ele>0.0</ele><time>2026-04-29T20:31:51.006Z</time></trkpt><trkpt lat="39.1856335" lon="0.7635091"><ele>0.0</ele><time>2026-04-29T20:31:52.006Z</time></trkpt><trkpt lat="39.1857114" lon="0.7635669"><ele>0.0</ele><time>2026-04-29T20:31:53.005Z</time></trkpt><trkpt lat="39.185787" lon="0.763626"><ele>0.0</ele><time>2026-04-29T20:31:54.005Z</time></trkpt><trkpt lat="39.1859422" lon="0.7637345"><ele>0.0</ele><time>2026-04-29T20:31:56.006Z</time></trkpt><trkpt lat="39.186017" lon="0.7637867"><ele>0.0</ele><time>2026-04-29T20:31:57.005Z</time></trkpt><trkpt lat="39.1860937" lon="0.7638383"><ele>0.0</ele><time>2026-04-29T20:31:58.006Z</time></trkpt><trkpt lat="39.1861759" lon="0.7638784"><ele>0.0</ele><time>2026-04-29T20:31:59.005Z</time></trkpt><trkpt lat="39.1862552" lon="0.7639238"><ele>0.0</ele><time>2026-04-29T20:32:00.005Z</time></trkpt><trkpt lat="39.186332" lon="0.7639723"><ele>0.0</ele><time>2026-04-29T20:32:01.006Z</time></trkpt><trkpt lat="39.1864116" lon="0.7640182"><ele>0.0</ele><time>2026-04-29T20:32:02.006Z</time></trkpt><trkpt lat="39.1864915" lon="0.7640616"><ele>0.0</ele><time>2026-04-29T20:32:03.005Z</time></trkpt><trkpt lat="39.1865672" lon="0.7641084"><ele>0.0</ele><time>2026-04-29T20:32:04.006Z</time></trkpt><trkpt lat="39.1866436" lon="0.7641539"><ele>0.0</ele><time>2026-04-29T20:32:05.004Z</time></trkpt><trkpt lat="39.1867245" lon="0.7641998"><ele>0.0</ele><time>2026-04-29T20:32:06.004Z</time></trkpt><trkpt lat="39.1868031" lon="0.7642509"><ele>0.0</ele><time>2026-04-29T20:32:07.004Z</time></trkpt><trkpt lat="39.1868816" lon="0.7643"><ele>0.0</ele><time>2026-04-29T20:32:08.004Z</time></trkpt><trkpt lat="39.1869569" lon="0.7643503"><ele>0.0</ele><time>2026-04-29T20:32:09.005Z</time></trkpt><trkpt lat="39.1870344" lon="0.7643935"><ele>0.0</ele><time>2026-04-29T20:32:10.005Z</time></trkpt><trkpt lat="39.1871102" lon="0.7644389"><ele>0.0</ele><time>2026-04-29T20:32:11.005Z</time></trkpt><trkpt lat="39.1871911" lon="0.7644739"><ele>0.0</ele><time>2026-04-29T20:32:12.005Z</time></trkpt><trkpt lat="39.1872668" lon="0.7645263"><ele>0.0</ele><time>2026-04-29T20:32:13.004Z</time></trkpt><trkpt lat="39.1873476" lon="0.7645707"><ele>0.0</ele><time>2026-04-29T20:32:14.005Z</time></trkpt><trkpt lat="39.1874253" lon="0.764617"><ele>0.0</ele><time>2026-04-29T20:32:15.004Z</time></trkpt><trkpt lat="39.1875861" lon="0.7647169"><ele>0.0</ele><time>2026-04-29T20:32:17.005Z</time></trkpt><trkpt lat="39.187663" lon="0.7647652"><ele>0.0</ele><time>2026-04-29T20:32:18.004Z</time></trkpt><trkpt lat="39.187737" lon="0.7648168"><ele>0.0</ele><time>2026-04-29T20:32:19.004Z</time></trkpt><trkpt lat="39.1878148" lon="0.7648699"><ele>0.0</ele><time>2026-04-29T20:32:20.005Z</time></trkpt><trkpt lat="39.1878944" lon="0.7649214"><ele>0.0</ele><time>2026-04-29T20:32:21.004Z</time></trkpt><trkpt lat="39.1879749" lon="0.7649615"><ele>0.0</ele><time>2026-04-29T20:32:22.004Z</time></trkpt><trkpt lat="39.1880436" lon="0.765"><ele>0.0</ele><time>2026-04-29T20:32:23.004Z</time></trkpt><trkpt lat="39.188117" lon="0.7650433"><ele>0.0</ele><time>2026-04-29T20:32:24.005Z</time></trkpt><trkpt lat="39.1881973" lon="0.765098"><ele>0.0</ele><time>2026-04-29T20:32:25.005Z</time></trkpt><trkpt lat="39.1882791" lon="0.7651403"><ele>0.0</ele><time>2026-04-29T20:32:26.004Z</time></trkpt><trkpt lat="39.1883579" lon="0.7651887"><ele>0.0</ele><time>2026-04-29T20:32:27.004Z</time></trkpt><trkpt lat="39.1884323" lon="0.765241"><ele>0.0</ele><time>2026-04-29T20:32:28.004Z</time></trkpt><trkpt lat="39.1885098" lon="0.7652899"><ele>0.0</ele><time>2026-04-29T20:32:29.004Z</time></trkpt><trkpt lat="39.1885838" lon="0.7653409"><ele>0.0</ele><time>2026-04-29T20:32:30.005Z</time></trkpt><trkpt lat="39.1886584" lon="0.7653973"><ele>0.0</ele><time>2026-04-29T20:32:31.005Z</time></trkpt><trkpt lat="39.1887314" lon="0.7654491"><ele>0.0</ele><time>2026-04-29T20:32:32.005Z</time></trkpt><trkpt lat="39.1888072" lon="0.7654967"><ele>0.0</ele><time>2026-04-29T20:32:33.005Z</time></trkpt><trkpt lat="39.1888882" lon="0.7655507"><ele>0.0</ele><time>2026-04-29T20:32:34.005Z</time></trkpt><trkpt lat="39.1889652" lon="0.7656161"><ele>0.0</ele><time>2026-04-29T20:32:35.005Z</time></trkpt><trkpt lat="39.1890333" lon="0.7656797"><ele>0.0</ele><time>2026-04-29T20:32:36.004Z</time></trkpt><trkpt lat="39.1891832" lon="0.7657827"><ele>0.0</ele><time>2026-04-29T20:32:38.004Z</time></trkpt><trkpt lat="39.1892572" lon="0.7658326"><ele>0.0</ele><time>2026-04-29T20:32:39.005Z</time></trkpt><trkpt lat="39.1893344" lon="0.7658791"><ele>0.0</ele><time>2026-04-29T20:32:40.005Z</time></trkpt><trkpt lat="39.1894114" lon="0.7659305"><ele>0.0</ele><time>2026-04-29T20:32:41.005Z</time></trkpt><trkpt lat="39.1894866" lon="0.7659749"><ele>0.0</ele><time>2026-04-29T20:32:42.004Z</time></trkpt><trkpt lat="39.1895588" lon="0.7660297"><ele>0.0</ele><time>2026-04-29T20:32:43.004Z</time></trkpt><trkpt lat="39.1896333" lon="0.7660862"><ele>0.0</ele><time>2026-04-29T20:32:44.005Z</time></trkpt><trkpt lat="39.1897139" lon="0.7661456"><ele>0.0</ele><time>2026-04-29T20:32:45.004Z</time></trkpt><trkpt lat="39.1897903" lon="0.7661996"><ele>0.0</ele><time>2026-04-29T20:32:46.004Z</time></trkpt><trkpt lat="39.1898594" lon="0.7662662"><ele>0.0</ele><time>2026-04-29T20:32:47.005Z</time></trkpt><trkpt lat="39.1899336" lon="0.7663257"><ele>0.0</ele><time>2026-04-29T20:32:48.004Z</time></trkpt><trkpt lat="39.190004" lon="0.766402"><ele>0.0</ele><time>2026-04-29T20:32:49.004Z</time></trkpt><trkpt lat="39.1900777" lon="0.7664619"><ele>0.0</ele><time>2026-04-29T20:32:50.004Z</time></trkpt><trkpt lat="39.1901532" lon="0.7665162"><ele>0.0</ele><time>2026-04-29T20:32:51.005Z</time></trkpt><trkpt lat="39.1902341" lon="0.7665631"><ele>0.0</ele><time>2026-04-29T20:32:52.005Z</time></trkpt><trkpt lat="39.1903203" lon="0.7665989"><ele>0.0</ele><time>2026-04-29T20:32:53.004Z</time></trkpt><trkpt lat="39.1903981" lon="0.7666498"><ele>0.0</ele><time>2026-04-29T20:32:54.004Z</time></trkpt><trkpt lat="39.1904776" lon="0.7666918"><ele>0.0</ele><time>2026-04-29T20:32:55.004Z</time></trkpt><trkpt lat="39.1905607" lon="0.7667334"><ele>0.0</ele><time>2026-04-29T20:32:56.005Z</time></trkpt><trkpt lat="39.1906456" lon="0.7667735"><ele>0.0</ele><time>2026-04-29T20:32:57.004Z</time></trkpt><trkpt lat="39.1907987" lon="0.7668348"><ele>0.0</ele><time>2026-04-29T20:32:59.004Z</time></trkpt><trkpt lat="39.1908766" lon="0.7668623"><ele>0.0</ele><time>2026-04-29T20:33:00.004Z</time></trkpt><trkpt lat="39.190952" lon="0.7669034"><ele>0.0</ele><time>2026-04-29T20:33:01.004Z</time></trkpt><trkpt lat="39.1910356" lon="0.7669416"><ele>0.0</ele><time>2026-04-29T20:33:02.004Z</time></trkpt><trkpt lat="39.1911207" lon="0.7669904"><ele>0.0</ele><time>2026-04-29T20:33:03.005Z</time></trkpt><trkpt lat="39.1912012" lon="0.7670364"><ele>0.0</ele><time>2026-04-29T20:33:04.004Z</time></trkpt><trkpt lat="39.1912769" lon="0.7670945"><ele>0.0</ele><time>2026-04-29T20:33:05.004Z</time></trkpt><trkpt lat="39.1913478" lon="0.7671492"><ele>0.0</ele><time>2026-04-29T20:33:06.004Z</time></trkpt><trkpt lat="39.1914208" lon="0.7672"><ele>0.0</ele><time>2026-04-29T20:33:07.004Z</time></trkpt><trkpt lat="39.191493" lon="0.7672528"><ele>0.0</ele><time>2026-04-29T20:33:08.004Z</time></trkpt><trkpt lat="39.1915668" lon="0.7672995"><ele>0.0</ele><time>2026-04-29T20:33:09.004Z</time></trkpt><trkpt lat="39.1916407" lon="0.7673501"><ele>0.0</ele><time>2026-04-29T20:33:10.004Z</time></trkpt><trkpt lat="39.1917139" lon="0.7674025"><ele>0.0</ele><time>2026-04-29T20:33:11.004Z</time></trkpt><trkpt lat="39.1917859" lon="0.7674555"><ele>0.0</ele><time>2026-04-29T20:33:12.005Z</time></trkpt><trkpt lat="39.1918607" lon="0.76751"><ele>0.0</ele><time>2026-04-29T20:33:13.005Z</time></trkpt><trkpt lat="39.1919341" lon="0.7675669"><ele>0.0</ele><time>2026-04-29T20:33:14.004Z</time></trkpt><trkpt lat="39.1920158" lon="0.7676154"><ele>0.0</ele><time>2026-04-29T20:33:15.004Z</time></trkpt><trkpt lat="39.192099" lon="0.7676621"><ele>0.0</ele><time>2026-04-29T20:33:16.005Z</time></trkpt><trkpt lat="39.1921809" lon="0.7677081"><ele>0.0</ele><time>2026-04-29T20:33:17.004Z</time></trkpt><trkpt lat="39.1922526" lon="0.7677636"><ele>0.0</ele><time>2026-04-29T20:33:18.004Z</time></trkpt><trkpt lat="39.1924128" lon="0.7678626"><ele>0.0</ele><time>2026-04-29T20:33:20.005Z</time></trkpt><trkpt lat="39.1924872" lon="0.7679165"><ele>0.0</ele><time>2026-04-29T20:33:21.004Z</time></trkpt><trkpt lat="39.1925607" lon="0.7679664"><ele>0.0</ele><time>2026-04-29T20:33:22.004Z</time></trkpt><trkpt lat="39.1926368" lon="0.7680206"><ele>0.0</ele><time>2026-04-29T20:33:23.004Z</time></trkpt><trkpt lat="39.1927103" lon="0.768088"><ele>0.0</ele><time>2026-04-29T20:33:24.004Z</time></trkpt><trkpt lat="39.1927851" lon="0.7681372"><ele>0.0</ele><time>2026-04-29T20:33:25.005Z</time></trkpt><trkpt lat="39.19286" lon="0.7681849"><ele>0.0</ele><time>2026-04-29T20:33:26.004Z</time></trkpt><trkpt lat="39.1929335" lon="0.7682369"><ele>0.0</ele><time>2026-04-29T20:33:27.004Z</time></trkpt><trkpt lat="39.1930082" lon="0.7682787"><ele>0.0</ele><time>2026-04-29T20:33:28.004Z</time></trkpt><trkpt lat="39.1930919" lon="0.7683379"><ele>0.0</ele><time>2026-04-29T20:33:29.005Z</time></trkpt><trkpt lat="39.1931643" lon="0.7683903"><ele>0.0</ele><time>2026-04-29T20:33:30.004Z</time></trkpt><trkpt lat="39.1932428" lon="0.7684436"><ele>0.0</ele><time>2026-04-29T20:33:31.004Z</time></trkpt><trkpt lat="39.1933173" lon="0.7684943"><ele>0.0</ele><time>2026-04-29T20:33:32.005Z</time></trkpt><trkpt lat="39.1933889" lon="0.7685433"><ele>0.0</ele><time>2026-04-29T20:33:33.004Z</time></trkpt><trkpt lat="39.1934636" lon="0.768599"><ele>0.0</ele><time>2026-04-29T20:33:34.004Z</time></trkpt><trkpt lat="39.1935314" lon="0.7686571"><ele>0.0</ele><time>2026-04-29T20:33:35.004Z</time></trkpt><trkpt lat="39.1936009" lon="0.7687125"><ele>0.0</ele><time>2026-04-29T20:33:36.005Z</time></trkpt><trkpt lat="39.193681" lon="0.7687738"><ele>0.0</ele><time>2026-04-29T20:33:37.004Z</time></trkpt><trkpt lat="39.1937568" lon="0.7688252"><ele>0.0</ele><time>2026-04-29T20:33:38.005Z</time></trkpt><trkpt lat="39.1938334" lon="0.7688737"><ele>0.0</ele><time>2026-04-29T20:33:39.004Z</time></trkpt><trkpt lat="39.1939116" lon="0.7689204"><ele>0.0</ele><time>2026-04-29T20:33:40.005Z</time></trkpt><trkpt lat="39.1940713" lon="0.7690096"><ele>0.0</ele><time>2026-04-29T20:33:42.005Z</time></trkpt><trkpt lat="39.1941472" lon="0.7690511"><ele>0.0</ele><time>2026-04-29T20:33:43.005Z</time></trkpt><trkpt lat="39.1942147" lon="0.7691116"><ele>0.0</ele><time>2026-04-29T20:33:44.005Z</time></trkpt><trkpt lat="39.1942884" lon="0.7691698"><ele>0.0</ele><time>2026-04-29T20:33:45.004Z</time></trkpt><trkpt lat="39.1943631" lon="0.7692268"><ele>0.0</ele><time>2026-04-29T20:33:46.004Z</time></trkpt><trkpt lat="39.1944425" lon="0.7692874"><ele>0.0</ele><time>2026-04-29T20:33:47.004Z</time></trkpt><trkpt lat="39.1945241" lon="0.7693421"><ele>0.0</ele><time>2026-04-29T20:33:48.004Z</time></trkpt><trkpt lat="39.1946045" lon="0.7694028"><ele>0.0</ele><time>2026-04-29T20:33:49.005Z</time></trkpt><trkpt lat="39.1946815" lon="0.7694634"><ele>0.0</ele><time>2026-04-29T20:33:50.004Z</time></trkpt><trkpt lat="39.1947609" lon="0.7695132"><ele>0.0</ele><time>2026-04-29T20:33:51.005Z</time></trkpt><trkpt lat="39.1948381" lon="0.7695672"><ele>0.0</ele><time>2026-04-29T20:33:52.004Z</time></trkpt><trkpt lat="39.1949133" lon="0.769617"><ele>0.0</ele><time>2026-04-29T20:33:53.004Z</time></trkpt><trkpt lat="39.1949904" lon="0.7696639"><ele>0.0</ele><time>2026-04-29T20:33:54.005Z</time></trkpt><trkpt lat="39.1950667" lon="0.7697067"><ele>0.0</ele><time>2026-04-29T20:33:55.004Z</time></trkpt><trkpt lat="39.1951446" lon="0.7697567"><ele>0.0</ele><time>2026-04-29T20:33:56.005Z</time></trkpt><trkpt lat="39.1952246" lon="0.7698043"><ele>0.0</ele><time>2026-04-29T20:33:57.005Z</time></trkpt><trkpt lat="39.1952975" lon="0.7698539"><ele>0.0</ele><time>2026-04-29T20:33:58.004Z</time></trkpt><trkpt lat="39.1953734" lon="0.7699013"><ele>0.0</ele><time>2026-04-29T20:33:59.004Z</time></trkpt><trkpt lat="39.1954556" lon="0.7699506"><ele>0.0</ele><time>2026-04-29T20:34:00.005Z</time></trkpt><trkpt lat="39.1955318" lon="0.7700036"><ele>0.0</ele><time>2026-04-29T20:34:01.005Z</time></trkpt><trkpt lat="39.1956815" lon="0.7701138"><ele>0.0</ele><time>2026-04-29T20:34:03.005Z</time></trkpt><trkpt lat="39.1957623" lon="0.7701703"><ele>0.0</ele><time>2026-04-29T20:34:04.004Z</time></trkpt><trkpt lat="39.1958372" lon="0.7702308"><ele>0.0</ele><time>2026-04-29T20:34:05.004Z</time></trkpt><trkpt lat="39.195912" lon="0.7702879"><ele>0.0</ele><time>2026-04-29T20:34:06.004Z</time></trkpt><trkpt lat="39.1959842" lon="0.7703462"><ele>0.0</ele><time>2026-04-29T20:34:07.004Z</time></trkpt><trkpt lat="39.1960597" lon="0.7704062"><ele>0.0</ele><time>2026-04-29T20:34:08.005Z</time></trkpt><trkpt lat="39.1961432" lon="0.7704636"><ele>0.0</ele><time>2026-04-29T20:34:09.005Z</time></trkpt><trkpt lat="39.1962227" lon="0.7705159"><ele>0.0</ele><time>2026-04-29T20:34:10.004Z</time></trkpt><trkpt lat="39.1962967" lon="0.7705701"><ele>0.0</ele><time>2026-04-29T20:34:11.004Z</time></trkpt><trkpt lat="39.1963749" lon="0.7706233"><ele>0.0</ele><time>2026-04-29T20:34:12.004Z</time></trkpt><trkpt lat="39.1964542" lon="0.7706742"><ele>0.0</ele><time>2026-04-29T20:34:13.004Z</time></trkpt><trkpt lat="39.1965329" lon="0.7707151"><ele>0.0</ele><time>2026-04-29T20:34:14.004Z</time></trkpt><trkpt lat="39.1966058" lon="0.7707627"><ele>0.0</ele><time>2026-04-29T20:34:15.005Z</time></trkpt><trkpt lat="39.196679" lon="0.7708137"><ele>0.0</ele><time>2026-04-29T20:34:16.004Z</time></trkpt><trkpt lat="39.1967467" lon="0.7708719"><ele>0.0</ele><time>2026-04-29T20:34:17.004Z</time></trkpt><trkpt lat="39.1968232" lon="0.7709336"><ele>0.0</ele><time>2026-04-29T20:34:18.004Z</time></trkpt><trkpt lat="39.1968986" lon="0.7709954"><ele>0.0</ele><time>2026-04-29T20:34:19.004Z</time></trkpt><trkpt lat="39.196975" lon="0.7710557"><ele>0.0</ele><time>2026-04-29T20:34:20.005Z</time></trkpt><trkpt lat="39.1970499" lon="0.7711123"><ele>0.0</ele><time>2026-04-29T20:34:21.004Z</time></trkpt><trkpt lat="39.1971267" lon="0.7711672"><ele>0.0</ele><time>2026-04-29T20:34:22.005Z</time></trkpt><trkpt lat="39.1972802" lon="0.7712723"><ele>0.0</ele><time>2026-04-29T20:34:24.005Z</time></trkpt><trkpt lat="39.1973536" lon="0.7713269"><ele>0.0</ele><time>2026-04-29T20:34:25.005Z</time></trkpt><trkpt lat="39.1974283" lon="0.7713973"><ele>0.0</ele><time>2026-04-29T20:34:26.005Z</time></trkpt><trkpt lat="39.1975033" lon="0.7714705"><ele>0.0</ele><time>2026-04-29T20:34:27.004Z</time></trkpt><trkpt lat="39.1975797" lon="0.7715273"><ele>0.0</ele><time>2026-04-29T20:34:28.005Z</time></trkpt><trkpt lat="39.1976547" lon="0.7715922"><ele>0.0</ele><time>2026-04-29T20:34:29.005Z</time></trkpt><trkpt lat="39.1977328" lon="0.7716473"><ele>0.0</ele><time>2026-04-29T20:34:30.004Z</time></trkpt><trkpt lat="39.1978083" lon="0.7717079"><ele>0.0</ele><time>2026-04-29T20:34:31.004Z</time></trkpt><trkpt lat="39.1978787" lon="0.7717642"><ele>0.0</ele><time>2026-04-29T20:34:32.004Z</time></trkpt><trkpt lat="39.197956" lon="0.7718205"><ele>0.0</ele><time>2026-04-29T20:34:33.005Z</time></trkpt><trkpt lat="39.19803" lon="0.7718758"><ele>0.0</ele><time>2026-04-29T20:34:34.005Z</time></trkpt><trkpt lat="39.1981053" lon="0.771939"><ele>0.0</ele><time>2026-04-29T20:34:35.004Z</time></trkpt><trkpt lat="39.1981817" lon="0.7720028"><ele>0.0</ele><time>2026-04-29T20:34:36.005Z</time></trkpt><trkpt lat="39.1982554" lon="0.772066"><ele>0.0</ele><time>2026-04-29T20:34:37.005Z</time></trkpt><trkpt lat="39.1983297" lon="0.772128"><ele>0.0</ele><time>2026-04-29T20:34:38.004Z</time></trkpt><trkpt lat="39.198408" lon="0.7721836"><ele>0.0</ele><time>2026-04-29T20:34:39.004Z</time></trkpt><trkpt lat="39.1984833" lon="0.77224"><ele>0.0</ele><time>2026-04-29T20:34:40.004Z</time></trkpt><trkpt lat="39.1985609" lon="0.7722953"><ele>0.0</ele><time>2026-04-29T20:34:41.005Z</time></trkpt><trkpt lat="39.1986398" lon="0.772353"><ele>0.0</ele><time>2026-04-29T20:34:42.004Z</time></trkpt><trkpt lat="39.198721" lon="0.7724002"><ele>0.0</ele><time>2026-04-29T20:34:43.004Z</time></trkpt><trkpt lat="39.1987957" lon="0.7724507"><ele>0.0</ele><time>2026-04-29T20:34:44.005Z</time></trkpt><trkpt lat="39.1989448" lon="0.7725633"><ele>0.0</ele><time>2026-04-29T20:34:46.004Z</time></trkpt><trkpt lat="39.1990259" lon="0.7726271"><ele>0.0</ele><time>2026-04-29T20:34:47.005Z</time></trkpt><trkpt lat="39.1991046" lon="0.7726887"><ele>0.0</ele><time>2026-04-29T20:34:48.004Z</time></trkpt><trkpt lat="39.19918" lon="0.7727535"><ele>0.0</ele><time>2026-04-29T20:34:49.004Z</time></trkpt><trkpt lat="39.1992537" lon="0.7728146"><ele>0.0</ele><time>2026-04-29T20:34:50.004Z</time></trkpt><trkpt lat="39.1993231" lon="0.7728746"><ele>0.0</ele><time>2026-04-29T20:34:51.004Z</time></trkpt><trkpt lat="39.1993971" lon="0.7729348"><ele>0.0</ele><time>2026-04-29T20:34:52.005Z</time></trkpt><trkpt lat="39.1994708" lon="0.7729985"><ele>0.0</ele><time>2026-04-29T20:34:53.004Z</time></trkpt><trkpt lat="39.1995441" lon="0.7730633"><ele>0.0</ele><time>2026-04-29T20:34:54.005Z</time></trkpt><trkpt lat="39.1996203" lon="0.7731226"><ele>0.0</ele><time>2026-04-29T20:34:55.004Z</time></trkpt><trkpt lat="39.1996967" lon="0.7731827"><ele>0.0</ele><time>2026-04-29T20:34:56.005Z</time></trkpt><trkpt lat="39.1997732" lon="0.773241"><ele>0.0</ele><time>2026-04-29T20:34:57.004Z</time></trkpt><trkpt lat="39.1998439" lon="0.7732955"><ele>0.0</ele><time>2026-04-29T20:34:58.005Z</time></trkpt><trkpt lat="39.1999186" lon="0.7733489"><ele>0.0</ele><time>2026-04-29T20:34:59.004Z</time></trkpt><trkpt lat="39.1999879" lon="0.7733994"><ele>0.0</ele><time>2026-04-29T20:35:00.005Z</time></trkpt><trkpt lat="39.2000578" lon="0.7734478"><ele>0.0</ele><time>2026-04-29T20:35:01.004Z</time></trkpt><trkpt lat="39.2001363" lon="0.7735046"><ele>0.0</ele><time>2026-04-29T20:35:02.004Z</time></trkpt><trkpt lat="39.2002118" lon="0.7735613"><ele>0.0</ele><time>2026-04-29T20:35:03.005Z</time></trkpt><trkpt lat="39.2002853" lon="0.7736139"><ele>0.0</ele><time>2026-04-29T20:35:04.004Z</time></trkpt><trkpt lat="39.2003644" lon="0.7736726"><ele>0.0</ele><time>2026-04-29T20:35:05.005Z</time></trkpt><trkpt lat="39.2005135" lon="0.7737841"><ele>0.0</ele><time>2026-04-29T20:35:07.004Z</time></trkpt><trkpt lat="39.200584" lon="0.7738389"><ele>0.0</ele><time>2026-04-29T20:35:08.004Z</time></trkpt><trkpt lat="39.200657" lon="0.7738925"><ele>0.0</ele><time>2026-04-29T20:35:09.004Z</time></trkpt><trkpt lat="39.200733" lon="0.7739486"><ele>0.0</ele><time>2026-04-29T20:35:10.004Z</time></trkpt><trkpt lat="39.2008183" lon="0.7739667"><ele>0.0</ele><time>2026-04-29T20:35:11.004Z</time></trkpt><trkpt lat="39.2009078" lon="0.7739844"><ele>0.0</ele><time>2026-04-29T20:35:12.005Z</time></trkpt><trkpt lat="39.200989" lon="0.7740257"><ele>0.0</ele><time>2026-04-29T20:35:13.005Z</time></trkpt><trkpt lat="39.2010626" lon="0.7740754"><ele>0.0</ele><time>2026-04-29T20:35:14.004Z</time></trkpt><trkpt lat="39.2011382" lon="0.7741183"><ele>0.0</ele><time>2026-04-29T20:35:15.005Z</time></trkpt><trkpt lat="39.2012119" lon="0.7741714"><ele>0.0</ele><time>2026-04-29T20:35:16.004Z</time></trkpt><trkpt lat="39.201287" lon="0.774222"><ele>0.0</ele><time>2026-04-29T20:35:17.005Z</time></trkpt><trkpt lat="39.2013647" lon="0.7742704"><ele>0.0</ele><time>2026-04-29T20:35:18.004Z</time></trkpt><trkpt lat="39.2014432" lon="0.7743174"><ele>0.0</ele><time>2026-04-29T20:35:19.005Z</time></trkpt><trkpt lat="39.20152" lon="0.7743588"><ele>0.0</ele><time>2026-04-29T20:35:20.005Z</time></trkpt><trkpt lat="39.201594" lon="0.7744072"><ele>0.0</ele><time>2026-04-29T20:35:21.005Z</time></trkpt><trkpt lat="39.2016717" lon="0.7744598"><ele>0.0</ele><time>2026-04-29T20:35:22.005Z</time></trkpt><trkpt lat="39.2017501" lon="0.774513"><ele>0.0</ele><time>2026-04-29T20:35:23.004Z</time></trkpt><trkpt lat="39.2018239" lon="0.7745645"><ele>0.0</ele><time>2026-04-29T20:35:24.004Z</time></trkpt><trkpt lat="39.2019029" lon="0.7746144"><ele>0.0</ele><time>2026-04-29T20:35:25.005Z</time></trkpt><trkpt lat="39.2019786" lon="0.774665"><ele>0.0</ele><time>2026-04-29T20:35:26.005Z</time></trkpt><trkpt lat="39.2021349" lon="0.7747728"><ele>0.0</ele><time>2026-04-29T20:35:28.004Z</time></trkpt><trkpt lat="39.2022058" lon="0.774827"><ele>0.0</ele><time>2026-04-29T20:35:29.005Z</time></trkpt><trkpt lat="39.2022787" lon="0.7748706"><ele>0.0</ele><time>2026-04-29T20:35:30.004Z</time></trkpt><trkpt lat="39.2023493" lon="0.7749151"><ele>0.0</ele><time>2026-04-29T20:35:31.005Z</time></trkpt><trkpt lat="39.2024234" lon="0.7749782"><ele>0.0</ele><time>2026-04-29T20:35:32.004Z</time></trkpt><trkpt lat="39.2024942" lon="0.7750201"><ele>0.0</ele><time>2026-04-29T20:35:33.004Z</time></trkpt><trkpt lat="39.2025788" lon="0.7750509"><ele>0.0</ele><time>2026-04-29T20:35:34.005Z</time></trkpt><trkpt lat="39.2026623" lon="0.7750743"><ele>0.0</ele><time>2026-04-29T20:35:35.004Z</time></trkpt><trkpt lat="39.2027471" lon="0.7751129"><ele>0.0</ele><time>2026-04-29T20:35:36.004Z</time></trkpt><trkpt lat="39.2028277" lon="0.7751585"><ele>0.0</ele><time>2026-04-29T20:35:37.005Z</time></trkpt><trkpt lat="39.2029018" lon="0.7752015"><ele>0.0</ele><time>2026-04-29T20:35:38.004Z</time></trkpt><trkpt lat="39.2029838" lon="0.7752445"><ele>0.0</ele><time>2026-04-29T20:35:39.005Z</time></trkpt><trkpt lat="39.2030581" lon="0.775295"><ele>0.0</ele><time>2026-04-29T20:35:40.005Z</time></trkpt><trkpt lat="39.203132" lon="0.7753495"><ele>0.0</ele><time>2026-04-29T20:35:41.005Z</time></trkpt><trkpt lat="39.2032028" lon="0.7753955"><ele>0.0</ele><time>2026-04-29T20:35:42.004Z</time></trkpt><trkpt lat="39.2032743" lon="0.775449"><ele>0.0</ele><time>2026-04-29T20:35:43.005Z</time></trkpt><trkpt lat="39.2033475" lon="0.7755015"><ele>0.0</ele><time>2026-04-29T20:35:44.005Z</time></trkpt><trkpt lat="39.2034248" lon="0.7755502"><ele>0.0</ele><time>2026-04-29T20:35:45.005Z</time></trkpt><trkpt lat="39.2035004" lon="0.7755926"><ele>0.0</ele><time>2026-04-29T20:35:46.005Z</time></trkpt><trkpt lat="39.2035725" lon="0.7756426"><ele>0.0</ele><time>2026-04-29T20:35:47.004Z</time></trkpt><trkpt lat="39.2037252" lon="0.7757517"><ele>0.0</ele><time>2026-04-29T20:35:49.004Z</time></trkpt><trkpt lat="39.2038048" lon="0.7758044"><ele>0.0</ele><time>2026-04-29T20:35:50.004Z</time></trkpt><trkpt lat="39.2038736" lon="0.7758543"><ele>0.0</ele><time>2026-04-29T20:35:51.005Z</time></trkpt><trkpt lat="39.2039527" lon="0.7759102"><ele>0.0</ele><time>2026-04-29T20:35:52.004Z</time></trkpt><trkpt lat="39.2040345" lon="0.7759585"><ele>0.0</ele><time>2026-04-29T20:35:53.005Z</time></trkpt><trkpt lat="39.2041131" lon="0.7760124"><ele>0.0</ele><time>2026-04-29T20:35:54.004Z</time></trkpt><trkpt lat="39.2041867" lon="0.776071"><ele>0.0</ele><time>2026-04-29T20:35:55.005Z</time></trkpt><trkpt lat="39.2042602" lon="0.7761203"><ele>0.0</ele><time>2026-04-29T20:35:56.005Z</time></trkpt><trkpt lat="39.204333" lon="0.7761737"><ele>0.0</ele><time>2026-04-29T20:35:57.004Z</time></trkpt><trkpt lat="39.2044044" lon="0.7762299"><ele>0.0</ele><time>2026-04-29T20:35:58.005Z</time></trkpt><trkpt lat="39.2044862" lon="0.7762804"><ele>0.0</ele><time>2026-04-29T20:35:59.004Z</time></trkpt><trkpt lat="39.2045694" lon="0.7763273"><ele>0.0</ele><time>2026-04-29T20:36:00.005Z</time></trkpt><trkpt lat="39.204645" lon="0.7763747"><ele>0.0</ele><time>2026-04-29T20:36:01.004Z</time></trkpt><trkpt lat="39.2047232" lon="0.7764293"><ele>0.0</ele><time>2026-04-29T20:36:02.004Z</time></trkpt><trkpt lat="39.2047983" lon="0.7764819"><ele>0.0</ele><time>2026-04-29T20:36:03.004Z</time></trkpt><trkpt lat="39.2048734" lon="0.776546"><ele>0.0</ele><time>2026-04-29T20:36:04.004Z</time></trkpt><trkpt lat="39.2049528" lon="0.7766061"><ele>0.0</ele><time>2026-04-29T20:36:05.004Z</time></trkpt><trkpt lat="39.2050332" lon="0.776657"><ele>0.0</ele><time>2026-04-29T20:36:06.004Z</time></trkpt><trkpt lat="39.2051099" lon="0.7767089"><ele>0.0</ele><time>2026-04-29T20:36:07.004Z</time></trkpt><trkpt lat="39.2051839" lon="0.7767685"><ele>0.0</ele><time>2026-04-29T20:36:08.004Z</time></trkpt><trkpt lat="39.2053272" lon="0.7768693"><ele>0.0</ele><time>2026-04-29T20:36:10.005Z</time></trkpt><trkpt lat="39.2053989" lon="0.7769212"><ele>0.0</ele><time>2026-04-29T20:36:11.004Z</time></trkpt><trkpt lat="39.2054708" lon="0.7769787"><ele>0.0</ele><time>2026-04-29T20:36:12.004Z</time></trkpt><trkpt lat="39.2055436" lon="0.7770376"><ele>0.0</ele><time>2026-04-29T20:36:13.004Z</time></trkpt><trkpt lat="39.2056186" lon="0.7770974"><ele>0.0</ele><time>2026-04-29T20:36:14.004Z</time></trkpt><trkpt lat="39.2056979" lon="0.7771528"><ele>0.0</ele><time>2026-04-29T20:36:15.004Z</time></trkpt><trkpt lat="39.2057749" lon="0.7772004"><ele>0.0</ele><time>2026-04-29T20:36:16.005Z</time></trkpt><trkpt lat="39.2058544" lon="0.7772551"><ele>0.0</ele><time>2026-04-29T20:36:17.004Z</time></trkpt><trkpt lat="39.2059361" lon="0.7773074"><ele>0.0</ele><time>2026-04-29T20:36:18.004Z</time></trkpt><trkpt lat="39.2060074" lon="0.7773612"><ele>0.0</ele><time>2026-04-29T20:36:19.005Z</time></trkpt><trkpt lat="39.2060805" lon="0.7774179"><ele>0.0</ele><time>2026-04-29T20:36:20.005Z</time></trkpt><trkpt lat="39.2061496" lon="0.7774697"><ele>0.0</ele><time>2026-04-29T20:36:21.004Z</time></trkpt><trkpt lat="39.2062278" lon="0.7775188"><ele>0.0</ele><time>2026-04-29T20:36:22.005Z</time></trkpt><trkpt lat="39.2063064" lon="0.7775699"><ele>0.0</ele><time>2026-04-29T20:36:23.004Z</time></trkpt><trkpt lat="39.2063789" lon="0.777628"><ele>0.0</ele><time>2026-04-29T20:36:24.004Z</time></trkpt><trkpt lat="39.2064578" lon="0.7776805"><ele>0.0</ele><time>2026-04-29T20:36:25.005Z</time></trkpt><trkpt lat="39.2065307" lon="0.7777425"><ele>0.0</ele><time>2026-04-29T20:36:26.004Z</time></trkpt><trkpt lat="39.2066069" lon="0.7777975"><ele>0.0</ele><time>2026-04-29T20:36:27.005Z</time></trkpt><trkpt lat="39.2066777" lon="0.7778524"><ele>0.0</ele><time>2026-04-29T20:36:28.004Z</time></trkpt><trkpt lat="39.2067492" lon="0.7779011"><ele>0.0</ele><time>2026-04-29T20:36:29.004Z</time></trkpt><trkpt lat="39.2068797" lon="0.7780043"><ele>0.0</ele><time>2026-04-29T20:36:31.003Z</time></trkpt><trkpt lat="39.2069551" lon="0.7780606"><ele>0.0</ele><time>2026-04-29T20:36:32.003Z</time></trkpt><trkpt lat="39.2070316" lon="0.7781245"><ele>0.0</ele><time>2026-04-29T20:36:33.003Z</time></trkpt><trkpt lat="39.2071113" lon="0.7781786"><ele>0.0</ele><time>2026-04-29T20:36:34.004Z</time></trkpt><trkpt lat="39.2071926" lon="0.7782293"><ele>0.0</ele><time>2026-04-29T20:36:35.003Z</time></trkpt><trkpt lat="39.2072715" lon="0.7782994"><ele>0.0</ele><time>2026-04-29T20:36:36.004Z</time></trkpt><trkpt lat="39.2073495" lon="0.7783604"><ele>0.0</ele><time>2026-04-29T20:36:37.003Z</time></trkpt><trkpt lat="39.2074293" lon="0.7784175"><ele>0.0</ele><time>2026-04-29T20:36:38.003Z</time></trkpt><trkpt lat="39.2075075" lon="0.7784704"><ele>0.0</ele><time>2026-04-29T20:36:39.003Z</time></trkpt><trkpt lat="39.2075848" lon="0.7785229"><ele>0.0</ele><time>2026-04-29T20:36:40.003Z</time></trkpt><trkpt lat="39.207656" lon="0.7785846"><ele>0.0</ele><time>2026-04-29T20:36:41.004Z</time></trkpt><trkpt lat="39.2077303" lon="0.7786268"><ele>0.0</ele><time>2026-04-29T20:36:42.003Z</time></trkpt><trkpt lat="39.2078054" lon="0.7786681"><ele>0.0</ele><time>2026-04-29T20:36:43.003Z</time></trkpt><trkpt lat="39.2078789" lon="0.7787138"><ele>0.0</ele><time>2026-04-29T20:36:44.004Z</time></trkpt><trkpt lat="39.2079494" lon="0.7787592"><ele>0.0</ele><time>2026-04-29T20:36:45.003Z</time></trkpt><trkpt lat="39.2080238" lon="0.7788075"><ele>0.0</ele><time>2026-04-29T20:36:46.003Z</time></trkpt><trkpt lat="39.208104" lon="0.7788559"><ele>0.0</ele><time>2026-04-29T20:36:47.003Z</time></trkpt><trkpt lat="39.2081861" lon="0.7789023"><ele>0.0</ele><time>2026-04-29T20:36:48.003Z</time></trkpt><trkpt lat="39.2082648" lon="0.7789471"><ele>0.0</ele><time>2026-04-29T20:36:49.003Z</time></trkpt><trkpt lat="39.2083462" lon="0.7789952"><ele>0.0</ele><time>2026-04-29T20:36:50.004Z</time></trkpt><trkpt lat="39.2084236" lon="0.7790348"><ele>0.0</ele><time>2026-04-29T20:36:51.003Z</time></trkpt><trkpt lat="39.2085804" lon="0.7791218"><ele>0.0</ele><time>2026-04-29T20:36:53.003Z</time></trkpt><trkpt lat="39.2086582" lon="0.7791764"><ele>0.0</ele><time>2026-04-29T20:36:54.004Z</time></trkpt><trkpt lat="39.2087376" lon="0.7792286"><ele>0.0</ele><time>2026-04-29T20:36:55.003Z</time></trkpt><trkpt lat="39.2088133" lon="0.779284"><ele>0.0</ele><time>2026-04-29T20:36:56.003Z</time></trkpt><trkpt lat="39.2088939" lon="0.7793354"><ele>0.0</ele><time>2026-04-29T20:36:57.004Z</time></trkpt><trkpt lat="39.2089686" lon="0.7793879"><ele>0.0</ele><time>2026-04-29T20:36:58.003Z</time></trkpt><trkpt lat="39.2090436" lon="0.7794327"><ele>0.0</ele><time>2026-04-29T20:36:59.003Z</time></trkpt><trkpt lat="39.2091211" lon="0.7794845"><ele>0.0</ele><time>2026-04-29T20:37:00.003Z</time></trkpt><trkpt lat="39.2091936" lon="0.7795393"><ele>0.0</ele><time>2026-04-29T20:37:01.003Z</time></trkpt><trkpt lat="39.209277" lon="0.779593"><ele>0.0</ele><time>2026-04-29T20:37:02.003Z</time></trkpt><trkpt lat="39.2093577" lon="0.7796431"><ele>0.0</ele><time>2026-04-29T20:37:03.003Z</time></trkpt><trkpt lat="39.2094347" lon="0.7796883"><ele>0.0</ele><time>2026-04-29T20:37:04.003Z</time></trkpt><trkpt lat="39.2095144" lon="0.7797363"><ele>0.0</ele><time>2026-04-29T20:37:05.004Z</time></trkpt><trkpt lat="39.2095929" lon="0.7797846"><ele>0.0</ele><time>2026-04-29T20:37:06.003Z</time></trkpt><trkpt lat="39.2096697" lon="0.7798545"><ele>0.0</ele><time>2026-04-29T20:37:07.004Z</time></trkpt><trkpt lat="39.2097454" lon="0.7799079"><ele>0.0</ele><time>2026-04-29T20:37:08.004Z</time></trkpt><trkpt lat="39.2098132" lon="0.7799572"><ele>0.0</ele><time>2026-04-29T20:37:09.004Z</time></trkpt><trkpt lat="39.2098842" lon="0.7800067"><ele>0.0</ele><time>2026-04-29T20:37:10.004Z</time></trkpt><trkpt lat="39.2099656" lon="0.7800567"><ele>0.0</ele><time>2026-04-29T20:37:11.003Z</time></trkpt><trkpt lat="39.2100476" lon="0.7801055"><ele>0.0</ele><time>2026-04-29T20:37:12.003Z</time></trkpt><trkpt lat="39.2102001" lon="0.7802131"><ele>0.0</ele><time>2026-04-29T20:37:14.004Z</time></trkpt><trkpt lat="39.210275" lon="0.7802836"><ele>0.0</ele><time>2026-04-29T20:37:15.003Z</time></trkpt><trkpt lat="39.21035" lon="0.780341"><ele>0.0</ele><time>2026-04-29T20:37:16.004Z</time></trkpt><trkpt lat="39.2104209" lon="0.780393"><ele>0.0</ele><time>2026-04-29T20:37:17.004Z</time></trkpt><trkpt lat="39.2104952" lon="0.7804477"><ele>0.0</ele><time>2026-04-29T20:37:18.003Z</time></trkpt><trkpt lat="39.2105731" lon="0.7805008"><ele>0.0</ele><time>2026-04-29T20:37:19.003Z</time></trkpt><trkpt lat="39.2106498" lon="0.7805684"><ele>0.0</ele><time>2026-04-29T20:37:20.003Z</time></trkpt><trkpt lat="39.2107282" lon="0.7806308"><ele>0.0</ele><time>2026-04-29T20:37:21.003Z</time></trkpt><trkpt lat="39.2108108" lon="0.7806938"><ele>0.0</ele><time>2026-04-29T20:37:22.004Z</time></trkpt><trkpt lat="39.2108855" lon="0.780746"><ele>0.0</ele><time>2026-04-29T20:37:23.003Z</time></trkpt><trkpt lat="39.2109632" lon="0.7807992"><ele>0.0</ele><time>2026-04-29T20:37:24.003Z</time></trkpt><trkpt lat="39.2110411" lon="0.7808546"><ele>0.0</ele><time>2026-04-29T20:37:25.004Z</time></trkpt><trkpt lat="39.2111151" lon="0.7809069"><ele>0.0</ele><time>2026-04-29T20:37:26.004Z</time></trkpt><trkpt lat="39.2111858" lon="0.7809577"><ele>0.0</ele><time>2026-04-29T20:37:27.003Z</time></trkpt><trkpt lat="39.2112588" lon="0.7810075"><ele>0.0</ele><time>2026-04-29T20:37:28.003Z</time></trkpt><trkpt lat="39.2113336" lon="0.7810572"><ele>0.0</ele><time>2026-04-29T20:37:29.003Z</time></trkpt><trkpt lat="39.21141" lon="0.7811057"><ele>0.0</ele><time>2026-04-29T20:37:30.003Z</time></trkpt><trkpt lat="39.2114827" lon="0.7811536"><ele>0.0</ele><time>2026-04-29T20:37:31.003Z</time></trkpt><trkpt lat="39.2115615" lon="0.7812007"><ele>0.0</ele><time>2026-04-29T20:37:32.003Z</time></trkpt><trkpt lat="39.2116397" lon="0.7812445"><ele>0.0</ele><time>2026-04-29T20:37:33.003Z</time></trkpt><trkpt lat="39.2117973" lon="0.781343"><ele>0.0</ele><time>2026-04-29T20:37:35.003Z</time></trkpt><trkpt lat="39.2118773" lon="0.7813924"><ele>0.0</ele><time>2026-04-29T20:37:36.004Z</time></trkpt><trkpt lat="39.2119591" lon="0.7814461"><ele>0.0</ele><time>2026-04-29T20:37:37.004Z</time></trkpt><trkpt lat="39.2120339" lon="0.7814919"><ele>0.0</ele><time>2026-04-29T20:37:38.003Z</time></trkpt><trkpt lat="39.212106" lon="0.7815398"><ele>0.0</ele><time>2026-04-29T20:37:39.003Z</time></trkpt><trkpt lat="39.2121816" lon="0.7815881"><ele>0.0</ele><time>2026-04-29T20:37:40.004Z</time></trkpt><trkpt lat="39.2122583" lon="0.7816409"><ele>0.0</ele><time>2026-04-29T20:37:41.003Z</time></trkpt><trkpt lat="39.2123307" lon="0.7816958"><ele>0.0</ele><time>2026-04-29T20:37:42.003Z</time></trkpt><trkpt lat="39.2124054" lon="0.7817491"><ele>0.0</ele><time>2026-04-29T20:37:43.003Z</time></trkpt><trkpt lat="39.2125202" lon="0.7818254"><ele>0.0</ele><time>2026-04-29T20:37:45.003Z</time></trkpt><trkpt lat="39.2125881" lon="0.7818677"><ele>0.0</ele><time>2026-04-29T20:37:46.004Z</time></trkpt><trkpt lat="39.2126621" lon="0.7819127"><ele>0.0</ele><time>2026-04-29T20:37:47.003Z</time></trkpt><trkpt lat="39.2127365" lon="0.7819611"><ele>0.0</ele><time>2026-04-29T20:37:48.003Z</time></trkpt><trkpt lat="39.2128213" lon="0.7820064"><ele>0.0</ele><time>2026-04-29T20:37:49.004Z</time></trkpt><trkpt lat="39.2129009" lon="0.7820551"><ele>0.0</ele><time>2026-04-29T20:37:50.003Z</time></trkpt><trkpt lat="39.2129867" lon="0.782113"><ele>0.0</ele><time>2026-04-29T20:37:51.004Z</time></trkpt><trkpt lat="39.2130663" lon="0.7821662"><ele>0.0</ele><time>2026-04-29T20:37:52.003Z</time></trkpt><trkpt lat="39.213143" lon="0.7822094"><ele>0.0</ele><time>2026-04-29T20:37:53.004Z</time></trkpt><trkpt lat="39.2132196" lon="0.7822583"><ele>0.0</ele><time>2026-04-29T20:37:54.003Z</time></trkpt><trkpt lat="39.213298" lon="0.7823106"><ele>0.0</ele><time>2026-04-29T20:37:55.003Z</time></trkpt><trkpt lat="39.2134564" lon="0.7824181"><ele>0.0</ele><time>2026-04-29T20:37:57.003Z</time></trkpt><trkpt lat="39.2135313" lon="0.7824763"><ele>0.0</ele><time>2026-04-29T20:37:58.004Z</time></trkpt><trkpt lat="39.2136096" lon="0.7825358"><ele>0.0</ele><time>2026-04-29T20:37:59.003Z</time></trkpt><trkpt lat="39.213686" lon="0.7825969"><ele>0.0</ele><time>2026-04-29T20:38:00.004Z</time></trkpt><trkpt lat="39.2137603" lon="0.7826667"><ele>0.0</ele><time>2026-04-29T20:38:01.004Z</time></trkpt><trkpt lat="39.2138337" lon="0.7827345"><ele>0.0</ele><time>2026-04-29T20:38:02.003Z</time></trkpt><trkpt lat="39.213906" lon="0.7828087"><ele>0.0</ele><time>2026-04-29T20:38:03.003Z</time></trkpt><trkpt lat="39.2139761" lon="0.7828714"><ele>0.0</ele><time>2026-04-29T20:38:04.004Z</time></trkpt><trkpt lat="39.2140488" lon="0.7829236"><ele>0.0</ele><time>2026-04-29T20:38:05.003Z</time></trkpt><trkpt lat="39.2141234" lon="0.7829768"><ele>0.0</ele><time>2026-04-29T20:38:06.003Z</time></trkpt><trkpt lat="39.2141983" lon="0.7830329"><ele>0.0</ele><time>2026-04-29T20:38:07.003Z</time></trkpt><trkpt lat="39.2142778" lon="0.7830836"><ele>0.0</ele><time>2026-04-29T20:38:08.003Z</time></trkpt><trkpt lat="39.2143537" lon="0.7831392"><ele>0.0</ele><time>2026-04-29T20:38:09.003Z</time></trkpt><trkpt lat="39.2144282" lon="0.7831963"><ele>0.0</ele><time>2026-04-29T20:38:10.003Z</time></trkpt><trkpt lat="39.2145033" lon="0.7832476"><ele>0.0</ele><time>2026-04-29T20:38:11.003Z</time></trkpt><trkpt lat="39.2145811" lon="0.7833023"><ele>0.0</ele><time>2026-04-29T20:38:12.003Z</time></trkpt><trkpt lat="39.214662" lon="0.7833557"><ele>0.0</ele><time>2026-04-29T20:38:13.003Z</time></trkpt><trkpt lat="39.2147424" lon="0.7834043"><ele>0.0</ele><time>2026-04-29T20:38:14.004Z</time></trkpt><trkpt lat="39.2148185" lon="0.7834536"><ele>0.0</ele><time>2026-04-29T20:38:15.003Z</time></trkpt><trkpt lat="39.2148936" lon="0.7835063"><ele>0.0</ele><time>2026-04-29T20:38:16.003Z</time></trkpt><trkpt lat="39.2150437" lon="0.7835971"><ele>0.0</ele><time>2026-04-29T20:38:18.004Z</time></trkpt><trkpt lat="39.2151199" lon="0.7836478"><ele>0.0</ele><time>2026-04-29T20:38:19.003Z</time></trkpt><trkpt lat="39.2151979" lon="0.7836972"><ele>0.0</ele><time>2026-04-29T20:38:20.004Z</time></trkpt><trkpt lat="39.2152748" lon="0.7837513"><ele>0.0</ele><time>2026-04-29T20:38:21.003Z</time></trkpt><trkpt lat="39.2153513" lon="0.7838024"><ele>0.0</ele><time>2026-04-29T20:38:22.003Z</time></trkpt><trkpt lat="39.2154266" lon="0.7838509"><ele>0.0</ele><time>2026-04-29T20:38:23.003Z</time></trkpt><trkpt lat="39.2155033" lon="0.7839013"><ele>0.0</ele><time>2026-04-29T20:38:24.003Z</time></trkpt><trkpt lat="39.2155771" lon="0.7839572"><ele>0.0</ele><time>2026-04-29T20:38:25.004Z</time></trkpt><trkpt lat="39.2156519" lon="0.7840081"><ele>0.0</ele><time>2026-04-29T20:38:26.003Z</time></trkpt><trkpt lat="39.2157231" lon="0.7840633"><ele>0.0</ele><time>2026-04-29T20:38:27.004Z</time></trkpt><trkpt lat="39.2158014" lon="0.7841151"><ele>0.0</ele><time>2026-04-29T20:38:28.003Z</time></trkpt><trkpt lat="39.2158812" lon="0.7841637"><ele>0.0</ele><time>2026-04-29T20:38:29.003Z</time></trkpt><trkpt lat="39.2159697" lon="0.7842361"><ele>0.0</ele><time>2026-04-29T20:38:30.004Z</time></trkpt><trkpt lat="39.2160379" lon="0.7843539"><ele>0.0</ele><time>2026-04-29T20:38:31.004Z</time></trkpt><trkpt lat="39.2161019" lon="0.7844532"><ele>0.0</ele><time>2026-04-29T20:38:32.003Z</time></trkpt><trkpt lat="39.2161725" lon="0.7845193"><ele>0.0</ele><time>2026-04-29T20:38:33.003Z</time></trkpt><trkpt lat="39.2162482" lon="0.7845691"><ele>0.0</ele><time>2026-04-29T20:38:34.004Z</time></trkpt><trkpt lat="39.2163237" lon="0.7846204"><ele>0.0</ele><time>2026-04-29T20:38:35.004Z</time></trkpt><trkpt lat="39.216401" lon="0.7846726"><ele>0.0</ele><time>2026-04-29T20:38:36.003Z</time></trkpt><trkpt lat="39.2164795" lon="0.7847256"><ele>0.0</ele><time>2026-04-29T20:38:37.003Z</time></trkpt><trkpt lat="39.2166266" lon="0.7848302"><ele>0.0</ele><time>2026-04-29T20:38:39.004Z</time></trkpt><trkpt lat="39.2166972" lon="0.7848786"><ele>0.0</ele><time>2026-04-29T20:38:40.004Z</time></trkpt><trkpt lat="39.2167762" lon="0.784908"><ele>0.0</ele><time>2026-04-29T20:38:41.004Z</time></trkpt><trkpt lat="39.216856" lon="0.7849435"><ele>0.0</ele><time>2026-04-29T20:38:42.003Z</time></trkpt><trkpt lat="39.2169361" lon="0.7849825"><ele>0.0</ele><time>2026-04-29T20:38:43.003Z</time></trkpt><trkpt lat="39.2170118" lon="0.7850319"><ele>0.0</ele><time>2026-04-29T20:38:44.004Z</time></trkpt><trkpt lat="39.217085" lon="0.7850824"><ele>0.0</ele><time>2026-04-29T20:38:45.004Z</time></trkpt><trkpt lat="39.2171614" lon="0.7851213"><ele>0.0</ele><time>2026-04-29T20:38:46.003Z</time></trkpt><trkpt lat="39.2172355" lon="0.7851633"><ele>0.0</ele><time>2026-04-29T20:38:47.003Z</time></trkpt><trkpt lat="39.2173115" lon="0.7852093"><ele>0.0</ele><time>2026-04-29T20:38:48.004Z</time></trkpt><trkpt lat="39.2173963" lon="0.7852558"><ele>0.0</ele><time>2026-04-29T20:38:49.003Z</time></trkpt><trkpt lat="39.217476" lon="0.7853027"><ele>0.0</ele><time>2026-04-29T20:38:50.003Z</time></trkpt><trkpt lat="39.2175545" lon="0.7853507"><ele>0.0</ele><time>2026-04-29T20:38:51.004Z</time></trkpt><trkpt lat="39.2176299" lon="0.7853961"><ele>0.0</ele><time>2026-04-29T20:38:52.004Z</time></trkpt><trkpt lat="39.2177064" lon="0.7854426"><ele>0.0</ele><time>2026-04-29T20:38:53.004Z</time></trkpt><trkpt lat="39.2177789" lon="0.7854925"><ele>0.0</ele><time>2026-04-29T20:38:54.003Z</time></trkpt><trkpt lat="39.2178592" lon="0.7855404"><ele>0.0</ele><time>2026-04-29T20:38:55.003Z</time></trkpt><trkpt lat="39.2179336" lon="0.7855893"><ele>0.0</ele><time>2026-04-29T20:38:56.004Z</time></trkpt><trkpt lat="39.2180138" lon="0.7856421"><ele>0.0</ele><time>2026-04-29T20:38:57.004Z</time></trkpt><trkpt lat="39.2180853" lon="0.7856953"><ele>0.0</ele><time>2026-04-29T20:38:58.004Z</time></trkpt><trkpt lat="39.2181611" lon="0.7857449"><ele>0.0</ele><time>2026-04-29T20:38:59.004Z</time></trkpt><trkpt lat="39.2183172" lon="0.7858505"><ele>0.0</ele><time>2026-04-29T20:39:01.004Z</time></trkpt><trkpt lat="39.21839" lon="0.7859084"><ele>0.0</ele><time>2026-04-29T20:39:02.004Z</time></trkpt><trkpt lat="39.218463" lon="0.7859613"><ele>0.0</ele><time>2026-04-29T20:39:03.003Z</time></trkpt><trkpt lat="39.2185422" lon="0.7860219"><ele>0.0</ele><time>2026-04-29T20:39:04.004Z</time></trkpt><trkpt lat="39.2186206" lon="0.7860793"><ele>0.0</ele><time>2026-04-29T20:39:05.003Z</time></trkpt><trkpt lat="39.2187007" lon="0.7861343"><ele>0.0</ele><time>2026-04-29T20:39:06.003Z</time></trkpt><trkpt lat="39.2187734" lon="0.7861891"><ele>0.0</ele><time>2026-04-29T20:39:07.003Z</time></trkpt><trkpt lat="39.2188495" lon="0.7862413"><ele>0.0</ele><time>2026-04-29T20:39:08.004Z</time></trkpt><trkpt lat="39.2189206" lon="0.7862945"><ele>0.0</ele><time>2026-04-29T20:39:09.003Z</time></trkpt><trkpt lat="39.2189936" lon="0.7863462"><ele>0.0</ele><time>2026-04-29T20:39:10.003Z</time></trkpt><trkpt lat="39.2190683" lon="0.7863978"><ele>0.0</ele><time>2026-04-29T20:39:11.003Z</time></trkpt><trkpt lat="39.219146" lon="0.7864553"><ele>0.0</ele><time>2026-04-29T20:39:12.003Z</time></trkpt><trkpt lat="39.2192215" lon="0.7865175"><ele>0.0</ele><time>2026-04-29T20:39:13.004Z</time></trkpt><trkpt lat="39.219294" lon="0.7865707"><ele>0.0</ele><time>2026-04-29T20:39:14.003Z</time></trkpt><trkpt lat="39.2193687" lon="0.7866308"><ele>0.0</ele><time>2026-04-29T20:39:15.004Z</time></trkpt><trkpt lat="39.2194459" lon="0.7866871"><ele>0.0</ele><time>2026-04-29T20:39:16.004Z</time></trkpt><trkpt lat="39.2195216" lon="0.7867419"><ele>0.0</ele><time>2026-04-29T20:39:17.004Z</time></trkpt><trkpt lat="39.2195954" lon="0.7867977"><ele>0.0</ele><time>2026-04-29T20:39:18.004Z</time></trkpt><trkpt lat="39.2196659" lon="0.786859"><ele>0.0</ele><time>2026-04-29T20:39:19.004Z</time></trkpt><trkpt lat="39.2197428" lon="0.7869177"><ele>0.0</ele><time>2026-04-29T20:39:20.004Z</time></trkpt><trkpt lat="39.2198877" lon="0.7870414"><ele>0.0</ele><time>2026-04-29T20:39:22.003Z</time></trkpt><trkpt lat="39.2199521" lon="0.7871089"><ele>0.0</ele><time>2026-04-29T20:39:23.004Z</time></trkpt><trkpt lat="39.2200225" lon="0.787168"><ele>0.0</ele><time>2026-04-29T20:39:24.003Z</time></trkpt><trkpt lat="39.220101" lon="0.7872305"><ele>0.0</ele><time>2026-04-29T20:39:25.004Z</time></trkpt><trkpt lat="39.2201781" lon="0.7872896"><ele>0.0</ele><time>2026-04-29T20:39:26.003Z</time></trkpt><trkpt lat="39.2202531" lon="0.7873461"><ele>0.0</ele><time>2026-04-29T20:39:27.003Z</time></trkpt><trkpt lat="39.2203343" lon="0.7874056"><ele>0.0</ele><time>2026-04-29T20:39:28.003Z</time></trkpt><trkpt lat="39.2204116" lon="0.7874628"><ele>0.0</ele><time>2026-04-29T20:39:29.003Z</time></trkpt><trkpt lat="39.2204883" lon="0.7875151"><ele>0.0</ele><time>2026-04-29T20:39:30.004Z</time></trkpt><trkpt lat="39.2205636" lon="0.7875663"><ele>0.0</ele><time>2026-04-29T20:39:31.004Z</time></trkpt><trkpt lat="39.220637" lon="0.7876169"><ele>0.0</ele><time>2026-04-29T20:39:32.003Z</time></trkpt><trkpt lat="39.2207119" lon="0.7876681"><ele>0.0</ele><time>2026-04-29T20:39:33.003Z</time></trkpt><trkpt lat="39.2207853" lon="0.7877244"><ele>0.0</ele><time>2026-04-29T20:39:34.004Z</time></trkpt><trkpt lat="39.2208633" lon="0.7877766"><ele>0.0</ele><time>2026-04-29T20:39:35.004Z</time></trkpt><trkpt lat="39.2209371" lon="0.7878284"><ele>0.0</ele><time>2026-04-29T20:39:36.003Z</time></trkpt><trkpt lat="39.2210105" lon="0.7878744"><ele>0.0</ele><time>2026-04-29T20:39:37.003Z</time></trkpt><trkpt lat="39.221085" lon="0.7879201"><ele>0.0</ele><time>2026-04-29T20:39:38.003Z</time></trkpt><trkpt lat="39.2211584" lon="0.787961"><ele>0.0</ele><time>2026-04-29T20:39:39.004Z</time></trkpt><trkpt lat="39.221236" lon="0.7880078"><ele>0.0</ele><time>2026-04-29T20:39:40.003Z</time></trkpt><trkpt lat="39.2213129" lon="0.7880581"><ele>0.0</ele><time>2026-04-29T20:39:41.003Z</time></trkpt><trkpt lat="39.2214708" lon="0.7881511"><ele>0.0</ele><time>2026-04-29T20:39:43.003Z</time></trkpt><trkpt lat="39.2215539" lon="0.7882006"><ele>0.0</ele><time>2026-04-29T20:39:44.003Z</time></trkpt><trkpt lat="39.2216359" lon="0.7882503"><ele>0.0</ele><time>2026-04-29T20:39:45.004Z</time></trkpt><trkpt lat="39.221712" lon="0.7882974"><ele>0.0</ele><time>2026-04-29T20:39:46.004Z</time></trkpt><trkpt lat="39.2217894" lon="0.7883459"><ele>0.0</ele><time>2026-04-29T20:39:47.003Z</time></trkpt><trkpt lat="39.2218638" lon="0.7883998"><ele>0.0</ele><time>2026-04-29T20:39:48.004Z</time></trkpt><trkpt lat="39.22194" lon="0.7884563"><ele>0.0</ele><time>2026-04-29T20:39:49.003Z</time></trkpt><trkpt lat="39.2220123" lon="0.7885146"><ele>0.0</ele><time>2026-04-29T20:39:50.003Z</time></trkpt><trkpt lat="39.2220881" lon="0.7885712"><ele>0.0</ele><time>2026-04-29T20:39:51.004Z</time></trkpt><trkpt lat="39.2221648" lon="0.7886216"><ele>0.0</ele><time>2026-04-29T20:39:52.003Z</time></trkpt><trkpt lat="39.2222402" lon="0.7886731"><ele>0.0</ele><time>2026-04-29T20:39:53.003Z</time></trkpt><trkpt lat="39.2223168" lon="0.7887336"><ele>0.0</ele><time>2026-04-29T20:39:54.003Z</time></trkpt><trkpt lat="39.2223923" lon="0.7887904"><ele>0.0</ele><time>2026-04-29T20:39:55.003Z</time></trkpt><trkpt lat="39.2224684" lon="0.788839"><ele>0.0</ele><time>2026-04-29T20:39:56.004Z</time></trkpt><trkpt lat="39.2225446" lon="0.7888864"><ele>0.0</ele><time>2026-04-29T20:39:57.003Z</time></trkpt><trkpt lat="39.2226199" lon="0.7889316"><ele>0.0</ele><time>2026-04-29T20:39:58.003Z</time></trkpt><trkpt lat="39.2226925" lon="0.7889754"><ele>0.0</ele><time>2026-04-29T20:39:59.003Z</time></trkpt><trkpt lat="39.2227698" lon="0.7890216"><ele>0.0</ele><time>2026-04-29T20:40:00.003Z</time></trkpt><trkpt lat="39.2228467" lon="0.7890746"><ele>0.0</ele><time>2026-04-29T20:40:01.004Z</time></trkpt><trkpt lat="39.2229233" lon="0.789125"><ele>0.0</ele><time>2026-04-29T20:40:02.004Z</time></trkpt><trkpt lat="39.2230014" lon="0.7891751"><ele>0.0</ele><time>2026-04-29T20:40:03.004Z</time></trkpt><trkpt lat="39.2231471" lon="0.7892876"><ele>0.0</ele><time>2026-04-29T20:40:05.004Z</time></trkpt><trkpt lat="39.223219" lon="0.789347"><ele>0.0</ele><time>2026-04-29T20:40:06.003Z</time></trkpt><trkpt lat="39.2232966" lon="0.7893993"><ele>0.0</ele><time>2026-04-29T20:40:07.004Z</time></trkpt><trkpt lat="39.2233735" lon="0.7894526"><ele>0.0</ele><time>2026-04-29T20:40:08.003Z</time></trkpt><trkpt lat="39.2234499" lon="0.7895067"><ele>0.0</ele><time>2026-04-29T20:40:09.003Z</time></trkpt><trkpt lat="39.2235235" lon="0.7895586"><ele>0.0</ele><time>2026-04-29T20:40:10.004Z</time></trkpt><trkpt lat="39.2235983" lon="0.7896103"><ele>0.0</ele><time>2026-04-29T20:40:11.003Z</time></trkpt><trkpt lat="39.2236762" lon="0.7896634"><ele>0.0</ele><time>2026-04-29T20:40:12.004Z</time></trkpt><trkpt lat="39.2237564" lon="0.7897136"><ele>0.0</ele><time>2026-04-29T20:40:13.003Z</time></trkpt><trkpt lat="39.2238391" lon="0.7897675"><ele>0.0</ele><time>2026-04-29T20:40:14.004Z</time></trkpt><trkpt lat="39.2239136" lon="0.7898203"><ele>0.0</ele><time>2026-04-29T20:40:15.003Z</time></trkpt><trkpt lat="39.2239887" lon="0.7898744"><ele>0.0</ele><time>2026-04-29T20:40:16.003Z</time></trkpt><trkpt lat="39.2240619" lon="0.7899285"><ele>0.0</ele><time>2026-04-29T20:40:17.004Z</time></trkpt><trkpt lat="39.224138" lon="0.7899821"><ele>0.0</ele><time>2026-04-29T20:40:18.003Z</time></trkpt><trkpt lat="39.2242134" lon="0.7900349"><ele>0.0</ele><time>2026-04-29T20:40:19.003Z</time></trkpt><trkpt lat="39.2242885" lon="0.7900839"><ele>0.0</ele><time>2026-04-29T20:40:20.003Z</time></trkpt><trkpt lat="39.2243651" lon="0.7901364"><ele>0.0</ele><time>2026-04-29T20:40:21.004Z</time></trkpt><trkpt lat="39.2244444" lon="0.790187"><ele>0.0</ele><time>2026-04-29T20:40:22.003Z</time></trkpt><trkpt lat="39.2245203" lon="0.7902372"><ele>0.0</ele><time>2026-04-29T20:40:23.004Z</time></trkpt><trkpt lat="39.2245937" lon="0.7903043"><ele>0.0</ele><time>2026-04-29T20:40:24.004Z</time></trkpt><trkpt lat="39.2247389" lon="0.7904349"><ele>0.0</ele><time>2026-04-29T20:40:26.003Z</time></trkpt><trkpt lat="39.2248147" lon="0.790496"><ele>0.0</ele><time>2026-04-29T20:40:27.003Z</time></trkpt><trkpt lat="39.2248945" lon="0.7905559"><ele>0.0</ele><time>2026-04-29T20:40:28.003Z</time></trkpt><trkpt lat="39.2249701" lon="0.7906227"><ele>0.0</ele><time>2026-04-29T20:40:29.004Z</time></trkpt><trkpt lat="39.2250468" lon="0.7906793"><ele>0.0</ele><time>2026-04-29T20:40:30.003Z</time></trkpt><trkpt lat="39.2251219" lon="0.7907362"><ele>0.0</ele><time>2026-04-29T20:40:31.003Z</time></trkpt><trkpt lat="39.2251939" lon="0.790797"><ele>0.0</ele><time>2026-04-29T20:40:32.003Z</time></trkpt><trkpt lat="39.2252657" lon="0.7908519"><ele>0.0</ele><time>2026-04-29T20:40:33.004Z</time></trkpt><trkpt lat="39.2253373" lon="0.7909036"><ele>0.0</ele><time>2026-04-29T20:40:34.004Z</time></trkpt><trkpt lat="39.2254062" lon="0.7909523"><ele>0.0</ele><time>2026-04-29T20:40:35.004Z</time></trkpt><trkpt lat="39.2254776" lon="0.7910061"><ele>0.0</ele><time>2026-04-29T20:40:36.003Z</time></trkpt><trkpt lat="39.225552" lon="0.7910625"><ele>0.0</ele><time>2026-04-29T20:40:37.004Z</time></trkpt><trkpt lat="39.2256311" lon="0.7911164"><ele>0.0</ele><time>2026-04-29T20:40:38.003Z</time></trkpt><trkpt lat="39.2257111" lon="0.7911699"><ele>0.0</ele><time>2026-04-29T20:40:39.003Z</time></trkpt><trkpt lat="39.2257927" lon="0.791223"><ele>0.0</ele><time>2026-04-29T20:40:40.003Z</time></trkpt><trkpt lat="39.2258685" lon="0.7912733"><ele>0.0</ele><time>2026-04-29T20:40:41.004Z</time></trkpt><trkpt lat="39.2259405" lon="0.7913235"><ele>0.0</ele><time>2026-04-29T20:40:42.004Z</time></trkpt><trkpt lat="39.2260183" lon="0.7913719"><ele>0.0</ele><time>2026-04-29T20:40:43.003Z</time></trkpt><trkpt lat="39.2260965" lon="0.7914134"><ele>0.0</ele><time>2026-04-29T20:40:44.003Z</time></trkpt><trkpt lat="39.226169" lon="0.7914609"><ele>0.0</ele><time>2026-04-29T20:40:45.003Z</time></trkpt><trkpt lat="39.22632" lon="0.7915599"><ele>0.0</ele><time>2026-04-29T20:40:47.003Z</time></trkpt><trkpt lat="39.2263955" lon="0.791607"><ele>0.0</ele><time>2026-04-29T20:40:48.003Z</time></trkpt><trkpt lat="39.2264748" lon="0.7916521"><ele>0.0</ele><time>2026-04-29T20:40:49.003Z</time></trkpt><trkpt lat="39.2265563" lon="0.7916968"><ele>0.0</ele><time>2026-04-29T20:40:50.003Z</time></trkpt><trkpt lat="39.2266408" lon="0.7917404"><ele>0.0</ele><time>2026-04-29T20:40:51.003Z</time></trkpt><trkpt lat="39.2267183" lon="0.7917817"><ele>0.0</ele><time>2026-04-29T20:40:52.003Z</time></trkpt><trkpt lat="39.2267894" lon="0.7918163"><ele>0.0</ele><time>2026-04-29T20:40:53.002Z</time></trkpt><trkpt lat="39.2268595" lon="0.7918593"><ele>0.0</ele><time>2026-04-29T20:40:54.002Z</time></trkpt><trkpt lat="39.2269352" lon="0.7919082"><ele>0.0</ele><time>2026-04-29T20:40:55.002Z</time></trkpt><trkpt lat="39.2270118" lon="0.7919535"><ele>0.0</ele><time>2026-04-29T20:40:56.002Z</time></trkpt><trkpt lat="39.2270897" lon="0.7920056"><ele>0.0</ele><time>2026-04-29T20:40:57.003Z</time></trkpt><trkpt lat="39.2271649" lon="0.7920578"><ele>0.0</ele><time>2026-04-29T20:40:58.003Z</time></trkpt><trkpt lat="39.2272442" lon="0.792113"><ele>0.0</ele><time>2026-04-29T20:40:59.003Z</time></trkpt><trkpt lat="39.2273228" lon="0.792165"><ele>0.0</ele><time>2026-04-29T20:41:00.003Z</time></trkpt><trkpt lat="39.2274027" lon="0.7922196"><ele>0.0</ele><time>2026-04-29T20:41:01.002Z</time></trkpt><trkpt lat="39.2274798" lon="0.7922703"><ele>0.0</ele><time>2026-04-29T20:41:02.003Z</time></trkpt><trkpt lat="39.2275508" lon="0.7923164"><ele>0.0</ele><time>2026-04-29T20:41:03.002Z</time></trkpt><trkpt lat="39.2276249" lon="0.7923695"><ele>0.0</ele><time>2026-04-29T20:41:04.002Z</time></trkpt><trkpt lat="39.2276998" lon="0.792427"><ele>0.0</ele><time>2026-04-29T20:41:05.003Z</time></trkpt><trkpt lat="39.2277754" lon="0.7924797"><ele>0.0</ele><time>2026-04-29T20:41:06.002Z</time></trkpt><trkpt lat="39.227856" lon="0.7925318"><ele>0.0</ele><time>2026-04-29T20:41:07.002Z</time></trkpt><trkpt lat="39.2280049" lon="0.7926487"><ele>0.0</ele><time>2026-04-29T20:41:09.002Z</time></trkpt><trkpt lat="39.2280798" lon="0.7927087"><ele>0.0</ele><time>2026-04-29T20:41:10.003Z</time></trkpt><trkpt lat="39.2281543" lon="0.792764"><ele>0.0</ele><time>2026-04-29T20:41:11.002Z</time></trkpt><trkpt lat="39.2282313" lon="0.7928143"><ele>0.0</ele><time>2026-04-29T20:41:12.003Z</time></trkpt><trkpt lat="39.2283073" lon="0.7928435"><ele>0.0</ele><time>2026-04-29T20:41:13.002Z</time></trkpt><trkpt lat="39.2283807" lon="0.7928987"><ele>0.0</ele><time>2026-04-29T20:41:14.002Z</time></trkpt><trkpt lat="39.2284524" lon="0.7929543"><ele>0.0</ele><time>2026-04-29T20:41:15.003Z</time></trkpt><trkpt lat="39.2285297" lon="0.7930021"><ele>0.0</ele><time>2026-04-29T20:41:16.002Z</time></trkpt><trkpt lat="39.2286052" lon="0.7930518"><ele>0.0</ele><time>2026-04-29T20:41:17.002Z</time></trkpt><trkpt lat="39.2286795" lon="0.7931093"><ele>0.0</ele><time>2026-04-29T20:41:18.002Z</time></trkpt><trkpt lat="39.2287534" lon="0.7931667"><ele>0.0</ele><time>2026-04-29T20:41:19.003Z</time></trkpt><trkpt lat="39.2288255" lon="0.7932274"><ele>0.0</ele><time>2026-04-29T20:41:20.003Z</time></trkpt><trkpt lat="39.2289044" lon="0.7932887"><ele>0.0</ele><time>2026-04-29T20:41:21.003Z</time></trkpt><trkpt lat="39.2289829" lon="0.7933441"><ele>0.0</ele><time>2026-04-29T20:41:22.002Z</time></trkpt><trkpt lat="39.2290586" lon="0.7933961"><ele>0.0</ele><time>2026-04-29T20:41:23.003Z</time></trkpt><trkpt lat="39.2291347" lon="0.7934507"><ele>0.0</ele><time>2026-04-29T20:41:24.002Z</time></trkpt><trkpt lat="39.229211" lon="0.793507"><ele>0.0</ele><time>2026-04-29T20:41:25.003Z</time></trkpt><trkpt lat="39.229291" lon="0.7935676"><ele>0.0</ele><time>2026-04-29T20:41:26.003Z</time></trkpt><trkpt lat="39.2293665" lon="0.7936278"><ele>0.0</ele><time>2026-04-29T20:41:27.002Z</time></trkpt><trkpt lat="39.2294475" lon="0.7936903"><ele>0.0</ele><time>2026-04-29T20:41:28.003Z</time></trkpt><trkpt lat="39.2296043" lon="0.7938041"><ele>0.0</ele><time>2026-04-29T20:41:30.003Z</time></trkpt><trkpt lat="39.2296815" lon="0.7938594"><ele>0.0</ele><time>2026-04-29T20:41:31.002Z</time></trkpt><trkpt lat="39.2297555" lon="0.7939199"><ele>0.0</ele><time>2026-04-29T20:41:32.003Z</time></trkpt><trkpt lat="39.2298332" lon="0.7939775"><ele>0.0</ele><time>2026-04-29T20:41:33.002Z</time></trkpt><trkpt lat="39.2299114" lon="0.79403"><ele>0.0</ele><time>2026-04-29T20:41:34.003Z</time></trkpt><trkpt lat="39.2299881" lon="0.7940852"><ele>0.0</ele><time>2026-04-29T20:41:35.002Z</time></trkpt><trkpt lat="39.2300646" lon="0.7941373"><ele>0.0</ele><time>2026-04-29T20:41:36.003Z</time></trkpt><trkpt lat="39.2301403" lon="0.7941939"><ele>0.0</ele><time>2026-04-29T20:41:37.002Z</time></trkpt><trkpt lat="39.2302183" lon="0.7942461"><ele>0.0</ele><time>2026-04-29T20:41:38.002Z</time></trkpt><trkpt lat="39.2302922" lon="0.794298"><ele>0.0</ele><time>2026-04-29T20:41:39.002Z</time></trkpt><trkpt lat="39.2303641" lon="0.7943641"><ele>0.0</ele><time>2026-04-29T20:41:40.003Z</time></trkpt><trkpt lat="39.2304341" lon="0.7944341"><ele>0.0</ele><time>2026-04-29T20:41:41.003Z</time></trkpt><trkpt lat="39.2304998" lon="0.7944933"><ele>0.0</ele><time>2026-04-29T20:41:42.002Z</time></trkpt><trkpt lat="39.2305722" lon="0.7945566"><ele>0.0</ele><time>2026-04-29T20:41:43.003Z</time></trkpt><trkpt lat="39.2306456" lon="0.7946145"><ele>0.0</ele><time>2026-04-29T20:41:44.002Z</time></trkpt><trkpt lat="39.230719" lon="0.7946657"><ele>0.0</ele><time>2026-04-29T20:41:45.003Z</time></trkpt><trkpt lat="39.2307979" lon="0.7947141"><ele>0.0</ele><time>2026-04-29T20:41:46.003Z</time></trkpt><trkpt lat="39.2308741" lon="0.794771"><ele>0.0</ele><time>2026-04-29T20:41:47.003Z</time></trkpt><trkpt lat="39.2309488" lon="0.7948234"><ele>0.0</ele><time>2026-04-29T20:41:48.002Z</time></trkpt><trkpt lat="39.2310249" lon="0.7948796"><ele>0.0</ele><time>2026-04-29T20:41:49.003Z</time></trkpt><trkpt lat="39.2311741" lon="0.7949867"><ele>0.0</ele><time>2026-04-29T20:41:51.003Z</time></trkpt><trkpt lat="39.231253" lon="0.7950411"><ele>0.0</ele><time>2026-04-29T20:41:52.003Z</time></trkpt><trkpt lat="39.2313283" lon="0.7951038"><ele>0.0</ele><time>2026-04-29T20:41:53.002Z</time></trkpt><trkpt lat="39.2314006" lon="0.7951586"><ele>0.0</ele><time>2026-04-29T20:41:54.002Z</time></trkpt><trkpt lat="39.2314726" lon="0.7952106"><ele>0.0</ele><time>2026-04-29T20:41:55.002Z</time></trkpt><trkpt lat="39.2315467" lon="0.7952581"><ele>0.0</ele><time>2026-04-29T20:41:56.003Z</time></trkpt><trkpt lat="39.2316218" lon="0.7953107"><ele>0.0</ele><time>2026-04-29T20:41:57.003Z</time></trkpt><trkpt lat="39.2316955" lon="0.7953591"><ele>0.0</ele><time>2026-04-29T20:41:58.003Z</time></trkpt><trkpt lat="39.2317703" lon="0.7954075"><ele>0.0</ele><time>2026-04-29T20:41:59.002Z</time></trkpt><trkpt lat="39.2318592" lon="0.7954437"><ele>0.0</ele><time>2026-04-29T20:42:00.003Z</time></trkpt><trkpt lat="39.2319417" lon="0.7954885"><ele>0.0</ele><time>2026-04-29T20:42:01.002Z</time></trkpt><trkpt lat="39.2320197" lon="0.7955378"><ele>0.0</ele><time>2026-04-29T20:42:02.003Z</time></trkpt><trkpt lat="39.2320963" lon="0.7955937"><ele>0.0</ele><time>2026-04-29T20:42:03.003Z</time></trkpt><trkpt lat="39.2321741" lon="0.7956434"><ele>0.0</ele><time>2026-04-29T20:42:04.002Z</time></trkpt><trkpt lat="39.232257" lon="0.7956888"><ele>0.0</ele><time>2026-04-29T20:42:05.002Z</time></trkpt><trkpt lat="39.232336" lon="0.7957411"><ele>0.0</ele><time>2026-04-29T20:42:06.002Z</time></trkpt><trkpt lat="39.2324073" lon="0.7957987"><ele>0.0</ele><time>2026-04-29T20:42:07.003Z</time></trkpt><trkpt lat="39.2324773" lon="0.7958766"><ele>0.0</ele><time>2026-04-29T20:42:08.003Z</time></trkpt><trkpt lat="39.2325475" lon="0.7959282"><ele>0.0</ele><time>2026-04-29T20:42:09.002Z</time></trkpt><trkpt lat="39.2326784" lon="0.7960478"><ele>0.0</ele><time>2026-04-29T20:42:11.003Z</time></trkpt><trkpt lat="39.2327478" lon="0.7961129"><ele>0.0</ele><time>2026-04-29T20:42:12.003Z</time></trkpt><trkpt lat="39.232822" lon="0.7961777"><ele>0.0</ele><time>2026-04-29T20:42:13.002Z</time></trkpt><trkpt lat="39.2328969" lon="0.7962359"><ele>0.0</ele><time>2026-04-29T20:42:14.003Z</time></trkpt><trkpt lat="39.232972" lon="0.7962993"><ele>0.0</ele><time>2026-04-29T20:42:15.002Z</time></trkpt><trkpt lat="39.2330497" lon="0.7963527"><ele>0.0</ele><time>2026-04-29T20:42:16.003Z</time></trkpt><trkpt lat="39.2331265" lon="0.7964091"><ele>0.0</ele><time>2026-04-29T20:42:17.002Z</time></trkpt><trkpt lat="39.2332003" lon="0.7964816"><ele>0.0</ele><time>2026-04-29T20:42:18.003Z</time></trkpt><trkpt lat="39.2332805" lon="0.796551"><ele>0.0</ele><time>2026-04-29T20:42:19.003Z</time></trkpt><trkpt lat="39.2333532" lon="0.7966187"><ele>0.0</ele><time>2026-04-29T20:42:20.002Z</time></trkpt><trkpt lat="39.2334266" lon="0.7966799"><ele>0.0</ele><time>2026-04-29T20:42:21.002Z</time></trkpt><trkpt lat="39.2335014" lon="0.7967371"><ele>0.0</ele><time>2026-04-29T20:42:22.003Z</time></trkpt><trkpt lat="39.2335766" lon="0.7967932"><ele>0.0</ele><time>2026-04-29T20:42:23.003Z</time></trkpt><trkpt lat="39.2336488" lon="0.7968513"><ele>0.0</ele><time>2026-04-29T20:42:24.003Z</time></trkpt><trkpt lat="39.2337231" lon="0.7969041"><ele>0.0</ele><time>2026-04-29T20:42:25.002Z</time></trkpt><trkpt lat="39.2337994" lon="0.7969492"><ele>0.0</ele><time>2026-04-29T20:42:26.003Z</time></trkpt><trkpt lat="39.233875" lon="0.7969936"><ele>0.0</ele><time>2026-04-29T20:42:27.003Z</time></trkpt><trkpt lat="39.2339455" lon="0.7970434"><ele>0.0</ele><time>2026-04-29T20:42:28.002Z</time></trkpt><trkpt lat="39.2340154" lon="0.7971009"><ele>0.0</ele><time>2026-04-29T20:42:29.003Z</time></trkpt><trkpt lat="39.2340983" lon="0.7971253"><ele>0.0</ele><time>2026-04-29T20:42:30.002Z</time></trkpt><trkpt lat="39.2342573" lon="0.7972123"><ele>0.0</ele><time>2026-04-29T20:42:32.002Z</time></trkpt><trkpt lat="39.2343315" lon="0.7972417"><ele>0.0</ele><time>2026-04-29T20:42:33.003Z</time></trkpt><trkpt lat="39.2344066" lon="0.7972897"><ele>0.0</ele><time>2026-04-29T20:42:34.003Z</time></trkpt><trkpt lat="39.2344757" lon="0.7973434"><ele>0.0</ele><time>2026-04-29T20:42:35.002Z</time></trkpt><trkpt lat="39.2345471" lon="0.7973983"><ele>0.0</ele><time>2026-04-29T20:42:36.002Z</time></trkpt><trkpt lat="39.2346199" lon="0.797456"><ele>0.0</ele><time>2026-04-29T20:42:37.002Z</time></trkpt><trkpt lat="39.2346963" lon="0.7975228"><ele>0.0</ele><time>2026-04-29T20:42:38.002Z</time></trkpt><trkpt lat="39.2347758" lon="0.7975851"><ele>0.0</ele><time>2026-04-29T20:42:39.003Z</time></trkpt><trkpt lat="39.2348517" lon="0.7976484"><ele>0.0</ele><time>2026-04-29T20:42:40.002Z</time></trkpt><trkpt lat="39.2349282" lon="0.7977022"><ele>0.0</ele><time>2026-04-29T20:42:41.003Z</time></trkpt><trkpt lat="39.2350006" lon="0.7977513"><ele>0.0</ele><time>2026-04-29T20:42:42.002Z</time></trkpt><trkpt lat="39.2350765" lon="0.797805"><ele>0.0</ele><time>2026-04-29T20:42:43.003Z</time></trkpt><trkpt lat="39.2351502" lon="0.7978598"><ele>0.0</ele><time>2026-04-29T20:42:44.002Z</time></trkpt><trkpt lat="39.2352226" lon="0.7979192"><ele>0.0</ele><time>2026-04-29T20:42:45.002Z</time></trkpt><trkpt lat="39.2353008" lon="0.7979765"><ele>0.0</ele><time>2026-04-29T20:42:46.003Z</time></trkpt><trkpt lat="39.2353766" lon="0.7980389"><ele>0.0</ele><time>2026-04-29T20:42:47.002Z</time></trkpt><trkpt lat="39.2354502" lon="0.7981027"><ele>0.0</ele><time>2026-04-29T20:42:48.003Z</time></trkpt><trkpt lat="39.2355246" lon="0.7981651"><ele>0.0</ele><time>2026-04-29T20:42:49.002Z</time></trkpt><trkpt lat="39.2356025" lon="0.7982211"><ele>0.0</ele><time>2026-04-29T20:42:50.002Z</time></trkpt><trkpt lat="39.2356794" lon="0.798279"><ele>0.0</ele><time>2026-04-29T20:42:51.002Z</time></trkpt><trkpt lat="39.235824" lon="0.7983956"><ele>0.0</ele><time>2026-04-29T20:42:53.003Z</time></trkpt><trkpt lat="39.2358993" lon="0.7984527"><ele>0.0</ele><time>2026-04-29T20:42:54.003Z</time></trkpt><trkpt lat="39.2359731" lon="0.7985152"><ele>0.0</ele><time>2026-04-29T20:42:55.002Z</time></trkpt><trkpt lat="39.2360463" lon="0.7985775"><ele>0.0</ele><time>2026-04-29T20:42:56.003Z</time></trkpt><trkpt lat="39.2361198" lon="0.7986348"><ele>0.0</ele><time>2026-04-29T20:42:57.002Z</time></trkpt><trkpt lat="39.2361946" lon="0.7986973"><ele>0.0</ele><time>2026-04-29T20:42:58.003Z</time></trkpt><trkpt lat="39.2362683" lon="0.7987627"><ele>0.0</ele><time>2026-04-29T20:42:59.003Z</time></trkpt><trkpt lat="39.2363406" lon="0.7988272"><ele>0.0</ele><time>2026-04-29T20:43:00.003Z</time></trkpt><trkpt lat="39.2364103" lon="0.7988941"><ele>0.0</ele><time>2026-04-29T20:43:01.002Z</time></trkpt><trkpt lat="39.2364871" lon="0.7989614"><ele>0.0</ele><time>2026-04-29T20:43:02.003Z</time></trkpt><trkpt lat="39.2365602" lon="0.799022"><ele>0.0</ele><time>2026-04-29T20:43:03.002Z</time></trkpt><trkpt lat="39.2366363" lon="0.7990792"><ele>0.0</ele><time>2026-04-29T20:43:04.003Z</time></trkpt><trkpt lat="39.2367099" lon="0.7991383"><ele>0.0</ele><time>2026-04-29T20:43:05.002Z</time></trkpt><trkpt lat="39.2367817" lon="0.7991973"><ele>0.0</ele><time>2026-04-29T20:43:06.003Z</time></trkpt><trkpt lat="39.2368549" lon="0.7992502"><ele>0.0</ele><time>2026-04-29T20:43:07.003Z</time></trkpt><trkpt lat="39.2369297" lon="0.7993003"><ele>0.0</ele><time>2026-04-29T20:43:08.003Z</time></trkpt><trkpt lat="39.2370047" lon="0.7993603"><ele>0.0</ele><time>2026-04-29T20:43:09.002Z</time></trkpt><trkpt lat="39.2370811" lon="0.7994206"><ele>0.0</ele><time>2026-04-29T20:43:10.002Z</time></trkpt><trkpt lat="39.2371516" lon="0.7994852"><ele>0.0</ele><time>2026-04-29T20:43:11.002Z</time></trkpt><trkpt lat="39.2372191" lon="0.7995567"><ele>0.0</ele><time>2026-04-29T20:43:12.002Z</time></trkpt><trkpt lat="39.2372942" lon="0.7996204"><ele>0.0</ele><time>2026-04-29T20:43:13.002Z</time></trkpt><trkpt lat="39.2374397" lon="0.7997318"><ele>0.0</ele><time>2026-04-29T20:43:15.002Z</time></trkpt><trkpt lat="39.2375108" lon="0.7997929"><ele>0.0</ele><time>2026-04-29T20:43:16.003Z</time></trkpt><trkpt lat="39.2375762" lon="0.7998593"><ele>0.0</ele><time>2026-04-29T20:43:17.002Z</time></trkpt><trkpt lat="39.237644" lon="0.7999202"><ele>0.0</ele><time>2026-04-29T20:43:18.002Z</time></trkpt><trkpt lat="39.2377166" lon="0.7999829"><ele>0.0</ele><time>2026-04-29T20:43:19.002Z</time></trkpt><trkpt lat="39.2377857" lon="0.8000518"><ele>0.0</ele><time>2026-04-29T20:43:20.003Z</time></trkpt><trkpt lat="39.237861" lon="0.8001219"><ele>0.0</ele><time>2026-04-29T20:43:21.003Z</time></trkpt><trkpt lat="39.2379347" lon="0.8001849"><ele>0.0</ele><time>2026-04-29T20:43:22.003Z</time></trkpt><trkpt lat="39.2380095" lon="0.8002426"><ele>0.0</ele><time>2026-04-29T20:43:23.002Z</time></trkpt><trkpt lat="39.2380832" lon="0.8003048"><ele>0.0</ele><time>2026-04-29T20:43:24.002Z</time></trkpt><trkpt lat="39.238157" lon="0.8003676"><ele>0.0</ele><time>2026-04-29T20:43:25.002Z</time></trkpt><trkpt lat="39.238227" lon="0.8004289"><ele>0.0</ele><time>2026-04-29T20:43:26.003Z</time></trkpt><trkpt lat="39.2383032" lon="0.8004858"><ele>0.0</ele><time>2026-04-29T20:43:27.002Z</time></trkpt><trkpt lat="39.2383766" lon="0.8005481"><ele>0.0</ele><time>2026-04-29T20:43:28.002Z</time></trkpt><trkpt lat="39.2384483" lon="0.8006101"><ele>0.0</ele><time>2026-04-29T20:43:29.002Z</time></trkpt><trkpt lat="39.2385231" lon="0.8006685"><ele>0.0</ele><time>2026-04-29T20:43:30.003Z</time></trkpt><trkpt lat="39.2385968" lon="0.8007283"><ele>0.0</ele><time>2026-04-29T20:43:31.003Z</time></trkpt><trkpt lat="39.2386654" lon="0.8007945"><ele>0.0</ele><time>2026-04-29T20:43:32.002Z</time></trkpt><trkpt lat="39.2387342" lon="0.8008609"><ele>0.0</ele><time>2026-04-29T20:43:33.002Z</time></trkpt><trkpt lat="39.2388051" lon="0.800917"><ele>0.0</ele><time>2026-04-29T20:43:34.002Z</time></trkpt><trkpt lat="39.238953" lon="0.8010427"><ele>0.0</ele><time>2026-04-29T20:43:36.002Z</time></trkpt><trkpt lat="39.2390298" lon="0.8010984"><ele>0.0</ele><time>2026-04-29T20:43:37.003Z</time></trkpt><trkpt lat="39.2391052" lon="0.8011505"><ele>0.0</ele><time>2026-04-29T20:43:38.002Z</time></trkpt><trkpt lat="39.2391714" lon="0.80121"><ele>0.0</ele><time>2026-04-29T20:43:39.003Z</time></trkpt><trkpt lat="39.2392448" lon="0.8012662"><ele>0.0</ele><time>2026-04-29T20:43:40.002Z</time></trkpt><trkpt lat="39.2393126" lon="0.8013268"><ele>0.0</ele><time>2026-04-29T20:43:41.003Z</time></trkpt><trkpt lat="39.2393847" lon="0.8013897"><ele>0.0</ele><time>2026-04-29T20:43:42.003Z</time></trkpt><trkpt lat="39.2394569" lon="0.8014516"><ele>0.0</ele><time>2026-04-29T20:43:43.002Z</time></trkpt><trkpt lat="39.2395358" lon="0.8015113"><ele>0.0</ele><time>2026-04-29T20:43:44.002Z</time></trkpt><trkpt lat="39.2396128" lon="0.8015744"><ele>0.0</ele><time>2026-04-29T20:43:45.002Z</time></trkpt><trkpt lat="39.2396876" lon="0.8016394"><ele>0.0</ele><time>2026-04-29T20:43:46.002Z</time></trkpt><trkpt lat="39.2397615" lon="0.8017071"><ele>0.0</ele><time>2026-04-29T20:43:47.003Z</time></trkpt><trkpt lat="39.239835" lon="0.8017698"><ele>0.0</ele><time>2026-04-29T20:43:48.002Z</time></trkpt><trkpt lat="39.2399055" lon="0.8018302"><ele>0.0</ele><time>2026-04-29T20:43:49.003Z</time></trkpt><trkpt lat="39.2399741" lon="0.8018933"><ele>0.0</ele><time>2026-04-29T20:43:50.003Z</time></trkpt><trkpt lat="39.2400456" lon="0.8019517"><ele>0.0</ele><time>2026-04-29T20:43:51.003Z</time></trkpt><trkpt lat="39.2401126" lon="0.8020103"><ele>0.0</ele><time>2026-04-29T20:43:52.002Z</time></trkpt><trkpt lat="39.2401854" lon="0.8020698"><ele>0.0</ele><time>2026-04-29T20:43:53.003Z</time></trkpt><trkpt lat="39.2402613" lon="0.8021214"><ele>0.0</ele><time>2026-04-29T20:43:54.003Z</time></trkpt><trkpt lat="39.2403352" lon="0.8021701"><ele>0.0</ele><time>2026-04-29T20:43:55.002Z</time></trkpt><trkpt lat="39.2404703" lon="0.8022882"><ele>0.0</ele><time>2026-04-29T20:43:57.002Z</time></trkpt><trkpt lat="39.2405475" lon="0.8023354"><ele>0.0</ele><time>2026-04-29T20:43:58.003Z</time></trkpt><trkpt lat="39.2406248" lon="0.8023855"><ele>0.0</ele><time>2026-04-29T20:43:59.002Z</time></trkpt><trkpt lat="39.2407013" lon="0.8024416"><ele>0.0</ele><time>2026-04-29T20:44:00.003Z</time></trkpt><trkpt lat="39.2407791" lon="0.8024973"><ele>0.0</ele><time>2026-04-29T20:44:01.002Z</time></trkpt><trkpt lat="39.2408561" lon="0.802551"><ele>0.0</ele><time>2026-04-29T20:44:02.003Z</time></trkpt><trkpt lat="39.2409302" lon="0.8026107"><ele>0.0</ele><time>2026-04-29T20:44:03.002Z</time></trkpt><trkpt lat="39.2410035" lon="0.8026697"><ele>0.0</ele><time>2026-04-29T20:44:04.003Z</time></trkpt><trkpt lat="39.2410712" lon="0.802725"><ele>0.0</ele><time>2026-04-29T20:44:05.003Z</time></trkpt><trkpt lat="39.2411432" lon="0.8027832"><ele>0.0</ele><time>2026-04-29T20:44:06.002Z</time></trkpt><trkpt lat="39.2412135" lon="0.8028404"><ele>0.0</ele><time>2026-04-29T20:44:07.002Z</time></trkpt><trkpt lat="39.2412894" lon="0.8029027"><ele>0.0</ele><time>2026-04-29T20:44:08.003Z</time></trkpt><trkpt lat="39.241366" lon="0.802963"><ele>0.0</ele><time>2026-04-29T20:44:09.002Z</time></trkpt><trkpt lat="39.2414401" lon="0.8030244"><ele>0.0</ele><time>2026-04-29T20:44:10.002Z</time></trkpt><trkpt lat="39.2415088" lon="0.8030887"><ele>0.0</ele><time>2026-04-29T20:44:11.002Z</time></trkpt><trkpt lat="39.2415801" lon="0.8031512"><ele>0.0</ele><time>2026-04-29T20:44:12.002Z</time></trkpt><trkpt lat="39.2416546" lon="0.80321"><ele>0.0</ele><time>2026-04-29T20:44:13.002Z</time></trkpt><trkpt lat="39.241732" lon="0.8032649"><ele>0.0</ele><time>2026-04-29T20:44:14.002Z</time></trkpt><trkpt lat="39.2418063" lon="0.8033236"><ele>0.0</ele><time>2026-04-29T20:44:15.002Z</time></trkpt><trkpt lat="39.2418768" lon="0.8033812"><ele>0.0</ele><time>2026-04-29T20:44:16.002Z</time></trkpt><trkpt lat="39.2420147" lon="0.8035067"><ele>0.0</ele><time>2026-04-29T20:44:18.003Z</time></trkpt><trkpt lat="39.2420839" lon="0.8035681"><ele>0.0</ele><time>2026-04-29T20:44:19.002Z</time></trkpt><trkpt lat="39.2421584" lon="0.8036309"><ele>0.0</ele><time>2026-04-29T20:44:20.002Z</time></trkpt><trkpt lat="39.242233" lon="0.8036928"><ele>0.0</ele><time>2026-04-29T20:44:21.002Z</time></trkpt><trkpt lat="39.2423069" lon="0.8037519"><ele>0.0</ele><time>2026-04-29T20:44:22.003Z</time></trkpt><trkpt lat="39.2423771" lon="0.8038157"><ele>0.0</ele><time>2026-04-29T20:44:23.002Z</time></trkpt><trkpt lat="39.2424483" lon="0.8038754"><ele>0.0</ele><time>2026-04-29T20:44:24.002Z</time></trkpt><trkpt lat="39.2425217" lon="0.8039377"><ele>0.0</ele><time>2026-04-29T20:44:25.002Z</time></trkpt><trkpt lat="39.2425894" lon="0.8040041"><ele>0.0</ele><time>2026-04-29T20:44:26.002Z</time></trkpt><trkpt lat="39.2426633" lon="0.8040649"><ele>0.0</ele><time>2026-04-29T20:44:27.003Z</time></trkpt><trkpt lat="39.2427354" lon="0.8041278"><ele>0.0</ele><time>2026-04-29T20:44:28.003Z</time></trkpt><trkpt lat="39.2428096" lon="0.804184"><ele>0.0</ele><time>2026-04-29T20:44:29.002Z</time></trkpt><trkpt lat="39.2428863" lon="0.8042358"><ele>0.0</ele><time>2026-04-29T20:44:30.002Z</time></trkpt><trkpt lat="39.2429589" lon="0.8042876"><ele>0.0</ele><time>2026-04-29T20:44:31.002Z</time></trkpt><trkpt lat="39.2430347" lon="0.8043465"><ele>0.0</ele><time>2026-04-29T20:44:32.003Z</time></trkpt><trkpt lat="39.2431083" lon="0.8044079"><ele>0.0</ele><time>2026-04-29T20:44:33.002Z</time></trkpt><trkpt lat="39.2431842" lon="0.8044658"><ele>0.0</ele><time>2026-04-29T20:44:34.003Z</time></trkpt><trkpt lat="39.2432568" lon="0.8045278"><ele>0.0</ele><time>2026-04-29T20:44:35.002Z</time></trkpt><trkpt lat="39.2433268" lon="0.8045895"><ele>0.0</ele><time>2026-04-29T20:44:36.002Z</time></trkpt><trkpt lat="39.2434" lon="0.8046509"><ele>0.0</ele><time>2026-04-29T20:44:37.002Z</time></trkpt><trkpt lat="39.2434704" lon="0.8047131"><ele>0.0</ele><time>2026-04-29T20:44:38.003Z</time></trkpt><trkpt lat="39.2436133" lon="0.8048427"><ele>0.0</ele><time>2026-04-29T20:44:40.002Z</time></trkpt><trkpt lat="39.2436893" lon="0.8049047"><ele>0.0</ele><time>2026-04-29T20:44:41.002Z</time></trkpt><trkpt lat="39.2437601" lon="0.8049667"><ele>0.0</ele><time>2026-04-29T20:44:42.002Z</time></trkpt><trkpt lat="39.2438345" lon="0.8050298"><ele>0.0</ele><time>2026-04-29T20:44:43.003Z</time></trkpt><trkpt lat="39.2439054" lon="0.8050916"><ele>0.0</ele><time>2026-04-29T20:44:44.002Z</time></trkpt><trkpt lat="39.2439772" lon="0.8051492"><ele>0.0</ele><time>2026-04-29T20:44:45.003Z</time></trkpt><trkpt lat="39.2440487" lon="0.8052101"><ele>0.0</ele><time>2026-04-29T20:44:46.003Z</time></trkpt><trkpt lat="39.2441229" lon="0.8052704"><ele>0.0</ele><time>2026-04-29T20:44:47.002Z</time></trkpt><trkpt lat="39.2441954" lon="0.8053312"><ele>0.0</ele><time>2026-04-29T20:44:48.002Z</time></trkpt><trkpt lat="39.2442702" lon="0.8053908"><ele>0.0</ele><time>2026-04-29T20:44:49.002Z</time></trkpt><trkpt lat="39.2443407" lon="0.8054554"><ele>0.0</ele><time>2026-04-29T20:44:50.002Z</time></trkpt><trkpt lat="39.2444091" lon="0.805516"><ele>0.0</ele><time>2026-04-29T20:44:51.003Z</time></trkpt><trkpt lat="39.2444787" lon="0.8055861"><ele>0.0</ele><time>2026-04-29T20:44:52.003Z</time></trkpt><trkpt lat="39.2445521" lon="0.8056503"><ele>0.0</ele><time>2026-04-29T20:44:53.002Z</time></trkpt><trkpt lat="39.2446262" lon="0.8057076"><ele>0.0</ele><time>2026-04-29T20:44:54.003Z</time></trkpt><trkpt lat="39.2446985" lon="0.805771"><ele>0.0</ele><time>2026-04-29T20:44:55.002Z</time></trkpt><trkpt lat="39.2447686" lon="0.8058432"><ele>0.0</ele><time>2026-04-29T20:44:56.002Z</time></trkpt><trkpt lat="39.2448399" lon="0.8059088"><ele>0.0</ele><time>2026-04-29T20:44:57.002Z</time></trkpt><trkpt lat="39.2449074" lon="0.8059768"><ele>0.0</ele><time>2026-04-29T20:44:58.003Z</time></trkpt><trkpt lat="39.2449804" lon="0.8060449"><ele>0.0</ele><time>2026-04-29T20:44:59.002Z</time></trkpt><trkpt lat="39.2451203" lon="0.8061793"><ele>0.0</ele><time>2026-04-29T20:45:01.003Z</time></trkpt><trkpt lat="39.2451917" lon="0.8062515"><ele>0.0</ele><time>2026-04-29T20:45:02.003Z</time></trkpt><trkpt lat="39.245262" lon="0.8063233"><ele>0.0</ele><time>2026-04-29T20:45:03.002Z</time></trkpt><trkpt lat="39.2453335" lon="0.8063923"><ele>0.0</ele><time>2026-04-29T20:45:04.003Z</time></trkpt><trkpt lat="39.2454048" lon="0.8064823"><ele>0.0</ele><time>2026-04-29T20:45:05.003Z</time></trkpt><trkpt lat="39.2454781" lon="0.8065623"><ele>0.0</ele><time>2026-04-29T20:45:06.003Z</time></trkpt><trkpt lat="39.2455515" lon="0.8066293"><ele>0.0</ele><time>2026-04-29T20:45:07.003Z</time></trkpt><trkpt lat="39.2456308" lon="0.8066818"><ele>0.0</ele><time>2026-04-29T20:45:08.003Z</time></trkpt><trkpt lat="39.2457053" lon="0.8067444"><ele>0.0</ele><time>2026-04-29T20:45:09.002Z</time></trkpt><trkpt lat="39.2457817" lon="0.806809"><ele>0.0</ele><time>2026-04-29T20:45:10.002Z</time></trkpt><trkpt lat="39.2458567" lon="0.8068639"><ele>0.0</ele><time>2026-04-29T20:45:11.002Z</time></trkpt><trkpt lat="39.2459246" lon="0.8069246"><ele>0.0</ele><time>2026-04-29T20:45:12.001Z</time></trkpt><trkpt lat="39.2459896" lon="0.8069867"><ele>0.0</ele><time>2026-04-29T20:45:13.002Z</time></trkpt><trkpt lat="39.246059" lon="0.8070469"><ele>0.0</ele><time>2026-04-29T20:45:14.001Z</time></trkpt><trkpt lat="39.2461264" lon="0.8071039"><ele>0.0</ele><time>2026-04-29T20:45:15.001Z</time></trkpt><trkpt lat="39.2461972" lon="0.8071594"><ele>0.0</ele><time>2026-04-29T20:45:16.001Z</time></trkpt><trkpt lat="39.2462758" lon="0.8072083"><ele>0.0</ele><time>2026-04-29T20:45:17.001Z</time></trkpt><trkpt lat="39.2463572" lon="0.8072569"><ele>0.0</ele><time>2026-04-29T20:45:18.002Z</time></trkpt><trkpt lat="39.246432" lon="0.807312"><ele>0.0</ele><time>2026-04-29T20:45:19.001Z</time></trkpt><trkpt lat="39.2465066" lon="0.8073784"><ele>0.0</ele><time>2026-04-29T20:45:20.002Z</time></trkpt><trkpt lat="39.2465804" lon="0.8074372"><ele>0.0</ele><time>2026-04-29T20:45:21.002Z</time></trkpt><trkpt lat="39.2467344" lon="0.8075569"><ele>0.0</ele><time>2026-04-29T20:45:23.001Z</time></trkpt><trkpt lat="39.2468071" lon="0.8076203"><ele>0.0</ele><time>2026-04-29T20:45:24.001Z</time></trkpt><trkpt lat="39.2468733" lon="0.8076837"><ele>0.0</ele><time>2026-04-29T20:45:25.001Z</time></trkpt><trkpt lat="39.2469427" lon="0.8077438"><ele>0.0</ele><time>2026-04-29T20:45:26.002Z</time></trkpt><trkpt lat="39.2470113" lon="0.8078039"><ele>0.0</ele><time>2026-04-29T20:45:27.001Z</time></trkpt><trkpt lat="39.2470877" lon="0.8078573"><ele>0.0</ele><time>2026-04-29T20:45:28.002Z</time></trkpt><trkpt lat="39.2471617" lon="0.8079079"><ele>0.0</ele><time>2026-04-29T20:45:29.001Z</time></trkpt><trkpt lat="39.2472348" lon="0.8079581"><ele>0.0</ele><time>2026-04-29T20:45:30.001Z</time></trkpt><trkpt lat="39.2473066" lon="0.8080155"><ele>0.0</ele><time>2026-04-29T20:45:31.002Z</time></trkpt><trkpt lat="39.2473798" lon="0.8080776"><ele>0.0</ele><time>2026-04-29T20:45:32.001Z</time></trkpt><trkpt lat="39.2474504" lon="0.8081437"><ele>0.0</ele><time>2026-04-29T20:45:33.001Z</time></trkpt><trkpt lat="39.2475259" lon="0.8082023"><ele>0.0</ele><time>2026-04-29T20:45:34.001Z</time></trkpt><trkpt lat="39.2476012" lon="0.8082562"><ele>0.0</ele><time>2026-04-29T20:45:35.001Z</time></trkpt><trkpt lat="39.2476763" lon="0.8083139"><ele>0.0</ele><time>2026-04-29T20:45:36.001Z</time></trkpt><trkpt lat="39.2477524" lon="0.8083706"><ele>0.0</ele><time>2026-04-29T20:45:37.001Z</time></trkpt><trkpt lat="39.2478266" lon="0.8084269"><ele>0.0</ele><time>2026-04-29T20:45:38.001Z</time></trkpt><trkpt lat="39.247897" lon="0.8084854"><ele>0.0</ele><time>2026-04-29T20:45:39.001Z</time></trkpt><trkpt lat="39.2479725" lon="0.8085341"><ele>0.0</ele><time>2026-04-29T20:45:40.001Z</time></trkpt><trkpt lat="39.2480474" lon="0.8085866"><ele>0.0</ele><time>2026-04-29T20:45:41.002Z</time></trkpt><trkpt lat="39.248124" lon="0.8086497"><ele>0.0</ele><time>2026-04-29T20:45:42.001Z</time></trkpt><trkpt lat="39.2482773" lon="0.8087628"><ele>0.0</ele><time>2026-04-29T20:45:44.002Z</time></trkpt><trkpt lat="39.2483499" lon="0.8088191"><ele>0.0</ele><time>2026-04-29T20:45:45.002Z</time></trkpt><trkpt lat="39.2484214" lon="0.8088743"><ele>0.0</ele><time>2026-04-29T20:45:46.002Z</time></trkpt><trkpt lat="39.2484947" lon="0.8089307"><ele>0.0</ele><time>2026-04-29T20:45:47.001Z</time></trkpt><trkpt lat="39.2485681" lon="0.8089863"><ele>0.0</ele><time>2026-04-29T20:45:48.001Z</time></trkpt><trkpt lat="39.2486417" lon="0.8090451"><ele>0.0</ele><time>2026-04-29T20:45:49.001Z</time></trkpt><trkpt lat="39.2487094" lon="0.8091035"><ele>0.0</ele><time>2026-04-29T20:45:50.001Z</time></trkpt><trkpt lat="39.2487786" lon="0.8091654"><ele>0.0</ele><time>2026-04-29T20:45:51.001Z</time></trkpt><trkpt lat="39.2488502" lon="0.809227"><ele>0.0</ele><time>2026-04-29T20:45:52.002Z</time></trkpt><trkpt lat="39.2489243" lon="0.8092886"><ele>0.0</ele><time>2026-04-29T20:45:53.002Z</time></trkpt><trkpt lat="39.248995" lon="0.8093518"><ele>0.0</ele><time>2026-04-29T20:45:54.002Z</time></trkpt><trkpt lat="39.2490679" lon="0.8094175"><ele>0.0</ele><time>2026-04-29T20:45:55.002Z</time></trkpt><trkpt lat="39.2491443" lon="0.8094825"><ele>0.0</ele><time>2026-04-29T20:45:56.001Z</time></trkpt><trkpt lat="39.2492223" lon="0.8095436"><ele>0.0</ele><time>2026-04-29T20:45:57.001Z</time></trkpt><trkpt lat="39.249301" lon="0.8096063"><ele>0.0</ele><time>2026-04-29T20:45:58.001Z</time></trkpt><trkpt lat="39.2493777" lon="0.8096682"><ele>0.0</ele><time>2026-04-29T20:45:59.001Z</time></trkpt><trkpt lat="39.249453" lon="0.8097257"><ele>0.0</ele><time>2026-04-29T20:46:00.002Z</time></trkpt><trkpt lat="39.2495268" lon="0.8097865"><ele>0.0</ele><time>2026-04-29T20:46:01.001Z</time></trkpt><trkpt lat="39.2495988" lon="0.8098565"><ele>0.0</ele><time>2026-04-29T20:46:02.002Z</time></trkpt><trkpt lat="39.2496673" lon="0.8099213"><ele>0.0</ele><time>2026-04-29T20:46:03.002Z</time></trkpt><trkpt lat="39.249809" lon="0.8100546"><ele>0.0</ele><time>2026-04-29T20:46:05.001Z</time></trkpt><trkpt lat="39.2498827" lon="0.8101211"><ele>0.0</ele><time>2026-04-29T20:46:06.001Z</time></trkpt><trkpt lat="39.249955" lon="0.8101821"><ele>0.0</ele><time>2026-04-29T20:46:07.002Z</time></trkpt><trkpt lat="39.2500269" lon="0.8102448"><ele>0.0</ele><time>2026-04-29T20:46:08.002Z</time></trkpt><trkpt lat="39.2501012" lon="0.8103138"><ele>0.0</ele><time>2026-04-29T20:46:09.002Z</time></trkpt><trkpt lat="39.250172" lon="0.8103795"><ele>0.0</ele><time>2026-04-29T20:46:10.002Z</time></trkpt><trkpt lat="39.2502451" lon="0.8104444"><ele>0.0</ele><time>2026-04-29T20:46:11.001Z</time></trkpt><trkpt lat="39.2503169" lon="0.8105065"><ele>0.0</ele><time>2026-04-29T20:46:12.002Z</time></trkpt><trkpt lat="39.250386" lon="0.8105652"><ele>0.0</ele><time>2026-04-29T20:46:13.002Z</time></trkpt><trkpt lat="39.2504585" lon="0.8106277"><ele>0.0</ele><time>2026-04-29T20:46:14.002Z</time></trkpt><trkpt lat="39.2505286" lon="0.8106928"><ele>0.0</ele><time>2026-04-29T20:46:15.002Z</time></trkpt><trkpt lat="39.250603" lon="0.810758"><ele>0.0</ele><time>2026-04-29T20:46:16.001Z</time></trkpt><trkpt lat="39.2506763" lon="0.8108257"><ele>0.0</ele><time>2026-04-29T20:46:17.001Z</time></trkpt><trkpt lat="39.2507497" lon="0.8108911"><ele>0.0</ele><time>2026-04-29T20:46:18.002Z</time></trkpt><trkpt lat="39.2508234" lon="0.8109516"><ele>0.0</ele><time>2026-04-29T20:46:19.002Z</time></trkpt><trkpt lat="39.2508912" lon="0.8110102"><ele>0.0</ele><time>2026-04-29T20:46:20.001Z</time></trkpt><trkpt lat="39.2509664" lon="0.8110692"><ele>0.0</ele><time>2026-04-29T20:46:21.001Z</time></trkpt><trkpt lat="39.251037" lon="0.8111276"><ele>0.0</ele><time>2026-04-29T20:46:22.001Z</time></trkpt><trkpt lat="39.2511127" lon="0.8111802"><ele>0.0</ele><time>2026-04-29T20:46:23.001Z</time></trkpt><trkpt lat="39.2511837" lon="0.811236"><ele>0.0</ele><time>2026-04-29T20:46:24.002Z</time></trkpt><trkpt lat="39.2512554" lon="0.8112908"><ele>0.0</ele><time>2026-04-29T20:46:25.001Z</time></trkpt><trkpt lat="39.2514016" lon="0.8114083"><ele>0.0</ele><time>2026-04-29T20:46:27.001Z</time></trkpt><trkpt lat="39.2514735" lon="0.8114657"><ele>0.0</ele><time>2026-04-29T20:46:28.001Z</time></trkpt><trkpt lat="39.2515454" lon="0.8115236"><ele>0.0</ele><time>2026-04-29T20:46:29.001Z</time></trkpt><trkpt lat="39.2516152" lon="0.8115836"><ele>0.0</ele><time>2026-04-29T20:46:30.001Z</time></trkpt><trkpt lat="39.2516883" lon="0.8116401"><ele>0.0</ele><time>2026-04-29T20:46:31.001Z</time></trkpt><trkpt lat="39.2517616" lon="0.8117029"><ele>0.0</ele><time>2026-04-29T20:46:32.001Z</time></trkpt><trkpt lat="39.2518334" lon="0.8117662"><ele>0.0</ele><time>2026-04-29T20:46:33.002Z</time></trkpt><trkpt lat="39.2519105" lon="0.811831"><ele>0.0</ele><time>2026-04-29T20:46:34.001Z</time></trkpt><trkpt lat="39.2519917" lon="0.8118906"><ele>0.0</ele><time>2026-04-29T20:46:35.001Z</time></trkpt><trkpt lat="39.2520605" lon="0.8119529"><ele>0.0</ele><time>2026-04-29T20:46:36.001Z</time></trkpt><trkpt lat="39.2521346" lon="0.8120179"><ele>0.0</ele><time>2026-04-29T20:46:37.002Z</time></trkpt><trkpt lat="39.2522055" lon="0.812081"><ele>0.0</ele><time>2026-04-29T20:46:38.001Z</time></trkpt><trkpt lat="39.2522798" lon="0.81214"><ele>0.0</ele><time>2026-04-29T20:46:39.001Z</time></trkpt><trkpt lat="39.2523547" lon="0.8122013"><ele>0.0</ele><time>2026-04-29T20:46:40.002Z</time></trkpt><trkpt lat="39.2524268" lon="0.8122604"><ele>0.0</ele><time>2026-04-29T20:46:41.001Z</time></trkpt><trkpt lat="39.2524999" lon="0.8123188"><ele>0.0</ele><time>2026-04-29T20:46:42.001Z</time></trkpt><trkpt lat="39.2525748" lon="0.8123769"><ele>0.0</ele><time>2026-04-29T20:46:43.002Z</time></trkpt><trkpt lat="39.2526455" lon="0.8124338"><ele>0.0</ele><time>2026-04-29T20:46:44.002Z</time></trkpt><trkpt lat="39.252717" lon="0.8124935"><ele>0.0</ele><time>2026-04-29T20:46:45.002Z</time></trkpt><trkpt lat="39.2527884" lon="0.8125524"><ele>0.0</ele><time>2026-04-29T20:46:46.001Z</time></trkpt><trkpt lat="39.252939" lon="0.8126711"><ele>0.0</ele><time>2026-04-29T20:46:48.001Z</time></trkpt><trkpt lat="39.2530118" lon="0.8127273"><ele>0.0</ele><time>2026-04-29T20:46:49.002Z</time></trkpt><trkpt lat="39.2530851" lon="0.8127853"><ele>0.0</ele><time>2026-04-29T20:46:50.002Z</time></trkpt><trkpt lat="39.2531558" lon="0.8128405"><ele>0.0</ele><time>2026-04-29T20:46:51.002Z</time></trkpt><trkpt lat="39.2532316" lon="0.8128949"><ele>0.0</ele><time>2026-04-29T20:46:52.002Z</time></trkpt><trkpt lat="39.2533037" lon="0.8129444"><ele>0.0</ele><time>2026-04-29T20:46:53.001Z</time></trkpt><trkpt lat="39.2533798" lon="0.8129959"><ele>0.0</ele><time>2026-04-29T20:46:54.001Z</time></trkpt><trkpt lat="39.2534566" lon="0.8130532"><ele>0.0</ele><time>2026-04-29T20:46:55.001Z</time></trkpt><trkpt lat="39.2535332" lon="0.8131069"><ele>0.0</ele><time>2026-04-29T20:46:56.001Z</time></trkpt><trkpt lat="39.2536114" lon="0.8131645"><ele>0.0</ele><time>2026-04-29T20:46:57.001Z</time></trkpt><trkpt lat="39.2536882" lon="0.8132227"><ele>0.0</ele><time>2026-04-29T20:46:58.002Z</time></trkpt><trkpt lat="39.2537644" lon="0.8132859"><ele>0.0</ele><time>2026-04-29T20:46:59.001Z</time></trkpt><trkpt lat="39.2538399" lon="0.8133519"><ele>0.0</ele><time>2026-04-29T20:47:00.002Z</time></trkpt><trkpt lat="39.2539108" lon="0.8134086"><ele>0.0</ele><time>2026-04-29T20:47:01.001Z</time></trkpt><trkpt lat="39.2539846" lon="0.8134729"><ele>0.0</ele><time>2026-04-29T20:47:02.001Z</time></trkpt><trkpt lat="39.2540585" lon="0.8135386"><ele>0.0</ele><time>2026-04-29T20:47:03.002Z</time></trkpt><trkpt lat="39.2541322" lon="0.8136021"><ele>0.0</ele><time>2026-04-29T20:47:04.002Z</time></trkpt><trkpt lat="39.2542067" lon="0.8136614"><ele>0.0</ele><time>2026-04-29T20:47:05.001Z</time></trkpt><trkpt lat="39.25428" lon="0.8137232"><ele>0.0</ele><time>2026-04-29T20:47:06.002Z</time></trkpt><trkpt lat="39.2543535" lon="0.8137816"><ele>0.0</ele><time>2026-04-29T20:47:07.001Z</time></trkpt><trkpt lat="39.2544971" lon="0.8139049"><ele>0.0</ele><time>2026-04-29T20:47:09.001Z</time></trkpt><trkpt lat="39.2545674" lon="0.8139653"><ele>0.0</ele><time>2026-04-29T20:47:10.002Z</time></trkpt><trkpt lat="39.254637" lon="0.8140271"><ele>0.0</ele><time>2026-04-29T20:47:11.001Z</time></trkpt><trkpt lat="39.2547085" lon="0.8140897"><ele>0.0</ele><time>2026-04-29T20:47:12.002Z</time></trkpt><trkpt lat="39.25478" lon="0.8141518"><ele>0.0</ele><time>2026-04-29T20:47:13.002Z</time></trkpt><trkpt lat="39.2548501" lon="0.8142123"><ele>0.0</ele><time>2026-04-29T20:47:14.001Z</time></trkpt><trkpt lat="39.2549145" lon="0.8142682"><ele>0.0</ele><time>2026-04-29T20:47:15.001Z</time></trkpt><trkpt lat="39.2549834" lon="0.8143287"><ele>0.0</ele><time>2026-04-29T20:47:16.002Z</time></trkpt><trkpt lat="39.255055" lon="0.8143902"><ele>0.0</ele><time>2026-04-29T20:47:17.001Z</time></trkpt><trkpt lat="39.2551293" lon="0.814453"><ele>0.0</ele><time>2026-04-29T20:47:18.001Z</time></trkpt><trkpt lat="39.255203" lon="0.8145106"><ele>0.0</ele><time>2026-04-29T20:47:19.002Z</time></trkpt><trkpt lat="39.2552762" lon="0.8145749"><ele>0.0</ele><time>2026-04-29T20:47:20.002Z</time></trkpt><trkpt lat="39.2553502" lon="0.8146333"><ele>0.0</ele><time>2026-04-29T20:47:21.001Z</time></trkpt><trkpt lat="39.2554232" lon="0.8146949"><ele>0.0</ele><time>2026-04-29T20:47:22.002Z</time></trkpt><trkpt lat="39.2554952" lon="0.8147537"><ele>0.0</ele><time>2026-04-29T20:47:23.002Z</time></trkpt><trkpt lat="39.2555684" lon="0.8148123"><ele>0.0</ele><time>2026-04-29T20:47:24.002Z</time></trkpt><trkpt lat="39.2556387" lon="0.8148674"><ele>0.0</ele><time>2026-04-29T20:47:25.002Z</time></trkpt><trkpt lat="39.2557118" lon="0.8149221"><ele>0.0</ele><time>2026-04-29T20:47:26.002Z</time></trkpt><trkpt lat="39.2557821" lon="0.8149801"><ele>0.0</ele><time>2026-04-29T20:47:27.002Z</time></trkpt><trkpt lat="39.2558535" lon="0.8150412"><ele>0.0</ele><time>2026-04-29T20:47:28.002Z</time></trkpt><trkpt lat="39.2560019" lon="0.8151569"><ele>0.0</ele><time>2026-04-29T20:47:30.001Z</time></trkpt><trkpt lat="39.2560765" lon="0.8152121"><ele>0.0</ele><time>2026-04-29T20:47:31.001Z</time></trkpt><trkpt lat="39.2561499" lon="0.8152687"><ele>0.0</ele><time>2026-04-29T20:47:32.001Z</time></trkpt><trkpt lat="39.2562248" lon="0.8153286"><ele>0.0</ele><time>2026-04-29T20:47:33.002Z</time></trkpt><trkpt lat="39.2562984" lon="0.8153852"><ele>0.0</ele><time>2026-04-29T20:47:34.002Z</time></trkpt><trkpt lat="39.2563688" lon="0.8154431"><ele>0.0</ele><time>2026-04-29T20:47:35.001Z</time></trkpt><trkpt lat="39.2564386" lon="0.8155032"><ele>0.0</ele><time>2026-04-29T20:47:36.001Z</time></trkpt><trkpt lat="39.2565114" lon="0.8155619"><ele>0.0</ele><time>2026-04-29T20:47:37.001Z</time></trkpt><trkpt lat="39.2565863" lon="0.8156186"><ele>0.0</ele><time>2026-04-29T20:47:38.002Z</time></trkpt><trkpt lat="39.2566613" lon="0.815675"><ele>0.0</ele><time>2026-04-29T20:47:39.001Z</time></trkpt><trkpt lat="39.2567365" lon="0.8157346"><ele>0.0</ele><time>2026-04-29T20:47:40.001Z</time></trkpt><trkpt lat="39.2568116" lon="0.8157949"><ele>0.0</ele><time>2026-04-29T20:47:41.002Z</time></trkpt><trkpt lat="39.2568865" lon="0.8158563"><ele>0.0</ele><time>2026-04-29T20:47:42.002Z</time></trkpt><trkpt lat="39.25696" lon="0.8159165"><ele>0.0</ele><time>2026-04-29T20:47:43.001Z</time></trkpt><trkpt lat="39.2570305" lon="0.8159779"><ele>0.0</ele><time>2026-04-29T20:47:44.001Z</time></trkpt><trkpt lat="39.2571006" lon="0.8160437"><ele>0.0</ele><time>2026-04-29T20:47:45.001Z</time></trkpt><trkpt lat="39.257172" lon="0.8161201"><ele>0.0</ele><time>2026-04-29T20:47:46.001Z</time></trkpt><trkpt lat="39.2572448" lon="0.8162014"><ele>0.0</ele><time>2026-04-29T20:47:47.001Z</time></trkpt><trkpt lat="39.257317" lon="0.8162757"><ele>0.0</ele><time>2026-04-29T20:47:48.001Z</time></trkpt><trkpt lat="39.2573885" lon="0.8163383"><ele>0.0</ele><time>2026-04-29T20:47:49.001Z</time></trkpt><trkpt lat="39.2575399" lon="0.8164601"><ele>0.0</ele><time>2026-04-29T20:47:51.002Z</time></trkpt><trkpt lat="39.2576133" lon="0.8165357"><ele>0.0</ele><time>2026-04-29T20:47:52.002Z</time></trkpt><trkpt lat="39.2576864" lon="0.8166141"><ele>0.0</ele><time>2026-04-29T20:47:53.001Z</time></trkpt><trkpt lat="39.2577612" lon="0.8166856"><ele>0.0</ele><time>2026-04-29T20:47:54.002Z</time></trkpt><trkpt lat="39.2578349" lon="0.8167611"><ele>0.0</ele><time>2026-04-29T20:47:55.001Z</time></trkpt><trkpt lat="39.2579072" lon="0.8168364"><ele>0.0</ele><time>2026-04-29T20:47:56.002Z</time></trkpt><trkpt lat="39.2579775" lon="0.8169185"><ele>0.0</ele><time>2026-04-29T20:47:57.001Z</time></trkpt><trkpt lat="39.2580486" lon="0.8170018"><ele>0.0</ele><time>2026-04-29T20:47:58.002Z</time></trkpt><trkpt lat="39.2581186" lon="0.817081"><ele>0.0</ele><time>2026-04-29T20:47:59.002Z</time></trkpt><trkpt lat="39.2581917" lon="0.8171492"><ele>0.0</ele><time>2026-04-29T20:48:00.001Z</time></trkpt><trkpt lat="39.258264" lon="0.8172115"><ele>0.0</ele><time>2026-04-29T20:48:01.002Z</time></trkpt><trkpt lat="39.258334" lon="0.8172874"><ele>0.0</ele><time>2026-04-29T20:48:02.001Z</time></trkpt><trkpt lat="39.258401" lon="0.8173701"><ele>0.0</ele><time>2026-04-29T20:48:03.002Z</time></trkpt><trkpt lat="39.2584704" lon="0.8174504"><ele>0.0</ele><time>2026-04-29T20:48:04.002Z</time></trkpt><trkpt lat="39.2585431" lon="0.8175281"><ele>0.0</ele><time>2026-04-29T20:48:05.002Z</time></trkpt><trkpt lat="39.258615" lon="0.8175923"><ele>0.0</ele><time>2026-04-29T20:48:06.001Z</time></trkpt><trkpt lat="39.2586867" lon="0.8176603"><ele>0.0</ele><time>2026-04-29T20:48:07.002Z</time></trkpt><trkpt lat="39.2587566" lon="0.8177248"><ele>0.0</ele><time>2026-04-29T20:48:08.001Z</time></trkpt><trkpt lat="39.2588281" lon="0.8177937"><ele>0.0</ele><time>2026-04-29T20:48:09.002Z</time></trkpt><trkpt lat="39.2589011" lon="0.817861"><ele>0.0</ele><time>2026-04-29T20:48:10.001Z</time></trkpt><trkpt lat="39.2590467" lon="0.8179918"><ele>0.0</ele><time>2026-04-29T20:48:12.001Z</time></trkpt><trkpt lat="39.2591181" lon="0.8180615"><ele>0.0</ele><time>2026-04-29T20:48:13.001Z</time></trkpt><trkpt lat="39.2591914" lon="0.8181358"><ele>0.0</ele><time>2026-04-29T20:48:14.001Z</time></trkpt><trkpt lat="39.2592632" lon="0.8182009"><ele>0.0</ele><time>2026-04-29T20:48:15.002Z</time></trkpt><trkpt lat="39.2593322" lon="0.8182616"><ele>0.0</ele><time>2026-04-29T20:48:16.001Z</time></trkpt><trkpt lat="39.2593989" lon="0.8183384"><ele>0.0</ele><time>2026-04-29T20:48:17.001Z</time></trkpt><trkpt lat="39.2594701" lon="0.8184083"><ele>0.0</ele><time>2026-04-29T20:48:18.001Z</time></trkpt><trkpt lat="39.2595431" lon="0.8184766"><ele>0.0</ele><time>2026-04-29T20:48:19.001Z</time></trkpt><trkpt lat="39.2596152" lon="0.8185489"><ele>0.0</ele><time>2026-04-29T20:48:20.001Z</time></trkpt><trkpt lat="39.2596854" lon="0.8186251"><ele>0.0</ele><time>2026-04-29T20:48:21.002Z</time></trkpt><trkpt lat="39.2597584" lon="0.8186846"><ele>0.0</ele><time>2026-04-29T20:48:22.002Z</time></trkpt><trkpt lat="39.2598332" lon="0.8187429"><ele>0.0</ele><time>2026-04-29T20:48:23.002Z</time></trkpt><trkpt lat="39.2599096" lon="0.8187984"><ele>0.0</ele><time>2026-04-29T20:48:24.002Z</time></trkpt><trkpt lat="39.2599806" lon="0.8188591"><ele>0.0</ele><time>2026-04-29T20:48:25.001Z</time></trkpt><trkpt lat="39.2600519" lon="0.8189207"><ele>0.0</ele><time>2026-04-29T20:48:26.001Z</time></trkpt><trkpt lat="39.260128" lon="0.8189766"><ele>0.0</ele><time>2026-04-29T20:48:27.001Z</time></trkpt><trkpt lat="39.2601922" lon="0.8190175"><ele>0.0</ele><time>2026-04-29T20:48:28.001Z</time></trkpt><trkpt lat="39.2602726" lon="0.8190159"><ele>0.0</ele><time>2026-04-29T20:48:29.002Z</time></trkpt><trkpt lat="39.2603471" lon="0.8190599"><ele>0.0</ele><time>2026-04-29T20:48:30.002Z</time></trkpt><trkpt lat="39.2604218" lon="0.8191137"><ele>0.0</ele><time>2026-04-29T20:48:31.001Z</time></trkpt><trkpt lat="39.2604934" lon="0.8191679"><ele>0.0</ele><time>2026-04-29T20:48:32.002Z</time></trkpt><trkpt lat="39.2606416" lon="0.8192738"><ele>0.0</ele><time>2026-04-29T20:48:34.001Z</time></trkpt><trkpt lat="39.2607122" lon="0.8193273"><ele>0.0</ele><time>2026-04-29T20:48:35.001Z</time></trkpt><trkpt lat="39.2607849" lon="0.8193809"><ele>0.0</ele><time>2026-04-29T20:48:36.002Z</time></trkpt><trkpt lat="39.2608566" lon="0.8194404"><ele>0.0</ele><time>2026-04-29T20:48:37.001Z</time></trkpt><trkpt lat="39.26093" lon="0.8194972"><ele>0.0</ele><time>2026-04-29T20:48:38.001Z</time></trkpt><trkpt lat="39.2610034" lon="0.8195538"><ele>0.0</ele><time>2026-04-29T20:48:39.001Z</time></trkpt><trkpt lat="39.2610752" lon="0.8196104"><ele>0.0</ele><time>2026-04-29T20:48:40.002Z</time></trkpt><trkpt lat="39.2611497" lon="0.8196629"><ele>0.0</ele><time>2026-04-29T20:48:41.001Z</time></trkpt><trkpt lat="39.2612245" lon="0.8197219"><ele>0.0</ele><time>2026-04-29T20:48:42.001Z</time></trkpt><trkpt lat="39.2613008" lon="0.8197778"><ele>0.0</ele><time>2026-04-29T20:48:43.002Z</time></trkpt><trkpt lat="39.2613777" lon="0.8198284"><ele>0.0</ele><time>2026-04-29T20:48:44.001Z</time></trkpt><trkpt lat="39.2614501" lon="0.8198839"><ele>0.0</ele><time>2026-04-29T20:48:45.001Z</time></trkpt><trkpt lat="39.2615235" lon="0.8199372"><ele>0.0</ele><time>2026-04-29T20:48:46.001Z</time></trkpt><trkpt lat="39.2615967" lon="0.8199949"><ele>0.0</ele><time>2026-04-29T20:48:47.001Z</time></trkpt><trkpt lat="39.2616717" lon="0.8200505"><ele>0.0</ele><time>2026-04-29T20:48:48.002Z</time></trkpt><trkpt lat="39.2617467" lon="0.8201067"><ele>0.0</ele><time>2026-04-29T20:48:49.001Z</time></trkpt><trkpt lat="39.2618072" lon="0.8201485"><ele>0.0</ele><time>2026-04-29T20:48:50.002Z</time></trkpt><trkpt lat="39.261877" lon="0.8202021"><ele>0.0</ele><time>2026-04-29T20:48:51.001Z</time></trkpt><trkpt lat="39.2619484" lon="0.8202618"><ele>0.0</ele><time>2026-04-29T20:48:52.002Z</time></trkpt><trkpt lat="39.2620243" lon="0.8202922"><ele>0.0</ele><time>2026-04-29T20:48:53.002Z</time></trkpt><trkpt lat="39.2621699" lon="0.8203899"><ele>0.0</ele><time>2026-04-29T20:48:55.001Z</time></trkpt><trkpt lat="39.262243" lon="0.8204397"><ele>0.0</ele><time>2026-04-29T20:48:56.002Z</time></trkpt><trkpt lat="39.2623178" lon="0.820481"><ele>0.0</ele><time>2026-04-29T20:48:57.002Z</time></trkpt><trkpt lat="39.2623915" lon="0.820535"><ele>0.0</ele><time>2026-04-29T20:48:58.002Z</time></trkpt><trkpt lat="39.2624663" lon="0.8205902"><ele>0.0</ele><time>2026-04-29T20:48:59.002Z</time></trkpt><trkpt lat="39.2625415" lon="0.8206423"><ele>0.0</ele><time>2026-04-29T20:49:00.001Z</time></trkpt><trkpt lat="39.2626153" lon="0.8206934"><ele>0.0</ele><time>2026-04-29T20:49:01.001Z</time></trkpt><trkpt lat="39.2626886" lon="0.8207453"><ele>0.0</ele><time>2026-04-29T20:49:02.002Z</time></trkpt><trkpt lat="39.2627602" lon="0.8208014"><ele>0.0</ele><time>2026-04-29T20:49:03.001Z</time></trkpt><trkpt lat="39.262836" lon="0.8208588"><ele>0.0</ele><time>2026-04-29T20:49:04.001Z</time></trkpt><trkpt lat="39.2629102" lon="0.8209168"><ele>0.0</ele><time>2026-04-29T20:49:05.002Z</time></trkpt><trkpt lat="39.2629833" lon="0.8209747"><ele>0.0</ele><time>2026-04-29T20:49:06.002Z</time></trkpt><trkpt lat="39.2630565" lon="0.8210361"><ele>0.0</ele><time>2026-04-29T20:49:07.002Z</time></trkpt><trkpt lat="39.2631269" lon="0.8210921"><ele>0.0</ele><time>2026-04-29T20:49:08.002Z</time></trkpt><trkpt lat="39.2631998" lon="0.8211542"><ele>0.0</ele><time>2026-04-29T20:49:09.001Z</time></trkpt><trkpt lat="39.2632704" lon="0.8212073"><ele>0.0</ele><time>2026-04-29T20:49:10.002Z</time></trkpt><trkpt lat="39.2633462" lon="0.821262"><ele>0.0</ele><time>2026-04-29T20:49:11.002Z</time></trkpt><trkpt lat="39.2634215" lon="0.821315"><ele>0.0</ele><time>2026-04-29T20:49:12.001Z</time></trkpt><trkpt lat="39.2634949" lon="0.8213699"><ele>0.0</ele><time>2026-04-29T20:49:13.001Z</time></trkpt><trkpt lat="39.2635697" lon="0.8214267"><ele>0.0</ele><time>2026-04-29T20:49:14.002Z</time></trkpt><trkpt lat="39.263718" lon="0.8215338"><ele>0.0</ele><time>2026-04-29T20:49:16.001Z</time></trkpt><trkpt lat="39.2637945" lon="0.8215856"><ele>0.0</ele><time>2026-04-29T20:49:17.002Z</time></trkpt><trkpt lat="39.2638701" lon="0.8216411"><ele>0.0</ele><time>2026-04-29T20:49:18.002Z</time></trkpt><trkpt lat="39.2639451" lon="0.8216978"><ele>0.0</ele><time>2026-04-29T20:49:19.002Z</time></trkpt><trkpt lat="39.2640243" lon="0.8217475"><ele>0.0</ele><time>2026-04-29T20:49:20.002Z</time></trkpt><trkpt lat="39.2641017" lon="0.8218009"><ele>0.0</ele><time>2026-04-29T20:49:21.002Z</time></trkpt><trkpt lat="39.2641797" lon="0.8218562"><ele>0.0</ele><time>2026-04-29T20:49:22.002Z</time></trkpt><trkpt lat="39.2642537" lon="0.821914"><ele>0.0</ele><time>2026-04-29T20:49:23.002Z</time></trkpt><trkpt lat="39.2643268" lon="0.8219737"><ele>0.0</ele><time>2026-04-29T20:49:24.001Z</time></trkpt><trkpt lat="39.2644028" lon="0.8220325"><ele>0.0</ele><time>2026-04-29T20:49:25Z</time></trkpt><trkpt lat="39.2644769" lon="0.8220906"><ele>0.0</ele><time>2026-04-29T20:49:26.001Z</time></trkpt><trkpt lat="39.26455" lon="0.8221475"><ele>0.0</ele><time>2026-04-29T20:49:27Z</time></trkpt><trkpt lat="39.2646232" lon="0.822209"><ele>0.0</ele><time>2026-04-29T20:49:28.001Z</time></trkpt><trkpt lat="39.2646965" lon="0.8222693"><ele>0.0</ele><time>2026-04-29T20:49:29.001Z</time></trkpt><trkpt lat="39.2647685" lon="0.822329"><ele>0.0</ele><time>2026-04-29T20:49:30.001Z</time></trkpt><trkpt lat="39.2648387" lon="0.8223949"><ele>0.0</ele><time>2026-04-29T20:49:31Z</time></trkpt><trkpt lat="39.264907" lon="0.8224632"><ele>0.0</ele><time>2026-04-29T20:49:32Z</time></trkpt><trkpt lat="39.2649756" lon="0.822529"><ele>0.0</ele><time>2026-04-29T20:49:33Z</time></trkpt><trkpt lat="39.2650454" lon="0.8225969"><ele>0.0</ele><time>2026-04-29T20:49:34.001Z</time></trkpt><trkpt lat="39.2651151" lon="0.8226586"><ele>0.0</ele><time>2026-04-29T20:49:35.001Z</time></trkpt><trkpt lat="39.2651852" lon="0.822724"><ele>0.0</ele><time>2026-04-29T20:49:36Z</time></trkpt><trkpt lat="39.2653266" lon="0.8228564"><ele>0.0</ele><time>2026-04-29T20:49:38.001Z</time></trkpt><trkpt lat="39.2653984" lon="0.822921"><ele>0.0</ele><time>2026-04-29T20:49:39Z</time></trkpt><trkpt lat="39.2654673" lon="0.8229848"><ele>0.0</ele><time>2026-04-29T20:49:40Z</time></trkpt><trkpt lat="39.2655354" lon="0.8230497"><ele>0.0</ele><time>2026-04-29T20:49:41.001Z</time></trkpt><trkpt lat="39.2656042" lon="0.8231176"><ele>0.0</ele><time>2026-04-29T20:49:42.001Z</time></trkpt><trkpt lat="39.2656719" lon="0.823186"><ele>0.0</ele><time>2026-04-29T20:49:43.001Z</time></trkpt><trkpt lat="39.2657463" lon="0.8232709"><ele>0.0</ele><time>2026-04-29T20:49:44.001Z</time></trkpt><trkpt lat="39.2658172" lon="0.8233378"><ele>0.0</ele><time>2026-04-29T20:49:45.001Z</time></trkpt><trkpt lat="39.2658902" lon="0.8234"><ele>0.0</ele><time>2026-04-29T20:49:46Z</time></trkpt><trkpt lat="39.2659647" lon="0.8234616"><ele>0.0</ele><time>2026-04-29T20:49:47Z</time></trkpt><trkpt lat="39.2660339" lon="0.8235261"><ele>0.0</ele><time>2026-04-29T20:49:48Z</time></trkpt><trkpt lat="39.2661067" lon="0.823585"><ele>0.0</ele><time>2026-04-29T20:49:49.001Z</time></trkpt><trkpt lat="39.2661802" lon="0.8236422"><ele>0.0</ele><time>2026-04-29T20:49:50.001Z</time></trkpt><trkpt lat="39.2662551" lon="0.8237001"><ele>0.0</ele><time>2026-04-29T20:49:51.001Z</time></trkpt><trkpt lat="39.266327" lon="0.8237599"><ele>0.0</ele><time>2026-04-29T20:49:52Z</time></trkpt><trkpt lat="39.2663999" lon="0.8238201"><ele>0.0</ele><time>2026-04-29T20:49:53.001Z</time></trkpt><trkpt lat="39.2664732" lon="0.8238799"><ele>0.0</ele><time>2026-04-29T20:49:54.001Z</time></trkpt><trkpt lat="39.2665464" lon="0.8239399"><ele>0.0</ele><time>2026-04-29T20:49:55.001Z</time></trkpt><trkpt lat="39.2666229" lon="0.8240011"><ele>0.0</ele><time>2026-04-29T20:49:56.001Z</time></trkpt><trkpt lat="39.2666966" lon="0.8240618"><ele>0.0</ele><time>2026-04-29T20:49:57.001Z</time></trkpt><trkpt lat="39.2668431" lon="0.8241865"><ele>0.0</ele><time>2026-04-29T20:49:59Z</time></trkpt><trkpt lat="39.2669164" lon="0.8242498"><ele>0.0</ele><time>2026-04-29T20:50:00.001Z</time></trkpt><trkpt lat="39.2669896" lon="0.824312"><ele>0.0</ele><time>2026-04-29T20:50:01Z</time></trkpt><trkpt lat="39.267063" lon="0.8243735"><ele>0.0</ele><time>2026-04-29T20:50:02.001Z</time></trkpt><trkpt lat="39.267138" lon="0.824429"><ele>0.0</ele><time>2026-04-29T20:50:03Z</time></trkpt><trkpt lat="39.2672131" lon="0.8244867"><ele>0.0</ele><time>2026-04-29T20:50:04Z</time></trkpt><trkpt lat="39.2672847" lon="0.8245454"><ele>0.0</ele><time>2026-04-29T20:50:05Z</time></trkpt><trkpt lat="39.267358" lon="0.8246051"><ele>0.0</ele><time>2026-04-29T20:50:06.001Z</time></trkpt><trkpt lat="39.2674328" lon="0.8246651"><ele>0.0</ele><time>2026-04-29T20:50:07.001Z</time></trkpt><trkpt lat="39.2675049" lon="0.8247299"><ele>0.0</ele><time>2026-04-29T20:50:08Z</time></trkpt><trkpt lat="39.2675763" lon="0.8247921"><ele>0.0</ele><time>2026-04-29T20:50:09Z</time></trkpt><trkpt lat="39.2676512" lon="0.8248519"><ele>0.0</ele><time>2026-04-29T20:50:10.001Z</time></trkpt><trkpt lat="39.2677262" lon="0.8249089"><ele>0.0</ele><time>2026-04-29T20:50:11Z</time></trkpt><trkpt lat="39.2678001" lon="0.8249699"><ele>0.0</ele><time>2026-04-29T20:50:12Z</time></trkpt><trkpt lat="39.2678717" lon="0.8250318"><ele>0.0</ele><time>2026-04-29T20:50:13Z</time></trkpt><trkpt lat="39.267945" lon="0.8250725"><ele>0.0</ele><time>2026-04-29T20:50:14Z</time></trkpt><trkpt lat="39.2680152" lon="0.8251339"><ele>0.0</ele><time>2026-04-29T20:50:15Z</time></trkpt><trkpt lat="39.2680851" lon="0.8251997"><ele>0.0</ele><time>2026-04-29T20:50:16.001Z</time></trkpt><trkpt lat="39.2681548" lon="0.825268"><ele>0.0</ele><time>2026-04-29T20:50:17.001Z</time></trkpt><trkpt lat="39.2682981" lon="0.8253996"><ele>0.0</ele><time>2026-04-29T20:50:19.001Z</time></trkpt><trkpt lat="39.2683701" lon="0.825465"><ele>0.0</ele><time>2026-04-29T20:50:20Z</time></trkpt><trkpt lat="39.2684416" lon="0.8255281"><ele>0.0</ele><time>2026-04-29T20:50:21Z</time></trkpt><trkpt lat="39.2685134" lon="0.8255898"><ele>0.0</ele><time>2026-04-29T20:50:22Z</time></trkpt><trkpt lat="39.2685834" lon="0.8256534"><ele>0.0</ele><time>2026-04-29T20:50:23.001Z</time></trkpt><trkpt lat="39.2686551" lon="0.8257167"><ele>0.0</ele><time>2026-04-29T20:50:24.001Z</time></trkpt><trkpt lat="39.2687269" lon="0.8257769"><ele>0.0</ele><time>2026-04-29T20:50:25Z</time></trkpt><trkpt lat="39.2688002" lon="0.8258384"><ele>0.0</ele><time>2026-04-29T20:50:26.001Z</time></trkpt><trkpt lat="39.2688678" lon="0.8258898"><ele>0.0</ele><time>2026-04-29T20:50:27Z</time></trkpt><trkpt lat="39.2689374" lon="0.8259425"><ele>0.0</ele><time>2026-04-29T20:50:28Z</time></trkpt><trkpt lat="39.2690114" lon="0.8260016"><ele>0.0</ele><time>2026-04-29T20:50:29Z</time></trkpt><trkpt lat="39.2690835" lon="0.8260587"><ele>0.0</ele><time>2026-04-29T20:50:30.001Z</time></trkpt><trkpt lat="39.2691568" lon="0.8261152"><ele>0.0</ele><time>2026-04-29T20:50:31Z</time></trkpt><trkpt lat="39.2692302" lon="0.8261732"><ele>0.0</ele><time>2026-04-29T20:50:32Z</time></trkpt><trkpt lat="39.2693062" lon="0.8262315"><ele>0.0</ele><time>2026-04-29T20:50:33Z</time></trkpt><trkpt lat="39.2693828" lon="0.8262916"><ele>0.0</ele><time>2026-04-29T20:50:34.001Z</time></trkpt><trkpt lat="39.2694595" lon="0.8263516"><ele>0.0</ele><time>2026-04-29T20:50:35.001Z</time></trkpt><trkpt lat="39.2695339" lon="0.8264127"><ele>0.0</ele><time>2026-04-29T20:50:36.001Z</time></trkpt><trkpt lat="39.2696095" lon="0.8264706"><ele>0.0</ele><time>2026-04-29T20:50:37Z</time></trkpt><trkpt lat="39.2696864" lon="0.8265228"><ele>0.0</ele><time>2026-04-29T20:50:38Z</time></trkpt><trkpt lat="39.2698302" lon="0.8266482"><ele>0.0</ele><time>2026-04-29T20:50:40Z</time></trkpt><trkpt lat="39.2699016" lon="0.82671"><ele>0.0</ele><time>2026-04-29T20:50:41Z</time></trkpt><trkpt lat="39.2699764" lon="0.8267744"><ele>0.0</ele><time>2026-04-29T20:50:42Z</time></trkpt><trkpt lat="39.2700445" lon="0.8268304"><ele>0.0</ele><time>2026-04-29T20:50:43.001Z</time></trkpt><trkpt lat="39.2701154" lon="0.826893"><ele>0.0</ele><time>2026-04-29T20:50:44Z</time></trkpt><trkpt lat="39.2701857" lon="0.8269547"><ele>0.0</ele><time>2026-04-29T20:50:45Z</time></trkpt><trkpt lat="39.2702541" lon="0.8270229"><ele>0.0</ele><time>2026-04-29T20:50:46Z</time></trkpt><trkpt lat="39.270322" lon="0.8270883"><ele>0.0</ele><time>2026-04-29T20:50:47.001Z</time></trkpt><trkpt lat="39.2703931" lon="0.827153"><ele>0.0</ele><time>2026-04-29T20:50:48Z</time></trkpt><trkpt lat="39.2704649" lon="0.8272178"><ele>0.0</ele><time>2026-04-29T20:50:49Z</time></trkpt><trkpt lat="39.2705383" lon="0.8272817"><ele>0.0</ele><time>2026-04-29T20:50:50.001Z</time></trkpt><trkpt lat="39.2706097" lon="0.8273464"><ele>0.0</ele><time>2026-04-29T20:50:51.001Z</time></trkpt><trkpt lat="39.2706814" lon="0.8274114"><ele>0.0</ele><time>2026-04-29T20:50:52Z</time></trkpt><trkpt lat="39.2707562" lon="0.8274795"><ele>0.0</ele><time>2026-04-29T20:50:53.001Z</time></trkpt><trkpt lat="39.2708296" lon="0.8275424"><ele>0.0</ele><time>2026-04-29T20:50:54.001Z</time></trkpt><trkpt lat="39.2709031" lon="0.8276054"><ele>0.0</ele><time>2026-04-29T20:50:55Z</time></trkpt><trkpt lat="39.2709766" lon="0.8276657"><ele>0.0</ele><time>2026-04-29T20:50:56Z</time></trkpt><trkpt lat="39.2710512" lon="0.8277255"><ele>0.0</ele><time>2026-04-29T20:50:57Z</time></trkpt><trkpt lat="39.271125" lon="0.8277854"><ele>0.0</ele><time>2026-04-29T20:50:58.001Z</time></trkpt><trkpt lat="39.2711981" lon="0.8278466"><ele>0.0</ele><time>2026-04-29T20:50:59.001Z</time></trkpt><trkpt lat="39.2713451" lon="0.8279764"><ele>0.0</ele><time>2026-04-29T20:51:01Z</time></trkpt><trkpt lat="39.2714198" lon="0.8280398"><ele>0.0</ele><time>2026-04-29T20:51:02Z</time></trkpt><trkpt lat="39.2714919" lon="0.8281005"><ele>0.0</ele><time>2026-04-29T20:51:03Z</time></trkpt><trkpt lat="39.2715662" lon="0.8281616"><ele>0.0</ele><time>2026-04-29T20:51:04Z</time></trkpt><trkpt lat="39.2716385" lon="0.8282236"><ele>0.0</ele><time>2026-04-29T20:51:05Z</time></trkpt><trkpt lat="39.2717129" lon="0.8282825"><ele>0.0</ele><time>2026-04-29T20:51:06.001Z</time></trkpt><trkpt lat="39.2717867" lon="0.8283421"><ele>0.0</ele><time>2026-04-29T20:51:07.001Z</time></trkpt><trkpt lat="39.27186" lon="0.8283988"><ele>0.0</ele><time>2026-04-29T20:51:08Z</time></trkpt><trkpt lat="39.271932" lon="0.8284583"><ele>0.0</ele><time>2026-04-29T20:51:09.001Z</time></trkpt><trkpt lat="39.2720049" lon="0.8285156"><ele>0.0</ele><time>2026-04-29T20:51:10.001Z</time></trkpt><trkpt lat="39.2720769" lon="0.828575"><ele>0.0</ele><time>2026-04-29T20:51:11.001Z</time></trkpt><trkpt lat="39.2721488" lon="0.8286389"><ele>0.0</ele><time>2026-04-29T20:51:12.001Z</time></trkpt><trkpt lat="39.2722218" lon="0.8287043"><ele>0.0</ele><time>2026-04-29T20:51:13.001Z</time></trkpt><trkpt lat="39.2722952" lon="0.8287649"><ele>0.0</ele><time>2026-04-29T20:51:14Z</time></trkpt><trkpt lat="39.2723683" lon="0.828821"><ele>0.0</ele><time>2026-04-29T20:51:15Z</time></trkpt><trkpt lat="39.2724401" lon="0.8288788"><ele>0.0</ele><time>2026-04-29T20:51:16Z</time></trkpt><trkpt lat="39.2725144" lon="0.8289345"><ele>0.0</ele><time>2026-04-29T20:51:17Z</time></trkpt><trkpt lat="39.2725868" lon="0.8289951"><ele>0.0</ele><time>2026-04-29T20:51:18Z</time></trkpt><trkpt lat="39.2726597" lon="0.8290595"><ele>0.0</ele><time>2026-04-29T20:51:19.001Z</time></trkpt><trkpt lat="39.2727334" lon="0.8291224"><ele>0.0</ele><time>2026-04-29T20:51:20Z</time></trkpt><trkpt lat="39.2728784" lon="0.8292524"><ele>0.0</ele><time>2026-04-29T20:51:22.001Z</time></trkpt><trkpt lat="39.2729529" lon="0.8293147"><ele>0.0</ele><time>2026-04-29T20:51:23Z</time></trkpt><trkpt lat="39.2730252" lon="0.8293752"><ele>0.0</ele><time>2026-04-29T20:51:24Z</time></trkpt><trkpt lat="39.2730981" lon="0.8294414"><ele>0.0</ele><time>2026-04-29T20:51:25Z</time></trkpt><trkpt lat="39.2731715" lon="0.8295028"><ele>0.0</ele><time>2026-04-29T20:51:26.001Z</time></trkpt><trkpt lat="39.2732449" lon="0.8295634"><ele>0.0</ele><time>2026-04-29T20:51:27Z</time></trkpt><trkpt lat="39.2733201" lon="0.8296273"><ele>0.0</ele><time>2026-04-29T20:51:28Z</time></trkpt><trkpt lat="39.2733908" lon="0.829695"><ele>0.0</ele><time>2026-04-29T20:51:29Z</time></trkpt><trkpt lat="39.2734619" lon="0.8297593"><ele>0.0</ele><time>2026-04-29T20:51:30.001Z</time></trkpt><trkpt lat="39.2735322" lon="0.8298225"><ele>0.0</ele><time>2026-04-29T20:51:31Z</time></trkpt><trkpt lat="39.2736052" lon="0.8298842"><ele>0.0</ele><time>2026-04-29T20:51:32.001Z</time></trkpt><trkpt lat="39.273677" lon="0.8299447"><ele>0.0</ele><time>2026-04-29T20:51:33Z</time></trkpt><trkpt lat="39.27375" lon="0.8300076"><ele>0.0</ele><time>2026-04-29T20:51:34Z</time></trkpt><trkpt lat="39.2738219" lon="0.8300698"><ele>0.0</ele><time>2026-04-29T20:51:35.001Z</time></trkpt><trkpt lat="39.2738948" lon="0.8301315"><ele>0.0</ele><time>2026-04-29T20:51:36Z</time></trkpt><trkpt lat="39.2739683" lon="0.8301923"><ele>0.0</ele><time>2026-04-29T20:51:37.001Z</time></trkpt><trkpt lat="39.2740417" lon="0.830252"><ele>0.0</ele><time>2026-04-29T20:51:38.001Z</time></trkpt><trkpt lat="39.2741136" lon="0.8303102"><ele>0.0</ele><time>2026-04-29T20:51:39.001Z</time></trkpt><trkpt lat="39.2741855" lon="0.8303725"><ele>0.0</ele><time>2026-04-29T20:51:40.001Z</time></trkpt><trkpt lat="39.2742568" lon="0.8304322"><ele>0.0</ele><time>2026-04-29T20:51:41Z</time></trkpt><trkpt lat="39.2744698" lon="0.8306128"><ele>0.0</ele><time>2026-04-29T20:51:44.001Z</time></trkpt><trkpt lat="39.2745406" lon="0.8306806"><ele>0.0</ele><time>2026-04-29T20:51:45.001Z</time></trkpt><trkpt lat="39.2746118" lon="0.830745"><ele>0.0</ele><time>2026-04-29T20:51:46Z</time></trkpt><trkpt lat="39.274685" lon="0.8308077"><ele>0.0</ele><time>2026-04-29T20:51:47Z</time></trkpt><trkpt lat="39.2747567" lon="0.8308715"><ele>0.0</ele><time>2026-04-29T20:51:48Z</time></trkpt><trkpt lat="39.2748301" lon="0.8309404"><ele>0.0</ele><time>2026-04-29T20:51:49Z</time></trkpt><trkpt lat="39.2749019" lon="0.8310091"><ele>0.0</ele><time>2026-04-29T20:51:50Z</time></trkpt><trkpt lat="39.2749733" lon="0.8310786"><ele>0.0</ele><time>2026-04-29T20:51:51Z</time></trkpt><trkpt lat="39.2750453" lon="0.8311464"><ele>0.0</ele><time>2026-04-29T20:51:52Z</time></trkpt><trkpt lat="39.275114" lon="0.8312169"><ele>0.0</ele><time>2026-04-29T20:51:53Z</time></trkpt><trkpt lat="39.2751852" lon="0.8312814"><ele>0.0</ele><time>2026-04-29T20:51:54Z</time></trkpt><trkpt lat="39.2752554" lon="0.8313449"><ele>0.0</ele><time>2026-04-29T20:51:55Z</time></trkpt><trkpt lat="39.2753284" lon="0.8314038"><ele>0.0</ele><time>2026-04-29T20:51:56.001Z</time></trkpt><trkpt lat="39.2754002" lon="0.8314636"><ele>0.0</ele><time>2026-04-29T20:51:57Z</time></trkpt><trkpt lat="39.2754717" lon="0.8315237"><ele>0.0</ele><time>2026-04-29T20:51:58.001Z</time></trkpt><trkpt lat="39.2755418" lon="0.831577"><ele>0.0</ele><time>2026-04-29T20:51:59.001Z</time></trkpt><trkpt lat="39.2756177" lon="0.8316383"><ele>0.0</ele><time>2026-04-29T20:52:00Z</time></trkpt><trkpt lat="39.2756929" lon="0.83169"><ele>0.0</ele><time>2026-04-29T20:52:01Z</time></trkpt><trkpt lat="39.2757666" lon="0.8317523"><ele>0.0</ele><time>2026-04-29T20:52:02Z</time></trkpt><trkpt lat="39.275912" lon="0.8318836"><ele>0.0</ele><time>2026-04-29T20:52:04Z</time></trkpt><trkpt lat="39.2759818" lon="0.8319467"><ele>0.0</ele><time>2026-04-29T20:52:05Z</time></trkpt><trkpt lat="39.2760536" lon="0.8320094"><ele>0.0</ele><time>2026-04-29T20:52:06.001Z</time></trkpt><trkpt lat="39.2761267" lon="0.8320701"><ele>0.0</ele><time>2026-04-29T20:52:07.001Z</time></trkpt><trkpt lat="39.2761986" lon="0.8321299"><ele>0.0</ele><time>2026-04-29T20:52:08.001Z</time></trkpt><trkpt lat="39.2762717" lon="0.8321881"><ele>0.0</ele><time>2026-04-29T20:52:09Z</time></trkpt><trkpt lat="39.276345" lon="0.8322492"><ele>0.0</ele><time>2026-04-29T20:52:10Z</time></trkpt><trkpt lat="39.2764186" lon="0.8323096"><ele>0.0</ele><time>2026-04-29T20:52:11Z</time></trkpt><trkpt lat="39.2764917" lon="0.8323716"><ele>0.0</ele><time>2026-04-29T20:52:12.001Z</time></trkpt><trkpt lat="39.2765663" lon="0.8324332"><ele>0.0</ele><time>2026-04-29T20:52:13Z</time></trkpt><trkpt lat="39.2766381" lon="0.832502"><ele>0.0</ele><time>2026-04-29T20:52:14.001Z</time></trkpt><trkpt lat="39.2767085" lon="0.8325667"><ele>0.0</ele><time>2026-04-29T20:52:15Z</time></trkpt><trkpt lat="39.2767815" lon="0.8326302"><ele>0.0</ele><time>2026-04-29T20:52:16Z</time></trkpt><trkpt lat="39.276852" lon="0.8326933"><ele>0.0</ele><time>2026-04-29T20:52:17Z</time></trkpt><trkpt lat="39.276925" lon="0.8327493"><ele>0.0</ele><time>2026-04-29T20:52:18.001Z</time></trkpt><trkpt lat="39.2769971" lon="0.8328095"><ele>0.0</ele><time>2026-04-29T20:52:19Z</time></trkpt><trkpt lat="39.2770684" lon="0.8328731"><ele>0.0</ele><time>2026-04-29T20:52:20Z</time></trkpt><trkpt lat="39.277136" lon="0.8329377"><ele>0.0</ele><time>2026-04-29T20:52:21Z</time></trkpt><trkpt lat="39.2772055" lon="0.833"><ele>0.0</ele><time>2026-04-29T20:52:22Z</time></trkpt><trkpt lat="39.2772756" lon="0.8330631"><ele>0.0</ele><time>2026-04-29T20:52:23Z</time></trkpt><trkpt lat="39.277422" lon="0.8331802"><ele>0.0</ele><time>2026-04-29T20:52:25Z</time></trkpt><trkpt lat="39.2774965" lon="0.8332399"><ele>0.0</ele><time>2026-04-29T20:52:26Z</time></trkpt><trkpt lat="39.2775715" lon="0.8332982"><ele>0.0</ele><time>2026-04-29T20:52:27.001Z</time></trkpt><trkpt lat="39.2776477" lon="0.8333581"><ele>0.0</ele><time>2026-04-29T20:52:28.001Z</time></trkpt><trkpt lat="39.2777229" lon="0.8334196"><ele>0.0</ele><time>2026-04-29T20:52:29.001Z</time></trkpt><trkpt lat="39.2777981" lon="0.8334813"><ele>0.0</ele><time>2026-04-29T20:52:30Z</time></trkpt><trkpt lat="39.2778747" lon="0.8335413"><ele>0.0</ele><time>2026-04-29T20:52:31Z</time></trkpt><trkpt lat="39.2779484" lon="0.8336016"><ele>0.0</ele><time>2026-04-29T20:52:32.001Z</time></trkpt><trkpt lat="39.2780247" lon="0.8336599"><ele>0.0</ele><time>2026-04-29T20:52:33Z</time></trkpt><trkpt lat="39.2781014" lon="0.8337215"><ele>0.0</ele><time>2026-04-29T20:52:34Z</time></trkpt><trkpt lat="39.278178" lon="0.8337827"><ele>0.0</ele><time>2026-04-29T20:52:35.001Z</time></trkpt><trkpt lat="39.278249" lon="0.833845"><ele>0.0</ele><time>2026-04-29T20:52:36Z</time></trkpt><trkpt lat="39.2783188" lon="0.8339069"><ele>0.0</ele><time>2026-04-29T20:52:37.001Z</time></trkpt><trkpt lat="39.2783919" lon="0.833968"><ele>0.0</ele><time>2026-04-29T20:52:38.001Z</time></trkpt><trkpt lat="39.2784652" lon="0.8340282"><ele>0.0</ele><time>2026-04-29T20:52:39Z</time></trkpt><trkpt lat="39.2785383" lon="0.83409"><ele>0.0</ele><time>2026-04-29T20:52:40.001Z</time></trkpt><trkpt lat="39.2786118" lon="0.8341518"><ele>0.0</ele><time>2026-04-29T20:52:41.001Z</time></trkpt><trkpt lat="39.2786824" lon="0.8342244"><ele>0.0</ele><time>2026-04-29T20:52:42.001Z</time></trkpt><trkpt lat="39.2787549" lon="0.8342937"><ele>0.0</ele><time>2026-04-29T20:52:43Z</time></trkpt><trkpt lat="39.2788254" lon="0.8343581"><ele>0.0</ele><time>2026-04-29T20:52:44Z</time></trkpt><trkpt lat="39.2789714" lon="0.8344842"><ele>0.0</ele><time>2026-04-29T20:52:46Z</time></trkpt><trkpt lat="39.2790446" lon="0.8345494"><ele>0.0</ele><time>2026-04-29T20:52:47Z</time></trkpt><trkpt lat="39.2791171" lon="0.8346131"><ele>0.0</ele><time>2026-04-29T20:52:48Z</time></trkpt><trkpt lat="39.2791914" lon="0.8346749"><ele>0.0</ele><time>2026-04-29T20:52:49Z</time></trkpt><trkpt lat="39.2792636" lon="0.8347367"><ele>0.0</ele><time>2026-04-29T20:52:50Z</time></trkpt><trkpt lat="39.2793364" lon="0.8348012"><ele>0.0</ele><time>2026-04-29T20:52:51.001Z</time></trkpt><trkpt lat="39.2794085" lon="0.8348664"><ele>0.0</ele><time>2026-04-29T20:52:52.001Z</time></trkpt><trkpt lat="39.2794801" lon="0.8349317"><ele>0.0</ele><time>2026-04-29T20:52:53.001Z</time></trkpt><trkpt lat="39.2795516" lon="0.8349965"><ele>0.0</ele><time>2026-04-29T20:52:54Z</time></trkpt><trkpt lat="39.2796236" lon="0.8350583"><ele>0.0</ele><time>2026-04-29T20:52:55.001Z</time></trkpt><trkpt lat="39.2796887" lon="0.8351069"><ele>0.0</ele><time>2026-04-29T20:52:56Z</time></trkpt><trkpt lat="39.2797534" lon="0.835161"><ele>0.0</ele><time>2026-04-29T20:52:57.001Z</time></trkpt><trkpt lat="39.2798141" lon="0.8352043"><ele>0.0</ele><time>2026-04-29T20:52:58Z</time></trkpt><trkpt lat="39.2798898" lon="0.8352544"><ele>0.0</ele><time>2026-04-29T20:52:59Z</time></trkpt><trkpt lat="39.2799635" lon="0.8353104"><ele>0.0</ele><time>2026-04-29T20:53:00Z</time></trkpt><trkpt lat="39.2800355" lon="0.8353655"><ele>0.0</ele><time>2026-04-29T20:53:01.001Z</time></trkpt><trkpt lat="39.2801" lon="0.835418"><ele>0.0</ele><time>2026-04-29T20:53:02Z</time></trkpt><trkpt lat="39.2801759" lon="0.8354726"><ele>0.0</ele><time>2026-04-29T20:53:03.001Z</time></trkpt><trkpt lat="39.2802513" lon="0.8355317"><ele>0.0</ele><time>2026-04-29T20:53:04Z</time></trkpt><trkpt lat="39.2803208" lon="0.8355902"><ele>0.0</ele><time>2026-04-29T20:53:05.001Z</time></trkpt><trkpt lat="39.2804649" lon="0.8357148"><ele>0.0</ele><time>2026-04-29T20:53:07.001Z</time></trkpt><trkpt lat="39.2805352" lon="0.8357753"><ele>0.0</ele><time>2026-04-29T20:53:08.001Z</time></trkpt><trkpt lat="39.2806053" lon="0.8358389"><ele>0.0</ele><time>2026-04-29T20:53:09.001Z</time></trkpt><trkpt lat="39.2806796" lon="0.8359041"><ele>0.0</ele><time>2026-04-29T20:53:10.001Z</time></trkpt><trkpt lat="39.2807505" lon="0.835969"><ele>0.0</ele><time>2026-04-29T20:53:11Z</time></trkpt><trkpt lat="39.2808202" lon="0.8360357"><ele>0.0</ele><time>2026-04-29T20:53:12.001Z</time></trkpt><trkpt lat="39.28089" lon="0.8360984"><ele>0.0</ele><time>2026-04-29T20:53:13Z</time></trkpt><trkpt lat="39.2809647" lon="0.8361611"><ele>0.0</ele><time>2026-04-29T20:53:14.001Z</time></trkpt><trkpt lat="39.2810354" lon="0.8362231"><ele>0.0</ele><time>2026-04-29T20:53:15Z</time></trkpt><trkpt lat="39.281107" lon="0.8362881"><ele>0.0</ele><time>2026-04-29T20:53:16.001Z</time></trkpt><trkpt lat="39.2811771" lon="0.8363459"><ele>0.0</ele><time>2026-04-29T20:53:17Z</time></trkpt><trkpt lat="39.2812416" lon="0.8363955"><ele>0.0</ele><time>2026-04-29T20:53:18.001Z</time></trkpt><trkpt lat="39.281315" lon="0.8364254"><ele>0.0</ele><time>2026-04-29T20:53:19Z</time></trkpt><trkpt lat="39.2813965" lon="0.8364748"><ele>0.0</ele><time>2026-04-29T20:53:20.001Z</time></trkpt><trkpt lat="39.2814726" lon="0.8365347"><ele>0.0</ele><time>2026-04-29T20:53:21.001Z</time></trkpt><trkpt lat="39.281545" lon="0.8365983"><ele>0.0</ele><time>2026-04-29T20:53:22Z</time></trkpt><trkpt lat="39.2816182" lon="0.8366683"><ele>0.0</ele><time>2026-04-29T20:53:23.001Z</time></trkpt><trkpt lat="39.2816914" lon="0.8367329"><ele>0.0</ele><time>2026-04-29T20:53:24Z</time></trkpt><trkpt lat="39.2817634" lon="0.836799"><ele>0.0</ele><time>2026-04-29T20:53:25Z</time></trkpt><trkpt lat="39.2818351" lon="0.8368645"><ele>0.0</ele><time>2026-04-29T20:53:26Z</time></trkpt><trkpt lat="39.2819812" lon="0.8369926"><ele>0.0</ele><time>2026-04-29T20:53:28Z</time></trkpt><trkpt lat="39.2820547" lon="0.8370565"><ele>0.0</ele><time>2026-04-29T20:53:29.001Z</time></trkpt><trkpt lat="39.2821279" lon="0.8371212"><ele>0.0</ele><time>2026-04-29T20:53:30.001Z</time></trkpt><trkpt lat="39.2822015" lon="0.8371863"><ele>0.0</ele><time>2026-04-29T20:53:31.001Z</time></trkpt><trkpt lat="39.2822749" lon="0.8372514"><ele>0.0</ele><time>2026-04-29T20:53:32.001Z</time></trkpt><trkpt lat="39.2823495" lon="0.8373152"><ele>0.0</ele><time>2026-04-29T20:53:33.001Z</time></trkpt><trkpt lat="39.282423" lon="0.8373797"><ele>0.0</ele><time>2026-04-29T20:53:34.001Z</time></trkpt><trkpt lat="39.2824978" lon="0.837446"><ele>0.0</ele><time>2026-04-29T20:53:35Z</time></trkpt><trkpt lat="39.2825672" lon="0.8375267"><ele>0.0</ele><time>2026-04-29T20:53:36Z</time></trkpt><trkpt lat="39.2826429" lon="0.8375964"><ele>0.0</ele><time>2026-04-29T20:53:36.999Z</time></trkpt><trkpt lat="39.2827168" lon="0.8376655"><ele>0.0</ele><time>2026-04-29T20:53:37.999Z</time></trkpt><trkpt lat="39.2827884" lon="0.837734"><ele>0.0</ele><time>2026-04-29T20:53:38.999Z</time></trkpt><trkpt lat="39.2828589" lon="0.8378021"><ele>0.0</ele><time>2026-04-29T20:53:39.999Z</time></trkpt><trkpt lat="39.2829301" lon="0.8378695"><ele>0.0</ele><time>2026-04-29T20:53:40.999Z</time></trkpt><trkpt lat="39.2829989" lon="0.8379349"><ele>0.0</ele><time>2026-04-29T20:53:41.999Z</time></trkpt><trkpt lat="39.2830717" lon="0.8380012"><ele>0.0</ele><time>2026-04-29T20:53:43Z</time></trkpt><trkpt lat="39.2831435" lon="0.8380635"><ele>0.0</ele><time>2026-04-29T20:53:43.999Z</time></trkpt><trkpt lat="39.2832153" lon="0.8381254"><ele>0.0</ele><time>2026-04-29T20:53:45Z</time></trkpt><trkpt lat="39.2832898" lon="0.8381842"><ele>0.0</ele><time>2026-04-29T20:53:46Z</time></trkpt><trkpt lat="39.2833621" lon="0.8382452"><ele>0.0</ele><time>2026-04-29T20:53:46.999Z</time></trkpt><trkpt lat="39.2835094" lon="0.8383642"><ele>0.0</ele><time>2026-04-29T20:53:48.999Z</time></trkpt><trkpt lat="39.2835834" lon="0.8384238"><ele>0.0</ele><time>2026-04-29T20:53:49.999Z</time></trkpt><trkpt lat="39.2836538" lon="0.8384823"><ele>0.0</ele><time>2026-04-29T20:53:50.999Z</time></trkpt><trkpt lat="39.2837294" lon="0.8385345"><ele>0.0</ele><time>2026-04-29T20:53:51.999Z</time></trkpt><trkpt lat="39.2838074" lon="0.8385839"><ele>0.0</ele><time>2026-04-29T20:53:52.999Z</time></trkpt><trkpt lat="39.2838858" lon="0.8386394"><ele>0.0</ele><time>2026-04-29T20:53:54Z</time></trkpt><trkpt lat="39.2839609" lon="0.8386932"><ele>0.0</ele><time>2026-04-29T20:53:55Z</time></trkpt><trkpt lat="39.2840292" lon="0.8387549"><ele>0.0</ele><time>2026-04-29T20:53:55.999Z</time></trkpt><trkpt lat="39.2841002" lon="0.8388151"><ele>0.0</ele><time>2026-04-29T20:53:56.999Z</time></trkpt><trkpt lat="39.284176" lon="0.8388736"><ele>0.0</ele><time>2026-04-29T20:53:58Z</time></trkpt><trkpt lat="39.28425" lon="0.8389333"><ele>0.0</ele><time>2026-04-29T20:53:58.999Z</time></trkpt><trkpt lat="39.2843191" lon="0.8389957"><ele>0.0</ele><time>2026-04-29T20:54:00Z</time></trkpt><trkpt lat="39.284386" lon="0.8390594"><ele>0.0</ele><time>2026-04-29T20:54:01Z</time></trkpt><trkpt lat="39.2844584" lon="0.8391197"><ele>0.0</ele><time>2026-04-29T20:54:02Z</time></trkpt><trkpt lat="39.2845305" lon="0.8391769"><ele>0.0</ele><time>2026-04-29T20:54:03Z</time></trkpt><trkpt lat="39.2846033" lon="0.839232"><ele>0.0</ele><time>2026-04-29T20:54:03.999Z</time></trkpt><trkpt lat="39.2846768" lon="0.8392899"><ele>0.0</ele><time>2026-04-29T20:54:04.999Z</time></trkpt><trkpt lat="39.2847516" lon="0.8393468"><ele>0.0</ele><time>2026-04-29T20:54:06Z</time></trkpt><trkpt lat="39.2848237" lon="0.8394046"><ele>0.0</ele><time>2026-04-29T20:54:07Z</time></trkpt><trkpt lat="39.2849638" lon="0.8395268"><ele>0.0</ele><time>2026-04-29T20:54:08.999Z</time></trkpt><trkpt lat="39.2850336" lon="0.8395884"><ele>0.0</ele><time>2026-04-29T20:54:10Z</time></trkpt><trkpt lat="39.2851023" lon="0.8396544"><ele>0.0</ele><time>2026-04-29T20:54:11Z</time></trkpt><trkpt lat="39.2851736" lon="0.8397182"><ele>0.0</ele><time>2026-04-29T20:54:12Z</time></trkpt><trkpt lat="39.2852479" lon="0.839777"><ele>0.0</ele><time>2026-04-29T20:54:12.999Z</time></trkpt><trkpt lat="39.2853203" lon="0.8398353"><ele>0.0</ele><time>2026-04-29T20:54:14Z</time></trkpt><trkpt lat="39.2853876" lon="0.8398924"><ele>0.0</ele><time>2026-04-29T20:54:14.999Z</time></trkpt><trkpt lat="39.2854567" lon="0.8399546"><ele>0.0</ele><time>2026-04-29T20:54:15.999Z</time></trkpt><trkpt lat="39.2855267" lon="0.8400165"><ele>0.0</ele><time>2026-04-29T20:54:17Z</time></trkpt><trkpt lat="39.285601" lon="0.8400829"><ele>0.0</ele><time>2026-04-29T20:54:18Z</time></trkpt><trkpt lat="39.2856675" lon="0.8401513"><ele>0.0</ele><time>2026-04-29T20:54:19Z</time></trkpt><trkpt lat="39.2857381" lon="0.8402184"><ele>0.0</ele><time>2026-04-29T20:54:20Z</time></trkpt><trkpt lat="39.2858097" lon="0.8402775"><ele>0.0</ele><time>2026-04-29T20:54:20.999Z</time></trkpt><trkpt lat="39.2858843" lon="0.8403483"><ele>0.0</ele><time>2026-04-29T20:54:21.999Z</time></trkpt><trkpt lat="39.2859608" lon="0.8404129"><ele>0.0</ele><time>2026-04-29T20:54:23Z</time></trkpt><trkpt lat="39.2860331" lon="0.840475"><ele>0.0</ele><time>2026-04-29T20:54:23.999Z</time></trkpt><trkpt lat="39.2861077" lon="0.8405399"><ele>0.0</ele><time>2026-04-29T20:54:25Z</time></trkpt><trkpt lat="39.286184" lon="0.840602"><ele>0.0</ele><time>2026-04-29T20:54:26Z</time></trkpt><trkpt lat="39.2862576" lon="0.8406664"><ele>0.0</ele><time>2026-04-29T20:54:26.999Z</time></trkpt><trkpt lat="39.2863282" lon="0.8407327"><ele>0.0</ele><time>2026-04-29T20:54:27.999Z</time></trkpt><trkpt lat="39.2864748" lon="0.8408661"><ele>0.0</ele><time>2026-04-29T20:54:29.999Z</time></trkpt><trkpt lat="39.2865457" lon="0.8409313"><ele>0.0</ele><time>2026-04-29T20:54:30.999Z</time></trkpt><trkpt lat="39.2866152" lon="0.8409982"><ele>0.0</ele><time>2026-04-29T20:54:32Z</time></trkpt><trkpt lat="39.2866854" lon="0.841062"><ele>0.0</ele><time>2026-04-29T20:54:33Z</time></trkpt><trkpt lat="39.2867553" lon="0.8411253"><ele>0.0</ele><time>2026-04-29T20:54:33.999Z</time></trkpt><trkpt lat="39.2868213" lon="0.8411796"><ele>0.0</ele><time>2026-04-29T20:54:34.999Z</time></trkpt><trkpt lat="39.2868948" lon="0.8412457"><ele>0.0</ele><time>2026-04-29T20:54:35.999Z</time></trkpt><trkpt lat="39.2869727" lon="0.8413108"><ele>0.0</ele><time>2026-04-29T20:54:37Z</time></trkpt><trkpt lat="39.2870437" lon="0.8413735"><ele>0.0</ele><time>2026-04-29T20:54:37.999Z</time></trkpt><trkpt lat="39.2871153" lon="0.8414353"><ele>0.0</ele><time>2026-04-29T20:54:39Z</time></trkpt><trkpt lat="39.2871852" lon="0.8415017"><ele>0.0</ele><time>2026-04-29T20:54:39.999Z</time></trkpt><trkpt lat="39.2872613" lon="0.8415617"><ele>0.0</ele><time>2026-04-29T20:54:40.999Z</time></trkpt><trkpt lat="39.2873352" lon="0.8416204"><ele>0.0</ele><time>2026-04-29T20:54:42Z</time></trkpt><trkpt lat="39.2874054" lon="0.8416774"><ele>0.0</ele><time>2026-04-29T20:54:42.999Z</time></trkpt><trkpt lat="39.2874781" lon="0.8417301"><ele>0.0</ele><time>2026-04-29T20:54:44Z</time></trkpt><trkpt lat="39.2875472" lon="0.8417946"><ele>0.0</ele><time>2026-04-29T20:54:45Z</time></trkpt><trkpt lat="39.2876256" lon="0.8418611"><ele>0.0</ele><time>2026-04-29T20:54:46Z</time></trkpt><trkpt lat="39.2876981" lon="0.8419237"><ele>0.0</ele><time>2026-04-29T20:54:46.999Z</time></trkpt><trkpt lat="39.2877715" lon="0.8419867"><ele>0.0</ele><time>2026-04-29T20:54:47.999Z</time></trkpt><trkpt lat="39.2878464" lon="0.8420466"><ele>0.0</ele><time>2026-04-29T20:54:48.999Z</time></trkpt><trkpt lat="39.2879918" lon="0.8421712"><ele>0.0</ele><time>2026-04-29T20:54:51Z</time></trkpt><trkpt lat="39.2880621" lon="0.8422346"><ele>0.0</ele><time>2026-04-29T20:54:51.999Z</time></trkpt><trkpt lat="39.2881333" lon="0.842298"><ele>0.0</ele><time>2026-04-29T20:54:52.999Z</time></trkpt><trkpt lat="39.2882066" lon="0.8423584"><ele>0.0</ele><time>2026-04-29T20:54:53.999Z</time></trkpt><trkpt lat="39.2882786" lon="0.8424257"><ele>0.0</ele><time>2026-04-29T20:54:55Z</time></trkpt><trkpt lat="39.2883502" lon="0.8424898"><ele>0.0</ele><time>2026-04-29T20:54:56Z</time></trkpt><trkpt lat="39.2884218" lon="0.8425561"><ele>0.0</ele><time>2026-04-29T20:54:56.999Z</time></trkpt><trkpt lat="39.2884964" lon="0.8426196"><ele>0.0</ele><time>2026-04-29T20:54:58Z</time></trkpt><trkpt lat="39.2885683" lon="0.842686"><ele>0.0</ele><time>2026-04-29T20:54:59Z</time></trkpt><trkpt lat="39.2886385" lon="0.8427515"><ele>0.0</ele><time>2026-04-29T20:55:00Z</time></trkpt><trkpt lat="39.2887114" lon="0.842818"><ele>0.0</ele><time>2026-04-29T20:55:01Z</time></trkpt><trkpt lat="39.2887833" lon="0.8428833"><ele>0.0</ele><time>2026-04-29T20:55:02Z</time></trkpt><trkpt lat="39.2888551" lon="0.8429509"><ele>0.0</ele><time>2026-04-29T20:55:02.999Z</time></trkpt><trkpt lat="39.2889265" lon="0.8430149"><ele>0.0</ele><time>2026-04-29T20:55:04Z</time></trkpt><trkpt lat="39.288997" lon="0.8430824"><ele>0.0</ele><time>2026-04-29T20:55:05Z</time></trkpt><trkpt lat="39.2890671" lon="0.8431507"><ele>0.0</ele><time>2026-04-29T20:55:05.999Z</time></trkpt><trkpt lat="39.2891373" lon="0.8432238"><ele>0.0</ele><time>2026-04-29T20:55:06.999Z</time></trkpt><trkpt lat="39.2892086" lon="0.8432882"><ele>0.0</ele><time>2026-04-29T20:55:08Z</time></trkpt><trkpt lat="39.2892803" lon="0.8433545"><ele>0.0</ele><time>2026-04-29T20:55:09Z</time></trkpt><trkpt lat="39.2893506" lon="0.8434138"><ele>0.0</ele><time>2026-04-29T20:55:09.999Z</time></trkpt><trkpt lat="39.2894908" lon="0.8435414"><ele>0.0</ele><time>2026-04-29T20:55:11.999Z</time></trkpt><trkpt lat="39.2895603" lon="0.8436048"><ele>0.0</ele><time>2026-04-29T20:55:13Z</time></trkpt><trkpt lat="39.2896247" lon="0.8436854"><ele>0.0</ele><time>2026-04-29T20:55:13.999Z</time></trkpt><trkpt lat="39.2896979" lon="0.8437545"><ele>0.0</ele><time>2026-04-29T20:55:14.999Z</time></trkpt><trkpt lat="39.2897681" lon="0.8438231"><ele>0.0</ele><time>2026-04-29T20:55:15.999Z</time></trkpt><trkpt lat="39.2898357" lon="0.8438872"><ele>0.0</ele><time>2026-04-29T20:55:17Z</time></trkpt><trkpt lat="39.2899039" lon="0.8439492"><ele>0.0</ele><time>2026-04-29T20:55:17.999Z</time></trkpt><trkpt lat="39.2899734" lon="0.8440153"><ele>0.0</ele><time>2026-04-29T20:55:19Z</time></trkpt><trkpt lat="39.2900434" lon="0.8440789"><ele>0.0</ele><time>2026-04-29T20:55:19.999Z</time></trkpt><trkpt lat="39.2901177" lon="0.8441408"><ele>0.0</ele><time>2026-04-29T20:55:20.999Z</time></trkpt><trkpt lat="39.2901931" lon="0.8441991"><ele>0.0</ele><time>2026-04-29T20:55:21.999Z</time></trkpt><trkpt lat="39.2902653" lon="0.8442629"><ele>0.0</ele><time>2026-04-29T20:55:22.999Z</time></trkpt><trkpt lat="39.2903385" lon="0.8443251"><ele>0.0</ele><time>2026-04-29T20:55:24Z</time></trkpt><trkpt lat="39.2904102" lon="0.8443886"><ele>0.0</ele><time>2026-04-29T20:55:25Z</time></trkpt><trkpt lat="39.2904821" lon="0.844447"><ele>0.0</ele><time>2026-04-29T20:55:26Z</time></trkpt><trkpt lat="39.2905504" lon="0.8445105"><ele>0.0</ele><time>2026-04-29T20:55:27Z</time></trkpt><trkpt lat="39.2906217" lon="0.8445704"><ele>0.0</ele><time>2026-04-29T20:55:28Z</time></trkpt><trkpt lat="39.2906972" lon="0.8446278"><ele>0.0</ele><time>2026-04-29T20:55:28.999Z</time></trkpt><trkpt lat="39.2907714" lon="0.8446859"><ele>0.0</ele><time>2026-04-29T20:55:29.999Z</time></trkpt><trkpt lat="39.2909241" lon="0.8448065"><ele>0.0</ele><time>2026-04-29T20:55:31.999Z</time></trkpt><trkpt lat="39.2909968" lon="0.8448655"><ele>0.0</ele><time>2026-04-29T20:55:32.999Z</time></trkpt><trkpt lat="39.2910698" lon="0.8449223"><ele>0.0</ele><time>2026-04-29T20:55:33.999Z</time></trkpt><trkpt lat="39.2911403" lon="0.8449836"><ele>0.0</ele><time>2026-04-29T20:55:35Z</time></trkpt><trkpt lat="39.2912131" lon="0.8450448"><ele>0.0</ele><time>2026-04-29T20:55:36Z</time></trkpt><trkpt lat="39.2912835" lon="0.8451096"><ele>0.0</ele><time>2026-04-29T20:55:36.999Z</time></trkpt><trkpt lat="39.2913534" lon="0.8451737"><ele>0.0</ele><time>2026-04-29T20:55:38Z</time></trkpt><trkpt lat="39.2914278" lon="0.8452126"><ele>0.0</ele><time>2026-04-29T20:55:38.999Z</time></trkpt><trkpt lat="39.2915028" lon="0.8452691"><ele>0.0</ele><time>2026-04-29T20:55:39.999Z</time></trkpt><trkpt lat="39.2915766" lon="0.8453287"><ele>0.0</ele><time>2026-04-29T20:55:41Z</time></trkpt><trkpt lat="39.2916513" lon="0.8453885"><ele>0.0</ele><time>2026-04-29T20:55:42Z</time></trkpt><trkpt lat="39.2917208" lon="0.8454455"><ele>0.0</ele><time>2026-04-29T20:55:43Z</time></trkpt><trkpt lat="39.2917889" lon="0.8455078"><ele>0.0</ele><time>2026-04-29T20:55:44Z</time></trkpt><trkpt lat="39.2918585" lon="0.8455684"><ele>0.0</ele><time>2026-04-29T20:55:44.999Z</time></trkpt><trkpt lat="39.29193" lon="0.8456301"><ele>0.0</ele><time>2026-04-29T20:55:45.999Z</time></trkpt><trkpt lat="39.2919987" lon="0.8456903"><ele>0.0</ele><time>2026-04-29T20:55:47Z</time></trkpt><trkpt lat="39.2920701" lon="0.8457529"><ele>0.0</ele><time>2026-04-29T20:55:48Z</time></trkpt><trkpt lat="39.2921275" lon="0.8457967"><ele>0.0</ele><time>2026-04-29T20:55:48.999Z</time></trkpt><trkpt lat="39.2921926" lon="0.8458512"><ele>0.0</ele><time>2026-04-29T20:55:49.999Z</time></trkpt><trkpt lat="39.2922678" lon="0.8459086"><ele>0.0</ele><time>2026-04-29T20:55:50.999Z</time></trkpt><trkpt lat="39.2924132" lon="0.8460311"><ele>0.0</ele><time>2026-04-29T20:55:52.999Z</time></trkpt><trkpt lat="39.2924851" lon="0.8460931"><ele>0.0</ele><time>2026-04-29T20:55:53.999Z</time></trkpt><trkpt lat="39.2925524" lon="0.8461547"><ele>0.0</ele><time>2026-04-29T20:55:54.999Z</time></trkpt><trkpt lat="39.2926246" lon="0.8462179"><ele>0.0</ele><time>2026-04-29T20:55:55.999Z</time></trkpt><trkpt lat="39.2926991" lon="0.8463082"><ele>0.0</ele><time>2026-04-29T20:55:56.999Z</time></trkpt><trkpt lat="39.2927702" lon="0.8463801"><ele>0.0</ele><time>2026-04-29T20:55:57.999Z</time></trkpt><trkpt lat="39.2928417" lon="0.846445"><ele>0.0</ele><time>2026-04-29T20:55:58.999Z</time></trkpt><trkpt lat="39.2929204" lon="0.8464984"><ele>0.0</ele><time>2026-04-29T20:56:00Z</time></trkpt><trkpt lat="39.2929974" lon="0.8465574"><ele>0.0</ele><time>2026-04-29T20:56:01Z</time></trkpt><trkpt lat="39.2930683" lon="0.8466241"><ele>0.0</ele><time>2026-04-29T20:56:02Z</time></trkpt><trkpt lat="39.2931413" lon="0.8466894"><ele>0.0</ele><time>2026-04-29T20:56:03Z</time></trkpt><trkpt lat="39.2932177" lon="0.8467512"><ele>0.0</ele><time>2026-04-29T20:56:03.999Z</time></trkpt><trkpt lat="39.2932946" lon="0.8468098"><ele>0.0</ele><time>2026-04-29T20:56:05Z</time></trkpt><trkpt lat="39.2933684" lon="0.8468711"><ele>0.0</ele><time>2026-04-29T20:56:05.999Z</time></trkpt><trkpt lat="39.2934386" lon="0.8469333"><ele>0.0</ele><time>2026-04-29T20:56:06.999Z</time></trkpt><trkpt lat="39.2935074" lon="0.8469921"><ele>0.0</ele><time>2026-04-29T20:56:08Z</time></trkpt><trkpt lat="39.293577" lon="0.847052"><ele>0.0</ele><time>2026-04-29T20:56:09Z</time></trkpt><trkpt lat="39.2936469" lon="0.8471204"><ele>0.0</ele><time>2026-04-29T20:56:10Z</time></trkpt><trkpt lat="39.2937174" lon="0.8471829"><ele>0.0</ele><time>2026-04-29T20:56:10.999Z</time></trkpt><trkpt lat="39.2938618" lon="0.8473169"><ele>0.0</ele><time>2026-04-29T20:56:12.999Z</time></trkpt><trkpt lat="39.2939318" lon="0.8473938"><ele>0.0</ele><time>2026-04-29T20:56:13.999Z</time></trkpt><trkpt lat="39.2940034" lon="0.8474553"><ele>0.0</ele><time>2026-04-29T20:56:14.999Z</time></trkpt><trkpt lat="39.294075" lon="0.8475211"><ele>0.0</ele><time>2026-04-29T20:56:15.999Z</time></trkpt><trkpt lat="39.2941455" lon="0.84758"><ele>0.0</ele><time>2026-04-29T20:56:17Z</time></trkpt><trkpt lat="39.2942153" lon="0.8476418"><ele>0.0</ele><time>2026-04-29T20:56:17.999Z</time></trkpt><trkpt lat="39.2942882" lon="0.847699"><ele>0.0</ele><time>2026-04-29T20:56:18.999Z</time></trkpt><trkpt lat="39.294363" lon="0.8477555"><ele>0.0</ele><time>2026-04-29T20:56:19.999Z</time></trkpt><trkpt lat="39.2944379" lon="0.8478206"><ele>0.0</ele><time>2026-04-29T20:56:21Z</time></trkpt><trkpt lat="39.2945086" lon="0.8478858"><ele>0.0</ele><time>2026-04-29T20:56:21.999Z</time></trkpt><trkpt lat="39.2945828" lon="0.8479482"><ele>0.0</ele><time>2026-04-29T20:56:22.999Z</time></trkpt><trkpt lat="39.2946563" lon="0.8480072"><ele>0.0</ele><time>2026-04-29T20:56:24Z</time></trkpt><trkpt lat="39.2947301" lon="0.8480636"><ele>0.0</ele><time>2026-04-29T20:56:24.999Z</time></trkpt><trkpt lat="39.2948078" lon="0.8481227"><ele>0.0</ele><time>2026-04-29T20:56:25.999Z</time></trkpt><trkpt lat="39.2948777" lon="0.8481798"><ele>0.0</ele><time>2026-04-29T20:56:26.999Z</time></trkpt><trkpt lat="39.2949504" lon="0.8482351"><ele>0.0</ele><time>2026-04-29T20:56:28Z</time></trkpt><trkpt lat="39.2950223" lon="0.8482955"><ele>0.0</ele><time>2026-04-29T20:56:29Z</time></trkpt><trkpt lat="39.2950952" lon="0.8483519"><ele>0.0</ele><time>2026-04-29T20:56:29.999Z</time></trkpt><trkpt lat="39.2951725" lon="0.8484002"><ele>0.0</ele><time>2026-04-29T20:56:30.999Z</time></trkpt><trkpt lat="39.2952466" lon="0.8484539"><ele>0.0</ele><time>2026-04-29T20:56:32Z</time></trkpt><trkpt lat="39.2953906" lon="0.8485665"><ele>0.0</ele><time>2026-04-29T20:56:34Z</time></trkpt><trkpt lat="39.2954594" lon="0.8486273"><ele>0.0</ele><time>2026-04-29T20:56:34.999Z</time></trkpt><trkpt lat="39.2955277" lon="0.8486765"><ele>0.0</ele><time>2026-04-29T20:56:35.999Z</time></trkpt><trkpt lat="39.2955973" lon="0.8487139"><ele>0.0</ele><time>2026-04-29T20:56:37Z</time></trkpt><trkpt lat="39.2956674" lon="0.8487727"><ele>0.0</ele><time>2026-04-29T20:56:37.999Z</time></trkpt><trkpt lat="39.2957357" lon="0.8488355"><ele>0.0</ele><time>2026-04-29T20:56:38.999Z</time></trkpt><trkpt lat="39.2958068" lon="0.8488962"><ele>0.0</ele><time>2026-04-29T20:56:40Z</time></trkpt><trkpt lat="39.295881" lon="0.8489585"><ele>0.0</ele><time>2026-04-29T20:56:41Z</time></trkpt><trkpt lat="39.2959549" lon="0.8490201"><ele>0.0</ele><time>2026-04-29T20:56:42Z</time></trkpt><trkpt lat="39.296028" lon="0.8490831"><ele>0.0</ele><time>2026-04-29T20:56:42.999Z</time></trkpt><trkpt lat="39.2961041" lon="0.8491534"><ele>0.0</ele><time>2026-04-29T20:56:44Z</time></trkpt><trkpt lat="39.2961778" lon="0.8492136"><ele>0.0</ele><time>2026-04-29T20:56:44.999Z</time></trkpt><trkpt lat="39.2962501" lon="0.8492735"><ele>0.0</ele><time>2026-04-29T20:56:46Z</time></trkpt><trkpt lat="39.2963217" lon="0.8493414"><ele>0.0</ele><time>2026-04-29T20:56:47Z</time></trkpt><trkpt lat="39.2963992" lon="0.84941"><ele>0.0</ele><time>2026-04-29T20:56:47.999Z</time></trkpt><trkpt lat="39.2964703" lon="0.8494927"><ele>0.0</ele><time>2026-04-29T20:56:48.999Z</time></trkpt><trkpt lat="39.2965432" lon="0.8495593"><ele>0.0</ele><time>2026-04-29T20:56:50Z</time></trkpt><trkpt lat="39.2966165" lon="0.8496203"><ele>0.0</ele><time>2026-04-29T20:56:50.999Z</time></trkpt><trkpt lat="39.2966915" lon="0.8496814"><ele>0.0</ele><time>2026-04-29T20:56:51.999Z</time></trkpt><trkpt lat="39.2967581" lon="0.8497321"><ele>0.0</ele><time>2026-04-29T20:56:52.999Z</time></trkpt><trkpt lat="39.296905" lon="0.8498347"><ele>0.0</ele><time>2026-04-29T20:56:54.999Z</time></trkpt><trkpt lat="39.2969753" lon="0.8498922"><ele>0.0</ele><time>2026-04-29T20:56:55.999Z</time></trkpt><trkpt lat="39.2970468" lon="0.8499535"><ele>0.0</ele><time>2026-04-29T20:56:57Z</time></trkpt><trkpt lat="39.2971226" lon="0.8500033"><ele>0.0</ele><time>2026-04-29T20:56:58Z</time></trkpt><trkpt lat="39.2972005" lon="0.850069"><ele>0.0</ele><time>2026-04-29T20:56:58.999Z</time></trkpt><trkpt lat="39.297279" lon="0.8501399"><ele>0.0</ele><time>2026-04-29T20:57:00Z</time></trkpt><trkpt lat="39.2973559" lon="0.8502082"><ele>0.0</ele><time>2026-04-29T20:57:01Z</time></trkpt><trkpt lat="39.2974244" lon="0.8503063"><ele>0.0</ele><time>2026-04-29T20:57:01.999Z</time></trkpt><trkpt lat="39.2974927" lon="0.8503796"><ele>0.0</ele><time>2026-04-29T20:57:02.999Z</time></trkpt><trkpt lat="39.2975578" lon="0.8504476"><ele>0.0</ele><time>2026-04-29T20:57:03.999Z</time></trkpt><trkpt lat="39.2976244" lon="0.8505087"><ele>0.0</ele><time>2026-04-29T20:57:04.999Z</time></trkpt><trkpt lat="39.2976911" lon="0.8505742"><ele>0.0</ele><time>2026-04-29T20:57:05.999Z</time></trkpt><trkpt lat="39.2977616" lon="0.8506396"><ele>0.0</ele><time>2026-04-29T20:57:06.999Z</time></trkpt><trkpt lat="39.2978323" lon="0.8507003"><ele>0.0</ele><time>2026-04-29T20:57:08Z</time></trkpt><trkpt lat="39.2979007" lon="0.8507704"><ele>0.0</ele><time>2026-04-29T20:57:09Z</time></trkpt><trkpt lat="39.2979719" lon="0.8508347"><ele>0.0</ele><time>2026-04-29T20:57:09.999Z</time></trkpt><trkpt lat="39.2980467" lon="0.8508947"><ele>0.0</ele><time>2026-04-29T20:57:10.999Z</time></trkpt><trkpt lat="39.2981187" lon="0.8509592"><ele>0.0</ele><time>2026-04-29T20:57:11.999Z</time></trkpt><trkpt lat="39.2981887" lon="0.8510242"><ele>0.0</ele><time>2026-04-29T20:57:12.999Z</time></trkpt><trkpt lat="39.2982589" lon="0.8510893"><ele>0.0</ele><time>2026-04-29T20:57:13.999Z</time></trkpt><trkpt lat="39.2984015" lon="0.8512208"><ele>0.0</ele><time>2026-04-29T20:57:16Z</time></trkpt><trkpt lat="39.2984751" lon="0.8512826"><ele>0.0</ele><time>2026-04-29T20:57:17Z</time></trkpt><trkpt lat="39.2985469" lon="0.8513456"><ele>0.0</ele><time>2026-04-29T20:57:17.999Z</time></trkpt><trkpt lat="39.29862" lon="0.8514032"><ele>0.0</ele><time>2026-04-29T20:57:19Z</time></trkpt><trkpt lat="39.2986936" lon="0.8514645"><ele>0.0</ele><time>2026-04-29T20:57:20Z</time></trkpt><trkpt lat="39.2987639" lon="0.8515276"><ele>0.0</ele><time>2026-04-29T20:57:21Z</time></trkpt><trkpt lat="39.2988352" lon="0.8515883"><ele>0.0</ele><time>2026-04-29T20:57:21.999Z</time></trkpt><trkpt lat="39.2989049" lon="0.8516529"><ele>0.0</ele><time>2026-04-29T20:57:23Z</time></trkpt><trkpt lat="39.298975" lon="0.8517195"><ele>0.0</ele><time>2026-04-29T20:57:23.999Z</time></trkpt><trkpt lat="39.2990435" lon="0.8517864"><ele>0.0</ele><time>2026-04-29T20:57:24.999Z</time></trkpt><trkpt lat="39.2991136" lon="0.8518527"><ele>0.0</ele><time>2026-04-29T20:57:25.999Z</time></trkpt><trkpt lat="39.2991863" lon="0.8519194"><ele>0.0</ele><time>2026-04-29T20:57:26.999Z</time></trkpt><trkpt lat="39.2992553" lon="0.851996"><ele>0.0</ele><time>2026-04-29T20:57:27.999Z</time></trkpt><trkpt lat="39.299325" lon="0.8520662"><ele>0.0</ele><time>2026-04-29T20:57:28.999Z</time></trkpt><trkpt lat="39.2993938" lon="0.8521316"><ele>0.0</ele><time>2026-04-29T20:57:30Z</time></trkpt><trkpt lat="39.2994676" lon="0.852195"><ele>0.0</ele><time>2026-04-29T20:57:31Z</time></trkpt><trkpt lat="39.2995412" lon="0.8522609"><ele>0.0</ele><time>2026-04-29T20:57:32Z</time></trkpt><trkpt lat="39.2996145" lon="0.852332"><ele>0.0</ele><time>2026-04-29T20:57:32.999Z</time></trkpt><trkpt lat="39.2996868" lon="0.8523993"><ele>0.0</ele><time>2026-04-29T20:57:33.999Z</time></trkpt><trkpt lat="39.2997572" lon="0.8524675"><ele>0.0</ele><time>2026-04-29T20:57:35Z</time></trkpt><trkpt lat="39.2998979" lon="0.8526186"><ele>0.0</ele><time>2026-04-29T20:57:37Z</time></trkpt><trkpt lat="39.2999713" lon="0.8526879"><ele>0.0</ele><time>2026-04-29T20:57:37.999Z</time></trkpt><trkpt lat="39.300039" lon="0.8527578"><ele>0.0</ele><time>2026-04-29T20:57:39Z</time></trkpt><trkpt lat="39.3001101" lon="0.852825"><ele>0.0</ele><time>2026-04-29T20:57:39.999Z</time></trkpt><trkpt lat="39.3001801" lon="0.8528898"><ele>0.0</ele><time>2026-04-29T20:57:40.999Z</time></trkpt><trkpt lat="39.3002518" lon="0.8529516"><ele>0.0</ele><time>2026-04-29T20:57:42Z</time></trkpt><trkpt lat="39.3003233" lon="0.8530167"><ele>0.0</ele><time>2026-04-29T20:57:42.999Z</time></trkpt><trkpt lat="39.3003935" lon="0.8530847"><ele>0.0</ele><time>2026-04-29T20:57:44Z</time></trkpt><trkpt lat="39.3004649" lon="0.8531502"><ele>0.0</ele><time>2026-04-29T20:57:45Z</time></trkpt><trkpt lat="39.3005338" lon="0.8532126"><ele>0.0</ele><time>2026-04-29T20:57:45.998Z</time></trkpt><trkpt lat="39.3006048" lon="0.8532769"><ele>0.0</ele><time>2026-04-29T20:57:46.998Z</time></trkpt><trkpt lat="39.3006751" lon="0.8533345"><ele>0.0</ele><time>2026-04-29T20:57:47.998Z</time></trkpt><trkpt lat="39.3007493" lon="0.8533758"><ele>0.0</ele><time>2026-04-29T20:57:48.998Z</time></trkpt><trkpt lat="39.3008204" lon="0.8534453"><ele>0.0</ele><time>2026-04-29T20:57:49.999Z</time></trkpt><trkpt lat="39.3008932" lon="0.8535154"><ele>0.0</ele><time>2026-04-29T20:57:50.998Z</time></trkpt><trkpt lat="39.3009689" lon="0.8535812"><ele>0.0</ele><time>2026-04-29T20:57:51.998Z</time></trkpt><trkpt lat="39.3010505" lon="0.8536375"><ele>0.0</ele><time>2026-04-29T20:57:52.999Z</time></trkpt><trkpt lat="39.3011232" lon="0.8536955"><ele>0.0</ele><time>2026-04-29T20:57:53.998Z</time></trkpt><trkpt lat="39.3011951" lon="0.8537528"><ele>0.0</ele><time>2026-04-29T20:57:54.998Z</time></trkpt><trkpt lat="39.3012584" lon="0.8538053"><ele>0.0</ele><time>2026-04-29T20:57:55.998Z</time></trkpt><trkpt lat="39.3013979" lon="0.8539137"><ele>0.0</ele><time>2026-04-29T20:57:57.998Z</time></trkpt><trkpt lat="39.301474" lon="0.85396"><ele>0.0</ele><time>2026-04-29T20:57:58.998Z</time></trkpt><trkpt lat="39.3015462" lon="0.854012"><ele>0.0</ele><time>2026-04-29T20:57:59.998Z</time></trkpt><trkpt lat="39.3016195" lon="0.8540751"><ele>0.0</ele><time>2026-04-29T20:58:00.999Z</time></trkpt><trkpt lat="39.3016944" lon="0.8541453"><ele>0.0</ele><time>2026-04-29T20:58:01.999Z</time></trkpt><trkpt lat="39.3017636" lon="0.8542057"><ele>0.0</ele><time>2026-04-29T20:58:02.999Z</time></trkpt><trkpt lat="39.3018295" lon="0.854268"><ele>0.0</ele><time>2026-04-29T20:58:03.999Z</time></trkpt><trkpt lat="39.3018974" lon="0.8543315"><ele>0.0</ele><time>2026-04-29T20:58:04.999Z</time></trkpt><trkpt lat="39.3019643" lon="0.8544019"><ele>0.0</ele><time>2026-04-29T20:58:05.998Z</time></trkpt><trkpt lat="39.3020336" lon="0.8544634"><ele>0.0</ele><time>2026-04-29T20:58:06.999Z</time></trkpt><trkpt lat="39.3021092" lon="0.8545251"><ele>0.0</ele><time>2026-04-29T20:58:07.998Z</time></trkpt><trkpt lat="39.3021715" lon="0.8545743"><ele>0.0</ele><time>2026-04-29T20:58:08.998Z</time></trkpt><trkpt lat="39.3022404" lon="0.8546307"><ele>0.0</ele><time>2026-04-29T20:58:09.998Z</time></trkpt><trkpt lat="39.3023117" lon="0.8546876"><ele>0.0</ele><time>2026-04-29T20:58:10.998Z</time></trkpt><trkpt lat="39.3023836" lon="0.8547436"><ele>0.0</ele><time>2026-04-29T20:58:11.998Z</time></trkpt><trkpt lat="39.3024503" lon="0.8548077"><ele>0.0</ele><time>2026-04-29T20:58:12.999Z</time></trkpt><trkpt lat="39.3025287" lon="0.8548739"><ele>0.0</ele><time>2026-04-29T20:58:13.998Z</time></trkpt><trkpt lat="39.3026015" lon="0.8549321"><ele>0.0</ele><time>2026-04-29T20:58:14.999Z</time></trkpt><trkpt lat="39.3026718" lon="0.8549902"><ele>0.0</ele><time>2026-04-29T20:58:15.998Z</time></trkpt><trkpt lat="39.3027448" lon="0.8550497"><ele>0.0</ele><time>2026-04-29T20:58:16.999Z</time></trkpt><trkpt lat="39.3028931" lon="0.8551745"><ele>0.0</ele><time>2026-04-29T20:58:18.999Z</time></trkpt><trkpt lat="39.3029668" lon="0.8552363"><ele>0.0</ele><time>2026-04-29T20:58:19.998Z</time></trkpt><trkpt lat="39.3030415" lon="0.8552983"><ele>0.0</ele><time>2026-04-29T20:58:20.999Z</time></trkpt><trkpt lat="39.303115" lon="0.8553628"><ele>0.0</ele><time>2026-04-29T20:58:21.999Z</time></trkpt><trkpt lat="39.3031895" lon="0.8554278"><ele>0.0</ele><time>2026-04-29T20:58:22.998Z</time></trkpt><trkpt lat="39.3032617" lon="0.8554912"><ele>0.0</ele><time>2026-04-29T20:58:23.999Z</time></trkpt><trkpt lat="39.3033334" lon="0.8555531"><ele>0.0</ele><time>2026-04-29T20:58:24.999Z</time></trkpt><trkpt lat="39.3034077" lon="0.8556192"><ele>0.0</ele><time>2026-04-29T20:58:25.999Z</time></trkpt><trkpt lat="39.3034816" lon="0.8556844"><ele>0.0</ele><time>2026-04-29T20:58:26.999Z</time></trkpt><trkpt lat="39.3035564" lon="0.8557494"><ele>0.0</ele><time>2026-04-29T20:58:27.999Z</time></trkpt><trkpt lat="39.3036284" lon="0.8558161"><ele>0.0</ele><time>2026-04-29T20:58:28.998Z</time></trkpt><trkpt lat="39.3037001" lon="0.8558785"><ele>0.0</ele><time>2026-04-29T20:58:29.999Z</time></trkpt><trkpt lat="39.3037717" lon="0.8559391"><ele>0.0</ele><time>2026-04-29T20:58:30.999Z</time></trkpt><trkpt lat="39.3038374" lon="0.8559982"><ele>0.0</ele><time>2026-04-29T20:58:31.998Z</time></trkpt><trkpt lat="39.3039096" lon="0.8560518"><ele>0.0</ele><time>2026-04-29T20:58:32.998Z</time></trkpt><trkpt lat="39.3039818" lon="0.8561031"><ele>0.0</ele><time>2026-04-29T20:58:33.998Z</time></trkpt><trkpt lat="39.3040619" lon="0.8561522"><ele>0.0</ele><time>2026-04-29T20:58:34.998Z</time></trkpt><trkpt lat="39.3041362" lon="0.8562107"><ele>0.0</ele><time>2026-04-29T20:58:35.998Z</time></trkpt><trkpt lat="39.3042083" lon="0.8562729"><ele>0.0</ele><time>2026-04-29T20:58:36.998Z</time></trkpt><trkpt lat="39.3042815" lon="0.856332"><ele>0.0</ele><time>2026-04-29T20:58:37.999Z</time></trkpt><trkpt lat="39.3044276" lon="0.856474"><ele>0.0</ele><time>2026-04-29T20:58:39.998Z</time></trkpt><trkpt lat="39.3045014" lon="0.8565494"><ele>0.0</ele><time>2026-04-29T20:58:40.998Z</time></trkpt><trkpt lat="39.304572" lon="0.8566188"><ele>0.0</ele><time>2026-04-29T20:58:41.998Z</time></trkpt><trkpt lat="39.3046466" lon="0.8566872"><ele>0.0</ele><time>2026-04-29T20:58:42.998Z</time></trkpt><trkpt lat="39.3047201" lon="0.8567527"><ele>0.0</ele><time>2026-04-29T20:58:43.999Z</time></trkpt><trkpt lat="39.3047976" lon="0.856797"><ele>0.0</ele><time>2026-04-29T20:58:44.999Z</time></trkpt><trkpt lat="39.3048658" lon="0.85686"><ele>0.0</ele><time>2026-04-29T20:58:45.998Z</time></trkpt><trkpt lat="39.3049355" lon="0.8569219"><ele>0.0</ele><time>2026-04-29T20:58:46.998Z</time></trkpt><trkpt lat="39.3050095" lon="0.8569852"><ele>0.0</ele><time>2026-04-29T20:58:47.998Z</time></trkpt><trkpt lat="39.3050874" lon="0.8570498"><ele>0.0</ele><time>2026-04-29T20:58:48.999Z</time></trkpt><trkpt lat="39.3051599" lon="0.857109"><ele>0.0</ele><time>2026-04-29T20:58:49.999Z</time></trkpt><trkpt lat="39.3052287" lon="0.8571663"><ele>0.0</ele><time>2026-04-29T20:58:50.998Z</time></trkpt><trkpt lat="39.3053061" lon="0.8572284"><ele>0.0</ele><time>2026-04-29T20:58:51.998Z</time></trkpt><trkpt lat="39.3053816" lon="0.8572913"><ele>0.0</ele><time>2026-04-29T20:58:52.998Z</time></trkpt><trkpt lat="39.3054547" lon="0.8573593"><ele>0.0</ele><time>2026-04-29T20:58:53.998Z</time></trkpt><trkpt lat="39.3055309" lon="0.8574108"><ele>0.0</ele><time>2026-04-29T20:58:54.998Z</time></trkpt><trkpt lat="39.305599" lon="0.857472"><ele>0.0</ele><time>2026-04-29T20:58:55.998Z</time></trkpt><trkpt lat="39.3056675" lon="0.8575347"><ele>0.0</ele><time>2026-04-29T20:58:56.998Z</time></trkpt><trkpt lat="39.3057357" lon="0.8575996"><ele>0.0</ele><time>2026-04-29T20:58:57.999Z</time></trkpt><trkpt lat="39.3058011" lon="0.8576719"><ele>0.0</ele><time>2026-04-29T20:58:58.998Z</time></trkpt><trkpt lat="39.3059432" lon="0.8578042"><ele>0.0</ele><time>2026-04-29T20:59:00.998Z</time></trkpt><trkpt lat="39.3060152" lon="0.8578669"><ele>0.0</ele><time>2026-04-29T20:59:01.999Z</time></trkpt><trkpt lat="39.3060867" lon="0.8579316"><ele>0.0</ele><time>2026-04-29T20:59:02.999Z</time></trkpt><trkpt lat="39.3061583" lon="0.8579935"><ele>0.0</ele><time>2026-04-29T20:59:03.998Z</time></trkpt><trkpt lat="39.3062285" lon="0.858052"><ele>0.0</ele><time>2026-04-29T20:59:04.999Z</time></trkpt><trkpt lat="39.3062958" lon="0.8581237"><ele>0.0</ele><time>2026-04-29T20:59:05.999Z</time></trkpt><trkpt lat="39.306368" lon="0.858192"><ele>0.0</ele><time>2026-04-29T20:59:06.999Z</time></trkpt><trkpt lat="39.30644" lon="0.8582606"><ele>0.0</ele><time>2026-04-29T20:59:07.998Z</time></trkpt><trkpt lat="39.3065132" lon="0.8583347"><ele>0.0</ele><time>2026-04-29T20:59:08.999Z</time></trkpt><trkpt lat="39.3065866" lon="0.8584025"><ele>0.0</ele><time>2026-04-29T20:59:09.998Z</time></trkpt><trkpt lat="39.3066585" lon="0.8584694"><ele>0.0</ele><time>2026-04-29T20:59:10.998Z</time></trkpt><trkpt lat="39.3067258" lon="0.8585388"><ele>0.0</ele><time>2026-04-29T20:59:11.999Z</time></trkpt><trkpt lat="39.3067968" lon="0.8586089"><ele>0.0</ele><time>2026-04-29T20:59:12.998Z</time></trkpt><trkpt lat="39.3068698" lon="0.8586661"><ele>0.0</ele><time>2026-04-29T20:59:13.999Z</time></trkpt><trkpt lat="39.3069415" lon="0.8587346"><ele>0.0</ele><time>2026-04-29T20:59:14.999Z</time></trkpt><trkpt lat="39.3070152" lon="0.8588165"><ele>0.0</ele><time>2026-04-29T20:59:15.998Z</time></trkpt><trkpt lat="39.3070913" lon="0.8588745"><ele>0.0</ele><time>2026-04-29T20:59:16.998Z</time></trkpt><trkpt lat="39.3071607" lon="0.8589369"><ele>0.0</ele><time>2026-04-29T20:59:17.998Z</time></trkpt><trkpt lat="39.3072291" lon="0.8590043"><ele>0.0</ele><time>2026-04-29T20:59:18.999Z</time></trkpt><trkpt lat="39.3073015" lon="0.8590641"><ele>0.0</ele><time>2026-04-29T20:59:19.999Z</time></trkpt><trkpt lat="39.3074404" lon="0.8591822"><ele>0.0</ele><time>2026-04-29T20:59:21.998Z</time></trkpt><trkpt lat="39.3075091" lon="0.859249"><ele>0.0</ele><time>2026-04-29T20:59:22.998Z</time></trkpt><trkpt lat="39.3075773" lon="0.8593204"><ele>0.0</ele><time>2026-04-29T20:59:23.998Z</time></trkpt><trkpt lat="39.307647" lon="0.8593865"><ele>0.0</ele><time>2026-04-29T20:59:24.999Z</time></trkpt><trkpt lat="39.307717" lon="0.8594544"><ele>0.0</ele><time>2026-04-29T20:59:25.998Z</time></trkpt><trkpt lat="39.307787" lon="0.8595227"><ele>0.0</ele><time>2026-04-29T20:59:26.998Z</time></trkpt><trkpt lat="39.3078584" lon="0.8595755"><ele>0.0</ele><time>2026-04-29T20:59:27.999Z</time></trkpt><trkpt lat="39.3079372" lon="0.8596215"><ele>0.0</ele><time>2026-04-29T20:59:28.998Z</time></trkpt><trkpt lat="39.3080171" lon="0.8596763"><ele>0.0</ele><time>2026-04-29T20:59:29.998Z</time></trkpt><trkpt lat="39.3080885" lon="0.8597339"><ele>0.0</ele><time>2026-04-29T20:59:30.999Z</time></trkpt><trkpt lat="39.3081617" lon="0.859769"><ele>0.0</ele><time>2026-04-29T20:59:31.998Z</time></trkpt><trkpt lat="39.3082322" lon="0.8598266"><ele>0.0</ele><time>2026-04-29T20:59:32.998Z</time></trkpt><trkpt lat="39.3083035" lon="0.8598864"><ele>0.0</ele><time>2026-04-29T20:59:33.999Z</time></trkpt><trkpt lat="39.3083708" lon="0.8599526"><ele>0.0</ele><time>2026-04-29T20:59:34.998Z</time></trkpt><trkpt lat="39.3084388" lon="0.8600163"><ele>0.0</ele><time>2026-04-29T20:59:35.999Z</time></trkpt><trkpt lat="39.3085126" lon="0.8600799"><ele>0.0</ele><time>2026-04-29T20:59:36.998Z</time></trkpt><trkpt lat="39.3085849" lon="0.8601428"><ele>0.0</ele><time>2026-04-29T20:59:37.998Z</time></trkpt><trkpt lat="39.3086582" lon="0.8602094"><ele>0.0</ele><time>2026-04-29T20:59:38.999Z</time></trkpt><trkpt lat="39.3087284" lon="0.8602747"><ele>0.0</ele><time>2026-04-29T20:59:39.998Z</time></trkpt><trkpt lat="39.3087998" lon="0.8603394"><ele>0.0</ele><time>2026-04-29T20:59:40.998Z</time></trkpt><trkpt lat="39.3089471" lon="0.8605082"><ele>0.0</ele><time>2026-04-29T20:59:42.999Z</time></trkpt><trkpt lat="39.3090116" lon="0.8605854"><ele>0.0</ele><time>2026-04-29T20:59:43.999Z</time></trkpt><trkpt lat="39.3090792" lon="0.8606582"><ele>0.0</ele><time>2026-04-29T20:59:44.998Z</time></trkpt><trkpt lat="39.3091533" lon="0.8607152"><ele>0.0</ele><time>2026-04-29T20:59:45.998Z</time></trkpt><trkpt lat="39.3092294" lon="0.8607695"><ele>0.0</ele><time>2026-04-29T20:59:46.999Z</time></trkpt><trkpt lat="39.3093076" lon="0.8608124"><ele>0.0</ele><time>2026-04-29T20:59:47.998Z</time></trkpt><trkpt lat="39.309383" lon="0.8608699"><ele>0.0</ele><time>2026-04-29T20:59:48.999Z</time></trkpt><trkpt lat="39.3094607" lon="0.8609343"><ele>0.0</ele><time>2026-04-29T20:59:49.999Z</time></trkpt><trkpt lat="39.3095378" lon="0.8609964"><ele>0.0</ele><time>2026-04-29T20:59:50.999Z</time></trkpt><trkpt lat="39.3096116" lon="0.8610554"><ele>0.0</ele><time>2026-04-29T20:59:51.998Z</time></trkpt><trkpt lat="39.3096804" lon="0.8611214"><ele>0.0</ele><time>2026-04-29T20:59:52.999Z</time></trkpt><trkpt lat="39.3097519" lon="0.86118"><ele>0.0</ele><time>2026-04-29T20:59:53.999Z</time></trkpt><trkpt lat="39.3098206" lon="0.8612358"><ele>0.0</ele><time>2026-04-29T20:59:54.999Z</time></trkpt><trkpt lat="39.3098905" lon="0.8612823"><ele>0.0</ele><time>2026-04-29T20:59:55.998Z</time></trkpt><trkpt lat="39.3099603" lon="0.8613376"><ele>0.0</ele><time>2026-04-29T20:59:56.998Z</time></trkpt><trkpt lat="39.310039" lon="0.8613822"><ele>0.0</ele><time>2026-04-29T20:59:57.999Z</time></trkpt><trkpt lat="39.3101131" lon="0.8614359"><ele>0.0</ele><time>2026-04-29T20:59:58.999Z</time></trkpt><trkpt lat="39.3101939" lon="0.8614794"><ele>0.0</ele><time>2026-04-29T20:59:59.999Z</time></trkpt><trkpt lat="39.3102636" lon="0.8615357"><ele>0.0</ele><time>2026-04-29T21:00:00.999Z</time></trkpt><trkpt lat="39.3103383" lon="0.8615927"><ele>0.0</ele><time>2026-04-29T21:00:01.998Z</time></trkpt><trkpt lat="39.3104925" lon="0.8617194"><ele>0.0</ele><time>2026-04-29T21:00:03.998Z</time></trkpt><trkpt lat="39.3105681" lon="0.8617835"><ele>0.0</ele><time>2026-04-29T21:00:04.998Z</time></trkpt><trkpt lat="39.3106361" lon="0.8618472"><ele>0.0</ele><time>2026-04-29T21:00:05.998Z</time></trkpt><trkpt lat="39.310707" lon="0.8619093"><ele>0.0</ele><time>2026-04-29T21:00:06.999Z</time></trkpt><trkpt lat="39.3107783" lon="0.8619769"><ele>0.0</ele><time>2026-04-29T21:00:07.998Z</time></trkpt><trkpt lat="39.3108529" lon="0.8620273"><ele>0.0</ele><time>2026-04-29T21:00:08.998Z</time></trkpt><trkpt lat="39.3109254" lon="0.862082"><ele>0.0</ele><time>2026-04-29T21:00:09.998Z</time></trkpt><trkpt lat="39.3109944" lon="0.8621344"><ele>0.0</ele><time>2026-04-29T21:00:10.998Z</time></trkpt><trkpt lat="39.3110726" lon="0.8621822"><ele>0.0</ele><time>2026-04-29T21:00:11.999Z</time></trkpt><trkpt lat="39.3111493" lon="0.8622455"><ele>0.0</ele><time>2026-04-29T21:00:12.998Z</time></trkpt><trkpt lat="39.3112249" lon="0.8623048"><ele>0.0</ele><time>2026-04-29T21:00:13.999Z</time></trkpt><trkpt lat="39.3112965" lon="0.8623606"><ele>0.0</ele><time>2026-04-29T21:00:14.998Z</time></trkpt><trkpt lat="39.3113669" lon="0.8624173"><ele>0.0</ele><time>2026-04-29T21:00:15.998Z</time></trkpt><trkpt lat="39.311434" lon="0.8624809"><ele>0.0</ele><time>2026-04-29T21:00:16.999Z</time></trkpt><trkpt lat="39.3115039" lon="0.8625305"><ele>0.0</ele><time>2026-04-29T21:00:17.999Z</time></trkpt><trkpt lat="39.311571" lon="0.8625916"><ele>0.0</ele><time>2026-04-29T21:00:18.998Z</time></trkpt><trkpt lat="39.3116349" lon="0.8626571"><ele>0.0</ele><time>2026-04-29T21:00:19.998Z</time></trkpt><trkpt lat="39.3117068" lon="0.8627221"><ele>0.0</ele><time>2026-04-29T21:00:20.998Z</time></trkpt><trkpt lat="39.3117783" lon="0.8627846"><ele>0.0</ele><time>2026-04-29T21:00:21.998Z</time></trkpt><trkpt lat="39.3118457" lon="0.8628473"><ele>0.0</ele><time>2026-04-29T21:00:22.998Z</time></trkpt><trkpt lat="39.311989" lon="0.8629773"><ele>0.0</ele><time>2026-04-29T21:00:24.998Z</time></trkpt><trkpt lat="39.3120559" lon="0.8630393"><ele>0.0</ele><time>2026-04-29T21:00:25.999Z</time></trkpt><trkpt lat="39.31213" lon="0.8631016"><ele>0.0</ele><time>2026-04-29T21:00:26.999Z</time></trkpt><trkpt lat="39.3122076" lon="0.8631598"><ele>0.0</ele><time>2026-04-29T21:00:27.998Z</time></trkpt><trkpt lat="39.3122829" lon="0.8632156"><ele>0.0</ele><time>2026-04-29T21:00:28.998Z</time></trkpt><trkpt lat="39.3123609" lon="0.8632746"><ele>0.0</ele><time>2026-04-29T21:00:29.999Z</time></trkpt><trkpt lat="39.3124379" lon="0.8633329"><ele>0.0</ele><time>2026-04-29T21:00:30.999Z</time></trkpt><trkpt lat="39.3125104" lon="0.8633926"><ele>0.0</ele><time>2026-04-29T21:00:31.998Z</time></trkpt><trkpt lat="39.3125777" lon="0.8634569"><ele>0.0</ele><time>2026-04-29T21:00:32.999Z</time></trkpt><trkpt lat="39.3126517" lon="0.8635219"><ele>0.0</ele><time>2026-04-29T21:00:33.999Z</time></trkpt><trkpt lat="39.3127208" lon="0.8636319"><ele>0.0</ele><time>2026-04-29T21:00:34.999Z</time></trkpt><trkpt lat="39.3127921" lon="0.8637018"><ele>0.0</ele><time>2026-04-29T21:00:35.999Z</time></trkpt><trkpt lat="39.3128652" lon="0.8637518"><ele>0.0</ele><time>2026-04-29T21:00:36.999Z</time></trkpt><trkpt lat="39.3129425" lon="0.8637964"><ele>0.0</ele><time>2026-04-29T21:00:37.998Z</time></trkpt><trkpt lat="39.3130121" lon="0.8638668"><ele>0.0</ele><time>2026-04-29T21:00:38.998Z</time></trkpt><trkpt lat="39.3130832" lon="0.8639287"><ele>0.0</ele><time>2026-04-29T21:00:39.999Z</time></trkpt><trkpt lat="39.3131522" lon="0.8639877"><ele>0.0</ele><time>2026-04-29T21:00:40.999Z</time></trkpt><trkpt lat="39.3132207" lon="0.8640473"><ele>0.0</ele><time>2026-04-29T21:00:41.999Z</time></trkpt><trkpt lat="39.313362" lon="0.8641664"><ele>0.0</ele><time>2026-04-29T21:00:43.999Z</time></trkpt><trkpt lat="39.3135094" lon="0.8642868"><ele>0.0</ele><time>2026-04-29T21:00:45.999Z</time></trkpt><trkpt lat="39.3135932" lon="0.8643555"><ele>0.0</ele><time>2026-04-29T21:00:46.998Z</time></trkpt><trkpt lat="39.3136665" lon="0.8644225"><ele>0.0</ele><time>2026-04-29T21:00:47.998Z</time></trkpt><trkpt lat="39.3137371" lon="0.8644912"><ele>0.0</ele><time>2026-04-29T21:00:48.998Z</time></trkpt><trkpt lat="39.3138086" lon="0.8645501"><ele>0.0</ele><time>2026-04-29T21:00:49.998Z</time></trkpt><trkpt lat="39.3138804" lon="0.8646138"><ele>0.0</ele><time>2026-04-29T21:00:50.998Z</time></trkpt><trkpt lat="39.3139502" lon="0.8646778"><ele>0.0</ele><time>2026-04-29T21:00:51.999Z</time></trkpt><trkpt lat="39.3140189" lon="0.8647383"><ele>0.0</ele><time>2026-04-29T21:00:52.999Z</time></trkpt><trkpt lat="39.3140903" lon="0.8648"><ele>0.0</ele><time>2026-04-29T21:00:53.999Z</time></trkpt><trkpt lat="39.3141634" lon="0.8648588"><ele>0.0</ele><time>2026-04-29T21:00:54.999Z</time></trkpt><trkpt lat="39.3142354" lon="0.864924"><ele>0.0</ele><time>2026-04-29T21:00:55.998Z</time></trkpt><trkpt lat="39.3143113" lon="0.8649893"><ele>0.0</ele><time>2026-04-29T21:00:56.999Z</time></trkpt><trkpt lat="39.3143863" lon="0.8650504"><ele>0.0</ele><time>2026-04-29T21:00:57.999Z</time></trkpt><trkpt lat="39.3144628" lon="0.8651072"><ele>0.0</ele><time>2026-04-29T21:00:58.998Z</time></trkpt><trkpt lat="39.3145408" lon="0.8651712"><ele>0.0</ele><time>2026-04-29T21:00:59.998Z</time></trkpt><trkpt lat="39.3146134" lon="0.8652332"><ele>0.0</ele><time>2026-04-29T21:01:00.998Z</time></trkpt><trkpt lat="39.3146867" lon="0.8652907"><ele>0.0</ele><time>2026-04-29T21:01:01.999Z</time></trkpt><trkpt lat="39.3147583" lon="0.8653428"><ele>0.0</ele><time>2026-04-29T21:01:02.998Z</time></trkpt><trkpt lat="39.314837" lon="0.8653966"><ele>0.0</ele><time>2026-04-29T21:01:03.998Z</time></trkpt><trkpt lat="39.31491" lon="0.8654497"><ele>0.0</ele><time>2026-04-29T21:01:04.998Z</time></trkpt><trkpt lat="39.315057" lon="0.865571"><ele>0.0</ele><time>2026-04-29T21:01:06.998Z</time></trkpt><trkpt lat="39.3151273" lon="0.8656244"><ele>0.0</ele><time>2026-04-29T21:01:07.998Z</time></trkpt><trkpt lat="39.3151975" lon="0.865686"><ele>0.0</ele><time>2026-04-29T21:01:08.999Z</time></trkpt><trkpt lat="39.3152686" lon="0.8657464"><ele>0.0</ele><time>2026-04-29T21:01:09.998Z</time></trkpt><trkpt lat="39.3153417" lon="0.865804"><ele>0.0</ele><time>2026-04-29T21:01:10.999Z</time></trkpt><trkpt lat="39.315412" lon="0.8658734"><ele>0.0</ele><time>2026-04-29T21:01:11.999Z</time></trkpt><trkpt lat="39.3154827" lon="0.8659416"><ele>0.0</ele><time>2026-04-29T21:01:12.998Z</time></trkpt><trkpt lat="39.3155505" lon="0.8660054"><ele>0.0</ele><time>2026-04-29T21:01:13.998Z</time></trkpt><trkpt lat="39.3156229" lon="0.8660547"><ele>0.0</ele><time>2026-04-29T21:01:14.998Z</time></trkpt><trkpt lat="39.3156922" lon="0.8661196"><ele>0.0</ele><time>2026-04-29T21:01:15.998Z</time></trkpt><trkpt lat="39.3157649" lon="0.8661854"><ele>0.0</ele><time>2026-04-29T21:01:16.999Z</time></trkpt><trkpt lat="39.315834" lon="0.8662494"><ele>0.0</ele><time>2026-04-29T21:01:17.998Z</time></trkpt><trkpt lat="39.3159063" lon="0.8663086"><ele>0.0</ele><time>2026-04-29T21:01:18.999Z</time></trkpt><trkpt lat="39.3159823" lon="0.8663588"><ele>0.0</ele><time>2026-04-29T21:01:19.999Z</time></trkpt><trkpt lat="39.316059" lon="0.8664247"><ele>0.0</ele><time>2026-04-29T21:01:20.998Z</time></trkpt><trkpt lat="39.3161328" lon="0.8664884"><ele>0.0</ele><time>2026-04-29T21:01:21.998Z</time></trkpt><trkpt lat="39.3162063" lon="0.8665519"><ele>0.0</ele><time>2026-04-29T21:01:22.998Z</time></trkpt><trkpt lat="39.3162809" lon="0.8666179"><ele>0.0</ele><time>2026-04-29T21:01:23.998Z</time></trkpt><trkpt lat="39.3163519" lon="0.8666829"><ele>0.0</ele><time>2026-04-29T21:01:24.999Z</time></trkpt><trkpt lat="39.3164222" lon="0.8667505"><ele>0.0</ele><time>2026-04-29T21:01:25.999Z</time></trkpt><trkpt lat="39.3165629" lon="0.8668858"><ele>0.0</ele><time>2026-04-29T21:01:27.998Z</time></trkpt><trkpt lat="39.3166407" lon="0.8669513"><ele>0.0</ele><time>2026-04-29T21:01:28.998Z</time></trkpt><trkpt lat="39.3167117" lon="0.867014"><ele>0.0</ele><time>2026-04-29T21:01:29.998Z</time></trkpt><trkpt lat="39.3167846" lon="0.867074"><ele>0.0</ele><time>2026-04-29T21:01:30.999Z</time></trkpt><trkpt lat="39.3168567" lon="0.8671209"><ele>0.0</ele><time>2026-04-29T21:01:31.999Z</time></trkpt><trkpt lat="39.3169255" lon="0.8671759"><ele>0.0</ele><time>2026-04-29T21:01:32.998Z</time></trkpt><trkpt lat="39.3169929" lon="0.8672281"><ele>0.0</ele><time>2026-04-29T21:01:33.998Z</time></trkpt><trkpt lat="39.3170709" lon="0.8672826"><ele>0.0</ele><time>2026-04-29T21:01:34.999Z</time></trkpt><trkpt lat="39.3171496" lon="0.8673372"><ele>0.0</ele><time>2026-04-29T21:01:35.998Z</time></trkpt><trkpt lat="39.3172197" lon="0.8674013"><ele>0.0</ele><time>2026-04-29T21:01:36.998Z</time></trkpt><trkpt lat="39.3172988" lon="0.8674737"><ele>0.0</ele><time>2026-04-29T21:01:37.998Z</time></trkpt><trkpt lat="39.3173776" lon="0.8675402"><ele>0.0</ele><time>2026-04-29T21:01:38.998Z</time></trkpt><trkpt lat="39.3174404" lon="0.8676307"><ele>0.0</ele><time>2026-04-29T21:01:39.998Z</time></trkpt><trkpt lat="39.3175023" lon="0.8677059"><ele>0.0</ele><time>2026-04-29T21:01:40.998Z</time></trkpt><trkpt lat="39.317568" lon="0.8677822"><ele>0.0</ele><time>2026-04-29T21:01:41.998Z</time></trkpt><trkpt lat="39.3176332" lon="0.8678575"><ele>0.0</ele><time>2026-04-29T21:01:42.998Z</time></trkpt><trkpt lat="39.3177136" lon="0.867931"><ele>0.0</ele><time>2026-04-29T21:01:43.999Z</time></trkpt><trkpt lat="39.3177884" lon="0.8679988"><ele>0.0</ele><time>2026-04-29T21:01:44.999Z</time></trkpt><trkpt lat="39.3178619" lon="0.8680602"><ele>0.0</ele><time>2026-04-29T21:01:45.999Z</time></trkpt><trkpt lat="39.3179323" lon="0.8681189"><ele>0.0</ele><time>2026-04-29T21:01:46.998Z</time></trkpt><trkpt lat="39.3180862" lon="0.8682333"><ele>0.0</ele><time>2026-04-29T21:01:48.998Z</time></trkpt><trkpt lat="39.3181631" lon="0.8682915"><ele>0.0</ele><time>2026-04-29T21:01:49.999Z</time></trkpt><trkpt lat="39.3182382" lon="0.8683453"><ele>0.0</ele><time>2026-04-29T21:01:50.999Z</time></trkpt><trkpt lat="39.3183145" lon="0.8683947"><ele>0.0</ele><time>2026-04-29T21:01:51.998Z</time></trkpt><trkpt lat="39.3183915" lon="0.8684587"><ele>0.0</ele><time>2026-04-29T21:01:52.999Z</time></trkpt><trkpt lat="39.3184623" lon="0.8685141"><ele>0.0</ele><time>2026-04-29T21:01:53.997Z</time></trkpt><trkpt lat="39.3185369" lon="0.8685719"><ele>0.0</ele><time>2026-04-29T21:01:54.998Z</time></trkpt><trkpt lat="39.3186075" lon="0.8686262"><ele>0.0</ele><time>2026-04-29T21:01:55.997Z</time></trkpt><trkpt lat="39.3186788" lon="0.8686736"><ele>0.0</ele><time>2026-04-29T21:01:56.998Z</time></trkpt><trkpt lat="39.3187562" lon="0.8687158"><ele>0.0</ele><time>2026-04-29T21:01:57.998Z</time></trkpt><trkpt lat="39.3188317" lon="0.8687732"><ele>0.0</ele><time>2026-04-29T21:01:58.997Z</time></trkpt><trkpt lat="39.3189053" lon="0.8688299"><ele>0.0</ele><time>2026-04-29T21:01:59.997Z</time></trkpt><trkpt lat="39.3189815" lon="0.8688898"><ele>0.0</ele><time>2026-04-29T21:02:00.997Z</time></trkpt><trkpt lat="39.3190622" lon="0.8689469"><ele>0.0</ele><time>2026-04-29T21:02:01.998Z</time></trkpt><trkpt lat="39.319141" lon="0.8690022"><ele>0.0</ele><time>2026-04-29T21:02:02.998Z</time></trkpt><trkpt lat="39.3192153" lon="0.8690626"><ele>0.0</ele><time>2026-04-29T21:02:03.998Z</time></trkpt><trkpt lat="39.3192871" lon="0.8691186"><ele>0.0</ele><time>2026-04-29T21:02:04.998Z</time></trkpt><trkpt lat="39.3193559" lon="0.8691766"><ele>0.0</ele><time>2026-04-29T21:02:05.998Z</time></trkpt><trkpt lat="39.3194311" lon="0.8692364"><ele>0.0</ele><time>2026-04-29T21:02:06.998Z</time></trkpt><trkpt lat="39.3195841" lon="0.869342"><ele>0.0</ele><time>2026-04-29T21:02:08.998Z</time></trkpt><trkpt lat="39.3196623" lon="0.8694019"><ele>0.0</ele><time>2026-04-29T21:02:09.998Z</time></trkpt><trkpt lat="39.3197367" lon="0.8694614"><ele>0.0</ele><time>2026-04-29T21:02:10.998Z</time></trkpt><trkpt lat="39.3198073" lon="0.8695195"><ele>0.0</ele><time>2026-04-29T21:02:11.998Z</time></trkpt><trkpt lat="39.3198745" lon="0.8695798"><ele>0.0</ele><time>2026-04-29T21:02:12.997Z</time></trkpt><trkpt lat="39.3199469" lon="0.8696342"><ele>0.0</ele><time>2026-04-29T21:02:13.997Z</time></trkpt><trkpt lat="39.3200186" lon="0.8696894"><ele>0.0</ele><time>2026-04-29T21:02:14.998Z</time></trkpt><trkpt lat="39.3200874" lon="0.869747"><ele>0.0</ele><time>2026-04-29T21:02:15.997Z</time></trkpt><trkpt lat="39.3201587" lon="0.8698168"><ele>0.0</ele><time>2026-04-29T21:02:16.998Z</time></trkpt><trkpt lat="39.3202317" lon="0.8698822"><ele>0.0</ele><time>2026-04-29T21:02:17.998Z</time></trkpt><trkpt lat="39.3203064" lon="0.8699444"><ele>0.0</ele><time>2026-04-29T21:02:18.997Z</time></trkpt><trkpt lat="39.320383" lon="0.8700036"><ele>0.0</ele><time>2026-04-29T21:02:19.997Z</time></trkpt><trkpt lat="39.3204596" lon="0.8700563"><ele>0.0</ele><time>2026-04-29T21:02:20.997Z</time></trkpt><trkpt lat="39.3205304" lon="0.8701027"><ele>0.0</ele><time>2026-04-29T21:02:21.998Z</time></trkpt><trkpt lat="39.320602" lon="0.8701423"><ele>0.0</ele><time>2026-04-29T21:02:22.998Z</time></trkpt><trkpt lat="39.3206748" lon="0.8702043"><ele>0.0</ele><time>2026-04-29T21:02:23.998Z</time></trkpt><trkpt lat="39.3207437" lon="0.8702631"><ele>0.0</ele><time>2026-04-29T21:02:24.997Z</time></trkpt><trkpt lat="39.3208106" lon="0.8703182"><ele>0.0</ele><time>2026-04-29T21:02:25.998Z</time></trkpt><trkpt lat="39.3208803" lon="0.8703773"><ele>0.0</ele><time>2026-04-29T21:02:26.998Z</time></trkpt><trkpt lat="39.3209501" lon="0.8704324"><ele>0.0</ele><time>2026-04-29T21:02:27.998Z</time></trkpt><trkpt lat="39.3211031" lon="0.8705242"><ele>0.0</ele><time>2026-04-29T21:02:29.997Z</time></trkpt><trkpt lat="39.3211752" lon="0.870577"><ele>0.0</ele><time>2026-04-29T21:02:30.997Z</time></trkpt><trkpt lat="39.3212495" lon="0.8706336"><ele>0.0</ele><time>2026-04-29T21:02:31.998Z</time></trkpt><trkpt lat="39.321326" lon="0.8706932"><ele>0.0</ele><time>2026-04-29T21:02:32.997Z</time></trkpt><trkpt lat="39.3213941" lon="0.870746"><ele>0.0</ele><time>2026-04-29T21:02:33.998Z</time></trkpt><trkpt lat="39.3214666" lon="0.8708006"><ele>0.0</ele><time>2026-04-29T21:02:34.997Z</time></trkpt><trkpt lat="39.3215443" lon="0.8708453"><ele>0.0</ele><time>2026-04-29T21:02:35.997Z</time></trkpt><trkpt lat="39.3216195" lon="0.870902"><ele>0.0</ele><time>2026-04-29T21:02:36.998Z</time></trkpt><trkpt lat="39.3217005" lon="0.8709614"><ele>0.0</ele><time>2026-04-29T21:02:37.998Z</time></trkpt><trkpt lat="39.3217749" lon="0.871017"><ele>0.0</ele><time>2026-04-29T21:02:38.998Z</time></trkpt><trkpt lat="39.321843" lon="0.8710659"><ele>0.0</ele><time>2026-04-29T21:02:39.998Z</time></trkpt><trkpt lat="39.3219181" lon="0.871123"><ele>0.0</ele><time>2026-04-29T21:02:40.998Z</time></trkpt><trkpt lat="39.3219972" lon="0.8711842"><ele>0.0</ele><time>2026-04-29T21:02:41.998Z</time></trkpt><trkpt lat="39.3220702" lon="0.8712487"><ele>0.0</ele><time>2026-04-29T21:02:42.997Z</time></trkpt><trkpt lat="39.322146" lon="0.8713081"><ele>0.0</ele><time>2026-04-29T21:02:43.998Z</time></trkpt><trkpt lat="39.3222143" lon="0.8713693"><ele>0.0</ele><time>2026-04-29T21:02:44.998Z</time></trkpt><trkpt lat="39.3222865" lon="0.8714274"><ele>0.0</ele><time>2026-04-29T21:02:45.997Z</time></trkpt><trkpt lat="39.3223556" lon="0.8714882"><ele>0.0</ele><time>2026-04-29T21:02:46.997Z</time></trkpt><trkpt lat="39.3224296" lon="0.8715477"><ele>0.0</ele><time>2026-04-29T21:02:47.997Z</time></trkpt><trkpt lat="39.3225006" lon="0.8716047"><ele>0.0</ele><time>2026-04-29T21:02:48.998Z</time></trkpt><trkpt lat="39.3226562" lon="0.871731"><ele>0.0</ele><time>2026-04-29T21:02:50.998Z</time></trkpt><trkpt lat="39.3227342" lon="0.8717823"><ele>0.0</ele><time>2026-04-29T21:02:51.997Z</time></trkpt><trkpt lat="39.3228114" lon="0.8718356"><ele>0.0</ele><time>2026-04-29T21:02:52.998Z</time></trkpt><trkpt lat="39.3228869" lon="0.8718915"><ele>0.0</ele><time>2026-04-29T21:02:53.998Z</time></trkpt><trkpt lat="39.3229586" lon="0.8719498"><ele>0.0</ele><time>2026-04-29T21:02:54.997Z</time></trkpt><trkpt lat="39.323033" lon="0.8720112"><ele>0.0</ele><time>2026-04-29T21:02:55.997Z</time></trkpt><trkpt lat="39.3230981" lon="0.8720854"><ele>0.0</ele><time>2026-04-29T21:02:56.997Z</time></trkpt><trkpt lat="39.3231675" lon="0.8721492"><ele>0.0</ele><time>2026-04-29T21:02:57.998Z</time></trkpt><trkpt lat="39.3232417" lon="0.8722306"><ele>0.0</ele><time>2026-04-29T21:02:58.998Z</time></trkpt><trkpt lat="39.3233166" lon="0.8723021"><ele>0.0</ele><time>2026-04-29T21:02:59.997Z</time></trkpt><trkpt lat="39.3233902" lon="0.8723744"><ele>0.0</ele><time>2026-04-29T21:03:00.997Z</time></trkpt><trkpt lat="39.3234632" lon="0.8724449"><ele>0.0</ele><time>2026-04-29T21:03:01.998Z</time></trkpt><trkpt lat="39.3235366" lon="0.8725094"><ele>0.0</ele><time>2026-04-29T21:03:02.998Z</time></trkpt><trkpt lat="39.3236117" lon="0.8725721"><ele>0.0</ele><time>2026-04-29T21:03:03.997Z</time></trkpt><trkpt lat="39.323684" lon="0.8726376"><ele>0.0</ele><time>2026-04-29T21:03:04.997Z</time></trkpt><trkpt lat="39.3237556" lon="0.8727092"><ele>0.0</ele><time>2026-04-29T21:03:05.997Z</time></trkpt><trkpt lat="39.3238299" lon="0.87278"><ele>0.0</ele><time>2026-04-29T21:03:06.998Z</time></trkpt><trkpt lat="39.323902" lon="0.8728442"><ele>0.0</ele><time>2026-04-29T21:03:07.998Z</time></trkpt><trkpt lat="39.3239793" lon="0.8729006"><ele>0.0</ele><time>2026-04-29T21:03:08.997Z</time></trkpt><trkpt lat="39.3240549" lon="0.8729623"><ele>0.0</ele><time>2026-04-29T21:03:09.997Z</time></trkpt><trkpt lat="39.3242146" lon="0.8730818"><ele>0.0</ele><time>2026-04-29T21:03:11.997Z</time></trkpt><trkpt lat="39.3242915" lon="0.8731429"><ele>0.0</ele><time>2026-04-29T21:03:12.998Z</time></trkpt><trkpt lat="39.3243682" lon="0.8732021"><ele>0.0</ele><time>2026-04-29T21:03:13.998Z</time></trkpt><trkpt lat="39.3244433" lon="0.8732531"><ele>0.0</ele><time>2026-04-29T21:03:14.997Z</time></trkpt><trkpt lat="39.324511" lon="0.8733033"><ele>0.0</ele><time>2026-04-29T21:03:15.998Z</time></trkpt><trkpt lat="39.3245852" lon="0.8733459"><ele>0.0</ele><time>2026-04-29T21:03:16.998Z</time></trkpt><trkpt lat="39.3246614" lon="0.873402"><ele>0.0</ele><time>2026-04-29T21:03:17.997Z</time></trkpt><trkpt lat="39.3247395" lon="0.8734513"><ele>0.0</ele><time>2026-04-29T21:03:18.998Z</time></trkpt><trkpt lat="39.3248179" lon="0.8735013"><ele>0.0</ele><time>2026-04-29T21:03:19.998Z</time></trkpt><trkpt lat="39.3248904" lon="0.8735655"><ele>0.0</ele><time>2026-04-29T21:03:20.998Z</time></trkpt><trkpt lat="39.3249594" lon="0.8736206"><ele>0.0</ele><time>2026-04-29T21:03:21.997Z</time></trkpt><trkpt lat="39.3250305" lon="0.8736782"><ele>0.0</ele><time>2026-04-29T21:03:22.998Z</time></trkpt><trkpt lat="39.3251047" lon="0.8737381"><ele>0.0</ele><time>2026-04-29T21:03:23.997Z</time></trkpt><trkpt lat="39.325177" lon="0.873794"><ele>0.0</ele><time>2026-04-29T21:03:24.998Z</time></trkpt><trkpt lat="39.3252515" lon="0.8738505"><ele>0.0</ele><time>2026-04-29T21:03:25.997Z</time></trkpt><trkpt lat="39.3253252" lon="0.8739037"><ele>0.0</ele><time>2026-04-29T21:03:26.997Z</time></trkpt><trkpt lat="39.3254001" lon="0.8739554"><ele>0.0</ele><time>2026-04-29T21:03:27.998Z</time></trkpt><trkpt lat="39.3254792" lon="0.874"><ele>0.0</ele><time>2026-04-29T21:03:28.998Z</time></trkpt><trkpt lat="39.3255533" lon="0.8740607"><ele>0.0</ele><time>2026-04-29T21:03:29.998Z</time></trkpt><trkpt lat="39.3256252" lon="0.8741181"><ele>0.0</ele><time>2026-04-29T21:03:30.997Z</time></trkpt><trkpt lat="39.3257747" lon="0.874238"><ele>0.0</ele><time>2026-04-29T21:03:32.998Z</time></trkpt><trkpt lat="39.3258468" lon="0.8742963"><ele>0.0</ele><time>2026-04-29T21:03:33.997Z</time></trkpt><trkpt lat="39.3259273" lon="0.8743444"><ele>0.0</ele><time>2026-04-29T21:03:34.998Z</time></trkpt><trkpt lat="39.3259975" lon="0.8744102"><ele>0.0</ele><time>2026-04-29T21:03:35.997Z</time></trkpt><trkpt lat="39.3260686" lon="0.8744723"><ele>0.0</ele><time>2026-04-29T21:03:36.997Z</time></trkpt><trkpt lat="39.3261374" lon="0.8745313"><ele>0.0</ele><time>2026-04-29T21:03:37.997Z</time></trkpt><trkpt lat="39.3262143" lon="0.8745924"><ele>0.0</ele><time>2026-04-29T21:03:38.997Z</time></trkpt><trkpt lat="39.3262926" lon="0.8746501"><ele>0.0</ele><time>2026-04-29T21:03:39.998Z</time></trkpt><trkpt lat="39.3263622" lon="0.8747098"><ele>0.0</ele><time>2026-04-29T21:03:40.998Z</time></trkpt><trkpt lat="39.3264322" lon="0.8747747"><ele>0.0</ele><time>2026-04-29T21:03:41.997Z</time></trkpt><trkpt lat="39.3265051" lon="0.8748352"><ele>0.0</ele><time>2026-04-29T21:03:42.998Z</time></trkpt><trkpt lat="39.3265801" lon="0.8748937"><ele>0.0</ele><time>2026-04-29T21:03:43.998Z</time></trkpt><trkpt lat="39.3266519" lon="0.8749508"><ele>0.0</ele><time>2026-04-29T21:03:44.997Z</time></trkpt><trkpt lat="39.3267264" lon="0.8750061"><ele>0.0</ele><time>2026-04-29T21:03:45.998Z</time></trkpt><trkpt lat="39.3268014" lon="0.8750669"><ele>0.0</ele><time>2026-04-29T21:03:46.997Z</time></trkpt><trkpt lat="39.3268705" lon="0.8751285"><ele>0.0</ele><time>2026-04-29T21:03:47.997Z</time></trkpt><trkpt lat="39.3269431" lon="0.8751919"><ele>0.0</ele><time>2026-04-29T21:03:48.998Z</time></trkpt><trkpt lat="39.3270149" lon="0.8752503"><ele>0.0</ele><time>2026-04-29T21:03:49.998Z</time></trkpt><trkpt lat="39.3270952" lon="0.8753154"><ele>0.0</ele><time>2026-04-29T21:03:50.998Z</time></trkpt><trkpt lat="39.3272361" lon="0.8754361"><ele>0.0</ele><time>2026-04-29T21:03:52.997Z</time></trkpt><trkpt lat="39.3273073" lon="0.8755089"><ele>0.0</ele><time>2026-04-29T21:03:53.997Z</time></trkpt><trkpt lat="39.327382" lon="0.8755739"><ele>0.0</ele><time>2026-04-29T21:03:54.998Z</time></trkpt><trkpt lat="39.3274595" lon="0.875643"><ele>0.0</ele><time>2026-04-29T21:03:55.997Z</time></trkpt><trkpt lat="39.3275335" lon="0.875709"><ele>0.0</ele><time>2026-04-29T21:03:56.997Z</time></trkpt><trkpt lat="39.3276059" lon="0.8757622"><ele>0.0</ele><time>2026-04-29T21:03:57.997Z</time></trkpt><trkpt lat="39.3276778" lon="0.8758169"><ele>0.0</ele><time>2026-04-29T21:03:58.998Z</time></trkpt><trkpt lat="39.3277566" lon="0.87588"><ele>0.0</ele><time>2026-04-29T21:03:59.997Z</time></trkpt><trkpt lat="39.327832" lon="0.8759392"><ele>0.0</ele><time>2026-04-29T21:04:00.997Z</time></trkpt><trkpt lat="39.3279056" lon="0.875997"><ele>0.0</ele><time>2026-04-29T21:04:01.997Z</time></trkpt><trkpt lat="39.3279802" lon="0.876053"><ele>0.0</ele><time>2026-04-29T21:04:02.998Z</time></trkpt><trkpt lat="39.3280605" lon="0.8761054"><ele>0.0</ele><time>2026-04-29T21:04:03.997Z</time></trkpt><trkpt lat="39.3281364" lon="0.8761654"><ele>0.0</ele><time>2026-04-29T21:04:04.998Z</time></trkpt><trkpt lat="39.3282117" lon="0.8762273"><ele>0.0</ele><time>2026-04-29T21:04:05.997Z</time></trkpt><trkpt lat="39.3282909" lon="0.8762878"><ele>0.0</ele><time>2026-04-29T21:04:06.998Z</time></trkpt><trkpt lat="39.3283707" lon="0.8763409"><ele>0.0</ele><time>2026-04-29T21:04:07.998Z</time></trkpt><trkpt lat="39.3284481" lon="0.8763943"><ele>0.0</ele><time>2026-04-29T21:04:08.997Z</time></trkpt><trkpt lat="39.3285218" lon="0.8764489"><ele>0.0</ele><time>2026-04-29T21:04:09.998Z</time></trkpt><trkpt lat="39.328591" lon="0.876501"><ele>0.0</ele><time>2026-04-29T21:04:10.997Z</time></trkpt><trkpt lat="39.3286579" lon="0.8765597"><ele>0.0</ele><time>2026-04-29T21:04:11.997Z</time></trkpt><trkpt lat="39.3288024" lon="0.8766667"><ele>0.0</ele><time>2026-04-29T21:04:13.997Z</time></trkpt><trkpt lat="39.328879" lon="0.8767235"><ele>0.0</ele><time>2026-04-29T21:04:14.997Z</time></trkpt><trkpt lat="39.3289516" lon="0.8767764"><ele>0.0</ele><time>2026-04-29T21:04:15.998Z</time></trkpt><trkpt lat="39.3290234" lon="0.8768395"><ele>0.0</ele><time>2026-04-29T21:04:16.997Z</time></trkpt><trkpt lat="39.3290922" lon="0.8769045"><ele>0.0</ele><time>2026-04-29T21:04:17.998Z</time></trkpt><trkpt lat="39.3291663" lon="0.8769668"><ele>0.0</ele><time>2026-04-29T21:04:18.998Z</time></trkpt><trkpt lat="39.3292387" lon="0.8770226"><ele>0.0</ele><time>2026-04-29T21:04:19.997Z</time></trkpt><trkpt lat="39.329312" lon="0.8770847"><ele>0.0</ele><time>2026-04-29T21:04:20.997Z</time></trkpt><trkpt lat="39.329381" lon="0.8771538"><ele>0.0</ele><time>2026-04-29T21:04:21.998Z</time></trkpt><trkpt lat="39.329449" lon="0.877223"><ele>0.0</ele><time>2026-04-29T21:04:22.998Z</time></trkpt><trkpt lat="39.3295214" lon="0.8772853"><ele>0.0</ele><time>2026-04-29T21:04:23.998Z</time></trkpt><trkpt lat="39.3295938" lon="0.877355"><ele>0.0</ele><time>2026-04-29T21:04:24.998Z</time></trkpt><trkpt lat="39.3296642" lon="0.8774052"><ele>0.0</ele><time>2026-04-29T21:04:25.998Z</time></trkpt><trkpt lat="39.3297415" lon="0.8774631"><ele>0.0</ele><time>2026-04-29T21:04:26.997Z</time></trkpt><trkpt lat="39.3298181" lon="0.8775182"><ele>0.0</ele><time>2026-04-29T21:04:27.998Z</time></trkpt><trkpt lat="39.329889" lon="0.8775777"><ele>0.0</ele><time>2026-04-29T21:04:28.998Z</time></trkpt><trkpt lat="39.3299591" lon="0.8776382"><ele>0.0</ele><time>2026-04-29T21:04:29.998Z</time></trkpt><trkpt lat="39.3300344" lon="0.877697"><ele>0.0</ele><time>2026-04-29T21:04:30.997Z</time></trkpt><trkpt lat="39.3301039" lon="0.8777579"><ele>0.0</ele><time>2026-04-29T21:04:31.997Z</time></trkpt><trkpt lat="39.3301824" lon="0.8778178"><ele>0.0</ele><time>2026-04-29T21:04:32.997Z</time></trkpt><trkpt lat="39.3303311" lon="0.8779286"><ele>0.0</ele><time>2026-04-29T21:04:34.997Z</time></trkpt><trkpt lat="39.3304079" lon="0.8779834"><ele>0.0</ele><time>2026-04-29T21:04:35.998Z</time></trkpt><trkpt lat="39.3304848" lon="0.8780435"><ele>0.0</ele><time>2026-04-29T21:04:36.997Z</time></trkpt><trkpt lat="39.3305557" lon="0.878101"><ele>0.0</ele><time>2026-04-29T21:04:37.997Z</time></trkpt><trkpt lat="39.3306288" lon="0.8781617"><ele>0.0</ele><time>2026-04-29T21:04:38.998Z</time></trkpt><trkpt lat="39.3307008" lon="0.8782191"><ele>0.0</ele><time>2026-04-29T21:04:39.997Z</time></trkpt><trkpt lat="39.3307779" lon="0.8782713"><ele>0.0</ele><time>2026-04-29T21:04:40.998Z</time></trkpt><trkpt lat="39.330853" lon="0.8783381"><ele>0.0</ele><time>2026-04-29T21:04:41.997Z</time></trkpt><trkpt lat="39.3309268" lon="0.8783993"><ele>0.0</ele><time>2026-04-29T21:04:42.997Z</time></trkpt><trkpt lat="39.3309987" lon="0.8784655"><ele>0.0</ele><time>2026-04-29T21:04:43.997Z</time></trkpt><trkpt lat="39.3310702" lon="0.8785291"><ele>0.0</ele><time>2026-04-29T21:04:44.997Z</time></trkpt><trkpt lat="39.3311416" lon="0.878594"><ele>0.0</ele><time>2026-04-29T21:04:45.997Z</time></trkpt><trkpt lat="39.3312136" lon="0.8786505"><ele>0.0</ele><time>2026-04-29T21:04:46.998Z</time></trkpt><trkpt lat="39.3312878" lon="0.8787147"><ele>0.0</ele><time>2026-04-29T21:04:47.998Z</time></trkpt><trkpt lat="39.3313618" lon="0.8787778"><ele>0.0</ele><time>2026-04-29T21:04:48.997Z</time></trkpt><trkpt lat="39.3314322" lon="0.8788395"><ele>0.0</ele><time>2026-04-29T21:04:49.998Z</time></trkpt><trkpt lat="39.3315082" lon="0.8788997"><ele>0.0</ele><time>2026-04-29T21:04:50.998Z</time></trkpt><trkpt lat="39.3315832" lon="0.8789558"><ele>0.0</ele><time>2026-04-29T21:04:51.997Z</time></trkpt><trkpt lat="39.3316553" lon="0.8790165"><ele>0.0</ele><time>2026-04-29T21:04:52.998Z</time></trkpt><trkpt lat="39.3317271" lon="0.8790847"><ele>0.0</ele><time>2026-04-29T21:04:53.998Z</time></trkpt><trkpt lat="39.3318723" lon="0.8791999"><ele>0.0</ele><time>2026-04-29T21:04:55.998Z</time></trkpt><trkpt lat="39.3319437" lon="0.8792525"><ele>0.0</ele><time>2026-04-29T21:04:56.998Z</time></trkpt><trkpt lat="39.3320212" lon="0.8793058"><ele>0.0</ele><time>2026-04-29T21:04:57.998Z</time></trkpt><trkpt lat="39.3320979" lon="0.8793546"><ele>0.0</ele><time>2026-04-29T21:04:58.998Z</time></trkpt><trkpt lat="39.33217" lon="0.8794076"><ele>0.0</ele><time>2026-04-29T21:04:59.997Z</time></trkpt><trkpt lat="39.3322449" lon="0.8794602"><ele>0.0</ele><time>2026-04-29T21:05:00.998Z</time></trkpt><trkpt lat="39.3323197" lon="0.8795153"><ele>0.0</ele><time>2026-04-29T21:05:01.998Z</time></trkpt><trkpt lat="39.3323905" lon="0.8795704"><ele>0.0</ele><time>2026-04-29T21:05:02.998Z</time></trkpt><trkpt lat="39.3324634" lon="0.8796239"><ele>0.0</ele><time>2026-04-29T21:05:03.998Z</time></trkpt><trkpt lat="39.3325397" lon="0.8796761"><ele>0.0</ele><time>2026-04-29T21:05:04.998Z</time></trkpt><trkpt lat="39.332612" lon="0.8797366"><ele>0.0</ele><time>2026-04-29T21:05:05.997Z</time></trkpt><trkpt lat="39.3326875" lon="0.8797928"><ele>0.0</ele><time>2026-04-29T21:05:06.997Z</time></trkpt><trkpt lat="39.3327658" lon="0.8798493"><ele>0.0</ele><time>2026-04-29T21:05:07.997Z</time></trkpt><trkpt lat="39.3328401" lon="0.8799069"><ele>0.0</ele><time>2026-04-29T21:05:08.998Z</time></trkpt><trkpt lat="39.332912" lon="0.8799624"><ele>0.0</ele><time>2026-04-29T21:05:09.998Z</time></trkpt><trkpt lat="39.3329836" lon="0.8800175"><ele>0.0</ele><time>2026-04-29T21:05:10.998Z</time></trkpt><trkpt lat="39.3330581" lon="0.8800641"><ele>0.0</ele><time>2026-04-29T21:05:11.998Z</time></trkpt><trkpt lat="39.3331319" lon="0.8801204"><ele>0.0</ele><time>2026-04-29T21:05:12.998Z</time></trkpt><trkpt lat="39.3332107" lon="0.8801715"><ele>0.0</ele><time>2026-04-29T21:05:13.998Z</time></trkpt><trkpt lat="39.3332962" lon="0.8802242"><ele>0.0</ele><time>2026-04-29T21:05:14.997Z</time></trkpt><trkpt lat="39.3334453" lon="0.8803408"><ele>0.0</ele><time>2026-04-29T21:05:16.997Z</time></trkpt><trkpt lat="39.3335242" lon="0.880396"><ele>0.0</ele><time>2026-04-29T21:05:17.997Z</time></trkpt><trkpt lat="39.3336014" lon="0.8804521"><ele>0.0</ele><time>2026-04-29T21:05:18.998Z</time></trkpt><trkpt lat="39.333678" lon="0.8804974"><ele>0.0</ele><time>2026-04-29T21:05:19.998Z</time></trkpt><trkpt lat="39.3337515" lon="0.8805537"><ele>0.0</ele><time>2026-04-29T21:05:20.997Z</time></trkpt><trkpt lat="39.333822" lon="0.8806121"><ele>0.0</ele><time>2026-04-29T21:05:21.997Z</time></trkpt><trkpt lat="39.3338993" lon="0.8806505"><ele>0.0</ele><time>2026-04-29T21:05:22.998Z</time></trkpt><trkpt lat="39.3339748" lon="0.8806956"><ele>0.0</ele><time>2026-04-29T21:05:23.997Z</time></trkpt><trkpt lat="39.3340484" lon="0.8807537"><ele>0.0</ele><time>2026-04-29T21:05:24.998Z</time></trkpt><trkpt lat="39.3341189" lon="0.880809"><ele>0.0</ele><time>2026-04-29T21:05:25.998Z</time></trkpt><trkpt lat="39.3341876" lon="0.8808607"><ele>0.0</ele><time>2026-04-29T21:05:26.997Z</time></trkpt><trkpt lat="39.3342573" lon="0.8809171"><ele>0.0</ele><time>2026-04-29T21:05:27.997Z</time></trkpt><trkpt lat="39.3343275" lon="0.8809722"><ele>0.0</ele><time>2026-04-29T21:05:28.997Z</time></trkpt><trkpt lat="39.3343986" lon="0.8810301"><ele>0.0</ele><time>2026-04-29T21:05:29.997Z</time></trkpt><trkpt lat="39.3344746" lon="0.8810942"><ele>0.0</ele><time>2026-04-29T21:05:30.997Z</time></trkpt><trkpt lat="39.3345566" lon="0.8811578"><ele>0.0</ele><time>2026-04-29T21:05:31.997Z</time></trkpt><trkpt lat="39.3346346" lon="0.8812181"><ele>0.0</ele><time>2026-04-29T21:05:32.998Z</time></trkpt><trkpt lat="39.3347139" lon="0.8812841"><ele>0.0</ele><time>2026-04-29T21:05:33.997Z</time></trkpt><trkpt lat="39.3347884" lon="0.8813477"><ele>0.0</ele><time>2026-04-29T21:05:34.997Z</time></trkpt><trkpt lat="39.33486" lon="0.88141"><ele>0.0</ele><time>2026-04-29T21:05:35.997Z</time></trkpt><trkpt lat="39.3350118" lon="0.881565"><ele>0.0</ele><time>2026-04-29T21:05:37.997Z</time></trkpt><trkpt lat="39.3350837" lon="0.8816324"><ele>0.0</ele><time>2026-04-29T21:05:38.998Z</time></trkpt><trkpt lat="39.3351564" lon="0.8817118"><ele>0.0</ele><time>2026-04-29T21:05:39.998Z</time></trkpt><trkpt lat="39.3352295" lon="0.8817821"><ele>0.0</ele><time>2026-04-29T21:05:40.998Z</time></trkpt><trkpt lat="39.3352989" lon="0.8818648"><ele>0.0</ele><time>2026-04-29T21:05:41.997Z</time></trkpt><trkpt lat="39.3353729" lon="0.8819433"><ele>0.0</ele><time>2026-04-29T21:05:42.998Z</time></trkpt><trkpt lat="39.3354484" lon="0.882005"><ele>0.0</ele><time>2026-04-29T21:05:43.998Z</time></trkpt><trkpt lat="39.335521" lon="0.8820676"><ele>0.0</ele><time>2026-04-29T21:05:44.998Z</time></trkpt><trkpt lat="39.335591" lon="0.8821498"><ele>0.0</ele><time>2026-04-29T21:05:45.997Z</time></trkpt><trkpt lat="39.3356651" lon="0.8822445"><ele>0.0</ele><time>2026-04-29T21:05:46.997Z</time></trkpt><trkpt lat="39.3357402" lon="0.8822971"><ele>0.0</ele><time>2026-04-29T21:05:47.997Z</time></trkpt><trkpt lat="39.3358138" lon="0.8823528"><ele>0.0</ele><time>2026-04-29T21:05:48.997Z</time></trkpt><trkpt lat="39.3358842" lon="0.882412"><ele>0.0</ele><time>2026-04-29T21:05:49.997Z</time></trkpt><trkpt lat="39.33596" lon="0.882469"><ele>0.0</ele><time>2026-04-29T21:05:50.997Z</time></trkpt><trkpt lat="39.3360394" lon="0.8825273"><ele>0.0</ele><time>2026-04-29T21:05:51.998Z</time></trkpt><trkpt lat="39.3361107" lon="0.8825928"><ele>0.0</ele><time>2026-04-29T21:05:52.997Z</time></trkpt><trkpt lat="39.3361835" lon="0.8826596"><ele>0.0</ele><time>2026-04-29T21:05:53.997Z</time></trkpt><trkpt lat="39.3362571" lon="0.8827107"><ele>0.0</ele><time>2026-04-29T21:05:54.997Z</time></trkpt><trkpt lat="39.3363319" lon="0.8827721"><ele>0.0</ele><time>2026-04-29T21:05:55.997Z</time></trkpt><trkpt lat="39.3364049" lon="0.8828294"><ele>0.0</ele><time>2026-04-29T21:05:56.998Z</time></trkpt><trkpt lat="39.3364839" lon="0.8828904"><ele>0.0</ele><time>2026-04-29T21:05:57.998Z</time></trkpt><trkpt lat="39.3366317" lon="0.8830194"><ele>0.0</ele><time>2026-04-29T21:05:59.998Z</time></trkpt><trkpt lat="39.3367082" lon="0.8830858"><ele>0.0</ele><time>2026-04-29T21:06:00.998Z</time></trkpt><trkpt lat="39.3367832" lon="0.8831332"><ele>0.0</ele><time>2026-04-29T21:06:01.997Z</time></trkpt><trkpt lat="39.3368626" lon="0.8831795"><ele>0.0</ele><time>2026-04-29T21:06:02.997Z</time></trkpt><trkpt lat="39.3369382" lon="0.8832389"><ele>0.0</ele><time>2026-04-29T21:06:03.997Z</time></trkpt><trkpt lat="39.3370121" lon="0.8832958"><ele>0.0</ele><time>2026-04-29T21:06:04.997Z</time></trkpt><trkpt lat="39.3370922" lon="0.883354"><ele>0.0</ele><time>2026-04-29T21:06:05.997Z</time></trkpt><trkpt lat="39.3371654" lon="0.8834005"><ele>0.0</ele><time>2026-04-29T21:06:06.996Z</time></trkpt><trkpt lat="39.3372345" lon="0.8834571"><ele>0.0</ele><time>2026-04-29T21:06:07.996Z</time></trkpt><trkpt lat="39.337307" lon="0.8835023"><ele>0.0</ele><time>2026-04-29T21:06:08.996Z</time></trkpt><trkpt lat="39.3373802" lon="0.8835642"><ele>0.0</ele><time>2026-04-29T21:06:09.996Z</time></trkpt><trkpt lat="39.3374553" lon="0.883623"><ele>0.0</ele><time>2026-04-29T21:06:10.996Z</time></trkpt><trkpt lat="39.3375185" lon="0.8836726"><ele>0.0</ele><time>2026-04-29T21:06:11.997Z</time></trkpt><trkpt lat="39.3375931" lon="0.8837152"><ele>0.0</ele><time>2026-04-29T21:06:12.996Z</time></trkpt><trkpt lat="39.3376664" lon="0.8837677"><ele>0.0</ele><time>2026-04-29T21:06:13.996Z</time></trkpt><trkpt lat="39.33774" lon="0.883825"><ele>0.0</ele><time>2026-04-29T21:06:14.997Z</time></trkpt><trkpt lat="39.3378105" lon="0.8838919"><ele>0.0</ele><time>2026-04-29T21:06:15.996Z</time></trkpt><trkpt lat="39.3378866" lon="0.8839519"><ele>0.0</ele><time>2026-04-29T21:06:16.997Z</time></trkpt><trkpt lat="39.337963" lon="0.8840173"><ele>0.0</ele><time>2026-04-29T21:06:17.996Z</time></trkpt><trkpt lat="39.3380438" lon="0.8840778"><ele>0.0</ele><time>2026-04-29T21:06:18.997Z</time></trkpt><trkpt lat="39.3381908" lon="0.8842047"><ele>0.0</ele><time>2026-04-29T21:06:20.996Z</time></trkpt><trkpt lat="39.338265" lon="0.8842734"><ele>0.0</ele><time>2026-04-29T21:06:21.996Z</time></trkpt><trkpt lat="39.3383384" lon="0.8843291"><ele>0.0</ele><time>2026-04-29T21:06:22.996Z</time></trkpt><trkpt lat="39.3384147" lon="0.8843846"><ele>0.0</ele><time>2026-04-29T21:06:23.996Z</time></trkpt><trkpt lat="39.338487" lon="0.8844438"><ele>0.0</ele><time>2026-04-29T21:06:24.996Z</time></trkpt><trkpt lat="39.33856" lon="0.8844955"><ele>0.0</ele><time>2026-04-29T21:06:25.997Z</time></trkpt><trkpt lat="39.3386377" lon="0.8845608"><ele>0.0</ele><time>2026-04-29T21:06:26.997Z</time></trkpt><trkpt lat="39.3387143" lon="0.8846263"><ele>0.0</ele><time>2026-04-29T21:06:27.997Z</time></trkpt><trkpt lat="39.3387898" lon="0.8846796"><ele>0.0</ele><time>2026-04-29T21:06:28.997Z</time></trkpt><trkpt lat="39.3388677" lon="0.8847418"><ele>0.0</ele><time>2026-04-29T21:06:29.996Z</time></trkpt><trkpt lat="39.3389443" lon="0.8848004"><ele>0.0</ele><time>2026-04-29T21:06:30.997Z</time></trkpt><trkpt lat="39.3390255" lon="0.8848598"><ele>0.0</ele><time>2026-04-29T21:06:31.997Z</time></trkpt><trkpt lat="39.3391002" lon="0.8849198"><ele>0.0</ele><time>2026-04-29T21:06:32.996Z</time></trkpt><trkpt lat="39.3391737" lon="0.8849844"><ele>0.0</ele><time>2026-04-29T21:06:33.997Z</time></trkpt><trkpt lat="39.339244" lon="0.8850449"><ele>0.0</ele><time>2026-04-29T21:06:34.997Z</time></trkpt><trkpt lat="39.3393138" lon="0.8851062"><ele>0.0</ele><time>2026-04-29T21:06:35.997Z</time></trkpt><trkpt lat="39.3393885" lon="0.8851664"><ele>0.0</ele><time>2026-04-29T21:06:36.997Z</time></trkpt><trkpt lat="39.3394647" lon="0.8852295"><ele>0.0</ele><time>2026-04-29T21:06:37.997Z</time></trkpt><trkpt lat="39.339537" lon="0.8852917"><ele>0.0</ele><time>2026-04-29T21:06:38.996Z</time></trkpt><trkpt lat="39.3396041" lon="0.8853492"><ele>0.0</ele><time>2026-04-29T21:06:39.996Z</time></trkpt><trkpt lat="39.3397472" lon="0.8854646"><ele>0.0</ele><time>2026-04-29T21:06:41.996Z</time></trkpt><trkpt lat="39.3398204" lon="0.8855145"><ele>0.0</ele><time>2026-04-29T21:06:42.997Z</time></trkpt><trkpt lat="39.3398967" lon="0.8855685"><ele>0.0</ele><time>2026-04-29T21:06:43.997Z</time></trkpt><trkpt lat="39.3399676" lon="0.8856194"><ele>0.0</ele><time>2026-04-29T21:06:44.997Z</time></trkpt><trkpt lat="39.3400433" lon="0.885672"><ele>0.0</ele><time>2026-04-29T21:06:45.997Z</time></trkpt><trkpt lat="39.340114" lon="0.8857262"><ele>0.0</ele><time>2026-04-29T21:06:46.997Z</time></trkpt><trkpt lat="39.3401885" lon="0.885778"><ele>0.0</ele><time>2026-04-29T21:06:47.996Z</time></trkpt><trkpt lat="39.3402619" lon="0.8858313"><ele>0.0</ele><time>2026-04-29T21:06:48.996Z</time></trkpt><trkpt lat="39.3403397" lon="0.8858946"><ele>0.0</ele><time>2026-04-29T21:06:49.996Z</time></trkpt><trkpt lat="39.3404109" lon="0.8859513"><ele>0.0</ele><time>2026-04-29T21:06:50.997Z</time></trkpt><trkpt lat="39.3404837" lon="0.8860036"><ele>0.0</ele><time>2026-04-29T21:06:51.997Z</time></trkpt><trkpt lat="39.3405558" lon="0.8860541"><ele>0.0</ele><time>2026-04-29T21:06:52.997Z</time></trkpt><trkpt lat="39.340633" lon="0.8860936"><ele>0.0</ele><time>2026-04-29T21:06:53.996Z</time></trkpt><trkpt lat="39.3407055" lon="0.8861366"><ele>0.0</ele><time>2026-04-29T21:06:54.996Z</time></trkpt><trkpt lat="39.3407786" lon="0.8861815"><ele>0.0</ele><time>2026-04-29T21:06:55.996Z</time></trkpt><trkpt lat="39.3408565" lon="0.8862318"><ele>0.0</ele><time>2026-04-29T21:06:56.996Z</time></trkpt><trkpt lat="39.3409333" lon="0.8862831"><ele>0.0</ele><time>2026-04-29T21:06:57.997Z</time></trkpt><trkpt lat="39.3410072" lon="0.8863317"><ele>0.0</ele><time>2026-04-29T21:06:58.996Z</time></trkpt><trkpt lat="39.3410821" lon="0.8863797"><ele>0.0</ele><time>2026-04-29T21:06:59.997Z</time></trkpt><trkpt lat="39.3411554" lon="0.8864282"><ele>0.0</ele><time>2026-04-29T21:07:00.997Z</time></trkpt><trkpt lat="39.3413095" lon="0.886528"><ele>0.0</ele><time>2026-04-29T21:07:02.996Z</time></trkpt><trkpt lat="39.3413879" lon="0.8865702"><ele>0.0</ele><time>2026-04-29T21:07:03.997Z</time></trkpt><trkpt lat="39.3414633" lon="0.8866158"><ele>0.0</ele><time>2026-04-29T21:07:04.996Z</time></trkpt><trkpt lat="39.3415397" lon="0.8866744"><ele>0.0</ele><time>2026-04-29T21:07:05.996Z</time></trkpt><trkpt lat="39.3416206" lon="0.8867312"><ele>0.0</ele><time>2026-04-29T21:07:06.996Z</time></trkpt><trkpt lat="39.3416993" lon="0.8867892"><ele>0.0</ele><time>2026-04-29T21:07:07.996Z</time></trkpt><trkpt lat="39.3417726" lon="0.8868419"><ele>0.0</ele><time>2026-04-29T21:07:08.996Z</time></trkpt><trkpt lat="39.3418483" lon="0.8868924"><ele>0.0</ele><time>2026-04-29T21:07:09.996Z</time></trkpt><trkpt lat="39.3419335" lon="0.8869489"><ele>0.0</ele><time>2026-04-29T21:07:10.997Z</time></trkpt><trkpt lat="39.3420155" lon="0.8870033"><ele>0.0</ele><time>2026-04-29T21:07:11.996Z</time></trkpt><trkpt lat="39.3420926" lon="0.8870695"><ele>0.0</ele><time>2026-04-29T21:07:12.997Z</time></trkpt><trkpt lat="39.3421655" lon="0.8871347"><ele>0.0</ele><time>2026-04-29T21:07:13.997Z</time></trkpt><trkpt lat="39.3422459" lon="0.8872089"><ele>0.0</ele><time>2026-04-29T21:07:14.996Z</time></trkpt><trkpt lat="39.3423175" lon="0.8872654"><ele>0.0</ele><time>2026-04-29T21:07:15.997Z</time></trkpt><trkpt lat="39.3423905" lon="0.8873253"><ele>0.0</ele><time>2026-04-29T21:07:16.996Z</time></trkpt><trkpt lat="39.3424668" lon="0.8873832"><ele>0.0</ele><time>2026-04-29T21:07:17.997Z</time></trkpt><trkpt lat="39.3425435" lon="0.8874381"><ele>0.0</ele><time>2026-04-29T21:07:18.996Z</time></trkpt><trkpt lat="39.3426215" lon="0.8874965"><ele>0.0</ele><time>2026-04-29T21:07:19.997Z</time></trkpt><trkpt lat="39.3426997" lon="0.8875478"><ele>0.0</ele><time>2026-04-29T21:07:20.996Z</time></trkpt><trkpt lat="39.3427783" lon="0.887606"><ele>0.0</ele><time>2026-04-29T21:07:21.996Z</time></trkpt><trkpt lat="39.3428524" lon="0.8876687"><ele>0.0</ele><time>2026-04-29T21:07:22.996Z</time></trkpt><trkpt lat="39.3429958" lon="0.8877957"><ele>0.0</ele><time>2026-04-29T21:07:24.996Z</time></trkpt><trkpt lat="39.3430676" lon="0.8878477"><ele>0.0</ele><time>2026-04-29T21:07:25.997Z</time></trkpt><trkpt lat="39.3431445" lon="0.8879111"><ele>0.0</ele><time>2026-04-29T21:07:26.996Z</time></trkpt><trkpt lat="39.3432187" lon="0.8879715"><ele>0.0</ele><time>2026-04-29T21:07:27.997Z</time></trkpt><trkpt lat="39.3432988" lon="0.8880329"><ele>0.0</ele><time>2026-04-29T21:07:28.997Z</time></trkpt><trkpt lat="39.3433752" lon="0.888087"><ele>0.0</ele><time>2026-04-29T21:07:29.997Z</time></trkpt><trkpt lat="39.3434562" lon="0.8881458"><ele>0.0</ele><time>2026-04-29T21:07:30.997Z</time></trkpt><trkpt lat="39.343535" lon="0.8882011"><ele>0.0</ele><time>2026-04-29T21:07:31.996Z</time></trkpt><trkpt lat="39.3436132" lon="0.888251"><ele>0.0</ele><time>2026-04-29T21:07:32.996Z</time></trkpt><trkpt lat="39.3436902" lon="0.888305"><ele>0.0</ele><time>2026-04-29T21:07:33.997Z</time></trkpt><trkpt lat="39.3437651" lon="0.8883675"><ele>0.0</ele><time>2026-04-29T21:07:34.996Z</time></trkpt><trkpt lat="39.3438402" lon="0.8884291"><ele>0.0</ele><time>2026-04-29T21:07:35.996Z</time></trkpt><trkpt lat="39.3439127" lon="0.8884846"><ele>0.0</ele><time>2026-04-29T21:07:36.997Z</time></trkpt><trkpt lat="39.3439843" lon="0.8885442"><ele>0.0</ele><time>2026-04-29T21:07:37.996Z</time></trkpt><trkpt lat="39.3440589" lon="0.8885994"><ele>0.0</ele><time>2026-04-29T21:07:38.997Z</time></trkpt><trkpt lat="39.3441349" lon="0.8886604"><ele>0.0</ele><time>2026-04-29T21:07:39.996Z</time></trkpt><trkpt lat="39.3442131" lon="0.8887221"><ele>0.0</ele><time>2026-04-29T21:07:40.996Z</time></trkpt><trkpt lat="39.344294" lon="0.8887728"><ele>0.0</ele><time>2026-04-29T21:07:41.997Z</time></trkpt><trkpt lat="39.3443699" lon="0.8888242"><ele>0.0</ele><time>2026-04-29T21:07:42.997Z</time></trkpt><trkpt lat="39.3444438" lon="0.8888703"><ele>0.0</ele><time>2026-04-29T21:07:43.996Z</time></trkpt><trkpt lat="39.3445941" lon="0.888968"><ele>0.0</ele><time>2026-04-29T21:07:45.996Z</time></trkpt><trkpt lat="39.3446639" lon="0.8890151"><ele>0.0</ele><time>2026-04-29T21:07:46.997Z</time></trkpt><trkpt lat="39.3447398" lon="0.8890614"><ele>0.0</ele><time>2026-04-29T21:07:47.996Z</time></trkpt><trkpt lat="39.3448169" lon="0.8891132"><ele>0.0</ele><time>2026-04-29T21:07:48.997Z</time></trkpt><trkpt lat="39.3448933" lon="0.8891655"><ele>0.0</ele><time>2026-04-29T21:07:49.997Z</time></trkpt><trkpt lat="39.3449688" lon="0.8892171"><ele>0.0</ele><time>2026-04-29T21:07:50.997Z</time></trkpt><trkpt lat="39.3450395" lon="0.8892746"><ele>0.0</ele><time>2026-04-29T21:07:51.997Z</time></trkpt><trkpt lat="39.345115" lon="0.8893309"><ele>0.0</ele><time>2026-04-29T21:07:52.997Z</time></trkpt><trkpt lat="39.3451902" lon="0.8893794"><ele>0.0</ele><time>2026-04-29T21:07:53.996Z</time></trkpt><trkpt lat="39.3452667" lon="0.8894363"><ele>0.0</ele><time>2026-04-29T21:07:54.997Z</time></trkpt><trkpt lat="39.345342" lon="0.8894959"><ele>0.0</ele><time>2026-04-29T21:07:55.997Z</time></trkpt><trkpt lat="39.3454212" lon="0.8895529"><ele>0.0</ele><time>2026-04-29T21:07:56.996Z</time></trkpt><trkpt lat="39.3454996" lon="0.8895984"><ele>0.0</ele><time>2026-04-29T21:07:57.996Z</time></trkpt><trkpt lat="39.3455825" lon="0.8896486"><ele>0.0</ele><time>2026-04-29T21:07:58.996Z</time></trkpt><trkpt lat="39.345664" lon="0.8897044"><ele>0.0</ele><time>2026-04-29T21:07:59.997Z</time></trkpt><trkpt lat="39.3457484" lon="0.8897574"><ele>0.0</ele><time>2026-04-29T21:08:00.996Z</time></trkpt><trkpt lat="39.3458275" lon="0.8898165"><ele>0.0</ele><time>2026-04-29T21:08:01.996Z</time></trkpt><trkpt lat="39.3459044" lon="0.889879"><ele>0.0</ele><time>2026-04-29T21:08:02.997Z</time></trkpt><trkpt lat="39.3459786" lon="0.8899408"><ele>0.0</ele><time>2026-04-29T21:08:03.996Z</time></trkpt><trkpt lat="39.3460475" lon="0.8900073"><ele>0.0</ele><time>2026-04-29T21:08:04.997Z</time></trkpt><trkpt lat="39.3461205" lon="0.8900648"><ele>0.0</ele><time>2026-04-29T21:08:05.997Z</time></trkpt><trkpt lat="39.3462793" lon="0.8901891"><ele>0.0</ele><time>2026-04-29T21:08:07.996Z</time></trkpt><trkpt lat="39.3463534" lon="0.8902435"><ele>0.0</ele><time>2026-04-29T21:08:08.997Z</time></trkpt><trkpt lat="39.3464323" lon="0.8903001"><ele>0.0</ele><time>2026-04-29T21:08:09.997Z</time></trkpt><trkpt lat="39.3465111" lon="0.890358"><ele>0.0</ele><time>2026-04-29T21:08:10.997Z</time></trkpt><trkpt lat="39.3465907" lon="0.8904108"><ele>0.0</ele><time>2026-04-29T21:08:11.997Z</time></trkpt><trkpt lat="39.3466696" lon="0.8904582"><ele>0.0</ele><time>2026-04-29T21:08:12.997Z</time></trkpt><trkpt lat="39.3467449" lon="0.8905092"><ele>0.0</ele><time>2026-04-29T21:08:13.996Z</time></trkpt><trkpt lat="39.3468186" lon="0.8905704"><ele>0.0</ele><time>2026-04-29T21:08:14.996Z</time></trkpt><trkpt lat="39.3468933" lon="0.8906302"><ele>0.0</ele><time>2026-04-29T21:08:15.996Z</time></trkpt><trkpt lat="39.3469686" lon="0.8906865"><ele>0.0</ele><time>2026-04-29T21:08:16.996Z</time></trkpt><trkpt lat="39.3470397" lon="0.8907482"><ele>0.0</ele><time>2026-04-29T21:08:17.996Z</time></trkpt><trkpt lat="39.3471082" lon="0.8908033"><ele>0.0</ele><time>2026-04-29T21:08:18.996Z</time></trkpt><trkpt lat="39.3471779" lon="0.8908604"><ele>0.0</ele><time>2026-04-29T21:08:19.997Z</time></trkpt><trkpt lat="39.3472564" lon="0.8909228"><ele>0.0</ele><time>2026-04-29T21:08:20.996Z</time></trkpt><trkpt lat="39.3473262" lon="0.8909842"><ele>0.0</ele><time>2026-04-29T21:08:21.996Z</time></trkpt><trkpt lat="39.3474001" lon="0.8910375"><ele>0.0</ele><time>2026-04-29T21:08:22.996Z</time></trkpt><trkpt lat="39.3474754" lon="0.8910901"><ele>0.0</ele><time>2026-04-29T21:08:23.996Z</time></trkpt><trkpt lat="39.3475486" lon="0.8911406"><ele>0.0</ele><time>2026-04-29T21:08:24.996Z</time></trkpt><trkpt lat="39.3476235" lon="0.891189"><ele>0.0</ele><time>2026-04-29T21:08:25.996Z</time></trkpt><trkpt lat="39.3476955" lon="0.8912337"><ele>0.0</ele><time>2026-04-29T21:08:26.996Z</time></trkpt><trkpt lat="39.3478512" lon="0.8913274"><ele>0.0</ele><time>2026-04-29T21:08:28.997Z</time></trkpt><trkpt lat="39.3479296" lon="0.8913824"><ele>0.0</ele><time>2026-04-29T21:08:29.997Z</time></trkpt><trkpt lat="39.3480082" lon="0.8914401"><ele>0.0</ele><time>2026-04-29T21:08:30.996Z</time></trkpt><trkpt lat="39.3480809" lon="0.8914926"><ele>0.0</ele><time>2026-04-29T21:08:31.997Z</time></trkpt><trkpt lat="39.3481555" lon="0.8915459"><ele>0.0</ele><time>2026-04-29T21:08:32.996Z</time></trkpt><trkpt lat="39.3482275" lon="0.8916051"><ele>0.0</ele><time>2026-04-29T21:08:33.996Z</time></trkpt><trkpt lat="39.3482985" lon="0.8916651"><ele>0.0</ele><time>2026-04-29T21:08:34.997Z</time></trkpt><trkpt lat="39.3483817" lon="0.8917255"><ele>0.0</ele><time>2026-04-29T21:08:35.997Z</time></trkpt><trkpt lat="39.3484621" lon="0.8917889"><ele>0.0</ele><time>2026-04-29T21:08:36.997Z</time></trkpt><trkpt lat="39.3485424" lon="0.8918465"><ele>0.0</ele><time>2026-04-29T21:08:37.997Z</time></trkpt><trkpt lat="39.3486123" lon="0.8918934"><ele>0.0</ele><time>2026-04-29T21:08:38.996Z</time></trkpt><trkpt lat="39.3486825" lon="0.8919396"><ele>0.0</ele><time>2026-04-29T21:08:39.996Z</time></trkpt><trkpt lat="39.3487555" lon="0.8920012"><ele>0.0</ele><time>2026-04-29T21:08:40.996Z</time></trkpt><trkpt lat="39.3488302" lon="0.8920551"><ele>0.0</ele><time>2026-04-29T21:08:41.996Z</time></trkpt><trkpt lat="39.3489011" lon="0.8921069"><ele>0.0</ele><time>2026-04-29T21:08:42.997Z</time></trkpt><trkpt lat="39.348978" lon="0.8921626"><ele>0.0</ele><time>2026-04-29T21:08:43.996Z</time></trkpt><trkpt lat="39.3490507" lon="0.8922239"><ele>0.0</ele><time>2026-04-29T21:08:44.996Z</time></trkpt><trkpt lat="39.3491238" lon="0.8922688"><ele>0.0</ele><time>2026-04-29T21:08:45.996Z</time></trkpt><trkpt lat="39.3491972" lon="0.8923188"><ele>0.0</ele><time>2026-04-29T21:08:46.996Z</time></trkpt><trkpt lat="39.349273" lon="0.8923703"><ele>0.0</ele><time>2026-04-29T21:08:47.996Z</time></trkpt><trkpt lat="39.3494399" lon="0.8924751"><ele>0.0</ele><time>2026-04-29T21:08:49.996Z</time></trkpt><trkpt lat="39.3495237" lon="0.8925308"><ele>0.0</ele><time>2026-04-29T21:08:50.996Z</time></trkpt><trkpt lat="39.3496039" lon="0.892583"><ele>0.0</ele><time>2026-04-29T21:08:51.997Z</time></trkpt><trkpt lat="39.3496819" lon="0.8926347"><ele>0.0</ele><time>2026-04-29T21:08:52.996Z</time></trkpt><trkpt lat="39.349757" lon="0.892691"><ele>0.0</ele><time>2026-04-29T21:08:53.996Z</time></trkpt><trkpt lat="39.3498348" lon="0.8927476"><ele>0.0</ele><time>2026-04-29T21:08:54.996Z</time></trkpt><trkpt lat="39.3499129" lon="0.8927975"><ele>0.0</ele><time>2026-04-29T21:08:55.996Z</time></trkpt><trkpt lat="39.3499899" lon="0.8928528"><ele>0.0</ele><time>2026-04-29T21:08:56.996Z</time></trkpt><trkpt lat="39.350071" lon="0.8929125"><ele>0.0</ele><time>2026-04-29T21:08:57.997Z</time></trkpt><trkpt lat="39.3501497" lon="0.8929669"><ele>0.0</ele><time>2026-04-29T21:08:58.997Z</time></trkpt><trkpt lat="39.3502238" lon="0.8930175"><ele>0.0</ele><time>2026-04-29T21:08:59.997Z</time></trkpt><trkpt lat="39.3502985" lon="0.8930714"><ele>0.0</ele><time>2026-04-29T21:09:00.996Z</time></trkpt><trkpt lat="39.3503721" lon="0.8931308"><ele>0.0</ele><time>2026-04-29T21:09:01.997Z</time></trkpt><trkpt lat="39.3504496" lon="0.8931892"><ele>0.0</ele><time>2026-04-29T21:09:02.996Z</time></trkpt><trkpt lat="39.3505238" lon="0.8932449"><ele>0.0</ele><time>2026-04-29T21:09:03.996Z</time></trkpt><trkpt lat="39.3506027" lon="0.8933047"><ele>0.0</ele><time>2026-04-29T21:09:04.997Z</time></trkpt><trkpt lat="39.3506785" lon="0.8933558"><ele>0.0</ele><time>2026-04-29T21:09:05.996Z</time></trkpt><trkpt lat="39.350748" lon="0.8934115"><ele>0.0</ele><time>2026-04-29T21:09:06.996Z</time></trkpt><trkpt lat="39.3508204" lon="0.8934639"><ele>0.0</ele><time>2026-04-29T21:09:07.996Z</time></trkpt><trkpt lat="39.3508966" lon="0.8935141"><ele>0.0</ele><time>2026-04-29T21:09:08.997Z</time></trkpt><trkpt lat="39.3509759" lon="0.8935559"><ele>0.0</ele><time>2026-04-29T21:09:09.996Z</time></trkpt><trkpt lat="39.3511304" lon="0.8936526"><ele>0.0</ele><time>2026-04-29T21:09:11.996Z</time></trkpt><trkpt lat="39.3512093" lon="0.8937049"><ele>0.0</ele><time>2026-04-29T21:09:12.997Z</time></trkpt><trkpt lat="39.3512795" lon="0.8937568"><ele>0.0</ele><time>2026-04-29T21:09:13.997Z</time></trkpt><trkpt lat="39.3513537" lon="0.8938127"><ele>0.0</ele><time>2026-04-29T21:09:14.997Z</time></trkpt><trkpt lat="39.3514287" lon="0.8938662"><ele>0.0</ele><time>2026-04-29T21:09:15.996Z</time></trkpt><trkpt lat="39.3515049" lon="0.8939183"><ele>0.0</ele><time>2026-04-29T21:09:16.996Z</time></trkpt><trkpt lat="39.3515845" lon="0.8939606"><ele>0.0</ele><time>2026-04-29T21:09:17.996Z</time></trkpt><trkpt lat="39.3516632" lon="0.8940079"><ele>0.0</ele><time>2026-04-29T21:09:18.996Z</time></trkpt><trkpt lat="39.3517357" lon="0.8940551"><ele>0.0</ele><time>2026-04-29T21:09:19.996Z</time></trkpt><trkpt lat="39.3518158" lon="0.8940986"><ele>0.0</ele><time>2026-04-29T21:09:20.996Z</time></trkpt><trkpt lat="39.3518986" lon="0.8941447"><ele>0.0</ele><time>2026-04-29T21:09:21.997Z</time></trkpt><trkpt lat="39.3519749" lon="0.894201"><ele>0.0</ele><time>2026-04-29T21:09:22.997Z</time></trkpt><trkpt lat="39.3520527" lon="0.8942524"><ele>0.0</ele><time>2026-04-29T21:09:23.997Z</time></trkpt><trkpt lat="39.3521252" lon="0.8943"><ele>0.0</ele><time>2026-04-29T21:09:24.996Z</time></trkpt><trkpt lat="39.3522015" lon="0.894352"><ele>0.0</ele><time>2026-04-29T21:09:25.997Z</time></trkpt><trkpt lat="39.3522795" lon="0.8944051"><ele>0.0</ele><time>2026-04-29T21:09:26.997Z</time></trkpt><trkpt lat="39.352355" lon="0.8944581"><ele>0.0</ele><time>2026-04-29T21:09:27.997Z</time></trkpt><trkpt lat="39.3524259" lon="0.8945115"><ele>0.0</ele><time>2026-04-29T21:09:28.997Z</time></trkpt><trkpt lat="39.3524982" lon="0.8945692"><ele>0.0</ele><time>2026-04-29T21:09:29.996Z</time></trkpt><trkpt lat="39.3525746" lon="0.8946313"><ele>0.0</ele><time>2026-04-29T21:09:30.996Z</time></trkpt><trkpt lat="39.352725" lon="0.894773"><ele>0.0</ele><time>2026-04-29T21:09:32.996Z</time></trkpt><trkpt lat="39.3528029" lon="0.894858"><ele>0.0</ele><time>2026-04-29T21:09:33.997Z</time></trkpt><trkpt lat="39.3528825" lon="0.8949416"><ele>0.0</ele><time>2026-04-29T21:09:34.996Z</time></trkpt><trkpt lat="39.3529316" lon="0.8950051"><ele>0.0</ele><time>2026-04-29T21:09:35.996Z</time></trkpt><trkpt lat="39.3530024" lon="0.8950847"><ele>0.0</ele><time>2026-04-29T21:09:36.996Z</time></trkpt><trkpt lat="39.3530724" lon="0.8951407"><ele>0.0</ele><time>2026-04-29T21:09:37.997Z</time></trkpt><trkpt lat="39.3531456" lon="0.8952162"><ele>0.0</ele><time>2026-04-29T21:09:38.996Z</time></trkpt><trkpt lat="39.3532202" lon="0.8952922"><ele>0.0</ele><time>2026-04-29T21:09:39.996Z</time></trkpt><trkpt lat="39.3533021" lon="0.8953575"><ele>0.0</ele><time>2026-04-29T21:09:40.996Z</time></trkpt><trkpt lat="39.3533823" lon="0.8954376"><ele>0.0</ele><time>2026-04-29T21:09:41.997Z</time></trkpt><trkpt lat="39.3534598" lon="0.8955192"><ele>0.0</ele><time>2026-04-29T21:09:42.997Z</time></trkpt><trkpt lat="39.353535" lon="0.8955997"><ele>0.0</ele><time>2026-04-29T21:09:43.996Z</time></trkpt><trkpt lat="39.3536114" lon="0.8956572"><ele>0.0</ele><time>2026-04-29T21:09:44.997Z</time></trkpt><trkpt lat="39.353697" lon="0.8957081"><ele>0.0</ele><time>2026-04-29T21:09:45.996Z</time></trkpt><trkpt lat="39.3537748" lon="0.895757"><ele>0.0</ele><time>2026-04-29T21:09:46.997Z</time></trkpt><trkpt lat="39.3538515" lon="0.8958028"><ele>0.0</ele><time>2026-04-29T21:09:47.996Z</time></trkpt><trkpt lat="39.3539343" lon="0.8958406"><ele>0.0</ele><time>2026-04-29T21:09:48.997Z</time></trkpt><trkpt lat="39.3540147" lon="0.8958915"><ele>0.0</ele><time>2026-04-29T21:09:49.996Z</time></trkpt><trkpt lat="39.3540891" lon="0.8959426"><ele>0.0</ele><time>2026-04-29T21:09:50.997Z</time></trkpt><trkpt lat="39.3541638" lon="0.895998"><ele>0.0</ele><time>2026-04-29T21:09:51.996Z</time></trkpt><trkpt lat="39.3543146" lon="0.8961019"><ele>0.0</ele><time>2026-04-29T21:09:53.997Z</time></trkpt><trkpt lat="39.3543918" lon="0.8961494"><ele>0.0</ele><time>2026-04-29T21:09:54.996Z</time></trkpt><trkpt lat="39.3544712" lon="0.8961961"><ele>0.0</ele><time>2026-04-29T21:09:55.997Z</time></trkpt><trkpt lat="39.3545455" lon="0.89624"><ele>0.0</ele><time>2026-04-29T21:09:56.996Z</time></trkpt><trkpt lat="39.3546218" lon="0.8962904"><ele>0.0</ele><time>2026-04-29T21:09:57.996Z</time></trkpt><trkpt lat="39.3546971" lon="0.8963409"><ele>0.0</ele><time>2026-04-29T21:09:58.996Z</time></trkpt><trkpt lat="39.3547694" lon="0.8963905"><ele>0.0</ele><time>2026-04-29T21:09:59.997Z</time></trkpt><trkpt lat="39.3548437" lon="0.8964439"><ele>0.0</ele><time>2026-04-29T21:10:00.996Z</time></trkpt><trkpt lat="39.3549176" lon="0.8964923"><ele>0.0</ele><time>2026-04-29T21:10:01.996Z</time></trkpt><trkpt lat="39.3549992" lon="0.8965462"><ele>0.0</ele><time>2026-04-29T21:10:02.997Z</time></trkpt><trkpt lat="39.3550765" lon="0.8966051"><ele>0.0</ele><time>2026-04-29T21:10:03.997Z</time></trkpt><trkpt lat="39.3551535" lon="0.8966609"><ele>0.0</ele><time>2026-04-29T21:10:04.996Z</time></trkpt><trkpt lat="39.3552277" lon="0.8967244"><ele>0.0</ele><time>2026-04-29T21:10:05.997Z</time></trkpt><trkpt lat="39.355305" lon="0.8967824"><ele>0.0</ele><time>2026-04-29T21:10:06.996Z</time></trkpt><trkpt lat="39.3553863" lon="0.8968283"><ele>0.0</ele><time>2026-04-29T21:10:07.996Z</time></trkpt><trkpt lat="39.3554661" lon="0.8968777"><ele>0.0</ele><time>2026-04-29T21:10:08.997Z</time></trkpt><trkpt lat="39.3555402" lon="0.8969348"><ele>0.0</ele><time>2026-04-29T21:10:09.996Z</time></trkpt><trkpt lat="39.3556191" lon="0.8969957"><ele>0.0</ele><time>2026-04-29T21:10:10.996Z</time></trkpt><trkpt lat="39.3556939" lon="0.8970432"><ele>0.0</ele><time>2026-04-29T21:10:11.996Z</time></trkpt><trkpt lat="39.3557741" lon="0.8970754"><ele>0.0</ele><time>2026-04-29T21:10:12.996Z</time></trkpt><trkpt lat="39.3558488" lon="0.8971123"><ele>0.0</ele><time>2026-04-29T21:10:13.995Z</time></trkpt><trkpt lat="39.3559999" lon="0.8972166"><ele>0.0</ele><time>2026-04-29T21:10:15.996Z</time></trkpt><trkpt lat="39.3560764" lon="0.8972739"><ele>0.0</ele><time>2026-04-29T21:10:16.996Z</time></trkpt><trkpt lat="39.3561562" lon="0.8973323"><ele>0.0</ele><time>2026-04-29T21:10:17.996Z</time></trkpt><trkpt lat="39.3562334" lon="0.8973869"><ele>0.0</ele><time>2026-04-29T21:10:18.995Z</time></trkpt><trkpt lat="39.3563071" lon="0.8974346"><ele>0.0</ele><time>2026-04-29T21:10:19.996Z</time></trkpt><trkpt lat="39.3563805" lon="0.8974849"><ele>0.0</ele><time>2026-04-29T21:10:20.996Z</time></trkpt><trkpt lat="39.3564552" lon="0.8975413"><ele>0.0</ele><time>2026-04-29T21:10:21.996Z</time></trkpt><trkpt lat="39.3565233" lon="0.8975973"><ele>0.0</ele><time>2026-04-29T21:10:22.995Z</time></trkpt><trkpt lat="39.3566002" lon="0.8976562"><ele>0.0</ele><time>2026-04-29T21:10:23.996Z</time></trkpt><trkpt lat="39.3566765" lon="0.8977086"><ele>0.0</ele><time>2026-04-29T21:10:24.996Z</time></trkpt><trkpt lat="39.356746" lon="0.8977565"><ele>0.0</ele><time>2026-04-29T21:10:25.995Z</time></trkpt><trkpt lat="39.3568228" lon="0.897799"><ele>0.0</ele><time>2026-04-29T21:10:26.995Z</time></trkpt><trkpt lat="39.3569012" lon="0.8978463"><ele>0.0</ele><time>2026-04-29T21:10:27.995Z</time></trkpt><trkpt lat="39.3569738" lon="0.8979039"><ele>0.0</ele><time>2026-04-29T21:10:28.995Z</time></trkpt><trkpt lat="39.3570486" lon="0.8979583"><ele>0.0</ele><time>2026-04-29T21:10:29.995Z</time></trkpt><trkpt lat="39.3571229" lon="0.8980106"><ele>0.0</ele><time>2026-04-29T21:10:30.996Z</time></trkpt><trkpt lat="39.3571996" lon="0.8980761"><ele>0.0</ele><time>2026-04-29T21:10:31.995Z</time></trkpt><trkpt lat="39.3572765" lon="0.8981312"><ele>0.0</ele><time>2026-04-29T21:10:32.996Z</time></trkpt><trkpt lat="39.3573518" lon="0.8981851"><ele>0.0</ele><time>2026-04-29T21:10:33.996Z</time></trkpt><trkpt lat="39.3574253" lon="0.898243"><ele>0.0</ele><time>2026-04-29T21:10:34.995Z</time></trkpt><trkpt lat="39.3575784" lon="0.8983557"><ele>0.0</ele><time>2026-04-29T21:10:36.995Z</time></trkpt><trkpt lat="39.357655" lon="0.8984119"><ele>0.0</ele><time>2026-04-29T21:10:37.995Z</time></trkpt><trkpt lat="39.3577331" lon="0.8984625"><ele>0.0</ele><time>2026-04-29T21:10:38.995Z</time></trkpt><trkpt lat="39.3578098" lon="0.8985138"><ele>0.0</ele><time>2026-04-29T21:10:39.996Z</time></trkpt><trkpt lat="39.3578894" lon="0.8985722"><ele>0.0</ele><time>2026-04-29T21:10:40.995Z</time></trkpt><trkpt lat="39.3579694" lon="0.8986271"><ele>0.0</ele><time>2026-04-29T21:10:41.996Z</time></trkpt><trkpt lat="39.3580467" lon="0.8986818"><ele>0.0</ele><time>2026-04-29T21:10:42.995Z</time></trkpt><trkpt lat="39.3581234" lon="0.8987504"><ele>0.0</ele><time>2026-04-29T21:10:43.996Z</time></trkpt><trkpt lat="39.3581985" lon="0.8988075"><ele>0.0</ele><time>2026-04-29T21:10:44.996Z</time></trkpt><trkpt lat="39.358278" lon="0.8988514"><ele>0.0</ele><time>2026-04-29T21:10:45.995Z</time></trkpt><trkpt lat="39.3583577" lon="0.8988968"><ele>0.0</ele><time>2026-04-29T21:10:46.996Z</time></trkpt><trkpt lat="39.3584336" lon="0.8989518"><ele>0.0</ele><time>2026-04-29T21:10:47.996Z</time></trkpt><trkpt lat="39.3585071" lon="0.8990221"><ele>0.0</ele><time>2026-04-29T21:10:48.995Z</time></trkpt><trkpt lat="39.3585779" lon="0.8990895"><ele>0.0</ele><time>2026-04-29T21:10:49.996Z</time></trkpt><trkpt lat="39.358651" lon="0.8991437"><ele>0.0</ele><time>2026-04-29T21:10:50.996Z</time></trkpt><trkpt lat="39.3587282" lon="0.8992022"><ele>0.0</ele><time>2026-04-29T21:10:51.996Z</time></trkpt><trkpt lat="39.3588077" lon="0.8992483"><ele>0.0</ele><time>2026-04-29T21:10:52.995Z</time></trkpt><trkpt lat="39.3588822" lon="0.899296"><ele>0.0</ele><time>2026-04-29T21:10:53.995Z</time></trkpt><trkpt lat="39.3589614" lon="0.8993442"><ele>0.0</ele><time>2026-04-29T21:10:54.995Z</time></trkpt><trkpt lat="39.3590369" lon="0.8993981"><ele>0.0</ele><time>2026-04-29T21:10:55.996Z</time></trkpt><trkpt lat="39.3591834" lon="0.899514"><ele>0.0</ele><time>2026-04-29T21:10:57.996Z</time></trkpt><trkpt lat="39.3592582" lon="0.8995685"><ele>0.0</ele><time>2026-04-29T21:10:58.995Z</time></trkpt><trkpt lat="39.3593387" lon="0.8996349"><ele>0.0</ele><time>2026-04-29T21:10:59.995Z</time></trkpt><trkpt lat="39.3594219" lon="0.8997014"><ele>0.0</ele><time>2026-04-29T21:11:00.996Z</time></trkpt><trkpt lat="39.3594937" lon="0.899757"><ele>0.0</ele><time>2026-04-29T21:11:01.995Z</time></trkpt><trkpt lat="39.3595669" lon="0.8998132"><ele>0.0</ele><time>2026-04-29T21:11:02.995Z</time></trkpt><trkpt lat="39.3596403" lon="0.8998685"><ele>0.0</ele><time>2026-04-29T21:11:03.995Z</time></trkpt><trkpt lat="39.3597135" lon="0.8999209"><ele>0.0</ele><time>2026-04-29T21:11:04.996Z</time></trkpt><trkpt lat="39.3597867" lon="0.8999754"><ele>0.0</ele><time>2026-04-29T21:11:05.996Z</time></trkpt><trkpt lat="39.3598574" lon="0.9000319"><ele>0.0</ele><time>2026-04-29T21:11:06.995Z</time></trkpt><trkpt lat="39.3599302" lon="0.9000822"><ele>0.0</ele><time>2026-04-29T21:11:07.996Z</time></trkpt><trkpt lat="39.3600093" lon="0.9001352"><ele>0.0</ele><time>2026-04-29T21:11:08.996Z</time></trkpt><trkpt lat="39.3600821" lon="0.9001829"><ele>0.0</ele><time>2026-04-29T21:11:09.995Z</time></trkpt><trkpt lat="39.3601595" lon="0.9002397"><ele>0.0</ele><time>2026-04-29T21:11:10.996Z</time></trkpt><trkpt lat="39.3602365" lon="0.9003009"><ele>0.0</ele><time>2026-04-29T21:11:11.995Z</time></trkpt><trkpt lat="39.3603176" lon="0.9003492"><ele>0.0</ele><time>2026-04-29T21:11:12.995Z</time></trkpt><trkpt lat="39.3603949" lon="0.9004021"><ele>0.0</ele><time>2026-04-29T21:11:13.996Z</time></trkpt><trkpt lat="39.3604744" lon="0.9004482"><ele>0.0</ele><time>2026-04-29T21:11:14.996Z</time></trkpt><trkpt lat="39.3605472" lon="0.9005043"><ele>0.0</ele><time>2026-04-29T21:11:15.996Z</time></trkpt><trkpt lat="39.3606189" lon="0.9005639"><ele>0.0</ele><time>2026-04-29T21:11:16.996Z</time></trkpt><trkpt lat="39.360689" lon="0.9006226"><ele>0.0</ele><time>2026-04-29T21:11:17.995Z</time></trkpt><trkpt lat="39.3608397" lon="0.9007289"><ele>0.0</ele><time>2026-04-29T21:11:19.996Z</time></trkpt><trkpt lat="39.3609151" lon="0.9007816"><ele>0.0</ele><time>2026-04-29T21:11:20.996Z</time></trkpt><trkpt lat="39.3609914" lon="0.9008333"><ele>0.0</ele><time>2026-04-29T21:11:21.996Z</time></trkpt><trkpt lat="39.3610689" lon="0.9008824"><ele>0.0</ele><time>2026-04-29T21:11:22.995Z</time></trkpt><trkpt lat="39.3611435" lon="0.9009406"><ele>0.0</ele><time>2026-04-29T21:11:23.995Z</time></trkpt><trkpt lat="39.3612157" lon="0.9010017"><ele>0.0</ele><time>2026-04-29T21:11:24.996Z</time></trkpt><trkpt lat="39.3612914" lon="0.9010591"><ele>0.0</ele><time>2026-04-29T21:11:25.995Z</time></trkpt><trkpt lat="39.3613743" lon="0.9011208"><ele>0.0</ele><time>2026-04-29T21:11:26.995Z</time></trkpt><trkpt lat="39.3614558" lon="0.9011835"><ele>0.0</ele><time>2026-04-29T21:11:27.996Z</time></trkpt><trkpt lat="39.3615287" lon="0.9012393"><ele>0.0</ele><time>2026-04-29T21:11:28.995Z</time></trkpt><trkpt lat="39.3616047" lon="0.9013031"><ele>0.0</ele><time>2026-04-29T21:11:29.995Z</time></trkpt><trkpt lat="39.3616776" lon="0.9013605"><ele>0.0</ele><time>2026-04-29T21:11:30.996Z</time></trkpt><trkpt lat="39.3617565" lon="0.901419"><ele>0.0</ele><time>2026-04-29T21:11:31.996Z</time></trkpt><trkpt lat="39.3618372" lon="0.9014803"><ele>0.0</ele><time>2026-04-29T21:11:32.995Z</time></trkpt><trkpt lat="39.3619135" lon="0.9015274"><ele>0.0</ele><time>2026-04-29T21:11:33.995Z</time></trkpt><trkpt lat="39.3619872" lon="0.9015779"><ele>0.0</ele><time>2026-04-29T21:11:34.995Z</time></trkpt><trkpt lat="39.3620566" lon="0.9016313"><ele>0.0</ele><time>2026-04-29T21:11:35.995Z</time></trkpt><trkpt lat="39.3621292" lon="0.9016769"><ele>0.0</ele><time>2026-04-29T21:11:36.996Z</time></trkpt><trkpt lat="39.3622011" lon="0.9017322"><ele>0.0</ele><time>2026-04-29T21:11:37.995Z</time></trkpt><trkpt lat="39.362277" lon="0.9017816"><ele>0.0</ele><time>2026-04-29T21:11:38.995Z</time></trkpt><trkpt lat="39.3624209" lon="0.9018525"><ele>0.0</ele><time>2026-04-29T21:11:40.995Z</time></trkpt><trkpt lat="39.3624956" lon="0.9019063"><ele>0.0</ele><time>2026-04-29T21:11:41.995Z</time></trkpt><trkpt lat="39.3625732" lon="0.9019546"><ele>0.0</ele><time>2026-04-29T21:11:42.996Z</time></trkpt><trkpt lat="39.36265" lon="0.9020026"><ele>0.0</ele><time>2026-04-29T21:11:43.996Z</time></trkpt><trkpt lat="39.3627281" lon="0.9020509"><ele>0.0</ele><time>2026-04-29T21:11:44.995Z</time></trkpt><trkpt lat="39.3628009" lon="0.9020959"><ele>0.0</ele><time>2026-04-29T21:11:45.995Z</time></trkpt><trkpt lat="39.3628743" lon="0.9021483"><ele>0.0</ele><time>2026-04-29T21:11:46.995Z</time></trkpt><trkpt lat="39.3629531" lon="0.9022028"><ele>0.0</ele><time>2026-04-29T21:11:47.996Z</time></trkpt><trkpt lat="39.3630255" lon="0.9022638"><ele>0.0</ele><time>2026-04-29T21:11:48.995Z</time></trkpt><trkpt lat="39.3631019" lon="0.9023221"><ele>0.0</ele><time>2026-04-29T21:11:49.996Z</time></trkpt><trkpt lat="39.3631816" lon="0.9023766"><ele>0.0</ele><time>2026-04-29T21:11:50.995Z</time></trkpt><trkpt lat="39.3632556" lon="0.9024286"><ele>0.0</ele><time>2026-04-29T21:11:51.995Z</time></trkpt><trkpt lat="39.3633318" lon="0.9024817"><ele>0.0</ele><time>2026-04-29T21:11:52.995Z</time></trkpt><trkpt lat="39.3634184" lon="0.9025365"><ele>0.0</ele><time>2026-04-29T21:11:53.995Z</time></trkpt><trkpt lat="39.3634881" lon="0.9025889"><ele>0.0</ele><time>2026-04-29T21:11:54.995Z</time></trkpt><trkpt lat="39.3635608" lon="0.9026382"><ele>0.0</ele><time>2026-04-29T21:11:55.996Z</time></trkpt><trkpt lat="39.3636369" lon="0.9026864"><ele>0.0</ele><time>2026-04-29T21:11:56.996Z</time></trkpt><trkpt lat="39.3637177" lon="0.9027417"><ele>0.0</ele><time>2026-04-29T21:11:57.995Z</time></trkpt><trkpt lat="39.363795" lon="0.9027954"><ele>0.0</ele><time>2026-04-29T21:11:58.995Z</time></trkpt><trkpt lat="39.3638748" lon="0.9028588"><ele>0.0</ele><time>2026-04-29T21:11:59.996Z</time></trkpt><trkpt lat="39.3640203" lon="0.9029632"><ele>0.0</ele><time>2026-04-29T21:12:01.995Z</time></trkpt><trkpt lat="39.3640922" lon="0.9030121"><ele>0.0</ele><time>2026-04-29T21:12:02.996Z</time></trkpt><trkpt lat="39.364173" lon="0.9030586"><ele>0.0</ele><time>2026-04-29T21:12:03.995Z</time></trkpt><trkpt lat="39.3642502" lon="0.9031055"><ele>0.0</ele><time>2026-04-29T21:12:04.996Z</time></trkpt><trkpt lat="39.3643267" lon="0.9031551"><ele>0.0</ele><time>2026-04-29T21:12:05.996Z</time></trkpt><trkpt lat="39.3644032" lon="0.9032039"><ele>0.0</ele><time>2026-04-29T21:12:06.996Z</time></trkpt><trkpt lat="39.3644741" lon="0.9032576"><ele>0.0</ele><time>2026-04-29T21:12:07.995Z</time></trkpt><trkpt lat="39.3645439" lon="0.9033202"><ele>0.0</ele><time>2026-04-29T21:12:08.996Z</time></trkpt><trkpt lat="39.3646195" lon="0.9033851"><ele>0.0</ele><time>2026-04-29T21:12:09.995Z</time></trkpt><trkpt lat="39.3646962" lon="0.9034386"><ele>0.0</ele><time>2026-04-29T21:12:10.995Z</time></trkpt><trkpt lat="39.3647717" lon="0.9034965"><ele>0.0</ele><time>2026-04-29T21:12:11.996Z</time></trkpt><trkpt lat="39.3648483" lon="0.9035562"><ele>0.0</ele><time>2026-04-29T21:12:12.996Z</time></trkpt><trkpt lat="39.3649201" lon="0.9036132"><ele>0.0</ele><time>2026-04-29T21:12:13.995Z</time></trkpt><trkpt lat="39.3650006" lon="0.9036723"><ele>0.0</ele><time>2026-04-29T21:12:14.995Z</time></trkpt><trkpt lat="39.3650809" lon="0.9037281"><ele>0.0</ele><time>2026-04-29T21:12:15.996Z</time></trkpt><trkpt lat="39.3651553" lon="0.9037832"><ele>0.0</ele><time>2026-04-29T21:12:16.995Z</time></trkpt><trkpt lat="39.3652313" lon="0.9038316"><ele>0.0</ele><time>2026-04-29T21:12:17.996Z</time></trkpt><trkpt lat="39.3653112" lon="0.9038797"><ele>0.0</ele><time>2026-04-29T21:12:18.995Z</time></trkpt><trkpt lat="39.365388" lon="0.9039351"><ele>0.0</ele><time>2026-04-29T21:12:19.996Z</time></trkpt><trkpt lat="39.3654735" lon="0.903987"><ele>0.0</ele><time>2026-04-29T21:12:20.995Z</time></trkpt><trkpt lat="39.3656219" lon="0.9040833"><ele>0.0</ele><time>2026-04-29T21:12:22.996Z</time></trkpt><trkpt lat="39.3656955" lon="0.9041327"><ele>0.0</ele><time>2026-04-29T21:12:23.996Z</time></trkpt><trkpt lat="39.3657744" lon="0.9041825"><ele>0.0</ele><time>2026-04-29T21:12:24.995Z</time></trkpt><trkpt lat="39.36585" lon="0.9042338"><ele>0.0</ele><time>2026-04-29T21:12:25.995Z</time></trkpt><trkpt lat="39.3659279" lon="0.9042798"><ele>0.0</ele><time>2026-04-29T21:12:26.995Z</time></trkpt><trkpt lat="39.3660047" lon="0.9043309"><ele>0.0</ele><time>2026-04-29T21:12:27.995Z</time></trkpt><trkpt lat="39.3660813" lon="0.9043867"><ele>0.0</ele><time>2026-04-29T21:12:28.995Z</time></trkpt><trkpt lat="39.3661536" lon="0.9044434"><ele>0.0</ele><time>2026-04-29T21:12:29.996Z</time></trkpt><trkpt lat="39.3662296" lon="0.9045016"><ele>0.0</ele><time>2026-04-29T21:12:30.996Z</time></trkpt><trkpt lat="39.3663059" lon="0.9045627"><ele>0.0</ele><time>2026-04-29T21:12:31.996Z</time></trkpt><trkpt lat="39.3663788" lon="0.9046199"><ele>0.0</ele><time>2026-04-29T21:12:32.995Z</time></trkpt><trkpt lat="39.3664548" lon="0.9046723"><ele>0.0</ele><time>2026-04-29T21:12:33.996Z</time></trkpt><trkpt lat="39.3665314" lon="0.9047354"><ele>0.0</ele><time>2026-04-29T21:12:34.996Z</time></trkpt><trkpt lat="39.3666122" lon="0.9048071"><ele>0.0</ele><time>2026-04-29T21:12:35.995Z</time></trkpt><trkpt lat="39.3666939" lon="0.9048687"><ele>0.0</ele><time>2026-04-29T21:12:36.995Z</time></trkpt><trkpt lat="39.3667728" lon="0.9049304"><ele>0.0</ele><time>2026-04-29T21:12:37.996Z</time></trkpt><trkpt lat="39.3668498" lon="0.9049949"><ele>0.0</ele><time>2026-04-29T21:12:38.996Z</time></trkpt><trkpt lat="39.366924" lon="0.9050547"><ele>0.0</ele><time>2026-04-29T21:12:39.995Z</time></trkpt><trkpt lat="39.3669986" lon="0.9051131"><ele>0.0</ele><time>2026-04-29T21:12:40.995Z</time></trkpt><trkpt lat="39.3670764" lon="0.90517"><ele>0.0</ele><time>2026-04-29T21:12:41.996Z</time></trkpt><trkpt lat="39.3672236" lon="0.9052882"><ele>0.0</ele><time>2026-04-29T21:12:43.995Z</time></trkpt><trkpt lat="39.3672954" lon="0.9053436"><ele>0.0</ele><time>2026-04-29T21:12:44.995Z</time></trkpt><trkpt lat="39.3673674" lon="0.9054"><ele>0.0</ele><time>2026-04-29T21:12:45.996Z</time></trkpt><trkpt lat="39.367446" lon="0.9054537"><ele>0.0</ele><time>2026-04-29T21:12:46.995Z</time></trkpt><trkpt lat="39.3675191" lon="0.9055029"><ele>0.0</ele><time>2026-04-29T21:12:47.995Z</time></trkpt><trkpt lat="39.3675921" lon="0.9055549"><ele>0.0</ele><time>2026-04-29T21:12:48.996Z</time></trkpt><trkpt lat="39.3676626" lon="0.9056046"><ele>0.0</ele><time>2026-04-29T21:12:49.996Z</time></trkpt><trkpt lat="39.3677397" lon="0.905663"><ele>0.0</ele><time>2026-04-29T21:12:50.996Z</time></trkpt><trkpt lat="39.3678052" lon="0.9057073"><ele>0.0</ele><time>2026-04-29T21:12:51.996Z</time></trkpt><trkpt lat="39.3678814" lon="0.9057538"><ele>0.0</ele><time>2026-04-29T21:12:52.996Z</time></trkpt><trkpt lat="39.367954" lon="0.9058045"><ele>0.0</ele><time>2026-04-29T21:12:53.995Z</time></trkpt><trkpt lat="39.3680285" lon="0.9058613"><ele>0.0</ele><time>2026-04-29T21:12:54.996Z</time></trkpt><trkpt lat="39.3681064" lon="0.9059179"><ele>0.0</ele><time>2026-04-29T21:12:55.996Z</time></trkpt><trkpt lat="39.3681845" lon="0.905977"><ele>0.0</ele><time>2026-04-29T21:12:56.995Z</time></trkpt><trkpt lat="39.3682633" lon="0.9060284"><ele>0.0</ele><time>2026-04-29T21:12:57.995Z</time></trkpt><trkpt lat="39.3683415" lon="0.9060715"><ele>0.0</ele><time>2026-04-29T21:12:58.995Z</time></trkpt><trkpt lat="39.3684137" lon="0.9061242"><ele>0.0</ele><time>2026-04-29T21:12:59.995Z</time></trkpt><trkpt lat="39.3684874" lon="0.9061772"><ele>0.0</ele><time>2026-04-29T21:13:00.996Z</time></trkpt><trkpt lat="39.3685621" lon="0.9062321"><ele>0.0</ele><time>2026-04-29T21:13:01.995Z</time></trkpt><trkpt lat="39.3686411" lon="0.9062915"><ele>0.0</ele><time>2026-04-29T21:13:02.995Z</time></trkpt><trkpt lat="39.368798" lon="0.9063808"><ele>0.0</ele><time>2026-04-29T21:13:04.996Z</time></trkpt><trkpt lat="39.3688751" lon="0.9064307"><ele>0.0</ele><time>2026-04-29T21:13:05.995Z</time></trkpt><trkpt lat="39.3689517" lon="0.9064879"><ele>0.0</ele><time>2026-04-29T21:13:06.996Z</time></trkpt><trkpt lat="39.3690296" lon="0.906541"><ele>0.0</ele><time>2026-04-29T21:13:07.996Z</time></trkpt><trkpt lat="39.3691055" lon="0.906595"><ele>0.0</ele><time>2026-04-29T21:13:08.995Z</time></trkpt><trkpt lat="39.369183" lon="0.9066545"><ele>0.0</ele><time>2026-04-29T21:13:09.995Z</time></trkpt><trkpt lat="39.3692597" lon="0.9067132"><ele>0.0</ele><time>2026-04-29T21:13:10.996Z</time></trkpt><trkpt lat="39.3693363" lon="0.9067729"><ele>0.0</ele><time>2026-04-29T21:13:11.996Z</time></trkpt><trkpt lat="39.3694148" lon="0.9068249"><ele>0.0</ele><time>2026-04-29T21:13:12.995Z</time></trkpt><trkpt lat="39.3694959" lon="0.9068627"><ele>0.0</ele><time>2026-04-29T21:13:13.995Z</time></trkpt><trkpt lat="39.3695691" lon="0.9069121"><ele>0.0</ele><time>2026-04-29T21:13:14.996Z</time></trkpt><trkpt lat="39.3696438" lon="0.9069653"><ele>0.0</ele><time>2026-04-29T21:13:15.995Z</time></trkpt><trkpt lat="39.369716" lon="0.9070001"><ele>0.0</ele><time>2026-04-29T21:13:16.996Z</time></trkpt><trkpt lat="39.3697877" lon="0.9070459"><ele>0.0</ele><time>2026-04-29T21:13:17.995Z</time></trkpt><trkpt lat="39.3698589" lon="0.9070968"><ele>0.0</ele><time>2026-04-29T21:13:18.996Z</time></trkpt><trkpt lat="39.369935" lon="0.9071439"><ele>0.0</ele><time>2026-04-29T21:13:19.996Z</time></trkpt><trkpt lat="39.3700102" lon="0.9071934"><ele>0.0</ele><time>2026-04-29T21:13:20.996Z</time></trkpt><trkpt lat="39.3700907" lon="0.9072312"><ele>0.0</ele><time>2026-04-29T21:13:21.996Z</time></trkpt><trkpt lat="39.3701666" lon="0.907285"><ele>0.0</ele><time>2026-04-29T21:13:22.996Z</time></trkpt><trkpt lat="39.3702444" lon="0.9073324"><ele>0.0</ele><time>2026-04-29T21:13:23.996Z</time></trkpt><trkpt lat="39.3703201" lon="0.9073822"><ele>0.0</ele><time>2026-04-29T21:13:24.995Z</time></trkpt><trkpt lat="39.3704668" lon="0.9074822"><ele>0.0</ele><time>2026-04-29T21:13:26.995Z</time></trkpt><trkpt lat="39.3705463" lon="0.9075287"><ele>0.0</ele><time>2026-04-29T21:13:27.995Z</time></trkpt><trkpt lat="39.3706316" lon="0.9075654"><ele>0.0</ele><time>2026-04-29T21:13:28.996Z</time></trkpt><trkpt lat="39.3707168" lon="0.9076134"><ele>0.0</ele><time>2026-04-29T21:13:29.996Z</time></trkpt><trkpt lat="39.370793" lon="0.9076685"><ele>0.0</ele><time>2026-04-29T21:13:30.996Z</time></trkpt><trkpt lat="39.3708698" lon="0.9077204"><ele>0.0</ele><time>2026-04-29T21:13:31.995Z</time></trkpt><trkpt lat="39.3709493" lon="0.907782"><ele>0.0</ele><time>2026-04-29T21:13:32.995Z</time></trkpt><trkpt lat="39.3710247" lon="0.9078469"><ele>0.0</ele><time>2026-04-29T21:13:33.996Z</time></trkpt><trkpt lat="39.3710982" lon="0.9079083"><ele>0.0</ele><time>2026-04-29T21:13:34.996Z</time></trkpt><trkpt lat="39.3711745" lon="0.9079639"><ele>0.0</ele><time>2026-04-29T21:13:35.995Z</time></trkpt><trkpt lat="39.3712557" lon="0.9080144"><ele>0.0</ele><time>2026-04-29T21:13:36.995Z</time></trkpt><trkpt lat="39.3713313" lon="0.9080611"><ele>0.0</ele><time>2026-04-29T21:13:37.995Z</time></trkpt><trkpt lat="39.3714079" lon="0.9081206"><ele>0.0</ele><time>2026-04-29T21:13:38.996Z</time></trkpt><trkpt lat="39.3714792" lon="0.9081838"><ele>0.0</ele><time>2026-04-29T21:13:39.995Z</time></trkpt><trkpt lat="39.3715536" lon="0.9082412"><ele>0.0</ele><time>2026-04-29T21:13:40.996Z</time></trkpt><trkpt lat="39.3716386" lon="0.9083111"><ele>0.0</ele><time>2026-04-29T21:13:41.996Z</time></trkpt><trkpt lat="39.3717219" lon="0.9083844"><ele>0.0</ele><time>2026-04-29T21:13:42.996Z</time></trkpt><trkpt lat="39.3717971" lon="0.9084421"><ele>0.0</ele><time>2026-04-29T21:13:43.995Z</time></trkpt><trkpt lat="39.3718692" lon="0.908494"><ele>0.0</ele><time>2026-04-29T21:13:44.995Z</time></trkpt><trkpt lat="39.3719437" lon="0.9085484"><ele>0.0</ele><time>2026-04-29T21:13:45.995Z</time></trkpt><trkpt lat="39.372092" lon="0.9086555"><ele>0.0</ele><time>2026-04-29T21:13:47.995Z</time></trkpt><trkpt lat="39.3721655" lon="0.9087128"><ele>0.0</ele><time>2026-04-29T21:13:48.995Z</time></trkpt><trkpt lat="39.3722361" lon="0.908764"><ele>0.0</ele><time>2026-04-29T21:13:49.995Z</time></trkpt><trkpt lat="39.372309" lon="0.9088199"><ele>0.0</ele><time>2026-04-29T21:13:50.995Z</time></trkpt><trkpt lat="39.3723821" lon="0.908877"><ele>0.0</ele><time>2026-04-29T21:13:51.995Z</time></trkpt><trkpt lat="39.3724582" lon="0.9089365"><ele>0.0</ele><time>2026-04-29T21:13:52.995Z</time></trkpt><trkpt lat="39.3725335" lon="0.9089892"><ele>0.0</ele><time>2026-04-29T21:13:53.996Z</time></trkpt><trkpt lat="39.37261" lon="0.9090452"><ele>0.0</ele><time>2026-04-29T21:13:54.995Z</time></trkpt><trkpt lat="39.3726867" lon="0.9091015"><ele>0.0</ele><time>2026-04-29T21:13:55.996Z</time></trkpt><trkpt lat="39.3727658" lon="0.909157"><ele>0.0</ele><time>2026-04-29T21:13:56.995Z</time></trkpt><trkpt lat="39.3728421" lon="0.9092087"><ele>0.0</ele><time>2026-04-29T21:13:57.996Z</time></trkpt><trkpt lat="39.3729186" lon="0.9092547"><ele>0.0</ele><time>2026-04-29T21:13:58.996Z</time></trkpt><trkpt lat="39.3729931" lon="0.9093042"><ele>0.0</ele><time>2026-04-29T21:13:59.995Z</time></trkpt><trkpt lat="39.3730713" lon="0.9093567"><ele>0.0</ele><time>2026-04-29T21:14:00.996Z</time></trkpt><trkpt lat="39.3731498" lon="0.9094069"><ele>0.0</ele><time>2026-04-29T21:14:01.996Z</time></trkpt><trkpt lat="39.3732296" lon="0.9094543"><ele>0.0</ele><time>2026-04-29T21:14:02.995Z</time></trkpt><trkpt lat="39.3733041" lon="0.9095038"><ele>0.0</ele><time>2026-04-29T21:14:03.995Z</time></trkpt><trkpt lat="39.373373" lon="0.9095524"><ele>0.0</ele><time>2026-04-29T21:14:04.995Z</time></trkpt><trkpt lat="39.373447" lon="0.9096014"><ele>0.0</ele><time>2026-04-29T21:14:05.996Z</time></trkpt><trkpt lat="39.3735205" lon="0.9096524"><ele>0.0</ele><time>2026-04-29T21:14:06.995Z</time></trkpt><trkpt lat="39.3736682" lon="0.9097619"><ele>0.0</ele><time>2026-04-29T21:14:08.995Z</time></trkpt><trkpt lat="39.3737422" lon="0.9098119"><ele>0.0</ele><time>2026-04-29T21:14:09.996Z</time></trkpt><trkpt lat="39.3738198" lon="0.9098663"><ele>0.0</ele><time>2026-04-29T21:14:10.996Z</time></trkpt><trkpt lat="39.3738952" lon="0.9099167"><ele>0.0</ele><time>2026-04-29T21:14:11.995Z</time></trkpt><trkpt lat="39.373973" lon="0.9099664"><ele>0.0</ele><time>2026-04-29T21:14:12.996Z</time></trkpt><trkpt lat="39.3740485" lon="0.9100192"><ele>0.0</ele><time>2026-04-29T21:14:13.995Z</time></trkpt><trkpt lat="39.3741248" lon="0.9100701"><ele>0.0</ele><time>2026-04-29T21:14:14.996Z</time></trkpt><trkpt lat="39.3742046" lon="0.9101213"><ele>0.0</ele><time>2026-04-29T21:14:15.994Z</time></trkpt><trkpt lat="39.3742785" lon="0.9101736"><ele>0.0</ele><time>2026-04-29T21:14:16.994Z</time></trkpt><trkpt lat="39.3743479" lon="0.9102181"><ele>0.0</ele><time>2026-04-29T21:14:17.995Z</time></trkpt><trkpt lat="39.3744193" lon="0.9102642"><ele>0.0</ele><time>2026-04-29T21:14:18.994Z</time></trkpt><trkpt lat="39.3744979" lon="0.9103107"><ele>0.0</ele><time>2026-04-29T21:14:19.994Z</time></trkpt><trkpt lat="39.3745691" lon="0.9103688"><ele>0.0</ele><time>2026-04-29T21:14:20.995Z</time></trkpt><trkpt lat="39.3746436" lon="0.9104276"><ele>0.0</ele><time>2026-04-29T21:14:21.994Z</time></trkpt><trkpt lat="39.3747212" lon="0.910483"><ele>0.0</ele><time>2026-04-29T21:14:22.995Z</time></trkpt><trkpt lat="39.3748008" lon="0.9105409"><ele>0.0</ele><time>2026-04-29T21:14:23.994Z</time></trkpt><trkpt lat="39.3748781" lon="0.9106035"><ele>0.0</ele><time>2026-04-29T21:14:24.994Z</time></trkpt><trkpt lat="39.374955" lon="0.9106612"><ele>0.0</ele><time>2026-04-29T21:14:25.994Z</time></trkpt><trkpt lat="39.3750345" lon="0.9107208"><ele>0.0</ele><time>2026-04-29T21:14:26.994Z</time></trkpt><trkpt lat="39.375117" lon="0.9107849"><ele>0.0</ele><time>2026-04-29T21:14:27.995Z</time></trkpt><trkpt lat="39.3751918" lon="0.9108447"><ele>0.0</ele><time>2026-04-29T21:14:28.995Z</time></trkpt><trkpt lat="39.3753385" lon="0.9109568"><ele>0.0</ele><time>2026-04-29T21:14:30.994Z</time></trkpt><trkpt lat="39.3754121" lon="0.9110088"><ele>0.0</ele><time>2026-04-29T21:14:31.995Z</time></trkpt><trkpt lat="39.3754896" lon="0.9110601"><ele>0.0</ele><time>2026-04-29T21:14:32.995Z</time></trkpt><trkpt lat="39.3755679" lon="0.9111161"><ele>0.0</ele><time>2026-04-29T21:14:33.994Z</time></trkpt><trkpt lat="39.3756433" lon="0.9111717"><ele>0.0</ele><time>2026-04-29T21:14:34.994Z</time></trkpt><trkpt lat="39.3757185" lon="0.9112238"><ele>0.0</ele><time>2026-04-29T21:14:35.995Z</time></trkpt><trkpt lat="39.3757924" lon="0.9112768"><ele>0.0</ele><time>2026-04-29T21:14:36.994Z</time></trkpt><trkpt lat="39.3758613" lon="0.9113319"><ele>0.0</ele><time>2026-04-29T21:14:37.994Z</time></trkpt><trkpt lat="39.3759336" lon="0.9113892"><ele>0.0</ele><time>2026-04-29T21:14:38.994Z</time></trkpt><trkpt lat="39.3760055" lon="0.911445"><ele>0.0</ele><time>2026-04-29T21:14:39.994Z</time></trkpt><trkpt lat="39.3760789" lon="0.9115011"><ele>0.0</ele><time>2026-04-29T21:14:40.994Z</time></trkpt><trkpt lat="39.3761549" lon="0.9115561"><ele>0.0</ele><time>2026-04-29T21:14:41.995Z</time></trkpt><trkpt lat="39.3762314" lon="0.9116114"><ele>0.0</ele><time>2026-04-29T21:14:42.994Z</time></trkpt><trkpt lat="39.3763095" lon="0.9116738"><ele>0.0</ele><time>2026-04-29T21:14:43.995Z</time></trkpt><trkpt lat="39.376381" lon="0.9117341"><ele>0.0</ele><time>2026-04-29T21:14:44.995Z</time></trkpt><trkpt lat="39.376458" lon="0.9117798"><ele>0.0</ele><time>2026-04-29T21:14:45.995Z</time></trkpt><trkpt lat="39.3765362" lon="0.9118317"><ele>0.0</ele><time>2026-04-29T21:14:46.995Z</time></trkpt><trkpt lat="39.3766105" lon="0.9118818"><ele>0.0</ele><time>2026-04-29T21:14:47.994Z</time></trkpt><trkpt lat="39.3766825" lon="0.9119292"><ele>0.0</ele><time>2026-04-29T21:14:48.994Z</time></trkpt><trkpt lat="39.3767569" lon="0.9119714"><ele>0.0</ele><time>2026-04-29T21:14:49.994Z</time></trkpt><trkpt lat="39.3769145" lon="0.9120694"><ele>0.0</ele><time>2026-04-29T21:14:51.995Z</time></trkpt><trkpt lat="39.3769887" lon="0.9121231"><ele>0.0</ele><time>2026-04-29T21:14:52.995Z</time></trkpt><trkpt lat="39.3770691" lon="0.9121796"><ele>0.0</ele><time>2026-04-29T21:14:53.995Z</time></trkpt><trkpt lat="39.3771493" lon="0.9122388"><ele>0.0</ele><time>2026-04-29T21:14:54.995Z</time></trkpt><trkpt lat="39.3772251" lon="0.9122962"><ele>0.0</ele><time>2026-04-29T21:14:55.995Z</time></trkpt><trkpt lat="39.3772972" lon="0.9123559"><ele>0.0</ele><time>2026-04-29T21:14:56.995Z</time></trkpt><trkpt lat="39.3773681" lon="0.9124066"><ele>0.0</ele><time>2026-04-29T21:14:57.995Z</time></trkpt><trkpt lat="39.3774448" lon="0.9124622"><ele>0.0</ele><time>2026-04-29T21:14:58.994Z</time></trkpt><trkpt lat="39.3775201" lon="0.9125174"><ele>0.0</ele><time>2026-04-29T21:14:59.995Z</time></trkpt><trkpt lat="39.3775922" lon="0.9125768"><ele>0.0</ele><time>2026-04-29T21:15:00.994Z</time></trkpt><trkpt lat="39.3776653" lon="0.912641"><ele>0.0</ele><time>2026-04-29T21:15:01.995Z</time></trkpt><trkpt lat="39.3777442" lon="0.9127076"><ele>0.0</ele><time>2026-04-29T21:15:02.995Z</time></trkpt><trkpt lat="39.3778244" lon="0.9127717"><ele>0.0</ele><time>2026-04-29T21:15:03.994Z</time></trkpt><trkpt lat="39.3779014" lon="0.9128339"><ele>0.0</ele><time>2026-04-29T21:15:04.995Z</time></trkpt><trkpt lat="39.3779767" lon="0.9128928"><ele>0.0</ele><time>2026-04-29T21:15:05.995Z</time></trkpt><trkpt lat="39.3780533" lon="0.9129415"><ele>0.0</ele><time>2026-04-29T21:15:06.995Z</time></trkpt><trkpt lat="39.3781231" lon="0.9130062"><ele>0.0</ele><time>2026-04-29T21:15:07.995Z</time></trkpt><trkpt lat="39.378197" lon="0.9130643"><ele>0.0</ele><time>2026-04-29T21:15:08.995Z</time></trkpt><trkpt lat="39.3782731" lon="0.9131214"><ele>0.0</ele><time>2026-04-29T21:15:09.994Z</time></trkpt><trkpt lat="39.3783439" lon="0.913178"><ele>0.0</ele><time>2026-04-29T21:15:10.995Z</time></trkpt><trkpt lat="39.3784951" lon="0.9132837"><ele>0.0</ele><time>2026-04-29T21:15:12.995Z</time></trkpt><trkpt lat="39.3785673" lon="0.9133355"><ele>0.0</ele><time>2026-04-29T21:15:13.995Z</time></trkpt><trkpt lat="39.3786434" lon="0.913384"><ele>0.0</ele><time>2026-04-29T21:15:14.994Z</time></trkpt><trkpt lat="39.3787214" lon="0.9134395"><ele>0.0</ele><time>2026-04-29T21:15:15.994Z</time></trkpt><trkpt lat="39.3787952" lon="0.9134975"><ele>0.0</ele><time>2026-04-29T21:15:16.995Z</time></trkpt><trkpt lat="39.3788677" lon="0.9135541"><ele>0.0</ele><time>2026-04-29T21:15:17.995Z</time></trkpt><trkpt lat="39.3789391" lon="0.9136069"><ele>0.0</ele><time>2026-04-29T21:15:18.995Z</time></trkpt><trkpt lat="39.3790152" lon="0.9136509"><ele>0.0</ele><time>2026-04-29T21:15:19.995Z</time></trkpt><trkpt lat="39.379086" lon="0.9137059"><ele>0.0</ele><time>2026-04-29T21:15:20.994Z</time></trkpt><trkpt lat="39.3791604" lon="0.9137623"><ele>0.0</ele><time>2026-04-29T21:15:21.995Z</time></trkpt><trkpt lat="39.3792324" lon="0.9138234"><ele>0.0</ele><time>2026-04-29T21:15:22.995Z</time></trkpt><trkpt lat="39.3793111" lon="0.9138753"><ele>0.0</ele><time>2026-04-29T21:15:23.994Z</time></trkpt><trkpt lat="39.3793894" lon="0.9139271"><ele>0.0</ele><time>2026-04-29T21:15:24.994Z</time></trkpt><trkpt lat="39.3794662" lon="0.9139944"><ele>0.0</ele><time>2026-04-29T21:15:25.994Z</time></trkpt><trkpt lat="39.3795402" lon="0.9140431"><ele>0.0</ele><time>2026-04-29T21:15:26.994Z</time></trkpt><trkpt lat="39.3796139" lon="0.9140937"><ele>0.0</ele><time>2026-04-29T21:15:27.994Z</time></trkpt><trkpt lat="39.3796873" lon="0.9141279"><ele>0.0</ele><time>2026-04-29T21:15:28.994Z</time></trkpt><trkpt lat="39.379765" lon="0.9141634"><ele>0.0</ele><time>2026-04-29T21:15:29.994Z</time></trkpt><trkpt lat="39.3798373" lon="0.9142161"><ele>0.0</ele><time>2026-04-29T21:15:30.995Z</time></trkpt><trkpt lat="39.3799133" lon="0.9142614"><ele>0.0</ele><time>2026-04-29T21:15:31.994Z</time></trkpt><trkpt lat="39.3800743" lon="0.9143608"><ele>0.0</ele><time>2026-04-29T21:15:33.994Z</time></trkpt><trkpt lat="39.3801502" lon="0.9144188"><ele>0.0</ele><time>2026-04-29T21:15:34.995Z</time></trkpt><trkpt lat="39.3802252" lon="0.9144773"><ele>0.0</ele><time>2026-04-29T21:15:35.994Z</time></trkpt><trkpt lat="39.3803015" lon="0.9145362"><ele>0.0</ele><time>2026-04-29T21:15:36.994Z</time></trkpt><trkpt lat="39.3803724" lon="0.914602"><ele>0.0</ele><time>2026-04-29T21:15:37.994Z</time></trkpt><trkpt lat="39.380445" lon="0.9146661"><ele>0.0</ele><time>2026-04-29T21:15:38.994Z</time></trkpt><trkpt lat="39.380521" lon="0.9147193"><ele>0.0</ele><time>2026-04-29T21:15:39.994Z</time></trkpt><trkpt lat="39.3805994" lon="0.9147712"><ele>0.0</ele><time>2026-04-29T21:15:40.995Z</time></trkpt><trkpt lat="39.3806722" lon="0.9148229"><ele>0.0</ele><time>2026-04-29T21:15:41.994Z</time></trkpt><trkpt lat="39.3807512" lon="0.9148801"><ele>0.0</ele><time>2026-04-29T21:15:42.995Z</time></trkpt><trkpt lat="39.3808325" lon="0.9149309"><ele>0.0</ele><time>2026-04-29T21:15:43.994Z</time></trkpt><trkpt lat="39.3809082" lon="0.9149878"><ele>0.0</ele><time>2026-04-29T21:15:44.994Z</time></trkpt><trkpt lat="39.3809875" lon="0.9150389"><ele>0.0</ele><time>2026-04-29T21:15:45.995Z</time></trkpt><trkpt lat="39.3810663" lon="0.9150875"><ele>0.0</ele><time>2026-04-29T21:15:46.994Z</time></trkpt><trkpt lat="39.3811417" lon="0.9151375"><ele>0.0</ele><time>2026-04-29T21:15:47.995Z</time></trkpt><trkpt lat="39.3812127" lon="0.9151876"><ele>0.0</ele><time>2026-04-29T21:15:48.994Z</time></trkpt><trkpt lat="39.3812829" lon="0.9152458"><ele>0.0</ele><time>2026-04-29T21:15:49.995Z</time></trkpt><trkpt lat="39.3813599" lon="0.9153033"><ele>0.0</ele><time>2026-04-29T21:15:50.994Z</time></trkpt><trkpt lat="39.3814311" lon="0.9153461"><ele>0.0</ele><time>2026-04-29T21:15:51.994Z</time></trkpt><trkpt lat="39.3815012" lon="0.9153977"><ele>0.0</ele><time>2026-04-29T21:15:52.994Z</time></trkpt><trkpt lat="39.381653" lon="0.9155171"><ele>0.0</ele><time>2026-04-29T21:15:54.995Z</time></trkpt><trkpt lat="39.3817299" lon="0.9155729"><ele>0.0</ele><time>2026-04-29T21:15:55.994Z</time></trkpt><trkpt lat="39.3818008" lon="0.9156307"><ele>0.0</ele><time>2026-04-29T21:15:56.995Z</time></trkpt><trkpt lat="39.3818781" lon="0.9157063"><ele>0.0</ele><time>2026-04-29T21:15:57.994Z</time></trkpt><trkpt lat="39.3819564" lon="0.9157603"><ele>0.0</ele><time>2026-04-29T21:15:58.995Z</time></trkpt><trkpt lat="39.3820331" lon="0.9158108"><ele>0.0</ele><time>2026-04-29T21:15:59.995Z</time></trkpt><trkpt lat="39.3821085" lon="0.915861"><ele>0.0</ele><time>2026-04-29T21:16:00.994Z</time></trkpt><trkpt lat="39.3821836" lon="0.9159036"><ele>0.0</ele><time>2026-04-29T21:16:01.994Z</time></trkpt><trkpt lat="39.3822628" lon="0.9159524"><ele>0.0</ele><time>2026-04-29T21:16:02.995Z</time></trkpt><trkpt lat="39.382344" lon="0.9159979"><ele>0.0</ele><time>2026-04-29T21:16:03.995Z</time></trkpt><trkpt lat="39.3824202" lon="0.9160464"><ele>0.0</ele><time>2026-04-29T21:16:04.994Z</time></trkpt><trkpt lat="39.3824968" lon="0.9161046"><ele>0.0</ele><time>2026-04-29T21:16:05.995Z</time></trkpt><trkpt lat="39.3825731" lon="0.9161411"><ele>0.0</ele><time>2026-04-29T21:16:06.995Z</time></trkpt><trkpt lat="39.3826497" lon="0.9161946"><ele>0.0</ele><time>2026-04-29T21:16:07.995Z</time></trkpt><trkpt lat="39.3827252" lon="0.9162447"><ele>0.0</ele><time>2026-04-29T21:16:08.994Z</time></trkpt><trkpt lat="39.3827874" lon="0.9162915"><ele>0.0</ele><time>2026-04-29T21:16:09.994Z</time></trkpt><trkpt lat="39.3828604" lon="0.916337"><ele>0.0</ele><time>2026-04-29T21:16:10.995Z</time></trkpt><trkpt lat="39.3829392" lon="0.9163936"><ele>0.0</ele><time>2026-04-29T21:16:11.994Z</time></trkpt><trkpt lat="39.3830148" lon="0.9164439"><ele>0.0</ele><time>2026-04-29T21:16:12.994Z</time></trkpt><trkpt lat="39.3830952" lon="0.9164912"><ele>0.0</ele><time>2026-04-29T21:16:13.994Z</time></trkpt><trkpt lat="39.3832524" lon="0.9166019"><ele>0.0</ele><time>2026-04-29T21:16:15.994Z</time></trkpt><trkpt lat="39.3833397" lon="0.9166598"><ele>0.0</ele><time>2026-04-29T21:16:16.994Z</time></trkpt><trkpt lat="39.3834134" lon="0.9167171"><ele>0.0</ele><time>2026-04-29T21:16:17.994Z</time></trkpt><trkpt lat="39.3834854" lon="0.9167777"><ele>0.0</ele><time>2026-04-29T21:16:18.995Z</time></trkpt><trkpt lat="39.3835599" lon="0.9168284"><ele>0.0</ele><time>2026-04-29T21:16:19.994Z</time></trkpt><trkpt lat="39.3836323" lon="0.9168829"><ele>0.0</ele><time>2026-04-29T21:16:20.995Z</time></trkpt><trkpt lat="39.3837095" lon="0.9169454"><ele>0.0</ele><time>2026-04-29T21:16:21.994Z</time></trkpt><trkpt lat="39.3837865" lon="0.9170032"><ele>0.0</ele><time>2026-04-29T21:16:22.994Z</time></trkpt><trkpt lat="39.3838617" lon="0.9170687"><ele>0.0</ele><time>2026-04-29T21:16:23.994Z</time></trkpt><trkpt lat="39.3839367" lon="0.9171352"><ele>0.0</ele><time>2026-04-29T21:16:24.994Z</time></trkpt><trkpt lat="39.3840143" lon="0.9171942"><ele>0.0</ele><time>2026-04-29T21:16:25.995Z</time></trkpt><trkpt lat="39.38409" lon="0.9172473"><ele>0.0</ele><time>2026-04-29T21:16:26.995Z</time></trkpt><trkpt lat="39.3841648" lon="0.9173032"><ele>0.0</ele><time>2026-04-29T21:16:27.995Z</time></trkpt><trkpt lat="39.3842411" lon="0.917366"><ele>0.0</ele><time>2026-04-29T21:16:28.994Z</time></trkpt><trkpt lat="39.3843151" lon="0.9174097"><ele>0.0</ele><time>2026-04-29T21:16:29.995Z</time></trkpt><trkpt lat="39.3843902" lon="0.9174681"><ele>0.0</ele><time>2026-04-29T21:16:30.994Z</time></trkpt><trkpt lat="39.3844647" lon="0.9175225"><ele>0.0</ele><time>2026-04-29T21:16:31.995Z</time></trkpt><trkpt lat="39.3845428" lon="0.9175728"><ele>0.0</ele><time>2026-04-29T21:16:32.994Z</time></trkpt><trkpt lat="39.3846182" lon="0.9176262"><ele>0.0</ele><time>2026-04-29T21:16:33.994Z</time></trkpt><trkpt lat="39.3846973" lon="0.9176774"><ele>0.0</ele><time>2026-04-29T21:16:34.995Z</time></trkpt><trkpt lat="39.3848481" lon="0.9177952"><ele>0.0</ele><time>2026-04-29T21:16:36.995Z</time></trkpt><trkpt lat="39.3849204" lon="0.9178558"><ele>0.0</ele><time>2026-04-29T21:16:37.994Z</time></trkpt><trkpt lat="39.3849978" lon="0.9179022"><ele>0.0</ele><time>2026-04-29T21:16:38.995Z</time></trkpt><trkpt lat="39.38507" lon="0.9179573"><ele>0.0</ele><time>2026-04-29T21:16:39.994Z</time></trkpt><trkpt lat="39.3851417" lon="0.9180182"><ele>0.0</ele><time>2026-04-29T21:16:40.995Z</time></trkpt><trkpt lat="39.3852196" lon="0.9180756"><ele>0.0</ele><time>2026-04-29T21:16:41.994Z</time></trkpt><trkpt lat="39.3852924" lon="0.918115"><ele>0.0</ele><time>2026-04-29T21:16:42.994Z</time></trkpt><trkpt lat="39.3853668" lon="0.91816"><ele>0.0</ele><time>2026-04-29T21:16:43.995Z</time></trkpt><trkpt lat="39.3854401" lon="0.9182168"><ele>0.0</ele><time>2026-04-29T21:16:44.994Z</time></trkpt><trkpt lat="39.3855152" lon="0.9182724"><ele>0.0</ele><time>2026-04-29T21:16:45.994Z</time></trkpt><trkpt lat="39.3855915" lon="0.9183252"><ele>0.0</ele><time>2026-04-29T21:16:46.994Z</time></trkpt><trkpt lat="39.3856679" lon="0.9183858"><ele>0.0</ele><time>2026-04-29T21:16:47.995Z</time></trkpt><trkpt lat="39.3857447" lon="0.9184445"><ele>0.0</ele><time>2026-04-29T21:16:48.994Z</time></trkpt><trkpt lat="39.3858202" lon="0.9185073"><ele>0.0</ele><time>2026-04-29T21:16:49.994Z</time></trkpt><trkpt lat="39.385895" lon="0.9185636"><ele>0.0</ele><time>2026-04-29T21:16:50.994Z</time></trkpt><trkpt lat="39.3859758" lon="0.9186059"><ele>0.0</ele><time>2026-04-29T21:16:51.994Z</time></trkpt><trkpt lat="39.3860502" lon="0.9186576"><ele>0.0</ele><time>2026-04-29T21:16:52.995Z</time></trkpt><trkpt lat="39.3861265" lon="0.9187148"><ele>0.0</ele><time>2026-04-29T21:16:53.994Z</time></trkpt><trkpt lat="39.3862017" lon="0.9187698"><ele>0.0</ele><time>2026-04-29T21:16:54.995Z</time></trkpt><trkpt lat="39.3862785" lon="0.9188089"><ele>0.0</ele><time>2026-04-29T21:16:55.994Z</time></trkpt><trkpt lat="39.386426" lon="0.9189154"><ele>0.0</ele><time>2026-04-29T21:16:57.994Z</time></trkpt><trkpt lat="39.3865013" lon="0.9189562"><ele>0.0</ele><time>2026-04-29T21:16:58.995Z</time></trkpt><trkpt lat="39.3865737" lon="0.9190015"><ele>0.0</ele><time>2026-04-29T21:16:59.994Z</time></trkpt><trkpt lat="39.3866483" lon="0.9190603"><ele>0.0</ele><time>2026-04-29T21:17:00.994Z</time></trkpt><trkpt lat="39.3867248" lon="0.919118"><ele>0.0</ele><time>2026-04-29T21:17:01.994Z</time></trkpt><trkpt lat="39.3868043" lon="0.9191749"><ele>0.0</ele><time>2026-04-29T21:17:02.995Z</time></trkpt><trkpt lat="39.3868856" lon="0.9192355"><ele>0.0</ele><time>2026-04-29T21:17:03.994Z</time></trkpt><trkpt lat="39.3869644" lon="0.9192917"><ele>0.0</ele><time>2026-04-29T21:17:04.994Z</time></trkpt><trkpt lat="39.387043" lon="0.9193411"><ele>0.0</ele><time>2026-04-29T21:17:05.994Z</time></trkpt><trkpt lat="39.3871198" lon="0.9194011"><ele>0.0</ele><time>2026-04-29T21:17:06.995Z</time></trkpt><trkpt lat="39.3871981" lon="0.919458"><ele>0.0</ele><time>2026-04-29T21:17:07.994Z</time></trkpt><trkpt lat="39.3872738" lon="0.9195251"><ele>0.0</ele><time>2026-04-29T21:17:08.995Z</time></trkpt><trkpt lat="39.3873429" lon="0.919586"><ele>0.0</ele><time>2026-04-29T21:17:09.994Z</time></trkpt><trkpt lat="39.3874181" lon="0.9196462"><ele>0.0</ele><time>2026-04-29T21:17:10.995Z</time></trkpt><trkpt lat="39.3874945" lon="0.9197033"><ele>0.0</ele><time>2026-04-29T21:17:11.994Z</time></trkpt><trkpt lat="39.3875756" lon="0.9197599"><ele>0.0</ele><time>2026-04-29T21:17:12.994Z</time></trkpt><trkpt lat="39.3876488" lon="0.9198152"><ele>0.0</ele><time>2026-04-29T21:17:13.994Z</time></trkpt><trkpt lat="39.3877203" lon="0.9198731"><ele>0.0</ele><time>2026-04-29T21:17:14.995Z</time></trkpt><trkpt lat="39.3877934" lon="0.9199304"><ele>0.0</ele><time>2026-04-29T21:17:15.995Z</time></trkpt><trkpt lat="39.3878641" lon="0.9199726"><ele>0.0</ele><time>2026-04-29T21:17:16.995Z</time></trkpt><trkpt lat="39.3880126" lon="0.9200616"><ele>0.0</ele><time>2026-04-29T21:17:18.995Z</time></trkpt><trkpt lat="39.3880799" lon="0.9200968"><ele>0.0</ele><time>2026-04-29T21:17:19.995Z</time></trkpt><trkpt lat="39.3881507" lon="0.9201473"><ele>0.0</ele><time>2026-04-29T21:17:20.994Z</time></trkpt><trkpt lat="39.3882267" lon="0.9201954"><ele>0.0</ele><time>2026-04-29T21:17:21.995Z</time></trkpt><trkpt lat="39.3882964" lon="0.9202311"><ele>0.0</ele><time>2026-04-29T21:17:22.994Z</time></trkpt><trkpt lat="39.3883689" lon="0.9202689"><ele>0.0</ele><time>2026-04-29T21:17:23.995Z</time></trkpt><trkpt lat="39.3884421" lon="0.9203215"><ele>0.0</ele><time>2026-04-29T21:17:24.994Z</time></trkpt><trkpt lat="39.3885168" lon="0.9203739"><ele>0.0</ele><time>2026-04-29T21:17:25.995Z</time></trkpt><trkpt lat="39.3885945" lon="0.9204251"><ele>0.0</ele><time>2026-04-29T21:17:26.994Z</time></trkpt><trkpt lat="39.3886688" lon="0.920478"><ele>0.0</ele><time>2026-04-29T21:17:27.994Z</time></trkpt><trkpt lat="39.3887435" lon="0.9205389"><ele>0.0</ele><time>2026-04-29T21:17:28.994Z</time></trkpt><trkpt lat="39.3888225" lon="0.9205967"><ele>0.0</ele><time>2026-04-29T21:17:29.994Z</time></trkpt><trkpt lat="39.3888982" lon="0.9206575"><ele>0.0</ele><time>2026-04-29T21:17:30.994Z</time></trkpt><trkpt lat="39.3889661" lon="0.9207266"><ele>0.0</ele><time>2026-04-29T21:17:31.994Z</time></trkpt><trkpt lat="39.3890358" lon="0.9207898"><ele>0.0</ele><time>2026-04-29T21:17:32.994Z</time></trkpt><trkpt lat="39.3891088" lon="0.920848"><ele>0.0</ele><time>2026-04-29T21:17:33.994Z</time></trkpt><trkpt lat="39.38918" lon="0.9209132"><ele>0.0</ele><time>2026-04-29T21:17:34.994Z</time></trkpt><trkpt lat="39.389258" lon="0.9209686"><ele>0.0</ele><time>2026-04-29T21:17:35.995Z</time></trkpt><trkpt lat="39.3893349" lon="0.9210082"><ele>0.0</ele><time>2026-04-29T21:17:36.995Z</time></trkpt><trkpt lat="39.3894116" lon="0.9210613"><ele>0.0</ele><time>2026-04-29T21:17:37.995Z</time></trkpt><trkpt lat="39.3894923" lon="0.9211192"><ele>0.0</ele><time>2026-04-29T21:17:38.994Z</time></trkpt><trkpt lat="39.3896526" lon="0.9212306"><ele>0.0</ele><time>2026-04-29T21:17:40.995Z</time></trkpt><trkpt lat="39.3897342" lon="0.921282"><ele>0.0</ele><time>2026-04-29T21:17:41.994Z</time></trkpt><trkpt lat="39.3898084" lon="0.921339"><ele>0.0</ele><time>2026-04-29T21:17:42.995Z</time></trkpt><trkpt lat="39.3898844" lon="0.9213943"><ele>0.0</ele><time>2026-04-29T21:17:43.994Z</time></trkpt><trkpt lat="39.3899601" lon="0.921441"><ele>0.0</ele><time>2026-04-29T21:17:44.994Z</time></trkpt><trkpt lat="39.3900325" lon="0.9214702"><ele>0.0</ele><time>2026-04-29T21:17:45.995Z</time></trkpt><trkpt lat="39.3901027" lon="0.9215088"><ele>0.0</ele><time>2026-04-29T21:17:46.995Z</time></trkpt><trkpt lat="39.3901735" lon="0.9215505"><ele>0.0</ele><time>2026-04-29T21:17:47.995Z</time></trkpt><trkpt lat="39.390244" lon="0.9216009"><ele>0.0</ele><time>2026-04-29T21:17:48.995Z</time></trkpt><trkpt lat="39.3903171" lon="0.921655"><ele>0.0</ele><time>2026-04-29T21:17:49.995Z</time></trkpt><trkpt lat="39.3903946" lon="0.9217099"><ele>0.0</ele><time>2026-04-29T21:17:50.994Z</time></trkpt><trkpt lat="39.3904741" lon="0.9217665"><ele>0.0</ele><time>2026-04-29T21:17:51.994Z</time></trkpt><trkpt lat="39.3905511" lon="0.9218233"><ele>0.0</ele><time>2026-04-29T21:17:52.995Z</time></trkpt><trkpt lat="39.3906277" lon="0.9218786"><ele>0.0</ele><time>2026-04-29T21:17:53.995Z</time></trkpt><trkpt lat="39.3907061" lon="0.9219321"><ele>0.0</ele><time>2026-04-29T21:17:54.994Z</time></trkpt><trkpt lat="39.3907829" lon="0.9219897"><ele>0.0</ele><time>2026-04-29T21:17:55.994Z</time></trkpt><trkpt lat="39.3908638" lon="0.9220574"><ele>0.0</ele><time>2026-04-29T21:17:56.994Z</time></trkpt><trkpt lat="39.3909438" lon="0.922123"><ele>0.0</ele><time>2026-04-29T21:17:57.994Z</time></trkpt><trkpt lat="39.3910253" lon="0.9221811"><ele>0.0</ele><time>2026-04-29T21:17:58.994Z</time></trkpt><trkpt lat="39.3911028" lon="0.9222265"><ele>0.0</ele><time>2026-04-29T21:17:59.995Z</time></trkpt><trkpt lat="39.3912498" lon="0.9223152"><ele>0.0</ele><time>2026-04-29T21:18:01.994Z</time></trkpt><trkpt lat="39.3913235" lon="0.9223748"><ele>0.0</ele><time>2026-04-29T21:18:02.995Z</time></trkpt><trkpt lat="39.3913985" lon="0.9224324"><ele>0.0</ele><time>2026-04-29T21:18:03.994Z</time></trkpt><trkpt lat="39.3914734" lon="0.9224764"><ele>0.0</ele><time>2026-04-29T21:18:04.994Z</time></trkpt><trkpt lat="39.3915501" lon="0.9225275"><ele>0.0</ele><time>2026-04-29T21:18:05.994Z</time></trkpt><trkpt lat="39.3916253" lon="0.922592"><ele>0.0</ele><time>2026-04-29T21:18:06.994Z</time></trkpt><trkpt lat="39.3916974" lon="0.9226516"><ele>0.0</ele><time>2026-04-29T21:18:07.994Z</time></trkpt><trkpt lat="39.3917672" lon="0.9227142"><ele>0.0</ele><time>2026-04-29T21:18:08.994Z</time></trkpt><trkpt lat="39.3918385" lon="0.9227704"><ele>0.0</ele><time>2026-04-29T21:18:09.995Z</time></trkpt><trkpt lat="39.3919119" lon="0.9228252"><ele>0.0</ele><time>2026-04-29T21:18:10.995Z</time></trkpt><trkpt lat="39.3919882" lon="0.9228817"><ele>0.0</ele><time>2026-04-29T21:18:11.994Z</time></trkpt><trkpt lat="39.392062" lon="0.9229278"><ele>0.0</ele><time>2026-04-29T21:18:12.994Z</time></trkpt><trkpt lat="39.3921414" lon="0.9229866"><ele>0.0</ele><time>2026-04-29T21:18:13.994Z</time></trkpt><trkpt lat="39.3922155" lon="0.9230388"><ele>0.0</ele><time>2026-04-29T21:18:14.994Z</time></trkpt><trkpt lat="39.3922874" lon="0.9230874"><ele>0.0</ele><time>2026-04-29T21:18:15.994Z</time></trkpt><trkpt lat="39.3923604" lon="0.9231427"><ele>0.0</ele><time>2026-04-29T21:18:16.995Z</time></trkpt><trkpt lat="39.3924321" lon="0.9231954"><ele>0.0</ele><time>2026-04-29T21:18:17.994Z</time></trkpt><trkpt lat="39.392501" lon="0.9232513"><ele>0.0</ele><time>2026-04-29T21:18:18.994Z</time></trkpt><trkpt lat="39.392575" lon="0.9233056"><ele>0.0</ele><time>2026-04-29T21:18:19.995Z</time></trkpt><trkpt lat="39.3926484" lon="0.9233438"><ele>0.0</ele><time>2026-04-29T21:18:20.994Z</time></trkpt><trkpt lat="39.3927983" lon="0.9234452"><ele>0.0</ele><time>2026-04-29T21:18:22.993Z</time></trkpt><trkpt lat="39.3928788" lon="0.9234898"><ele>0.0</ele><time>2026-04-29T21:18:23.993Z</time></trkpt><trkpt lat="39.392959" lon="0.9235518"><ele>0.0</ele><time>2026-04-29T21:18:24.994Z</time></trkpt><trkpt lat="39.3930378" lon="0.9236109"><ele>0.0</ele><time>2026-04-29T21:18:25.993Z</time></trkpt><trkpt lat="39.3931148" lon="0.9236795"><ele>0.0</ele><time>2026-04-29T21:18:26.993Z</time></trkpt><trkpt lat="39.39319" lon="0.9237379"><ele>0.0</ele><time>2026-04-29T21:18:27.993Z</time></trkpt><trkpt lat="39.3932651" lon="0.9237949"><ele>0.0</ele><time>2026-04-29T21:18:28.994Z</time></trkpt><trkpt lat="39.3933374" lon="0.9238457"><ele>0.0</ele><time>2026-04-29T21:18:29.993Z</time></trkpt><trkpt lat="39.3934119" lon="0.9239067"><ele>0.0</ele><time>2026-04-29T21:18:30.994Z</time></trkpt><trkpt lat="39.3934883" lon="0.9239669"><ele>0.0</ele><time>2026-04-29T21:18:31.993Z</time></trkpt><trkpt lat="39.3935636" lon="0.9240228"><ele>0.0</ele><time>2026-04-29T21:18:32.993Z</time></trkpt><trkpt lat="39.3936401" lon="0.9240832"><ele>0.0</ele><time>2026-04-29T21:18:33.993Z</time></trkpt><trkpt lat="39.3937138" lon="0.9241447"><ele>0.0</ele><time>2026-04-29T21:18:34.993Z</time></trkpt><trkpt lat="39.3937901" lon="0.9242066"><ele>0.0</ele><time>2026-04-29T21:18:35.993Z</time></trkpt><trkpt lat="39.3938652" lon="0.9242638"><ele>0.0</ele><time>2026-04-29T21:18:36.993Z</time></trkpt><trkpt lat="39.3939417" lon="0.9243206"><ele>0.0</ele><time>2026-04-29T21:18:37.993Z</time></trkpt><trkpt lat="39.3940156" lon="0.924386"><ele>0.0</ele><time>2026-04-29T21:18:38.994Z</time></trkpt><trkpt lat="39.39409" lon="0.9244342"><ele>0.0</ele><time>2026-04-29T21:18:39.994Z</time></trkpt><trkpt lat="39.394167" lon="0.9244993"><ele>0.0</ele><time>2026-04-29T21:18:40.993Z</time></trkpt><trkpt lat="39.3942449" lon="0.9245574"><ele>0.0</ele><time>2026-04-29T21:18:41.994Z</time></trkpt><trkpt lat="39.3943908" lon="0.9246707"><ele>0.0</ele><time>2026-04-29T21:18:43.993Z</time></trkpt><trkpt lat="39.3944685" lon="0.9247232"><ele>0.0</ele><time>2026-04-29T21:18:44.993Z</time></trkpt><trkpt lat="39.3945424" lon="0.9247563"><ele>0.0</ele><time>2026-04-29T21:18:45.993Z</time></trkpt><trkpt lat="39.3946168" lon="0.9248065"><ele>0.0</ele><time>2026-04-29T21:18:46.993Z</time></trkpt><trkpt lat="39.3946932" lon="0.9248524"><ele>0.0</ele><time>2026-04-29T21:18:47.994Z</time></trkpt><trkpt lat="39.3947699" lon="0.9249001"><ele>0.0</ele><time>2026-04-29T21:18:48.994Z</time></trkpt><trkpt lat="39.394851" lon="0.9249283"><ele>0.0</ele><time>2026-04-29T21:18:49.993Z</time></trkpt><trkpt lat="39.3949241" lon="0.9249564"><ele>0.0</ele><time>2026-04-29T21:18:50.993Z</time></trkpt><trkpt lat="39.3949942" lon="0.9249963"><ele>0.0</ele><time>2026-04-29T21:18:51.994Z</time></trkpt><trkpt lat="39.3950656" lon="0.9250505"><ele>0.0</ele><time>2026-04-29T21:18:52.993Z</time></trkpt><trkpt lat="39.3951428" lon="0.9251014"><ele>0.0</ele><time>2026-04-29T21:18:53.993Z</time></trkpt><trkpt lat="39.3952255" lon="0.9251465"><ele>0.0</ele><time>2026-04-29T21:18:54.993Z</time></trkpt><trkpt lat="39.3952989" lon="0.9251968"><ele>0.0</ele><time>2026-04-29T21:18:55.994Z</time></trkpt><trkpt lat="39.3953722" lon="0.9252528"><ele>0.0</ele><time>2026-04-29T21:18:56.993Z</time></trkpt><trkpt lat="39.3954453" lon="0.9253096"><ele>0.0</ele><time>2026-04-29T21:18:57.994Z</time></trkpt><trkpt lat="39.39552" lon="0.9253753"><ele>0.0</ele><time>2026-04-29T21:18:58.994Z</time></trkpt><trkpt lat="39.3955935" lon="0.9254376"><ele>0.0</ele><time>2026-04-29T21:18:59.993Z</time></trkpt><trkpt lat="39.3956697" lon="0.925507"><ele>0.0</ele><time>2026-04-29T21:19:00.994Z</time></trkpt><trkpt lat="39.3957437" lon="0.9255754"><ele>0.0</ele><time>2026-04-29T21:19:01.993Z</time></trkpt><trkpt lat="39.3958142" lon="0.9256321"><ele>0.0</ele><time>2026-04-29T21:19:02.993Z</time></trkpt><trkpt lat="39.3959584" lon="0.925743"><ele>0.0</ele><time>2026-04-29T21:19:04.993Z</time></trkpt><trkpt lat="39.3960305" lon="0.9258094"><ele>0.0</ele><time>2026-04-29T21:19:05.994Z</time></trkpt><trkpt lat="39.3961066" lon="0.9258735"><ele>0.0</ele><time>2026-04-29T21:19:06.993Z</time></trkpt><trkpt lat="39.3961787" lon="0.9259281"><ele>0.0</ele><time>2026-04-29T21:19:07.993Z</time></trkpt><trkpt lat="39.3962544" lon="0.9259846"><ele>0.0</ele><time>2026-04-29T21:19:08.994Z</time></trkpt><trkpt lat="39.3963299" lon="0.9260397"><ele>0.0</ele><time>2026-04-29T21:19:09.993Z</time></trkpt><trkpt lat="39.3964052" lon="0.92609"><ele>0.0</ele><time>2026-04-29T21:19:10.993Z</time></trkpt><trkpt lat="39.3964755" lon="0.9261431"><ele>0.0</ele><time>2026-04-29T21:19:11.993Z</time></trkpt><trkpt lat="39.3965502" lon="0.9261908"><ele>0.0</ele><time>2026-04-29T21:19:12.993Z</time></trkpt><trkpt lat="39.3966255" lon="0.9262428"><ele>0.0</ele><time>2026-04-29T21:19:13.994Z</time></trkpt><trkpt lat="39.3967001" lon="0.9262963"><ele>0.0</ele><time>2026-04-29T21:19:14.993Z</time></trkpt><trkpt lat="39.3967764" lon="0.9263499"><ele>0.0</ele><time>2026-04-29T21:19:15.994Z</time></trkpt><trkpt lat="39.3968531" lon="0.9263888"><ele>0.0</ele><time>2026-04-29T21:19:16.993Z</time></trkpt><trkpt lat="39.3969268" lon="0.9264357"><ele>0.0</ele><time>2026-04-29T21:19:17.994Z</time></trkpt><trkpt lat="39.3969989" lon="0.9264805"><ele>0.0</ele><time>2026-04-29T21:19:18.994Z</time></trkpt><trkpt lat="39.3970721" lon="0.9265315"><ele>0.0</ele><time>2026-04-29T21:19:19.993Z</time></trkpt><trkpt lat="39.397144" lon="0.9265859"><ele>0.0</ele><time>2026-04-29T21:19:20.993Z</time></trkpt><trkpt lat="39.3972212" lon="0.9266342"><ele>0.0</ele><time>2026-04-29T21:19:21.994Z</time></trkpt><trkpt lat="39.3972953" lon="0.9266849"><ele>0.0</ele><time>2026-04-29T21:19:22.993Z</time></trkpt><trkpt lat="39.3973698" lon="0.9267368"><ele>0.0</ele><time>2026-04-29T21:19:23.994Z</time></trkpt><trkpt lat="39.3975213" lon="0.9268421"><ele>0.0</ele><time>2026-04-29T21:19:25.994Z</time></trkpt><trkpt lat="39.3975996" lon="0.9269045"><ele>0.0</ele><time>2026-04-29T21:19:26.994Z</time></trkpt><trkpt lat="39.3976807" lon="0.9269527"><ele>0.0</ele><time>2026-04-29T21:19:27.993Z</time></trkpt><trkpt lat="39.3977569" lon="0.9270053"><ele>0.0</ele><time>2026-04-29T21:19:28.994Z</time></trkpt><trkpt lat="39.3978362" lon="0.927053"><ele>0.0</ele><time>2026-04-29T21:19:29.993Z</time></trkpt><trkpt lat="39.3979146" lon="0.9271072"><ele>0.0</ele><time>2026-04-29T21:19:30.994Z</time></trkpt><trkpt lat="39.3979914" lon="0.9271609"><ele>0.0</ele><time>2026-04-29T21:19:31.993Z</time></trkpt><trkpt lat="39.3980681" lon="0.9272214"><ele>0.0</ele><time>2026-04-29T21:19:32.994Z</time></trkpt><trkpt lat="39.3981476" lon="0.9272875"><ele>0.0</ele><time>2026-04-29T21:19:33.994Z</time></trkpt><trkpt lat="39.3982232" lon="0.9273437"><ele>0.0</ele><time>2026-04-29T21:19:34.993Z</time></trkpt><trkpt lat="39.3982983" lon="0.9273688"><ele>0.0</ele><time>2026-04-29T21:19:35.993Z</time></trkpt><trkpt lat="39.398372" lon="0.9274057"><ele>0.0</ele><time>2026-04-29T21:19:36.994Z</time></trkpt><trkpt lat="39.3984467" lon="0.9274536"><ele>0.0</ele><time>2026-04-29T21:19:37.994Z</time></trkpt><trkpt lat="39.3985202" lon="0.9274996"><ele>0.0</ele><time>2026-04-29T21:19:38.994Z</time></trkpt><trkpt lat="39.3985949" lon="0.9275402"><ele>0.0</ele><time>2026-04-29T21:19:39.994Z</time></trkpt><trkpt lat="39.39867" lon="0.9275854"><ele>0.0</ele><time>2026-04-29T21:19:40.993Z</time></trkpt><trkpt lat="39.3987437" lon="0.927633"><ele>0.0</ele><time>2026-04-29T21:19:41.993Z</time></trkpt><trkpt lat="39.398814" lon="0.9276891"><ele>0.0</ele><time>2026-04-29T21:19:42.993Z</time></trkpt><trkpt lat="39.3988824" lon="0.9277517"><ele>0.0</ele><time>2026-04-29T21:19:43.993Z</time></trkpt><trkpt lat="39.3989511" lon="0.9278117"><ele>0.0</ele><time>2026-04-29T21:19:44.994Z</time></trkpt><trkpt lat="39.3990237" lon="0.9278747"><ele>0.0</ele><time>2026-04-29T21:19:45.993Z</time></trkpt><trkpt lat="39.3991701" lon="0.9280098"><ele>0.0</ele><time>2026-04-29T21:19:47.993Z</time></trkpt><trkpt lat="39.3992445" lon="0.9280961"><ele>0.0</ele><time>2026-04-29T21:19:48.994Z</time></trkpt><trkpt lat="39.3993185" lon="0.9281476"><ele>0.0</ele><time>2026-04-29T21:19:49.994Z</time></trkpt><trkpt lat="39.3993933" lon="0.9281821"><ele>0.0</ele><time>2026-04-29T21:19:50.994Z</time></trkpt><trkpt lat="39.3994669" lon="0.9282411"><ele>0.0</ele><time>2026-04-29T21:19:51.994Z</time></trkpt><trkpt lat="39.3995429" lon="0.9282694"><ele>0.0</ele><time>2026-04-29T21:19:52.994Z</time></trkpt><trkpt lat="39.3996181" lon="0.9283206"><ele>0.0</ele><time>2026-04-29T21:19:53.994Z</time></trkpt><trkpt lat="39.3996903" lon="0.9283738"><ele>0.0</ele><time>2026-04-29T21:19:54.993Z</time></trkpt><trkpt lat="39.3997637" lon="0.9284432"><ele>0.0</ele><time>2026-04-29T21:19:55.993Z</time></trkpt><trkpt lat="39.3998386" lon="0.9284994"><ele>0.0</ele><time>2026-04-29T21:19:56.993Z</time></trkpt><trkpt lat="39.399912" lon="0.9285621"><ele>0.0</ele><time>2026-04-29T21:19:57.993Z</time></trkpt><trkpt lat="39.3999851" lon="0.9286383"><ele>0.0</ele><time>2026-04-29T21:19:58.994Z</time></trkpt><trkpt lat="39.4000569" lon="0.9286872"><ele>0.0</ele><time>2026-04-29T21:19:59.993Z</time></trkpt><trkpt lat="39.40013" lon="0.9287494"><ele>0.0</ele><time>2026-04-29T21:20:00.993Z</time></trkpt><trkpt lat="39.400195" lon="0.9288022"><ele>0.0</ele><time>2026-04-29T21:20:01.993Z</time></trkpt><trkpt lat="39.4002685" lon="0.9288604"><ele>0.0</ele><time>2026-04-29T21:20:02.994Z</time></trkpt><trkpt lat="39.4003435" lon="0.9289253"><ele>0.0</ele><time>2026-04-29T21:20:03.994Z</time></trkpt><trkpt lat="39.4004199" lon="0.9289898"><ele>0.0</ele><time>2026-04-29T21:20:04.993Z</time></trkpt><trkpt lat="39.4004921" lon="0.9290539"><ele>0.0</ele><time>2026-04-29T21:20:05.994Z</time></trkpt><trkpt lat="39.4005651" lon="0.9290894"><ele>0.0</ele><time>2026-04-29T21:20:06.994Z</time></trkpt><trkpt lat="39.4007164" lon="0.9291624"><ele>0.0</ele><time>2026-04-29T21:20:08.993Z</time></trkpt><trkpt lat="39.4007917" lon="0.9292"><ele>0.0</ele><time>2026-04-29T21:20:09.994Z</time></trkpt><trkpt lat="39.4008682" lon="0.9292405"><ele>0.0</ele><time>2026-04-29T21:20:10.993Z</time></trkpt><trkpt lat="39.4009432" lon="0.9292888"><ele>0.0</ele><time>2026-04-29T21:20:11.993Z</time></trkpt><trkpt lat="39.4010197" lon="0.9293412"><ele>0.0</ele><time>2026-04-29T21:20:12.993Z</time></trkpt><trkpt lat="39.4010951" lon="0.929392"><ele>0.0</ele><time>2026-04-29T21:20:13.993Z</time></trkpt><trkpt lat="39.4011685" lon="0.9294447"><ele>0.0</ele><time>2026-04-29T21:20:14.994Z</time></trkpt><trkpt lat="39.4012433" lon="0.9294909"><ele>0.0</ele><time>2026-04-29T21:20:15.993Z</time></trkpt><trkpt lat="39.4013185" lon="0.9295448"><ele>0.0</ele><time>2026-04-29T21:20:16.993Z</time></trkpt><trkpt lat="39.4013906" lon="0.9296013"><ele>0.0</ele><time>2026-04-29T21:20:17.994Z</time></trkpt><trkpt lat="39.4014675" lon="0.9296525"><ele>0.0</ele><time>2026-04-29T21:20:18.993Z</time></trkpt><trkpt lat="39.4015477" lon="0.9297615"><ele>0.0</ele><time>2026-04-29T21:20:19.993Z</time></trkpt><trkpt lat="39.4016278" lon="0.9298537"><ele>0.0</ele><time>2026-04-29T21:20:20.993Z</time></trkpt><trkpt lat="39.4017046" lon="0.9299247"><ele>0.0</ele><time>2026-04-29T21:20:21.994Z</time></trkpt><trkpt lat="39.4017799" lon="0.9299974"><ele>0.0</ele><time>2026-04-29T21:20:22.994Z</time></trkpt><trkpt lat="39.4018561" lon="0.9300616"><ele>0.0</ele><time>2026-04-29T21:20:23.993Z</time></trkpt><trkpt lat="39.4019301" lon="0.9301351"><ele>0.0</ele><time>2026-04-29T21:20:24.994Z</time></trkpt><trkpt lat="39.4020023" lon="0.9301772"><ele>0.0</ele><time>2026-04-29T21:20:25.994Z</time></trkpt><trkpt lat="39.4020768" lon="0.9302252"><ele>0.0</ele><time>2026-04-29T21:20:26.993Z</time></trkpt><trkpt lat="39.4021487" lon="0.930285"><ele>0.0</ele><time>2026-04-29T21:20:27.994Z</time></trkpt><trkpt lat="39.4023022" lon="0.9303871"><ele>0.0</ele><time>2026-04-29T21:20:29.994Z</time></trkpt><trkpt lat="39.4023769" lon="0.9304244"><ele>0.0</ele><time>2026-04-29T21:20:30.994Z</time></trkpt><trkpt lat="39.4024502" lon="0.93048"><ele>0.0</ele><time>2026-04-29T21:20:31.994Z</time></trkpt><trkpt lat="39.4025247" lon="0.9305422"><ele>0.0</ele><time>2026-04-29T21:20:32.994Z</time></trkpt><trkpt lat="39.4025956" lon="0.9305979"><ele>0.0</ele><time>2026-04-29T21:20:33.993Z</time></trkpt><trkpt lat="39.4026643" lon="0.9306516"><ele>0.0</ele><time>2026-04-29T21:20:34.993Z</time></trkpt><trkpt lat="39.4027324" lon="0.9307141"><ele>0.0</ele><time>2026-04-29T21:20:35.993Z</time></trkpt><trkpt lat="39.4028038" lon="0.9307756"><ele>0.0</ele><time>2026-04-29T21:20:36.993Z</time></trkpt><trkpt lat="39.402874" lon="0.9308387"><ele>0.0</ele><time>2026-04-29T21:20:37.994Z</time></trkpt><trkpt lat="39.4029471" lon="0.9308939"><ele>0.0</ele><time>2026-04-29T21:20:38.994Z</time></trkpt><trkpt lat="39.4030244" lon="0.9309463"><ele>0.0</ele><time>2026-04-29T21:20:39.993Z</time></trkpt><trkpt lat="39.4031042" lon="0.9309863"><ele>0.0</ele><time>2026-04-29T21:20:40.994Z</time></trkpt><trkpt lat="39.4031843" lon="0.931026"><ele>0.0</ele><time>2026-04-29T21:20:41.993Z</time></trkpt><trkpt lat="39.403257" lon="0.9310785"><ele>0.0</ele><time>2026-04-29T21:20:42.994Z</time></trkpt><trkpt lat="39.4033272" lon="0.9311319"><ele>0.0</ele><time>2026-04-29T21:20:43.993Z</time></trkpt><trkpt lat="39.4034028" lon="0.9311852"><ele>0.0</ele><time>2026-04-29T21:20:44.993Z</time></trkpt><trkpt lat="39.4034798" lon="0.931234"><ele>0.0</ele><time>2026-04-29T21:20:45.994Z</time></trkpt><trkpt lat="39.4035507" lon="0.9312893"><ele>0.0</ele><time>2026-04-29T21:20:46.993Z</time></trkpt><trkpt lat="39.403625" lon="0.9313444"><ele>0.0</ele><time>2026-04-29T21:20:47.993Z</time></trkpt><trkpt lat="39.4036998" lon="0.931396"><ele>0.0</ele><time>2026-04-29T21:20:48.993Z</time></trkpt><trkpt lat="39.4037749" lon="0.931445"><ele>0.0</ele><time>2026-04-29T21:20:49.993Z</time></trkpt><trkpt lat="39.4039265" lon="0.9314895"><ele>0.0</ele><time>2026-04-29T21:20:51.994Z</time></trkpt><trkpt lat="39.4040046" lon="0.9315301"><ele>0.0</ele><time>2026-04-29T21:20:52.993Z</time></trkpt><trkpt lat="39.4040817" lon="0.9315471"><ele>0.0</ele><time>2026-04-29T21:20:53.993Z</time></trkpt><trkpt lat="39.4041568" lon="0.931563"><ele>0.0</ele><time>2026-04-29T21:20:54.994Z</time></trkpt><trkpt lat="39.4042317" lon="0.9316077"><ele>0.0</ele><time>2026-04-29T21:20:55.994Z</time></trkpt><trkpt lat="39.4043067" lon="0.9316659"><ele>0.0</ele><time>2026-04-29T21:20:56.993Z</time></trkpt><trkpt lat="39.404383" lon="0.9317231"><ele>0.0</ele><time>2026-04-29T21:20:57.993Z</time></trkpt><trkpt lat="39.4044569" lon="0.9317774"><ele>0.0</ele><time>2026-04-29T21:20:58.994Z</time></trkpt><trkpt lat="39.4045297" lon="0.9318334"><ele>0.0</ele><time>2026-04-29T21:20:59.994Z</time></trkpt><trkpt lat="39.4046033" lon="0.9318933"><ele>0.0</ele><time>2026-04-29T21:21:00.994Z</time></trkpt><trkpt lat="39.4046779" lon="0.931951"><ele>0.0</ele><time>2026-04-29T21:21:01.994Z</time></trkpt><trkpt lat="39.4047531" lon="0.9320028"><ele>0.0</ele><time>2026-04-29T21:21:02.994Z</time></trkpt><trkpt lat="39.4048313" lon="0.9320541"><ele>0.0</ele><time>2026-04-29T21:21:03.993Z</time></trkpt><trkpt lat="39.4049095" lon="0.9321187"><ele>0.0</ele><time>2026-04-29T21:21:04.994Z</time></trkpt><trkpt lat="39.4049822" lon="0.9322025"><ele>0.0</ele><time>2026-04-29T21:21:05.994Z</time></trkpt><trkpt lat="39.405061" lon="0.9322622"><ele>0.0</ele><time>2026-04-29T21:21:06.993Z</time></trkpt><trkpt lat="39.4051406" lon="0.932315"><ele>0.0</ele><time>2026-04-29T21:21:07.993Z</time></trkpt><trkpt lat="39.4052164" lon="0.932367"><ele>0.0</ele><time>2026-04-29T21:21:08.994Z</time></trkpt><trkpt lat="39.4052916" lon="0.9324257"><ele>0.0</ele><time>2026-04-29T21:21:09.994Z</time></trkpt><trkpt lat="39.4053642" lon="0.9324866"><ele>0.0</ele><time>2026-04-29T21:21:10.993Z</time></trkpt><trkpt lat="39.40551" lon="0.9326012"><ele>0.0</ele><time>2026-04-29T21:21:12.994Z</time></trkpt><trkpt lat="39.4055851" lon="0.9326614"><ele>0.0</ele><time>2026-04-29T21:21:13.993Z</time></trkpt><trkpt lat="39.4056571" lon="0.932723"><ele>0.0</ele><time>2026-04-29T21:21:14.993Z</time></trkpt><trkpt lat="39.4057301" lon="0.932785"><ele>0.0</ele><time>2026-04-29T21:21:15.993Z</time></trkpt><trkpt lat="39.4058062" lon="0.9328379"><ele>0.0</ele><time>2026-04-29T21:21:16.994Z</time></trkpt><trkpt lat="39.4058827" lon="0.9328907"><ele>0.0</ele><time>2026-04-29T21:21:17.993Z</time></trkpt><trkpt lat="39.4059579" lon="0.9329499"><ele>0.0</ele><time>2026-04-29T21:21:18.993Z</time></trkpt><trkpt lat="39.4060318" lon="0.9330023"><ele>0.0</ele><time>2026-04-29T21:21:19.993Z</time></trkpt><trkpt lat="39.4061065" lon="0.9330649"><ele>0.0</ele><time>2026-04-29T21:21:20.993Z</time></trkpt><trkpt lat="39.4061832" lon="0.9331242"><ele>0.0</ele><time>2026-04-29T21:21:21.993Z</time></trkpt><trkpt lat="39.4062585" lon="0.9331753"><ele>0.0</ele><time>2026-04-29T21:21:22.994Z</time></trkpt><trkpt lat="39.4063333" lon="0.933231"><ele>0.0</ele><time>2026-04-29T21:21:23.994Z</time></trkpt><trkpt lat="39.4064054" lon="0.9332931"><ele>0.0</ele><time>2026-04-29T21:21:24.993Z</time></trkpt><trkpt lat="39.4064799" lon="0.9333585"><ele>0.0</ele><time>2026-04-29T21:21:25.994Z</time></trkpt><trkpt lat="39.4065563" lon="0.9334278"><ele>0.0</ele><time>2026-04-29T21:21:26.993Z</time></trkpt><trkpt lat="39.406633" lon="0.9334837"><ele>0.0</ele><time>2026-04-29T21:21:27.993Z</time></trkpt><trkpt lat="39.4067095" lon="0.9335638"><ele>0.0</ele><time>2026-04-29T21:21:28.993Z</time></trkpt><trkpt lat="39.4067865" lon="0.9336254"><ele>0.0</ele><time>2026-04-29T21:21:29.994Z</time></trkpt><trkpt lat="39.4068616" lon="0.9336756"><ele>0.0</ele><time>2026-04-29T21:21:30.993Z</time></trkpt><trkpt lat="39.4069379" lon="0.9337298"><ele>0.0</ele><time>2026-04-29T21:21:31.993Z</time></trkpt><trkpt lat="39.4070867" lon="0.9338444"><ele>0.0</ele><time>2026-04-29T21:21:33.993Z</time></trkpt><trkpt lat="39.4071618" lon="0.9339016"><ele>0.0</ele><time>2026-04-29T21:21:34.993Z</time></trkpt><trkpt lat="39.4072368" lon="0.9339586"><ele>0.0</ele><time>2026-04-29T21:21:35.994Z</time></trkpt><trkpt lat="39.4073089" lon="0.9340165"><ele>0.0</ele><time>2026-04-29T21:21:36.994Z</time></trkpt><trkpt lat="39.4073819" lon="0.9340745"><ele>0.0</ele><time>2026-04-29T21:21:37.994Z</time></trkpt><trkpt lat="39.4074551" lon="0.9341299"><ele>0.0</ele><time>2026-04-29T21:21:38.993Z</time></trkpt><trkpt lat="39.4075314" lon="0.9341827"><ele>0.0</ele><time>2026-04-29T21:21:39.993Z</time></trkpt><trkpt lat="39.4076083" lon="0.9342369"><ele>0.0</ele><time>2026-04-29T21:21:40.993Z</time></trkpt><trkpt lat="39.4076863" lon="0.9342846"><ele>0.0</ele><time>2026-04-29T21:21:41.994Z</time></trkpt><trkpt lat="39.4077601" lon="0.9343366"><ele>0.0</ele><time>2026-04-29T21:21:42.993Z</time></trkpt><trkpt lat="39.4078318" lon="0.9343935"><ele>0.0</ele><time>2026-04-29T21:21:43.993Z</time></trkpt><trkpt lat="39.4078995" lon="0.9344439"><ele>0.0</ele><time>2026-04-29T21:21:44.993Z</time></trkpt><trkpt lat="39.4079661" lon="0.9344952"><ele>0.0</ele><time>2026-04-29T21:21:45.993Z</time></trkpt><trkpt lat="39.4080316" lon="0.9345328"><ele>0.0</ele><time>2026-04-29T21:21:46.993Z</time></trkpt><trkpt lat="39.4081009" lon="0.9345789"><ele>0.0</ele><time>2026-04-29T21:21:47.993Z</time></trkpt><trkpt lat="39.4081736" lon="0.9346339"><ele>0.0</ele><time>2026-04-29T21:21:48.994Z</time></trkpt><trkpt lat="39.4082526" lon="0.9346732"><ele>0.0</ele><time>2026-04-29T21:21:49.993Z</time></trkpt><trkpt lat="39.4083239" lon="0.934721"><ele>0.0</ele><time>2026-04-29T21:21:50.993Z</time></trkpt><trkpt lat="39.408394" lon="0.9347773"><ele>0.0</ele><time>2026-04-29T21:21:51.993Z</time></trkpt><trkpt lat="39.4085405" lon="0.934825"><ele>0.0</ele><time>2026-04-29T21:21:53.994Z</time></trkpt><trkpt lat="39.4086108" lon="0.9348523"><ele>0.0</ele><time>2026-04-29T21:21:54.993Z</time></trkpt><trkpt lat="39.4086833" lon="0.9349046"><ele>0.0</ele><time>2026-04-29T21:21:55.994Z</time></trkpt><trkpt lat="39.4087553" lon="0.9349613"><ele>0.0</ele><time>2026-04-29T21:21:56.994Z</time></trkpt><trkpt lat="39.4088283" lon="0.9350179"><ele>0.0</ele><time>2026-04-29T21:21:57.993Z</time></trkpt><trkpt lat="39.4088997" lon="0.9350809"><ele>0.0</ele><time>2026-04-29T21:21:58.993Z</time></trkpt><trkpt lat="39.4089772" lon="0.9351447"><ele>0.0</ele><time>2026-04-29T21:21:59.993Z</time></trkpt><trkpt lat="39.4090585" lon="0.9352023"><ele>0.0</ele><time>2026-04-29T21:22:00.993Z</time></trkpt><trkpt lat="39.4091374" lon="0.9352657"><ele>0.0</ele><time>2026-04-29T21:22:01.993Z</time></trkpt><trkpt lat="39.4092117" lon="0.935329"><ele>0.0</ele><time>2026-04-29T21:22:02.994Z</time></trkpt><trkpt lat="39.4092863" lon="0.9353868"><ele>0.0</ele><time>2026-04-29T21:22:03.993Z</time></trkpt><trkpt lat="39.4093628" lon="0.9354519"><ele>0.0</ele><time>2026-04-29T21:22:04.994Z</time></trkpt><trkpt lat="39.4094408" lon="0.9355162"><ele>0.0</ele><time>2026-04-29T21:22:05.994Z</time></trkpt><trkpt lat="39.409519" lon="0.935563"><ele>0.0</ele><time>2026-04-29T21:22:06.994Z</time></trkpt><trkpt lat="39.4095963" lon="0.9356263"><ele>0.0</ele><time>2026-04-29T21:22:07.994Z</time></trkpt><trkpt lat="39.4096686" lon="0.9356922"><ele>0.0</ele><time>2026-04-29T21:22:08.993Z</time></trkpt><trkpt lat="39.4097433" lon="0.9357444"><ele>0.0</ele><time>2026-04-29T21:22:09.994Z</time></trkpt><trkpt lat="39.4098214" lon="0.9357971"><ele>0.0</ele><time>2026-04-29T21:22:10.994Z</time></trkpt><trkpt lat="39.4098952" lon="0.9358533"><ele>0.0</ele><time>2026-04-29T21:22:11.994Z</time></trkpt><trkpt lat="39.4099685" lon="0.9358721"><ele>0.0</ele><time>2026-04-29T21:22:12.994Z</time></trkpt><trkpt lat="39.4101164" lon="0.9359724"><ele>0.0</ele><time>2026-04-29T21:22:14.993Z</time></trkpt><trkpt lat="39.4101916" lon="0.936029"><ele>0.0</ele><time>2026-04-29T21:22:15.993Z</time></trkpt><trkpt lat="39.4102667" lon="0.9360868"><ele>0.0</ele><time>2026-04-29T21:22:16.993Z</time></trkpt><trkpt lat="39.4103388" lon="0.9361256"><ele>0.0</ele><time>2026-04-29T21:22:17.993Z</time></trkpt><trkpt lat="39.4104119" lon="0.9361854"><ele>0.0</ele><time>2026-04-29T21:22:18.994Z</time></trkpt><trkpt lat="39.4104823" lon="0.9362298"><ele>0.0</ele><time>2026-04-29T21:22:19.993Z</time></trkpt><trkpt lat="39.4105551" lon="0.9362684"><ele>0.0</ele><time>2026-04-29T21:22:20.994Z</time></trkpt><trkpt lat="39.4106311" lon="0.9363267"><ele>0.0</ele><time>2026-04-29T21:22:21.994Z</time></trkpt><trkpt lat="39.410701" lon="0.9363748"><ele>0.0</ele><time>2026-04-29T21:22:22.993Z</time></trkpt><trkpt lat="39.4107753" lon="0.9364299"><ele>0.0</ele><time>2026-04-29T21:22:23.993Z</time></trkpt><trkpt lat="39.4108531" lon="0.9364843"><ele>0.0</ele><time>2026-04-29T21:22:24.993Z</time></trkpt><trkpt lat="39.4109315" lon="0.9365404"><ele>0.0</ele><time>2026-04-29T21:22:25.993Z</time></trkpt><trkpt lat="39.4110083" lon="0.936587"><ele>0.0</ele><time>2026-04-29T21:22:26.994Z</time></trkpt><trkpt lat="39.4110892" lon="0.9366362"><ele>0.0</ele><time>2026-04-29T21:22:27.993Z</time></trkpt><trkpt lat="39.4111689" lon="0.9366929"><ele>0.0</ele><time>2026-04-29T21:22:28.993Z</time></trkpt><trkpt lat="39.4112422" lon="0.9367426"><ele>0.0</ele><time>2026-04-29T21:22:29.993Z</time></trkpt><trkpt lat="39.4113179" lon="0.9367996"><ele>0.0</ele><time>2026-04-29T21:22:30.994Z</time></trkpt><trkpt lat="39.4113935" lon="0.9368483"><ele>0.0</ele><time>2026-04-29T21:22:31.992Z</time></trkpt><trkpt lat="39.4114666" lon="0.9369046"><ele>0.0</ele><time>2026-04-29T21:22:32.992Z</time></trkpt><trkpt lat="39.41154" lon="0.9369712"><ele>0.0</ele><time>2026-04-29T21:22:33.992Z</time></trkpt><trkpt lat="39.4116821" lon="0.9370877"><ele>0.0</ele><time>2026-04-29T21:22:35.992Z</time></trkpt><trkpt lat="39.4117549" lon="0.9371497"><ele>0.0</ele><time>2026-04-29T21:22:36.992Z</time></trkpt><trkpt lat="39.4118284" lon="0.9372114"><ele>0.0</ele><time>2026-04-29T21:22:37.992Z</time></trkpt><trkpt lat="39.4119064" lon="0.9372726"><ele>0.0</ele><time>2026-04-29T21:22:38.993Z</time></trkpt><trkpt lat="39.4119805" lon="0.9373269"><ele>0.0</ele><time>2026-04-29T21:22:39.992Z</time></trkpt><trkpt lat="39.4120609" lon="0.9373866"><ele>0.0</ele><time>2026-04-29T21:22:40.993Z</time></trkpt><trkpt lat="39.4121408" lon="0.9374513"><ele>0.0</ele><time>2026-04-29T21:22:41.993Z</time></trkpt><trkpt lat="39.4122125" lon="0.9375359"><ele>0.0</ele><time>2026-04-29T21:22:42.993Z</time></trkpt><trkpt lat="39.4122841" lon="0.9375918"><ele>0.0</ele><time>2026-04-29T21:22:43.993Z</time></trkpt><trkpt lat="39.4123555" lon="0.9376485"><ele>0.0</ele><time>2026-04-29T21:22:44.993Z</time></trkpt><trkpt lat="39.4124273" lon="0.9377119"><ele>0.0</ele><time>2026-04-29T21:22:45.992Z</time></trkpt><trkpt lat="39.4124946" lon="0.9377696"><ele>0.0</ele><time>2026-04-29T21:22:46.992Z</time></trkpt><trkpt lat="39.4125658" lon="0.9378234"><ele>0.0</ele><time>2026-04-29T21:22:47.993Z</time></trkpt><trkpt lat="39.4126421" lon="0.9378741"><ele>0.0</ele><time>2026-04-29T21:22:48.993Z</time></trkpt><trkpt lat="39.4127201" lon="0.9378945"><ele>0.0</ele><time>2026-04-29T21:22:49.992Z</time></trkpt><trkpt lat="39.412794" lon="0.9379336"><ele>0.0</ele><time>2026-04-29T21:22:50.992Z</time></trkpt><trkpt lat="39.4128685" lon="0.9379863"><ele>0.0</ele><time>2026-04-29T21:22:51.992Z</time></trkpt><trkpt lat="39.4129361" lon="0.9380446"><ele>0.0</ele><time>2026-04-29T21:22:52.992Z</time></trkpt><trkpt lat="39.4130113" lon="0.938098"><ele>0.0</ele><time>2026-04-29T21:22:53.993Z</time></trkpt><trkpt lat="39.4130864" lon="0.938161"><ele>0.0</ele><time>2026-04-29T21:22:54.992Z</time></trkpt><trkpt lat="39.413166" lon="0.9382155"><ele>0.0</ele><time>2026-04-29T21:22:55.992Z</time></trkpt><trkpt lat="39.4133037" lon="0.938299"><ele>0.0</ele><time>2026-04-29T21:22:57.993Z</time></trkpt><trkpt lat="39.413377" lon="0.9383184"><ele>0.0</ele><time>2026-04-29T21:22:58.992Z</time></trkpt><trkpt lat="39.4134487" lon="0.9383411"><ele>0.0</ele><time>2026-04-29T21:22:59.993Z</time></trkpt><trkpt lat="39.4135217" lon="0.9383829"><ele>0.0</ele><time>2026-04-29T21:23:00.993Z</time></trkpt><trkpt lat="39.4135952" lon="0.9384317"><ele>0.0</ele><time>2026-04-29T21:23:01.992Z</time></trkpt><trkpt lat="39.4136697" lon="0.9384813"><ele>0.0</ele><time>2026-04-29T21:23:02.992Z</time></trkpt><trkpt lat="39.4137449" lon="0.9385267"><ele>0.0</ele><time>2026-04-29T21:23:03.992Z</time></trkpt><trkpt lat="39.4138215" lon="0.9385697"><ele>0.0</ele><time>2026-04-29T21:23:04.992Z</time></trkpt><trkpt lat="39.4139012" lon="0.9386109"><ele>0.0</ele><time>2026-04-29T21:23:05.992Z</time></trkpt><trkpt lat="39.4139797" lon="0.9386526"><ele>0.0</ele><time>2026-04-29T21:23:06.992Z</time></trkpt><trkpt lat="39.4140653" lon="0.9386987"><ele>0.0</ele><time>2026-04-29T21:23:07.992Z</time></trkpt><trkpt lat="39.4141431" lon="0.9387474"><ele>0.0</ele><time>2026-04-29T21:23:08.992Z</time></trkpt><trkpt lat="39.4142224" lon="0.9388005"><ele>0.0</ele><time>2026-04-29T21:23:09.993Z</time></trkpt><trkpt lat="39.4142981" lon="0.9388542"><ele>0.0</ele><time>2026-04-29T21:23:10.992Z</time></trkpt><trkpt lat="39.4143761" lon="0.938909"><ele>0.0</ele><time>2026-04-29T21:23:11.992Z</time></trkpt><trkpt lat="39.4144517" lon="0.9389609"><ele>0.0</ele><time>2026-04-29T21:23:12.992Z</time></trkpt><trkpt lat="39.4145269" lon="0.939011"><ele>0.0</ele><time>2026-04-29T21:23:13.992Z</time></trkpt><trkpt lat="39.4146016" lon="0.9390639"><ele>0.0</ele><time>2026-04-29T21:23:14.993Z</time></trkpt><trkpt lat="39.4146732" lon="0.9391291"><ele>0.0</ele><time>2026-04-29T21:23:15.993Z</time></trkpt><trkpt lat="39.4147465" lon="0.9391872"><ele>0.0</ele><time>2026-04-29T21:23:16.992Z</time></trkpt><trkpt lat="39.4148951" lon="0.9393705"><ele>0.0</ele><time>2026-04-29T21:23:18.992Z</time></trkpt><trkpt lat="39.414967" lon="0.9394582"><ele>0.0</ele><time>2026-04-29T21:23:19.993Z</time></trkpt><trkpt lat="39.4150344" lon="0.9395207"><ele>0.0</ele><time>2026-04-29T21:23:20.993Z</time></trkpt><trkpt lat="39.4151028" lon="0.9395808"><ele>0.0</ele><time>2026-04-29T21:23:21.993Z</time></trkpt><trkpt lat="39.4151814" lon="0.9396429"><ele>0.0</ele><time>2026-04-29T21:23:22.992Z</time></trkpt><trkpt lat="39.4152603" lon="0.939696"><ele>0.0</ele><time>2026-04-29T21:23:23.992Z</time></trkpt><trkpt lat="39.415334" lon="0.9397436"><ele>0.0</ele><time>2026-04-29T21:23:24.993Z</time></trkpt><trkpt lat="39.4154087" lon="0.9397932"><ele>0.0</ele><time>2026-04-29T21:23:25.992Z</time></trkpt><trkpt lat="39.4154875" lon="0.9398494"><ele>0.0</ele><time>2026-04-29T21:23:26.992Z</time></trkpt><trkpt lat="39.4155644" lon="0.9399046"><ele>0.0</ele><time>2026-04-29T21:23:27.993Z</time></trkpt><trkpt lat="39.4156399" lon="0.9399605"><ele>0.0</ele><time>2026-04-29T21:23:28.993Z</time></trkpt><trkpt lat="39.4157165" lon="0.9400112"><ele>0.0</ele><time>2026-04-29T21:23:29.992Z</time></trkpt><trkpt lat="39.4157961" lon="0.940068"><ele>0.0</ele><time>2026-04-29T21:23:30.992Z</time></trkpt><trkpt lat="39.4158729" lon="0.9401256"><ele>0.0</ele><time>2026-04-29T21:23:31.993Z</time></trkpt><trkpt lat="39.4159467" lon="0.9401832"><ele>0.0</ele><time>2026-04-29T21:23:32.992Z</time></trkpt><trkpt lat="39.4160202" lon="0.9402367"><ele>0.0</ele><time>2026-04-29T21:23:33.992Z</time></trkpt><trkpt lat="39.4160923" lon="0.9402986"><ele>0.0</ele><time>2026-04-29T21:23:34.992Z</time></trkpt><trkpt lat="39.4161666" lon="0.9403562"><ele>0.0</ele><time>2026-04-29T21:23:35.993Z</time></trkpt><trkpt lat="39.4162418" lon="0.9404115"><ele>0.0</ele><time>2026-04-29T21:23:36.992Z</time></trkpt><trkpt lat="39.4163125" lon="0.940476"><ele>0.0</ele><time>2026-04-29T21:23:37.993Z</time></trkpt><trkpt lat="39.4164503" lon="0.9405753"><ele>0.0</ele><time>2026-04-29T21:23:39.993Z</time></trkpt><trkpt lat="39.4165231" lon="0.9406302"><ele>0.0</ele><time>2026-04-29T21:23:40.993Z</time></trkpt><trkpt lat="39.4165981" lon="0.9406654"><ele>0.0</ele><time>2026-04-29T21:23:41.992Z</time></trkpt><trkpt lat="39.4166731" lon="0.9407127"><ele>0.0</ele><time>2026-04-29T21:23:42.992Z</time></trkpt><trkpt lat="39.4167456" lon="0.9407714"><ele>0.0</ele><time>2026-04-29T21:23:43.992Z</time></trkpt><trkpt lat="39.4168215" lon="0.9408102"><ele>0.0</ele><time>2026-04-29T21:23:44.992Z</time></trkpt><trkpt lat="39.4168953" lon="0.9408526"><ele>0.0</ele><time>2026-04-29T21:23:45.992Z</time></trkpt><trkpt lat="39.4169699" lon="0.9409084"><ele>0.0</ele><time>2026-04-29T21:23:46.993Z</time></trkpt><trkpt lat="39.4170403" lon="0.9409631"><ele>0.0</ele><time>2026-04-29T21:23:47.993Z</time></trkpt><trkpt lat="39.4171087" lon="0.9410254"><ele>0.0</ele><time>2026-04-29T21:23:48.993Z</time></trkpt><trkpt lat="39.417176" lon="0.9410831"><ele>0.0</ele><time>2026-04-29T21:23:49.993Z</time></trkpt><trkpt lat="39.4172486" lon="0.9411352"><ele>0.0</ele><time>2026-04-29T21:23:50.993Z</time></trkpt><trkpt lat="39.4173203" lon="0.9411837"><ele>0.0</ele><time>2026-04-29T21:23:51.993Z</time></trkpt><trkpt lat="39.4173976" lon="0.9412376"><ele>0.0</ele><time>2026-04-29T21:23:52.993Z</time></trkpt><trkpt lat="39.4174747" lon="0.941289"><ele>0.0</ele><time>2026-04-29T21:23:53.993Z</time></trkpt><trkpt lat="39.4175486" lon="0.9413462"><ele>0.0</ele><time>2026-04-29T21:23:54.993Z</time></trkpt><trkpt lat="39.4176236" lon="0.9414017"><ele>0.0</ele><time>2026-04-29T21:23:55.993Z</time></trkpt><trkpt lat="39.4177023" lon="0.9414489"><ele>0.0</ele><time>2026-04-29T21:23:56.993Z</time></trkpt><trkpt lat="39.4177781" lon="0.9415173"><ele>0.0</ele><time>2026-04-29T21:23:57.992Z</time></trkpt><trkpt lat="39.4178517" lon="0.9415809"><ele>0.0</ele><time>2026-04-29T21:23:58.992Z</time></trkpt><trkpt lat="39.4179294" lon="0.9416367"><ele>0.0</ele><time>2026-04-29T21:23:59.993Z</time></trkpt><trkpt lat="39.4180845" lon="0.9417671"><ele>0.0</ele><time>2026-04-29T21:24:01.993Z</time></trkpt><trkpt lat="39.4181572" lon="0.9418256"><ele>0.0</ele><time>2026-04-29T21:24:02.993Z</time></trkpt><trkpt lat="39.4182303" lon="0.9418827"><ele>0.0</ele><time>2026-04-29T21:24:03.993Z</time></trkpt><trkpt lat="39.4183045" lon="0.9419355"><ele>0.0</ele><time>2026-04-29T21:24:04.992Z</time></trkpt><trkpt lat="39.4183767" lon="0.9419624"><ele>0.0</ele><time>2026-04-29T21:24:05.992Z</time></trkpt><trkpt lat="39.4184542" lon="0.9420117"><ele>0.0</ele><time>2026-04-29T21:24:06.993Z</time></trkpt><trkpt lat="39.4185297" lon="0.9420657"><ele>0.0</ele><time>2026-04-29T21:24:07.993Z</time></trkpt><trkpt lat="39.4186031" lon="0.9421294"><ele>0.0</ele><time>2026-04-29T21:24:08.993Z</time></trkpt><trkpt lat="39.4186719" lon="0.9421785"><ele>0.0</ele><time>2026-04-29T21:24:09.993Z</time></trkpt><trkpt lat="39.418745" lon="0.9422223"><ele>0.0</ele><time>2026-04-29T21:24:10.992Z</time></trkpt><trkpt lat="39.4188201" lon="0.9422583"><ele>0.0</ele><time>2026-04-29T21:24:11.992Z</time></trkpt><trkpt lat="39.4188965" lon="0.9423082"><ele>0.0</ele><time>2026-04-29T21:24:12.992Z</time></trkpt><trkpt lat="39.4189689" lon="0.9423397"><ele>0.0</ele><time>2026-04-29T21:24:13.992Z</time></trkpt><trkpt lat="39.4190449" lon="0.9423999"><ele>0.0</ele><time>2026-04-29T21:24:14.992Z</time></trkpt><trkpt lat="39.4191224" lon="0.9424552"><ele>0.0</ele><time>2026-04-29T21:24:15.992Z</time></trkpt><trkpt lat="39.4192005" lon="0.9425069"><ele>0.0</ele><time>2026-04-29T21:24:16.992Z</time></trkpt><trkpt lat="39.4192762" lon="0.9425539"><ele>0.0</ele><time>2026-04-29T21:24:17.993Z</time></trkpt><trkpt lat="39.4193517" lon="0.9426137"><ele>0.0</ele><time>2026-04-29T21:24:18.992Z</time></trkpt><trkpt lat="39.4194251" lon="0.9426743"><ele>0.0</ele><time>2026-04-29T21:24:19.992Z</time></trkpt><trkpt lat="39.4194982" lon="0.9427298"><ele>0.0</ele><time>2026-04-29T21:24:20.993Z</time></trkpt><trkpt lat="39.4196452" lon="0.9428462"><ele>0.0</ele><time>2026-04-29T21:24:22.992Z</time></trkpt><trkpt lat="39.4197174" lon="0.9429052"><ele>0.0</ele><time>2026-04-29T21:24:23.992Z</time></trkpt><trkpt lat="39.4197944" lon="0.9429647"><ele>0.0</ele><time>2026-04-29T21:24:24.992Z</time></trkpt><trkpt lat="39.4198697" lon="0.9429949"><ele>0.0</ele><time>2026-04-29T21:24:25.992Z</time></trkpt><trkpt lat="39.4199491" lon="0.9430331"><ele>0.0</ele><time>2026-04-29T21:24:26.992Z</time></trkpt><trkpt lat="39.4200249" lon="0.9430871"><ele>0.0</ele><time>2026-04-29T21:24:27.993Z</time></trkpt><trkpt lat="39.4201014" lon="0.943139"><ele>0.0</ele><time>2026-04-29T21:24:28.992Z</time></trkpt><trkpt lat="39.4201781" lon="0.9432021"><ele>0.0</ele><time>2026-04-29T21:24:29.992Z</time></trkpt><trkpt lat="39.4202535" lon="0.943261"><ele>0.0</ele><time>2026-04-29T21:24:30.992Z</time></trkpt><trkpt lat="39.4203283" lon="0.9433251"><ele>0.0</ele><time>2026-04-29T21:24:31.992Z</time></trkpt><trkpt lat="39.4204003" lon="0.9433828"><ele>0.0</ele><time>2026-04-29T21:24:32.993Z</time></trkpt><trkpt lat="39.420475" lon="0.9434405"><ele>0.0</ele><time>2026-04-29T21:24:33.992Z</time></trkpt><trkpt lat="39.4205516" lon="0.943501"><ele>0.0</ele><time>2026-04-29T21:24:34.992Z</time></trkpt><trkpt lat="39.4206255" lon="0.9435654"><ele>0.0</ele><time>2026-04-29T21:24:35.993Z</time></trkpt><trkpt lat="39.4207001" lon="0.9436357"><ele>0.0</ele><time>2026-04-29T21:24:36.992Z</time></trkpt><trkpt lat="39.4207718" lon="0.9436963"><ele>0.0</ele><time>2026-04-29T21:24:37.993Z</time></trkpt><trkpt lat="39.4208435" lon="0.9437539"><ele>0.0</ele><time>2026-04-29T21:24:38.992Z</time></trkpt><trkpt lat="39.4209139" lon="0.9438094"><ele>0.0</ele><time>2026-04-29T21:24:39.993Z</time></trkpt><trkpt lat="39.4209854" lon="0.9438692"><ele>0.0</ele><time>2026-04-29T21:24:40.993Z</time></trkpt><trkpt lat="39.4210587" lon="0.9439287"><ele>0.0</ele><time>2026-04-29T21:24:41.992Z</time></trkpt><trkpt lat="39.4212033" lon="0.9440458"><ele>0.0</ele><time>2026-04-29T21:24:43.993Z</time></trkpt><trkpt lat="39.4212796" lon="0.9441115"><ele>0.0</ele><time>2026-04-29T21:24:44.993Z</time></trkpt><trkpt lat="39.4213394" lon="0.9441706"><ele>0.0</ele><time>2026-04-29T21:24:45.992Z</time></trkpt><trkpt lat="39.4214043" lon="0.9442285"><ele>0.0</ele><time>2026-04-29T21:24:46.993Z</time></trkpt><trkpt lat="39.4214765" lon="0.9442798"><ele>0.0</ele><time>2026-04-29T21:24:47.992Z</time></trkpt><trkpt lat="39.4215556" lon="0.9443364"><ele>0.0</ele><time>2026-04-29T21:24:48.992Z</time></trkpt><trkpt lat="39.4216342" lon="0.9443776"><ele>0.0</ele><time>2026-04-29T21:24:49.992Z</time></trkpt><trkpt lat="39.4217113" lon="0.9444306"><ele>0.0</ele><time>2026-04-29T21:24:50.992Z</time></trkpt><trkpt lat="39.4217851" lon="0.9444841"><ele>0.0</ele><time>2026-04-29T21:24:51.992Z</time></trkpt><trkpt lat="39.4218571" lon="0.9445537"><ele>0.0</ele><time>2026-04-29T21:24:52.992Z</time></trkpt><trkpt lat="39.4219312" lon="0.9446193"><ele>0.0</ele><time>2026-04-29T21:24:53.993Z</time></trkpt><trkpt lat="39.4220105" lon="0.9446783"><ele>0.0</ele><time>2026-04-29T21:24:54.992Z</time></trkpt><trkpt lat="39.4220906" lon="0.9447333"><ele>0.0</ele><time>2026-04-29T21:24:55.992Z</time></trkpt><trkpt lat="39.4221722" lon="0.9447911"><ele>0.0</ele><time>2026-04-29T21:24:56.993Z</time></trkpt><trkpt lat="39.4222481" lon="0.9448027"><ele>0.0</ele><time>2026-04-29T21:24:57.992Z</time></trkpt><trkpt lat="39.4223236" lon="0.9448453"><ele>0.0</ele><time>2026-04-29T21:24:58.992Z</time></trkpt><trkpt lat="39.4223943" lon="0.9449031"><ele>0.0</ele><time>2026-04-29T21:24:59.993Z</time></trkpt><trkpt lat="39.4224642" lon="0.9449613"><ele>0.0</ele><time>2026-04-29T21:25:00.992Z</time></trkpt><trkpt lat="39.422534" lon="0.9450209"><ele>0.0</ele><time>2026-04-29T21:25:01.993Z</time></trkpt><trkpt lat="39.4226056" lon="0.9450708"><ele>0.0</ele><time>2026-04-29T21:25:02.992Z</time></trkpt><trkpt lat="39.4226787" lon="0.9451192"><ele>0.0</ele><time>2026-04-29T21:25:03.993Z</time></trkpt><trkpt lat="39.4228235" lon="0.9452247"><ele>0.0</ele><time>2026-04-29T21:25:05.993Z</time></trkpt><trkpt lat="39.4228981" lon="0.9452895"><ele>0.0</ele><time>2026-04-29T21:25:06.993Z</time></trkpt><trkpt lat="39.4229732" lon="0.9453535"><ele>0.0</ele><time>2026-04-29T21:25:07.993Z</time></trkpt><trkpt lat="39.4230512" lon="0.9454173"><ele>0.0</ele><time>2026-04-29T21:25:08.993Z</time></trkpt><trkpt lat="39.4231297" lon="0.9454767"><ele>0.0</ele><time>2026-04-29T21:25:09.992Z</time></trkpt><trkpt lat="39.423205" lon="0.9455375"><ele>0.0</ele><time>2026-04-29T21:25:10.992Z</time></trkpt><trkpt lat="39.4232783" lon="0.9455738"><ele>0.0</ele><time>2026-04-29T21:25:11.992Z</time></trkpt><trkpt lat="39.423353" lon="0.9456117"><ele>0.0</ele><time>2026-04-29T21:25:12.992Z</time></trkpt><trkpt lat="39.423431" lon="0.9456684"><ele>0.0</ele><time>2026-04-29T21:25:13.992Z</time></trkpt><trkpt lat="39.4235094" lon="0.9457295"><ele>0.0</ele><time>2026-04-29T21:25:14.992Z</time></trkpt><trkpt lat="39.4235863" lon="0.945785"><ele>0.0</ele><time>2026-04-29T21:25:15.992Z</time></trkpt><trkpt lat="39.4236647" lon="0.9458411"><ele>0.0</ele><time>2026-04-29T21:25:16.993Z</time></trkpt><trkpt lat="39.4237402" lon="0.9458878"><ele>0.0</ele><time>2026-04-29T21:25:17.993Z</time></trkpt><trkpt lat="39.4238124" lon="0.9459397"><ele>0.0</ele><time>2026-04-29T21:25:18.993Z</time></trkpt><trkpt lat="39.4238824" lon="0.9459583"><ele>0.0</ele><time>2026-04-29T21:25:19.993Z</time></trkpt><trkpt lat="39.4239564" lon="0.9459804"><ele>0.0</ele><time>2026-04-29T21:25:20.993Z</time></trkpt><trkpt lat="39.42403" lon="0.9460093"><ele>0.0</ele><time>2026-04-29T21:25:21.993Z</time></trkpt><trkpt lat="39.4241007" lon="0.9460623"><ele>0.0</ele><time>2026-04-29T21:25:22.992Z</time></trkpt><trkpt lat="39.4241767" lon="0.9461199"><ele>0.0</ele><time>2026-04-29T21:25:23.993Z</time></trkpt><trkpt lat="39.4242505" lon="0.9461708"><ele>0.0</ele><time>2026-04-29T21:25:24.992Z</time></trkpt><trkpt lat="39.4243987" lon="0.9462902"><ele>0.0</ele><time>2026-04-29T21:25:26.992Z</time></trkpt><trkpt lat="39.424472" lon="0.9463237"><ele>0.0</ele><time>2026-04-29T21:25:27.993Z</time></trkpt><trkpt lat="39.4245397" lon="0.9463903"><ele>0.0</ele><time>2026-04-29T21:25:28.992Z</time></trkpt><trkpt lat="39.4246133" lon="0.9464602"><ele>0.0</ele><time>2026-04-29T21:25:29.992Z</time></trkpt><trkpt lat="39.424687" lon="0.9465184"><ele>0.0</ele><time>2026-04-29T21:25:30.993Z</time></trkpt><trkpt lat="39.4247617" lon="0.9465756"><ele>0.0</ele><time>2026-04-29T21:25:31.993Z</time></trkpt><trkpt lat="39.4248369" lon="0.9466345"><ele>0.0</ele><time>2026-04-29T21:25:32.992Z</time></trkpt><trkpt lat="39.4249132" lon="0.9466945"><ele>0.0</ele><time>2026-04-29T21:25:33.992Z</time></trkpt><trkpt lat="39.4249895" lon="0.9467538"><ele>0.0</ele><time>2026-04-29T21:25:34.993Z</time></trkpt><trkpt lat="39.425066" lon="0.9468075"><ele>0.0</ele><time>2026-04-29T21:25:35.993Z</time></trkpt><trkpt lat="39.4251428" lon="0.9468766"><ele>0.0</ele><time>2026-04-29T21:25:36.992Z</time></trkpt><trkpt lat="39.4252183" lon="0.9469488"><ele>0.0</ele><time>2026-04-29T21:25:37.992Z</time></trkpt><trkpt lat="39.4252887" lon="0.9470301"><ele>0.0</ele><time>2026-04-29T21:25:38.993Z</time></trkpt><trkpt lat="39.4253628" lon="0.9470896"><ele>0.0</ele><time>2026-04-29T21:25:39.992Z</time></trkpt><trkpt lat="39.4254409" lon="0.9471398"><ele>0.0</ele><time>2026-04-29T21:25:40.992Z</time></trkpt><trkpt lat="39.4255145" lon="0.9471922"><ele>0.0</ele><time>2026-04-29T21:25:41.993Z</time></trkpt><trkpt lat="39.4255881" lon="0.9472466"><ele>0.0</ele><time>2026-04-29T21:25:42.992Z</time></trkpt><trkpt lat="39.4256602" lon="0.9473012"><ele>0.0</ele><time>2026-04-29T21:25:43.992Z</time></trkpt><trkpt lat="39.425735" lon="0.9473579"><ele>0.0</ele><time>2026-04-29T21:25:44.992Z</time></trkpt><trkpt lat="39.4258054" lon="0.9474129"><ele>0.0</ele><time>2026-04-29T21:25:45.992Z</time></trkpt><trkpt lat="39.425964" lon="0.9475211"><ele>0.0</ele><time>2026-04-29T21:25:47.993Z</time></trkpt><trkpt lat="39.4260441" lon="0.9475768"><ele>0.0</ele><time>2026-04-29T21:25:48.993Z</time></trkpt><trkpt lat="39.4261186" lon="0.9476327"><ele>0.0</ele><time>2026-04-29T21:25:49.993Z</time></trkpt><trkpt lat="39.4261948" lon="0.947693"><ele>0.0</ele><time>2026-04-29T21:25:50.993Z</time></trkpt><trkpt lat="39.4262699" lon="0.9477431"><ele>0.0</ele><time>2026-04-29T21:25:51.993Z</time></trkpt><trkpt lat="39.426345" lon="0.947796"><ele>0.0</ele><time>2026-04-29T21:25:52.992Z</time></trkpt><trkpt lat="39.4264227" lon="0.9478397"><ele>0.0</ele><time>2026-04-29T21:25:53.992Z</time></trkpt><trkpt lat="39.426498" lon="0.9478929"><ele>0.0</ele><time>2026-04-29T21:25:54.993Z</time></trkpt><trkpt lat="39.4265729" lon="0.9479446"><ele>0.0</ele><time>2026-04-29T21:25:55.993Z</time></trkpt><trkpt lat="39.4266466" lon="0.9479935"><ele>0.0</ele><time>2026-04-29T21:25:56.992Z</time></trkpt><trkpt lat="39.4267185" lon="0.948042"><ele>0.0</ele><time>2026-04-29T21:25:57.992Z</time></trkpt><trkpt lat="39.4267917" lon="0.9480945"><ele>0.0</ele><time>2026-04-29T21:25:58.992Z</time></trkpt><trkpt lat="39.4268694" lon="0.9481461"><ele>0.0</ele><time>2026-04-29T21:25:59.992Z</time></trkpt><trkpt lat="39.4269446" lon="0.9482047"><ele>0.0</ele><time>2026-04-29T21:26:00.992Z</time></trkpt><trkpt lat="39.4270155" lon="0.9482618"><ele>0.0</ele><time>2026-04-29T21:26:01.993Z</time></trkpt><trkpt lat="39.4270883" lon="0.9483131"><ele>0.0</ele><time>2026-04-29T21:26:02.993Z</time></trkpt><trkpt lat="39.427157" lon="0.9483661"><ele>0.0</ele><time>2026-04-29T21:26:03.992Z</time></trkpt><trkpt lat="39.4272297" lon="0.9484152"><ele>0.0</ele><time>2026-04-29T21:26:04.993Z</time></trkpt><trkpt lat="39.427306" lon="0.9484663"><ele>0.0</ele><time>2026-04-29T21:26:05.992Z</time></trkpt><trkpt lat="39.4274614" lon="0.9485852"><ele>0.0</ele><time>2026-04-29T21:26:07.992Z</time></trkpt><trkpt lat="39.4275354" lon="0.9486477"><ele>0.0</ele><time>2026-04-29T21:26:08.992Z</time></trkpt><trkpt lat="39.4276045" lon="0.9487109"><ele>0.0</ele><time>2026-04-29T21:26:09.993Z</time></trkpt><trkpt lat="39.4276798" lon="0.9487641"><ele>0.0</ele><time>2026-04-29T21:26:10.992Z</time></trkpt><trkpt lat="39.4277563" lon="0.9488164"><ele>0.0</ele><time>2026-04-29T21:26:11.993Z</time></trkpt><trkpt lat="39.4278343" lon="0.9488749"><ele>0.0</ele><time>2026-04-29T21:26:12.992Z</time></trkpt><trkpt lat="39.4279099" lon="0.9489362"><ele>0.0</ele><time>2026-04-29T21:26:13.992Z</time></trkpt><trkpt lat="39.427985" lon="0.9489699"><ele>0.0</ele><time>2026-04-29T21:26:14.992Z</time></trkpt><trkpt lat="39.4280555" lon="0.9490232"><ele>0.0</ele><time>2026-04-29T21:26:15.992Z</time></trkpt><trkpt lat="39.4281303" lon="0.9490751"><ele>0.0</ele><time>2026-04-29T21:26:16.993Z</time></trkpt><trkpt lat="39.4282037" lon="0.9491285"><ele>0.0</ele><time>2026-04-29T21:26:17.992Z</time></trkpt><trkpt lat="39.4282757" lon="0.9491762"><ele>0.0</ele><time>2026-04-29T21:26:18.993Z</time></trkpt><trkpt lat="39.4283456" lon="0.9492431"><ele>0.0</ele><time>2026-04-29T21:26:19.992Z</time></trkpt><trkpt lat="39.4284227" lon="0.949297"><ele>0.0</ele><time>2026-04-29T21:26:20.993Z</time></trkpt><trkpt lat="39.4284952" lon="0.9493489"><ele>0.0</ele><time>2026-04-29T21:26:21.992Z</time></trkpt><trkpt lat="39.4285728" lon="0.9493976"><ele>0.0</ele><time>2026-04-29T21:26:22.992Z</time></trkpt><trkpt lat="39.4286485" lon="0.9494504"><ele>0.0</ele><time>2026-04-29T21:26:23.992Z</time></trkpt><trkpt lat="39.4287205" lon="0.9495094"><ele>0.0</ele><time>2026-04-29T21:26:24.993Z</time></trkpt><trkpt lat="39.4288021" lon="0.9495651"><ele>0.0</ele><time>2026-04-29T21:26:25.993Z</time></trkpt><trkpt lat="39.4288796" lon="0.9496174"><ele>0.0</ele><time>2026-04-29T21:26:26.992Z</time></trkpt><trkpt lat="39.4290361" lon="0.9497187"><ele>0.0</ele><time>2026-04-29T21:26:28.993Z</time></trkpt><trkpt lat="39.4291145" lon="0.9497718"><ele>0.0</ele><time>2026-04-29T21:26:29.992Z</time></trkpt><trkpt lat="39.4291914" lon="0.9498237"><ele>0.0</ele><time>2026-04-29T21:26:30.993Z</time></trkpt><trkpt lat="39.4292682" lon="0.9498773"><ele>0.0</ele><time>2026-04-29T21:26:31.992Z</time></trkpt><trkpt lat="39.4293405" lon="0.9499277"><ele>0.0</ele><time>2026-04-29T21:26:32.992Z</time></trkpt><trkpt lat="39.4294252" lon="0.9500238"><ele>0.0</ele><time>2026-04-29T21:26:33.992Z</time></trkpt><trkpt lat="39.4294991" lon="0.9501036"><ele>0.0</ele><time>2026-04-29T21:26:34.993Z</time></trkpt><trkpt lat="39.4295721" lon="0.9501296"><ele>0.0</ele><time>2026-04-29T21:26:35.992Z</time></trkpt><trkpt lat="39.4296452" lon="0.950178"><ele>0.0</ele><time>2026-04-29T21:26:36.992Z</time></trkpt><trkpt lat="39.4297185" lon="0.9502302"><ele>0.0</ele><time>2026-04-29T21:26:37.992Z</time></trkpt><trkpt lat="39.4297919" lon="0.9502964"><ele>0.0</ele><time>2026-04-29T21:26:38.993Z</time></trkpt><trkpt lat="39.4298612" lon="0.9503152"><ele>0.0</ele><time>2026-04-29T21:26:39.992Z</time></trkpt><trkpt lat="39.429934" lon="0.9503581"><ele>0.0</ele><time>2026-04-29T21:26:40.993Z</time></trkpt><trkpt lat="39.4300071" lon="0.9504114"><ele>0.0</ele><time>2026-04-29T21:26:41.992Z</time></trkpt><trkpt lat="39.4300802" lon="0.9504622"><ele>0.0</ele><time>2026-04-29T21:26:42.991Z</time></trkpt><trkpt lat="39.4301521" lon="0.9505172"><ele>0.0</ele><time>2026-04-29T21:26:43.991Z</time></trkpt><trkpt lat="39.4302278" lon="0.9505652"><ele>0.0</ele><time>2026-04-29T21:26:44.991Z</time></trkpt><trkpt lat="39.4303061" lon="0.9506157"><ele>0.0</ele><time>2026-04-29T21:26:45.991Z</time></trkpt><trkpt lat="39.4303815" lon="0.9506659"><ele>0.0</ele><time>2026-04-29T21:26:46.991Z</time></trkpt><trkpt lat="39.4304566" lon="0.9507156"><ele>0.0</ele><time>2026-04-29T21:26:47.991Z</time></trkpt><trkpt lat="39.4306038" lon="0.9507868"><ele>0.0</ele><time>2026-04-29T21:26:49.991Z</time></trkpt><trkpt lat="39.4306771" lon="0.950837"><ele>0.0</ele><time>2026-04-29T21:26:50.991Z</time></trkpt><trkpt lat="39.4307473" lon="0.9508899"><ele>0.0</ele><time>2026-04-29T21:26:51.991Z</time></trkpt><trkpt lat="39.4308215" lon="0.9509474"><ele>0.0</ele><time>2026-04-29T21:26:52.991Z</time></trkpt><trkpt lat="39.4308966" lon="0.9510015"><ele>0.0</ele><time>2026-04-29T21:26:53.991Z</time></trkpt><trkpt lat="39.4309702" lon="0.9510903"><ele>0.0</ele><time>2026-04-29T21:26:54.992Z</time></trkpt><trkpt lat="39.4310476" lon="0.9511496"><ele>0.0</ele><time>2026-04-29T21:26:55.992Z</time></trkpt><trkpt lat="39.4311261" lon="0.951202"><ele>0.0</ele><time>2026-04-29T21:26:56.992Z</time></trkpt><trkpt lat="39.4312005" lon="0.951261"><ele>0.0</ele><time>2026-04-29T21:26:57.992Z</time></trkpt><trkpt lat="39.4312694" lon="0.9513277"><ele>0.0</ele><time>2026-04-29T21:26:58.991Z</time></trkpt><trkpt lat="39.4313387" lon="0.9513878"><ele>0.0</ele><time>2026-04-29T21:26:59.991Z</time></trkpt><trkpt lat="39.4314071" lon="0.9514478"><ele>0.0</ele><time>2026-04-29T21:27:00.991Z</time></trkpt><trkpt lat="39.4314813" lon="0.9515037"><ele>0.0</ele><time>2026-04-29T21:27:01.991Z</time></trkpt><trkpt lat="39.4315549" lon="0.9515435"><ele>0.0</ele><time>2026-04-29T21:27:02.992Z</time></trkpt><trkpt lat="39.4316282" lon="0.9516015"><ele>0.0</ele><time>2026-04-29T21:27:03.992Z</time></trkpt><trkpt lat="39.4317025" lon="0.9516657"><ele>0.0</ele><time>2026-04-29T21:27:04.991Z</time></trkpt><trkpt lat="39.4317792" lon="0.9517052"><ele>0.0</ele><time>2026-04-29T21:27:05.991Z</time></trkpt><trkpt lat="39.4318573" lon="0.9517493"><ele>0.0</ele><time>2026-04-29T21:27:06.992Z</time></trkpt><trkpt lat="39.4319388" lon="0.9518086"><ele>0.0</ele><time>2026-04-29T21:27:07.991Z</time></trkpt><trkpt lat="39.432018" lon="0.9518497"><ele>0.0</ele><time>2026-04-29T21:27:08.992Z</time></trkpt><trkpt lat="39.4321626" lon="0.9519414"><ele>0.0</ele><time>2026-04-29T21:27:10.991Z</time></trkpt><trkpt lat="39.4322336" lon="0.9520017"><ele>0.0</ele><time>2026-04-29T21:27:11.991Z</time></trkpt><trkpt lat="39.4323067" lon="0.9520461"><ele>0.0</ele><time>2026-04-29T21:27:12.992Z</time></trkpt><trkpt lat="39.4323816" lon="0.9521038"><ele>0.0</ele><time>2026-04-29T21:27:13.992Z</time></trkpt><trkpt lat="39.4324562" lon="0.9521454"><ele>0.0</ele><time>2026-04-29T21:27:14.992Z</time></trkpt><trkpt lat="39.4325256" lon="0.9522024"><ele>0.0</ele><time>2026-04-29T21:27:15.991Z</time></trkpt><trkpt lat="39.4326023" lon="0.9522882"><ele>0.0</ele><time>2026-04-29T21:27:16.991Z</time></trkpt><trkpt lat="39.4326748" lon="0.9523494"><ele>0.0</ele><time>2026-04-29T21:27:17.991Z</time></trkpt><trkpt lat="39.4327452" lon="0.9524081"><ele>0.0</ele><time>2026-04-29T21:27:18.991Z</time></trkpt><trkpt lat="39.4328167" lon="0.9524708"><ele>0.0</ele><time>2026-04-29T21:27:19.992Z</time></trkpt><trkpt lat="39.4328901" lon="0.9525295"><ele>0.0</ele><time>2026-04-29T21:27:20.991Z</time></trkpt><trkpt lat="39.4329618" lon="0.952582"><ele>0.0</ele><time>2026-04-29T21:27:21.991Z</time></trkpt><trkpt lat="39.4330366" lon="0.9526423"><ele>0.0</ele><time>2026-04-29T21:27:22.991Z</time></trkpt><trkpt lat="39.4331147" lon="0.9526981"><ele>0.0</ele><time>2026-04-29T21:27:23.991Z</time></trkpt><trkpt lat="39.4331928" lon="0.9527447"><ele>0.0</ele><time>2026-04-29T21:27:24.992Z</time></trkpt><trkpt lat="39.4332668" lon="0.9528071"><ele>0.0</ele><time>2026-04-29T21:27:25.991Z</time></trkpt><trkpt lat="39.4333402" lon="0.9528534"><ele>0.0</ele><time>2026-04-29T21:27:26.991Z</time></trkpt><trkpt lat="39.4334079" lon="0.9528918"><ele>0.0</ele><time>2026-04-29T21:27:27.992Z</time></trkpt><trkpt lat="39.4334822" lon="0.9529447"><ele>0.0</ele><time>2026-04-29T21:27:28.991Z</time></trkpt><trkpt lat="39.4335554" lon="0.9529938"><ele>0.0</ele><time>2026-04-29T21:27:29.991Z</time></trkpt><trkpt lat="39.4337159" lon="0.9530969"><ele>0.0</ele><time>2026-04-29T21:27:31.992Z</time></trkpt><trkpt lat="39.4337915" lon="0.9531551"><ele>0.0</ele><time>2026-04-29T21:27:32.991Z</time></trkpt><trkpt lat="39.4338611" lon="0.9532095"><ele>0.0</ele><time>2026-04-29T21:27:33.992Z</time></trkpt><trkpt lat="39.4339395" lon="0.9532659"><ele>0.0</ele><time>2026-04-29T21:27:34.992Z</time></trkpt><trkpt lat="39.4340119" lon="0.9533201"><ele>0.0</ele><time>2026-04-29T21:27:35.992Z</time></trkpt><trkpt lat="39.4340892" lon="0.9533498"><ele>0.0</ele><time>2026-04-29T21:27:36.992Z</time></trkpt><trkpt lat="39.4341662" lon="0.9533988"><ele>0.0</ele><time>2026-04-29T21:27:37.991Z</time></trkpt><trkpt lat="39.4342432" lon="0.9534526"><ele>0.0</ele><time>2026-04-29T21:27:38.991Z</time></trkpt><trkpt lat="39.4343201" lon="0.953513"><ele>0.0</ele><time>2026-04-29T21:27:39.991Z</time></trkpt><trkpt lat="39.434395" lon="0.9535691"><ele>0.0</ele><time>2026-04-29T21:27:40.991Z</time></trkpt><trkpt lat="39.4344701" lon="0.9536272"><ele>0.0</ele><time>2026-04-29T21:27:41.992Z</time></trkpt><trkpt lat="39.434615" lon="0.9537338"><ele>0.0</ele><time>2026-04-29T21:27:43.991Z</time></trkpt><trkpt lat="39.4346858" lon="0.9537907"><ele>0.0</ele><time>2026-04-29T21:27:44.992Z</time></trkpt><trkpt lat="39.4347573" lon="0.9538474"><ele>0.0</ele><time>2026-04-29T21:27:45.991Z</time></trkpt><trkpt lat="39.4348316" lon="0.9539255"><ele>0.0</ele><time>2026-04-29T21:27:46.991Z</time></trkpt><trkpt lat="39.4349066" lon="0.9540031"><ele>0.0</ele><time>2026-04-29T21:27:47.991Z</time></trkpt><trkpt lat="39.4349815" lon="0.9540573"><ele>0.0</ele><time>2026-04-29T21:27:48.991Z</time></trkpt><trkpt lat="39.4350582" lon="0.9541114"><ele>0.0</ele><time>2026-04-29T21:27:49.992Z</time></trkpt><trkpt lat="39.4351307" lon="0.9541631"><ele>0.0</ele><time>2026-04-29T21:27:50.991Z</time></trkpt><trkpt lat="39.4352789" lon="0.9542669"><ele>0.0</ele><time>2026-04-29T21:27:52.991Z</time></trkpt><trkpt lat="39.4353509" lon="0.9543194"><ele>0.0</ele><time>2026-04-29T21:27:53.992Z</time></trkpt><trkpt lat="39.4354237" lon="0.9543775"><ele>0.0</ele><time>2026-04-29T21:27:54.992Z</time></trkpt><trkpt lat="39.4354956" lon="0.9544373"><ele>0.0</ele><time>2026-04-29T21:27:55.991Z</time></trkpt><trkpt lat="39.4355655" lon="0.9544849"><ele>0.0</ele><time>2026-04-29T21:27:56.992Z</time></trkpt><trkpt lat="39.4356357" lon="0.9545471"><ele>0.0</ele><time>2026-04-29T21:27:57.991Z</time></trkpt><trkpt lat="39.4357087" lon="0.9545977"><ele>0.0</ele><time>2026-04-29T21:27:58.991Z</time></trkpt><trkpt lat="39.4357845" lon="0.9546475"><ele>0.0</ele><time>2026-04-29T21:27:59.991Z</time></trkpt><trkpt lat="39.4358584" lon="0.9547068"><ele>0.0</ele><time>2026-04-29T21:28:00.991Z</time></trkpt><trkpt lat="39.4359331" lon="0.954767"><ele>0.0</ele><time>2026-04-29T21:28:01.992Z</time></trkpt><trkpt lat="39.4360096" lon="0.9548274"><ele>0.0</ele><time>2026-04-29T21:28:02.991Z</time></trkpt><trkpt lat="39.4360863" lon="0.9548889"><ele>0.0</ele><time>2026-04-29T21:28:03.991Z</time></trkpt><trkpt lat="39.4361615" lon="0.9549523"><ele>0.0</ele><time>2026-04-29T21:28:04.991Z</time></trkpt><trkpt lat="39.4362347" lon="0.955016"><ele>0.0</ele><time>2026-04-29T21:28:05.992Z</time></trkpt><trkpt lat="39.4363112" lon="0.9550705"><ele>0.0</ele><time>2026-04-29T21:28:06.991Z</time></trkpt><trkpt lat="39.4363895" lon="0.95512"><ele>0.0</ele><time>2026-04-29T21:28:07.992Z</time></trkpt><trkpt lat="39.4364567" lon="0.9551609"><ele>0.0</ele><time>2026-04-29T21:28:08.992Z</time></trkpt><trkpt lat="39.4365318" lon="0.9552003"><ele>0.0</ele><time>2026-04-29T21:28:09.992Z</time></trkpt><trkpt lat="39.436611" lon="0.9552294"><ele>0.0</ele><time>2026-04-29T21:28:10.992Z</time></trkpt><trkpt lat="39.436688" lon="0.9552576"><ele>0.0</ele><time>2026-04-29T21:28:11.992Z</time></trkpt><trkpt lat="39.4368356" lon="0.9553459"><ele>0.0</ele><time>2026-04-29T21:28:13.992Z</time></trkpt><trkpt lat="39.4369119" lon="0.9553938"><ele>0.0</ele><time>2026-04-29T21:28:14.991Z</time></trkpt><trkpt lat="39.4369883" lon="0.9554415"><ele>0.0</ele><time>2026-04-29T21:28:15.992Z</time></trkpt><trkpt lat="39.437065" lon="0.9554945"><ele>0.0</ele><time>2026-04-29T21:28:16.991Z</time></trkpt><trkpt lat="39.4371403" lon="0.9555465"><ele>0.0</ele><time>2026-04-29T21:28:17.992Z</time></trkpt><trkpt lat="39.4372119" lon="0.9555995"><ele>0.0</ele><time>2026-04-29T21:28:18.991Z</time></trkpt><trkpt lat="39.437285" lon="0.9556542"><ele>0.0</ele><time>2026-04-29T21:28:19.992Z</time></trkpt><trkpt lat="39.4373587" lon="0.9557032"><ele>0.0</ele><time>2026-04-29T21:28:20.992Z</time></trkpt><trkpt lat="39.4374305" lon="0.9557531"><ele>0.0</ele><time>2026-04-29T21:28:21.991Z</time></trkpt><trkpt lat="39.4375022" lon="0.9558031"><ele>0.0</ele><time>2026-04-29T21:28:22.991Z</time></trkpt><trkpt lat="39.437572" lon="0.9558549"><ele>0.0</ele><time>2026-04-29T21:28:23.992Z</time></trkpt><trkpt lat="39.4376353" lon="0.955894"><ele>0.0</ele><time>2026-04-29T21:28:24.992Z</time></trkpt><trkpt lat="39.4377041" lon="0.9559452"><ele>0.0</ele><time>2026-04-29T21:28:25.991Z</time></trkpt><trkpt lat="39.4377723" lon="0.9559998"><ele>0.0</ele><time>2026-04-29T21:28:26.992Z</time></trkpt><trkpt lat="39.4378446" lon="0.956058"><ele>0.0</ele><time>2026-04-29T21:28:27.991Z</time></trkpt><trkpt lat="39.4379181" lon="0.956118"><ele>0.0</ele><time>2026-04-29T21:28:28.991Z</time></trkpt><trkpt lat="39.4379916" lon="0.9561777"><ele>0.0</ele><time>2026-04-29T21:28:29.991Z</time></trkpt><trkpt lat="39.4380633" lon="0.9562379"><ele>0.0</ele><time>2026-04-29T21:28:30.992Z</time></trkpt><trkpt lat="39.4381362" lon="0.9562981"><ele>0.0</ele><time>2026-04-29T21:28:31.992Z</time></trkpt><trkpt lat="39.4382098" lon="0.9563567"><ele>0.0</ele><time>2026-04-29T21:28:32.991Z</time></trkpt><trkpt lat="39.4383598" lon="0.9564831"><ele>0.0</ele><time>2026-04-29T21:28:34.991Z</time></trkpt><trkpt lat="39.4384361" lon="0.9565428"><ele>0.0</ele><time>2026-04-29T21:28:35.992Z</time></trkpt><trkpt lat="39.4385173" lon="0.9566052"><ele>0.0</ele><time>2026-04-29T21:28:36.992Z</time></trkpt><trkpt lat="39.4385999" lon="0.9566726"><ele>0.0</ele><time>2026-04-29T21:28:37.992Z</time></trkpt><trkpt lat="39.4386753" lon="0.9567452"><ele>0.0</ele><time>2026-04-29T21:28:38.992Z</time></trkpt><trkpt lat="39.4387486" lon="0.9568143"><ele>0.0</ele><time>2026-04-29T21:28:39.991Z</time></trkpt><trkpt lat="39.4388221" lon="0.9568811"><ele>0.0</ele><time>2026-04-29T21:28:40.992Z</time></trkpt><trkpt lat="39.4388967" lon="0.9569423"><ele>0.0</ele><time>2026-04-29T21:28:41.992Z</time></trkpt><trkpt lat="39.4389715" lon="0.9570027"><ele>0.0</ele><time>2026-04-29T21:28:42.991Z</time></trkpt><trkpt lat="39.4390493" lon="0.9570643"><ele>0.0</ele><time>2026-04-29T21:28:43.991Z</time></trkpt><trkpt lat="39.4391264" lon="0.9571243"><ele>0.0</ele><time>2026-04-29T21:28:44.991Z</time></trkpt><trkpt lat="39.4392017" lon="0.9571843"><ele>0.0</ele><time>2026-04-29T21:28:45.992Z</time></trkpt><trkpt lat="39.4392778" lon="0.9572462"><ele>0.0</ele><time>2026-04-29T21:28:46.992Z</time></trkpt><trkpt lat="39.4393546" lon="0.9573091"><ele>0.0</ele><time>2026-04-29T21:28:47.991Z</time></trkpt><trkpt lat="39.4394257" lon="0.9573626"><ele>0.0</ele><time>2026-04-29T21:28:48.992Z</time></trkpt><trkpt lat="39.4394944" lon="0.9574099"><ele>0.0</ele><time>2026-04-29T21:28:49.992Z</time></trkpt><trkpt lat="39.4395658" lon="0.9574582"><ele>0.0</ele><time>2026-04-29T21:28:50.991Z</time></trkpt><trkpt lat="39.4396386" lon="0.9575074"><ele>0.0</ele><time>2026-04-29T21:28:51.991Z</time></trkpt><trkpt lat="39.4397136" lon="0.9575555"><ele>0.0</ele><time>2026-04-29T21:28:52.991Z</time></trkpt><trkpt lat="39.4397914" lon="0.9576111"><ele>0.0</ele><time>2026-04-29T21:28:53.991Z</time></trkpt><trkpt lat="39.4399509" lon="0.9577258"><ele>0.0</ele><time>2026-04-29T21:28:55.991Z</time></trkpt><trkpt lat="39.440031" lon="0.9577822"><ele>0.0</ele><time>2026-04-29T21:28:56.991Z</time></trkpt><trkpt lat="39.4401095" lon="0.9578394"><ele>0.0</ele><time>2026-04-29T21:28:57.992Z</time></trkpt><trkpt lat="39.4401881" lon="0.9578947"><ele>0.0</ele><time>2026-04-29T21:28:58.992Z</time></trkpt><trkpt lat="39.440262" lon="0.9579487"><ele>0.0</ele><time>2026-04-29T21:28:59.992Z</time></trkpt><trkpt lat="39.4403383" lon="0.9580016"><ele>0.0</ele><time>2026-04-29T21:29:00.992Z</time></trkpt><trkpt lat="39.4404163" lon="0.9580509"><ele>0.0</ele><time>2026-04-29T21:29:01.992Z</time></trkpt><trkpt lat="39.4404972" lon="0.9581035"><ele>0.0</ele><time>2026-04-29T21:29:02.992Z</time></trkpt><trkpt lat="39.4405773" lon="0.9581514"><ele>0.0</ele><time>2026-04-29T21:29:03.991Z</time></trkpt><trkpt lat="39.4406518" lon="0.9581972"><ele>0.0</ele><time>2026-04-29T21:29:04.992Z</time></trkpt><trkpt lat="39.4407266" lon="0.9582515"><ele>0.0</ele><time>2026-04-29T21:29:05.992Z</time></trkpt><trkpt lat="39.4408074" lon="0.9583048"><ele>0.0</ele><time>2026-04-29T21:29:06.992Z</time></trkpt><trkpt lat="39.4408847" lon="0.9583578"><ele>0.0</ele><time>2026-04-29T21:29:07.992Z</time></trkpt><trkpt lat="39.4409572" lon="0.9584117"><ele>0.0</ele><time>2026-04-29T21:29:08.992Z</time></trkpt><trkpt lat="39.4410302" lon="0.9584738"><ele>0.0</ele><time>2026-04-29T21:29:09.992Z</time></trkpt><trkpt lat="39.4411006" lon="0.9585287"><ele>0.0</ele><time>2026-04-29T21:29:10.992Z</time></trkpt><trkpt lat="39.4411652" lon="0.9585708"><ele>0.0</ele><time>2026-04-29T21:29:11.991Z</time></trkpt><trkpt lat="39.4412403" lon="0.9586175"><ele>0.0</ele><time>2026-04-29T21:29:12.992Z</time></trkpt><trkpt lat="39.4413136" lon="0.9586515"><ele>0.0</ele><time>2026-04-29T21:29:13.992Z</time></trkpt><trkpt lat="39.4413783" lon="0.9586936"><ele>0.0</ele><time>2026-04-29T21:29:14.991Z</time></trkpt><trkpt lat="39.4415217" lon="0.9587641"><ele>0.0</ele><time>2026-04-29T21:29:16.991Z</time></trkpt><trkpt lat="39.4415951" lon="0.9588157"><ele>0.0</ele><time>2026-04-29T21:29:17.992Z</time></trkpt><trkpt lat="39.4416659" lon="0.9588676"><ele>0.0</ele><time>2026-04-29T21:29:18.991Z</time></trkpt><trkpt lat="39.4417367" lon="0.958917"><ele>0.0</ele><time>2026-04-29T21:29:19.992Z</time></trkpt><trkpt lat="39.4418087" lon="0.9589728"><ele>0.0</ele><time>2026-04-29T21:29:20.991Z</time></trkpt><trkpt lat="39.441879" lon="0.959027"><ele>0.0</ele><time>2026-04-29T21:29:21.992Z</time></trkpt><trkpt lat="39.44195" lon="0.9590838"><ele>0.0</ele><time>2026-04-29T21:29:22.991Z</time></trkpt><trkpt lat="39.4420164" lon="0.9591269"><ele>0.0</ele><time>2026-04-29T21:29:23.991Z</time></trkpt><trkpt lat="39.4420901" lon="0.9591826"><ele>0.0</ele><time>2026-04-29T21:29:24.992Z</time></trkpt><trkpt lat="39.4421632" lon="0.9592398"><ele>0.0</ele><time>2026-04-29T21:29:25.992Z</time></trkpt><trkpt lat="39.4422363" lon="0.9592981"><ele>0.0</ele><time>2026-04-29T21:29:26.991Z</time></trkpt><trkpt lat="39.4422987" lon="0.9593378"><ele>0.0</ele><time>2026-04-29T21:29:27.991Z</time></trkpt><trkpt lat="39.4423702" lon="0.9593703"><ele>0.0</ele><time>2026-04-29T21:29:28.992Z</time></trkpt><trkpt lat="39.442443" lon="0.9594159"><ele>0.0</ele><time>2026-04-29T21:29:29.991Z</time></trkpt><trkpt lat="39.442521" lon="0.9594802"><ele>0.0</ele><time>2026-04-29T21:29:30.992Z</time></trkpt><trkpt lat="39.4425979" lon="0.9595344"><ele>0.0</ele><time>2026-04-29T21:29:31.991Z</time></trkpt><trkpt lat="39.4426763" lon="0.9595878"><ele>0.0</ele><time>2026-04-29T21:29:32.991Z</time></trkpt><trkpt lat="39.4427556" lon="0.9596823"><ele>0.0</ele><time>2026-04-29T21:29:33.992Z</time></trkpt><trkpt lat="39.4428313" lon="0.959747"><ele>0.0</ele><time>2026-04-29T21:29:34.991Z</time></trkpt><trkpt lat="39.4429873" lon="0.959856"><ele>0.0</ele><time>2026-04-29T21:29:36.991Z</time></trkpt><trkpt lat="39.4430663" lon="0.9599042"><ele>0.0</ele><time>2026-04-29T21:29:37.991Z</time></trkpt><trkpt lat="39.4431432" lon="0.9599581"><ele>0.0</ele><time>2026-04-29T21:29:38.991Z</time></trkpt><trkpt lat="39.4432199" lon="0.9600115"><ele>0.0</ele><time>2026-04-29T21:29:39.992Z</time></trkpt><trkpt lat="39.443295" lon="0.9600679"><ele>0.0</ele><time>2026-04-29T21:29:40.991Z</time></trkpt><trkpt lat="39.4433742" lon="0.9601305"><ele>0.0</ele><time>2026-04-29T21:29:41.992Z</time></trkpt><trkpt lat="39.4434513" lon="0.9601898"><ele>0.0</ele><time>2026-04-29T21:29:42.992Z</time></trkpt><trkpt lat="39.4435324" lon="0.9602495"><ele>0.0</ele><time>2026-04-29T21:29:43.991Z</time></trkpt><trkpt lat="39.4436138" lon="0.9603104"><ele>0.0</ele><time>2026-04-29T21:29:44.992Z</time></trkpt><trkpt lat="39.4436954" lon="0.9603679"><ele>0.0</ele><time>2026-04-29T21:29:45.991Z</time></trkpt><trkpt lat="39.4437684" lon="0.9604222"><ele>0.0</ele><time>2026-04-29T21:29:46.992Z</time></trkpt><trkpt lat="39.4438476" lon="0.960478"><ele>0.0</ele><time>2026-04-29T21:29:47.992Z</time></trkpt><trkpt lat="39.4439247" lon="0.9605331"><ele>0.0</ele><time>2026-04-29T21:29:48.992Z</time></trkpt><trkpt lat="39.4440045" lon="0.9605855"><ele>0.0</ele><time>2026-04-29T21:29:49.992Z</time></trkpt><trkpt lat="39.4440771" lon="0.9606339"><ele>0.0</ele><time>2026-04-29T21:29:50.991Z</time></trkpt><trkpt lat="39.4441546" lon="0.9606855"><ele>0.0</ele><time>2026-04-29T21:29:51.991Z</time></trkpt><trkpt lat="39.4442301" lon="0.9607327"><ele>0.0</ele><time>2026-04-29T21:29:52.991Z</time></trkpt><trkpt lat="39.4443023" lon="0.9607825"><ele>0.0</ele><time>2026-04-29T21:29:53.992Z</time></trkpt><trkpt lat="39.4443737" lon="0.9608428"><ele>0.0</ele><time>2026-04-29T21:29:54.991Z</time></trkpt><trkpt lat="39.4444452" lon="0.9608943"><ele>0.0</ele><time>2026-04-29T21:29:55.992Z</time></trkpt><trkpt lat="39.4445911" lon="0.960984"><ele>0.0</ele><time>2026-04-29T21:29:57.991Z</time></trkpt><trkpt lat="39.4446633" lon="0.9610351"><ele>0.0</ele><time>2026-04-29T21:29:58.992Z</time></trkpt><trkpt lat="39.4447381" lon="0.9610925"><ele>0.0</ele><time>2026-04-29T21:29:59.991Z</time></trkpt><trkpt lat="39.4448129" lon="0.9611453"><ele>0.0</ele><time>2026-04-29T21:30:00.991Z</time></trkpt><trkpt lat="39.4448907" lon="0.9611942"><ele>0.0</ele><time>2026-04-29T21:30:01.992Z</time></trkpt><trkpt lat="39.4449678" lon="0.9612443"><ele>0.0</ele><time>2026-04-29T21:30:02.992Z</time></trkpt><trkpt lat="39.4450402" lon="0.9612939"><ele>0.0</ele><time>2026-04-29T21:30:03.992Z</time></trkpt><trkpt lat="39.445113" lon="0.9613422"><ele>0.0</ele><time>2026-04-29T21:30:04.992Z</time></trkpt><trkpt lat="39.4451841" lon="0.9613935"><ele>0.0</ele><time>2026-04-29T21:30:05.991Z</time></trkpt><trkpt lat="39.4452557" lon="0.9614496"><ele>0.0</ele><time>2026-04-29T21:30:06.992Z</time></trkpt><trkpt lat="39.4453313" lon="0.9615077"><ele>0.0</ele><time>2026-04-29T21:30:07.992Z</time></trkpt><trkpt lat="39.4454065" lon="0.9615537"><ele>0.0</ele><time>2026-04-29T21:30:08.992Z</time></trkpt><trkpt lat="39.4454744" lon="0.9616068"><ele>0.0</ele><time>2026-04-29T21:30:09.991Z</time></trkpt><trkpt lat="39.4455482" lon="0.9616676"><ele>0.0</ele><time>2026-04-29T21:30:10.992Z</time></trkpt><trkpt lat="39.4456201" lon="0.9617294"><ele>0.0</ele><time>2026-04-29T21:30:11.991Z</time></trkpt><trkpt lat="39.4456932" lon="0.9617929"><ele>0.0</ele><time>2026-04-29T21:30:12.991Z</time></trkpt><trkpt lat="39.4457623" lon="0.961846"><ele>0.0</ele><time>2026-04-29T21:30:13.991Z</time></trkpt><trkpt lat="39.4458377" lon="0.9619073"><ele>0.0</ele><time>2026-04-29T21:30:14.991Z</time></trkpt><trkpt lat="39.4459103" lon="0.9619655"><ele>0.0</ele><time>2026-04-29T21:30:15.991Z</time></trkpt><trkpt lat="39.4459807" lon="0.9620244"><ele>0.0</ele><time>2026-04-29T21:30:16.992Z</time></trkpt><trkpt lat="39.446126" lon="0.9621246"><ele>0.0</ele><time>2026-04-29T21:30:18.991Z</time></trkpt><trkpt lat="39.4462046" lon="0.9621708"><ele>0.0</ele><time>2026-04-29T21:30:19.992Z</time></trkpt><trkpt lat="39.446282" lon="0.9622219"><ele>0.0</ele><time>2026-04-29T21:30:20.992Z</time></trkpt><trkpt lat="39.4463574" lon="0.962276"><ele>0.0</ele><time>2026-04-29T21:30:21.992Z</time></trkpt><trkpt lat="39.4464279" lon="0.9623253"><ele>0.0</ele><time>2026-04-29T21:30:22.992Z</time></trkpt><trkpt lat="39.4464989" lon="0.9623823"><ele>0.0</ele><time>2026-04-29T21:30:23.992Z</time></trkpt><trkpt lat="39.4465703" lon="0.9624363"><ele>0.0</ele><time>2026-04-29T21:30:24.991Z</time></trkpt><trkpt lat="39.446642" lon="0.9624885"><ele>0.0</ele><time>2026-04-29T21:30:25.991Z</time></trkpt><trkpt lat="39.4467149" lon="0.9625464"><ele>0.0</ele><time>2026-04-29T21:30:26.991Z</time></trkpt><trkpt lat="39.446784" lon="0.9625959"><ele>0.0</ele><time>2026-04-29T21:30:27.991Z</time></trkpt><trkpt lat="39.4468566" lon="0.9626514"><ele>0.0</ele><time>2026-04-29T21:30:28.992Z</time></trkpt><trkpt lat="39.4469328" lon="0.9627063"><ele>0.0</ele><time>2026-04-29T21:30:29.991Z</time></trkpt><trkpt lat="39.4470069" lon="0.9627583"><ele>0.0</ele><time>2026-04-29T21:30:30.991Z</time></trkpt><trkpt lat="39.447082" lon="0.9628127"><ele>0.0</ele><time>2026-04-29T21:30:31.992Z</time></trkpt><trkpt lat="39.4471552" lon="0.9628676"><ele>0.0</ele><time>2026-04-29T21:30:32.991Z</time></trkpt><trkpt lat="39.44723" lon="0.9629168"><ele>0.0</ele><time>2026-04-29T21:30:33.992Z</time></trkpt><trkpt lat="39.4473044" lon="0.9629676"><ele>0.0</ele><time>2026-04-29T21:30:34.991Z</time></trkpt><trkpt lat="39.4473826" lon="0.9630209"><ele>0.0</ele><time>2026-04-29T21:30:35.992Z</time></trkpt><trkpt lat="39.4474598" lon="0.9630699"><ele>0.0</ele><time>2026-04-29T21:30:36.991Z</time></trkpt><trkpt lat="39.4475363" lon="0.9631212"><ele>0.0</ele><time>2026-04-29T21:30:37.991Z</time></trkpt><trkpt lat="39.4476898" lon="0.9632253"><ele>0.0</ele><time>2026-04-29T21:30:39.992Z</time></trkpt><trkpt lat="39.4477708" lon="0.9632796"><ele>0.0</ele><time>2026-04-29T21:30:40.992Z</time></trkpt><trkpt lat="39.4478481" lon="0.96333"><ele>0.0</ele><time>2026-04-29T21:30:41.991Z</time></trkpt><trkpt lat="39.4479249" lon="0.9633832"><ele>0.0</ele><time>2026-04-29T21:30:42.991Z</time></trkpt><trkpt lat="39.4480016" lon="0.9634379"><ele>0.0</ele><time>2026-04-29T21:30:43.992Z</time></trkpt><trkpt lat="39.448078" lon="0.963493"><ele>0.0</ele><time>2026-04-29T21:30:44.992Z</time></trkpt><trkpt lat="39.4481518" lon="0.9635435"><ele>0.0</ele><time>2026-04-29T21:30:45.992Z</time></trkpt><trkpt lat="39.4482249" lon="0.9635948"><ele>0.0</ele><time>2026-04-29T21:30:46.992Z</time></trkpt><trkpt lat="39.4483067" lon="0.9636611"><ele>0.0</ele><time>2026-04-29T21:30:47.992Z</time></trkpt><trkpt lat="39.4483901" lon="0.9637308"><ele>0.0</ele><time>2026-04-29T21:30:48.991Z</time></trkpt><trkpt lat="39.4484648" lon="0.9638154"><ele>0.0</ele><time>2026-04-29T21:30:49.991Z</time></trkpt><trkpt lat="39.4485382" lon="0.9638897"><ele>0.0</ele><time>2026-04-29T21:30:50.991Z</time></trkpt><trkpt lat="39.448613" lon="0.963966"><ele>0.0</ele><time>2026-04-29T21:30:51.99Z</time></trkpt><trkpt lat="39.4486896" lon="0.9640355"><ele>0.0</ele><time>2026-04-29T21:30:52.991Z</time></trkpt><trkpt lat="39.4487663" lon="0.9640982"><ele>0.0</ele><time>2026-04-29T21:30:53.99Z</time></trkpt><trkpt lat="39.4488446" lon="0.9641547"><ele>0.0</ele><time>2026-04-29T21:30:54.99Z</time></trkpt><trkpt lat="39.4489258" lon="0.9642156"><ele>0.0</ele><time>2026-04-29T21:30:55.991Z</time></trkpt><trkpt lat="39.4490002" lon="0.9642576"><ele>0.0</ele><time>2026-04-29T21:30:56.991Z</time></trkpt><trkpt lat="39.4490766" lon="0.964316"><ele>0.0</ele><time>2026-04-29T21:30:57.99Z</time></trkpt><trkpt lat="39.4491533" lon="0.9643688"><ele>0.0</ele><time>2026-04-29T21:30:58.991Z</time></trkpt><trkpt lat="39.4492958" lon="0.9645018"><ele>0.0</ele><time>2026-04-29T21:31:00.99Z</time></trkpt><trkpt lat="39.4493629" lon="0.9645557"><ele>0.0</ele><time>2026-04-29T21:31:01.99Z</time></trkpt><trkpt lat="39.4494351" lon="0.9646294"><ele>0.0</ele><time>2026-04-29T21:31:02.991Z</time></trkpt><trkpt lat="39.4495073" lon="0.9647028"><ele>0.0</ele><time>2026-04-29T21:31:03.99Z</time></trkpt><trkpt lat="39.4495829" lon="0.9647625"><ele>0.0</ele><time>2026-04-29T21:31:04.991Z</time></trkpt><trkpt lat="39.449651" lon="0.9648179"><ele>0.0</ele><time>2026-04-29T21:31:05.991Z</time></trkpt><trkpt lat="39.4497221" lon="0.9648641"><ele>0.0</ele><time>2026-04-29T21:31:06.991Z</time></trkpt><trkpt lat="39.4497923" lon="0.9649163"><ele>0.0</ele><time>2026-04-29T21:31:07.99Z</time></trkpt><trkpt lat="39.4498636" lon="0.9649708"><ele>0.0</ele><time>2026-04-29T21:31:08.991Z</time></trkpt><trkpt lat="39.449938" lon="0.9650201"><ele>0.0</ele><time>2026-04-29T21:31:09.991Z</time></trkpt><trkpt lat="39.4500119" lon="0.9650681"><ele>0.0</ele><time>2026-04-29T21:31:10.991Z</time></trkpt><trkpt lat="39.4500867" lon="0.9651164"><ele>0.0</ele><time>2026-04-29T21:31:11.991Z</time></trkpt><trkpt lat="39.4501617" lon="0.9651673"><ele>0.0</ele><time>2026-04-29T21:31:12.99Z</time></trkpt><trkpt lat="39.4502383" lon="0.9652133"><ele>0.0</ele><time>2026-04-29T21:31:13.991Z</time></trkpt><trkpt lat="39.4503133" lon="0.9652611"><ele>0.0</ele><time>2026-04-29T21:31:14.99Z</time></trkpt><trkpt lat="39.4503885" lon="0.9653105"><ele>0.0</ele><time>2026-04-29T21:31:15.99Z</time></trkpt><trkpt lat="39.4504634" lon="0.9653717"><ele>0.0</ele><time>2026-04-29T21:31:16.99Z</time></trkpt><trkpt lat="39.4505413" lon="0.9654305"><ele>0.0</ele><time>2026-04-29T21:31:17.991Z</time></trkpt><trkpt lat="39.4506167" lon="0.9654976"><ele>0.0</ele><time>2026-04-29T21:31:18.99Z</time></trkpt><trkpt lat="39.4506947" lon="0.9655588"><ele>0.0</ele><time>2026-04-29T21:31:19.99Z</time></trkpt><trkpt lat="39.4508446" lon="0.9656698"><ele>0.0</ele><time>2026-04-29T21:31:21.99Z</time></trkpt><trkpt lat="39.4509241" lon="0.965735"><ele>0.0</ele><time>2026-04-29T21:31:22.99Z</time></trkpt><trkpt lat="39.4510025" lon="0.9657943"><ele>0.0</ele><time>2026-04-29T21:31:23.99Z</time></trkpt><trkpt lat="39.4510813" lon="0.9658526"><ele>0.0</ele><time>2026-04-29T21:31:24.991Z</time></trkpt><trkpt lat="39.4511572" lon="0.9659018"><ele>0.0</ele><time>2026-04-29T21:31:25.991Z</time></trkpt><trkpt lat="39.4512351" lon="0.9659499"><ele>0.0</ele><time>2026-04-29T21:31:26.99Z</time></trkpt><trkpt lat="39.4513132" lon="0.9659984"><ele>0.0</ele><time>2026-04-29T21:31:27.99Z</time></trkpt><trkpt lat="39.4513832" lon="0.9660381"><ele>0.0</ele><time>2026-04-29T21:31:28.99Z</time></trkpt><trkpt lat="39.4514512" lon="0.9660797"><ele>0.0</ele><time>2026-04-29T21:31:29.99Z</time></trkpt><trkpt lat="39.4515267" lon="0.9661271"><ele>0.0</ele><time>2026-04-29T21:31:30.991Z</time></trkpt><trkpt lat="39.4516019" lon="0.9661641"><ele>0.0</ele><time>2026-04-29T21:31:31.991Z</time></trkpt><trkpt lat="39.451677" lon="0.9662164"><ele>0.0</ele><time>2026-04-29T21:31:32.991Z</time></trkpt><trkpt lat="39.451752" lon="0.9662681"><ele>0.0</ele><time>2026-04-29T21:31:33.991Z</time></trkpt><trkpt lat="39.4518225" lon="0.9663161"><ele>0.0</ele><time>2026-04-29T21:31:34.991Z</time></trkpt><trkpt lat="39.4518908" lon="0.9663616"><ele>0.0</ele><time>2026-04-29T21:31:35.991Z</time></trkpt><trkpt lat="39.4519647" lon="0.9664165"><ele>0.0</ele><time>2026-04-29T21:31:36.991Z</time></trkpt><trkpt lat="39.4520409" lon="0.9664764"><ele>0.0</ele><time>2026-04-29T21:31:37.99Z</time></trkpt><trkpt lat="39.4521148" lon="0.9665312"><ele>0.0</ele><time>2026-04-29T21:31:38.99Z</time></trkpt><trkpt lat="39.4521883" lon="0.9665834"><ele>0.0</ele><time>2026-04-29T21:31:39.99Z</time></trkpt><trkpt lat="39.4522661" lon="0.9666332"><ele>0.0</ele><time>2026-04-29T21:31:40.991Z</time></trkpt><trkpt lat="39.4524118" lon="0.9667253"><ele>0.0</ele><time>2026-04-29T21:31:42.991Z</time></trkpt><trkpt lat="39.4524822" lon="0.966776"><ele>0.0</ele><time>2026-04-29T21:31:43.99Z</time></trkpt><trkpt lat="39.4525568" lon="0.9668233"><ele>0.0</ele><time>2026-04-29T21:31:44.991Z</time></trkpt><trkpt lat="39.452633" lon="0.9668722"><ele>0.0</ele><time>2026-04-29T21:31:45.99Z</time></trkpt><trkpt lat="39.4527097" lon="0.9669282"><ele>0.0</ele><time>2026-04-29T21:31:46.991Z</time></trkpt><trkpt lat="39.4527845" lon="0.9669888"><ele>0.0</ele><time>2026-04-29T21:31:47.991Z</time></trkpt><trkpt lat="39.4528536" lon="0.9670533"><ele>0.0</ele><time>2026-04-29T21:31:48.99Z</time></trkpt><trkpt lat="39.4529263" lon="0.9671227"><ele>0.0</ele><time>2026-04-29T21:31:49.99Z</time></trkpt><trkpt lat="39.453003" lon="0.9671869"><ele>0.0</ele><time>2026-04-29T21:31:50.991Z</time></trkpt><trkpt lat="39.453081" lon="0.9672367"><ele>0.0</ele><time>2026-04-29T21:31:51.99Z</time></trkpt><trkpt lat="39.4531551" lon="0.9672789"><ele>0.0</ele><time>2026-04-29T21:31:52.99Z</time></trkpt><trkpt lat="39.4532324" lon="0.9673248"><ele>0.0</ele><time>2026-04-29T21:31:53.99Z</time></trkpt><trkpt lat="39.4533066" lon="0.9673715"><ele>0.0</ele><time>2026-04-29T21:31:54.991Z</time></trkpt><trkpt lat="39.4533829" lon="0.967414"><ele>0.0</ele><time>2026-04-29T21:31:55.99Z</time></trkpt><trkpt lat="39.4534583" lon="0.9674624"><ele>0.0</ele><time>2026-04-29T21:31:56.991Z</time></trkpt><trkpt lat="39.4535292" lon="0.9675108"><ele>0.0</ele><time>2026-04-29T21:31:57.99Z</time></trkpt><trkpt lat="39.4536018" lon="0.9675566"><ele>0.0</ele><time>2026-04-29T21:31:58.99Z</time></trkpt><trkpt lat="39.4536709" lon="0.9676114"><ele>0.0</ele><time>2026-04-29T21:31:59.99Z</time></trkpt><trkpt lat="39.4537409" lon="0.9676605"><ele>0.0</ele><time>2026-04-29T21:32:00.99Z</time></trkpt><trkpt lat="39.4538123" lon="0.9677103"><ele>0.0</ele><time>2026-04-29T21:32:01.991Z</time></trkpt><trkpt lat="39.4539549" lon="0.9678152"><ele>0.0</ele><time>2026-04-29T21:32:03.991Z</time></trkpt><trkpt lat="39.4540313" lon="0.9678652"><ele>0.0</ele><time>2026-04-29T21:32:04.99Z</time></trkpt><trkpt lat="39.454101" lon="0.9679153"><ele>0.0</ele><time>2026-04-29T21:32:05.991Z</time></trkpt><trkpt lat="39.4541754" lon="0.9679638"><ele>0.0</ele><time>2026-04-29T21:32:06.991Z</time></trkpt><trkpt lat="39.4542472" lon="0.9680153"><ele>0.0</ele><time>2026-04-29T21:32:07.99Z</time></trkpt><trkpt lat="39.4543231" lon="0.968071"><ele>0.0</ele><time>2026-04-29T21:32:08.99Z</time></trkpt><trkpt lat="39.4544081" lon="0.9681344"><ele>0.0</ele><time>2026-04-29T21:32:09.991Z</time></trkpt><trkpt lat="39.4544978" lon="0.968202"><ele>0.0</ele><time>2026-04-29T21:32:10.99Z</time></trkpt><trkpt lat="39.4545766" lon="0.9682622"><ele>0.0</ele><time>2026-04-29T21:32:11.991Z</time></trkpt><trkpt lat="39.4546457" lon="0.9683396"><ele>0.0</ele><time>2026-04-29T21:32:12.991Z</time></trkpt><trkpt lat="39.4547141" lon="0.9683998"><ele>0.0</ele><time>2026-04-29T21:32:13.991Z</time></trkpt><trkpt lat="39.4547824" lon="0.9684603"><ele>0.0</ele><time>2026-04-29T21:32:14.99Z</time></trkpt><trkpt lat="39.4548567" lon="0.9685166"><ele>0.0</ele><time>2026-04-29T21:32:15.99Z</time></trkpt><trkpt lat="39.4549345" lon="0.96858"><ele>0.0</ele><time>2026-04-29T21:32:16.991Z</time></trkpt><trkpt lat="39.4550041" lon="0.9686347"><ele>0.0</ele><time>2026-04-29T21:32:17.99Z</time></trkpt><trkpt lat="39.4550739" lon="0.9686868"><ele>0.0</ele><time>2026-04-29T21:32:18.99Z</time></trkpt><trkpt lat="39.4551472" lon="0.9687339"><ele>0.0</ele><time>2026-04-29T21:32:19.99Z</time></trkpt><trkpt lat="39.4552233" lon="0.9687821"><ele>0.0</ele><time>2026-04-29T21:32:20.991Z</time></trkpt><trkpt lat="39.4552972" lon="0.9688332"><ele>0.0</ele><time>2026-04-29T21:32:21.991Z</time></trkpt><trkpt lat="39.45537" lon="0.9688879"><ele>0.0</ele><time>2026-04-29T21:32:22.99Z</time></trkpt><trkpt lat="39.4555004" lon="0.9689763"><ele>0.0</ele><time>2026-04-29T21:32:24.99Z</time></trkpt><trkpt lat="39.4555766" lon="0.9690286"><ele>0.0</ele><time>2026-04-29T21:32:25.99Z</time></trkpt><trkpt lat="39.4556546" lon="0.9690804"><ele>0.0</ele><time>2026-04-29T21:32:26.99Z</time></trkpt><trkpt lat="39.4557297" lon="0.9691362"><ele>0.0</ele><time>2026-04-29T21:32:27.991Z</time></trkpt><trkpt lat="39.4558032" lon="0.9691989"><ele>0.0</ele><time>2026-04-29T21:32:28.99Z</time></trkpt><trkpt lat="39.4558796" lon="0.9692609"><ele>0.0</ele><time>2026-04-29T21:32:29.991Z</time></trkpt><trkpt lat="39.4559565" lon="0.9693225"><ele>0.0</ele><time>2026-04-29T21:32:30.99Z</time></trkpt><trkpt lat="39.4560244" lon="0.9693772"><ele>0.0</ele><time>2026-04-29T21:32:31.99Z</time></trkpt><trkpt lat="39.4561557" lon="0.9694165"><ele>0.0</ele><time>2026-04-29T21:32:33.99Z</time></trkpt><trkpt lat="39.4562367" lon="0.969444"><ele>0.0</ele><time>2026-04-29T21:32:34.99Z</time></trkpt><trkpt lat="39.4563128" lon="0.9694921"><ele>0.0</ele><time>2026-04-29T21:32:35.991Z</time></trkpt><trkpt lat="39.4563895" lon="0.969555"><ele>0.0</ele><time>2026-04-29T21:32:36.99Z</time></trkpt><trkpt lat="39.4564675" lon="0.9696297"><ele>0.0</ele><time>2026-04-29T21:32:37.99Z</time></trkpt><trkpt lat="39.4565486" lon="0.9697014"><ele>0.0</ele><time>2026-04-29T21:32:38.99Z</time></trkpt><trkpt lat="39.4566287" lon="0.9697731"><ele>0.0</ele><time>2026-04-29T21:32:39.991Z</time></trkpt><trkpt lat="39.456706" lon="0.9698389"><ele>0.0</ele><time>2026-04-29T21:32:40.991Z</time></trkpt><trkpt lat="39.4567858" lon="0.9699023"><ele>0.0</ele><time>2026-04-29T21:32:41.99Z</time></trkpt><trkpt lat="39.4568629" lon="0.9699724"><ele>0.0</ele><time>2026-04-29T21:32:42.99Z</time></trkpt><trkpt lat="39.4569424" lon="0.9700397"><ele>0.0</ele><time>2026-04-29T21:32:43.991Z</time></trkpt><trkpt lat="39.457106" lon="0.970153"><ele>0.0</ele><time>2026-04-29T21:32:45.99Z</time></trkpt><trkpt lat="39.4571787" lon="0.9701957"><ele>0.0</ele><time>2026-04-29T21:32:46.99Z</time></trkpt><trkpt lat="39.4572533" lon="0.9702273"><ele>0.0</ele><time>2026-04-29T21:32:47.991Z</time></trkpt><trkpt lat="39.4573297" lon="0.9702847"><ele>0.0</ele><time>2026-04-29T21:32:48.99Z</time></trkpt><trkpt lat="39.4574039" lon="0.9703189"><ele>0.0</ele><time>2026-04-29T21:32:49.991Z</time></trkpt><trkpt lat="39.4574742" lon="0.9703786"><ele>0.0</ele><time>2026-04-29T21:32:50.99Z</time></trkpt><trkpt lat="39.4575471" lon="0.9704484"><ele>0.0</ele><time>2026-04-29T21:32:51.99Z</time></trkpt><trkpt lat="39.4576274" lon="0.9705116"><ele>0.0</ele><time>2026-04-29T21:32:52.99Z</time></trkpt><trkpt lat="39.4576994" lon="0.9705636"><ele>0.0</ele><time>2026-04-29T21:32:53.99Z</time></trkpt><trkpt lat="39.4577766" lon="0.9706197"><ele>0.0</ele><time>2026-04-29T21:32:54.99Z</time></trkpt><trkpt lat="39.4578551" lon="0.9706781"><ele>0.0</ele><time>2026-04-29T21:32:55.991Z</time></trkpt><trkpt lat="39.4579358" lon="0.9707354"><ele>0.0</ele><time>2026-04-29T21:32:56.991Z</time></trkpt><trkpt lat="39.4580158" lon="0.9707909"><ele>0.0</ele><time>2026-04-29T21:32:57.99Z</time></trkpt><trkpt lat="39.4580875" lon="0.9708339"><ele>0.0</ele><time>2026-04-29T21:32:58.991Z</time></trkpt><trkpt lat="39.4581578" lon="0.9708747"><ele>0.0</ele><time>2026-04-29T21:32:59.99Z</time></trkpt><trkpt lat="39.4582333" lon="0.9709232"><ele>0.0</ele><time>2026-04-29T21:33:00.99Z</time></trkpt><trkpt lat="39.4583086" lon="0.9709703"><ele>0.0</ele><time>2026-04-29T21:33:01.991Z</time></trkpt><trkpt lat="39.4584505" lon="0.9710562"><ele>0.0</ele><time>2026-04-29T21:33:03.99Z</time></trkpt><trkpt lat="39.4585164" lon="0.9710983"><ele>0.0</ele><time>2026-04-29T21:33:04.991Z</time></trkpt><trkpt lat="39.4586671" lon="0.9712105"><ele>0.0</ele><time>2026-04-29T21:33:06.99Z</time></trkpt><trkpt lat="39.4587431" lon="0.9712479"><ele>0.0</ele><time>2026-04-29T21:33:07.991Z</time></trkpt><trkpt lat="39.4588139" lon="0.9712942"><ele>0.0</ele><time>2026-04-29T21:33:08.991Z</time></trkpt><trkpt lat="39.4588883" lon="0.9713422"><ele>0.0</ele><time>2026-04-29T21:33:09.991Z</time></trkpt><trkpt lat="39.4589652" lon="0.9713917"><ele>0.0</ele><time>2026-04-29T21:33:10.99Z</time></trkpt><trkpt lat="39.459039" lon="0.9714426"><ele>0.0</ele><time>2026-04-29T21:33:11.991Z</time></trkpt><trkpt lat="39.459105" lon="0.9714833"><ele>0.0</ele><time>2026-04-29T21:33:12.991Z</time></trkpt><trkpt lat="39.4591727" lon="0.9715207"><ele>0.0</ele><time>2026-04-29T21:33:13.991Z</time></trkpt><trkpt lat="39.4592451" lon="0.971555"><ele>0.0</ele><time>2026-04-29T21:33:14.991Z</time></trkpt><trkpt lat="39.45932" lon="0.9715908"><ele>0.0</ele><time>2026-04-29T21:33:15.991Z</time></trkpt><trkpt lat="39.4593965" lon="0.9716228"><ele>0.0</ele><time>2026-04-29T21:33:16.991Z</time></trkpt><trkpt lat="39.4594743" lon="0.9716727"><ele>0.0</ele><time>2026-04-29T21:33:17.991Z</time></trkpt><trkpt lat="39.4595513" lon="0.9717228"><ele>0.0</ele><time>2026-04-29T21:33:18.991Z</time></trkpt><trkpt lat="39.4596321" lon="0.97179"><ele>0.0</ele><time>2026-04-29T21:33:19.99Z</time></trkpt><trkpt lat="39.4597109" lon="0.9718628"><ele>0.0</ele><time>2026-04-29T21:33:20.991Z</time></trkpt><trkpt lat="39.4597908" lon="0.9719209"><ele>0.0</ele><time>2026-04-29T21:33:21.991Z</time></trkpt><trkpt lat="39.4598626" lon="0.9719818"><ele>0.0</ele><time>2026-04-29T21:33:22.99Z</time></trkpt><trkpt lat="39.4599386" lon="0.9720407"><ele>0.0</ele><time>2026-04-29T21:33:23.991Z</time></trkpt><trkpt lat="39.4600122" lon="0.9720993"><ele>0.0</ele><time>2026-04-29T21:33:24.991Z</time></trkpt><trkpt lat="39.4600854" lon="0.972153"><ele>0.0</ele><time>2026-04-29T21:33:25.99Z</time></trkpt><trkpt lat="39.4602327" lon="0.9722685"><ele>0.0</ele><time>2026-04-29T21:33:27.991Z</time></trkpt><trkpt lat="39.4603094" lon="0.9723272"><ele>0.0</ele><time>2026-04-29T21:33:28.99Z</time></trkpt><trkpt lat="39.4603864" lon="0.9723827"><ele>0.0</ele><time>2026-04-29T21:33:29.991Z</time></trkpt><trkpt lat="39.4604587" lon="0.972438"><ele>0.0</ele><time>2026-04-29T21:33:30.99Z</time></trkpt><trkpt lat="39.4605348" lon="0.9724949"><ele>0.0</ele><time>2026-04-29T21:33:31.991Z</time></trkpt><trkpt lat="39.4606126" lon="0.972556"><ele>0.0</ele><time>2026-04-29T21:33:32.99Z</time></trkpt><trkpt lat="39.4606851" lon="0.9726171"><ele>0.0</ele><time>2026-04-29T21:33:33.991Z</time></trkpt><trkpt lat="39.4607571" lon="0.9726701"><ele>0.0</ele><time>2026-04-29T21:33:34.99Z</time></trkpt><trkpt lat="39.4608345" lon="0.972723"><ele>0.0</ele><time>2026-04-29T21:33:35.99Z</time></trkpt><trkpt lat="39.4609112" lon="0.9727794"><ele>0.0</ele><time>2026-04-29T21:33:36.99Z</time></trkpt><trkpt lat="39.4609905" lon="0.9728373"><ele>0.0</ele><time>2026-04-29T21:33:37.991Z</time></trkpt><trkpt lat="39.4610633" lon="0.9728963"><ele>0.0</ele><time>2026-04-29T21:33:38.991Z</time></trkpt><trkpt lat="39.461135" lon="0.9729534"><ele>0.0</ele><time>2026-04-29T21:33:39.99Z</time></trkpt><trkpt lat="39.4612084" lon="0.9730038"><ele>0.0</ele><time>2026-04-29T21:33:40.991Z</time></trkpt><trkpt lat="39.4612833" lon="0.9730512"><ele>0.0</ele><time>2026-04-29T21:33:41.99Z</time></trkpt><trkpt lat="39.4613598" lon="0.9730948"><ele>0.0</ele><time>2026-04-29T21:33:42.99Z</time></trkpt><trkpt lat="39.4614395" lon="0.973149"><ele>0.0</ele><time>2026-04-29T21:33:43.99Z</time></trkpt><trkpt lat="39.4615121" lon="0.9732025"><ele>0.0</ele><time>2026-04-29T21:33:44.99Z</time></trkpt><trkpt lat="39.4615881" lon="0.97325"><ele>0.0</ele><time>2026-04-29T21:33:45.99Z</time></trkpt><trkpt lat="39.4616592" lon="0.9733068"><ele>0.0</ele><time>2026-04-29T21:33:46.991Z</time></trkpt><trkpt lat="39.4618008" lon="0.9734411"><ele>0.0</ele><time>2026-04-29T21:33:48.991Z</time></trkpt><trkpt lat="39.4618701" lon="0.9735022"><ele>0.0</ele><time>2026-04-29T21:33:49.99Z</time></trkpt><trkpt lat="39.4619434" lon="0.9735594"><ele>0.0</ele><time>2026-04-29T21:33:50.991Z</time></trkpt><trkpt lat="39.462021" lon="0.9736141"><ele>0.0</ele><time>2026-04-29T21:33:51.99Z</time></trkpt><trkpt lat="39.4620991" lon="0.9736609"><ele>0.0</ele><time>2026-04-29T21:33:52.991Z</time></trkpt><trkpt lat="39.4621789" lon="0.9737035"><ele>0.0</ele><time>2026-04-29T21:33:53.991Z</time></trkpt><trkpt lat="39.4622575" lon="0.9737592"><ele>0.0</ele><time>2026-04-29T21:33:54.99Z</time></trkpt><trkpt lat="39.4623358" lon="0.973812"><ele>0.0</ele><time>2026-04-29T21:33:55.99Z</time></trkpt><trkpt lat="39.462404" lon="0.9738765"><ele>0.0</ele><time>2026-04-29T21:33:56.99Z</time></trkpt><trkpt lat="39.4624763" lon="0.973936"><ele>0.0</ele><time>2026-04-29T21:33:57.99Z</time></trkpt><trkpt lat="39.4625454" lon="0.9740015"><ele>0.0</ele><time>2026-04-29T21:33:58.991Z</time></trkpt><trkpt lat="39.4626225" lon="0.9740561"><ele>0.0</ele><time>2026-04-29T21:33:59.99Z</time></trkpt><trkpt lat="39.4626996" lon="0.9741078"><ele>0.0</ele><time>2026-04-29T21:34:00.99Z</time></trkpt><trkpt lat="39.4627853" lon="0.9741656"><ele>0.0</ele><time>2026-04-29T21:34:01.991Z</time></trkpt><trkpt lat="39.4628646" lon="0.9742056"><ele>0.0</ele><time>2026-04-29T21:34:02.991Z</time></trkpt><trkpt lat="39.4629418" lon="0.9742479"><ele>0.0</ele><time>2026-04-29T21:34:03.99Z</time></trkpt><trkpt lat="39.4630171" lon="0.974302"><ele>0.0</ele><time>2026-04-29T21:34:04.99Z</time></trkpt><trkpt lat="39.463084" lon="0.9743331"><ele>0.0</ele><time>2026-04-29T21:34:05.991Z</time></trkpt><trkpt lat="39.4632288" lon="0.9744349"><ele>0.0</ele><time>2026-04-29T21:34:07.99Z</time></trkpt><trkpt lat="39.4633774" lon="0.9745274"><ele>0.0</ele><time>2026-04-29T21:34:09.99Z</time></trkpt><trkpt lat="39.4634501" lon="0.9745842"><ele>0.0</ele><time>2026-04-29T21:34:10.991Z</time></trkpt><trkpt lat="39.4635257" lon="0.9746454"><ele>0.0</ele><time>2026-04-29T21:34:11.991Z</time></trkpt><trkpt lat="39.4636022" lon="0.9747134"><ele>0.0</ele><time>2026-04-29T21:34:12.991Z</time></trkpt><trkpt lat="39.4636791" lon="0.9747816"><ele>0.0</ele><time>2026-04-29T21:34:13.99Z</time></trkpt><trkpt lat="39.463756" lon="0.9748496"><ele>0.0</ele><time>2026-04-29T21:34:14.99Z</time></trkpt><trkpt lat="39.4638287" lon="0.9749171"><ele>0.0</ele><time>2026-04-29T21:34:15.991Z</time></trkpt><trkpt lat="39.4639031" lon="0.9749851"><ele>0.0</ele><time>2026-04-29T21:34:16.99Z</time></trkpt><trkpt lat="39.4639768" lon="0.9750528"><ele>0.0</ele><time>2026-04-29T21:34:17.991Z</time></trkpt><trkpt lat="39.4640563" lon="0.9751119"><ele>0.0</ele><time>2026-04-29T21:34:18.991Z</time></trkpt><trkpt lat="39.4641318" lon="0.9751663"><ele>0.0</ele><time>2026-04-29T21:34:19.991Z</time></trkpt><trkpt lat="39.4642041" lon="0.9752252"><ele>0.0</ele><time>2026-04-29T21:34:20.99Z</time></trkpt><trkpt lat="39.4642774" lon="0.9752907"><ele>0.0</ele><time>2026-04-29T21:34:21.99Z</time></trkpt><trkpt lat="39.4643495" lon="0.9753573"><ele>0.0</ele><time>2026-04-29T21:34:22.99Z</time></trkpt><trkpt lat="39.4644211" lon="0.9754172"><ele>0.0</ele><time>2026-04-29T21:34:23.991Z</time></trkpt><trkpt lat="39.4644926" lon="0.975477"><ele>0.0</ele><time>2026-04-29T21:34:24.99Z</time></trkpt><trkpt lat="39.4645712" lon="0.9755295"><ele>0.0</ele><time>2026-04-29T21:34:25.991Z</time></trkpt><trkpt lat="39.4646482" lon="0.9755885"><ele>0.0</ele><time>2026-04-29T21:34:26.991Z</time></trkpt><trkpt lat="39.4647221" lon="0.9756472"><ele>0.0</ele><time>2026-04-29T21:34:27.99Z</time></trkpt><trkpt lat="39.4647966" lon="0.9757003"><ele>0.0</ele><time>2026-04-29T21:34:28.99Z</time></trkpt><trkpt lat="39.464948" lon="0.9757969"><ele>0.0</ele><time>2026-04-29T21:34:30.99Z</time></trkpt><trkpt lat="39.4650234" lon="0.9758485"><ele>0.0</ele><time>2026-04-29T21:34:31.991Z</time></trkpt><trkpt lat="39.4650885" lon="0.9758859"><ele>0.0</ele><time>2026-04-29T21:34:32.99Z</time></trkpt><trkpt lat="39.4651717" lon="0.9759505"><ele>0.0</ele><time>2026-04-29T21:34:33.99Z</time></trkpt><trkpt lat="39.4652554" lon="0.9760068"><ele>0.0</ele><time>2026-04-29T21:34:34.99Z</time></trkpt><trkpt lat="39.4653373" lon="0.9760607"><ele>0.0</ele><time>2026-04-29T21:34:35.99Z</time></trkpt><trkpt lat="39.4654177" lon="0.9761173"><ele>0.0</ele><time>2026-04-29T21:34:36.99Z</time></trkpt><trkpt lat="39.4654934" lon="0.9761812"><ele>0.0</ele><time>2026-04-29T21:34:37.991Z</time></trkpt><trkpt lat="39.465561" lon="0.976204"><ele>0.0</ele><time>2026-04-29T21:34:38.99Z</time></trkpt><trkpt lat="39.4656281" lon="0.9762364"><ele>0.0</ele><time>2026-04-29T21:34:39.991Z</time></trkpt><trkpt lat="39.4656951" lon="0.9762907"><ele>0.0</ele><time>2026-04-29T21:34:40.99Z</time></trkpt><trkpt lat="39.4657616" lon="0.9763409"><ele>0.0</ele><time>2026-04-29T21:34:41.99Z</time></trkpt><trkpt lat="39.4658341" lon="0.9763878"><ele>0.0</ele><time>2026-04-29T21:34:42.991Z</time></trkpt><trkpt lat="39.4659131" lon="0.9764343"><ele>0.0</ele><time>2026-04-29T21:34:43.99Z</time></trkpt><trkpt lat="39.4659918" lon="0.9764763"><ele>0.0</ele><time>2026-04-29T21:34:44.99Z</time></trkpt><trkpt lat="39.4660688" lon="0.9765219"><ele>0.0</ele><time>2026-04-29T21:34:45.99Z</time></trkpt><trkpt lat="39.4661427" lon="0.9765675"><ele>0.0</ele><time>2026-04-29T21:34:46.99Z</time></trkpt><trkpt lat="39.4662101" lon="0.9766097"><ele>0.0</ele><time>2026-04-29T21:34:47.991Z</time></trkpt><trkpt lat="39.4662825" lon="0.9766486"><ele>0.0</ele><time>2026-04-29T21:34:48.991Z</time></trkpt><trkpt lat="39.4663582" lon="0.9767055"><ele>0.0</ele><time>2026-04-29T21:34:49.99Z</time></trkpt><trkpt lat="39.4665106" lon="0.9768339"><ele>0.0</ele><time>2026-04-29T21:34:51.99Z</time></trkpt><trkpt lat="39.4665887" lon="0.9768909"><ele>0.0</ele><time>2026-04-29T21:34:52.991Z</time></trkpt><trkpt lat="39.4666652" lon="0.976947"><ele>0.0</ele><time>2026-04-29T21:34:53.991Z</time></trkpt><trkpt lat="39.4667388" lon="0.9769802"><ele>0.0</ele><time>2026-04-29T21:34:54.99Z</time></trkpt><trkpt lat="39.4668108" lon="0.9770274"><ele>0.0</ele><time>2026-04-29T21:34:55.989Z</time></trkpt><trkpt lat="39.4668867" lon="0.9770705"><ele>0.0</ele><time>2026-04-29T21:34:56.989Z</time></trkpt><trkpt lat="39.4669635" lon="0.9771263"><ele>0.0</ele><time>2026-04-29T21:34:57.989Z</time></trkpt><trkpt lat="39.4670396" lon="0.9771821"><ele>0.0</ele><time>2026-04-29T21:34:58.989Z</time></trkpt><trkpt lat="39.4671131" lon="0.9772408"><ele>0.0</ele><time>2026-04-29T21:34:59.989Z</time></trkpt><trkpt lat="39.4671907" lon="0.977295"><ele>0.0</ele><time>2026-04-29T21:35:00.989Z</time></trkpt><trkpt lat="39.4672704" lon="0.9773513"><ele>0.0</ele><time>2026-04-29T21:35:01.989Z</time></trkpt><trkpt lat="39.4673491" lon="0.9774052"><ele>0.0</ele><time>2026-04-29T21:35:02.99Z</time></trkpt><trkpt lat="39.4674291" lon="0.9774613"><ele>0.0</ele><time>2026-04-29T21:35:03.989Z</time></trkpt><trkpt lat="39.4675035" lon="0.9774996"><ele>0.0</ele><time>2026-04-29T21:35:04.989Z</time></trkpt><trkpt lat="39.4675753" lon="0.9775267"><ele>0.0</ele><time>2026-04-29T21:35:05.99Z</time></trkpt><trkpt lat="39.4676527" lon="0.9775684"><ele>0.0</ele><time>2026-04-29T21:35:06.99Z</time></trkpt><trkpt lat="39.4677281" lon="0.9776154"><ele>0.0</ele><time>2026-04-29T21:35:07.99Z</time></trkpt><trkpt lat="39.4677974" lon="0.9776669"><ele>0.0</ele><time>2026-04-29T21:35:08.989Z</time></trkpt><trkpt lat="39.4678701" lon="0.9777196"><ele>0.0</ele><time>2026-04-29T21:35:09.99Z</time></trkpt><trkpt lat="39.4680166" lon="0.9778324"><ele>0.0</ele><time>2026-04-29T21:35:11.99Z</time></trkpt><trkpt lat="39.4680913" lon="0.9778863"><ele>0.0</ele><time>2026-04-29T21:35:12.989Z</time></trkpt><trkpt lat="39.4681648" lon="0.9779468"><ele>0.0</ele><time>2026-04-29T21:35:13.989Z</time></trkpt><trkpt lat="39.4682378" lon="0.9780041"><ele>0.0</ele><time>2026-04-29T21:35:14.99Z</time></trkpt><trkpt lat="39.4683156" lon="0.9780608"><ele>0.0</ele><time>2026-04-29T21:35:15.989Z</time></trkpt><trkpt lat="39.4683931" lon="0.9781162"><ele>0.0</ele><time>2026-04-29T21:35:16.989Z</time></trkpt><trkpt lat="39.4684697" lon="0.9781742"><ele>0.0</ele><time>2026-04-29T21:35:17.99Z</time></trkpt><trkpt lat="39.4685534" lon="0.9782379"><ele>0.0</ele><time>2026-04-29T21:35:18.99Z</time></trkpt><trkpt lat="39.4686364" lon="0.978309"><ele>0.0</ele><time>2026-04-29T21:35:19.99Z</time></trkpt><trkpt lat="39.468713" lon="0.9783834"><ele>0.0</ele><time>2026-04-29T21:35:20.99Z</time></trkpt><trkpt lat="39.4687869" lon="0.9784678"><ele>0.0</ele><time>2026-04-29T21:35:21.99Z</time></trkpt><trkpt lat="39.4688533" lon="0.9785576"><ele>0.0</ele><time>2026-04-29T21:35:22.989Z</time></trkpt><trkpt lat="39.4689208" lon="0.9786335"><ele>0.0</ele><time>2026-04-29T21:35:23.99Z</time></trkpt><trkpt lat="39.4689919" lon="0.97871"><ele>0.0</ele><time>2026-04-29T21:35:24.989Z</time></trkpt><trkpt lat="39.4690708" lon="0.9787781"><ele>0.0</ele><time>2026-04-29T21:35:25.99Z</time></trkpt><trkpt lat="39.4691435" lon="0.9788245"><ele>0.0</ele><time>2026-04-29T21:35:26.99Z</time></trkpt><trkpt lat="39.4692198" lon="0.9788682"><ele>0.0</ele><time>2026-04-29T21:35:27.989Z</time></trkpt><trkpt lat="39.4692935" lon="0.9789172"><ele>0.0</ele><time>2026-04-29T21:35:28.99Z</time></trkpt><trkpt lat="39.4693653" lon="0.9789393"><ele>0.0</ele><time>2026-04-29T21:35:29.989Z</time></trkpt><trkpt lat="39.4694384" lon="0.9789864"><ele>0.0</ele><time>2026-04-29T21:35:30.989Z</time></trkpt><trkpt lat="39.4695866" lon="0.9790717"><ele>0.0</ele><time>2026-04-29T21:35:32.99Z</time></trkpt><trkpt lat="39.4696688" lon="0.9791308"><ele>0.0</ele><time>2026-04-29T21:35:33.989Z</time></trkpt><trkpt lat="39.4697423" lon="0.9791908"><ele>0.0</ele><time>2026-04-29T21:35:34.989Z</time></trkpt><trkpt lat="39.4698114" lon="0.9792462"><ele>0.0</ele><time>2026-04-29T21:35:35.989Z</time></trkpt><trkpt lat="39.4698853" lon="0.9792983"><ele>0.0</ele><time>2026-04-29T21:35:36.99Z</time></trkpt><trkpt lat="39.4699571" lon="0.9793553"><ele>0.0</ele><time>2026-04-29T21:35:37.99Z</time></trkpt><trkpt lat="39.4700374" lon="0.9794186"><ele>0.0</ele><time>2026-04-29T21:35:38.99Z</time></trkpt><trkpt lat="39.4701123" lon="0.9794747"><ele>0.0</ele><time>2026-04-29T21:35:39.99Z</time></trkpt><trkpt lat="39.4701895" lon="0.9795261"><ele>0.0</ele><time>2026-04-29T21:35:40.99Z</time></trkpt><trkpt lat="39.4702678" lon="0.9795758"><ele>0.0</ele><time>2026-04-29T21:35:41.989Z</time></trkpt><trkpt lat="39.4703434" lon="0.9796241"><ele>0.0</ele><time>2026-04-29T21:35:42.989Z</time></trkpt><trkpt lat="39.4704184" lon="0.9796794"><ele>0.0</ele><time>2026-04-29T21:35:43.989Z</time></trkpt><trkpt lat="39.4704933" lon="0.9797291"><ele>0.0</ele><time>2026-04-29T21:35:44.99Z</time></trkpt><trkpt lat="39.4705709" lon="0.9797788"><ele>0.0</ele><time>2026-04-29T21:35:45.989Z</time></trkpt><trkpt lat="39.4706492" lon="0.9798015"><ele>0.0</ele><time>2026-04-29T21:35:46.989Z</time></trkpt><trkpt lat="39.470728" lon="0.9798476"><ele>0.0</ele><time>2026-04-29T21:35:47.99Z</time></trkpt><trkpt lat="39.4708008" lon="0.9798938"><ele>0.0</ele><time>2026-04-29T21:35:48.989Z</time></trkpt><trkpt lat="39.4708723" lon="0.979949"><ele>0.0</ele><time>2026-04-29T21:35:49.989Z</time></trkpt><trkpt lat="39.470948" lon="0.9800025"><ele>0.0</ele><time>2026-04-29T21:35:50.989Z</time></trkpt><trkpt lat="39.4710218" lon="0.9800534"><ele>0.0</ele><time>2026-04-29T21:35:51.989Z</time></trkpt><trkpt lat="39.471154" lon="0.9801475"><ele>0.0</ele><time>2026-04-29T21:35:53.989Z</time></trkpt><trkpt lat="39.4712338" lon="0.980189"><ele>0.0</ele><time>2026-04-29T21:35:54.99Z</time></trkpt><trkpt lat="39.471314" lon="0.9802401"><ele>0.0</ele><time>2026-04-29T21:35:55.99Z</time></trkpt><trkpt lat="39.4713912" lon="0.9802905"><ele>0.0</ele><time>2026-04-29T21:35:56.989Z</time></trkpt><trkpt lat="39.4714709" lon="0.9803438"><ele>0.0</ele><time>2026-04-29T21:35:57.99Z</time></trkpt><trkpt lat="39.4715437" lon="0.9804053"><ele>0.0</ele><time>2026-04-29T21:35:58.99Z</time></trkpt><trkpt lat="39.4716168" lon="0.9804625"><ele>0.0</ele><time>2026-04-29T21:35:59.989Z</time></trkpt><trkpt lat="39.4716929" lon="0.9805218"><ele>0.0</ele><time>2026-04-29T21:36:00.989Z</time></trkpt><trkpt lat="39.4717683" lon="0.9805766"><ele>0.0</ele><time>2026-04-29T21:36:01.989Z</time></trkpt><trkpt lat="39.4718403" lon="0.9806242"><ele>0.0</ele><time>2026-04-29T21:36:02.989Z</time></trkpt><trkpt lat="39.4719124" lon="0.9806738"><ele>0.0</ele><time>2026-04-29T21:36:03.989Z</time></trkpt><trkpt lat="39.4719811" lon="0.980712"><ele>0.0</ele><time>2026-04-29T21:36:04.99Z</time></trkpt><trkpt lat="39.4720566" lon="0.9807564"><ele>0.0</ele><time>2026-04-29T21:36:05.99Z</time></trkpt><trkpt lat="39.4721284" lon="0.9808052"><ele>0.0</ele><time>2026-04-29T21:36:06.989Z</time></trkpt><trkpt lat="39.4722" lon="0.9808595"><ele>0.0</ele><time>2026-04-29T21:36:07.989Z</time></trkpt><trkpt lat="39.4722706" lon="0.9809107"><ele>0.0</ele><time>2026-04-29T21:36:08.989Z</time></trkpt><trkpt lat="39.4723378" lon="0.9809626"><ele>0.0</ele><time>2026-04-29T21:36:09.989Z</time></trkpt><trkpt lat="39.4724101" lon="0.9810138"><ele>0.0</ele><time>2026-04-29T21:36:10.99Z</time></trkpt><trkpt lat="39.4724891" lon="0.9810692"><ele>0.0</ele><time>2026-04-29T21:36:11.99Z</time></trkpt><trkpt lat="39.4725649" lon="0.9811134"><ele>0.0</ele><time>2026-04-29T21:36:12.989Z</time></trkpt><trkpt lat="39.4726424" lon="0.9811662"><ele>0.0</ele><time>2026-04-29T21:36:13.989Z</time></trkpt><trkpt lat="39.4727901" lon="0.981278"><ele>0.0</ele><time>2026-04-29T21:36:15.989Z</time></trkpt><trkpt lat="39.4728706" lon="0.9813387"><ele>0.0</ele><time>2026-04-29T21:36:16.989Z</time></trkpt><trkpt lat="39.4729423" lon="0.9813964"><ele>0.0</ele><time>2026-04-29T21:36:17.99Z</time></trkpt><trkpt lat="39.4730152" lon="0.9814511"><ele>0.0</ele><time>2026-04-29T21:36:18.989Z</time></trkpt><trkpt lat="39.4730882" lon="0.9815156"><ele>0.0</ele><time>2026-04-29T21:36:19.989Z</time></trkpt><trkpt lat="39.473166" lon="0.9815737"><ele>0.0</ele><time>2026-04-29T21:36:20.989Z</time></trkpt><trkpt lat="39.4732357" lon="0.9816334"><ele>0.0</ele><time>2026-04-29T21:36:21.989Z</time></trkpt><trkpt lat="39.4733102" lon="0.981696"><ele>0.0</ele><time>2026-04-29T21:36:22.99Z</time></trkpt><trkpt lat="39.4733874" lon="0.9817566"><ele>0.0</ele><time>2026-04-29T21:36:23.99Z</time></trkpt><trkpt lat="39.4734618" lon="0.9818066"><ele>0.0</ele><time>2026-04-29T21:36:24.99Z</time></trkpt><trkpt lat="39.4735383" lon="0.9818607"><ele>0.0</ele><time>2026-04-29T21:36:25.99Z</time></trkpt><trkpt lat="39.4736166" lon="0.9819054"><ele>0.0</ele><time>2026-04-29T21:36:26.99Z</time></trkpt><trkpt lat="39.4736884" lon="0.9819385"><ele>0.0</ele><time>2026-04-29T21:36:27.99Z</time></trkpt><trkpt lat="39.4737585" lon="0.9819759"><ele>0.0</ele><time>2026-04-29T21:36:28.989Z</time></trkpt><trkpt lat="39.4738354" lon="0.9820337"><ele>0.0</ele><time>2026-04-29T21:36:29.989Z</time></trkpt><trkpt lat="39.4739136" lon="0.9820867"><ele>0.0</ele><time>2026-04-29T21:36:30.989Z</time></trkpt><trkpt lat="39.4739889" lon="0.9821308"><ele>0.0</ele><time>2026-04-29T21:36:31.99Z</time></trkpt><trkpt lat="39.4740653" lon="0.9821851"><ele>0.0</ele><time>2026-04-29T21:36:32.989Z</time></trkpt><trkpt lat="39.4741436" lon="0.98225"><ele>0.0</ele><time>2026-04-29T21:36:33.989Z</time></trkpt><trkpt lat="39.4742191" lon="0.9823009"><ele>0.0</ele><time>2026-04-29T21:36:34.99Z</time></trkpt><trkpt lat="39.4743776" lon="0.9823926"><ele>0.0</ele><time>2026-04-29T21:36:36.989Z</time></trkpt><trkpt lat="39.4744567" lon="0.9824472"><ele>0.0</ele><time>2026-04-29T21:36:37.99Z</time></trkpt><trkpt lat="39.4745321" lon="0.9824885"><ele>0.0</ele><time>2026-04-29T21:36:38.99Z</time></trkpt><trkpt lat="39.4746085" lon="0.9825369"><ele>0.0</ele><time>2026-04-29T21:36:39.989Z</time></trkpt><trkpt lat="39.4746882" lon="0.9826037"><ele>0.0</ele><time>2026-04-29T21:36:40.99Z</time></trkpt><trkpt lat="39.4747621" lon="0.9826545"><ele>0.0</ele><time>2026-04-29T21:36:41.99Z</time></trkpt><trkpt lat="39.4748321" lon="0.982706"><ele>0.0</ele><time>2026-04-29T21:36:42.989Z</time></trkpt><trkpt lat="39.4749074" lon="0.9827612"><ele>0.0</ele><time>2026-04-29T21:36:43.989Z</time></trkpt><trkpt lat="39.4749872" lon="0.9828318"><ele>0.0</ele><time>2026-04-29T21:36:44.989Z</time></trkpt><trkpt lat="39.4750614" lon="0.9828967"><ele>0.0</ele><time>2026-04-29T21:36:45.99Z</time></trkpt><trkpt lat="39.4751333" lon="0.982947"><ele>0.0</ele><time>2026-04-29T21:36:46.989Z</time></trkpt><trkpt lat="39.4752034" lon="0.9830042"><ele>0.0</ele><time>2026-04-29T21:36:47.99Z</time></trkpt><trkpt lat="39.475279" lon="0.9830661"><ele>0.0</ele><time>2026-04-29T21:36:48.99Z</time></trkpt><trkpt lat="39.4753602" lon="0.9831423"><ele>0.0</ele><time>2026-04-29T21:36:49.99Z</time></trkpt><trkpt lat="39.4754331" lon="0.9832015"><ele>0.0</ele><time>2026-04-29T21:36:50.99Z</time></trkpt><trkpt lat="39.475509" lon="0.9832745"><ele>0.0</ele><time>2026-04-29T21:36:51.99Z</time></trkpt><trkpt lat="39.4755888" lon="0.9833411"><ele>0.0</ele><time>2026-04-29T21:36:52.99Z</time></trkpt><trkpt lat="39.4756675" lon="0.9834098"><ele>0.0</ele><time>2026-04-29T21:36:53.99Z</time></trkpt><trkpt lat="39.4757456" lon="0.9834796"><ele>0.0</ele><time>2026-04-29T21:36:54.99Z</time></trkpt><trkpt lat="39.4758201" lon="0.9835535"><ele>0.0</ele><time>2026-04-29T21:36:55.99Z</time></trkpt><trkpt lat="39.4759671" lon="0.9836853"><ele>0.0</ele><time>2026-04-29T21:36:57.989Z</time></trkpt><trkpt lat="39.4760428" lon="0.9837343"><ele>0.0</ele><time>2026-04-29T21:36:58.99Z</time></trkpt><trkpt lat="39.4761137" lon="0.9837896"><ele>0.0</ele><time>2026-04-29T21:36:59.99Z</time></trkpt><trkpt lat="39.4761869" lon="0.9838552"><ele>0.0</ele><time>2026-04-29T21:37:00.989Z</time></trkpt><trkpt lat="39.4762603" lon="0.9839233"><ele>0.0</ele><time>2026-04-29T21:37:01.99Z</time></trkpt><trkpt lat="39.4763365" lon="0.9839841"><ele>0.0</ele><time>2026-04-29T21:37:02.99Z</time></trkpt><trkpt lat="39.4764141" lon="0.9840051"><ele>0.0</ele><time>2026-04-29T21:37:03.989Z</time></trkpt><trkpt lat="39.4764955" lon="0.9840598"><ele>0.0</ele><time>2026-04-29T21:37:04.989Z</time></trkpt><trkpt lat="39.4765655" lon="0.9840927"><ele>0.0</ele><time>2026-04-29T21:37:05.989Z</time></trkpt><trkpt lat="39.4766324" lon="0.9841218"><ele>0.0</ele><time>2026-04-29T21:37:06.99Z</time></trkpt><trkpt lat="39.4767067" lon="0.984168"><ele>0.0</ele><time>2026-04-29T21:37:07.989Z</time></trkpt><trkpt lat="39.4767844" lon="0.9842153"><ele>0.0</ele><time>2026-04-29T21:37:08.989Z</time></trkpt><trkpt lat="39.4768614" lon="0.9842636"><ele>0.0</ele><time>2026-04-29T21:37:09.989Z</time></trkpt><trkpt lat="39.4769293" lon="0.9843092"><ele>0.0</ele><time>2026-04-29T21:37:10.99Z</time></trkpt><trkpt lat="39.4770049" lon="0.9843567"><ele>0.0</ele><time>2026-04-29T21:37:11.989Z</time></trkpt><trkpt lat="39.4770803" lon="0.9844033"><ele>0.0</ele><time>2026-04-29T21:37:12.99Z</time></trkpt><trkpt lat="39.4771538" lon="0.9844484"><ele>0.0</ele><time>2026-04-29T21:37:13.99Z</time></trkpt><trkpt lat="39.4772315" lon="0.984495"><ele>0.0</ele><time>2026-04-29T21:37:14.989Z</time></trkpt><trkpt lat="39.4773051" lon="0.9845463"><ele>0.0</ele><time>2026-04-29T21:37:15.99Z</time></trkpt><trkpt lat="39.4773839" lon="0.984593"><ele>0.0</ele><time>2026-04-29T21:37:16.989Z</time></trkpt><trkpt lat="39.4774422" lon="0.9846448"><ele>0.0</ele><time>2026-04-29T21:37:17.99Z</time></trkpt><trkpt lat="39.4775849" lon="0.9847485"><ele>0.0</ele><time>2026-04-29T21:37:19.989Z</time></trkpt><trkpt lat="39.4776642" lon="0.9847965"><ele>0.0</ele><time>2026-04-29T21:37:20.99Z</time></trkpt><trkpt lat="39.47774" lon="0.9848392"><ele>0.0</ele><time>2026-04-29T21:37:21.99Z</time></trkpt><trkpt lat="39.4778136" lon="0.9848952"><ele>0.0</ele><time>2026-04-29T21:37:22.989Z</time></trkpt><trkpt lat="39.4778898" lon="0.9849513"><ele>0.0</ele><time>2026-04-29T21:37:23.989Z</time></trkpt><trkpt lat="39.4779644" lon="0.9849992"><ele>0.0</ele><time>2026-04-29T21:37:24.99Z</time></trkpt><trkpt lat="39.4780426" lon="0.9850458"><ele>0.0</ele><time>2026-04-29T21:37:25.989Z</time></trkpt><trkpt lat="39.4781168" lon="0.985088"><ele>0.0</ele><time>2026-04-29T21:37:26.989Z</time></trkpt><trkpt lat="39.4781969" lon="0.9851351"><ele>0.0</ele><time>2026-04-29T21:37:27.989Z</time></trkpt><trkpt lat="39.4782784" lon="0.9851862"><ele>0.0</ele><time>2026-04-29T21:37:28.989Z</time></trkpt><trkpt lat="39.4783614" lon="0.9852496"><ele>0.0</ele><time>2026-04-29T21:37:29.99Z</time></trkpt><trkpt lat="39.4784366" lon="0.9853089"><ele>0.0</ele><time>2026-04-29T21:37:30.99Z</time></trkpt><trkpt lat="39.4785144" lon="0.9853618"><ele>0.0</ele><time>2026-04-29T21:37:31.99Z</time></trkpt><trkpt lat="39.4785954" lon="0.985415"><ele>0.0</ele><time>2026-04-29T21:37:32.99Z</time></trkpt><trkpt lat="39.4786742" lon="0.9854673"><ele>0.0</ele><time>2026-04-29T21:37:33.989Z</time></trkpt><trkpt lat="39.4787497" lon="0.9855215"><ele>0.0</ele><time>2026-04-29T21:37:34.989Z</time></trkpt><trkpt lat="39.4788262" lon="0.9855693"><ele>0.0</ele><time>2026-04-29T21:37:35.989Z</time></trkpt><trkpt lat="39.4789016" lon="0.9856215"><ele>0.0</ele><time>2026-04-29T21:37:36.99Z</time></trkpt><trkpt lat="39.4789739" lon="0.9856857"><ele>0.0</ele><time>2026-04-29T21:37:37.989Z</time></trkpt><trkpt lat="39.4790469" lon="0.9857483"><ele>0.0</ele><time>2026-04-29T21:37:38.99Z</time></trkpt><trkpt lat="39.4791934" lon="0.985859"><ele>0.0</ele><time>2026-04-29T21:37:40.989Z</time></trkpt><trkpt lat="39.479267" lon="0.9859087"><ele>0.0</ele><time>2026-04-29T21:37:41.99Z</time></trkpt><trkpt lat="39.4793429" lon="0.9859648"><ele>0.0</ele><time>2026-04-29T21:37:42.99Z</time></trkpt><trkpt lat="39.479421" lon="0.9860189"><ele>0.0</ele><time>2026-04-29T21:37:43.989Z</time></trkpt><trkpt lat="39.4794962" lon="0.9860711"><ele>0.0</ele><time>2026-04-29T21:37:44.989Z</time></trkpt><trkpt lat="39.479574" lon="0.9861307"><ele>0.0</ele><time>2026-04-29T21:37:45.989Z</time></trkpt><trkpt lat="39.4796565" lon="0.9861916"><ele>0.0</ele><time>2026-04-29T21:37:46.989Z</time></trkpt><trkpt lat="39.47974" lon="0.98625"><ele>0.0</ele><time>2026-04-29T21:37:47.99Z</time></trkpt><trkpt lat="39.4798149" lon="0.9863126"><ele>0.0</ele><time>2026-04-29T21:37:48.989Z</time></trkpt><trkpt lat="39.4798928" lon="0.9863709"><ele>0.0</ele><time>2026-04-29T21:37:49.989Z</time></trkpt><trkpt lat="39.479961" lon="0.9864237"><ele>0.0</ele><time>2026-04-29T21:37:50.989Z</time></trkpt><trkpt lat="39.4800309" lon="0.9864824"><ele>0.0</ele><time>2026-04-29T21:37:51.99Z</time></trkpt><trkpt lat="39.4801035" lon="0.9865368"><ele>0.0</ele><time>2026-04-29T21:37:52.99Z</time></trkpt><trkpt lat="39.4801796" lon="0.9865917"><ele>0.0</ele><time>2026-04-29T21:37:53.99Z</time></trkpt><trkpt lat="39.4802535" lon="0.9866493"><ele>0.0</ele><time>2026-04-29T21:37:54.989Z</time></trkpt><trkpt lat="39.4803283" lon="0.986704"><ele>0.0</ele><time>2026-04-29T21:37:55.99Z</time></trkpt><trkpt lat="39.4804062" lon="0.9867477"><ele>0.0</ele><time>2026-04-29T21:37:56.99Z</time></trkpt><trkpt lat="39.4804831" lon="0.9868109"><ele>0.0</ele><time>2026-04-29T21:37:57.989Z</time></trkpt><trkpt lat="39.4805511" lon="0.9868733"><ele>0.0</ele><time>2026-04-29T21:37:58.989Z</time></trkpt><trkpt lat="39.4806182" lon="0.9869408"><ele>0.0</ele><time>2026-04-29T21:37:59.989Z</time></trkpt><trkpt lat="39.4807574" lon="0.9870353"><ele>0.0</ele><time>2026-04-29T21:38:01.989Z</time></trkpt><trkpt lat="39.4808335" lon="0.9870743"><ele>0.0</ele><time>2026-04-29T21:38:02.989Z</time></trkpt><trkpt lat="39.4809106" lon="0.9871173"><ele>0.0</ele><time>2026-04-29T21:38:03.99Z</time></trkpt><trkpt lat="39.480987" lon="0.98716"><ele>0.0</ele><time>2026-04-29T21:38:04.989Z</time></trkpt><trkpt lat="39.4810698" lon="0.9872131"><ele>0.0</ele><time>2026-04-29T21:38:05.989Z</time></trkpt><trkpt lat="39.4811461" lon="0.9872541"><ele>0.0</ele><time>2026-04-29T21:38:06.989Z</time></trkpt><trkpt lat="39.4812183" lon="0.9873044"><ele>0.0</ele><time>2026-04-29T21:38:07.99Z</time></trkpt><trkpt lat="39.4812912" lon="0.9873561"><ele>0.0</ele><time>2026-04-29T21:38:08.99Z</time></trkpt><trkpt lat="39.4813668" lon="0.9874037"><ele>0.0</ele><time>2026-04-29T21:38:09.989Z</time></trkpt><trkpt lat="39.4814446" lon="0.9874562"><ele>0.0</ele><time>2026-04-29T21:38:10.989Z</time></trkpt><trkpt lat="39.481523" lon="0.9875005"><ele>0.0</ele><time>2026-04-29T21:38:11.989Z</time></trkpt><trkpt lat="39.4815997" lon="0.9875553"><ele>0.0</ele><time>2026-04-29T21:38:12.99Z</time></trkpt><trkpt lat="39.4816722" lon="0.9876152"><ele>0.0</ele><time>2026-04-29T21:38:13.989Z</time></trkpt><trkpt lat="39.4817368" lon="0.9876768"><ele>0.0</ele><time>2026-04-29T21:38:14.989Z</time></trkpt><trkpt lat="39.481807" lon="0.9877443"><ele>0.0</ele><time>2026-04-29T21:38:15.989Z</time></trkpt><trkpt lat="39.4818841" lon="0.9878089"><ele>0.0</ele><time>2026-04-29T21:38:16.99Z</time></trkpt><trkpt lat="39.481961" lon="0.9878651"><ele>0.0</ele><time>2026-04-29T21:38:17.989Z</time></trkpt><trkpt lat="39.4820379" lon="0.9879353"><ele>0.0</ele><time>2026-04-29T21:38:18.989Z</time></trkpt><trkpt lat="39.4821176" lon="0.987997"><ele>0.0</ele><time>2026-04-29T21:38:19.989Z</time></trkpt><trkpt lat="39.4821907" lon="0.9880515"><ele>0.0</ele><time>2026-04-29T21:38:20.989Z</time></trkpt><trkpt lat="39.4822667" lon="0.9881178"><ele>0.0</ele><time>2026-04-29T21:38:21.99Z</time></trkpt><trkpt lat="39.4824233" lon="0.988266"><ele>0.0</ele><time>2026-04-29T21:38:23.989Z</time></trkpt><trkpt lat="39.4825024" lon="0.9883354"><ele>0.0</ele><time>2026-04-29T21:38:24.989Z</time></trkpt><trkpt lat="39.4825795" lon="0.9883916"><ele>0.0</ele><time>2026-04-29T21:38:25.99Z</time></trkpt><trkpt lat="39.4826591" lon="0.988451"><ele>0.0</ele><time>2026-04-29T21:38:26.989Z</time></trkpt><trkpt lat="39.4827319" lon="0.9885125"><ele>0.0</ele><time>2026-04-29T21:38:27.989Z</time></trkpt><trkpt lat="39.4828064" lon="0.9885399"><ele>0.0</ele><time>2026-04-29T21:38:28.99Z</time></trkpt><trkpt lat="39.4828829" lon="0.9885916"><ele>0.0</ele><time>2026-04-29T21:38:29.989Z</time></trkpt><trkpt lat="39.4829642" lon="0.9886443"><ele>0.0</ele><time>2026-04-29T21:38:30.99Z</time></trkpt><trkpt lat="39.4830432" lon="0.9887005"><ele>0.0</ele><time>2026-04-29T21:38:31.99Z</time></trkpt><trkpt lat="39.4831199" lon="0.9887614"><ele>0.0</ele><time>2026-04-29T21:38:32.989Z</time></trkpt><trkpt lat="39.4832007" lon="0.9888063"><ele>0.0</ele><time>2026-04-29T21:38:33.989Z</time></trkpt><trkpt lat="39.4832795" lon="0.9888486"><ele>0.0</ele><time>2026-04-29T21:38:34.989Z</time></trkpt><trkpt lat="39.4833523" lon="0.9889002"><ele>0.0</ele><time>2026-04-29T21:38:35.989Z</time></trkpt><trkpt lat="39.4834198" lon="0.9889422"><ele>0.0</ele><time>2026-04-29T21:38:36.99Z</time></trkpt><trkpt lat="39.483498" lon="0.9889862"><ele>0.0</ele><time>2026-04-29T21:38:37.99Z</time></trkpt><trkpt lat="39.483568" lon="0.9890198"><ele>0.0</ele><time>2026-04-29T21:38:38.989Z</time></trkpt><trkpt lat="39.4836434" lon="0.9890672"><ele>0.0</ele><time>2026-04-29T21:38:39.989Z</time></trkpt><trkpt lat="39.4837213" lon="0.9891061"><ele>0.0</ele><time>2026-04-29T21:38:40.989Z</time></trkpt><trkpt lat="39.4837926" lon="0.9891545"><ele>0.0</ele><time>2026-04-29T21:38:41.99Z</time></trkpt><trkpt lat="39.4838669" lon="0.9892013"><ele>0.0</ele><time>2026-04-29T21:38:42.99Z</time></trkpt><trkpt lat="39.4840038" lon="0.9892927"><ele>0.0</ele><time>2026-04-29T21:38:44.99Z</time></trkpt><trkpt lat="39.4840769" lon="0.9893033"><ele>0.0</ele><time>2026-04-29T21:38:45.989Z</time></trkpt><trkpt lat="39.4841545" lon="0.9893385"><ele>0.0</ele><time>2026-04-29T21:38:46.99Z</time></trkpt><trkpt lat="39.4842327" lon="0.9893855"><ele>0.0</ele><time>2026-04-29T21:38:47.99Z</time></trkpt><trkpt lat="39.4843138" lon="0.9894367"><ele>0.0</ele><time>2026-04-29T21:38:48.99Z</time></trkpt><trkpt lat="39.4843925" lon="0.9894865"><ele>0.0</ele><time>2026-04-29T21:38:49.989Z</time></trkpt><trkpt lat="39.4844695" lon="0.989545"><ele>0.0</ele><time>2026-04-29T21:38:50.989Z</time></trkpt><trkpt lat="39.4845411" lon="0.9896076"><ele>0.0</ele><time>2026-04-29T21:38:51.99Z</time></trkpt><trkpt lat="39.4846167" lon="0.9896599"><ele>0.0</ele><time>2026-04-29T21:38:52.989Z</time></trkpt><trkpt lat="39.4846903" lon="0.9897188"><ele>0.0</ele><time>2026-04-29T21:38:53.99Z</time></trkpt><trkpt lat="39.4847706" lon="0.989777"><ele>0.0</ele><time>2026-04-29T21:38:54.99Z</time></trkpt><trkpt lat="39.4848496" lon="0.9898268"><ele>0.0</ele><time>2026-04-29T21:38:55.989Z</time></trkpt><trkpt lat="39.4849253" lon="0.9898787"><ele>0.0</ele><time>2026-04-29T21:38:56.989Z</time></trkpt><trkpt lat="39.4849979" lon="0.9899362"><ele>0.0</ele><time>2026-04-29T21:38:57.989Z</time></trkpt><trkpt lat="39.4850722" lon="0.9899926"><ele>0.0</ele><time>2026-04-29T21:38:58.989Z</time></trkpt><trkpt lat="39.4851498" lon="0.9900462"><ele>0.0</ele><time>2026-04-29T21:38:59.989Z</time></trkpt><trkpt lat="39.4852238" lon="0.9900998"><ele>0.0</ele><time>2026-04-29T21:39:00.989Z</time></trkpt><trkpt lat="39.485297" lon="0.9901641"><ele>0.0</ele><time>2026-04-29T21:39:01.988Z</time></trkpt><trkpt lat="39.4853762" lon="0.990224"><ele>0.0</ele><time>2026-04-29T21:39:02.989Z</time></trkpt><trkpt lat="39.4854502" lon="0.9902765"><ele>0.0</ele><time>2026-04-29T21:39:03.988Z</time></trkpt><trkpt lat="39.4855986" lon="0.9903745"><ele>0.0</ele><time>2026-04-29T21:39:05.988Z</time></trkpt><trkpt lat="39.4856748" lon="0.9904266"><ele>0.0</ele><time>2026-04-29T21:39:06.989Z</time></trkpt><trkpt lat="39.4857473" lon="0.9904787"><ele>0.0</ele><time>2026-04-29T21:39:07.988Z</time></trkpt><trkpt lat="39.4858217" lon="0.9905459"><ele>0.0</ele><time>2026-04-29T21:39:08.988Z</time></trkpt><trkpt lat="39.4858981" lon="0.9906137"><ele>0.0</ele><time>2026-04-29T21:39:09.988Z</time></trkpt><trkpt lat="39.485972" lon="0.9906895"><ele>0.0</ele><time>2026-04-29T21:39:10.989Z</time></trkpt><trkpt lat="39.4860452" lon="0.9907477"><ele>0.0</ele><time>2026-04-29T21:39:11.989Z</time></trkpt><trkpt lat="39.4861229" lon="0.9908042"><ele>0.0</ele><time>2026-04-29T21:39:12.989Z</time></trkpt><trkpt lat="39.4861971" lon="0.9908633"><ele>0.0</ele><time>2026-04-29T21:39:13.989Z</time></trkpt><trkpt lat="39.4862706" lon="0.9909226"><ele>0.0</ele><time>2026-04-29T21:39:14.989Z</time></trkpt><trkpt lat="39.4863437" lon="0.9909813"><ele>0.0</ele><time>2026-04-29T21:39:15.988Z</time></trkpt><trkpt lat="39.4864199" lon="0.991034"><ele>0.0</ele><time>2026-04-29T21:39:16.988Z</time></trkpt><trkpt lat="39.4864965" lon="0.9910915"><ele>0.0</ele><time>2026-04-29T21:39:17.988Z</time></trkpt><trkpt lat="39.4865675" lon="0.9911557"><ele>0.0</ele><time>2026-04-29T21:39:18.989Z</time></trkpt><trkpt lat="39.4866392" lon="0.9912091"><ele>0.0</ele><time>2026-04-29T21:39:19.989Z</time></trkpt><trkpt lat="39.4867119" lon="0.9912656"><ele>0.0</ele><time>2026-04-29T21:39:20.989Z</time></trkpt><trkpt lat="39.4867852" lon="0.991329"><ele>0.0</ele><time>2026-04-29T21:39:21.989Z</time></trkpt><trkpt lat="39.486853" lon="0.9913836"><ele>0.0</ele><time>2026-04-29T21:39:22.989Z</time></trkpt><trkpt lat="39.4869267" lon="0.9914398"><ele>0.0</ele><time>2026-04-29T21:39:23.988Z</time></trkpt><trkpt lat="39.4870003" lon="0.9914931"><ele>0.0</ele><time>2026-04-29T21:39:24.989Z</time></trkpt><trkpt lat="39.4870806" lon="0.9915477"><ele>0.0</ele><time>2026-04-29T21:39:25.988Z</time></trkpt><trkpt lat="39.4873038" lon="0.9917053"><ele>0.0</ele><time>2026-04-29T21:39:28.989Z</time></trkpt><trkpt lat="39.487369" lon="0.9917461"><ele>0.0</ele><time>2026-04-29T21:39:29.989Z</time></trkpt><trkpt lat="39.4874477" lon="0.9917972"><ele>0.0</ele><time>2026-04-29T21:39:30.989Z</time></trkpt><trkpt lat="39.4875246" lon="0.9918439"><ele>0.0</ele><time>2026-04-29T21:39:31.988Z</time></trkpt><trkpt lat="39.4875942" lon="0.991888"><ele>0.0</ele><time>2026-04-29T21:39:32.988Z</time></trkpt><trkpt lat="39.487671" lon="0.9919324"><ele>0.0</ele><time>2026-04-29T21:39:33.989Z</time></trkpt><trkpt lat="39.4877494" lon="0.9919831"><ele>0.0</ele><time>2026-04-29T21:39:34.988Z</time></trkpt><trkpt lat="39.487825" lon="0.9920364"><ele>0.0</ele><time>2026-04-29T21:39:35.988Z</time></trkpt><trkpt lat="39.4879001" lon="0.992088"><ele>0.0</ele><time>2026-04-29T21:39:36.988Z</time></trkpt><trkpt lat="39.4879822" lon="0.9921496"><ele>0.0</ele><time>2026-04-29T21:39:37.988Z</time></trkpt><trkpt lat="39.4880599" lon="0.9922061"><ele>0.0</ele><time>2026-04-29T21:39:38.988Z</time></trkpt><trkpt lat="39.4881352" lon="0.9922559"><ele>0.0</ele><time>2026-04-29T21:39:39.989Z</time></trkpt><trkpt lat="39.4882086" lon="0.9923051"><ele>0.0</ele><time>2026-04-29T21:39:40.988Z</time></trkpt><trkpt lat="39.4882861" lon="0.9923506"><ele>0.0</ele><time>2026-04-29T21:39:41.988Z</time></trkpt><trkpt lat="39.4883658" lon="0.9924059"><ele>0.0</ele><time>2026-04-29T21:39:42.988Z</time></trkpt><trkpt lat="39.4884402" lon="0.9924555"><ele>0.0</ele><time>2026-04-29T21:39:43.988Z</time></trkpt><trkpt lat="39.4885236" lon="0.9925068"><ele>0.0</ele><time>2026-04-29T21:39:44.988Z</time></trkpt><trkpt lat="39.4885975" lon="0.9925538"><ele>0.0</ele><time>2026-04-29T21:39:45.988Z</time></trkpt><trkpt lat="39.4886762" lon="0.9926006"><ele>0.0</ele><time>2026-04-29T21:39:46.988Z</time></trkpt><trkpt lat="39.4888281" lon="0.9927127"><ele>0.0</ele><time>2026-04-29T21:39:48.988Z</time></trkpt><trkpt lat="39.4889006" lon="0.9927734"><ele>0.0</ele><time>2026-04-29T21:39:49.988Z</time></trkpt><trkpt lat="39.4889736" lon="0.992832"><ele>0.0</ele><time>2026-04-29T21:39:50.988Z</time></trkpt><trkpt lat="39.4890456" lon="0.9928857"><ele>0.0</ele><time>2026-04-29T21:39:51.988Z</time></trkpt><trkpt lat="39.4891186" lon="0.9929381"><ele>0.0</ele><time>2026-04-29T21:39:52.988Z</time></trkpt><trkpt lat="39.4891932" lon="0.9929874"><ele>0.0</ele><time>2026-04-29T21:39:53.988Z</time></trkpt><trkpt lat="39.4892711" lon="0.9930383"><ele>0.0</ele><time>2026-04-29T21:39:54.989Z</time></trkpt><trkpt lat="39.4893449" lon="0.9930923"><ele>0.0</ele><time>2026-04-29T21:39:55.988Z</time></trkpt><trkpt lat="39.4894172" lon="0.9931551"><ele>0.0</ele><time>2026-04-29T21:39:56.988Z</time></trkpt><trkpt lat="39.4894888" lon="0.9932115"><ele>0.0</ele><time>2026-04-29T21:39:57.989Z</time></trkpt><trkpt lat="39.4896385" lon="0.9933196"><ele>0.0</ele><time>2026-04-29T21:39:59.988Z</time></trkpt><trkpt lat="39.4897122" lon="0.9933749"><ele>0.0</ele><time>2026-04-29T21:40:00.988Z</time></trkpt><trkpt lat="39.4897881" lon="0.9934238"><ele>0.0</ele><time>2026-04-29T21:40:01.988Z</time></trkpt><trkpt lat="39.489862" lon="0.9934737"><ele>0.0</ele><time>2026-04-29T21:40:02.988Z</time></trkpt><trkpt lat="39.4899356" lon="0.9935337"><ele>0.0</ele><time>2026-04-29T21:40:03.989Z</time></trkpt><trkpt lat="39.4900118" lon="0.9935895"><ele>0.0</ele><time>2026-04-29T21:40:04.988Z</time></trkpt><trkpt lat="39.4900841" lon="0.9936432"><ele>0.0</ele><time>2026-04-29T21:40:05.988Z</time></trkpt><trkpt lat="39.490157" lon="0.9936998"><ele>0.0</ele><time>2026-04-29T21:40:06.988Z</time></trkpt><trkpt lat="39.4902261" lon="0.9937506"><ele>0.0</ele><time>2026-04-29T21:40:07.989Z</time></trkpt><trkpt lat="39.4903854" lon="0.993853"><ele>0.0</ele><time>2026-04-29T21:40:09.988Z</time></trkpt><trkpt lat="39.4904675" lon="0.9939028"><ele>0.0</ele><time>2026-04-29T21:40:10.988Z</time></trkpt><trkpt lat="39.4905464" lon="0.993953"><ele>0.0</ele><time>2026-04-29T21:40:11.989Z</time></trkpt><trkpt lat="39.4906189" lon="0.9940048"><ele>0.0</ele><time>2026-04-29T21:40:12.988Z</time></trkpt><trkpt lat="39.4906933" lon="0.9940554"><ele>0.0</ele><time>2026-04-29T21:40:13.988Z</time></trkpt><trkpt lat="39.4907758" lon="0.9941123"><ele>0.0</ele><time>2026-04-29T21:40:14.989Z</time></trkpt><trkpt lat="39.4908536" lon="0.9941661"><ele>0.0</ele><time>2026-04-29T21:40:15.988Z</time></trkpt><trkpt lat="39.4909332" lon="0.9942127"><ele>0.0</ele><time>2026-04-29T21:40:16.989Z</time></trkpt><trkpt lat="39.4910084" lon="0.9942589"><ele>0.0</ele><time>2026-04-29T21:40:17.988Z</time></trkpt><trkpt lat="39.4910821" lon="0.9943096"><ele>0.0</ele><time>2026-04-29T21:40:18.988Z</time></trkpt><trkpt lat="39.4911596" lon="0.9943839"><ele>0.0</ele><time>2026-04-29T21:40:19.988Z</time></trkpt><trkpt lat="39.4912349" lon="0.9944381"><ele>0.0</ele><time>2026-04-29T21:40:20.988Z</time></trkpt><trkpt lat="39.4913058" lon="0.9944827"><ele>0.0</ele><time>2026-04-29T21:40:21.988Z</time></trkpt><trkpt lat="39.4913729" lon="0.9945359"><ele>0.0</ele><time>2026-04-29T21:40:22.989Z</time></trkpt><trkpt lat="39.4914453" lon="0.9945923"><ele>0.0</ele><time>2026-04-29T21:40:23.989Z</time></trkpt><trkpt lat="39.4915146" lon="0.9946552"><ele>0.0</ele><time>2026-04-29T21:40:24.988Z</time></trkpt><trkpt lat="39.4915886" lon="0.9947074"><ele>0.0</ele><time>2026-04-29T21:40:25.988Z</time></trkpt><trkpt lat="39.4916603" lon="0.9947586"><ele>0.0</ele><time>2026-04-29T21:40:26.988Z</time></trkpt><trkpt lat="39.4917391" lon="0.9948054"><ele>0.0</ele><time>2026-04-29T21:40:27.989Z</time></trkpt><trkpt lat="39.4918149" lon="0.9948553"><ele>0.0</ele><time>2026-04-29T21:40:28.989Z</time></trkpt><trkpt lat="39.4919002" lon="0.9949091"><ele>0.0</ele><time>2026-04-29T21:40:29.989Z</time></trkpt><trkpt lat="39.4921286" lon="0.9950678"><ele>0.0</ele><time>2026-04-29T21:40:32.988Z</time></trkpt><trkpt lat="39.4921935" lon="0.9951156"><ele>0.0</ele><time>2026-04-29T21:40:33.988Z</time></trkpt><trkpt lat="39.4922542" lon="0.9951554"><ele>0.0</ele><time>2026-04-29T21:40:34.988Z</time></trkpt><trkpt lat="39.4923256" lon="0.9951746"><ele>0.0</ele><time>2026-04-29T21:40:35.988Z</time></trkpt><trkpt lat="39.4924029" lon="0.9952421"><ele>0.0</ele><time>2026-04-29T21:40:36.989Z</time></trkpt><trkpt lat="39.4924812" lon="0.9952617"><ele>0.0</ele><time>2026-04-29T21:40:37.988Z</time></trkpt><trkpt lat="39.4925571" lon="0.9952993"><ele>0.0</ele><time>2026-04-29T21:40:38.989Z</time></trkpt><trkpt lat="39.4926346" lon="0.9953607"><ele>0.0</ele><time>2026-04-29T21:40:39.989Z</time></trkpt><trkpt lat="39.4927144" lon="0.9954035"><ele>0.0</ele><time>2026-04-29T21:40:40.988Z</time></trkpt><trkpt lat="39.4927943" lon="0.9954498"><ele>0.0</ele><time>2026-04-29T21:40:41.989Z</time></trkpt><trkpt lat="39.4928745" lon="0.9955062"><ele>0.0</ele><time>2026-04-29T21:40:42.989Z</time></trkpt><trkpt lat="39.4929598" lon="0.9955649"><ele>0.0</ele><time>2026-04-29T21:40:43.988Z</time></trkpt><trkpt lat="39.4930406" lon="0.9956428"><ele>0.0</ele><time>2026-04-29T21:40:44.988Z</time></trkpt><trkpt lat="39.4931123" lon="0.9956952"><ele>0.0</ele><time>2026-04-29T21:40:45.989Z</time></trkpt><trkpt lat="39.4931883" lon="0.9957606"><ele>0.0</ele><time>2026-04-29T21:40:46.989Z</time></trkpt><trkpt lat="39.4932566" lon="0.9957982"><ele>0.0</ele><time>2026-04-29T21:40:47.989Z</time></trkpt><trkpt lat="39.4933234" lon="0.9958431"><ele>0.0</ele><time>2026-04-29T21:40:48.989Z</time></trkpt><trkpt lat="39.4933954" lon="0.9958907"><ele>0.0</ele><time>2026-04-29T21:40:49.988Z</time></trkpt><trkpt lat="39.4934712" lon="0.9959436"><ele>0.0</ele><time>2026-04-29T21:40:50.988Z</time></trkpt><trkpt lat="39.4936214" lon="0.9960489"><ele>0.0</ele><time>2026-04-29T21:40:52.988Z</time></trkpt><trkpt lat="39.4936955" lon="0.9960912"><ele>0.0</ele><time>2026-04-29T21:40:53.989Z</time></trkpt><trkpt lat="39.4937688" lon="0.99613"><ele>0.0</ele><time>2026-04-29T21:40:54.988Z</time></trkpt><trkpt lat="39.4938435" lon="0.9961888"><ele>0.0</ele><time>2026-04-29T21:40:55.988Z</time></trkpt><trkpt lat="39.4939214" lon="0.9962419"><ele>0.0</ele><time>2026-04-29T21:40:56.988Z</time></trkpt><trkpt lat="39.4939982" lon="0.9962949"><ele>0.0</ele><time>2026-04-29T21:40:57.989Z</time></trkpt><trkpt lat="39.494076" lon="0.996355"><ele>0.0</ele><time>2026-04-29T21:40:58.989Z</time></trkpt><trkpt lat="39.4941559" lon="0.9964039"><ele>0.0</ele><time>2026-04-29T21:40:59.989Z</time></trkpt><trkpt lat="39.494236" lon="0.9964588"><ele>0.0</ele><time>2026-04-29T21:41:00.989Z</time></trkpt><trkpt lat="39.4943163" lon="0.9965227"><ele>0.0</ele><time>2026-04-29T21:41:01.989Z</time></trkpt><trkpt lat="39.4943976" lon="0.9965766"><ele>0.0</ele><time>2026-04-29T21:41:02.988Z</time></trkpt><trkpt lat="39.4944804" lon="0.9966309"><ele>0.0</ele><time>2026-04-29T21:41:03.989Z</time></trkpt><trkpt lat="39.4945583" lon="0.996686"><ele>0.0</ele><time>2026-04-29T21:41:04.989Z</time></trkpt><trkpt lat="39.4946297" lon="0.9967327"><ele>0.0</ele><time>2026-04-29T21:41:05.988Z</time></trkpt><trkpt lat="39.4946993" lon="0.9967891"><ele>0.0</ele><time>2026-04-29T21:41:06.989Z</time></trkpt><trkpt lat="39.4947721" lon="0.9968471"><ele>0.0</ele><time>2026-04-29T21:41:07.989Z</time></trkpt><trkpt lat="39.494851" lon="0.9968984"><ele>0.0</ele><time>2026-04-29T21:41:08.988Z</time></trkpt><trkpt lat="39.4949249" lon="0.9969558"><ele>0.0</ele><time>2026-04-29T21:41:09.988Z</time></trkpt><trkpt lat="39.4949969" lon="0.9970055"><ele>0.0</ele><time>2026-04-29T21:41:10.988Z</time></trkpt><trkpt lat="39.4950733" lon="0.9970576"><ele>0.0</ele><time>2026-04-29T21:41:11.989Z</time></trkpt><trkpt lat="39.4952264" lon="0.9971661"><ele>0.0</ele><time>2026-04-29T21:41:13.989Z</time></trkpt><trkpt lat="39.4953018" lon="0.997211"><ele>0.0</ele><time>2026-04-29T21:41:14.989Z</time></trkpt><trkpt lat="39.4953729" lon="0.9972615"><ele>0.0</ele><time>2026-04-29T21:41:15.989Z</time></trkpt><trkpt lat="39.4954514" lon="0.9973131"><ele>0.0</ele><time>2026-04-29T21:41:16.988Z</time></trkpt><trkpt lat="39.495531" lon="0.997371"><ele>0.0</ele><time>2026-04-29T21:41:17.988Z</time></trkpt><trkpt lat="39.495604" lon="0.9974276"><ele>0.0</ele><time>2026-04-29T21:41:18.989Z</time></trkpt><trkpt lat="39.4956769" lon="0.9974858"><ele>0.0</ele><time>2026-04-29T21:41:19.988Z</time></trkpt><trkpt lat="39.495752" lon="0.997538"><ele>0.0</ele><time>2026-04-29T21:41:20.988Z</time></trkpt><trkpt lat="39.4958252" lon="0.997591"><ele>0.0</ele><time>2026-04-29T21:41:21.989Z</time></trkpt><trkpt lat="39.4958943" lon="0.9976443"><ele>0.0</ele><time>2026-04-29T21:41:22.988Z</time></trkpt><trkpt lat="39.4959672" lon="0.9976934"><ele>0.0</ele><time>2026-04-29T21:41:23.989Z</time></trkpt><trkpt lat="39.4960422" lon="0.9977398"><ele>0.0</ele><time>2026-04-29T21:41:24.989Z</time></trkpt><trkpt lat="39.496114" lon="0.9977978"><ele>0.0</ele><time>2026-04-29T21:41:25.988Z</time></trkpt><trkpt lat="39.4961896" lon="0.9978542"><ele>0.0</ele><time>2026-04-29T21:41:26.988Z</time></trkpt><trkpt lat="39.4962734" lon="0.9979051"><ele>0.0</ele><time>2026-04-29T21:41:27.989Z</time></trkpt><trkpt lat="39.4963485" lon="0.9979565"><ele>0.0</ele><time>2026-04-29T21:41:28.988Z</time></trkpt><trkpt lat="39.4964278" lon="0.9980244"><ele>0.0</ele><time>2026-04-29T21:41:29.988Z</time></trkpt><trkpt lat="39.4965036" lon="0.9980807"><ele>0.0</ele><time>2026-04-29T21:41:30.988Z</time></trkpt><trkpt lat="39.4965872" lon="0.9981461"><ele>0.0</ele><time>2026-04-29T21:41:31.988Z</time></trkpt><trkpt lat="39.4966575" lon="0.9982242"><ele>0.0</ele><time>2026-04-29T21:41:32.988Z</time></trkpt><trkpt lat="39.4967327" lon="0.9982895"><ele>0.0</ele><time>2026-04-29T21:41:33.989Z</time></trkpt><trkpt lat="39.4968765" lon="0.998392"><ele>0.0</ele><time>2026-04-29T21:41:35.989Z</time></trkpt><trkpt lat="39.496953" lon="0.9984463"><ele>0.0</ele><time>2026-04-29T21:41:36.988Z</time></trkpt><trkpt lat="39.4970269" lon="0.9985014"><ele>0.0</ele><time>2026-04-29T21:41:37.988Z</time></trkpt><trkpt lat="39.4971016" lon="0.9985525"><ele>0.0</ele><time>2026-04-29T21:41:38.988Z</time></trkpt><trkpt lat="39.4971821" lon="0.9986093"><ele>0.0</ele><time>2026-04-29T21:41:39.988Z</time></trkpt><trkpt lat="39.4972626" lon="0.9986595"><ele>0.0</ele><time>2026-04-29T21:41:40.989Z</time></trkpt><trkpt lat="39.4973312" lon="0.9986803"><ele>0.0</ele><time>2026-04-29T21:41:41.989Z</time></trkpt><trkpt lat="39.497401" lon="0.9987145"><ele>0.0</ele><time>2026-04-29T21:41:42.989Z</time></trkpt><trkpt lat="39.4974653" lon="0.9987692"><ele>0.0</ele><time>2026-04-29T21:41:43.989Z</time></trkpt><trkpt lat="39.4975483" lon="0.9988061"><ele>0.0</ele><time>2026-04-29T21:41:44.989Z</time></trkpt><trkpt lat="39.4976275" lon="0.9988593"><ele>0.0</ele><time>2026-04-29T21:41:45.988Z</time></trkpt><trkpt lat="39.4977009" lon="0.9989113"><ele>0.0</ele><time>2026-04-29T21:41:46.988Z</time></trkpt><trkpt lat="39.4977782" lon="0.998966"><ele>0.0</ele><time>2026-04-29T21:41:47.988Z</time></trkpt><trkpt lat="39.4978503" lon="0.9990167"><ele>0.0</ele><time>2026-04-29T21:41:48.988Z</time></trkpt><trkpt lat="39.4979234" lon="0.9990696"><ele>0.0</ele><time>2026-04-29T21:41:49.988Z</time></trkpt><trkpt lat="39.4980009" lon="0.9991242"><ele>0.0</ele><time>2026-04-29T21:41:50.988Z</time></trkpt><trkpt lat="39.4980722" lon="0.9991733"><ele>0.0</ele><time>2026-04-29T21:41:51.989Z</time></trkpt><trkpt lat="39.4981465" lon="0.999233"><ele>0.0</ele><time>2026-04-29T21:41:52.988Z</time></trkpt><trkpt lat="39.4982159" lon="0.9992795"><ele>0.0</ele><time>2026-04-29T21:41:53.988Z</time></trkpt><trkpt lat="39.4982916" lon="0.9993317"><ele>0.0</ele><time>2026-04-29T21:41:54.989Z</time></trkpt><trkpt lat="39.4984461" lon="0.999439"><ele>0.0</ele><time>2026-04-29T21:41:56.988Z</time></trkpt><trkpt lat="39.4985202" lon="0.9994958"><ele>0.0</ele><time>2026-04-29T21:41:57.989Z</time></trkpt><trkpt lat="39.4985916" lon="0.9995526"><ele>0.0</ele><time>2026-04-29T21:41:58.988Z</time></trkpt><trkpt lat="39.4986691" lon="0.999612"><ele>0.0</ele><time>2026-04-29T21:41:59.989Z</time></trkpt><trkpt lat="39.4987351" lon="0.9996398"><ele>0.0</ele><time>2026-04-29T21:42:00.989Z</time></trkpt><trkpt lat="39.4988127" lon="0.9996857"><ele>0.0</ele><time>2026-04-29T21:42:01.988Z</time></trkpt><trkpt lat="39.4988954" lon="0.9997424"><ele>0.0</ele><time>2026-04-29T21:42:02.988Z</time></trkpt><trkpt lat="39.4989745" lon="0.9998007"><ele>0.0</ele><time>2026-04-29T21:42:03.988Z</time></trkpt><trkpt lat="39.4990514" lon="0.9998543"><ele>0.0</ele><time>2026-04-29T21:42:04.989Z</time></trkpt><trkpt lat="39.4991279" lon="0.9999062"><ele>0.0</ele><time>2026-04-29T21:42:05.989Z</time></trkpt><trkpt lat="39.4992091" lon="0.9999591"><ele>0.0</ele><time>2026-04-29T21:42:06.989Z</time></trkpt><trkpt lat="39.4992878" lon="1.0000127"><ele>0.0</ele><time>2026-04-29T21:42:07.988Z</time></trkpt><trkpt lat="39.4993606" lon="1.0000651"><ele>0.0</ele><time>2026-04-29T21:42:08.989Z</time></trkpt><trkpt lat="39.499429" lon="1.0001138"><ele>0.0</ele><time>2026-04-29T21:42:09.988Z</time></trkpt><trkpt lat="39.4995019" lon="1.0001692"><ele>0.0</ele><time>2026-04-29T21:42:10.989Z</time></trkpt><trkpt lat="39.4995768" lon="1.0002198"><ele>0.0</ele><time>2026-04-29T21:42:11.989Z</time></trkpt><trkpt lat="39.4996562" lon="1.0002709"><ele>0.0</ele><time>2026-04-29T21:42:12.988Z</time></trkpt><trkpt lat="39.4997287" lon="1.000328"><ele>0.0</ele><time>2026-04-29T21:42:13.988Z</time></trkpt><trkpt lat="39.4998001" lon="1.0003806"><ele>0.0</ele><time>2026-04-29T21:42:14.988Z</time></trkpt><trkpt lat="39.4998703" lon="1.0004286"><ele>0.0</ele><time>2026-04-29T21:42:15.988Z</time></trkpt><trkpt lat="39.5000273" lon="1.0005372"><ele>0.0</ele><time>2026-04-29T21:42:17.989Z</time></trkpt><trkpt lat="39.500109" lon="1.0005924"><ele>0.0</ele><time>2026-04-29T21:42:18.989Z</time></trkpt><trkpt lat="39.5001865" lon="1.0006447"><ele>0.0</ele><time>2026-04-29T21:42:19.988Z</time></trkpt><trkpt lat="39.5002617" lon="1.0006963"><ele>0.0</ele><time>2026-04-29T21:42:20.988Z</time></trkpt><trkpt lat="39.5003326" lon="1.0007427"><ele>0.0</ele><time>2026-04-29T21:42:21.989Z</time></trkpt><trkpt lat="39.5004071" lon="1.000792"><ele>0.0</ele><time>2026-04-29T21:42:22.989Z</time></trkpt><trkpt lat="39.5004767" lon="1.0008376"><ele>0.0</ele><time>2026-04-29T21:42:23.989Z</time></trkpt><trkpt lat="39.5005476" lon="1.0008885"><ele>0.0</ele><time>2026-04-29T21:42:24.988Z</time></trkpt><trkpt lat="39.5006189" lon="1.0009449"><ele>0.0</ele><time>2026-04-29T21:42:25.988Z</time></trkpt><trkpt lat="39.5006904" lon="1.0009972"><ele>0.0</ele><time>2026-04-29T21:42:26.988Z</time></trkpt><trkpt lat="39.5007646" lon="1.0010478"><ele>0.0</ele><time>2026-04-29T21:42:27.988Z</time></trkpt><trkpt lat="39.5008439" lon="1.0010994"><ele>0.0</ele><time>2026-04-29T21:42:28.989Z</time></trkpt><trkpt lat="39.5009267" lon="1.001154"><ele>0.0</ele><time>2026-04-29T21:42:29.988Z</time></trkpt><trkpt lat="39.5010071" lon="1.0012106"><ele>0.0</ele><time>2026-04-29T21:42:30.989Z</time></trkpt><trkpt lat="39.5010775" lon="1.0012576"><ele>0.0</ele><time>2026-04-29T21:42:31.988Z</time></trkpt><trkpt lat="39.5011532" lon="1.0013099"><ele>0.0</ele><time>2026-04-29T21:42:32.988Z</time></trkpt><trkpt lat="39.5012293" lon="1.0013642"><ele>0.0</ele><time>2026-04-29T21:42:33.988Z</time></trkpt><trkpt lat="39.501312" lon="1.0014191"><ele>0.0</ele><time>2026-04-29T21:42:34.988Z</time></trkpt><trkpt lat="39.50139" lon="1.0014715"><ele>0.0</ele><time>2026-04-29T21:42:35.989Z</time></trkpt><trkpt lat="39.5014639" lon="1.0015235"><ele>0.0</ele><time>2026-04-29T21:42:36.989Z</time></trkpt><trkpt lat="39.501547" lon="1.0015903"><ele>0.0</ele><time>2026-04-29T21:42:37.989Z</time></trkpt><trkpt lat="39.5016936" lon="1.0016932"><ele>0.0</ele><time>2026-04-29T21:42:39.989Z</time></trkpt><trkpt lat="39.501774" lon="1.0017506"><ele>0.0</ele><time>2026-04-29T21:42:40.988Z</time></trkpt><trkpt lat="39.5018512" lon="1.001813"><ele>0.0</ele><time>2026-04-29T21:42:41.988Z</time></trkpt><trkpt lat="39.5019269" lon="1.0018832"><ele>0.0</ele><time>2026-04-29T21:42:42.988Z</time></trkpt><trkpt lat="39.5020019" lon="1.0019509"><ele>0.0</ele><time>2026-04-29T21:42:43.989Z</time></trkpt><trkpt lat="39.5020767" lon="1.0020092"><ele>0.0</ele><time>2026-04-29T21:42:44.989Z</time></trkpt><trkpt lat="39.5021541" lon="1.0020655"><ele>0.0</ele><time>2026-04-29T21:42:45.988Z</time></trkpt><trkpt lat="39.5022296" lon="1.0021194"><ele>0.0</ele><time>2026-04-29T21:42:46.988Z</time></trkpt><trkpt lat="39.5023036" lon="1.0021702"><ele>0.0</ele><time>2026-04-29T21:42:47.988Z</time></trkpt><trkpt lat="39.5023756" lon="1.0022218"><ele>0.0</ele><time>2026-04-29T21:42:48.988Z</time></trkpt><trkpt lat="39.5024543" lon="1.0022793"><ele>0.0</ele><time>2026-04-29T21:42:49.988Z</time></trkpt><trkpt lat="39.5025284" lon="1.0023354"><ele>0.0</ele><time>2026-04-29T21:42:50.989Z</time></trkpt><trkpt lat="39.5026021" lon="1.0023804"><ele>0.0</ele><time>2026-04-29T21:42:51.989Z</time></trkpt><trkpt lat="39.5026781" lon="1.002423"><ele>0.0</ele><time>2026-04-29T21:42:52.988Z</time></trkpt><trkpt lat="39.5027562" lon="1.0024701"><ele>0.0</ele><time>2026-04-29T21:42:53.989Z</time></trkpt><trkpt lat="39.5028347" lon="1.0025198"><ele>0.0</ele><time>2026-04-29T21:42:54.989Z</time></trkpt><trkpt lat="39.5029189" lon="1.0025772"><ele>0.0</ele><time>2026-04-29T21:42:55.988Z</time></trkpt><trkpt lat="39.5030039" lon="1.0026355"><ele>0.0</ele><time>2026-04-29T21:42:56.988Z</time></trkpt><trkpt lat="39.5030746" lon="1.002692"><ele>0.0</ele><time>2026-04-29T21:42:57.989Z</time></trkpt><trkpt lat="39.5031444" lon="1.0027474"><ele>0.0</ele><time>2026-04-29T21:42:58.988Z</time></trkpt><trkpt lat="39.5032979" lon="1.0028477"><ele>0.0</ele><time>2026-04-29T21:43:00.988Z</time></trkpt><trkpt lat="39.5033763" lon="1.0029135"><ele>0.0</ele><time>2026-04-29T21:43:01.989Z</time></trkpt><trkpt lat="39.5034519" lon="1.0029709"><ele>0.0</ele><time>2026-04-29T21:43:02.989Z</time></trkpt><trkpt lat="39.5035285" lon="1.0030249"><ele>0.0</ele><time>2026-04-29T21:43:03.989Z</time></trkpt><trkpt lat="39.5036054" lon="1.0030778"><ele>0.0</ele><time>2026-04-29T21:43:04.988Z</time></trkpt><trkpt lat="39.5036806" lon="1.0031317"><ele>0.0</ele><time>2026-04-29T21:43:05.989Z</time></trkpt><trkpt lat="39.5037525" lon="1.0031832"><ele>0.0</ele><time>2026-04-29T21:43:06.987Z</time></trkpt><trkpt lat="39.5038224" lon="1.0032373"><ele>0.0</ele><time>2026-04-29T21:43:07.987Z</time></trkpt><trkpt lat="39.5038952" lon="1.0032866"><ele>0.0</ele><time>2026-04-29T21:43:08.987Z</time></trkpt><trkpt lat="39.5039727" lon="1.0033287"><ele>0.0</ele><time>2026-04-29T21:43:09.987Z</time></trkpt><trkpt lat="39.50405" lon="1.0033786"><ele>0.0</ele><time>2026-04-29T21:43:10.987Z</time></trkpt><trkpt lat="39.504121" lon="1.0034267"><ele>0.0</ele><time>2026-04-29T21:43:11.988Z</time></trkpt><trkpt lat="39.5041995" lon="1.0034795"><ele>0.0</ele><time>2026-04-29T21:43:12.987Z</time></trkpt><trkpt lat="39.5042723" lon="1.0035269"><ele>0.0</ele><time>2026-04-29T21:43:13.988Z</time></trkpt><trkpt lat="39.5043512" lon="1.0035768"><ele>0.0</ele><time>2026-04-29T21:43:14.988Z</time></trkpt><trkpt lat="39.504431" lon="1.0036309"><ele>0.0</ele><time>2026-04-29T21:43:15.988Z</time></trkpt><trkpt lat="39.5045052" lon="1.0036798"><ele>0.0</ele><time>2026-04-29T21:43:16.987Z</time></trkpt><trkpt lat="39.5045772" lon="1.0037271"><ele>0.0</ele><time>2026-04-29T21:43:17.987Z</time></trkpt><trkpt lat="39.5046517" lon="1.0037801"><ele>0.0</ele><time>2026-04-29T21:43:18.988Z</time></trkpt><trkpt lat="39.5047251" lon="1.0038251"><ele>0.0</ele><time>2026-04-29T21:43:19.987Z</time></trkpt><trkpt lat="39.5048749" lon="1.0039233"><ele>0.0</ele><time>2026-04-29T21:43:21.988Z</time></trkpt><trkpt lat="39.5049555" lon="1.0039754"><ele>0.0</ele><time>2026-04-29T21:43:22.988Z</time></trkpt><trkpt lat="39.5050403" lon="1.0040321"><ele>0.0</ele><time>2026-04-29T21:43:23.987Z</time></trkpt><trkpt lat="39.505118" lon="1.0040942"><ele>0.0</ele><time>2026-04-29T21:43:24.987Z</time></trkpt><trkpt lat="39.5051953" lon="1.0041579"><ele>0.0</ele><time>2026-04-29T21:43:25.987Z</time></trkpt><trkpt lat="39.5052688" lon="1.0042259"><ele>0.0</ele><time>2026-04-29T21:43:26.987Z</time></trkpt><trkpt lat="39.5053435" lon="1.0042935"><ele>0.0</ele><time>2026-04-29T21:43:27.988Z</time></trkpt><trkpt lat="39.5054184" lon="1.004356"><ele>0.0</ele><time>2026-04-29T21:43:28.987Z</time></trkpt><trkpt lat="39.5054893" lon="1.0044087"><ele>0.0</ele><time>2026-04-29T21:43:29.987Z</time></trkpt><trkpt lat="39.5055594" lon="1.004462"><ele>0.0</ele><time>2026-04-29T21:43:30.987Z</time></trkpt><trkpt lat="39.5056308" lon="1.004518"><ele>0.0</ele><time>2026-04-29T21:43:31.987Z</time></trkpt><trkpt lat="39.5057022" lon="1.0045748"><ele>0.0</ele><time>2026-04-29T21:43:32.988Z</time></trkpt><trkpt lat="39.5057736" lon="1.004632"><ele>0.0</ele><time>2026-04-29T21:43:33.987Z</time></trkpt><trkpt lat="39.5058478" lon="1.0046865"><ele>0.0</ele><time>2026-04-29T21:43:34.988Z</time></trkpt><trkpt lat="39.5059229" lon="1.0047381"><ele>0.0</ele><time>2026-04-29T21:43:35.987Z</time></trkpt><trkpt lat="39.5059982" lon="1.0047836"><ele>0.0</ele><time>2026-04-29T21:43:36.988Z</time></trkpt><trkpt lat="39.5060723" lon="1.0048321"><ele>0.0</ele><time>2026-04-29T21:43:37.988Z</time></trkpt><trkpt lat="39.5061397" lon="1.0048775"><ele>0.0</ele><time>2026-04-29T21:43:38.987Z</time></trkpt><trkpt lat="39.5062076" lon="1.0049254"><ele>0.0</ele><time>2026-04-29T21:43:39.987Z</time></trkpt><trkpt lat="39.5062789" lon="1.0049795"><ele>0.0</ele><time>2026-04-29T21:43:40.988Z</time></trkpt><trkpt lat="39.5063521" lon="1.005033"><ele>0.0</ele><time>2026-04-29T21:43:41.987Z</time></trkpt><trkpt lat="39.5065096" lon="1.0051523"><ele>0.0</ele><time>2026-04-29T21:43:43.988Z</time></trkpt><trkpt lat="39.5065893" lon="1.0052141"><ele>0.0</ele><time>2026-04-29T21:43:44.988Z</time></trkpt><trkpt lat="39.5066692" lon="1.0052686"><ele>0.0</ele><time>2026-04-29T21:43:45.987Z</time></trkpt><trkpt lat="39.5067463" lon="1.005326"><ele>0.0</ele><time>2026-04-29T21:43:46.987Z</time></trkpt><trkpt lat="39.5068201" lon="1.0053799"><ele>0.0</ele><time>2026-04-29T21:43:47.987Z</time></trkpt><trkpt lat="39.5068891" lon="1.0054237"><ele>0.0</ele><time>2026-04-29T21:43:48.988Z</time></trkpt><trkpt lat="39.5069565" lon="1.0054698"><ele>0.0</ele><time>2026-04-29T21:43:49.988Z</time></trkpt><trkpt lat="39.5070222" lon="1.0055107"><ele>0.0</ele><time>2026-04-29T21:43:50.987Z</time></trkpt><trkpt lat="39.5071026" lon="1.0055532"><ele>0.0</ele><time>2026-04-29T21:43:51.988Z</time></trkpt><trkpt lat="39.5071783" lon="1.0055893"><ele>0.0</ele><time>2026-04-29T21:43:52.987Z</time></trkpt><trkpt lat="39.5072589" lon="1.005639"><ele>0.0</ele><time>2026-04-29T21:43:53.987Z</time></trkpt><trkpt lat="39.5073391" lon="1.0056916"><ele>0.0</ele><time>2026-04-29T21:43:54.987Z</time></trkpt><trkpt lat="39.5074195" lon="1.0057446"><ele>0.0</ele><time>2026-04-29T21:43:55.988Z</time></trkpt><trkpt lat="39.5074867" lon="1.0057863"><ele>0.0</ele><time>2026-04-29T21:43:56.987Z</time></trkpt><trkpt lat="39.5075645" lon="1.0058382"><ele>0.0</ele><time>2026-04-29T21:43:57.987Z</time></trkpt><trkpt lat="39.50764" lon="1.0058869"><ele>0.0</ele><time>2026-04-29T21:43:58.988Z</time></trkpt><trkpt lat="39.5077135" lon="1.005934"><ele>0.0</ele><time>2026-04-29T21:43:59.987Z</time></trkpt><trkpt lat="39.5077925" lon="1.0059847"><ele>0.0</ele><time>2026-04-29T21:44:00.987Z</time></trkpt><trkpt lat="39.507871" lon="1.0060204"><ele>0.0</ele><time>2026-04-29T21:44:01.987Z</time></trkpt><trkpt lat="39.5079509" lon="1.0060708"><ele>0.0</ele><time>2026-04-29T21:44:02.987Z</time></trkpt><trkpt lat="39.5081052" lon="1.0061931"><ele>0.0</ele><time>2026-04-29T21:44:04.987Z</time></trkpt><trkpt lat="39.5081833" lon="1.0062461"><ele>0.0</ele><time>2026-04-29T21:44:05.987Z</time></trkpt><trkpt lat="39.5082574" lon="1.0062979"><ele>0.0</ele><time>2026-04-29T21:44:06.987Z</time></trkpt><trkpt lat="39.5083293" lon="1.0063484"><ele>0.0</ele><time>2026-04-29T21:44:07.987Z</time></trkpt><trkpt lat="39.5084024" lon="1.0063981"><ele>0.0</ele><time>2026-04-29T21:44:08.987Z</time></trkpt><trkpt lat="39.508484" lon="1.0064522"><ele>0.0</ele><time>2026-04-29T21:44:09.988Z</time></trkpt><trkpt lat="39.5085728" lon="1.0065131"><ele>0.0</ele><time>2026-04-29T21:44:10.987Z</time></trkpt><trkpt lat="39.508647" lon="1.0065785"><ele>0.0</ele><time>2026-04-29T21:44:11.987Z</time></trkpt><trkpt lat="39.5087185" lon="1.0066326"><ele>0.0</ele><time>2026-04-29T21:44:12.988Z</time></trkpt><trkpt lat="39.5087919" lon="1.0066848"><ele>0.0</ele><time>2026-04-29T21:44:13.987Z</time></trkpt><trkpt lat="39.5088682" lon="1.0067381"><ele>0.0</ele><time>2026-04-29T21:44:14.987Z</time></trkpt><trkpt lat="39.5089475" lon="1.0067914"><ele>0.0</ele><time>2026-04-29T21:44:15.987Z</time></trkpt><trkpt lat="39.5090307" lon="1.0068447"><ele>0.0</ele><time>2026-04-29T21:44:16.987Z</time></trkpt><trkpt lat="39.5091096" lon="1.0068926"><ele>0.0</ele><time>2026-04-29T21:44:17.987Z</time></trkpt><trkpt lat="39.5091807" lon="1.0069378"><ele>0.0</ele><time>2026-04-29T21:44:18.987Z</time></trkpt><trkpt lat="39.5092578" lon="1.0069881"><ele>0.0</ele><time>2026-04-29T21:44:19.987Z</time></trkpt><trkpt lat="39.5093307" lon="1.0070522"><ele>0.0</ele><time>2026-04-29T21:44:20.987Z</time></trkpt><trkpt lat="39.5094029" lon="1.0071052"><ele>0.0</ele><time>2026-04-29T21:44:21.988Z</time></trkpt><trkpt lat="39.5094812" lon="1.0071627"><ele>0.0</ele><time>2026-04-29T21:44:22.987Z</time></trkpt><trkpt lat="39.5095555" lon="1.007212"><ele>0.0</ele><time>2026-04-29T21:44:23.988Z</time></trkpt><trkpt lat="39.5097035" lon="1.0073224"><ele>0.0</ele><time>2026-04-29T21:44:25.988Z</time></trkpt><trkpt lat="39.5097654" lon="1.0073631"><ele>0.0</ele><time>2026-04-29T21:44:26.988Z</time></trkpt><trkpt lat="39.5098484" lon="1.0074219"><ele>0.0</ele><time>2026-04-29T21:44:27.988Z</time></trkpt><trkpt lat="39.5099277" lon="1.007484"><ele>0.0</ele><time>2026-04-29T21:44:28.987Z</time></trkpt><trkpt lat="39.5100087" lon="1.0075413"><ele>0.0</ele><time>2026-04-29T21:44:29.987Z</time></trkpt><trkpt lat="39.510091" lon="1.0075993"><ele>0.0</ele><time>2026-04-29T21:44:30.988Z</time></trkpt><trkpt lat="39.5101539" lon="1.0076233"><ele>0.0</ele><time>2026-04-29T21:44:31.987Z</time></trkpt><trkpt lat="39.5102226" lon="1.0076686"><ele>0.0</ele><time>2026-04-29T21:44:32.987Z</time></trkpt><trkpt lat="39.5102996" lon="1.0077228"><ele>0.0</ele><time>2026-04-29T21:44:33.988Z</time></trkpt><trkpt lat="39.5103805" lon="1.0077822"><ele>0.0</ele><time>2026-04-29T21:44:34.988Z</time></trkpt><trkpt lat="39.5104607" lon="1.0078418"><ele>0.0</ele><time>2026-04-29T21:44:35.987Z</time></trkpt><trkpt lat="39.5105399" lon="1.0078966"><ele>0.0</ele><time>2026-04-29T21:44:36.987Z</time></trkpt><trkpt lat="39.5106134" lon="1.0079514"><ele>0.0</ele><time>2026-04-29T21:44:37.987Z</time></trkpt><trkpt lat="39.5106941" lon="1.0080121"><ele>0.0</ele><time>2026-04-29T21:44:38.987Z</time></trkpt><trkpt lat="39.5107674" lon="1.0080675"><ele>0.0</ele><time>2026-04-29T21:44:39.988Z</time></trkpt><trkpt lat="39.5108322" lon="1.0081353"><ele>0.0</ele><time>2026-04-29T21:44:40.988Z</time></trkpt><trkpt lat="39.5109055" lon="1.0082087"><ele>0.0</ele><time>2026-04-29T21:44:41.987Z</time></trkpt><trkpt lat="39.510973" lon="1.0082819"><ele>0.0</ele><time>2026-04-29T21:44:42.987Z</time></trkpt><trkpt lat="39.5110464" lon="1.0083424"><ele>0.0</ele><time>2026-04-29T21:44:43.987Z</time></trkpt><trkpt lat="39.51112" lon="1.0083968"><ele>0.0</ele><time>2026-04-29T21:44:44.987Z</time></trkpt><trkpt lat="39.5111922" lon="1.0084505"><ele>0.0</ele><time>2026-04-29T21:44:45.987Z</time></trkpt><trkpt lat="39.5113447" lon="1.0085615"><ele>0.0</ele><time>2026-04-29T21:44:47.988Z</time></trkpt><trkpt lat="39.5114173" lon="1.0086183"><ele>0.0</ele><time>2026-04-29T21:44:48.987Z</time></trkpt><trkpt lat="39.5114878" lon="1.0086674"><ele>0.0</ele><time>2026-04-29T21:44:49.987Z</time></trkpt><trkpt lat="39.511556" lon="1.0087189"><ele>0.0</ele><time>2026-04-29T21:44:50.987Z</time></trkpt><trkpt lat="39.51163" lon="1.0087715"><ele>0.0</ele><time>2026-04-29T21:44:51.988Z</time></trkpt><trkpt lat="39.5117051" lon="1.008822"><ele>0.0</ele><time>2026-04-29T21:44:52.988Z</time></trkpt><trkpt lat="39.5117875" lon="1.0088762"><ele>0.0</ele><time>2026-04-29T21:44:53.987Z</time></trkpt><trkpt lat="39.5118677" lon="1.0089323"><ele>0.0</ele><time>2026-04-29T21:44:54.987Z</time></trkpt><trkpt lat="39.511945" lon="1.0089819"><ele>0.0</ele><time>2026-04-29T21:44:55.987Z</time></trkpt><trkpt lat="39.512029" lon="1.0090327"><ele>0.0</ele><time>2026-04-29T21:44:56.988Z</time></trkpt><trkpt lat="39.5121122" lon="1.0090844"><ele>0.0</ele><time>2026-04-29T21:44:57.988Z</time></trkpt><trkpt lat="39.5121983" lon="1.0091378"><ele>0.0</ele><time>2026-04-29T21:44:58.987Z</time></trkpt><trkpt lat="39.5122778" lon="1.0091901"><ele>0.0</ele><time>2026-04-29T21:44:59.987Z</time></trkpt><trkpt lat="39.5123575" lon="1.009243"><ele>0.0</ele><time>2026-04-29T21:45:00.988Z</time></trkpt><trkpt lat="39.5124404" lon="1.0092848"><ele>0.0</ele><time>2026-04-29T21:45:01.987Z</time></trkpt><trkpt lat="39.5125199" lon="1.0093368"><ele>0.0</ele><time>2026-04-29T21:45:02.988Z</time></trkpt><trkpt lat="39.5125954" lon="1.0093869"><ele>0.0</ele><time>2026-04-29T21:45:03.988Z</time></trkpt><trkpt lat="39.5126685" lon="1.0094408"><ele>0.0</ele><time>2026-04-29T21:45:04.988Z</time></trkpt><trkpt lat="39.5127418" lon="1.0094934"><ele>0.0</ele><time>2026-04-29T21:45:05.988Z</time></trkpt><trkpt lat="39.5128151" lon="1.0095452"><ele>0.0</ele><time>2026-04-29T21:45:06.988Z</time></trkpt><trkpt lat="39.5129534" lon="1.0096526"><ele>0.0</ele><time>2026-04-29T21:45:08.987Z</time></trkpt><trkpt lat="39.5130254" lon="1.0097151"><ele>0.0</ele><time>2026-04-29T21:45:09.987Z</time></trkpt><trkpt lat="39.5131002" lon="1.0097727"><ele>0.0</ele><time>2026-04-29T21:45:10.988Z</time></trkpt><trkpt lat="39.5131724" lon="1.0098253"><ele>0.0</ele><time>2026-04-29T21:45:11.987Z</time></trkpt><trkpt lat="39.5132482" lon="1.009881"><ele>0.0</ele><time>2026-04-29T21:45:12.988Z</time></trkpt><trkpt lat="39.513315" lon="1.0099352"><ele>0.0</ele><time>2026-04-29T21:45:13.987Z</time></trkpt><trkpt lat="39.5133813" lon="1.0099889"><ele>0.0</ele><time>2026-04-29T21:45:14.987Z</time></trkpt><trkpt lat="39.5134536" lon="1.0100449"><ele>0.0</ele><time>2026-04-29T21:45:15.987Z</time></trkpt><trkpt lat="39.5135282" lon="1.0100983"><ele>0.0</ele><time>2026-04-29T21:45:16.987Z</time></trkpt><trkpt lat="39.513603" lon="1.0101529"><ele>0.0</ele><time>2026-04-29T21:45:17.987Z</time></trkpt><trkpt lat="39.5137527" lon="1.0102825"><ele>0.0</ele><time>2026-04-29T21:45:19.987Z</time></trkpt><trkpt lat="39.5138271" lon="1.01034"><ele>0.0</ele><time>2026-04-29T21:45:20.988Z</time></trkpt><trkpt lat="39.5139006" lon="1.0103936"><ele>0.0</ele><time>2026-04-29T21:45:21.987Z</time></trkpt><trkpt lat="39.5139735" lon="1.0104468"><ele>0.0</ele><time>2026-04-29T21:45:22.988Z</time></trkpt><trkpt lat="39.5140437" lon="1.0105061"><ele>0.0</ele><time>2026-04-29T21:45:23.988Z</time></trkpt><trkpt lat="39.5141152" lon="1.0105745"><ele>0.0</ele><time>2026-04-29T21:45:24.988Z</time></trkpt><trkpt lat="39.5141828" lon="1.0106289"><ele>0.0</ele><time>2026-04-29T21:45:25.988Z</time></trkpt><trkpt lat="39.5142569" lon="1.010679"><ele>0.0</ele><time>2026-04-29T21:45:26.987Z</time></trkpt><trkpt lat="39.5143272" lon="1.0107223"><ele>0.0</ele><time>2026-04-29T21:45:27.988Z</time></trkpt><trkpt lat="39.5144818" lon="1.0108163"><ele>0.0</ele><time>2026-04-29T21:45:29.987Z</time></trkpt><trkpt lat="39.5145652" lon="1.0108683"><ele>0.0</ele><time>2026-04-29T21:45:30.987Z</time></trkpt><trkpt lat="39.5146386" lon="1.0109158"><ele>0.0</ele><time>2026-04-29T21:45:31.988Z</time></trkpt><trkpt lat="39.5147148" lon="1.0109668"><ele>0.0</ele><time>2026-04-29T21:45:32.987Z</time></trkpt><trkpt lat="39.51479" lon="1.0110156"><ele>0.0</ele><time>2026-04-29T21:45:33.988Z</time></trkpt><trkpt lat="39.5148649" lon="1.0110667"><ele>0.0</ele><time>2026-04-29T21:45:34.988Z</time></trkpt><trkpt lat="39.5149416" lon="1.0111185"><ele>0.0</ele><time>2026-04-29T21:45:35.988Z</time></trkpt><trkpt lat="39.5150113" lon="1.0111645"><ele>0.0</ele><time>2026-04-29T21:45:36.988Z</time></trkpt><trkpt lat="39.5150911" lon="1.0112112"><ele>0.0</ele><time>2026-04-29T21:45:37.987Z</time></trkpt><trkpt lat="39.5151677" lon="1.0112577"><ele>0.0</ele><time>2026-04-29T21:45:38.987Z</time></trkpt><trkpt lat="39.5152435" lon="1.0113123"><ele>0.0</ele><time>2026-04-29T21:45:39.988Z</time></trkpt><trkpt lat="39.5153187" lon="1.011369"><ele>0.0</ele><time>2026-04-29T21:45:40.987Z</time></trkpt><trkpt lat="39.515395" lon="1.0114417"><ele>0.0</ele><time>2026-04-29T21:45:41.988Z</time></trkpt><trkpt lat="39.5154714" lon="1.0115049"><ele>0.0</ele><time>2026-04-29T21:45:42.987Z</time></trkpt><trkpt lat="39.515547" lon="1.0115594"><ele>0.0</ele><time>2026-04-29T21:45:43.987Z</time></trkpt><trkpt lat="39.5156231" lon="1.0116144"><ele>0.0</ele><time>2026-04-29T21:45:44.987Z</time></trkpt><trkpt lat="39.5157013" lon="1.0116695"><ele>0.0</ele><time>2026-04-29T21:45:45.987Z</time></trkpt><trkpt lat="39.5157798" lon="1.0117229"><ele>0.0</ele><time>2026-04-29T21:45:46.987Z</time></trkpt><trkpt lat="39.5158571" lon="1.0117782"><ele>0.0</ele><time>2026-04-29T21:45:47.988Z</time></trkpt><trkpt lat="39.5159376" lon="1.0118327"><ele>0.0</ele><time>2026-04-29T21:45:48.988Z</time></trkpt><trkpt lat="39.5160208" lon="1.011874"><ele>0.0</ele><time>2026-04-29T21:45:49.987Z</time></trkpt><trkpt lat="39.5161643" lon="1.0119634"><ele>0.0</ele><time>2026-04-29T21:45:51.988Z</time></trkpt><trkpt lat="39.5162386" lon="1.0120169"><ele>0.0</ele><time>2026-04-29T21:45:52.987Z</time></trkpt><trkpt lat="39.5163162" lon="1.0120746"><ele>0.0</ele><time>2026-04-29T21:45:53.987Z</time></trkpt><trkpt lat="39.5163918" lon="1.0121285"><ele>0.0</ele><time>2026-04-29T21:45:54.987Z</time></trkpt><trkpt lat="39.5164667" lon="1.0121863"><ele>0.0</ele><time>2026-04-29T21:45:55.988Z</time></trkpt><trkpt lat="39.5165418" lon="1.0122429"><ele>0.0</ele><time>2026-04-29T21:45:56.987Z</time></trkpt><trkpt lat="39.5166151" lon="1.0123"><ele>0.0</ele><time>2026-04-29T21:45:57.988Z</time></trkpt><trkpt lat="39.51669" lon="1.0123509"><ele>0.0</ele><time>2026-04-29T21:45:58.988Z</time></trkpt><trkpt lat="39.5167679" lon="1.0124022"><ele>0.0</ele><time>2026-04-29T21:45:59.988Z</time></trkpt><trkpt lat="39.5168437" lon="1.0124542"><ele>0.0</ele><time>2026-04-29T21:46:00.988Z</time></trkpt><trkpt lat="39.5169173" lon="1.012498"><ele>0.0</ele><time>2026-04-29T21:46:01.987Z</time></trkpt><trkpt lat="39.5169946" lon="1.01255"><ele>0.0</ele><time>2026-04-29T21:46:02.987Z</time></trkpt><trkpt lat="39.5170674" lon="1.0126022"><ele>0.0</ele><time>2026-04-29T21:46:03.987Z</time></trkpt><trkpt lat="39.517147" lon="1.0126541"><ele>0.0</ele><time>2026-04-29T21:46:04.987Z</time></trkpt><trkpt lat="39.5172273" lon="1.0127124"><ele>0.0</ele><time>2026-04-29T21:46:05.987Z</time></trkpt><trkpt lat="39.5173048" lon="1.0127693"><ele>0.0</ele><time>2026-04-29T21:46:06.987Z</time></trkpt><trkpt lat="39.5173844" lon="1.0128294"><ele>0.0</ele><time>2026-04-29T21:46:07.987Z</time></trkpt><trkpt lat="39.5174587" lon="1.0128849"><ele>0.0</ele><time>2026-04-29T21:46:08.987Z</time></trkpt><trkpt lat="39.5175302" lon="1.0129372"><ele>0.0</ele><time>2026-04-29T21:46:09.987Z</time></trkpt><trkpt lat="39.5175999" lon="1.0129883"><ele>0.0</ele><time>2026-04-29T21:46:10.987Z</time></trkpt><trkpt lat="39.5177493" lon="1.0130971"><ele>0.0</ele><time>2026-04-29T21:46:12.988Z</time></trkpt><trkpt lat="39.5178303" lon="1.0131387"><ele>0.0</ele><time>2026-04-29T21:46:13.988Z</time></trkpt><trkpt lat="39.5179133" lon="1.0131885"><ele>0.0</ele><time>2026-04-29T21:46:14.987Z</time></trkpt><trkpt lat="39.5179911" lon="1.01324"><ele>0.0</ele><time>2026-04-29T21:46:15.988Z</time></trkpt><trkpt lat="39.5180637" lon="1.0132933"><ele>0.0</ele><time>2026-04-29T21:46:16.988Z</time></trkpt><trkpt lat="39.518137" lon="1.0133493"><ele>0.0</ele><time>2026-04-29T21:46:17.987Z</time></trkpt><trkpt lat="39.518212" lon="1.0134017"><ele>0.0</ele><time>2026-04-29T21:46:18.987Z</time></trkpt><trkpt lat="39.518287" lon="1.0134532"><ele>0.0</ele><time>2026-04-29T21:46:19.988Z</time></trkpt><trkpt lat="39.5183564" lon="1.0134992"><ele>0.0</ele><time>2026-04-29T21:46:20.987Z</time></trkpt><trkpt lat="39.5184259" lon="1.0135473"><ele>0.0</ele><time>2026-04-29T21:46:21.988Z</time></trkpt><trkpt lat="39.5184974" lon="1.0135942"><ele>0.0</ele><time>2026-04-29T21:46:22.987Z</time></trkpt><trkpt lat="39.5185675" lon="1.0136391"><ele>0.0</ele><time>2026-04-29T21:46:23.988Z</time></trkpt><trkpt lat="39.5186432" lon="1.0136916"><ele>0.0</ele><time>2026-04-29T21:46:24.987Z</time></trkpt><trkpt lat="39.5187198" lon="1.0137423"><ele>0.0</ele><time>2026-04-29T21:46:25.988Z</time></trkpt><trkpt lat="39.5187948" lon="1.0137916"><ele>0.0</ele><time>2026-04-29T21:46:26.987Z</time></trkpt><trkpt lat="39.5188688" lon="1.0138421"><ele>0.0</ele><time>2026-04-29T21:46:27.988Z</time></trkpt><trkpt lat="39.5189348" lon="1.0138905"><ele>0.0</ele><time>2026-04-29T21:46:28.987Z</time></trkpt><trkpt lat="39.5190041" lon="1.0139399"><ele>0.0</ele><time>2026-04-29T21:46:29.988Z</time></trkpt><trkpt lat="39.5190785" lon="1.0139931"><ele>0.0</ele><time>2026-04-29T21:46:30.988Z</time></trkpt><trkpt lat="39.5191534" lon="1.014051"><ele>0.0</ele><time>2026-04-29T21:46:31.987Z</time></trkpt><trkpt lat="39.5193123" lon="1.0141798"><ele>0.0</ele><time>2026-04-29T21:46:33.988Z</time></trkpt><trkpt lat="39.519377" lon="1.0142268"><ele>0.0</ele><time>2026-04-29T21:46:34.988Z</time></trkpt><trkpt lat="39.5194532" lon="1.0142798"><ele>0.0</ele><time>2026-04-29T21:46:35.988Z</time></trkpt><trkpt lat="39.519526" lon="1.0143268"><ele>0.0</ele><time>2026-04-29T21:46:36.987Z</time></trkpt><trkpt lat="39.5195917" lon="1.0143397"><ele>0.0</ele><time>2026-04-29T21:46:37.987Z</time></trkpt><trkpt lat="39.5196696" lon="1.0143935"><ele>0.0</ele><time>2026-04-29T21:46:38.987Z</time></trkpt><trkpt lat="39.519748" lon="1.0144477"><ele>0.0</ele><time>2026-04-29T21:46:39.988Z</time></trkpt><trkpt lat="39.5198278" lon="1.0145012"><ele>0.0</ele><time>2026-04-29T21:46:40.987Z</time></trkpt><trkpt lat="39.5199074" lon="1.0145529"><ele>0.0</ele><time>2026-04-29T21:46:41.987Z</time></trkpt><trkpt lat="39.5199863" lon="1.0146104"><ele>0.0</ele><time>2026-04-29T21:46:42.987Z</time></trkpt><trkpt lat="39.5200636" lon="1.0146745"><ele>0.0</ele><time>2026-04-29T21:46:43.988Z</time></trkpt><trkpt lat="39.520137" lon="1.0147312"><ele>0.0</ele><time>2026-04-29T21:46:44.988Z</time></trkpt><trkpt lat="39.52021" lon="1.0147859"><ele>0.0</ele><time>2026-04-29T21:46:45.988Z</time></trkpt><trkpt lat="39.5202851" lon="1.0148492"><ele>0.0</ele><time>2026-04-29T21:46:46.988Z</time></trkpt><trkpt lat="39.5203618" lon="1.0149046"><ele>0.0</ele><time>2026-04-29T21:46:47.987Z</time></trkpt><trkpt lat="39.5204367" lon="1.014956"><ele>0.0</ele><time>2026-04-29T21:46:48.988Z</time></trkpt><trkpt lat="39.5205129" lon="1.0150077"><ele>0.0</ele><time>2026-04-29T21:46:49.987Z</time></trkpt><trkpt lat="39.520593" lon="1.0150585"><ele>0.0</ele><time>2026-04-29T21:46:50.987Z</time></trkpt><trkpt lat="39.52067" lon="1.0151198"><ele>0.0</ele><time>2026-04-29T21:46:51.988Z</time></trkpt><trkpt lat="39.520745" lon="1.0151801"><ele>0.0</ele><time>2026-04-29T21:46:52.988Z</time></trkpt><trkpt lat="39.5208201" lon="1.0152431"><ele>0.0</ele><time>2026-04-29T21:46:53.988Z</time></trkpt><trkpt lat="39.5209711" lon="1.0153561"><ele>0.0</ele><time>2026-04-29T21:46:55.987Z</time></trkpt><trkpt lat="39.5210536" lon="1.0154096"><ele>0.0</ele><time>2026-04-29T21:46:56.987Z</time></trkpt><trkpt lat="39.5211358" lon="1.0154658"><ele>0.0</ele><time>2026-04-29T21:46:57.987Z</time></trkpt><trkpt lat="39.5212104" lon="1.0155153"><ele>0.0</ele><time>2026-04-29T21:46:58.988Z</time></trkpt><trkpt lat="39.521282" lon="1.0155711"><ele>0.0</ele><time>2026-04-29T21:46:59.987Z</time></trkpt><trkpt lat="39.521355" lon="1.0156149"><ele>0.0</ele><time>2026-04-29T21:47:00.987Z</time></trkpt><trkpt lat="39.5214254" lon="1.0156583"><ele>0.0</ele><time>2026-04-29T21:47:01.988Z</time></trkpt><trkpt lat="39.5215025" lon="1.0157013"><ele>0.0</ele><time>2026-04-29T21:47:02.987Z</time></trkpt><trkpt lat="39.5215798" lon="1.0157517"><ele>0.0</ele><time>2026-04-29T21:47:03.987Z</time></trkpt><trkpt lat="39.5216565" lon="1.0158037"><ele>0.0</ele><time>2026-04-29T21:47:04.987Z</time></trkpt><trkpt lat="39.5217301" lon="1.0158511"><ele>0.0</ele><time>2026-04-29T21:47:05.988Z</time></trkpt><trkpt lat="39.5218063" lon="1.0159004"><ele>0.0</ele><time>2026-04-29T21:47:06.988Z</time></trkpt><trkpt lat="39.5218843" lon="1.0159467"><ele>0.0</ele><time>2026-04-29T21:47:07.987Z</time></trkpt><trkpt lat="39.5219668" lon="1.015983"><ele>0.0</ele><time>2026-04-29T21:47:08.987Z</time></trkpt><trkpt lat="39.5220447" lon="1.0160271"><ele>0.0</ele><time>2026-04-29T21:47:09.988Z</time></trkpt><trkpt lat="39.522119" lon="1.0160701"><ele>0.0</ele><time>2026-04-29T21:47:10.986Z</time></trkpt><trkpt lat="39.5221906" lon="1.0161224"><ele>0.0</ele><time>2026-04-29T21:47:11.987Z</time></trkpt><trkpt lat="39.5222622" lon="1.016185"><ele>0.0</ele><time>2026-04-29T21:47:12.986Z</time></trkpt><trkpt lat="39.5223377" lon="1.0162302"><ele>0.0</ele><time>2026-04-29T21:47:13.987Z</time></trkpt><trkpt lat="39.5224142" lon="1.0162803"><ele>0.0</ele><time>2026-04-29T21:47:14.986Z</time></trkpt><trkpt lat="39.5225711" lon="1.0163721"><ele>0.0</ele><time>2026-04-29T21:47:16.986Z</time></trkpt><trkpt lat="39.5226482" lon="1.0164267"><ele>0.0</ele><time>2026-04-29T21:47:17.986Z</time></trkpt><trkpt lat="39.5227265" lon="1.0164748"><ele>0.0</ele><time>2026-04-29T21:47:18.986Z</time></trkpt><trkpt lat="39.522803" lon="1.0165262"><ele>0.0</ele><time>2026-04-29T21:47:19.986Z</time></trkpt><trkpt lat="39.5228858" lon="1.0165775"><ele>0.0</ele><time>2026-04-29T21:47:20.986Z</time></trkpt><trkpt lat="39.5229605" lon="1.0166284"><ele>0.0</ele><time>2026-04-29T21:47:21.987Z</time></trkpt><trkpt lat="39.5230352" lon="1.0166801"><ele>0.0</ele><time>2026-04-29T21:47:22.987Z</time></trkpt><trkpt lat="39.5231088" lon="1.0167301"><ele>0.0</ele><time>2026-04-29T21:47:23.986Z</time></trkpt><trkpt lat="39.5231817" lon="1.01678"><ele>0.0</ele><time>2026-04-29T21:47:24.986Z</time></trkpt><trkpt lat="39.5232621" lon="1.016834"><ele>0.0</ele><time>2026-04-29T21:47:25.986Z</time></trkpt><trkpt lat="39.5234182" lon="1.0169444"><ele>0.0</ele><time>2026-04-29T21:47:27.986Z</time></trkpt><trkpt lat="39.5234948" lon="1.0170006"><ele>0.0</ele><time>2026-04-29T21:47:28.987Z</time></trkpt><trkpt lat="39.5235659" lon="1.01706"><ele>0.0</ele><time>2026-04-29T21:47:29.986Z</time></trkpt><trkpt lat="39.5236333" lon="1.017116"><ele>0.0</ele><time>2026-04-29T21:47:30.986Z</time></trkpt><trkpt lat="39.5237027" lon="1.0171694"><ele>0.0</ele><time>2026-04-29T21:47:31.987Z</time></trkpt><trkpt lat="39.5237753" lon="1.0172288"><ele>0.0</ele><time>2026-04-29T21:47:32.986Z</time></trkpt><trkpt lat="39.5238481" lon="1.0172843"><ele>0.0</ele><time>2026-04-29T21:47:33.986Z</time></trkpt><trkpt lat="39.52392" lon="1.0173376"><ele>0.0</ele><time>2026-04-29T21:47:34.986Z</time></trkpt><trkpt lat="39.5239951" lon="1.0173939"><ele>0.0</ele><time>2026-04-29T21:47:35.987Z</time></trkpt><trkpt lat="39.5241506" lon="1.0174933"><ele>0.0</ele><time>2026-04-29T21:47:37.986Z</time></trkpt><trkpt lat="39.5242311" lon="1.01756"><ele>0.0</ele><time>2026-04-29T21:47:38.987Z</time></trkpt><trkpt lat="39.5243086" lon="1.0176188"><ele>0.0</ele><time>2026-04-29T21:47:39.986Z</time></trkpt><trkpt lat="39.5243864" lon="1.0176843"><ele>0.0</ele><time>2026-04-29T21:47:40.987Z</time></trkpt><trkpt lat="39.5244632" lon="1.0177469"><ele>0.0</ele><time>2026-04-29T21:47:41.986Z</time></trkpt><trkpt lat="39.5245413" lon="1.0178048"><ele>0.0</ele><time>2026-04-29T21:47:42.986Z</time></trkpt><trkpt lat="39.5246148" lon="1.0178626"><ele>0.0</ele><time>2026-04-29T21:47:43.987Z</time></trkpt><trkpt lat="39.5246883" lon="1.01792"><ele>0.0</ele><time>2026-04-29T21:47:44.987Z</time></trkpt><trkpt lat="39.5247631" lon="1.0179705"><ele>0.0</ele><time>2026-04-29T21:47:45.987Z</time></trkpt><trkpt lat="39.5248384" lon="1.018017"><ele>0.0</ele><time>2026-04-29T21:47:46.987Z</time></trkpt><trkpt lat="39.5249109" lon="1.0180592"><ele>0.0</ele><time>2026-04-29T21:47:47.986Z</time></trkpt><trkpt lat="39.5249867" lon="1.0181081"><ele>0.0</ele><time>2026-04-29T21:47:48.987Z</time></trkpt><trkpt lat="39.5250562" lon="1.0181661"><ele>0.0</ele><time>2026-04-29T21:47:49.986Z</time></trkpt><trkpt lat="39.5251286" lon="1.0182237"><ele>0.0</ele><time>2026-04-29T21:47:50.986Z</time></trkpt><trkpt lat="39.5252015" lon="1.0182782"><ele>0.0</ele><time>2026-04-29T21:47:51.987Z</time></trkpt><trkpt lat="39.5252735" lon="1.0183284"><ele>0.0</ele><time>2026-04-29T21:47:52.986Z</time></trkpt><trkpt lat="39.5253514" lon="1.0183844"><ele>0.0</ele><time>2026-04-29T21:47:53.986Z</time></trkpt><trkpt lat="39.5254269" lon="1.0184361"><ele>0.0</ele><time>2026-04-29T21:47:54.987Z</time></trkpt><trkpt lat="39.5254975" lon="1.0184875"><ele>0.0</ele><time>2026-04-29T21:47:55.987Z</time></trkpt><trkpt lat="39.5255704" lon="1.0185385"><ele>0.0</ele><time>2026-04-29T21:47:56.986Z</time></trkpt><trkpt lat="39.5257922" lon="1.0186727"><ele>0.0</ele><time>2026-04-29T21:47:59.987Z</time></trkpt><trkpt lat="39.5258683" lon="1.0187258"><ele>0.0</ele><time>2026-04-29T21:48:00.986Z</time></trkpt><trkpt lat="39.5259521" lon="1.0187849"><ele>0.0</ele><time>2026-04-29T21:48:01.987Z</time></trkpt><trkpt lat="39.5260281" lon="1.0188394"><ele>0.0</ele><time>2026-04-29T21:48:02.986Z</time></trkpt><trkpt lat="39.5261006" lon="1.0189015"><ele>0.0</ele><time>2026-04-29T21:48:03.986Z</time></trkpt><trkpt lat="39.5261749" lon="1.0189683"><ele>0.0</ele><time>2026-04-29T21:48:04.987Z</time></trkpt><trkpt lat="39.5262483" lon="1.0190233"><ele>0.0</ele><time>2026-04-29T21:48:05.987Z</time></trkpt><trkpt lat="39.5263185" lon="1.0190826"><ele>0.0</ele><time>2026-04-29T21:48:06.987Z</time></trkpt><trkpt lat="39.5263927" lon="1.0191457"><ele>0.0</ele><time>2026-04-29T21:48:07.986Z</time></trkpt><trkpt lat="39.5264668" lon="1.0192072"><ele>0.0</ele><time>2026-04-29T21:48:08.986Z</time></trkpt><trkpt lat="39.5265401" lon="1.0192643"><ele>0.0</ele><time>2026-04-29T21:48:09.987Z</time></trkpt><trkpt lat="39.5266122" lon="1.0193183"><ele>0.0</ele><time>2026-04-29T21:48:10.987Z</time></trkpt><trkpt lat="39.5266884" lon="1.0193705"><ele>0.0</ele><time>2026-04-29T21:48:11.986Z</time></trkpt><trkpt lat="39.526762" lon="1.0194289"><ele>0.0</ele><time>2026-04-29T21:48:12.987Z</time></trkpt><trkpt lat="39.5268392" lon="1.0194924"><ele>0.0</ele><time>2026-04-29T21:48:13.987Z</time></trkpt><trkpt lat="39.5269191" lon="1.0195487"><ele>0.0</ele><time>2026-04-29T21:48:14.987Z</time></trkpt><trkpt lat="39.5269935" lon="1.0196032"><ele>0.0</ele><time>2026-04-29T21:48:15.986Z</time></trkpt><trkpt lat="39.5270785" lon="1.019658"><ele>0.0</ele><time>2026-04-29T21:48:16.986Z</time></trkpt><trkpt lat="39.5271605" lon="1.0197188"><ele>0.0</ele><time>2026-04-29T21:48:17.987Z</time></trkpt><trkpt lat="39.5272412" lon="1.0197774"><ele>0.0</ele><time>2026-04-29T21:48:18.986Z</time></trkpt><trkpt lat="39.5273196" lon="1.0198335"><ele>0.0</ele><time>2026-04-29T21:48:19.987Z</time></trkpt><trkpt lat="39.5274687" lon="1.0199462"><ele>0.0</ele><time>2026-04-29T21:48:21.986Z</time></trkpt><trkpt lat="39.5275423" lon="1.020003"><ele>0.0</ele><time>2026-04-29T21:48:22.987Z</time></trkpt><trkpt lat="39.5276127" lon="1.0200579"><ele>0.0</ele><time>2026-04-29T21:48:23.987Z</time></trkpt><trkpt lat="39.5276825" lon="1.0201119"><ele>0.0</ele><time>2026-04-29T21:48:24.987Z</time></trkpt><trkpt lat="39.5277536" lon="1.0201525"><ele>0.0</ele><time>2026-04-29T21:48:25.986Z</time></trkpt><trkpt lat="39.527827" lon="1.0202119"><ele>0.0</ele><time>2026-04-29T21:48:26.986Z</time></trkpt><trkpt lat="39.5279018" lon="1.0202708"><ele>0.0</ele><time>2026-04-29T21:48:27.986Z</time></trkpt><trkpt lat="39.5279767" lon="1.0203193"><ele>0.0</ele><time>2026-04-29T21:48:28.986Z</time></trkpt><trkpt lat="39.5280506" lon="1.020375"><ele>0.0</ele><time>2026-04-29T21:48:29.987Z</time></trkpt><trkpt lat="39.5282084" lon="1.0204823"><ele>0.0</ele><time>2026-04-29T21:48:31.986Z</time></trkpt><trkpt lat="39.5282919" lon="1.0205398"><ele>0.0</ele><time>2026-04-29T21:48:32.987Z</time></trkpt><trkpt lat="39.5283738" lon="1.0206005"><ele>0.0</ele><time>2026-04-29T21:48:33.987Z</time></trkpt><trkpt lat="39.5284499" lon="1.0206496"><ele>0.0</ele><time>2026-04-29T21:48:34.986Z</time></trkpt><trkpt lat="39.5285295" lon="1.0206934"><ele>0.0</ele><time>2026-04-29T21:48:35.987Z</time></trkpt><trkpt lat="39.5286094" lon="1.0207379"><ele>0.0</ele><time>2026-04-29T21:48:36.987Z</time></trkpt><trkpt lat="39.5286877" lon="1.0207846"><ele>0.0</ele><time>2026-04-29T21:48:37.987Z</time></trkpt><trkpt lat="39.528763" lon="1.020823"><ele>0.0</ele><time>2026-04-29T21:48:38.987Z</time></trkpt><trkpt lat="39.5288396" lon="1.0208665"><ele>0.0</ele><time>2026-04-29T21:48:39.986Z</time></trkpt><trkpt lat="39.5289122" lon="1.0209092"><ele>0.0</ele><time>2026-04-29T21:48:40.987Z</time></trkpt><trkpt lat="39.5290572" lon="1.0209937"><ele>0.0</ele><time>2026-04-29T21:48:42.987Z</time></trkpt><trkpt lat="39.5291331" lon="1.0210613"><ele>0.0</ele><time>2026-04-29T21:48:43.986Z</time></trkpt><trkpt lat="39.5292085" lon="1.021116"><ele>0.0</ele><time>2026-04-29T21:48:44.987Z</time></trkpt><trkpt lat="39.5292805" lon="1.0211665"><ele>0.0</ele><time>2026-04-29T21:48:45.986Z</time></trkpt><trkpt lat="39.5293552" lon="1.0212177"><ele>0.0</ele><time>2026-04-29T21:48:46.986Z</time></trkpt><trkpt lat="39.52943" lon="1.021271"><ele>0.0</ele><time>2026-04-29T21:48:47.986Z</time></trkpt><trkpt lat="39.5295074" lon="1.0213201"><ele>0.0</ele><time>2026-04-29T21:48:48.986Z</time></trkpt><trkpt lat="39.5295801" lon="1.0213743"><ele>0.0</ele><time>2026-04-29T21:48:49.987Z</time></trkpt><trkpt lat="39.5296506" lon="1.0214268"><ele>0.0</ele><time>2026-04-29T21:48:50.987Z</time></trkpt><trkpt lat="39.5297207" lon="1.0214727"><ele>0.0</ele><time>2026-04-29T21:48:51.987Z</time></trkpt><trkpt lat="39.529789" lon="1.0215037"><ele>0.0</ele><time>2026-04-29T21:48:52.987Z</time></trkpt><trkpt lat="39.5298676" lon="1.021548"><ele>0.0</ele><time>2026-04-29T21:48:53.986Z</time></trkpt><trkpt lat="39.529946" lon="1.0216182"><ele>0.0</ele><time>2026-04-29T21:48:54.986Z</time></trkpt><trkpt lat="39.5300235" lon="1.0216669"><ele>0.0</ele><time>2026-04-29T21:48:55.987Z</time></trkpt><trkpt lat="39.5300899" lon="1.0217322"><ele>0.0</ele><time>2026-04-29T21:48:56.987Z</time></trkpt><trkpt lat="39.5301633" lon="1.0218117"><ele>0.0</ele><time>2026-04-29T21:48:57.987Z</time></trkpt><trkpt lat="39.5302365" lon="1.0218651"><ele>0.0</ele><time>2026-04-29T21:48:58.986Z</time></trkpt><trkpt lat="39.5303143" lon="1.0219155"><ele>0.0</ele><time>2026-04-29T21:48:59.986Z</time></trkpt><trkpt lat="39.5303942" lon="1.0219668"><ele>0.0</ele><time>2026-04-29T21:49:00.986Z</time></trkpt><trkpt lat="39.5304685" lon="1.0220294"><ele>0.0</ele><time>2026-04-29T21:49:01.987Z</time></trkpt><trkpt lat="39.5306852" lon="1.022168"><ele>0.0</ele><time>2026-04-29T21:49:04.986Z</time></trkpt><trkpt lat="39.5307558" lon="1.0222171"><ele>0.0</ele><time>2026-04-29T21:49:05.987Z</time></trkpt><trkpt lat="39.5308271" lon="1.0222697"><ele>0.0</ele><time>2026-04-29T21:49:06.986Z</time></trkpt><trkpt lat="39.5309048" lon="1.0223204"><ele>0.0</ele><time>2026-04-29T21:49:07.987Z</time></trkpt><trkpt lat="39.5309843" lon="1.0223758"><ele>0.0</ele><time>2026-04-29T21:49:08.986Z</time></trkpt><trkpt lat="39.5310643" lon="1.0224297"><ele>0.0</ele><time>2026-04-29T21:49:09.986Z</time></trkpt><trkpt lat="39.531144" lon="1.0225019"><ele>0.0</ele><time>2026-04-29T21:49:10.987Z</time></trkpt><trkpt lat="39.531224" lon="1.0225681"><ele>0.0</ele><time>2026-04-29T21:49:11.987Z</time></trkpt><trkpt lat="39.5312967" lon="1.0226246"><ele>0.0</ele><time>2026-04-29T21:49:12.987Z</time></trkpt><trkpt lat="39.53137" lon="1.0226762"><ele>0.0</ele><time>2026-04-29T21:49:13.987Z</time></trkpt><trkpt lat="39.531445" lon="1.0227409"><ele>0.0</ele><time>2026-04-29T21:49:14.986Z</time></trkpt><trkpt lat="39.5315188" lon="1.0227962"><ele>0.0</ele><time>2026-04-29T21:49:15.986Z</time></trkpt><trkpt lat="39.5315892" lon="1.0228455"><ele>0.0</ele><time>2026-04-29T21:49:16.987Z</time></trkpt><trkpt lat="39.5316578" lon="1.0228971"><ele>0.0</ele><time>2026-04-29T21:49:17.987Z</time></trkpt><trkpt lat="39.5317346" lon="1.0229543"><ele>0.0</ele><time>2026-04-29T21:49:18.986Z</time></trkpt><trkpt lat="39.5318085" lon="1.0230101"><ele>0.0</ele><time>2026-04-29T21:49:19.987Z</time></trkpt><trkpt lat="39.5318818" lon="1.023062"><ele>0.0</ele><time>2026-04-29T21:49:20.986Z</time></trkpt><trkpt lat="39.5319595" lon="1.023113"><ele>0.0</ele><time>2026-04-29T21:49:21.986Z</time></trkpt><trkpt lat="39.5320367" lon="1.0231631"><ele>0.0</ele><time>2026-04-29T21:49:22.987Z</time></trkpt><trkpt lat="39.5321835" lon="1.0232601"><ele>0.0</ele><time>2026-04-29T21:49:24.986Z</time></trkpt><trkpt lat="39.5322626" lon="1.0233128"><ele>0.0</ele><time>2026-04-29T21:49:25.987Z</time></trkpt><trkpt lat="39.5323286" lon="1.0233524"><ele>0.0</ele><time>2026-04-29T21:49:26.987Z</time></trkpt><trkpt lat="39.5324091" lon="1.0233732"><ele>0.0</ele><time>2026-04-29T21:49:27.986Z</time></trkpt><trkpt lat="39.5324962" lon="1.0234226"><ele>0.0</ele><time>2026-04-29T21:49:28.987Z</time></trkpt><trkpt lat="39.5325848" lon="1.023477"><ele>0.0</ele><time>2026-04-29T21:49:29.987Z</time></trkpt><trkpt lat="39.5326675" lon="1.0235283"><ele>0.0</ele><time>2026-04-29T21:49:30.986Z</time></trkpt><trkpt lat="39.5327464" lon="1.0235765"><ele>0.0</ele><time>2026-04-29T21:49:31.986Z</time></trkpt><trkpt lat="39.5328329" lon="1.0236364"><ele>0.0</ele><time>2026-04-29T21:49:32.987Z</time></trkpt><trkpt lat="39.5329097" lon="1.0236897"><ele>0.0</ele><time>2026-04-29T21:49:33.987Z</time></trkpt><trkpt lat="39.5329823" lon="1.0237354"><ele>0.0</ele><time>2026-04-29T21:49:34.986Z</time></trkpt><trkpt lat="39.5330556" lon="1.0237758"><ele>0.0</ele><time>2026-04-29T21:49:35.986Z</time></trkpt><trkpt lat="39.533125" lon="1.0238248"><ele>0.0</ele><time>2026-04-29T21:49:36.986Z</time></trkpt><trkpt lat="39.5332059" lon="1.0238905"><ele>0.0</ele><time>2026-04-29T21:49:37.987Z</time></trkpt><trkpt lat="39.5332831" lon="1.0239415"><ele>0.0</ele><time>2026-04-29T21:49:38.986Z</time></trkpt><trkpt lat="39.5333482" lon="1.0239928"><ele>0.0</ele><time>2026-04-29T21:49:39.986Z</time></trkpt><trkpt lat="39.5334142" lon="1.0240434"><ele>0.0</ele><time>2026-04-29T21:49:40.987Z</time></trkpt><trkpt lat="39.5334852" lon="1.0240936"><ele>0.0</ele><time>2026-04-29T21:49:41.986Z</time></trkpt><trkpt lat="39.5335571" lon="1.0241449"><ele>0.0</ele><time>2026-04-29T21:49:42.987Z</time></trkpt><trkpt lat="39.5336287" lon="1.0242002"><ele>0.0</ele><time>2026-04-29T21:49:43.986Z</time></trkpt><trkpt lat="39.5337881" lon="1.0243178"><ele>0.0</ele><time>2026-04-29T21:49:45.987Z</time></trkpt><trkpt lat="39.533869" lon="1.0243727"><ele>0.0</ele><time>2026-04-29T21:49:46.987Z</time></trkpt><trkpt lat="39.5339522" lon="1.0244442"><ele>0.0</ele><time>2026-04-29T21:49:47.986Z</time></trkpt><trkpt lat="39.5340241" lon="1.0245051"><ele>0.0</ele><time>2026-04-29T21:49:48.986Z</time></trkpt><trkpt lat="39.5340986" lon="1.0245554"><ele>0.0</ele><time>2026-04-29T21:49:49.987Z</time></trkpt><trkpt lat="39.5341655" lon="1.0245685"><ele>0.0</ele><time>2026-04-29T21:49:50.986Z</time></trkpt><trkpt lat="39.5342391" lon="1.0246239"><ele>0.0</ele><time>2026-04-29T21:49:51.987Z</time></trkpt><trkpt lat="39.5343136" lon="1.0246721"><ele>0.0</ele><time>2026-04-29T21:49:52.987Z</time></trkpt><trkpt lat="39.5343882" lon="1.0247255"><ele>0.0</ele><time>2026-04-29T21:49:53.986Z</time></trkpt><trkpt lat="39.5344606" lon="1.0247776"><ele>0.0</ele><time>2026-04-29T21:49:54.986Z</time></trkpt><trkpt lat="39.5345393" lon="1.0248366"><ele>0.0</ele><time>2026-04-29T21:49:55.986Z</time></trkpt><trkpt lat="39.5346194" lon="1.0248998"><ele>0.0</ele><time>2026-04-29T21:49:56.986Z</time></trkpt><trkpt lat="39.534695" lon="1.024951"><ele>0.0</ele><time>2026-04-29T21:49:57.987Z</time></trkpt><trkpt lat="39.534773" lon="1.0250062"><ele>0.0</ele><time>2026-04-29T21:49:58.986Z</time></trkpt><trkpt lat="39.5348485" lon="1.0250683"><ele>0.0</ele><time>2026-04-29T21:49:59.986Z</time></trkpt><trkpt lat="39.5349281" lon="1.0251359"><ele>0.0</ele><time>2026-04-29T21:50:00.986Z</time></trkpt><trkpt lat="39.5350039" lon="1.025202"><ele>0.0</ele><time>2026-04-29T21:50:01.986Z</time></trkpt><trkpt lat="39.5350753" lon="1.0252489"><ele>0.0</ele><time>2026-04-29T21:50:02.986Z</time></trkpt><trkpt lat="39.5351498" lon="1.0253051"><ele>0.0</ele><time>2026-04-29T21:50:03.986Z</time></trkpt><trkpt lat="39.5352235" lon="1.0253556"><ele>0.0</ele><time>2026-04-29T21:50:04.987Z</time></trkpt><trkpt lat="39.5352955" lon="1.0254169"><ele>0.0</ele><time>2026-04-29T21:50:05.986Z</time></trkpt><trkpt lat="39.5354504" lon="1.0255234"><ele>0.0</ele><time>2026-04-29T21:50:07.987Z</time></trkpt><trkpt lat="39.5355283" lon="1.0255608"><ele>0.0</ele><time>2026-04-29T21:50:08.987Z</time></trkpt><trkpt lat="39.5356082" lon="1.0256168"><ele>0.0</ele><time>2026-04-29T21:50:09.986Z</time></trkpt><trkpt lat="39.5356825" lon="1.025684"><ele>0.0</ele><time>2026-04-29T21:50:10.987Z</time></trkpt><trkpt lat="39.535754" lon="1.0257326"><ele>0.0</ele><time>2026-04-29T21:50:11.987Z</time></trkpt><trkpt lat="39.5358258" lon="1.025772"><ele>0.0</ele><time>2026-04-29T21:50:12.987Z</time></trkpt><trkpt lat="39.5359015" lon="1.0258168"><ele>0.0</ele><time>2026-04-29T21:50:13.986Z</time></trkpt><trkpt lat="39.535977" lon="1.0258669"><ele>0.0</ele><time>2026-04-29T21:50:14.987Z</time></trkpt><trkpt lat="39.5360519" lon="1.0259262"><ele>0.0</ele><time>2026-04-29T21:50:15.986Z</time></trkpt><trkpt lat="39.536123" lon="1.0259797"><ele>0.0</ele><time>2026-04-29T21:50:16.986Z</time></trkpt><trkpt lat="39.5362012" lon="1.0260482"><ele>0.0</ele><time>2026-04-29T21:50:17.987Z</time></trkpt><trkpt lat="39.5362793" lon="1.026116"><ele>0.0</ele><time>2026-04-29T21:50:18.986Z</time></trkpt><trkpt lat="39.5363553" lon="1.026176"><ele>0.0</ele><time>2026-04-29T21:50:19.987Z</time></trkpt><trkpt lat="39.5364271" lon="1.0262327"><ele>0.0</ele><time>2026-04-29T21:50:20.986Z</time></trkpt><trkpt lat="39.5365017" lon="1.0262894"><ele>0.0</ele><time>2026-04-29T21:50:21.986Z</time></trkpt><trkpt lat="39.5365753" lon="1.0263445"><ele>0.0</ele><time>2026-04-29T21:50:22.986Z</time></trkpt><trkpt lat="39.5366526" lon="1.0264041"><ele>0.0</ele><time>2026-04-29T21:50:23.986Z</time></trkpt><trkpt lat="39.5367297" lon="1.0264612"><ele>0.0</ele><time>2026-04-29T21:50:24.987Z</time></trkpt><trkpt lat="39.5368033" lon="1.0265183"><ele>0.0</ele><time>2026-04-29T21:50:25.986Z</time></trkpt><trkpt lat="39.536881" lon="1.0265769"><ele>0.0</ele><time>2026-04-29T21:50:26.986Z</time></trkpt><trkpt lat="39.5370408" lon="1.0267034"><ele>0.0</ele><time>2026-04-29T21:50:28.986Z</time></trkpt><trkpt lat="39.5371152" lon="1.0267734"><ele>0.0</ele><time>2026-04-29T21:50:29.986Z</time></trkpt><trkpt lat="39.5371915" lon="1.0268437"><ele>0.0</ele><time>2026-04-29T21:50:30.987Z</time></trkpt><trkpt lat="39.5372666" lon="1.0269017"><ele>0.0</ele><time>2026-04-29T21:50:31.986Z</time></trkpt><trkpt lat="39.5373413" lon="1.026947"><ele>0.0</ele><time>2026-04-29T21:50:32.986Z</time></trkpt><trkpt lat="39.5374192" lon="1.0269852"><ele>0.0</ele><time>2026-04-29T21:50:33.987Z</time></trkpt><trkpt lat="39.5374963" lon="1.0270395"><ele>0.0</ele><time>2026-04-29T21:50:34.986Z</time></trkpt><trkpt lat="39.5375702" lon="1.0270916"><ele>0.0</ele><time>2026-04-29T21:50:35.986Z</time></trkpt><trkpt lat="39.5376423" lon="1.0271417"><ele>0.0</ele><time>2026-04-29T21:50:36.987Z</time></trkpt><trkpt lat="39.5377167" lon="1.0271951"><ele>0.0</ele><time>2026-04-29T21:50:37.987Z</time></trkpt><trkpt lat="39.5378659" lon="1.0273059"><ele>0.0</ele><time>2026-04-29T21:50:39.986Z</time></trkpt><trkpt lat="39.5379388" lon="1.0273569"><ele>0.0</ele><time>2026-04-29T21:50:40.987Z</time></trkpt><trkpt lat="39.5380164" lon="1.0274071"><ele>0.0</ele><time>2026-04-29T21:50:41.987Z</time></trkpt><trkpt lat="39.5380934" lon="1.0274643"><ele>0.0</ele><time>2026-04-29T21:50:42.987Z</time></trkpt><trkpt lat="39.5381686" lon="1.0275146"><ele>0.0</ele><time>2026-04-29T21:50:43.986Z</time></trkpt><trkpt lat="39.5382437" lon="1.0275562"><ele>0.0</ele><time>2026-04-29T21:50:44.987Z</time></trkpt><trkpt lat="39.5383158" lon="1.0275838"><ele>0.0</ele><time>2026-04-29T21:50:45.986Z</time></trkpt><trkpt lat="39.5383833" lon="1.0276331"><ele>0.0</ele><time>2026-04-29T21:50:46.987Z</time></trkpt><trkpt lat="39.5384599" lon="1.027683"><ele>0.0</ele><time>2026-04-29T21:50:47.986Z</time></trkpt><trkpt lat="39.5386073" lon="1.0277915"><ele>0.0</ele><time>2026-04-29T21:50:49.986Z</time></trkpt><trkpt lat="39.5386805" lon="1.027846"><ele>0.0</ele><time>2026-04-29T21:50:50.987Z</time></trkpt><trkpt lat="39.5387579" lon="1.0279047"><ele>0.0</ele><time>2026-04-29T21:50:51.986Z</time></trkpt><trkpt lat="39.5388422" lon="1.0279555"><ele>0.0</ele><time>2026-04-29T21:50:52.986Z</time></trkpt><trkpt lat="39.5389057" lon="1.027994"><ele>0.0</ele><time>2026-04-29T21:50:53.986Z</time></trkpt><trkpt lat="39.5389776" lon="1.0280393"><ele>0.0</ele><time>2026-04-29T21:50:54.986Z</time></trkpt><trkpt lat="39.5390519" lon="1.0280913"><ele>0.0</ele><time>2026-04-29T21:50:55.986Z</time></trkpt><trkpt lat="39.5391268" lon="1.0281444"><ele>0.0</ele><time>2026-04-29T21:50:56.987Z</time></trkpt><trkpt lat="39.5392032" lon="1.0282009"><ele>0.0</ele><time>2026-04-29T21:50:57.987Z</time></trkpt><trkpt lat="39.5392782" lon="1.0282591"><ele>0.0</ele><time>2026-04-29T21:50:58.986Z</time></trkpt><trkpt lat="39.5393544" lon="1.0283193"><ele>0.0</ele><time>2026-04-29T21:50:59.986Z</time></trkpt><trkpt lat="39.539434" lon="1.0283726"><ele>0.0</ele><time>2026-04-29T21:51:00.987Z</time></trkpt><trkpt lat="39.5395087" lon="1.0284247"><ele>0.0</ele><time>2026-04-29T21:51:01.986Z</time></trkpt><trkpt lat="39.539582" lon="1.0284763"><ele>0.0</ele><time>2026-04-29T21:51:02.986Z</time></trkpt><trkpt lat="39.5396593" lon="1.0285401"><ele>0.0</ele><time>2026-04-29T21:51:03.986Z</time></trkpt><trkpt lat="39.5397408" lon="1.0286063"><ele>0.0</ele><time>2026-04-29T21:51:04.986Z</time></trkpt><trkpt lat="39.5398123" lon="1.0286589"><ele>0.0</ele><time>2026-04-29T21:51:05.987Z</time></trkpt><trkpt lat="39.5398912" lon="1.0287247"><ele>0.0</ele><time>2026-04-29T21:51:06.986Z</time></trkpt><trkpt lat="39.5399805" lon="1.0287842"><ele>0.0</ele><time>2026-04-29T21:51:07.986Z</time></trkpt><trkpt lat="39.5400667" lon="1.0288382"><ele>0.0</ele><time>2026-04-29T21:51:08.986Z</time></trkpt><trkpt lat="39.5401419" lon="1.0288915"><ele>0.0</ele><time>2026-04-29T21:51:09.987Z</time></trkpt><trkpt lat="39.5402875" lon="1.0289902"><ele>0.0</ele><time>2026-04-29T21:51:11.986Z</time></trkpt><trkpt lat="39.5403606" lon="1.0290341"><ele>0.0</ele><time>2026-04-29T21:51:12.987Z</time></trkpt><trkpt lat="39.5404394" lon="1.029087"><ele>0.0</ele><time>2026-04-29T21:51:13.986Z</time></trkpt><trkpt lat="39.540521" lon="1.0291439"><ele>0.0</ele><time>2026-04-29T21:51:14.986Z</time></trkpt><trkpt lat="39.540604" lon="1.0292062"><ele>0.0</ele><time>2026-04-29T21:51:15.986Z</time></trkpt><trkpt lat="39.5406885" lon="1.029269"><ele>0.0</ele><time>2026-04-29T21:51:16.985Z</time></trkpt><trkpt lat="39.5407707" lon="1.0293175"><ele>0.0</ele><time>2026-04-29T21:51:17.985Z</time></trkpt><trkpt lat="39.5408537" lon="1.0293623"><ele>0.0</ele><time>2026-04-29T21:51:18.985Z</time></trkpt><trkpt lat="39.5409302" lon="1.0294113"><ele>0.0</ele><time>2026-04-29T21:51:19.985Z</time></trkpt><trkpt lat="39.5410039" lon="1.0294657"><ele>0.0</ele><time>2026-04-29T21:51:20.985Z</time></trkpt><trkpt lat="39.5410786" lon="1.0295257"><ele>0.0</ele><time>2026-04-29T21:51:21.985Z</time></trkpt><trkpt lat="39.5411551" lon="1.0295798"><ele>0.0</ele><time>2026-04-29T21:51:22.985Z</time></trkpt><trkpt lat="39.54123" lon="1.0296369"><ele>0.0</ele><time>2026-04-29T21:51:23.985Z</time></trkpt><trkpt lat="39.5413054" lon="1.0296954"><ele>0.0</ele><time>2026-04-29T21:51:24.986Z</time></trkpt><trkpt lat="39.5413758" lon="1.0297351"><ele>0.0</ele><time>2026-04-29T21:51:25.986Z</time></trkpt><trkpt lat="39.5414544" lon="1.0297819"><ele>0.0</ele><time>2026-04-29T21:51:26.985Z</time></trkpt><trkpt lat="39.5415375" lon="1.0298387"><ele>0.0</ele><time>2026-04-29T21:51:27.985Z</time></trkpt><trkpt lat="39.5416135" lon="1.0298927"><ele>0.0</ele><time>2026-04-29T21:51:28.986Z</time></trkpt><trkpt lat="39.5416889" lon="1.0299492"><ele>0.0</ele><time>2026-04-29T21:51:29.985Z</time></trkpt><trkpt lat="39.541761" lon="1.0300043"><ele>0.0</ele><time>2026-04-29T21:51:30.986Z</time></trkpt><trkpt lat="39.541916" lon="1.0300986"><ele>0.0</ele><time>2026-04-29T21:51:32.986Z</time></trkpt><trkpt lat="39.5419931" lon="1.0301594"><ele>0.0</ele><time>2026-04-29T21:51:33.985Z</time></trkpt><trkpt lat="39.5420701" lon="1.0302129"><ele>0.0</ele><time>2026-04-29T21:51:34.985Z</time></trkpt><trkpt lat="39.5421507" lon="1.0302674"><ele>0.0</ele><time>2026-04-29T21:51:35.985Z</time></trkpt><trkpt lat="39.5422269" lon="1.0303212"><ele>0.0</ele><time>2026-04-29T21:51:36.985Z</time></trkpt><trkpt lat="39.5423007" lon="1.0303715"><ele>0.0</ele><time>2026-04-29T21:51:37.986Z</time></trkpt><trkpt lat="39.5423768" lon="1.0304189"><ele>0.0</ele><time>2026-04-29T21:51:38.986Z</time></trkpt><trkpt lat="39.5424493" lon="1.0304728"><ele>0.0</ele><time>2026-04-29T21:51:39.986Z</time></trkpt><trkpt lat="39.5425238" lon="1.0305288"><ele>0.0</ele><time>2026-04-29T21:51:40.985Z</time></trkpt><trkpt lat="39.5426017" lon="1.0305831"><ele>0.0</ele><time>2026-04-29T21:51:41.986Z</time></trkpt><trkpt lat="39.5426766" lon="1.0306325"><ele>0.0</ele><time>2026-04-29T21:51:42.985Z</time></trkpt><trkpt lat="39.5427519" lon="1.030678"><ele>0.0</ele><time>2026-04-29T21:51:43.986Z</time></trkpt><trkpt lat="39.5428283" lon="1.0307213"><ele>0.0</ele><time>2026-04-29T21:51:44.985Z</time></trkpt><trkpt lat="39.542902" lon="1.0307614"><ele>0.0</ele><time>2026-04-29T21:51:45.985Z</time></trkpt><trkpt lat="39.542979" lon="1.030814"><ele>0.0</ele><time>2026-04-29T21:51:46.985Z</time></trkpt><trkpt lat="39.54305" lon="1.0308622"><ele>0.0</ele><time>2026-04-29T21:51:47.986Z</time></trkpt><trkpt lat="39.5431192" lon="1.0309077"><ele>0.0</ele><time>2026-04-29T21:51:48.986Z</time></trkpt><trkpt lat="39.5431966" lon="1.0309478"><ele>0.0</ele><time>2026-04-29T21:51:49.985Z</time></trkpt><trkpt lat="39.5432778" lon="1.0309962"><ele>0.0</ele><time>2026-04-29T21:51:50.985Z</time></trkpt><trkpt lat="39.5433581" lon="1.0310407"><ele>0.0</ele><time>2026-04-29T21:51:51.985Z</time></trkpt><trkpt lat="39.5435196" lon="1.0311418"><ele>0.0</ele><time>2026-04-29T21:51:53.985Z</time></trkpt><trkpt lat="39.5435936" lon="1.0311927"><ele>0.0</ele><time>2026-04-29T21:51:54.985Z</time></trkpt><trkpt lat="39.5436739" lon="1.0312518"><ele>0.0</ele><time>2026-04-29T21:51:55.986Z</time></trkpt><trkpt lat="39.5437525" lon="1.031305"><ele>0.0</ele><time>2026-04-29T21:51:56.986Z</time></trkpt><trkpt lat="39.5438283" lon="1.0313627"><ele>0.0</ele><time>2026-04-29T21:51:57.985Z</time></trkpt><trkpt lat="39.5439032" lon="1.0314237"><ele>0.0</ele><time>2026-04-29T21:51:58.985Z</time></trkpt><trkpt lat="39.5439724" lon="1.0314797"><ele>0.0</ele><time>2026-04-29T21:51:59.985Z</time></trkpt><trkpt lat="39.5440466" lon="1.0315374"><ele>0.0</ele><time>2026-04-29T21:52:00.985Z</time></trkpt><trkpt lat="39.5441218" lon="1.031603"><ele>0.0</ele><time>2026-04-29T21:52:01.985Z</time></trkpt><trkpt lat="39.5442022" lon="1.0316555"><ele>0.0</ele><time>2026-04-29T21:52:02.985Z</time></trkpt><trkpt lat="39.5442839" lon="1.0317185"><ele>0.0</ele><time>2026-04-29T21:52:03.985Z</time></trkpt><trkpt lat="39.5443612" lon="1.031771"><ele>0.0</ele><time>2026-04-29T21:52:04.986Z</time></trkpt><trkpt lat="39.5444382" lon="1.0318322"><ele>0.0</ele><time>2026-04-29T21:52:05.986Z</time></trkpt><trkpt lat="39.544512" lon="1.0318912"><ele>0.0</ele><time>2026-04-29T21:52:06.985Z</time></trkpt><trkpt lat="39.5445894" lon="1.0319452"><ele>0.0</ele><time>2026-04-29T21:52:07.986Z</time></trkpt><trkpt lat="39.5446706" lon="1.0319985"><ele>0.0</ele><time>2026-04-29T21:52:08.986Z</time></trkpt><trkpt lat="39.5447447" lon="1.0320616"><ele>0.0</ele><time>2026-04-29T21:52:09.986Z</time></trkpt><trkpt lat="39.5448097" lon="1.0321138"><ele>0.0</ele><time>2026-04-29T21:52:10.985Z</time></trkpt><trkpt lat="39.5448864" lon="1.0321743"><ele>0.0</ele><time>2026-04-29T21:52:11.985Z</time></trkpt><trkpt lat="39.5449615" lon="1.0322257"><ele>0.0</ele><time>2026-04-29T21:52:12.986Z</time></trkpt><trkpt lat="39.545031" lon="1.0322771"><ele>0.0</ele><time>2026-04-29T21:52:13.986Z</time></trkpt><trkpt lat="39.5452364" lon="1.0324349"><ele>0.0</ele><time>2026-04-29T21:52:16.986Z</time></trkpt><trkpt lat="39.5453043" lon="1.0324868"><ele>0.0</ele><time>2026-04-29T21:52:17.986Z</time></trkpt><trkpt lat="39.5453799" lon="1.0325356"><ele>0.0</ele><time>2026-04-29T21:52:18.986Z</time></trkpt><trkpt lat="39.5454551" lon="1.0325908"><ele>0.0</ele><time>2026-04-29T21:52:19.986Z</time></trkpt><trkpt lat="39.5455257" lon="1.0326463"><ele>0.0</ele><time>2026-04-29T21:52:20.986Z</time></trkpt><trkpt lat="39.5455998" lon="1.0327023"><ele>0.0</ele><time>2026-04-29T21:52:21.985Z</time></trkpt><trkpt lat="39.5456795" lon="1.0327551"><ele>0.0</ele><time>2026-04-29T21:52:22.985Z</time></trkpt><trkpt lat="39.5457611" lon="1.0327996"><ele>0.0</ele><time>2026-04-29T21:52:23.985Z</time></trkpt><trkpt lat="39.5458386" lon="1.03285"><ele>0.0</ele><time>2026-04-29T21:52:24.986Z</time></trkpt><trkpt lat="39.5459149" lon="1.0329077"><ele>0.0</ele><time>2026-04-29T21:52:25.985Z</time></trkpt><trkpt lat="39.5459946" lon="1.0329612"><ele>0.0</ele><time>2026-04-29T21:52:26.986Z</time></trkpt><trkpt lat="39.5460719" lon="1.033013"><ele>0.0</ele><time>2026-04-29T21:52:27.986Z</time></trkpt><trkpt lat="39.5461524" lon="1.0330636"><ele>0.0</ele><time>2026-04-29T21:52:28.986Z</time></trkpt><trkpt lat="39.5462297" lon="1.0331166"><ele>0.0</ele><time>2026-04-29T21:52:29.986Z</time></trkpt><trkpt lat="39.5463035" lon="1.0331802"><ele>0.0</ele><time>2026-04-29T21:52:30.986Z</time></trkpt><trkpt lat="39.5463769" lon="1.0332379"><ele>0.0</ele><time>2026-04-29T21:52:31.985Z</time></trkpt><trkpt lat="39.5464531" lon="1.0332921"><ele>0.0</ele><time>2026-04-29T21:52:32.986Z</time></trkpt><trkpt lat="39.5465338" lon="1.0333478"><ele>0.0</ele><time>2026-04-29T21:52:33.986Z</time></trkpt><trkpt lat="39.54661" lon="1.0334088"><ele>0.0</ele><time>2026-04-29T21:52:34.986Z</time></trkpt><trkpt lat="39.5467487" lon="1.0335054"><ele>0.0</ele><time>2026-04-29T21:52:36.985Z</time></trkpt><trkpt lat="39.5468249" lon="1.0335497"><ele>0.0</ele><time>2026-04-29T21:52:37.985Z</time></trkpt><trkpt lat="39.5469014" lon="1.0335991"><ele>0.0</ele><time>2026-04-29T21:52:38.985Z</time></trkpt><trkpt lat="39.5469769" lon="1.0336475"><ele>0.0</ele><time>2026-04-29T21:52:39.985Z</time></trkpt><trkpt lat="39.5470592" lon="1.033698"><ele>0.0</ele><time>2026-04-29T21:52:40.985Z</time></trkpt><trkpt lat="39.5471381" lon="1.0337422"><ele>0.0</ele><time>2026-04-29T21:52:41.985Z</time></trkpt><trkpt lat="39.5472184" lon="1.0337941"><ele>0.0</ele><time>2026-04-29T21:52:42.986Z</time></trkpt><trkpt lat="39.547291" lon="1.0338634"><ele>0.0</ele><time>2026-04-29T21:52:43.985Z</time></trkpt><trkpt lat="39.5473684" lon="1.0339165"><ele>0.0</ele><time>2026-04-29T21:52:44.986Z</time></trkpt><trkpt lat="39.5474436" lon="1.0339684"><ele>0.0</ele><time>2026-04-29T21:52:45.986Z</time></trkpt><trkpt lat="39.5475913" lon="1.0340591"><ele>0.0</ele><time>2026-04-29T21:52:47.986Z</time></trkpt><trkpt lat="39.5476628" lon="1.0341069"><ele>0.0</ele><time>2026-04-29T21:52:48.985Z</time></trkpt><trkpt lat="39.5477313" lon="1.0341567"><ele>0.0</ele><time>2026-04-29T21:52:49.986Z</time></trkpt><trkpt lat="39.5478009" lon="1.0342051"><ele>0.0</ele><time>2026-04-29T21:52:50.986Z</time></trkpt><trkpt lat="39.5478764" lon="1.0342594"><ele>0.0</ele><time>2026-04-29T21:52:51.986Z</time></trkpt><trkpt lat="39.5479531" lon="1.0343236"><ele>0.0</ele><time>2026-04-29T21:52:52.986Z</time></trkpt><trkpt lat="39.5480317" lon="1.0343814"><ele>0.0</ele><time>2026-04-29T21:52:53.985Z</time></trkpt><trkpt lat="39.5481027" lon="1.0344275"><ele>0.0</ele><time>2026-04-29T21:52:54.986Z</time></trkpt><trkpt lat="39.548183" lon="1.0344796"><ele>0.0</ele><time>2026-04-29T21:52:55.986Z</time></trkpt><trkpt lat="39.548341" lon="1.034591"><ele>0.0</ele><time>2026-04-29T21:52:57.985Z</time></trkpt><trkpt lat="39.5484211" lon="1.0346494"><ele>0.0</ele><time>2026-04-29T21:52:58.985Z</time></trkpt><trkpt lat="39.5484898" lon="1.0346976"><ele>0.0</ele><time>2026-04-29T21:52:59.986Z</time></trkpt><trkpt lat="39.5485665" lon="1.03475"><ele>0.0</ele><time>2026-04-29T21:53:00.986Z</time></trkpt><trkpt lat="39.5486505" lon="1.0348058"><ele>0.0</ele><time>2026-04-29T21:53:01.985Z</time></trkpt><trkpt lat="39.5487282" lon="1.0348567"><ele>0.0</ele><time>2026-04-29T21:53:02.986Z</time></trkpt><trkpt lat="39.5488049" lon="1.0349137"><ele>0.0</ele><time>2026-04-29T21:53:03.985Z</time></trkpt><trkpt lat="39.5488818" lon="1.0349681"><ele>0.0</ele><time>2026-04-29T21:53:04.986Z</time></trkpt><trkpt lat="39.5489599" lon="1.035016"><ele>0.0</ele><time>2026-04-29T21:53:05.986Z</time></trkpt><trkpt lat="39.5490381" lon="1.035065"><ele>0.0</ele><time>2026-04-29T21:53:06.985Z</time></trkpt><trkpt lat="39.5491208" lon="1.0351163"><ele>0.0</ele><time>2026-04-29T21:53:07.985Z</time></trkpt><trkpt lat="39.549204" lon="1.0351721"><ele>0.0</ele><time>2026-04-29T21:53:08.986Z</time></trkpt><trkpt lat="39.5492733" lon="1.0352178"><ele>0.0</ele><time>2026-04-29T21:53:09.986Z</time></trkpt><trkpt lat="39.5493483" lon="1.0352721"><ele>0.0</ele><time>2026-04-29T21:53:10.985Z</time></trkpt><trkpt lat="39.5494239" lon="1.0353231"><ele>0.0</ele><time>2026-04-29T21:53:11.986Z</time></trkpt><trkpt lat="39.5494986" lon="1.0353717"><ele>0.0</ele><time>2026-04-29T21:53:12.985Z</time></trkpt><trkpt lat="39.5495692" lon="1.035428"><ele>0.0</ele><time>2026-04-29T21:53:13.985Z</time></trkpt><trkpt lat="39.5496418" lon="1.0354818"><ele>0.0</ele><time>2026-04-29T21:53:14.985Z</time></trkpt><trkpt lat="39.5497147" lon="1.0355333"><ele>0.0</ele><time>2026-04-29T21:53:15.986Z</time></trkpt><trkpt lat="39.5497879" lon="1.0355806"><ele>0.0</ele><time>2026-04-29T21:53:16.986Z</time></trkpt><trkpt lat="39.5498689" lon="1.0356328"><ele>0.0</ele><time>2026-04-29T21:53:17.986Z</time></trkpt><trkpt lat="39.5501076" lon="1.0357961"><ele>0.0</ele><time>2026-04-29T21:53:20.985Z</time></trkpt><trkpt lat="39.5501861" lon="1.0358497"><ele>0.0</ele><time>2026-04-29T21:53:21.985Z</time></trkpt><trkpt lat="39.5502576" lon="1.0358986"><ele>0.0</ele><time>2026-04-29T21:53:22.986Z</time></trkpt><trkpt lat="39.550335" lon="1.0359535"><ele>0.0</ele><time>2026-04-29T21:53:23.986Z</time></trkpt><trkpt lat="39.5504146" lon="1.0360077"><ele>0.0</ele><time>2026-04-29T21:53:24.985Z</time></trkpt><trkpt lat="39.550492" lon="1.03606"><ele>0.0</ele><time>2026-04-29T21:53:25.985Z</time></trkpt><trkpt lat="39.5505674" lon="1.0361157"><ele>0.0</ele><time>2026-04-29T21:53:26.986Z</time></trkpt><trkpt lat="39.5506417" lon="1.0361701"><ele>0.0</ele><time>2026-04-29T21:53:27.986Z</time></trkpt><trkpt lat="39.5507154" lon="1.0362258"><ele>0.0</ele><time>2026-04-29T21:53:28.986Z</time></trkpt><trkpt lat="39.5508004" lon="1.0362842"><ele>0.0</ele><time>2026-04-29T21:53:29.986Z</time></trkpt><trkpt lat="39.5508826" lon="1.0363401"><ele>0.0</ele><time>2026-04-29T21:53:30.985Z</time></trkpt><trkpt lat="39.55096" lon="1.0363891"><ele>0.0</ele><time>2026-04-29T21:53:31.985Z</time></trkpt><trkpt lat="39.5510381" lon="1.0364376"><ele>0.0</ele><time>2026-04-29T21:53:32.985Z</time></trkpt><trkpt lat="39.5511106" lon="1.0364875"><ele>0.0</ele><time>2026-04-29T21:53:33.986Z</time></trkpt><trkpt lat="39.5511837" lon="1.0365192"><ele>0.0</ele><time>2026-04-29T21:53:34.985Z</time></trkpt><trkpt lat="39.551257" lon="1.0365602"><ele>0.0</ele><time>2026-04-29T21:53:35.986Z</time></trkpt><trkpt lat="39.5513316" lon="1.0366147"><ele>0.0</ele><time>2026-04-29T21:53:36.986Z</time></trkpt><trkpt lat="39.5514094" lon="1.0366778"><ele>0.0</ele><time>2026-04-29T21:53:37.985Z</time></trkpt><trkpt lat="39.5514837" lon="1.0367329"><ele>0.0</ele><time>2026-04-29T21:53:38.985Z</time></trkpt><trkpt lat="39.5516314" lon="1.0368257"><ele>0.0</ele><time>2026-04-29T21:53:40.985Z</time></trkpt><trkpt lat="39.5517095" lon="1.0368755"><ele>0.0</ele><time>2026-04-29T21:53:41.985Z</time></trkpt><trkpt lat="39.5517918" lon="1.0369241"><ele>0.0</ele><time>2026-04-29T21:53:42.985Z</time></trkpt><trkpt lat="39.5518722" lon="1.036981"><ele>0.0</ele><time>2026-04-29T21:53:43.985Z</time></trkpt><trkpt lat="39.5519525" lon="1.0370344"><ele>0.0</ele><time>2026-04-29T21:53:44.986Z</time></trkpt><trkpt lat="39.5520328" lon="1.0370894"><ele>0.0</ele><time>2026-04-29T21:53:45.986Z</time></trkpt><trkpt lat="39.5521098" lon="1.0371445"><ele>0.0</ele><time>2026-04-29T21:53:46.986Z</time></trkpt><trkpt lat="39.552182" lon="1.037201"><ele>0.0</ele><time>2026-04-29T21:53:47.985Z</time></trkpt><trkpt lat="39.5522567" lon="1.0372426"><ele>0.0</ele><time>2026-04-29T21:53:48.986Z</time></trkpt><trkpt lat="39.5523288" lon="1.0372864"><ele>0.0</ele><time>2026-04-29T21:53:49.985Z</time></trkpt><trkpt lat="39.5524759" lon="1.0373725"><ele>0.0</ele><time>2026-04-29T21:53:51.985Z</time></trkpt><trkpt lat="39.5525491" lon="1.0374175"><ele>0.0</ele><time>2026-04-29T21:53:52.985Z</time></trkpt><trkpt lat="39.5526223" lon="1.0374771"><ele>0.0</ele><time>2026-04-29T21:53:53.986Z</time></trkpt><trkpt lat="39.5527013" lon="1.0375289"><ele>0.0</ele><time>2026-04-29T21:53:54.985Z</time></trkpt><trkpt lat="39.5527766" lon="1.03759"><ele>0.0</ele><time>2026-04-29T21:53:55.986Z</time></trkpt><trkpt lat="39.5528561" lon="1.0376579"><ele>0.0</ele><time>2026-04-29T21:53:56.985Z</time></trkpt><trkpt lat="39.5529313" lon="1.0377177"><ele>0.0</ele><time>2026-04-29T21:53:57.986Z</time></trkpt><trkpt lat="39.5530062" lon="1.0377787"><ele>0.0</ele><time>2026-04-29T21:53:58.986Z</time></trkpt><trkpt lat="39.5531582" lon="1.0378971"><ele>0.0</ele><time>2026-04-29T21:54:00.986Z</time></trkpt><trkpt lat="39.5532335" lon="1.0379511"><ele>0.0</ele><time>2026-04-29T21:54:01.986Z</time></trkpt><trkpt lat="39.5533043" lon="1.03799"><ele>0.0</ele><time>2026-04-29T21:54:02.985Z</time></trkpt><trkpt lat="39.5533827" lon="1.0380424"><ele>0.0</ele><time>2026-04-29T21:54:03.986Z</time></trkpt><trkpt lat="39.5534559" lon="1.0380924"><ele>0.0</ele><time>2026-04-29T21:54:04.986Z</time></trkpt><trkpt lat="39.5535303" lon="1.0381432"><ele>0.0</ele><time>2026-04-29T21:54:05.986Z</time></trkpt><trkpt lat="39.5536053" lon="1.0381976"><ele>0.0</ele><time>2026-04-29T21:54:06.986Z</time></trkpt><trkpt lat="39.5536792" lon="1.0382522"><ele>0.0</ele><time>2026-04-29T21:54:07.986Z</time></trkpt><trkpt lat="39.5537565" lon="1.0383077"><ele>0.0</ele><time>2026-04-29T21:54:08.986Z</time></trkpt><trkpt lat="39.5538301" lon="1.03837"><ele>0.0</ele><time>2026-04-29T21:54:09.985Z</time></trkpt><trkpt lat="39.5539094" lon="1.0384257"><ele>0.0</ele><time>2026-04-29T21:54:10.985Z</time></trkpt><trkpt lat="39.5539879" lon="1.0384791"><ele>0.0</ele><time>2026-04-29T21:54:11.985Z</time></trkpt><trkpt lat="39.554065" lon="1.0385311"><ele>0.0</ele><time>2026-04-29T21:54:12.985Z</time></trkpt><trkpt lat="39.5541431" lon="1.0385814"><ele>0.0</ele><time>2026-04-29T21:54:13.985Z</time></trkpt><trkpt lat="39.5542184" lon="1.038633"><ele>0.0</ele><time>2026-04-29T21:54:14.986Z</time></trkpt><trkpt lat="39.5542946" lon="1.0386887"><ele>0.0</ele><time>2026-04-29T21:54:15.986Z</time></trkpt><trkpt lat="39.5543717" lon="1.0387424"><ele>0.0</ele><time>2026-04-29T21:54:16.985Z</time></trkpt><trkpt lat="39.5544499" lon="1.0388005"><ele>0.0</ele><time>2026-04-29T21:54:17.986Z</time></trkpt><trkpt lat="39.5545222" lon="1.0388563"><ele>0.0</ele><time>2026-04-29T21:54:18.985Z</time></trkpt><trkpt lat="39.5545925" lon="1.0389154"><ele>0.0</ele><time>2026-04-29T21:54:19.986Z</time></trkpt><trkpt lat="39.5547322" lon="1.0390309"><ele>0.0</ele><time>2026-04-29T21:54:21.985Z</time></trkpt><trkpt lat="39.554874" lon="1.0391583"><ele>0.0</ele><time>2026-04-29T21:54:23.985Z</time></trkpt><trkpt lat="39.5549527" lon="1.0392157"><ele>0.0</ele><time>2026-04-29T21:54:24.986Z</time></trkpt><trkpt lat="39.5550324" lon="1.0392457"><ele>0.0</ele><time>2026-04-29T21:54:25.985Z</time></trkpt><trkpt lat="39.5551128" lon="1.0392968"><ele>0.0</ele><time>2026-04-29T21:54:26.986Z</time></trkpt><trkpt lat="39.5551937" lon="1.0393443"><ele>0.0</ele><time>2026-04-29T21:54:27.986Z</time></trkpt><trkpt lat="39.5552798" lon="1.0393991"><ele>0.0</ele><time>2026-04-29T21:54:28.985Z</time></trkpt><trkpt lat="39.5553638" lon="1.0394515"><ele>0.0</ele><time>2026-04-29T21:54:29.985Z</time></trkpt><trkpt lat="39.5554457" lon="1.0395119"><ele>0.0</ele><time>2026-04-29T21:54:30.985Z</time></trkpt><trkpt lat="39.5555259" lon="1.0395641"><ele>0.0</ele><time>2026-04-29T21:54:31.986Z</time></trkpt><trkpt lat="39.5556002" lon="1.0396127"><ele>0.0</ele><time>2026-04-29T21:54:32.986Z</time></trkpt><trkpt lat="39.5556769" lon="1.0396618"><ele>0.0</ele><time>2026-04-29T21:54:33.986Z</time></trkpt><trkpt lat="39.5557535" lon="1.0397161"><ele>0.0</ele><time>2026-04-29T21:54:34.986Z</time></trkpt><trkpt lat="39.5558286" lon="1.0397756"><ele>0.0</ele><time>2026-04-29T21:54:35.986Z</time></trkpt><trkpt lat="39.5559106" lon="1.0398349"><ele>0.0</ele><time>2026-04-29T21:54:36.986Z</time></trkpt><trkpt lat="39.5559878" lon="1.0398918"><ele>0.0</ele><time>2026-04-29T21:54:37.986Z</time></trkpt><trkpt lat="39.5560618" lon="1.0399553"><ele>0.0</ele><time>2026-04-29T21:54:38.985Z</time></trkpt><trkpt lat="39.5561377" lon="1.0400188"><ele>0.0</ele><time>2026-04-29T21:54:39.985Z</time></trkpt><trkpt lat="39.5562105" lon="1.0400923"><ele>0.0</ele><time>2026-04-29T21:54:40.985Z</time></trkpt><trkpt lat="39.5563521" lon="1.0402227"><ele>0.0</ele><time>2026-04-29T21:54:42.985Z</time></trkpt><trkpt lat="39.5564243" lon="1.0402844"><ele>0.0</ele><time>2026-04-29T21:54:43.985Z</time></trkpt><trkpt lat="39.556497" lon="1.0403396"><ele>0.0</ele><time>2026-04-29T21:54:44.985Z</time></trkpt><trkpt lat="39.5565676" lon="1.0403999"><ele>0.0</ele><time>2026-04-29T21:54:45.986Z</time></trkpt><trkpt lat="39.5566386" lon="1.0404619"><ele>0.0</ele><time>2026-04-29T21:54:46.985Z</time></trkpt><trkpt lat="39.5567159" lon="1.0405198"><ele>0.0</ele><time>2026-04-29T21:54:47.985Z</time></trkpt><trkpt lat="39.5568006" lon="1.0405721"><ele>0.0</ele><time>2026-04-29T21:54:48.985Z</time></trkpt><trkpt lat="39.5568769" lon="1.0406272"><ele>0.0</ele><time>2026-04-29T21:54:49.985Z</time></trkpt><trkpt lat="39.5569487" lon="1.0406776"><ele>0.0</ele><time>2026-04-29T21:54:50.985Z</time></trkpt><trkpt lat="39.5570173" lon="1.0407278"><ele>0.0</ele><time>2026-04-29T21:54:51.986Z</time></trkpt><trkpt lat="39.5570857" lon="1.0407817"><ele>0.0</ele><time>2026-04-29T21:54:52.986Z</time></trkpt><trkpt lat="39.5571571" lon="1.040835"><ele>0.0</ele><time>2026-04-29T21:54:53.985Z</time></trkpt><trkpt lat="39.5572287" lon="1.0408885"><ele>0.0</ele><time>2026-04-29T21:54:54.985Z</time></trkpt><trkpt lat="39.5573048" lon="1.0409404"><ele>0.0</ele><time>2026-04-29T21:54:55.985Z</time></trkpt><trkpt lat="39.5573845" lon="1.040993"><ele>0.0</ele><time>2026-04-29T21:54:56.986Z</time></trkpt><trkpt lat="39.5574587" lon="1.0410466"><ele>0.0</ele><time>2026-04-29T21:54:57.986Z</time></trkpt><trkpt lat="39.5575362" lon="1.0410997"><ele>0.0</ele><time>2026-04-29T21:54:58.986Z</time></trkpt><trkpt lat="39.5576115" lon="1.0411516"><ele>0.0</ele><time>2026-04-29T21:54:59.986Z</time></trkpt><trkpt lat="39.5576849" lon="1.0412073"><ele>0.0</ele><time>2026-04-29T21:55:00.986Z</time></trkpt><trkpt lat="39.5577642" lon="1.0412587"><ele>0.0</ele><time>2026-04-29T21:55:01.986Z</time></trkpt><trkpt lat="39.5579126" lon="1.0413596"><ele>0.0</ele><time>2026-04-29T21:55:03.985Z</time></trkpt><trkpt lat="39.5579927" lon="1.0414093"><ele>0.0</ele><time>2026-04-29T21:55:04.985Z</time></trkpt><trkpt lat="39.5580685" lon="1.0414576"><ele>0.0</ele><time>2026-04-29T21:55:05.985Z</time></trkpt><trkpt lat="39.5581435" lon="1.0415131"><ele>0.0</ele><time>2026-04-29T21:55:06.985Z</time></trkpt><trkpt lat="39.5582196" lon="1.0415698"><ele>0.0</ele><time>2026-04-29T21:55:07.986Z</time></trkpt><trkpt lat="39.5582978" lon="1.0416221"><ele>0.0</ele><time>2026-04-29T21:55:08.985Z</time></trkpt><trkpt lat="39.5583763" lon="1.0416722"><ele>0.0</ele><time>2026-04-29T21:55:09.985Z</time></trkpt><trkpt lat="39.5584532" lon="1.0417278"><ele>0.0</ele><time>2026-04-29T21:55:10.985Z</time></trkpt><trkpt lat="39.5585311" lon="1.0417813"><ele>0.0</ele><time>2026-04-29T21:55:11.985Z</time></trkpt><trkpt lat="39.5586097" lon="1.0418349"><ele>0.0</ele><time>2026-04-29T21:55:12.985Z</time></trkpt><trkpt lat="39.5586879" lon="1.0418868"><ele>0.0</ele><time>2026-04-29T21:55:13.986Z</time></trkpt><trkpt lat="39.5587649" lon="1.0419424"><ele>0.0</ele><time>2026-04-29T21:55:14.986Z</time></trkpt><trkpt lat="39.5588402" lon="1.0419932"><ele>0.0</ele><time>2026-04-29T21:55:15.985Z</time></trkpt><trkpt lat="39.5589155" lon="1.0420489"><ele>0.0</ele><time>2026-04-29T21:55:16.985Z</time></trkpt><trkpt lat="39.5589906" lon="1.0421026"><ele>0.0</ele><time>2026-04-29T21:55:17.985Z</time></trkpt><trkpt lat="39.5590649" lon="1.0421575"><ele>0.0</ele><time>2026-04-29T21:55:18.985Z</time></trkpt><trkpt lat="39.5591384" lon="1.0422171"><ele>0.0</ele><time>2026-04-29T21:55:19.985Z</time></trkpt><trkpt lat="39.5592131" lon="1.0422764"><ele>0.0</ele><time>2026-04-29T21:55:20.984Z</time></trkpt><trkpt lat="39.5592836" lon="1.0423307"><ele>0.0</ele><time>2026-04-29T21:55:21.985Z</time></trkpt><trkpt lat="39.5593594" lon="1.0423819"><ele>0.0</ele><time>2026-04-29T21:55:22.985Z</time></trkpt><trkpt lat="39.5595172" lon="1.0424803"><ele>0.0</ele><time>2026-04-29T21:55:24.984Z</time></trkpt><trkpt lat="39.5595932" lon="1.0425269"><ele>0.0</ele><time>2026-04-29T21:55:25.984Z</time></trkpt><trkpt lat="39.5597355" lon="1.0426138"><ele>0.0</ele><time>2026-04-29T21:55:27.985Z</time></trkpt><trkpt lat="39.5598112" lon="1.0426364"><ele>0.0</ele><time>2026-04-29T21:55:28.984Z</time></trkpt><trkpt lat="39.5598855" lon="1.042659"><ele>0.0</ele><time>2026-04-29T21:55:29.984Z</time></trkpt><trkpt lat="39.5599632" lon="1.0427023"><ele>0.0</ele><time>2026-04-29T21:55:30.984Z</time></trkpt><trkpt lat="39.5600426" lon="1.0427515"><ele>0.0</ele><time>2026-04-29T21:55:31.984Z</time></trkpt><trkpt lat="39.560124" lon="1.0428011"><ele>0.0</ele><time>2026-04-29T21:55:32.984Z</time></trkpt><trkpt lat="39.5602074" lon="1.0428512"><ele>0.0</ele><time>2026-04-29T21:55:33.985Z</time></trkpt><trkpt lat="39.5602897" lon="1.0428966"><ele>0.0</ele><time>2026-04-29T21:55:34.984Z</time></trkpt><trkpt lat="39.5603727" lon="1.0429446"><ele>0.0</ele><time>2026-04-29T21:55:35.984Z</time></trkpt><trkpt lat="39.5604542" lon="1.0429958"><ele>0.0</ele><time>2026-04-29T21:55:36.984Z</time></trkpt><trkpt lat="39.5605315" lon="1.043048"><ele>0.0</ele><time>2026-04-29T21:55:37.984Z</time></trkpt><trkpt lat="39.5606067" lon="1.0430965"><ele>0.0</ele><time>2026-04-29T21:55:38.984Z</time></trkpt><trkpt lat="39.5606804" lon="1.0431435"><ele>0.0</ele><time>2026-04-29T21:55:39.984Z</time></trkpt><trkpt lat="39.5607524" lon="1.0431951"><ele>0.0</ele><time>2026-04-29T21:55:40.985Z</time></trkpt><trkpt lat="39.5608239" lon="1.0432452"><ele>0.0</ele><time>2026-04-29T21:55:41.985Z</time></trkpt><trkpt lat="39.5608971" lon="1.0432965"><ele>0.0</ele><time>2026-04-29T21:55:42.984Z</time></trkpt><trkpt lat="39.5609729" lon="1.0433526"><ele>0.0</ele><time>2026-04-29T21:55:43.984Z</time></trkpt><trkpt lat="39.561118" lon="1.0434603"><ele>0.0</ele><time>2026-04-29T21:55:45.984Z</time></trkpt><trkpt lat="39.5611933" lon="1.0435111"><ele>0.0</ele><time>2026-04-29T21:55:46.985Z</time></trkpt><trkpt lat="39.5612671" lon="1.0435613"><ele>0.0</ele><time>2026-04-29T21:55:47.985Z</time></trkpt><trkpt lat="39.5613432" lon="1.0436211"><ele>0.0</ele><time>2026-04-29T21:55:48.984Z</time></trkpt><trkpt lat="39.5614212" lon="1.0436764"><ele>0.0</ele><time>2026-04-29T21:55:49.985Z</time></trkpt><trkpt lat="39.5615067" lon="1.0437338"><ele>0.0</ele><time>2026-04-29T21:55:50.984Z</time></trkpt><trkpt lat="39.5615821" lon="1.0437878"><ele>0.0</ele><time>2026-04-29T21:55:51.984Z</time></trkpt><trkpt lat="39.5616582" lon="1.0438312"><ele>0.0</ele><time>2026-04-29T21:55:52.985Z</time></trkpt><trkpt lat="39.5617381" lon="1.0438901"><ele>0.0</ele><time>2026-04-29T21:55:53.985Z</time></trkpt><trkpt lat="39.5618053" lon="1.0439301"><ele>0.0</ele><time>2026-04-29T21:55:54.984Z</time></trkpt><trkpt lat="39.5618819" lon="1.0439787"><ele>0.0</ele><time>2026-04-29T21:55:55.984Z</time></trkpt><trkpt lat="39.5619614" lon="1.044024"><ele>0.0</ele><time>2026-04-29T21:55:56.984Z</time></trkpt><trkpt lat="39.5620411" lon="1.0440757"><ele>0.0</ele><time>2026-04-29T21:55:57.984Z</time></trkpt><trkpt lat="39.5621968" lon="1.0441918"><ele>0.0</ele><time>2026-04-29T21:55:59.985Z</time></trkpt><trkpt lat="39.5622721" lon="1.0442475"><ele>0.0</ele><time>2026-04-29T21:56:00.984Z</time></trkpt><trkpt lat="39.5623472" lon="1.0443037"><ele>0.0</ele><time>2026-04-29T21:56:01.984Z</time></trkpt><trkpt lat="39.5624232" lon="1.0443565"><ele>0.0</ele><time>2026-04-29T21:56:02.984Z</time></trkpt><trkpt lat="39.5624987" lon="1.0444153"><ele>0.0</ele><time>2026-04-29T21:56:03.984Z</time></trkpt><trkpt lat="39.5625764" lon="1.0444784"><ele>0.0</ele><time>2026-04-29T21:56:04.984Z</time></trkpt><trkpt lat="39.5627317" lon="1.0445962"><ele>0.0</ele><time>2026-04-29T21:56:06.984Z</time></trkpt><trkpt lat="39.5628056" lon="1.0446587"><ele>0.0</ele><time>2026-04-29T21:56:07.984Z</time></trkpt><trkpt lat="39.5628774" lon="1.0447123"><ele>0.0</ele><time>2026-04-29T21:56:08.985Z</time></trkpt><trkpt lat="39.5629462" lon="1.0447614"><ele>0.0</ele><time>2026-04-29T21:56:09.985Z</time></trkpt><trkpt lat="39.5630213" lon="1.0448197"><ele>0.0</ele><time>2026-04-29T21:56:10.984Z</time></trkpt><trkpt lat="39.5630967" lon="1.0448763"><ele>0.0</ele><time>2026-04-29T21:56:11.985Z</time></trkpt><trkpt lat="39.5631756" lon="1.0449304"><ele>0.0</ele><time>2026-04-29T21:56:12.984Z</time></trkpt><trkpt lat="39.5632569" lon="1.044989"><ele>0.0</ele><time>2026-04-29T21:56:13.984Z</time></trkpt><trkpt lat="39.5633318" lon="1.0450493"><ele>0.0</ele><time>2026-04-29T21:56:14.984Z</time></trkpt><trkpt lat="39.5634036" lon="1.0451049"><ele>0.0</ele><time>2026-04-29T21:56:15.984Z</time></trkpt><trkpt lat="39.5634737" lon="1.0451595"><ele>0.0</ele><time>2026-04-29T21:56:16.984Z</time></trkpt><trkpt lat="39.5635497" lon="1.0452147"><ele>0.0</ele><time>2026-04-29T21:56:17.984Z</time></trkpt><trkpt lat="39.5636281" lon="1.0452662"><ele>0.0</ele><time>2026-04-29T21:56:18.984Z</time></trkpt><trkpt lat="39.5637079" lon="1.0453214"><ele>0.0</ele><time>2026-04-29T21:56:19.984Z</time></trkpt><trkpt lat="39.5637838" lon="1.0453747"><ele>0.0</ele><time>2026-04-29T21:56:20.985Z</time></trkpt><trkpt lat="39.5638473" lon="1.045393"><ele>0.0</ele><time>2026-04-29T21:56:21.985Z</time></trkpt><trkpt lat="39.5639204" lon="1.0454035"><ele>0.0</ele><time>2026-04-29T21:56:22.985Z</time></trkpt><trkpt lat="39.5639955" lon="1.0454456"><ele>0.0</ele><time>2026-04-29T21:56:23.985Z</time></trkpt><trkpt lat="39.5640719" lon="1.0454977"><ele>0.0</ele><time>2026-04-29T21:56:24.984Z</time></trkpt><trkpt lat="39.5641471" lon="1.0455509"><ele>0.0</ele><time>2026-04-29T21:56:25.985Z</time></trkpt><trkpt lat="39.5642915" lon="1.0456511"><ele>0.0</ele><time>2026-04-29T21:56:27.985Z</time></trkpt><trkpt lat="39.5643677" lon="1.0457107"><ele>0.0</ele><time>2026-04-29T21:56:28.984Z</time></trkpt><trkpt lat="39.5644462" lon="1.0457658"><ele>0.0</ele><time>2026-04-29T21:56:29.985Z</time></trkpt><trkpt lat="39.5645217" lon="1.0458236"><ele>0.0</ele><time>2026-04-29T21:56:30.984Z</time></trkpt><trkpt lat="39.5645982" lon="1.0458878"><ele>0.0</ele><time>2026-04-29T21:56:31.985Z</time></trkpt><trkpt lat="39.5646779" lon="1.0459458"><ele>0.0</ele><time>2026-04-29T21:56:32.985Z</time></trkpt><trkpt lat="39.5647519" lon="1.0460039"><ele>0.0</ele><time>2026-04-29T21:56:33.985Z</time></trkpt><trkpt lat="39.5648279" lon="1.0460665"><ele>0.0</ele><time>2026-04-29T21:56:34.984Z</time></trkpt><trkpt lat="39.5649016" lon="1.0461245"><ele>0.0</ele><time>2026-04-29T21:56:35.984Z</time></trkpt><trkpt lat="39.5649778" lon="1.0461841"><ele>0.0</ele><time>2026-04-29T21:56:36.985Z</time></trkpt><trkpt lat="39.5650515" lon="1.0462398"><ele>0.0</ele><time>2026-04-29T21:56:37.985Z</time></trkpt><trkpt lat="39.5651293" lon="1.0462992"><ele>0.0</ele><time>2026-04-29T21:56:38.985Z</time></trkpt><trkpt lat="39.5652079" lon="1.0463546"><ele>0.0</ele><time>2026-04-29T21:56:39.984Z</time></trkpt><trkpt lat="39.5652823" lon="1.0464164"><ele>0.0</ele><time>2026-04-29T21:56:40.985Z</time></trkpt><trkpt lat="39.5653624" lon="1.046475"><ele>0.0</ele><time>2026-04-29T21:56:41.984Z</time></trkpt><trkpt lat="39.5654373" lon="1.046514"><ele>0.0</ele><time>2026-04-29T21:56:42.985Z</time></trkpt><trkpt lat="39.5655066" lon="1.0465504"><ele>0.0</ele><time>2026-04-29T21:56:43.984Z</time></trkpt><trkpt lat="39.5655833" lon="1.0465984"><ele>0.0</ele><time>2026-04-29T21:56:44.984Z</time></trkpt><trkpt lat="39.5656631" lon="1.0466525"><ele>0.0</ele><time>2026-04-29T21:56:45.985Z</time></trkpt><trkpt lat="39.5657428" lon="1.0467047"><ele>0.0</ele><time>2026-04-29T21:56:46.984Z</time></trkpt><trkpt lat="39.5659018" lon="1.0468145"><ele>0.0</ele><time>2026-04-29T21:56:48.984Z</time></trkpt><trkpt lat="39.5659803" lon="1.0468675"><ele>0.0</ele><time>2026-04-29T21:56:49.984Z</time></trkpt><trkpt lat="39.5660556" lon="1.0469192"><ele>0.0</ele><time>2026-04-29T21:56:50.985Z</time></trkpt><trkpt lat="39.5661334" lon="1.046968"><ele>0.0</ele><time>2026-04-29T21:56:51.985Z</time></trkpt><trkpt lat="39.5662117" lon="1.0470182"><ele>0.0</ele><time>2026-04-29T21:56:52.984Z</time></trkpt><trkpt lat="39.566281" lon="1.0470597"><ele>0.0</ele><time>2026-04-29T21:56:53.984Z</time></trkpt><trkpt lat="39.5663538" lon="1.0471069"><ele>0.0</ele><time>2026-04-29T21:56:54.985Z</time></trkpt><trkpt lat="39.5664284" lon="1.0471567"><ele>0.0</ele><time>2026-04-29T21:56:55.985Z</time></trkpt><trkpt lat="39.5664903" lon="1.0471895"><ele>0.0</ele><time>2026-04-29T21:56:56.984Z</time></trkpt><trkpt lat="39.5665649" lon="1.0472216"><ele>0.0</ele><time>2026-04-29T21:56:57.985Z</time></trkpt><trkpt lat="39.5666388" lon="1.0472725"><ele>0.0</ele><time>2026-04-29T21:56:58.984Z</time></trkpt><trkpt lat="39.5667094" lon="1.0473283"><ele>0.0</ele><time>2026-04-29T21:56:59.985Z</time></trkpt><trkpt lat="39.5667851" lon="1.0473809"><ele>0.0</ele><time>2026-04-29T21:57:00.985Z</time></trkpt><trkpt lat="39.5668646" lon="1.0474328"><ele>0.0</ele><time>2026-04-29T21:57:01.984Z</time></trkpt><trkpt lat="39.5669446" lon="1.0474873"><ele>0.0</ele><time>2026-04-29T21:57:02.984Z</time></trkpt><trkpt lat="39.5670247" lon="1.0475392"><ele>0.0</ele><time>2026-04-29T21:57:03.984Z</time></trkpt><trkpt lat="39.5671045" lon="1.0475943"><ele>0.0</ele><time>2026-04-29T21:57:04.984Z</time></trkpt><trkpt lat="39.5671813" lon="1.0476496"><ele>0.0</ele><time>2026-04-29T21:57:05.984Z</time></trkpt><trkpt lat="39.5672539" lon="1.0477094"><ele>0.0</ele><time>2026-04-29T21:57:06.984Z</time></trkpt><trkpt lat="39.5673256" lon="1.0477711"><ele>0.0</ele><time>2026-04-29T21:57:07.985Z</time></trkpt><trkpt lat="39.5674722" lon="1.0479069"><ele>0.0</ele><time>2026-04-29T21:57:09.985Z</time></trkpt><trkpt lat="39.5675467" lon="1.0479703"><ele>0.0</ele><time>2026-04-29T21:57:10.984Z</time></trkpt><trkpt lat="39.5676248" lon="1.0480311"><ele>0.0</ele><time>2026-04-29T21:57:11.985Z</time></trkpt><trkpt lat="39.5677114" lon="1.0481168"><ele>0.0</ele><time>2026-04-29T21:57:12.984Z</time></trkpt><trkpt lat="39.5677925" lon="1.048184"><ele>0.0</ele><time>2026-04-29T21:57:13.985Z</time></trkpt><trkpt lat="39.5678711" lon="1.0482373"><ele>0.0</ele><time>2026-04-29T21:57:14.985Z</time></trkpt><trkpt lat="39.5679398" lon="1.0482968"><ele>0.0</ele><time>2026-04-29T21:57:15.985Z</time></trkpt><trkpt lat="39.5680182" lon="1.0483504"><ele>0.0</ele><time>2026-04-29T21:57:16.984Z</time></trkpt><trkpt lat="39.5680976" lon="1.0484068"><ele>0.0</ele><time>2026-04-29T21:57:17.984Z</time></trkpt><trkpt lat="39.5681763" lon="1.048467"><ele>0.0</ele><time>2026-04-29T21:57:18.985Z</time></trkpt><trkpt lat="39.5682534" lon="1.0485246"><ele>0.0</ele><time>2026-04-29T21:57:19.984Z</time></trkpt><trkpt lat="39.5683356" lon="1.0485722"><ele>0.0</ele><time>2026-04-29T21:57:20.985Z</time></trkpt><trkpt lat="39.5684135" lon="1.0486263"><ele>0.0</ele><time>2026-04-29T21:57:21.984Z</time></trkpt><trkpt lat="39.568495" lon="1.0486794"><ele>0.0</ele><time>2026-04-29T21:57:22.984Z</time></trkpt><trkpt lat="39.5685704" lon="1.0487354"><ele>0.0</ele><time>2026-04-29T21:57:23.984Z</time></trkpt><trkpt lat="39.5686495" lon="1.048795"><ele>0.0</ele><time>2026-04-29T21:57:24.984Z</time></trkpt><trkpt lat="39.5687296" lon="1.0488552"><ele>0.0</ele><time>2026-04-29T21:57:25.984Z</time></trkpt><trkpt lat="39.568805" lon="1.0489138"><ele>0.0</ele><time>2026-04-29T21:57:26.984Z</time></trkpt><trkpt lat="39.5688789" lon="1.0489692"><ele>0.0</ele><time>2026-04-29T21:57:27.985Z</time></trkpt><trkpt lat="39.5689553" lon="1.0490204"><ele>0.0</ele><time>2026-04-29T21:57:28.984Z</time></trkpt><trkpt lat="39.5691086" lon="1.0491257"><ele>0.0</ele><time>2026-04-29T21:57:30.985Z</time></trkpt><trkpt lat="39.5691822" lon="1.049178"><ele>0.0</ele><time>2026-04-29T21:57:31.984Z</time></trkpt><trkpt lat="39.56926" lon="1.0492369"><ele>0.0</ele><time>2026-04-29T21:57:32.985Z</time></trkpt><trkpt lat="39.569337" lon="1.049293"><ele>0.0</ele><time>2026-04-29T21:57:33.985Z</time></trkpt><trkpt lat="39.5694091" lon="1.0493602"><ele>0.0</ele><time>2026-04-29T21:57:34.984Z</time></trkpt><trkpt lat="39.5694894" lon="1.0494197"><ele>0.0</ele><time>2026-04-29T21:57:35.984Z</time></trkpt><trkpt lat="39.5695671" lon="1.0494817"><ele>0.0</ele><time>2026-04-29T21:57:36.985Z</time></trkpt><trkpt lat="39.569638" lon="1.0495281"><ele>0.0</ele><time>2026-04-29T21:57:37.985Z</time></trkpt><trkpt lat="39.5697093" lon="1.0495742"><ele>0.0</ele><time>2026-04-29T21:57:38.985Z</time></trkpt><trkpt lat="39.5697833" lon="1.0496229"><ele>0.0</ele><time>2026-04-29T21:57:39.985Z</time></trkpt><trkpt lat="39.5698595" lon="1.0496821"><ele>0.0</ele><time>2026-04-29T21:57:40.984Z</time></trkpt><trkpt lat="39.5699378" lon="1.0497444"><ele>0.0</ele><time>2026-04-29T21:57:41.984Z</time></trkpt><trkpt lat="39.5700161" lon="1.0497947"><ele>0.0</ele><time>2026-04-29T21:57:42.985Z</time></trkpt><trkpt lat="39.5700939" lon="1.0498385"><ele>0.0</ele><time>2026-04-29T21:57:43.985Z</time></trkpt><trkpt lat="39.5701729" lon="1.0498857"><ele>0.0</ele><time>2026-04-29T21:57:44.984Z</time></trkpt><trkpt lat="39.5702516" lon="1.0499326"><ele>0.0</ele><time>2026-04-29T21:57:45.984Z</time></trkpt><trkpt lat="39.5703197" lon="1.0499853"><ele>0.0</ele><time>2026-04-29T21:57:46.984Z</time></trkpt><trkpt lat="39.5703877" lon="1.0500415"><ele>0.0</ele><time>2026-04-29T21:57:47.985Z</time></trkpt><trkpt lat="39.5704531" lon="1.0500925"><ele>0.0</ele><time>2026-04-29T21:57:48.984Z</time></trkpt><trkpt lat="39.5705236" lon="1.0501583"><ele>0.0</ele><time>2026-04-29T21:57:49.985Z</time></trkpt><trkpt lat="39.570673" lon="1.0502648"><ele>0.0</ele><time>2026-04-29T21:57:51.985Z</time></trkpt><trkpt lat="39.5707465" lon="1.0503171"><ele>0.0</ele><time>2026-04-29T21:57:52.985Z</time></trkpt><trkpt lat="39.5708231" lon="1.0503734"><ele>0.0</ele><time>2026-04-29T21:57:53.984Z</time></trkpt><trkpt lat="39.5709013" lon="1.0504286"><ele>0.0</ele><time>2026-04-29T21:57:54.984Z</time></trkpt><trkpt lat="39.5709825" lon="1.0504831"><ele>0.0</ele><time>2026-04-29T21:57:55.985Z</time></trkpt><trkpt lat="39.57106" lon="1.0505352"><ele>0.0</ele><time>2026-04-29T21:57:56.985Z</time></trkpt><trkpt lat="39.5711465" lon="1.0505925"><ele>0.0</ele><time>2026-04-29T21:57:57.985Z</time></trkpt><trkpt lat="39.5712319" lon="1.0506473"><ele>0.0</ele><time>2026-04-29T21:57:58.984Z</time></trkpt><trkpt lat="39.571317" lon="1.0507026"><ele>0.0</ele><time>2026-04-29T21:57:59.984Z</time></trkpt><trkpt lat="39.5713951" lon="1.0507518"><ele>0.0</ele><time>2026-04-29T21:58:00.984Z</time></trkpt><trkpt lat="39.5714733" lon="1.050803"><ele>0.0</ele><time>2026-04-29T21:58:01.984Z</time></trkpt><trkpt lat="39.5715502" lon="1.0508535"><ele>0.0</ele><time>2026-04-29T21:58:02.984Z</time></trkpt><trkpt lat="39.571624" lon="1.0509071"><ele>0.0</ele><time>2026-04-29T21:58:03.984Z</time></trkpt><trkpt lat="39.571696" lon="1.0509604"><ele>0.0</ele><time>2026-04-29T21:58:04.985Z</time></trkpt><trkpt lat="39.5717675" lon="1.0510138"><ele>0.0</ele><time>2026-04-29T21:58:05.984Z</time></trkpt><trkpt lat="39.571915" lon="1.0511074"><ele>0.0</ele><time>2026-04-29T21:58:07.984Z</time></trkpt><trkpt lat="39.5719901" lon="1.0511582"><ele>0.0</ele><time>2026-04-29T21:58:08.985Z</time></trkpt><trkpt lat="39.5720669" lon="1.0512117"><ele>0.0</ele><time>2026-04-29T21:58:09.985Z</time></trkpt><trkpt lat="39.5721421" lon="1.0512685"><ele>0.0</ele><time>2026-04-29T21:58:10.985Z</time></trkpt><trkpt lat="39.5722883" lon="1.0513802"><ele>0.0</ele><time>2026-04-29T21:58:12.985Z</time></trkpt><trkpt lat="39.5723659" lon="1.0514343"><ele>0.0</ele><time>2026-04-29T21:58:13.985Z</time></trkpt><trkpt lat="39.572443" lon="1.051494"><ele>0.0</ele><time>2026-04-29T21:58:14.984Z</time></trkpt><trkpt lat="39.5725197" lon="1.0515458"><ele>0.0</ele><time>2026-04-29T21:58:15.984Z</time></trkpt><trkpt lat="39.5725965" lon="1.0515973"><ele>0.0</ele><time>2026-04-29T21:58:16.984Z</time></trkpt><trkpt lat="39.5726703" lon="1.0516626"><ele>0.0</ele><time>2026-04-29T21:58:17.984Z</time></trkpt><trkpt lat="39.5727495" lon="1.0517154"><ele>0.0</ele><time>2026-04-29T21:58:18.984Z</time></trkpt><trkpt lat="39.5728263" lon="1.0517656"><ele>0.0</ele><time>2026-04-29T21:58:19.985Z</time></trkpt><trkpt lat="39.5729061" lon="1.0518166"><ele>0.0</ele><time>2026-04-29T21:58:20.985Z</time></trkpt><trkpt lat="39.5729863" lon="1.051867"><ele>0.0</ele><time>2026-04-29T21:58:21.984Z</time></trkpt><trkpt lat="39.5730616" lon="1.0519243"><ele>0.0</ele><time>2026-04-29T21:58:22.984Z</time></trkpt><trkpt lat="39.5731351" lon="1.0519788"><ele>0.0</ele><time>2026-04-29T21:58:23.984Z</time></trkpt><trkpt lat="39.5732161" lon="1.0520301"><ele>0.0</ele><time>2026-04-29T21:58:24.985Z</time></trkpt><trkpt lat="39.5732808" lon="1.0520673"><ele>0.0</ele><time>2026-04-29T21:58:25.984Z</time></trkpt><trkpt lat="39.5733568" lon="1.0521109"><ele>0.0</ele><time>2026-04-29T21:58:26.985Z</time></trkpt><trkpt lat="39.5734317" lon="1.052166"><ele>0.0</ele><time>2026-04-29T21:58:27.984Z</time></trkpt><trkpt lat="39.5735069" lon="1.0522167"><ele>0.0</ele><time>2026-04-29T21:58:28.985Z</time></trkpt><trkpt lat="39.5735819" lon="1.0522635"><ele>0.0</ele><time>2026-04-29T21:58:29.984Z</time></trkpt><trkpt lat="39.5736601" lon="1.0523102"><ele>0.0</ele><time>2026-04-29T21:58:30.985Z</time></trkpt><trkpt lat="39.5737381" lon="1.0523496"><ele>0.0</ele><time>2026-04-29T21:58:31.985Z</time></trkpt><trkpt lat="39.5738912" lon="1.0524563"><ele>0.0</ele><time>2026-04-29T21:58:33.984Z</time></trkpt><trkpt lat="39.573961" lon="1.0524995"><ele>0.0</ele><time>2026-04-29T21:58:34.984Z</time></trkpt><trkpt lat="39.574037" lon="1.052547"><ele>0.0</ele><time>2026-04-29T21:58:35.984Z</time></trkpt><trkpt lat="39.5741018" lon="1.052591"><ele>0.0</ele><time>2026-04-29T21:58:36.984Z</time></trkpt><trkpt lat="39.5741776" lon="1.0526359"><ele>0.0</ele><time>2026-04-29T21:58:37.985Z</time></trkpt><trkpt lat="39.5743301" lon="1.0527318"><ele>0.0</ele><time>2026-04-29T21:58:39.985Z</time></trkpt><trkpt lat="39.574414" lon="1.0527796"><ele>0.0</ele><time>2026-04-29T21:58:40.985Z</time></trkpt><trkpt lat="39.5744919" lon="1.0528369"><ele>0.0</ele><time>2026-04-29T21:58:41.984Z</time></trkpt><trkpt lat="39.57457" lon="1.0528922"><ele>0.0</ele><time>2026-04-29T21:58:42.984Z</time></trkpt><trkpt lat="39.5746441" lon="1.0529491"><ele>0.0</ele><time>2026-04-29T21:58:43.985Z</time></trkpt><trkpt lat="39.5747191" lon="1.0530002"><ele>0.0</ele><time>2026-04-29T21:58:44.984Z</time></trkpt><trkpt lat="39.5747981" lon="1.053051"><ele>0.0</ele><time>2026-04-29T21:58:45.984Z</time></trkpt><trkpt lat="39.5748736" lon="1.0531031"><ele>0.0</ele><time>2026-04-29T21:58:46.984Z</time></trkpt><trkpt lat="39.5749483" lon="1.0531631"><ele>0.0</ele><time>2026-04-29T21:58:47.984Z</time></trkpt><trkpt lat="39.5750249" lon="1.0532144"><ele>0.0</ele><time>2026-04-29T21:58:48.985Z</time></trkpt><trkpt lat="39.575105" lon="1.0532665"><ele>0.0</ele><time>2026-04-29T21:58:49.985Z</time></trkpt><trkpt lat="39.5751845" lon="1.0533181"><ele>0.0</ele><time>2026-04-29T21:58:50.985Z</time></trkpt><trkpt lat="39.5752649" lon="1.0533649"><ele>0.0</ele><time>2026-04-29T21:58:51.985Z</time></trkpt><trkpt lat="39.5753408" lon="1.0534158"><ele>0.0</ele><time>2026-04-29T21:58:52.985Z</time></trkpt><trkpt lat="39.5754822" lon="1.0534821"><ele>0.0</ele><time>2026-04-29T21:58:54.984Z</time></trkpt><trkpt lat="39.5755632" lon="1.0535361"><ele>0.0</ele><time>2026-04-29T21:58:55.985Z</time></trkpt><trkpt lat="39.5756391" lon="1.0535856"><ele>0.0</ele><time>2026-04-29T21:58:56.985Z</time></trkpt><trkpt lat="39.5757148" lon="1.0536347"><ele>0.0</ele><time>2026-04-29T21:58:57.984Z</time></trkpt><trkpt lat="39.5757903" lon="1.0536865"><ele>0.0</ele><time>2026-04-29T21:58:58.984Z</time></trkpt><trkpt lat="39.5758664" lon="1.0537382"><ele>0.0</ele><time>2026-04-29T21:58:59.985Z</time></trkpt><trkpt lat="39.575946" lon="1.053769"><ele>0.0</ele><time>2026-04-29T21:59:00.985Z</time></trkpt><trkpt lat="39.5760262" lon="1.0538158"><ele>0.0</ele><time>2026-04-29T21:59:01.984Z</time></trkpt><trkpt lat="39.5761063" lon="1.0538692"><ele>0.0</ele><time>2026-04-29T21:59:02.985Z</time></trkpt><trkpt lat="39.576185" lon="1.053921"><ele>0.0</ele><time>2026-04-29T21:59:03.984Z</time></trkpt><trkpt lat="39.5762629" lon="1.0539912"><ele>0.0</ele><time>2026-04-29T21:59:04.984Z</time></trkpt><trkpt lat="39.5763396" lon="1.0540506"><ele>0.0</ele><time>2026-04-29T21:59:05.985Z</time></trkpt><trkpt lat="39.5764178" lon="1.0541081"><ele>0.0</ele><time>2026-04-29T21:59:06.984Z</time></trkpt><trkpt lat="39.5764991" lon="1.0541704"><ele>0.0</ele><time>2026-04-29T21:59:07.985Z</time></trkpt><trkpt lat="39.5765779" lon="1.054232"><ele>0.0</ele><time>2026-04-29T21:59:08.985Z</time></trkpt><trkpt lat="39.576652" lon="1.0542919"><ele>0.0</ele><time>2026-04-29T21:59:09.985Z</time></trkpt><trkpt lat="39.5768018" lon="1.0544248"><ele>0.0</ele><time>2026-04-29T21:59:11.984Z</time></trkpt><trkpt lat="39.5768743" lon="1.0544822"><ele>0.0</ele><time>2026-04-29T21:59:12.985Z</time></trkpt><trkpt lat="39.57702" lon="1.0546004"><ele>0.0</ele><time>2026-04-29T21:59:14.984Z</time></trkpt><trkpt lat="39.5770936" lon="1.0546655"><ele>0.0</ele><time>2026-04-29T21:59:15.984Z</time></trkpt><trkpt lat="39.5771698" lon="1.0547276"><ele>0.0</ele><time>2026-04-29T21:59:16.984Z</time></trkpt><trkpt lat="39.5772451" lon="1.0547863"><ele>0.0</ele><time>2026-04-29T21:59:17.984Z</time></trkpt><trkpt lat="39.5773163" lon="1.0548422"><ele>0.0</ele><time>2026-04-29T21:59:18.985Z</time></trkpt><trkpt lat="39.5773888" lon="1.0548917"><ele>0.0</ele><time>2026-04-29T21:59:19.985Z</time></trkpt><trkpt lat="39.5774608" lon="1.0549435"><ele>0.0</ele><time>2026-04-29T21:59:20.985Z</time></trkpt><trkpt lat="39.5775365" lon="1.0549915"><ele>0.0</ele><time>2026-04-29T21:59:21.985Z</time></trkpt><trkpt lat="39.5776117" lon="1.0550427"><ele>0.0</ele><time>2026-04-29T21:59:22.984Z</time></trkpt><trkpt lat="39.5776897" lon="1.0550968"><ele>0.0</ele><time>2026-04-29T21:59:23.983Z</time></trkpt><trkpt lat="39.5777796" lon="1.0551438"><ele>0.0</ele><time>2026-04-29T21:59:24.983Z</time></trkpt><trkpt lat="39.5778582" lon="1.0551975"><ele>0.0</ele><time>2026-04-29T21:59:25.983Z</time></trkpt><trkpt lat="39.5779353" lon="1.0552468"><ele>0.0</ele><time>2026-04-29T21:59:26.983Z</time></trkpt><trkpt lat="39.5780135" lon="1.0553023"><ele>0.0</ele><time>2026-04-29T21:59:27.984Z</time></trkpt><trkpt lat="39.5780933" lon="1.0553543"><ele>0.0</ele><time>2026-04-29T21:59:28.984Z</time></trkpt><trkpt lat="39.5781761" lon="1.0554061"><ele>0.0</ele><time>2026-04-29T21:59:29.984Z</time></trkpt><trkpt lat="39.578251" lon="1.0554511"><ele>0.0</ele><time>2026-04-29T21:59:30.984Z</time></trkpt><trkpt lat="39.5783271" lon="1.0555086"><ele>0.0</ele><time>2026-04-29T21:59:31.983Z</time></trkpt><trkpt lat="39.5784037" lon="1.0555668"><ele>0.0</ele><time>2026-04-29T21:59:32.983Z</time></trkpt><trkpt lat="39.5784772" lon="1.0556298"><ele>0.0</ele><time>2026-04-29T21:59:33.983Z</time></trkpt><trkpt lat="39.5786221" lon="1.0557386"><ele>0.0</ele><time>2026-04-29T21:59:35.983Z</time></trkpt><trkpt lat="39.5786994" lon="1.0557857"><ele>0.0</ele><time>2026-04-29T21:59:36.984Z</time></trkpt><trkpt lat="39.5787795" lon="1.0558338"><ele>0.0</ele><time>2026-04-29T21:59:37.983Z</time></trkpt><trkpt lat="39.5788584" lon="1.0558845"><ele>0.0</ele><time>2026-04-29T21:59:38.983Z</time></trkpt><trkpt lat="39.5789424" lon="1.0559437"><ele>0.0</ele><time>2026-04-29T21:59:39.984Z</time></trkpt><trkpt lat="39.5790261" lon="1.0560048"><ele>0.0</ele><time>2026-04-29T21:59:40.984Z</time></trkpt><trkpt lat="39.5791092" lon="1.0560655"><ele>0.0</ele><time>2026-04-29T21:59:41.984Z</time></trkpt><trkpt lat="39.5792555" lon="1.0561135"><ele>0.0</ele><time>2026-04-29T21:59:43.984Z</time></trkpt><trkpt lat="39.5793317" lon="1.0561564"><ele>0.0</ele><time>2026-04-29T21:59:44.983Z</time></trkpt><trkpt lat="39.5794154" lon="1.05616"><ele>0.0</ele><time>2026-04-29T21:59:45.984Z</time></trkpt><trkpt lat="39.5794905" lon="1.0562078"><ele>0.0</ele><time>2026-04-29T21:59:46.984Z</time></trkpt><trkpt lat="39.5795638" lon="1.0562653"><ele>0.0</ele><time>2026-04-29T21:59:47.984Z</time></trkpt><trkpt lat="39.5796344" lon="1.0563254"><ele>0.0</ele><time>2026-04-29T21:59:48.983Z</time></trkpt><trkpt lat="39.5797075" lon="1.0563837"><ele>0.0</ele><time>2026-04-29T21:59:49.983Z</time></trkpt><trkpt lat="39.5797822" lon="1.0564364"><ele>0.0</ele><time>2026-04-29T21:59:50.983Z</time></trkpt><trkpt lat="39.5798583" lon="1.0564881"><ele>0.0</ele><time>2026-04-29T21:59:51.983Z</time></trkpt><trkpt lat="39.5799364" lon="1.0565444"><ele>0.0</ele><time>2026-04-29T21:59:52.983Z</time></trkpt><trkpt lat="39.5800075" lon="1.0566016"><ele>0.0</ele><time>2026-04-29T21:59:53.983Z</time></trkpt><trkpt lat="39.580079" lon="1.056652"><ele>0.0</ele><time>2026-04-29T21:59:54.984Z</time></trkpt><trkpt lat="39.580227" lon="1.0567541"><ele>0.0</ele><time>2026-04-29T21:59:56.984Z</time></trkpt><trkpt lat="39.5803033" lon="1.0568134"><ele>0.0</ele><time>2026-04-29T21:59:57.984Z</time></trkpt><trkpt lat="39.5803799" lon="1.0568721"><ele>0.0</ele><time>2026-04-29T21:59:58.983Z</time></trkpt><trkpt lat="39.5804537" lon="1.0569277"><ele>0.0</ele><time>2026-04-29T21:59:59.983Z</time></trkpt><trkpt lat="39.5805257" lon="1.0569842"><ele>0.0</ele><time>2026-04-29T22:00:00.984Z</time></trkpt><trkpt lat="39.5806003" lon="1.0570364"><ele>0.0</ele><time>2026-04-29T22:00:01.983Z</time></trkpt><trkpt lat="39.5806752" lon="1.057088"><ele>0.0</ele><time>2026-04-29T22:00:02.984Z</time></trkpt><trkpt lat="39.5807514" lon="1.0571441"><ele>0.0</ele><time>2026-04-29T22:00:03.984Z</time></trkpt><trkpt lat="39.5808249" lon="1.0571994"><ele>0.0</ele><time>2026-04-29T22:00:04.983Z</time></trkpt><trkpt lat="39.5809014" lon="1.0572529"><ele>0.0</ele><time>2026-04-29T22:00:05.984Z</time></trkpt><trkpt lat="39.5809782" lon="1.057303"><ele>0.0</ele><time>2026-04-29T22:00:06.983Z</time></trkpt><trkpt lat="39.5810566" lon="1.0573546"><ele>0.0</ele><time>2026-04-29T22:00:07.983Z</time></trkpt><trkpt lat="39.5811348" lon="1.0574093"><ele>0.0</ele><time>2026-04-29T22:00:08.984Z</time></trkpt><trkpt lat="39.5812115" lon="1.0574644"><ele>0.0</ele><time>2026-04-29T22:00:09.983Z</time></trkpt><trkpt lat="39.5812893" lon="1.0575238"><ele>0.0</ele><time>2026-04-29T22:00:10.983Z</time></trkpt><trkpt lat="39.5813668" lon="1.0575849"><ele>0.0</ele><time>2026-04-29T22:00:11.983Z</time></trkpt><trkpt lat="39.5814434" lon="1.0576509"><ele>0.0</ele><time>2026-04-29T22:00:12.983Z</time></trkpt><trkpt lat="39.5815189" lon="1.0577149"><ele>0.0</ele><time>2026-04-29T22:00:13.983Z</time></trkpt><trkpt lat="39.5815966" lon="1.0577725"><ele>0.0</ele><time>2026-04-29T22:00:14.984Z</time></trkpt><trkpt lat="39.5816732" lon="1.0578377"><ele>0.0</ele><time>2026-04-29T22:00:15.983Z</time></trkpt><trkpt lat="39.5818254" lon="1.0579545"><ele>0.0</ele><time>2026-04-29T22:00:17.983Z</time></trkpt><trkpt lat="39.5818986" lon="1.0580128"><ele>0.0</ele><time>2026-04-29T22:00:18.983Z</time></trkpt><trkpt lat="39.5819749" lon="1.0580724"><ele>0.0</ele><time>2026-04-29T22:00:19.984Z</time></trkpt><trkpt lat="39.5820486" lon="1.0581326"><ele>0.0</ele><time>2026-04-29T22:00:20.983Z</time></trkpt><trkpt lat="39.5821247" lon="1.0581886"><ele>0.0</ele><time>2026-04-29T22:00:21.983Z</time></trkpt><trkpt lat="39.5821997" lon="1.0582463"><ele>0.0</ele><time>2026-04-29T22:00:22.984Z</time></trkpt><trkpt lat="39.5822748" lon="1.0583062"><ele>0.0</ele><time>2026-04-29T22:00:23.983Z</time></trkpt><trkpt lat="39.58235" lon="1.0583674"><ele>0.0</ele><time>2026-04-29T22:00:24.983Z</time></trkpt><trkpt lat="39.5824263" lon="1.058425"><ele>0.0</ele><time>2026-04-29T22:00:25.984Z</time></trkpt><trkpt lat="39.5825017" lon="1.0584811"><ele>0.0</ele><time>2026-04-29T22:00:26.983Z</time></trkpt><trkpt lat="39.5825736" lon="1.0585404"><ele>0.0</ele><time>2026-04-29T22:00:27.984Z</time></trkpt><trkpt lat="39.5826496" lon="1.0585979"><ele>0.0</ele><time>2026-04-29T22:00:28.983Z</time></trkpt><trkpt lat="39.5827236" lon="1.0586532"><ele>0.0</ele><time>2026-04-29T22:00:29.983Z</time></trkpt><trkpt lat="39.5827964" lon="1.0587161"><ele>0.0</ele><time>2026-04-29T22:00:30.983Z</time></trkpt><trkpt lat="39.5828714" lon="1.0587765"><ele>0.0</ele><time>2026-04-29T22:00:31.984Z</time></trkpt><trkpt lat="39.5829482" lon="1.058832"><ele>0.0</ele><time>2026-04-29T22:00:32.984Z</time></trkpt><trkpt lat="39.5830322" lon="1.0588893"><ele>0.0</ele><time>2026-04-29T22:00:33.983Z</time></trkpt><trkpt lat="39.5831174" lon="1.0589453"><ele>0.0</ele><time>2026-04-29T22:00:34.983Z</time></trkpt><trkpt lat="39.583198" lon="1.0590052"><ele>0.0</ele><time>2026-04-29T22:00:35.983Z</time></trkpt><trkpt lat="39.5832809" lon="1.0590568"><ele>0.0</ele><time>2026-04-29T22:00:36.983Z</time></trkpt><trkpt lat="39.5834411" lon="1.0591594"><ele>0.0</ele><time>2026-04-29T22:00:38.984Z</time></trkpt><trkpt lat="39.5835218" lon="1.0592067"><ele>0.0</ele><time>2026-04-29T22:00:39.984Z</time></trkpt><trkpt lat="39.5836021" lon="1.0592535"><ele>0.0</ele><time>2026-04-29T22:00:40.983Z</time></trkpt><trkpt lat="39.5836792" lon="1.0593075"><ele>0.0</ele><time>2026-04-29T22:00:41.983Z</time></trkpt><trkpt lat="39.5837554" lon="1.0593532"><ele>0.0</ele><time>2026-04-29T22:00:42.984Z</time></trkpt><trkpt lat="39.5838331" lon="1.0593936"><ele>0.0</ele><time>2026-04-29T22:00:43.984Z</time></trkpt><trkpt lat="39.5839115" lon="1.0594347"><ele>0.0</ele><time>2026-04-29T22:00:44.984Z</time></trkpt><trkpt lat="39.5839916" lon="1.0594773"><ele>0.0</ele><time>2026-04-29T22:00:45.984Z</time></trkpt><trkpt lat="39.5840699" lon="1.0595207"><ele>0.0</ele><time>2026-04-29T22:00:46.983Z</time></trkpt><trkpt lat="39.5841439" lon="1.0595756"><ele>0.0</ele><time>2026-04-29T22:00:47.983Z</time></trkpt><trkpt lat="39.5842203" lon="1.0596299"><ele>0.0</ele><time>2026-04-29T22:00:48.984Z</time></trkpt><trkpt lat="39.5842954" lon="1.0596858"><ele>0.0</ele><time>2026-04-29T22:00:49.983Z</time></trkpt><trkpt lat="39.5843702" lon="1.0597415"><ele>0.0</ele><time>2026-04-29T22:00:50.984Z</time></trkpt><trkpt lat="39.5844454" lon="1.0597981"><ele>0.0</ele><time>2026-04-29T22:00:51.983Z</time></trkpt><trkpt lat="39.5845159" lon="1.0598543"><ele>0.0</ele><time>2026-04-29T22:00:52.984Z</time></trkpt><trkpt lat="39.5845901" lon="1.0599033"><ele>0.0</ele><time>2026-04-29T22:00:53.984Z</time></trkpt><trkpt lat="39.5846642" lon="1.0599533"><ele>0.0</ele><time>2026-04-29T22:00:54.984Z</time></trkpt><trkpt lat="39.5847432" lon="1.0600008"><ele>0.0</ele><time>2026-04-29T22:00:55.984Z</time></trkpt><trkpt lat="39.5848203" lon="1.0600532"><ele>0.0</ele><time>2026-04-29T22:00:56.984Z</time></trkpt><trkpt lat="39.5848985" lon="1.0601006"><ele>0.0</ele><time>2026-04-29T22:00:57.984Z</time></trkpt><trkpt lat="39.5850524" lon="1.0601971"><ele>0.0</ele><time>2026-04-29T22:00:59.984Z</time></trkpt><trkpt lat="39.5851272" lon="1.060241"><ele>0.0</ele><time>2026-04-29T22:01:00.983Z</time></trkpt><trkpt lat="39.5852092" lon="1.0602911"><ele>0.0</ele><time>2026-04-29T22:01:01.984Z</time></trkpt><trkpt lat="39.5852855" lon="1.060344"><ele>0.0</ele><time>2026-04-29T22:01:02.983Z</time></trkpt><trkpt lat="39.5853578" lon="1.0603951"><ele>0.0</ele><time>2026-04-29T22:01:03.983Z</time></trkpt><trkpt lat="39.5854291" lon="1.0604542"><ele>0.0</ele><time>2026-04-29T22:01:04.984Z</time></trkpt><trkpt lat="39.5855024" lon="1.0605103"><ele>0.0</ele><time>2026-04-29T22:01:05.983Z</time></trkpt><trkpt lat="39.5855813" lon="1.0605739"><ele>0.0</ele><time>2026-04-29T22:01:06.983Z</time></trkpt><trkpt lat="39.5856591" lon="1.0606417"><ele>0.0</ele><time>2026-04-29T22:01:07.983Z</time></trkpt><trkpt lat="39.5857363" lon="1.0607141"><ele>0.0</ele><time>2026-04-29T22:01:08.983Z</time></trkpt><trkpt lat="39.5858103" lon="1.0607772"><ele>0.0</ele><time>2026-04-29T22:01:09.984Z</time></trkpt><trkpt lat="39.5858851" lon="1.060846"><ele>0.0</ele><time>2026-04-29T22:01:10.983Z</time></trkpt><trkpt lat="39.58596" lon="1.0609109"><ele>0.0</ele><time>2026-04-29T22:01:11.983Z</time></trkpt><trkpt lat="39.5860352" lon="1.0609683"><ele>0.0</ele><time>2026-04-29T22:01:12.984Z</time></trkpt><trkpt lat="39.5861089" lon="1.0610262"><ele>0.0</ele><time>2026-04-29T22:01:13.984Z</time></trkpt><trkpt lat="39.586188" lon="1.0610785"><ele>0.0</ele><time>2026-04-29T22:01:14.984Z</time></trkpt><trkpt lat="39.5862679" lon="1.0611247"><ele>0.0</ele><time>2026-04-29T22:01:15.983Z</time></trkpt><trkpt lat="39.5863466" lon="1.061177"><ele>0.0</ele><time>2026-04-29T22:01:16.984Z</time></trkpt><trkpt lat="39.5864308" lon="1.0612144"><ele>0.0</ele><time>2026-04-29T22:01:17.983Z</time></trkpt><trkpt lat="39.5866614" lon="1.0613216"><ele>0.0</ele><time>2026-04-29T22:01:20.983Z</time></trkpt><trkpt lat="39.5867368" lon="1.0613706"><ele>0.0</ele><time>2026-04-29T22:01:21.983Z</time></trkpt><trkpt lat="39.5868088" lon="1.0614305"><ele>0.0</ele><time>2026-04-29T22:01:22.984Z</time></trkpt><trkpt lat="39.5868865" lon="1.0615002"><ele>0.0</ele><time>2026-04-29T22:01:23.983Z</time></trkpt><trkpt lat="39.5869616" lon="1.061572"><ele>0.0</ele><time>2026-04-29T22:01:24.983Z</time></trkpt><trkpt lat="39.5870367" lon="1.0616364"><ele>0.0</ele><time>2026-04-29T22:01:25.984Z</time></trkpt><trkpt lat="39.5871135" lon="1.0616942"><ele>0.0</ele><time>2026-04-29T22:01:26.984Z</time></trkpt><trkpt lat="39.5871887" lon="1.0617478"><ele>0.0</ele><time>2026-04-29T22:01:27.983Z</time></trkpt><trkpt lat="39.5872637" lon="1.0618104"><ele>0.0</ele><time>2026-04-29T22:01:28.983Z</time></trkpt><trkpt lat="39.5873413" lon="1.0618674"><ele>0.0</ele><time>2026-04-29T22:01:29.984Z</time></trkpt><trkpt lat="39.5874183" lon="1.0619314"><ele>0.0</ele><time>2026-04-29T22:01:30.983Z</time></trkpt><trkpt lat="39.5874949" lon="1.0619873"><ele>0.0</ele><time>2026-04-29T22:01:31.984Z</time></trkpt><trkpt lat="39.5875685" lon="1.0620452"><ele>0.0</ele><time>2026-04-29T22:01:32.983Z</time></trkpt><trkpt lat="39.5876478" lon="1.0621028"><ele>0.0</ele><time>2026-04-29T22:01:33.984Z</time></trkpt><trkpt lat="39.5877249" lon="1.0621653"><ele>0.0</ele><time>2026-04-29T22:01:34.983Z</time></trkpt><trkpt lat="39.5878013" lon="1.0622246"><ele>0.0</ele><time>2026-04-29T22:01:35.984Z</time></trkpt><trkpt lat="39.5878741" lon="1.06228"><ele>0.0</ele><time>2026-04-29T22:01:36.984Z</time></trkpt><trkpt lat="39.5879501" lon="1.0622998"><ele>0.0</ele><time>2026-04-29T22:01:37.984Z</time></trkpt><trkpt lat="39.5880312" lon="1.0623491"><ele>0.0</ele><time>2026-04-29T22:01:38.983Z</time></trkpt><trkpt lat="39.5881098" lon="1.0624004"><ele>0.0</ele><time>2026-04-29T22:01:39.983Z</time></trkpt><trkpt lat="39.5882619" lon="1.062508"><ele>0.0</ele><time>2026-04-29T22:01:41.984Z</time></trkpt><trkpt lat="39.5883396" lon="1.062559"><ele>0.0</ele><time>2026-04-29T22:01:42.983Z</time></trkpt><trkpt lat="39.5884177" lon="1.0626073"><ele>0.0</ele><time>2026-04-29T22:01:43.983Z</time></trkpt><trkpt lat="39.5884948" lon="1.0626569"><ele>0.0</ele><time>2026-04-29T22:01:44.983Z</time></trkpt><trkpt lat="39.5885712" lon="1.0627071"><ele>0.0</ele><time>2026-04-29T22:01:45.983Z</time></trkpt><trkpt lat="39.588651" lon="1.0627578"><ele>0.0</ele><time>2026-04-29T22:01:46.983Z</time></trkpt><trkpt lat="39.5887314" lon="1.0628076"><ele>0.0</ele><time>2026-04-29T22:01:47.983Z</time></trkpt><trkpt lat="39.5888069" lon="1.0628573"><ele>0.0</ele><time>2026-04-29T22:01:48.983Z</time></trkpt><trkpt lat="39.588885" lon="1.062908"><ele>0.0</ele><time>2026-04-29T22:01:49.983Z</time></trkpt><trkpt lat="39.5890371" lon="1.0630132"><ele>0.0</ele><time>2026-04-29T22:01:51.984Z</time></trkpt><trkpt lat="39.5891119" lon="1.0630627"><ele>0.0</ele><time>2026-04-29T22:01:52.984Z</time></trkpt><trkpt lat="39.5891852" lon="1.0631124"><ele>0.0</ele><time>2026-04-29T22:01:53.983Z</time></trkpt><trkpt lat="39.589259" lon="1.0631621"><ele>0.0</ele><time>2026-04-29T22:01:54.983Z</time></trkpt><trkpt lat="39.5893319" lon="1.0632125"><ele>0.0</ele><time>2026-04-29T22:01:55.983Z</time></trkpt><trkpt lat="39.5894055" lon="1.0632644"><ele>0.0</ele><time>2026-04-29T22:01:56.983Z</time></trkpt><trkpt lat="39.5894844" lon="1.0633149"><ele>0.0</ele><time>2026-04-29T22:01:57.983Z</time></trkpt><trkpt lat="39.589559" lon="1.0633677"><ele>0.0</ele><time>2026-04-29T22:01:58.984Z</time></trkpt><trkpt lat="39.5896363" lon="1.0634188"><ele>0.0</ele><time>2026-04-29T22:01:59.983Z</time></trkpt><trkpt lat="39.5897119" lon="1.0634604"><ele>0.0</ele><time>2026-04-29T22:02:00.983Z</time></trkpt><trkpt lat="39.589862" lon="1.0635498"><ele>0.0</ele><time>2026-04-29T22:02:02.984Z</time></trkpt><trkpt lat="39.5899398" lon="1.063604"><ele>0.0</ele><time>2026-04-29T22:02:03.984Z</time></trkpt><trkpt lat="39.5900169" lon="1.0636566"><ele>0.0</ele><time>2026-04-29T22:02:04.983Z</time></trkpt><trkpt lat="39.5900962" lon="1.0637085"><ele>0.0</ele><time>2026-04-29T22:02:05.984Z</time></trkpt><trkpt lat="39.5901747" lon="1.0637584"><ele>0.0</ele><time>2026-04-29T22:02:06.983Z</time></trkpt><trkpt lat="39.5902548" lon="1.0638052"><ele>0.0</ele><time>2026-04-29T22:02:07.984Z</time></trkpt><trkpt lat="39.5903352" lon="1.0638008"><ele>0.0</ele><time>2026-04-29T22:02:08.983Z</time></trkpt><trkpt lat="39.5904126" lon="1.0638403"><ele>0.0</ele><time>2026-04-29T22:02:09.983Z</time></trkpt><trkpt lat="39.5904907" lon="1.0638879"><ele>0.0</ele><time>2026-04-29T22:02:10.983Z</time></trkpt><trkpt lat="39.5905627" lon="1.063942"><ele>0.0</ele><time>2026-04-29T22:02:11.983Z</time></trkpt><trkpt lat="39.5906359" lon="1.0639706"><ele>0.0</ele><time>2026-04-29T22:02:12.984Z</time></trkpt><trkpt lat="39.5907048" lon="1.0640115"><ele>0.0</ele><time>2026-04-29T22:02:13.984Z</time></trkpt><trkpt lat="39.5907802" lon="1.0640614"><ele>0.0</ele><time>2026-04-29T22:02:14.984Z</time></trkpt><trkpt lat="39.5908581" lon="1.0641054"><ele>0.0</ele><time>2026-04-29T22:02:15.983Z</time></trkpt><trkpt lat="39.5909365" lon="1.0641546"><ele>0.0</ele><time>2026-04-29T22:02:16.983Z</time></trkpt><trkpt lat="39.5910149" lon="1.0642077"><ele>0.0</ele><time>2026-04-29T22:02:17.983Z</time></trkpt><trkpt lat="39.591093" lon="1.0642586"><ele>0.0</ele><time>2026-04-29T22:02:18.983Z</time></trkpt><trkpt lat="39.5911698" lon="1.0643101"><ele>0.0</ele><time>2026-04-29T22:02:19.983Z</time></trkpt><trkpt lat="39.5912479" lon="1.0643632"><ele>0.0</ele><time>2026-04-29T22:02:20.983Z</time></trkpt><trkpt lat="39.5913248" lon="1.0644108"><ele>0.0</ele><time>2026-04-29T22:02:21.983Z</time></trkpt><trkpt lat="39.5915589" lon="1.0645654"><ele>0.0</ele><time>2026-04-29T22:02:24.983Z</time></trkpt><trkpt lat="39.5916351" lon="1.0646145"><ele>0.0</ele><time>2026-04-29T22:02:25.983Z</time></trkpt><trkpt lat="39.5917103" lon="1.0646669"><ele>0.0</ele><time>2026-04-29T22:02:26.983Z</time></trkpt><trkpt lat="39.5917882" lon="1.0647373"><ele>0.0</ele><time>2026-04-29T22:02:27.984Z</time></trkpt><trkpt lat="39.5918635" lon="1.0647967"><ele>0.0</ele><time>2026-04-29T22:02:28.983Z</time></trkpt><trkpt lat="39.591937" lon="1.0648476"><ele>0.0</ele><time>2026-04-29T22:02:29.984Z</time></trkpt><trkpt lat="39.5920103" lon="1.0648968"><ele>0.0</ele><time>2026-04-29T22:02:30.983Z</time></trkpt><trkpt lat="39.5920852" lon="1.0649481"><ele>0.0</ele><time>2026-04-29T22:02:31.983Z</time></trkpt><trkpt lat="39.5921601" lon="1.0649983"><ele>0.0</ele><time>2026-04-29T22:02:32.983Z</time></trkpt><trkpt lat="39.5922366" lon="1.065054"><ele>0.0</ele><time>2026-04-29T22:02:33.983Z</time></trkpt><trkpt lat="39.5923131" lon="1.0651079"><ele>0.0</ele><time>2026-04-29T22:02:34.984Z</time></trkpt><trkpt lat="39.5923885" lon="1.0651609"><ele>0.0</ele><time>2026-04-29T22:02:35.984Z</time></trkpt><trkpt lat="39.5924633" lon="1.0652188"><ele>0.0</ele><time>2026-04-29T22:02:36.984Z</time></trkpt><trkpt lat="39.5925397" lon="1.0652715"><ele>0.0</ele><time>2026-04-29T22:02:37.983Z</time></trkpt><trkpt lat="39.592618" lon="1.0653242"><ele>0.0</ele><time>2026-04-29T22:02:38.984Z</time></trkpt><trkpt lat="39.592695" lon="1.0653874"><ele>0.0</ele><time>2026-04-29T22:02:39.983Z</time></trkpt><trkpt lat="39.5927703" lon="1.065447"><ele>0.0</ele><time>2026-04-29T22:02:40.983Z</time></trkpt><trkpt lat="39.5928422" lon="1.0655001"><ele>0.0</ele><time>2026-04-29T22:02:41.984Z</time></trkpt><trkpt lat="39.5929181" lon="1.0655527"><ele>0.0</ele><time>2026-04-29T22:02:42.983Z</time></trkpt><trkpt lat="39.5930689" lon="1.0656602"><ele>0.0</ele><time>2026-04-29T22:02:44.983Z</time></trkpt><trkpt lat="39.5931468" lon="1.0657127"><ele>0.0</ele><time>2026-04-29T22:02:45.984Z</time></trkpt><trkpt lat="39.5932283" lon="1.0657712"><ele>0.0</ele><time>2026-04-29T22:02:46.983Z</time></trkpt><trkpt lat="39.5933089" lon="1.0658227"><ele>0.0</ele><time>2026-04-29T22:02:47.983Z</time></trkpt><trkpt lat="39.5933869" lon="1.0658712"><ele>0.0</ele><time>2026-04-29T22:02:48.983Z</time></trkpt><trkpt lat="39.5934624" lon="1.0659199"><ele>0.0</ele><time>2026-04-29T22:02:49.983Z</time></trkpt><trkpt lat="39.5935383" lon="1.0659694"><ele>0.0</ele><time>2026-04-29T22:02:50.983Z</time></trkpt><trkpt lat="39.5936153" lon="1.0660213"><ele>0.0</ele><time>2026-04-29T22:02:51.983Z</time></trkpt><trkpt lat="39.5936922" lon="1.0660717"><ele>0.0</ele><time>2026-04-29T22:02:52.983Z</time></trkpt><trkpt lat="39.593767" lon="1.0661234"><ele>0.0</ele><time>2026-04-29T22:02:53.983Z</time></trkpt><trkpt lat="39.593845" lon="1.0661698"><ele>0.0</ele><time>2026-04-29T22:02:54.983Z</time></trkpt><trkpt lat="39.5939148" lon="1.0662065"><ele>0.0</ele><time>2026-04-29T22:02:55.983Z</time></trkpt><trkpt lat="39.5939839" lon="1.0662383"><ele>0.0</ele><time>2026-04-29T22:02:56.983Z</time></trkpt><trkpt lat="39.5940581" lon="1.0662514"><ele>0.0</ele><time>2026-04-29T22:02:57.983Z</time></trkpt><trkpt lat="39.5941413" lon="1.0662734"><ele>0.0</ele><time>2026-04-29T22:02:58.984Z</time></trkpt><trkpt lat="39.5942189" lon="1.066312"><ele>0.0</ele><time>2026-04-29T22:02:59.984Z</time></trkpt><trkpt lat="39.594295" lon="1.0663521"><ele>0.0</ele><time>2026-04-29T22:03:00.983Z</time></trkpt><trkpt lat="39.5943717" lon="1.0664057"><ele>0.0</ele><time>2026-04-29T22:03:01.984Z</time></trkpt><trkpt lat="39.5944429" lon="1.0664505"><ele>0.0</ele><time>2026-04-29T22:03:02.983Z</time></trkpt><trkpt lat="39.5945866" lon="1.0665375"><ele>0.0</ele><time>2026-04-29T22:03:04.983Z</time></trkpt><trkpt lat="39.5946633" lon="1.0665863"><ele>0.0</ele><time>2026-04-29T22:03:05.983Z</time></trkpt><trkpt lat="39.594743" lon="1.0666359"><ele>0.0</ele><time>2026-04-29T22:03:06.984Z</time></trkpt><trkpt lat="39.5948231" lon="1.0666862"><ele>0.0</ele><time>2026-04-29T22:03:07.984Z</time></trkpt><trkpt lat="39.5948973" lon="1.0667375"><ele>0.0</ele><time>2026-04-29T22:03:08.984Z</time></trkpt><trkpt lat="39.5949717" lon="1.0667874"><ele>0.0</ele><time>2026-04-29T22:03:09.983Z</time></trkpt><trkpt lat="39.595047" lon="1.0668415"><ele>0.0</ele><time>2026-04-29T22:03:10.983Z</time></trkpt><trkpt lat="39.5951249" lon="1.0668895"><ele>0.0</ele><time>2026-04-29T22:03:11.983Z</time></trkpt><trkpt lat="39.5952045" lon="1.0669436"><ele>0.0</ele><time>2026-04-29T22:03:12.984Z</time></trkpt><trkpt lat="39.5952819" lon="1.066999"><ele>0.0</ele><time>2026-04-29T22:03:13.983Z</time></trkpt><trkpt lat="39.5953542" lon="1.0670553"><ele>0.0</ele><time>2026-04-29T22:03:14.983Z</time></trkpt><trkpt lat="39.5954283" lon="1.067113"><ele>0.0</ele><time>2026-04-29T22:03:15.983Z</time></trkpt><trkpt lat="39.5955051" lon="1.0671677"><ele>0.0</ele><time>2026-04-29T22:03:16.983Z</time></trkpt><trkpt lat="39.5955811" lon="1.0672273"><ele>0.0</ele><time>2026-04-29T22:03:17.983Z</time></trkpt><trkpt lat="39.5956552" lon="1.0672862"><ele>0.0</ele><time>2026-04-29T22:03:18.983Z</time></trkpt><trkpt lat="39.59573" lon="1.0673415"><ele>0.0</ele><time>2026-04-29T22:03:19.984Z</time></trkpt><trkpt lat="39.5958024" lon="1.067396"><ele>0.0</ele><time>2026-04-29T22:03:20.984Z</time></trkpt><trkpt lat="39.5958781" lon="1.067451"><ele>0.0</ele><time>2026-04-29T22:03:21.983Z</time></trkpt><trkpt lat="39.595954" lon="1.0675102"><ele>0.0</ele><time>2026-04-29T22:03:22.983Z</time></trkpt><trkpt lat="39.5960318" lon="1.0675764"><ele>0.0</ele><time>2026-04-29T22:03:23.983Z</time></trkpt><trkpt lat="39.5961856" lon="1.0676931"><ele>0.0</ele><time>2026-04-29T22:03:25.984Z</time></trkpt><trkpt lat="39.5963399" lon="1.0678116"><ele>0.0</ele><time>2026-04-29T22:03:27.982Z</time></trkpt><trkpt lat="39.5964043" lon="1.0678645"><ele>0.0</ele><time>2026-04-29T22:03:28.982Z</time></trkpt><trkpt lat="39.5964769" lon="1.0679224"><ele>0.0</ele><time>2026-04-29T22:03:29.983Z</time></trkpt><trkpt lat="39.5965474" lon="1.0679864"><ele>0.0</ele><time>2026-04-29T22:03:30.982Z</time></trkpt><trkpt lat="39.5966179" lon="1.0680638"><ele>0.0</ele><time>2026-04-29T22:03:31.983Z</time></trkpt><trkpt lat="39.5966952" lon="1.0681383"><ele>0.0</ele><time>2026-04-29T22:03:32.982Z</time></trkpt><trkpt lat="39.596776" lon="1.0682039"><ele>0.0</ele><time>2026-04-29T22:03:33.982Z</time></trkpt><trkpt lat="39.5968535" lon="1.06827"><ele>0.0</ele><time>2026-04-29T22:03:34.983Z</time></trkpt><trkpt lat="39.5969313" lon="1.068341"><ele>0.0</ele><time>2026-04-29T22:03:35.983Z</time></trkpt><trkpt lat="39.5970066" lon="1.0684118"><ele>0.0</ele><time>2026-04-29T22:03:36.983Z</time></trkpt><trkpt lat="39.5970842" lon="1.0684775"><ele>0.0</ele><time>2026-04-29T22:03:37.982Z</time></trkpt><trkpt lat="39.597164" lon="1.0685393"><ele>0.0</ele><time>2026-04-29T22:03:38.982Z</time></trkpt><trkpt lat="39.5972427" lon="1.0686109"><ele>0.0</ele><time>2026-04-29T22:03:39.982Z</time></trkpt><trkpt lat="39.5973243" lon="1.0686769"><ele>0.0</ele><time>2026-04-29T22:03:40.983Z</time></trkpt><trkpt lat="39.5974043" lon="1.0687394"><ele>0.0</ele><time>2026-04-29T22:03:41.982Z</time></trkpt><trkpt lat="39.5974828" lon="1.068797"><ele>0.0</ele><time>2026-04-29T22:03:42.983Z</time></trkpt><trkpt lat="39.597564" lon="1.0688576"><ele>0.0</ele><time>2026-04-29T22:03:43.983Z</time></trkpt><trkpt lat="39.5976399" lon="1.0689166"><ele>0.0</ele><time>2026-04-29T22:03:44.983Z</time></trkpt><trkpt lat="39.5977981" lon="1.0690259"><ele>0.0</ele><time>2026-04-29T22:03:46.982Z</time></trkpt><trkpt lat="39.5978762" lon="1.0690849"><ele>0.0</ele><time>2026-04-29T22:03:47.983Z</time></trkpt><trkpt lat="39.5979502" lon="1.0691345"><ele>0.0</ele><time>2026-04-29T22:03:48.983Z</time></trkpt><trkpt lat="39.5980169" lon="1.0691735"><ele>0.0</ele><time>2026-04-29T22:03:49.983Z</time></trkpt><trkpt lat="39.5981033" lon="1.0692066"><ele>0.0</ele><time>2026-04-29T22:03:50.983Z</time></trkpt><trkpt lat="39.5981886" lon="1.0692389"><ele>0.0</ele><time>2026-04-29T22:03:51.982Z</time></trkpt><trkpt lat="39.5982734" lon="1.0692877"><ele>0.0</ele><time>2026-04-29T22:03:52.982Z</time></trkpt><trkpt lat="39.5983589" lon="1.0693362"><ele>0.0</ele><time>2026-04-29T22:03:53.983Z</time></trkpt><trkpt lat="39.5984411" lon="1.0693862"><ele>0.0</ele><time>2026-04-29T22:03:54.982Z</time></trkpt><trkpt lat="39.5985183" lon="1.0694311"><ele>0.0</ele><time>2026-04-29T22:03:55.982Z</time></trkpt><trkpt lat="39.5985966" lon="1.0694776"><ele>0.0</ele><time>2026-04-29T22:03:56.983Z</time></trkpt><trkpt lat="39.5986749" lon="1.0695284"><ele>0.0</ele><time>2026-04-29T22:03:57.982Z</time></trkpt><trkpt lat="39.5987506" lon="1.0695801"><ele>0.0</ele><time>2026-04-29T22:03:58.983Z</time></trkpt><trkpt lat="39.5988253" lon="1.069629"><ele>0.0</ele><time>2026-04-29T22:03:59.983Z</time></trkpt><trkpt lat="39.5988989" lon="1.0696789"><ele>0.0</ele><time>2026-04-29T22:04:00.983Z</time></trkpt><trkpt lat="39.5989737" lon="1.0697303"><ele>0.0</ele><time>2026-04-29T22:04:01.983Z</time></trkpt><trkpt lat="39.5990485" lon="1.0697836"><ele>0.0</ele><time>2026-04-29T22:04:02.982Z</time></trkpt><trkpt lat="39.5991221" lon="1.0698267"><ele>0.0</ele><time>2026-04-29T22:04:03.982Z</time></trkpt><trkpt lat="39.599197" lon="1.0698768"><ele>0.0</ele><time>2026-04-29T22:04:04.983Z</time></trkpt><trkpt lat="39.5992734" lon="1.0699296"><ele>0.0</ele><time>2026-04-29T22:04:05.983Z</time></trkpt><trkpt lat="39.5994233" lon="1.0700471"><ele>0.0</ele><time>2026-04-29T22:04:07.982Z</time></trkpt><trkpt lat="39.5994982" lon="1.0701015"><ele>0.0</ele><time>2026-04-29T22:04:08.983Z</time></trkpt><trkpt lat="39.5995763" lon="1.0701545"><ele>0.0</ele><time>2026-04-29T22:04:09.982Z</time></trkpt><trkpt lat="39.5996545" lon="1.0702056"><ele>0.0</ele><time>2026-04-29T22:04:10.983Z</time></trkpt><trkpt lat="39.59973" lon="1.0702614"><ele>0.0</ele><time>2026-04-29T22:04:11.982Z</time></trkpt><trkpt lat="39.5998035" lon="1.0703178"><ele>0.0</ele><time>2026-04-29T22:04:12.983Z</time></trkpt><trkpt lat="39.5998768" lon="1.0703806"><ele>0.0</ele><time>2026-04-29T22:04:13.982Z</time></trkpt><trkpt lat="39.5999505" lon="1.0704408"><ele>0.0</ele><time>2026-04-29T22:04:14.982Z</time></trkpt><trkpt lat="39.6000221" lon="1.0705011"><ele>0.0</ele><time>2026-04-29T22:04:15.982Z</time></trkpt><trkpt lat="39.6000982" lon="1.0705569"><ele>0.0</ele><time>2026-04-29T22:04:16.983Z</time></trkpt><trkpt lat="39.600172" lon="1.070612"><ele>0.0</ele><time>2026-04-29T22:04:17.982Z</time></trkpt><trkpt lat="39.6002493" lon="1.0706723"><ele>0.0</ele><time>2026-04-29T22:04:18.982Z</time></trkpt><trkpt lat="39.6003294" lon="1.0707293"><ele>0.0</ele><time>2026-04-29T22:04:19.982Z</time></trkpt><trkpt lat="39.6004095" lon="1.0707858"><ele>0.0</ele><time>2026-04-29T22:04:20.982Z</time></trkpt><trkpt lat="39.6004884" lon="1.0708538"><ele>0.0</ele><time>2026-04-29T22:04:21.983Z</time></trkpt><trkpt lat="39.6005635" lon="1.0709168"><ele>0.0</ele><time>2026-04-29T22:04:22.982Z</time></trkpt><trkpt lat="39.6006381" lon="1.0709745"><ele>0.0</ele><time>2026-04-29T22:04:23.982Z</time></trkpt><trkpt lat="39.6007146" lon="1.0710328"><ele>0.0</ele><time>2026-04-29T22:04:24.982Z</time></trkpt><trkpt lat="39.6007943" lon="1.0710893"><ele>0.0</ele><time>2026-04-29T22:04:25.982Z</time></trkpt><trkpt lat="39.6009544" lon="1.0712075"><ele>0.0</ele><time>2026-04-29T22:04:27.982Z</time></trkpt><trkpt lat="39.6010326" lon="1.0712587"><ele>0.0</ele><time>2026-04-29T22:04:28.982Z</time></trkpt><trkpt lat="39.6011102" lon="1.0713098"><ele>0.0</ele><time>2026-04-29T22:04:29.983Z</time></trkpt><trkpt lat="39.6011852" lon="1.0713727"><ele>0.0</ele><time>2026-04-29T22:04:30.982Z</time></trkpt><trkpt lat="39.6012617" lon="1.0714296"><ele>0.0</ele><time>2026-04-29T22:04:31.982Z</time></trkpt><trkpt lat="39.6013398" lon="1.0714865"><ele>0.0</ele><time>2026-04-29T22:04:32.982Z</time></trkpt><trkpt lat="39.6014152" lon="1.0715402"><ele>0.0</ele><time>2026-04-29T22:04:33.983Z</time></trkpt><trkpt lat="39.6014904" lon="1.0715888"><ele>0.0</ele><time>2026-04-29T22:04:34.983Z</time></trkpt><trkpt lat="39.601567" lon="1.0716383"><ele>0.0</ele><time>2026-04-29T22:04:35.982Z</time></trkpt><trkpt lat="39.6016407" lon="1.0716885"><ele>0.0</ele><time>2026-04-29T22:04:36.982Z</time></trkpt><trkpt lat="39.6017156" lon="1.0717389"><ele>0.0</ele><time>2026-04-29T22:04:37.982Z</time></trkpt><trkpt lat="39.6017889" lon="1.0717885"><ele>0.0</ele><time>2026-04-29T22:04:38.982Z</time></trkpt><trkpt lat="39.6018617" lon="1.0718401"><ele>0.0</ele><time>2026-04-29T22:04:39.983Z</time></trkpt><trkpt lat="39.601935" lon="1.0718964"><ele>0.0</ele><time>2026-04-29T22:04:40.982Z</time></trkpt><trkpt lat="39.6020132" lon="1.0719514"><ele>0.0</ele><time>2026-04-29T22:04:41.982Z</time></trkpt><trkpt lat="39.6020899" lon="1.0720063"><ele>0.0</ele><time>2026-04-29T22:04:42.983Z</time></trkpt><trkpt lat="39.6021668" lon="1.0720631"><ele>0.0</ele><time>2026-04-29T22:04:43.982Z</time></trkpt><trkpt lat="39.6022421" lon="1.0721184"><ele>0.0</ele><time>2026-04-29T22:04:44.982Z</time></trkpt><trkpt lat="39.6023196" lon="1.0721707"><ele>0.0</ele><time>2026-04-29T22:04:45.982Z</time></trkpt><trkpt lat="39.6023996" lon="1.0722249"><ele>0.0</ele><time>2026-04-29T22:04:46.982Z</time></trkpt><trkpt lat="39.6025515" lon="1.0723331"><ele>0.0</ele><time>2026-04-29T22:04:48.982Z</time></trkpt><trkpt lat="39.6026284" lon="1.0723864"><ele>0.0</ele><time>2026-04-29T22:04:49.983Z</time></trkpt><trkpt lat="39.6027078" lon="1.0724381"><ele>0.0</ele><time>2026-04-29T22:04:50.982Z</time></trkpt><trkpt lat="39.6027869" lon="1.0724868"><ele>0.0</ele><time>2026-04-29T22:04:51.982Z</time></trkpt><trkpt lat="39.602862" lon="1.0725385"><ele>0.0</ele><time>2026-04-29T22:04:52.983Z</time></trkpt><trkpt lat="39.602934" lon="1.0725871"><ele>0.0</ele><time>2026-04-29T22:04:53.982Z</time></trkpt><trkpt lat="39.6030069" lon="1.0726385"><ele>0.0</ele><time>2026-04-29T22:04:54.982Z</time></trkpt><trkpt lat="39.6030777" lon="1.0726874"><ele>0.0</ele><time>2026-04-29T22:04:55.982Z</time></trkpt><trkpt lat="39.6031478" lon="1.0727326"><ele>0.0</ele><time>2026-04-29T22:04:56.983Z</time></trkpt><trkpt lat="39.6032206" lon="1.0727734"><ele>0.0</ele><time>2026-04-29T22:04:57.983Z</time></trkpt><trkpt lat="39.6032937" lon="1.0728188"><ele>0.0</ele><time>2026-04-29T22:04:58.982Z</time></trkpt><trkpt lat="39.603367" lon="1.072867"><ele>0.0</ele><time>2026-04-29T22:04:59.983Z</time></trkpt><trkpt lat="39.6034433" lon="1.0729199"><ele>0.0</ele><time>2026-04-29T22:05:00.983Z</time></trkpt><trkpt lat="39.6035224" lon="1.0729648"><ele>0.0</ele><time>2026-04-29T22:05:01.982Z</time></trkpt><trkpt lat="39.6035985" lon="1.0730166"><ele>0.0</ele><time>2026-04-29T22:05:02.983Z</time></trkpt><trkpt lat="39.6036776" lon="1.0730656"><ele>0.0</ele><time>2026-04-29T22:05:03.982Z</time></trkpt><trkpt lat="39.6037593" lon="1.0731153"><ele>0.0</ele><time>2026-04-29T22:05:04.983Z</time></trkpt><trkpt lat="39.6038367" lon="1.073167"><ele>0.0</ele><time>2026-04-29T22:05:05.982Z</time></trkpt><trkpt lat="39.6039119" lon="1.0732182"><ele>0.0</ele><time>2026-04-29T22:05:06.983Z</time></trkpt><trkpt lat="39.6039896" lon="1.0732644"><ele>0.0</ele><time>2026-04-29T22:05:07.983Z</time></trkpt><trkpt lat="39.6041495" lon="1.0733621"><ele>0.0</ele><time>2026-04-29T22:05:09.983Z</time></trkpt><trkpt lat="39.6042279" lon="1.073414"><ele>0.0</ele><time>2026-04-29T22:05:10.982Z</time></trkpt><trkpt lat="39.6043034" lon="1.0734631"><ele>0.0</ele><time>2026-04-29T22:05:11.983Z</time></trkpt><trkpt lat="39.604377" lon="1.0735096"><ele>0.0</ele><time>2026-04-29T22:05:12.982Z</time></trkpt><trkpt lat="39.6044488" lon="1.0735605"><ele>0.0</ele><time>2026-04-29T22:05:13.983Z</time></trkpt><trkpt lat="39.6045275" lon="1.073601"><ele>0.0</ele><time>2026-04-29T22:05:14.982Z</time></trkpt><trkpt lat="39.6046003" lon="1.0736411"><ele>0.0</ele><time>2026-04-29T22:05:15.982Z</time></trkpt><trkpt lat="39.604675" lon="1.0736936"><ele>0.0</ele><time>2026-04-29T22:05:16.982Z</time></trkpt><trkpt lat="39.6047472" lon="1.0737457"><ele>0.0</ele><time>2026-04-29T22:05:17.982Z</time></trkpt><trkpt lat="39.6048204" lon="1.0737916"><ele>0.0</ele><time>2026-04-29T22:05:18.982Z</time></trkpt><trkpt lat="39.6048948" lon="1.0738438"><ele>0.0</ele><time>2026-04-29T22:05:19.983Z</time></trkpt><trkpt lat="39.6049686" lon="1.0738937"><ele>0.0</ele><time>2026-04-29T22:05:20.982Z</time></trkpt><trkpt lat="39.6050434" lon="1.0739451"><ele>0.0</ele><time>2026-04-29T22:05:21.983Z</time></trkpt><trkpt lat="39.6051215" lon="1.0739937"><ele>0.0</ele><time>2026-04-29T22:05:22.983Z</time></trkpt><trkpt lat="39.6052029" lon="1.0740463"><ele>0.0</ele><time>2026-04-29T22:05:23.983Z</time></trkpt><trkpt lat="39.6052755" lon="1.0740983"><ele>0.0</ele><time>2026-04-29T22:05:24.982Z</time></trkpt><trkpt lat="39.6053541" lon="1.0741541"><ele>0.0</ele><time>2026-04-29T22:05:25.982Z</time></trkpt><trkpt lat="39.6054328" lon="1.0742197"><ele>0.0</ele><time>2026-04-29T22:05:26.982Z</time></trkpt><trkpt lat="39.6055073" lon="1.074272"><ele>0.0</ele><time>2026-04-29T22:05:27.982Z</time></trkpt><trkpt lat="39.6055832" lon="1.0743294"><ele>0.0</ele><time>2026-04-29T22:05:28.982Z</time></trkpt><trkpt lat="39.6057331" lon="1.0744333"><ele>0.0</ele><time>2026-04-29T22:05:30.983Z</time></trkpt><trkpt lat="39.6058075" lon="1.0744672"><ele>0.0</ele><time>2026-04-29T22:05:31.982Z</time></trkpt><trkpt lat="39.6058879" lon="1.0745013"><ele>0.0</ele><time>2026-04-29T22:05:32.983Z</time></trkpt><trkpt lat="39.6059694" lon="1.0745407"><ele>0.0</ele><time>2026-04-29T22:05:33.983Z</time></trkpt><trkpt lat="39.6061033" lon="1.0746321"><ele>0.0</ele><time>2026-04-29T22:05:35.982Z</time></trkpt><trkpt lat="39.6061771" lon="1.0746769"><ele>0.0</ele><time>2026-04-29T22:05:36.983Z</time></trkpt><trkpt lat="39.6062608" lon="1.0747104"><ele>0.0</ele><time>2026-04-29T22:05:37.982Z</time></trkpt><trkpt lat="39.6063474" lon="1.0747251"><ele>0.0</ele><time>2026-04-29T22:05:38.982Z</time></trkpt><trkpt lat="39.6064286" lon="1.0747652"><ele>0.0</ele><time>2026-04-29T22:05:39.983Z</time></trkpt><trkpt lat="39.6065114" lon="1.0748029"><ele>0.0</ele><time>2026-04-29T22:05:40.983Z</time></trkpt><trkpt lat="39.6065904" lon="1.0748431"><ele>0.0</ele><time>2026-04-29T22:05:41.982Z</time></trkpt><trkpt lat="39.6066643" lon="1.0748867"><ele>0.0</ele><time>2026-04-29T22:05:42.982Z</time></trkpt><trkpt lat="39.6067375" lon="1.074933"><ele>0.0</ele><time>2026-04-29T22:05:43.982Z</time></trkpt><trkpt lat="39.606811" lon="1.075012"><ele>0.0</ele><time>2026-04-29T22:05:44.982Z</time></trkpt><trkpt lat="39.6068871" lon="1.07508"><ele>0.0</ele><time>2026-04-29T22:05:45.983Z</time></trkpt><trkpt lat="39.6069595" lon="1.0751332"><ele>0.0</ele><time>2026-04-29T22:05:46.983Z</time></trkpt><trkpt lat="39.6070295" lon="1.0751981"><ele>0.0</ele><time>2026-04-29T22:05:47.983Z</time></trkpt><trkpt lat="39.607102" lon="1.0752572"><ele>0.0</ele><time>2026-04-29T22:05:48.983Z</time></trkpt><trkpt lat="39.6071767" lon="1.075314"><ele>0.0</ele><time>2026-04-29T22:05:49.983Z</time></trkpt><trkpt lat="39.6073371" lon="1.075455"><ele>0.0</ele><time>2026-04-29T22:05:51.982Z</time></trkpt><trkpt lat="39.6074174" lon="1.0755201"><ele>0.0</ele><time>2026-04-29T22:05:52.983Z</time></trkpt><trkpt lat="39.6074889" lon="1.0755806"><ele>0.0</ele><time>2026-04-29T22:05:53.982Z</time></trkpt><trkpt lat="39.6075691" lon="1.0756452"><ele>0.0</ele><time>2026-04-29T22:05:54.982Z</time></trkpt><trkpt lat="39.6076481" lon="1.0757076"><ele>0.0</ele><time>2026-04-29T22:05:55.982Z</time></trkpt><trkpt lat="39.6077249" lon="1.0757653"><ele>0.0</ele><time>2026-04-29T22:05:56.982Z</time></trkpt><trkpt lat="39.6078017" lon="1.075819"><ele>0.0</ele><time>2026-04-29T22:05:57.982Z</time></trkpt><trkpt lat="39.607881" lon="1.0758736"><ele>0.0</ele><time>2026-04-29T22:05:58.982Z</time></trkpt><trkpt lat="39.6079596" lon="1.0759252"><ele>0.0</ele><time>2026-04-29T22:05:59.982Z</time></trkpt><trkpt lat="39.6080366" lon="1.0759779"><ele>0.0</ele><time>2026-04-29T22:06:00.983Z</time></trkpt><trkpt lat="39.6081162" lon="1.0760278"><ele>0.0</ele><time>2026-04-29T22:06:01.982Z</time></trkpt><trkpt lat="39.6081964" lon="1.0760811"><ele>0.0</ele><time>2026-04-29T22:06:02.983Z</time></trkpt><trkpt lat="39.6082777" lon="1.0761357"><ele>0.0</ele><time>2026-04-29T22:06:03.982Z</time></trkpt><trkpt lat="39.6083536" lon="1.0761884"><ele>0.0</ele><time>2026-04-29T22:06:04.983Z</time></trkpt><trkpt lat="39.6084301" lon="1.0762385"><ele>0.0</ele><time>2026-04-29T22:06:05.983Z</time></trkpt><trkpt lat="39.6085767" lon="1.0763224"><ele>0.0</ele><time>2026-04-29T22:06:07.982Z</time></trkpt><trkpt lat="39.6086548" lon="1.076349"><ele>0.0</ele><time>2026-04-29T22:06:08.982Z</time></trkpt><trkpt lat="39.608736" lon="1.0763923"><ele>0.0</ele><time>2026-04-29T22:06:09.983Z</time></trkpt><trkpt lat="39.6088148" lon="1.0764462"><ele>0.0</ele><time>2026-04-29T22:06:10.982Z</time></trkpt><trkpt lat="39.6089727" lon="1.0765443"><ele>0.0</ele><time>2026-04-29T22:06:12.982Z</time></trkpt><trkpt lat="39.6090502" lon="1.0766015"><ele>0.0</ele><time>2026-04-29T22:06:13.983Z</time></trkpt><trkpt lat="39.6091256" lon="1.0766514"><ele>0.0</ele><time>2026-04-29T22:06:14.983Z</time></trkpt><trkpt lat="39.6091991" lon="1.0766987"><ele>0.0</ele><time>2026-04-29T22:06:15.982Z</time></trkpt><trkpt lat="39.6092764" lon="1.0767498"><ele>0.0</ele><time>2026-04-29T22:06:16.982Z</time></trkpt><trkpt lat="39.6093563" lon="1.0768058"><ele>0.0</ele><time>2026-04-29T22:06:17.983Z</time></trkpt><trkpt lat="39.6094303" lon="1.0768611"><ele>0.0</ele><time>2026-04-29T22:06:18.982Z</time></trkpt><trkpt lat="39.609505" lon="1.0769178"><ele>0.0</ele><time>2026-04-29T22:06:19.982Z</time></trkpt><trkpt lat="39.6095755" lon="1.076975"><ele>0.0</ele><time>2026-04-29T22:06:20.982Z</time></trkpt><trkpt lat="39.6096513" lon="1.0770342"><ele>0.0</ele><time>2026-04-29T22:06:21.982Z</time></trkpt><trkpt lat="39.6097251" lon="1.0770894"><ele>0.0</ele><time>2026-04-29T22:06:22.982Z</time></trkpt><trkpt lat="39.6097983" lon="1.0771414"><ele>0.0</ele><time>2026-04-29T22:06:23.982Z</time></trkpt><trkpt lat="39.6098703" lon="1.0771946"><ele>0.0</ele><time>2026-04-29T22:06:24.982Z</time></trkpt><trkpt lat="39.6099463" lon="1.0772508"><ele>0.0</ele><time>2026-04-29T22:06:25.982Z</time></trkpt><trkpt lat="39.6100187" lon="1.0773067"><ele>0.0</ele><time>2026-04-29T22:06:26.983Z</time></trkpt><trkpt lat="39.6100946" lon="1.07736"><ele>0.0</ele><time>2026-04-29T22:06:27.983Z</time></trkpt><trkpt lat="39.6101726" lon="1.077419"><ele>0.0</ele><time>2026-04-29T22:06:28.982Z</time></trkpt><trkpt lat="39.6102481" lon="1.0774774"><ele>0.0</ele><time>2026-04-29T22:06:29.982Z</time></trkpt><trkpt lat="39.6103164" lon="1.0775247"><ele>0.0</ele><time>2026-04-29T22:06:30.982Z</time></trkpt><trkpt lat="39.6103932" lon="1.0775771"><ele>0.0</ele><time>2026-04-29T22:06:31.983Z</time></trkpt><trkpt lat="39.6105575" lon="1.0776974"><ele>0.0</ele><time>2026-04-29T22:06:33.983Z</time></trkpt><trkpt lat="39.6106407" lon="1.0777572"><ele>0.0</ele><time>2026-04-29T22:06:34.982Z</time></trkpt><trkpt lat="39.6107155" lon="1.0778129"><ele>0.0</ele><time>2026-04-29T22:06:35.983Z</time></trkpt><trkpt lat="39.6107933" lon="1.0778794"><ele>0.0</ele><time>2026-04-29T22:06:36.982Z</time></trkpt><trkpt lat="39.6108674" lon="1.0779316"><ele>0.0</ele><time>2026-04-29T22:06:37.982Z</time></trkpt><trkpt lat="39.6109435" lon="1.077997"><ele>0.0</ele><time>2026-04-29T22:06:38.982Z</time></trkpt><trkpt lat="39.6110202" lon="1.0780543"><ele>0.0</ele><time>2026-04-29T22:06:39.982Z</time></trkpt><trkpt lat="39.6110897" lon="1.078104"><ele>0.0</ele><time>2026-04-29T22:06:40.982Z</time></trkpt><trkpt lat="39.6111635" lon="1.0781611"><ele>0.0</ele><time>2026-04-29T22:06:41.982Z</time></trkpt><trkpt lat="39.6112383" lon="1.0782111"><ele>0.0</ele><time>2026-04-29T22:06:42.983Z</time></trkpt><trkpt lat="39.6113149" lon="1.0782648"><ele>0.0</ele><time>2026-04-29T22:06:43.983Z</time></trkpt><trkpt lat="39.611392" lon="1.078321"><ele>0.0</ele><time>2026-04-29T22:06:44.983Z</time></trkpt><trkpt lat="39.6114626" lon="1.078375"><ele>0.0</ele><time>2026-04-29T22:06:45.983Z</time></trkpt><trkpt lat="39.6115353" lon="1.0784264"><ele>0.0</ele><time>2026-04-29T22:06:46.983Z</time></trkpt><trkpt lat="39.6116073" lon="1.0784871"><ele>0.0</ele><time>2026-04-29T22:06:47.982Z</time></trkpt><trkpt lat="39.6116834" lon="1.0785445"><ele>0.0</ele><time>2026-04-29T22:06:48.983Z</time></trkpt><trkpt lat="39.6117585" lon="1.0785999"><ele>0.0</ele><time>2026-04-29T22:06:49.982Z</time></trkpt><trkpt lat="39.6118363" lon="1.0786588"><ele>0.0</ele><time>2026-04-29T22:06:50.983Z</time></trkpt><trkpt lat="39.6119118" lon="1.0787197"><ele>0.0</ele><time>2026-04-29T22:06:51.983Z</time></trkpt><trkpt lat="39.6119896" lon="1.0787809"><ele>0.0</ele><time>2026-04-29T22:06:52.983Z</time></trkpt><trkpt lat="39.6121497" lon="1.0788899"><ele>0.0</ele><time>2026-04-29T22:06:54.982Z</time></trkpt><trkpt lat="39.6122282" lon="1.078943"><ele>0.0</ele><time>2026-04-29T22:06:55.983Z</time></trkpt><trkpt lat="39.6123063" lon="1.0789891"><ele>0.0</ele><time>2026-04-29T22:06:56.983Z</time></trkpt><trkpt lat="39.6123849" lon="1.079031"><ele>0.0</ele><time>2026-04-29T22:06:57.983Z</time></trkpt><trkpt lat="39.6124606" lon="1.0790807"><ele>0.0</ele><time>2026-04-29T22:06:58.982Z</time></trkpt><trkpt lat="39.6125299" lon="1.079123"><ele>0.0</ele><time>2026-04-29T22:06:59.983Z</time></trkpt><trkpt lat="39.6126082" lon="1.0791785"><ele>0.0</ele><time>2026-04-29T22:07:00.983Z</time></trkpt><trkpt lat="39.6126951" lon="1.0792204"><ele>0.0</ele><time>2026-04-29T22:07:01.982Z</time></trkpt><trkpt lat="39.6127746" lon="1.0792714"><ele>0.0</ele><time>2026-04-29T22:07:02.982Z</time></trkpt><trkpt lat="39.6128459" lon="1.0793209"><ele>0.0</ele><time>2026-04-29T22:07:03.982Z</time></trkpt><trkpt lat="39.6129149" lon="1.0793631"><ele>0.0</ele><time>2026-04-29T22:07:04.983Z</time></trkpt><trkpt lat="39.6129923" lon="1.0794132"><ele>0.0</ele><time>2026-04-29T22:07:05.982Z</time></trkpt><trkpt lat="39.6130695" lon="1.0794629"><ele>0.0</ele><time>2026-04-29T22:07:06.982Z</time></trkpt><trkpt lat="39.6131494" lon="1.0795236"><ele>0.0</ele><time>2026-04-29T22:07:07.983Z</time></trkpt><trkpt lat="39.6132237" lon="1.0795783"><ele>0.0</ele><time>2026-04-29T22:07:08.982Z</time></trkpt><trkpt lat="39.6133714" lon="1.0796899"><ele>0.0</ele><time>2026-04-29T22:07:10.982Z</time></trkpt><trkpt lat="39.6134454" lon="1.0797351"><ele>0.0</ele><time>2026-04-29T22:07:11.983Z</time></trkpt><trkpt lat="39.6135186" lon="1.0798008"><ele>0.0</ele><time>2026-04-29T22:07:12.983Z</time></trkpt><trkpt lat="39.6135951" lon="1.0798597"><ele>0.0</ele><time>2026-04-29T22:07:13.982Z</time></trkpt><trkpt lat="39.6137442" lon="1.0799423"><ele>0.0</ele><time>2026-04-29T22:07:15.983Z</time></trkpt><trkpt lat="39.6138232" lon="1.0799981"><ele>0.0</ele><time>2026-04-29T22:07:16.982Z</time></trkpt><trkpt lat="39.6138987" lon="1.0800577"><ele>0.0</ele><time>2026-04-29T22:07:17.983Z</time></trkpt><trkpt lat="39.6139794" lon="1.0801225"><ele>0.0</ele><time>2026-04-29T22:07:18.983Z</time></trkpt><trkpt lat="39.6140567" lon="1.0801712"><ele>0.0</ele><time>2026-04-29T22:07:19.982Z</time></trkpt><trkpt lat="39.6141329" lon="1.0802165"><ele>0.0</ele><time>2026-04-29T22:07:20.982Z</time></trkpt><trkpt lat="39.614208" lon="1.0802787"><ele>0.0</ele><time>2026-04-29T22:07:21.983Z</time></trkpt><trkpt lat="39.6142819" lon="1.0803332"><ele>0.0</ele><time>2026-04-29T22:07:22.982Z</time></trkpt><trkpt lat="39.614358" lon="1.0803867"><ele>0.0</ele><time>2026-04-29T22:07:23.982Z</time></trkpt><trkpt lat="39.6144336" lon="1.0804484"><ele>0.0</ele><time>2026-04-29T22:07:24.982Z</time></trkpt><trkpt lat="39.6145087" lon="1.080506"><ele>0.0</ele><time>2026-04-29T22:07:25.982Z</time></trkpt><trkpt lat="39.6145863" lon="1.0805378"><ele>0.0</ele><time>2026-04-29T22:07:26.982Z</time></trkpt><trkpt lat="39.6146604" lon="1.0805849"><ele>0.0</ele><time>2026-04-29T22:07:27.982Z</time></trkpt><trkpt lat="39.6147367" lon="1.080635"><ele>0.0</ele><time>2026-04-29T22:07:28.982Z</time></trkpt><trkpt lat="39.6148132" lon="1.080695"><ele>0.0</ele><time>2026-04-29T22:07:29.982Z</time></trkpt><trkpt lat="39.6148885" lon="1.0807598"><ele>0.0</ele><time>2026-04-29T22:07:30.983Z</time></trkpt><trkpt lat="39.6149648" lon="1.0808159"><ele>0.0</ele><time>2026-04-29T22:07:31.982Z</time></trkpt><trkpt lat="39.6150386" lon="1.0808585"><ele>0.0</ele><time>2026-04-29T22:07:32.981Z</time></trkpt><trkpt lat="39.6151148" lon="1.0809086"><ele>0.0</ele><time>2026-04-29T22:07:33.982Z</time></trkpt><trkpt lat="39.6152729" lon="1.0810287"><ele>0.0</ele><time>2026-04-29T22:07:35.981Z</time></trkpt><trkpt lat="39.6153503" lon="1.0810801"><ele>0.0</ele><time>2026-04-29T22:07:36.982Z</time></trkpt><trkpt lat="39.6154273" lon="1.0811284"><ele>0.0</ele><time>2026-04-29T22:07:37.982Z</time></trkpt><trkpt lat="39.615501" lon="1.0811864"><ele>0.0</ele><time>2026-04-29T22:07:38.981Z</time></trkpt><trkpt lat="39.6155755" lon="1.0812477"><ele>0.0</ele><time>2026-04-29T22:07:39.981Z</time></trkpt><trkpt lat="39.6156535" lon="1.0813007"><ele>0.0</ele><time>2026-04-29T22:07:40.981Z</time></trkpt><trkpt lat="39.6158148" lon="1.0814056"><ele>0.0</ele><time>2026-04-29T22:07:42.981Z</time></trkpt><trkpt lat="39.6158906" lon="1.0814551"><ele>0.0</ele><time>2026-04-29T22:07:43.981Z</time></trkpt><trkpt lat="39.615968" lon="1.0815075"><ele>0.0</ele><time>2026-04-29T22:07:44.981Z</time></trkpt><trkpt lat="39.6160436" lon="1.0815616"><ele>0.0</ele><time>2026-04-29T22:07:45.981Z</time></trkpt><trkpt lat="39.6161158" lon="1.0816152"><ele>0.0</ele><time>2026-04-29T22:07:46.981Z</time></trkpt><trkpt lat="39.6161903" lon="1.0816715"><ele>0.0</ele><time>2026-04-29T22:07:47.982Z</time></trkpt><trkpt lat="39.6162723" lon="1.0817294"><ele>0.0</ele><time>2026-04-29T22:07:48.982Z</time></trkpt><trkpt lat="39.616353" lon="1.0817845"><ele>0.0</ele><time>2026-04-29T22:07:49.982Z</time></trkpt><trkpt lat="39.6164288" lon="1.0818318"><ele>0.0</ele><time>2026-04-29T22:07:50.982Z</time></trkpt><trkpt lat="39.6164982" lon="1.0818725"><ele>0.0</ele><time>2026-04-29T22:07:51.981Z</time></trkpt><trkpt lat="39.6165696" lon="1.0819242"><ele>0.0</ele><time>2026-04-29T22:07:52.981Z</time></trkpt><trkpt lat="39.6166436" lon="1.0819791"><ele>0.0</ele><time>2026-04-29T22:07:53.982Z</time></trkpt><trkpt lat="39.6167202" lon="1.0820326"><ele>0.0</ele><time>2026-04-29T22:07:54.981Z</time></trkpt><trkpt lat="39.6168723" lon="1.0821292"><ele>0.0</ele><time>2026-04-29T22:07:56.982Z</time></trkpt><trkpt lat="39.6169452" lon="1.0821769"><ele>0.0</ele><time>2026-04-29T22:07:57.982Z</time></trkpt><trkpt lat="39.6170213" lon="1.082228"><ele>0.0</ele><time>2026-04-29T22:07:58.981Z</time></trkpt><trkpt lat="39.6170924" lon="1.082256"><ele>0.0</ele><time>2026-04-29T22:07:59.982Z</time></trkpt><trkpt lat="39.6171706" lon="1.0823051"><ele>0.0</ele><time>2026-04-29T22:08:00.982Z</time></trkpt><trkpt lat="39.617252" lon="1.0823625"><ele>0.0</ele><time>2026-04-29T22:08:01.982Z</time></trkpt><trkpt lat="39.6173338" lon="1.0824222"><ele>0.0</ele><time>2026-04-29T22:08:02.981Z</time></trkpt><trkpt lat="39.6174127" lon="1.0824834"><ele>0.0</ele><time>2026-04-29T22:08:03.982Z</time></trkpt><trkpt lat="39.6174939" lon="1.0825453"><ele>0.0</ele><time>2026-04-29T22:08:04.981Z</time></trkpt><trkpt lat="39.6175728" lon="1.0825891"><ele>0.0</ele><time>2026-04-29T22:08:05.982Z</time></trkpt><trkpt lat="39.617654" lon="1.0826444"><ele>0.0</ele><time>2026-04-29T22:08:06.981Z</time></trkpt><trkpt lat="39.6177303" lon="1.0827036"><ele>0.0</ele><time>2026-04-29T22:08:07.982Z</time></trkpt><trkpt lat="39.6178056" lon="1.0827533"><ele>0.0</ele><time>2026-04-29T22:08:08.981Z</time></trkpt><trkpt lat="39.6178848" lon="1.0828128"><ele>0.0</ele><time>2026-04-29T22:08:09.982Z</time></trkpt><trkpt lat="39.6179649" lon="1.0828689"><ele>0.0</ele><time>2026-04-29T22:08:10.981Z</time></trkpt><trkpt lat="39.6180404" lon="1.08292"><ele>0.0</ele><time>2026-04-29T22:08:11.982Z</time></trkpt><trkpt lat="39.6181917" lon="1.0830177"><ele>0.0</ele><time>2026-04-29T22:08:13.982Z</time></trkpt><trkpt lat="39.618268" lon="1.0830781"><ele>0.0</ele><time>2026-04-29T22:08:14.982Z</time></trkpt><trkpt lat="39.6183434" lon="1.0831322"><ele>0.0</ele><time>2026-04-29T22:08:15.981Z</time></trkpt><trkpt lat="39.6184995" lon="1.0832525"><ele>0.0</ele><time>2026-04-29T22:08:17.981Z</time></trkpt><trkpt lat="39.618576" lon="1.0833067"><ele>0.0</ele><time>2026-04-29T22:08:18.982Z</time></trkpt><trkpt lat="39.6186459" lon="1.0833629"><ele>0.0</ele><time>2026-04-29T22:08:19.982Z</time></trkpt><trkpt lat="39.6187167" lon="1.0834141"><ele>0.0</ele><time>2026-04-29T22:08:20.981Z</time></trkpt><trkpt lat="39.6187926" lon="1.083464"><ele>0.0</ele><time>2026-04-29T22:08:21.981Z</time></trkpt><trkpt lat="39.61887" lon="1.0835165"><ele>0.0</ele><time>2026-04-29T22:08:22.981Z</time></trkpt><trkpt lat="39.6189481" lon="1.083571"><ele>0.0</ele><time>2026-04-29T22:08:23.982Z</time></trkpt><trkpt lat="39.6190251" lon="1.0836277"><ele>0.0</ele><time>2026-04-29T22:08:24.981Z</time></trkpt><trkpt lat="39.6191041" lon="1.0836917"><ele>0.0</ele><time>2026-04-29T22:08:25.981Z</time></trkpt><trkpt lat="39.6191797" lon="1.0837527"><ele>0.0</ele><time>2026-04-29T22:08:26.982Z</time></trkpt><trkpt lat="39.6192535" lon="1.0838042"><ele>0.0</ele><time>2026-04-29T22:08:27.982Z</time></trkpt><trkpt lat="39.6193355" lon="1.083864"><ele>0.0</ele><time>2026-04-29T22:08:28.981Z</time></trkpt><trkpt lat="39.6194131" lon="1.0839213"><ele>0.0</ele><time>2026-04-29T22:08:29.982Z</time></trkpt><trkpt lat="39.6194913" lon="1.0839733"><ele>0.0</ele><time>2026-04-29T22:08:30.982Z</time></trkpt><trkpt lat="39.6195713" lon="1.0840235"><ele>0.0</ele><time>2026-04-29T22:08:31.981Z</time></trkpt><trkpt lat="39.6196512" lon="1.0840778"><ele>0.0</ele><time>2026-04-29T22:08:32.981Z</time></trkpt><trkpt lat="39.6197269" lon="1.0841332"><ele>0.0</ele><time>2026-04-29T22:08:33.981Z</time></trkpt><trkpt lat="39.6197936" lon="1.0841828"><ele>0.0</ele><time>2026-04-29T22:08:34.982Z</time></trkpt><trkpt lat="39.6198656" lon="1.0842384"><ele>0.0</ele><time>2026-04-29T22:08:35.981Z</time></trkpt><trkpt lat="39.619939" lon="1.0842977"><ele>0.0</ele><time>2026-04-29T22:08:36.981Z</time></trkpt><trkpt lat="39.6200901" lon="1.084415"><ele>0.0</ele><time>2026-04-29T22:08:38.981Z</time></trkpt><trkpt lat="39.6201667" lon="1.0844746"><ele>0.0</ele><time>2026-04-29T22:08:39.982Z</time></trkpt><trkpt lat="39.6202391" lon="1.0845416"><ele>0.0</ele><time>2026-04-29T22:08:40.982Z</time></trkpt><trkpt lat="39.620315" lon="1.0846012"><ele>0.0</ele><time>2026-04-29T22:08:41.981Z</time></trkpt><trkpt lat="39.620386" lon="1.0846534"><ele>0.0</ele><time>2026-04-29T22:08:42.982Z</time></trkpt><trkpt lat="39.6204648" lon="1.0847061"><ele>0.0</ele><time>2026-04-29T22:08:43.982Z</time></trkpt><trkpt lat="39.6205374" lon="1.0847683"><ele>0.0</ele><time>2026-04-29T22:08:44.981Z</time></trkpt><trkpt lat="39.6206119" lon="1.0848243"><ele>0.0</ele><time>2026-04-29T22:08:45.981Z</time></trkpt><trkpt lat="39.6206895" lon="1.0848825"><ele>0.0</ele><time>2026-04-29T22:08:46.981Z</time></trkpt><trkpt lat="39.6207668" lon="1.0849349"><ele>0.0</ele><time>2026-04-29T22:08:47.981Z</time></trkpt><trkpt lat="39.6208404" lon="1.0849868"><ele>0.0</ele><time>2026-04-29T22:08:48.981Z</time></trkpt><trkpt lat="39.6209154" lon="1.0850383"><ele>0.0</ele><time>2026-04-29T22:08:49.981Z</time></trkpt><trkpt lat="39.6209845" lon="1.0850858"><ele>0.0</ele><time>2026-04-29T22:08:50.982Z</time></trkpt><trkpt lat="39.6210616" lon="1.0851268"><ele>0.0</ele><time>2026-04-29T22:08:51.981Z</time></trkpt><trkpt lat="39.6211428" lon="1.0851671"><ele>0.0</ele><time>2026-04-29T22:08:52.982Z</time></trkpt><trkpt lat="39.6212189" lon="1.0852111"><ele>0.0</ele><time>2026-04-29T22:08:53.981Z</time></trkpt><trkpt lat="39.6212936" lon="1.0852384"><ele>0.0</ele><time>2026-04-29T22:08:54.981Z</time></trkpt><trkpt lat="39.6213684" lon="1.085288"><ele>0.0</ele><time>2026-04-29T22:08:55.982Z</time></trkpt><trkpt lat="39.6214433" lon="1.0853396"><ele>0.0</ele><time>2026-04-29T22:08:56.981Z</time></trkpt><trkpt lat="39.6215182" lon="1.0853859"><ele>0.0</ele><time>2026-04-29T22:08:57.981Z</time></trkpt><trkpt lat="39.6216676" lon="1.0854773"><ele>0.0</ele><time>2026-04-29T22:08:59.981Z</time></trkpt><trkpt lat="39.621742" lon="1.0855243"><ele>0.0</ele><time>2026-04-29T22:09:00.981Z</time></trkpt><trkpt lat="39.6218154" lon="1.0855763"><ele>0.0</ele><time>2026-04-29T22:09:01.982Z</time></trkpt><trkpt lat="39.6218872" lon="1.0856396"><ele>0.0</ele><time>2026-04-29T22:09:02.981Z</time></trkpt><trkpt lat="39.6219617" lon="1.0856958"><ele>0.0</ele><time>2026-04-29T22:09:03.981Z</time></trkpt><trkpt lat="39.6220307" lon="1.0857567"><ele>0.0</ele><time>2026-04-29T22:09:04.982Z</time></trkpt><trkpt lat="39.6221008" lon="1.0858231"><ele>0.0</ele><time>2026-04-29T22:09:05.982Z</time></trkpt><trkpt lat="39.622172" lon="1.0858827"><ele>0.0</ele><time>2026-04-29T22:09:06.982Z</time></trkpt><trkpt lat="39.6222479" lon="1.0859439"><ele>0.0</ele><time>2026-04-29T22:09:07.981Z</time></trkpt><trkpt lat="39.6223236" lon="1.086"><ele>0.0</ele><time>2026-04-29T22:09:08.981Z</time></trkpt><trkpt lat="39.6223966" lon="1.0860506"><ele>0.0</ele><time>2026-04-29T22:09:09.981Z</time></trkpt><trkpt lat="39.6224746" lon="1.0861062"><ele>0.0</ele><time>2026-04-29T22:09:10.982Z</time></trkpt><trkpt lat="39.6225487" lon="1.086159"><ele>0.0</ele><time>2026-04-29T22:09:11.982Z</time></trkpt><trkpt lat="39.6226251" lon="1.0862149"><ele>0.0</ele><time>2026-04-29T22:09:12.981Z</time></trkpt><trkpt lat="39.6227002" lon="1.08627"><ele>0.0</ele><time>2026-04-29T22:09:13.981Z</time></trkpt><trkpt lat="39.6227933" lon="1.0863431"><ele>0.0</ele><time>2026-04-29T22:09:14.982Z</time></trkpt><trkpt lat="39.6228684" lon="1.0864007"><ele>0.0</ele><time>2026-04-29T22:09:15.981Z</time></trkpt><trkpt lat="39.6230171" lon="1.0865398"><ele>0.0</ele><time>2026-04-29T22:09:17.982Z</time></trkpt><trkpt lat="39.6230919" lon="1.0866012"><ele>0.0</ele><time>2026-04-29T22:09:18.981Z</time></trkpt><trkpt lat="39.6232432" lon="1.0867099"><ele>0.0</ele><time>2026-04-29T22:09:20.982Z</time></trkpt><trkpt lat="39.6233213" lon="1.0867706"><ele>0.0</ele><time>2026-04-29T22:09:21.982Z</time></trkpt><trkpt lat="39.6233968" lon="1.0868282"><ele>0.0</ele><time>2026-04-29T22:09:22.982Z</time></trkpt><trkpt lat="39.6234765" lon="1.0868832"><ele>0.0</ele><time>2026-04-29T22:09:23.982Z</time></trkpt><trkpt lat="39.6235564" lon="1.0869385"><ele>0.0</ele><time>2026-04-29T22:09:24.981Z</time></trkpt><trkpt lat="39.6236162" lon="1.0869747"><ele>0.0</ele><time>2026-04-29T22:09:25.982Z</time></trkpt><trkpt lat="39.6236944" lon="1.0870221"><ele>0.0</ele><time>2026-04-29T22:09:26.982Z</time></trkpt><trkpt lat="39.6237686" lon="1.0870689"><ele>0.0</ele><time>2026-04-29T22:09:27.982Z</time></trkpt><trkpt lat="39.6238449" lon="1.0871156"><ele>0.0</ele><time>2026-04-29T22:09:28.981Z</time></trkpt><trkpt lat="39.623926" lon="1.0871565"><ele>0.0</ele><time>2026-04-29T22:09:29.981Z</time></trkpt><trkpt lat="39.6240061" lon="1.0872064"><ele>0.0</ele><time>2026-04-29T22:09:30.982Z</time></trkpt><trkpt lat="39.6240833" lon="1.0872569"><ele>0.0</ele><time>2026-04-29T22:09:31.982Z</time></trkpt><trkpt lat="39.6241616" lon="1.0873128"><ele>0.0</ele><time>2026-04-29T22:09:32.982Z</time></trkpt><trkpt lat="39.6242382" lon="1.0873668"><ele>0.0</ele><time>2026-04-29T22:09:33.981Z</time></trkpt><trkpt lat="39.6243163" lon="1.0874213"><ele>0.0</ele><time>2026-04-29T22:09:34.982Z</time></trkpt><trkpt lat="39.6243887" lon="1.0874704"><ele>0.0</ele><time>2026-04-29T22:09:35.981Z</time></trkpt><trkpt lat="39.6244663" lon="1.0875294"><ele>0.0</ele><time>2026-04-29T22:09:36.982Z</time></trkpt><trkpt lat="39.6245479" lon="1.0875803"><ele>0.0</ele><time>2026-04-29T22:09:37.981Z</time></trkpt><trkpt lat="39.624628" lon="1.0876272"><ele>0.0</ele><time>2026-04-29T22:09:38.982Z</time></trkpt><trkpt lat="39.6247109" lon="1.0876742"><ele>0.0</ele><time>2026-04-29T22:09:39.981Z</time></trkpt><trkpt lat="39.6248678" lon="1.0877745"><ele>0.0</ele><time>2026-04-29T22:09:41.981Z</time></trkpt><trkpt lat="39.6249475" lon="1.0878323"><ele>0.0</ele><time>2026-04-29T22:09:42.981Z</time></trkpt><trkpt lat="39.6250163" lon="1.0878768"><ele>0.0</ele><time>2026-04-29T22:09:43.982Z</time></trkpt><trkpt lat="39.625098" lon="1.0879311"><ele>0.0</ele><time>2026-04-29T22:09:44.981Z</time></trkpt><trkpt lat="39.6251767" lon="1.0879847"><ele>0.0</ele><time>2026-04-29T22:09:45.982Z</time></trkpt><trkpt lat="39.6252534" lon="1.0880393"><ele>0.0</ele><time>2026-04-29T22:09:46.981Z</time></trkpt><trkpt lat="39.6253312" lon="1.0880913"><ele>0.0</ele><time>2026-04-29T22:09:47.982Z</time></trkpt><trkpt lat="39.6254923" lon="1.0882069"><ele>0.0</ele><time>2026-04-29T22:09:49.981Z</time></trkpt><trkpt lat="39.6255707" lon="1.0882656"><ele>0.0</ele><time>2026-04-29T22:09:50.982Z</time></trkpt><trkpt lat="39.6256479" lon="1.0883305"><ele>0.0</ele><time>2026-04-29T22:09:51.982Z</time></trkpt><trkpt lat="39.6257131" lon="1.0883525"><ele>0.0</ele><time>2026-04-29T22:09:52.982Z</time></trkpt><trkpt lat="39.6257821" lon="1.0883761"><ele>0.0</ele><time>2026-04-29T22:09:53.981Z</time></trkpt><trkpt lat="39.6258595" lon="1.0884364"><ele>0.0</ele><time>2026-04-29T22:09:54.981Z</time></trkpt><trkpt lat="39.6259353" lon="1.0885052"><ele>0.0</ele><time>2026-04-29T22:09:55.981Z</time></trkpt><trkpt lat="39.6260115" lon="1.0885729"><ele>0.0</ele><time>2026-04-29T22:09:56.981Z</time></trkpt><trkpt lat="39.626088" lon="1.0886483"><ele>0.0</ele><time>2026-04-29T22:09:57.981Z</time></trkpt><trkpt lat="39.6261634" lon="1.0887141"><ele>0.0</ele><time>2026-04-29T22:09:58.981Z</time></trkpt><trkpt lat="39.6262414" lon="1.0887723"><ele>0.0</ele><time>2026-04-29T22:09:59.981Z</time></trkpt><trkpt lat="39.6263216" lon="1.0888307"><ele>0.0</ele><time>2026-04-29T22:10:00.981Z</time></trkpt><trkpt lat="39.6264876" lon="1.0889292"><ele>0.0</ele><time>2026-04-29T22:10:02.981Z</time></trkpt><trkpt lat="39.6265693" lon="1.0889812"><ele>0.0</ele><time>2026-04-29T22:10:03.981Z</time></trkpt><trkpt lat="39.6266483" lon="1.0890302"><ele>0.0</ele><time>2026-04-29T22:10:04.982Z</time></trkpt><trkpt lat="39.6267253" lon="1.0890834"><ele>0.0</ele><time>2026-04-29T22:10:05.981Z</time></trkpt><trkpt lat="39.6268017" lon="1.0891366"><ele>0.0</ele><time>2026-04-29T22:10:06.981Z</time></trkpt><trkpt lat="39.6268799" lon="1.0891911"><ele>0.0</ele><time>2026-04-29T22:10:07.982Z</time></trkpt><trkpt lat="39.6269551" lon="1.0892666"><ele>0.0</ele><time>2026-04-29T22:10:08.982Z</time></trkpt><trkpt lat="39.6270311" lon="1.0893299"><ele>0.0</ele><time>2026-04-29T22:10:09.982Z</time></trkpt><trkpt lat="39.6271065" lon="1.0893897"><ele>0.0</ele><time>2026-04-29T22:10:10.981Z</time></trkpt><trkpt lat="39.6271774" lon="1.0894158"><ele>0.0</ele><time>2026-04-29T22:10:11.982Z</time></trkpt><trkpt lat="39.6272447" lon="1.0894591"><ele>0.0</ele><time>2026-04-29T22:10:12.982Z</time></trkpt><trkpt lat="39.6273155" lon="1.089511"><ele>0.0</ele><time>2026-04-29T22:10:13.982Z</time></trkpt><trkpt lat="39.6273873" lon="1.0895672"><ele>0.0</ele><time>2026-04-29T22:10:14.982Z</time></trkpt><trkpt lat="39.62746" lon="1.0896279"><ele>0.0</ele><time>2026-04-29T22:10:15.981Z</time></trkpt><trkpt lat="39.6275335" lon="1.0896849"><ele>0.0</ele><time>2026-04-29T22:10:16.981Z</time></trkpt><trkpt lat="39.6276026" lon="1.0897376"><ele>0.0</ele><time>2026-04-29T22:10:17.982Z</time></trkpt><trkpt lat="39.6276728" lon="1.0897876"><ele>0.0</ele><time>2026-04-29T22:10:18.981Z</time></trkpt><trkpt lat="39.6277313" lon="1.0898227"><ele>0.0</ele><time>2026-04-29T22:10:19.982Z</time></trkpt><trkpt lat="39.627882" lon="1.0899188"><ele>0.0</ele><time>2026-04-29T22:10:21.982Z</time></trkpt><trkpt lat="39.6280284" lon="1.0900101"><ele>0.0</ele><time>2026-04-29T22:10:23.982Z</time></trkpt><trkpt lat="39.6281078" lon="1.0900692"><ele>0.0</ele><time>2026-04-29T22:10:24.981Z</time></trkpt><trkpt lat="39.6281847" lon="1.0901219"><ele>0.0</ele><time>2026-04-29T22:10:25.982Z</time></trkpt><trkpt lat="39.6282491" lon="1.0901613"><ele>0.0</ele><time>2026-04-29T22:10:26.981Z</time></trkpt><trkpt lat="39.6283357" lon="1.0902189"><ele>0.0</ele><time>2026-04-29T22:10:27.981Z</time></trkpt><trkpt lat="39.6284024" lon="1.090259"><ele>0.0</ele><time>2026-04-29T22:10:28.982Z</time></trkpt><trkpt lat="39.6284826" lon="1.0903139"><ele>0.0</ele><time>2026-04-29T22:10:29.982Z</time></trkpt><trkpt lat="39.6285611" lon="1.0903666"><ele>0.0</ele><time>2026-04-29T22:10:30.982Z</time></trkpt><trkpt lat="39.6286381" lon="1.0904181"><ele>0.0</ele><time>2026-04-29T22:10:31.981Z</time></trkpt><trkpt lat="39.6287105" lon="1.0904672"><ele>0.0</ele><time>2026-04-29T22:10:32.981Z</time></trkpt><trkpt lat="39.6287881" lon="1.0905168"><ele>0.0</ele><time>2026-04-29T22:10:33.981Z</time></trkpt><trkpt lat="39.6288665" lon="1.0905663"><ele>0.0</ele><time>2026-04-29T22:10:34.982Z</time></trkpt><trkpt lat="39.6289445" lon="1.0906165"><ele>0.0</ele><time>2026-04-29T22:10:35.981Z</time></trkpt><trkpt lat="39.6290257" lon="1.0906661"><ele>0.0</ele><time>2026-04-29T22:10:36.981Z</time></trkpt><trkpt lat="39.6291091" lon="1.0907162"><ele>0.0</ele><time>2026-04-29T22:10:37.982Z</time></trkpt><trkpt lat="39.6291934" lon="1.0907617"><ele>0.0</ele><time>2026-04-29T22:10:38.981Z</time></trkpt><trkpt lat="39.6292732" lon="1.0908163"><ele>0.0</ele><time>2026-04-29T22:10:39.982Z</time></trkpt><trkpt lat="39.6293519" lon="1.0908739"><ele>0.0</ele><time>2026-04-29T22:10:40.982Z</time></trkpt><trkpt lat="39.6294372" lon="1.0909238"><ele>0.0</ele><time>2026-04-29T22:10:41.982Z</time></trkpt><trkpt lat="39.6296108" lon="1.0910314"><ele>0.0</ele><time>2026-04-29T22:10:43.982Z</time></trkpt><trkpt lat="39.6296921" lon="1.0910906"><ele>0.0</ele><time>2026-04-29T22:10:44.981Z</time></trkpt><trkpt lat="39.6297773" lon="1.0911511"><ele>0.0</ele><time>2026-04-29T22:10:45.982Z</time></trkpt><trkpt lat="39.6298535" lon="1.091211"><ele>0.0</ele><time>2026-04-29T22:10:46.982Z</time></trkpt><trkpt lat="39.6299323" lon="1.0912721"><ele>0.0</ele><time>2026-04-29T22:10:47.982Z</time></trkpt><trkpt lat="39.6300107" lon="1.0913306"><ele>0.0</ele><time>2026-04-29T22:10:48.982Z</time></trkpt><trkpt lat="39.6300778" lon="1.0913808"><ele>0.0</ele><time>2026-04-29T22:10:49.982Z</time></trkpt><trkpt lat="39.6301507" lon="1.091437"><ele>0.0</ele><time>2026-04-29T22:10:50.982Z</time></trkpt><trkpt lat="39.6302235" lon="1.0914967"><ele>0.0</ele><time>2026-04-29T22:10:51.981Z</time></trkpt><trkpt lat="39.6303799" lon="1.0916333"><ele>0.0</ele><time>2026-04-29T22:10:53.982Z</time></trkpt><trkpt lat="39.6304549" lon="1.0916913"><ele>0.0</ele><time>2026-04-29T22:10:54.981Z</time></trkpt><trkpt lat="39.6305316" lon="1.0917519"><ele>0.0</ele><time>2026-04-29T22:10:55.982Z</time></trkpt><trkpt lat="39.6306026" lon="1.0918116"><ele>0.0</ele><time>2026-04-29T22:10:56.982Z</time></trkpt><trkpt lat="39.6306801" lon="1.0918794"><ele>0.0</ele><time>2026-04-29T22:10:57.981Z</time></trkpt><trkpt lat="39.6307591" lon="1.0919456"><ele>0.0</ele><time>2026-04-29T22:10:58.981Z</time></trkpt><trkpt lat="39.6308363" lon="1.0920094"><ele>0.0</ele><time>2026-04-29T22:10:59.982Z</time></trkpt><trkpt lat="39.6309113" lon="1.0920729"><ele>0.0</ele><time>2026-04-29T22:11:00.981Z</time></trkpt><trkpt lat="39.6309821" lon="1.0920992"><ele>0.0</ele><time>2026-04-29T22:11:01.982Z</time></trkpt><trkpt lat="39.6310569" lon="1.0921436"><ele>0.0</ele><time>2026-04-29T22:11:02.981Z</time></trkpt><trkpt lat="39.6312055" lon="1.0922486"><ele>0.0</ele><time>2026-04-29T22:11:04.981Z</time></trkpt><trkpt lat="39.6312773" lon="1.0923018"><ele>0.0</ele><time>2026-04-29T22:11:05.982Z</time></trkpt><trkpt lat="39.631345" lon="1.0923455"><ele>0.0</ele><time>2026-04-29T22:11:06.981Z</time></trkpt><trkpt lat="39.6314261" lon="1.092401"><ele>0.0</ele><time>2026-04-29T22:11:07.982Z</time></trkpt><trkpt lat="39.6314863" lon="1.0924331"><ele>0.0</ele><time>2026-04-29T22:11:08.981Z</time></trkpt><trkpt lat="39.6315633" lon="1.0924848"><ele>0.0</ele><time>2026-04-29T22:11:09.981Z</time></trkpt><trkpt lat="39.6316387" lon="1.092507"><ele>0.0</ele><time>2026-04-29T22:11:10.981Z</time></trkpt><trkpt lat="39.6317192" lon="1.0925593"><ele>0.0</ele><time>2026-04-29T22:11:11.982Z</time></trkpt><trkpt lat="39.631789" lon="1.0926075"><ele>0.0</ele><time>2026-04-29T22:11:12.981Z</time></trkpt><trkpt lat="39.6318663" lon="1.0926614"><ele>0.0</ele><time>2026-04-29T22:11:13.982Z</time></trkpt><trkpt lat="39.6319414" lon="1.0927177"><ele>0.0</ele><time>2026-04-29T22:11:14.982Z</time></trkpt><trkpt lat="39.6320149" lon="1.0927731"><ele>0.0</ele><time>2026-04-29T22:11:15.982Z</time></trkpt><trkpt lat="39.6320855" lon="1.0928255"><ele>0.0</ele><time>2026-04-29T22:11:16.982Z</time></trkpt><trkpt lat="39.6321473" lon="1.0928644"><ele>0.0</ele><time>2026-04-29T22:11:17.982Z</time></trkpt><trkpt lat="39.6322795" lon="1.0929325"><ele>0.0</ele><time>2026-04-29T22:11:19.982Z</time></trkpt><trkpt lat="39.6323593" lon="1.0929767"><ele>0.0</ele><time>2026-04-29T22:11:20.981Z</time></trkpt><trkpt lat="39.6324378" lon="1.0930246"><ele>0.0</ele><time>2026-04-29T22:11:21.981Z</time></trkpt><trkpt lat="39.6325188" lon="1.093079"><ele>0.0</ele><time>2026-04-29T22:11:22.981Z</time></trkpt><trkpt lat="39.6325949" lon="1.0931287"><ele>0.0</ele><time>2026-04-29T22:11:23.982Z</time></trkpt><trkpt lat="39.6328054" lon="1.0932606"><ele>0.0</ele><time>2026-04-29T22:11:26.981Z</time></trkpt><trkpt lat="39.6328801" lon="1.0933135"><ele>0.0</ele><time>2026-04-29T22:11:27.981Z</time></trkpt><trkpt lat="39.6329649" lon="1.0933792"><ele>0.0</ele><time>2026-04-29T22:11:28.981Z</time></trkpt><trkpt lat="39.6330471" lon="1.0934478"><ele>0.0</ele><time>2026-04-29T22:11:29.981Z</time></trkpt><trkpt lat="39.6331318" lon="1.0935163"><ele>0.0</ele><time>2026-04-29T22:11:30.982Z</time></trkpt><trkpt lat="39.6332154" lon="1.0935878"><ele>0.0</ele><time>2026-04-29T22:11:31.982Z</time></trkpt><trkpt lat="39.6332941" lon="1.093657"><ele>0.0</ele><time>2026-04-29T22:11:32.981Z</time></trkpt><trkpt lat="39.6333699" lon="1.0937225"><ele>0.0</ele><time>2026-04-29T22:11:33.982Z</time></trkpt><trkpt lat="39.6334508" lon="1.0937915"><ele>0.0</ele><time>2026-04-29T22:11:34.981Z</time></trkpt><trkpt lat="39.6335268" lon="1.0938498"><ele>0.0</ele><time>2026-04-29T22:11:35.982Z</time></trkpt><trkpt lat="39.6336006" lon="1.0939125"><ele>0.0</ele><time>2026-04-29T22:11:36.982Z</time></trkpt><trkpt lat="39.6336766" lon="1.0939701"><ele>0.0</ele><time>2026-04-29T22:11:37.98Z</time></trkpt><trkpt lat="39.6337506" lon="1.0940266"><ele>0.0</ele><time>2026-04-29T22:11:38.98Z</time></trkpt><trkpt lat="39.6338266" lon="1.0940787"><ele>0.0</ele><time>2026-04-29T22:11:39.98Z</time></trkpt><trkpt lat="39.633906" lon="1.0941294"><ele>0.0</ele><time>2026-04-29T22:11:40.981Z</time></trkpt><trkpt lat="39.6339835" lon="1.0941788"><ele>0.0</ele><time>2026-04-29T22:11:41.98Z</time></trkpt><trkpt lat="39.634062" lon="1.0942261"><ele>0.0</ele><time>2026-04-29T22:11:42.98Z</time></trkpt><trkpt lat="39.63414" lon="1.0942793"><ele>0.0</ele><time>2026-04-29T22:11:43.98Z</time></trkpt><trkpt lat="39.6342151" lon="1.0943284"><ele>0.0</ele><time>2026-04-29T22:11:44.981Z</time></trkpt><trkpt lat="39.634375" lon="1.0944463"><ele>0.0</ele><time>2026-04-29T22:11:46.98Z</time></trkpt><trkpt lat="39.634449" lon="1.0945003"><ele>0.0</ele><time>2026-04-29T22:11:47.981Z</time></trkpt><trkpt lat="39.6345238" lon="1.0945548"><ele>0.0</ele><time>2026-04-29T22:11:48.981Z</time></trkpt><trkpt lat="39.6345987" lon="1.0946115"><ele>0.0</ele><time>2026-04-29T22:11:49.981Z</time></trkpt><trkpt lat="39.6346808" lon="1.0946749"><ele>0.0</ele><time>2026-04-29T22:11:50.98Z</time></trkpt><trkpt lat="39.6347478" lon="1.0947508"><ele>0.0</ele><time>2026-04-29T22:11:51.981Z</time></trkpt><trkpt lat="39.6348205" lon="1.0948121"><ele>0.0</ele><time>2026-04-29T22:11:52.981Z</time></trkpt><trkpt lat="39.6348925" lon="1.0948717"><ele>0.0</ele><time>2026-04-29T22:11:53.981Z</time></trkpt><trkpt lat="39.6349673" lon="1.0949265"><ele>0.0</ele><time>2026-04-29T22:11:54.98Z</time></trkpt><trkpt lat="39.6350421" lon="1.0949884"><ele>0.0</ele><time>2026-04-29T22:11:55.981Z</time></trkpt><trkpt lat="39.6351198" lon="1.0950536"><ele>0.0</ele><time>2026-04-29T22:11:56.98Z</time></trkpt><trkpt lat="39.6351936" lon="1.0951177"><ele>0.0</ele><time>2026-04-29T22:11:57.98Z</time></trkpt><trkpt lat="39.6352653" lon="1.0951784"><ele>0.0</ele><time>2026-04-29T22:11:58.98Z</time></trkpt><trkpt lat="39.6353385" lon="1.0952331"><ele>0.0</ele><time>2026-04-29T22:11:59.981Z</time></trkpt><trkpt lat="39.635415" lon="1.0952894"><ele>0.0</ele><time>2026-04-29T22:12:00.981Z</time></trkpt><trkpt lat="39.6354898" lon="1.0953463"><ele>0.0</ele><time>2026-04-29T22:12:01.98Z</time></trkpt><trkpt lat="39.6355634" lon="1.0954028"><ele>0.0</ele><time>2026-04-29T22:12:02.98Z</time></trkpt><trkpt lat="39.6356352" lon="1.0954613"><ele>0.0</ele><time>2026-04-29T22:12:03.98Z</time></trkpt><trkpt lat="39.6357079" lon="1.0955212"><ele>0.0</ele><time>2026-04-29T22:12:04.98Z</time></trkpt><trkpt lat="39.6358597" lon="1.0956396"><ele>0.0</ele><time>2026-04-29T22:12:06.98Z</time></trkpt><trkpt lat="39.635938" lon="1.0956961"><ele>0.0</ele><time>2026-04-29T22:12:07.981Z</time></trkpt><trkpt lat="39.6360122" lon="1.0957517"><ele>0.0</ele><time>2026-04-29T22:12:08.981Z</time></trkpt><trkpt lat="39.6360964" lon="1.0958204"><ele>0.0</ele><time>2026-04-29T22:12:09.981Z</time></trkpt><trkpt lat="39.6361729" lon="1.0958809"><ele>0.0</ele><time>2026-04-29T22:12:10.98Z</time></trkpt><trkpt lat="39.6362535" lon="1.0959505"><ele>0.0</ele><time>2026-04-29T22:12:11.981Z</time></trkpt><trkpt lat="39.6363281" lon="1.0960111"><ele>0.0</ele><time>2026-04-29T22:12:12.98Z</time></trkpt><trkpt lat="39.6364046" lon="1.096071"><ele>0.0</ele><time>2026-04-29T22:12:13.98Z</time></trkpt><trkpt lat="39.6364811" lon="1.0961325"><ele>0.0</ele><time>2026-04-29T22:12:14.98Z</time></trkpt><trkpt lat="39.636555" lon="1.096196"><ele>0.0</ele><time>2026-04-29T22:12:15.98Z</time></trkpt><trkpt lat="39.6366258" lon="1.0962521"><ele>0.0</ele><time>2026-04-29T22:12:16.981Z</time></trkpt><trkpt lat="39.6366972" lon="1.0963068"><ele>0.0</ele><time>2026-04-29T22:12:17.98Z</time></trkpt><trkpt lat="39.6367732" lon="1.096363"><ele>0.0</ele><time>2026-04-29T22:12:18.98Z</time></trkpt><trkpt lat="39.6368454" lon="1.0964167"><ele>0.0</ele><time>2026-04-29T22:12:19.981Z</time></trkpt><trkpt lat="39.6369172" lon="1.09647"><ele>0.0</ele><time>2026-04-29T22:12:20.981Z</time></trkpt><trkpt lat="39.6369902" lon="1.0965251"><ele>0.0</ele><time>2026-04-29T22:12:21.98Z</time></trkpt><trkpt lat="39.6370678" lon="1.0965829"><ele>0.0</ele><time>2026-04-29T22:12:22.981Z</time></trkpt><trkpt lat="39.6371436" lon="1.0966384"><ele>0.0</ele><time>2026-04-29T22:12:23.98Z</time></trkpt><trkpt lat="39.6372186" lon="1.0966951"><ele>0.0</ele><time>2026-04-29T22:12:24.98Z</time></trkpt><trkpt lat="39.6372951" lon="1.0967529"><ele>0.0</ele><time>2026-04-29T22:12:25.98Z</time></trkpt><trkpt lat="39.637452" lon="1.096865"><ele>0.0</ele><time>2026-04-29T22:12:27.98Z</time></trkpt><trkpt lat="39.637605" lon="1.0969696"><ele>0.0</ele><time>2026-04-29T22:12:29.981Z</time></trkpt><trkpt lat="39.6376797" lon="1.0970274"><ele>0.0</ele><time>2026-04-29T22:12:30.98Z</time></trkpt><trkpt lat="39.6377574" lon="1.0970891"><ele>0.0</ele><time>2026-04-29T22:12:31.981Z</time></trkpt><trkpt lat="39.6378517" lon="1.097166"><ele>0.0</ele><time>2026-04-29T22:12:32.981Z</time></trkpt><trkpt lat="39.6379284" lon="1.0972263"><ele>0.0</ele><time>2026-04-29T22:12:33.981Z</time></trkpt><trkpt lat="39.6380022" lon="1.0972873"><ele>0.0</ele><time>2026-04-29T22:12:34.981Z</time></trkpt><trkpt lat="39.638081" lon="1.0973716"><ele>0.0</ele><time>2026-04-29T22:12:35.981Z</time></trkpt><trkpt lat="39.6381556" lon="1.097437"><ele>0.0</ele><time>2026-04-29T22:12:36.981Z</time></trkpt><trkpt lat="39.6382272" lon="1.0974919"><ele>0.0</ele><time>2026-04-29T22:12:37.98Z</time></trkpt><trkpt lat="39.6383004" lon="1.097548"><ele>0.0</ele><time>2026-04-29T22:12:38.98Z</time></trkpt><trkpt lat="39.6383721" lon="1.0976051"><ele>0.0</ele><time>2026-04-29T22:12:39.98Z</time></trkpt><trkpt lat="39.6384465" lon="1.097666"><ele>0.0</ele><time>2026-04-29T22:12:40.98Z</time></trkpt><trkpt lat="39.6385191" lon="1.0977291"><ele>0.0</ele><time>2026-04-29T22:12:41.981Z</time></trkpt><trkpt lat="39.6385917" lon="1.0977882"><ele>0.0</ele><time>2026-04-29T22:12:42.981Z</time></trkpt><trkpt lat="39.6386651" lon="1.0978466"><ele>0.0</ele><time>2026-04-29T22:12:43.98Z</time></trkpt><trkpt lat="39.6387397" lon="1.0979023"><ele>0.0</ele><time>2026-04-29T22:12:44.98Z</time></trkpt><trkpt lat="39.6388135" lon="1.097957"><ele>0.0</ele><time>2026-04-29T22:12:45.98Z</time></trkpt><trkpt lat="39.6388867" lon="1.0980117"><ele>0.0</ele><time>2026-04-29T22:12:46.981Z</time></trkpt><trkpt lat="39.6390322" lon="1.0981266"><ele>0.0</ele><time>2026-04-29T22:12:48.981Z</time></trkpt><trkpt lat="39.6391072" lon="1.0981847"><ele>0.0</ele><time>2026-04-29T22:12:49.981Z</time></trkpt><trkpt lat="39.6391792" lon="1.09824"><ele>0.0</ele><time>2026-04-29T22:12:50.98Z</time></trkpt><trkpt lat="39.6392536" lon="1.0982938"><ele>0.0</ele><time>2026-04-29T22:12:51.98Z</time></trkpt><trkpt lat="39.639327" lon="1.0983553"><ele>0.0</ele><time>2026-04-29T22:12:52.98Z</time></trkpt><trkpt lat="39.6394006" lon="1.0984087"><ele>0.0</ele><time>2026-04-29T22:12:53.981Z</time></trkpt><trkpt lat="39.6394755" lon="1.0984674"><ele>0.0</ele><time>2026-04-29T22:12:54.981Z</time></trkpt><trkpt lat="39.6395518" lon="1.0985226"><ele>0.0</ele><time>2026-04-29T22:12:55.98Z</time></trkpt><trkpt lat="39.6396256" lon="1.0985853"><ele>0.0</ele><time>2026-04-29T22:12:56.98Z</time></trkpt><trkpt lat="39.6396991" lon="1.098643"><ele>0.0</ele><time>2026-04-29T22:12:57.98Z</time></trkpt><trkpt lat="39.6397748" lon="1.0987012"><ele>0.0</ele><time>2026-04-29T22:12:58.981Z</time></trkpt><trkpt lat="39.6398517" lon="1.0987581"><ele>0.0</ele><time>2026-04-29T22:12:59.981Z</time></trkpt><trkpt lat="39.6399266" lon="1.0988148"><ele>0.0</ele><time>2026-04-29T22:13:00.981Z</time></trkpt><trkpt lat="39.6400018" lon="1.0988688"><ele>0.0</ele><time>2026-04-29T22:13:01.98Z</time></trkpt><trkpt lat="39.6400768" lon="1.0989151"><ele>0.0</ele><time>2026-04-29T22:13:02.98Z</time></trkpt><trkpt lat="39.6401561" lon="1.0989587"><ele>0.0</ele><time>2026-04-29T22:13:03.98Z</time></trkpt><trkpt lat="39.6402333" lon="1.0990044"><ele>0.0</ele><time>2026-04-29T22:13:04.981Z</time></trkpt><trkpt lat="39.64031" lon="1.0990529"><ele>0.0</ele><time>2026-04-29T22:13:05.981Z</time></trkpt><trkpt lat="39.6403876" lon="1.099097"><ele>0.0</ele><time>2026-04-29T22:13:06.98Z</time></trkpt><trkpt lat="39.6404676" lon="1.0991432"><ele>0.0</ele><time>2026-04-29T22:13:07.98Z</time></trkpt><trkpt lat="39.6406212" lon="1.0992311"><ele>0.0</ele><time>2026-04-29T22:13:09.981Z</time></trkpt><trkpt lat="39.6407012" lon="1.0992863"><ele>0.0</ele><time>2026-04-29T22:13:10.98Z</time></trkpt><trkpt lat="39.6407768" lon="1.0993402"><ele>0.0</ele><time>2026-04-29T22:13:11.98Z</time></trkpt><trkpt lat="39.6408514" lon="1.0993918"><ele>0.0</ele><time>2026-04-29T22:13:12.981Z</time></trkpt><trkpt lat="39.6409266" lon="1.0994493"><ele>0.0</ele><time>2026-04-29T22:13:13.98Z</time></trkpt><trkpt lat="39.6410054" lon="1.0995061"><ele>0.0</ele><time>2026-04-29T22:13:14.981Z</time></trkpt><trkpt lat="39.6410846" lon="1.0995645"><ele>0.0</ele><time>2026-04-29T22:13:15.981Z</time></trkpt><trkpt lat="39.6411728" lon="1.0996435"><ele>0.0</ele><time>2026-04-29T22:13:16.981Z</time></trkpt><trkpt lat="39.6412543" lon="1.0997108"><ele>0.0</ele><time>2026-04-29T22:13:17.981Z</time></trkpt><trkpt lat="39.6413301" lon="1.0997651"><ele>0.0</ele><time>2026-04-29T22:13:18.98Z</time></trkpt><trkpt lat="39.6414049" lon="1.0998155"><ele>0.0</ele><time>2026-04-29T22:13:19.98Z</time></trkpt><trkpt lat="39.6414803" lon="1.099867"><ele>0.0</ele><time>2026-04-29T22:13:20.98Z</time></trkpt><trkpt lat="39.6415548" lon="1.0999185"><ele>0.0</ele><time>2026-04-29T22:13:21.98Z</time></trkpt><trkpt lat="39.6416345" lon="1.0999699"><ele>0.0</ele><time>2026-04-29T22:13:22.981Z</time></trkpt><trkpt lat="39.6417105" lon="1.1000218"><ele>0.0</ele><time>2026-04-29T22:13:23.981Z</time></trkpt><trkpt lat="39.6417895" lon="1.100076"><ele>0.0</ele><time>2026-04-29T22:13:24.981Z</time></trkpt><trkpt lat="39.6418733" lon="1.1001344"><ele>0.0</ele><time>2026-04-29T22:13:25.98Z</time></trkpt><trkpt lat="39.6419471" lon="1.1001959"><ele>0.0</ele><time>2026-04-29T22:13:26.98Z</time></trkpt><trkpt lat="39.6420192" lon="1.1002495"><ele>0.0</ele><time>2026-04-29T22:13:27.981Z</time></trkpt><trkpt lat="39.642095" lon="1.1003095"><ele>0.0</ele><time>2026-04-29T22:13:28.98Z</time></trkpt><trkpt lat="39.6422472" lon="1.1004285"><ele>0.0</ele><time>2026-04-29T22:13:30.98Z</time></trkpt><trkpt lat="39.6423205" lon="1.1004896"><ele>0.0</ele><time>2026-04-29T22:13:31.98Z</time></trkpt><trkpt lat="39.6424625" lon="1.100599"><ele>0.0</ele><time>2026-04-29T22:13:33.98Z</time></trkpt><trkpt lat="39.6425384" lon="1.1006422"><ele>0.0</ele><time>2026-04-29T22:13:34.98Z</time></trkpt><trkpt lat="39.6426092" lon="1.1006911"><ele>0.0</ele><time>2026-04-29T22:13:35.981Z</time></trkpt><trkpt lat="39.6426819" lon="1.1007424"><ele>0.0</ele><time>2026-04-29T22:13:36.98Z</time></trkpt><trkpt lat="39.6427552" lon="1.100791"><ele>0.0</ele><time>2026-04-29T22:13:37.98Z</time></trkpt><trkpt lat="39.6428301" lon="1.1008439"><ele>0.0</ele><time>2026-04-29T22:13:38.981Z</time></trkpt><trkpt lat="39.6429068" lon="1.1008953"><ele>0.0</ele><time>2026-04-29T22:13:39.981Z</time></trkpt><trkpt lat="39.6429961" lon="1.1009562"><ele>0.0</ele><time>2026-04-29T22:13:40.981Z</time></trkpt><trkpt lat="39.6430676" lon="1.1009757"><ele>0.0</ele><time>2026-04-29T22:13:41.98Z</time></trkpt><trkpt lat="39.6431389" lon="1.1010268"><ele>0.0</ele><time>2026-04-29T22:13:42.98Z</time></trkpt><trkpt lat="39.6432076" lon="1.101076"><ele>0.0</ele><time>2026-04-29T22:13:43.98Z</time></trkpt><trkpt lat="39.6432787" lon="1.1011245"><ele>0.0</ele><time>2026-04-29T22:13:44.981Z</time></trkpt><trkpt lat="39.6433491" lon="1.1011574"><ele>0.0</ele><time>2026-04-29T22:13:45.981Z</time></trkpt><trkpt lat="39.6434205" lon="1.1012045"><ele>0.0</ele><time>2026-04-29T22:13:46.98Z</time></trkpt><trkpt lat="39.6434964" lon="1.1012586"><ele>0.0</ele><time>2026-04-29T22:13:47.98Z</time></trkpt><trkpt lat="39.6435676" lon="1.1013078"><ele>0.0</ele><time>2026-04-29T22:13:48.98Z</time></trkpt><trkpt lat="39.6436473" lon="1.1013675"><ele>0.0</ele><time>2026-04-29T22:13:49.98Z</time></trkpt><trkpt lat="39.6437954" lon="1.1014836"><ele>0.0</ele><time>2026-04-29T22:13:51.98Z</time></trkpt><trkpt lat="39.6438717" lon="1.1015324"><ele>0.0</ele><time>2026-04-29T22:13:52.98Z</time></trkpt><trkpt lat="39.6439447" lon="1.1015821"><ele>0.0</ele><time>2026-04-29T22:13:53.981Z</time></trkpt><trkpt lat="39.6440273" lon="1.1016417"><ele>0.0</ele><time>2026-04-29T22:13:54.981Z</time></trkpt><trkpt lat="39.6441109" lon="1.1017064"><ele>0.0</ele><time>2026-04-29T22:13:55.98Z</time></trkpt><trkpt lat="39.6441829" lon="1.1017587"><ele>0.0</ele><time>2026-04-29T22:13:56.981Z</time></trkpt><trkpt lat="39.6442586" lon="1.1018043"><ele>0.0</ele><time>2026-04-29T22:13:57.98Z</time></trkpt><trkpt lat="39.6443383" lon="1.1018451"><ele>0.0</ele><time>2026-04-29T22:13:58.98Z</time></trkpt><trkpt lat="39.6444153" lon="1.1018961"><ele>0.0</ele><time>2026-04-29T22:13:59.98Z</time></trkpt><trkpt lat="39.6444962" lon="1.1019426"><ele>0.0</ele><time>2026-04-29T22:14:00.98Z</time></trkpt><trkpt lat="39.644574" lon="1.1019921"><ele>0.0</ele><time>2026-04-29T22:14:01.981Z</time></trkpt><trkpt lat="39.6446499" lon="1.1020378"><ele>0.0</ele><time>2026-04-29T22:14:02.98Z</time></trkpt><trkpt lat="39.6447267" lon="1.1020821"><ele>0.0</ele><time>2026-04-29T22:14:03.98Z</time></trkpt><trkpt lat="39.6448833" lon="1.1021695"><ele>0.0</ele><time>2026-04-29T22:14:05.98Z</time></trkpt><trkpt lat="39.6449597" lon="1.1022175"><ele>0.0</ele><time>2026-04-29T22:14:06.981Z</time></trkpt><trkpt lat="39.6450366" lon="1.1022691"><ele>0.0</ele><time>2026-04-29T22:14:07.981Z</time></trkpt><trkpt lat="39.6451086" lon="1.1023284"><ele>0.0</ele><time>2026-04-29T22:14:08.98Z</time></trkpt><trkpt lat="39.6451808" lon="1.1023918"><ele>0.0</ele><time>2026-04-29T22:14:09.981Z</time></trkpt><trkpt lat="39.6452551" lon="1.1024515"><ele>0.0</ele><time>2026-04-29T22:14:10.981Z</time></trkpt><trkpt lat="39.645403" lon="1.1025642"><ele>0.0</ele><time>2026-04-29T22:14:12.98Z</time></trkpt><trkpt lat="39.6454755" lon="1.1026268"><ele>0.0</ele><time>2026-04-29T22:14:13.981Z</time></trkpt><trkpt lat="39.6455531" lon="1.1026891"><ele>0.0</ele><time>2026-04-29T22:14:14.981Z</time></trkpt><trkpt lat="39.6456323" lon="1.1027534"><ele>0.0</ele><time>2026-04-29T22:14:15.981Z</time></trkpt><trkpt lat="39.6457098" lon="1.1028133"><ele>0.0</ele><time>2026-04-29T22:14:16.981Z</time></trkpt><trkpt lat="39.6457803" lon="1.102873"><ele>0.0</ele><time>2026-04-29T22:14:17.981Z</time></trkpt><trkpt lat="39.6458532" lon="1.1029327"><ele>0.0</ele><time>2026-04-29T22:14:18.98Z</time></trkpt><trkpt lat="39.6459263" lon="1.1029896"><ele>0.0</ele><time>2026-04-29T22:14:19.981Z</time></trkpt><trkpt lat="39.6460029" lon="1.103049"><ele>0.0</ele><time>2026-04-29T22:14:20.981Z</time></trkpt><trkpt lat="39.6460754" lon="1.1031054"><ele>0.0</ele><time>2026-04-29T22:14:21.98Z</time></trkpt><trkpt lat="39.6461483" lon="1.103166"><ele>0.0</ele><time>2026-04-29T22:14:22.981Z</time></trkpt><trkpt lat="39.6462205" lon="1.1032201"><ele>0.0</ele><time>2026-04-29T22:14:23.98Z</time></trkpt><trkpt lat="39.6462948" lon="1.1032742"><ele>0.0</ele><time>2026-04-29T22:14:24.981Z</time></trkpt><trkpt lat="39.6463684" lon="1.1033292"><ele>0.0</ele><time>2026-04-29T22:14:25.981Z</time></trkpt><trkpt lat="39.6464461" lon="1.1033924"><ele>0.0</ele><time>2026-04-29T22:14:26.98Z</time></trkpt><trkpt lat="39.6465174" lon="1.1034502"><ele>0.0</ele><time>2026-04-29T22:14:27.98Z</time></trkpt><trkpt lat="39.6465915" lon="1.1035081"><ele>0.0</ele><time>2026-04-29T22:14:28.98Z</time></trkpt><trkpt lat="39.6466682" lon="1.1035651"><ele>0.0</ele><time>2026-04-29T22:14:29.98Z</time></trkpt><trkpt lat="39.6467435" lon="1.1036186"><ele>0.0</ele><time>2026-04-29T22:14:30.98Z</time></trkpt><trkpt lat="39.6468219" lon="1.1036717"><ele>0.0</ele><time>2026-04-29T22:14:31.981Z</time></trkpt><trkpt lat="39.6469673" lon="1.1037936"><ele>0.0</ele><time>2026-04-29T22:14:33.981Z</time></trkpt><trkpt lat="39.6470397" lon="1.1038512"><ele>0.0</ele><time>2026-04-29T22:14:34.98Z</time></trkpt><trkpt lat="39.6471173" lon="1.1039047"><ele>0.0</ele><time>2026-04-29T22:14:35.98Z</time></trkpt><trkpt lat="39.647273" lon="1.1040199"><ele>0.0</ele><time>2026-04-29T22:14:37.981Z</time></trkpt><trkpt lat="39.6473498" lon="1.104078"><ele>0.0</ele><time>2026-04-29T22:14:38.98Z</time></trkpt><trkpt lat="39.6474294" lon="1.1041392"><ele>0.0</ele><time>2026-04-29T22:14:39.98Z</time></trkpt><trkpt lat="39.6475048" lon="1.1041944"><ele>0.0</ele><time>2026-04-29T22:14:40.98Z</time></trkpt><trkpt lat="39.6475783" lon="1.1042549"><ele>0.0</ele><time>2026-04-29T22:14:41.981Z</time></trkpt><trkpt lat="39.6476547" lon="1.1043095"><ele>0.0</ele><time>2026-04-29T22:14:42.981Z</time></trkpt><trkpt lat="39.6477316" lon="1.1043649"><ele>0.0</ele><time>2026-04-29T22:14:43.981Z</time></trkpt><trkpt lat="39.6478099" lon="1.104418"><ele>0.0</ele><time>2026-04-29T22:14:44.981Z</time></trkpt><trkpt lat="39.647884" lon="1.1044742"><ele>0.0</ele><time>2026-04-29T22:14:45.98Z</time></trkpt><trkpt lat="39.6479573" lon="1.1045327"><ele>0.0</ele><time>2026-04-29T22:14:46.981Z</time></trkpt><trkpt lat="39.6480292" lon="1.1045897"><ele>0.0</ele><time>2026-04-29T22:14:47.981Z</time></trkpt><trkpt lat="39.648105" lon="1.1046389"><ele>0.0</ele><time>2026-04-29T22:14:48.981Z</time></trkpt><trkpt lat="39.6481802" lon="1.1046914"><ele>0.0</ele><time>2026-04-29T22:14:49.98Z</time></trkpt><trkpt lat="39.6482552" lon="1.1047462"><ele>0.0</ele><time>2026-04-29T22:14:50.981Z</time></trkpt><trkpt lat="39.6483302" lon="1.1048043"><ele>0.0</ele><time>2026-04-29T22:14:51.98Z</time></trkpt><trkpt lat="39.6484054" lon="1.1048582"><ele>0.0</ele><time>2026-04-29T22:14:52.98Z</time></trkpt><trkpt lat="39.6485529" lon="1.1049562"><ele>0.0</ele><time>2026-04-29T22:14:54.98Z</time></trkpt><trkpt lat="39.6486303" lon="1.1050034"><ele>0.0</ele><time>2026-04-29T22:14:55.98Z</time></trkpt><trkpt lat="39.6487042" lon="1.1050569"><ele>0.0</ele><time>2026-04-29T22:14:56.981Z</time></trkpt><trkpt lat="39.6487801" lon="1.105111"><ele>0.0</ele><time>2026-04-29T22:14:57.98Z</time></trkpt><trkpt lat="39.6488522" lon="1.1051598"><ele>0.0</ele><time>2026-04-29T22:14:58.981Z</time></trkpt><trkpt lat="39.6489273" lon="1.1052076"><ele>0.0</ele><time>2026-04-29T22:14:59.981Z</time></trkpt><trkpt lat="39.6490104" lon="1.1052858"><ele>0.0</ele><time>2026-04-29T22:15:00.98Z</time></trkpt><trkpt lat="39.6491028" lon="1.105355"><ele>0.0</ele><time>2026-04-29T22:15:01.98Z</time></trkpt><trkpt lat="39.6491818" lon="1.1054157"><ele>0.0</ele><time>2026-04-29T22:15:02.981Z</time></trkpt><trkpt lat="39.6492569" lon="1.1054771"><ele>0.0</ele><time>2026-04-29T22:15:03.981Z</time></trkpt><trkpt lat="39.6493347" lon="1.1055363"><ele>0.0</ele><time>2026-04-29T22:15:04.98Z</time></trkpt><trkpt lat="39.6494117" lon="1.1055917"><ele>0.0</ele><time>2026-04-29T22:15:05.981Z</time></trkpt><trkpt lat="39.6494897" lon="1.1056452"><ele>0.0</ele><time>2026-04-29T22:15:06.98Z</time></trkpt><trkpt lat="39.6495667" lon="1.1057029"><ele>0.0</ele><time>2026-04-29T22:15:07.98Z</time></trkpt><trkpt lat="39.6496491" lon="1.1057626"><ele>0.0</ele><time>2026-04-29T22:15:08.981Z</time></trkpt><trkpt lat="39.6497258" lon="1.1058187"><ele>0.0</ele><time>2026-04-29T22:15:09.981Z</time></trkpt><trkpt lat="39.6498033" lon="1.1058715"><ele>0.0</ele><time>2026-04-29T22:15:10.981Z</time></trkpt><trkpt lat="39.6498788" lon="1.1059226"><ele>0.0</ele><time>2026-04-29T22:15:11.98Z</time></trkpt><trkpt lat="39.6499509" lon="1.1059776"><ele>0.0</ele><time>2026-04-29T22:15:12.981Z</time></trkpt><trkpt lat="39.6500208" lon="1.106027"><ele>0.0</ele><time>2026-04-29T22:15:13.981Z</time></trkpt><trkpt lat="39.650168" lon="1.106126"><ele>0.0</ele><time>2026-04-29T22:15:15.981Z</time></trkpt><trkpt lat="39.6502436" lon="1.1061733"><ele>0.0</ele><time>2026-04-29T22:15:16.981Z</time></trkpt><trkpt lat="39.6503088" lon="1.1062079"><ele>0.0</ele><time>2026-04-29T22:15:17.98Z</time></trkpt><trkpt lat="39.6503834" lon="1.1062534"><ele>0.0</ele><time>2026-04-29T22:15:18.98Z</time></trkpt><trkpt lat="39.6504596" lon="1.1063046"><ele>0.0</ele><time>2026-04-29T22:15:19.98Z</time></trkpt><trkpt lat="39.6505347" lon="1.1063581"><ele>0.0</ele><time>2026-04-29T22:15:20.98Z</time></trkpt><trkpt lat="39.6506124" lon="1.1064174"><ele>0.0</ele><time>2026-04-29T22:15:21.981Z</time></trkpt><trkpt lat="39.6506865" lon="1.1064844"><ele>0.0</ele><time>2026-04-29T22:15:22.98Z</time></trkpt><trkpt lat="39.6507661" lon="1.1065484"><ele>0.0</ele><time>2026-04-29T22:15:23.98Z</time></trkpt><trkpt lat="39.6508444" lon="1.1066106"><ele>0.0</ele><time>2026-04-29T22:15:24.98Z</time></trkpt><trkpt lat="39.6509227" lon="1.1066737"><ele>0.0</ele><time>2026-04-29T22:15:25.98Z</time></trkpt><trkpt lat="39.6509968" lon="1.1067413"><ele>0.0</ele><time>2026-04-29T22:15:26.98Z</time></trkpt><trkpt lat="39.6510785" lon="1.106817"><ele>0.0</ele><time>2026-04-29T22:15:27.98Z</time></trkpt><trkpt lat="39.6511617" lon="1.1068898"><ele>0.0</ele><time>2026-04-29T22:15:28.98Z</time></trkpt><trkpt lat="39.6512366" lon="1.1069532"><ele>0.0</ele><time>2026-04-29T22:15:29.98Z</time></trkpt><trkpt lat="39.6513085" lon="1.1070149"><ele>0.0</ele><time>2026-04-29T22:15:30.981Z</time></trkpt><trkpt lat="39.651386" lon="1.1070778"><ele>0.0</ele><time>2026-04-29T22:15:31.981Z</time></trkpt><trkpt lat="39.6514619" lon="1.1071372"><ele>0.0</ele><time>2026-04-29T22:15:32.981Z</time></trkpt><trkpt lat="39.6515383" lon="1.1071904"><ele>0.0</ele><time>2026-04-29T22:15:33.98Z</time></trkpt><trkpt lat="39.6516913" lon="1.1073063"><ele>0.0</ele><time>2026-04-29T22:15:35.98Z</time></trkpt><trkpt lat="39.6517654" lon="1.1073637"><ele>0.0</ele><time>2026-04-29T22:15:36.981Z</time></trkpt><trkpt lat="39.651836" lon="1.1074162"><ele>0.0</ele><time>2026-04-29T22:15:37.98Z</time></trkpt><trkpt lat="39.6519074" lon="1.1074641"><ele>0.0</ele><time>2026-04-29T22:15:38.98Z</time></trkpt><trkpt lat="39.6520517" lon="1.1075552"><ele>0.0</ele><time>2026-04-29T22:15:40.981Z</time></trkpt><trkpt lat="39.6521315" lon="1.1076022"><ele>0.0</ele><time>2026-04-29T22:15:41.981Z</time></trkpt><trkpt lat="39.6522062" lon="1.1076488"><ele>0.0</ele><time>2026-04-29T22:15:42.981Z</time></trkpt><trkpt lat="39.6522806" lon="1.1076937"><ele>0.0</ele><time>2026-04-29T22:15:43.981Z</time></trkpt><trkpt lat="39.6523568" lon="1.10774"><ele>0.0</ele><time>2026-04-29T22:15:44.98Z</time></trkpt><trkpt lat="39.6524363" lon="1.1077856"><ele>0.0</ele><time>2026-04-29T22:15:45.98Z</time></trkpt><trkpt lat="39.6525184" lon="1.1078317"><ele>0.0</ele><time>2026-04-29T22:15:46.979Z</time></trkpt><trkpt lat="39.6525938" lon="1.1078756"><ele>0.0</ele><time>2026-04-29T22:15:47.979Z</time></trkpt><trkpt lat="39.6526712" lon="1.1079264"><ele>0.0</ele><time>2026-04-29T22:15:48.98Z</time></trkpt><trkpt lat="39.6527515" lon="1.1079781"><ele>0.0</ele><time>2026-04-29T22:15:49.98Z</time></trkpt><trkpt lat="39.652827" lon="1.1080268"><ele>0.0</ele><time>2026-04-29T22:15:50.98Z</time></trkpt><trkpt lat="39.6529075" lon="1.1080809"><ele>0.0</ele><time>2026-04-29T22:15:51.979Z</time></trkpt><trkpt lat="39.6529876" lon="1.108133"><ele>0.0</ele><time>2026-04-29T22:15:52.98Z</time></trkpt><trkpt lat="39.653071" lon="1.1081911"><ele>0.0</ele><time>2026-04-29T22:15:53.98Z</time></trkpt><trkpt lat="39.6531487" lon="1.108248"><ele>0.0</ele><time>2026-04-29T22:15:54.98Z</time></trkpt><trkpt lat="39.6532949" lon="1.1083617"><ele>0.0</ele><time>2026-04-29T22:15:56.98Z</time></trkpt><trkpt lat="39.653373" lon="1.1084184"><ele>0.0</ele><time>2026-04-29T22:15:57.98Z</time></trkpt><trkpt lat="39.6534531" lon="1.1084694"><ele>0.0</ele><time>2026-04-29T22:15:58.98Z</time></trkpt><trkpt lat="39.6535327" lon="1.1085242"><ele>0.0</ele><time>2026-04-29T22:15:59.98Z</time></trkpt><trkpt lat="39.6536141" lon="1.108581"><ele>0.0</ele><time>2026-04-29T22:16:00.979Z</time></trkpt><trkpt lat="39.6536977" lon="1.1086419"><ele>0.0</ele><time>2026-04-29T22:16:01.979Z</time></trkpt><trkpt lat="39.6537738" lon="1.1087012"><ele>0.0</ele><time>2026-04-29T22:16:02.98Z</time></trkpt><trkpt lat="39.65385" lon="1.1087597"><ele>0.0</ele><time>2026-04-29T22:16:03.979Z</time></trkpt><trkpt lat="39.6539221" lon="1.1088139"><ele>0.0</ele><time>2026-04-29T22:16:04.979Z</time></trkpt><trkpt lat="39.6539951" lon="1.1088682"><ele>0.0</ele><time>2026-04-29T22:16:05.979Z</time></trkpt><trkpt lat="39.6540683" lon="1.1089274"><ele>0.0</ele><time>2026-04-29T22:16:06.979Z</time></trkpt><trkpt lat="39.6541422" lon="1.1089861"><ele>0.0</ele><time>2026-04-29T22:16:07.979Z</time></trkpt><trkpt lat="39.6542169" lon="1.1090464"><ele>0.0</ele><time>2026-04-29T22:16:08.98Z</time></trkpt><trkpt lat="39.6542904" lon="1.1091055"><ele>0.0</ele><time>2026-04-29T22:16:09.98Z</time></trkpt><trkpt lat="39.6543631" lon="1.1091672"><ele>0.0</ele><time>2026-04-29T22:16:10.98Z</time></trkpt><trkpt lat="39.6545116" lon="1.1092895"><ele>0.0</ele><time>2026-04-29T22:16:12.98Z</time></trkpt><trkpt lat="39.6545852" lon="1.1093497"><ele>0.0</ele><time>2026-04-29T22:16:13.979Z</time></trkpt><trkpt lat="39.6546622" lon="1.1094089"><ele>0.0</ele><time>2026-04-29T22:16:14.98Z</time></trkpt><trkpt lat="39.6547374" lon="1.1094651"><ele>0.0</ele><time>2026-04-29T22:16:15.98Z</time></trkpt><trkpt lat="39.654892" lon="1.1095729"><ele>0.0</ele><time>2026-04-29T22:16:17.98Z</time></trkpt><trkpt lat="39.6549683" lon="1.1096424"><ele>0.0</ele><time>2026-04-29T22:16:18.98Z</time></trkpt><trkpt lat="39.6550404" lon="1.1097032"><ele>0.0</ele><time>2026-04-29T22:16:19.98Z</time></trkpt><trkpt lat="39.6551131" lon="1.109751"><ele>0.0</ele><time>2026-04-29T22:16:20.98Z</time></trkpt><trkpt lat="39.6551894" lon="1.1097988"><ele>0.0</ele><time>2026-04-29T22:16:21.98Z</time></trkpt><trkpt lat="39.6552646" lon="1.1098474"><ele>0.0</ele><time>2026-04-29T22:16:22.979Z</time></trkpt><trkpt lat="39.655342" lon="1.1098968"><ele>0.0</ele><time>2026-04-29T22:16:23.979Z</time></trkpt><trkpt lat="39.6554171" lon="1.109942"><ele>0.0</ele><time>2026-04-29T22:16:24.979Z</time></trkpt><trkpt lat="39.6554936" lon="1.1099851"><ele>0.0</ele><time>2026-04-29T22:16:25.98Z</time></trkpt><trkpt lat="39.6555731" lon="1.1100311"><ele>0.0</ele><time>2026-04-29T22:16:26.98Z</time></trkpt><trkpt lat="39.6556496" lon="1.1100754"><ele>0.0</ele><time>2026-04-29T22:16:27.979Z</time></trkpt><trkpt lat="39.6557174" lon="1.1101161"><ele>0.0</ele><time>2026-04-29T22:16:28.979Z</time></trkpt><trkpt lat="39.6557877" lon="1.1101634"><ele>0.0</ele><time>2026-04-29T22:16:29.98Z</time></trkpt><trkpt lat="39.655862" lon="1.1102117"><ele>0.0</ele><time>2026-04-29T22:16:30.979Z</time></trkpt><trkpt lat="39.6559397" lon="1.1102642"><ele>0.0</ele><time>2026-04-29T22:16:31.979Z</time></trkpt><trkpt lat="39.6560193" lon="1.1103188"><ele>0.0</ele><time>2026-04-29T22:16:32.98Z</time></trkpt><trkpt lat="39.6560981" lon="1.1103791"><ele>0.0</ele><time>2026-04-29T22:16:33.979Z</time></trkpt><trkpt lat="39.6561751" lon="1.1104378"><ele>0.0</ele><time>2026-04-29T22:16:34.979Z</time></trkpt><trkpt lat="39.6562518" lon="1.1104936"><ele>0.0</ele><time>2026-04-29T22:16:35.98Z</time></trkpt><trkpt lat="39.6563284" lon="1.1105467"><ele>0.0</ele><time>2026-04-29T22:16:36.979Z</time></trkpt><trkpt lat="39.656482" lon="1.1106495"><ele>0.0</ele><time>2026-04-29T22:16:38.98Z</time></trkpt><trkpt lat="39.6565497" lon="1.1107087"><ele>0.0</ele><time>2026-04-29T22:16:39.98Z</time></trkpt><trkpt lat="39.656625" lon="1.1107559"><ele>0.0</ele><time>2026-04-29T22:16:40.979Z</time></trkpt><trkpt lat="39.6566998" lon="1.1108031"><ele>0.0</ele><time>2026-04-29T22:16:41.98Z</time></trkpt><trkpt lat="39.6567778" lon="1.1108578"><ele>0.0</ele><time>2026-04-29T22:16:42.979Z</time></trkpt><trkpt lat="39.6569409" lon="1.1109637"><ele>0.0</ele><time>2026-04-29T22:16:44.979Z</time></trkpt><trkpt lat="39.657026" lon="1.11102"><ele>0.0</ele><time>2026-04-29T22:16:45.98Z</time></trkpt><trkpt lat="39.6571083" lon="1.1110781"><ele>0.0</ele><time>2026-04-29T22:16:46.979Z</time></trkpt><trkpt lat="39.657181" lon="1.1111321"><ele>0.0</ele><time>2026-04-29T22:16:47.98Z</time></trkpt><trkpt lat="39.6572571" lon="1.1111827"><ele>0.0</ele><time>2026-04-29T22:16:48.979Z</time></trkpt><trkpt lat="39.6573368" lon="1.1112333"><ele>0.0</ele><time>2026-04-29T22:16:49.979Z</time></trkpt><trkpt lat="39.6574149" lon="1.111291"><ele>0.0</ele><time>2026-04-29T22:16:50.979Z</time></trkpt><trkpt lat="39.6574879" lon="1.1113512"><ele>0.0</ele><time>2026-04-29T22:16:51.98Z</time></trkpt><trkpt lat="39.6575587" lon="1.1114044"><ele>0.0</ele><time>2026-04-29T22:16:52.979Z</time></trkpt><trkpt lat="39.6576345" lon="1.1114501"><ele>0.0</ele><time>2026-04-29T22:16:53.98Z</time></trkpt><trkpt lat="39.65771" lon="1.1115054"><ele>0.0</ele><time>2026-04-29T22:16:54.98Z</time></trkpt><trkpt lat="39.6577835" lon="1.1115652"><ele>0.0</ele><time>2026-04-29T22:16:55.979Z</time></trkpt><trkpt lat="39.6578554" lon="1.1116201"><ele>0.0</ele><time>2026-04-29T22:16:56.98Z</time></trkpt><trkpt lat="39.6579266" lon="1.1116758"><ele>0.0</ele><time>2026-04-29T22:16:57.98Z</time></trkpt><trkpt lat="39.6580749" lon="1.1117883"><ele>0.0</ele><time>2026-04-29T22:16:59.98Z</time></trkpt><trkpt lat="39.6581472" lon="1.1118432"><ele>0.0</ele><time>2026-04-29T22:17:00.98Z</time></trkpt><trkpt lat="39.6582187" lon="1.1119019"><ele>0.0</ele><time>2026-04-29T22:17:01.98Z</time></trkpt><trkpt lat="39.6582959" lon="1.1119658"><ele>0.0</ele><time>2026-04-29T22:17:02.98Z</time></trkpt><trkpt lat="39.6583732" lon="1.1120315"><ele>0.0</ele><time>2026-04-29T22:17:03.979Z</time></trkpt><trkpt lat="39.6584469" lon="1.1120918"><ele>0.0</ele><time>2026-04-29T22:17:04.979Z</time></trkpt><trkpt lat="39.6585217" lon="1.1121521"><ele>0.0</ele><time>2026-04-29T22:17:05.98Z</time></trkpt><trkpt lat="39.6585936" lon="1.112206"><ele>0.0</ele><time>2026-04-29T22:17:06.979Z</time></trkpt><trkpt lat="39.6586669" lon="1.1122558"><ele>0.0</ele><time>2026-04-29T22:17:07.979Z</time></trkpt><trkpt lat="39.6587416" lon="1.1123068"><ele>0.0</ele><time>2026-04-29T22:17:08.98Z</time></trkpt><trkpt lat="39.6588194" lon="1.1123614"><ele>0.0</ele><time>2026-04-29T22:17:09.98Z</time></trkpt><trkpt lat="39.6588996" lon="1.1124123"><ele>0.0</ele><time>2026-04-29T22:17:10.979Z</time></trkpt><trkpt lat="39.6589793" lon="1.1124639"><ele>0.0</ele><time>2026-04-29T22:17:11.979Z</time></trkpt><trkpt lat="39.6590592" lon="1.1125208"><ele>0.0</ele><time>2026-04-29T22:17:12.98Z</time></trkpt><trkpt lat="39.6591407" lon="1.1125691"><ele>0.0</ele><time>2026-04-29T22:17:13.98Z</time></trkpt><trkpt lat="39.6592178" lon="1.1126204"><ele>0.0</ele><time>2026-04-29T22:17:14.98Z</time></trkpt><trkpt lat="39.6593744" lon="1.1127095"><ele>0.0</ele><time>2026-04-29T22:17:16.979Z</time></trkpt><trkpt lat="39.6594498" lon="1.1127536"><ele>0.0</ele><time>2026-04-29T22:17:17.979Z</time></trkpt><trkpt lat="39.6595248" lon="1.1128046"><ele>0.0</ele><time>2026-04-29T22:17:18.979Z</time></trkpt><trkpt lat="39.6596764" lon="1.1129151"><ele>0.0</ele><time>2026-04-29T22:17:20.979Z</time></trkpt><trkpt lat="39.659768" lon="1.1129496"><ele>0.0</ele><time>2026-04-29T22:17:21.979Z</time></trkpt><trkpt lat="39.6598506" lon="1.1129898"><ele>0.0</ele><time>2026-04-29T22:17:22.979Z</time></trkpt><trkpt lat="39.6599281" lon="1.1130375"><ele>0.0</ele><time>2026-04-29T22:17:23.979Z</time></trkpt><trkpt lat="39.6600066" lon="1.1130854"><ele>0.0</ele><time>2026-04-29T22:17:24.98Z</time></trkpt><trkpt lat="39.6600818" lon="1.1131333"><ele>0.0</ele><time>2026-04-29T22:17:25.979Z</time></trkpt><trkpt lat="39.6601594" lon="1.1131804"><ele>0.0</ele><time>2026-04-29T22:17:26.979Z</time></trkpt><trkpt lat="39.660235" lon="1.1132431"><ele>0.0</ele><time>2026-04-29T22:17:27.979Z</time></trkpt><trkpt lat="39.66031" lon="1.1132981"><ele>0.0</ele><time>2026-04-29T22:17:28.98Z</time></trkpt><trkpt lat="39.660388" lon="1.1133516"><ele>0.0</ele><time>2026-04-29T22:17:29.979Z</time></trkpt><trkpt lat="39.6604676" lon="1.1134037"><ele>0.0</ele><time>2026-04-29T22:17:30.979Z</time></trkpt><trkpt lat="39.6605494" lon="1.1134527"><ele>0.0</ele><time>2026-04-29T22:17:31.98Z</time></trkpt><trkpt lat="39.660625" lon="1.1135096"><ele>0.0</ele><time>2026-04-29T22:17:32.98Z</time></trkpt><trkpt lat="39.6607032" lon="1.1135696"><ele>0.0</ele><time>2026-04-29T22:17:33.979Z</time></trkpt><trkpt lat="39.6607819" lon="1.1136232"><ele>0.0</ele><time>2026-04-29T22:17:34.979Z</time></trkpt><trkpt lat="39.6608555" lon="1.1136748"><ele>0.0</ele><time>2026-04-29T22:17:35.979Z</time></trkpt><trkpt lat="39.6609318" lon="1.1137325"><ele>0.0</ele><time>2026-04-29T22:17:36.979Z</time></trkpt><trkpt lat="39.6610081" lon="1.1137944"><ele>0.0</ele><time>2026-04-29T22:17:37.98Z</time></trkpt><trkpt lat="39.6610865" lon="1.1138546"><ele>0.0</ele><time>2026-04-29T22:17:38.979Z</time></trkpt><trkpt lat="39.6611722" lon="1.1139216"><ele>0.0</ele><time>2026-04-29T22:17:39.979Z</time></trkpt><trkpt lat="39.6613185" lon="1.1140462"><ele>0.0</ele><time>2026-04-29T22:17:41.979Z</time></trkpt><trkpt lat="39.6613922" lon="1.1141051"><ele>0.0</ele><time>2026-04-29T22:17:42.979Z</time></trkpt><trkpt lat="39.6614671" lon="1.1141633"><ele>0.0</ele><time>2026-04-29T22:17:43.98Z</time></trkpt><trkpt lat="39.6615376" lon="1.1142203"><ele>0.0</ele><time>2026-04-29T22:17:44.979Z</time></trkpt><trkpt lat="39.661616" lon="1.1142822"><ele>0.0</ele><time>2026-04-29T22:17:45.979Z</time></trkpt><trkpt lat="39.66169" lon="1.1143431"><ele>0.0</ele><time>2026-04-29T22:17:46.98Z</time></trkpt><trkpt lat="39.6618387" lon="1.1144308"><ele>0.0</ele><time>2026-04-29T22:17:48.98Z</time></trkpt><trkpt lat="39.661918" lon="1.1144789"><ele>0.0</ele><time>2026-04-29T22:17:49.98Z</time></trkpt><trkpt lat="39.6619928" lon="1.1145361"><ele>0.0</ele><time>2026-04-29T22:17:50.979Z</time></trkpt><trkpt lat="39.6620686" lon="1.1145998"><ele>0.0</ele><time>2026-04-29T22:17:51.98Z</time></trkpt><trkpt lat="39.6621481" lon="1.1146626"><ele>0.0</ele><time>2026-04-29T22:17:52.979Z</time></trkpt><trkpt lat="39.6622313" lon="1.1147205"><ele>0.0</ele><time>2026-04-29T22:17:53.98Z</time></trkpt><trkpt lat="39.66231" lon="1.1147764"><ele>0.0</ele><time>2026-04-29T22:17:54.979Z</time></trkpt><trkpt lat="39.6623868" lon="1.1148289"><ele>0.0</ele><time>2026-04-29T22:17:55.979Z</time></trkpt><trkpt lat="39.6624604" lon="1.114882"><ele>0.0</ele><time>2026-04-29T22:17:56.979Z</time></trkpt><trkpt lat="39.6625363" lon="1.1149254"><ele>0.0</ele><time>2026-04-29T22:17:57.98Z</time></trkpt><trkpt lat="39.6626116" lon="1.1149753"><ele>0.0</ele><time>2026-04-29T22:17:58.979Z</time></trkpt><trkpt lat="39.6626872" lon="1.1150265"><ele>0.0</ele><time>2026-04-29T22:17:59.979Z</time></trkpt><trkpt lat="39.6627605" lon="1.1150742"><ele>0.0</ele><time>2026-04-29T22:18:00.979Z</time></trkpt><trkpt lat="39.6629129" lon="1.1151859"><ele>0.0</ele><time>2026-04-29T22:18:02.979Z</time></trkpt><trkpt lat="39.6629942" lon="1.1152472"><ele>0.0</ele><time>2026-04-29T22:18:03.979Z</time></trkpt><trkpt lat="39.6630735" lon="1.11531"><ele>0.0</ele><time>2026-04-29T22:18:04.979Z</time></trkpt><trkpt lat="39.6631489" lon="1.115385"><ele>0.0</ele><time>2026-04-29T22:18:05.979Z</time></trkpt><trkpt lat="39.663221" lon="1.1154451"><ele>0.0</ele><time>2026-04-29T22:18:06.98Z</time></trkpt><trkpt lat="39.6632936" lon="1.1155086"><ele>0.0</ele><time>2026-04-29T22:18:07.979Z</time></trkpt><trkpt lat="39.6633654" lon="1.1155663"><ele>0.0</ele><time>2026-04-29T22:18:08.979Z</time></trkpt><trkpt lat="39.6634358" lon="1.11562"><ele>0.0</ele><time>2026-04-29T22:18:09.979Z</time></trkpt><trkpt lat="39.6635101" lon="1.1156745"><ele>0.0</ele><time>2026-04-29T22:18:10.979Z</time></trkpt><trkpt lat="39.6635829" lon="1.1157282"><ele>0.0</ele><time>2026-04-29T22:18:11.98Z</time></trkpt><trkpt lat="39.6636616" lon="1.1157818"><ele>0.0</ele><time>2026-04-29T22:18:12.979Z</time></trkpt><trkpt lat="39.6637265" lon="1.1158568"><ele>0.0</ele><time>2026-04-29T22:18:13.979Z</time></trkpt><trkpt lat="39.6637978" lon="1.115915"><ele>0.0</ele><time>2026-04-29T22:18:14.979Z</time></trkpt><trkpt lat="39.6638663" lon="1.1159689"><ele>0.0</ele><time>2026-04-29T22:18:15.979Z</time></trkpt><trkpt lat="39.663937" lon="1.1160278"><ele>0.0</ele><time>2026-04-29T22:18:16.979Z</time></trkpt><trkpt lat="39.6640058" lon="1.1160829"><ele>0.0</ele><time>2026-04-29T22:18:17.98Z</time></trkpt><trkpt lat="39.6640759" lon="1.1161384"><ele>0.0</ele><time>2026-04-29T22:18:18.979Z</time></trkpt><trkpt lat="39.6641444" lon="1.1161935"><ele>0.0</ele><time>2026-04-29T22:18:19.98Z</time></trkpt><trkpt lat="39.6642141" lon="1.1162481"><ele>0.0</ele><time>2026-04-29T22:18:20.98Z</time></trkpt><trkpt lat="39.6642882" lon="1.1163061"><ele>0.0</ele><time>2026-04-29T22:18:21.979Z</time></trkpt><trkpt lat="39.6644336" lon="1.116434"><ele>0.0</ele><time>2026-04-29T22:18:23.979Z</time></trkpt><trkpt lat="39.6645081" lon="1.1165022"><ele>0.0</ele><time>2026-04-29T22:18:24.979Z</time></trkpt><trkpt lat="39.6645831" lon="1.1165681"><ele>0.0</ele><time>2026-04-29T22:18:25.979Z</time></trkpt><trkpt lat="39.6646579" lon="1.1166317"><ele>0.0</ele><time>2026-04-29T22:18:26.979Z</time></trkpt><trkpt lat="39.6647356" lon="1.1166803"><ele>0.0</ele><time>2026-04-29T22:18:27.979Z</time></trkpt><trkpt lat="39.664806" lon="1.1167365"><ele>0.0</ele><time>2026-04-29T22:18:28.979Z</time></trkpt><trkpt lat="39.6648808" lon="1.1167884"><ele>0.0</ele><time>2026-04-29T22:18:29.979Z</time></trkpt><trkpt lat="39.6649585" lon="1.1168387"><ele>0.0</ele><time>2026-04-29T22:18:30.979Z</time></trkpt><trkpt lat="39.6650368" lon="1.1168916"><ele>0.0</ele><time>2026-04-29T22:18:31.98Z</time></trkpt><trkpt lat="39.6651175" lon="1.1169297"><ele>0.0</ele><time>2026-04-29T22:18:32.98Z</time></trkpt><trkpt lat="39.6651996" lon="1.1169519"><ele>0.0</ele><time>2026-04-29T22:18:33.979Z</time></trkpt><trkpt lat="39.6652756" lon="1.117"><ele>0.0</ele><time>2026-04-29T22:18:34.979Z</time></trkpt><trkpt lat="39.6653463" lon="1.117057"><ele>0.0</ele><time>2026-04-29T22:18:35.979Z</time></trkpt><trkpt lat="39.6654115" lon="1.1171185"><ele>0.0</ele><time>2026-04-29T22:18:36.979Z</time></trkpt><trkpt lat="39.6654837" lon="1.1171738"><ele>0.0</ele><time>2026-04-29T22:18:37.979Z</time></trkpt><trkpt lat="39.6655608" lon="1.11723"><ele>0.0</ele><time>2026-04-29T22:18:38.98Z</time></trkpt><trkpt lat="39.6656407" lon="1.1172914"><ele>0.0</ele><time>2026-04-29T22:18:39.98Z</time></trkpt><trkpt lat="39.6657213" lon="1.117325"><ele>0.0</ele><time>2026-04-29T22:18:40.979Z</time></trkpt><trkpt lat="39.6657993" lon="1.1173738"><ele>0.0</ele><time>2026-04-29T22:18:41.98Z</time></trkpt><trkpt lat="39.6658808" lon="1.1174221"><ele>0.0</ele><time>2026-04-29T22:18:42.98Z</time></trkpt><trkpt lat="39.6660381" lon="1.1174975"><ele>0.0</ele><time>2026-04-29T22:18:44.979Z</time></trkpt><trkpt lat="39.6661163" lon="1.1175485"><ele>0.0</ele><time>2026-04-29T22:18:45.979Z</time></trkpt><trkpt lat="39.6661863" lon="1.117547"><ele>0.0</ele><time>2026-04-29T22:18:46.979Z</time></trkpt><trkpt lat="39.666266" lon="1.1175818"><ele>0.0</ele><time>2026-04-29T22:18:47.979Z</time></trkpt><trkpt lat="39.6663532" lon="1.1176234"><ele>0.0</ele><time>2026-04-29T22:18:48.98Z</time></trkpt><trkpt lat="39.6664371" lon="1.1176679"><ele>0.0</ele><time>2026-04-29T22:18:49.979Z</time></trkpt><trkpt lat="39.6665166" lon="1.117714"><ele>0.0</ele><time>2026-04-29T22:18:50.979Z</time></trkpt><trkpt lat="39.6666742" lon="1.1178127"><ele>0.0</ele><time>2026-04-29T22:18:52.979Z</time></trkpt><trkpt lat="39.6667555" lon="1.1178691"><ele>0.0</ele><time>2026-04-29T22:18:53.977Z</time></trkpt><trkpt lat="39.666842" lon="1.1179213"><ele>0.0</ele><time>2026-04-29T22:18:54.98Z</time></trkpt><trkpt lat="39.6669275" lon="1.1179704"><ele>0.0</ele><time>2026-04-29T22:18:55.98Z</time></trkpt><trkpt lat="39.6670111" lon="1.1180227"><ele>0.0</ele><time>2026-04-29T22:18:56.979Z</time></trkpt><trkpt lat="39.6670914" lon="1.1180777"><ele>0.0</ele><time>2026-04-29T22:18:57.98Z</time></trkpt><trkpt lat="39.6671728" lon="1.1181339"><ele>0.0</ele><time>2026-04-29T22:18:58.979Z</time></trkpt><trkpt lat="39.6672586" lon="1.1182133"><ele>0.0</ele><time>2026-04-29T22:18:59.98Z</time></trkpt><trkpt lat="39.6673321" lon="1.1182657"><ele>0.0</ele><time>2026-04-29T22:19:00.98Z</time></trkpt><trkpt lat="39.6674209" lon="1.1183327"><ele>0.0</ele><time>2026-04-29T22:19:01.979Z</time></trkpt><trkpt lat="39.6674996" lon="1.1184186"><ele>0.0</ele><time>2026-04-29T22:19:02.979Z</time></trkpt><trkpt lat="39.6675735" lon="1.1184902"><ele>0.0</ele><time>2026-04-29T22:19:03.979Z</time></trkpt><trkpt lat="39.6677261" lon="1.1186425"><ele>0.0</ele><time>2026-04-29T22:19:05.98Z</time></trkpt><trkpt lat="39.6678039" lon="1.1187163"><ele>0.0</ele><time>2026-04-29T22:19:06.98Z</time></trkpt><trkpt lat="39.6678794" lon="1.118783"><ele>0.0</ele><time>2026-04-29T22:19:07.979Z</time></trkpt><trkpt lat="39.6679617" lon="1.1188447"><ele>0.0</ele><time>2026-04-29T22:19:08.979Z</time></trkpt><trkpt lat="39.6680472" lon="1.1188914"><ele>0.0</ele><time>2026-04-29T22:19:09.979Z</time></trkpt><trkpt lat="39.6681257" lon="1.1189459"><ele>0.0</ele><time>2026-04-29T22:19:10.98Z</time></trkpt><trkpt lat="39.668204" lon="1.1190187"><ele>0.0</ele><time>2026-04-29T22:19:11.979Z</time></trkpt><trkpt lat="39.6682795" lon="1.1190902"><ele>0.0</ele><time>2026-04-29T22:19:12.979Z</time></trkpt><trkpt lat="39.6683551" lon="1.1191474"><ele>0.0</ele><time>2026-04-29T22:19:13.979Z</time></trkpt><trkpt lat="39.6684308" lon="1.1192037"><ele>0.0</ele><time>2026-04-29T22:19:14.98Z</time></trkpt><trkpt lat="39.6685086" lon="1.1192715"><ele>0.0</ele><time>2026-04-29T22:19:15.98Z</time></trkpt><trkpt lat="39.6685841" lon="1.119333"><ele>0.0</ele><time>2026-04-29T22:19:16.98Z</time></trkpt><trkpt lat="39.6686561" lon="1.1193871"><ele>0.0</ele><time>2026-04-29T22:19:17.979Z</time></trkpt><trkpt lat="39.6687285" lon="1.1194347"><ele>0.0</ele><time>2026-04-29T22:19:18.98Z</time></trkpt><trkpt lat="39.6688035" lon="1.1194904"><ele>0.0</ele><time>2026-04-29T22:19:19.979Z</time></trkpt><trkpt lat="39.6688762" lon="1.119539"><ele>0.0</ele><time>2026-04-29T22:19:20.979Z</time></trkpt><trkpt lat="39.6689473" lon="1.1195999"><ele>0.0</ele><time>2026-04-29T22:19:21.979Z</time></trkpt><trkpt lat="39.6690223" lon="1.1196647"><ele>0.0</ele><time>2026-04-29T22:19:22.979Z</time></trkpt><trkpt lat="39.669099" lon="1.1197218"><ele>0.0</ele><time>2026-04-29T22:19:23.979Z</time></trkpt><trkpt lat="39.6691759" lon="1.1197651"><ele>0.0</ele><time>2026-04-29T22:19:24.979Z</time></trkpt><trkpt lat="39.6693254" lon="1.1198642"><ele>0.0</ele><time>2026-04-29T22:19:26.979Z</time></trkpt><trkpt lat="39.6693993" lon="1.1199203"><ele>0.0</ele><time>2026-04-29T22:19:27.979Z</time></trkpt><trkpt lat="39.669478" lon="1.1199769"><ele>0.0</ele><time>2026-04-29T22:19:28.979Z</time></trkpt><trkpt lat="39.6695539" lon="1.1200437"><ele>0.0</ele><time>2026-04-29T22:19:29.979Z</time></trkpt><trkpt lat="39.6696322" lon="1.1201056"><ele>0.0</ele><time>2026-04-29T22:19:30.979Z</time></trkpt><trkpt lat="39.669712" lon="1.1201617"><ele>0.0</ele><time>2026-04-29T22:19:31.98Z</time></trkpt><trkpt lat="39.6697833" lon="1.1202108"><ele>0.0</ele><time>2026-04-29T22:19:32.979Z</time></trkpt><trkpt lat="39.6698547" lon="1.1202658"><ele>0.0</ele><time>2026-04-29T22:19:33.98Z</time></trkpt><trkpt lat="39.6699247" lon="1.1203136"><ele>0.0</ele><time>2026-04-29T22:19:34.98Z</time></trkpt><trkpt lat="39.6699989" lon="1.1203621"><ele>0.0</ele><time>2026-04-29T22:19:35.98Z</time></trkpt><trkpt lat="39.670073" lon="1.1204184"><ele>0.0</ele><time>2026-04-29T22:19:36.98Z</time></trkpt><trkpt lat="39.6701463" lon="1.1204671"><ele>0.0</ele><time>2026-04-29T22:19:37.98Z</time></trkpt><trkpt lat="39.670222" lon="1.120518"><ele>0.0</ele><time>2026-04-29T22:19:38.979Z</time></trkpt><trkpt lat="39.6702886" lon="1.1205723"><ele>0.0</ele><time>2026-04-29T22:19:39.979Z</time></trkpt><trkpt lat="39.6703603" lon="1.1206246"><ele>0.0</ele><time>2026-04-29T22:19:40.979Z</time></trkpt><trkpt lat="39.6704113" lon="1.1206864"><ele>0.0</ele><time>2026-04-29T22:19:41.979Z</time></trkpt><trkpt lat="39.6704774" lon="1.1207452"><ele>0.0</ele><time>2026-04-29T22:19:42.979Z</time></trkpt><trkpt lat="39.6705511" lon="1.1208042"><ele>0.0</ele><time>2026-04-29T22:19:43.979Z</time></trkpt><trkpt lat="39.6706275" lon="1.1208615"><ele>0.0</ele><time>2026-04-29T22:19:44.98Z</time></trkpt><trkpt lat="39.6707062" lon="1.1209209"><ele>0.0</ele><time>2026-04-29T22:19:45.98Z</time></trkpt><trkpt lat="39.6708595" lon="1.1210228"><ele>0.0</ele><time>2026-04-29T22:19:47.979Z</time></trkpt><trkpt lat="39.6709323" lon="1.1210684"><ele>0.0</ele><time>2026-04-29T22:19:48.98Z</time></trkpt><trkpt lat="39.6710054" lon="1.1211124"><ele>0.0</ele><time>2026-04-29T22:19:49.979Z</time></trkpt><trkpt lat="39.6710842" lon="1.1211627"><ele>0.0</ele><time>2026-04-29T22:19:50.98Z</time></trkpt><trkpt lat="39.6711663" lon="1.1212116"><ele>0.0</ele><time>2026-04-29T22:19:51.98Z</time></trkpt><trkpt lat="39.671248" lon="1.1212614"><ele>0.0</ele><time>2026-04-29T22:19:52.978Z</time></trkpt><trkpt lat="39.6713298" lon="1.1213115"><ele>0.0</ele><time>2026-04-29T22:19:53.979Z</time></trkpt><trkpt lat="39.671404" lon="1.1213619"><ele>0.0</ele><time>2026-04-29T22:19:54.978Z</time></trkpt><trkpt lat="39.6714783" lon="1.1214116"><ele>0.0</ele><time>2026-04-29T22:19:55.978Z</time></trkpt><trkpt lat="39.6715574" lon="1.1214661"><ele>0.0</ele><time>2026-04-29T22:19:56.978Z</time></trkpt><trkpt lat="39.6716365" lon="1.1215143"><ele>0.0</ele><time>2026-04-29T22:19:57.978Z</time></trkpt><trkpt lat="39.6717109" lon="1.1215622"><ele>0.0</ele><time>2026-04-29T22:19:58.978Z</time></trkpt><trkpt lat="39.671788" lon="1.1216117"><ele>0.0</ele><time>2026-04-29T22:19:59.979Z</time></trkpt><trkpt lat="39.6718648" lon="1.1216663"><ele>0.0</ele><time>2026-04-29T22:20:00.979Z</time></trkpt><trkpt lat="39.671943" lon="1.1217216"><ele>0.0</ele><time>2026-04-29T22:20:01.978Z</time></trkpt><trkpt lat="39.6720199" lon="1.1217767"><ele>0.0</ele><time>2026-04-29T22:20:02.978Z</time></trkpt><trkpt lat="39.6720934" lon="1.1218331"><ele>0.0</ele><time>2026-04-29T22:20:03.978Z</time></trkpt><trkpt lat="39.6721724" lon="1.1218926"><ele>0.0</ele><time>2026-04-29T22:20:04.978Z</time></trkpt><trkpt lat="39.6722494" lon="1.1219479"><ele>0.0</ele><time>2026-04-29T22:20:05.979Z</time></trkpt><trkpt lat="39.6723253" lon="1.1219978"><ele>0.0</ele><time>2026-04-29T22:20:06.979Z</time></trkpt><trkpt lat="39.6724693" lon="1.1220964"><ele>0.0</ele><time>2026-04-29T22:20:08.979Z</time></trkpt><trkpt lat="39.6725394" lon="1.1221435"><ele>0.0</ele><time>2026-04-29T22:20:09.979Z</time></trkpt><trkpt lat="39.6726063" lon="1.1221898"><ele>0.0</ele><time>2026-04-29T22:20:10.979Z</time></trkpt><trkpt lat="39.6726726" lon="1.1222384"><ele>0.0</ele><time>2026-04-29T22:20:11.978Z</time></trkpt><trkpt lat="39.6727401" lon="1.1222998"><ele>0.0</ele><time>2026-04-29T22:20:12.978Z</time></trkpt><trkpt lat="39.6728102" lon="1.1223624"><ele>0.0</ele><time>2026-04-29T22:20:13.979Z</time></trkpt><trkpt lat="39.672882" lon="1.1224309"><ele>0.0</ele><time>2026-04-29T22:20:14.978Z</time></trkpt><trkpt lat="39.6729486" lon="1.1225043"><ele>0.0</ele><time>2026-04-29T22:20:15.979Z</time></trkpt><trkpt lat="39.6730252" lon="1.1225643"><ele>0.0</ele><time>2026-04-29T22:20:16.979Z</time></trkpt><trkpt lat="39.6731105" lon="1.1226212"><ele>0.0</ele><time>2026-04-29T22:20:17.979Z</time></trkpt><trkpt lat="39.6731944" lon="1.1226777"><ele>0.0</ele><time>2026-04-29T22:20:18.978Z</time></trkpt><trkpt lat="39.6732777" lon="1.1227286"><ele>0.0</ele><time>2026-04-29T22:20:19.978Z</time></trkpt><trkpt lat="39.6733624" lon="1.1227816"><ele>0.0</ele><time>2026-04-29T22:20:20.979Z</time></trkpt><trkpt lat="39.6734462" lon="1.1228347"><ele>0.0</ele><time>2026-04-29T22:20:21.979Z</time></trkpt><trkpt lat="39.6735234" lon="1.1228898"><ele>0.0</ele><time>2026-04-29T22:20:22.979Z</time></trkpt><trkpt lat="39.6736011" lon="1.1229478"><ele>0.0</ele><time>2026-04-29T22:20:23.978Z</time></trkpt><trkpt lat="39.6736796" lon="1.1230015"><ele>0.0</ele><time>2026-04-29T22:20:24.979Z</time></trkpt><trkpt lat="39.6737612" lon="1.1230545"><ele>0.0</ele><time>2026-04-29T22:20:25.978Z</time></trkpt><trkpt lat="39.6739248" lon="1.1231511"><ele>0.0</ele><time>2026-04-29T22:20:27.978Z</time></trkpt><trkpt lat="39.6740785" lon="1.1232667"><ele>0.0</ele><time>2026-04-29T22:20:29.978Z</time></trkpt><trkpt lat="39.6741559" lon="1.123323"><ele>0.0</ele><time>2026-04-29T22:20:30.979Z</time></trkpt><trkpt lat="39.674234" lon="1.1233827"><ele>0.0</ele><time>2026-04-29T22:20:31.978Z</time></trkpt><trkpt lat="39.6743128" lon="1.1234396"><ele>0.0</ele><time>2026-04-29T22:20:32.978Z</time></trkpt><trkpt lat="39.6743944" lon="1.1234962"><ele>0.0</ele><time>2026-04-29T22:20:33.978Z</time></trkpt><trkpt lat="39.6744766" lon="1.1235466"><ele>0.0</ele><time>2026-04-29T22:20:34.979Z</time></trkpt><trkpt lat="39.6745566" lon="1.1235995"><ele>0.0</ele><time>2026-04-29T22:20:35.978Z</time></trkpt><trkpt lat="39.6746282" lon="1.1236451"><ele>0.0</ele><time>2026-04-29T22:20:36.979Z</time></trkpt><trkpt lat="39.6746943" lon="1.1236906"><ele>0.0</ele><time>2026-04-29T22:20:37.979Z</time></trkpt><trkpt lat="39.6747574" lon="1.1237406"><ele>0.0</ele><time>2026-04-29T22:20:38.979Z</time></trkpt><trkpt lat="39.6748203" lon="1.1237894"><ele>0.0</ele><time>2026-04-29T22:20:39.979Z</time></trkpt><trkpt lat="39.6748878" lon="1.1238386"><ele>0.0</ele><time>2026-04-29T22:20:40.978Z</time></trkpt><trkpt lat="39.6749577" lon="1.1238919"><ele>0.0</ele><time>2026-04-29T22:20:41.978Z</time></trkpt><trkpt lat="39.6750262" lon="1.1239424"><ele>0.0</ele><time>2026-04-29T22:20:42.979Z</time></trkpt><trkpt lat="39.6750985" lon="1.1239932"><ele>0.0</ele><time>2026-04-29T22:20:43.978Z</time></trkpt><trkpt lat="39.6751735" lon="1.1240497"><ele>0.0</ele><time>2026-04-29T22:20:44.979Z</time></trkpt><trkpt lat="39.6752482" lon="1.1241029"><ele>0.0</ele><time>2026-04-29T22:20:45.978Z</time></trkpt><trkpt lat="39.675322" lon="1.124155"><ele>0.0</ele><time>2026-04-29T22:20:46.979Z</time></trkpt><trkpt lat="39.675399" lon="1.1242157"><ele>0.0</ele><time>2026-04-29T22:20:47.978Z</time></trkpt><trkpt lat="39.6754738" lon="1.1242672"><ele>0.0</ele><time>2026-04-29T22:20:48.978Z</time></trkpt><trkpt lat="39.675623" lon="1.1243847"><ele>0.0</ele><time>2026-04-29T22:20:50.979Z</time></trkpt><trkpt lat="39.6756913" lon="1.1244402"><ele>0.0</ele><time>2026-04-29T22:20:51.978Z</time></trkpt><trkpt lat="39.6757666" lon="1.1244931"><ele>0.0</ele><time>2026-04-29T22:20:52.978Z</time></trkpt><trkpt lat="39.675842" lon="1.1245463"><ele>0.0</ele><time>2026-04-29T22:20:53.978Z</time></trkpt><trkpt lat="39.675912" lon="1.1246053"><ele>0.0</ele><time>2026-04-29T22:20:54.979Z</time></trkpt><trkpt lat="39.6759813" lon="1.1246566"><ele>0.0</ele><time>2026-04-29T22:20:55.978Z</time></trkpt><trkpt lat="39.6760567" lon="1.1247055"><ele>0.0</ele><time>2026-04-29T22:20:56.979Z</time></trkpt><trkpt lat="39.6761332" lon="1.1247551"><ele>0.0</ele><time>2026-04-29T22:20:57.978Z</time></trkpt><trkpt lat="39.676207" lon="1.124818"><ele>0.0</ele><time>2026-04-29T22:20:58.978Z</time></trkpt><trkpt lat="39.6762759" lon="1.1248719"><ele>0.0</ele><time>2026-04-29T22:20:59.978Z</time></trkpt><trkpt lat="39.67635" lon="1.124923"><ele>0.0</ele><time>2026-04-29T22:21:00.978Z</time></trkpt><trkpt lat="39.6764261" lon="1.1249744"><ele>0.0</ele><time>2026-04-29T22:21:01.978Z</time></trkpt><trkpt lat="39.6764947" lon="1.1250307"><ele>0.0</ele><time>2026-04-29T22:21:02.979Z</time></trkpt><trkpt lat="39.6765671" lon="1.1250828"><ele>0.0</ele><time>2026-04-29T22:21:03.978Z</time></trkpt><trkpt lat="39.6766448" lon="1.1251379"><ele>0.0</ele><time>2026-04-29T22:21:04.979Z</time></trkpt><trkpt lat="39.6767176" lon="1.1251914"><ele>0.0</ele><time>2026-04-29T22:21:05.979Z</time></trkpt><trkpt lat="39.6767922" lon="1.1252622"><ele>0.0</ele><time>2026-04-29T22:21:06.979Z</time></trkpt><trkpt lat="39.6768684" lon="1.1253214"><ele>0.0</ele><time>2026-04-29T22:21:07.978Z</time></trkpt><trkpt lat="39.6769465" lon="1.1253784"><ele>0.0</ele><time>2026-04-29T22:21:08.979Z</time></trkpt><trkpt lat="39.6770233" lon="1.1254352"><ele>0.0</ele><time>2026-04-29T22:21:09.978Z</time></trkpt><trkpt lat="39.6771888" lon="1.1255348"><ele>0.0</ele><time>2026-04-29T22:21:11.978Z</time></trkpt><trkpt lat="39.6772641" lon="1.125584"><ele>0.0</ele><time>2026-04-29T22:21:12.979Z</time></trkpt><trkpt lat="39.6773403" lon="1.1256337"><ele>0.0</ele><time>2026-04-29T22:21:13.979Z</time></trkpt><trkpt lat="39.6774152" lon="1.1256869"><ele>0.0</ele><time>2026-04-29T22:21:14.978Z</time></trkpt><trkpt lat="39.6774973" lon="1.1257496"><ele>0.0</ele><time>2026-04-29T22:21:15.978Z</time></trkpt><trkpt lat="39.6775828" lon="1.1258253"><ele>0.0</ele><time>2026-04-29T22:21:16.978Z</time></trkpt><trkpt lat="39.6776593" lon="1.1259102"><ele>0.0</ele><time>2026-04-29T22:21:17.979Z</time></trkpt><trkpt lat="39.6777349" lon="1.1260023"><ele>0.0</ele><time>2026-04-29T22:21:18.979Z</time></trkpt><trkpt lat="39.6778047" lon="1.1260816"><ele>0.0</ele><time>2026-04-29T22:21:19.979Z</time></trkpt><trkpt lat="39.67787" lon="1.12614"><ele>0.0</ele><time>2026-04-29T22:21:20.979Z</time></trkpt><trkpt lat="39.6779363" lon="1.1261957"><ele>0.0</ele><time>2026-04-29T22:21:21.978Z</time></trkpt><trkpt lat="39.6780042" lon="1.1262546"><ele>0.0</ele><time>2026-04-29T22:21:22.979Z</time></trkpt><trkpt lat="39.6780838" lon="1.1263162"><ele>0.0</ele><time>2026-04-29T22:21:23.978Z</time></trkpt><trkpt lat="39.6781642" lon="1.1263787"><ele>0.0</ele><time>2026-04-29T22:21:24.978Z</time></trkpt><trkpt lat="39.6782387" lon="1.1264454"><ele>0.0</ele><time>2026-04-29T22:21:25.978Z</time></trkpt><trkpt lat="39.6783134" lon="1.1265027"><ele>0.0</ele><time>2026-04-29T22:21:26.978Z</time></trkpt><trkpt lat="39.6783815" lon="1.1265537"><ele>0.0</ele><time>2026-04-29T22:21:27.978Z</time></trkpt><trkpt lat="39.6784568" lon="1.1266072"><ele>0.0</ele><time>2026-04-29T22:21:28.979Z</time></trkpt><trkpt lat="39.6785292" lon="1.126662"><ele>0.0</ele><time>2026-04-29T22:21:29.979Z</time></trkpt><trkpt lat="39.6786909" lon="1.1267669"><ele>0.0</ele><time>2026-04-29T22:21:31.978Z</time></trkpt><trkpt lat="39.6787799" lon="1.1268067"><ele>0.0</ele><time>2026-04-29T22:21:32.979Z</time></trkpt><trkpt lat="39.6788644" lon="1.1268573"><ele>0.0</ele><time>2026-04-29T22:21:33.978Z</time></trkpt><trkpt lat="39.6789468" lon="1.12691"><ele>0.0</ele><time>2026-04-29T22:21:34.979Z</time></trkpt><trkpt lat="39.6790242" lon="1.1269579"><ele>0.0</ele><time>2026-04-29T22:21:35.979Z</time></trkpt><trkpt lat="39.6790991" lon="1.127009"><ele>0.0</ele><time>2026-04-29T22:21:36.978Z</time></trkpt><trkpt lat="39.6791822" lon="1.1270606"><ele>0.0</ele><time>2026-04-29T22:21:37.979Z</time></trkpt><trkpt lat="39.6792632" lon="1.1271141"><ele>0.0</ele><time>2026-04-29T22:21:38.978Z</time></trkpt><trkpt lat="39.6793405" lon="1.1271745"><ele>0.0</ele><time>2026-04-29T22:21:39.979Z</time></trkpt><trkpt lat="39.6794084" lon="1.1272335"><ele>0.0</ele><time>2026-04-29T22:21:40.979Z</time></trkpt><trkpt lat="39.6794762" lon="1.127292"><ele>0.0</ele><time>2026-04-29T22:21:41.978Z</time></trkpt><trkpt lat="39.6795465" lon="1.1273506"><ele>0.0</ele><time>2026-04-29T22:21:42.978Z</time></trkpt><trkpt lat="39.6796119" lon="1.1274089"><ele>0.0</ele><time>2026-04-29T22:21:43.978Z</time></trkpt><trkpt lat="39.6796722" lon="1.1274711"><ele>0.0</ele><time>2026-04-29T22:21:44.978Z</time></trkpt><trkpt lat="39.6797313" lon="1.1275287"><ele>0.0</ele><time>2026-04-29T22:21:45.978Z</time></trkpt><trkpt lat="39.6797883" lon="1.1275789"><ele>0.0</ele><time>2026-04-29T22:21:46.979Z</time></trkpt><trkpt lat="39.6798578" lon="1.127633"><ele>0.0</ele><time>2026-04-29T22:21:47.978Z</time></trkpt><trkpt lat="39.6799314" lon="1.1276828"><ele>0.0</ele><time>2026-04-29T22:21:48.979Z</time></trkpt><trkpt lat="39.680009" lon="1.1277332"><ele>0.0</ele><time>2026-04-29T22:21:49.978Z</time></trkpt><trkpt lat="39.6800859" lon="1.1277896"><ele>0.0</ele><time>2026-04-29T22:21:50.978Z</time></trkpt><trkpt lat="39.6802417" lon="1.1278969"><ele>0.0</ele><time>2026-04-29T22:21:52.978Z</time></trkpt><trkpt lat="39.6803226" lon="1.1279433"><ele>0.0</ele><time>2026-04-29T22:21:53.979Z</time></trkpt><trkpt lat="39.6804133" lon="1.1279894"><ele>0.0</ele><time>2026-04-29T22:21:54.978Z</time></trkpt><trkpt lat="39.6804986" lon="1.1280393"><ele>0.0</ele><time>2026-04-29T22:21:55.979Z</time></trkpt><trkpt lat="39.68058" lon="1.128081"><ele>0.0</ele><time>2026-04-29T22:21:56.978Z</time></trkpt><trkpt lat="39.6806542" lon="1.1281253"><ele>0.0</ele><time>2026-04-29T22:21:57.979Z</time></trkpt><trkpt lat="39.6807331" lon="1.1281664"><ele>0.0</ele><time>2026-04-29T22:21:58.979Z</time></trkpt><trkpt lat="39.6808158" lon="1.1282133"><ele>0.0</ele><time>2026-04-29T22:21:59.978Z</time></trkpt><trkpt lat="39.6809005" lon="1.1282576"><ele>0.0</ele><time>2026-04-29T22:22:00.978Z</time></trkpt><trkpt lat="39.6809841" lon="1.1283089"><ele>0.0</ele><time>2026-04-29T22:22:01.978Z</time></trkpt><trkpt lat="39.6810665" lon="1.1283509"><ele>0.0</ele><time>2026-04-29T22:22:02.979Z</time></trkpt><trkpt lat="39.6811494" lon="1.1284063"><ele>0.0</ele><time>2026-04-29T22:22:03.979Z</time></trkpt><trkpt lat="39.6812358" lon="1.1284631"><ele>0.0</ele><time>2026-04-29T22:22:04.979Z</time></trkpt><trkpt lat="39.6813216" lon="1.1285153"><ele>0.0</ele><time>2026-04-29T22:22:05.978Z</time></trkpt><trkpt lat="39.6813949" lon="1.1285675"><ele>0.0</ele><time>2026-04-29T22:22:06.979Z</time></trkpt><trkpt lat="39.6814713" lon="1.1286226"><ele>0.0</ele><time>2026-04-29T22:22:07.979Z</time></trkpt><trkpt lat="39.6815468" lon="1.1286796"><ele>0.0</ele><time>2026-04-29T22:22:08.978Z</time></trkpt><trkpt lat="39.6816247" lon="1.1287413"><ele>0.0</ele><time>2026-04-29T22:22:09.978Z</time></trkpt><trkpt lat="39.6817017" lon="1.1288017"><ele>0.0</ele><time>2026-04-29T22:22:10.979Z</time></trkpt><trkpt lat="39.6817771" lon="1.1288515"><ele>0.0</ele><time>2026-04-29T22:22:11.978Z</time></trkpt><trkpt lat="39.6819309" lon="1.1289514"><ele>0.0</ele><time>2026-04-29T22:22:13.979Z</time></trkpt><trkpt lat="39.6820083" lon="1.1290022"><ele>0.0</ele><time>2026-04-29T22:22:14.978Z</time></trkpt><trkpt lat="39.6820859" lon="1.1290592"><ele>0.0</ele><time>2026-04-29T22:22:15.978Z</time></trkpt><trkpt lat="39.682169" lon="1.1291178"><ele>0.0</ele><time>2026-04-29T22:22:16.978Z</time></trkpt><trkpt lat="39.6822467" lon="1.1291733"><ele>0.0</ele><time>2026-04-29T22:22:17.978Z</time></trkpt><trkpt lat="39.6823203" lon="1.1292236"><ele>0.0</ele><time>2026-04-29T22:22:18.978Z</time></trkpt><trkpt lat="39.6823951" lon="1.1292748"><ele>0.0</ele><time>2026-04-29T22:22:19.978Z</time></trkpt><trkpt lat="39.6824702" lon="1.129325"><ele>0.0</ele><time>2026-04-29T22:22:20.978Z</time></trkpt><trkpt lat="39.6825482" lon="1.1293748"><ele>0.0</ele><time>2026-04-29T22:22:21.979Z</time></trkpt><trkpt lat="39.6826279" lon="1.1294217"><ele>0.0</ele><time>2026-04-29T22:22:22.979Z</time></trkpt><trkpt lat="39.682708" lon="1.129471"><ele>0.0</ele><time>2026-04-29T22:22:23.979Z</time></trkpt><trkpt lat="39.6827909" lon="1.1295187"><ele>0.0</ele><time>2026-04-29T22:22:24.978Z</time></trkpt><trkpt lat="39.6828682" lon="1.1295717"><ele>0.0</ele><time>2026-04-29T22:22:25.979Z</time></trkpt><trkpt lat="39.6829465" lon="1.1296151"><ele>0.0</ele><time>2026-04-29T22:22:26.978Z</time></trkpt><trkpt lat="39.68302" lon="1.1296634"><ele>0.0</ele><time>2026-04-29T22:22:27.978Z</time></trkpt><trkpt lat="39.6830947" lon="1.1297179"><ele>0.0</ele><time>2026-04-29T22:22:28.978Z</time></trkpt><trkpt lat="39.6831717" lon="1.1297684"><ele>0.0</ele><time>2026-04-29T22:22:29.978Z</time></trkpt><trkpt lat="39.683251" lon="1.1298215"><ele>0.0</ele><time>2026-04-29T22:22:30.979Z</time></trkpt><trkpt lat="39.6833284" lon="1.1298697"><ele>0.0</ele><time>2026-04-29T22:22:31.978Z</time></trkpt><trkpt lat="39.6834073" lon="1.1299162"><ele>0.0</ele><time>2026-04-29T22:22:32.979Z</time></trkpt><trkpt lat="39.6834858" lon="1.1299642"><ele>0.0</ele><time>2026-04-29T22:22:33.979Z</time></trkpt><trkpt lat="39.6837252" lon="1.1301223"><ele>0.0</ele><time>2026-04-29T22:22:36.978Z</time></trkpt><trkpt lat="39.6838015" lon="1.1301777"><ele>0.0</ele><time>2026-04-29T22:22:37.978Z</time></trkpt><trkpt lat="39.683882" lon="1.1302389"><ele>0.0</ele><time>2026-04-29T22:22:38.978Z</time></trkpt><trkpt lat="39.6839611" lon="1.1302901"><ele>0.0</ele><time>2026-04-29T22:22:39.979Z</time></trkpt><trkpt lat="39.684028" lon="1.1303514"><ele>0.0</ele><time>2026-04-29T22:22:40.979Z</time></trkpt><trkpt lat="39.684092" lon="1.1304154"><ele>0.0</ele><time>2026-04-29T22:22:41.978Z</time></trkpt><trkpt lat="39.6841569" lon="1.1304721"><ele>0.0</ele><time>2026-04-29T22:22:42.979Z</time></trkpt><trkpt lat="39.6842214" lon="1.1305347"><ele>0.0</ele><time>2026-04-29T22:22:43.979Z</time></trkpt><trkpt lat="39.6842948" lon="1.1305951"><ele>0.0</ele><time>2026-04-29T22:22:44.978Z</time></trkpt><trkpt lat="39.6843712" lon="1.1306465"><ele>0.0</ele><time>2026-04-29T22:22:45.978Z</time></trkpt><trkpt lat="39.6844478" lon="1.130695"><ele>0.0</ele><time>2026-04-29T22:22:46.978Z</time></trkpt><trkpt lat="39.6845233" lon="1.1307443"><ele>0.0</ele><time>2026-04-29T22:22:47.979Z</time></trkpt><trkpt lat="39.6845984" lon="1.1307945"><ele>0.0</ele><time>2026-04-29T22:22:48.978Z</time></trkpt><trkpt lat="39.6846705" lon="1.1308486"><ele>0.0</ele><time>2026-04-29T22:22:49.979Z</time></trkpt><trkpt lat="39.6847438" lon="1.1309055"><ele>0.0</ele><time>2026-04-29T22:22:50.978Z</time></trkpt><trkpt lat="39.68481" lon="1.130967"><ele>0.0</ele><time>2026-04-29T22:22:51.979Z</time></trkpt><trkpt lat="39.6848822" lon="1.1310266"><ele>0.0</ele><time>2026-04-29T22:22:52.978Z</time></trkpt><trkpt lat="39.6849579" lon="1.1310838"><ele>0.0</ele><time>2026-04-29T22:22:53.978Z</time></trkpt><trkpt lat="39.6850371" lon="1.1311351"><ele>0.0</ele><time>2026-04-29T22:22:54.978Z</time></trkpt><trkpt lat="39.6851763" lon="1.131237"><ele>0.0</ele><time>2026-04-29T22:22:56.978Z</time></trkpt><trkpt lat="39.6852446" lon="1.1312959"><ele>0.0</ele><time>2026-04-29T22:22:57.978Z</time></trkpt><trkpt lat="39.6853159" lon="1.1313589"><ele>0.0</ele><time>2026-04-29T22:22:58.979Z</time></trkpt><trkpt lat="39.6853909" lon="1.1314252"><ele>0.0</ele><time>2026-04-29T22:22:59.978Z</time></trkpt><trkpt lat="39.6854645" lon="1.1314862"><ele>0.0</ele><time>2026-04-29T22:23:00.979Z</time></trkpt><trkpt lat="39.6855277" lon="1.1315461"><ele>0.0</ele><time>2026-04-29T22:23:01.979Z</time></trkpt><trkpt lat="39.6855948" lon="1.1316025"><ele>0.0</ele><time>2026-04-29T22:23:02.978Z</time></trkpt><trkpt lat="39.6856585" lon="1.1316667"><ele>0.0</ele><time>2026-04-29T22:23:03.979Z</time></trkpt><trkpt lat="39.6857388" lon="1.1317241"><ele>0.0</ele><time>2026-04-29T22:23:04.978Z</time></trkpt><trkpt lat="39.6858221" lon="1.1317768"><ele>0.0</ele><time>2026-04-29T22:23:05.978Z</time></trkpt><trkpt lat="39.685904" lon="1.1318338"><ele>0.0</ele><time>2026-04-29T22:23:06.978Z</time></trkpt><trkpt lat="39.685986" lon="1.1318822"><ele>0.0</ele><time>2026-04-29T22:23:07.979Z</time></trkpt><trkpt lat="39.6860734" lon="1.131931"><ele>0.0</ele><time>2026-04-29T22:23:08.979Z</time></trkpt><trkpt lat="39.6861552" lon="1.1319841"><ele>0.0</ele><time>2026-04-29T22:23:09.979Z</time></trkpt><trkpt lat="39.6862346" lon="1.1320442"><ele>0.0</ele><time>2026-04-29T22:23:10.978Z</time></trkpt><trkpt lat="39.6863175" lon="1.1321004"><ele>0.0</ele><time>2026-04-29T22:23:11.979Z</time></trkpt><trkpt lat="39.6863997" lon="1.1321556"><ele>0.0</ele><time>2026-04-29T22:23:12.979Z</time></trkpt><trkpt lat="39.6864812" lon="1.1322142"><ele>0.0</ele><time>2026-04-29T22:23:13.978Z</time></trkpt><trkpt lat="39.6865618" lon="1.1322765"><ele>0.0</ele><time>2026-04-29T22:23:14.978Z</time></trkpt><trkpt lat="39.6866359" lon="1.1323344"><ele>0.0</ele><time>2026-04-29T22:23:15.978Z</time></trkpt><trkpt lat="39.6867718" lon="1.132452"><ele>0.0</ele><time>2026-04-29T22:23:17.978Z</time></trkpt><trkpt lat="39.6868414" lon="1.1325166"><ele>0.0</ele><time>2026-04-29T22:23:18.978Z</time></trkpt><trkpt lat="39.6869143" lon="1.1325738"><ele>0.0</ele><time>2026-04-29T22:23:19.979Z</time></trkpt><trkpt lat="39.6869861" lon="1.132626"><ele>0.0</ele><time>2026-04-29T22:23:20.978Z</time></trkpt><trkpt lat="39.6870595" lon="1.132679"><ele>0.0</ele><time>2026-04-29T22:23:21.978Z</time></trkpt><trkpt lat="39.6871361" lon="1.1327304"><ele>0.0</ele><time>2026-04-29T22:23:22.978Z</time></trkpt><trkpt lat="39.6872127" lon="1.1327808"><ele>0.0</ele><time>2026-04-29T22:23:23.978Z</time></trkpt><trkpt lat="39.6872909" lon="1.132831"><ele>0.0</ele><time>2026-04-29T22:23:24.978Z</time></trkpt><trkpt lat="39.6873678" lon="1.1328894"><ele>0.0</ele><time>2026-04-29T22:23:25.978Z</time></trkpt><trkpt lat="39.6874491" lon="1.1329393"><ele>0.0</ele><time>2026-04-29T22:23:26.978Z</time></trkpt><trkpt lat="39.687526" lon="1.1329906"><ele>0.0</ele><time>2026-04-29T22:23:27.979Z</time></trkpt><trkpt lat="39.6876069" lon="1.1330504"><ele>0.0</ele><time>2026-04-29T22:23:28.978Z</time></trkpt><trkpt lat="39.687692" lon="1.1331025"><ele>0.0</ele><time>2026-04-29T22:23:29.979Z</time></trkpt><trkpt lat="39.6877744" lon="1.1331585"><ele>0.0</ele><time>2026-04-29T22:23:30.979Z</time></trkpt><trkpt lat="39.6878645" lon="1.1332107"><ele>0.0</ele><time>2026-04-29T22:23:31.979Z</time></trkpt><trkpt lat="39.6879439" lon="1.133264"><ele>0.0</ele><time>2026-04-29T22:23:32.978Z</time></trkpt><trkpt lat="39.6880205" lon="1.1333167"><ele>0.0</ele><time>2026-04-29T22:23:33.979Z</time></trkpt><trkpt lat="39.6880911" lon="1.1333714"><ele>0.0</ele><time>2026-04-29T22:23:34.979Z</time></trkpt><trkpt lat="39.6881695" lon="1.1334255"><ele>0.0</ele><time>2026-04-29T22:23:35.979Z</time></trkpt><trkpt lat="39.6882423" lon="1.1334819"><ele>0.0</ele><time>2026-04-29T22:23:36.979Z</time></trkpt><trkpt lat="39.6883179" lon="1.1335282"><ele>0.0</ele><time>2026-04-29T22:23:37.978Z</time></trkpt><trkpt lat="39.6885564" lon="1.1336792"><ele>0.0</ele><time>2026-04-29T22:23:40.978Z</time></trkpt><trkpt lat="39.6886377" lon="1.1337263"><ele>0.0</ele><time>2026-04-29T22:23:41.978Z</time></trkpt><trkpt lat="39.6887167" lon="1.1337762"><ele>0.0</ele><time>2026-04-29T22:23:42.978Z</time></trkpt><trkpt lat="39.6887905" lon="1.1338284"><ele>0.0</ele><time>2026-04-29T22:23:43.979Z</time></trkpt><trkpt lat="39.6888626" lon="1.1338863"><ele>0.0</ele><time>2026-04-29T22:23:44.979Z</time></trkpt><trkpt lat="39.6889326" lon="1.133933"><ele>0.0</ele><time>2026-04-29T22:23:45.978Z</time></trkpt><trkpt lat="39.6890033" lon="1.1339863"><ele>0.0</ele><time>2026-04-29T22:23:46.979Z</time></trkpt><trkpt lat="39.689079" lon="1.1340395"><ele>0.0</ele><time>2026-04-29T22:23:47.979Z</time></trkpt><trkpt lat="39.6891603" lon="1.1340892"><ele>0.0</ele><time>2026-04-29T22:23:48.978Z</time></trkpt><trkpt lat="39.6892416" lon="1.1341405"><ele>0.0</ele><time>2026-04-29T22:23:49.978Z</time></trkpt><trkpt lat="39.6893158" lon="1.1341876"><ele>0.0</ele><time>2026-04-29T22:23:50.979Z</time></trkpt><trkpt lat="39.6893899" lon="1.1342405"><ele>0.0</ele><time>2026-04-29T22:23:51.978Z</time></trkpt><trkpt lat="39.6894665" lon="1.1342883"><ele>0.0</ele><time>2026-04-29T22:23:52.978Z</time></trkpt><trkpt lat="39.6895492" lon="1.1343418"><ele>0.0</ele><time>2026-04-29T22:23:53.978Z</time></trkpt><trkpt lat="39.6896285" lon="1.1343947"><ele>0.0</ele><time>2026-04-29T22:23:54.978Z</time></trkpt><trkpt lat="39.6897082" lon="1.1344519"><ele>0.0</ele><time>2026-04-29T22:23:55.978Z</time></trkpt><trkpt lat="39.6897899" lon="1.134503"><ele>0.0</ele><time>2026-04-29T22:23:56.979Z</time></trkpt><trkpt lat="39.6898677" lon="1.1345572"><ele>0.0</ele><time>2026-04-29T22:23:57.979Z</time></trkpt><trkpt lat="39.6899439" lon="1.1346087"><ele>0.0</ele><time>2026-04-29T22:23:58.978Z</time></trkpt><trkpt lat="39.6900961" lon="1.1346999"><ele>0.0</ele><time>2026-04-29T22:24:00.979Z</time></trkpt><trkpt lat="39.6901791" lon="1.1347439"><ele>0.0</ele><time>2026-04-29T22:24:01.979Z</time></trkpt><trkpt lat="39.690257" lon="1.1347928"><ele>0.0</ele><time>2026-04-29T22:24:02.979Z</time></trkpt><trkpt lat="39.6903396" lon="1.1348395"><ele>0.0</ele><time>2026-04-29T22:24:03.978Z</time></trkpt><trkpt lat="39.6904162" lon="1.1348918"><ele>0.0</ele><time>2026-04-29T22:24:04.977Z</time></trkpt><trkpt lat="39.690496" lon="1.1349481"><ele>0.0</ele><time>2026-04-29T22:24:05.978Z</time></trkpt><trkpt lat="39.6905737" lon="1.1350086"><ele>0.0</ele><time>2026-04-29T22:24:06.977Z</time></trkpt><trkpt lat="39.6906516" lon="1.1350631"><ele>0.0</ele><time>2026-04-29T22:24:07.977Z</time></trkpt><trkpt lat="39.6907327" lon="1.1351191"><ele>0.0</ele><time>2026-04-29T22:24:08.978Z</time></trkpt><trkpt lat="39.6908162" lon="1.1351796"><ele>0.0</ele><time>2026-04-29T22:24:09.978Z</time></trkpt><trkpt lat="39.690902" lon="1.1352318"><ele>0.0</ele><time>2026-04-29T22:24:10.977Z</time></trkpt><trkpt lat="39.6909795" lon="1.135297"><ele>0.0</ele><time>2026-04-29T22:24:11.977Z</time></trkpt><trkpt lat="39.6910476" lon="1.1353602"><ele>0.0</ele><time>2026-04-29T22:24:12.978Z</time></trkpt><trkpt lat="39.6911236" lon="1.1354173"><ele>0.0</ele><time>2026-04-29T22:24:13.977Z</time></trkpt><trkpt lat="39.6911987" lon="1.1354817"><ele>0.0</ele><time>2026-04-29T22:24:14.978Z</time></trkpt><trkpt lat="39.6912714" lon="1.1355399"><ele>0.0</ele><time>2026-04-29T22:24:15.977Z</time></trkpt><trkpt lat="39.6913462" lon="1.1355872"><ele>0.0</ele><time>2026-04-29T22:24:16.977Z</time></trkpt><trkpt lat="39.6914278" lon="1.1356378"><ele>0.0</ele><time>2026-04-29T22:24:17.978Z</time></trkpt><trkpt lat="39.6914973" lon="1.1356928"><ele>0.0</ele><time>2026-04-29T22:24:18.977Z</time></trkpt><trkpt lat="39.691569" lon="1.1357492"><ele>0.0</ele><time>2026-04-29T22:24:19.977Z</time></trkpt><trkpt lat="39.691711" lon="1.1358607"><ele>0.0</ele><time>2026-04-29T22:24:21.978Z</time></trkpt><trkpt lat="39.6917819" lon="1.135918"><ele>0.0</ele><time>2026-04-29T22:24:22.978Z</time></trkpt><trkpt lat="39.6918598" lon="1.1359684"><ele>0.0</ele><time>2026-04-29T22:24:23.977Z</time></trkpt><trkpt lat="39.6919399" lon="1.1360195"><ele>0.0</ele><time>2026-04-29T22:24:24.978Z</time></trkpt><trkpt lat="39.6920174" lon="1.1360726"><ele>0.0</ele><time>2026-04-29T22:24:25.977Z</time></trkpt><trkpt lat="39.6920936" lon="1.1361249"><ele>0.0</ele><time>2026-04-29T22:24:26.977Z</time></trkpt><trkpt lat="39.6921688" lon="1.1361837"><ele>0.0</ele><time>2026-04-29T22:24:27.978Z</time></trkpt><trkpt lat="39.6922449" lon="1.1362541"><ele>0.0</ele><time>2026-04-29T22:24:28.977Z</time></trkpt><trkpt lat="39.6923179" lon="1.1363144"><ele>0.0</ele><time>2026-04-29T22:24:29.977Z</time></trkpt><trkpt lat="39.6923909" lon="1.1363722"><ele>0.0</ele><time>2026-04-29T22:24:30.977Z</time></trkpt><trkpt lat="39.6924571" lon="1.1364276"><ele>0.0</ele><time>2026-04-29T22:24:31.978Z</time></trkpt><trkpt lat="39.6925248" lon="1.1364893"><ele>0.0</ele><time>2026-04-29T22:24:32.977Z</time></trkpt><trkpt lat="39.6925926" lon="1.1365541"><ele>0.0</ele><time>2026-04-29T22:24:33.977Z</time></trkpt><trkpt lat="39.6926708" lon="1.136613"><ele>0.0</ele><time>2026-04-29T22:24:34.977Z</time></trkpt><trkpt lat="39.6927468" lon="1.1366704"><ele>0.0</ele><time>2026-04-29T22:24:35.977Z</time></trkpt><trkpt lat="39.6928258" lon="1.136724"><ele>0.0</ele><time>2026-04-29T22:24:36.977Z</time></trkpt><trkpt lat="39.6929048" lon="1.13678"><ele>0.0</ele><time>2026-04-29T22:24:37.977Z</time></trkpt><trkpt lat="39.6929833" lon="1.1368413"><ele>0.0</ele><time>2026-04-29T22:24:38.977Z</time></trkpt><trkpt lat="39.6930604" lon="1.1369061"><ele>0.0</ele><time>2026-04-29T22:24:39.977Z</time></trkpt><trkpt lat="39.693136" lon="1.1369702"><ele>0.0</ele><time>2026-04-29T22:24:40.978Z</time></trkpt><trkpt lat="39.6932852" lon="1.1370856"><ele>0.0</ele><time>2026-04-29T22:24:42.978Z</time></trkpt><trkpt lat="39.6933588" lon="1.1371302"><ele>0.0</ele><time>2026-04-29T22:24:43.977Z</time></trkpt><trkpt lat="39.6934377" lon="1.1371817"><ele>0.0</ele><time>2026-04-29T22:24:44.978Z</time></trkpt><trkpt lat="39.6935182" lon="1.1372364"><ele>0.0</ele><time>2026-04-29T22:24:45.977Z</time></trkpt><trkpt lat="39.693597" lon="1.1372872"><ele>0.0</ele><time>2026-04-29T22:24:46.977Z</time></trkpt><trkpt lat="39.6936748" lon="1.1373428"><ele>0.0</ele><time>2026-04-29T22:24:47.977Z</time></trkpt><trkpt lat="39.6937481" lon="1.1373925"><ele>0.0</ele><time>2026-04-29T22:24:48.978Z</time></trkpt><trkpt lat="39.6938285" lon="1.1374491"><ele>0.0</ele><time>2026-04-29T22:24:49.977Z</time></trkpt><trkpt lat="39.6939032" lon="1.1375029"><ele>0.0</ele><time>2026-04-29T22:24:50.977Z</time></trkpt><trkpt lat="39.6939806" lon="1.1375678"><ele>0.0</ele><time>2026-04-29T22:24:51.977Z</time></trkpt><trkpt lat="39.6940569" lon="1.1376262"><ele>0.0</ele><time>2026-04-29T22:24:52.977Z</time></trkpt><trkpt lat="39.6941361" lon="1.1376819"><ele>0.0</ele><time>2026-04-29T22:24:53.978Z</time></trkpt><trkpt lat="39.6942179" lon="1.1377388"><ele>0.0</ele><time>2026-04-29T22:24:54.978Z</time></trkpt><trkpt lat="39.6943001" lon="1.1377842"><ele>0.0</ele><time>2026-04-29T22:24:55.977Z</time></trkpt><trkpt lat="39.6943812" lon="1.1378373"><ele>0.0</ele><time>2026-04-29T22:24:56.977Z</time></trkpt><trkpt lat="39.69446" lon="1.1378938"><ele>0.0</ele><time>2026-04-29T22:24:57.977Z</time></trkpt><trkpt lat="39.6945382" lon="1.1379524"><ele>0.0</ele><time>2026-04-29T22:24:58.977Z</time></trkpt><trkpt lat="39.6946151" lon="1.1379997"><ele>0.0</ele><time>2026-04-29T22:24:59.978Z</time></trkpt><trkpt lat="39.6946933" lon="1.1380468"><ele>0.0</ele><time>2026-04-29T22:25:00.977Z</time></trkpt><trkpt lat="39.6947733" lon="1.1381018"><ele>0.0</ele><time>2026-04-29T22:25:01.978Z</time></trkpt><trkpt lat="39.6949451" lon="1.1382015"><ele>0.0</ele><time>2026-04-29T22:25:03.977Z</time></trkpt><trkpt lat="39.6950226" lon="1.1382503"><ele>0.0</ele><time>2026-04-29T22:25:04.977Z</time></trkpt><trkpt lat="39.6951032" lon="1.1383029"><ele>0.0</ele><time>2026-04-29T22:25:05.977Z</time></trkpt><trkpt lat="39.6951866" lon="1.1383568"><ele>0.0</ele><time>2026-04-29T22:25:06.977Z</time></trkpt><trkpt lat="39.6952641" lon="1.1384053"><ele>0.0</ele><time>2026-04-29T22:25:07.978Z</time></trkpt><trkpt lat="39.6953332" lon="1.1384525"><ele>0.0</ele><time>2026-04-29T22:25:08.977Z</time></trkpt><trkpt lat="39.695403" lon="1.1385049"><ele>0.0</ele><time>2026-04-29T22:25:09.977Z</time></trkpt><trkpt lat="39.6954714" lon="1.1385578"><ele>0.0</ele><time>2026-04-29T22:25:10.978Z</time></trkpt><trkpt lat="39.6955449" lon="1.1386154"><ele>0.0</ele><time>2026-04-29T22:25:11.977Z</time></trkpt><trkpt lat="39.6956892" lon="1.1387348"><ele>0.0</ele><time>2026-04-29T22:25:13.977Z</time></trkpt><trkpt lat="39.6957563" lon="1.1387901"><ele>0.0</ele><time>2026-04-29T22:25:14.977Z</time></trkpt><trkpt lat="39.6958269" lon="1.1388442"><ele>0.0</ele><time>2026-04-29T22:25:15.977Z</time></trkpt><trkpt lat="39.6959004" lon="1.1388995"><ele>0.0</ele><time>2026-04-29T22:25:16.978Z</time></trkpt><trkpt lat="39.6959706" lon="1.1389529"><ele>0.0</ele><time>2026-04-29T22:25:17.978Z</time></trkpt><trkpt lat="39.6960476" lon="1.1389994"><ele>0.0</ele><time>2026-04-29T22:25:18.978Z</time></trkpt><trkpt lat="39.696122" lon="1.1390613"><ele>0.0</ele><time>2026-04-29T22:25:19.977Z</time></trkpt><trkpt lat="39.6961911" lon="1.1391151"><ele>0.0</ele><time>2026-04-29T22:25:20.978Z</time></trkpt><trkpt lat="39.6962602" lon="1.1391753"><ele>0.0</ele><time>2026-04-29T22:25:21.978Z</time></trkpt><trkpt lat="39.696413" lon="1.139302"><ele>0.0</ele><time>2026-04-29T22:25:23.978Z</time></trkpt><trkpt lat="39.6964841" lon="1.1393613"><ele>0.0</ele><time>2026-04-29T22:25:24.977Z</time></trkpt><trkpt lat="39.6965529" lon="1.1394208"><ele>0.0</ele><time>2026-04-29T22:25:25.977Z</time></trkpt><trkpt lat="39.6966213" lon="1.1394863"><ele>0.0</ele><time>2026-04-29T22:25:26.977Z</time></trkpt><trkpt lat="39.6966969" lon="1.1395491"><ele>0.0</ele><time>2026-04-29T22:25:27.978Z</time></trkpt><trkpt lat="39.6967717" lon="1.1396081"><ele>0.0</ele><time>2026-04-29T22:25:28.977Z</time></trkpt><trkpt lat="39.6968494" lon="1.1396652"><ele>0.0</ele><time>2026-04-29T22:25:29.977Z</time></trkpt><trkpt lat="39.6969251" lon="1.1397218"><ele>0.0</ele><time>2026-04-29T22:25:30.977Z</time></trkpt><trkpt lat="39.6970047" lon="1.1397695"><ele>0.0</ele><time>2026-04-29T22:25:31.978Z</time></trkpt><trkpt lat="39.697082" lon="1.1398206"><ele>0.0</ele><time>2026-04-29T22:25:32.977Z</time></trkpt><trkpt lat="39.6971597" lon="1.1398739"><ele>0.0</ele><time>2026-04-29T22:25:33.977Z</time></trkpt><trkpt lat="39.6972323" lon="1.1399231"><ele>0.0</ele><time>2026-04-29T22:25:34.977Z</time></trkpt><trkpt lat="39.6973047" lon="1.1399692"><ele>0.0</ele><time>2026-04-29T22:25:35.978Z</time></trkpt><trkpt lat="39.6973812" lon="1.1400192"><ele>0.0</ele><time>2026-04-29T22:25:36.978Z</time></trkpt><trkpt lat="39.6974621" lon="1.1400664"><ele>0.0</ele><time>2026-04-29T22:25:37.977Z</time></trkpt><trkpt lat="39.697547" lon="1.1401081"><ele>0.0</ele><time>2026-04-29T22:25:38.977Z</time></trkpt><trkpt lat="39.6976283" lon="1.140165"><ele>0.0</ele><time>2026-04-29T22:25:39.977Z</time></trkpt><trkpt lat="39.6977081" lon="1.1402181"><ele>0.0</ele><time>2026-04-29T22:25:40.977Z</time></trkpt><trkpt lat="39.6977904" lon="1.1402731"><ele>0.0</ele><time>2026-04-29T22:25:41.978Z</time></trkpt><trkpt lat="39.6978723" lon="1.1403297"><ele>0.0</ele><time>2026-04-29T22:25:42.977Z</time></trkpt><trkpt lat="39.6980327" lon="1.1404386"><ele>0.0</ele><time>2026-04-29T22:25:44.977Z</time></trkpt><trkpt lat="39.6981141" lon="1.1404902"><ele>0.0</ele><time>2026-04-29T22:25:45.977Z</time></trkpt><trkpt lat="39.6981973" lon="1.1405403"><ele>0.0</ele><time>2026-04-29T22:25:46.978Z</time></trkpt><trkpt lat="39.6982795" lon="1.1405898"><ele>0.0</ele><time>2026-04-29T22:25:47.977Z</time></trkpt><trkpt lat="39.6983582" lon="1.1406402"><ele>0.0</ele><time>2026-04-29T22:25:48.977Z</time></trkpt><trkpt lat="39.6984396" lon="1.1406915"><ele>0.0</ele><time>2026-04-29T22:25:49.977Z</time></trkpt><trkpt lat="39.6985222" lon="1.1407491"><ele>0.0</ele><time>2026-04-29T22:25:50.977Z</time></trkpt><trkpt lat="39.6985984" lon="1.1408064"><ele>0.0</ele><time>2026-04-29T22:25:51.978Z</time></trkpt><trkpt lat="39.6986773" lon="1.1408601"><ele>0.0</ele><time>2026-04-29T22:25:52.977Z</time></trkpt><trkpt lat="39.6987577" lon="1.1409172"><ele>0.0</ele><time>2026-04-29T22:25:53.978Z</time></trkpt><trkpt lat="39.6988322" lon="1.1409771"><ele>0.0</ele><time>2026-04-29T22:25:54.978Z</time></trkpt><trkpt lat="39.6989097" lon="1.1410387"><ele>0.0</ele><time>2026-04-29T22:25:55.977Z</time></trkpt><trkpt lat="39.698991" lon="1.1410918"><ele>0.0</ele><time>2026-04-29T22:25:56.977Z</time></trkpt><trkpt lat="39.6990697" lon="1.1411423"><ele>0.0</ele><time>2026-04-29T22:25:57.978Z</time></trkpt><trkpt lat="39.6991478" lon="1.1411994"><ele>0.0</ele><time>2026-04-29T22:25:58.977Z</time></trkpt><trkpt lat="39.6992233" lon="1.1412552"><ele>0.0</ele><time>2026-04-29T22:25:59.977Z</time></trkpt><trkpt lat="39.6993041" lon="1.1413103"><ele>0.0</ele><time>2026-04-29T22:26:00.977Z</time></trkpt><trkpt lat="39.6993833" lon="1.1413689"><ele>0.0</ele><time>2026-04-29T22:26:01.977Z</time></trkpt><trkpt lat="39.6994616" lon="1.141425"><ele>0.0</ele><time>2026-04-29T22:26:02.978Z</time></trkpt><trkpt lat="39.6995368" lon="1.1414757"><ele>0.0</ele><time>2026-04-29T22:26:03.978Z</time></trkpt><trkpt lat="39.6996171" lon="1.1415326"><ele>0.0</ele><time>2026-04-29T22:26:04.978Z</time></trkpt><trkpt lat="39.6997744" lon="1.141646"><ele>0.0</ele><time>2026-04-29T22:26:06.977Z</time></trkpt><trkpt lat="39.6998547" lon="1.1417054"><ele>0.0</ele><time>2026-04-29T22:26:07.977Z</time></trkpt><trkpt lat="39.699935" lon="1.1417668"><ele>0.0</ele><time>2026-04-29T22:26:08.978Z</time></trkpt><trkpt lat="39.7000079" lon="1.1418271"><ele>0.0</ele><time>2026-04-29T22:26:09.978Z</time></trkpt><trkpt lat="39.7000773" lon="1.1418847"><ele>0.0</ele><time>2026-04-29T22:26:10.978Z</time></trkpt><trkpt lat="39.70014" lon="1.1419424"><ele>0.0</ele><time>2026-04-29T22:26:11.977Z</time></trkpt><trkpt lat="39.7002041" lon="1.1420048"><ele>0.0</ele><time>2026-04-29T22:26:12.977Z</time></trkpt><trkpt lat="39.7002676" lon="1.1420728"><ele>0.0</ele><time>2026-04-29T22:26:13.978Z</time></trkpt><trkpt lat="39.7003422" lon="1.1421304"><ele>0.0</ele><time>2026-04-29T22:26:14.978Z</time></trkpt><trkpt lat="39.7004176" lon="1.1421827"><ele>0.0</ele><time>2026-04-29T22:26:15.977Z</time></trkpt><trkpt lat="39.700493" lon="1.1422309"><ele>0.0</ele><time>2026-04-29T22:26:16.977Z</time></trkpt><trkpt lat="39.7005768" lon="1.1422776"><ele>0.0</ele><time>2026-04-29T22:26:17.977Z</time></trkpt><trkpt lat="39.7006593" lon="1.1423212"><ele>0.0</ele><time>2026-04-29T22:26:18.977Z</time></trkpt><trkpt lat="39.7007395" lon="1.1423673"><ele>0.0</ele><time>2026-04-29T22:26:19.977Z</time></trkpt><trkpt lat="39.7008181" lon="1.1424116"><ele>0.0</ele><time>2026-04-29T22:26:20.977Z</time></trkpt><trkpt lat="39.7008949" lon="1.1424604"><ele>0.0</ele><time>2026-04-29T22:26:21.977Z</time></trkpt><trkpt lat="39.7009742" lon="1.1425109"><ele>0.0</ele><time>2026-04-29T22:26:22.978Z</time></trkpt><trkpt lat="39.7010466" lon="1.1425632"><ele>0.0</ele><time>2026-04-29T22:26:23.977Z</time></trkpt><trkpt lat="39.7011207" lon="1.142615"><ele>0.0</ele><time>2026-04-29T22:26:24.978Z</time></trkpt><trkpt lat="39.7011997" lon="1.142664"><ele>0.0</ele><time>2026-04-29T22:26:25.978Z</time></trkpt><trkpt lat="39.7013585" lon="1.142755"><ele>0.0</ele><time>2026-04-29T22:26:27.978Z</time></trkpt><trkpt lat="39.7014367" lon="1.1428003"><ele>0.0</ele><time>2026-04-29T22:26:28.977Z</time></trkpt><trkpt lat="39.7015134" lon="1.1428496"><ele>0.0</ele><time>2026-04-29T22:26:29.978Z</time></trkpt><trkpt lat="39.7015887" lon="1.142897"><ele>0.0</ele><time>2026-04-29T22:26:30.977Z</time></trkpt><trkpt lat="39.7016562" lon="1.1429506"><ele>0.0</ele><time>2026-04-29T22:26:31.977Z</time></trkpt><trkpt lat="39.7017274" lon="1.1430021"><ele>0.0</ele><time>2026-04-29T22:26:32.977Z</time></trkpt><trkpt lat="39.701804" lon="1.143052"><ele>0.0</ele><time>2026-04-29T22:26:33.977Z</time></trkpt><trkpt lat="39.7018811" lon="1.1431053"><ele>0.0</ele><time>2026-04-29T22:26:34.977Z</time></trkpt><trkpt lat="39.7019579" lon="1.1431673"><ele>0.0</ele><time>2026-04-29T22:26:35.978Z</time></trkpt><trkpt lat="39.7020329" lon="1.1432292"><ele>0.0</ele><time>2026-04-29T22:26:36.977Z</time></trkpt><trkpt lat="39.7021047" lon="1.1432946"><ele>0.0</ele><time>2026-04-29T22:26:37.977Z</time></trkpt><trkpt lat="39.7021819" lon="1.1433624"><ele>0.0</ele><time>2026-04-29T22:26:38.978Z</time></trkpt><trkpt lat="39.7022615" lon="1.1434212"><ele>0.0</ele><time>2026-04-29T22:26:39.978Z</time></trkpt><trkpt lat="39.7023401" lon="1.1434889"><ele>0.0</ele><time>2026-04-29T22:26:40.977Z</time></trkpt><trkpt lat="39.7024215" lon="1.1435587"><ele>0.0</ele><time>2026-04-29T22:26:41.977Z</time></trkpt><trkpt lat="39.7025021" lon="1.1436209"><ele>0.0</ele><time>2026-04-29T22:26:42.977Z</time></trkpt><trkpt lat="39.7025793" lon="1.143677"><ele>0.0</ele><time>2026-04-29T22:26:43.977Z</time></trkpt><trkpt lat="39.7026528" lon="1.143726"><ele>0.0</ele><time>2026-04-29T22:26:44.977Z</time></trkpt><trkpt lat="39.702733" lon="1.1437764"><ele>0.0</ele><time>2026-04-29T22:26:45.977Z</time></trkpt><trkpt lat="39.7028098" lon="1.1438324"><ele>0.0</ele><time>2026-04-29T22:26:46.977Z</time></trkpt><trkpt lat="39.7028874" lon="1.1438859"><ele>0.0</ele><time>2026-04-29T22:26:47.978Z</time></trkpt><trkpt lat="39.7031291" lon="1.1440509"><ele>0.0</ele><time>2026-04-29T22:26:50.978Z</time></trkpt><trkpt lat="39.7032068" lon="1.1441029"><ele>0.0</ele><time>2026-04-29T22:26:51.977Z</time></trkpt><trkpt lat="39.7032844" lon="1.1441545"><ele>0.0</ele><time>2026-04-29T22:26:52.977Z</time></trkpt><trkpt lat="39.7033645" lon="1.1442062"><ele>0.0</ele><time>2026-04-29T22:26:53.977Z</time></trkpt><trkpt lat="39.703439" lon="1.1442616"><ele>0.0</ele><time>2026-04-29T22:26:54.978Z</time></trkpt><trkpt lat="39.7035128" lon="1.1443142"><ele>0.0</ele><time>2026-04-29T22:26:55.977Z</time></trkpt><trkpt lat="39.7035906" lon="1.1443728"><ele>0.0</ele><time>2026-04-29T22:26:56.977Z</time></trkpt><trkpt lat="39.7036677" lon="1.1444318"><ele>0.0</ele><time>2026-04-29T22:26:57.977Z</time></trkpt><trkpt lat="39.7037599" lon="1.144456"><ele>0.0</ele><time>2026-04-29T22:26:58.978Z</time></trkpt><trkpt lat="39.7038488" lon="1.1444808"><ele>0.0</ele><time>2026-04-29T22:26:59.978Z</time></trkpt><trkpt lat="39.7039302" lon="1.144532"><ele>0.0</ele><time>2026-04-29T22:27:00.978Z</time></trkpt><trkpt lat="39.7040069" lon="1.1445908"><ele>0.0</ele><time>2026-04-29T22:27:01.978Z</time></trkpt><trkpt lat="39.7040744" lon="1.144654"><ele>0.0</ele><time>2026-04-29T22:27:02.977Z</time></trkpt><trkpt lat="39.7041436" lon="1.144719"><ele>0.0</ele><time>2026-04-29T22:27:03.978Z</time></trkpt><trkpt lat="39.7042192" lon="1.1447753"><ele>0.0</ele><time>2026-04-29T22:27:04.977Z</time></trkpt><trkpt lat="39.7042903" lon="1.1448419"><ele>0.0</ele><time>2026-04-29T22:27:05.977Z</time></trkpt><trkpt lat="39.704365" lon="1.1449004"><ele>0.0</ele><time>2026-04-29T22:27:06.978Z</time></trkpt><trkpt lat="39.7044372" lon="1.1449672"><ele>0.0</ele><time>2026-04-29T22:27:07.977Z</time></trkpt><trkpt lat="39.7045076" lon="1.1450309"><ele>0.0</ele><time>2026-04-29T22:27:08.977Z</time></trkpt><trkpt lat="39.7046633" lon="1.1451507"><ele>0.0</ele><time>2026-04-29T22:27:10.977Z</time></trkpt><trkpt lat="39.7047427" lon="1.1452043"><ele>0.0</ele><time>2026-04-29T22:27:11.978Z</time></trkpt><trkpt lat="39.7048395" lon="1.1452364"><ele>0.0</ele><time>2026-04-29T22:27:12.978Z</time></trkpt><trkpt lat="39.7049226" lon="1.1452927"><ele>0.0</ele><time>2026-04-29T22:27:13.977Z</time></trkpt><trkpt lat="39.7050019" lon="1.1453469"><ele>0.0</ele><time>2026-04-29T22:27:14.977Z</time></trkpt><trkpt lat="39.7050801" lon="1.1454055"><ele>0.0</ele><time>2026-04-29T22:27:15.978Z</time></trkpt><trkpt lat="39.7051541" lon="1.1454618"><ele>0.0</ele><time>2026-04-29T22:27:16.978Z</time></trkpt><trkpt lat="39.7052299" lon="1.1455109"><ele>0.0</ele><time>2026-04-29T22:27:17.977Z</time></trkpt><trkpt lat="39.7053066" lon="1.1455595"><ele>0.0</ele><time>2026-04-29T22:27:18.978Z</time></trkpt><trkpt lat="39.7053828" lon="1.1456132"><ele>0.0</ele><time>2026-04-29T22:27:19.977Z</time></trkpt><trkpt lat="39.7054642" lon="1.1456715"><ele>0.0</ele><time>2026-04-29T22:27:20.977Z</time></trkpt><trkpt lat="39.7055422" lon="1.1457314"><ele>0.0</ele><time>2026-04-29T22:27:21.978Z</time></trkpt><trkpt lat="39.7056215" lon="1.1457868"><ele>0.0</ele><time>2026-04-29T22:27:22.977Z</time></trkpt><trkpt lat="39.7056986" lon="1.1458388"><ele>0.0</ele><time>2026-04-29T22:27:23.977Z</time></trkpt><trkpt lat="39.7057752" lon="1.1458907"><ele>0.0</ele><time>2026-04-29T22:27:24.978Z</time></trkpt><trkpt lat="39.7058532" lon="1.145941"><ele>0.0</ele><time>2026-04-29T22:27:25.978Z</time></trkpt><trkpt lat="39.7059299" lon="1.1459951"><ele>0.0</ele><time>2026-04-29T22:27:26.978Z</time></trkpt><trkpt lat="39.7060069" lon="1.146053"><ele>0.0</ele><time>2026-04-29T22:27:27.977Z</time></trkpt><trkpt lat="39.7060846" lon="1.1461114"><ele>0.0</ele><time>2026-04-29T22:27:28.977Z</time></trkpt><trkpt lat="39.7061616" lon="1.1461684"><ele>0.0</ele><time>2026-04-29T22:27:29.977Z</time></trkpt><trkpt lat="39.7063152" lon="1.1463046"><ele>0.0</ele><time>2026-04-29T22:27:31.978Z</time></trkpt><trkpt lat="39.7063884" lon="1.1463632"><ele>0.0</ele><time>2026-04-29T22:27:32.978Z</time></trkpt><trkpt lat="39.7064641" lon="1.1464228"><ele>0.0</ele><time>2026-04-29T22:27:33.977Z</time></trkpt><trkpt lat="39.7065387" lon="1.1464829"><ele>0.0</ele><time>2026-04-29T22:27:34.977Z</time></trkpt><trkpt lat="39.7066152" lon="1.1465444"><ele>0.0</ele><time>2026-04-29T22:27:35.977Z</time></trkpt><trkpt lat="39.7066947" lon="1.1466057"><ele>0.0</ele><time>2026-04-29T22:27:36.977Z</time></trkpt><trkpt lat="39.7067764" lon="1.1466571"><ele>0.0</ele><time>2026-04-29T22:27:37.977Z</time></trkpt><trkpt lat="39.7068535" lon="1.1467158"><ele>0.0</ele><time>2026-04-29T22:27:38.977Z</time></trkpt><trkpt lat="39.706923" lon="1.146773"><ele>0.0</ele><time>2026-04-29T22:27:39.978Z</time></trkpt><trkpt lat="39.7069869" lon="1.1468267"><ele>0.0</ele><time>2026-04-29T22:27:40.978Z</time></trkpt><trkpt lat="39.7070643" lon="1.1468626"><ele>0.0</ele><time>2026-04-29T22:27:41.977Z</time></trkpt><trkpt lat="39.7071526" lon="1.1468965"><ele>0.0</ele><time>2026-04-29T22:27:42.978Z</time></trkpt><trkpt lat="39.7072244" lon="1.1469476"><ele>0.0</ele><time>2026-04-29T22:27:43.977Z</time></trkpt><trkpt lat="39.7072955" lon="1.1469973"><ele>0.0</ele><time>2026-04-29T22:27:44.977Z</time></trkpt><trkpt lat="39.7073632" lon="1.1470627"><ele>0.0</ele><time>2026-04-29T22:27:45.978Z</time></trkpt><trkpt lat="39.707438" lon="1.1471323"><ele>0.0</ele><time>2026-04-29T22:27:46.977Z</time></trkpt><trkpt lat="39.7075065" lon="1.1471953"><ele>0.0</ele><time>2026-04-29T22:27:47.977Z</time></trkpt><trkpt lat="39.7075777" lon="1.14726"><ele>0.0</ele><time>2026-04-29T22:27:48.978Z</time></trkpt><trkpt lat="39.7076518" lon="1.1473166"><ele>0.0</ele><time>2026-04-29T22:27:49.977Z</time></trkpt><trkpt lat="39.7077266" lon="1.147363"><ele>0.0</ele><time>2026-04-29T22:27:50.977Z</time></trkpt><trkpt lat="39.7078085" lon="1.1474064"><ele>0.0</ele><time>2026-04-29T22:27:51.978Z</time></trkpt><trkpt lat="39.7081044" lon="1.1475379"><ele>0.0</ele><time>2026-04-29T22:27:54.977Z</time></trkpt><trkpt lat="39.7081981" lon="1.1475672"><ele>0.0</ele><time>2026-04-29T22:27:55.977Z</time></trkpt><trkpt lat="39.7082694" lon="1.1476212"><ele>0.0</ele><time>2026-04-29T22:27:56.977Z</time></trkpt><trkpt lat="39.7083377" lon="1.1476749"><ele>0.0</ele><time>2026-04-29T22:27:57.978Z</time></trkpt><trkpt lat="39.7084074" lon="1.1477275"><ele>0.0</ele><time>2026-04-29T22:27:58.978Z</time></trkpt><trkpt lat="39.7084788" lon="1.1477816"><ele>0.0</ele><time>2026-04-29T22:27:59.978Z</time></trkpt><trkpt lat="39.7085533" lon="1.1478404"><ele>0.0</ele><time>2026-04-29T22:28:00.977Z</time></trkpt><trkpt lat="39.7086298" lon="1.1478919"><ele>0.0</ele><time>2026-04-29T22:28:01.978Z</time></trkpt><trkpt lat="39.7086938" lon="1.1479534"><ele>0.0</ele><time>2026-04-29T22:28:02.977Z</time></trkpt><trkpt lat="39.708754" lon="1.1480196"><ele>0.0</ele><time>2026-04-29T22:28:03.977Z</time></trkpt><trkpt lat="39.7088291" lon="1.1480738"><ele>0.0</ele><time>2026-04-29T22:28:04.977Z</time></trkpt><trkpt lat="39.7089059" lon="1.1481283"><ele>0.0</ele><time>2026-04-29T22:28:05.977Z</time></trkpt><trkpt lat="39.7089741" lon="1.1481836"><ele>0.0</ele><time>2026-04-29T22:28:06.977Z</time></trkpt><trkpt lat="39.7090423" lon="1.1482399"><ele>0.0</ele><time>2026-04-29T22:28:07.978Z</time></trkpt><trkpt lat="39.7091053" lon="1.1482979"><ele>0.0</ele><time>2026-04-29T22:28:08.978Z</time></trkpt><trkpt lat="39.7091765" lon="1.1483461"><ele>0.0</ele><time>2026-04-29T22:28:09.977Z</time></trkpt><trkpt lat="39.7092557" lon="1.1483953"><ele>0.0</ele><time>2026-04-29T22:28:10.978Z</time></trkpt><trkpt lat="39.7093376" lon="1.1484425"><ele>0.0</ele><time>2026-04-29T22:28:11.978Z</time></trkpt><trkpt lat="39.709418" lon="1.1484873"><ele>0.0</ele><time>2026-04-29T22:28:12.977Z</time></trkpt><trkpt lat="39.7095653" lon="1.1485918"><ele>0.0</ele><time>2026-04-29T22:28:14.977Z</time></trkpt><trkpt lat="39.7096359" lon="1.1486505"><ele>0.0</ele><time>2026-04-29T22:28:15.977Z</time></trkpt><trkpt lat="39.7097171" lon="1.1487037"><ele>0.0</ele><time>2026-04-29T22:28:16.976Z</time></trkpt><trkpt lat="39.7097979" lon="1.1487537"><ele>0.0</ele><time>2026-04-29T22:28:17.976Z</time></trkpt><trkpt lat="39.7098779" lon="1.1488036"><ele>0.0</ele><time>2026-04-29T22:28:18.976Z</time></trkpt><trkpt lat="39.709962" lon="1.1488506"><ele>0.0</ele><time>2026-04-29T22:28:19.977Z</time></trkpt><trkpt lat="39.710046" lon="1.1489028"><ele>0.0</ele><time>2026-04-29T22:28:20.976Z</time></trkpt><trkpt lat="39.7101304" lon="1.1489596"><ele>0.0</ele><time>2026-04-29T22:28:21.976Z</time></trkpt><trkpt lat="39.7102185" lon="1.1490135"><ele>0.0</ele><time>2026-04-29T22:28:22.977Z</time></trkpt><trkpt lat="39.7102917" lon="1.1490698"><ele>0.0</ele><time>2026-04-29T22:28:23.976Z</time></trkpt><trkpt lat="39.7104409" lon="1.1491761"><ele>0.0</ele><time>2026-04-29T22:28:25.976Z</time></trkpt><trkpt lat="39.7105149" lon="1.1492238"><ele>0.0</ele><time>2026-04-29T22:28:26.976Z</time></trkpt><trkpt lat="39.7106053" lon="1.1492622"><ele>0.0</ele><time>2026-04-29T22:28:27.976Z</time></trkpt><trkpt lat="39.7106972" lon="1.1493118"><ele>0.0</ele><time>2026-04-29T22:28:28.976Z</time></trkpt><trkpt lat="39.7107819" lon="1.1493653"><ele>0.0</ele><time>2026-04-29T22:28:29.976Z</time></trkpt><trkpt lat="39.7108629" lon="1.14942"><ele>0.0</ele><time>2026-04-29T22:28:30.976Z</time></trkpt><trkpt lat="39.7109447" lon="1.1494775"><ele>0.0</ele><time>2026-04-29T22:28:31.976Z</time></trkpt><trkpt lat="39.7110224" lon="1.1495359"><ele>0.0</ele><time>2026-04-29T22:28:32.976Z</time></trkpt><trkpt lat="39.7111101" lon="1.1495837"><ele>0.0</ele><time>2026-04-29T22:28:33.977Z</time></trkpt><trkpt lat="39.7112904" lon="1.1496705"><ele>0.0</ele><time>2026-04-29T22:28:35.976Z</time></trkpt><trkpt lat="39.7113736" lon="1.1497111"><ele>0.0</ele><time>2026-04-29T22:28:36.976Z</time></trkpt><trkpt lat="39.7114607" lon="1.1497622"><ele>0.0</ele><time>2026-04-29T22:28:37.976Z</time></trkpt><trkpt lat="39.7115463" lon="1.1498185"><ele>0.0</ele><time>2026-04-29T22:28:38.977Z</time></trkpt><trkpt lat="39.7116298" lon="1.1498786"><ele>0.0</ele><time>2026-04-29T22:28:39.977Z</time></trkpt><trkpt lat="39.7117071" lon="1.1499291"><ele>0.0</ele><time>2026-04-29T22:28:40.976Z</time></trkpt><trkpt lat="39.7117845" lon="1.149979"><ele>0.0</ele><time>2026-04-29T22:28:41.977Z</time></trkpt><trkpt lat="39.711864" lon="1.1500233"><ele>0.0</ele><time>2026-04-29T22:28:42.977Z</time></trkpt><trkpt lat="39.7119429" lon="1.1500679"><ele>0.0</ele><time>2026-04-29T22:28:43.977Z</time></trkpt><trkpt lat="39.7120241" lon="1.1501167"><ele>0.0</ele><time>2026-04-29T22:28:44.976Z</time></trkpt><trkpt lat="39.7121044" lon="1.1501714"><ele>0.0</ele><time>2026-04-29T22:28:45.976Z</time></trkpt><trkpt lat="39.7121914" lon="1.1502207"><ele>0.0</ele><time>2026-04-29T22:28:46.976Z</time></trkpt><trkpt lat="39.7122755" lon="1.1502713"><ele>0.0</ele><time>2026-04-29T22:28:47.976Z</time></trkpt><trkpt lat="39.7123577" lon="1.1503185"><ele>0.0</ele><time>2026-04-29T22:28:48.976Z</time></trkpt><trkpt lat="39.712436" lon="1.1503692"><ele>0.0</ele><time>2026-04-29T22:28:49.976Z</time></trkpt><trkpt lat="39.7125131" lon="1.1504182"><ele>0.0</ele><time>2026-04-29T22:28:50.977Z</time></trkpt><trkpt lat="39.7125913" lon="1.1504761"><ele>0.0</ele><time>2026-04-29T22:28:51.976Z</time></trkpt><trkpt lat="39.7126671" lon="1.1505357"><ele>0.0</ele><time>2026-04-29T22:28:52.977Z</time></trkpt><trkpt lat="39.7127476" lon="1.1505883"><ele>0.0</ele><time>2026-04-29T22:28:53.976Z</time></trkpt><trkpt lat="39.7129094" lon="1.1507105"><ele>0.0</ele><time>2026-04-29T22:28:55.976Z</time></trkpt><trkpt lat="39.7129879" lon="1.1507735"><ele>0.0</ele><time>2026-04-29T22:28:56.976Z</time></trkpt><trkpt lat="39.7130667" lon="1.1508332"><ele>0.0</ele><time>2026-04-29T22:28:57.977Z</time></trkpt><trkpt lat="39.7131394" lon="1.1508872"><ele>0.0</ele><time>2026-04-29T22:28:58.977Z</time></trkpt><trkpt lat="39.7132153" lon="1.1509486"><ele>0.0</ele><time>2026-04-29T22:28:59.977Z</time></trkpt><trkpt lat="39.7132977" lon="1.1510087"><ele>0.0</ele><time>2026-04-29T22:29:00.977Z</time></trkpt><trkpt lat="39.7133706" lon="1.1510577"><ele>0.0</ele><time>2026-04-29T22:29:01.976Z</time></trkpt><trkpt lat="39.7134329" lon="1.1511075"><ele>0.0</ele><time>2026-04-29T22:29:02.977Z</time></trkpt><trkpt lat="39.7135085" lon="1.1511661"><ele>0.0</ele><time>2026-04-29T22:29:03.977Z</time></trkpt><trkpt lat="39.7135824" lon="1.1512228"><ele>0.0</ele><time>2026-04-29T22:29:04.976Z</time></trkpt><trkpt lat="39.7136555" lon="1.151281"><ele>0.0</ele><time>2026-04-29T22:29:05.977Z</time></trkpt><trkpt lat="39.7137303" lon="1.1513383"><ele>0.0</ele><time>2026-04-29T22:29:06.976Z</time></trkpt><trkpt lat="39.7138078" lon="1.1514093"><ele>0.0</ele><time>2026-04-29T22:29:07.977Z</time></trkpt><trkpt lat="39.7138793" lon="1.1514805"><ele>0.0</ele><time>2026-04-29T22:29:08.976Z</time></trkpt><trkpt lat="39.7139495" lon="1.1515479"><ele>0.0</ele><time>2026-04-29T22:29:09.976Z</time></trkpt><trkpt lat="39.7140221" lon="1.1516161"><ele>0.0</ele><time>2026-04-29T22:29:10.976Z</time></trkpt><trkpt lat="39.7140928" lon="1.1516848"><ele>0.0</ele><time>2026-04-29T22:29:11.976Z</time></trkpt><trkpt lat="39.7141694" lon="1.1517391"><ele>0.0</ele><time>2026-04-29T22:29:12.977Z</time></trkpt><trkpt lat="39.7142517" lon="1.1517684"><ele>0.0</ele><time>2026-04-29T22:29:13.976Z</time></trkpt><trkpt lat="39.7143339" lon="1.1517966"><ele>0.0</ele><time>2026-04-29T22:29:14.977Z</time></trkpt><trkpt lat="39.7144931" lon="1.1518943"><ele>0.0</ele><time>2026-04-29T22:29:16.977Z</time></trkpt><trkpt lat="39.7145745" lon="1.151947"><ele>0.0</ele><time>2026-04-29T22:29:17.976Z</time></trkpt><trkpt lat="39.7146477" lon="1.1519988"><ele>0.0</ele><time>2026-04-29T22:29:18.976Z</time></trkpt><trkpt lat="39.7147233" lon="1.1520614"><ele>0.0</ele><time>2026-04-29T22:29:19.977Z</time></trkpt><trkpt lat="39.7148015" lon="1.1521223"><ele>0.0</ele><time>2026-04-29T22:29:20.977Z</time></trkpt><trkpt lat="39.714877" lon="1.1521754"><ele>0.0</ele><time>2026-04-29T22:29:21.977Z</time></trkpt><trkpt lat="39.7149551" lon="1.1522254"><ele>0.0</ele><time>2026-04-29T22:29:22.977Z</time></trkpt><trkpt lat="39.7150278" lon="1.152275"><ele>0.0</ele><time>2026-04-29T22:29:23.976Z</time></trkpt><trkpt lat="39.7151024" lon="1.1523275"><ele>0.0</ele><time>2026-04-29T22:29:24.976Z</time></trkpt><trkpt lat="39.7151773" lon="1.1523799"><ele>0.0</ele><time>2026-04-29T22:29:25.976Z</time></trkpt><trkpt lat="39.7152477" lon="1.1524335"><ele>0.0</ele><time>2026-04-29T22:29:26.977Z</time></trkpt><trkpt lat="39.7153202" lon="1.1524864"><ele>0.0</ele><time>2026-04-29T22:29:27.976Z</time></trkpt><trkpt lat="39.7154732" lon="1.1526009"><ele>0.0</ele><time>2026-04-29T22:29:29.976Z</time></trkpt><trkpt lat="39.7155507" lon="1.1526561"><ele>0.0</ele><time>2026-04-29T22:29:30.977Z</time></trkpt><trkpt lat="39.7156255" lon="1.1527131"><ele>0.0</ele><time>2026-04-29T22:29:31.976Z</time></trkpt><trkpt lat="39.7157001" lon="1.1527745"><ele>0.0</ele><time>2026-04-29T22:29:32.976Z</time></trkpt><trkpt lat="39.7157792" lon="1.1528404"><ele>0.0</ele><time>2026-04-29T22:29:33.976Z</time></trkpt><trkpt lat="39.7158532" lon="1.1529027"><ele>0.0</ele><time>2026-04-29T22:29:34.976Z</time></trkpt><trkpt lat="39.7159249" lon="1.1529612"><ele>0.0</ele><time>2026-04-29T22:29:35.977Z</time></trkpt><trkpt lat="39.716082" lon="1.1530772"><ele>0.0</ele><time>2026-04-29T22:29:37.977Z</time></trkpt><trkpt lat="39.7161574" lon="1.1531307"><ele>0.0</ele><time>2026-04-29T22:29:38.976Z</time></trkpt><trkpt lat="39.7162335" lon="1.1531837"><ele>0.0</ele><time>2026-04-29T22:29:39.977Z</time></trkpt><trkpt lat="39.7163133" lon="1.1532353"><ele>0.0</ele><time>2026-04-29T22:29:40.977Z</time></trkpt><trkpt lat="39.7163936" lon="1.1532857"><ele>0.0</ele><time>2026-04-29T22:29:41.977Z</time></trkpt><trkpt lat="39.7164752" lon="1.1533256"><ele>0.0</ele><time>2026-04-29T22:29:42.976Z</time></trkpt><trkpt lat="39.7165507" lon="1.1533727"><ele>0.0</ele><time>2026-04-29T22:29:43.976Z</time></trkpt><trkpt lat="39.716627" lon="1.1534249"><ele>0.0</ele><time>2026-04-29T22:29:44.976Z</time></trkpt><trkpt lat="39.7167063" lon="1.1534797"><ele>0.0</ele><time>2026-04-29T22:29:45.976Z</time></trkpt><trkpt lat="39.7167817" lon="1.1535334"><ele>0.0</ele><time>2026-04-29T22:29:46.976Z</time></trkpt><trkpt lat="39.716854" lon="1.1535795"><ele>0.0</ele><time>2026-04-29T22:29:47.976Z</time></trkpt><trkpt lat="39.7169302" lon="1.1536241"><ele>0.0</ele><time>2026-04-29T22:29:48.976Z</time></trkpt><trkpt lat="39.7170126" lon="1.1536763"><ele>0.0</ele><time>2026-04-29T22:29:49.976Z</time></trkpt><trkpt lat="39.7170961" lon="1.1537253"><ele>0.0</ele><time>2026-04-29T22:29:50.976Z</time></trkpt><trkpt lat="39.7171779" lon="1.1537748"><ele>0.0</ele><time>2026-04-29T22:29:51.977Z</time></trkpt><trkpt lat="39.7172566" lon="1.1538252"><ele>0.0</ele><time>2026-04-29T22:29:52.977Z</time></trkpt><trkpt lat="39.7173378" lon="1.1538722"><ele>0.0</ele><time>2026-04-29T22:29:53.976Z</time></trkpt><trkpt lat="39.717421" lon="1.153925"><ele>0.0</ele><time>2026-04-29T22:29:54.977Z</time></trkpt><trkpt lat="39.7175027" lon="1.1539738"><ele>0.0</ele><time>2026-04-29T22:29:55.977Z</time></trkpt><trkpt lat="39.7175857" lon="1.1540296"><ele>0.0</ele><time>2026-04-29T22:29:56.977Z</time></trkpt><trkpt lat="39.7177483" lon="1.1541402"><ele>0.0</ele><time>2026-04-29T22:29:58.976Z</time></trkpt><trkpt lat="39.7178264" lon="1.1541944"><ele>0.0</ele><time>2026-04-29T22:29:59.976Z</time></trkpt><trkpt lat="39.7179899" lon="1.1543094"><ele>0.0</ele><time>2026-04-29T22:30:01.976Z</time></trkpt><trkpt lat="39.7180699" lon="1.1543645"><ele>0.0</ele><time>2026-04-29T22:30:02.976Z</time></trkpt><trkpt lat="39.7181484" lon="1.1544164"><ele>0.0</ele><time>2026-04-29T22:30:03.976Z</time></trkpt><trkpt lat="39.718228" lon="1.1544679"><ele>0.0</ele><time>2026-04-29T22:30:04.977Z</time></trkpt><trkpt lat="39.7183037" lon="1.1545168"><ele>0.0</ele><time>2026-04-29T22:30:05.976Z</time></trkpt><trkpt lat="39.718377" lon="1.1545694"><ele>0.0</ele><time>2026-04-29T22:30:06.976Z</time></trkpt><trkpt lat="39.7184532" lon="1.1546259"><ele>0.0</ele><time>2026-04-29T22:30:07.976Z</time></trkpt><trkpt lat="39.7185331" lon="1.1546825"><ele>0.0</ele><time>2026-04-29T22:30:08.977Z</time></trkpt><trkpt lat="39.7186131" lon="1.1547477"><ele>0.0</ele><time>2026-04-29T22:30:09.976Z</time></trkpt><trkpt lat="39.718692" lon="1.1548059"><ele>0.0</ele><time>2026-04-29T22:30:10.977Z</time></trkpt><trkpt lat="39.7187651" lon="1.1548598"><ele>0.0</ele><time>2026-04-29T22:30:11.976Z</time></trkpt><trkpt lat="39.7188412" lon="1.1549189"><ele>0.0</ele><time>2026-04-29T22:30:12.976Z</time></trkpt><trkpt lat="39.718918" lon="1.1549793"><ele>0.0</ele><time>2026-04-29T22:30:13.977Z</time></trkpt><trkpt lat="39.7189917" lon="1.1550367"><ele>0.0</ele><time>2026-04-29T22:30:14.977Z</time></trkpt><trkpt lat="39.719061" lon="1.1550901"><ele>0.0</ele><time>2026-04-29T22:30:15.976Z</time></trkpt><trkpt lat="39.7191384" lon="1.1551522"><ele>0.0</ele><time>2026-04-29T22:30:16.977Z</time></trkpt><trkpt lat="39.719218" lon="1.1552097"><ele>0.0</ele><time>2026-04-29T22:30:17.976Z</time></trkpt><trkpt lat="39.7193734" lon="1.1553221"><ele>0.0</ele><time>2026-04-29T22:30:19.976Z</time></trkpt><trkpt lat="39.7194501" lon="1.1553785"><ele>0.0</ele><time>2026-04-29T22:30:20.977Z</time></trkpt><trkpt lat="39.7195198" lon="1.1554308"><ele>0.0</ele><time>2026-04-29T22:30:21.976Z</time></trkpt><trkpt lat="39.719588" lon="1.1554774"><ele>0.0</ele><time>2026-04-29T22:30:22.976Z</time></trkpt><trkpt lat="39.7196627" lon="1.155534"><ele>0.0</ele><time>2026-04-29T22:30:23.976Z</time></trkpt><trkpt lat="39.7197457" lon="1.1555925"><ele>0.0</ele><time>2026-04-29T22:30:24.977Z</time></trkpt><trkpt lat="39.7198275" lon="1.1556525"><ele>0.0</ele><time>2026-04-29T22:30:25.976Z</time></trkpt><trkpt lat="39.719909" lon="1.1557169"><ele>0.0</ele><time>2026-04-29T22:30:26.976Z</time></trkpt><trkpt lat="39.719988" lon="1.1557778"><ele>0.0</ele><time>2026-04-29T22:30:27.977Z</time></trkpt><trkpt lat="39.7200683" lon="1.1558362"><ele>0.0</ele><time>2026-04-29T22:30:28.977Z</time></trkpt><trkpt lat="39.7201487" lon="1.1558916"><ele>0.0</ele><time>2026-04-29T22:30:29.976Z</time></trkpt><trkpt lat="39.7202271" lon="1.1559443"><ele>0.0</ele><time>2026-04-29T22:30:30.976Z</time></trkpt><trkpt lat="39.7203044" lon="1.1559932"><ele>0.0</ele><time>2026-04-29T22:30:31.977Z</time></trkpt><trkpt lat="39.7203867" lon="1.1560462"><ele>0.0</ele><time>2026-04-29T22:30:32.976Z</time></trkpt><trkpt lat="39.7204644" lon="1.1560985"><ele>0.0</ele><time>2026-04-29T22:30:33.976Z</time></trkpt><trkpt lat="39.7205379" lon="1.1561499"><ele>0.0</ele><time>2026-04-29T22:30:34.976Z</time></trkpt><trkpt lat="39.7206155" lon="1.1561984"><ele>0.0</ele><time>2026-04-29T22:30:35.977Z</time></trkpt><trkpt lat="39.7206908" lon="1.1562467"><ele>0.0</ele><time>2026-04-29T22:30:36.976Z</time></trkpt><trkpt lat="39.7207656" lon="1.1562934"><ele>0.0</ele><time>2026-04-29T22:30:37.977Z</time></trkpt><trkpt lat="39.7208406" lon="1.1563433"><ele>0.0</ele><time>2026-04-29T22:30:38.977Z</time></trkpt><trkpt lat="39.7209877" lon="1.1564361"><ele>0.0</ele><time>2026-04-29T22:30:40.977Z</time></trkpt><trkpt lat="39.7210666" lon="1.1564942"><ele>0.0</ele><time>2026-04-29T22:30:41.976Z</time></trkpt><trkpt lat="39.721139" lon="1.1565465"><ele>0.0</ele><time>2026-04-29T22:30:42.977Z</time></trkpt><trkpt lat="39.7212136" lon="1.1566002"><ele>0.0</ele><time>2026-04-29T22:30:43.976Z</time></trkpt><trkpt lat="39.7212903" lon="1.1566486"><ele>0.0</ele><time>2026-04-29T22:30:44.977Z</time></trkpt><trkpt lat="39.7213591" lon="1.1566913"><ele>0.0</ele><time>2026-04-29T22:30:45.977Z</time></trkpt><trkpt lat="39.7214369" lon="1.1567413"><ele>0.0</ele><time>2026-04-29T22:30:46.976Z</time></trkpt><trkpt lat="39.7215042" lon="1.1567841"><ele>0.0</ele><time>2026-04-29T22:30:47.976Z</time></trkpt><trkpt lat="39.7215838" lon="1.1568314"><ele>0.0</ele><time>2026-04-29T22:30:48.976Z</time></trkpt><trkpt lat="39.7216553" lon="1.1568856"><ele>0.0</ele><time>2026-04-29T22:30:49.977Z</time></trkpt><trkpt lat="39.721732" lon="1.1569375"><ele>0.0</ele><time>2026-04-29T22:30:50.977Z</time></trkpt><trkpt lat="39.7218129" lon="1.1569924"><ele>0.0</ele><time>2026-04-29T22:30:51.976Z</time></trkpt><trkpt lat="39.7218898" lon="1.1570492"><ele>0.0</ele><time>2026-04-29T22:30:52.977Z</time></trkpt><trkpt lat="39.7219524" lon="1.1570992"><ele>0.0</ele><time>2026-04-29T22:30:53.976Z</time></trkpt><trkpt lat="39.7220182" lon="1.1571516"><ele>0.0</ele><time>2026-04-29T22:30:54.976Z</time></trkpt><trkpt lat="39.7220891" lon="1.1572076"><ele>0.0</ele><time>2026-04-29T22:30:55.976Z</time></trkpt><trkpt lat="39.7221664" lon="1.1572751"><ele>0.0</ele><time>2026-04-29T22:30:56.976Z</time></trkpt><trkpt lat="39.7222449" lon="1.1573514"><ele>0.0</ele><time>2026-04-29T22:30:57.976Z</time></trkpt><trkpt lat="39.722323" lon="1.1574172"><ele>0.0</ele><time>2026-04-29T22:30:58.976Z</time></trkpt><trkpt lat="39.7224042" lon="1.1574835"><ele>0.0</ele><time>2026-04-29T22:30:59.976Z</time></trkpt><trkpt lat="39.7225629" lon="1.1576063"><ele>0.0</ele><time>2026-04-29T22:31:01.977Z</time></trkpt><trkpt lat="39.7226459" lon="1.1576735"><ele>0.0</ele><time>2026-04-29T22:31:02.977Z</time></trkpt><trkpt lat="39.7227236" lon="1.1577397"><ele>0.0</ele><time>2026-04-29T22:31:03.976Z</time></trkpt><trkpt lat="39.7228001" lon="1.1578021"><ele>0.0</ele><time>2026-04-29T22:31:04.976Z</time></trkpt><trkpt lat="39.7228725" lon="1.1578614"><ele>0.0</ele><time>2026-04-29T22:31:05.977Z</time></trkpt><trkpt lat="39.7229457" lon="1.1579181"><ele>0.0</ele><time>2026-04-29T22:31:06.976Z</time></trkpt><trkpt lat="39.7230202" lon="1.1579732"><ele>0.0</ele><time>2026-04-29T22:31:07.976Z</time></trkpt><trkpt lat="39.7230955" lon="1.1580285"><ele>0.0</ele><time>2026-04-29T22:31:08.977Z</time></trkpt><trkpt lat="39.7231689" lon="1.1580802"><ele>0.0</ele><time>2026-04-29T22:31:09.976Z</time></trkpt><trkpt lat="39.7232393" lon="1.1581322"><ele>0.0</ele><time>2026-04-29T22:31:10.976Z</time></trkpt><trkpt lat="39.7233276" lon="1.1581979"><ele>0.0</ele><time>2026-04-29T22:31:11.976Z</time></trkpt><trkpt lat="39.7234096" lon="1.1582547"><ele>0.0</ele><time>2026-04-29T22:31:12.976Z</time></trkpt><trkpt lat="39.7234914" lon="1.1583125"><ele>0.0</ele><time>2026-04-29T22:31:13.977Z</time></trkpt><trkpt lat="39.7235731" lon="1.1583651"><ele>0.0</ele><time>2026-04-29T22:31:14.977Z</time></trkpt><trkpt lat="39.723655" lon="1.1584168"><ele>0.0</ele><time>2026-04-29T22:31:15.977Z</time></trkpt><trkpt lat="39.723738" lon="1.1584687"><ele>0.0</ele><time>2026-04-29T22:31:16.977Z</time></trkpt><trkpt lat="39.7238223" lon="1.158523"><ele>0.0</ele><time>2026-04-29T22:31:17.976Z</time></trkpt><trkpt lat="39.7239057" lon="1.1585756"><ele>0.0</ele><time>2026-04-29T22:31:18.977Z</time></trkpt><trkpt lat="39.7239808" lon="1.158629"><ele>0.0</ele><time>2026-04-29T22:31:19.976Z</time></trkpt><trkpt lat="39.7240535" lon="1.1586852"><ele>0.0</ele><time>2026-04-29T22:31:20.977Z</time></trkpt><trkpt lat="39.7242103" lon="1.1587886"><ele>0.0</ele><time>2026-04-29T22:31:22.976Z</time></trkpt><trkpt lat="39.724279" lon="1.1588408"><ele>0.0</ele><time>2026-04-29T22:31:23.976Z</time></trkpt><trkpt lat="39.7243487" lon="1.1588953"><ele>0.0</ele><time>2026-04-29T22:31:24.977Z</time></trkpt><trkpt lat="39.7244218" lon="1.1589501"><ele>0.0</ele><time>2026-04-29T22:31:25.977Z</time></trkpt><trkpt lat="39.7244909" lon="1.159004"><ele>0.0</ele><time>2026-04-29T22:31:26.977Z</time></trkpt><trkpt lat="39.7245664" lon="1.159061"><ele>0.0</ele><time>2026-04-29T22:31:27.977Z</time></trkpt><trkpt lat="39.7246416" lon="1.1591241"><ele>0.0</ele><time>2026-04-29T22:31:28.976Z</time></trkpt><trkpt lat="39.7247168" lon="1.1591847"><ele>0.0</ele><time>2026-04-29T22:31:29.977Z</time></trkpt><trkpt lat="39.7247916" lon="1.1592474"><ele>0.0</ele><time>2026-04-29T22:31:30.977Z</time></trkpt><trkpt lat="39.7248754" lon="1.1593057"><ele>0.0</ele><time>2026-04-29T22:31:31.977Z</time></trkpt><trkpt lat="39.7249521" lon="1.1593615"><ele>0.0</ele><time>2026-04-29T22:31:32.976Z</time></trkpt><trkpt lat="39.7250285" lon="1.1594181"><ele>0.0</ele><time>2026-04-29T22:31:33.976Z</time></trkpt><trkpt lat="39.7251036" lon="1.1594716"><ele>0.0</ele><time>2026-04-29T22:31:34.976Z</time></trkpt><trkpt lat="39.725177" lon="1.1595282"><ele>0.0</ele><time>2026-04-29T22:31:35.976Z</time></trkpt><trkpt lat="39.7253328" lon="1.1596409"><ele>0.0</ele><time>2026-04-29T22:31:37.976Z</time></trkpt><trkpt lat="39.7254085" lon="1.1596934"><ele>0.0</ele><time>2026-04-29T22:31:38.976Z</time></trkpt><trkpt lat="39.7254834" lon="1.1597465"><ele>0.0</ele><time>2026-04-29T22:31:39.976Z</time></trkpt><trkpt lat="39.7255599" lon="1.1598016"><ele>0.0</ele><time>2026-04-29T22:31:40.976Z</time></trkpt><trkpt lat="39.7257184" lon="1.1599015"><ele>0.0</ele><time>2026-04-29T22:31:42.976Z</time></trkpt><trkpt lat="39.7257972" lon="1.1599484"><ele>0.0</ele><time>2026-04-29T22:31:43.976Z</time></trkpt><trkpt lat="39.7258753" lon="1.1600002"><ele>0.0</ele><time>2026-04-29T22:31:44.977Z</time></trkpt><trkpt lat="39.7259492" lon="1.1600507"><ele>0.0</ele><time>2026-04-29T22:31:45.977Z</time></trkpt><trkpt lat="39.7260209" lon="1.160102"><ele>0.0</ele><time>2026-04-29T22:31:46.977Z</time></trkpt><trkpt lat="39.7261007" lon="1.1601522"><ele>0.0</ele><time>2026-04-29T22:31:47.977Z</time></trkpt><trkpt lat="39.7261867" lon="1.1601997"><ele>0.0</ele><time>2026-04-29T22:31:48.977Z</time></trkpt><trkpt lat="39.7262606" lon="1.1602448"><ele>0.0</ele><time>2026-04-29T22:31:49.977Z</time></trkpt><trkpt lat="39.7263295" lon="1.1602939"><ele>0.0</ele><time>2026-04-29T22:31:50.977Z</time></trkpt><trkpt lat="39.7264006" lon="1.1603479"><ele>0.0</ele><time>2026-04-29T22:31:51.976Z</time></trkpt><trkpt lat="39.7264735" lon="1.1604062"><ele>0.0</ele><time>2026-04-29T22:31:52.976Z</time></trkpt><trkpt lat="39.7265456" lon="1.1604605"><ele>0.0</ele><time>2026-04-29T22:31:53.977Z</time></trkpt><trkpt lat="39.7266197" lon="1.1605113"><ele>0.0</ele><time>2026-04-29T22:31:54.977Z</time></trkpt><trkpt lat="39.7266991" lon="1.160565"><ele>0.0</ele><time>2026-04-29T22:31:55.976Z</time></trkpt><trkpt lat="39.726778" lon="1.1606173"><ele>0.0</ele><time>2026-04-29T22:31:56.977Z</time></trkpt><trkpt lat="39.7268565" lon="1.1606676"><ele>0.0</ele><time>2026-04-29T22:31:57.976Z</time></trkpt><trkpt lat="39.7269529" lon="1.1606737"><ele>0.0</ele><time>2026-04-29T22:31:58.977Z</time></trkpt><trkpt lat="39.72704" lon="1.1607126"><ele>0.0</ele><time>2026-04-29T22:31:59.977Z</time></trkpt><trkpt lat="39.7271185" lon="1.1607587"><ele>0.0</ele><time>2026-04-29T22:32:00.976Z</time></trkpt><trkpt lat="39.727195" lon="1.1608251"><ele>0.0</ele><time>2026-04-29T22:32:01.976Z</time></trkpt><trkpt lat="39.72735" lon="1.1609614"><ele>0.0</ele><time>2026-04-29T22:32:03.977Z</time></trkpt><trkpt lat="39.7274321" lon="1.1610224"><ele>0.0</ele><time>2026-04-29T22:32:04.977Z</time></trkpt><trkpt lat="39.7275115" lon="1.1610707"><ele>0.0</ele><time>2026-04-29T22:32:05.977Z</time></trkpt><trkpt lat="39.7275978" lon="1.1611284"><ele>0.0</ele><time>2026-04-29T22:32:06.977Z</time></trkpt><trkpt lat="39.7276806" lon="1.1611827"><ele>0.0</ele><time>2026-04-29T22:32:07.977Z</time></trkpt><trkpt lat="39.7278451" lon="1.1612929"><ele>0.0</ele><time>2026-04-29T22:32:09.977Z</time></trkpt><trkpt lat="39.7279246" lon="1.1613509"><ele>0.0</ele><time>2026-04-29T22:32:10.976Z</time></trkpt><trkpt lat="39.7280042" lon="1.1614124"><ele>0.0</ele><time>2026-04-29T22:32:11.977Z</time></trkpt><trkpt lat="39.7280859" lon="1.1614739"><ele>0.0</ele><time>2026-04-29T22:32:12.976Z</time></trkpt><trkpt lat="39.728169" lon="1.1615328"><ele>0.0</ele><time>2026-04-29T22:32:13.976Z</time></trkpt><trkpt lat="39.7282435" lon="1.1615868"><ele>0.0</ele><time>2026-04-29T22:32:14.977Z</time></trkpt><trkpt lat="39.7283179" lon="1.1616475"><ele>0.0</ele><time>2026-04-29T22:32:15.977Z</time></trkpt><trkpt lat="39.7283944" lon="1.1617077"><ele>0.0</ele><time>2026-04-29T22:32:16.977Z</time></trkpt><trkpt lat="39.7284671" lon="1.1617592"><ele>0.0</ele><time>2026-04-29T22:32:17.976Z</time></trkpt><trkpt lat="39.7285385" lon="1.161812"><ele>0.0</ele><time>2026-04-29T22:32:18.977Z</time></trkpt><trkpt lat="39.7286255" lon="1.1618541"><ele>0.0</ele><time>2026-04-29T22:32:19.976Z</time></trkpt><trkpt lat="39.7287103" lon="1.1619124"><ele>0.0</ele><time>2026-04-29T22:32:20.976Z</time></trkpt><trkpt lat="39.7287896" lon="1.1619792"><ele>0.0</ele><time>2026-04-29T22:32:21.976Z</time></trkpt><trkpt lat="39.728867" lon="1.1620349"><ele>0.0</ele><time>2026-04-29T22:32:22.976Z</time></trkpt><trkpt lat="39.7290153" lon="1.1621532"><ele>0.0</ele><time>2026-04-29T22:32:24.977Z</time></trkpt><trkpt lat="39.7290917" lon="1.1622116"><ele>0.0</ele><time>2026-04-29T22:32:25.977Z</time></trkpt><trkpt lat="39.729167" lon="1.1622713"><ele>0.0</ele><time>2026-04-29T22:32:26.977Z</time></trkpt><trkpt lat="39.7292432" lon="1.1623343"><ele>0.0</ele><time>2026-04-29T22:32:27.975Z</time></trkpt><trkpt lat="39.7293167" lon="1.1623949"><ele>0.0</ele><time>2026-04-29T22:32:28.975Z</time></trkpt><trkpt lat="39.7293913" lon="1.1624582"><ele>0.0</ele><time>2026-04-29T22:32:29.975Z</time></trkpt><trkpt lat="39.7294677" lon="1.1625033"><ele>0.0</ele><time>2026-04-29T22:32:30.976Z</time></trkpt><trkpt lat="39.7295415" lon="1.1625527"><ele>0.0</ele><time>2026-04-29T22:32:31.976Z</time></trkpt><trkpt lat="39.7296123" lon="1.1626024"><ele>0.0</ele><time>2026-04-29T22:32:32.975Z</time></trkpt><trkpt lat="39.7296869" lon="1.162649"><ele>0.0</ele><time>2026-04-29T22:32:33.976Z</time></trkpt><trkpt lat="39.729759" lon="1.1626999"><ele>0.0</ele><time>2026-04-29T22:32:34.975Z</time></trkpt><trkpt lat="39.7298309" lon="1.1627519"><ele>0.0</ele><time>2026-04-29T22:32:35.975Z</time></trkpt><trkpt lat="39.7299022" lon="1.162805"><ele>0.0</ele><time>2026-04-29T22:32:36.975Z</time></trkpt><trkpt lat="39.7299795" lon="1.162858"><ele>0.0</ele><time>2026-04-29T22:32:37.975Z</time></trkpt><trkpt lat="39.7300609" lon="1.162913"><ele>0.0</ele><time>2026-04-29T22:32:38.976Z</time></trkpt><trkpt lat="39.7301555" lon="1.162977"><ele>0.0</ele><time>2026-04-29T22:32:39.975Z</time></trkpt><trkpt lat="39.7303079" lon="1.1630726"><ele>0.0</ele><time>2026-04-29T22:32:41.976Z</time></trkpt><trkpt lat="39.7303804" lon="1.1631218"><ele>0.0</ele><time>2026-04-29T22:32:42.975Z</time></trkpt><trkpt lat="39.7304538" lon="1.1631735"><ele>0.0</ele><time>2026-04-29T22:32:43.976Z</time></trkpt><trkpt lat="39.7306163" lon="1.1632882"><ele>0.0</ele><time>2026-04-29T22:32:45.975Z</time></trkpt><trkpt lat="39.7306977" lon="1.163346"><ele>0.0</ele><time>2026-04-29T22:32:46.975Z</time></trkpt><trkpt lat="39.7307737" lon="1.1633986"><ele>0.0</ele><time>2026-04-29T22:32:47.975Z</time></trkpt><trkpt lat="39.7308445" lon="1.1634476"><ele>0.0</ele><time>2026-04-29T22:32:48.976Z</time></trkpt><trkpt lat="39.7309157" lon="1.1634988"><ele>0.0</ele><time>2026-04-29T22:32:49.976Z</time></trkpt><trkpt lat="39.7309854" lon="1.1635492"><ele>0.0</ele><time>2026-04-29T22:32:50.975Z</time></trkpt><trkpt lat="39.7310551" lon="1.1635985"><ele>0.0</ele><time>2026-04-29T22:32:51.975Z</time></trkpt><trkpt lat="39.7311328" lon="1.1636512"><ele>0.0</ele><time>2026-04-29T22:32:52.976Z</time></trkpt><trkpt lat="39.7312015" lon="1.1637077"><ele>0.0</ele><time>2026-04-29T22:32:53.976Z</time></trkpt><trkpt lat="39.7312755" lon="1.1637559"><ele>0.0</ele><time>2026-04-29T22:32:54.975Z</time></trkpt><trkpt lat="39.731352" lon="1.1638125"><ele>0.0</ele><time>2026-04-29T22:32:55.976Z</time></trkpt><trkpt lat="39.731434" lon="1.1638678"><ele>0.0</ele><time>2026-04-29T22:32:56.976Z</time></trkpt><trkpt lat="39.7315176" lon="1.1639247"><ele>0.0</ele><time>2026-04-29T22:32:57.976Z</time></trkpt><trkpt lat="39.7316034" lon="1.1639827"><ele>0.0</ele><time>2026-04-29T22:32:58.975Z</time></trkpt><trkpt lat="39.7316859" lon="1.1640413"><ele>0.0</ele><time>2026-04-29T22:32:59.976Z</time></trkpt><trkpt lat="39.731765" lon="1.1640934"><ele>0.0</ele><time>2026-04-29T22:33:00.975Z</time></trkpt><trkpt lat="39.7318405" lon="1.1641436"><ele>0.0</ele><time>2026-04-29T22:33:01.976Z</time></trkpt><trkpt lat="39.7319183" lon="1.1641951"><ele>0.0</ele><time>2026-04-29T22:33:02.975Z</time></trkpt><trkpt lat="39.7320021" lon="1.1642554"><ele>0.0</ele><time>2026-04-29T22:33:03.975Z</time></trkpt><trkpt lat="39.7320827" lon="1.1643116"><ele>0.0</ele><time>2026-04-29T22:33:04.976Z</time></trkpt><trkpt lat="39.7322529" lon="1.1644047"><ele>0.0</ele><time>2026-04-29T22:33:06.975Z</time></trkpt><trkpt lat="39.7323493" lon="1.1644519"><ele>0.0</ele><time>2026-04-29T22:33:07.975Z</time></trkpt><trkpt lat="39.73243" lon="1.1645019"><ele>0.0</ele><time>2026-04-29T22:33:08.975Z</time></trkpt><trkpt lat="39.7325003" lon="1.1645372"><ele>0.0</ele><time>2026-04-29T22:33:09.976Z</time></trkpt><trkpt lat="39.7325757" lon="1.1645808"><ele>0.0</ele><time>2026-04-29T22:33:10.976Z</time></trkpt><trkpt lat="39.7326508" lon="1.1646284"><ele>0.0</ele><time>2026-04-29T22:33:11.976Z</time></trkpt><trkpt lat="39.732799" lon="1.1647287"><ele>0.0</ele><time>2026-04-29T22:33:13.975Z</time></trkpt><trkpt lat="39.7328692" lon="1.1647816"><ele>0.0</ele><time>2026-04-29T22:33:14.976Z</time></trkpt><trkpt lat="39.7329404" lon="1.1648353"><ele>0.0</ele><time>2026-04-29T22:33:15.976Z</time></trkpt><trkpt lat="39.7330149" lon="1.1648929"><ele>0.0</ele><time>2026-04-29T22:33:16.976Z</time></trkpt><trkpt lat="39.7330901" lon="1.1649496"><ele>0.0</ele><time>2026-04-29T22:33:17.975Z</time></trkpt><trkpt lat="39.733168" lon="1.1650063"><ele>0.0</ele><time>2026-04-29T22:33:18.975Z</time></trkpt><trkpt lat="39.7332545" lon="1.165067"><ele>0.0</ele><time>2026-04-29T22:33:19.976Z</time></trkpt><trkpt lat="39.7333354" lon="1.1651277"><ele>0.0</ele><time>2026-04-29T22:33:20.975Z</time></trkpt><trkpt lat="39.733416" lon="1.1651865"><ele>0.0</ele><time>2026-04-29T22:33:21.975Z</time></trkpt><trkpt lat="39.7335006" lon="1.1652415"><ele>0.0</ele><time>2026-04-29T22:33:22.976Z</time></trkpt><trkpt lat="39.7335871" lon="1.1652991"><ele>0.0</ele><time>2026-04-29T22:33:23.976Z</time></trkpt><trkpt lat="39.7336819" lon="1.1653617"><ele>0.0</ele><time>2026-04-29T22:33:24.975Z</time></trkpt><trkpt lat="39.7337728" lon="1.1654222"><ele>0.0</ele><time>2026-04-29T22:33:25.975Z</time></trkpt><trkpt lat="39.7339257" lon="1.1655171"><ele>0.0</ele><time>2026-04-29T22:33:27.975Z</time></trkpt><trkpt lat="39.7339987" lon="1.1655674"><ele>0.0</ele><time>2026-04-29T22:33:28.976Z</time></trkpt><trkpt lat="39.7340764" lon="1.1656211"><ele>0.0</ele><time>2026-04-29T22:33:29.975Z</time></trkpt><trkpt lat="39.7341489" lon="1.165672"><ele>0.0</ele><time>2026-04-29T22:33:30.975Z</time></trkpt><trkpt lat="39.7342248" lon="1.1657254"><ele>0.0</ele><time>2026-04-29T22:33:31.975Z</time></trkpt><trkpt lat="39.7343027" lon="1.1657796"><ele>0.0</ele><time>2026-04-29T22:33:32.976Z</time></trkpt><trkpt lat="39.7343854" lon="1.1658359"><ele>0.0</ele><time>2026-04-29T22:33:33.976Z</time></trkpt><trkpt lat="39.7344646" lon="1.1658895"><ele>0.0</ele><time>2026-04-29T22:33:34.975Z</time></trkpt><trkpt lat="39.734546" lon="1.1659468"><ele>0.0</ele><time>2026-04-29T22:33:35.975Z</time></trkpt><trkpt lat="39.7346224" lon="1.1659993"><ele>0.0</ele><time>2026-04-29T22:33:36.975Z</time></trkpt><trkpt lat="39.7346958" lon="1.1660495"><ele>0.0</ele><time>2026-04-29T22:33:37.976Z</time></trkpt><trkpt lat="39.7347759" lon="1.1661066"><ele>0.0</ele><time>2026-04-29T22:33:38.975Z</time></trkpt><trkpt lat="39.7348746" lon="1.1661778"><ele>0.0</ele><time>2026-04-29T22:33:39.976Z</time></trkpt><trkpt lat="39.7349522" lon="1.1662255"><ele>0.0</ele><time>2026-04-29T22:33:40.976Z</time></trkpt><trkpt lat="39.7350248" lon="1.1662789"><ele>0.0</ele><time>2026-04-29T22:33:41.976Z</time></trkpt><trkpt lat="39.7351006" lon="1.166331"><ele>0.0</ele><time>2026-04-29T22:33:42.975Z</time></trkpt><trkpt lat="39.7351753" lon="1.1663827"><ele>0.0</ele><time>2026-04-29T22:33:43.975Z</time></trkpt><trkpt lat="39.7353225" lon="1.1664868"><ele>0.0</ele><time>2026-04-29T22:33:45.976Z</time></trkpt><trkpt lat="39.7353989" lon="1.1665411"><ele>0.0</ele><time>2026-04-29T22:33:46.976Z</time></trkpt><trkpt lat="39.7355492" lon="1.1666503"><ele>0.0</ele><time>2026-04-29T22:33:48.975Z</time></trkpt><trkpt lat="39.7356176" lon="1.1667036"><ele>0.0</ele><time>2026-04-29T22:33:49.975Z</time></trkpt><trkpt lat="39.7356916" lon="1.1667612"><ele>0.0</ele><time>2026-04-29T22:33:50.975Z</time></trkpt><trkpt lat="39.7357696" lon="1.1668193"><ele>0.0</ele><time>2026-04-29T22:33:51.975Z</time></trkpt><trkpt lat="39.7358481" lon="1.1668744"><ele>0.0</ele><time>2026-04-29T22:33:52.976Z</time></trkpt><trkpt lat="39.7359293" lon="1.1669294"><ele>0.0</ele><time>2026-04-29T22:33:53.976Z</time></trkpt><trkpt lat="39.7360096" lon="1.1669367"><ele>0.0</ele><time>2026-04-29T22:33:54.976Z</time></trkpt><trkpt lat="39.7360924" lon="1.1669354"><ele>0.0</ele><time>2026-04-29T22:33:55.975Z</time></trkpt><trkpt lat="39.7361686" lon="1.1669464"><ele>0.0</ele><time>2026-04-29T22:33:56.975Z</time></trkpt><trkpt lat="39.7362482" lon="1.1669586"><ele>0.0</ele><time>2026-04-29T22:33:57.976Z</time></trkpt><trkpt lat="39.7363271" lon="1.1669902"><ele>0.0</ele><time>2026-04-29T22:33:58.976Z</time></trkpt><trkpt lat="39.7364096" lon="1.167046"><ele>0.0</ele><time>2026-04-29T22:33:59.975Z</time></trkpt><trkpt lat="39.736481" lon="1.1671019"><ele>0.0</ele><time>2026-04-29T22:34:00.975Z</time></trkpt><trkpt lat="39.7365569" lon="1.1671516"><ele>0.0</ele><time>2026-04-29T22:34:01.976Z</time></trkpt><trkpt lat="39.7366343" lon="1.1672085"><ele>0.0</ele><time>2026-04-29T22:34:02.976Z</time></trkpt><trkpt lat="39.7367139" lon="1.1672701"><ele>0.0</ele><time>2026-04-29T22:34:03.976Z</time></trkpt><trkpt lat="39.7368011" lon="1.1673365"><ele>0.0</ele><time>2026-04-29T22:34:04.975Z</time></trkpt><trkpt lat="39.7368813" lon="1.1673964"><ele>0.0</ele><time>2026-04-29T22:34:05.976Z</time></trkpt><trkpt lat="39.7369541" lon="1.1674473"><ele>0.0</ele><time>2026-04-29T22:34:06.976Z</time></trkpt><trkpt lat="39.7370268" lon="1.1675034"><ele>0.0</ele><time>2026-04-29T22:34:07.976Z</time></trkpt><trkpt lat="39.7371739" lon="1.1676089"><ele>0.0</ele><time>2026-04-29T22:34:09.975Z</time></trkpt><trkpt lat="39.7372457" lon="1.1676559"><ele>0.0</ele><time>2026-04-29T22:34:10.976Z</time></trkpt><trkpt lat="39.7373246" lon="1.1677107"><ele>0.0</ele><time>2026-04-29T22:34:11.975Z</time></trkpt><trkpt lat="39.7374061" lon="1.167772"><ele>0.0</ele><time>2026-04-29T22:34:12.976Z</time></trkpt><trkpt lat="39.737483" lon="1.167834"><ele>0.0</ele><time>2026-04-29T22:34:13.975Z</time></trkpt><trkpt lat="39.7375641" lon="1.1678969"><ele>0.0</ele><time>2026-04-29T22:34:14.976Z</time></trkpt><trkpt lat="39.7376442" lon="1.1679605"><ele>0.0</ele><time>2026-04-29T22:34:15.975Z</time></trkpt><trkpt lat="39.7378093" lon="1.168084"><ele>0.0</ele><time>2026-04-29T22:34:17.976Z</time></trkpt><trkpt lat="39.7378913" lon="1.1681388"><ele>0.0</ele><time>2026-04-29T22:34:18.975Z</time></trkpt><trkpt lat="39.7379727" lon="1.1681922"><ele>0.0</ele><time>2026-04-29T22:34:19.975Z</time></trkpt><trkpt lat="39.7380527" lon="1.1682394"><ele>0.0</ele><time>2026-04-29T22:34:20.976Z</time></trkpt><trkpt lat="39.73813" lon="1.168295"><ele>0.0</ele><time>2026-04-29T22:34:21.975Z</time></trkpt><trkpt lat="39.7382082" lon="1.1683555"><ele>0.0</ele><time>2026-04-29T22:34:22.975Z</time></trkpt><trkpt lat="39.7382935" lon="1.1684228"><ele>0.0</ele><time>2026-04-29T22:34:23.975Z</time></trkpt><trkpt lat="39.7383748" lon="1.1684868"><ele>0.0</ele><time>2026-04-29T22:34:24.975Z</time></trkpt><trkpt lat="39.738452" lon="1.168549"><ele>0.0</ele><time>2026-04-29T22:34:25.975Z</time></trkpt><trkpt lat="39.7385324" lon="1.1686163"><ele>0.0</ele><time>2026-04-29T22:34:26.976Z</time></trkpt><trkpt lat="39.7386044" lon="1.1686719"><ele>0.0</ele><time>2026-04-29T22:34:27.975Z</time></trkpt><trkpt lat="39.7386773" lon="1.168727"><ele>0.0</ele><time>2026-04-29T22:34:28.975Z</time></trkpt><trkpt lat="39.7388381" lon="1.1688524"><ele>0.0</ele><time>2026-04-29T22:34:30.976Z</time></trkpt><trkpt lat="39.738908" lon="1.1689239"><ele>0.0</ele><time>2026-04-29T22:34:31.975Z</time></trkpt><trkpt lat="39.7389808" lon="1.1689915"><ele>0.0</ele><time>2026-04-29T22:34:32.975Z</time></trkpt><trkpt lat="39.7390612" lon="1.1690566"><ele>0.0</ele><time>2026-04-29T22:34:33.975Z</time></trkpt><trkpt lat="39.7391341" lon="1.1691135"><ele>0.0</ele><time>2026-04-29T22:34:34.975Z</time></trkpt><trkpt lat="39.7392114" lon="1.1691757"><ele>0.0</ele><time>2026-04-29T22:34:35.975Z</time></trkpt><trkpt lat="39.7392781" lon="1.1692334"><ele>0.0</ele><time>2026-04-29T22:34:36.975Z</time></trkpt><trkpt lat="39.7393473" lon="1.1692886"><ele>0.0</ele><time>2026-04-29T22:34:37.975Z</time></trkpt><trkpt lat="39.7394202" lon="1.1693449"><ele>0.0</ele><time>2026-04-29T22:34:38.975Z</time></trkpt><trkpt lat="39.7394967" lon="1.1694043"><ele>0.0</ele><time>2026-04-29T22:34:39.976Z</time></trkpt><trkpt lat="39.7395736" lon="1.1694632"><ele>0.0</ele><time>2026-04-29T22:34:40.976Z</time></trkpt><trkpt lat="39.739656" lon="1.1695242"><ele>0.0</ele><time>2026-04-29T22:34:41.975Z</time></trkpt><trkpt lat="39.7397334" lon="1.1695829"><ele>0.0</ele><time>2026-04-29T22:34:42.975Z</time></trkpt><trkpt lat="39.739806" lon="1.1696417"><ele>0.0</ele><time>2026-04-29T22:34:43.975Z</time></trkpt><trkpt lat="39.7398887" lon="1.169717"><ele>0.0</ele><time>2026-04-29T22:34:44.976Z</time></trkpt><trkpt lat="39.7399654" lon="1.1697822"><ele>0.0</ele><time>2026-04-29T22:34:45.975Z</time></trkpt><trkpt lat="39.740039" lon="1.1698542"><ele>0.0</ele><time>2026-04-29T22:34:46.975Z</time></trkpt><trkpt lat="39.7401082" lon="1.1699192"><ele>0.0</ele><time>2026-04-29T22:34:47.975Z</time></trkpt><trkpt lat="39.7402528" lon="1.1700245"><ele>0.0</ele><time>2026-04-29T22:34:49.976Z</time></trkpt><trkpt lat="39.7404034" lon="1.1700922"><ele>0.0</ele><time>2026-04-29T22:34:51.976Z</time></trkpt><trkpt lat="39.740482" lon="1.1701309"><ele>0.0</ele><time>2026-04-29T22:34:52.976Z</time></trkpt><trkpt lat="39.7405579" lon="1.1701923"><ele>0.0</ele><time>2026-04-29T22:34:53.975Z</time></trkpt><trkpt lat="39.7406346" lon="1.1702489"><ele>0.0</ele><time>2026-04-29T22:34:54.975Z</time></trkpt><trkpt lat="39.740713" lon="1.1702957"><ele>0.0</ele><time>2026-04-29T22:34:55.975Z</time></trkpt><trkpt lat="39.7407872" lon="1.1703562"><ele>0.0</ele><time>2026-04-29T22:34:56.975Z</time></trkpt><trkpt lat="39.7408763" lon="1.1703722"><ele>0.0</ele><time>2026-04-29T22:34:57.975Z</time></trkpt><trkpt lat="39.740952" lon="1.1704163"><ele>0.0</ele><time>2026-04-29T22:34:58.975Z</time></trkpt><trkpt lat="39.7410242" lon="1.1704711"><ele>0.0</ele><time>2026-04-29T22:34:59.975Z</time></trkpt><trkpt lat="39.7411003" lon="1.1705235"><ele>0.0</ele><time>2026-04-29T22:35:00.976Z</time></trkpt><trkpt lat="39.7411785" lon="1.170565"><ele>0.0</ele><time>2026-04-29T22:35:01.976Z</time></trkpt><trkpt lat="39.7412554" lon="1.1706154"><ele>0.0</ele><time>2026-04-29T22:35:02.976Z</time></trkpt><trkpt lat="39.7413305" lon="1.1706727"><ele>0.0</ele><time>2026-04-29T22:35:03.975Z</time></trkpt><trkpt lat="39.7414097" lon="1.1707224"><ele>0.0</ele><time>2026-04-29T22:35:04.976Z</time></trkpt><trkpt lat="39.7414827" lon="1.1707735"><ele>0.0</ele><time>2026-04-29T22:35:05.975Z</time></trkpt><trkpt lat="39.7415569" lon="1.1708257"><ele>0.0</ele><time>2026-04-29T22:35:06.976Z</time></trkpt><trkpt lat="39.7416289" lon="1.1708814"><ele>0.0</ele><time>2026-04-29T22:35:07.975Z</time></trkpt><trkpt lat="39.741705" lon="1.1709406"><ele>0.0</ele><time>2026-04-29T22:35:08.975Z</time></trkpt><trkpt lat="39.7417862" lon="1.1709907"><ele>0.0</ele><time>2026-04-29T22:35:09.976Z</time></trkpt><trkpt lat="39.7418664" lon="1.1710503"><ele>0.0</ele><time>2026-04-29T22:35:10.976Z</time></trkpt><trkpt lat="39.7420271" lon="1.1711676"><ele>0.0</ele><time>2026-04-29T22:35:12.975Z</time></trkpt><trkpt lat="39.742102" lon="1.171232"><ele>0.0</ele><time>2026-04-29T22:35:13.976Z</time></trkpt><trkpt lat="39.7421842" lon="1.1712872"><ele>0.0</ele><time>2026-04-29T22:35:14.976Z</time></trkpt><trkpt lat="39.7422662" lon="1.1713346"><ele>0.0</ele><time>2026-04-29T22:35:15.975Z</time></trkpt><trkpt lat="39.7423436" lon="1.1713811"><ele>0.0</ele><time>2026-04-29T22:35:16.976Z</time></trkpt><trkpt lat="39.7424204" lon="1.1714277"><ele>0.0</ele><time>2026-04-29T22:35:17.976Z</time></trkpt><trkpt lat="39.7424998" lon="1.1714739"><ele>0.0</ele><time>2026-04-29T22:35:18.976Z</time></trkpt><trkpt lat="39.7425768" lon="1.1715208"><ele>0.0</ele><time>2026-04-29T22:35:19.975Z</time></trkpt><trkpt lat="39.7427301" lon="1.1716323"><ele>0.0</ele><time>2026-04-29T22:35:21.975Z</time></trkpt><trkpt lat="39.7428022" lon="1.1716948"><ele>0.0</ele><time>2026-04-29T22:35:22.975Z</time></trkpt><trkpt lat="39.7428708" lon="1.1717541"><ele>0.0</ele><time>2026-04-29T22:35:23.975Z</time></trkpt><trkpt lat="39.742949" lon="1.1717852"><ele>0.0</ele><time>2026-04-29T22:35:24.976Z</time></trkpt><trkpt lat="39.7430249" lon="1.171835"><ele>0.0</ele><time>2026-04-29T22:35:25.976Z</time></trkpt><trkpt lat="39.7431028" lon="1.1718907"><ele>0.0</ele><time>2026-04-29T22:35:26.975Z</time></trkpt><trkpt lat="39.7431757" lon="1.1719112"><ele>0.0</ele><time>2026-04-29T22:35:27.975Z</time></trkpt><trkpt lat="39.7432613" lon="1.1719462"><ele>0.0</ele><time>2026-04-29T22:35:28.975Z</time></trkpt><trkpt lat="39.7433414" lon="1.1719927"><ele>0.0</ele><time>2026-04-29T22:35:29.976Z</time></trkpt><trkpt lat="39.7434182" lon="1.1720447"><ele>0.0</ele><time>2026-04-29T22:35:30.975Z</time></trkpt><trkpt lat="39.7434995" lon="1.1720819"><ele>0.0</ele><time>2026-04-29T22:35:31.976Z</time></trkpt><trkpt lat="39.7436413" lon="1.1721825"><ele>0.0</ele><time>2026-04-29T22:35:33.975Z</time></trkpt><trkpt lat="39.7437211" lon="1.1722214"><ele>0.0</ele><time>2026-04-29T22:35:34.975Z</time></trkpt><trkpt lat="39.7437956" lon="1.1722726"><ele>0.0</ele><time>2026-04-29T22:35:35.976Z</time></trkpt><trkpt lat="39.7438718" lon="1.1723453"><ele>0.0</ele><time>2026-04-29T22:35:36.975Z</time></trkpt><trkpt lat="39.7439514" lon="1.1724041"><ele>0.0</ele><time>2026-04-29T22:35:37.975Z</time></trkpt><trkpt lat="39.7440154" lon="1.1724739"><ele>0.0</ele><time>2026-04-29T22:35:38.975Z</time></trkpt><trkpt lat="39.7440853" lon="1.172548"><ele>0.0</ele><time>2026-04-29T22:35:39.976Z</time></trkpt><trkpt lat="39.7441569" lon="1.1726177"><ele>0.0</ele><time>2026-04-29T22:35:40.976Z</time></trkpt><trkpt lat="39.7442317" lon="1.17269"><ele>0.0</ele><time>2026-04-29T22:35:41.975Z</time></trkpt><trkpt lat="39.7443148" lon="1.172759"><ele>0.0</ele><time>2026-04-29T22:35:42.975Z</time></trkpt><trkpt lat="39.7444041" lon="1.1728161"><ele>0.0</ele><time>2026-04-29T22:35:43.976Z</time></trkpt><trkpt lat="39.7444902" lon="1.1728672"><ele>0.0</ele><time>2026-04-29T22:35:44.975Z</time></trkpt><trkpt lat="39.7445864" lon="1.1729513"><ele>0.0</ele><time>2026-04-29T22:35:45.976Z</time></trkpt><trkpt lat="39.744679" lon="1.1730304"><ele>0.0</ele><time>2026-04-29T22:35:46.976Z</time></trkpt><trkpt lat="39.7447624" lon="1.1730807"><ele>0.0</ele><time>2026-04-29T22:35:47.975Z</time></trkpt><trkpt lat="39.7448341" lon="1.1731436"><ele>0.0</ele><time>2026-04-29T22:35:48.976Z</time></trkpt><trkpt lat="39.7449098" lon="1.1732038"><ele>0.0</ele><time>2026-04-29T22:35:49.975Z</time></trkpt><trkpt lat="39.7449852" lon="1.1732824"><ele>0.0</ele><time>2026-04-29T22:35:50.976Z</time></trkpt><trkpt lat="39.7450601" lon="1.1733553"><ele>0.0</ele><time>2026-04-29T22:35:51.976Z</time></trkpt><trkpt lat="39.7451268" lon="1.1734211"><ele>0.0</ele><time>2026-04-29T22:35:52.976Z</time></trkpt><trkpt lat="39.7452798" lon="1.1735172"><ele>0.0</ele><time>2026-04-29T22:35:54.976Z</time></trkpt><trkpt lat="39.7453616" lon="1.1735589"><ele>0.0</ele><time>2026-04-29T22:35:55.975Z</time></trkpt><trkpt lat="39.7454447" lon="1.1736101"><ele>0.0</ele><time>2026-04-29T22:35:56.976Z</time></trkpt><trkpt lat="39.7455195" lon="1.1736576"><ele>0.0</ele><time>2026-04-29T22:35:57.975Z</time></trkpt><trkpt lat="39.7455913" lon="1.1737061"><ele>0.0</ele><time>2026-04-29T22:35:58.976Z</time></trkpt><trkpt lat="39.7456639" lon="1.1737488"><ele>0.0</ele><time>2026-04-29T22:35:59.975Z</time></trkpt><trkpt lat="39.7457398" lon="1.1737876"><ele>0.0</ele><time>2026-04-29T22:36:00.975Z</time></trkpt><trkpt lat="39.7458138" lon="1.1738356"><ele>0.0</ele><time>2026-04-29T22:36:01.976Z</time></trkpt><trkpt lat="39.7458874" lon="1.173887"><ele>0.0</ele><time>2026-04-29T22:36:02.975Z</time></trkpt><trkpt lat="39.745962" lon="1.1739414"><ele>0.0</ele><time>2026-04-29T22:36:03.976Z</time></trkpt><trkpt lat="39.7460351" lon="1.173998"><ele>0.0</ele><time>2026-04-29T22:36:04.975Z</time></trkpt><trkpt lat="39.7461212" lon="1.1740517"><ele>0.0</ele><time>2026-04-29T22:36:05.976Z</time></trkpt><trkpt lat="39.746207" lon="1.1741154"><ele>0.0</ele><time>2026-04-29T22:36:06.975Z</time></trkpt><trkpt lat="39.7462908" lon="1.1741806"><ele>0.0</ele><time>2026-04-29T22:36:07.975Z</time></trkpt><trkpt lat="39.7463685" lon="1.1742368"><ele>0.0</ele><time>2026-04-29T22:36:08.975Z</time></trkpt><trkpt lat="39.7464606" lon="1.1743058"><ele>0.0</ele><time>2026-04-29T22:36:09.975Z</time></trkpt><trkpt lat="39.7465386" lon="1.1743559"><ele>0.0</ele><time>2026-04-29T22:36:10.975Z</time></trkpt><trkpt lat="39.7466185" lon="1.1744036"><ele>0.0</ele><time>2026-04-29T22:36:11.976Z</time></trkpt><trkpt lat="39.7466956" lon="1.1744535"><ele>0.0</ele><time>2026-04-29T22:36:12.976Z</time></trkpt><trkpt lat="39.7467666" lon="1.1744995"><ele>0.0</ele><time>2026-04-29T22:36:13.976Z</time></trkpt><trkpt lat="39.7469313" lon="1.1745969"><ele>0.0</ele><time>2026-04-29T22:36:15.976Z</time></trkpt><trkpt lat="39.7470076" lon="1.1746441"><ele>0.0</ele><time>2026-04-29T22:36:16.975Z</time></trkpt><trkpt lat="39.7470852" lon="1.1746934"><ele>0.0</ele><time>2026-04-29T22:36:17.976Z</time></trkpt><trkpt lat="39.7471578" lon="1.1747406"><ele>0.0</ele><time>2026-04-29T22:36:18.976Z</time></trkpt><trkpt lat="39.7472319" lon="1.1747932"><ele>0.0</ele><time>2026-04-29T22:36:19.975Z</time></trkpt><trkpt lat="39.7473067" lon="1.1748481"><ele>0.0</ele><time>2026-04-29T22:36:20.975Z</time></trkpt><trkpt lat="39.7473814" lon="1.1749033"><ele>0.0</ele><time>2026-04-29T22:36:21.976Z</time></trkpt><trkpt lat="39.7474567" lon="1.1749582"><ele>0.0</ele><time>2026-04-29T22:36:22.976Z</time></trkpt><trkpt lat="39.7475319" lon="1.175013"><ele>0.0</ele><time>2026-04-29T22:36:23.976Z</time></trkpt><trkpt lat="39.7476989" lon="1.175134"><ele>0.0</ele><time>2026-04-29T22:36:25.975Z</time></trkpt><trkpt lat="39.7477797" lon="1.1751926"><ele>0.0</ele><time>2026-04-29T22:36:26.976Z</time></trkpt><trkpt lat="39.7478597" lon="1.1752512"><ele>0.0</ele><time>2026-04-29T22:36:27.976Z</time></trkpt><trkpt lat="39.7479396" lon="1.1753064"><ele>0.0</ele><time>2026-04-29T22:36:28.975Z</time></trkpt><trkpt lat="39.748017" lon="1.1753584"><ele>0.0</ele><time>2026-04-29T22:36:29.975Z</time></trkpt><trkpt lat="39.7480904" lon="1.1754175"><ele>0.0</ele><time>2026-04-29T22:36:30.975Z</time></trkpt><trkpt lat="39.7481566" lon="1.1754709"><ele>0.0</ele><time>2026-04-29T22:36:31.976Z</time></trkpt><trkpt lat="39.7482287" lon="1.1755239"><ele>0.0</ele><time>2026-04-29T22:36:32.975Z</time></trkpt><trkpt lat="39.7482976" lon="1.1755774"><ele>0.0</ele><time>2026-04-29T22:36:33.975Z</time></trkpt><trkpt lat="39.7483698" lon="1.1756347"><ele>0.0</ele><time>2026-04-29T22:36:34.976Z</time></trkpt><trkpt lat="39.748517" lon="1.1757449"><ele>0.0</ele><time>2026-04-29T22:36:36.974Z</time></trkpt><trkpt lat="39.7485946" lon="1.1758045"><ele>0.0</ele><time>2026-04-29T22:36:37.974Z</time></trkpt><trkpt lat="39.7486726" lon="1.1758646"><ele>0.0</ele><time>2026-04-29T22:36:38.975Z</time></trkpt><trkpt lat="39.7487527" lon="1.1759228"><ele>0.0</ele><time>2026-04-29T22:36:39.975Z</time></trkpt><trkpt lat="39.74883" lon="1.1759752"><ele>0.0</ele><time>2026-04-29T22:36:40.974Z</time></trkpt><trkpt lat="39.7489043" lon="1.1760283"><ele>0.0</ele><time>2026-04-29T22:36:41.974Z</time></trkpt><trkpt lat="39.7489775" lon="1.1760803"><ele>0.0</ele><time>2026-04-29T22:36:42.974Z</time></trkpt><trkpt lat="39.7490593" lon="1.1761363"><ele>0.0</ele><time>2026-04-29T22:36:43.974Z</time></trkpt><trkpt lat="39.7491398" lon="1.176193"><ele>0.0</ele><time>2026-04-29T22:36:44.975Z</time></trkpt><trkpt lat="39.7492243" lon="1.1762509"><ele>0.0</ele><time>2026-04-29T22:36:45.974Z</time></trkpt><trkpt lat="39.7493035" lon="1.1763052"><ele>0.0</ele><time>2026-04-29T22:36:46.974Z</time></trkpt><trkpt lat="39.749382" lon="1.1763583"><ele>0.0</ele><time>2026-04-29T22:36:47.975Z</time></trkpt><trkpt lat="39.7494645" lon="1.1764084"><ele>0.0</ele><time>2026-04-29T22:36:48.974Z</time></trkpt><trkpt lat="39.7495493" lon="1.1764656"><ele>0.0</ele><time>2026-04-29T22:36:49.975Z</time></trkpt><trkpt lat="39.7496273" lon="1.1765227"><ele>0.0</ele><time>2026-04-29T22:36:50.974Z</time></trkpt><trkpt lat="39.7497009" lon="1.1765753"><ele>0.0</ele><time>2026-04-29T22:36:51.974Z</time></trkpt><trkpt lat="39.7497824" lon="1.1766325"><ele>0.0</ele><time>2026-04-29T22:36:52.975Z</time></trkpt><trkpt lat="39.7498616" lon="1.1766881"><ele>0.0</ele><time>2026-04-29T22:36:53.975Z</time></trkpt><trkpt lat="39.7499444" lon="1.1767444"><ele>0.0</ele><time>2026-04-29T22:36:54.975Z</time></trkpt><trkpt lat="39.7500306" lon="1.1768035"><ele>0.0</ele><time>2026-04-29T22:36:55.974Z</time></trkpt><trkpt lat="39.7501088" lon="1.1768584"><ele>0.0</ele><time>2026-04-29T22:36:56.975Z</time></trkpt><trkpt lat="39.7502648" lon="1.1769664"><ele>0.0</ele><time>2026-04-29T22:36:58.974Z</time></trkpt><trkpt lat="39.7503476" lon="1.1770226"><ele>0.0</ele><time>2026-04-29T22:36:59.975Z</time></trkpt><trkpt lat="39.7504268" lon="1.1770747"><ele>0.0</ele><time>2026-04-29T22:37:00.974Z</time></trkpt><trkpt lat="39.7505051" lon="1.1771249"><ele>0.0</ele><time>2026-04-29T22:37:01.975Z</time></trkpt><trkpt lat="39.7505808" lon="1.1771751"><ele>0.0</ele><time>2026-04-29T22:37:02.974Z</time></trkpt><trkpt lat="39.7506567" lon="1.1772265"><ele>0.0</ele><time>2026-04-29T22:37:03.974Z</time></trkpt><trkpt lat="39.7507366" lon="1.1772781"><ele>0.0</ele><time>2026-04-29T22:37:04.975Z</time></trkpt><trkpt lat="39.7508264" lon="1.1773357"><ele>0.0</ele><time>2026-04-29T22:37:05.974Z</time></trkpt><trkpt lat="39.7509064" lon="1.1773914"><ele>0.0</ele><time>2026-04-29T22:37:06.974Z</time></trkpt><trkpt lat="39.7509806" lon="1.1774432"><ele>0.0</ele><time>2026-04-29T22:37:07.974Z</time></trkpt><trkpt lat="39.7510583" lon="1.1774946"><ele>0.0</ele><time>2026-04-29T22:37:08.974Z</time></trkpt><trkpt lat="39.751138" lon="1.1775476"><ele>0.0</ele><time>2026-04-29T22:37:09.974Z</time></trkpt><trkpt lat="39.751218" lon="1.1776007"><ele>0.0</ele><time>2026-04-29T22:37:10.975Z</time></trkpt><trkpt lat="39.7512981" lon="1.1776529"><ele>0.0</ele><time>2026-04-29T22:37:11.974Z</time></trkpt><trkpt lat="39.7513813" lon="1.1777045"><ele>0.0</ele><time>2026-04-29T22:37:12.974Z</time></trkpt><trkpt lat="39.7514662" lon="1.1777591"><ele>0.0</ele><time>2026-04-29T22:37:13.974Z</time></trkpt><trkpt lat="39.7515514" lon="1.177816"><ele>0.0</ele><time>2026-04-29T22:37:14.974Z</time></trkpt><trkpt lat="39.7516337" lon="1.1778714"><ele>0.0</ele><time>2026-04-29T22:37:15.974Z</time></trkpt><trkpt lat="39.7517126" lon="1.1779253"><ele>0.0</ele><time>2026-04-29T22:37:16.975Z</time></trkpt><trkpt lat="39.7517935" lon="1.1779781"><ele>0.0</ele><time>2026-04-29T22:37:17.974Z</time></trkpt><trkpt lat="39.7519471" lon="1.1780749"><ele>0.0</ele><time>2026-04-29T22:37:19.975Z</time></trkpt><trkpt lat="39.752025" lon="1.1781277"><ele>0.0</ele><time>2026-04-29T22:37:20.974Z</time></trkpt><trkpt lat="39.7521021" lon="1.1781831"><ele>0.0</ele><time>2026-04-29T22:37:21.974Z</time></trkpt><trkpt lat="39.7521845" lon="1.1782324"><ele>0.0</ele><time>2026-04-29T22:37:22.974Z</time></trkpt><trkpt lat="39.752262" lon="1.1782829"><ele>0.0</ele><time>2026-04-29T22:37:23.975Z</time></trkpt><trkpt lat="39.7523273" lon="1.1783275"><ele>0.0</ele><time>2026-04-29T22:37:24.975Z</time></trkpt><trkpt lat="39.7524038" lon="1.1783805"><ele>0.0</ele><time>2026-04-29T22:37:25.974Z</time></trkpt><trkpt lat="39.7524791" lon="1.1784326"><ele>0.0</ele><time>2026-04-29T22:37:26.974Z</time></trkpt><trkpt lat="39.752553" lon="1.1784803"><ele>0.0</ele><time>2026-04-29T22:37:27.975Z</time></trkpt><trkpt lat="39.7526221" lon="1.1785423"><ele>0.0</ele><time>2026-04-29T22:37:28.975Z</time></trkpt><trkpt lat="39.7526994" lon="1.1785926"><ele>0.0</ele><time>2026-04-29T22:37:29.975Z</time></trkpt><trkpt lat="39.7527773" lon="1.1786428"><ele>0.0</ele><time>2026-04-29T22:37:30.974Z</time></trkpt><trkpt lat="39.7528784" lon="1.1787778"><ele>0.0</ele><time>2026-04-29T22:37:32.974Z</time></trkpt><trkpt lat="39.7529322" lon="1.1788543"><ele>0.0</ele><time>2026-04-29T22:37:33.974Z</time></trkpt><trkpt lat="39.752994" lon="1.1789196"><ele>0.0</ele><time>2026-04-29T22:37:34.974Z</time></trkpt><trkpt lat="39.7530737" lon="1.1789745"><ele>0.0</ele><time>2026-04-29T22:37:35.974Z</time></trkpt><trkpt lat="39.7531581" lon="1.1790285"><ele>0.0</ele><time>2026-04-29T22:37:36.975Z</time></trkpt><trkpt lat="39.7532218" lon="1.1790989"><ele>0.0</ele><time>2026-04-29T22:37:37.975Z</time></trkpt><trkpt lat="39.7532946" lon="1.1791701"><ele>0.0</ele><time>2026-04-29T22:37:38.974Z</time></trkpt><trkpt lat="39.7534469" lon="1.1792728"><ele>0.0</ele><time>2026-04-29T22:37:40.975Z</time></trkpt><trkpt lat="39.7535202" lon="1.179327"><ele>0.0</ele><time>2026-04-29T22:37:41.974Z</time></trkpt><trkpt lat="39.7535949" lon="1.179379"><ele>0.0</ele><time>2026-04-29T22:37:42.974Z</time></trkpt><trkpt lat="39.7536668" lon="1.1794302"><ele>0.0</ele><time>2026-04-29T22:37:43.974Z</time></trkpt><trkpt lat="39.7537356" lon="1.1794764"><ele>0.0</ele><time>2026-04-29T22:37:44.975Z</time></trkpt><trkpt lat="39.7538126" lon="1.1795296"><ele>0.0</ele><time>2026-04-29T22:37:45.974Z</time></trkpt><trkpt lat="39.7538882" lon="1.1795817"><ele>0.0</ele><time>2026-04-29T22:37:46.974Z</time></trkpt><trkpt lat="39.7539661" lon="1.1796322"><ele>0.0</ele><time>2026-04-29T22:37:47.975Z</time></trkpt><trkpt lat="39.7540429" lon="1.1796806"><ele>0.0</ele><time>2026-04-29T22:37:48.975Z</time></trkpt><trkpt lat="39.7541167" lon="1.1797275"><ele>0.0</ele><time>2026-04-29T22:37:49.974Z</time></trkpt><trkpt lat="39.7541975" lon="1.1797727"><ele>0.0</ele><time>2026-04-29T22:37:50.975Z</time></trkpt><trkpt lat="39.7542833" lon="1.1798163"><ele>0.0</ele><time>2026-04-29T22:37:51.974Z</time></trkpt><trkpt lat="39.7543713" lon="1.1798667"><ele>0.0</ele><time>2026-04-29T22:37:52.975Z</time></trkpt><trkpt lat="39.7544581" lon="1.1798972"><ele>0.0</ele><time>2026-04-29T22:37:53.974Z</time></trkpt><trkpt lat="39.7545378" lon="1.179948"><ele>0.0</ele><time>2026-04-29T22:37:54.975Z</time></trkpt><trkpt lat="39.7546107" lon="1.1800043"><ele>0.0</ele><time>2026-04-29T22:37:55.975Z</time></trkpt><trkpt lat="39.7546923" lon="1.1800507"><ele>0.0</ele><time>2026-04-29T22:37:56.974Z</time></trkpt><trkpt lat="39.7547716" lon="1.1800934"><ele>0.0</ele><time>2026-04-29T22:37:57.975Z</time></trkpt><trkpt lat="39.7548612" lon="1.1801189"><ele>0.0</ele><time>2026-04-29T22:37:58.975Z</time></trkpt><trkpt lat="39.7549544" lon="1.1801566"><ele>0.0</ele><time>2026-04-29T22:37:59.975Z</time></trkpt><trkpt lat="39.7551999" lon="1.1803389"><ele>0.0</ele><time>2026-04-29T22:38:02.974Z</time></trkpt><trkpt lat="39.7552887" lon="1.1803872"><ele>0.0</ele><time>2026-04-29T22:38:03.975Z</time></trkpt><trkpt lat="39.7553685" lon="1.1804413"><ele>0.0</ele><time>2026-04-29T22:38:04.974Z</time></trkpt><trkpt lat="39.7554496" lon="1.1804923"><ele>0.0</ele><time>2026-04-29T22:38:05.975Z</time></trkpt><trkpt lat="39.7555269" lon="1.1805467"><ele>0.0</ele><time>2026-04-29T22:38:06.975Z</time></trkpt><trkpt lat="39.7556053" lon="1.1806011"><ele>0.0</ele><time>2026-04-29T22:38:07.974Z</time></trkpt><trkpt lat="39.7556807" lon="1.1806502"><ele>0.0</ele><time>2026-04-29T22:38:08.975Z</time></trkpt><trkpt lat="39.7557545" lon="1.1806942"><ele>0.0</ele><time>2026-04-29T22:38:09.975Z</time></trkpt><trkpt lat="39.7558795" lon="1.1807915"><ele>0.0</ele><time>2026-04-29T22:38:13.151Z</time></trkpt><trkpt lat="39.7560368" lon="1.1808626"><ele>0.0</ele><time>2026-04-29T22:38:14.157Z</time></trkpt><trkpt lat="39.7561313" lon="1.1809229"><ele>0.0</ele><time>2026-04-29T22:38:15.162Z</time></trkpt><trkpt lat="39.7562107" lon="1.1809847"><ele>0.0</ele><time>2026-04-29T22:38:16.068Z</time></trkpt><trkpt lat="39.7562945" lon="1.1810385"><ele>0.0</ele><time>2026-04-29T22:38:17.074Z</time></trkpt><trkpt lat="39.7563796" lon="1.1810922"><ele>0.0</ele><time>2026-04-29T22:38:18.08Z</time></trkpt><trkpt lat="39.7564988" lon="1.1812248"><ele>0.0</ele><time>2026-04-29T22:38:21.096Z</time></trkpt><trkpt lat="39.756725" lon="1.181341"><ele>0.0</ele><time>2026-04-29T22:38:23.108Z</time></trkpt><trkpt lat="39.7568129" lon="1.1814077"><ele>0.0</ele><time>2026-04-29T22:38:24.114Z</time></trkpt><trkpt lat="39.7568849" lon="1.1814992"><ele>0.0</ele><time>2026-04-29T22:38:25.119Z</time></trkpt><trkpt lat="39.7569564" lon="1.1815857"><ele>0.0</ele><time>2026-04-29T22:38:26.125Z</time></trkpt><trkpt lat="39.7570241" lon="1.1816765"><ele>0.0</ele><time>2026-04-29T22:38:27.132Z</time></trkpt><trkpt lat="39.7570981" lon="1.1817564"><ele>0.0</ele><time>2026-04-29T22:38:28.137Z</time></trkpt><trkpt lat="39.757163" lon="1.1818514"><ele>0.0</ele><time>2026-04-29T22:38:29.143Z</time></trkpt><trkpt lat="39.7572294" lon="1.1819431"><ele>0.0</ele><time>2026-04-29T22:38:30.148Z</time></trkpt><trkpt lat="39.7573351" lon="1.1820287"><ele>0.0</ele><time>2026-04-29T22:38:32.16Z</time></trkpt><trkpt lat="39.757428" lon="1.1821099"><ele>0.0</ele><time>2026-04-29T22:38:33.066Z</time></trkpt><trkpt lat="39.7575173" lon="1.1821661"><ele>0.0</ele><time>2026-04-29T22:38:34.071Z</time></trkpt><trkpt lat="39.7576046" lon="1.1822272"><ele>0.0</ele><time>2026-04-29T22:38:35.077Z</time></trkpt><trkpt lat="39.7576945" lon="1.1822791"><ele>0.0</ele><time>2026-04-29T22:38:36.083Z</time></trkpt><trkpt lat="39.7577855" lon="1.1823299"><ele>0.0</ele><time>2026-04-29T22:38:37.088Z</time></trkpt><trkpt lat="39.757818" lon="1.1824187"><ele>0.0</ele><time>2026-04-29T22:38:39.101Z</time></trkpt><trkpt lat="39.7579257" lon="1.1824966"><ele>0.0</ele><time>2026-04-29T22:38:40.106Z</time></trkpt><trkpt lat="39.7580547" lon="1.1825225"><ele>0.0</ele><time>2026-04-29T22:38:41.111Z</time></trkpt><trkpt lat="39.7581467" lon="1.1825761"><ele>0.0</ele><time>2026-04-29T22:38:42.118Z</time></trkpt><trkpt lat="39.7583269" lon="1.1826855"><ele>0.0</ele><time>2026-04-29T22:38:44.129Z</time></trkpt><trkpt lat="39.7584483" lon="1.1827354"><ele>0.0</ele><time>2026-04-29T22:38:46.141Z</time></trkpt><trkpt lat="39.7585446" lon="1.1828225"><ele>0.0</ele><time>2026-04-29T22:38:47.146Z</time></trkpt><trkpt lat="39.7586428" lon="1.1828583"><ele>0.0</ele><time>2026-04-29T22:38:48.152Z</time></trkpt><trkpt lat="39.7587315" lon="1.1829136"><ele>0.0</ele><time>2026-04-29T22:38:49.158Z</time></trkpt><trkpt lat="39.7588183" lon="1.1829747"><ele>0.0</ele><time>2026-04-29T22:38:50.163Z</time></trkpt><trkpt lat="39.7589008" lon="1.1830306"><ele>0.0</ele><time>2026-04-29T22:38:51.068Z</time></trkpt><trkpt lat="39.7589558" lon="1.1830892"><ele>0.0</ele><time>2026-04-29T22:38:51.975Z</time></trkpt><trkpt lat="39.7591066" lon="1.1832199"><ele>0.0</ele><time>2026-04-29T22:38:54.087Z</time></trkpt><trkpt lat="39.759203" lon="1.1832808"><ele>0.0</ele><time>2026-04-29T22:38:55.092Z</time></trkpt><trkpt lat="39.7593323" lon="1.1833478"><ele>0.0</ele><time>2026-04-29T22:38:57.104Z</time></trkpt><trkpt lat="39.759448" lon="1.1834041"><ele>0.0</ele><time>2026-04-29T22:38:58.109Z</time></trkpt><trkpt lat="39.7595416" lon="1.183456"><ele>0.0</ele><time>2026-04-29T22:38:59.115Z</time></trkpt><trkpt lat="39.759619" lon="1.1835191"><ele>0.0</ele><time>2026-04-29T22:39:00.12Z</time></trkpt><trkpt lat="39.7596983" lon="1.1835723"><ele>0.0</ele><time>2026-04-29T22:39:01.127Z</time></trkpt><trkpt lat="39.7598115" lon="1.1836296"><ele>0.0</ele><time>2026-04-29T22:39:03.137Z</time></trkpt><trkpt lat="39.7600165" lon="1.1837368"><ele>0.0</ele><time>2026-04-29T22:39:05.149Z</time></trkpt><trkpt lat="39.7601915" lon="1.1838251"><ele>0.0</ele><time>2026-04-29T22:39:07.161Z</time></trkpt><trkpt lat="39.7602696" lon="1.1838931"><ele>0.0</ele><time>2026-04-29T22:39:08.167Z</time></trkpt><trkpt lat="39.7603433" lon="1.1839462"><ele>0.0</ele><time>2026-04-29T22:39:09.072Z</time></trkpt><trkpt lat="39.760433" lon="1.1839832"><ele>0.0</ele><time>2026-04-29T22:39:10.077Z</time></trkpt><trkpt lat="39.7605462" lon="1.1840656"><ele>0.0</ele><time>2026-04-29T22:39:12.09Z</time></trkpt><trkpt lat="39.760647" lon="1.1841322"><ele>0.0</ele><time>2026-04-29T22:39:13.095Z</time></trkpt><trkpt lat="39.7607375" lon="1.1841858"><ele>0.0</ele><time>2026-04-29T22:39:14.1Z</time></trkpt><trkpt lat="39.7608481" lon="1.1842843"><ele>0.0</ele><time>2026-04-29T22:39:16.113Z</time></trkpt><trkpt lat="39.7610306" lon="1.1844136"><ele>0.0</ele><time>2026-04-29T22:39:17.974Z</time></trkpt><trkpt lat="39.7611142" lon="1.184474"><ele>0.0</ele><time>2026-04-29T22:39:18.974Z</time></trkpt><trkpt lat="39.761192" lon="1.1845284"><ele>0.0</ele><time>2026-04-29T22:39:19.975Z</time></trkpt><trkpt lat="39.7612744" lon="1.1845841"><ele>0.0</ele><time>2026-04-29T22:39:20.974Z</time></trkpt><trkpt lat="39.7613508" lon="1.1846354"><ele>0.0</ele><time>2026-04-29T22:39:21.974Z</time></trkpt><trkpt lat="39.761426" lon="1.1846913"><ele>0.0</ele><time>2026-04-29T22:39:22.975Z</time></trkpt><trkpt lat="39.7615725" lon="1.1848044"><ele>0.0</ele><time>2026-04-29T22:39:24.974Z</time></trkpt><trkpt lat="39.7616412" lon="1.1848616"><ele>0.0</ele><time>2026-04-29T22:39:25.974Z</time></trkpt><trkpt lat="39.7617095" lon="1.1849158"><ele>0.0</ele><time>2026-04-29T22:39:26.975Z</time></trkpt><trkpt lat="39.7617792" lon="1.1849672"><ele>0.0</ele><time>2026-04-29T22:39:27.974Z</time></trkpt><trkpt lat="39.7618536" lon="1.1850154"><ele>0.0</ele><time>2026-04-29T22:39:28.974Z</time></trkpt><trkpt lat="39.7619243" lon="1.1850627"><ele>0.0</ele><time>2026-04-29T22:39:29.975Z</time></trkpt><trkpt lat="39.7619974" lon="1.1851163"><ele>0.0</ele><time>2026-04-29T22:39:30.974Z</time></trkpt><trkpt lat="39.7620719" lon="1.1851772"><ele>0.0</ele><time>2026-04-29T22:39:31.974Z</time></trkpt><trkpt lat="39.7621508" lon="1.1852434"><ele>0.0</ele><time>2026-04-29T22:39:32.974Z</time></trkpt><trkpt lat="39.7622251" lon="1.1853169"><ele>0.0</ele><time>2026-04-29T22:39:33.974Z</time></trkpt><trkpt lat="39.7623069" lon="1.1853834"><ele>0.0</ele><time>2026-04-29T22:39:34.974Z</time></trkpt><trkpt lat="39.7623934" lon="1.1854558"><ele>0.0</ele><time>2026-04-29T22:39:35.975Z</time></trkpt><trkpt lat="39.7624674" lon="1.1855318"><ele>0.0</ele><time>2026-04-29T22:39:36.974Z</time></trkpt><trkpt lat="39.7626076" lon="1.1856656"><ele>0.0</ele><time>2026-04-29T22:39:38.975Z</time></trkpt><trkpt lat="39.7626717" lon="1.185712"><ele>0.0</ele><time>2026-04-29T22:39:39.974Z</time></trkpt><trkpt lat="39.7627424" lon="1.1857578"><ele>0.0</ele><time>2026-04-29T22:39:40.974Z</time></trkpt><trkpt lat="39.7628158" lon="1.1858046"><ele>0.0</ele><time>2026-04-29T22:39:41.975Z</time></trkpt><trkpt lat="39.7628964" lon="1.1858507"><ele>0.0</ele><time>2026-04-29T22:39:42.974Z</time></trkpt><trkpt lat="39.7629851" lon="1.1858985"><ele>0.0</ele><time>2026-04-29T22:39:43.975Z</time></trkpt><trkpt lat="39.7631336" lon="1.1859992"><ele>0.0</ele><time>2026-04-29T22:39:45.974Z</time></trkpt><trkpt lat="39.7632083" lon="1.1860571"><ele>0.0</ele><time>2026-04-29T22:39:46.975Z</time></trkpt><trkpt lat="39.7632849" lon="1.1861015"><ele>0.0</ele><time>2026-04-29T22:39:47.975Z</time></trkpt><trkpt lat="39.7633631" lon="1.1861659"><ele>0.0</ele><time>2026-04-29T22:39:48.975Z</time></trkpt><trkpt lat="39.7634389" lon="1.1862325"><ele>0.0</ele><time>2026-04-29T22:39:49.974Z</time></trkpt><trkpt lat="39.7635138" lon="1.1862926"><ele>0.0</ele><time>2026-04-29T22:39:50.974Z</time></trkpt><trkpt lat="39.7635873" lon="1.1863479"><ele>0.0</ele><time>2026-04-29T22:39:51.975Z</time></trkpt><trkpt lat="39.7636561" lon="1.1864126"><ele>0.0</ele><time>2026-04-29T22:39:52.974Z</time></trkpt><trkpt lat="39.7637258" lon="1.1864761"><ele>0.0</ele><time>2026-04-29T22:39:53.975Z</time></trkpt><trkpt lat="39.7637958" lon="1.1865328"><ele>0.0</ele><time>2026-04-29T22:39:54.974Z</time></trkpt><trkpt lat="39.7638743" lon="1.186588"><ele>0.0</ele><time>2026-04-29T22:39:55.974Z</time></trkpt><trkpt lat="39.7639475" lon="1.1866446"><ele>0.0</ele><time>2026-04-29T22:39:56.975Z</time></trkpt><trkpt lat="39.7640189" lon="1.1866969"><ele>0.0</ele><time>2026-04-29T22:39:57.975Z</time></trkpt><trkpt lat="39.7640921" lon="1.1867566"><ele>0.0</ele><time>2026-04-29T22:39:58.974Z</time></trkpt><trkpt lat="39.7641738" lon="1.1868086"><ele>0.0</ele><time>2026-04-29T22:39:59.974Z</time></trkpt><trkpt lat="39.7642588" lon="1.1868632"><ele>0.0</ele><time>2026-04-29T22:40:00.974Z</time></trkpt><trkpt lat="39.7643414" lon="1.1869153"><ele>0.0</ele><time>2026-04-29T22:40:01.975Z</time></trkpt><trkpt lat="39.7644228" lon="1.1869699"><ele>0.0</ele><time>2026-04-29T22:40:02.974Z</time></trkpt><trkpt lat="39.764503" lon="1.1870153"><ele>0.0</ele><time>2026-04-29T22:40:03.974Z</time></trkpt><trkpt lat="39.7645799" lon="1.1870581"><ele>0.0</ele><time>2026-04-29T22:40:04.974Z</time></trkpt><trkpt lat="39.7647308" lon="1.1871687"><ele>0.0</ele><time>2026-04-29T22:40:06.975Z</time></trkpt><trkpt lat="39.764804" lon="1.1872147"><ele>0.0</ele><time>2026-04-29T22:40:07.974Z</time></trkpt><trkpt lat="39.7648783" lon="1.1872581"><ele>0.0</ele><time>2026-04-29T22:40:08.974Z</time></trkpt><trkpt lat="39.7650294" lon="1.1873362"><ele>0.0</ele><time>2026-04-29T22:40:10.975Z</time></trkpt><trkpt lat="39.7651081" lon="1.1873816"><ele>0.0</ele><time>2026-04-29T22:40:11.975Z</time></trkpt><trkpt lat="39.7651867" lon="1.1874284"><ele>0.0</ele><time>2026-04-29T22:40:12.974Z</time></trkpt><trkpt lat="39.7652635" lon="1.1874952"><ele>0.0</ele><time>2026-04-29T22:40:13.974Z</time></trkpt><trkpt lat="39.765343" lon="1.1875516"><ele>0.0</ele><time>2026-04-29T22:40:14.974Z</time></trkpt><trkpt lat="39.7654175" lon="1.1876119"><ele>0.0</ele><time>2026-04-29T22:40:15.974Z</time></trkpt><trkpt lat="39.7654892" lon="1.187671"><ele>0.0</ele><time>2026-04-29T22:40:16.975Z</time></trkpt><trkpt lat="39.7655593" lon="1.1877347"><ele>0.0</ele><time>2026-04-29T22:40:17.974Z</time></trkpt><trkpt lat="39.7656293" lon="1.1877998"><ele>0.0</ele><time>2026-04-29T22:40:18.974Z</time></trkpt><trkpt lat="39.765702" lon="1.1878576"><ele>0.0</ele><time>2026-04-29T22:40:19.974Z</time></trkpt><trkpt lat="39.7657767" lon="1.1879257"><ele>0.0</ele><time>2026-04-29T22:40:20.974Z</time></trkpt><trkpt lat="39.7658532" lon="1.1879928"><ele>0.0</ele><time>2026-04-29T22:40:21.974Z</time></trkpt><trkpt lat="39.7659288" lon="1.1880553"><ele>0.0</ele><time>2026-04-29T22:40:22.974Z</time></trkpt><trkpt lat="39.7660035" lon="1.188123"><ele>0.0</ele><time>2026-04-29T22:40:23.975Z</time></trkpt><trkpt lat="39.7660781" lon="1.1881832"><ele>0.0</ele><time>2026-04-29T22:40:24.974Z</time></trkpt><trkpt lat="39.7661529" lon="1.1882541"><ele>0.0</ele><time>2026-04-29T22:40:25.975Z</time></trkpt><trkpt lat="39.7663167" lon="1.18835"><ele>0.0</ele><time>2026-04-29T22:40:27.974Z</time></trkpt><trkpt lat="39.7663975" lon="1.1884047"><ele>0.0</ele><time>2026-04-29T22:40:28.975Z</time></trkpt><trkpt lat="39.7664807" lon="1.1884615"><ele>0.0</ele><time>2026-04-29T22:40:29.974Z</time></trkpt><trkpt lat="39.7665685" lon="1.1884799"><ele>0.0</ele><time>2026-04-29T22:40:30.974Z</time></trkpt><trkpt lat="39.7666539" lon="1.1885039"><ele>0.0</ele><time>2026-04-29T22:40:31.974Z</time></trkpt><trkpt lat="39.7667404" lon="1.1885214"><ele>0.0</ele><time>2026-04-29T22:40:32.975Z</time></trkpt><trkpt lat="39.7668183" lon="1.1885659"><ele>0.0</ele><time>2026-04-29T22:40:33.975Z</time></trkpt><trkpt lat="39.7668922" lon="1.1885995"><ele>0.0</ele><time>2026-04-29T22:40:34.974Z</time></trkpt><trkpt lat="39.7669697" lon="1.1886497"><ele>0.0</ele><time>2026-04-29T22:40:35.974Z</time></trkpt><trkpt lat="39.7670407" lon="1.1887287"><ele>0.0</ele><time>2026-04-29T22:40:36.974Z</time></trkpt><trkpt lat="39.7671079" lon="1.1888049"><ele>0.0</ele><time>2026-04-29T22:40:37.975Z</time></trkpt><trkpt lat="39.7671764" lon="1.1888611"><ele>0.0</ele><time>2026-04-29T22:40:38.974Z</time></trkpt><trkpt lat="39.7672504" lon="1.1889163"><ele>0.0</ele><time>2026-04-29T22:40:39.974Z</time></trkpt><trkpt lat="39.7673243" lon="1.1889769"><ele>0.0</ele><time>2026-04-29T22:40:40.975Z</time></trkpt><trkpt lat="39.7673944" lon="1.1890345"><ele>0.0</ele><time>2026-04-29T22:40:41.974Z</time></trkpt><trkpt lat="39.7674672" lon="1.1890926"><ele>0.0</ele><time>2026-04-29T22:40:42.975Z</time></trkpt><trkpt lat="39.7675363" lon="1.1891239"><ele>0.0</ele><time>2026-04-29T22:40:43.974Z</time></trkpt><trkpt lat="39.7676243" lon="1.1891553"><ele>0.0</ele><time>2026-04-29T22:40:44.973Z</time></trkpt><trkpt lat="39.7677034" lon="1.1892112"><ele>0.0</ele><time>2026-04-29T22:40:45.973Z</time></trkpt><trkpt lat="39.7677805" lon="1.1892737"><ele>0.0</ele><time>2026-04-29T22:40:46.974Z</time></trkpt><trkpt lat="39.767924" lon="1.1893978"><ele>0.0</ele><time>2026-04-29T22:40:48.973Z</time></trkpt><trkpt lat="39.7679955" lon="1.1894548"><ele>0.0</ele><time>2026-04-29T22:40:49.973Z</time></trkpt><trkpt lat="39.7680643" lon="1.1895086"><ele>0.0</ele><time>2026-04-29T22:40:50.973Z</time></trkpt><trkpt lat="39.7681371" lon="1.1895612"><ele>0.0</ele><time>2026-04-29T22:40:51.973Z</time></trkpt><trkpt lat="39.7682118" lon="1.1896162"><ele>0.0</ele><time>2026-04-29T22:40:52.973Z</time></trkpt><trkpt lat="39.7682853" lon="1.18967"><ele>0.0</ele><time>2026-04-29T22:40:53.973Z</time></trkpt><trkpt lat="39.7683601" lon="1.1897291"><ele>0.0</ele><time>2026-04-29T22:40:54.973Z</time></trkpt><trkpt lat="39.7684324" lon="1.1897846"><ele>0.0</ele><time>2026-04-29T22:40:55.973Z</time></trkpt><trkpt lat="39.7685037" lon="1.1898329"><ele>0.0</ele><time>2026-04-29T22:40:56.974Z</time></trkpt><trkpt lat="39.7685768" lon="1.1898813"><ele>0.0</ele><time>2026-04-29T22:40:57.974Z</time></trkpt><trkpt lat="39.7686557" lon="1.1899341"><ele>0.0</ele><time>2026-04-29T22:40:58.973Z</time></trkpt><trkpt lat="39.7687341" lon="1.1899972"><ele>0.0</ele><time>2026-04-29T22:40:59.973Z</time></trkpt><trkpt lat="39.7688169" lon="1.1900499"><ele>0.0</ele><time>2026-04-29T22:41:00.973Z</time></trkpt><trkpt lat="39.7688961" lon="1.1900992"><ele>0.0</ele><time>2026-04-29T22:41:01.973Z</time></trkpt><trkpt lat="39.7689758" lon="1.1901529"><ele>0.0</ele><time>2026-04-29T22:41:02.973Z</time></trkpt><trkpt lat="39.7690572" lon="1.1902019"><ele>0.0</ele><time>2026-04-29T22:41:03.974Z</time></trkpt><trkpt lat="39.7691418" lon="1.1902574"><ele>0.0</ele><time>2026-04-29T22:41:04.973Z</time></trkpt><trkpt lat="39.7692014" lon="1.1903041"><ele>0.0</ele><time>2026-04-29T22:41:05.974Z</time></trkpt><trkpt lat="39.7692778" lon="1.190335"><ele>0.0</ele><time>2026-04-29T22:41:06.974Z</time></trkpt><trkpt lat="39.7693559" lon="1.1903947"><ele>0.0</ele><time>2026-04-29T22:41:07.973Z</time></trkpt><trkpt lat="39.7695108" lon="1.1905085"><ele>0.0</ele><time>2026-04-29T22:41:09.973Z</time></trkpt><trkpt lat="39.7695937" lon="1.1905711"><ele>0.0</ele><time>2026-04-29T22:41:10.974Z</time></trkpt><trkpt lat="39.7696754" lon="1.1906313"><ele>0.0</ele><time>2026-04-29T22:41:11.974Z</time></trkpt><trkpt lat="39.7698384" lon="1.1907778"><ele>0.0</ele><time>2026-04-29T22:41:13.973Z</time></trkpt><trkpt lat="39.7699291" lon="1.1908335"><ele>0.0</ele><time>2026-04-29T22:41:14.973Z</time></trkpt><trkpt lat="39.7700083" lon="1.1908897"><ele>0.0</ele><time>2026-04-29T22:41:15.973Z</time></trkpt><trkpt lat="39.7700821" lon="1.1909449"><ele>0.0</ele><time>2026-04-29T22:41:16.973Z</time></trkpt><trkpt lat="39.7701637" lon="1.1909786"><ele>0.0</ele><time>2026-04-29T22:41:17.973Z</time></trkpt><trkpt lat="39.7702387" lon="1.191037"><ele>0.0</ele><time>2026-04-29T22:41:18.974Z</time></trkpt><trkpt lat="39.770312" lon="1.191093"><ele>0.0</ele><time>2026-04-29T22:41:19.973Z</time></trkpt><trkpt lat="39.7703851" lon="1.1911551"><ele>0.0</ele><time>2026-04-29T22:41:20.973Z</time></trkpt><trkpt lat="39.7704612" lon="1.1912188"><ele>0.0</ele><time>2026-04-29T22:41:21.973Z</time></trkpt><trkpt lat="39.7705378" lon="1.1912766"><ele>0.0</ele><time>2026-04-29T22:41:22.973Z</time></trkpt><trkpt lat="39.7706148" lon="1.1913331"><ele>0.0</ele><time>2026-04-29T22:41:23.974Z</time></trkpt><trkpt lat="39.7706969" lon="1.1913929"><ele>0.0</ele><time>2026-04-29T22:41:24.973Z</time></trkpt><trkpt lat="39.770776" lon="1.1914485"><ele>0.0</ele><time>2026-04-29T22:41:25.973Z</time></trkpt><trkpt lat="39.7708659" lon="1.1914906"><ele>0.0</ele><time>2026-04-29T22:41:26.973Z</time></trkpt><trkpt lat="39.7709519" lon="1.1915407"><ele>0.0</ele><time>2026-04-29T22:41:27.974Z</time></trkpt><trkpt lat="39.7710275" lon="1.1915977"><ele>0.0</ele><time>2026-04-29T22:41:28.973Z</time></trkpt><trkpt lat="39.7711883" lon="1.1916912"><ele>0.0</ele><time>2026-04-29T22:41:30.973Z</time></trkpt><trkpt lat="39.7712623" lon="1.1917404"><ele>0.0</ele><time>2026-04-29T22:41:31.973Z</time></trkpt><trkpt lat="39.7713438" lon="1.1917804"><ele>0.0</ele><time>2026-04-29T22:41:32.973Z</time></trkpt><trkpt lat="39.7714246" lon="1.1918315"><ele>0.0</ele><time>2026-04-29T22:41:33.973Z</time></trkpt><trkpt lat="39.7715062" lon="1.1918732"><ele>0.0</ele><time>2026-04-29T22:41:34.973Z</time></trkpt><trkpt lat="39.7715891" lon="1.1919088"><ele>0.0</ele><time>2026-04-29T22:41:35.973Z</time></trkpt><trkpt lat="39.7716681" lon="1.1919446"><ele>0.0</ele><time>2026-04-29T22:41:36.973Z</time></trkpt><trkpt lat="39.7717565" lon="1.1919742"><ele>0.0</ele><time>2026-04-29T22:41:37.973Z</time></trkpt><trkpt lat="39.7718479" lon="1.192013"><ele>0.0</ele><time>2026-04-29T22:41:38.974Z</time></trkpt><trkpt lat="39.7719185" lon="1.1920487"><ele>0.0</ele><time>2026-04-29T22:41:39.974Z</time></trkpt><trkpt lat="39.7719996" lon="1.1920935"><ele>0.0</ele><time>2026-04-29T22:41:40.974Z</time></trkpt><trkpt lat="39.7720912" lon="1.1921487"><ele>0.0</ele><time>2026-04-29T22:41:41.974Z</time></trkpt><trkpt lat="39.7721744" lon="1.1921964"><ele>0.0</ele><time>2026-04-29T22:41:42.974Z</time></trkpt><trkpt lat="39.7722503" lon="1.1922442"><ele>0.0</ele><time>2026-04-29T22:41:43.974Z</time></trkpt><trkpt lat="39.7723267" lon="1.1922827"><ele>0.0</ele><time>2026-04-29T22:41:44.973Z</time></trkpt><trkpt lat="39.7724007" lon="1.1923353"><ele>0.0</ele><time>2026-04-29T22:41:45.974Z</time></trkpt><trkpt lat="39.7724771" lon="1.1923915"><ele>0.0</ele><time>2026-04-29T22:41:46.974Z</time></trkpt><trkpt lat="39.7725509" lon="1.1924502"><ele>0.0</ele><time>2026-04-29T22:41:47.974Z</time></trkpt><trkpt lat="39.7726255" lon="1.1925076"><ele>0.0</ele><time>2026-04-29T22:41:48.974Z</time></trkpt><trkpt lat="39.7727031" lon="1.1925668"><ele>0.0</ele><time>2026-04-29T22:41:49.974Z</time></trkpt><trkpt lat="39.7728496" lon="1.192704"><ele>0.0</ele><time>2026-04-29T22:41:51.973Z</time></trkpt><trkpt lat="39.7729167" lon="1.192774"><ele>0.0</ele><time>2026-04-29T22:41:52.974Z</time></trkpt><trkpt lat="39.7729888" lon="1.1928343"><ele>0.0</ele><time>2026-04-29T22:41:53.973Z</time></trkpt><trkpt lat="39.7730631" lon="1.1929005"><ele>0.0</ele><time>2026-04-29T22:41:54.973Z</time></trkpt><trkpt lat="39.7731357" lon="1.1929626"><ele>0.0</ele><time>2026-04-29T22:41:55.974Z</time></trkpt><trkpt lat="39.7732088" lon="1.1930242"><ele>0.0</ele><time>2026-04-29T22:41:56.973Z</time></trkpt><trkpt lat="39.7732822" lon="1.1930831"><ele>0.0</ele><time>2026-04-29T22:41:57.973Z</time></trkpt><trkpt lat="39.7733567" lon="1.1931511"><ele>0.0</ele><time>2026-04-29T22:41:58.974Z</time></trkpt><trkpt lat="39.7734343" lon="1.1932243"><ele>0.0</ele><time>2026-04-29T22:41:59.974Z</time></trkpt><trkpt lat="39.7735056" lon="1.1932888"><ele>0.0</ele><time>2026-04-29T22:42:00.974Z</time></trkpt><trkpt lat="39.773583" lon="1.1933433"><ele>0.0</ele><time>2026-04-29T22:42:01.973Z</time></trkpt><trkpt lat="39.7736601" lon="1.1933907"><ele>0.0</ele><time>2026-04-29T22:42:02.974Z</time></trkpt><trkpt lat="39.7737372" lon="1.1934331"><ele>0.0</ele><time>2026-04-29T22:42:03.973Z</time></trkpt><trkpt lat="39.7738209" lon="1.1934527"><ele>0.0</ele><time>2026-04-29T22:42:04.973Z</time></trkpt><trkpt lat="39.7738956" lon="1.1934969"><ele>0.0</ele><time>2026-04-29T22:42:05.973Z</time></trkpt><trkpt lat="39.7739759" lon="1.1935517"><ele>0.0</ele><time>2026-04-29T22:42:06.973Z</time></trkpt><trkpt lat="39.7740574" lon="1.1936142"><ele>0.0</ele><time>2026-04-29T22:42:07.973Z</time></trkpt><trkpt lat="39.7741319" lon="1.1936627"><ele>0.0</ele><time>2026-04-29T22:42:08.973Z</time></trkpt><trkpt lat="39.7742035" lon="1.1937051"><ele>0.0</ele><time>2026-04-29T22:42:09.973Z</time></trkpt><trkpt lat="39.774281" lon="1.1937524"><ele>0.0</ele><time>2026-04-29T22:42:10.973Z</time></trkpt><trkpt lat="39.7744267" lon="1.1938418"><ele>0.0</ele><time>2026-04-29T22:42:12.973Z</time></trkpt><trkpt lat="39.7745104" lon="1.1938942"><ele>0.0</ele><time>2026-04-29T22:42:13.973Z</time></trkpt><trkpt lat="39.7745854" lon="1.1939475"><ele>0.0</ele><time>2026-04-29T22:42:14.974Z</time></trkpt><trkpt lat="39.7746762" lon="1.1939995"><ele>0.0</ele><time>2026-04-29T22:42:15.973Z</time></trkpt><trkpt lat="39.7748421" lon="1.1940745"><ele>0.0</ele><time>2026-04-29T22:42:17.973Z</time></trkpt><trkpt lat="39.774926" lon="1.1941197"><ele>0.0</ele><time>2026-04-29T22:42:18.973Z</time></trkpt><trkpt lat="39.7750078" lon="1.1941643"><ele>0.0</ele><time>2026-04-29T22:42:19.974Z</time></trkpt><trkpt lat="39.7750926" lon="1.1942066"><ele>0.0</ele><time>2026-04-29T22:42:20.974Z</time></trkpt><trkpt lat="39.775173" lon="1.1942417"><ele>0.0</ele><time>2026-04-29T22:42:21.973Z</time></trkpt><trkpt lat="39.7752537" lon="1.1942862"><ele>0.0</ele><time>2026-04-29T22:42:22.973Z</time></trkpt><trkpt lat="39.7753367" lon="1.1943283"><ele>0.0</ele><time>2026-04-29T22:42:23.974Z</time></trkpt><trkpt lat="39.7754275" lon="1.1943781"><ele>0.0</ele><time>2026-04-29T22:42:24.974Z</time></trkpt><trkpt lat="39.7755138" lon="1.194464"><ele>0.0</ele><time>2026-04-29T22:42:25.973Z</time></trkpt><trkpt lat="39.7755847" lon="1.1945244"><ele>0.0</ele><time>2026-04-29T22:42:26.974Z</time></trkpt><trkpt lat="39.77566" lon="1.1945728"><ele>0.0</ele><time>2026-04-29T22:42:27.973Z</time></trkpt><trkpt lat="39.7757322" lon="1.1946196"><ele>0.0</ele><time>2026-04-29T22:42:28.974Z</time></trkpt><trkpt lat="39.7757997" lon="1.1946748"><ele>0.0</ele><time>2026-04-29T22:42:29.974Z</time></trkpt><trkpt lat="39.775865" lon="1.1947349"><ele>0.0</ele><time>2026-04-29T22:42:30.973Z</time></trkpt><trkpt lat="39.7759339" lon="1.1948022"><ele>0.0</ele><time>2026-04-29T22:42:31.973Z</time></trkpt><trkpt lat="39.7760885" lon="1.1948768"><ele>0.0</ele><time>2026-04-29T22:42:33.973Z</time></trkpt><trkpt lat="39.7761712" lon="1.1949384"><ele>0.0</ele><time>2026-04-29T22:42:34.974Z</time></trkpt><trkpt lat="39.7762572" lon="1.1949902"><ele>0.0</ele><time>2026-04-29T22:42:35.973Z</time></trkpt><trkpt lat="39.7763368" lon="1.1950459"><ele>0.0</ele><time>2026-04-29T22:42:36.974Z</time></trkpt><trkpt lat="39.776421" lon="1.1950925"><ele>0.0</ele><time>2026-04-29T22:42:37.973Z</time></trkpt><trkpt lat="39.7764944" lon="1.1951688"><ele>0.0</ele><time>2026-04-29T22:42:38.974Z</time></trkpt><trkpt lat="39.7765662" lon="1.1952374"><ele>0.0</ele><time>2026-04-29T22:42:39.974Z</time></trkpt><trkpt lat="39.7766346" lon="1.1953044"><ele>0.0</ele><time>2026-04-29T22:42:40.974Z</time></trkpt><trkpt lat="39.7767133" lon="1.1953725"><ele>0.0</ele><time>2026-04-29T22:42:41.974Z</time></trkpt><trkpt lat="39.7767986" lon="1.1954378"><ele>0.0</ele><time>2026-04-29T22:42:42.973Z</time></trkpt><trkpt lat="39.7768782" lon="1.1954957"><ele>0.0</ele><time>2026-04-29T22:42:43.973Z</time></trkpt><trkpt lat="39.7769609" lon="1.1955665"><ele>0.0</ele><time>2026-04-29T22:42:44.973Z</time></trkpt><trkpt lat="39.7770375" lon="1.1956508"><ele>0.0</ele><time>2026-04-29T22:42:45.973Z</time></trkpt><trkpt lat="39.777115" lon="1.195731"><ele>0.0</ele><time>2026-04-29T22:42:46.974Z</time></trkpt><trkpt lat="39.7771978" lon="1.1957887"><ele>0.0</ele><time>2026-04-29T22:42:47.974Z</time></trkpt><trkpt lat="39.7773559" lon="1.1959068"><ele>0.0</ele><time>2026-04-29T22:42:49.974Z</time></trkpt><trkpt lat="39.7774282" lon="1.1959611"><ele>0.0</ele><time>2026-04-29T22:42:50.973Z</time></trkpt><trkpt lat="39.7774979" lon="1.1960117"><ele>0.0</ele><time>2026-04-29T22:42:51.973Z</time></trkpt><trkpt lat="39.7775634" lon="1.1960642"><ele>0.0</ele><time>2026-04-29T22:42:52.973Z</time></trkpt><trkpt lat="39.7776993" lon="1.1961657"><ele>0.0</ele><time>2026-04-29T22:42:54.973Z</time></trkpt><trkpt lat="39.7777644" lon="1.1962107"><ele>0.0</ele><time>2026-04-29T22:42:55.973Z</time></trkpt><trkpt lat="39.7778357" lon="1.1962527"><ele>0.0</ele><time>2026-04-29T22:42:56.973Z</time></trkpt><trkpt lat="39.7779116" lon="1.1963064"><ele>0.0</ele><time>2026-04-29T22:42:57.974Z</time></trkpt><trkpt lat="39.7779813" lon="1.1963504"><ele>0.0</ele><time>2026-04-29T22:42:58.974Z</time></trkpt><trkpt lat="39.7780536" lon="1.1963939"><ele>0.0</ele><time>2026-04-29T22:42:59.974Z</time></trkpt><trkpt lat="39.7781217" lon="1.1964528"><ele>0.0</ele><time>2026-04-29T22:43:00.973Z</time></trkpt><trkpt lat="39.7781955" lon="1.1965058"><ele>0.0</ele><time>2026-04-29T22:43:01.974Z</time></trkpt><trkpt lat="39.7782675" lon="1.1965899"><ele>0.0</ele><time>2026-04-29T22:43:02.974Z</time></trkpt><trkpt lat="39.7783416" lon="1.1966782"><ele>0.0</ele><time>2026-04-29T22:43:03.974Z</time></trkpt><trkpt lat="39.7784133" lon="1.1967443"><ele>0.0</ele><time>2026-04-29T22:43:04.974Z</time></trkpt><trkpt lat="39.7784878" lon="1.1967905"><ele>0.0</ele><time>2026-04-29T22:43:05.974Z</time></trkpt><trkpt lat="39.7785655" lon="1.1968338"><ele>0.0</ele><time>2026-04-29T22:43:06.974Z</time></trkpt><trkpt lat="39.7786387" lon="1.1968993"><ele>0.0</ele><time>2026-04-29T22:43:07.973Z</time></trkpt><trkpt lat="39.7787133" lon="1.1969675"><ele>0.0</ele><time>2026-04-29T22:43:08.974Z</time></trkpt><trkpt lat="39.778787" lon="1.1970446"><ele>0.0</ele><time>2026-04-29T22:43:09.974Z</time></trkpt><trkpt lat="39.7788546" lon="1.1971271"><ele>0.0</ele><time>2026-04-29T22:43:10.973Z</time></trkpt><trkpt lat="39.7789328" lon="1.1971599"><ele>0.0</ele><time>2026-04-29T22:43:11.973Z</time></trkpt><trkpt lat="39.7790069" lon="1.1972322"><ele>0.0</ele><time>2026-04-29T22:43:12.974Z</time></trkpt><trkpt lat="39.7790847" lon="1.1973058"><ele>0.0</ele><time>2026-04-29T22:43:13.973Z</time></trkpt><trkpt lat="39.7792227" lon="1.197445"><ele>0.0</ele><time>2026-04-29T22:43:15.974Z</time></trkpt><trkpt lat="39.7792969" lon="1.1975045"><ele>0.0</ele><time>2026-04-29T22:43:16.973Z</time></trkpt><trkpt lat="39.779376" lon="1.1975768"><ele>0.0</ele><time>2026-04-29T22:43:17.974Z</time></trkpt><trkpt lat="39.7794432" lon="1.1976099"><ele>0.0</ele><time>2026-04-29T22:43:20.155Z</time></trkpt><trkpt lat="39.7796507" lon="1.1978039"><ele>0.0</ele><time>2026-04-29T22:43:22.066Z</time></trkpt><trkpt lat="39.7797194" lon="1.1979026"><ele>0.0</ele><time>2026-04-29T22:43:23.071Z</time></trkpt><trkpt lat="39.7798146" lon="1.197966"><ele>0.0</ele><time>2026-04-29T22:43:24.178Z</time></trkpt><trkpt lat="39.7798913" lon="1.1979856"><ele>0.0</ele><time>2026-04-29T22:43:24.973Z</time></trkpt><trkpt lat="39.7799504" lon="1.198028"><ele>0.0</ele><time>2026-04-29T22:43:26.09Z</time></trkpt><trkpt lat="39.7800545" lon="1.1981142"><ele>0.0</ele><time>2026-04-29T22:43:27.094Z</time></trkpt><trkpt lat="39.7801326" lon="1.1981948"><ele>0.0</ele><time>2026-04-29T22:43:28.101Z</time></trkpt><trkpt lat="39.7802151" lon="1.1982489"><ele>0.0</ele><time>2026-04-29T22:43:29.107Z</time></trkpt><trkpt lat="39.7802997" lon="1.1982773"><ele>0.0</ele><time>2026-04-29T22:43:30.112Z</time></trkpt><trkpt lat="39.7803809" lon="1.1982979"><ele>0.0</ele><time>2026-04-29T22:43:31.119Z</time></trkpt><trkpt lat="39.7804689" lon="1.1983261"><ele>0.0</ele><time>2026-04-29T22:43:32.124Z</time></trkpt><trkpt lat="39.7805628" lon="1.1983807"><ele>0.0</ele><time>2026-04-29T22:43:33.129Z</time></trkpt><trkpt lat="39.7805103" lon="1.1985033"><ele>0.0</ele><time>2026-04-29T22:43:35.142Z</time></trkpt><trkpt lat="39.780812" lon="1.198609"><ele>0.0</ele><time>2026-04-29T22:43:37.152Z</time></trkpt><trkpt lat="39.7809259" lon="1.198666"><ele>0.0</ele><time>2026-04-29T22:43:38.158Z</time></trkpt><trkpt lat="39.7810193" lon="1.1987233"><ele>0.0</ele><time>2026-04-29T22:43:39.165Z</time></trkpt><trkpt lat="39.7811104" lon="1.198773"><ele>0.0</ele><time>2026-04-29T22:43:40.17Z</time></trkpt><trkpt lat="39.7811938" lon="1.1988253"><ele>0.0</ele><time>2026-04-29T22:43:41.076Z</time></trkpt><trkpt lat="39.7812763" lon="1.1988884"><ele>0.0</ele><time>2026-04-29T22:43:42.082Z</time></trkpt><trkpt lat="39.7813599" lon="1.1989439"><ele>0.0</ele><time>2026-04-29T22:43:43.086Z</time></trkpt><trkpt lat="39.7813278" lon="1.1990173"><ele>0.0</ele><time>2026-04-29T22:43:45.098Z</time></trkpt><trkpt lat="39.7813965" lon="1.1991194"><ele>0.0</ele><time>2026-04-29T22:43:46.105Z</time></trkpt><trkpt lat="39.7815807" lon="1.199171"><ele>0.0</ele><time>2026-04-29T22:43:47.109Z</time></trkpt><trkpt lat="39.781696" lon="1.1992074"><ele>0.0</ele><time>2026-04-29T22:43:48.115Z</time></trkpt><trkpt lat="39.7817939" lon="1.1992619"><ele>0.0</ele><time>2026-04-29T22:43:49.122Z</time></trkpt><trkpt lat="39.7818858" lon="1.1993202"><ele>0.0</ele><time>2026-04-29T22:43:50.127Z</time></trkpt><trkpt lat="39.781975" lon="1.1993791"><ele>0.0</ele><time>2026-04-29T22:43:51.132Z</time></trkpt><trkpt lat="39.7820808" lon="1.1994657"><ele>0.0</ele><time>2026-04-29T22:43:53.144Z</time></trkpt><trkpt lat="39.7821806" lon="1.1995533"><ele>0.0</ele><time>2026-04-29T22:43:54.151Z</time></trkpt><trkpt lat="39.7822709" lon="1.1996086"><ele>0.0</ele><time>2026-04-29T22:43:55.157Z</time></trkpt><trkpt lat="39.7823561" lon="1.1996517"><ele>0.0</ele><time>2026-04-29T22:43:56.061Z</time></trkpt><trkpt lat="39.7825461" lon="1.1998518"><ele>0.0</ele><time>2026-04-29T22:43:59.079Z</time></trkpt><trkpt lat="39.7826434" lon="1.1998761"><ele>0.0</ele><time>2026-04-29T22:44:00.085Z</time></trkpt><trkpt lat="39.7827494" lon="1.1999381"><ele>0.0</ele><time>2026-04-29T22:44:02.096Z</time></trkpt><trkpt lat="39.7828505" lon="1.2000013"><ele>0.0</ele><time>2026-04-29T22:44:03.101Z</time></trkpt><trkpt lat="39.7829414" lon="1.2000391"><ele>0.0</ele><time>2026-04-29T22:44:04.108Z</time></trkpt><trkpt lat="39.7830289" lon="1.2000891"><ele>0.0</ele><time>2026-04-29T22:44:05.114Z</time></trkpt><trkpt lat="39.7831132" lon="1.2001413"><ele>0.0</ele><time>2026-04-29T22:44:06.119Z</time></trkpt><trkpt lat="39.7831951" lon="1.200199"><ele>0.0</ele><time>2026-04-29T22:44:07.124Z</time></trkpt><trkpt lat="39.7832767" lon="1.2002561"><ele>0.0</ele><time>2026-04-29T22:44:08.13Z</time></trkpt><trkpt lat="39.7833587" lon="1.2003095"><ele>0.0</ele><time>2026-04-29T22:44:09.137Z</time></trkpt><trkpt lat="39.7834376" lon="1.2003622"><ele>0.0</ele><time>2026-04-29T22:44:10.142Z</time></trkpt><trkpt lat="39.7835109" lon="1.2004227"><ele>0.0</ele><time>2026-04-29T22:44:11.147Z</time></trkpt><trkpt lat="39.7835883" lon="1.2004696"><ele>0.0</ele><time>2026-04-29T22:44:12.153Z</time></trkpt><trkpt lat="39.7836654" lon="1.2005228"><ele>0.0</ele><time>2026-04-29T22:44:13.058Z</time></trkpt><trkpt lat="39.7837495" lon="1.2005782"><ele>0.0</ele><time>2026-04-29T22:44:14.065Z</time></trkpt><trkpt lat="39.7838107" lon="1.2007197"><ele>0.0</ele><time>2026-04-29T22:44:16.077Z</time></trkpt><trkpt lat="39.7839057" lon="1.200783"><ele>0.0</ele><time>2026-04-29T22:44:17.082Z</time></trkpt><trkpt lat="39.7841352" lon="1.200889"><ele>0.0</ele><time>2026-04-29T22:44:19.973Z</time></trkpt><trkpt lat="39.7842077" lon="1.2009726"><ele>0.0</ele><time>2026-04-29T22:44:20.974Z</time></trkpt><trkpt lat="39.7842835" lon="1.201064"><ele>0.0</ele><time>2026-04-29T22:44:21.973Z</time></trkpt><trkpt lat="39.7843538" lon="1.2011474"><ele>0.0</ele><time>2026-04-29T22:44:22.973Z</time></trkpt><trkpt lat="39.7844296" lon="1.2012165"><ele>0.0</ele><time>2026-04-29T22:44:23.973Z</time></trkpt><trkpt lat="39.7845065" lon="1.2012798"><ele>0.0</ele><time>2026-04-29T22:44:24.974Z</time></trkpt><trkpt lat="39.7845875" lon="1.201327"><ele>0.0</ele><time>2026-04-29T22:44:25.973Z</time></trkpt><trkpt lat="39.7846724" lon="1.2013759"><ele>0.0</ele><time>2026-04-29T22:44:26.973Z</time></trkpt><trkpt lat="39.7847491" lon="1.2014456"><ele>0.0</ele><time>2026-04-29T22:44:27.974Z</time></trkpt><trkpt lat="39.7848295" lon="1.2014893"><ele>0.0</ele><time>2026-04-29T22:44:28.973Z</time></trkpt><trkpt lat="39.7849095" lon="1.2015358"><ele>0.0</ele><time>2026-04-29T22:44:29.973Z</time></trkpt><trkpt lat="39.7849909" lon="1.2015782"><ele>0.0</ele><time>2026-04-29T22:44:30.973Z</time></trkpt><trkpt lat="39.7850727" lon="1.2016297"><ele>0.0</ele><time>2026-04-29T22:44:31.974Z</time></trkpt><trkpt lat="39.7851489" lon="1.2016835"><ele>0.0</ele><time>2026-04-29T22:44:32.974Z</time></trkpt><trkpt lat="39.7852277" lon="1.2017379"><ele>0.0</ele><time>2026-04-29T22:44:33.974Z</time></trkpt><trkpt lat="39.7853021" lon="1.2017947"><ele>0.0</ele><time>2026-04-29T22:44:34.973Z</time></trkpt><trkpt lat="39.7853726" lon="1.2018484"><ele>0.0</ele><time>2026-04-29T22:44:35.973Z</time></trkpt><trkpt lat="39.785448" lon="1.201896"><ele>0.0</ele><time>2026-04-29T22:44:36.974Z</time></trkpt><trkpt lat="39.7855248" lon="1.2019512"><ele>0.0</ele><time>2026-04-29T22:44:37.974Z</time></trkpt><trkpt lat="39.7856781" lon="1.2020636"><ele>0.0</ele><time>2026-04-29T22:44:39.973Z</time></trkpt><trkpt lat="39.7857576" lon="1.2021158"><ele>0.0</ele><time>2026-04-29T22:44:40.973Z</time></trkpt><trkpt lat="39.7858364" lon="1.2021688"><ele>0.0</ele><time>2026-04-29T22:44:41.974Z</time></trkpt><trkpt lat="39.7859134" lon="1.2022261"><ele>0.0</ele><time>2026-04-29T22:44:42.974Z</time></trkpt><trkpt lat="39.7859902" lon="1.2022779"><ele>0.0</ele><time>2026-04-29T22:44:43.974Z</time></trkpt><trkpt lat="39.7860671" lon="1.2023319"><ele>0.0</ele><time>2026-04-29T22:44:44.973Z</time></trkpt><trkpt lat="39.7861405" lon="1.2023895"><ele>0.0</ele><time>2026-04-29T22:44:45.974Z</time></trkpt><trkpt lat="39.7862141" lon="1.2024479"><ele>0.0</ele><time>2026-04-29T22:44:46.974Z</time></trkpt><trkpt lat="39.7862913" lon="1.2025105"><ele>0.0</ele><time>2026-04-29T22:44:47.974Z</time></trkpt><trkpt lat="39.7863668" lon="1.2025676"><ele>0.0</ele><time>2026-04-29T22:44:48.974Z</time></trkpt><trkpt lat="39.7864359" lon="1.2026258"><ele>0.0</ele><time>2026-04-29T22:44:49.973Z</time></trkpt><trkpt lat="39.7865098" lon="1.2026744"><ele>0.0</ele><time>2026-04-29T22:44:50.974Z</time></trkpt><trkpt lat="39.7865892" lon="1.202721"><ele>0.0</ele><time>2026-04-29T22:44:51.973Z</time></trkpt><trkpt lat="39.7866678" lon="1.2027758"><ele>0.0</ele><time>2026-04-29T22:44:52.973Z</time></trkpt><trkpt lat="39.7867493" lon="1.2028282"><ele>0.0</ele><time>2026-04-29T22:44:53.972Z</time></trkpt><trkpt lat="39.7868309" lon="1.2028768"><ele>0.0</ele><time>2026-04-29T22:44:54.972Z</time></trkpt><trkpt lat="39.7869172" lon="1.2029279"><ele>0.0</ele><time>2026-04-29T22:44:55.973Z</time></trkpt><trkpt lat="39.7870754" lon="1.20304"><ele>0.0</ele><time>2026-04-29T22:44:57.972Z</time></trkpt><trkpt lat="39.7871511" lon="1.2030907"><ele>0.0</ele><time>2026-04-29T22:44:58.972Z</time></trkpt><trkpt lat="39.7872892" lon="1.2032048"><ele>0.0</ele><time>2026-04-29T22:45:00.973Z</time></trkpt><trkpt lat="39.7873576" lon="1.2032526"><ele>0.0</ele><time>2026-04-29T22:45:01.972Z</time></trkpt><trkpt lat="39.787426" lon="1.2033088"><ele>0.0</ele><time>2026-04-29T22:45:02.972Z</time></trkpt><trkpt lat="39.7874984" lon="1.2033757"><ele>0.0</ele><time>2026-04-29T22:45:03.973Z</time></trkpt><trkpt lat="39.7875719" lon="1.2034327"><ele>0.0</ele><time>2026-04-29T22:45:04.973Z</time></trkpt><trkpt lat="39.787652" lon="1.203491"><ele>0.0</ele><time>2026-04-29T22:45:05.972Z</time></trkpt><trkpt lat="39.7877367" lon="1.2035493"><ele>0.0</ele><time>2026-04-29T22:45:06.973Z</time></trkpt><trkpt lat="39.7878136" lon="1.203608"><ele>0.0</ele><time>2026-04-29T22:45:07.972Z</time></trkpt><trkpt lat="39.7878927" lon="1.2036607"><ele>0.0</ele><time>2026-04-29T22:45:08.972Z</time></trkpt><trkpt lat="39.7879741" lon="1.203712"><ele>0.0</ele><time>2026-04-29T22:45:09.973Z</time></trkpt><trkpt lat="39.7880562" lon="1.2037622"><ele>0.0</ele><time>2026-04-29T22:45:10.972Z</time></trkpt><trkpt lat="39.7881334" lon="1.2038049"><ele>0.0</ele><time>2026-04-29T22:45:11.973Z</time></trkpt><trkpt lat="39.7882145" lon="1.2038501"><ele>0.0</ele><time>2026-04-29T22:45:12.973Z</time></trkpt><trkpt lat="39.788292" lon="1.2039053"><ele>0.0</ele><time>2026-04-29T22:45:13.972Z</time></trkpt><trkpt lat="39.7883687" lon="1.2039533"><ele>0.0</ele><time>2026-04-29T22:45:14.973Z</time></trkpt><trkpt lat="39.7884422" lon="1.2040102"><ele>0.0</ele><time>2026-04-29T22:45:15.973Z</time></trkpt><trkpt lat="39.7885212" lon="1.2040686"><ele>0.0</ele><time>2026-04-29T22:45:16.972Z</time></trkpt><trkpt lat="39.7886012" lon="1.2041263"><ele>0.0</ele><time>2026-04-29T22:45:17.973Z</time></trkpt><trkpt lat="39.7886797" lon="1.2041777"><ele>0.0</ele><time>2026-04-29T22:45:18.972Z</time></trkpt><trkpt lat="39.7887551" lon="1.2042273"><ele>0.0</ele><time>2026-04-29T22:45:19.972Z</time></trkpt><trkpt lat="39.7889095" lon="1.2043239"><ele>0.0</ele><time>2026-04-29T22:45:21.972Z</time></trkpt><trkpt lat="39.7889838" lon="1.2043722"><ele>0.0</ele><time>2026-04-29T22:45:22.973Z</time></trkpt><trkpt lat="39.7890596" lon="1.2044216"><ele>0.0</ele><time>2026-04-29T22:45:23.972Z</time></trkpt><trkpt lat="39.789135" lon="1.2044805"><ele>0.0</ele><time>2026-04-29T22:45:24.973Z</time></trkpt><trkpt lat="39.7892173" lon="1.2045181"><ele>0.0</ele><time>2026-04-29T22:45:25.972Z</time></trkpt><trkpt lat="39.789295" lon="1.2045657"><ele>0.0</ele><time>2026-04-29T22:45:26.972Z</time></trkpt><trkpt lat="39.789372" lon="1.2046176"><ele>0.0</ele><time>2026-04-29T22:45:27.973Z</time></trkpt><trkpt lat="39.7895207" lon="1.2047523"><ele>0.0</ele><time>2026-04-29T22:45:29.972Z</time></trkpt><trkpt lat="39.7895986" lon="1.2048184"><ele>0.0</ele><time>2026-04-29T22:45:30.972Z</time></trkpt><trkpt lat="39.789677" lon="1.2048837"><ele>0.0</ele><time>2026-04-29T22:45:31.972Z</time></trkpt><trkpt lat="39.7897552" lon="1.204949"><ele>0.0</ele><time>2026-04-29T22:45:32.972Z</time></trkpt><trkpt lat="39.7898308" lon="1.2050109"><ele>0.0</ele><time>2026-04-29T22:45:33.973Z</time></trkpt><trkpt lat="39.7899067" lon="1.2050705"><ele>0.0</ele><time>2026-04-29T22:45:34.972Z</time></trkpt><trkpt lat="39.7899803" lon="1.2051295"><ele>0.0</ele><time>2026-04-29T22:45:35.972Z</time></trkpt><trkpt lat="39.7900591" lon="1.2051878"><ele>0.0</ele><time>2026-04-29T22:45:36.972Z</time></trkpt><trkpt lat="39.7901363" lon="1.2052519"><ele>0.0</ele><time>2026-04-29T22:45:37.972Z</time></trkpt><trkpt lat="39.7902148" lon="1.2053111"><ele>0.0</ele><time>2026-04-29T22:45:38.973Z</time></trkpt><trkpt lat="39.790292" lon="1.2053569"><ele>0.0</ele><time>2026-04-29T22:45:39.973Z</time></trkpt><trkpt lat="39.7903685" lon="1.2054013"><ele>0.0</ele><time>2026-04-29T22:45:40.972Z</time></trkpt><trkpt lat="39.7905156" lon="1.2054979"><ele>0.0</ele><time>2026-04-29T22:45:42.972Z</time></trkpt><trkpt lat="39.7905886" lon="1.2055454"><ele>0.0</ele><time>2026-04-29T22:45:43.972Z</time></trkpt><trkpt lat="39.7906604" lon="1.2055893"><ele>0.0</ele><time>2026-04-29T22:45:44.973Z</time></trkpt><trkpt lat="39.7907305" lon="1.2056368"><ele>0.0</ele><time>2026-04-29T22:45:45.972Z</time></trkpt><trkpt lat="39.7908048" lon="1.2056868"><ele>0.0</ele><time>2026-04-29T22:45:46.972Z</time></trkpt><trkpt lat="39.7908827" lon="1.2057426"><ele>0.0</ele><time>2026-04-29T22:45:47.972Z</time></trkpt><trkpt lat="39.7909601" lon="1.2058068"><ele>0.0</ele><time>2026-04-29T22:45:48.972Z</time></trkpt><trkpt lat="39.7910371" lon="1.2058674"><ele>0.0</ele><time>2026-04-29T22:45:49.972Z</time></trkpt><trkpt lat="39.7911178" lon="1.2059293"><ele>0.0</ele><time>2026-04-29T22:45:50.972Z</time></trkpt><trkpt lat="39.7911953" lon="1.2059937"><ele>0.0</ele><time>2026-04-29T22:45:51.973Z</time></trkpt><trkpt lat="39.7912722" lon="1.2060403"><ele>0.0</ele><time>2026-04-29T22:45:52.973Z</time></trkpt><trkpt lat="39.7913471" lon="1.2060931"><ele>0.0</ele><time>2026-04-29T22:45:53.973Z</time></trkpt><trkpt lat="39.7914233" lon="1.2061494"><ele>0.0</ele><time>2026-04-29T22:45:54.972Z</time></trkpt><trkpt lat="39.7915057" lon="1.2061947"><ele>0.0</ele><time>2026-04-29T22:45:55.973Z</time></trkpt><trkpt lat="39.791585" lon="1.2062468"><ele>0.0</ele><time>2026-04-29T22:45:56.972Z</time></trkpt><trkpt lat="39.7916591" lon="1.2062931"><ele>0.0</ele><time>2026-04-29T22:45:57.972Z</time></trkpt><trkpt lat="39.7917324" lon="1.2063421"><ele>0.0</ele><time>2026-04-29T22:45:58.972Z</time></trkpt><trkpt lat="39.7918069" lon="1.2063861"><ele>0.0</ele><time>2026-04-29T22:45:59.972Z</time></trkpt><trkpt lat="39.7918819" lon="1.2064392"><ele>0.0</ele><time>2026-04-29T22:46:00.972Z</time></trkpt><trkpt lat="39.7919556" lon="1.2064957"><ele>0.0</ele><time>2026-04-29T22:46:01.972Z</time></trkpt><trkpt lat="39.7921124" lon="1.2065979"><ele>0.0</ele><time>2026-04-29T22:46:03.973Z</time></trkpt><trkpt lat="39.7921901" lon="1.2066599"><ele>0.0</ele><time>2026-04-29T22:46:04.973Z</time></trkpt><trkpt lat="39.7922668" lon="1.2067132"><ele>0.0</ele><time>2026-04-29T22:46:05.972Z</time></trkpt><trkpt lat="39.7923461" lon="1.2067676"><ele>0.0</ele><time>2026-04-29T22:46:06.973Z</time></trkpt><trkpt lat="39.7925856" lon="1.2069271"><ele>0.0</ele><time>2026-04-29T22:46:09.972Z</time></trkpt><trkpt lat="39.7926644" lon="1.2069833"><ele>0.0</ele><time>2026-04-29T22:46:10.972Z</time></trkpt><trkpt lat="39.7927416" lon="1.2070458"><ele>0.0</ele><time>2026-04-29T22:46:11.972Z</time></trkpt><trkpt lat="39.7928155" lon="1.2071037"><ele>0.0</ele><time>2026-04-29T22:46:12.972Z</time></trkpt><trkpt lat="39.7928901" lon="1.207159"><ele>0.0</ele><time>2026-04-29T22:46:13.972Z</time></trkpt><trkpt lat="39.7929634" lon="1.2072181"><ele>0.0</ele><time>2026-04-29T22:46:14.973Z</time></trkpt><trkpt lat="39.7930437" lon="1.2072782"><ele>0.0</ele><time>2026-04-29T22:46:15.972Z</time></trkpt><trkpt lat="39.7931196" lon="1.2073284"><ele>0.0</ele><time>2026-04-29T22:46:16.973Z</time></trkpt><trkpt lat="39.7931963" lon="1.207374"><ele>0.0</ele><time>2026-04-29T22:46:17.972Z</time></trkpt><trkpt lat="39.7932684" lon="1.2074202"><ele>0.0</ele><time>2026-04-29T22:46:18.972Z</time></trkpt><trkpt lat="39.7933455" lon="1.2074651"><ele>0.0</ele><time>2026-04-29T22:46:19.973Z</time></trkpt><trkpt lat="39.7934325" lon="1.2075055"><ele>0.0</ele><time>2026-04-29T22:46:20.972Z</time></trkpt><trkpt lat="39.7935085" lon="1.2075613"><ele>0.0</ele><time>2026-04-29T22:46:21.972Z</time></trkpt><trkpt lat="39.7935848" lon="1.2076108"><ele>0.0</ele><time>2026-04-29T22:46:22.973Z</time></trkpt><trkpt lat="39.7937526" lon="1.2077286"><ele>0.0</ele><time>2026-04-29T22:46:24.972Z</time></trkpt><trkpt lat="39.7938332" lon="1.2077785"><ele>0.0</ele><time>2026-04-29T22:46:25.973Z</time></trkpt><trkpt lat="39.7939115" lon="1.2078346"><ele>0.0</ele><time>2026-04-29T22:46:26.972Z</time></trkpt><trkpt lat="39.7939912" lon="1.2078875"><ele>0.0</ele><time>2026-04-29T22:46:27.973Z</time></trkpt><trkpt lat="39.7940653" lon="1.2079386"><ele>0.0</ele><time>2026-04-29T22:46:28.972Z</time></trkpt><trkpt lat="39.7941319" lon="1.207994"><ele>0.0</ele><time>2026-04-29T22:46:31.139Z</time></trkpt><trkpt lat="39.7942836" lon="1.2080532"><ele>0.0</ele><time>2026-04-29T22:46:32.145Z</time></trkpt><trkpt lat="39.7944705" lon="1.2081555"><ele>0.0</ele><time>2026-04-29T22:46:34.155Z</time></trkpt><trkpt lat="39.7945585" lon="1.2082134"><ele>0.0</ele><time>2026-04-29T22:46:35.161Z</time></trkpt><trkpt lat="39.7946829" lon="1.2083437"><ele>0.0</ele><time>2026-04-29T22:46:36.972Z</time></trkpt><trkpt lat="39.7947586" lon="1.2083985"><ele>0.0</ele><time>2026-04-29T22:46:37.973Z</time></trkpt><trkpt lat="39.7948351" lon="1.2084506"><ele>0.0</ele><time>2026-04-29T22:46:38.972Z</time></trkpt><trkpt lat="39.7949143" lon="1.2085071"><ele>0.0</ele><time>2026-04-29T22:46:39.973Z</time></trkpt><trkpt lat="39.7949904" lon="1.2085585"><ele>0.0</ele><time>2026-04-29T22:46:40.972Z</time></trkpt><trkpt lat="39.7950652" lon="1.2086098"><ele>0.0</ele><time>2026-04-29T22:46:41.973Z</time></trkpt><trkpt lat="39.7951444" lon="1.2086614"><ele>0.0</ele><time>2026-04-29T22:46:42.972Z</time></trkpt><trkpt lat="39.7952302" lon="1.2087174"><ele>0.0</ele><time>2026-04-29T22:46:43.972Z</time></trkpt><trkpt lat="39.7953837" lon="1.2088227"><ele>0.0</ele><time>2026-04-29T22:46:45.972Z</time></trkpt><trkpt lat="39.7954611" lon="1.2088776"><ele>0.0</ele><time>2026-04-29T22:46:46.973Z</time></trkpt><trkpt lat="39.7955408" lon="1.2089268"><ele>0.0</ele><time>2026-04-29T22:46:47.973Z</time></trkpt><trkpt lat="39.795615" lon="1.2089822"><ele>0.0</ele><time>2026-04-29T22:46:48.972Z</time></trkpt><trkpt lat="39.79569" lon="1.2090391"><ele>0.0</ele><time>2026-04-29T22:46:49.972Z</time></trkpt><trkpt lat="39.7957663" lon="1.2091006"><ele>0.0</ele><time>2026-04-29T22:46:50.972Z</time></trkpt><trkpt lat="39.7958457" lon="1.2091654"><ele>0.0</ele><time>2026-04-29T22:46:51.973Z</time></trkpt><trkpt lat="39.7959173" lon="1.2092261"><ele>0.0</ele><time>2026-04-29T22:46:52.973Z</time></trkpt><trkpt lat="39.7959886" lon="1.2093034"><ele>0.0</ele><time>2026-04-29T22:46:53.973Z</time></trkpt><trkpt lat="39.7960647" lon="1.2093617"><ele>0.0</ele><time>2026-04-29T22:46:54.972Z</time></trkpt><trkpt lat="39.7961414" lon="1.2094183"><ele>0.0</ele><time>2026-04-29T22:46:55.972Z</time></trkpt><trkpt lat="39.7962211" lon="1.2094924"><ele>0.0</ele><time>2026-04-29T22:46:56.973Z</time></trkpt><trkpt lat="39.7962957" lon="1.2095491"><ele>0.0</ele><time>2026-04-29T22:46:57.972Z</time></trkpt><trkpt lat="39.79637" lon="1.2096096"><ele>0.0</ele><time>2026-04-29T22:46:58.973Z</time></trkpt><trkpt lat="39.7964449" lon="1.2096743"><ele>0.0</ele><time>2026-04-29T22:46:59.972Z</time></trkpt><trkpt lat="39.796524" lon="1.2097306"><ele>0.0</ele><time>2026-04-29T22:47:00.973Z</time></trkpt><trkpt lat="39.7966041" lon="1.2097782"><ele>0.0</ele><time>2026-04-29T22:47:01.972Z</time></trkpt><trkpt lat="39.7966853" lon="1.2098425"><ele>0.0</ele><time>2026-04-29T22:47:02.972Z</time></trkpt><trkpt lat="39.7967673" lon="1.2098993"><ele>0.0</ele><time>2026-04-29T22:47:03.973Z</time></trkpt><trkpt lat="39.7969979" lon="1.2100738"><ele>0.0</ele><time>2026-04-29T22:47:06.972Z</time></trkpt><trkpt lat="39.7970819" lon="1.2101149"><ele>0.0</ele><time>2026-04-29T22:47:07.973Z</time></trkpt><trkpt lat="39.7971571" lon="1.2101649"><ele>0.0</ele><time>2026-04-29T22:47:08.972Z</time></trkpt><trkpt lat="39.7972343" lon="1.210219"><ele>0.0</ele><time>2026-04-29T22:47:09.972Z</time></trkpt><trkpt lat="39.7973026" lon="1.2102942"><ele>0.0</ele><time>2026-04-29T22:47:10.972Z</time></trkpt><trkpt lat="39.7973794" lon="1.2103523"><ele>0.0</ele><time>2026-04-29T22:47:11.973Z</time></trkpt><trkpt lat="39.7974538" lon="1.2104033"><ele>0.0</ele><time>2026-04-29T22:47:12.973Z</time></trkpt><trkpt lat="39.7975241" lon="1.2104561"><ele>0.0</ele><time>2026-04-29T22:47:13.973Z</time></trkpt><trkpt lat="39.7975955" lon="1.2105107"><ele>0.0</ele><time>2026-04-29T22:47:14.972Z</time></trkpt><trkpt lat="39.7976717" lon="1.210563"><ele>0.0</ele><time>2026-04-29T22:47:15.973Z</time></trkpt><trkpt lat="39.7977516" lon="1.2106126"><ele>0.0</ele><time>2026-04-29T22:47:16.972Z</time></trkpt><trkpt lat="39.7978328" lon="1.2106657"><ele>0.0</ele><time>2026-04-29T22:47:17.973Z</time></trkpt><trkpt lat="39.7979159" lon="1.2107133"><ele>0.0</ele><time>2026-04-29T22:47:18.972Z</time></trkpt><trkpt lat="39.7979934" lon="1.2107583"><ele>0.0</ele><time>2026-04-29T22:47:19.972Z</time></trkpt><trkpt lat="39.7980672" lon="1.2108053"><ele>0.0</ele><time>2026-04-29T22:47:20.972Z</time></trkpt><trkpt lat="39.7981449" lon="1.2108606"><ele>0.0</ele><time>2026-04-29T22:47:21.973Z</time></trkpt><trkpt lat="39.7982217" lon="1.2109187"><ele>0.0</ele><time>2026-04-29T22:47:22.973Z</time></trkpt><trkpt lat="39.798303" lon="1.2109744"><ele>0.0</ele><time>2026-04-29T22:47:23.973Z</time></trkpt><trkpt lat="39.7983849" lon="1.2110309"><ele>0.0</ele><time>2026-04-29T22:47:24.972Z</time></trkpt><trkpt lat="39.7984682" lon="1.2110963"><ele>0.0</ele><time>2026-04-29T22:47:25.973Z</time></trkpt><trkpt lat="39.7986209" lon="1.2111972"><ele>0.0</ele><time>2026-04-29T22:47:27.973Z</time></trkpt><trkpt lat="39.7986928" lon="1.2112464"><ele>0.0</ele><time>2026-04-29T22:47:28.972Z</time></trkpt><trkpt lat="39.7987644" lon="1.2112933"><ele>0.0</ele><time>2026-04-29T22:47:29.972Z</time></trkpt><trkpt lat="39.7988373" lon="1.2113403"><ele>0.0</ele><time>2026-04-29T22:47:30.972Z</time></trkpt><trkpt lat="39.7989122" lon="1.2113882"><ele>0.0</ele><time>2026-04-29T22:47:31.972Z</time></trkpt><trkpt lat="39.7989885" lon="1.2114381"><ele>0.0</ele><time>2026-04-29T22:47:32.973Z</time></trkpt><trkpt lat="39.799065" lon="1.2114913"><ele>0.0</ele><time>2026-04-29T22:47:33.972Z</time></trkpt><trkpt lat="39.7991406" lon="1.2115463"><ele>0.0</ele><time>2026-04-29T22:47:34.972Z</time></trkpt><trkpt lat="39.7992209" lon="1.2115941"><ele>0.0</ele><time>2026-04-29T22:47:35.973Z</time></trkpt><trkpt lat="39.7993831" lon="1.2116917"><ele>0.0</ele><time>2026-04-29T22:47:37.972Z</time></trkpt><trkpt lat="39.7994613" lon="1.2117456"><ele>0.0</ele><time>2026-04-29T22:47:38.973Z</time></trkpt><trkpt lat="39.7995385" lon="1.2117982"><ele>0.0</ele><time>2026-04-29T22:47:39.973Z</time></trkpt><trkpt lat="39.799615" lon="1.2118529"><ele>0.0</ele><time>2026-04-29T22:47:40.973Z</time></trkpt><trkpt lat="39.7996947" lon="1.2119109"><ele>0.0</ele><time>2026-04-29T22:47:41.973Z</time></trkpt><trkpt lat="39.7997692" lon="1.2119709"><ele>0.0</ele><time>2026-04-29T22:47:42.973Z</time></trkpt><trkpt lat="39.7998394" lon="1.2120283"><ele>0.0</ele><time>2026-04-29T22:47:43.973Z</time></trkpt><trkpt lat="39.7999122" lon="1.2120832"><ele>0.0</ele><time>2026-04-29T22:47:44.973Z</time></trkpt><trkpt lat="39.7999855" lon="1.2121377"><ele>0.0</ele><time>2026-04-29T22:47:45.973Z</time></trkpt><trkpt lat="39.800063" lon="1.2121872"><ele>0.0</ele><time>2026-04-29T22:47:46.973Z</time></trkpt><trkpt lat="39.8002193" lon="1.2122858"><ele>0.0</ele><time>2026-04-29T22:47:48.972Z</time></trkpt><trkpt lat="39.8002996" lon="1.2123376"><ele>0.0</ele><time>2026-04-29T22:47:49.973Z</time></trkpt><trkpt lat="39.8003767" lon="1.2123906"><ele>0.0</ele><time>2026-04-29T22:47:50.972Z</time></trkpt><trkpt lat="39.8004545" lon="1.2124467"><ele>0.0</ele><time>2026-04-29T22:47:51.972Z</time></trkpt><trkpt lat="39.8005302" lon="1.2125005"><ele>0.0</ele><time>2026-04-29T22:47:52.973Z</time></trkpt><trkpt lat="39.8006052" lon="1.2125526"><ele>0.0</ele><time>2026-04-29T22:47:53.972Z</time></trkpt><trkpt lat="39.8006819" lon="1.2126042"><ele>0.0</ele><time>2026-04-29T22:47:54.972Z</time></trkpt><trkpt lat="39.8007599" lon="1.2126505"><ele>0.0</ele><time>2026-04-29T22:47:55.973Z</time></trkpt><trkpt lat="39.8008382" lon="1.2126929"><ele>0.0</ele><time>2026-04-29T22:47:56.973Z</time></trkpt><trkpt lat="39.8009827" lon="1.2127945"><ele>0.0</ele><time>2026-04-29T22:48:01.164Z</time></trkpt><trkpt lat="39.8011741" lon="1.2129047"><ele>0.0</ele><time>2026-04-29T22:48:02.17Z</time></trkpt><trkpt lat="39.8012613" lon="1.2129993"><ele>0.0</ele><time>2026-04-29T22:48:03.075Z</time></trkpt><trkpt lat="39.8013397" lon="1.213077"><ele>0.0</ele><time>2026-04-29T22:48:04.081Z</time></trkpt><trkpt lat="39.8014254" lon="1.2131453"><ele>0.0</ele><time>2026-04-29T22:48:05.088Z</time></trkpt><trkpt lat="39.8015197" lon="1.2132038"><ele>0.0</ele><time>2026-04-29T22:48:06.093Z</time></trkpt><trkpt lat="39.8016069" lon="1.2132572"><ele>0.0</ele><time>2026-04-29T22:48:07.1Z</time></trkpt><trkpt lat="39.8016875" lon="1.213321"><ele>0.0</ele><time>2026-04-29T22:48:08.104Z</time></trkpt><trkpt lat="39.8018454" lon="1.2134586"><ele>0.0</ele><time>2026-04-29T22:48:10.117Z</time></trkpt><trkpt lat="39.801925" lon="1.21352"><ele>0.0</ele><time>2026-04-29T22:48:11.122Z</time></trkpt><trkpt lat="39.8020134" lon="1.2135523"><ele>0.0</ele><time>2026-04-29T22:48:12.128Z</time></trkpt><trkpt lat="39.8020943" lon="1.2136076"><ele>0.0</ele><time>2026-04-29T22:48:13.133Z</time></trkpt><trkpt lat="39.8022053" lon="1.2136889"><ele>0.0</ele><time>2026-04-29T22:48:15.146Z</time></trkpt><trkpt lat="39.8023061" lon="1.2137654"><ele>0.0</ele><time>2026-04-29T22:48:16.151Z</time></trkpt><trkpt lat="39.8024015" lon="1.2138089"><ele>0.0</ele><time>2026-04-29T22:48:17.156Z</time></trkpt><trkpt lat="39.802486" lon="1.2138591"><ele>0.0</ele><time>2026-04-29T22:48:18.162Z</time></trkpt><trkpt lat="39.8025611" lon="1.2139063"><ele>0.0</ele><time>2026-04-29T22:48:19.067Z</time></trkpt><trkpt lat="39.8026407" lon="1.2139598"><ele>0.0</ele><time>2026-04-29T22:48:20.073Z</time></trkpt><trkpt lat="39.8027189" lon="1.2140245"><ele>0.0</ele><time>2026-04-29T22:48:21.08Z</time></trkpt><trkpt lat="39.80283" lon="1.2140946"><ele>0.0</ele><time>2026-04-29T22:48:23.091Z</time></trkpt><trkpt lat="39.8029335" lon="1.2141651"><ele>0.0</ele><time>2026-04-29T22:48:24.097Z</time></trkpt><trkpt lat="39.8030258" lon="1.2142124"><ele>0.0</ele><time>2026-04-29T22:48:25.103Z</time></trkpt><trkpt lat="39.8031318" lon="1.2142946"><ele>0.0</ele><time>2026-04-29T22:48:27.113Z</time></trkpt><trkpt lat="39.8032322" lon="1.214378"><ele>0.0</ele><time>2026-04-29T22:48:28.119Z</time></trkpt><trkpt lat="39.8033232" lon="1.2144384"><ele>0.0</ele><time>2026-04-29T22:48:29.125Z</time></trkpt><trkpt lat="39.8035004" lon="1.2145435"><ele>0.0</ele><time>2026-04-29T22:48:31.136Z</time></trkpt><trkpt lat="39.8036602" lon="1.2146324"><ele>0.0</ele><time>2026-04-29T22:48:33.148Z</time></trkpt><trkpt lat="39.8037759" lon="1.2147254"><ele>0.0</ele><time>2026-04-29T22:48:34.154Z</time></trkpt><trkpt lat="39.8039235" lon="1.2148089"><ele>0.0</ele><time>2026-04-29T22:48:35.973Z</time></trkpt><trkpt lat="39.8040076" lon="1.214855"><ele>0.0</ele><time>2026-04-29T22:48:36.973Z</time></trkpt><trkpt lat="39.8040883" lon="1.2148999"><ele>0.0</ele><time>2026-04-29T22:48:37.972Z</time></trkpt><trkpt lat="39.804167" lon="1.2149392"><ele>0.0</ele><time>2026-04-29T22:48:38.972Z</time></trkpt><trkpt lat="39.8043148" lon="1.2150259"><ele>0.0</ele><time>2026-04-29T22:48:40.972Z</time></trkpt><trkpt lat="39.8043834" lon="1.215067"><ele>0.0</ele><time>2026-04-29T22:48:41.972Z</time></trkpt><trkpt lat="39.8044465" lon="1.2151041"><ele>0.0</ele><time>2026-04-29T22:48:42.972Z</time></trkpt><trkpt lat="39.8045034" lon="1.2151454"><ele>0.0</ele><time>2026-04-29T22:48:43.972Z</time></trkpt><trkpt lat="39.80457" lon="1.2151917"><ele>0.0</ele><time>2026-04-29T22:48:44.973Z</time></trkpt><trkpt lat="39.8046444" lon="1.2152347"><ele>0.0</ele><time>2026-04-29T22:48:45.972Z</time></trkpt><trkpt lat="39.8047224" lon="1.2152793"><ele>0.0</ele><time>2026-04-29T22:48:46.972Z</time></trkpt><trkpt lat="39.8048021" lon="1.2153254"><ele>0.0</ele><time>2026-04-29T22:48:47.973Z</time></trkpt><trkpt lat="39.8048837" lon="1.2153862"><ele>0.0</ele><time>2026-04-29T22:48:48.972Z</time></trkpt><trkpt lat="39.8049356" lon="1.2154457"><ele>0.0</ele><time>2026-04-29T22:48:49.973Z</time></trkpt><trkpt lat="39.8051034" lon="1.2155576"><ele>0.0</ele><time>2026-04-29T22:48:51.972Z</time></trkpt><trkpt lat="39.8051936" lon="1.215612"><ele>0.0</ele><time>2026-04-29T22:48:52.973Z</time></trkpt><trkpt lat="39.8052784" lon="1.2156681"><ele>0.0</ele><time>2026-04-29T22:48:53.973Z</time></trkpt><trkpt lat="39.8053576" lon="1.2157195"><ele>0.0</ele><time>2026-04-29T22:48:54.972Z</time></trkpt><trkpt lat="39.8054315" lon="1.2157653"><ele>0.0</ele><time>2026-04-29T22:48:55.972Z</time></trkpt><trkpt lat="39.8055072" lon="1.2158115"><ele>0.0</ele><time>2026-04-29T22:48:56.973Z</time></trkpt><trkpt lat="39.8055835" lon="1.2158531"><ele>0.0</ele><time>2026-04-29T22:48:57.972Z</time></trkpt><trkpt lat="39.8056577" lon="1.2158941"><ele>0.0</ele><time>2026-04-29T22:48:58.972Z</time></trkpt><trkpt lat="39.8057349" lon="1.2159498"><ele>0.0</ele><time>2026-04-29T22:48:59.972Z</time></trkpt><trkpt lat="39.8058134" lon="1.2160026"><ele>0.0</ele><time>2026-04-29T22:49:00.971Z</time></trkpt><trkpt lat="39.8058932" lon="1.2160633"><ele>0.0</ele><time>2026-04-29T22:49:01.971Z</time></trkpt><trkpt lat="39.805987" lon="1.2161283"><ele>0.0</ele><time>2026-04-29T22:49:04.157Z</time></trkpt><trkpt lat="39.8060852" lon="1.2161416"><ele>0.0</ele><time>2026-04-29T22:49:05.162Z</time></trkpt><trkpt lat="39.8062071" lon="1.216299"><ele>0.0</ele><time>2026-04-29T22:49:05.971Z</time></trkpt><trkpt lat="39.8062838" lon="1.2163693"><ele>0.0</ele><time>2026-04-29T22:49:06.972Z</time></trkpt><trkpt lat="39.8063559" lon="1.2164257"><ele>0.0</ele><time>2026-04-29T22:49:07.971Z</time></trkpt><trkpt lat="39.806431" lon="1.216496"><ele>0.0</ele><time>2026-04-29T22:49:08.972Z</time></trkpt><trkpt lat="39.8065064" lon="1.2165668"><ele>0.0</ele><time>2026-04-29T22:49:09.971Z</time></trkpt><trkpt lat="39.8065716" lon="1.2166261"><ele>0.0</ele><time>2026-04-29T22:49:10.972Z</time></trkpt><trkpt lat="39.8067824" lon="1.2168141"><ele>0.0</ele><time>2026-04-29T22:49:13.971Z</time></trkpt><trkpt lat="39.8068606" lon="1.2168711"><ele>0.0</ele><time>2026-04-29T22:49:14.971Z</time></trkpt><trkpt lat="39.8069434" lon="1.2169252"><ele>0.0</ele><time>2026-04-29T22:49:15.971Z</time></trkpt><trkpt lat="39.8070268" lon="1.2169771"><ele>0.0</ele><time>2026-04-29T22:49:16.971Z</time></trkpt><trkpt lat="39.8071089" lon="1.2170282"><ele>0.0</ele><time>2026-04-29T22:49:17.972Z</time></trkpt><trkpt lat="39.8071895" lon="1.2170753"><ele>0.0</ele><time>2026-04-29T22:49:18.972Z</time></trkpt><trkpt lat="39.8072711" lon="1.2171237"><ele>0.0</ele><time>2026-04-29T22:49:19.971Z</time></trkpt><trkpt lat="39.8073497" lon="1.2171696"><ele>0.0</ele><time>2026-04-29T22:49:20.972Z</time></trkpt><trkpt lat="39.8074254" lon="1.2172205"><ele>0.0</ele><time>2026-04-29T22:49:21.972Z</time></trkpt><trkpt lat="39.8075008" lon="1.217272"><ele>0.0</ele><time>2026-04-29T22:49:22.971Z</time></trkpt><trkpt lat="39.8075786" lon="1.2173196"><ele>0.0</ele><time>2026-04-29T22:49:23.971Z</time></trkpt><trkpt lat="39.8076521" lon="1.2173633"><ele>0.0</ele><time>2026-04-29T22:49:24.971Z</time></trkpt><trkpt lat="39.807725" lon="1.2174043"><ele>0.0</ele><time>2026-04-29T22:49:25.971Z</time></trkpt><trkpt lat="39.8077979" lon="1.2174513"><ele>0.0</ele><time>2026-04-29T22:49:26.971Z</time></trkpt><trkpt lat="39.807874" lon="1.2175025"><ele>0.0</ele><time>2026-04-29T22:49:27.972Z</time></trkpt><trkpt lat="39.8079539" lon="1.2175562"><ele>0.0</ele><time>2026-04-29T22:49:28.972Z</time></trkpt><trkpt lat="39.8080371" lon="1.2176113"><ele>0.0</ele><time>2026-04-29T22:49:29.971Z</time></trkpt><trkpt lat="39.8081164" lon="1.2176654"><ele>0.0</ele><time>2026-04-29T22:49:30.971Z</time></trkpt><trkpt lat="39.8081946" lon="1.2177175"><ele>0.0</ele><time>2026-04-29T22:49:31.971Z</time></trkpt><trkpt lat="39.8083482" lon="1.2178179"><ele>0.0</ele><time>2026-04-29T22:49:33.971Z</time></trkpt><trkpt lat="39.8084289" lon="1.2178674"><ele>0.0</ele><time>2026-04-29T22:49:34.972Z</time></trkpt><trkpt lat="39.8085064" lon="1.21792"><ele>0.0</ele><time>2026-04-29T22:49:35.972Z</time></trkpt><trkpt lat="39.808586" lon="1.2179764"><ele>0.0</ele><time>2026-04-29T22:49:36.972Z</time></trkpt><trkpt lat="39.8086618" lon="1.2180288"><ele>0.0</ele><time>2026-04-29T22:49:37.972Z</time></trkpt><trkpt lat="39.8087348" lon="1.2180786"><ele>0.0</ele><time>2026-04-29T22:49:38.971Z</time></trkpt><trkpt lat="39.8088122" lon="1.2181298"><ele>0.0</ele><time>2026-04-29T22:49:39.972Z</time></trkpt><trkpt lat="39.8088907" lon="1.2181867"><ele>0.0</ele><time>2026-04-29T22:49:40.972Z</time></trkpt><trkpt lat="39.808969" lon="1.2182423"><ele>0.0</ele><time>2026-04-29T22:49:41.971Z</time></trkpt><trkpt lat="39.8091304" lon="1.2183722"><ele>0.0</ele><time>2026-04-29T22:49:43.972Z</time></trkpt><trkpt lat="39.8092122" lon="1.2184402"><ele>0.0</ele><time>2026-04-29T22:49:44.971Z</time></trkpt><trkpt lat="39.8092924" lon="1.2184974"><ele>0.0</ele><time>2026-04-29T22:49:45.971Z</time></trkpt><trkpt lat="39.8093737" lon="1.2185565"><ele>0.0</ele><time>2026-04-29T22:49:46.972Z</time></trkpt><trkpt lat="39.8094556" lon="1.218614"><ele>0.0</ele><time>2026-04-29T22:49:47.972Z</time></trkpt><trkpt lat="39.8095346" lon="1.2186734"><ele>0.0</ele><time>2026-04-29T22:49:48.971Z</time></trkpt><trkpt lat="39.8096161" lon="1.2187395"><ele>0.0</ele><time>2026-04-29T22:49:49.972Z</time></trkpt><trkpt lat="39.8096965" lon="1.2187935"><ele>0.0</ele><time>2026-04-29T22:49:50.972Z</time></trkpt><trkpt lat="39.8097732" lon="1.2188444"><ele>0.0</ele><time>2026-04-29T22:49:51.971Z</time></trkpt><trkpt lat="39.8098499" lon="1.2188926"><ele>0.0</ele><time>2026-04-29T22:49:52.972Z</time></trkpt><trkpt lat="39.8100195" lon="1.2189757"><ele>0.0</ele><time>2026-04-29T22:49:54.971Z</time></trkpt><trkpt lat="39.8101282" lon="1.219047"><ele>0.0</ele><time>2026-04-29T22:49:58.065Z</time></trkpt><trkpt lat="39.8103083" lon="1.2191952"><ele>0.0</ele><time>2026-04-29T22:49:59.072Z</time></trkpt><trkpt lat="39.8104074" lon="1.2192488"><ele>0.0</ele><time>2026-04-29T22:49:59.971Z</time></trkpt><trkpt lat="39.8104849" lon="1.2193018"><ele>0.0</ele><time>2026-04-29T22:50:00.972Z</time></trkpt><trkpt lat="39.8105542" lon="1.2193502"><ele>0.0</ele><time>2026-04-29T22:50:01.971Z</time></trkpt><trkpt lat="39.8106255" lon="1.219403"><ele>0.0</ele><time>2026-04-29T22:50:02.971Z</time></trkpt><trkpt lat="39.8107001" lon="1.2194568"><ele>0.0</ele><time>2026-04-29T22:50:03.971Z</time></trkpt><trkpt lat="39.8107793" lon="1.2195077"><ele>0.0</ele><time>2026-04-29T22:50:04.972Z</time></trkpt><trkpt lat="39.810855" lon="1.219559"><ele>0.0</ele><time>2026-04-29T22:50:05.971Z</time></trkpt><trkpt lat="39.8109342" lon="1.2196093"><ele>0.0</ele><time>2026-04-29T22:50:06.971Z</time></trkpt><trkpt lat="39.8110055" lon="1.2196672"><ele>0.0</ele><time>2026-04-29T22:50:07.972Z</time></trkpt><trkpt lat="39.8110771" lon="1.2197183"><ele>0.0</ele><time>2026-04-29T22:50:08.972Z</time></trkpt><trkpt lat="39.8111503" lon="1.2197686"><ele>0.0</ele><time>2026-04-29T22:50:09.972Z</time></trkpt><trkpt lat="39.8112305" lon="1.2198184"><ele>0.0</ele><time>2026-04-29T22:50:10.972Z</time></trkpt><trkpt lat="39.8113092" lon="1.2198771"><ele>0.0</ele><time>2026-04-29T22:50:11.972Z</time></trkpt><trkpt lat="39.8113918" lon="1.2199385"><ele>0.0</ele><time>2026-04-29T22:50:12.971Z</time></trkpt><trkpt lat="39.811474" lon="1.2199945"><ele>0.0</ele><time>2026-04-29T22:50:13.971Z</time></trkpt><trkpt lat="39.8117028" lon="1.2201797"><ele>0.0</ele><time>2026-04-29T22:50:16.972Z</time></trkpt><trkpt lat="39.8117725" lon="1.2202343"><ele>0.0</ele><time>2026-04-29T22:50:17.972Z</time></trkpt><trkpt lat="39.8118405" lon="1.2202903"><ele>0.0</ele><time>2026-04-29T22:50:18.971Z</time></trkpt><trkpt lat="39.8119115" lon="1.2203591"><ele>0.0</ele><time>2026-04-29T22:50:19.971Z</time></trkpt><trkpt lat="39.8119846" lon="1.2204115"><ele>0.0</ele><time>2026-04-29T22:50:20.971Z</time></trkpt><trkpt lat="39.8120595" lon="1.2204659"><ele>0.0</ele><time>2026-04-29T22:50:21.972Z</time></trkpt><trkpt lat="39.8121319" lon="1.2205272"><ele>0.0</ele><time>2026-04-29T22:50:22.972Z</time></trkpt><trkpt lat="39.8121996" lon="1.2205845"><ele>0.0</ele><time>2026-04-29T22:50:23.972Z</time></trkpt><trkpt lat="39.81233" lon="1.220595"><ele>0.0</ele><time>2026-04-29T22:50:27.161Z</time></trkpt><trkpt lat="39.8124999" lon="1.2207889"><ele>0.0</ele><time>2026-04-29T22:50:28.066Z</time></trkpt><trkpt lat="39.8126019" lon="1.2208643"><ele>0.0</ele><time>2026-04-29T22:50:29.071Z</time></trkpt><trkpt lat="39.8126911" lon="1.2209155"><ele>0.0</ele><time>2026-04-29T22:50:30.077Z</time></trkpt><trkpt lat="39.8127809" lon="1.2209743"><ele>0.0</ele><time>2026-04-29T22:50:31.082Z</time></trkpt><trkpt lat="39.8128975" lon="1.2210638"><ele>0.0</ele><time>2026-04-29T22:50:33.094Z</time></trkpt><trkpt lat="39.8130004" lon="1.221136"><ele>0.0</ele><time>2026-04-29T22:50:34.101Z</time></trkpt><trkpt lat="39.8130791" lon="1.2211869"><ele>0.0</ele><time>2026-04-29T22:50:35.106Z</time></trkpt><trkpt lat="39.8131422" lon="1.2212657"><ele>0.0</ele><time>2026-04-29T22:50:36.111Z</time></trkpt><trkpt lat="39.8132974" lon="1.2213795"><ele>0.0</ele><time>2026-04-29T22:50:38.124Z</time></trkpt><trkpt lat="39.813414" lon="1.2214433"><ele>0.0</ele><time>2026-04-29T22:50:40.135Z</time></trkpt><trkpt lat="39.8135144" lon="1.221524"><ele>0.0</ele><time>2026-04-29T22:50:41.141Z</time></trkpt><trkpt lat="39.8136139" lon="1.221555"><ele>0.0</ele><time>2026-04-29T22:50:42.147Z</time></trkpt><trkpt lat="39.8137515" lon="1.2216687"><ele>0.0</ele><time>2026-04-29T22:50:43.971Z</time></trkpt><trkpt lat="39.8138303" lon="1.2217263"><ele>0.0</ele><time>2026-04-29T22:50:44.972Z</time></trkpt><trkpt lat="39.8139113" lon="1.2217829"><ele>0.0</ele><time>2026-04-29T22:50:45.972Z</time></trkpt><trkpt lat="39.8140586" lon="1.2218922"><ele>0.0</ele><time>2026-04-29T22:50:47.971Z</time></trkpt><trkpt lat="39.8141365" lon="1.2219419"><ele>0.0</ele><time>2026-04-29T22:50:48.972Z</time></trkpt><trkpt lat="39.8142118" lon="1.2220013"><ele>0.0</ele><time>2026-04-29T22:50:49.971Z</time></trkpt><trkpt lat="39.8142912" lon="1.2220517"><ele>0.0</ele><time>2026-04-29T22:50:50.971Z</time></trkpt><trkpt lat="39.8143698" lon="1.2221114"><ele>0.0</ele><time>2026-04-29T22:50:51.972Z</time></trkpt><trkpt lat="39.8144497" lon="1.2221616"><ele>0.0</ele><time>2026-04-29T22:50:52.971Z</time></trkpt><trkpt lat="39.8145295" lon="1.2222047"><ele>0.0</ele><time>2026-04-29T22:50:53.971Z</time></trkpt><trkpt lat="39.8146109" lon="1.2222545"><ele>0.0</ele><time>2026-04-29T22:50:54.971Z</time></trkpt><trkpt lat="39.8146899" lon="1.2223134"><ele>0.0</ele><time>2026-04-29T22:50:55.971Z</time></trkpt><trkpt lat="39.8147698" lon="1.2223668"><ele>0.0</ele><time>2026-04-29T22:50:56.972Z</time></trkpt><trkpt lat="39.8149282" lon="1.2224825"><ele>0.0</ele><time>2026-04-29T22:50:58.971Z</time></trkpt><trkpt lat="39.8150041" lon="1.222539"><ele>0.0</ele><time>2026-04-29T22:50:59.971Z</time></trkpt><trkpt lat="39.8150759" lon="1.2225978"><ele>0.0</ele><time>2026-04-29T22:51:00.972Z</time></trkpt><trkpt lat="39.8151529" lon="1.2226563"><ele>0.0</ele><time>2026-04-29T22:51:01.972Z</time></trkpt><trkpt lat="39.8152298" lon="1.2227133"><ele>0.0</ele><time>2026-04-29T22:51:02.972Z</time></trkpt><trkpt lat="39.8153092" lon="1.2227628"><ele>0.0</ele><time>2026-04-29T22:51:03.971Z</time></trkpt><trkpt lat="39.815392" lon="1.222815"><ele>0.0</ele><time>2026-04-29T22:51:04.972Z</time></trkpt><trkpt lat="39.8154718" lon="1.2228726"><ele>0.0</ele><time>2026-04-29T22:51:05.972Z</time></trkpt><trkpt lat="39.8155544" lon="1.2229271"><ele>0.0</ele><time>2026-04-29T22:51:06.971Z</time></trkpt><trkpt lat="39.8156346" lon="1.2229774"><ele>0.0</ele><time>2026-04-29T22:51:07.971Z</time></trkpt><trkpt lat="39.8157117" lon="1.2230346"><ele>0.0</ele><time>2026-04-29T22:51:08.972Z</time></trkpt><trkpt lat="39.8157901" lon="1.2230896"><ele>0.0</ele><time>2026-04-29T22:51:09.972Z</time></trkpt><trkpt lat="39.8158628" lon="1.223142"><ele>0.0</ele><time>2026-04-29T22:51:10.971Z</time></trkpt><trkpt lat="39.815934" lon="1.2231991"><ele>0.0</ele><time>2026-04-29T22:51:11.971Z</time></trkpt><trkpt lat="39.8160115" lon="1.2232546"><ele>0.0</ele><time>2026-04-29T22:51:12.972Z</time></trkpt><trkpt lat="39.8160897" lon="1.2233088"><ele>0.0</ele><time>2026-04-29T22:51:13.971Z</time></trkpt><trkpt lat="39.8161633" lon="1.2233617"><ele>0.0</ele><time>2026-04-29T22:51:14.972Z</time></trkpt><trkpt lat="39.8162339" lon="1.2234144"><ele>0.0</ele><time>2026-04-29T22:51:15.971Z</time></trkpt><trkpt lat="39.8163125" lon="1.2234662"><ele>0.0</ele><time>2026-04-29T22:51:16.972Z</time></trkpt><trkpt lat="39.8163901" lon="1.2235155"><ele>0.0</ele><time>2026-04-29T22:51:17.972Z</time></trkpt><trkpt lat="39.8166118" lon="1.2236721"><ele>0.0</ele><time>2026-04-29T22:51:20.971Z</time></trkpt><trkpt lat="39.8166826" lon="1.223725"><ele>0.0</ele><time>2026-04-29T22:51:21.971Z</time></trkpt><trkpt lat="39.8167536" lon="1.2237842"><ele>0.0</ele><time>2026-04-29T22:51:22.971Z</time></trkpt><trkpt lat="39.8168199" lon="1.2238462"><ele>0.0</ele><time>2026-04-29T22:51:23.971Z</time></trkpt><trkpt lat="39.8168848" lon="1.2239008"><ele>0.0</ele><time>2026-04-29T22:51:24.971Z</time></trkpt><trkpt lat="39.8169564" lon="1.2239593"><ele>0.0</ele><time>2026-04-29T22:51:25.971Z</time></trkpt><trkpt lat="39.8170356" lon="1.2240177"><ele>0.0</ele><time>2026-04-29T22:51:26.971Z</time></trkpt><trkpt lat="39.8171145" lon="1.224069"><ele>0.0</ele><time>2026-04-29T22:51:27.971Z</time></trkpt><trkpt lat="39.8171917" lon="1.2241303"><ele>0.0</ele><time>2026-04-29T22:51:28.971Z</time></trkpt><trkpt lat="39.8172644" lon="1.2241962"><ele>0.0</ele><time>2026-04-29T22:51:29.972Z</time></trkpt><trkpt lat="39.8173433" lon="1.2242571"><ele>0.0</ele><time>2026-04-29T22:51:30.971Z</time></trkpt><trkpt lat="39.8174204" lon="1.2243202"><ele>0.0</ele><time>2026-04-29T22:51:31.971Z</time></trkpt><trkpt lat="39.8175001" lon="1.2243751"><ele>0.0</ele><time>2026-04-29T22:51:32.972Z</time></trkpt><trkpt lat="39.8175779" lon="1.2244288"><ele>0.0</ele><time>2026-04-29T22:51:33.972Z</time></trkpt><trkpt lat="39.8176575" lon="1.224478"><ele>0.0</ele><time>2026-04-29T22:51:34.972Z</time></trkpt><trkpt lat="39.8177392" lon="1.2245373"><ele>0.0</ele><time>2026-04-29T22:51:35.971Z</time></trkpt><trkpt lat="39.8178197" lon="1.2245906"><ele>0.0</ele><time>2026-04-29T22:51:36.972Z</time></trkpt><trkpt lat="39.8178981" lon="1.2246399"><ele>0.0</ele><time>2026-04-29T22:51:37.972Z</time></trkpt><trkpt lat="39.8179737" lon="1.2246979"><ele>0.0</ele><time>2026-04-29T22:51:38.971Z</time></trkpt><trkpt lat="39.8181298" lon="1.2248138"><ele>0.0</ele><time>2026-04-29T22:51:40.971Z</time></trkpt><trkpt lat="39.8182053" lon="1.2248696"><ele>0.0</ele><time>2026-04-29T22:51:41.971Z</time></trkpt><trkpt lat="39.8182743" lon="1.2249272"><ele>0.0</ele><time>2026-04-29T22:51:42.972Z</time></trkpt><trkpt lat="39.8183483" lon="1.2249716"><ele>0.0</ele><time>2026-04-29T22:51:43.971Z</time></trkpt><trkpt lat="39.8184265" lon="1.2250268"><ele>0.0</ele><time>2026-04-29T22:51:44.971Z</time></trkpt><trkpt lat="39.8185119" lon="1.2250808"><ele>0.0</ele><time>2026-04-29T22:51:45.972Z</time></trkpt><trkpt lat="39.8185933" lon="1.2251357"><ele>0.0</ele><time>2026-04-29T22:51:46.971Z</time></trkpt><trkpt lat="39.8186774" lon="1.2251883"><ele>0.0</ele><time>2026-04-29T22:51:47.972Z</time></trkpt><trkpt lat="39.8187584" lon="1.2252164"><ele>0.0</ele><time>2026-04-29T22:51:48.971Z</time></trkpt><trkpt lat="39.8188322" lon="1.2252568"><ele>0.0</ele><time>2026-04-29T22:51:49.971Z</time></trkpt><trkpt lat="39.8189975" lon="1.2253698"><ele>0.0</ele><time>2026-04-29T22:51:51.971Z</time></trkpt><trkpt lat="39.819078" lon="1.2254182"><ele>0.0</ele><time>2026-04-29T22:51:52.971Z</time></trkpt><trkpt lat="39.819155" lon="1.225465"><ele>0.0</ele><time>2026-04-29T22:51:53.971Z</time></trkpt><trkpt lat="39.819233" lon="1.2255165"><ele>0.0</ele><time>2026-04-29T22:51:54.971Z</time></trkpt><trkpt lat="39.8193073" lon="1.225574"><ele>0.0</ele><time>2026-04-29T22:51:55.972Z</time></trkpt><trkpt lat="39.8193803" lon="1.22563"><ele>0.0</ele><time>2026-04-29T22:51:56.971Z</time></trkpt><trkpt lat="39.8194577" lon="1.225689"><ele>0.0</ele><time>2026-04-29T22:51:57.971Z</time></trkpt><trkpt lat="39.8195378" lon="1.2257425"><ele>0.0</ele><time>2026-04-29T22:51:58.972Z</time></trkpt><trkpt lat="39.8196206" lon="1.225794"><ele>0.0</ele><time>2026-04-29T22:51:59.971Z</time></trkpt><trkpt lat="39.8197819" lon="1.2258879"><ele>0.0</ele><time>2026-04-29T22:52:01.972Z</time></trkpt><trkpt lat="39.8198591" lon="1.225945"><ele>0.0</ele><time>2026-04-29T22:52:02.972Z</time></trkpt><trkpt lat="39.819937" lon="1.2259997"><ele>0.0</ele><time>2026-04-29T22:52:03.971Z</time></trkpt><trkpt lat="39.8200151" lon="1.2260503"><ele>0.0</ele><time>2026-04-29T22:52:04.972Z</time></trkpt><trkpt lat="39.8200931" lon="1.2261062"><ele>0.0</ele><time>2026-04-29T22:52:05.972Z</time></trkpt><trkpt lat="39.8201688" lon="1.2261576"><ele>0.0</ele><time>2026-04-29T22:52:06.972Z</time></trkpt><trkpt lat="39.8202448" lon="1.2262032"><ele>0.0</ele><time>2026-04-29T22:52:07.971Z</time></trkpt><trkpt lat="39.8203201" lon="1.226254"><ele>0.0</ele><time>2026-04-29T22:52:08.971Z</time></trkpt><trkpt lat="39.8203968" lon="1.2263057"><ele>0.0</ele><time>2026-04-29T22:52:09.971Z</time></trkpt><trkpt lat="39.8204752" lon="1.2263528"><ele>0.0</ele><time>2026-04-29T22:52:10.972Z</time></trkpt><trkpt lat="39.820552" lon="1.2264004"><ele>0.0</ele><time>2026-04-29T22:52:11.972Z</time></trkpt><trkpt lat="39.8206388" lon="1.2264448"><ele>0.0</ele><time>2026-04-29T22:52:12.971Z</time></trkpt><trkpt lat="39.8207188" lon="1.2265021"><ele>0.0</ele><time>2026-04-29T22:52:13.971Z</time></trkpt><trkpt lat="39.8207969" lon="1.2265535"><ele>0.0</ele><time>2026-04-29T22:52:14.972Z</time></trkpt><trkpt lat="39.8208707" lon="1.2266033"><ele>0.0</ele><time>2026-04-29T22:52:15.972Z</time></trkpt><trkpt lat="39.8209434" lon="1.2266576"><ele>0.0</ele><time>2026-04-29T22:52:16.972Z</time></trkpt><trkpt lat="39.8210168" lon="1.2267292"><ele>0.0</ele><time>2026-04-29T22:52:17.971Z</time></trkpt><trkpt lat="39.8210931" lon="1.2267904"><ele>0.0</ele><time>2026-04-29T22:52:18.972Z</time></trkpt><trkpt lat="39.821171" lon="1.2268459"><ele>0.0</ele><time>2026-04-29T22:52:19.971Z</time></trkpt><trkpt lat="39.8212453" lon="1.2268983"><ele>0.0</ele><time>2026-04-29T22:52:20.971Z</time></trkpt><trkpt lat="39.8213216" lon="1.2269477"><ele>0.0</ele><time>2026-04-29T22:52:21.971Z</time></trkpt><trkpt lat="39.8214721" lon="1.2270388"><ele>0.0</ele><time>2026-04-29T22:52:23.971Z</time></trkpt><trkpt lat="39.8215448" lon="1.2270812"><ele>0.0</ele><time>2026-04-29T22:52:24.971Z</time></trkpt><trkpt lat="39.8216223" lon="1.2271225"><ele>0.0</ele><time>2026-04-29T22:52:25.972Z</time></trkpt><trkpt lat="39.8217024" lon="1.2271686"><ele>0.0</ele><time>2026-04-29T22:52:26.972Z</time></trkpt><trkpt lat="39.8217687" lon="1.2272378"><ele>0.0</ele><time>2026-04-29T22:52:27.971Z</time></trkpt><trkpt lat="39.8218477" lon="1.2272854"><ele>0.0</ele><time>2026-04-29T22:52:28.972Z</time></trkpt><trkpt lat="39.8219249" lon="1.2273377"><ele>0.0</ele><time>2026-04-29T22:52:29.971Z</time></trkpt><trkpt lat="39.8220018" lon="1.2273856"><ele>0.0</ele><time>2026-04-29T22:52:30.971Z</time></trkpt><trkpt lat="39.8220824" lon="1.2274309"><ele>0.0</ele><time>2026-04-29T22:52:31.972Z</time></trkpt><trkpt lat="39.8221716" lon="1.2274729"><ele>0.0</ele><time>2026-04-29T22:52:32.971Z</time></trkpt><trkpt lat="39.8222503" lon="1.2275218"><ele>0.0</ele><time>2026-04-29T22:52:33.971Z</time></trkpt><trkpt lat="39.8223221" lon="1.2275729"><ele>0.0</ele><time>2026-04-29T22:52:34.971Z</time></trkpt><trkpt lat="39.8224013" lon="1.2276248"><ele>0.0</ele><time>2026-04-29T22:52:35.972Z</time></trkpt><trkpt lat="39.8224758" lon="1.2276838"><ele>0.0</ele><time>2026-04-29T22:52:36.971Z</time></trkpt><trkpt lat="39.8225547" lon="1.2277399"><ele>0.0</ele><time>2026-04-29T22:52:37.971Z</time></trkpt><trkpt lat="39.8226326" lon="1.2277916"><ele>0.0</ele><time>2026-04-29T22:52:38.972Z</time></trkpt><trkpt lat="39.8227097" lon="1.2278488"><ele>0.0</ele><time>2026-04-29T22:52:39.971Z</time></trkpt><trkpt lat="39.8227879" lon="1.2279118"><ele>0.0</ele><time>2026-04-29T22:52:40.972Z</time></trkpt><trkpt lat="39.8228709" lon="1.2279686"><ele>0.0</ele><time>2026-04-29T22:52:41.972Z</time></trkpt><trkpt lat="39.8229569" lon="1.2280222"><ele>0.0</ele><time>2026-04-29T22:52:42.972Z</time></trkpt><trkpt lat="39.8231173" lon="1.2281221"><ele>0.0</ele><time>2026-04-29T22:52:44.971Z</time></trkpt><trkpt lat="39.8232004" lon="1.2281661"><ele>0.0</ele><time>2026-04-29T22:52:45.971Z</time></trkpt><trkpt lat="39.8232853" lon="1.2282094"><ele>0.0</ele><time>2026-04-29T22:52:46.972Z</time></trkpt><trkpt lat="39.8233649" lon="1.2282596"><ele>0.0</ele><time>2026-04-29T22:52:47.972Z</time></trkpt><trkpt lat="39.8234498" lon="1.2283104"><ele>0.0</ele><time>2026-04-29T22:52:48.972Z</time></trkpt><trkpt lat="39.8235302" lon="1.2283646"><ele>0.0</ele><time>2026-04-29T22:52:49.972Z</time></trkpt><trkpt lat="39.8236088" lon="1.2284198"><ele>0.0</ele><time>2026-04-29T22:52:50.971Z</time></trkpt><trkpt lat="39.8236885" lon="1.2284765"><ele>0.0</ele><time>2026-04-29T22:52:51.971Z</time></trkpt><trkpt lat="39.8237629" lon="1.2285308"><ele>0.0</ele><time>2026-04-29T22:52:52.971Z</time></trkpt><trkpt lat="39.8238342" lon="1.2285824"><ele>0.0</ele><time>2026-04-29T22:52:53.971Z</time></trkpt><trkpt lat="39.823988" lon="1.2287047"><ele>0.0</ele><time>2026-04-29T22:52:55.972Z</time></trkpt><trkpt lat="39.8240595" lon="1.2287616"><ele>0.0</ele><time>2026-04-29T22:52:56.972Z</time></trkpt><trkpt lat="39.8241318" lon="1.2288134"><ele>0.0</ele><time>2026-04-29T22:52:57.971Z</time></trkpt><trkpt lat="39.8242048" lon="1.2288651"><ele>0.0</ele><time>2026-04-29T22:52:58.972Z</time></trkpt><trkpt lat="39.8242766" lon="1.2289219"><ele>0.0</ele><time>2026-04-29T22:52:59.972Z</time></trkpt><trkpt lat="39.8243475" lon="1.2289812"><ele>0.0</ele><time>2026-04-29T22:53:00.971Z</time></trkpt><trkpt lat="39.8244175" lon="1.2290381"><ele>0.0</ele><time>2026-04-29T22:53:01.971Z</time></trkpt><trkpt lat="39.824489" lon="1.2291063"><ele>0.0</ele><time>2026-04-29T22:53:02.971Z</time></trkpt><trkpt lat="39.8245559" lon="1.2291589"><ele>0.0</ele><time>2026-04-29T22:53:03.972Z</time></trkpt><trkpt lat="39.8247076" lon="1.2292791"><ele>0.0</ele><time>2026-04-29T22:53:05.972Z</time></trkpt><trkpt lat="39.8247847" lon="1.2293362"><ele>0.0</ele><time>2026-04-29T22:53:06.971Z</time></trkpt><trkpt lat="39.8248598" lon="1.2293906"><ele>0.0</ele><time>2026-04-29T22:53:07.971Z</time></trkpt><trkpt lat="39.8249334" lon="1.2294428"><ele>0.0</ele><time>2026-04-29T22:53:08.971Z</time></trkpt><trkpt lat="39.8250137" lon="1.2294943"><ele>0.0</ele><time>2026-04-29T22:53:09.97Z</time></trkpt><trkpt lat="39.8251014" lon="1.2295557"><ele>0.0</ele><time>2026-04-29T22:53:10.97Z</time></trkpt><trkpt lat="39.825184" lon="1.2296183"><ele>0.0</ele><time>2026-04-29T22:53:11.971Z</time></trkpt><trkpt lat="39.8252627" lon="1.2296655"><ele>0.0</ele><time>2026-04-29T22:53:12.971Z</time></trkpt><trkpt lat="39.8253399" lon="1.2297117"><ele>0.0</ele><time>2026-04-29T22:53:13.97Z</time></trkpt><trkpt lat="39.8254174" lon="1.2297617"><ele>0.0</ele><time>2026-04-29T22:53:14.97Z</time></trkpt><trkpt lat="39.8254948" lon="1.2298079"><ele>0.0</ele><time>2026-04-29T22:53:15.971Z</time></trkpt><trkpt lat="39.8255715" lon="1.229867"><ele>0.0</ele><time>2026-04-29T22:53:16.971Z</time></trkpt><trkpt lat="39.825654" lon="1.2299169"><ele>0.0</ele><time>2026-04-29T22:53:17.97Z</time></trkpt><trkpt lat="39.8257385" lon="1.2299685"><ele>0.0</ele><time>2026-04-29T22:53:18.971Z</time></trkpt><trkpt lat="39.8258242" lon="1.2300204"><ele>0.0</ele><time>2026-04-29T22:53:19.97Z</time></trkpt><trkpt lat="39.8259077" lon="1.2300677"><ele>0.0</ele><time>2026-04-29T22:53:20.971Z</time></trkpt><trkpt lat="39.8259868" lon="1.2301159"><ele>0.0</ele><time>2026-04-29T22:53:21.971Z</time></trkpt><trkpt lat="39.8260607" lon="1.2301597"><ele>0.0</ele><time>2026-04-29T22:53:22.97Z</time></trkpt><trkpt lat="39.826132" lon="1.2302038"><ele>0.0</ele><time>2026-04-29T22:53:23.971Z</time></trkpt><trkpt lat="39.8262036" lon="1.2302518"><ele>0.0</ele><time>2026-04-29T22:53:24.97Z</time></trkpt><trkpt lat="39.826278" lon="1.2303103"><ele>0.0</ele><time>2026-04-29T22:53:25.97Z</time></trkpt><trkpt lat="39.8264973" lon="1.230505"><ele>0.0</ele><time>2026-04-29T22:53:28.97Z</time></trkpt><trkpt lat="39.8265752" lon="1.2305524"><ele>0.0</ele><time>2026-04-29T22:53:29.971Z</time></trkpt><trkpt lat="39.8266556" lon="1.2306023"><ele>0.0</ele><time>2026-04-29T22:53:30.97Z</time></trkpt><trkpt lat="39.8267331" lon="1.2306451"><ele>0.0</ele><time>2026-04-29T22:53:31.971Z</time></trkpt><trkpt lat="39.8268123" lon="1.2306886"><ele>0.0</ele><time>2026-04-29T22:53:32.97Z</time></trkpt><trkpt lat="39.8268923" lon="1.2307397"><ele>0.0</ele><time>2026-04-29T22:53:33.97Z</time></trkpt><trkpt lat="39.8269724" lon="1.2307856"><ele>0.0</ele><time>2026-04-29T22:53:34.97Z</time></trkpt><trkpt lat="39.8270513" lon="1.2308388"><ele>0.0</ele><time>2026-04-29T22:53:35.97Z</time></trkpt><trkpt lat="39.8271315" lon="1.2308926"><ele>0.0</ele><time>2026-04-29T22:53:36.971Z</time></trkpt><trkpt lat="39.8272115" lon="1.2309376"><ele>0.0</ele><time>2026-04-29T22:53:37.971Z</time></trkpt><trkpt lat="39.8272926" lon="1.2309877"><ele>0.0</ele><time>2026-04-29T22:53:38.971Z</time></trkpt><trkpt lat="39.8273732" lon="1.2310341"><ele>0.0</ele><time>2026-04-29T22:53:39.97Z</time></trkpt><trkpt lat="39.8274519" lon="1.2310835"><ele>0.0</ele><time>2026-04-29T22:53:40.97Z</time></trkpt><trkpt lat="39.8275285" lon="1.2311283"><ele>0.0</ele><time>2026-04-29T22:53:41.97Z</time></trkpt><trkpt lat="39.8276091" lon="1.2311719"><ele>0.0</ele><time>2026-04-29T22:53:42.971Z</time></trkpt><trkpt lat="39.8276837" lon="1.2312219"><ele>0.0</ele><time>2026-04-29T22:53:43.971Z</time></trkpt><trkpt lat="39.8277626" lon="1.2312776"><ele>0.0</ele><time>2026-04-29T22:53:44.971Z</time></trkpt><trkpt lat="39.8278344" lon="1.2313179"><ele>0.0</ele><time>2026-04-29T22:53:45.97Z</time></trkpt><trkpt lat="39.8279064" lon="1.2313619"><ele>0.0</ele><time>2026-04-29T22:53:46.97Z</time></trkpt><trkpt lat="39.8279814" lon="1.2314058"><ele>0.0</ele><time>2026-04-29T22:53:47.971Z</time></trkpt><trkpt lat="39.8281416" lon="1.2314951"><ele>0.0</ele><time>2026-04-29T22:53:49.97Z</time></trkpt><trkpt lat="39.8282139" lon="1.2315454"><ele>0.0</ele><time>2026-04-29T22:53:50.97Z</time></trkpt><trkpt lat="39.8282856" lon="1.2315894"><ele>0.0</ele><time>2026-04-29T22:53:51.971Z</time></trkpt><trkpt lat="39.8283599" lon="1.2316295"><ele>0.0</ele><time>2026-04-29T22:53:52.971Z</time></trkpt><trkpt lat="39.8284386" lon="1.2316734"><ele>0.0</ele><time>2026-04-29T22:53:53.971Z</time></trkpt><trkpt lat="39.8285208" lon="1.2317215"><ele>0.0</ele><time>2026-04-29T22:53:54.97Z</time></trkpt><trkpt lat="39.8286029" lon="1.2317697"><ele>0.0</ele><time>2026-04-29T22:53:55.97Z</time></trkpt><trkpt lat="39.8286801" lon="1.2318122"><ele>0.0</ele><time>2026-04-29T22:53:56.97Z</time></trkpt><trkpt lat="39.8287578" lon="1.2318523"><ele>0.0</ele><time>2026-04-29T22:53:57.97Z</time></trkpt><trkpt lat="39.8289086" lon="1.2319695"><ele>0.0</ele><time>2026-04-29T22:53:59.97Z</time></trkpt><trkpt lat="39.8289751" lon="1.2320646"><ele>0.0</ele><time>2026-04-29T22:54:00.971Z</time></trkpt><trkpt lat="39.8290501" lon="1.2321559"><ele>0.0</ele><time>2026-04-29T22:54:01.97Z</time></trkpt><trkpt lat="39.8291307" lon="1.2322255"><ele>0.0</ele><time>2026-04-29T22:54:02.97Z</time></trkpt><trkpt lat="39.8292079" lon="1.2322884"><ele>0.0</ele><time>2026-04-29T22:54:03.971Z</time></trkpt><trkpt lat="39.8292774" lon="1.2323399"><ele>0.0</ele><time>2026-04-29T22:54:04.97Z</time></trkpt><trkpt lat="39.8293498" lon="1.2323938"><ele>0.0</ele><time>2026-04-29T22:54:05.971Z</time></trkpt><trkpt lat="39.8294308" lon="1.2324537"><ele>0.0</ele><time>2026-04-29T22:54:06.97Z</time></trkpt><trkpt lat="39.8295128" lon="1.2325197"><ele>0.0</ele><time>2026-04-29T22:54:07.97Z</time></trkpt><trkpt lat="39.829593" lon="1.2325711"><ele>0.0</ele><time>2026-04-29T22:54:08.97Z</time></trkpt><trkpt lat="39.8297494" lon="1.2326687"><ele>0.0</ele><time>2026-04-29T22:54:10.971Z</time></trkpt><trkpt lat="39.8298358" lon="1.2327166"><ele>0.0</ele><time>2026-04-29T22:54:11.97Z</time></trkpt><trkpt lat="39.8299184" lon="1.2327703"><ele>0.0</ele><time>2026-04-29T22:54:12.971Z</time></trkpt><trkpt lat="39.8300015" lon="1.2328302"><ele>0.0</ele><time>2026-04-29T22:54:13.97Z</time></trkpt><trkpt lat="39.8300839" lon="1.2328835"><ele>0.0</ele><time>2026-04-29T22:54:14.97Z</time></trkpt><trkpt lat="39.830167" lon="1.2329353"><ele>0.0</ele><time>2026-04-29T22:54:15.97Z</time></trkpt><trkpt lat="39.8302431" lon="1.2329856"><ele>0.0</ele><time>2026-04-29T22:54:16.971Z</time></trkpt><trkpt lat="39.8303177" lon="1.2330338"><ele>0.0</ele><time>2026-04-29T22:54:17.971Z</time></trkpt><trkpt lat="39.8303906" lon="1.233088"><ele>0.0</ele><time>2026-04-29T22:54:18.971Z</time></trkpt><trkpt lat="39.8304668" lon="1.233143"><ele>0.0</ele><time>2026-04-29T22:54:19.97Z</time></trkpt><trkpt lat="39.8305489" lon="1.2332126"><ele>0.0</ele><time>2026-04-29T22:54:20.971Z</time></trkpt><trkpt lat="39.8306259" lon="1.233264"><ele>0.0</ele><time>2026-04-29T22:54:21.97Z</time></trkpt><trkpt lat="39.8307052" lon="1.2333266"><ele>0.0</ele><time>2026-04-29T22:54:22.97Z</time></trkpt><trkpt lat="39.8307832" lon="1.2333768"><ele>0.0</ele><time>2026-04-29T22:54:23.971Z</time></trkpt><trkpt lat="39.8308587" lon="1.2334249"><ele>0.0</ele><time>2026-04-29T22:54:24.97Z</time></trkpt><trkpt lat="39.8309325" lon="1.2334757"><ele>0.0</ele><time>2026-04-29T22:54:25.97Z</time></trkpt><trkpt lat="39.8310058" lon="1.233525"><ele>0.0</ele><time>2026-04-29T22:54:26.971Z</time></trkpt><trkpt lat="39.8310802" lon="1.2335732"><ele>0.0</ele><time>2026-04-29T22:54:27.97Z</time></trkpt><trkpt lat="39.8311553" lon="1.2336245"><ele>0.0</ele><time>2026-04-29T22:54:28.971Z</time></trkpt><trkpt lat="39.8312303" lon="1.2336716"><ele>0.0</ele><time>2026-04-29T22:54:29.97Z</time></trkpt><trkpt lat="39.8313782" lon="1.2337807"><ele>0.0</ele><time>2026-04-29T22:54:31.97Z</time></trkpt><trkpt lat="39.8314537" lon="1.2338332"><ele>0.0</ele><time>2026-04-29T22:54:32.97Z</time></trkpt><trkpt lat="39.8315312" lon="1.2338764"><ele>0.0</ele><time>2026-04-29T22:54:33.97Z</time></trkpt><trkpt lat="39.8316052" lon="1.2339218"><ele>0.0</ele><time>2026-04-29T22:54:34.97Z</time></trkpt><trkpt lat="39.8316788" lon="1.2339785"><ele>0.0</ele><time>2026-04-29T22:54:35.971Z</time></trkpt><trkpt lat="39.831758" lon="1.2340314"><ele>0.0</ele><time>2026-04-29T22:54:36.971Z</time></trkpt><trkpt lat="39.8318394" lon="1.2340946"><ele>0.0</ele><time>2026-04-29T22:54:37.971Z</time></trkpt><trkpt lat="39.8319253" lon="1.234154"><ele>0.0</ele><time>2026-04-29T22:54:38.971Z</time></trkpt><trkpt lat="39.8320064" lon="1.2342149"><ele>0.0</ele><time>2026-04-29T22:54:39.97Z</time></trkpt><trkpt lat="39.8320892" lon="1.2342765"><ele>0.0</ele><time>2026-04-29T22:54:40.971Z</time></trkpt><trkpt lat="39.8321638" lon="1.2343368"><ele>0.0</ele><time>2026-04-29T22:54:41.971Z</time></trkpt><trkpt lat="39.8322381" lon="1.2343942"><ele>0.0</ele><time>2026-04-29T22:54:42.971Z</time></trkpt><trkpt lat="39.8323187" lon="1.2344605"><ele>0.0</ele><time>2026-04-29T22:54:43.971Z</time></trkpt><trkpt lat="39.8323997" lon="1.2345224"><ele>0.0</ele><time>2026-04-29T22:54:44.97Z</time></trkpt><trkpt lat="39.8324738" lon="1.2345836"><ele>0.0</ele><time>2026-04-29T22:54:45.97Z</time></trkpt><trkpt lat="39.8325484" lon="1.2346405"><ele>0.0</ele><time>2026-04-29T22:54:46.97Z</time></trkpt><trkpt lat="39.8326191" lon="1.2346971"><ele>0.0</ele><time>2026-04-29T22:54:47.971Z</time></trkpt><trkpt lat="39.8326901" lon="1.2347492"><ele>0.0</ele><time>2026-04-29T22:54:48.97Z</time></trkpt><trkpt lat="39.8327656" lon="1.2348063"><ele>0.0</ele><time>2026-04-29T22:54:49.97Z</time></trkpt><trkpt lat="39.8328456" lon="1.2348666"><ele>0.0</ele><time>2026-04-29T22:54:50.97Z</time></trkpt><trkpt lat="39.8329907" lon="1.2349983"><ele>0.0</ele><time>2026-04-29T22:54:52.97Z</time></trkpt><trkpt lat="39.8330659" lon="1.2350543"><ele>0.0</ele><time>2026-04-29T22:54:53.971Z</time></trkpt><trkpt lat="39.8331411" lon="1.2351101"><ele>0.0</ele><time>2026-04-29T22:54:54.971Z</time></trkpt><trkpt lat="39.8332209" lon="1.2351571"><ele>0.0</ele><time>2026-04-29T22:54:55.971Z</time></trkpt><trkpt lat="39.8333004" lon="1.2351986"><ele>0.0</ele><time>2026-04-29T22:54:56.97Z</time></trkpt><trkpt lat="39.8333805" lon="1.235242"><ele>0.0</ele><time>2026-04-29T22:54:57.97Z</time></trkpt><trkpt lat="39.8334597" lon="1.2352874"><ele>0.0</ele><time>2026-04-29T22:54:58.971Z</time></trkpt><trkpt lat="39.8335423" lon="1.2353352"><ele>0.0</ele><time>2026-04-29T22:54:59.97Z</time></trkpt><trkpt lat="39.8336232" lon="1.2353824"><ele>0.0</ele><time>2026-04-29T22:55:00.971Z</time></trkpt><trkpt lat="39.8337046" lon="1.2354358"><ele>0.0</ele><time>2026-04-29T22:55:01.97Z</time></trkpt><trkpt lat="39.8338577" lon="1.2355409"><ele>0.0</ele><time>2026-04-29T22:55:03.97Z</time></trkpt><trkpt lat="39.8339358" lon="1.2355916"><ele>0.0</ele><time>2026-04-29T22:55:04.971Z</time></trkpt><trkpt lat="39.8340134" lon="1.235649"><ele>0.0</ele><time>2026-04-29T22:55:05.971Z</time></trkpt><trkpt lat="39.8340967" lon="1.2356943"><ele>0.0</ele><time>2026-04-29T22:55:06.97Z</time></trkpt><trkpt lat="39.8341759" lon="1.2357375"><ele>0.0</ele><time>2026-04-29T22:55:07.97Z</time></trkpt><trkpt lat="39.8342542" lon="1.235799"><ele>0.0</ele><time>2026-04-29T22:55:08.97Z</time></trkpt><trkpt lat="39.8343347" lon="1.2358484"><ele>0.0</ele><time>2026-04-29T22:55:09.97Z</time></trkpt><trkpt lat="39.834412" lon="1.2358983"><ele>0.0</ele><time>2026-04-29T22:55:10.971Z</time></trkpt><trkpt lat="39.834483" lon="1.2359455"><ele>0.0</ele><time>2026-04-29T22:55:11.97Z</time></trkpt><trkpt lat="39.8346125" lon="1.2360433"><ele>0.0</ele><time>2026-04-29T22:55:13.97Z</time></trkpt><trkpt lat="39.8346849" lon="1.2360905"><ele>0.0</ele><time>2026-04-29T22:55:14.97Z</time></trkpt><trkpt lat="39.8347599" lon="1.2361442"><ele>0.0</ele><time>2026-04-29T22:55:15.971Z</time></trkpt><trkpt lat="39.8348313" lon="1.2361984"><ele>0.0</ele><time>2026-04-29T22:55:16.971Z</time></trkpt><trkpt lat="39.8349024" lon="1.2362455"><ele>0.0</ele><time>2026-04-29T22:55:17.971Z</time></trkpt><trkpt lat="39.8349735" lon="1.2363027"><ele>0.0</ele><time>2026-04-29T22:55:18.97Z</time></trkpt><trkpt lat="39.8350513" lon="1.2363727"><ele>0.0</ele><time>2026-04-29T22:55:19.971Z</time></trkpt><trkpt lat="39.8351348" lon="1.2364416"><ele>0.0</ele><time>2026-04-29T22:55:20.971Z</time></trkpt><trkpt lat="39.8352105" lon="1.2365063"><ele>0.0</ele><time>2026-04-29T22:55:21.971Z</time></trkpt><trkpt lat="39.8352843" lon="1.2365634"><ele>0.0</ele><time>2026-04-29T22:55:22.97Z</time></trkpt><trkpt lat="39.8353642" lon="1.2366254"><ele>0.0</ele><time>2026-04-29T22:55:23.97Z</time></trkpt><trkpt lat="39.835442" lon="1.2366924"><ele>0.0</ele><time>2026-04-29T22:55:24.971Z</time></trkpt><trkpt lat="39.8355214" lon="1.2367597"><ele>0.0</ele><time>2026-04-29T22:55:25.97Z</time></trkpt><trkpt lat="39.8355928" lon="1.236869"><ele>0.0</ele><time>2026-04-29T22:55:26.971Z</time></trkpt><trkpt lat="39.8356783" lon="1.2369379"><ele>0.0</ele><time>2026-04-29T22:55:27.97Z</time></trkpt><trkpt lat="39.8357694" lon="1.2370016"><ele>0.0</ele><time>2026-04-29T22:55:28.97Z</time></trkpt><trkpt lat="39.8358572" lon="1.2370696"><ele>0.0</ele><time>2026-04-29T22:55:29.97Z</time></trkpt><trkpt lat="39.8359338" lon="1.2371277"><ele>0.0</ele><time>2026-04-29T22:55:30.971Z</time></trkpt><trkpt lat="39.8360118" lon="1.2371919"><ele>0.0</ele><time>2026-04-29T22:55:31.971Z</time></trkpt><trkpt lat="39.8360876" lon="1.2372521"><ele>0.0</ele><time>2026-04-29T22:55:32.971Z</time></trkpt><trkpt lat="39.8361609" lon="1.2373063"><ele>0.0</ele><time>2026-04-29T22:55:33.971Z</time></trkpt><trkpt lat="39.8363617" lon="1.237449"><ele>0.0</ele><time>2026-04-29T22:55:36.97Z</time></trkpt><trkpt lat="39.8364394" lon="1.2374983"><ele>0.0</ele><time>2026-04-29T22:55:37.97Z</time></trkpt><trkpt lat="39.8365236" lon="1.2375516"><ele>0.0</ele><time>2026-04-29T22:55:38.97Z</time></trkpt><trkpt lat="39.8366044" lon="1.2375997"><ele>0.0</ele><time>2026-04-29T22:55:39.97Z</time></trkpt><trkpt lat="39.8366843" lon="1.2376631"><ele>0.0</ele><time>2026-04-29T22:55:40.97Z</time></trkpt><trkpt lat="39.8367646" lon="1.2377139"><ele>0.0</ele><time>2026-04-29T22:55:41.971Z</time></trkpt><trkpt lat="39.8368433" lon="1.2377793"><ele>0.0</ele><time>2026-04-29T22:55:42.971Z</time></trkpt><trkpt lat="39.8369289" lon="1.2378311"><ele>0.0</ele><time>2026-04-29T22:55:43.97Z</time></trkpt><trkpt lat="39.837007" lon="1.2378764"><ele>0.0</ele><time>2026-04-29T22:55:44.97Z</time></trkpt><trkpt lat="39.8370818" lon="1.2379252"><ele>0.0</ele><time>2026-04-29T22:55:45.97Z</time></trkpt><trkpt lat="39.8371595" lon="1.23797"><ele>0.0</ele><time>2026-04-29T22:55:46.971Z</time></trkpt><trkpt lat="39.8372349" lon="1.2380206"><ele>0.0</ele><time>2026-04-29T22:55:47.971Z</time></trkpt><trkpt lat="39.8373096" lon="1.2380725"><ele>0.0</ele><time>2026-04-29T22:55:48.971Z</time></trkpt><trkpt lat="39.8373851" lon="1.2381239"><ele>0.0</ele><time>2026-04-29T22:55:49.971Z</time></trkpt><trkpt lat="39.8374588" lon="1.2381754"><ele>0.0</ele><time>2026-04-29T22:55:50.971Z</time></trkpt><trkpt lat="39.8375321" lon="1.2382303"><ele>0.0</ele><time>2026-04-29T22:55:51.971Z</time></trkpt><trkpt lat="39.8376054" lon="1.2383069"><ele>0.0</ele><time>2026-04-29T22:55:52.97Z</time></trkpt><trkpt lat="39.8376745" lon="1.2384036"><ele>0.0</ele><time>2026-04-29T22:55:53.97Z</time></trkpt><trkpt lat="39.83775" lon="1.238465"><ele>0.0</ele><time>2026-04-29T22:55:54.97Z</time></trkpt><trkpt lat="39.8378307" lon="1.2385259"><ele>0.0</ele><time>2026-04-29T22:55:55.971Z</time></trkpt><trkpt lat="39.8379894" lon="1.2386395"><ele>0.0</ele><time>2026-04-29T22:55:57.97Z</time></trkpt><trkpt lat="39.8380767" lon="1.2386898"><ele>0.0</ele><time>2026-04-29T22:55:58.971Z</time></trkpt><trkpt lat="39.8381595" lon="1.2387454"><ele>0.0</ele><time>2026-04-29T22:55:59.97Z</time></trkpt><trkpt lat="39.8382481" lon="1.2387812"><ele>0.0</ele><time>2026-04-29T22:56:00.97Z</time></trkpt><trkpt lat="39.8383279" lon="1.2388208"><ele>0.0</ele><time>2026-04-29T22:56:01.97Z</time></trkpt><trkpt lat="39.8384019" lon="1.2388659"><ele>0.0</ele><time>2026-04-29T22:56:02.97Z</time></trkpt><trkpt lat="39.8384824" lon="1.2389137"><ele>0.0</ele><time>2026-04-29T22:56:03.97Z</time></trkpt><trkpt lat="39.8385646" lon="1.2389649"><ele>0.0</ele><time>2026-04-29T22:56:04.97Z</time></trkpt><trkpt lat="39.8386438" lon="1.2390341"><ele>0.0</ele><time>2026-04-29T22:56:05.971Z</time></trkpt><trkpt lat="39.8387952" lon="1.2391645"><ele>0.0</ele><time>2026-04-29T22:56:07.971Z</time></trkpt><trkpt lat="39.8388729" lon="1.2392545"><ele>0.0</ele><time>2026-04-29T22:56:08.97Z</time></trkpt><trkpt lat="39.8389494" lon="1.2393088"><ele>0.0</ele><time>2026-04-29T22:56:09.97Z</time></trkpt><trkpt lat="39.8390278" lon="1.239358"><ele>0.0</ele><time>2026-04-29T22:56:10.971Z</time></trkpt><trkpt lat="39.8391053" lon="1.2394091"><ele>0.0</ele><time>2026-04-29T22:56:11.97Z</time></trkpt><trkpt lat="39.8391846" lon="1.2394589"><ele>0.0</ele><time>2026-04-29T22:56:12.971Z</time></trkpt><trkpt lat="39.8392588" lon="1.2395104"><ele>0.0</ele><time>2026-04-29T22:56:13.97Z</time></trkpt><trkpt lat="39.8393323" lon="1.239562"><ele>0.0</ele><time>2026-04-29T22:56:14.97Z</time></trkpt><trkpt lat="39.8394081" lon="1.2396066"><ele>0.0</ele><time>2026-04-29T22:56:15.971Z</time></trkpt><trkpt lat="39.8394801" lon="1.2396564"><ele>0.0</ele><time>2026-04-29T22:56:16.97Z</time></trkpt><trkpt lat="39.839629" lon="1.239756"><ele>0.0</ele><time>2026-04-29T22:56:18.97Z</time></trkpt><trkpt lat="39.8397046" lon="1.2398081"><ele>0.0</ele><time>2026-04-29T22:56:19.97Z</time></trkpt><trkpt lat="39.8397796" lon="1.2398619"><ele>0.0</ele><time>2026-04-29T22:56:20.971Z</time></trkpt><trkpt lat="39.8398576" lon="1.2399154"><ele>0.0</ele><time>2026-04-29T22:56:21.971Z</time></trkpt><trkpt lat="39.8399374" lon="1.2399702"><ele>0.0</ele><time>2026-04-29T22:56:22.97Z</time></trkpt><trkpt lat="39.8400134" lon="1.2400209"><ele>0.0</ele><time>2026-04-29T22:56:23.97Z</time></trkpt><trkpt lat="39.8400826" lon="1.2400707"><ele>0.0</ele><time>2026-04-29T22:56:24.971Z</time></trkpt><trkpt lat="39.840152" lon="1.2401231"><ele>0.0</ele><time>2026-04-29T22:56:25.97Z</time></trkpt><trkpt lat="39.8402279" lon="1.2401748"><ele>0.0</ele><time>2026-04-29T22:56:26.97Z</time></trkpt><trkpt lat="39.8403064" lon="1.2402273"><ele>0.0</ele><time>2026-04-29T22:56:27.97Z</time></trkpt><trkpt lat="39.8403805" lon="1.2402716"><ele>0.0</ele><time>2026-04-29T22:56:28.97Z</time></trkpt><trkpt lat="39.8404595" lon="1.2403104"><ele>0.0</ele><time>2026-04-29T22:56:29.971Z</time></trkpt><trkpt lat="39.8405394" lon="1.2403553"><ele>0.0</ele><time>2026-04-29T22:56:30.97Z</time></trkpt><trkpt lat="39.8406197" lon="1.2404058"><ele>0.0</ele><time>2026-04-29T22:56:31.971Z</time></trkpt><trkpt lat="39.8406942" lon="1.2404582"><ele>0.0</ele><time>2026-04-29T22:56:32.97Z</time></trkpt><trkpt lat="39.8407676" lon="1.2405235"><ele>0.0</ele><time>2026-04-29T22:56:33.971Z</time></trkpt><trkpt lat="39.8408436" lon="1.240586"><ele>0.0</ele><time>2026-04-29T22:56:34.971Z</time></trkpt><trkpt lat="39.8409187" lon="1.240658"><ele>0.0</ele><time>2026-04-29T22:56:35.97Z</time></trkpt><trkpt lat="39.8409896" lon="1.2407192"><ele>0.0</ele><time>2026-04-29T22:56:36.971Z</time></trkpt><trkpt lat="39.8410595" lon="1.2407738"><ele>0.0</ele><time>2026-04-29T22:56:37.971Z</time></trkpt><trkpt lat="39.8412808" lon="1.2409028"><ele>0.0</ele><time>2026-04-29T22:56:40.97Z</time></trkpt><trkpt lat="39.8413622" lon="1.2409504"><ele>0.0</ele><time>2026-04-29T22:56:41.971Z</time></trkpt><trkpt lat="39.8414426" lon="1.2409991"><ele>0.0</ele><time>2026-04-29T22:56:42.971Z</time></trkpt><trkpt lat="39.8415241" lon="1.2410461"><ele>0.0</ele><time>2026-04-29T22:56:43.97Z</time></trkpt><trkpt lat="39.841603" lon="1.2410972"><ele>0.0</ele><time>2026-04-29T22:56:44.97Z</time></trkpt><trkpt lat="39.8416787" lon="1.2411477"><ele>0.0</ele><time>2026-04-29T22:56:45.971Z</time></trkpt><trkpt lat="39.8417536" lon="1.2411948"><ele>0.0</ele><time>2026-04-29T22:56:46.97Z</time></trkpt><trkpt lat="39.8418255" lon="1.241241"><ele>0.0</ele><time>2026-04-29T22:56:47.97Z</time></trkpt><trkpt lat="39.8418985" lon="1.241283"><ele>0.0</ele><time>2026-04-29T22:56:48.97Z</time></trkpt><trkpt lat="39.8419691" lon="1.2413298"><ele>0.0</ele><time>2026-04-29T22:56:49.97Z</time></trkpt><trkpt lat="39.8420404" lon="1.2413786"><ele>0.0</ele><time>2026-04-29T22:56:50.971Z</time></trkpt><trkpt lat="39.842119" lon="1.2414299"><ele>0.0</ele><time>2026-04-29T22:56:51.97Z</time></trkpt><trkpt lat="39.8421964" lon="1.2414792"><ele>0.0</ele><time>2026-04-29T22:56:52.97Z</time></trkpt><trkpt lat="39.8422733" lon="1.2415286"><ele>0.0</ele><time>2026-04-29T22:56:53.971Z</time></trkpt><trkpt lat="39.8423513" lon="1.2415756"><ele>0.0</ele><time>2026-04-29T22:56:54.97Z</time></trkpt><trkpt lat="39.8424241" lon="1.2416214"><ele>0.0</ele><time>2026-04-29T22:56:55.97Z</time></trkpt><trkpt lat="39.8424943" lon="1.2416643"><ele>0.0</ele><time>2026-04-29T22:56:56.97Z</time></trkpt><trkpt lat="39.8425751" lon="1.2417075"><ele>0.0</ele><time>2026-04-29T22:56:57.97Z</time></trkpt><trkpt lat="39.8426585" lon="1.2417547"><ele>0.0</ele><time>2026-04-29T22:56:58.971Z</time></trkpt><trkpt lat="39.8428223" lon="1.2418679"><ele>0.0</ele><time>2026-04-29T22:57:00.97Z</time></trkpt><trkpt lat="39.8429009" lon="1.2419188"><ele>0.0</ele><time>2026-04-29T22:57:01.97Z</time></trkpt><trkpt lat="39.8429481" lon="1.2419758"><ele>0.0</ele><time>2026-04-29T22:57:04.154Z</time></trkpt><trkpt lat="39.8430648" lon="1.2420319"><ele>0.0</ele><time>2026-04-29T22:57:05.16Z</time></trkpt><trkpt lat="39.8431641" lon="1.242091"><ele>0.0</ele><time>2026-04-29T22:57:06.066Z</time></trkpt><trkpt lat="39.8432532" lon="1.2421501"><ele>0.0</ele><time>2026-04-29T22:57:07.072Z</time></trkpt><trkpt lat="39.8433413" lon="1.24221"><ele>0.0</ele><time>2026-04-29T22:57:08.077Z</time></trkpt><trkpt lat="39.8434264" lon="1.2422812"><ele>0.0</ele><time>2026-04-29T22:57:09.082Z</time></trkpt><trkpt lat="39.8435146" lon="1.2423565"><ele>0.0</ele><time>2026-04-29T22:57:10.088Z</time></trkpt><trkpt lat="39.8435979" lon="1.2424342"><ele>0.0</ele><time>2026-04-29T22:57:11.094Z</time></trkpt><trkpt lat="39.8436796" lon="1.2425014"><ele>0.0</ele><time>2026-04-29T22:57:12.1Z</time></trkpt><trkpt lat="39.8437837" lon="1.2425665"><ele>0.0</ele><time>2026-04-29T22:57:14.112Z</time></trkpt><trkpt lat="39.843892" lon="1.2426421"><ele>0.0</ele><time>2026-04-29T22:57:15.117Z</time></trkpt><trkpt lat="39.8439929" lon="1.2426996"><ele>0.0</ele><time>2026-04-29T22:57:16.124Z</time></trkpt><trkpt lat="39.8440844" lon="1.2427622"><ele>0.0</ele><time>2026-04-29T22:57:17.128Z</time></trkpt><trkpt lat="39.8441929" lon="1.2429997"><ele>0.0</ele><time>2026-04-29T22:57:18.97Z</time></trkpt><trkpt lat="39.8442758" lon="1.2430675"><ele>0.0</ele><time>2026-04-29T22:57:19.97Z</time></trkpt><trkpt lat="39.8444408" lon="1.2431625"><ele>0.0</ele><time>2026-04-29T22:57:21.969Z</time></trkpt><trkpt lat="39.8445199" lon="1.2432177"><ele>0.0</ele><time>2026-04-29T22:57:22.969Z</time></trkpt><trkpt lat="39.8445955" lon="1.2432622"><ele>0.0</ele><time>2026-04-29T22:57:23.969Z</time></trkpt><trkpt lat="39.8446784" lon="1.2433059"><ele>0.0</ele><time>2026-04-29T22:57:24.969Z</time></trkpt><trkpt lat="39.8447567" lon="1.2433498"><ele>0.0</ele><time>2026-04-29T22:57:25.97Z</time></trkpt><trkpt lat="39.8448302" lon="1.2433889"><ele>0.0</ele><time>2026-04-29T22:57:26.969Z</time></trkpt><trkpt lat="39.8449078" lon="1.2434296"><ele>0.0</ele><time>2026-04-29T22:57:27.97Z</time></trkpt><trkpt lat="39.8449836" lon="1.2434731"><ele>0.0</ele><time>2026-04-29T22:57:28.97Z</time></trkpt><trkpt lat="39.8450617" lon="1.243519"><ele>0.0</ele><time>2026-04-29T22:57:29.97Z</time></trkpt><trkpt lat="39.8451386" lon="1.2435695"><ele>0.0</ele><time>2026-04-29T22:57:30.969Z</time></trkpt><trkpt lat="39.845214" lon="1.2436175"><ele>0.0</ele><time>2026-04-29T22:57:31.969Z</time></trkpt><trkpt lat="39.8452874" lon="1.2436684"><ele>0.0</ele><time>2026-04-29T22:57:32.969Z</time></trkpt><trkpt lat="39.8453551" lon="1.2437271"><ele>0.0</ele><time>2026-04-29T22:57:33.969Z</time></trkpt><trkpt lat="39.8454218" lon="1.2437892"><ele>0.0</ele><time>2026-04-29T22:57:34.97Z</time></trkpt><trkpt lat="39.8454925" lon="1.2438454"><ele>0.0</ele><time>2026-04-29T22:57:35.969Z</time></trkpt><trkpt lat="39.845565" lon="1.2439003"><ele>0.0</ele><time>2026-04-29T22:57:36.97Z</time></trkpt><trkpt lat="39.8456541" lon="1.2439598"><ele>0.0</ele><time>2026-04-29T22:57:37.97Z</time></trkpt><trkpt lat="39.8457345" lon="1.244007"><ele>0.0</ele><time>2026-04-29T22:57:38.969Z</time></trkpt><trkpt lat="39.8458183" lon="1.2440527"><ele>0.0</ele><time>2026-04-29T22:57:39.97Z</time></trkpt><trkpt lat="39.8458992" lon="1.2441008"><ele>0.0</ele><time>2026-04-29T22:57:40.97Z</time></trkpt><trkpt lat="39.8459865" lon="1.2441518"><ele>0.0</ele><time>2026-04-29T22:57:41.97Z</time></trkpt><trkpt lat="39.8462117" lon="1.2443231"><ele>0.0</ele><time>2026-04-29T22:57:44.97Z</time></trkpt><trkpt lat="39.8462821" lon="1.2443729"><ele>0.0</ele><time>2026-04-29T22:57:45.969Z</time></trkpt><trkpt lat="39.8463591" lon="1.2444167"><ele>0.0</ele><time>2026-04-29T22:57:46.969Z</time></trkpt><trkpt lat="39.8464347" lon="1.2444663"><ele>0.0</ele><time>2026-04-29T22:57:47.97Z</time></trkpt><trkpt lat="39.8465073" lon="1.2445238"><ele>0.0</ele><time>2026-04-29T22:57:48.97Z</time></trkpt><trkpt lat="39.8465772" lon="1.2445822"><ele>0.0</ele><time>2026-04-29T22:57:49.969Z</time></trkpt><trkpt lat="39.846656" lon="1.2446323"><ele>0.0</ele><time>2026-04-29T22:57:50.969Z</time></trkpt><trkpt lat="39.8467305" lon="1.2446834"><ele>0.0</ele><time>2026-04-29T22:57:51.969Z</time></trkpt><trkpt lat="39.846805" lon="1.2447474"><ele>0.0</ele><time>2026-04-29T22:57:52.97Z</time></trkpt><trkpt lat="39.8468827" lon="1.2448029"><ele>0.0</ele><time>2026-04-29T22:57:53.97Z</time></trkpt><trkpt lat="39.84696" lon="1.2448504"><ele>0.0</ele><time>2026-04-29T22:57:54.969Z</time></trkpt><trkpt lat="39.8470422" lon="1.2448845"><ele>0.0</ele><time>2026-04-29T22:57:55.97Z</time></trkpt><trkpt lat="39.8471226" lon="1.2449355"><ele>0.0</ele><time>2026-04-29T22:57:56.97Z</time></trkpt><trkpt lat="39.8472014" lon="1.2450044"><ele>0.0</ele><time>2026-04-29T22:57:57.969Z</time></trkpt><trkpt lat="39.8472778" lon="1.2450688"><ele>0.0</ele><time>2026-04-29T22:57:58.97Z</time></trkpt><trkpt lat="39.8473544" lon="1.2451348"><ele>0.0</ele><time>2026-04-29T22:57:59.97Z</time></trkpt><trkpt lat="39.847431" lon="1.2452004"><ele>0.0</ele><time>2026-04-29T22:58:00.97Z</time></trkpt><trkpt lat="39.8475066" lon="1.24525"><ele>0.0</ele><time>2026-04-29T22:58:01.97Z</time></trkpt><trkpt lat="39.8475849" lon="1.2453038"><ele>0.0</ele><time>2026-04-29T22:58:02.969Z</time></trkpt><trkpt lat="39.8477202" lon="1.2454179"><ele>0.0</ele><time>2026-04-29T22:58:04.969Z</time></trkpt><trkpt lat="39.8477992" lon="1.2454721"><ele>0.0</ele><time>2026-04-29T22:58:05.969Z</time></trkpt><trkpt lat="39.8478826" lon="1.2455249"><ele>0.0</ele><time>2026-04-29T22:58:06.969Z</time></trkpt><trkpt lat="39.8479678" lon="1.2455792"><ele>0.0</ele><time>2026-04-29T22:58:07.969Z</time></trkpt><trkpt lat="39.8480489" lon="1.2456298"><ele>0.0</ele><time>2026-04-29T22:58:08.97Z</time></trkpt><trkpt lat="39.84813" lon="1.2456781"><ele>0.0</ele><time>2026-04-29T22:58:09.97Z</time></trkpt><trkpt lat="39.848213" lon="1.2457317"><ele>0.0</ele><time>2026-04-29T22:58:10.97Z</time></trkpt><trkpt lat="39.848295" lon="1.2457878"><ele>0.0</ele><time>2026-04-29T22:58:11.97Z</time></trkpt><trkpt lat="39.8483808" lon="1.2458429"><ele>0.0</ele><time>2026-04-29T22:58:12.969Z</time></trkpt><trkpt lat="39.8484603" lon="1.2458921"><ele>0.0</ele><time>2026-04-29T22:58:13.969Z</time></trkpt><trkpt lat="39.8486283" lon="1.245998"><ele>0.0</ele><time>2026-04-29T22:58:15.969Z</time></trkpt><trkpt lat="39.8487067" lon="1.2460446"><ele>0.0</ele><time>2026-04-29T22:58:16.97Z</time></trkpt><trkpt lat="39.8487836" lon="1.2460953"><ele>0.0</ele><time>2026-04-29T22:58:17.97Z</time></trkpt><trkpt lat="39.8488559" lon="1.2461473"><ele>0.0</ele><time>2026-04-29T22:58:18.969Z</time></trkpt><trkpt lat="39.8489306" lon="1.2461992"><ele>0.0</ele><time>2026-04-29T22:58:19.969Z</time></trkpt><trkpt lat="39.8490036" lon="1.246255"><ele>0.0</ele><time>2026-04-29T22:58:20.97Z</time></trkpt><trkpt lat="39.8490741" lon="1.2462978"><ele>0.0</ele><time>2026-04-29T22:58:21.97Z</time></trkpt><trkpt lat="39.8491398" lon="1.2463521"><ele>0.0</ele><time>2026-04-29T22:58:22.97Z</time></trkpt><trkpt lat="39.8492078" lon="1.2463834"><ele>0.0</ele><time>2026-04-29T22:58:23.969Z</time></trkpt><trkpt lat="39.8493636" lon="1.246465"><ele>0.0</ele><time>2026-04-29T22:58:25.969Z</time></trkpt><trkpt lat="39.8494428" lon="1.2465154"><ele>0.0</ele><time>2026-04-29T22:58:26.969Z</time></trkpt><trkpt lat="39.8495283" lon="1.2465584"><ele>0.0</ele><time>2026-04-29T22:58:27.97Z</time></trkpt><trkpt lat="39.8496131" lon="1.2466093"><ele>0.0</ele><time>2026-04-29T22:58:28.969Z</time></trkpt><trkpt lat="39.8497001" lon="1.2466813"><ele>0.0</ele><time>2026-04-29T22:58:29.969Z</time></trkpt><trkpt lat="39.8497826" lon="1.2467369"><ele>0.0</ele><time>2026-04-29T22:58:30.969Z</time></trkpt><trkpt lat="39.849863" lon="1.2467874"><ele>0.0</ele><time>2026-04-29T22:58:31.969Z</time></trkpt><trkpt lat="39.8499372" lon="1.2468355"><ele>0.0</ele><time>2026-04-29T22:58:32.969Z</time></trkpt><trkpt lat="39.8500087" lon="1.2468965"><ele>0.0</ele><time>2026-04-29T22:58:33.97Z</time></trkpt><trkpt lat="39.8500867" lon="1.2469458"><ele>0.0</ele><time>2026-04-29T22:58:34.969Z</time></trkpt><trkpt lat="39.8501637" lon="1.2469938"><ele>0.0</ele><time>2026-04-29T22:58:35.97Z</time></trkpt><trkpt lat="39.8502402" lon="1.247039"><ele>0.0</ele><time>2026-04-29T22:58:36.969Z</time></trkpt><trkpt lat="39.8503194" lon="1.2470851"><ele>0.0</ele><time>2026-04-29T22:58:37.969Z</time></trkpt><trkpt lat="39.8503929" lon="1.2471398"><ele>0.0</ele><time>2026-04-29T22:58:38.97Z</time></trkpt><trkpt lat="39.8506245" lon="1.2473011"><ele>0.0</ele><time>2026-04-29T22:58:41.969Z</time></trkpt><trkpt lat="39.8507031" lon="1.2473542"><ele>0.0</ele><time>2026-04-29T22:58:42.969Z</time></trkpt><trkpt lat="39.8507763" lon="1.2474206"><ele>0.0</ele><time>2026-04-29T22:58:43.97Z</time></trkpt><trkpt lat="39.8508554" lon="1.2474862"><ele>0.0</ele><time>2026-04-29T22:58:44.969Z</time></trkpt><trkpt lat="39.8509402" lon="1.2475547"><ele>0.0</ele><time>2026-04-29T22:58:45.969Z</time></trkpt><trkpt lat="39.8511902" lon="1.2477467"><ele>0.0</ele><time>2026-04-29T22:58:48.969Z</time></trkpt><trkpt lat="39.8512699" lon="1.2478129"><ele>0.0</ele><time>2026-04-29T22:58:49.969Z</time></trkpt><trkpt lat="39.851341" lon="1.247868"><ele>0.0</ele><time>2026-04-29T22:58:50.97Z</time></trkpt><trkpt lat="39.8514146" lon="1.2479223"><ele>0.0</ele><time>2026-04-29T22:58:51.97Z</time></trkpt><trkpt lat="39.851496" lon="1.2479819"><ele>0.0</ele><time>2026-04-29T22:58:52.969Z</time></trkpt><trkpt lat="39.8515719" lon="1.2480378"><ele>0.0</ele><time>2026-04-29T22:58:53.97Z</time></trkpt><trkpt lat="39.8516527" lon="1.2480923"><ele>0.0</ele><time>2026-04-29T22:58:54.97Z</time></trkpt><trkpt lat="39.8517275" lon="1.2481383"><ele>0.0</ele><time>2026-04-29T22:58:55.97Z</time></trkpt><trkpt lat="39.8517992" lon="1.2481769"><ele>0.0</ele><time>2026-04-29T22:58:56.969Z</time></trkpt><trkpt lat="39.8518693" lon="1.2482275"><ele>0.0</ele><time>2026-04-29T22:58:57.969Z</time></trkpt><trkpt lat="39.8519378" lon="1.2482823"><ele>0.0</ele><time>2026-04-29T22:58:58.969Z</time></trkpt><trkpt lat="39.8520102" lon="1.2483398"><ele>0.0</ele><time>2026-04-29T22:58:59.969Z</time></trkpt><trkpt lat="39.8520882" lon="1.2484114"><ele>0.0</ele><time>2026-04-29T22:59:00.969Z</time></trkpt><trkpt lat="39.8521655" lon="1.2484649"><ele>0.0</ele><time>2026-04-29T22:59:01.969Z</time></trkpt><trkpt lat="39.8522444" lon="1.2485224"><ele>0.0</ele><time>2026-04-29T22:59:02.969Z</time></trkpt><trkpt lat="39.8523333" lon="1.248553"><ele>0.0</ele><time>2026-04-29T22:59:03.97Z</time></trkpt><trkpt lat="39.8524199" lon="1.248604"><ele>0.0</ele><time>2026-04-29T22:59:04.97Z</time></trkpt><trkpt lat="39.8524965" lon="1.2486604"><ele>0.0</ele><time>2026-04-29T22:59:05.97Z</time></trkpt><trkpt lat="39.8525752" lon="1.248706"><ele>0.0</ele><time>2026-04-29T22:59:06.969Z</time></trkpt><trkpt lat="39.8526508" lon="1.248749"><ele>0.0</ele><time>2026-04-29T22:59:07.969Z</time></trkpt><trkpt lat="39.8527974" lon="1.2488302"><ele>0.0</ele><time>2026-04-29T22:59:09.97Z</time></trkpt><trkpt lat="39.8528731" lon="1.2488775"><ele>0.0</ele><time>2026-04-29T22:59:10.969Z</time></trkpt><trkpt lat="39.8529499" lon="1.2489244"><ele>0.0</ele><time>2026-04-29T22:59:11.969Z</time></trkpt><trkpt lat="39.8530308" lon="1.2489664"><ele>0.0</ele><time>2026-04-29T22:59:12.969Z</time></trkpt><trkpt lat="39.8531212" lon="1.2490107"><ele>0.0</ele><time>2026-04-29T22:59:13.969Z</time></trkpt><trkpt lat="39.8532058" lon="1.2490672"><ele>0.0</ele><time>2026-04-29T22:59:14.969Z</time></trkpt><trkpt lat="39.8532866" lon="1.249119"><ele>0.0</ele><time>2026-04-29T22:59:15.969Z</time></trkpt><trkpt lat="39.853371" lon="1.2491686"><ele>0.0</ele><time>2026-04-29T22:59:16.969Z</time></trkpt><trkpt lat="39.8534503" lon="1.2492197"><ele>0.0</ele><time>2026-04-29T22:59:17.969Z</time></trkpt><trkpt lat="39.8535982" lon="1.2493328"><ele>0.0</ele><time>2026-04-29T22:59:19.969Z</time></trkpt><trkpt lat="39.8536788" lon="1.2493862"><ele>0.0</ele><time>2026-04-29T22:59:20.97Z</time></trkpt><trkpt lat="39.8537669" lon="1.2494392"><ele>0.0</ele><time>2026-04-29T22:59:21.97Z</time></trkpt><trkpt lat="39.8538453" lon="1.249494"><ele>0.0</ele><time>2026-04-29T22:59:22.969Z</time></trkpt><trkpt lat="39.8539206" lon="1.2495469"><ele>0.0</ele><time>2026-04-29T22:59:23.97Z</time></trkpt><trkpt lat="39.854004" lon="1.2495921"><ele>0.0</ele><time>2026-04-29T22:59:24.969Z</time></trkpt><trkpt lat="39.8540913" lon="1.2496298"><ele>0.0</ele><time>2026-04-29T22:59:25.969Z</time></trkpt><trkpt lat="39.8541748" lon="1.2496846"><ele>0.0</ele><time>2026-04-29T22:59:26.969Z</time></trkpt><trkpt lat="39.8542596" lon="1.2497441"><ele>0.0</ele><time>2026-04-29T22:59:27.969Z</time></trkpt><trkpt lat="39.8543361" lon="1.2497945"><ele>0.0</ele><time>2026-04-29T22:59:28.969Z</time></trkpt><trkpt lat="39.8544566" lon="1.2499245"><ele>0.0</ele><time>2026-04-29T22:59:30.97Z</time></trkpt><trkpt lat="39.8545326" lon="1.2499791"><ele>0.0</ele><time>2026-04-29T22:59:31.97Z</time></trkpt><trkpt lat="39.8546071" lon="1.2500583"><ele>0.0</ele><time>2026-04-29T22:59:32.969Z</time></trkpt><trkpt lat="39.8546876" lon="1.2501116"><ele>0.0</ele><time>2026-04-29T22:59:33.97Z</time></trkpt><trkpt lat="39.854771" lon="1.2501652"><ele>0.0</ele><time>2026-04-29T22:59:34.969Z</time></trkpt><trkpt lat="39.8548373" lon="1.2501789"><ele>0.0</ele><time>2026-04-29T22:59:37.138Z</time></trkpt><trkpt lat="39.854953" lon="1.2503013"><ele>0.0</ele><time>2026-04-29T22:59:38.144Z</time></trkpt><trkpt lat="39.8550511" lon="1.2503833"><ele>0.0</ele><time>2026-04-29T22:59:39.15Z</time></trkpt><trkpt lat="39.8551502" lon="1.2504265"><ele>0.0</ele><time>2026-04-29T22:59:40.155Z</time></trkpt><trkpt lat="39.8552278" lon="1.2504886"><ele>0.0</ele><time>2026-04-29T22:59:41.061Z</time></trkpt><trkpt lat="39.8553037" lon="1.2505652"><ele>0.0</ele><time>2026-04-29T22:59:42.067Z</time></trkpt><trkpt lat="39.8553821" lon="1.2506339"><ele>0.0</ele><time>2026-04-29T22:59:43.073Z</time></trkpt><trkpt lat="39.8554568" lon="1.2507157"><ele>0.0</ele><time>2026-04-29T22:59:44.079Z</time></trkpt><trkpt lat="39.8555364" lon="1.250789"><ele>0.0</ele><time>2026-04-29T22:59:45.084Z</time></trkpt><trkpt lat="39.8556516" lon="1.2508416"><ele>0.0</ele><time>2026-04-29T22:59:47.095Z</time></trkpt><trkpt lat="39.8557436" lon="1.2509267"><ele>0.0</ele><time>2026-04-29T22:59:48.101Z</time></trkpt><trkpt lat="39.8558399" lon="1.25097"><ele>0.0</ele><time>2026-04-29T22:59:49.107Z</time></trkpt><trkpt lat="39.8559269" lon="1.251022"><ele>0.0</ele><time>2026-04-29T22:59:50.113Z</time></trkpt><trkpt lat="39.8562555" lon="1.2512202"><ele>0.0</ele><time>2026-04-29T22:59:53.969Z</time></trkpt><trkpt lat="39.8563276" lon="1.2512671"><ele>0.0</ele><time>2026-04-29T22:59:54.97Z</time></trkpt><trkpt lat="39.8563974" lon="1.2513137"><ele>0.0</ele><time>2026-04-29T22:59:55.969Z</time></trkpt><trkpt lat="39.8564642" lon="1.2513447"><ele>0.0</ele><time>2026-04-29T22:59:56.969Z</time></trkpt><trkpt lat="39.8565396" lon="1.2514071"><ele>0.0</ele><time>2026-04-29T22:59:57.97Z</time></trkpt><trkpt lat="39.8566169" lon="1.2514687"><ele>0.0</ele><time>2026-04-29T22:59:58.97Z</time></trkpt><trkpt lat="39.8566936" lon="1.2515193"><ele>0.0</ele><time>2026-04-29T22:59:59.97Z</time></trkpt><trkpt lat="39.8567731" lon="1.2515563"><ele>0.0</ele><time>2026-04-29T23:00:00.97Z</time></trkpt><trkpt lat="39.8568501" lon="1.251587"><ele>0.0</ele><time>2026-04-29T23:00:01.969Z</time></trkpt><trkpt lat="39.8569225" lon="1.2516437"><ele>0.0</ele><time>2026-04-29T23:00:02.97Z</time></trkpt><trkpt lat="39.8569972" lon="1.2516965"><ele>0.0</ele><time>2026-04-29T23:00:03.97Z</time></trkpt><trkpt lat="39.8570691" lon="1.2517517"><ele>0.0</ele><time>2026-04-29T23:00:04.969Z</time></trkpt><trkpt lat="39.8571473" lon="1.2517857"><ele>0.0</ele><time>2026-04-29T23:00:05.97Z</time></trkpt><trkpt lat="39.8572216" lon="1.2518332"><ele>0.0</ele><time>2026-04-29T23:00:06.97Z</time></trkpt><trkpt lat="39.8572912" lon="1.2518884"><ele>0.0</ele><time>2026-04-29T23:00:07.97Z</time></trkpt><trkpt lat="39.8573706" lon="1.2519405"><ele>0.0</ele><time>2026-04-29T23:00:08.969Z</time></trkpt><trkpt lat="39.8574664" lon="1.251977"><ele>0.0</ele><time>2026-04-29T23:00:09.969Z</time></trkpt><trkpt lat="39.8575419" lon="1.2520289"><ele>0.0</ele><time>2026-04-29T23:00:10.969Z</time></trkpt><trkpt lat="39.8576197" lon="1.2520799"><ele>0.0</ele><time>2026-04-29T23:00:11.969Z</time></trkpt><trkpt lat="39.8577724" lon="1.252189"><ele>0.0</ele><time>2026-04-29T23:00:13.969Z</time></trkpt><trkpt lat="39.8578488" lon="1.2522403"><ele>0.0</ele><time>2026-04-29T23:00:14.969Z</time></trkpt><trkpt lat="39.8579264" lon="1.2522897"><ele>0.0</ele><time>2026-04-29T23:00:15.969Z</time></trkpt><trkpt lat="39.8580006" lon="1.2523424"><ele>0.0</ele><time>2026-04-29T23:00:16.97Z</time></trkpt><trkpt lat="39.8580798" lon="1.2523963"><ele>0.0</ele><time>2026-04-29T23:00:17.969Z</time></trkpt><trkpt lat="39.8581574" lon="1.2524451"><ele>0.0</ele><time>2026-04-29T23:00:18.969Z</time></trkpt><trkpt lat="39.8582312" lon="1.252497"><ele>0.0</ele><time>2026-04-29T23:00:19.969Z</time></trkpt><trkpt lat="39.8583001" lon="1.2525465"><ele>0.0</ele><time>2026-04-29T23:00:20.969Z</time></trkpt><trkpt lat="39.8583781" lon="1.2526151"><ele>0.0</ele><time>2026-04-29T23:00:21.97Z</time></trkpt><trkpt lat="39.8585584" lon="1.2527171"><ele>0.0</ele><time>2026-04-29T23:00:23.97Z</time></trkpt><trkpt lat="39.8586345" lon="1.252793"><ele>0.0</ele><time>2026-04-29T23:00:24.969Z</time></trkpt><trkpt lat="39.8587207" lon="1.2528548"><ele>0.0</ele><time>2026-04-29T23:00:25.969Z</time></trkpt><trkpt lat="39.8588055" lon="1.2529045"><ele>0.0</ele><time>2026-04-29T23:00:26.97Z</time></trkpt><trkpt lat="39.8588848" lon="1.2529502"><ele>0.0</ele><time>2026-04-29T23:00:27.969Z</time></trkpt><trkpt lat="39.8589602" lon="1.2530418"><ele>0.0</ele><time>2026-04-29T23:00:28.97Z</time></trkpt><trkpt lat="39.8590293" lon="1.2531076"><ele>0.0</ele><time>2026-04-29T23:00:29.97Z</time></trkpt><trkpt lat="39.8591161" lon="1.2531495"><ele>0.0</ele><time>2026-04-29T23:00:30.969Z</time></trkpt><trkpt lat="39.8591888" lon="1.2531898"><ele>0.0</ele><time>2026-04-29T23:00:31.97Z</time></trkpt><trkpt lat="39.8592589" lon="1.2532352"><ele>0.0</ele><time>2026-04-29T23:00:32.97Z</time></trkpt><trkpt lat="39.8594042" lon="1.2533378"><ele>0.0</ele><time>2026-04-29T23:00:36.137Z</time></trkpt><trkpt lat="39.8595557" lon="1.2534012"><ele>0.0</ele><time>2026-04-29T23:00:37.142Z</time></trkpt><trkpt lat="39.8596455" lon="1.2534476"><ele>0.0</ele><time>2026-04-29T23:00:38.148Z</time></trkpt><trkpt lat="39.8597228" lon="1.2535145"><ele>0.0</ele><time>2026-04-29T23:00:39.153Z</time></trkpt><trkpt lat="39.8598122" lon="1.2535694"><ele>0.0</ele><time>2026-04-29T23:00:41.166Z</time></trkpt><trkpt lat="39.8598994" lon="1.2536553"><ele>0.0</ele><time>2026-04-29T23:00:42.07Z</time></trkpt><trkpt lat="39.8599871" lon="1.2537046"><ele>0.0</ele><time>2026-04-29T23:00:43.077Z</time></trkpt><trkpt lat="39.8600745" lon="1.2537504"><ele>0.0</ele><time>2026-04-29T23:00:44.083Z</time></trkpt><trkpt lat="39.8601629" lon="1.2538079"><ele>0.0</ele><time>2026-04-29T23:00:45.089Z</time></trkpt><trkpt lat="39.8602529" lon="1.2538608"><ele>0.0</ele><time>2026-04-29T23:00:46.093Z</time></trkpt><trkpt lat="39.8603353" lon="1.2539149"><ele>0.0</ele><time>2026-04-29T23:00:47.099Z</time></trkpt><trkpt lat="39.8604201" lon="1.2539959"><ele>0.0</ele><time>2026-04-29T23:00:49.112Z</time></trkpt><trkpt lat="39.8606026" lon="1.2541022"><ele>0.0</ele><time>2026-04-29T23:00:50.97Z</time></trkpt><trkpt lat="39.8606833" lon="1.2541445"><ele>0.0</ele><time>2026-04-29T23:00:51.97Z</time></trkpt><trkpt lat="39.8607643" lon="1.2541857"><ele>0.0</ele><time>2026-04-29T23:00:52.97Z</time></trkpt><trkpt lat="39.8608413" lon="1.2542234"><ele>0.0</ele><time>2026-04-29T23:00:53.969Z</time></trkpt><trkpt lat="39.8610717" lon="1.2543513"><ele>0.0</ele><time>2026-04-29T23:00:56.97Z</time></trkpt><trkpt lat="39.86115" lon="1.2544245"><ele>0.0</ele><time>2026-04-29T23:00:57.97Z</time></trkpt><trkpt lat="39.8612275" lon="1.2544868"><ele>0.0</ele><time>2026-04-29T23:00:58.97Z</time></trkpt><trkpt lat="39.8613053" lon="1.2545453"><ele>0.0</ele><time>2026-04-29T23:00:59.97Z</time></trkpt><trkpt lat="39.861382" lon="1.2545974"><ele>0.0</ele><time>2026-04-29T23:01:00.969Z</time></trkpt><trkpt lat="39.8614643" lon="1.2546475"><ele>0.0</ele><time>2026-04-29T23:01:01.97Z</time></trkpt><trkpt lat="39.8615372" lon="1.2546912"><ele>0.0</ele><time>2026-04-29T23:01:02.97Z</time></trkpt><trkpt lat="39.8616127" lon="1.2547286"><ele>0.0</ele><time>2026-04-29T23:01:03.97Z</time></trkpt><trkpt lat="39.8616965" lon="1.2547811"><ele>0.0</ele><time>2026-04-29T23:01:04.97Z</time></trkpt><trkpt lat="39.8617805" lon="1.2548289"><ele>0.0</ele><time>2026-04-29T23:01:05.969Z</time></trkpt><trkpt lat="39.8618567" lon="1.2548856"><ele>0.0</ele><time>2026-04-29T23:01:06.97Z</time></trkpt><trkpt lat="39.8619323" lon="1.2549337"><ele>0.0</ele><time>2026-04-29T23:01:07.97Z</time></trkpt><trkpt lat="39.8620174" lon="1.2549892"><ele>0.0</ele><time>2026-04-29T23:01:08.97Z</time></trkpt><trkpt lat="39.8620968" lon="1.2550449"><ele>0.0</ele><time>2026-04-29T23:01:09.97Z</time></trkpt><trkpt lat="39.8621735" lon="1.2551058"><ele>0.0</ele><time>2026-04-29T23:01:10.969Z</time></trkpt><trkpt lat="39.8622467" lon="1.2551637"><ele>0.0</ele><time>2026-04-29T23:01:11.97Z</time></trkpt><trkpt lat="39.8623196" lon="1.2552192"><ele>0.0</ele><time>2026-04-29T23:01:12.97Z</time></trkpt><trkpt lat="39.8623793" lon="1.255296"><ele>0.0</ele><time>2026-04-29T23:01:13.969Z</time></trkpt><trkpt lat="39.8624428" lon="1.2553539"><ele>0.0</ele><time>2026-04-29T23:01:14.969Z</time></trkpt><trkpt lat="39.8625102" lon="1.2554027"><ele>0.0</ele><time>2026-04-29T23:01:15.969Z</time></trkpt><trkpt lat="39.8626665" lon="1.2555512"><ele>0.0</ele><time>2026-04-29T23:01:17.97Z</time></trkpt><trkpt lat="39.8627579" lon="1.2556203"><ele>0.0</ele><time>2026-04-29T23:01:18.969Z</time></trkpt><trkpt lat="39.8628373" lon="1.2556877"><ele>0.0</ele><time>2026-04-29T23:01:19.969Z</time></trkpt><trkpt lat="39.8629057" lon="1.2557439"><ele>0.0</ele><time>2026-04-29T23:01:20.969Z</time></trkpt><trkpt lat="39.8629777" lon="1.2558043"><ele>0.0</ele><time>2026-04-29T23:01:21.97Z</time></trkpt><trkpt lat="39.8630483" lon="1.2558535"><ele>0.0</ele><time>2026-04-29T23:01:22.969Z</time></trkpt><trkpt lat="39.863121" lon="1.2559115"><ele>0.0</ele><time>2026-04-29T23:01:23.968Z</time></trkpt><trkpt lat="39.863195" lon="1.2559742"><ele>0.0</ele><time>2026-04-29T23:01:24.968Z</time></trkpt><trkpt lat="39.8632805" lon="1.2560291"><ele>0.0</ele><time>2026-04-29T23:01:25.968Z</time></trkpt><trkpt lat="39.8634443" lon="1.2561311"><ele>0.0</ele><time>2026-04-29T23:01:27.968Z</time></trkpt><trkpt lat="39.863533" lon="1.2561818"><ele>0.0</ele><time>2026-04-29T23:01:28.968Z</time></trkpt><trkpt lat="39.8636137" lon="1.2562188"><ele>0.0</ele><time>2026-04-29T23:01:29.968Z</time></trkpt><trkpt lat="39.8636975" lon="1.2562783"><ele>0.0</ele><time>2026-04-29T23:01:30.969Z</time></trkpt><trkpt lat="39.8637772" lon="1.2563317"><ele>0.0</ele><time>2026-04-29T23:01:31.968Z</time></trkpt><trkpt lat="39.8638583" lon="1.2563853"><ele>0.0</ele><time>2026-04-29T23:01:32.968Z</time></trkpt><trkpt lat="39.8639265" lon="1.2564518"><ele>0.0</ele><time>2026-04-29T23:01:33.968Z</time></trkpt><trkpt lat="39.8640007" lon="1.2565137"><ele>0.0</ele><time>2026-04-29T23:01:34.968Z</time></trkpt><trkpt lat="39.8640794" lon="1.2565637"><ele>0.0</ele><time>2026-04-29T23:01:35.969Z</time></trkpt><trkpt lat="39.8641621" lon="1.2566151"><ele>0.0</ele><time>2026-04-29T23:01:36.969Z</time></trkpt><trkpt lat="39.8643126" lon="1.2567141"><ele>0.0</ele><time>2026-04-29T23:01:38.968Z</time></trkpt><trkpt lat="39.864391" lon="1.2567496"><ele>0.0</ele><time>2026-04-29T23:01:39.969Z</time></trkpt><trkpt lat="39.8644695" lon="1.2567731"><ele>0.0</ele><time>2026-04-29T23:01:40.969Z</time></trkpt><trkpt lat="39.8645582" lon="1.2568604"><ele>0.0</ele><time>2026-04-29T23:01:41.968Z</time></trkpt><trkpt lat="39.8646349" lon="1.256922"><ele>0.0</ele><time>2026-04-29T23:01:42.968Z</time></trkpt><trkpt lat="39.8647143" lon="1.2569834"><ele>0.0</ele><time>2026-04-29T23:01:43.968Z</time></trkpt><trkpt lat="39.8647985" lon="1.2570323"><ele>0.0</ele><time>2026-04-29T23:01:44.968Z</time></trkpt><trkpt lat="39.8648806" lon="1.2570846"><ele>0.0</ele><time>2026-04-29T23:01:45.968Z</time></trkpt><trkpt lat="39.8649525" lon="1.2571411"><ele>0.0</ele><time>2026-04-29T23:01:46.968Z</time></trkpt><trkpt lat="39.8650338" lon="1.2571952"><ele>0.0</ele><time>2026-04-29T23:01:47.968Z</time></trkpt><trkpt lat="39.8651147" lon="1.2572547"><ele>0.0</ele><time>2026-04-29T23:01:48.968Z</time></trkpt><trkpt lat="39.865199" lon="1.2573078"><ele>0.0</ele><time>2026-04-29T23:01:49.969Z</time></trkpt><trkpt lat="39.8652808" lon="1.2573563"><ele>0.0</ele><time>2026-04-29T23:01:50.968Z</time></trkpt><trkpt lat="39.8653563" lon="1.2574014"><ele>0.0</ele><time>2026-04-29T23:01:51.968Z</time></trkpt><trkpt lat="39.8654271" lon="1.2574316"><ele>0.0</ele><time>2026-04-29T23:01:54.144Z</time></trkpt><trkpt lat="39.8655793" lon="1.2574608"><ele>0.0</ele><time>2026-04-29T23:01:55.15Z</time></trkpt><trkpt lat="39.8656682" lon="1.2575687"><ele>0.0</ele><time>2026-04-29T23:01:56.156Z</time></trkpt><trkpt lat="39.8657374" lon="1.2576565"><ele>0.0</ele><time>2026-04-29T23:01:57.162Z</time></trkpt><trkpt lat="39.8658187" lon="1.2577293"><ele>0.0</ele><time>2026-04-29T23:01:58.166Z</time></trkpt><trkpt lat="39.8660642" lon="1.2578541"><ele>0.0</ele><time>2026-04-29T23:02:01.083Z</time></trkpt><trkpt lat="39.8661444" lon="1.2579086"><ele>0.0</ele><time>2026-04-29T23:02:02.089Z</time></trkpt><trkpt lat="39.8662784" lon="1.2579791"><ele>0.0</ele><time>2026-04-29T23:02:05.106Z</time></trkpt><trkpt lat="39.866392" lon="1.2580703"><ele>0.0</ele><time>2026-04-29T23:02:06.113Z</time></trkpt><trkpt lat="39.8664878" lon="1.2581329"><ele>0.0</ele><time>2026-04-29T23:02:07.119Z</time></trkpt><trkpt lat="39.8665761" lon="1.2581946"><ele>0.0</ele><time>2026-04-29T23:02:08.124Z</time></trkpt><trkpt lat="39.8666563" lon="1.2582615"><ele>0.0</ele><time>2026-04-29T23:02:09.129Z</time></trkpt><trkpt lat="39.8667373" lon="1.2583245"><ele>0.0</ele><time>2026-04-29T23:02:10.135Z</time></trkpt><trkpt lat="39.8668233" lon="1.2583744"><ele>0.0</ele><time>2026-04-29T23:02:11.142Z</time></trkpt><trkpt lat="39.8669032" lon="1.2584223"><ele>0.0</ele><time>2026-04-29T23:02:12.148Z</time></trkpt><trkpt lat="39.8669725" lon="1.2584546"><ele>0.0</ele><time>2026-04-29T23:02:14.158Z</time></trkpt><trkpt lat="39.867064" lon="1.2585321"><ele>0.0</ele><time>2026-04-29T23:02:15.063Z</time></trkpt><trkpt lat="39.8671544" lon="1.258586"><ele>0.0</ele><time>2026-04-29T23:02:16.069Z</time></trkpt><trkpt lat="39.8672398" lon="1.2586501"><ele>0.0</ele><time>2026-04-29T23:02:17.076Z</time></trkpt><trkpt lat="39.8673318" lon="1.2586972"><ele>0.0</ele><time>2026-04-29T23:02:18.081Z</time></trkpt><trkpt lat="39.8674206" lon="1.258736"><ele>0.0</ele><time>2026-04-29T23:02:19.087Z</time></trkpt><trkpt lat="39.8675086" lon="1.2587857"><ele>0.0</ele><time>2026-04-29T23:02:20.093Z</time></trkpt><trkpt lat="39.8676912" lon="1.2589266"><ele>0.0</ele><time>2026-04-29T23:02:23.11Z</time></trkpt><trkpt lat="39.8677929" lon="1.2589754"><ele>0.0</ele><time>2026-04-29T23:02:24.116Z</time></trkpt><trkpt lat="39.8679271" lon="1.2590743"><ele>0.0</ele><time>2026-04-29T23:02:25.968Z</time></trkpt><trkpt lat="39.8680033" lon="1.2591486"><ele>0.0</ele><time>2026-04-29T23:02:26.969Z</time></trkpt><trkpt lat="39.8680785" lon="1.2592052"><ele>0.0</ele><time>2026-04-29T23:02:27.968Z</time></trkpt><trkpt lat="39.8681523" lon="1.2592563"><ele>0.0</ele><time>2026-04-29T23:02:28.968Z</time></trkpt><trkpt lat="39.8682268" lon="1.2593119"><ele>0.0</ele><time>2026-04-29T23:02:29.968Z</time></trkpt><trkpt lat="39.8683861" lon="1.2594168"><ele>0.0</ele><time>2026-04-29T23:02:31.968Z</time></trkpt><trkpt lat="39.8684651" lon="1.2594667"><ele>0.0</ele><time>2026-04-29T23:02:32.968Z</time></trkpt><trkpt lat="39.8685389" lon="1.2595193"><ele>0.0</ele><time>2026-04-29T23:02:33.968Z</time></trkpt><trkpt lat="39.8686175" lon="1.2595633"><ele>0.0</ele><time>2026-04-29T23:02:34.969Z</time></trkpt><trkpt lat="39.8686904" lon="1.2596119"><ele>0.0</ele><time>2026-04-29T23:02:35.969Z</time></trkpt><trkpt lat="39.8687667" lon="1.2596686"><ele>0.0</ele><time>2026-04-29T23:02:36.968Z</time></trkpt><trkpt lat="39.8688488" lon="1.2597279"><ele>0.0</ele><time>2026-04-29T23:02:37.969Z</time></trkpt><trkpt lat="39.8689194" lon="1.2597726"><ele>0.0</ele><time>2026-04-29T23:02:38.969Z</time></trkpt><trkpt lat="39.8689975" lon="1.2598324"><ele>0.0</ele><time>2026-04-29T23:02:39.968Z</time></trkpt><trkpt lat="39.8690718" lon="1.2598888"><ele>0.0</ele><time>2026-04-29T23:02:40.968Z</time></trkpt><trkpt lat="39.8692281" lon="1.259997"><ele>0.0</ele><time>2026-04-29T23:02:42.969Z</time></trkpt><trkpt lat="39.8693036" lon="1.2600516"><ele>0.0</ele><time>2026-04-29T23:02:43.969Z</time></trkpt><trkpt lat="39.869389" lon="1.2601173"><ele>0.0</ele><time>2026-04-29T23:02:44.968Z</time></trkpt><trkpt lat="39.8694518" lon="1.2601851"><ele>0.0</ele><time>2026-04-29T23:02:47.144Z</time></trkpt><trkpt lat="39.8697016" lon="1.260375"><ele>0.0</ele><time>2026-04-29T23:02:48.968Z</time></trkpt><trkpt lat="39.8697677" lon="1.2604044"><ele>0.0</ele><time>2026-04-29T23:02:49.968Z</time></trkpt><trkpt lat="39.869834" lon="1.2604472"><ele>0.0</ele><time>2026-04-29T23:02:50.969Z</time></trkpt><trkpt lat="39.8699064" lon="1.2604891"><ele>0.0</ele><time>2026-04-29T23:02:51.969Z</time></trkpt><trkpt lat="39.8699841" lon="1.2605448"><ele>0.0</ele><time>2026-04-29T23:02:52.969Z</time></trkpt><trkpt lat="39.8700585" lon="1.2605887"><ele>0.0</ele><time>2026-04-29T23:02:53.968Z</time></trkpt><trkpt lat="39.8701392" lon="1.2606208"><ele>0.0</ele><time>2026-04-29T23:02:54.969Z</time></trkpt><trkpt lat="39.8702157" lon="1.2606792"><ele>0.0</ele><time>2026-04-29T23:02:55.968Z</time></trkpt><trkpt lat="39.8702923" lon="1.2607392"><ele>0.0</ele><time>2026-04-29T23:02:56.968Z</time></trkpt><trkpt lat="39.8703739" lon="1.2607937"><ele>0.0</ele><time>2026-04-29T23:02:57.968Z</time></trkpt><trkpt lat="39.8704508" lon="1.2608426"><ele>0.0</ele><time>2026-04-29T23:02:58.969Z</time></trkpt><trkpt lat="39.8705301" lon="1.2608834"><ele>0.0</ele><time>2026-04-29T23:02:59.968Z</time></trkpt><trkpt lat="39.8706134" lon="1.260935"><ele>0.0</ele><time>2026-04-29T23:03:00.968Z</time></trkpt><trkpt lat="39.8706917" lon="1.2609729"><ele>0.0</ele><time>2026-04-29T23:03:01.969Z</time></trkpt><trkpt lat="39.8709164" lon="1.2611185"><ele>0.0</ele><time>2026-04-29T23:03:04.968Z</time></trkpt><trkpt lat="39.8709983" lon="1.2611726"><ele>0.0</ele><time>2026-04-29T23:03:05.968Z</time></trkpt><trkpt lat="39.8710808" lon="1.2612252"><ele>0.0</ele><time>2026-04-29T23:03:06.968Z</time></trkpt><trkpt lat="39.8711582" lon="1.2612741"><ele>0.0</ele><time>2026-04-29T23:03:07.969Z</time></trkpt><trkpt lat="39.8712362" lon="1.2613175"><ele>0.0</ele><time>2026-04-29T23:03:08.969Z</time></trkpt><trkpt lat="39.871311" lon="1.2613949"><ele>0.0</ele><time>2026-04-29T23:03:09.968Z</time></trkpt><trkpt lat="39.8713878" lon="1.2614523"><ele>0.0</ele><time>2026-04-29T23:03:10.969Z</time></trkpt><trkpt lat="39.8714647" lon="1.2615126"><ele>0.0</ele><time>2026-04-29T23:03:11.969Z</time></trkpt><trkpt lat="39.8715385" lon="1.2615726"><ele>0.0</ele><time>2026-04-29T23:03:12.969Z</time></trkpt><trkpt lat="39.8716248" lon="1.2616441"><ele>0.0</ele><time>2026-04-29T23:03:13.968Z</time></trkpt><trkpt lat="39.8717032" lon="1.261728"><ele>0.0</ele><time>2026-04-29T23:03:14.968Z</time></trkpt><trkpt lat="39.8717801" lon="1.2617782"><ele>0.0</ele><time>2026-04-29T23:03:15.968Z</time></trkpt><trkpt lat="39.8718495" lon="1.2618235"><ele>0.0</ele><time>2026-04-29T23:03:16.969Z</time></trkpt><trkpt lat="39.8719261" lon="1.2618721"><ele>0.0</ele><time>2026-04-29T23:03:17.968Z</time></trkpt><trkpt lat="39.8720026" lon="1.2619246"><ele>0.0</ele><time>2026-04-29T23:03:18.968Z</time></trkpt><trkpt lat="39.8720801" lon="1.2619829"><ele>0.0</ele><time>2026-04-29T23:03:19.968Z</time></trkpt><trkpt lat="39.872159" lon="1.2620503"><ele>0.0</ele><time>2026-04-29T23:03:20.968Z</time></trkpt><trkpt lat="39.8722341" lon="1.2620913"><ele>0.0</ele><time>2026-04-29T23:03:21.968Z</time></trkpt><trkpt lat="39.8723077" lon="1.2621278"><ele>0.0</ele><time>2026-04-29T23:03:22.969Z</time></trkpt><trkpt lat="39.8723817" lon="1.2621803"><ele>0.0</ele><time>2026-04-29T23:03:23.969Z</time></trkpt><trkpt lat="39.8725295" lon="1.2622825"><ele>0.0</ele><time>2026-04-29T23:03:25.969Z</time></trkpt><trkpt lat="39.8726066" lon="1.2623316"><ele>0.0</ele><time>2026-04-29T23:03:26.968Z</time></trkpt><trkpt lat="39.8726817" lon="1.2623788"><ele>0.0</ele><time>2026-04-29T23:03:27.968Z</time></trkpt><trkpt lat="39.8727566" lon="1.2624297"><ele>0.0</ele><time>2026-04-29T23:03:28.969Z</time></trkpt><trkpt lat="39.8728445" lon="1.2624785"><ele>0.0</ele><time>2026-04-29T23:03:29.969Z</time></trkpt><trkpt lat="39.8729282" lon="1.2625345"><ele>0.0</ele><time>2026-04-29T23:03:30.968Z</time></trkpt><trkpt lat="39.8730015" lon="1.2625859"><ele>0.0</ele><time>2026-04-29T23:03:31.968Z</time></trkpt><trkpt lat="39.8730811" lon="1.2626451"><ele>0.0</ele><time>2026-04-29T23:03:32.968Z</time></trkpt><trkpt lat="39.8731619" lon="1.2627027"><ele>0.0</ele><time>2026-04-29T23:03:33.968Z</time></trkpt><trkpt lat="39.8732375" lon="1.2627569"><ele>0.0</ele><time>2026-04-29T23:03:34.969Z</time></trkpt><trkpt lat="39.8733121" lon="1.2628154"><ele>0.0</ele><time>2026-04-29T23:03:35.969Z</time></trkpt><trkpt lat="39.8733915" lon="1.2628714"><ele>0.0</ele><time>2026-04-29T23:03:36.969Z</time></trkpt><trkpt lat="39.8734701" lon="1.2629291"><ele>0.0</ele><time>2026-04-29T23:03:37.968Z</time></trkpt><trkpt lat="39.8735513" lon="1.2629863"><ele>0.0</ele><time>2026-04-29T23:03:38.969Z</time></trkpt><trkpt lat="39.8736346" lon="1.2630421"><ele>0.0</ele><time>2026-04-29T23:03:39.968Z</time></trkpt><trkpt lat="39.8737155" lon="1.2630943"><ele>0.0</ele><time>2026-04-29T23:03:40.968Z</time></trkpt><trkpt lat="39.8737895" lon="1.2631519"><ele>0.0</ele><time>2026-04-29T23:03:41.968Z</time></trkpt><trkpt lat="39.8738673" lon="1.2632309"><ele>0.0</ele><time>2026-04-29T23:03:42.968Z</time></trkpt><trkpt lat="39.8739458" lon="1.2633078"><ele>0.0</ele><time>2026-04-29T23:03:43.968Z</time></trkpt><trkpt lat="39.8740209" lon="1.2633669"><ele>0.0</ele><time>2026-04-29T23:03:44.969Z</time></trkpt><trkpt lat="39.8741673" lon="1.2634914"><ele>0.0</ele><time>2026-04-29T23:03:46.968Z</time></trkpt><trkpt lat="39.8742563" lon="1.2635185"><ele>0.0</ele><time>2026-04-29T23:03:47.968Z</time></trkpt><trkpt lat="39.8743229" lon="1.26356"><ele>0.0</ele><time>2026-04-29T23:03:48.968Z</time></trkpt><trkpt lat="39.8743853" lon="1.2636136"><ele>0.0</ele><time>2026-04-29T23:03:49.969Z</time></trkpt><trkpt lat="39.8744618" lon="1.2636671"><ele>0.0</ele><time>2026-04-29T23:03:50.968Z</time></trkpt><trkpt lat="39.8745329" lon="1.2637113"><ele>0.0</ele><time>2026-04-29T23:03:51.968Z</time></trkpt><trkpt lat="39.87461" lon="1.2637643"><ele>0.0</ele><time>2026-04-29T23:03:52.969Z</time></trkpt><trkpt lat="39.8746858" lon="1.2638126"><ele>0.0</ele><time>2026-04-29T23:03:53.969Z</time></trkpt><trkpt lat="39.8747634" lon="1.2638593"><ele>0.0</ele><time>2026-04-29T23:03:54.969Z</time></trkpt><trkpt lat="39.8748444" lon="1.2639045"><ele>0.0</ele><time>2026-04-29T23:03:55.969Z</time></trkpt><trkpt lat="39.8749274" lon="1.2639664"><ele>0.0</ele><time>2026-04-29T23:03:56.969Z</time></trkpt><trkpt lat="39.8750031" lon="1.2640262"><ele>0.0</ele><time>2026-04-29T23:03:57.968Z</time></trkpt><trkpt lat="39.8750834" lon="1.264085"><ele>0.0</ele><time>2026-04-29T23:03:58.969Z</time></trkpt><trkpt lat="39.8751622" lon="1.2641463"><ele>0.0</ele><time>2026-04-29T23:03:59.969Z</time></trkpt><trkpt lat="39.8752438" lon="1.2642149"><ele>0.0</ele><time>2026-04-29T23:04:00.969Z</time></trkpt><trkpt lat="39.8753178" lon="1.2642715"><ele>0.0</ele><time>2026-04-29T23:04:01.968Z</time></trkpt><trkpt lat="39.8753962" lon="1.2643298"><ele>0.0</ele><time>2026-04-29T23:04:02.968Z</time></trkpt><trkpt lat="39.8754747" lon="1.2643904"><ele>0.0</ele><time>2026-04-29T23:04:03.969Z</time></trkpt><trkpt lat="39.8755532" lon="1.2644467"><ele>0.0</ele><time>2026-04-29T23:04:04.968Z</time></trkpt><trkpt lat="39.8756298" lon="1.2644978"><ele>0.0</ele><time>2026-04-29T23:04:05.968Z</time></trkpt><trkpt lat="39.8758664" lon="1.2646562"><ele>0.0</ele><time>2026-04-29T23:04:08.968Z</time></trkpt><trkpt lat="39.8759404" lon="1.2647134"><ele>0.0</ele><time>2026-04-29T23:04:09.968Z</time></trkpt><trkpt lat="39.8760107" lon="1.2647689"><ele>0.0</ele><time>2026-04-29T23:04:10.968Z</time></trkpt><trkpt lat="39.8760788" lon="1.2648285"><ele>0.0</ele><time>2026-04-29T23:04:11.969Z</time></trkpt><trkpt lat="39.8761441" lon="1.2648779"><ele>0.0</ele><time>2026-04-29T23:04:12.969Z</time></trkpt><trkpt lat="39.8762133" lon="1.2649283"><ele>0.0</ele><time>2026-04-29T23:04:13.969Z</time></trkpt><trkpt lat="39.8762889" lon="1.2649931"><ele>0.0</ele><time>2026-04-29T23:04:14.969Z</time></trkpt><trkpt lat="39.8763705" lon="1.2650432"><ele>0.0</ele><time>2026-04-29T23:04:15.969Z</time></trkpt><trkpt lat="39.8764481" lon="1.2650892"><ele>0.0</ele><time>2026-04-29T23:04:16.969Z</time></trkpt><trkpt lat="39.8765245" lon="1.2651541"><ele>0.0</ele><time>2026-04-29T23:04:17.969Z</time></trkpt><trkpt lat="39.8766075" lon="1.2652067"><ele>0.0</ele><time>2026-04-29T23:04:18.969Z</time></trkpt><trkpt lat="39.8766908" lon="1.265257"><ele>0.0</ele><time>2026-04-29T23:04:19.968Z</time></trkpt><trkpt lat="39.8767786" lon="1.265323"><ele>0.0</ele><time>2026-04-29T23:04:20.968Z</time></trkpt><trkpt lat="39.8768602" lon="1.2653872"><ele>0.0</ele><time>2026-04-29T23:04:21.968Z</time></trkpt><trkpt lat="39.8769359" lon="1.2654458"><ele>0.0</ele><time>2026-04-29T23:04:22.969Z</time></trkpt><trkpt lat="39.8770116" lon="1.2654965"><ele>0.0</ele><time>2026-04-29T23:04:23.968Z</time></trkpt><trkpt lat="39.877084" lon="1.2655475"><ele>0.0</ele><time>2026-04-29T23:04:24.969Z</time></trkpt><trkpt lat="39.8771568" lon="1.2655904"><ele>0.0</ele><time>2026-04-29T23:04:25.968Z</time></trkpt><trkpt lat="39.8772298" lon="1.2656457"><ele>0.0</ele><time>2026-04-29T23:04:26.969Z</time></trkpt><trkpt lat="39.8773032" lon="1.2656955"><ele>0.0</ele><time>2026-04-29T23:04:27.968Z</time></trkpt><trkpt lat="39.8774538" lon="1.2657827"><ele>0.0</ele><time>2026-04-29T23:04:29.969Z</time></trkpt><trkpt lat="39.8775357" lon="1.2658214"><ele>0.0</ele><time>2026-04-29T23:04:30.968Z</time></trkpt><trkpt lat="39.8776147" lon="1.2658635"><ele>0.0</ele><time>2026-04-29T23:04:31.968Z</time></trkpt><trkpt lat="39.877697" lon="1.2659041"><ele>0.0</ele><time>2026-04-29T23:04:32.968Z</time></trkpt><trkpt lat="39.8777808" lon="1.2659415"><ele>0.0</ele><time>2026-04-29T23:04:33.969Z</time></trkpt><trkpt lat="39.8778585" lon="1.2659836"><ele>0.0</ele><time>2026-04-29T23:04:34.968Z</time></trkpt><trkpt lat="39.877932" lon="1.2660344"><ele>0.0</ele><time>2026-04-29T23:04:35.968Z</time></trkpt><trkpt lat="39.8780108" lon="1.2660879"><ele>0.0</ele><time>2026-04-29T23:04:36.968Z</time></trkpt><trkpt lat="39.8780926" lon="1.2661346"><ele>0.0</ele><time>2026-04-29T23:04:37.968Z</time></trkpt><trkpt lat="39.8782614" lon="1.266221"><ele>0.0</ele><time>2026-04-29T23:04:39.968Z</time></trkpt><trkpt lat="39.8783424" lon="1.2662702"><ele>0.0</ele><time>2026-04-29T23:04:40.968Z</time></trkpt><trkpt lat="39.8784184" lon="1.2663236"><ele>0.0</ele><time>2026-04-29T23:04:41.969Z</time></trkpt><trkpt lat="39.878495" lon="1.2663869"><ele>0.0</ele><time>2026-04-29T23:04:42.969Z</time></trkpt><trkpt lat="39.8785703" lon="1.2664407"><ele>0.0</ele><time>2026-04-29T23:04:43.969Z</time></trkpt><trkpt lat="39.8786433" lon="1.266492"><ele>0.0</ele><time>2026-04-29T23:04:44.969Z</time></trkpt><trkpt lat="39.8787171" lon="1.266545"><ele>0.0</ele><time>2026-04-29T23:04:45.968Z</time></trkpt><trkpt lat="39.8787977" lon="1.2665973"><ele>0.0</ele><time>2026-04-29T23:04:46.968Z</time></trkpt><trkpt lat="39.8788801" lon="1.2666719"><ele>0.0</ele><time>2026-04-29T23:04:47.969Z</time></trkpt><trkpt lat="39.8789514" lon="1.2667267"><ele>0.0</ele><time>2026-04-29T23:04:48.968Z</time></trkpt><trkpt lat="39.8791033" lon="1.2668162"><ele>0.0</ele><time>2026-04-29T23:04:50.968Z</time></trkpt><trkpt lat="39.879191" lon="1.2668598"><ele>0.0</ele><time>2026-04-29T23:04:51.968Z</time></trkpt><trkpt lat="39.8792712" lon="1.2669045"><ele>0.0</ele><time>2026-04-29T23:04:52.968Z</time></trkpt><trkpt lat="39.8793483" lon="1.2669452"><ele>0.0</ele><time>2026-04-29T23:04:53.969Z</time></trkpt><trkpt lat="39.8794166" lon="1.2669893"><ele>0.0</ele><time>2026-04-29T23:04:54.969Z</time></trkpt><trkpt lat="39.8794898" lon="1.2670378"><ele>0.0</ele><time>2026-04-29T23:04:55.969Z</time></trkpt><trkpt lat="39.8795647" lon="1.2670863"><ele>0.0</ele><time>2026-04-29T23:04:56.968Z</time></trkpt><trkpt lat="39.8796401" lon="1.2671346"><ele>0.0</ele><time>2026-04-29T23:04:57.968Z</time></trkpt><trkpt lat="39.8797079" lon="1.2671857"><ele>0.0</ele><time>2026-04-29T23:04:58.968Z</time></trkpt><trkpt lat="39.8797741" lon="1.2672276"><ele>0.0</ele><time>2026-04-29T23:04:59.969Z</time></trkpt><trkpt lat="39.879852" lon="1.2672933"><ele>0.0</ele><time>2026-04-29T23:05:00.968Z</time></trkpt><trkpt lat="39.8799254" lon="1.2673409"><ele>0.0</ele><time>2026-04-29T23:05:01.968Z</time></trkpt><trkpt lat="39.8800007" lon="1.2673891"><ele>0.0</ele><time>2026-04-29T23:05:02.969Z</time></trkpt><trkpt lat="39.8800909" lon="1.2674196"><ele>0.0</ele><time>2026-04-29T23:05:03.968Z</time></trkpt><trkpt lat="39.8801767" lon="1.2674567"><ele>0.0</ele><time>2026-04-29T23:05:04.969Z</time></trkpt><trkpt lat="39.8802567" lon="1.2675031"><ele>0.0</ele><time>2026-04-29T23:05:05.968Z</time></trkpt><trkpt lat="39.8803267" lon="1.2675615"><ele>0.0</ele><time>2026-04-29T23:05:06.968Z</time></trkpt><trkpt lat="39.8804015" lon="1.2676206"><ele>0.0</ele><time>2026-04-29T23:05:07.968Z</time></trkpt><trkpt lat="39.8804866" lon="1.2676951"><ele>0.0</ele><time>2026-04-29T23:05:08.968Z</time></trkpt><trkpt lat="39.880566" lon="1.267746"><ele>0.0</ele><time>2026-04-29T23:05:09.968Z</time></trkpt><trkpt lat="39.8808151" lon="1.2679119"><ele>0.0</ele><time>2026-04-29T23:05:12.968Z</time></trkpt><trkpt lat="39.8808944" lon="1.2679663"><ele>0.0</ele><time>2026-04-29T23:05:13.968Z</time></trkpt><trkpt lat="39.8809718" lon="1.2680119"><ele>0.0</ele><time>2026-04-29T23:05:14.969Z</time></trkpt><trkpt lat="39.8810426" lon="1.2680582"><ele>0.0</ele><time>2026-04-29T23:05:15.968Z</time></trkpt><trkpt lat="39.881117" lon="1.268107"><ele>0.0</ele><time>2026-04-29T23:05:16.969Z</time></trkpt><trkpt lat="39.8811858" lon="1.2681554"><ele>0.0</ele><time>2026-04-29T23:05:17.968Z</time></trkpt><trkpt lat="39.8812594" lon="1.2682077"><ele>0.0</ele><time>2026-04-29T23:05:18.969Z</time></trkpt><trkpt lat="39.8813359" lon="1.2682641"><ele>0.0</ele><time>2026-04-29T23:05:19.968Z</time></trkpt><trkpt lat="39.8814115" lon="1.2683193"><ele>0.0</ele><time>2026-04-29T23:05:20.968Z</time></trkpt><trkpt lat="39.8814886" lon="1.2683773"><ele>0.0</ele><time>2026-04-29T23:05:21.968Z</time></trkpt><trkpt lat="39.8815682" lon="1.2684324"><ele>0.0</ele><time>2026-04-29T23:05:22.968Z</time></trkpt><trkpt lat="39.8816491" lon="1.2685041"><ele>0.0</ele><time>2026-04-29T23:05:23.969Z</time></trkpt><trkpt lat="39.8817267" lon="1.2685595"><ele>0.0</ele><time>2026-04-29T23:05:24.968Z</time></trkpt><trkpt lat="39.8817954" lon="1.2686162"><ele>0.0</ele><time>2026-04-29T23:05:25.968Z</time></trkpt><trkpt lat="39.8818596" lon="1.2686637"><ele>0.0</ele><time>2026-04-29T23:05:26.969Z</time></trkpt><trkpt lat="39.8819265" lon="1.268709"><ele>0.0</ele><time>2026-04-29T23:05:27.968Z</time></trkpt><trkpt lat="39.882002" lon="1.2687657"><ele>0.0</ele><time>2026-04-29T23:05:28.968Z</time></trkpt><trkpt lat="39.8820763" lon="1.2688228"><ele>0.0</ele><time>2026-04-29T23:05:29.968Z</time></trkpt><trkpt lat="39.8821486" lon="1.2688777"><ele>0.0</ele><time>2026-04-29T23:05:30.969Z</time></trkpt><trkpt lat="39.882227" lon="1.2689277"><ele>0.0</ele><time>2026-04-29T23:05:31.968Z</time></trkpt><trkpt lat="39.8823912" lon="1.2690351"><ele>0.0</ele><time>2026-04-29T23:05:33.968Z</time></trkpt><trkpt lat="39.8824774" lon="1.2690767"><ele>0.0</ele><time>2026-04-29T23:05:34.968Z</time></trkpt><trkpt lat="39.8825659" lon="1.2691191"><ele>0.0</ele><time>2026-04-29T23:05:35.968Z</time></trkpt><trkpt lat="39.8826392" lon="1.2691611"><ele>0.0</ele><time>2026-04-29T23:05:36.967Z</time></trkpt><trkpt lat="39.8827173" lon="1.2691989"><ele>0.0</ele><time>2026-04-29T23:05:37.968Z</time></trkpt><trkpt lat="39.8827999" lon="1.2692434"><ele>0.0</ele><time>2026-04-29T23:05:38.968Z</time></trkpt><trkpt lat="39.8828835" lon="1.269294"><ele>0.0</ele><time>2026-04-29T23:05:39.967Z</time></trkpt><trkpt lat="39.8829541" lon="1.2693408"><ele>0.0</ele><time>2026-04-29T23:05:40.967Z</time></trkpt><trkpt lat="39.8830138" lon="1.2693846"><ele>0.0</ele><time>2026-04-29T23:05:41.967Z</time></trkpt><trkpt lat="39.8830856" lon="1.2694273"><ele>0.0</ele><time>2026-04-29T23:05:42.968Z</time></trkpt><trkpt lat="39.8831631" lon="1.2694688"><ele>0.0</ele><time>2026-04-29T23:05:43.968Z</time></trkpt><trkpt lat="39.8832339" lon="1.2695188"><ele>0.0</ele><time>2026-04-29T23:05:44.967Z</time></trkpt><trkpt lat="39.8833152" lon="1.2695706"><ele>0.0</ele><time>2026-04-29T23:05:45.967Z</time></trkpt><trkpt lat="39.8833961" lon="1.2696225"><ele>0.0</ele><time>2026-04-29T23:05:46.967Z</time></trkpt><trkpt lat="39.8834781" lon="1.2696794"><ele>0.0</ele><time>2026-04-29T23:05:47.968Z</time></trkpt><trkpt lat="39.883553" lon="1.2697349"><ele>0.0</ele><time>2026-04-29T23:05:48.968Z</time></trkpt><trkpt lat="39.883629" lon="1.2697869"><ele>0.0</ele><time>2026-04-29T23:05:49.967Z</time></trkpt><trkpt lat="39.8837036" lon="1.2698333"><ele>0.0</ele><time>2026-04-29T23:05:50.967Z</time></trkpt><trkpt lat="39.8837809" lon="1.269881"><ele>0.0</ele><time>2026-04-29T23:05:51.968Z</time></trkpt><trkpt lat="39.8838591" lon="1.2699318"><ele>0.0</ele><time>2026-04-29T23:05:52.968Z</time></trkpt><trkpt lat="39.8840188" lon="1.2700263"><ele>0.0</ele><time>2026-04-29T23:05:54.967Z</time></trkpt><trkpt lat="39.884099" lon="1.2700772"><ele>0.0</ele><time>2026-04-29T23:05:55.967Z</time></trkpt><trkpt lat="39.8841764" lon="1.2701347"><ele>0.0</ele><time>2026-04-29T23:05:56.968Z</time></trkpt><trkpt lat="39.8842556" lon="1.270198"><ele>0.0</ele><time>2026-04-29T23:05:57.967Z</time></trkpt><trkpt lat="39.8843369" lon="1.2702555"><ele>0.0</ele><time>2026-04-29T23:05:58.968Z</time></trkpt><trkpt lat="39.884419" lon="1.2703211"><ele>0.0</ele><time>2026-04-29T23:05:59.967Z</time></trkpt><trkpt lat="39.8844977" lon="1.2703871"><ele>0.0</ele><time>2026-04-29T23:06:00.968Z</time></trkpt><trkpt lat="39.8845805" lon="1.270459"><ele>0.0</ele><time>2026-04-29T23:06:01.967Z</time></trkpt><trkpt lat="39.8846645" lon="1.2705272"><ele>0.0</ele><time>2026-04-29T23:06:02.968Z</time></trkpt><trkpt lat="39.8847467" lon="1.2705807"><ele>0.0</ele><time>2026-04-29T23:06:03.967Z</time></trkpt><trkpt lat="39.8848255" lon="1.2706545"><ele>0.0</ele><time>2026-04-29T23:06:04.968Z</time></trkpt><trkpt lat="39.8849064" lon="1.2707261"><ele>0.0</ele><time>2026-04-29T23:06:05.968Z</time></trkpt><trkpt lat="39.8849882" lon="1.270798"><ele>0.0</ele><time>2026-04-29T23:06:06.967Z</time></trkpt><trkpt lat="39.8850671" lon="1.2708769"><ele>0.0</ele><time>2026-04-29T23:06:07.967Z</time></trkpt><trkpt lat="39.885145" lon="1.2709502"><ele>0.0</ele><time>2026-04-29T23:06:08.968Z</time></trkpt><trkpt lat="39.8852307" lon="1.2710279"><ele>0.0</ele><time>2026-04-29T23:06:09.967Z</time></trkpt><trkpt lat="39.8853006" lon="1.2711345"><ele>0.0</ele><time>2026-04-29T23:06:10.968Z</time></trkpt><trkpt lat="39.8853692" lon="1.2712289"><ele>0.0</ele><time>2026-04-29T23:06:11.967Z</time></trkpt><trkpt lat="39.8854351" lon="1.2713859"><ele>0.0</ele><time>2026-04-29T23:06:12.967Z</time></trkpt><trkpt lat="39.8855058" lon="1.2714528"><ele>0.0</ele><time>2026-04-29T23:06:13.967Z</time></trkpt><trkpt lat="39.8857138" lon="1.2715988"><ele>0.0</ele><time>2026-04-29T23:06:16.967Z</time></trkpt><trkpt lat="39.8857912" lon="1.2716464"><ele>0.0</ele><time>2026-04-29T23:06:17.967Z</time></trkpt><trkpt lat="39.8858677" lon="1.2716989"><ele>0.0</ele><time>2026-04-29T23:06:18.968Z</time></trkpt><trkpt lat="39.8859476" lon="1.2717566"><ele>0.0</ele><time>2026-04-29T23:06:19.968Z</time></trkpt><trkpt lat="39.8860259" lon="1.2718374"><ele>0.0</ele><time>2026-04-29T23:06:20.968Z</time></trkpt><trkpt lat="39.8861051" lon="1.2719007"><ele>0.0</ele><time>2026-04-29T23:06:21.967Z</time></trkpt><trkpt lat="39.8861783" lon="1.2719484"><ele>0.0</ele><time>2026-04-29T23:06:22.968Z</time></trkpt><trkpt lat="39.8862649" lon="1.2720091"><ele>0.0</ele><time>2026-04-29T23:06:23.968Z</time></trkpt><trkpt lat="39.8863446" lon="1.2720608"><ele>0.0</ele><time>2026-04-29T23:06:24.967Z</time></trkpt><trkpt lat="39.886425" lon="1.2721441"><ele>0.0</ele><time>2026-04-29T23:06:25.968Z</time></trkpt><trkpt lat="39.8865017" lon="1.2721922"><ele>0.0</ele><time>2026-04-29T23:06:26.967Z</time></trkpt><trkpt lat="39.8865757" lon="1.2722459"><ele>0.0</ele><time>2026-04-29T23:06:27.967Z</time></trkpt><trkpt lat="39.8866478" lon="1.2722986"><ele>0.0</ele><time>2026-04-29T23:06:28.967Z</time></trkpt><trkpt lat="39.8867106" lon="1.2723547"><ele>0.0</ele><time>2026-04-29T23:06:29.967Z</time></trkpt><trkpt lat="39.8867829" lon="1.2724017"><ele>0.0</ele><time>2026-04-29T23:06:30.967Z</time></trkpt><trkpt lat="39.8868611" lon="1.2724223"><ele>0.0</ele><time>2026-04-29T23:06:31.968Z</time></trkpt><trkpt lat="39.8869421" lon="1.2724555"><ele>0.0</ele><time>2026-04-29T23:06:32.968Z</time></trkpt><trkpt lat="39.8870274" lon="1.2724852"><ele>0.0</ele><time>2026-04-29T23:06:33.967Z</time></trkpt><trkpt lat="39.8871036" lon="1.2725452"><ele>0.0</ele><time>2026-04-29T23:06:34.968Z</time></trkpt><trkpt lat="39.8871772" lon="1.2726015"><ele>0.0</ele><time>2026-04-29T23:06:35.968Z</time></trkpt><trkpt lat="39.8873317" lon="1.2726339"><ele>0.0</ele><time>2026-04-29T23:06:37.968Z</time></trkpt><trkpt lat="39.8874105" lon="1.272628"><ele>0.0</ele><time>2026-04-29T23:06:38.968Z</time></trkpt><trkpt lat="39.8874855" lon="1.2726639"><ele>0.0</ele><time>2026-04-29T23:06:39.967Z</time></trkpt><trkpt lat="39.8875624" lon="1.2727081"><ele>0.0</ele><time>2026-04-29T23:06:40.968Z</time></trkpt><trkpt lat="39.8876422" lon="1.2727586"><ele>0.0</ele><time>2026-04-29T23:06:41.967Z</time></trkpt><trkpt lat="39.8877251" lon="1.2728062"><ele>0.0</ele><time>2026-04-29T23:06:42.968Z</time></trkpt><trkpt lat="39.8878091" lon="1.272856"><ele>0.0</ele><time>2026-04-29T23:06:43.968Z</time></trkpt><trkpt lat="39.8878839" lon="1.2729087"><ele>0.0</ele><time>2026-04-29T23:06:44.968Z</time></trkpt><trkpt lat="39.8879666" lon="1.2729589"><ele>0.0</ele><time>2026-04-29T23:06:45.967Z</time></trkpt><trkpt lat="39.8881339" lon="1.2731027"><ele>0.0</ele><time>2026-04-29T23:06:47.967Z</time></trkpt><trkpt lat="39.8882102" lon="1.2731584"><ele>0.0</ele><time>2026-04-29T23:06:48.967Z</time></trkpt><trkpt lat="39.888295" lon="1.2732245"><ele>0.0</ele><time>2026-04-29T23:06:49.967Z</time></trkpt><trkpt lat="39.8883707" lon="1.2732772"><ele>0.0</ele><time>2026-04-29T23:06:50.968Z</time></trkpt><trkpt lat="39.888449" lon="1.2733287"><ele>0.0</ele><time>2026-04-29T23:06:51.967Z</time></trkpt><trkpt lat="39.8885335" lon="1.2733873"><ele>0.0</ele><time>2026-04-29T23:06:52.968Z</time></trkpt><trkpt lat="39.8886146" lon="1.2734463"><ele>0.0</ele><time>2026-04-29T23:06:53.967Z</time></trkpt><trkpt lat="39.8886968" lon="1.2735024"><ele>0.0</ele><time>2026-04-29T23:06:54.967Z</time></trkpt><trkpt lat="39.8887658" lon="1.2735487"><ele>0.0</ele><time>2026-04-29T23:06:55.968Z</time></trkpt><trkpt lat="39.8888376" lon="1.273594"><ele>0.0</ele><time>2026-04-29T23:06:56.968Z</time></trkpt><trkpt lat="39.8889857" lon="1.2736903"><ele>0.0</ele><time>2026-04-29T23:06:58.967Z</time></trkpt><trkpt lat="39.8890535" lon="1.2737474"><ele>0.0</ele><time>2026-04-29T23:06:59.968Z</time></trkpt><trkpt lat="39.8891234" lon="1.2738023"><ele>0.0</ele><time>2026-04-29T23:07:00.967Z</time></trkpt><trkpt lat="39.8891978" lon="1.2738569"><ele>0.0</ele><time>2026-04-29T23:07:01.967Z</time></trkpt><trkpt lat="39.889266" lon="1.2739064"><ele>0.0</ele><time>2026-04-29T23:07:02.968Z</time></trkpt><trkpt lat="39.8893314" lon="1.2739625"><ele>0.0</ele><time>2026-04-29T23:07:03.967Z</time></trkpt><trkpt lat="39.8893971" lon="1.2740247"><ele>0.0</ele><time>2026-04-29T23:07:04.967Z</time></trkpt><trkpt lat="39.8894595" lon="1.2740883"><ele>0.0</ele><time>2026-04-29T23:07:05.967Z</time></trkpt><trkpt lat="39.8895281" lon="1.2741444"><ele>0.0</ele><time>2026-04-29T23:07:06.968Z</time></trkpt><trkpt lat="39.8895996" lon="1.2741995"><ele>0.0</ele><time>2026-04-29T23:07:07.968Z</time></trkpt><trkpt lat="39.8896729" lon="1.2742555"><ele>0.0</ele><time>2026-04-29T23:07:08.968Z</time></trkpt><trkpt lat="39.8897505" lon="1.2743122"><ele>0.0</ele><time>2026-04-29T23:07:09.967Z</time></trkpt><trkpt lat="39.8898335" lon="1.2743679"><ele>0.0</ele><time>2026-04-29T23:07:10.968Z</time></trkpt><trkpt lat="39.8899116" lon="1.274416"><ele>0.0</ele><time>2026-04-29T23:07:11.967Z</time></trkpt><trkpt lat="39.8899843" lon="1.2744728"><ele>0.0</ele><time>2026-04-29T23:07:12.967Z</time></trkpt><trkpt lat="39.8900592" lon="1.274524"><ele>0.0</ele><time>2026-04-29T23:07:13.967Z</time></trkpt><trkpt lat="39.8901375" lon="1.2745824"><ele>0.0</ele><time>2026-04-29T23:07:14.967Z</time></trkpt><trkpt lat="39.8902114" lon="1.2746427"><ele>0.0</ele><time>2026-04-29T23:07:15.968Z</time></trkpt><trkpt lat="39.8902824" lon="1.2746922"><ele>0.0</ele><time>2026-04-29T23:07:16.967Z</time></trkpt><trkpt lat="39.8903577" lon="1.2747472"><ele>0.0</ele><time>2026-04-29T23:07:17.968Z</time></trkpt><trkpt lat="39.8904346" lon="1.2747974"><ele>0.0</ele><time>2026-04-29T23:07:18.968Z</time></trkpt><trkpt lat="39.8905923" lon="1.2748947"><ele>0.0</ele><time>2026-04-29T23:07:20.968Z</time></trkpt><trkpt lat="39.8906758" lon="1.2749464"><ele>0.0</ele><time>2026-04-29T23:07:21.968Z</time></trkpt><trkpt lat="39.8907604" lon="1.274992"><ele>0.0</ele><time>2026-04-29T23:07:22.967Z</time></trkpt><trkpt lat="39.8908458" lon="1.2750441"><ele>0.0</ele><time>2026-04-29T23:07:23.968Z</time></trkpt><trkpt lat="39.8909322" lon="1.2751243"><ele>0.0</ele><time>2026-04-29T23:07:24.968Z</time></trkpt><trkpt lat="39.891016" lon="1.2751958"><ele>0.0</ele><time>2026-04-29T23:07:25.967Z</time></trkpt><trkpt lat="39.8910964" lon="1.2752645"><ele>0.0</ele><time>2026-04-29T23:07:26.968Z</time></trkpt><trkpt lat="39.8911731" lon="1.2753135"><ele>0.0</ele><time>2026-04-29T23:07:27.968Z</time></trkpt><trkpt lat="39.8912538" lon="1.275353"><ele>0.0</ele><time>2026-04-29T23:07:28.967Z</time></trkpt><trkpt lat="39.8913355" lon="1.2754026"><ele>0.0</ele><time>2026-04-29T23:07:29.967Z</time></trkpt><trkpt lat="39.891417" lon="1.2754426"><ele>0.0</ele><time>2026-04-29T23:07:30.967Z</time></trkpt><trkpt lat="39.8915005" lon="1.2754882"><ele>0.0</ele><time>2026-04-29T23:07:31.967Z</time></trkpt><trkpt lat="39.8915715" lon="1.2755377"><ele>0.0</ele><time>2026-04-29T23:07:32.968Z</time></trkpt><trkpt lat="39.8916491" lon="1.2755862"><ele>0.0</ele><time>2026-04-29T23:07:33.968Z</time></trkpt><trkpt lat="39.8917325" lon="1.2756647"><ele>0.0</ele><time>2026-04-29T23:07:34.968Z</time></trkpt><trkpt lat="39.891817" lon="1.2757398"><ele>0.0</ele><time>2026-04-29T23:07:35.967Z</time></trkpt><trkpt lat="39.8918935" lon="1.2757951"><ele>0.0</ele><time>2026-04-29T23:07:36.967Z</time></trkpt><trkpt lat="39.8919728" lon="1.2758473"><ele>0.0</ele><time>2026-04-29T23:07:37.967Z</time></trkpt><trkpt lat="39.8920518" lon="1.2758916"><ele>0.0</ele><time>2026-04-29T23:07:38.967Z</time></trkpt><trkpt lat="39.8922197" lon="1.2759765"><ele>0.0</ele><time>2026-04-29T23:07:40.968Z</time></trkpt><trkpt lat="39.8922988" lon="1.2760309"><ele>0.0</ele><time>2026-04-29T23:07:41.967Z</time></trkpt><trkpt lat="39.8923778" lon="1.2760777"><ele>0.0</ele><time>2026-04-29T23:07:42.967Z</time></trkpt><trkpt lat="39.8924578" lon="1.2761214"><ele>0.0</ele><time>2026-04-29T23:07:43.968Z</time></trkpt><trkpt lat="39.8925306" lon="1.2761555"><ele>0.0</ele><time>2026-04-29T23:07:44.968Z</time></trkpt><trkpt lat="39.8926037" lon="1.2761948"><ele>0.0</ele><time>2026-04-29T23:07:45.967Z</time></trkpt><trkpt lat="39.8926826" lon="1.276247"><ele>0.0</ele><time>2026-04-29T23:07:46.967Z</time></trkpt><trkpt lat="39.8927646" lon="1.2762884"><ele>0.0</ele><time>2026-04-29T23:07:47.968Z</time></trkpt><trkpt lat="39.892846" lon="1.2763115"><ele>0.0</ele><time>2026-04-29T23:07:48.968Z</time></trkpt><trkpt lat="39.8929409" lon="1.2763016"><ele>0.0</ele><time>2026-04-29T23:07:49.967Z</time></trkpt><trkpt lat="39.8931018" lon="1.276415"><ele>0.0</ele><time>2026-04-29T23:07:51.967Z</time></trkpt><trkpt lat="39.8931801" lon="1.2764612"><ele>0.0</ele><time>2026-04-29T23:07:52.967Z</time></trkpt><trkpt lat="39.8932542" lon="1.2765014"><ele>0.0</ele><time>2026-04-29T23:07:53.967Z</time></trkpt><trkpt lat="39.8933308" lon="1.2765452"><ele>0.0</ele><time>2026-04-29T23:07:54.967Z</time></trkpt><trkpt lat="39.8934041" lon="1.2765915"><ele>0.0</ele><time>2026-04-29T23:07:55.968Z</time></trkpt><trkpt lat="39.8934824" lon="1.2766382"><ele>0.0</ele><time>2026-04-29T23:07:56.968Z</time></trkpt><trkpt lat="39.8935583" lon="1.2766849"><ele>0.0</ele><time>2026-04-29T23:07:57.968Z</time></trkpt><trkpt lat="39.8936287" lon="1.2767344"><ele>0.0</ele><time>2026-04-29T23:07:58.967Z</time></trkpt><trkpt lat="39.8937013" lon="1.2767858"><ele>0.0</ele><time>2026-04-29T23:07:59.967Z</time></trkpt><trkpt lat="39.8938405" lon="1.2768913"><ele>0.0</ele><time>2026-04-29T23:08:01.968Z</time></trkpt><trkpt lat="39.8939134" lon="1.2769461"><ele>0.0</ele><time>2026-04-29T23:08:02.967Z</time></trkpt><trkpt lat="39.8939908" lon="1.2769969"><ele>0.0</ele><time>2026-04-29T23:08:03.968Z</time></trkpt><trkpt lat="39.8940737" lon="1.2770502"><ele>0.0</ele><time>2026-04-29T23:08:04.968Z</time></trkpt><trkpt lat="39.8941461" lon="1.2770914"><ele>0.0</ele><time>2026-04-29T23:08:05.967Z</time></trkpt><trkpt lat="39.8942126" lon="1.2771371"><ele>0.0</ele><time>2026-04-29T23:08:06.967Z</time></trkpt><trkpt lat="39.8942891" lon="1.2771988"><ele>0.0</ele><time>2026-04-29T23:08:07.967Z</time></trkpt><trkpt lat="39.8943588" lon="1.2772538"><ele>0.0</ele><time>2026-04-29T23:08:08.967Z</time></trkpt><trkpt lat="39.8944408" lon="1.2773196"><ele>0.0</ele><time>2026-04-29T23:08:09.967Z</time></trkpt><trkpt lat="39.894529" lon="1.2773872"><ele>0.0</ele><time>2026-04-29T23:08:10.968Z</time></trkpt><trkpt lat="39.8946176" lon="1.2774417"><ele>0.0</ele><time>2026-04-29T23:08:11.967Z</time></trkpt><trkpt lat="39.894705" lon="1.2774982"><ele>0.0</ele><time>2026-04-29T23:08:12.967Z</time></trkpt><trkpt lat="39.8947904" lon="1.277562"><ele>0.0</ele><time>2026-04-29T23:08:13.967Z</time></trkpt><trkpt lat="39.8948686" lon="1.277626"><ele>0.0</ele><time>2026-04-29T23:08:14.968Z</time></trkpt><trkpt lat="39.8949527" lon="1.2776833"><ele>0.0</ele><time>2026-04-29T23:08:15.968Z</time></trkpt><trkpt lat="39.8950294" lon="1.2777447"><ele>0.0</ele><time>2026-04-29T23:08:16.967Z</time></trkpt><trkpt lat="39.8951131" lon="1.2778037"><ele>0.0</ele><time>2026-04-29T23:08:17.968Z</time></trkpt><trkpt lat="39.8951938" lon="1.277876"><ele>0.0</ele><time>2026-04-29T23:08:18.968Z</time></trkpt><trkpt lat="39.8952367" lon="1.2779415"><ele>0.0</ele><time>2026-04-29T23:08:21.155Z</time></trkpt><trkpt lat="39.895278" lon="1.2780267"><ele>0.0</ele><time>2026-04-29T23:08:22.16Z</time></trkpt><trkpt lat="39.8956712" lon="1.278161"><ele>0.0</ele><time>2026-04-29T23:08:24.967Z</time></trkpt><trkpt lat="39.8957496" lon="1.2782194"><ele>0.0</ele><time>2026-04-29T23:08:25.967Z</time></trkpt><trkpt lat="39.895828" lon="1.2782679"><ele>0.0</ele><time>2026-04-29T23:08:26.968Z</time></trkpt><trkpt lat="39.8959053" lon="1.2783109"><ele>0.0</ele><time>2026-04-29T23:08:27.968Z</time></trkpt><trkpt lat="39.8959775" lon="1.2783764"><ele>0.0</ele><time>2026-04-29T23:08:28.968Z</time></trkpt><trkpt lat="39.8960531" lon="1.2784455"><ele>0.0</ele><time>2026-04-29T23:08:29.968Z</time></trkpt><trkpt lat="39.8961255" lon="1.27852"><ele>0.0</ele><time>2026-04-29T23:08:30.967Z</time></trkpt><trkpt lat="39.8962011" lon="1.2785873"><ele>0.0</ele><time>2026-04-29T23:08:31.968Z</time></trkpt><trkpt lat="39.8962821" lon="1.2786468"><ele>0.0</ele><time>2026-04-29T23:08:32.968Z</time></trkpt><trkpt lat="39.896353" lon="1.2786981"><ele>0.0</ele><time>2026-04-29T23:08:33.967Z</time></trkpt><trkpt lat="39.8964225" lon="1.278751"><ele>0.0</ele><time>2026-04-29T23:08:34.968Z</time></trkpt><trkpt lat="39.8965014" lon="1.2788028"><ele>0.0</ele><time>2026-04-29T23:08:35.968Z</time></trkpt><trkpt lat="39.8965842" lon="1.2788334"><ele>0.0</ele><time>2026-04-29T23:08:36.967Z</time></trkpt><trkpt lat="39.8966629" lon="1.278892"><ele>0.0</ele><time>2026-04-29T23:08:37.968Z</time></trkpt><trkpt lat="39.8967412" lon="1.2789458"><ele>0.0</ele><time>2026-04-29T23:08:38.967Z</time></trkpt><trkpt lat="39.8968198" lon="1.2790035"><ele>0.0</ele><time>2026-04-29T23:08:39.968Z</time></trkpt><trkpt lat="39.8969019" lon="1.2790545"><ele>0.0</ele><time>2026-04-29T23:08:40.967Z</time></trkpt><trkpt lat="39.8969813" lon="1.2791083"><ele>0.0</ele><time>2026-04-29T23:08:41.968Z</time></trkpt><trkpt lat="39.8970626" lon="1.2791617"><ele>0.0</ele><time>2026-04-29T23:08:42.967Z</time></trkpt><trkpt lat="39.8971485" lon="1.2792229"><ele>0.0</ele><time>2026-04-29T23:08:43.968Z</time></trkpt><trkpt lat="39.8972853" lon="1.2793537"><ele>0.0</ele><time>2026-04-29T23:08:47.149Z</time></trkpt><trkpt lat="39.8974059" lon="1.2794757"><ele>0.0</ele><time>2026-04-29T23:08:48.156Z</time></trkpt><trkpt lat="39.8975494" lon="1.2795258"><ele>0.0</ele><time>2026-04-29T23:08:49.161Z</time></trkpt><trkpt lat="39.8976589" lon="1.279563"><ele>0.0</ele><time>2026-04-29T23:08:50.067Z</time></trkpt><trkpt lat="39.8977569" lon="1.2795942"><ele>0.0</ele><time>2026-04-29T23:08:51.073Z</time></trkpt><trkpt lat="39.8978276" lon="1.2796842"><ele>0.0</ele><time>2026-04-29T23:08:52.078Z</time></trkpt><trkpt lat="39.8978822" lon="1.2797996"><ele>0.0</ele><time>2026-04-29T23:08:53.085Z</time></trkpt><trkpt lat="39.8979442" lon="1.2799086"><ele>0.0</ele><time>2026-04-29T23:08:54.089Z</time></trkpt><trkpt lat="39.8980435" lon="1.2799662"><ele>0.0</ele><time>2026-04-29T23:08:56.102Z</time></trkpt><trkpt lat="39.8981348" lon="1.2799512"><ele>0.0</ele><time>2026-04-29T23:08:57.107Z</time></trkpt><trkpt lat="39.8982223" lon="1.2799409"><ele>0.0</ele><time>2026-04-29T23:08:58.113Z</time></trkpt><trkpt lat="39.8983033" lon="1.2799659"><ele>0.0</ele><time>2026-04-29T23:08:59.119Z</time></trkpt><trkpt lat="39.8983675" lon="1.280067"><ele>0.0</ele><time>2026-04-29T23:09:00.124Z</time></trkpt><trkpt lat="39.8984348" lon="1.2801681"><ele>0.0</ele><time>2026-04-29T23:09:01.13Z</time></trkpt><trkpt lat="39.8985145" lon="1.2802465"><ele>0.0</ele><time>2026-04-29T23:09:02.137Z</time></trkpt><trkpt lat="39.8985934" lon="1.2803111"><ele>0.0</ele><time>2026-04-29T23:09:03.142Z</time></trkpt><trkpt lat="39.8986743" lon="1.2803603"><ele>0.0</ele><time>2026-04-29T23:09:04.148Z</time></trkpt><trkpt lat="39.8987686" lon="1.2804059"><ele>0.0</ele><time>2026-04-29T23:09:06.159Z</time></trkpt><trkpt lat="39.8989481" lon="1.280531"><ele>0.0</ele><time>2026-04-29T23:09:08.07Z</time></trkpt><trkpt lat="39.8990313" lon="1.2805904"><ele>0.0</ele><time>2026-04-29T23:09:09.076Z</time></trkpt><trkpt lat="39.8991234" lon="1.2806439"><ele>0.0</ele><time>2026-04-29T23:09:10.081Z</time></trkpt><trkpt lat="39.8992144" lon="1.2806864"><ele>0.0</ele><time>2026-04-29T23:09:11.087Z</time></trkpt><trkpt lat="39.8992948" lon="1.280736"><ele>0.0</ele><time>2026-04-29T23:09:12.094Z</time></trkpt><trkpt lat="39.8993757" lon="1.2807784"><ele>0.0</ele><time>2026-04-29T23:09:13.1Z</time></trkpt><trkpt lat="39.899464" lon="1.2808076"><ele>0.0</ele><time>2026-04-29T23:09:14.104Z</time></trkpt><trkpt lat="39.8995824" lon="1.2809026"><ele>0.0</ele><time>2026-04-29T23:09:15.967Z</time></trkpt><trkpt lat="39.8996648" lon="1.2809549"><ele>0.0</ele><time>2026-04-29T23:09:16.968Z</time></trkpt><trkpt lat="39.8997467" lon="1.2810078"><ele>0.0</ele><time>2026-04-29T23:09:17.967Z</time></trkpt><trkpt lat="39.8998265" lon="1.2810615"><ele>0.0</ele><time>2026-04-29T23:09:18.967Z</time></trkpt><trkpt lat="39.8999032" lon="1.2811109"><ele>0.0</ele><time>2026-04-29T23:09:19.967Z</time></trkpt><trkpt lat="39.8999797" lon="1.2811662"><ele>0.0</ele><time>2026-04-29T23:09:20.967Z</time></trkpt><trkpt lat="39.9000633" lon="1.2812217"><ele>0.0</ele><time>2026-04-29T23:09:21.968Z</time></trkpt><trkpt lat="39.9001458" lon="1.2812758"><ele>0.0</ele><time>2026-04-29T23:09:22.968Z</time></trkpt><trkpt lat="39.9002299" lon="1.2813284"><ele>0.0</ele><time>2026-04-29T23:09:23.967Z</time></trkpt><trkpt lat="39.9003111" lon="1.2813857"><ele>0.0</ele><time>2026-04-29T23:09:24.968Z</time></trkpt><trkpt lat="39.9003879" lon="1.2814399"><ele>0.0</ele><time>2026-04-29T23:09:25.967Z</time></trkpt><trkpt lat="39.9005538" lon="1.2815313"><ele>0.0</ele><time>2026-04-29T23:09:27.967Z</time></trkpt><trkpt lat="39.9006341" lon="1.2815762"><ele>0.0</ele><time>2026-04-29T23:09:28.968Z</time></trkpt><trkpt lat="39.9007172" lon="1.2816168"><ele>0.0</ele><time>2026-04-29T23:09:29.968Z</time></trkpt><trkpt lat="39.9007975" lon="1.2816607"><ele>0.0</ele><time>2026-04-29T23:09:30.967Z</time></trkpt><trkpt lat="39.9008733" lon="1.2817078"><ele>0.0</ele><time>2026-04-29T23:09:31.967Z</time></trkpt><trkpt lat="39.9009508" lon="1.2817587"><ele>0.0</ele><time>2026-04-29T23:09:32.967Z</time></trkpt><trkpt lat="39.9010296" lon="1.2818104"><ele>0.0</ele><time>2026-04-29T23:09:33.967Z</time></trkpt><trkpt lat="39.9011123" lon="1.2818656"><ele>0.0</ele><time>2026-04-29T23:09:34.968Z</time></trkpt><trkpt lat="39.9011832" lon="1.2819352"><ele>0.0</ele><time>2026-04-29T23:09:37.155Z</time></trkpt><trkpt lat="39.9012848" lon="1.2820178"><ele>0.0</ele><time>2026-04-29T23:09:38.06Z</time></trkpt><trkpt lat="39.90139" lon="1.2820689"><ele>0.0</ele><time>2026-04-29T23:09:39.167Z</time></trkpt><trkpt lat="39.9014796" lon="1.2821062"><ele>0.0</ele><time>2026-04-29T23:09:40.072Z</time></trkpt><trkpt lat="39.9015627" lon="1.2821575"><ele>0.0</ele><time>2026-04-29T23:09:41.079Z</time></trkpt><trkpt lat="39.901641" lon="1.2822151"><ele>0.0</ele><time>2026-04-29T23:09:42.083Z</time></trkpt><trkpt lat="39.9017167" lon="1.2822743"><ele>0.0</ele><time>2026-04-29T23:09:43.09Z</time></trkpt><trkpt lat="39.9017903" lon="1.2823393"><ele>0.0</ele><time>2026-04-29T23:09:44.095Z</time></trkpt><trkpt lat="39.9018737" lon="1.2824002"><ele>0.0</ele><time>2026-04-29T23:09:45.102Z</time></trkpt><trkpt lat="39.9019603" lon="1.2824669"><ele>0.0</ele><time>2026-04-29T23:09:46.106Z</time></trkpt><trkpt lat="39.9020459" lon="1.2825299"><ele>0.0</ele><time>2026-04-29T23:09:47.112Z</time></trkpt><trkpt lat="39.9022244" lon="1.2826311"><ele>0.0</ele><time>2026-04-29T23:09:49.125Z</time></trkpt><trkpt lat="39.9022986" lon="1.2827136"><ele>0.0</ele><time>2026-04-29T23:09:50.131Z</time></trkpt><trkpt lat="39.9023777" lon="1.2827883"><ele>0.0</ele><time>2026-04-29T23:09:51.136Z</time></trkpt><trkpt lat="39.9024513" lon="1.2828549"><ele>0.0</ele><time>2026-04-29T23:09:52.141Z</time></trkpt><trkpt lat="39.9025226" lon="1.2829156"><ele>0.0</ele><time>2026-04-29T23:09:53.148Z</time></trkpt><trkpt lat="39.9026077" lon="1.2829706"><ele>0.0</ele><time>2026-04-29T23:09:55.158Z</time></trkpt><trkpt lat="39.9026984" lon="1.2830449"><ele>0.0</ele><time>2026-04-29T23:09:56.064Z</time></trkpt><trkpt lat="39.9027829" lon="1.2830895"><ele>0.0</ele><time>2026-04-29T23:09:57.069Z</time></trkpt><trkpt lat="39.902868" lon="1.2831423"><ele>0.0</ele><time>2026-04-29T23:09:58.075Z</time></trkpt><trkpt lat="39.9030235" lon="1.2832619"><ele>0.0</ele><time>2026-04-29T23:10:00.088Z</time></trkpt><trkpt lat="39.9031079" lon="1.283306"><ele>0.0</ele><time>2026-04-29T23:10:01.092Z</time></trkpt><trkpt lat="39.9031985" lon="1.2833504"><ele>0.0</ele><time>2026-04-29T23:10:02.098Z</time></trkpt><trkpt lat="39.9032875" lon="1.2833963"><ele>0.0</ele><time>2026-04-29T23:10:03.104Z</time></trkpt><trkpt lat="39.9033718" lon="1.283446"><ele>0.0</ele><time>2026-04-29T23:10:04.11Z</time></trkpt><trkpt lat="39.9034502" lon="1.2835111"><ele>0.0</ele><time>2026-04-29T23:10:05.116Z</time></trkpt><trkpt lat="39.9035282" lon="1.2835726"><ele>0.0</ele><time>2026-04-29T23:10:06.122Z</time></trkpt><trkpt lat="39.9036037" lon="1.2836195"><ele>0.0</ele><time>2026-04-29T23:10:07.128Z</time></trkpt><trkpt lat="39.9036862" lon="1.2836415"><ele>0.0</ele><time>2026-04-29T23:10:08.133Z</time></trkpt><trkpt lat="39.90385" lon="1.2837358"><ele>0.0</ele><time>2026-04-29T23:10:10.144Z</time></trkpt><trkpt lat="39.9039245" lon="1.2837763"><ele>0.0</ele><time>2026-04-29T23:10:11.15Z</time></trkpt><trkpt lat="39.903999" lon="1.2838337"><ele>0.0</ele><time>2026-04-29T23:10:12.156Z</time></trkpt><trkpt lat="39.9040702" lon="1.2839043"><ele>0.0</ele><time>2026-04-29T23:10:13.162Z</time></trkpt><trkpt lat="39.9041509" lon="1.2839468"><ele>0.0</ele><time>2026-04-29T23:10:14.068Z</time></trkpt><trkpt lat="39.9042356" lon="1.283998"><ele>0.0</ele><time>2026-04-29T23:10:15.174Z</time></trkpt><trkpt lat="39.9043088" lon="1.2840417"><ele>0.0</ele><time>2026-04-29T23:10:16.078Z</time></trkpt><trkpt lat="39.9043913" lon="1.2840721"><ele>0.0</ele><time>2026-04-29T23:10:17.084Z</time></trkpt><trkpt lat="39.9044768" lon="1.2841174"><ele>0.0</ele><time>2026-04-29T23:10:18.091Z</time></trkpt><trkpt lat="39.9045706" lon="1.2841602"><ele>0.0</ele><time>2026-04-29T23:10:19.096Z</time></trkpt><trkpt lat="39.9046595" lon="1.2842077"><ele>0.0</ele><time>2026-04-29T23:10:20.101Z</time></trkpt><trkpt lat="39.9047404" lon="1.2842711"><ele>0.0</ele><time>2026-04-29T23:10:21.108Z</time></trkpt><trkpt lat="39.9048264" lon="1.2843121"><ele>0.0</ele><time>2026-04-29T23:10:22.114Z</time></trkpt><trkpt lat="39.9049451" lon="1.2844898"><ele>0.0</ele><time>2026-04-29T23:10:25.131Z</time></trkpt><trkpt lat="39.9050635" lon="1.2845113"><ele>0.0</ele><time>2026-04-29T23:10:26.136Z</time></trkpt><trkpt lat="39.9051638" lon="1.2845493"><ele>0.0</ele><time>2026-04-29T23:10:27.141Z</time></trkpt><trkpt lat="39.9052552" lon="1.2846018"><ele>0.0</ele><time>2026-04-29T23:10:28.147Z</time></trkpt><trkpt lat="39.9053415" lon="1.284666"><ele>0.0</ele><time>2026-04-29T23:10:29.153Z</time></trkpt><trkpt lat="39.9054239" lon="1.2847349"><ele>0.0</ele><time>2026-04-29T23:10:30.16Z</time></trkpt><trkpt lat="39.9056628" lon="1.2849037"><ele>0.0</ele><time>2026-04-29T23:10:33.177Z</time></trkpt><trkpt lat="39.905761" lon="1.2849825"><ele>0.0</ele><time>2026-04-29T23:10:34.967Z</time></trkpt><trkpt lat="39.9058382" lon="1.2850362"><ele>0.0</ele><time>2026-04-29T23:10:35.967Z</time></trkpt><trkpt lat="39.9059164" lon="1.2850782"><ele>0.0</ele><time>2026-04-29T23:10:36.967Z</time></trkpt><trkpt lat="39.9059956" lon="1.2851288"><ele>0.0</ele><time>2026-04-29T23:10:37.967Z</time></trkpt><trkpt lat="39.9060786" lon="1.2851718"><ele>0.0</ele><time>2026-04-29T23:10:38.966Z</time></trkpt><trkpt lat="39.9061649" lon="1.2852117"><ele>0.0</ele><time>2026-04-29T23:10:39.967Z</time></trkpt><trkpt lat="39.9062519" lon="1.2852584"><ele>0.0</ele><time>2026-04-29T23:10:40.967Z</time></trkpt><trkpt lat="39.9063328" lon="1.2853084"><ele>0.0</ele><time>2026-04-29T23:10:41.966Z</time></trkpt><trkpt lat="39.9064111" lon="1.285356"><ele>0.0</ele><time>2026-04-29T23:10:42.966Z</time></trkpt><trkpt lat="39.9064877" lon="1.2853964"><ele>0.0</ele><time>2026-04-29T23:10:43.966Z</time></trkpt><trkpt lat="39.9065661" lon="1.2854352"><ele>0.0</ele><time>2026-04-29T23:10:44.967Z</time></trkpt><trkpt lat="39.9066475" lon="1.2854809"><ele>0.0</ele><time>2026-04-29T23:10:45.967Z</time></trkpt><trkpt lat="39.9067308" lon="1.2855304"><ele>0.0</ele><time>2026-04-29T23:10:46.966Z</time></trkpt><trkpt lat="39.9068115" lon="1.2855856"><ele>0.0</ele><time>2026-04-29T23:10:47.966Z</time></trkpt><trkpt lat="39.9068912" lon="1.2856468"><ele>0.0</ele><time>2026-04-29T23:10:48.966Z</time></trkpt><trkpt lat="39.9069703" lon="1.2857032"><ele>0.0</ele><time>2026-04-29T23:10:49.966Z</time></trkpt><trkpt lat="39.907057" lon="1.2857569"><ele>0.0</ele><time>2026-04-29T23:10:50.967Z</time></trkpt><trkpt lat="39.9071397" lon="1.285812"><ele>0.0</ele><time>2026-04-29T23:10:51.966Z</time></trkpt><trkpt lat="39.9072891" lon="1.2859104"><ele>0.0</ele><time>2026-04-29T23:10:53.967Z</time></trkpt><trkpt lat="39.9073622" lon="1.2859509"><ele>0.0</ele><time>2026-04-29T23:10:56.056Z</time></trkpt><trkpt lat="39.9074979" lon="1.286002"><ele>0.0</ele><time>2026-04-29T23:10:57.062Z</time></trkpt><trkpt lat="39.9075976" lon="1.2860769"><ele>0.0</ele><time>2026-04-29T23:10:58.068Z</time></trkpt><trkpt lat="39.9076883" lon="1.2861457"><ele>0.0</ele><time>2026-04-29T23:10:59.074Z</time></trkpt><trkpt lat="39.9077763" lon="1.2861971"><ele>0.0</ele><time>2026-04-29T23:11:00.08Z</time></trkpt><trkpt lat="39.9078589" lon="1.2862459"><ele>0.0</ele><time>2026-04-29T23:11:01.085Z</time></trkpt><trkpt lat="39.9079365" lon="1.2863023"><ele>0.0</ele><time>2026-04-29T23:11:02.091Z</time></trkpt><trkpt lat="39.9080865" lon="1.2864498"><ele>0.0</ele><time>2026-04-29T23:11:04.102Z</time></trkpt><trkpt lat="39.9081441" lon="1.2865605"><ele>0.0</ele><time>2026-04-29T23:11:05.108Z</time></trkpt><trkpt lat="39.9082149" lon="1.286648"><ele>0.0</ele><time>2026-04-29T23:11:06.115Z</time></trkpt><trkpt lat="39.9083668" lon="1.2867972"><ele>0.0</ele><time>2026-04-29T23:11:07.966Z</time></trkpt><trkpt lat="39.9084494" lon="1.286904"><ele>0.0</ele><time>2026-04-29T23:11:08.967Z</time></trkpt><trkpt lat="39.908524" lon="1.2869925"><ele>0.0</ele><time>2026-04-29T23:11:09.967Z</time></trkpt><trkpt lat="39.9085903" lon="1.2870416"><ele>0.0</ele><time>2026-04-29T23:11:10.966Z</time></trkpt><trkpt lat="39.9086607" lon="1.2870897"><ele>0.0</ele><time>2026-04-29T23:11:11.966Z</time></trkpt><trkpt lat="39.9087411" lon="1.2871535"><ele>0.0</ele><time>2026-04-29T23:11:12.966Z</time></trkpt><trkpt lat="39.9088852" lon="1.2872335"><ele>0.0</ele><time>2026-04-29T23:11:14.967Z</time></trkpt><trkpt lat="39.90896" lon="1.2872579"><ele>0.0</ele><time>2026-04-29T23:11:15.966Z</time></trkpt><trkpt lat="39.9090382" lon="1.2872834"><ele>0.0</ele><time>2026-04-29T23:11:16.966Z</time></trkpt><trkpt lat="39.9091222" lon="1.2873205"><ele>0.0</ele><time>2026-04-29T23:11:17.967Z</time></trkpt><trkpt lat="39.9092047" lon="1.2873774"><ele>0.0</ele><time>2026-04-29T23:11:18.966Z</time></trkpt><trkpt lat="39.9092894" lon="1.2874411"><ele>0.0</ele><time>2026-04-29T23:11:19.966Z</time></trkpt><trkpt lat="39.9093694" lon="1.2874952"><ele>0.0</ele><time>2026-04-29T23:11:20.966Z</time></trkpt><trkpt lat="39.9094399" lon="1.2875324"><ele>0.0</ele><time>2026-04-29T23:11:21.966Z</time></trkpt><trkpt lat="39.9095163" lon="1.2875766"><ele>0.0</ele><time>2026-04-29T23:11:22.966Z</time></trkpt><trkpt lat="39.9095923" lon="1.2876016"><ele>0.0</ele><time>2026-04-29T23:11:23.966Z</time></trkpt><trkpt lat="39.9096641" lon="1.2876138"><ele>0.0</ele><time>2026-04-29T23:11:24.967Z</time></trkpt><trkpt lat="39.9097386" lon="1.2876263"><ele>0.0</ele><time>2026-04-29T23:11:25.966Z</time></trkpt><trkpt lat="39.9098156" lon="1.287652"><ele>0.0</ele><time>2026-04-29T23:11:26.967Z</time></trkpt><trkpt lat="39.9098892" lon="1.2876908"><ele>0.0</ele><time>2026-04-29T23:11:27.967Z</time></trkpt><trkpt lat="39.9099635" lon="1.2877383"><ele>0.0</ele><time>2026-04-29T23:11:28.966Z</time></trkpt><trkpt lat="39.9100412" lon="1.2877823"><ele>0.0</ele><time>2026-04-29T23:11:29.967Z</time></trkpt><trkpt lat="39.9101153" lon="1.2878131"><ele>0.0</ele><time>2026-04-29T23:11:30.967Z</time></trkpt><trkpt lat="39.9101889" lon="1.2878391"><ele>0.0</ele><time>2026-04-29T23:11:31.967Z</time></trkpt><trkpt lat="39.9102677" lon="1.28789"><ele>0.0</ele><time>2026-04-29T23:11:32.967Z</time></trkpt><trkpt lat="39.9103438" lon="1.2879473"><ele>0.0</ele><time>2026-04-29T23:11:33.967Z</time></trkpt><trkpt lat="39.9107009" lon="1.2881721"><ele>0.0</ele><time>2026-04-29T23:11:39.161Z</time></trkpt><trkpt lat="39.9108273" lon="1.2882411"><ele>0.0</ele><time>2026-04-29T23:11:40.066Z</time></trkpt><trkpt lat="39.9109279" lon="1.288298"><ele>0.0</ele><time>2026-04-29T23:11:41.173Z</time></trkpt><trkpt lat="39.911011" lon="1.2883548"><ele>0.0</ele><time>2026-04-29T23:11:42.18Z</time></trkpt><trkpt lat="39.9110888" lon="1.2884125"><ele>0.0</ele><time>2026-04-29T23:11:43.084Z</time></trkpt><trkpt lat="39.9111655" lon="1.2884983"><ele>0.0</ele><time>2026-04-29T23:11:44.089Z</time></trkpt><trkpt lat="39.9112489" lon="1.288565"><ele>0.0</ele><time>2026-04-29T23:11:45.096Z</time></trkpt><trkpt lat="39.9113398" lon="1.2885824"><ele>0.0</ele><time>2026-04-29T23:11:46.102Z</time></trkpt><trkpt lat="39.9114245" lon="1.2885995"><ele>0.0</ele><time>2026-04-29T23:11:47.107Z</time></trkpt><trkpt lat="39.9115039" lon="1.2886486"><ele>0.0</ele><time>2026-04-29T23:11:48.112Z</time></trkpt><trkpt lat="39.911587" lon="1.288676"><ele>0.0</ele><time>2026-04-29T23:11:50.125Z</time></trkpt><trkpt lat="39.9116888" lon="1.2887432"><ele>0.0</ele><time>2026-04-29T23:11:51.131Z</time></trkpt><trkpt lat="39.9117799" lon="1.2887793"><ele>0.0</ele><time>2026-04-29T23:11:52.136Z</time></trkpt><trkpt lat="39.9118634" lon="1.2888353"><ele>0.0</ele><time>2026-04-29T23:11:53.141Z</time></trkpt><trkpt lat="39.9119425" lon="1.2888912"><ele>0.0</ele><time>2026-04-29T23:11:54.148Z</time></trkpt><trkpt lat="39.9120203" lon="1.288943"><ele>0.0</ele><time>2026-04-29T23:11:55.152Z</time></trkpt><trkpt lat="39.9122053" lon="1.2890344"><ele>0.0</ele><time>2026-04-29T23:11:58.17Z</time></trkpt><trkpt lat="39.9122963" lon="1.2891161"><ele>0.0</ele><time>2026-04-29T23:11:59.076Z</time></trkpt><trkpt lat="39.9123918" lon="1.2891495"><ele>0.0</ele><time>2026-04-29T23:12:00.081Z</time></trkpt><trkpt lat="39.9125523" lon="1.2892317"><ele>0.0</ele><time>2026-04-29T23:12:01.966Z</time></trkpt><trkpt lat="39.9126388" lon="1.2892942"><ele>0.0</ele><time>2026-04-29T23:12:02.966Z</time></trkpt><trkpt lat="39.9127228" lon="1.2893465"><ele>0.0</ele><time>2026-04-29T23:12:03.967Z</time></trkpt><trkpt lat="39.9128073" lon="1.2893922"><ele>0.0</ele><time>2026-04-29T23:12:04.966Z</time></trkpt><trkpt lat="39.9128877" lon="1.2894472"><ele>0.0</ele><time>2026-04-29T23:12:05.966Z</time></trkpt><trkpt lat="39.913046" lon="1.2895596"><ele>0.0</ele><time>2026-04-29T23:12:07.967Z</time></trkpt><trkpt lat="39.9131262" lon="1.2896101"><ele>0.0</ele><time>2026-04-29T23:12:08.967Z</time></trkpt><trkpt lat="39.9132095" lon="1.2896588"><ele>0.0</ele><time>2026-04-29T23:12:09.966Z</time></trkpt><trkpt lat="39.9132884" lon="1.2897063"><ele>0.0</ele><time>2026-04-29T23:12:10.966Z</time></trkpt><trkpt lat="39.9133636" lon="1.2897511"><ele>0.0</ele><time>2026-04-29T23:12:11.966Z</time></trkpt><trkpt lat="39.913441" lon="1.2897929"><ele>0.0</ele><time>2026-04-29T23:12:12.966Z</time></trkpt><trkpt lat="39.9135177" lon="1.2898414"><ele>0.0</ele><time>2026-04-29T23:12:13.966Z</time></trkpt><trkpt lat="39.9135944" lon="1.2898991"><ele>0.0</ele><time>2026-04-29T23:12:14.967Z</time></trkpt><trkpt lat="39.9137561" lon="1.2900091"><ele>0.0</ele><time>2026-04-29T23:12:16.966Z</time></trkpt><trkpt lat="39.9138371" lon="1.2901077"><ele>0.0</ele><time>2026-04-29T23:12:17.966Z</time></trkpt><trkpt lat="39.9139153" lon="1.2901629"><ele>0.0</ele><time>2026-04-29T23:12:18.966Z</time></trkpt><trkpt lat="39.9139881" lon="1.2902078"><ele>0.0</ele><time>2026-04-29T23:12:19.966Z</time></trkpt><trkpt lat="39.9140589" lon="1.2902445"><ele>0.0</ele><time>2026-04-29T23:12:20.967Z</time></trkpt><trkpt lat="39.9141305" lon="1.2902879"><ele>0.0</ele><time>2026-04-29T23:12:21.966Z</time></trkpt><trkpt lat="39.9142033" lon="1.2903371"><ele>0.0</ele><time>2026-04-29T23:12:22.967Z</time></trkpt><trkpt lat="39.9142753" lon="1.2903936"><ele>0.0</ele><time>2026-04-29T23:12:23.967Z</time></trkpt><trkpt lat="39.9143556" lon="1.2904477"><ele>0.0</ele><time>2026-04-29T23:12:24.966Z</time></trkpt><trkpt lat="39.9144265" lon="1.2905097"><ele>0.0</ele><time>2026-04-29T23:12:25.967Z</time></trkpt><trkpt lat="39.9145038" lon="1.2905662"><ele>0.0</ele><time>2026-04-29T23:12:26.966Z</time></trkpt><trkpt lat="39.9145775" lon="1.2906173"><ele>0.0</ele><time>2026-04-29T23:12:27.966Z</time></trkpt><trkpt lat="39.9146503" lon="1.2906714"><ele>0.0</ele><time>2026-04-29T23:12:28.967Z</time></trkpt><trkpt lat="39.9147216" lon="1.2907208"><ele>0.0</ele><time>2026-04-29T23:12:29.966Z</time></trkpt><trkpt lat="39.9148004" lon="1.2907787"><ele>0.0</ele><time>2026-04-29T23:12:30.966Z</time></trkpt><trkpt lat="39.9148806" lon="1.2908461"><ele>0.0</ele><time>2026-04-29T23:12:31.966Z</time></trkpt><trkpt lat="39.9149639" lon="1.2909026"><ele>0.0</ele><time>2026-04-29T23:12:32.967Z</time></trkpt><trkpt lat="39.9150421" lon="1.2909662"><ele>0.0</ele><time>2026-04-29T23:12:33.967Z</time></trkpt><trkpt lat="39.9151149" lon="1.2910382"><ele>0.0</ele><time>2026-04-29T23:12:34.966Z</time></trkpt><trkpt lat="39.9151885" lon="1.2911104"><ele>0.0</ele><time>2026-04-29T23:12:35.966Z</time></trkpt><trkpt lat="39.9153481" lon="1.2912396"><ele>0.0</ele><time>2026-04-29T23:12:37.967Z</time></trkpt><trkpt lat="39.9154215" lon="1.2912959"><ele>0.0</ele><time>2026-04-29T23:12:38.967Z</time></trkpt><trkpt lat="39.9154853" lon="1.2913613"><ele>0.0</ele><time>2026-04-29T23:12:41.152Z</time></trkpt><trkpt lat="39.9156131" lon="1.2914535"><ele>0.0</ele><time>2026-04-29T23:12:42.157Z</time></trkpt><trkpt lat="39.9157033" lon="1.2915349"><ele>0.0</ele><time>2026-04-29T23:12:43.162Z</time></trkpt><trkpt lat="39.9157792" lon="1.2916029"><ele>0.0</ele><time>2026-04-29T23:12:44.069Z</time></trkpt><trkpt lat="39.9158632" lon="1.2916499"><ele>0.0</ele><time>2026-04-29T23:12:45.073Z</time></trkpt><trkpt lat="39.9159524" lon="1.2916957"><ele>0.0</ele><time>2026-04-29T23:12:46.181Z</time></trkpt><trkpt lat="39.9160302" lon="1.2917486"><ele>0.0</ele><time>2026-04-29T23:12:47.086Z</time></trkpt><trkpt lat="39.9161099" lon="1.2918198"><ele>0.0</ele><time>2026-04-29T23:12:48.09Z</time></trkpt><trkpt lat="39.916202" lon="1.2918643"><ele>0.0</ele><time>2026-04-29T23:12:49.097Z</time></trkpt><trkpt lat="39.916286" lon="1.2919058"><ele>0.0</ele><time>2026-04-29T23:12:50.102Z</time></trkpt><trkpt lat="39.9163587" lon="1.2919694"><ele>0.0</ele><time>2026-04-29T23:12:51.108Z</time></trkpt><trkpt lat="39.9164422" lon="1.2920271"><ele>0.0</ele><time>2026-04-29T23:12:52.114Z</time></trkpt><trkpt lat="39.9165257" lon="1.2920808"><ele>0.0</ele><time>2026-04-29T23:12:53.119Z</time></trkpt><trkpt lat="39.9166047" lon="1.2921413"><ele>0.0</ele><time>2026-04-29T23:12:54.126Z</time></trkpt><trkpt lat="39.9167476" lon="1.2921994"><ele>0.0</ele><time>2026-04-29T23:12:57.142Z</time></trkpt><trkpt lat="39.9169424" lon="1.2923176"><ele>0.0</ele><time>2026-04-29T23:12:59.154Z</time></trkpt><trkpt lat="39.9170358" lon="1.2923798"><ele>0.0</ele><time>2026-04-29T23:13:00.16Z</time></trkpt><trkpt lat="39.9171164" lon="1.292446"><ele>0.0</ele><time>2026-04-29T23:13:01.065Z</time></trkpt><trkpt lat="39.9172002" lon="1.2925166"><ele>0.0</ele><time>2026-04-29T23:13:02.07Z</time></trkpt><trkpt lat="39.9172873" lon="1.2925888"><ele>0.0</ele><time>2026-04-29T23:13:03.076Z</time></trkpt><trkpt lat="39.9173776" lon="1.2926601"><ele>0.0</ele><time>2026-04-29T23:13:04.083Z</time></trkpt><trkpt lat="39.9174695" lon="1.2927173"><ele>0.0</ele><time>2026-04-29T23:13:05.088Z</time></trkpt><trkpt lat="39.9175615" lon="1.2927685"><ele>0.0</ele><time>2026-04-29T23:13:06.093Z</time></trkpt><trkpt lat="39.917647" lon="1.2928269"><ele>0.0</ele><time>2026-04-29T23:13:07.1Z</time></trkpt><trkpt lat="39.9177557" lon="1.292945"><ele>0.0</ele><time>2026-04-29T23:13:08.966Z</time></trkpt><trkpt lat="39.9178316" lon="1.2930136"><ele>0.0</ele><time>2026-04-29T23:13:09.967Z</time></trkpt><trkpt lat="39.9179066" lon="1.2930777"><ele>0.0</ele><time>2026-04-29T23:13:10.967Z</time></trkpt><trkpt lat="39.9179785" lon="1.2931308"><ele>0.0</ele><time>2026-04-29T23:13:11.966Z</time></trkpt><trkpt lat="39.9180583" lon="1.2931829"><ele>0.0</ele><time>2026-04-29T23:13:12.966Z</time></trkpt><trkpt lat="39.9181402" lon="1.2932489"><ele>0.0</ele><time>2026-04-29T23:13:13.966Z</time></trkpt><trkpt lat="39.9182198" lon="1.2933051"><ele>0.0</ele><time>2026-04-29T23:13:14.966Z</time></trkpt><trkpt lat="39.9183042" lon="1.2933534"><ele>0.0</ele><time>2026-04-29T23:13:15.967Z</time></trkpt><trkpt lat="39.9183822" lon="1.293404"><ele>0.0</ele><time>2026-04-29T23:13:16.966Z</time></trkpt><trkpt lat="39.9185416" lon="1.2935043"><ele>0.0</ele><time>2026-04-29T23:13:18.966Z</time></trkpt><trkpt lat="39.9186171" lon="1.293552"><ele>0.0</ele><time>2026-04-29T23:13:19.967Z</time></trkpt><trkpt lat="39.9186945" lon="1.2935976"><ele>0.0</ele><time>2026-04-29T23:13:20.966Z</time></trkpt><trkpt lat="39.9187742" lon="1.2936453"><ele>0.0</ele><time>2026-04-29T23:13:21.966Z</time></trkpt><trkpt lat="39.9188541" lon="1.2936935"><ele>0.0</ele><time>2026-04-29T23:13:22.966Z</time></trkpt><trkpt lat="39.918937" lon="1.2937419"><ele>0.0</ele><time>2026-04-29T23:13:23.967Z</time></trkpt><trkpt lat="39.9190207" lon="1.293793"><ele>0.0</ele><time>2026-04-29T23:13:24.967Z</time></trkpt><trkpt lat="39.9190957" lon="1.2938398"><ele>0.0</ele><time>2026-04-29T23:13:25.967Z</time></trkpt><trkpt lat="39.9191619" lon="1.293918"><ele>0.0</ele><time>2026-04-29T23:13:26.966Z</time></trkpt><trkpt lat="39.9192366" lon="1.294007"><ele>0.0</ele><time>2026-04-29T23:13:27.967Z</time></trkpt><trkpt lat="39.9192783" lon="1.2940854"><ele>0.0</ele><time>2026-04-29T23:13:30.158Z</time></trkpt><trkpt lat="39.9194285" lon="1.2941817"><ele>0.0</ele><time>2026-04-29T23:13:31.165Z</time></trkpt><trkpt lat="39.9195188" lon="1.2942526"><ele>0.0</ele><time>2026-04-29T23:13:32.069Z</time></trkpt><trkpt lat="39.9196204" lon="1.2942866"><ele>0.0</ele><time>2026-04-29T23:13:33.176Z</time></trkpt><trkpt lat="39.9197127" lon="1.2942985"><ele>0.0</ele><time>2026-04-29T23:13:34.081Z</time></trkpt><trkpt lat="39.9198061" lon="1.2943099"><ele>0.0</ele><time>2026-04-29T23:13:35.087Z</time></trkpt><trkpt lat="39.9198906" lon="1.2943694"><ele>0.0</ele><time>2026-04-29T23:13:36.092Z</time></trkpt><trkpt lat="39.9199741" lon="1.2944161"><ele>0.0</ele><time>2026-04-29T23:13:37.099Z</time></trkpt><trkpt lat="39.9200884" lon="1.2945346"><ele>0.0</ele><time>2026-04-29T23:13:38.967Z</time></trkpt><trkpt lat="39.9202359" lon="1.2946399"><ele>0.0</ele><time>2026-04-29T23:13:40.967Z</time></trkpt><trkpt lat="39.9203125" lon="1.2946935"><ele>0.0</ele><time>2026-04-29T23:13:41.967Z</time></trkpt><trkpt lat="39.9204678" lon="1.2947682"><ele>0.0</ele><time>2026-04-29T23:13:43.967Z</time></trkpt><trkpt lat="39.9205482" lon="1.2948213"><ele>0.0</ele><time>2026-04-29T23:13:44.967Z</time></trkpt><trkpt lat="39.9206241" lon="1.2948891"><ele>0.0</ele><time>2026-04-29T23:13:45.966Z</time></trkpt><trkpt lat="39.9207016" lon="1.294898"><ele>0.0</ele><time>2026-04-29T23:13:46.967Z</time></trkpt><trkpt lat="39.9207726" lon="1.2949063"><ele>0.0</ele><time>2026-04-29T23:13:47.967Z</time></trkpt><trkpt lat="39.9208512" lon="1.2949274"><ele>0.0</ele><time>2026-04-29T23:13:48.965Z</time></trkpt><trkpt lat="39.9209349" lon="1.294949"><ele>0.0</ele><time>2026-04-29T23:13:49.966Z</time></trkpt><trkpt lat="39.9210211" lon="1.2949678"><ele>0.0</ele><time>2026-04-29T23:13:50.965Z</time></trkpt><trkpt lat="39.9211111" lon="1.2949882"><ele>0.0</ele><time>2026-04-29T23:13:51.966Z</time></trkpt><trkpt lat="39.9211941" lon="1.2950343"><ele>0.0</ele><time>2026-04-29T23:13:52.966Z</time></trkpt><trkpt lat="39.9212769" lon="1.2950863"><ele>0.0</ele><time>2026-04-29T23:13:53.965Z</time></trkpt><trkpt lat="39.9213645" lon="1.2951379"><ele>0.0</ele><time>2026-04-29T23:13:54.966Z</time></trkpt><trkpt lat="39.9214504" lon="1.2951862"><ele>0.0</ele><time>2026-04-29T23:13:55.965Z</time></trkpt><trkpt lat="39.9215373" lon="1.2952203"><ele>0.0</ele><time>2026-04-29T23:13:56.965Z</time></trkpt><trkpt lat="39.9216179" lon="1.2952557"><ele>0.0</ele><time>2026-04-29T23:13:57.966Z</time></trkpt><trkpt lat="39.9216967" lon="1.2952993"><ele>0.0</ele><time>2026-04-29T23:13:58.965Z</time></trkpt><trkpt lat="39.9217679" lon="1.2953539"><ele>0.0</ele><time>2026-04-29T23:13:59.965Z</time></trkpt><trkpt lat="39.9219213" lon="1.2954509"><ele>0.0</ele><time>2026-04-29T23:14:01.966Z</time></trkpt><trkpt lat="39.9219986" lon="1.295487"><ele>0.0</ele><time>2026-04-29T23:14:02.966Z</time></trkpt><trkpt lat="39.9220611" lon="1.2955376"><ele>0.0</ele><time>2026-04-29T23:14:03.965Z</time></trkpt><trkpt lat="39.9221384" lon="1.2955812"><ele>0.0</ele><time>2026-04-29T23:14:04.965Z</time></trkpt><trkpt lat="39.92221" lon="1.2956268"><ele>0.0</ele><time>2026-04-29T23:14:05.965Z</time></trkpt><trkpt lat="39.9222843" lon="1.2956649"><ele>0.0</ele><time>2026-04-29T23:14:06.965Z</time></trkpt><trkpt lat="39.9223649" lon="1.2957188"><ele>0.0</ele><time>2026-04-29T23:14:07.965Z</time></trkpt><trkpt lat="39.9224455" lon="1.2957798"><ele>0.0</ele><time>2026-04-29T23:14:08.965Z</time></trkpt><trkpt lat="39.9225246" lon="1.2958349"><ele>0.0</ele><time>2026-04-29T23:14:11.129Z</time></trkpt><trkpt lat="39.9226363" lon="1.295878"><ele>0.0</ele><time>2026-04-29T23:14:12.135Z</time></trkpt><trkpt lat="39.9227416" lon="1.2959844"><ele>0.0</ele><time>2026-04-29T23:14:13.141Z</time></trkpt><trkpt lat="39.9228146" lon="1.2960961"><ele>0.0</ele><time>2026-04-29T23:14:14.146Z</time></trkpt><trkpt lat="39.9229872" lon="1.2962403"><ele>0.0</ele><time>2026-04-29T23:14:16.157Z</time></trkpt><trkpt lat="39.923088" lon="1.2962814"><ele>0.0</ele><time>2026-04-29T23:14:17.163Z</time></trkpt><trkpt lat="39.9231807" lon="1.2963233"><ele>0.0</ele><time>2026-04-29T23:14:18.169Z</time></trkpt><trkpt lat="39.9232596" lon="1.2963664"><ele>0.0</ele><time>2026-04-29T23:14:19.074Z</time></trkpt><trkpt lat="39.9233316" lon="1.2964325"><ele>0.0</ele><time>2026-04-29T23:14:20.08Z</time></trkpt><trkpt lat="39.9233935" lon="1.2965179"><ele>0.0</ele><time>2026-04-29T23:14:21.086Z</time></trkpt><trkpt lat="39.9235297" lon="1.2966516"><ele>0.0</ele><time>2026-04-29T23:14:23.097Z</time></trkpt><trkpt lat="39.9236082" lon="1.2967107"><ele>0.0</ele><time>2026-04-29T23:14:24.104Z</time></trkpt><trkpt lat="39.923694" lon="1.2967554"><ele>0.0</ele><time>2026-04-29T23:14:25.109Z</time></trkpt><trkpt lat="39.9237732" lon="1.29682"><ele>0.0</ele><time>2026-04-29T23:14:26.115Z</time></trkpt><trkpt lat="39.9238447" lon="1.2968948"><ele>0.0</ele><time>2026-04-29T23:14:27.121Z</time></trkpt><trkpt lat="39.9239305" lon="1.2969866"><ele>0.0</ele><time>2026-04-29T23:14:30.137Z</time></trkpt><trkpt lat="39.9240741" lon="1.2970431"><ele>0.0</ele><time>2026-04-29T23:14:31.143Z</time></trkpt><trkpt lat="39.9241703" lon="1.2971111"><ele>0.0</ele><time>2026-04-29T23:14:32.149Z</time></trkpt><trkpt lat="39.9242561" lon="1.297184"><ele>0.0</ele><time>2026-04-29T23:14:33.155Z</time></trkpt><trkpt lat="39.9243436" lon="1.2972421"><ele>0.0</ele><time>2026-04-29T23:14:34.16Z</time></trkpt><trkpt lat="39.9244288" lon="1.2972921"><ele>0.0</ele><time>2026-04-29T23:14:35.167Z</time></trkpt><trkpt lat="39.9245082" lon="1.2973452"><ele>0.0</ele><time>2026-04-29T23:14:36.072Z</time></trkpt><trkpt lat="39.9245931" lon="1.2973909"><ele>0.0</ele><time>2026-04-29T23:14:37.078Z</time></trkpt><trkpt lat="39.9246773" lon="1.2974283"><ele>0.0</ele><time>2026-04-29T23:14:38.082Z</time></trkpt><trkpt lat="39.9247658" lon="1.2974606"><ele>0.0</ele><time>2026-04-29T23:14:39.089Z</time></trkpt><trkpt lat="39.9248555" lon="1.2974819"><ele>0.0</ele><time>2026-04-29T23:14:40.094Z</time></trkpt><trkpt lat="39.9249405" lon="1.2974895"><ele>0.0</ele><time>2026-04-29T23:14:41.1Z</time></trkpt><trkpt lat="39.9250181" lon="1.2975834"><ele>0.0</ele><time>2026-04-29T23:14:43.111Z</time></trkpt><trkpt lat="39.9252028" lon="1.2976992"><ele>0.0</ele><time>2026-04-29T23:14:45.124Z</time></trkpt><trkpt lat="39.9252943" lon="1.29772"><ele>0.0</ele><time>2026-04-29T23:14:46.129Z</time></trkpt><trkpt lat="39.9254612" lon="1.2977934"><ele>0.0</ele><time>2026-04-29T23:14:48.14Z</time></trkpt><trkpt lat="39.9255434" lon="1.2978484"><ele>0.0</ele><time>2026-04-29T23:14:49.145Z</time></trkpt><trkpt lat="39.9256241" lon="1.2978974"><ele>0.0</ele><time>2026-04-29T23:14:50.152Z</time></trkpt><trkpt lat="39.9256928" lon="1.2979661"><ele>0.0</ele><time>2026-04-29T23:14:51.158Z</time></trkpt><trkpt lat="39.9257586" lon="1.2980294"><ele>0.0</ele><time>2026-04-29T23:14:52.164Z</time></trkpt><trkpt lat="39.925832" lon="1.2980587"><ele>0.0</ele><time>2026-04-29T23:14:53.068Z</time></trkpt><trkpt lat="39.9259046" lon="1.2981032"><ele>0.0</ele><time>2026-04-29T23:14:54.074Z</time></trkpt><trkpt lat="39.9259799" lon="1.2981524"><ele>0.0</ele><time>2026-04-29T23:14:55.079Z</time></trkpt><trkpt lat="39.9260595" lon="1.2981985"><ele>0.0</ele><time>2026-04-29T23:14:56.085Z</time></trkpt><trkpt lat="39.9261417" lon="1.2982514"><ele>0.0</ele><time>2026-04-29T23:14:57.092Z</time></trkpt><trkpt lat="39.9262285" lon="1.2983038"><ele>0.0</ele><time>2026-04-29T23:14:58.097Z</time></trkpt><trkpt lat="39.9263158" lon="1.2983545"><ele>0.0</ele><time>2026-04-29T23:14:59.102Z</time></trkpt><trkpt lat="39.9264022" lon="1.2984161"><ele>0.0</ele><time>2026-04-29T23:15:00.108Z</time></trkpt><trkpt lat="39.9264825" lon="1.2984893"><ele>0.0</ele><time>2026-04-29T23:15:01.114Z</time></trkpt><trkpt lat="39.9265678" lon="1.2985415"><ele>0.0</ele><time>2026-04-29T23:15:02.119Z</time></trkpt><trkpt lat="39.9266536" lon="1.2985931"><ele>0.0</ele><time>2026-04-29T23:15:03.125Z</time></trkpt><trkpt lat="39.9268279" lon="1.2986398"><ele>0.0</ele><time>2026-04-29T23:15:05.138Z</time></trkpt><trkpt lat="39.9269142" lon="1.2986895"><ele>0.0</ele><time>2026-04-29T23:15:06.143Z</time></trkpt><trkpt lat="39.9269942" lon="1.2987751"><ele>0.0</ele><time>2026-04-29T23:15:07.148Z</time></trkpt><trkpt lat="39.9270723" lon="1.2988613"><ele>0.0</ele><time>2026-04-29T23:15:08.155Z</time></trkpt><trkpt lat="39.9271621" lon="1.2989137"><ele>0.0</ele><time>2026-04-29T23:15:09.159Z</time></trkpt><trkpt lat="39.9272498" lon="1.2989555"><ele>0.0</ele><time>2026-04-29T23:15:10.065Z</time></trkpt><trkpt lat="39.9273354" lon="1.2990097"><ele>0.0</ele><time>2026-04-29T23:15:12.076Z</time></trkpt><trkpt lat="39.9274259" lon="1.2990912"><ele>0.0</ele><time>2026-04-29T23:15:13.083Z</time></trkpt><trkpt lat="39.9275169" lon="1.2991461"><ele>0.0</ele><time>2026-04-29T23:15:14.088Z</time></trkpt><trkpt lat="39.9275991" lon="1.2991966"><ele>0.0</ele><time>2026-04-29T23:15:15.094Z</time></trkpt><trkpt lat="39.9276592" lon="1.2992869"><ele>0.0</ele><time>2026-04-29T23:15:16.1Z</time></trkpt><trkpt lat="39.9277205" lon="1.2993743"><ele>0.0</ele><time>2026-04-29T23:15:17.106Z</time></trkpt><trkpt lat="39.9277926" lon="1.2994542"><ele>0.0</ele><time>2026-04-29T23:15:18.111Z</time></trkpt><trkpt lat="39.9279436" lon="1.299617"><ele>0.0</ele><time>2026-04-29T23:15:20.122Z</time></trkpt><trkpt lat="39.9280421" lon="1.2996543"><ele>0.0</ele><time>2026-04-29T23:15:21.129Z</time></trkpt><trkpt lat="39.9281264" lon="1.2997202"><ele>0.0</ele><time>2026-04-29T23:15:22.134Z</time></trkpt><trkpt lat="39.9282202" lon="1.2997582"><ele>0.0</ele><time>2026-04-29T23:15:23.139Z</time></trkpt><trkpt lat="39.9283189" lon="1.2997671"><ele>0.0</ele><time>2026-04-29T23:15:24.146Z</time></trkpt><trkpt lat="39.9285081" lon="1.2999268"><ele>0.0</ele><time>2026-04-29T23:15:27.162Z</time></trkpt><trkpt lat="39.9285993" lon="1.3000146"><ele>0.0</ele><time>2026-04-29T23:15:28.067Z</time></trkpt><trkpt lat="39.9286983" lon="1.3000481"><ele>0.0</ele><time>2026-04-29T23:15:29.074Z</time></trkpt><trkpt lat="39.9287891" lon="1.3000938"><ele>0.0</ele><time>2026-04-29T23:15:30.08Z</time></trkpt><trkpt lat="39.9288713" lon="1.3001584"><ele>0.0</ele><time>2026-04-29T23:15:31.084Z</time></trkpt><trkpt lat="39.9289547" lon="1.3002226"><ele>0.0</ele><time>2026-04-29T23:15:32.09Z</time></trkpt><trkpt lat="39.9290374" lon="1.3002911"><ele>0.0</ele><time>2026-04-29T23:15:33.096Z</time></trkpt><trkpt lat="39.9291218" lon="1.3003578"><ele>0.0</ele><time>2026-04-29T23:15:34.103Z</time></trkpt><trkpt lat="39.9292104" lon="1.3004039"><ele>0.0</ele><time>2026-04-29T23:15:35.107Z</time></trkpt><trkpt lat="39.9292842" lon="1.3004624"><ele>0.0</ele><time>2026-04-29T23:15:37.12Z</time></trkpt><trkpt lat="39.929371" lon="1.3005519"><ele>0.0</ele><time>2026-04-29T23:15:38.124Z</time></trkpt><trkpt lat="39.9294661" lon="1.3005927"><ele>0.0</ele><time>2026-04-29T23:15:39.131Z</time></trkpt><trkpt lat="39.9295569" lon="1.3006377"><ele>0.0</ele><time>2026-04-29T23:15:40.136Z</time></trkpt><trkpt lat="39.9296366" lon="1.3007042"><ele>0.0</ele><time>2026-04-29T23:15:41.142Z</time></trkpt><trkpt lat="39.9297057" lon="1.3007754"><ele>0.0</ele><time>2026-04-29T23:15:42.148Z</time></trkpt><trkpt lat="39.9297722" lon="1.3008341"><ele>0.0</ele><time>2026-04-29T23:15:43.154Z</time></trkpt><trkpt lat="39.9298411" lon="1.3009064"><ele>0.0</ele><time>2026-04-29T23:15:44.159Z</time></trkpt><trkpt lat="39.9299141" lon="1.3009664"><ele>0.0</ele><time>2026-04-29T23:15:45.165Z</time></trkpt><trkpt lat="39.9300676" lon="1.3010728"><ele>0.0</ele><time>2026-04-29T23:15:47.075Z</time></trkpt><trkpt lat="39.9301465" lon="1.3011295"><ele>0.0</ele><time>2026-04-29T23:15:48.082Z</time></trkpt><trkpt lat="39.9302187" lon="1.3011982"><ele>0.0</ele><time>2026-04-29T23:15:49.087Z</time></trkpt><trkpt lat="39.930294" lon="1.3012634"><ele>0.0</ele><time>2026-04-29T23:15:50.093Z</time></trkpt><trkpt lat="39.9304439" lon="1.3013999"><ele>0.0</ele><time>2026-04-29T23:15:52.105Z</time></trkpt><trkpt lat="39.9305346" lon="1.3014491"><ele>0.0</ele><time>2026-04-29T23:15:53.11Z</time></trkpt><trkpt lat="39.9306257" lon="1.3014899"><ele>0.0</ele><time>2026-04-29T23:15:54.117Z</time></trkpt><trkpt lat="39.9307099" lon="1.3015274"><ele>0.0</ele><time>2026-04-29T23:15:55.121Z</time></trkpt><trkpt lat="39.9307898" lon="1.30159"><ele>0.0</ele><time>2026-04-29T23:15:56.127Z</time></trkpt><trkpt lat="39.9308887" lon="1.3016297"><ele>0.0</ele><time>2026-04-29T23:15:57.965Z</time></trkpt><trkpt lat="39.9309652" lon="1.3016696"><ele>0.0</ele><time>2026-04-29T23:15:58.966Z</time></trkpt><trkpt lat="39.931046" lon="1.3017149"><ele>0.0</ele><time>2026-04-29T23:15:59.966Z</time></trkpt><trkpt lat="39.931123" lon="1.3017643"><ele>0.0</ele><time>2026-04-29T23:16:00.965Z</time></trkpt><trkpt lat="39.931194" lon="1.3018185"><ele>0.0</ele><time>2026-04-29T23:16:01.966Z</time></trkpt><trkpt lat="39.9312665" lon="1.3018785"><ele>0.0</ele><time>2026-04-29T23:16:02.965Z</time></trkpt><trkpt lat="39.9313387" lon="1.3019377"><ele>0.0</ele><time>2026-04-29T23:16:03.965Z</time></trkpt><trkpt lat="39.9314107" lon="1.3019873"><ele>0.0</ele><time>2026-04-29T23:16:04.966Z</time></trkpt><trkpt lat="39.9314853" lon="1.3020412"><ele>0.0</ele><time>2026-04-29T23:16:05.965Z</time></trkpt><trkpt lat="39.9316345" lon="1.3021464"><ele>0.0</ele><time>2026-04-29T23:16:07.966Z</time></trkpt><trkpt lat="39.9317084" lon="1.3022252"><ele>0.0</ele><time>2026-04-29T23:16:08.966Z</time></trkpt><trkpt lat="39.9317832" lon="1.3023031"><ele>0.0</ele><time>2026-04-29T23:16:09.966Z</time></trkpt><trkpt lat="39.9318613" lon="1.3023589"><ele>0.0</ele><time>2026-04-29T23:16:10.966Z</time></trkpt><trkpt lat="39.9319401" lon="1.3024261"><ele>0.0</ele><time>2026-04-29T23:16:11.965Z</time></trkpt><trkpt lat="39.9320157" lon="1.3024926"><ele>0.0</ele><time>2026-04-29T23:16:12.965Z</time></trkpt><trkpt lat="39.9320928" lon="1.3025109"><ele>0.0</ele><time>2026-04-29T23:16:13.966Z</time></trkpt><trkpt lat="39.9321696" lon="1.3025629"><ele>0.0</ele><time>2026-04-29T23:16:14.966Z</time></trkpt><trkpt lat="39.9322519" lon="1.3026151"><ele>0.0</ele><time>2026-04-29T23:16:15.965Z</time></trkpt><trkpt lat="39.93233" lon="1.3026754"><ele>0.0</ele><time>2026-04-29T23:16:16.965Z</time></trkpt><trkpt lat="39.9324065" lon="1.3027462"><ele>0.0</ele><time>2026-04-29T23:16:17.965Z</time></trkpt><trkpt lat="39.9324887" lon="1.3028137"><ele>0.0</ele><time>2026-04-29T23:16:18.965Z</time></trkpt><trkpt lat="39.9325738" lon="1.3028573"><ele>0.0</ele><time>2026-04-29T23:16:19.965Z</time></trkpt><trkpt lat="39.9326616" lon="1.3028946"><ele>0.0</ele><time>2026-04-29T23:16:20.965Z</time></trkpt><trkpt lat="39.9327413" lon="1.3029471"><ele>0.0</ele><time>2026-04-29T23:16:21.966Z</time></trkpt><trkpt lat="39.9328199" lon="1.3029967"><ele>0.0</ele><time>2026-04-29T23:16:22.966Z</time></trkpt><trkpt lat="39.9328907" lon="1.3030565"><ele>0.0</ele><time>2026-04-29T23:16:23.965Z</time></trkpt><trkpt lat="39.9329689" lon="1.3031077"><ele>0.0</ele><time>2026-04-29T23:16:24.965Z</time></trkpt><trkpt lat="39.9330524" lon="1.3031586"><ele>0.0</ele><time>2026-04-29T23:16:25.966Z</time></trkpt><trkpt lat="39.9331274" lon="1.3032066"><ele>0.0</ele><time>2026-04-29T23:16:26.966Z</time></trkpt><trkpt lat="39.9332766" lon="1.3033213"><ele>0.0</ele><time>2026-04-29T23:16:28.965Z</time></trkpt><trkpt lat="39.9333542" lon="1.3033747"><ele>0.0</ele><time>2026-04-29T23:16:29.966Z</time></trkpt><trkpt lat="39.93343" lon="1.3034344"><ele>0.0</ele><time>2026-04-29T23:16:30.965Z</time></trkpt><trkpt lat="39.9335049" lon="1.3034887"><ele>0.0</ele><time>2026-04-29T23:16:31.965Z</time></trkpt><trkpt lat="39.9335839" lon="1.3035452"><ele>0.0</ele><time>2026-04-29T23:16:32.965Z</time></trkpt><trkpt lat="39.9336628" lon="1.3036012"><ele>0.0</ele><time>2026-04-29T23:16:33.966Z</time></trkpt><trkpt lat="39.9337102" lon="1.3036696"><ele>0.0</ele><time>2026-04-29T23:16:36.155Z</time></trkpt><trkpt lat="39.9337842" lon="1.3037424"><ele>0.0</ele><time>2026-04-29T23:16:37.162Z</time></trkpt><trkpt lat="39.9339403" lon="1.3038143"><ele>0.0</ele><time>2026-04-29T23:16:38.167Z</time></trkpt><trkpt lat="39.9340371" lon="1.3038635"><ele>0.0</ele><time>2026-04-29T23:16:39.071Z</time></trkpt><trkpt lat="39.9341299" lon="1.3039162"><ele>0.0</ele><time>2026-04-29T23:16:40.077Z</time></trkpt><trkpt lat="39.9342249" lon="1.3039667"><ele>0.0</ele><time>2026-04-29T23:16:41.083Z</time></trkpt><trkpt lat="39.9343196" lon="1.3040247"><ele>0.0</ele><time>2026-04-29T23:16:42.09Z</time></trkpt><trkpt lat="39.9344034" lon="1.3040951"><ele>0.0</ele><time>2026-04-29T23:16:43.095Z</time></trkpt><trkpt lat="39.9344846" lon="1.3041371"><ele>0.0</ele><time>2026-04-29T23:16:44.101Z</time></trkpt><trkpt lat="39.9345678" lon="1.3041469"><ele>0.0</ele><time>2026-04-29T23:16:45.107Z</time></trkpt><trkpt lat="39.9346551" lon="1.3041161"><ele>0.0</ele><time>2026-04-29T23:16:46.112Z</time></trkpt><trkpt lat="39.9347421" lon="1.3040943"><ele>0.0</ele><time>2026-04-29T23:16:47.118Z</time></trkpt><trkpt lat="39.9348314" lon="1.3041724"><ele>0.0</ele><time>2026-04-29T23:16:48.123Z</time></trkpt><trkpt lat="39.9349777" lon="1.3043743"><ele>0.0</ele><time>2026-04-29T23:16:50.135Z</time></trkpt><trkpt lat="39.9350521" lon="1.3044587"><ele>0.0</ele><time>2026-04-29T23:16:51.14Z</time></trkpt><trkpt lat="39.9351748" lon="1.3045909"><ele>0.0</ele><time>2026-04-29T23:16:52.966Z</time></trkpt><trkpt lat="39.9352505" lon="1.3046518"><ele>0.0</ele><time>2026-04-29T23:16:53.966Z</time></trkpt><trkpt lat="39.9353246" lon="1.3047137"><ele>0.0</ele><time>2026-04-29T23:16:54.965Z</time></trkpt><trkpt lat="39.9354046" lon="1.3047838"><ele>0.0</ele><time>2026-04-29T23:16:55.966Z</time></trkpt><trkpt lat="39.9354894" lon="1.304857"><ele>0.0</ele><time>2026-04-29T23:16:56.965Z</time></trkpt><trkpt lat="39.9355692" lon="1.3049337"><ele>0.0</ele><time>2026-04-29T23:16:57.965Z</time></trkpt><trkpt lat="39.9356472" lon="1.3050111"><ele>0.0</ele><time>2026-04-29T23:16:58.966Z</time></trkpt><trkpt lat="39.9357227" lon="1.305084"><ele>0.0</ele><time>2026-04-29T23:16:59.965Z</time></trkpt><trkpt lat="39.9358003" lon="1.3051432"><ele>0.0</ele><time>2026-04-29T23:17:00.965Z</time></trkpt><trkpt lat="39.9358804" lon="1.3052081"><ele>0.0</ele><time>2026-04-29T23:17:01.965Z</time></trkpt><trkpt lat="39.9359616" lon="1.3052732"><ele>0.0</ele><time>2026-04-29T23:17:02.966Z</time></trkpt><trkpt lat="39.9360407" lon="1.3053282"><ele>0.0</ele><time>2026-04-29T23:17:03.966Z</time></trkpt><trkpt lat="39.9361163" lon="1.3053839"><ele>0.0</ele><time>2026-04-29T23:17:04.965Z</time></trkpt><trkpt lat="39.9361908" lon="1.3054341"><ele>0.0</ele><time>2026-04-29T23:17:05.966Z</time></trkpt><trkpt lat="39.9362673" lon="1.3054807"><ele>0.0</ele><time>2026-04-29T23:17:06.966Z</time></trkpt><trkpt lat="39.936341" lon="1.305526"><ele>0.0</ele><time>2026-04-29T23:17:07.966Z</time></trkpt><trkpt lat="39.9364143" lon="1.3055712"><ele>0.0</ele><time>2026-04-29T23:17:08.965Z</time></trkpt><trkpt lat="39.9365701" lon="1.3056392"><ele>0.0</ele><time>2026-04-29T23:17:10.966Z</time></trkpt><trkpt lat="39.9366436" lon="1.3056898"><ele>0.0</ele><time>2026-04-29T23:17:11.966Z</time></trkpt><trkpt lat="39.9367111" lon="1.3057404"><ele>0.0</ele><time>2026-04-29T23:17:12.966Z</time></trkpt><trkpt lat="39.9367882" lon="1.3057951"><ele>0.0</ele><time>2026-04-29T23:17:13.965Z</time></trkpt><trkpt lat="39.9368655" lon="1.305823"><ele>0.0</ele><time>2026-04-29T23:17:14.966Z</time></trkpt><trkpt lat="39.9369374" lon="1.3058425"><ele>0.0</ele><time>2026-04-29T23:17:15.965Z</time></trkpt><trkpt lat="39.9370132" lon="1.305889"><ele>0.0</ele><time>2026-04-29T23:17:16.965Z</time></trkpt><trkpt lat="39.9370897" lon="1.3059363"><ele>0.0</ele><time>2026-04-29T23:17:17.965Z</time></trkpt><trkpt lat="39.9371688" lon="1.3059622"><ele>0.0</ele><time>2026-04-29T23:17:18.966Z</time></trkpt><trkpt lat="39.9372462" lon="1.306017"><ele>0.0</ele><time>2026-04-29T23:17:19.965Z</time></trkpt><trkpt lat="39.937323" lon="1.3060663"><ele>0.0</ele><time>2026-04-29T23:17:20.965Z</time></trkpt><trkpt lat="39.9373927" lon="1.3061056"><ele>0.0</ele><time>2026-04-29T23:17:21.966Z</time></trkpt><trkpt lat="39.9374713" lon="1.306153"><ele>0.0</ele><time>2026-04-29T23:17:22.966Z</time></trkpt><trkpt lat="39.9375576" lon="1.3061893"><ele>0.0</ele><time>2026-04-29T23:17:23.966Z</time></trkpt><trkpt lat="39.937638" lon="1.3062505"><ele>0.0</ele><time>2026-04-29T23:17:24.966Z</time></trkpt><trkpt lat="39.9377184" lon="1.3063172"><ele>0.0</ele><time>2026-04-29T23:17:25.966Z</time></trkpt><trkpt lat="39.937883" lon="1.3064303"><ele>0.0</ele><time>2026-04-29T23:17:27.966Z</time></trkpt><trkpt lat="39.9379556" lon="1.306495"><ele>0.0</ele><time>2026-04-29T23:17:28.965Z</time></trkpt><trkpt lat="39.93804" lon="1.3065459"><ele>0.0</ele><time>2026-04-29T23:17:29.966Z</time></trkpt><trkpt lat="39.9382062" lon="1.3066588"><ele>0.0</ele><time>2026-04-29T23:17:31.966Z</time></trkpt><trkpt lat="39.9382837" lon="1.3067157"><ele>0.0</ele><time>2026-04-29T23:17:32.966Z</time></trkpt><trkpt lat="39.9383584" lon="1.3067635"><ele>0.0</ele><time>2026-04-29T23:17:35.142Z</time></trkpt><trkpt lat="39.93849" lon="1.3068057"><ele>0.0</ele><time>2026-04-29T23:17:36.147Z</time></trkpt><trkpt lat="39.9385792" lon="1.3068621"><ele>0.0</ele><time>2026-04-29T23:17:37.154Z</time></trkpt><trkpt lat="39.938659" lon="1.3069341"><ele>0.0</ele><time>2026-04-29T23:17:38.058Z</time></trkpt><trkpt lat="39.9387494" lon="1.3070051"><ele>0.0</ele><time>2026-04-29T23:17:39.164Z</time></trkpt><trkpt lat="39.9388329" lon="1.3070732"><ele>0.0</ele><time>2026-04-29T23:17:40.07Z</time></trkpt><trkpt lat="39.9389255" lon="1.3071402"><ele>0.0</ele><time>2026-04-29T23:17:41.177Z</time></trkpt><trkpt lat="39.9390196" lon="1.3071579"><ele>0.0</ele><time>2026-04-29T23:17:42.081Z</time></trkpt><trkpt lat="39.9391836" lon="1.3072256"><ele>0.0</ele><time>2026-04-29T23:17:45.099Z</time></trkpt><trkpt lat="39.9392949" lon="1.3072343"><ele>0.0</ele><time>2026-04-29T23:17:46.105Z</time></trkpt><trkpt lat="39.9393764" lon="1.3072926"><ele>0.0</ele><time>2026-04-29T23:17:47.11Z</time></trkpt><trkpt lat="39.9394445" lon="1.3073672"><ele>0.0</ele><time>2026-04-29T23:17:48.116Z</time></trkpt><trkpt lat="39.9395114" lon="1.3074333"><ele>0.0</ele><time>2026-04-29T23:17:49.122Z</time></trkpt><trkpt lat="39.939588" lon="1.307491"><ele>0.0</ele><time>2026-04-29T23:17:50.127Z</time></trkpt><trkpt lat="39.9396746" lon="1.3075514"><ele>0.0</ele><time>2026-04-29T23:17:51.133Z</time></trkpt><trkpt lat="39.9398324" lon="1.3076854"><ele>0.0</ele><time>2026-04-29T23:17:53.146Z</time></trkpt><trkpt lat="39.9399254" lon="1.3077114"><ele>0.0</ele><time>2026-04-29T23:17:54.15Z</time></trkpt><trkpt lat="39.9400232" lon="1.3076958"><ele>0.0</ele><time>2026-04-29T23:17:55.156Z</time></trkpt><trkpt lat="39.9401104" lon="1.3077409"><ele>0.0</ele><time>2026-04-29T23:17:56.163Z</time></trkpt><trkpt lat="39.9402242" lon="1.3078485"><ele>0.0</ele><time>2026-04-29T23:17:57.966Z</time></trkpt><trkpt lat="39.9403035" lon="1.307907"><ele>0.0</ele><time>2026-04-29T23:17:58.965Z</time></trkpt><trkpt lat="39.9403765" lon="1.3079595"><ele>0.0</ele><time>2026-04-29T23:17:59.965Z</time></trkpt><trkpt lat="39.940453" lon="1.3080136"><ele>0.0</ele><time>2026-04-29T23:18:00.964Z</time></trkpt><trkpt lat="39.9405284" lon="1.3080653"><ele>0.0</ele><time>2026-04-29T23:18:01.965Z</time></trkpt><trkpt lat="39.9406048" lon="1.3081216"><ele>0.0</ele><time>2026-04-29T23:18:02.964Z</time></trkpt><trkpt lat="39.940679" lon="1.3081667"><ele>0.0</ele><time>2026-04-29T23:18:03.965Z</time></trkpt><trkpt lat="39.9407503" lon="1.3081733"><ele>0.0</ele><time>2026-04-29T23:18:04.964Z</time></trkpt><trkpt lat="39.940816" lon="1.3082252"><ele>0.0</ele><time>2026-04-29T23:18:05.965Z</time></trkpt><trkpt lat="39.9408955" lon="1.3082454"><ele>0.0</ele><time>2026-04-29T23:18:06.965Z</time></trkpt><trkpt lat="39.9409717" lon="1.3082928"><ele>0.0</ele><time>2026-04-29T23:18:07.965Z</time></trkpt><trkpt lat="39.941044" lon="1.3083494"><ele>0.0</ele><time>2026-04-29T23:18:08.964Z</time></trkpt><trkpt lat="39.9411175" lon="1.3084117"><ele>0.0</ele><time>2026-04-29T23:18:09.964Z</time></trkpt><trkpt lat="39.9411992" lon="1.3084722"><ele>0.0</ele><time>2026-04-29T23:18:10.965Z</time></trkpt><trkpt lat="39.9412783" lon="1.3085413"><ele>0.0</ele><time>2026-04-29T23:18:11.964Z</time></trkpt><trkpt lat="39.9414431" lon="1.3086634"><ele>0.0</ele><time>2026-04-29T23:18:13.965Z</time></trkpt><trkpt lat="39.9415255" lon="1.3087051"><ele>0.0</ele><time>2026-04-29T23:18:14.964Z</time></trkpt><trkpt lat="39.9415972" lon="1.308761"><ele>0.0</ele><time>2026-04-29T23:18:15.965Z</time></trkpt><trkpt lat="39.9416785" lon="1.3087908"><ele>0.0</ele><time>2026-04-29T23:18:16.964Z</time></trkpt><trkpt lat="39.9417634" lon="1.3088309"><ele>0.0</ele><time>2026-04-29T23:18:17.964Z</time></trkpt><trkpt lat="39.9418457" lon="1.3088792"><ele>0.0</ele><time>2026-04-29T23:18:18.964Z</time></trkpt><trkpt lat="39.9419231" lon="1.3089438"><ele>0.0</ele><time>2026-04-29T23:18:19.964Z</time></trkpt><trkpt lat="39.9420044" lon="1.309005"><ele>0.0</ele><time>2026-04-29T23:18:20.964Z</time></trkpt><trkpt lat="39.9420802" lon="1.3090685"><ele>0.0</ele><time>2026-04-29T23:18:21.964Z</time></trkpt><trkpt lat="39.9421552" lon="1.3091279"><ele>0.0</ele><time>2026-04-29T23:18:22.964Z</time></trkpt><trkpt lat="39.9422313" lon="1.3091908"><ele>0.0</ele><time>2026-04-29T23:18:23.965Z</time></trkpt><trkpt lat="39.9423081" lon="1.3092543"><ele>0.0</ele><time>2026-04-29T23:18:24.964Z</time></trkpt><trkpt lat="39.942382" lon="1.3093129"><ele>0.0</ele><time>2026-04-29T23:18:25.964Z</time></trkpt><trkpt lat="39.9424596" lon="1.3093696"><ele>0.0</ele><time>2026-04-29T23:18:26.964Z</time></trkpt><trkpt lat="39.9425396" lon="1.3094308"><ele>0.0</ele><time>2026-04-29T23:18:27.965Z</time></trkpt><trkpt lat="39.9426188" lon="1.3094576"><ele>0.0</ele><time>2026-04-29T23:18:28.965Z</time></trkpt><trkpt lat="39.9426894" lon="1.3095119"><ele>0.0</ele><time>2026-04-29T23:18:29.965Z</time></trkpt><trkpt lat="39.942761" lon="1.30957"><ele>0.0</ele><time>2026-04-29T23:18:30.965Z</time></trkpt><trkpt lat="39.9428339" lon="1.3096236"><ele>0.0</ele><time>2026-04-29T23:18:31.965Z</time></trkpt><trkpt lat="39.9429072" lon="1.3096795"><ele>0.0</ele><time>2026-04-29T23:18:32.964Z</time></trkpt><trkpt lat="39.9430658" lon="1.3098129"><ele>0.0</ele><time>2026-04-29T23:18:34.964Z</time></trkpt><trkpt lat="39.9431448" lon="1.3098222"><ele>0.0</ele><time>2026-04-29T23:18:35.964Z</time></trkpt><trkpt lat="39.9432229" lon="1.3098371"><ele>0.0</ele><time>2026-04-29T23:18:36.964Z</time></trkpt><trkpt lat="39.9432999" lon="1.3098773"><ele>0.0</ele><time>2026-04-29T23:18:37.964Z</time></trkpt><trkpt lat="39.9433819" lon="1.309928"><ele>0.0</ele><time>2026-04-29T23:18:38.965Z</time></trkpt><trkpt lat="39.9434714" lon="1.309973"><ele>0.0</ele><time>2026-04-29T23:18:39.964Z</time></trkpt><trkpt lat="39.9435576" lon="1.3100212"><ele>0.0</ele><time>2026-04-29T23:18:40.965Z</time></trkpt><trkpt lat="39.9436395" lon="1.3100776"><ele>0.0</ele><time>2026-04-29T23:18:41.965Z</time></trkpt><trkpt lat="39.9437141" lon="1.3101325"><ele>0.0</ele><time>2026-04-29T23:18:42.965Z</time></trkpt><trkpt lat="39.9437872" lon="1.3101966"><ele>0.0</ele><time>2026-04-29T23:18:43.965Z</time></trkpt><trkpt lat="39.943862" lon="1.3102573"><ele>0.0</ele><time>2026-04-29T23:18:44.965Z</time></trkpt><trkpt lat="39.9439444" lon="1.3103083"><ele>0.0</ele><time>2026-04-29T23:18:45.965Z</time></trkpt><trkpt lat="39.9440273" lon="1.3103497"><ele>0.0</ele><time>2026-04-29T23:18:46.964Z</time></trkpt><trkpt lat="39.9441023" lon="1.3104169"><ele>0.0</ele><time>2026-04-29T23:18:47.965Z</time></trkpt><trkpt lat="39.9441883" lon="1.3104799"><ele>0.0</ele><time>2026-04-29T23:18:48.965Z</time></trkpt><trkpt lat="39.9442641" lon="1.3105348"><ele>0.0</ele><time>2026-04-29T23:18:49.964Z</time></trkpt><trkpt lat="39.9443399" lon="1.3105909"><ele>0.0</ele><time>2026-04-29T23:18:50.964Z</time></trkpt><trkpt lat="39.9444256" lon="1.3106445"><ele>0.0</ele><time>2026-04-29T23:18:51.964Z</time></trkpt><trkpt lat="39.9445038" lon="1.3107008"><ele>0.0</ele><time>2026-04-29T23:18:52.965Z</time></trkpt><trkpt lat="39.944582" lon="1.3107605"><ele>0.0</ele><time>2026-04-29T23:18:53.964Z</time></trkpt><trkpt lat="39.9448757" lon="1.3110159"><ele>0.0</ele><time>2026-04-29T23:18:57.965Z</time></trkpt><trkpt lat="39.9449506" lon="1.3110785"><ele>0.0</ele><time>2026-04-29T23:18:58.965Z</time></trkpt><trkpt lat="39.9450201" lon="1.3111409"><ele>0.0</ele><time>2026-04-29T23:18:59.964Z</time></trkpt><trkpt lat="39.9450892" lon="1.3112012"><ele>0.0</ele><time>2026-04-29T23:19:00.964Z</time></trkpt><trkpt lat="39.9451592" lon="1.3112607"><ele>0.0</ele><time>2026-04-29T23:19:01.965Z</time></trkpt><trkpt lat="39.945232" lon="1.3113246"><ele>0.0</ele><time>2026-04-29T23:19:02.964Z</time></trkpt><trkpt lat="39.9453039" lon="1.3113858"><ele>0.0</ele><time>2026-04-29T23:19:03.965Z</time></trkpt><trkpt lat="39.9453814" lon="1.3114408"><ele>0.0</ele><time>2026-04-29T23:19:04.964Z</time></trkpt><trkpt lat="39.9454667" lon="1.311494"><ele>0.0</ele><time>2026-04-29T23:19:05.964Z</time></trkpt><trkpt lat="39.9455464" lon="1.3115355"><ele>0.0</ele><time>2026-04-29T23:19:06.965Z</time></trkpt><trkpt lat="39.945625" lon="1.3115953"><ele>0.0</ele><time>2026-04-29T23:19:07.964Z</time></trkpt><trkpt lat="39.9457022" lon="1.3116456"><ele>0.0</ele><time>2026-04-29T23:19:08.964Z</time></trkpt><trkpt lat="39.9457741" lon="1.311699"><ele>0.0</ele><time>2026-04-29T23:19:09.965Z</time></trkpt><trkpt lat="39.9458474" lon="1.3117507"><ele>0.0</ele><time>2026-04-29T23:19:10.964Z</time></trkpt><trkpt lat="39.9459249" lon="1.3118179"><ele>0.0</ele><time>2026-04-29T23:19:11.965Z</time></trkpt><trkpt lat="39.9460049" lon="1.3118835"><ele>0.0</ele><time>2026-04-29T23:19:12.964Z</time></trkpt><trkpt lat="39.946083" lon="1.3119533"><ele>0.0</ele><time>2026-04-29T23:19:13.964Z</time></trkpt><trkpt lat="39.9461671" lon="1.3120211"><ele>0.0</ele><time>2026-04-29T23:19:14.964Z</time></trkpt><trkpt lat="39.9463389" lon="1.3121406"><ele>0.0</ele><time>2026-04-29T23:19:16.965Z</time></trkpt><trkpt lat="39.9464243" lon="1.3122161"><ele>0.0</ele><time>2026-04-29T23:19:17.964Z</time></trkpt><trkpt lat="39.9465077" lon="1.3122776"><ele>0.0</ele><time>2026-04-29T23:19:18.965Z</time></trkpt><trkpt lat="39.9465827" lon="1.3123352"><ele>0.0</ele><time>2026-04-29T23:19:19.965Z</time></trkpt><trkpt lat="39.946699" lon="1.3124093"><ele>0.0</ele><time>2026-04-29T23:19:21.964Z</time></trkpt><trkpt lat="39.9467748" lon="1.3124574"><ele>0.0</ele><time>2026-04-29T23:19:22.965Z</time></trkpt><trkpt lat="39.9468502" lon="1.3124959"><ele>0.0</ele><time>2026-04-29T23:19:23.965Z</time></trkpt><trkpt lat="39.9469237" lon="1.3125437"><ele>0.0</ele><time>2026-04-29T23:19:24.965Z</time></trkpt><trkpt lat="39.9469986" lon="1.3125964"><ele>0.0</ele><time>2026-04-29T23:19:25.964Z</time></trkpt><trkpt lat="39.9470749" lon="1.3126614"><ele>0.0</ele><time>2026-04-29T23:19:26.965Z</time></trkpt><trkpt lat="39.9471572" lon="1.3127212"><ele>0.0</ele><time>2026-04-29T23:19:27.964Z</time></trkpt><trkpt lat="39.9472431" lon="1.3127839"><ele>0.0</ele><time>2026-04-29T23:19:28.965Z</time></trkpt><trkpt lat="39.9473289" lon="1.3128219"><ele>0.0</ele><time>2026-04-29T23:19:29.965Z</time></trkpt><trkpt lat="39.9474077" lon="1.3128706"><ele>0.0</ele><time>2026-04-29T23:19:30.965Z</time></trkpt><trkpt lat="39.9474852" lon="1.3129162"><ele>0.0</ele><time>2026-04-29T23:19:31.964Z</time></trkpt><trkpt lat="39.947561" lon="1.3129634"><ele>0.0</ele><time>2026-04-29T23:19:32.964Z</time></trkpt><trkpt lat="39.9476386" lon="1.3130133"><ele>0.0</ele><time>2026-04-29T23:19:33.965Z</time></trkpt><trkpt lat="39.9477168" lon="1.3130521"><ele>0.0</ele><time>2026-04-29T23:19:34.964Z</time></trkpt><trkpt lat="39.9479507" lon="1.3131885"><ele>0.0</ele><time>2026-04-29T23:19:37.965Z</time></trkpt><trkpt lat="39.9480268" lon="1.3132382"><ele>0.0</ele><time>2026-04-29T23:19:38.964Z</time></trkpt><trkpt lat="39.9481058" lon="1.313291"><ele>0.0</ele><time>2026-04-29T23:19:39.965Z</time></trkpt><trkpt lat="39.9481859" lon="1.3133515"><ele>0.0</ele><time>2026-04-29T23:19:40.965Z</time></trkpt><trkpt lat="39.9482713" lon="1.3134134"><ele>0.0</ele><time>2026-04-29T23:19:41.964Z</time></trkpt><trkpt lat="39.94835" lon="1.3134778"><ele>0.0</ele><time>2026-04-29T23:19:42.965Z</time></trkpt><trkpt lat="39.9484316" lon="1.313537"><ele>0.0</ele><time>2026-04-29T23:19:43.964Z</time></trkpt><trkpt lat="39.9485141" lon="1.3135962"><ele>0.0</ele><time>2026-04-29T23:19:44.964Z</time></trkpt><trkpt lat="39.9485831" lon="1.3136648"><ele>0.0</ele><time>2026-04-29T23:19:45.964Z</time></trkpt><trkpt lat="39.9486614" lon="1.3137264"><ele>0.0</ele><time>2026-04-29T23:19:46.965Z</time></trkpt><trkpt lat="39.948738" lon="1.3137653"><ele>0.0</ele><time>2026-04-29T23:19:47.964Z</time></trkpt><trkpt lat="39.9488" lon="1.3137824"><ele>0.0</ele><time>2026-04-29T23:19:48.965Z</time></trkpt><trkpt lat="39.9489293" lon="1.313823"><ele>0.0</ele><time>2026-04-29T23:19:50.964Z</time></trkpt><trkpt lat="39.949002" lon="1.3138575"><ele>0.0</ele><time>2026-04-29T23:19:53.174Z</time></trkpt><trkpt lat="39.9491701" lon="1.3138888"><ele>0.0</ele><time>2026-04-29T23:19:54.078Z</time></trkpt><trkpt lat="39.9492637" lon="1.3139586"><ele>0.0</ele><time>2026-04-29T23:19:55.084Z</time></trkpt><trkpt lat="39.9493378" lon="1.3140454"><ele>0.0</ele><time>2026-04-29T23:19:56.089Z</time></trkpt><trkpt lat="39.9494182" lon="1.314122"><ele>0.0</ele><time>2026-04-29T23:19:57.095Z</time></trkpt><trkpt lat="39.9495772" lon="1.3142725"><ele>0.0</ele><time>2026-04-29T23:19:59.107Z</time></trkpt><trkpt lat="39.9496602" lon="1.3143357"><ele>0.0</ele><time>2026-04-29T23:20:00.112Z</time></trkpt><trkpt lat="39.9497741" lon="1.3143012"><ele>0.0</ele><time>2026-04-29T23:20:02.124Z</time></trkpt><trkpt lat="39.9498731" lon="1.3143611"><ele>0.0</ele><time>2026-04-29T23:20:03.13Z</time></trkpt><trkpt lat="39.9499661" lon="1.31439"><ele>0.0</ele><time>2026-04-29T23:20:04.136Z</time></trkpt><trkpt lat="39.9500534" lon="1.3144433"><ele>0.0</ele><time>2026-04-29T23:20:05.141Z</time></trkpt><trkpt lat="39.9502058" lon="1.3145379"><ele>0.0</ele><time>2026-04-29T23:20:06.964Z</time></trkpt><trkpt lat="39.9502885" lon="1.314602"><ele>0.0</ele><time>2026-04-29T23:20:07.965Z</time></trkpt><trkpt lat="39.9503567" lon="1.314653"><ele>0.0</ele><time>2026-04-29T23:20:08.964Z</time></trkpt><trkpt lat="39.950436" lon="1.3147154"><ele>0.0</ele><time>2026-04-29T23:20:09.964Z</time></trkpt><trkpt lat="39.9505173" lon="1.3147772"><ele>0.0</ele><time>2026-04-29T23:20:10.964Z</time></trkpt><trkpt lat="39.9505993" lon="1.3148437"><ele>0.0</ele><time>2026-04-29T23:20:11.964Z</time></trkpt><trkpt lat="39.9506799" lon="1.3149091"><ele>0.0</ele><time>2026-04-29T23:20:12.964Z</time></trkpt><trkpt lat="39.9507612" lon="1.3149726"><ele>0.0</ele><time>2026-04-29T23:20:13.965Z</time></trkpt><trkpt lat="39.9508483" lon="1.3150401"><ele>0.0</ele><time>2026-04-29T23:20:14.965Z</time></trkpt><trkpt lat="39.9509326" lon="1.3151089"><ele>0.0</ele><time>2026-04-29T23:20:15.965Z</time></trkpt><trkpt lat="39.9510187" lon="1.3151743"><ele>0.0</ele><time>2026-04-29T23:20:16.965Z</time></trkpt><trkpt lat="39.9510996" lon="1.3152377"><ele>0.0</ele><time>2026-04-29T23:20:17.964Z</time></trkpt><trkpt lat="39.9512516" lon="1.3153461"><ele>0.0</ele><time>2026-04-29T23:20:19.965Z</time></trkpt><trkpt lat="39.9513236" lon="1.3154038"><ele>0.0</ele><time>2026-04-29T23:20:20.964Z</time></trkpt><trkpt lat="39.9514056" lon="1.3154662"><ele>0.0</ele><time>2026-04-29T23:20:21.965Z</time></trkpt><trkpt lat="39.9514846" lon="1.3155259"><ele>0.0</ele><time>2026-04-29T23:20:22.964Z</time></trkpt><trkpt lat="39.9515663" lon="1.315583"><ele>0.0</ele><time>2026-04-29T23:20:23.964Z</time></trkpt><trkpt lat="39.951641" lon="1.3156074"><ele>0.0</ele><time>2026-04-29T23:20:24.964Z</time></trkpt><trkpt lat="39.9517123" lon="1.3156386"><ele>0.0</ele><time>2026-04-29T23:20:25.964Z</time></trkpt><trkpt lat="39.9517899" lon="1.3156794"><ele>0.0</ele><time>2026-04-29T23:20:26.965Z</time></trkpt><trkpt lat="39.9518698" lon="1.3157332"><ele>0.0</ele><time>2026-04-29T23:20:27.965Z</time></trkpt><trkpt lat="39.9519484" lon="1.3157827"><ele>0.0</ele><time>2026-04-29T23:20:28.964Z</time></trkpt><trkpt lat="39.9520264" lon="1.3158383"><ele>0.0</ele><time>2026-04-29T23:20:29.964Z</time></trkpt><trkpt lat="39.9521219" lon="1.3158843"><ele>0.0</ele><time>2026-04-29T23:20:30.964Z</time></trkpt><trkpt lat="39.9521972" lon="1.3159394"><ele>0.0</ele><time>2026-04-29T23:20:31.964Z</time></trkpt><trkpt lat="39.9522734" lon="1.3159932"><ele>0.0</ele><time>2026-04-29T23:20:32.965Z</time></trkpt><trkpt lat="39.9523456" lon="1.3160468"><ele>0.0</ele><time>2026-04-29T23:20:33.964Z</time></trkpt><trkpt lat="39.9524192" lon="1.3160749"><ele>0.0</ele><time>2026-04-29T23:20:34.965Z</time></trkpt><trkpt lat="39.9524921" lon="1.3161284"><ele>0.0</ele><time>2026-04-29T23:20:35.964Z</time></trkpt><trkpt lat="39.95257" lon="1.3161646"><ele>0.0</ele><time>2026-04-29T23:20:36.965Z</time></trkpt><trkpt lat="39.9526438" lon="1.3162225"><ele>0.0</ele><time>2026-04-29T23:20:37.964Z</time></trkpt><trkpt lat="39.9527227" lon="1.3162753"><ele>0.0</ele><time>2026-04-29T23:20:38.965Z</time></trkpt><trkpt lat="39.9529577" lon="1.3164412"><ele>0.0</ele><time>2026-04-29T23:20:41.964Z</time></trkpt><trkpt lat="39.9530418" lon="1.3164962"><ele>0.0</ele><time>2026-04-29T23:20:42.965Z</time></trkpt><trkpt lat="39.9531225" lon="1.3165481"><ele>0.0</ele><time>2026-04-29T23:20:43.964Z</time></trkpt><trkpt lat="39.9532036" lon="1.316603"><ele>0.0</ele><time>2026-04-29T23:20:44.965Z</time></trkpt><trkpt lat="39.9532754" lon="1.3166672"><ele>0.0</ele><time>2026-04-29T23:20:45.965Z</time></trkpt><trkpt lat="39.9533458" lon="1.3167279"><ele>0.0</ele><time>2026-04-29T23:20:46.964Z</time></trkpt><trkpt lat="39.9534201" lon="1.3167567"><ele>0.0</ele><time>2026-04-29T23:20:47.965Z</time></trkpt><trkpt lat="39.953498" lon="1.3168145"><ele>0.0</ele><time>2026-04-29T23:20:48.965Z</time></trkpt><trkpt lat="39.9535837" lon="1.3168744"><ele>0.0</ele><time>2026-04-29T23:20:49.965Z</time></trkpt><trkpt lat="39.9536602" lon="1.3169326"><ele>0.0</ele><time>2026-04-29T23:20:50.965Z</time></trkpt><trkpt lat="39.953741" lon="1.316964"><ele>0.0</ele><time>2026-04-29T23:20:51.964Z</time></trkpt><trkpt lat="39.9538151" lon="1.3170203"><ele>0.0</ele><time>2026-04-29T23:20:52.964Z</time></trkpt><trkpt lat="39.9538926" lon="1.3170698"><ele>0.0</ele><time>2026-04-29T23:20:53.964Z</time></trkpt><trkpt lat="39.9539696" lon="1.3171283"><ele>0.0</ele><time>2026-04-29T23:20:54.964Z</time></trkpt><trkpt lat="39.9540477" lon="1.3171881"><ele>0.0</ele><time>2026-04-29T23:20:55.965Z</time></trkpt><trkpt lat="39.9541263" lon="1.3172465"><ele>0.0</ele><time>2026-04-29T23:20:56.964Z</time></trkpt><trkpt lat="39.9542079" lon="1.3172984"><ele>0.0</ele><time>2026-04-29T23:20:57.965Z</time></trkpt><trkpt lat="39.9542837" lon="1.3173411"><ele>0.0</ele><time>2026-04-29T23:20:58.964Z</time></trkpt><trkpt lat="39.9543616" lon="1.3173879"><ele>0.0</ele><time>2026-04-29T23:20:59.964Z</time></trkpt><trkpt lat="39.9544384" lon="1.31743"><ele>0.0</ele><time>2026-04-29T23:21:00.965Z</time></trkpt><trkpt lat="39.9545814" lon="1.3175292"><ele>0.0</ele><time>2026-04-29T23:21:02.965Z</time></trkpt><trkpt lat="39.9546596" lon="1.3175878"><ele>0.0</ele><time>2026-04-29T23:21:03.965Z</time></trkpt><trkpt lat="39.9547386" lon="1.317648"><ele>0.0</ele><time>2026-04-29T23:21:04.964Z</time></trkpt><trkpt lat="39.9548141" lon="1.3177151"><ele>0.0</ele><time>2026-04-29T23:21:05.965Z</time></trkpt><trkpt lat="39.9548857" lon="1.3177735"><ele>0.0</ele><time>2026-04-29T23:21:06.965Z</time></trkpt><trkpt lat="39.9549658" lon="1.317833"><ele>0.0</ele><time>2026-04-29T23:21:07.964Z</time></trkpt><trkpt lat="39.9550479" lon="1.3178979"><ele>0.0</ele><time>2026-04-29T23:21:08.964Z</time></trkpt><trkpt lat="39.9551264" lon="1.3179637"><ele>0.0</ele><time>2026-04-29T23:21:09.964Z</time></trkpt><trkpt lat="39.9552047" lon="1.3180107"><ele>0.0</ele><time>2026-04-29T23:21:10.964Z</time></trkpt><trkpt lat="39.9553627" lon="1.3181156"><ele>0.0</ele><time>2026-04-29T23:21:12.964Z</time></trkpt><trkpt lat="39.9554442" lon="1.3181427"><ele>0.0</ele><time>2026-04-29T23:21:15.151Z</time></trkpt><trkpt lat="39.9555555" lon="1.3182226"><ele>0.0</ele><time>2026-04-29T23:21:16.155Z</time></trkpt><trkpt lat="39.9556593" lon="1.3183153"><ele>0.0</ele><time>2026-04-29T23:21:17.162Z</time></trkpt><trkpt lat="39.9558528" lon="1.3183782"><ele>0.0</ele><time>2026-04-29T23:21:18.965Z</time></trkpt><trkpt lat="39.9559387" lon="1.3184136"><ele>0.0</ele><time>2026-04-29T23:21:19.965Z</time></trkpt><trkpt lat="39.9560208" lon="1.3184513"><ele>0.0</ele><time>2026-04-29T23:21:20.964Z</time></trkpt><trkpt lat="39.9560977" lon="1.3184976"><ele>0.0</ele><time>2026-04-29T23:21:21.964Z</time></trkpt><trkpt lat="39.9562534" lon="1.3186035"><ele>0.0</ele><time>2026-04-29T23:21:23.964Z</time></trkpt><trkpt lat="39.9563267" lon="1.3186576"><ele>0.0</ele><time>2026-04-29T23:21:24.965Z</time></trkpt><trkpt lat="39.9563998" lon="1.3187107"><ele>0.0</ele><time>2026-04-29T23:21:25.964Z</time></trkpt><trkpt lat="39.9564756" lon="1.3187517"><ele>0.0</ele><time>2026-04-29T23:21:26.964Z</time></trkpt><trkpt lat="39.9565519" lon="1.31881"><ele>0.0</ele><time>2026-04-29T23:21:27.964Z</time></trkpt><trkpt lat="39.9566298" lon="1.3188714"><ele>0.0</ele><time>2026-04-29T23:21:28.964Z</time></trkpt><trkpt lat="39.9567202" lon="1.3189375"><ele>0.0</ele><time>2026-04-29T23:21:29.964Z</time></trkpt><trkpt lat="39.956807" lon="1.3189986"><ele>0.0</ele><time>2026-04-29T23:21:30.964Z</time></trkpt><trkpt lat="39.9568875" lon="1.3190565"><ele>0.0</ele><time>2026-04-29T23:21:31.964Z</time></trkpt><trkpt lat="39.9569664" lon="1.3191128"><ele>0.0</ele><time>2026-04-29T23:21:32.965Z</time></trkpt><trkpt lat="39.957045" lon="1.3191724"><ele>0.0</ele><time>2026-04-29T23:21:33.964Z</time></trkpt><trkpt lat="39.957118" lon="1.3192251"><ele>0.0</ele><time>2026-04-29T23:21:34.964Z</time></trkpt><trkpt lat="39.9571838" lon="1.3192736"><ele>0.0</ele><time>2026-04-29T23:21:35.964Z</time></trkpt><trkpt lat="39.9572539" lon="1.3193206"><ele>0.0</ele><time>2026-04-29T23:21:36.964Z</time></trkpt><trkpt lat="39.9573261" lon="1.3193803"><ele>0.0</ele><time>2026-04-29T23:21:37.964Z</time></trkpt><trkpt lat="39.9573992" lon="1.3194374"><ele>0.0</ele><time>2026-04-29T23:21:38.965Z</time></trkpt><trkpt lat="39.9574751" lon="1.3194982"><ele>0.0</ele><time>2026-04-29T23:21:39.964Z</time></trkpt><trkpt lat="39.9575516" lon="1.3195629"><ele>0.0</ele><time>2026-04-29T23:21:40.964Z</time></trkpt><trkpt lat="39.9576278" lon="1.3196239"><ele>0.0</ele><time>2026-04-29T23:21:41.965Z</time></trkpt><trkpt lat="39.9578887" lon="1.3197989"><ele>0.0</ele><time>2026-04-29T23:21:44.964Z</time></trkpt><trkpt lat="39.9579732" lon="1.3198538"><ele>0.0</ele><time>2026-04-29T23:21:45.964Z</time></trkpt><trkpt lat="39.9580532" lon="1.3199077"><ele>0.0</ele><time>2026-04-29T23:21:46.965Z</time></trkpt><trkpt lat="39.958126" lon="1.3199395"><ele>0.0</ele><time>2026-04-29T23:21:47.964Z</time></trkpt><trkpt lat="39.9582031" lon="1.3199892"><ele>0.0</ele><time>2026-04-29T23:21:48.965Z</time></trkpt><trkpt lat="39.9582831" lon="1.3200381"><ele>0.0</ele><time>2026-04-29T23:21:49.964Z</time></trkpt><trkpt lat="39.9583616" lon="1.3200861"><ele>0.0</ele><time>2026-04-29T23:21:50.965Z</time></trkpt><trkpt lat="39.9584355" lon="1.3201328"><ele>0.0</ele><time>2026-04-29T23:21:51.964Z</time></trkpt><trkpt lat="39.9585072" lon="1.320179"><ele>0.0</ele><time>2026-04-29T23:21:52.965Z</time></trkpt><trkpt lat="39.95858" lon="1.3202259"><ele>0.0</ele><time>2026-04-29T23:21:53.964Z</time></trkpt><trkpt lat="39.9586549" lon="1.3202772"><ele>0.0</ele><time>2026-04-29T23:21:54.965Z</time></trkpt><trkpt lat="39.9587343" lon="1.3203306"><ele>0.0</ele><time>2026-04-29T23:21:55.964Z</time></trkpt><trkpt lat="39.958813" lon="1.3203887"><ele>0.0</ele><time>2026-04-29T23:21:56.965Z</time></trkpt><trkpt lat="39.9588874" lon="1.3204443"><ele>0.0</ele><time>2026-04-29T23:21:57.964Z</time></trkpt><trkpt lat="39.9589591" lon="1.3205003"><ele>0.0</ele><time>2026-04-29T23:21:58.965Z</time></trkpt><trkpt lat="39.9590333" lon="1.3205555"><ele>0.0</ele><time>2026-04-29T23:21:59.964Z</time></trkpt><trkpt lat="39.9591054" lon="1.3206094"><ele>0.0</ele><time>2026-04-29T23:22:00.965Z</time></trkpt><trkpt lat="39.9591816" lon="1.3206625"><ele>0.0</ele><time>2026-04-29T23:22:01.965Z</time></trkpt><trkpt lat="39.9592625" lon="1.3207133"><ele>0.0</ele><time>2026-04-29T23:22:02.965Z</time></trkpt><trkpt lat="39.9593418" lon="1.320766"><ele>0.0</ele><time>2026-04-29T23:22:03.965Z</time></trkpt><trkpt lat="39.9594917" lon="1.3208637"><ele>0.0</ele><time>2026-04-29T23:22:05.964Z</time></trkpt><trkpt lat="39.9595669" lon="1.3209114"><ele>0.0</ele><time>2026-04-29T23:22:06.965Z</time></trkpt><trkpt lat="39.9596446" lon="1.3209637"><ele>0.0</ele><time>2026-04-29T23:22:07.965Z</time></trkpt><trkpt lat="39.9597246" lon="1.3210182"><ele>0.0</ele><time>2026-04-29T23:22:08.964Z</time></trkpt><trkpt lat="39.9598033" lon="1.3210774"><ele>0.0</ele><time>2026-04-29T23:22:09.965Z</time></trkpt><trkpt lat="39.9598805" lon="1.3211372"><ele>0.0</ele><time>2026-04-29T23:22:10.964Z</time></trkpt><trkpt lat="39.9599586" lon="1.3211989"><ele>0.0</ele><time>2026-04-29T23:22:11.963Z</time></trkpt><trkpt lat="39.9600361" lon="1.3212549"><ele>0.0</ele><time>2026-04-29T23:22:12.964Z</time></trkpt><trkpt lat="39.9601191" lon="1.3213095"><ele>0.0</ele><time>2026-04-29T23:22:13.963Z</time></trkpt><trkpt lat="39.9602799" lon="1.3214248"><ele>0.0</ele><time>2026-04-29T23:22:15.964Z</time></trkpt><trkpt lat="39.9603636" lon="1.321477"><ele>0.0</ele><time>2026-04-29T23:22:16.964Z</time></trkpt><trkpt lat="39.9604446" lon="1.3215258"><ele>0.0</ele><time>2026-04-29T23:22:17.964Z</time></trkpt><trkpt lat="39.96053" lon="1.3215727"><ele>0.0</ele><time>2026-04-29T23:22:18.963Z</time></trkpt><trkpt lat="39.9606139" lon="1.3216209"><ele>0.0</ele><time>2026-04-29T23:22:19.964Z</time></trkpt><trkpt lat="39.9606945" lon="1.3216644"><ele>0.0</ele><time>2026-04-29T23:22:20.964Z</time></trkpt><trkpt lat="39.9607791" lon="1.3217263"><ele>0.0</ele><time>2026-04-29T23:22:21.964Z</time></trkpt><trkpt lat="39.9608643" lon="1.3217892"><ele>0.0</ele><time>2026-04-29T23:22:22.963Z</time></trkpt><trkpt lat="39.9609411" lon="1.3218449"><ele>0.0</ele><time>2026-04-29T23:22:23.963Z</time></trkpt><trkpt lat="39.9610143" lon="1.3218939"><ele>0.0</ele><time>2026-04-29T23:22:24.964Z</time></trkpt><trkpt lat="39.9611692" lon="1.3220106"><ele>0.0</ele><time>2026-04-29T23:22:26.963Z</time></trkpt><trkpt lat="39.9612438" lon="1.3220694"><ele>0.0</ele><time>2026-04-29T23:22:27.964Z</time></trkpt><trkpt lat="39.9613244" lon="1.3221293"><ele>0.0</ele><time>2026-04-29T23:22:28.963Z</time></trkpt><trkpt lat="39.9614037" lon="1.3221806"><ele>0.0</ele><time>2026-04-29T23:22:29.963Z</time></trkpt><trkpt lat="39.9614774" lon="1.3222352"><ele>0.0</ele><time>2026-04-29T23:22:30.963Z</time></trkpt><trkpt lat="39.9615428" lon="1.3222913"><ele>0.0</ele><time>2026-04-29T23:22:31.964Z</time></trkpt><trkpt lat="39.9616093" lon="1.3223491"><ele>0.0</ele><time>2026-04-29T23:22:32.964Z</time></trkpt><trkpt lat="39.9616833" lon="1.3224067"><ele>0.0</ele><time>2026-04-29T23:22:33.964Z</time></trkpt><trkpt lat="39.9617595" lon="1.3224623"><ele>0.0</ele><time>2026-04-29T23:22:34.964Z</time></trkpt><trkpt lat="39.9618378" lon="1.3225181"><ele>0.0</ele><time>2026-04-29T23:22:35.963Z</time></trkpt><trkpt lat="39.9619162" lon="1.3225438"><ele>0.0</ele><time>2026-04-29T23:22:36.964Z</time></trkpt><trkpt lat="39.9619951" lon="1.3225841"><ele>0.0</ele><time>2026-04-29T23:22:37.963Z</time></trkpt><trkpt lat="39.9620762" lon="1.3226284"><ele>0.0</ele><time>2026-04-29T23:22:38.964Z</time></trkpt><trkpt lat="39.9621594" lon="1.3226838"><ele>0.0</ele><time>2026-04-29T23:22:39.964Z</time></trkpt><trkpt lat="39.9622386" lon="1.3227175"><ele>0.0</ele><time>2026-04-29T23:22:40.964Z</time></trkpt><trkpt lat="39.9623118" lon="1.3227742"><ele>0.0</ele><time>2026-04-29T23:22:41.964Z</time></trkpt><trkpt lat="39.9623895" lon="1.3228327"><ele>0.0</ele><time>2026-04-29T23:22:42.963Z</time></trkpt><trkpt lat="39.962468" lon="1.3228875"><ele>0.0</ele><time>2026-04-29T23:22:43.963Z</time></trkpt><trkpt lat="39.9625478" lon="1.3229438"><ele>0.0</ele><time>2026-04-29T23:22:44.963Z</time></trkpt><trkpt lat="39.9626279" lon="1.3230078"><ele>0.0</ele><time>2026-04-29T23:22:45.964Z</time></trkpt><trkpt lat="39.9628653" lon="1.3231671"><ele>0.0</ele><time>2026-04-29T23:22:48.963Z</time></trkpt><trkpt lat="39.9629366" lon="1.3232103"><ele>0.0</ele><time>2026-04-29T23:22:49.963Z</time></trkpt><trkpt lat="39.9630093" lon="1.3232605"><ele>0.0</ele><time>2026-04-29T23:22:50.964Z</time></trkpt><trkpt lat="39.9630828" lon="1.3232968"><ele>0.0</ele><time>2026-04-29T23:22:51.964Z</time></trkpt><trkpt lat="39.9631601" lon="1.3233457"><ele>0.0</ele><time>2026-04-29T23:22:52.964Z</time></trkpt><trkpt lat="39.9632411" lon="1.3234001"><ele>0.0</ele><time>2026-04-29T23:22:53.964Z</time></trkpt><trkpt lat="39.9633159" lon="1.3234455"><ele>0.0</ele><time>2026-04-29T23:22:54.963Z</time></trkpt><trkpt lat="39.9633922" lon="1.3234881"><ele>0.0</ele><time>2026-04-29T23:22:55.963Z</time></trkpt><trkpt lat="39.9634671" lon="1.3235427"><ele>0.0</ele><time>2026-04-29T23:22:56.963Z</time></trkpt><trkpt lat="39.9635406" lon="1.3235988"><ele>0.0</ele><time>2026-04-29T23:22:57.964Z</time></trkpt><trkpt lat="39.963618" lon="1.3236768"><ele>0.0</ele><time>2026-04-29T23:22:58.964Z</time></trkpt><trkpt lat="39.9636926" lon="1.3237262"><ele>0.0</ele><time>2026-04-29T23:23:01.142Z</time></trkpt><trkpt lat="39.9639245" lon="1.3238926"><ele>0.0</ele><time>2026-04-29T23:23:02.963Z</time></trkpt><trkpt lat="39.9640058" lon="1.323951"><ele>0.0</ele><time>2026-04-29T23:23:03.963Z</time></trkpt><trkpt lat="39.9640875" lon="1.3239947"><ele>0.0</ele><time>2026-04-29T23:23:04.964Z</time></trkpt><trkpt lat="39.9641696" lon="1.3240391"><ele>0.0</ele><time>2026-04-29T23:23:05.963Z</time></trkpt><trkpt lat="39.9642497" lon="1.324075"><ele>0.0</ele><time>2026-04-29T23:23:06.963Z</time></trkpt><trkpt lat="39.964328" lon="1.3241171"><ele>0.0</ele><time>2026-04-29T23:23:07.964Z</time></trkpt><trkpt lat="39.9644942" lon="1.3242079"><ele>0.0</ele><time>2026-04-29T23:23:09.964Z</time></trkpt><trkpt lat="39.9645745" lon="1.3242539"><ele>0.0</ele><time>2026-04-29T23:23:10.964Z</time></trkpt><trkpt lat="39.9646562" lon="1.3243021"><ele>0.0</ele><time>2026-04-29T23:23:11.963Z</time></trkpt><trkpt lat="39.9647335" lon="1.3243464"><ele>0.0</ele><time>2026-04-29T23:23:12.963Z</time></trkpt><trkpt lat="39.9648115" lon="1.3243894"><ele>0.0</ele><time>2026-04-29T23:23:13.964Z</time></trkpt><trkpt lat="39.9648888" lon="1.3244386"><ele>0.0</ele><time>2026-04-29T23:23:14.963Z</time></trkpt><trkpt lat="39.9649639" lon="1.3244915"><ele>0.0</ele><time>2026-04-29T23:23:15.964Z</time></trkpt><trkpt lat="39.9650389" lon="1.3245423"><ele>0.0</ele><time>2026-04-29T23:23:16.963Z</time></trkpt><trkpt lat="39.9651168" lon="1.3245978"><ele>0.0</ele><time>2026-04-29T23:23:17.963Z</time></trkpt><trkpt lat="39.9651904" lon="1.3246525"><ele>0.0</ele><time>2026-04-29T23:23:18.963Z</time></trkpt><trkpt lat="39.9652669" lon="1.3247048"><ele>0.0</ele><time>2026-04-29T23:23:19.964Z</time></trkpt><trkpt lat="39.9653475" lon="1.3247603"><ele>0.0</ele><time>2026-04-29T23:23:20.964Z</time></trkpt><trkpt lat="39.9654321" lon="1.3248206"><ele>0.0</ele><time>2026-04-29T23:23:21.963Z</time></trkpt><trkpt lat="39.9655173" lon="1.3248543"><ele>0.0</ele><time>2026-04-29T23:23:22.963Z</time></trkpt><trkpt lat="39.965605" lon="1.3248911"><ele>0.0</ele><time>2026-04-29T23:23:23.963Z</time></trkpt><trkpt lat="39.9656832" lon="1.3249612"><ele>0.0</ele><time>2026-04-29T23:23:24.964Z</time></trkpt><trkpt lat="39.9657583" lon="1.3250203"><ele>0.0</ele><time>2026-04-29T23:23:25.963Z</time></trkpt><trkpt lat="39.9658366" lon="1.3250859"><ele>0.0</ele><time>2026-04-29T23:23:26.964Z</time></trkpt><trkpt lat="39.9659204" lon="1.3251632"><ele>0.0</ele><time>2026-04-29T23:23:27.963Z</time></trkpt><trkpt lat="39.9660055" lon="1.3252348"><ele>0.0</ele><time>2026-04-29T23:23:28.963Z</time></trkpt><trkpt lat="39.966169" lon="1.3253817"><ele>0.0</ele><time>2026-04-29T23:23:30.964Z</time></trkpt><trkpt lat="39.9662506" lon="1.3254588"><ele>0.0</ele><time>2026-04-29T23:23:31.963Z</time></trkpt><trkpt lat="39.9663284" lon="1.3255296"><ele>0.0</ele><time>2026-04-29T23:23:32.963Z</time></trkpt><trkpt lat="39.9664047" lon="1.3256077"><ele>0.0</ele><time>2026-04-29T23:23:33.963Z</time></trkpt><trkpt lat="39.9664785" lon="1.3256705"><ele>0.0</ele><time>2026-04-29T23:23:34.964Z</time></trkpt><trkpt lat="39.966552" lon="1.325732"><ele>0.0</ele><time>2026-04-29T23:23:35.964Z</time></trkpt><trkpt lat="39.9666296" lon="1.3257979"><ele>0.0</ele><time>2026-04-29T23:23:36.963Z</time></trkpt><trkpt lat="39.966711" lon="1.3258548"><ele>0.0</ele><time>2026-04-29T23:23:37.964Z</time></trkpt><trkpt lat="39.9667869" lon="1.3259217"><ele>0.0</ele><time>2026-04-29T23:23:38.963Z</time></trkpt><trkpt lat="39.9668601" lon="1.3259863"><ele>0.0</ele><time>2026-04-29T23:23:39.964Z</time></trkpt><trkpt lat="39.9669361" lon="1.3260242"><ele>0.0</ele><time>2026-04-29T23:23:40.963Z</time></trkpt><trkpt lat="39.9670143" lon="1.3260744"><ele>0.0</ele><time>2026-04-29T23:23:41.964Z</time></trkpt><trkpt lat="39.9670928" lon="1.32612"><ele>0.0</ele><time>2026-04-29T23:23:42.963Z</time></trkpt><trkpt lat="39.967174" lon="1.3261506"><ele>0.0</ele><time>2026-04-29T23:23:43.964Z</time></trkpt><trkpt lat="39.9672556" lon="1.326203"><ele>0.0</ele><time>2026-04-29T23:23:44.964Z</time></trkpt><trkpt lat="39.967337" lon="1.3262583"><ele>0.0</ele><time>2026-04-29T23:23:45.964Z</time></trkpt><trkpt lat="39.967422" lon="1.326279"><ele>0.0</ele><time>2026-04-29T23:23:46.963Z</time></trkpt><trkpt lat="39.9675032" lon="1.3263406"><ele>0.0</ele><time>2026-04-29T23:23:47.964Z</time></trkpt><trkpt lat="39.9675804" lon="1.326399"><ele>0.0</ele><time>2026-04-29T23:23:48.963Z</time></trkpt><trkpt lat="39.9676565" lon="1.3264614"><ele>0.0</ele><time>2026-04-29T23:23:49.964Z</time></trkpt><trkpt lat="39.9678909" lon="1.3266341"><ele>0.0</ele><time>2026-04-29T23:23:52.963Z</time></trkpt><trkpt lat="39.9679639" lon="1.3266825"><ele>0.0</ele><time>2026-04-29T23:23:53.964Z</time></trkpt><trkpt lat="39.9680385" lon="1.3267319"><ele>0.0</ele><time>2026-04-29T23:23:54.963Z</time></trkpt><trkpt lat="39.9681135" lon="1.3267874"><ele>0.0</ele><time>2026-04-29T23:23:55.964Z</time></trkpt><trkpt lat="39.9681816" lon="1.3268429"><ele>0.0</ele><time>2026-04-29T23:23:56.963Z</time></trkpt><trkpt lat="39.9682508" lon="1.3268937"><ele>0.0</ele><time>2026-04-29T23:23:57.964Z</time></trkpt><trkpt lat="39.9683278" lon="1.3269405"><ele>0.0</ele><time>2026-04-29T23:23:58.964Z</time></trkpt><trkpt lat="39.9684051" lon="1.3269918"><ele>0.0</ele><time>2026-04-29T23:23:59.964Z</time></trkpt><trkpt lat="39.9684876" lon="1.3270455"><ele>0.0</ele><time>2026-04-29T23:24:00.964Z</time></trkpt><trkpt lat="39.9685685" lon="1.3270909"><ele>0.0</ele><time>2026-04-29T23:24:01.964Z</time></trkpt><trkpt lat="39.9686451" lon="1.3271308"><ele>0.0</ele><time>2026-04-29T23:24:02.963Z</time></trkpt><trkpt lat="39.9687216" lon="1.3271689"><ele>0.0</ele><time>2026-04-29T23:24:03.963Z</time></trkpt><trkpt lat="39.9687982" lon="1.327216"><ele>0.0</ele><time>2026-04-29T23:24:04.963Z</time></trkpt><trkpt lat="39.968875" lon="1.3272569"><ele>0.0</ele><time>2026-04-29T23:24:05.963Z</time></trkpt><trkpt lat="39.968953" lon="1.3273036"><ele>0.0</ele><time>2026-04-29T23:24:06.964Z</time></trkpt><trkpt lat="39.969033" lon="1.3273474"><ele>0.0</ele><time>2026-04-29T23:24:07.963Z</time></trkpt><trkpt lat="39.9691103" lon="1.3273933"><ele>0.0</ele><time>2026-04-29T23:24:08.963Z</time></trkpt><trkpt lat="39.9691898" lon="1.3274398"><ele>0.0</ele><time>2026-04-29T23:24:09.964Z</time></trkpt><trkpt lat="39.9692698" lon="1.3275038"><ele>0.0</ele><time>2026-04-29T23:24:10.963Z</time></trkpt><trkpt lat="39.9693483" lon="1.3275611"><ele>0.0</ele><time>2026-04-29T23:24:11.963Z</time></trkpt><trkpt lat="39.9695114" lon="1.3276166"><ele>0.0</ele><time>2026-04-29T23:24:13.964Z</time></trkpt><trkpt lat="39.9695887" lon="1.3276769"><ele>0.0</ele><time>2026-04-29T23:24:14.964Z</time></trkpt><trkpt lat="39.9696711" lon="1.3277088"><ele>0.0</ele><time>2026-04-29T23:24:15.964Z</time></trkpt><trkpt lat="39.9697501" lon="1.3277645"><ele>0.0</ele><time>2026-04-29T23:24:16.964Z</time></trkpt><trkpt lat="39.9698266" lon="1.3278221"><ele>0.0</ele><time>2026-04-29T23:24:17.963Z</time></trkpt><trkpt lat="39.9699117" lon="1.3278637"><ele>0.0</ele><time>2026-04-29T23:24:18.963Z</time></trkpt><trkpt lat="39.9699915" lon="1.327918"><ele>0.0</ele><time>2026-04-29T23:24:19.963Z</time></trkpt><trkpt lat="39.9700726" lon="1.3279795"><ele>0.0</ele><time>2026-04-29T23:24:20.964Z</time></trkpt><trkpt lat="39.9701503" lon="1.3280406"><ele>0.0</ele><time>2026-04-29T23:24:21.963Z</time></trkpt><trkpt lat="39.9703028" lon="1.3281533"><ele>0.0</ele><time>2026-04-29T23:24:23.963Z</time></trkpt><trkpt lat="39.9703744" lon="1.3281987"><ele>0.0</ele><time>2026-04-29T23:24:24.964Z</time></trkpt><trkpt lat="39.9704506" lon="1.3282476"><ele>0.0</ele><time>2026-04-29T23:24:25.963Z</time></trkpt><trkpt lat="39.970526" lon="1.3282964"><ele>0.0</ele><time>2026-04-29T23:24:26.963Z</time></trkpt><trkpt lat="39.9706083" lon="1.3283528"><ele>0.0</ele><time>2026-04-29T23:24:27.964Z</time></trkpt><trkpt lat="39.9706905" lon="1.328416"><ele>0.0</ele><time>2026-04-29T23:24:28.963Z</time></trkpt><trkpt lat="39.9707727" lon="1.3284852"><ele>0.0</ele><time>2026-04-29T23:24:29.964Z</time></trkpt><trkpt lat="39.9708531" lon="1.3285587"><ele>0.0</ele><time>2026-04-29T23:24:30.964Z</time></trkpt><trkpt lat="39.9709334" lon="1.3286256"><ele>0.0</ele><time>2026-04-29T23:24:31.964Z</time></trkpt><trkpt lat="39.9710146" lon="1.3286878"><ele>0.0</ele><time>2026-04-29T23:24:32.964Z</time></trkpt><trkpt lat="39.9711704" lon="1.3288242"><ele>0.0</ele><time>2026-04-29T23:24:34.963Z</time></trkpt><trkpt lat="39.9712489" lon="1.3288908"><ele>0.0</ele><time>2026-04-29T23:24:35.964Z</time></trkpt><trkpt lat="39.971325" lon="1.3289462"><ele>0.0</ele><time>2026-04-29T23:24:36.964Z</time></trkpt><trkpt lat="39.9714016" lon="1.3289925"><ele>0.0</ele><time>2026-04-29T23:24:37.963Z</time></trkpt><trkpt lat="39.9714754" lon="1.3290381"><ele>0.0</ele><time>2026-04-29T23:24:38.963Z</time></trkpt><trkpt lat="39.9715488" lon="1.3290821"><ele>0.0</ele><time>2026-04-29T23:24:39.963Z</time></trkpt><trkpt lat="39.9716202" lon="1.3291295"><ele>0.0</ele><time>2026-04-29T23:24:40.964Z</time></trkpt><trkpt lat="39.9716977" lon="1.3291894"><ele>0.0</ele><time>2026-04-29T23:24:41.964Z</time></trkpt><trkpt lat="39.9717778" lon="1.3292492"><ele>0.0</ele><time>2026-04-29T23:24:42.963Z</time></trkpt><trkpt lat="39.9718534" lon="1.3293148"><ele>0.0</ele><time>2026-04-29T23:24:43.964Z</time></trkpt><trkpt lat="39.9719269" lon="1.3293719"><ele>0.0</ele><time>2026-04-29T23:24:44.964Z</time></trkpt><trkpt lat="39.9720061" lon="1.329433"><ele>0.0</ele><time>2026-04-29T23:24:45.963Z</time></trkpt><trkpt lat="39.972082" lon="1.3294888"><ele>0.0</ele><time>2026-04-29T23:24:46.964Z</time></trkpt><trkpt lat="39.9721599" lon="1.3295365"><ele>0.0</ele><time>2026-04-29T23:24:47.963Z</time></trkpt><trkpt lat="39.9722385" lon="1.3295846"><ele>0.0</ele><time>2026-04-29T23:24:48.964Z</time></trkpt><trkpt lat="39.9723139" lon="1.3296343"><ele>0.0</ele><time>2026-04-29T23:24:49.964Z</time></trkpt><trkpt lat="39.972393" lon="1.3296843"><ele>0.0</ele><time>2026-04-29T23:24:50.963Z</time></trkpt><trkpt lat="39.972473" lon="1.3297313"><ele>0.0</ele><time>2026-04-29T23:24:51.964Z</time></trkpt><trkpt lat="39.972553" lon="1.3297834"><ele>0.0</ele><time>2026-04-29T23:24:52.964Z</time></trkpt><trkpt lat="39.9726345" lon="1.3298383"><ele>0.0</ele><time>2026-04-29T23:24:53.964Z</time></trkpt><trkpt lat="39.9728831" lon="1.329966"><ele>0.0</ele><time>2026-04-29T23:24:56.963Z</time></trkpt><trkpt lat="39.9729601" lon="1.3300157"><ele>0.0</ele><time>2026-04-29T23:24:57.963Z</time></trkpt><trkpt lat="39.9730383" lon="1.3300669"><ele>0.0</ele><time>2026-04-29T23:24:58.964Z</time></trkpt><trkpt lat="39.973118" lon="1.3301177"><ele>0.0</ele><time>2026-04-29T23:24:59.964Z</time></trkpt><trkpt lat="39.9731938" lon="1.3301731"><ele>0.0</ele><time>2026-04-29T23:25:00.964Z</time></trkpt><trkpt lat="39.9732689" lon="1.3302254"><ele>0.0</ele><time>2026-04-29T23:25:01.963Z</time></trkpt><trkpt lat="39.9733436" lon="1.3302791"><ele>0.0</ele><time>2026-04-29T23:25:02.963Z</time></trkpt><trkpt lat="39.9734227" lon="1.3303443"><ele>0.0</ele><time>2026-04-29T23:25:03.964Z</time></trkpt><trkpt lat="39.9735001" lon="1.3304106"><ele>0.0</ele><time>2026-04-29T23:25:04.963Z</time></trkpt><trkpt lat="39.9735839" lon="1.330471"><ele>0.0</ele><time>2026-04-29T23:25:05.964Z</time></trkpt><trkpt lat="39.9736661" lon="1.3305462"><ele>0.0</ele><time>2026-04-29T23:25:06.964Z</time></trkpt><trkpt lat="39.9737436" lon="1.3306075"><ele>0.0</ele><time>2026-04-29T23:25:07.963Z</time></trkpt><trkpt lat="39.9738215" lon="1.33067"><ele>0.0</ele><time>2026-04-29T23:25:08.964Z</time></trkpt><trkpt lat="39.9738974" lon="1.3307335"><ele>0.0</ele><time>2026-04-29T23:25:09.963Z</time></trkpt><trkpt lat="39.9739736" lon="1.3307998"><ele>0.0</ele><time>2026-04-29T23:25:10.963Z</time></trkpt><trkpt lat="39.9740509" lon="1.3308581"><ele>0.0</ele><time>2026-04-29T23:25:11.964Z</time></trkpt><trkpt lat="39.9741239" lon="1.3309126"><ele>0.0</ele><time>2026-04-29T23:25:12.963Z</time></trkpt><trkpt lat="39.9741984" lon="1.3309632"><ele>0.0</ele><time>2026-04-29T23:25:13.963Z</time></trkpt><trkpt lat="39.9742735" lon="1.3310194"><ele>0.0</ele><time>2026-04-29T23:25:14.964Z</time></trkpt><trkpt lat="39.9744139" lon="1.3311304"><ele>0.0</ele><time>2026-04-29T23:25:16.963Z</time></trkpt><trkpt lat="39.9744897" lon="1.3311824"><ele>0.0</ele><time>2026-04-29T23:25:17.963Z</time></trkpt><trkpt lat="39.9745695" lon="1.3312327"><ele>0.0</ele><time>2026-04-29T23:25:18.963Z</time></trkpt><trkpt lat="39.9746581" lon="1.3312613"><ele>0.0</ele><time>2026-04-29T23:25:19.964Z</time></trkpt><trkpt lat="39.9747386" lon="1.3313187"><ele>0.0</ele><time>2026-04-29T23:25:20.964Z</time></trkpt><trkpt lat="39.9748118" lon="1.3313637"><ele>0.0</ele><time>2026-04-29T23:25:21.963Z</time></trkpt><trkpt lat="39.9748821" lon="1.3314138"><ele>0.0</ele><time>2026-04-29T23:25:22.963Z</time></trkpt><trkpt lat="39.9749554" lon="1.3314712"><ele>0.0</ele><time>2026-04-29T23:25:23.963Z</time></trkpt><trkpt lat="39.9750306" lon="1.3315315"><ele>0.0</ele><time>2026-04-29T23:25:24.963Z</time></trkpt><trkpt lat="39.9751112" lon="1.3315791"><ele>0.0</ele><time>2026-04-29T23:25:25.963Z</time></trkpt><trkpt lat="39.9752714" lon="1.3316814"><ele>0.0</ele><time>2026-04-29T23:25:27.964Z</time></trkpt><trkpt lat="39.9753481" lon="1.3317337"><ele>0.0</ele><time>2026-04-29T23:25:28.964Z</time></trkpt><trkpt lat="39.9754261" lon="1.3317914"><ele>0.0</ele><time>2026-04-29T23:25:29.963Z</time></trkpt><trkpt lat="39.9754989" lon="1.3318379"><ele>0.0</ele><time>2026-04-29T23:25:30.964Z</time></trkpt><trkpt lat="39.9755637" lon="1.3318647"><ele>0.0</ele><time>2026-04-29T23:25:31.963Z</time></trkpt><trkpt lat="39.9756367" lon="1.331902"><ele>0.0</ele><time>2026-04-29T23:25:32.964Z</time></trkpt><trkpt lat="39.9757114" lon="1.3319473"><ele>0.0</ele><time>2026-04-29T23:25:33.963Z</time></trkpt><trkpt lat="39.9757839" lon="1.3319979"><ele>0.0</ele><time>2026-04-29T23:25:34.963Z</time></trkpt><trkpt lat="39.9758555" lon="1.3320493"><ele>0.0</ele><time>2026-04-29T23:25:35.964Z</time></trkpt><trkpt lat="39.976016" lon="1.3321625"><ele>0.0</ele><time>2026-04-29T23:25:37.963Z</time></trkpt><trkpt lat="39.976098" lon="1.3322257"><ele>0.0</ele><time>2026-04-29T23:25:38.963Z</time></trkpt><trkpt lat="39.9761813" lon="1.3322736"><ele>0.0</ele><time>2026-04-29T23:25:39.963Z</time></trkpt><trkpt lat="39.97626" lon="1.3323245"><ele>0.0</ele><time>2026-04-29T23:25:40.963Z</time></trkpt><trkpt lat="39.9763424" lon="1.3323878"><ele>0.0</ele><time>2026-04-29T23:25:41.963Z</time></trkpt><trkpt lat="39.9764258" lon="1.3324435"><ele>0.0</ele><time>2026-04-29T23:25:42.964Z</time></trkpt><trkpt lat="39.9765035" lon="1.3324961"><ele>0.0</ele><time>2026-04-29T23:25:43.963Z</time></trkpt><trkpt lat="39.9765796" lon="1.3325465"><ele>0.0</ele><time>2026-04-29T23:25:44.964Z</time></trkpt><trkpt lat="39.9766577" lon="1.3325991"><ele>0.0</ele><time>2026-04-29T23:25:45.963Z</time></trkpt><trkpt lat="39.9767394" lon="1.3326576"><ele>0.0</ele><time>2026-04-29T23:25:46.963Z</time></trkpt><trkpt lat="39.9768225" lon="1.3327138"><ele>0.0</ele><time>2026-04-29T23:25:47.964Z</time></trkpt><trkpt lat="39.9769006" lon="1.3327627"><ele>0.0</ele><time>2026-04-29T23:25:48.963Z</time></trkpt><trkpt lat="39.9769741" lon="1.3328073"><ele>0.0</ele><time>2026-04-29T23:25:49.964Z</time></trkpt><trkpt lat="39.9770487" lon="1.332858"><ele>0.0</ele><time>2026-04-29T23:25:50.964Z</time></trkpt><trkpt lat="39.9771251" lon="1.3329169"><ele>0.0</ele><time>2026-04-29T23:25:51.963Z</time></trkpt><trkpt lat="39.9772047" lon="1.3329683"><ele>0.0</ele><time>2026-04-29T23:25:52.963Z</time></trkpt><trkpt lat="39.9772847" lon="1.333018"><ele>0.0</ele><time>2026-04-29T23:25:53.964Z</time></trkpt><trkpt lat="39.9773646" lon="1.3330823"><ele>0.0</ele><time>2026-04-29T23:25:54.963Z</time></trkpt><trkpt lat="39.9774462" lon="1.3331352"><ele>0.0</ele><time>2026-04-29T23:25:55.964Z</time></trkpt><trkpt lat="39.9775263" lon="1.3331819"><ele>0.0</ele><time>2026-04-29T23:25:56.964Z</time></trkpt><trkpt lat="39.9776101" lon="1.3332288"><ele>0.0</ele><time>2026-04-29T23:25:57.963Z</time></trkpt><trkpt lat="39.9777777" lon="1.3333365"><ele>0.0</ele><time>2026-04-29T23:25:59.964Z</time></trkpt><trkpt lat="39.9778609" lon="1.3333884"><ele>0.0</ele><time>2026-04-29T23:26:00.964Z</time></trkpt><trkpt lat="39.977944" lon="1.3334425"><ele>0.0</ele><time>2026-04-29T23:26:01.963Z</time></trkpt><trkpt lat="39.9780265" lon="1.3335009"><ele>0.0</ele><time>2026-04-29T23:26:02.963Z</time></trkpt><trkpt lat="39.9781051" lon="1.3335586"><ele>0.0</ele><time>2026-04-29T23:26:03.963Z</time></trkpt><trkpt lat="39.9781764" lon="1.3336081"><ele>0.0</ele><time>2026-04-29T23:26:04.963Z</time></trkpt><trkpt lat="39.9782516" lon="1.3336607"><ele>0.0</ele><time>2026-04-29T23:26:05.963Z</time></trkpt><trkpt lat="39.9783282" lon="1.3337201"><ele>0.0</ele><time>2026-04-29T23:26:06.964Z</time></trkpt><trkpt lat="39.9784051" lon="1.3337759"><ele>0.0</ele><time>2026-04-29T23:26:07.963Z</time></trkpt><trkpt lat="39.9784817" lon="1.3338228"><ele>0.0</ele><time>2026-04-29T23:26:08.963Z</time></trkpt><trkpt lat="39.9785551" lon="1.3338757"><ele>0.0</ele><time>2026-04-29T23:26:09.963Z</time></trkpt><trkpt lat="39.9786343" lon="1.3339141"><ele>0.0</ele><time>2026-04-29T23:26:10.963Z</time></trkpt><trkpt lat="39.9787112" lon="1.3339617"><ele>0.0</ele><time>2026-04-29T23:26:11.964Z</time></trkpt><trkpt lat="39.9787923" lon="1.3340042"><ele>0.0</ele><time>2026-04-29T23:26:12.963Z</time></trkpt><trkpt lat="39.9788747" lon="1.3340499"><ele>0.0</ele><time>2026-04-29T23:26:13.963Z</time></trkpt><trkpt lat="39.9789567" lon="1.334094"><ele>0.0</ele><time>2026-04-29T23:26:14.963Z</time></trkpt><trkpt lat="39.9790339" lon="1.3341376"><ele>0.0</ele><time>2026-04-29T23:26:15.963Z</time></trkpt><trkpt lat="39.9791121" lon="1.3341736"><ele>0.0</ele><time>2026-04-29T23:26:16.963Z</time></trkpt><trkpt lat="39.9792055" lon="1.3341741"><ele>0.0</ele><time>2026-04-29T23:26:17.964Z</time></trkpt><trkpt lat="39.9792862" lon="1.3342133"><ele>0.0</ele><time>2026-04-29T23:26:18.964Z</time></trkpt><trkpt lat="39.9794402" lon="1.334313"><ele>0.0</ele><time>2026-04-29T23:26:20.963Z</time></trkpt><trkpt lat="39.9795153" lon="1.3343657"><ele>0.0</ele><time>2026-04-29T23:26:21.963Z</time></trkpt><trkpt lat="39.9795962" lon="1.3344161"><ele>0.0</ele><time>2026-04-29T23:26:22.962Z</time></trkpt><trkpt lat="39.9796766" lon="1.334472"><ele>0.0</ele><time>2026-04-29T23:26:23.963Z</time></trkpt><trkpt lat="39.9797538" lon="1.3345293"><ele>0.0</ele><time>2026-04-29T23:26:24.962Z</time></trkpt><trkpt lat="39.9798319" lon="1.3345902"><ele>0.0</ele><time>2026-04-29T23:26:25.962Z</time></trkpt><trkpt lat="39.9799073" lon="1.3346563"><ele>0.0</ele><time>2026-04-29T23:26:26.962Z</time></trkpt><trkpt lat="39.9799835" lon="1.3347118"><ele>0.0</ele><time>2026-04-29T23:26:27.962Z</time></trkpt><trkpt lat="39.9800604" lon="1.3347621"><ele>0.0</ele><time>2026-04-29T23:26:28.963Z</time></trkpt><trkpt lat="39.98014" lon="1.3348034"><ele>0.0</ele><time>2026-04-29T23:26:29.962Z</time></trkpt><trkpt lat="39.9802946" lon="1.3349053"><ele>0.0</ele><time>2026-04-29T23:26:31.962Z</time></trkpt><trkpt lat="39.980375" lon="1.3349637"><ele>0.0</ele><time>2026-04-29T23:26:32.962Z</time></trkpt><trkpt lat="39.9804489" lon="1.3350164"><ele>0.0</ele><time>2026-04-29T23:26:33.963Z</time></trkpt><trkpt lat="39.9805179" lon="1.3350427"><ele>0.0</ele><time>2026-04-29T23:26:34.963Z</time></trkpt><trkpt lat="39.9805876" lon="1.3350902"><ele>0.0</ele><time>2026-04-29T23:26:35.963Z</time></trkpt><trkpt lat="39.9806604" lon="1.3351403"><ele>0.0</ele><time>2026-04-29T23:26:36.963Z</time></trkpt><trkpt lat="39.9807339" lon="1.3351899"><ele>0.0</ele><time>2026-04-29T23:26:37.963Z</time></trkpt><trkpt lat="39.9808172" lon="1.3352466"><ele>0.0</ele><time>2026-04-29T23:26:38.962Z</time></trkpt><trkpt lat="39.9809049" lon="1.3352994"><ele>0.0</ele><time>2026-04-29T23:26:39.963Z</time></trkpt><trkpt lat="39.9810712" lon="1.3353943"><ele>0.0</ele><time>2026-04-29T23:26:41.962Z</time></trkpt><trkpt lat="39.9811522" lon="1.33544"><ele>0.0</ele><time>2026-04-29T23:26:42.962Z</time></trkpt><trkpt lat="39.9812356" lon="1.335498"><ele>0.0</ele><time>2026-04-29T23:26:43.962Z</time></trkpt><trkpt lat="39.9813145" lon="1.3355636"><ele>0.0</ele><time>2026-04-29T23:26:44.962Z</time></trkpt><trkpt lat="39.9813957" lon="1.3356148"><ele>0.0</ele><time>2026-04-29T23:26:45.963Z</time></trkpt><trkpt lat="39.9814747" lon="1.3356779"><ele>0.0</ele><time>2026-04-29T23:26:46.963Z</time></trkpt><trkpt lat="39.9815531" lon="1.3357316"><ele>0.0</ele><time>2026-04-29T23:26:47.963Z</time></trkpt><trkpt lat="39.9816316" lon="1.3357845"><ele>0.0</ele><time>2026-04-29T23:26:48.962Z</time></trkpt><trkpt lat="39.9817126" lon="1.3358408"><ele>0.0</ele><time>2026-04-29T23:26:49.963Z</time></trkpt><trkpt lat="39.9817968" lon="1.3359063"><ele>0.0</ele><time>2026-04-29T23:26:50.962Z</time></trkpt><trkpt lat="39.9818776" lon="1.3359886"><ele>0.0</ele><time>2026-04-29T23:26:51.963Z</time></trkpt><trkpt lat="39.9819579" lon="1.3360553"><ele>0.0</ele><time>2026-04-29T23:26:52.963Z</time></trkpt><trkpt lat="39.9820322" lon="1.3361038"><ele>0.0</ele><time>2026-04-29T23:26:53.962Z</time></trkpt><trkpt lat="39.9821007" lon="1.3361479"><ele>0.0</ele><time>2026-04-29T23:26:54.963Z</time></trkpt><trkpt lat="39.982175" lon="1.3361939"><ele>0.0</ele><time>2026-04-29T23:26:55.963Z</time></trkpt><trkpt lat="39.98225" lon="1.3362315"><ele>0.0</ele><time>2026-04-29T23:26:56.962Z</time></trkpt><trkpt lat="39.9823276" lon="1.3362752"><ele>0.0</ele><time>2026-04-29T23:26:57.962Z</time></trkpt><trkpt lat="39.9824036" lon="1.336321"><ele>0.0</ele><time>2026-04-29T23:26:58.962Z</time></trkpt><trkpt lat="39.9824803" lon="1.3363681"><ele>0.0</ele><time>2026-04-29T23:26:59.962Z</time></trkpt><trkpt lat="39.9825582" lon="1.3364218"><ele>0.0</ele><time>2026-04-29T23:27:00.962Z</time></trkpt><trkpt lat="39.982635" lon="1.3364785"><ele>0.0</ele><time>2026-04-29T23:27:01.962Z</time></trkpt><trkpt lat="39.9828741" lon="1.3366528"><ele>0.0</ele><time>2026-04-29T23:27:04.963Z</time></trkpt><trkpt lat="39.9829544" lon="1.3367133"><ele>0.0</ele><time>2026-04-29T23:27:05.963Z</time></trkpt><trkpt lat="39.9830385" lon="1.3367767"><ele>0.0</ele><time>2026-04-29T23:27:06.963Z</time></trkpt><trkpt lat="39.9831197" lon="1.3368357"><ele>0.0</ele><time>2026-04-29T23:27:07.962Z</time></trkpt><trkpt lat="39.9831983" lon="1.3369115"><ele>0.0</ele><time>2026-04-29T23:27:08.962Z</time></trkpt><trkpt lat="39.9832796" lon="1.3369924"><ele>0.0</ele><time>2026-04-29T23:27:09.962Z</time></trkpt><trkpt lat="39.9833593" lon="1.3370549"><ele>0.0</ele><time>2026-04-29T23:27:10.963Z</time></trkpt><trkpt lat="39.9834311" lon="1.337107"><ele>0.0</ele><time>2026-04-29T23:27:11.963Z</time></trkpt><trkpt lat="39.9835067" lon="1.3371526"><ele>0.0</ele><time>2026-04-29T23:27:12.962Z</time></trkpt><trkpt lat="39.9835775" lon="1.3372089"><ele>0.0</ele><time>2026-04-29T23:27:13.962Z</time></trkpt><trkpt lat="39.9836548" lon="1.3372659"><ele>0.0</ele><time>2026-04-29T23:27:14.963Z</time></trkpt><trkpt lat="39.9837298" lon="1.3373178"><ele>0.0</ele><time>2026-04-29T23:27:15.962Z</time></trkpt><trkpt lat="39.9838106" lon="1.3373382"><ele>0.0</ele><time>2026-04-29T23:27:16.962Z</time></trkpt><trkpt lat="39.9838865" lon="1.3373775"><ele>0.0</ele><time>2026-04-29T23:27:17.963Z</time></trkpt><trkpt lat="39.9839613" lon="1.3374199"><ele>0.0</ele><time>2026-04-29T23:27:18.963Z</time></trkpt><trkpt lat="39.9840479" lon="1.3374167"><ele>0.0</ele><time>2026-04-29T23:27:19.962Z</time></trkpt><trkpt lat="39.9841252" lon="1.3374628"><ele>0.0</ele><time>2026-04-29T23:27:20.963Z</time></trkpt><trkpt lat="39.9842079" lon="1.3375096"><ele>0.0</ele><time>2026-04-29T23:27:21.963Z</time></trkpt><trkpt lat="39.984281" lon="1.3375593"><ele>0.0</ele><time>2026-04-29T23:27:22.962Z</time></trkpt><trkpt lat="39.9843553" lon="1.3376138"><ele>0.0</ele><time>2026-04-29T23:27:23.962Z</time></trkpt><trkpt lat="39.9845115" lon="1.3377288"><ele>0.0</ele><time>2026-04-29T23:27:25.962Z</time></trkpt><trkpt lat="39.9845917" lon="1.3377846"><ele>0.0</ele><time>2026-04-29T23:27:26.962Z</time></trkpt><trkpt lat="39.9846715" lon="1.3378438"><ele>0.0</ele><time>2026-04-29T23:27:27.962Z</time></trkpt><trkpt lat="39.9847515" lon="1.3378977"><ele>0.0</ele><time>2026-04-29T23:27:28.962Z</time></trkpt><trkpt lat="39.9848343" lon="1.3379602"><ele>0.0</ele><time>2026-04-29T23:27:29.963Z</time></trkpt><trkpt lat="39.9849123" lon="1.3380135"><ele>0.0</ele><time>2026-04-29T23:27:30.963Z</time></trkpt><trkpt lat="39.9849919" lon="1.3380699"><ele>0.0</ele><time>2026-04-29T23:27:31.963Z</time></trkpt><trkpt lat="39.9850744" lon="1.338132"><ele>0.0</ele><time>2026-04-29T23:27:32.963Z</time></trkpt><trkpt lat="39.9851538" lon="1.3381845"><ele>0.0</ele><time>2026-04-29T23:27:33.962Z</time></trkpt><trkpt lat="39.9853036" lon="1.3382765"><ele>0.0</ele><time>2026-04-29T23:27:35.963Z</time></trkpt><trkpt lat="39.9853784" lon="1.3383246"><ele>0.0</ele><time>2026-04-29T23:27:36.963Z</time></trkpt><trkpt lat="39.9854564" lon="1.3383793"><ele>0.0</ele><time>2026-04-29T23:27:37.962Z</time></trkpt><trkpt lat="39.9855348" lon="1.3384248"><ele>0.0</ele><time>2026-04-29T23:27:38.963Z</time></trkpt><trkpt lat="39.9856113" lon="1.3384749"><ele>0.0</ele><time>2026-04-29T23:27:39.962Z</time></trkpt><trkpt lat="39.9856896" lon="1.3385296"><ele>0.0</ele><time>2026-04-29T23:27:40.962Z</time></trkpt><trkpt lat="39.9857686" lon="1.3385766"><ele>0.0</ele><time>2026-04-29T23:27:41.963Z</time></trkpt><trkpt lat="39.9858453" lon="1.338627"><ele>0.0</ele><time>2026-04-29T23:27:42.962Z</time></trkpt><trkpt lat="39.985923" lon="1.3386726"><ele>0.0</ele><time>2026-04-29T23:27:43.962Z</time></trkpt><trkpt lat="39.9860142" lon="1.3387188"><ele>0.0</ele><time>2026-04-29T23:27:44.963Z</time></trkpt><trkpt lat="39.9861764" lon="1.3388173"><ele>0.0</ele><time>2026-04-29T23:27:46.963Z</time></trkpt><trkpt lat="39.9862546" lon="1.3388651"><ele>0.0</ele><time>2026-04-29T23:27:47.962Z</time></trkpt><trkpt lat="39.9863301" lon="1.3389017"><ele>0.0</ele><time>2026-04-29T23:27:48.962Z</time></trkpt><trkpt lat="39.9864052" lon="1.3389389"><ele>0.0</ele><time>2026-04-29T23:27:49.962Z</time></trkpt><trkpt lat="39.9864861" lon="1.3389859"><ele>0.0</ele><time>2026-04-29T23:27:50.962Z</time></trkpt><trkpt lat="39.9865647" lon="1.339038"><ele>0.0</ele><time>2026-04-29T23:27:51.962Z</time></trkpt><trkpt lat="39.9866443" lon="1.3391057"><ele>0.0</ele><time>2026-04-29T23:27:52.962Z</time></trkpt><trkpt lat="39.9867174" lon="1.3391662"><ele>0.0</ele><time>2026-04-29T23:27:53.963Z</time></trkpt><trkpt lat="39.9867945" lon="1.3392204"><ele>0.0</ele><time>2026-04-29T23:27:54.963Z</time></trkpt><trkpt lat="39.9868688" lon="1.3392685"><ele>0.0</ele><time>2026-04-29T23:27:55.962Z</time></trkpt><trkpt lat="39.9869508" lon="1.3393239"><ele>0.0</ele><time>2026-04-29T23:27:56.963Z</time></trkpt><trkpt lat="39.9870298" lon="1.3393811"><ele>0.0</ele><time>2026-04-29T23:27:57.962Z</time></trkpt><trkpt lat="39.9871142" lon="1.3394373"><ele>0.0</ele><time>2026-04-29T23:27:58.963Z</time></trkpt><trkpt lat="39.9871961" lon="1.3394938"><ele>0.0</ele><time>2026-04-29T23:27:59.963Z</time></trkpt><trkpt lat="39.9872705" lon="1.339539"><ele>0.0</ele><time>2026-04-29T23:28:00.963Z</time></trkpt><trkpt lat="39.9873481" lon="1.3396012"><ele>0.0</ele><time>2026-04-29T23:28:01.963Z</time></trkpt><trkpt lat="39.9874254" lon="1.3396577"><ele>0.0</ele><time>2026-04-29T23:28:02.963Z</time></trkpt><trkpt lat="39.9875017" lon="1.3397112"><ele>0.0</ele><time>2026-04-29T23:28:03.962Z</time></trkpt><trkpt lat="39.9875754" lon="1.3397712"><ele>0.0</ele><time>2026-04-29T23:28:04.962Z</time></trkpt><trkpt lat="39.9876505" lon="1.3398339"><ele>0.0</ele><time>2026-04-29T23:28:05.962Z</time></trkpt><trkpt lat="39.9878708" lon="1.3400088"><ele>0.0</ele><time>2026-04-29T23:28:08.963Z</time></trkpt><trkpt lat="39.9879481" lon="1.3400709"><ele>0.0</ele><time>2026-04-29T23:28:09.962Z</time></trkpt><trkpt lat="39.9880323" lon="1.3401455"><ele>0.0</ele><time>2026-04-29T23:28:10.963Z</time></trkpt><trkpt lat="39.9881092" lon="1.3402343"><ele>0.0</ele><time>2026-04-29T23:28:11.963Z</time></trkpt><trkpt lat="39.9881897" lon="1.3402895"><ele>0.0</ele><time>2026-04-29T23:28:12.963Z</time></trkpt><trkpt lat="39.9882666" lon="1.3403425"><ele>0.0</ele><time>2026-04-29T23:28:13.962Z</time></trkpt><trkpt lat="39.9883421" lon="1.3403964"><ele>0.0</ele><time>2026-04-29T23:28:14.962Z</time></trkpt><trkpt lat="39.9884171" lon="1.3404471"><ele>0.0</ele><time>2026-04-29T23:28:15.962Z</time></trkpt><trkpt lat="39.9884937" lon="1.3404774"><ele>0.0</ele><time>2026-04-29T23:28:16.962Z</time></trkpt><trkpt lat="39.9885685" lon="1.3404972"><ele>0.0</ele><time>2026-04-29T23:28:17.963Z</time></trkpt><trkpt lat="39.9886423" lon="1.3405127"><ele>0.0</ele><time>2026-04-29T23:28:18.963Z</time></trkpt><trkpt lat="39.9887211" lon="1.3405386"><ele>0.0</ele><time>2026-04-29T23:28:19.962Z</time></trkpt><trkpt lat="39.9887984" lon="1.3405718"><ele>0.0</ele><time>2026-04-29T23:28:20.962Z</time></trkpt><trkpt lat="39.988875" lon="1.3406212"><ele>0.0</ele><time>2026-04-29T23:28:21.963Z</time></trkpt><trkpt lat="39.9889544" lon="1.3406756"><ele>0.0</ele><time>2026-04-29T23:28:22.962Z</time></trkpt><trkpt lat="39.9890346" lon="1.3407321"><ele>0.0</ele><time>2026-04-29T23:28:23.962Z</time></trkpt><trkpt lat="39.9891131" lon="1.3407918"><ele>0.0</ele><time>2026-04-29T23:28:24.963Z</time></trkpt><trkpt lat="39.9891872" lon="1.3408462"><ele>0.0</ele><time>2026-04-29T23:28:25.962Z</time></trkpt><trkpt lat="39.9892633" lon="1.3408797"><ele>0.0</ele><time>2026-04-29T23:28:26.962Z</time></trkpt><trkpt lat="39.9894405" lon="1.3409983"><ele>0.0</ele><time>2026-04-29T23:28:28.963Z</time></trkpt><trkpt lat="39.9895169" lon="1.3410517"><ele>0.0</ele><time>2026-04-29T23:28:29.962Z</time></trkpt><trkpt lat="39.989595" lon="1.3411062"><ele>0.0</ele><time>2026-04-29T23:28:30.963Z</time></trkpt><trkpt lat="39.989676" lon="1.3411638"><ele>0.0</ele><time>2026-04-29T23:28:31.963Z</time></trkpt><trkpt lat="39.9897618" lon="1.3412232"><ele>0.0</ele><time>2026-04-29T23:28:32.962Z</time></trkpt><trkpt lat="39.9898368" lon="1.3412991"><ele>0.0</ele><time>2026-04-29T23:28:33.962Z</time></trkpt><trkpt lat="39.9899118" lon="1.3413551"><ele>0.0</ele><time>2026-04-29T23:28:34.962Z</time></trkpt><trkpt lat="39.989988" lon="1.3414092"><ele>0.0</ele><time>2026-04-29T23:28:35.962Z</time></trkpt><trkpt lat="39.9900618" lon="1.3414676"><ele>0.0</ele><time>2026-04-29T23:28:36.962Z</time></trkpt><trkpt lat="39.990141" lon="1.3415335"><ele>0.0</ele><time>2026-04-29T23:28:37.962Z</time></trkpt><trkpt lat="39.9902935" lon="1.3416525"><ele>0.0</ele><time>2026-04-29T23:28:39.963Z</time></trkpt><trkpt lat="39.9903756" lon="1.3417236"><ele>0.0</ele><time>2026-04-29T23:28:40.962Z</time></trkpt><trkpt lat="39.9904508" lon="1.3417923"><ele>0.0</ele><time>2026-04-29T23:28:41.963Z</time></trkpt><trkpt lat="39.9905274" lon="1.3418529"><ele>0.0</ele><time>2026-04-29T23:28:42.962Z</time></trkpt><trkpt lat="39.9906054" lon="1.3419214"><ele>0.0</ele><time>2026-04-29T23:28:43.963Z</time></trkpt><trkpt lat="39.990675" lon="1.3419752"><ele>0.0</ele><time>2026-04-29T23:28:44.962Z</time></trkpt><trkpt lat="39.9907503" lon="1.3420213"><ele>0.0</ele><time>2026-04-29T23:28:45.963Z</time></trkpt><trkpt lat="39.9908222" lon="1.3420685"><ele>0.0</ele><time>2026-04-29T23:28:46.962Z</time></trkpt><trkpt lat="39.9909035" lon="1.3421286"><ele>0.0</ele><time>2026-04-29T23:28:47.962Z</time></trkpt><trkpt lat="39.9910501" lon="1.3422365"><ele>0.0</ele><time>2026-04-29T23:28:49.963Z</time></trkpt><trkpt lat="39.9911296" lon="1.3422928"><ele>0.0</ele><time>2026-04-29T23:28:50.963Z</time></trkpt><trkpt lat="39.9912068" lon="1.3423464"><ele>0.0</ele><time>2026-04-29T23:28:51.962Z</time></trkpt><trkpt lat="39.9912892" lon="1.3424089"><ele>0.0</ele><time>2026-04-29T23:28:52.962Z</time></trkpt><trkpt lat="39.9913653" lon="1.3424774"><ele>0.0</ele><time>2026-04-29T23:28:53.962Z</time></trkpt><trkpt lat="39.9914372" lon="1.3425345"><ele>0.0</ele><time>2026-04-29T23:28:54.962Z</time></trkpt><trkpt lat="39.99151" lon="1.3426029"><ele>0.0</ele><time>2026-04-29T23:28:55.962Z</time></trkpt><trkpt lat="39.9915834" lon="1.3426679"><ele>0.0</ele><time>2026-04-29T23:28:56.962Z</time></trkpt><trkpt lat="39.9916613" lon="1.342732"><ele>0.0</ele><time>2026-04-29T23:28:57.963Z</time></trkpt><trkpt lat="39.9917369" lon="1.3428012"><ele>0.0</ele><time>2026-04-29T23:28:58.962Z</time></trkpt><trkpt lat="39.9918205" lon="1.3428444"><ele>0.0</ele><time>2026-04-29T23:28:59.963Z</time></trkpt><trkpt lat="39.9919009" lon="1.3429027"><ele>0.0</ele><time>2026-04-29T23:29:00.963Z</time></trkpt><trkpt lat="39.991977" lon="1.3429655"><ele>0.0</ele><time>2026-04-29T23:29:01.963Z</time></trkpt><trkpt lat="39.992053" lon="1.3430245"><ele>0.0</ele><time>2026-04-29T23:29:02.963Z</time></trkpt><trkpt lat="39.9921401" lon="1.3430689"><ele>0.0</ele><time>2026-04-29T23:29:03.962Z</time></trkpt><trkpt lat="39.9922227" lon="1.343126"><ele>0.0</ele><time>2026-04-29T23:29:04.963Z</time></trkpt><trkpt lat="39.9923088" lon="1.3431586"><ele>0.0</ele><time>2026-04-29T23:29:05.963Z</time></trkpt><trkpt lat="39.9923912" lon="1.3431772"><ele>0.0</ele><time>2026-04-29T23:29:06.962Z</time></trkpt><trkpt lat="39.9924672" lon="1.3432092"><ele>0.0</ele><time>2026-04-29T23:29:07.963Z</time></trkpt><trkpt lat="39.9925383" lon="1.3432558"><ele>0.0</ele><time>2026-04-29T23:29:08.963Z</time></trkpt><trkpt lat="39.992608" lon="1.343301"><ele>0.0</ele><time>2026-04-29T23:29:09.962Z</time></trkpt><trkpt lat="39.9928275" lon="1.343446"><ele>0.0</ele><time>2026-04-29T23:29:12.962Z</time></trkpt><trkpt lat="39.9928994" lon="1.3434973"><ele>0.0</ele><time>2026-04-29T23:29:13.963Z</time></trkpt><trkpt lat="39.9929777" lon="1.3435559"><ele>0.0</ele><time>2026-04-29T23:29:14.962Z</time></trkpt><trkpt lat="39.9930558" lon="1.3436073"><ele>0.0</ele><time>2026-04-29T23:29:15.962Z</time></trkpt><trkpt lat="39.993137" lon="1.3436583"><ele>0.0</ele><time>2026-04-29T23:29:16.963Z</time></trkpt><trkpt lat="39.9932189" lon="1.3437052"><ele>0.0</ele><time>2026-04-29T23:29:17.962Z</time></trkpt><trkpt lat="39.993302" lon="1.3437604"><ele>0.0</ele><time>2026-04-29T23:29:18.963Z</time></trkpt><trkpt lat="39.9933884" lon="1.3438131"><ele>0.0</ele><time>2026-04-29T23:29:19.963Z</time></trkpt><trkpt lat="39.9934677" lon="1.3438697"><ele>0.0</ele><time>2026-04-29T23:29:20.963Z</time></trkpt><trkpt lat="39.993559" lon="1.3439038"><ele>0.0</ele><time>2026-04-29T23:29:21.963Z</time></trkpt><trkpt lat="39.9936368" lon="1.3439534"><ele>0.0</ele><time>2026-04-29T23:29:22.962Z</time></trkpt><trkpt lat="39.9937165" lon="1.3440078"><ele>0.0</ele><time>2026-04-29T23:29:23.963Z</time></trkpt><trkpt lat="39.993795" lon="1.3440537"><ele>0.0</ele><time>2026-04-29T23:29:24.962Z</time></trkpt><trkpt lat="39.9938738" lon="1.3441062"><ele>0.0</ele><time>2026-04-29T23:29:25.963Z</time></trkpt><trkpt lat="39.9939444" lon="1.3441456"><ele>0.0</ele><time>2026-04-29T23:29:26.963Z</time></trkpt><trkpt lat="39.994016" lon="1.3441909"><ele>0.0</ele><time>2026-04-29T23:29:27.962Z</time></trkpt><trkpt lat="39.9940965" lon="1.3442398"><ele>0.0</ele><time>2026-04-29T23:29:28.963Z</time></trkpt><trkpt lat="39.9941763" lon="1.344305"><ele>0.0</ele><time>2026-04-29T23:29:29.963Z</time></trkpt><trkpt lat="39.994252" lon="1.3443665"><ele>0.0</ele><time>2026-04-29T23:29:30.962Z</time></trkpt><trkpt lat="39.9943352" lon="1.3444101"><ele>0.0</ele><time>2026-04-29T23:29:31.962Z</time></trkpt><trkpt lat="39.9944843" lon="1.3445118"><ele>0.0</ele><time>2026-04-29T23:29:33.962Z</time></trkpt><trkpt lat="39.994559" lon="1.3445578"><ele>0.0</ele><time>2026-04-29T23:29:34.963Z</time></trkpt><trkpt lat="39.994631" lon="1.3445938"><ele>0.0</ele><time>2026-04-29T23:29:35.962Z</time></trkpt><trkpt lat="39.9947068" lon="1.3446539"><ele>0.0</ele><time>2026-04-29T23:29:36.963Z</time></trkpt><trkpt lat="39.9947839" lon="1.3447046"><ele>0.0</ele><time>2026-04-29T23:29:37.963Z</time></trkpt><trkpt lat="39.9948662" lon="1.3447607"><ele>0.0</ele><time>2026-04-29T23:29:38.963Z</time></trkpt><trkpt lat="39.9949511" lon="1.3448088"><ele>0.0</ele><time>2026-04-29T23:29:39.963Z</time></trkpt><trkpt lat="39.9950303" lon="1.3448621"><ele>0.0</ele><time>2026-04-29T23:29:40.962Z</time></trkpt><trkpt lat="39.995107" lon="1.3449167"><ele>0.0</ele><time>2026-04-29T23:29:41.962Z</time></trkpt><trkpt lat="39.9951866" lon="1.3449314"><ele>0.0</ele><time>2026-04-29T23:29:42.962Z</time></trkpt><trkpt lat="39.9952646" lon="1.3449901"><ele>0.0</ele><time>2026-04-29T23:29:43.963Z</time></trkpt><trkpt lat="39.9953405" lon="1.3450527"><ele>0.0</ele><time>2026-04-29T23:29:44.962Z</time></trkpt><trkpt lat="39.995416" lon="1.3451031"><ele>0.0</ele><time>2026-04-29T23:29:45.963Z</time></trkpt><trkpt lat="39.9954905" lon="1.3451486"><ele>0.0</ele><time>2026-04-29T23:29:46.963Z</time></trkpt><trkpt lat="39.9955682" lon="1.3451838"><ele>0.0</ele><time>2026-04-29T23:29:47.962Z</time></trkpt><trkpt lat="39.9956446" lon="1.3452315"><ele>0.0</ele><time>2026-04-29T23:29:48.963Z</time></trkpt><trkpt lat="39.9957263" lon="1.3452903"><ele>0.0</ele><time>2026-04-29T23:29:49.962Z</time></trkpt><trkpt lat="39.9958009" lon="1.3453416"><ele>0.0</ele><time>2026-04-29T23:29:50.963Z</time></trkpt><trkpt lat="39.9958755" lon="1.34539"><ele>0.0</ele><time>2026-04-29T23:29:51.962Z</time></trkpt><trkpt lat="39.9959566" lon="1.3454439"><ele>0.0</ele><time>2026-04-29T23:29:52.963Z</time></trkpt><trkpt lat="39.9961197" lon="1.345544"><ele>0.0</ele><time>2026-04-29T23:29:54.963Z</time></trkpt><trkpt lat="39.9961967" lon="1.3456046"><ele>0.0</ele><time>2026-04-29T23:29:55.962Z</time></trkpt><trkpt lat="39.9962734" lon="1.3456851"><ele>0.0</ele><time>2026-04-29T23:29:56.963Z</time></trkpt><trkpt lat="39.9963503" lon="1.3457595"><ele>0.0</ele><time>2026-04-29T23:29:57.963Z</time></trkpt><trkpt lat="39.9964225" lon="1.3458103"><ele>0.0</ele><time>2026-04-29T23:29:58.963Z</time></trkpt><trkpt lat="39.9964972" lon="1.3458569"><ele>0.0</ele><time>2026-04-29T23:29:59.962Z</time></trkpt><trkpt lat="39.9965794" lon="1.3458947"><ele>0.0</ele><time>2026-04-29T23:30:00.962Z</time></trkpt><trkpt lat="39.9966539" lon="1.345951"><ele>0.0</ele><time>2026-04-29T23:30:01.962Z</time></trkpt><trkpt lat="39.9967343" lon="1.3460203"><ele>0.0</ele><time>2026-04-29T23:30:02.962Z</time></trkpt><trkpt lat="39.996813" lon="1.346088"><ele>0.0</ele><time>2026-04-29T23:30:03.963Z</time></trkpt><trkpt lat="39.9968954" lon="1.3461606"><ele>0.0</ele><time>2026-04-29T23:30:04.962Z</time></trkpt><trkpt lat="39.996973" lon="1.3462132"><ele>0.0</ele><time>2026-04-29T23:30:05.962Z</time></trkpt><trkpt lat="39.9970498" lon="1.3462616"><ele>0.0</ele><time>2026-04-29T23:30:06.962Z</time></trkpt><trkpt lat="39.9971239" lon="1.346318"><ele>0.0</ele><time>2026-04-29T23:30:07.962Z</time></trkpt><trkpt lat="39.9972016" lon="1.3463632"><ele>0.0</ele><time>2026-04-29T23:30:08.962Z</time></trkpt><trkpt lat="39.9972784" lon="1.3464046"><ele>0.0</ele><time>2026-04-29T23:30:09.962Z</time></trkpt><trkpt lat="39.997362" lon="1.3464489"><ele>0.0</ele><time>2026-04-29T23:30:10.963Z</time></trkpt><trkpt lat="39.9974381" lon="1.3464961"><ele>0.0</ele><time>2026-04-29T23:30:11.962Z</time></trkpt><trkpt lat="39.9975134" lon="1.3465477"><ele>0.0</ele><time>2026-04-29T23:30:12.963Z</time></trkpt><trkpt lat="39.9975872" lon="1.3465997"><ele>0.0</ele><time>2026-04-29T23:30:13.963Z</time></trkpt><trkpt lat="39.9978332" lon="1.346745"><ele>0.0</ele><time>2026-04-29T23:30:16.962Z</time></trkpt><trkpt lat="39.997917" lon="1.3468135"><ele>0.0</ele><time>2026-04-29T23:30:17.963Z</time></trkpt><trkpt lat="39.9979996" lon="1.3468653"><ele>0.0</ele><time>2026-04-29T23:30:18.963Z</time></trkpt><trkpt lat="39.9980703" lon="1.3468936"><ele>0.0</ele><time>2026-04-29T23:30:19.963Z</time></trkpt><trkpt lat="39.9981412" lon="1.3469356"><ele>0.0</ele><time>2026-04-29T23:30:20.962Z</time></trkpt><trkpt lat="39.9982111" lon="1.3469778"><ele>0.0</ele><time>2026-04-29T23:30:21.962Z</time></trkpt><trkpt lat="39.9982852" lon="1.3470262"><ele>0.0</ele><time>2026-04-29T23:30:22.963Z</time></trkpt><trkpt lat="39.9983676" lon="1.3470757"><ele>0.0</ele><time>2026-04-29T23:30:23.962Z</time></trkpt><trkpt lat="39.998451" lon="1.3471033"><ele>0.0</ele><time>2026-04-29T23:30:24.963Z</time></trkpt><trkpt lat="39.9985329" lon="1.3471478"><ele>0.0</ele><time>2026-04-29T23:30:25.962Z</time></trkpt><trkpt lat="39.9986131" lon="1.3471603"><ele>0.0</ele><time>2026-04-29T23:30:26.963Z</time></trkpt><trkpt lat="39.9986914" lon="1.347212"><ele>0.0</ele><time>2026-04-29T23:30:27.962Z</time></trkpt><trkpt lat="39.9987726" lon="1.3472627"><ele>0.0</ele><time>2026-04-29T23:30:28.963Z</time></trkpt><trkpt lat="39.9988501" lon="1.3473075"><ele>0.0</ele><time>2026-04-29T23:30:29.963Z</time></trkpt><trkpt lat="39.9989283" lon="1.347368"><ele>0.0</ele><time>2026-04-29T23:30:30.962Z</time></trkpt><trkpt lat="39.999012" lon="1.3474251"><ele>0.0</ele><time>2026-04-29T23:30:31.961Z</time></trkpt><trkpt lat="39.9990958" lon="1.3474775"><ele>0.0</ele><time>2026-04-29T23:30:32.962Z</time></trkpt><trkpt lat="39.9991764" lon="1.347529"><ele>0.0</ele><time>2026-04-29T23:30:33.961Z</time></trkpt><trkpt lat="39.9992591" lon="1.3475825"><ele>0.0</ele><time>2026-04-29T23:30:34.962Z</time></trkpt><trkpt lat="39.9993383" lon="1.3476443"><ele>0.0</ele><time>2026-04-29T23:30:35.962Z</time></trkpt><trkpt lat="39.999507" lon="1.3477471"><ele>0.0</ele><time>2026-04-29T23:30:37.961Z</time></trkpt><trkpt lat="39.9995916" lon="1.3478025"><ele>0.0</ele><time>2026-04-29T23:30:38.961Z</time></trkpt><trkpt lat="39.999673" lon="1.3478557"><ele>0.0</ele><time>2026-04-29T23:30:39.961Z</time></trkpt><trkpt lat="39.9997543" lon="1.3479075"><ele>0.0</ele><time>2026-04-29T23:30:40.961Z</time></trkpt><trkpt lat="39.999833" lon="1.3479561"><ele>0.0</ele><time>2026-04-29T23:30:41.962Z</time></trkpt><trkpt lat="39.9999089" lon="1.3480083"><ele>0.0</ele><time>2026-04-29T23:30:42.961Z</time></trkpt><trkpt lat="39.9999895" lon="1.3480625"><ele>0.0</ele><time>2026-04-29T23:30:43.961Z</time></trkpt><trkpt lat="40.0000638" lon="1.3481148"><ele>0.0</ele><time>2026-04-29T23:30:44.962Z</time></trkpt><trkpt lat="40.0001413" lon="1.3481692"><ele>0.0</ele><time>2026-04-29T23:30:45.961Z</time></trkpt><trkpt lat="40.0002129" lon="1.3482302"><ele>0.0</ele><time>2026-04-29T23:30:46.961Z</time></trkpt><trkpt lat="40.0002858" lon="1.3482817"><ele>0.0</ele><time>2026-04-29T23:30:47.961Z</time></trkpt><trkpt lat="40.0003603" lon="1.3483314"><ele>0.0</ele><time>2026-04-29T23:30:48.961Z</time></trkpt><trkpt lat="40.0004394" lon="1.3483839"><ele>0.0</ele><time>2026-04-29T23:30:49.962Z</time></trkpt><trkpt lat="40.0005139" lon="1.3484468"><ele>0.0</ele><time>2026-04-29T23:30:50.961Z</time></trkpt><trkpt lat="40.0005897" lon="1.3485054"><ele>0.0</ele><time>2026-04-29T23:30:51.961Z</time></trkpt><trkpt lat="40.000665" lon="1.348566"><ele>0.0</ele><time>2026-04-29T23:30:52.962Z</time></trkpt><trkpt lat="40.0007445" lon="1.3486301"><ele>0.0</ele><time>2026-04-29T23:30:53.962Z</time></trkpt><trkpt lat="40.0008196" lon="1.3486857"><ele>0.0</ele><time>2026-04-29T23:30:54.961Z</time></trkpt><trkpt lat="40.0008909" lon="1.3487384"><ele>0.0</ele><time>2026-04-29T23:30:55.962Z</time></trkpt><trkpt lat="40.0009647" lon="1.3487977"><ele>0.0</ele><time>2026-04-29T23:30:56.961Z</time></trkpt><trkpt lat="40.0011257" lon="1.3489207"><ele>0.0</ele><time>2026-04-29T23:30:58.962Z</time></trkpt><trkpt lat="40.0012134" lon="1.3489557"><ele>0.0</ele><time>2026-04-29T23:30:59.962Z</time></trkpt><trkpt lat="40.0013003" lon="1.3489883"><ele>0.0</ele><time>2026-04-29T23:31:00.962Z</time></trkpt><trkpt lat="40.0013812" lon="1.3490365"><ele>0.0</ele><time>2026-04-29T23:31:01.961Z</time></trkpt><trkpt lat="40.0014592" lon="1.3490836"><ele>0.0</ele><time>2026-04-29T23:31:02.961Z</time></trkpt><trkpt lat="40.001531" lon="1.3491406"><ele>0.0</ele><time>2026-04-29T23:31:03.962Z</time></trkpt><trkpt lat="40.0016054" lon="1.3492004"><ele>0.0</ele><time>2026-04-29T23:31:04.962Z</time></trkpt><trkpt lat="40.0016818" lon="1.3492602"><ele>0.0</ele><time>2026-04-29T23:31:05.961Z</time></trkpt><trkpt lat="40.0017572" lon="1.3493177"><ele>0.0</ele><time>2026-04-29T23:31:06.962Z</time></trkpt><trkpt lat="40.0018319" lon="1.349368"><ele>0.0</ele><time>2026-04-29T23:31:07.961Z</time></trkpt><trkpt lat="40.0019051" lon="1.3494234"><ele>0.0</ele><time>2026-04-29T23:31:08.961Z</time></trkpt><trkpt lat="40.001982" lon="1.3494776"><ele>0.0</ele><time>2026-04-29T23:31:09.961Z</time></trkpt><trkpt lat="40.002059" lon="1.3495429"><ele>0.0</ele><time>2026-04-29T23:31:10.961Z</time></trkpt><trkpt lat="40.0021308" lon="1.3495954"><ele>0.0</ele><time>2026-04-29T23:31:11.962Z</time></trkpt><trkpt lat="40.0022024" lon="1.3496482"><ele>0.0</ele><time>2026-04-29T23:31:12.962Z</time></trkpt><trkpt lat="40.0022733" lon="1.3497002"><ele>0.0</ele><time>2026-04-29T23:31:13.961Z</time></trkpt><trkpt lat="40.0023427" lon="1.3497508"><ele>0.0</ele><time>2026-04-29T23:31:14.962Z</time></trkpt><trkpt lat="40.002415" lon="1.3498049"><ele>0.0</ele><time>2026-04-29T23:31:15.961Z</time></trkpt><trkpt lat="40.0024902" lon="1.3498663"><ele>0.0</ele><time>2026-04-29T23:31:16.961Z</time></trkpt><trkpt lat="40.0025695" lon="1.3499051"><ele>0.0</ele><time>2026-04-29T23:31:17.962Z</time></trkpt><trkpt lat="40.0028091" lon="1.3500789"><ele>0.0</ele><time>2026-04-29T23:31:20.962Z</time></trkpt><trkpt lat="40.0028995" lon="1.3501429"><ele>0.0</ele><time>2026-04-29T23:31:21.961Z</time></trkpt><trkpt lat="40.0029765" lon="1.3502053"><ele>0.0</ele><time>2026-04-29T23:31:22.962Z</time></trkpt><trkpt lat="40.003057" lon="1.3502587"><ele>0.0</ele><time>2026-04-29T23:31:23.961Z</time></trkpt><trkpt lat="40.0031317" lon="1.3503131"><ele>0.0</ele><time>2026-04-29T23:31:24.961Z</time></trkpt><trkpt lat="40.003208" lon="1.350374"><ele>0.0</ele><time>2026-04-29T23:31:25.962Z</time></trkpt><trkpt lat="40.0032911" lon="1.3504306"><ele>0.0</ele><time>2026-04-29T23:31:26.962Z</time></trkpt><trkpt lat="40.0033673" lon="1.3504805"><ele>0.0</ele><time>2026-04-29T23:31:27.961Z</time></trkpt><trkpt lat="40.0034461" lon="1.3505069"><ele>0.0</ele><time>2026-04-29T23:31:28.962Z</time></trkpt><trkpt lat="40.0035222" lon="1.3505641"><ele>0.0</ele><time>2026-04-29T23:31:29.961Z</time></trkpt><trkpt lat="40.0035968" lon="1.3506197"><ele>0.0</ele><time>2026-04-29T23:31:30.962Z</time></trkpt><trkpt lat="40.0036633" lon="1.350678"><ele>0.0</ele><time>2026-04-29T23:31:31.961Z</time></trkpt><trkpt lat="40.0037337" lon="1.3507264"><ele>0.0</ele><time>2026-04-29T23:31:32.962Z</time></trkpt><trkpt lat="40.0038063" lon="1.3507782"><ele>0.0</ele><time>2026-04-29T23:31:33.962Z</time></trkpt><trkpt lat="40.003891" lon="1.3508353"><ele>0.0</ele><time>2026-04-29T23:31:34.962Z</time></trkpt><trkpt lat="40.0039681" lon="1.3508788"><ele>0.0</ele><time>2026-04-29T23:31:35.962Z</time></trkpt><trkpt lat="40.0040445" lon="1.3509317"><ele>0.0</ele><time>2026-04-29T23:31:36.961Z</time></trkpt><trkpt lat="40.0041279" lon="1.3509777"><ele>0.0</ele><time>2026-04-29T23:31:37.961Z</time></trkpt><trkpt lat="40.0042118" lon="1.3510329"><ele>0.0</ele><time>2026-04-29T23:31:38.961Z</time></trkpt><trkpt lat="40.0042913" lon="1.3510929"><ele>0.0</ele><time>2026-04-29T23:31:39.962Z</time></trkpt><trkpt lat="40.0044531" lon="1.3511799"><ele>0.0</ele><time>2026-04-29T23:31:41.961Z</time></trkpt><trkpt lat="40.0045286" lon="1.3512394"><ele>0.0</ele><time>2026-04-29T23:31:42.961Z</time></trkpt><trkpt lat="40.0046034" lon="1.3512979"><ele>0.0</ele><time>2026-04-29T23:31:43.962Z</time></trkpt><trkpt lat="40.0046841" lon="1.3513574"><ele>0.0</ele><time>2026-04-29T23:31:44.962Z</time></trkpt><trkpt lat="40.0047572" lon="1.3514115"><ele>0.0</ele><time>2026-04-29T23:31:45.962Z</time></trkpt><trkpt lat="40.00483" lon="1.3514476"><ele>0.0</ele><time>2026-04-29T23:31:46.961Z</time></trkpt><trkpt lat="40.0049148" lon="1.3515112"><ele>0.0</ele><time>2026-04-29T23:31:47.961Z</time></trkpt><trkpt lat="40.0050026" lon="1.351571"><ele>0.0</ele><time>2026-04-29T23:31:48.961Z</time></trkpt><trkpt lat="40.0050856" lon="1.3516341"><ele>0.0</ele><time>2026-04-29T23:31:49.962Z</time></trkpt><trkpt lat="40.0052401" lon="1.3517517"><ele>0.0</ele><time>2026-04-29T23:31:51.961Z</time></trkpt><trkpt lat="40.0053151" lon="1.3517988"><ele>0.0</ele><time>2026-04-29T23:31:52.961Z</time></trkpt><trkpt lat="40.005383" lon="1.3518547"><ele>0.0</ele><time>2026-04-29T23:31:53.961Z</time></trkpt><trkpt lat="40.0054509" lon="1.3519057"><ele>0.0</ele><time>2026-04-29T23:31:54.961Z</time></trkpt><trkpt lat="40.0055205" lon="1.3519555"><ele>0.0</ele><time>2026-04-29T23:31:55.961Z</time></trkpt><trkpt lat="40.0055946" lon="1.3520096"><ele>0.0</ele><time>2026-04-29T23:31:56.961Z</time></trkpt><trkpt lat="40.0056725" lon="1.3520587"><ele>0.0</ele><time>2026-04-29T23:31:57.961Z</time></trkpt><trkpt lat="40.0057525" lon="1.3521091"><ele>0.0</ele><time>2026-04-29T23:31:58.962Z</time></trkpt><trkpt lat="40.0058356" lon="1.3521631"><ele>0.0</ele><time>2026-04-29T23:31:59.961Z</time></trkpt><trkpt lat="40.0059164" lon="1.3522239"><ele>0.0</ele><time>2026-04-29T23:32:00.961Z</time></trkpt><trkpt lat="40.0060736" lon="1.3523325"><ele>0.0</ele><time>2026-04-29T23:32:02.961Z</time></trkpt><trkpt lat="40.0061499" lon="1.352385"><ele>0.0</ele><time>2026-04-29T23:32:03.961Z</time></trkpt><trkpt lat="40.0062408" lon="1.3523907"><ele>0.0</ele><time>2026-04-29T23:32:04.962Z</time></trkpt><trkpt lat="40.0063172" lon="1.3524455"><ele>0.0</ele><time>2026-04-29T23:32:05.961Z</time></trkpt><trkpt lat="40.0063976" lon="1.3524662"><ele>0.0</ele><time>2026-04-29T23:32:06.961Z</time></trkpt><trkpt lat="40.0064775" lon="1.3525088"><ele>0.0</ele><time>2026-04-29T23:32:07.962Z</time></trkpt><trkpt lat="40.0065606" lon="1.3525177"><ele>0.0</ele><time>2026-04-29T23:32:08.961Z</time></trkpt><trkpt lat="40.006645" lon="1.3525622"><ele>0.0</ele><time>2026-04-29T23:32:09.961Z</time></trkpt><trkpt lat="40.0067338" lon="1.3526242"><ele>0.0</ele><time>2026-04-29T23:32:10.962Z</time></trkpt><trkpt lat="40.0068111" lon="1.3526845"><ele>0.0</ele><time>2026-04-29T23:32:11.961Z</time></trkpt><trkpt lat="40.0068857" lon="1.3527426"><ele>0.0</ele><time>2026-04-29T23:32:12.962Z</time></trkpt><trkpt lat="40.0069562" lon="1.352797"><ele>0.0</ele><time>2026-04-29T23:32:13.961Z</time></trkpt><trkpt lat="40.0070229" lon="1.3528529"><ele>0.0</ele><time>2026-04-29T23:32:14.961Z</time></trkpt><trkpt lat="40.0070981" lon="1.3529002"><ele>0.0</ele><time>2026-04-29T23:32:15.961Z</time></trkpt><trkpt lat="40.007172" lon="1.352961"><ele>0.0</ele><time>2026-04-29T23:32:16.962Z</time></trkpt><trkpt lat="40.0072501" lon="1.3530258"><ele>0.0</ele><time>2026-04-29T23:32:17.961Z</time></trkpt><trkpt lat="40.0073241" lon="1.3530896"><ele>0.0</ele><time>2026-04-29T23:32:18.962Z</time></trkpt><trkpt lat="40.0073955" lon="1.3531482"><ele>0.0</ele><time>2026-04-29T23:32:19.961Z</time></trkpt><trkpt lat="40.007471" lon="1.3532092"><ele>0.0</ele><time>2026-04-29T23:32:20.962Z</time></trkpt><trkpt lat="40.0075472" lon="1.3532645"><ele>0.0</ele><time>2026-04-29T23:32:21.962Z</time></trkpt><trkpt lat="40.007771" lon="1.35353"><ele>0.0</ele><time>2026-04-29T23:32:24.962Z</time></trkpt><trkpt lat="40.0078508" lon="1.3535583"><ele>0.0</ele><time>2026-04-29T23:32:25.961Z</time></trkpt><trkpt lat="40.007938" lon="1.3535926"><ele>0.0</ele><time>2026-04-29T23:32:26.962Z</time></trkpt><trkpt lat="40.0080175" lon="1.3536432"><ele>0.0</ele><time>2026-04-29T23:32:27.961Z</time></trkpt><trkpt lat="40.0080958" lon="1.3536906"><ele>0.0</ele><time>2026-04-29T23:32:28.961Z</time></trkpt><trkpt lat="40.0081715" lon="1.3537355"><ele>0.0</ele><time>2026-04-29T23:32:29.962Z</time></trkpt><trkpt lat="40.0082478" lon="1.353786"><ele>0.0</ele><time>2026-04-29T23:32:30.961Z</time></trkpt><trkpt lat="40.0083289" lon="1.3538365"><ele>0.0</ele><time>2026-04-29T23:32:31.961Z</time></trkpt><trkpt lat="40.008404" lon="1.3538836"><ele>0.0</ele><time>2026-04-29T23:32:32.962Z</time></trkpt><trkpt lat="40.0084797" lon="1.353935"><ele>0.0</ele><time>2026-04-29T23:32:33.961Z</time></trkpt><trkpt lat="40.0085577" lon="1.3539884"><ele>0.0</ele><time>2026-04-29T23:32:34.961Z</time></trkpt><trkpt lat="40.0086363" lon="1.354025"><ele>0.0</ele><time>2026-04-29T23:32:35.961Z</time></trkpt><trkpt lat="40.0087149" lon="1.3540767"><ele>0.0</ele><time>2026-04-29T23:32:36.961Z</time></trkpt><trkpt lat="40.0087992" lon="1.3541251"><ele>0.0</ele><time>2026-04-29T23:32:37.961Z</time></trkpt><trkpt lat="40.0088764" lon="1.354179"><ele>0.0</ele><time>2026-04-29T23:32:38.962Z</time></trkpt><trkpt lat="40.0089503" lon="1.3542429"><ele>0.0</ele><time>2026-04-29T23:32:39.961Z</time></trkpt><trkpt lat="40.0090321" lon="1.3542981"><ele>0.0</ele><time>2026-04-29T23:32:40.961Z</time></trkpt><trkpt lat="40.0091082" lon="1.3543565"><ele>0.0</ele><time>2026-04-29T23:32:41.961Z</time></trkpt><trkpt lat="40.0091852" lon="1.3544109"><ele>0.0</ele><time>2026-04-29T23:32:42.962Z</time></trkpt><trkpt lat="40.0092646" lon="1.3544854"><ele>0.0</ele><time>2026-04-29T23:32:43.961Z</time></trkpt><trkpt lat="40.0094355" lon="1.3546031"><ele>0.0</ele><time>2026-04-29T23:32:45.961Z</time></trkpt><trkpt lat="40.0095089" lon="1.3546573"><ele>0.0</ele><time>2026-04-29T23:32:46.961Z</time></trkpt><trkpt lat="40.0095897" lon="1.3547069"><ele>0.0</ele><time>2026-04-29T23:32:47.962Z</time></trkpt><trkpt lat="40.0096701" lon="1.3547552"><ele>0.0</ele><time>2026-04-29T23:32:48.962Z</time></trkpt><trkpt lat="40.009753" lon="1.354801"><ele>0.0</ele><time>2026-04-29T23:32:49.961Z</time></trkpt><trkpt lat="40.0098348" lon="1.3548476"><ele>0.0</ele><time>2026-04-29T23:32:50.962Z</time></trkpt><trkpt lat="40.0099147" lon="1.3548996"><ele>0.0</ele><time>2026-04-29T23:32:51.961Z</time></trkpt><trkpt lat="40.0099889" lon="1.3549544"><ele>0.0</ele><time>2026-04-29T23:32:52.962Z</time></trkpt><trkpt lat="40.0100654" lon="1.3550095"><ele>0.0</ele><time>2026-04-29T23:32:53.962Z</time></trkpt><trkpt lat="40.0102258" lon="1.3550934"><ele>0.0</ele><time>2026-04-29T23:32:55.961Z</time></trkpt><trkpt lat="40.0103117" lon="1.3551607"><ele>0.0</ele><time>2026-04-29T23:32:56.961Z</time></trkpt><trkpt lat="40.0103902" lon="1.3552091"><ele>0.0</ele><time>2026-04-29T23:32:57.961Z</time></trkpt><trkpt lat="40.0104658" lon="1.3552558"><ele>0.0</ele><time>2026-04-29T23:32:58.961Z</time></trkpt><trkpt lat="40.0105389" lon="1.3552656"><ele>0.0</ele><time>2026-04-29T23:32:59.962Z</time></trkpt><trkpt lat="40.0106134" lon="1.3553148"><ele>0.0</ele><time>2026-04-29T23:33:00.962Z</time></trkpt><trkpt lat="40.0106955" lon="1.3553723"><ele>0.0</ele><time>2026-04-29T23:33:01.961Z</time></trkpt><trkpt lat="40.0107746" lon="1.3554236"><ele>0.0</ele><time>2026-04-29T23:33:02.961Z</time></trkpt><trkpt lat="40.0108546" lon="1.3554524"><ele>0.0</ele><time>2026-04-29T23:33:03.962Z</time></trkpt><trkpt lat="40.0109331" lon="1.3554794"><ele>0.0</ele><time>2026-04-29T23:33:04.961Z</time></trkpt><trkpt lat="40.011089" lon="1.3555714"><ele>0.0</ele><time>2026-04-29T23:33:06.962Z</time></trkpt><trkpt lat="40.0111694" lon="1.3556271"><ele>0.0</ele><time>2026-04-29T23:33:07.962Z</time></trkpt><trkpt lat="40.0112537" lon="1.3556867"><ele>0.0</ele><time>2026-04-29T23:33:08.962Z</time></trkpt><trkpt lat="40.0113374" lon="1.3557484"><ele>0.0</ele><time>2026-04-29T23:33:09.961Z</time></trkpt><trkpt lat="40.0114095" lon="1.35581"><ele>0.0</ele><time>2026-04-29T23:33:10.962Z</time></trkpt><trkpt lat="40.0114778" lon="1.3558773"><ele>0.0</ele><time>2026-04-29T23:33:11.961Z</time></trkpt><trkpt lat="40.0115502" lon="1.3559176"><ele>0.0</ele><time>2026-04-29T23:33:12.962Z</time></trkpt><trkpt lat="40.0116152" lon="1.3559884"><ele>0.0</ele><time>2026-04-29T23:33:13.961Z</time></trkpt><trkpt lat="40.0116912" lon="1.3560501"><ele>0.0</ele><time>2026-04-29T23:33:14.961Z</time></trkpt><trkpt lat="40.0117668" lon="1.3561079"><ele>0.0</ele><time>2026-04-29T23:33:15.961Z</time></trkpt><trkpt lat="40.011839" lon="1.3561593"><ele>0.0</ele><time>2026-04-29T23:33:16.961Z</time></trkpt><trkpt lat="40.0119078" lon="1.3562142"><ele>0.0</ele><time>2026-04-29T23:33:17.961Z</time></trkpt><trkpt lat="40.0119769" lon="1.3562664"><ele>0.0</ele><time>2026-04-29T23:33:18.961Z</time></trkpt><trkpt lat="40.0120529" lon="1.3563194"><ele>0.0</ele><time>2026-04-29T23:33:19.962Z</time></trkpt><trkpt lat="40.0121251" lon="1.3563669"><ele>0.0</ele><time>2026-04-29T23:33:20.961Z</time></trkpt><trkpt lat="40.0122027" lon="1.3564222"><ele>0.0</ele><time>2026-04-29T23:33:21.961Z</time></trkpt><trkpt lat="40.0122814" lon="1.3564839"><ele>0.0</ele><time>2026-04-29T23:33:22.961Z</time></trkpt><trkpt lat="40.0123583" lon="1.3565414"><ele>0.0</ele><time>2026-04-29T23:33:23.961Z</time></trkpt><trkpt lat="40.0124321" lon="1.3565952"><ele>0.0</ele><time>2026-04-29T23:33:24.961Z</time></trkpt><trkpt lat="40.0125082" lon="1.3566479"><ele>0.0</ele><time>2026-04-29T23:33:25.961Z</time></trkpt><trkpt lat="40.0127375" lon="1.3567849"><ele>0.0</ele><time>2026-04-29T23:33:28.961Z</time></trkpt><trkpt lat="40.0128219" lon="1.3568252"><ele>0.0</ele><time>2026-04-29T23:33:29.962Z</time></trkpt><trkpt lat="40.0129053" lon="1.3568824"><ele>0.0</ele><time>2026-04-29T23:33:30.961Z</time></trkpt><trkpt lat="40.0129869" lon="1.3569362"><ele>0.0</ele><time>2026-04-29T23:33:31.961Z</time></trkpt><trkpt lat="40.0130667" lon="1.3569978"><ele>0.0</ele><time>2026-04-29T23:33:32.961Z</time></trkpt><trkpt lat="40.0131398" lon="1.3570347"><ele>0.0</ele><time>2026-04-29T23:33:33.961Z</time></trkpt><trkpt lat="40.0132182" lon="1.3570895"><ele>0.0</ele><time>2026-04-29T23:33:34.961Z</time></trkpt><trkpt lat="40.013297" lon="1.3571451"><ele>0.0</ele><time>2026-04-29T23:33:35.961Z</time></trkpt><trkpt lat="40.0133796" lon="1.3572001"><ele>0.0</ele><time>2026-04-29T23:33:36.962Z</time></trkpt><trkpt lat="40.0134592" lon="1.3572577"><ele>0.0</ele><time>2026-04-29T23:33:37.961Z</time></trkpt><trkpt lat="40.0135496" lon="1.3572874"><ele>0.0</ele><time>2026-04-29T23:33:38.962Z</time></trkpt><trkpt lat="40.0136326" lon="1.3573343"><ele>0.0</ele><time>2026-04-29T23:33:39.961Z</time></trkpt><trkpt lat="40.0137114" lon="1.3573823"><ele>0.0</ele><time>2026-04-29T23:33:40.962Z</time></trkpt><trkpt lat="40.0137869" lon="1.3574302"><ele>0.0</ele><time>2026-04-29T23:33:41.961Z</time></trkpt><trkpt lat="40.0138646" lon="1.3574779"><ele>0.0</ele><time>2026-04-29T23:33:42.962Z</time></trkpt><trkpt lat="40.0139446" lon="1.3575244"><ele>0.0</ele><time>2026-04-29T23:33:43.962Z</time></trkpt><trkpt lat="40.0140259" lon="1.3575808"><ele>0.0</ele><time>2026-04-29T23:33:44.962Z</time></trkpt><trkpt lat="40.0141119" lon="1.3576407"><ele>0.0</ele><time>2026-04-29T23:33:45.962Z</time></trkpt><trkpt lat="40.014188" lon="1.3576928"><ele>0.0</ele><time>2026-04-29T23:33:46.961Z</time></trkpt><trkpt lat="40.0142685" lon="1.3577468"><ele>0.0</ele><time>2026-04-29T23:33:47.961Z</time></trkpt><trkpt lat="40.0144263" lon="1.3578706"><ele>0.0</ele><time>2026-04-29T23:33:49.962Z</time></trkpt><trkpt lat="40.0144987" lon="1.3579337"><ele>0.0</ele><time>2026-04-29T23:33:50.961Z</time></trkpt><trkpt lat="40.0145747" lon="1.3579914"><ele>0.0</ele><time>2026-04-29T23:33:51.961Z</time></trkpt><trkpt lat="40.0146514" lon="1.3580455"><ele>0.0</ele><time>2026-04-29T23:33:52.961Z</time></trkpt><trkpt lat="40.014729" lon="1.3580869"><ele>0.0</ele><time>2026-04-29T23:33:53.961Z</time></trkpt><trkpt lat="40.0148017" lon="1.3581365"><ele>0.0</ele><time>2026-04-29T23:33:54.961Z</time></trkpt><trkpt lat="40.0148808" lon="1.3581911"><ele>0.0</ele><time>2026-04-29T23:33:55.962Z</time></trkpt><trkpt lat="40.0149615" lon="1.3582431"><ele>0.0</ele><time>2026-04-29T23:33:56.961Z</time></trkpt><trkpt lat="40.0150443" lon="1.3582887"><ele>0.0</ele><time>2026-04-29T23:33:57.962Z</time></trkpt><trkpt lat="40.0151319" lon="1.3582908"><ele>0.0</ele><time>2026-04-29T23:33:58.961Z</time></trkpt><trkpt lat="40.0152143" lon="1.3582979"><ele>0.0</ele><time>2026-04-29T23:33:59.961Z</time></trkpt><trkpt lat="40.015293" lon="1.3583298"><ele>0.0</ele><time>2026-04-29T23:34:00.962Z</time></trkpt><trkpt lat="40.0153743" lon="1.3583843"><ele>0.0</ele><time>2026-04-29T23:34:01.961Z</time></trkpt><trkpt lat="40.0154543" lon="1.3584394"><ele>0.0</ele><time>2026-04-29T23:34:02.961Z</time></trkpt><trkpt lat="40.0155428" lon="1.3584777"><ele>0.0</ele><time>2026-04-29T23:34:03.962Z</time></trkpt><trkpt lat="40.015626" lon="1.3585251"><ele>0.0</ele><time>2026-04-29T23:34:04.961Z</time></trkpt><trkpt lat="40.015705" lon="1.3585973"><ele>0.0</ele><time>2026-04-29T23:34:05.962Z</time></trkpt><trkpt lat="40.0157849" lon="1.3586603"><ele>0.0</ele><time>2026-04-29T23:34:06.962Z</time></trkpt><trkpt lat="40.0158624" lon="1.3587051"><ele>0.0</ele><time>2026-04-29T23:34:07.961Z</time></trkpt><trkpt lat="40.0159405" lon="1.3587627"><ele>0.0</ele><time>2026-04-29T23:34:08.962Z</time></trkpt><trkpt lat="40.0161019" lon="1.3588665"><ele>0.0</ele><time>2026-04-29T23:34:10.961Z</time></trkpt><trkpt lat="40.0161774" lon="1.3589101"><ele>0.0</ele><time>2026-04-29T23:34:11.962Z</time></trkpt><trkpt lat="40.0162507" lon="1.3589532"><ele>0.0</ele><time>2026-04-29T23:34:12.961Z</time></trkpt><trkpt lat="40.0163225" lon="1.3590047"><ele>0.0</ele><time>2026-04-29T23:34:13.962Z</time></trkpt><trkpt lat="40.0163987" lon="1.3590493"><ele>0.0</ele><time>2026-04-29T23:34:16.15Z</time></trkpt><trkpt lat="40.016491" lon="1.3590787"><ele>0.0</ele><time>2026-04-29T23:34:17.157Z</time></trkpt><trkpt lat="40.0166136" lon="1.3591548"><ele>0.0</ele><time>2026-04-29T23:34:18.163Z</time></trkpt><trkpt lat="40.0167018" lon="1.359225"><ele>0.0</ele><time>2026-04-29T23:34:19.068Z</time></trkpt><trkpt lat="40.0167913" lon="1.3592906"><ele>0.0</ele><time>2026-04-29T23:34:20.073Z</time></trkpt><trkpt lat="40.0168802" lon="1.3593602"><ele>0.0</ele><time>2026-04-29T23:34:21.078Z</time></trkpt><trkpt lat="40.0169698" lon="1.3594349"><ele>0.0</ele><time>2026-04-29T23:34:22.185Z</time></trkpt><trkpt lat="40.0170365" lon="1.3595125"><ele>0.0</ele><time>2026-04-29T23:34:23.091Z</time></trkpt><trkpt lat="40.0171089" lon="1.3595847"><ele>0.0</ele><time>2026-04-29T23:34:24.097Z</time></trkpt><trkpt lat="40.0171824" lon="1.3596575"><ele>0.0</ele><time>2026-04-29T23:34:25.102Z</time></trkpt><trkpt lat="40.0172655" lon="1.3597047"><ele>0.0</ele><time>2026-04-29T23:34:26.107Z</time></trkpt><trkpt lat="40.0173472" lon="1.3597513"><ele>0.0</ele><time>2026-04-29T23:34:27.114Z</time></trkpt><trkpt lat="40.0174328" lon="1.3597859"><ele>0.0</ele><time>2026-04-29T23:34:28.119Z</time></trkpt><trkpt lat="40.0175119" lon="1.359838"><ele>0.0</ele><time>2026-04-29T23:34:29.125Z</time></trkpt><trkpt lat="40.017588" lon="1.3598992"><ele>0.0</ele><time>2026-04-29T23:34:30.13Z</time></trkpt><trkpt lat="40.0178366" lon="1.3600632"><ele>0.0</ele><time>2026-04-29T23:34:33.148Z</time></trkpt><trkpt lat="40.0179317" lon="1.3601263"><ele>0.0</ele><time>2026-04-29T23:34:35.16Z</time></trkpt><trkpt lat="40.0180213" lon="1.3602177"><ele>0.0</ele><time>2026-04-29T23:34:36.164Z</time></trkpt><trkpt lat="40.018095" lon="1.3602777"><ele>0.0</ele><time>2026-04-29T23:34:37.07Z</time></trkpt><trkpt lat="40.0181818" lon="1.3603295"><ele>0.0</ele><time>2026-04-29T23:34:38.076Z</time></trkpt><trkpt lat="40.01827" lon="1.3603849"><ele>0.0</ele><time>2026-04-29T23:34:39.082Z</time></trkpt><trkpt lat="40.0183576" lon="1.3604273"><ele>0.0</ele><time>2026-04-29T23:34:40.087Z</time></trkpt><trkpt lat="40.0184453" lon="1.360462"><ele>0.0</ele><time>2026-04-29T23:34:41.092Z</time></trkpt><trkpt lat="40.0185289" lon="1.3604865"><ele>0.0</ele><time>2026-04-29T23:34:43.105Z</time></trkpt><trkpt lat="40.0186244" lon="1.3605732"><ele>0.0</ele><time>2026-04-29T23:34:44.109Z</time></trkpt><trkpt lat="40.0187242" lon="1.3606126"><ele>0.0</ele><time>2026-04-29T23:34:45.116Z</time></trkpt><trkpt lat="40.0188075" lon="1.3606737"><ele>0.0</ele><time>2026-04-29T23:34:46.121Z</time></trkpt><trkpt lat="40.0188942" lon="1.3607222"><ele>0.0</ele><time>2026-04-29T23:34:47.127Z</time></trkpt><trkpt lat="40.0189762" lon="1.3607743"><ele>0.0</ele><time>2026-04-29T23:34:48.133Z</time></trkpt><trkpt lat="40.0190592" lon="1.3608271"><ele>0.0</ele><time>2026-04-29T23:34:49.139Z</time></trkpt><trkpt lat="40.0191473" lon="1.3608741"><ele>0.0</ele><time>2026-04-29T23:34:50.145Z</time></trkpt><trkpt lat="40.019233" lon="1.3609386"><ele>0.0</ele><time>2026-04-29T23:34:51.15Z</time></trkpt><trkpt lat="40.0193157" lon="1.3609897"><ele>0.0</ele><time>2026-04-29T23:34:52.155Z</time></trkpt><trkpt lat="40.0194701" lon="1.3610969"><ele>0.0</ele><time>2026-04-29T23:34:54.066Z</time></trkpt><trkpt lat="40.0195482" lon="1.3611466"><ele>0.0</ele><time>2026-04-29T23:34:55.072Z</time></trkpt><trkpt lat="40.0196412" lon="1.3612187"><ele>0.0</ele><time>2026-04-29T23:34:57.084Z</time></trkpt><trkpt lat="40.019735" lon="1.3613071"><ele>0.0</ele><time>2026-04-29T23:34:58.09Z</time></trkpt><trkpt lat="40.0198208" lon="1.3613585"><ele>0.0</ele><time>2026-04-29T23:34:59.095Z</time></trkpt><trkpt lat="40.0198995" lon="1.3614273"><ele>0.0</ele><time>2026-04-29T23:35:00.1Z</time></trkpt><trkpt lat="40.0199859" lon="1.3614808"><ele>0.0</ele><time>2026-04-29T23:35:01.107Z</time></trkpt><trkpt lat="40.0200679" lon="1.3615357"><ele>0.0</ele><time>2026-04-29T23:35:02.112Z</time></trkpt><trkpt lat="40.0201473" lon="1.3615971"><ele>0.0</ele><time>2026-04-29T23:35:03.118Z</time></trkpt><trkpt lat="40.0203009" lon="1.3617032"><ele>0.0</ele><time>2026-04-29T23:35:05.13Z</time></trkpt><trkpt lat="40.0203801" lon="1.3617737"><ele>0.0</ele><time>2026-04-29T23:35:06.135Z</time></trkpt><trkpt lat="40.020509" lon="1.3618548"><ele>0.0</ele><time>2026-04-29T23:35:07.96Z</time></trkpt><trkpt lat="40.0205881" lon="1.3619062"><ele>0.0</ele><time>2026-04-29T23:35:08.96Z</time></trkpt><trkpt lat="40.0206691" lon="1.3619585"><ele>0.0</ele><time>2026-04-29T23:35:09.96Z</time></trkpt><trkpt lat="40.0207459" lon="1.3620228"><ele>0.0</ele><time>2026-04-29T23:35:10.961Z</time></trkpt><trkpt lat="40.0208226" lon="1.3620748"><ele>0.0</ele><time>2026-04-29T23:35:11.961Z</time></trkpt><trkpt lat="40.0208952" lon="1.3621248"><ele>0.0</ele><time>2026-04-29T23:35:12.961Z</time></trkpt><trkpt lat="40.0210599" lon="1.3622446"><ele>0.0</ele><time>2026-04-29T23:35:14.961Z</time></trkpt><trkpt lat="40.0211392" lon="1.3622918"><ele>0.0</ele><time>2026-04-29T23:35:15.961Z</time></trkpt><trkpt lat="40.0212128" lon="1.3623483"><ele>0.0</ele><time>2026-04-29T23:35:16.961Z</time></trkpt><trkpt lat="40.0212864" lon="1.3624152"><ele>0.0</ele><time>2026-04-29T23:35:17.96Z</time></trkpt><trkpt lat="40.0213661" lon="1.3624818"><ele>0.0</ele><time>2026-04-29T23:35:18.96Z</time></trkpt><trkpt lat="40.0214404" lon="1.3625428"><ele>0.0</ele><time>2026-04-29T23:35:19.961Z</time></trkpt><trkpt lat="40.0215107" lon="1.3625897"><ele>0.0</ele><time>2026-04-29T23:35:20.961Z</time></trkpt><trkpt lat="40.0215936" lon="1.3626418"><ele>0.0</ele><time>2026-04-29T23:35:21.961Z</time></trkpt><trkpt lat="40.0216731" lon="1.362686"><ele>0.0</ele><time>2026-04-29T23:35:22.96Z</time></trkpt><trkpt lat="40.0217473" lon="1.3627284"><ele>0.0</ele><time>2026-04-29T23:35:23.96Z</time></trkpt><trkpt lat="40.0218277" lon="1.3627757"><ele>0.0</ele><time>2026-04-29T23:35:24.96Z</time></trkpt><trkpt lat="40.0218991" lon="1.3628295"><ele>0.0</ele><time>2026-04-29T23:35:25.96Z</time></trkpt><trkpt lat="40.0219803" lon="1.3628814"><ele>0.0</ele><time>2026-04-29T23:35:26.961Z</time></trkpt><trkpt lat="40.0220635" lon="1.362929"><ele>0.0</ele><time>2026-04-29T23:35:27.96Z</time></trkpt><trkpt lat="40.0221458" lon="1.3629815"><ele>0.0</ele><time>2026-04-29T23:35:28.96Z</time></trkpt><trkpt lat="40.0222266" lon="1.363029"><ele>0.0</ele><time>2026-04-29T23:35:29.96Z</time></trkpt><trkpt lat="40.0223007" lon="1.363077"><ele>0.0</ele><time>2026-04-29T23:35:30.96Z</time></trkpt><trkpt lat="40.0223793" lon="1.3631295"><ele>0.0</ele><time>2026-04-29T23:35:31.961Z</time></trkpt><trkpt lat="40.0224466" lon="1.3632033"><ele>0.0</ele><time>2026-04-29T23:35:34.158Z</time></trkpt><trkpt lat="40.0226556" lon="1.3633184"><ele>0.0</ele><time>2026-04-29T23:35:36.068Z</time></trkpt><trkpt lat="40.0227341" lon="1.3633869"><ele>0.0</ele><time>2026-04-29T23:35:37.075Z</time></trkpt><trkpt lat="40.0228138" lon="1.363462"><ele>0.0</ele><time>2026-04-29T23:35:38.08Z</time></trkpt><trkpt lat="40.0228993" lon="1.3635229"><ele>0.0</ele><time>2026-04-29T23:35:39.086Z</time></trkpt><trkpt lat="40.0229891" lon="1.3635781"><ele>0.0</ele><time>2026-04-29T23:35:40.091Z</time></trkpt><trkpt lat="40.0230691" lon="1.3636575"><ele>0.0</ele><time>2026-04-29T23:35:41.097Z</time></trkpt><trkpt lat="40.0231522" lon="1.3637266"><ele>0.0</ele><time>2026-04-29T23:35:42.104Z</time></trkpt><trkpt lat="40.0233103" lon="1.3638339"><ele>0.0</ele><time>2026-04-29T23:35:43.96Z</time></trkpt><trkpt lat="40.0233879" lon="1.363881"><ele>0.0</ele><time>2026-04-29T23:35:44.961Z</time></trkpt><trkpt lat="40.0234649" lon="1.3639392"><ele>0.0</ele><time>2026-04-29T23:35:45.96Z</time></trkpt><trkpt lat="40.0235429" lon="1.3639912"><ele>0.0</ele><time>2026-04-29T23:35:46.96Z</time></trkpt><trkpt lat="40.0236158" lon="1.3640463"><ele>0.0</ele><time>2026-04-29T23:35:47.961Z</time></trkpt><trkpt lat="40.0236896" lon="1.3640706"><ele>0.0</ele><time>2026-04-29T23:35:48.96Z</time></trkpt><trkpt lat="40.0237593" lon="1.3641089"><ele>0.0</ele><time>2026-04-29T23:35:49.96Z</time></trkpt><trkpt lat="40.0238291" lon="1.364129"><ele>0.0</ele><time>2026-04-29T23:35:50.96Z</time></trkpt><trkpt lat="40.0239076" lon="1.3641717"><ele>0.0</ele><time>2026-04-29T23:35:51.961Z</time></trkpt><trkpt lat="40.0239816" lon="1.3642192"><ele>0.0</ele><time>2026-04-29T23:35:52.961Z</time></trkpt><trkpt lat="40.0240512" lon="1.3642673"><ele>0.0</ele><time>2026-04-29T23:35:53.961Z</time></trkpt><trkpt lat="40.0241266" lon="1.3643046"><ele>0.0</ele><time>2026-04-29T23:35:54.961Z</time></trkpt><trkpt lat="40.0242075" lon="1.3643327"><ele>0.0</ele><time>2026-04-29T23:35:55.96Z</time></trkpt><trkpt lat="40.0242893" lon="1.3643835"><ele>0.0</ele><time>2026-04-29T23:35:56.961Z</time></trkpt><trkpt lat="40.0244559" lon="1.3644737"><ele>0.0</ele><time>2026-04-29T23:35:58.96Z</time></trkpt><trkpt lat="40.0245389" lon="1.3645326"><ele>0.0</ele><time>2026-04-29T23:35:59.961Z</time></trkpt><trkpt lat="40.0246179" lon="1.3645668"><ele>0.0</ele><time>2026-04-29T23:36:00.961Z</time></trkpt><trkpt lat="40.0246947" lon="1.3645923"><ele>0.0</ele><time>2026-04-29T23:36:01.96Z</time></trkpt><trkpt lat="40.0247725" lon="1.3646429"><ele>0.0</ele><time>2026-04-29T23:36:02.96Z</time></trkpt><trkpt lat="40.0248608" lon="1.3647273"><ele>0.0</ele><time>2026-04-29T23:36:03.96Z</time></trkpt><trkpt lat="40.024943" lon="1.3648063"><ele>0.0</ele><time>2026-04-29T23:36:04.961Z</time></trkpt><trkpt lat="40.0250231" lon="1.3648853"><ele>0.0</ele><time>2026-04-29T23:36:05.96Z</time></trkpt><trkpt lat="40.0251043" lon="1.3649554"><ele>0.0</ele><time>2026-04-29T23:36:06.96Z</time></trkpt><trkpt lat="40.0251893" lon="1.365016"><ele>0.0</ele><time>2026-04-29T23:36:07.961Z</time></trkpt><trkpt lat="40.0252645" lon="1.3650511"><ele>0.0</ele><time>2026-04-29T23:36:08.961Z</time></trkpt><trkpt lat="40.0253448" lon="1.3650825"><ele>0.0</ele><time>2026-04-29T23:36:09.961Z</time></trkpt><trkpt lat="40.0254175" lon="1.3651405"><ele>0.0</ele><time>2026-04-29T23:36:10.96Z</time></trkpt><trkpt lat="40.0254888" lon="1.3652133"><ele>0.0</ele><time>2026-04-29T23:36:11.96Z</time></trkpt><trkpt lat="40.0255646" lon="1.3652786"><ele>0.0</ele><time>2026-04-29T23:36:12.96Z</time></trkpt><trkpt lat="40.0256415" lon="1.3653776"><ele>0.0</ele><time>2026-04-29T23:36:13.96Z</time></trkpt><trkpt lat="40.0257139" lon="1.365448"><ele>0.0</ele><time>2026-04-29T23:36:14.961Z</time></trkpt><trkpt lat="40.0257911" lon="1.3655082"><ele>0.0</ele><time>2026-04-29T23:36:15.96Z</time></trkpt><trkpt lat="40.0258811" lon="1.3655596"><ele>0.0</ele><time>2026-04-29T23:36:16.961Z</time></trkpt><trkpt lat="40.0259526" lon="1.3656119"><ele>0.0</ele><time>2026-04-29T23:36:17.961Z</time></trkpt><trkpt lat="40.0261088" lon="1.3656825"><ele>0.0</ele><time>2026-04-29T23:36:19.961Z</time></trkpt><trkpt lat="40.0261909" lon="1.3657091"><ele>0.0</ele><time>2026-04-29T23:36:20.96Z</time></trkpt><trkpt lat="40.0262584" lon="1.3657587"><ele>0.0</ele><time>2026-04-29T23:36:21.96Z</time></trkpt><trkpt lat="40.0263303" lon="1.365803"><ele>0.0</ele><time>2026-04-29T23:36:22.96Z</time></trkpt><trkpt lat="40.0264098" lon="1.3658243"><ele>0.0</ele><time>2026-04-29T23:36:23.961Z</time></trkpt><trkpt lat="40.0264899" lon="1.3658498"><ele>0.0</ele><time>2026-04-29T23:36:24.961Z</time></trkpt><trkpt lat="40.0265624" lon="1.3658999"><ele>0.0</ele><time>2026-04-29T23:36:25.96Z</time></trkpt><trkpt lat="40.0266368" lon="1.3659411"><ele>0.0</ele><time>2026-04-29T23:36:26.961Z</time></trkpt><trkpt lat="40.0267135" lon="1.3659824"><ele>0.0</ele><time>2026-04-29T23:36:27.96Z</time></trkpt><trkpt lat="40.0267957" lon="1.3660313"><ele>0.0</ele><time>2026-04-29T23:36:28.96Z</time></trkpt><trkpt lat="40.0268791" lon="1.3660674"><ele>0.0</ele><time>2026-04-29T23:36:29.961Z</time></trkpt><trkpt lat="40.0269585" lon="1.3661177"><ele>0.0</ele><time>2026-04-29T23:36:30.96Z</time></trkpt><trkpt lat="40.0270337" lon="1.3661752"><ele>0.0</ele><time>2026-04-29T23:36:31.961Z</time></trkpt><trkpt lat="40.0271074" lon="1.366232"><ele>0.0</ele><time>2026-04-29T23:36:32.96Z</time></trkpt><trkpt lat="40.0271806" lon="1.3662858"><ele>0.0</ele><time>2026-04-29T23:36:33.961Z</time></trkpt><trkpt lat="40.027258" lon="1.366332"><ele>0.0</ele><time>2026-04-29T23:36:34.961Z</time></trkpt><trkpt lat="40.0273368" lon="1.3663783"><ele>0.0</ele><time>2026-04-29T23:36:35.961Z</time></trkpt><trkpt lat="40.0274104" lon="1.3664235"><ele>0.0</ele><time>2026-04-29T23:36:36.96Z</time></trkpt><trkpt lat="40.0274849" lon="1.3664712"><ele>0.0</ele><time>2026-04-29T23:36:37.961Z</time></trkpt><trkpt lat="40.0277255" lon="1.3666545"><ele>0.0</ele><time>2026-04-29T23:36:40.961Z</time></trkpt><trkpt lat="40.0278064" lon="1.3667153"><ele>0.0</ele><time>2026-04-29T23:36:41.961Z</time></trkpt><trkpt lat="40.0278834" lon="1.3667755"><ele>0.0</ele><time>2026-04-29T23:36:42.961Z</time></trkpt><trkpt lat="40.0279689" lon="1.3668113"><ele>0.0</ele><time>2026-04-29T23:36:43.96Z</time></trkpt><trkpt lat="40.0280541" lon="1.3668573"><ele>0.0</ele><time>2026-04-29T23:36:44.961Z</time></trkpt><trkpt lat="40.0281305" lon="1.3669108"><ele>0.0</ele><time>2026-04-29T23:36:45.96Z</time></trkpt><trkpt lat="40.0282069" lon="1.3669546"><ele>0.0</ele><time>2026-04-29T23:36:46.96Z</time></trkpt><trkpt lat="40.0282862" lon="1.3669981"><ele>0.0</ele><time>2026-04-29T23:36:47.96Z</time></trkpt><trkpt lat="40.0283732" lon="1.3670329"><ele>0.0</ele><time>2026-04-29T23:36:48.96Z</time></trkpt><trkpt lat="40.0284382" lon="1.3670413"><ele>0.0</ele><time>2026-04-29T23:36:51.147Z</time></trkpt><trkpt lat="40.0285297" lon="1.3671378"><ele>0.0</ele><time>2026-04-29T23:36:52.152Z</time></trkpt><trkpt lat="40.0285324" lon="1.3672367"><ele>0.0</ele><time>2026-04-29T23:36:53.159Z</time></trkpt><trkpt lat="40.0287583" lon="1.3673151"><ele>0.0</ele><time>2026-04-29T23:36:53.961Z</time></trkpt><trkpt lat="40.0288448" lon="1.3673668"><ele>0.0</ele><time>2026-04-29T23:36:54.96Z</time></trkpt><trkpt lat="40.028927" lon="1.3674237"><ele>0.0</ele><time>2026-04-29T23:36:55.96Z</time></trkpt><trkpt lat="40.0290102" lon="1.367472"><ele>0.0</ele><time>2026-04-29T23:36:56.96Z</time></trkpt><trkpt lat="40.0290909" lon="1.3675219"><ele>0.0</ele><time>2026-04-29T23:36:57.96Z</time></trkpt><trkpt lat="40.0291714" lon="1.3675696"><ele>0.0</ele><time>2026-04-29T23:36:58.961Z</time></trkpt><trkpt lat="40.029246" lon="1.3676059"><ele>0.0</ele><time>2026-04-29T23:36:59.961Z</time></trkpt><trkpt lat="40.0293985" lon="1.3677123"><ele>0.0</ele><time>2026-04-29T23:37:01.961Z</time></trkpt><trkpt lat="40.0294736" lon="1.3677645"><ele>0.0</ele><time>2026-04-29T23:37:02.961Z</time></trkpt><trkpt lat="40.0295485" lon="1.3678436"><ele>0.0</ele><time>2026-04-29T23:37:03.96Z</time></trkpt><trkpt lat="40.0296295" lon="1.3679074"><ele>0.0</ele><time>2026-04-29T23:37:04.961Z</time></trkpt><trkpt lat="40.0297066" lon="1.3679632"><ele>0.0</ele><time>2026-04-29T23:37:05.961Z</time></trkpt><trkpt lat="40.0297818" lon="1.3680158"><ele>0.0</ele><time>2026-04-29T23:37:06.961Z</time></trkpt><trkpt lat="40.029861" lon="1.3680689"><ele>0.0</ele><time>2026-04-29T23:37:07.961Z</time></trkpt><trkpt lat="40.0299364" lon="1.3681288"><ele>0.0</ele><time>2026-04-29T23:37:08.961Z</time></trkpt><trkpt lat="40.0300118" lon="1.3681837"><ele>0.0</ele><time>2026-04-29T23:37:09.961Z</time></trkpt><trkpt lat="40.0301596" lon="1.3682819"><ele>0.0</ele><time>2026-04-29T23:37:11.961Z</time></trkpt><trkpt lat="40.0302362" lon="1.3683248"><ele>0.0</ele><time>2026-04-29T23:37:12.96Z</time></trkpt><trkpt lat="40.0303147" lon="1.3683763"><ele>0.0</ele><time>2026-04-29T23:37:13.961Z</time></trkpt><trkpt lat="40.0303916" lon="1.3684313"><ele>0.0</ele><time>2026-04-29T23:37:14.961Z</time></trkpt><trkpt lat="40.0304639" lon="1.3684944"><ele>0.0</ele><time>2026-04-29T23:37:15.961Z</time></trkpt><trkpt lat="40.0305324" lon="1.3685639"><ele>0.0</ele><time>2026-04-29T23:37:16.961Z</time></trkpt><trkpt lat="40.0306036" lon="1.3686209"><ele>0.0</ele><time>2026-04-29T23:37:17.96Z</time></trkpt><trkpt lat="40.0306764" lon="1.3686809"><ele>0.0</ele><time>2026-04-29T23:37:18.96Z</time></trkpt><trkpt lat="40.0307514" lon="1.3687373"><ele>0.0</ele><time>2026-04-29T23:37:19.961Z</time></trkpt><trkpt lat="40.0308251" lon="1.3687941"><ele>0.0</ele><time>2026-04-29T23:37:20.96Z</time></trkpt><trkpt lat="40.0309733" lon="1.3688971"><ele>0.0</ele><time>2026-04-29T23:37:22.961Z</time></trkpt><trkpt lat="40.0310543" lon="1.3689391"><ele>0.0</ele><time>2026-04-29T23:37:23.961Z</time></trkpt><trkpt lat="40.0311373" lon="1.3689877"><ele>0.0</ele><time>2026-04-29T23:37:24.96Z</time></trkpt><trkpt lat="40.0312164" lon="1.3690375"><ele>0.0</ele><time>2026-04-29T23:37:25.96Z</time></trkpt><trkpt lat="40.0312894" lon="1.3690879"><ele>0.0</ele><time>2026-04-29T23:37:26.96Z</time></trkpt><trkpt lat="40.031348" lon="1.369118"><ele>0.0</ele><time>2026-04-29T23:37:27.961Z</time></trkpt><trkpt lat="40.0314335" lon="1.3691575"><ele>0.0</ele><time>2026-04-29T23:37:28.961Z</time></trkpt><trkpt lat="40.0315159" lon="1.3691782"><ele>0.0</ele><time>2026-04-29T23:37:29.961Z</time></trkpt><trkpt lat="40.0315976" lon="1.3692236"><ele>0.0</ele><time>2026-04-29T23:37:30.961Z</time></trkpt><trkpt lat="40.0316855" lon="1.3692701"><ele>0.0</ele><time>2026-04-29T23:37:31.96Z</time></trkpt><trkpt lat="40.0317697" lon="1.3693205"><ele>0.0</ele><time>2026-04-29T23:37:32.96Z</time></trkpt><trkpt lat="40.0318455" lon="1.3693698"><ele>0.0</ele><time>2026-04-29T23:37:33.961Z</time></trkpt><trkpt lat="40.0319201" lon="1.3694239"><ele>0.0</ele><time>2026-04-29T23:37:34.96Z</time></trkpt><trkpt lat="40.0319993" lon="1.369476"><ele>0.0</ele><time>2026-04-29T23:37:35.961Z</time></trkpt><trkpt lat="40.0320739" lon="1.3695279"><ele>0.0</ele><time>2026-04-29T23:37:36.961Z</time></trkpt><trkpt lat="40.0321513" lon="1.3695808"><ele>0.0</ele><time>2026-04-29T23:37:37.961Z</time></trkpt><trkpt lat="40.0322294" lon="1.36961"><ele>0.0</ele><time>2026-04-29T23:37:38.96Z</time></trkpt><trkpt lat="40.0323016" lon="1.3696621"><ele>0.0</ele><time>2026-04-29T23:37:39.961Z</time></trkpt><trkpt lat="40.0323763" lon="1.3697211"><ele>0.0</ele><time>2026-04-29T23:37:40.96Z</time></trkpt><trkpt lat="40.0324544" lon="1.3697843"><ele>0.0</ele><time>2026-04-29T23:37:41.961Z</time></trkpt><trkpt lat="40.0326891" lon="1.3699314"><ele>0.0</ele><time>2026-04-29T23:37:44.96Z</time></trkpt><trkpt lat="40.0327652" lon="1.3699868"><ele>0.0</ele><time>2026-04-29T23:37:45.961Z</time></trkpt><trkpt lat="40.0328422" lon="1.3700421"><ele>0.0</ele><time>2026-04-29T23:37:46.96Z</time></trkpt><trkpt lat="40.032923" lon="1.3700968"><ele>0.0</ele><time>2026-04-29T23:37:47.96Z</time></trkpt><trkpt lat="40.0330046" lon="1.3701546"><ele>0.0</ele><time>2026-04-29T23:37:48.961Z</time></trkpt><trkpt lat="40.0330907" lon="1.3701935"><ele>0.0</ele><time>2026-04-29T23:37:49.96Z</time></trkpt><trkpt lat="40.0331702" lon="1.3702559"><ele>0.0</ele><time>2026-04-29T23:37:50.961Z</time></trkpt><trkpt lat="40.0332449" lon="1.3703152"><ele>0.0</ele><time>2026-04-29T23:37:51.961Z</time></trkpt><trkpt lat="40.0333226" lon="1.3703714"><ele>0.0</ele><time>2026-04-29T23:37:52.96Z</time></trkpt><trkpt lat="40.0334035" lon="1.3704273"><ele>0.0</ele><time>2026-04-29T23:37:53.961Z</time></trkpt><trkpt lat="40.0334817" lon="1.3704874"><ele>0.0</ele><time>2026-04-29T23:37:54.96Z</time></trkpt><trkpt lat="40.0335599" lon="1.3705465"><ele>0.0</ele><time>2026-04-29T23:37:55.961Z</time></trkpt><trkpt lat="40.0336439" lon="1.3705994"><ele>0.0</ele><time>2026-04-29T23:37:56.961Z</time></trkpt><trkpt lat="40.0337262" lon="1.3706536"><ele>0.0</ele><time>2026-04-29T23:37:57.96Z</time></trkpt><trkpt lat="40.0338108" lon="1.3707091"><ele>0.0</ele><time>2026-04-29T23:37:58.96Z</time></trkpt><trkpt lat="40.0338996" lon="1.3707473"><ele>0.0</ele><time>2026-04-29T23:37:59.961Z</time></trkpt><trkpt lat="40.0339738" lon="1.3708016"><ele>0.0</ele><time>2026-04-29T23:38:00.961Z</time></trkpt><trkpt lat="40.0340454" lon="1.370851"><ele>0.0</ele><time>2026-04-29T23:38:01.961Z</time></trkpt><trkpt lat="40.0341243" lon="1.3709078"><ele>0.0</ele><time>2026-04-29T23:38:02.961Z</time></trkpt><trkpt lat="40.0342046" lon="1.3709635"><ele>0.0</ele><time>2026-04-29T23:38:03.961Z</time></trkpt><trkpt lat="40.0343565" lon="1.3710731"><ele>0.0</ele><time>2026-04-29T23:38:05.96Z</time></trkpt><trkpt lat="40.0344289" lon="1.3711333"><ele>0.0</ele><time>2026-04-29T23:38:06.96Z</time></trkpt><trkpt lat="40.0344974" lon="1.3711977"><ele>0.0</ele><time>2026-04-29T23:38:07.96Z</time></trkpt><trkpt lat="40.03457" lon="1.3712581"><ele>0.0</ele><time>2026-04-29T23:38:08.96Z</time></trkpt><trkpt lat="40.0346361" lon="1.3713122"><ele>0.0</ele><time>2026-04-29T23:38:09.96Z</time></trkpt><trkpt lat="40.0347082" lon="1.3713712"><ele>0.0</ele><time>2026-04-29T23:38:10.96Z</time></trkpt><trkpt lat="40.0347831" lon="1.3714341"><ele>0.0</ele><time>2026-04-29T23:38:11.961Z</time></trkpt><trkpt lat="40.0348568" lon="1.3714918"><ele>0.0</ele><time>2026-04-29T23:38:12.961Z</time></trkpt><trkpt lat="40.0349317" lon="1.3715551"><ele>0.0</ele><time>2026-04-29T23:38:13.96Z</time></trkpt><trkpt lat="40.0350095" lon="1.3716096"><ele>0.0</ele><time>2026-04-29T23:38:14.96Z</time></trkpt><trkpt lat="40.0350965" lon="1.3716739"><ele>0.0</ele><time>2026-04-29T23:38:17.165Z</time></trkpt><trkpt lat="40.0353142" lon="1.3718255"><ele>0.0</ele><time>2026-04-29T23:38:18.96Z</time></trkpt><trkpt lat="40.035396" lon="1.3718827"><ele>0.0</ele><time>2026-04-29T23:38:19.961Z</time></trkpt><trkpt lat="40.0354739" lon="1.3719378"><ele>0.0</ele><time>2026-04-29T23:38:20.96Z</time></trkpt><trkpt lat="40.0355503" lon="1.3719829"><ele>0.0</ele><time>2026-04-29T23:38:21.96Z</time></trkpt><trkpt lat="40.0356364" lon="1.3720449"><ele>0.0</ele><time>2026-04-29T23:38:22.961Z</time></trkpt><trkpt lat="40.0357194" lon="1.3721021"><ele>0.0</ele><time>2026-04-29T23:38:23.961Z</time></trkpt><trkpt lat="40.0358704" lon="1.3722172"><ele>0.0</ele><time>2026-04-29T23:38:25.961Z</time></trkpt><trkpt lat="40.0359508" lon="1.3722596"><ele>0.0</ele><time>2026-04-29T23:38:26.96Z</time></trkpt><trkpt lat="40.0360239" lon="1.3723099"><ele>0.0</ele><time>2026-04-29T23:38:27.96Z</time></trkpt><trkpt lat="40.0361026" lon="1.3723382"><ele>0.0</ele><time>2026-04-29T23:38:28.96Z</time></trkpt><trkpt lat="40.0361785" lon="1.3723888"><ele>0.0</ele><time>2026-04-29T23:38:29.96Z</time></trkpt><trkpt lat="40.0362535" lon="1.3724307"><ele>0.0</ele><time>2026-04-29T23:38:30.96Z</time></trkpt><trkpt lat="40.0363442" lon="1.3724266"><ele>0.0</ele><time>2026-04-29T23:38:31.961Z</time></trkpt><trkpt lat="40.0364331" lon="1.3724368"><ele>0.0</ele><time>2026-04-29T23:38:32.96Z</time></trkpt><trkpt lat="40.0365159" lon="1.3724578"><ele>0.0</ele><time>2026-04-29T23:38:33.961Z</time></trkpt><trkpt lat="40.036597" lon="1.3724812"><ele>0.0</ele><time>2026-04-29T23:38:34.961Z</time></trkpt><trkpt lat="40.0366735" lon="1.3725323"><ele>0.0</ele><time>2026-04-29T23:38:35.961Z</time></trkpt><trkpt lat="40.0367515" lon="1.3725887"><ele>0.0</ele><time>2026-04-29T23:38:36.96Z</time></trkpt><trkpt lat="40.0368268" lon="1.3726469"><ele>0.0</ele><time>2026-04-29T23:38:37.96Z</time></trkpt><trkpt lat="40.0369117" lon="1.3727053"><ele>0.0</ele><time>2026-04-29T23:38:38.961Z</time></trkpt><trkpt lat="40.0369989" lon="1.372762"><ele>0.0</ele><time>2026-04-29T23:38:39.961Z</time></trkpt><trkpt lat="40.037077" lon="1.3728164"><ele>0.0</ele><time>2026-04-29T23:38:40.961Z</time></trkpt><trkpt lat="40.0371533" lon="1.372872"><ele>0.0</ele><time>2026-04-29T23:38:41.96Z</time></trkpt><trkpt lat="40.0372255" lon="1.3729245"><ele>0.0</ele><time>2026-04-29T23:38:42.96Z</time></trkpt><trkpt lat="40.0373003" lon="1.3729818"><ele>0.0</ele><time>2026-04-29T23:38:43.961Z</time></trkpt><trkpt lat="40.0373778" lon="1.3730412"><ele>0.0</ele><time>2026-04-29T23:38:44.96Z</time></trkpt><trkpt lat="40.0375295" lon="1.3731723"><ele>0.0</ele><time>2026-04-29T23:38:46.96Z</time></trkpt><trkpt lat="40.0376093" lon="1.3732377"><ele>0.0</ele><time>2026-04-29T23:38:47.961Z</time></trkpt><trkpt lat="40.0376868" lon="1.3733012"><ele>0.0</ele><time>2026-04-29T23:38:48.96Z</time></trkpt><trkpt lat="40.0377604" lon="1.3733618"><ele>0.0</ele><time>2026-04-29T23:38:49.96Z</time></trkpt><trkpt lat="40.0378412" lon="1.3734159"><ele>0.0</ele><time>2026-04-29T23:38:50.961Z</time></trkpt><trkpt lat="40.0379218" lon="1.3734747"><ele>0.0</ele><time>2026-04-29T23:38:51.96Z</time></trkpt><trkpt lat="40.0379852" lon="1.373465"><ele>0.0</ele><time>2026-04-29T23:38:54.144Z</time></trkpt><trkpt lat="40.0381304" lon="1.3736419"><ele>0.0</ele><time>2026-04-29T23:38:55.15Z</time></trkpt><trkpt lat="40.0382193" lon="1.3737269"><ele>0.0</ele><time>2026-04-29T23:38:56.156Z</time></trkpt><trkpt lat="40.0383093" lon="1.3737816"><ele>0.0</ele><time>2026-04-29T23:38:57.161Z</time></trkpt><trkpt lat="40.0383904" lon="1.3738356"><ele>0.0</ele><time>2026-04-29T23:38:58.066Z</time></trkpt><trkpt lat="40.0384697" lon="1.3739003"><ele>0.0</ele><time>2026-04-29T23:38:59.073Z</time></trkpt><trkpt lat="40.0385516" lon="1.3739534"><ele>0.0</ele><time>2026-04-29T23:39:00.078Z</time></trkpt><trkpt lat="40.0386306" lon="1.3740189"><ele>0.0</ele><time>2026-04-29T23:39:01.084Z</time></trkpt><trkpt lat="40.0387041" lon="1.3740958"><ele>0.0</ele><time>2026-04-29T23:39:02.09Z</time></trkpt><trkpt lat="40.0387811" lon="1.3741603"><ele>0.0</ele><time>2026-04-29T23:39:03.095Z</time></trkpt><trkpt lat="40.0388866" lon="1.3742257"><ele>0.0</ele><time>2026-04-29T23:39:05.108Z</time></trkpt><trkpt lat="40.0389884" lon="1.3743115"><ele>0.0</ele><time>2026-04-29T23:39:06.112Z</time></trkpt><trkpt lat="40.0391703" lon="1.3743977"><ele>0.0</ele><time>2026-04-29T23:39:08.124Z</time></trkpt><trkpt lat="40.0392595" lon="1.374424"><ele>0.0</ele><time>2026-04-29T23:39:09.13Z</time></trkpt><trkpt lat="40.0393637" lon="1.3745185"><ele>0.0</ele><time>2026-04-29T23:39:11.142Z</time></trkpt><trkpt lat="40.0394693" lon="1.3746019"><ele>0.0</ele><time>2026-04-29T23:39:12.148Z</time></trkpt><trkpt lat="40.0395602" lon="1.374652"><ele>0.0</ele><time>2026-04-29T23:39:13.154Z</time></trkpt><trkpt lat="40.0396426" lon="1.3747085"><ele>0.0</ele><time>2026-04-29T23:39:14.158Z</time></trkpt><trkpt lat="40.0397151" lon="1.3747606"><ele>0.0</ele><time>2026-04-29T23:39:15.063Z</time></trkpt><trkpt lat="40.0397893" lon="1.3748155"><ele>0.0</ele><time>2026-04-29T23:39:16.069Z</time></trkpt><trkpt lat="40.039858" lon="1.3748772"><ele>0.0</ele><time>2026-04-29T23:39:17.076Z</time></trkpt><trkpt lat="40.039938" lon="1.3749172"><ele>0.0</ele><time>2026-04-29T23:39:18.081Z</time></trkpt><trkpt lat="40.0400245" lon="1.3749681"><ele>0.0</ele><time>2026-04-29T23:39:19.086Z</time></trkpt><trkpt lat="40.040115" lon="1.3750153"><ele>0.0</ele><time>2026-04-29T23:39:20.093Z</time></trkpt><trkpt lat="40.0401921" lon="1.3750821"><ele>0.0</ele><time>2026-04-29T23:39:21.099Z</time></trkpt><trkpt lat="40.0402723" lon="1.3751524"><ele>0.0</ele><time>2026-04-29T23:39:22.104Z</time></trkpt><trkpt lat="40.0403397" lon="1.3752359"><ele>0.0</ele><time>2026-04-29T23:39:23.109Z</time></trkpt><trkpt lat="40.0404785" lon="1.3753865"><ele>0.0</ele><time>2026-04-29T23:39:26.127Z</time></trkpt><trkpt lat="40.040577" lon="1.3754269"><ele>0.0</ele><time>2026-04-29T23:39:27.133Z</time></trkpt><trkpt lat="40.0407557" lon="1.3755369"><ele>0.0</ele><time>2026-04-29T23:39:29.145Z</time></trkpt><trkpt lat="40.0408398" lon="1.3755964"><ele>0.0</ele><time>2026-04-29T23:39:30.15Z</time></trkpt><trkpt lat="40.0409207" lon="1.3756706"><ele>0.0</ele><time>2026-04-29T23:39:31.155Z</time></trkpt><trkpt lat="40.0410032" lon="1.3757402"><ele>0.0</ele><time>2026-04-29T23:39:32.161Z</time></trkpt><trkpt lat="40.0410815" lon="1.3758006"><ele>0.0</ele><time>2026-04-29T23:39:33.066Z</time></trkpt><trkpt lat="40.0411752" lon="1.3758477"><ele>0.0</ele><time>2026-04-29T23:39:34.073Z</time></trkpt><trkpt lat="40.041269" lon="1.375903"><ele>0.0</ele><time>2026-04-29T23:39:35.078Z</time></trkpt><trkpt lat="40.0413633" lon="1.3759745"><ele>0.0</ele><time>2026-04-29T23:39:37.089Z</time></trkpt><trkpt lat="40.0414423" lon="1.3760738"><ele>0.0</ele><time>2026-04-29T23:39:38.095Z</time></trkpt><trkpt lat="40.0415445" lon="1.3761147"><ele>0.0</ele><time>2026-04-29T23:39:39.102Z</time></trkpt><trkpt lat="40.0416554" lon="1.3761919"><ele>0.0</ele><time>2026-04-29T23:39:41.113Z</time></trkpt><trkpt lat="40.041759" lon="1.3762706"><ele>0.0</ele><time>2026-04-29T23:39:42.118Z</time></trkpt><trkpt lat="40.041856" lon="1.376309"><ele>0.0</ele><time>2026-04-29T23:39:43.124Z</time></trkpt><trkpt lat="40.0419371" lon="1.3763628"><ele>0.0</ele><time>2026-04-29T23:39:44.131Z</time></trkpt><trkpt lat="40.042018" lon="1.3764184"><ele>0.0</ele><time>2026-04-29T23:39:45.136Z</time></trkpt><trkpt lat="40.0421077" lon="1.3764398"><ele>0.0</ele><time>2026-04-29T23:39:46.141Z</time></trkpt><trkpt lat="40.042188" lon="1.3764818"><ele>0.0</ele><time>2026-04-29T23:39:47.147Z</time></trkpt><trkpt lat="40.0422697" lon="1.3765359"><ele>0.0</ele><time>2026-04-29T23:39:48.153Z</time></trkpt><trkpt lat="40.0424494" lon="1.376701"><ele>0.0</ele><time>2026-04-29T23:39:51.069Z</time></trkpt><trkpt lat="40.0425514" lon="1.3767472"><ele>0.0</ele><time>2026-04-29T23:39:52.076Z</time></trkpt><trkpt lat="40.0426418" lon="1.3768031"><ele>0.0</ele><time>2026-04-29T23:39:53.082Z</time></trkpt><trkpt lat="40.0427278" lon="1.3768589"><ele>0.0</ele><time>2026-04-29T23:39:54.087Z</time></trkpt><trkpt lat="40.0428143" lon="1.3769047"><ele>0.0</ele><time>2026-04-29T23:39:55.092Z</time></trkpt><trkpt lat="40.0429119" lon="1.3769846"><ele>0.0</ele><time>2026-04-29T23:39:57.105Z</time></trkpt><trkpt lat="40.0429987" lon="1.3770817"><ele>0.0</ele><time>2026-04-29T23:39:58.11Z</time></trkpt><trkpt lat="40.043091" lon="1.3771353"><ele>0.0</ele><time>2026-04-29T23:39:59.115Z</time></trkpt><trkpt lat="40.0431828" lon="1.3771703"><ele>0.0</ele><time>2026-04-29T23:40:00.122Z</time></trkpt><trkpt lat="40.0432715" lon="1.3772173"><ele>0.0</ele><time>2026-04-29T23:40:01.128Z</time></trkpt><trkpt lat="40.0433794" lon="1.3772995"><ele>0.0</ele><time>2026-04-29T23:40:03.139Z</time></trkpt><trkpt lat="40.0434768" lon="1.3773781"><ele>0.0</ele><time>2026-04-29T23:40:04.144Z</time></trkpt><trkpt lat="40.0435814" lon="1.377399"><ele>0.0</ele><time>2026-04-29T23:40:05.151Z</time></trkpt><trkpt lat="40.0436633" lon="1.3774628"><ele>0.0</ele><time>2026-04-29T23:40:06.156Z</time></trkpt><trkpt lat="40.0437426" lon="1.3775259"><ele>0.0</ele><time>2026-04-29T23:40:07.161Z</time></trkpt><trkpt lat="40.0438217" lon="1.3775679"><ele>0.0</ele><time>2026-04-29T23:40:08.067Z</time></trkpt><trkpt lat="40.0439016" lon="1.3776216"><ele>0.0</ele><time>2026-04-29T23:40:09.073Z</time></trkpt><trkpt lat="40.0440756" lon="1.377719"><ele>0.0</ele><time>2026-04-29T23:40:11.085Z</time></trkpt><trkpt lat="40.0441442" lon="1.3777901"><ele>0.0</ele><time>2026-04-29T23:40:12.09Z</time></trkpt><trkpt lat="40.044204" lon="1.3778654"><ele>0.0</ele><time>2026-04-29T23:40:13.095Z</time></trkpt><trkpt lat="40.0442809" lon="1.3779203"><ele>0.0</ele><time>2026-04-29T23:40:14.102Z</time></trkpt><trkpt lat="40.0443652" lon="1.3779759"><ele>0.0</ele><time>2026-04-29T23:40:15.107Z</time></trkpt><trkpt lat="40.0444909" lon="1.3780368"><ele>0.0</ele><time>2026-04-29T23:40:16.959Z</time></trkpt><trkpt lat="40.0445765" lon="1.3780799"><ele>0.0</ele><time>2026-04-29T23:40:17.96Z</time></trkpt><trkpt lat="40.0446611" lon="1.3781272"><ele>0.0</ele><time>2026-04-29T23:40:18.959Z</time></trkpt><trkpt lat="40.0447426" lon="1.3781852"><ele>0.0</ele><time>2026-04-29T23:40:19.96Z</time></trkpt><trkpt lat="40.0448228" lon="1.3782426"><ele>0.0</ele><time>2026-04-29T23:40:20.96Z</time></trkpt><trkpt lat="40.0449028" lon="1.378293"><ele>0.0</ele><time>2026-04-29T23:40:21.959Z</time></trkpt><trkpt lat="40.0449785" lon="1.3783481"><ele>0.0</ele><time>2026-04-29T23:40:22.96Z</time></trkpt><trkpt lat="40.0450534" lon="1.3783993"><ele>0.0</ele><time>2026-04-29T23:40:23.96Z</time></trkpt><trkpt lat="40.0451284" lon="1.3784534"><ele>0.0</ele><time>2026-04-29T23:40:24.959Z</time></trkpt><trkpt lat="40.0452023" lon="1.3785053"><ele>0.0</ele><time>2026-04-29T23:40:25.96Z</time></trkpt><trkpt lat="40.0452742" lon="1.3785552"><ele>0.0</ele><time>2026-04-29T23:40:26.96Z</time></trkpt><trkpt lat="40.0453468" lon="1.3786119"><ele>0.0</ele><time>2026-04-29T23:40:27.96Z</time></trkpt><trkpt lat="40.0454227" lon="1.3786691"><ele>0.0</ele><time>2026-04-29T23:40:28.959Z</time></trkpt><trkpt lat="40.0455797" lon="1.3787882"><ele>0.0</ele><time>2026-04-29T23:40:30.959Z</time></trkpt><trkpt lat="40.0456572" lon="1.3788434"><ele>0.0</ele><time>2026-04-29T23:40:31.96Z</time></trkpt><trkpt lat="40.0457305" lon="1.3788878"><ele>0.0</ele><time>2026-04-29T23:40:32.96Z</time></trkpt><trkpt lat="40.0458093" lon="1.3789365"><ele>0.0</ele><time>2026-04-29T23:40:33.959Z</time></trkpt><trkpt lat="40.0458939" lon="1.3789852"><ele>0.0</ele><time>2026-04-29T23:40:34.96Z</time></trkpt><trkpt lat="40.0459761" lon="1.3790421"><ele>0.0</ele><time>2026-04-29T23:40:35.96Z</time></trkpt><trkpt lat="40.0460574" lon="1.3790889"><ele>0.0</ele><time>2026-04-29T23:40:36.96Z</time></trkpt><trkpt lat="40.0461409" lon="1.3791353"><ele>0.0</ele><time>2026-04-29T23:40:37.959Z</time></trkpt><trkpt lat="40.0462271" lon="1.3791812"><ele>0.0</ele><time>2026-04-29T23:40:38.959Z</time></trkpt><trkpt lat="40.0463022" lon="1.3792216"><ele>0.0</ele><time>2026-04-29T23:40:39.959Z</time></trkpt><trkpt lat="40.0463727" lon="1.3792728"><ele>0.0</ele><time>2026-04-29T23:40:40.959Z</time></trkpt><trkpt lat="40.0464494" lon="1.3793145"><ele>0.0</ele><time>2026-04-29T23:40:41.959Z</time></trkpt><trkpt lat="40.0465265" lon="1.3793678"><ele>0.0</ele><time>2026-04-29T23:40:42.959Z</time></trkpt><trkpt lat="40.0466036" lon="1.3794176"><ele>0.0</ele><time>2026-04-29T23:40:43.959Z</time></trkpt><trkpt lat="40.0466775" lon="1.3794777"><ele>0.0</ele><time>2026-04-29T23:40:44.96Z</time></trkpt><trkpt lat="40.0467576" lon="1.379535"><ele>0.0</ele><time>2026-04-29T23:40:45.96Z</time></trkpt><trkpt lat="40.0468334" lon="1.3795904"><ele>0.0</ele><time>2026-04-29T23:40:46.959Z</time></trkpt><trkpt lat="40.0469085" lon="1.3796469"><ele>0.0</ele><time>2026-04-29T23:40:47.959Z</time></trkpt><trkpt lat="40.0469849" lon="1.379706"><ele>0.0</ele><time>2026-04-29T23:40:48.959Z</time></trkpt><trkpt lat="40.0470629" lon="1.3797591"><ele>0.0</ele><time>2026-04-29T23:40:49.96Z</time></trkpt><trkpt lat="40.0472716" lon="1.3799295"><ele>0.0</ele><time>2026-04-29T23:40:54.158Z</time></trkpt><trkpt lat="40.0474207" lon="1.3800002"><ele>0.0</ele><time>2026-04-29T23:40:55.163Z</time></trkpt><trkpt lat="40.0476089" lon="1.3800913"><ele>0.0</ele><time>2026-04-29T23:40:57.075Z</time></trkpt><trkpt lat="40.0477028" lon="1.3801506"><ele>0.0</ele><time>2026-04-29T23:40:58.081Z</time></trkpt><trkpt lat="40.0477899" lon="1.3802147"><ele>0.0</ele><time>2026-04-29T23:40:59.086Z</time></trkpt><trkpt lat="40.0478736" lon="1.3802845"><ele>0.0</ele><time>2026-04-29T23:41:00.092Z</time></trkpt><trkpt lat="40.0479554" lon="1.3803491"><ele>0.0</ele><time>2026-04-29T23:41:01.097Z</time></trkpt><trkpt lat="40.0480409" lon="1.3804097"><ele>0.0</ele><time>2026-04-29T23:41:02.104Z</time></trkpt><trkpt lat="40.0481294" lon="1.3804708"><ele>0.0</ele><time>2026-04-29T23:41:03.109Z</time></trkpt><trkpt lat="40.0482159" lon="1.3805291"><ele>0.0</ele><time>2026-04-29T23:41:04.115Z</time></trkpt><trkpt lat="40.0483142" lon="1.3806079"><ele>0.0</ele><time>2026-04-29T23:41:06.127Z</time></trkpt><trkpt lat="40.0484073" lon="1.3806935"><ele>0.0</ele><time>2026-04-29T23:41:07.133Z</time></trkpt><trkpt lat="40.0485" lon="1.380742"><ele>0.0</ele><time>2026-04-29T23:41:08.139Z</time></trkpt><trkpt lat="40.048578" lon="1.3807924"><ele>0.0</ele><time>2026-04-29T23:41:09.143Z</time></trkpt><trkpt lat="40.0486561" lon="1.3808334"><ele>0.0</ele><time>2026-04-29T23:41:10.149Z</time></trkpt><trkpt lat="40.0487738" lon="1.3809276"><ele>0.0</ele><time>2026-04-29T23:41:11.96Z</time></trkpt><trkpt lat="40.0489235" lon="1.3810388"><ele>0.0</ele><time>2026-04-29T23:41:13.96Z</time></trkpt><trkpt lat="40.0489986" lon="1.3810988"><ele>0.0</ele><time>2026-04-29T23:41:14.959Z</time></trkpt><trkpt lat="40.0490764" lon="1.3811566"><ele>0.0</ele><time>2026-04-29T23:41:15.96Z</time></trkpt><trkpt lat="40.0491549" lon="1.3812122"><ele>0.0</ele><time>2026-04-29T23:41:16.959Z</time></trkpt><trkpt lat="40.049236" lon="1.3812669"><ele>0.0</ele><time>2026-04-29T23:41:17.959Z</time></trkpt><trkpt lat="40.0493135" lon="1.3813202"><ele>0.0</ele><time>2026-04-29T23:41:18.96Z</time></trkpt><trkpt lat="40.0493901" lon="1.3813675"><ele>0.0</ele><time>2026-04-29T23:41:19.959Z</time></trkpt><trkpt lat="40.0494655" lon="1.3814151"><ele>0.0</ele><time>2026-04-29T23:41:20.96Z</time></trkpt><trkpt lat="40.0495417" lon="1.381463"><ele>0.0</ele><time>2026-04-29T23:41:21.959Z</time></trkpt><trkpt lat="40.049617" lon="1.3815111"><ele>0.0</ele><time>2026-04-29T23:41:22.96Z</time></trkpt><trkpt lat="40.049695" lon="1.3815644"><ele>0.0</ele><time>2026-04-29T23:41:23.96Z</time></trkpt><trkpt lat="40.0497765" lon="1.3816165"><ele>0.0</ele><time>2026-04-29T23:41:24.959Z</time></trkpt><trkpt lat="40.0498614" lon="1.3816657"><ele>0.0</ele><time>2026-04-29T23:41:25.96Z</time></trkpt><trkpt lat="40.0499363" lon="1.3817152"><ele>0.0</ele><time>2026-04-29T23:41:26.96Z</time></trkpt><trkpt lat="40.0500105" lon="1.3817578"><ele>0.0</ele><time>2026-04-29T23:41:27.959Z</time></trkpt><trkpt lat="40.0501715" lon="1.3818603"><ele>0.0</ele><time>2026-04-29T23:41:29.96Z</time></trkpt><trkpt lat="40.0502526" lon="1.3819193"><ele>0.0</ele><time>2026-04-29T23:41:30.96Z</time></trkpt><trkpt lat="40.0503673" lon="1.3819557"><ele>0.0</ele><time>2026-04-29T23:41:34.154Z</time></trkpt><trkpt lat="40.0506028" lon="1.3821598"><ele>0.0</ele><time>2026-04-29T23:41:36.065Z</time></trkpt><trkpt lat="40.0507046" lon="1.3821985"><ele>0.0</ele><time>2026-04-29T23:41:37.071Z</time></trkpt><trkpt lat="40.0507968" lon="1.3822557"><ele>0.0</ele><time>2026-04-29T23:41:38.078Z</time></trkpt><trkpt lat="40.0508864" lon="1.3823242"><ele>0.0</ele><time>2026-04-29T23:41:39.082Z</time></trkpt><trkpt lat="40.0509731" lon="1.3823908"><ele>0.0</ele><time>2026-04-29T23:41:40.088Z</time></trkpt><trkpt lat="40.0510567" lon="1.382461"><ele>0.0</ele><time>2026-04-29T23:41:41.094Z</time></trkpt><trkpt lat="40.0511425" lon="1.3825269"><ele>0.0</ele><time>2026-04-29T23:41:42.101Z</time></trkpt><trkpt lat="40.0512313" lon="1.3825871"><ele>0.0</ele><time>2026-04-29T23:41:43.105Z</time></trkpt><trkpt lat="40.0513159" lon="1.3826374"><ele>0.0</ele><time>2026-04-29T23:41:44.112Z</time></trkpt><trkpt lat="40.0514101" lon="1.3827016"><ele>0.0</ele><time>2026-04-29T23:41:46.124Z</time></trkpt><trkpt lat="40.0515112" lon="1.3827741"><ele>0.0</ele><time>2026-04-29T23:41:47.129Z</time></trkpt><trkpt lat="40.0516107" lon="1.3828041"><ele>0.0</ele><time>2026-04-29T23:41:48.134Z</time></trkpt><trkpt lat="40.0516932" lon="1.3828614"><ele>0.0</ele><time>2026-04-29T23:41:49.141Z</time></trkpt><trkpt lat="40.0517694" lon="1.3829324"><ele>0.0</ele><time>2026-04-29T23:41:50.146Z</time></trkpt><trkpt lat="40.0518448" lon="1.3829819"><ele>0.0</ele><time>2026-04-29T23:41:51.152Z</time></trkpt><trkpt lat="40.0519268" lon="1.3830312"><ele>0.0</ele><time>2026-04-29T23:41:52.158Z</time></trkpt><trkpt lat="40.0520065" lon="1.3831029"><ele>0.0</ele><time>2026-04-29T23:41:53.164Z</time></trkpt><trkpt lat="40.0520763" lon="1.383182"><ele>0.0</ele><time>2026-04-29T23:41:54.068Z</time></trkpt><trkpt lat="40.0521574" lon="1.3832445"><ele>0.0</ele><time>2026-04-29T23:41:55.074Z</time></trkpt><trkpt lat="40.0523762" lon="1.3833647"><ele>0.0</ele><time>2026-04-29T23:41:57.959Z</time></trkpt><trkpt lat="40.0524475" lon="1.3834114"><ele>0.0</ele><time>2026-04-29T23:41:58.959Z</time></trkpt><trkpt lat="40.05253" lon="1.3834448"><ele>0.0</ele><time>2026-04-29T23:41:59.959Z</time></trkpt><trkpt lat="40.0526896" lon="1.3835534"><ele>0.0</ele><time>2026-04-29T23:42:01.959Z</time></trkpt><trkpt lat="40.0527698" lon="1.3836083"><ele>0.0</ele><time>2026-04-29T23:42:02.959Z</time></trkpt><trkpt lat="40.0528482" lon="1.3836646"><ele>0.0</ele><time>2026-04-29T23:42:03.959Z</time></trkpt><trkpt lat="40.0529235" lon="1.3837182"><ele>0.0</ele><time>2026-04-29T23:42:04.96Z</time></trkpt><trkpt lat="40.0530002" lon="1.3837742"><ele>0.0</ele><time>2026-04-29T23:42:05.959Z</time></trkpt><trkpt lat="40.0530726" lon="1.3838294"><ele>0.0</ele><time>2026-04-29T23:42:06.96Z</time></trkpt><trkpt lat="40.0531429" lon="1.3838889"><ele>0.0</ele><time>2026-04-29T23:42:07.959Z</time></trkpt><trkpt lat="40.0532128" lon="1.3839406"><ele>0.0</ele><time>2026-04-29T23:42:08.959Z</time></trkpt><trkpt lat="40.0532873" lon="1.3839879"><ele>0.0</ele><time>2026-04-29T23:42:09.959Z</time></trkpt><trkpt lat="40.0533622" lon="1.3840332"><ele>0.0</ele><time>2026-04-29T23:42:10.959Z</time></trkpt><trkpt lat="40.053436" lon="1.3840664"><ele>0.0</ele><time>2026-04-29T23:42:11.959Z</time></trkpt><trkpt lat="40.0535135" lon="1.3841082"><ele>0.0</ele><time>2026-04-29T23:42:12.959Z</time></trkpt><trkpt lat="40.0535922" lon="1.3841552"><ele>0.0</ele><time>2026-04-29T23:42:13.96Z</time></trkpt><trkpt lat="40.0536714" lon="1.3842035"><ele>0.0</ele><time>2026-04-29T23:42:14.96Z</time></trkpt><trkpt lat="40.0537602" lon="1.3842557"><ele>0.0</ele><time>2026-04-29T23:42:15.959Z</time></trkpt><trkpt lat="40.05392" lon="1.3843828"><ele>0.0</ele><time>2026-04-29T23:42:17.96Z</time></trkpt><trkpt lat="40.0539973" lon="1.3844381"><ele>0.0</ele><time>2026-04-29T23:42:18.959Z</time></trkpt><trkpt lat="40.0540708" lon="1.3844875"><ele>0.0</ele><time>2026-04-29T23:42:19.96Z</time></trkpt><trkpt lat="40.0541439" lon="1.3845373"><ele>0.0</ele><time>2026-04-29T23:42:20.96Z</time></trkpt><trkpt lat="40.0542142" lon="1.38459"><ele>0.0</ele><time>2026-04-29T23:42:21.959Z</time></trkpt><trkpt lat="40.0542929" lon="1.3846401"><ele>0.0</ele><time>2026-04-29T23:42:22.959Z</time></trkpt><trkpt lat="40.0543699" lon="1.3847014"><ele>0.0</ele><time>2026-04-29T23:42:23.96Z</time></trkpt><trkpt lat="40.0544479" lon="1.3847648"><ele>0.0</ele><time>2026-04-29T23:42:24.96Z</time></trkpt><trkpt lat="40.0545308" lon="1.384817"><ele>0.0</ele><time>2026-04-29T23:42:25.96Z</time></trkpt><trkpt lat="40.0546098" lon="1.3848602"><ele>0.0</ele><time>2026-04-29T23:42:26.96Z</time></trkpt><trkpt lat="40.0546875" lon="1.3849081"><ele>0.0</ele><time>2026-04-29T23:42:27.96Z</time></trkpt><trkpt lat="40.0547646" lon="1.3849657"><ele>0.0</ele><time>2026-04-29T23:42:28.959Z</time></trkpt><trkpt lat="40.0548385" lon="1.3850299"><ele>0.0</ele><time>2026-04-29T23:42:29.959Z</time></trkpt><trkpt lat="40.0549165" lon="1.3850904"><ele>0.0</ele><time>2026-04-29T23:42:30.959Z</time></trkpt><trkpt lat="40.0549936" lon="1.3851465"><ele>0.0</ele><time>2026-04-29T23:42:31.959Z</time></trkpt><trkpt lat="40.0551524" lon="1.3852602"><ele>0.0</ele><time>2026-04-29T23:42:33.959Z</time></trkpt><trkpt lat="40.0552056" lon="1.3853257"><ele>0.0</ele><time>2026-04-29T23:42:36.155Z</time></trkpt><trkpt lat="40.0552832" lon="1.3854012"><ele>0.0</ele><time>2026-04-29T23:42:37.16Z</time></trkpt><trkpt lat="40.0555401" lon="1.3854963"><ele>0.0</ele><time>2026-04-29T23:42:39.072Z</time></trkpt><trkpt lat="40.0556271" lon="1.3855639"><ele>0.0</ele><time>2026-04-29T23:42:40.078Z</time></trkpt><trkpt lat="40.0557069" lon="1.3856364"><ele>0.0</ele><time>2026-04-29T23:42:41.083Z</time></trkpt><trkpt lat="40.0557873" lon="1.3857069"><ele>0.0</ele><time>2026-04-29T23:42:42.09Z</time></trkpt><trkpt lat="40.0558658" lon="1.3857784"><ele>0.0</ele><time>2026-04-29T23:42:43.094Z</time></trkpt><trkpt lat="40.0559481" lon="1.3858322"><ele>0.0</ele><time>2026-04-29T23:42:44.1Z</time></trkpt><trkpt lat="40.0560549" lon="1.3859201"><ele>0.0</ele><time>2026-04-29T23:42:46.112Z</time></trkpt><trkpt lat="40.0561517" lon="1.3860021"><ele>0.0</ele><time>2026-04-29T23:42:47.118Z</time></trkpt><trkpt lat="40.0562398" lon="1.3860589"><ele>0.0</ele><time>2026-04-29T23:42:48.124Z</time></trkpt><trkpt lat="40.0563403" lon="1.386104"><ele>0.0</ele><time>2026-04-29T23:42:50.135Z</time></trkpt><trkpt lat="40.0564414" lon="1.3861715"><ele>0.0</ele><time>2026-04-29T23:42:51.141Z</time></trkpt><trkpt lat="40.056538" lon="1.3862127"><ele>0.0</ele><time>2026-04-29T23:42:52.146Z</time></trkpt><trkpt lat="40.0566248" lon="1.386248"><ele>0.0</ele><time>2026-04-29T23:42:53.152Z</time></trkpt><trkpt lat="40.0567098" lon="1.3863038"><ele>0.0</ele><time>2026-04-29T23:42:54.159Z</time></trkpt><trkpt lat="40.0567919" lon="1.3863798"><ele>0.0</ele><time>2026-04-29T23:42:55.163Z</time></trkpt><trkpt lat="40.056875" lon="1.3864494"><ele>0.0</ele><time>2026-04-29T23:42:56.17Z</time></trkpt><trkpt lat="40.0569555" lon="1.3865056"><ele>0.0</ele><time>2026-04-29T23:42:57.074Z</time></trkpt><trkpt lat="40.0570442" lon="1.3865544"><ele>0.0</ele><time>2026-04-29T23:42:58.081Z</time></trkpt><trkpt lat="40.0572182" lon="1.3866848"><ele>0.0</ele><time>2026-04-29T23:43:01.098Z</time></trkpt><trkpt lat="40.0573168" lon="1.3867745"><ele>0.0</ele><time>2026-04-29T23:43:02.103Z</time></trkpt><trkpt lat="40.0574139" lon="1.386833"><ele>0.0</ele><time>2026-04-29T23:43:03.11Z</time></trkpt><trkpt lat="40.0575098" lon="1.3868749"><ele>0.0</ele><time>2026-04-29T23:43:04.115Z</time></trkpt><trkpt lat="40.0576733" lon="1.3869691"><ele>0.0</ele><time>2026-04-29T23:43:06.127Z</time></trkpt><trkpt lat="40.0577449" lon="1.3870352"><ele>0.0</ele><time>2026-04-29T23:43:07.132Z</time></trkpt><trkpt lat="40.057834" lon="1.3871157"><ele>0.0</ele><time>2026-04-29T23:43:09.144Z</time></trkpt><trkpt lat="40.0579273" lon="1.3872114"><ele>0.0</ele><time>2026-04-29T23:43:10.15Z</time></trkpt><trkpt lat="40.0580175" lon="1.3872567"><ele>0.0</ele><time>2026-04-29T23:43:11.155Z</time></trkpt><trkpt lat="40.0580963" lon="1.3873078"><ele>0.0</ele><time>2026-04-29T23:43:12.162Z</time></trkpt><trkpt lat="40.0581761" lon="1.3873492"><ele>0.0</ele><time>2026-04-29T23:43:13.066Z</time></trkpt><trkpt lat="40.0582632" lon="1.3873913"><ele>0.0</ele><time>2026-04-29T23:43:14.073Z</time></trkpt><trkpt lat="40.0583479" lon="1.3874488"><ele>0.0</ele><time>2026-04-29T23:43:15.078Z</time></trkpt><trkpt lat="40.0584326" lon="1.3875176"><ele>0.0</ele><time>2026-04-29T23:43:16.083Z</time></trkpt><trkpt lat="40.0585163" lon="1.3875821"><ele>0.0</ele><time>2026-04-29T23:43:17.09Z</time></trkpt><trkpt lat="40.058598" lon="1.387645"><ele>0.0</ele><time>2026-04-29T23:43:18.096Z</time></trkpt><trkpt lat="40.0587335" lon="1.3876834"><ele>0.0</ele><time>2026-04-29T23:43:21.112Z</time></trkpt><trkpt lat="40.058942" lon="1.387893"><ele>0.0</ele><time>2026-04-29T23:43:23.124Z</time></trkpt><trkpt lat="40.0590249" lon="1.3879653"><ele>0.0</ele><time>2026-04-29T23:43:24.129Z</time></trkpt><trkpt lat="40.059112" lon="1.3880226"><ele>0.0</ele><time>2026-04-29T23:43:25.136Z</time></trkpt><trkpt lat="40.0591919" lon="1.3880811"><ele>0.0</ele><time>2026-04-29T23:43:26.141Z</time></trkpt><trkpt lat="40.0592949" lon="1.38814"><ele>0.0</ele><time>2026-04-29T23:43:28.153Z</time></trkpt><trkpt lat="40.0593915" lon="1.3882099"><ele>0.0</ele><time>2026-04-29T23:43:29.158Z</time></trkpt><trkpt lat="40.0594734" lon="1.3882557"><ele>0.0</ele><time>2026-04-29T23:43:30.063Z</time></trkpt><trkpt lat="40.0595605" lon="1.3883071"><ele>0.0</ele><time>2026-04-29T23:43:31.069Z</time></trkpt><trkpt lat="40.0597343" lon="1.3884272"><ele>0.0</ele><time>2026-04-29T23:43:32.959Z</time></trkpt><trkpt lat="40.0598161" lon="1.3884846"><ele>0.0</ele><time>2026-04-29T23:43:33.958Z</time></trkpt><trkpt lat="40.0598977" lon="1.3885472"><ele>0.0</ele><time>2026-04-29T23:43:34.958Z</time></trkpt><trkpt lat="40.0599796" lon="1.3886107"><ele>0.0</ele><time>2026-04-29T23:43:35.958Z</time></trkpt><trkpt lat="40.0600542" lon="1.3886695"><ele>0.0</ele><time>2026-04-29T23:43:36.958Z</time></trkpt><trkpt lat="40.0601273" lon="1.3887204"><ele>0.0</ele><time>2026-04-29T23:43:37.959Z</time></trkpt><trkpt lat="40.0602018" lon="1.3887788"><ele>0.0</ele><time>2026-04-29T23:43:38.959Z</time></trkpt><trkpt lat="40.060277" lon="1.388834"><ele>0.0</ele><time>2026-04-29T23:43:39.959Z</time></trkpt><trkpt lat="40.0603547" lon="1.388892"><ele>0.0</ele><time>2026-04-29T23:43:40.959Z</time></trkpt><trkpt lat="40.0605032" lon="1.3890143"><ele>0.0</ele><time>2026-04-29T23:43:42.959Z</time></trkpt><trkpt lat="40.0605782" lon="1.3890601"><ele>0.0</ele><time>2026-04-29T23:43:43.958Z</time></trkpt><trkpt lat="40.0606575" lon="1.3891103"><ele>0.0</ele><time>2026-04-29T23:43:44.958Z</time></trkpt><trkpt lat="40.0607463" lon="1.3891125"><ele>0.0</ele><time>2026-04-29T23:43:45.959Z</time></trkpt><trkpt lat="40.0608276" lon="1.3891578"><ele>0.0</ele><time>2026-04-29T23:43:46.958Z</time></trkpt><trkpt lat="40.0608995" lon="1.3892186"><ele>0.0</ele><time>2026-04-29T23:43:47.959Z</time></trkpt><trkpt lat="40.0609748" lon="1.3892777"><ele>0.0</ele><time>2026-04-29T23:43:48.958Z</time></trkpt><trkpt lat="40.0610504" lon="1.3893377"><ele>0.0</ele><time>2026-04-29T23:43:49.958Z</time></trkpt><trkpt lat="40.0611277" lon="1.3894007"><ele>0.0</ele><time>2026-04-29T23:43:50.958Z</time></trkpt><trkpt lat="40.0612053" lon="1.3894579"><ele>0.0</ele><time>2026-04-29T23:43:51.958Z</time></trkpt><trkpt lat="40.0612805" lon="1.38952"><ele>0.0</ele><time>2026-04-29T23:43:52.959Z</time></trkpt><trkpt lat="40.0613596" lon="1.3895818"><ele>0.0</ele><time>2026-04-29T23:43:53.958Z</time></trkpt><trkpt lat="40.0614363" lon="1.3896379"><ele>0.0</ele><time>2026-04-29T23:43:54.958Z</time></trkpt><trkpt lat="40.061516" lon="1.3896918"><ele>0.0</ele><time>2026-04-29T23:43:55.958Z</time></trkpt><trkpt lat="40.0615961" lon="1.3897465"><ele>0.0</ele><time>2026-04-29T23:43:56.958Z</time></trkpt><trkpt lat="40.0616833" lon="1.389761"><ele>0.0</ele><time>2026-04-29T23:43:57.958Z</time></trkpt><trkpt lat="40.061763" lon="1.3898005"><ele>0.0</ele><time>2026-04-29T23:43:58.958Z</time></trkpt><trkpt lat="40.0618357" lon="1.3898511"><ele>0.0</ele><time>2026-04-29T23:43:59.958Z</time></trkpt><trkpt lat="40.0619105" lon="1.3899044"><ele>0.0</ele><time>2026-04-29T23:44:00.959Z</time></trkpt><trkpt lat="40.0619893" lon="1.3899597"><ele>0.0</ele><time>2026-04-29T23:44:01.958Z</time></trkpt><trkpt lat="40.0621426" lon="1.3900774"><ele>0.0</ele><time>2026-04-29T23:44:03.958Z</time></trkpt><trkpt lat="40.0622197" lon="1.390137"><ele>0.0</ele><time>2026-04-29T23:44:04.958Z</time></trkpt><trkpt lat="40.0622981" lon="1.3901968"><ele>0.0</ele><time>2026-04-29T23:44:05.958Z</time></trkpt><trkpt lat="40.0623767" lon="1.3902513"><ele>0.0</ele><time>2026-04-29T23:44:06.958Z</time></trkpt><trkpt lat="40.0624551" lon="1.3902879"><ele>0.0</ele><time>2026-04-29T23:44:07.958Z</time></trkpt><trkpt lat="40.0626065" lon="1.3904016"><ele>0.0</ele><time>2026-04-29T23:44:09.959Z</time></trkpt><trkpt lat="40.0626765" lon="1.3904489"><ele>0.0</ele><time>2026-04-29T23:44:12.145Z</time></trkpt><trkpt lat="40.0627933" lon="1.390537"><ele>0.0</ele><time>2026-04-29T23:44:13.152Z</time></trkpt><trkpt lat="40.0628941" lon="1.3906174"><ele>0.0</ele><time>2026-04-29T23:44:14.157Z</time></trkpt><trkpt lat="40.0629865" lon="1.390669"><ele>0.0</ele><time>2026-04-29T23:44:15.163Z</time></trkpt><trkpt lat="40.0630726" lon="1.3907233"><ele>0.0</ele><time>2026-04-29T23:44:16.168Z</time></trkpt><trkpt lat="40.0631428" lon="1.3907914"><ele>0.0</ele><time>2026-04-29T23:44:17.074Z</time></trkpt><trkpt lat="40.0632205" lon="1.3908343"><ele>0.0</ele><time>2026-04-29T23:44:18.079Z</time></trkpt><trkpt lat="40.0633009" lon="1.390874"><ele>0.0</ele><time>2026-04-29T23:44:19.086Z</time></trkpt><trkpt lat="40.0633891" lon="1.390901"><ele>0.0</ele><time>2026-04-29T23:44:20.09Z</time></trkpt><trkpt lat="40.0635032" lon="1.3909653"><ele>0.0</ele><time>2026-04-29T23:44:22.102Z</time></trkpt><trkpt lat="40.0636045" lon="1.3910408"><ele>0.0</ele><time>2026-04-29T23:44:23.108Z</time></trkpt><trkpt lat="40.0637782" lon="1.3911435"><ele>0.0</ele><time>2026-04-29T23:44:25.119Z</time></trkpt><trkpt lat="40.0638593" lon="1.3912049"><ele>0.0</ele><time>2026-04-29T23:44:26.126Z</time></trkpt><trkpt lat="40.0639504" lon="1.3912463"><ele>0.0</ele><time>2026-04-29T23:44:27.131Z</time></trkpt><trkpt lat="40.0640607" lon="1.3913176"><ele>0.0</ele><time>2026-04-29T23:44:29.142Z</time></trkpt><trkpt lat="40.064158" lon="1.3914049"><ele>0.0</ele><time>2026-04-29T23:44:30.149Z</time></trkpt><trkpt lat="40.0642495" lon="1.391449"><ele>0.0</ele><time>2026-04-29T23:44:31.054Z</time></trkpt><trkpt lat="40.0643333" lon="1.3914979"><ele>0.0</ele><time>2026-04-29T23:44:32.059Z</time></trkpt><trkpt lat="40.0644141" lon="1.3915663"><ele>0.0</ele><time>2026-04-29T23:44:33.165Z</time></trkpt><trkpt lat="40.0644912" lon="1.3916208"><ele>0.0</ele><time>2026-04-29T23:44:34.07Z</time></trkpt><trkpt lat="40.0645849" lon="1.391692"><ele>0.0</ele><time>2026-04-29T23:44:36.082Z</time></trkpt><trkpt lat="40.0647433" lon="1.3918093"><ele>0.0</ele><time>2026-04-29T23:44:37.958Z</time></trkpt><trkpt lat="40.0648198" lon="1.3918642"><ele>0.0</ele><time>2026-04-29T23:44:38.958Z</time></trkpt><trkpt lat="40.0649021" lon="1.3919279"><ele>0.0</ele><time>2026-04-29T23:44:39.959Z</time></trkpt><trkpt lat="40.065057" lon="1.392058"><ele>0.0</ele><time>2026-04-29T23:44:41.958Z</time></trkpt><trkpt lat="40.065136" lon="1.3921187"><ele>0.0</ele><time>2026-04-29T23:44:42.959Z</time></trkpt><trkpt lat="40.0652218" lon="1.3921782"><ele>0.0</ele><time>2026-04-29T23:44:43.958Z</time></trkpt><trkpt lat="40.0653894" lon="1.3922822"><ele>0.0</ele><time>2026-04-29T23:44:45.958Z</time></trkpt><trkpt lat="40.0654685" lon="1.3923316"><ele>0.0</ele><time>2026-04-29T23:44:46.959Z</time></trkpt><trkpt lat="40.0655467" lon="1.392388"><ele>0.0</ele><time>2026-04-29T23:44:47.959Z</time></trkpt><trkpt lat="40.0656209" lon="1.3924491"><ele>0.0</ele><time>2026-04-29T23:44:48.958Z</time></trkpt><trkpt lat="40.0656968" lon="1.3925142"><ele>0.0</ele><time>2026-04-29T23:44:49.959Z</time></trkpt><trkpt lat="40.0657717" lon="1.3925728"><ele>0.0</ele><time>2026-04-29T23:44:50.958Z</time></trkpt><trkpt lat="40.0658482" lon="1.3926276"><ele>0.0</ele><time>2026-04-29T23:44:51.959Z</time></trkpt><trkpt lat="40.0659249" lon="1.3926871"><ele>0.0</ele><time>2026-04-29T23:44:52.958Z</time></trkpt><trkpt lat="40.0660004" lon="1.3927423"><ele>0.0</ele><time>2026-04-29T23:44:53.959Z</time></trkpt><trkpt lat="40.0660814" lon="1.3927958"><ele>0.0</ele><time>2026-04-29T23:44:54.959Z</time></trkpt><trkpt lat="40.0661589" lon="1.3928535"><ele>0.0</ele><time>2026-04-29T23:44:55.958Z</time></trkpt><trkpt lat="40.066234" lon="1.3929118"><ele>0.0</ele><time>2026-04-29T23:44:56.958Z</time></trkpt><trkpt lat="40.0663117" lon="1.3929641"><ele>0.0</ele><time>2026-04-29T23:44:57.958Z</time></trkpt><trkpt lat="40.0663856" lon="1.3930201"><ele>0.0</ele><time>2026-04-29T23:44:58.958Z</time></trkpt><trkpt lat="40.0664602" lon="1.3930728"><ele>0.0</ele><time>2026-04-29T23:44:59.958Z</time></trkpt><trkpt lat="40.0665351" lon="1.3931301"><ele>0.0</ele><time>2026-04-29T23:45:00.959Z</time></trkpt><trkpt lat="40.0666173" lon="1.3931389"><ele>0.0</ele><time>2026-04-29T23:45:01.959Z</time></trkpt><trkpt lat="40.0667006" lon="1.3931583"><ele>0.0</ele><time>2026-04-29T23:45:02.958Z</time></trkpt><trkpt lat="40.0667796" lon="1.3932166"><ele>0.0</ele><time>2026-04-29T23:45:03.958Z</time></trkpt><trkpt lat="40.0668566" lon="1.3932738"><ele>0.0</ele><time>2026-04-29T23:45:04.959Z</time></trkpt><trkpt lat="40.0670159" lon="1.3933761"><ele>0.0</ele><time>2026-04-29T23:45:06.958Z</time></trkpt><trkpt lat="40.067095" lon="1.3934294"><ele>0.0</ele><time>2026-04-29T23:45:07.958Z</time></trkpt><trkpt lat="40.0671762" lon="1.3934827"><ele>0.0</ele><time>2026-04-29T23:45:08.958Z</time></trkpt><trkpt lat="40.0672532" lon="1.3935429"><ele>0.0</ele><time>2026-04-29T23:45:09.958Z</time></trkpt><trkpt lat="40.0673315" lon="1.3936031"><ele>0.0</ele><time>2026-04-29T23:45:10.959Z</time></trkpt><trkpt lat="40.0674056" lon="1.393638"><ele>0.0</ele><time>2026-04-29T23:45:11.958Z</time></trkpt><trkpt lat="40.067551" lon="1.3937485"><ele>0.0</ele><time>2026-04-29T23:45:13.958Z</time></trkpt><trkpt lat="40.0676211" lon="1.3938056"><ele>0.0</ele><time>2026-04-29T23:45:14.959Z</time></trkpt><trkpt lat="40.0676977" lon="1.3938315"><ele>0.0</ele><time>2026-04-29T23:45:15.958Z</time></trkpt><trkpt lat="40.06778" lon="1.3938618"><ele>0.0</ele><time>2026-04-29T23:45:16.958Z</time></trkpt><trkpt lat="40.0679349" lon="1.3940339"><ele>0.0</ele><time>2026-04-29T23:45:20.065Z</time></trkpt><trkpt lat="40.0680566" lon="1.394069"><ele>0.0</ele><time>2026-04-29T23:45:21.171Z</time></trkpt><trkpt lat="40.0681575" lon="1.3940995"><ele>0.0</ele><time>2026-04-29T23:45:22.076Z</time></trkpt><trkpt lat="40.068245" lon="1.3941599"><ele>0.0</ele><time>2026-04-29T23:45:23.083Z</time></trkpt><trkpt lat="40.068329" lon="1.3942363"><ele>0.0</ele><time>2026-04-29T23:45:24.088Z</time></trkpt><trkpt lat="40.0684157" lon="1.3943101"><ele>0.0</ele><time>2026-04-29T23:45:25.094Z</time></trkpt><trkpt lat="40.0685073" lon="1.3943687"><ele>0.0</ele><time>2026-04-29T23:45:26.099Z</time></trkpt><trkpt lat="40.0686975" lon="1.3944344"><ele>0.0</ele><time>2026-04-29T23:45:28.112Z</time></trkpt><trkpt lat="40.0687753" lon="1.3945093"><ele>0.0</ele><time>2026-04-29T23:45:29.116Z</time></trkpt><trkpt lat="40.0688404" lon="1.3945989"><ele>0.0</ele><time>2026-04-29T23:45:30.122Z</time></trkpt><trkpt lat="40.0689139" lon="1.3946696"><ele>0.0</ele><time>2026-04-29T23:45:31.129Z</time></trkpt><trkpt lat="40.0689902" lon="1.3947389"><ele>0.0</ele><time>2026-04-29T23:45:32.133Z</time></trkpt><trkpt lat="40.0690904" lon="1.3948095"><ele>0.0</ele><time>2026-04-29T23:45:34.145Z</time></trkpt><trkpt lat="40.0691923" lon="1.3948862"><ele>0.0</ele><time>2026-04-29T23:45:35.151Z</time></trkpt><trkpt lat="40.0692937" lon="1.3948673"><ele>0.0</ele><time>2026-04-29T23:45:36.157Z</time></trkpt><trkpt lat="40.0693749" lon="1.394903"><ele>0.0</ele><time>2026-04-29T23:45:37.061Z</time></trkpt><trkpt lat="40.0694653" lon="1.3949413"><ele>0.0</ele><time>2026-04-29T23:45:38.067Z</time></trkpt><trkpt lat="40.0695496" lon="1.395012"><ele>0.0</ele><time>2026-04-29T23:45:39.074Z</time></trkpt><trkpt lat="40.0696255" lon="1.395091"><ele>0.0</ele><time>2026-04-29T23:45:40.08Z</time></trkpt><trkpt lat="40.0697035" lon="1.3951497"><ele>0.0</ele><time>2026-04-29T23:45:41.084Z</time></trkpt><trkpt lat="40.0698138" lon="1.395206"><ele>0.0</ele><time>2026-04-29T23:45:43.097Z</time></trkpt><trkpt lat="40.0699075" lon="1.3952939"><ele>0.0</ele><time>2026-04-29T23:45:44.102Z</time></trkpt><trkpt lat="40.0699964" lon="1.3953449"><ele>0.0</ele><time>2026-04-29T23:45:45.107Z</time></trkpt><trkpt lat="40.0700768" lon="1.3954113"><ele>0.0</ele><time>2026-04-29T23:45:46.113Z</time></trkpt><trkpt lat="40.0701424" lon="1.3954777"><ele>0.0</ele><time>2026-04-29T23:45:47.119Z</time></trkpt><trkpt lat="40.0702884" lon="1.3956162"><ele>0.0</ele><time>2026-04-29T23:45:49.13Z</time></trkpt><trkpt lat="40.0703748" lon="1.3956844"><ele>0.0</ele><time>2026-04-29T23:45:50.136Z</time></trkpt><trkpt lat="40.0704779" lon="1.3957182"><ele>0.0</ele><time>2026-04-29T23:45:52.148Z</time></trkpt><trkpt lat="40.0705668" lon="1.3958086"><ele>0.0</ele><time>2026-04-29T23:45:53.154Z</time></trkpt><trkpt lat="40.0706671" lon="1.3958323"><ele>0.0</ele><time>2026-04-29T23:45:54.16Z</time></trkpt><trkpt lat="40.0707499" lon="1.3958924"><ele>0.0</ele><time>2026-04-29T23:45:55.165Z</time></trkpt><trkpt lat="40.0708291" lon="1.3959404"><ele>0.0</ele><time>2026-04-29T23:45:56.069Z</time></trkpt><trkpt lat="40.0709221" lon="1.3959808"><ele>0.0</ele><time>2026-04-29T23:45:57.177Z</time></trkpt><trkpt lat="40.0710077" lon="1.3960152"><ele>0.0</ele><time>2026-04-29T23:45:58.081Z</time></trkpt><trkpt lat="40.0710938" lon="1.3960646"><ele>0.0</ele><time>2026-04-29T23:45:59.087Z</time></trkpt><trkpt lat="40.0711739" lon="1.3961393"><ele>0.0</ele><time>2026-04-29T23:46:00.092Z</time></trkpt><trkpt lat="40.0712576" lon="1.3962025"><ele>0.0</ele><time>2026-04-29T23:46:01.099Z</time></trkpt><trkpt lat="40.0713665" lon="1.3962319"><ele>0.0</ele><time>2026-04-29T23:46:03.11Z</time></trkpt><trkpt lat="40.0714658" lon="1.3963183"><ele>0.0</ele><time>2026-04-29T23:46:04.115Z</time></trkpt><trkpt lat="40.0715544" lon="1.3963739"><ele>0.0</ele><time>2026-04-29T23:46:05.122Z</time></trkpt><trkpt lat="40.0716414" lon="1.3964287"><ele>0.0</ele><time>2026-04-29T23:46:06.128Z</time></trkpt><trkpt lat="40.071722" lon="1.3964913"><ele>0.0</ele><time>2026-04-29T23:46:07.133Z</time></trkpt><trkpt lat="40.0718048" lon="1.3965576"><ele>0.0</ele><time>2026-04-29T23:46:08.139Z</time></trkpt><trkpt lat="40.0720196" lon="1.396699"><ele>0.0</ele><time>2026-04-29T23:46:10.958Z</time></trkpt><trkpt lat="40.0720956" lon="1.3967608"><ele>0.0</ele><time>2026-04-29T23:46:11.958Z</time></trkpt><trkpt lat="40.072172" lon="1.3968151"><ele>0.0</ele><time>2026-04-29T23:46:12.959Z</time></trkpt><trkpt lat="40.0722456" lon="1.3968667"><ele>0.0</ele><time>2026-04-29T23:46:13.959Z</time></trkpt><trkpt lat="40.0723264" lon="1.3969034"><ele>0.0</ele><time>2026-04-29T23:46:14.958Z</time></trkpt><trkpt lat="40.0724064" lon="1.3969428"><ele>0.0</ele><time>2026-04-29T23:46:15.958Z</time></trkpt><trkpt lat="40.0725562" lon="1.3970484"><ele>0.0</ele><time>2026-04-29T23:46:17.959Z</time></trkpt><trkpt lat="40.0726347" lon="1.3971069"><ele>0.0</ele><time>2026-04-29T23:46:18.959Z</time></trkpt><trkpt lat="40.0727189" lon="1.3971683"><ele>0.0</ele><time>2026-04-29T23:46:19.958Z</time></trkpt><trkpt lat="40.0728029" lon="1.3972201"><ele>0.0</ele><time>2026-04-29T23:46:20.959Z</time></trkpt><trkpt lat="40.0728841" lon="1.39727"><ele>0.0</ele><time>2026-04-29T23:46:21.958Z</time></trkpt><trkpt lat="40.0729638" lon="1.3973307"><ele>0.0</ele><time>2026-04-29T23:46:22.958Z</time></trkpt><trkpt lat="40.0730408" lon="1.3973959"><ele>0.0</ele><time>2026-04-29T23:46:23.959Z</time></trkpt><trkpt lat="40.0731156" lon="1.3974518"><ele>0.0</ele><time>2026-04-29T23:46:24.958Z</time></trkpt><trkpt lat="40.0731861" lon="1.3975025"><ele>0.0</ele><time>2026-04-29T23:46:25.959Z</time></trkpt><trkpt lat="40.0732621" lon="1.3975465"><ele>0.0</ele><time>2026-04-29T23:46:26.959Z</time></trkpt><trkpt lat="40.0733355" lon="1.3975926"><ele>0.0</ele><time>2026-04-29T23:46:27.959Z</time></trkpt><trkpt lat="40.0734101" lon="1.397641"><ele>0.0</ele><time>2026-04-29T23:46:28.959Z</time></trkpt><trkpt lat="40.0735679" lon="1.3977413"><ele>0.0</ele><time>2026-04-29T23:46:30.959Z</time></trkpt><trkpt lat="40.0736453" lon="1.397796"><ele>0.0</ele><time>2026-04-29T23:46:31.959Z</time></trkpt><trkpt lat="40.0737218" lon="1.3978439"><ele>0.0</ele><time>2026-04-29T23:46:32.958Z</time></trkpt><trkpt lat="40.073797" lon="1.3978911"><ele>0.0</ele><time>2026-04-29T23:46:33.958Z</time></trkpt><trkpt lat="40.0738705" lon="1.3979491"><ele>0.0</ele><time>2026-04-29T23:46:34.958Z</time></trkpt><trkpt lat="40.0739426" lon="1.3979809"><ele>0.0</ele><time>2026-04-29T23:46:35.959Z</time></trkpt><trkpt lat="40.0740227" lon="1.3980388"><ele>0.0</ele><time>2026-04-29T23:46:36.958Z</time></trkpt><trkpt lat="40.0740958" lon="1.3980994"><ele>0.0</ele><time>2026-04-29T23:46:37.959Z</time></trkpt><trkpt lat="40.0741734" lon="1.3981595"><ele>0.0</ele><time>2026-04-29T23:46:38.959Z</time></trkpt><trkpt lat="40.0742475" lon="1.3982127"><ele>0.0</ele><time>2026-04-29T23:46:39.958Z</time></trkpt><trkpt lat="40.0743207" lon="1.3982589"><ele>0.0</ele><time>2026-04-29T23:46:40.958Z</time></trkpt><trkpt lat="40.074404" lon="1.3982786"><ele>0.0</ele><time>2026-04-29T23:46:41.958Z</time></trkpt><trkpt lat="40.0744817" lon="1.3983255"><ele>0.0</ele><time>2026-04-29T23:46:42.959Z</time></trkpt><trkpt lat="40.0745654" lon="1.3983769"><ele>0.0</ele><time>2026-04-29T23:46:43.958Z</time></trkpt><trkpt lat="40.0746475" lon="1.3984326"><ele>0.0</ele><time>2026-04-29T23:46:44.958Z</time></trkpt><trkpt lat="40.0747279" lon="1.3984892"><ele>0.0</ele><time>2026-04-29T23:46:45.958Z</time></trkpt><trkpt lat="40.0749024" lon="1.3986885"><ele>0.0</ele><time>2026-04-29T23:46:50.071Z</time></trkpt><trkpt lat="40.0752664" lon="1.3988709"><ele>0.0</ele><time>2026-04-29T23:46:52.958Z</time></trkpt><trkpt lat="40.0753391" lon="1.3989246"><ele>0.0</ele><time>2026-04-29T23:46:53.959Z</time></trkpt><trkpt lat="40.0754107" lon="1.3989767"><ele>0.0</ele><time>2026-04-29T23:46:54.958Z</time></trkpt><trkpt lat="40.0754894" lon="1.3990324"><ele>0.0</ele><time>2026-04-29T23:46:55.958Z</time></trkpt><trkpt lat="40.0755666" lon="1.3990889"><ele>0.0</ele><time>2026-04-29T23:46:56.959Z</time></trkpt><trkpt lat="40.0756477" lon="1.3991479"><ele>0.0</ele><time>2026-04-29T23:46:57.959Z</time></trkpt><trkpt lat="40.0757255" lon="1.3992074"><ele>0.0</ele><time>2026-04-29T23:46:58.959Z</time></trkpt><trkpt lat="40.0758007" lon="1.3992593"><ele>0.0</ele><time>2026-04-29T23:46:59.959Z</time></trkpt><trkpt lat="40.0758753" lon="1.3993108"><ele>0.0</ele><time>2026-04-29T23:47:00.958Z</time></trkpt><trkpt lat="40.0759501" lon="1.3993686"><ele>0.0</ele><time>2026-04-29T23:47:01.959Z</time></trkpt><trkpt lat="40.0760265" lon="1.3994317"><ele>0.0</ele><time>2026-04-29T23:47:02.958Z</time></trkpt><trkpt lat="40.076106" lon="1.3994955"><ele>0.0</ele><time>2026-04-29T23:47:03.959Z</time></trkpt><trkpt lat="40.0761787" lon="1.3995517"><ele>0.0</ele><time>2026-04-29T23:47:04.958Z</time></trkpt><trkpt lat="40.0762575" lon="1.3996075"><ele>0.0</ele><time>2026-04-29T23:47:05.959Z</time></trkpt><trkpt lat="40.0763333" lon="1.3996626"><ele>0.0</ele><time>2026-04-29T23:47:06.959Z</time></trkpt><trkpt lat="40.076407" lon="1.3997175"><ele>0.0</ele><time>2026-04-29T23:47:07.958Z</time></trkpt><trkpt lat="40.0764817" lon="1.3997727"><ele>0.0</ele><time>2026-04-29T23:47:08.959Z</time></trkpt><trkpt lat="40.0765537" lon="1.3998167"><ele>0.0</ele><time>2026-04-29T23:47:09.959Z</time></trkpt><trkpt lat="40.0766284" lon="1.3998602"><ele>0.0</ele><time>2026-04-29T23:47:10.958Z</time></trkpt><trkpt lat="40.0767688" lon="1.3999681"><ele>0.0</ele><time>2026-04-29T23:47:12.958Z</time></trkpt><trkpt lat="40.0768432" lon="1.4000324"><ele>0.0</ele><time>2026-04-29T23:47:13.959Z</time></trkpt><trkpt lat="40.0769187" lon="1.4000962"><ele>0.0</ele><time>2026-04-29T23:47:14.958Z</time></trkpt><trkpt lat="40.0769909" lon="1.400156"><ele>0.0</ele><time>2026-04-29T23:47:15.958Z</time></trkpt><trkpt lat="40.077068" lon="1.4002069"><ele>0.0</ele><time>2026-04-29T23:47:16.958Z</time></trkpt><trkpt lat="40.0771413" lon="1.4002655"><ele>0.0</ele><time>2026-04-29T23:47:17.957Z</time></trkpt><trkpt lat="40.0772102" lon="1.4003226"><ele>0.0</ele><time>2026-04-29T23:47:18.957Z</time></trkpt><trkpt lat="40.0773735" lon="1.4004237"><ele>0.0</ele><time>2026-04-29T23:47:22.168Z</time></trkpt><trkpt lat="40.077475" lon="1.400527"><ele>0.0</ele><time>2026-04-29T23:47:23.072Z</time></trkpt><trkpt lat="40.07756" lon="1.4005965"><ele>0.0</ele><time>2026-04-29T23:47:24.078Z</time></trkpt><trkpt lat="40.0776511" lon="1.4006602"><ele>0.0</ele><time>2026-04-29T23:47:25.085Z</time></trkpt><trkpt lat="40.0777456" lon="1.4007215"><ele>0.0</ele><time>2026-04-29T23:47:26.091Z</time></trkpt><trkpt lat="40.0778279" lon="1.4007855"><ele>0.0</ele><time>2026-04-29T23:47:27.095Z</time></trkpt><trkpt lat="40.0779014" lon="1.4008432"><ele>0.0</ele><time>2026-04-29T23:47:28.101Z</time></trkpt><trkpt lat="40.0779838" lon="1.40089"><ele>0.0</ele><time>2026-04-29T23:47:29.107Z</time></trkpt><trkpt lat="40.0780721" lon="1.4009441"><ele>0.0</ele><time>2026-04-29T23:47:30.112Z</time></trkpt><trkpt lat="40.0781684" lon="1.4009946"><ele>0.0</ele><time>2026-04-29T23:47:31.119Z</time></trkpt><trkpt lat="40.0782596" lon="1.4010562"><ele>0.0</ele><time>2026-04-29T23:47:32.124Z</time></trkpt><trkpt lat="40.0784312" lon="1.4011832"><ele>0.0</ele><time>2026-04-29T23:47:34.136Z</time></trkpt><trkpt lat="40.0785198" lon="1.4012382"><ele>0.0</ele><time>2026-04-29T23:47:35.141Z</time></trkpt><trkpt lat="40.0786252" lon="1.4012934"><ele>0.0</ele><time>2026-04-29T23:47:37.152Z</time></trkpt><trkpt lat="40.0787297" lon="1.4013689"><ele>0.0</ele><time>2026-04-29T23:47:38.158Z</time></trkpt><trkpt lat="40.0788217" lon="1.4014048"><ele>0.0</ele><time>2026-04-29T23:47:39.064Z</time></trkpt><trkpt lat="40.0789109" lon="1.4013925"><ele>0.0</ele><time>2026-04-29T23:47:40.069Z</time></trkpt><trkpt lat="40.0790035" lon="1.401431"><ele>0.0</ele><time>2026-04-29T23:47:42.181Z</time></trkpt><trkpt lat="40.0791009" lon="1.4014892"><ele>0.0</ele><time>2026-04-29T23:47:43.087Z</time></trkpt><trkpt lat="40.0792017" lon="1.4015319"><ele>0.0</ele><time>2026-04-29T23:47:44.092Z</time></trkpt><trkpt lat="40.079289" lon="1.4015794"><ele>0.0</ele><time>2026-04-29T23:47:45.099Z</time></trkpt><trkpt lat="40.0793805" lon="1.4016704"><ele>0.0</ele><time>2026-04-29T23:47:47.109Z</time></trkpt><trkpt lat="40.0794725" lon="1.4017633"><ele>0.0</ele><time>2026-04-29T23:47:48.115Z</time></trkpt><trkpt lat="40.0795584" lon="1.4018177"><ele>0.0</ele><time>2026-04-29T23:47:49.121Z</time></trkpt><trkpt lat="40.0796449" lon="1.4018663"><ele>0.0</ele><time>2026-04-29T23:47:50.127Z</time></trkpt><trkpt lat="40.079733" lon="1.4019254"><ele>0.0</ele><time>2026-04-29T23:47:51.132Z</time></trkpt><trkpt lat="40.0798184" lon="1.4019947"><ele>0.0</ele><time>2026-04-29T23:47:52.139Z</time></trkpt><trkpt lat="40.0800717" lon="1.4021813"><ele>0.0</ele><time>2026-04-29T23:47:55.156Z</time></trkpt><trkpt lat="40.0801854" lon="1.4022591"><ele>0.0</ele><time>2026-04-29T23:47:57.166Z</time></trkpt><trkpt lat="40.0802724" lon="1.4023475"><ele>0.0</ele><time>2026-04-29T23:47:58.072Z</time></trkpt><trkpt lat="40.0803655" lon="1.4023995"><ele>0.0</ele><time>2026-04-29T23:47:59.077Z</time></trkpt><trkpt lat="40.0804541" lon="1.4024495"><ele>0.0</ele><time>2026-04-29T23:48:00.084Z</time></trkpt><trkpt lat="40.0805345" lon="1.4025048"><ele>0.0</ele><time>2026-04-29T23:48:01.089Z</time></trkpt><trkpt lat="40.0806127" lon="1.4025723"><ele>0.0</ele><time>2026-04-29T23:48:02.094Z</time></trkpt><trkpt lat="40.0806852" lon="1.40265"><ele>0.0</ele><time>2026-04-29T23:48:03.101Z</time></trkpt><trkpt lat="40.0807612" lon="1.4027098"><ele>0.0</ele><time>2026-04-29T23:48:04.106Z</time></trkpt><trkpt lat="40.0808463" lon="1.402751"><ele>0.0</ele><time>2026-04-29T23:48:05.111Z</time></trkpt><trkpt lat="40.080929" lon="1.402818"><ele>0.0</ele><time>2026-04-29T23:48:06.118Z</time></trkpt><trkpt lat="40.0810023" lon="1.4028884"><ele>0.0</ele><time>2026-04-29T23:48:07.124Z</time></trkpt><trkpt lat="40.0811595" lon="1.4029694"><ele>0.0</ele><time>2026-04-29T23:48:10.141Z</time></trkpt><trkpt lat="40.0812703" lon="1.403015"><ele>0.0</ele><time>2026-04-29T23:48:11.147Z</time></trkpt><trkpt lat="40.0813635" lon="1.4030682"><ele>0.0</ele><time>2026-04-29T23:48:12.152Z</time></trkpt><trkpt lat="40.0814563" lon="1.4031039"><ele>0.0</ele><time>2026-04-29T23:48:13.157Z</time></trkpt><trkpt lat="40.0815469" lon="1.4031184"><ele>0.0</ele><time>2026-04-29T23:48:14.164Z</time></trkpt><trkpt lat="40.0817364" lon="1.4032876"><ele>0.0</ele><time>2026-04-29T23:48:17.079Z</time></trkpt><trkpt lat="40.0818269" lon="1.4033431"><ele>0.0</ele><time>2026-04-29T23:48:18.085Z</time></trkpt><trkpt lat="40.0819165" lon="1.4034032"><ele>0.0</ele><time>2026-04-29T23:48:19.092Z</time></trkpt><trkpt lat="40.0820073" lon="1.4034572"><ele>0.0</ele><time>2026-04-29T23:48:20.097Z</time></trkpt><trkpt lat="40.0820988" lon="1.4034946"><ele>0.0</ele><time>2026-04-29T23:48:21.102Z</time></trkpt><trkpt lat="40.0821866" lon="1.4035363"><ele>0.0</ele><time>2026-04-29T23:48:22.108Z</time></trkpt><trkpt lat="40.0822806" lon="1.4036243"><ele>0.0</ele><time>2026-04-29T23:48:24.119Z</time></trkpt><trkpt lat="40.0823783" lon="1.4037149"><ele>0.0</ele><time>2026-04-29T23:48:25.125Z</time></trkpt><trkpt lat="40.0824595" lon="1.4037718"><ele>0.0</ele><time>2026-04-29T23:48:26.131Z</time></trkpt><trkpt lat="40.0825352" lon="1.403839"><ele>0.0</ele><time>2026-04-29T23:48:27.138Z</time></trkpt><trkpt lat="40.0826111" lon="1.4039156"><ele>0.0</ele><time>2026-04-29T23:48:28.142Z</time></trkpt><trkpt lat="40.0826985" lon="1.4039668"><ele>0.0</ele><time>2026-04-29T23:48:29.148Z</time></trkpt><trkpt lat="40.0828608" lon="1.4040718"><ele>0.0</ele><time>2026-04-29T23:48:32.166Z</time></trkpt><trkpt lat="40.0829585" lon="1.4041091"><ele>0.0</ele><time>2026-04-29T23:48:33.071Z</time></trkpt><trkpt lat="40.0830481" lon="1.4041635"><ele>0.0</ele><time>2026-04-29T23:48:34.077Z</time></trkpt><trkpt lat="40.0831337" lon="1.4042273"><ele>0.0</ele><time>2026-04-29T23:48:35.083Z</time></trkpt><trkpt lat="40.0833101" lon="1.4043527"><ele>0.0</ele><time>2026-04-29T23:48:37.093Z</time></trkpt><trkpt lat="40.0834548" lon="1.4044667"><ele>0.0</ele><time>2026-04-29T23:48:38.958Z</time></trkpt><trkpt lat="40.0835361" lon="1.4045367"><ele>0.0</ele><time>2026-04-29T23:48:39.957Z</time></trkpt><trkpt lat="40.0836134" lon="1.4046053"><ele>0.0</ele><time>2026-04-29T23:48:40.958Z</time></trkpt><trkpt lat="40.0836933" lon="1.4046475"><ele>0.0</ele><time>2026-04-29T23:48:41.958Z</time></trkpt><trkpt lat="40.0837732" lon="1.4047015"><ele>0.0</ele><time>2026-04-29T23:48:42.957Z</time></trkpt><trkpt lat="40.0838488" lon="1.4047612"><ele>0.0</ele><time>2026-04-29T23:48:43.958Z</time></trkpt><trkpt lat="40.0839228" lon="1.4048153"><ele>0.0</ele><time>2026-04-29T23:48:44.958Z</time></trkpt><trkpt lat="40.083999" lon="1.4048723"><ele>0.0</ele><time>2026-04-29T23:48:45.958Z</time></trkpt><trkpt lat="40.0840754" lon="1.4049304"><ele>0.0</ele><time>2026-04-29T23:48:46.957Z</time></trkpt><trkpt lat="40.0841488" lon="1.4049872"><ele>0.0</ele><time>2026-04-29T23:48:47.957Z</time></trkpt><trkpt lat="40.0842227" lon="1.4050327"><ele>0.0</ele><time>2026-04-29T23:48:48.958Z</time></trkpt><trkpt lat="40.0843018" lon="1.4050887"><ele>0.0</ele><time>2026-04-29T23:48:49.958Z</time></trkpt><trkpt lat="40.0843811" lon="1.4051468"><ele>0.0</ele><time>2026-04-29T23:48:50.958Z</time></trkpt><trkpt lat="40.0844641" lon="1.4052031"><ele>0.0</ele><time>2026-04-29T23:48:51.958Z</time></trkpt><trkpt lat="40.0845391" lon="1.4052842"><ele>0.0</ele><time>2026-04-29T23:48:52.957Z</time></trkpt><trkpt lat="40.0846157" lon="1.4053372"><ele>0.0</ele><time>2026-04-29T23:48:53.957Z</time></trkpt><trkpt lat="40.0846925" lon="1.4054072"><ele>0.0</ele><time>2026-04-29T23:48:54.958Z</time></trkpt><trkpt lat="40.0847659" lon="1.4054669"><ele>0.0</ele><time>2026-04-29T23:48:55.957Z</time></trkpt><trkpt lat="40.0848402" lon="1.4055142"><ele>0.0</ele><time>2026-04-29T23:48:56.957Z</time></trkpt><trkpt lat="40.0850871" lon="1.4056833"><ele>0.0</ele><time>2026-04-29T23:48:59.957Z</time></trkpt><trkpt lat="40.0851623" lon="1.4057362"><ele>0.0</ele><time>2026-04-29T23:49:00.957Z</time></trkpt><trkpt lat="40.0852383" lon="1.4057969"><ele>0.0</ele><time>2026-04-29T23:49:01.957Z</time></trkpt><trkpt lat="40.0853152" lon="1.405849"><ele>0.0</ele><time>2026-04-29T23:49:02.957Z</time></trkpt><trkpt lat="40.0853974" lon="1.4059046"><ele>0.0</ele><time>2026-04-29T23:49:03.958Z</time></trkpt><trkpt lat="40.0854736" lon="1.4059658"><ele>0.0</ele><time>2026-04-29T23:49:04.957Z</time></trkpt><trkpt lat="40.0855601" lon="1.4060263"><ele>0.0</ele><time>2026-04-29T23:49:05.958Z</time></trkpt><trkpt lat="40.0856386" lon="1.4060789"><ele>0.0</ele><time>2026-04-29T23:49:06.957Z</time></trkpt><trkpt lat="40.0857136" lon="1.4061331"><ele>0.0</ele><time>2026-04-29T23:49:07.958Z</time></trkpt><trkpt lat="40.0857918" lon="1.4061865"><ele>0.0</ele><time>2026-04-29T23:49:08.958Z</time></trkpt><trkpt lat="40.0858716" lon="1.4062399"><ele>0.0</ele><time>2026-04-29T23:49:09.957Z</time></trkpt><trkpt lat="40.0859428" lon="1.406286"><ele>0.0</ele><time>2026-04-29T23:49:10.957Z</time></trkpt><trkpt lat="40.0860144" lon="1.4063251"><ele>0.0</ele><time>2026-04-29T23:49:11.957Z</time></trkpt><trkpt lat="40.0860888" lon="1.4063258"><ele>0.0</ele><time>2026-04-29T23:49:12.958Z</time></trkpt><trkpt lat="40.0861607" lon="1.4063384"><ele>0.0</ele><time>2026-04-29T23:49:13.958Z</time></trkpt><trkpt lat="40.0862411" lon="1.4063584"><ele>0.0</ele><time>2026-04-29T23:49:14.958Z</time></trkpt><trkpt lat="40.0863183" lon="1.4064186"><ele>0.0</ele><time>2026-04-29T23:49:15.957Z</time></trkpt><trkpt lat="40.0863964" lon="1.4064568"><ele>0.0</ele><time>2026-04-29T23:49:16.958Z</time></trkpt><trkpt lat="40.086476" lon="1.4065199"><ele>0.0</ele><time>2026-04-29T23:49:17.958Z</time></trkpt><trkpt lat="40.0865548" lon="1.4065727"><ele>0.0</ele><time>2026-04-29T23:49:18.957Z</time></trkpt><trkpt lat="40.086716" lon="1.4066845"><ele>0.0</ele><time>2026-04-29T23:49:20.957Z</time></trkpt><trkpt lat="40.0867926" lon="1.4067258"><ele>0.0</ele><time>2026-04-29T23:49:21.957Z</time></trkpt><trkpt lat="40.0868688" lon="1.4067791"><ele>0.0</ele><time>2026-04-29T23:49:22.958Z</time></trkpt><trkpt lat="40.0869437" lon="1.4068187"><ele>0.0</ele><time>2026-04-29T23:49:23.957Z</time></trkpt><trkpt lat="40.087022" lon="1.4068724"><ele>0.0</ele><time>2026-04-29T23:49:24.957Z</time></trkpt><trkpt lat="40.0871006" lon="1.4069278"><ele>0.0</ele><time>2026-04-29T23:49:25.958Z</time></trkpt><trkpt lat="40.0871759" lon="1.4069859"><ele>0.0</ele><time>2026-04-29T23:49:26.958Z</time></trkpt><trkpt lat="40.0872545" lon="1.4070437"><ele>0.0</ele><time>2026-04-29T23:49:27.957Z</time></trkpt><trkpt lat="40.0873407" lon="1.4070866"><ele>0.0</ele><time>2026-04-29T23:49:30.131Z</time></trkpt><trkpt lat="40.0875043" lon="1.4072738"><ele>0.0</ele><time>2026-04-29T23:49:32.143Z</time></trkpt><trkpt lat="40.0875892" lon="1.4073491"><ele>0.0</ele><time>2026-04-29T23:49:33.149Z</time></trkpt><trkpt lat="40.0877832" lon="1.4074664"><ele>0.0</ele><time>2026-04-29T23:49:34.957Z</time></trkpt><trkpt lat="40.0878608" lon="1.4075438"><ele>0.0</ele><time>2026-04-29T23:49:35.958Z</time></trkpt><trkpt lat="40.0879382" lon="1.4075984"><ele>0.0</ele><time>2026-04-29T23:49:36.957Z</time></trkpt><trkpt lat="40.0880168" lon="1.4076487"><ele>0.0</ele><time>2026-04-29T23:49:37.957Z</time></trkpt><trkpt lat="40.0880924" lon="1.407706"><ele>0.0</ele><time>2026-04-29T23:49:38.958Z</time></trkpt><trkpt lat="40.0881674" lon="1.4077609"><ele>0.0</ele><time>2026-04-29T23:49:39.957Z</time></trkpt><trkpt lat="40.0883337" lon="1.4078842"><ele>0.0</ele><time>2026-04-29T23:49:41.958Z</time></trkpt><trkpt lat="40.0884091" lon="1.4079486"><ele>0.0</ele><time>2026-04-29T23:49:42.958Z</time></trkpt><trkpt lat="40.0884839" lon="1.4080071"><ele>0.0</ele><time>2026-04-29T23:49:43.957Z</time></trkpt><trkpt lat="40.0885588" lon="1.4080623"><ele>0.0</ele><time>2026-04-29T23:49:44.957Z</time></trkpt><trkpt lat="40.088638" lon="1.4081103"><ele>0.0</ele><time>2026-04-29T23:49:45.958Z</time></trkpt><trkpt lat="40.0887127" lon="1.4081603"><ele>0.0</ele><time>2026-04-29T23:49:46.958Z</time></trkpt><trkpt lat="40.0887829" lon="1.4082072"><ele>0.0</ele><time>2026-04-29T23:49:47.957Z</time></trkpt><trkpt lat="40.088857" lon="1.4082303"><ele>0.0</ele><time>2026-04-29T23:49:48.957Z</time></trkpt><trkpt lat="40.0889405" lon="1.4082544"><ele>0.0</ele><time>2026-04-29T23:49:49.958Z</time></trkpt><trkpt lat="40.0890308" lon="1.4082928"><ele>0.0</ele><time>2026-04-29T23:49:50.958Z</time></trkpt><trkpt lat="40.0891183" lon="1.4083239"><ele>0.0</ele><time>2026-04-29T23:49:51.958Z</time></trkpt><trkpt lat="40.0892021" lon="1.4083789"><ele>0.0</ele><time>2026-04-29T23:49:52.957Z</time></trkpt><trkpt lat="40.0892827" lon="1.4084456"><ele>0.0</ele><time>2026-04-29T23:49:53.958Z</time></trkpt><trkpt lat="40.0893605" lon="1.4085129"><ele>0.0</ele><time>2026-04-29T23:49:54.958Z</time></trkpt><trkpt lat="40.0894472" lon="1.4085744"><ele>0.0</ele><time>2026-04-29T23:49:55.957Z</time></trkpt><trkpt lat="40.0895196" lon="1.4086204"><ele>0.0</ele><time>2026-04-29T23:49:56.958Z</time></trkpt><trkpt lat="40.0895943" lon="1.4086695"><ele>0.0</ele><time>2026-04-29T23:49:57.958Z</time></trkpt><trkpt lat="40.0896675" lon="1.4087318"><ele>0.0</ele><time>2026-04-29T23:49:58.957Z</time></trkpt><trkpt lat="40.0897367" lon="1.4087902"><ele>0.0</ele><time>2026-04-29T23:49:59.957Z</time></trkpt><trkpt lat="40.0898076" lon="1.4088452"><ele>0.0</ele><time>2026-04-29T23:50:00.958Z</time></trkpt><trkpt lat="40.0898782" lon="1.4089015"><ele>0.0</ele><time>2026-04-29T23:50:01.958Z</time></trkpt><trkpt lat="40.0901122" lon="1.4091045"><ele>0.0</ele><time>2026-04-29T23:50:04.957Z</time></trkpt><trkpt lat="40.0901885" lon="1.409171"><ele>0.0</ele><time>2026-04-29T23:50:05.958Z</time></trkpt><trkpt lat="40.0902681" lon="1.4092372"><ele>0.0</ele><time>2026-04-29T23:50:06.957Z</time></trkpt><trkpt lat="40.0903435" lon="1.4092936"><ele>0.0</ele><time>2026-04-29T23:50:07.958Z</time></trkpt><trkpt lat="40.0904121" lon="1.409374"><ele>0.0</ele><time>2026-04-29T23:50:08.957Z</time></trkpt><trkpt lat="40.0904857" lon="1.4094285"><ele>0.0</ele><time>2026-04-29T23:50:09.958Z</time></trkpt><trkpt lat="40.0905562" lon="1.4094808"><ele>0.0</ele><time>2026-04-29T23:50:10.958Z</time></trkpt><trkpt lat="40.0906277" lon="1.4095314"><ele>0.0</ele><time>2026-04-29T23:50:11.958Z</time></trkpt><trkpt lat="40.090702" lon="1.4095797"><ele>0.0</ele><time>2026-04-29T23:50:12.958Z</time></trkpt><trkpt lat="40.0907785" lon="1.4096324"><ele>0.0</ele><time>2026-04-29T23:50:13.957Z</time></trkpt><trkpt lat="40.0908593" lon="1.4096918"><ele>0.0</ele><time>2026-04-29T23:50:14.958Z</time></trkpt><trkpt lat="40.0909439" lon="1.4097137"><ele>0.0</ele><time>2026-04-29T23:50:15.957Z</time></trkpt><trkpt lat="40.0910262" lon="1.4097609"><ele>0.0</ele><time>2026-04-29T23:50:16.958Z</time></trkpt><trkpt lat="40.0911053" lon="1.4098143"><ele>0.0</ele><time>2026-04-29T23:50:17.957Z</time></trkpt><trkpt lat="40.0911805" lon="1.4098618"><ele>0.0</ele><time>2026-04-29T23:50:18.958Z</time></trkpt><trkpt lat="40.0912598" lon="1.4099102"><ele>0.0</ele><time>2026-04-29T23:50:19.958Z</time></trkpt><trkpt lat="40.0913428" lon="1.4099554"><ele>0.0</ele><time>2026-04-29T23:50:20.957Z</time></trkpt><trkpt lat="40.0914204" lon="1.4100006"><ele>0.0</ele><time>2026-04-29T23:50:21.957Z</time></trkpt><trkpt lat="40.0915084" lon="1.4100177"><ele>0.0</ele><time>2026-04-29T23:50:22.957Z</time></trkpt><trkpt lat="40.0915925" lon="1.4100234"><ele>0.0</ele><time>2026-04-29T23:50:23.957Z</time></trkpt><trkpt lat="40.0917586" lon="1.4100951"><ele>0.0</ele><time>2026-04-29T23:50:25.957Z</time></trkpt><trkpt lat="40.091841" lon="1.4101549"><ele>0.0</ele><time>2026-04-29T23:50:26.958Z</time></trkpt><trkpt lat="40.0919186" lon="1.4102124"><ele>0.0</ele><time>2026-04-29T23:50:27.958Z</time></trkpt><trkpt lat="40.0919937" lon="1.410269"><ele>0.0</ele><time>2026-04-29T23:50:28.957Z</time></trkpt><trkpt lat="40.0920668" lon="1.4103282"><ele>0.0</ele><time>2026-04-29T23:50:29.958Z</time></trkpt><trkpt lat="40.092146" lon="1.4103801"><ele>0.0</ele><time>2026-04-29T23:50:30.957Z</time></trkpt><trkpt lat="40.0922233" lon="1.4104376"><ele>0.0</ele><time>2026-04-29T23:50:31.958Z</time></trkpt><trkpt lat="40.0923045" lon="1.4104967"><ele>0.0</ele><time>2026-04-29T23:50:32.958Z</time></trkpt><trkpt lat="40.0923935" lon="1.4105316"><ele>0.0</ele><time>2026-04-29T23:50:33.958Z</time></trkpt><trkpt lat="40.0925531" lon="1.4106185"><ele>0.0</ele><time>2026-04-29T23:50:35.958Z</time></trkpt><trkpt lat="40.0926303" lon="1.4106846"><ele>0.0</ele><time>2026-04-29T23:50:36.957Z</time></trkpt><trkpt lat="40.0927053" lon="1.4107485"><ele>0.0</ele><time>2026-04-29T23:50:37.957Z</time></trkpt><trkpt lat="40.0927832" lon="1.4108089"><ele>0.0</ele><time>2026-04-29T23:50:38.957Z</time></trkpt><trkpt lat="40.0928614" lon="1.4108691"><ele>0.0</ele><time>2026-04-29T23:50:39.958Z</time></trkpt><trkpt lat="40.0929425" lon="1.4109388"><ele>0.0</ele><time>2026-04-29T23:50:40.957Z</time></trkpt><trkpt lat="40.0930212" lon="1.4110103"><ele>0.0</ele><time>2026-04-29T23:50:41.958Z</time></trkpt><trkpt lat="40.0930969" lon="1.4110765"><ele>0.0</ele><time>2026-04-29T23:50:42.957Z</time></trkpt><trkpt lat="40.0931732" lon="1.4111421"><ele>0.0</ele><time>2026-04-29T23:50:43.958Z</time></trkpt><trkpt lat="40.0932459" lon="1.4112043"><ele>0.0</ele><time>2026-04-29T23:50:44.958Z</time></trkpt><trkpt lat="40.0933934" lon="1.4112965"><ele>0.0</ele><time>2026-04-29T23:50:46.958Z</time></trkpt><trkpt lat="40.0934655" lon="1.4113558"><ele>0.0</ele><time>2026-04-29T23:50:47.958Z</time></trkpt><trkpt lat="40.0936904" lon="1.4115154"><ele>0.0</ele><time>2026-04-29T23:50:50.957Z</time></trkpt><trkpt lat="40.0937726" lon="1.4115841"><ele>0.0</ele><time>2026-04-29T23:50:51.958Z</time></trkpt><trkpt lat="40.0938516" lon="1.4116246"><ele>0.0</ele><time>2026-04-29T23:50:52.958Z</time></trkpt><trkpt lat="40.0939227" lon="1.4116613"><ele>0.0</ele><time>2026-04-29T23:50:53.958Z</time></trkpt><trkpt lat="40.0939995" lon="1.4117161"><ele>0.0</ele><time>2026-04-29T23:50:54.958Z</time></trkpt><trkpt lat="40.0940724" lon="1.4117799"><ele>0.0</ele><time>2026-04-29T23:50:55.957Z</time></trkpt><trkpt lat="40.0941414" lon="1.4118291"><ele>0.0</ele><time>2026-04-29T23:50:56.957Z</time></trkpt><trkpt lat="40.0942123" lon="1.4118789"><ele>0.0</ele><time>2026-04-29T23:50:57.958Z</time></trkpt><trkpt lat="40.0942869" lon="1.4119282"><ele>0.0</ele><time>2026-04-29T23:50:58.957Z</time></trkpt><trkpt lat="40.0943677" lon="1.4119765"><ele>0.0</ele><time>2026-04-29T23:50:59.958Z</time></trkpt><trkpt lat="40.0944464" lon="1.4120036"><ele>0.0</ele><time>2026-04-29T23:51:00.958Z</time></trkpt><trkpt lat="40.0945264" lon="1.412053"><ele>0.0</ele><time>2026-04-29T23:51:01.957Z</time></trkpt><trkpt lat="40.0946005" lon="1.4121077"><ele>0.0</ele><time>2026-04-29T23:51:02.957Z</time></trkpt><trkpt lat="40.0946755" lon="1.4121659"><ele>0.0</ele><time>2026-04-29T23:51:03.957Z</time></trkpt><trkpt lat="40.0947528" lon="1.412223"><ele>0.0</ele><time>2026-04-29T23:51:04.958Z</time></trkpt><trkpt lat="40.0948271" lon="1.4122777"><ele>0.0</ele><time>2026-04-29T23:51:05.958Z</time></trkpt><trkpt lat="40.0950581" lon="1.4124428"><ele>0.0</ele><time>2026-04-29T23:51:08.957Z</time></trkpt><trkpt lat="40.0951377" lon="1.412491"><ele>0.0</ele><time>2026-04-29T23:51:09.958Z</time></trkpt><trkpt lat="40.0952147" lon="1.4125392"><ele>0.0</ele><time>2026-04-29T23:51:10.957Z</time></trkpt><trkpt lat="40.0952975" lon="1.4126045"><ele>0.0</ele><time>2026-04-29T23:51:11.958Z</time></trkpt><trkpt lat="40.0953797" lon="1.412655"><ele>0.0</ele><time>2026-04-29T23:51:12.957Z</time></trkpt><trkpt lat="40.0954572" lon="1.4127099"><ele>0.0</ele><time>2026-04-29T23:51:13.957Z</time></trkpt><trkpt lat="40.095535" lon="1.4127687"><ele>0.0</ele><time>2026-04-29T23:51:14.957Z</time></trkpt><trkpt lat="40.0956048" lon="1.4128186"><ele>0.0</ele><time>2026-04-29T23:51:15.958Z</time></trkpt><trkpt lat="40.0956734" lon="1.4128529"><ele>0.0</ele><time>2026-04-29T23:51:16.958Z</time></trkpt><trkpt lat="40.0957481" lon="1.412907"><ele>0.0</ele><time>2026-04-29T23:51:17.957Z</time></trkpt><trkpt lat="40.0958218" lon="1.4129655"><ele>0.0</ele><time>2026-04-29T23:51:18.957Z</time></trkpt><trkpt lat="40.0958994" lon="1.4130341"><ele>0.0</ele><time>2026-04-29T23:51:19.957Z</time></trkpt><trkpt lat="40.095982" lon="1.4130801"><ele>0.0</ele><time>2026-04-29T23:51:20.957Z</time></trkpt><trkpt lat="40.096067" lon="1.4131434"><ele>0.0</ele><time>2026-04-29T23:51:21.958Z</time></trkpt><trkpt lat="40.096151" lon="1.4132055"><ele>0.0</ele><time>2026-04-29T23:51:22.957Z</time></trkpt><trkpt lat="40.0962328" lon="1.4132615"><ele>0.0</ele><time>2026-04-29T23:51:23.957Z</time></trkpt><trkpt lat="40.0963147" lon="1.4133094"><ele>0.0</ele><time>2026-04-29T23:51:24.958Z</time></trkpt><trkpt lat="40.0963921" lon="1.4133561"><ele>0.0</ele><time>2026-04-29T23:51:25.958Z</time></trkpt><trkpt lat="40.0964672" lon="1.4134489"><ele>0.0</ele><time>2026-04-29T23:51:26.957Z</time></trkpt><trkpt lat="40.0965422" lon="1.4135117"><ele>0.0</ele><time>2026-04-29T23:51:27.958Z</time></trkpt><trkpt lat="40.0967002" lon="1.4136013"><ele>0.0</ele><time>2026-04-29T23:51:29.957Z</time></trkpt><trkpt lat="40.0967783" lon="1.4136565"><ele>0.0</ele><time>2026-04-29T23:51:30.957Z</time></trkpt><trkpt lat="40.0968567" lon="1.4136865"><ele>0.0</ele><time>2026-04-29T23:51:31.958Z</time></trkpt><trkpt lat="40.096932" lon="1.4137061"><ele>0.0</ele><time>2026-04-29T23:51:32.957Z</time></trkpt><trkpt lat="40.0970168" lon="1.4137553"><ele>0.0</ele><time>2026-04-29T23:51:33.956Z</time></trkpt><trkpt lat="40.0970964" lon="1.4138107"><ele>0.0</ele><time>2026-04-29T23:51:34.957Z</time></trkpt><trkpt lat="40.0971724" lon="1.4138503"><ele>0.0</ele><time>2026-04-29T23:51:35.956Z</time></trkpt><trkpt lat="40.0972445" lon="1.4138962"><ele>0.0</ele><time>2026-04-29T23:51:36.957Z</time></trkpt><trkpt lat="40.0973131" lon="1.4139411"><ele>0.0</ele><time>2026-04-29T23:51:37.957Z</time></trkpt><trkpt lat="40.0973871" lon="1.4139903"><ele>0.0</ele><time>2026-04-29T23:51:38.957Z</time></trkpt><trkpt lat="40.0974661" lon="1.4140151"><ele>0.0</ele><time>2026-04-29T23:51:39.957Z</time></trkpt><trkpt lat="40.097543" lon="1.4140515"><ele>0.0</ele><time>2026-04-29T23:51:40.956Z</time></trkpt><trkpt lat="40.097627" lon="1.4141095"><ele>0.0</ele><time>2026-04-29T23:51:41.956Z</time></trkpt><trkpt lat="40.0977065" lon="1.4141649"><ele>0.0</ele><time>2026-04-29T23:51:42.957Z</time></trkpt><trkpt lat="40.097782" lon="1.4142186"><ele>0.0</ele><time>2026-04-29T23:51:43.957Z</time></trkpt><trkpt lat="40.0978571" lon="1.4142732"><ele>0.0</ele><time>2026-04-29T23:51:44.956Z</time></trkpt><trkpt lat="40.0979304" lon="1.4143289"><ele>0.0</ele><time>2026-04-29T23:51:45.956Z</time></trkpt><trkpt lat="40.0980066" lon="1.4143837"><ele>0.0</ele><time>2026-04-29T23:51:46.957Z</time></trkpt><trkpt lat="40.0980832" lon="1.4144316"><ele>0.0</ele><time>2026-04-29T23:51:47.957Z</time></trkpt><trkpt lat="40.0981543" lon="1.4144765"><ele>0.0</ele><time>2026-04-29T23:51:48.956Z</time></trkpt><trkpt lat="40.0983104" lon="1.4145921"><ele>0.0</ele><time>2026-04-29T23:51:50.956Z</time></trkpt><trkpt lat="40.0983855" lon="1.4146419"><ele>0.0</ele><time>2026-04-29T23:51:51.956Z</time></trkpt><trkpt lat="40.098462" lon="1.4146889"><ele>0.0</ele><time>2026-04-29T23:51:52.957Z</time></trkpt><trkpt lat="40.098543" lon="1.414748"><ele>0.0</ele><time>2026-04-29T23:51:53.957Z</time></trkpt><trkpt lat="40.0986215" lon="1.4148091"><ele>0.0</ele><time>2026-04-29T23:51:54.957Z</time></trkpt><trkpt lat="40.0987025" lon="1.4148695"><ele>0.0</ele><time>2026-04-29T23:51:55.957Z</time></trkpt><trkpt lat="40.098782" lon="1.4149143"><ele>0.0</ele><time>2026-04-29T23:51:56.957Z</time></trkpt><trkpt lat="40.0988585" lon="1.4149461"><ele>0.0</ele><time>2026-04-29T23:51:57.956Z</time></trkpt><trkpt lat="40.0989436" lon="1.4149943"><ele>0.0</ele><time>2026-04-29T23:51:58.957Z</time></trkpt><trkpt lat="40.099022" lon="1.4150508"><ele>0.0</ele><time>2026-04-29T23:51:59.956Z</time></trkpt><trkpt lat="40.0990928" lon="1.4150873"><ele>0.0</ele><time>2026-04-29T23:52:00.956Z</time></trkpt><trkpt lat="40.0991643" lon="1.415149"><ele>0.0</ele><time>2026-04-29T23:52:01.957Z</time></trkpt><trkpt lat="40.0992464" lon="1.4152067"><ele>0.0</ele><time>2026-04-29T23:52:02.956Z</time></trkpt><trkpt lat="40.0993221" lon="1.4152676"><ele>0.0</ele><time>2026-04-29T23:52:03.957Z</time></trkpt><trkpt lat="40.0993998" lon="1.4153237"><ele>0.0</ele><time>2026-04-29T23:52:04.957Z</time></trkpt><trkpt lat="40.0994764" lon="1.4153985"><ele>0.0</ele><time>2026-04-29T23:52:05.957Z</time></trkpt><trkpt lat="40.0995561" lon="1.4154598"><ele>0.0</ele><time>2026-04-29T23:52:06.957Z</time></trkpt><trkpt lat="40.0996347" lon="1.4155225"><ele>0.0</ele><time>2026-04-29T23:52:07.956Z</time></trkpt><trkpt lat="40.099713" lon="1.4155784"><ele>0.0</ele><time>2026-04-29T23:52:08.956Z</time></trkpt><trkpt lat="40.0997914" lon="1.4156307"><ele>0.0</ele><time>2026-04-29T23:52:09.957Z</time></trkpt><trkpt lat="40.0999434" lon="1.4157258"><ele>0.0</ele><time>2026-04-29T23:52:11.956Z</time></trkpt><trkpt lat="40.1000215" lon="1.4157761"><ele>0.0</ele><time>2026-04-29T23:52:12.956Z</time></trkpt><trkpt lat="40.1001009" lon="1.4158315"><ele>0.0</ele><time>2026-04-29T23:52:13.956Z</time></trkpt><trkpt lat="40.1001813" lon="1.4158905"><ele>0.0</ele><time>2026-04-29T23:52:14.957Z</time></trkpt><trkpt lat="40.1002618" lon="1.415947"><ele>0.0</ele><time>2026-04-29T23:52:15.956Z</time></trkpt><trkpt lat="40.1003402" lon="1.416006"><ele>0.0</ele><time>2026-04-29T23:52:16.956Z</time></trkpt><trkpt lat="40.1004154" lon="1.4160666"><ele>0.0</ele><time>2026-04-29T23:52:17.956Z</time></trkpt><trkpt lat="40.1004904" lon="1.4161242"><ele>0.0</ele><time>2026-04-29T23:52:18.956Z</time></trkpt><trkpt lat="40.100574" lon="1.4161721"><ele>0.0</ele><time>2026-04-29T23:52:19.956Z</time></trkpt><trkpt lat="40.1006574" lon="1.416226"><ele>0.0</ele><time>2026-04-29T23:52:20.956Z</time></trkpt><trkpt lat="40.1007381" lon="1.4162795"><ele>0.0</ele><time>2026-04-29T23:52:21.956Z</time></trkpt><trkpt lat="40.1008194" lon="1.4163333"><ele>0.0</ele><time>2026-04-29T23:52:22.956Z</time></trkpt><trkpt lat="40.1008941" lon="1.4163795"><ele>0.0</ele><time>2026-04-29T23:52:23.957Z</time></trkpt><trkpt lat="40.1009704" lon="1.4164373"><ele>0.0</ele><time>2026-04-29T23:52:24.956Z</time></trkpt><trkpt lat="40.1010483" lon="1.416491"><ele>0.0</ele><time>2026-04-29T23:52:25.957Z</time></trkpt><trkpt lat="40.1011308" lon="1.4165431"><ele>0.0</ele><time>2026-04-29T23:52:26.956Z</time></trkpt><trkpt lat="40.1012113" lon="1.4165975"><ele>0.0</ele><time>2026-04-29T23:52:27.957Z</time></trkpt><trkpt lat="40.1012898" lon="1.4166504"><ele>0.0</ele><time>2026-04-29T23:52:28.957Z</time></trkpt><trkpt lat="40.1013723" lon="1.416712"><ele>0.0</ele><time>2026-04-29T23:52:29.957Z</time></trkpt><trkpt lat="40.1014519" lon="1.4167793"><ele>0.0</ele><time>2026-04-29T23:52:30.957Z</time></trkpt><trkpt lat="40.1016063" lon="1.4169072"><ele>0.0</ele><time>2026-04-29T23:52:32.957Z</time></trkpt><trkpt lat="40.1016848" lon="1.4169739"><ele>0.0</ele><time>2026-04-29T23:52:33.957Z</time></trkpt><trkpt lat="40.1017544" lon="1.4170359"><ele>0.0</ele><time>2026-04-29T23:52:34.956Z</time></trkpt><trkpt lat="40.1018301" lon="1.4170889"><ele>0.0</ele><time>2026-04-29T23:52:35.956Z</time></trkpt><trkpt lat="40.1019038" lon="1.4171379"><ele>0.0</ele><time>2026-04-29T23:52:36.957Z</time></trkpt><trkpt lat="40.1019871" lon="1.4171877"><ele>0.0</ele><time>2026-04-29T23:52:37.957Z</time></trkpt><trkpt lat="40.1020591" lon="1.4172035"><ele>0.0</ele><time>2026-04-29T23:52:38.956Z</time></trkpt><trkpt lat="40.1021162" lon="1.4172647"><ele>0.0</ele><time>2026-04-29T23:52:41.151Z</time></trkpt><trkpt lat="40.1021885" lon="1.417358"><ele>0.0</ele><time>2026-04-29T23:52:42.157Z</time></trkpt><trkpt lat="40.1024385" lon="1.4174425"><ele>0.0</ele><time>2026-04-29T23:52:44.169Z</time></trkpt><trkpt lat="40.1025343" lon="1.4174982"><ele>0.0</ele><time>2026-04-29T23:52:45.174Z</time></trkpt><trkpt lat="40.102613" lon="1.4175488"><ele>0.0</ele><time>2026-04-29T23:52:46.08Z</time></trkpt><trkpt lat="40.1026981" lon="1.417595"><ele>0.0</ele><time>2026-04-29T23:52:47.086Z</time></trkpt><trkpt lat="40.1028254" lon="1.4177084"><ele>0.0</ele><time>2026-04-29T23:52:48.957Z</time></trkpt><trkpt lat="40.102906" lon="1.4177617"><ele>0.0</ele><time>2026-04-29T23:52:49.956Z</time></trkpt><trkpt lat="40.1029765" lon="1.4178219"><ele>0.0</ele><time>2026-04-29T23:52:50.956Z</time></trkpt><trkpt lat="40.1030466" lon="1.4178767"><ele>0.0</ele><time>2026-04-29T23:52:51.956Z</time></trkpt><trkpt lat="40.1031958" lon="1.4179831"><ele>0.0</ele><time>2026-04-29T23:52:53.956Z</time></trkpt><trkpt lat="40.103274" lon="1.4180284"><ele>0.0</ele><time>2026-04-29T23:52:54.956Z</time></trkpt><trkpt lat="40.1033433" lon="1.4180695"><ele>0.0</ele><time>2026-04-29T23:52:55.957Z</time></trkpt><trkpt lat="40.1034184" lon="1.4181221"><ele>0.0</ele><time>2026-04-29T23:52:56.956Z</time></trkpt><trkpt lat="40.1034979" lon="1.4181758"><ele>0.0</ele><time>2026-04-29T23:52:57.956Z</time></trkpt><trkpt lat="40.103571" lon="1.418222"><ele>0.0</ele><time>2026-04-29T23:52:58.957Z</time></trkpt><trkpt lat="40.1036425" lon="1.4182671"><ele>0.0</ele><time>2026-04-29T23:52:59.956Z</time></trkpt><trkpt lat="40.1037154" lon="1.4183002"><ele>0.0</ele><time>2026-04-29T23:53:00.956Z</time></trkpt><trkpt lat="40.1037918" lon="1.4183463"><ele>0.0</ele><time>2026-04-29T23:53:01.957Z</time></trkpt><trkpt lat="40.1038672" lon="1.4184001"><ele>0.0</ele><time>2026-04-29T23:53:02.956Z</time></trkpt><trkpt lat="40.1039466" lon="1.4184575"><ele>0.0</ele><time>2026-04-29T23:53:03.957Z</time></trkpt><trkpt lat="40.1040264" lon="1.4185134"><ele>0.0</ele><time>2026-04-29T23:53:04.957Z</time></trkpt><trkpt lat="40.1041078" lon="1.4185754"><ele>0.0</ele><time>2026-04-29T23:53:05.956Z</time></trkpt><trkpt lat="40.1041852" lon="1.4186445"><ele>0.0</ele><time>2026-04-29T23:53:06.956Z</time></trkpt><trkpt lat="40.1042645" lon="1.4187088"><ele>0.0</ele><time>2026-04-29T23:53:07.957Z</time></trkpt><trkpt lat="40.1043417" lon="1.4187681"><ele>0.0</ele><time>2026-04-29T23:53:08.957Z</time></trkpt><trkpt lat="40.1044186" lon="1.4188281"><ele>0.0</ele><time>2026-04-29T23:53:09.957Z</time></trkpt><trkpt lat="40.1044965" lon="1.4188902"><ele>0.0</ele><time>2026-04-29T23:53:10.956Z</time></trkpt><trkpt lat="40.1045807" lon="1.4189552"><ele>0.0</ele><time>2026-04-29T23:53:11.957Z</time></trkpt><trkpt lat="40.1046629" lon="1.4190172"><ele>0.0</ele><time>2026-04-29T23:53:12.957Z</time></trkpt><trkpt lat="40.1047461" lon="1.4190746"><ele>0.0</ele><time>2026-04-29T23:53:13.957Z</time></trkpt><trkpt lat="40.104997" lon="1.4192605"><ele>0.0</ele><time>2026-04-29T23:53:16.956Z</time></trkpt><trkpt lat="40.1050719" lon="1.4193052"><ele>0.0</ele><time>2026-04-29T23:53:17.957Z</time></trkpt><trkpt lat="40.1051468" lon="1.4193656"><ele>0.0</ele><time>2026-04-29T23:53:18.957Z</time></trkpt><trkpt lat="40.1052178" lon="1.419409"><ele>0.0</ele><time>2026-04-29T23:53:19.957Z</time></trkpt><trkpt lat="40.1052922" lon="1.4194562"><ele>0.0</ele><time>2026-04-29T23:53:20.957Z</time></trkpt><trkpt lat="40.1053687" lon="1.4195028"><ele>0.0</ele><time>2026-04-29T23:53:21.956Z</time></trkpt><trkpt lat="40.105447" lon="1.4195523"><ele>0.0</ele><time>2026-04-29T23:53:22.957Z</time></trkpt><trkpt lat="40.1055293" lon="1.4196074"><ele>0.0</ele><time>2026-04-29T23:53:23.956Z</time></trkpt><trkpt lat="40.1055996" lon="1.419648"><ele>0.0</ele><time>2026-04-29T23:53:24.956Z</time></trkpt><trkpt lat="40.105675" lon="1.4196691"><ele>0.0</ele><time>2026-04-29T23:53:25.957Z</time></trkpt><trkpt lat="40.1057541" lon="1.4196903"><ele>0.0</ele><time>2026-04-29T23:53:26.956Z</time></trkpt><trkpt lat="40.1058357" lon="1.4197334"><ele>0.0</ele><time>2026-04-29T23:53:27.956Z</time></trkpt><trkpt lat="40.1059089" lon="1.4197952"><ele>0.0</ele><time>2026-04-29T23:53:28.956Z</time></trkpt><trkpt lat="40.1059864" lon="1.4198572"><ele>0.0</ele><time>2026-04-29T23:53:29.957Z</time></trkpt><trkpt lat="40.1060622" lon="1.4199206"><ele>0.0</ele><time>2026-04-29T23:53:30.956Z</time></trkpt><trkpt lat="40.1061414" lon="1.4199788"><ele>0.0</ele><time>2026-04-29T23:53:31.957Z</time></trkpt><trkpt lat="40.1062173" lon="1.4200356"><ele>0.0</ele><time>2026-04-29T23:53:32.957Z</time></trkpt><trkpt lat="40.1062907" lon="1.4200896"><ele>0.0</ele><time>2026-04-29T23:53:33.957Z</time></trkpt><trkpt lat="40.1063596" lon="1.4201347"><ele>0.0</ele><time>2026-04-29T23:53:34.956Z</time></trkpt><trkpt lat="40.1064293" lon="1.4201893"><ele>0.0</ele><time>2026-04-29T23:53:35.957Z</time></trkpt><trkpt lat="40.1065907" lon="1.4202906"><ele>0.0</ele><time>2026-04-29T23:53:37.957Z</time></trkpt><trkpt lat="40.1066752" lon="1.4203536"><ele>0.0</ele><time>2026-04-29T23:53:38.957Z</time></trkpt><trkpt lat="40.1067531" lon="1.4204195"><ele>0.0</ele><time>2026-04-29T23:53:39.957Z</time></trkpt><trkpt lat="40.1068965" lon="1.4205472"><ele>0.0</ele><time>2026-04-29T23:53:43.076Z</time></trkpt><trkpt lat="40.1070051" lon="1.4206297"><ele>0.0</ele><time>2026-04-29T23:53:44.08Z</time></trkpt><trkpt lat="40.107113" lon="1.4206774"><ele>0.0</ele><time>2026-04-29T23:53:45.086Z</time></trkpt><trkpt lat="40.1072112" lon="1.4207277"><ele>0.0</ele><time>2026-04-29T23:53:46.093Z</time></trkpt><trkpt lat="40.1074022" lon="1.4207913"><ele>0.0</ele><time>2026-04-29T23:53:48.104Z</time></trkpt><trkpt lat="40.1074921" lon="1.4208148"><ele>0.0</ele><time>2026-04-29T23:53:49.11Z</time></trkpt><trkpt lat="40.1075789" lon="1.420863"><ele>0.0</ele><time>2026-04-29T23:53:50.115Z</time></trkpt><trkpt lat="40.107656" lon="1.420939"><ele>0.0</ele><time>2026-04-29T23:53:51.121Z</time></trkpt><trkpt lat="40.1077301" lon="1.421022"><ele>0.0</ele><time>2026-04-29T23:53:52.126Z</time></trkpt><trkpt lat="40.1078351" lon="1.4210984"><ele>0.0</ele><time>2026-04-29T23:53:54.137Z</time></trkpt><trkpt lat="40.1079276" lon="1.4212084"><ele>0.0</ele><time>2026-04-29T23:53:55.144Z</time></trkpt><trkpt lat="40.1080182" lon="1.4212674"><ele>0.0</ele><time>2026-04-29T23:53:56.149Z</time></trkpt><trkpt lat="40.1081018" lon="1.4213192"><ele>0.0</ele><time>2026-04-29T23:53:57.155Z</time></trkpt><trkpt lat="40.1083206" lon="1.4214602"><ele>0.0</ele><time>2026-04-29T23:54:00.071Z</time></trkpt><trkpt lat="40.1084036" lon="1.4215056"><ele>0.0</ele><time>2026-04-29T23:54:00.957Z</time></trkpt><trkpt lat="40.1084777" lon="1.4215657"><ele>0.0</ele><time>2026-04-29T23:54:01.956Z</time></trkpt><trkpt lat="40.1085549" lon="1.4216287"><ele>0.0</ele><time>2026-04-29T23:54:02.956Z</time></trkpt><trkpt lat="40.108632" lon="1.4216854"><ele>0.0</ele><time>2026-04-29T23:54:03.956Z</time></trkpt><trkpt lat="40.1087146" lon="1.4217317"><ele>0.0</ele><time>2026-04-29T23:54:04.957Z</time></trkpt><trkpt lat="40.1088033" lon="1.4217767"><ele>0.0</ele><time>2026-04-29T23:54:05.956Z</time></trkpt><trkpt lat="40.1088802" lon="1.4218228"><ele>0.0</ele><time>2026-04-29T23:54:06.956Z</time></trkpt><trkpt lat="40.1089613" lon="1.4218704"><ele>0.0</ele><time>2026-04-29T23:54:07.957Z</time></trkpt><trkpt lat="40.1090389" lon="1.4219126"><ele>0.0</ele><time>2026-04-29T23:54:08.956Z</time></trkpt><trkpt lat="40.1091159" lon="1.4219583"><ele>0.0</ele><time>2026-04-29T23:54:09.956Z</time></trkpt><trkpt lat="40.1091922" lon="1.4219953"><ele>0.0</ele><time>2026-04-29T23:54:10.956Z</time></trkpt><trkpt lat="40.1092671" lon="1.4220464"><ele>0.0</ele><time>2026-04-29T23:54:11.957Z</time></trkpt><trkpt lat="40.1093434" lon="1.4220996"><ele>0.0</ele><time>2026-04-29T23:54:12.957Z</time></trkpt><trkpt lat="40.1094187" lon="1.4221516"><ele>0.0</ele><time>2026-04-29T23:54:13.956Z</time></trkpt><trkpt lat="40.1094896" lon="1.422219"><ele>0.0</ele><time>2026-04-29T23:54:14.956Z</time></trkpt><trkpt lat="40.1095623" lon="1.4222851"><ele>0.0</ele><time>2026-04-29T23:54:15.956Z</time></trkpt><trkpt lat="40.1096397" lon="1.4223401"><ele>0.0</ele><time>2026-04-29T23:54:16.957Z</time></trkpt><trkpt lat="40.1097136" lon="1.4223925"><ele>0.0</ele><time>2026-04-29T23:54:17.957Z</time></trkpt><trkpt lat="40.1099324" lon="1.422542"><ele>0.0</ele><time>2026-04-29T23:54:20.956Z</time></trkpt><trkpt lat="40.1100111" lon="1.4225928"><ele>0.0</ele><time>2026-04-29T23:54:21.957Z</time></trkpt><trkpt lat="40.1100915" lon="1.422656"><ele>0.0</ele><time>2026-04-29T23:54:22.957Z</time></trkpt><trkpt lat="40.1101699" lon="1.4227196"><ele>0.0</ele><time>2026-04-29T23:54:23.957Z</time></trkpt><trkpt lat="40.1102523" lon="1.4227817"><ele>0.0</ele><time>2026-04-29T23:54:24.957Z</time></trkpt><trkpt lat="40.1103358" lon="1.4228373"><ele>0.0</ele><time>2026-04-29T23:54:25.957Z</time></trkpt><trkpt lat="40.1104107" lon="1.4229091"><ele>0.0</ele><time>2026-04-29T23:54:26.957Z</time></trkpt><trkpt lat="40.1104882" lon="1.422971"><ele>0.0</ele><time>2026-04-29T23:54:27.956Z</time></trkpt><trkpt lat="40.1105649" lon="1.4230305"><ele>0.0</ele><time>2026-04-29T23:54:28.957Z</time></trkpt><trkpt lat="40.1106421" lon="1.4230862"><ele>0.0</ele><time>2026-04-29T23:54:29.956Z</time></trkpt><trkpt lat="40.1107051" lon="1.4231421"><ele>0.0</ele><time>2026-04-29T23:54:32.153Z</time></trkpt><trkpt lat="40.1108247" lon="1.4232"><ele>0.0</ele><time>2026-04-29T23:54:33.159Z</time></trkpt><trkpt lat="40.1110209" lon="1.4233021"><ele>0.0</ele><time>2026-04-29T23:54:34.956Z</time></trkpt><trkpt lat="40.1110998" lon="1.4233562"><ele>0.0</ele><time>2026-04-29T23:54:35.956Z</time></trkpt><trkpt lat="40.111174" lon="1.4234165"><ele>0.0</ele><time>2026-04-29T23:54:36.956Z</time></trkpt><trkpt lat="40.111249" lon="1.423472"><ele>0.0</ele><time>2026-04-29T23:54:37.956Z</time></trkpt><trkpt lat="40.1113266" lon="1.4235282"><ele>0.0</ele><time>2026-04-29T23:54:38.957Z</time></trkpt><trkpt lat="40.1114051" lon="1.4235876"><ele>0.0</ele><time>2026-04-29T23:54:39.956Z</time></trkpt><trkpt lat="40.1115558" lon="1.4237391"><ele>0.0</ele><time>2026-04-29T23:54:41.956Z</time></trkpt><trkpt lat="40.1116333" lon="1.4237812"><ele>0.0</ele><time>2026-04-29T23:54:42.957Z</time></trkpt><trkpt lat="40.1117049" lon="1.4238297"><ele>0.0</ele><time>2026-04-29T23:54:43.957Z</time></trkpt><trkpt lat="40.111782" lon="1.4238811"><ele>0.0</ele><time>2026-04-29T23:54:44.957Z</time></trkpt><trkpt lat="40.1118615" lon="1.4239386"><ele>0.0</ele><time>2026-04-29T23:54:45.956Z</time></trkpt><trkpt lat="40.1119383" lon="1.4239984"><ele>0.0</ele><time>2026-04-29T23:54:46.957Z</time></trkpt><trkpt lat="40.1120124" lon="1.42405"><ele>0.0</ele><time>2026-04-29T23:54:47.956Z</time></trkpt><trkpt lat="40.11209" lon="1.4241031"><ele>0.0</ele><time>2026-04-29T23:54:48.957Z</time></trkpt><trkpt lat="40.112164" lon="1.4241758"><ele>0.0</ele><time>2026-04-29T23:54:49.956Z</time></trkpt><trkpt lat="40.1122403" lon="1.4242279"><ele>0.0</ele><time>2026-04-29T23:54:50.957Z</time></trkpt><trkpt lat="40.1123138" lon="1.4242735"><ele>0.0</ele><time>2026-04-29T23:54:51.956Z</time></trkpt><trkpt lat="40.1123942" lon="1.4243297"><ele>0.0</ele><time>2026-04-29T23:54:52.956Z</time></trkpt><trkpt lat="40.1124747" lon="1.4243807"><ele>0.0</ele><time>2026-04-29T23:54:53.956Z</time></trkpt><trkpt lat="40.1125565" lon="1.4244367"><ele>0.0</ele><time>2026-04-29T23:54:54.956Z</time></trkpt><trkpt lat="40.1126365" lon="1.424498"><ele>0.0</ele><time>2026-04-29T23:54:55.956Z</time></trkpt><trkpt lat="40.1127134" lon="1.4245629"><ele>0.0</ele><time>2026-04-29T23:54:56.957Z</time></trkpt><trkpt lat="40.1127943" lon="1.4246148"><ele>0.0</ele><time>2026-04-29T23:54:57.956Z</time></trkpt><trkpt lat="40.1128732" lon="1.4246664"><ele>0.0</ele><time>2026-04-29T23:54:58.957Z</time></trkpt><trkpt lat="40.1129501" lon="1.4247207"><ele>0.0</ele><time>2026-04-29T23:54:59.956Z</time></trkpt><trkpt lat="40.1130336" lon="1.424768"><ele>0.0</ele><time>2026-04-29T23:55:00.956Z</time></trkpt><trkpt lat="40.113186" lon="1.4248449"><ele>0.0</ele><time>2026-04-29T23:55:02.956Z</time></trkpt><trkpt lat="40.1132574" lon="1.4248862"><ele>0.0</ele><time>2026-04-29T23:55:03.956Z</time></trkpt><trkpt lat="40.1133375" lon="1.42493"><ele>0.0</ele><time>2026-04-29T23:55:04.957Z</time></trkpt><trkpt lat="40.1134165" lon="1.424973"><ele>0.0</ele><time>2026-04-29T23:55:05.957Z</time></trkpt><trkpt lat="40.1134947" lon="1.4250321"><ele>0.0</ele><time>2026-04-29T23:55:06.956Z</time></trkpt><trkpt lat="40.1135717" lon="1.4250911"><ele>0.0</ele><time>2026-04-29T23:55:07.956Z</time></trkpt><trkpt lat="40.1136442" lon="1.425137"><ele>0.0</ele><time>2026-04-29T23:55:08.956Z</time></trkpt><trkpt lat="40.113721" lon="1.4251819"><ele>0.0</ele><time>2026-04-29T23:55:09.957Z</time></trkpt><trkpt lat="40.1137953" lon="1.4252272"><ele>0.0</ele><time>2026-04-29T23:55:10.956Z</time></trkpt><trkpt lat="40.1138703" lon="1.4252536"><ele>0.0</ele><time>2026-04-29T23:55:11.956Z</time></trkpt><trkpt lat="40.1139498" lon="1.4252956"><ele>0.0</ele><time>2026-04-29T23:55:12.956Z</time></trkpt><trkpt lat="40.114027" lon="1.4253464"><ele>0.0</ele><time>2026-04-29T23:55:13.956Z</time></trkpt><trkpt lat="40.1141048" lon="1.425404"><ele>0.0</ele><time>2026-04-29T23:55:14.956Z</time></trkpt><trkpt lat="40.1141776" lon="1.4254618"><ele>0.0</ele><time>2026-04-29T23:55:15.956Z</time></trkpt><trkpt lat="40.1142562" lon="1.4255185"><ele>0.0</ele><time>2026-04-29T23:55:16.956Z</time></trkpt><trkpt lat="40.1143333" lon="1.425575"><ele>0.0</ele><time>2026-04-29T23:55:17.956Z</time></trkpt><trkpt lat="40.1144084" lon="1.425634"><ele>0.0</ele><time>2026-04-29T23:55:18.957Z</time></trkpt><trkpt lat="40.1144936" lon="1.4256957"><ele>0.0</ele><time>2026-04-29T23:55:19.957Z</time></trkpt><trkpt lat="40.1145702" lon="1.4257559"><ele>0.0</ele><time>2026-04-29T23:55:20.957Z</time></trkpt><trkpt lat="40.1146469" lon="1.4258087"><ele>0.0</ele><time>2026-04-29T23:55:21.956Z</time></trkpt><trkpt lat="40.1148799" lon="1.4259223"><ele>0.0</ele><time>2026-04-29T23:55:24.957Z</time></trkpt><trkpt lat="40.1149607" lon="1.4259598"><ele>0.0</ele><time>2026-04-29T23:55:25.957Z</time></trkpt><trkpt lat="40.115034" lon="1.4259965"><ele>0.0</ele><time>2026-04-29T23:55:26.957Z</time></trkpt><trkpt lat="40.1151114" lon="1.426041"><ele>0.0</ele><time>2026-04-29T23:55:27.956Z</time></trkpt><trkpt lat="40.1151896" lon="1.4260842"><ele>0.0</ele><time>2026-04-29T23:55:28.956Z</time></trkpt><trkpt lat="40.1152764" lon="1.4261312"><ele>0.0</ele><time>2026-04-29T23:55:29.957Z</time></trkpt><trkpt lat="40.1153606" lon="1.4261738"><ele>0.0</ele><time>2026-04-29T23:55:30.957Z</time></trkpt><trkpt lat="40.1154354" lon="1.4262258"><ele>0.0</ele><time>2026-04-29T23:55:31.956Z</time></trkpt><trkpt lat="40.1155146" lon="1.4262817"><ele>0.0</ele><time>2026-04-29T23:55:32.957Z</time></trkpt><trkpt lat="40.1155933" lon="1.4263357"><ele>0.0</ele><time>2026-04-29T23:55:33.957Z</time></trkpt><trkpt lat="40.1156747" lon="1.4263813"><ele>0.0</ele><time>2026-04-29T23:55:34.957Z</time></trkpt><trkpt lat="40.1157538" lon="1.426436"><ele>0.0</ele><time>2026-04-29T23:55:35.957Z</time></trkpt><trkpt lat="40.1158305" lon="1.4264887"><ele>0.0</ele><time>2026-04-29T23:55:36.956Z</time></trkpt><trkpt lat="40.1159114" lon="1.4265416"><ele>0.0</ele><time>2026-04-29T23:55:37.956Z</time></trkpt><trkpt lat="40.115989" lon="1.4265818"><ele>0.0</ele><time>2026-04-29T23:55:38.956Z</time></trkpt><trkpt lat="40.1160637" lon="1.4266301"><ele>0.0</ele><time>2026-04-29T23:55:39.957Z</time></trkpt><trkpt lat="40.1161372" lon="1.4266759"><ele>0.0</ele><time>2026-04-29T23:55:40.957Z</time></trkpt><trkpt lat="40.1162078" lon="1.4267183"><ele>0.0</ele><time>2026-04-29T23:55:41.956Z</time></trkpt><trkpt lat="40.1162805" lon="1.4267673"><ele>0.0</ele><time>2026-04-29T23:55:42.956Z</time></trkpt><trkpt lat="40.1163563" lon="1.4268226"><ele>0.0</ele><time>2026-04-29T23:55:43.956Z</time></trkpt><trkpt lat="40.1165085" lon="1.4269532"><ele>0.0</ele><time>2026-04-29T23:55:45.957Z</time></trkpt><trkpt lat="40.1165879" lon="1.4270148"><ele>0.0</ele><time>2026-04-29T23:55:46.957Z</time></trkpt><trkpt lat="40.1166711" lon="1.4270712"><ele>0.0</ele><time>2026-04-29T23:55:47.957Z</time></trkpt><trkpt lat="40.1167558" lon="1.4271317"><ele>0.0</ele><time>2026-04-29T23:55:48.957Z</time></trkpt><trkpt lat="40.1168372" lon="1.4271858"><ele>0.0</ele><time>2026-04-29T23:55:49.956Z</time></trkpt><trkpt lat="40.1169126" lon="1.4272516"><ele>0.0</ele><time>2026-04-29T23:55:50.955Z</time></trkpt><trkpt lat="40.1169916" lon="1.4272872"><ele>0.0</ele><time>2026-04-29T23:55:51.955Z</time></trkpt><trkpt lat="40.117067" lon="1.4273289"><ele>0.0</ele><time>2026-04-29T23:55:52.956Z</time></trkpt><trkpt lat="40.1172871" lon="1.4274917"><ele>0.0</ele><time>2026-04-29T23:55:55.955Z</time></trkpt><trkpt lat="40.1173624" lon="1.4275352"><ele>0.0</ele><time>2026-04-29T23:55:56.956Z</time></trkpt><trkpt lat="40.1174383" lon="1.4275841"><ele>0.0</ele><time>2026-04-29T23:55:57.955Z</time></trkpt><trkpt lat="40.1175221" lon="1.4276352"><ele>0.0</ele><time>2026-04-29T23:55:58.956Z</time></trkpt><trkpt lat="40.1175999" lon="1.4276952"><ele>0.0</ele><time>2026-04-29T23:55:59.955Z</time></trkpt><trkpt lat="40.1176836" lon="1.4277532"><ele>0.0</ele><time>2026-04-29T23:56:00.956Z</time></trkpt><trkpt lat="40.117766" lon="1.4278267"><ele>0.0</ele><time>2026-04-29T23:56:01.955Z</time></trkpt><trkpt lat="40.1178477" lon="1.4278829"><ele>0.0</ele><time>2026-04-29T23:56:02.955Z</time></trkpt><trkpt lat="40.1179251" lon="1.4279344"><ele>0.0</ele><time>2026-04-29T23:56:03.956Z</time></trkpt><trkpt lat="40.1180019" lon="1.427989"><ele>0.0</ele><time>2026-04-29T23:56:04.955Z</time></trkpt><trkpt lat="40.1181484" lon="1.4281172"><ele>0.0</ele><time>2026-04-29T23:56:06.956Z</time></trkpt><trkpt lat="40.1182218" lon="1.4281822"><ele>0.0</ele><time>2026-04-29T23:56:07.955Z</time></trkpt><trkpt lat="40.1183008" lon="1.4282277"><ele>0.0</ele><time>2026-04-29T23:56:08.955Z</time></trkpt><trkpt lat="40.1183852" lon="1.4282712"><ele>0.0</ele><time>2026-04-29T23:56:09.955Z</time></trkpt><trkpt lat="40.1184686" lon="1.4283142"><ele>0.0</ele><time>2026-04-29T23:56:10.955Z</time></trkpt><trkpt lat="40.1185454" lon="1.4283562"><ele>0.0</ele><time>2026-04-29T23:56:11.955Z</time></trkpt><trkpt lat="40.1186229" lon="1.4284052"><ele>0.0</ele><time>2026-04-29T23:56:12.955Z</time></trkpt><trkpt lat="40.1186971" lon="1.4284573"><ele>0.0</ele><time>2026-04-29T23:56:13.956Z</time></trkpt><trkpt lat="40.118772" lon="1.4285076"><ele>0.0</ele><time>2026-04-29T23:56:14.955Z</time></trkpt><trkpt lat="40.1188443" lon="1.4285692"><ele>0.0</ele><time>2026-04-29T23:56:15.955Z</time></trkpt><trkpt lat="40.1189204" lon="1.4286207"><ele>0.0</ele><time>2026-04-29T23:56:16.956Z</time></trkpt><trkpt lat="40.1189969" lon="1.4286728"><ele>0.0</ele><time>2026-04-29T23:56:17.955Z</time></trkpt><trkpt lat="40.1190749" lon="1.4287203"><ele>0.0</ele><time>2026-04-29T23:56:18.955Z</time></trkpt><trkpt lat="40.1191448" lon="1.4287676"><ele>0.0</ele><time>2026-04-29T23:56:19.956Z</time></trkpt><trkpt lat="40.1192213" lon="1.4288139"><ele>0.0</ele><time>2026-04-29T23:56:20.955Z</time></trkpt><trkpt lat="40.119298" lon="1.4288676"><ele>0.0</ele><time>2026-04-29T23:56:21.956Z</time></trkpt><trkpt lat="40.1193734" lon="1.4289271"><ele>0.0</ele><time>2026-04-29T23:56:22.955Z</time></trkpt><trkpt lat="40.1194514" lon="1.4289867"><ele>0.0</ele><time>2026-04-29T23:56:23.955Z</time></trkpt><trkpt lat="40.1195301" lon="1.4290506"><ele>0.0</ele><time>2026-04-29T23:56:24.956Z</time></trkpt><trkpt lat="40.1196129" lon="1.4291073"><ele>0.0</ele><time>2026-04-29T23:56:25.956Z</time></trkpt><trkpt lat="40.1198451" lon="1.4292526"><ele>0.0</ele><time>2026-04-29T23:56:28.956Z</time></trkpt><trkpt lat="40.1199201" lon="1.4293047"><ele>0.0</ele><time>2026-04-29T23:56:29.955Z</time></trkpt><trkpt lat="40.1199964" lon="1.4293628"><ele>0.0</ele><time>2026-04-29T23:56:30.956Z</time></trkpt><trkpt lat="40.1200747" lon="1.4294169"><ele>0.0</ele><time>2026-04-29T23:56:31.955Z</time></trkpt><trkpt lat="40.1201422" lon="1.4294359"><ele>0.0</ele><time>2026-04-29T23:56:34.171Z</time></trkpt><trkpt lat="40.1203615" lon="1.4296199"><ele>0.0</ele><time>2026-04-29T23:56:35.956Z</time></trkpt><trkpt lat="40.120438" lon="1.429683"><ele>0.0</ele><time>2026-04-29T23:56:36.955Z</time></trkpt><trkpt lat="40.1205134" lon="1.4297327"><ele>0.0</ele><time>2026-04-29T23:56:37.956Z</time></trkpt><trkpt lat="40.120587" lon="1.4297885"><ele>0.0</ele><time>2026-04-29T23:56:38.956Z</time></trkpt><trkpt lat="40.1206601" lon="1.4298349"><ele>0.0</ele><time>2026-04-29T23:56:39.956Z</time></trkpt><trkpt lat="40.1207393" lon="1.4298857"><ele>0.0</ele><time>2026-04-29T23:56:40.956Z</time></trkpt><trkpt lat="40.1208237" lon="1.4299459"><ele>0.0</ele><time>2026-04-29T23:56:41.955Z</time></trkpt><trkpt lat="40.1209032" lon="1.430004"><ele>0.0</ele><time>2026-04-29T23:56:42.955Z</time></trkpt><trkpt lat="40.1209914" lon="1.4300576"><ele>0.0</ele><time>2026-04-29T23:56:43.955Z</time></trkpt><trkpt lat="40.121074" lon="1.4301081"><ele>0.0</ele><time>2026-04-29T23:56:44.955Z</time></trkpt><trkpt lat="40.1211514" lon="1.4301583"><ele>0.0</ele><time>2026-04-29T23:56:45.955Z</time></trkpt><trkpt lat="40.1212239" lon="1.4302225"><ele>0.0</ele><time>2026-04-29T23:56:46.955Z</time></trkpt><trkpt lat="40.1213056" lon="1.4302755"><ele>0.0</ele><time>2026-04-29T23:56:47.955Z</time></trkpt><trkpt lat="40.1214618" lon="1.4304001"><ele>0.0</ele><time>2026-04-29T23:56:49.955Z</time></trkpt><trkpt lat="40.1215386" lon="1.4304606"><ele>0.0</ele><time>2026-04-29T23:56:50.956Z</time></trkpt><trkpt lat="40.1216136" lon="1.4305166"><ele>0.0</ele><time>2026-04-29T23:56:51.955Z</time></trkpt><trkpt lat="40.1216887" lon="1.4305754"><ele>0.0</ele><time>2026-04-29T23:56:52.956Z</time></trkpt><trkpt lat="40.1217624" lon="1.4306395"><ele>0.0</ele><time>2026-04-29T23:56:53.956Z</time></trkpt><trkpt lat="40.1218384" lon="1.430694"><ele>0.0</ele><time>2026-04-29T23:56:54.956Z</time></trkpt><trkpt lat="40.1219205" lon="1.4307604"><ele>0.0</ele><time>2026-04-29T23:56:55.955Z</time></trkpt><trkpt lat="40.122004" lon="1.4308174"><ele>0.0</ele><time>2026-04-29T23:56:56.955Z</time></trkpt><trkpt lat="40.1220777" lon="1.4308655"><ele>0.0</ele><time>2026-04-29T23:56:57.956Z</time></trkpt><trkpt lat="40.1221592" lon="1.4309178"><ele>0.0</ele><time>2026-04-29T23:56:58.955Z</time></trkpt><trkpt lat="40.1222325" lon="1.4309714"><ele>0.0</ele><time>2026-04-29T23:56:59.956Z</time></trkpt><trkpt lat="40.1223072" lon="1.4310233"><ele>0.0</ele><time>2026-04-29T23:57:00.956Z</time></trkpt><trkpt lat="40.1223821" lon="1.4310728"><ele>0.0</ele><time>2026-04-29T23:57:01.955Z</time></trkpt><trkpt lat="40.1224571" lon="1.4311157"><ele>0.0</ele><time>2026-04-29T23:57:02.956Z</time></trkpt><trkpt lat="40.122529" lon="1.431163"><ele>0.0</ele><time>2026-04-29T23:57:03.955Z</time></trkpt><trkpt lat="40.1225992" lon="1.431214"><ele>0.0</ele><time>2026-04-29T23:57:04.955Z</time></trkpt><trkpt lat="40.1226718" lon="1.4312667"><ele>0.0</ele><time>2026-04-29T23:57:05.956Z</time></trkpt><trkpt lat="40.1227471" lon="1.4313183"><ele>0.0</ele><time>2026-04-29T23:57:06.955Z</time></trkpt><trkpt lat="40.1228224" lon="1.4313642"><ele>0.0</ele><time>2026-04-29T23:57:07.955Z</time></trkpt><trkpt lat="40.1229018" lon="1.4314037"><ele>0.0</ele><time>2026-04-29T23:57:08.955Z</time></trkpt><trkpt lat="40.123049" lon="1.4314993"><ele>0.0</ele><time>2026-04-29T23:57:10.955Z</time></trkpt><trkpt lat="40.1231223" lon="1.4315441"><ele>0.0</ele><time>2026-04-29T23:57:11.956Z</time></trkpt><trkpt lat="40.1232" lon="1.431588"><ele>0.0</ele><time>2026-04-29T23:57:12.956Z</time></trkpt><trkpt lat="40.1232741" lon="1.4316461"><ele>0.0</ele><time>2026-04-29T23:57:13.956Z</time></trkpt><trkpt lat="40.1233476" lon="1.4316977"><ele>0.0</ele><time>2026-04-29T23:57:14.955Z</time></trkpt><trkpt lat="40.123428" lon="1.4317507"><ele>0.0</ele><time>2026-04-29T23:57:15.956Z</time></trkpt><trkpt lat="40.1235095" lon="1.4318065"><ele>0.0</ele><time>2026-04-29T23:57:16.955Z</time></trkpt><trkpt lat="40.1235895" lon="1.4318569"><ele>0.0</ele><time>2026-04-29T23:57:17.956Z</time></trkpt><trkpt lat="40.1236668" lon="1.4318982"><ele>0.0</ele><time>2026-04-29T23:57:18.955Z</time></trkpt><trkpt lat="40.1237405" lon="1.4319323"><ele>0.0</ele><time>2026-04-29T23:57:19.956Z</time></trkpt><trkpt lat="40.1238207" lon="1.4319768"><ele>0.0</ele><time>2026-04-29T23:57:20.956Z</time></trkpt><trkpt lat="40.1239024" lon="1.4320276"><ele>0.0</ele><time>2026-04-29T23:57:21.955Z</time></trkpt><trkpt lat="40.1239826" lon="1.4320839"><ele>0.0</ele><time>2026-04-29T23:57:22.955Z</time></trkpt><trkpt lat="40.1240587" lon="1.432155"><ele>0.0</ele><time>2026-04-29T23:57:23.956Z</time></trkpt><trkpt lat="40.1241366" lon="1.4322246"><ele>0.0</ele><time>2026-04-29T23:57:24.956Z</time></trkpt><trkpt lat="40.1242132" lon="1.4322658"><ele>0.0</ele><time>2026-04-29T23:57:25.956Z</time></trkpt><trkpt lat="40.1242927" lon="1.4323131"><ele>0.0</ele><time>2026-04-29T23:57:26.956Z</time></trkpt><trkpt lat="40.1243741" lon="1.4323641"><ele>0.0</ele><time>2026-04-29T23:57:27.956Z</time></trkpt><trkpt lat="40.1244526" lon="1.4324197"><ele>0.0</ele><time>2026-04-29T23:57:28.956Z</time></trkpt><trkpt lat="40.1245284" lon="1.4324722"><ele>0.0</ele><time>2026-04-29T23:57:29.956Z</time></trkpt><trkpt lat="40.1247574" lon="1.4326318"><ele>0.0</ele><time>2026-04-29T23:57:32.956Z</time></trkpt><trkpt lat="40.1248346" lon="1.4326827"><ele>0.0</ele><time>2026-04-29T23:57:33.955Z</time></trkpt><trkpt lat="40.1249087" lon="1.4327302"><ele>0.0</ele><time>2026-04-29T23:57:34.956Z</time></trkpt><trkpt lat="40.1249818" lon="1.4327858"><ele>0.0</ele><time>2026-04-29T23:57:35.955Z</time></trkpt><trkpt lat="40.1250539" lon="1.4328411"><ele>0.0</ele><time>2026-04-29T23:57:36.955Z</time></trkpt><trkpt lat="40.1251341" lon="1.4329015"><ele>0.0</ele><time>2026-04-29T23:57:37.956Z</time></trkpt><trkpt lat="40.1252088" lon="1.4329586"><ele>0.0</ele><time>2026-04-29T23:57:38.956Z</time></trkpt><trkpt lat="40.1252863" lon="1.4330154"><ele>0.0</ele><time>2026-04-29T23:57:39.955Z</time></trkpt><trkpt lat="40.1253633" lon="1.4330691"><ele>0.0</ele><time>2026-04-29T23:57:40.955Z</time></trkpt><trkpt lat="40.12544" lon="1.433125"><ele>0.0</ele><time>2026-04-29T23:57:41.955Z</time></trkpt><trkpt lat="40.1255195" lon="1.4331828"><ele>0.0</ele><time>2026-04-29T23:57:42.955Z</time></trkpt><trkpt lat="40.1255996" lon="1.433241"><ele>0.0</ele><time>2026-04-29T23:57:43.955Z</time></trkpt><trkpt lat="40.1256766" lon="1.4332991"><ele>0.0</ele><time>2026-04-29T23:57:44.956Z</time></trkpt><trkpt lat="40.1257518" lon="1.4333545"><ele>0.0</ele><time>2026-04-29T23:57:45.956Z</time></trkpt><trkpt lat="40.1258266" lon="1.4334165"><ele>0.0</ele><time>2026-04-29T23:57:46.956Z</time></trkpt><trkpt lat="40.1258988" lon="1.4334768"><ele>0.0</ele><time>2026-04-29T23:57:47.955Z</time></trkpt><trkpt lat="40.125979" lon="1.4335407"><ele>0.0</ele><time>2026-04-29T23:57:48.955Z</time></trkpt><trkpt lat="40.126061" lon="1.433606"><ele>0.0</ele><time>2026-04-29T23:57:49.956Z</time></trkpt><trkpt lat="40.1261401" lon="1.4336595"><ele>0.0</ele><time>2026-04-29T23:57:50.955Z</time></trkpt><trkpt lat="40.1262124" lon="1.433726"><ele>0.0</ele><time>2026-04-29T23:57:53.082Z</time></trkpt><trkpt lat="40.1265118" lon="1.433903"><ele>0.0</ele><time>2026-04-29T23:57:55.956Z</time></trkpt><trkpt lat="40.1265898" lon="1.4339439"><ele>0.0</ele><time>2026-04-29T23:57:56.955Z</time></trkpt><trkpt lat="40.1266724" lon="1.4339923"><ele>0.0</ele><time>2026-04-29T23:57:57.955Z</time></trkpt><trkpt lat="40.1267517" lon="1.4340397"><ele>0.0</ele><time>2026-04-29T23:57:58.956Z</time></trkpt><trkpt lat="40.1268328" lon="1.4340878"><ele>0.0</ele><time>2026-04-29T23:57:59.955Z</time></trkpt><trkpt lat="40.1269074" lon="1.4341443"><ele>0.0</ele><time>2026-04-29T23:58:00.955Z</time></trkpt><trkpt lat="40.1269823" lon="1.434197"><ele>0.0</ele><time>2026-04-29T23:58:01.955Z</time></trkpt><trkpt lat="40.1270584" lon="1.4342473"><ele>0.0</ele><time>2026-04-29T23:58:02.956Z</time></trkpt><trkpt lat="40.1271365" lon="1.4343089"><ele>0.0</ele><time>2026-04-29T23:58:03.955Z</time></trkpt><trkpt lat="40.1272149" lon="1.4343662"><ele>0.0</ele><time>2026-04-29T23:58:04.956Z</time></trkpt><trkpt lat="40.1272916" lon="1.4344202"><ele>0.0</ele><time>2026-04-29T23:58:05.955Z</time></trkpt><trkpt lat="40.127364" lon="1.4344606"><ele>0.0</ele><time>2026-04-29T23:58:06.955Z</time></trkpt><trkpt lat="40.1274386" lon="1.4345043"><ele>0.0</ele><time>2026-04-29T23:58:07.956Z</time></trkpt><trkpt lat="40.1275179" lon="1.4345551"><ele>0.0</ele><time>2026-04-29T23:58:08.956Z</time></trkpt><trkpt lat="40.1275939" lon="1.4346125"><ele>0.0</ele><time>2026-04-29T23:58:09.956Z</time></trkpt><trkpt lat="40.1276727" lon="1.4346642"><ele>0.0</ele><time>2026-04-29T23:58:10.955Z</time></trkpt><trkpt lat="40.1277471" lon="1.4347129"><ele>0.0</ele><time>2026-04-29T23:58:11.956Z</time></trkpt><trkpt lat="40.1278245" lon="1.4347696"><ele>0.0</ele><time>2026-04-29T23:58:12.955Z</time></trkpt><trkpt lat="40.1279041" lon="1.4348212"><ele>0.0</ele><time>2026-04-29T23:58:13.955Z</time></trkpt><trkpt lat="40.1280648" lon="1.4349173"><ele>0.0</ele><time>2026-04-29T23:58:15.955Z</time></trkpt><trkpt lat="40.1281448" lon="1.434964"><ele>0.0</ele><time>2026-04-29T23:58:16.955Z</time></trkpt><trkpt lat="40.1282247" lon="1.4350091"><ele>0.0</ele><time>2026-04-29T23:58:17.956Z</time></trkpt><trkpt lat="40.1283031" lon="1.4350548"><ele>0.0</ele><time>2026-04-29T23:58:18.955Z</time></trkpt><trkpt lat="40.1283816" lon="1.4351053"><ele>0.0</ele><time>2026-04-29T23:58:19.955Z</time></trkpt><trkpt lat="40.12846" lon="1.4351632"><ele>0.0</ele><time>2026-04-29T23:58:20.956Z</time></trkpt><trkpt lat="40.1285355" lon="1.4352161"><ele>0.0</ele><time>2026-04-29T23:58:21.956Z</time></trkpt><trkpt lat="40.1286088" lon="1.4352822"><ele>0.0</ele><time>2026-04-29T23:58:22.955Z</time></trkpt><trkpt lat="40.1286851" lon="1.4353482"><ele>0.0</ele><time>2026-04-29T23:58:23.955Z</time></trkpt><trkpt lat="40.1287587" lon="1.435416"><ele>0.0</ele><time>2026-04-29T23:58:24.955Z</time></trkpt><trkpt lat="40.1288335" lon="1.4354817"><ele>0.0</ele><time>2026-04-29T23:58:25.955Z</time></trkpt><trkpt lat="40.1289132" lon="1.4355357"><ele>0.0</ele><time>2026-04-29T23:58:26.955Z</time></trkpt><trkpt lat="40.1289887" lon="1.435583"><ele>0.0</ele><time>2026-04-29T23:58:27.955Z</time></trkpt><trkpt lat="40.1290637" lon="1.4356321"><ele>0.0</ele><time>2026-04-29T23:58:28.956Z</time></trkpt><trkpt lat="40.1291386" lon="1.4356844"><ele>0.0</ele><time>2026-04-29T23:58:29.955Z</time></trkpt><trkpt lat="40.1292128" lon="1.435732"><ele>0.0</ele><time>2026-04-29T23:58:30.956Z</time></trkpt><trkpt lat="40.1292859" lon="1.43578"><ele>0.0</ele><time>2026-04-29T23:58:31.956Z</time></trkpt><trkpt lat="40.1293592" lon="1.4358215"><ele>0.0</ele><time>2026-04-29T23:58:32.956Z</time></trkpt><trkpt lat="40.1294323" lon="1.43587"><ele>0.0</ele><time>2026-04-29T23:58:33.956Z</time></trkpt><trkpt lat="40.1296473" lon="1.4360306"><ele>0.0</ele><time>2026-04-29T23:58:36.955Z</time></trkpt><trkpt lat="40.1297316" lon="1.4360889"><ele>0.0</ele><time>2026-04-29T23:58:37.955Z</time></trkpt><trkpt lat="40.1298165" lon="1.4361377"><ele>0.0</ele><time>2026-04-29T23:58:38.956Z</time></trkpt><trkpt lat="40.1298945" lon="1.4361928"><ele>0.0</ele><time>2026-04-29T23:58:39.956Z</time></trkpt><trkpt lat="40.129973" lon="1.4362452"><ele>0.0</ele><time>2026-04-29T23:58:40.956Z</time></trkpt><trkpt lat="40.1300544" lon="1.4362995"><ele>0.0</ele><time>2026-04-29T23:58:41.955Z</time></trkpt><trkpt lat="40.1301321" lon="1.4363519"><ele>0.0</ele><time>2026-04-29T23:58:42.955Z</time></trkpt><trkpt lat="40.1302111" lon="1.4364131"><ele>0.0</ele><time>2026-04-29T23:58:43.955Z</time></trkpt><trkpt lat="40.1302868" lon="1.4364725"><ele>0.0</ele><time>2026-04-29T23:58:44.956Z</time></trkpt><trkpt lat="40.1303623" lon="1.4365223"><ele>0.0</ele><time>2026-04-29T23:58:45.955Z</time></trkpt><trkpt lat="40.1304344" lon="1.4365753"><ele>0.0</ele><time>2026-04-29T23:58:46.955Z</time></trkpt><trkpt lat="40.130503" lon="1.4366345"><ele>0.0</ele><time>2026-04-29T23:58:47.956Z</time></trkpt><trkpt lat="40.1305755" lon="1.4366944"><ele>0.0</ele><time>2026-04-29T23:58:48.956Z</time></trkpt><trkpt lat="40.1306508" lon="1.436756"><ele>0.0</ele><time>2026-04-29T23:58:49.956Z</time></trkpt><trkpt lat="40.1307256" lon="1.4368135"><ele>0.0</ele><time>2026-04-29T23:58:50.955Z</time></trkpt><trkpt lat="40.1308033" lon="1.4368685"><ele>0.0</ele><time>2026-04-29T23:58:51.955Z</time></trkpt><trkpt lat="40.1308859" lon="1.4369218"><ele>0.0</ele><time>2026-04-29T23:58:52.956Z</time></trkpt><trkpt lat="40.1309608" lon="1.4369665"><ele>0.0</ele><time>2026-04-29T23:58:53.956Z</time></trkpt><trkpt lat="40.131037" lon="1.4369914"><ele>0.0</ele><time>2026-04-29T23:58:54.956Z</time></trkpt><trkpt lat="40.1311151" lon="1.4370371"><ele>0.0</ele><time>2026-04-29T23:58:55.955Z</time></trkpt><trkpt lat="40.1312749" lon="1.437131"><ele>0.0</ele><time>2026-04-29T23:58:57.955Z</time></trkpt><trkpt lat="40.1313561" lon="1.437184"><ele>0.0</ele><time>2026-04-29T23:58:58.956Z</time></trkpt><trkpt lat="40.1314363" lon="1.4372363"><ele>0.0</ele><time>2026-04-29T23:58:59.956Z</time></trkpt><trkpt lat="40.1315132" lon="1.4372914"><ele>0.0</ele><time>2026-04-29T23:59:00.956Z</time></trkpt><trkpt lat="40.1315927" lon="1.4373416"><ele>0.0</ele><time>2026-04-29T23:59:01.955Z</time></trkpt><trkpt lat="40.1316715" lon="1.4373891"><ele>0.0</ele><time>2026-04-29T23:59:02.955Z</time></trkpt><trkpt lat="40.1317554" lon="1.4374361"><ele>0.0</ele><time>2026-04-29T23:59:03.955Z</time></trkpt><trkpt lat="40.1318333" lon="1.4374811"><ele>0.0</ele><time>2026-04-29T23:59:04.955Z</time></trkpt><trkpt lat="40.1319129" lon="1.4375254"><ele>0.0</ele><time>2026-04-29T23:59:05.956Z</time></trkpt><trkpt lat="40.1319884" lon="1.4375882"><ele>0.0</ele><time>2026-04-29T23:59:06.955Z</time></trkpt><trkpt lat="40.1320706" lon="1.4376384"><ele>0.0</ele><time>2026-04-29T23:59:07.956Z</time></trkpt><trkpt lat="40.1321512" lon="1.4376773"><ele>0.0</ele><time>2026-04-29T23:59:08.956Z</time></trkpt><trkpt lat="40.1322281" lon="1.4377178"><ele>0.0</ele><time>2026-04-29T23:59:09.955Z</time></trkpt><trkpt lat="40.1323022" lon="1.437768"><ele>0.0</ele><time>2026-04-29T23:59:10.956Z</time></trkpt><trkpt lat="40.1323758" lon="1.4378225"><ele>0.0</ele><time>2026-04-29T23:59:11.956Z</time></trkpt><trkpt lat="40.1324561" lon="1.4378805"><ele>0.0</ele><time>2026-04-29T23:59:12.956Z</time></trkpt><trkpt lat="40.1325305" lon="1.4379334"><ele>0.0</ele><time>2026-04-29T23:59:13.955Z</time></trkpt><trkpt lat="40.1326067" lon="1.437988"><ele>0.0</ele><time>2026-04-29T23:59:14.955Z</time></trkpt><trkpt lat="40.1326819" lon="1.4380472"><ele>0.0</ele><time>2026-04-29T23:59:15.956Z</time></trkpt><trkpt lat="40.1327611" lon="1.4381074"><ele>0.0</ele><time>2026-04-29T23:59:16.955Z</time></trkpt><trkpt lat="40.132905" lon="1.4382381"><ele>0.0</ele><time>2026-04-29T23:59:18.955Z</time></trkpt><trkpt lat="40.1329799" lon="1.4382974"><ele>0.0</ele><time>2026-04-29T23:59:19.956Z</time></trkpt><trkpt lat="40.1330552" lon="1.4383222"><ele>0.0</ele><time>2026-04-29T23:59:20.955Z</time></trkpt><trkpt lat="40.1331273" lon="1.4383742"><ele>0.0</ele><time>2026-04-29T23:59:21.955Z</time></trkpt><trkpt lat="40.1332006" lon="1.4384327"><ele>0.0</ele><time>2026-04-29T23:59:22.955Z</time></trkpt><trkpt lat="40.133277" lon="1.4384953"><ele>0.0</ele><time>2026-04-29T23:59:23.956Z</time></trkpt><trkpt lat="40.1333464" lon="1.4385531"><ele>0.0</ele><time>2026-04-29T23:59:24.956Z</time></trkpt><trkpt lat="40.1334229" lon="1.4386112"><ele>0.0</ele><time>2026-04-29T23:59:25.955Z</time></trkpt><trkpt lat="40.1335025" lon="1.4386747"><ele>0.0</ele><time>2026-04-29T23:59:26.956Z</time></trkpt><trkpt lat="40.1335781" lon="1.4387284"><ele>0.0</ele><time>2026-04-29T23:59:27.956Z</time></trkpt><trkpt lat="40.1336561" lon="1.4387888"><ele>0.0</ele><time>2026-04-29T23:59:28.955Z</time></trkpt><trkpt lat="40.133733" lon="1.4388462"><ele>0.0</ele><time>2026-04-29T23:59:29.956Z</time></trkpt><trkpt lat="40.1338141" lon="1.4389027"><ele>0.0</ele><time>2026-04-29T23:59:30.956Z</time></trkpt><trkpt lat="40.1338918" lon="1.4389691"><ele>0.0</ele><time>2026-04-29T23:59:31.956Z</time></trkpt><trkpt lat="40.1339684" lon="1.4390377"><ele>0.0</ele><time>2026-04-29T23:59:32.955Z</time></trkpt><trkpt lat="40.1340464" lon="1.439101"><ele>0.0</ele><time>2026-04-29T23:59:33.955Z</time></trkpt><trkpt lat="40.1341235" lon="1.4391543"><ele>0.0</ele><time>2026-04-29T23:59:34.955Z</time></trkpt><trkpt lat="40.1341974" lon="1.4392059"><ele>0.0</ele><time>2026-04-29T23:59:35.955Z</time></trkpt><trkpt lat="40.1342677" lon="1.439258"><ele>0.0</ele><time>2026-04-29T23:59:36.956Z</time></trkpt><trkpt lat="40.1343406" lon="1.4393066"><ele>0.0</ele><time>2026-04-29T23:59:37.955Z</time></trkpt><trkpt lat="40.1344151" lon="1.4393548"><ele>0.0</ele><time>2026-04-29T23:59:38.955Z</time></trkpt><trkpt lat="40.1345731" lon="1.4394622"><ele>0.0</ele><time>2026-04-29T23:59:40.955Z</time></trkpt><trkpt lat="40.1346556" lon="1.4395076"><ele>0.0</ele><time>2026-04-29T23:59:41.955Z</time></trkpt><trkpt lat="40.1347319" lon="1.4395581"><ele>0.0</ele><time>2026-04-29T23:59:42.955Z</time></trkpt><trkpt lat="40.1348064" lon="1.43962"><ele>0.0</ele><time>2026-04-29T23:59:43.955Z</time></trkpt><trkpt lat="40.134886" lon="1.439669"><ele>0.0</ele><time>2026-04-29T23:59:44.955Z</time></trkpt><trkpt lat="40.1349622" lon="1.4397192"><ele>0.0</ele><time>2026-04-29T23:59:45.955Z</time></trkpt><trkpt lat="40.1350355" lon="1.4397749"><ele>0.0</ele><time>2026-04-29T23:59:46.955Z</time></trkpt><trkpt lat="40.135106" lon="1.4398187"><ele>0.0</ele><time>2026-04-29T23:59:47.955Z</time></trkpt><trkpt lat="40.1351771" lon="1.4398629"><ele>0.0</ele><time>2026-04-29T23:59:48.956Z</time></trkpt><trkpt lat="40.1352475" lon="1.439925"><ele>0.0</ele><time>2026-04-29T23:59:49.956Z</time></trkpt><trkpt lat="40.1353219" lon="1.4399827"><ele>0.0</ele><time>2026-04-29T23:59:50.955Z</time></trkpt><trkpt lat="40.1353911" lon="1.4400127"><ele>0.0</ele><time>2026-04-29T23:59:51.955Z</time></trkpt><trkpt lat="40.135468" lon="1.4400658"><ele>0.0</ele><time>2026-04-29T23:59:52.955Z</time></trkpt><trkpt lat="40.1355491" lon="1.4401187"><ele>0.0</ele><time>2026-04-29T23:59:53.955Z</time></trkpt><trkpt lat="40.1356294" lon="1.4401731"><ele>0.0</ele><time>2026-04-29T23:59:54.956Z</time></trkpt><trkpt lat="40.1357111" lon="1.4402247"><ele>0.0</ele><time>2026-04-29T23:59:55.955Z</time></trkpt><trkpt lat="40.1357958" lon="1.4402782"><ele>0.0</ele><time>2026-04-29T23:59:56.955Z</time></trkpt><trkpt lat="40.1358747" lon="1.4403349"><ele>0.0</ele><time>2026-04-29T23:59:57.955Z</time></trkpt><trkpt lat="40.1359602" lon="1.4404014"><ele>0.0</ele><time>2026-04-29T23:59:58.955Z</time></trkpt><trkpt lat="40.1360409" lon="1.4404598"><ele>0.0</ele><time>2026-04-29T23:59:59.955Z</time></trkpt><trkpt lat="40.1361976" lon="1.4405788"><ele>0.0</ele><time>2026-04-30T00:00:01.955Z</time></trkpt><trkpt lat="40.1362761" lon="1.4406394"><ele>0.0</ele><time>2026-04-30T00:00:02.955Z</time></trkpt><trkpt lat="40.136353" lon="1.4406937"><ele>0.0</ele><time>2026-04-30T00:00:03.955Z</time></trkpt><trkpt lat="40.136433" lon="1.4407409"><ele>0.0</ele><time>2026-04-30T00:00:04.955Z</time></trkpt><trkpt lat="40.1365059" lon="1.4407791"><ele>0.0</ele><time>2026-04-30T00:00:05.956Z</time></trkpt><trkpt lat="40.1365791" lon="1.4408256"><ele>0.0</ele><time>2026-04-30T00:00:06.955Z</time></trkpt><trkpt lat="40.1366566" lon="1.4408689"><ele>0.0</ele><time>2026-04-30T00:00:07.955Z</time></trkpt><trkpt lat="40.1367306" lon="1.4409091"><ele>0.0</ele><time>2026-04-30T00:00:08.955Z</time></trkpt><trkpt lat="40.1368057" lon="1.4409615"><ele>0.0</ele><time>2026-04-30T00:00:09.954Z</time></trkpt><trkpt lat="40.1369594" lon="1.4410693"><ele>0.0</ele><time>2026-04-30T00:00:11.954Z</time></trkpt><trkpt lat="40.1370395" lon="1.4411269"><ele>0.0</ele><time>2026-04-30T00:00:12.954Z</time></trkpt><trkpt lat="40.1371137" lon="1.4411772"><ele>0.0</ele><time>2026-04-30T00:00:13.954Z</time></trkpt><trkpt lat="40.1371899" lon="1.4412288"><ele>0.0</ele><time>2026-04-30T00:00:14.955Z</time></trkpt><trkpt lat="40.1372666" lon="1.4412837"><ele>0.0</ele><time>2026-04-30T00:00:15.954Z</time></trkpt><trkpt lat="40.1373436" lon="1.4413264"><ele>0.0</ele><time>2026-04-30T00:00:16.955Z</time></trkpt><trkpt lat="40.1374199" lon="1.4413693"><ele>0.0</ele><time>2026-04-30T00:00:17.955Z</time></trkpt><trkpt lat="40.1375006" lon="1.4414213"><ele>0.0</ele><time>2026-04-30T00:00:18.954Z</time></trkpt><trkpt lat="40.1375764" lon="1.4414665"><ele>0.0</ele><time>2026-04-30T00:00:19.955Z</time></trkpt><trkpt lat="40.1376527" lon="1.4415072"><ele>0.0</ele><time>2026-04-30T00:00:20.954Z</time></trkpt><trkpt lat="40.1378009" lon="1.4415985"><ele>0.0</ele><time>2026-04-30T00:00:22.954Z</time></trkpt><trkpt lat="40.1378867" lon="1.4416443"><ele>0.0</ele><time>2026-04-30T00:00:23.955Z</time></trkpt><trkpt lat="40.1379625" lon="1.4416962"><ele>0.0</ele><time>2026-04-30T00:00:24.955Z</time></trkpt><trkpt lat="40.1380383" lon="1.441753"><ele>0.0</ele><time>2026-04-30T00:00:25.955Z</time></trkpt><trkpt lat="40.1381151" lon="1.4418015"><ele>0.0</ele><time>2026-04-30T00:00:26.954Z</time></trkpt><trkpt lat="40.1381914" lon="1.4418541"><ele>0.0</ele><time>2026-04-30T00:00:27.955Z</time></trkpt><trkpt lat="40.1382712" lon="1.4419036"><ele>0.0</ele><time>2026-04-30T00:00:28.954Z</time></trkpt><trkpt lat="40.1383469" lon="1.441948"><ele>0.0</ele><time>2026-04-30T00:00:29.955Z</time></trkpt><trkpt lat="40.1384275" lon="1.4419899"><ele>0.0</ele><time>2026-04-30T00:00:30.955Z</time></trkpt><trkpt lat="40.1385059" lon="1.4420459"><ele>0.0</ele><time>2026-04-30T00:00:31.954Z</time></trkpt><trkpt lat="40.138586" lon="1.4420984"><ele>0.0</ele><time>2026-04-30T00:00:32.954Z</time></trkpt><trkpt lat="40.1386687" lon="1.4421544"><ele>0.0</ele><time>2026-04-30T00:00:33.954Z</time></trkpt><trkpt lat="40.1387507" lon="1.4422157"><ele>0.0</ele><time>2026-04-30T00:00:34.955Z</time></trkpt><trkpt lat="40.1388322" lon="1.4422728"><ele>0.0</ele><time>2026-04-30T00:00:35.955Z</time></trkpt><trkpt lat="40.1389125" lon="1.442329"><ele>0.0</ele><time>2026-04-30T00:00:36.954Z</time></trkpt><trkpt lat="40.1389916" lon="1.4423873"><ele>0.0</ele><time>2026-04-30T00:00:37.955Z</time></trkpt><trkpt lat="40.1390738" lon="1.4424445"><ele>0.0</ele><time>2026-04-30T00:00:38.955Z</time></trkpt><trkpt lat="40.1391532" lon="1.4425247"><ele>0.0</ele><time>2026-04-30T00:00:39.954Z</time></trkpt><trkpt lat="40.1392228" lon="1.4425869"><ele>0.0</ele><time>2026-04-30T00:00:40.954Z</time></trkpt><trkpt lat="40.1392915" lon="1.4426386"><ele>0.0</ele><time>2026-04-30T00:00:41.954Z</time></trkpt><trkpt lat="40.1395213" lon="1.4427819"><ele>0.0</ele><time>2026-04-30T00:00:44.954Z</time></trkpt><trkpt lat="40.1396013" lon="1.442825"><ele>0.0</ele><time>2026-04-30T00:00:45.954Z</time></trkpt><trkpt lat="40.1396813" lon="1.4428686"><ele>0.0</ele><time>2026-04-30T00:00:46.954Z</time></trkpt><trkpt lat="40.1397584" lon="1.4429254"><ele>0.0</ele><time>2026-04-30T00:00:47.954Z</time></trkpt><trkpt lat="40.1398353" lon="1.4429751"><ele>0.0</ele><time>2026-04-30T00:00:48.954Z</time></trkpt><trkpt lat="40.1399087" lon="1.4430282"><ele>0.0</ele><time>2026-04-30T00:00:49.955Z</time></trkpt><trkpt lat="40.1399891" lon="1.4430818"><ele>0.0</ele><time>2026-04-30T00:00:50.954Z</time></trkpt><trkpt lat="40.1400638" lon="1.4431394"><ele>0.0</ele><time>2026-04-30T00:00:51.954Z</time></trkpt><trkpt lat="40.1401416" lon="1.443195"><ele>0.0</ele><time>2026-04-30T00:00:52.954Z</time></trkpt><trkpt lat="40.1402214" lon="1.4432433"><ele>0.0</ele><time>2026-04-30T00:00:53.955Z</time></trkpt><trkpt lat="40.1402968" lon="1.4432986"><ele>0.0</ele><time>2026-04-30T00:00:54.954Z</time></trkpt><trkpt lat="40.1403701" lon="1.4433496"><ele>0.0</ele><time>2026-04-30T00:00:55.955Z</time></trkpt><trkpt lat="40.1404407" lon="1.4434009"><ele>0.0</ele><time>2026-04-30T00:00:56.954Z</time></trkpt><trkpt lat="40.1405137" lon="1.443454"><ele>0.0</ele><time>2026-04-30T00:00:57.955Z</time></trkpt><trkpt lat="40.1405842" lon="1.4435041"><ele>0.0</ele><time>2026-04-30T00:00:58.955Z</time></trkpt><trkpt lat="40.1406585" lon="1.4435556"><ele>0.0</ele><time>2026-04-30T00:00:59.954Z</time></trkpt><trkpt lat="40.1407347" lon="1.4436088"><ele>0.0</ele><time>2026-04-30T00:01:00.955Z</time></trkpt><trkpt lat="40.1408143" lon="1.4436733"><ele>0.0</ele><time>2026-04-30T00:01:01.954Z</time></trkpt><trkpt lat="40.1408948" lon="1.4437267"><ele>0.0</ele><time>2026-04-30T00:01:02.955Z</time></trkpt><trkpt lat="40.1409719" lon="1.443777"><ele>0.0</ele><time>2026-04-30T00:01:03.954Z</time></trkpt><trkpt lat="40.1411281" lon="1.4438945"><ele>0.0</ele><time>2026-04-30T00:01:05.955Z</time></trkpt><trkpt lat="40.1412079" lon="1.4439611"><ele>0.0</ele><time>2026-04-30T00:01:06.955Z</time></trkpt><trkpt lat="40.1412863" lon="1.4440222"><ele>0.0</ele><time>2026-04-30T00:01:07.955Z</time></trkpt><trkpt lat="40.1413601" lon="1.4440879"><ele>0.0</ele><time>2026-04-30T00:01:08.955Z</time></trkpt><trkpt lat="40.1414363" lon="1.4441645"><ele>0.0</ele><time>2026-04-30T00:01:09.955Z</time></trkpt><trkpt lat="40.1415146" lon="1.4442302"><ele>0.0</ele><time>2026-04-30T00:01:10.954Z</time></trkpt><trkpt lat="40.14159" lon="1.4442836"><ele>0.0</ele><time>2026-04-30T00:01:11.954Z</time></trkpt><trkpt lat="40.1416732" lon="1.444339"><ele>0.0</ele><time>2026-04-30T00:01:12.954Z</time></trkpt><trkpt lat="40.1417517" lon="1.4443937"><ele>0.0</ele><time>2026-04-30T00:01:13.955Z</time></trkpt><trkpt lat="40.1418311" lon="1.4444487"><ele>0.0</ele><time>2026-04-30T00:01:14.955Z</time></trkpt><trkpt lat="40.141907" lon="1.4445016"><ele>0.0</ele><time>2026-04-30T00:01:15.954Z</time></trkpt><trkpt lat="40.1419836" lon="1.4445548"><ele>0.0</ele><time>2026-04-30T00:01:16.954Z</time></trkpt><trkpt lat="40.1420562" lon="1.4446037"><ele>0.0</ele><time>2026-04-30T00:01:17.954Z</time></trkpt><trkpt lat="40.1421246" lon="1.4446481"><ele>0.0</ele><time>2026-04-30T00:01:18.954Z</time></trkpt><trkpt lat="40.1421934" lon="1.4446969"><ele>0.0</ele><time>2026-04-30T00:01:19.954Z</time></trkpt><trkpt lat="40.1422672" lon="1.4447458"><ele>0.0</ele><time>2026-04-30T00:01:20.954Z</time></trkpt><trkpt lat="40.1423509" lon="1.4447941"><ele>0.0</ele><time>2026-04-30T00:01:21.954Z</time></trkpt><trkpt lat="40.1424328" lon="1.4448545"><ele>0.0</ele><time>2026-04-30T00:01:22.954Z</time></trkpt><trkpt lat="40.1425103" lon="1.4449064"><ele>0.0</ele><time>2026-04-30T00:01:23.954Z</time></trkpt><trkpt lat="40.1425854" lon="1.4449512"><ele>0.0</ele><time>2026-04-30T00:01:24.954Z</time></trkpt><trkpt lat="40.1427412" lon="1.4450682"><ele>0.0</ele><time>2026-04-30T00:01:26.954Z</time></trkpt><trkpt lat="40.1428197" lon="1.4451273"><ele>0.0</ele><time>2026-04-30T00:01:27.955Z</time></trkpt><trkpt lat="40.1429012" lon="1.4451884"><ele>0.0</ele><time>2026-04-30T00:01:28.954Z</time></trkpt><trkpt lat="40.1429829" lon="1.445256"><ele>0.0</ele><time>2026-04-30T00:01:29.954Z</time></trkpt><trkpt lat="40.1430602" lon="1.4453115"><ele>0.0</ele><time>2026-04-30T00:01:30.955Z</time></trkpt><trkpt lat="40.1431411" lon="1.4453658"><ele>0.0</ele><time>2026-04-30T00:01:31.955Z</time></trkpt><trkpt lat="40.1432228" lon="1.4454222"><ele>0.0</ele><time>2026-04-30T00:01:32.954Z</time></trkpt><trkpt lat="40.1433005" lon="1.4454733"><ele>0.0</ele><time>2026-04-30T00:01:33.955Z</time></trkpt><trkpt lat="40.1433728" lon="1.4455219"><ele>0.0</ele><time>2026-04-30T00:01:34.954Z</time></trkpt><trkpt lat="40.143447" lon="1.4455715"><ele>0.0</ele><time>2026-04-30T00:01:35.955Z</time></trkpt><trkpt lat="40.143518" lon="1.4456174"><ele>0.0</ele><time>2026-04-30T00:01:36.954Z</time></trkpt><trkpt lat="40.1435921" lon="1.4456631"><ele>0.0</ele><time>2026-04-30T00:01:37.954Z</time></trkpt><trkpt lat="40.1436558" lon="1.4457299"><ele>0.0</ele><time>2026-04-30T00:01:38.955Z</time></trkpt><trkpt lat="40.1437233" lon="1.4457945"><ele>0.0</ele><time>2026-04-30T00:01:39.955Z</time></trkpt><trkpt lat="40.1437901" lon="1.4458479"><ele>0.0</ele><time>2026-04-30T00:01:40.954Z</time></trkpt><trkpt lat="40.1438636" lon="1.4459167"><ele>0.0</ele><time>2026-04-30T00:01:41.954Z</time></trkpt><trkpt lat="40.143937" lon="1.4459797"><ele>0.0</ele><time>2026-04-30T00:01:42.955Z</time></trkpt><trkpt lat="40.1440131" lon="1.4460345"><ele>0.0</ele><time>2026-04-30T00:01:43.954Z</time></trkpt><trkpt lat="40.1440928" lon="1.4460879"><ele>0.0</ele><time>2026-04-30T00:01:44.955Z</time></trkpt><trkpt lat="40.144173" lon="1.4461372"><ele>0.0</ele><time>2026-04-30T00:01:45.955Z</time></trkpt><trkpt lat="40.1442515" lon="1.446188"><ele>0.0</ele><time>2026-04-30T00:01:46.954Z</time></trkpt><trkpt lat="40.1444143" lon="1.4462876"><ele>0.0</ele><time>2026-04-30T00:01:48.954Z</time></trkpt><trkpt lat="40.1444933" lon="1.4463433"><ele>0.0</ele><time>2026-04-30T00:01:49.954Z</time></trkpt><trkpt lat="40.1445703" lon="1.4464001"><ele>0.0</ele><time>2026-04-30T00:01:50.955Z</time></trkpt><trkpt lat="40.1446498" lon="1.4464556"><ele>0.0</ele><time>2026-04-30T00:01:51.955Z</time></trkpt><trkpt lat="40.1447255" lon="1.4465062"><ele>0.0</ele><time>2026-04-30T00:01:52.954Z</time></trkpt><trkpt lat="40.144802" lon="1.4465491"><ele>0.0</ele><time>2026-04-30T00:01:53.955Z</time></trkpt><trkpt lat="40.1448715" lon="1.4466105"><ele>0.0</ele><time>2026-04-30T00:01:54.955Z</time></trkpt><trkpt lat="40.1449542" lon="1.4466575"><ele>0.0</ele><time>2026-04-30T00:01:55.954Z</time></trkpt><trkpt lat="40.1450349" lon="1.446701"><ele>0.0</ele><time>2026-04-30T00:01:56.955Z</time></trkpt><trkpt lat="40.1451136" lon="1.4467455"><ele>0.0</ele><time>2026-04-30T00:01:57.954Z</time></trkpt><trkpt lat="40.1451874" lon="1.4467936"><ele>0.0</ele><time>2026-04-30T00:01:58.955Z</time></trkpt><trkpt lat="40.1452634" lon="1.4468443"><ele>0.0</ele><time>2026-04-30T00:01:59.955Z</time></trkpt><trkpt lat="40.1453402" lon="1.4468956"><ele>0.0</ele><time>2026-04-30T00:02:00.954Z</time></trkpt><trkpt lat="40.1454257" lon="1.4469421"><ele>0.0</ele><time>2026-04-30T00:02:01.954Z</time></trkpt><trkpt lat="40.1455066" lon="1.4469962"><ele>0.0</ele><time>2026-04-30T00:02:02.954Z</time></trkpt><trkpt lat="40.1455907" lon="1.4470663"><ele>0.0</ele><time>2026-04-30T00:02:03.954Z</time></trkpt><trkpt lat="40.1456686" lon="1.4471196"><ele>0.0</ele><time>2026-04-30T00:02:04.954Z</time></trkpt><trkpt lat="40.1457538" lon="1.4471675"><ele>0.0</ele><time>2026-04-30T00:02:05.954Z</time></trkpt><trkpt lat="40.145839" lon="1.4472158"><ele>0.0</ele><time>2026-04-30T00:02:06.955Z</time></trkpt><trkpt lat="40.1459171" lon="1.4472568"><ele>0.0</ele><time>2026-04-30T00:02:07.954Z</time></trkpt><trkpt lat="40.1459952" lon="1.4473036"><ele>0.0</ele><time>2026-04-30T00:02:08.955Z</time></trkpt><trkpt lat="40.1461506" lon="1.4474419"><ele>0.0</ele><time>2026-04-30T00:02:10.955Z</time></trkpt><trkpt lat="40.1462282" lon="1.4474922"><ele>0.0</ele><time>2026-04-30T00:02:11.954Z</time></trkpt><trkpt lat="40.1463077" lon="1.4475325"><ele>0.0</ele><time>2026-04-30T00:02:12.954Z</time></trkpt><trkpt lat="40.1463868" lon="1.4475833"><ele>0.0</ele><time>2026-04-30T00:02:13.954Z</time></trkpt><trkpt lat="40.146465" lon="1.4476362"><ele>0.0</ele><time>2026-04-30T00:02:14.955Z</time></trkpt><trkpt lat="40.1465447" lon="1.4476657"><ele>0.0</ele><time>2026-04-30T00:02:15.955Z</time></trkpt><trkpt lat="40.1466275" lon="1.44769"><ele>0.0</ele><time>2026-04-30T00:02:16.954Z</time></trkpt><trkpt lat="40.1467068" lon="1.4477267"><ele>0.0</ele><time>2026-04-30T00:02:17.954Z</time></trkpt><trkpt lat="40.1468622" lon="1.4478352"><ele>0.0</ele><time>2026-04-30T00:02:19.955Z</time></trkpt><trkpt lat="40.1469316" lon="1.4478963"><ele>0.0</ele><time>2026-04-30T00:02:20.954Z</time></trkpt><trkpt lat="40.1470026" lon="1.4479576"><ele>0.0</ele><time>2026-04-30T00:02:21.954Z</time></trkpt><trkpt lat="40.147074" lon="1.448017"><ele>0.0</ele><time>2026-04-30T00:02:22.955Z</time></trkpt><trkpt lat="40.1471527" lon="1.4480702"><ele>0.0</ele><time>2026-04-30T00:02:23.954Z</time></trkpt><trkpt lat="40.14723" lon="1.4481421"><ele>0.0</ele><time>2026-04-30T00:02:24.954Z</time></trkpt><trkpt lat="40.1473081" lon="1.4481997"><ele>0.0</ele><time>2026-04-30T00:02:25.955Z</time></trkpt><trkpt lat="40.1473879" lon="1.4482527"><ele>0.0</ele><time>2026-04-30T00:02:26.954Z</time></trkpt><trkpt lat="40.147471" lon="1.4483026"><ele>0.0</ele><time>2026-04-30T00:02:27.954Z</time></trkpt><trkpt lat="40.1475514" lon="1.4483582"><ele>0.0</ele><time>2026-04-30T00:02:28.955Z</time></trkpt><trkpt lat="40.14763" lon="1.4484116"><ele>0.0</ele><time>2026-04-30T00:02:29.955Z</time></trkpt><trkpt lat="40.1477871" lon="1.4485171"><ele>0.0</ele><time>2026-04-30T00:02:31.955Z</time></trkpt><trkpt lat="40.1478622" lon="1.448567"><ele>0.0</ele><time>2026-04-30T00:02:32.954Z</time></trkpt><trkpt lat="40.1479412" lon="1.4486313"><ele>0.0</ele><time>2026-04-30T00:02:33.954Z</time></trkpt><trkpt lat="40.1480183" lon="1.4486807"><ele>0.0</ele><time>2026-04-30T00:02:34.955Z</time></trkpt><trkpt lat="40.1480935" lon="1.4487288"><ele>0.0</ele><time>2026-04-30T00:02:35.955Z</time></trkpt><trkpt lat="40.14817" lon="1.4487761"><ele>0.0</ele><time>2026-04-30T00:02:36.955Z</time></trkpt><trkpt lat="40.1482466" lon="1.4488259"><ele>0.0</ele><time>2026-04-30T00:02:37.955Z</time></trkpt><trkpt lat="40.1483177" lon="1.4488926"><ele>0.0</ele><time>2026-04-30T00:02:38.954Z</time></trkpt><trkpt lat="40.1483976" lon="1.4489454"><ele>0.0</ele><time>2026-04-30T00:02:39.954Z</time></trkpt><trkpt lat="40.1484767" lon="1.4489949"><ele>0.0</ele><time>2026-04-30T00:02:40.955Z</time></trkpt><trkpt lat="40.1485588" lon="1.4490467"><ele>0.0</ele><time>2026-04-30T00:02:41.955Z</time></trkpt><trkpt lat="40.1486394" lon="1.4491012"><ele>0.0</ele><time>2026-04-30T00:02:42.954Z</time></trkpt><trkpt lat="40.1487196" lon="1.4491529"><ele>0.0</ele><time>2026-04-30T00:02:43.954Z</time></trkpt><trkpt lat="40.1487997" lon="1.4492254"><ele>0.0</ele><time>2026-04-30T00:02:44.955Z</time></trkpt><trkpt lat="40.1488783" lon="1.44931"><ele>0.0</ele><time>2026-04-30T00:02:45.954Z</time></trkpt><trkpt lat="40.1489594" lon="1.4493656"><ele>0.0</ele><time>2026-04-30T00:02:46.954Z</time></trkpt><trkpt lat="40.1490426" lon="1.4494152"><ele>0.0</ele><time>2026-04-30T00:02:47.955Z</time></trkpt><trkpt lat="40.1491217" lon="1.4494708"><ele>0.0</ele><time>2026-04-30T00:02:48.954Z</time></trkpt><trkpt lat="40.1492026" lon="1.4495186"><ele>0.0</ele><time>2026-04-30T00:02:49.955Z</time></trkpt><trkpt lat="40.1494421" lon="1.4496882"><ele>0.0</ele><time>2026-04-30T00:02:52.955Z</time></trkpt><trkpt lat="40.149512" lon="1.4497308"><ele>0.0</ele><time>2026-04-30T00:02:53.954Z</time></trkpt><trkpt lat="40.1495875" lon="1.4497793"><ele>0.0</ele><time>2026-04-30T00:02:54.955Z</time></trkpt><trkpt lat="40.1496624" lon="1.4498349"><ele>0.0</ele><time>2026-04-30T00:02:55.954Z</time></trkpt><trkpt lat="40.1497387" lon="1.4498878"><ele>0.0</ele><time>2026-04-30T00:02:56.955Z</time></trkpt><trkpt lat="40.1498166" lon="1.4499459"><ele>0.0</ele><time>2026-04-30T00:02:57.954Z</time></trkpt><trkpt lat="40.1498933" lon="1.4499945"><ele>0.0</ele><time>2026-04-30T00:02:58.955Z</time></trkpt><trkpt lat="40.1499705" lon="1.4500482"><ele>0.0</ele><time>2026-04-30T00:02:59.954Z</time></trkpt><trkpt lat="40.1500457" lon="1.450097"><ele>0.0</ele><time>2026-04-30T00:03:00.954Z</time></trkpt><trkpt lat="40.1501221" lon="1.4501489"><ele>0.0</ele><time>2026-04-30T00:03:01.954Z</time></trkpt><trkpt lat="40.1501946" lon="1.4501923"><ele>0.0</ele><time>2026-04-30T00:03:02.954Z</time></trkpt><trkpt lat="40.1502733" lon="1.4502412"><ele>0.0</ele><time>2026-04-30T00:03:03.954Z</time></trkpt><trkpt lat="40.1503557" lon="1.4503002"><ele>0.0</ele><time>2026-04-30T00:03:04.955Z</time></trkpt><trkpt lat="40.1504393" lon="1.4503544"><ele>0.0</ele><time>2026-04-30T00:03:05.955Z</time></trkpt><trkpt lat="40.1505173" lon="1.4504105"><ele>0.0</ele><time>2026-04-30T00:03:06.954Z</time></trkpt><trkpt lat="40.1505937" lon="1.4504644"><ele>0.0</ele><time>2026-04-30T00:03:07.954Z</time></trkpt><trkpt lat="40.1506672" lon="1.4505153"><ele>0.0</ele><time>2026-04-30T00:03:08.954Z</time></trkpt><trkpt lat="40.1507437" lon="1.4505633"><ele>0.0</ele><time>2026-04-30T00:03:09.955Z</time></trkpt><trkpt lat="40.150816" lon="1.4506087"><ele>0.0</ele><time>2026-04-30T00:03:10.954Z</time></trkpt><trkpt lat="40.1508908" lon="1.4506586"><ele>0.0</ele><time>2026-04-30T00:03:11.955Z</time></trkpt><trkpt lat="40.1510402" lon="1.450769"><ele>0.0</ele><time>2026-04-30T00:03:13.954Z</time></trkpt><trkpt lat="40.151116" lon="1.4508254"><ele>0.0</ele><time>2026-04-30T00:03:14.954Z</time></trkpt><trkpt lat="40.1511938" lon="1.4508809"><ele>0.0</ele><time>2026-04-30T00:03:15.955Z</time></trkpt><trkpt lat="40.1512748" lon="1.4509331"><ele>0.0</ele><time>2026-04-30T00:03:16.955Z</time></trkpt><trkpt lat="40.1513521" lon="1.4509897"><ele>0.0</ele><time>2026-04-30T00:03:17.954Z</time></trkpt><trkpt lat="40.1514287" lon="1.4510453"><ele>0.0</ele><time>2026-04-30T00:03:18.954Z</time></trkpt><trkpt lat="40.1515024" lon="1.4511087"><ele>0.0</ele><time>2026-04-30T00:03:19.955Z</time></trkpt><trkpt lat="40.1515757" lon="1.4511661"><ele>0.0</ele><time>2026-04-30T00:03:20.954Z</time></trkpt><trkpt lat="40.1516502" lon="1.4512233"><ele>0.0</ele><time>2026-04-30T00:03:21.954Z</time></trkpt><trkpt lat="40.1518064" lon="1.4513217"><ele>0.0</ele><time>2026-04-30T00:03:23.955Z</time></trkpt><trkpt lat="40.151882" lon="1.4513641"><ele>0.0</ele><time>2026-04-30T00:03:24.955Z</time></trkpt><trkpt lat="40.1519598" lon="1.4514112"><ele>0.0</ele><time>2026-04-30T00:03:25.954Z</time></trkpt><trkpt lat="40.1520437" lon="1.4514719"><ele>0.0</ele><time>2026-04-30T00:03:26.954Z</time></trkpt><trkpt lat="40.1521216" lon="1.4515305"><ele>0.0</ele><time>2026-04-30T00:03:27.955Z</time></trkpt><trkpt lat="40.1521987" lon="1.4515802"><ele>0.0</ele><time>2026-04-30T00:03:28.955Z</time></trkpt><trkpt lat="40.152267" lon="1.4516365"><ele>0.0</ele><time>2026-04-30T00:03:29.954Z</time></trkpt><trkpt lat="40.152338" lon="1.4516948"><ele>0.0</ele><time>2026-04-30T00:03:30.954Z</time></trkpt><trkpt lat="40.1524196" lon="1.4517391"><ele>0.0</ele><time>2026-04-30T00:03:31.955Z</time></trkpt><trkpt lat="40.1524957" lon="1.4517908"><ele>0.0</ele><time>2026-04-30T00:03:32.954Z</time></trkpt><trkpt lat="40.1526398" lon="1.4519025"><ele>0.0</ele><time>2026-04-30T00:03:34.954Z</time></trkpt><trkpt lat="40.1527104" lon="1.4519775"><ele>0.0</ele><time>2026-04-30T00:03:35.954Z</time></trkpt><trkpt lat="40.1527821" lon="1.4520351"><ele>0.0</ele><time>2026-04-30T00:03:36.954Z</time></trkpt><trkpt lat="40.152854" lon="1.4520911"><ele>0.0</ele><time>2026-04-30T00:03:37.954Z</time></trkpt><trkpt lat="40.1529254" lon="1.4521477"><ele>0.0</ele><time>2026-04-30T00:03:38.954Z</time></trkpt><trkpt lat="40.1530018" lon="1.452229"><ele>0.0</ele><time>2026-04-30T00:03:39.954Z</time></trkpt><trkpt lat="40.1530783" lon="1.452291"><ele>0.0</ele><time>2026-04-30T00:03:40.955Z</time></trkpt><trkpt lat="40.1531534" lon="1.4523423"><ele>0.0</ele><time>2026-04-30T00:03:41.954Z</time></trkpt><trkpt lat="40.1532383" lon="1.4523896"><ele>0.0</ele><time>2026-04-30T00:03:42.954Z</time></trkpt><trkpt lat="40.1533208" lon="1.4524394"><ele>0.0</ele><time>2026-04-30T00:03:43.955Z</time></trkpt><trkpt lat="40.153401" lon="1.4524864"><ele>0.0</ele><time>2026-04-30T00:03:44.954Z</time></trkpt><trkpt lat="40.1534811" lon="1.4525357"><ele>0.0</ele><time>2026-04-30T00:03:45.955Z</time></trkpt><trkpt lat="40.1535597" lon="1.4525786"><ele>0.0</ele><time>2026-04-30T00:03:46.955Z</time></trkpt><trkpt lat="40.1536394" lon="1.4526257"><ele>0.0</ele><time>2026-04-30T00:03:47.954Z</time></trkpt><trkpt lat="40.1537178" lon="1.4526741"><ele>0.0</ele><time>2026-04-30T00:03:48.954Z</time></trkpt><trkpt lat="40.1537975" lon="1.4527244"><ele>0.0</ele><time>2026-04-30T00:03:49.954Z</time></trkpt><trkpt lat="40.1538803" lon="1.4527771"><ele>0.0</ele><time>2026-04-30T00:03:50.954Z</time></trkpt><trkpt lat="40.1539618" lon="1.4528303"><ele>0.0</ele><time>2026-04-30T00:03:51.955Z</time></trkpt><trkpt lat="40.1540411" lon="1.4528914"><ele>0.0</ele><time>2026-04-30T00:03:52.955Z</time></trkpt><trkpt lat="40.1541197" lon="1.4529435"><ele>0.0</ele><time>2026-04-30T00:03:53.954Z</time></trkpt><trkpt lat="40.1543588" lon="1.453107"><ele>0.0</ele><time>2026-04-30T00:03:56.955Z</time></trkpt><trkpt lat="40.1544326" lon="1.4531557"><ele>0.0</ele><time>2026-04-30T00:03:57.955Z</time></trkpt><trkpt lat="40.1545054" lon="1.4532121"><ele>0.0</ele><time>2026-04-30T00:03:58.954Z</time></trkpt><trkpt lat="40.1545831" lon="1.4532569"><ele>0.0</ele><time>2026-04-30T00:03:59.955Z</time></trkpt><trkpt lat="40.1546617" lon="1.4533088"><ele>0.0</ele><time>2026-04-30T00:04:00.954Z</time></trkpt><trkpt lat="40.1547372" lon="1.4533562"><ele>0.0</ele><time>2026-04-30T00:04:01.954Z</time></trkpt><trkpt lat="40.154812" lon="1.453411"><ele>0.0</ele><time>2026-04-30T00:04:02.954Z</time></trkpt><trkpt lat="40.1548858" lon="1.4534662"><ele>0.0</ele><time>2026-04-30T00:04:03.954Z</time></trkpt><trkpt lat="40.1549617" lon="1.4535268"><ele>0.0</ele><time>2026-04-30T00:04:04.955Z</time></trkpt><trkpt lat="40.1550382" lon="1.4535884"><ele>0.0</ele><time>2026-04-30T00:04:05.954Z</time></trkpt><trkpt lat="40.155115" lon="1.4536392"><ele>0.0</ele><time>2026-04-30T00:04:06.955Z</time></trkpt><trkpt lat="40.1551978" lon="1.4537013"><ele>0.0</ele><time>2026-04-30T00:04:07.954Z</time></trkpt><trkpt lat="40.1552767" lon="1.453753"><ele>0.0</ele><time>2026-04-30T00:04:08.955Z</time></trkpt><trkpt lat="40.1553562" lon="1.4538059"><ele>0.0</ele><time>2026-04-30T00:04:09.955Z</time></trkpt><trkpt lat="40.1554334" lon="1.4538572"><ele>0.0</ele><time>2026-04-30T00:04:10.954Z</time></trkpt><trkpt lat="40.1555146" lon="1.4539054"><ele>0.0</ele><time>2026-04-30T00:04:11.954Z</time></trkpt><trkpt lat="40.1555933" lon="1.4539562"><ele>0.0</ele><time>2026-04-30T00:04:12.954Z</time></trkpt><trkpt lat="40.1556744" lon="1.4540193"><ele>0.0</ele><time>2026-04-30T00:04:13.954Z</time></trkpt><trkpt lat="40.1557602" lon="1.4540716"><ele>0.0</ele><time>2026-04-30T00:04:14.955Z</time></trkpt><trkpt lat="40.1558426" lon="1.4541178"><ele>0.0</ele><time>2026-04-30T00:04:15.954Z</time></trkpt><trkpt lat="40.1560049" lon="1.4542146"><ele>0.0</ele><time>2026-04-30T00:04:17.954Z</time></trkpt><trkpt lat="40.156083" lon="1.4542714"><ele>0.0</ele><time>2026-04-30T00:04:18.954Z</time></trkpt><trkpt lat="40.1561669" lon="1.4543107"><ele>0.0</ele><time>2026-04-30T00:04:19.955Z</time></trkpt><trkpt lat="40.1562406" lon="1.4543564"><ele>0.0</ele><time>2026-04-30T00:04:20.955Z</time></trkpt><trkpt lat="40.1563138" lon="1.4544"><ele>0.0</ele><time>2026-04-30T00:04:21.955Z</time></trkpt><trkpt lat="40.15639" lon="1.4544459"><ele>0.0</ele><time>2026-04-30T00:04:22.954Z</time></trkpt><trkpt lat="40.1564637" lon="1.4544928"><ele>0.0</ele><time>2026-04-30T00:04:23.955Z</time></trkpt><trkpt lat="40.1565382" lon="1.4545452"><ele>0.0</ele><time>2026-04-30T00:04:24.953Z</time></trkpt><trkpt lat="40.1566133" lon="1.4546028"><ele>0.0</ele><time>2026-04-30T00:04:25.954Z</time></trkpt><trkpt lat="40.1567642" lon="1.4547054"><ele>0.0</ele><time>2026-04-30T00:04:27.953Z</time></trkpt><trkpt lat="40.1568405" lon="1.4547534"><ele>0.0</ele><time>2026-04-30T00:04:28.953Z</time></trkpt><trkpt lat="40.1569186" lon="1.4548116"><ele>0.0</ele><time>2026-04-30T00:04:29.953Z</time></trkpt><trkpt lat="40.156991" lon="1.454874"><ele>0.0</ele><time>2026-04-30T00:04:30.953Z</time></trkpt><trkpt lat="40.1570638" lon="1.4549382"><ele>0.0</ele><time>2026-04-30T00:04:31.954Z</time></trkpt><trkpt lat="40.15714" lon="1.4549947"><ele>0.0</ele><time>2026-04-30T00:04:32.954Z</time></trkpt><trkpt lat="40.1572123" lon="1.4550497"><ele>0.0</ele><time>2026-04-30T00:04:33.954Z</time></trkpt><trkpt lat="40.1572836" lon="1.4551126"><ele>0.0</ele><time>2026-04-30T00:04:34.953Z</time></trkpt><trkpt lat="40.1573582" lon="1.4551825"><ele>0.0</ele><time>2026-04-30T00:04:35.953Z</time></trkpt><trkpt lat="40.1574348" lon="1.4552326"><ele>0.0</ele><time>2026-04-30T00:04:36.954Z</time></trkpt><trkpt lat="40.1575825" lon="1.4553479"><ele>0.0</ele><time>2026-04-30T00:04:38.954Z</time></trkpt><trkpt lat="40.157666" lon="1.4553931"><ele>0.0</ele><time>2026-04-30T00:04:39.954Z</time></trkpt><trkpt lat="40.1577447" lon="1.4554428"><ele>0.0</ele><time>2026-04-30T00:04:40.954Z</time></trkpt><trkpt lat="40.1578246" lon="1.4554893"><ele>0.0</ele><time>2026-04-30T00:04:41.953Z</time></trkpt><trkpt lat="40.1579062" lon="1.4555403"><ele>0.0</ele><time>2026-04-30T00:04:42.953Z</time></trkpt><trkpt lat="40.1579835" lon="1.4555971"><ele>0.0</ele><time>2026-04-30T00:04:43.953Z</time></trkpt><trkpt lat="40.1580616" lon="1.4556452"><ele>0.0</ele><time>2026-04-30T00:04:44.953Z</time></trkpt><trkpt lat="40.1581416" lon="1.4556888"><ele>0.0</ele><time>2026-04-30T00:04:45.953Z</time></trkpt><trkpt lat="40.1582225" lon="1.45574"><ele>0.0</ele><time>2026-04-30T00:04:46.954Z</time></trkpt><trkpt lat="40.1582999" lon="1.455786"><ele>0.0</ele><time>2026-04-30T00:04:47.954Z</time></trkpt><trkpt lat="40.1583823" lon="1.4558339"><ele>0.0</ele><time>2026-04-30T00:04:48.953Z</time></trkpt><trkpt lat="40.1584642" lon="1.4558905"><ele>0.0</ele><time>2026-04-30T00:04:49.954Z</time></trkpt><trkpt lat="40.1585458" lon="1.4559886"><ele>0.0</ele><time>2026-04-30T00:04:50.953Z</time></trkpt><trkpt lat="40.1586162" lon="1.4560251"><ele>0.0</ele><time>2026-04-30T00:04:51.954Z</time></trkpt><trkpt lat="40.1586877" lon="1.4560597"><ele>0.0</ele><time>2026-04-30T00:04:52.954Z</time></trkpt><trkpt lat="40.1587663" lon="1.4561151"><ele>0.0</ele><time>2026-04-30T00:04:53.954Z</time></trkpt><trkpt lat="40.1588392" lon="1.4561664"><ele>0.0</ele><time>2026-04-30T00:04:54.953Z</time></trkpt><trkpt lat="40.1589152" lon="1.4562182"><ele>0.0</ele><time>2026-04-30T00:04:55.953Z</time></trkpt><trkpt lat="40.1589973" lon="1.4562723"><ele>0.0</ele><time>2026-04-30T00:04:56.953Z</time></trkpt><trkpt lat="40.159078" lon="1.4563258"><ele>0.0</ele><time>2026-04-30T00:04:57.953Z</time></trkpt><trkpt lat="40.159307" lon="1.4564839"><ele>0.0</ele><time>2026-04-30T00:05:00.953Z</time></trkpt><trkpt lat="40.1593792" lon="1.4565474"><ele>0.0</ele><time>2026-04-30T00:05:01.953Z</time></trkpt><trkpt lat="40.1594542" lon="1.4566052"><ele>0.0</ele><time>2026-04-30T00:05:02.953Z</time></trkpt><trkpt lat="40.1595302" lon="1.4566652"><ele>0.0</ele><time>2026-04-30T00:05:03.953Z</time></trkpt><trkpt lat="40.1596013" lon="1.4567196"><ele>0.0</ele><time>2026-04-30T00:05:04.953Z</time></trkpt><trkpt lat="40.1596751" lon="1.4567747"><ele>0.0</ele><time>2026-04-30T00:05:05.953Z</time></trkpt><trkpt lat="40.15975" lon="1.4568326"><ele>0.0</ele><time>2026-04-30T00:05:06.953Z</time></trkpt><trkpt lat="40.1598195" lon="1.4568922"><ele>0.0</ele><time>2026-04-30T00:05:07.953Z</time></trkpt><trkpt lat="40.1598975" lon="1.4569496"><ele>0.0</ele><time>2026-04-30T00:05:08.953Z</time></trkpt><trkpt lat="40.1599763" lon="1.4570047"><ele>0.0</ele><time>2026-04-30T00:05:09.954Z</time></trkpt><trkpt lat="40.1600562" lon="1.4570615"><ele>0.0</ele><time>2026-04-30T00:05:10.953Z</time></trkpt><trkpt lat="40.1601346" lon="1.4571213"><ele>0.0</ele><time>2026-04-30T00:05:11.953Z</time></trkpt><trkpt lat="40.1602144" lon="1.4571802"><ele>0.0</ele><time>2026-04-30T00:05:12.953Z</time></trkpt><trkpt lat="40.1602917" lon="1.4572355"><ele>0.0</ele><time>2026-04-30T00:05:13.953Z</time></trkpt><trkpt lat="40.1603702" lon="1.4572926"><ele>0.0</ele><time>2026-04-30T00:05:14.953Z</time></trkpt><trkpt lat="40.1604426" lon="1.4573597"><ele>0.0</ele><time>2026-04-30T00:05:15.953Z</time></trkpt><trkpt lat="40.1605128" lon="1.4574396"><ele>0.0</ele><time>2026-04-30T00:05:16.953Z</time></trkpt><trkpt lat="40.1605872" lon="1.4575029"><ele>0.0</ele><time>2026-04-30T00:05:17.953Z</time></trkpt><trkpt lat="40.1606604" lon="1.4575691"><ele>0.0</ele><time>2026-04-30T00:05:18.954Z</time></trkpt><trkpt lat="40.1607378" lon="1.45764"><ele>0.0</ele><time>2026-04-30T00:05:19.954Z</time></trkpt><trkpt lat="40.160895" lon="1.4577671"><ele>0.0</ele><time>2026-04-30T00:05:21.954Z</time></trkpt><trkpt lat="40.1609702" lon="1.4578303"><ele>0.0</ele><time>2026-04-30T00:05:22.954Z</time></trkpt><trkpt lat="40.1610436" lon="1.4578906"><ele>0.0</ele><time>2026-04-30T00:05:23.954Z</time></trkpt><trkpt lat="40.1611227" lon="1.4579504"><ele>0.0</ele><time>2026-04-30T00:05:24.953Z</time></trkpt><trkpt lat="40.1612041" lon="1.4580132"><ele>0.0</ele><time>2026-04-30T00:05:25.954Z</time></trkpt><trkpt lat="40.1612801" lon="1.4580547"><ele>0.0</ele><time>2026-04-30T00:05:26.954Z</time></trkpt><trkpt lat="40.1613523" lon="1.4581075"><ele>0.0</ele><time>2026-04-30T00:05:27.953Z</time></trkpt><trkpt lat="40.1614296" lon="1.4581299"><ele>0.0</ele><time>2026-04-30T00:05:28.953Z</time></trkpt><trkpt lat="40.1614981" lon="1.4581817"><ele>0.0</ele><time>2026-04-30T00:05:29.953Z</time></trkpt><trkpt lat="40.1616435" lon="1.4582993"><ele>0.0</ele><time>2026-04-30T00:05:31.953Z</time></trkpt><trkpt lat="40.1617182" lon="1.4583593"><ele>0.0</ele><time>2026-04-30T00:05:32.953Z</time></trkpt><trkpt lat="40.1617933" lon="1.4584169"><ele>0.0</ele><time>2026-04-30T00:05:33.954Z</time></trkpt><trkpt lat="40.1618684" lon="1.4584692"><ele>0.0</ele><time>2026-04-30T00:05:34.953Z</time></trkpt><trkpt lat="40.1619464" lon="1.4585292"><ele>0.0</ele><time>2026-04-30T00:05:35.954Z</time></trkpt><trkpt lat="40.1620262" lon="1.4585861"><ele>0.0</ele><time>2026-04-30T00:05:36.953Z</time></trkpt><trkpt lat="40.1621033" lon="1.4586436"><ele>0.0</ele><time>2026-04-30T00:05:37.953Z</time></trkpt><trkpt lat="40.16218" lon="1.4587037"><ele>0.0</ele><time>2026-04-30T00:05:38.953Z</time></trkpt><trkpt lat="40.1622582" lon="1.4587614"><ele>0.0</ele><time>2026-04-30T00:05:39.953Z</time></trkpt><trkpt lat="40.1623354" lon="1.4588196"><ele>0.0</ele><time>2026-04-30T00:05:40.954Z</time></trkpt><trkpt lat="40.162488" lon="1.4589269"><ele>0.0</ele><time>2026-04-30T00:05:42.954Z</time></trkpt><trkpt lat="40.162562" lon="1.4589792"><ele>0.0</ele><time>2026-04-30T00:05:43.953Z</time></trkpt><trkpt lat="40.1626365" lon="1.4590307"><ele>0.0</ele><time>2026-04-30T00:05:44.954Z</time></trkpt><trkpt lat="40.1627088" lon="1.45905"><ele>0.0</ele><time>2026-04-30T00:05:45.953Z</time></trkpt><trkpt lat="40.1627865" lon="1.4590918"><ele>0.0</ele><time>2026-04-30T00:05:46.953Z</time></trkpt><trkpt lat="40.1628661" lon="1.4591379"><ele>0.0</ele><time>2026-04-30T00:05:47.953Z</time></trkpt><trkpt lat="40.1629448" lon="1.4591899"><ele>0.0</ele><time>2026-04-30T00:05:48.953Z</time></trkpt><trkpt lat="40.1630229" lon="1.4592404"><ele>0.0</ele><time>2026-04-30T00:05:49.953Z</time></trkpt><trkpt lat="40.1630998" lon="1.4592968"><ele>0.0</ele><time>2026-04-30T00:05:50.954Z</time></trkpt><trkpt lat="40.1631749" lon="1.4593378"><ele>0.0</ele><time>2026-04-30T00:05:51.954Z</time></trkpt><trkpt lat="40.1632543" lon="1.4593626"><ele>0.0</ele><time>2026-04-30T00:05:52.954Z</time></trkpt><trkpt lat="40.1633326" lon="1.4593916"><ele>0.0</ele><time>2026-04-30T00:05:53.953Z</time></trkpt><trkpt lat="40.1634125" lon="1.4594181"><ele>0.0</ele><time>2026-04-30T00:05:54.953Z</time></trkpt><trkpt lat="40.1634971" lon="1.4594685"><ele>0.0</ele><time>2026-04-30T00:05:55.954Z</time></trkpt><trkpt lat="40.1635807" lon="1.45953"><ele>0.0</ele><time>2026-04-30T00:05:56.953Z</time></trkpt><trkpt lat="40.1636614" lon="1.4595914"><ele>0.0</ele><time>2026-04-30T00:05:57.953Z</time></trkpt><trkpt lat="40.1637398" lon="1.4596531"><ele>0.0</ele><time>2026-04-30T00:05:58.953Z</time></trkpt><trkpt lat="40.1638154" lon="1.4597174"><ele>0.0</ele><time>2026-04-30T00:05:59.954Z</time></trkpt><trkpt lat="40.1638932" lon="1.4597789"><ele>0.0</ele><time>2026-04-30T00:06:00.954Z</time></trkpt><trkpt lat="40.1639685" lon="1.4598113"><ele>0.0</ele><time>2026-04-30T00:06:01.954Z</time></trkpt><trkpt lat="40.1642043" lon="1.4599713"><ele>0.0</ele><time>2026-04-30T00:06:04.954Z</time></trkpt><trkpt lat="40.1642846" lon="1.4600364"><ele>0.0</ele><time>2026-04-30T00:06:05.954Z</time></trkpt><trkpt lat="40.1643616" lon="1.4600987"><ele>0.0</ele><time>2026-04-30T00:06:06.954Z</time></trkpt><trkpt lat="40.1644369" lon="1.4601605"><ele>0.0</ele><time>2026-04-30T00:06:07.954Z</time></trkpt><trkpt lat="40.1645132" lon="1.460225"><ele>0.0</ele><time>2026-04-30T00:06:08.954Z</time></trkpt><trkpt lat="40.1645912" lon="1.4602859"><ele>0.0</ele><time>2026-04-30T00:06:09.954Z</time></trkpt><trkpt lat="40.1646696" lon="1.4603456"><ele>0.0</ele><time>2026-04-30T00:06:10.954Z</time></trkpt><trkpt lat="40.1647481" lon="1.4604048"><ele>0.0</ele><time>2026-04-30T00:06:11.953Z</time></trkpt><trkpt lat="40.1648237" lon="1.4604669"><ele>0.0</ele><time>2026-04-30T00:06:12.953Z</time></trkpt><trkpt lat="40.1648974" lon="1.4605314"><ele>0.0</ele><time>2026-04-30T00:06:13.954Z</time></trkpt><trkpt lat="40.1649735" lon="1.4605875"><ele>0.0</ele><time>2026-04-30T00:06:14.953Z</time></trkpt><trkpt lat="40.165047" lon="1.4606512"><ele>0.0</ele><time>2026-04-30T00:06:15.953Z</time></trkpt><trkpt lat="40.1651217" lon="1.4607124"><ele>0.0</ele><time>2026-04-30T00:06:16.954Z</time></trkpt><trkpt lat="40.1651966" lon="1.4607709"><ele>0.0</ele><time>2026-04-30T00:06:17.954Z</time></trkpt><trkpt lat="40.1652702" lon="1.4608311"><ele>0.0</ele><time>2026-04-30T00:06:18.954Z</time></trkpt><trkpt lat="40.1653449" lon="1.4608959"><ele>0.0</ele><time>2026-04-30T00:06:19.953Z</time></trkpt><trkpt lat="40.1654225" lon="1.4609536"><ele>0.0</ele><time>2026-04-30T00:06:20.953Z</time></trkpt><trkpt lat="40.1654997" lon="1.4610108"><ele>0.0</ele><time>2026-04-30T00:06:21.953Z</time></trkpt><trkpt lat="40.1655766" lon="1.4610669"><ele>0.0</ele><time>2026-04-30T00:06:22.954Z</time></trkpt><trkpt lat="40.1656544" lon="1.4611199"><ele>0.0</ele><time>2026-04-30T00:06:23.953Z</time></trkpt><trkpt lat="40.1658082" lon="1.4612272"><ele>0.0</ele><time>2026-04-30T00:06:25.954Z</time></trkpt><trkpt lat="40.1658863" lon="1.4612857"><ele>0.0</ele><time>2026-04-30T00:06:26.954Z</time></trkpt><trkpt lat="40.1659662" lon="1.4613414"><ele>0.0</ele><time>2026-04-30T00:06:27.953Z</time></trkpt><trkpt lat="40.1660478" lon="1.4613983"><ele>0.0</ele><time>2026-04-30T00:06:28.954Z</time></trkpt><trkpt lat="40.1661256" lon="1.4614571"><ele>0.0</ele><time>2026-04-30T00:06:29.953Z</time></trkpt><trkpt lat="40.1662019" lon="1.4615172"><ele>0.0</ele><time>2026-04-30T00:06:30.953Z</time></trkpt><trkpt lat="40.1662797" lon="1.461576"><ele>0.0</ele><time>2026-04-30T00:06:31.953Z</time></trkpt><trkpt lat="40.1663566" lon="1.4616314"><ele>0.0</ele><time>2026-04-30T00:06:32.953Z</time></trkpt><trkpt lat="40.166433" lon="1.461695"><ele>0.0</ele><time>2026-04-30T00:06:33.954Z</time></trkpt><trkpt lat="40.166597" lon="1.4618088"><ele>0.0</ele><time>2026-04-30T00:06:35.953Z</time></trkpt><trkpt lat="40.1666822" lon="1.4618688"><ele>0.0</ele><time>2026-04-30T00:06:36.954Z</time></trkpt><trkpt lat="40.1667643" lon="1.4619208"><ele>0.0</ele><time>2026-04-30T00:06:37.953Z</time></trkpt><trkpt lat="40.1668447" lon="1.4619762"><ele>0.0</ele><time>2026-04-30T00:06:38.954Z</time></trkpt><trkpt lat="40.1669201" lon="1.4620359"><ele>0.0</ele><time>2026-04-30T00:06:39.954Z</time></trkpt><trkpt lat="40.1669975" lon="1.4620929"><ele>0.0</ele><time>2026-04-30T00:06:40.953Z</time></trkpt><trkpt lat="40.167076" lon="1.4621471"><ele>0.0</ele><time>2026-04-30T00:06:41.953Z</time></trkpt><trkpt lat="40.1671544" lon="1.4622006"><ele>0.0</ele><time>2026-04-30T00:06:42.953Z</time></trkpt><trkpt lat="40.1672372" lon="1.4622495"><ele>0.0</ele><time>2026-04-30T00:06:43.953Z</time></trkpt><trkpt lat="40.1673167" lon="1.4622962"><ele>0.0</ele><time>2026-04-30T00:06:44.954Z</time></trkpt><trkpt lat="40.1674716" lon="1.4623931"><ele>0.0</ele><time>2026-04-30T00:06:46.953Z</time></trkpt><trkpt lat="40.1675496" lon="1.4624469"><ele>0.0</ele><time>2026-04-30T00:06:47.953Z</time></trkpt><trkpt lat="40.1676294" lon="1.4625034"><ele>0.0</ele><time>2026-04-30T00:06:48.953Z</time></trkpt><trkpt lat="40.1677069" lon="1.4625668"><ele>0.0</ele><time>2026-04-30T00:06:49.954Z</time></trkpt><trkpt lat="40.1677834" lon="1.4625883"><ele>0.0</ele><time>2026-04-30T00:06:50.954Z</time></trkpt><trkpt lat="40.1678604" lon="1.4626357"><ele>0.0</ele><time>2026-04-30T00:06:51.954Z</time></trkpt><trkpt lat="40.1679369" lon="1.4626899"><ele>0.0</ele><time>2026-04-30T00:06:52.953Z</time></trkpt><trkpt lat="40.1680126" lon="1.462747"><ele>0.0</ele><time>2026-04-30T00:06:53.953Z</time></trkpt><trkpt lat="40.1680859" lon="1.4628041"><ele>0.0</ele><time>2026-04-30T00:06:54.954Z</time></trkpt><trkpt lat="40.1681608" lon="1.4628665"><ele>0.0</ele><time>2026-04-30T00:06:55.953Z</time></trkpt><trkpt lat="40.1682331" lon="1.4629288"><ele>0.0</ele><time>2026-04-30T00:06:56.954Z</time></trkpt><trkpt lat="40.1683073" lon="1.4629847"><ele>0.0</ele><time>2026-04-30T00:06:57.953Z</time></trkpt><trkpt lat="40.1683808" lon="1.4630391"><ele>0.0</ele><time>2026-04-30T00:06:58.953Z</time></trkpt><trkpt lat="40.1684567" lon="1.4630911"><ele>0.0</ele><time>2026-04-30T00:06:59.954Z</time></trkpt><trkpt lat="40.1685348" lon="1.4631439"><ele>0.0</ele><time>2026-04-30T00:07:00.954Z</time></trkpt><trkpt lat="40.1686109" lon="1.4631969"><ele>0.0</ele><time>2026-04-30T00:07:01.953Z</time></trkpt><trkpt lat="40.1686884" lon="1.4632495"><ele>0.0</ele><time>2026-04-30T00:07:02.954Z</time></trkpt><trkpt lat="40.1687653" lon="1.4632982"><ele>0.0</ele><time>2026-04-30T00:07:03.954Z</time></trkpt><trkpt lat="40.1688433" lon="1.46335"><ele>0.0</ele><time>2026-04-30T00:07:04.953Z</time></trkpt><trkpt lat="40.1689203" lon="1.4634001"><ele>0.0</ele><time>2026-04-30T00:07:05.953Z</time></trkpt><trkpt lat="40.1689942" lon="1.4634486"><ele>0.0</ele><time>2026-04-30T00:07:06.953Z</time></trkpt><trkpt lat="40.1691499" lon="1.4635448"><ele>0.0</ele><time>2026-04-30T00:07:08.953Z</time></trkpt><trkpt lat="40.1692254" lon="1.4635983"><ele>0.0</ele><time>2026-04-30T00:07:09.954Z</time></trkpt><trkpt lat="40.169306" lon="1.4636502"><ele>0.0</ele><time>2026-04-30T00:07:10.953Z</time></trkpt><trkpt lat="40.1693807" lon="1.4637061"><ele>0.0</ele><time>2026-04-30T00:07:11.953Z</time></trkpt><trkpt lat="40.1694522" lon="1.4637618"><ele>0.0</ele><time>2026-04-30T00:07:12.953Z</time></trkpt><trkpt lat="40.1695212" lon="1.4638043"><ele>0.0</ele><time>2026-04-30T00:07:13.953Z</time></trkpt><trkpt lat="40.1695967" lon="1.4638525"><ele>0.0</ele><time>2026-04-30T00:07:14.954Z</time></trkpt><trkpt lat="40.1696705" lon="1.4639121"><ele>0.0</ele><time>2026-04-30T00:07:15.953Z</time></trkpt><trkpt lat="40.1697437" lon="1.4639706"><ele>0.0</ele><time>2026-04-30T00:07:16.954Z</time></trkpt><trkpt lat="40.1698183" lon="1.4640274"><ele>0.0</ele><time>2026-04-30T00:07:17.954Z</time></trkpt><trkpt lat="40.1698951" lon="1.4640844"><ele>0.0</ele><time>2026-04-30T00:07:18.954Z</time></trkpt><trkpt lat="40.1699674" lon="1.4641411"><ele>0.0</ele><time>2026-04-30T00:07:19.954Z</time></trkpt><trkpt lat="40.1700431" lon="1.4642007"><ele>0.0</ele><time>2026-04-30T00:07:20.953Z</time></trkpt><trkpt lat="40.1701198" lon="1.4642621"><ele>0.0</ele><time>2026-04-30T00:07:21.953Z</time></trkpt><trkpt lat="40.1701937" lon="1.4643218"><ele>0.0</ele><time>2026-04-30T00:07:22.954Z</time></trkpt><trkpt lat="40.1702699" lon="1.4643806"><ele>0.0</ele><time>2026-04-30T00:07:23.953Z</time></trkpt><trkpt lat="40.1703451" lon="1.464439"><ele>0.0</ele><time>2026-04-30T00:07:24.954Z</time></trkpt><trkpt lat="40.1704229" lon="1.4644959"><ele>0.0</ele><time>2026-04-30T00:07:25.953Z</time></trkpt><trkpt lat="40.1705016" lon="1.4645458"><ele>0.0</ele><time>2026-04-30T00:07:26.954Z</time></trkpt><trkpt lat="40.1705784" lon="1.4645953"><ele>0.0</ele><time>2026-04-30T00:07:27.953Z</time></trkpt><trkpt lat="40.1707435" lon="1.4646989"><ele>0.0</ele><time>2026-04-30T00:07:29.953Z</time></trkpt><trkpt lat="40.1708192" lon="1.464755"><ele>0.0</ele><time>2026-04-30T00:07:30.954Z</time></trkpt><trkpt lat="40.1708966" lon="1.4648151"><ele>0.0</ele><time>2026-04-30T00:07:31.953Z</time></trkpt><trkpt lat="40.1709778" lon="1.464871"><ele>0.0</ele><time>2026-04-30T00:07:32.953Z</time></trkpt><trkpt lat="40.1710554" lon="1.4649231"><ele>0.0</ele><time>2026-04-30T00:07:33.954Z</time></trkpt><trkpt lat="40.1711331" lon="1.464976"><ele>0.0</ele><time>2026-04-30T00:07:34.953Z</time></trkpt><trkpt lat="40.1712145" lon="1.4650418"><ele>0.0</ele><time>2026-04-30T00:07:35.954Z</time></trkpt><trkpt lat="40.1713006" lon="1.4651053"><ele>0.0</ele><time>2026-04-30T00:07:36.954Z</time></trkpt><trkpt lat="40.1715433" lon="1.4652807"><ele>0.0</ele><time>2026-04-30T00:07:39.953Z</time></trkpt><trkpt lat="40.171625" lon="1.4653424"><ele>0.0</ele><time>2026-04-30T00:07:40.953Z</time></trkpt><trkpt lat="40.1717053" lon="1.4653964"><ele>0.0</ele><time>2026-04-30T00:07:41.953Z</time></trkpt><trkpt lat="40.1717839" lon="1.4654498"><ele>0.0</ele><time>2026-04-30T00:07:42.953Z</time></trkpt><trkpt lat="40.1718633" lon="1.4654984"><ele>0.0</ele><time>2026-04-30T00:07:43.953Z</time></trkpt><trkpt lat="40.171942" lon="1.4655443"><ele>0.0</ele><time>2026-04-30T00:07:44.953Z</time></trkpt><trkpt lat="40.1720265" lon="1.4655905"><ele>0.0</ele><time>2026-04-30T00:07:45.953Z</time></trkpt><trkpt lat="40.1721088" lon="1.4656323"><ele>0.0</ele><time>2026-04-30T00:07:46.954Z</time></trkpt><trkpt lat="40.1721877" lon="1.4656737"><ele>0.0</ele><time>2026-04-30T00:07:47.953Z</time></trkpt><trkpt lat="40.1722629" lon="1.4657211"><ele>0.0</ele><time>2026-04-30T00:07:48.953Z</time></trkpt><trkpt lat="40.172414" lon="1.4658272"><ele>0.0</ele><time>2026-04-30T00:07:50.954Z</time></trkpt><trkpt lat="40.1724879" lon="1.4658954"><ele>0.0</ele><time>2026-04-30T00:07:51.953Z</time></trkpt><trkpt lat="40.1725665" lon="1.4659552"><ele>0.0</ele><time>2026-04-30T00:07:52.953Z</time></trkpt><trkpt lat="40.1726448" lon="1.4660098"><ele>0.0</ele><time>2026-04-30T00:07:53.953Z</time></trkpt><trkpt lat="40.172722" lon="1.4660572"><ele>0.0</ele><time>2026-04-30T00:07:54.954Z</time></trkpt><trkpt lat="40.1727985" lon="1.4661029"><ele>0.0</ele><time>2026-04-30T00:07:55.953Z</time></trkpt><trkpt lat="40.1728721" lon="1.4661188"><ele>0.0</ele><time>2026-04-30T00:07:56.953Z</time></trkpt><trkpt lat="40.1729514" lon="1.4661595"><ele>0.0</ele><time>2026-04-30T00:07:57.954Z</time></trkpt><trkpt lat="40.1730299" lon="1.4662068"><ele>0.0</ele><time>2026-04-30T00:07:58.953Z</time></trkpt><trkpt lat="40.1731084" lon="1.4662522"><ele>0.0</ele><time>2026-04-30T00:07:59.954Z</time></trkpt><trkpt lat="40.1731883" lon="1.4663016"><ele>0.0</ele><time>2026-04-30T00:08:00.953Z</time></trkpt><trkpt lat="40.1732625" lon="1.4663178"><ele>0.0</ele><time>2026-04-30T00:08:01.953Z</time></trkpt><trkpt lat="40.173337" lon="1.4663595"><ele>0.0</ele><time>2026-04-30T00:08:02.953Z</time></trkpt><trkpt lat="40.173415" lon="1.4664078"><ele>0.0</ele><time>2026-04-30T00:08:03.953Z</time></trkpt><trkpt lat="40.1734948" lon="1.4664644"><ele>0.0</ele><time>2026-04-30T00:08:04.953Z</time></trkpt><trkpt lat="40.1735764" lon="1.4665197"><ele>0.0</ele><time>2026-04-30T00:08:05.954Z</time></trkpt><trkpt lat="40.1736538" lon="1.4665776"><ele>0.0</ele><time>2026-04-30T00:08:06.954Z</time></trkpt><trkpt lat="40.1737316" lon="1.4666391"><ele>0.0</ele><time>2026-04-30T00:08:07.953Z</time></trkpt><trkpt lat="40.1738085" lon="1.4667011"><ele>0.0</ele><time>2026-04-30T00:08:08.953Z</time></trkpt><trkpt lat="40.1738824" lon="1.4667701"><ele>0.0</ele><time>2026-04-30T00:08:09.953Z</time></trkpt><trkpt lat="40.1741041" lon="1.4669784"><ele>0.0</ele><time>2026-04-30T00:08:12.953Z</time></trkpt><trkpt lat="40.1741829" lon="1.4670395"><ele>0.0</ele><time>2026-04-30T00:08:13.954Z</time></trkpt><trkpt lat="40.1742584" lon="1.467102"><ele>0.0</ele><time>2026-04-30T00:08:14.954Z</time></trkpt><trkpt lat="40.1743394" lon="1.4671558"><ele>0.0</ele><time>2026-04-30T00:08:15.953Z</time></trkpt><trkpt lat="40.1744172" lon="1.4672086"><ele>0.0</ele><time>2026-04-30T00:08:16.953Z</time></trkpt><trkpt lat="40.1744925" lon="1.4672662"><ele>0.0</ele><time>2026-04-30T00:08:17.954Z</time></trkpt><trkpt lat="40.1745704" lon="1.4673172"><ele>0.0</ele><time>2026-04-30T00:08:18.954Z</time></trkpt><trkpt lat="40.1746511" lon="1.4673702"><ele>0.0</ele><time>2026-04-30T00:08:19.954Z</time></trkpt><trkpt lat="40.1747254" lon="1.4674279"><ele>0.0</ele><time>2026-04-30T00:08:20.953Z</time></trkpt><trkpt lat="40.1748003" lon="1.4674917"><ele>0.0</ele><time>2026-04-30T00:08:21.953Z</time></trkpt><trkpt lat="40.174875" lon="1.4675504"><ele>0.0</ele><time>2026-04-30T00:08:22.953Z</time></trkpt><trkpt lat="40.1749531" lon="1.4676083"><ele>0.0</ele><time>2026-04-30T00:08:23.954Z</time></trkpt><trkpt lat="40.175033" lon="1.4676588"><ele>0.0</ele><time>2026-04-30T00:08:24.953Z</time></trkpt><trkpt lat="40.1751135" lon="1.4677091"><ele>0.0</ele><time>2026-04-30T00:08:25.953Z</time></trkpt><trkpt lat="40.1751893" lon="1.4677634"><ele>0.0</ele><time>2026-04-30T00:08:26.954Z</time></trkpt><trkpt lat="40.175264" lon="1.4678138"><ele>0.0</ele><time>2026-04-30T00:08:27.953Z</time></trkpt><trkpt lat="40.1753431" lon="1.4678626"><ele>0.0</ele><time>2026-04-30T00:08:28.953Z</time></trkpt><trkpt lat="40.1754206" lon="1.4679139"><ele>0.0</ele><time>2026-04-30T00:08:29.953Z</time></trkpt><trkpt lat="40.1754971" lon="1.4679676"><ele>0.0</ele><time>2026-04-30T00:08:30.953Z</time></trkpt><trkpt lat="40.1756425" lon="1.4680692"><ele>0.0</ele><time>2026-04-30T00:08:32.954Z</time></trkpt><trkpt lat="40.1757169" lon="1.468121"><ele>0.0</ele><time>2026-04-30T00:08:33.953Z</time></trkpt><trkpt lat="40.1757975" lon="1.4681819"><ele>0.0</ele><time>2026-04-30T00:08:34.953Z</time></trkpt><trkpt lat="40.1758765" lon="1.4682391"><ele>0.0</ele><time>2026-04-30T00:08:35.954Z</time></trkpt><trkpt lat="40.1759535" lon="1.4682902"><ele>0.0</ele><time>2026-04-30T00:08:36.953Z</time></trkpt><trkpt lat="40.1760283" lon="1.4683495"><ele>0.0</ele><time>2026-04-30T00:08:37.954Z</time></trkpt><trkpt lat="40.1761006" lon="1.4683989"><ele>0.0</ele><time>2026-04-30T00:08:38.953Z</time></trkpt><trkpt lat="40.176175" lon="1.4684564"><ele>0.0</ele><time>2026-04-30T00:08:39.954Z</time></trkpt><trkpt lat="40.1762545" lon="1.4685149"><ele>0.0</ele><time>2026-04-30T00:08:40.953Z</time></trkpt><trkpt lat="40.1763273" lon="1.4685774"><ele>0.0</ele><time>2026-04-30T00:08:41.953Z</time></trkpt><trkpt lat="40.1764853" lon="1.468682"><ele>0.0</ele><time>2026-04-30T00:08:43.953Z</time></trkpt><trkpt lat="40.1765634" lon="1.4687301"><ele>0.0</ele><time>2026-04-30T00:08:44.953Z</time></trkpt><trkpt lat="40.1766416" lon="1.4687866"><ele>0.0</ele><time>2026-04-30T00:08:45.952Z</time></trkpt><trkpt lat="40.1767187" lon="1.4688449"><ele>0.0</ele><time>2026-04-30T00:08:46.952Z</time></trkpt><trkpt lat="40.1767981" lon="1.4689038"><ele>0.0</ele><time>2026-04-30T00:08:47.953Z</time></trkpt><trkpt lat="40.1768754" lon="1.4689626"><ele>0.0</ele><time>2026-04-30T00:08:48.952Z</time></trkpt><trkpt lat="40.1769503" lon="1.4690187"><ele>0.0</ele><time>2026-04-30T00:08:49.952Z</time></trkpt><trkpt lat="40.1770269" lon="1.4690776"><ele>0.0</ele><time>2026-04-30T00:08:50.952Z</time></trkpt><trkpt lat="40.1771034" lon="1.4691348"><ele>0.0</ele><time>2026-04-30T00:08:51.952Z</time></trkpt><trkpt lat="40.1772614" lon="1.4692411"><ele>0.0</ele><time>2026-04-30T00:08:53.952Z</time></trkpt><trkpt lat="40.1773415" lon="1.4692948"><ele>0.0</ele><time>2026-04-30T00:08:54.952Z</time></trkpt><trkpt lat="40.1774199" lon="1.4693484"><ele>0.0</ele><time>2026-04-30T00:08:55.952Z</time></trkpt><trkpt lat="40.1774994" lon="1.4694002"><ele>0.0</ele><time>2026-04-30T00:08:56.953Z</time></trkpt><trkpt lat="40.177578" lon="1.4694555"><ele>0.0</ele><time>2026-04-30T00:08:57.952Z</time></trkpt><trkpt lat="40.177652" lon="1.4695129"><ele>0.0</ele><time>2026-04-30T00:08:58.953Z</time></trkpt><trkpt lat="40.1777313" lon="1.4695656"><ele>0.0</ele><time>2026-04-30T00:08:59.953Z</time></trkpt><trkpt lat="40.177814" lon="1.4696184"><ele>0.0</ele><time>2026-04-30T00:09:00.953Z</time></trkpt><trkpt lat="40.1778947" lon="1.4696674"><ele>0.0</ele><time>2026-04-30T00:09:01.952Z</time></trkpt><trkpt lat="40.1779719" lon="1.4697146"><ele>0.0</ele><time>2026-04-30T00:09:02.952Z</time></trkpt><trkpt lat="40.1780527" lon="1.4697627"><ele>0.0</ele><time>2026-04-30T00:09:03.952Z</time></trkpt><trkpt lat="40.1781318" lon="1.4698056"><ele>0.0</ele><time>2026-04-30T00:09:04.953Z</time></trkpt><trkpt lat="40.1782058" lon="1.4698343"><ele>0.0</ele><time>2026-04-30T00:09:05.953Z</time></trkpt><trkpt lat="40.1782771" lon="1.4698615"><ele>0.0</ele><time>2026-04-30T00:09:06.953Z</time></trkpt><trkpt lat="40.1783503" lon="1.4699029"><ele>0.0</ele><time>2026-04-30T00:09:07.952Z</time></trkpt><trkpt lat="40.1784323" lon="1.4699479"><ele>0.0</ele><time>2026-04-30T00:09:08.953Z</time></trkpt><trkpt lat="40.1785103" lon="1.4699977"><ele>0.0</ele><time>2026-04-30T00:09:09.952Z</time></trkpt><trkpt lat="40.1785873" lon="1.4700492"><ele>0.0</ele><time>2026-04-30T00:09:10.952Z</time></trkpt><trkpt lat="40.1786637" lon="1.4701024"><ele>0.0</ele><time>2026-04-30T00:09:11.953Z</time></trkpt><trkpt lat="40.1787372" lon="1.4701572"><ele>0.0</ele><time>2026-04-30T00:09:12.952Z</time></trkpt><trkpt lat="40.1788146" lon="1.4702138"><ele>0.0</ele><time>2026-04-30T00:09:13.952Z</time></trkpt><trkpt lat="40.1789727" lon="1.4703307"><ele>0.0</ele><time>2026-04-30T00:09:15.953Z</time></trkpt><trkpt lat="40.1790543" lon="1.4703952"><ele>0.0</ele><time>2026-04-30T00:09:16.953Z</time></trkpt><trkpt lat="40.179136" lon="1.4704538"><ele>0.0</ele><time>2026-04-30T00:09:17.952Z</time></trkpt><trkpt lat="40.1792134" lon="1.470515"><ele>0.0</ele><time>2026-04-30T00:09:18.952Z</time></trkpt><trkpt lat="40.1792883" lon="1.4705798"><ele>0.0</ele><time>2026-04-30T00:09:19.953Z</time></trkpt><trkpt lat="40.179359" lon="1.4706535"><ele>0.0</ele><time>2026-04-30T00:09:20.953Z</time></trkpt><trkpt lat="40.1794322" lon="1.4707285"><ele>0.0</ele><time>2026-04-30T00:09:21.952Z</time></trkpt><trkpt lat="40.1795013" lon="1.4707958"><ele>0.0</ele><time>2026-04-30T00:09:22.953Z</time></trkpt><trkpt lat="40.179578" lon="1.4708613"><ele>0.0</ele><time>2026-04-30T00:09:23.952Z</time></trkpt><trkpt lat="40.1796521" lon="1.4709255"><ele>0.0</ele><time>2026-04-30T00:09:24.953Z</time></trkpt><trkpt lat="40.1797254" lon="1.470979"><ele>0.0</ele><time>2026-04-30T00:09:25.953Z</time></trkpt><trkpt lat="40.1798031" lon="1.4710307"><ele>0.0</ele><time>2026-04-30T00:09:26.952Z</time></trkpt><trkpt lat="40.1798786" lon="1.4710792"><ele>0.0</ele><time>2026-04-30T00:09:27.952Z</time></trkpt><trkpt lat="40.1799526" lon="1.4711254"><ele>0.0</ele><time>2026-04-30T00:09:28.953Z</time></trkpt><trkpt lat="40.1800303" lon="1.4711773"><ele>0.0</ele><time>2026-04-30T00:09:29.952Z</time></trkpt><trkpt lat="40.1801056" lon="1.4712321"><ele>0.0</ele><time>2026-04-30T00:09:30.952Z</time></trkpt><trkpt lat="40.1801832" lon="1.4712805"><ele>0.0</ele><time>2026-04-30T00:09:31.953Z</time></trkpt><trkpt lat="40.1802615" lon="1.4713265"><ele>0.0</ele><time>2026-04-30T00:09:32.953Z</time></trkpt><trkpt lat="40.1803418" lon="1.4713724"><ele>0.0</ele><time>2026-04-30T00:09:33.953Z</time></trkpt><trkpt lat="40.1804173" lon="1.4714243"><ele>0.0</ele><time>2026-04-30T00:09:34.952Z</time></trkpt><trkpt lat="40.1805747" lon="1.4715247"><ele>0.0</ele><time>2026-04-30T00:09:36.952Z</time></trkpt><trkpt lat="40.1806548" lon="1.4715732"><ele>0.0</ele><time>2026-04-30T00:09:37.953Z</time></trkpt><trkpt lat="40.1807333" lon="1.4716233"><ele>0.0</ele><time>2026-04-30T00:09:38.952Z</time></trkpt><trkpt lat="40.1808144" lon="1.4716778"><ele>0.0</ele><time>2026-04-30T00:09:39.952Z</time></trkpt><trkpt lat="40.1808932" lon="1.4717269"><ele>0.0</ele><time>2026-04-30T00:09:40.952Z</time></trkpt><trkpt lat="40.1809724" lon="1.4717737"><ele>0.0</ele><time>2026-04-30T00:09:41.953Z</time></trkpt><trkpt lat="40.1810498" lon="1.4718187"><ele>0.0</ele><time>2026-04-30T00:09:42.953Z</time></trkpt><trkpt lat="40.1811294" lon="1.4718654"><ele>0.0</ele><time>2026-04-30T00:09:43.952Z</time></trkpt><trkpt lat="40.1812081" lon="1.4719156"><ele>0.0</ele><time>2026-04-30T00:09:44.952Z</time></trkpt><trkpt lat="40.1812837" lon="1.4719597"><ele>0.0</ele><time>2026-04-30T00:09:45.953Z</time></trkpt><trkpt lat="40.1814329" lon="1.4720627"><ele>0.0</ele><time>2026-04-30T00:09:47.952Z</time></trkpt><trkpt lat="40.1815131" lon="1.4721204"><ele>0.0</ele><time>2026-04-30T00:09:48.953Z</time></trkpt><trkpt lat="40.1815903" lon="1.4721761"><ele>0.0</ele><time>2026-04-30T00:09:49.952Z</time></trkpt><trkpt lat="40.1816654" lon="1.472237"><ele>0.0</ele><time>2026-04-30T00:09:50.952Z</time></trkpt><trkpt lat="40.1817416" lon="1.4723033"><ele>0.0</ele><time>2026-04-30T00:09:51.953Z</time></trkpt><trkpt lat="40.1818209" lon="1.4723692"><ele>0.0</ele><time>2026-04-30T00:09:52.952Z</time></trkpt><trkpt lat="40.1819011" lon="1.4724321"><ele>0.0</ele><time>2026-04-30T00:09:53.953Z</time></trkpt><trkpt lat="40.1819785" lon="1.4724948"><ele>0.0</ele><time>2026-04-30T00:09:54.953Z</time></trkpt><trkpt lat="40.1820568" lon="1.4725447"><ele>0.0</ele><time>2026-04-30T00:09:55.953Z</time></trkpt><trkpt lat="40.1822068" lon="1.4726585"><ele>0.0</ele><time>2026-04-30T00:09:57.952Z</time></trkpt><trkpt lat="40.1822821" lon="1.4727135"><ele>0.0</ele><time>2026-04-30T00:09:58.952Z</time></trkpt><trkpt lat="40.1823639" lon="1.4727598"><ele>0.0</ele><time>2026-04-30T00:09:59.952Z</time></trkpt><trkpt lat="40.1824459" lon="1.4728078"><ele>0.0</ele><time>2026-04-30T00:10:00.953Z</time></trkpt><trkpt lat="40.1825275" lon="1.4728546"><ele>0.0</ele><time>2026-04-30T00:10:01.952Z</time></trkpt><trkpt lat="40.1826078" lon="1.4729056"><ele>0.0</ele><time>2026-04-30T00:10:02.953Z</time></trkpt><trkpt lat="40.182685" lon="1.4729638"><ele>0.0</ele><time>2026-04-30T00:10:03.952Z</time></trkpt><trkpt lat="40.1827626" lon="1.4730192"><ele>0.0</ele><time>2026-04-30T00:10:04.952Z</time></trkpt><trkpt lat="40.1828427" lon="1.4730708"><ele>0.0</ele><time>2026-04-30T00:10:05.952Z</time></trkpt><trkpt lat="40.1829245" lon="1.4731238"><ele>0.0</ele><time>2026-04-30T00:10:06.952Z</time></trkpt><trkpt lat="40.1830021" lon="1.4731718"><ele>0.0</ele><time>2026-04-30T00:10:07.953Z</time></trkpt><trkpt lat="40.1830804" lon="1.4732199"><ele>0.0</ele><time>2026-04-30T00:10:08.952Z</time></trkpt><trkpt lat="40.1831599" lon="1.4732683"><ele>0.0</ele><time>2026-04-30T00:10:09.953Z</time></trkpt><trkpt lat="40.1832385" lon="1.4733145"><ele>0.0</ele><time>2026-04-30T00:10:10.952Z</time></trkpt><trkpt lat="40.1833139" lon="1.4733671"><ele>0.0</ele><time>2026-04-30T00:10:11.952Z</time></trkpt><trkpt lat="40.1833871" lon="1.4733907"><ele>0.0</ele><time>2026-04-30T00:10:12.952Z</time></trkpt><trkpt lat="40.1834619" lon="1.473443"><ele>0.0</ele><time>2026-04-30T00:10:13.952Z</time></trkpt><trkpt lat="40.1835354" lon="1.473499"><ele>0.0</ele><time>2026-04-30T00:10:14.953Z</time></trkpt><trkpt lat="40.1836132" lon="1.4735522"><ele>0.0</ele><time>2026-04-30T00:10:15.953Z</time></trkpt><trkpt lat="40.1836903" lon="1.4736015"><ele>0.0</ele><time>2026-04-30T00:10:16.952Z</time></trkpt><trkpt lat="40.1837671" lon="1.4736511"><ele>0.0</ele><time>2026-04-30T00:10:17.952Z</time></trkpt><trkpt lat="40.183916" lon="1.473751"><ele>0.0</ele><time>2026-04-30T00:10:19.952Z</time></trkpt><trkpt lat="40.1839932" lon="1.4738003"><ele>0.0</ele><time>2026-04-30T00:10:20.952Z</time></trkpt><trkpt lat="40.1840701" lon="1.4738588"><ele>0.0</ele><time>2026-04-30T00:10:21.952Z</time></trkpt><trkpt lat="40.1841424" lon="1.4739173"><ele>0.0</ele><time>2026-04-30T00:10:22.953Z</time></trkpt><trkpt lat="40.1842197" lon="1.4739714"><ele>0.0</ele><time>2026-04-30T00:10:23.952Z</time></trkpt><trkpt lat="40.1842952" lon="1.4740314"><ele>0.0</ele><time>2026-04-30T00:10:24.953Z</time></trkpt><trkpt lat="40.1843673" lon="1.4740948"><ele>0.0</ele><time>2026-04-30T00:10:25.953Z</time></trkpt><trkpt lat="40.1844374" lon="1.4741571"><ele>0.0</ele><time>2026-04-30T00:10:26.952Z</time></trkpt><trkpt lat="40.1845144" lon="1.4742177"><ele>0.0</ele><time>2026-04-30T00:10:27.953Z</time></trkpt><trkpt lat="40.1845914" lon="1.4742806"><ele>0.0</ele><time>2026-04-30T00:10:28.953Z</time></trkpt><trkpt lat="40.1846724" lon="1.4743372"><ele>0.0</ele><time>2026-04-30T00:10:29.952Z</time></trkpt><trkpt lat="40.1847468" lon="1.4743951"><ele>0.0</ele><time>2026-04-30T00:10:30.952Z</time></trkpt><trkpt lat="40.1848202" lon="1.4744488"><ele>0.0</ele><time>2026-04-30T00:10:31.953Z</time></trkpt><trkpt lat="40.1848924" lon="1.4745119"><ele>0.0</ele><time>2026-04-30T00:10:32.952Z</time></trkpt><trkpt lat="40.1849708" lon="1.4745714"><ele>0.0</ele><time>2026-04-30T00:10:33.952Z</time></trkpt><trkpt lat="40.1850494" lon="1.4746315"><ele>0.0</ele><time>2026-04-30T00:10:34.953Z</time></trkpt><trkpt lat="40.1851263" lon="1.4746886"><ele>0.0</ele><time>2026-04-30T00:10:35.953Z</time></trkpt><trkpt lat="40.1852028" lon="1.4747445"><ele>0.0</ele><time>2026-04-30T00:10:36.952Z</time></trkpt><trkpt lat="40.1852799" lon="1.4748015"><ele>0.0</ele><time>2026-04-30T00:10:37.953Z</time></trkpt><trkpt lat="40.1853551" lon="1.4748559"><ele>0.0</ele><time>2026-04-30T00:10:38.952Z</time></trkpt><trkpt lat="40.1855101" lon="1.4749643"><ele>0.0</ele><time>2026-04-30T00:10:40.953Z</time></trkpt><trkpt lat="40.1855895" lon="1.475014"><ele>0.0</ele><time>2026-04-30T00:10:41.953Z</time></trkpt><trkpt lat="40.1856698" lon="1.4750653"><ele>0.0</ele><time>2026-04-30T00:10:42.952Z</time></trkpt><trkpt lat="40.1857455" lon="1.4751155"><ele>0.0</ele><time>2026-04-30T00:10:43.953Z</time></trkpt><trkpt lat="40.1858227" lon="1.4751644"><ele>0.0</ele><time>2026-04-30T00:10:44.952Z</time></trkpt><trkpt lat="40.1858998" lon="1.4752108"><ele>0.0</ele><time>2026-04-30T00:10:45.953Z</time></trkpt><trkpt lat="40.1859749" lon="1.4752604"><ele>0.0</ele><time>2026-04-30T00:10:46.952Z</time></trkpt><trkpt lat="40.1860542" lon="1.4753033"><ele>0.0</ele><time>2026-04-30T00:10:47.953Z</time></trkpt><trkpt lat="40.1861361" lon="1.4753516"><ele>0.0</ele><time>2026-04-30T00:10:48.952Z</time></trkpt><trkpt lat="40.1862152" lon="1.4754012"><ele>0.0</ele><time>2026-04-30T00:10:49.952Z</time></trkpt><trkpt lat="40.1863767" lon="1.4755017"><ele>0.0</ele><time>2026-04-30T00:10:51.952Z</time></trkpt><trkpt lat="40.1864568" lon="1.4755452"><ele>0.0</ele><time>2026-04-30T00:10:52.952Z</time></trkpt><trkpt lat="40.1865381" lon="1.4755953"><ele>0.0</ele><time>2026-04-30T00:10:53.952Z</time></trkpt><trkpt lat="40.1866154" lon="1.4756479"><ele>0.0</ele><time>2026-04-30T00:10:54.952Z</time></trkpt><trkpt lat="40.1866889" lon="1.4757038"><ele>0.0</ele><time>2026-04-30T00:10:55.952Z</time></trkpt><trkpt lat="40.1867662" lon="1.475761"><ele>0.0</ele><time>2026-04-30T00:10:56.952Z</time></trkpt><trkpt lat="40.1868446" lon="1.4758135"><ele>0.0</ele><time>2026-04-30T00:10:57.952Z</time></trkpt><trkpt lat="40.1869247" lon="1.4758666"><ele>0.0</ele><time>2026-04-30T00:10:58.952Z</time></trkpt><trkpt lat="40.1870047" lon="1.4759301"><ele>0.0</ele><time>2026-04-30T00:10:59.953Z</time></trkpt><trkpt lat="40.187155" lon="1.4760512"><ele>0.0</ele><time>2026-04-30T00:11:01.953Z</time></trkpt><trkpt lat="40.1872344" lon="1.4761041"><ele>0.0</ele><time>2026-04-30T00:11:02.952Z</time></trkpt><trkpt lat="40.1873127" lon="1.4761616"><ele>0.0</ele><time>2026-04-30T00:11:03.952Z</time></trkpt><trkpt lat="40.1873926" lon="1.4762156"><ele>0.0</ele><time>2026-04-30T00:11:04.952Z</time></trkpt><trkpt lat="40.1874771" lon="1.4762665"><ele>0.0</ele><time>2026-04-30T00:11:05.952Z</time></trkpt><trkpt lat="40.1875593" lon="1.4763251"><ele>0.0</ele><time>2026-04-30T00:11:06.952Z</time></trkpt><trkpt lat="40.1876378" lon="1.4763726"><ele>0.0</ele><time>2026-04-30T00:11:07.952Z</time></trkpt><trkpt lat="40.1877188" lon="1.476432"><ele>0.0</ele><time>2026-04-30T00:11:08.952Z</time></trkpt><trkpt lat="40.1877978" lon="1.4764992"><ele>0.0</ele><time>2026-04-30T00:11:09.953Z</time></trkpt><trkpt lat="40.1878732" lon="1.4765354"><ele>0.0</ele><time>2026-04-30T00:11:10.952Z</time></trkpt><trkpt lat="40.1879481" lon="1.4765743"><ele>0.0</ele><time>2026-04-30T00:11:11.953Z</time></trkpt><trkpt lat="40.1880248" lon="1.4766278"><ele>0.0</ele><time>2026-04-30T00:11:12.952Z</time></trkpt><trkpt lat="40.1881016" lon="1.4766794"><ele>0.0</ele><time>2026-04-30T00:11:13.953Z</time></trkpt><trkpt lat="40.1881797" lon="1.4767325"><ele>0.0</ele><time>2026-04-30T00:11:14.953Z</time></trkpt><trkpt lat="40.1882509" lon="1.4767674"><ele>0.0</ele><time>2026-04-30T00:11:15.952Z</time></trkpt><trkpt lat="40.188325" lon="1.4768191"><ele>0.0</ele><time>2026-04-30T00:11:16.953Z</time></trkpt><trkpt lat="40.1884015" lon="1.4768497"><ele>0.0</ele><time>2026-04-30T00:11:17.952Z</time></trkpt><trkpt lat="40.1884797" lon="1.4768963"><ele>0.0</ele><time>2026-04-30T00:11:18.952Z</time></trkpt><trkpt lat="40.1885596" lon="1.4769356"><ele>0.0</ele><time>2026-04-30T00:11:19.952Z</time></trkpt><trkpt lat="40.1886384" lon="1.4769859"><ele>0.0</ele><time>2026-04-30T00:11:20.952Z</time></trkpt><trkpt lat="40.1887164" lon="1.4770444"><ele>0.0</ele><time>2026-04-30T00:11:21.952Z</time></trkpt><trkpt lat="40.1889514" lon="1.4772092"><ele>0.0</ele><time>2026-04-30T00:11:24.952Z</time></trkpt><trkpt lat="40.1890326" lon="1.4772608"><ele>0.0</ele><time>2026-04-30T00:11:25.952Z</time></trkpt><trkpt lat="40.1891119" lon="1.4773125"><ele>0.0</ele><time>2026-04-30T00:11:26.952Z</time></trkpt><trkpt lat="40.1891871" lon="1.4773628"><ele>0.0</ele><time>2026-04-30T00:11:27.953Z</time></trkpt><trkpt lat="40.1892617" lon="1.4774102"><ele>0.0</ele><time>2026-04-30T00:11:28.952Z</time></trkpt><trkpt lat="40.189341" lon="1.477471"><ele>0.0</ele><time>2026-04-30T00:11:29.953Z</time></trkpt><trkpt lat="40.1894212" lon="1.4775338"><ele>0.0</ele><time>2026-04-30T00:11:30.952Z</time></trkpt><trkpt lat="40.1894986" lon="1.4775916"><ele>0.0</ele><time>2026-04-30T00:11:31.952Z</time></trkpt><trkpt lat="40.1895768" lon="1.4776509"><ele>0.0</ele><time>2026-04-30T00:11:32.952Z</time></trkpt><trkpt lat="40.1896519" lon="1.4777094"><ele>0.0</ele><time>2026-04-30T00:11:33.952Z</time></trkpt><trkpt lat="40.1897281" lon="1.4777666"><ele>0.0</ele><time>2026-04-30T00:11:34.952Z</time></trkpt><trkpt lat="40.189806" lon="1.4778204"><ele>0.0</ele><time>2026-04-30T00:11:35.953Z</time></trkpt><trkpt lat="40.1898843" lon="1.4778783"><ele>0.0</ele><time>2026-04-30T00:11:36.952Z</time></trkpt><trkpt lat="40.1899601" lon="1.4779349"><ele>0.0</ele><time>2026-04-30T00:11:37.952Z</time></trkpt><trkpt lat="40.1900349" lon="1.4779932"><ele>0.0</ele><time>2026-04-30T00:11:38.953Z</time></trkpt><trkpt lat="40.1901146" lon="1.4780506"><ele>0.0</ele><time>2026-04-30T00:11:39.953Z</time></trkpt><trkpt lat="40.1901915" lon="1.4781031"><ele>0.0</ele><time>2026-04-30T00:11:40.953Z</time></trkpt><trkpt lat="40.1902711" lon="1.4781562"><ele>0.0</ele><time>2026-04-30T00:11:41.952Z</time></trkpt><trkpt lat="40.1903483" lon="1.4782064"><ele>0.0</ele><time>2026-04-30T00:11:42.953Z</time></trkpt><trkpt lat="40.1904971" lon="1.4783131"><ele>0.0</ele><time>2026-04-30T00:11:44.952Z</time></trkpt><trkpt lat="40.1905761" lon="1.4783369"><ele>0.0</ele><time>2026-04-30T00:11:45.952Z</time></trkpt><trkpt lat="40.1906508" lon="1.4783839"><ele>0.0</ele><time>2026-04-30T00:11:46.952Z</time></trkpt><trkpt lat="40.1907269" lon="1.4784322"><ele>0.0</ele><time>2026-04-30T00:11:47.952Z</time></trkpt><trkpt lat="40.1908037" lon="1.478454"><ele>0.0</ele><time>2026-04-30T00:11:48.952Z</time></trkpt><trkpt lat="40.1908801" lon="1.4784864"><ele>0.0</ele><time>2026-04-30T00:11:49.952Z</time></trkpt><trkpt lat="40.1909582" lon="1.4785446"><ele>0.0</ele><time>2026-04-30T00:11:50.953Z</time></trkpt><trkpt lat="40.1910369" lon="1.4785877"><ele>0.0</ele><time>2026-04-30T00:11:51.952Z</time></trkpt><trkpt lat="40.1911134" lon="1.4786413"><ele>0.0</ele><time>2026-04-30T00:11:52.952Z</time></trkpt><trkpt lat="40.1911919" lon="1.4786973"><ele>0.0</ele><time>2026-04-30T00:11:53.953Z</time></trkpt><trkpt lat="40.1912702" lon="1.4787554"><ele>0.0</ele><time>2026-04-30T00:11:54.953Z</time></trkpt><trkpt lat="40.1913484" lon="1.478815"><ele>0.0</ele><time>2026-04-30T00:11:55.952Z</time></trkpt><trkpt lat="40.1914226" lon="1.4788767"><ele>0.0</ele><time>2026-04-30T00:11:56.952Z</time></trkpt><trkpt lat="40.1914987" lon="1.4789329"><ele>0.0</ele><time>2026-04-30T00:11:57.953Z</time></trkpt><trkpt lat="40.1915738" lon="1.4789911"><ele>0.0</ele><time>2026-04-30T00:11:58.953Z</time></trkpt><trkpt lat="40.1916459" lon="1.4790502"><ele>0.0</ele><time>2026-04-30T00:11:59.952Z</time></trkpt><trkpt lat="40.1917231" lon="1.479098"><ele>0.0</ele><time>2026-04-30T00:12:00.953Z</time></trkpt><trkpt lat="40.1918057" lon="1.4791471"><ele>0.0</ele><time>2026-04-30T00:12:01.953Z</time></trkpt><trkpt lat="40.1918865" lon="1.4792"><ele>0.0</ele><time>2026-04-30T00:12:02.953Z</time></trkpt><trkpt lat="40.1919637" lon="1.4792614"><ele>0.0</ele><time>2026-04-30T00:12:03.952Z</time></trkpt><trkpt lat="40.1921166" lon="1.4793642"><ele>0.0</ele><time>2026-04-30T00:12:05.953Z</time></trkpt><trkpt lat="40.1921882" lon="1.4794249"><ele>0.0</ele><time>2026-04-30T00:12:06.952Z</time></trkpt><trkpt lat="40.1922637" lon="1.4794738"><ele>0.0</ele><time>2026-04-30T00:12:07.952Z</time></trkpt><trkpt lat="40.1923416" lon="1.4795236"><ele>0.0</ele><time>2026-04-30T00:12:08.952Z</time></trkpt><trkpt lat="40.1924186" lon="1.4795706"><ele>0.0</ele><time>2026-04-30T00:12:09.953Z</time></trkpt><trkpt lat="40.1924937" lon="1.479614"><ele>0.0</ele><time>2026-04-30T00:12:10.952Z</time></trkpt><trkpt lat="40.1925717" lon="1.4796631"><ele>0.0</ele><time>2026-04-30T00:12:11.953Z</time></trkpt><trkpt lat="40.1926468" lon="1.4797109"><ele>0.0</ele><time>2026-04-30T00:12:12.953Z</time></trkpt><trkpt lat="40.1927219" lon="1.4797631"><ele>0.0</ele><time>2026-04-30T00:12:13.952Z</time></trkpt><trkpt lat="40.1927968" lon="1.4798133"><ele>0.0</ele><time>2026-04-30T00:12:14.953Z</time></trkpt><trkpt lat="40.1928729" lon="1.4798625"><ele>0.0</ele><time>2026-04-30T00:12:15.952Z</time></trkpt><trkpt lat="40.1929458" lon="1.479924"><ele>0.0</ele><time>2026-04-30T00:12:16.953Z</time></trkpt><trkpt lat="40.1930219" lon="1.4799888"><ele>0.0</ele><time>2026-04-30T00:12:17.952Z</time></trkpt><trkpt lat="40.1930969" lon="1.4800413"><ele>0.0</ele><time>2026-04-30T00:12:18.952Z</time></trkpt><trkpt lat="40.1931673" lon="1.480108"><ele>0.0</ele><time>2026-04-30T00:12:19.952Z</time></trkpt><trkpt lat="40.19324" lon="1.4801642"><ele>0.0</ele><time>2026-04-30T00:12:20.953Z</time></trkpt><trkpt lat="40.193319" lon="1.4802221"><ele>0.0</ele><time>2026-04-30T00:12:21.952Z</time></trkpt><trkpt lat="40.1933979" lon="1.4802808"><ele>0.0</ele><time>2026-04-30T00:12:22.953Z</time></trkpt><trkpt lat="40.1934736" lon="1.480347"><ele>0.0</ele><time>2026-04-30T00:12:23.952Z</time></trkpt><trkpt lat="40.1935555" lon="1.4804037"><ele>0.0</ele><time>2026-04-30T00:12:24.953Z</time></trkpt><trkpt lat="40.1936365" lon="1.4804643"><ele>0.0</ele><time>2026-04-30T00:12:25.953Z</time></trkpt><trkpt lat="40.1938747" lon="1.4806176"><ele>0.0</ele><time>2026-04-30T00:12:28.952Z</time></trkpt><trkpt lat="40.193956" lon="1.4806739"><ele>0.0</ele><time>2026-04-30T00:12:29.952Z</time></trkpt><trkpt lat="40.1940321" lon="1.4807054"><ele>0.0</ele><time>2026-04-30T00:12:30.952Z</time></trkpt><trkpt lat="40.19411" lon="1.4807611"><ele>0.0</ele><time>2026-04-30T00:12:31.953Z</time></trkpt><trkpt lat="40.1941852" lon="1.4808127"><ele>0.0</ele><time>2026-04-30T00:12:32.952Z</time></trkpt><trkpt lat="40.1942647" lon="1.4808723"><ele>0.0</ele><time>2026-04-30T00:12:33.952Z</time></trkpt><trkpt lat="40.1943418" lon="1.4809362"><ele>0.0</ele><time>2026-04-30T00:12:34.952Z</time></trkpt><trkpt lat="40.1944226" lon="1.4810015"><ele>0.0</ele><time>2026-04-30T00:12:35.952Z</time></trkpt><trkpt lat="40.1945017" lon="1.4810606"><ele>0.0</ele><time>2026-04-30T00:12:36.952Z</time></trkpt><trkpt lat="40.194573" lon="1.4811214"><ele>0.0</ele><time>2026-04-30T00:12:37.952Z</time></trkpt><trkpt lat="40.1946513" lon="1.4811774"><ele>0.0</ele><time>2026-04-30T00:12:38.953Z</time></trkpt><trkpt lat="40.1947357" lon="1.48123"><ele>0.0</ele><time>2026-04-30T00:12:39.953Z</time></trkpt><trkpt lat="40.1948136" lon="1.4812844"><ele>0.0</ele><time>2026-04-30T00:12:40.953Z</time></trkpt><trkpt lat="40.1948925" lon="1.4813386"><ele>0.0</ele><time>2026-04-30T00:12:41.953Z</time></trkpt><trkpt lat="40.1949701" lon="1.4813881"><ele>0.0</ele><time>2026-04-30T00:12:42.953Z</time></trkpt><trkpt lat="40.1950511" lon="1.4814322"><ele>0.0</ele><time>2026-04-30T00:12:43.952Z</time></trkpt><trkpt lat="40.1951282" lon="1.4814696"><ele>0.0</ele><time>2026-04-30T00:12:44.952Z</time></trkpt><trkpt lat="40.1952078" lon="1.4815147"><ele>0.0</ele><time>2026-04-30T00:12:45.952Z</time></trkpt><trkpt lat="40.195287" lon="1.4815589"><ele>0.0</ele><time>2026-04-30T00:12:46.952Z</time></trkpt><trkpt lat="40.1954436" lon="1.4816461"><ele>0.0</ele><time>2026-04-30T00:12:48.952Z</time></trkpt><trkpt lat="40.1955204" lon="1.4816938"><ele>0.0</ele><time>2026-04-30T00:12:49.952Z</time></trkpt><trkpt lat="40.195597" lon="1.4817491"><ele>0.0</ele><time>2026-04-30T00:12:50.952Z</time></trkpt><trkpt lat="40.1956733" lon="1.4817961"><ele>0.0</ele><time>2026-04-30T00:12:51.952Z</time></trkpt><trkpt lat="40.1957503" lon="1.4818453"><ele>0.0</ele><time>2026-04-30T00:12:52.953Z</time></trkpt><trkpt lat="40.1958295" lon="1.4818955"><ele>0.0</ele><time>2026-04-30T00:12:53.953Z</time></trkpt><trkpt lat="40.1959069" lon="1.4819676"><ele>0.0</ele><time>2026-04-30T00:12:54.952Z</time></trkpt><trkpt lat="40.1959792" lon="1.482016"><ele>0.0</ele><time>2026-04-30T00:12:55.952Z</time></trkpt><trkpt lat="40.1960536" lon="1.4820766"><ele>0.0</ele><time>2026-04-30T00:12:56.953Z</time></trkpt><trkpt lat="40.19613" lon="1.4821388"><ele>0.0</ele><time>2026-04-30T00:12:57.952Z</time></trkpt><trkpt lat="40.1962065" lon="1.4821908"><ele>0.0</ele><time>2026-04-30T00:12:58.953Z</time></trkpt><trkpt lat="40.1962777" lon="1.4822446"><ele>0.0</ele><time>2026-04-30T00:12:59.952Z</time></trkpt><trkpt lat="40.1963548" lon="1.4822996"><ele>0.0</ele><time>2026-04-30T00:13:00.952Z</time></trkpt><trkpt lat="40.1964333" lon="1.4823546"><ele>0.0</ele><time>2026-04-30T00:13:01.951Z</time></trkpt><trkpt lat="40.1965114" lon="1.4824142"><ele>0.0</ele><time>2026-04-30T00:13:02.951Z</time></trkpt><trkpt lat="40.1965868" lon="1.4824671"><ele>0.0</ele><time>2026-04-30T00:13:03.951Z</time></trkpt><trkpt lat="40.1966603" lon="1.4825259"><ele>0.0</ele><time>2026-04-30T00:13:04.951Z</time></trkpt><trkpt lat="40.1967408" lon="1.4825832"><ele>0.0</ele><time>2026-04-30T00:13:05.951Z</time></trkpt><trkpt lat="40.1968183" lon="1.4826184"><ele>0.0</ele><time>2026-04-30T00:13:06.952Z</time></trkpt><trkpt lat="40.1968964" lon="1.4826699"><ele>0.0</ele><time>2026-04-30T00:13:07.951Z</time></trkpt><trkpt lat="40.1970592" lon="1.4827773"><ele>0.0</ele><time>2026-04-30T00:13:09.952Z</time></trkpt><trkpt lat="40.1971372" lon="1.4828316"><ele>0.0</ele><time>2026-04-30T00:13:10.952Z</time></trkpt><trkpt lat="40.1972124" lon="1.4828906"><ele>0.0</ele><time>2026-04-30T00:13:11.951Z</time></trkpt><trkpt lat="40.1972856" lon="1.4829537"><ele>0.0</ele><time>2026-04-30T00:13:12.951Z</time></trkpt><trkpt lat="40.1973559" lon="1.4830224"><ele>0.0</ele><time>2026-04-30T00:13:13.952Z</time></trkpt><trkpt lat="40.1974273" lon="1.483094"><ele>0.0</ele><time>2026-04-30T00:13:14.952Z</time></trkpt><trkpt lat="40.1974988" lon="1.4831634"><ele>0.0</ele><time>2026-04-30T00:13:15.951Z</time></trkpt><trkpt lat="40.1975704" lon="1.4832333"><ele>0.0</ele><time>2026-04-30T00:13:16.952Z</time></trkpt><trkpt lat="40.1976366" lon="1.4833003"><ele>0.0</ele><time>2026-04-30T00:13:17.951Z</time></trkpt><trkpt lat="40.1977109" lon="1.4833656"><ele>0.0</ele><time>2026-04-30T00:13:18.952Z</time></trkpt><trkpt lat="40.1977865" lon="1.4834246"><ele>0.0</ele><time>2026-04-30T00:13:19.952Z</time></trkpt><trkpt lat="40.1978601" lon="1.4834861"><ele>0.0</ele><time>2026-04-30T00:13:20.952Z</time></trkpt><trkpt lat="40.1979349" lon="1.4835464"><ele>0.0</ele><time>2026-04-30T00:13:21.951Z</time></trkpt><trkpt lat="40.1980129" lon="1.4836008"><ele>0.0</ele><time>2026-04-30T00:13:22.951Z</time></trkpt><trkpt lat="40.1980902" lon="1.4836536"><ele>0.0</ele><time>2026-04-30T00:13:23.952Z</time></trkpt><trkpt lat="40.198164" lon="1.4837068"><ele>0.0</ele><time>2026-04-30T00:13:24.952Z</time></trkpt><trkpt lat="40.1982387" lon="1.4837583"><ele>0.0</ele><time>2026-04-30T00:13:25.951Z</time></trkpt><trkpt lat="40.198308" lon="1.4838173"><ele>0.0</ele><time>2026-04-30T00:13:26.951Z</time></trkpt><trkpt lat="40.1983832" lon="1.4838688"><ele>0.0</ele><time>2026-04-30T00:13:27.951Z</time></trkpt><trkpt lat="40.1984597" lon="1.4839174"><ele>0.0</ele><time>2026-04-30T00:13:28.951Z</time></trkpt><trkpt lat="40.1985378" lon="1.4839672"><ele>0.0</ele><time>2026-04-30T00:13:29.952Z</time></trkpt><trkpt lat="40.1987708" lon="1.4841344"><ele>0.0</ele><time>2026-04-30T00:13:32.951Z</time></trkpt><trkpt lat="40.1988425" lon="1.4841899"><ele>0.0</ele><time>2026-04-30T00:13:33.951Z</time></trkpt><trkpt lat="40.1989168" lon="1.4842418"><ele>0.0</ele><time>2026-04-30T00:13:34.951Z</time></trkpt><trkpt lat="40.1989903" lon="1.4843051"><ele>0.0</ele><time>2026-04-30T00:13:35.951Z</time></trkpt><trkpt lat="40.1990689" lon="1.4843648"><ele>0.0</ele><time>2026-04-30T00:13:36.951Z</time></trkpt><trkpt lat="40.1991535" lon="1.4844246"><ele>0.0</ele><time>2026-04-30T00:13:37.951Z</time></trkpt><trkpt lat="40.1992375" lon="1.4844733"><ele>0.0</ele><time>2026-04-30T00:13:38.952Z</time></trkpt><trkpt lat="40.1993195" lon="1.484527"><ele>0.0</ele><time>2026-04-30T00:13:39.952Z</time></trkpt><trkpt lat="40.1993983" lon="1.4845817"><ele>0.0</ele><time>2026-04-30T00:13:40.952Z</time></trkpt><trkpt lat="40.1994754" lon="1.4846395"><ele>0.0</ele><time>2026-04-30T00:13:41.952Z</time></trkpt><trkpt lat="40.1995562" lon="1.484692"><ele>0.0</ele><time>2026-04-30T00:13:42.952Z</time></trkpt><trkpt lat="40.1996379" lon="1.4847465"><ele>0.0</ele><time>2026-04-30T00:13:43.952Z</time></trkpt><trkpt lat="40.1997136" lon="1.4848021"><ele>0.0</ele><time>2026-04-30T00:13:44.952Z</time></trkpt><trkpt lat="40.1997887" lon="1.4848499"><ele>0.0</ele><time>2026-04-30T00:13:45.952Z</time></trkpt><trkpt lat="40.1998593" lon="1.484909"><ele>0.0</ele><time>2026-04-30T00:13:46.952Z</time></trkpt><trkpt lat="40.1999334" lon="1.4849657"><ele>0.0</ele><time>2026-04-30T00:13:47.952Z</time></trkpt><trkpt lat="40.2000128" lon="1.4850149"><ele>0.0</ele><time>2026-04-30T00:13:48.951Z</time></trkpt><trkpt lat="40.2000885" lon="1.4850659"><ele>0.0</ele><time>2026-04-30T00:13:49.951Z</time></trkpt><trkpt lat="40.2001648" lon="1.485111"><ele>0.0</ele><time>2026-04-30T00:13:50.951Z</time></trkpt><trkpt lat="40.2002416" lon="1.4851585"><ele>0.0</ele><time>2026-04-30T00:13:51.952Z</time></trkpt><trkpt lat="40.2004045" lon="1.4852585"><ele>0.0</ele><time>2026-04-30T00:13:53.952Z</time></trkpt><trkpt lat="40.2004873" lon="1.4853086"><ele>0.0</ele><time>2026-04-30T00:13:54.951Z</time></trkpt><trkpt lat="40.2005664" lon="1.4853664"><ele>0.0</ele><time>2026-04-30T00:13:55.951Z</time></trkpt><trkpt lat="40.2006474" lon="1.4854237"><ele>0.0</ele><time>2026-04-30T00:13:56.952Z</time></trkpt><trkpt lat="40.2007293" lon="1.4854776"><ele>0.0</ele><time>2026-04-30T00:13:57.951Z</time></trkpt><trkpt lat="40.2008094" lon="1.4855348"><ele>0.0</ele><time>2026-04-30T00:13:58.952Z</time></trkpt><trkpt lat="40.2008882" lon="1.4855909"><ele>0.0</ele><time>2026-04-30T00:13:59.952Z</time></trkpt><trkpt lat="40.2009664" lon="1.4856425"><ele>0.0</ele><time>2026-04-30T00:14:00.951Z</time></trkpt><trkpt lat="40.2010476" lon="1.4856938"><ele>0.0</ele><time>2026-04-30T00:14:01.951Z</time></trkpt><trkpt lat="40.2012085" lon="1.4858074"><ele>0.0</ele><time>2026-04-30T00:14:03.951Z</time></trkpt><trkpt lat="40.2012879" lon="1.4858714"><ele>0.0</ele><time>2026-04-30T00:14:04.952Z</time></trkpt><trkpt lat="40.2013708" lon="1.485894"><ele>0.0</ele><time>2026-04-30T00:14:05.951Z</time></trkpt><trkpt lat="40.2014495" lon="1.4859432"><ele>0.0</ele><time>2026-04-30T00:14:06.951Z</time></trkpt><trkpt lat="40.2015295" lon="1.4859967"><ele>0.0</ele><time>2026-04-30T00:14:07.952Z</time></trkpt><trkpt lat="40.2016039" lon="1.4860583"><ele>0.0</ele><time>2026-04-30T00:14:08.951Z</time></trkpt><trkpt lat="40.2016758" lon="1.4861254"><ele>0.0</ele><time>2026-04-30T00:14:09.952Z</time></trkpt><trkpt lat="40.2017545" lon="1.4861797"><ele>0.0</ele><time>2026-04-30T00:14:10.952Z</time></trkpt><trkpt lat="40.2018358" lon="1.4862326"><ele>0.0</ele><time>2026-04-30T00:14:11.952Z</time></trkpt><trkpt lat="40.201919" lon="1.4862779"><ele>0.0</ele><time>2026-04-30T00:14:12.952Z</time></trkpt><trkpt lat="40.2020783" lon="1.4863655"><ele>0.0</ele><time>2026-04-30T00:14:14.951Z</time></trkpt><trkpt lat="40.2021564" lon="1.4864145"><ele>0.0</ele><time>2026-04-30T00:14:15.951Z</time></trkpt><trkpt lat="40.2022351" lon="1.4864531"><ele>0.0</ele><time>2026-04-30T00:14:16.951Z</time></trkpt><trkpt lat="40.2023102" lon="1.4864929"><ele>0.0</ele><time>2026-04-30T00:14:17.951Z</time></trkpt><trkpt lat="40.2023869" lon="1.4865418"><ele>0.0</ele><time>2026-04-30T00:14:18.952Z</time></trkpt><trkpt lat="40.2024607" lon="1.4865934"><ele>0.0</ele><time>2026-04-30T00:14:19.951Z</time></trkpt><trkpt lat="40.2025409" lon="1.4866183"><ele>0.0</ele><time>2026-04-30T00:14:20.952Z</time></trkpt><trkpt lat="40.202621" lon="1.4866668"><ele>0.0</ele><time>2026-04-30T00:14:21.951Z</time></trkpt><trkpt lat="40.2026997" lon="1.4867197"><ele>0.0</ele><time>2026-04-30T00:14:22.952Z</time></trkpt><trkpt lat="40.2027824" lon="1.4867466"><ele>0.0</ele><time>2026-04-30T00:14:23.951Z</time></trkpt><trkpt lat="40.2028644" lon="1.4867942"><ele>0.0</ele><time>2026-04-30T00:14:24.951Z</time></trkpt><trkpt lat="40.2029461" lon="1.4868498"><ele>0.0</ele><time>2026-04-30T00:14:25.951Z</time></trkpt><trkpt lat="40.2030277" lon="1.4868879"><ele>0.0</ele><time>2026-04-30T00:14:26.951Z</time></trkpt><trkpt lat="40.2031082" lon="1.4869374"><ele>0.0</ele><time>2026-04-30T00:14:27.952Z</time></trkpt><trkpt lat="40.2031882" lon="1.4869897"><ele>0.0</ele><time>2026-04-30T00:14:28.951Z</time></trkpt><trkpt lat="40.2032653" lon="1.4870461"><ele>0.0</ele><time>2026-04-30T00:14:29.952Z</time></trkpt><trkpt lat="40.2033432" lon="1.4871066"><ele>0.0</ele><time>2026-04-30T00:14:30.951Z</time></trkpt><trkpt lat="40.2034202" lon="1.4871613"><ele>0.0</ele><time>2026-04-30T00:14:31.952Z</time></trkpt><trkpt lat="40.2034967" lon="1.487217"><ele>0.0</ele><time>2026-04-30T00:14:32.952Z</time></trkpt><trkpt lat="40.2035731" lon="1.4872734"><ele>0.0</ele><time>2026-04-30T00:14:33.952Z</time></trkpt><trkpt lat="40.2037959" lon="1.4874603"><ele>0.0</ele><time>2026-04-30T00:14:36.951Z</time></trkpt><trkpt lat="40.2038644" lon="1.4875177"><ele>0.0</ele><time>2026-04-30T00:14:37.951Z</time></trkpt><trkpt lat="40.2039367" lon="1.48757"><ele>0.0</ele><time>2026-04-30T00:14:38.951Z</time></trkpt><trkpt lat="40.2040129" lon="1.4876227"><ele>0.0</ele><time>2026-04-30T00:14:39.951Z</time></trkpt><trkpt lat="40.2040912" lon="1.4876712"><ele>0.0</ele><time>2026-04-30T00:14:40.951Z</time></trkpt><trkpt lat="40.2041696" lon="1.4877277"><ele>0.0</ele><time>2026-04-30T00:14:41.951Z</time></trkpt><trkpt lat="40.2042469" lon="1.487786"><ele>0.0</ele><time>2026-04-30T00:14:42.951Z</time></trkpt><trkpt lat="40.2043224" lon="1.4878427"><ele>0.0</ele><time>2026-04-30T00:14:43.951Z</time></trkpt><trkpt lat="40.2043957" lon="1.4879019"><ele>0.0</ele><time>2026-04-30T00:14:44.952Z</time></trkpt><trkpt lat="40.2044702" lon="1.4879655"><ele>0.0</ele><time>2026-04-30T00:14:45.951Z</time></trkpt><trkpt lat="40.2045452" lon="1.4880317"><ele>0.0</ele><time>2026-04-30T00:14:46.952Z</time></trkpt><trkpt lat="40.2046215" lon="1.4880923"><ele>0.0</ele><time>2026-04-30T00:14:47.952Z</time></trkpt><trkpt lat="40.2046982" lon="1.4881408"><ele>0.0</ele><time>2026-04-30T00:14:48.951Z</time></trkpt><trkpt lat="40.2047747" lon="1.4881972"><ele>0.0</ele><time>2026-04-30T00:14:49.951Z</time></trkpt><trkpt lat="40.2048499" lon="1.4882537"><ele>0.0</ele><time>2026-04-30T00:14:50.951Z</time></trkpt><trkpt lat="40.2049295" lon="1.4883096"><ele>0.0</ele><time>2026-04-30T00:14:51.952Z</time></trkpt><trkpt lat="40.2050111" lon="1.4883634"><ele>0.0</ele><time>2026-04-30T00:14:52.951Z</time></trkpt><trkpt lat="40.2050902" lon="1.4884132"><ele>0.0</ele><time>2026-04-30T00:14:53.951Z</time></trkpt><trkpt lat="40.2051671" lon="1.4884645"><ele>0.0</ele><time>2026-04-30T00:14:54.952Z</time></trkpt><trkpt lat="40.2052438" lon="1.4885229"><ele>0.0</ele><time>2026-04-30T00:14:55.951Z</time></trkpt><trkpt lat="40.2053925" lon="1.4886327"><ele>0.0</ele><time>2026-04-30T00:14:57.951Z</time></trkpt><trkpt lat="40.2054674" lon="1.4886788"><ele>0.0</ele><time>2026-04-30T00:14:58.952Z</time></trkpt><trkpt lat="40.2055452" lon="1.4887192"><ele>0.0</ele><time>2026-04-30T00:14:59.951Z</time></trkpt><trkpt lat="40.2056135" lon="1.4887561"><ele>0.0</ele><time>2026-04-30T00:15:00.952Z</time></trkpt><trkpt lat="40.2056876" lon="1.4887888"><ele>0.0</ele><time>2026-04-30T00:15:01.952Z</time></trkpt><trkpt lat="40.2057682" lon="1.488832"><ele>0.0</ele><time>2026-04-30T00:15:02.952Z</time></trkpt><trkpt lat="40.2058472" lon="1.4888829"><ele>0.0</ele><time>2026-04-30T00:15:03.952Z</time></trkpt><trkpt lat="40.2059279" lon="1.4889394"><ele>0.0</ele><time>2026-04-30T00:15:04.951Z</time></trkpt><trkpt lat="40.206007" lon="1.4889955"><ele>0.0</ele><time>2026-04-30T00:15:05.951Z</time></trkpt><trkpt lat="40.2061641" lon="1.4891147"><ele>0.0</ele><time>2026-04-30T00:15:07.951Z</time></trkpt><trkpt lat="40.2062406" lon="1.4891747"><ele>0.0</ele><time>2026-04-30T00:15:08.952Z</time></trkpt><trkpt lat="40.2063116" lon="1.4892471"><ele>0.0</ele><time>2026-04-30T00:15:09.952Z</time></trkpt><trkpt lat="40.2063858" lon="1.4893123"><ele>0.0</ele><time>2026-04-30T00:15:10.952Z</time></trkpt><trkpt lat="40.2064707" lon="1.4893629"><ele>0.0</ele><time>2026-04-30T00:15:11.952Z</time></trkpt><trkpt lat="40.206553" lon="1.4894125"><ele>0.0</ele><time>2026-04-30T00:15:12.951Z</time></trkpt><trkpt lat="40.2066276" lon="1.4894697"><ele>0.0</ele><time>2026-04-30T00:15:13.951Z</time></trkpt><trkpt lat="40.2067024" lon="1.4895296"><ele>0.0</ele><time>2026-04-30T00:15:14.952Z</time></trkpt><trkpt lat="40.2067788" lon="1.4895851"><ele>0.0</ele><time>2026-04-30T00:15:15.952Z</time></trkpt><trkpt lat="40.2068528" lon="1.4896629"><ele>0.0</ele><time>2026-04-30T00:15:16.951Z</time></trkpt><trkpt lat="40.2071202" lon="1.4898867"><ele>0.0</ele><time>2026-04-30T00:15:21.144Z</time></trkpt><trkpt lat="40.2072107" lon="1.4899539"><ele>0.0</ele><time>2026-04-30T00:15:22.15Z</time></trkpt><trkpt lat="40.2073081" lon="1.4899982"><ele>0.0</ele><time>2026-04-30T00:15:23.156Z</time></trkpt><trkpt lat="40.2073998" lon="1.4900415"><ele>0.0</ele><time>2026-04-30T00:15:24.163Z</time></trkpt><trkpt lat="40.2075025" lon="1.4901259"><ele>0.0</ele><time>2026-04-30T00:15:26.072Z</time></trkpt><trkpt lat="40.2076034" lon="1.4902066"><ele>0.0</ele><time>2026-04-30T00:15:27.078Z</time></trkpt><trkpt lat="40.2077081" lon="1.4902279"><ele>0.0</ele><time>2026-04-30T00:15:28.084Z</time></trkpt><trkpt lat="40.2078006" lon="1.490267"><ele>0.0</ele><time>2026-04-30T00:15:29.089Z</time></trkpt><trkpt lat="40.2078897" lon="1.4903059"><ele>0.0</ele><time>2026-04-30T00:15:30.095Z</time></trkpt><trkpt lat="40.208112" lon="1.4903927"><ele>0.0</ele><time>2026-04-30T00:15:34.118Z</time></trkpt><trkpt lat="40.2082205" lon="1.4904425"><ele>0.0</ele><time>2026-04-30T00:15:35.123Z</time></trkpt><trkpt lat="40.2083189" lon="1.4904808"><ele>0.0</ele><time>2026-04-30T00:15:36.129Z</time></trkpt><trkpt lat="40.2084066" lon="1.4905361"><ele>0.0</ele><time>2026-04-30T00:15:37.135Z</time></trkpt><trkpt lat="40.2084905" lon="1.490595"><ele>0.0</ele><time>2026-04-30T00:15:38.141Z</time></trkpt><trkpt lat="40.2086821" lon="1.4907224"><ele>0.0</ele><time>2026-04-30T00:15:41.159Z</time></trkpt><trkpt lat="40.2087794" lon="1.4907852"><ele>0.0</ele><time>2026-04-30T00:15:42.063Z</time></trkpt><trkpt lat="40.2088779" lon="1.4908262"><ele>0.0</ele><time>2026-04-30T00:15:43.069Z</time></trkpt><trkpt lat="40.2089618" lon="1.490883"><ele>0.0</ele><time>2026-04-30T00:15:44.074Z</time></trkpt><trkpt lat="40.209036" lon="1.4909656"><ele>0.0</ele><time>2026-04-30T00:15:45.08Z</time></trkpt><trkpt lat="40.2091087" lon="1.4910421"><ele>0.0</ele><time>2026-04-30T00:15:46.085Z</time></trkpt><trkpt lat="40.2092183" lon="1.4911057"><ele>0.0</ele><time>2026-04-30T00:15:48.097Z</time></trkpt><trkpt lat="40.2093135" lon="1.4911956"><ele>0.0</ele><time>2026-04-30T00:15:49.102Z</time></trkpt><trkpt lat="40.2094002" lon="1.4912532"><ele>0.0</ele><time>2026-04-30T00:15:50.109Z</time></trkpt><trkpt lat="40.2094912" lon="1.491292"><ele>0.0</ele><time>2026-04-30T00:15:51.114Z</time></trkpt><trkpt lat="40.2095833" lon="1.4913334"><ele>0.0</ele><time>2026-04-30T00:15:52.12Z</time></trkpt><trkpt lat="40.2096716" lon="1.491376"><ele>0.0</ele><time>2026-04-30T00:15:53.125Z</time></trkpt><trkpt lat="40.2097799" lon="1.4914572"><ele>0.0</ele><time>2026-04-30T00:15:55.136Z</time></trkpt><trkpt lat="40.2098812" lon="1.4915359"><ele>0.0</ele><time>2026-04-30T00:15:56.143Z</time></trkpt><trkpt lat="40.2099743" lon="1.4915799"><ele>0.0</ele><time>2026-04-30T00:15:57.149Z</time></trkpt><trkpt lat="40.210058" lon="1.4916339"><ele>0.0</ele><time>2026-04-30T00:15:58.153Z</time></trkpt><trkpt lat="40.2101243" lon="1.4917266"><ele>0.0</ele><time>2026-04-30T00:15:59.159Z</time></trkpt><trkpt lat="40.2103465" lon="1.4919163"><ele>0.0</ele><time>2026-04-30T00:16:01.951Z</time></trkpt><trkpt lat="40.2104206" lon="1.4919721"><ele>0.0</ele><time>2026-04-30T00:16:02.951Z</time></trkpt><trkpt lat="40.2104998" lon="1.4920299"><ele>0.0</ele><time>2026-04-30T00:16:03.951Z</time></trkpt><trkpt lat="40.2105757" lon="1.4920844"><ele>0.0</ele><time>2026-04-30T00:16:04.951Z</time></trkpt><trkpt lat="40.2106474" lon="1.4920827"><ele>0.0</ele><time>2026-04-30T00:16:05.951Z</time></trkpt><trkpt lat="40.2107234" lon="1.4921197"><ele>0.0</ele><time>2026-04-30T00:16:06.952Z</time></trkpt><trkpt lat="40.2107971" lon="1.4921581"><ele>0.0</ele><time>2026-04-30T00:16:07.951Z</time></trkpt><trkpt lat="40.210873" lon="1.4922023"><ele>0.0</ele><time>2026-04-30T00:16:08.951Z</time></trkpt><trkpt lat="40.2110336" lon="1.4923135"><ele>0.0</ele><time>2026-04-30T00:16:10.952Z</time></trkpt><trkpt lat="40.211117" lon="1.4923751"><ele>0.0</ele><time>2026-04-30T00:16:11.952Z</time></trkpt><trkpt lat="40.2111977" lon="1.4924249"><ele>0.0</ele><time>2026-04-30T00:16:12.951Z</time></trkpt><trkpt lat="40.2112764" lon="1.4924749"><ele>0.0</ele><time>2026-04-30T00:16:13.952Z</time></trkpt><trkpt lat="40.2113533" lon="1.4925312"><ele>0.0</ele><time>2026-04-30T00:16:14.952Z</time></trkpt><trkpt lat="40.2114301" lon="1.4925807"><ele>0.0</ele><time>2026-04-30T00:16:15.952Z</time></trkpt><trkpt lat="40.2115011" lon="1.4926541"><ele>0.0</ele><time>2026-04-30T00:16:16.951Z</time></trkpt><trkpt lat="40.2115783" lon="1.4927093"><ele>0.0</ele><time>2026-04-30T00:16:17.952Z</time></trkpt><trkpt lat="40.2116577" lon="1.4927618"><ele>0.0</ele><time>2026-04-30T00:16:18.951Z</time></trkpt><trkpt lat="40.2117362" lon="1.4928134"><ele>0.0</ele><time>2026-04-30T00:16:19.952Z</time></trkpt><trkpt lat="40.2118859" lon="1.4929526"><ele>0.0</ele><time>2026-04-30T00:16:21.952Z</time></trkpt><trkpt lat="40.2119655" lon="1.4930132"><ele>0.0</ele><time>2026-04-30T00:16:22.952Z</time></trkpt><trkpt lat="40.2120497" lon="1.4930701"><ele>0.0</ele><time>2026-04-30T00:16:23.951Z</time></trkpt><trkpt lat="40.2121303" lon="1.4931229"><ele>0.0</ele><time>2026-04-30T00:16:24.951Z</time></trkpt><trkpt lat="40.2122085" lon="1.4931609"><ele>0.0</ele><time>2026-04-30T00:16:25.952Z</time></trkpt><trkpt lat="40.2122683" lon="1.4932268"><ele>0.0</ele><time>2026-04-30T00:16:28.145Z</time></trkpt><trkpt lat="40.2123151" lon="1.4933344"><ele>0.0</ele><time>2026-04-30T00:16:29.151Z</time></trkpt><trkpt lat="40.2124566" lon="1.4933793"><ele>0.0</ele><time>2026-04-30T00:16:30.157Z</time></trkpt><trkpt lat="40.2125643" lon="1.4934193"><ele>0.0</ele><time>2026-04-30T00:16:31.062Z</time></trkpt><trkpt lat="40.212654" lon="1.4934925"><ele>0.0</ele><time>2026-04-30T00:16:32.169Z</time></trkpt><trkpt lat="40.2127393" lon="1.493536"><ele>0.0</ele><time>2026-04-30T00:16:33.074Z</time></trkpt><trkpt lat="40.2128327" lon="1.4935911"><ele>0.0</ele><time>2026-04-30T00:16:34.18Z</time></trkpt><trkpt lat="40.2129063" lon="1.4936614"><ele>0.0</ele><time>2026-04-30T00:16:35.085Z</time></trkpt><trkpt lat="40.2129849" lon="1.4937279"><ele>0.0</ele><time>2026-04-30T00:16:36.091Z</time></trkpt><trkpt lat="40.2130666" lon="1.493792"><ele>0.0</ele><time>2026-04-30T00:16:37.096Z</time></trkpt><trkpt lat="40.2131764" lon="1.4938557"><ele>0.0</ele><time>2026-04-30T00:16:39.108Z</time></trkpt><trkpt lat="40.2132634" lon="1.4939556"><ele>0.0</ele><time>2026-04-30T00:16:40.113Z</time></trkpt><trkpt lat="40.21336" lon="1.4939857"><ele>0.0</ele><time>2026-04-30T00:16:41.119Z</time></trkpt><trkpt lat="40.2135943" lon="1.4941804"><ele>0.0</ele><time>2026-04-30T00:16:44.135Z</time></trkpt><trkpt lat="40.2136728" lon="1.4942501"><ele>0.0</ele><time>2026-04-30T00:16:45.142Z</time></trkpt><trkpt lat="40.2137718" lon="1.4943134"><ele>0.0</ele><time>2026-04-30T00:16:47.153Z</time></trkpt><trkpt lat="40.213855" lon="1.4944047"><ele>0.0</ele><time>2026-04-30T00:16:48.158Z</time></trkpt><trkpt lat="40.2139386" lon="1.4944514"><ele>0.0</ele><time>2026-04-30T00:16:49.164Z</time></trkpt><trkpt lat="40.2140112" lon="1.4945029"><ele>0.0</ele><time>2026-04-30T00:16:50.07Z</time></trkpt><trkpt lat="40.2140871" lon="1.4945751"><ele>0.0</ele><time>2026-04-30T00:16:51.074Z</time></trkpt><trkpt lat="40.2141697" lon="1.4946311"><ele>0.0</ele><time>2026-04-30T00:16:52.081Z</time></trkpt><trkpt lat="40.2142637" lon="1.494677"><ele>0.0</ele><time>2026-04-30T00:16:53.086Z</time></trkpt><trkpt lat="40.2143782" lon="1.4947224"><ele>0.0</ele><time>2026-04-30T00:16:55.097Z</time></trkpt><trkpt lat="40.2144768" lon="1.4948037"><ele>0.0</ele><time>2026-04-30T00:16:56.103Z</time></trkpt><trkpt lat="40.2145721" lon="1.4948486"><ele>0.0</ele><time>2026-04-30T00:16:57.108Z</time></trkpt><trkpt lat="40.2146602" lon="1.4949024"><ele>0.0</ele><time>2026-04-30T00:16:58.115Z</time></trkpt><trkpt lat="40.2147513" lon="1.4949502"><ele>0.0</ele><time>2026-04-30T00:16:59.121Z</time></trkpt><trkpt lat="40.214869" lon="1.4949864"><ele>0.0</ele><time>2026-04-30T00:17:01.131Z</time></trkpt><trkpt lat="40.2149724" lon="1.4950654"><ele>0.0</ele><time>2026-04-30T00:17:02.138Z</time></trkpt><trkpt lat="40.2150665" lon="1.4951104"><ele>0.0</ele><time>2026-04-30T00:17:03.142Z</time></trkpt><trkpt lat="40.2152778" lon="1.4951898"><ele>0.0</ele><time>2026-04-30T00:17:06.159Z</time></trkpt><trkpt lat="40.2154436" lon="1.4953234"><ele>0.0</ele><time>2026-04-30T00:17:07.951Z</time></trkpt><trkpt lat="40.2155189" lon="1.495386"><ele>0.0</ele><time>2026-04-30T00:17:08.951Z</time></trkpt><trkpt lat="40.2155952" lon="1.4954453"><ele>0.0</ele><time>2026-04-30T00:17:09.951Z</time></trkpt><trkpt lat="40.2156736" lon="1.4955065"><ele>0.0</ele><time>2026-04-30T00:17:10.951Z</time></trkpt><trkpt lat="40.2157491" lon="1.4955569"><ele>0.0</ele><time>2026-04-30T00:17:11.951Z</time></trkpt><trkpt lat="40.2158209" lon="1.4956126"><ele>0.0</ele><time>2026-04-30T00:17:12.951Z</time></trkpt><trkpt lat="40.2158952" lon="1.4956738"><ele>0.0</ele><time>2026-04-30T00:17:13.952Z</time></trkpt><trkpt lat="40.2159685" lon="1.4957215"><ele>0.0</ele><time>2026-04-30T00:17:14.951Z</time></trkpt><trkpt lat="40.2160433" lon="1.4957779"><ele>0.0</ele><time>2026-04-30T00:17:15.951Z</time></trkpt><trkpt lat="40.2161227" lon="1.4958159"><ele>0.0</ele><time>2026-04-30T00:17:16.951Z</time></trkpt><trkpt lat="40.2161943" lon="1.4958612"><ele>0.0</ele><time>2026-04-30T00:17:17.951Z</time></trkpt><trkpt lat="40.2162626" lon="1.4958905"><ele>0.0</ele><time>2026-04-30T00:17:18.95Z</time></trkpt><trkpt lat="40.2163364" lon="1.49595"><ele>0.0</ele><time>2026-04-30T00:17:19.951Z</time></trkpt><trkpt lat="40.2164103" lon="1.4960025"><ele>0.0</ele><time>2026-04-30T00:17:20.951Z</time></trkpt><trkpt lat="40.2164868" lon="1.4960596"><ele>0.0</ele><time>2026-04-30T00:17:21.951Z</time></trkpt><trkpt lat="40.216565" lon="1.4960968"><ele>0.0</ele><time>2026-04-30T00:17:22.951Z</time></trkpt><trkpt lat="40.2166448" lon="1.4961521"><ele>0.0</ele><time>2026-04-30T00:17:23.95Z</time></trkpt><trkpt lat="40.2167974" lon="1.4962442"><ele>0.0</ele><time>2026-04-30T00:17:25.951Z</time></trkpt><trkpt lat="40.2168745" lon="1.4963054"><ele>0.0</ele><time>2026-04-30T00:17:26.951Z</time></trkpt><trkpt lat="40.2169455" lon="1.4963701"><ele>0.0</ele><time>2026-04-30T00:17:27.95Z</time></trkpt><trkpt lat="40.2170196" lon="1.496435"><ele>0.0</ele><time>2026-04-30T00:17:28.951Z</time></trkpt><trkpt lat="40.217071" lon="1.4964869"><ele>0.0</ele><time>2026-04-30T00:17:32.152Z</time></trkpt><trkpt lat="40.217287" lon="1.4966145"><ele>0.0</ele><time>2026-04-30T00:17:33.158Z</time></trkpt><trkpt lat="40.2173875" lon="1.4966722"><ele>0.0</ele><time>2026-04-30T00:17:34.062Z</time></trkpt><trkpt lat="40.217476" lon="1.4967421"><ele>0.0</ele><time>2026-04-30T00:17:35.068Z</time></trkpt><trkpt lat="40.2175675" lon="1.4968171"><ele>0.0</ele><time>2026-04-30T00:17:36.175Z</time></trkpt><trkpt lat="40.217645" lon="1.4968948"><ele>0.0</ele><time>2026-04-30T00:17:37.08Z</time></trkpt><trkpt lat="40.217722" lon="1.4969781"><ele>0.0</ele><time>2026-04-30T00:17:38.085Z</time></trkpt><trkpt lat="40.2178094" lon="1.4970423"><ele>0.0</ele><time>2026-04-30T00:17:39.09Z</time></trkpt><trkpt lat="40.2179638" lon="1.497128"><ele>0.0</ele><time>2026-04-30T00:17:40.95Z</time></trkpt><trkpt lat="40.2180375" lon="1.4971854"><ele>0.0</ele><time>2026-04-30T00:17:41.95Z</time></trkpt><trkpt lat="40.218108" lon="1.4972421"><ele>0.0</ele><time>2026-04-30T00:17:42.951Z</time></trkpt><trkpt lat="40.2181805" lon="1.4973045"><ele>0.0</ele><time>2026-04-30T00:17:43.95Z</time></trkpt><trkpt lat="40.2182552" lon="1.4973454"><ele>0.0</ele><time>2026-04-30T00:17:44.951Z</time></trkpt><trkpt lat="40.2183415" lon="1.4973976"><ele>0.0</ele><time>2026-04-30T00:17:45.95Z</time></trkpt><trkpt lat="40.2185112" lon="1.497508"><ele>0.0</ele><time>2026-04-30T00:17:47.95Z</time></trkpt><trkpt lat="40.2185891" lon="1.4975665"><ele>0.0</ele><time>2026-04-30T00:17:48.95Z</time></trkpt><trkpt lat="40.2186684" lon="1.4976238"><ele>0.0</ele><time>2026-04-30T00:17:49.951Z</time></trkpt><trkpt lat="40.2187453" lon="1.4976593"><ele>0.0</ele><time>2026-04-30T00:17:50.951Z</time></trkpt><trkpt lat="40.2188221" lon="1.4977139"><ele>0.0</ele><time>2026-04-30T00:17:51.95Z</time></trkpt><trkpt lat="40.2188958" lon="1.4977779"><ele>0.0</ele><time>2026-04-30T00:17:52.95Z</time></trkpt><trkpt lat="40.2189703" lon="1.4978393"><ele>0.0</ele><time>2026-04-30T00:17:53.95Z</time></trkpt><trkpt lat="40.2190494" lon="1.4978487"><ele>0.0</ele><time>2026-04-30T00:17:54.951Z</time></trkpt><trkpt lat="40.2191269" lon="1.497896"><ele>0.0</ele><time>2026-04-30T00:17:55.951Z</time></trkpt><trkpt lat="40.2192049" lon="1.4979507"><ele>0.0</ele><time>2026-04-30T00:17:56.951Z</time></trkpt><trkpt lat="40.2192763" lon="1.4980213"><ele>0.0</ele><time>2026-04-30T00:17:57.95Z</time></trkpt><trkpt lat="40.219355" lon="1.4980979"><ele>0.0</ele><time>2026-04-30T00:17:58.95Z</time></trkpt><trkpt lat="40.2194349" lon="1.4981682"><ele>0.0</ele><time>2026-04-30T00:17:59.95Z</time></trkpt><trkpt lat="40.2195987" lon="1.4982084"><ele>0.0</ele><time>2026-04-30T00:18:03.153Z</time></trkpt><trkpt lat="40.2197093" lon="1.4983888"><ele>0.0</ele><time>2026-04-30T00:18:04.16Z</time></trkpt><trkpt lat="40.2197948" lon="1.4984794"><ele>0.0</ele><time>2026-04-30T00:18:05.165Z</time></trkpt><trkpt lat="40.2198731" lon="1.4985564"><ele>0.0</ele><time>2026-04-30T00:18:06.07Z</time></trkpt><trkpt lat="40.2200356" lon="1.4987265"><ele>0.0</ele><time>2026-04-30T00:18:07.95Z</time></trkpt><trkpt lat="40.2201746" lon="1.4988484"><ele>0.0</ele><time>2026-04-30T00:18:09.95Z</time></trkpt><trkpt lat="40.2202398" lon="1.4989105"><ele>0.0</ele><time>2026-04-30T00:18:10.951Z</time></trkpt><trkpt lat="40.2203107" lon="1.4989706"><ele>0.0</ele><time>2026-04-30T00:18:11.95Z</time></trkpt><trkpt lat="40.2203913" lon="1.4990258"><ele>0.0</ele><time>2026-04-30T00:18:12.951Z</time></trkpt><trkpt lat="40.2204702" lon="1.499081"><ele>0.0</ele><time>2026-04-30T00:18:13.95Z</time></trkpt><trkpt lat="40.2205458" lon="1.4991331"><ele>0.0</ele><time>2026-04-30T00:18:14.95Z</time></trkpt><trkpt lat="40.2206161" lon="1.4991827"><ele>0.0</ele><time>2026-04-30T00:18:15.951Z</time></trkpt><trkpt lat="40.2206876" lon="1.4992275"><ele>0.0</ele><time>2026-04-30T00:18:16.951Z</time></trkpt><trkpt lat="40.2208343" lon="1.4993195"><ele>0.0</ele><time>2026-04-30T00:18:18.951Z</time></trkpt><trkpt lat="40.2209059" lon="1.4993739"><ele>0.0</ele><time>2026-04-30T00:18:19.95Z</time></trkpt><trkpt lat="40.2209714" lon="1.4994317"><ele>0.0</ele><time>2026-04-30T00:18:20.951Z</time></trkpt><trkpt lat="40.2210375" lon="1.4994992"><ele>0.0</ele><time>2026-04-30T00:18:21.95Z</time></trkpt><trkpt lat="40.2211054" lon="1.4995686"><ele>0.0</ele><time>2026-04-30T00:18:22.95Z</time></trkpt><trkpt lat="40.2211777" lon="1.4996376"><ele>0.0</ele><time>2026-04-30T00:18:23.951Z</time></trkpt><trkpt lat="40.2212625" lon="1.499696"><ele>0.0</ele><time>2026-04-30T00:18:24.95Z</time></trkpt><trkpt lat="40.2213354" lon="1.4997593"><ele>0.0</ele><time>2026-04-30T00:18:25.95Z</time></trkpt><trkpt lat="40.2214071" lon="1.4998267"><ele>0.0</ele><time>2026-04-30T00:18:26.951Z</time></trkpt><trkpt lat="40.2214813" lon="1.4998953"><ele>0.0</ele><time>2026-04-30T00:18:27.951Z</time></trkpt><trkpt lat="40.221569" lon="1.4999571"><ele>0.0</ele><time>2026-04-30T00:18:28.95Z</time></trkpt><trkpt lat="40.2217335" lon="1.5000861"><ele>0.0</ele><time>2026-04-30T00:18:30.951Z</time></trkpt><trkpt lat="40.2218085" lon="1.5001607"><ele>0.0</ele><time>2026-04-30T00:18:31.95Z</time></trkpt><trkpt lat="40.2218848" lon="1.5002246"><ele>0.0</ele><time>2026-04-30T00:18:32.951Z</time></trkpt><trkpt lat="40.2219627" lon="1.5002836"><ele>0.0</ele><time>2026-04-30T00:18:33.95Z</time></trkpt><trkpt lat="40.2220413" lon="1.5003378"><ele>0.0</ele><time>2026-04-30T00:18:34.95Z</time></trkpt><trkpt lat="40.2221237" lon="1.5004066"><ele>0.0</ele><time>2026-04-30T00:18:35.95Z</time></trkpt><trkpt lat="40.2222058" lon="1.5004823"><ele>0.0</ele><time>2026-04-30T00:18:36.95Z</time></trkpt><trkpt lat="40.2222844" lon="1.5005353"><ele>0.0</ele><time>2026-04-30T00:18:37.95Z</time></trkpt><trkpt lat="40.2223669" lon="1.500614"><ele>0.0</ele><time>2026-04-30T00:18:38.951Z</time></trkpt><trkpt lat="40.2224494" lon="1.5006855"><ele>0.0</ele><time>2026-04-30T00:18:39.95Z</time></trkpt><trkpt lat="40.2225355" lon="1.5007547"><ele>0.0</ele><time>2026-04-30T00:18:40.95Z</time></trkpt><trkpt lat="40.2226222" lon="1.5008197"><ele>0.0</ele><time>2026-04-30T00:18:41.95Z</time></trkpt><trkpt lat="40.2227048" lon="1.5008816"><ele>0.0</ele><time>2026-04-30T00:18:42.95Z</time></trkpt><trkpt lat="40.2227882" lon="1.500935"><ele>0.0</ele><time>2026-04-30T00:18:43.95Z</time></trkpt><trkpt lat="40.2228681" lon="1.5010053"><ele>0.0</ele><time>2026-04-30T00:18:44.951Z</time></trkpt><trkpt lat="40.2229481" lon="1.5010731"><ele>0.0</ele><time>2026-04-30T00:18:45.951Z</time></trkpt><trkpt lat="40.2230309" lon="1.5011395"><ele>0.0</ele><time>2026-04-30T00:18:46.951Z</time></trkpt><trkpt lat="40.2231117" lon="1.5011962"><ele>0.0</ele><time>2026-04-30T00:18:47.951Z</time></trkpt><trkpt lat="40.2231886" lon="1.5012768"><ele>0.0</ele><time>2026-04-30T00:18:48.951Z</time></trkpt><trkpt lat="40.2234243" lon="1.5014941"><ele>0.0</ele><time>2026-04-30T00:18:51.951Z</time></trkpt><trkpt lat="40.2234988" lon="1.501554"><ele>0.0</ele><time>2026-04-30T00:18:52.951Z</time></trkpt><trkpt lat="40.2235639" lon="1.5015871"><ele>0.0</ele><time>2026-04-30T00:18:53.95Z</time></trkpt><trkpt lat="40.2236369" lon="1.5016575"><ele>0.0</ele><time>2026-04-30T00:18:54.95Z</time></trkpt><trkpt lat="40.2237073" lon="1.5017197"><ele>0.0</ele><time>2026-04-30T00:18:55.95Z</time></trkpt><trkpt lat="40.2237816" lon="1.5017712"><ele>0.0</ele><time>2026-04-30T00:18:56.951Z</time></trkpt><trkpt lat="40.2238591" lon="1.5018428"><ele>0.0</ele><time>2026-04-30T00:18:57.951Z</time></trkpt><trkpt lat="40.2239316" lon="1.5018939"><ele>0.0</ele><time>2026-04-30T00:18:58.95Z</time></trkpt><trkpt lat="40.224003" lon="1.5019338"><ele>0.0</ele><time>2026-04-30T00:18:59.951Z</time></trkpt><trkpt lat="40.2240761" lon="1.5019821"><ele>0.0</ele><time>2026-04-30T00:19:00.95Z</time></trkpt><trkpt lat="40.2241495" lon="1.502021"><ele>0.0</ele><time>2026-04-30T00:19:03.073Z</time></trkpt><trkpt lat="40.2242789" lon="1.5021135"><ele>0.0</ele><time>2026-04-30T00:19:04.079Z</time></trkpt><trkpt lat="40.2243675" lon="1.5021761"><ele>0.0</ele><time>2026-04-30T00:19:05.084Z</time></trkpt><trkpt lat="40.2244597" lon="1.502245"><ele>0.0</ele><time>2026-04-30T00:19:06.091Z</time></trkpt><trkpt lat="40.2246179" lon="1.5024037"><ele>0.0</ele><time>2026-04-30T00:19:07.951Z</time></trkpt><trkpt lat="40.2246935" lon="1.5024599"><ele>0.0</ele><time>2026-04-30T00:19:08.95Z</time></trkpt><trkpt lat="40.2247744" lon="1.5025177"><ele>0.0</ele><time>2026-04-30T00:19:09.95Z</time></trkpt><trkpt lat="40.2248444" lon="1.5025733"><ele>0.0</ele><time>2026-04-30T00:19:10.95Z</time></trkpt><trkpt lat="40.225003" lon="1.5026979"><ele>0.0</ele><time>2026-04-30T00:19:12.951Z</time></trkpt><trkpt lat="40.2250768" lon="1.5027534"><ele>0.0</ele><time>2026-04-30T00:19:13.951Z</time></trkpt><trkpt lat="40.2251571" lon="1.5027985"><ele>0.0</ele><time>2026-04-30T00:19:14.951Z</time></trkpt><trkpt lat="40.225239" lon="1.5028418"><ele>0.0</ele><time>2026-04-30T00:19:15.95Z</time></trkpt><trkpt lat="40.2253208" lon="1.5028851"><ele>0.0</ele><time>2026-04-30T00:19:16.95Z</time></trkpt><trkpt lat="40.2254041" lon="1.5029323"><ele>0.0</ele><time>2026-04-30T00:19:17.951Z</time></trkpt><trkpt lat="40.2254851" lon="1.5030107"><ele>0.0</ele><time>2026-04-30T00:19:18.95Z</time></trkpt><trkpt lat="40.2255633" lon="1.5030908"><ele>0.0</ele><time>2026-04-30T00:19:19.95Z</time></trkpt><trkpt lat="40.2256314" lon="1.5031218"><ele>0.0</ele><time>2026-04-30T00:19:20.951Z</time></trkpt><trkpt lat="40.2257075" lon="1.5031609"><ele>0.0</ele><time>2026-04-30T00:19:21.951Z</time></trkpt><trkpt lat="40.2257801" lon="1.5031991"><ele>0.0</ele><time>2026-04-30T00:19:22.951Z</time></trkpt><trkpt lat="40.2258634" lon="1.5032386"><ele>0.0</ele><time>2026-04-30T00:19:23.95Z</time></trkpt><trkpt lat="40.2259418" lon="1.5032832"><ele>0.0</ele><time>2026-04-30T00:19:24.951Z</time></trkpt><trkpt lat="40.2260157" lon="1.503328"><ele>0.0</ele><time>2026-04-30T00:19:25.95Z</time></trkpt><trkpt lat="40.2260973" lon="1.5033734"><ele>0.0</ele><time>2026-04-30T00:19:26.95Z</time></trkpt><trkpt lat="40.226172" lon="1.5034242"><ele>0.0</ele><time>2026-04-30T00:19:27.95Z</time></trkpt><trkpt lat="40.2262224" lon="1.5034839"><ele>0.0</ele><time>2026-04-30T00:19:30.149Z</time></trkpt><trkpt lat="40.2263679" lon="1.5035725"><ele>0.0</ele><time>2026-04-30T00:19:31.156Z</time></trkpt><trkpt lat="40.2265647" lon="1.5036261"><ele>0.0</ele><time>2026-04-30T00:19:32.951Z</time></trkpt><trkpt lat="40.2267204" lon="1.5037069"><ele>0.0</ele><time>2026-04-30T00:19:34.951Z</time></trkpt><trkpt lat="40.2267975" lon="1.5037413"><ele>0.0</ele><time>2026-04-30T00:19:35.951Z</time></trkpt><trkpt lat="40.2268741" lon="1.5037834"><ele>0.0</ele><time>2026-04-30T00:19:36.95Z</time></trkpt><trkpt lat="40.2269463" lon="1.5037827"><ele>0.0</ele><time>2026-04-30T00:19:37.95Z</time></trkpt><trkpt lat="40.227012" lon="1.5037911"><ele>0.0</ele><time>2026-04-30T00:19:38.95Z</time></trkpt><trkpt lat="40.227084" lon="1.5038359"><ele>0.0</ele><time>2026-04-30T00:19:39.951Z</time></trkpt><trkpt lat="40.2271533" lon="1.5038873"><ele>0.0</ele><time>2026-04-30T00:19:40.95Z</time></trkpt><trkpt lat="40.2272201" lon="1.5039419"><ele>0.0</ele><time>2026-04-30T00:19:41.951Z</time></trkpt><trkpt lat="40.2272912" lon="1.5039959"><ele>0.0</ele><time>2026-04-30T00:19:42.951Z</time></trkpt><trkpt lat="40.2273626" lon="1.5040538"><ele>0.0</ele><time>2026-04-30T00:19:43.951Z</time></trkpt><trkpt lat="40.2274353" lon="1.5041185"><ele>0.0</ele><time>2026-04-30T00:19:44.951Z</time></trkpt><trkpt lat="40.2275117" lon="1.5041843"><ele>0.0</ele><time>2026-04-30T00:19:45.95Z</time></trkpt><trkpt lat="40.2275854" lon="1.5042463"><ele>0.0</ele><time>2026-04-30T00:19:46.95Z</time></trkpt><trkpt lat="40.22767" lon="1.5043064"><ele>0.0</ele><time>2026-04-30T00:19:47.95Z</time></trkpt><trkpt lat="40.2277452" lon="1.5043667"><ele>0.0</ele><time>2026-04-30T00:19:48.95Z</time></trkpt><trkpt lat="40.2278217" lon="1.504421"><ele>0.0</ele><time>2026-04-30T00:19:49.95Z</time></trkpt><trkpt lat="40.2278965" lon="1.5044798"><ele>0.0</ele><time>2026-04-30T00:19:50.951Z</time></trkpt><trkpt lat="40.2279845" lon="1.504536"><ele>0.0</ele><time>2026-04-30T00:19:51.951Z</time></trkpt><trkpt lat="40.2280686" lon="1.5045898"><ele>0.0</ele><time>2026-04-30T00:19:52.95Z</time></trkpt><trkpt lat="40.2283249" lon="1.5047534"><ele>0.0</ele><time>2026-04-30T00:19:55.95Z</time></trkpt><trkpt lat="40.2284075" lon="1.5048012"><ele>0.0</ele><time>2026-04-30T00:19:56.95Z</time></trkpt><trkpt lat="40.2284965" lon="1.5048478"><ele>0.0</ele><time>2026-04-30T00:19:57.95Z</time></trkpt><trkpt lat="40.2285825" lon="1.5048943"><ele>0.0</ele><time>2026-04-30T00:19:58.95Z</time></trkpt><trkpt lat="40.2286604" lon="1.5049469"><ele>0.0</ele><time>2026-04-30T00:19:59.95Z</time></trkpt><trkpt lat="40.2287398" lon="1.5050002"><ele>0.0</ele><time>2026-04-30T00:20:00.95Z</time></trkpt><trkpt lat="40.2288271" lon="1.5050524"><ele>0.0</ele><time>2026-04-30T00:20:01.951Z</time></trkpt><trkpt lat="40.2289049" lon="1.5050962"><ele>0.0</ele><time>2026-04-30T00:20:04.129Z</time></trkpt><trkpt lat="40.2290153" lon="1.5051746"><ele>0.0</ele><time>2026-04-30T00:20:05.135Z</time></trkpt><trkpt lat="40.2291252" lon="1.5052346"><ele>0.0</ele><time>2026-04-30T00:20:06.14Z</time></trkpt><trkpt lat="40.2292255" lon="1.5052761"><ele>0.0</ele><time>2026-04-30T00:20:07.145Z</time></trkpt><trkpt lat="40.2293201" lon="1.5053102"><ele>0.0</ele><time>2026-04-30T00:20:08.151Z</time></trkpt><trkpt lat="40.2294073" lon="1.5053566"><ele>0.0</ele><time>2026-04-30T00:20:09.157Z</time></trkpt><trkpt lat="40.2295086" lon="1.5054524"><ele>0.0</ele><time>2026-04-30T00:20:10.951Z</time></trkpt><trkpt lat="40.2295864" lon="1.5055003"><ele>0.0</ele><time>2026-04-30T00:20:11.951Z</time></trkpt><trkpt lat="40.2296571" lon="1.5055523"><ele>0.0</ele><time>2026-04-30T00:20:12.95Z</time></trkpt><trkpt lat="40.2297358" lon="1.505604"><ele>0.0</ele><time>2026-04-30T00:20:13.95Z</time></trkpt><trkpt lat="40.2298176" lon="1.5056555"><ele>0.0</ele><time>2026-04-30T00:20:14.95Z</time></trkpt><trkpt lat="40.2299766" lon="1.5057674"><ele>0.0</ele><time>2026-04-30T00:20:16.95Z</time></trkpt><trkpt lat="40.2300549" lon="1.5058177"><ele>0.0</ele><time>2026-04-30T00:20:17.95Z</time></trkpt><trkpt lat="40.2301332" lon="1.5058703"><ele>0.0</ele><time>2026-04-30T00:20:18.95Z</time></trkpt><trkpt lat="40.2302116" lon="1.5059189"><ele>0.0</ele><time>2026-04-30T00:20:19.95Z</time></trkpt><trkpt lat="40.2302911" lon="1.5059697"><ele>0.0</ele><time>2026-04-30T00:20:20.95Z</time></trkpt><trkpt lat="40.2303695" lon="1.5060203"><ele>0.0</ele><time>2026-04-30T00:20:21.95Z</time></trkpt><trkpt lat="40.2304423" lon="1.5060631"><ele>0.0</ele><time>2026-04-30T00:20:22.95Z</time></trkpt><trkpt lat="40.2305127" lon="1.5061085"><ele>0.0</ele><time>2026-04-30T00:20:23.951Z</time></trkpt><trkpt lat="40.2305808" lon="1.5061584"><ele>0.0</ele><time>2026-04-30T00:20:24.951Z</time></trkpt><trkpt lat="40.2307296" lon="1.5062544"><ele>0.0</ele><time>2026-04-30T00:20:26.95Z</time></trkpt><trkpt lat="40.230798" lon="1.5063078"><ele>0.0</ele><time>2026-04-30T00:20:27.951Z</time></trkpt><trkpt lat="40.2308732" lon="1.5063631"><ele>0.0</ele><time>2026-04-30T00:20:28.951Z</time></trkpt><trkpt lat="40.2309554" lon="1.5064168"><ele>0.0</ele><time>2026-04-30T00:20:29.95Z</time></trkpt><trkpt lat="40.2310388" lon="1.5064646"><ele>0.0</ele><time>2026-04-30T00:20:30.951Z</time></trkpt><trkpt lat="40.2311167" lon="1.5065111"><ele>0.0</ele><time>2026-04-30T00:20:31.951Z</time></trkpt><trkpt lat="40.2311936" lon="1.5065605"><ele>0.0</ele><time>2026-04-30T00:20:32.95Z</time></trkpt><trkpt lat="40.2312717" lon="1.5066104"><ele>0.0</ele><time>2026-04-30T00:20:33.95Z</time></trkpt><trkpt lat="40.2313529" lon="1.5066587"><ele>0.0</ele><time>2026-04-30T00:20:34.95Z</time></trkpt><trkpt lat="40.2314373" lon="1.5067087"><ele>0.0</ele><time>2026-04-30T00:20:35.95Z</time></trkpt><trkpt lat="40.2315987" lon="1.5068278"><ele>0.0</ele><time>2026-04-30T00:20:37.95Z</time></trkpt><trkpt lat="40.2316758" lon="1.5068765"><ele>0.0</ele><time>2026-04-30T00:20:38.95Z</time></trkpt><trkpt lat="40.2317563" lon="1.5069259"><ele>0.0</ele><time>2026-04-30T00:20:39.951Z</time></trkpt><trkpt lat="40.2318291" lon="1.5069658"><ele>0.0</ele><time>2026-04-30T00:20:40.951Z</time></trkpt><trkpt lat="40.2319024" lon="1.5070111"><ele>0.0</ele><time>2026-04-30T00:20:41.95Z</time></trkpt><trkpt lat="40.2319741" lon="1.5070501"><ele>0.0</ele><time>2026-04-30T00:20:42.951Z</time></trkpt><trkpt lat="40.2320343" lon="1.5070905"><ele>0.0</ele><time>2026-04-30T00:20:45.149Z</time></trkpt><trkpt lat="40.2321365" lon="1.507144"><ele>0.0</ele><time>2026-04-30T00:20:46.153Z</time></trkpt><trkpt lat="40.2322366" lon="1.5072067"><ele>0.0</ele><time>2026-04-30T00:20:47.159Z</time></trkpt><trkpt lat="40.2323238" lon="1.5072579"><ele>0.0</ele><time>2026-04-30T00:20:48.064Z</time></trkpt><trkpt lat="40.2324089" lon="1.5073119"><ele>0.0</ele><time>2026-04-30T00:20:49.071Z</time></trkpt><trkpt lat="40.2324935" lon="1.507377"><ele>0.0</ele><time>2026-04-30T00:20:50.176Z</time></trkpt><trkpt lat="40.2325689" lon="1.5074514"><ele>0.0</ele><time>2026-04-30T00:20:51.082Z</time></trkpt><trkpt lat="40.23264" lon="1.5075341"><ele>0.0</ele><time>2026-04-30T00:20:52.087Z</time></trkpt><trkpt lat="40.2327138" lon="1.507608"><ele>0.0</ele><time>2026-04-30T00:20:53.093Z</time></trkpt><trkpt lat="40.232797" lon="1.5076589"><ele>0.0</ele><time>2026-04-30T00:20:54.099Z</time></trkpt><trkpt lat="40.2328874" lon="1.5076898"><ele>0.0</ele><time>2026-04-30T00:20:55.105Z</time></trkpt><trkpt lat="40.2330575" lon="1.5077941"><ele>0.0</ele><time>2026-04-30T00:20:56.95Z</time></trkpt><trkpt lat="40.2331441" lon="1.5078442"><ele>0.0</ele><time>2026-04-30T00:20:57.951Z</time></trkpt><trkpt lat="40.2333148" lon="1.5079739"><ele>0.0</ele><time>2026-04-30T00:20:59.951Z</time></trkpt><trkpt lat="40.2333951" lon="1.5080265"><ele>0.0</ele><time>2026-04-30T00:21:00.951Z</time></trkpt><trkpt lat="40.2334765" lon="1.5080966"><ele>0.0</ele><time>2026-04-30T00:21:01.95Z</time></trkpt><trkpt lat="40.2335566" lon="1.5081736"><ele>0.0</ele><time>2026-04-30T00:21:02.951Z</time></trkpt><trkpt lat="40.2336325" lon="1.508248"><ele>0.0</ele><time>2026-04-30T00:21:03.951Z</time></trkpt><trkpt lat="40.2337172" lon="1.5083358"><ele>0.0</ele><time>2026-04-30T00:21:04.951Z</time></trkpt><trkpt lat="40.2337939" lon="1.5084005"><ele>0.0</ele><time>2026-04-30T00:21:05.95Z</time></trkpt><trkpt lat="40.2338717" lon="1.5084677"><ele>0.0</ele><time>2026-04-30T00:21:06.951Z</time></trkpt><trkpt lat="40.2339483" lon="1.5085265"><ele>0.0</ele><time>2026-04-30T00:21:07.95Z</time></trkpt><trkpt lat="40.2340262" lon="1.5085705"><ele>0.0</ele><time>2026-04-30T00:21:08.951Z</time></trkpt><trkpt lat="40.2341005" lon="1.5086175"><ele>0.0</ele><time>2026-04-30T00:21:09.95Z</time></trkpt><trkpt lat="40.2341726" lon="1.5086614"><ele>0.0</ele><time>2026-04-30T00:21:10.95Z</time></trkpt><trkpt lat="40.2342472" lon="1.508713"><ele>0.0</ele><time>2026-04-30T00:21:11.95Z</time></trkpt><trkpt lat="40.2343176" lon="1.5087669"><ele>0.0</ele><time>2026-04-30T00:21:12.951Z</time></trkpt><trkpt lat="40.2343903" lon="1.5088187"><ele>0.0</ele><time>2026-04-30T00:21:13.95Z</time></trkpt><trkpt lat="40.2344651" lon="1.5088663"><ele>0.0</ele><time>2026-04-30T00:21:14.951Z</time></trkpt><trkpt lat="40.2345412" lon="1.5089171"><ele>0.0</ele><time>2026-04-30T00:21:15.951Z</time></trkpt><trkpt lat="40.2345992" lon="1.5089848"><ele>0.0</ele><time>2026-04-30T00:21:18.155Z</time></trkpt><trkpt lat="40.2346757" lon="1.5090826"><ele>0.0</ele><time>2026-04-30T00:21:19.059Z</time></trkpt><trkpt lat="40.2348837" lon="1.5091156"><ele>0.0</ele><time>2026-04-30T00:21:21.071Z</time></trkpt><trkpt lat="40.2349778" lon="1.509154"><ele>0.0</ele><time>2026-04-30T00:21:22.077Z</time></trkpt><trkpt lat="40.2350668" lon="1.5092058"><ele>0.0</ele><time>2026-04-30T00:21:23.082Z</time></trkpt><trkpt lat="40.2351506" lon="1.5092753"><ele>0.0</ele><time>2026-04-30T00:21:24.087Z</time></trkpt><trkpt lat="40.2352289" lon="1.5093493"><ele>0.0</ele><time>2026-04-30T00:21:25.093Z</time></trkpt><trkpt lat="40.2353414" lon="1.5094196"><ele>0.0</ele><time>2026-04-30T00:21:27.105Z</time></trkpt><trkpt lat="40.2354339" lon="1.5095157"><ele>0.0</ele><time>2026-04-30T00:21:28.11Z</time></trkpt><trkpt lat="40.2355465" lon="1.5096011"><ele>0.0</ele><time>2026-04-30T00:21:30.122Z</time></trkpt><trkpt lat="40.2356339" lon="1.5096984"><ele>0.0</ele><time>2026-04-30T00:21:31.128Z</time></trkpt><trkpt lat="40.2357329" lon="1.5097586"><ele>0.0</ele><time>2026-04-30T00:21:32.133Z</time></trkpt><trkpt lat="40.2358177" lon="1.5098108"><ele>0.0</ele><time>2026-04-30T00:21:33.139Z</time></trkpt><trkpt lat="40.2359024" lon="1.5098484"><ele>0.0</ele><time>2026-04-30T00:21:34.144Z</time></trkpt><trkpt lat="40.2360265" lon="1.5098695"><ele>0.0</ele><time>2026-04-30T00:21:36.156Z</time></trkpt><trkpt lat="40.2361334" lon="1.5099261"><ele>0.0</ele><time>2026-04-30T00:21:37.163Z</time></trkpt><trkpt lat="40.2362209" lon="1.5099556"><ele>0.0</ele><time>2026-04-30T00:21:38.068Z</time></trkpt><trkpt lat="40.2363031" lon="1.5100086"><ele>0.0</ele><time>2026-04-30T00:21:39.072Z</time></trkpt><trkpt lat="40.236417" lon="1.5101005"><ele>0.0</ele><time>2026-04-30T00:21:41.185Z</time></trkpt><trkpt lat="40.236599" lon="1.5102405"><ele>0.0</ele><time>2026-04-30T00:21:43.095Z</time></trkpt><trkpt lat="40.2366866" lon="1.5103042"><ele>0.0</ele><time>2026-04-30T00:21:44.101Z</time></trkpt><trkpt lat="40.2367688" lon="1.5103892"><ele>0.0</ele><time>2026-04-30T00:21:45.107Z</time></trkpt><trkpt lat="40.2368479" lon="1.5104602"><ele>0.0</ele><time>2026-04-30T00:21:46.113Z</time></trkpt><trkpt lat="40.2369289" lon="1.5105177"><ele>0.0</ele><time>2026-04-30T00:21:47.119Z</time></trkpt><trkpt lat="40.2370144" lon="1.5105831"><ele>0.0</ele><time>2026-04-30T00:21:48.124Z</time></trkpt><trkpt lat="40.2371003" lon="1.5106451"><ele>0.0</ele><time>2026-04-30T00:21:49.13Z</time></trkpt><trkpt lat="40.2371882" lon="1.510696"><ele>0.0</ele><time>2026-04-30T00:21:50.135Z</time></trkpt><trkpt lat="40.237267" lon="1.510777"><ele>0.0</ele><time>2026-04-30T00:21:51.141Z</time></trkpt><trkpt lat="40.2373396" lon="1.5108746"><ele>0.0</ele><time>2026-04-30T00:21:52.147Z</time></trkpt><trkpt lat="40.2374179" lon="1.5109608"><ele>0.0</ele><time>2026-04-30T00:21:53.154Z</time></trkpt><trkpt lat="40.2375053" lon="1.5110097"><ele>0.0</ele><time>2026-04-30T00:21:54.159Z</time></trkpt><trkpt lat="40.2375863" lon="1.5110599"><ele>0.0</ele><time>2026-04-30T00:21:55.164Z</time></trkpt><trkpt lat="40.2376707" lon="1.5110814"><ele>0.0</ele><time>2026-04-30T00:21:56.07Z</time></trkpt><trkpt lat="40.2377923" lon="1.511142"><ele>0.0</ele><time>2026-04-30T00:21:58.181Z</time></trkpt><trkpt lat="40.2378997" lon="1.5112091"><ele>0.0</ele><time>2026-04-30T00:21:59.086Z</time></trkpt><trkpt lat="40.2380012" lon="1.5112463"><ele>0.0</ele><time>2026-04-30T00:22:00.092Z</time></trkpt><trkpt lat="40.2381355" lon="1.511422"><ele>0.0</ele><time>2026-04-30T00:22:01.949Z</time></trkpt><trkpt lat="40.238213" lon="1.5114784"><ele>0.0</ele><time>2026-04-30T00:22:02.95Z</time></trkpt><trkpt lat="40.2383769" lon="1.5115829"><ele>0.0</ele><time>2026-04-30T00:22:04.949Z</time></trkpt><trkpt lat="40.2384573" lon="1.5116412"><ele>0.0</ele><time>2026-04-30T00:22:05.949Z</time></trkpt><trkpt lat="40.2385344" lon="1.5117045"><ele>0.0</ele><time>2026-04-30T00:22:06.95Z</time></trkpt><trkpt lat="40.2386108" lon="1.5117612"><ele>0.0</ele><time>2026-04-30T00:22:07.949Z</time></trkpt><trkpt lat="40.2386886" lon="1.5118131"><ele>0.0</ele><time>2026-04-30T00:22:08.949Z</time></trkpt><trkpt lat="40.2387584" lon="1.5118645"><ele>0.0</ele><time>2026-04-30T00:22:09.95Z</time></trkpt><trkpt lat="40.238828" lon="1.5119191"><ele>0.0</ele><time>2026-04-30T00:22:10.949Z</time></trkpt><trkpt lat="40.2388959" lon="1.5119721"><ele>0.0</ele><time>2026-04-30T00:22:11.949Z</time></trkpt><trkpt lat="40.2389596" lon="1.512024"><ele>0.0</ele><time>2026-04-30T00:22:12.949Z</time></trkpt><trkpt lat="40.2390345" lon="1.5120731"><ele>0.0</ele><time>2026-04-30T00:22:13.95Z</time></trkpt><trkpt lat="40.2391095" lon="1.5121257"><ele>0.0</ele><time>2026-04-30T00:22:14.949Z</time></trkpt><trkpt lat="40.2391819" lon="1.5121833"><ele>0.0</ele><time>2026-04-30T00:22:15.949Z</time></trkpt><trkpt lat="40.2392733" lon="1.5122477"><ele>0.0</ele><time>2026-04-30T00:22:16.949Z</time></trkpt><trkpt lat="40.239354" lon="1.5123071"><ele>0.0</ele><time>2026-04-30T00:22:17.95Z</time></trkpt><trkpt lat="40.2394267" lon="1.5123479"><ele>0.0</ele><time>2026-04-30T00:22:18.949Z</time></trkpt><trkpt lat="40.2394981" lon="1.5124002"><ele>0.0</ele><time>2026-04-30T00:22:19.949Z</time></trkpt><trkpt lat="40.2395767" lon="1.5124552"><ele>0.0</ele><time>2026-04-30T00:22:20.949Z</time></trkpt><trkpt lat="40.2396574" lon="1.5125043"><ele>0.0</ele><time>2026-04-30T00:22:21.949Z</time></trkpt><trkpt lat="40.2397392" lon="1.5125552"><ele>0.0</ele><time>2026-04-30T00:22:22.949Z</time></trkpt><trkpt lat="40.2398183" lon="1.5126026"><ele>0.0</ele><time>2026-04-30T00:22:23.949Z</time></trkpt><trkpt lat="40.2399748" lon="1.5126942"><ele>0.0</ele><time>2026-04-30T00:22:25.95Z</time></trkpt><trkpt lat="40.2400594" lon="1.5127406"><ele>0.0</ele><time>2026-04-30T00:22:26.95Z</time></trkpt><trkpt lat="40.240135" lon="1.5127901"><ele>0.0</ele><time>2026-04-30T00:22:27.95Z</time></trkpt><trkpt lat="40.2402088" lon="1.5128438"><ele>0.0</ele><time>2026-04-30T00:22:28.95Z</time></trkpt><trkpt lat="40.2402834" lon="1.5128821"><ele>0.0</ele><time>2026-04-30T00:22:29.949Z</time></trkpt><trkpt lat="40.2403611" lon="1.5129285"><ele>0.0</ele><time>2026-04-30T00:22:30.949Z</time></trkpt><trkpt lat="40.2404324" lon="1.5129819"><ele>0.0</ele><time>2026-04-30T00:22:31.949Z</time></trkpt><trkpt lat="40.2405028" lon="1.5130324"><ele>0.0</ele><time>2026-04-30T00:22:32.95Z</time></trkpt><trkpt lat="40.2405827" lon="1.5130909"><ele>0.0</ele><time>2026-04-30T00:22:33.95Z</time></trkpt><trkpt lat="40.2407397" lon="1.5132126"><ele>0.0</ele><time>2026-04-30T00:22:35.95Z</time></trkpt><trkpt lat="40.2408182" lon="1.5132753"><ele>0.0</ele><time>2026-04-30T00:22:36.949Z</time></trkpt><trkpt lat="40.240894" lon="1.513329"><ele>0.0</ele><time>2026-04-30T00:22:37.95Z</time></trkpt><trkpt lat="40.2409728" lon="1.513386"><ele>0.0</ele><time>2026-04-30T00:22:38.95Z</time></trkpt><trkpt lat="40.2410504" lon="1.5134385"><ele>0.0</ele><time>2026-04-30T00:22:39.949Z</time></trkpt><trkpt lat="40.2411314" lon="1.5134874"><ele>0.0</ele><time>2026-04-30T00:22:40.95Z</time></trkpt><trkpt lat="40.2412071" lon="1.5134692"><ele>0.0</ele><time>2026-04-30T00:22:41.949Z</time></trkpt><trkpt lat="40.2412873" lon="1.5134913"><ele>0.0</ele><time>2026-04-30T00:22:42.95Z</time></trkpt><trkpt lat="40.2413634" lon="1.5134845"><ele>0.0</ele><time>2026-04-30T00:22:43.949Z</time></trkpt><trkpt lat="40.24145" lon="1.5135217"><ele>0.0</ele><time>2026-04-30T00:22:44.95Z</time></trkpt><trkpt lat="40.2417056" lon="1.5137364"><ele>0.0</ele><time>2026-04-30T00:22:49.144Z</time></trkpt><trkpt lat="40.2418239" lon="1.5137813"><ele>0.0</ele><time>2026-04-30T00:22:50.149Z</time></trkpt><trkpt lat="40.2419199" lon="1.5138278"><ele>0.0</ele><time>2026-04-30T00:22:51.156Z</time></trkpt><trkpt lat="40.2420129" lon="1.5138875"><ele>0.0</ele><time>2026-04-30T00:22:52.161Z</time></trkpt><trkpt lat="40.2420937" lon="1.5139477"><ele>0.0</ele><time>2026-04-30T00:22:53.067Z</time></trkpt><trkpt lat="40.242181" lon="1.5140115"><ele>0.0</ele><time>2026-04-30T00:22:54.072Z</time></trkpt><trkpt lat="40.2422673" lon="1.5140794"><ele>0.0</ele><time>2026-04-30T00:22:55.078Z</time></trkpt><trkpt lat="40.242374" lon="1.5140758"><ele>0.0</ele><time>2026-04-30T00:22:57.089Z</time></trkpt><trkpt lat="40.2424682" lon="1.5141588"><ele>0.0</ele><time>2026-04-30T00:22:58.096Z</time></trkpt><trkpt lat="40.2425489" lon="1.514215"><ele>0.0</ele><time>2026-04-30T00:22:59.101Z</time></trkpt><trkpt lat="40.2426325" lon="1.5142616"><ele>0.0</ele><time>2026-04-30T00:23:00.106Z</time></trkpt><trkpt lat="40.2427134" lon="1.5143153"><ele>0.0</ele><time>2026-04-30T00:23:01.113Z</time></trkpt><trkpt lat="40.2427974" lon="1.5143458"><ele>0.0</ele><time>2026-04-30T00:23:02.118Z</time></trkpt><trkpt lat="40.242876" lon="1.5144057"><ele>0.0</ele><time>2026-04-30T00:23:03.123Z</time></trkpt><trkpt lat="40.2429541" lon="1.5144804"><ele>0.0</ele><time>2026-04-30T00:23:04.13Z</time></trkpt><trkpt lat="40.2430386" lon="1.5145497"><ele>0.0</ele><time>2026-04-30T00:23:05.135Z</time></trkpt><trkpt lat="40.2431175" lon="1.51464"><ele>0.0</ele><time>2026-04-30T00:23:06.141Z</time></trkpt><trkpt lat="40.243352" lon="1.5148531"><ele>0.0</ele><time>2026-04-30T00:23:09.159Z</time></trkpt><trkpt lat="40.2434304" lon="1.5148905"><ele>0.0</ele><time>2026-04-30T00:23:10.063Z</time></trkpt><trkpt lat="40.2435143" lon="1.5149363"><ele>0.0</ele><time>2026-04-30T00:23:11.068Z</time></trkpt><trkpt lat="40.2435951" lon="1.5149963"><ele>0.0</ele><time>2026-04-30T00:23:12.074Z</time></trkpt><trkpt lat="40.2436275" lon="1.515092"><ele>0.0</ele><time>2026-04-30T00:23:14.087Z</time></trkpt><trkpt lat="40.2437343" lon="1.5151662"><ele>0.0</ele><time>2026-04-30T00:23:15.091Z</time></trkpt><trkpt lat="40.2438304" lon="1.5152099"><ele>0.0</ele><time>2026-04-30T00:23:16.097Z</time></trkpt><trkpt lat="40.2439206" lon="1.5152637"><ele>0.0</ele><time>2026-04-30T00:23:17.103Z</time></trkpt><trkpt lat="40.2440124" lon="1.515316"><ele>0.0</ele><time>2026-04-30T00:23:18.11Z</time></trkpt><trkpt lat="40.2441092" lon="1.5153595"><ele>0.0</ele><time>2026-04-30T00:23:19.114Z</time></trkpt><trkpt lat="40.2441997" lon="1.5154079"><ele>0.0</ele><time>2026-04-30T00:23:20.12Z</time></trkpt><trkpt lat="40.244283" lon="1.5154655"><ele>0.0</ele><time>2026-04-30T00:23:21.126Z</time></trkpt><trkpt lat="40.2443948" lon="1.5155039"><ele>0.0</ele><time>2026-04-30T00:23:24.144Z</time></trkpt><trkpt lat="40.244524" lon="1.5155931"><ele>0.0</ele><time>2026-04-30T00:23:25.149Z</time></trkpt><trkpt lat="40.2446252" lon="1.5156453"><ele>0.0</ele><time>2026-04-30T00:23:26.155Z</time></trkpt><trkpt lat="40.2447091" lon="1.5156971"><ele>0.0</ele><time>2026-04-30T00:23:27.059Z</time></trkpt><trkpt lat="40.2447877" lon="1.5157715"><ele>0.0</ele><time>2026-04-30T00:23:28.167Z</time></trkpt><trkpt lat="40.2449419" lon="1.5158649"><ele>0.0</ele><time>2026-04-30T00:23:30.077Z</time></trkpt><trkpt lat="40.2450267" lon="1.5159036"><ele>0.0</ele><time>2026-04-30T00:23:31.083Z</time></trkpt><trkpt lat="40.2451159" lon="1.5159323"><ele>0.0</ele><time>2026-04-30T00:23:32.088Z</time></trkpt><trkpt lat="40.2452039" lon="1.5159739"><ele>0.0</ele><time>2026-04-30T00:23:33.094Z</time></trkpt><trkpt lat="40.2452907" lon="1.5160116"><ele>0.0</ele><time>2026-04-30T00:23:34.101Z</time></trkpt><trkpt lat="40.2453655" lon="1.516071"><ele>0.0</ele><time>2026-04-30T00:23:35.105Z</time></trkpt><trkpt lat="40.2455058" lon="1.5161801"><ele>0.0</ele><time>2026-04-30T00:23:38.123Z</time></trkpt><trkpt lat="40.2457398" lon="1.5162395"><ele>0.0</ele><time>2026-04-30T00:23:40.134Z</time></trkpt><trkpt lat="40.2458305" lon="1.5163089"><ele>0.0</ele><time>2026-04-30T00:23:41.141Z</time></trkpt><trkpt lat="40.2459181" lon="1.5163829"><ele>0.0</ele><time>2026-04-30T00:23:42.145Z</time></trkpt><trkpt lat="40.2459974" lon="1.516455"><ele>0.0</ele><time>2026-04-30T00:23:43.151Z</time></trkpt><trkpt lat="40.2460617" lon="1.516552"><ele>0.0</ele><time>2026-04-30T00:23:44.157Z</time></trkpt><trkpt lat="40.2461247" lon="1.516639"><ele>0.0</ele><time>2026-04-30T00:23:45.062Z</time></trkpt><trkpt lat="40.2461974" lon="1.5167321"><ele>0.0</ele><time>2026-04-30T00:23:46.168Z</time></trkpt><trkpt lat="40.2462642" lon="1.5168267"><ele>0.0</ele><time>2026-04-30T00:23:47.073Z</time></trkpt><trkpt lat="40.2463388" lon="1.5169089"><ele>0.0</ele><time>2026-04-30T00:23:48.08Z</time></trkpt><trkpt lat="40.246424" lon="1.5169653"><ele>0.0</ele><time>2026-04-30T00:23:49.086Z</time></trkpt><trkpt lat="40.2465865" lon="1.5170675"><ele>0.0</ele><time>2026-04-30T00:23:51.097Z</time></trkpt><trkpt lat="40.2466668" lon="1.5171243"><ele>0.0</ele><time>2026-04-30T00:23:52.102Z</time></trkpt><trkpt lat="40.246755" lon="1.5171751"><ele>0.0</ele><time>2026-04-30T00:23:53.108Z</time></trkpt><trkpt lat="40.246866" lon="1.5172895"><ele>0.0</ele><time>2026-04-30T00:23:55.12Z</time></trkpt><trkpt lat="40.2469497" lon="1.517403"><ele>0.0</ele><time>2026-04-30T00:23:56.125Z</time></trkpt><trkpt lat="40.2470372" lon="1.5174792"><ele>0.0</ele><time>2026-04-30T00:23:57.132Z</time></trkpt><trkpt lat="40.2471227" lon="1.5175434"><ele>0.0</ele><time>2026-04-30T00:23:58.137Z</time></trkpt><trkpt lat="40.2472083" lon="1.5176078"><ele>0.0</ele><time>2026-04-30T00:23:59.143Z</time></trkpt><trkpt lat="40.2473182" lon="1.5176857"><ele>0.0</ele><time>2026-04-30T00:24:01.154Z</time></trkpt><trkpt lat="40.2474157" lon="1.5177714"><ele>0.0</ele><time>2026-04-30T00:24:02.159Z</time></trkpt><trkpt lat="40.2474997" lon="1.5178365"><ele>0.0</ele><time>2026-04-30T00:24:03.165Z</time></trkpt><trkpt lat="40.2475754" lon="1.5178989"><ele>0.0</ele><time>2026-04-30T00:24:04.07Z</time></trkpt><trkpt lat="40.2476498" lon="1.5179806"><ele>0.0</ele><time>2026-04-30T00:24:05.077Z</time></trkpt><trkpt lat="40.2477259" lon="1.518054"><ele>0.0</ele><time>2026-04-30T00:24:06.082Z</time></trkpt><trkpt lat="40.2478115" lon="1.5181089"><ele>0.0</ele><time>2026-04-30T00:24:07.089Z</time></trkpt><trkpt lat="40.2479098" lon="1.5181711"><ele>0.0</ele><time>2026-04-30T00:24:09.099Z</time></trkpt><trkpt lat="40.248014" lon="1.5182418"><ele>0.0</ele><time>2026-04-30T00:24:10.106Z</time></trkpt><trkpt lat="40.248178" lon="1.51834"><ele>0.0</ele><time>2026-04-30T00:24:12.116Z</time></trkpt><trkpt lat="40.2482515" lon="1.5183999"><ele>0.0</ele><time>2026-04-30T00:24:13.123Z</time></trkpt><trkpt lat="40.2483319" lon="1.5184409"><ele>0.0</ele><time>2026-04-30T00:24:14.128Z</time></trkpt><trkpt lat="40.2484317" lon="1.5184527"><ele>0.0</ele><time>2026-04-30T00:24:16.14Z</time></trkpt><trkpt lat="40.2485227" lon="1.5185399"><ele>0.0</ele><time>2026-04-30T00:24:17.145Z</time></trkpt><trkpt lat="40.2486215" lon="1.5185791"><ele>0.0</ele><time>2026-04-30T00:24:18.152Z</time></trkpt><trkpt lat="40.2487211" lon="1.5185988"><ele>0.0</ele><time>2026-04-30T00:24:19.157Z</time></trkpt><trkpt lat="40.2488107" lon="1.5186282"><ele>0.0</ele><time>2026-04-30T00:24:20.162Z</time></trkpt><trkpt lat="40.2488938" lon="1.5186742"><ele>0.0</ele><time>2026-04-30T00:24:21.168Z</time></trkpt><trkpt lat="40.2489704" lon="1.5187199"><ele>0.0</ele><time>2026-04-30T00:24:22.073Z</time></trkpt><trkpt lat="40.249061" lon="1.5187514"><ele>0.0</ele><time>2026-04-30T00:24:23.079Z</time></trkpt><trkpt lat="40.2491473" lon="1.5188049"><ele>0.0</ele><time>2026-04-30T00:24:24.085Z</time></trkpt><trkpt lat="40.249289" lon="1.5189242"><ele>0.0</ele><time>2026-04-30T00:24:27.102Z</time></trkpt><trkpt lat="40.2493941" lon="1.5189717"><ele>0.0</ele><time>2026-04-30T00:24:28.108Z</time></trkpt><trkpt lat="40.2495082" lon="1.5189451"><ele>0.0</ele><time>2026-04-30T00:24:29.113Z</time></trkpt><trkpt lat="40.2496142" lon="1.5189697"><ele>0.0</ele><time>2026-04-30T00:24:30.119Z</time></trkpt><trkpt lat="40.2497133" lon="1.519023"><ele>0.0</ele><time>2026-04-30T00:24:31.125Z</time></trkpt><trkpt lat="40.2498956" lon="1.5191167"><ele>0.0</ele><time>2026-04-30T00:24:33.136Z</time></trkpt><trkpt lat="40.2499801" lon="1.5191737"><ele>0.0</ele><time>2026-04-30T00:24:34.142Z</time></trkpt><trkpt lat="40.2499539" lon="1.5192613"><ele>0.0</ele><time>2026-04-30T00:24:36.154Z</time></trkpt><trkpt lat="40.25005" lon="1.5193125"><ele>0.0</ele><time>2026-04-30T00:24:37.16Z</time></trkpt><trkpt lat="40.2502332" lon="1.519301"><ele>0.0</ele><time>2026-04-30T00:24:38.065Z</time></trkpt><trkpt lat="40.2503313" lon="1.519361"><ele>0.0</ele><time>2026-04-30T00:24:39.07Z</time></trkpt><trkpt lat="40.2504153" lon="1.5194179"><ele>0.0</ele><time>2026-04-30T00:24:40.077Z</time></trkpt><trkpt lat="40.2504895" lon="1.5195108"><ele>0.0</ele><time>2026-04-30T00:24:41.081Z</time></trkpt><trkpt lat="40.2505723" lon="1.5195842"><ele>0.0</ele><time>2026-04-30T00:24:42.088Z</time></trkpt><trkpt lat="40.2506569" lon="1.5196474"><ele>0.0</ele><time>2026-04-30T00:24:43.094Z</time></trkpt><trkpt lat="40.2507387" lon="1.5197137"><ele>0.0</ele><time>2026-04-30T00:24:44.098Z</time></trkpt><trkpt lat="40.2507971" lon="1.5198256"><ele>0.0</ele><time>2026-04-30T00:24:45.105Z</time></trkpt><trkpt lat="40.2508621" lon="1.5199204"><ele>0.0</ele><time>2026-04-30T00:24:46.111Z</time></trkpt><trkpt lat="40.2509391" lon="1.5199928"><ele>0.0</ele><time>2026-04-30T00:24:47.117Z</time></trkpt><trkpt lat="40.2510285" lon="1.5200384"><ele>0.0</ele><time>2026-04-30T00:24:48.122Z</time></trkpt><trkpt lat="40.2511216" lon="1.5200817"><ele>0.0</ele><time>2026-04-30T00:24:49.127Z</time></trkpt><trkpt lat="40.2512005" lon="1.5201629"><ele>0.0</ele><time>2026-04-30T00:24:50.133Z</time></trkpt><trkpt lat="40.2512921" lon="1.5201873"><ele>0.0</ele><time>2026-04-30T00:24:51.139Z</time></trkpt><trkpt lat="40.2514016" lon="1.52018"><ele>0.0</ele><time>2026-04-30T00:24:53.15Z</time></trkpt><trkpt lat="40.2515689" lon="1.5203522"><ele>0.0</ele><time>2026-04-30T00:24:55.062Z</time></trkpt><trkpt lat="40.2516487" lon="1.5204094"><ele>0.0</ele><time>2026-04-30T00:24:56.068Z</time></trkpt><trkpt lat="40.2517326" lon="1.520471"><ele>0.0</ele><time>2026-04-30T00:24:57.173Z</time></trkpt><trkpt lat="40.2518192" lon="1.5205072"><ele>0.0</ele><time>2026-04-30T00:24:58.079Z</time></trkpt><trkpt lat="40.2519005" lon="1.5205622"><ele>0.0</ele><time>2026-04-30T00:24:59.084Z</time></trkpt><trkpt lat="40.2519821" lon="1.5206189"><ele>0.0</ele><time>2026-04-30T00:25:00.09Z</time></trkpt><trkpt lat="40.2520753" lon="1.5206877"><ele>0.0</ele><time>2026-04-30T00:25:02.101Z</time></trkpt><trkpt lat="40.2521618" lon="1.5207907"><ele>0.0</ele><time>2026-04-30T00:25:03.108Z</time></trkpt><trkpt lat="40.2522535" lon="1.5208455"><ele>0.0</ele><time>2026-04-30T00:25:04.114Z</time></trkpt><trkpt lat="40.2523395" lon="1.5208912"><ele>0.0</ele><time>2026-04-30T00:25:05.118Z</time></trkpt><trkpt lat="40.2524057" lon="1.5209643"><ele>0.0</ele><time>2026-04-30T00:25:06.124Z</time></trkpt><trkpt lat="40.2524736" lon="1.5210351"><ele>0.0</ele><time>2026-04-30T00:25:07.13Z</time></trkpt><trkpt lat="40.252548" lon="1.5211005"><ele>0.0</ele><time>2026-04-30T00:25:08.136Z</time></trkpt><trkpt lat="40.2526329" lon="1.5211732"><ele>0.0</ele><time>2026-04-30T00:25:09.142Z</time></trkpt><trkpt lat="40.2527193" lon="1.5212373"><ele>0.0</ele><time>2026-04-30T00:25:10.148Z</time></trkpt><trkpt lat="40.2528047" lon="1.5212949"><ele>0.0</ele><time>2026-04-30T00:25:11.153Z</time></trkpt><trkpt lat="40.252886" lon="1.521354"><ele>0.0</ele><time>2026-04-30T00:25:12.16Z</time></trkpt><trkpt lat="40.2529525" lon="1.5214219"><ele>0.0</ele><time>2026-04-30T00:25:13.064Z</time></trkpt><trkpt lat="40.2530244" lon="1.5214979"><ele>0.0</ele><time>2026-04-30T00:25:14.07Z</time></trkpt><trkpt lat="40.2533082" lon="1.5216942"><ele>0.0</ele><time>2026-04-30T00:25:18.092Z</time></trkpt><trkpt lat="40.2533743" lon="1.5217721"><ele>0.0</ele><time>2026-04-30T00:25:19.099Z</time></trkpt><trkpt lat="40.2534261" lon="1.5218503"><ele>0.0</ele><time>2026-04-30T00:25:20.104Z</time></trkpt><trkpt lat="40.2534891" lon="1.5219246"><ele>0.0</ele><time>2026-04-30T00:25:21.111Z</time></trkpt><trkpt lat="40.2535671" lon="1.5219863"><ele>0.0</ele><time>2026-04-30T00:25:22.116Z</time></trkpt><trkpt lat="40.2536495" lon="1.5220448"><ele>0.0</ele><time>2026-04-30T00:25:23.122Z</time></trkpt><trkpt lat="40.2537439" lon="1.5220938"><ele>0.0</ele><time>2026-04-30T00:25:24.127Z</time></trkpt><trkpt lat="40.2538441" lon="1.522119"><ele>0.0</ele><time>2026-04-30T00:25:25.134Z</time></trkpt><trkpt lat="40.2539441" lon="1.5221451"><ele>0.0</ele><time>2026-04-30T00:25:26.138Z</time></trkpt><trkpt lat="40.2540393" lon="1.5222267"><ele>0.0</ele><time>2026-04-30T00:25:28.15Z</time></trkpt><trkpt lat="40.2541364" lon="1.5222054"><ele>0.0</ele><time>2026-04-30T00:25:29.156Z</time></trkpt><trkpt lat="40.2542309" lon="1.5222261"><ele>0.0</ele><time>2026-04-30T00:25:30.061Z</time></trkpt><trkpt lat="40.2543242" lon="1.5222949"><ele>0.0</ele><time>2026-04-30T00:25:31.167Z</time></trkpt><trkpt lat="40.2544083" lon="1.5223742"><ele>0.0</ele><time>2026-04-30T00:25:32.072Z</time></trkpt><trkpt lat="40.2544931" lon="1.5224454"><ele>0.0</ele><time>2026-04-30T00:25:33.078Z</time></trkpt><trkpt lat="40.2545798" lon="1.5225057"><ele>0.0</ele><time>2026-04-30T00:25:34.085Z</time></trkpt><trkpt lat="40.2546672" lon="1.5225643"><ele>0.0</ele><time>2026-04-30T00:25:35.089Z</time></trkpt><trkpt lat="40.2547492" lon="1.522629"><ele>0.0</ele><time>2026-04-30T00:25:36.096Z</time></trkpt><trkpt lat="40.2549029" lon="1.5227641"><ele>0.0</ele><time>2026-04-30T00:25:38.108Z</time></trkpt><trkpt lat="40.2549584" lon="1.522854"><ele>0.0</ele><time>2026-04-30T00:25:39.113Z</time></trkpt><trkpt lat="40.2550228" lon="1.5229359"><ele>0.0</ele><time>2026-04-30T00:25:40.118Z</time></trkpt><trkpt lat="40.255103" lon="1.5230005"><ele>0.0</ele><time>2026-04-30T00:25:41.124Z</time></trkpt><trkpt lat="40.2552522" lon="1.523093"><ele>0.0</ele><time>2026-04-30T00:25:44.142Z</time></trkpt><trkpt lat="40.2553745" lon="1.5231295"><ele>0.0</ele><time>2026-04-30T00:25:45.147Z</time></trkpt><trkpt lat="40.2554581" lon="1.5231988"><ele>0.0</ele><time>2026-04-30T00:25:46.152Z</time></trkpt><trkpt lat="40.2556024" lon="1.5233422"><ele>0.0</ele><time>2026-04-30T00:25:48.064Z</time></trkpt><trkpt lat="40.2556775" lon="1.5234158"><ele>0.0</ele><time>2026-04-30T00:25:49.069Z</time></trkpt><trkpt lat="40.2557487" lon="1.5234843"><ele>0.0</ele><time>2026-04-30T00:25:50.075Z</time></trkpt><trkpt lat="40.2558319" lon="1.5235358"><ele>0.0</ele><time>2026-04-30T00:25:51.081Z</time></trkpt><trkpt lat="40.2559248" lon="1.5235841"><ele>0.0</ele><time>2026-04-30T00:25:52.086Z</time></trkpt><trkpt lat="40.256009" lon="1.5236382"><ele>0.0</ele><time>2026-04-30T00:25:53.092Z</time></trkpt><trkpt lat="40.2561245" lon="1.5237103"><ele>0.0</ele><time>2026-04-30T00:25:55.104Z</time></trkpt><trkpt lat="40.2562292" lon="1.5237718"><ele>0.0</ele><time>2026-04-30T00:25:56.11Z</time></trkpt><trkpt lat="40.2563212" lon="1.5238164"><ele>0.0</ele><time>2026-04-30T00:25:57.116Z</time></trkpt><trkpt lat="40.2565003" lon="1.5239127"><ele>0.0</ele><time>2026-04-30T00:25:59.126Z</time></trkpt><trkpt lat="40.25662" lon="1.5239792"><ele>0.0</ele><time>2026-04-30T00:26:01.139Z</time></trkpt><trkpt lat="40.2567282" lon="1.5240528"><ele>0.0</ele><time>2026-04-30T00:26:02.145Z</time></trkpt><trkpt lat="40.2568231" lon="1.5241169"><ele>0.0</ele><time>2026-04-30T00:26:03.149Z</time></trkpt><trkpt lat="40.256902" lon="1.5242093"><ele>0.0</ele><time>2026-04-30T00:26:04.156Z</time></trkpt><trkpt lat="40.2569673" lon="1.5242962"><ele>0.0</ele><time>2026-04-30T00:26:05.06Z</time></trkpt><trkpt lat="40.2570473" lon="1.5243846"><ele>0.0</ele><time>2026-04-30T00:26:06.167Z</time></trkpt><trkpt lat="40.2571225" lon="1.5244678"><ele>0.0</ele><time>2026-04-30T00:26:07.073Z</time></trkpt><trkpt lat="40.2572151" lon="1.5245095"><ele>0.0</ele><time>2026-04-30T00:26:08.078Z</time></trkpt><trkpt lat="40.2573323" lon="1.5245297"><ele>0.0</ele><time>2026-04-30T00:26:10.09Z</time></trkpt><trkpt lat="40.25742" lon="1.5246094"><ele>0.0</ele><time>2026-04-30T00:26:11.095Z</time></trkpt><trkpt lat="40.2575005" lon="1.5246452"><ele>0.0</ele><time>2026-04-30T00:26:12.101Z</time></trkpt><trkpt lat="40.2575784" lon="1.5246803"><ele>0.0</ele><time>2026-04-30T00:26:13.106Z</time></trkpt><trkpt lat="40.257655" lon="1.5247248"><ele>0.0</ele><time>2026-04-30T00:26:14.113Z</time></trkpt><trkpt lat="40.257738" lon="1.5247402"><ele>0.0</ele><time>2026-04-30T00:26:15.118Z</time></trkpt><trkpt lat="40.2578143" lon="1.5247967"><ele>0.0</ele><time>2026-04-30T00:26:16.123Z</time></trkpt><trkpt lat="40.2579196" lon="1.5249065"><ele>0.0</ele><time>2026-04-30T00:26:18.135Z</time></trkpt><trkpt lat="40.2580187" lon="1.52501"><ele>0.0</ele><time>2026-04-30T00:26:19.142Z</time></trkpt><trkpt lat="40.2582054" lon="1.5251005"><ele>0.0</ele><time>2026-04-30T00:26:21.152Z</time></trkpt><trkpt lat="40.2582933" lon="1.5251434"><ele>0.0</ele><time>2026-04-30T00:26:22.057Z</time></trkpt><trkpt lat="40.2583777" lon="1.5252194"><ele>0.0</ele><time>2026-04-30T00:26:23.063Z</time></trkpt><trkpt lat="40.2584605" lon="1.5252894"><ele>0.0</ele><time>2026-04-30T00:26:24.069Z</time></trkpt><trkpt lat="40.2585386" lon="1.5253379"><ele>0.0</ele><time>2026-04-30T00:26:25.074Z</time></trkpt><trkpt lat="40.2586693" lon="1.5254144"><ele>0.0</ele><time>2026-04-30T00:26:26.949Z</time></trkpt><trkpt lat="40.2587474" lon="1.5254545"><ele>0.0</ele><time>2026-04-30T00:26:27.949Z</time></trkpt><trkpt lat="40.2588288" lon="1.5254979"><ele>0.0</ele><time>2026-04-30T00:26:28.949Z</time></trkpt><trkpt lat="40.258912" lon="1.5255441"><ele>0.0</ele><time>2026-04-30T00:26:29.949Z</time></trkpt><trkpt lat="40.2589939" lon="1.5255949"><ele>0.0</ele><time>2026-04-30T00:26:30.948Z</time></trkpt><trkpt lat="40.2590746" lon="1.5256436"><ele>0.0</ele><time>2026-04-30T00:26:31.948Z</time></trkpt><trkpt lat="40.2591361" lon="1.5256975"><ele>0.0</ele><time>2026-04-30T00:26:32.948Z</time></trkpt><trkpt lat="40.2592028" lon="1.5257594"><ele>0.0</ele><time>2026-04-30T00:26:33.949Z</time></trkpt><trkpt lat="40.259268" lon="1.5258015"><ele>0.0</ele><time>2026-04-30T00:26:34.948Z</time></trkpt><trkpt lat="40.2593285" lon="1.5258487"><ele>0.0</ele><time>2026-04-30T00:26:35.948Z</time></trkpt><trkpt lat="40.2594085" lon="1.5258705"><ele>0.0</ele><time>2026-04-30T00:26:36.948Z</time></trkpt><trkpt lat="40.2594904" lon="1.5259325"><ele>0.0</ele><time>2026-04-30T00:26:37.949Z</time></trkpt><trkpt lat="40.259564" lon="1.5259946"><ele>0.0</ele><time>2026-04-30T00:26:38.949Z</time></trkpt><trkpt lat="40.2596487" lon="1.5260511"><ele>0.0</ele><time>2026-04-30T00:26:39.948Z</time></trkpt><trkpt lat="40.2598099" lon="1.5261787"><ele>0.0</ele><time>2026-04-30T00:26:41.948Z</time></trkpt><trkpt lat="40.2598791" lon="1.5262422"><ele>0.0</ele><time>2026-04-30T00:26:42.948Z</time></trkpt><trkpt lat="40.259953" lon="1.5262752"><ele>0.0</ele><time>2026-04-30T00:26:43.949Z</time></trkpt><trkpt lat="40.2600348" lon="1.5263221"><ele>0.0</ele><time>2026-04-30T00:26:44.949Z</time></trkpt><trkpt lat="40.2601056" lon="1.5263649"><ele>0.0</ele><time>2026-04-30T00:26:45.948Z</time></trkpt><trkpt lat="40.2601797" lon="1.5264111"><ele>0.0</ele><time>2026-04-30T00:26:46.949Z</time></trkpt><trkpt lat="40.2602597" lon="1.5264285"><ele>0.0</ele><time>2026-04-30T00:26:49.148Z</time></trkpt><trkpt lat="40.2604086" lon="1.5264317"><ele>0.0</ele><time>2026-04-30T00:26:50.154Z</time></trkpt><trkpt lat="40.2605018" lon="1.5265046"><ele>0.0</ele><time>2026-04-30T00:26:51.161Z</time></trkpt><trkpt lat="40.2606547" lon="1.5266713"><ele>0.0</ele><time>2026-04-30T00:26:53.072Z</time></trkpt><trkpt lat="40.2607405" lon="1.5267199"><ele>0.0</ele><time>2026-04-30T00:26:54.077Z</time></trkpt><trkpt lat="40.2608291" lon="1.5267719"><ele>0.0</ele><time>2026-04-30T00:26:55.083Z</time></trkpt><trkpt lat="40.2609194" lon="1.5268174"><ele>0.0</ele><time>2026-04-30T00:26:56.088Z</time></trkpt><trkpt lat="40.2610024" lon="1.5268622"><ele>0.0</ele><time>2026-04-30T00:26:57.095Z</time></trkpt><trkpt lat="40.2610678" lon="1.5269492"><ele>0.0</ele><time>2026-04-30T00:26:58.099Z</time></trkpt><trkpt lat="40.2611338" lon="1.5270312"><ele>0.0</ele><time>2026-04-30T00:26:59.105Z</time></trkpt><trkpt lat="40.2612148" lon="1.5270954"><ele>0.0</ele><time>2026-04-30T00:27:00.111Z</time></trkpt></trkseg><trkseg><trkpt lat="41.3704374" lon="2.1769107"><ele>3.0</ele><time>2026-04-30T07:18:15.099Z</time></trkpt><trkpt lat="41.3703948" lon="2.1768093"><ele>3.0</ele><time>2026-04-30T07:45:58.155Z</time></trkpt><trkpt lat="41.3704676" lon="2.1770593"><ele>3.0</ele><time>2026-04-30T07:58:19.111Z</time></trkpt><trkpt lat="41.370483" lon="2.177136"><ele>3.0</ele><time>2026-04-30T08:57:41.113Z</time></trkpt><trkpt lat="41.3704886" lon="2.1773398"><ele>2.25</ele><time>2026-04-30T08:57:49.157Z</time></trkpt><trkpt lat="41.3704771" lon="2.1775185"><ele>1.5</ele><time>2026-04-30T08:58:06.15Z</time></trkpt><trkpt lat="41.3704862" lon="2.1776031"><ele>0.75</ele><time>2026-04-30T08:58:11.178Z</time></trkpt><trkpt lat="41.3703139" lon="2.1777776"><ele>0.0</ele><time>2026-04-30T08:59:06.179Z</time></trkpt><trkpt lat="41.3701826" lon="2.1777777"><ele>0.0</ele><time>2026-04-30T08:59:22.167Z</time></trkpt><trkpt lat="41.370128" lon="2.1778348"><ele>0.0</ele><time>2026-04-30T08:59:30.11Z</time></trkpt><trkpt lat="41.3700391" lon="2.1779693"><ele>0.0</ele><time>2026-04-30T08:59:51.126Z</time></trkpt><trkpt lat="41.3699233" lon="2.1780596"><ele>0.0</ele><time>2026-04-30T09:00:09.125Z</time></trkpt><trkpt lat="41.3698641" lon="2.1780175"><ele>0.0</ele><time>2026-04-30T09:00:16.163Z</time></trkpt><trkpt lat="41.3697452" lon="2.1780611"><ele>0.0</ele><time>2026-04-30T09:00:28.13Z</time></trkpt><trkpt lat="41.369687" lon="2.1781112"><ele>0.0</ele><time>2026-04-30T09:00:33.158Z</time></trkpt><trkpt lat="41.3696236" lon="2.1781552"><ele>0.0</ele><time>2026-04-30T09:00:40.095Z</time></trkpt><trkpt lat="41.3695078" lon="2.1782496"><ele>0.0</ele><time>2026-04-30T09:00:52.162Z</time></trkpt><trkpt lat="41.3694383" lon="2.1782622"><ele>0.0</ele><time>2026-04-30T09:00:58.094Z</time></trkpt><trkpt lat="41.3693671" lon="2.1782783"><ele>0.0</ele><time>2026-04-30T09:01:04.128Z</time></trkpt><trkpt lat="41.3692477" lon="2.1783837"><ele>0.0</ele><time>2026-04-30T09:01:19.111Z</time></trkpt><trkpt lat="41.3691777" lon="2.1784337"><ele>0.0</ele><time>2026-04-30T09:01:25.143Z</time></trkpt><trkpt lat="41.3690422" lon="2.1785315"><ele>0.0</ele><time>2026-04-30T09:01:36.104Z</time></trkpt><trkpt lat="41.3689177" lon="2.1786061"><ele>0.0</ele><time>2026-04-30T09:01:48.172Z</time></trkpt><trkpt lat="41.3687412" lon="2.178686"><ele>0.0</ele><time>2026-04-30T09:01:59.132Z</time></trkpt><trkpt lat="41.3686805" lon="2.1787234"><ele>0.0</ele><time>2026-04-30T09:02:03.154Z</time></trkpt><trkpt lat="41.3686157" lon="2.1787762"><ele>0.0</ele><time>2026-04-30T09:02:08.181Z</time></trkpt><trkpt lat="41.3685512" lon="2.178781"><ele>0.0</ele><time>2026-04-30T09:02:14.114Z</time></trkpt><trkpt lat="41.3684291" lon="2.1787388"><ele>0.0</ele><time>2026-04-30T09:02:32.115Z</time></trkpt><trkpt lat="41.3683768" lon="2.1786873"><ele>0.0</ele><time>2026-04-30T09:02:40.158Z</time></trkpt><trkpt lat="41.3682622" lon="2.1786095"><ele>0.0</ele><time>2026-04-30T09:03:02.085Z</time></trkpt><trkpt lat="41.368382" lon="2.1784029"><ele>0.0</ele><time>2026-04-30T09:03:39.085Z</time></trkpt><trkpt lat="41.3684459" lon="2.178422"><ele>0.0</ele><time>2026-04-30T09:03:51.152Z</time></trkpt><trkpt lat="41.3685545" lon="2.1785195"><ele>0.0</ele><time>2026-04-30T09:04:16.189Z</time></trkpt><trkpt lat="41.3686551" lon="2.178603"><ele>0.0</ele><time>2026-04-30T09:04:31.173Z</time></trkpt><trkpt lat="41.3687008" lon="2.1785295"><ele>0.0</ele><time>2026-04-30T09:04:37.105Z</time></trkpt><trkpt lat="41.368803" lon="2.1785955"><ele>0.0</ele><time>2026-04-30T09:04:51.184Z</time></trkpt><trkpt lat="41.3688397" lon="2.1786657"><ele>0.0</ele><time>2026-04-30T09:04:59.127Z</time></trkpt><trkpt lat="41.3689201" lon="2.1789153"><ele>0.0</ele><time>2026-04-30T09:05:36.132Z</time></trkpt><trkpt lat="41.3689115" lon="2.1792784"><ele>0.0</ele><time>2026-04-30T09:05:57.149Z</time></trkpt><trkpt lat="41.36891" lon="2.1794799"><ele>0.0</ele><time>2026-04-30T09:06:09.116Z</time></trkpt><trkpt lat="41.3688996" lon="2.1796448"><ele>0.0</ele><time>2026-04-30T09:06:19.171Z</time></trkpt><trkpt lat="41.3688171" lon="2.1800139"><ele>0.0</ele><time>2026-04-30T09:06:36.166Z</time></trkpt><trkpt lat="41.368758" lon="2.1801874"><ele>0.0</ele><time>2026-04-30T09:06:44.11Z</time></trkpt><trkpt lat="41.3686589" lon="2.1805587"><ele>0.0</ele><time>2026-04-30T09:07:00.097Z</time></trkpt><trkpt lat="41.3685986" lon="2.1807137"><ele>0.0</ele><time>2026-04-30T09:07:06.131Z</time></trkpt><trkpt lat="41.3684242" lon="2.1810547"><ele>0.0</ele><time>2026-04-30T09:07:22.12Z</time></trkpt><trkpt lat="41.368363" lon="2.1811855"><ele>0.0</ele><time>2026-04-30T09:07:28.154Z</time></trkpt><trkpt lat="41.3682085" lon="2.1814964"><ele>0.0</ele><time>2026-04-30T09:07:40.119Z</time></trkpt><trkpt lat="41.368181" lon="2.1815736"><ele>0.0</ele><time>2026-04-30T09:07:44.142Z</time></trkpt><trkpt lat="41.3681283" lon="2.1816507"><ele>0.0</ele><time>2026-04-30T09:07:46.154Z</time></trkpt><trkpt lat="41.3680245" lon="2.1818019"><ele>0.0</ele><time>2026-04-30T09:07:52.091Z</time></trkpt><trkpt lat="41.3678451" lon="2.182066"><ele>0.0</ele><time>2026-04-30T09:08:04.158Z</time></trkpt><trkpt lat="41.3677143" lon="2.1822315"><ele>0.0</ele><time>2026-04-30T09:08:09.085Z</time></trkpt><trkpt lat="41.3676725" lon="2.1822973"><ele>0.0</ele><time>2026-04-30T09:08:13.108Z</time></trkpt><trkpt lat="41.3675179" lon="2.182462"><ele>0.0</ele><time>2026-04-30T09:08:19.142Z</time></trkpt><trkpt lat="41.3673937" lon="2.1825514"><ele>0.0</ele><time>2026-04-30T09:08:23.085Z</time></trkpt><trkpt lat="41.3672298" lon="2.1826732"><ele>0.0</ele><time>2026-04-30T09:08:29.097Z</time></trkpt><trkpt lat="41.3671747" lon="2.1827343"><ele>0.0</ele><time>2026-04-30T09:08:33.118Z</time></trkpt><trkpt lat="41.3670797" lon="2.182884"><ele>0.0</ele><time>2026-04-30T09:08:38.147Z</time></trkpt><trkpt lat="41.3668502" lon="2.1832094"><ele>0.0</ele><time>2026-04-30T09:08:51.119Z</time></trkpt><trkpt lat="41.3667902" lon="2.183257"><ele>0.0</ele><time>2026-04-30T09:08:55.14Z</time></trkpt><trkpt lat="41.3666844" lon="2.1833126"><ele>0.0</ele><time>2026-04-30T09:08:57.153Z</time></trkpt><trkpt lat="41.3666296" lon="2.1833595"><ele>0.0</ele><time>2026-04-30T09:09:01.085Z</time></trkpt><trkpt lat="41.366438" lon="2.1834424"><ele>0.0</ele><time>2026-04-30T09:09:07.108Z</time></trkpt><trkpt lat="41.3663011" lon="2.1835119"><ele>0.0</ele><time>2026-04-30T09:09:11.129Z</time></trkpt><trkpt lat="41.3662346" lon="2.1835366"><ele>0.0</ele><time>2026-04-30T09:09:14.146Z</time></trkpt><trkpt lat="41.366103" lon="2.1835837"><ele>0.0</ele><time>2026-04-30T09:09:18.169Z</time></trkpt><trkpt lat="41.3660443" lon="2.183633"><ele>0.0</ele><time>2026-04-30T09:09:20.085Z</time></trkpt><trkpt lat="41.3659322" lon="2.1836913"><ele>0.0</ele><time>2026-04-30T09:09:24.101Z</time></trkpt><trkpt lat="41.3657788" lon="2.1837716"><ele>0.0</ele><time>2026-04-30T09:09:30.136Z</time></trkpt><trkpt lat="41.3656299" lon="2.1838606"><ele>0.0</ele><time>2026-04-30T09:09:36.168Z</time></trkpt><trkpt lat="41.365569" lon="2.1839107"><ele>0.0</ele><time>2026-04-30T09:09:40.09Z</time></trkpt><trkpt lat="41.3654588" lon="2.1839867"><ele>2.0</ele><time>2026-04-30T09:09:43.107Z</time></trkpt><trkpt lat="41.365396" lon="2.1840209"><ele>4.0</ele><time>2026-04-30T09:09:46.125Z</time></trkpt><trkpt lat="41.3652144" lon="2.1841601"><ele>6.0</ele><time>2026-04-30T09:09:54.168Z</time></trkpt><trkpt lat="41.3651016" lon="2.1842023"><ele>8.0</ele><time>2026-04-30T09:09:57.084Z</time></trkpt><trkpt lat="41.365031" lon="2.1842169"><ele>8.0</ele><time>2026-04-30T09:10:01.108Z</time></trkpt><trkpt lat="41.364918" lon="2.184278"><ele>8.0</ele><time>2026-04-30T09:10:05.129Z</time></trkpt><trkpt lat="41.3648484" lon="2.1843019"><ele>8.0</ele><time>2026-04-30T09:10:09.153Z</time></trkpt><trkpt lat="41.3645763" lon="2.184371"><ele>6.800000000000001</ele><time>2026-04-30T09:10:18.101Z</time></trkpt><trkpt lat="41.3645152" lon="2.1843949"><ele>5.6000000000000005</ele><time>2026-04-30T09:10:22.124Z</time></trkpt><trkpt lat="41.364408" lon="2.1844591"><ele>4.4</ele><time>2026-04-30T09:10:24.135Z</time></trkpt><trkpt lat="41.3643457" lon="2.1844808"><ele>3.2</ele><time>2026-04-30T09:10:28.157Z</time></trkpt><trkpt lat="41.3642256" lon="2.1845202"><ele>2.0</ele><time>2026-04-30T09:10:30.084Z</time></trkpt><trkpt lat="41.3640117" lon="2.1846121"><ele>2.0</ele><time>2026-04-30T09:10:42.136Z</time></trkpt><trkpt lat="41.3639059" lon="2.184658"><ele>2.0</ele><time>2026-04-30T09:10:45.152Z</time></trkpt><trkpt lat="41.363845" lon="2.1846857"><ele>2.0</ele><time>2026-04-30T09:10:49.174Z</time></trkpt><trkpt lat="41.3637442" lon="2.18473"><ele>2.0</ele><time>2026-04-30T09:10:52.09Z</time></trkpt><trkpt lat="41.3635083" lon="2.1848224"><ele>1.5</ele><time>2026-04-30T09:11:02.146Z</time></trkpt><trkpt lat="41.3633993" lon="2.1848311"><ele>1.0</ele><time>2026-04-30T09:11:05.163Z</time></trkpt><trkpt lat="41.3633336" lon="2.1848401"><ele>0.5</ele><time>2026-04-30T09:11:08.085Z</time></trkpt><trkpt lat="41.3632182" lon="2.1848155"><ele>0.0</ele><time>2026-04-30T09:11:13.108Z</time></trkpt><trkpt lat="41.3630259" lon="2.1848275"><ele>0.0</ele><time>2026-04-30T09:11:21.152Z</time></trkpt><trkpt lat="41.3629547" lon="2.1848232"><ele>0.0</ele><time>2026-04-30T09:11:25.174Z</time></trkpt><trkpt lat="41.3628357" lon="2.1848388"><ele>0.0</ele><time>2026-04-30T09:11:28.092Z</time></trkpt><trkpt lat="41.3627595" lon="2.1848632"><ele>0.0</ele><time>2026-04-30T09:11:31.109Z</time></trkpt><trkpt lat="41.3626168" lon="2.1848779"><ele>0.0</ele><time>2026-04-30T09:11:36.136Z</time></trkpt><trkpt lat="41.3624201" lon="2.1848103"><ele>0.0</ele><time>2026-04-30T09:11:43.085Z</time></trkpt><trkpt lat="41.3623581" lon="2.1847817"><ele>0.0</ele><time>2026-04-30T09:11:47.098Z</time></trkpt><trkpt lat="41.3622482" lon="2.1847565"><ele>0.0</ele><time>2026-04-30T09:11:49.108Z</time></trkpt><trkpt lat="41.3621777" lon="2.1847557"><ele>0.0</ele><time>2026-04-30T09:11:53.131Z</time></trkpt><trkpt lat="41.3620642" lon="2.1847687"><ele>0.0</ele><time>2026-04-30T09:11:55.142Z</time></trkpt><trkpt lat="41.3619971" lon="2.1847863"><ele>0.0</ele><time>2026-04-30T09:11:58.159Z</time></trkpt><trkpt lat="41.3618128" lon="2.184794"><ele>0.0</ele><time>2026-04-30T09:12:04.091Z</time></trkpt><trkpt lat="41.36171" lon="2.1847786"><ele>0.0</ele><time>2026-04-30T09:12:06.103Z</time></trkpt><trkpt lat="41.3615418" lon="2.184732"><ele>0.0</ele><time>2026-04-30T09:12:12.137Z</time></trkpt><trkpt lat="41.3614764" lon="2.1847194"><ele>0.0</ele><time>2026-04-30T09:12:16.159Z</time></trkpt><trkpt lat="41.3613623" lon="2.1846841"><ele>0.0</ele><time>2026-04-30T09:12:18.171Z</time></trkpt><trkpt lat="41.3612941" lon="2.1846633"><ele>0.0</ele><time>2026-04-30T09:12:21.086Z</time></trkpt><trkpt lat="41.361088" lon="2.1845667"><ele>0.0</ele><time>2026-04-30T09:12:28.127Z</time></trkpt><trkpt lat="41.3609739" lon="2.1844779"><ele>0.0</ele><time>2026-04-30T09:12:31.143Z</time></trkpt><trkpt lat="41.3608999" lon="2.1844477"><ele>0.0</ele><time>2026-04-30T09:12:34.16Z</time></trkpt><trkpt lat="41.3607226" lon="2.1843838"><ele>0.0</ele><time>2026-04-30T09:12:38.083Z</time></trkpt><trkpt lat="41.3605672" lon="2.1843279"><ele>0.0</ele><time>2026-04-30T09:12:44.116Z</time></trkpt><trkpt lat="41.3603039" lon="2.184222"><ele>0.0</ele><time>2026-04-30T09:12:53.165Z</time></trkpt><trkpt lat="41.3602065" lon="2.1841843"><ele>0.0</ele><time>2026-04-30T09:12:55.084Z</time></trkpt><trkpt lat="41.360073" lon="2.184131"><ele>0.0</ele><time>2026-04-30T09:12:59.099Z</time></trkpt><trkpt lat="41.3599979" lon="2.1841064"><ele>0.0</ele><time>2026-04-30T09:13:01.111Z</time></trkpt><trkpt lat="41.3599342" lon="2.1840744"><ele>0.0</ele><time>2026-04-30T09:13:03.121Z</time></trkpt><trkpt lat="41.3597955" lon="2.1840292"><ele>0.0</ele><time>2026-04-30T09:13:07.144Z</time></trkpt><trkpt lat="41.359537" lon="2.1839839"><ele>0.0</ele><time>2026-04-30T09:13:12.171Z</time></trkpt><trkpt lat="41.3594569" lon="2.1839647"><ele>0.0</ele><time>2026-04-30T09:13:14.083Z</time></trkpt><trkpt lat="41.3593762" lon="2.1839579"><ele>0.0</ele><time>2026-04-30T09:13:16.094Z</time></trkpt><trkpt lat="41.3592963" lon="2.1839295"><ele>0.0</ele><time>2026-04-30T09:13:18.105Z</time></trkpt><trkpt lat="41.3592192" lon="2.1838961"><ele>0.0</ele><time>2026-04-30T09:13:20.117Z</time></trkpt><trkpt lat="41.359143" lon="2.1838538"><ele>0.0</ele><time>2026-04-30T09:13:22.127Z</time></trkpt><trkpt lat="41.359059" lon="2.1838436"><ele>0.0</ele><time>2026-04-30T09:13:24.139Z</time></trkpt><trkpt lat="41.3589808" lon="2.1838088"><ele>0.0</ele><time>2026-04-30T09:13:26.151Z</time></trkpt><trkpt lat="41.3589013" lon="2.1838028"><ele>0.0</ele><time>2026-04-30T09:13:28.161Z</time></trkpt><trkpt lat="41.3587701" lon="2.1837065"><ele>0.0</ele><time>2026-04-30T09:13:32.084Z</time></trkpt><trkpt lat="41.3586876" lon="2.183684"><ele>0.0</ele><time>2026-04-30T09:13:34.094Z</time></trkpt><trkpt lat="41.3586089" lon="2.1836587"><ele>0.0</ele><time>2026-04-30T09:13:36.106Z</time></trkpt><trkpt lat="41.358535" lon="2.1836218"><ele>0.0</ele><time>2026-04-30T09:13:38.117Z</time></trkpt><trkpt lat="41.3584675" lon="2.1835635"><ele>0.0</ele><time>2026-04-30T09:13:40.128Z</time></trkpt><trkpt lat="41.3583967" lon="2.1835106"><ele>0.0</ele><time>2026-04-30T09:13:42.14Z</time></trkpt><trkpt lat="41.358314" lon="2.1835074"><ele>0.0</ele><time>2026-04-30T09:13:44.15Z</time></trkpt><trkpt lat="41.3582395" lon="2.183482"><ele>0.0</ele><time>2026-04-30T09:13:46.163Z</time></trkpt><trkpt lat="41.3581665" lon="2.1834402"><ele>0.0</ele><time>2026-04-30T09:13:48.084Z</time></trkpt><trkpt lat="41.3580843" lon="2.1834187"><ele>0.0</ele><time>2026-04-30T09:13:50.085Z</time></trkpt><trkpt lat="41.3579303" lon="2.1833842"><ele>0.0</ele><time>2026-04-30T09:13:54.107Z</time></trkpt><trkpt lat="41.3578522" lon="2.1833543"><ele>0.0</ele><time>2026-04-30T09:13:56.118Z</time></trkpt><trkpt lat="41.3577758" lon="2.1833198"><ele>0.0</ele><time>2026-04-30T09:13:58.129Z</time></trkpt><trkpt lat="41.3576982" lon="2.1833271"><ele>0.0</ele><time>2026-04-30T09:14:00.14Z</time></trkpt><trkpt lat="41.3576192" lon="2.1833206"><ele>0.0</ele><time>2026-04-30T09:14:02.151Z</time></trkpt><trkpt lat="41.3575503" lon="2.1833275"><ele>0.0</ele><time>2026-04-30T09:14:04.162Z</time></trkpt><trkpt lat="41.3574897" lon="2.1832849"><ele>0.0</ele><time>2026-04-30T09:14:06.083Z</time></trkpt><trkpt lat="41.3574114" lon="2.1833035"><ele>0.0</ele><time>2026-04-30T09:14:08.085Z</time></trkpt><trkpt lat="41.3573308" lon="2.1833175"><ele>0.0</ele><time>2026-04-30T09:14:10.096Z</time></trkpt><trkpt lat="41.3572519" lon="2.1832396"><ele>0.0</ele><time>2026-04-30T09:14:12.107Z</time></trkpt><trkpt lat="41.3571192" lon="2.1831435"><ele>0.0</ele><time>2026-04-30T09:14:16.129Z</time></trkpt><trkpt lat="41.3570267" lon="2.1831658"><ele>0.0</ele><time>2026-04-30T09:14:18.141Z</time></trkpt><trkpt lat="41.3569595" lon="2.1831023"><ele>0.0</ele><time>2026-04-30T09:14:20.153Z</time></trkpt><trkpt lat="41.3569024" lon="2.1829855"><ele>0.0</ele><time>2026-04-30T09:14:22.164Z</time></trkpt><trkpt lat="41.3568335" lon="2.1829006"><ele>0.0</ele><time>2026-04-30T09:14:24.083Z</time></trkpt><trkpt lat="41.3567426" lon="2.1828689"><ele>0.0</ele><time>2026-04-30T09:14:26.085Z</time></trkpt><trkpt lat="41.3566426" lon="2.1829008"><ele>0.0</ele><time>2026-04-30T09:14:28.097Z</time></trkpt><trkpt lat="41.3565496" lon="2.1828975"><ele>0.0</ele><time>2026-04-30T09:14:30.108Z</time></trkpt><trkpt lat="41.356465" lon="2.1828541"><ele>0.0</ele><time>2026-04-30T09:14:32.119Z</time></trkpt><trkpt lat="41.3563769" lon="2.1828591"><ele>0.0</ele><time>2026-04-30T09:14:34.13Z</time></trkpt><trkpt lat="41.3562103" lon="2.1829011"><ele>0.0</ele><time>2026-04-30T09:14:38.153Z</time></trkpt><trkpt lat="41.3561241" lon="2.1828584"><ele>0.0</ele><time>2026-04-30T09:14:40.165Z</time></trkpt><trkpt lat="41.3560383" lon="2.1828491"><ele>0.0</ele><time>2026-04-30T09:14:42.175Z</time></trkpt><trkpt lat="41.3559522" lon="2.1828911"><ele>0.0</ele><time>2026-04-30T09:14:44.087Z</time></trkpt><trkpt lat="41.355863" lon="2.1829075"><ele>0.0</ele><time>2026-04-30T09:14:46.098Z</time></trkpt><trkpt lat="41.3557731" lon="2.1829022"><ele>0.0</ele><time>2026-04-30T09:14:48.11Z</time></trkpt><trkpt lat="41.355684" lon="2.1828517"><ele>0.0</ele><time>2026-04-30T09:14:50.12Z</time></trkpt><trkpt lat="41.3555949" lon="2.1828097"><ele>0.0</ele><time>2026-04-30T09:14:52.131Z</time></trkpt><trkpt lat="41.3555232" lon="2.1828411"><ele>0.0</ele><time>2026-04-30T09:14:54.084Z</time></trkpt><trkpt lat="41.3554363" lon="2.1828568"><ele>0.0</ele><time>2026-04-30T09:14:56.083Z</time></trkpt><trkpt lat="41.3552579" lon="2.182891"><ele>0.0</ele><time>2026-04-30T09:15:00.083Z</time></trkpt><trkpt lat="41.3551664" lon="2.1829128"><ele>0.0</ele><time>2026-04-30T09:15:02.083Z</time></trkpt><trkpt lat="41.3550719" lon="2.1829328"><ele>0.0</ele><time>2026-04-30T09:15:04.083Z</time></trkpt><trkpt lat="41.3549737" lon="2.1829606"><ele>0.0</ele><time>2026-04-30T09:15:06.083Z</time></trkpt><trkpt lat="41.3548725" lon="2.182993"><ele>0.0</ele><time>2026-04-30T09:15:08.084Z</time></trkpt><trkpt lat="41.3547701" lon="2.18301"><ele>0.0</ele><time>2026-04-30T09:15:10.084Z</time></trkpt><trkpt lat="41.3546669" lon="2.1830303"><ele>0.0</ele><time>2026-04-30T09:15:12.083Z</time></trkpt><trkpt lat="41.3545618" lon="2.1830533"><ele>0.0</ele><time>2026-04-30T09:15:14.084Z</time></trkpt><trkpt lat="41.3544569" lon="2.1830734"><ele>0.0</ele><time>2026-04-30T09:15:16.083Z</time></trkpt><trkpt lat="41.3543489" lon="2.1831231"><ele>0.0</ele><time>2026-04-30T09:15:18.084Z</time></trkpt><trkpt lat="41.3541421" lon="2.1831882"><ele>0.0</ele><time>2026-04-30T09:15:22.083Z</time></trkpt><trkpt lat="41.3540427" lon="2.1832062"><ele>0.0</ele><time>2026-04-30T09:15:24.083Z</time></trkpt><trkpt lat="41.3539475" lon="2.1832381"><ele>0.0</ele><time>2026-04-30T09:15:26.084Z</time></trkpt><trkpt lat="41.3538519" lon="2.1832671"><ele>0.0</ele><time>2026-04-30T09:15:28.083Z</time></trkpt><trkpt lat="41.3537499" lon="2.1833033"><ele>0.0</ele><time>2026-04-30T09:15:30.083Z</time></trkpt><trkpt lat="41.3536551" lon="2.183308"><ele>0.0</ele><time>2026-04-30T09:15:32.084Z</time></trkpt><trkpt lat="41.353547" lon="2.1833552"><ele>0.0</ele><time>2026-04-30T09:15:34.083Z</time></trkpt><trkpt lat="41.3534425" lon="2.1833785"><ele>0.0</ele><time>2026-04-30T09:15:36.083Z</time></trkpt><trkpt lat="41.3533336" lon="2.1834029"><ele>0.0</ele><time>2026-04-30T09:15:38.083Z</time></trkpt><trkpt lat="41.3532269" lon="2.1834305"><ele>0.0</ele><time>2026-04-30T09:15:40.084Z</time></trkpt><trkpt lat="41.3530105" lon="2.1834994"><ele>0.0</ele><time>2026-04-30T09:15:44.083Z</time></trkpt><trkpt lat="41.3529005" lon="2.1835466"><ele>0.0</ele><time>2026-04-30T09:15:46.083Z</time></trkpt><trkpt lat="41.3527312" lon="2.1836096"><ele>0.0</ele><time>2026-04-30T09:15:49.084Z</time></trkpt><trkpt lat="41.3526187" lon="2.1836503"><ele>0.0</ele><time>2026-04-30T09:15:51.084Z</time></trkpt><trkpt lat="41.3525565" lon="2.1836685"><ele>0.0</ele><time>2026-04-30T09:15:52.083Z</time></trkpt><trkpt lat="41.3524905" lon="2.1837011"><ele>0.0</ele><time>2026-04-30T09:15:53.084Z</time></trkpt><trkpt lat="41.3523797" lon="2.183743"><ele>0.0</ele><time>2026-04-30T09:15:55.084Z</time></trkpt><trkpt lat="41.3522698" lon="2.1837814"><ele>0.0</ele><time>2026-04-30T09:15:57.083Z</time></trkpt><trkpt lat="41.3521631" lon="2.1838222"><ele>0.0</ele><time>2026-04-30T09:15:59.083Z</time></trkpt><trkpt lat="41.3520707" lon="2.1838575"><ele>0.0</ele><time>2026-04-30T09:16:01.083Z</time></trkpt><trkpt lat="41.3518848" lon="2.1839664"><ele>0.0</ele><time>2026-04-30T09:16:05.083Z</time></trkpt><trkpt lat="41.3517801" lon="2.1840188"><ele>0.0</ele><time>2026-04-30T09:16:07.083Z</time></trkpt><trkpt lat="41.3516749" lon="2.1840751"><ele>0.0</ele><time>2026-04-30T09:16:09.083Z</time></trkpt><trkpt lat="41.3515731" lon="2.1841331"><ele>0.0</ele><time>2026-04-30T09:16:11.083Z</time></trkpt><trkpt lat="41.3514685" lon="2.1841934"><ele>0.0</ele><time>2026-04-30T09:16:13.083Z</time></trkpt><trkpt lat="41.3513602" lon="2.1842566"><ele>0.0</ele><time>2026-04-30T09:16:15.083Z</time></trkpt><trkpt lat="41.3512508" lon="2.1843234"><ele>0.0</ele><time>2026-04-30T09:16:17.083Z</time></trkpt><trkpt lat="41.3511391" lon="2.1843807"><ele>0.0</ele><time>2026-04-30T09:16:19.084Z</time></trkpt><trkpt lat="41.351035" lon="2.1844545"><ele>0.0</ele><time>2026-04-30T09:16:21.083Z</time></trkpt><trkpt lat="41.3508296" lon="2.1846175"><ele>0.0</ele><time>2026-04-30T09:16:25.083Z</time></trkpt><trkpt lat="41.3507251" lon="2.184699"><ele>0.0</ele><time>2026-04-30T09:16:27.083Z</time></trkpt><trkpt lat="41.3506185" lon="2.1847765"><ele>0.0</ele><time>2026-04-30T09:16:29.084Z</time></trkpt><trkpt lat="41.3505185" lon="2.1848629"><ele>0.0</ele><time>2026-04-30T09:16:31.083Z</time></trkpt><trkpt lat="41.3504613" lon="2.184908"><ele>0.0</ele><time>2026-04-30T09:16:32.084Z</time></trkpt><trkpt lat="41.3503524" lon="2.1849931"><ele>0.0</ele><time>2026-04-30T09:16:34.083Z</time></trkpt><trkpt lat="41.3502988" lon="2.1850379"><ele>0.0</ele><time>2026-04-30T09:16:35.083Z</time></trkpt><trkpt lat="41.3501907" lon="2.1851249"><ele>0.0</ele><time>2026-04-30T09:16:37.083Z</time></trkpt><trkpt lat="41.3500883" lon="2.1852105"><ele>0.0</ele><time>2026-04-30T09:16:39.083Z</time></trkpt><trkpt lat="41.349985" lon="2.1853028"><ele>0.0</ele><time>2026-04-30T09:16:41.084Z</time></trkpt><trkpt lat="41.3499238" lon="2.18534"><ele>0.0</ele><time>2026-04-30T09:16:42.083Z</time></trkpt><trkpt lat="41.3497358" lon="2.1855315"><ele>0.0</ele><time>2026-04-30T09:16:46.083Z</time></trkpt><trkpt lat="41.3496403" lon="2.1856285"><ele>0.0</ele><time>2026-04-30T09:16:48.083Z</time></trkpt><trkpt lat="41.3495451" lon="2.1857295"><ele>0.0</ele><time>2026-04-30T09:16:50.083Z</time></trkpt><trkpt lat="41.349449" lon="2.185842"><ele>0.0</ele><time>2026-04-30T09:16:52.083Z</time></trkpt><trkpt lat="41.3493536" lon="2.1859448"><ele>0.0</ele><time>2026-04-30T09:16:54.083Z</time></trkpt><trkpt lat="41.3492573" lon="2.1860512"><ele>0.0</ele><time>2026-04-30T09:16:56.084Z</time></trkpt><trkpt lat="41.3491652" lon="2.1861628"><ele>0.0</ele><time>2026-04-30T09:16:58.084Z</time></trkpt><trkpt lat="41.3491212" lon="2.1862319"><ele>0.0</ele><time>2026-04-30T09:16:59.083Z</time></trkpt><trkpt lat="41.3490718" lon="2.186287"><ele>0.0</ele><time>2026-04-30T09:17:00.083Z</time></trkpt><trkpt lat="41.3489846" lon="2.1863907"><ele>0.0</ele><time>2026-04-30T09:17:02.083Z</time></trkpt><trkpt lat="41.3488986" lon="2.1864968"><ele>0.0</ele><time>2026-04-30T09:17:04.083Z</time></trkpt><trkpt lat="41.3487237" lon="2.1867276"><ele>0.0</ele><time>2026-04-30T09:17:08.083Z</time></trkpt><trkpt lat="41.34864" lon="2.1868388"><ele>0.0</ele><time>2026-04-30T09:17:10.082Z</time></trkpt><trkpt lat="41.3485564" lon="2.1869492"><ele>0.0</ele><time>2026-04-30T09:17:12.082Z</time></trkpt><trkpt lat="41.3484708" lon="2.1870648"><ele>0.0</ele><time>2026-04-30T09:17:14.082Z</time></trkpt><trkpt lat="41.3484255" lon="2.1871237"><ele>0.0</ele><time>2026-04-30T09:17:15.083Z</time></trkpt><trkpt lat="41.3483377" lon="2.187233"><ele>0.0</ele><time>2026-04-30T09:17:17.083Z</time></trkpt><trkpt lat="41.3482576" lon="2.187349"><ele>0.0</ele><time>2026-04-30T09:17:19.083Z</time></trkpt><trkpt lat="41.3482119" lon="2.1874087"><ele>0.0</ele><time>2026-04-30T09:17:20.083Z</time></trkpt><trkpt lat="41.348125" lon="2.1875285"><ele>0.0</ele><time>2026-04-30T09:17:22.083Z</time></trkpt><trkpt lat="41.3480402" lon="2.1876481"><ele>0.0</ele><time>2026-04-30T09:17:24.082Z</time></trkpt><trkpt lat="41.347955" lon="2.1877681"><ele>0.0</ele><time>2026-04-30T09:17:26.083Z</time></trkpt><trkpt lat="41.3478216" lon="2.1879515"><ele>0.0</ele><time>2026-04-30T09:17:29.082Z</time></trkpt><trkpt lat="41.3477724" lon="2.1880173"><ele>0.0</ele><time>2026-04-30T09:17:30.082Z</time></trkpt><trkpt lat="41.3477237" lon="2.1880852"><ele>0.0</ele><time>2026-04-30T09:17:31.083Z</time></trkpt><trkpt lat="41.347678" lon="2.1881437"><ele>0.0</ele><time>2026-04-30T09:17:32.083Z</time></trkpt><trkpt lat="41.3476293" lon="2.1882093"><ele>0.0</ele><time>2026-04-30T09:17:33.083Z</time></trkpt><trkpt lat="41.3475834" lon="2.1882688"><ele>0.0</ele><time>2026-04-30T09:17:34.083Z</time></trkpt><trkpt lat="41.3475368" lon="2.1883272"><ele>0.0</ele><time>2026-04-30T09:17:35.082Z</time></trkpt><trkpt lat="41.3474917" lon="2.1883899"><ele>0.0</ele><time>2026-04-30T09:17:36.083Z</time></trkpt><trkpt lat="41.3474031" lon="2.1885027"><ele>0.0</ele><time>2026-04-30T09:17:38.083Z</time></trkpt><trkpt lat="41.3473121" lon="2.1886202"><ele>0.0</ele><time>2026-04-30T09:17:40.082Z</time></trkpt><trkpt lat="41.3472682" lon="2.1886806"><ele>0.0</ele><time>2026-04-30T09:17:41.083Z</time></trkpt><trkpt lat="41.3471815" lon="2.1888005"><ele>0.0</ele><time>2026-04-30T09:17:43.082Z</time></trkpt><trkpt lat="41.3471307" lon="2.1888665"><ele>0.0</ele><time>2026-04-30T09:17:44.083Z</time></trkpt><trkpt lat="41.3470862" lon="2.1889302"><ele>0.0</ele><time>2026-04-30T09:17:45.082Z</time></trkpt><trkpt lat="41.346996" lon="2.1890552"><ele>0.0</ele><time>2026-04-30T09:17:47.082Z</time></trkpt><trkpt lat="41.3469044" lon="2.1891847"><ele>0.0</ele><time>2026-04-30T09:17:49.082Z</time></trkpt><trkpt lat="41.3468669" lon="2.1892529"><ele>0.0</ele><time>2026-04-30T09:17:50.082Z</time></trkpt><trkpt lat="41.3468263" lon="2.1893182"><ele>0.0</ele><time>2026-04-30T09:17:51.082Z</time></trkpt><trkpt lat="41.346782" lon="2.1893831"><ele>0.0</ele><time>2026-04-30T09:17:52.082Z</time></trkpt><trkpt lat="41.3467415" lon="2.1894526"><ele>0.0</ele><time>2026-04-30T09:17:53.082Z</time></trkpt><trkpt lat="41.3466931" lon="2.1895168"><ele>0.0</ele><time>2026-04-30T09:17:54.082Z</time></trkpt><trkpt lat="41.3466524" lon="2.189587"><ele>0.0</ele><time>2026-04-30T09:17:55.083Z</time></trkpt><trkpt lat="41.3465582" lon="2.1897134"><ele>0.0</ele><time>2026-04-30T09:17:57.083Z</time></trkpt><trkpt lat="41.346511" lon="2.1897743"><ele>0.0</ele><time>2026-04-30T09:17:58.083Z</time></trkpt><trkpt lat="41.3464654" lon="2.1898325"><ele>0.0</ele><time>2026-04-30T09:17:59.083Z</time></trkpt><trkpt lat="41.3463819" lon="2.1899559"><ele>0.0</ele><time>2026-04-30T09:18:01.083Z</time></trkpt><trkpt lat="41.346338" lon="2.1900202"><ele>0.0</ele><time>2026-04-30T09:18:02.083Z</time></trkpt><trkpt lat="41.3462933" lon="2.1900886"><ele>0.0</ele><time>2026-04-30T09:18:03.083Z</time></trkpt><trkpt lat="41.3462456" lon="2.1901595"><ele>0.0</ele><time>2026-04-30T09:18:04.082Z</time></trkpt><trkpt lat="41.3462" lon="2.1902281"><ele>0.0</ele><time>2026-04-30T09:18:05.082Z</time></trkpt><trkpt lat="41.3461594" lon="2.190301"><ele>0.0</ele><time>2026-04-30T09:18:06.083Z</time></trkpt><trkpt lat="41.3461143" lon="2.1903767"><ele>0.0</ele><time>2026-04-30T09:18:07.083Z</time></trkpt><trkpt lat="41.3460704" lon="2.1904508"><ele>0.0</ele><time>2026-04-30T09:18:08.082Z</time></trkpt><trkpt lat="41.3459698" lon="2.1905775"><ele>0.0</ele><time>2026-04-30T09:18:10.082Z</time></trkpt><trkpt lat="41.3459204" lon="2.1906394"><ele>0.0</ele><time>2026-04-30T09:18:11.082Z</time></trkpt><trkpt lat="41.345875" lon="2.190701"><ele>0.0</ele><time>2026-04-30T09:18:12.083Z</time></trkpt><trkpt lat="41.34583" lon="2.1907696"><ele>0.0</ele><time>2026-04-30T09:18:13.083Z</time></trkpt><trkpt lat="41.3457776" lon="2.1908353"><ele>0.0</ele><time>2026-04-30T09:18:14.082Z</time></trkpt><trkpt lat="41.3457328" lon="2.1908988"><ele>0.0</ele><time>2026-04-30T09:18:15.083Z</time></trkpt><trkpt lat="41.3456433" lon="2.1910254"><ele>0.0</ele><time>2026-04-30T09:18:17.083Z</time></trkpt><trkpt lat="41.3455952" lon="2.191089"><ele>0.0</ele><time>2026-04-30T09:18:18.082Z</time></trkpt><trkpt lat="41.3455473" lon="2.1911504"><ele>0.0</ele><time>2026-04-30T09:18:19.082Z</time></trkpt><trkpt lat="41.3455061" lon="2.1912176"><ele>0.0</ele><time>2026-04-30T09:18:20.082Z</time></trkpt><trkpt lat="41.3454618" lon="2.1912894"><ele>0.0</ele><time>2026-04-30T09:18:21.083Z</time></trkpt><trkpt lat="41.3454219" lon="2.1913582"><ele>0.0</ele><time>2026-04-30T09:18:22.082Z</time></trkpt><trkpt lat="41.3453808" lon="2.1914252"><ele>0.0</ele><time>2026-04-30T09:18:23.082Z</time></trkpt><trkpt lat="41.345342" lon="2.1914989"><ele>0.0</ele><time>2026-04-30T09:18:24.082Z</time></trkpt><trkpt lat="41.3452969" lon="2.1915695"><ele>0.0</ele><time>2026-04-30T09:18:25.083Z</time></trkpt><trkpt lat="41.3452542" lon="2.1916357"><ele>0.0</ele><time>2026-04-30T09:18:26.082Z</time></trkpt><trkpt lat="41.3452081" lon="2.191699"><ele>0.0</ele><time>2026-04-30T09:18:27.082Z</time></trkpt><trkpt lat="41.3451603" lon="2.1917711"><ele>0.0</ele><time>2026-04-30T09:18:28.083Z</time></trkpt><trkpt lat="41.3451134" lon="2.1918389"><ele>0.0</ele><time>2026-04-30T09:18:29.083Z</time></trkpt><trkpt lat="41.3450221" lon="2.1919775"><ele>0.0</ele><time>2026-04-30T09:18:31.083Z</time></trkpt><trkpt lat="41.3449736" lon="2.1920481"><ele>0.0</ele><time>2026-04-30T09:18:32.083Z</time></trkpt><trkpt lat="41.3449282" lon="2.1921152"><ele>0.0</ele><time>2026-04-30T09:18:33.082Z</time></trkpt><trkpt lat="41.3448835" lon="2.1921894"><ele>0.0</ele><time>2026-04-30T09:18:34.082Z</time></trkpt><trkpt lat="41.3448401" lon="2.1922622"><ele>0.0</ele><time>2026-04-30T09:18:35.083Z</time></trkpt><trkpt lat="41.3447934" lon="2.1923351"><ele>0.0</ele><time>2026-04-30T09:18:36.083Z</time></trkpt><trkpt lat="41.3447438" lon="2.1924081"><ele>0.0</ele><time>2026-04-30T09:18:37.082Z</time></trkpt><trkpt lat="41.3446938" lon="2.1924828"><ele>0.0</ele><time>2026-04-30T09:18:38.083Z</time></trkpt><trkpt lat="41.3446425" lon="2.192556"><ele>0.0</ele><time>2026-04-30T09:18:39.083Z</time></trkpt><trkpt lat="41.3445954" lon="2.1926282"><ele>0.0</ele><time>2026-04-30T09:18:40.083Z</time></trkpt><trkpt lat="41.3445516" lon="2.1926987"><ele>0.0</ele><time>2026-04-30T09:18:41.082Z</time></trkpt><trkpt lat="41.3445123" lon="2.1927643"><ele>0.0</ele><time>2026-04-30T09:18:42.082Z</time></trkpt><trkpt lat="41.3444669" lon="2.1928378"><ele>0.0</ele><time>2026-04-30T09:18:43.083Z</time></trkpt><trkpt lat="41.3444189" lon="2.1929144"><ele>0.0</ele><time>2026-04-30T09:18:44.083Z</time></trkpt><trkpt lat="41.3443688" lon="2.1929914"><ele>0.0</ele><time>2026-04-30T09:18:45.082Z</time></trkpt><trkpt lat="41.3443269" lon="2.1930583"><ele>0.0</ele><time>2026-04-30T09:18:46.083Z</time></trkpt><trkpt lat="41.3442858" lon="2.1931246"><ele>0.0</ele><time>2026-04-30T09:18:47.083Z</time></trkpt><trkpt lat="41.3442461" lon="2.1931939"><ele>0.0</ele><time>2026-04-30T09:18:48.082Z</time></trkpt><trkpt lat="41.3441998" lon="2.1932638"><ele>0.0</ele><time>2026-04-30T09:18:49.083Z</time></trkpt><trkpt lat="41.3441581" lon="2.1933399"><ele>0.0</ele><time>2026-04-30T09:18:50.083Z</time></trkpt><trkpt lat="41.3440685" lon="2.1934887"><ele>0.0</ele><time>2026-04-30T09:18:52.083Z</time></trkpt><trkpt lat="41.3440218" lon="2.1935645"><ele>0.0</ele><time>2026-04-30T09:18:53.082Z</time></trkpt><trkpt lat="41.3439779" lon="2.1936383"><ele>0.0</ele><time>2026-04-30T09:18:54.082Z</time></trkpt><trkpt lat="41.3439331" lon="2.1937101"><ele>0.0</ele><time>2026-04-30T09:18:55.082Z</time></trkpt><trkpt lat="41.3438899" lon="2.193786"><ele>0.0</ele><time>2026-04-30T09:18:56.082Z</time></trkpt><trkpt lat="41.3438496" lon="2.193857"><ele>0.0</ele><time>2026-04-30T09:18:57.083Z</time></trkpt><trkpt lat="41.3438012" lon="2.1939244"><ele>0.0</ele><time>2026-04-30T09:18:58.083Z</time></trkpt><trkpt lat="41.3437471" lon="2.1939953"><ele>0.0</ele><time>2026-04-30T09:18:59.082Z</time></trkpt><trkpt lat="41.3436984" lon="2.1940656"><ele>0.0</ele><time>2026-04-30T09:19:00.083Z</time></trkpt><trkpt lat="41.343649" lon="2.1941358"><ele>0.0</ele><time>2026-04-30T09:19:01.083Z</time></trkpt><trkpt lat="41.3436053" lon="2.1942089"><ele>0.0</ele><time>2026-04-30T09:19:02.082Z</time></trkpt><trkpt lat="41.3435572" lon="2.1942816"><ele>0.0</ele><time>2026-04-30T09:19:03.082Z</time></trkpt><trkpt lat="41.3435102" lon="2.1943549"><ele>0.0</ele><time>2026-04-30T09:19:04.082Z</time></trkpt><trkpt lat="41.3434606" lon="2.1944299"><ele>0.0</ele><time>2026-04-30T09:19:05.083Z</time></trkpt><trkpt lat="41.3433968" lon="2.1945024"><ele>0.0</ele><time>2026-04-30T09:19:06.083Z</time></trkpt><trkpt lat="41.3433469" lon="2.1945769"><ele>0.0</ele><time>2026-04-30T09:19:07.082Z</time></trkpt><trkpt lat="41.3432843" lon="2.1946517"><ele>0.0</ele><time>2026-04-30T09:19:08.082Z</time></trkpt><trkpt lat="41.3432268" lon="2.1947239"><ele>0.0</ele><time>2026-04-30T09:19:09.082Z</time></trkpt><trkpt lat="41.3431809" lon="2.194804"><ele>0.0</ele><time>2026-04-30T09:19:10.082Z</time></trkpt><trkpt lat="41.3431322" lon="2.1948828"><ele>0.0</ele><time>2026-04-30T09:19:11.082Z</time></trkpt><trkpt lat="41.3430463" lon="2.1950407"><ele>0.0</ele><time>2026-04-30T09:19:13.082Z</time></trkpt><trkpt lat="41.3430005" lon="2.195112"><ele>0.0</ele><time>2026-04-30T09:19:14.082Z</time></trkpt><trkpt lat="41.342933" lon="2.1952621"><ele>0.0</ele><time>2026-04-30T09:19:16.082Z</time></trkpt><trkpt lat="41.3428857" lon="2.1953341"><ele>0.0</ele><time>2026-04-30T09:19:17.083Z</time></trkpt><trkpt lat="41.3428374" lon="2.1954114"><ele>0.0</ele><time>2026-04-30T09:19:18.083Z</time></trkpt><trkpt lat="41.3427904" lon="2.1954869"><ele>0.0</ele><time>2026-04-30T09:19:19.083Z</time></trkpt><trkpt lat="41.3427408" lon="2.1955647"><ele>0.0</ele><time>2026-04-30T09:19:20.082Z</time></trkpt><trkpt lat="41.3426935" lon="2.1956415"><ele>0.0</ele><time>2026-04-30T09:19:21.083Z</time></trkpt><trkpt lat="41.3426453" lon="2.1957197"><ele>0.0</ele><time>2026-04-30T09:19:22.083Z</time></trkpt><trkpt lat="41.3426014" lon="2.1957973"><ele>0.0</ele><time>2026-04-30T09:19:23.083Z</time></trkpt><trkpt lat="41.3425534" lon="2.195875"><ele>0.0</ele><time>2026-04-30T09:19:24.082Z</time></trkpt><trkpt lat="41.3425084" lon="2.1959501"><ele>0.0</ele><time>2026-04-30T09:19:25.082Z</time></trkpt><trkpt lat="41.3424347" lon="2.1960924"><ele>0.0</ele><time>2026-04-30T09:19:27.083Z</time></trkpt><trkpt lat="41.3423849" lon="2.1961716"><ele>0.0</ele><time>2026-04-30T09:19:28.083Z</time></trkpt><trkpt lat="41.3423376" lon="2.1962526"><ele>0.0</ele><time>2026-04-30T09:19:29.082Z</time></trkpt><trkpt lat="41.342288" lon="2.1963285"><ele>0.0</ele><time>2026-04-30T09:19:30.083Z</time></trkpt><trkpt lat="41.3422385" lon="2.1964079"><ele>0.0</ele><time>2026-04-30T09:19:31.083Z</time></trkpt><trkpt lat="41.3421439" lon="2.1965662"><ele>0.0</ele><time>2026-04-30T09:19:33.082Z</time></trkpt><trkpt lat="41.3420956" lon="2.1966462"><ele>0.0</ele><time>2026-04-30T09:19:34.082Z</time></trkpt><trkpt lat="41.342047" lon="2.1967266"><ele>0.0</ele><time>2026-04-30T09:19:35.082Z</time></trkpt><trkpt lat="41.3419997" lon="2.1968049"><ele>0.0</ele><time>2026-04-30T09:19:36.083Z</time></trkpt><trkpt lat="41.3419499" lon="2.1968831"><ele>0.0</ele><time>2026-04-30T09:19:37.083Z</time></trkpt><trkpt lat="41.3418992" lon="2.1969556"><ele>0.0</ele><time>2026-04-30T09:19:38.083Z</time></trkpt><trkpt lat="41.3418509" lon="2.1970274"><ele>0.0</ele><time>2026-04-30T09:19:39.082Z</time></trkpt><trkpt lat="41.3417982" lon="2.1971019"><ele>0.0</ele><time>2026-04-30T09:19:40.082Z</time></trkpt><trkpt lat="41.3417466" lon="2.1971784"><ele>0.0</ele><time>2026-04-30T09:19:41.083Z</time></trkpt><trkpt lat="41.3416965" lon="2.1972553"><ele>0.0</ele><time>2026-04-30T09:19:42.083Z</time></trkpt><trkpt lat="41.3416464" lon="2.1973303"><ele>0.0</ele><time>2026-04-30T09:19:43.082Z</time></trkpt><trkpt lat="41.3415964" lon="2.1974039"><ele>0.0</ele><time>2026-04-30T09:19:44.083Z</time></trkpt><trkpt lat="41.3415506" lon="2.1974843"><ele>0.0</ele><time>2026-04-30T09:19:45.083Z</time></trkpt><trkpt lat="41.3415042" lon="2.1975603"><ele>0.0</ele><time>2026-04-30T09:19:46.083Z</time></trkpt><trkpt lat="41.3414566" lon="2.1976367"><ele>0.0</ele><time>2026-04-30T09:19:47.083Z</time></trkpt><trkpt lat="41.3414074" lon="2.1977149"><ele>0.0</ele><time>2026-04-30T09:19:48.082Z</time></trkpt><trkpt lat="41.3413541" lon="2.197796"><ele>0.0</ele><time>2026-04-30T09:19:49.082Z</time></trkpt><trkpt lat="41.341302" lon="2.197872"><ele>0.0</ele><time>2026-04-30T09:19:50.082Z</time></trkpt><trkpt lat="41.3412575" lon="2.1979443"><ele>0.0</ele><time>2026-04-30T09:19:51.083Z</time></trkpt><trkpt lat="41.3412131" lon="2.1980161"><ele>0.0</ele><time>2026-04-30T09:19:52.082Z</time></trkpt><trkpt lat="41.3411063" lon="2.1981795"><ele>0.0</ele><time>2026-04-30T09:19:54.083Z</time></trkpt><trkpt lat="41.341054" lon="2.1982584"><ele>0.0</ele><time>2026-04-30T09:19:55.082Z</time></trkpt><trkpt lat="41.3410023" lon="2.1983369"><ele>0.0</ele><time>2026-04-30T09:19:56.082Z</time></trkpt><trkpt lat="41.340949" lon="2.1984136"><ele>0.0</ele><time>2026-04-30T09:19:57.082Z</time></trkpt><trkpt lat="41.3408957" lon="2.1984931"><ele>0.0</ele><time>2026-04-30T09:19:58.083Z</time></trkpt><trkpt lat="41.3408455" lon="2.1985762"><ele>0.0</ele><time>2026-04-30T09:19:59.083Z</time></trkpt><trkpt lat="41.3407941" lon="2.198659"><ele>0.0</ele><time>2026-04-30T09:20:00.082Z</time></trkpt><trkpt lat="41.3407411" lon="2.1987395"><ele>0.0</ele><time>2026-04-30T09:20:01.083Z</time></trkpt><trkpt lat="41.3406906" lon="2.1988224"><ele>0.0</ele><time>2026-04-30T09:20:02.082Z</time></trkpt><trkpt lat="41.3406417" lon="2.1989046"><ele>0.0</ele><time>2026-04-30T09:20:03.083Z</time></trkpt><trkpt lat="41.3405953" lon="2.1989848"><ele>0.0</ele><time>2026-04-30T09:20:04.083Z</time></trkpt><trkpt lat="41.3405498" lon="2.1990649"><ele>0.0</ele><time>2026-04-30T09:20:05.083Z</time></trkpt><trkpt lat="41.340508" lon="2.1991407"><ele>0.0</ele><time>2026-04-30T09:20:06.083Z</time></trkpt><trkpt lat="41.3404649" lon="2.1992169"><ele>0.0</ele><time>2026-04-30T09:20:07.082Z</time></trkpt><trkpt lat="41.3404203" lon="2.1992951"><ele>0.0</ele><time>2026-04-30T09:20:08.083Z</time></trkpt><trkpt lat="41.3403727" lon="2.1993705"><ele>0.0</ele><time>2026-04-30T09:20:09.082Z</time></trkpt><trkpt lat="41.3403252" lon="2.19945"><ele>0.0</ele><time>2026-04-30T09:20:10.082Z</time></trkpt><trkpt lat="41.3402753" lon="2.1995345"><ele>0.0</ele><time>2026-04-30T09:20:11.082Z</time></trkpt><trkpt lat="41.3402236" lon="2.199615"><ele>0.0</ele><time>2026-04-30T09:20:12.083Z</time></trkpt><trkpt lat="41.3401765" lon="2.1996953"><ele>0.0</ele><time>2026-04-30T09:20:13.083Z</time></trkpt><trkpt lat="41.3400799" lon="2.1998488"><ele>0.0</ele><time>2026-04-30T09:20:15.082Z</time></trkpt><trkpt lat="41.3400335" lon="2.199928"><ele>0.0</ele><time>2026-04-30T09:20:16.082Z</time></trkpt><trkpt lat="41.3399853" lon="2.2000115"><ele>0.0</ele><time>2026-04-30T09:20:17.082Z</time></trkpt><trkpt lat="41.3399338" lon="2.2000963"><ele>0.0</ele><time>2026-04-30T09:20:18.083Z</time></trkpt><trkpt lat="41.3398861" lon="2.200174"><ele>0.0</ele><time>2026-04-30T09:20:19.082Z</time></trkpt><trkpt lat="41.3398381" lon="2.2002535"><ele>0.0</ele><time>2026-04-30T09:20:20.083Z</time></trkpt><trkpt lat="41.339787" lon="2.2003349"><ele>0.0</ele><time>2026-04-30T09:20:21.083Z</time></trkpt><trkpt lat="41.3397398" lon="2.2004135"><ele>0.0</ele><time>2026-04-30T09:20:22.083Z</time></trkpt><trkpt lat="41.3396901" lon="2.2004921"><ele>0.0</ele><time>2026-04-30T09:20:23.082Z</time></trkpt><trkpt lat="41.3396416" lon="2.2005719"><ele>0.0</ele><time>2026-04-30T09:20:24.083Z</time></trkpt><trkpt lat="41.3395951" lon="2.2006519"><ele>0.0</ele><time>2026-04-30T09:20:25.082Z</time></trkpt><trkpt lat="41.3395486" lon="2.2007376"><ele>0.0</ele><time>2026-04-30T09:20:26.083Z</time></trkpt><trkpt lat="41.3394989" lon="2.2008185"><ele>0.0</ele><time>2026-04-30T09:20:27.083Z</time></trkpt><trkpt lat="41.3394484" lon="2.2008986"><ele>0.0</ele><time>2026-04-30T09:20:28.082Z</time></trkpt><trkpt lat="41.3394012" lon="2.2009755"><ele>0.0</ele><time>2026-04-30T09:20:29.083Z</time></trkpt><trkpt lat="41.339352" lon="2.2010566"><ele>0.0</ele><time>2026-04-30T09:20:30.082Z</time></trkpt><trkpt lat="41.3393037" lon="2.2011396"><ele>0.0</ele><time>2026-04-30T09:20:31.083Z</time></trkpt><trkpt lat="41.3392565" lon="2.2012203"><ele>0.0</ele><time>2026-04-30T09:20:32.082Z</time></trkpt><trkpt lat="41.3392084" lon="2.2013002"><ele>0.0</ele><time>2026-04-30T09:20:33.083Z</time></trkpt><trkpt lat="41.3391614" lon="2.2013801"><ele>0.0</ele><time>2026-04-30T09:20:34.082Z</time></trkpt><trkpt lat="41.3391149" lon="2.2014632"><ele>0.0</ele><time>2026-04-30T09:20:35.083Z</time></trkpt><trkpt lat="41.3390151" lon="2.2016252"><ele>0.0</ele><time>2026-04-30T09:20:37.082Z</time></trkpt><trkpt lat="41.3389657" lon="2.2017097"><ele>0.0</ele><time>2026-04-30T09:20:38.082Z</time></trkpt><trkpt lat="41.3389109" lon="2.2017945"><ele>0.0</ele><time>2026-04-30T09:20:39.082Z</time></trkpt><trkpt lat="41.3388616" lon="2.2018725"><ele>0.0</ele><time>2026-04-30T09:20:40.082Z</time></trkpt><trkpt lat="41.3388117" lon="2.2019492"><ele>0.0</ele><time>2026-04-30T09:20:41.083Z</time></trkpt><trkpt lat="41.3387556" lon="2.2020272"><ele>0.0</ele><time>2026-04-30T09:20:42.082Z</time></trkpt><trkpt lat="41.3387017" lon="2.2021057"><ele>0.0</ele><time>2026-04-30T09:20:43.082Z</time></trkpt><trkpt lat="41.33865" lon="2.2021839"><ele>0.0</ele><time>2026-04-30T09:20:44.083Z</time></trkpt><trkpt lat="41.3386026" lon="2.2022651"><ele>0.0</ele><time>2026-04-30T09:20:45.082Z</time></trkpt><trkpt lat="41.338555" lon="2.2023424"><ele>0.0</ele><time>2026-04-30T09:20:46.083Z</time></trkpt><trkpt lat="41.338505" lon="2.2024222"><ele>0.0</ele><time>2026-04-30T09:20:47.082Z</time></trkpt><trkpt lat="41.3384566" lon="2.2024995"><ele>0.0</ele><time>2026-04-30T09:20:48.083Z</time></trkpt><trkpt lat="41.338404" lon="2.2025818"><ele>0.0</ele><time>2026-04-30T09:20:49.082Z</time></trkpt><trkpt lat="41.3383552" lon="2.2026636"><ele>0.0</ele><time>2026-04-30T09:20:50.082Z</time></trkpt><trkpt lat="41.3383037" lon="2.2027436"><ele>0.0</ele><time>2026-04-30T09:20:51.082Z</time></trkpt><trkpt lat="41.3382518" lon="2.202825"><ele>0.0</ele><time>2026-04-30T09:20:52.083Z</time></trkpt><trkpt lat="41.3381971" lon="2.2029051"><ele>0.0</ele><time>2026-04-30T09:20:53.082Z</time></trkpt><trkpt lat="41.3381471" lon="2.2029866"><ele>0.0</ele><time>2026-04-30T09:20:54.082Z</time></trkpt><trkpt lat="41.3380927" lon="2.2030657"><ele>0.0</ele><time>2026-04-30T09:20:55.082Z</time></trkpt><trkpt lat="41.3380406" lon="2.2031503"><ele>0.0</ele><time>2026-04-30T09:20:56.082Z</time></trkpt><trkpt lat="41.3379396" lon="2.2033016"><ele>0.0</ele><time>2026-04-30T09:20:58.082Z</time></trkpt><trkpt lat="41.3378902" lon="2.2033867"><ele>0.0</ele><time>2026-04-30T09:20:59.083Z</time></trkpt><trkpt lat="41.3378459" lon="2.2034784"><ele>0.0</ele><time>2026-04-30T09:21:00.082Z</time></trkpt><trkpt lat="41.3378011" lon="2.2035605"><ele>0.0</ele><time>2026-04-30T09:21:01.082Z</time></trkpt><trkpt lat="41.3377702" lon="2.2036534"><ele>0.0</ele><time>2026-04-30T09:21:02.082Z</time></trkpt><trkpt lat="41.3377235" lon="2.2037428"><ele>0.0</ele><time>2026-04-30T09:21:03.082Z</time></trkpt><trkpt lat="41.3376722" lon="2.2038312"><ele>0.0</ele><time>2026-04-30T09:21:04.082Z</time></trkpt><trkpt lat="41.3376219" lon="2.2039151"><ele>0.0</ele><time>2026-04-30T09:21:05.083Z</time></trkpt><trkpt lat="41.3375722" lon="2.204003"><ele>0.0</ele><time>2026-04-30T09:21:06.082Z</time></trkpt><trkpt lat="41.3375191" lon="2.2040926"><ele>0.0</ele><time>2026-04-30T09:21:07.082Z</time></trkpt><trkpt lat="41.3374688" lon="2.2041752"><ele>0.0</ele><time>2026-04-30T09:21:08.082Z</time></trkpt><trkpt lat="41.3374189" lon="2.2042555"><ele>0.0</ele><time>2026-04-30T09:21:09.083Z</time></trkpt><trkpt lat="41.3373691" lon="2.2043371"><ele>0.0</ele><time>2026-04-30T09:21:10.082Z</time></trkpt><trkpt lat="41.3373223" lon="2.2044177"><ele>0.0</ele><time>2026-04-30T09:21:11.082Z</time></trkpt><trkpt lat="41.3372724" lon="2.2045018"><ele>0.0</ele><time>2026-04-30T09:21:12.083Z</time></trkpt><trkpt lat="41.3372262" lon="2.2045865"><ele>0.0</ele><time>2026-04-30T09:21:13.083Z</time></trkpt><trkpt lat="41.3371781" lon="2.2046658"><ele>0.0</ele><time>2026-04-30T09:21:14.083Z</time></trkpt><trkpt lat="41.3371315" lon="2.2047472"><ele>0.0</ele><time>2026-04-30T09:21:15.082Z</time></trkpt><trkpt lat="41.3370822" lon="2.204836"><ele>0.0</ele><time>2026-04-30T09:21:16.082Z</time></trkpt><trkpt lat="41.3370304" lon="2.2049216"><ele>0.0</ele><time>2026-04-30T09:21:17.082Z</time></trkpt><trkpt lat="41.3369317" lon="2.2050934"><ele>0.0</ele><time>2026-04-30T09:21:19.082Z</time></trkpt><trkpt lat="41.3368803" lon="2.2051797"><ele>0.0</ele><time>2026-04-30T09:21:20.082Z</time></trkpt><trkpt lat="41.3368302" lon="2.2052667"><ele>0.0</ele><time>2026-04-30T09:21:21.082Z</time></trkpt><trkpt lat="41.3367788" lon="2.2053532"><ele>0.0</ele><time>2026-04-30T09:21:22.082Z</time></trkpt><trkpt lat="41.3367299" lon="2.2054415"><ele>0.0</ele><time>2026-04-30T09:21:23.082Z</time></trkpt><trkpt lat="41.3366815" lon="2.2055256"><ele>0.0</ele><time>2026-04-30T09:21:24.082Z</time></trkpt><trkpt lat="41.3366334" lon="2.2056104"><ele>0.0</ele><time>2026-04-30T09:21:25.082Z</time></trkpt><trkpt lat="41.3365835" lon="2.2056948"><ele>0.0</ele><time>2026-04-30T09:21:26.082Z</time></trkpt><trkpt lat="41.336538" lon="2.2057775"><ele>0.0</ele><time>2026-04-30T09:21:27.082Z</time></trkpt><trkpt lat="41.3364917" lon="2.2058608"><ele>0.0</ele><time>2026-04-30T09:21:28.082Z</time></trkpt><trkpt lat="41.3364463" lon="2.2059426"><ele>0.0</ele><time>2026-04-30T09:21:29.082Z</time></trkpt><trkpt lat="41.3364014" lon="2.2060254"><ele>0.0</ele><time>2026-04-30T09:21:30.083Z</time></trkpt><trkpt lat="41.3363461" lon="2.2061142"><ele>0.0</ele><time>2026-04-30T09:21:31.082Z</time></trkpt><trkpt lat="41.3362967" lon="2.2061984"><ele>0.0</ele><time>2026-04-30T09:21:32.083Z</time></trkpt><trkpt lat="41.3362514" lon="2.2062793"><ele>0.0</ele><time>2026-04-30T09:21:33.082Z</time></trkpt><trkpt lat="41.3362067" lon="2.2063668"><ele>0.0</ele><time>2026-04-30T09:21:34.083Z</time></trkpt><trkpt lat="41.3361618" lon="2.2064535"><ele>0.0</ele><time>2026-04-30T09:21:35.082Z</time></trkpt><trkpt lat="41.3361153" lon="2.2065418"><ele>0.0</ele><time>2026-04-30T09:21:36.082Z</time></trkpt><trkpt lat="41.3360673" lon="2.20663"><ele>0.0</ele><time>2026-04-30T09:21:37.082Z</time></trkpt><trkpt lat="41.3360175" lon="2.206718"><ele>0.0</ele><time>2026-04-30T09:21:38.082Z</time></trkpt><trkpt lat="41.3359686" lon="2.2068049"><ele>0.0</ele><time>2026-04-30T09:21:39.082Z</time></trkpt><trkpt lat="41.3358802" lon="2.2069784"><ele>0.0</ele><time>2026-04-30T09:21:41.082Z</time></trkpt><trkpt lat="41.3358336" lon="2.2070634"><ele>0.0</ele><time>2026-04-30T09:21:42.081Z</time></trkpt><trkpt lat="41.3357851" lon="2.207147"><ele>0.0</ele><time>2026-04-30T09:21:43.082Z</time></trkpt><trkpt lat="41.3357295" lon="2.2072375"><ele>0.0</ele><time>2026-04-30T09:21:44.082Z</time></trkpt><trkpt lat="41.3356767" lon="2.2073221"><ele>0.0</ele><time>2026-04-30T09:21:45.082Z</time></trkpt><trkpt lat="41.3356249" lon="2.2074051"><ele>0.0</ele><time>2026-04-30T09:21:46.081Z</time></trkpt><trkpt lat="41.3355762" lon="2.2074843"><ele>0.0</ele><time>2026-04-30T09:21:47.082Z</time></trkpt><trkpt lat="41.3355307" lon="2.2075631"><ele>0.0</ele><time>2026-04-30T09:21:48.081Z</time></trkpt><trkpt lat="41.3354874" lon="2.207644"><ele>0.0</ele><time>2026-04-30T09:21:49.082Z</time></trkpt><trkpt lat="41.3354428" lon="2.2077315"><ele>0.0</ele><time>2026-04-30T09:21:50.081Z</time></trkpt><trkpt lat="41.3354008" lon="2.2078182"><ele>0.0</ele><time>2026-04-30T09:21:51.081Z</time></trkpt><trkpt lat="41.335359" lon="2.2079093"><ele>0.0</ele><time>2026-04-30T09:21:52.082Z</time></trkpt><trkpt lat="41.3353131" lon="2.2079964"><ele>0.0</ele><time>2026-04-30T09:21:53.081Z</time></trkpt><trkpt lat="41.3352667" lon="2.2080864"><ele>0.0</ele><time>2026-04-30T09:21:54.081Z</time></trkpt><trkpt lat="41.3352204" lon="2.2081748"><ele>0.0</ele><time>2026-04-30T09:21:55.081Z</time></trkpt><trkpt lat="41.3351736" lon="2.208263"><ele>0.0</ele><time>2026-04-30T09:21:56.081Z</time></trkpt><trkpt lat="41.3351251" lon="2.2083487"><ele>0.0</ele><time>2026-04-30T09:21:57.082Z</time></trkpt><trkpt lat="41.3350742" lon="2.2084366"><ele>0.0</ele><time>2026-04-30T09:21:58.082Z</time></trkpt><trkpt lat="41.3350235" lon="2.2085235"><ele>0.0</ele><time>2026-04-30T09:21:59.082Z</time></trkpt><trkpt lat="41.3349735" lon="2.2086086"><ele>0.0</ele><time>2026-04-30T09:22:00.081Z</time></trkpt><trkpt lat="41.3348911" lon="2.208783"><ele>0.0</ele><time>2026-04-30T09:22:02.082Z</time></trkpt><trkpt lat="41.3348451" lon="2.2088698"><ele>0.0</ele><time>2026-04-30T09:22:03.082Z</time></trkpt><trkpt lat="41.3347959" lon="2.2089596"><ele>0.0</ele><time>2026-04-30T09:22:04.081Z</time></trkpt><trkpt lat="41.3347503" lon="2.2090494"><ele>0.0</ele><time>2026-04-30T09:22:05.081Z</time></trkpt><trkpt lat="41.3347021" lon="2.2091334"><ele>0.0</ele><time>2026-04-30T09:22:06.081Z</time></trkpt><trkpt lat="41.3346594" lon="2.2092127"><ele>0.0</ele><time>2026-04-30T09:22:07.082Z</time></trkpt><trkpt lat="41.3346047" lon="2.2092974"><ele>0.0</ele><time>2026-04-30T09:22:08.082Z</time></trkpt><trkpt lat="41.3345535" lon="2.2093805"><ele>0.0</ele><time>2026-04-30T09:22:09.081Z</time></trkpt><trkpt lat="41.3345007" lon="2.2094691"><ele>0.0</ele><time>2026-04-30T09:22:10.082Z</time></trkpt><trkpt lat="41.3344461" lon="2.2095625"><ele>0.0</ele><time>2026-04-30T09:22:11.082Z</time></trkpt><trkpt lat="41.3343922" lon="2.2096519"><ele>0.0</ele><time>2026-04-30T09:22:12.081Z</time></trkpt><trkpt lat="41.3343407" lon="2.2097385"><ele>0.0</ele><time>2026-04-30T09:22:13.081Z</time></trkpt><trkpt lat="41.3342977" lon="2.2098238"><ele>0.0</ele><time>2026-04-30T09:22:14.082Z</time></trkpt><trkpt lat="41.3342517" lon="2.2099144"><ele>0.0</ele><time>2026-04-30T09:22:15.081Z</time></trkpt><trkpt lat="41.3342032" lon="2.2100016"><ele>0.0</ele><time>2026-04-30T09:22:16.082Z</time></trkpt><trkpt lat="41.3341536" lon="2.2100913"><ele>0.0</ele><time>2026-04-30T09:22:17.081Z</time></trkpt><trkpt lat="41.3341035" lon="2.2101783"><ele>0.0</ele><time>2026-04-30T09:22:18.082Z</time></trkpt><trkpt lat="41.3340565" lon="2.2102695"><ele>0.0</ele><time>2026-04-30T09:22:19.082Z</time></trkpt><trkpt lat="41.3340115" lon="2.2103614"><ele>0.0</ele><time>2026-04-30T09:22:20.081Z</time></trkpt><trkpt lat="41.3339615" lon="2.2104502"><ele>0.0</ele><time>2026-04-30T09:22:21.081Z</time></trkpt><trkpt lat="41.3338812" lon="2.2106307"><ele>0.0</ele><time>2026-04-30T09:22:23.081Z</time></trkpt><trkpt lat="41.3338371" lon="2.21072"><ele>0.0</ele><time>2026-04-30T09:22:24.081Z</time></trkpt><trkpt lat="41.3337992" lon="2.2108197"><ele>0.0</ele><time>2026-04-30T09:22:25.081Z</time></trkpt><trkpt lat="41.3337537" lon="2.2109156"><ele>0.0</ele><time>2026-04-30T09:22:26.081Z</time></trkpt><trkpt lat="41.3337128" lon="2.2110103"><ele>0.0</ele><time>2026-04-30T09:22:27.082Z</time></trkpt><trkpt lat="41.3336661" lon="2.2111026"><ele>0.0</ele><time>2026-04-30T09:22:28.081Z</time></trkpt><trkpt lat="41.3336143" lon="2.2111986"><ele>0.0</ele><time>2026-04-30T09:22:29.082Z</time></trkpt><trkpt lat="41.3335615" lon="2.2112998"><ele>0.0</ele><time>2026-04-30T09:22:30.082Z</time></trkpt><trkpt lat="41.3335263" lon="2.211395"><ele>0.0</ele><time>2026-04-30T09:22:31.081Z</time></trkpt><trkpt lat="41.3334864" lon="2.211483"><ele>0.0</ele><time>2026-04-30T09:22:32.082Z</time></trkpt><trkpt lat="41.3334496" lon="2.2115705"><ele>0.0</ele><time>2026-04-30T09:22:33.081Z</time></trkpt><trkpt lat="41.333403" lon="2.2116586"><ele>0.0</ele><time>2026-04-30T09:22:34.081Z</time></trkpt><trkpt lat="41.3333585" lon="2.2117516"><ele>0.0</ele><time>2026-04-30T09:22:35.081Z</time></trkpt><trkpt lat="41.3333127" lon="2.211845"><ele>0.0</ele><time>2026-04-30T09:22:36.081Z</time></trkpt><trkpt lat="41.3332664" lon="2.2119369"><ele>0.0</ele><time>2026-04-30T09:22:37.081Z</time></trkpt><trkpt lat="41.333225" lon="2.2120283"><ele>0.0</ele><time>2026-04-30T09:22:38.082Z</time></trkpt><trkpt lat="41.3331824" lon="2.2121161"><ele>0.0</ele><time>2026-04-30T09:22:39.082Z</time></trkpt><trkpt lat="41.3331317" lon="2.2122027"><ele>0.0</ele><time>2026-04-30T09:22:40.081Z</time></trkpt><trkpt lat="41.3330867" lon="2.2122922"><ele>0.0</ele><time>2026-04-30T09:22:41.082Z</time></trkpt><trkpt lat="41.3330453" lon="2.2123821"><ele>0.0</ele><time>2026-04-30T09:22:42.081Z</time></trkpt><trkpt lat="41.3329264" lon="2.2126677"><ele>0.0</ele><time>2026-04-30T09:22:45.081Z</time></trkpt><trkpt lat="41.3328906" lon="2.2127587"><ele>0.0</ele><time>2026-04-30T09:22:46.081Z</time></trkpt><trkpt lat="41.3328578" lon="2.2128502"><ele>0.0</ele><time>2026-04-30T09:22:47.081Z</time></trkpt><trkpt lat="41.3328142" lon="2.2129463"><ele>0.0</ele><time>2026-04-30T09:22:48.081Z</time></trkpt><trkpt lat="41.3327789" lon="2.2130409"><ele>0.0</ele><time>2026-04-30T09:22:49.081Z</time></trkpt><trkpt lat="41.3327458" lon="2.2131403"><ele>0.0</ele><time>2026-04-30T09:22:50.081Z</time></trkpt><trkpt lat="41.3327082" lon="2.2132394"><ele>0.0</ele><time>2026-04-30T09:22:51.082Z</time></trkpt><trkpt lat="41.3326631" lon="2.2133409"><ele>0.0</ele><time>2026-04-30T09:22:52.081Z</time></trkpt><trkpt lat="41.3326249" lon="2.213437"><ele>0.0</ele><time>2026-04-30T09:22:53.082Z</time></trkpt><trkpt lat="41.3325911" lon="2.213532"><ele>0.0</ele><time>2026-04-30T09:22:54.082Z</time></trkpt><trkpt lat="41.3325579" lon="2.2136269"><ele>0.0</ele><time>2026-04-30T09:22:55.081Z</time></trkpt><trkpt lat="41.3325274" lon="2.2137306"><ele>0.0</ele><time>2026-04-30T09:22:56.082Z</time></trkpt><trkpt lat="41.3324933" lon="2.2138232"><ele>0.0</ele><time>2026-04-30T09:22:57.081Z</time></trkpt><trkpt lat="41.3324615" lon="2.2139174"><ele>0.0</ele><time>2026-04-30T09:22:58.081Z</time></trkpt><trkpt lat="41.3324286" lon="2.2140122"><ele>0.0</ele><time>2026-04-30T09:22:59.082Z</time></trkpt><trkpt lat="41.3323954" lon="2.2141072"><ele>0.0</ele><time>2026-04-30T09:23:00.081Z</time></trkpt><trkpt lat="41.3323621" lon="2.214205"><ele>0.0</ele><time>2026-04-30T09:23:01.082Z</time></trkpt><trkpt lat="41.3323231" lon="2.214306"><ele>0.0</ele><time>2026-04-30T09:23:02.082Z</time></trkpt><trkpt lat="41.3322844" lon="2.2144061"><ele>0.0</ele><time>2026-04-30T09:23:03.081Z</time></trkpt><trkpt lat="41.3322453" lon="2.2145036"><ele>0.0</ele><time>2026-04-30T09:23:04.081Z</time></trkpt><trkpt lat="41.332165" lon="2.214697"><ele>0.0</ele><time>2026-04-30T09:23:06.081Z</time></trkpt><trkpt lat="41.3321561" lon="2.2148067"><ele>0.0</ele><time>2026-04-30T09:23:07.081Z</time></trkpt><trkpt lat="41.3321316" lon="2.2149153"><ele>0.0</ele><time>2026-04-30T09:23:08.081Z</time></trkpt><trkpt lat="41.332107" lon="2.2150207"><ele>0.0</ele><time>2026-04-30T09:23:09.082Z</time></trkpt><trkpt lat="41.3320735" lon="2.2151219"><ele>0.0</ele><time>2026-04-30T09:23:10.081Z</time></trkpt><trkpt lat="41.3320405" lon="2.2152231"><ele>0.0</ele><time>2026-04-30T09:23:11.081Z</time></trkpt><trkpt lat="41.3320054" lon="2.2153265"><ele>0.0</ele><time>2026-04-30T09:23:12.081Z</time></trkpt><trkpt lat="41.3319637" lon="2.2154328"><ele>0.0</ele><time>2026-04-30T09:23:13.082Z</time></trkpt><trkpt lat="41.331921" lon="2.2155356"><ele>0.0</ele><time>2026-04-30T09:23:14.081Z</time></trkpt><trkpt lat="41.3318863" lon="2.2156331"><ele>0.0</ele><time>2026-04-30T09:23:15.081Z</time></trkpt><trkpt lat="41.3318518" lon="2.2157335"><ele>0.0</ele><time>2026-04-30T09:23:16.081Z</time></trkpt><trkpt lat="41.3318166" lon="2.2158324"><ele>0.0</ele><time>2026-04-30T09:23:17.081Z</time></trkpt><trkpt lat="41.3317862" lon="2.2159323"><ele>0.0</ele><time>2026-04-30T09:23:18.082Z</time></trkpt><trkpt lat="41.3317475" lon="2.216034"><ele>0.0</ele><time>2026-04-30T09:23:19.082Z</time></trkpt><trkpt lat="41.3317182" lon="2.2161371"><ele>0.0</ele><time>2026-04-30T09:23:20.082Z</time></trkpt><trkpt lat="41.3316948" lon="2.216242"><ele>0.0</ele><time>2026-04-30T09:23:21.081Z</time></trkpt><trkpt lat="41.3316734" lon="2.2163425"><ele>0.0</ele><time>2026-04-30T09:23:22.081Z</time></trkpt><trkpt lat="41.3316464" lon="2.2164396"><ele>0.0</ele><time>2026-04-30T09:23:23.081Z</time></trkpt><trkpt lat="41.3316246" lon="2.2165392"><ele>0.0</ele><time>2026-04-30T09:23:24.081Z</time></trkpt><trkpt lat="41.3316159" lon="2.2166302"><ele>0.0</ele><time>2026-04-30T09:23:25.082Z</time></trkpt><trkpt lat="41.331605" lon="2.2168585"><ele>0.0</ele><time>2026-04-30T09:23:27.081Z</time></trkpt><trkpt lat="41.3316125" lon="2.2169693"><ele>0.0</ele><time>2026-04-30T09:23:28.081Z</time></trkpt><trkpt lat="41.3316039" lon="2.2170808"><ele>0.0</ele><time>2026-04-30T09:23:29.081Z</time></trkpt><trkpt lat="41.331594" lon="2.2171857"><ele>0.0</ele><time>2026-04-30T09:23:30.082Z</time></trkpt><trkpt lat="41.3315657" lon="2.2172846"><ele>0.0</ele><time>2026-04-30T09:23:31.081Z</time></trkpt><trkpt lat="41.3315477" lon="2.2173828"><ele>0.0</ele><time>2026-04-30T09:23:32.081Z</time></trkpt><trkpt lat="41.3315283" lon="2.2174826"><ele>0.0</ele><time>2026-04-30T09:23:33.081Z</time></trkpt><trkpt lat="41.3315084" lon="2.2175825"><ele>0.0</ele><time>2026-04-30T09:23:34.082Z</time></trkpt><trkpt lat="41.3314844" lon="2.2176964"><ele>0.0</ele><time>2026-04-30T09:23:35.081Z</time></trkpt><trkpt lat="41.3314584" lon="2.2178125"><ele>0.0</ele><time>2026-04-30T09:23:36.081Z</time></trkpt><trkpt lat="41.3314185" lon="2.2179216"><ele>0.0</ele><time>2026-04-30T09:23:37.081Z</time></trkpt><trkpt lat="41.3313943" lon="2.2180184"><ele>0.0</ele><time>2026-04-30T09:23:38.082Z</time></trkpt><trkpt lat="41.3313773" lon="2.2181176"><ele>0.0</ele><time>2026-04-30T09:23:39.081Z</time></trkpt><trkpt lat="41.3313604" lon="2.2182195"><ele>0.0</ele><time>2026-04-30T09:23:40.082Z</time></trkpt><trkpt lat="41.3313468" lon="2.2183255"><ele>0.0</ele><time>2026-04-30T09:23:41.082Z</time></trkpt><trkpt lat="41.3313278" lon="2.2184236"><ele>0.0</ele><time>2026-04-30T09:23:42.082Z</time></trkpt><trkpt lat="41.3313154" lon="2.2185258"><ele>0.0</ele><time>2026-04-30T09:23:43.082Z</time></trkpt><trkpt lat="41.3313053" lon="2.2186328"><ele>0.0</ele><time>2026-04-30T09:23:44.082Z</time></trkpt><trkpt lat="41.3312953" lon="2.2187444"><ele>0.0</ele><time>2026-04-30T09:23:45.082Z</time></trkpt><trkpt lat="41.3312853" lon="2.2188561"><ele>0.0</ele><time>2026-04-30T09:23:46.081Z</time></trkpt><trkpt lat="41.3312574" lon="2.2190808"><ele>0.0</ele><time>2026-04-30T09:23:48.082Z</time></trkpt><trkpt lat="41.3312388" lon="2.2192"><ele>0.0</ele><time>2026-04-30T09:23:49.082Z</time></trkpt><trkpt lat="41.3312216" lon="2.2193088"><ele>0.0</ele><time>2026-04-30T09:23:50.081Z</time></trkpt><trkpt lat="41.3312037" lon="2.2194139"><ele>0.0</ele><time>2026-04-30T09:23:51.081Z</time></trkpt><trkpt lat="41.3311797" lon="2.2195179"><ele>0.0</ele><time>2026-04-30T09:23:52.082Z</time></trkpt><trkpt lat="41.3311617" lon="2.21962"><ele>0.0</ele><time>2026-04-30T09:23:53.081Z</time></trkpt><trkpt lat="41.3311536" lon="2.2197287"><ele>0.0</ele><time>2026-04-30T09:23:54.081Z</time></trkpt><trkpt lat="41.3311464" lon="2.2198396"><ele>0.0</ele><time>2026-04-30T09:23:55.081Z</time></trkpt><trkpt lat="41.3311441" lon="2.2199498"><ele>0.0</ele><time>2026-04-30T09:23:56.082Z</time></trkpt><trkpt lat="41.3311351" lon="2.2200616"><ele>0.0</ele><time>2026-04-30T09:23:57.081Z</time></trkpt><trkpt lat="41.3311185" lon="2.2201737"><ele>0.0</ele><time>2026-04-30T09:23:58.081Z</time></trkpt><trkpt lat="41.3310956" lon="2.2202839"><ele>0.0</ele><time>2026-04-30T09:23:59.081Z</time></trkpt><trkpt lat="41.3310813" lon="2.2203907"><ele>0.0</ele><time>2026-04-30T09:24:00.082Z</time></trkpt><trkpt lat="41.3310723" lon="2.2204972"><ele>0.0</ele><time>2026-04-30T09:24:01.082Z</time></trkpt><trkpt lat="41.3310676" lon="2.2206037"><ele>0.0</ele><time>2026-04-30T09:24:02.082Z</time></trkpt><trkpt lat="41.3310655" lon="2.2207143"><ele>0.0</ele><time>2026-04-30T09:24:03.081Z</time></trkpt><trkpt lat="41.3310566" lon="2.2208259"><ele>0.0</ele><time>2026-04-30T09:24:04.082Z</time></trkpt><trkpt lat="41.3310522" lon="2.2209393"><ele>0.0</ele><time>2026-04-30T09:24:05.081Z</time></trkpt><trkpt lat="41.3310488" lon="2.2210498"><ele>0.0</ele><time>2026-04-30T09:24:06.082Z</time></trkpt><trkpt lat="41.3310298" lon="2.2212718"><ele>0.0</ele><time>2026-04-30T09:24:08.081Z</time></trkpt><trkpt lat="41.331015" lon="2.2213832"><ele>0.0</ele><time>2026-04-30T09:24:09.081Z</time></trkpt><trkpt lat="41.3310014" lon="2.2214886"><ele>0.0</ele><time>2026-04-30T09:24:10.081Z</time></trkpt><trkpt lat="41.3309899" lon="2.2215931"><ele>0.0</ele><time>2026-04-30T09:24:11.081Z</time></trkpt><trkpt lat="41.3309814" lon="2.2216989"><ele>0.0</ele><time>2026-04-30T09:24:12.081Z</time></trkpt><trkpt lat="41.3309715" lon="2.2218012"><ele>0.0</ele><time>2026-04-30T09:24:13.082Z</time></trkpt><trkpt lat="41.3309679" lon="2.2219069"><ele>0.0</ele><time>2026-04-30T09:24:14.082Z</time></trkpt><trkpt lat="41.3309648" lon="2.2220082"><ele>0.0</ele><time>2026-04-30T09:24:15.081Z</time></trkpt><trkpt lat="41.3309647" lon="2.2221153"><ele>0.0</ele><time>2026-04-30T09:24:16.082Z</time></trkpt><trkpt lat="41.3309631" lon="2.2222222"><ele>0.0</ele><time>2026-04-30T09:24:17.082Z</time></trkpt><trkpt lat="41.3309615" lon="2.2223302"><ele>0.0</ele><time>2026-04-30T09:24:18.082Z</time></trkpt><trkpt lat="41.3309675" lon="2.2224389"><ele>0.0</ele><time>2026-04-30T09:24:19.081Z</time></trkpt><trkpt lat="41.3309715" lon="2.2225471"><ele>0.0</ele><time>2026-04-30T09:24:20.081Z</time></trkpt><trkpt lat="41.3309736" lon="2.2226549"><ele>0.0</ele><time>2026-04-30T09:24:21.081Z</time></trkpt><trkpt lat="41.3309748" lon="2.2227708"><ele>0.0</ele><time>2026-04-30T09:24:22.081Z</time></trkpt><trkpt lat="41.3309688" lon="2.2228862"><ele>0.0</ele><time>2026-04-30T09:24:23.081Z</time></trkpt><trkpt lat="41.3309571" lon="2.2229993"><ele>0.0</ele><time>2026-04-30T09:24:24.082Z</time></trkpt><trkpt lat="41.3309467" lon="2.2231033"><ele>0.0</ele><time>2026-04-30T09:24:25.081Z</time></trkpt><trkpt lat="41.330946" lon="2.2232041"><ele>0.0</ele><time>2026-04-30T09:24:26.082Z</time></trkpt><trkpt lat="41.3309417" lon="2.2233138"><ele>0.0</ele><time>2026-04-30T09:24:27.082Z</time></trkpt><trkpt lat="41.33092" lon="2.2235275"><ele>0.0</ele><time>2026-04-30T09:24:29.082Z</time></trkpt><trkpt lat="41.3309127" lon="2.2236364"><ele>0.0</ele><time>2026-04-30T09:24:30.081Z</time></trkpt><trkpt lat="41.3308999" lon="2.2237419"><ele>0.0</ele><time>2026-04-30T09:24:31.081Z</time></trkpt><trkpt lat="41.3308927" lon="2.2238473"><ele>0.0</ele><time>2026-04-30T09:24:32.082Z</time></trkpt><trkpt lat="41.3308801" lon="2.2239627"><ele>0.0</ele><time>2026-04-30T09:24:33.081Z</time></trkpt><trkpt lat="41.330857" lon="2.2240713"><ele>0.0</ele><time>2026-04-30T09:24:34.082Z</time></trkpt><trkpt lat="41.3308464" lon="2.2241823"><ele>0.0</ele><time>2026-04-30T09:24:35.081Z</time></trkpt><trkpt lat="41.3308496" lon="2.2242943"><ele>0.0</ele><time>2026-04-30T09:24:36.081Z</time></trkpt><trkpt lat="41.3308582" lon="2.2244067"><ele>0.0</ele><time>2026-04-30T09:24:37.082Z</time></trkpt><trkpt lat="41.3308648" lon="2.2245246"><ele>0.0</ele><time>2026-04-30T09:24:38.082Z</time></trkpt><trkpt lat="41.3308733" lon="2.2246377"><ele>0.0</ele><time>2026-04-30T09:24:39.081Z</time></trkpt><trkpt lat="41.3308775" lon="2.2247512"><ele>0.0</ele><time>2026-04-30T09:24:40.082Z</time></trkpt><trkpt lat="41.3308838" lon="2.2248619"><ele>0.0</ele><time>2026-04-30T09:24:41.081Z</time></trkpt><trkpt lat="41.3308872" lon="2.224973"><ele>0.0</ele><time>2026-04-30T09:24:42.081Z</time></trkpt><trkpt lat="41.3308968" lon="2.2250832"><ele>0.0</ele><time>2026-04-30T09:24:43.081Z</time></trkpt><trkpt lat="41.3308996" lon="2.2251877"><ele>0.0</ele><time>2026-04-30T09:24:44.081Z</time></trkpt><trkpt lat="41.3309097" lon="2.2252894"><ele>0.0</ele><time>2026-04-30T09:24:45.082Z</time></trkpt><trkpt lat="41.3309155" lon="2.2253966"><ele>0.0</ele><time>2026-04-30T09:24:46.081Z</time></trkpt><trkpt lat="41.330922" lon="2.2255043"><ele>0.0</ele><time>2026-04-30T09:24:47.082Z</time></trkpt><trkpt lat="41.3309288" lon="2.2256097"><ele>0.0</ele><time>2026-04-30T09:24:48.081Z</time></trkpt><trkpt lat="41.3309368" lon="2.2257196"><ele>0.0</ele><time>2026-04-30T09:24:49.081Z</time></trkpt><trkpt lat="41.3309569" lon="2.225938"><ele>0.0</ele><time>2026-04-30T09:24:51.081Z</time></trkpt><trkpt lat="41.3309669" lon="2.2260449"><ele>0.0</ele><time>2026-04-30T09:24:52.082Z</time></trkpt><trkpt lat="41.3309751" lon="2.2261531"><ele>0.0</ele><time>2026-04-30T09:24:53.081Z</time></trkpt><trkpt lat="41.3309801" lon="2.2262664"><ele>0.0</ele><time>2026-04-30T09:24:54.081Z</time></trkpt><trkpt lat="41.3309821" lon="2.2263756"><ele>0.0</ele><time>2026-04-30T09:24:55.081Z</time></trkpt><trkpt lat="41.3309803" lon="2.2264774"><ele>0.0</ele><time>2026-04-30T09:24:56.081Z</time></trkpt><trkpt lat="41.3309813" lon="2.2265847"><ele>0.0</ele><time>2026-04-30T09:24:57.082Z</time></trkpt><trkpt lat="41.3309869" lon="2.226692"><ele>0.0</ele><time>2026-04-30T09:24:58.082Z</time></trkpt><trkpt lat="41.3309965" lon="2.2267998"><ele>0.0</ele><time>2026-04-30T09:24:59.081Z</time></trkpt><trkpt lat="41.3310034" lon="2.2269072"><ele>0.0</ele><time>2026-04-30T09:25:00.081Z</time></trkpt><trkpt lat="41.3310101" lon="2.2270147"><ele>0.0</ele><time>2026-04-30T09:25:01.081Z</time></trkpt><trkpt lat="41.33102" lon="2.2271235"><ele>0.0</ele><time>2026-04-30T09:25:02.082Z</time></trkpt><trkpt lat="41.3310542" lon="2.2272291"><ele>0.0</ele><time>2026-04-30T09:25:03.081Z</time></trkpt><trkpt lat="41.3310665" lon="2.2273367"><ele>0.0</ele><time>2026-04-30T09:25:04.081Z</time></trkpt><trkpt lat="41.331082" lon="2.227442"><ele>0.0</ele><time>2026-04-30T09:25:05.082Z</time></trkpt><trkpt lat="41.3311008" lon="2.227544"><ele>0.0</ele><time>2026-04-30T09:25:06.081Z</time></trkpt><trkpt lat="41.331115" lon="2.2276555"><ele>0.0</ele><time>2026-04-30T09:25:07.081Z</time></trkpt><trkpt lat="41.3311303" lon="2.2277646"><ele>0.0</ele><time>2026-04-30T09:25:08.081Z</time></trkpt><trkpt lat="41.3311481" lon="2.2278743"><ele>0.0</ele><time>2026-04-30T09:25:09.081Z</time></trkpt><trkpt lat="41.3311695" lon="2.227986"><ele>0.0</ele><time>2026-04-30T09:25:10.082Z</time></trkpt><trkpt lat="41.3312094" lon="2.2282038"><ele>0.0</ele><time>2026-04-30T09:25:12.081Z</time></trkpt><trkpt lat="41.3312289" lon="2.2283142"><ele>0.0</ele><time>2026-04-30T09:25:13.082Z</time></trkpt><trkpt lat="41.3312484" lon="2.2284287"><ele>0.0</ele><time>2026-04-30T09:25:14.082Z</time></trkpt><trkpt lat="41.3312686" lon="2.2285396"><ele>0.0</ele><time>2026-04-30T09:25:15.081Z</time></trkpt><trkpt lat="41.3312882" lon="2.2286541"><ele>0.0</ele><time>2026-04-30T09:25:16.081Z</time></trkpt><trkpt lat="41.3313103" lon="2.2287649"><ele>0.0</ele><time>2026-04-30T09:25:17.082Z</time></trkpt><trkpt lat="41.3313317" lon="2.2288731"><ele>0.0</ele><time>2026-04-30T09:25:18.082Z</time></trkpt><trkpt lat="41.331353" lon="2.2289796"><ele>0.0</ele><time>2026-04-30T09:25:19.081Z</time></trkpt><trkpt lat="41.3313751" lon="2.2290864"><ele>0.0</ele><time>2026-04-30T09:25:20.082Z</time></trkpt><trkpt lat="41.3313937" lon="2.2291913"><ele>0.0</ele><time>2026-04-30T09:25:21.082Z</time></trkpt><trkpt lat="41.3314147" lon="2.2292992"><ele>0.0</ele><time>2026-04-30T09:25:22.081Z</time></trkpt><trkpt lat="41.3314364" lon="2.2294079"><ele>0.0</ele><time>2026-04-30T09:25:23.082Z</time></trkpt><trkpt lat="41.331457" lon="2.229516"><ele>0.0</ele><time>2026-04-30T09:25:24.081Z</time></trkpt><trkpt lat="41.3314753" lon="2.2296247"><ele>0.0</ele><time>2026-04-30T09:25:25.082Z</time></trkpt><trkpt lat="41.3314951" lon="2.2297359"><ele>0.0</ele><time>2026-04-30T09:25:26.081Z</time></trkpt><trkpt lat="41.3315169" lon="2.2298462"><ele>0.0</ele><time>2026-04-30T09:25:27.082Z</time></trkpt><trkpt lat="41.3315383" lon="2.2299547"><ele>0.0</ele><time>2026-04-30T09:25:28.082Z</time></trkpt><trkpt lat="41.3315602" lon="2.2300619"><ele>0.0</ele><time>2026-04-30T09:25:29.081Z</time></trkpt><trkpt lat="41.3315818" lon="2.2301686"><ele>0.0</ele><time>2026-04-30T09:25:30.082Z</time></trkpt><trkpt lat="41.3316038" lon="2.2302751"><ele>0.0</ele><time>2026-04-30T09:25:31.082Z</time></trkpt><trkpt lat="41.3316534" lon="2.2304865"><ele>0.0</ele><time>2026-04-30T09:25:33.081Z</time></trkpt><trkpt lat="41.3316787" lon="2.230592"><ele>0.0</ele><time>2026-04-30T09:25:34.082Z</time></trkpt><trkpt lat="41.3317034" lon="2.2306966"><ele>0.0</ele><time>2026-04-30T09:25:35.081Z</time></trkpt><trkpt lat="41.3317282" lon="2.2308046"><ele>0.0</ele><time>2026-04-30T09:25:36.081Z</time></trkpt><trkpt lat="41.3317532" lon="2.2309116"><ele>0.0</ele><time>2026-04-30T09:25:37.082Z</time></trkpt><trkpt lat="41.3317802" lon="2.2310185"><ele>0.0</ele><time>2026-04-30T09:25:38.081Z</time></trkpt><trkpt lat="41.3318055" lon="2.2311252"><ele>0.0</ele><time>2026-04-30T09:25:39.081Z</time></trkpt><trkpt lat="41.3318333" lon="2.231233"><ele>0.0</ele><time>2026-04-30T09:25:40.082Z</time></trkpt><trkpt lat="41.331862" lon="2.231337"><ele>0.0</ele><time>2026-04-30T09:25:41.081Z</time></trkpt><trkpt lat="41.3318887" lon="2.2314362"><ele>0.0</ele><time>2026-04-30T09:25:42.081Z</time></trkpt><trkpt lat="41.3319139" lon="2.2315386"><ele>0.0</ele><time>2026-04-30T09:25:43.081Z</time></trkpt><trkpt lat="41.3319387" lon="2.2316418"><ele>0.0</ele><time>2026-04-30T09:25:44.082Z</time></trkpt><trkpt lat="41.3319622" lon="2.2317454"><ele>0.0</ele><time>2026-04-30T09:25:45.081Z</time></trkpt><trkpt lat="41.3319887" lon="2.2318473"><ele>0.0</ele><time>2026-04-30T09:25:46.081Z</time></trkpt><trkpt lat="41.3320137" lon="2.231949"><ele>0.0</ele><time>2026-04-30T09:25:47.081Z</time></trkpt><trkpt lat="41.3320403" lon="2.2320545"><ele>0.0</ele><time>2026-04-30T09:25:48.081Z</time></trkpt><trkpt lat="41.332067" lon="2.2321598"><ele>0.0</ele><time>2026-04-30T09:25:49.082Z</time></trkpt><trkpt lat="41.3320935" lon="2.2322678"><ele>0.0</ele><time>2026-04-30T09:25:50.082Z</time></trkpt><trkpt lat="41.3321231" lon="2.2323676"><ele>0.0</ele><time>2026-04-30T09:25:51.082Z</time></trkpt><trkpt lat="41.3321815" lon="2.2325723"><ele>0.0</ele><time>2026-04-30T09:25:53.081Z</time></trkpt><trkpt lat="41.3322132" lon="2.2326792"><ele>0.0</ele><time>2026-04-30T09:25:54.081Z</time></trkpt><trkpt lat="41.3322449" lon="2.2327845"><ele>0.0</ele><time>2026-04-30T09:25:55.082Z</time></trkpt><trkpt lat="41.3322733" lon="2.2328897"><ele>0.0</ele><time>2026-04-30T09:25:56.082Z</time></trkpt><trkpt lat="41.3323035" lon="2.2329946"><ele>0.0</ele><time>2026-04-30T09:25:57.081Z</time></trkpt><trkpt lat="41.3323319" lon="2.2331011"><ele>0.0</ele><time>2026-04-30T09:25:58.081Z</time></trkpt><trkpt lat="41.33236" lon="2.2332062"><ele>0.0</ele><time>2026-04-30T09:25:59.082Z</time></trkpt><trkpt lat="41.3323869" lon="2.2333126"><ele>0.0</ele><time>2026-04-30T09:26:00.081Z</time></trkpt><trkpt lat="41.3324142" lon="2.2334169"><ele>0.0</ele><time>2026-04-30T09:26:01.082Z</time></trkpt><trkpt lat="41.3324409" lon="2.2335246"><ele>0.0</ele><time>2026-04-30T09:26:02.082Z</time></trkpt><trkpt lat="41.3324716" lon="2.2336269"><ele>0.0</ele><time>2026-04-30T09:26:03.082Z</time></trkpt><trkpt lat="41.3325014" lon="2.2337258"><ele>0.0</ele><time>2026-04-30T09:26:04.081Z</time></trkpt><trkpt lat="41.3325346" lon="2.2338282"><ele>0.0</ele><time>2026-04-30T09:26:05.082Z</time></trkpt><trkpt lat="41.3325663" lon="2.2339272"><ele>0.0</ele><time>2026-04-30T09:26:06.081Z</time></trkpt><trkpt lat="41.3325982" lon="2.2340259"><ele>0.0</ele><time>2026-04-30T09:26:07.082Z</time></trkpt><trkpt lat="41.3326285" lon="2.2341256"><ele>0.0</ele><time>2026-04-30T09:26:08.081Z</time></trkpt><trkpt lat="41.3326596" lon="2.2342315"><ele>0.0</ele><time>2026-04-30T09:26:09.082Z</time></trkpt><trkpt lat="41.3326897" lon="2.2343434"><ele>0.0</ele><time>2026-04-30T09:26:10.081Z</time></trkpt><trkpt lat="41.3327216" lon="2.2344538"><ele>0.0</ele><time>2026-04-30T09:26:11.082Z</time></trkpt><trkpt lat="41.3327519" lon="2.2345597"><ele>0.0</ele><time>2026-04-30T09:26:12.082Z</time></trkpt><trkpt lat="41.3328102" lon="2.2347683"><ele>0.0</ele><time>2026-04-30T09:26:14.081Z</time></trkpt><trkpt lat="41.3328429" lon="2.2348713"><ele>0.0</ele><time>2026-04-30T09:26:15.081Z</time></trkpt><trkpt lat="41.3328751" lon="2.2349691"><ele>0.0</ele><time>2026-04-30T09:26:16.082Z</time></trkpt><trkpt lat="41.3329065" lon="2.2350714"><ele>0.0</ele><time>2026-04-30T09:26:17.081Z</time></trkpt><trkpt lat="41.3329468" lon="2.235173"><ele>0.0</ele><time>2026-04-30T09:26:18.081Z</time></trkpt><trkpt lat="41.3329859" lon="2.2352662"><ele>0.0</ele><time>2026-04-30T09:26:19.081Z</time></trkpt><trkpt lat="41.3330234" lon="2.2353596"><ele>0.0</ele><time>2026-04-30T09:26:20.081Z</time></trkpt><trkpt lat="41.3330583" lon="2.2354612"><ele>0.0</ele><time>2026-04-30T09:26:21.08Z</time></trkpt><trkpt lat="41.333095" lon="2.2355659"><ele>0.0</ele><time>2026-04-30T09:26:22.08Z</time></trkpt><trkpt lat="41.3331299" lon="2.2356711"><ele>0.0</ele><time>2026-04-30T09:26:23.08Z</time></trkpt><trkpt lat="41.3331653" lon="2.2357732"><ele>0.0</ele><time>2026-04-30T09:26:24.081Z</time></trkpt><trkpt lat="41.3332003" lon="2.235869"><ele>0.0</ele><time>2026-04-30T09:26:25.08Z</time></trkpt><trkpt lat="41.3332383" lon="2.2359655"><ele>0.0</ele><time>2026-04-30T09:26:26.08Z</time></trkpt><trkpt lat="41.3332764" lon="2.2360707"><ele>0.0</ele><time>2026-04-30T09:26:27.08Z</time></trkpt><trkpt lat="41.3333189" lon="2.2361799"><ele>0.0</ele><time>2026-04-30T09:26:28.08Z</time></trkpt><trkpt lat="41.3333571" lon="2.236285"><ele>0.0</ele><time>2026-04-30T09:26:29.081Z</time></trkpt><trkpt lat="41.3333905" lon="2.2363841"><ele>0.0</ele><time>2026-04-30T09:26:30.08Z</time></trkpt><trkpt lat="41.3334235" lon="2.2364893"><ele>0.0</ele><time>2026-04-30T09:26:31.081Z</time></trkpt><trkpt lat="41.3334568" lon="2.2365956"><ele>0.0</ele><time>2026-04-30T09:26:32.08Z</time></trkpt><trkpt lat="41.3334884" lon="2.2366896"><ele>0.0</ele><time>2026-04-30T09:26:33.08Z</time></trkpt><trkpt lat="41.3335537" lon="2.2368917"><ele>0.0</ele><time>2026-04-30T09:26:35.081Z</time></trkpt><trkpt lat="41.3335854" lon="2.2369906"><ele>0.0</ele><time>2026-04-30T09:26:36.081Z</time></trkpt><trkpt lat="41.3336156" lon="2.237093"><ele>0.0</ele><time>2026-04-30T09:26:37.08Z</time></trkpt><trkpt lat="41.3336441" lon="2.2371935"><ele>0.0</ele><time>2026-04-30T09:26:38.08Z</time></trkpt><trkpt lat="41.3336771" lon="2.2372962"><ele>0.0</ele><time>2026-04-30T09:26:39.081Z</time></trkpt><trkpt lat="41.3337119" lon="2.2374011"><ele>0.0</ele><time>2026-04-30T09:26:40.08Z</time></trkpt><trkpt lat="41.3337482" lon="2.2375075"><ele>0.0</ele><time>2026-04-30T09:26:41.081Z</time></trkpt><trkpt lat="41.333783" lon="2.2376158"><ele>0.0</ele><time>2026-04-30T09:26:42.08Z</time></trkpt><trkpt lat="41.3338166" lon="2.2377241"><ele>0.0</ele><time>2026-04-30T09:26:43.08Z</time></trkpt><trkpt lat="41.3338587" lon="2.2378263"><ele>0.0</ele><time>2026-04-30T09:26:44.081Z</time></trkpt><trkpt lat="41.3338949" lon="2.2379227"><ele>0.0</ele><time>2026-04-30T09:26:45.08Z</time></trkpt><trkpt lat="41.3339304" lon="2.2380244"><ele>0.0</ele><time>2026-04-30T09:26:46.081Z</time></trkpt><trkpt lat="41.3339653" lon="2.2381276"><ele>0.0</ele><time>2026-04-30T09:26:47.08Z</time></trkpt><trkpt lat="41.333999" lon="2.238228"><ele>0.0</ele><time>2026-04-30T09:26:48.08Z</time></trkpt><trkpt lat="41.3340322" lon="2.2383315"><ele>0.0</ele><time>2026-04-30T09:26:49.081Z</time></trkpt><trkpt lat="41.3340626" lon="2.2384324"><ele>0.0</ele><time>2026-04-30T09:26:50.081Z</time></trkpt><trkpt lat="41.3340939" lon="2.2385353"><ele>0.0</ele><time>2026-04-30T09:26:51.08Z</time></trkpt><trkpt lat="41.3341255" lon="2.2386381"><ele>0.0</ele><time>2026-04-30T09:26:52.08Z</time></trkpt><trkpt lat="41.3341588" lon="2.238743"><ele>0.0</ele><time>2026-04-30T09:26:53.081Z</time></trkpt><trkpt lat="41.334192" lon="2.2388468"><ele>0.0</ele><time>2026-04-30T09:26:54.081Z</time></trkpt><trkpt lat="41.3342553" lon="2.239056"><ele>0.0</ele><time>2026-04-30T09:26:56.08Z</time></trkpt><trkpt lat="41.3342855" lon="2.239157"><ele>0.0</ele><time>2026-04-30T09:26:57.08Z</time></trkpt><trkpt lat="41.3343229" lon="2.2392624"><ele>0.0</ele><time>2026-04-30T09:26:58.081Z</time></trkpt><trkpt lat="41.3343626" lon="2.2393665"><ele>0.0</ele><time>2026-04-30T09:26:59.081Z</time></trkpt><trkpt lat="41.3344038" lon="2.2394658"><ele>0.0</ele><time>2026-04-30T09:27:00.08Z</time></trkpt><trkpt lat="41.3344367" lon="2.2395628"><ele>0.0</ele><time>2026-04-30T09:27:01.08Z</time></trkpt><trkpt lat="41.3344687" lon="2.2396622"><ele>0.0</ele><time>2026-04-30T09:27:02.08Z</time></trkpt><trkpt lat="41.3345003" lon="2.2397646"><ele>0.0</ele><time>2026-04-30T09:27:03.081Z</time></trkpt><trkpt lat="41.3345251" lon="2.2398697"><ele>0.0</ele><time>2026-04-30T09:27:04.08Z</time></trkpt><trkpt lat="41.334557" lon="2.2399748"><ele>0.0</ele><time>2026-04-30T09:27:05.08Z</time></trkpt><trkpt lat="41.3345888" lon="2.2400797"><ele>0.0</ele><time>2026-04-30T09:27:06.081Z</time></trkpt><trkpt lat="41.3346177" lon="2.2401859"><ele>0.0</ele><time>2026-04-30T09:27:07.081Z</time></trkpt><trkpt lat="41.3346554" lon="2.2402881"><ele>0.0</ele><time>2026-04-30T09:27:08.081Z</time></trkpt><trkpt lat="41.3346856" lon="2.2403904"><ele>0.0</ele><time>2026-04-30T09:27:09.08Z</time></trkpt><trkpt lat="41.3347152" lon="2.2404996"><ele>0.0</ele><time>2026-04-30T09:27:10.081Z</time></trkpt><trkpt lat="41.3347405" lon="2.2405997"><ele>0.0</ele><time>2026-04-30T09:27:11.081Z</time></trkpt><trkpt lat="41.3347684" lon="2.2406993"><ele>0.0</ele><time>2026-04-30T09:27:12.081Z</time></trkpt><trkpt lat="41.334797" lon="2.2408007"><ele>0.0</ele><time>2026-04-30T09:27:13.08Z</time></trkpt><trkpt lat="41.3348269" lon="2.2409033"><ele>0.0</ele><time>2026-04-30T09:27:14.081Z</time></trkpt><trkpt lat="41.3348612" lon="2.241008"><ele>0.0</ele><time>2026-04-30T09:27:15.081Z</time></trkpt><trkpt lat="41.3348967" lon="2.2411142"><ele>0.0</ele><time>2026-04-30T09:27:16.08Z</time></trkpt><trkpt lat="41.3349648" lon="2.2413182"><ele>0.0</ele><time>2026-04-30T09:27:18.081Z</time></trkpt><trkpt lat="41.3350016" lon="2.2414225"><ele>0.0</ele><time>2026-04-30T09:27:19.08Z</time></trkpt><trkpt lat="41.3350397" lon="2.2415266"><ele>0.0</ele><time>2026-04-30T09:27:20.08Z</time></trkpt><trkpt lat="41.3350809" lon="2.2416297"><ele>0.0</ele><time>2026-04-30T09:27:21.081Z</time></trkpt><trkpt lat="41.3351237" lon="2.2417303"><ele>0.0</ele><time>2026-04-30T09:27:22.08Z</time></trkpt><trkpt lat="41.3351674" lon="2.2418304"><ele>0.0</ele><time>2026-04-30T09:27:23.081Z</time></trkpt><trkpt lat="41.3352082" lon="2.2419317"><ele>0.0</ele><time>2026-04-30T09:27:24.08Z</time></trkpt><trkpt lat="41.3352435" lon="2.2420337"><ele>0.0</ele><time>2026-04-30T09:27:25.08Z</time></trkpt><trkpt lat="41.335277" lon="2.2421327"><ele>0.0</ele><time>2026-04-30T09:27:26.081Z</time></trkpt><trkpt lat="41.3353083" lon="2.2422394"><ele>0.0</ele><time>2026-04-30T09:27:27.081Z</time></trkpt><trkpt lat="41.3353747" lon="2.2424488"><ele>0.0</ele><time>2026-04-30T09:27:29.081Z</time></trkpt><trkpt lat="41.335413" lon="2.2425457"><ele>0.0</ele><time>2026-04-30T09:27:30.081Z</time></trkpt><trkpt lat="41.3354499" lon="2.2426436"><ele>0.0</ele><time>2026-04-30T09:27:31.081Z</time></trkpt><trkpt lat="41.3354882" lon="2.2427451"><ele>0.0</ele><time>2026-04-30T09:27:32.08Z</time></trkpt><trkpt lat="41.3355249" lon="2.2428497"><ele>0.0</ele><time>2026-04-30T09:27:33.08Z</time></trkpt><trkpt lat="41.3355618" lon="2.2429531"><ele>0.0</ele><time>2026-04-30T09:27:34.081Z</time></trkpt><trkpt lat="41.3355952" lon="2.2430565"><ele>0.0</ele><time>2026-04-30T09:27:35.08Z</time></trkpt><trkpt lat="41.33563" lon="2.243158"><ele>0.0</ele><time>2026-04-30T09:27:36.08Z</time></trkpt><trkpt lat="41.3356653" lon="2.2432585"><ele>0.0</ele><time>2026-04-30T09:27:37.081Z</time></trkpt><trkpt lat="41.3357417" lon="2.2434599"><ele>0.0</ele><time>2026-04-30T09:27:39.08Z</time></trkpt><trkpt lat="41.3357735" lon="2.2435638"><ele>0.0</ele><time>2026-04-30T09:27:40.081Z</time></trkpt><trkpt lat="41.3358082" lon="2.2436672"><ele>0.0</ele><time>2026-04-30T09:27:41.081Z</time></trkpt><trkpt lat="41.3358402" lon="2.2437674"><ele>0.0</ele><time>2026-04-30T09:27:42.081Z</time></trkpt><trkpt lat="41.3358734" lon="2.2438642"><ele>0.0</ele><time>2026-04-30T09:27:43.081Z</time></trkpt><trkpt lat="41.335907" lon="2.243965"><ele>0.0</ele><time>2026-04-30T09:27:44.08Z</time></trkpt><trkpt lat="41.3359402" lon="2.2440695"><ele>0.0</ele><time>2026-04-30T09:27:45.08Z</time></trkpt><trkpt lat="41.3359783" lon="2.2441755"><ele>0.0</ele><time>2026-04-30T09:27:46.081Z</time></trkpt><trkpt lat="41.3360155" lon="2.2442736"><ele>0.0</ele><time>2026-04-30T09:27:47.081Z</time></trkpt><trkpt lat="41.3360534" lon="2.2443747"><ele>0.0</ele><time>2026-04-30T09:27:48.08Z</time></trkpt><trkpt lat="41.3360904" lon="2.2444748"><ele>0.0</ele><time>2026-04-30T09:27:49.08Z</time></trkpt><trkpt lat="41.3361252" lon="2.2445796"><ele>0.0</ele><time>2026-04-30T09:27:50.081Z</time></trkpt><trkpt lat="41.3361586" lon="2.2446848"><ele>0.0</ele><time>2026-04-30T09:27:51.08Z</time></trkpt><trkpt lat="41.3361946" lon="2.24479"><ele>0.0</ele><time>2026-04-30T09:27:52.081Z</time></trkpt><trkpt lat="41.3362243" lon="2.2448964"><ele>0.0</ele><time>2026-04-30T09:27:53.08Z</time></trkpt><trkpt lat="41.3362555" lon="2.2449955"><ele>0.0</ele><time>2026-04-30T09:27:54.08Z</time></trkpt><trkpt lat="41.336297" lon="2.2450984"><ele>0.0</ele><time>2026-04-30T09:27:55.081Z</time></trkpt><trkpt lat="41.3363337" lon="2.2452"><ele>0.0</ele><time>2026-04-30T09:27:56.081Z</time></trkpt><trkpt lat="41.336375" lon="2.2453015"><ele>0.0</ele><time>2026-04-30T09:27:57.081Z</time></trkpt><trkpt lat="41.336412" lon="2.2454047"><ele>0.0</ele><time>2026-04-30T09:27:58.08Z</time></trkpt><trkpt lat="41.3364437" lon="2.2455085"><ele>0.0</ele><time>2026-04-30T09:27:59.08Z</time></trkpt><trkpt lat="41.3365102" lon="2.2457116"><ele>0.0</ele><time>2026-04-30T09:28:01.081Z</time></trkpt><trkpt lat="41.3365475" lon="2.2458136"><ele>0.0</ele><time>2026-04-30T09:28:02.08Z</time></trkpt><trkpt lat="41.3365847" lon="2.2459151"><ele>0.0</ele><time>2026-04-30T09:28:03.08Z</time></trkpt><trkpt lat="41.3366193" lon="2.2460151"><ele>0.0</ele><time>2026-04-30T09:28:04.08Z</time></trkpt><trkpt lat="41.3366505" lon="2.2461166"><ele>0.0</ele><time>2026-04-30T09:28:05.081Z</time></trkpt><trkpt lat="41.3366795" lon="2.2462169"><ele>0.0</ele><time>2026-04-30T09:28:06.081Z</time></trkpt><trkpt lat="41.3367106" lon="2.246315"><ele>0.0</ele><time>2026-04-30T09:28:07.08Z</time></trkpt><trkpt lat="41.3367468" lon="2.2464135"><ele>0.0</ele><time>2026-04-30T09:28:08.08Z</time></trkpt><trkpt lat="41.336782" lon="2.2465135"><ele>0.0</ele><time>2026-04-30T09:28:09.08Z</time></trkpt><trkpt lat="41.3368169" lon="2.2466193"><ele>0.0</ele><time>2026-04-30T09:28:10.08Z</time></trkpt><trkpt lat="41.336849" lon="2.2467231"><ele>0.0</ele><time>2026-04-30T09:28:11.08Z</time></trkpt><trkpt lat="41.3368862" lon="2.2468224"><ele>0.0</ele><time>2026-04-30T09:28:12.081Z</time></trkpt><trkpt lat="41.3369229" lon="2.2469231"><ele>0.0</ele><time>2026-04-30T09:28:13.08Z</time></trkpt><trkpt lat="41.336958" lon="2.2470262"><ele>0.0</ele><time>2026-04-30T09:28:14.081Z</time></trkpt><trkpt lat="41.336995" lon="2.2471239"><ele>0.0</ele><time>2026-04-30T09:28:15.08Z</time></trkpt><trkpt lat="41.3370332" lon="2.2472294"><ele>0.0</ele><time>2026-04-30T09:28:16.08Z</time></trkpt><trkpt lat="41.3370716" lon="2.2473325"><ele>0.0</ele><time>2026-04-30T09:28:17.081Z</time></trkpt><trkpt lat="41.33711" lon="2.2474361"><ele>0.0</ele><time>2026-04-30T09:28:18.08Z</time></trkpt><trkpt lat="41.3371477" lon="2.2475385"><ele>0.0</ele><time>2026-04-30T09:28:19.08Z</time></trkpt><trkpt lat="41.3371832" lon="2.2476431"><ele>0.0</ele><time>2026-04-30T09:28:20.08Z</time></trkpt><trkpt lat="41.3372697" lon="2.2478431"><ele>0.0</ele><time>2026-04-30T09:28:22.08Z</time></trkpt><trkpt lat="41.3373034" lon="2.2479479"><ele>0.0</ele><time>2026-04-30T09:28:23.08Z</time></trkpt><trkpt lat="41.3373369" lon="2.2480516"><ele>0.0</ele><time>2026-04-30T09:28:24.08Z</time></trkpt><trkpt lat="41.3373701" lon="2.2481533"><ele>0.0</ele><time>2026-04-30T09:28:25.08Z</time></trkpt><trkpt lat="41.3374054" lon="2.2482565"><ele>0.0</ele><time>2026-04-30T09:28:26.081Z</time></trkpt><trkpt lat="41.3374405" lon="2.24836"><ele>0.0</ele><time>2026-04-30T09:28:27.08Z</time></trkpt><trkpt lat="41.337477" lon="2.24846"><ele>0.0</ele><time>2026-04-30T09:28:28.08Z</time></trkpt><trkpt lat="41.3375136" lon="2.2485642"><ele>0.0</ele><time>2026-04-30T09:28:29.08Z</time></trkpt><trkpt lat="41.3375503" lon="2.2486664"><ele>0.0</ele><time>2026-04-30T09:28:30.08Z</time></trkpt><trkpt lat="41.3375871" lon="2.2487727"><ele>0.0</ele><time>2026-04-30T09:28:31.081Z</time></trkpt><trkpt lat="41.3376221" lon="2.2488796"><ele>0.0</ele><time>2026-04-30T09:28:32.08Z</time></trkpt><trkpt lat="41.3376607" lon="2.248977"><ele>0.0</ele><time>2026-04-30T09:28:33.08Z</time></trkpt><trkpt lat="41.3376953" lon="2.24908"><ele>0.0</ele><time>2026-04-30T09:28:34.081Z</time></trkpt><trkpt lat="41.3377286" lon="2.2491821"><ele>0.0</ele><time>2026-04-30T09:28:35.081Z</time></trkpt><trkpt lat="41.337765" lon="2.2492851"><ele>0.0</ele><time>2026-04-30T09:28:36.08Z</time></trkpt><trkpt lat="41.3378046" lon="2.249384"><ele>0.0</ele><time>2026-04-30T09:28:37.081Z</time></trkpt><trkpt lat="41.3378415" lon="2.2494851"><ele>0.0</ele><time>2026-04-30T09:28:38.081Z</time></trkpt><trkpt lat="41.3378784" lon="2.2495825"><ele>0.0</ele><time>2026-04-30T09:28:39.081Z</time></trkpt><trkpt lat="41.3379193" lon="2.2496792"><ele>0.0</ele><time>2026-04-30T09:28:40.081Z</time></trkpt><trkpt lat="41.3379581" lon="2.2497802"><ele>0.0</ele><time>2026-04-30T09:28:41.08Z</time></trkpt><trkpt lat="41.3380216" lon="2.2499884"><ele>0.0</ele><time>2026-04-30T09:28:43.08Z</time></trkpt><trkpt lat="41.338057" lon="2.2500927"><ele>0.0</ele><time>2026-04-30T09:28:44.081Z</time></trkpt><trkpt lat="41.3380902" lon="2.2501991"><ele>0.0</ele><time>2026-04-30T09:28:45.081Z</time></trkpt><trkpt lat="41.3381232" lon="2.2503087"><ele>0.0</ele><time>2026-04-30T09:28:46.08Z</time></trkpt><trkpt lat="41.3381552" lon="2.2504144"><ele>0.0</ele><time>2026-04-30T09:28:47.081Z</time></trkpt><trkpt lat="41.3381904" lon="2.2505167"><ele>0.0</ele><time>2026-04-30T09:28:48.081Z</time></trkpt><trkpt lat="41.3382254" lon="2.2506198"><ele>0.0</ele><time>2026-04-30T09:28:49.081Z</time></trkpt><trkpt lat="41.3382558" lon="2.2507204"><ele>0.0</ele><time>2026-04-30T09:28:50.081Z</time></trkpt><trkpt lat="41.3382877" lon="2.250823"><ele>0.0</ele><time>2026-04-30T09:28:51.081Z</time></trkpt><trkpt lat="41.3383281" lon="2.2509208"><ele>0.0</ele><time>2026-04-30T09:28:52.081Z</time></trkpt><trkpt lat="41.3383696" lon="2.2510275"><ele>0.0</ele><time>2026-04-30T09:28:53.081Z</time></trkpt><trkpt lat="41.3384154" lon="2.2511298"><ele>0.0</ele><time>2026-04-30T09:28:54.081Z</time></trkpt><trkpt lat="41.3384561" lon="2.2512332"><ele>0.0</ele><time>2026-04-30T09:28:55.08Z</time></trkpt><trkpt lat="41.3384949" lon="2.2513367"><ele>0.0</ele><time>2026-04-30T09:28:56.08Z</time></trkpt><trkpt lat="41.3385319" lon="2.25144"><ele>0.0</ele><time>2026-04-30T09:28:57.08Z</time></trkpt><trkpt lat="41.3385653" lon="2.2515421"><ele>0.0</ele><time>2026-04-30T09:28:58.081Z</time></trkpt><trkpt lat="41.3386003" lon="2.2516403"><ele>0.0</ele><time>2026-04-30T09:28:59.081Z</time></trkpt><trkpt lat="41.338637" lon="2.2517402"><ele>0.0</ele><time>2026-04-30T09:29:00.081Z</time></trkpt><trkpt lat="41.3386737" lon="2.251843"><ele>0.0</ele><time>2026-04-30T09:29:01.081Z</time></trkpt><trkpt lat="41.3387088" lon="2.2519451"><ele>0.0</ele><time>2026-04-30T09:29:02.08Z</time></trkpt><trkpt lat="41.338808" lon="2.2522684"><ele>0.0</ele><time>2026-04-30T09:29:05.08Z</time></trkpt><trkpt lat="41.3388483" lon="2.2523727"><ele>0.0</ele><time>2026-04-30T09:29:06.08Z</time></trkpt><trkpt lat="41.3388821" lon="2.2524749"><ele>0.0</ele><time>2026-04-30T09:29:07.081Z</time></trkpt><trkpt lat="41.3389152" lon="2.2525754"><ele>0.0</ele><time>2026-04-30T09:29:08.08Z</time></trkpt><trkpt lat="41.33895" lon="2.2526784"><ele>0.0</ele><time>2026-04-30T09:29:09.08Z</time></trkpt><trkpt lat="41.3389872" lon="2.2527743"><ele>0.0</ele><time>2026-04-30T09:29:10.08Z</time></trkpt><trkpt lat="41.339022" lon="2.2528755"><ele>0.0</ele><time>2026-04-30T09:29:11.08Z</time></trkpt><trkpt lat="41.3390568" lon="2.2529802"><ele>0.0</ele><time>2026-04-30T09:29:12.081Z</time></trkpt><trkpt lat="41.3390898" lon="2.2530849"><ele>0.0</ele><time>2026-04-30T09:29:13.08Z</time></trkpt><trkpt lat="41.3391249" lon="2.2531897"><ele>0.0</ele><time>2026-04-30T09:29:14.081Z</time></trkpt><trkpt lat="41.33916" lon="2.2532949"><ele>0.0</ele><time>2026-04-30T09:29:15.08Z</time></trkpt><trkpt lat="41.3391982" lon="2.2534012"><ele>0.0</ele><time>2026-04-30T09:29:16.081Z</time></trkpt><trkpt lat="41.3392366" lon="2.2535036"><ele>0.0</ele><time>2026-04-30T09:29:17.08Z</time></trkpt><trkpt lat="41.339275" lon="2.2536026"><ele>0.0</ele><time>2026-04-30T09:29:18.08Z</time></trkpt><trkpt lat="41.3393163" lon="2.2537065"><ele>0.0</ele><time>2026-04-30T09:29:19.08Z</time></trkpt><trkpt lat="41.3393565" lon="2.2538141"><ele>0.0</ele><time>2026-04-30T09:29:20.081Z</time></trkpt><trkpt lat="41.3393965" lon="2.2539165"><ele>0.0</ele><time>2026-04-30T09:29:21.08Z</time></trkpt><trkpt lat="41.3394301" lon="2.2540119"><ele>0.0</ele><time>2026-04-30T09:29:22.08Z</time></trkpt><trkpt lat="41.3394723" lon="2.2541091"><ele>0.0</ele><time>2026-04-30T09:29:23.081Z</time></trkpt><trkpt lat="41.3395158" lon="2.2542114"><ele>0.0</ele><time>2026-04-30T09:29:24.081Z</time></trkpt><trkpt lat="41.3395999" lon="2.2544134"><ele>0.0</ele><time>2026-04-30T09:29:26.08Z</time></trkpt><trkpt lat="41.33964" lon="2.2545149"><ele>0.0</ele><time>2026-04-30T09:29:27.08Z</time></trkpt><trkpt lat="41.339677" lon="2.2546166"><ele>0.0</ele><time>2026-04-30T09:29:28.08Z</time></trkpt><trkpt lat="41.3397137" lon="2.2547182"><ele>0.0</ele><time>2026-04-30T09:29:29.08Z</time></trkpt><trkpt lat="41.3397519" lon="2.2548186"><ele>0.0</ele><time>2026-04-30T09:29:30.08Z</time></trkpt><trkpt lat="41.3397885" lon="2.2549217"><ele>0.0</ele><time>2026-04-30T09:29:31.08Z</time></trkpt><trkpt lat="41.3398253" lon="2.2550223"><ele>0.0</ele><time>2026-04-30T09:29:32.08Z</time></trkpt><trkpt lat="41.3398617" lon="2.2551293"><ele>0.0</ele><time>2026-04-30T09:29:33.08Z</time></trkpt><trkpt lat="41.3398982" lon="2.2552332"><ele>0.0</ele><time>2026-04-30T09:29:34.08Z</time></trkpt><trkpt lat="41.3399349" lon="2.255338"><ele>0.0</ele><time>2026-04-30T09:29:35.081Z</time></trkpt><trkpt lat="41.3399702" lon="2.2554444"><ele>0.0</ele><time>2026-04-30T09:29:36.08Z</time></trkpt><trkpt lat="41.3400011" lon="2.2555528"><ele>0.0</ele><time>2026-04-30T09:29:37.081Z</time></trkpt><trkpt lat="41.3400353" lon="2.2556522"><ele>0.0</ele><time>2026-04-30T09:29:38.08Z</time></trkpt><trkpt lat="41.340069" lon="2.2557509"><ele>0.0</ele><time>2026-04-30T09:29:39.081Z</time></trkpt><trkpt lat="41.3401" lon="2.2558567"><ele>0.0</ele><time>2026-04-30T09:29:40.08Z</time></trkpt><trkpt lat="41.3401319" lon="2.2559614"><ele>0.0</ele><time>2026-04-30T09:29:41.08Z</time></trkpt><trkpt lat="41.3401635" lon="2.2560677"><ele>0.0</ele><time>2026-04-30T09:29:42.08Z</time></trkpt><trkpt lat="41.3401983" lon="2.2561704"><ele>0.0</ele><time>2026-04-30T09:29:43.081Z</time></trkpt><trkpt lat="41.3402366" lon="2.2562621"><ele>0.0</ele><time>2026-04-30T09:29:44.081Z</time></trkpt><trkpt lat="41.3402736" lon="2.2563605"><ele>0.0</ele><time>2026-04-30T09:29:45.081Z</time></trkpt><trkpt lat="41.3403461" lon="2.256577"><ele>0.0</ele><time>2026-04-30T09:29:47.08Z</time></trkpt><trkpt lat="41.3403841" lon="2.2566857"><ele>0.0</ele><time>2026-04-30T09:29:48.08Z</time></trkpt><trkpt lat="41.3404214" lon="2.2567882"><ele>0.0</ele><time>2026-04-30T09:29:49.08Z</time></trkpt><trkpt lat="41.3404609" lon="2.2568919"><ele>0.0</ele><time>2026-04-30T09:29:50.081Z</time></trkpt><trkpt lat="41.340501" lon="2.2569952"><ele>0.0</ele><time>2026-04-30T09:29:51.081Z</time></trkpt><trkpt lat="41.3405322" lon="2.2570959"><ele>0.0</ele><time>2026-04-30T09:29:52.08Z</time></trkpt><trkpt lat="41.3405637" lon="2.257196"><ele>0.0</ele><time>2026-04-30T09:29:53.08Z</time></trkpt><trkpt lat="41.3405938" lon="2.2572984"><ele>0.0</ele><time>2026-04-30T09:29:54.08Z</time></trkpt><trkpt lat="41.3406304" lon="2.2573973"><ele>0.0</ele><time>2026-04-30T09:29:55.081Z</time></trkpt><trkpt lat="41.3406699" lon="2.257504"><ele>0.0</ele><time>2026-04-30T09:29:56.08Z</time></trkpt><trkpt lat="41.3407099" lon="2.2576123"><ele>0.0</ele><time>2026-04-30T09:29:57.08Z</time></trkpt><trkpt lat="41.3407471" lon="2.2577135"><ele>0.0</ele><time>2026-04-30T09:29:58.08Z</time></trkpt><trkpt lat="41.3407832" lon="2.2578193"><ele>0.0</ele><time>2026-04-30T09:29:59.081Z</time></trkpt><trkpt lat="41.3408249" lon="2.2579212"><ele>0.0</ele><time>2026-04-30T09:30:00.081Z</time></trkpt><trkpt lat="41.3408653" lon="2.2580231"><ele>0.0</ele><time>2026-04-30T09:30:01.08Z</time></trkpt><trkpt lat="41.3409017" lon="2.2581301"><ele>0.0</ele><time>2026-04-30T09:30:02.081Z</time></trkpt><trkpt lat="41.3409399" lon="2.2582367"><ele>0.0</ele><time>2026-04-30T09:30:03.08Z</time></trkpt><trkpt lat="41.3409754" lon="2.2583399"><ele>0.0</ele><time>2026-04-30T09:30:04.081Z</time></trkpt><trkpt lat="41.3410104" lon="2.258446"><ele>0.0</ele><time>2026-04-30T09:30:05.081Z</time></trkpt><trkpt lat="41.3410468" lon="2.2585495"><ele>0.0</ele><time>2026-04-30T09:30:06.08Z</time></trkpt><trkpt lat="41.341119" lon="2.2587479"><ele>0.0</ele><time>2026-04-30T09:30:08.08Z</time></trkpt><trkpt lat="41.3411551" lon="2.2588517"><ele>0.0</ele><time>2026-04-30T09:30:09.08Z</time></trkpt><trkpt lat="41.3411917" lon="2.2589552"><ele>0.0</ele><time>2026-04-30T09:30:10.08Z</time></trkpt><trkpt lat="41.3412271" lon="2.259054"><ele>0.0</ele><time>2026-04-30T09:30:11.081Z</time></trkpt><trkpt lat="41.3412604" lon="2.2591531"><ele>0.0</ele><time>2026-04-30T09:30:12.081Z</time></trkpt><trkpt lat="41.3412984" lon="2.2592569"><ele>0.0</ele><time>2026-04-30T09:30:13.08Z</time></trkpt><trkpt lat="41.3413317" lon="2.2593602"><ele>0.0</ele><time>2026-04-30T09:30:14.081Z</time></trkpt><trkpt lat="41.3413681" lon="2.2594666"><ele>0.0</ele><time>2026-04-30T09:30:15.081Z</time></trkpt><trkpt lat="41.3414002" lon="2.2595659"><ele>0.0</ele><time>2026-04-30T09:30:16.08Z</time></trkpt><trkpt lat="41.3414351" lon="2.2596669"><ele>0.0</ele><time>2026-04-30T09:30:17.081Z</time></trkpt><trkpt lat="41.3414787" lon="2.2597639"><ele>0.0</ele><time>2026-04-30T09:30:18.081Z</time></trkpt><trkpt lat="41.3415194" lon="2.2598709"><ele>0.0</ele><time>2026-04-30T09:30:19.08Z</time></trkpt><trkpt lat="41.3415602" lon="2.2599702"><ele>0.0</ele><time>2026-04-30T09:30:20.08Z</time></trkpt><trkpt lat="41.3415975" lon="2.2600729"><ele>0.0</ele><time>2026-04-30T09:30:21.08Z</time></trkpt><trkpt lat="41.341635" lon="2.2601778"><ele>0.0</ele><time>2026-04-30T09:30:22.08Z</time></trkpt><trkpt lat="41.3416733" lon="2.2602825"><ele>0.0</ele><time>2026-04-30T09:30:23.08Z</time></trkpt><trkpt lat="41.3417098" lon="2.2603882"><ele>0.0</ele><time>2026-04-30T09:30:24.081Z</time></trkpt><trkpt lat="41.3417463" lon="2.2604918"><ele>0.0</ele><time>2026-04-30T09:30:25.08Z</time></trkpt><trkpt lat="41.3417828" lon="2.2605941"><ele>0.0</ele><time>2026-04-30T09:30:26.081Z</time></trkpt><trkpt lat="41.3418224" lon="2.2606955"><ele>0.0</ele><time>2026-04-30T09:30:27.081Z</time></trkpt><trkpt lat="41.3419048" lon="2.2608938"><ele>0.0</ele><time>2026-04-30T09:30:29.08Z</time></trkpt><trkpt lat="41.3419394" lon="2.2609936"><ele>0.0</ele><time>2026-04-30T09:30:30.081Z</time></trkpt><trkpt lat="41.3419756" lon="2.2610968"><ele>0.0</ele><time>2026-04-30T09:30:31.081Z</time></trkpt><trkpt lat="41.3420136" lon="2.2611986"><ele>0.0</ele><time>2026-04-30T09:30:32.08Z</time></trkpt><trkpt lat="41.3420502" lon="2.2613015"><ele>0.0</ele><time>2026-04-30T09:30:33.08Z</time></trkpt><trkpt lat="41.3420882" lon="2.2614062"><ele>0.0</ele><time>2026-04-30T09:30:34.08Z</time></trkpt><trkpt lat="41.3421249" lon="2.2615155"><ele>0.0</ele><time>2026-04-30T09:30:35.08Z</time></trkpt><trkpt lat="41.3421553" lon="2.2616215"><ele>0.0</ele><time>2026-04-30T09:30:36.081Z</time></trkpt><trkpt lat="41.3421883" lon="2.2617251"><ele>0.0</ele><time>2026-04-30T09:30:37.081Z</time></trkpt><trkpt lat="41.3422186" lon="2.2618272"><ele>0.0</ele><time>2026-04-30T09:30:38.08Z</time></trkpt><trkpt lat="41.3422562" lon="2.2619345"><ele>0.0</ele><time>2026-04-30T09:30:39.08Z</time></trkpt><trkpt lat="41.3422978" lon="2.2620437"><ele>0.0</ele><time>2026-04-30T09:30:40.08Z</time></trkpt><trkpt lat="41.3423399" lon="2.2621476"><ele>0.0</ele><time>2026-04-30T09:30:41.081Z</time></trkpt><trkpt lat="41.3423783" lon="2.2622512"><ele>0.0</ele><time>2026-04-30T09:30:42.08Z</time></trkpt><trkpt lat="41.3424183" lon="2.2623504"><ele>0.0</ele><time>2026-04-30T09:30:43.081Z</time></trkpt><trkpt lat="41.3424552" lon="2.2624562"><ele>0.0</ele><time>2026-04-30T09:30:44.081Z</time></trkpt><trkpt lat="41.3424918" lon="2.2625618"><ele>0.0</ele><time>2026-04-30T09:30:45.08Z</time></trkpt><trkpt lat="41.3425267" lon="2.2626694"><ele>0.0</ele><time>2026-04-30T09:30:46.081Z</time></trkpt><trkpt lat="41.3425615" lon="2.2627751"><ele>0.0</ele><time>2026-04-30T09:30:47.08Z</time></trkpt><trkpt lat="41.3425967" lon="2.2628801"><ele>0.0</ele><time>2026-04-30T09:30:48.081Z</time></trkpt><trkpt lat="41.3426716" lon="2.263085"><ele>0.0</ele><time>2026-04-30T09:30:50.08Z</time></trkpt><trkpt lat="41.3427068" lon="2.2631887"><ele>0.0</ele><time>2026-04-30T09:30:51.081Z</time></trkpt><trkpt lat="41.3427452" lon="2.2632904"><ele>0.0</ele><time>2026-04-30T09:30:52.081Z</time></trkpt><trkpt lat="41.3427819" lon="2.2633918"><ele>0.0</ele><time>2026-04-30T09:30:53.08Z</time></trkpt><trkpt lat="41.3428232" lon="2.2634948"><ele>0.0</ele><time>2026-04-30T09:30:54.081Z</time></trkpt><trkpt lat="41.3428617" lon="2.2635994"><ele>0.0</ele><time>2026-04-30T09:30:55.08Z</time></trkpt><trkpt lat="41.3429019" lon="2.2636983"><ele>0.0</ele><time>2026-04-30T09:30:56.08Z</time></trkpt><trkpt lat="41.3429432" lon="2.2638057"><ele>0.0</ele><time>2026-04-30T09:30:57.079Z</time></trkpt><trkpt lat="41.3429815" lon="2.2639101"><ele>0.0</ele><time>2026-04-30T09:30:58.079Z</time></trkpt><trkpt lat="41.3430199" lon="2.2640127"><ele>0.0</ele><time>2026-04-30T09:30:59.079Z</time></trkpt><trkpt lat="41.3430536" lon="2.2641183"><ele>0.0</ele><time>2026-04-30T09:31:00.079Z</time></trkpt><trkpt lat="41.3430887" lon="2.2642221"><ele>0.0</ele><time>2026-04-30T09:31:01.08Z</time></trkpt><trkpt lat="41.3431223" lon="2.2643198"><ele>0.0</ele><time>2026-04-30T09:31:02.08Z</time></trkpt><trkpt lat="41.3431555" lon="2.2644238"><ele>0.0</ele><time>2026-04-30T09:31:03.08Z</time></trkpt><trkpt lat="41.3431871" lon="2.26453"><ele>0.0</ele><time>2026-04-30T09:31:04.079Z</time></trkpt><trkpt lat="41.3432217" lon="2.2646347"><ele>0.0</ele><time>2026-04-30T09:31:05.08Z</time></trkpt><trkpt lat="41.3432578" lon="2.2647358"><ele>0.0</ele><time>2026-04-30T09:31:06.079Z</time></trkpt><trkpt lat="41.343297" lon="2.2648344"><ele>0.0</ele><time>2026-04-30T09:31:07.079Z</time></trkpt><trkpt lat="41.3433385" lon="2.2649357"><ele>0.0</ele><time>2026-04-30T09:31:08.08Z</time></trkpt><trkpt lat="41.3433771" lon="2.265036"><ele>0.0</ele><time>2026-04-30T09:31:09.08Z</time></trkpt><trkpt lat="41.3434188" lon="2.2651373"><ele>0.0</ele><time>2026-04-30T09:31:10.079Z</time></trkpt><trkpt lat="41.3434901" lon="2.2653442"><ele>0.0</ele><time>2026-04-30T09:31:12.08Z</time></trkpt><trkpt lat="41.3435206" lon="2.2654514"><ele>0.0</ele><time>2026-04-30T09:31:13.08Z</time></trkpt><trkpt lat="41.3435536" lon="2.2655578"><ele>0.0</ele><time>2026-04-30T09:31:14.079Z</time></trkpt><trkpt lat="41.3435854" lon="2.2656649"><ele>0.0</ele><time>2026-04-30T09:31:15.08Z</time></trkpt><trkpt lat="41.3436184" lon="2.2657714"><ele>0.0</ele><time>2026-04-30T09:31:16.08Z</time></trkpt><trkpt lat="41.343649" lon="2.26587"><ele>0.0</ele><time>2026-04-30T09:31:17.08Z</time></trkpt><trkpt lat="41.343682" lon="2.2659712"><ele>0.0</ele><time>2026-04-30T09:31:18.079Z</time></trkpt><trkpt lat="41.3437135" lon="2.2660757"><ele>0.0</ele><time>2026-04-30T09:31:19.079Z</time></trkpt><trkpt lat="41.3437449" lon="2.2661804"><ele>0.0</ele><time>2026-04-30T09:31:20.079Z</time></trkpt><trkpt lat="41.343777" lon="2.2662851"><ele>0.0</ele><time>2026-04-30T09:31:21.079Z</time></trkpt><trkpt lat="41.34381" lon="2.2663905"><ele>0.0</ele><time>2026-04-30T09:31:22.079Z</time></trkpt><trkpt lat="41.3438436" lon="2.2664895"><ele>0.0</ele><time>2026-04-30T09:31:23.079Z</time></trkpt><trkpt lat="41.3438867" lon="2.2665938"><ele>0.0</ele><time>2026-04-30T09:31:24.079Z</time></trkpt><trkpt lat="41.3439244" lon="2.2666968"><ele>0.0</ele><time>2026-04-30T09:31:25.08Z</time></trkpt><trkpt lat="41.3439688" lon="2.2668001"><ele>0.0</ele><time>2026-04-30T09:31:26.079Z</time></trkpt><trkpt lat="41.3440053" lon="2.2668991"><ele>0.0</ele><time>2026-04-30T09:31:27.079Z</time></trkpt><trkpt lat="41.3440433" lon="2.2669985"><ele>0.0</ele><time>2026-04-30T09:31:28.079Z</time></trkpt><trkpt lat="41.3440816" lon="2.2670988"><ele>0.0</ele><time>2026-04-30T09:31:29.079Z</time></trkpt><trkpt lat="41.3441185" lon="2.2671948"><ele>0.0</ele><time>2026-04-30T09:31:30.08Z</time></trkpt><trkpt lat="41.3441568" lon="2.267296"><ele>0.0</ele><time>2026-04-30T09:31:31.079Z</time></trkpt><trkpt lat="41.3442332" lon="2.2674961"><ele>0.0</ele><time>2026-04-30T09:31:33.079Z</time></trkpt><trkpt lat="41.3442813" lon="2.2675896"><ele>0.0</ele><time>2026-04-30T09:31:34.08Z</time></trkpt><trkpt lat="41.3443244" lon="2.2676928"><ele>0.0</ele><time>2026-04-30T09:31:35.079Z</time></trkpt><trkpt lat="41.3443636" lon="2.2677922"><ele>0.0</ele><time>2026-04-30T09:31:36.08Z</time></trkpt><trkpt lat="41.3444033" lon="2.2678937"><ele>0.0</ele><time>2026-04-30T09:31:37.08Z</time></trkpt><trkpt lat="41.3444418" lon="2.267998"><ele>0.0</ele><time>2026-04-30T09:31:38.08Z</time></trkpt><trkpt lat="41.3444785" lon="2.2681015"><ele>0.0</ele><time>2026-04-30T09:31:39.08Z</time></trkpt><trkpt lat="41.3445166" lon="2.2682063"><ele>0.0</ele><time>2026-04-30T09:31:40.079Z</time></trkpt><trkpt lat="41.3445519" lon="2.2683114"><ele>0.0</ele><time>2026-04-30T09:31:41.08Z</time></trkpt><trkpt lat="41.3445899" lon="2.2684191"><ele>0.0</ele><time>2026-04-30T09:31:42.08Z</time></trkpt><trkpt lat="41.344625" lon="2.2685248"><ele>0.0</ele><time>2026-04-30T09:31:43.079Z</time></trkpt><trkpt lat="41.3446603" lon="2.2686266"><ele>0.0</ele><time>2026-04-30T09:31:44.079Z</time></trkpt><trkpt lat="41.3446966" lon="2.2687304"><ele>0.0</ele><time>2026-04-30T09:31:45.08Z</time></trkpt><trkpt lat="41.3447349" lon="2.2688349"><ele>0.0</ele><time>2026-04-30T09:31:46.08Z</time></trkpt><trkpt lat="41.344773" lon="2.2689384"><ele>0.0</ele><time>2026-04-30T09:31:47.08Z</time></trkpt><trkpt lat="41.3448114" lon="2.2690446"><ele>0.0</ele><time>2026-04-30T09:31:48.08Z</time></trkpt><trkpt lat="41.3448498" lon="2.2691515"><ele>0.0</ele><time>2026-04-30T09:31:49.08Z</time></trkpt><trkpt lat="41.3448883" lon="2.2692567"><ele>0.0</ele><time>2026-04-30T09:31:50.079Z</time></trkpt><trkpt lat="41.3449233" lon="2.2693601"><ele>0.0</ele><time>2026-04-30T09:31:51.079Z</time></trkpt><trkpt lat="41.34496" lon="2.269463"><ele>0.0</ele><time>2026-04-30T09:31:52.079Z</time></trkpt><trkpt lat="41.345033" lon="2.2696609"><ele>0.0</ele><time>2026-04-30T09:31:54.08Z</time></trkpt><trkpt lat="41.3450702" lon="2.2697622"><ele>0.0</ele><time>2026-04-30T09:31:55.08Z</time></trkpt><trkpt lat="41.3451069" lon="2.2698624"><ele>0.0</ele><time>2026-04-30T09:31:56.079Z</time></trkpt><trkpt lat="41.3451489" lon="2.2699623"><ele>0.0</ele><time>2026-04-30T09:31:57.079Z</time></trkpt><trkpt lat="41.3451909" lon="2.2700635"><ele>0.0</ele><time>2026-04-30T09:31:58.079Z</time></trkpt><trkpt lat="41.345234" lon="2.270175"><ele>0.0</ele><time>2026-04-30T09:31:59.08Z</time></trkpt><trkpt lat="41.3452732" lon="2.2702837"><ele>0.0</ele><time>2026-04-30T09:32:00.08Z</time></trkpt><trkpt lat="41.3453073" lon="2.2703921"><ele>0.0</ele><time>2026-04-30T09:32:01.079Z</time></trkpt><trkpt lat="41.3453388" lon="2.2704977"><ele>0.0</ele><time>2026-04-30T09:32:02.08Z</time></trkpt><trkpt lat="41.3453839" lon="2.2706001"><ele>0.0</ele><time>2026-04-30T09:32:03.08Z</time></trkpt><trkpt lat="41.3454304" lon="2.2706976"><ele>0.0</ele><time>2026-04-30T09:32:04.08Z</time></trkpt><trkpt lat="41.3454682" lon="2.2707956"><ele>0.0</ele><time>2026-04-30T09:32:05.079Z</time></trkpt><trkpt lat="41.3455057" lon="2.2708937"><ele>0.0</ele><time>2026-04-30T09:32:06.079Z</time></trkpt><trkpt lat="41.3455396" lon="2.2709967"><ele>0.0</ele><time>2026-04-30T09:32:07.08Z</time></trkpt><trkpt lat="41.3455769" lon="2.2710968"><ele>0.0</ele><time>2026-04-30T09:32:08.08Z</time></trkpt><trkpt lat="41.3456125" lon="2.2711953"><ele>0.0</ele><time>2026-04-30T09:32:09.08Z</time></trkpt><trkpt lat="41.3456555" lon="2.2713007"><ele>0.0</ele><time>2026-04-30T09:32:10.079Z</time></trkpt><trkpt lat="41.3456948" lon="2.2714035"><ele>0.0</ele><time>2026-04-30T09:32:11.079Z</time></trkpt><trkpt lat="41.3457319" lon="2.2715061"><ele>0.0</ele><time>2026-04-30T09:32:12.08Z</time></trkpt><trkpt lat="41.3457697" lon="2.271605"><ele>0.0</ele><time>2026-04-30T09:32:13.08Z</time></trkpt><trkpt lat="41.3458099" lon="2.2717097"><ele>0.0</ele><time>2026-04-30T09:32:14.08Z</time></trkpt><trkpt lat="41.34591" lon="2.2720326"><ele>0.0</ele><time>2026-04-30T09:32:17.079Z</time></trkpt><trkpt lat="41.3459472" lon="2.2721339"><ele>0.0</ele><time>2026-04-30T09:32:18.08Z</time></trkpt><trkpt lat="41.3459848" lon="2.2722412"><ele>0.0</ele><time>2026-04-30T09:32:19.08Z</time></trkpt><trkpt lat="41.3460203" lon="2.2723481"><ele>0.0</ele><time>2026-04-30T09:32:20.079Z</time></trkpt><trkpt lat="41.3460602" lon="2.2724558"><ele>0.0</ele><time>2026-04-30T09:32:21.08Z</time></trkpt><trkpt lat="41.3460984" lon="2.2725672"><ele>0.0</ele><time>2026-04-30T09:32:22.079Z</time></trkpt><trkpt lat="41.3461307" lon="2.27267"><ele>0.0</ele><time>2026-04-30T09:32:23.08Z</time></trkpt><trkpt lat="41.3461653" lon="2.2727746"><ele>0.0</ele><time>2026-04-30T09:32:24.079Z</time></trkpt><trkpt lat="41.3461991" lon="2.2728723"><ele>0.0</ele><time>2026-04-30T09:32:25.08Z</time></trkpt><trkpt lat="41.3462353" lon="2.2729751"><ele>0.0</ele><time>2026-04-30T09:32:26.08Z</time></trkpt><trkpt lat="41.3462691" lon="2.2730798"><ele>0.0</ele><time>2026-04-30T09:32:27.079Z</time></trkpt><trkpt lat="41.346307" lon="2.2731862"><ele>0.0</ele><time>2026-04-30T09:32:28.08Z</time></trkpt><trkpt lat="41.3463386" lon="2.2732873"><ele>0.0</ele><time>2026-04-30T09:32:29.08Z</time></trkpt><trkpt lat="41.3463706" lon="2.2733855"><ele>0.0</ele><time>2026-04-30T09:32:30.079Z</time></trkpt><trkpt lat="41.3463996" lon="2.2734998"><ele>0.0</ele><time>2026-04-30T09:32:31.08Z</time></trkpt><trkpt lat="41.346429" lon="2.273599"><ele>0.0</ele><time>2026-04-30T09:32:32.08Z</time></trkpt><trkpt lat="41.346465" lon="2.2737061"><ele>0.0</ele><time>2026-04-30T09:32:33.08Z</time></trkpt><trkpt lat="41.3465032" lon="2.2738112"><ele>0.0</ele><time>2026-04-30T09:32:34.08Z</time></trkpt><trkpt lat="41.3465385" lon="2.2739107"><ele>0.0</ele><time>2026-04-30T09:32:35.08Z</time></trkpt><trkpt lat="41.3465765" lon="2.2740188"><ele>0.0</ele><time>2026-04-30T09:32:36.08Z</time></trkpt><trkpt lat="41.3466502" lon="2.27423"><ele>0.0</ele><time>2026-04-30T09:32:38.08Z</time></trkpt><trkpt lat="41.3466867" lon="2.2743432"><ele>0.0</ele><time>2026-04-30T09:32:39.08Z</time></trkpt><trkpt lat="41.3467234" lon="2.2744529"><ele>0.0</ele><time>2026-04-30T09:32:40.079Z</time></trkpt><trkpt lat="41.3467513" lon="2.2745673"><ele>0.0</ele><time>2026-04-30T09:32:41.079Z</time></trkpt><trkpt lat="41.3467838" lon="2.274672"><ele>0.0</ele><time>2026-04-30T09:32:42.079Z</time></trkpt><trkpt lat="41.3468159" lon="2.2747697"><ele>0.0</ele><time>2026-04-30T09:32:43.079Z</time></trkpt><trkpt lat="41.3468476" lon="2.2748616"><ele>0.0</ele><time>2026-04-30T09:32:44.079Z</time></trkpt><trkpt lat="41.3468822" lon="2.2749621"><ele>0.0</ele><time>2026-04-30T09:32:45.079Z</time></trkpt><trkpt lat="41.3469168" lon="2.2750668"><ele>0.0</ele><time>2026-04-30T09:32:46.08Z</time></trkpt><trkpt lat="41.3469535" lon="2.2751685"><ele>0.0</ele><time>2026-04-30T09:32:47.079Z</time></trkpt><trkpt lat="41.3469975" lon="2.2752718"><ele>0.0</ele><time>2026-04-30T09:32:48.079Z</time></trkpt><trkpt lat="41.3470367" lon="2.2753722"><ele>0.0</ele><time>2026-04-30T09:32:49.08Z</time></trkpt><trkpt lat="41.3470766" lon="2.2754665"><ele>0.0</ele><time>2026-04-30T09:32:50.079Z</time></trkpt><trkpt lat="41.3471147" lon="2.2755687"><ele>0.0</ele><time>2026-04-30T09:32:51.079Z</time></trkpt><trkpt lat="41.3471513" lon="2.2756718"><ele>0.0</ele><time>2026-04-30T09:32:52.079Z</time></trkpt><trkpt lat="41.347185" lon="2.2757766"><ele>0.0</ele><time>2026-04-30T09:32:53.079Z</time></trkpt><trkpt lat="41.3472201" lon="2.2758799"><ele>0.0</ele><time>2026-04-30T09:32:54.08Z</time></trkpt><trkpt lat="41.347258" lon="2.2759832"><ele>0.0</ele><time>2026-04-30T09:32:55.079Z</time></trkpt><trkpt lat="41.3472982" lon="2.2760868"><ele>0.0</ele><time>2026-04-30T09:32:56.079Z</time></trkpt><trkpt lat="41.347345" lon="2.2761842"><ele>0.0</ele><time>2026-04-30T09:32:57.079Z</time></trkpt><trkpt lat="41.3474282" lon="2.2763844"><ele>0.0</ele><time>2026-04-30T09:32:59.08Z</time></trkpt><trkpt lat="41.3474685" lon="2.2764841"><ele>0.0</ele><time>2026-04-30T09:33:00.079Z</time></trkpt><trkpt lat="41.3475065" lon="2.2765871"><ele>0.0</ele><time>2026-04-30T09:33:01.08Z</time></trkpt><trkpt lat="41.347542" lon="2.2766931"><ele>0.0</ele><time>2026-04-30T09:33:02.079Z</time></trkpt><trkpt lat="41.3475833" lon="2.2767968"><ele>0.0</ele><time>2026-04-30T09:33:03.079Z</time></trkpt><trkpt lat="41.3476234" lon="2.2769027"><ele>0.0</ele><time>2026-04-30T09:33:04.079Z</time></trkpt><trkpt lat="41.3476604" lon="2.2770023"><ele>0.0</ele><time>2026-04-30T09:33:05.08Z</time></trkpt><trkpt lat="41.3476987" lon="2.2770999"><ele>0.0</ele><time>2026-04-30T09:33:06.079Z</time></trkpt><trkpt lat="41.3477415" lon="2.2772014"><ele>0.0</ele><time>2026-04-30T09:33:07.079Z</time></trkpt><trkpt lat="41.347783" lon="2.2773051"><ele>0.0</ele><time>2026-04-30T09:33:08.079Z</time></trkpt><trkpt lat="41.3478218" lon="2.2774095"><ele>0.0</ele><time>2026-04-30T09:33:09.079Z</time></trkpt><trkpt lat="41.3478638" lon="2.2775098"><ele>0.0</ele><time>2026-04-30T09:33:10.079Z</time></trkpt><trkpt lat="41.3479035" lon="2.2776081"><ele>0.0</ele><time>2026-04-30T09:33:11.08Z</time></trkpt><trkpt lat="41.3479421" lon="2.2777093"><ele>0.0</ele><time>2026-04-30T09:33:12.08Z</time></trkpt><trkpt lat="41.3479772" lon="2.2778126"><ele>0.0</ele><time>2026-04-30T09:33:13.079Z</time></trkpt><trkpt lat="41.3480136" lon="2.277918"><ele>0.0</ele><time>2026-04-30T09:33:14.08Z</time></trkpt><trkpt lat="41.3480489" lon="2.2780204"><ele>0.0</ele><time>2026-04-30T09:33:15.079Z</time></trkpt><trkpt lat="41.348087" lon="2.2781249"><ele>0.0</ele><time>2026-04-30T09:33:16.08Z</time></trkpt><trkpt lat="41.3481236" lon="2.2782285"><ele>0.0</ele><time>2026-04-30T09:33:17.079Z</time></trkpt><trkpt lat="41.3481603" lon="2.2783333"><ele>0.0</ele><time>2026-04-30T09:33:18.079Z</time></trkpt><trkpt lat="41.3482335" lon="2.2785443"><ele>0.0</ele><time>2026-04-30T09:33:20.08Z</time></trkpt><trkpt lat="41.3482702" lon="2.2786495"><ele>0.0</ele><time>2026-04-30T09:33:21.079Z</time></trkpt><trkpt lat="41.3483056" lon="2.2787535"><ele>0.0</ele><time>2026-04-30T09:33:22.079Z</time></trkpt><trkpt lat="41.34834" lon="2.2788552"><ele>0.0</ele><time>2026-04-30T09:33:23.079Z</time></trkpt><trkpt lat="41.3483766" lon="2.2789583"><ele>0.0</ele><time>2026-04-30T09:33:24.079Z</time></trkpt><trkpt lat="41.348409" lon="2.2790618"><ele>0.0</ele><time>2026-04-30T09:33:25.079Z</time></trkpt><trkpt lat="41.3484432" lon="2.2791681"><ele>0.0</ele><time>2026-04-30T09:33:26.079Z</time></trkpt><trkpt lat="41.3484772" lon="2.2792734"><ele>0.0</ele><time>2026-04-30T09:33:27.079Z</time></trkpt><trkpt lat="41.3485104" lon="2.2793799"><ele>0.0</ele><time>2026-04-30T09:33:28.079Z</time></trkpt><trkpt lat="41.3485453" lon="2.279482"><ele>0.0</ele><time>2026-04-30T09:33:29.079Z</time></trkpt><trkpt lat="41.3485805" lon="2.279585"><ele>0.0</ele><time>2026-04-30T09:33:30.08Z</time></trkpt><trkpt lat="41.34862" lon="2.279685"><ele>0.0</ele><time>2026-04-30T09:33:31.08Z</time></trkpt><trkpt lat="41.348657" lon="2.279788"><ele>0.0</ele><time>2026-04-30T09:33:32.079Z</time></trkpt><trkpt lat="41.3486934" lon="2.2798913"><ele>0.0</ele><time>2026-04-30T09:33:33.08Z</time></trkpt><trkpt lat="41.3487265" lon="2.2800055"><ele>0.0</ele><time>2026-04-30T09:33:34.079Z</time></trkpt><trkpt lat="41.3487653" lon="2.280108"><ele>0.0</ele><time>2026-04-30T09:33:35.08Z</time></trkpt><trkpt lat="41.3488052" lon="2.2802095"><ele>0.0</ele><time>2026-04-30T09:33:36.079Z</time></trkpt><trkpt lat="41.3488453" lon="2.2803127"><ele>0.0</ele><time>2026-04-30T09:33:37.079Z</time></trkpt><trkpt lat="41.3488809" lon="2.2804218"><ele>0.0</ele><time>2026-04-30T09:33:38.08Z</time></trkpt><trkpt lat="41.3489146" lon="2.2805289"><ele>0.0</ele><time>2026-04-30T09:33:39.08Z</time></trkpt><trkpt lat="41.3489566" lon="2.2806348"><ele>0.0</ele><time>2026-04-30T09:33:40.079Z</time></trkpt><trkpt lat="41.3490448" lon="2.2808384"><ele>0.0</ele><time>2026-04-30T09:33:42.08Z</time></trkpt><trkpt lat="41.3490894" lon="2.2809403"><ele>0.0</ele><time>2026-04-30T09:33:43.08Z</time></trkpt><trkpt lat="41.3491314" lon="2.2810381"><ele>0.0</ele><time>2026-04-30T09:33:44.08Z</time></trkpt><trkpt lat="41.3491687" lon="2.281136"><ele>0.0</ele><time>2026-04-30T09:33:45.08Z</time></trkpt><trkpt lat="41.3492099" lon="2.2812355"><ele>0.0</ele><time>2026-04-30T09:33:46.079Z</time></trkpt><trkpt lat="41.3492416" lon="2.2813374"><ele>0.0</ele><time>2026-04-30T09:33:47.08Z</time></trkpt><trkpt lat="41.3492756" lon="2.281439"><ele>0.0</ele><time>2026-04-30T09:33:48.079Z</time></trkpt><trkpt lat="41.3493189" lon="2.2815417"><ele>0.0</ele><time>2026-04-30T09:33:49.079Z</time></trkpt><trkpt lat="41.3493634" lon="2.2816454"><ele>0.0</ele><time>2026-04-30T09:33:50.079Z</time></trkpt><trkpt lat="41.3494003" lon="2.2817552"><ele>0.0</ele><time>2026-04-30T09:33:51.079Z</time></trkpt><trkpt lat="41.3494429" lon="2.2818595"><ele>0.0</ele><time>2026-04-30T09:33:52.08Z</time></trkpt><trkpt lat="41.3494837" lon="2.2819662"><ele>0.0</ele><time>2026-04-30T09:33:53.079Z</time></trkpt><trkpt lat="41.3495219" lon="2.2820684"><ele>0.0</ele><time>2026-04-30T09:33:54.079Z</time></trkpt><trkpt lat="41.3495613" lon="2.2821715"><ele>0.0</ele><time>2026-04-30T09:33:55.079Z</time></trkpt><trkpt lat="41.3495958" lon="2.2822774"><ele>0.0</ele><time>2026-04-30T09:33:56.08Z</time></trkpt><trkpt lat="41.3496265" lon="2.2823756"><ele>0.0</ele><time>2026-04-30T09:33:57.079Z</time></trkpt><trkpt lat="41.349658" lon="2.2824773"><ele>0.0</ele><time>2026-04-30T09:33:58.08Z</time></trkpt><trkpt lat="41.3496893" lon="2.2825754"><ele>0.0</ele><time>2026-04-30T09:33:59.08Z</time></trkpt><trkpt lat="41.3497267" lon="2.2826783"><ele>0.0</ele><time>2026-04-30T09:34:00.079Z</time></trkpt><trkpt lat="41.3497607" lon="2.2827802"><ele>0.0</ele><time>2026-04-30T09:34:01.079Z</time></trkpt><trkpt lat="41.3498352" lon="2.2829927"><ele>0.0</ele><time>2026-04-30T09:34:03.08Z</time></trkpt><trkpt lat="41.3498732" lon="2.283105"><ele>0.0</ele><time>2026-04-30T09:34:04.079Z</time></trkpt><trkpt lat="41.3499146" lon="2.2832081"><ele>0.0</ele><time>2026-04-30T09:34:05.08Z</time></trkpt><trkpt lat="41.349952" lon="2.2833115"><ele>0.0</ele><time>2026-04-30T09:34:06.08Z</time></trkpt><trkpt lat="41.3500081" lon="2.2834065"><ele>0.0</ele><time>2026-04-30T09:34:07.079Z</time></trkpt><trkpt lat="41.3500453" lon="2.2835098"><ele>0.0</ele><time>2026-04-30T09:34:08.08Z</time></trkpt><trkpt lat="41.3500804" lon="2.283618"><ele>0.0</ele><time>2026-04-30T09:34:09.079Z</time></trkpt><trkpt lat="41.3501154" lon="2.2837235"><ele>0.0</ele><time>2026-04-30T09:34:10.079Z</time></trkpt><trkpt lat="41.3501473" lon="2.2838242"><ele>0.0</ele><time>2026-04-30T09:34:11.08Z</time></trkpt><trkpt lat="41.3501816" lon="2.2839285"><ele>0.0</ele><time>2026-04-30T09:34:12.079Z</time></trkpt><trkpt lat="41.3502106" lon="2.2840407"><ele>0.0</ele><time>2026-04-30T09:34:13.08Z</time></trkpt><trkpt lat="41.3502446" lon="2.28415"><ele>0.0</ele><time>2026-04-30T09:34:14.08Z</time></trkpt><trkpt lat="41.3502811" lon="2.2842508"><ele>0.0</ele><time>2026-04-30T09:34:15.079Z</time></trkpt><trkpt lat="41.3503196" lon="2.2843564"><ele>0.0</ele><time>2026-04-30T09:34:16.08Z</time></trkpt><trkpt lat="41.3503498" lon="2.2844617"><ele>0.0</ele><time>2026-04-30T09:34:17.08Z</time></trkpt><trkpt lat="41.3503804" lon="2.2845683"><ele>0.0</ele><time>2026-04-30T09:34:18.079Z</time></trkpt><trkpt lat="41.3504125" lon="2.2846732"><ele>0.0</ele><time>2026-04-30T09:34:19.08Z</time></trkpt><trkpt lat="41.3504469" lon="2.2847784"><ele>0.0</ele><time>2026-04-30T09:34:20.079Z</time></trkpt><trkpt lat="41.350485" lon="2.2848817"><ele>0.0</ele><time>2026-04-30T09:34:21.08Z</time></trkpt><trkpt lat="41.3505222" lon="2.2849817"><ele>0.0</ele><time>2026-04-30T09:34:22.08Z</time></trkpt><trkpt lat="41.3505984" lon="2.2851899"><ele>0.0</ele><time>2026-04-30T09:34:24.08Z</time></trkpt><trkpt lat="41.3506368" lon="2.2852917"><ele>0.0</ele><time>2026-04-30T09:34:25.079Z</time></trkpt><trkpt lat="41.3506753" lon="2.2853933"><ele>0.0</ele><time>2026-04-30T09:34:26.079Z</time></trkpt><trkpt lat="41.3507102" lon="2.2854985"><ele>0.0</ele><time>2026-04-30T09:34:27.079Z</time></trkpt><trkpt lat="41.3507453" lon="2.2856021"><ele>0.0</ele><time>2026-04-30T09:34:28.08Z</time></trkpt><trkpt lat="41.3507759" lon="2.2857126"><ele>0.0</ele><time>2026-04-30T09:34:29.08Z</time></trkpt><trkpt lat="41.3508062" lon="2.2858233"><ele>0.0</ele><time>2026-04-30T09:34:30.079Z</time></trkpt><trkpt lat="41.3508461" lon="2.2859275"><ele>0.0</ele><time>2026-04-30T09:34:31.079Z</time></trkpt><trkpt lat="41.3508847" lon="2.2860334"><ele>0.0</ele><time>2026-04-30T09:34:32.08Z</time></trkpt><trkpt lat="41.3509231" lon="2.2861357"><ele>0.0</ele><time>2026-04-30T09:34:33.079Z</time></trkpt><trkpt lat="41.3509641" lon="2.2862371"><ele>0.0</ele><time>2026-04-30T09:34:34.08Z</time></trkpt><trkpt lat="41.3510031" lon="2.2863428"><ele>0.0</ele><time>2026-04-30T09:34:35.08Z</time></trkpt><trkpt lat="41.351042" lon="2.286445"><ele>0.0</ele><time>2026-04-30T09:34:36.079Z</time></trkpt><trkpt lat="41.3510816" lon="2.2865454"><ele>0.0</ele><time>2026-04-30T09:34:37.079Z</time></trkpt><trkpt lat="41.3511233" lon="2.2866452"><ele>0.0</ele><time>2026-04-30T09:34:38.08Z</time></trkpt><trkpt lat="41.3511647" lon="2.2867455"><ele>0.0</ele><time>2026-04-30T09:34:39.079Z</time></trkpt><trkpt lat="41.3512063" lon="2.2868563"><ele>0.0</ele><time>2026-04-30T09:34:40.079Z</time></trkpt><trkpt lat="41.3512463" lon="2.2869613"><ele>0.0</ele><time>2026-04-30T09:34:41.079Z</time></trkpt><trkpt lat="41.3512898" lon="2.287062"><ele>0.0</ele><time>2026-04-30T09:34:42.079Z</time></trkpt><trkpt lat="41.3513346" lon="2.2871579"><ele>0.0</ele><time>2026-04-30T09:34:43.08Z</time></trkpt><trkpt lat="41.351417" lon="2.2873487"><ele>0.0</ele><time>2026-04-30T09:34:45.079Z</time></trkpt><trkpt lat="41.3514624" lon="2.2874542"><ele>0.0</ele><time>2026-04-30T09:34:46.079Z</time></trkpt><trkpt lat="41.3515005" lon="2.2875652"><ele>0.0</ele><time>2026-04-30T09:34:47.08Z</time></trkpt><trkpt lat="41.3515455" lon="2.2876631"><ele>0.0</ele><time>2026-04-30T09:34:48.08Z</time></trkpt><trkpt lat="41.3515877" lon="2.2877649"><ele>0.0</ele><time>2026-04-30T09:34:49.08Z</time></trkpt><trkpt lat="41.3516318" lon="2.2878696"><ele>0.0</ele><time>2026-04-30T09:34:50.08Z</time></trkpt><trkpt lat="41.3516745" lon="2.2879672"><ele>0.0</ele><time>2026-04-30T09:34:51.079Z</time></trkpt><trkpt lat="41.3517176" lon="2.2880685"><ele>0.0</ele><time>2026-04-30T09:34:52.079Z</time></trkpt><trkpt lat="41.3517558" lon="2.2881752"><ele>0.0</ele><time>2026-04-30T09:34:53.08Z</time></trkpt><trkpt lat="41.3517936" lon="2.2882824"><ele>0.0</ele><time>2026-04-30T09:34:54.079Z</time></trkpt><trkpt lat="41.3518352" lon="2.2883864"><ele>0.0</ele><time>2026-04-30T09:34:55.08Z</time></trkpt><trkpt lat="41.3518784" lon="2.2884897"><ele>0.0</ele><time>2026-04-30T09:34:56.079Z</time></trkpt><trkpt lat="41.3519173" lon="2.2885901"><ele>0.0</ele><time>2026-04-30T09:34:57.079Z</time></trkpt><trkpt lat="41.3519495" lon="2.2886973"><ele>0.0</ele><time>2026-04-30T09:34:58.08Z</time></trkpt><trkpt lat="41.351981" lon="2.2888032"><ele>0.0</ele><time>2026-04-30T09:34:59.079Z</time></trkpt><trkpt lat="41.3520155" lon="2.2889065"><ele>0.0</ele><time>2026-04-30T09:35:00.08Z</time></trkpt><trkpt lat="41.352052" lon="2.2890116"><ele>0.0</ele><time>2026-04-30T09:35:01.08Z</time></trkpt><trkpt lat="41.35209" lon="2.2891164"><ele>0.0</ele><time>2026-04-30T09:35:02.079Z</time></trkpt><trkpt lat="41.3521268" lon="2.2892218"><ele>0.0</ele><time>2026-04-30T09:35:03.079Z</time></trkpt><trkpt lat="41.3522002" lon="2.2894278"><ele>0.0</ele><time>2026-04-30T09:35:05.08Z</time></trkpt><trkpt lat="41.3522386" lon="2.2895314"><ele>0.0</ele><time>2026-04-30T09:35:06.079Z</time></trkpt><trkpt lat="41.3522768" lon="2.2896394"><ele>0.0</ele><time>2026-04-30T09:35:07.079Z</time></trkpt><trkpt lat="41.3523148" lon="2.2897477"><ele>0.0</ele><time>2026-04-30T09:35:08.08Z</time></trkpt><trkpt lat="41.3523463" lon="2.289859"><ele>0.0</ele><time>2026-04-30T09:35:09.079Z</time></trkpt><trkpt lat="41.3523848" lon="2.2899651"><ele>0.0</ele><time>2026-04-30T09:35:10.079Z</time></trkpt><trkpt lat="41.3524221" lon="2.2900712"><ele>0.0</ele><time>2026-04-30T09:35:11.08Z</time></trkpt><trkpt lat="41.3524631" lon="2.2901794"><ele>0.0</ele><time>2026-04-30T09:35:12.079Z</time></trkpt><trkpt lat="41.352502" lon="2.2902864"><ele>0.0</ele><time>2026-04-30T09:35:13.08Z</time></trkpt><trkpt lat="41.3525431" lon="2.2903888"><ele>0.0</ele><time>2026-04-30T09:35:14.08Z</time></trkpt><trkpt lat="41.3525848" lon="2.2904874"><ele>0.0</ele><time>2026-04-30T09:35:15.08Z</time></trkpt><trkpt lat="41.3526237" lon="2.2905872"><ele>0.0</ele><time>2026-04-30T09:35:16.08Z</time></trkpt><trkpt lat="41.3526635" lon="2.2906884"><ele>0.0</ele><time>2026-04-30T09:35:17.08Z</time></trkpt><trkpt lat="41.3527006" lon="2.2907927"><ele>0.0</ele><time>2026-04-30T09:35:18.079Z</time></trkpt><trkpt lat="41.3527384" lon="2.290901"><ele>0.0</ele><time>2026-04-30T09:35:19.08Z</time></trkpt><trkpt lat="41.3527769" lon="2.2910007"><ele>0.0</ele><time>2026-04-30T09:35:20.08Z</time></trkpt><trkpt lat="41.3528095" lon="2.2911047"><ele>0.0</ele><time>2026-04-30T09:35:21.079Z</time></trkpt><trkpt lat="41.3528427" lon="2.2912099"><ele>0.0</ele><time>2026-04-30T09:35:22.08Z</time></trkpt><trkpt lat="41.3528763" lon="2.2913147"><ele>0.0</ele><time>2026-04-30T09:35:23.079Z</time></trkpt><trkpt lat="41.3529155" lon="2.2914199"><ele>0.0</ele><time>2026-04-30T09:35:24.079Z</time></trkpt><trkpt lat="41.3529939" lon="2.2916292"><ele>0.0</ele><time>2026-04-30T09:35:26.079Z</time></trkpt><trkpt lat="41.3530282" lon="2.2917359"><ele>0.0</ele><time>2026-04-30T09:35:27.079Z</time></trkpt><trkpt lat="41.3530656" lon="2.2918425"><ele>0.0</ele><time>2026-04-30T09:35:28.078Z</time></trkpt><trkpt lat="41.353105" lon="2.2919493"><ele>0.0</ele><time>2026-04-30T09:35:29.078Z</time></trkpt><trkpt lat="41.3531454" lon="2.2920546"><ele>0.0</ele><time>2026-04-30T09:35:30.079Z</time></trkpt><trkpt lat="41.3531811" lon="2.2921598"><ele>0.0</ele><time>2026-04-30T09:35:31.079Z</time></trkpt><trkpt lat="41.3532172" lon="2.2922694"><ele>0.0</ele><time>2026-04-30T09:35:32.078Z</time></trkpt><trkpt lat="41.3532533" lon="2.2923705"><ele>0.0</ele><time>2026-04-30T09:35:33.078Z</time></trkpt><trkpt lat="41.3532901" lon="2.2924747"><ele>0.0</ele><time>2026-04-30T09:35:34.079Z</time></trkpt><trkpt lat="41.3533299" lon="2.2925767"><ele>0.0</ele><time>2026-04-30T09:35:35.078Z</time></trkpt><trkpt lat="41.3533714" lon="2.292683"><ele>0.0</ele><time>2026-04-30T09:35:36.078Z</time></trkpt><trkpt lat="41.3534158" lon="2.2927831"><ele>0.0</ele><time>2026-04-30T09:35:37.079Z</time></trkpt><trkpt lat="41.3534524" lon="2.292887"><ele>0.0</ele><time>2026-04-30T09:35:38.078Z</time></trkpt><trkpt lat="41.3534904" lon="2.2929918"><ele>0.0</ele><time>2026-04-30T09:35:39.078Z</time></trkpt><trkpt lat="41.3535299" lon="2.2931024"><ele>0.0</ele><time>2026-04-30T09:35:40.078Z</time></trkpt><trkpt lat="41.3535654" lon="2.293208"><ele>0.0</ele><time>2026-04-30T09:35:41.078Z</time></trkpt><trkpt lat="41.3536019" lon="2.2933079"><ele>0.0</ele><time>2026-04-30T09:35:42.079Z</time></trkpt><trkpt lat="41.3536356" lon="2.2934035"><ele>0.0</ele><time>2026-04-30T09:35:43.078Z</time></trkpt><trkpt lat="41.3536775" lon="2.2935052"><ele>0.0</ele><time>2026-04-30T09:35:44.078Z</time></trkpt><trkpt lat="41.3537556" lon="2.2937228"><ele>0.0</ele><time>2026-04-30T09:35:46.079Z</time></trkpt><trkpt lat="41.3537906" lon="2.2938309"><ele>0.0</ele><time>2026-04-30T09:35:47.078Z</time></trkpt><trkpt lat="41.3538273" lon="2.2939366"><ele>0.0</ele><time>2026-04-30T09:35:48.078Z</time></trkpt><trkpt lat="41.3538634" lon="2.2940401"><ele>0.0</ele><time>2026-04-30T09:35:49.079Z</time></trkpt><trkpt lat="41.3539003" lon="2.294145"><ele>0.0</ele><time>2026-04-30T09:35:50.078Z</time></trkpt><trkpt lat="41.3539343" lon="2.2942498"><ele>0.0</ele><time>2026-04-30T09:35:51.079Z</time></trkpt><trkpt lat="41.3539703" lon="2.2943531"><ele>0.0</ele><time>2026-04-30T09:35:52.079Z</time></trkpt><trkpt lat="41.3540055" lon="2.2944595"><ele>0.0</ele><time>2026-04-30T09:35:53.078Z</time></trkpt><trkpt lat="41.3540405" lon="2.2945688"><ele>0.0</ele><time>2026-04-30T09:35:54.079Z</time></trkpt><trkpt lat="41.3540798" lon="2.2946741"><ele>0.0</ele><time>2026-04-30T09:35:55.078Z</time></trkpt><trkpt lat="41.3541172" lon="2.2947854"><ele>0.0</ele><time>2026-04-30T09:35:56.079Z</time></trkpt><trkpt lat="41.354158" lon="2.2948925"><ele>0.0</ele><time>2026-04-30T09:35:57.078Z</time></trkpt><trkpt lat="41.3541912" lon="2.2949995"><ele>0.0</ele><time>2026-04-30T09:35:58.078Z</time></trkpt><trkpt lat="41.3542316" lon="2.2951063"><ele>0.0</ele><time>2026-04-30T09:35:59.078Z</time></trkpt><trkpt lat="41.3542702" lon="2.2952102"><ele>0.0</ele><time>2026-04-30T09:36:00.078Z</time></trkpt><trkpt lat="41.3543093" lon="2.2953136"><ele>0.0</ele><time>2026-04-30T09:36:01.079Z</time></trkpt><trkpt lat="41.3543425" lon="2.2954195"><ele>0.0</ele><time>2026-04-30T09:36:02.079Z</time></trkpt><trkpt lat="41.3543843" lon="2.295522"><ele>0.0</ele><time>2026-04-30T09:36:03.079Z</time></trkpt><trkpt lat="41.3544232" lon="2.2956267"><ele>0.0</ele><time>2026-04-30T09:36:04.079Z</time></trkpt><trkpt lat="41.3544618" lon="2.2957277"><ele>0.0</ele><time>2026-04-30T09:36:05.079Z</time></trkpt><trkpt lat="41.3545569" lon="2.2959197"><ele>0.0</ele><time>2026-04-30T09:36:07.079Z</time></trkpt><trkpt lat="41.3545965" lon="2.2960194"><ele>0.0</ele><time>2026-04-30T09:36:08.078Z</time></trkpt><trkpt lat="41.3546332" lon="2.2961232"><ele>0.0</ele><time>2026-04-30T09:36:09.079Z</time></trkpt><trkpt lat="41.3546847" lon="2.2962222"><ele>0.0</ele><time>2026-04-30T09:36:10.079Z</time></trkpt><trkpt lat="41.3547292" lon="2.2963324"><ele>0.0</ele><time>2026-04-30T09:36:11.078Z</time></trkpt><trkpt lat="41.3547685" lon="2.2964411"><ele>0.0</ele><time>2026-04-30T09:36:12.079Z</time></trkpt><trkpt lat="41.3548096" lon="2.2965447"><ele>0.0</ele><time>2026-04-30T09:36:13.078Z</time></trkpt><trkpt lat="41.3548478" lon="2.2966509"><ele>0.0</ele><time>2026-04-30T09:36:14.078Z</time></trkpt><trkpt lat="41.3548826" lon="2.2967534"><ele>0.0</ele><time>2026-04-30T09:36:15.078Z</time></trkpt><trkpt lat="41.3549198" lon="2.2968624"><ele>0.0</ele><time>2026-04-30T09:36:16.078Z</time></trkpt><trkpt lat="41.3549582" lon="2.2969693"><ele>0.0</ele><time>2026-04-30T09:36:17.079Z</time></trkpt><trkpt lat="41.3549908" lon="2.2970819"><ele>0.0</ele><time>2026-04-30T09:36:18.078Z</time></trkpt><trkpt lat="41.3550256" lon="2.2971866"><ele>0.0</ele><time>2026-04-30T09:36:19.079Z</time></trkpt><trkpt lat="41.3550608" lon="2.2972858"><ele>0.0</ele><time>2026-04-30T09:36:20.078Z</time></trkpt><trkpt lat="41.3551013" lon="2.2973843"><ele>0.0</ele><time>2026-04-30T09:36:21.079Z</time></trkpt><trkpt lat="41.355147" lon="2.2974872"><ele>0.0</ele><time>2026-04-30T09:36:22.078Z</time></trkpt><trkpt lat="41.355188" lon="2.297592"><ele>0.0</ele><time>2026-04-30T09:36:23.078Z</time></trkpt><trkpt lat="41.3552252" lon="2.2976952"><ele>0.0</ele><time>2026-04-30T09:36:24.078Z</time></trkpt><trkpt lat="41.3552609" lon="2.2977939"><ele>0.0</ele><time>2026-04-30T09:36:25.079Z</time></trkpt><trkpt lat="41.3552947" lon="2.2979023"><ele>0.0</ele><time>2026-04-30T09:36:26.079Z</time></trkpt><trkpt lat="41.3553679" lon="2.2981274"><ele>0.0</ele><time>2026-04-30T09:36:28.079Z</time></trkpt><trkpt lat="41.3554078" lon="2.2982291"><ele>0.0</ele><time>2026-04-30T09:36:29.079Z</time></trkpt><trkpt lat="41.3554522" lon="2.2983349"><ele>0.0</ele><time>2026-04-30T09:36:30.078Z</time></trkpt><trkpt lat="41.3555362" lon="2.2985417"><ele>0.0</ele><time>2026-04-30T09:36:32.079Z</time></trkpt><trkpt lat="41.3555722" lon="2.2986434"><ele>0.0</ele><time>2026-04-30T09:36:33.078Z</time></trkpt><trkpt lat="41.355606" lon="2.2987437"><ele>0.0</ele><time>2026-04-30T09:36:34.079Z</time></trkpt><trkpt lat="41.3556492" lon="2.2988437"><ele>0.0</ele><time>2026-04-30T09:36:35.078Z</time></trkpt><trkpt lat="41.3556966" lon="2.2989439"><ele>0.0</ele><time>2026-04-30T09:36:36.079Z</time></trkpt><trkpt lat="41.3557323" lon="2.299048"><ele>0.0</ele><time>2026-04-30T09:36:37.078Z</time></trkpt><trkpt lat="41.355779" lon="2.2991516"><ele>0.0</ele><time>2026-04-30T09:36:38.079Z</time></trkpt><trkpt lat="41.3558087" lon="2.2992618"><ele>0.0</ele><time>2026-04-30T09:36:39.078Z</time></trkpt><trkpt lat="41.3558443" lon="2.2993707"><ele>0.0</ele><time>2026-04-30T09:36:40.078Z</time></trkpt><trkpt lat="41.355882" lon="2.2994705"><ele>0.0</ele><time>2026-04-30T09:36:41.079Z</time></trkpt><trkpt lat="41.355933" lon="2.2995652"><ele>0.0</ele><time>2026-04-30T09:36:42.079Z</time></trkpt><trkpt lat="41.3559816" lon="2.2996654"><ele>0.0</ele><time>2026-04-30T09:36:43.078Z</time></trkpt><trkpt lat="41.3560301" lon="2.2997684"><ele>0.0</ele><time>2026-04-30T09:36:44.078Z</time></trkpt><trkpt lat="41.3560772" lon="2.2998661"><ele>0.0</ele><time>2026-04-30T09:36:45.079Z</time></trkpt><trkpt lat="41.3561154" lon="2.2999668"><ele>0.0</ele><time>2026-04-30T09:36:46.078Z</time></trkpt><trkpt lat="41.356154" lon="2.3000713"><ele>0.0</ele><time>2026-04-30T09:36:47.078Z</time></trkpt><trkpt lat="41.3562236" lon="2.3002877"><ele>0.0</ele><time>2026-04-30T09:36:49.079Z</time></trkpt><trkpt lat="41.3562633" lon="2.3003946"><ele>0.0</ele><time>2026-04-30T09:36:50.078Z</time></trkpt><trkpt lat="41.356307" lon="2.3005"><ele>0.0</ele><time>2026-04-30T09:36:51.079Z</time></trkpt><trkpt lat="41.3563443" lon="2.3006033"><ele>0.0</ele><time>2026-04-30T09:36:52.079Z</time></trkpt><trkpt lat="41.3563822" lon="2.3007126"><ele>0.0</ele><time>2026-04-30T09:36:53.078Z</time></trkpt><trkpt lat="41.3564176" lon="2.3008211"><ele>0.0</ele><time>2026-04-30T09:36:54.079Z</time></trkpt><trkpt lat="41.3564552" lon="2.3009237"><ele>0.0</ele><time>2026-04-30T09:36:55.078Z</time></trkpt><trkpt lat="41.3564893" lon="2.3010283"><ele>0.0</ele><time>2026-04-30T09:36:56.078Z</time></trkpt><trkpt lat="41.3565256" lon="2.3011388"><ele>0.0</ele><time>2026-04-30T09:36:57.079Z</time></trkpt><trkpt lat="41.3565566" lon="2.3012426"><ele>0.0</ele><time>2026-04-30T09:36:58.079Z</time></trkpt><trkpt lat="41.3565937" lon="2.3013423"><ele>0.0</ele><time>2026-04-30T09:36:59.079Z</time></trkpt><trkpt lat="41.356628" lon="2.3014494"><ele>0.0</ele><time>2026-04-30T09:37:00.078Z</time></trkpt><trkpt lat="41.3566627" lon="2.3015521"><ele>0.0</ele><time>2026-04-30T09:37:01.078Z</time></trkpt><trkpt lat="41.3566917" lon="2.3016538"><ele>0.0</ele><time>2026-04-30T09:37:02.079Z</time></trkpt><trkpt lat="41.3567243" lon="2.3017569"><ele>0.0</ele><time>2026-04-30T09:37:03.078Z</time></trkpt><trkpt lat="41.3567572" lon="2.301864"><ele>0.0</ele><time>2026-04-30T09:37:04.079Z</time></trkpt><trkpt lat="41.3567978" lon="2.3019697"><ele>0.0</ele><time>2026-04-30T09:37:05.078Z</time></trkpt><trkpt lat="41.3568396" lon="2.3020776"><ele>0.0</ele><time>2026-04-30T09:37:06.078Z</time></trkpt><trkpt lat="41.3568785" lon="2.302186"><ele>0.0</ele><time>2026-04-30T09:37:07.078Z</time></trkpt><trkpt lat="41.356918" lon="2.3022863"><ele>0.0</ele><time>2026-04-30T09:37:08.078Z</time></trkpt><trkpt lat="41.3569886" lon="2.3024959"><ele>0.0</ele><time>2026-04-30T09:37:10.079Z</time></trkpt><trkpt lat="41.3570281" lon="2.3026"><ele>0.0</ele><time>2026-04-30T09:37:11.079Z</time></trkpt><trkpt lat="41.3570668" lon="2.3027019"><ele>0.0</ele><time>2026-04-30T09:37:12.079Z</time></trkpt><trkpt lat="41.3570984" lon="2.3028106"><ele>0.0</ele><time>2026-04-30T09:37:13.079Z</time></trkpt><trkpt lat="41.3571283" lon="2.3029194"><ele>0.0</ele><time>2026-04-30T09:37:14.079Z</time></trkpt><trkpt lat="41.3571625" lon="2.3030263"><ele>0.0</ele><time>2026-04-30T09:37:15.079Z</time></trkpt><trkpt lat="41.3571986" lon="2.3031315"><ele>0.0</ele><time>2026-04-30T09:37:16.078Z</time></trkpt><trkpt lat="41.3572395" lon="2.3032352"><ele>0.0</ele><time>2026-04-30T09:37:17.079Z</time></trkpt><trkpt lat="41.3572782" lon="2.3033371"><ele>0.0</ele><time>2026-04-30T09:37:18.078Z</time></trkpt><trkpt lat="41.3573193" lon="2.3034398"><ele>0.0</ele><time>2026-04-30T09:37:19.078Z</time></trkpt><trkpt lat="41.3573587" lon="2.303549"><ele>0.0</ele><time>2026-04-30T09:37:20.078Z</time></trkpt><trkpt lat="41.3573994" lon="2.3036531"><ele>0.0</ele><time>2026-04-30T09:37:21.079Z</time></trkpt><trkpt lat="41.3574425" lon="2.3037556"><ele>0.0</ele><time>2026-04-30T09:37:22.078Z</time></trkpt><trkpt lat="41.3574831" lon="2.303857"><ele>0.0</ele><time>2026-04-30T09:37:23.078Z</time></trkpt><trkpt lat="41.3575176" lon="2.3039642"><ele>0.0</ele><time>2026-04-30T09:37:24.078Z</time></trkpt><trkpt lat="41.3575551" lon="2.3040683"><ele>0.0</ele><time>2026-04-30T09:37:25.078Z</time></trkpt><trkpt lat="41.3575933" lon="2.3041732"><ele>0.0</ele><time>2026-04-30T09:37:26.079Z</time></trkpt><trkpt lat="41.3576304" lon="2.3042809"><ele>0.0</ele><time>2026-04-30T09:37:27.078Z</time></trkpt><trkpt lat="41.3576673" lon="2.3043866"><ele>0.0</ele><time>2026-04-30T09:37:28.078Z</time></trkpt><trkpt lat="41.3577096" lon="2.3044901"><ele>0.0</ele><time>2026-04-30T09:37:29.078Z</time></trkpt><trkpt lat="41.3577922" lon="2.30471"><ele>0.0</ele><time>2026-04-30T09:37:31.078Z</time></trkpt><trkpt lat="41.357832" lon="2.3048204"><ele>0.0</ele><time>2026-04-30T09:37:32.079Z</time></trkpt><trkpt lat="41.3578675" lon="2.3049306"><ele>0.0</ele><time>2026-04-30T09:37:33.079Z</time></trkpt><trkpt lat="41.3579069" lon="2.3050331"><ele>0.0</ele><time>2026-04-30T09:37:34.078Z</time></trkpt><trkpt lat="41.3579481" lon="2.3051396"><ele>0.0</ele><time>2026-04-30T09:37:35.079Z</time></trkpt><trkpt lat="41.3579899" lon="2.3052433"><ele>0.0</ele><time>2026-04-30T09:37:36.079Z</time></trkpt><trkpt lat="41.3580302" lon="2.3053467"><ele>0.0</ele><time>2026-04-30T09:37:37.078Z</time></trkpt><trkpt lat="41.3580686" lon="2.305453"><ele>0.0</ele><time>2026-04-30T09:37:38.079Z</time></trkpt><trkpt lat="41.3581095" lon="2.305554"><ele>0.0</ele><time>2026-04-30T09:37:39.078Z</time></trkpt><trkpt lat="41.3581481" lon="2.3056567"><ele>0.0</ele><time>2026-04-30T09:37:40.078Z</time></trkpt><trkpt lat="41.3581897" lon="2.3057587"><ele>0.0</ele><time>2026-04-30T09:37:41.079Z</time></trkpt><trkpt lat="41.3582226" lon="2.3058567"><ele>0.0</ele><time>2026-04-30T09:37:42.078Z</time></trkpt><trkpt lat="41.358267" lon="2.305952"><ele>0.0</ele><time>2026-04-30T09:37:43.078Z</time></trkpt><trkpt lat="41.3583006" lon="2.3060611"><ele>0.0</ele><time>2026-04-30T09:37:44.078Z</time></trkpt><trkpt lat="41.3583296" lon="2.306174"><ele>0.0</ele><time>2026-04-30T09:37:45.079Z</time></trkpt><trkpt lat="41.3583681" lon="2.3062843"><ele>0.0</ele><time>2026-04-30T09:37:46.079Z</time></trkpt><trkpt lat="41.3584064" lon="2.3063906"><ele>0.0</ele><time>2026-04-30T09:37:47.079Z</time></trkpt><trkpt lat="41.3584432" lon="2.3064955"><ele>0.0</ele><time>2026-04-30T09:37:48.078Z</time></trkpt><trkpt lat="41.3584827" lon="2.3065985"><ele>0.0</ele><time>2026-04-30T09:37:49.078Z</time></trkpt><trkpt lat="41.3585201" lon="2.3067033"><ele>0.0</ele><time>2026-04-30T09:37:50.078Z</time></trkpt><trkpt lat="41.3585981" lon="2.3069089"><ele>0.0</ele><time>2026-04-30T09:37:52.078Z</time></trkpt><trkpt lat="41.358638" lon="2.3070148"><ele>0.0</ele><time>2026-04-30T09:37:53.079Z</time></trkpt><trkpt lat="41.3586783" lon="2.3071186"><ele>0.0</ele><time>2026-04-30T09:37:54.078Z</time></trkpt><trkpt lat="41.3587192" lon="2.3072205"><ele>0.0</ele><time>2026-04-30T09:37:55.079Z</time></trkpt><trkpt lat="41.3587585" lon="2.3073261"><ele>0.0</ele><time>2026-04-30T09:37:56.078Z</time></trkpt><trkpt lat="41.358794" lon="2.3074333"><ele>0.0</ele><time>2026-04-30T09:37:57.078Z</time></trkpt><trkpt lat="41.3588274" lon="2.3075384"><ele>0.0</ele><time>2026-04-30T09:37:58.079Z</time></trkpt><trkpt lat="41.358862" lon="2.3076452"><ele>0.0</ele><time>2026-04-30T09:37:59.079Z</time></trkpt><trkpt lat="41.3588966" lon="2.3077547"><ele>0.0</ele><time>2026-04-30T09:38:00.079Z</time></trkpt><trkpt lat="41.3589303" lon="2.3078636"><ele>0.0</ele><time>2026-04-30T09:38:01.078Z</time></trkpt><trkpt lat="41.3589676" lon="2.307972"><ele>0.0</ele><time>2026-04-30T09:38:02.078Z</time></trkpt><trkpt lat="41.3589982" lon="2.3080825"><ele>0.0</ele><time>2026-04-30T09:38:03.079Z</time></trkpt><trkpt lat="41.3590302" lon="2.308189"><ele>0.0</ele><time>2026-04-30T09:38:04.078Z</time></trkpt><trkpt lat="41.359062" lon="2.3082927"><ele>0.0</ele><time>2026-04-30T09:38:05.079Z</time></trkpt><trkpt lat="41.3590934" lon="2.3083999"><ele>0.0</ele><time>2026-04-30T09:38:06.079Z</time></trkpt><trkpt lat="41.3591279" lon="2.3085095"><ele>0.0</ele><time>2026-04-30T09:38:07.079Z</time></trkpt><trkpt lat="41.3591649" lon="2.308617"><ele>0.0</ele><time>2026-04-30T09:38:08.079Z</time></trkpt><trkpt lat="41.3591987" lon="2.3087248"><ele>0.0</ele><time>2026-04-30T09:38:09.078Z</time></trkpt><trkpt lat="41.3592323" lon="2.3088258"><ele>0.0</ele><time>2026-04-30T09:38:10.079Z</time></trkpt><trkpt lat="41.3592686" lon="2.3089228"><ele>0.0</ele><time>2026-04-30T09:38:11.078Z</time></trkpt><trkpt lat="41.359347" lon="2.3091207"><ele>0.0</ele><time>2026-04-30T09:38:13.078Z</time></trkpt><trkpt lat="41.3593835" lon="2.3092267"><ele>0.0</ele><time>2026-04-30T09:38:14.078Z</time></trkpt><trkpt lat="41.3594277" lon="2.30933"><ele>0.0</ele><time>2026-04-30T09:38:15.078Z</time></trkpt><trkpt lat="41.3594631" lon="2.3094376"><ele>0.0</ele><time>2026-04-30T09:38:16.079Z</time></trkpt><trkpt lat="41.3595025" lon="2.3095446"><ele>0.0</ele><time>2026-04-30T09:38:17.078Z</time></trkpt><trkpt lat="41.3595446" lon="2.3096484"><ele>0.0</ele><time>2026-04-30T09:38:18.079Z</time></trkpt><trkpt lat="41.3595836" lon="2.3097549"><ele>0.0</ele><time>2026-04-30T09:38:19.079Z</time></trkpt><trkpt lat="41.3596217" lon="2.3098614"><ele>0.0</ele><time>2026-04-30T09:38:20.078Z</time></trkpt><trkpt lat="41.3596617" lon="2.3099652"><ele>0.0</ele><time>2026-04-30T09:38:21.078Z</time></trkpt><trkpt lat="41.3597117" lon="2.3100656"><ele>0.0</ele><time>2026-04-30T09:38:22.078Z</time></trkpt><trkpt lat="41.3597573" lon="2.3101658"><ele>0.0</ele><time>2026-04-30T09:38:23.078Z</time></trkpt><trkpt lat="41.3598012" lon="2.3102685"><ele>0.0</ele><time>2026-04-30T09:38:24.078Z</time></trkpt><trkpt lat="41.3598432" lon="2.3103717"><ele>0.0</ele><time>2026-04-30T09:38:25.078Z</time></trkpt><trkpt lat="41.3598823" lon="2.3104749"><ele>0.0</ele><time>2026-04-30T09:38:26.079Z</time></trkpt><trkpt lat="41.3599206" lon="2.310577"><ele>0.0</ele><time>2026-04-30T09:38:27.078Z</time></trkpt><trkpt lat="41.3599602" lon="2.3106783"><ele>0.0</ele><time>2026-04-30T09:38:28.078Z</time></trkpt><trkpt lat="41.3600047" lon="2.3107797"><ele>0.0</ele><time>2026-04-30T09:38:29.078Z</time></trkpt><trkpt lat="41.3600467" lon="2.3108801"><ele>0.0</ele><time>2026-04-30T09:38:30.078Z</time></trkpt><trkpt lat="41.3600885" lon="2.3109772"><ele>0.0</ele><time>2026-04-30T09:38:31.078Z</time></trkpt><trkpt lat="41.3601301" lon="2.3110769"><ele>0.0</ele><time>2026-04-30T09:38:32.078Z</time></trkpt><trkpt lat="41.3602118" lon="2.3112847"><ele>0.0</ele><time>2026-04-30T09:38:34.079Z</time></trkpt><trkpt lat="41.3602469" lon="2.3113916"><ele>0.0</ele><time>2026-04-30T09:38:35.078Z</time></trkpt><trkpt lat="41.3602864" lon="2.3114965"><ele>0.0</ele><time>2026-04-30T09:38:36.079Z</time></trkpt><trkpt lat="41.3603275" lon="2.311603"><ele>0.0</ele><time>2026-04-30T09:38:37.078Z</time></trkpt><trkpt lat="41.3603655" lon="2.3117114"><ele>0.0</ele><time>2026-04-30T09:38:38.078Z</time></trkpt><trkpt lat="41.3604008" lon="2.3118184"><ele>0.0</ele><time>2026-04-30T09:38:39.079Z</time></trkpt><trkpt lat="41.3604341" lon="2.3119236"><ele>0.0</ele><time>2026-04-30T09:38:40.078Z</time></trkpt><trkpt lat="41.3604708" lon="2.312024"><ele>0.0</ele><time>2026-04-30T09:38:41.079Z</time></trkpt><trkpt lat="41.3605072" lon="2.3121285"><ele>0.0</ele><time>2026-04-30T09:38:42.079Z</time></trkpt><trkpt lat="41.3605436" lon="2.3122255"><ele>0.0</ele><time>2026-04-30T09:38:43.079Z</time></trkpt><trkpt lat="41.3605769" lon="2.3123247"><ele>0.0</ele><time>2026-04-30T09:38:44.078Z</time></trkpt><trkpt lat="41.3606101" lon="2.3124302"><ele>0.0</ele><time>2026-04-30T09:38:45.079Z</time></trkpt><trkpt lat="41.3606418" lon="2.3125422"><ele>0.0</ele><time>2026-04-30T09:38:46.079Z</time></trkpt><trkpt lat="41.3606721" lon="2.3126514"><ele>0.0</ele><time>2026-04-30T09:38:47.079Z</time></trkpt><trkpt lat="41.3607034" lon="2.3127587"><ele>0.0</ele><time>2026-04-30T09:38:48.079Z</time></trkpt><trkpt lat="41.3607398" lon="2.3128693"><ele>0.0</ele><time>2026-04-30T09:38:49.078Z</time></trkpt><trkpt lat="41.360777" lon="2.3129752"><ele>0.0</ele><time>2026-04-30T09:38:50.079Z</time></trkpt><trkpt lat="41.3608149" lon="2.3130795"><ele>0.0</ele><time>2026-04-30T09:38:51.078Z</time></trkpt><trkpt lat="41.3608567" lon="2.3131842"><ele>0.0</ele><time>2026-04-30T09:38:52.078Z</time></trkpt><trkpt lat="41.3608981" lon="2.3132926"><ele>0.0</ele><time>2026-04-30T09:38:53.079Z</time></trkpt><trkpt lat="41.3609804" lon="2.3135084"><ele>0.0</ele><time>2026-04-30T09:38:55.079Z</time></trkpt><trkpt lat="41.3610216" lon="2.3136177"><ele>0.0</ele><time>2026-04-30T09:38:56.078Z</time></trkpt><trkpt lat="41.3610584" lon="2.3137173"><ele>0.0</ele><time>2026-04-30T09:38:57.078Z</time></trkpt><trkpt lat="41.3610937" lon="2.3138206"><ele>0.0</ele><time>2026-04-30T09:38:58.078Z</time></trkpt><trkpt lat="41.3611255" lon="2.3139241"><ele>0.0</ele><time>2026-04-30T09:38:59.079Z</time></trkpt><trkpt lat="41.3611633" lon="2.3140288"><ele>0.0</ele><time>2026-04-30T09:39:00.078Z</time></trkpt><trkpt lat="41.3612044" lon="2.3141311"><ele>0.0</ele><time>2026-04-30T09:39:01.079Z</time></trkpt><trkpt lat="41.3612475" lon="2.3142324"><ele>0.0</ele><time>2026-04-30T09:39:02.078Z</time></trkpt><trkpt lat="41.3612913" lon="2.3143325"><ele>0.0</ele><time>2026-04-30T09:39:03.078Z</time></trkpt><trkpt lat="41.3613343" lon="2.3144378"><ele>0.0</ele><time>2026-04-30T09:39:04.078Z</time></trkpt><trkpt lat="41.3613794" lon="2.314537"><ele>0.0</ele><time>2026-04-30T09:39:05.079Z</time></trkpt><trkpt lat="41.3614245" lon="2.3146384"><ele>0.0</ele><time>2026-04-30T09:39:06.078Z</time></trkpt><trkpt lat="41.3614743" lon="2.3147415"><ele>0.0</ele><time>2026-04-30T09:39:07.078Z</time></trkpt><trkpt lat="41.3615152" lon="2.3148475"><ele>0.0</ele><time>2026-04-30T09:39:08.078Z</time></trkpt><trkpt lat="41.3615552" lon="2.3149514"><ele>0.0</ele><time>2026-04-30T09:39:09.078Z</time></trkpt><trkpt lat="41.3616033" lon="2.3150533"><ele>0.0</ele><time>2026-04-30T09:39:10.078Z</time></trkpt><trkpt lat="41.361642" lon="2.3151626"><ele>0.0</ele><time>2026-04-30T09:39:11.078Z</time></trkpt><trkpt lat="41.3616831" lon="2.3152682"><ele>0.0</ele><time>2026-04-30T09:39:12.079Z</time></trkpt><trkpt lat="41.3617261" lon="2.3153746"><ele>0.0</ele><time>2026-04-30T09:39:13.078Z</time></trkpt><trkpt lat="41.3617655" lon="2.3154816"><ele>0.0</ele><time>2026-04-30T09:39:14.078Z</time></trkpt><trkpt lat="41.3618517" lon="2.31569"><ele>0.0</ele><time>2026-04-30T09:39:16.079Z</time></trkpt><trkpt lat="41.3618882" lon="2.3157954"><ele>0.0</ele><time>2026-04-30T09:39:17.079Z</time></trkpt><trkpt lat="41.3619263" lon="2.3159047"><ele>0.0</ele><time>2026-04-30T09:39:18.078Z</time></trkpt><trkpt lat="41.3619674" lon="2.3160118"><ele>0.0</ele><time>2026-04-30T09:39:19.078Z</time></trkpt><trkpt lat="41.3620066" lon="2.3161169"><ele>0.0</ele><time>2026-04-30T09:39:20.078Z</time></trkpt><trkpt lat="41.3620467" lon="2.3162229"><ele>0.0</ele><time>2026-04-30T09:39:21.078Z</time></trkpt><trkpt lat="41.3620868" lon="2.3163251"><ele>0.0</ele><time>2026-04-30T09:39:22.079Z</time></trkpt><trkpt lat="41.3621293" lon="2.3164278"><ele>0.0</ele><time>2026-04-30T09:39:23.079Z</time></trkpt><trkpt lat="41.3621717" lon="2.316537"><ele>0.0</ele><time>2026-04-30T09:39:24.079Z</time></trkpt><trkpt lat="41.3622163" lon="2.3166441"><ele>0.0</ele><time>2026-04-30T09:39:25.079Z</time></trkpt><trkpt lat="41.3622544" lon="2.3167495"><ele>0.0</ele><time>2026-04-30T09:39:26.078Z</time></trkpt><trkpt lat="41.3622955" lon="2.3168492"><ele>0.0</ele><time>2026-04-30T09:39:27.078Z</time></trkpt><trkpt lat="41.3623369" lon="2.3169488"><ele>0.0</ele><time>2026-04-30T09:39:28.078Z</time></trkpt><trkpt lat="41.3623737" lon="2.3170487"><ele>0.0</ele><time>2026-04-30T09:39:29.079Z</time></trkpt><trkpt lat="41.3624129" lon="2.3171484"><ele>0.0</ele><time>2026-04-30T09:39:30.078Z</time></trkpt><trkpt lat="41.3624477" lon="2.3172491"><ele>0.0</ele><time>2026-04-30T09:39:31.079Z</time></trkpt><trkpt lat="41.3624812" lon="2.317352"><ele>0.0</ele><time>2026-04-30T09:39:32.078Z</time></trkpt><trkpt lat="41.3625176" lon="2.3174536"><ele>0.0</ele><time>2026-04-30T09:39:33.079Z</time></trkpt><trkpt lat="41.3625569" lon="2.3175583"><ele>0.0</ele><time>2026-04-30T09:39:34.078Z</time></trkpt><trkpt lat="41.3625984" lon="2.3176613"><ele>0.0</ele><time>2026-04-30T09:39:35.078Z</time></trkpt><trkpt lat="41.3626802" lon="2.3178714"><ele>0.0</ele><time>2026-04-30T09:39:37.079Z</time></trkpt><trkpt lat="41.3627229" lon="2.3179818"><ele>0.0</ele><time>2026-04-30T09:39:38.078Z</time></trkpt><trkpt lat="41.3627632" lon="2.3180908"><ele>0.0</ele><time>2026-04-30T09:39:39.078Z</time></trkpt><trkpt lat="41.3628036" lon="2.3181931"><ele>0.0</ele><time>2026-04-30T09:39:40.078Z</time></trkpt><trkpt lat="41.3628423" lon="2.318292"><ele>0.0</ele><time>2026-04-30T09:39:41.078Z</time></trkpt><trkpt lat="41.3628804" lon="2.3183933"><ele>0.0</ele><time>2026-04-30T09:39:42.079Z</time></trkpt><trkpt lat="41.3629243" lon="2.3185005"><ele>0.0</ele><time>2026-04-30T09:39:43.079Z</time></trkpt><trkpt lat="41.3629652" lon="2.3186073"><ele>0.0</ele><time>2026-04-30T09:39:44.078Z</time></trkpt><trkpt lat="41.3630112" lon="2.3187095"><ele>0.0</ele><time>2026-04-30T09:39:45.079Z</time></trkpt><trkpt lat="41.3630579" lon="2.3188097"><ele>0.0</ele><time>2026-04-30T09:39:46.079Z</time></trkpt><trkpt lat="41.3631005" lon="2.3189143"><ele>0.0</ele><time>2026-04-30T09:39:47.079Z</time></trkpt><trkpt lat="41.3631391" lon="2.3190211"><ele>0.0</ele><time>2026-04-30T09:39:48.078Z</time></trkpt><trkpt lat="41.3631756" lon="2.3191278"><ele>0.0</ele><time>2026-04-30T09:39:49.078Z</time></trkpt><trkpt lat="41.363212" lon="2.3192329"><ele>0.0</ele><time>2026-04-30T09:39:50.079Z</time></trkpt><trkpt lat="41.3632544" lon="2.3193351"><ele>0.0</ele><time>2026-04-30T09:39:51.078Z</time></trkpt><trkpt lat="41.3632936" lon="2.3194411"><ele>0.0</ele><time>2026-04-30T09:39:52.079Z</time></trkpt><trkpt lat="41.3633292" lon="2.3195447"><ele>0.0</ele><time>2026-04-30T09:39:53.078Z</time></trkpt><trkpt lat="41.3633713" lon="2.3196506"><ele>0.0</ele><time>2026-04-30T09:39:54.079Z</time></trkpt><trkpt lat="41.3634173" lon="2.3197581"><ele>0.0</ele><time>2026-04-30T09:39:55.078Z</time></trkpt><trkpt lat="41.3634613" lon="2.3198618"><ele>0.0</ele><time>2026-04-30T09:39:56.079Z</time></trkpt><trkpt lat="41.3635315" lon="2.3200744"><ele>0.0</ele><time>2026-04-30T09:39:58.078Z</time></trkpt><trkpt lat="41.3635676" lon="2.3201823"><ele>0.0</ele><time>2026-04-30T09:39:59.078Z</time></trkpt><trkpt lat="41.3636053" lon="2.3202908"><ele>0.0</ele><time>2026-04-30T09:40:00.078Z</time></trkpt><trkpt lat="41.3636396" lon="2.3203921"><ele>0.0</ele><time>2026-04-30T09:40:01.078Z</time></trkpt><trkpt lat="41.3636741" lon="2.3204982"><ele>0.0</ele><time>2026-04-30T09:40:02.078Z</time></trkpt><trkpt lat="41.363709" lon="2.3205964"><ele>0.0</ele><time>2026-04-30T09:40:03.077Z</time></trkpt><trkpt lat="41.3637441" lon="2.3206994"><ele>0.0</ele><time>2026-04-30T09:40:04.077Z</time></trkpt><trkpt lat="41.363778" lon="2.3208089"><ele>0.0</ele><time>2026-04-30T09:40:05.077Z</time></trkpt><trkpt lat="41.3638138" lon="2.3209162"><ele>0.0</ele><time>2026-04-30T09:40:06.077Z</time></trkpt><trkpt lat="41.363849" lon="2.3210203"><ele>0.0</ele><time>2026-04-30T09:40:07.077Z</time></trkpt><trkpt lat="41.3638895" lon="2.3211225"><ele>0.0</ele><time>2026-04-30T09:40:08.078Z</time></trkpt><trkpt lat="41.3639294" lon="2.3212239"><ele>0.0</ele><time>2026-04-30T09:40:09.078Z</time></trkpt><trkpt lat="41.3639682" lon="2.3213254"><ele>0.0</ele><time>2026-04-30T09:40:10.078Z</time></trkpt><trkpt lat="41.3640072" lon="2.3214328"><ele>0.0</ele><time>2026-04-30T09:40:11.077Z</time></trkpt><trkpt lat="41.3640436" lon="2.3215395"><ele>0.0</ele><time>2026-04-30T09:40:12.077Z</time></trkpt><trkpt lat="41.3640806" lon="2.321645"><ele>0.0</ele><time>2026-04-30T09:40:13.077Z</time></trkpt><trkpt lat="41.3641169" lon="2.3217503"><ele>0.0</ele><time>2026-04-30T09:40:14.077Z</time></trkpt><trkpt lat="41.3641551" lon="2.3218552"><ele>0.0</ele><time>2026-04-30T09:40:15.078Z</time></trkpt><trkpt lat="41.3641983" lon="2.3219584"><ele>0.0</ele><time>2026-04-30T09:40:16.077Z</time></trkpt><trkpt lat="41.3642399" lon="2.322065"><ele>0.0</ele><time>2026-04-30T09:40:17.078Z</time></trkpt><trkpt lat="41.3643236" lon="2.3222733"><ele>0.0</ele><time>2026-04-30T09:40:19.078Z</time></trkpt><trkpt lat="41.3643646" lon="2.3223785"><ele>0.0</ele><time>2026-04-30T09:40:20.077Z</time></trkpt><trkpt lat="41.3644035" lon="2.32248"><ele>0.0</ele><time>2026-04-30T09:40:21.078Z</time></trkpt><trkpt lat="41.3644402" lon="2.3225833"><ele>0.0</ele><time>2026-04-30T09:40:22.077Z</time></trkpt><trkpt lat="41.364477" lon="2.3226869"><ele>0.0</ele><time>2026-04-30T09:40:23.078Z</time></trkpt><trkpt lat="41.364515" lon="2.3227945"><ele>0.0</ele><time>2026-04-30T09:40:24.077Z</time></trkpt><trkpt lat="41.3645546" lon="2.3229001"><ele>0.0</ele><time>2026-04-30T09:40:25.078Z</time></trkpt><trkpt lat="41.3645948" lon="2.3230032"><ele>0.0</ele><time>2026-04-30T09:40:26.077Z</time></trkpt><trkpt lat="41.364641" lon="2.3231066"><ele>0.0</ele><time>2026-04-30T09:40:27.078Z</time></trkpt><trkpt lat="41.364679" lon="2.323213"><ele>0.0</ele><time>2026-04-30T09:40:28.078Z</time></trkpt><trkpt lat="41.3647201" lon="2.3233167"><ele>0.0</ele><time>2026-04-30T09:40:29.077Z</time></trkpt><trkpt lat="41.3647635" lon="2.32342"><ele>0.0</ele><time>2026-04-30T09:40:30.078Z</time></trkpt><trkpt lat="41.3648055" lon="2.3235206"><ele>0.0</ele><time>2026-04-30T09:40:31.078Z</time></trkpt><trkpt lat="41.364844" lon="2.3236204"><ele>0.0</ele><time>2026-04-30T09:40:32.077Z</time></trkpt><trkpt lat="41.3648835" lon="2.323723"><ele>0.0</ele><time>2026-04-30T09:40:33.078Z</time></trkpt><trkpt lat="41.3649206" lon="2.3238311"><ele>0.0</ele><time>2026-04-30T09:40:34.078Z</time></trkpt><trkpt lat="41.364962" lon="2.3239334"><ele>0.0</ele><time>2026-04-30T09:40:35.078Z</time></trkpt><trkpt lat="41.365002" lon="2.3240363"><ele>0.0</ele><time>2026-04-30T09:40:36.077Z</time></trkpt><trkpt lat="41.365042" lon="2.32414"><ele>0.0</ele><time>2026-04-30T09:40:37.077Z</time></trkpt><trkpt lat="41.3650819" lon="2.3242432"><ele>0.0</ele><time>2026-04-30T09:40:38.078Z</time></trkpt><trkpt lat="41.3651525" lon="2.3244552"><ele>0.0</ele><time>2026-04-30T09:40:40.077Z</time></trkpt><trkpt lat="41.3651929" lon="2.3245583"><ele>0.0</ele><time>2026-04-30T09:40:41.077Z</time></trkpt><trkpt lat="41.3652307" lon="2.3246599"><ele>0.0</ele><time>2026-04-30T09:40:42.078Z</time></trkpt><trkpt lat="41.3652744" lon="2.3247617"><ele>0.0</ele><time>2026-04-30T09:40:43.077Z</time></trkpt><trkpt lat="41.3653167" lon="2.3248648"><ele>0.0</ele><time>2026-04-30T09:40:44.077Z</time></trkpt><trkpt lat="41.3653598" lon="2.3249684"><ele>0.0</ele><time>2026-04-30T09:40:45.077Z</time></trkpt><trkpt lat="41.3654032" lon="2.3250745"><ele>0.0</ele><time>2026-04-30T09:40:46.078Z</time></trkpt><trkpt lat="41.3654436" lon="2.3251814"><ele>0.0</ele><time>2026-04-30T09:40:47.077Z</time></trkpt><trkpt lat="41.3654849" lon="2.3252876"><ele>0.0</ele><time>2026-04-30T09:40:48.078Z</time></trkpt><trkpt lat="41.3655296" lon="2.3253943"><ele>0.0</ele><time>2026-04-30T09:40:49.077Z</time></trkpt><trkpt lat="41.3655761" lon="2.325501"><ele>0.0</ele><time>2026-04-30T09:40:50.077Z</time></trkpt><trkpt lat="41.3656213" lon="2.3256065"><ele>0.0</ele><time>2026-04-30T09:40:51.078Z</time></trkpt><trkpt lat="41.3656679" lon="2.3257105"><ele>0.0</ele><time>2026-04-30T09:40:52.077Z</time></trkpt><trkpt lat="41.3657027" lon="2.3258167"><ele>0.0</ele><time>2026-04-30T09:40:53.078Z</time></trkpt><trkpt lat="41.3657371" lon="2.3259235"><ele>0.0</ele><time>2026-04-30T09:40:54.077Z</time></trkpt><trkpt lat="41.3657746" lon="2.3260255"><ele>0.0</ele><time>2026-04-30T09:40:55.078Z</time></trkpt><trkpt lat="41.3658159" lon="2.3261316"><ele>0.0</ele><time>2026-04-30T09:40:56.078Z</time></trkpt><trkpt lat="41.3658578" lon="2.3262349"><ele>0.0</ele><time>2026-04-30T09:40:57.077Z</time></trkpt><trkpt lat="41.3658969" lon="2.3263386"><ele>0.0</ele><time>2026-04-30T09:40:58.077Z</time></trkpt><trkpt lat="41.3659384" lon="2.3264407"><ele>0.0</ele><time>2026-04-30T09:40:59.078Z</time></trkpt><trkpt lat="41.3660215" lon="2.326651"><ele>0.0</ele><time>2026-04-30T09:41:01.078Z</time></trkpt><trkpt lat="41.3660615" lon="2.3267623"><ele>0.0</ele><time>2026-04-30T09:41:02.077Z</time></trkpt><trkpt lat="41.3660998" lon="2.3268714"><ele>0.0</ele><time>2026-04-30T09:41:03.077Z</time></trkpt><trkpt lat="41.3661319" lon="2.3269772"><ele>0.0</ele><time>2026-04-30T09:41:04.077Z</time></trkpt><trkpt lat="41.3661635" lon="2.3270808"><ele>0.0</ele><time>2026-04-30T09:41:05.078Z</time></trkpt><trkpt lat="41.3661965" lon="2.3271851"><ele>0.0</ele><time>2026-04-30T09:41:06.078Z</time></trkpt><trkpt lat="41.3662286" lon="2.3272901"><ele>0.0</ele><time>2026-04-30T09:41:07.077Z</time></trkpt><trkpt lat="41.3662634" lon="2.3273981"><ele>0.0</ele><time>2026-04-30T09:41:08.078Z</time></trkpt><trkpt lat="41.3662953" lon="2.3275063"><ele>0.0</ele><time>2026-04-30T09:41:09.078Z</time></trkpt><trkpt lat="41.366328" lon="2.3276119"><ele>0.0</ele><time>2026-04-30T09:41:10.077Z</time></trkpt><trkpt lat="41.3663617" lon="2.3277154"><ele>0.0</ele><time>2026-04-30T09:41:11.078Z</time></trkpt><trkpt lat="41.3663952" lon="2.3278206"><ele>0.0</ele><time>2026-04-30T09:41:12.077Z</time></trkpt><trkpt lat="41.3664319" lon="2.327924"><ele>0.0</ele><time>2026-04-30T09:41:13.077Z</time></trkpt><trkpt lat="41.3664701" lon="2.3280301"><ele>0.0</ele><time>2026-04-30T09:41:14.077Z</time></trkpt><trkpt lat="41.36651" lon="2.328132"><ele>0.0</ele><time>2026-04-30T09:41:15.077Z</time></trkpt><trkpt lat="41.3665531" lon="2.3282334"><ele>0.0</ele><time>2026-04-30T09:41:16.078Z</time></trkpt><trkpt lat="41.3665994" lon="2.3283345"><ele>0.0</ele><time>2026-04-30T09:41:17.078Z</time></trkpt><trkpt lat="41.3666524" lon="2.3284363"><ele>0.0</ele><time>2026-04-30T09:41:18.077Z</time></trkpt><trkpt lat="41.3667012" lon="2.3285411"><ele>0.0</ele><time>2026-04-30T09:41:19.078Z</time></trkpt><trkpt lat="41.3667539" lon="2.3286444"><ele>0.0</ele><time>2026-04-30T09:41:20.077Z</time></trkpt><trkpt lat="41.3668371" lon="2.3288431"><ele>0.0</ele><time>2026-04-30T09:41:22.078Z</time></trkpt><trkpt lat="41.3668739" lon="2.3289405"><ele>0.0</ele><time>2026-04-30T09:41:23.078Z</time></trkpt><trkpt lat="41.366912" lon="2.3290386"><ele>0.0</ele><time>2026-04-30T09:41:24.077Z</time></trkpt><trkpt lat="41.3669475" lon="2.3291403"><ele>0.0</ele><time>2026-04-30T09:41:25.078Z</time></trkpt><trkpt lat="41.3669882" lon="2.3292388"><ele>0.0</ele><time>2026-04-30T09:41:26.078Z</time></trkpt><trkpt lat="41.3670329" lon="2.329336"><ele>0.0</ele><time>2026-04-30T09:41:27.078Z</time></trkpt><trkpt lat="41.3670691" lon="2.3294425"><ele>0.0</ele><time>2026-04-30T09:41:28.077Z</time></trkpt><trkpt lat="41.3671115" lon="2.3295437"><ele>0.0</ele><time>2026-04-30T09:41:29.078Z</time></trkpt><trkpt lat="41.367153" lon="2.3296495"><ele>0.0</ele><time>2026-04-30T09:41:30.077Z</time></trkpt><trkpt lat="41.3671964" lon="2.3297591"><ele>0.0</ele><time>2026-04-30T09:41:31.078Z</time></trkpt><trkpt lat="41.3672337" lon="2.3298682"><ele>0.0</ele><time>2026-04-30T09:41:32.077Z</time></trkpt><trkpt lat="41.3672793" lon="2.3299724"><ele>0.0</ele><time>2026-04-30T09:41:33.078Z</time></trkpt><trkpt lat="41.3673184" lon="2.3300725"><ele>0.0</ele><time>2026-04-30T09:41:34.077Z</time></trkpt><trkpt lat="41.3673568" lon="2.3301721"><ele>0.0</ele><time>2026-04-30T09:41:35.077Z</time></trkpt><trkpt lat="41.3673998" lon="2.3302767"><ele>0.0</ele><time>2026-04-30T09:41:36.077Z</time></trkpt><trkpt lat="41.367443" lon="2.3303796"><ele>0.0</ele><time>2026-04-30T09:41:37.078Z</time></trkpt><trkpt lat="41.3674849" lon="2.3304831"><ele>0.0</ele><time>2026-04-30T09:41:38.078Z</time></trkpt><trkpt lat="41.3675297" lon="2.3305876"><ele>0.0</ele><time>2026-04-30T09:41:39.078Z</time></trkpt><trkpt lat="41.3675675" lon="2.3306911"><ele>0.0</ele><time>2026-04-30T09:41:40.078Z</time></trkpt><trkpt lat="41.3676012" lon="2.3308009"><ele>0.0</ele><time>2026-04-30T09:41:41.078Z</time></trkpt><trkpt lat="41.3676718" lon="2.3310231"><ele>0.0</ele><time>2026-04-30T09:41:43.077Z</time></trkpt><trkpt lat="41.3677086" lon="2.331127"><ele>0.0</ele><time>2026-04-30T09:41:44.078Z</time></trkpt><trkpt lat="41.3677441" lon="2.3312288"><ele>0.0</ele><time>2026-04-30T09:41:45.077Z</time></trkpt><trkpt lat="41.3677778" lon="2.3313304"><ele>0.0</ele><time>2026-04-30T09:41:46.077Z</time></trkpt><trkpt lat="41.3678081" lon="2.3314315"><ele>0.0</ele><time>2026-04-30T09:41:47.077Z</time></trkpt><trkpt lat="41.3678437" lon="2.3315433"><ele>0.0</ele><time>2026-04-30T09:41:48.077Z</time></trkpt><trkpt lat="41.3678821" lon="2.3316499"><ele>0.0</ele><time>2026-04-30T09:41:49.077Z</time></trkpt><trkpt lat="41.3679204" lon="2.3317523"><ele>0.0</ele><time>2026-04-30T09:41:50.077Z</time></trkpt><trkpt lat="41.3679585" lon="2.3318564"><ele>0.0</ele><time>2026-04-30T09:41:51.078Z</time></trkpt><trkpt lat="41.3679954" lon="2.3319655"><ele>0.0</ele><time>2026-04-30T09:41:52.078Z</time></trkpt><trkpt lat="41.3680304" lon="2.3320758"><ele>0.0</ele><time>2026-04-30T09:41:53.077Z</time></trkpt><trkpt lat="41.368068" lon="2.3321813"><ele>0.0</ele><time>2026-04-30T09:41:54.077Z</time></trkpt><trkpt lat="41.3681051" lon="2.3322864"><ele>0.0</ele><time>2026-04-30T09:41:55.078Z</time></trkpt><trkpt lat="41.3681416" lon="2.3323976"><ele>0.0</ele><time>2026-04-30T09:41:56.077Z</time></trkpt><trkpt lat="41.368184" lon="2.3325018"><ele>0.0</ele><time>2026-04-30T09:41:57.078Z</time></trkpt><trkpt lat="41.3682263" lon="2.3326052"><ele>0.0</ele><time>2026-04-30T09:41:58.077Z</time></trkpt><trkpt lat="41.368268" lon="2.3327127"><ele>0.0</ele><time>2026-04-30T09:41:59.078Z</time></trkpt><trkpt lat="41.3683052" lon="2.3328211"><ele>0.0</ele><time>2026-04-30T09:42:00.077Z</time></trkpt><trkpt lat="41.3683522" lon="2.3329221"><ele>0.0</ele><time>2026-04-30T09:42:01.077Z</time></trkpt><trkpt lat="41.368402" lon="2.3330207"><ele>0.0</ele><time>2026-04-30T09:42:02.078Z</time></trkpt><trkpt lat="41.3684837" lon="2.3332224"><ele>0.0</ele><time>2026-04-30T09:42:04.077Z</time></trkpt><trkpt lat="41.3685248" lon="2.3333226"><ele>0.0</ele><time>2026-04-30T09:42:05.077Z</time></trkpt><trkpt lat="41.3685651" lon="2.3334277"><ele>0.0</ele><time>2026-04-30T09:42:06.078Z</time></trkpt><trkpt lat="41.3686037" lon="2.3335328"><ele>0.0</ele><time>2026-04-30T09:42:07.077Z</time></trkpt><trkpt lat="41.3686375" lon="2.3336363"><ele>0.0</ele><time>2026-04-30T09:42:08.077Z</time></trkpt><trkpt lat="41.3686735" lon="2.3337402"><ele>0.0</ele><time>2026-04-30T09:42:09.078Z</time></trkpt><trkpt lat="41.368712" lon="2.3338444"><ele>0.0</ele><time>2026-04-30T09:42:10.078Z</time></trkpt><trkpt lat="41.3687502" lon="2.3339495"><ele>0.0</ele><time>2026-04-30T09:42:11.077Z</time></trkpt><trkpt lat="41.3687914" lon="2.3340534"><ele>0.0</ele><time>2026-04-30T09:42:12.078Z</time></trkpt><trkpt lat="41.3688272" lon="2.334157"><ele>0.0</ele><time>2026-04-30T09:42:13.077Z</time></trkpt><trkpt lat="41.368865" lon="2.3342586"><ele>0.0</ele><time>2026-04-30T09:42:14.078Z</time></trkpt><trkpt lat="41.3689047" lon="2.3343603"><ele>0.0</ele><time>2026-04-30T09:42:15.078Z</time></trkpt><trkpt lat="41.3689435" lon="2.3344622"><ele>0.0</ele><time>2026-04-30T09:42:16.077Z</time></trkpt><trkpt lat="41.368982" lon="2.3345668"><ele>0.0</ele><time>2026-04-30T09:42:17.078Z</time></trkpt><trkpt lat="41.3690248" lon="2.3346716"><ele>0.0</ele><time>2026-04-30T09:42:18.077Z</time></trkpt><trkpt lat="41.3690623" lon="2.3347806"><ele>0.0</ele><time>2026-04-30T09:42:19.077Z</time></trkpt><trkpt lat="41.369102" lon="2.3348863"><ele>0.0</ele><time>2026-04-30T09:42:20.078Z</time></trkpt><trkpt lat="41.3691373" lon="2.3349859"><ele>0.0</ele><time>2026-04-30T09:42:21.077Z</time></trkpt><trkpt lat="41.3691747" lon="2.3350855"><ele>0.0</ele><time>2026-04-30T09:42:22.078Z</time></trkpt><trkpt lat="41.3692174" lon="2.3351913"><ele>0.0</ele><time>2026-04-30T09:42:23.077Z</time></trkpt><trkpt lat="41.3692988" lon="2.3353984"><ele>0.0</ele><time>2026-04-30T09:42:25.077Z</time></trkpt><trkpt lat="41.3693424" lon="2.3355034"><ele>0.0</ele><time>2026-04-30T09:42:26.077Z</time></trkpt><trkpt lat="41.369383" lon="2.3356115"><ele>0.0</ele><time>2026-04-30T09:42:27.078Z</time></trkpt><trkpt lat="41.369416" lon="2.3357229"><ele>0.0</ele><time>2026-04-30T09:42:28.078Z</time></trkpt><trkpt lat="41.3694476" lon="2.3358319"><ele>0.0</ele><time>2026-04-30T09:42:29.077Z</time></trkpt><trkpt lat="41.3694763" lon="2.3359399"><ele>0.0</ele><time>2026-04-30T09:42:30.077Z</time></trkpt><trkpt lat="41.3695075" lon="2.3360366"><ele>0.0</ele><time>2026-04-30T09:42:31.077Z</time></trkpt><trkpt lat="41.3695434" lon="2.3361374"><ele>0.0</ele><time>2026-04-30T09:42:32.077Z</time></trkpt><trkpt lat="41.3695828" lon="2.3362387"><ele>0.0</ele><time>2026-04-30T09:42:33.078Z</time></trkpt><trkpt lat="41.3696221" lon="2.3363447"><ele>0.0</ele><time>2026-04-30T09:42:34.077Z</time></trkpt><trkpt lat="41.3696618" lon="2.3364514"><ele>0.0</ele><time>2026-04-30T09:42:35.078Z</time></trkpt><trkpt lat="41.3696985" lon="2.3365563"><ele>0.0</ele><time>2026-04-30T09:42:36.078Z</time></trkpt><trkpt lat="41.3697436" lon="2.336664"><ele>0.0</ele><time>2026-04-30T09:42:37.077Z</time></trkpt><trkpt lat="41.3697862" lon="2.3367725"><ele>0.0</ele><time>2026-04-30T09:42:38.078Z</time></trkpt><trkpt lat="41.3698295" lon="2.3368777"><ele>0.0</ele><time>2026-04-30T09:42:39.077Z</time></trkpt><trkpt lat="41.3698756" lon="2.3369825"><ele>0.0</ele><time>2026-04-30T09:42:40.077Z</time></trkpt><trkpt lat="41.3699138" lon="2.3370871"><ele>0.0</ele><time>2026-04-30T09:42:41.078Z</time></trkpt><trkpt lat="41.3699475" lon="2.3371902"><ele>0.0</ele><time>2026-04-30T09:42:42.077Z</time></trkpt><trkpt lat="41.3699837" lon="2.3372944"><ele>0.0</ele><time>2026-04-30T09:42:43.078Z</time></trkpt><trkpt lat="41.3700219" lon="2.3374023"><ele>0.0</ele><time>2026-04-30T09:42:44.078Z</time></trkpt><trkpt lat="41.3700924" lon="2.3376121"><ele>0.0</ele><time>2026-04-30T09:42:46.078Z</time></trkpt><trkpt lat="41.3701236" lon="2.3377149"><ele>0.0</ele><time>2026-04-30T09:42:47.077Z</time></trkpt><trkpt lat="41.3701583" lon="2.3378193"><ele>0.0</ele><time>2026-04-30T09:42:48.077Z</time></trkpt><trkpt lat="41.3701948" lon="2.3379275"><ele>0.0</ele><time>2026-04-30T09:42:49.078Z</time></trkpt><trkpt lat="41.3702306" lon="2.3380301"><ele>0.0</ele><time>2026-04-30T09:42:50.078Z</time></trkpt><trkpt lat="41.3702702" lon="2.3381318"><ele>0.0</ele><time>2026-04-30T09:42:51.077Z</time></trkpt><trkpt lat="41.3703073" lon="2.3382348"><ele>0.0</ele><time>2026-04-30T09:42:52.077Z</time></trkpt><trkpt lat="41.3703392" lon="2.3383413"><ele>0.0</ele><time>2026-04-30T09:42:53.077Z</time></trkpt><trkpt lat="41.3704038" lon="2.3385531"><ele>0.0</ele><time>2026-04-30T09:42:55.077Z</time></trkpt><trkpt lat="41.3704399" lon="2.3386598"><ele>0.0</ele><time>2026-04-30T09:42:56.078Z</time></trkpt><trkpt lat="41.3704815" lon="2.338766"><ele>0.0</ele><time>2026-04-30T09:42:57.078Z</time></trkpt><trkpt lat="41.3705232" lon="2.3388713"><ele>0.0</ele><time>2026-04-30T09:42:58.077Z</time></trkpt><trkpt lat="41.3705621" lon="2.338977"><ele>0.0</ele><time>2026-04-30T09:42:59.078Z</time></trkpt><trkpt lat="41.3705971" lon="2.3390792"><ele>0.0</ele><time>2026-04-30T09:43:00.077Z</time></trkpt><trkpt lat="41.37063" lon="2.3391868"><ele>0.0</ele><time>2026-04-30T09:43:01.078Z</time></trkpt><trkpt lat="41.3706661" lon="2.339295"><ele>0.0</ele><time>2026-04-30T09:43:02.078Z</time></trkpt><trkpt lat="41.3707033" lon="2.3394018"><ele>0.0</ele><time>2026-04-30T09:43:03.078Z</time></trkpt><trkpt lat="41.3707369" lon="2.33951"><ele>0.0</ele><time>2026-04-30T09:43:04.078Z</time></trkpt><trkpt lat="41.3707717" lon="2.3396213"><ele>0.0</ele><time>2026-04-30T09:43:05.078Z</time></trkpt><trkpt lat="41.3708415" lon="2.339842"><ele>0.0</ele><time>2026-04-30T09:43:07.078Z</time></trkpt><trkpt lat="41.3708765" lon="2.3399519"><ele>0.0</ele><time>2026-04-30T09:43:08.077Z</time></trkpt><trkpt lat="41.3709119" lon="2.3400637"><ele>0.0</ele><time>2026-04-30T09:43:09.077Z</time></trkpt><trkpt lat="41.3709512" lon="2.3401704"><ele>0.0</ele><time>2026-04-30T09:43:10.078Z</time></trkpt><trkpt lat="41.370987" lon="2.3402769"><ele>0.0</ele><time>2026-04-30T09:43:11.077Z</time></trkpt><trkpt lat="41.3710249" lon="2.3403805"><ele>0.0</ele><time>2026-04-30T09:43:12.077Z</time></trkpt><trkpt lat="41.3710658" lon="2.3404811"><ele>0.0</ele><time>2026-04-30T09:43:13.078Z</time></trkpt><trkpt lat="41.3711002" lon="2.340581"><ele>0.0</ele><time>2026-04-30T09:43:14.077Z</time></trkpt><trkpt lat="41.3711363" lon="2.3406832"><ele>0.0</ele><time>2026-04-30T09:43:15.078Z</time></trkpt><trkpt lat="41.3711764" lon="2.3407898"><ele>0.0</ele><time>2026-04-30T09:43:16.077Z</time></trkpt><trkpt lat="41.3712213" lon="2.3408932"><ele>0.0</ele><time>2026-04-30T09:43:17.077Z</time></trkpt><trkpt lat="41.3712648" lon="2.3409969"><ele>0.0</ele><time>2026-04-30T09:43:18.077Z</time></trkpt><trkpt lat="41.3713099" lon="2.3410986"><ele>0.0</ele><time>2026-04-30T09:43:19.078Z</time></trkpt><trkpt lat="41.3713534" lon="2.3411986"><ele>0.0</ele><time>2026-04-30T09:43:20.077Z</time></trkpt><trkpt lat="41.3713948" lon="2.3413014"><ele>0.0</ele><time>2026-04-30T09:43:21.078Z</time></trkpt><trkpt lat="41.3714382" lon="2.3414049"><ele>0.0</ele><time>2026-04-30T09:43:22.078Z</time></trkpt><trkpt lat="41.3714786" lon="2.3415073"><ele>0.0</ele><time>2026-04-30T09:43:23.077Z</time></trkpt><trkpt lat="41.3715293" lon="2.3416196"><ele>0.0</ele><time>2026-04-30T09:43:24.078Z</time></trkpt><trkpt lat="41.3715988" lon="2.3417129"><ele>0.0</ele><time>2026-04-30T09:43:25.078Z</time></trkpt><trkpt lat="41.3716575" lon="2.3418109"><ele>0.0</ele><time>2026-04-30T09:43:26.078Z</time></trkpt><trkpt lat="41.3717436" lon="2.3420275"><ele>0.0</ele><time>2026-04-30T09:43:28.077Z</time></trkpt><trkpt lat="41.3717853" lon="2.3421283"><ele>0.0</ele><time>2026-04-30T09:43:29.078Z</time></trkpt><trkpt lat="41.3718249" lon="2.3422301"><ele>0.0</ele><time>2026-04-30T09:43:30.077Z</time></trkpt><trkpt lat="41.371865" lon="2.3423334"><ele>0.0</ele><time>2026-04-30T09:43:31.077Z</time></trkpt><trkpt lat="41.3719081" lon="2.3424335"><ele>0.0</ele><time>2026-04-30T09:43:32.078Z</time></trkpt><trkpt lat="41.37195" lon="2.3425307"><ele>0.0</ele><time>2026-04-30T09:43:33.078Z</time></trkpt><trkpt lat="41.3719943" lon="2.342636"><ele>0.0</ele><time>2026-04-30T09:43:34.077Z</time></trkpt><trkpt lat="41.3720368" lon="2.3427384"><ele>0.0</ele><time>2026-04-30T09:43:35.078Z</time></trkpt><trkpt lat="41.3720796" lon="2.3428414"><ele>0.0</ele><time>2026-04-30T09:43:36.077Z</time></trkpt><trkpt lat="41.3721264" lon="2.3429432"><ele>0.0</ele><time>2026-04-30T09:43:37.078Z</time></trkpt><trkpt lat="41.37217" lon="2.3430411"><ele>0.0</ele><time>2026-04-30T09:43:38.077Z</time></trkpt><trkpt lat="41.3722132" lon="2.3431391"><ele>0.0</ele><time>2026-04-30T09:43:39.078Z</time></trkpt><trkpt lat="41.3722567" lon="2.3432399"><ele>0.0</ele><time>2026-04-30T09:43:40.077Z</time></trkpt><trkpt lat="41.3722982" lon="2.3433403"><ele>0.0</ele><time>2026-04-30T09:43:41.077Z</time></trkpt><trkpt lat="41.3723414" lon="2.3434428"><ele>0.0</ele><time>2026-04-30T09:43:42.078Z</time></trkpt><trkpt lat="41.3723868" lon="2.3435451"><ele>0.0</ele><time>2026-04-30T09:43:43.078Z</time></trkpt><trkpt lat="41.3724287" lon="2.3436453"><ele>0.0</ele><time>2026-04-30T09:43:44.077Z</time></trkpt><trkpt lat="41.3724688" lon="2.343744"><ele>0.0</ele><time>2026-04-30T09:43:45.078Z</time></trkpt><trkpt lat="41.3725058" lon="2.343842"><ele>0.0</ele><time>2026-04-30T09:43:46.077Z</time></trkpt><trkpt lat="41.3725302" lon="2.3439499"><ele>0.0</ele><time>2026-04-30T09:43:47.078Z</time></trkpt><trkpt lat="41.3725986" lon="2.3441566"><ele>0.0</ele><time>2026-04-30T09:43:49.078Z</time></trkpt><trkpt lat="41.372635" lon="2.3442628"><ele>0.0</ele><time>2026-04-30T09:43:50.077Z</time></trkpt><trkpt lat="41.3726698" lon="2.3443696"><ele>0.0</ele><time>2026-04-30T09:43:51.078Z</time></trkpt><trkpt lat="41.3727078" lon="2.3444766"><ele>0.0</ele><time>2026-04-30T09:43:52.077Z</time></trkpt><trkpt lat="41.3727305" lon="2.3445836"><ele>0.0</ele><time>2026-04-30T09:43:53.078Z</time></trkpt><trkpt lat="41.3727586" lon="2.3446903"><ele>0.0</ele><time>2026-04-30T09:43:54.077Z</time></trkpt><trkpt lat="41.3727929" lon="2.3447962"><ele>0.0</ele><time>2026-04-30T09:43:55.078Z</time></trkpt><trkpt lat="41.372826" lon="2.3449005"><ele>0.0</ele><time>2026-04-30T09:43:56.077Z</time></trkpt><trkpt lat="41.3728637" lon="2.3450031"><ele>0.0</ele><time>2026-04-30T09:43:57.077Z</time></trkpt><trkpt lat="41.3729067" lon="2.3451043"><ele>0.0</ele><time>2026-04-30T09:43:58.077Z</time></trkpt><trkpt lat="41.3729462" lon="2.3452056"><ele>0.0</ele><time>2026-04-30T09:43:59.078Z</time></trkpt><trkpt lat="41.3729876" lon="2.3453081"><ele>0.0</ele><time>2026-04-30T09:44:00.077Z</time></trkpt><trkpt lat="41.3730257" lon="2.3454127"><ele>0.0</ele><time>2026-04-30T09:44:01.077Z</time></trkpt><trkpt lat="41.3730665" lon="2.3455166"><ele>0.0</ele><time>2026-04-30T09:44:02.078Z</time></trkpt><trkpt lat="41.3731049" lon="2.3456215"><ele>0.0</ele><time>2026-04-30T09:44:03.077Z</time></trkpt><trkpt lat="41.3731459" lon="2.3457266"><ele>0.0</ele><time>2026-04-30T09:44:04.077Z</time></trkpt><trkpt lat="41.3731862" lon="2.3458285"><ele>0.0</ele><time>2026-04-30T09:44:05.078Z</time></trkpt><trkpt lat="41.3732261" lon="2.3459331"><ele>0.0</ele><time>2026-04-30T09:44:06.077Z</time></trkpt><trkpt lat="41.3732682" lon="2.3460306"><ele>0.0</ele><time>2026-04-30T09:44:07.077Z</time></trkpt><trkpt lat="41.3733185" lon="2.3461287"><ele>0.0</ele><time>2026-04-30T09:44:08.078Z</time></trkpt><trkpt lat="41.3734126" lon="2.3463331"><ele>0.0</ele><time>2026-04-30T09:44:10.077Z</time></trkpt><trkpt lat="41.3734563" lon="2.3464374"><ele>0.0</ele><time>2026-04-30T09:44:11.078Z</time></trkpt><trkpt lat="41.3734996" lon="2.3465443"><ele>0.0</ele><time>2026-04-30T09:44:12.078Z</time></trkpt><trkpt lat="41.373545" lon="2.3466465"><ele>0.0</ele><time>2026-04-30T09:44:13.078Z</time></trkpt><trkpt lat="41.373587" lon="2.3467453"><ele>0.0</ele><time>2026-04-30T09:44:14.077Z</time></trkpt><trkpt lat="41.3736298" lon="2.3468478"><ele>0.0</ele><time>2026-04-30T09:44:15.077Z</time></trkpt><trkpt lat="41.3736698" lon="2.3469527"><ele>0.0</ele><time>2026-04-30T09:44:16.078Z</time></trkpt><trkpt lat="41.3737098" lon="2.3470564"><ele>0.0</ele><time>2026-04-30T09:44:17.077Z</time></trkpt><trkpt lat="41.3737498" lon="2.3471626"><ele>0.0</ele><time>2026-04-30T09:44:18.077Z</time></trkpt><trkpt lat="41.3737931" lon="2.3472677"><ele>0.0</ele><time>2026-04-30T09:44:19.077Z</time></trkpt><trkpt lat="41.3738382" lon="2.3473714"><ele>0.0</ele><time>2026-04-30T09:44:20.078Z</time></trkpt><trkpt lat="41.3738834" lon="2.3474733"><ele>0.0</ele><time>2026-04-30T09:44:21.078Z</time></trkpt><trkpt lat="41.373927" lon="2.347572"><ele>0.0</ele><time>2026-04-30T09:44:22.078Z</time></trkpt><trkpt lat="41.3739687" lon="2.3476719"><ele>0.0</ele><time>2026-04-30T09:44:23.078Z</time></trkpt><trkpt lat="41.3740101" lon="2.3477717"><ele>0.0</ele><time>2026-04-30T09:44:24.077Z</time></trkpt><trkpt lat="41.3740503" lon="2.3478746"><ele>0.0</ele><time>2026-04-30T09:44:25.077Z</time></trkpt><trkpt lat="41.3740905" lon="2.347974"><ele>0.0</ele><time>2026-04-30T09:44:26.077Z</time></trkpt><trkpt lat="41.3741332" lon="2.3480765"><ele>0.0</ele><time>2026-04-30T09:44:27.077Z</time></trkpt><trkpt lat="41.3741735" lon="2.3481765"><ele>0.0</ele><time>2026-04-30T09:44:28.078Z</time></trkpt><trkpt lat="41.374212" lon="2.3482769"><ele>0.0</ele><time>2026-04-30T09:44:29.078Z</time></trkpt><trkpt lat="41.3742935" lon="2.3484799"><ele>0.0</ele><time>2026-04-30T09:44:31.078Z</time></trkpt><trkpt lat="41.3743366" lon="2.3485844"><ele>0.0</ele><time>2026-04-30T09:44:32.078Z</time></trkpt><trkpt lat="41.3743787" lon="2.3486854"><ele>0.0</ele><time>2026-04-30T09:44:33.078Z</time></trkpt><trkpt lat="41.3744201" lon="2.3487881"><ele>0.0</ele><time>2026-04-30T09:44:34.077Z</time></trkpt><trkpt lat="41.3744586" lon="2.3488931"><ele>0.0</ele><time>2026-04-30T09:44:35.077Z</time></trkpt><trkpt lat="41.3745002" lon="2.3489965"><ele>0.0</ele><time>2026-04-30T09:44:36.077Z</time></trkpt><trkpt lat="41.3745371" lon="2.3491014"><ele>0.0</ele><time>2026-04-30T09:44:37.076Z</time></trkpt><trkpt lat="41.3745648" lon="2.3492091"><ele>0.0</ele><time>2026-04-30T09:44:38.076Z</time></trkpt><trkpt lat="41.3745955" lon="2.3493176"><ele>0.0</ele><time>2026-04-30T09:44:39.077Z</time></trkpt><trkpt lat="41.3746275" lon="2.3494315"><ele>0.0</ele><time>2026-04-30T09:44:40.076Z</time></trkpt><trkpt lat="41.3746679" lon="2.3495423"><ele>0.0</ele><time>2026-04-30T09:44:41.077Z</time></trkpt><trkpt lat="41.3747038" lon="2.3496468"><ele>0.0</ele><time>2026-04-30T09:44:42.076Z</time></trkpt><trkpt lat="41.3747359" lon="2.3497503"><ele>0.0</ele><time>2026-04-30T09:44:43.076Z</time></trkpt><trkpt lat="41.3747776" lon="2.3498532"><ele>0.0</ele><time>2026-04-30T09:44:44.077Z</time></trkpt><trkpt lat="41.3748183" lon="2.3499578"><ele>0.0</ele><time>2026-04-30T09:44:45.077Z</time></trkpt><trkpt lat="41.3748585" lon="2.3500645"><ele>0.0</ele><time>2026-04-30T09:44:46.077Z</time></trkpt><trkpt lat="41.3749" lon="2.3501721"><ele>0.0</ele><time>2026-04-30T09:44:47.076Z</time></trkpt><trkpt lat="41.3749428" lon="2.3502808"><ele>0.0</ele><time>2026-04-30T09:44:48.077Z</time></trkpt><trkpt lat="41.3749844" lon="2.3503879"><ele>0.0</ele><time>2026-04-30T09:44:49.077Z</time></trkpt><trkpt lat="41.3750219" lon="2.350492"><ele>0.0</ele><time>2026-04-30T09:44:50.077Z</time></trkpt><trkpt lat="41.3750954" lon="2.350694"><ele>0.0</ele><time>2026-04-30T09:44:52.077Z</time></trkpt><trkpt lat="41.3751325" lon="2.3507983"><ele>0.0</ele><time>2026-04-30T09:44:53.077Z</time></trkpt><trkpt lat="41.3751702" lon="2.3509014"><ele>0.0</ele><time>2026-04-30T09:44:54.076Z</time></trkpt><trkpt lat="41.3752084" lon="2.3510032"><ele>0.0</ele><time>2026-04-30T09:44:55.077Z</time></trkpt><trkpt lat="41.3752471" lon="2.3511066"><ele>0.0</ele><time>2026-04-30T09:44:56.077Z</time></trkpt><trkpt lat="41.3752842" lon="2.3512088"><ele>0.0</ele><time>2026-04-30T09:44:57.076Z</time></trkpt><trkpt lat="41.3753232" lon="2.3513142"><ele>0.0</ele><time>2026-04-30T09:44:58.076Z</time></trkpt><trkpt lat="41.3753661" lon="2.3514141"><ele>0.0</ele><time>2026-04-30T09:44:59.076Z</time></trkpt><trkpt lat="41.3753965" lon="2.3515213"><ele>0.0</ele><time>2026-04-30T09:45:00.076Z</time></trkpt><trkpt lat="41.3754303" lon="2.3516281"><ele>0.0</ele><time>2026-04-30T09:45:01.076Z</time></trkpt><trkpt lat="41.3754635" lon="2.3517393"><ele>0.0</ele><time>2026-04-30T09:45:02.077Z</time></trkpt><trkpt lat="41.3754953" lon="2.3518527"><ele>0.0</ele><time>2026-04-30T09:45:03.076Z</time></trkpt><trkpt lat="41.3755295" lon="2.3519576"><ele>0.0</ele><time>2026-04-30T09:45:04.076Z</time></trkpt><trkpt lat="41.3755686" lon="2.3520638"><ele>0.0</ele><time>2026-04-30T09:45:05.076Z</time></trkpt><trkpt lat="41.3756099" lon="2.3521662"><ele>0.0</ele><time>2026-04-30T09:45:06.077Z</time></trkpt><trkpt lat="41.3756417" lon="2.3522752"><ele>0.0</ele><time>2026-04-30T09:45:07.076Z</time></trkpt><trkpt lat="41.3756713" lon="2.3523839"><ele>0.0</ele><time>2026-04-30T09:45:08.076Z</time></trkpt><trkpt lat="41.3757067" lon="2.3524861"><ele>0.0</ele><time>2026-04-30T09:45:09.076Z</time></trkpt><trkpt lat="41.3757394" lon="2.352589"><ele>0.0</ele><time>2026-04-30T09:45:10.077Z</time></trkpt><trkpt lat="41.3757812" lon="2.352691"><ele>0.0</ele><time>2026-04-30T09:45:11.077Z</time></trkpt><trkpt lat="41.3758526" lon="2.3529053"><ele>0.0</ele><time>2026-04-30T09:45:13.077Z</time></trkpt><trkpt lat="41.3758909" lon="2.3530116"><ele>0.0</ele><time>2026-04-30T09:45:14.076Z</time></trkpt><trkpt lat="41.3759196" lon="2.3531221"><ele>0.0</ele><time>2026-04-30T09:45:15.076Z</time></trkpt><trkpt lat="41.375951" lon="2.3532307"><ele>0.0</ele><time>2026-04-30T09:45:16.077Z</time></trkpt><trkpt lat="41.3759922" lon="2.3533321"><ele>0.0</ele><time>2026-04-30T09:45:17.077Z</time></trkpt><trkpt lat="41.37604" lon="2.3534325"><ele>0.0</ele><time>2026-04-30T09:45:18.076Z</time></trkpt><trkpt lat="41.3760769" lon="2.3535317"><ele>0.0</ele><time>2026-04-30T09:45:19.077Z</time></trkpt><trkpt lat="41.3761224" lon="2.35363"><ele>0.0</ele><time>2026-04-30T09:45:20.076Z</time></trkpt><trkpt lat="41.3761692" lon="2.353736"><ele>0.0</ele><time>2026-04-30T09:45:21.077Z</time></trkpt><trkpt lat="41.3762147" lon="2.3538367"><ele>0.0</ele><time>2026-04-30T09:45:22.076Z</time></trkpt><trkpt lat="41.3762752" lon="2.3539324"><ele>0.0</ele><time>2026-04-30T09:45:23.076Z</time></trkpt><trkpt lat="41.3763139" lon="2.3540405"><ele>0.0</ele><time>2026-04-30T09:45:24.076Z</time></trkpt><trkpt lat="41.3763577" lon="2.3541451"><ele>0.0</ele><time>2026-04-30T09:45:25.077Z</time></trkpt><trkpt lat="41.3763997" lon="2.3542501"><ele>0.0</ele><time>2026-04-30T09:45:26.077Z</time></trkpt><trkpt lat="41.3764396" lon="2.3543596"><ele>0.0</ele><time>2026-04-30T09:45:27.076Z</time></trkpt><trkpt lat="41.3764767" lon="2.3544636"><ele>0.0</ele><time>2026-04-30T09:45:28.076Z</time></trkpt><trkpt lat="41.3765133" lon="2.3545656"><ele>0.0</ele><time>2026-04-30T09:45:29.077Z</time></trkpt><trkpt lat="41.376556" lon="2.3546701"><ele>0.0</ele><time>2026-04-30T09:45:30.076Z</time></trkpt><trkpt lat="41.3765979" lon="2.3547722"><ele>0.0</ele><time>2026-04-30T09:45:31.076Z</time></trkpt><trkpt lat="41.3766449" lon="2.3548754"><ele>0.0</ele><time>2026-04-30T09:45:32.076Z</time></trkpt><trkpt lat="41.3767246" lon="2.3550826"><ele>0.0</ele><time>2026-04-30T09:45:34.076Z</time></trkpt><trkpt lat="41.3767621" lon="2.3551867"><ele>0.0</ele><time>2026-04-30T09:45:35.076Z</time></trkpt><trkpt lat="41.376806" lon="2.3552873"><ele>0.0</ele><time>2026-04-30T09:45:36.077Z</time></trkpt><trkpt lat="41.3768489" lon="2.3553903"><ele>0.0</ele><time>2026-04-30T09:45:37.076Z</time></trkpt><trkpt lat="41.3768921" lon="2.3554947"><ele>0.0</ele><time>2026-04-30T09:45:38.077Z</time></trkpt><trkpt lat="41.3769316" lon="2.3555996"><ele>0.0</ele><time>2026-04-30T09:45:39.077Z</time></trkpt><trkpt lat="41.3769716" lon="2.3557004"><ele>0.0</ele><time>2026-04-30T09:45:40.077Z</time></trkpt><trkpt lat="41.3770217" lon="2.3557985"><ele>0.0</ele><time>2026-04-30T09:45:41.076Z</time></trkpt><trkpt lat="41.3770617" lon="2.3558984"><ele>0.0</ele><time>2026-04-30T09:45:42.076Z</time></trkpt><trkpt lat="41.3771017" lon="2.3559999"><ele>0.0</ele><time>2026-04-30T09:45:43.076Z</time></trkpt><trkpt lat="41.3771404" lon="2.3561031"><ele>0.0</ele><time>2026-04-30T09:45:44.077Z</time></trkpt><trkpt lat="41.377177" lon="2.3562049"><ele>0.0</ele><time>2026-04-30T09:45:45.077Z</time></trkpt><trkpt lat="41.3772177" lon="2.3563067"><ele>0.0</ele><time>2026-04-30T09:45:46.076Z</time></trkpt><trkpt lat="41.3772592" lon="2.3564084"><ele>0.0</ele><time>2026-04-30T09:45:47.077Z</time></trkpt><trkpt lat="41.3773009" lon="2.3565079"><ele>0.0</ele><time>2026-04-30T09:45:48.077Z</time></trkpt><trkpt lat="41.3773383" lon="2.3566134"><ele>0.0</ele><time>2026-04-30T09:45:49.077Z</time></trkpt><trkpt lat="41.3773722" lon="2.3567241"><ele>0.0</ele><time>2026-04-30T09:45:50.076Z</time></trkpt><trkpt lat="41.3774071" lon="2.35683"><ele>0.0</ele><time>2026-04-30T09:45:51.077Z</time></trkpt><trkpt lat="41.3774506" lon="2.356938"><ele>0.0</ele><time>2026-04-30T09:45:52.076Z</time></trkpt><trkpt lat="41.3774897" lon="2.3570401"><ele>0.0</ele><time>2026-04-30T09:45:53.076Z</time></trkpt><trkpt lat="41.3775624" lon="2.3572472"><ele>0.0</ele><time>2026-04-30T09:45:55.077Z</time></trkpt><trkpt lat="41.3775883" lon="2.3573544"><ele>0.0</ele><time>2026-04-30T09:45:56.077Z</time></trkpt><trkpt lat="41.3776229" lon="2.3574586"><ele>0.0</ele><time>2026-04-30T09:45:57.076Z</time></trkpt><trkpt lat="41.3776601" lon="2.3575617"><ele>0.0</ele><time>2026-04-30T09:45:58.076Z</time></trkpt><trkpt lat="41.3777026" lon="2.3576625"><ele>0.0</ele><time>2026-04-30T09:45:59.076Z</time></trkpt><trkpt lat="41.3777444" lon="2.3577624"><ele>0.0</ele><time>2026-04-30T09:46:00.076Z</time></trkpt><trkpt lat="41.3777862" lon="2.3578592"><ele>0.0</ele><time>2026-04-30T09:46:01.076Z</time></trkpt><trkpt lat="41.3778367" lon="2.3579534"><ele>0.0</ele><time>2026-04-30T09:46:02.077Z</time></trkpt><trkpt lat="41.3778739" lon="2.3580571"><ele>0.0</ele><time>2026-04-30T09:46:03.077Z</time></trkpt><trkpt lat="41.3779064" lon="2.3581602"><ele>0.0</ele><time>2026-04-30T09:46:04.076Z</time></trkpt><trkpt lat="41.3779425" lon="2.3582598"><ele>0.0</ele><time>2026-04-30T09:46:05.076Z</time></trkpt><trkpt lat="41.3779833" lon="2.3583654"><ele>0.0</ele><time>2026-04-30T09:46:06.077Z</time></trkpt><trkpt lat="41.3780253" lon="2.3584675"><ele>0.0</ele><time>2026-04-30T09:46:07.077Z</time></trkpt><trkpt lat="41.3780631" lon="2.358574"><ele>0.0</ele><time>2026-04-30T09:46:08.076Z</time></trkpt><trkpt lat="41.3781038" lon="2.3586792"><ele>0.0</ele><time>2026-04-30T09:46:09.076Z</time></trkpt><trkpt lat="41.3781348" lon="2.3587947"><ele>0.0</ele><time>2026-04-30T09:46:10.076Z</time></trkpt><trkpt lat="41.3781714" lon="2.3589021"><ele>0.0</ele><time>2026-04-30T09:46:11.076Z</time></trkpt><trkpt lat="41.3782036" lon="2.3590079"><ele>0.0</ele><time>2026-04-30T09:46:12.077Z</time></trkpt><trkpt lat="41.3782391" lon="2.3591125"><ele>0.0</ele><time>2026-04-30T09:46:13.077Z</time></trkpt><trkpt lat="41.3782718" lon="2.3592177"><ele>0.0</ele><time>2026-04-30T09:46:14.076Z</time></trkpt><trkpt lat="41.3783499" lon="2.3594193"><ele>0.0</ele><time>2026-04-30T09:46:16.077Z</time></trkpt><trkpt lat="41.3783975" lon="2.3595207"><ele>0.0</ele><time>2026-04-30T09:46:17.077Z</time></trkpt><trkpt lat="41.3784433" lon="2.3596265"><ele>0.0</ele><time>2026-04-30T09:46:18.076Z</time></trkpt><trkpt lat="41.3784889" lon="2.3597291"><ele>0.0</ele><time>2026-04-30T09:46:19.076Z</time></trkpt><trkpt lat="41.3785313" lon="2.3598293"><ele>0.0</ele><time>2026-04-30T09:46:20.077Z</time></trkpt><trkpt lat="41.3785758" lon="2.3599261"><ele>0.0</ele><time>2026-04-30T09:46:21.077Z</time></trkpt><trkpt lat="41.378615" lon="2.360027"><ele>0.0</ele><time>2026-04-30T09:46:22.077Z</time></trkpt><trkpt lat="41.3786565" lon="2.3601285"><ele>0.0</ele><time>2026-04-30T09:46:23.077Z</time></trkpt><trkpt lat="41.3786951" lon="2.3602321"><ele>0.0</ele><time>2026-04-30T09:46:24.077Z</time></trkpt><trkpt lat="41.3787353" lon="2.3603333"><ele>0.0</ele><time>2026-04-30T09:46:25.076Z</time></trkpt><trkpt lat="41.378771" lon="2.3604382"><ele>0.0</ele><time>2026-04-30T09:46:26.076Z</time></trkpt><trkpt lat="41.3788055" lon="2.3605419"><ele>0.0</ele><time>2026-04-30T09:46:27.076Z</time></trkpt><trkpt lat="41.3788432" lon="2.3606469"><ele>0.0</ele><time>2026-04-30T09:46:28.077Z</time></trkpt><trkpt lat="41.3788787" lon="2.3607528"><ele>0.0</ele><time>2026-04-30T09:46:29.076Z</time></trkpt><trkpt lat="41.3789179" lon="2.3608596"><ele>0.0</ele><time>2026-04-30T09:46:30.077Z</time></trkpt><trkpt lat="41.3789553" lon="2.3609715"><ele>0.0</ele><time>2026-04-30T09:46:31.077Z</time></trkpt><trkpt lat="41.3789807" lon="2.3610833"><ele>0.0</ele><time>2026-04-30T09:46:32.077Z</time></trkpt><trkpt lat="41.3790148" lon="2.3611916"><ele>0.0</ele><time>2026-04-30T09:46:33.076Z</time></trkpt><trkpt lat="41.3790483" lon="2.361291"><ele>0.0</ele><time>2026-04-30T09:46:34.076Z</time></trkpt><trkpt lat="41.3790863" lon="2.3613901"><ele>0.0</ele><time>2026-04-30T09:46:35.077Z</time></trkpt><trkpt lat="41.3791331" lon="2.361492"><ele>0.0</ele><time>2026-04-30T09:46:36.076Z</time></trkpt><trkpt lat="41.3792203" lon="2.3616924"><ele>0.0</ele><time>2026-04-30T09:46:38.077Z</time></trkpt><trkpt lat="41.3792644" lon="2.361788"><ele>0.0</ele><time>2026-04-30T09:46:39.076Z</time></trkpt><trkpt lat="41.3792922" lon="2.3618889"><ele>0.0</ele><time>2026-04-30T09:46:40.076Z</time></trkpt><trkpt lat="41.3793215" lon="2.3619945"><ele>0.0</ele><time>2026-04-30T09:46:41.077Z</time></trkpt><trkpt lat="41.3793558" lon="2.3620987"><ele>0.0</ele><time>2026-04-30T09:46:42.077Z</time></trkpt><trkpt lat="41.3794015" lon="2.3622034"><ele>0.0</ele><time>2026-04-30T09:46:43.077Z</time></trkpt><trkpt lat="41.3794637" lon="2.3623055"><ele>0.0</ele><time>2026-04-30T09:46:44.076Z</time></trkpt><trkpt lat="41.3795106" lon="2.3624026"><ele>0.0</ele><time>2026-04-30T09:46:45.076Z</time></trkpt><trkpt lat="41.3795543" lon="2.3624976"><ele>0.0</ele><time>2026-04-30T09:46:46.076Z</time></trkpt><trkpt lat="41.3795962" lon="2.3625999"><ele>0.0</ele><time>2026-04-30T09:46:47.077Z</time></trkpt><trkpt lat="41.3796491" lon="2.3626949"><ele>0.0</ele><time>2026-04-30T09:46:48.076Z</time></trkpt><trkpt lat="41.3796958" lon="2.3627952"><ele>0.0</ele><time>2026-04-30T09:46:49.076Z</time></trkpt><trkpt lat="41.3797352" lon="2.3628952"><ele>0.0</ele><time>2026-04-30T09:46:50.076Z</time></trkpt><trkpt lat="41.3797754" lon="2.3629997"><ele>0.0</ele><time>2026-04-30T09:46:51.077Z</time></trkpt><trkpt lat="41.3798106" lon="2.3630958"><ele>0.0</ele><time>2026-04-30T09:46:52.076Z</time></trkpt><trkpt lat="41.3798594" lon="2.3631997"><ele>0.0</ele><time>2026-04-30T09:46:53.076Z</time></trkpt><trkpt lat="41.3799059" lon="2.3633058"><ele>0.0</ele><time>2026-04-30T09:46:54.077Z</time></trkpt><trkpt lat="41.3799613" lon="2.3634068"><ele>0.0</ele><time>2026-04-30T09:46:55.077Z</time></trkpt><trkpt lat="41.3800086" lon="2.3635022"><ele>0.0</ele><time>2026-04-30T09:46:56.076Z</time></trkpt><trkpt lat="41.3800552" lon="2.3636034"><ele>0.0</ele><time>2026-04-30T09:46:57.077Z</time></trkpt><trkpt lat="41.380102" lon="2.3637047"><ele>0.0</ele><time>2026-04-30T09:46:58.076Z</time></trkpt><trkpt lat="41.3801919" lon="2.363903"><ele>0.0</ele><time>2026-04-30T09:47:00.076Z</time></trkpt><trkpt lat="41.3802446" lon="2.3639999"><ele>0.0</ele><time>2026-04-30T09:47:01.076Z</time></trkpt><trkpt lat="41.380282" lon="2.3641008"><ele>0.0</ele><time>2026-04-30T09:47:02.077Z</time></trkpt><trkpt lat="41.3803227" lon="2.3642041"><ele>0.0</ele><time>2026-04-30T09:47:03.077Z</time></trkpt><trkpt lat="41.3803773" lon="2.3643043"><ele>0.0</ele><time>2026-04-30T09:47:04.077Z</time></trkpt><trkpt lat="41.3804225" lon="2.3644071"><ele>0.0</ele><time>2026-04-30T09:47:05.077Z</time></trkpt><trkpt lat="41.3804633" lon="2.3645085"><ele>0.0</ele><time>2026-04-30T09:47:06.077Z</time></trkpt><trkpt lat="41.3805224" lon="2.3646114"><ele>0.0</ele><time>2026-04-30T09:47:07.077Z</time></trkpt><trkpt lat="41.3805797" lon="2.3647048"><ele>0.0</ele><time>2026-04-30T09:47:08.077Z</time></trkpt><trkpt lat="41.380622" lon="2.3648109"><ele>0.0</ele><time>2026-04-30T09:47:09.077Z</time></trkpt><trkpt lat="41.3806734" lon="2.3649125"><ele>0.0</ele><time>2026-04-30T09:47:10.077Z</time></trkpt><trkpt lat="41.3807166" lon="2.3650149"><ele>0.0</ele><time>2026-04-30T09:47:11.077Z</time></trkpt><trkpt lat="41.3807512" lon="2.3651183"><ele>0.0</ele><time>2026-04-30T09:47:12.077Z</time></trkpt><trkpt lat="41.3807885" lon="2.365219"><ele>0.0</ele><time>2026-04-30T09:47:13.076Z</time></trkpt><trkpt lat="41.3808295" lon="2.3653158"><ele>0.0</ele><time>2026-04-30T09:47:14.076Z</time></trkpt><trkpt lat="41.3808779" lon="2.3654142"><ele>0.0</ele><time>2026-04-30T09:47:15.077Z</time></trkpt><trkpt lat="41.3809179" lon="2.3655196"><ele>0.0</ele><time>2026-04-30T09:47:16.077Z</time></trkpt><trkpt lat="41.3809651" lon="2.3656203"><ele>0.0</ele><time>2026-04-30T09:47:17.076Z</time></trkpt><trkpt lat="41.3810014" lon="2.3657227"><ele>0.0</ele><time>2026-04-30T09:47:18.077Z</time></trkpt><trkpt lat="41.381039" lon="2.3658288"><ele>0.0</ele><time>2026-04-30T09:47:19.076Z</time></trkpt><trkpt lat="41.3811239" lon="2.366027"><ele>0.0</ele><time>2026-04-30T09:47:21.077Z</time></trkpt><trkpt lat="41.3811697" lon="2.3661277"><ele>0.0</ele><time>2026-04-30T09:47:22.077Z</time></trkpt><trkpt lat="41.3812111" lon="2.3662265"><ele>0.0</ele><time>2026-04-30T09:47:23.077Z</time></trkpt><trkpt lat="41.381257" lon="2.3663264"><ele>0.0</ele><time>2026-04-30T09:47:24.076Z</time></trkpt><trkpt lat="41.381298" lon="2.3664293"><ele>0.0</ele><time>2026-04-30T09:47:25.077Z</time></trkpt><trkpt lat="41.3813355" lon="2.3665339"><ele>0.0</ele><time>2026-04-30T09:47:26.076Z</time></trkpt><trkpt lat="41.381375" lon="2.3666334"><ele>0.0</ele><time>2026-04-30T09:47:27.076Z</time></trkpt><trkpt lat="41.3814175" lon="2.366735"><ele>0.0</ele><time>2026-04-30T09:47:28.076Z</time></trkpt><trkpt lat="41.3814576" lon="2.3668371"><ele>0.0</ele><time>2026-04-30T09:47:29.077Z</time></trkpt><trkpt lat="41.3814928" lon="2.3669442"><ele>0.0</ele><time>2026-04-30T09:47:30.076Z</time></trkpt><trkpt lat="41.3815334" lon="2.367046"><ele>0.0</ele><time>2026-04-30T09:47:31.077Z</time></trkpt><trkpt lat="41.3815676" lon="2.367152"><ele>0.0</ele><time>2026-04-30T09:47:32.077Z</time></trkpt><trkpt lat="41.381602" lon="2.3672549"><ele>0.0</ele><time>2026-04-30T09:47:33.076Z</time></trkpt><trkpt lat="41.3816367" lon="2.3673612"><ele>0.0</ele><time>2026-04-30T09:47:34.076Z</time></trkpt><trkpt lat="41.3816805" lon="2.3674675"><ele>0.0</ele><time>2026-04-30T09:47:35.077Z</time></trkpt><trkpt lat="41.3817327" lon="2.3675688"><ele>0.0</ele><time>2026-04-30T09:47:36.076Z</time></trkpt><trkpt lat="41.3817757" lon="2.3676692"><ele>0.0</ele><time>2026-04-30T09:47:37.076Z</time></trkpt><trkpt lat="41.381816" lon="2.3677746"><ele>0.0</ele><time>2026-04-30T09:47:38.076Z</time></trkpt><trkpt lat="41.3818622" lon="2.3678729"><ele>0.0</ele><time>2026-04-30T09:47:39.076Z</time></trkpt><trkpt lat="41.3819021" lon="2.3679721"><ele>0.0</ele><time>2026-04-30T09:47:40.076Z</time></trkpt><trkpt lat="41.3819449" lon="2.3680686"><ele>0.0</ele><time>2026-04-30T09:47:41.076Z</time></trkpt><trkpt lat="41.3820321" lon="2.3682646"><ele>0.0</ele><time>2026-04-30T09:47:43.077Z</time></trkpt><trkpt lat="41.3820683" lon="2.3683679"><ele>0.0</ele><time>2026-04-30T09:47:44.077Z</time></trkpt><trkpt lat="41.3821001" lon="2.3684733"><ele>0.0</ele><time>2026-04-30T09:47:45.076Z</time></trkpt><trkpt lat="41.3821354" lon="2.3685785"><ele>0.0</ele><time>2026-04-30T09:47:46.077Z</time></trkpt><trkpt lat="41.3821689" lon="2.3686834"><ele>0.0</ele><time>2026-04-30T09:47:47.077Z</time></trkpt><trkpt lat="41.3822081" lon="2.3687853"><ele>0.0</ele><time>2026-04-30T09:47:48.076Z</time></trkpt><trkpt lat="41.3822541" lon="2.368885"><ele>0.0</ele><time>2026-04-30T09:47:49.077Z</time></trkpt><trkpt lat="41.3822979" lon="2.3689958"><ele>0.0</ele><time>2026-04-30T09:47:50.077Z</time></trkpt><trkpt lat="41.3823445" lon="2.3690947"><ele>0.0</ele><time>2026-04-30T09:47:51.076Z</time></trkpt><trkpt lat="41.3823873" lon="2.3692"><ele>0.0</ele><time>2026-04-30T09:47:52.076Z</time></trkpt><trkpt lat="41.382424" lon="2.3693067"><ele>0.0</ele><time>2026-04-30T09:47:53.076Z</time></trkpt><trkpt lat="41.3824631" lon="2.3694052"><ele>0.0</ele><time>2026-04-30T09:47:54.076Z</time></trkpt><trkpt lat="41.3825102" lon="2.3695048"><ele>0.0</ele><time>2026-04-30T09:47:55.076Z</time></trkpt><trkpt lat="41.3825585" lon="2.3696074"><ele>0.0</ele><time>2026-04-30T09:47:56.077Z</time></trkpt><trkpt lat="41.382604" lon="2.3697071"><ele>0.0</ele><time>2026-04-30T09:47:57.076Z</time></trkpt><trkpt lat="41.3826472" lon="2.3698013"><ele>0.0</ele><time>2026-04-30T09:47:58.076Z</time></trkpt><trkpt lat="41.3826897" lon="2.3698961"><ele>0.0</ele><time>2026-04-30T09:47:59.077Z</time></trkpt><trkpt lat="41.3827303" lon="2.3699939"><ele>0.0</ele><time>2026-04-30T09:48:00.076Z</time></trkpt><trkpt lat="41.382766" lon="2.3700926"><ele>0.0</ele><time>2026-04-30T09:48:01.076Z</time></trkpt><trkpt lat="41.3828484" lon="2.3703032"><ele>0.0</ele><time>2026-04-30T09:48:03.077Z</time></trkpt><trkpt lat="41.3828988" lon="2.3704098"><ele>0.0</ele><time>2026-04-30T09:48:04.077Z</time></trkpt><trkpt lat="41.3829392" lon="2.3705163"><ele>0.0</ele><time>2026-04-30T09:48:05.077Z</time></trkpt><trkpt lat="41.382979" lon="2.370611"><ele>0.0</ele><time>2026-04-30T09:48:06.076Z</time></trkpt><trkpt lat="41.383022" lon="2.3707057"><ele>0.0</ele><time>2026-04-30T09:48:07.077Z</time></trkpt><trkpt lat="41.3830615" lon="2.3708092"><ele>0.0</ele><time>2026-04-30T09:48:08.076Z</time></trkpt><trkpt lat="41.3831013" lon="2.3709113"><ele>0.0</ele><time>2026-04-30T09:48:09.076Z</time></trkpt><trkpt lat="41.3831427" lon="2.371013"><ele>0.0</ele><time>2026-04-30T09:48:10.076Z</time></trkpt><trkpt lat="41.3831811" lon="2.3711187"><ele>0.0</ele><time>2026-04-30T09:48:11.077Z</time></trkpt><trkpt lat="41.3832249" lon="2.3712225"><ele>0.0</ele><time>2026-04-30T09:48:12.077Z</time></trkpt><trkpt lat="41.3832631" lon="2.3713238"><ele>0.0</ele><time>2026-04-30T09:48:13.077Z</time></trkpt><trkpt lat="41.383298" lon="2.37143"><ele>0.0</ele><time>2026-04-30T09:48:14.076Z</time></trkpt><trkpt lat="41.3833316" lon="2.3715296"><ele>0.0</ele><time>2026-04-30T09:48:15.076Z</time></trkpt><trkpt lat="41.3833688" lon="2.3716308"><ele>0.0</ele><time>2026-04-30T09:48:16.076Z</time></trkpt><trkpt lat="41.3834105" lon="2.3717347"><ele>0.0</ele><time>2026-04-30T09:48:17.076Z</time></trkpt><trkpt lat="41.3834533" lon="2.3718362"><ele>0.0</ele><time>2026-04-30T09:48:18.077Z</time></trkpt><trkpt lat="41.3834981" lon="2.3719411"><ele>0.0</ele><time>2026-04-30T09:48:19.077Z</time></trkpt><trkpt lat="41.3835347" lon="2.3720475"><ele>0.0</ele><time>2026-04-30T09:48:20.077Z</time></trkpt><trkpt lat="41.3835741" lon="2.3721498"><ele>0.0</ele><time>2026-04-30T09:48:21.076Z</time></trkpt><trkpt lat="41.383614" lon="2.3722522"><ele>0.0</ele><time>2026-04-30T09:48:22.076Z</time></trkpt><trkpt lat="41.3836959" lon="2.3724561"><ele>0.0</ele><time>2026-04-30T09:48:24.077Z</time></trkpt><trkpt lat="41.383733" lon="2.3725522"><ele>0.0</ele><time>2026-04-30T09:48:25.077Z</time></trkpt><trkpt lat="41.3837664" lon="2.3726587"><ele>0.0</ele><time>2026-04-30T09:48:26.077Z</time></trkpt><trkpt lat="41.3838038" lon="2.3727632"><ele>0.0</ele><time>2026-04-30T09:48:27.077Z</time></trkpt><trkpt lat="41.3838432" lon="2.3728663"><ele>0.0</ele><time>2026-04-30T09:48:28.076Z</time></trkpt><trkpt lat="41.3838817" lon="2.3729696"><ele>0.0</ele><time>2026-04-30T09:48:29.077Z</time></trkpt><trkpt lat="41.3839225" lon="2.373076"><ele>0.0</ele><time>2026-04-30T09:48:30.076Z</time></trkpt><trkpt lat="41.383962" lon="2.3731786"><ele>0.0</ele><time>2026-04-30T09:48:31.077Z</time></trkpt><trkpt lat="41.3839989" lon="2.3732848"><ele>0.0</ele><time>2026-04-30T09:48:32.077Z</time></trkpt><trkpt lat="41.384039" lon="2.3733868"><ele>0.0</ele><time>2026-04-30T09:48:33.076Z</time></trkpt><trkpt lat="41.3840845" lon="2.3734885"><ele>0.0</ele><time>2026-04-30T09:48:34.076Z</time></trkpt><trkpt lat="41.3841254" lon="2.3735903"><ele>0.0</ele><time>2026-04-30T09:48:35.077Z</time></trkpt><trkpt lat="41.3841687" lon="2.3736904"><ele>0.0</ele><time>2026-04-30T09:48:36.077Z</time></trkpt><trkpt lat="41.384208" lon="2.3737933"><ele>0.0</ele><time>2026-04-30T09:48:37.076Z</time></trkpt><trkpt lat="41.3842432" lon="2.3738927"><ele>0.0</ele><time>2026-04-30T09:48:38.077Z</time></trkpt><trkpt lat="41.3842833" lon="2.3739975"><ele>0.0</ele><time>2026-04-30T09:48:39.076Z</time></trkpt><trkpt lat="41.3843251" lon="2.3741026"><ele>0.0</ele><time>2026-04-30T09:48:40.076Z</time></trkpt><trkpt lat="41.3843656" lon="2.3742064"><ele>0.0</ele><time>2026-04-30T09:48:41.076Z</time></trkpt><trkpt lat="41.3844029" lon="2.3743112"><ele>0.0</ele><time>2026-04-30T09:48:42.077Z</time></trkpt><trkpt lat="41.3844422" lon="2.3744118"><ele>0.0</ele><time>2026-04-30T09:48:43.076Z</time></trkpt><trkpt lat="41.3845255" lon="2.3746133"><ele>0.0</ele><time>2026-04-30T09:48:45.077Z</time></trkpt><trkpt lat="41.3845641" lon="2.3747195"><ele>0.0</ele><time>2026-04-30T09:48:46.076Z</time></trkpt><trkpt lat="41.3846027" lon="2.374826"><ele>0.0</ele><time>2026-04-30T09:48:47.076Z</time></trkpt><trkpt lat="41.3846451" lon="2.3749214"><ele>0.0</ele><time>2026-04-30T09:48:48.076Z</time></trkpt><trkpt lat="41.3846869" lon="2.3750249"><ele>0.0</ele><time>2026-04-30T09:48:49.077Z</time></trkpt><trkpt lat="41.3847297" lon="2.3751284"><ele>0.0</ele><time>2026-04-30T09:48:50.077Z</time></trkpt><trkpt lat="41.3847896" lon="2.3752278"><ele>0.0</ele><time>2026-04-30T09:48:51.077Z</time></trkpt><trkpt lat="41.3848358" lon="2.3753303"><ele>0.0</ele><time>2026-04-30T09:48:52.077Z</time></trkpt><trkpt lat="41.384881" lon="2.375429"><ele>0.0</ele><time>2026-04-30T09:48:53.077Z</time></trkpt><trkpt lat="41.3849207" lon="2.3755315"><ele>0.0</ele><time>2026-04-30T09:48:54.076Z</time></trkpt><trkpt lat="41.3849607" lon="2.375638"><ele>0.0</ele><time>2026-04-30T09:48:55.077Z</time></trkpt><trkpt lat="41.3849978" lon="2.3757418"><ele>0.0</ele><time>2026-04-30T09:48:56.076Z</time></trkpt><trkpt lat="41.3850229" lon="2.375843"><ele>0.0</ele><time>2026-04-30T09:48:57.077Z</time></trkpt><trkpt lat="41.3850533" lon="2.3759436"><ele>0.0</ele><time>2026-04-30T09:48:58.077Z</time></trkpt><trkpt lat="41.3850911" lon="2.3760465"><ele>0.0</ele><time>2026-04-30T09:48:59.076Z</time></trkpt><trkpt lat="41.3851263" lon="2.3761527"><ele>0.0</ele><time>2026-04-30T09:49:00.077Z</time></trkpt><trkpt lat="41.3851613" lon="2.3762506"><ele>0.0</ele><time>2026-04-30T09:49:01.077Z</time></trkpt><trkpt lat="41.3851989" lon="2.3763534"><ele>0.0</ele><time>2026-04-30T09:49:02.076Z</time></trkpt><trkpt lat="41.38524" lon="2.376458"><ele>0.0</ele><time>2026-04-30T09:49:03.077Z</time></trkpt><trkpt lat="41.3852835" lon="2.3765659"><ele>0.0</ele><time>2026-04-30T09:49:04.076Z</time></trkpt><trkpt lat="41.3853755" lon="2.3767652"><ele>0.0</ele><time>2026-04-30T09:49:06.075Z</time></trkpt><trkpt lat="41.385424" lon="2.3768621"><ele>0.0</ele><time>2026-04-30T09:49:07.076Z</time></trkpt><trkpt lat="41.3854699" lon="2.3769615"><ele>0.0</ele><time>2026-04-30T09:49:08.076Z</time></trkpt><trkpt lat="41.3855115" lon="2.3770617"><ele>0.0</ele><time>2026-04-30T09:49:09.076Z</time></trkpt><trkpt lat="41.3855501" lon="2.3771684"><ele>0.0</ele><time>2026-04-30T09:49:10.076Z</time></trkpt><trkpt lat="41.385593" lon="2.377273"><ele>0.0</ele><time>2026-04-30T09:49:11.076Z</time></trkpt><trkpt lat="41.385638" lon="2.3773781"><ele>0.0</ele><time>2026-04-30T09:49:12.075Z</time></trkpt><trkpt lat="41.3856844" lon="2.3774803"><ele>0.0</ele><time>2026-04-30T09:49:13.076Z</time></trkpt><trkpt lat="41.3857267" lon="2.3775774"><ele>0.0</ele><time>2026-04-30T09:49:14.075Z</time></trkpt><trkpt lat="41.3857753" lon="2.3776794"><ele>0.0</ele><time>2026-04-30T09:49:15.076Z</time></trkpt><trkpt lat="41.3858212" lon="2.3777813"><ele>0.0</ele><time>2026-04-30T09:49:16.076Z</time></trkpt><trkpt lat="41.3858635" lon="2.3778773"><ele>0.0</ele><time>2026-04-30T09:49:17.075Z</time></trkpt><trkpt lat="41.3859037" lon="2.3779779"><ele>0.0</ele><time>2026-04-30T09:49:18.076Z</time></trkpt><trkpt lat="41.3859477" lon="2.3780786"><ele>0.0</ele><time>2026-04-30T09:49:19.076Z</time></trkpt><trkpt lat="41.3859869" lon="2.3781833"><ele>0.0</ele><time>2026-04-30T09:49:20.075Z</time></trkpt><trkpt lat="41.3860225" lon="2.378284"><ele>0.0</ele><time>2026-04-30T09:49:21.076Z</time></trkpt><trkpt lat="41.3860588" lon="2.3783825"><ele>0.0</ele><time>2026-04-30T09:49:22.075Z</time></trkpt><trkpt lat="41.3860912" lon="2.3784878"><ele>0.0</ele><time>2026-04-30T09:49:23.076Z</time></trkpt><trkpt lat="41.3861331" lon="2.37859"><ele>0.0</ele><time>2026-04-30T09:49:24.076Z</time></trkpt><trkpt lat="41.3861647" lon="2.3786885"><ele>0.0</ele><time>2026-04-30T09:49:25.076Z</time></trkpt><trkpt lat="41.3862477" lon="2.3788931"><ele>0.0</ele><time>2026-04-30T09:49:27.075Z</time></trkpt><trkpt lat="41.3862984" lon="2.3789905"><ele>0.0</ele><time>2026-04-30T09:49:28.075Z</time></trkpt><trkpt lat="41.3863515" lon="2.379092"><ele>0.0</ele><time>2026-04-30T09:49:29.076Z</time></trkpt><trkpt lat="41.3864036" lon="2.3791878"><ele>0.0</ele><time>2026-04-30T09:49:30.075Z</time></trkpt><trkpt lat="41.3864492" lon="2.3792873"><ele>0.0</ele><time>2026-04-30T09:49:31.076Z</time></trkpt><trkpt lat="41.3864946" lon="2.3793873"><ele>0.0</ele><time>2026-04-30T09:49:32.076Z</time></trkpt><trkpt lat="41.3865324" lon="2.379487"><ele>0.0</ele><time>2026-04-30T09:49:33.076Z</time></trkpt><trkpt lat="41.386571" lon="2.3795893"><ele>0.0</ele><time>2026-04-30T09:49:34.075Z</time></trkpt><trkpt lat="41.3866116" lon="2.3796963"><ele>0.0</ele><time>2026-04-30T09:49:35.075Z</time></trkpt><trkpt lat="41.3866531" lon="2.3798002"><ele>0.0</ele><time>2026-04-30T09:49:36.076Z</time></trkpt><trkpt lat="41.3866991" lon="2.3799006"><ele>0.0</ele><time>2026-04-30T09:49:37.075Z</time></trkpt><trkpt lat="41.3867458" lon="2.3800002"><ele>0.0</ele><time>2026-04-30T09:49:38.076Z</time></trkpt><trkpt lat="41.3867843" lon="2.3801044"><ele>0.0</ele><time>2026-04-30T09:49:39.076Z</time></trkpt><trkpt lat="41.3868282" lon="2.3802077"><ele>0.0</ele><time>2026-04-30T09:49:40.076Z</time></trkpt><trkpt lat="41.3868706" lon="2.3803114"><ele>0.0</ele><time>2026-04-30T09:49:41.075Z</time></trkpt><trkpt lat="41.3869151" lon="2.3804137"><ele>0.0</ele><time>2026-04-30T09:49:42.075Z</time></trkpt><trkpt lat="41.3869583" lon="2.3805168"><ele>0.0</ele><time>2026-04-30T09:49:43.075Z</time></trkpt><trkpt lat="41.3870016" lon="2.3806206"><ele>0.0</ele><time>2026-04-30T09:49:44.076Z</time></trkpt><trkpt lat="41.3870594" lon="2.3807151"><ele>0.0</ele><time>2026-04-30T09:49:45.076Z</time></trkpt><trkpt lat="41.3871004" lon="2.3808159"><ele>0.0</ele><time>2026-04-30T09:49:46.075Z</time></trkpt><trkpt lat="41.3871744" lon="2.3810219"><ele>0.0</ele><time>2026-04-30T09:49:48.076Z</time></trkpt><trkpt lat="41.3872196" lon="2.3811272"><ele>0.0</ele><time>2026-04-30T09:49:49.075Z</time></trkpt><trkpt lat="41.3872603" lon="2.3812252"><ele>0.0</ele><time>2026-04-30T09:49:50.076Z</time></trkpt><trkpt lat="41.3872944" lon="2.3813294"><ele>0.0</ele><time>2026-04-30T09:49:51.076Z</time></trkpt><trkpt lat="41.3873362" lon="2.3814273"><ele>0.0</ele><time>2026-04-30T09:49:52.076Z</time></trkpt><trkpt lat="41.387372" lon="2.3815322"><ele>0.0</ele><time>2026-04-30T09:49:53.075Z</time></trkpt><trkpt lat="41.3874085" lon="2.3816363"><ele>0.0</ele><time>2026-04-30T09:49:54.076Z</time></trkpt><trkpt lat="41.3874439" lon="2.3817387"><ele>0.0</ele><time>2026-04-30T09:49:55.075Z</time></trkpt><trkpt lat="41.3874778" lon="2.3818461"><ele>0.0</ele><time>2026-04-30T09:49:56.075Z</time></trkpt><trkpt lat="41.3875112" lon="2.381953"><ele>0.0</ele><time>2026-04-30T09:49:57.076Z</time></trkpt><trkpt lat="41.3875412" lon="2.3820554"><ele>0.0</ele><time>2026-04-30T09:49:58.075Z</time></trkpt><trkpt lat="41.387584" lon="2.3821512"><ele>0.0</ele><time>2026-04-30T09:49:59.075Z</time></trkpt><trkpt lat="41.3876304" lon="2.3822476"><ele>0.0</ele><time>2026-04-30T09:50:00.076Z</time></trkpt><trkpt lat="41.3876731" lon="2.3823497"><ele>0.0</ele><time>2026-04-30T09:50:01.075Z</time></trkpt><trkpt lat="41.3877135" lon="2.382452"><ele>0.0</ele><time>2026-04-30T09:50:02.076Z</time></trkpt><trkpt lat="41.3877537" lon="2.3825548"><ele>0.0</ele><time>2026-04-30T09:50:03.076Z</time></trkpt><trkpt lat="41.387797" lon="2.3826535"><ele>0.0</ele><time>2026-04-30T09:50:04.076Z</time></trkpt><trkpt lat="41.3878358" lon="2.3827534"><ele>0.0</ele><time>2026-04-30T09:50:05.075Z</time></trkpt><trkpt lat="41.3878751" lon="2.3828547"><ele>0.0</ele><time>2026-04-30T09:50:06.076Z</time></trkpt><trkpt lat="41.3879196" lon="2.3829594"><ele>0.0</ele><time>2026-04-30T09:50:07.075Z</time></trkpt><trkpt lat="41.3880039" lon="2.3831603"><ele>0.0</ele><time>2026-04-30T09:50:09.076Z</time></trkpt><trkpt lat="41.3880453" lon="2.3832599"><ele>0.0</ele><time>2026-04-30T09:50:10.075Z</time></trkpt><trkpt lat="41.3880827" lon="2.3833641"><ele>0.0</ele><time>2026-04-30T09:50:11.075Z</time></trkpt><trkpt lat="41.3881221" lon="2.383467"><ele>0.0</ele><time>2026-04-30T09:50:12.075Z</time></trkpt><trkpt lat="41.3881635" lon="2.3835671"><ele>0.0</ele><time>2026-04-30T09:50:13.075Z</time></trkpt><trkpt lat="41.3882093" lon="2.3836655"><ele>0.0</ele><time>2026-04-30T09:50:14.076Z</time></trkpt><trkpt lat="41.3882517" lon="2.3837627"><ele>0.0</ele><time>2026-04-30T09:50:15.075Z</time></trkpt><trkpt lat="41.388289" lon="2.3838588"><ele>0.0</ele><time>2026-04-30T09:50:16.075Z</time></trkpt><trkpt lat="41.3883326" lon="2.3839592"><ele>0.0</ele><time>2026-04-30T09:50:17.076Z</time></trkpt><trkpt lat="41.3883778" lon="2.3840582"><ele>0.0</ele><time>2026-04-30T09:50:18.075Z</time></trkpt><trkpt lat="41.3884204" lon="2.384161"><ele>0.0</ele><time>2026-04-30T09:50:19.075Z</time></trkpt><trkpt lat="41.3884651" lon="2.3842659"><ele>0.0</ele><time>2026-04-30T09:50:20.076Z</time></trkpt><trkpt lat="41.3885057" lon="2.384365"><ele>0.0</ele><time>2026-04-30T09:50:21.075Z</time></trkpt><trkpt lat="41.3885443" lon="2.384471"><ele>0.0</ele><time>2026-04-30T09:50:22.075Z</time></trkpt><trkpt lat="41.3885911" lon="2.3845709"><ele>0.0</ele><time>2026-04-30T09:50:23.075Z</time></trkpt><trkpt lat="41.3886246" lon="2.384672"><ele>0.0</ele><time>2026-04-30T09:50:24.075Z</time></trkpt><trkpt lat="41.3886606" lon="2.3847763"><ele>0.0</ele><time>2026-04-30T09:50:25.075Z</time></trkpt><trkpt lat="41.3887068" lon="2.3848758"><ele>0.0</ele><time>2026-04-30T09:50:26.076Z</time></trkpt><trkpt lat="41.3887538" lon="2.3849802"><ele>0.0</ele><time>2026-04-30T09:50:27.075Z</time></trkpt><trkpt lat="41.3888137" lon="2.3850848"><ele>0.0</ele><time>2026-04-30T09:50:28.075Z</time></trkpt><trkpt lat="41.3888986" lon="2.3852917"><ele>0.0</ele><time>2026-04-30T09:50:30.075Z</time></trkpt><trkpt lat="41.3889388" lon="2.3853977"><ele>0.0</ele><time>2026-04-30T09:50:31.075Z</time></trkpt><trkpt lat="41.3889775" lon="2.3855025"><ele>0.0</ele><time>2026-04-30T09:50:32.075Z</time></trkpt><trkpt lat="41.3890188" lon="2.3856049"><ele>0.0</ele><time>2026-04-30T09:50:33.075Z</time></trkpt><trkpt lat="41.3890577" lon="2.3857068"><ele>0.0</ele><time>2026-04-30T09:50:34.075Z</time></trkpt><trkpt lat="41.3891" lon="2.3858071"><ele>0.0</ele><time>2026-04-30T09:50:35.075Z</time></trkpt><trkpt lat="41.389143" lon="2.3859128"><ele>0.0</ele><time>2026-04-30T09:50:36.076Z</time></trkpt><trkpt lat="41.3891867" lon="2.3860205"><ele>0.0</ele><time>2026-04-30T09:50:37.075Z</time></trkpt><trkpt lat="41.389226" lon="2.3861243"><ele>0.0</ele><time>2026-04-30T09:50:38.076Z</time></trkpt><trkpt lat="41.3892681" lon="2.3862289"><ele>0.0</ele><time>2026-04-30T09:50:39.075Z</time></trkpt><trkpt lat="41.3893083" lon="2.3863285"><ele>0.0</ele><time>2026-04-30T09:50:40.075Z</time></trkpt><trkpt lat="41.3893456" lon="2.3864294"><ele>0.0</ele><time>2026-04-30T09:50:41.076Z</time></trkpt><trkpt lat="41.3893854" lon="2.3865358"><ele>0.0</ele><time>2026-04-30T09:50:42.076Z</time></trkpt><trkpt lat="41.3894341" lon="2.3866267"><ele>0.0</ele><time>2026-04-30T09:50:43.076Z</time></trkpt><trkpt lat="41.3894685" lon="2.3867223"><ele>0.0</ele><time>2026-04-30T09:50:44.076Z</time></trkpt><trkpt lat="41.3895086" lon="2.3868202"><ele>0.0</ele><time>2026-04-30T09:50:45.075Z</time></trkpt><trkpt lat="41.389546" lon="2.3869214"><ele>0.0</ele><time>2026-04-30T09:50:46.075Z</time></trkpt><trkpt lat="41.3895884" lon="2.3870187"><ele>0.0</ele><time>2026-04-30T09:50:47.075Z</time></trkpt><trkpt lat="41.389633" lon="2.3871197"><ele>0.0</ele><time>2026-04-30T09:50:48.075Z</time></trkpt><trkpt lat="41.3896778" lon="2.3872214"><ele>0.0</ele><time>2026-04-30T09:50:49.075Z</time></trkpt><trkpt lat="41.3897649" lon="2.3874311"><ele>0.0</ele><time>2026-04-30T09:50:51.075Z</time></trkpt><trkpt lat="41.3898073" lon="2.38753"><ele>0.0</ele><time>2026-04-30T09:50:52.075Z</time></trkpt><trkpt lat="41.389853" lon="2.3876302"><ele>0.0</ele><time>2026-04-30T09:50:53.075Z</time></trkpt><trkpt lat="41.3899008" lon="2.3877257"><ele>0.0</ele><time>2026-04-30T09:50:54.075Z</time></trkpt><trkpt lat="41.3899392" lon="2.3878267"><ele>0.0</ele><time>2026-04-30T09:50:55.075Z</time></trkpt><trkpt lat="41.3899771" lon="2.3879311"><ele>0.0</ele><time>2026-04-30T09:50:56.076Z</time></trkpt><trkpt lat="41.3900152" lon="2.3880333"><ele>0.0</ele><time>2026-04-30T09:50:57.075Z</time></trkpt><trkpt lat="41.3900564" lon="2.3881367"><ele>0.0</ele><time>2026-04-30T09:50:58.076Z</time></trkpt><trkpt lat="41.3900924" lon="2.3882411"><ele>0.0</ele><time>2026-04-30T09:50:59.076Z</time></trkpt><trkpt lat="41.3901417" lon="2.3883389"><ele>0.0</ele><time>2026-04-30T09:51:00.076Z</time></trkpt><trkpt lat="41.3901804" lon="2.3884396"><ele>0.0</ele><time>2026-04-30T09:51:01.076Z</time></trkpt><trkpt lat="41.3902116" lon="2.3885415"><ele>0.0</ele><time>2026-04-30T09:51:02.076Z</time></trkpt><trkpt lat="41.3902474" lon="2.3886502"><ele>0.0</ele><time>2026-04-30T09:51:03.076Z</time></trkpt><trkpt lat="41.3902843" lon="2.3887536"><ele>0.0</ele><time>2026-04-30T09:51:04.076Z</time></trkpt><trkpt lat="41.3903281" lon="2.3888553"><ele>0.0</ele><time>2026-04-30T09:51:05.075Z</time></trkpt><trkpt lat="41.3903716" lon="2.3889583"><ele>0.0</ele><time>2026-04-30T09:51:06.076Z</time></trkpt><trkpt lat="41.3904137" lon="2.3890601"><ele>0.0</ele><time>2026-04-30T09:51:07.075Z</time></trkpt><trkpt lat="41.3904522" lon="2.3891632"><ele>0.0</ele><time>2026-04-30T09:51:08.075Z</time></trkpt><trkpt lat="41.3904966" lon="2.3892635"><ele>0.0</ele><time>2026-04-30T09:51:09.075Z</time></trkpt><trkpt lat="41.3905383" lon="2.3893649"><ele>0.0</ele><time>2026-04-30T09:51:10.076Z</time></trkpt><trkpt lat="41.3906144" lon="2.3895649"><ele>0.0</ele><time>2026-04-30T09:51:12.076Z</time></trkpt><trkpt lat="41.3906521" lon="2.3896614"><ele>0.0</ele><time>2026-04-30T09:51:13.076Z</time></trkpt><trkpt lat="41.3906877" lon="2.3897641"><ele>0.0</ele><time>2026-04-30T09:51:14.075Z</time></trkpt><trkpt lat="41.390724" lon="2.3898635"><ele>0.0</ele><time>2026-04-30T09:51:15.076Z</time></trkpt><trkpt lat="41.390766" lon="2.3899603"><ele>0.0</ele><time>2026-04-30T09:51:16.076Z</time></trkpt><trkpt lat="41.390805" lon="2.3900612"><ele>0.0</ele><time>2026-04-30T09:51:17.076Z</time></trkpt><trkpt lat="41.3908493" lon="2.3901603"><ele>0.0</ele><time>2026-04-30T09:51:18.076Z</time></trkpt><trkpt lat="41.3908886" lon="2.3902599"><ele>0.0</ele><time>2026-04-30T09:51:19.075Z</time></trkpt><trkpt lat="41.3909289" lon="2.3903644"><ele>0.0</ele><time>2026-04-30T09:51:20.075Z</time></trkpt><trkpt lat="41.39097" lon="2.3904681"><ele>0.0</ele><time>2026-04-30T09:51:21.076Z</time></trkpt><trkpt lat="41.3910181" lon="2.3905813"><ele>0.0</ele><time>2026-04-30T09:51:22.076Z</time></trkpt><trkpt lat="41.3910575" lon="2.390686"><ele>0.0</ele><time>2026-04-30T09:51:23.076Z</time></trkpt><trkpt lat="41.3911004" lon="2.3907866"><ele>0.0</ele><time>2026-04-30T09:51:24.076Z</time></trkpt><trkpt lat="41.3911432" lon="2.3908869"><ele>0.0</ele><time>2026-04-30T09:51:25.076Z</time></trkpt><trkpt lat="41.3911792" lon="2.390981"><ele>0.0</ele><time>2026-04-30T09:51:26.076Z</time></trkpt><trkpt lat="41.3912178" lon="2.3910734"><ele>0.0</ele><time>2026-04-30T09:51:27.075Z</time></trkpt><trkpt lat="41.3912493" lon="2.3911766"><ele>0.0</ele><time>2026-04-30T09:51:28.075Z</time></trkpt><trkpt lat="41.3912831" lon="2.3912763"><ele>0.0</ele><time>2026-04-30T09:51:29.076Z</time></trkpt><trkpt lat="41.3913352" lon="2.3913745"><ele>0.0</ele><time>2026-04-30T09:51:30.076Z</time></trkpt><trkpt lat="41.3913804" lon="2.3914754"><ele>0.0</ele><time>2026-04-30T09:51:31.076Z</time></trkpt><trkpt lat="41.3914727" lon="2.3916685"><ele>0.0</ele><time>2026-04-30T09:51:33.075Z</time></trkpt><trkpt lat="41.3915182" lon="2.3917802"><ele>0.0</ele><time>2026-04-30T09:51:34.076Z</time></trkpt><trkpt lat="41.3915621" lon="2.3918804"><ele>0.0</ele><time>2026-04-30T09:51:35.075Z</time></trkpt><trkpt lat="41.3916036" lon="2.3919771"><ele>0.0</ele><time>2026-04-30T09:51:36.075Z</time></trkpt><trkpt lat="41.3916394" lon="2.3920777"><ele>0.0</ele><time>2026-04-30T09:51:37.076Z</time></trkpt><trkpt lat="41.3916716" lon="2.3921853"><ele>0.0</ele><time>2026-04-30T09:51:38.075Z</time></trkpt><trkpt lat="41.3917129" lon="2.3922852"><ele>0.0</ele><time>2026-04-30T09:51:39.076Z</time></trkpt><trkpt lat="41.3917506" lon="2.3923863"><ele>0.0</ele><time>2026-04-30T09:51:40.075Z</time></trkpt><trkpt lat="41.391807" lon="2.3924889"><ele>0.0</ele><time>2026-04-30T09:51:41.075Z</time></trkpt><trkpt lat="41.391853" lon="2.3925929"><ele>0.0</ele><time>2026-04-30T09:51:42.075Z</time></trkpt><trkpt lat="41.3918948" lon="2.3926977"><ele>0.0</ele><time>2026-04-30T09:51:43.076Z</time></trkpt><trkpt lat="41.3919395" lon="2.3927989"><ele>0.0</ele><time>2026-04-30T09:51:44.076Z</time></trkpt><trkpt lat="41.3919831" lon="2.3929002"><ele>0.0</ele><time>2026-04-30T09:51:45.075Z</time></trkpt><trkpt lat="41.3920279" lon="2.3929977"><ele>0.0</ele><time>2026-04-30T09:51:46.076Z</time></trkpt><trkpt lat="41.3920761" lon="2.3931029"><ele>0.0</ele><time>2026-04-30T09:51:47.075Z</time></trkpt><trkpt lat="41.3921204" lon="2.3932"><ele>0.0</ele><time>2026-04-30T09:51:48.075Z</time></trkpt><trkpt lat="41.392165" lon="2.393297"><ele>0.0</ele><time>2026-04-30T09:51:49.076Z</time></trkpt><trkpt lat="41.3922097" lon="2.3933952"><ele>0.0</ele><time>2026-04-30T09:51:50.075Z</time></trkpt><trkpt lat="41.3922522" lon="2.3934947"><ele>0.0</ele><time>2026-04-30T09:51:51.075Z</time></trkpt><trkpt lat="41.3922923" lon="2.3935977"><ele>0.0</ele><time>2026-04-30T09:51:52.076Z</time></trkpt><trkpt lat="41.3923324" lon="2.3937028"><ele>0.0</ele><time>2026-04-30T09:51:53.075Z</time></trkpt><trkpt lat="41.3924333" lon="2.393905"><ele>0.0</ele><time>2026-04-30T09:51:55.075Z</time></trkpt><trkpt lat="41.3924925" lon="2.3939965"><ele>0.0</ele><time>2026-04-30T09:51:56.075Z</time></trkpt><trkpt lat="41.3925381" lon="2.3940936"><ele>0.0</ele><time>2026-04-30T09:51:57.075Z</time></trkpt><trkpt lat="41.3925897" lon="2.3941993"><ele>0.0</ele><time>2026-04-30T09:51:58.075Z</time></trkpt><trkpt lat="41.392624" lon="2.3943033"><ele>0.0</ele><time>2026-04-30T09:51:59.075Z</time></trkpt><trkpt lat="41.3926873" lon="2.3943979"><ele>0.0</ele><time>2026-04-30T09:52:00.075Z</time></trkpt><trkpt lat="41.3927281" lon="2.3945016"><ele>0.0</ele><time>2026-04-30T09:52:01.076Z</time></trkpt><trkpt lat="41.3927716" lon="2.3946056"><ele>0.0</ele><time>2026-04-30T09:52:02.076Z</time></trkpt><trkpt lat="41.392815" lon="2.3947086"><ele>0.0</ele><time>2026-04-30T09:52:03.076Z</time></trkpt><trkpt lat="41.3928643" lon="2.3948156"><ele>0.0</ele><time>2026-04-30T09:52:04.075Z</time></trkpt><trkpt lat="41.3929056" lon="2.3949156"><ele>0.0</ele><time>2026-04-30T09:52:05.076Z</time></trkpt><trkpt lat="41.3929425" lon="2.3950183"><ele>0.0</ele><time>2026-04-30T09:52:06.076Z</time></trkpt><trkpt lat="41.3929788" lon="2.3951228"><ele>0.0</ele><time>2026-04-30T09:52:07.076Z</time></trkpt><trkpt lat="41.3930182" lon="2.3952235"><ele>0.0</ele><time>2026-04-30T09:52:08.076Z</time></trkpt><trkpt lat="41.3930548" lon="2.3953241"><ele>0.0</ele><time>2026-04-30T09:52:09.075Z</time></trkpt><trkpt lat="41.3930925" lon="2.3954256"><ele>0.0</ele><time>2026-04-30T09:52:10.076Z</time></trkpt><trkpt lat="41.3931321" lon="2.3955229"><ele>0.0</ele><time>2026-04-30T09:52:11.076Z</time></trkpt><trkpt lat="41.3931704" lon="2.3956273"><ele>0.0</ele><time>2026-04-30T09:52:12.076Z</time></trkpt><trkpt lat="41.3932101" lon="2.3957313"><ele>0.0</ele><time>2026-04-30T09:52:13.075Z</time></trkpt><trkpt lat="41.3932573" lon="2.3958318"><ele>0.0</ele><time>2026-04-30T09:52:14.076Z</time></trkpt><trkpt lat="41.3933548" lon="2.3960257"><ele>0.0</ele><time>2026-04-30T09:52:16.076Z</time></trkpt><trkpt lat="41.3933977" lon="2.3961223"><ele>0.0</ele><time>2026-04-30T09:52:17.075Z</time></trkpt><trkpt lat="41.3934441" lon="2.3962207"><ele>0.0</ele><time>2026-04-30T09:52:18.075Z</time></trkpt><trkpt lat="41.393487" lon="2.3963171"><ele>0.0</ele><time>2026-04-30T09:52:19.075Z</time></trkpt><trkpt lat="41.3935305" lon="2.3964123"><ele>0.0</ele><time>2026-04-30T09:52:20.075Z</time></trkpt><trkpt lat="41.3935738" lon="2.3965092"><ele>0.0</ele><time>2026-04-30T09:52:21.076Z</time></trkpt><trkpt lat="41.3936126" lon="2.396615"><ele>0.0</ele><time>2026-04-30T09:52:22.075Z</time></trkpt><trkpt lat="41.3936511" lon="2.396719"><ele>0.0</ele><time>2026-04-30T09:52:23.075Z</time></trkpt><trkpt lat="41.393688" lon="2.3968237"><ele>0.0</ele><time>2026-04-30T09:52:24.075Z</time></trkpt><trkpt lat="41.3937158" lon="2.3969314"><ele>0.0</ele><time>2026-04-30T09:52:25.076Z</time></trkpt><trkpt lat="41.3937467" lon="2.3970382"><ele>0.0</ele><time>2026-04-30T09:52:26.075Z</time></trkpt><trkpt lat="41.3937826" lon="2.3971466"><ele>0.0</ele><time>2026-04-30T09:52:27.076Z</time></trkpt><trkpt lat="41.3938252" lon="2.3972496"><ele>0.0</ele><time>2026-04-30T09:52:28.076Z</time></trkpt><trkpt lat="41.3938685" lon="2.3973545"><ele>0.0</ele><time>2026-04-30T09:52:29.076Z</time></trkpt><trkpt lat="41.3939132" lon="2.3974552"><ele>0.0</ele><time>2026-04-30T09:52:30.076Z</time></trkpt><trkpt lat="41.3939578" lon="2.3975556"><ele>0.0</ele><time>2026-04-30T09:52:31.075Z</time></trkpt><trkpt lat="41.3939954" lon="2.3976586"><ele>0.0</ele><time>2026-04-30T09:52:32.076Z</time></trkpt><trkpt lat="41.3940406" lon="2.3977621"><ele>0.0</ele><time>2026-04-30T09:52:33.076Z</time></trkpt><trkpt lat="41.3940844" lon="2.397867"><ele>0.0</ele><time>2026-04-30T09:52:34.075Z</time></trkpt><trkpt lat="41.3941265" lon="2.3979713"><ele>0.0</ele><time>2026-04-30T09:52:35.075Z</time></trkpt><trkpt lat="41.3942197" lon="2.398172"><ele>0.0</ele><time>2026-04-30T09:52:37.075Z</time></trkpt><trkpt lat="41.3942614" lon="2.3982718"><ele>0.0</ele><time>2026-04-30T09:52:38.075Z</time></trkpt><trkpt lat="41.3942973" lon="2.3983742"><ele>0.0</ele><time>2026-04-30T09:52:39.076Z</time></trkpt><trkpt lat="41.3943351" lon="2.3984778"><ele>0.0</ele><time>2026-04-30T09:52:40.076Z</time></trkpt><trkpt lat="41.3943764" lon="2.3985843"><ele>0.0</ele><time>2026-04-30T09:52:41.076Z</time></trkpt><trkpt lat="41.3944145" lon="2.3986898"><ele>0.0</ele><time>2026-04-30T09:52:42.076Z</time></trkpt><trkpt lat="41.3944465" lon="2.3987951"><ele>0.0</ele><time>2026-04-30T09:52:43.076Z</time></trkpt><trkpt lat="41.3944853" lon="2.3988959"><ele>0.0</ele><time>2026-04-30T09:52:44.076Z</time></trkpt><trkpt lat="41.3945195" lon="2.3990005"><ele>0.0</ele><time>2026-04-30T09:52:45.075Z</time></trkpt><trkpt lat="41.3945584" lon="2.3991048"><ele>0.0</ele><time>2026-04-30T09:52:46.076Z</time></trkpt><trkpt lat="41.3945943" lon="2.3992056"><ele>0.0</ele><time>2026-04-30T09:52:47.076Z</time></trkpt><trkpt lat="41.3946334" lon="2.3993065"><ele>0.0</ele><time>2026-04-30T09:52:48.075Z</time></trkpt><trkpt lat="41.3946777" lon="2.3994043"><ele>0.0</ele><time>2026-04-30T09:52:49.076Z</time></trkpt><trkpt lat="41.3947255" lon="2.3995026"><ele>0.0</ele><time>2026-04-30T09:52:50.076Z</time></trkpt><trkpt lat="41.3947738" lon="2.3996001"><ele>0.0</ele><time>2026-04-30T09:52:51.075Z</time></trkpt><trkpt lat="41.3948163" lon="2.3996965"><ele>0.0</ele><time>2026-04-30T09:52:52.076Z</time></trkpt><trkpt lat="41.3948608" lon="2.3998015"><ele>0.0</ele><time>2026-04-30T09:52:53.075Z</time></trkpt><trkpt lat="41.3949054" lon="2.3999054"><ele>0.0</ele><time>2026-04-30T09:52:54.076Z</time></trkpt><trkpt lat="41.3949432" lon="2.4000075"><ele>0.0</ele><time>2026-04-30T09:52:55.075Z</time></trkpt><trkpt lat="41.39499" lon="2.4001182"><ele>0.0</ele><time>2026-04-30T09:52:56.075Z</time></trkpt><trkpt lat="41.3950257" lon="2.4002224"><ele>0.0</ele><time>2026-04-30T09:52:57.076Z</time></trkpt><trkpt lat="41.3950977" lon="2.4004309"><ele>0.0</ele><time>2026-04-30T09:52:59.075Z</time></trkpt><trkpt lat="41.395138" lon="2.4005367"><ele>0.0</ele><time>2026-04-30T09:53:00.075Z</time></trkpt><trkpt lat="41.3951754" lon="2.4006458"><ele>0.0</ele><time>2026-04-30T09:53:01.075Z</time></trkpt><trkpt lat="41.3952077" lon="2.4007533"><ele>0.0</ele><time>2026-04-30T09:53:02.075Z</time></trkpt><trkpt lat="41.3952434" lon="2.4008617"><ele>0.0</ele><time>2026-04-30T09:53:03.075Z</time></trkpt><trkpt lat="41.3952752" lon="2.4009657"><ele>0.0</ele><time>2026-04-30T09:53:04.075Z</time></trkpt><trkpt lat="41.3953164" lon="2.4010644"><ele>0.0</ele><time>2026-04-30T09:53:05.075Z</time></trkpt><trkpt lat="41.3953544" lon="2.4011586"><ele>0.0</ele><time>2026-04-30T09:53:06.075Z</time></trkpt><trkpt lat="41.395397" lon="2.4012548"><ele>0.0</ele><time>2026-04-30T09:53:07.075Z</time></trkpt><trkpt lat="41.3954351" lon="2.4013572"><ele>0.0</ele><time>2026-04-30T09:53:08.076Z</time></trkpt><trkpt lat="41.3954805" lon="2.4014547"><ele>0.0</ele><time>2026-04-30T09:53:09.076Z</time></trkpt><trkpt lat="41.3955254" lon="2.4015554"><ele>0.0</ele><time>2026-04-30T09:53:10.076Z</time></trkpt><trkpt lat="41.3955665" lon="2.4016536"><ele>0.0</ele><time>2026-04-30T09:53:11.076Z</time></trkpt><trkpt lat="41.3956065" lon="2.4017545"><ele>0.0</ele><time>2026-04-30T09:53:12.075Z</time></trkpt><trkpt lat="41.3956575" lon="2.4018563"><ele>0.0</ele><time>2026-04-30T09:53:13.076Z</time></trkpt><trkpt lat="41.3957126" lon="2.4019538"><ele>0.0</ele><time>2026-04-30T09:53:14.076Z</time></trkpt><trkpt lat="41.395765" lon="2.4020547"><ele>0.0</ele><time>2026-04-30T09:53:15.075Z</time></trkpt><trkpt lat="41.3958093" lon="2.4021551"><ele>0.0</ele><time>2026-04-30T09:53:16.076Z</time></trkpt><trkpt lat="41.3958612" lon="2.402258"><ele>0.0</ele><time>2026-04-30T09:53:17.075Z</time></trkpt><trkpt lat="41.3959062" lon="2.4023572"><ele>0.0</ele><time>2026-04-30T09:53:18.075Z</time></trkpt><trkpt lat="41.3959947" lon="2.4025652"><ele>0.0</ele><time>2026-04-30T09:53:20.075Z</time></trkpt><trkpt lat="41.3960371" lon="2.4026697"><ele>0.0</ele><time>2026-04-30T09:53:21.076Z</time></trkpt><trkpt lat="41.396078" lon="2.4027676"><ele>0.0</ele><time>2026-04-30T09:53:22.076Z</time></trkpt><trkpt lat="41.396114" lon="2.4028647"><ele>0.0</ele><time>2026-04-30T09:53:23.075Z</time></trkpt><trkpt lat="41.3961549" lon="2.4029631"><ele>0.0</ele><time>2026-04-30T09:53:24.075Z</time></trkpt><trkpt lat="41.396197" lon="2.4030629"><ele>0.0</ele><time>2026-04-30T09:53:25.075Z</time></trkpt><trkpt lat="41.3962347" lon="2.4031699"><ele>0.0</ele><time>2026-04-30T09:53:26.076Z</time></trkpt><trkpt lat="41.3962726" lon="2.403276"><ele>0.0</ele><time>2026-04-30T09:53:27.076Z</time></trkpt><trkpt lat="41.3963138" lon="2.4033769"><ele>0.0</ele><time>2026-04-30T09:53:28.076Z</time></trkpt><trkpt lat="41.396351" lon="2.4034799"><ele>0.0</ele><time>2026-04-30T09:53:29.075Z</time></trkpt><trkpt lat="41.3964265" lon="2.4036634"><ele>0.0</ele><time>2026-04-30T09:53:31.076Z</time></trkpt><trkpt lat="41.3964602" lon="2.4037621"><ele>0.0</ele><time>2026-04-30T09:53:32.076Z</time></trkpt><trkpt lat="41.3964908" lon="2.4038685"><ele>0.0</ele><time>2026-04-30T09:53:33.075Z</time></trkpt><trkpt lat="41.3965309" lon="2.4039782"><ele>0.0</ele><time>2026-04-30T09:53:34.076Z</time></trkpt><trkpt lat="41.3965651" lon="2.4040701"><ele>0.0</ele><time>2026-04-30T09:53:35.075Z</time></trkpt><trkpt lat="41.3966026" lon="2.4041711"><ele>0.0</ele><time>2026-04-30T09:53:36.074Z</time></trkpt><trkpt lat="41.3966454" lon="2.4042843"><ele>0.0</ele><time>2026-04-30T09:53:37.074Z</time></trkpt><trkpt lat="41.3966816" lon="2.4043907"><ele>0.0</ele><time>2026-04-30T09:53:38.074Z</time></trkpt><trkpt lat="41.3967165" lon="2.4044942"><ele>0.0</ele><time>2026-04-30T09:53:39.075Z</time></trkpt><trkpt lat="41.3968049" lon="2.4047032"><ele>0.0</ele><time>2026-04-30T09:53:41.075Z</time></trkpt><trkpt lat="41.3968511" lon="2.4048079"><ele>0.0</ele><time>2026-04-30T09:53:42.074Z</time></trkpt><trkpt lat="41.3968932" lon="2.4049097"><ele>0.0</ele><time>2026-04-30T09:53:43.075Z</time></trkpt><trkpt lat="41.3969352" lon="2.4050119"><ele>0.0</ele><time>2026-04-30T09:53:44.074Z</time></trkpt><trkpt lat="41.3969864" lon="2.4051092"><ele>0.0</ele><time>2026-04-30T09:53:45.075Z</time></trkpt><trkpt lat="41.3970428" lon="2.405198"><ele>0.0</ele><time>2026-04-30T09:53:46.075Z</time></trkpt><trkpt lat="41.3970913" lon="2.4052982"><ele>0.0</ele><time>2026-04-30T09:53:47.075Z</time></trkpt><trkpt lat="41.3971296" lon="2.4054012"><ele>0.0</ele><time>2026-04-30T09:53:48.074Z</time></trkpt><trkpt lat="41.3971663" lon="2.4055032"><ele>0.0</ele><time>2026-04-30T09:53:49.074Z</time></trkpt><trkpt lat="41.3972069" lon="2.4056005"><ele>0.0</ele><time>2026-04-30T09:53:50.075Z</time></trkpt><trkpt lat="41.3972483" lon="2.4056966"><ele>0.0</ele><time>2026-04-30T09:53:51.074Z</time></trkpt><trkpt lat="41.3972777" lon="2.4057964"><ele>0.0</ele><time>2026-04-30T09:53:52.074Z</time></trkpt><trkpt lat="41.3973285" lon="2.4058976"><ele>0.0</ele><time>2026-04-30T09:53:53.074Z</time></trkpt><trkpt lat="41.3973732" lon="2.4059957"><ele>0.0</ele><time>2026-04-30T09:53:54.075Z</time></trkpt><trkpt lat="41.3974163" lon="2.4061004"><ele>0.0</ele><time>2026-04-30T09:53:55.074Z</time></trkpt><trkpt lat="41.3974795" lon="2.4062002"><ele>0.0</ele><time>2026-04-30T09:53:56.074Z</time></trkpt><trkpt lat="41.3975278" lon="2.4062988"><ele>0.0</ele><time>2026-04-30T09:53:57.075Z</time></trkpt><trkpt lat="41.3975748" lon="2.4064029"><ele>0.0</ele><time>2026-04-30T09:53:58.075Z</time></trkpt><trkpt lat="41.3976163" lon="2.4065048"><ele>0.0</ele><time>2026-04-30T09:53:59.074Z</time></trkpt><trkpt lat="41.3976444" lon="2.4066077"><ele>0.0</ele><time>2026-04-30T09:54:00.074Z</time></trkpt><trkpt lat="41.397685" lon="2.4067113"><ele>0.0</ele><time>2026-04-30T09:54:01.074Z</time></trkpt><trkpt lat="41.3977784" lon="2.4069127"><ele>0.0</ele><time>2026-04-30T09:54:03.074Z</time></trkpt><trkpt lat="41.397822" lon="2.4070133"><ele>0.0</ele><time>2026-04-30T09:54:04.075Z</time></trkpt><trkpt lat="41.3978652" lon="2.4071131"><ele>0.0</ele><time>2026-04-30T09:54:05.074Z</time></trkpt><trkpt lat="41.3979097" lon="2.4072203"><ele>0.0</ele><time>2026-04-30T09:54:06.074Z</time></trkpt><trkpt lat="41.397953" lon="2.4073263"><ele>0.0</ele><time>2026-04-30T09:54:07.074Z</time></trkpt><trkpt lat="41.3979907" lon="2.4074296"><ele>0.0</ele><time>2026-04-30T09:54:08.075Z</time></trkpt><trkpt lat="41.3980231" lon="2.407532"><ele>0.0</ele><time>2026-04-30T09:54:09.075Z</time></trkpt><trkpt lat="41.3980619" lon="2.4076281"><ele>0.0</ele><time>2026-04-30T09:54:10.075Z</time></trkpt><trkpt lat="41.3981076" lon="2.407727"><ele>0.0</ele><time>2026-04-30T09:54:11.074Z</time></trkpt><trkpt lat="41.3981559" lon="2.407826"><ele>0.0</ele><time>2026-04-30T09:54:12.075Z</time></trkpt><trkpt lat="41.3981877" lon="2.4079286"><ele>0.0</ele><time>2026-04-30T09:54:13.074Z</time></trkpt><trkpt lat="41.3982258" lon="2.408023"><ele>0.0</ele><time>2026-04-30T09:54:14.074Z</time></trkpt><trkpt lat="41.3982654" lon="2.4081272"><ele>0.0</ele><time>2026-04-30T09:54:15.074Z</time></trkpt><trkpt lat="41.3983009" lon="2.4082324"><ele>0.0</ele><time>2026-04-30T09:54:16.074Z</time></trkpt><trkpt lat="41.3983432" lon="2.4083347"><ele>0.0</ele><time>2026-04-30T09:54:17.075Z</time></trkpt><trkpt lat="41.3983811" lon="2.408438"><ele>0.0</ele><time>2026-04-30T09:54:18.074Z</time></trkpt><trkpt lat="41.3984148" lon="2.4085441"><ele>0.0</ele><time>2026-04-30T09:54:19.075Z</time></trkpt><trkpt lat="41.3984522" lon="2.4086477"><ele>0.0</ele><time>2026-04-30T09:54:20.075Z</time></trkpt><trkpt lat="41.3984904" lon="2.4087471"><ele>0.0</ele><time>2026-04-30T09:54:21.075Z</time></trkpt><trkpt lat="41.3985343" lon="2.4088497"><ele>0.0</ele><time>2026-04-30T09:54:22.075Z</time></trkpt><trkpt lat="41.3986277" lon="2.4090503"><ele>0.0</ele><time>2026-04-30T09:54:24.075Z</time></trkpt><trkpt lat="41.3986748" lon="2.4091504"><ele>0.0</ele><time>2026-04-30T09:54:25.074Z</time></trkpt><trkpt lat="41.3987202" lon="2.4092516"><ele>0.0</ele><time>2026-04-30T09:54:26.075Z</time></trkpt><trkpt lat="41.3987578" lon="2.4093588"><ele>0.0</ele><time>2026-04-30T09:54:27.074Z</time></trkpt><trkpt lat="41.3988017" lon="2.409461"><ele>0.0</ele><time>2026-04-30T09:54:28.075Z</time></trkpt><trkpt lat="41.3988381" lon="2.4095646"><ele>0.0</ele><time>2026-04-30T09:54:29.074Z</time></trkpt><trkpt lat="41.3988873" lon="2.4096666"><ele>0.0</ele><time>2026-04-30T09:54:30.074Z</time></trkpt><trkpt lat="41.3989273" lon="2.4097694"><ele>0.0</ele><time>2026-04-30T09:54:31.075Z</time></trkpt><trkpt lat="41.3989684" lon="2.4098652"><ele>0.0</ele><time>2026-04-30T09:54:32.074Z</time></trkpt><trkpt lat="41.399014" lon="2.4099622"><ele>0.0</ele><time>2026-04-30T09:54:33.075Z</time></trkpt><trkpt lat="41.3990579" lon="2.4100647"><ele>0.0</ele><time>2026-04-30T09:54:34.075Z</time></trkpt><trkpt lat="41.3991102" lon="2.4101651"><ele>0.0</ele><time>2026-04-30T09:54:35.074Z</time></trkpt><trkpt lat="41.3991519" lon="2.4102606"><ele>0.0</ele><time>2026-04-30T09:54:36.074Z</time></trkpt><trkpt lat="41.3991992" lon="2.4103556"><ele>0.0</ele><time>2026-04-30T09:54:37.075Z</time></trkpt><trkpt lat="41.3992445" lon="2.4104554"><ele>0.0</ele><time>2026-04-30T09:54:38.075Z</time></trkpt><trkpt lat="41.3992897" lon="2.4105596"><ele>0.0</ele><time>2026-04-30T09:54:39.075Z</time></trkpt><trkpt lat="41.3993299" lon="2.4106645"><ele>0.0</ele><time>2026-04-30T09:54:40.075Z</time></trkpt><trkpt lat="41.3993699" lon="2.4107638"><ele>0.0</ele><time>2026-04-30T09:54:41.075Z</time></trkpt><trkpt lat="41.3994276" lon="2.4108638"><ele>0.0</ele><time>2026-04-30T09:54:42.075Z</time></trkpt><trkpt lat="41.3994735" lon="2.41096"><ele>0.0</ele><time>2026-04-30T09:54:43.074Z</time></trkpt><trkpt lat="41.3995632" lon="2.4111608"><ele>0.0</ele><time>2026-04-30T09:54:45.075Z</time></trkpt><trkpt lat="41.39961" lon="2.411263"><ele>0.0</ele><time>2026-04-30T09:54:46.074Z</time></trkpt><trkpt lat="41.3996506" lon="2.4113663"><ele>0.0</ele><time>2026-04-30T09:54:47.074Z</time></trkpt><trkpt lat="41.3996918" lon="2.4114708"><ele>0.0</ele><time>2026-04-30T09:54:48.075Z</time></trkpt><trkpt lat="41.3997328" lon="2.4115745"><ele>0.0</ele><time>2026-04-30T09:54:49.075Z</time></trkpt><trkpt lat="41.3997724" lon="2.4116764"><ele>0.0</ele><time>2026-04-30T09:54:50.075Z</time></trkpt><trkpt lat="41.3998165" lon="2.4117784"><ele>0.0</ele><time>2026-04-30T09:54:51.074Z</time></trkpt><trkpt lat="41.3998528" lon="2.4118844"><ele>0.0</ele><time>2026-04-30T09:54:52.074Z</time></trkpt><trkpt lat="41.3998934" lon="2.4119881"><ele>0.0</ele><time>2026-04-30T09:54:53.075Z</time></trkpt><trkpt lat="41.3999379" lon="2.4120885"><ele>0.0</ele><time>2026-04-30T09:54:54.074Z</time></trkpt><trkpt lat="41.3999786" lon="2.4121885"><ele>0.0</ele><time>2026-04-30T09:54:55.074Z</time></trkpt><trkpt lat="41.4000199" lon="2.4122881"><ele>0.0</ele><time>2026-04-30T09:54:56.074Z</time></trkpt><trkpt lat="41.4000631" lon="2.4123898"><ele>0.0</ele><time>2026-04-30T09:54:57.074Z</time></trkpt><trkpt lat="41.4001182" lon="2.4125"><ele>0.0</ele><time>2026-04-30T09:54:58.074Z</time></trkpt><trkpt lat="41.4001676" lon="2.4125973"><ele>0.0</ele><time>2026-04-30T09:54:59.075Z</time></trkpt><trkpt lat="41.400223" lon="2.4126922"><ele>0.0</ele><time>2026-04-30T09:55:00.075Z</time></trkpt><trkpt lat="41.4002667" lon="2.4127898"><ele>0.0</ele><time>2026-04-30T09:55:01.074Z</time></trkpt><trkpt lat="41.4003116" lon="2.4128865"><ele>0.0</ele><time>2026-04-30T09:55:02.075Z</time></trkpt><trkpt lat="41.4003538" lon="2.4129895"><ele>0.0</ele><time>2026-04-30T09:55:03.075Z</time></trkpt><trkpt lat="41.4003958" lon="2.4130904"><ele>0.0</ele><time>2026-04-30T09:55:04.075Z</time></trkpt><trkpt lat="41.4004725" lon="2.4132871"><ele>0.0</ele><time>2026-04-30T09:55:06.074Z</time></trkpt><trkpt lat="41.4005123" lon="2.4133854"><ele>0.0</ele><time>2026-04-30T09:55:07.075Z</time></trkpt><trkpt lat="41.4005591" lon="2.413488"><ele>0.0</ele><time>2026-04-30T09:55:08.074Z</time></trkpt><trkpt lat="41.4005985" lon="2.4135914"><ele>0.0</ele><time>2026-04-30T09:55:09.075Z</time></trkpt><trkpt lat="41.4006482" lon="2.4136937"><ele>0.0</ele><time>2026-04-30T09:55:10.075Z</time></trkpt><trkpt lat="41.4006856" lon="2.4137985"><ele>0.0</ele><time>2026-04-30T09:55:11.074Z</time></trkpt><trkpt lat="41.4007254" lon="2.4139043"><ele>0.0</ele><time>2026-04-30T09:55:12.075Z</time></trkpt><trkpt lat="41.4007681" lon="2.4140082"><ele>0.0</ele><time>2026-04-30T09:55:13.075Z</time></trkpt><trkpt lat="41.40081" lon="2.4141162"><ele>0.0</ele><time>2026-04-30T09:55:14.074Z</time></trkpt><trkpt lat="41.400849" lon="2.41422"><ele>0.0</ele><time>2026-04-30T09:55:15.074Z</time></trkpt><trkpt lat="41.4008891" lon="2.4143274"><ele>0.0</ele><time>2026-04-30T09:55:16.075Z</time></trkpt><trkpt lat="41.4009288" lon="2.4144299"><ele>0.0</ele><time>2026-04-30T09:55:17.074Z</time></trkpt><trkpt lat="41.400969" lon="2.4145346"><ele>0.0</ele><time>2026-04-30T09:55:18.075Z</time></trkpt><trkpt lat="41.4010118" lon="2.4146349"><ele>0.0</ele><time>2026-04-30T09:55:19.075Z</time></trkpt><trkpt lat="41.401052" lon="2.414735"><ele>0.0</ele><time>2026-04-30T09:55:20.075Z</time></trkpt><trkpt lat="41.4010933" lon="2.4148363"><ele>0.0</ele><time>2026-04-30T09:55:21.074Z</time></trkpt><trkpt lat="41.4011362" lon="2.4149346"><ele>0.0</ele><time>2026-04-30T09:55:22.074Z</time></trkpt><trkpt lat="41.4011811" lon="2.4150345"><ele>0.0</ele><time>2026-04-30T09:55:23.074Z</time></trkpt><trkpt lat="41.4012246" lon="2.4151346"><ele>0.0</ele><time>2026-04-30T09:55:24.074Z</time></trkpt><trkpt lat="41.4012654" lon="2.4152405"><ele>0.0</ele><time>2026-04-30T09:55:25.074Z</time></trkpt><trkpt lat="41.4013451" lon="2.4154367"><ele>0.0</ele><time>2026-04-30T09:55:27.074Z</time></trkpt><trkpt lat="41.4013924" lon="2.4155391"><ele>0.0</ele><time>2026-04-30T09:55:28.075Z</time></trkpt><trkpt lat="41.4014375" lon="2.4156411"><ele>0.0</ele><time>2026-04-30T09:55:29.075Z</time></trkpt><trkpt lat="41.4014842" lon="2.4157403"><ele>0.0</ele><time>2026-04-30T09:55:30.074Z</time></trkpt><trkpt lat="41.4015285" lon="2.4158459"><ele>0.0</ele><time>2026-04-30T09:55:31.075Z</time></trkpt><trkpt lat="41.4015692" lon="2.4159468"><ele>0.0</ele><time>2026-04-30T09:55:32.074Z</time></trkpt><trkpt lat="41.4016031" lon="2.4160481"><ele>0.0</ele><time>2026-04-30T09:55:33.074Z</time></trkpt><trkpt lat="41.4016423" lon="2.4161499"><ele>0.0</ele><time>2026-04-30T09:55:34.074Z</time></trkpt><trkpt lat="41.4016823" lon="2.41625"><ele>0.0</ele><time>2026-04-30T09:55:35.075Z</time></trkpt><trkpt lat="41.4017224" lon="2.416353"><ele>0.0</ele><time>2026-04-30T09:55:36.075Z</time></trkpt><trkpt lat="41.4017607" lon="2.4164592"><ele>0.0</ele><time>2026-04-30T09:55:37.074Z</time></trkpt><trkpt lat="41.4018004" lon="2.4165664"><ele>0.0</ele><time>2026-04-30T09:55:38.075Z</time></trkpt><trkpt lat="41.401836" lon="2.4166683"><ele>0.0</ele><time>2026-04-30T09:55:39.075Z</time></trkpt><trkpt lat="41.4018738" lon="2.4167721"><ele>0.0</ele><time>2026-04-30T09:55:40.074Z</time></trkpt><trkpt lat="41.4019112" lon="2.4168834"><ele>0.0</ele><time>2026-04-30T09:55:41.075Z</time></trkpt><trkpt lat="41.4019448" lon="2.4169918"><ele>0.0</ele><time>2026-04-30T09:55:42.074Z</time></trkpt><trkpt lat="41.4019807" lon="2.4170938"><ele>0.0</ele><time>2026-04-30T09:55:43.074Z</time></trkpt><trkpt lat="41.4020125" lon="2.4171969"><ele>0.0</ele><time>2026-04-30T09:55:44.074Z</time></trkpt><trkpt lat="41.4020478" lon="2.4173032"><ele>0.0</ele><time>2026-04-30T09:55:45.074Z</time></trkpt><trkpt lat="41.4020848" lon="2.4174059"><ele>0.0</ele><time>2026-04-30T09:55:46.074Z</time></trkpt><trkpt lat="41.4021702" lon="2.4176031"><ele>0.0</ele><time>2026-04-30T09:55:48.075Z</time></trkpt><trkpt lat="41.4022017" lon="2.4177023"><ele>0.0</ele><time>2026-04-30T09:55:49.075Z</time></trkpt><trkpt lat="41.4022388" lon="2.4177933"><ele>0.0</ele><time>2026-04-30T09:55:50.075Z</time></trkpt><trkpt lat="41.4022771" lon="2.4178873"><ele>0.0</ele><time>2026-04-30T09:55:51.075Z</time></trkpt><trkpt lat="41.4023199" lon="2.4179865"><ele>0.0</ele><time>2026-04-30T09:55:52.074Z</time></trkpt><trkpt lat="41.4023576" lon="2.4180878"><ele>0.0</ele><time>2026-04-30T09:55:53.075Z</time></trkpt><trkpt lat="41.402398" lon="2.4181927"><ele>0.0</ele><time>2026-04-30T09:55:54.075Z</time></trkpt><trkpt lat="41.4024383" lon="2.4182964"><ele>0.0</ele><time>2026-04-30T09:55:55.075Z</time></trkpt><trkpt lat="41.4024757" lon="2.4184013"><ele>0.0</ele><time>2026-04-30T09:55:56.074Z</time></trkpt><trkpt lat="41.402511" lon="2.4185077"><ele>0.0</ele><time>2026-04-30T09:55:57.075Z</time></trkpt><trkpt lat="41.4025356" lon="2.4186142"><ele>0.0</ele><time>2026-04-30T09:55:58.075Z</time></trkpt><trkpt lat="41.4025972" lon="2.4187051"><ele>0.0</ele><time>2026-04-30T09:55:59.074Z</time></trkpt><trkpt lat="41.4026391" lon="2.4188066"><ele>0.0</ele><time>2026-04-30T09:56:00.074Z</time></trkpt><trkpt lat="41.402677" lon="2.4189109"><ele>0.0</ele><time>2026-04-30T09:56:01.074Z</time></trkpt><trkpt lat="41.4027195" lon="2.419008"><ele>0.0</ele><time>2026-04-30T09:56:02.074Z</time></trkpt><trkpt lat="41.4027618" lon="2.4191112"><ele>0.0</ele><time>2026-04-30T09:56:03.074Z</time></trkpt><trkpt lat="41.402802" lon="2.4192145"><ele>0.0</ele><time>2026-04-30T09:56:04.075Z</time></trkpt><trkpt lat="41.4028463" lon="2.4193194"><ele>0.0</ele><time>2026-04-30T09:56:05.074Z</time></trkpt><trkpt lat="41.4028842" lon="2.4194226"><ele>0.0</ele><time>2026-04-30T09:56:06.074Z</time></trkpt><trkpt lat="41.4029249" lon="2.4195276"><ele>0.0</ele><time>2026-04-30T09:56:07.075Z</time></trkpt><trkpt lat="41.4029654" lon="2.4196271"><ele>0.0</ele><time>2026-04-30T09:56:08.075Z</time></trkpt><trkpt lat="41.4030451" lon="2.4198296"><ele>0.0</ele><time>2026-04-30T09:56:10.075Z</time></trkpt><trkpt lat="41.4030884" lon="2.4199297"><ele>0.0</ele><time>2026-04-30T09:56:11.074Z</time></trkpt><trkpt lat="41.4031553" lon="2.4200273"><ele>0.0</ele><time>2026-04-30T09:56:12.074Z</time></trkpt><trkpt lat="41.4032083" lon="2.4201303"><ele>0.0</ele><time>2026-04-30T09:56:13.074Z</time></trkpt><trkpt lat="41.4032532" lon="2.420241"><ele>0.0</ele><time>2026-04-30T09:56:14.075Z</time></trkpt><trkpt lat="41.4032936" lon="2.4203452"><ele>0.0</ele><time>2026-04-30T09:56:15.074Z</time></trkpt><trkpt lat="41.4033334" lon="2.4204496"><ele>0.0</ele><time>2026-04-30T09:56:16.075Z</time></trkpt><trkpt lat="41.4033734" lon="2.4205517"><ele>0.0</ele><time>2026-04-30T09:56:17.075Z</time></trkpt><trkpt lat="41.4034117" lon="2.4206516"><ele>0.0</ele><time>2026-04-30T09:56:18.075Z</time></trkpt><trkpt lat="41.4034484" lon="2.4207514"><ele>0.0</ele><time>2026-04-30T09:56:19.075Z</time></trkpt><trkpt lat="41.4034882" lon="2.4208534"><ele>0.0</ele><time>2026-04-30T09:56:20.075Z</time></trkpt><trkpt lat="41.4035288" lon="2.420952"><ele>0.0</ele><time>2026-04-30T09:56:21.074Z</time></trkpt><trkpt lat="41.4035704" lon="2.4210491"><ele>0.0</ele><time>2026-04-30T09:56:22.074Z</time></trkpt><trkpt lat="41.4036086" lon="2.4211457"><ele>0.0</ele><time>2026-04-30T09:56:23.075Z</time></trkpt><trkpt lat="41.4036469" lon="2.4212455"><ele>0.0</ele><time>2026-04-30T09:56:24.075Z</time></trkpt><trkpt lat="41.4036856" lon="2.4213445"><ele>0.0</ele><time>2026-04-30T09:56:25.075Z</time></trkpt><trkpt lat="41.4037234" lon="2.4214412"><ele>0.0</ele><time>2026-04-30T09:56:26.074Z</time></trkpt><trkpt lat="41.4037664" lon="2.4215402"><ele>0.0</ele><time>2026-04-30T09:56:27.075Z</time></trkpt><trkpt lat="41.4038086" lon="2.4216389"><ele>0.0</ele><time>2026-04-30T09:56:28.075Z</time></trkpt><trkpt lat="41.4038517" lon="2.4217355"><ele>0.0</ele><time>2026-04-30T09:56:29.074Z</time></trkpt><trkpt lat="41.4039573" lon="2.4219455"><ele>0.0</ele><time>2026-04-30T09:56:31.074Z</time></trkpt><trkpt lat="41.4040203" lon="2.422045"><ele>0.0</ele><time>2026-04-30T09:56:32.075Z</time></trkpt><trkpt lat="41.4040724" lon="2.4221478"><ele>0.0</ele><time>2026-04-30T09:56:33.075Z</time></trkpt><trkpt lat="41.4041367" lon="2.4222515"><ele>0.0</ele><time>2026-04-30T09:56:34.075Z</time></trkpt><trkpt lat="41.4041803" lon="2.4223559"><ele>0.0</ele><time>2026-04-30T09:56:35.075Z</time></trkpt><trkpt lat="41.4042206" lon="2.4224552"><ele>0.0</ele><time>2026-04-30T09:56:36.074Z</time></trkpt><trkpt lat="41.4042632" lon="2.4225462"><ele>0.0</ele><time>2026-04-30T09:56:37.075Z</time></trkpt><trkpt lat="41.4043025" lon="2.4226425"><ele>0.0</ele><time>2026-04-30T09:56:38.074Z</time></trkpt><trkpt lat="41.4043421" lon="2.4227415"><ele>0.0</ele><time>2026-04-30T09:56:39.074Z</time></trkpt><trkpt lat="41.4043788" lon="2.4228476"><ele>0.0</ele><time>2026-04-30T09:56:40.075Z</time></trkpt><trkpt lat="41.4044171" lon="2.4229527"><ele>0.0</ele><time>2026-04-30T09:56:41.075Z</time></trkpt><trkpt lat="41.4044583" lon="2.4230566"><ele>0.0</ele><time>2026-04-30T09:56:42.074Z</time></trkpt><trkpt lat="41.4044971" lon="2.4231579"><ele>0.0</ele><time>2026-04-30T09:56:43.075Z</time></trkpt><trkpt lat="41.4045329" lon="2.4232525"><ele>0.0</ele><time>2026-04-30T09:56:44.074Z</time></trkpt><trkpt lat="41.4045677" lon="2.4233618"><ele>0.0</ele><time>2026-04-30T09:56:45.075Z</time></trkpt><trkpt lat="41.4045996" lon="2.4234733"><ele>0.0</ele><time>2026-04-30T09:56:46.074Z</time></trkpt><trkpt lat="41.4046408" lon="2.423581"><ele>0.0</ele><time>2026-04-30T09:56:47.075Z</time></trkpt><trkpt lat="41.4046828" lon="2.423679"><ele>0.0</ele><time>2026-04-30T09:56:48.075Z</time></trkpt><trkpt lat="41.4047218" lon="2.4237818"><ele>0.0</ele><time>2026-04-30T09:56:49.074Z</time></trkpt><trkpt lat="41.4047633" lon="2.4238789"><ele>0.0</ele><time>2026-04-30T09:56:50.074Z</time></trkpt><trkpt lat="41.4048261" lon="2.4240764"><ele>0.0</ele><time>2026-04-30T09:56:52.075Z</time></trkpt><trkpt lat="41.4048637" lon="2.4241781"><ele>0.0</ele><time>2026-04-30T09:56:53.074Z</time></trkpt><trkpt lat="41.4049066" lon="2.4242772"><ele>0.0</ele><time>2026-04-30T09:56:54.074Z</time></trkpt><trkpt lat="41.404944" lon="2.4243795"><ele>0.0</ele><time>2026-04-30T09:56:55.074Z</time></trkpt><trkpt lat="41.4049826" lon="2.4244864"><ele>0.0</ele><time>2026-04-30T09:56:56.075Z</time></trkpt><trkpt lat="41.4050179" lon="2.424593"><ele>0.0</ele><time>2026-04-30T09:56:57.075Z</time></trkpt><trkpt lat="41.4050615" lon="2.4246959"><ele>0.0</ele><time>2026-04-30T09:56:58.075Z</time></trkpt><trkpt lat="41.4051007" lon="2.4248003"><ele>0.0</ele><time>2026-04-30T09:56:59.074Z</time></trkpt><trkpt lat="41.4051475" lon="2.4248946"><ele>0.0</ele><time>2026-04-30T09:57:00.074Z</time></trkpt><trkpt lat="41.4051873" lon="2.4249921"><ele>0.0</ele><time>2026-04-30T09:57:01.074Z</time></trkpt><trkpt lat="41.4052249" lon="2.4250953"><ele>0.0</ele><time>2026-04-30T09:57:02.075Z</time></trkpt><trkpt lat="41.4052599" lon="2.4251928"><ele>0.0</ele><time>2026-04-30T09:57:03.075Z</time></trkpt><trkpt lat="41.4053022" lon="2.4252965"><ele>0.0</ele><time>2026-04-30T09:57:04.074Z</time></trkpt><trkpt lat="41.4053416" lon="2.4254048"><ele>0.0</ele><time>2026-04-30T09:57:05.075Z</time></trkpt><trkpt lat="41.4053794" lon="2.4255154"><ele>0.0</ele><time>2026-04-30T09:57:06.074Z</time></trkpt><trkpt lat="41.4054179" lon="2.4256229"><ele>0.0</ele><time>2026-04-30T09:57:07.074Z</time></trkpt><trkpt lat="41.4054502" lon="2.4257276"><ele>0.0</ele><time>2026-04-30T09:57:08.075Z</time></trkpt><trkpt lat="41.4054844" lon="2.4258292"><ele>0.0</ele><time>2026-04-30T09:57:09.075Z</time></trkpt><trkpt lat="41.4055223" lon="2.4259294"><ele>0.0</ele><time>2026-04-30T09:57:10.075Z</time></trkpt><trkpt lat="41.4055671" lon="2.4260293"><ele>0.0</ele><time>2026-04-30T09:57:11.075Z</time></trkpt><trkpt lat="41.4056139" lon="2.4261232"><ele>0.0</ele><time>2026-04-30T09:57:12.074Z</time></trkpt><trkpt lat="41.4056936" lon="2.4263184"><ele>0.0</ele><time>2026-04-30T09:57:14.075Z</time></trkpt><trkpt lat="41.405731" lon="2.4264191"><ele>0.0</ele><time>2026-04-30T09:57:15.074Z</time></trkpt><trkpt lat="41.4057929" lon="2.4265167"><ele>0.0</ele><time>2026-04-30T09:57:16.074Z</time></trkpt><trkpt lat="41.4058618" lon="2.4266111"><ele>0.0</ele><time>2026-04-30T09:57:17.075Z</time></trkpt><trkpt lat="41.4059078" lon="2.4267112"><ele>0.0</ele><time>2026-04-30T09:57:18.075Z</time></trkpt><trkpt lat="41.4059469" lon="2.4268208"><ele>0.0</ele><time>2026-04-30T09:57:19.074Z</time></trkpt><trkpt lat="41.4059837" lon="2.4269281"><ele>0.0</ele><time>2026-04-30T09:57:20.075Z</time></trkpt><trkpt lat="41.4060225" lon="2.4270331"><ele>0.0</ele><time>2026-04-30T09:57:21.074Z</time></trkpt><trkpt lat="41.4060592" lon="2.4271376"><ele>0.0</ele><time>2026-04-30T09:57:22.075Z</time></trkpt><trkpt lat="41.4061016" lon="2.4272431"><ele>0.0</ele><time>2026-04-30T09:57:23.075Z</time></trkpt><trkpt lat="41.4061421" lon="2.4273495"><ele>0.0</ele><time>2026-04-30T09:57:24.074Z</time></trkpt><trkpt lat="41.4061823" lon="2.4274521"><ele>0.0</ele><time>2026-04-30T09:57:25.075Z</time></trkpt><trkpt lat="41.4062238" lon="2.4275564"><ele>0.0</ele><time>2026-04-30T09:57:26.075Z</time></trkpt><trkpt lat="41.4062595" lon="2.4276568"><ele>0.0</ele><time>2026-04-30T09:57:27.074Z</time></trkpt><trkpt lat="41.4062962" lon="2.4277591"><ele>0.0</ele><time>2026-04-30T09:57:28.075Z</time></trkpt><trkpt lat="41.4063338" lon="2.4278621"><ele>0.0</ele><time>2026-04-30T09:57:29.075Z</time></trkpt><trkpt lat="41.406375" lon="2.4279566"><ele>0.0</ele><time>2026-04-30T09:57:30.074Z</time></trkpt><trkpt lat="41.4064121" lon="2.4280565"><ele>0.0</ele><time>2026-04-30T09:57:31.074Z</time></trkpt><trkpt lat="41.4064527" lon="2.4281598"><ele>0.0</ele><time>2026-04-30T09:57:32.074Z</time></trkpt><trkpt lat="41.4064887" lon="2.4282592"><ele>0.0</ele><time>2026-04-30T09:57:33.074Z</time></trkpt><trkpt lat="41.4065381" lon="2.4283489"><ele>0.0</ele><time>2026-04-30T09:57:34.075Z</time></trkpt><trkpt lat="41.4066157" lon="2.4285563"><ele>0.0</ele><time>2026-04-30T09:57:36.075Z</time></trkpt><trkpt lat="41.4066564" lon="2.4286612"><ele>0.0</ele><time>2026-04-30T09:57:37.075Z</time></trkpt><trkpt lat="41.4067" lon="2.4287645"><ele>0.0</ele><time>2026-04-30T09:57:38.074Z</time></trkpt><trkpt lat="41.4067408" lon="2.4288604"><ele>0.0</ele><time>2026-04-30T09:57:39.075Z</time></trkpt><trkpt lat="41.4067732" lon="2.4289631"><ele>0.0</ele><time>2026-04-30T09:57:40.075Z</time></trkpt><trkpt lat="41.4068119" lon="2.429068"><ele>0.0</ele><time>2026-04-30T09:57:41.074Z</time></trkpt><trkpt lat="41.4068503" lon="2.4291733"><ele>0.0</ele><time>2026-04-30T09:57:42.075Z</time></trkpt><trkpt lat="41.4068872" lon="2.4292766"><ele>0.0</ele><time>2026-04-30T09:57:43.075Z</time></trkpt><trkpt lat="41.4069253" lon="2.4293781"><ele>0.0</ele><time>2026-04-30T09:57:44.074Z</time></trkpt><trkpt lat="41.4069668" lon="2.4294784"><ele>0.0</ele><time>2026-04-30T09:57:45.075Z</time></trkpt><trkpt lat="41.4070057" lon="2.4295774"><ele>0.0</ele><time>2026-04-30T09:57:46.075Z</time></trkpt><trkpt lat="41.4070436" lon="2.4296781"><ele>0.0</ele><time>2026-04-30T09:57:47.074Z</time></trkpt><trkpt lat="41.407085" lon="2.4297816"><ele>0.0</ele><time>2026-04-30T09:57:48.075Z</time></trkpt><trkpt lat="41.4071208" lon="2.4298833"><ele>0.0</ele><time>2026-04-30T09:57:49.075Z</time></trkpt><trkpt lat="41.4071572" lon="2.4299866"><ele>0.0</ele><time>2026-04-30T09:57:50.075Z</time></trkpt><trkpt lat="41.4071934" lon="2.4300901"><ele>0.0</ele><time>2026-04-30T09:57:51.075Z</time></trkpt><trkpt lat="41.407227" lon="2.4301923"><ele>0.0</ele><time>2026-04-30T09:57:52.074Z</time></trkpt><trkpt lat="41.4072619" lon="2.4302958"><ele>0.0</ele><time>2026-04-30T09:57:53.074Z</time></trkpt><trkpt lat="41.4072999" lon="2.4303962"><ele>0.0</ele><time>2026-04-30T09:57:54.074Z</time></trkpt><trkpt lat="41.4073862" lon="2.4304906"><ele>0.0</ele><time>2026-04-30T09:57:55.075Z</time></trkpt><trkpt lat="41.4074552" lon="2.4306851"><ele>0.0</ele><time>2026-04-30T09:57:57.075Z</time></trkpt><trkpt lat="41.4074903" lon="2.4307871"><ele>0.0</ele><time>2026-04-30T09:57:58.074Z</time></trkpt><trkpt lat="41.4075227" lon="2.4308902"><ele>0.0</ele><time>2026-04-30T09:57:59.074Z</time></trkpt><trkpt lat="41.4075541" lon="2.4309945"><ele>0.0</ele><time>2026-04-30T09:58:00.074Z</time></trkpt><trkpt lat="41.4075927" lon="2.431095"><ele>0.0</ele><time>2026-04-30T09:58:01.074Z</time></trkpt><trkpt lat="41.4076366" lon="2.4311969"><ele>0.0</ele><time>2026-04-30T09:58:02.075Z</time></trkpt><trkpt lat="41.4076732" lon="2.4313005"><ele>0.0</ele><time>2026-04-30T09:58:03.074Z</time></trkpt><trkpt lat="41.4077185" lon="2.4313989"><ele>0.0</ele><time>2026-04-30T09:58:04.074Z</time></trkpt><trkpt lat="41.4077584" lon="2.4314958"><ele>0.0</ele><time>2026-04-30T09:58:05.074Z</time></trkpt><trkpt lat="41.4077924" lon="2.4315922"><ele>0.0</ele><time>2026-04-30T09:58:06.074Z</time></trkpt><trkpt lat="41.4078302" lon="2.4316905"><ele>0.0</ele><time>2026-04-30T09:58:07.074Z</time></trkpt><trkpt lat="41.4078731" lon="2.4317882"><ele>0.0</ele><time>2026-04-30T09:58:08.075Z</time></trkpt><trkpt lat="41.4079777" lon="2.4318808"><ele>0.0</ele><time>2026-04-30T09:58:09.073Z</time></trkpt><trkpt lat="41.4080308" lon="2.4319772"><ele>0.0</ele><time>2026-04-30T09:58:10.074Z</time></trkpt><trkpt lat="41.4080746" lon="2.4320781"><ele>0.0</ele><time>2026-04-30T09:58:11.074Z</time></trkpt><trkpt lat="41.4081127" lon="2.4321808"><ele>0.0</ele><time>2026-04-30T09:58:12.073Z</time></trkpt><trkpt lat="41.4081479" lon="2.4322831"><ele>0.0</ele><time>2026-04-30T09:58:13.074Z</time></trkpt><trkpt lat="41.4081935" lon="2.4323849"><ele>0.0</ele><time>2026-04-30T09:58:14.074Z</time></trkpt><trkpt lat="41.4082352" lon="2.4324848"><ele>0.0</ele><time>2026-04-30T09:58:15.074Z</time></trkpt><trkpt lat="41.4082769" lon="2.4325834"><ele>0.0</ele><time>2026-04-30T09:58:16.073Z</time></trkpt><trkpt lat="41.4083167" lon="2.4326847"><ele>0.0</ele><time>2026-04-30T09:58:17.073Z</time></trkpt><trkpt lat="41.4084082" lon="2.4328839"><ele>0.0</ele><time>2026-04-30T09:58:19.074Z</time></trkpt><trkpt lat="41.4084702" lon="2.4329862"><ele>0.0</ele><time>2026-04-30T09:58:20.073Z</time></trkpt><trkpt lat="41.4085405" lon="2.4330858"><ele>0.0</ele><time>2026-04-30T09:58:21.074Z</time></trkpt><trkpt lat="41.4085852" lon="2.4331863"><ele>0.0</ele><time>2026-04-30T09:58:22.074Z</time></trkpt><trkpt lat="41.4086622" lon="2.4332852"><ele>0.0</ele><time>2026-04-30T09:58:23.073Z</time></trkpt><trkpt lat="41.4087087" lon="2.4333836"><ele>0.0</ele><time>2026-04-30T09:58:24.074Z</time></trkpt><trkpt lat="41.4087507" lon="2.4334872"><ele>0.0</ele><time>2026-04-30T09:58:25.073Z</time></trkpt><trkpt lat="41.4087913" lon="2.4335926"><ele>0.0</ele><time>2026-04-30T09:58:26.074Z</time></trkpt><trkpt lat="41.4088285" lon="2.4336928"><ele>0.0</ele><time>2026-04-30T09:58:27.074Z</time></trkpt><trkpt lat="41.4088677" lon="2.4337939"><ele>0.0</ele><time>2026-04-30T09:58:28.073Z</time></trkpt><trkpt lat="41.4089046" lon="2.4339007"><ele>0.0</ele><time>2026-04-30T09:58:29.074Z</time></trkpt><trkpt lat="41.4089636" lon="2.4340051"><ele>0.0</ele><time>2026-04-30T09:58:30.073Z</time></trkpt><trkpt lat="41.4090084" lon="2.4341067"><ele>0.0</ele><time>2026-04-30T09:58:31.074Z</time></trkpt><trkpt lat="41.4090494" lon="2.4342086"><ele>0.0</ele><time>2026-04-30T09:58:32.073Z</time></trkpt><trkpt lat="41.4090878" lon="2.4343111"><ele>0.0</ele><time>2026-04-30T09:58:33.074Z</time></trkpt><trkpt lat="41.4091249" lon="2.4344131"><ele>0.0</ele><time>2026-04-30T09:58:34.073Z</time></trkpt><trkpt lat="41.4091669" lon="2.4345119"><ele>0.0</ele><time>2026-04-30T09:58:35.073Z</time></trkpt><trkpt lat="41.4092048" lon="2.4346171"><ele>0.0</ele><time>2026-04-30T09:58:36.073Z</time></trkpt><trkpt lat="41.4092457" lon="2.4347236"><ele>0.0</ele><time>2026-04-30T09:58:37.073Z</time></trkpt><trkpt lat="41.4092885" lon="2.4348279"><ele>0.0</ele><time>2026-04-30T09:58:38.073Z</time></trkpt><trkpt lat="41.4093713" lon="2.4350314"><ele>0.0</ele><time>2026-04-30T09:58:40.074Z</time></trkpt><trkpt lat="41.409409" lon="2.4351377"><ele>0.0</ele><time>2026-04-30T09:58:41.073Z</time></trkpt><trkpt lat="41.4094477" lon="2.4352416"><ele>0.0</ele><time>2026-04-30T09:58:42.073Z</time></trkpt><trkpt lat="41.4094872" lon="2.4353448"><ele>0.0</ele><time>2026-04-30T09:58:43.074Z</time></trkpt><trkpt lat="41.4095245" lon="2.4354485"><ele>0.0</ele><time>2026-04-30T09:58:44.073Z</time></trkpt><trkpt lat="41.4095638" lon="2.4355486"><ele>0.0</ele><time>2026-04-30T09:58:45.074Z</time></trkpt><trkpt lat="41.4096038" lon="2.4356517"><ele>0.0</ele><time>2026-04-30T09:58:46.074Z</time></trkpt><trkpt lat="41.409647" lon="2.4357507"><ele>0.0</ele><time>2026-04-30T09:58:47.073Z</time></trkpt><trkpt lat="41.4096858" lon="2.4358439"><ele>0.0</ele><time>2026-04-30T09:58:48.074Z</time></trkpt><trkpt lat="41.409734" lon="2.4359328"><ele>0.0</ele><time>2026-04-30T09:58:49.074Z</time></trkpt><trkpt lat="41.4097841" lon="2.4360314"><ele>0.0</ele><time>2026-04-30T09:58:50.073Z</time></trkpt><trkpt lat="41.4098258" lon="2.436137"><ele>0.0</ele><time>2026-04-30T09:58:51.074Z</time></trkpt><trkpt lat="41.4098939" lon="2.436241"><ele>0.0</ele><time>2026-04-30T09:58:52.074Z</time></trkpt><trkpt lat="41.4099384" lon="2.4363488"><ele>0.0</ele><time>2026-04-30T09:58:53.074Z</time></trkpt><trkpt lat="41.4099773" lon="2.436459"><ele>0.0</ele><time>2026-04-30T09:58:54.073Z</time></trkpt><trkpt lat="41.4100271" lon="2.4365596"><ele>0.0</ele><time>2026-04-30T09:58:55.074Z</time></trkpt><trkpt lat="41.4100718" lon="2.4366601"><ele>0.0</ele><time>2026-04-30T09:58:56.073Z</time></trkpt><trkpt lat="41.4101406" lon="2.4367597"><ele>0.0</ele><time>2026-04-30T09:58:57.074Z</time></trkpt><trkpt lat="41.4101963" lon="2.4368627"><ele>0.0</ele><time>2026-04-30T09:58:58.073Z</time></trkpt><trkpt lat="41.410253" lon="2.4369647"><ele>0.0</ele><time>2026-04-30T09:58:59.073Z</time></trkpt><trkpt lat="41.4103792" lon="2.4371625"><ele>0.0</ele><time>2026-04-30T09:59:01.074Z</time></trkpt><trkpt lat="41.4104213" lon="2.437262"><ele>0.0</ele><time>2026-04-30T09:59:02.073Z</time></trkpt><trkpt lat="41.410467" lon="2.4373667"><ele>0.0</ele><time>2026-04-30T09:59:03.073Z</time></trkpt><trkpt lat="41.4105253" lon="2.4374659"><ele>0.0</ele><time>2026-04-30T09:59:04.074Z</time></trkpt><trkpt lat="41.4105833" lon="2.4375624"><ele>0.0</ele><time>2026-04-30T09:59:05.073Z</time></trkpt><trkpt lat="41.4106334" lon="2.4376562"><ele>0.0</ele><time>2026-04-30T09:59:06.073Z</time></trkpt><trkpt lat="41.4106758" lon="2.4377576"><ele>0.0</ele><time>2026-04-30T09:59:07.074Z</time></trkpt><trkpt lat="41.4107111" lon="2.4378556"><ele>0.0</ele><time>2026-04-30T09:59:08.073Z</time></trkpt><trkpt lat="41.4107472" lon="2.4379607"><ele>0.0</ele><time>2026-04-30T09:59:09.073Z</time></trkpt><trkpt lat="41.4107807" lon="2.4380591"><ele>0.0</ele><time>2026-04-30T09:59:10.073Z</time></trkpt><trkpt lat="41.4108108" lon="2.4381568"><ele>0.0</ele><time>2026-04-30T09:59:11.074Z</time></trkpt><trkpt lat="41.4108421" lon="2.4382641"><ele>0.0</ele><time>2026-04-30T09:59:12.073Z</time></trkpt><trkpt lat="41.4108769" lon="2.4383711"><ele>0.0</ele><time>2026-04-30T09:59:13.074Z</time></trkpt><trkpt lat="41.4109218" lon="2.438473"><ele>0.0</ele><time>2026-04-30T09:59:14.073Z</time></trkpt><trkpt lat="41.4109557" lon="2.4385594"><ele>0.0</ele><time>2026-04-30T09:59:15.073Z</time></trkpt><trkpt lat="41.4110099" lon="2.4386555"><ele>0.0</ele><time>2026-04-30T09:59:16.073Z</time></trkpt><trkpt lat="41.4110294" lon="2.4387537"><ele>0.0</ele><time>2026-04-30T09:59:17.073Z</time></trkpt><trkpt lat="41.4110662" lon="2.4388521"><ele>0.0</ele><time>2026-04-30T09:59:18.074Z</time></trkpt><trkpt lat="41.4110902" lon="2.4389517"><ele>0.0</ele><time>2026-04-30T09:59:19.074Z</time></trkpt><trkpt lat="41.411153" lon="2.4390499"><ele>0.0</ele><time>2026-04-30T09:59:20.073Z</time></trkpt><trkpt lat="41.4112283" lon="2.4392588"><ele>0.0</ele><time>2026-04-30T09:59:22.073Z</time></trkpt><trkpt lat="41.4112661" lon="2.4393593"><ele>0.0</ele><time>2026-04-30T09:59:23.073Z</time></trkpt><trkpt lat="41.4112944" lon="2.4394642"><ele>0.0</ele><time>2026-04-30T09:59:24.073Z</time></trkpt><trkpt lat="41.411322" lon="2.4395707"><ele>0.0</ele><time>2026-04-30T09:59:25.074Z</time></trkpt><trkpt lat="41.4113559" lon="2.4396752"><ele>0.0</ele><time>2026-04-30T09:59:26.073Z</time></trkpt><trkpt lat="41.4113895" lon="2.43978"><ele>0.0</ele><time>2026-04-30T09:59:27.073Z</time></trkpt><trkpt lat="41.4114271" lon="2.439885"><ele>0.0</ele><time>2026-04-30T09:59:28.074Z</time></trkpt><trkpt lat="41.4114725" lon="2.439991"><ele>0.0</ele><time>2026-04-30T09:59:29.073Z</time></trkpt><trkpt lat="41.4115038" lon="2.440078"><ele>0.0</ele><time>2026-04-30T09:59:30.074Z</time></trkpt><trkpt lat="41.411538" lon="2.4401731"><ele>0.0</ele><time>2026-04-30T09:59:31.073Z</time></trkpt><trkpt lat="41.41157" lon="2.4402752"><ele>0.0</ele><time>2026-04-30T09:59:32.074Z</time></trkpt><trkpt lat="41.4116002" lon="2.4403753"><ele>0.0</ele><time>2026-04-30T09:59:33.073Z</time></trkpt><trkpt lat="41.4116302" lon="2.4404732"><ele>0.0</ele><time>2026-04-30T09:59:34.073Z</time></trkpt><trkpt lat="41.411659" lon="2.4405732"><ele>0.0</ele><time>2026-04-30T09:59:35.074Z</time></trkpt><trkpt lat="41.4116858" lon="2.440673"><ele>0.0</ele><time>2026-04-30T09:59:36.074Z</time></trkpt><trkpt lat="41.4117076" lon="2.440773"><ele>0.0</ele><time>2026-04-30T09:59:37.073Z</time></trkpt><trkpt lat="41.4117435" lon="2.4408692"><ele>0.0</ele><time>2026-04-30T09:59:38.073Z</time></trkpt><trkpt lat="41.4117843" lon="2.4409771"><ele>0.0</ele><time>2026-04-30T09:59:39.073Z</time></trkpt><trkpt lat="41.4118219" lon="2.4410811"><ele>0.0</ele><time>2026-04-30T09:59:40.073Z</time></trkpt><trkpt lat="41.4118615" lon="2.4411845"><ele>0.0</ele><time>2026-04-30T09:59:41.074Z</time></trkpt><trkpt lat="41.4119401" lon="2.4413898"><ele>0.0</ele><time>2026-04-30T09:59:43.073Z</time></trkpt><trkpt lat="41.4119782" lon="2.4414932"><ele>0.0</ele><time>2026-04-30T09:59:44.073Z</time></trkpt><trkpt lat="41.4120167" lon="2.4415962"><ele>0.0</ele><time>2026-04-30T09:59:45.074Z</time></trkpt><trkpt lat="41.4120582" lon="2.4417007"><ele>0.0</ele><time>2026-04-30T09:59:46.074Z</time></trkpt><trkpt lat="41.4120998" lon="2.4418074"><ele>0.0</ele><time>2026-04-30T09:59:47.074Z</time></trkpt><trkpt lat="41.4121541" lon="2.4419265"><ele>0.0</ele><time>2026-04-30T09:59:48.073Z</time></trkpt><trkpt lat="41.4122068" lon="2.4420308"><ele>0.0</ele><time>2026-04-30T09:59:49.073Z</time></trkpt><trkpt lat="41.4122547" lon="2.4421313"><ele>0.0</ele><time>2026-04-30T09:59:50.074Z</time></trkpt><trkpt lat="41.4122985" lon="2.4422329"><ele>0.0</ele><time>2026-04-30T09:59:51.074Z</time></trkpt><trkpt lat="41.4123445" lon="2.442334"><ele>0.0</ele><time>2026-04-30T09:59:52.073Z</time></trkpt><trkpt lat="41.4123944" lon="2.4424306"><ele>0.0</ele><time>2026-04-30T09:59:53.073Z</time></trkpt><trkpt lat="41.4124456" lon="2.4425295"><ele>0.0</ele><time>2026-04-30T09:59:54.073Z</time></trkpt><trkpt lat="41.4124877" lon="2.4426306"><ele>0.0</ele><time>2026-04-30T09:59:55.074Z</time></trkpt><trkpt lat="41.4125317" lon="2.442734"><ele>0.0</ele><time>2026-04-30T09:59:56.074Z</time></trkpt><trkpt lat="41.412573" lon="2.4428338"><ele>0.0</ele><time>2026-04-30T09:59:57.073Z</time></trkpt><trkpt lat="41.4126215" lon="2.4429392"><ele>0.0</ele><time>2026-04-30T09:59:58.074Z</time></trkpt><trkpt lat="41.412697" lon="2.4430241"><ele>0.0</ele><time>2026-04-30T09:59:59.073Z</time></trkpt><trkpt lat="41.4127564" lon="2.4431174"><ele>0.0</ele><time>2026-04-30T10:00:00.073Z</time></trkpt><trkpt lat="41.4127977" lon="2.443221"><ele>0.0</ele><time>2026-04-30T10:00:01.074Z</time></trkpt><trkpt lat="41.4128374" lon="2.4433244"><ele>0.0</ele><time>2026-04-30T10:00:02.074Z</time></trkpt><trkpt lat="41.4129257" lon="2.4435325"><ele>0.0</ele><time>2026-04-30T10:00:04.074Z</time></trkpt><trkpt lat="41.4129659" lon="2.443638"><ele>0.0</ele><time>2026-04-30T10:00:05.074Z</time></trkpt><trkpt lat="41.4130088" lon="2.4437385"><ele>0.0</ele><time>2026-04-30T10:00:06.074Z</time></trkpt><trkpt lat="41.4130523" lon="2.4438426"><ele>0.0</ele><time>2026-04-30T10:00:07.073Z</time></trkpt><trkpt lat="41.4130915" lon="2.4439435"><ele>0.0</ele><time>2026-04-30T10:00:08.074Z</time></trkpt><trkpt lat="41.4131334" lon="2.4440437"><ele>0.0</ele><time>2026-04-30T10:00:09.074Z</time></trkpt><trkpt lat="41.413174" lon="2.4441438"><ele>0.0</ele><time>2026-04-30T10:00:10.074Z</time></trkpt><trkpt lat="41.4132152" lon="2.4442422"><ele>0.0</ele><time>2026-04-30T10:00:11.073Z</time></trkpt><trkpt lat="41.4132537" lon="2.4443358"><ele>0.0</ele><time>2026-04-30T10:00:12.074Z</time></trkpt><trkpt lat="41.4132891" lon="2.444433"><ele>0.0</ele><time>2026-04-30T10:00:13.073Z</time></trkpt><trkpt lat="41.4133228" lon="2.4445318"><ele>0.0</ele><time>2026-04-30T10:00:14.073Z</time></trkpt><trkpt lat="41.4133591" lon="2.4446319"><ele>0.0</ele><time>2026-04-30T10:00:15.073Z</time></trkpt><trkpt lat="41.4133975" lon="2.4447293"><ele>0.0</ele><time>2026-04-30T10:00:16.073Z</time></trkpt><trkpt lat="41.413434" lon="2.4448357"><ele>0.0</ele><time>2026-04-30T10:00:17.073Z</time></trkpt><trkpt lat="41.4134763" lon="2.4449442"><ele>0.0</ele><time>2026-04-30T10:00:18.073Z</time></trkpt><trkpt lat="41.4135185" lon="2.4450471"><ele>0.0</ele><time>2026-04-30T10:00:19.073Z</time></trkpt><trkpt lat="41.4135543" lon="2.4451501"><ele>0.0</ele><time>2026-04-30T10:00:20.073Z</time></trkpt><trkpt lat="41.4136109" lon="2.4452449"><ele>0.0</ele><time>2026-04-30T10:00:21.074Z</time></trkpt><trkpt lat="41.4136579" lon="2.4453406"><ele>0.0</ele><time>2026-04-30T10:00:22.074Z</time></trkpt><trkpt lat="41.4137504" lon="2.4455328"><ele>0.0</ele><time>2026-04-30T10:00:24.073Z</time></trkpt><trkpt lat="41.4137938" lon="2.4456378"><ele>0.0</ele><time>2026-04-30T10:00:25.074Z</time></trkpt><trkpt lat="41.4138313" lon="2.4457444"><ele>0.0</ele><time>2026-04-30T10:00:26.073Z</time></trkpt><trkpt lat="41.4138704" lon="2.445844"><ele>0.0</ele><time>2026-04-30T10:00:27.073Z</time></trkpt><trkpt lat="41.4138987" lon="2.4459468"><ele>0.0</ele><time>2026-04-30T10:00:28.074Z</time></trkpt><trkpt lat="41.4139339" lon="2.4460489"><ele>0.0</ele><time>2026-04-30T10:00:29.074Z</time></trkpt><trkpt lat="41.4139716" lon="2.4461479"><ele>0.0</ele><time>2026-04-30T10:00:30.073Z</time></trkpt><trkpt lat="41.4140016" lon="2.4462486"><ele>0.0</ele><time>2026-04-30T10:00:31.073Z</time></trkpt><trkpt lat="41.4140382" lon="2.4463489"><ele>0.0</ele><time>2026-04-30T10:00:32.074Z</time></trkpt><trkpt lat="41.4140782" lon="2.4464504"><ele>0.0</ele><time>2026-04-30T10:00:33.073Z</time></trkpt><trkpt lat="41.4141137" lon="2.4465533"><ele>0.0</ele><time>2026-04-30T10:00:34.073Z</time></trkpt><trkpt lat="41.4141517" lon="2.4466569"><ele>0.0</ele><time>2026-04-30T10:00:35.073Z</time></trkpt><trkpt lat="41.4141886" lon="2.4467583"><ele>0.0</ele><time>2026-04-30T10:00:36.074Z</time></trkpt><trkpt lat="41.414224" lon="2.4468616"><ele>0.0</ele><time>2026-04-30T10:00:37.074Z</time></trkpt><trkpt lat="41.4142651" lon="2.4469651"><ele>0.0</ele><time>2026-04-30T10:00:38.073Z</time></trkpt><trkpt lat="41.4143206" lon="2.4470809"><ele>0.0</ele><time>2026-04-30T10:00:39.073Z</time></trkpt><trkpt lat="41.414356" lon="2.4471834"><ele>0.0</ele><time>2026-04-30T10:00:40.074Z</time></trkpt><trkpt lat="41.4143912" lon="2.4472801"><ele>0.0</ele><time>2026-04-30T10:00:41.074Z</time></trkpt><trkpt lat="41.4144291" lon="2.4473797"><ele>0.0</ele><time>2026-04-30T10:00:42.073Z</time></trkpt><trkpt lat="41.4144647" lon="2.4474773"><ele>0.0</ele><time>2026-04-30T10:00:43.074Z</time></trkpt><trkpt lat="41.414539" lon="2.4476661"><ele>0.0</ele><time>2026-04-30T10:00:45.074Z</time></trkpt><trkpt lat="41.4145717" lon="2.4477662"><ele>0.0</ele><time>2026-04-30T10:00:46.074Z</time></trkpt><trkpt lat="41.4146105" lon="2.4478679"><ele>0.0</ele><time>2026-04-30T10:00:47.074Z</time></trkpt><trkpt lat="41.4146531" lon="2.4479654"><ele>0.0</ele><time>2026-04-30T10:00:48.073Z</time></trkpt><trkpt lat="41.4146953" lon="2.4480647"><ele>0.0</ele><time>2026-04-30T10:00:49.074Z</time></trkpt><trkpt lat="41.4147887" lon="2.448158"><ele>0.0</ele><time>2026-04-30T10:00:50.074Z</time></trkpt><trkpt lat="41.4148437" lon="2.448258"><ele>0.0</ele><time>2026-04-30T10:00:51.074Z</time></trkpt><trkpt lat="41.4148858" lon="2.4483553"><ele>0.0</ele><time>2026-04-30T10:00:52.074Z</time></trkpt><trkpt lat="41.4149284" lon="2.4484559"><ele>0.0</ele><time>2026-04-30T10:00:53.074Z</time></trkpt><trkpt lat="41.4149761" lon="2.4485582"><ele>0.0</ele><time>2026-04-30T10:00:54.073Z</time></trkpt><trkpt lat="41.4150373" lon="2.448677"><ele>0.0</ele><time>2026-04-30T10:00:55.073Z</time></trkpt><trkpt lat="41.4150823" lon="2.4487753"><ele>0.0</ele><time>2026-04-30T10:00:56.074Z</time></trkpt><trkpt lat="41.4151567" lon="2.4488651"><ele>0.0</ele><time>2026-04-30T10:00:57.074Z</time></trkpt><trkpt lat="41.4152244" lon="2.4489578"><ele>0.0</ele><time>2026-04-30T10:00:58.074Z</time></trkpt><trkpt lat="41.4152884" lon="2.4490566"><ele>0.0</ele><time>2026-04-30T10:00:59.074Z</time></trkpt><trkpt lat="41.4153366" lon="2.4491626"><ele>0.0</ele><time>2026-04-30T10:01:00.074Z</time></trkpt><trkpt lat="41.4153774" lon="2.4492644"><ele>0.0</ele><time>2026-04-30T10:01:01.074Z</time></trkpt><trkpt lat="41.4154131" lon="2.449364"><ele>0.0</ele><time>2026-04-30T10:01:02.073Z</time></trkpt><trkpt lat="41.4154312" lon="2.4494631"><ele>0.0</ele><time>2026-04-30T10:01:03.074Z</time></trkpt><trkpt lat="41.4154588" lon="2.449566"><ele>0.0</ele><time>2026-04-30T10:01:04.074Z</time></trkpt><trkpt lat="41.4155121" lon="2.4497715"><ele>0.0</ele><time>2026-04-30T10:01:06.074Z</time></trkpt><trkpt lat="41.4155331" lon="2.4498737"><ele>0.0</ele><time>2026-04-30T10:01:07.073Z</time></trkpt><trkpt lat="41.4155661" lon="2.4499799"><ele>0.0</ele><time>2026-04-30T10:01:08.074Z</time></trkpt><trkpt lat="41.4156022" lon="2.4500795"><ele>0.0</ele><time>2026-04-30T10:01:09.073Z</time></trkpt><trkpt lat="41.4156347" lon="2.4501834"><ele>0.0</ele><time>2026-04-30T10:01:10.073Z</time></trkpt><trkpt lat="41.4156634" lon="2.4502863"><ele>0.0</ele><time>2026-04-30T10:01:11.074Z</time></trkpt><trkpt lat="41.415696" lon="2.4503886"><ele>0.0</ele><time>2026-04-30T10:01:12.073Z</time></trkpt><trkpt lat="41.4157275" lon="2.4504887"><ele>0.0</ele><time>2026-04-30T10:01:13.073Z</time></trkpt><trkpt lat="41.4157592" lon="2.4505856"><ele>0.0</ele><time>2026-04-30T10:01:14.073Z</time></trkpt><trkpt lat="41.4157936" lon="2.4506869"><ele>0.0</ele><time>2026-04-30T10:01:15.074Z</time></trkpt><trkpt lat="41.4158301" lon="2.4507868"><ele>0.0</ele><time>2026-04-30T10:01:16.073Z</time></trkpt><trkpt lat="41.4159179" lon="2.4508852"><ele>0.0</ele><time>2026-04-30T10:01:17.073Z</time></trkpt><trkpt lat="41.4159615" lon="2.4509881"><ele>0.0</ele><time>2026-04-30T10:01:18.074Z</time></trkpt><trkpt lat="41.4160302" lon="2.4510883"><ele>0.0</ele><time>2026-04-30T10:01:19.073Z</time></trkpt><trkpt lat="41.4161071" lon="2.4511844"><ele>0.0</ele><time>2026-04-30T10:01:20.074Z</time></trkpt><trkpt lat="41.4161754" lon="2.4512805"><ele>0.0</ele><time>2026-04-30T10:01:21.073Z</time></trkpt><trkpt lat="41.4162382" lon="2.451381"><ele>0.0</ele><time>2026-04-30T10:01:22.074Z</time></trkpt><trkpt lat="41.4162776" lon="2.4514874"><ele>0.0</ele><time>2026-04-30T10:01:23.073Z</time></trkpt><trkpt lat="41.4163102" lon="2.4515944"><ele>0.0</ele><time>2026-04-30T10:01:24.073Z</time></trkpt><trkpt lat="41.4163354" lon="2.4516935"><ele>0.0</ele><time>2026-04-30T10:01:25.073Z</time></trkpt><trkpt lat="41.416399" lon="2.4517934"><ele>0.0</ele><time>2026-04-30T10:01:26.074Z</time></trkpt><trkpt lat="41.4164712" lon="2.4519976"><ele>0.0</ele><time>2026-04-30T10:01:28.074Z</time></trkpt><trkpt lat="41.4165208" lon="2.4521052"><ele>0.0</ele><time>2026-04-30T10:01:29.074Z</time></trkpt><trkpt lat="41.4165799" lon="2.4522066"><ele>0.0</ele><time>2026-04-30T10:01:30.073Z</time></trkpt><trkpt lat="41.4166366" lon="2.452311"><ele>0.0</ele><time>2026-04-30T10:01:31.073Z</time></trkpt><trkpt lat="41.4166833" lon="2.452415"><ele>0.0</ele><time>2026-04-30T10:01:32.074Z</time></trkpt><trkpt lat="41.4167324" lon="2.4525158"><ele>0.0</ele><time>2026-04-30T10:01:33.074Z</time></trkpt><trkpt lat="41.4167694" lon="2.4526058"><ele>0.0</ele><time>2026-04-30T10:01:34.073Z</time></trkpt><trkpt lat="41.4167919" lon="2.4527103"><ele>0.0</ele><time>2026-04-30T10:01:35.073Z</time></trkpt><trkpt lat="41.4168177" lon="2.4528076"><ele>0.0</ele><time>2026-04-30T10:01:36.074Z</time></trkpt><trkpt lat="41.4168622" lon="2.4529056"><ele>0.0</ele><time>2026-04-30T10:01:37.074Z</time></trkpt><trkpt lat="41.4169062" lon="2.4530079"><ele>0.0</ele><time>2026-04-30T10:01:38.074Z</time></trkpt><trkpt lat="41.4169271" lon="2.453116"><ele>0.0</ele><time>2026-04-30T10:01:39.074Z</time></trkpt><trkpt lat="41.4169613" lon="2.453211"><ele>0.0</ele><time>2026-04-30T10:01:40.073Z</time></trkpt><trkpt lat="41.4169789" lon="2.453309"><ele>0.0</ele><time>2026-04-30T10:01:41.073Z</time></trkpt><trkpt lat="41.4170071" lon="2.4534124"><ele>0.0</ele><time>2026-04-30T10:01:42.073Z</time></trkpt><trkpt lat="41.4170723" lon="2.4535129"><ele>0.0</ele><time>2026-04-30T10:01:43.074Z</time></trkpt><trkpt lat="41.4171024" lon="2.4536156"><ele>0.0</ele><time>2026-04-30T10:01:44.073Z</time></trkpt><trkpt lat="41.4171308" lon="2.4537182"><ele>0.0</ele><time>2026-04-30T10:01:45.073Z</time></trkpt><trkpt lat="41.4171644" lon="2.4538197"><ele>0.0</ele><time>2026-04-30T10:01:46.074Z</time></trkpt><trkpt lat="41.4171962" lon="2.4539242"><ele>0.0</ele><time>2026-04-30T10:01:47.073Z</time></trkpt><trkpt lat="41.4172814" lon="2.4541345"><ele>0.0</ele><time>2026-04-30T10:01:49.073Z</time></trkpt><trkpt lat="41.4173148" lon="2.454225"><ele>0.0</ele><time>2026-04-30T10:01:50.074Z</time></trkpt><trkpt lat="41.4173449" lon="2.454312"><ele>0.0</ele><time>2026-04-30T10:01:51.073Z</time></trkpt><trkpt lat="41.4174057" lon="2.4544133"><ele>0.0</ele><time>2026-04-30T10:01:52.073Z</time></trkpt><trkpt lat="41.4174481" lon="2.4545147"><ele>0.0</ele><time>2026-04-30T10:01:53.074Z</time></trkpt><trkpt lat="41.417487" lon="2.4546203"><ele>0.0</ele><time>2026-04-30T10:01:54.074Z</time></trkpt><trkpt lat="41.4175239" lon="2.4547258"><ele>0.0</ele><time>2026-04-30T10:01:55.074Z</time></trkpt><trkpt lat="41.4175841" lon="2.4548325"><ele>0.0</ele><time>2026-04-30T10:01:56.073Z</time></trkpt><trkpt lat="41.4176477" lon="2.4549333"><ele>0.0</ele><time>2026-04-30T10:01:57.074Z</time></trkpt><trkpt lat="41.4176841" lon="2.4550373"><ele>0.0</ele><time>2026-04-30T10:01:58.074Z</time></trkpt><trkpt lat="41.4177221" lon="2.455141"><ele>0.0</ele><time>2026-04-30T10:01:59.073Z</time></trkpt><trkpt lat="41.4178031" lon="2.4552371"><ele>0.0</ele><time>2026-04-30T10:02:00.073Z</time></trkpt><trkpt lat="41.4178527" lon="2.4553375"><ele>0.0</ele><time>2026-04-30T10:02:01.073Z</time></trkpt><trkpt lat="41.417894" lon="2.4554438"><ele>0.0</ele><time>2026-04-30T10:02:02.073Z</time></trkpt><trkpt lat="41.4179339" lon="2.4555477"><ele>0.0</ele><time>2026-04-30T10:02:03.073Z</time></trkpt><trkpt lat="41.4179665" lon="2.4556486"><ele>0.0</ele><time>2026-04-30T10:02:04.074Z</time></trkpt><trkpt lat="41.4180039" lon="2.4557472"><ele>0.0</ele><time>2026-04-30T10:02:05.073Z</time></trkpt><trkpt lat="41.4180437" lon="2.4558468"><ele>0.0</ele><time>2026-04-30T10:02:06.073Z</time></trkpt><trkpt lat="41.4180835" lon="2.4559465"><ele>0.0</ele><time>2026-04-30T10:02:07.073Z</time></trkpt><trkpt lat="41.4181204" lon="2.4560499"><ele>0.0</ele><time>2026-04-30T10:02:08.073Z</time></trkpt><trkpt lat="41.4181937" lon="2.4562515"><ele>0.0</ele><time>2026-04-30T10:02:10.073Z</time></trkpt><trkpt lat="41.4182364" lon="2.4563607"><ele>0.0</ele><time>2026-04-30T10:02:11.073Z</time></trkpt><trkpt lat="41.4182753" lon="2.4564646"><ele>0.0</ele><time>2026-04-30T10:02:12.073Z</time></trkpt><trkpt lat="41.4183092" lon="2.4565667"><ele>0.0</ele><time>2026-04-30T10:02:13.073Z</time></trkpt><trkpt lat="41.4183438" lon="2.4566698"><ele>0.0</ele><time>2026-04-30T10:02:14.074Z</time></trkpt><trkpt lat="41.418379" lon="2.456776"><ele>0.0</ele><time>2026-04-30T10:02:15.074Z</time></trkpt><trkpt lat="41.4184128" lon="2.4568774"><ele>0.0</ele><time>2026-04-30T10:02:16.074Z</time></trkpt><trkpt lat="41.4184447" lon="2.4569828"><ele>0.0</ele><time>2026-04-30T10:02:17.074Z</time></trkpt><trkpt lat="41.4184778" lon="2.4570795"><ele>0.0</ele><time>2026-04-30T10:02:18.073Z</time></trkpt><trkpt lat="41.4185207" lon="2.4571747"><ele>0.0</ele><time>2026-04-30T10:02:19.074Z</time></trkpt><trkpt lat="41.4185561" lon="2.457282"><ele>0.0</ele><time>2026-04-30T10:02:20.073Z</time></trkpt><trkpt lat="41.4185896" lon="2.4573858"><ele>0.0</ele><time>2026-04-30T10:02:21.073Z</time></trkpt><trkpt lat="41.4186203" lon="2.457488"><ele>0.0</ele><time>2026-04-30T10:02:22.073Z</time></trkpt><trkpt lat="41.4186457" lon="2.4575956"><ele>0.0</ele><time>2026-04-30T10:02:23.074Z</time></trkpt><trkpt lat="41.4186787" lon="2.4576971"><ele>0.0</ele><time>2026-04-30T10:02:24.073Z</time></trkpt><trkpt lat="41.4187042" lon="2.4577972"><ele>0.0</ele><time>2026-04-30T10:02:25.073Z</time></trkpt><trkpt lat="41.4187314" lon="2.4578973"><ele>0.0</ele><time>2026-04-30T10:02:26.073Z</time></trkpt><trkpt lat="41.4187682" lon="2.4579925"><ele>0.0</ele><time>2026-04-30T10:02:27.073Z</time></trkpt><trkpt lat="41.4188035" lon="2.4580931"><ele>0.0</ele><time>2026-04-30T10:02:28.073Z</time></trkpt><trkpt lat="41.4188418" lon="2.4581922"><ele>0.0</ele><time>2026-04-30T10:02:29.074Z</time></trkpt><trkpt lat="41.4188875" lon="2.4582903"><ele>0.0</ele><time>2026-04-30T10:02:30.074Z</time></trkpt><trkpt lat="41.4189627" lon="2.4584897"><ele>0.0</ele><time>2026-04-30T10:02:32.074Z</time></trkpt><trkpt lat="41.4189993" lon="2.4585915"><ele>0.0</ele><time>2026-04-30T10:02:33.074Z</time></trkpt><trkpt lat="41.419037" lon="2.4586929"><ele>0.0</ele><time>2026-04-30T10:02:34.073Z</time></trkpt><trkpt lat="41.4190696" lon="2.4587876"><ele>0.0</ele><time>2026-04-30T10:02:35.073Z</time></trkpt><trkpt lat="41.4191098" lon="2.4588837"><ele>0.0</ele><time>2026-04-30T10:02:36.074Z</time></trkpt><trkpt lat="41.4191444" lon="2.4589851"><ele>0.0</ele><time>2026-04-30T10:02:37.073Z</time></trkpt><trkpt lat="41.4191762" lon="2.4590866"><ele>0.0</ele><time>2026-04-30T10:02:38.073Z</time></trkpt><trkpt lat="41.4192131" lon="2.4591897"><ele>0.0</ele><time>2026-04-30T10:02:39.073Z</time></trkpt><trkpt lat="41.4192486" lon="2.4592901"><ele>0.0</ele><time>2026-04-30T10:02:40.074Z</time></trkpt><trkpt lat="41.4192842" lon="2.4593923"><ele>0.0</ele><time>2026-04-30T10:02:41.072Z</time></trkpt><trkpt lat="41.4193138" lon="2.4594936"><ele>0.0</ele><time>2026-04-30T10:02:42.073Z</time></trkpt><trkpt lat="41.4193415" lon="2.4595903"><ele>0.0</ele><time>2026-04-30T10:02:43.073Z</time></trkpt><trkpt lat="41.4193671" lon="2.4596939"><ele>0.0</ele><time>2026-04-30T10:02:44.072Z</time></trkpt><trkpt lat="41.4194003" lon="2.4597961"><ele>0.0</ele><time>2026-04-30T10:02:45.072Z</time></trkpt><trkpt lat="41.4194351" lon="2.4598981"><ele>0.0</ele><time>2026-04-30T10:02:46.072Z</time></trkpt><trkpt lat="41.4194757" lon="2.4599942"><ele>0.0</ele><time>2026-04-30T10:02:47.072Z</time></trkpt><trkpt lat="41.4195438" lon="2.4600918"><ele>0.0</ele><time>2026-04-30T10:02:48.073Z</time></trkpt><trkpt lat="41.4195987" lon="2.4601917"><ele>0.0</ele><time>2026-04-30T10:02:49.073Z</time></trkpt><trkpt lat="41.4196296" lon="2.4603024"><ele>0.0</ele><time>2026-04-30T10:02:50.072Z</time></trkpt><trkpt lat="41.4196702" lon="2.4604089"><ele>0.0</ele><time>2026-04-30T10:02:51.072Z</time></trkpt><trkpt lat="41.4198269" lon="2.4606027"><ele>0.0</ele><time>2026-04-30T10:02:53.072Z</time></trkpt><trkpt lat="41.4198686" lon="2.4607013"><ele>0.0</ele><time>2026-04-30T10:02:54.072Z</time></trkpt><trkpt lat="41.4199357" lon="2.4607974"><ele>0.0</ele><time>2026-04-30T10:02:55.073Z</time></trkpt><trkpt lat="41.4200158" lon="2.4608952"><ele>0.0</ele><time>2026-04-30T10:02:56.072Z</time></trkpt><trkpt lat="41.4200611" lon="2.4609948"><ele>0.0</ele><time>2026-04-30T10:02:57.072Z</time></trkpt><trkpt lat="41.4201324" lon="2.4610936"><ele>0.0</ele><time>2026-04-30T10:02:58.072Z</time></trkpt><trkpt lat="41.4201981" lon="2.4611923"><ele>0.0</ele><time>2026-04-30T10:02:59.072Z</time></trkpt><trkpt lat="41.4202427" lon="2.4613002"><ele>0.0</ele><time>2026-04-30T10:03:00.072Z</time></trkpt><trkpt lat="41.420294" lon="2.4614017"><ele>0.0</ele><time>2026-04-30T10:03:01.073Z</time></trkpt><trkpt lat="41.4203241" lon="2.4615016"><ele>0.0</ele><time>2026-04-30T10:03:02.072Z</time></trkpt><trkpt lat="41.4203612" lon="2.4616032"><ele>0.0</ele><time>2026-04-30T10:03:03.073Z</time></trkpt><trkpt lat="41.4204034" lon="2.4617059"><ele>0.0</ele><time>2026-04-30T10:03:04.072Z</time></trkpt><trkpt lat="41.4204412" lon="2.4618063"><ele>0.0</ele><time>2026-04-30T10:03:05.073Z</time></trkpt><trkpt lat="41.4204838" lon="2.461902"><ele>0.0</ele><time>2026-04-30T10:03:06.073Z</time></trkpt><trkpt lat="41.4205128" lon="2.4620033"><ele>0.0</ele><time>2026-04-30T10:03:07.072Z</time></trkpt><trkpt lat="41.4205399" lon="2.4621009"><ele>0.0</ele><time>2026-04-30T10:03:08.072Z</time></trkpt><trkpt lat="41.42057" lon="2.4622021"><ele>0.0</ele><time>2026-04-30T10:03:09.073Z</time></trkpt><trkpt lat="41.4205971" lon="2.4623053"><ele>0.0</ele><time>2026-04-30T10:03:10.073Z</time></trkpt><trkpt lat="41.4206293" lon="2.4624082"><ele>0.0</ele><time>2026-04-30T10:03:11.073Z</time></trkpt><trkpt lat="41.4206584" lon="2.4625132"><ele>0.0</ele><time>2026-04-30T10:03:12.072Z</time></trkpt><trkpt lat="41.420719" lon="2.4627273"><ele>0.0</ele><time>2026-04-30T10:03:14.073Z</time></trkpt><trkpt lat="41.4207568" lon="2.4628354"><ele>0.0</ele><time>2026-04-30T10:03:15.072Z</time></trkpt><trkpt lat="41.4207966" lon="2.4629426"><ele>0.0</ele><time>2026-04-30T10:03:16.072Z</time></trkpt><trkpt lat="41.4208267" lon="2.4630509"><ele>0.0</ele><time>2026-04-30T10:03:17.072Z</time></trkpt><trkpt lat="41.4208523" lon="2.4631592"><ele>0.0</ele><time>2026-04-30T10:03:18.072Z</time></trkpt><trkpt lat="41.4208884" lon="2.4632675"><ele>0.0</ele><time>2026-04-30T10:03:19.073Z</time></trkpt><trkpt lat="41.4209268" lon="2.46337"><ele>0.0</ele><time>2026-04-30T10:03:20.072Z</time></trkpt><trkpt lat="41.420968" lon="2.46347"><ele>0.0</ele><time>2026-04-30T10:03:21.072Z</time></trkpt><trkpt lat="41.4210167" lon="2.4635727"><ele>0.0</ele><time>2026-04-30T10:03:22.072Z</time></trkpt><trkpt lat="41.4210627" lon="2.4636675"><ele>0.0</ele><time>2026-04-30T10:03:23.073Z</time></trkpt><trkpt lat="41.421129" lon="2.4637652"><ele>0.0</ele><time>2026-04-30T10:03:24.072Z</time></trkpt><trkpt lat="41.4211764" lon="2.463862"><ele>0.0</ele><time>2026-04-30T10:03:25.072Z</time></trkpt><trkpt lat="41.4212225" lon="2.4639556"><ele>0.0</ele><time>2026-04-30T10:03:26.073Z</time></trkpt><trkpt lat="41.4212652" lon="2.4640581"><ele>0.0</ele><time>2026-04-30T10:03:27.073Z</time></trkpt><trkpt lat="41.4213053" lon="2.4641556"><ele>0.0</ele><time>2026-04-30T10:03:28.073Z</time></trkpt><trkpt lat="41.421351" lon="2.4642609"><ele>0.0</ele><time>2026-04-30T10:03:29.073Z</time></trkpt><trkpt lat="41.421392" lon="2.4643549"><ele>0.0</ele><time>2026-04-30T10:03:30.072Z</time></trkpt><trkpt lat="41.421437" lon="2.4644507"><ele>0.0</ele><time>2026-04-30T10:03:31.073Z</time></trkpt><trkpt lat="41.4214757" lon="2.464547"><ele>0.0</ele><time>2026-04-30T10:03:32.072Z</time></trkpt><trkpt lat="41.4215101" lon="2.4646381"><ele>0.0</ele><time>2026-04-30T10:03:33.073Z</time></trkpt><trkpt lat="41.4215621" lon="2.4648406"><ele>0.0</ele><time>2026-04-30T10:03:35.073Z</time></trkpt><trkpt lat="41.4216086" lon="2.4649441"><ele>0.0</ele><time>2026-04-30T10:03:36.072Z</time></trkpt><trkpt lat="41.4216456" lon="2.4650478"><ele>0.0</ele><time>2026-04-30T10:03:37.072Z</time></trkpt><trkpt lat="41.4216964" lon="2.465147"><ele>0.0</ele><time>2026-04-30T10:03:38.072Z</time></trkpt><trkpt lat="41.4217405" lon="2.4652528"><ele>0.0</ele><time>2026-04-30T10:03:39.072Z</time></trkpt><trkpt lat="41.4217927" lon="2.4653554"><ele>0.0</ele><time>2026-04-30T10:03:40.073Z</time></trkpt><trkpt lat="41.4218341" lon="2.4654593"><ele>0.0</ele><time>2026-04-30T10:03:41.072Z</time></trkpt><trkpt lat="41.4218731" lon="2.4655633"><ele>0.0</ele><time>2026-04-30T10:03:42.072Z</time></trkpt><trkpt lat="41.4219132" lon="2.4656639"><ele>0.0</ele><time>2026-04-30T10:03:43.072Z</time></trkpt><trkpt lat="41.4219517" lon="2.4657635"><ele>0.0</ele><time>2026-04-30T10:03:44.072Z</time></trkpt><trkpt lat="41.4219929" lon="2.4658574"><ele>0.0</ele><time>2026-04-30T10:03:45.072Z</time></trkpt><trkpt lat="41.4220347" lon="2.4659611"><ele>0.0</ele><time>2026-04-30T10:03:46.072Z</time></trkpt><trkpt lat="41.4220807" lon="2.4660633"><ele>0.0</ele><time>2026-04-30T10:03:47.072Z</time></trkpt><trkpt lat="41.4221247" lon="2.4661665"><ele>0.0</ele><time>2026-04-30T10:03:48.073Z</time></trkpt><trkpt lat="41.4221671" lon="2.4662658"><ele>0.0</ele><time>2026-04-30T10:03:49.073Z</time></trkpt><trkpt lat="41.4222072" lon="2.4663655"><ele>0.0</ele><time>2026-04-30T10:03:50.072Z</time></trkpt><trkpt lat="41.4222488" lon="2.4664639"><ele>0.0</ele><time>2026-04-30T10:03:51.072Z</time></trkpt><trkpt lat="41.4222889" lon="2.4665677"><ele>0.0</ele><time>2026-04-30T10:03:52.072Z</time></trkpt><trkpt lat="41.4223289" lon="2.4666702"><ele>0.0</ele><time>2026-04-30T10:03:53.073Z</time></trkpt><trkpt lat="41.4223604" lon="2.4667762"><ele>0.0</ele><time>2026-04-30T10:03:54.073Z</time></trkpt><trkpt lat="41.422428" lon="2.4669831"><ele>0.0</ele><time>2026-04-30T10:03:56.072Z</time></trkpt><trkpt lat="41.4224599" lon="2.4670912"><ele>0.0</ele><time>2026-04-30T10:03:57.073Z</time></trkpt><trkpt lat="41.4224928" lon="2.4671961"><ele>0.0</ele><time>2026-04-30T10:03:58.073Z</time></trkpt><trkpt lat="41.4225258" lon="2.4672969"><ele>0.0</ele><time>2026-04-30T10:03:59.073Z</time></trkpt><trkpt lat="41.4225639" lon="2.4673967"><ele>0.0</ele><time>2026-04-30T10:04:00.073Z</time></trkpt><trkpt lat="41.4226049" lon="2.4674981"><ele>0.0</ele><time>2026-04-30T10:04:01.072Z</time></trkpt><trkpt lat="41.4226426" lon="2.4675958"><ele>0.0</ele><time>2026-04-30T10:04:02.072Z</time></trkpt><trkpt lat="41.422678" lon="2.4676969"><ele>0.0</ele><time>2026-04-30T10:04:03.073Z</time></trkpt><trkpt lat="41.422713" lon="2.4677976"><ele>0.0</ele><time>2026-04-30T10:04:04.073Z</time></trkpt><trkpt lat="41.4227488" lon="2.4678997"><ele>0.0</ele><time>2026-04-30T10:04:05.072Z</time></trkpt><trkpt lat="41.422777" lon="2.4680089"><ele>0.0</ele><time>2026-04-30T10:04:06.072Z</time></trkpt><trkpt lat="41.4228139" lon="2.4681132"><ele>0.0</ele><time>2026-04-30T10:04:07.072Z</time></trkpt><trkpt lat="41.4228536" lon="2.4682132"><ele>0.0</ele><time>2026-04-30T10:04:08.072Z</time></trkpt><trkpt lat="41.4228904" lon="2.4683149"><ele>0.0</ele><time>2026-04-30T10:04:09.073Z</time></trkpt><trkpt lat="41.4229258" lon="2.4684165"><ele>0.0</ele><time>2026-04-30T10:04:10.072Z</time></trkpt><trkpt lat="41.422962" lon="2.4685199"><ele>0.0</ele><time>2026-04-30T10:04:11.072Z</time></trkpt><trkpt lat="41.4229971" lon="2.4686239"><ele>0.0</ele><time>2026-04-30T10:04:12.073Z</time></trkpt><trkpt lat="41.423094" lon="2.4687141"><ele>0.0</ele><time>2026-04-30T10:04:13.072Z</time></trkpt><trkpt lat="41.423139" lon="2.4688147"><ele>0.0</ele><time>2026-04-30T10:04:14.072Z</time></trkpt><trkpt lat="41.4231765" lon="2.4689149"><ele>0.0</ele><time>2026-04-30T10:04:15.072Z</time></trkpt><trkpt lat="41.4232581" lon="2.4691292"><ele>0.0</ele><time>2026-04-30T10:04:17.073Z</time></trkpt><trkpt lat="41.4232995" lon="2.4692372"><ele>0.0</ele><time>2026-04-30T10:04:18.073Z</time></trkpt><trkpt lat="41.4233401" lon="2.4693414"><ele>0.0</ele><time>2026-04-30T10:04:19.072Z</time></trkpt><trkpt lat="41.4233817" lon="2.4694395"><ele>0.0</ele><time>2026-04-30T10:04:20.073Z</time></trkpt><trkpt lat="41.4234229" lon="2.4695416"><ele>0.0</ele><time>2026-04-30T10:04:21.072Z</time></trkpt><trkpt lat="41.4234706" lon="2.4696431"><ele>0.0</ele><time>2026-04-30T10:04:22.073Z</time></trkpt><trkpt lat="41.423512" lon="2.4697431"><ele>0.0</ele><time>2026-04-30T10:04:23.073Z</time></trkpt><trkpt lat="41.4235522" lon="2.469839"><ele>0.0</ele><time>2026-04-30T10:04:24.072Z</time></trkpt><trkpt lat="41.4235945" lon="2.4699356"><ele>0.0</ele><time>2026-04-30T10:04:25.072Z</time></trkpt><trkpt lat="41.4236363" lon="2.4700365"><ele>0.0</ele><time>2026-04-30T10:04:26.073Z</time></trkpt><trkpt lat="41.4236854" lon="2.4701373"><ele>0.0</ele><time>2026-04-30T10:04:27.072Z</time></trkpt><trkpt lat="41.4237769" lon="2.4702269"><ele>0.0</ele><time>2026-04-30T10:04:28.073Z</time></trkpt><trkpt lat="41.4238233" lon="2.4703224"><ele>0.0</ele><time>2026-04-30T10:04:29.073Z</time></trkpt><trkpt lat="41.4238654" lon="2.4704205"><ele>0.0</ele><time>2026-04-30T10:04:30.073Z</time></trkpt><trkpt lat="41.4239116" lon="2.4705093"><ele>0.0</ele><time>2026-04-30T10:04:31.072Z</time></trkpt><trkpt lat="41.4239533" lon="2.4706045"><ele>0.0</ele><time>2026-04-30T10:04:32.072Z</time></trkpt><trkpt lat="41.4239952" lon="2.4707063"><ele>0.0</ele><time>2026-04-30T10:04:33.072Z</time></trkpt><trkpt lat="41.4240397" lon="2.4708098"><ele>0.0</ele><time>2026-04-30T10:04:34.073Z</time></trkpt><trkpt lat="41.4240803" lon="2.4709097"><ele>0.0</ele><time>2026-04-30T10:04:35.073Z</time></trkpt><trkpt lat="41.4241247" lon="2.4710106"><ele>0.0</ele><time>2026-04-30T10:04:36.073Z</time></trkpt><trkpt lat="41.4241701" lon="2.4711175"><ele>0.0</ele><time>2026-04-30T10:04:37.072Z</time></trkpt><trkpt lat="41.4242541" lon="2.4713293"><ele>0.0</ele><time>2026-04-30T10:04:39.073Z</time></trkpt><trkpt lat="41.4242942" lon="2.4714294"><ele>0.0</ele><time>2026-04-30T10:04:40.072Z</time></trkpt><trkpt lat="41.4243353" lon="2.4715297"><ele>0.0</ele><time>2026-04-30T10:04:41.073Z</time></trkpt><trkpt lat="41.4243771" lon="2.4716331"><ele>0.0</ele><time>2026-04-30T10:04:42.072Z</time></trkpt><trkpt lat="41.4244196" lon="2.4717377"><ele>0.0</ele><time>2026-04-30T10:04:43.073Z</time></trkpt><trkpt lat="41.4244572" lon="2.471839"><ele>0.0</ele><time>2026-04-30T10:04:44.073Z</time></trkpt><trkpt lat="41.4244924" lon="2.4719359"><ele>0.0</ele><time>2026-04-30T10:04:45.073Z</time></trkpt><trkpt lat="41.4245262" lon="2.4720331"><ele>0.0</ele><time>2026-04-30T10:04:46.073Z</time></trkpt><trkpt lat="41.4245637" lon="2.4721333"><ele>0.0</ele><time>2026-04-30T10:04:47.073Z</time></trkpt><trkpt lat="41.424605" lon="2.4722361"><ele>0.0</ele><time>2026-04-30T10:04:48.072Z</time></trkpt><trkpt lat="41.4246451" lon="2.4723391"><ele>0.0</ele><time>2026-04-30T10:04:49.073Z</time></trkpt><trkpt lat="41.4246889" lon="2.4724424"><ele>0.0</ele><time>2026-04-30T10:04:50.072Z</time></trkpt><trkpt lat="41.4247303" lon="2.4725451"><ele>0.0</ele><time>2026-04-30T10:04:51.072Z</time></trkpt><trkpt lat="41.4247915" lon="2.4726412"><ele>0.0</ele><time>2026-04-30T10:04:52.073Z</time></trkpt><trkpt lat="41.4248416" lon="2.4727385"><ele>0.0</ele><time>2026-04-30T10:04:53.072Z</time></trkpt><trkpt lat="41.424875" lon="2.472841"><ele>0.0</ele><time>2026-04-30T10:04:54.072Z</time></trkpt><trkpt lat="41.4249124" lon="2.4729469"><ele>0.0</ele><time>2026-04-30T10:04:55.073Z</time></trkpt><trkpt lat="41.4249462" lon="2.4730483"><ele>0.0</ele><time>2026-04-30T10:04:56.072Z</time></trkpt><trkpt lat="41.4249769" lon="2.4731509"><ele>0.0</ele><time>2026-04-30T10:04:57.072Z</time></trkpt><trkpt lat="41.4250124" lon="2.4732562"><ele>0.0</ele><time>2026-04-30T10:04:58.073Z</time></trkpt><trkpt lat="41.4251045" lon="2.4734601"><ele>0.0</ele><time>2026-04-30T10:05:00.072Z</time></trkpt><trkpt lat="41.4251363" lon="2.4735617"><ele>0.0</ele><time>2026-04-30T10:05:01.073Z</time></trkpt><trkpt lat="41.4251722" lon="2.473662"><ele>0.0</ele><time>2026-04-30T10:05:02.073Z</time></trkpt><trkpt lat="41.4252071" lon="2.4737605"><ele>0.0</ele><time>2026-04-30T10:05:03.072Z</time></trkpt><trkpt lat="41.4252426" lon="2.4738588"><ele>0.0</ele><time>2026-04-30T10:05:04.072Z</time></trkpt><trkpt lat="41.4252777" lon="2.4739602"><ele>0.0</ele><time>2026-04-30T10:05:05.072Z</time></trkpt><trkpt lat="41.4253139" lon="2.4740599"><ele>0.0</ele><time>2026-04-30T10:05:06.073Z</time></trkpt><trkpt lat="41.4253501" lon="2.4741585"><ele>0.0</ele><time>2026-04-30T10:05:07.072Z</time></trkpt><trkpt lat="41.425385" lon="2.4742626"><ele>0.0</ele><time>2026-04-30T10:05:08.072Z</time></trkpt><trkpt lat="41.4254573" lon="2.4744711"><ele>0.0</ele><time>2026-04-30T10:05:10.072Z</time></trkpt><trkpt lat="41.4254939" lon="2.4745721"><ele>0.0</ele><time>2026-04-30T10:05:11.072Z</time></trkpt><trkpt lat="41.4255332" lon="2.4746729"><ele>0.0</ele><time>2026-04-30T10:05:12.072Z</time></trkpt><trkpt lat="41.4255718" lon="2.4747793"><ele>0.0</ele><time>2026-04-30T10:05:13.072Z</time></trkpt><trkpt lat="41.4256084" lon="2.474883"><ele>0.0</ele><time>2026-04-30T10:05:14.073Z</time></trkpt><trkpt lat="41.4256436" lon="2.4749854"><ele>0.0</ele><time>2026-04-30T10:05:15.072Z</time></trkpt><trkpt lat="41.4256829" lon="2.4750939"><ele>0.0</ele><time>2026-04-30T10:05:16.072Z</time></trkpt><trkpt lat="41.4257199" lon="2.4751948"><ele>0.0</ele><time>2026-04-30T10:05:17.072Z</time></trkpt><trkpt lat="41.4257567" lon="2.4752978"><ele>0.0</ele><time>2026-04-30T10:05:18.073Z</time></trkpt><trkpt lat="41.4258057" lon="2.4754044"><ele>0.0</ele><time>2026-04-30T10:05:19.073Z</time></trkpt><trkpt lat="41.4258908" lon="2.4756163"><ele>0.0</ele><time>2026-04-30T10:05:21.073Z</time></trkpt><trkpt lat="41.4259269" lon="2.4757254"><ele>0.0</ele><time>2026-04-30T10:05:22.072Z</time></trkpt><trkpt lat="41.425979" lon="2.4758211"><ele>0.0</ele><time>2026-04-30T10:05:23.073Z</time></trkpt><trkpt lat="41.4260299" lon="2.4759151"><ele>0.0</ele><time>2026-04-30T10:05:24.073Z</time></trkpt><trkpt lat="41.42607" lon="2.4760128"><ele>0.0</ele><time>2026-04-30T10:05:25.072Z</time></trkpt><trkpt lat="41.4261057" lon="2.4761189"><ele>0.0</ele><time>2026-04-30T10:05:26.072Z</time></trkpt><trkpt lat="41.4261603" lon="2.4762129"><ele>0.0</ele><time>2026-04-30T10:05:27.072Z</time></trkpt><trkpt lat="41.42619" lon="2.4763102"><ele>0.0</ele><time>2026-04-30T10:05:28.073Z</time></trkpt><trkpt lat="41.4262284" lon="2.4764104"><ele>0.0</ele><time>2026-04-30T10:05:29.073Z</time></trkpt><trkpt lat="41.4262714" lon="2.4765143"><ele>0.0</ele><time>2026-04-30T10:05:30.072Z</time></trkpt><trkpt lat="41.426309" lon="2.4766141"><ele>0.0</ele><time>2026-04-30T10:05:31.073Z</time></trkpt><trkpt lat="41.426349" lon="2.4767124"><ele>0.0</ele><time>2026-04-30T10:05:32.072Z</time></trkpt><trkpt lat="41.4263855" lon="2.4768088"><ele>0.0</ele><time>2026-04-30T10:05:33.073Z</time></trkpt><trkpt lat="41.4264221" lon="2.4769085"><ele>0.0</ele><time>2026-04-30T10:05:34.073Z</time></trkpt><trkpt lat="41.4264589" lon="2.4770042"><ele>0.0</ele><time>2026-04-30T10:05:35.072Z</time></trkpt><trkpt lat="41.426494" lon="2.4771051"><ele>0.0</ele><time>2026-04-30T10:05:36.073Z</time></trkpt><trkpt lat="41.426545" lon="2.47722"><ele>0.0</ele><time>2026-04-30T10:05:37.073Z</time></trkpt><trkpt lat="41.4265797" lon="2.4773231"><ele>0.0</ele><time>2026-04-30T10:05:38.072Z</time></trkpt><trkpt lat="41.4266117" lon="2.4774231"><ele>0.0</ele><time>2026-04-30T10:05:39.073Z</time></trkpt><trkpt lat="41.4266459" lon="2.4775249"><ele>0.0</ele><time>2026-04-30T10:05:40.073Z</time></trkpt><trkpt lat="41.4267498" lon="2.4777314"><ele>0.0</ele><time>2026-04-30T10:05:42.072Z</time></trkpt><trkpt lat="41.4267819" lon="2.4778334"><ele>0.0</ele><time>2026-04-30T10:05:43.072Z</time></trkpt><trkpt lat="41.4268221" lon="2.4779379"><ele>0.0</ele><time>2026-04-30T10:05:44.072Z</time></trkpt><trkpt lat="41.4268662" lon="2.478045"><ele>0.0</ele><time>2026-04-30T10:05:45.072Z</time></trkpt><trkpt lat="41.4269039" lon="2.4781428"><ele>0.0</ele><time>2026-04-30T10:05:46.073Z</time></trkpt><trkpt lat="41.4269378" lon="2.4782369"><ele>0.0</ele><time>2026-04-30T10:05:47.072Z</time></trkpt><trkpt lat="41.4269695" lon="2.4783326"><ele>0.0</ele><time>2026-04-30T10:05:48.073Z</time></trkpt><trkpt lat="41.4270028" lon="2.4784434"><ele>0.0</ele><time>2026-04-30T10:05:49.072Z</time></trkpt><trkpt lat="41.4270303" lon="2.4785482"><ele>0.0</ele><time>2026-04-30T10:05:50.072Z</time></trkpt><trkpt lat="41.4270684" lon="2.4786514"><ele>0.0</ele><time>2026-04-30T10:05:51.073Z</time></trkpt><trkpt lat="41.4271051" lon="2.4787491"><ele>0.0</ele><time>2026-04-30T10:05:52.072Z</time></trkpt><trkpt lat="41.4271449" lon="2.4788517"><ele>0.0</ele><time>2026-04-30T10:05:53.072Z</time></trkpt><trkpt lat="41.4271849" lon="2.4789573"><ele>0.0</ele><time>2026-04-30T10:05:54.073Z</time></trkpt><trkpt lat="41.4272214" lon="2.4790601"><ele>0.0</ele><time>2026-04-30T10:05:55.072Z</time></trkpt><trkpt lat="41.4272599" lon="2.4791656"><ele>0.0</ele><time>2026-04-30T10:05:56.073Z</time></trkpt><trkpt lat="41.4273038" lon="2.4792681"><ele>0.0</ele><time>2026-04-30T10:05:57.073Z</time></trkpt><trkpt lat="41.4273473" lon="2.4793703"><ele>0.0</ele><time>2026-04-30T10:05:58.073Z</time></trkpt><trkpt lat="41.4273866" lon="2.4794717"><ele>0.0</ele><time>2026-04-30T10:05:59.073Z</time></trkpt><trkpt lat="41.4274295" lon="2.479571"><ele>0.0</ele><time>2026-04-30T10:06:00.073Z</time></trkpt><trkpt lat="41.4274711" lon="2.4796675"><ele>0.0</ele><time>2026-04-30T10:06:01.073Z</time></trkpt><trkpt lat="41.427552" lon="2.4798591"><ele>0.0</ele><time>2026-04-30T10:06:03.072Z</time></trkpt><trkpt lat="41.4275933" lon="2.4799597"><ele>0.0</ele><time>2026-04-30T10:06:04.072Z</time></trkpt><trkpt lat="41.427635" lon="2.4800591"><ele>0.0</ele><time>2026-04-30T10:06:05.073Z</time></trkpt><trkpt lat="41.4276754" lon="2.4801526"><ele>0.0</ele><time>2026-04-30T10:06:06.073Z</time></trkpt><trkpt lat="41.4277208" lon="2.4802529"><ele>0.0</ele><time>2026-04-30T10:06:07.072Z</time></trkpt><trkpt lat="41.4277621" lon="2.4803547"><ele>0.0</ele><time>2026-04-30T10:06:08.072Z</time></trkpt><trkpt lat="41.4278047" lon="2.4804532"><ele>0.0</ele><time>2026-04-30T10:06:09.073Z</time></trkpt><trkpt lat="41.427848" lon="2.480559"><ele>0.0</ele><time>2026-04-30T10:06:10.073Z</time></trkpt><trkpt lat="41.4278946" lon="2.4806672"><ele>0.0</ele><time>2026-04-30T10:06:11.072Z</time></trkpt><trkpt lat="41.4279431" lon="2.4807684"><ele>0.0</ele><time>2026-04-30T10:06:12.072Z</time></trkpt><trkpt lat="41.4279852" lon="2.4808682"><ele>0.0</ele><time>2026-04-30T10:06:13.073Z</time></trkpt><trkpt lat="41.4280295" lon="2.4809745"><ele>0.0</ele><time>2026-04-30T10:06:14.073Z</time></trkpt><trkpt lat="41.4280718" lon="2.4810725"><ele>0.0</ele><time>2026-04-30T10:06:15.072Z</time></trkpt><trkpt lat="41.4281164" lon="2.4811669"><ele>0.0</ele><time>2026-04-30T10:06:16.072Z</time></trkpt><trkpt lat="41.4281569" lon="2.4812696"><ele>0.0</ele><time>2026-04-30T10:06:17.073Z</time></trkpt><trkpt lat="41.4281998" lon="2.4813743"><ele>0.0</ele><time>2026-04-30T10:06:18.072Z</time></trkpt><trkpt lat="41.4282353" lon="2.4814766"><ele>0.0</ele><time>2026-04-30T10:06:19.072Z</time></trkpt><trkpt lat="41.4282775" lon="2.4815828"><ele>0.0</ele><time>2026-04-30T10:06:20.073Z</time></trkpt><trkpt lat="41.4283212" lon="2.4816907"><ele>0.0</ele><time>2026-04-30T10:06:21.072Z</time></trkpt><trkpt lat="41.4283635" lon="2.481793"><ele>0.0</ele><time>2026-04-30T10:06:22.072Z</time></trkpt><trkpt lat="41.4284516" lon="2.4820025"><ele>0.0</ele><time>2026-04-30T10:06:24.072Z</time></trkpt><trkpt lat="41.428506" lon="2.4821025"><ele>0.0</ele><time>2026-04-30T10:06:25.072Z</time></trkpt><trkpt lat="41.4285677" lon="2.4821991"><ele>0.0</ele><time>2026-04-30T10:06:26.072Z</time></trkpt><trkpt lat="41.4286431" lon="2.4822928"><ele>0.0</ele><time>2026-04-30T10:06:27.072Z</time></trkpt><trkpt lat="41.4287156" lon="2.4823881"><ele>0.0</ele><time>2026-04-30T10:06:28.073Z</time></trkpt><trkpt lat="41.428754" lon="2.4824873"><ele>0.0</ele><time>2026-04-30T10:06:29.072Z</time></trkpt><trkpt lat="41.4287906" lon="2.4825854"><ele>0.0</ele><time>2026-04-30T10:06:30.072Z</time></trkpt><trkpt lat="41.4288236" lon="2.4826822"><ele>0.0</ele><time>2026-04-30T10:06:31.073Z</time></trkpt><trkpt lat="41.4288584" lon="2.4827816"><ele>0.0</ele><time>2026-04-30T10:06:32.072Z</time></trkpt><trkpt lat="41.4288889" lon="2.48288"><ele>0.0</ele><time>2026-04-30T10:06:33.072Z</time></trkpt><trkpt lat="41.4289212" lon="2.4829804"><ele>0.0</ele><time>2026-04-30T10:06:34.072Z</time></trkpt><trkpt lat="41.4289534" lon="2.4830829"><ele>0.0</ele><time>2026-04-30T10:06:35.073Z</time></trkpt><trkpt lat="41.4289867" lon="2.4831872"><ele>0.0</ele><time>2026-04-30T10:06:36.073Z</time></trkpt><trkpt lat="41.4290241" lon="2.4832925"><ele>0.0</ele><time>2026-04-30T10:06:37.073Z</time></trkpt><trkpt lat="41.4290651" lon="2.483398"><ele>0.0</ele><time>2026-04-30T10:06:38.072Z</time></trkpt><trkpt lat="41.429101" lon="2.4834983"><ele>0.0</ele><time>2026-04-30T10:06:39.073Z</time></trkpt><trkpt lat="41.4291399" lon="2.4835984"><ele>0.0</ele><time>2026-04-30T10:06:40.073Z</time></trkpt><trkpt lat="41.4291798" lon="2.4837029"><ele>0.0</ele><time>2026-04-30T10:06:41.072Z</time></trkpt><trkpt lat="41.4292197" lon="2.4838068"><ele>0.0</ele><time>2026-04-30T10:06:42.072Z</time></trkpt><trkpt lat="41.4292597" lon="2.4839081"><ele>0.0</ele><time>2026-04-30T10:06:43.072Z</time></trkpt><trkpt lat="41.4293" lon="2.4840099"><ele>0.0</ele><time>2026-04-30T10:06:44.073Z</time></trkpt><trkpt lat="41.4293806" lon="2.4842182"><ele>0.0</ele><time>2026-04-30T10:06:46.072Z</time></trkpt><trkpt lat="41.4294104" lon="2.4843225"><ele>0.0</ele><time>2026-04-30T10:06:47.072Z</time></trkpt><trkpt lat="41.429442" lon="2.4844292"><ele>0.0</ele><time>2026-04-30T10:06:48.072Z</time></trkpt><trkpt lat="41.4294674" lon="2.4845363"><ele>0.0</ele><time>2026-04-30T10:06:49.073Z</time></trkpt><trkpt lat="41.4294933" lon="2.4846371"><ele>0.0</ele><time>2026-04-30T10:06:50.072Z</time></trkpt><trkpt lat="41.4295185" lon="2.4847382"><ele>0.0</ele><time>2026-04-30T10:06:51.073Z</time></trkpt><trkpt lat="41.4295773" lon="2.4848345"><ele>0.0</ele><time>2026-04-30T10:06:52.072Z</time></trkpt><trkpt lat="41.4296449" lon="2.4849307"><ele>0.0</ele><time>2026-04-30T10:06:53.072Z</time></trkpt><trkpt lat="41.4296865" lon="2.4850346"><ele>0.0</ele><time>2026-04-30T10:06:54.073Z</time></trkpt><trkpt lat="41.4297168" lon="2.4851413"><ele>0.0</ele><time>2026-04-30T10:06:55.072Z</time></trkpt><trkpt lat="41.4297467" lon="2.4852462"><ele>0.0</ele><time>2026-04-30T10:06:56.072Z</time></trkpt><trkpt lat="41.4297764" lon="2.4853482"><ele>0.0</ele><time>2026-04-30T10:06:57.073Z</time></trkpt><trkpt lat="41.4298134" lon="2.4854496"><ele>0.0</ele><time>2026-04-30T10:06:58.072Z</time></trkpt><trkpt lat="41.4298534" lon="2.4855529"><ele>0.0</ele><time>2026-04-30T10:06:59.073Z</time></trkpt><trkpt lat="41.4298936" lon="2.4856535"><ele>0.0</ele><time>2026-04-30T10:07:00.072Z</time></trkpt><trkpt lat="41.4299346" lon="2.485755"><ele>0.0</ele><time>2026-04-30T10:07:01.072Z</time></trkpt><trkpt lat="41.4299764" lon="2.485858"><ele>0.0</ele><time>2026-04-30T10:07:02.072Z</time></trkpt><trkpt lat="41.4300184" lon="2.4859599"><ele>0.0</ele><time>2026-04-30T10:07:03.073Z</time></trkpt><trkpt lat="41.4300597" lon="2.4860615"><ele>0.0</ele><time>2026-04-30T10:07:04.072Z</time></trkpt><trkpt lat="41.4301059" lon="2.4861708"><ele>0.0</ele><time>2026-04-30T10:07:05.072Z</time></trkpt><trkpt lat="41.4301945" lon="2.4863747"><ele>0.0</ele><time>2026-04-30T10:07:07.073Z</time></trkpt><trkpt lat="41.4302363" lon="2.4864748"><ele>0.0</ele><time>2026-04-30T10:07:08.072Z</time></trkpt><trkpt lat="41.4302845" lon="2.4865833"><ele>0.0</ele><time>2026-04-30T10:07:09.072Z</time></trkpt><trkpt lat="41.4303561" lon="2.4866718"><ele>0.0</ele><time>2026-04-30T10:07:10.072Z</time></trkpt><trkpt lat="41.4304016" lon="2.4867717"><ele>0.0</ele><time>2026-04-30T10:07:11.072Z</time></trkpt><trkpt lat="41.4304391" lon="2.4868675"><ele>0.0</ele><time>2026-04-30T10:07:12.072Z</time></trkpt><trkpt lat="41.4304785" lon="2.4869635"><ele>0.0</ele><time>2026-04-30T10:07:13.072Z</time></trkpt><trkpt lat="41.4305239" lon="2.4870632"><ele>0.0</ele><time>2026-04-30T10:07:14.072Z</time></trkpt><trkpt lat="41.4305678" lon="2.4871666"><ele>0.0</ele><time>2026-04-30T10:07:15.072Z</time></trkpt><trkpt lat="41.4306085" lon="2.4872668"><ele>0.0</ele><time>2026-04-30T10:07:16.071Z</time></trkpt><trkpt lat="41.4306473" lon="2.4873627"><ele>0.0</ele><time>2026-04-30T10:07:17.072Z</time></trkpt><trkpt lat="41.4306747" lon="2.4874634"><ele>0.0</ele><time>2026-04-30T10:07:18.072Z</time></trkpt><trkpt lat="41.4307064" lon="2.4875601"><ele>0.0</ele><time>2026-04-30T10:07:19.071Z</time></trkpt><trkpt lat="41.4307593" lon="2.4876553"><ele>0.0</ele><time>2026-04-30T10:07:20.072Z</time></trkpt><trkpt lat="41.4308003" lon="2.487759"><ele>0.0</ele><time>2026-04-30T10:07:21.071Z</time></trkpt><trkpt lat="41.4308389" lon="2.4878619"><ele>0.0</ele><time>2026-04-30T10:07:22.071Z</time></trkpt><trkpt lat="41.4308755" lon="2.4879634"><ele>0.0</ele><time>2026-04-30T10:07:23.071Z</time></trkpt><trkpt lat="41.4309112" lon="2.4880708"><ele>0.0</ele><time>2026-04-30T10:07:24.072Z</time></trkpt><trkpt lat="41.4309476" lon="2.4881807"><ele>0.0</ele><time>2026-04-30T10:07:25.071Z</time></trkpt><trkpt lat="41.4309768" lon="2.488286"><ele>0.0</ele><time>2026-04-30T10:07:26.071Z</time></trkpt><trkpt lat="41.4310425" lon="2.4884994"><ele>0.0</ele><time>2026-04-30T10:07:28.071Z</time></trkpt><trkpt lat="41.4310758" lon="2.4886025"><ele>0.0</ele><time>2026-04-30T10:07:29.072Z</time></trkpt><trkpt lat="41.4311325" lon="2.4887018"><ele>0.0</ele><time>2026-04-30T10:07:30.072Z</time></trkpt><trkpt lat="41.4311908" lon="2.4887987"><ele>0.0</ele><time>2026-04-30T10:07:31.071Z</time></trkpt><trkpt lat="41.431221" lon="2.4889039"><ele>0.0</ele><time>2026-04-30T10:07:32.072Z</time></trkpt><trkpt lat="41.4312617" lon="2.4890065"><ele>0.0</ele><time>2026-04-30T10:07:33.071Z</time></trkpt><trkpt lat="41.4312975" lon="2.4891052"><ele>0.0</ele><time>2026-04-30T10:07:34.071Z</time></trkpt><trkpt lat="41.4313399" lon="2.4892024"><ele>0.0</ele><time>2026-04-30T10:07:35.072Z</time></trkpt><trkpt lat="41.4313758" lon="2.4893033"><ele>0.0</ele><time>2026-04-30T10:07:36.071Z</time></trkpt><trkpt lat="41.4314152" lon="2.4894036"><ele>0.0</ele><time>2026-04-30T10:07:37.071Z</time></trkpt><trkpt lat="41.4314525" lon="2.4895049"><ele>0.0</ele><time>2026-04-30T10:07:38.071Z</time></trkpt><trkpt lat="41.4314977" lon="2.4896009"><ele>0.0</ele><time>2026-04-30T10:07:39.071Z</time></trkpt><trkpt lat="41.4315401" lon="2.4897034"><ele>0.0</ele><time>2026-04-30T10:07:40.072Z</time></trkpt><trkpt lat="41.4315814" lon="2.4898053"><ele>0.0</ele><time>2026-04-30T10:07:41.071Z</time></trkpt><trkpt lat="41.4316149" lon="2.489911"><ele>0.0</ele><time>2026-04-30T10:07:42.071Z</time></trkpt><trkpt lat="41.4316463" lon="2.4900188"><ele>0.0</ele><time>2026-04-30T10:07:43.072Z</time></trkpt><trkpt lat="41.4316793" lon="2.490127"><ele>0.0</ele><time>2026-04-30T10:07:44.071Z</time></trkpt><trkpt lat="41.431714" lon="2.4902296"><ele>0.0</ele><time>2026-04-30T10:07:45.071Z</time></trkpt><trkpt lat="41.4317533" lon="2.4903339"><ele>0.0</ele><time>2026-04-30T10:07:46.072Z</time></trkpt><trkpt lat="41.4317804" lon="2.4904392"><ele>0.0</ele><time>2026-04-30T10:07:47.072Z</time></trkpt><trkpt lat="41.4318154" lon="2.4905444"><ele>0.0</ele><time>2026-04-30T10:07:48.072Z</time></trkpt><trkpt lat="41.431909" lon="2.4907441"><ele>0.0</ele><time>2026-04-30T10:07:50.071Z</time></trkpt><trkpt lat="41.4319585" lon="2.4908428"><ele>0.0</ele><time>2026-04-30T10:07:51.071Z</time></trkpt><trkpt lat="41.4320003" lon="2.4909434"><ele>0.0</ele><time>2026-04-30T10:07:52.071Z</time></trkpt><trkpt lat="41.4320402" lon="2.4910522"><ele>0.0</ele><time>2026-04-30T10:07:53.072Z</time></trkpt><trkpt lat="41.4320754" lon="2.4911591"><ele>0.0</ele><time>2026-04-30T10:07:54.072Z</time></trkpt><trkpt lat="41.4321121" lon="2.4912672"><ele>0.0</ele><time>2026-04-30T10:07:55.071Z</time></trkpt><trkpt lat="41.4321516" lon="2.4913734"><ele>0.0</ele><time>2026-04-30T10:07:56.071Z</time></trkpt><trkpt lat="41.4321873" lon="2.4914794"><ele>0.0</ele><time>2026-04-30T10:07:57.071Z</time></trkpt><trkpt lat="41.4322205" lon="2.4915788"><ele>0.0</ele><time>2026-04-30T10:07:58.071Z</time></trkpt><trkpt lat="41.4322587" lon="2.4916786"><ele>0.0</ele><time>2026-04-30T10:07:59.071Z</time></trkpt><trkpt lat="41.4322958" lon="2.4917861"><ele>0.0</ele><time>2026-04-30T10:08:00.072Z</time></trkpt><trkpt lat="41.4323282" lon="2.4918874"><ele>0.0</ele><time>2026-04-30T10:08:01.071Z</time></trkpt><trkpt lat="41.4323651" lon="2.4919836"><ele>0.0</ele><time>2026-04-30T10:08:02.072Z</time></trkpt><trkpt lat="41.4324018" lon="2.4920837"><ele>0.0</ele><time>2026-04-30T10:08:03.071Z</time></trkpt><trkpt lat="41.4324372" lon="2.4921791"><ele>0.0</ele><time>2026-04-30T10:08:04.072Z</time></trkpt><trkpt lat="41.4324929" lon="2.4922673"><ele>0.0</ele><time>2026-04-30T10:08:05.072Z</time></trkpt><trkpt lat="41.432529" lon="2.4923731"><ele>0.0</ele><time>2026-04-30T10:08:06.072Z</time></trkpt><trkpt lat="41.43256" lon="2.4924741"><ele>0.0</ele><time>2026-04-30T10:08:07.072Z</time></trkpt><trkpt lat="41.4325942" lon="2.4925738"><ele>0.0</ele><time>2026-04-30T10:08:08.072Z</time></trkpt><trkpt lat="41.432629" lon="2.4926813"><ele>0.0</ele><time>2026-04-30T10:08:09.072Z</time></trkpt><trkpt lat="41.4326673" lon="2.4927851"><ele>0.0</ele><time>2026-04-30T10:08:10.072Z</time></trkpt><trkpt lat="41.4327329" lon="2.4929871"><ele>0.0</ele><time>2026-04-30T10:08:12.071Z</time></trkpt><trkpt lat="41.4327603" lon="2.4930882"><ele>0.0</ele><time>2026-04-30T10:08:13.072Z</time></trkpt><trkpt lat="41.4327865" lon="2.4931943"><ele>0.0</ele><time>2026-04-30T10:08:14.071Z</time></trkpt><trkpt lat="41.4328304" lon="2.4932923"><ele>0.0</ele><time>2026-04-30T10:08:15.072Z</time></trkpt><trkpt lat="41.4328636" lon="2.4933904"><ele>0.0</ele><time>2026-04-30T10:08:16.071Z</time></trkpt><trkpt lat="41.4329042" lon="2.4934956"><ele>0.0</ele><time>2026-04-30T10:08:17.072Z</time></trkpt><trkpt lat="41.4329518" lon="2.4936068"><ele>0.0</ele><time>2026-04-30T10:08:18.071Z</time></trkpt><trkpt lat="41.4330217" lon="2.4936982"><ele>0.0</ele><time>2026-04-30T10:08:19.071Z</time></trkpt><trkpt lat="41.4330597" lon="2.4937985"><ele>0.0</ele><time>2026-04-30T10:08:20.072Z</time></trkpt><trkpt lat="41.4331522" lon="2.4939968"><ele>0.0</ele><time>2026-04-30T10:08:22.071Z</time></trkpt><trkpt lat="41.4332054" lon="2.4941035"><ele>0.0</ele><time>2026-04-30T10:08:23.071Z</time></trkpt><trkpt lat="41.4332428" lon="2.4942091"><ele>0.0</ele><time>2026-04-30T10:08:24.071Z</time></trkpt><trkpt lat="41.4333048" lon="2.4943061"><ele>0.0</ele><time>2026-04-30T10:08:25.071Z</time></trkpt><trkpt lat="41.4333681" lon="2.4944004"><ele>0.0</ele><time>2026-04-30T10:08:26.072Z</time></trkpt><trkpt lat="41.4334087" lon="2.4944999"><ele>0.0</ele><time>2026-04-30T10:08:27.072Z</time></trkpt><trkpt lat="41.4334431" lon="2.494607"><ele>0.0</ele><time>2026-04-30T10:08:28.072Z</time></trkpt><trkpt lat="41.4334825" lon="2.494711"><ele>0.0</ele><time>2026-04-30T10:08:29.072Z</time></trkpt><trkpt lat="41.4335223" lon="2.4948053"><ele>0.0</ele><time>2026-04-30T10:08:30.071Z</time></trkpt><trkpt lat="41.4335706" lon="2.4949024"><ele>0.0</ele><time>2026-04-30T10:08:31.071Z</time></trkpt><trkpt lat="41.4336662" lon="2.4951068"><ele>0.0</ele><time>2026-04-30T10:08:33.071Z</time></trkpt><trkpt lat="41.4337112" lon="2.4952041"><ele>0.0</ele><time>2026-04-30T10:08:34.072Z</time></trkpt><trkpt lat="41.4337603" lon="2.4953133"><ele>0.0</ele><time>2026-04-30T10:08:35.072Z</time></trkpt><trkpt lat="41.4338293" lon="2.4954106"><ele>0.0</ele><time>2026-04-30T10:08:36.072Z</time></trkpt><trkpt lat="41.4338696" lon="2.4955075"><ele>0.0</ele><time>2026-04-30T10:08:37.071Z</time></trkpt><trkpt lat="41.4339108" lon="2.4956056"><ele>0.0</ele><time>2026-04-30T10:08:38.072Z</time></trkpt><trkpt lat="41.4339579" lon="2.4957037"><ele>0.0</ele><time>2026-04-30T10:08:39.072Z</time></trkpt><trkpt lat="41.4339986" lon="2.4958023"><ele>0.0</ele><time>2026-04-30T10:08:40.071Z</time></trkpt><trkpt lat="41.4340391" lon="2.4959008"><ele>0.0</ele><time>2026-04-30T10:08:41.071Z</time></trkpt><trkpt lat="41.4340759" lon="2.4960059"><ele>0.0</ele><time>2026-04-30T10:08:42.071Z</time></trkpt><trkpt lat="41.4341139" lon="2.496107"><ele>0.0</ele><time>2026-04-30T10:08:43.071Z</time></trkpt><trkpt lat="41.4341538" lon="2.496205"><ele>0.0</ele><time>2026-04-30T10:08:44.071Z</time></trkpt><trkpt lat="41.4341884" lon="2.4963045"><ele>0.0</ele><time>2026-04-30T10:08:45.071Z</time></trkpt><trkpt lat="41.434219" lon="2.4964034"><ele>0.0</ele><time>2026-04-30T10:08:46.072Z</time></trkpt><trkpt lat="41.4342527" lon="2.496506"><ele>0.0</ele><time>2026-04-30T10:08:47.072Z</time></trkpt><trkpt lat="41.434276" lon="2.4966108"><ele>0.0</ele><time>2026-04-30T10:08:48.072Z</time></trkpt><trkpt lat="41.4343093" lon="2.496709"><ele>0.0</ele><time>2026-04-30T10:08:49.071Z</time></trkpt><trkpt lat="41.4343439" lon="2.4968082"><ele>0.0</ele><time>2026-04-30T10:08:50.071Z</time></trkpt><trkpt lat="41.4343762" lon="2.4969056"><ele>0.0</ele><time>2026-04-30T10:08:51.071Z</time></trkpt><trkpt lat="41.4344051" lon="2.4970137"><ele>0.0</ele><time>2026-04-30T10:08:52.072Z</time></trkpt><trkpt lat="41.4344858" lon="2.4973422"><ele>0.0</ele><time>2026-04-30T10:08:55.072Z</time></trkpt><trkpt lat="41.4345419" lon="2.4974393"><ele>0.0</ele><time>2026-04-30T10:08:56.072Z</time></trkpt><trkpt lat="41.4345689" lon="2.4975445"><ele>0.0</ele><time>2026-04-30T10:08:57.071Z</time></trkpt><trkpt lat="41.4345984" lon="2.4976429"><ele>0.0</ele><time>2026-04-30T10:08:58.072Z</time></trkpt><trkpt lat="41.4346266" lon="2.497742"><ele>0.0</ele><time>2026-04-30T10:08:59.071Z</time></trkpt><trkpt lat="41.4346515" lon="2.4978428"><ele>0.0</ele><time>2026-04-30T10:09:00.071Z</time></trkpt><trkpt lat="41.4346867" lon="2.497947"><ele>0.0</ele><time>2026-04-30T10:09:01.071Z</time></trkpt><trkpt lat="41.4347162" lon="2.4980508"><ele>0.0</ele><time>2026-04-30T10:09:02.071Z</time></trkpt><trkpt lat="41.4347515" lon="2.4981588"><ele>0.0</ele><time>2026-04-30T10:09:03.072Z</time></trkpt><trkpt lat="41.43478" lon="2.498266"><ele>0.0</ele><time>2026-04-30T10:09:04.071Z</time></trkpt><trkpt lat="41.4348164" lon="2.498363"><ele>0.0</ele><time>2026-04-30T10:09:05.071Z</time></trkpt><trkpt lat="41.4348607" lon="2.4984609"><ele>0.0</ele><time>2026-04-30T10:09:06.072Z</time></trkpt><trkpt lat="41.4349042" lon="2.4985619"><ele>0.0</ele><time>2026-04-30T10:09:07.071Z</time></trkpt><trkpt lat="41.4349515" lon="2.498672"><ele>0.0</ele><time>2026-04-30T10:09:08.072Z</time></trkpt><trkpt lat="41.434997" lon="2.4987704"><ele>0.0</ele><time>2026-04-30T10:09:09.072Z</time></trkpt><trkpt lat="41.4350409" lon="2.4988742"><ele>0.0</ele><time>2026-04-30T10:09:10.071Z</time></trkpt><trkpt lat="41.4350918" lon="2.4989711"><ele>0.0</ele><time>2026-04-30T10:09:11.071Z</time></trkpt><trkpt lat="41.4351517" lon="2.4990688"><ele>0.0</ele><time>2026-04-30T10:09:12.072Z</time></trkpt><trkpt lat="41.4352072" lon="2.4991656"><ele>0.0</ele><time>2026-04-30T10:09:13.072Z</time></trkpt><trkpt lat="41.4352951" lon="2.4993696"><ele>0.0</ele><time>2026-04-30T10:09:15.071Z</time></trkpt><trkpt lat="41.435344" lon="2.499463"><ele>0.0</ele><time>2026-04-30T10:09:16.071Z</time></trkpt><trkpt lat="41.4353853" lon="2.4995588"><ele>0.0</ele><time>2026-04-30T10:09:17.072Z</time></trkpt><trkpt lat="41.4354259" lon="2.4996571"><ele>0.0</ele><time>2026-04-30T10:09:18.072Z</time></trkpt><trkpt lat="41.4354638" lon="2.499755"><ele>0.0</ele><time>2026-04-30T10:09:19.071Z</time></trkpt><trkpt lat="41.4355136" lon="2.4998566"><ele>0.0</ele><time>2026-04-30T10:09:20.071Z</time></trkpt><trkpt lat="41.4355565" lon="2.4999567"><ele>0.0</ele><time>2026-04-30T10:09:21.072Z</time></trkpt><trkpt lat="41.4356266" lon="2.500055"><ele>0.0</ele><time>2026-04-30T10:09:22.071Z</time></trkpt><trkpt lat="41.435676" lon="2.5001503"><ele>0.0</ele><time>2026-04-30T10:09:23.072Z</time></trkpt><trkpt lat="41.435719" lon="2.50025"><ele>0.0</ele><time>2026-04-30T10:09:24.071Z</time></trkpt><trkpt lat="41.4357884" lon="2.5004674"><ele>0.0</ele><time>2026-04-30T10:09:26.072Z</time></trkpt><trkpt lat="41.4358345" lon="2.5005696"><ele>0.0</ele><time>2026-04-30T10:09:27.072Z</time></trkpt><trkpt lat="41.435877" lon="2.5006732"><ele>0.0</ele><time>2026-04-30T10:09:28.071Z</time></trkpt><trkpt lat="41.4359256" lon="2.5007708"><ele>0.0</ele><time>2026-04-30T10:09:29.072Z</time></trkpt><trkpt lat="41.4359742" lon="2.5008685"><ele>0.0</ele><time>2026-04-30T10:09:30.071Z</time></trkpt><trkpt lat="41.4360239" lon="2.5009642"><ele>0.0</ele><time>2026-04-30T10:09:31.071Z</time></trkpt><trkpt lat="41.4360611" lon="2.5010669"><ele>0.0</ele><time>2026-04-30T10:09:32.072Z</time></trkpt><trkpt lat="41.4360947" lon="2.5011657"><ele>0.0</ele><time>2026-04-30T10:09:33.072Z</time></trkpt><trkpt lat="41.4361296" lon="2.5012709"><ele>0.0</ele><time>2026-04-30T10:09:34.072Z</time></trkpt><trkpt lat="41.4362072" lon="2.5014769"><ele>0.0</ele><time>2026-04-30T10:09:36.071Z</time></trkpt><trkpt lat="41.4362457" lon="2.5015799"><ele>0.0</ele><time>2026-04-30T10:09:37.072Z</time></trkpt><trkpt lat="41.4362853" lon="2.5016847"><ele>0.0</ele><time>2026-04-30T10:09:38.071Z</time></trkpt><trkpt lat="41.4363212" lon="2.5017805"><ele>0.0</ele><time>2026-04-30T10:09:39.072Z</time></trkpt><trkpt lat="41.4363559" lon="2.5018793"><ele>0.0</ele><time>2026-04-30T10:09:40.071Z</time></trkpt><trkpt lat="41.4364005" lon="2.5019783"><ele>0.0</ele><time>2026-04-30T10:09:41.071Z</time></trkpt><trkpt lat="41.4364387" lon="2.5020785"><ele>0.0</ele><time>2026-04-30T10:09:42.071Z</time></trkpt><trkpt lat="41.436471" lon="2.5021788"><ele>0.0</ele><time>2026-04-30T10:09:43.072Z</time></trkpt><trkpt lat="41.4365084" lon="2.502286"><ele>0.0</ele><time>2026-04-30T10:09:44.072Z</time></trkpt><trkpt lat="41.4365397" lon="2.5023919"><ele>0.0</ele><time>2026-04-30T10:09:45.072Z</time></trkpt><trkpt lat="41.4366199" lon="2.5024865"><ele>0.0</ele><time>2026-04-30T10:09:46.072Z</time></trkpt><trkpt lat="41.43666" lon="2.5025852"><ele>0.0</ele><time>2026-04-30T10:09:47.071Z</time></trkpt><trkpt lat="41.4366988" lon="2.5026864"><ele>0.0</ele><time>2026-04-30T10:09:48.072Z</time></trkpt><trkpt lat="41.4367399" lon="2.5027713"><ele>0.0</ele><time>2026-04-30T10:09:49.071Z</time></trkpt><trkpt lat="41.4367776" lon="2.5028812"><ele>0.0</ele><time>2026-04-30T10:09:50.071Z</time></trkpt><trkpt lat="41.4368171" lon="2.5029878"><ele>0.0</ele><time>2026-04-30T10:09:51.071Z</time></trkpt><trkpt lat="41.4368557" lon="2.5030901"><ele>0.0</ele><time>2026-04-30T10:09:52.071Z</time></trkpt><trkpt lat="41.436894" lon="2.5031918"><ele>0.0</ele><time>2026-04-30T10:09:53.071Z</time></trkpt><trkpt lat="41.436939" lon="2.5032921"><ele>0.0</ele><time>2026-04-30T10:09:54.071Z</time></trkpt><trkpt lat="41.4369795" lon="2.5033966"><ele>0.0</ele><time>2026-04-30T10:09:55.072Z</time></trkpt><trkpt lat="41.4370136" lon="2.5034962"><ele>0.0</ele><time>2026-04-30T10:09:56.072Z</time></trkpt><trkpt lat="41.4370854" lon="2.5036928"><ele>0.0</ele><time>2026-04-30T10:09:58.072Z</time></trkpt><trkpt lat="41.4371556" lon="2.5037879"><ele>0.0</ele><time>2026-04-30T10:09:59.072Z</time></trkpt><trkpt lat="41.4372177" lon="2.5038891"><ele>0.0</ele><time>2026-04-30T10:10:00.071Z</time></trkpt><trkpt lat="41.4372653" lon="2.5039934"><ele>0.0</ele><time>2026-04-30T10:10:01.072Z</time></trkpt><trkpt lat="41.4372968" lon="2.5041005"><ele>0.0</ele><time>2026-04-30T10:10:02.071Z</time></trkpt><trkpt lat="41.437332" lon="2.5042017"><ele>0.0</ele><time>2026-04-30T10:10:03.071Z</time></trkpt><trkpt lat="41.4373714" lon="2.5043007"><ele>0.0</ele><time>2026-04-30T10:10:04.072Z</time></trkpt><trkpt lat="41.4374147" lon="2.5044044"><ele>0.0</ele><time>2026-04-30T10:10:05.072Z</time></trkpt><trkpt lat="41.437452" lon="2.5045038"><ele>0.0</ele><time>2026-04-30T10:10:06.072Z</time></trkpt><trkpt lat="41.4374948" lon="2.5046044"><ele>0.0</ele><time>2026-04-30T10:10:07.071Z</time></trkpt><trkpt lat="41.4375366" lon="2.5047034"><ele>0.0</ele><time>2026-04-30T10:10:08.072Z</time></trkpt><trkpt lat="41.4375836" lon="2.5048032"><ele>0.0</ele><time>2026-04-30T10:10:09.071Z</time></trkpt><trkpt lat="41.4376316" lon="2.5049035"><ele>0.0</ele><time>2026-04-30T10:10:10.071Z</time></trkpt><trkpt lat="41.4376709" lon="2.5050059"><ele>0.0</ele><time>2026-04-30T10:10:11.072Z</time></trkpt><trkpt lat="41.4377107" lon="2.5051109"><ele>0.0</ele><time>2026-04-30T10:10:12.071Z</time></trkpt><trkpt lat="41.4377424" lon="2.5052152"><ele>0.0</ele><time>2026-04-30T10:10:13.072Z</time></trkpt><trkpt lat="41.4377796" lon="2.5053224"><ele>0.0</ele><time>2026-04-30T10:10:14.071Z</time></trkpt><trkpt lat="41.4378164" lon="2.5054179"><ele>0.0</ele><time>2026-04-30T10:10:15.071Z</time></trkpt><trkpt lat="41.4378486" lon="2.5055243"><ele>0.0</ele><time>2026-04-30T10:10:16.071Z</time></trkpt><trkpt lat="41.4378861" lon="2.5056283"><ele>0.0</ele><time>2026-04-30T10:10:17.072Z</time></trkpt><trkpt lat="41.4379594" lon="2.505821"><ele>0.0</ele><time>2026-04-30T10:10:19.071Z</time></trkpt><trkpt lat="41.4379933" lon="2.5059263"><ele>0.0</ele><time>2026-04-30T10:10:20.072Z</time></trkpt><trkpt lat="41.4380252" lon="2.5060263"><ele>0.0</ele><time>2026-04-30T10:10:21.072Z</time></trkpt><trkpt lat="41.4380559" lon="2.5061294"><ele>0.0</ele><time>2026-04-30T10:10:22.071Z</time></trkpt><trkpt lat="41.4380923" lon="2.5062313"><ele>0.0</ele><time>2026-04-30T10:10:23.071Z</time></trkpt><trkpt lat="41.4381334" lon="2.5063331"><ele>0.0</ele><time>2026-04-30T10:10:24.071Z</time></trkpt><trkpt lat="41.4381723" lon="2.5064363"><ele>0.0</ele><time>2026-04-30T10:10:25.071Z</time></trkpt><trkpt lat="41.4382078" lon="2.5065429"><ele>0.0</ele><time>2026-04-30T10:10:26.072Z</time></trkpt><trkpt lat="41.4382454" lon="2.5066467"><ele>0.0</ele><time>2026-04-30T10:10:27.071Z</time></trkpt><trkpt lat="41.4382837" lon="2.5067498"><ele>0.0</ele><time>2026-04-30T10:10:28.072Z</time></trkpt><trkpt lat="41.4383179" lon="2.5068518"><ele>0.0</ele><time>2026-04-30T10:10:29.071Z</time></trkpt><trkpt lat="41.438355" lon="2.5069518"><ele>0.0</ele><time>2026-04-30T10:10:30.071Z</time></trkpt><trkpt lat="41.4383944" lon="2.5070515"><ele>0.0</ele><time>2026-04-30T10:10:31.071Z</time></trkpt><trkpt lat="41.4384358" lon="2.5071518"><ele>0.0</ele><time>2026-04-30T10:10:32.072Z</time></trkpt><trkpt lat="41.4384808" lon="2.5072525"><ele>0.0</ele><time>2026-04-30T10:10:33.071Z</time></trkpt><trkpt lat="41.4385255" lon="2.5073548"><ele>0.0</ele><time>2026-04-30T10:10:34.071Z</time></trkpt><trkpt lat="41.4385843" lon="2.5074538"><ele>0.0</ele><time>2026-04-30T10:10:35.072Z</time></trkpt><trkpt lat="41.4386275" lon="2.5075572"><ele>0.0</ele><time>2026-04-30T10:10:36.072Z</time></trkpt><trkpt lat="41.4386723" lon="2.5076558"><ele>0.0</ele><time>2026-04-30T10:10:37.071Z</time></trkpt><trkpt lat="41.438716" lon="2.5077572"><ele>0.0</ele><time>2026-04-30T10:10:38.071Z</time></trkpt><trkpt lat="41.4387999" lon="2.5079706"><ele>0.0</ele><time>2026-04-30T10:10:40.071Z</time></trkpt><trkpt lat="41.4388362" lon="2.5080749"><ele>0.0</ele><time>2026-04-30T10:10:41.072Z</time></trkpt><trkpt lat="41.4388795" lon="2.5081802"><ele>0.0</ele><time>2026-04-30T10:10:42.072Z</time></trkpt><trkpt lat="41.4389116" lon="2.5082775"><ele>0.0</ele><time>2026-04-30T10:10:43.071Z</time></trkpt><trkpt lat="41.4389449" lon="2.5083754"><ele>0.0</ele><time>2026-04-30T10:10:44.072Z</time></trkpt><trkpt lat="41.4389797" lon="2.508465"><ele>0.0</ele><time>2026-04-30T10:10:45.072Z</time></trkpt><trkpt lat="41.4390085" lon="2.5085666"><ele>0.0</ele><time>2026-04-30T10:10:46.071Z</time></trkpt><trkpt lat="41.4390396" lon="2.5086709"><ele>0.0</ele><time>2026-04-30T10:10:47.072Z</time></trkpt><trkpt lat="41.4390793" lon="2.5087761"><ele>0.0</ele><time>2026-04-30T10:10:48.072Z</time></trkpt><trkpt lat="41.4391235" lon="2.5088772"><ele>0.0</ele><time>2026-04-30T10:10:49.071Z</time></trkpt><trkpt lat="41.4391575" lon="2.5089776"><ele>0.0</ele><time>2026-04-30T10:10:50.072Z</time></trkpt><trkpt lat="41.4391921" lon="2.5090824"><ele>0.0</ele><time>2026-04-30T10:10:51.072Z</time></trkpt><trkpt lat="41.4392286" lon="2.5091867"><ele>0.0</ele><time>2026-04-30T10:10:52.071Z</time></trkpt><trkpt lat="41.4392566" lon="2.5092887"><ele>0.0</ele><time>2026-04-30T10:10:53.072Z</time></trkpt><trkpt lat="41.4392873" lon="2.5093915"><ele>0.0</ele><time>2026-04-30T10:10:54.072Z</time></trkpt><trkpt lat="41.4393303" lon="2.5094982"><ele>0.0</ele><time>2026-04-30T10:10:55.071Z</time></trkpt><trkpt lat="41.4393721" lon="2.5095999"><ele>0.0</ele><time>2026-04-30T10:10:56.072Z</time></trkpt><trkpt lat="41.4394183" lon="2.5097017"><ele>0.0</ele><time>2026-04-30T10:10:57.072Z</time></trkpt><trkpt lat="41.4394622" lon="2.5098037"><ele>0.0</ele><time>2026-04-30T10:10:58.071Z</time></trkpt><trkpt lat="41.4395015" lon="2.5099054"><ele>0.0</ele><time>2026-04-30T10:10:59.071Z</time></trkpt><trkpt lat="41.4395399" lon="2.5100083"><ele>0.0</ele><time>2026-04-30T10:11:00.071Z</time></trkpt><trkpt lat="41.439626" lon="2.510209"><ele>0.0</ele><time>2026-04-30T10:11:02.071Z</time></trkpt><trkpt lat="41.439665" lon="2.5103087"><ele>0.0</ele><time>2026-04-30T10:11:03.072Z</time></trkpt><trkpt lat="41.4397109" lon="2.510407"><ele>0.0</ele><time>2026-04-30T10:11:04.072Z</time></trkpt><trkpt lat="41.4397502" lon="2.5105125"><ele>0.0</ele><time>2026-04-30T10:11:05.071Z</time></trkpt><trkpt lat="41.4397838" lon="2.5106151"><ele>0.0</ele><time>2026-04-30T10:11:06.072Z</time></trkpt><trkpt lat="41.4398154" lon="2.5107186"><ele>0.0</ele><time>2026-04-30T10:11:07.071Z</time></trkpt><trkpt lat="41.4398498" lon="2.5108212"><ele>0.0</ele><time>2026-04-30T10:11:08.071Z</time></trkpt><trkpt lat="41.4398947" lon="2.5109221"><ele>0.0</ele><time>2026-04-30T10:11:09.071Z</time></trkpt><trkpt lat="41.4399377" lon="2.5110279"><ele>0.0</ele><time>2026-04-30T10:11:10.072Z</time></trkpt><trkpt lat="41.4399781" lon="2.5111302"><ele>0.0</ele><time>2026-04-30T10:11:11.071Z</time></trkpt><trkpt lat="41.4400347" lon="2.5112261"><ele>0.0</ele><time>2026-04-30T10:11:12.071Z</time></trkpt><trkpt lat="41.4401046" lon="2.5113185"><ele>0.0</ele><time>2026-04-30T10:11:13.071Z</time></trkpt><trkpt lat="41.4401622" lon="2.5114186"><ele>0.0</ele><time>2026-04-30T10:11:14.071Z</time></trkpt><trkpt lat="41.4402156" lon="2.5115215"><ele>0.0</ele><time>2026-04-30T10:11:15.071Z</time></trkpt><trkpt lat="41.4402612" lon="2.5116248"><ele>0.0</ele><time>2026-04-30T10:11:16.072Z</time></trkpt><trkpt lat="41.4403012" lon="2.5117312"><ele>0.0</ele><time>2026-04-30T10:11:17.072Z</time></trkpt><trkpt lat="41.4403367" lon="2.5118391"><ele>0.0</ele><time>2026-04-30T10:11:18.071Z</time></trkpt><trkpt lat="41.4403687" lon="2.5119388"><ele>0.0</ele><time>2026-04-30T10:11:19.072Z</time></trkpt><trkpt lat="41.4404036" lon="2.5120371"><ele>0.0</ele><time>2026-04-30T10:11:20.072Z</time></trkpt><trkpt lat="41.4404385" lon="2.5121368"><ele>0.0</ele><time>2026-04-30T10:11:21.071Z</time></trkpt><trkpt lat="41.4405087" lon="2.5123371"><ele>0.0</ele><time>2026-04-30T10:11:23.072Z</time></trkpt><trkpt lat="41.440549" lon="2.5124342"><ele>0.0</ele><time>2026-04-30T10:11:24.071Z</time></trkpt><trkpt lat="41.440582" lon="2.5125239"><ele>0.0</ele><time>2026-04-30T10:11:25.071Z</time></trkpt><trkpt lat="41.4405999" lon="2.5126344"><ele>0.0</ele><time>2026-04-30T10:11:26.072Z</time></trkpt><trkpt lat="41.4406362" lon="2.5127439"><ele>0.0</ele><time>2026-04-30T10:11:27.071Z</time></trkpt><trkpt lat="41.4406755" lon="2.512847"><ele>0.0</ele><time>2026-04-30T10:11:28.072Z</time></trkpt><trkpt lat="41.4407122" lon="2.5129501"><ele>0.0</ele><time>2026-04-30T10:11:29.071Z</time></trkpt><trkpt lat="41.440746" lon="2.5130505"><ele>0.0</ele><time>2026-04-30T10:11:30.071Z</time></trkpt><trkpt lat="41.440769" lon="2.5131509"><ele>0.0</ele><time>2026-04-30T10:11:31.071Z</time></trkpt><trkpt lat="41.4408021" lon="2.5132502"><ele>0.0</ele><time>2026-04-30T10:11:32.072Z</time></trkpt><trkpt lat="41.4408675" lon="2.5134575"><ele>0.0</ele><time>2026-04-30T10:11:34.071Z</time></trkpt><trkpt lat="41.440911" lon="2.5135674"><ele>0.0</ele><time>2026-04-30T10:11:35.071Z</time></trkpt><trkpt lat="41.4409612" lon="2.5136643"><ele>0.0</ele><time>2026-04-30T10:11:36.072Z</time></trkpt><trkpt lat="41.4410038" lon="2.5137625"><ele>0.0</ele><time>2026-04-30T10:11:37.072Z</time></trkpt><trkpt lat="41.4410373" lon="2.5138697"><ele>0.0</ele><time>2026-04-30T10:11:38.071Z</time></trkpt><trkpt lat="41.4410733" lon="2.5139733"><ele>0.0</ele><time>2026-04-30T10:11:39.072Z</time></trkpt><trkpt lat="41.4411199" lon="2.5140725"><ele>0.0</ele><time>2026-04-30T10:11:40.072Z</time></trkpt><trkpt lat="41.4411531" lon="2.5141693"><ele>0.0</ele><time>2026-04-30T10:11:41.072Z</time></trkpt><trkpt lat="41.4412569" lon="2.514368"><ele>0.0</ele><time>2026-04-30T10:11:43.071Z</time></trkpt><trkpt lat="41.4413139" lon="2.5144669"><ele>0.0</ele><time>2026-04-30T10:11:44.071Z</time></trkpt><trkpt lat="41.4413643" lon="2.5145682"><ele>0.0</ele><time>2026-04-30T10:11:45.071Z</time></trkpt><trkpt lat="41.4414052" lon="2.5146684"><ele>0.0</ele><time>2026-04-30T10:11:46.072Z</time></trkpt><trkpt lat="41.4414382" lon="2.5147715"><ele>0.0</ele><time>2026-04-30T10:11:47.071Z</time></trkpt><trkpt lat="41.4414746" lon="2.5148802"><ele>0.0</ele><time>2026-04-30T10:11:48.071Z</time></trkpt><trkpt lat="41.4415311" lon="2.5149814"><ele>0.0</ele><time>2026-04-30T10:11:49.071Z</time></trkpt><trkpt lat="41.4415807" lon="2.5150819"><ele>0.0</ele><time>2026-04-30T10:11:50.07Z</time></trkpt><trkpt lat="41.441625" lon="2.5151788"><ele>0.0</ele><time>2026-04-30T10:11:51.07Z</time></trkpt><trkpt lat="41.4416638" lon="2.515274"><ele>0.0</ele><time>2026-04-30T10:11:52.071Z</time></trkpt><trkpt lat="41.4417055" lon="2.5153747"><ele>0.0</ele><time>2026-04-30T10:11:53.071Z</time></trkpt><trkpt lat="41.4417372" lon="2.5154779"><ele>0.0</ele><time>2026-04-30T10:11:54.071Z</time></trkpt><trkpt lat="41.4417756" lon="2.5155735"><ele>0.0</ele><time>2026-04-30T10:11:55.07Z</time></trkpt><trkpt lat="41.4418132" lon="2.5156721"><ele>0.0</ele><time>2026-04-30T10:11:56.07Z</time></trkpt><trkpt lat="41.4418372" lon="2.5157823"><ele>0.0</ele><time>2026-04-30T10:11:57.07Z</time></trkpt><trkpt lat="41.4418634" lon="2.5158873"><ele>0.0</ele><time>2026-04-30T10:11:58.071Z</time></trkpt><trkpt lat="41.4418965" lon="2.5159908"><ele>0.0</ele><time>2026-04-30T10:11:59.07Z</time></trkpt><trkpt lat="41.4419402" lon="2.5160985"><ele>0.0</ele><time>2026-04-30T10:12:00.071Z</time></trkpt><trkpt lat="41.441986" lon="2.5162"><ele>0.0</ele><time>2026-04-30T10:12:01.071Z</time></trkpt><trkpt lat="41.442031" lon="2.5163014"><ele>0.0</ele><time>2026-04-30T10:12:02.071Z</time></trkpt><trkpt lat="41.442121" lon="2.5165077"><ele>0.0</ele><time>2026-04-30T10:12:04.07Z</time></trkpt><trkpt lat="41.4421652" lon="2.5166035"><ele>0.0</ele><time>2026-04-30T10:12:05.07Z</time></trkpt><trkpt lat="41.4422069" lon="2.5167018"><ele>0.0</ele><time>2026-04-30T10:12:06.07Z</time></trkpt><trkpt lat="41.4422498" lon="2.5168045"><ele>0.0</ele><time>2026-04-30T10:12:07.07Z</time></trkpt><trkpt lat="41.4422848" lon="2.516904"><ele>0.0</ele><time>2026-04-30T10:12:08.07Z</time></trkpt><trkpt lat="41.4423139" lon="2.5170048"><ele>0.0</ele><time>2026-04-30T10:12:09.07Z</time></trkpt><trkpt lat="41.4423445" lon="2.5171025"><ele>0.0</ele><time>2026-04-30T10:12:10.071Z</time></trkpt><trkpt lat="41.4423805" lon="2.5172006"><ele>0.0</ele><time>2026-04-30T10:12:11.071Z</time></trkpt><trkpt lat="41.4424157" lon="2.5173003"><ele>0.0</ele><time>2026-04-30T10:12:12.07Z</time></trkpt><trkpt lat="41.4424589" lon="2.5174101"><ele>0.0</ele><time>2026-04-30T10:12:13.07Z</time></trkpt><trkpt lat="41.4425099" lon="2.5175086"><ele>0.0</ele><time>2026-04-30T10:12:14.07Z</time></trkpt><trkpt lat="41.4425542" lon="2.5176112"><ele>0.0</ele><time>2026-04-30T10:12:15.07Z</time></trkpt><trkpt lat="41.4425879" lon="2.5177146"><ele>0.0</ele><time>2026-04-30T10:12:16.07Z</time></trkpt><trkpt lat="41.4426154" lon="2.5178223"><ele>0.0</ele><time>2026-04-30T10:12:17.071Z</time></trkpt><trkpt lat="41.4426773" lon="2.5179294"><ele>0.0</ele><time>2026-04-30T10:12:18.07Z</time></trkpt><trkpt lat="41.4427109" lon="2.5180344"><ele>0.0</ele><time>2026-04-30T10:12:19.071Z</time></trkpt><trkpt lat="41.4427431" lon="2.5181322"><ele>0.0</ele><time>2026-04-30T10:12:20.07Z</time></trkpt><trkpt lat="41.4427777" lon="2.518229"><ele>0.0</ele><time>2026-04-30T10:12:21.07Z</time></trkpt><trkpt lat="41.4428128" lon="2.5183346"><ele>0.0</ele><time>2026-04-30T10:12:22.071Z</time></trkpt><trkpt lat="41.4428781" lon="2.5185375"><ele>0.0</ele><time>2026-04-30T10:12:24.071Z</time></trkpt><trkpt lat="41.4429126" lon="2.5186386"><ele>0.0</ele><time>2026-04-30T10:12:25.07Z</time></trkpt><trkpt lat="41.4429406" lon="2.5187485"><ele>0.0</ele><time>2026-04-30T10:12:26.071Z</time></trkpt><trkpt lat="41.4429742" lon="2.51885"><ele>0.0</ele><time>2026-04-30T10:12:27.07Z</time></trkpt><trkpt lat="41.4430145" lon="2.5189505"><ele>0.0</ele><time>2026-04-30T10:12:28.071Z</time></trkpt><trkpt lat="41.4430629" lon="2.5190503"><ele>0.0</ele><time>2026-04-30T10:12:29.071Z</time></trkpt><trkpt lat="41.443108" lon="2.5191564"><ele>0.0</ele><time>2026-04-30T10:12:30.07Z</time></trkpt><trkpt lat="41.4431524" lon="2.5192572"><ele>0.0</ele><time>2026-04-30T10:12:31.071Z</time></trkpt><trkpt lat="41.4431935" lon="2.5193614"><ele>0.0</ele><time>2026-04-30T10:12:32.071Z</time></trkpt><trkpt lat="41.4432404" lon="2.5194607"><ele>0.0</ele><time>2026-04-30T10:12:33.07Z</time></trkpt><trkpt lat="41.4432772" lon="2.5195559"><ele>0.0</ele><time>2026-04-30T10:12:34.07Z</time></trkpt><trkpt lat="41.4433136" lon="2.5196642"><ele>0.0</ele><time>2026-04-30T10:12:35.071Z</time></trkpt><trkpt lat="41.4433563" lon="2.5197665"><ele>0.0</ele><time>2026-04-30T10:12:36.07Z</time></trkpt><trkpt lat="41.4434013" lon="2.5198637"><ele>0.0</ele><time>2026-04-30T10:12:37.07Z</time></trkpt><trkpt lat="41.4434454" lon="2.5199667"><ele>0.0</ele><time>2026-04-30T10:12:38.07Z</time></trkpt><trkpt lat="41.4435054" lon="2.5200655"><ele>0.0</ele><time>2026-04-30T10:12:39.071Z</time></trkpt><trkpt lat="41.4435482" lon="2.5201654"><ele>0.0</ele><time>2026-04-30T10:12:40.071Z</time></trkpt><trkpt lat="41.4435859" lon="2.5202668"><ele>0.0</ele><time>2026-04-30T10:12:41.071Z</time></trkpt><trkpt lat="41.4436192" lon="2.520366"><ele>0.0</ele><time>2026-04-30T10:12:42.07Z</time></trkpt><trkpt lat="41.4436553" lon="2.5204699"><ele>0.0</ele><time>2026-04-30T10:12:43.07Z</time></trkpt><trkpt lat="41.4437323" lon="2.5206749"><ele>0.0</ele><time>2026-04-30T10:12:45.071Z</time></trkpt><trkpt lat="41.4437735" lon="2.5207753"><ele>0.0</ele><time>2026-04-30T10:12:46.07Z</time></trkpt><trkpt lat="41.4438152" lon="2.5208797"><ele>0.0</ele><time>2026-04-30T10:12:47.071Z</time></trkpt><trkpt lat="41.4438565" lon="2.5209816"><ele>0.0</ele><time>2026-04-30T10:12:48.07Z</time></trkpt><trkpt lat="41.4438981" lon="2.5210846"><ele>0.0</ele><time>2026-04-30T10:12:49.07Z</time></trkpt><trkpt lat="41.4439414" lon="2.521185"><ele>0.0</ele><time>2026-04-30T10:12:50.07Z</time></trkpt><trkpt lat="41.4439848" lon="2.5212866"><ele>0.0</ele><time>2026-04-30T10:12:51.07Z</time></trkpt><trkpt lat="41.4440236" lon="2.5213896"><ele>0.0</ele><time>2026-04-30T10:12:52.07Z</time></trkpt><trkpt lat="41.444066" lon="2.5214901"><ele>0.0</ele><time>2026-04-30T10:12:53.071Z</time></trkpt><trkpt lat="41.444104" lon="2.5215944"><ele>0.0</ele><time>2026-04-30T10:12:54.07Z</time></trkpt><trkpt lat="41.4441466" lon="2.5216993"><ele>0.0</ele><time>2026-04-30T10:12:55.071Z</time></trkpt><trkpt lat="41.4441943" lon="2.5218035"><ele>0.0</ele><time>2026-04-30T10:12:56.07Z</time></trkpt><trkpt lat="41.4442352" lon="2.521905"><ele>0.0</ele><time>2026-04-30T10:12:57.071Z</time></trkpt><trkpt lat="41.4442796" lon="2.5220094"><ele>0.0</ele><time>2026-04-30T10:12:58.07Z</time></trkpt><trkpt lat="41.4443235" lon="2.5221114"><ele>0.0</ele><time>2026-04-30T10:12:59.07Z</time></trkpt><trkpt lat="41.4443682" lon="2.5222132"><ele>0.0</ele><time>2026-04-30T10:13:00.07Z</time></trkpt><trkpt lat="41.4444075" lon="2.5223107"><ele>0.0</ele><time>2026-04-30T10:13:01.07Z</time></trkpt><trkpt lat="41.4444454" lon="2.5224102"><ele>0.0</ele><time>2026-04-30T10:13:02.07Z</time></trkpt><trkpt lat="41.4444825" lon="2.5225133"><ele>0.0</ele><time>2026-04-30T10:13:03.071Z</time></trkpt><trkpt lat="41.4445191" lon="2.5226138"><ele>0.0</ele><time>2026-04-30T10:13:04.071Z</time></trkpt><trkpt lat="41.4445955" lon="2.5228121"><ele>0.0</ele><time>2026-04-30T10:13:06.071Z</time></trkpt><trkpt lat="41.4446355" lon="2.5229121"><ele>0.0</ele><time>2026-04-30T10:13:07.071Z</time></trkpt><trkpt lat="41.4446667" lon="2.5230148"><ele>0.0</ele><time>2026-04-30T10:13:08.071Z</time></trkpt><trkpt lat="41.4447017" lon="2.5231206"><ele>0.0</ele><time>2026-04-30T10:13:09.07Z</time></trkpt><trkpt lat="41.4447447" lon="2.5232244"><ele>0.0</ele><time>2026-04-30T10:13:10.07Z</time></trkpt><trkpt lat="41.4447891" lon="2.523324"><ele>0.0</ele><time>2026-04-30T10:13:11.07Z</time></trkpt><trkpt lat="41.4448354" lon="2.5234212"><ele>0.0</ele><time>2026-04-30T10:13:12.07Z</time></trkpt><trkpt lat="41.4448776" lon="2.5235189"><ele>0.0</ele><time>2026-04-30T10:13:13.07Z</time></trkpt><trkpt lat="41.44491" lon="2.5236232"><ele>0.0</ele><time>2026-04-30T10:13:14.071Z</time></trkpt><trkpt lat="41.4449414" lon="2.5237208"><ele>0.0</ele><time>2026-04-30T10:13:15.07Z</time></trkpt><trkpt lat="41.4449773" lon="2.5238232"><ele>0.0</ele><time>2026-04-30T10:13:16.071Z</time></trkpt><trkpt lat="41.4450142" lon="2.5239249"><ele>0.0</ele><time>2026-04-30T10:13:17.071Z</time></trkpt><trkpt lat="41.4450597" lon="2.5240237"><ele>0.0</ele><time>2026-04-30T10:13:18.07Z</time></trkpt><trkpt lat="41.4450946" lon="2.524125"><ele>0.0</ele><time>2026-04-30T10:13:19.071Z</time></trkpt><trkpt lat="41.4451336" lon="2.5242268"><ele>0.0</ele><time>2026-04-30T10:13:20.071Z</time></trkpt><trkpt lat="41.4451648" lon="2.5243341"><ele>0.0</ele><time>2026-04-30T10:13:21.07Z</time></trkpt><trkpt lat="41.445198" lon="2.5244393"><ele>0.0</ele><time>2026-04-30T10:13:22.07Z</time></trkpt><trkpt lat="41.4452324" lon="2.5245446"><ele>0.0</ele><time>2026-04-30T10:13:23.071Z</time></trkpt><trkpt lat="41.4452705" lon="2.5246523"><ele>0.0</ele><time>2026-04-30T10:13:24.07Z</time></trkpt><trkpt lat="41.4453088" lon="2.5247564"><ele>0.0</ele><time>2026-04-30T10:13:25.071Z</time></trkpt><trkpt lat="41.4453906" lon="2.5249603"><ele>0.0</ele><time>2026-04-30T10:13:27.071Z</time></trkpt><trkpt lat="41.4454288" lon="2.5250603"><ele>0.0</ele><time>2026-04-30T10:13:28.071Z</time></trkpt><trkpt lat="41.4454642" lon="2.5251604"><ele>0.0</ele><time>2026-04-30T10:13:29.07Z</time></trkpt><trkpt lat="41.4454992" lon="2.5252601"><ele>0.0</ele><time>2026-04-30T10:13:30.071Z</time></trkpt><trkpt lat="41.4455327" lon="2.525356"><ele>0.0</ele><time>2026-04-30T10:13:31.07Z</time></trkpt><trkpt lat="41.4455632" lon="2.5254562"><ele>0.0</ele><time>2026-04-30T10:13:32.07Z</time></trkpt><trkpt lat="41.4455972" lon="2.5255581"><ele>0.0</ele><time>2026-04-30T10:13:33.07Z</time></trkpt><trkpt lat="41.4456352" lon="2.5256615"><ele>0.0</ele><time>2026-04-30T10:13:34.07Z</time></trkpt><trkpt lat="41.4456725" lon="2.5257618"><ele>0.0</ele><time>2026-04-30T10:13:35.071Z</time></trkpt><trkpt lat="41.4457074" lon="2.5258619"><ele>0.0</ele><time>2026-04-30T10:13:36.07Z</time></trkpt><trkpt lat="41.4457463" lon="2.5259661"><ele>0.0</ele><time>2026-04-30T10:13:37.07Z</time></trkpt><trkpt lat="41.4457849" lon="2.526065"><ele>0.0</ele><time>2026-04-30T10:13:38.071Z</time></trkpt><trkpt lat="41.4458603" lon="2.5262717"><ele>0.0</ele><time>2026-04-30T10:13:40.07Z</time></trkpt><trkpt lat="41.4458998" lon="2.5263746"><ele>0.0</ele><time>2026-04-30T10:13:41.071Z</time></trkpt><trkpt lat="41.4459446" lon="2.5264763"><ele>0.0</ele><time>2026-04-30T10:13:42.071Z</time></trkpt><trkpt lat="41.4459862" lon="2.5265823"><ele>0.0</ele><time>2026-04-30T10:13:43.071Z</time></trkpt><trkpt lat="41.4460324" lon="2.5266851"><ele>0.0</ele><time>2026-04-30T10:13:44.07Z</time></trkpt><trkpt lat="41.4460671" lon="2.5267922"><ele>0.0</ele><time>2026-04-30T10:13:45.07Z</time></trkpt><trkpt lat="41.4461061" lon="2.5268935"><ele>0.0</ele><time>2026-04-30T10:13:46.071Z</time></trkpt><trkpt lat="41.4461828" lon="2.5270992"><ele>0.0</ele><time>2026-04-30T10:13:48.071Z</time></trkpt><trkpt lat="41.4462244" lon="2.5272057"><ele>0.0</ele><time>2026-04-30T10:13:49.071Z</time></trkpt><trkpt lat="41.4462706" lon="2.5273067"><ele>0.0</ele><time>2026-04-30T10:13:50.071Z</time></trkpt><trkpt lat="41.4463105" lon="2.5274057"><ele>0.0</ele><time>2026-04-30T10:13:51.07Z</time></trkpt><trkpt lat="41.4463576" lon="2.5275009"><ele>0.0</ele><time>2026-04-30T10:13:52.07Z</time></trkpt><trkpt lat="41.4464025" lon="2.5276018"><ele>0.0</ele><time>2026-04-30T10:13:53.07Z</time></trkpt><trkpt lat="41.4464419" lon="2.5277048"><ele>0.0</ele><time>2026-04-30T10:13:54.071Z</time></trkpt><trkpt lat="41.4464804" lon="2.5278109"><ele>0.0</ele><time>2026-04-30T10:13:55.07Z</time></trkpt><trkpt lat="41.4465233" lon="2.5279122"><ele>0.0</ele><time>2026-04-30T10:13:56.071Z</time></trkpt><trkpt lat="41.4465646" lon="2.528012"><ele>0.0</ele><time>2026-04-30T10:13:57.071Z</time></trkpt><trkpt lat="41.4466053" lon="2.528115"><ele>0.0</ele><time>2026-04-30T10:13:58.071Z</time></trkpt><trkpt lat="41.4466412" lon="2.528211"><ele>0.0</ele><time>2026-04-30T10:13:59.071Z</time></trkpt><trkpt lat="41.4466761" lon="2.5283128"><ele>0.0</ele><time>2026-04-30T10:14:00.07Z</time></trkpt><trkpt lat="41.4467055" lon="2.5284231"><ele>0.0</ele><time>2026-04-30T10:14:01.07Z</time></trkpt><trkpt lat="41.4467394" lon="2.5285262"><ele>0.0</ele><time>2026-04-30T10:14:02.07Z</time></trkpt><trkpt lat="41.4467859" lon="2.5286296"><ele>0.0</ele><time>2026-04-30T10:14:03.071Z</time></trkpt><trkpt lat="41.4468281" lon="2.528734"><ele>0.0</ele><time>2026-04-30T10:14:04.07Z</time></trkpt><trkpt lat="41.4468695" lon="2.5288365"><ele>0.0</ele><time>2026-04-30T10:14:05.07Z</time></trkpt><trkpt lat="41.4469144" lon="2.5289396"><ele>0.0</ele><time>2026-04-30T10:14:06.07Z</time></trkpt><trkpt lat="41.4469552" lon="2.5290443"><ele>0.0</ele><time>2026-04-30T10:14:07.071Z</time></trkpt><trkpt lat="41.4470466" lon="2.529245"><ele>0.0</ele><time>2026-04-30T10:14:09.07Z</time></trkpt><trkpt lat="41.447087" lon="2.5293452"><ele>0.0</ele><time>2026-04-30T10:14:10.071Z</time></trkpt><trkpt lat="41.4471283" lon="2.529445"><ele>0.0</ele><time>2026-04-30T10:14:11.071Z</time></trkpt><trkpt lat="41.4471687" lon="2.5295421"><ele>0.0</ele><time>2026-04-30T10:14:12.071Z</time></trkpt><trkpt lat="41.4472053" lon="2.5296403"><ele>0.0</ele><time>2026-04-30T10:14:13.07Z</time></trkpt><trkpt lat="41.4472535" lon="2.5297386"><ele>0.0</ele><time>2026-04-30T10:14:14.07Z</time></trkpt><trkpt lat="41.4472934" lon="2.5298387"><ele>0.0</ele><time>2026-04-30T10:14:15.071Z</time></trkpt><trkpt lat="41.4473286" lon="2.5299348"><ele>0.0</ele><time>2026-04-30T10:14:16.07Z</time></trkpt><trkpt lat="41.4473652" lon="2.5300368"><ele>0.0</ele><time>2026-04-30T10:14:17.07Z</time></trkpt><trkpt lat="41.4474103" lon="2.5301426"><ele>0.0</ele><time>2026-04-30T10:14:18.07Z</time></trkpt><trkpt lat="41.44745" lon="2.5302447"><ele>0.0</ele><time>2026-04-30T10:14:19.071Z</time></trkpt><trkpt lat="41.4474901" lon="2.5303482"><ele>0.0</ele><time>2026-04-30T10:14:20.071Z</time></trkpt><trkpt lat="41.4475313" lon="2.5304486"><ele>0.0</ele><time>2026-04-30T10:14:21.071Z</time></trkpt><trkpt lat="41.4475728" lon="2.5305528"><ele>0.0</ele><time>2026-04-30T10:14:22.07Z</time></trkpt><trkpt lat="41.4476387" lon="2.5306468"><ele>0.0</ele><time>2026-04-30T10:14:23.071Z</time></trkpt><trkpt lat="41.447683" lon="2.5307485"><ele>0.0</ele><time>2026-04-30T10:14:24.07Z</time></trkpt><trkpt lat="41.4477218" lon="2.5308502"><ele>0.0</ele><time>2026-04-30T10:14:25.071Z</time></trkpt><trkpt lat="41.4477618" lon="2.530953"><ele>0.0</ele><time>2026-04-30T10:14:26.071Z</time></trkpt><trkpt lat="41.447799" lon="2.5310552"><ele>0.0</ele><time>2026-04-30T10:14:27.071Z</time></trkpt><trkpt lat="41.4478439" lon="2.5311548"><ele>0.0</ele><time>2026-04-30T10:14:28.07Z</time></trkpt><trkpt lat="41.4479234" lon="2.5313582"><ele>0.0</ele><time>2026-04-30T10:14:30.071Z</time></trkpt><trkpt lat="41.4479651" lon="2.5314587"><ele>0.0</ele><time>2026-04-30T10:14:31.071Z</time></trkpt><trkpt lat="41.4480033" lon="2.5315598"><ele>0.0</ele><time>2026-04-30T10:14:32.07Z</time></trkpt><trkpt lat="41.4480431" lon="2.5316628"><ele>0.0</ele><time>2026-04-30T10:14:33.07Z</time></trkpt><trkpt lat="41.4480877" lon="2.5317645"><ele>0.0</ele><time>2026-04-30T10:14:34.07Z</time></trkpt><trkpt lat="41.448133" lon="2.531872"><ele>0.0</ele><time>2026-04-30T10:14:35.07Z</time></trkpt><trkpt lat="41.448178" lon="2.5319759"><ele>0.0</ele><time>2026-04-30T10:14:36.071Z</time></trkpt><trkpt lat="41.4482197" lon="2.5320809"><ele>0.0</ele><time>2026-04-30T10:14:37.07Z</time></trkpt><trkpt lat="41.4482628" lon="2.5321859"><ele>0.0</ele><time>2026-04-30T10:14:38.071Z</time></trkpt><trkpt lat="41.4483066" lon="2.5322899"><ele>0.0</ele><time>2026-04-30T10:14:39.07Z</time></trkpt><trkpt lat="41.4483466" lon="2.532389"><ele>0.0</ele><time>2026-04-30T10:14:40.071Z</time></trkpt><trkpt lat="41.4483954" lon="2.5324802"><ele>0.0</ele><time>2026-04-30T10:14:41.07Z</time></trkpt><trkpt lat="41.4484453" lon="2.5325774"><ele>0.0</ele><time>2026-04-30T10:14:42.071Z</time></trkpt><trkpt lat="41.4484819" lon="2.5326797"><ele>0.0</ele><time>2026-04-30T10:14:43.071Z</time></trkpt><trkpt lat="41.4485225" lon="2.5327799"><ele>0.0</ele><time>2026-04-30T10:14:44.07Z</time></trkpt><trkpt lat="41.4485626" lon="2.5328772"><ele>0.0</ele><time>2026-04-30T10:14:45.07Z</time></trkpt><trkpt lat="41.4485924" lon="2.5329842"><ele>0.0</ele><time>2026-04-30T10:14:46.07Z</time></trkpt><trkpt lat="41.4486232" lon="2.5330895"><ele>0.0</ele><time>2026-04-30T10:14:47.071Z</time></trkpt><trkpt lat="41.4486574" lon="2.5331933"><ele>0.0</ele><time>2026-04-30T10:14:48.07Z</time></trkpt><trkpt lat="41.448691" lon="2.5332966"><ele>0.0</ele><time>2026-04-30T10:14:49.071Z</time></trkpt><trkpt lat="41.4487618" lon="2.533506"><ele>0.0</ele><time>2026-04-30T10:14:51.071Z</time></trkpt><trkpt lat="41.4488033" lon="2.5336093"><ele>0.0</ele><time>2026-04-30T10:14:52.071Z</time></trkpt><trkpt lat="41.4488463" lon="2.5337102"><ele>0.0</ele><time>2026-04-30T10:14:53.071Z</time></trkpt><trkpt lat="41.4488867" lon="2.533813"><ele>0.0</ele><time>2026-04-30T10:14:54.07Z</time></trkpt><trkpt lat="41.448931" lon="2.5339134"><ele>0.0</ele><time>2026-04-30T10:14:55.07Z</time></trkpt><trkpt lat="41.4489828" lon="2.5340079"><ele>0.0</ele><time>2026-04-30T10:14:56.071Z</time></trkpt><trkpt lat="41.4490242" lon="2.5341125"><ele>0.0</ele><time>2026-04-30T10:14:57.07Z</time></trkpt><trkpt lat="41.4490667" lon="2.5342137"><ele>0.0</ele><time>2026-04-30T10:14:58.07Z</time></trkpt><trkpt lat="41.4491068" lon="2.5343109"><ele>0.0</ele><time>2026-04-30T10:14:59.071Z</time></trkpt><trkpt lat="41.4491493" lon="2.5344104"><ele>0.0</ele><time>2026-04-30T10:15:00.07Z</time></trkpt><trkpt lat="41.4491899" lon="2.5345144"><ele>0.0</ele><time>2026-04-30T10:15:01.07Z</time></trkpt><trkpt lat="41.4492262" lon="2.5346182"><ele>0.0</ele><time>2026-04-30T10:15:02.07Z</time></trkpt><trkpt lat="41.4492608" lon="2.5347173"><ele>0.0</ele><time>2026-04-30T10:15:03.07Z</time></trkpt><trkpt lat="41.4493001" lon="2.5348196"><ele>0.0</ele><time>2026-04-30T10:15:04.07Z</time></trkpt><trkpt lat="41.4493486" lon="2.5349273"><ele>0.0</ele><time>2026-04-30T10:15:05.071Z</time></trkpt><trkpt lat="41.4493999" lon="2.5350365"><ele>0.0</ele><time>2026-04-30T10:15:06.07Z</time></trkpt><trkpt lat="41.4494404" lon="2.5351384"><ele>0.0</ele><time>2026-04-30T10:15:07.07Z</time></trkpt><trkpt lat="41.4494804" lon="2.53524"><ele>0.0</ele><time>2026-04-30T10:15:08.071Z</time></trkpt><trkpt lat="41.4495316" lon="2.535336"><ele>0.0</ele><time>2026-04-30T10:15:09.07Z</time></trkpt><trkpt lat="41.449581" lon="2.5354381"><ele>0.0</ele><time>2026-04-30T10:15:10.07Z</time></trkpt><trkpt lat="41.4496637" lon="2.5356418"><ele>0.0</ele><time>2026-04-30T10:15:12.07Z</time></trkpt><trkpt lat="41.449702" lon="2.5357417"><ele>0.0</ele><time>2026-04-30T10:15:13.07Z</time></trkpt><trkpt lat="41.4497662" lon="2.5359423"><ele>0.0</ele><time>2026-04-30T10:15:15.07Z</time></trkpt><trkpt lat="41.4498006" lon="2.5360406"><ele>0.0</ele><time>2026-04-30T10:15:16.071Z</time></trkpt><trkpt lat="41.4498359" lon="2.536146"><ele>0.0</ele><time>2026-04-30T10:15:17.07Z</time></trkpt><trkpt lat="41.4498748" lon="2.5362526"><ele>0.0</ele><time>2026-04-30T10:15:18.071Z</time></trkpt><trkpt lat="41.4499134" lon="2.5363566"><ele>0.0</ele><time>2026-04-30T10:15:19.07Z</time></trkpt><trkpt lat="41.4499518" lon="2.5364582"><ele>0.0</ele><time>2026-04-30T10:15:20.07Z</time></trkpt><trkpt lat="41.4499887" lon="2.5365616"><ele>0.0</ele><time>2026-04-30T10:15:21.07Z</time></trkpt><trkpt lat="41.4500241" lon="2.5366638"><ele>0.0</ele><time>2026-04-30T10:15:22.071Z</time></trkpt><trkpt lat="41.4500575" lon="2.5367668"><ele>0.0</ele><time>2026-04-30T10:15:23.071Z</time></trkpt><trkpt lat="41.4500936" lon="2.5368671"><ele>0.0</ele><time>2026-04-30T10:15:24.07Z</time></trkpt><trkpt lat="41.4501346" lon="2.536967"><ele>0.0</ele><time>2026-04-30T10:15:25.071Z</time></trkpt><trkpt lat="41.4501776" lon="2.5370657"><ele>0.0</ele><time>2026-04-30T10:15:26.071Z</time></trkpt><trkpt lat="41.4502181" lon="2.5371628"><ele>0.0</ele><time>2026-04-30T10:15:27.071Z</time></trkpt><trkpt lat="41.4502549" lon="2.537261"><ele>0.0</ele><time>2026-04-30T10:15:28.07Z</time></trkpt><trkpt lat="41.4502989" lon="2.5373545"><ele>0.0</ele><time>2026-04-30T10:15:29.071Z</time></trkpt><trkpt lat="41.4503381" lon="2.537455"><ele>0.0</ele><time>2026-04-30T10:15:30.07Z</time></trkpt><trkpt lat="41.4503779" lon="2.5375611"><ele>0.0</ele><time>2026-04-30T10:15:31.071Z</time></trkpt><trkpt lat="41.4504583" lon="2.5377624"><ele>0.0</ele><time>2026-04-30T10:15:33.071Z</time></trkpt><trkpt lat="41.4505012" lon="2.5378646"><ele>0.0</ele><time>2026-04-30T10:15:34.071Z</time></trkpt><trkpt lat="41.4505446" lon="2.5379678"><ele>0.0</ele><time>2026-04-30T10:15:35.07Z</time></trkpt><trkpt lat="41.4505834" lon="2.5380699"><ele>0.0</ele><time>2026-04-30T10:15:36.07Z</time></trkpt><trkpt lat="41.4506217" lon="2.5381686"><ele>0.0</ele><time>2026-04-30T10:15:37.071Z</time></trkpt><trkpt lat="41.4506603" lon="2.53827"><ele>0.0</ele><time>2026-04-30T10:15:38.071Z</time></trkpt><trkpt lat="41.4506986" lon="2.5383693"><ele>0.0</ele><time>2026-04-30T10:15:39.071Z</time></trkpt><trkpt lat="41.4507402" lon="2.538469"><ele>0.0</ele><time>2026-04-30T10:15:40.071Z</time></trkpt><trkpt lat="41.4507764" lon="2.5385714"><ele>0.0</ele><time>2026-04-30T10:15:41.071Z</time></trkpt><trkpt lat="41.450818" lon="2.5386745"><ele>0.0</ele><time>2026-04-30T10:15:42.071Z</time></trkpt><trkpt lat="41.4508603" lon="2.5387751"><ele>0.0</ele><time>2026-04-30T10:15:43.07Z</time></trkpt><trkpt lat="41.4509017" lon="2.5388764"><ele>0.0</ele><time>2026-04-30T10:15:44.071Z</time></trkpt><trkpt lat="41.4509379" lon="2.5389793"><ele>0.0</ele><time>2026-04-30T10:15:45.07Z</time></trkpt><trkpt lat="41.4509769" lon="2.5390828"><ele>0.0</ele><time>2026-04-30T10:15:46.071Z</time></trkpt><trkpt lat="41.4510172" lon="2.5391837"><ele>0.0</ele><time>2026-04-30T10:15:47.071Z</time></trkpt><trkpt lat="41.4510537" lon="2.539285"><ele>0.0</ele><time>2026-04-30T10:15:48.071Z</time></trkpt><trkpt lat="41.4510919" lon="2.5393881"><ele>0.0</ele><time>2026-04-30T10:15:49.071Z</time></trkpt><trkpt lat="41.4511316" lon="2.5394915"><ele>0.0</ele><time>2026-04-30T10:15:50.07Z</time></trkpt><trkpt lat="41.4511687" lon="2.5395992"><ele>0.0</ele><time>2026-04-30T10:15:51.07Z</time></trkpt><trkpt lat="41.4512033" lon="2.539706"><ele>0.0</ele><time>2026-04-30T10:15:52.071Z</time></trkpt><trkpt lat="41.4512966" lon="2.5399152"><ele>0.0</ele><time>2026-04-30T10:15:54.07Z</time></trkpt><trkpt lat="41.4513413" lon="2.5400169"><ele>0.0</ele><time>2026-04-30T10:15:55.071Z</time></trkpt><trkpt lat="41.4513822" lon="2.5401168"><ele>0.0</ele><time>2026-04-30T10:15:56.071Z</time></trkpt><trkpt lat="41.4514223" lon="2.5402186"><ele>0.0</ele><time>2026-04-30T10:15:57.071Z</time></trkpt><trkpt lat="41.4514607" lon="2.5403172"><ele>0.0</ele><time>2026-04-30T10:15:58.071Z</time></trkpt><trkpt lat="41.4515017" lon="2.5404181"><ele>0.0</ele><time>2026-04-30T10:15:59.071Z</time></trkpt><trkpt lat="41.4515407" lon="2.5405215"><ele>0.0</ele><time>2026-04-30T10:16:00.07Z</time></trkpt><trkpt lat="41.4515757" lon="2.5406234"><ele>0.0</ele><time>2026-04-30T10:16:01.07Z</time></trkpt><trkpt lat="41.451612" lon="2.5407251"><ele>0.0</ele><time>2026-04-30T10:16:02.07Z</time></trkpt><trkpt lat="41.4516475" lon="2.5408237"><ele>0.0</ele><time>2026-04-30T10:16:03.071Z</time></trkpt><trkpt lat="41.4516837" lon="2.5409248"><ele>0.0</ele><time>2026-04-30T10:16:04.07Z</time></trkpt><trkpt lat="41.4517188" lon="2.541027"><ele>0.0</ele><time>2026-04-30T10:16:05.071Z</time></trkpt><trkpt lat="41.4517535" lon="2.54113"><ele>0.0</ele><time>2026-04-30T10:16:06.07Z</time></trkpt><trkpt lat="41.4517934" lon="2.5412331"><ele>0.0</ele><time>2026-04-30T10:16:07.071Z</time></trkpt><trkpt lat="41.4518304" lon="2.5413351"><ele>0.0</ele><time>2026-04-30T10:16:08.07Z</time></trkpt><trkpt lat="41.4518652" lon="2.5414368"><ele>0.0</ele><time>2026-04-30T10:16:09.07Z</time></trkpt><trkpt lat="41.4519" lon="2.5415396"><ele>0.0</ele><time>2026-04-30T10:16:10.071Z</time></trkpt><trkpt lat="41.4519368" lon="2.5416431"><ele>0.0</ele><time>2026-04-30T10:16:11.07Z</time></trkpt><trkpt lat="41.4519751" lon="2.5417451"><ele>0.0</ele><time>2026-04-30T10:16:12.07Z</time></trkpt><trkpt lat="41.4520136" lon="2.5418467"><ele>0.0</ele><time>2026-04-30T10:16:13.071Z</time></trkpt><trkpt lat="41.4520971" lon="2.5420568"><ele>0.0</ele><time>2026-04-30T10:16:15.071Z</time></trkpt><trkpt lat="41.4521367" lon="2.5421595"><ele>0.0</ele><time>2026-04-30T10:16:16.071Z</time></trkpt><trkpt lat="41.4521868" lon="2.5422728"><ele>0.0</ele><time>2026-04-30T10:16:17.071Z</time></trkpt><trkpt lat="41.4522389" lon="2.5423764"><ele>0.0</ele><time>2026-04-30T10:16:18.071Z</time></trkpt><trkpt lat="41.4522848" lon="2.542471"><ele>0.0</ele><time>2026-04-30T10:16:19.07Z</time></trkpt><trkpt lat="41.452334" lon="2.5425669"><ele>0.0</ele><time>2026-04-30T10:16:20.071Z</time></trkpt><trkpt lat="41.4523688" lon="2.5426694"><ele>0.0</ele><time>2026-04-30T10:16:21.071Z</time></trkpt><trkpt lat="41.4524041" lon="2.5427629"><ele>0.0</ele><time>2026-04-30T10:16:22.07Z</time></trkpt><trkpt lat="41.4524402" lon="2.5428664"><ele>0.0</ele><time>2026-04-30T10:16:23.069Z</time></trkpt><trkpt lat="41.4524771" lon="2.542967"><ele>0.0</ele><time>2026-04-30T10:16:24.069Z</time></trkpt><trkpt lat="41.4525153" lon="2.5430681"><ele>0.0</ele><time>2026-04-30T10:16:25.07Z</time></trkpt><trkpt lat="41.4525555" lon="2.5431653"><ele>0.0</ele><time>2026-04-30T10:16:26.07Z</time></trkpt><trkpt lat="41.4525969" lon="2.5432668"><ele>0.0</ele><time>2026-04-30T10:16:27.069Z</time></trkpt><trkpt lat="41.4526373" lon="2.5433669"><ele>0.0</ele><time>2026-04-30T10:16:28.069Z</time></trkpt><trkpt lat="41.4526714" lon="2.5434626"><ele>0.0</ele><time>2026-04-30T10:16:29.069Z</time></trkpt><trkpt lat="41.4527033" lon="2.5435607"><ele>0.0</ele><time>2026-04-30T10:16:30.069Z</time></trkpt><trkpt lat="41.4527234" lon="2.5436645"><ele>0.0</ele><time>2026-04-30T10:16:31.069Z</time></trkpt><trkpt lat="41.4527488" lon="2.5437721"><ele>0.0</ele><time>2026-04-30T10:16:32.069Z</time></trkpt><trkpt lat="41.4527811" lon="2.5438779"><ele>0.0</ele><time>2026-04-30T10:16:33.069Z</time></trkpt><trkpt lat="41.4528205" lon="2.5439784"><ele>0.0</ele><time>2026-04-30T10:16:34.069Z</time></trkpt><trkpt lat="41.4528972" lon="2.5441804"><ele>0.0</ele><time>2026-04-30T10:16:36.069Z</time></trkpt><trkpt lat="41.4529384" lon="2.544283"><ele>0.0</ele><time>2026-04-30T10:16:37.07Z</time></trkpt><trkpt lat="41.4529772" lon="2.5443805"><ele>0.0</ele><time>2026-04-30T10:16:38.07Z</time></trkpt><trkpt lat="41.4530176" lon="2.5444786"><ele>0.0</ele><time>2026-04-30T10:16:39.069Z</time></trkpt><trkpt lat="41.4530624" lon="2.5445783"><ele>0.0</ele><time>2026-04-30T10:16:40.069Z</time></trkpt><trkpt lat="41.4531046" lon="2.5446797"><ele>0.0</ele><time>2026-04-30T10:16:41.07Z</time></trkpt><trkpt lat="41.4531463" lon="2.5447826"><ele>0.0</ele><time>2026-04-30T10:16:42.07Z</time></trkpt><trkpt lat="41.4531928" lon="2.5448877"><ele>0.0</ele><time>2026-04-30T10:16:43.07Z</time></trkpt><trkpt lat="41.4532409" lon="2.5449954"><ele>0.0</ele><time>2026-04-30T10:16:44.07Z</time></trkpt><trkpt lat="41.4532821" lon="2.5450923"><ele>0.0</ele><time>2026-04-30T10:16:45.069Z</time></trkpt><trkpt lat="41.453322" lon="2.5451918"><ele>0.0</ele><time>2026-04-30T10:16:46.069Z</time></trkpt><trkpt lat="41.453362" lon="2.5452909"><ele>0.0</ele><time>2026-04-30T10:16:47.07Z</time></trkpt><trkpt lat="41.453396" lon="2.5453849"><ele>0.0</ele><time>2026-04-30T10:16:48.069Z</time></trkpt><trkpt lat="41.4534382" lon="2.5454879"><ele>0.0</ele><time>2026-04-30T10:16:49.07Z</time></trkpt><trkpt lat="41.4534914" lon="2.5456009"><ele>0.0</ele><time>2026-04-30T10:16:50.069Z</time></trkpt><trkpt lat="41.4535575" lon="2.5457017"><ele>0.0</ele><time>2026-04-30T10:16:51.07Z</time></trkpt><trkpt lat="41.4536086" lon="2.5457976"><ele>0.0</ele><time>2026-04-30T10:16:52.069Z</time></trkpt><trkpt lat="41.4536557" lon="2.5458997"><ele>0.0</ele><time>2026-04-30T10:16:53.069Z</time></trkpt><trkpt lat="41.4537041" lon="2.5460006"><ele>0.0</ele><time>2026-04-30T10:16:54.07Z</time></trkpt><trkpt lat="41.4537466" lon="2.5461031"><ele>0.0</ele><time>2026-04-30T10:16:55.069Z</time></trkpt><trkpt lat="41.4538216" lon="2.5463081"><ele>0.0</ele><time>2026-04-30T10:16:57.069Z</time></trkpt><trkpt lat="41.4538602" lon="2.546413"><ele>0.0</ele><time>2026-04-30T10:16:58.069Z</time></trkpt><trkpt lat="41.4539031" lon="2.5465162"><ele>0.0</ele><time>2026-04-30T10:16:59.069Z</time></trkpt><trkpt lat="41.4539454" lon="2.5466185"><ele>0.0</ele><time>2026-04-30T10:17:00.069Z</time></trkpt><trkpt lat="41.4539871" lon="2.5467185"><ele>0.0</ele><time>2026-04-30T10:17:01.069Z</time></trkpt><trkpt lat="41.4540268" lon="2.5468186"><ele>0.0</ele><time>2026-04-30T10:17:02.069Z</time></trkpt><trkpt lat="41.4540666" lon="2.5469257"><ele>0.0</ele><time>2026-04-30T10:17:03.069Z</time></trkpt><trkpt lat="41.4541169" lon="2.5470369"><ele>0.0</ele><time>2026-04-30T10:17:04.069Z</time></trkpt><trkpt lat="41.4541671" lon="2.5471285"><ele>0.0</ele><time>2026-04-30T10:17:05.069Z</time></trkpt><trkpt lat="41.4542115" lon="2.5472256"><ele>0.0</ele><time>2026-04-30T10:17:06.07Z</time></trkpt><trkpt lat="41.4542589" lon="2.5473265"><ele>0.0</ele><time>2026-04-30T10:17:07.069Z</time></trkpt><trkpt lat="41.4542846" lon="2.5474267"><ele>0.0</ele><time>2026-04-30T10:17:08.07Z</time></trkpt><trkpt lat="41.4543163" lon="2.5475283"><ele>0.0</ele><time>2026-04-30T10:17:09.07Z</time></trkpt><trkpt lat="41.4543522" lon="2.547623"><ele>0.0</ele><time>2026-04-30T10:17:10.07Z</time></trkpt><trkpt lat="41.4543877" lon="2.5477265"><ele>0.0</ele><time>2026-04-30T10:17:11.07Z</time></trkpt><trkpt lat="41.4544239" lon="2.5478257"><ele>0.0</ele><time>2026-04-30T10:17:12.069Z</time></trkpt><trkpt lat="41.4544576" lon="2.5479268"><ele>0.0</ele><time>2026-04-30T10:17:13.069Z</time></trkpt><trkpt lat="41.4544951" lon="2.5480272"><ele>0.0</ele><time>2026-04-30T10:17:14.069Z</time></trkpt><trkpt lat="41.4545421" lon="2.5481269"><ele>0.0</ele><time>2026-04-30T10:17:15.069Z</time></trkpt><trkpt lat="41.4545877" lon="2.5482237"><ele>0.0</ele><time>2026-04-30T10:17:16.07Z</time></trkpt><trkpt lat="41.4546616" lon="2.5484358"><ele>0.0</ele><time>2026-04-30T10:17:18.07Z</time></trkpt><trkpt lat="41.454704" lon="2.5485409"><ele>0.0</ele><time>2026-04-30T10:17:19.07Z</time></trkpt><trkpt lat="41.4547462" lon="2.5486435"><ele>0.0</ele><time>2026-04-30T10:17:20.069Z</time></trkpt><trkpt lat="41.4547842" lon="2.5487475"><ele>0.0</ele><time>2026-04-30T10:17:21.069Z</time></trkpt><trkpt lat="41.454822" lon="2.5488486"><ele>0.0</ele><time>2026-04-30T10:17:22.07Z</time></trkpt><trkpt lat="41.4548588" lon="2.5489484"><ele>0.0</ele><time>2026-04-30T10:17:23.07Z</time></trkpt><trkpt lat="41.4548927" lon="2.5490458"><ele>0.0</ele><time>2026-04-30T10:17:24.07Z</time></trkpt><trkpt lat="41.4549302" lon="2.549148"><ele>0.0</ele><time>2026-04-30T10:17:25.069Z</time></trkpt><trkpt lat="41.4549626" lon="2.5492472"><ele>0.0</ele><time>2026-04-30T10:17:26.07Z</time></trkpt><trkpt lat="41.4549955" lon="2.5493527"><ele>0.0</ele><time>2026-04-30T10:17:27.069Z</time></trkpt><trkpt lat="41.4550388" lon="2.5494604"><ele>0.0</ele><time>2026-04-30T10:17:28.07Z</time></trkpt><trkpt lat="41.4550779" lon="2.5495673"><ele>0.0</ele><time>2026-04-30T10:17:29.07Z</time></trkpt><trkpt lat="41.45511" lon="2.549673"><ele>0.0</ele><time>2026-04-30T10:17:30.07Z</time></trkpt><trkpt lat="41.4551425" lon="2.5497768"><ele>0.0</ele><time>2026-04-30T10:17:31.07Z</time></trkpt><trkpt lat="41.4551758" lon="2.5498771"><ele>0.0</ele><time>2026-04-30T10:17:32.069Z</time></trkpt><trkpt lat="41.4552041" lon="2.5499827"><ele>0.0</ele><time>2026-04-30T10:17:33.069Z</time></trkpt><trkpt lat="41.4552442" lon="2.5500865"><ele>0.0</ele><time>2026-04-30T10:17:34.069Z</time></trkpt><trkpt lat="41.455286" lon="2.5501914"><ele>0.0</ele><time>2026-04-30T10:17:35.069Z</time></trkpt><trkpt lat="41.4553251" lon="2.550295"><ele>0.0</ele><time>2026-04-30T10:17:36.069Z</time></trkpt><trkpt lat="41.4553618" lon="2.5503968"><ele>0.0</ele><time>2026-04-30T10:17:37.07Z</time></trkpt><trkpt lat="41.4554366" lon="2.5505982"><ele>0.0</ele><time>2026-04-30T10:17:39.069Z</time></trkpt><trkpt lat="41.4554751" lon="2.5506985"><ele>0.0</ele><time>2026-04-30T10:17:40.069Z</time></trkpt><trkpt lat="41.4555131" lon="2.5507985"><ele>0.0</ele><time>2026-04-30T10:17:41.069Z</time></trkpt><trkpt lat="41.4555574" lon="2.5508962"><ele>0.0</ele><time>2026-04-30T10:17:42.07Z</time></trkpt><trkpt lat="41.455597" lon="2.5509985"><ele>0.0</ele><time>2026-04-30T10:17:43.069Z</time></trkpt><trkpt lat="41.4556356" lon="2.5510972"><ele>0.0</ele><time>2026-04-30T10:17:44.069Z</time></trkpt><trkpt lat="41.4556675" lon="2.5511986"><ele>0.0</ele><time>2026-04-30T10:17:45.07Z</time></trkpt><trkpt lat="41.4557019" lon="2.5513056"><ele>0.0</ele><time>2026-04-30T10:17:46.07Z</time></trkpt><trkpt lat="41.4557415" lon="2.5514124"><ele>0.0</ele><time>2026-04-30T10:17:47.069Z</time></trkpt><trkpt lat="41.4557953" lon="2.5515177"><ele>0.0</ele><time>2026-04-30T10:17:48.069Z</time></trkpt><trkpt lat="41.455842" lon="2.5516216"><ele>0.0</ele><time>2026-04-30T10:17:49.07Z</time></trkpt><trkpt lat="41.455883" lon="2.5517249"><ele>0.0</ele><time>2026-04-30T10:17:50.069Z</time></trkpt><trkpt lat="41.4559233" lon="2.5518267"><ele>0.0</ele><time>2026-04-30T10:17:51.069Z</time></trkpt><trkpt lat="41.4559659" lon="2.5519281"><ele>0.0</ele><time>2026-04-30T10:17:52.069Z</time></trkpt><trkpt lat="41.456008" lon="2.5520314"><ele>0.0</ele><time>2026-04-30T10:17:53.07Z</time></trkpt><trkpt lat="41.4560484" lon="2.5521349"><ele>0.0</ele><time>2026-04-30T10:17:54.069Z</time></trkpt><trkpt lat="41.4560925" lon="2.552244"><ele>0.0</ele><time>2026-04-30T10:17:55.07Z</time></trkpt><trkpt lat="41.4561331" lon="2.5523482"><ele>0.0</ele><time>2026-04-30T10:17:56.069Z</time></trkpt><trkpt lat="41.4561703" lon="2.5524507"><ele>0.0</ele><time>2026-04-30T10:17:57.069Z</time></trkpt><trkpt lat="41.4562252" lon="2.5525464"><ele>0.0</ele><time>2026-04-30T10:17:58.07Z</time></trkpt><trkpt lat="41.4563004" lon="2.552764"><ele>0.0</ele><time>2026-04-30T10:18:00.07Z</time></trkpt><trkpt lat="41.4563388" lon="2.5528696"><ele>0.0</ele><time>2026-04-30T10:18:01.069Z</time></trkpt><trkpt lat="41.456371" lon="2.5529747"><ele>0.0</ele><time>2026-04-30T10:18:02.069Z</time></trkpt><trkpt lat="41.4563957" lon="2.5530769"><ele>0.0</ele><time>2026-04-30T10:18:03.069Z</time></trkpt><trkpt lat="41.4564248" lon="2.5531855"><ele>0.0</ele><time>2026-04-30T10:18:04.069Z</time></trkpt><trkpt lat="41.4564589" lon="2.5532995"><ele>0.0</ele><time>2026-04-30T10:18:05.07Z</time></trkpt><trkpt lat="41.4564967" lon="2.5534047"><ele>0.0</ele><time>2026-04-30T10:18:06.07Z</time></trkpt><trkpt lat="41.4565446" lon="2.5535013"><ele>0.0</ele><time>2026-04-30T10:18:07.07Z</time></trkpt><trkpt lat="41.4565932" lon="2.5535962"><ele>0.0</ele><time>2026-04-30T10:18:08.069Z</time></trkpt><trkpt lat="41.4566362" lon="2.5536939"><ele>0.0</ele><time>2026-04-30T10:18:09.069Z</time></trkpt><trkpt lat="41.4566765" lon="2.5537947"><ele>0.0</ele><time>2026-04-30T10:18:10.069Z</time></trkpt><trkpt lat="41.4567225" lon="2.5538949"><ele>0.0</ele><time>2026-04-30T10:18:11.07Z</time></trkpt><trkpt lat="41.4567693" lon="2.5540006"><ele>0.0</ele><time>2026-04-30T10:18:12.069Z</time></trkpt><trkpt lat="41.4568057" lon="2.5541065"><ele>0.0</ele><time>2026-04-30T10:18:13.07Z</time></trkpt><trkpt lat="41.4568478" lon="2.5542056"><ele>0.0</ele><time>2026-04-30T10:18:14.069Z</time></trkpt><trkpt lat="41.4568868" lon="2.5543055"><ele>0.0</ele><time>2026-04-30T10:18:15.069Z</time></trkpt><trkpt lat="41.4569279" lon="2.5544053"><ele>0.0</ele><time>2026-04-30T10:18:16.07Z</time></trkpt><trkpt lat="41.4569653" lon="2.5545105"><ele>0.0</ele><time>2026-04-30T10:18:17.069Z</time></trkpt><trkpt lat="41.457005" lon="2.5546149"><ele>0.0</ele><time>2026-04-30T10:18:18.069Z</time></trkpt><trkpt lat="41.4570508" lon="2.5547211"><ele>0.0</ele><time>2026-04-30T10:18:19.069Z</time></trkpt><trkpt lat="41.4571409" lon="2.5549218"><ele>0.0</ele><time>2026-04-30T10:18:21.07Z</time></trkpt><trkpt lat="41.4572139" lon="2.5551251"><ele>0.0</ele><time>2026-04-30T10:18:23.069Z</time></trkpt><trkpt lat="41.4572449" lon="2.555227"><ele>0.0</ele><time>2026-04-30T10:18:24.07Z</time></trkpt><trkpt lat="41.4572835" lon="2.5553322"><ele>0.0</ele><time>2026-04-30T10:18:25.07Z</time></trkpt><trkpt lat="41.4573202" lon="2.5554393"><ele>0.0</ele><time>2026-04-30T10:18:26.069Z</time></trkpt><trkpt lat="41.457354" lon="2.5555474"><ele>0.0</ele><time>2026-04-30T10:18:27.07Z</time></trkpt><trkpt lat="41.4573975" lon="2.5556499"><ele>0.0</ele><time>2026-04-30T10:18:28.069Z</time></trkpt><trkpt lat="41.4574336" lon="2.5557596"><ele>0.0</ele><time>2026-04-30T10:18:29.069Z</time></trkpt><trkpt lat="41.4574744" lon="2.5558602"><ele>0.0</ele><time>2026-04-30T10:18:30.069Z</time></trkpt><trkpt lat="41.4575163" lon="2.5559566"><ele>0.0</ele><time>2026-04-30T10:18:31.07Z</time></trkpt><trkpt lat="41.4575595" lon="2.556057"><ele>0.0</ele><time>2026-04-30T10:18:32.07Z</time></trkpt><trkpt lat="41.4575958" lon="2.5561626"><ele>0.0</ele><time>2026-04-30T10:18:33.07Z</time></trkpt><trkpt lat="41.4576293" lon="2.5562648"><ele>0.0</ele><time>2026-04-30T10:18:34.07Z</time></trkpt><trkpt lat="41.4576628" lon="2.5563634"><ele>0.0</ele><time>2026-04-30T10:18:35.069Z</time></trkpt><trkpt lat="41.4576985" lon="2.5564675"><ele>0.0</ele><time>2026-04-30T10:18:36.069Z</time></trkpt><trkpt lat="41.4577393" lon="2.5565755"><ele>0.0</ele><time>2026-04-30T10:18:37.069Z</time></trkpt><trkpt lat="41.4577785" lon="2.5566837"><ele>0.0</ele><time>2026-04-30T10:18:38.07Z</time></trkpt><trkpt lat="41.4578195" lon="2.5567841"><ele>0.0</ele><time>2026-04-30T10:18:39.07Z</time></trkpt><trkpt lat="41.4578994" lon="2.5569888"><ele>0.0</ele><time>2026-04-30T10:18:41.07Z</time></trkpt><trkpt lat="41.4579369" lon="2.5570914"><ele>0.0</ele><time>2026-04-30T10:18:42.069Z</time></trkpt><trkpt lat="41.4579692" lon="2.5571975"><ele>0.0</ele><time>2026-04-30T10:18:43.069Z</time></trkpt><trkpt lat="41.4580097" lon="2.5572984"><ele>0.0</ele><time>2026-04-30T10:18:44.07Z</time></trkpt><trkpt lat="41.458043" lon="2.5573944"><ele>0.0</ele><time>2026-04-30T10:18:45.07Z</time></trkpt><trkpt lat="41.4580758" lon="2.5574937"><ele>0.0</ele><time>2026-04-30T10:18:46.069Z</time></trkpt><trkpt lat="41.4581178" lon="2.5575939"><ele>0.0</ele><time>2026-04-30T10:18:47.07Z</time></trkpt><trkpt lat="41.4581554" lon="2.5576898"><ele>0.0</ele><time>2026-04-30T10:18:48.069Z</time></trkpt><trkpt lat="41.4581924" lon="2.557796"><ele>0.0</ele><time>2026-04-30T10:18:49.07Z</time></trkpt><trkpt lat="41.458226" lon="2.5578997"><ele>0.0</ele><time>2026-04-30T10:18:50.069Z</time></trkpt><trkpt lat="41.4582608" lon="2.5580019"><ele>0.0</ele><time>2026-04-30T10:18:51.07Z</time></trkpt><trkpt lat="41.4582928" lon="2.5581079"><ele>0.0</ele><time>2026-04-30T10:18:52.069Z</time></trkpt><trkpt lat="41.4583287" lon="2.5582159"><ele>0.0</ele><time>2026-04-30T10:18:53.069Z</time></trkpt><trkpt lat="41.4583638" lon="2.5583227"><ele>0.0</ele><time>2026-04-30T10:18:54.07Z</time></trkpt><trkpt lat="41.4584014" lon="2.5584266"><ele>0.0</ele><time>2026-04-30T10:18:55.07Z</time></trkpt><trkpt lat="41.4584413" lon="2.5585284"><ele>0.0</ele><time>2026-04-30T10:18:56.07Z</time></trkpt><trkpt lat="41.4584805" lon="2.5586315"><ele>0.0</ele><time>2026-04-30T10:18:57.069Z</time></trkpt><trkpt lat="41.4585188" lon="2.5587307"><ele>0.0</ele><time>2026-04-30T10:18:58.069Z</time></trkpt><trkpt lat="41.4585542" lon="2.5588304"><ele>0.0</ele><time>2026-04-30T10:18:59.07Z</time></trkpt><trkpt lat="41.4586001" lon="2.5589276"><ele>0.0</ele><time>2026-04-30T10:19:00.069Z</time></trkpt><trkpt lat="41.458688" lon="2.55913"><ele>0.0</ele><time>2026-04-30T10:19:02.07Z</time></trkpt><trkpt lat="41.4587312" lon="2.5592318"><ele>0.0</ele><time>2026-04-30T10:19:03.069Z</time></trkpt><trkpt lat="41.4587715" lon="2.5593265"><ele>0.0</ele><time>2026-04-30T10:19:04.069Z</time></trkpt><trkpt lat="41.4588161" lon="2.559428"><ele>0.0</ele><time>2026-04-30T10:19:05.069Z</time></trkpt><trkpt lat="41.4588627" lon="2.5595283"><ele>0.0</ele><time>2026-04-30T10:19:06.069Z</time></trkpt><trkpt lat="41.4589066" lon="2.5596313"><ele>0.0</ele><time>2026-04-30T10:19:07.07Z</time></trkpt><trkpt lat="41.4589452" lon="2.5597322"><ele>0.0</ele><time>2026-04-30T10:19:08.069Z</time></trkpt><trkpt lat="41.4589823" lon="2.5598391"><ele>0.0</ele><time>2026-04-30T10:19:09.069Z</time></trkpt><trkpt lat="41.4590234" lon="2.5599433"><ele>0.0</ele><time>2026-04-30T10:19:10.07Z</time></trkpt><trkpt lat="41.459069" lon="2.560044"><ele>0.0</ele><time>2026-04-30T10:19:11.069Z</time></trkpt><trkpt lat="41.4591083" lon="2.560151"><ele>0.0</ele><time>2026-04-30T10:19:12.069Z</time></trkpt><trkpt lat="41.4591477" lon="2.5602487"><ele>0.0</ele><time>2026-04-30T10:19:13.069Z</time></trkpt><trkpt lat="41.4591922" lon="2.5603528"><ele>0.0</ele><time>2026-04-30T10:19:14.07Z</time></trkpt><trkpt lat="41.4592371" lon="2.5604549"><ele>0.0</ele><time>2026-04-30T10:19:15.069Z</time></trkpt><trkpt lat="41.4592825" lon="2.5605569"><ele>0.0</ele><time>2026-04-30T10:19:16.07Z</time></trkpt><trkpt lat="41.4593319" lon="2.5606568"><ele>0.0</ele><time>2026-04-30T10:19:17.07Z</time></trkpt><trkpt lat="41.4593778" lon="2.5607509"><ele>0.0</ele><time>2026-04-30T10:19:18.069Z</time></trkpt><trkpt lat="41.4594099" lon="2.5608499"><ele>0.0</ele><time>2026-04-30T10:19:19.069Z</time></trkpt><trkpt lat="41.4594442" lon="2.5609554"><ele>0.0</ele><time>2026-04-30T10:19:20.07Z</time></trkpt><trkpt lat="41.4594812" lon="2.5610594"><ele>0.0</ele><time>2026-04-30T10:19:21.07Z</time></trkpt><trkpt lat="41.4595584" lon="2.5612589"><ele>0.0</ele><time>2026-04-30T10:19:23.07Z</time></trkpt><trkpt lat="41.459594" lon="2.5613631"><ele>0.0</ele><time>2026-04-30T10:19:24.069Z</time></trkpt><trkpt lat="41.4596287" lon="2.561469"><ele>0.0</ele><time>2026-04-30T10:19:25.069Z</time></trkpt><trkpt lat="41.4596712" lon="2.5615718"><ele>0.0</ele><time>2026-04-30T10:19:26.069Z</time></trkpt><trkpt lat="41.4597048" lon="2.5616703"><ele>0.0</ele><time>2026-04-30T10:19:27.069Z</time></trkpt><trkpt lat="41.4597577" lon="2.561766"><ele>0.0</ele><time>2026-04-30T10:19:28.069Z</time></trkpt><trkpt lat="41.4598132" lon="2.561862"><ele>0.0</ele><time>2026-04-30T10:19:29.069Z</time></trkpt><trkpt lat="41.4598639" lon="2.5619617"><ele>0.0</ele><time>2026-04-30T10:19:30.07Z</time></trkpt><trkpt lat="41.4599122" lon="2.5620578"><ele>0.0</ele><time>2026-04-30T10:19:31.069Z</time></trkpt><trkpt lat="41.4599518" lon="2.5621687"><ele>0.0</ele><time>2026-04-30T10:19:32.069Z</time></trkpt><trkpt lat="41.4599862" lon="2.5622745"><ele>0.0</ele><time>2026-04-30T10:19:33.07Z</time></trkpt><trkpt lat="41.4600235" lon="2.5623765"><ele>0.0</ele><time>2026-04-30T10:19:34.07Z</time></trkpt><trkpt lat="41.4600634" lon="2.562484"><ele>0.0</ele><time>2026-04-30T10:19:35.07Z</time></trkpt><trkpt lat="41.4601105" lon="2.5625907"><ele>0.0</ele><time>2026-04-30T10:19:36.069Z</time></trkpt><trkpt lat="41.4601646" lon="2.5626949"><ele>0.0</ele><time>2026-04-30T10:19:37.069Z</time></trkpt><trkpt lat="41.460204" lon="2.5628042"><ele>0.0</ele><time>2026-04-30T10:19:38.07Z</time></trkpt><trkpt lat="41.4602492" lon="2.5629051"><ele>0.0</ele><time>2026-04-30T10:19:39.069Z</time></trkpt><trkpt lat="41.4602955" lon="2.5629999"><ele>0.0</ele><time>2026-04-30T10:19:40.069Z</time></trkpt><trkpt lat="41.4603367" lon="2.5630943"><ele>0.0</ele><time>2026-04-30T10:19:41.069Z</time></trkpt><trkpt lat="41.4603765" lon="2.5631979"><ele>0.0</ele><time>2026-04-30T10:19:42.069Z</time></trkpt><trkpt lat="41.4604618" lon="2.5634071"><ele>0.0</ele><time>2026-04-30T10:19:44.07Z</time></trkpt><trkpt lat="41.4605005" lon="2.5635151"><ele>0.0</ele><time>2026-04-30T10:19:45.069Z</time></trkpt><trkpt lat="41.4605377" lon="2.5636196"><ele>0.0</ele><time>2026-04-30T10:19:46.07Z</time></trkpt><trkpt lat="41.4605743" lon="2.5637174"><ele>0.0</ele><time>2026-04-30T10:19:47.069Z</time></trkpt><trkpt lat="41.4606136" lon="2.5638166"><ele>0.0</ele><time>2026-04-30T10:19:48.069Z</time></trkpt><trkpt lat="41.4606492" lon="2.5639198"><ele>0.0</ele><time>2026-04-30T10:19:49.069Z</time></trkpt><trkpt lat="41.46069" lon="2.5640202"><ele>0.0</ele><time>2026-04-30T10:19:50.069Z</time></trkpt><trkpt lat="41.4607247" lon="2.5641203"><ele>0.0</ele><time>2026-04-30T10:19:51.07Z</time></trkpt><trkpt lat="41.4607527" lon="2.5642248"><ele>0.0</ele><time>2026-04-30T10:19:52.07Z</time></trkpt><trkpt lat="41.4607751" lon="2.5643268"><ele>0.0</ele><time>2026-04-30T10:19:53.069Z</time></trkpt><trkpt lat="41.4608095" lon="2.5644284"><ele>0.0</ele><time>2026-04-30T10:19:54.07Z</time></trkpt><trkpt lat="41.4608428" lon="2.564533"><ele>0.0</ele><time>2026-04-30T10:19:55.07Z</time></trkpt><trkpt lat="41.4608833" lon="2.5646398"><ele>0.0</ele><time>2026-04-30T10:19:56.069Z</time></trkpt><trkpt lat="41.4609177" lon="2.5647434"><ele>0.0</ele><time>2026-04-30T10:19:57.069Z</time></trkpt><trkpt lat="41.4609652" lon="2.5648419"><ele>0.0</ele><time>2026-04-30T10:19:58.07Z</time></trkpt><trkpt lat="41.4610194" lon="2.5649418"><ele>0.0</ele><time>2026-04-30T10:19:59.07Z</time></trkpt><trkpt lat="41.4610609" lon="2.5650436"><ele>0.0</ele><time>2026-04-30T10:20:00.069Z</time></trkpt><trkpt lat="41.4611049" lon="2.5651391"><ele>0.0</ele><time>2026-04-30T10:20:01.069Z</time></trkpt><trkpt lat="41.4611434" lon="2.565243"><ele>0.0</ele><time>2026-04-30T10:20:02.069Z</time></trkpt><trkpt lat="41.46118" lon="2.5653467"><ele>0.0</ele><time>2026-04-30T10:20:03.069Z</time></trkpt><trkpt lat="41.4612527" lon="2.5655552"><ele>0.0</ele><time>2026-04-30T10:20:05.069Z</time></trkpt><trkpt lat="41.4612866" lon="2.56566"><ele>0.0</ele><time>2026-04-30T10:20:06.07Z</time></trkpt><trkpt lat="41.4613162" lon="2.5657605"><ele>0.0</ele><time>2026-04-30T10:20:07.07Z</time></trkpt><trkpt lat="41.4613545" lon="2.5658604"><ele>0.0</ele><time>2026-04-30T10:20:08.07Z</time></trkpt><trkpt lat="41.4613877" lon="2.5659616"><ele>0.0</ele><time>2026-04-30T10:20:09.069Z</time></trkpt><trkpt lat="41.4614224" lon="2.5660662"><ele>0.0</ele><time>2026-04-30T10:20:10.07Z</time></trkpt><trkpt lat="41.4614557" lon="2.5661697"><ele>0.0</ele><time>2026-04-30T10:20:11.069Z</time></trkpt><trkpt lat="41.4614938" lon="2.5662732"><ele>0.0</ele><time>2026-04-30T10:20:12.069Z</time></trkpt><trkpt lat="41.4615333" lon="2.5663766"><ele>0.0</ele><time>2026-04-30T10:20:13.07Z</time></trkpt><trkpt lat="41.4615832" lon="2.5664769"><ele>0.0</ele><time>2026-04-30T10:20:14.069Z</time></trkpt><trkpt lat="41.4616375" lon="2.5665771"><ele>0.0</ele><time>2026-04-30T10:20:15.069Z</time></trkpt><trkpt lat="41.4616828" lon="2.5666738"><ele>0.0</ele><time>2026-04-30T10:20:16.07Z</time></trkpt><trkpt lat="41.4617247" lon="2.5667707"><ele>0.0</ele><time>2026-04-30T10:20:17.069Z</time></trkpt><trkpt lat="41.4617669" lon="2.5668687"><ele>0.0</ele><time>2026-04-30T10:20:18.069Z</time></trkpt><trkpt lat="41.461816" lon="2.5669651"><ele>0.0</ele><time>2026-04-30T10:20:19.069Z</time></trkpt><trkpt lat="41.4618541" lon="2.5670703"><ele>0.0</ele><time>2026-04-30T10:20:20.07Z</time></trkpt><trkpt lat="41.4618883" lon="2.567177"><ele>0.0</ele><time>2026-04-30T10:20:21.069Z</time></trkpt><trkpt lat="41.4619284" lon="2.5672783"><ele>0.0</ele><time>2026-04-30T10:20:22.069Z</time></trkpt><trkpt lat="41.4619714" lon="2.5673784"><ele>0.0</ele><time>2026-04-30T10:20:23.069Z</time></trkpt><trkpt lat="41.4620107" lon="2.5674844"><ele>0.0</ele><time>2026-04-30T10:20:24.07Z</time></trkpt><trkpt lat="41.4620872" lon="2.5676912"><ele>0.0</ele><time>2026-04-30T10:20:26.07Z</time></trkpt><trkpt lat="41.4621185" lon="2.5678004"><ele>0.0</ele><time>2026-04-30T10:20:27.07Z</time></trkpt><trkpt lat="41.4621571" lon="2.567906"><ele>0.0</ele><time>2026-04-30T10:20:28.069Z</time></trkpt><trkpt lat="41.4621957" lon="2.5680154"><ele>0.0</ele><time>2026-04-30T10:20:29.069Z</time></trkpt><trkpt lat="41.4622266" lon="2.5681242"><ele>0.0</ele><time>2026-04-30T10:20:30.07Z</time></trkpt><trkpt lat="41.4622625" lon="2.5682265"><ele>0.0</ele><time>2026-04-30T10:20:31.069Z</time></trkpt><trkpt lat="41.4622923" lon="2.5683312"><ele>0.0</ele><time>2026-04-30T10:20:32.069Z</time></trkpt><trkpt lat="41.4623289" lon="2.5684266"><ele>0.0</ele><time>2026-04-30T10:20:33.069Z</time></trkpt><trkpt lat="41.462362" lon="2.5685273"><ele>0.0</ele><time>2026-04-30T10:20:34.069Z</time></trkpt><trkpt lat="41.4623925" lon="2.5686344"><ele>0.0</ele><time>2026-04-30T10:20:35.07Z</time></trkpt><trkpt lat="41.4624182" lon="2.5687471"><ele>0.0</ele><time>2026-04-30T10:20:36.069Z</time></trkpt><trkpt lat="41.4624571" lon="2.5688519"><ele>0.0</ele><time>2026-04-30T10:20:37.069Z</time></trkpt><trkpt lat="41.4625015" lon="2.5689566"><ele>0.0</ele><time>2026-04-30T10:20:38.07Z</time></trkpt><trkpt lat="41.4625441" lon="2.5690557"><ele>0.0</ele><time>2026-04-30T10:20:39.069Z</time></trkpt><trkpt lat="41.4625845" lon="2.5691541"><ele>0.0</ele><time>2026-04-30T10:20:40.07Z</time></trkpt><trkpt lat="41.4626262" lon="2.5692551"><ele>0.0</ele><time>2026-04-30T10:20:41.07Z</time></trkpt><trkpt lat="41.4626733" lon="2.5693569"><ele>0.0</ele><time>2026-04-30T10:20:42.07Z</time></trkpt><trkpt lat="41.4627188" lon="2.5694584"><ele>0.0</ele><time>2026-04-30T10:20:43.069Z</time></trkpt><trkpt lat="41.4627594" lon="2.5695656"><ele>0.0</ele><time>2026-04-30T10:20:44.069Z</time></trkpt><trkpt lat="41.4627997" lon="2.5696669"><ele>0.0</ele><time>2026-04-30T10:20:45.07Z</time></trkpt><trkpt lat="41.4628921" lon="2.5698658"><ele>0.0</ele><time>2026-04-30T10:20:47.069Z</time></trkpt><trkpt lat="41.4629329" lon="2.5699686"><ele>0.0</ele><time>2026-04-30T10:20:48.07Z</time></trkpt><trkpt lat="41.4629633" lon="2.5700718"><ele>0.0</ele><time>2026-04-30T10:20:49.07Z</time></trkpt><trkpt lat="41.4630032" lon="2.5701763"><ele>0.0</ele><time>2026-04-30T10:20:50.069Z</time></trkpt><trkpt lat="41.4630422" lon="2.5702767"><ele>0.0</ele><time>2026-04-30T10:20:51.07Z</time></trkpt><trkpt lat="41.4630721" lon="2.5703781"><ele>0.0</ele><time>2026-04-30T10:20:52.07Z</time></trkpt><trkpt lat="41.4631045" lon="2.57048"><ele>0.0</ele><time>2026-04-30T10:20:53.069Z</time></trkpt><trkpt lat="41.4631393" lon="2.5705901"><ele>0.0</ele><time>2026-04-30T10:20:54.069Z</time></trkpt><trkpt lat="41.4631839" lon="2.5706887"><ele>0.0</ele><time>2026-04-30T10:20:55.068Z</time></trkpt><trkpt lat="41.4632292" lon="2.5707925"><ele>0.0</ele><time>2026-04-30T10:20:56.069Z</time></trkpt><trkpt lat="41.4632713" lon="2.5708919"><ele>0.0</ele><time>2026-04-30T10:20:57.068Z</time></trkpt><trkpt lat="41.4633173" lon="2.5709905"><ele>0.0</ele><time>2026-04-30T10:20:58.069Z</time></trkpt><trkpt lat="41.4633598" lon="2.5710929"><ele>0.0</ele><time>2026-04-30T10:20:59.068Z</time></trkpt><trkpt lat="41.4634015" lon="2.5711934"><ele>0.0</ele><time>2026-04-30T10:21:00.069Z</time></trkpt><trkpt lat="41.4634473" lon="2.5712893"><ele>0.0</ele><time>2026-04-30T10:21:01.068Z</time></trkpt><trkpt lat="41.4634884" lon="2.5713913"><ele>0.0</ele><time>2026-04-30T10:21:02.069Z</time></trkpt><trkpt lat="41.4635348" lon="2.571493"><ele>0.0</ele><time>2026-04-30T10:21:03.068Z</time></trkpt><trkpt lat="41.4635731" lon="2.5715974"><ele>0.0</ele><time>2026-04-30T10:21:04.069Z</time></trkpt><trkpt lat="41.4636179" lon="2.5716971"><ele>0.0</ele><time>2026-04-30T10:21:05.069Z</time></trkpt><trkpt lat="41.4636558" lon="2.5718041"><ele>0.0</ele><time>2026-04-30T10:21:06.068Z</time></trkpt><trkpt lat="41.4637288" lon="2.5720116"><ele>0.0</ele><time>2026-04-30T10:21:08.068Z</time></trkpt><trkpt lat="41.4637635" lon="2.5721134"><ele>0.0</ele><time>2026-04-30T10:21:09.068Z</time></trkpt><trkpt lat="41.4638029" lon="2.5722108"><ele>0.0</ele><time>2026-04-30T10:21:10.069Z</time></trkpt><trkpt lat="41.4638513" lon="2.5723035"><ele>0.0</ele><time>2026-04-30T10:21:11.069Z</time></trkpt><trkpt lat="41.4639016" lon="2.5724033"><ele>0.0</ele><time>2026-04-30T10:21:12.068Z</time></trkpt><trkpt lat="41.4639518" lon="2.5725029"><ele>0.0</ele><time>2026-04-30T10:21:13.069Z</time></trkpt><trkpt lat="41.4640048" lon="2.5726016"><ele>0.0</ele><time>2026-04-30T10:21:14.069Z</time></trkpt><trkpt lat="41.4640543" lon="2.5727022"><ele>0.0</ele><time>2026-04-30T10:21:15.068Z</time></trkpt><trkpt lat="41.4640985" lon="2.5728031"><ele>0.0</ele><time>2026-04-30T10:21:16.068Z</time></trkpt><trkpt lat="41.4641409" lon="2.5729044"><ele>0.0</ele><time>2026-04-30T10:21:17.069Z</time></trkpt><trkpt lat="41.4641808" lon="2.5730061"><ele>0.0</ele><time>2026-04-30T10:21:18.069Z</time></trkpt><trkpt lat="41.464218" lon="2.5731091"><ele>0.0</ele><time>2026-04-30T10:21:19.069Z</time></trkpt><trkpt lat="41.4642542" lon="2.5732144"><ele>0.0</ele><time>2026-04-30T10:21:20.069Z</time></trkpt><trkpt lat="41.4642938" lon="2.5733167"><ele>0.0</ele><time>2026-04-30T10:21:21.068Z</time></trkpt><trkpt lat="41.4643338" lon="2.5734195"><ele>0.0</ele><time>2026-04-30T10:21:22.068Z</time></trkpt><trkpt lat="41.4643724" lon="2.5735201"><ele>0.0</ele><time>2026-04-30T10:21:23.068Z</time></trkpt><trkpt lat="41.464412" lon="2.5736185"><ele>0.0</ele><time>2026-04-30T10:21:24.069Z</time></trkpt><trkpt lat="41.4644507" lon="2.573721"><ele>0.0</ele><time>2026-04-30T10:21:25.068Z</time></trkpt><trkpt lat="41.4644944" lon="2.5738246"><ele>0.0</ele><time>2026-04-30T10:21:26.069Z</time></trkpt><trkpt lat="41.4645424" lon="2.5739292"><ele>0.0</ele><time>2026-04-30T10:21:27.068Z</time></trkpt><trkpt lat="41.4646279" lon="2.5741289"><ele>0.0</ele><time>2026-04-30T10:21:29.068Z</time></trkpt><trkpt lat="41.4646652" lon="2.5742314"><ele>0.0</ele><time>2026-04-30T10:21:30.068Z</time></trkpt><trkpt lat="41.4647024" lon="2.5743322"><ele>0.0</ele><time>2026-04-30T10:21:31.068Z</time></trkpt><trkpt lat="41.4647474" lon="2.5744389"><ele>0.0</ele><time>2026-04-30T10:21:32.068Z</time></trkpt><trkpt lat="41.4647853" lon="2.5745404"><ele>0.0</ele><time>2026-04-30T10:21:33.069Z</time></trkpt><trkpt lat="41.4648651" lon="2.5747526"><ele>0.0</ele><time>2026-04-30T10:21:35.069Z</time></trkpt><trkpt lat="41.464911" lon="2.5748521"><ele>0.0</ele><time>2026-04-30T10:21:36.068Z</time></trkpt><trkpt lat="41.4649502" lon="2.5749533"><ele>0.0</ele><time>2026-04-30T10:21:37.068Z</time></trkpt><trkpt lat="41.4649915" lon="2.5750578"><ele>0.0</ele><time>2026-04-30T10:21:38.069Z</time></trkpt><trkpt lat="41.4650359" lon="2.5751632"><ele>0.0</ele><time>2026-04-30T10:21:39.069Z</time></trkpt><trkpt lat="41.4650767" lon="2.5752651"><ele>0.0</ele><time>2026-04-30T10:21:40.068Z</time></trkpt><trkpt lat="41.4651212" lon="2.5753665"><ele>0.0</ele><time>2026-04-30T10:21:41.069Z</time></trkpt><trkpt lat="41.465166" lon="2.5754666"><ele>0.0</ele><time>2026-04-30T10:21:42.069Z</time></trkpt><trkpt lat="41.4652069" lon="2.5755682"><ele>0.0</ele><time>2026-04-30T10:21:43.069Z</time></trkpt><trkpt lat="41.4652325" lon="2.5756673"><ele>0.0</ele><time>2026-04-30T10:21:44.069Z</time></trkpt><trkpt lat="41.4652601" lon="2.575763"><ele>0.0</ele><time>2026-04-30T10:21:45.068Z</time></trkpt><trkpt lat="41.4653" lon="2.5758676"><ele>0.0</ele><time>2026-04-30T10:21:46.068Z</time></trkpt><trkpt lat="41.4653359" lon="2.5759785"><ele>0.0</ele><time>2026-04-30T10:21:47.069Z</time></trkpt><trkpt lat="41.4653823" lon="2.5760816"><ele>0.0</ele><time>2026-04-30T10:21:48.068Z</time></trkpt><trkpt lat="41.4654425" lon="2.5762927"><ele>0.0</ele><time>2026-04-30T10:21:50.068Z</time></trkpt><trkpt lat="41.4654774" lon="2.5763905"><ele>0.0</ele><time>2026-04-30T10:21:51.068Z</time></trkpt><trkpt lat="41.4655042" lon="2.5764947"><ele>0.0</ele><time>2026-04-30T10:21:52.069Z</time></trkpt><trkpt lat="41.4655322" lon="2.5765928"><ele>0.0</ele><time>2026-04-30T10:21:53.069Z</time></trkpt><trkpt lat="41.465559" lon="2.5766937"><ele>0.0</ele><time>2026-04-30T10:21:54.069Z</time></trkpt><trkpt lat="41.4655966" lon="2.5767894"><ele>0.0</ele><time>2026-04-30T10:21:55.068Z</time></trkpt><trkpt lat="41.4656306" lon="2.5768896"><ele>0.0</ele><time>2026-04-30T10:21:56.068Z</time></trkpt><trkpt lat="41.4656713" lon="2.5769928"><ele>0.0</ele><time>2026-04-30T10:21:57.069Z</time></trkpt><trkpt lat="41.4657057" lon="2.5770975"><ele>0.0</ele><time>2026-04-30T10:21:58.069Z</time></trkpt><trkpt lat="41.4657393" lon="2.5772085"><ele>0.0</ele><time>2026-04-30T10:21:59.069Z</time></trkpt><trkpt lat="41.4657711" lon="2.5773202"><ele>0.0</ele><time>2026-04-30T10:22:00.068Z</time></trkpt><trkpt lat="41.4657998" lon="2.5774287"><ele>0.0</ele><time>2026-04-30T10:22:01.068Z</time></trkpt><trkpt lat="41.4658296" lon="2.57753"><ele>0.0</ele><time>2026-04-30T10:22:02.068Z</time></trkpt><trkpt lat="41.4658779" lon="2.5776287"><ele>0.0</ele><time>2026-04-30T10:22:03.068Z</time></trkpt><trkpt lat="41.4659233" lon="2.5777255"><ele>0.0</ele><time>2026-04-30T10:22:04.069Z</time></trkpt><trkpt lat="41.4659658" lon="2.5778269"><ele>0.0</ele><time>2026-04-30T10:22:05.068Z</time></trkpt><trkpt lat="41.4660115" lon="2.577927"><ele>0.0</ele><time>2026-04-30T10:22:06.069Z</time></trkpt><trkpt lat="41.4660591" lon="2.5780266"><ele>0.0</ele><time>2026-04-30T10:22:07.069Z</time></trkpt><trkpt lat="41.4661018" lon="2.5781219"><ele>0.0</ele><time>2026-04-30T10:22:08.068Z</time></trkpt><trkpt lat="41.4661844" lon="2.5783322"><ele>0.0</ele><time>2026-04-30T10:22:10.069Z</time></trkpt><trkpt lat="41.4662234" lon="2.5784332"><ele>0.0</ele><time>2026-04-30T10:22:11.068Z</time></trkpt><trkpt lat="41.4662601" lon="2.578535"><ele>0.0</ele><time>2026-04-30T10:22:12.068Z</time></trkpt><trkpt lat="41.4662968" lon="2.5786381"><ele>0.0</ele><time>2026-04-30T10:22:13.068Z</time></trkpt><trkpt lat="41.4663331" lon="2.5787462"><ele>0.0</ele><time>2026-04-30T10:22:14.069Z</time></trkpt><trkpt lat="41.4663729" lon="2.5788542"><ele>0.0</ele><time>2026-04-30T10:22:15.069Z</time></trkpt><trkpt lat="41.4664188" lon="2.5789567"><ele>0.0</ele><time>2026-04-30T10:22:16.069Z</time></trkpt><trkpt lat="41.4664582" lon="2.5790611"><ele>0.0</ele><time>2026-04-30T10:22:17.068Z</time></trkpt><trkpt lat="41.4665083" lon="2.5791578"><ele>0.0</ele><time>2026-04-30T10:22:18.068Z</time></trkpt><trkpt lat="41.4665555" lon="2.5792516"><ele>0.0</ele><time>2026-04-30T10:22:19.069Z</time></trkpt><trkpt lat="41.4665983" lon="2.5793436"><ele>0.0</ele><time>2026-04-30T10:22:20.068Z</time></trkpt><trkpt lat="41.466629" lon="2.5794506"><ele>0.0</ele><time>2026-04-30T10:22:21.068Z</time></trkpt><trkpt lat="41.4666741" lon="2.5795459"><ele>0.0</ele><time>2026-04-30T10:22:22.068Z</time></trkpt><trkpt lat="41.4667179" lon="2.5796452"><ele>0.0</ele><time>2026-04-30T10:22:23.069Z</time></trkpt><trkpt lat="41.4667598" lon="2.579751"><ele>0.0</ele><time>2026-04-30T10:22:24.068Z</time></trkpt><trkpt lat="41.4667987" lon="2.5798577"><ele>0.0</ele><time>2026-04-30T10:22:25.068Z</time></trkpt><trkpt lat="41.4668414" lon="2.5799643"><ele>0.0</ele><time>2026-04-30T10:22:26.069Z</time></trkpt><trkpt lat="41.4668777" lon="2.5800622"><ele>0.0</ele><time>2026-04-30T10:22:27.068Z</time></trkpt><trkpt lat="41.4669183" lon="2.580162"><ele>0.0</ele><time>2026-04-30T10:22:28.068Z</time></trkpt><trkpt lat="41.4669597" lon="2.5802589"><ele>0.0</ele><time>2026-04-30T10:22:29.069Z</time></trkpt><trkpt lat="41.4670333" lon="2.5804548"><ele>0.0</ele><time>2026-04-30T10:22:31.068Z</time></trkpt><trkpt lat="41.4670732" lon="2.5805539"><ele>0.0</ele><time>2026-04-30T10:22:32.069Z</time></trkpt><trkpt lat="41.4671175" lon="2.580653"><ele>0.0</ele><time>2026-04-30T10:22:33.069Z</time></trkpt><trkpt lat="41.4671611" lon="2.5807562"><ele>0.0</ele><time>2026-04-30T10:22:34.068Z</time></trkpt><trkpt lat="41.467209" lon="2.580857"><ele>0.0</ele><time>2026-04-30T10:22:35.068Z</time></trkpt><trkpt lat="41.4672457" lon="2.5809584"><ele>0.0</ele><time>2026-04-30T10:22:36.069Z</time></trkpt><trkpt lat="41.4672882" lon="2.5810604"><ele>0.0</ele><time>2026-04-30T10:22:37.068Z</time></trkpt><trkpt lat="41.4673302" lon="2.5811628"><ele>0.0</ele><time>2026-04-30T10:22:38.069Z</time></trkpt><trkpt lat="41.4673741" lon="2.581267"><ele>0.0</ele><time>2026-04-30T10:22:39.069Z</time></trkpt><trkpt lat="41.4674195" lon="2.5813769"><ele>0.0</ele><time>2026-04-30T10:22:40.068Z</time></trkpt><trkpt lat="41.4674615" lon="2.5814827"><ele>0.0</ele><time>2026-04-30T10:22:41.068Z</time></trkpt><trkpt lat="41.4675014" lon="2.5815875"><ele>0.0</ele><time>2026-04-30T10:22:42.069Z</time></trkpt><trkpt lat="41.4675415" lon="2.5816914"><ele>0.0</ele><time>2026-04-30T10:22:43.068Z</time></trkpt><trkpt lat="41.4675788" lon="2.5817978"><ele>0.0</ele><time>2026-04-30T10:22:44.068Z</time></trkpt><trkpt lat="41.4676186" lon="2.5818981"><ele>0.0</ele><time>2026-04-30T10:22:45.068Z</time></trkpt><trkpt lat="41.4676531" lon="2.5819985"><ele>0.0</ele><time>2026-04-30T10:22:46.069Z</time></trkpt><trkpt lat="41.4676833" lon="2.5820968"><ele>0.0</ele><time>2026-04-30T10:22:47.069Z</time></trkpt><trkpt lat="41.4677141" lon="2.582196"><ele>0.0</ele><time>2026-04-30T10:22:48.068Z</time></trkpt><trkpt lat="41.467748" lon="2.5823017"><ele>0.0</ele><time>2026-04-30T10:22:49.069Z</time></trkpt><trkpt lat="41.4677857" lon="2.5824068"><ele>0.0</ele><time>2026-04-30T10:22:50.068Z</time></trkpt><trkpt lat="41.4678729" lon="2.5826052"><ele>0.0</ele><time>2026-04-30T10:22:52.068Z</time></trkpt><trkpt lat="41.4679142" lon="2.5827095"><ele>0.0</ele><time>2026-04-30T10:22:53.069Z</time></trkpt><trkpt lat="41.4679478" lon="2.5828165"><ele>0.0</ele><time>2026-04-30T10:22:54.069Z</time></trkpt><trkpt lat="41.4679812" lon="2.5829217"><ele>0.0</ele><time>2026-04-30T10:22:55.068Z</time></trkpt><trkpt lat="41.4680132" lon="2.583025"><ele>0.0</ele><time>2026-04-30T10:22:56.069Z</time></trkpt><trkpt lat="41.4680607" lon="2.5831271"><ele>0.0</ele><time>2026-04-30T10:22:57.069Z</time></trkpt><trkpt lat="41.4681095" lon="2.5832317"><ele>0.0</ele><time>2026-04-30T10:22:58.068Z</time></trkpt><trkpt lat="41.4681512" lon="2.5833333"><ele>0.0</ele><time>2026-04-30T10:22:59.069Z</time></trkpt><trkpt lat="41.4681976" lon="2.5834308"><ele>0.0</ele><time>2026-04-30T10:23:00.068Z</time></trkpt><trkpt lat="41.468244" lon="2.5835242"><ele>0.0</ele><time>2026-04-30T10:23:01.068Z</time></trkpt><trkpt lat="41.4682835" lon="2.5836218"><ele>0.0</ele><time>2026-04-30T10:23:02.069Z</time></trkpt><trkpt lat="41.4683165" lon="2.583725"><ele>0.0</ele><time>2026-04-30T10:23:03.068Z</time></trkpt><trkpt lat="41.4683593" lon="2.5838281"><ele>0.0</ele><time>2026-04-30T10:23:04.069Z</time></trkpt><trkpt lat="41.4683965" lon="2.5839344"><ele>0.0</ele><time>2026-04-30T10:23:05.068Z</time></trkpt><trkpt lat="41.4684332" lon="2.5840411"><ele>0.0</ele><time>2026-04-30T10:23:06.069Z</time></trkpt><trkpt lat="41.468464" lon="2.5841434"><ele>0.0</ele><time>2026-04-30T10:23:07.069Z</time></trkpt><trkpt lat="41.4685025" lon="2.5842449"><ele>0.0</ele><time>2026-04-30T10:23:08.068Z</time></trkpt><trkpt lat="41.4685376" lon="2.5843479"><ele>0.0</ele><time>2026-04-30T10:23:09.068Z</time></trkpt><trkpt lat="41.4685722" lon="2.58445"><ele>0.0</ele><time>2026-04-30T10:23:10.068Z</time></trkpt><trkpt lat="41.4685976" lon="2.5845571"><ele>0.0</ele><time>2026-04-30T10:23:11.068Z</time></trkpt><trkpt lat="41.4686509" lon="2.584766"><ele>0.0</ele><time>2026-04-30T10:23:13.068Z</time></trkpt><trkpt lat="41.4686867" lon="2.584867"><ele>0.0</ele><time>2026-04-30T10:23:14.069Z</time></trkpt><trkpt lat="41.4687289" lon="2.5849617"><ele>0.0</ele><time>2026-04-30T10:23:15.069Z</time></trkpt><trkpt lat="41.4687712" lon="2.5850551"><ele>0.0</ele><time>2026-04-30T10:23:16.069Z</time></trkpt><trkpt lat="41.4688309" lon="2.5851482"><ele>0.0</ele><time>2026-04-30T10:23:17.068Z</time></trkpt><trkpt lat="41.4688899" lon="2.5852457"><ele>0.0</ele><time>2026-04-30T10:23:18.068Z</time></trkpt><trkpt lat="41.4689345" lon="2.5853419"><ele>0.0</ele><time>2026-04-30T10:23:19.069Z</time></trkpt><trkpt lat="41.4689764" lon="2.5854431"><ele>0.0</ele><time>2026-04-30T10:23:20.069Z</time></trkpt><trkpt lat="41.4690207" lon="2.5855471"><ele>0.0</ele><time>2026-04-30T10:23:21.068Z</time></trkpt><trkpt lat="41.4690857" lon="2.5856437"><ele>0.0</ele><time>2026-04-30T10:23:22.069Z</time></trkpt><trkpt lat="41.4691528" lon="2.5857421"><ele>0.0</ele><time>2026-04-30T10:23:23.068Z</time></trkpt><trkpt lat="41.4691928" lon="2.5858421"><ele>0.0</ele><time>2026-04-30T10:23:24.068Z</time></trkpt><trkpt lat="41.4692284" lon="2.5859446"><ele>0.0</ele><time>2026-04-30T10:23:25.069Z</time></trkpt><trkpt lat="41.4692459" lon="2.5860538"><ele>0.0</ele><time>2026-04-30T10:23:26.068Z</time></trkpt><trkpt lat="41.4692649" lon="2.5861582"><ele>0.0</ele><time>2026-04-30T10:23:27.068Z</time></trkpt><trkpt lat="41.4692929" lon="2.5862632"><ele>0.0</ele><time>2026-04-30T10:23:28.069Z</time></trkpt><trkpt lat="41.4693211" lon="2.5863736"><ele>0.0</ele><time>2026-04-30T10:23:29.068Z</time></trkpt><trkpt lat="41.4693625" lon="2.5864779"><ele>0.0</ele><time>2026-04-30T10:23:30.069Z</time></trkpt><trkpt lat="41.4694019" lon="2.5865758"><ele>0.0</ele><time>2026-04-30T10:23:31.069Z</time></trkpt><trkpt lat="41.469443" lon="2.586684"><ele>0.0</ele><time>2026-04-30T10:23:32.069Z</time></trkpt><trkpt lat="41.4695299" lon="2.5868912"><ele>0.0</ele><time>2026-04-30T10:23:34.068Z</time></trkpt><trkpt lat="41.4695701" lon="2.5869899"><ele>0.0</ele><time>2026-04-30T10:23:35.068Z</time></trkpt><trkpt lat="41.4696189" lon="2.5870912"><ele>0.0</ele><time>2026-04-30T10:23:36.068Z</time></trkpt><trkpt lat="41.4696644" lon="2.5871999"><ele>0.0</ele><time>2026-04-30T10:23:37.069Z</time></trkpt><trkpt lat="41.4697049" lon="2.5873076"><ele>0.0</ele><time>2026-04-30T10:23:38.068Z</time></trkpt><trkpt lat="41.4697454" lon="2.5874159"><ele>0.0</ele><time>2026-04-30T10:23:39.068Z</time></trkpt><trkpt lat="41.4697923" lon="2.5875158"><ele>0.0</ele><time>2026-04-30T10:23:40.068Z</time></trkpt><trkpt lat="41.469843" lon="2.5876143"><ele>0.0</ele><time>2026-04-30T10:23:41.069Z</time></trkpt><trkpt lat="41.4698958" lon="2.5877153"><ele>0.0</ele><time>2026-04-30T10:23:42.068Z</time></trkpt><trkpt lat="41.4699379" lon="2.58782"><ele>0.0</ele><time>2026-04-30T10:23:43.068Z</time></trkpt><trkpt lat="41.4699839" lon="2.5879164"><ele>0.0</ele><time>2026-04-30T10:23:44.069Z</time></trkpt><trkpt lat="41.4700258" lon="2.5880168"><ele>0.0</ele><time>2026-04-30T10:23:45.068Z</time></trkpt><trkpt lat="41.4700591" lon="2.58812"><ele>0.0</ele><time>2026-04-30T10:23:46.069Z</time></trkpt><trkpt lat="41.4700904" lon="2.5882266"><ele>0.0</ele><time>2026-04-30T10:23:47.068Z</time></trkpt><trkpt lat="41.470126" lon="2.5883323"><ele>0.0</ele><time>2026-04-30T10:23:48.068Z</time></trkpt><trkpt lat="41.4701617" lon="2.58843"><ele>0.0</ele><time>2026-04-30T10:23:49.068Z</time></trkpt><trkpt lat="41.470198" lon="2.5885306"><ele>0.0</ele><time>2026-04-30T10:23:50.069Z</time></trkpt><trkpt lat="41.4702378" lon="2.5886352"><ele>0.0</ele><time>2026-04-30T10:23:51.069Z</time></trkpt><trkpt lat="41.4702692" lon="2.5887357"><ele>0.0</ele><time>2026-04-30T10:23:52.068Z</time></trkpt><trkpt lat="41.4703032" lon="2.588833"><ele>0.0</ele><time>2026-04-30T10:23:53.068Z</time></trkpt><trkpt lat="41.4703878" lon="2.5890278"><ele>0.0</ele><time>2026-04-30T10:23:55.069Z</time></trkpt><trkpt lat="41.4704173" lon="2.5891351"><ele>0.0</ele><time>2026-04-30T10:23:56.068Z</time></trkpt><trkpt lat="41.4704516" lon="2.5892364"><ele>0.0</ele><time>2026-04-30T10:23:57.068Z</time></trkpt><trkpt lat="41.4704908" lon="2.5893396"><ele>0.0</ele><time>2026-04-30T10:23:58.069Z</time></trkpt><trkpt lat="41.4705289" lon="2.5894413"><ele>0.0</ele><time>2026-04-30T10:23:59.068Z</time></trkpt><trkpt lat="41.470581" lon="2.5895372"><ele>0.0</ele><time>2026-04-30T10:24:00.069Z</time></trkpt><trkpt lat="41.4706338" lon="2.5896366"><ele>0.0</ele><time>2026-04-30T10:24:01.068Z</time></trkpt><trkpt lat="41.4706834" lon="2.5897384"><ele>0.0</ele><time>2026-04-30T10:24:02.069Z</time></trkpt><trkpt lat="41.4707291" lon="2.589834"><ele>0.0</ele><time>2026-04-30T10:24:03.068Z</time></trkpt><trkpt lat="41.4707756" lon="2.5899305"><ele>0.0</ele><time>2026-04-30T10:24:04.069Z</time></trkpt><trkpt lat="41.4708173" lon="2.59003"><ele>0.0</ele><time>2026-04-30T10:24:05.068Z</time></trkpt><trkpt lat="41.4708556" lon="2.5901299"><ele>0.0</ele><time>2026-04-30T10:24:06.069Z</time></trkpt><trkpt lat="41.4708894" lon="2.5902413"><ele>0.0</ele><time>2026-04-30T10:24:07.069Z</time></trkpt><trkpt lat="41.47092" lon="2.5903577"><ele>0.0</ele><time>2026-04-30T10:24:08.069Z</time></trkpt><trkpt lat="41.4709462" lon="2.5904642"><ele>0.0</ele><time>2026-04-30T10:24:09.068Z</time></trkpt><trkpt lat="41.4709706" lon="2.5905742"><ele>0.0</ele><time>2026-04-30T10:24:10.068Z</time></trkpt><trkpt lat="41.4710001" lon="2.5906797"><ele>0.0</ele><time>2026-04-30T10:24:11.068Z</time></trkpt><trkpt lat="41.4710327" lon="2.5907834"><ele>0.0</ele><time>2026-04-30T10:24:12.068Z</time></trkpt><trkpt lat="41.4710675" lon="2.590888"><ele>0.0</ele><time>2026-04-30T10:24:13.069Z</time></trkpt><trkpt lat="41.4711009" lon="2.5909912"><ele>0.0</ele><time>2026-04-30T10:24:14.068Z</time></trkpt><trkpt lat="41.4711787" lon="2.5911967"><ele>0.0</ele><time>2026-04-30T10:24:16.068Z</time></trkpt><trkpt lat="41.4712162" lon="2.5912934"><ele>0.0</ele><time>2026-04-30T10:24:17.068Z</time></trkpt><trkpt lat="41.4712537" lon="2.5913925"><ele>0.0</ele><time>2026-04-30T10:24:18.068Z</time></trkpt><trkpt lat="41.471289" lon="2.5914922"><ele>0.0</ele><time>2026-04-30T10:24:19.068Z</time></trkpt><trkpt lat="41.4713223" lon="2.591591"><ele>0.0</ele><time>2026-04-30T10:24:20.069Z</time></trkpt><trkpt lat="41.4713554" lon="2.5916945"><ele>0.0</ele><time>2026-04-30T10:24:21.068Z</time></trkpt><trkpt lat="41.4713804" lon="2.591811"><ele>0.0</ele><time>2026-04-30T10:24:22.068Z</time></trkpt><trkpt lat="41.471414" lon="2.5919163"><ele>0.0</ele><time>2026-04-30T10:24:23.068Z</time></trkpt><trkpt lat="41.4714518" lon="2.5920272"><ele>0.0</ele><time>2026-04-30T10:24:24.068Z</time></trkpt><trkpt lat="41.4714899" lon="2.5921313"><ele>0.0</ele><time>2026-04-30T10:24:25.069Z</time></trkpt><trkpt lat="41.4715271" lon="2.5922363"><ele>0.0</ele><time>2026-04-30T10:24:26.068Z</time></trkpt><trkpt lat="41.4715705" lon="2.5923401"><ele>0.0</ele><time>2026-04-30T10:24:27.069Z</time></trkpt><trkpt lat="41.4716041" lon="2.5924391"><ele>0.0</ele><time>2026-04-30T10:24:28.068Z</time></trkpt><trkpt lat="41.4716375" lon="2.5925376"><ele>0.0</ele><time>2026-04-30T10:24:29.068Z</time></trkpt><trkpt lat="41.4716778" lon="2.5926357"><ele>0.0</ele><time>2026-04-30T10:24:30.069Z</time></trkpt><trkpt lat="41.4717156" lon="2.5927413"><ele>0.0</ele><time>2026-04-30T10:24:31.068Z</time></trkpt><trkpt lat="41.4717591" lon="2.592843"><ele>0.0</ele><time>2026-04-30T10:24:32.069Z</time></trkpt><trkpt lat="41.4718133" lon="2.5929433"><ele>0.0</ele><time>2026-04-30T10:24:33.069Z</time></trkpt><trkpt lat="41.4718582" lon="2.5930415"><ele>0.0</ele><time>2026-04-30T10:24:34.068Z</time></trkpt><trkpt lat="41.4719018" lon="2.5931406"><ele>0.0</ele><time>2026-04-30T10:24:35.068Z</time></trkpt><trkpt lat="41.4719725" lon="2.5933449"><ele>0.0</ele><time>2026-04-30T10:24:37.068Z</time></trkpt><trkpt lat="41.4720176" lon="2.5934549"><ele>0.0</ele><time>2026-04-30T10:24:38.068Z</time></trkpt><trkpt lat="41.4720555" lon="2.593561"><ele>0.0</ele><time>2026-04-30T10:24:39.069Z</time></trkpt><trkpt lat="41.4720865" lon="2.5936676"><ele>0.0</ele><time>2026-04-30T10:24:40.068Z</time></trkpt><trkpt lat="41.4721235" lon="2.5937773"><ele>0.0</ele><time>2026-04-30T10:24:41.068Z</time></trkpt><trkpt lat="41.4721506" lon="2.5938858"><ele>0.0</ele><time>2026-04-30T10:24:42.068Z</time></trkpt><trkpt lat="41.4721883" lon="2.59399"><ele>0.0</ele><time>2026-04-30T10:24:43.069Z</time></trkpt><trkpt lat="41.4722236" lon="2.5940916"><ele>0.0</ele><time>2026-04-30T10:24:44.068Z</time></trkpt><trkpt lat="41.4722592" lon="2.5941975"><ele>0.0</ele><time>2026-04-30T10:24:45.068Z</time></trkpt><trkpt lat="41.4723011" lon="2.5942941"><ele>0.0</ele><time>2026-04-30T10:24:46.068Z</time></trkpt><trkpt lat="41.4723433" lon="2.5943936"><ele>0.0</ele><time>2026-04-30T10:24:47.069Z</time></trkpt><trkpt lat="41.472382" lon="2.5944893"><ele>0.0</ele><time>2026-04-30T10:24:48.068Z</time></trkpt><trkpt lat="41.4724269" lon="2.5945944"><ele>0.0</ele><time>2026-04-30T10:24:49.068Z</time></trkpt><trkpt lat="41.4724713" lon="2.5946981"><ele>0.0</ele><time>2026-04-30T10:24:50.068Z</time></trkpt><trkpt lat="41.4725176" lon="2.5948001"><ele>0.0</ele><time>2026-04-30T10:24:51.068Z</time></trkpt><trkpt lat="41.4725608" lon="2.5949133"><ele>0.0</ele><time>2026-04-30T10:24:52.069Z</time></trkpt><trkpt lat="41.4726042" lon="2.595022"><ele>0.0</ele><time>2026-04-30T10:24:53.069Z</time></trkpt><trkpt lat="41.472649" lon="2.595118"><ele>0.0</ele><time>2026-04-30T10:24:54.069Z</time></trkpt><trkpt lat="41.4726925" lon="2.5952158"><ele>0.0</ele><time>2026-04-30T10:24:55.068Z</time></trkpt><trkpt lat="41.4727359" lon="2.5953127"><ele>0.0</ele><time>2026-04-30T10:24:56.068Z</time></trkpt><trkpt lat="41.472818" lon="2.5955165"><ele>0.0</ele><time>2026-04-30T10:24:58.068Z</time></trkpt><trkpt lat="41.4728597" lon="2.5956197"><ele>0.0</ele><time>2026-04-30T10:24:59.068Z</time></trkpt><trkpt lat="41.4728969" lon="2.59572"><ele>0.0</ele><time>2026-04-30T10:25:00.068Z</time></trkpt><trkpt lat="41.4729363" lon="2.5958158"><ele>0.0</ele><time>2026-04-30T10:25:01.069Z</time></trkpt><trkpt lat="41.4729849" lon="2.5959105"><ele>0.0</ele><time>2026-04-30T10:25:02.068Z</time></trkpt><trkpt lat="41.4730281" lon="2.5960117"><ele>0.0</ele><time>2026-04-30T10:25:03.069Z</time></trkpt><trkpt lat="41.4730718" lon="2.5961134"><ele>0.0</ele><time>2026-04-30T10:25:04.069Z</time></trkpt><trkpt lat="41.4731135" lon="2.5962137"><ele>0.0</ele><time>2026-04-30T10:25:05.068Z</time></trkpt><trkpt lat="41.4731448" lon="2.5963189"><ele>0.0</ele><time>2026-04-30T10:25:06.068Z</time></trkpt><trkpt lat="41.473175" lon="2.5964283"><ele>0.0</ele><time>2026-04-30T10:25:07.069Z</time></trkpt><trkpt lat="41.4732088" lon="2.596534"><ele>0.0</ele><time>2026-04-30T10:25:08.069Z</time></trkpt><trkpt lat="41.473247" lon="2.5966382"><ele>0.0</ele><time>2026-04-30T10:25:09.068Z</time></trkpt><trkpt lat="41.4732883" lon="2.5967412"><ele>0.0</ele><time>2026-04-30T10:25:10.068Z</time></trkpt><trkpt lat="41.4733255" lon="2.5968403"><ele>0.0</ele><time>2026-04-30T10:25:11.069Z</time></trkpt><trkpt lat="41.4733608" lon="2.596942"><ele>0.0</ele><time>2026-04-30T10:25:12.068Z</time></trkpt><trkpt lat="41.4733973" lon="2.5970375"><ele>0.0</ele><time>2026-04-30T10:25:13.069Z</time></trkpt><trkpt lat="41.4734313" lon="2.5971331"><ele>0.0</ele><time>2026-04-30T10:25:14.068Z</time></trkpt><trkpt lat="41.4734746" lon="2.5972409"><ele>0.0</ele><time>2026-04-30T10:25:15.068Z</time></trkpt><trkpt lat="41.4735168" lon="2.5973434"><ele>0.0</ele><time>2026-04-30T10:25:16.068Z</time></trkpt><trkpt lat="41.4736396" lon="2.597651"><ele>0.0</ele><time>2026-04-30T10:25:19.068Z</time></trkpt><trkpt lat="41.4736829" lon="2.5977544"><ele>0.0</ele><time>2026-04-30T10:25:20.068Z</time></trkpt><trkpt lat="41.4737236" lon="2.5978601"><ele>0.0</ele><time>2026-04-30T10:25:21.068Z</time></trkpt><trkpt lat="41.4737706" lon="2.5979717"><ele>0.0</ele><time>2026-04-30T10:25:22.069Z</time></trkpt><trkpt lat="41.4738084" lon="2.598069"><ele>0.0</ele><time>2026-04-30T10:25:23.069Z</time></trkpt><trkpt lat="41.4738471" lon="2.5981702"><ele>0.0</ele><time>2026-04-30T10:25:24.069Z</time></trkpt><trkpt lat="41.4738855" lon="2.5982644"><ele>0.0</ele><time>2026-04-30T10:25:25.068Z</time></trkpt><trkpt lat="41.4739267" lon="2.5983695"><ele>0.0</ele><time>2026-04-30T10:25:26.069Z</time></trkpt><trkpt lat="41.4739639" lon="2.5984674"><ele>0.0</ele><time>2026-04-30T10:25:27.068Z</time></trkpt><trkpt lat="41.4739991" lon="2.5985625"><ele>0.0</ele><time>2026-04-30T10:25:28.067Z</time></trkpt><trkpt lat="41.4740399" lon="2.5986675"><ele>0.0</ele><time>2026-04-30T10:25:29.068Z</time></trkpt><trkpt lat="41.4740742" lon="2.5987667"><ele>0.0</ele><time>2026-04-30T10:25:30.067Z</time></trkpt><trkpt lat="41.4740975" lon="2.5988739"><ele>0.0</ele><time>2026-04-30T10:25:31.067Z</time></trkpt><trkpt lat="41.4741354" lon="2.5989763"><ele>0.0</ele><time>2026-04-30T10:25:32.068Z</time></trkpt><trkpt lat="41.4741712" lon="2.5990825"><ele>0.0</ele><time>2026-04-30T10:25:33.067Z</time></trkpt><trkpt lat="41.4742045" lon="2.599181"><ele>0.0</ele><time>2026-04-30T10:25:34.067Z</time></trkpt><trkpt lat="41.4742387" lon="2.5992829"><ele>0.0</ele><time>2026-04-30T10:25:35.067Z</time></trkpt><trkpt lat="41.4742771" lon="2.5993821"><ele>0.0</ele><time>2026-04-30T10:25:36.068Z</time></trkpt><trkpt lat="41.4743084" lon="2.5994905"><ele>0.0</ele><time>2026-04-30T10:25:37.067Z</time></trkpt><trkpt lat="41.4743439" lon="2.5995932"><ele>0.0</ele><time>2026-04-30T10:25:38.067Z</time></trkpt><trkpt lat="41.4744129" lon="2.5997962"><ele>0.0</ele><time>2026-04-30T10:25:40.067Z</time></trkpt><trkpt lat="41.4744475" lon="2.5999039"><ele>0.0</ele><time>2026-04-30T10:25:41.068Z</time></trkpt><trkpt lat="41.4744852" lon="2.6000094"><ele>0.0</ele><time>2026-04-30T10:25:42.067Z</time></trkpt><trkpt lat="41.4745263" lon="2.600113"><ele>0.0</ele><time>2026-04-30T10:25:43.068Z</time></trkpt><trkpt lat="41.4745668" lon="2.6002151"><ele>0.0</ele><time>2026-04-30T10:25:44.068Z</time></trkpt><trkpt lat="41.4746096" lon="2.6003181"><ele>0.0</ele><time>2026-04-30T10:25:45.068Z</time></trkpt><trkpt lat="41.4746487" lon="2.6004127"><ele>0.0</ele><time>2026-04-30T10:25:46.068Z</time></trkpt><trkpt lat="41.4746856" lon="2.600512"><ele>0.0</ele><time>2026-04-30T10:25:47.068Z</time></trkpt><trkpt lat="41.4747235" lon="2.6006148"><ele>0.0</ele><time>2026-04-30T10:25:48.068Z</time></trkpt><trkpt lat="41.4747747" lon="2.6007095"><ele>0.0</ele><time>2026-04-30T10:25:49.067Z</time></trkpt><trkpt lat="41.4748156" lon="2.6008032"><ele>0.0</ele><time>2026-04-30T10:25:50.067Z</time></trkpt><trkpt lat="41.4748526" lon="2.6008992"><ele>0.0</ele><time>2026-04-30T10:25:51.067Z</time></trkpt><trkpt lat="41.4748937" lon="2.6010027"><ele>0.0</ele><time>2026-04-30T10:25:52.068Z</time></trkpt><trkpt lat="41.4749393" lon="2.6011146"><ele>0.0</ele><time>2026-04-30T10:25:53.067Z</time></trkpt><trkpt lat="41.4749765" lon="2.6012266"><ele>0.0</ele><time>2026-04-30T10:25:54.067Z</time></trkpt><trkpt lat="41.4750103" lon="2.6013326"><ele>0.0</ele><time>2026-04-30T10:25:55.067Z</time></trkpt><trkpt lat="41.4750452" lon="2.6014365"><ele>0.0</ele><time>2026-04-30T10:25:56.068Z</time></trkpt><trkpt lat="41.4750821" lon="2.6015427"><ele>0.0</ele><time>2026-04-30T10:25:57.067Z</time></trkpt><trkpt lat="41.4751205" lon="2.6016467"><ele>0.0</ele><time>2026-04-30T10:25:58.067Z</time></trkpt><trkpt lat="41.4751558" lon="2.6017457"><ele>0.0</ele><time>2026-04-30T10:25:59.068Z</time></trkpt><trkpt lat="41.4752271" lon="2.6019498"><ele>0.0</ele><time>2026-04-30T10:26:01.068Z</time></trkpt><trkpt lat="41.4752654" lon="2.6020502"><ele>0.0</ele><time>2026-04-30T10:26:02.067Z</time></trkpt><trkpt lat="41.4753051" lon="2.6021573"><ele>0.0</ele><time>2026-04-30T10:26:03.068Z</time></trkpt><trkpt lat="41.4753511" lon="2.6022627"><ele>0.0</ele><time>2026-04-30T10:26:04.067Z</time></trkpt><trkpt lat="41.475398" lon="2.6023676"><ele>0.0</ele><time>2026-04-30T10:26:05.068Z</time></trkpt><trkpt lat="41.4754416" lon="2.6024697"><ele>0.0</ele><time>2026-04-30T10:26:06.068Z</time></trkpt><trkpt lat="41.4754775" lon="2.6025644"><ele>0.0</ele><time>2026-04-30T10:26:07.068Z</time></trkpt><trkpt lat="41.4755096" lon="2.6026681"><ele>0.0</ele><time>2026-04-30T10:26:08.067Z</time></trkpt><trkpt lat="41.4755455" lon="2.6027656"><ele>0.0</ele><time>2026-04-30T10:26:09.068Z</time></trkpt><trkpt lat="41.4755896" lon="2.6028653"><ele>0.0</ele><time>2026-04-30T10:26:10.067Z</time></trkpt><trkpt lat="41.4756286" lon="2.6029668"><ele>0.0</ele><time>2026-04-30T10:26:11.068Z</time></trkpt><trkpt lat="41.4756612" lon="2.6030629"><ele>0.0</ele><time>2026-04-30T10:26:12.067Z</time></trkpt><trkpt lat="41.4756873" lon="2.6031706"><ele>0.0</ele><time>2026-04-30T10:26:13.068Z</time></trkpt><trkpt lat="41.4757122" lon="2.6032745"><ele>0.0</ele><time>2026-04-30T10:26:14.068Z</time></trkpt><trkpt lat="41.4757445" lon="2.6033838"><ele>0.0</ele><time>2026-04-30T10:26:15.068Z</time></trkpt><trkpt lat="41.4757829" lon="2.6034939"><ele>0.0</ele><time>2026-04-30T10:26:16.067Z</time></trkpt><trkpt lat="41.475816" lon="2.6036022"><ele>0.0</ele><time>2026-04-30T10:26:17.068Z</time></trkpt><trkpt lat="41.4758564" lon="2.6037021"><ele>0.0</ele><time>2026-04-30T10:26:18.067Z</time></trkpt><trkpt lat="41.4758923" lon="2.6038029"><ele>0.0</ele><time>2026-04-30T10:26:19.067Z</time></trkpt><trkpt lat="41.4759249" lon="2.6039048"><ele>0.0</ele><time>2026-04-30T10:26:20.067Z</time></trkpt><trkpt lat="41.4760017" lon="2.6041102"><ele>0.0</ele><time>2026-04-30T10:26:22.068Z</time></trkpt><trkpt lat="41.4760461" lon="2.6042148"><ele>0.0</ele><time>2026-04-30T10:26:23.068Z</time></trkpt><trkpt lat="41.4760839" lon="2.6043196"><ele>0.0</ele><time>2026-04-30T10:26:24.068Z</time></trkpt><trkpt lat="41.4761188" lon="2.6044247"><ele>0.0</ele><time>2026-04-30T10:26:25.068Z</time></trkpt><trkpt lat="41.476159" lon="2.6045283"><ele>0.0</ele><time>2026-04-30T10:26:26.067Z</time></trkpt><trkpt lat="41.4761979" lon="2.6046375"><ele>0.0</ele><time>2026-04-30T10:26:27.067Z</time></trkpt><trkpt lat="41.4762401" lon="2.604739"><ele>0.0</ele><time>2026-04-30T10:26:28.067Z</time></trkpt><trkpt lat="41.4762921" lon="2.6048391"><ele>0.0</ele><time>2026-04-30T10:26:29.067Z</time></trkpt><trkpt lat="41.4763368" lon="2.6049433"><ele>0.0</ele><time>2026-04-30T10:26:30.067Z</time></trkpt><trkpt lat="41.4763806" lon="2.6050509"><ele>0.0</ele><time>2026-04-30T10:26:31.067Z</time></trkpt><trkpt lat="41.4764265" lon="2.6051564"><ele>0.0</ele><time>2026-04-30T10:26:32.068Z</time></trkpt><trkpt lat="41.4764705" lon="2.6052656"><ele>0.0</ele><time>2026-04-30T10:26:33.067Z</time></trkpt><trkpt lat="41.4765127" lon="2.6053682"><ele>0.0</ele><time>2026-04-30T10:26:34.068Z</time></trkpt><trkpt lat="41.4765546" lon="2.605466"><ele>0.0</ele><time>2026-04-30T10:26:35.068Z</time></trkpt><trkpt lat="41.4765945" lon="2.6055711"><ele>0.0</ele><time>2026-04-30T10:26:36.067Z</time></trkpt><trkpt lat="41.4766274" lon="2.6056695"><ele>0.0</ele><time>2026-04-30T10:26:37.068Z</time></trkpt><trkpt lat="41.4766623" lon="2.6057657"><ele>0.0</ele><time>2026-04-30T10:26:38.067Z</time></trkpt><trkpt lat="41.476697" lon="2.605865"><ele>0.0</ele><time>2026-04-30T10:26:39.067Z</time></trkpt><trkpt lat="41.4767337" lon="2.6059681"><ele>0.0</ele><time>2026-04-30T10:26:40.067Z</time></trkpt><trkpt lat="41.4767684" lon="2.6060713"><ele>0.0</ele><time>2026-04-30T10:26:41.067Z</time></trkpt><trkpt lat="41.4768396" lon="2.6062804"><ele>0.0</ele><time>2026-04-30T10:26:43.067Z</time></trkpt><trkpt lat="41.4768785" lon="2.6063786"><ele>0.0</ele><time>2026-04-30T10:26:44.067Z</time></trkpt><trkpt lat="41.4769152" lon="2.6064769"><ele>0.0</ele><time>2026-04-30T10:26:45.067Z</time></trkpt><trkpt lat="41.4769505" lon="2.6065828"><ele>0.0</ele><time>2026-04-30T10:26:46.067Z</time></trkpt><trkpt lat="41.4769841" lon="2.606684"><ele>0.0</ele><time>2026-04-30T10:26:47.067Z</time></trkpt><trkpt lat="41.4770187" lon="2.6067856"><ele>0.0</ele><time>2026-04-30T10:26:48.068Z</time></trkpt><trkpt lat="41.4770494" lon="2.6068872"><ele>0.0</ele><time>2026-04-30T10:26:49.067Z</time></trkpt><trkpt lat="41.4770784" lon="2.6069888"><ele>0.0</ele><time>2026-04-30T10:26:50.068Z</time></trkpt><trkpt lat="41.4771069" lon="2.6070929"><ele>0.0</ele><time>2026-04-30T10:26:51.067Z</time></trkpt><trkpt lat="41.4771319" lon="2.6071963"><ele>0.0</ele><time>2026-04-30T10:26:52.067Z</time></trkpt><trkpt lat="41.4771674" lon="2.6072983"><ele>0.0</ele><time>2026-04-30T10:26:53.067Z</time></trkpt><trkpt lat="41.477204" lon="2.6074014"><ele>0.0</ele><time>2026-04-30T10:26:54.068Z</time></trkpt><trkpt lat="41.477239" lon="2.607502"><ele>0.0</ele><time>2026-04-30T10:26:55.068Z</time></trkpt><trkpt lat="41.4772797" lon="2.6076118"><ele>0.0</ele><time>2026-04-30T10:26:56.068Z</time></trkpt><trkpt lat="41.477317" lon="2.6077176"><ele>0.0</ele><time>2026-04-30T10:26:57.067Z</time></trkpt><trkpt lat="41.4773552" lon="2.607823"><ele>0.0</ele><time>2026-04-30T10:26:58.067Z</time></trkpt><trkpt lat="41.4773962" lon="2.6079324"><ele>0.0</ele><time>2026-04-30T10:26:59.068Z</time></trkpt><trkpt lat="41.4774308" lon="2.6080348"><ele>0.0</ele><time>2026-04-30T10:27:00.068Z</time></trkpt><trkpt lat="41.4774667" lon="2.6081396"><ele>0.0</ele><time>2026-04-30T10:27:01.067Z</time></trkpt><trkpt lat="41.4775061" lon="2.6082446"><ele>0.0</ele><time>2026-04-30T10:27:02.068Z</time></trkpt><trkpt lat="41.4775878" lon="2.6084574"><ele>0.0</ele><time>2026-04-30T10:27:04.068Z</time></trkpt><trkpt lat="41.4776308" lon="2.6085587"><ele>0.0</ele><time>2026-04-30T10:27:05.068Z</time></trkpt><trkpt lat="41.4776714" lon="2.6086545"><ele>0.0</ele><time>2026-04-30T10:27:06.067Z</time></trkpt><trkpt lat="41.4777113" lon="2.6087554"><ele>0.0</ele><time>2026-04-30T10:27:07.067Z</time></trkpt><trkpt lat="41.477751" lon="2.6088611"><ele>0.0</ele><time>2026-04-30T10:27:08.068Z</time></trkpt><trkpt lat="41.4777957" lon="2.6089592"><ele>0.0</ele><time>2026-04-30T10:27:09.067Z</time></trkpt><trkpt lat="41.4778336" lon="2.6090542"><ele>0.0</ele><time>2026-04-30T10:27:10.068Z</time></trkpt><trkpt lat="41.4778689" lon="2.6091508"><ele>0.0</ele><time>2026-04-30T10:27:11.067Z</time></trkpt><trkpt lat="41.4778994" lon="2.6092606"><ele>0.0</ele><time>2026-04-30T10:27:12.067Z</time></trkpt><trkpt lat="41.4779439" lon="2.6093651"><ele>0.0</ele><time>2026-04-30T10:27:13.068Z</time></trkpt><trkpt lat="41.4779902" lon="2.609467"><ele>0.0</ele><time>2026-04-30T10:27:14.067Z</time></trkpt><trkpt lat="41.4780284" lon="2.6095727"><ele>0.0</ele><time>2026-04-30T10:27:15.067Z</time></trkpt><trkpt lat="41.4780656" lon="2.6096807"><ele>0.0</ele><time>2026-04-30T10:27:16.067Z</time></trkpt><trkpt lat="41.4781047" lon="2.609786"><ele>0.0</ele><time>2026-04-30T10:27:17.067Z</time></trkpt><trkpt lat="41.4781518" lon="2.609887"><ele>0.0</ele><time>2026-04-30T10:27:18.067Z</time></trkpt><trkpt lat="41.4781904" lon="2.6099842"><ele>0.0</ele><time>2026-04-30T10:27:19.068Z</time></trkpt><trkpt lat="41.4782342" lon="2.6100826"><ele>0.0</ele><time>2026-04-30T10:27:20.068Z</time></trkpt><trkpt lat="41.4782763" lon="2.6101796"><ele>0.0</ele><time>2026-04-30T10:27:21.068Z</time></trkpt><trkpt lat="41.478321" lon="2.6102746"><ele>0.0</ele><time>2026-04-30T10:27:22.067Z</time></trkpt><trkpt lat="41.4783615" lon="2.6103824"><ele>0.0</ele><time>2026-04-30T10:27:23.068Z</time></trkpt><trkpt lat="41.4783984" lon="2.6104865"><ele>0.0</ele><time>2026-04-30T10:27:24.067Z</time></trkpt><trkpt lat="41.4784804" lon="2.6107034"><ele>0.0</ele><time>2026-04-30T10:27:26.068Z</time></trkpt><trkpt lat="41.4785171" lon="2.6108049"><ele>0.0</ele><time>2026-04-30T10:27:27.067Z</time></trkpt><trkpt lat="41.4785522" lon="2.6109064"><ele>0.0</ele><time>2026-04-30T10:27:28.067Z</time></trkpt><trkpt lat="41.4785854" lon="2.6110112"><ele>0.0</ele><time>2026-04-30T10:27:29.067Z</time></trkpt><trkpt lat="41.4786175" lon="2.6111109"><ele>0.0</ele><time>2026-04-30T10:27:30.067Z</time></trkpt><trkpt lat="41.4786457" lon="2.6112122"><ele>0.0</ele><time>2026-04-30T10:27:31.067Z</time></trkpt><trkpt lat="41.478677" lon="2.611318"><ele>0.0</ele><time>2026-04-30T10:27:32.068Z</time></trkpt><trkpt lat="41.4787104" lon="2.6114284"><ele>0.0</ele><time>2026-04-30T10:27:33.068Z</time></trkpt><trkpt lat="41.4787454" lon="2.6115344"><ele>0.0</ele><time>2026-04-30T10:27:34.068Z</time></trkpt><trkpt lat="41.4787875" lon="2.6116382"><ele>0.0</ele><time>2026-04-30T10:27:35.068Z</time></trkpt><trkpt lat="41.4788279" lon="2.6117418"><ele>0.0</ele><time>2026-04-30T10:27:36.067Z</time></trkpt><trkpt lat="41.4788712" lon="2.6118435"><ele>0.0</ele><time>2026-04-30T10:27:37.068Z</time></trkpt><trkpt lat="41.4789133" lon="2.611947"><ele>0.0</ele><time>2026-04-30T10:27:38.068Z</time></trkpt><trkpt lat="41.4789589" lon="2.6120485"><ele>0.0</ele><time>2026-04-30T10:27:39.068Z</time></trkpt><trkpt lat="41.4789998" lon="2.6121527"><ele>0.0</ele><time>2026-04-30T10:27:40.068Z</time></trkpt><trkpt lat="41.4790512" lon="2.6122518"><ele>0.0</ele><time>2026-04-30T10:27:41.068Z</time></trkpt><trkpt lat="41.4790902" lon="2.6123503"><ele>0.0</ele><time>2026-04-30T10:27:42.067Z</time></trkpt><trkpt lat="41.4791316" lon="2.6124518"><ele>0.0</ele><time>2026-04-30T10:27:43.067Z</time></trkpt><trkpt lat="41.4791704" lon="2.6125587"><ele>0.0</ele><time>2026-04-30T10:27:44.068Z</time></trkpt><trkpt lat="41.4792103" lon="2.612659"><ele>0.0</ele><time>2026-04-30T10:27:45.068Z</time></trkpt><trkpt lat="41.479284" lon="2.6128583"><ele>0.0</ele><time>2026-04-30T10:27:47.068Z</time></trkpt><trkpt lat="41.4793231" lon="2.6129646"><ele>0.0</ele><time>2026-04-30T10:27:48.068Z</time></trkpt><trkpt lat="41.479366" lon="2.6130624"><ele>0.0</ele><time>2026-04-30T10:27:49.068Z</time></trkpt><trkpt lat="41.4794074" lon="2.613159"><ele>0.0</ele><time>2026-04-30T10:27:50.067Z</time></trkpt><trkpt lat="41.479445" lon="2.6132631"><ele>0.0</ele><time>2026-04-30T10:27:51.067Z</time></trkpt><trkpt lat="41.4794834" lon="2.6133552"><ele>0.0</ele><time>2026-04-30T10:27:52.068Z</time></trkpt><trkpt lat="41.4795173" lon="2.6134538"><ele>0.0</ele><time>2026-04-30T10:27:53.068Z</time></trkpt><trkpt lat="41.4795494" lon="2.6135549"><ele>0.0</ele><time>2026-04-30T10:27:54.067Z</time></trkpt><trkpt lat="41.4795829" lon="2.6136621"><ele>0.0</ele><time>2026-04-30T10:27:55.067Z</time></trkpt><trkpt lat="41.4796193" lon="2.6137734"><ele>0.0</ele><time>2026-04-30T10:27:56.068Z</time></trkpt><trkpt lat="41.4796564" lon="2.6138854"><ele>0.0</ele><time>2026-04-30T10:27:57.068Z</time></trkpt><trkpt lat="41.4797009" lon="2.6139868"><ele>0.0</ele><time>2026-04-30T10:27:58.067Z</time></trkpt><trkpt lat="41.4797372" lon="2.6140926"><ele>0.0</ele><time>2026-04-30T10:27:59.068Z</time></trkpt><trkpt lat="41.4797778" lon="2.6141946"><ele>0.0</ele><time>2026-04-30T10:28:00.067Z</time></trkpt><trkpt lat="41.4798165" lon="2.6143039"><ele>0.0</ele><time>2026-04-30T10:28:01.067Z</time></trkpt><trkpt lat="41.4798576" lon="2.6144086"><ele>0.0</ele><time>2026-04-30T10:28:02.067Z</time></trkpt><trkpt lat="41.4798991" lon="2.6145034"><ele>0.0</ele><time>2026-04-30T10:28:03.068Z</time></trkpt><trkpt lat="41.4799394" lon="2.6146009"><ele>0.0</ele><time>2026-04-30T10:28:04.067Z</time></trkpt><trkpt lat="41.4799768" lon="2.6147049"><ele>0.0</ele><time>2026-04-30T10:28:05.067Z</time></trkpt><trkpt lat="41.4800149" lon="2.6148083"><ele>0.0</ele><time>2026-04-30T10:28:06.067Z</time></trkpt><trkpt lat="41.4800746" lon="2.6150115"><ele>0.0</ele><time>2026-04-30T10:28:08.068Z</time></trkpt><trkpt lat="41.4801047" lon="2.6151149"><ele>0.0</ele><time>2026-04-30T10:28:09.068Z</time></trkpt><trkpt lat="41.4801319" lon="2.6152238"><ele>0.0</ele><time>2026-04-30T10:28:10.067Z</time></trkpt><trkpt lat="41.4801688" lon="2.6153297"><ele>0.0</ele><time>2026-04-30T10:28:11.067Z</time></trkpt><trkpt lat="41.4802095" lon="2.6154333"><ele>0.0</ele><time>2026-04-30T10:28:12.067Z</time></trkpt><trkpt lat="41.4802524" lon="2.6155282"><ele>0.0</ele><time>2026-04-30T10:28:13.067Z</time></trkpt><trkpt lat="41.4802942" lon="2.615626"><ele>0.0</ele><time>2026-04-30T10:28:14.067Z</time></trkpt><trkpt lat="41.480329" lon="2.6157287"><ele>0.0</ele><time>2026-04-30T10:28:15.068Z</time></trkpt><trkpt lat="41.4803622" lon="2.6158287"><ele>0.0</ele><time>2026-04-30T10:28:16.068Z</time></trkpt><trkpt lat="41.4803926" lon="2.6159356"><ele>0.0</ele><time>2026-04-30T10:28:17.067Z</time></trkpt><trkpt lat="41.4804244" lon="2.6160482"><ele>0.0</ele><time>2026-04-30T10:28:18.068Z</time></trkpt><trkpt lat="41.4804589" lon="2.616153"><ele>0.0</ele><time>2026-04-30T10:28:19.068Z</time></trkpt><trkpt lat="41.4804953" lon="2.6162595"><ele>0.0</ele><time>2026-04-30T10:28:20.067Z</time></trkpt><trkpt lat="41.4805336" lon="2.6163558"><ele>0.0</ele><time>2026-04-30T10:28:21.068Z</time></trkpt><trkpt lat="41.4805791" lon="2.6164539"><ele>0.0</ele><time>2026-04-30T10:28:22.067Z</time></trkpt><trkpt lat="41.4806239" lon="2.6165564"><ele>0.0</ele><time>2026-04-30T10:28:23.067Z</time></trkpt><trkpt lat="41.4806607" lon="2.616664"><ele>0.0</ele><time>2026-04-30T10:28:24.068Z</time></trkpt><trkpt lat="41.4807002" lon="2.616775"><ele>0.0</ele><time>2026-04-30T10:28:25.068Z</time></trkpt><trkpt lat="41.4807371" lon="2.6168811"><ele>0.0</ele><time>2026-04-30T10:28:26.067Z</time></trkpt><trkpt lat="41.4807777" lon="2.6169847"><ele>0.0</ele><time>2026-04-30T10:28:27.068Z</time></trkpt><trkpt lat="41.4808164" lon="2.6170865"><ele>0.0</ele><time>2026-04-30T10:28:28.067Z</time></trkpt><trkpt lat="41.4808991" lon="2.6172837"><ele>0.0</ele><time>2026-04-30T10:28:30.067Z</time></trkpt><trkpt lat="41.4809489" lon="2.6173836"><ele>0.0</ele><time>2026-04-30T10:28:31.067Z</time></trkpt><trkpt lat="41.4809915" lon="2.6174835"><ele>0.0</ele><time>2026-04-30T10:28:32.067Z</time></trkpt><trkpt lat="41.4810313" lon="2.6175851"><ele>0.0</ele><time>2026-04-30T10:28:33.067Z</time></trkpt><trkpt lat="41.4810699" lon="2.617687"><ele>0.0</ele><time>2026-04-30T10:28:34.068Z</time></trkpt><trkpt lat="41.4811112" lon="2.6177898"><ele>0.0</ele><time>2026-04-30T10:28:35.067Z</time></trkpt><trkpt lat="41.4811526" lon="2.6178932"><ele>0.0</ele><time>2026-04-30T10:28:36.068Z</time></trkpt><trkpt lat="41.481192" lon="2.6179994"><ele>0.0</ele><time>2026-04-30T10:28:37.067Z</time></trkpt><trkpt lat="41.4812255" lon="2.6181088"><ele>0.0</ele><time>2026-04-30T10:28:38.067Z</time></trkpt><trkpt lat="41.4812577" lon="2.6182173"><ele>0.0</ele><time>2026-04-30T10:28:39.068Z</time></trkpt><trkpt lat="41.4812878" lon="2.6183131"><ele>0.0</ele><time>2026-04-30T10:28:40.067Z</time></trkpt><trkpt lat="41.481319" lon="2.6184111"><ele>0.0</ele><time>2026-04-30T10:28:41.068Z</time></trkpt><trkpt lat="41.4813577" lon="2.6185091"><ele>0.0</ele><time>2026-04-30T10:28:42.068Z</time></trkpt><trkpt lat="41.4813991" lon="2.618612"><ele>0.0</ele><time>2026-04-30T10:28:43.068Z</time></trkpt><trkpt lat="41.4814355" lon="2.6187178"><ele>0.0</ele><time>2026-04-30T10:28:44.068Z</time></trkpt><trkpt lat="41.4814807" lon="2.6188187"><ele>0.0</ele><time>2026-04-30T10:28:45.067Z</time></trkpt><trkpt lat="41.4815261" lon="2.61892"><ele>0.0</ele><time>2026-04-30T10:28:46.068Z</time></trkpt><trkpt lat="41.4815723" lon="2.6190189"><ele>0.0</ele><time>2026-04-30T10:28:47.067Z</time></trkpt><trkpt lat="41.4816117" lon="2.6191232"><ele>0.0</ele><time>2026-04-30T10:28:48.067Z</time></trkpt><trkpt lat="41.4816458" lon="2.6192305"><ele>0.0</ele><time>2026-04-30T10:28:49.067Z</time></trkpt><trkpt lat="41.4816779" lon="2.6193372"><ele>0.0</ele><time>2026-04-30T10:28:50.068Z</time></trkpt><trkpt lat="41.4817581" lon="2.6195357"><ele>0.0</ele><time>2026-04-30T10:28:52.067Z</time></trkpt><trkpt lat="41.4818007" lon="2.619634"><ele>0.0</ele><time>2026-04-30T10:28:53.067Z</time></trkpt><trkpt lat="41.4818416" lon="2.6197366"><ele>0.0</ele><time>2026-04-30T10:28:54.068Z</time></trkpt><trkpt lat="41.4818771" lon="2.6198426"><ele>0.0</ele><time>2026-04-30T10:28:55.067Z</time></trkpt><trkpt lat="41.481914" lon="2.6199477"><ele>0.0</ele><time>2026-04-30T10:28:56.068Z</time></trkpt><trkpt lat="41.481945" lon="2.6200584"><ele>0.0</ele><time>2026-04-30T10:28:57.067Z</time></trkpt><trkpt lat="41.4819765" lon="2.6201604"><ele>0.0</ele><time>2026-04-30T10:28:58.068Z</time></trkpt><trkpt lat="41.4820155" lon="2.6202574"><ele>0.0</ele><time>2026-04-30T10:28:59.068Z</time></trkpt><trkpt lat="41.4820497" lon="2.6203596"><ele>0.0</ele><time>2026-04-30T10:29:00.067Z</time></trkpt><trkpt lat="41.4820886" lon="2.6204646"><ele>0.0</ele><time>2026-04-30T10:29:01.068Z</time></trkpt><trkpt lat="41.4821269" lon="2.6205639"><ele>0.0</ele><time>2026-04-30T10:29:02.068Z</time></trkpt><trkpt lat="41.4821652" lon="2.6206639"><ele>0.0</ele><time>2026-04-30T10:29:03.068Z</time></trkpt><trkpt lat="41.4822063" lon="2.6207652"><ele>0.0</ele><time>2026-04-30T10:29:04.068Z</time></trkpt><trkpt lat="41.4822376" lon="2.6208713"><ele>0.0</ele><time>2026-04-30T10:29:05.068Z</time></trkpt><trkpt lat="41.4822685" lon="2.6209795"><ele>0.0</ele><time>2026-04-30T10:29:06.067Z</time></trkpt><trkpt lat="41.4823019" lon="2.6210821"><ele>0.0</ele><time>2026-04-30T10:29:07.067Z</time></trkpt><trkpt lat="41.4823295" lon="2.6211835"><ele>0.0</ele><time>2026-04-30T10:29:08.067Z</time></trkpt><trkpt lat="41.4823665" lon="2.6212851"><ele>0.0</ele><time>2026-04-30T10:29:09.068Z</time></trkpt><trkpt lat="41.4824058" lon="2.6213841"><ele>0.0</ele><time>2026-04-30T10:29:10.068Z</time></trkpt><trkpt lat="41.4824333" lon="2.6214827"><ele>0.0</ele><time>2026-04-30T10:29:11.067Z</time></trkpt><trkpt lat="41.4825052" lon="2.6216899"><ele>0.0</ele><time>2026-04-30T10:29:13.067Z</time></trkpt><trkpt lat="41.4825365" lon="2.6217905"><ele>0.0</ele><time>2026-04-30T10:29:14.068Z</time></trkpt><trkpt lat="41.4825733" lon="2.6218936"><ele>0.0</ele><time>2026-04-30T10:29:15.068Z</time></trkpt><trkpt lat="41.4826143" lon="2.6219952"><ele>0.0</ele><time>2026-04-30T10:29:16.068Z</time></trkpt><trkpt lat="41.482653" lon="2.6220951"><ele>0.0</ele><time>2026-04-30T10:29:17.068Z</time></trkpt><trkpt lat="41.4826916" lon="2.6221999"><ele>0.0</ele><time>2026-04-30T10:29:18.067Z</time></trkpt><trkpt lat="41.4827286" lon="2.622306"><ele>0.0</ele><time>2026-04-30T10:29:19.068Z</time></trkpt><trkpt lat="41.4827663" lon="2.6224196"><ele>0.0</ele><time>2026-04-30T10:29:20.067Z</time></trkpt><trkpt lat="41.482809" lon="2.6225203"><ele>0.0</ele><time>2026-04-30T10:29:21.068Z</time></trkpt><trkpt lat="41.4828482" lon="2.6226259"><ele>0.0</ele><time>2026-04-30T10:29:22.068Z</time></trkpt><trkpt lat="41.4828837" lon="2.6227312"><ele>0.0</ele><time>2026-04-30T10:29:23.068Z</time></trkpt><trkpt lat="41.4829289" lon="2.6228307"><ele>0.0</ele><time>2026-04-30T10:29:24.068Z</time></trkpt><trkpt lat="41.4829671" lon="2.6229318"><ele>0.0</ele><time>2026-04-30T10:29:25.068Z</time></trkpt><trkpt lat="41.4830048" lon="2.6230339"><ele>0.0</ele><time>2026-04-30T10:29:26.067Z</time></trkpt><trkpt lat="41.4830515" lon="2.6231455"><ele>0.0</ele><time>2026-04-30T10:29:27.067Z</time></trkpt><trkpt lat="41.4830942" lon="2.6232523"><ele>0.0</ele><time>2026-04-30T10:29:28.067Z</time></trkpt><trkpt lat="41.4831378" lon="2.6233585"><ele>0.0</ele><time>2026-04-30T10:29:29.068Z</time></trkpt><trkpt lat="41.4831753" lon="2.6234671"><ele>0.0</ele><time>2026-04-30T10:29:30.067Z</time></trkpt><trkpt lat="41.4832033" lon="2.6235761"><ele>0.0</ele><time>2026-04-30T10:29:31.068Z</time></trkpt><trkpt lat="41.4832328" lon="2.6236804"><ele>0.0</ele><time>2026-04-30T10:29:32.068Z</time></trkpt><trkpt lat="41.4832956" lon="2.6238867"><ele>0.0</ele><time>2026-04-30T10:29:34.067Z</time></trkpt><trkpt lat="41.483332" lon="2.6239874"><ele>0.0</ele><time>2026-04-30T10:29:35.067Z</time></trkpt><trkpt lat="41.4833659" lon="2.6240871"><ele>0.0</ele><time>2026-04-30T10:29:36.068Z</time></trkpt><trkpt lat="41.4834064" lon="2.6241855"><ele>0.0</ele><time>2026-04-30T10:29:37.067Z</time></trkpt><trkpt lat="41.4834462" lon="2.624284"><ele>0.0</ele><time>2026-04-30T10:29:38.067Z</time></trkpt><trkpt lat="41.4834807" lon="2.6243828"><ele>0.0</ele><time>2026-04-30T10:29:39.067Z</time></trkpt><trkpt lat="41.4835195" lon="2.6244836"><ele>0.0</ele><time>2026-04-30T10:29:40.067Z</time></trkpt><trkpt lat="41.4835521" lon="2.6245924"><ele>0.0</ele><time>2026-04-30T10:29:41.067Z</time></trkpt><trkpt lat="41.4835897" lon="2.6246965"><ele>0.0</ele><time>2026-04-30T10:29:42.068Z</time></trkpt><trkpt lat="41.483631" lon="2.6248026"><ele>0.0</ele><time>2026-04-30T10:29:43.067Z</time></trkpt><trkpt lat="41.4836756" lon="2.6249049"><ele>0.0</ele><time>2026-04-30T10:29:44.068Z</time></trkpt><trkpt lat="41.4837164" lon="2.6250067"><ele>0.0</ele><time>2026-04-30T10:29:45.068Z</time></trkpt><trkpt lat="41.4837565" lon="2.6251114"><ele>0.0</ele><time>2026-04-30T10:29:46.068Z</time></trkpt><trkpt lat="41.4837935" lon="2.6252165"><ele>0.0</ele><time>2026-04-30T10:29:47.068Z</time></trkpt><trkpt lat="41.4838291" lon="2.6253202"><ele>0.0</ele><time>2026-04-30T10:29:48.067Z</time></trkpt><trkpt lat="41.4838654" lon="2.6254229"><ele>0.0</ele><time>2026-04-30T10:29:49.067Z</time></trkpt><trkpt lat="41.4839044" lon="2.6255259"><ele>0.0</ele><time>2026-04-30T10:29:50.067Z</time></trkpt><trkpt lat="41.4839444" lon="2.625628"><ele>0.0</ele><time>2026-04-30T10:29:51.067Z</time></trkpt><trkpt lat="41.483979" lon="2.6257298"><ele>0.0</ele><time>2026-04-30T10:29:52.068Z</time></trkpt><trkpt lat="41.4840137" lon="2.625833"><ele>0.0</ele><time>2026-04-30T10:29:53.067Z</time></trkpt><trkpt lat="41.484085" lon="2.6260397"><ele>0.0</ele><time>2026-04-30T10:29:55.068Z</time></trkpt><trkpt lat="41.4841185" lon="2.6261433"><ele>0.0</ele><time>2026-04-30T10:29:56.068Z</time></trkpt><trkpt lat="41.4841609" lon="2.6262553"><ele>0.0</ele><time>2026-04-30T10:29:57.068Z</time></trkpt><trkpt lat="41.4841984" lon="2.6263656"><ele>0.0</ele><time>2026-04-30T10:29:58.067Z</time></trkpt><trkpt lat="41.4842333" lon="2.6264672"><ele>0.0</ele><time>2026-04-30T10:29:59.067Z</time></trkpt><trkpt lat="41.4842698" lon="2.6265727"><ele>0.0</ele><time>2026-04-30T10:30:00.067Z</time></trkpt><trkpt lat="41.484308" lon="2.6266824"><ele>0.0</ele><time>2026-04-30T10:30:01.067Z</time></trkpt><trkpt lat="41.4843466" lon="2.6267825"><ele>0.0</ele><time>2026-04-30T10:30:02.066Z</time></trkpt><trkpt lat="41.4843877" lon="2.6268837"><ele>0.0</ele><time>2026-04-30T10:30:03.066Z</time></trkpt><trkpt lat="41.4844249" lon="2.626989"><ele>0.0</ele><time>2026-04-30T10:30:04.066Z</time></trkpt><trkpt lat="41.4844629" lon="2.6270931"><ele>0.0</ele><time>2026-04-30T10:30:05.067Z</time></trkpt><trkpt lat="41.4845018" lon="2.6271881"><ele>0.0</ele><time>2026-04-30T10:30:06.067Z</time></trkpt><trkpt lat="41.4845404" lon="2.6272843"><ele>0.0</ele><time>2026-04-30T10:30:07.066Z</time></trkpt><trkpt lat="41.484576" lon="2.6273863"><ele>0.0</ele><time>2026-04-30T10:30:08.066Z</time></trkpt><trkpt lat="41.4846092" lon="2.6274914"><ele>0.0</ele><time>2026-04-30T10:30:09.066Z</time></trkpt><trkpt lat="41.4846423" lon="2.6275994"><ele>0.0</ele><time>2026-04-30T10:30:10.066Z</time></trkpt><trkpt lat="41.4846797" lon="2.6277051"><ele>0.0</ele><time>2026-04-30T10:30:11.066Z</time></trkpt><trkpt lat="41.4847177" lon="2.6278057"><ele>0.0</ele><time>2026-04-30T10:30:12.066Z</time></trkpt><trkpt lat="41.4847534" lon="2.6279084"><ele>0.0</ele><time>2026-04-30T10:30:13.067Z</time></trkpt><trkpt lat="41.4847885" lon="2.6280131"><ele>0.0</ele><time>2026-04-30T10:30:14.067Z</time></trkpt><trkpt lat="41.4848769" lon="2.6282181"><ele>0.0</ele><time>2026-04-30T10:30:16.066Z</time></trkpt><trkpt lat="41.4849174" lon="2.6283244"><ele>0.0</ele><time>2026-04-30T10:30:17.066Z</time></trkpt><trkpt lat="41.4849564" lon="2.6284267"><ele>0.0</ele><time>2026-04-30T10:30:18.066Z</time></trkpt><trkpt lat="41.4849889" lon="2.6285285"><ele>0.0</ele><time>2026-04-30T10:30:19.066Z</time></trkpt><trkpt lat="41.4850224" lon="2.6286371"><ele>0.0</ele><time>2026-04-30T10:30:20.067Z</time></trkpt><trkpt lat="41.485064" lon="2.6287429"><ele>0.0</ele><time>2026-04-30T10:30:21.066Z</time></trkpt><trkpt lat="41.4850934" lon="2.6288463"><ele>0.0</ele><time>2026-04-30T10:30:22.066Z</time></trkpt><trkpt lat="41.4851389" lon="2.6289484"><ele>0.0</ele><time>2026-04-30T10:30:23.067Z</time></trkpt><trkpt lat="41.4851786" lon="2.6290488"><ele>0.0</ele><time>2026-04-30T10:30:24.067Z</time></trkpt><trkpt lat="41.4852154" lon="2.6291445"><ele>0.0</ele><time>2026-04-30T10:30:25.067Z</time></trkpt><trkpt lat="41.4852534" lon="2.629245"><ele>0.0</ele><time>2026-04-30T10:30:26.067Z</time></trkpt><trkpt lat="41.4852891" lon="2.6293423"><ele>0.0</ele><time>2026-04-30T10:30:27.066Z</time></trkpt><trkpt lat="41.4853298" lon="2.6294493"><ele>0.0</ele><time>2026-04-30T10:30:28.067Z</time></trkpt><trkpt lat="41.4853688" lon="2.6295576"><ele>0.0</ele><time>2026-04-30T10:30:29.067Z</time></trkpt><trkpt lat="41.4854055" lon="2.6296602"><ele>0.0</ele><time>2026-04-30T10:30:30.067Z</time></trkpt><trkpt lat="41.4854431" lon="2.6297634"><ele>0.0</ele><time>2026-04-30T10:30:31.067Z</time></trkpt><trkpt lat="41.4854861" lon="2.6298639"><ele>0.0</ele><time>2026-04-30T10:30:32.066Z</time></trkpt><trkpt lat="41.4855255" lon="2.6299651"><ele>0.0</ele><time>2026-04-30T10:30:33.066Z</time></trkpt><trkpt lat="41.4855607" lon="2.6300694"><ele>0.0</ele><time>2026-04-30T10:30:34.066Z</time></trkpt><trkpt lat="41.4855957" lon="2.6301729"><ele>0.0</ele><time>2026-04-30T10:30:35.066Z</time></trkpt><trkpt lat="41.4856345" lon="2.6302766"><ele>0.0</ele><time>2026-04-30T10:30:36.067Z</time></trkpt><trkpt lat="41.4857031" lon="2.6304878"><ele>0.0</ele><time>2026-04-30T10:30:38.066Z</time></trkpt><trkpt lat="41.4857436" lon="2.6305926"><ele>0.0</ele><time>2026-04-30T10:30:39.066Z</time></trkpt><trkpt lat="41.4857836" lon="2.6306938"><ele>0.0</ele><time>2026-04-30T10:30:40.066Z</time></trkpt><trkpt lat="41.4858204" lon="2.6307981"><ele>0.0</ele><time>2026-04-30T10:30:41.067Z</time></trkpt><trkpt lat="41.4858555" lon="2.6308988"><ele>0.0</ele><time>2026-04-30T10:30:42.067Z</time></trkpt><trkpt lat="41.4858932" lon="2.6310002"><ele>0.0</ele><time>2026-04-30T10:30:43.066Z</time></trkpt><trkpt lat="41.4859315" lon="2.6311051"><ele>0.0</ele><time>2026-04-30T10:30:44.067Z</time></trkpt><trkpt lat="41.4859701" lon="2.6312155"><ele>0.0</ele><time>2026-04-30T10:30:45.066Z</time></trkpt><trkpt lat="41.4860083" lon="2.6313198"><ele>0.0</ele><time>2026-04-30T10:30:46.067Z</time></trkpt><trkpt lat="41.4860498" lon="2.6314218"><ele>0.0</ele><time>2026-04-30T10:30:47.066Z</time></trkpt><trkpt lat="41.4860886" lon="2.6315233"><ele>0.0</ele><time>2026-04-30T10:30:48.066Z</time></trkpt><trkpt lat="41.4861225" lon="2.6316296"><ele>0.0</ele><time>2026-04-30T10:30:49.067Z</time></trkpt><trkpt lat="41.486156" lon="2.6317301"><ele>0.0</ele><time>2026-04-30T10:30:50.067Z</time></trkpt><trkpt lat="41.4861852" lon="2.6318347"><ele>0.0</ele><time>2026-04-30T10:30:51.067Z</time></trkpt><trkpt lat="41.4862231" lon="2.6319371"><ele>0.0</ele><time>2026-04-30T10:30:52.067Z</time></trkpt><trkpt lat="41.4862655" lon="2.6320344"><ele>0.0</ele><time>2026-04-30T10:30:53.067Z</time></trkpt><trkpt lat="41.4863072" lon="2.6321381"><ele>0.0</ele><time>2026-04-30T10:30:54.066Z</time></trkpt><trkpt lat="41.4863551" lon="2.6322458"><ele>0.0</ele><time>2026-04-30T10:30:55.066Z</time></trkpt><trkpt lat="41.4863994" lon="2.6323493"><ele>0.0</ele><time>2026-04-30T10:30:56.066Z</time></trkpt><trkpt lat="41.48644" lon="2.6324572"><ele>0.0</ele><time>2026-04-30T10:30:57.066Z</time></trkpt><trkpt lat="41.4865166" lon="2.6326679"><ele>0.0</ele><time>2026-04-30T10:30:59.067Z</time></trkpt><trkpt lat="41.4865525" lon="2.6327727"><ele>0.0</ele><time>2026-04-30T10:31:00.067Z</time></trkpt><trkpt lat="41.4865861" lon="2.6328808"><ele>0.0</ele><time>2026-04-30T10:31:01.066Z</time></trkpt><trkpt lat="41.4866222" lon="2.6329824"><ele>0.0</ele><time>2026-04-30T10:31:02.067Z</time></trkpt><trkpt lat="41.4866544" lon="2.6330812"><ele>0.0</ele><time>2026-04-30T10:31:03.067Z</time></trkpt><trkpt lat="41.4866915" lon="2.6331892"><ele>0.0</ele><time>2026-04-30T10:31:04.067Z</time></trkpt><trkpt lat="41.4867301" lon="2.6332944"><ele>0.0</ele><time>2026-04-30T10:31:05.066Z</time></trkpt><trkpt lat="41.4867726" lon="2.6333967"><ele>0.0</ele><time>2026-04-30T10:31:06.066Z</time></trkpt><trkpt lat="41.486813" lon="2.6334984"><ele>0.0</ele><time>2026-04-30T10:31:07.066Z</time></trkpt><trkpt lat="41.4868512" lon="2.6336043"><ele>0.0</ele><time>2026-04-30T10:31:08.066Z</time></trkpt><trkpt lat="41.4868884" lon="2.6337096"><ele>0.0</ele><time>2026-04-30T10:31:09.066Z</time></trkpt><trkpt lat="41.4869253" lon="2.6338136"><ele>0.0</ele><time>2026-04-30T10:31:10.067Z</time></trkpt><trkpt lat="41.4869614" lon="2.6339182"><ele>0.0</ele><time>2026-04-30T10:31:11.066Z</time></trkpt><trkpt lat="41.4869972" lon="2.6340213"><ele>0.0</ele><time>2026-04-30T10:31:12.066Z</time></trkpt><trkpt lat="41.4870322" lon="2.6341264"><ele>0.0</ele><time>2026-04-30T10:31:13.067Z</time></trkpt><trkpt lat="41.487067" lon="2.6342245"><ele>0.0</ele><time>2026-04-30T10:31:14.066Z</time></trkpt><trkpt lat="41.4870989" lon="2.6343272"><ele>0.0</ele><time>2026-04-30T10:31:15.066Z</time></trkpt><trkpt lat="41.4871415" lon="2.6344273"><ele>0.0</ele><time>2026-04-30T10:31:16.066Z</time></trkpt><trkpt lat="41.487174" lon="2.6345329"><ele>0.0</ele><time>2026-04-30T10:31:17.066Z</time></trkpt><trkpt lat="41.4872096" lon="2.6346341"><ele>0.0</ele><time>2026-04-30T10:31:18.066Z</time></trkpt><trkpt lat="41.4872877" lon="2.6348446"><ele>0.0</ele><time>2026-04-30T10:31:20.067Z</time></trkpt><trkpt lat="41.4873306" lon="2.6349527"><ele>0.0</ele><time>2026-04-30T10:31:21.066Z</time></trkpt><trkpt lat="41.4873697" lon="2.6350565"><ele>0.0</ele><time>2026-04-30T10:31:22.067Z</time></trkpt><trkpt lat="41.4874082" lon="2.6351601"><ele>0.0</ele><time>2026-04-30T10:31:23.066Z</time></trkpt><trkpt lat="41.4874537" lon="2.6352624"><ele>0.0</ele><time>2026-04-30T10:31:24.066Z</time></trkpt><trkpt lat="41.4874975" lon="2.635365"><ele>0.0</ele><time>2026-04-30T10:31:25.066Z</time></trkpt><trkpt lat="41.4875365" lon="2.6354683"><ele>0.0</ele><time>2026-04-30T10:31:26.067Z</time></trkpt><trkpt lat="41.4875749" lon="2.6355745"><ele>0.0</ele><time>2026-04-30T10:31:27.067Z</time></trkpt><trkpt lat="41.4876102" lon="2.635677"><ele>0.0</ele><time>2026-04-30T10:31:28.066Z</time></trkpt><trkpt lat="41.4876496" lon="2.6357755"><ele>0.0</ele><time>2026-04-30T10:31:29.067Z</time></trkpt><trkpt lat="41.4876923" lon="2.6358788"><ele>0.0</ele><time>2026-04-30T10:31:30.066Z</time></trkpt><trkpt lat="41.4877339" lon="2.6359858"><ele>0.0</ele><time>2026-04-30T10:31:31.066Z</time></trkpt><trkpt lat="41.4877693" lon="2.6360884"><ele>0.0</ele><time>2026-04-30T10:31:32.067Z</time></trkpt><trkpt lat="41.4877999" lon="2.6361844"><ele>0.0</ele><time>2026-04-30T10:31:33.066Z</time></trkpt><trkpt lat="41.4878355" lon="2.636292"><ele>0.0</ele><time>2026-04-30T10:31:34.067Z</time></trkpt><trkpt lat="41.4878705" lon="2.636395"><ele>0.0</ele><time>2026-04-30T10:31:35.066Z</time></trkpt><trkpt lat="41.487903" lon="2.6364941"><ele>0.0</ele><time>2026-04-30T10:31:36.067Z</time></trkpt><trkpt lat="41.4879383" lon="2.6365909"><ele>0.0</ele><time>2026-04-30T10:31:37.066Z</time></trkpt><trkpt lat="41.4879753" lon="2.6366932"><ele>0.0</ele><time>2026-04-30T10:31:38.066Z</time></trkpt><trkpt lat="41.4880104" lon="2.6367935"><ele>0.0</ele><time>2026-04-30T10:31:39.067Z</time></trkpt><trkpt lat="41.4880796" lon="2.6370068"><ele>0.0</ele><time>2026-04-30T10:31:41.067Z</time></trkpt><trkpt lat="41.4881184" lon="2.6371057"><ele>0.0</ele><time>2026-04-30T10:31:42.067Z</time></trkpt><trkpt lat="41.4881536" lon="2.637208"><ele>0.0</ele><time>2026-04-30T10:31:43.067Z</time></trkpt><trkpt lat="41.4881902" lon="2.6373129"><ele>0.0</ele><time>2026-04-30T10:31:44.067Z</time></trkpt><trkpt lat="41.4882282" lon="2.6374136"><ele>0.0</ele><time>2026-04-30T10:31:45.066Z</time></trkpt><trkpt lat="41.4882649" lon="2.6375125"><ele>0.0</ele><time>2026-04-30T10:31:46.066Z</time></trkpt><trkpt lat="41.4883046" lon="2.6376166"><ele>0.0</ele><time>2026-04-30T10:31:47.067Z</time></trkpt><trkpt lat="41.488346" lon="2.6377214"><ele>0.0</ele><time>2026-04-30T10:31:48.067Z</time></trkpt><trkpt lat="41.488386" lon="2.6378251"><ele>0.0</ele><time>2026-04-30T10:31:49.067Z</time></trkpt><trkpt lat="41.488423" lon="2.6379286"><ele>0.0</ele><time>2026-04-30T10:31:50.067Z</time></trkpt><trkpt lat="41.48846" lon="2.6380301"><ele>0.0</ele><time>2026-04-30T10:31:51.067Z</time></trkpt><trkpt lat="41.488497" lon="2.6381358"><ele>0.0</ele><time>2026-04-30T10:31:52.066Z</time></trkpt><trkpt lat="41.4885307" lon="2.6382398"><ele>0.0</ele><time>2026-04-30T10:31:53.066Z</time></trkpt><trkpt lat="41.4885653" lon="2.6383462"><ele>0.0</ele><time>2026-04-30T10:31:54.066Z</time></trkpt><trkpt lat="41.4886043" lon="2.6384545"><ele>0.0</ele><time>2026-04-30T10:31:55.067Z</time></trkpt><trkpt lat="41.4886387" lon="2.6385584"><ele>0.0</ele><time>2026-04-30T10:31:56.067Z</time></trkpt><trkpt lat="41.4886746" lon="2.6386647"><ele>0.0</ele><time>2026-04-30T10:31:57.067Z</time></trkpt><trkpt lat="41.4887148" lon="2.6387696"><ele>0.0</ele><time>2026-04-30T10:31:58.067Z</time></trkpt><trkpt lat="41.4887529" lon="2.6388719"><ele>0.0</ele><time>2026-04-30T10:31:59.067Z</time></trkpt><trkpt lat="41.4887888" lon="2.638971"><ele>0.0</ele><time>2026-04-30T10:32:00.067Z</time></trkpt><trkpt lat="41.4888264" lon="2.6390721"><ele>0.0</ele><time>2026-04-30T10:32:01.067Z</time></trkpt><trkpt lat="41.4889015" lon="2.6392812"><ele>0.0</ele><time>2026-04-30T10:32:03.066Z</time></trkpt><trkpt lat="41.4889341" lon="2.6393819"><ele>0.0</ele><time>2026-04-30T10:32:04.066Z</time></trkpt><trkpt lat="41.4889684" lon="2.6394818"><ele>0.0</ele><time>2026-04-30T10:32:05.066Z</time></trkpt><trkpt lat="41.489005" lon="2.6395851"><ele>0.0</ele><time>2026-04-30T10:32:06.066Z</time></trkpt><trkpt lat="41.4890444" lon="2.6396884"><ele>0.0</ele><time>2026-04-30T10:32:07.067Z</time></trkpt><trkpt lat="41.4890847" lon="2.6397914"><ele>0.0</ele><time>2026-04-30T10:32:08.066Z</time></trkpt><trkpt lat="41.4891258" lon="2.6398935"><ele>0.0</ele><time>2026-04-30T10:32:09.067Z</time></trkpt><trkpt lat="41.4891646" lon="2.6399997"><ele>0.0</ele><time>2026-04-30T10:32:10.066Z</time></trkpt><trkpt lat="41.489202" lon="2.6401031"><ele>0.0</ele><time>2026-04-30T10:32:11.066Z</time></trkpt><trkpt lat="41.4892356" lon="2.6402035"><ele>0.0</ele><time>2026-04-30T10:32:12.067Z</time></trkpt><trkpt lat="41.4892705" lon="2.6403037"><ele>0.0</ele><time>2026-04-30T10:32:13.067Z</time></trkpt><trkpt lat="41.4893065" lon="2.6404133"><ele>0.0</ele><time>2026-04-30T10:32:14.067Z</time></trkpt><trkpt lat="41.4893434" lon="2.6405166"><ele>0.0</ele><time>2026-04-30T10:32:15.066Z</time></trkpt><trkpt lat="41.4893888" lon="2.6406338"><ele>0.0</ele><time>2026-04-30T10:32:16.067Z</time></trkpt><trkpt lat="41.489431" lon="2.6407426"><ele>0.0</ele><time>2026-04-30T10:32:17.067Z</time></trkpt><trkpt lat="41.4894674" lon="2.6408468"><ele>0.0</ele><time>2026-04-30T10:32:18.066Z</time></trkpt><trkpt lat="41.4894991" lon="2.6409457"><ele>0.0</ele><time>2026-04-30T10:32:19.066Z</time></trkpt><trkpt lat="41.4895352" lon="2.6410512"><ele>0.0</ele><time>2026-04-30T10:32:20.066Z</time></trkpt><trkpt lat="41.4895686" lon="2.6411544"><ele>0.0</ele><time>2026-04-30T10:32:21.066Z</time></trkpt><trkpt lat="41.489599" lon="2.6412512"><ele>0.0</ele><time>2026-04-30T10:32:22.067Z</time></trkpt><trkpt lat="41.4896703" lon="2.6414527"><ele>0.0</ele><time>2026-04-30T10:32:24.067Z</time></trkpt><trkpt lat="41.489705" lon="2.6415519"><ele>0.0</ele><time>2026-04-30T10:32:25.067Z</time></trkpt><trkpt lat="41.4897428" lon="2.6416579"><ele>0.0</ele><time>2026-04-30T10:32:26.066Z</time></trkpt><trkpt lat="41.4897813" lon="2.6417616"><ele>0.0</ele><time>2026-04-30T10:32:27.067Z</time></trkpt><trkpt lat="41.4898199" lon="2.6418632"><ele>0.0</ele><time>2026-04-30T10:32:28.066Z</time></trkpt><trkpt lat="41.4898553" lon="2.6419664"><ele>0.0</ele><time>2026-04-30T10:32:29.066Z</time></trkpt><trkpt lat="41.4898947" lon="2.6420735"><ele>0.0</ele><time>2026-04-30T10:32:30.067Z</time></trkpt><trkpt lat="41.4899362" lon="2.6421821"><ele>0.0</ele><time>2026-04-30T10:32:31.067Z</time></trkpt><trkpt lat="41.4899692" lon="2.6422936"><ele>0.0</ele><time>2026-04-30T10:32:32.066Z</time></trkpt><trkpt lat="41.4900039" lon="2.6423967"><ele>0.0</ele><time>2026-04-30T10:32:33.067Z</time></trkpt><trkpt lat="41.4900418" lon="2.6424911"><ele>0.0</ele><time>2026-04-30T10:32:34.066Z</time></trkpt><trkpt lat="41.4900741" lon="2.6425965"><ele>0.0</ele><time>2026-04-30T10:32:35.066Z</time></trkpt><trkpt lat="41.4901103" lon="2.6427028"><ele>0.0</ele><time>2026-04-30T10:32:36.067Z</time></trkpt><trkpt lat="41.4901456" lon="2.6428069"><ele>0.0</ele><time>2026-04-30T10:32:37.066Z</time></trkpt><trkpt lat="41.4901775" lon="2.64291"><ele>0.0</ele><time>2026-04-30T10:32:38.066Z</time></trkpt><trkpt lat="41.4902121" lon="2.6430136"><ele>0.0</ele><time>2026-04-30T10:32:39.066Z</time></trkpt><trkpt lat="41.4902524" lon="2.6431172"><ele>0.0</ele><time>2026-04-30T10:32:40.066Z</time></trkpt><trkpt lat="41.4902915" lon="2.6432202"><ele>0.0</ele><time>2026-04-30T10:32:41.067Z</time></trkpt><trkpt lat="41.4903302" lon="2.6433249"><ele>0.0</ele><time>2026-04-30T10:32:42.067Z</time></trkpt><trkpt lat="41.4903683" lon="2.6434271"><ele>0.0</ele><time>2026-04-30T10:32:43.066Z</time></trkpt><trkpt lat="41.4904567" lon="2.64364"><ele>0.0</ele><time>2026-04-30T10:32:45.066Z</time></trkpt><trkpt lat="41.4904951" lon="2.6437433"><ele>0.0</ele><time>2026-04-30T10:32:46.067Z</time></trkpt><trkpt lat="41.4905345" lon="2.6438497"><ele>0.0</ele><time>2026-04-30T10:32:47.067Z</time></trkpt><trkpt lat="41.4905716" lon="2.6439549"><ele>0.0</ele><time>2026-04-30T10:32:48.066Z</time></trkpt><trkpt lat="41.4906129" lon="2.6440611"><ele>0.0</ele><time>2026-04-30T10:32:49.066Z</time></trkpt><trkpt lat="41.4906488" lon="2.6441639"><ele>0.0</ele><time>2026-04-30T10:32:50.067Z</time></trkpt><trkpt lat="41.4906902" lon="2.6442681"><ele>0.0</ele><time>2026-04-30T10:32:51.067Z</time></trkpt><trkpt lat="41.4907267" lon="2.644372"><ele>0.0</ele><time>2026-04-30T10:32:52.067Z</time></trkpt><trkpt lat="41.4907589" lon="2.6444726"><ele>0.0</ele><time>2026-04-30T10:32:53.066Z</time></trkpt><trkpt lat="41.4907964" lon="2.6445708"><ele>0.0</ele><time>2026-04-30T10:32:54.066Z</time></trkpt><trkpt lat="41.4908338" lon="2.6446708"><ele>0.0</ele><time>2026-04-30T10:32:55.066Z</time></trkpt><trkpt lat="41.4908689" lon="2.6447736"><ele>0.0</ele><time>2026-04-30T10:32:56.067Z</time></trkpt><trkpt lat="41.4909007" lon="2.6448773"><ele>0.0</ele><time>2026-04-30T10:32:57.066Z</time></trkpt><trkpt lat="41.4909371" lon="2.6449778"><ele>0.0</ele><time>2026-04-30T10:32:58.067Z</time></trkpt><trkpt lat="41.4909691" lon="2.6450803"><ele>0.0</ele><time>2026-04-30T10:32:59.066Z</time></trkpt><trkpt lat="41.4910056" lon="2.6451821"><ele>0.0</ele><time>2026-04-30T10:33:00.066Z</time></trkpt><trkpt lat="41.4910374" lon="2.6452835"><ele>0.0</ele><time>2026-04-30T10:33:01.066Z</time></trkpt><trkpt lat="41.4910691" lon="2.6453837"><ele>0.0</ele><time>2026-04-30T10:33:02.067Z</time></trkpt><trkpt lat="41.4911063" lon="2.6454864"><ele>0.0</ele><time>2026-04-30T10:33:03.067Z</time></trkpt><trkpt lat="41.4911448" lon="2.6455899"><ele>0.0</ele><time>2026-04-30T10:33:04.066Z</time></trkpt><trkpt lat="41.4912398" lon="2.6457906"><ele>0.0</ele><time>2026-04-30T10:33:06.066Z</time></trkpt><trkpt lat="41.4912769" lon="2.6458964"><ele>0.0</ele><time>2026-04-30T10:33:07.067Z</time></trkpt><trkpt lat="41.4913135" lon="2.6460089"><ele>0.0</ele><time>2026-04-30T10:33:08.066Z</time></trkpt><trkpt lat="41.4913576" lon="2.6461243"><ele>0.0</ele><time>2026-04-30T10:33:09.067Z</time></trkpt><trkpt lat="41.4913968" lon="2.6462313"><ele>0.0</ele><time>2026-04-30T10:33:10.067Z</time></trkpt><trkpt lat="41.4914307" lon="2.6463292"><ele>0.0</ele><time>2026-04-30T10:33:11.067Z</time></trkpt><trkpt lat="41.4914652" lon="2.6464303"><ele>0.0</ele><time>2026-04-30T10:33:12.066Z</time></trkpt><trkpt lat="41.4915062" lon="2.6465364"><ele>0.0</ele><time>2026-04-30T10:33:13.067Z</time></trkpt><trkpt lat="41.491545" lon="2.6466382"><ele>0.0</ele><time>2026-04-30T10:33:14.067Z</time></trkpt><trkpt lat="41.4915807" lon="2.6467359"><ele>0.0</ele><time>2026-04-30T10:33:15.066Z</time></trkpt><trkpt lat="41.49162" lon="2.646837"><ele>0.0</ele><time>2026-04-30T10:33:16.067Z</time></trkpt><trkpt lat="41.4916586" lon="2.646937"><ele>0.0</ele><time>2026-04-30T10:33:17.066Z</time></trkpt><trkpt lat="41.491697" lon="2.6470368"><ele>0.0</ele><time>2026-04-30T10:33:18.066Z</time></trkpt><trkpt lat="41.4917323" lon="2.6471389"><ele>0.0</ele><time>2026-04-30T10:33:19.066Z</time></trkpt><trkpt lat="41.4917656" lon="2.6472405"><ele>0.0</ele><time>2026-04-30T10:33:20.066Z</time></trkpt><trkpt lat="41.4917976" lon="2.6473408"><ele>0.0</ele><time>2026-04-30T10:33:21.066Z</time></trkpt><trkpt lat="41.4918309" lon="2.6474493"><ele>0.0</ele><time>2026-04-30T10:33:22.066Z</time></trkpt><trkpt lat="41.4918655" lon="2.6475595"><ele>0.0</ele><time>2026-04-30T10:33:23.067Z</time></trkpt><trkpt lat="41.4919084" lon="2.6476596"><ele>0.0</ele><time>2026-04-30T10:33:24.067Z</time></trkpt><trkpt lat="41.4919551" lon="2.6477579"><ele>0.0</ele><time>2026-04-30T10:33:25.066Z</time></trkpt><trkpt lat="41.4920423" lon="2.6479664"><ele>0.0</ele><time>2026-04-30T10:33:27.066Z</time></trkpt><trkpt lat="41.4920871" lon="2.6480724"><ele>0.0</ele><time>2026-04-30T10:33:28.066Z</time></trkpt><trkpt lat="41.4921254" lon="2.648177"><ele>0.0</ele><time>2026-04-30T10:33:29.066Z</time></trkpt><trkpt lat="41.4921605" lon="2.6482815"><ele>0.0</ele><time>2026-04-30T10:33:30.066Z</time></trkpt><trkpt lat="41.4921957" lon="2.6483821"><ele>0.0</ele><time>2026-04-30T10:33:31.067Z</time></trkpt><trkpt lat="41.4922249" lon="2.6484908"><ele>0.0</ele><time>2026-04-30T10:33:32.066Z</time></trkpt><trkpt lat="41.4922621" lon="2.6485962"><ele>0.0</ele><time>2026-04-30T10:33:33.066Z</time></trkpt><trkpt lat="41.4922988" lon="2.6486998"><ele>0.0</ele><time>2026-04-30T10:33:34.066Z</time></trkpt><trkpt lat="41.4923382" lon="2.6488018"><ele>0.0</ele><time>2026-04-30T10:33:35.066Z</time></trkpt><trkpt lat="41.4923715" lon="2.648908"><ele>0.0</ele><time>2026-04-30T10:33:36.066Z</time></trkpt><trkpt lat="41.4924045" lon="2.6490145"><ele>0.0</ele><time>2026-04-30T10:33:37.067Z</time></trkpt><trkpt lat="41.4924417" lon="2.6491172"><ele>0.0</ele><time>2026-04-30T10:33:38.066Z</time></trkpt><trkpt lat="41.4924785" lon="2.6492174"><ele>0.0</ele><time>2026-04-30T10:33:39.067Z</time></trkpt><trkpt lat="41.4925195" lon="2.6493145"><ele>0.0</ele><time>2026-04-30T10:33:40.067Z</time></trkpt><trkpt lat="41.4925585" lon="2.6494165"><ele>0.0</ele><time>2026-04-30T10:33:41.066Z</time></trkpt><trkpt lat="41.4925926" lon="2.6495183"><ele>0.0</ele><time>2026-04-30T10:33:42.067Z</time></trkpt><trkpt lat="41.4926258" lon="2.6496231"><ele>0.0</ele><time>2026-04-30T10:33:43.067Z</time></trkpt><trkpt lat="41.4926577" lon="2.6497326"><ele>0.0</ele><time>2026-04-30T10:33:44.066Z</time></trkpt><trkpt lat="41.4926922" lon="2.6498398"><ele>0.0</ele><time>2026-04-30T10:33:45.066Z</time></trkpt><trkpt lat="41.4927288" lon="2.6499405"><ele>0.0</ele><time>2026-04-30T10:33:46.066Z</time></trkpt><trkpt lat="41.4928052" lon="2.6501516"><ele>0.0</ele><time>2026-04-30T10:33:48.066Z</time></trkpt><trkpt lat="41.4928431" lon="2.6502525"><ele>0.0</ele><time>2026-04-30T10:33:49.067Z</time></trkpt><trkpt lat="41.4928773" lon="2.6503522"><ele>0.0</ele><time>2026-04-30T10:33:50.066Z</time></trkpt><trkpt lat="41.4929119" lon="2.6504571"><ele>0.0</ele><time>2026-04-30T10:33:51.067Z</time></trkpt><trkpt lat="41.4929495" lon="2.6505666"><ele>0.0</ele><time>2026-04-30T10:33:52.066Z</time></trkpt><trkpt lat="41.4929864" lon="2.6506689"><ele>0.0</ele><time>2026-04-30T10:33:53.067Z</time></trkpt><trkpt lat="41.4930275" lon="2.6507705"><ele>0.0</ele><time>2026-04-30T10:33:54.066Z</time></trkpt><trkpt lat="41.4930683" lon="2.6508756"><ele>0.0</ele><time>2026-04-30T10:33:55.067Z</time></trkpt><trkpt lat="41.4931024" lon="2.6509798"><ele>0.0</ele><time>2026-04-30T10:33:56.066Z</time></trkpt><trkpt lat="41.4931358" lon="2.6510834"><ele>0.0</ele><time>2026-04-30T10:33:57.066Z</time></trkpt><trkpt lat="41.4931729" lon="2.6511882"><ele>0.0</ele><time>2026-04-30T10:33:58.066Z</time></trkpt><trkpt lat="41.4932087" lon="2.6512932"><ele>0.0</ele><time>2026-04-30T10:33:59.066Z</time></trkpt><trkpt lat="41.4932435" lon="2.651398"><ele>0.0</ele><time>2026-04-30T10:34:00.066Z</time></trkpt><trkpt lat="41.4932784" lon="2.6515"><ele>0.0</ele><time>2026-04-30T10:34:01.066Z</time></trkpt><trkpt lat="41.4933177" lon="2.651602"><ele>0.0</ele><time>2026-04-30T10:34:02.067Z</time></trkpt><trkpt lat="41.4933521" lon="2.6517024"><ele>0.0</ele><time>2026-04-30T10:34:03.067Z</time></trkpt><trkpt lat="41.4933871" lon="2.6518008"><ele>0.0</ele><time>2026-04-30T10:34:04.066Z</time></trkpt><trkpt lat="41.493426" lon="2.6519036"><ele>0.0</ele><time>2026-04-30T10:34:05.066Z</time></trkpt><trkpt lat="41.4934636" lon="2.6520068"><ele>0.0</ele><time>2026-04-30T10:34:06.066Z</time></trkpt><trkpt lat="41.4934986" lon="2.6521117"><ele>0.0</ele><time>2026-04-30T10:34:07.066Z</time></trkpt><trkpt lat="41.4935732" lon="2.6523239"><ele>0.0</ele><time>2026-04-30T10:34:09.066Z</time></trkpt><trkpt lat="41.4936119" lon="2.6524283"><ele>0.0</ele><time>2026-04-30T10:34:10.066Z</time></trkpt><trkpt lat="41.4936503" lon="2.6525332"><ele>0.0</ele><time>2026-04-30T10:34:11.067Z</time></trkpt><trkpt lat="41.4936884" lon="2.6526369"><ele>0.0</ele><time>2026-04-30T10:34:12.067Z</time></trkpt><trkpt lat="41.4937233" lon="2.6527431"><ele>0.0</ele><time>2026-04-30T10:34:13.066Z</time></trkpt><trkpt lat="41.4937645" lon="2.6528527"><ele>0.0</ele><time>2026-04-30T10:34:14.067Z</time></trkpt><trkpt lat="41.4938018" lon="2.6529538"><ele>0.0</ele><time>2026-04-30T10:34:15.067Z</time></trkpt><trkpt lat="41.4938375" lon="2.6530542"><ele>0.0</ele><time>2026-04-30T10:34:16.066Z</time></trkpt><trkpt lat="41.4938678" lon="2.6531513"><ele>0.0</ele><time>2026-04-30T10:34:17.066Z</time></trkpt><trkpt lat="41.4938993" lon="2.6532505"><ele>0.0</ele><time>2026-04-30T10:34:18.067Z</time></trkpt><trkpt lat="41.4939353" lon="2.653359"><ele>0.0</ele><time>2026-04-30T10:34:19.067Z</time></trkpt><trkpt lat="41.4939724" lon="2.6534645"><ele>0.0</ele><time>2026-04-30T10:34:20.066Z</time></trkpt><trkpt lat="41.4940117" lon="2.6535711"><ele>0.0</ele><time>2026-04-30T10:34:21.066Z</time></trkpt><trkpt lat="41.4940485" lon="2.6536736"><ele>0.0</ele><time>2026-04-30T10:34:22.066Z</time></trkpt><trkpt lat="41.4940796" lon="2.6537782"><ele>0.0</ele><time>2026-04-30T10:34:23.066Z</time></trkpt><trkpt lat="41.4941108" lon="2.6538828"><ele>0.0</ele><time>2026-04-30T10:34:24.067Z</time></trkpt><trkpt lat="41.4941437" lon="2.6539897"><ele>0.0</ele><time>2026-04-30T10:34:25.066Z</time></trkpt><trkpt lat="41.4941784" lon="2.6540992"><ele>0.0</ele><time>2026-04-30T10:34:26.067Z</time></trkpt><trkpt lat="41.4942138" lon="2.6542041"><ele>0.0</ele><time>2026-04-30T10:34:27.067Z</time></trkpt><trkpt lat="41.4942528" lon="2.6543041"><ele>0.0</ele><time>2026-04-30T10:34:28.066Z</time></trkpt><trkpt lat="41.4943367" lon="2.6545065"><ele>0.0</ele><time>2026-04-30T10:34:30.066Z</time></trkpt><trkpt lat="41.4943862" lon="2.6546102"><ele>0.0</ele><time>2026-04-30T10:34:31.066Z</time></trkpt><trkpt lat="41.4944335" lon="2.6547112"><ele>0.0</ele><time>2026-04-30T10:34:32.065Z</time></trkpt><trkpt lat="41.4944746" lon="2.6548134"><ele>0.0</ele><time>2026-04-30T10:34:33.065Z</time></trkpt><trkpt lat="41.494516" lon="2.6549194"><ele>0.0</ele><time>2026-04-30T10:34:34.065Z</time></trkpt><trkpt lat="41.4945593" lon="2.6550246"><ele>0.0</ele><time>2026-04-30T10:34:35.066Z</time></trkpt><trkpt lat="41.4945981" lon="2.6551281"><ele>0.0</ele><time>2026-04-30T10:34:36.066Z</time></trkpt><trkpt lat="41.494642" lon="2.6552249"><ele>0.0</ele><time>2026-04-30T10:34:37.065Z</time></trkpt><trkpt lat="41.4946828" lon="2.6553269"><ele>0.0</ele><time>2026-04-30T10:34:38.065Z</time></trkpt><trkpt lat="41.4947208" lon="2.6554312"><ele>0.0</ele><time>2026-04-30T10:34:39.066Z</time></trkpt><trkpt lat="41.4947586" lon="2.6555355"><ele>0.0</ele><time>2026-04-30T10:34:40.065Z</time></trkpt><trkpt lat="41.4947911" lon="2.65564"><ele>0.0</ele><time>2026-04-30T10:34:41.066Z</time></trkpt><trkpt lat="41.4948241" lon="2.655746"><ele>0.0</ele><time>2026-04-30T10:34:42.066Z</time></trkpt><trkpt lat="41.4948603" lon="2.6558484"><ele>0.0</ele><time>2026-04-30T10:34:43.065Z</time></trkpt><trkpt lat="41.4948983" lon="2.6559489"><ele>0.0</ele><time>2026-04-30T10:34:44.066Z</time></trkpt><trkpt lat="41.4949422" lon="2.6560518"><ele>0.0</ele><time>2026-04-30T10:34:45.066Z</time></trkpt><trkpt lat="41.4949772" lon="2.6561508"><ele>0.0</ele><time>2026-04-30T10:34:46.066Z</time></trkpt><trkpt lat="41.4950108" lon="2.6562465"><ele>0.0</ele><time>2026-04-30T10:34:47.065Z</time></trkpt><trkpt lat="41.495044" lon="2.656349"><ele>0.0</ele><time>2026-04-30T10:34:48.066Z</time></trkpt><trkpt lat="41.4950842" lon="2.6564594"><ele>0.0</ele><time>2026-04-30T10:34:49.066Z</time></trkpt><trkpt lat="41.49512" lon="2.6565602"><ele>0.0</ele><time>2026-04-30T10:34:50.065Z</time></trkpt><trkpt lat="41.4951967" lon="2.6567681"><ele>0.0</ele><time>2026-04-30T10:34:52.065Z</time></trkpt><trkpt lat="41.4952337" lon="2.6568702"><ele>0.0</ele><time>2026-04-30T10:34:53.065Z</time></trkpt><trkpt lat="41.4952701" lon="2.656973"><ele>0.0</ele><time>2026-04-30T10:34:54.065Z</time></trkpt><trkpt lat="41.4953085" lon="2.6570822"><ele>0.0</ele><time>2026-04-30T10:34:55.065Z</time></trkpt><trkpt lat="41.4953466" lon="2.6571913"><ele>0.0</ele><time>2026-04-30T10:34:56.065Z</time></trkpt><trkpt lat="41.4953821" lon="2.6572941"><ele>0.0</ele><time>2026-04-30T10:34:57.065Z</time></trkpt><trkpt lat="41.4954171" lon="2.6573939"><ele>0.0</ele><time>2026-04-30T10:34:58.066Z</time></trkpt><trkpt lat="41.495452" lon="2.6574983"><ele>0.0</ele><time>2026-04-30T10:34:59.065Z</time></trkpt><trkpt lat="41.495487" lon="2.6576062"><ele>0.0</ele><time>2026-04-30T10:35:00.065Z</time></trkpt><trkpt lat="41.4955205" lon="2.6577114"><ele>0.0</ele><time>2026-04-30T10:35:01.065Z</time></trkpt><trkpt lat="41.4955522" lon="2.6578148"><ele>0.0</ele><time>2026-04-30T10:35:02.065Z</time></trkpt><trkpt lat="41.4955849" lon="2.6579195"><ele>0.0</ele><time>2026-04-30T10:35:03.066Z</time></trkpt><trkpt lat="41.4956184" lon="2.658026"><ele>0.0</ele><time>2026-04-30T10:35:04.065Z</time></trkpt><trkpt lat="41.495652" lon="2.6581315"><ele>0.0</ele><time>2026-04-30T10:35:05.066Z</time></trkpt><trkpt lat="41.4956866" lon="2.6582348"><ele>0.0</ele><time>2026-04-30T10:35:06.065Z</time></trkpt><trkpt lat="41.4957219" lon="2.6583378"><ele>0.0</ele><time>2026-04-30T10:35:07.066Z</time></trkpt><trkpt lat="41.4957599" lon="2.6584395"><ele>0.0</ele><time>2026-04-30T10:35:08.065Z</time></trkpt><trkpt lat="41.4957936" lon="2.6585414"><ele>0.0</ele><time>2026-04-30T10:35:09.066Z</time></trkpt><trkpt lat="41.4958343" lon="2.6586517"><ele>0.0</ele><time>2026-04-30T10:35:10.066Z</time></trkpt><trkpt lat="41.4958802" lon="2.6587648"><ele>0.0</ele><time>2026-04-30T10:35:11.065Z</time></trkpt><trkpt lat="41.4959681" lon="2.6589743"><ele>0.0</ele><time>2026-04-30T10:35:13.066Z</time></trkpt><trkpt lat="41.4960083" lon="2.6590736"><ele>0.0</ele><time>2026-04-30T10:35:14.065Z</time></trkpt><trkpt lat="41.496047" lon="2.6591749"><ele>0.0</ele><time>2026-04-30T10:35:15.066Z</time></trkpt><trkpt lat="41.4960837" lon="2.6592752"><ele>0.0</ele><time>2026-04-30T10:35:16.065Z</time></trkpt><trkpt lat="41.4961186" lon="2.6593801"><ele>0.0</ele><time>2026-04-30T10:35:17.066Z</time></trkpt><trkpt lat="41.4961535" lon="2.6594861"><ele>0.0</ele><time>2026-04-30T10:35:18.065Z</time></trkpt><trkpt lat="41.4961873" lon="2.6595888"><ele>0.0</ele><time>2026-04-30T10:35:19.065Z</time></trkpt><trkpt lat="41.4962098" lon="2.6596972"><ele>0.0</ele><time>2026-04-30T10:35:20.065Z</time></trkpt><trkpt lat="41.4962415" lon="2.6598059"><ele>0.0</ele><time>2026-04-30T10:35:21.065Z</time></trkpt><trkpt lat="41.4963032" lon="2.6600235"><ele>0.0</ele><time>2026-04-30T10:35:23.065Z</time></trkpt><trkpt lat="41.4963375" lon="2.6601236"><ele>0.0</ele><time>2026-04-30T10:35:24.066Z</time></trkpt><trkpt lat="41.496368" lon="2.6602266"><ele>0.0</ele><time>2026-04-30T10:35:25.065Z</time></trkpt><trkpt lat="41.4964031" lon="2.6603312"><ele>0.0</ele><time>2026-04-30T10:35:26.065Z</time></trkpt><trkpt lat="41.4964454" lon="2.6604395"><ele>0.0</ele><time>2026-04-30T10:35:27.066Z</time></trkpt><trkpt lat="41.4964887" lon="2.6605435"><ele>0.0</ele><time>2026-04-30T10:35:28.065Z</time></trkpt><trkpt lat="41.4965292" lon="2.6606403"><ele>0.0</ele><time>2026-04-30T10:35:29.066Z</time></trkpt><trkpt lat="41.4965621" lon="2.6607394"><ele>0.0</ele><time>2026-04-30T10:35:30.066Z</time></trkpt><trkpt lat="41.4966024" lon="2.6608407"><ele>0.0</ele><time>2026-04-30T10:35:31.065Z</time></trkpt><trkpt lat="41.4966427" lon="2.6609495"><ele>0.0</ele><time>2026-04-30T10:35:32.065Z</time></trkpt><trkpt lat="41.4967276" lon="2.6611616"><ele>0.0</ele><time>2026-04-30T10:35:34.066Z</time></trkpt><trkpt lat="41.4967698" lon="2.6612607"><ele>0.0</ele><time>2026-04-30T10:35:35.065Z</time></trkpt><trkpt lat="41.496814" lon="2.6613646"><ele>0.0</ele><time>2026-04-30T10:35:36.065Z</time></trkpt><trkpt lat="41.4968501" lon="2.661465"><ele>0.0</ele><time>2026-04-30T10:35:37.066Z</time></trkpt><trkpt lat="41.4968897" lon="2.6615733"><ele>0.0</ele><time>2026-04-30T10:35:38.066Z</time></trkpt><trkpt lat="41.4969252" lon="2.6616755"><ele>0.0</ele><time>2026-04-30T10:35:39.065Z</time></trkpt><trkpt lat="41.4969571" lon="2.6617796"><ele>0.0</ele><time>2026-04-30T10:35:40.065Z</time></trkpt><trkpt lat="41.4969901" lon="2.6618877"><ele>0.0</ele><time>2026-04-30T10:35:41.065Z</time></trkpt><trkpt lat="41.4970236" lon="2.6619921"><ele>0.0</ele><time>2026-04-30T10:35:42.065Z</time></trkpt><trkpt lat="41.497062" lon="2.6620978"><ele>0.0</ele><time>2026-04-30T10:35:43.066Z</time></trkpt><trkpt lat="41.497099" lon="2.6622045"><ele>0.0</ele><time>2026-04-30T10:35:44.065Z</time></trkpt><trkpt lat="41.4971363" lon="2.6623099"><ele>0.0</ele><time>2026-04-30T10:35:45.065Z</time></trkpt><trkpt lat="41.4971745" lon="2.6624124"><ele>0.0</ele><time>2026-04-30T10:35:46.065Z</time></trkpt><trkpt lat="41.4972156" lon="2.6625121"><ele>0.0</ele><time>2026-04-30T10:35:47.066Z</time></trkpt><trkpt lat="41.4972517" lon="2.6626135"><ele>0.0</ele><time>2026-04-30T10:35:48.065Z</time></trkpt><trkpt lat="41.4972926" lon="2.6627165"><ele>0.0</ele><time>2026-04-30T10:35:49.065Z</time></trkpt><trkpt lat="41.4973302" lon="2.6628198"><ele>0.0</ele><time>2026-04-30T10:35:50.065Z</time></trkpt><trkpt lat="41.4973684" lon="2.662925"><ele>0.0</ele><time>2026-04-30T10:35:51.065Z</time></trkpt><trkpt lat="41.4974085" lon="2.6630312"><ele>0.0</ele><time>2026-04-30T10:35:52.066Z</time></trkpt><trkpt lat="41.4974465" lon="2.6631382"><ele>0.0</ele><time>2026-04-30T10:35:53.066Z</time></trkpt><trkpt lat="41.4975555" lon="2.6634422"><ele>0.0</ele><time>2026-04-30T10:35:56.065Z</time></trkpt><trkpt lat="41.4975885" lon="2.6635443"><ele>0.0</ele><time>2026-04-30T10:35:57.066Z</time></trkpt><trkpt lat="41.4976252" lon="2.6636469"><ele>0.0</ele><time>2026-04-30T10:35:58.066Z</time></trkpt><trkpt lat="41.4976604" lon="2.6637519"><ele>0.0</ele><time>2026-04-30T10:35:59.065Z</time></trkpt><trkpt lat="41.4976966" lon="2.6638582"><ele>0.0</ele><time>2026-04-30T10:36:00.065Z</time></trkpt><trkpt lat="41.4977347" lon="2.6639675"><ele>0.0</ele><time>2026-04-30T10:36:01.066Z</time></trkpt><trkpt lat="41.4977703" lon="2.6640684"><ele>0.0</ele><time>2026-04-30T10:36:02.065Z</time></trkpt><trkpt lat="41.4978068" lon="2.6641714"><ele>0.0</ele><time>2026-04-30T10:36:03.065Z</time></trkpt><trkpt lat="41.4978392" lon="2.6642746"><ele>0.0</ele><time>2026-04-30T10:36:04.065Z</time></trkpt><trkpt lat="41.4978827" lon="2.6643842"><ele>0.0</ele><time>2026-04-30T10:36:05.065Z</time></trkpt><trkpt lat="41.4979143" lon="2.6644958"><ele>0.0</ele><time>2026-04-30T10:36:06.066Z</time></trkpt><trkpt lat="41.4979486" lon="2.6646019"><ele>0.0</ele><time>2026-04-30T10:36:07.065Z</time></trkpt><trkpt lat="41.4979862" lon="2.6647052"><ele>0.0</ele><time>2026-04-30T10:36:08.065Z</time></trkpt><trkpt lat="41.4980288" lon="2.6648098"><ele>0.0</ele><time>2026-04-30T10:36:09.065Z</time></trkpt><trkpt lat="41.498068" lon="2.6649105"><ele>0.0</ele><time>2026-04-30T10:36:10.065Z</time></trkpt><trkpt lat="41.4981125" lon="2.6650202"><ele>0.0</ele><time>2026-04-30T10:36:11.066Z</time></trkpt><trkpt lat="41.4981501" lon="2.665122"><ele>0.0</ele><time>2026-04-30T10:36:12.066Z</time></trkpt><trkpt lat="41.4981899" lon="2.6652291"><ele>0.0</ele><time>2026-04-30T10:36:13.066Z</time></trkpt><trkpt lat="41.4982298" lon="2.665333"><ele>0.0</ele><time>2026-04-30T10:36:14.065Z</time></trkpt><trkpt lat="41.4983067" lon="2.6655466"><ele>0.0</ele><time>2026-04-30T10:36:16.065Z</time></trkpt><trkpt lat="41.4983434" lon="2.6656514"><ele>0.0</ele><time>2026-04-30T10:36:17.065Z</time></trkpt><trkpt lat="41.4983756" lon="2.6657526"><ele>0.0</ele><time>2026-04-30T10:36:18.066Z</time></trkpt><trkpt lat="41.4984074" lon="2.6658542"><ele>0.0</ele><time>2026-04-30T10:36:19.066Z</time></trkpt><trkpt lat="41.4984417" lon="2.665958"><ele>0.0</ele><time>2026-04-30T10:36:20.066Z</time></trkpt><trkpt lat="41.4984773" lon="2.6660599"><ele>0.0</ele><time>2026-04-30T10:36:21.066Z</time></trkpt><trkpt lat="41.4985105" lon="2.6661589"><ele>0.0</ele><time>2026-04-30T10:36:22.065Z</time></trkpt><trkpt lat="41.4985435" lon="2.6662588"><ele>0.0</ele><time>2026-04-30T10:36:23.066Z</time></trkpt><trkpt lat="41.4985803" lon="2.6663601"><ele>0.0</ele><time>2026-04-30T10:36:24.066Z</time></trkpt><trkpt lat="41.4986172" lon="2.6664676"><ele>0.0</ele><time>2026-04-30T10:36:25.066Z</time></trkpt><trkpt lat="41.4986569" lon="2.6665737"><ele>0.0</ele><time>2026-04-30T10:36:26.066Z</time></trkpt><trkpt lat="41.4986976" lon="2.6666764"><ele>0.0</ele><time>2026-04-30T10:36:27.065Z</time></trkpt><trkpt lat="41.4987407" lon="2.6667842"><ele>0.0</ele><time>2026-04-30T10:36:28.066Z</time></trkpt><trkpt lat="41.4987782" lon="2.66689"><ele>0.0</ele><time>2026-04-30T10:36:29.065Z</time></trkpt><trkpt lat="41.4988088" lon="2.6669902"><ele>0.0</ele><time>2026-04-30T10:36:30.065Z</time></trkpt><trkpt lat="41.4988412" lon="2.6670905"><ele>0.0</ele><time>2026-04-30T10:36:31.065Z</time></trkpt><trkpt lat="41.4988778" lon="2.6671995"><ele>0.0</ele><time>2026-04-30T10:36:32.065Z</time></trkpt><trkpt lat="41.4989075" lon="2.6673026"><ele>0.0</ele><time>2026-04-30T10:36:33.066Z</time></trkpt><trkpt lat="41.4989343" lon="2.6674071"><ele>0.0</ele><time>2026-04-30T10:36:34.066Z</time></trkpt><trkpt lat="41.4989654" lon="2.6675152"><ele>0.0</ele><time>2026-04-30T10:36:35.066Z</time></trkpt><trkpt lat="41.4990331" lon="2.6677368"><ele>0.0</ele><time>2026-04-30T10:36:37.066Z</time></trkpt><trkpt lat="41.499071" lon="2.6678421"><ele>0.0</ele><time>2026-04-30T10:36:38.065Z</time></trkpt><trkpt lat="41.4991081" lon="2.6679442"><ele>0.0</ele><time>2026-04-30T10:36:39.066Z</time></trkpt><trkpt lat="41.4991714" lon="2.6680413"><ele>0.0</ele><time>2026-04-30T10:36:40.066Z</time></trkpt><trkpt lat="41.4992153" lon="2.6681422"><ele>0.0</ele><time>2026-04-30T10:36:41.065Z</time></trkpt><trkpt lat="41.4992542" lon="2.6682451"><ele>0.0</ele><time>2026-04-30T10:36:42.066Z</time></trkpt><trkpt lat="41.4992986" lon="2.6683472"><ele>0.0</ele><time>2026-04-30T10:36:43.065Z</time></trkpt><trkpt lat="41.4993407" lon="2.668449"><ele>0.0</ele><time>2026-04-30T10:36:44.065Z</time></trkpt><trkpt lat="41.499377" lon="2.6685478"><ele>0.0</ele><time>2026-04-30T10:36:45.066Z</time></trkpt><trkpt lat="41.4994145" lon="2.6686466"><ele>0.0</ele><time>2026-04-30T10:36:46.066Z</time></trkpt><trkpt lat="41.4994477" lon="2.6687531"><ele>0.0</ele><time>2026-04-30T10:36:47.065Z</time></trkpt><trkpt lat="41.499479" lon="2.6688542"><ele>0.0</ele><time>2026-04-30T10:36:48.066Z</time></trkpt><trkpt lat="41.4995132" lon="2.66896"><ele>0.0</ele><time>2026-04-30T10:36:49.065Z</time></trkpt><trkpt lat="41.4995442" lon="2.6690632"><ele>0.0</ele><time>2026-04-30T10:36:50.066Z</time></trkpt><trkpt lat="41.4995773" lon="2.6691661"><ele>0.0</ele><time>2026-04-30T10:36:51.066Z</time></trkpt><trkpt lat="41.4996122" lon="2.669265"><ele>0.0</ele><time>2026-04-30T10:36:52.066Z</time></trkpt><trkpt lat="41.4996475" lon="2.6693641"><ele>0.0</ele><time>2026-04-30T10:36:53.066Z</time></trkpt><trkpt lat="41.4996819" lon="2.6694764"><ele>0.0</ele><time>2026-04-30T10:36:54.065Z</time></trkpt><trkpt lat="41.4997182" lon="2.6695868"><ele>0.0</ele><time>2026-04-30T10:36:55.065Z</time></trkpt><trkpt lat="41.4997536" lon="2.6696882"><ele>0.0</ele><time>2026-04-30T10:36:56.066Z</time></trkpt><trkpt lat="41.4997841" lon="2.6697955"><ele>0.0</ele><time>2026-04-30T10:36:57.066Z</time></trkpt><trkpt lat="41.4998537" lon="2.6700036"><ele>0.0</ele><time>2026-04-30T10:36:59.065Z</time></trkpt><trkpt lat="41.4998807" lon="2.6701034"><ele>0.0</ele><time>2026-04-30T10:37:00.065Z</time></trkpt><trkpt lat="41.4999364" lon="2.6702081"><ele>0.0</ele><time>2026-04-30T10:37:01.066Z</time></trkpt><trkpt lat="41.4999864" lon="2.670316"><ele>0.0</ele><time>2026-04-30T10:37:02.065Z</time></trkpt><trkpt lat="41.500048" lon="2.6704201"><ele>0.0</ele><time>2026-04-30T10:37:03.066Z</time></trkpt><trkpt lat="41.5000885" lon="2.6705236"><ele>0.0</ele><time>2026-04-30T10:37:04.066Z</time></trkpt><trkpt lat="41.5001256" lon="2.6706242"><ele>0.0</ele><time>2026-04-30T10:37:05.065Z</time></trkpt><trkpt lat="41.5001634" lon="2.670725"><ele>0.0</ele><time>2026-04-30T10:37:06.065Z</time></trkpt><trkpt lat="41.5002059" lon="2.6708341"><ele>0.0</ele><time>2026-04-30T10:37:07.066Z</time></trkpt><trkpt lat="41.5002405" lon="2.6709379"><ele>0.0</ele><time>2026-04-30T10:37:08.066Z</time></trkpt><trkpt lat="41.500274" lon="2.6710416"><ele>0.0</ele><time>2026-04-30T10:37:09.065Z</time></trkpt><trkpt lat="41.5003076" lon="2.6711395"><ele>0.0</ele><time>2026-04-30T10:37:10.065Z</time></trkpt><trkpt lat="41.5003426" lon="2.6712363"><ele>0.0</ele><time>2026-04-30T10:37:11.065Z</time></trkpt><trkpt lat="41.5003676" lon="2.6713413"><ele>0.0</ele><time>2026-04-30T10:37:12.066Z</time></trkpt><trkpt lat="41.5004024" lon="2.6714453"><ele>0.0</ele><time>2026-04-30T10:37:13.065Z</time></trkpt><trkpt lat="41.5004388" lon="2.6715468"><ele>0.0</ele><time>2026-04-30T10:37:14.065Z</time></trkpt><trkpt lat="41.5004775" lon="2.6716472"><ele>0.0</ele><time>2026-04-30T10:37:15.065Z</time></trkpt><trkpt lat="41.5005145" lon="2.6717441"><ele>0.0</ele><time>2026-04-30T10:37:16.066Z</time></trkpt><trkpt lat="41.5005483" lon="2.6718409"><ele>0.0</ele><time>2026-04-30T10:37:17.065Z</time></trkpt><trkpt lat="41.5005724" lon="2.6719573"><ele>0.0</ele><time>2026-04-30T10:37:18.066Z</time></trkpt><trkpt lat="41.5006336" lon="2.6721743"><ele>0.0</ele><time>2026-04-30T10:37:20.065Z</time></trkpt><trkpt lat="41.5006644" lon="2.6722764"><ele>0.0</ele><time>2026-04-30T10:37:21.066Z</time></trkpt><trkpt lat="41.5007" lon="2.6723806"><ele>0.0</ele><time>2026-04-30T10:37:22.066Z</time></trkpt><trkpt lat="41.5007428" lon="2.6724906"><ele>0.0</ele><time>2026-04-30T10:37:23.065Z</time></trkpt><trkpt lat="41.5007774" lon="2.6725945"><ele>0.0</ele><time>2026-04-30T10:37:24.066Z</time></trkpt><trkpt lat="41.5008081" lon="2.6727026"><ele>0.0</ele><time>2026-04-30T10:37:25.066Z</time></trkpt><trkpt lat="41.5008467" lon="2.672804"><ele>0.0</ele><time>2026-04-30T10:37:26.066Z</time></trkpt><trkpt lat="41.5008793" lon="2.6729139"><ele>0.0</ele><time>2026-04-30T10:37:27.065Z</time></trkpt><trkpt lat="41.5009198" lon="2.6730167"><ele>0.0</ele><time>2026-04-30T10:37:28.066Z</time></trkpt><trkpt lat="41.5009607" lon="2.6731197"><ele>0.0</ele><time>2026-04-30T10:37:29.065Z</time></trkpt><trkpt lat="41.5010358" lon="2.6733159"><ele>0.0</ele><time>2026-04-30T10:37:31.066Z</time></trkpt><trkpt lat="41.5010638" lon="2.6734222"><ele>0.0</ele><time>2026-04-30T10:37:32.065Z</time></trkpt><trkpt lat="41.5011044" lon="2.6735221"><ele>0.0</ele><time>2026-04-30T10:37:33.066Z</time></trkpt><trkpt lat="41.5011609" lon="2.6736236"><ele>0.0</ele><time>2026-04-30T10:37:34.065Z</time></trkpt><trkpt lat="41.5012039" lon="2.6737319"><ele>0.0</ele><time>2026-04-30T10:37:35.065Z</time></trkpt><trkpt lat="41.5012443" lon="2.6738367"><ele>0.0</ele><time>2026-04-30T10:37:36.065Z</time></trkpt><trkpt lat="41.5012829" lon="2.6739444"><ele>0.0</ele><time>2026-04-30T10:37:37.066Z</time></trkpt><trkpt lat="41.5013191" lon="2.6740528"><ele>0.0</ele><time>2026-04-30T10:37:38.065Z</time></trkpt><trkpt lat="41.5013582" lon="2.6741655"><ele>0.0</ele><time>2026-04-30T10:37:39.065Z</time></trkpt><trkpt lat="41.5014412" lon="2.6743673"><ele>0.0</ele><time>2026-04-30T10:37:41.065Z</time></trkpt><trkpt lat="41.5014798" lon="2.674467"><ele>0.0</ele><time>2026-04-30T10:37:42.065Z</time></trkpt><trkpt lat="41.5015157" lon="2.6745737"><ele>0.0</ele><time>2026-04-30T10:37:43.065Z</time></trkpt><trkpt lat="41.5015576" lon="2.674677"><ele>0.0</ele><time>2026-04-30T10:37:44.066Z</time></trkpt><trkpt lat="41.5015908" lon="2.6747813"><ele>0.0</ele><time>2026-04-30T10:37:45.065Z</time></trkpt><trkpt lat="41.5016285" lon="2.6748805"><ele>0.0</ele><time>2026-04-30T10:37:46.065Z</time></trkpt><trkpt lat="41.5016593" lon="2.6749877"><ele>0.0</ele><time>2026-04-30T10:37:47.065Z</time></trkpt><trkpt lat="41.5016923" lon="2.6750958"><ele>0.0</ele><time>2026-04-30T10:37:48.065Z</time></trkpt><trkpt lat="41.5017197" lon="2.6752051"><ele>0.0</ele><time>2026-04-30T10:37:49.065Z</time></trkpt><trkpt lat="41.5017531" lon="2.6753101"><ele>0.0</ele><time>2026-04-30T10:37:50.065Z</time></trkpt><trkpt lat="41.5017941" lon="2.6754091"><ele>0.0</ele><time>2026-04-30T10:37:51.066Z</time></trkpt><trkpt lat="41.5018342" lon="2.6755131"><ele>0.0</ele><time>2026-04-30T10:37:52.065Z</time></trkpt><trkpt lat="41.5018785" lon="2.6756139"><ele>0.0</ele><time>2026-04-30T10:37:53.065Z</time></trkpt><trkpt lat="41.501919" lon="2.6757149"><ele>0.0</ele><time>2026-04-30T10:37:54.065Z</time></trkpt><trkpt lat="41.5019592" lon="2.6758187"><ele>0.0</ele><time>2026-04-30T10:37:55.065Z</time></trkpt><trkpt lat="41.5019967" lon="2.6759244"><ele>0.0</ele><time>2026-04-30T10:37:56.065Z</time></trkpt><trkpt lat="41.5020458" lon="2.6760243"><ele>0.0</ele><time>2026-04-30T10:37:57.066Z</time></trkpt><trkpt lat="41.502086" lon="2.6761284"><ele>0.0</ele><time>2026-04-30T10:37:58.066Z</time></trkpt><trkpt lat="41.502122" lon="2.676231"><ele>0.0</ele><time>2026-04-30T10:37:59.065Z</time></trkpt><trkpt lat="41.5021583" lon="2.6763348"><ele>0.0</ele><time>2026-04-30T10:38:00.066Z</time></trkpt><trkpt lat="41.5022053" lon="2.6764382"><ele>0.0</ele><time>2026-04-30T10:38:01.066Z</time></trkpt><trkpt lat="41.5022876" lon="2.67664"><ele>0.0</ele><time>2026-04-30T10:38:03.066Z</time></trkpt><trkpt lat="41.5023198" lon="2.6767444"><ele>0.0</ele><time>2026-04-30T10:38:04.066Z</time></trkpt><trkpt lat="41.5023542" lon="2.6768426"><ele>0.0</ele><time>2026-04-30T10:38:05.065Z</time></trkpt><trkpt lat="41.5023918" lon="2.6769495"><ele>0.0</ele><time>2026-04-30T10:38:06.066Z</time></trkpt><trkpt lat="41.5024328" lon="2.6770577"><ele>0.0</ele><time>2026-04-30T10:38:07.065Z</time></trkpt><trkpt lat="41.5024687" lon="2.6771588"><ele>0.0</ele><time>2026-04-30T10:38:08.065Z</time></trkpt><trkpt lat="41.5025109" lon="2.6772661"><ele>0.0</ele><time>2026-04-30T10:38:09.065Z</time></trkpt><trkpt lat="41.5025587" lon="2.6773719"><ele>0.0</ele><time>2026-04-30T10:38:10.066Z</time></trkpt><trkpt lat="41.5026063" lon="2.6774753"><ele>0.0</ele><time>2026-04-30T10:38:11.066Z</time></trkpt><trkpt lat="41.5026487" lon="2.6775823"><ele>0.0</ele><time>2026-04-30T10:38:12.065Z</time></trkpt><trkpt lat="41.5026855" lon="2.6776894"><ele>0.0</ele><time>2026-04-30T10:38:13.065Z</time></trkpt><trkpt lat="41.5027193" lon="2.6777846"><ele>0.0</ele><time>2026-04-30T10:38:14.066Z</time></trkpt><trkpt lat="41.5027579" lon="2.6778835"><ele>0.0</ele><time>2026-04-30T10:38:15.065Z</time></trkpt><trkpt lat="41.5027955" lon="2.6779835"><ele>0.0</ele><time>2026-04-30T10:38:16.066Z</time></trkpt><trkpt lat="41.5028349" lon="2.6780857"><ele>0.0</ele><time>2026-04-30T10:38:17.065Z</time></trkpt><trkpt lat="41.5028705" lon="2.6781845"><ele>0.0</ele><time>2026-04-30T10:38:18.066Z</time></trkpt><trkpt lat="41.5029055" lon="2.6782869"><ele>0.0</ele><time>2026-04-30T10:38:19.065Z</time></trkpt><trkpt lat="41.5029422" lon="2.6783887"><ele>0.0</ele><time>2026-04-30T10:38:20.065Z</time></trkpt><trkpt lat="41.5029772" lon="2.6784903"><ele>0.0</ele><time>2026-04-30T10:38:21.066Z</time></trkpt><trkpt lat="41.5030123" lon="2.6785935"><ele>0.0</ele><time>2026-04-30T10:38:22.066Z</time></trkpt><trkpt lat="41.5030854" lon="2.6788013"><ele>0.0</ele><time>2026-04-30T10:38:24.066Z</time></trkpt><trkpt lat="41.5031263" lon="2.678909"><ele>0.0</ele><time>2026-04-30T10:38:25.066Z</time></trkpt><trkpt lat="41.503162" lon="2.679013"><ele>0.0</ele><time>2026-04-30T10:38:26.066Z</time></trkpt><trkpt lat="41.5032013" lon="2.679122"><ele>0.0</ele><time>2026-04-30T10:38:27.065Z</time></trkpt><trkpt lat="41.5032402" lon="2.6792267"><ele>0.0</ele><time>2026-04-30T10:38:28.065Z</time></trkpt><trkpt lat="41.503277" lon="2.6793288"><ele>0.0</ele><time>2026-04-30T10:38:29.065Z</time></trkpt><trkpt lat="41.5033109" lon="2.6794279"><ele>0.0</ele><time>2026-04-30T10:38:30.066Z</time></trkpt><trkpt lat="41.5033439" lon="2.6795302"><ele>0.0</ele><time>2026-04-30T10:38:31.065Z</time></trkpt><trkpt lat="41.5033674" lon="2.6796377"><ele>0.0</ele><time>2026-04-30T10:38:32.066Z</time></trkpt><trkpt lat="41.5033902" lon="2.6797445"><ele>0.0</ele><time>2026-04-30T10:38:33.065Z</time></trkpt><trkpt lat="41.5034237" lon="2.6798479"><ele>0.0</ele><time>2026-04-30T10:38:34.066Z</time></trkpt><trkpt lat="41.5034602" lon="2.67995"><ele>0.0</ele><time>2026-04-30T10:38:35.065Z</time></trkpt><trkpt lat="41.5034981" lon="2.6800557"><ele>0.0</ele><time>2026-04-30T10:38:36.065Z</time></trkpt><trkpt lat="41.5035409" lon="2.6801616"><ele>0.0</ele><time>2026-04-30T10:38:37.066Z</time></trkpt><trkpt lat="41.5035796" lon="2.680268"><ele>0.0</ele><time>2026-04-30T10:38:38.065Z</time></trkpt><trkpt lat="41.5036141" lon="2.6803749"><ele>0.0</ele><time>2026-04-30T10:38:39.066Z</time></trkpt><trkpt lat="41.5036445" lon="2.6804858"><ele>0.0</ele><time>2026-04-30T10:38:40.065Z</time></trkpt><trkpt lat="41.5036797" lon="2.680593"><ele>0.0</ele><time>2026-04-30T10:38:41.065Z</time></trkpt><trkpt lat="41.5037212" lon="2.6806957"><ele>0.0</ele><time>2026-04-30T10:38:42.066Z</time></trkpt><trkpt lat="41.5037568" lon="2.6807943"><ele>0.0</ele><time>2026-04-30T10:38:43.066Z</time></trkpt><trkpt lat="41.5038223" lon="2.6809956"><ele>0.0</ele><time>2026-04-30T10:38:45.065Z</time></trkpt><trkpt lat="41.5038585" lon="2.6810984"><ele>0.0</ele><time>2026-04-30T10:38:46.065Z</time></trkpt><trkpt lat="41.5038978" lon="2.6812032"><ele>0.0</ele><time>2026-04-30T10:38:47.065Z</time></trkpt><trkpt lat="41.5039333" lon="2.6813057"><ele>0.0</ele><time>2026-04-30T10:38:48.066Z</time></trkpt><trkpt lat="41.5039729" lon="2.6814113"><ele>0.0</ele><time>2026-04-30T10:38:49.066Z</time></trkpt><trkpt lat="41.5040141" lon="2.6815193"><ele>0.0</ele><time>2026-04-30T10:38:50.065Z</time></trkpt><trkpt lat="41.5040589" lon="2.6816235"><ele>0.0</ele><time>2026-04-30T10:38:51.065Z</time></trkpt><trkpt lat="41.5041031" lon="2.6817275"><ele>0.0</ele><time>2026-04-30T10:38:52.065Z</time></trkpt><trkpt lat="41.5041419" lon="2.6818316"><ele>0.0</ele><time>2026-04-30T10:38:53.065Z</time></trkpt><trkpt lat="41.5041784" lon="2.681941"><ele>0.0</ele><time>2026-04-30T10:38:54.065Z</time></trkpt><trkpt lat="41.5042119" lon="2.6820463"><ele>0.0</ele><time>2026-04-30T10:38:55.066Z</time></trkpt><trkpt lat="41.5042444" lon="2.6821531"><ele>0.0</ele><time>2026-04-30T10:38:56.065Z</time></trkpt><trkpt lat="41.5042747" lon="2.6822538"><ele>0.0</ele><time>2026-04-30T10:38:57.065Z</time></trkpt><trkpt lat="41.5043057" lon="2.6823568"><ele>0.0</ele><time>2026-04-30T10:38:58.065Z</time></trkpt><trkpt lat="41.50434" lon="2.6824573"><ele>0.0</ele><time>2026-04-30T10:38:59.065Z</time></trkpt><trkpt lat="41.5043792" lon="2.6825531"><ele>0.0</ele><time>2026-04-30T10:39:00.065Z</time></trkpt><trkpt lat="41.5044125" lon="2.6826568"><ele>0.0</ele><time>2026-04-30T10:39:01.065Z</time></trkpt><trkpt lat="41.5044414" lon="2.6827659"><ele>0.0</ele><time>2026-04-30T10:39:02.065Z</time></trkpt><trkpt lat="41.5044771" lon="2.6828729"><ele>0.0</ele><time>2026-04-30T10:39:03.065Z</time></trkpt><trkpt lat="41.5045035" lon="2.6829836"><ele>0.0</ele><time>2026-04-30T10:39:04.064Z</time></trkpt><trkpt lat="41.5045353" lon="2.6830855"><ele>0.0</ele><time>2026-04-30T10:39:05.065Z</time></trkpt><trkpt lat="41.5046128" lon="2.6833009"><ele>0.0</ele><time>2026-04-30T10:39:07.065Z</time></trkpt><trkpt lat="41.5046543" lon="2.6834105"><ele>0.0</ele><time>2026-04-30T10:39:08.064Z</time></trkpt><trkpt lat="41.5046993" lon="2.6835164"><ele>0.0</ele><time>2026-04-30T10:39:09.064Z</time></trkpt><trkpt lat="41.5047394" lon="2.6836175"><ele>0.0</ele><time>2026-04-30T10:39:10.064Z</time></trkpt><trkpt lat="41.5047748" lon="2.6837228"><ele>0.0</ele><time>2026-04-30T10:39:11.064Z</time></trkpt><trkpt lat="41.5048128" lon="2.6838271"><ele>0.0</ele><time>2026-04-30T10:39:12.064Z</time></trkpt><trkpt lat="41.5048487" lon="2.6839275"><ele>0.0</ele><time>2026-04-30T10:39:13.065Z</time></trkpt><trkpt lat="41.504887" lon="2.6840344"><ele>0.0</ele><time>2026-04-30T10:39:14.065Z</time></trkpt><trkpt lat="41.5049296" lon="2.6841414"><ele>0.0</ele><time>2026-04-30T10:39:15.065Z</time></trkpt><trkpt lat="41.5049784" lon="2.6842424"><ele>0.0</ele><time>2026-04-30T10:39:16.064Z</time></trkpt><trkpt lat="41.5050099" lon="2.6843446"><ele>0.0</ele><time>2026-04-30T10:39:17.064Z</time></trkpt><trkpt lat="41.5050413" lon="2.6844542"><ele>0.0</ele><time>2026-04-30T10:39:18.065Z</time></trkpt><trkpt lat="41.5050757" lon="2.6845571"><ele>0.0</ele><time>2026-04-30T10:39:19.064Z</time></trkpt><trkpt lat="41.5051106" lon="2.6846575"><ele>0.0</ele><time>2026-04-30T10:39:20.064Z</time></trkpt><trkpt lat="41.5051415" lon="2.6847623"><ele>0.0</ele><time>2026-04-30T10:39:21.065Z</time></trkpt><trkpt lat="41.5051801" lon="2.6848634"><ele>0.0</ele><time>2026-04-30T10:39:22.064Z</time></trkpt><trkpt lat="41.5052176" lon="2.6849637"><ele>0.0</ele><time>2026-04-30T10:39:23.064Z</time></trkpt><trkpt lat="41.5052554" lon="2.6850649"><ele>0.0</ele><time>2026-04-30T10:39:24.065Z</time></trkpt><trkpt lat="41.5052994" lon="2.685171"><ele>0.0</ele><time>2026-04-30T10:39:25.064Z</time></trkpt><trkpt lat="41.5053402" lon="2.6852759"><ele>0.0</ele><time>2026-04-30T10:39:26.064Z</time></trkpt><trkpt lat="41.5054071" lon="2.6854793"><ele>0.0</ele><time>2026-04-30T10:39:28.064Z</time></trkpt><trkpt lat="41.505445" lon="2.6855805"><ele>0.0</ele><time>2026-04-30T10:39:29.064Z</time></trkpt><trkpt lat="41.5054806" lon="2.6856852"><ele>0.0</ele><time>2026-04-30T10:39:30.065Z</time></trkpt><trkpt lat="41.5055125" lon="2.6857872"><ele>0.0</ele><time>2026-04-30T10:39:31.065Z</time></trkpt><trkpt lat="41.5055485" lon="2.6858968"><ele>0.0</ele><time>2026-04-30T10:39:32.064Z</time></trkpt><trkpt lat="41.5055851" lon="2.6860039"><ele>0.0</ele><time>2026-04-30T10:39:33.064Z</time></trkpt><trkpt lat="41.5056233" lon="2.6861113"><ele>0.0</ele><time>2026-04-30T10:39:34.064Z</time></trkpt><trkpt lat="41.5056588" lon="2.6862124"><ele>0.0</ele><time>2026-04-30T10:39:35.065Z</time></trkpt><trkpt lat="41.5056952" lon="2.6863164"><ele>0.0</ele><time>2026-04-30T10:39:36.064Z</time></trkpt><trkpt lat="41.5057304" lon="2.6864227"><ele>0.0</ele><time>2026-04-30T10:39:37.064Z</time></trkpt><trkpt lat="41.505768" lon="2.6865277"><ele>0.0</ele><time>2026-04-30T10:39:38.064Z</time></trkpt><trkpt lat="41.5058062" lon="2.6866342"><ele>0.0</ele><time>2026-04-30T10:39:39.064Z</time></trkpt><trkpt lat="41.505846" lon="2.6867396"><ele>0.0</ele><time>2026-04-30T10:39:40.065Z</time></trkpt><trkpt lat="41.5058902" lon="2.6868461"><ele>0.0</ele><time>2026-04-30T10:39:41.065Z</time></trkpt><trkpt lat="41.5059248" lon="2.6869544"><ele>0.0</ele><time>2026-04-30T10:39:42.065Z</time></trkpt><trkpt lat="41.5059612" lon="2.6870559"><ele>0.0</ele><time>2026-04-30T10:39:43.064Z</time></trkpt><trkpt lat="41.5060021" lon="2.6871558"><ele>0.0</ele><time>2026-04-30T10:39:44.065Z</time></trkpt><trkpt lat="41.5060579" lon="2.6872546"><ele>0.0</ele><time>2026-04-30T10:39:45.065Z</time></trkpt><trkpt lat="41.506095" lon="2.6873587"><ele>0.0</ele><time>2026-04-30T10:39:46.065Z</time></trkpt><trkpt lat="41.5061289" lon="2.6874623"><ele>0.0</ele><time>2026-04-30T10:39:47.065Z</time></trkpt><trkpt lat="41.5062017" lon="2.6876731"><ele>0.0</ele><time>2026-04-30T10:39:49.064Z</time></trkpt><trkpt lat="41.5062412" lon="2.6877756"><ele>0.0</ele><time>2026-04-30T10:39:50.064Z</time></trkpt><trkpt lat="41.5062784" lon="2.6878736"><ele>0.0</ele><time>2026-04-30T10:39:51.064Z</time></trkpt><trkpt lat="41.5063094" lon="2.6879735"><ele>0.0</ele><time>2026-04-30T10:39:52.064Z</time></trkpt><trkpt lat="41.5063425" lon="2.6880752"><ele>0.0</ele><time>2026-04-30T10:39:53.064Z</time></trkpt><trkpt lat="41.5063729" lon="2.68818"><ele>0.0</ele><time>2026-04-30T10:39:54.064Z</time></trkpt><trkpt lat="41.5064029" lon="2.6882892"><ele>0.0</ele><time>2026-04-30T10:39:55.064Z</time></trkpt><trkpt lat="41.5064371" lon="2.6883991"><ele>0.0</ele><time>2026-04-30T10:39:56.064Z</time></trkpt><trkpt lat="41.5064719" lon="2.6885019"><ele>0.0</ele><time>2026-04-30T10:39:57.064Z</time></trkpt><trkpt lat="41.5065071" lon="2.6886111"><ele>0.0</ele><time>2026-04-30T10:39:58.065Z</time></trkpt><trkpt lat="41.5065426" lon="2.6887182"><ele>0.0</ele><time>2026-04-30T10:39:59.064Z</time></trkpt><trkpt lat="41.5065788" lon="2.6888263"><ele>0.0</ele><time>2026-04-30T10:40:00.065Z</time></trkpt><trkpt lat="41.5066166" lon="2.6889318"><ele>0.0</ele><time>2026-04-30T10:40:01.065Z</time></trkpt><trkpt lat="41.5066604" lon="2.6890339"><ele>0.0</ele><time>2026-04-30T10:40:02.064Z</time></trkpt><trkpt lat="41.5067013" lon="2.6891371"><ele>0.0</ele><time>2026-04-30T10:40:03.064Z</time></trkpt><trkpt lat="41.5067385" lon="2.6892368"><ele>0.0</ele><time>2026-04-30T10:40:04.065Z</time></trkpt><trkpt lat="41.5067769" lon="2.6893386"><ele>0.0</ele><time>2026-04-30T10:40:05.065Z</time></trkpt><trkpt lat="41.5068152" lon="2.6894403"><ele>0.0</ele><time>2026-04-30T10:40:06.064Z</time></trkpt><trkpt lat="41.5068552" lon="2.6895434"><ele>0.0</ele><time>2026-04-30T10:40:07.065Z</time></trkpt><trkpt lat="41.5068933" lon="2.6896447"><ele>0.0</ele><time>2026-04-30T10:40:08.065Z</time></trkpt><trkpt lat="41.5069704" lon="2.6898597"><ele>0.0</ele><time>2026-04-30T10:40:10.065Z</time></trkpt><trkpt lat="41.5070115" lon="2.6899692"><ele>0.0</ele><time>2026-04-30T10:40:11.064Z</time></trkpt><trkpt lat="41.5070528" lon="2.6900819"><ele>0.0</ele><time>2026-04-30T10:40:12.065Z</time></trkpt><trkpt lat="41.5070884" lon="2.6901866"><ele>0.0</ele><time>2026-04-30T10:40:13.064Z</time></trkpt><trkpt lat="41.5071224" lon="2.6902893"><ele>0.0</ele><time>2026-04-30T10:40:14.064Z</time></trkpt><trkpt lat="41.5071551" lon="2.6903932"><ele>0.0</ele><time>2026-04-30T10:40:15.065Z</time></trkpt><trkpt lat="41.50719" lon="2.690497"><ele>0.0</ele><time>2026-04-30T10:40:16.065Z</time></trkpt><trkpt lat="41.5072236" lon="2.6906004"><ele>0.0</ele><time>2026-04-30T10:40:17.065Z</time></trkpt><trkpt lat="41.5072656" lon="2.6907028"><ele>0.0</ele><time>2026-04-30T10:40:18.064Z</time></trkpt><trkpt lat="41.5073102" lon="2.690804"><ele>0.0</ele><time>2026-04-30T10:40:19.065Z</time></trkpt><trkpt lat="41.5073571" lon="2.6909056"><ele>0.0</ele><time>2026-04-30T10:40:20.064Z</time></trkpt><trkpt lat="41.5073913" lon="2.6910071"><ele>0.0</ele><time>2026-04-30T10:40:21.064Z</time></trkpt><trkpt lat="41.5074366" lon="2.69111"><ele>0.0</ele><time>2026-04-30T10:40:22.064Z</time></trkpt><trkpt lat="41.5074704" lon="2.6912118"><ele>0.0</ele><time>2026-04-30T10:40:23.065Z</time></trkpt><trkpt lat="41.507508" lon="2.6913107"><ele>0.0</ele><time>2026-04-30T10:40:24.065Z</time></trkpt><trkpt lat="41.5075426" lon="2.691415"><ele>0.0</ele><time>2026-04-30T10:40:25.065Z</time></trkpt><trkpt lat="41.5075828" lon="2.6915188"><ele>0.0</ele><time>2026-04-30T10:40:26.064Z</time></trkpt><trkpt lat="41.5076187" lon="2.6916162"><ele>0.0</ele><time>2026-04-30T10:40:27.064Z</time></trkpt><trkpt lat="41.5076508" lon="2.6917159"><ele>0.0</ele><time>2026-04-30T10:40:28.065Z</time></trkpt><trkpt lat="41.5076796" lon="2.6918239"><ele>0.0</ele><time>2026-04-30T10:40:29.064Z</time></trkpt><trkpt lat="41.5077503" lon="2.6920375"><ele>0.0</ele><time>2026-04-30T10:40:31.065Z</time></trkpt><trkpt lat="41.5077869" lon="2.6921428"><ele>0.0</ele><time>2026-04-30T10:40:32.064Z</time></trkpt><trkpt lat="41.5078245" lon="2.6922565"><ele>0.0</ele><time>2026-04-30T10:40:33.064Z</time></trkpt><trkpt lat="41.5078586" lon="2.6923634"><ele>0.0</ele><time>2026-04-30T10:40:34.064Z</time></trkpt><trkpt lat="41.5078977" lon="2.6924651"><ele>0.0</ele><time>2026-04-30T10:40:35.065Z</time></trkpt><trkpt lat="41.5079321" lon="2.6925751"><ele>0.0</ele><time>2026-04-30T10:40:36.065Z</time></trkpt><trkpt lat="41.5079627" lon="2.692684"><ele>0.0</ele><time>2026-04-30T10:40:37.064Z</time></trkpt><trkpt lat="41.5079928" lon="2.6927939"><ele>0.0</ele><time>2026-04-30T10:40:38.064Z</time></trkpt><trkpt lat="41.5080269" lon="2.6928998"><ele>0.0</ele><time>2026-04-30T10:40:39.064Z</time></trkpt><trkpt lat="41.5080664" lon="2.6930047"><ele>0.0</ele><time>2026-04-30T10:40:40.064Z</time></trkpt><trkpt lat="41.5080992" lon="2.693111"><ele>0.0</ele><time>2026-04-30T10:40:41.065Z</time></trkpt><trkpt lat="41.5081313" lon="2.6932148"><ele>0.0</ele><time>2026-04-30T10:40:42.064Z</time></trkpt><trkpt lat="41.5081671" lon="2.6933169"><ele>0.0</ele><time>2026-04-30T10:40:43.064Z</time></trkpt><trkpt lat="41.5082053" lon="2.6934202"><ele>0.0</ele><time>2026-04-30T10:40:44.064Z</time></trkpt><trkpt lat="41.5082398" lon="2.6935248"><ele>0.0</ele><time>2026-04-30T10:40:45.064Z</time></trkpt><trkpt lat="41.5082751" lon="2.6936312"><ele>0.0</ele><time>2026-04-30T10:40:46.065Z</time></trkpt><trkpt lat="41.5083112" lon="2.693738"><ele>0.0</ele><time>2026-04-30T10:40:47.065Z</time></trkpt><trkpt lat="41.5083651" lon="2.6938382"><ele>0.0</ele><time>2026-04-30T10:40:48.064Z</time></trkpt><trkpt lat="41.5084072" lon="2.6939375"><ele>0.0</ele><time>2026-04-30T10:40:49.064Z</time></trkpt><trkpt lat="41.508443" lon="2.6940387"><ele>0.0</ele><time>2026-04-30T10:40:50.064Z</time></trkpt><trkpt lat="41.5085132" lon="2.6942459"><ele>0.0</ele><time>2026-04-30T10:40:52.065Z</time></trkpt><trkpt lat="41.5085499" lon="2.6943498"><ele>0.0</ele><time>2026-04-30T10:40:53.064Z</time></trkpt><trkpt lat="41.5085865" lon="2.6944518"><ele>0.0</ele><time>2026-04-30T10:40:54.064Z</time></trkpt><trkpt lat="41.5086177" lon="2.6945581"><ele>0.0</ele><time>2026-04-30T10:40:55.065Z</time></trkpt><trkpt lat="41.5086523" lon="2.6946603"><ele>0.0</ele><time>2026-04-30T10:40:56.064Z</time></trkpt><trkpt lat="41.5086958" lon="2.6947637"><ele>0.0</ele><time>2026-04-30T10:40:57.065Z</time></trkpt><trkpt lat="41.5087306" lon="2.6948682"><ele>0.0</ele><time>2026-04-30T10:40:58.065Z</time></trkpt><trkpt lat="41.5087611" lon="2.6949733"><ele>0.0</ele><time>2026-04-30T10:40:59.064Z</time></trkpt><trkpt lat="41.5087939" lon="2.6950809"><ele>0.0</ele><time>2026-04-30T10:41:00.064Z</time></trkpt><trkpt lat="41.5088276" lon="2.6951811"><ele>0.0</ele><time>2026-04-30T10:41:01.064Z</time></trkpt><trkpt lat="41.5088548" lon="2.6952854"><ele>0.0</ele><time>2026-04-30T10:41:02.064Z</time></trkpt><trkpt lat="41.5088885" lon="2.6953857"><ele>0.0</ele><time>2026-04-30T10:41:03.064Z</time></trkpt><trkpt lat="41.5089309" lon="2.6954899"><ele>0.0</ele><time>2026-04-30T10:41:04.064Z</time></trkpt><trkpt lat="41.5089654" lon="2.6955909"><ele>0.0</ele><time>2026-04-30T10:41:05.064Z</time></trkpt><trkpt lat="41.5090001" lon="2.6956938"><ele>0.0</ele><time>2026-04-30T10:41:06.065Z</time></trkpt><trkpt lat="41.5090337" lon="2.6957959"><ele>0.0</ele><time>2026-04-30T10:41:07.064Z</time></trkpt><trkpt lat="41.5090717" lon="2.6958972"><ele>0.0</ele><time>2026-04-30T10:41:08.064Z</time></trkpt><trkpt lat="41.5091099" lon="2.6960013"><ele>0.0</ele><time>2026-04-30T10:41:09.064Z</time></trkpt><trkpt lat="41.5091499" lon="2.6961007"><ele>0.0</ele><time>2026-04-30T10:41:10.064Z</time></trkpt><trkpt lat="41.5091843" lon="2.6962078"><ele>0.0</ele><time>2026-04-30T10:41:11.064Z</time></trkpt><trkpt lat="41.5093279" lon="2.6965106"><ele>0.0</ele><time>2026-04-30T10:41:14.064Z</time></trkpt><trkpt lat="41.509365" lon="2.6966152"><ele>0.0</ele><time>2026-04-30T10:41:15.065Z</time></trkpt><trkpt lat="41.5094117" lon="2.69672"><ele>0.0</ele><time>2026-04-30T10:41:16.064Z</time></trkpt><trkpt lat="41.5094512" lon="2.6968248"><ele>0.0</ele><time>2026-04-30T10:41:17.065Z</time></trkpt><trkpt lat="41.509487" lon="2.6969269"><ele>0.0</ele><time>2026-04-30T10:41:18.065Z</time></trkpt><trkpt lat="41.5095329" lon="2.6970299"><ele>0.0</ele><time>2026-04-30T10:41:19.064Z</time></trkpt><trkpt lat="41.5095744" lon="2.6971377"><ele>0.0</ele><time>2026-04-30T10:41:20.064Z</time></trkpt><trkpt lat="41.5096092" lon="2.697243"><ele>0.0</ele><time>2026-04-30T10:41:21.064Z</time></trkpt><trkpt lat="41.5096426" lon="2.6973482"><ele>0.0</ele><time>2026-04-30T10:41:22.064Z</time></trkpt><trkpt lat="41.5096674" lon="2.6974547"><ele>0.0</ele><time>2026-04-30T10:41:23.065Z</time></trkpt><trkpt lat="41.5097037" lon="2.6975571"><ele>0.0</ele><time>2026-04-30T10:41:24.065Z</time></trkpt><trkpt lat="41.5097386" lon="2.697663"><ele>0.0</ele><time>2026-04-30T10:41:25.064Z</time></trkpt><trkpt lat="41.5097738" lon="2.6977668"><ele>0.0</ele><time>2026-04-30T10:41:26.064Z</time></trkpt><trkpt lat="41.5098132" lon="2.697872"><ele>0.0</ele><time>2026-04-30T10:41:27.065Z</time></trkpt><trkpt lat="41.509849" lon="2.6979723"><ele>0.0</ele><time>2026-04-30T10:41:28.065Z</time></trkpt><trkpt lat="41.5098839" lon="2.6980802"><ele>0.0</ele><time>2026-04-30T10:41:29.064Z</time></trkpt><trkpt lat="41.5099234" lon="2.6981893"><ele>0.0</ele><time>2026-04-30T10:41:30.064Z</time></trkpt><trkpt lat="41.5099576" lon="2.6982951"><ele>0.0</ele><time>2026-04-30T10:41:31.065Z</time></trkpt><trkpt lat="41.5099935" lon="2.6983959"><ele>0.0</ele><time>2026-04-30T10:41:32.065Z</time></trkpt><trkpt lat="41.5100298" lon="2.6984986"><ele>0.0</ele><time>2026-04-30T10:41:33.064Z</time></trkpt><trkpt lat="41.5101041" lon="2.6987135"><ele>0.0</ele><time>2026-04-30T10:41:35.064Z</time></trkpt><trkpt lat="41.5101413" lon="2.6988129"><ele>0.0</ele><time>2026-04-30T10:41:36.064Z</time></trkpt><trkpt lat="41.5101795" lon="2.6989183"><ele>0.0</ele><time>2026-04-30T10:41:37.065Z</time></trkpt><trkpt lat="41.5102279" lon="2.6990229"><ele>0.0</ele><time>2026-04-30T10:41:38.064Z</time></trkpt><trkpt lat="41.5102694" lon="2.6991255"><ele>0.0</ele><time>2026-04-30T10:41:39.064Z</time></trkpt><trkpt lat="41.5103122" lon="2.6992286"><ele>0.0</ele><time>2026-04-30T10:41:40.065Z</time></trkpt><trkpt lat="41.5103585" lon="2.6993306"><ele>0.0</ele><time>2026-04-30T10:41:41.065Z</time></trkpt><trkpt lat="41.5103978" lon="2.6994364"><ele>0.0</ele><time>2026-04-30T10:41:42.064Z</time></trkpt><trkpt lat="41.5104383" lon="2.6995348"><ele>0.0</ele><time>2026-04-30T10:41:43.065Z</time></trkpt><trkpt lat="41.5105036" lon="2.6997467"><ele>0.0</ele><time>2026-04-30T10:41:45.065Z</time></trkpt><trkpt lat="41.5105371" lon="2.6998483"><ele>0.0</ele><time>2026-04-30T10:41:46.064Z</time></trkpt><trkpt lat="41.510576" lon="2.6999498"><ele>0.0</ele><time>2026-04-30T10:41:47.065Z</time></trkpt><trkpt lat="41.5106118" lon="2.7000535"><ele>0.0</ele><time>2026-04-30T10:41:48.065Z</time></trkpt><trkpt lat="41.5106451" lon="2.7001585"><ele>0.0</ele><time>2026-04-30T10:41:49.065Z</time></trkpt><trkpt lat="41.5106767" lon="2.7002704"><ele>0.0</ele><time>2026-04-30T10:41:50.064Z</time></trkpt><trkpt lat="41.5107057" lon="2.7003791"><ele>0.0</ele><time>2026-04-30T10:41:51.064Z</time></trkpt><trkpt lat="41.5107373" lon="2.7004848"><ele>0.0</ele><time>2026-04-30T10:41:52.065Z</time></trkpt><trkpt lat="41.5107689" lon="2.7005871"><ele>0.0</ele><time>2026-04-30T10:41:53.065Z</time></trkpt><trkpt lat="41.5107978" lon="2.7006931"><ele>0.0</ele><time>2026-04-30T10:41:54.064Z</time></trkpt><trkpt lat="41.510859" lon="2.700903"><ele>0.0</ele><time>2026-04-30T10:41:56.065Z</time></trkpt><trkpt lat="41.5108918" lon="2.7010038"><ele>0.0</ele><time>2026-04-30T10:41:57.064Z</time></trkpt><trkpt lat="41.5109273" lon="2.70111"><ele>0.0</ele><time>2026-04-30T10:41:58.065Z</time></trkpt><trkpt lat="41.5109606" lon="2.7012134"><ele>0.0</ele><time>2026-04-30T10:41:59.065Z</time></trkpt><trkpt lat="41.510987" lon="2.7013151"><ele>0.0</ele><time>2026-04-30T10:42:00.064Z</time></trkpt><trkpt lat="41.5110185" lon="2.7014224"><ele>0.0</ele><time>2026-04-30T10:42:01.064Z</time></trkpt><trkpt lat="41.5110494" lon="2.7015284"><ele>0.0</ele><time>2026-04-30T10:42:02.065Z</time></trkpt><trkpt lat="41.5110951" lon="2.7016264"><ele>0.0</ele><time>2026-04-30T10:42:03.064Z</time></trkpt><trkpt lat="41.5111305" lon="2.7017287"><ele>0.0</ele><time>2026-04-30T10:42:04.065Z</time></trkpt><trkpt lat="41.511165" lon="2.7018373"><ele>0.0</ele><time>2026-04-30T10:42:05.064Z</time></trkpt><trkpt lat="41.5112128" lon="2.7019462"><ele>0.0</ele><time>2026-04-30T10:42:06.064Z</time></trkpt><trkpt lat="41.5112529" lon="2.7020488"><ele>0.0</ele><time>2026-04-30T10:42:07.064Z</time></trkpt><trkpt lat="41.5112982" lon="2.7021472"><ele>0.0</ele><time>2026-04-30T10:42:08.064Z</time></trkpt><trkpt lat="41.5113324" lon="2.7022501"><ele>0.0</ele><time>2026-04-30T10:42:09.065Z</time></trkpt><trkpt lat="41.5113698" lon="2.7023477"><ele>0.0</ele><time>2026-04-30T10:42:10.065Z</time></trkpt><trkpt lat="41.5114032" lon="2.702449"><ele>0.0</ele><time>2026-04-30T10:42:11.065Z</time></trkpt><trkpt lat="41.5114387" lon="2.7025573"><ele>0.0</ele><time>2026-04-30T10:42:12.065Z</time></trkpt><trkpt lat="41.5114852" lon="2.702663"><ele>0.0</ele><time>2026-04-30T10:42:13.064Z</time></trkpt><trkpt lat="41.5115332" lon="2.7027682"><ele>0.0</ele><time>2026-04-30T10:42:14.064Z</time></trkpt><trkpt lat="41.5115747" lon="2.7028704"><ele>0.0</ele><time>2026-04-30T10:42:15.064Z</time></trkpt><trkpt lat="41.511647" lon="2.7030672"><ele>0.0</ele><time>2026-04-30T10:42:17.065Z</time></trkpt><trkpt lat="41.5116867" lon="2.7031701"><ele>0.0</ele><time>2026-04-30T10:42:18.064Z</time></trkpt><trkpt lat="41.5117252" lon="2.7032762"><ele>0.0</ele><time>2026-04-30T10:42:19.064Z</time></trkpt><trkpt lat="41.5117605" lon="2.7033843"><ele>0.0</ele><time>2026-04-30T10:42:20.065Z</time></trkpt><trkpt lat="41.5117937" lon="2.703497"><ele>0.0</ele><time>2026-04-30T10:42:21.064Z</time></trkpt><trkpt lat="41.5118239" lon="2.7036016"><ele>0.0</ele><time>2026-04-30T10:42:22.064Z</time></trkpt><trkpt lat="41.5118586" lon="2.7037051"><ele>0.0</ele><time>2026-04-30T10:42:23.064Z</time></trkpt><trkpt lat="41.5118934" lon="2.7038095"><ele>0.0</ele><time>2026-04-30T10:42:24.064Z</time></trkpt><trkpt lat="41.5119268" lon="2.7039158"><ele>0.0</ele><time>2026-04-30T10:42:25.065Z</time></trkpt><trkpt lat="41.5119616" lon="2.7040254"><ele>0.0</ele><time>2026-04-30T10:42:26.065Z</time></trkpt><trkpt lat="41.5119994" lon="2.7041272"><ele>0.0</ele><time>2026-04-30T10:42:27.065Z</time></trkpt><trkpt lat="41.5120393" lon="2.7042286"><ele>0.0</ele><time>2026-04-30T10:42:28.065Z</time></trkpt><trkpt lat="41.5120811" lon="2.70433"><ele>0.0</ele><time>2026-04-30T10:42:29.065Z</time></trkpt><trkpt lat="41.512124" lon="2.7044318"><ele>0.0</ele><time>2026-04-30T10:42:30.064Z</time></trkpt><trkpt lat="41.5121644" lon="2.7045319"><ele>0.0</ele><time>2026-04-30T10:42:31.065Z</time></trkpt><trkpt lat="41.5122079" lon="2.7046365"><ele>0.0</ele><time>2026-04-30T10:42:32.065Z</time></trkpt><trkpt lat="41.5122496" lon="2.7047353"><ele>0.0</ele><time>2026-04-30T10:42:33.065Z</time></trkpt><trkpt lat="41.5122982" lon="2.7048368"><ele>0.0</ele><time>2026-04-30T10:42:34.065Z</time></trkpt><trkpt lat="41.512344" lon="2.7049383"><ele>0.0</ele><time>2026-04-30T10:42:35.064Z</time></trkpt><trkpt lat="41.5123838" lon="2.7050375"><ele>0.0</ele><time>2026-04-30T10:42:36.065Z</time></trkpt><trkpt lat="41.5124492" lon="2.7052391"><ele>0.0</ele><time>2026-04-30T10:42:38.065Z</time></trkpt><trkpt lat="41.5124796" lon="2.7053402"><ele>0.0</ele><time>2026-04-30T10:42:39.065Z</time></trkpt><trkpt lat="41.5125152" lon="2.7054485"><ele>0.0</ele><time>2026-04-30T10:42:40.065Z</time></trkpt><trkpt lat="41.5125512" lon="2.7055533"><ele>0.0</ele><time>2026-04-30T10:42:41.065Z</time></trkpt><trkpt lat="41.5125912" lon="2.7056566"><ele>0.0</ele><time>2026-04-30T10:42:42.065Z</time></trkpt><trkpt lat="41.5126288" lon="2.7057654"><ele>0.0</ele><time>2026-04-30T10:42:43.064Z</time></trkpt><trkpt lat="41.5126678" lon="2.7058746"><ele>0.0</ele><time>2026-04-30T10:42:44.065Z</time></trkpt><trkpt lat="41.512705" lon="2.7059825"><ele>0.0</ele><time>2026-04-30T10:42:45.064Z</time></trkpt><trkpt lat="41.512743" lon="2.706085"><ele>0.0</ele><time>2026-04-30T10:42:46.064Z</time></trkpt><trkpt lat="41.5127774" lon="2.7061866"><ele>0.0</ele><time>2026-04-30T10:42:47.065Z</time></trkpt><trkpt lat="41.5128095" lon="2.7062912"><ele>0.0</ele><time>2026-04-30T10:42:48.065Z</time></trkpt><trkpt lat="41.5128395" lon="2.7063966"><ele>0.0</ele><time>2026-04-30T10:42:49.064Z</time></trkpt><trkpt lat="41.5128684" lon="2.7065015"><ele>0.0</ele><time>2026-04-30T10:42:50.064Z</time></trkpt><trkpt lat="41.5128965" lon="2.706608"><ele>0.0</ele><time>2026-04-30T10:42:51.064Z</time></trkpt><trkpt lat="41.5129258" lon="2.7067133"><ele>0.0</ele><time>2026-04-30T10:42:52.065Z</time></trkpt><trkpt lat="41.5129546" lon="2.7068187"><ele>0.0</ele><time>2026-04-30T10:42:53.065Z</time></trkpt><trkpt lat="41.5129811" lon="2.706925"><ele>0.0</ele><time>2026-04-30T10:42:54.065Z</time></trkpt><trkpt lat="41.5130105" lon="2.7070302"><ele>0.0</ele><time>2026-04-30T10:42:55.065Z</time></trkpt><trkpt lat="41.5130384" lon="2.707135"><ele>0.0</ele><time>2026-04-30T10:42:56.065Z</time></trkpt><trkpt lat="41.5130685" lon="2.7072398"><ele>0.0</ele><time>2026-04-30T10:42:57.064Z</time></trkpt><trkpt lat="41.5131399" lon="2.7074563"><ele>0.0</ele><time>2026-04-30T10:42:59.064Z</time></trkpt><trkpt lat="41.5131753" lon="2.7075631"><ele>0.0</ele><time>2026-04-30T10:43:00.064Z</time></trkpt><trkpt lat="41.5132158" lon="2.7076624"><ele>0.0</ele><time>2026-04-30T10:43:01.064Z</time></trkpt><trkpt lat="41.5132515" lon="2.7077637"><ele>0.0</ele><time>2026-04-30T10:43:02.065Z</time></trkpt><trkpt lat="41.5132898" lon="2.7078693"><ele>0.0</ele><time>2026-04-30T10:43:03.065Z</time></trkpt><trkpt lat="41.5133266" lon="2.7079748"><ele>0.0</ele><time>2026-04-30T10:43:04.064Z</time></trkpt><trkpt lat="41.5133601" lon="2.7080795"><ele>0.0</ele><time>2026-04-30T10:43:05.065Z</time></trkpt><trkpt lat="41.5134011" lon="2.7081818"><ele>0.0</ele><time>2026-04-30T10:43:06.065Z</time></trkpt><trkpt lat="41.5134368" lon="2.7082852"><ele>0.0</ele><time>2026-04-30T10:43:07.065Z</time></trkpt><trkpt lat="41.5134729" lon="2.7083881"><ele>0.0</ele><time>2026-04-30T10:43:08.064Z</time></trkpt><trkpt lat="41.5135127" lon="2.7084933"><ele>0.0</ele><time>2026-04-30T10:43:09.064Z</time></trkpt><trkpt lat="41.5135457" lon="2.708604"><ele>0.0</ele><time>2026-04-30T10:43:10.064Z</time></trkpt><trkpt lat="41.5135901" lon="2.7087066"><ele>0.0</ele><time>2026-04-30T10:43:11.065Z</time></trkpt><trkpt lat="41.5136349" lon="2.7088096"><ele>0.0</ele><time>2026-04-30T10:43:12.065Z</time></trkpt><trkpt lat="41.5136761" lon="2.7089078"><ele>0.0</ele><time>2026-04-30T10:43:13.064Z</time></trkpt><trkpt lat="41.5137187" lon="2.7090106"><ele>0.0</ele><time>2026-04-30T10:43:14.065Z</time></trkpt><trkpt lat="41.513761" lon="2.7091166"><ele>0.0</ele><time>2026-04-30T10:43:15.065Z</time></trkpt><trkpt lat="41.5137999" lon="2.7092217"><ele>0.0</ele><time>2026-04-30T10:43:16.064Z</time></trkpt><trkpt lat="41.513838" lon="2.7093281"><ele>0.0</ele><time>2026-04-30T10:43:17.065Z</time></trkpt><trkpt lat="41.5138821" lon="2.7094328"><ele>0.0</ele><time>2026-04-30T10:43:18.065Z</time></trkpt><trkpt lat="41.5139255" lon="2.7095349"><ele>0.0</ele><time>2026-04-30T10:43:19.064Z</time></trkpt><trkpt lat="41.5140391" lon="2.7098426"><ele>0.0</ele><time>2026-04-30T10:43:22.064Z</time></trkpt><trkpt lat="41.5140784" lon="2.7099481"><ele>0.0</ele><time>2026-04-30T10:43:23.065Z</time></trkpt><trkpt lat="41.5141192" lon="2.710049"><ele>0.0</ele><time>2026-04-30T10:43:24.065Z</time></trkpt><trkpt lat="41.5141621" lon="2.7101476"><ele>0.0</ele><time>2026-04-30T10:43:25.064Z</time></trkpt><trkpt lat="41.5141983" lon="2.7102544"><ele>0.0</ele><time>2026-04-30T10:43:26.064Z</time></trkpt><trkpt lat="41.5142309" lon="2.7103568"><ele>0.0</ele><time>2026-04-30T10:43:27.065Z</time></trkpt><trkpt lat="41.5142768" lon="2.71046"><ele>0.0</ele><time>2026-04-30T10:43:28.065Z</time></trkpt><trkpt lat="41.5143161" lon="2.7105536"><ele>0.0</ele><time>2026-04-30T10:43:29.063Z</time></trkpt><trkpt lat="41.5143534" lon="2.7106595"><ele>0.0</ele><time>2026-04-30T10:43:30.064Z</time></trkpt><trkpt lat="41.5143874" lon="2.7107619"><ele>0.0</ele><time>2026-04-30T10:43:31.063Z</time></trkpt><trkpt lat="41.5144254" lon="2.7108711"><ele>0.0</ele><time>2026-04-30T10:43:32.063Z</time></trkpt><trkpt lat="41.5144622" lon="2.7109819"><ele>0.0</ele><time>2026-04-30T10:43:33.064Z</time></trkpt><trkpt lat="41.5144974" lon="2.7110849"><ele>0.0</ele><time>2026-04-30T10:43:34.063Z</time></trkpt><trkpt lat="41.5145338" lon="2.7111854"><ele>0.0</ele><time>2026-04-30T10:43:35.063Z</time></trkpt><trkpt lat="41.5145688" lon="2.7112855"><ele>0.0</ele><time>2026-04-30T10:43:36.064Z</time></trkpt><trkpt lat="41.5146036" lon="2.7113809"><ele>0.0</ele><time>2026-04-30T10:43:37.064Z</time></trkpt><trkpt lat="41.5146329" lon="2.7114814"><ele>0.0</ele><time>2026-04-30T10:43:38.063Z</time></trkpt><trkpt lat="41.5146656" lon="2.7115864"><ele>0.0</ele><time>2026-04-30T10:43:39.064Z</time></trkpt><trkpt lat="41.514699" lon="2.7116962"><ele>0.0</ele><time>2026-04-30T10:43:40.064Z</time></trkpt><trkpt lat="41.5147312" lon="2.7118017"><ele>0.0</ele><time>2026-04-30T10:43:41.063Z</time></trkpt><trkpt lat="41.5148051" lon="2.7120169"><ele>0.0</ele><time>2026-04-30T10:43:43.063Z</time></trkpt><trkpt lat="41.5148449" lon="2.7121242"><ele>0.0</ele><time>2026-04-30T10:43:44.063Z</time></trkpt><trkpt lat="41.5148834" lon="2.7122286"><ele>0.0</ele><time>2026-04-30T10:43:45.064Z</time></trkpt><trkpt lat="41.5149172" lon="2.7123304"><ele>0.0</ele><time>2026-04-30T10:43:46.063Z</time></trkpt><trkpt lat="41.5149622" lon="2.7124283"><ele>0.0</ele><time>2026-04-30T10:43:47.063Z</time></trkpt><trkpt lat="41.5149929" lon="2.7125315"><ele>0.0</ele><time>2026-04-30T10:43:48.064Z</time></trkpt><trkpt lat="41.5150242" lon="2.7126349"><ele>0.0</ele><time>2026-04-30T10:43:49.063Z</time></trkpt><trkpt lat="41.5150574" lon="2.7127367"><ele>0.0</ele><time>2026-04-30T10:43:50.063Z</time></trkpt><trkpt lat="41.5150864" lon="2.712843"><ele>0.0</ele><time>2026-04-30T10:43:51.063Z</time></trkpt><trkpt lat="41.5151481" lon="2.7130592"><ele>0.0</ele><time>2026-04-30T10:43:53.064Z</time></trkpt><trkpt lat="41.5151839" lon="2.7131632"><ele>0.0</ele><time>2026-04-30T10:43:54.064Z</time></trkpt><trkpt lat="41.5152328" lon="2.7132691"><ele>0.0</ele><time>2026-04-30T10:43:55.063Z</time></trkpt><trkpt lat="41.5152743" lon="2.7133718"><ele>0.0</ele><time>2026-04-30T10:43:56.064Z</time></trkpt><trkpt lat="41.5153109" lon="2.7134782"><ele>0.0</ele><time>2026-04-30T10:43:57.063Z</time></trkpt><trkpt lat="41.5153514" lon="2.7135858"><ele>0.0</ele><time>2026-04-30T10:43:58.064Z</time></trkpt><trkpt lat="41.5153869" lon="2.7136885"><ele>0.0</ele><time>2026-04-30T10:43:59.064Z</time></trkpt><trkpt lat="41.5154245" lon="2.7137926"><ele>0.0</ele><time>2026-04-30T10:44:00.064Z</time></trkpt><trkpt lat="41.5154648" lon="2.7138993"><ele>0.0</ele><time>2026-04-30T10:44:01.064Z</time></trkpt><trkpt lat="41.5155021" lon="2.7140003"><ele>0.0</ele><time>2026-04-30T10:44:02.064Z</time></trkpt><trkpt lat="41.5155696" lon="2.7142048"><ele>0.0</ele><time>2026-04-30T10:44:04.063Z</time></trkpt><trkpt lat="41.5156206" lon="2.7143013"><ele>0.0</ele><time>2026-04-30T10:44:05.063Z</time></trkpt><trkpt lat="41.5156698" lon="2.7144004"><ele>0.0</ele><time>2026-04-30T10:44:06.063Z</time></trkpt><trkpt lat="41.5157084" lon="2.7144992"><ele>0.0</ele><time>2026-04-30T10:44:07.063Z</time></trkpt><trkpt lat="41.5157425" lon="2.7145915"><ele>0.0</ele><time>2026-04-30T10:44:08.063Z</time></trkpt><trkpt lat="41.5157802" lon="2.7146931"><ele>0.0</ele><time>2026-04-30T10:44:09.064Z</time></trkpt><trkpt lat="41.5158204" lon="2.7147965"><ele>0.0</ele><time>2026-04-30T10:44:10.063Z</time></trkpt><trkpt lat="41.5158499" lon="2.7149101"><ele>0.0</ele><time>2026-04-30T10:44:11.064Z</time></trkpt><trkpt lat="41.5158843" lon="2.7150121"><ele>0.0</ele><time>2026-04-30T10:44:12.063Z</time></trkpt><trkpt lat="41.5159203" lon="2.7151164"><ele>0.0</ele><time>2026-04-30T10:44:13.064Z</time></trkpt><trkpt lat="41.51595" lon="2.7152246"><ele>0.0</ele><time>2026-04-30T10:44:14.063Z</time></trkpt><trkpt lat="41.5159784" lon="2.715331"><ele>0.0</ele><time>2026-04-30T10:44:15.063Z</time></trkpt><trkpt lat="41.5160081" lon="2.7154376"><ele>0.0</ele><time>2026-04-30T10:44:16.064Z</time></trkpt><trkpt lat="41.5160407" lon="2.7155458"><ele>0.0</ele><time>2026-04-30T10:44:17.064Z</time></trkpt><trkpt lat="41.5160742" lon="2.7156501"><ele>0.0</ele><time>2026-04-30T10:44:18.063Z</time></trkpt><trkpt lat="41.5161058" lon="2.7157546"><ele>0.0</ele><time>2026-04-30T10:44:19.063Z</time></trkpt><trkpt lat="41.5161428" lon="2.7158654"><ele>0.0</ele><time>2026-04-30T10:44:20.063Z</time></trkpt><trkpt lat="41.5161795" lon="2.7159701"><ele>0.0</ele><time>2026-04-30T10:44:21.063Z</time></trkpt><trkpt lat="41.5162208" lon="2.7160691"><ele>0.0</ele><time>2026-04-30T10:44:22.064Z</time></trkpt><trkpt lat="41.5162627" lon="2.7161729"><ele>0.0</ele><time>2026-04-30T10:44:23.064Z</time></trkpt><trkpt lat="41.5163417" lon="2.7163797"><ele>0.0</ele><time>2026-04-30T10:44:25.064Z</time></trkpt><trkpt lat="41.5163814" lon="2.7164876"><ele>0.0</ele><time>2026-04-30T10:44:26.063Z</time></trkpt><trkpt lat="41.5164229" lon="2.7165943"><ele>0.0</ele><time>2026-04-30T10:44:27.064Z</time></trkpt><trkpt lat="41.5164618" lon="2.7166988"><ele>0.0</ele><time>2026-04-30T10:44:28.063Z</time></trkpt><trkpt lat="41.5164986" lon="2.7168005"><ele>0.0</ele><time>2026-04-30T10:44:29.063Z</time></trkpt><trkpt lat="41.5165366" lon="2.7169048"><ele>0.0</ele><time>2026-04-30T10:44:30.063Z</time></trkpt><trkpt lat="41.5165735" lon="2.7170084"><ele>0.0</ele><time>2026-04-30T10:44:31.063Z</time></trkpt><trkpt lat="41.5166068" lon="2.7171122"><ele>0.0</ele><time>2026-04-30T10:44:32.064Z</time></trkpt><trkpt lat="41.5166431" lon="2.7172153"><ele>0.0</ele><time>2026-04-30T10:44:33.064Z</time></trkpt><trkpt lat="41.5166815" lon="2.7173198"><ele>0.0</ele><time>2026-04-30T10:44:34.064Z</time></trkpt><trkpt lat="41.5167169" lon="2.7174234"><ele>0.0</ele><time>2026-04-30T10:44:35.064Z</time></trkpt><trkpt lat="41.5167521" lon="2.7175252"><ele>0.0</ele><time>2026-04-30T10:44:36.063Z</time></trkpt><trkpt lat="41.5167869" lon="2.7176305"><ele>0.0</ele><time>2026-04-30T10:44:37.064Z</time></trkpt><trkpt lat="41.5168234" lon="2.7177352"><ele>0.0</ele><time>2026-04-30T10:44:38.064Z</time></trkpt><trkpt lat="41.5168603" lon="2.7178416"><ele>0.0</ele><time>2026-04-30T10:44:39.064Z</time></trkpt><trkpt lat="41.5168984" lon="2.7179481"><ele>0.0</ele><time>2026-04-30T10:44:40.064Z</time></trkpt><trkpt lat="41.5169383" lon="2.7180503"><ele>0.0</ele><time>2026-04-30T10:44:41.063Z</time></trkpt><trkpt lat="41.5169769" lon="2.7181502"><ele>0.0</ele><time>2026-04-30T10:44:42.064Z</time></trkpt><trkpt lat="41.5170151" lon="2.7182559"><ele>0.0</ele><time>2026-04-30T10:44:43.064Z</time></trkpt><trkpt lat="41.5170486" lon="2.7183602"><ele>0.0</ele><time>2026-04-30T10:44:44.064Z</time></trkpt><trkpt lat="41.5171221" lon="2.7185652"><ele>0.0</ele><time>2026-04-30T10:44:46.064Z</time></trkpt><trkpt lat="41.5171599" lon="2.7186697"><ele>0.0</ele><time>2026-04-30T10:44:47.063Z</time></trkpt><trkpt lat="41.5171967" lon="2.7187765"><ele>0.0</ele><time>2026-04-30T10:44:48.063Z</time></trkpt><trkpt lat="41.5172439" lon="2.7188843"><ele>0.0</ele><time>2026-04-30T10:44:49.063Z</time></trkpt><trkpt lat="41.5172956" lon="2.7189895"><ele>0.0</ele><time>2026-04-30T10:44:50.064Z</time></trkpt><trkpt lat="41.5173536" lon="2.7190811"><ele>0.0</ele><time>2026-04-30T10:44:51.064Z</time></trkpt><trkpt lat="41.5173999" lon="2.7191748"><ele>0.0</ele><time>2026-04-30T10:44:52.063Z</time></trkpt><trkpt lat="41.5174446" lon="2.719278"><ele>0.0</ele><time>2026-04-30T10:44:53.064Z</time></trkpt><trkpt lat="41.5174864" lon="2.7193799"><ele>0.0</ele><time>2026-04-30T10:44:54.063Z</time></trkpt><trkpt lat="41.517534" lon="2.7194873"><ele>0.0</ele><time>2026-04-30T10:44:55.064Z</time></trkpt><trkpt lat="41.5175666" lon="2.7195903"><ele>0.0</ele><time>2026-04-30T10:44:56.063Z</time></trkpt><trkpt lat="41.5176007" lon="2.7196872"><ele>0.0</ele><time>2026-04-30T10:44:57.063Z</time></trkpt><trkpt lat="41.5176342" lon="2.7197882"><ele>0.0</ele><time>2026-04-30T10:44:58.063Z</time></trkpt><trkpt lat="41.5176671" lon="2.7198913"><ele>0.0</ele><time>2026-04-30T10:44:59.063Z</time></trkpt><trkpt lat="41.5177023" lon="2.7199938"><ele>0.0</ele><time>2026-04-30T10:45:00.064Z</time></trkpt><trkpt lat="41.5177257" lon="2.7201026"><ele>0.0</ele><time>2026-04-30T10:45:01.063Z</time></trkpt><trkpt lat="41.5177493" lon="2.7202153"><ele>0.0</ele><time>2026-04-30T10:45:02.064Z</time></trkpt><trkpt lat="41.5177764" lon="2.7203227"><ele>0.0</ele><time>2026-04-30T10:45:03.063Z</time></trkpt><trkpt lat="41.5178033" lon="2.7204291"><ele>0.0</ele><time>2026-04-30T10:45:04.063Z</time></trkpt><trkpt lat="41.5178427" lon="2.7205388"><ele>0.0</ele><time>2026-04-30T10:45:05.063Z</time></trkpt><trkpt lat="41.5179123" lon="2.7207418"><ele>0.0</ele><time>2026-04-30T10:45:07.064Z</time></trkpt><trkpt lat="41.5179488" lon="2.7208436"><ele>0.0</ele><time>2026-04-30T10:45:08.064Z</time></trkpt><trkpt lat="41.5179852" lon="2.7209509"><ele>0.0</ele><time>2026-04-30T10:45:09.063Z</time></trkpt><trkpt lat="41.5180186" lon="2.7210565"><ele>0.0</ele><time>2026-04-30T10:45:10.064Z</time></trkpt><trkpt lat="41.5180507" lon="2.7211613"><ele>0.0</ele><time>2026-04-30T10:45:11.064Z</time></trkpt><trkpt lat="41.518081" lon="2.7212648"><ele>0.0</ele><time>2026-04-30T10:45:12.063Z</time></trkpt><trkpt lat="41.5181177" lon="2.7213728"><ele>0.0</ele><time>2026-04-30T10:45:13.063Z</time></trkpt><trkpt lat="41.5181548" lon="2.7214816"><ele>0.0</ele><time>2026-04-30T10:45:14.064Z</time></trkpt><trkpt lat="41.518194" lon="2.7215837"><ele>0.0</ele><time>2026-04-30T10:45:15.064Z</time></trkpt><trkpt lat="41.5182328" lon="2.7216869"><ele>0.0</ele><time>2026-04-30T10:45:16.063Z</time></trkpt><trkpt lat="41.5182732" lon="2.7217902"><ele>0.0</ele><time>2026-04-30T10:45:17.063Z</time></trkpt><trkpt lat="41.5183145" lon="2.7218931"><ele>0.0</ele><time>2026-04-30T10:45:18.063Z</time></trkpt><trkpt lat="41.5183576" lon="2.7219937"><ele>0.0</ele><time>2026-04-30T10:45:19.063Z</time></trkpt><trkpt lat="41.5183959" lon="2.7220934"><ele>0.0</ele><time>2026-04-30T10:45:20.064Z</time></trkpt><trkpt lat="41.5184322" lon="2.7221923"><ele>0.0</ele><time>2026-04-30T10:45:21.063Z</time></trkpt><trkpt lat="41.5184702" lon="2.722292"><ele>0.0</ele><time>2026-04-30T10:45:22.064Z</time></trkpt><trkpt lat="41.5185041" lon="2.7223975"><ele>0.0</ele><time>2026-04-30T10:45:23.063Z</time></trkpt><trkpt lat="41.5185337" lon="2.7225042"><ele>0.0</ele><time>2026-04-30T10:45:24.064Z</time></trkpt><trkpt lat="41.5185674" lon="2.7226123"><ele>0.0</ele><time>2026-04-30T10:45:25.063Z</time></trkpt><trkpt lat="41.5186006" lon="2.7227181"><ele>0.0</ele><time>2026-04-30T10:45:26.064Z</time></trkpt><trkpt lat="41.5186398" lon="2.7228231"><ele>0.0</ele><time>2026-04-30T10:45:27.063Z</time></trkpt><trkpt lat="41.5187166" lon="2.7230303"><ele>0.0</ele><time>2026-04-30T10:45:29.064Z</time></trkpt><trkpt lat="41.518758" lon="2.7231321"><ele>0.0</ele><time>2026-04-30T10:45:30.063Z</time></trkpt><trkpt lat="41.5187942" lon="2.7232423"><ele>0.0</ele><time>2026-04-30T10:45:31.064Z</time></trkpt><trkpt lat="41.5188319" lon="2.7233525"><ele>0.0</ele><time>2026-04-30T10:45:32.063Z</time></trkpt><trkpt lat="41.5188717" lon="2.723454"><ele>0.0</ele><time>2026-04-30T10:45:33.064Z</time></trkpt><trkpt lat="41.5189057" lon="2.7235582"><ele>0.0</ele><time>2026-04-30T10:45:34.064Z</time></trkpt><trkpt lat="41.5189361" lon="2.723659"><ele>0.0</ele><time>2026-04-30T10:45:35.063Z</time></trkpt><trkpt lat="41.51897" lon="2.7237587"><ele>0.0</ele><time>2026-04-30T10:45:36.063Z</time></trkpt><trkpt lat="41.5190097" lon="2.723862"><ele>0.0</ele><time>2026-04-30T10:45:37.064Z</time></trkpt><trkpt lat="41.5190399" lon="2.7239706"><ele>0.0</ele><time>2026-04-30T10:45:38.063Z</time></trkpt><trkpt lat="41.5190752" lon="2.7240734"><ele>0.0</ele><time>2026-04-30T10:45:39.064Z</time></trkpt><trkpt lat="41.519109" lon="2.7241808"><ele>0.0</ele><time>2026-04-30T10:45:40.064Z</time></trkpt><trkpt lat="41.5191424" lon="2.7242904"><ele>0.0</ele><time>2026-04-30T10:45:41.064Z</time></trkpt><trkpt lat="41.5191768" lon="2.7243935"><ele>0.0</ele><time>2026-04-30T10:45:42.064Z</time></trkpt><trkpt lat="41.5192062" lon="2.7244909"><ele>0.0</ele><time>2026-04-30T10:45:43.063Z</time></trkpt><trkpt lat="41.519235" lon="2.7245937"><ele>0.0</ele><time>2026-04-30T10:45:44.064Z</time></trkpt><trkpt lat="41.5192689" lon="2.7246973"><ele>0.0</ele><time>2026-04-30T10:45:45.064Z</time></trkpt><trkpt lat="41.5193071" lon="2.7248026"><ele>0.0</ele><time>2026-04-30T10:45:46.063Z</time></trkpt><trkpt lat="41.5193454" lon="2.7249072"><ele>0.0</ele><time>2026-04-30T10:45:47.064Z</time></trkpt><trkpt lat="41.5193892" lon="2.7250087"><ele>0.0</ele><time>2026-04-30T10:45:48.064Z</time></trkpt><trkpt lat="41.5194751" lon="2.7252177"><ele>0.0</ele><time>2026-04-30T10:45:50.063Z</time></trkpt><trkpt lat="41.5195166" lon="2.7253173"><ele>0.0</ele><time>2026-04-30T10:45:51.063Z</time></trkpt><trkpt lat="41.5195572" lon="2.7254183"><ele>0.0</ele><time>2026-04-30T10:45:52.063Z</time></trkpt><trkpt lat="41.5195912" lon="2.7255171"><ele>0.0</ele><time>2026-04-30T10:45:53.063Z</time></trkpt><trkpt lat="41.51963" lon="2.7256171"><ele>0.0</ele><time>2026-04-30T10:45:54.063Z</time></trkpt><trkpt lat="41.5196623" lon="2.7257255"><ele>0.0</ele><time>2026-04-30T10:45:55.063Z</time></trkpt><trkpt lat="41.5197021" lon="2.7258298"><ele>0.0</ele><time>2026-04-30T10:45:56.063Z</time></trkpt><trkpt lat="41.5197455" lon="2.7259343"><ele>0.0</ele><time>2026-04-30T10:45:57.063Z</time></trkpt><trkpt lat="41.5197922" lon="2.726038"><ele>0.0</ele><time>2026-04-30T10:45:58.064Z</time></trkpt><trkpt lat="41.5198375" lon="2.72614"><ele>0.0</ele><time>2026-04-30T10:45:59.064Z</time></trkpt><trkpt lat="41.5198853" lon="2.7262372"><ele>0.0</ele><time>2026-04-30T10:46:00.064Z</time></trkpt><trkpt lat="41.5199269" lon="2.7263379"><ele>0.0</ele><time>2026-04-30T10:46:01.064Z</time></trkpt><trkpt lat="41.5199653" lon="2.7264397"><ele>0.0</ele><time>2026-04-30T10:46:02.063Z</time></trkpt><trkpt lat="41.5200102" lon="2.7265429"><ele>0.0</ele><time>2026-04-30T10:46:03.063Z</time></trkpt><trkpt lat="41.5200496" lon="2.7266423"><ele>0.0</ele><time>2026-04-30T10:46:04.063Z</time></trkpt><trkpt lat="41.5200893" lon="2.726742"><ele>0.0</ele><time>2026-04-30T10:46:05.064Z</time></trkpt><trkpt lat="41.5201296" lon="2.7268467"><ele>0.0</ele><time>2026-04-30T10:46:06.063Z</time></trkpt><trkpt lat="41.5201727" lon="2.7269558"><ele>0.0</ele><time>2026-04-30T10:46:07.064Z</time></trkpt><trkpt lat="41.5202068" lon="2.7270628"><ele>0.0</ele><time>2026-04-30T10:46:08.064Z</time></trkpt><trkpt lat="41.5202417" lon="2.7271681"><ele>0.0</ele><time>2026-04-30T10:46:09.063Z</time></trkpt><trkpt lat="41.5203105" lon="2.7273747"><ele>0.0</ele><time>2026-04-30T10:46:11.063Z</time></trkpt><trkpt lat="41.5203427" lon="2.7274782"><ele>0.0</ele><time>2026-04-30T10:46:12.063Z</time></trkpt><trkpt lat="41.5203725" lon="2.7275858"><ele>0.0</ele><time>2026-04-30T10:46:13.064Z</time></trkpt><trkpt lat="41.5204048" lon="2.7276899"><ele>0.0</ele><time>2026-04-30T10:46:14.064Z</time></trkpt><trkpt lat="41.5204402" lon="2.727795"><ele>0.0</ele><time>2026-04-30T10:46:15.064Z</time></trkpt><trkpt lat="41.520479" lon="2.7279"><ele>0.0</ele><time>2026-04-30T10:46:16.063Z</time></trkpt><trkpt lat="41.5205176" lon="2.7280035"><ele>0.0</ele><time>2026-04-30T10:46:17.064Z</time></trkpt><trkpt lat="41.5205525" lon="2.7281081"><ele>0.0</ele><time>2026-04-30T10:46:18.063Z</time></trkpt><trkpt lat="41.520587" lon="2.7282089"><ele>0.0</ele><time>2026-04-30T10:46:19.063Z</time></trkpt><trkpt lat="41.5206235" lon="2.7283117"><ele>0.0</ele><time>2026-04-30T10:46:20.063Z</time></trkpt><trkpt lat="41.5206572" lon="2.7284138"><ele>0.0</ele><time>2026-04-30T10:46:21.064Z</time></trkpt><trkpt lat="41.5206915" lon="2.7285183"><ele>0.0</ele><time>2026-04-30T10:46:22.063Z</time></trkpt><trkpt lat="41.5207266" lon="2.7286218"><ele>0.0</ele><time>2026-04-30T10:46:23.064Z</time></trkpt><trkpt lat="41.5207647" lon="2.7287268"><ele>0.0</ele><time>2026-04-30T10:46:24.063Z</time></trkpt><trkpt lat="41.5208062" lon="2.728836"><ele>0.0</ele><time>2026-04-30T10:46:25.063Z</time></trkpt><trkpt lat="41.520845" lon="2.7289397"><ele>0.0</ele><time>2026-04-30T10:46:26.063Z</time></trkpt><trkpt lat="41.5208807" lon="2.7290446"><ele>0.0</ele><time>2026-04-30T10:46:27.063Z</time></trkpt><trkpt lat="41.5209129" lon="2.729148"><ele>0.0</ele><time>2026-04-30T10:46:28.063Z</time></trkpt><trkpt lat="41.5209469" lon="2.7292498"><ele>0.0</ele><time>2026-04-30T10:46:29.064Z</time></trkpt><trkpt lat="41.5209778" lon="2.7293531"><ele>0.0</ele><time>2026-04-30T10:46:30.063Z</time></trkpt><trkpt lat="41.5210426" lon="2.7295735"><ele>0.0</ele><time>2026-04-30T10:46:32.064Z</time></trkpt><trkpt lat="41.5210816" lon="2.7296855"><ele>0.0</ele><time>2026-04-30T10:46:33.064Z</time></trkpt><trkpt lat="41.5211199" lon="2.7297884"><ele>0.0</ele><time>2026-04-30T10:46:34.064Z</time></trkpt><trkpt lat="41.5211581" lon="2.7298873"><ele>0.0</ele><time>2026-04-30T10:46:35.064Z</time></trkpt><trkpt lat="41.5211965" lon="2.7299887"><ele>0.0</ele><time>2026-04-30T10:46:36.063Z</time></trkpt><trkpt lat="41.5212328" lon="2.7300934"><ele>0.0</ele><time>2026-04-30T10:46:37.063Z</time></trkpt><trkpt lat="41.5212708" lon="2.7301975"><ele>0.0</ele><time>2026-04-30T10:46:38.064Z</time></trkpt><trkpt lat="41.5213067" lon="2.7303007"><ele>0.0</ele><time>2026-04-30T10:46:39.064Z</time></trkpt><trkpt lat="41.5213475" lon="2.7304035"><ele>0.0</ele><time>2026-04-30T10:46:40.064Z</time></trkpt><trkpt lat="41.5213848" lon="2.7305054"><ele>0.0</ele><time>2026-04-30T10:46:41.064Z</time></trkpt><trkpt lat="41.5214257" lon="2.7306102"><ele>0.0</ele><time>2026-04-30T10:46:42.063Z</time></trkpt><trkpt lat="41.5214642" lon="2.7307084"><ele>0.0</ele><time>2026-04-30T10:46:43.063Z</time></trkpt><trkpt lat="41.5214987" lon="2.7308119"><ele>0.0</ele><time>2026-04-30T10:46:44.064Z</time></trkpt><trkpt lat="41.5215334" lon="2.7309139"><ele>0.0</ele><time>2026-04-30T10:46:45.064Z</time></trkpt><trkpt lat="41.5215655" lon="2.7310184"><ele>0.0</ele><time>2026-04-30T10:46:46.064Z</time></trkpt><trkpt lat="41.5215961" lon="2.7311263"><ele>0.0</ele><time>2026-04-30T10:46:47.064Z</time></trkpt><trkpt lat="41.521632" lon="2.7312285"><ele>0.0</ele><time>2026-04-30T10:46:48.064Z</time></trkpt><trkpt lat="41.5216742" lon="2.7313276"><ele>0.0</ele><time>2026-04-30T10:46:49.064Z</time></trkpt><trkpt lat="41.5217132" lon="2.7314299"><ele>0.0</ele><time>2026-04-30T10:46:50.063Z</time></trkpt><trkpt lat="41.5217546" lon="2.731529"><ele>0.0</ele><time>2026-04-30T10:46:51.063Z</time></trkpt><trkpt lat="41.5218369" lon="2.7317316"><ele>0.0</ele><time>2026-04-30T10:46:53.064Z</time></trkpt><trkpt lat="41.5218737" lon="2.7318306"><ele>0.0</ele><time>2026-04-30T10:46:54.064Z</time></trkpt><trkpt lat="41.5219061" lon="2.7319364"><ele>0.0</ele><time>2026-04-30T10:46:55.063Z</time></trkpt><trkpt lat="41.5219409" lon="2.7320408"><ele>0.0</ele><time>2026-04-30T10:46:56.064Z</time></trkpt><trkpt lat="41.521974" lon="2.7321445"><ele>0.0</ele><time>2026-04-30T10:46:57.063Z</time></trkpt><trkpt lat="41.5220065" lon="2.7322522"><ele>0.0</ele><time>2026-04-30T10:46:58.063Z</time></trkpt><trkpt lat="41.5220422" lon="2.7323567"><ele>0.0</ele><time>2026-04-30T10:46:59.064Z</time></trkpt><trkpt lat="41.5220813" lon="2.7324631"><ele>0.0</ele><time>2026-04-30T10:47:00.064Z</time></trkpt><trkpt lat="41.5221167" lon="2.7325683"><ele>0.0</ele><time>2026-04-30T10:47:01.063Z</time></trkpt><trkpt lat="41.5221567" lon="2.7326691"><ele>0.0</ele><time>2026-04-30T10:47:02.064Z</time></trkpt><trkpt lat="41.5221936" lon="2.7327672"><ele>0.0</ele><time>2026-04-30T10:47:03.064Z</time></trkpt><trkpt lat="41.5222345" lon="2.7328683"><ele>0.0</ele><time>2026-04-30T10:47:04.064Z</time></trkpt><trkpt lat="41.5222749" lon="2.7329731"><ele>0.0</ele><time>2026-04-30T10:47:05.063Z</time></trkpt><trkpt lat="41.5223165" lon="2.7330751"><ele>0.0</ele><time>2026-04-30T10:47:06.063Z</time></trkpt><trkpt lat="41.5223579" lon="2.7331781"><ele>0.0</ele><time>2026-04-30T10:47:07.064Z</time></trkpt><trkpt lat="41.5223953" lon="2.7332807"><ele>0.0</ele><time>2026-04-30T10:47:08.064Z</time></trkpt><trkpt lat="41.5224317" lon="2.7333809"><ele>0.0</ele><time>2026-04-30T10:47:09.063Z</time></trkpt><trkpt lat="41.5224697" lon="2.7334809"><ele>0.0</ele><time>2026-04-30T10:47:10.064Z</time></trkpt><trkpt lat="41.5225095" lon="2.7335875"><ele>0.0</ele><time>2026-04-30T10:47:11.063Z</time></trkpt><trkpt lat="41.5225494" lon="2.7336904"><ele>0.0</ele><time>2026-04-30T10:47:12.064Z</time></trkpt><trkpt lat="41.5226372" lon="2.7338981"><ele>0.0</ele><time>2026-04-30T10:47:14.064Z</time></trkpt><trkpt lat="41.5226795" lon="2.7340026"><ele>0.0</ele><time>2026-04-30T10:47:15.064Z</time></trkpt><trkpt lat="41.5227182" lon="2.7341067"><ele>0.0</ele><time>2026-04-30T10:47:16.063Z</time></trkpt><trkpt lat="41.5227593" lon="2.7342085"><ele>0.0</ele><time>2026-04-30T10:47:17.063Z</time></trkpt><trkpt lat="41.5227968" lon="2.7343118"><ele>0.0</ele><time>2026-04-30T10:47:18.063Z</time></trkpt><trkpt lat="41.5228365" lon="2.7344204"><ele>0.0</ele><time>2026-04-30T10:47:19.063Z</time></trkpt><trkpt lat="41.5228752" lon="2.7345236"><ele>0.0</ele><time>2026-04-30T10:47:20.063Z</time></trkpt><trkpt lat="41.5229136" lon="2.7346298"><ele>0.0</ele><time>2026-04-30T10:47:21.063Z</time></trkpt><trkpt lat="41.5229465" lon="2.734732"><ele>0.0</ele><time>2026-04-30T10:47:22.063Z</time></trkpt><trkpt lat="41.5229781" lon="2.7348321"><ele>0.0</ele><time>2026-04-30T10:47:23.063Z</time></trkpt><trkpt lat="41.5230126" lon="2.7349351"><ele>0.0</ele><time>2026-04-30T10:47:24.064Z</time></trkpt><trkpt lat="41.5230489" lon="2.735044"><ele>0.0</ele><time>2026-04-30T10:47:25.064Z</time></trkpt><trkpt lat="41.5230953" lon="2.7351443"><ele>0.0</ele><time>2026-04-30T10:47:26.063Z</time></trkpt><trkpt lat="41.5231319" lon="2.7352439"><ele>0.0</ele><time>2026-04-30T10:47:27.063Z</time></trkpt><trkpt lat="41.5231675" lon="2.7353441"><ele>0.0</ele><time>2026-04-30T10:47:28.064Z</time></trkpt><trkpt lat="41.5231996" lon="2.7354454"><ele>0.0</ele><time>2026-04-30T10:47:29.063Z</time></trkpt><trkpt lat="41.5232313" lon="2.7355529"><ele>0.0</ele><time>2026-04-30T10:47:30.063Z</time></trkpt><trkpt lat="41.5232625" lon="2.7356607"><ele>0.0</ele><time>2026-04-30T10:47:31.063Z</time></trkpt><trkpt lat="41.5232955" lon="2.7357674"><ele>0.0</ele><time>2026-04-30T10:47:32.063Z</time></trkpt><trkpt lat="41.5233264" lon="2.7358763"><ele>0.0</ele><time>2026-04-30T10:47:33.063Z</time></trkpt><trkpt lat="41.5233576" lon="2.735984"><ele>0.0</ele><time>2026-04-30T10:47:34.063Z</time></trkpt><trkpt lat="41.5234247" lon="2.7361978"><ele>0.0</ele><time>2026-04-30T10:47:36.063Z</time></trkpt><trkpt lat="41.5234559" lon="2.7363015"><ele>0.0</ele><time>2026-04-30T10:47:37.064Z</time></trkpt><trkpt lat="41.5234878" lon="2.7364078"><ele>0.0</ele><time>2026-04-30T10:47:38.064Z</time></trkpt><trkpt lat="41.523526" lon="2.7365116"><ele>0.0</ele><time>2026-04-30T10:47:39.064Z</time></trkpt><trkpt lat="41.5235616" lon="2.7366168"><ele>0.0</ele><time>2026-04-30T10:47:40.063Z</time></trkpt><trkpt lat="41.5235965" lon="2.7367189"><ele>0.0</ele><time>2026-04-30T10:47:41.063Z</time></trkpt><trkpt lat="41.5236323" lon="2.7368205"><ele>0.0</ele><time>2026-04-30T10:47:42.063Z</time></trkpt><trkpt lat="41.5236679" lon="2.7369266"><ele>0.0</ele><time>2026-04-30T10:47:43.064Z</time></trkpt><trkpt lat="41.5237046" lon="2.7370344"><ele>0.0</ele><time>2026-04-30T10:47:44.064Z</time></trkpt><trkpt lat="41.5237442" lon="2.7371384"><ele>0.0</ele><time>2026-04-30T10:47:45.064Z</time></trkpt><trkpt lat="41.5237816" lon="2.737242"><ele>0.0</ele><time>2026-04-30T10:47:46.064Z</time></trkpt><trkpt lat="41.5238209" lon="2.7373425"><ele>0.0</ele><time>2026-04-30T10:47:47.063Z</time></trkpt><trkpt lat="41.523876" lon="2.737441"><ele>0.0</ele><time>2026-04-30T10:47:48.064Z</time></trkpt><trkpt lat="41.523916" lon="2.7375444"><ele>0.0</ele><time>2026-04-30T10:47:49.064Z</time></trkpt><trkpt lat="41.5239531" lon="2.7376511"><ele>0.0</ele><time>2026-04-30T10:47:50.063Z</time></trkpt><trkpt lat="41.5239927" lon="2.7377592"><ele>0.0</ele><time>2026-04-30T10:47:51.064Z</time></trkpt><trkpt lat="41.5240256" lon="2.7378674"><ele>0.0</ele><time>2026-04-30T10:47:52.064Z</time></trkpt><trkpt lat="41.5240575" lon="2.7379744"><ele>0.0</ele><time>2026-04-30T10:47:53.063Z</time></trkpt><trkpt lat="41.524086" lon="2.7380843"><ele>0.0</ele><time>2026-04-30T10:47:54.063Z</time></trkpt><trkpt lat="41.5241147" lon="2.7381912"><ele>0.0</ele><time>2026-04-30T10:47:55.063Z</time></trkpt><trkpt lat="41.5241775" lon="2.7384077"><ele>0.0</ele><time>2026-04-30T10:47:57.063Z</time></trkpt><trkpt lat="41.5242081" lon="2.7385063"><ele>0.0</ele><time>2026-04-30T10:47:58.062Z</time></trkpt><trkpt lat="41.5242388" lon="2.7386101"><ele>0.0</ele><time>2026-04-30T10:47:59.063Z</time></trkpt><trkpt lat="41.5242695" lon="2.7387103"><ele>0.0</ele><time>2026-04-30T10:48:00.062Z</time></trkpt><trkpt lat="41.524305" lon="2.7388119"><ele>0.0</ele><time>2026-04-30T10:48:01.062Z</time></trkpt><trkpt lat="41.5243415" lon="2.7389147"><ele>0.0</ele><time>2026-04-30T10:48:02.062Z</time></trkpt><trkpt lat="41.5243775" lon="2.7390154"><ele>0.0</ele><time>2026-04-30T10:48:03.062Z</time></trkpt><trkpt lat="41.524415" lon="2.7391155"><ele>0.0</ele><time>2026-04-30T10:48:04.063Z</time></trkpt><trkpt lat="41.524455" lon="2.7392173"><ele>0.0</ele><time>2026-04-30T10:48:05.063Z</time></trkpt><trkpt lat="41.5244921" lon="2.7393229"><ele>0.0</ele><time>2026-04-30T10:48:06.063Z</time></trkpt><trkpt lat="41.5245273" lon="2.7394281"><ele>0.0</ele><time>2026-04-30T10:48:07.062Z</time></trkpt><trkpt lat="41.5245653" lon="2.7395331"><ele>0.0</ele><time>2026-04-30T10:48:08.063Z</time></trkpt><trkpt lat="41.5246051" lon="2.7396355"><ele>0.0</ele><time>2026-04-30T10:48:09.062Z</time></trkpt><trkpt lat="41.5246438" lon="2.739738"><ele>0.0</ele><time>2026-04-30T10:48:10.063Z</time></trkpt><trkpt lat="41.5246791" lon="2.739846"><ele>0.0</ele><time>2026-04-30T10:48:11.062Z</time></trkpt><trkpt lat="41.5247122" lon="2.7399519"><ele>0.0</ele><time>2026-04-30T10:48:12.063Z</time></trkpt><trkpt lat="41.5247452" lon="2.7400569"><ele>0.0</ele><time>2026-04-30T10:48:13.062Z</time></trkpt><trkpt lat="41.524777" lon="2.7401605"><ele>0.0</ele><time>2026-04-30T10:48:14.062Z</time></trkpt><trkpt lat="41.5248101" lon="2.7402665"><ele>0.0</ele><time>2026-04-30T10:48:15.063Z</time></trkpt><trkpt lat="41.5248723" lon="2.7404726"><ele>0.0</ele><time>2026-04-30T10:48:17.062Z</time></trkpt><trkpt lat="41.5249081" lon="2.7405725"><ele>0.0</ele><time>2026-04-30T10:48:18.062Z</time></trkpt><trkpt lat="41.5249419" lon="2.7406752"><ele>0.0</ele><time>2026-04-30T10:48:19.062Z</time></trkpt><trkpt lat="41.5249785" lon="2.7407784"><ele>0.0</ele><time>2026-04-30T10:48:20.062Z</time></trkpt><trkpt lat="41.5250137" lon="2.7408843"><ele>0.0</ele><time>2026-04-30T10:48:21.063Z</time></trkpt><trkpt lat="41.5250567" lon="2.7409882"><ele>0.0</ele><time>2026-04-30T10:48:22.062Z</time></trkpt><trkpt lat="41.5250958" lon="2.741093"><ele>0.0</ele><time>2026-04-30T10:48:23.063Z</time></trkpt><trkpt lat="41.5251359" lon="2.7411977"><ele>0.0</ele><time>2026-04-30T10:48:24.062Z</time></trkpt><trkpt lat="41.5251802" lon="2.7412986"><ele>0.0</ele><time>2026-04-30T10:48:25.062Z</time></trkpt><trkpt lat="41.5252197" lon="2.7414017"><ele>0.0</ele><time>2026-04-30T10:48:26.062Z</time></trkpt><trkpt lat="41.5252594" lon="2.7415065"><ele>0.0</ele><time>2026-04-30T10:48:27.063Z</time></trkpt><trkpt lat="41.5252994" lon="2.7416116"><ele>0.0</ele><time>2026-04-30T10:48:28.063Z</time></trkpt><trkpt lat="41.5253432" lon="2.7417107"><ele>0.0</ele><time>2026-04-30T10:48:29.062Z</time></trkpt><trkpt lat="41.5253834" lon="2.7418108"><ele>0.0</ele><time>2026-04-30T10:48:30.062Z</time></trkpt><trkpt lat="41.5254179" lon="2.7419181"><ele>0.0</ele><time>2026-04-30T10:48:31.062Z</time></trkpt><trkpt lat="41.5254556" lon="2.7420247"><ele>0.0</ele><time>2026-04-30T10:48:32.063Z</time></trkpt><trkpt lat="41.5254942" lon="2.7421305"><ele>0.0</ele><time>2026-04-30T10:48:33.063Z</time></trkpt><trkpt lat="41.5255338" lon="2.7422365"><ele>0.0</ele><time>2026-04-30T10:48:34.062Z</time></trkpt><trkpt lat="41.5255722" lon="2.7423405"><ele>0.0</ele><time>2026-04-30T10:48:35.063Z</time></trkpt><trkpt lat="41.5256105" lon="2.7424465"><ele>0.0</ele><time>2026-04-30T10:48:36.062Z</time></trkpt><trkpt lat="41.5256882" lon="2.742657"><ele>0.0</ele><time>2026-04-30T10:48:38.062Z</time></trkpt><trkpt lat="41.5257258" lon="2.7427574"><ele>0.0</ele><time>2026-04-30T10:48:39.062Z</time></trkpt><trkpt lat="41.5257765" lon="2.7428544"><ele>0.0</ele><time>2026-04-30T10:48:40.062Z</time></trkpt><trkpt lat="41.5258238" lon="2.7429554"><ele>0.0</ele><time>2026-04-30T10:48:41.063Z</time></trkpt><trkpt lat="41.5258574" lon="2.7430625"><ele>0.0</ele><time>2026-04-30T10:48:42.062Z</time></trkpt><trkpt lat="41.5258917" lon="2.7431692"><ele>0.0</ele><time>2026-04-30T10:48:43.063Z</time></trkpt><trkpt lat="41.5259297" lon="2.7432734"><ele>0.0</ele><time>2026-04-30T10:48:44.063Z</time></trkpt><trkpt lat="41.525968" lon="2.7433763"><ele>0.0</ele><time>2026-04-30T10:48:45.062Z</time></trkpt><trkpt lat="41.5260047" lon="2.7434782"><ele>0.0</ele><time>2026-04-30T10:48:46.063Z</time></trkpt><trkpt lat="41.5260443" lon="2.7435815"><ele>0.0</ele><time>2026-04-30T10:48:47.062Z</time></trkpt><trkpt lat="41.5260871" lon="2.7436864"><ele>0.0</ele><time>2026-04-30T10:48:48.062Z</time></trkpt><trkpt lat="41.5261248" lon="2.743786"><ele>0.0</ele><time>2026-04-30T10:48:49.062Z</time></trkpt><trkpt lat="41.5261574" lon="2.7438916"><ele>0.0</ele><time>2026-04-30T10:48:50.062Z</time></trkpt><trkpt lat="41.5261925" lon="2.743992"><ele>0.0</ele><time>2026-04-30T10:48:51.062Z</time></trkpt><trkpt lat="41.5262291" lon="2.7440967"><ele>0.0</ele><time>2026-04-30T10:48:52.062Z</time></trkpt><trkpt lat="41.5262691" lon="2.7441989"><ele>0.0</ele><time>2026-04-30T10:48:53.063Z</time></trkpt><trkpt lat="41.5263191" lon="2.7442952"><ele>0.0</ele><time>2026-04-30T10:48:54.062Z</time></trkpt><trkpt lat="41.5263518" lon="2.7444026"><ele>0.0</ele><time>2026-04-30T10:48:55.062Z</time></trkpt><trkpt lat="41.5263835" lon="2.7445128"><ele>0.0</ele><time>2026-04-30T10:48:56.063Z</time></trkpt><trkpt lat="41.526416" lon="2.7446196"><ele>0.0</ele><time>2026-04-30T10:48:57.062Z</time></trkpt><trkpt lat="41.5264957" lon="2.744821"><ele>0.0</ele><time>2026-04-30T10:48:59.062Z</time></trkpt><trkpt lat="41.5265329" lon="2.7449247"><ele>0.0</ele><time>2026-04-30T10:49:00.063Z</time></trkpt><trkpt lat="41.5265723" lon="2.7450282"><ele>0.0</ele><time>2026-04-30T10:49:01.062Z</time></trkpt><trkpt lat="41.5266061" lon="2.7451346"><ele>0.0</ele><time>2026-04-30T10:49:02.062Z</time></trkpt><trkpt lat="41.5266316" lon="2.7452397"><ele>0.0</ele><time>2026-04-30T10:49:03.062Z</time></trkpt><trkpt lat="41.5266608" lon="2.7453464"><ele>0.0</ele><time>2026-04-30T10:49:04.063Z</time></trkpt><trkpt lat="41.5266946" lon="2.7454517"><ele>0.0</ele><time>2026-04-30T10:49:05.062Z</time></trkpt><trkpt lat="41.5267326" lon="2.7455535"><ele>0.0</ele><time>2026-04-30T10:49:06.062Z</time></trkpt><trkpt lat="41.5267729" lon="2.7456582"><ele>0.0</ele><time>2026-04-30T10:49:07.062Z</time></trkpt><trkpt lat="41.5268105" lon="2.7457649"><ele>0.0</ele><time>2026-04-30T10:49:08.062Z</time></trkpt><trkpt lat="41.5268486" lon="2.7458721"><ele>0.0</ele><time>2026-04-30T10:49:09.063Z</time></trkpt><trkpt lat="41.5268857" lon="2.7459779"><ele>0.0</ele><time>2026-04-30T10:49:10.063Z</time></trkpt><trkpt lat="41.5269622" lon="2.7461806"><ele>0.0</ele><time>2026-04-30T10:49:12.063Z</time></trkpt><trkpt lat="41.5270035" lon="2.7462833"><ele>0.0</ele><time>2026-04-30T10:49:13.063Z</time></trkpt><trkpt lat="41.5270434" lon="2.7463851"><ele>0.0</ele><time>2026-04-30T10:49:14.063Z</time></trkpt><trkpt lat="41.5270803" lon="2.7464894"><ele>0.0</ele><time>2026-04-30T10:49:15.063Z</time></trkpt><trkpt lat="41.527111" lon="2.746589"><ele>0.0</ele><time>2026-04-30T10:49:16.063Z</time></trkpt><trkpt lat="41.5271463" lon="2.7466889"><ele>0.0</ele><time>2026-04-30T10:49:17.062Z</time></trkpt><trkpt lat="41.5271821" lon="2.7467919"><ele>0.0</ele><time>2026-04-30T10:49:18.062Z</time></trkpt><trkpt lat="41.5272556" lon="2.7469954"><ele>0.0</ele><time>2026-04-30T10:49:20.062Z</time></trkpt><trkpt lat="41.5272935" lon="2.7470981"><ele>0.0</ele><time>2026-04-30T10:49:21.062Z</time></trkpt><trkpt lat="41.5273322" lon="2.7472003"><ele>0.0</ele><time>2026-04-30T10:49:22.062Z</time></trkpt><trkpt lat="41.5273686" lon="2.7473064"><ele>0.0</ele><time>2026-04-30T10:49:23.063Z</time></trkpt><trkpt lat="41.5274003" lon="2.7474145"><ele>0.0</ele><time>2026-04-30T10:49:24.063Z</time></trkpt><trkpt lat="41.5274391" lon="2.747527"><ele>0.0</ele><time>2026-04-30T10:49:25.062Z</time></trkpt><trkpt lat="41.527472" lon="2.7476379"><ele>0.0</ele><time>2026-04-30T10:49:26.062Z</time></trkpt><trkpt lat="41.5275151" lon="2.7477465"><ele>0.0</ele><time>2026-04-30T10:49:27.063Z</time></trkpt><trkpt lat="41.527555" lon="2.7478544"><ele>0.0</ele><time>2026-04-30T10:49:28.062Z</time></trkpt><trkpt lat="41.5275906" lon="2.747958"><ele>0.0</ele><time>2026-04-30T10:49:29.063Z</time></trkpt><trkpt lat="41.5276259" lon="2.7480619"><ele>0.0</ele><time>2026-04-30T10:49:30.062Z</time></trkpt><trkpt lat="41.5276664" lon="2.7481635"><ele>0.0</ele><time>2026-04-30T10:49:31.062Z</time></trkpt><trkpt lat="41.5277078" lon="2.7482678"><ele>0.0</ele><time>2026-04-30T10:49:32.062Z</time></trkpt><trkpt lat="41.527744" lon="2.7483657"><ele>0.0</ele><time>2026-04-30T10:49:33.062Z</time></trkpt><trkpt lat="41.527777" lon="2.7484672"><ele>0.0</ele><time>2026-04-30T10:49:34.062Z</time></trkpt><trkpt lat="41.5278103" lon="2.7485744"><ele>0.0</ele><time>2026-04-30T10:49:35.062Z</time></trkpt><trkpt lat="41.5278407" lon="2.7486818"><ele>0.0</ele><time>2026-04-30T10:49:36.062Z</time></trkpt><trkpt lat="41.5278684" lon="2.7487898"><ele>0.0</ele><time>2026-04-30T10:49:37.062Z</time></trkpt><trkpt lat="41.5279037" lon="2.7488981"><ele>0.0</ele><time>2026-04-30T10:49:38.062Z</time></trkpt><trkpt lat="41.5279333" lon="2.7490042"><ele>0.0</ele><time>2026-04-30T10:49:39.063Z</time></trkpt><trkpt lat="41.528009" lon="2.7492281"><ele>0.0</ele><time>2026-04-30T10:49:41.062Z</time></trkpt><trkpt lat="41.5280409" lon="2.7493349"><ele>0.0</ele><time>2026-04-30T10:49:42.062Z</time></trkpt><trkpt lat="41.5280735" lon="2.7494387"><ele>0.0</ele><time>2026-04-30T10:49:43.062Z</time></trkpt><trkpt lat="41.5281076" lon="2.7495375"><ele>0.0</ele><time>2026-04-30T10:49:44.063Z</time></trkpt><trkpt lat="41.5281408" lon="2.7496428"><ele>0.0</ele><time>2026-04-30T10:49:45.062Z</time></trkpt><trkpt lat="41.5281736" lon="2.749748"><ele>0.0</ele><time>2026-04-30T10:49:46.063Z</time></trkpt><trkpt lat="41.5282096" lon="2.7498505"><ele>0.0</ele><time>2026-04-30T10:49:47.063Z</time></trkpt><trkpt lat="41.5282447" lon="2.7499552"><ele>0.0</ele><time>2026-04-30T10:49:48.062Z</time></trkpt><trkpt lat="41.5282791" lon="2.7500603"><ele>0.0</ele><time>2026-04-30T10:49:49.062Z</time></trkpt><trkpt lat="41.5283166" lon="2.7501685"><ele>0.0</ele><time>2026-04-30T10:49:50.062Z</time></trkpt><trkpt lat="41.5283524" lon="2.7502738"><ele>0.0</ele><time>2026-04-30T10:49:51.062Z</time></trkpt><trkpt lat="41.5283905" lon="2.7503763"><ele>0.0</ele><time>2026-04-30T10:49:52.063Z</time></trkpt><trkpt lat="41.528429" lon="2.7504794"><ele>0.0</ele><time>2026-04-30T10:49:53.062Z</time></trkpt><trkpt lat="41.5284673" lon="2.7505771"><ele>0.0</ele><time>2026-04-30T10:49:54.062Z</time></trkpt><trkpt lat="41.528504" lon="2.7506716"><ele>0.0</ele><time>2026-04-30T10:49:55.063Z</time></trkpt><trkpt lat="41.5285389" lon="2.7507767"><ele>0.0</ele><time>2026-04-30T10:49:56.062Z</time></trkpt><trkpt lat="41.5285746" lon="2.7508876"><ele>0.0</ele><time>2026-04-30T10:49:57.062Z</time></trkpt><trkpt lat="41.5286063" lon="2.7509964"><ele>0.0</ele><time>2026-04-30T10:49:58.063Z</time></trkpt><trkpt lat="41.5286382" lon="2.7511034"><ele>0.0</ele><time>2026-04-30T10:49:59.062Z</time></trkpt><trkpt lat="41.5286747" lon="2.7512056"><ele>0.0</ele><time>2026-04-30T10:50:00.062Z</time></trkpt><trkpt lat="41.5287454" lon="2.7514102"><ele>0.0</ele><time>2026-04-30T10:50:02.062Z</time></trkpt><trkpt lat="41.5287833" lon="2.7515119"><ele>0.0</ele><time>2026-04-30T10:50:03.062Z</time></trkpt><trkpt lat="41.5288248" lon="2.7516147"><ele>0.0</ele><time>2026-04-30T10:50:04.063Z</time></trkpt><trkpt lat="41.5288731" lon="2.7517123"><ele>0.0</ele><time>2026-04-30T10:50:05.063Z</time></trkpt><trkpt lat="41.5289121" lon="2.751806"><ele>0.0</ele><time>2026-04-30T10:50:06.063Z</time></trkpt><trkpt lat="41.528955" lon="2.751907"><ele>0.0</ele><time>2026-04-30T10:50:07.062Z</time></trkpt><trkpt lat="41.5289998" lon="2.752007"><ele>0.0</ele><time>2026-04-30T10:50:08.062Z</time></trkpt><trkpt lat="41.5290415" lon="2.7521142"><ele>0.0</ele><time>2026-04-30T10:50:09.063Z</time></trkpt><trkpt lat="41.5290832" lon="2.7522168"><ele>0.0</ele><time>2026-04-30T10:50:10.062Z</time></trkpt><trkpt lat="41.5291268" lon="2.7523198"><ele>0.0</ele><time>2026-04-30T10:50:11.063Z</time></trkpt><trkpt lat="41.5291684" lon="2.7524244"><ele>0.0</ele><time>2026-04-30T10:50:12.063Z</time></trkpt><trkpt lat="41.5292102" lon="2.7525239"><ele>0.0</ele><time>2026-04-30T10:50:13.062Z</time></trkpt><trkpt lat="41.5292502" lon="2.752629"><ele>0.0</ele><time>2026-04-30T10:50:14.062Z</time></trkpt><trkpt lat="41.5293284" lon="2.7528457"><ele>0.0</ele><time>2026-04-30T10:50:16.062Z</time></trkpt><trkpt lat="41.5293649" lon="2.7529514"><ele>0.0</ele><time>2026-04-30T10:50:17.062Z</time></trkpt><trkpt lat="41.5294023" lon="2.7530576"><ele>0.0</ele><time>2026-04-30T10:50:18.062Z</time></trkpt><trkpt lat="41.529435" lon="2.7531732"><ele>0.0</ele><time>2026-04-30T10:50:19.062Z</time></trkpt><trkpt lat="41.5294664" lon="2.7532808"><ele>0.0</ele><time>2026-04-30T10:50:20.063Z</time></trkpt><trkpt lat="41.5294964" lon="2.7533863"><ele>0.0</ele><time>2026-04-30T10:50:21.063Z</time></trkpt><trkpt lat="41.529564" lon="2.7535997"><ele>0.0</ele><time>2026-04-30T10:50:23.062Z</time></trkpt><trkpt lat="41.5296024" lon="2.7537037"><ele>0.0</ele><time>2026-04-30T10:50:24.062Z</time></trkpt><trkpt lat="41.5296406" lon="2.753807"><ele>0.0</ele><time>2026-04-30T10:50:25.063Z</time></trkpt><trkpt lat="41.5296801" lon="2.7539103"><ele>0.0</ele><time>2026-04-30T10:50:26.062Z</time></trkpt><trkpt lat="41.5297175" lon="2.7540135"><ele>0.0</ele><time>2026-04-30T10:50:27.063Z</time></trkpt><trkpt lat="41.5297552" lon="2.754115"><ele>0.0</ele><time>2026-04-30T10:50:28.063Z</time></trkpt><trkpt lat="41.5297897" lon="2.7542168"><ele>0.0</ele><time>2026-04-30T10:50:29.063Z</time></trkpt><trkpt lat="41.5298201" lon="2.754317"><ele>0.0</ele><time>2026-04-30T10:50:30.063Z</time></trkpt><trkpt lat="41.5298524" lon="2.75442"><ele>0.0</ele><time>2026-04-30T10:50:31.063Z</time></trkpt><trkpt lat="41.5298914" lon="2.7545218"><ele>0.0</ele><time>2026-04-30T10:50:32.063Z</time></trkpt><trkpt lat="41.5299254" lon="2.7546265"><ele>0.0</ele><time>2026-04-30T10:50:33.063Z</time></trkpt><trkpt lat="41.5299589" lon="2.7547288"><ele>0.0</ele><time>2026-04-30T10:50:34.063Z</time></trkpt><trkpt lat="41.529994" lon="2.7548317"><ele>0.0</ele><time>2026-04-30T10:50:35.063Z</time></trkpt><trkpt lat="41.5300244" lon="2.7549378"><ele>0.0</ele><time>2026-04-30T10:50:36.062Z</time></trkpt><trkpt lat="41.5300587" lon="2.7550426"><ele>0.0</ele><time>2026-04-30T10:50:37.063Z</time></trkpt><trkpt lat="41.5300923" lon="2.7551497"><ele>0.0</ele><time>2026-04-30T10:50:38.063Z</time></trkpt><trkpt lat="41.5301282" lon="2.7552552"><ele>0.0</ele><time>2026-04-30T10:50:39.063Z</time></trkpt><trkpt lat="41.5301651" lon="2.7553597"><ele>0.0</ele><time>2026-04-30T10:50:40.063Z</time></trkpt><trkpt lat="41.5302034" lon="2.7554665"><ele>0.0</ele><time>2026-04-30T10:50:41.063Z</time></trkpt><trkpt lat="41.530246" lon="2.7555718"><ele>0.0</ele><time>2026-04-30T10:50:42.063Z</time></trkpt><trkpt lat="41.5303294" lon="2.755777"><ele>0.0</ele><time>2026-04-30T10:50:44.062Z</time></trkpt><trkpt lat="41.5303642" lon="2.7558803"><ele>0.0</ele><time>2026-04-30T10:50:45.062Z</time></trkpt><trkpt lat="41.5304002" lon="2.7559818"><ele>0.0</ele><time>2026-04-30T10:50:46.063Z</time></trkpt><trkpt lat="41.5304755" lon="2.7561913"><ele>0.0</ele><time>2026-04-30T10:50:48.062Z</time></trkpt><trkpt lat="41.5305151" lon="2.7562979"><ele>0.0</ele><time>2026-04-30T10:50:49.062Z</time></trkpt><trkpt lat="41.5305508" lon="2.7564033"><ele>0.0</ele><time>2026-04-30T10:50:50.063Z</time></trkpt><trkpt lat="41.5305869" lon="2.7565093"><ele>0.0</ele><time>2026-04-30T10:50:51.063Z</time></trkpt><trkpt lat="41.5306205" lon="2.7566147"><ele>0.0</ele><time>2026-04-30T10:50:52.063Z</time></trkpt><trkpt lat="41.5306551" lon="2.7567198"><ele>0.0</ele><time>2026-04-30T10:50:53.063Z</time></trkpt><trkpt lat="41.530693" lon="2.7568205"><ele>0.0</ele><time>2026-04-30T10:50:54.062Z</time></trkpt><trkpt lat="41.5307329" lon="2.756929"><ele>0.0</ele><time>2026-04-30T10:50:55.062Z</time></trkpt><trkpt lat="41.5307701" lon="2.7570347"><ele>0.0</ele><time>2026-04-30T10:50:56.062Z</time></trkpt><trkpt lat="41.5308101" lon="2.7571345"><ele>0.0</ele><time>2026-04-30T10:50:57.062Z</time></trkpt><trkpt lat="41.5308484" lon="2.7572311"><ele>0.0</ele><time>2026-04-30T10:50:58.063Z</time></trkpt><trkpt lat="41.5308842" lon="2.7573334"><ele>0.0</ele><time>2026-04-30T10:50:59.063Z</time></trkpt><trkpt lat="41.5309286" lon="2.7574341"><ele>0.0</ele><time>2026-04-30T10:51:00.062Z</time></trkpt><trkpt lat="41.5309673" lon="2.7575366"><ele>0.0</ele><time>2026-04-30T10:51:01.063Z</time></trkpt><trkpt lat="41.5310064" lon="2.7576384"><ele>0.0</ele><time>2026-04-30T10:51:02.063Z</time></trkpt><trkpt lat="41.5310744" lon="2.757848"><ele>0.0</ele><time>2026-04-30T10:51:04.062Z</time></trkpt><trkpt lat="41.5311205" lon="2.7579503"><ele>0.0</ele><time>2026-04-30T10:51:05.062Z</time></trkpt><trkpt lat="41.5311633" lon="2.7580564"><ele>0.0</ele><time>2026-04-30T10:51:06.063Z</time></trkpt><trkpt lat="41.5311977" lon="2.7581614"><ele>0.0</ele><time>2026-04-30T10:51:07.062Z</time></trkpt><trkpt lat="41.5312308" lon="2.7582633"><ele>0.0</ele><time>2026-04-30T10:51:08.062Z</time></trkpt><trkpt lat="41.5312683" lon="2.7583678"><ele>0.0</ele><time>2026-04-30T10:51:09.063Z</time></trkpt><trkpt lat="41.531307" lon="2.75847"><ele>0.0</ele><time>2026-04-30T10:51:10.062Z</time></trkpt><trkpt lat="41.5313406" lon="2.7585736"><ele>0.0</ele><time>2026-04-30T10:51:11.062Z</time></trkpt><trkpt lat="41.5313823" lon="2.7586795"><ele>0.0</ele><time>2026-04-30T10:51:12.063Z</time></trkpt><trkpt lat="41.5314231" lon="2.7587833"><ele>0.0</ele><time>2026-04-30T10:51:13.062Z</time></trkpt><trkpt lat="41.5314553" lon="2.7588967"><ele>0.0</ele><time>2026-04-30T10:51:14.063Z</time></trkpt><trkpt lat="41.5314884" lon="2.7590013"><ele>0.0</ele><time>2026-04-30T10:51:15.062Z</time></trkpt><trkpt lat="41.5315279" lon="2.7591025"><ele>0.0</ele><time>2026-04-30T10:51:16.063Z</time></trkpt><trkpt lat="41.5315713" lon="2.7592052"><ele>0.0</ele><time>2026-04-30T10:51:17.062Z</time></trkpt><trkpt lat="41.5316113" lon="2.7593069"><ele>0.0</ele><time>2026-04-30T10:51:18.063Z</time></trkpt><trkpt lat="41.5316502" lon="2.7594118"><ele>0.0</ele><time>2026-04-30T10:51:19.063Z</time></trkpt><trkpt lat="41.5316872" lon="2.7595165"><ele>0.0</ele><time>2026-04-30T10:51:20.063Z</time></trkpt><trkpt lat="41.5317209" lon="2.759617"><ele>0.0</ele><time>2026-04-30T10:51:21.063Z</time></trkpt><trkpt lat="41.5317596" lon="2.7597216"><ele>0.0</ele><time>2026-04-30T10:51:22.063Z</time></trkpt><trkpt lat="41.5317998" lon="2.7598248"><ele>0.0</ele><time>2026-04-30T10:51:23.063Z</time></trkpt><trkpt lat="41.5318764" lon="2.7600336"><ele>0.0</ele><time>2026-04-30T10:51:25.063Z</time></trkpt><trkpt lat="41.5319085" lon="2.7601425"><ele>0.0</ele><time>2026-04-30T10:51:26.062Z</time></trkpt><trkpt lat="41.5319403" lon="2.7602481"><ele>0.0</ele><time>2026-04-30T10:51:27.062Z</time></trkpt><trkpt lat="41.5319764" lon="2.7603517"><ele>0.0</ele><time>2026-04-30T10:51:28.062Z</time></trkpt><trkpt lat="41.5320157" lon="2.7604567"><ele>0.0</ele><time>2026-04-30T10:51:29.063Z</time></trkpt><trkpt lat="41.5320446" lon="2.7605629"><ele>0.0</ele><time>2026-04-30T10:51:30.062Z</time></trkpt><trkpt lat="41.5320829" lon="2.7606667"><ele>0.0</ele><time>2026-04-30T10:51:31.063Z</time></trkpt><trkpt lat="41.5321199" lon="2.7607686"><ele>0.0</ele><time>2026-04-30T10:51:32.062Z</time></trkpt><trkpt lat="41.5321581" lon="2.760865"><ele>0.0</ele><time>2026-04-30T10:51:33.062Z</time></trkpt><trkpt lat="41.5321992" lon="2.7609716"><ele>0.0</ele><time>2026-04-30T10:51:34.063Z</time></trkpt><trkpt lat="41.5322369" lon="2.7610747"><ele>0.0</ele><time>2026-04-30T10:51:35.063Z</time></trkpt><trkpt lat="41.532275" lon="2.7611799"><ele>0.0</ele><time>2026-04-30T10:51:36.063Z</time></trkpt><trkpt lat="41.5323076" lon="2.7612862"><ele>0.0</ele><time>2026-04-30T10:51:37.062Z</time></trkpt><trkpt lat="41.5323476" lon="2.7613915"><ele>0.0</ele><time>2026-04-30T10:51:38.062Z</time></trkpt><trkpt lat="41.5323866" lon="2.7614952"><ele>0.0</ele><time>2026-04-30T10:51:39.062Z</time></trkpt><trkpt lat="41.5324164" lon="2.761604"><ele>0.0</ele><time>2026-04-30T10:51:40.062Z</time></trkpt><trkpt lat="41.5324462" lon="2.7617097"><ele>0.0</ele><time>2026-04-30T10:51:41.063Z</time></trkpt><trkpt lat="41.5324801" lon="2.7618148"><ele>0.0</ele><time>2026-04-30T10:51:42.063Z</time></trkpt><trkpt lat="41.5325169" lon="2.7619212"><ele>0.0</ele><time>2026-04-30T10:51:43.062Z</time></trkpt><trkpt lat="41.532555" lon="2.7620293"><ele>0.0</ele><time>2026-04-30T10:51:44.062Z</time></trkpt><trkpt lat="41.5326269" lon="2.7622384"><ele>0.0</ele><time>2026-04-30T10:51:46.062Z</time></trkpt><trkpt lat="41.5326606" lon="2.7623428"><ele>0.0</ele><time>2026-04-30T10:51:47.062Z</time></trkpt><trkpt lat="41.5326998" lon="2.7624452"><ele>0.0</ele><time>2026-04-30T10:51:48.062Z</time></trkpt><trkpt lat="41.5327398" lon="2.7625469"><ele>0.0</ele><time>2026-04-30T10:51:49.063Z</time></trkpt><trkpt lat="41.532781" lon="2.7626472"><ele>0.0</ele><time>2026-04-30T10:51:50.062Z</time></trkpt><trkpt lat="41.5328746" lon="2.7628471"><ele>0.0</ele><time>2026-04-30T10:51:52.063Z</time></trkpt><trkpt lat="41.5329138" lon="2.7629526"><ele>0.0</ele><time>2026-04-30T10:51:53.062Z</time></trkpt><trkpt lat="41.5329521" lon="2.7630607"><ele>0.0</ele><time>2026-04-30T10:51:54.063Z</time></trkpt><trkpt lat="41.5329898" lon="2.7631708"><ele>0.0</ele><time>2026-04-30T10:51:55.062Z</time></trkpt><trkpt lat="41.5330237" lon="2.7632791"><ele>0.0</ele><time>2026-04-30T10:51:56.063Z</time></trkpt><trkpt lat="41.5330583" lon="2.7633838"><ele>0.0</ele><time>2026-04-30T10:51:57.062Z</time></trkpt><trkpt lat="41.5330973" lon="2.7634857"><ele>0.0</ele><time>2026-04-30T10:51:58.063Z</time></trkpt><trkpt lat="41.5331347" lon="2.7635946"><ele>0.0</ele><time>2026-04-30T10:51:59.062Z</time></trkpt><trkpt lat="41.533172" lon="2.7636968"><ele>0.0</ele><time>2026-04-30T10:52:00.062Z</time></trkpt><trkpt lat="41.5332082" lon="2.7638005"><ele>0.0</ele><time>2026-04-30T10:52:01.063Z</time></trkpt><trkpt lat="41.5332479" lon="2.7639048"><ele>0.0</ele><time>2026-04-30T10:52:02.062Z</time></trkpt><trkpt lat="41.5332866" lon="2.7640071"><ele>0.0</ele><time>2026-04-30T10:52:03.063Z</time></trkpt><trkpt lat="41.5333279" lon="2.7641071"><ele>0.0</ele><time>2026-04-30T10:52:04.062Z</time></trkpt><trkpt lat="41.533365" lon="2.7642071"><ele>0.0</ele><time>2026-04-30T10:52:05.062Z</time></trkpt><trkpt lat="41.5334369" lon="2.7644053"><ele>0.0</ele><time>2026-04-30T10:52:07.063Z</time></trkpt><trkpt lat="41.5334735" lon="2.7645069"><ele>0.0</ele><time>2026-04-30T10:52:08.063Z</time></trkpt><trkpt lat="41.5335131" lon="2.7646061"><ele>0.0</ele><time>2026-04-30T10:52:09.062Z</time></trkpt><trkpt lat="41.5335501" lon="2.7647085"><ele>0.0</ele><time>2026-04-30T10:52:10.062Z</time></trkpt><trkpt lat="41.5335844" lon="2.764815"><ele>0.0</ele><time>2026-04-30T10:52:11.063Z</time></trkpt><trkpt lat="41.5336162" lon="2.7649228"><ele>0.0</ele><time>2026-04-30T10:52:12.062Z</time></trkpt><trkpt lat="41.5336506" lon="2.7650266"><ele>0.0</ele><time>2026-04-30T10:52:13.062Z</time></trkpt><trkpt lat="41.533685" lon="2.7651327"><ele>0.0</ele><time>2026-04-30T10:52:14.063Z</time></trkpt><trkpt lat="41.5337219" lon="2.7652368"><ele>0.0</ele><time>2026-04-30T10:52:15.063Z</time></trkpt><trkpt lat="41.5337585" lon="2.7653413"><ele>0.0</ele><time>2026-04-30T10:52:16.062Z</time></trkpt><trkpt lat="41.5337971" lon="2.7654449"><ele>0.0</ele><time>2026-04-30T10:52:17.062Z</time></trkpt><trkpt lat="41.5338409" lon="2.7655511"><ele>0.0</ele><time>2026-04-30T10:52:18.062Z</time></trkpt><trkpt lat="41.5338756" lon="2.7656507"><ele>0.0</ele><time>2026-04-30T10:52:19.062Z</time></trkpt><trkpt lat="41.5339118" lon="2.7657502"><ele>0.0</ele><time>2026-04-30T10:52:20.062Z</time></trkpt><trkpt lat="41.53395" lon="2.7658487"><ele>0.0</ele><time>2026-04-30T10:52:21.062Z</time></trkpt><trkpt lat="41.5339854" lon="2.7659475"><ele>0.0</ele><time>2026-04-30T10:52:22.062Z</time></trkpt><trkpt lat="41.5340233" lon="2.7660543"><ele>0.0</ele><time>2026-04-30T10:52:23.063Z</time></trkpt><trkpt lat="41.5340631" lon="2.7661609"><ele>0.0</ele><time>2026-04-30T10:52:24.063Z</time></trkpt><trkpt lat="41.534102" lon="2.7662675"><ele>0.0</ele><time>2026-04-30T10:52:25.061Z</time></trkpt><trkpt lat="41.5341343" lon="2.7663743"><ele>0.0</ele><time>2026-04-30T10:52:26.062Z</time></trkpt><trkpt lat="41.5342091" lon="2.7665854"><ele>0.0</ele><time>2026-04-30T10:52:28.061Z</time></trkpt><trkpt lat="41.5342571" lon="2.7666874"><ele>0.0</ele><time>2026-04-30T10:52:29.062Z</time></trkpt><trkpt lat="41.5342945" lon="2.7667917"><ele>0.0</ele><time>2026-04-30T10:52:30.062Z</time></trkpt><trkpt lat="41.5343382" lon="2.7668967"><ele>0.0</ele><time>2026-04-30T10:52:31.062Z</time></trkpt><trkpt lat="41.5343737" lon="2.7670028"><ele>0.0</ele><time>2026-04-30T10:52:32.061Z</time></trkpt><trkpt lat="41.5344013" lon="2.7671138"><ele>0.0</ele><time>2026-04-30T10:52:33.061Z</time></trkpt><trkpt lat="41.5344338" lon="2.7672298"><ele>0.0</ele><time>2026-04-30T10:52:34.062Z</time></trkpt><trkpt lat="41.5344701" lon="2.7673392"><ele>0.0</ele><time>2026-04-30T10:52:35.062Z</time></trkpt><trkpt lat="41.5345089" lon="2.7674418"><ele>0.0</ele><time>2026-04-30T10:52:36.061Z</time></trkpt><trkpt lat="41.5345465" lon="2.7675453"><ele>0.0</ele><time>2026-04-30T10:52:37.062Z</time></trkpt><trkpt lat="41.5345889" lon="2.7676442"><ele>0.0</ele><time>2026-04-30T10:52:38.062Z</time></trkpt><trkpt lat="41.5346337" lon="2.7677439"><ele>0.0</ele><time>2026-04-30T10:52:39.061Z</time></trkpt><trkpt lat="41.5346746" lon="2.7678493"><ele>0.0</ele><time>2026-04-30T10:52:40.061Z</time></trkpt><trkpt lat="41.534712" lon="2.7679532"><ele>0.0</ele><time>2026-04-30T10:52:41.061Z</time></trkpt><trkpt lat="41.5347458" lon="2.7680595"><ele>0.0</ele><time>2026-04-30T10:52:42.062Z</time></trkpt><trkpt lat="41.5347788" lon="2.7681645"><ele>0.0</ele><time>2026-04-30T10:52:43.061Z</time></trkpt><trkpt lat="41.5348123" lon="2.7682722"><ele>0.0</ele><time>2026-04-30T10:52:44.062Z</time></trkpt><trkpt lat="41.5348484" lon="2.7683737"><ele>0.0</ele><time>2026-04-30T10:52:45.062Z</time></trkpt><trkpt lat="41.5348767" lon="2.7684739"><ele>0.0</ele><time>2026-04-30T10:52:46.062Z</time></trkpt><trkpt lat="41.5349148" lon="2.7685764"><ele>0.0</ele><time>2026-04-30T10:52:47.062Z</time></trkpt><trkpt lat="41.5349844" lon="2.7687807"><ele>0.0</ele><time>2026-04-30T10:52:49.062Z</time></trkpt><trkpt lat="41.5350205" lon="2.7688833"><ele>0.0</ele><time>2026-04-30T10:52:50.061Z</time></trkpt><trkpt lat="41.5350559" lon="2.7689864"><ele>0.0</ele><time>2026-04-30T10:52:51.061Z</time></trkpt><trkpt lat="41.5350921" lon="2.7690939"><ele>0.0</ele><time>2026-04-30T10:52:52.061Z</time></trkpt><trkpt lat="41.5351252" lon="2.7691979"><ele>0.0</ele><time>2026-04-30T10:52:53.061Z</time></trkpt><trkpt lat="41.5351629" lon="2.7693015"><ele>0.0</ele><time>2026-04-30T10:52:54.062Z</time></trkpt><trkpt lat="41.5351972" lon="2.7694061"><ele>0.0</ele><time>2026-04-30T10:52:55.061Z</time></trkpt><trkpt lat="41.5352338" lon="2.7695098"><ele>0.0</ele><time>2026-04-30T10:52:56.062Z</time></trkpt><trkpt lat="41.5352709" lon="2.769613"><ele>0.0</ele><time>2026-04-30T10:52:57.061Z</time></trkpt><trkpt lat="41.5353084" lon="2.7697166"><ele>0.0</ele><time>2026-04-30T10:52:58.062Z</time></trkpt><trkpt lat="41.5353511" lon="2.7698195"><ele>0.0</ele><time>2026-04-30T10:52:59.062Z</time></trkpt><trkpt lat="41.5353816" lon="2.7699316"><ele>0.0</ele><time>2026-04-30T10:53:00.062Z</time></trkpt><trkpt lat="41.5354153" lon="2.7700341"><ele>0.0</ele><time>2026-04-30T10:53:01.062Z</time></trkpt><trkpt lat="41.5354553" lon="2.7701331"><ele>0.0</ele><time>2026-04-30T10:53:02.062Z</time></trkpt><trkpt lat="41.5354944" lon="2.7702324"><ele>0.0</ele><time>2026-04-30T10:53:03.061Z</time></trkpt><trkpt lat="41.5355326" lon="2.7703392"><ele>0.0</ele><time>2026-04-30T10:53:04.061Z</time></trkpt><trkpt lat="41.5355697" lon="2.7704464"><ele>0.0</ele><time>2026-04-30T10:53:05.061Z</time></trkpt><trkpt lat="41.5356093" lon="2.7705555"><ele>0.0</ele><time>2026-04-30T10:53:06.061Z</time></trkpt><trkpt lat="41.5356471" lon="2.7706657"><ele>0.0</ele><time>2026-04-30T10:53:07.061Z</time></trkpt><trkpt lat="41.5356848" lon="2.7707672"><ele>0.0</ele><time>2026-04-30T10:53:08.062Z</time></trkpt><trkpt lat="41.5357612" lon="2.770973"><ele>0.0</ele><time>2026-04-30T10:53:10.061Z</time></trkpt><trkpt lat="41.5357919" lon="2.7710828"><ele>0.0</ele><time>2026-04-30T10:53:11.061Z</time></trkpt><trkpt lat="41.5358318" lon="2.7711851"><ele>0.0</ele><time>2026-04-30T10:53:12.062Z</time></trkpt><trkpt lat="41.535866" lon="2.7712911"><ele>0.0</ele><time>2026-04-30T10:53:13.061Z</time></trkpt><trkpt lat="41.535898" lon="2.7713956"><ele>0.0</ele><time>2026-04-30T10:53:14.061Z</time></trkpt><trkpt lat="41.5359381" lon="2.7714997"><ele>0.0</ele><time>2026-04-30T10:53:15.061Z</time></trkpt><trkpt lat="41.5359772" lon="2.7716007"><ele>0.0</ele><time>2026-04-30T10:53:16.061Z</time></trkpt><trkpt lat="41.5360182" lon="2.7717025"><ele>0.0</ele><time>2026-04-30T10:53:17.061Z</time></trkpt><trkpt lat="41.5360613" lon="2.7718051"><ele>0.0</ele><time>2026-04-30T10:53:18.061Z</time></trkpt><trkpt lat="41.5360975" lon="2.7719096"><ele>0.0</ele><time>2026-04-30T10:53:19.061Z</time></trkpt><trkpt lat="41.5361368" lon="2.7720114"><ele>0.0</ele><time>2026-04-30T10:53:20.062Z</time></trkpt><trkpt lat="41.5361807" lon="2.7721124"><ele>0.0</ele><time>2026-04-30T10:53:21.061Z</time></trkpt><trkpt lat="41.5362199" lon="2.7722162"><ele>0.0</ele><time>2026-04-30T10:53:22.062Z</time></trkpt><trkpt lat="41.5362613" lon="2.7723213"><ele>0.0</ele><time>2026-04-30T10:53:23.061Z</time></trkpt><trkpt lat="41.5362975" lon="2.772429"><ele>0.0</ele><time>2026-04-30T10:53:24.062Z</time></trkpt><trkpt lat="41.5363352" lon="2.7725336"><ele>0.0</ele><time>2026-04-30T10:53:25.061Z</time></trkpt><trkpt lat="41.5363735" lon="2.7726367"><ele>0.0</ele><time>2026-04-30T10:53:26.061Z</time></trkpt><trkpt lat="41.5364531" lon="2.7728466"><ele>0.0</ele><time>2026-04-30T10:53:28.062Z</time></trkpt><trkpt lat="41.5364929" lon="2.77295"><ele>0.0</ele><time>2026-04-30T10:53:29.061Z</time></trkpt><trkpt lat="41.5365671" lon="2.7731582"><ele>0.0</ele><time>2026-04-30T10:53:31.061Z</time></trkpt><trkpt lat="41.5366003" lon="2.7732603"><ele>0.0</ele><time>2026-04-30T10:53:32.061Z</time></trkpt><trkpt lat="41.5366389" lon="2.7733597"><ele>0.0</ele><time>2026-04-30T10:53:33.061Z</time></trkpt><trkpt lat="41.5366816" lon="2.7734594"><ele>0.0</ele><time>2026-04-30T10:53:34.061Z</time></trkpt><trkpt lat="41.5367207" lon="2.7735565"><ele>0.0</ele><time>2026-04-30T10:53:35.061Z</time></trkpt><trkpt lat="41.5367609" lon="2.7736599"><ele>0.0</ele><time>2026-04-30T10:53:36.062Z</time></trkpt><trkpt lat="41.5368012" lon="2.7737631"><ele>0.0</ele><time>2026-04-30T10:53:37.062Z</time></trkpt><trkpt lat="41.5368443" lon="2.7738653"><ele>0.0</ele><time>2026-04-30T10:53:38.062Z</time></trkpt><trkpt lat="41.5368832" lon="2.7739714"><ele>0.0</ele><time>2026-04-30T10:53:39.062Z</time></trkpt><trkpt lat="41.5369184" lon="2.7740782"><ele>0.0</ele><time>2026-04-30T10:53:40.062Z</time></trkpt><trkpt lat="41.5369549" lon="2.7741858"><ele>0.0</ele><time>2026-04-30T10:53:41.062Z</time></trkpt><trkpt lat="41.5369922" lon="2.774293"><ele>0.0</ele><time>2026-04-30T10:53:42.061Z</time></trkpt><trkpt lat="41.5370326" lon="2.7743953"><ele>0.0</ele><time>2026-04-30T10:53:43.061Z</time></trkpt><trkpt lat="41.5370774" lon="2.7744943"><ele>0.0</ele><time>2026-04-30T10:53:44.062Z</time></trkpt><trkpt lat="41.5371153" lon="2.7745984"><ele>0.0</ele><time>2026-04-30T10:53:45.062Z</time></trkpt><trkpt lat="41.5371533" lon="2.7747017"><ele>0.0</ele><time>2026-04-30T10:53:46.061Z</time></trkpt><trkpt lat="41.5371946" lon="2.7748034"><ele>0.0</ele><time>2026-04-30T10:53:47.062Z</time></trkpt><trkpt lat="41.537234" lon="2.7749111"><ele>0.0</ele><time>2026-04-30T10:53:48.061Z</time></trkpt><trkpt lat="41.5372735" lon="2.7750168"><ele>0.0</ele><time>2026-04-30T10:53:49.062Z</time></trkpt><trkpt lat="41.5373051" lon="2.7751231"><ele>0.0</ele><time>2026-04-30T10:53:50.061Z</time></trkpt><trkpt lat="41.537385" lon="2.7753299"><ele>0.0</ele><time>2026-04-30T10:53:52.062Z</time></trkpt><trkpt lat="41.5374202" lon="2.7754321"><ele>0.0</ele><time>2026-04-30T10:53:53.061Z</time></trkpt><trkpt lat="41.5374555" lon="2.7755351"><ele>0.0</ele><time>2026-04-30T10:53:54.061Z</time></trkpt><trkpt lat="41.5374877" lon="2.7756396"><ele>0.0</ele><time>2026-04-30T10:53:55.061Z</time></trkpt><trkpt lat="41.5375239" lon="2.7757433"><ele>0.0</ele><time>2026-04-30T10:53:56.062Z</time></trkpt><trkpt lat="41.5375574" lon="2.7758409"><ele>0.0</ele><time>2026-04-30T10:53:57.061Z</time></trkpt><trkpt lat="41.5375895" lon="2.7759466"><ele>0.0</ele><time>2026-04-30T10:53:58.061Z</time></trkpt><trkpt lat="41.5376254" lon="2.7760528"><ele>0.0</ele><time>2026-04-30T10:53:59.061Z</time></trkpt><trkpt lat="41.5376633" lon="2.7761553"><ele>0.0</ele><time>2026-04-30T10:54:00.061Z</time></trkpt><trkpt lat="41.5377001" lon="2.7762612"><ele>0.0</ele><time>2026-04-30T10:54:01.061Z</time></trkpt><trkpt lat="41.5377424" lon="2.776364"><ele>0.0</ele><time>2026-04-30T10:54:02.062Z</time></trkpt><trkpt lat="41.5377801" lon="2.7764684"><ele>0.0</ele><time>2026-04-30T10:54:03.061Z</time></trkpt><trkpt lat="41.5378148" lon="2.7765721"><ele>0.0</ele><time>2026-04-30T10:54:04.062Z</time></trkpt><trkpt lat="41.5378483" lon="2.7766812"><ele>0.0</ele><time>2026-04-30T10:54:05.062Z</time></trkpt><trkpt lat="41.5378876" lon="2.7767838"><ele>0.0</ele><time>2026-04-30T10:54:06.062Z</time></trkpt><trkpt lat="41.5379264" lon="2.7768894"><ele>0.0</ele><time>2026-04-30T10:54:07.062Z</time></trkpt><trkpt lat="41.537968" lon="2.7769934"><ele>0.0</ele><time>2026-04-30T10:54:08.061Z</time></trkpt><trkpt lat="41.5380006" lon="2.7770966"><ele>0.0</ele><time>2026-04-30T10:54:09.061Z</time></trkpt><trkpt lat="41.538041" lon="2.7772015"><ele>0.0</ele><time>2026-04-30T10:54:10.061Z</time></trkpt><trkpt lat="41.538084" lon="2.7773023"><ele>0.0</ele><time>2026-04-30T10:54:11.062Z</time></trkpt><trkpt lat="41.5381574" lon="2.7775118"><ele>0.0</ele><time>2026-04-30T10:54:13.061Z</time></trkpt><trkpt lat="41.5381967" lon="2.777615"><ele>0.0</ele><time>2026-04-30T10:54:14.061Z</time></trkpt><trkpt lat="41.5382384" lon="2.7777138"><ele>0.0</ele><time>2026-04-30T10:54:15.061Z</time></trkpt><trkpt lat="41.5382789" lon="2.7778179"><ele>0.0</ele><time>2026-04-30T10:54:16.062Z</time></trkpt><trkpt lat="41.5383144" lon="2.7779259"><ele>0.0</ele><time>2026-04-30T10:54:17.061Z</time></trkpt><trkpt lat="41.5383491" lon="2.7780354"><ele>0.0</ele><time>2026-04-30T10:54:18.062Z</time></trkpt><trkpt lat="41.538384" lon="2.7781453"><ele>0.0</ele><time>2026-04-30T10:54:19.061Z</time></trkpt><trkpt lat="41.5384147" lon="2.7782528"><ele>0.0</ele><time>2026-04-30T10:54:20.061Z</time></trkpt><trkpt lat="41.5384504" lon="2.7783552"><ele>0.0</ele><time>2026-04-30T10:54:21.061Z</time></trkpt><trkpt lat="41.5384854" lon="2.7784554"><ele>0.0</ele><time>2026-04-30T10:54:22.061Z</time></trkpt><trkpt lat="41.5385219" lon="2.778554"><ele>0.0</ele><time>2026-04-30T10:54:23.061Z</time></trkpt><trkpt lat="41.5385569" lon="2.7786554"><ele>0.0</ele><time>2026-04-30T10:54:24.062Z</time></trkpt><trkpt lat="41.538592" lon="2.7787601"><ele>0.0</ele><time>2026-04-30T10:54:25.061Z</time></trkpt><trkpt lat="41.538633" lon="2.7788663"><ele>0.0</ele><time>2026-04-30T10:54:26.062Z</time></trkpt><trkpt lat="41.5386687" lon="2.7789701"><ele>0.0</ele><time>2026-04-30T10:54:27.061Z</time></trkpt><trkpt lat="41.5387082" lon="2.7790761"><ele>0.0</ele><time>2026-04-30T10:54:28.061Z</time></trkpt><trkpt lat="41.5387472" lon="2.7791787"><ele>0.0</ele><time>2026-04-30T10:54:29.062Z</time></trkpt><trkpt lat="41.5387852" lon="2.7792803"><ele>0.0</ele><time>2026-04-30T10:54:30.062Z</time></trkpt><trkpt lat="41.5388189" lon="2.7793793"><ele>0.0</ele><time>2026-04-30T10:54:31.061Z</time></trkpt><trkpt lat="41.5388598" lon="2.779482"><ele>0.0</ele><time>2026-04-30T10:54:32.061Z</time></trkpt><trkpt lat="41.5389396" lon="2.7796897"><ele>0.0</ele><time>2026-04-30T10:54:34.061Z</time></trkpt><trkpt lat="41.5389751" lon="2.7797947"><ele>0.0</ele><time>2026-04-30T10:54:35.061Z</time></trkpt><trkpt lat="41.5390085" lon="2.779897"><ele>0.0</ele><time>2026-04-30T10:54:36.061Z</time></trkpt><trkpt lat="41.5390431" lon="2.7800031"><ele>0.0</ele><time>2026-04-30T10:54:37.061Z</time></trkpt><trkpt lat="41.5390782" lon="2.7801081"><ele>0.0</ele><time>2026-04-30T10:54:38.062Z</time></trkpt><trkpt lat="41.5391149" lon="2.7802131"><ele>0.0</ele><time>2026-04-30T10:54:39.062Z</time></trkpt><trkpt lat="41.5391516" lon="2.7803222"><ele>0.0</ele><time>2026-04-30T10:54:40.062Z</time></trkpt><trkpt lat="41.5391881" lon="2.7804312"><ele>0.0</ele><time>2026-04-30T10:54:41.062Z</time></trkpt><trkpt lat="41.5392237" lon="2.7805352"><ele>0.0</ele><time>2026-04-30T10:54:42.062Z</time></trkpt><trkpt lat="41.5392552" lon="2.7806402"><ele>0.0</ele><time>2026-04-30T10:54:43.062Z</time></trkpt><trkpt lat="41.5392916" lon="2.7807463"><ele>0.0</ele><time>2026-04-30T10:54:44.061Z</time></trkpt><trkpt lat="41.5393286" lon="2.7808518"><ele>0.0</ele><time>2026-04-30T10:54:45.061Z</time></trkpt><trkpt lat="41.5393636" lon="2.7809539"><ele>0.0</ele><time>2026-04-30T10:54:46.062Z</time></trkpt><trkpt lat="41.5393986" lon="2.7810556"><ele>0.0</ele><time>2026-04-30T10:54:47.061Z</time></trkpt><trkpt lat="41.5394349" lon="2.7811597"><ele>0.0</ele><time>2026-04-30T10:54:48.061Z</time></trkpt><trkpt lat="41.5394701" lon="2.7812666"><ele>0.0</ele><time>2026-04-30T10:54:49.062Z</time></trkpt><trkpt lat="41.5395085" lon="2.7813686"><ele>0.0</ele><time>2026-04-30T10:54:50.062Z</time></trkpt><trkpt lat="41.5395467" lon="2.7814705"><ele>0.0</ele><time>2026-04-30T10:54:51.061Z</time></trkpt><trkpt lat="41.5395865" lon="2.7815737"><ele>0.0</ele><time>2026-04-30T10:54:52.061Z</time></trkpt><trkpt lat="41.5396279" lon="2.7816768"><ele>0.0</ele><time>2026-04-30T10:54:53.061Z</time></trkpt><trkpt lat="41.539705" lon="2.7818767"><ele>0.0</ele><time>2026-04-30T10:54:55.061Z</time></trkpt><trkpt lat="41.5397465" lon="2.7819782"><ele>0.0</ele><time>2026-04-30T10:54:56.061Z</time></trkpt><trkpt lat="41.5397868" lon="2.7820816"><ele>0.0</ele><time>2026-04-30T10:54:57.061Z</time></trkpt><trkpt lat="41.539828" lon="2.7821865"><ele>0.0</ele><time>2026-04-30T10:54:58.061Z</time></trkpt><trkpt lat="41.5398665" lon="2.7822927"><ele>0.0</ele><time>2026-04-30T10:54:59.062Z</time></trkpt><trkpt lat="41.5399093" lon="2.7823992"><ele>0.0</ele><time>2026-04-30T10:55:00.062Z</time></trkpt><trkpt lat="41.5399545" lon="2.7825003"><ele>0.0</ele><time>2026-04-30T10:55:01.061Z</time></trkpt><trkpt lat="41.5399882" lon="2.7826017"><ele>0.0</ele><time>2026-04-30T10:55:02.062Z</time></trkpt><trkpt lat="41.5400253" lon="2.7827047"><ele>0.0</ele><time>2026-04-30T10:55:03.061Z</time></trkpt><trkpt lat="41.5400649" lon="2.7828111"><ele>0.0</ele><time>2026-04-30T10:55:04.061Z</time></trkpt><trkpt lat="41.5401047" lon="2.7829134"><ele>0.0</ele><time>2026-04-30T10:55:05.061Z</time></trkpt><trkpt lat="41.5401495" lon="2.7830124"><ele>0.0</ele><time>2026-04-30T10:55:06.061Z</time></trkpt><trkpt lat="41.5401897" lon="2.7831168"><ele>0.0</ele><time>2026-04-30T10:55:07.061Z</time></trkpt><trkpt lat="41.5402297" lon="2.7832187"><ele>0.0</ele><time>2026-04-30T10:55:08.062Z</time></trkpt><trkpt lat="41.5402684" lon="2.7833204"><ele>0.0</ele><time>2026-04-30T10:55:09.061Z</time></trkpt><trkpt lat="41.5403056" lon="2.7834209"><ele>0.0</ele><time>2026-04-30T10:55:10.061Z</time></trkpt><trkpt lat="41.5403449" lon="2.7835247"><ele>0.0</ele><time>2026-04-30T10:55:11.062Z</time></trkpt><trkpt lat="41.5403802" lon="2.7836298"><ele>0.0</ele><time>2026-04-30T10:55:12.061Z</time></trkpt><trkpt lat="41.5404172" lon="2.783732"><ele>0.0</ele><time>2026-04-30T10:55:13.061Z</time></trkpt><trkpt lat="41.5404467" lon="2.7838376"><ele>0.0</ele><time>2026-04-30T10:55:14.062Z</time></trkpt><trkpt lat="41.540517" lon="2.7840462"><ele>0.0</ele><time>2026-04-30T10:55:16.062Z</time></trkpt><trkpt lat="41.5405518" lon="2.7841509"><ele>0.0</ele><time>2026-04-30T10:55:17.062Z</time></trkpt><trkpt lat="41.5405899" lon="2.7842564"><ele>0.0</ele><time>2026-04-30T10:55:18.061Z</time></trkpt><trkpt lat="41.5406286" lon="2.7843626"><ele>0.0</ele><time>2026-04-30T10:55:19.062Z</time></trkpt><trkpt lat="41.5406626" lon="2.7844622"><ele>0.0</ele><time>2026-04-30T10:55:20.061Z</time></trkpt><trkpt lat="41.5406995" lon="2.7845677"><ele>0.0</ele><time>2026-04-30T10:55:21.061Z</time></trkpt><trkpt lat="41.5407422" lon="2.7846703"><ele>0.0</ele><time>2026-04-30T10:55:22.062Z</time></trkpt><trkpt lat="41.54078" lon="2.784772"><ele>0.0</ele><time>2026-04-30T10:55:23.061Z</time></trkpt><trkpt lat="41.5408217" lon="2.7848753"><ele>0.0</ele><time>2026-04-30T10:55:24.061Z</time></trkpt><trkpt lat="41.5408663" lon="2.7849797"><ele>0.0</ele><time>2026-04-30T10:55:25.061Z</time></trkpt><trkpt lat="41.5409053" lon="2.7850823"><ele>0.0</ele><time>2026-04-30T10:55:26.061Z</time></trkpt><trkpt lat="41.5409379" lon="2.7851836"><ele>0.0</ele><time>2026-04-30T10:55:27.061Z</time></trkpt><trkpt lat="41.5409737" lon="2.7852882"><ele>0.0</ele><time>2026-04-30T10:55:28.062Z</time></trkpt><trkpt lat="41.5410073" lon="2.7853948"><ele>0.0</ele><time>2026-04-30T10:55:29.061Z</time></trkpt><trkpt lat="41.5410418" lon="2.7854971"><ele>0.0</ele><time>2026-04-30T10:55:30.062Z</time></trkpt><trkpt lat="41.54108" lon="2.7856017"><ele>0.0</ele><time>2026-04-30T10:55:31.061Z</time></trkpt><trkpt lat="41.54112" lon="2.7857066"><ele>0.0</ele><time>2026-04-30T10:55:32.062Z</time></trkpt><trkpt lat="41.5411587" lon="2.7858086"><ele>0.0</ele><time>2026-04-30T10:55:33.062Z</time></trkpt><trkpt lat="41.541197" lon="2.7859084"><ele>0.0</ele><time>2026-04-30T10:55:34.061Z</time></trkpt><trkpt lat="41.5412354" lon="2.7860086"><ele>0.0</ele><time>2026-04-30T10:55:35.062Z</time></trkpt><trkpt lat="41.5413102" lon="2.7862119"><ele>0.0</ele><time>2026-04-30T10:55:37.061Z</time></trkpt><trkpt lat="41.5413468" lon="2.7863197"><ele>0.0</ele><time>2026-04-30T10:55:38.062Z</time></trkpt><trkpt lat="41.541379" lon="2.7864262"><ele>0.0</ele><time>2026-04-30T10:55:39.061Z</time></trkpt><trkpt lat="41.5414148" lon="2.7865344"><ele>0.0</ele><time>2026-04-30T10:55:40.062Z</time></trkpt><trkpt lat="41.5414482" lon="2.7866368"><ele>0.0</ele><time>2026-04-30T10:55:41.062Z</time></trkpt><trkpt lat="41.5414835" lon="2.786743"><ele>0.0</ele><time>2026-04-30T10:55:42.062Z</time></trkpt><trkpt lat="41.5415172" lon="2.7868438"><ele>0.0</ele><time>2026-04-30T10:55:43.061Z</time></trkpt><trkpt lat="41.5415549" lon="2.7869486"><ele>0.0</ele><time>2026-04-30T10:55:44.062Z</time></trkpt><trkpt lat="41.5415918" lon="2.7870529"><ele>0.0</ele><time>2026-04-30T10:55:45.062Z</time></trkpt><trkpt lat="41.54163" lon="2.7871576"><ele>0.0</ele><time>2026-04-30T10:55:46.062Z</time></trkpt><trkpt lat="41.5416697" lon="2.787266"><ele>0.0</ele><time>2026-04-30T10:55:47.062Z</time></trkpt><trkpt lat="41.5417096" lon="2.7873714"><ele>0.0</ele><time>2026-04-30T10:55:48.061Z</time></trkpt><trkpt lat="41.5417511" lon="2.7874808"><ele>0.0</ele><time>2026-04-30T10:55:49.061Z</time></trkpt><trkpt lat="41.5417909" lon="2.7875874"><ele>0.0</ele><time>2026-04-30T10:55:50.061Z</time></trkpt><trkpt lat="41.5418296" lon="2.7876945"><ele>0.0</ele><time>2026-04-30T10:55:51.062Z</time></trkpt><trkpt lat="41.5418665" lon="2.7877995"><ele>0.0</ele><time>2026-04-30T10:55:52.062Z</time></trkpt><trkpt lat="41.5419047" lon="2.787902"><ele>0.0</ele><time>2026-04-30T10:55:53.062Z</time></trkpt><trkpt lat="41.5419431" lon="2.7880048"><ele>0.0</ele><time>2026-04-30T10:55:54.061Z</time></trkpt><trkpt lat="41.5419801" lon="2.7881069"><ele>0.0</ele><time>2026-04-30T10:55:55.062Z</time></trkpt><trkpt lat="41.5420183" lon="2.7882096"><ele>0.0</ele><time>2026-04-30T10:55:56.061Z</time></trkpt><trkpt lat="41.5420925" lon="2.788416"><ele>0.0</ele><time>2026-04-30T10:55:58.061Z</time></trkpt><trkpt lat="41.5421247" lon="2.7885196"><ele>0.0</ele><time>2026-04-30T10:55:59.062Z</time></trkpt><trkpt lat="41.5421617" lon="2.7886265"><ele>0.0</ele><time>2026-04-30T10:56:00.062Z</time></trkpt><trkpt lat="41.5422004" lon="2.78873"><ele>0.0</ele><time>2026-04-30T10:56:01.061Z</time></trkpt><trkpt lat="41.5422371" lon="2.788835"><ele>0.0</ele><time>2026-04-30T10:56:02.061Z</time></trkpt><trkpt lat="41.5422755" lon="2.7889383"><ele>0.0</ele><time>2026-04-30T10:56:03.062Z</time></trkpt><trkpt lat="41.5423122" lon="2.7890403"><ele>0.0</ele><time>2026-04-30T10:56:04.061Z</time></trkpt><trkpt lat="41.542349" lon="2.7891419"><ele>0.0</ele><time>2026-04-30T10:56:05.062Z</time></trkpt><trkpt lat="41.5423871" lon="2.7892438"><ele>0.0</ele><time>2026-04-30T10:56:06.062Z</time></trkpt><trkpt lat="41.5424268" lon="2.7893451"><ele>0.0</ele><time>2026-04-30T10:56:07.061Z</time></trkpt><trkpt lat="41.54247" lon="2.7894478"><ele>0.0</ele><time>2026-04-30T10:56:08.061Z</time></trkpt><trkpt lat="41.5425103" lon="2.7895527"><ele>0.0</ele><time>2026-04-30T10:56:09.062Z</time></trkpt><trkpt lat="41.5425503" lon="2.7896595"><ele>0.0</ele><time>2026-04-30T10:56:10.061Z</time></trkpt><trkpt lat="41.5425885" lon="2.7897675"><ele>0.0</ele><time>2026-04-30T10:56:11.061Z</time></trkpt><trkpt lat="41.5426164" lon="2.7898775"><ele>0.0</ele><time>2026-04-30T10:56:12.062Z</time></trkpt><trkpt lat="41.5426488" lon="2.7899832"><ele>0.0</ele><time>2026-04-30T10:56:13.062Z</time></trkpt><trkpt lat="41.5426821" lon="2.79009"><ele>0.0</ele><time>2026-04-30T10:56:14.061Z</time></trkpt><trkpt lat="41.542717" lon="2.7901964"><ele>0.0</ele><time>2026-04-30T10:56:15.061Z</time></trkpt><trkpt lat="41.5427506" lon="2.7902976"><ele>0.0</ele><time>2026-04-30T10:56:16.062Z</time></trkpt><trkpt lat="41.5427895" lon="2.7904015"><ele>0.0</ele><time>2026-04-30T10:56:17.061Z</time></trkpt><trkpt lat="41.5428651" lon="2.7906067"><ele>0.0</ele><time>2026-04-30T10:56:19.061Z</time></trkpt><trkpt lat="41.5429018" lon="2.7907088"><ele>0.0</ele><time>2026-04-30T10:56:20.061Z</time></trkpt><trkpt lat="41.5429415" lon="2.7908115"><ele>0.0</ele><time>2026-04-30T10:56:21.062Z</time></trkpt><trkpt lat="41.54298" lon="2.7909162"><ele>0.0</ele><time>2026-04-30T10:56:22.061Z</time></trkpt><trkpt lat="41.5430137" lon="2.791019"><ele>0.0</ele><time>2026-04-30T10:56:23.061Z</time></trkpt><trkpt lat="41.5430418" lon="2.7911247"><ele>0.0</ele><time>2026-04-30T10:56:24.062Z</time></trkpt><trkpt lat="41.5430727" lon="2.7912271"><ele>0.0</ele><time>2026-04-30T10:56:25.062Z</time></trkpt><trkpt lat="41.5431056" lon="2.7913258"><ele>0.0</ele><time>2026-04-30T10:56:26.062Z</time></trkpt><trkpt lat="41.5431459" lon="2.7914271"><ele>0.0</ele><time>2026-04-30T10:56:27.062Z</time></trkpt><trkpt lat="41.543185" lon="2.7915298"><ele>0.0</ele><time>2026-04-30T10:56:28.062Z</time></trkpt><trkpt lat="41.5432219" lon="2.7916357"><ele>0.0</ele><time>2026-04-30T10:56:29.062Z</time></trkpt><trkpt lat="41.5432644" lon="2.7917383"><ele>0.0</ele><time>2026-04-30T10:56:30.061Z</time></trkpt><trkpt lat="41.5433031" lon="2.7918416"><ele>0.0</ele><time>2026-04-30T10:56:31.062Z</time></trkpt><trkpt lat="41.5433446" lon="2.7919451"><ele>0.0</ele><time>2026-04-30T10:56:32.062Z</time></trkpt><trkpt lat="41.5433819" lon="2.7920499"><ele>0.0</ele><time>2026-04-30T10:56:33.061Z</time></trkpt><trkpt lat="41.5434201" lon="2.7921537"><ele>0.0</ele><time>2026-04-30T10:56:34.062Z</time></trkpt><trkpt lat="41.5434582" lon="2.7922568"><ele>0.0</ele><time>2026-04-30T10:56:35.062Z</time></trkpt><trkpt lat="41.5434997" lon="2.7923567"><ele>0.0</ele><time>2026-04-30T10:56:36.061Z</time></trkpt><trkpt lat="41.5435432" lon="2.7924566"><ele>0.0</ele><time>2026-04-30T10:56:37.062Z</time></trkpt><trkpt lat="41.5435835" lon="2.7925585"><ele>0.0</ele><time>2026-04-30T10:56:38.061Z</time></trkpt><trkpt lat="41.5436587" lon="2.7927633"><ele>0.0</ele><time>2026-04-30T10:56:40.061Z</time></trkpt><trkpt lat="41.543695" lon="2.7928681"><ele>0.0</ele><time>2026-04-30T10:56:41.061Z</time></trkpt><trkpt lat="41.5437317" lon="2.7929762"><ele>0.0</ele><time>2026-04-30T10:56:42.062Z</time></trkpt><trkpt lat="41.543767" lon="2.7930873"><ele>0.0</ele><time>2026-04-30T10:56:43.062Z</time></trkpt><trkpt lat="41.5438049" lon="2.7931943"><ele>0.0</ele><time>2026-04-30T10:56:44.062Z</time></trkpt><trkpt lat="41.5438383" lon="2.7932996"><ele>0.0</ele><time>2026-04-30T10:56:45.062Z</time></trkpt><trkpt lat="41.543875" lon="2.7934044"><ele>0.0</ele><time>2026-04-30T10:56:46.061Z</time></trkpt><trkpt lat="41.5439146" lon="2.7935068"><ele>0.0</ele><time>2026-04-30T10:56:47.062Z</time></trkpt><trkpt lat="41.5439518" lon="2.79361"><ele>0.0</ele><time>2026-04-30T10:56:48.062Z</time></trkpt><trkpt lat="41.5439867" lon="2.7937135"><ele>0.0</ele><time>2026-04-30T10:56:49.062Z</time></trkpt><trkpt lat="41.5440278" lon="2.7938178"><ele>0.0</ele><time>2026-04-30T10:56:50.061Z</time></trkpt><trkpt lat="41.5440667" lon="2.7939199"><ele>0.0</ele><time>2026-04-30T10:56:51.062Z</time></trkpt><trkpt lat="41.5441021" lon="2.7940218"><ele>0.0</ele><time>2026-04-30T10:56:52.062Z</time></trkpt><trkpt lat="41.5441385" lon="2.7941236"><ele>0.0</ele><time>2026-04-30T10:56:53.062Z</time></trkpt><trkpt lat="41.544175" lon="2.7942297"><ele>0.0</ele><time>2026-04-30T10:56:54.061Z</time></trkpt><trkpt lat="41.5442162" lon="2.7943365"><ele>0.0</ele><time>2026-04-30T10:56:55.061Z</time></trkpt><trkpt lat="41.544255" lon="2.7944417"><ele>0.0</ele><time>2026-04-30T10:56:56.06Z</time></trkpt><trkpt lat="41.5442965" lon="2.7945475"><ele>0.0</ele><time>2026-04-30T10:56:57.06Z</time></trkpt><trkpt lat="41.5443351" lon="2.7946486"><ele>0.0</ele><time>2026-04-30T10:56:58.06Z</time></trkpt><trkpt lat="41.5443733" lon="2.7947519"><ele>0.0</ele><time>2026-04-30T10:56:59.061Z</time></trkpt><trkpt lat="41.5444525" lon="2.7949565"><ele>0.0</ele><time>2026-04-30T10:57:01.061Z</time></trkpt><trkpt lat="41.5444875" lon="2.7950558"><ele>0.0</ele><time>2026-04-30T10:57:02.06Z</time></trkpt><trkpt lat="41.5445251" lon="2.7951629"><ele>0.0</ele><time>2026-04-30T10:57:03.061Z</time></trkpt><trkpt lat="41.5445563" lon="2.7952682"><ele>0.0</ele><time>2026-04-30T10:57:04.061Z</time></trkpt><trkpt lat="41.5445934" lon="2.7953702"><ele>0.0</ele><time>2026-04-30T10:57:05.06Z</time></trkpt><trkpt lat="41.5446301" lon="2.7954794"><ele>0.0</ele><time>2026-04-30T10:57:06.06Z</time></trkpt><trkpt lat="41.5446712" lon="2.7955836"><ele>0.0</ele><time>2026-04-30T10:57:07.06Z</time></trkpt><trkpt lat="41.5447158" lon="2.7956897"><ele>0.0</ele><time>2026-04-30T10:57:08.061Z</time></trkpt><trkpt lat="41.5447522" lon="2.795796"><ele>0.0</ele><time>2026-04-30T10:57:09.061Z</time></trkpt><trkpt lat="41.544786" lon="2.7959026"><ele>0.0</ele><time>2026-04-30T10:57:10.061Z</time></trkpt><trkpt lat="41.5448182" lon="2.7960035"><ele>0.0</ele><time>2026-04-30T10:57:11.061Z</time></trkpt><trkpt lat="41.5448482" lon="2.7961068"><ele>0.0</ele><time>2026-04-30T10:57:12.061Z</time></trkpt><trkpt lat="41.5448848" lon="2.7962113"><ele>0.0</ele><time>2026-04-30T10:57:13.061Z</time></trkpt><trkpt lat="41.5449216" lon="2.7963151"><ele>0.0</ele><time>2026-04-30T10:57:14.06Z</time></trkpt><trkpt lat="41.5449624" lon="2.796414"><ele>0.0</ele><time>2026-04-30T10:57:15.06Z</time></trkpt><trkpt lat="41.5450042" lon="2.7965144"><ele>0.0</ele><time>2026-04-30T10:57:16.06Z</time></trkpt><trkpt lat="41.5450401" lon="2.796617"><ele>0.0</ele><time>2026-04-30T10:57:17.061Z</time></trkpt><trkpt lat="41.545075" lon="2.7967189"><ele>0.0</ele><time>2026-04-30T10:57:18.06Z</time></trkpt><trkpt lat="41.545113" lon="2.7968233"><ele>0.0</ele><time>2026-04-30T10:57:19.06Z</time></trkpt><trkpt lat="41.5451528" lon="2.7969278"><ele>0.0</ele><time>2026-04-30T10:57:20.06Z</time></trkpt><trkpt lat="41.5452302" lon="2.7971382"><ele>0.0</ele><time>2026-04-30T10:57:22.06Z</time></trkpt><trkpt lat="41.5452699" lon="2.7972415"><ele>0.0</ele><time>2026-04-30T10:57:23.06Z</time></trkpt><trkpt lat="41.5453118" lon="2.7973433"><ele>0.0</ele><time>2026-04-30T10:57:24.061Z</time></trkpt><trkpt lat="41.5453471" lon="2.7974423"><ele>0.0</ele><time>2026-04-30T10:57:25.06Z</time></trkpt><trkpt lat="41.5453863" lon="2.7975506"><ele>0.0</ele><time>2026-04-30T10:57:26.06Z</time></trkpt><trkpt lat="41.5454296" lon="2.7976563"><ele>0.0</ele><time>2026-04-30T10:57:27.06Z</time></trkpt><trkpt lat="41.5454685" lon="2.7977559"><ele>0.0</ele><time>2026-04-30T10:57:28.061Z</time></trkpt><trkpt lat="41.5455099" lon="2.7978626"><ele>0.0</ele><time>2026-04-30T10:57:29.061Z</time></trkpt><trkpt lat="41.5455516" lon="2.7979665"><ele>0.0</ele><time>2026-04-30T10:57:30.06Z</time></trkpt><trkpt lat="41.5455946" lon="2.7980671"><ele>0.0</ele><time>2026-04-30T10:57:31.06Z</time></trkpt><trkpt lat="41.5456323" lon="2.7981699"><ele>0.0</ele><time>2026-04-30T10:57:32.061Z</time></trkpt><trkpt lat="41.5456702" lon="2.7982676"><ele>0.0</ele><time>2026-04-30T10:57:33.061Z</time></trkpt><trkpt lat="41.5457073" lon="2.7983698"><ele>0.0</ele><time>2026-04-30T10:57:34.061Z</time></trkpt><trkpt lat="41.545748" lon="2.7984717"><ele>0.0</ele><time>2026-04-30T10:57:35.061Z</time></trkpt><trkpt lat="41.5457883" lon="2.7985763"><ele>0.0</ele><time>2026-04-30T10:57:36.06Z</time></trkpt><trkpt lat="41.5458236" lon="2.7986839"><ele>0.0</ele><time>2026-04-30T10:57:37.061Z</time></trkpt><trkpt lat="41.5458617" lon="2.7987938"><ele>0.0</ele><time>2026-04-30T10:57:38.06Z</time></trkpt><trkpt lat="41.5459042" lon="2.7989024"><ele>0.0</ele><time>2026-04-30T10:57:39.06Z</time></trkpt><trkpt lat="41.5459509" lon="2.7990083"><ele>0.0</ele><time>2026-04-30T10:57:40.06Z</time></trkpt><trkpt lat="41.5460868" lon="2.7993145"><ele>0.0</ele><time>2026-04-30T10:57:43.06Z</time></trkpt><trkpt lat="41.5461244" lon="2.799418"><ele>0.0</ele><time>2026-04-30T10:57:44.061Z</time></trkpt><trkpt lat="41.5461582" lon="2.7995289"><ele>0.0</ele><time>2026-04-30T10:57:45.06Z</time></trkpt><trkpt lat="41.5461925" lon="2.799633"><ele>0.0</ele><time>2026-04-30T10:57:46.061Z</time></trkpt><trkpt lat="41.5462269" lon="2.7997393"><ele>0.0</ele><time>2026-04-30T10:57:47.06Z</time></trkpt><trkpt lat="41.5462587" lon="2.7998468"><ele>0.0</ele><time>2026-04-30T10:57:48.06Z</time></trkpt><trkpt lat="41.5462885" lon="2.7999519"><ele>0.0</ele><time>2026-04-30T10:57:49.06Z</time></trkpt><trkpt lat="41.5463203" lon="2.8000626"><ele>0.0</ele><time>2026-04-30T10:57:50.06Z</time></trkpt><trkpt lat="41.5463504" lon="2.8001686"><ele>0.0</ele><time>2026-04-30T10:57:51.06Z</time></trkpt><trkpt lat="41.54639" lon="2.8002775"><ele>0.0</ele><time>2026-04-30T10:57:52.06Z</time></trkpt><trkpt lat="41.5464325" lon="2.8003832"><ele>0.0</ele><time>2026-04-30T10:57:53.06Z</time></trkpt><trkpt lat="41.5464725" lon="2.8004907"><ele>0.0</ele><time>2026-04-30T10:57:54.06Z</time></trkpt><trkpt lat="41.546511" lon="2.8005865"><ele>0.0</ele><time>2026-04-30T10:57:55.06Z</time></trkpt><trkpt lat="41.5465455" lon="2.8006869"><ele>0.0</ele><time>2026-04-30T10:57:56.06Z</time></trkpt><trkpt lat="41.5465909" lon="2.8007733"><ele>0.0</ele><time>2026-04-30T10:57:57.06Z</time></trkpt><trkpt lat="41.5466227" lon="2.8008751"><ele>0.0</ele><time>2026-04-30T10:57:58.061Z</time></trkpt><trkpt lat="41.5466544" lon="2.8009854"><ele>0.0</ele><time>2026-04-30T10:57:59.06Z</time></trkpt><trkpt lat="41.5466847" lon="2.8010884"><ele>0.0</ele><time>2026-04-30T10:58:00.06Z</time></trkpt><trkpt lat="41.546719" lon="2.8011931"><ele>0.0</ele><time>2026-04-30T10:58:01.061Z</time></trkpt><trkpt lat="41.5467613" lon="2.8012893"><ele>0.0</ele><time>2026-04-30T10:58:02.061Z</time></trkpt><trkpt lat="41.5468292" lon="2.8014955"><ele>0.0</ele><time>2026-04-30T10:58:04.06Z</time></trkpt><trkpt lat="41.5468666" lon="2.8015972"><ele>0.0</ele><time>2026-04-30T10:58:05.06Z</time></trkpt><trkpt lat="41.5469034" lon="2.8017042"><ele>0.0</ele><time>2026-04-30T10:58:06.06Z</time></trkpt><trkpt lat="41.5469401" lon="2.8018129"><ele>0.0</ele><time>2026-04-30T10:58:07.061Z</time></trkpt><trkpt lat="41.5469769" lon="2.8019181"><ele>0.0</ele><time>2026-04-30T10:58:08.06Z</time></trkpt><trkpt lat="41.5470082" lon="2.8020216"><ele>0.0</ele><time>2026-04-30T10:58:09.061Z</time></trkpt><trkpt lat="41.5470421" lon="2.8021236"><ele>0.0</ele><time>2026-04-30T10:58:10.06Z</time></trkpt><trkpt lat="41.547084" lon="2.802227"><ele>0.0</ele><time>2026-04-30T10:58:11.06Z</time></trkpt><trkpt lat="41.5471201" lon="2.8023301"><ele>0.0</ele><time>2026-04-30T10:58:12.06Z</time></trkpt><trkpt lat="41.5472023" lon="2.8025431"><ele>0.0</ele><time>2026-04-30T10:58:14.06Z</time></trkpt><trkpt lat="41.5472433" lon="2.8026467"><ele>0.0</ele><time>2026-04-30T10:58:15.061Z</time></trkpt><trkpt lat="41.5472859" lon="2.8027487"><ele>0.0</ele><time>2026-04-30T10:58:16.061Z</time></trkpt><trkpt lat="41.547325" lon="2.8028474"><ele>0.0</ele><time>2026-04-30T10:58:17.061Z</time></trkpt><trkpt lat="41.5473675" lon="2.8029487"><ele>0.0</ele><time>2026-04-30T10:58:18.06Z</time></trkpt><trkpt lat="41.5474082" lon="2.8030534"><ele>0.0</ele><time>2026-04-30T10:58:19.06Z</time></trkpt><trkpt lat="41.547445" lon="2.8031555"><ele>0.0</ele><time>2026-04-30T10:58:20.06Z</time></trkpt><trkpt lat="41.5474821" lon="2.803257"><ele>0.0</ele><time>2026-04-30T10:58:21.061Z</time></trkpt><trkpt lat="41.5475249" lon="2.8033556"><ele>0.0</ele><time>2026-04-30T10:58:22.061Z</time></trkpt><trkpt lat="41.5475726" lon="2.8034512"><ele>0.0</ele><time>2026-04-30T10:58:23.061Z</time></trkpt><trkpt lat="41.547654" lon="2.803653"><ele>0.0</ele><time>2026-04-30T10:58:25.061Z</time></trkpt><trkpt lat="41.5476911" lon="2.8037579"><ele>0.0</ele><time>2026-04-30T10:58:26.061Z</time></trkpt><trkpt lat="41.5477262" lon="2.8038626"><ele>0.0</ele><time>2026-04-30T10:58:27.06Z</time></trkpt><trkpt lat="41.5477594" lon="2.8039678"><ele>0.0</ele><time>2026-04-30T10:58:28.061Z</time></trkpt><trkpt lat="41.5477911" lon="2.8040702"><ele>0.0</ele><time>2026-04-30T10:58:29.06Z</time></trkpt><trkpt lat="41.5478245" lon="2.8041735"><ele>0.0</ele><time>2026-04-30T10:58:30.061Z</time></trkpt><trkpt lat="41.5478533" lon="2.804278"><ele>0.0</ele><time>2026-04-30T10:58:31.06Z</time></trkpt><trkpt lat="41.547882" lon="2.8043858"><ele>0.0</ele><time>2026-04-30T10:58:32.06Z</time></trkpt><trkpt lat="41.5479129" lon="2.804494"><ele>0.0</ele><time>2026-04-30T10:58:33.061Z</time></trkpt><trkpt lat="41.5479489" lon="2.8045967"><ele>0.0</ele><time>2026-04-30T10:58:34.061Z</time></trkpt><trkpt lat="41.5479856" lon="2.8046997"><ele>0.0</ele><time>2026-04-30T10:58:35.06Z</time></trkpt><trkpt lat="41.5480193" lon="2.8048059"><ele>0.0</ele><time>2026-04-30T10:58:36.06Z</time></trkpt><trkpt lat="41.5480539" lon="2.8049113"><ele>0.0</ele><time>2026-04-30T10:58:37.06Z</time></trkpt><trkpt lat="41.5480861" lon="2.8050131"><ele>0.0</ele><time>2026-04-30T10:58:38.061Z</time></trkpt><trkpt lat="41.5481261" lon="2.8051195"><ele>0.0</ele><time>2026-04-30T10:58:39.061Z</time></trkpt><trkpt lat="41.5481697" lon="2.8052244"><ele>0.0</ele><time>2026-04-30T10:58:40.06Z</time></trkpt><trkpt lat="41.5482115" lon="2.805328"><ele>0.0</ele><time>2026-04-30T10:58:41.061Z</time></trkpt><trkpt lat="41.5482576" lon="2.8054356"><ele>0.0</ele><time>2026-04-30T10:58:42.061Z</time></trkpt><trkpt lat="41.5482954" lon="2.8055352"><ele>0.0</ele><time>2026-04-30T10:58:43.061Z</time></trkpt><trkpt lat="41.5483336" lon="2.8056394"><ele>0.0</ele><time>2026-04-30T10:58:44.06Z</time></trkpt><trkpt lat="41.548379" lon="2.8057421"><ele>0.0</ele><time>2026-04-30T10:58:45.061Z</time></trkpt><trkpt lat="41.5484515" lon="2.8059493"><ele>0.0</ele><time>2026-04-30T10:58:47.061Z</time></trkpt><trkpt lat="41.5484887" lon="2.8060504"><ele>0.0</ele><time>2026-04-30T10:58:48.06Z</time></trkpt><trkpt lat="41.5485255" lon="2.8061506"><ele>0.0</ele><time>2026-04-30T10:58:49.06Z</time></trkpt><trkpt lat="41.5485632" lon="2.8062532"><ele>0.0</ele><time>2026-04-30T10:58:50.061Z</time></trkpt><trkpt lat="41.5486029" lon="2.8063609"><ele>0.0</ele><time>2026-04-30T10:58:51.06Z</time></trkpt><trkpt lat="41.5486354" lon="2.8064622"><ele>0.0</ele><time>2026-04-30T10:58:52.06Z</time></trkpt><trkpt lat="41.5486703" lon="2.8065668"><ele>0.0</ele><time>2026-04-30T10:58:53.061Z</time></trkpt><trkpt lat="41.5487065" lon="2.8066759"><ele>0.0</ele><time>2026-04-30T10:58:54.061Z</time></trkpt><trkpt lat="41.5487432" lon="2.8067828"><ele>0.0</ele><time>2026-04-30T10:58:55.061Z</time></trkpt><trkpt lat="41.54878" lon="2.8068911"><ele>0.0</ele><time>2026-04-30T10:58:56.06Z</time></trkpt><trkpt lat="41.5488141" lon="2.8069938"><ele>0.0</ele><time>2026-04-30T10:58:57.06Z</time></trkpt><trkpt lat="41.5488483" lon="2.8071"><ele>0.0</ele><time>2026-04-30T10:58:58.06Z</time></trkpt><trkpt lat="41.5488805" lon="2.8072065"><ele>0.0</ele><time>2026-04-30T10:58:59.06Z</time></trkpt><trkpt lat="41.5489137" lon="2.8073147"><ele>0.0</ele><time>2026-04-30T10:59:00.06Z</time></trkpt><trkpt lat="41.5489486" lon="2.8074156"><ele>0.0</ele><time>2026-04-30T10:59:01.061Z</time></trkpt><trkpt lat="41.5489835" lon="2.8075198"><ele>0.0</ele><time>2026-04-30T10:59:02.061Z</time></trkpt><trkpt lat="41.5490156" lon="2.807623"><ele>0.0</ele><time>2026-04-30T10:59:03.061Z</time></trkpt><trkpt lat="41.54905" lon="2.8077308"><ele>0.0</ele><time>2026-04-30T10:59:04.06Z</time></trkpt><trkpt lat="41.5490792" lon="2.8078376"><ele>0.0</ele><time>2026-04-30T10:59:05.06Z</time></trkpt><trkpt lat="41.5491167" lon="2.8079428"><ele>0.0</ele><time>2026-04-30T10:59:06.061Z</time></trkpt><trkpt lat="41.5491951" lon="2.8081545"><ele>0.0</ele><time>2026-04-30T10:59:08.06Z</time></trkpt><trkpt lat="41.54923" lon="2.808255"><ele>0.0</ele><time>2026-04-30T10:59:09.06Z</time></trkpt><trkpt lat="41.5492698" lon="2.8083596"><ele>0.0</ele><time>2026-04-30T10:59:10.061Z</time></trkpt><trkpt lat="41.549307" lon="2.8084636"><ele>0.0</ele><time>2026-04-30T10:59:11.061Z</time></trkpt><trkpt lat="41.5493417" lon="2.8085682"><ele>0.0</ele><time>2026-04-30T10:59:12.06Z</time></trkpt><trkpt lat="41.5493796" lon="2.8086744"><ele>0.0</ele><time>2026-04-30T10:59:13.06Z</time></trkpt><trkpt lat="41.5494179" lon="2.8087782"><ele>0.0</ele><time>2026-04-30T10:59:14.061Z</time></trkpt><trkpt lat="41.5494596" lon="2.8088845"><ele>0.0</ele><time>2026-04-30T10:59:15.06Z</time></trkpt><trkpt lat="41.5495001" lon="2.8089869"><ele>0.0</ele><time>2026-04-30T10:59:16.061Z</time></trkpt><trkpt lat="41.5495445" lon="2.8090924"><ele>0.0</ele><time>2026-04-30T10:59:17.06Z</time></trkpt><trkpt lat="41.5495867" lon="2.8091949"><ele>0.0</ele><time>2026-04-30T10:59:18.061Z</time></trkpt><trkpt lat="41.5496239" lon="2.8092944"><ele>0.0</ele><time>2026-04-30T10:59:19.06Z</time></trkpt><trkpt lat="41.5496619" lon="2.8093953"><ele>0.0</ele><time>2026-04-30T10:59:20.061Z</time></trkpt><trkpt lat="41.5496985" lon="2.8094984"><ele>0.0</ele><time>2026-04-30T10:59:21.06Z</time></trkpt><trkpt lat="41.5497336" lon="2.8096019"><ele>0.0</ele><time>2026-04-30T10:59:22.06Z</time></trkpt><trkpt lat="41.5497784" lon="2.8096992"><ele>0.0</ele><time>2026-04-30T10:59:23.06Z</time></trkpt><trkpt lat="41.5498223" lon="2.8097992"><ele>0.0</ele><time>2026-04-30T10:59:24.061Z</time></trkpt><trkpt lat="41.5498615" lon="2.8099006"><ele>0.0</ele><time>2026-04-30T10:59:25.061Z</time></trkpt><trkpt lat="41.5499015" lon="2.8100061"><ele>0.0</ele><time>2026-04-30T10:59:26.061Z</time></trkpt><trkpt lat="41.5499402" lon="2.8101081"><ele>0.0</ele><time>2026-04-30T10:59:27.061Z</time></trkpt><trkpt lat="41.5500198" lon="2.8103199"><ele>0.0</ele><time>2026-04-30T10:59:29.06Z</time></trkpt><trkpt lat="41.5500581" lon="2.810423"><ele>0.0</ele><time>2026-04-30T10:59:30.061Z</time></trkpt><trkpt lat="41.5500949" lon="2.8105253"><ele>0.0</ele><time>2026-04-30T10:59:31.061Z</time></trkpt><trkpt lat="41.5501301" lon="2.8106269"><ele>0.0</ele><time>2026-04-30T10:59:32.06Z</time></trkpt><trkpt lat="41.5501666" lon="2.8107314"><ele>0.0</ele><time>2026-04-30T10:59:33.061Z</time></trkpt><trkpt lat="41.5502079" lon="2.8108363"><ele>0.0</ele><time>2026-04-30T10:59:34.06Z</time></trkpt><trkpt lat="41.550248" lon="2.8109394"><ele>0.0</ele><time>2026-04-30T10:59:35.06Z</time></trkpt><trkpt lat="41.5502897" lon="2.8110442"><ele>0.0</ele><time>2026-04-30T10:59:36.06Z</time></trkpt><trkpt lat="41.5503268" lon="2.8111455"><ele>0.0</ele><time>2026-04-30T10:59:37.06Z</time></trkpt><trkpt lat="41.5503647" lon="2.8112492"><ele>0.0</ele><time>2026-04-30T10:59:38.06Z</time></trkpt><trkpt lat="41.5504" lon="2.811355"><ele>0.0</ele><time>2026-04-30T10:59:39.06Z</time></trkpt><trkpt lat="41.5504365" lon="2.8114586"><ele>0.0</ele><time>2026-04-30T10:59:40.061Z</time></trkpt><trkpt lat="41.5504795" lon="2.8115643"><ele>0.0</ele><time>2026-04-30T10:59:41.061Z</time></trkpt><trkpt lat="41.5505231" lon="2.8116668"><ele>0.0</ele><time>2026-04-30T10:59:42.061Z</time></trkpt><trkpt lat="41.5505636" lon="2.811767"><ele>0.0</ele><time>2026-04-30T10:59:43.06Z</time></trkpt><trkpt lat="41.5506049" lon="2.8118672"><ele>0.0</ele><time>2026-04-30T10:59:44.061Z</time></trkpt><trkpt lat="41.5506451" lon="2.8119685"><ele>0.0</ele><time>2026-04-30T10:59:45.061Z</time></trkpt><trkpt lat="41.5506851" lon="2.81207"><ele>0.0</ele><time>2026-04-30T10:59:46.06Z</time></trkpt><trkpt lat="41.5507238" lon="2.8121687"><ele>0.0</ele><time>2026-04-30T10:59:47.06Z</time></trkpt><trkpt lat="41.5507603" lon="2.8122719"><ele>0.0</ele><time>2026-04-30T10:59:48.061Z</time></trkpt><trkpt lat="41.550872" lon="2.8125866"><ele>0.0</ele><time>2026-04-30T10:59:51.061Z</time></trkpt><trkpt lat="41.5509132" lon="2.8126913"><ele>0.0</ele><time>2026-04-30T10:59:52.061Z</time></trkpt><trkpt lat="41.5509504" lon="2.8127936"><ele>0.0</ele><time>2026-04-30T10:59:53.061Z</time></trkpt><trkpt lat="41.5509896" lon="2.8129021"><ele>0.0</ele><time>2026-04-30T10:59:54.06Z</time></trkpt><trkpt lat="41.5510249" lon="2.8130079"><ele>0.0</ele><time>2026-04-30T10:59:55.061Z</time></trkpt><trkpt lat="41.5510584" lon="2.8131151"><ele>0.0</ele><time>2026-04-30T10:59:56.06Z</time></trkpt><trkpt lat="41.5510933" lon="2.8132186"><ele>0.0</ele><time>2026-04-30T10:59:57.06Z</time></trkpt><trkpt lat="41.5511282" lon="2.8133187"><ele>0.0</ele><time>2026-04-30T10:59:58.06Z</time></trkpt><trkpt lat="41.551168" lon="2.8134212"><ele>0.0</ele><time>2026-04-30T10:59:59.06Z</time></trkpt><trkpt lat="41.5512068" lon="2.81352"><ele>0.0</ele><time>2026-04-30T11:00:00.061Z</time></trkpt><trkpt lat="41.5512469" lon="2.81362"><ele>0.0</ele><time>2026-04-30T11:00:01.061Z</time></trkpt><trkpt lat="41.5512856" lon="2.8137132"><ele>0.0</ele><time>2026-04-30T11:00:02.06Z</time></trkpt><trkpt lat="41.5513248" lon="2.8138162"><ele>0.0</ele><time>2026-04-30T11:00:03.061Z</time></trkpt><trkpt lat="41.5513634" lon="2.8139199"><ele>0.0</ele><time>2026-04-30T11:00:04.061Z</time></trkpt><trkpt lat="41.5514045" lon="2.8140271"><ele>0.0</ele><time>2026-04-30T11:00:05.06Z</time></trkpt><trkpt lat="41.5514418" lon="2.8141314"><ele>0.0</ele><time>2026-04-30T11:00:06.061Z</time></trkpt><trkpt lat="41.5514802" lon="2.8142303"><ele>0.0</ele><time>2026-04-30T11:00:07.061Z</time></trkpt><trkpt lat="41.5515157" lon="2.8143304"><ele>0.0</ele><time>2026-04-30T11:00:08.06Z</time></trkpt><trkpt lat="41.5515506" lon="2.8144344"><ele>0.0</ele><time>2026-04-30T11:00:09.061Z</time></trkpt><trkpt lat="41.5515881" lon="2.814539"><ele>0.0</ele><time>2026-04-30T11:00:10.06Z</time></trkpt><trkpt lat="41.551668" lon="2.814749"><ele>0.0</ele><time>2026-04-30T11:00:12.061Z</time></trkpt><trkpt lat="41.5517085" lon="2.8148515"><ele>0.0</ele><time>2026-04-30T11:00:13.06Z</time></trkpt><trkpt lat="41.5517438" lon="2.8149579"><ele>0.0</ele><time>2026-04-30T11:00:14.06Z</time></trkpt><trkpt lat="41.5517817" lon="2.8150659"><ele>0.0</ele><time>2026-04-30T11:00:15.06Z</time></trkpt><trkpt lat="41.5518174" lon="2.8151657"><ele>0.0</ele><time>2026-04-30T11:00:16.06Z</time></trkpt><trkpt lat="41.5518571" lon="2.8152696"><ele>0.0</ele><time>2026-04-30T11:00:17.06Z</time></trkpt><trkpt lat="41.5518956" lon="2.8153702"><ele>0.0</ele><time>2026-04-30T11:00:18.061Z</time></trkpt><trkpt lat="41.5519304" lon="2.8154778"><ele>0.0</ele><time>2026-04-30T11:00:19.061Z</time></trkpt><trkpt lat="41.551974" lon="2.815586"><ele>0.0</ele><time>2026-04-30T11:00:20.061Z</time></trkpt><trkpt lat="41.5520104" lon="2.8156896"><ele>0.0</ele><time>2026-04-30T11:00:21.06Z</time></trkpt><trkpt lat="41.5520488" lon="2.8157877"><ele>0.0</ele><time>2026-04-30T11:00:22.06Z</time></trkpt><trkpt lat="41.5520869" lon="2.8158887"><ele>0.0</ele><time>2026-04-30T11:00:23.061Z</time></trkpt><trkpt lat="41.552127" lon="2.8159906"><ele>0.0</ele><time>2026-04-30T11:00:24.061Z</time></trkpt><trkpt lat="41.552164" lon="2.8160864"><ele>0.0</ele><time>2026-04-30T11:00:25.061Z</time></trkpt><trkpt lat="41.5522034" lon="2.8161901"><ele>0.0</ele><time>2026-04-30T11:00:26.061Z</time></trkpt><trkpt lat="41.5522405" lon="2.8162934"><ele>0.0</ele><time>2026-04-30T11:00:27.06Z</time></trkpt><trkpt lat="41.5522782" lon="2.8163951"><ele>0.0</ele><time>2026-04-30T11:00:28.061Z</time></trkpt><trkpt lat="41.5523182" lon="2.8165025"><ele>0.0</ele><time>2026-04-30T11:00:29.061Z</time></trkpt><trkpt lat="41.5523568" lon="2.8166098"><ele>0.0</ele><time>2026-04-30T11:00:30.061Z</time></trkpt><trkpt lat="41.5523981" lon="2.8167131"><ele>0.0</ele><time>2026-04-30T11:00:31.06Z</time></trkpt><trkpt lat="41.552475" lon="2.8169218"><ele>0.0</ele><time>2026-04-30T11:00:33.061Z</time></trkpt><trkpt lat="41.5525102" lon="2.8170267"><ele>0.0</ele><time>2026-04-30T11:00:34.061Z</time></trkpt><trkpt lat="41.5525437" lon="2.8171299"><ele>0.0</ele><time>2026-04-30T11:00:35.06Z</time></trkpt><trkpt lat="41.5525819" lon="2.8172347"><ele>0.0</ele><time>2026-04-30T11:00:36.06Z</time></trkpt><trkpt lat="41.5526186" lon="2.8173385"><ele>0.0</ele><time>2026-04-30T11:00:37.061Z</time></trkpt><trkpt lat="41.552658" lon="2.8174473"><ele>0.0</ele><time>2026-04-30T11:00:38.06Z</time></trkpt><trkpt lat="41.5526952" lon="2.8175503"><ele>0.0</ele><time>2026-04-30T11:00:39.061Z</time></trkpt><trkpt lat="41.5527304" lon="2.8176519"><ele>0.0</ele><time>2026-04-30T11:00:40.06Z</time></trkpt><trkpt lat="41.5527657" lon="2.8177508"><ele>0.0</ele><time>2026-04-30T11:00:41.061Z</time></trkpt><trkpt lat="41.552802" lon="2.8178507"><ele>0.0</ele><time>2026-04-30T11:00:42.061Z</time></trkpt><trkpt lat="41.5528314" lon="2.817956"><ele>0.0</ele><time>2026-04-30T11:00:43.06Z</time></trkpt><trkpt lat="41.5528672" lon="2.8180618"><ele>0.0</ele><time>2026-04-30T11:00:44.061Z</time></trkpt><trkpt lat="41.5529021" lon="2.818164"><ele>0.0</ele><time>2026-04-30T11:00:45.06Z</time></trkpt><trkpt lat="41.5529399" lon="2.8182716"><ele>0.0</ele><time>2026-04-30T11:00:46.06Z</time></trkpt><trkpt lat="41.5529781" lon="2.8183769"><ele>0.0</ele><time>2026-04-30T11:00:47.061Z</time></trkpt><trkpt lat="41.5530165" lon="2.8184785"><ele>0.0</ele><time>2026-04-30T11:00:48.06Z</time></trkpt><trkpt lat="41.5530538" lon="2.8185842"><ele>0.0</ele><time>2026-04-30T11:00:49.06Z</time></trkpt><trkpt lat="41.5530945" lon="2.8186925"><ele>0.0</ele><time>2026-04-30T11:00:50.061Z</time></trkpt><trkpt lat="41.5531347" lon="2.8187969"><ele>0.0</ele><time>2026-04-30T11:00:51.06Z</time></trkpt><trkpt lat="41.5532601" lon="2.819104"><ele>0.0</ele><time>2026-04-30T11:00:54.06Z</time></trkpt><trkpt lat="41.5533015" lon="2.8192037"><ele>0.0</ele><time>2026-04-30T11:00:55.061Z</time></trkpt><trkpt lat="41.5533412" lon="2.8193093"><ele>0.0</ele><time>2026-04-30T11:00:56.06Z</time></trkpt><trkpt lat="41.5533798" lon="2.8194132"><ele>0.0</ele><time>2026-04-30T11:00:57.06Z</time></trkpt><trkpt lat="41.5534182" lon="2.8195166"><ele>0.0</ele><time>2026-04-30T11:00:58.06Z</time></trkpt><trkpt lat="41.553455" lon="2.8196169"><ele>0.0</ele><time>2026-04-30T11:00:59.06Z</time></trkpt><trkpt lat="41.5534922" lon="2.8197181"><ele>0.0</ele><time>2026-04-30T11:01:00.061Z</time></trkpt><trkpt lat="41.5535301" lon="2.8198213"><ele>0.0</ele><time>2026-04-30T11:01:01.061Z</time></trkpt><trkpt lat="41.5535652" lon="2.8199263"><ele>0.0</ele><time>2026-04-30T11:01:02.06Z</time></trkpt><trkpt lat="41.5536035" lon="2.8200299"><ele>0.0</ele><time>2026-04-30T11:01:03.061Z</time></trkpt><trkpt lat="41.5536433" lon="2.8201343"><ele>0.0</ele><time>2026-04-30T11:01:04.06Z</time></trkpt><trkpt lat="41.5536819" lon="2.8202396"><ele>0.0</ele><time>2026-04-30T11:01:05.06Z</time></trkpt><trkpt lat="41.5537216" lon="2.8203432"><ele>0.0</ele><time>2026-04-30T11:01:06.061Z</time></trkpt><trkpt lat="41.5537602" lon="2.8204463"><ele>0.0</ele><time>2026-04-30T11:01:07.06Z</time></trkpt><trkpt lat="41.5538002" lon="2.8205471"><ele>0.0</ele><time>2026-04-30T11:01:08.061Z</time></trkpt><trkpt lat="41.5538383" lon="2.8206496"><ele>0.0</ele><time>2026-04-30T11:01:09.06Z</time></trkpt><trkpt lat="41.5538754" lon="2.8207546"><ele>0.0</ele><time>2026-04-30T11:01:10.06Z</time></trkpt><trkpt lat="41.5539167" lon="2.8208592"><ele>0.0</ele><time>2026-04-30T11:01:11.06Z</time></trkpt><trkpt lat="41.5539582" lon="2.8209617"><ele>0.0</ele><time>2026-04-30T11:01:12.061Z</time></trkpt><trkpt lat="41.5539985" lon="2.8210617"><ele>0.0</ele><time>2026-04-30T11:01:13.06Z</time></trkpt><trkpt lat="41.554077" lon="2.8212667"><ele>0.0</ele><time>2026-04-30T11:01:15.061Z</time></trkpt><trkpt lat="41.5541124" lon="2.82137"><ele>0.0</ele><time>2026-04-30T11:01:16.061Z</time></trkpt><trkpt lat="41.5541474" lon="2.8214716"><ele>0.0</ele><time>2026-04-30T11:01:17.061Z</time></trkpt><trkpt lat="41.5541795" lon="2.8215775"><ele>0.0</ele><time>2026-04-30T11:01:18.06Z</time></trkpt><trkpt lat="41.554214" lon="2.8216831"><ele>0.0</ele><time>2026-04-30T11:01:19.06Z</time></trkpt><trkpt lat="41.5542506" lon="2.8217882"><ele>0.0</ele><time>2026-04-30T11:01:20.06Z</time></trkpt><trkpt lat="41.5542898" lon="2.8218945"><ele>0.0</ele><time>2026-04-30T11:01:21.06Z</time></trkpt><trkpt lat="41.5543285" lon="2.8219936"><ele>0.0</ele><time>2026-04-30T11:01:22.061Z</time></trkpt><trkpt lat="41.5543701" lon="2.8220979"><ele>0.0</ele><time>2026-04-30T11:01:23.059Z</time></trkpt><trkpt lat="41.554407" lon="2.8222004"><ele>0.0</ele><time>2026-04-30T11:01:24.059Z</time></trkpt><trkpt lat="41.5544454" lon="2.8223033"><ele>0.0</ele><time>2026-04-30T11:01:25.06Z</time></trkpt><trkpt lat="41.5544866" lon="2.8224121"><ele>0.0</ele><time>2026-04-30T11:01:26.059Z</time></trkpt><trkpt lat="41.5545239" lon="2.8225107"><ele>0.0</ele><time>2026-04-30T11:01:27.059Z</time></trkpt><trkpt lat="41.55456" lon="2.8226146"><ele>0.0</ele><time>2026-04-30T11:01:28.06Z</time></trkpt><trkpt lat="41.5545997" lon="2.8227235"><ele>0.0</ele><time>2026-04-30T11:01:29.059Z</time></trkpt><trkpt lat="41.554638" lon="2.822831"><ele>0.0</ele><time>2026-04-30T11:01:30.06Z</time></trkpt><trkpt lat="41.5546751" lon="2.8229378"><ele>0.0</ele><time>2026-04-30T11:01:31.06Z</time></trkpt><trkpt lat="41.5547147" lon="2.823046"><ele>0.0</ele><time>2026-04-30T11:01:32.06Z</time></trkpt><trkpt lat="41.5547586" lon="2.8231457"><ele>0.0</ele><time>2026-04-30T11:01:33.059Z</time></trkpt><trkpt lat="41.5547979" lon="2.8232512"><ele>0.0</ele><time>2026-04-30T11:01:34.06Z</time></trkpt><trkpt lat="41.5548842" lon="2.823457"><ele>0.0</ele><time>2026-04-30T11:01:36.06Z</time></trkpt><trkpt lat="41.5549233" lon="2.8235612"><ele>0.0</ele><time>2026-04-30T11:01:37.06Z</time></trkpt><trkpt lat="41.554959" lon="2.8236593"><ele>0.0</ele><time>2026-04-30T11:01:38.06Z</time></trkpt><trkpt lat="41.5550009" lon="2.8237659"><ele>0.0</ele><time>2026-04-30T11:01:39.059Z</time></trkpt><trkpt lat="41.5550354" lon="2.8238625"><ele>0.0</ele><time>2026-04-30T11:01:40.06Z</time></trkpt><trkpt lat="41.555072" lon="2.8239653"><ele>0.0</ele><time>2026-04-30T11:01:41.06Z</time></trkpt><trkpt lat="41.5551087" lon="2.8240668"><ele>0.0</ele><time>2026-04-30T11:01:42.059Z</time></trkpt><trkpt lat="41.555148" lon="2.8241728"><ele>0.0</ele><time>2026-04-30T11:01:43.06Z</time></trkpt><trkpt lat="41.5551881" lon="2.8242764"><ele>0.0</ele><time>2026-04-30T11:01:44.06Z</time></trkpt><trkpt lat="41.555227" lon="2.8243783"><ele>0.0</ele><time>2026-04-30T11:01:45.059Z</time></trkpt><trkpt lat="41.555262" lon="2.8244819"><ele>0.0</ele><time>2026-04-30T11:01:46.059Z</time></trkpt><trkpt lat="41.5552937" lon="2.824584"><ele>0.0</ele><time>2026-04-30T11:01:47.06Z</time></trkpt><trkpt lat="41.5553279" lon="2.82469"><ele>0.0</ele><time>2026-04-30T11:01:48.06Z</time></trkpt><trkpt lat="41.5553647" lon="2.8247994"><ele>0.0</ele><time>2026-04-30T11:01:49.059Z</time></trkpt><trkpt lat="41.5554061" lon="2.8249048"><ele>0.0</ele><time>2026-04-30T11:01:50.059Z</time></trkpt><trkpt lat="41.555449" lon="2.8250106"><ele>0.0</ele><time>2026-04-30T11:01:51.059Z</time></trkpt><trkpt lat="41.55548" lon="2.8251028"><ele>0.0</ele><time>2026-04-30T11:01:52.06Z</time></trkpt><trkpt lat="41.5555122" lon="2.825201"><ele>0.0</ele><time>2026-04-30T11:01:53.06Z</time></trkpt><trkpt lat="41.5555452" lon="2.825302"><ele>0.0</ele><time>2026-04-30T11:01:54.059Z</time></trkpt><trkpt lat="41.555576" lon="2.8254079"><ele>0.0</ele><time>2026-04-30T11:01:55.06Z</time></trkpt><trkpt lat="41.5556565" lon="2.825616"><ele>0.0</ele><time>2026-04-30T11:01:57.06Z</time></trkpt><trkpt lat="41.5557012" lon="2.8257224"><ele>0.0</ele><time>2026-04-30T11:01:58.059Z</time></trkpt><trkpt lat="41.5557433" lon="2.8258248"><ele>0.0</ele><time>2026-04-30T11:01:59.059Z</time></trkpt><trkpt lat="41.5557833" lon="2.825925"><ele>0.0</ele><time>2026-04-30T11:02:00.059Z</time></trkpt><trkpt lat="41.5558251" lon="2.8260262"><ele>0.0</ele><time>2026-04-30T11:02:01.06Z</time></trkpt><trkpt lat="41.5558675" lon="2.8261294"><ele>0.0</ele><time>2026-04-30T11:02:02.059Z</time></trkpt><trkpt lat="41.5559017" lon="2.8262345"><ele>0.0</ele><time>2026-04-30T11:02:03.059Z</time></trkpt><trkpt lat="41.5559297" lon="2.8263383"><ele>0.0</ele><time>2026-04-30T11:02:04.059Z</time></trkpt><trkpt lat="41.5559618" lon="2.8264464"><ele>0.0</ele><time>2026-04-30T11:02:05.06Z</time></trkpt><trkpt lat="41.5559968" lon="2.8265484"><ele>0.0</ele><time>2026-04-30T11:02:06.06Z</time></trkpt><trkpt lat="41.5560381" lon="2.8266543"><ele>0.0</ele><time>2026-04-30T11:02:07.059Z</time></trkpt><trkpt lat="41.5560779" lon="2.8267581"><ele>0.0</ele><time>2026-04-30T11:02:08.059Z</time></trkpt><trkpt lat="41.55612" lon="2.8268599"><ele>0.0</ele><time>2026-04-30T11:02:09.06Z</time></trkpt><trkpt lat="41.5561635" lon="2.8269619"><ele>0.0</ele><time>2026-04-30T11:02:10.059Z</time></trkpt><trkpt lat="41.5562066" lon="2.8270691"><ele>0.0</ele><time>2026-04-30T11:02:11.059Z</time></trkpt><trkpt lat="41.5562471" lon="2.8271689"><ele>0.0</ele><time>2026-04-30T11:02:12.059Z</time></trkpt><trkpt lat="41.5562864" lon="2.827273"><ele>0.0</ele><time>2026-04-30T11:02:13.06Z</time></trkpt><trkpt lat="41.556325" lon="2.8273778"><ele>0.0</ele><time>2026-04-30T11:02:14.06Z</time></trkpt><trkpt lat="41.5563665" lon="2.8274842"><ele>0.0</ele><time>2026-04-30T11:02:15.06Z</time></trkpt><trkpt lat="41.5564069" lon="2.8275877"><ele>0.0</ele><time>2026-04-30T11:02:16.06Z</time></trkpt><trkpt lat="41.5564807" lon="2.8277945"><ele>0.0</ele><time>2026-04-30T11:02:18.06Z</time></trkpt><trkpt lat="41.5565202" lon="2.8278995"><ele>0.0</ele><time>2026-04-30T11:02:19.06Z</time></trkpt><trkpt lat="41.5565586" lon="2.8280049"><ele>0.0</ele><time>2026-04-30T11:02:20.06Z</time></trkpt><trkpt lat="41.5565999" lon="2.8281096"><ele>0.0</ele><time>2026-04-30T11:02:21.059Z</time></trkpt><trkpt lat="41.5566398" lon="2.8282149"><ele>0.0</ele><time>2026-04-30T11:02:22.06Z</time></trkpt><trkpt lat="41.5566807" lon="2.8283199"><ele>0.0</ele><time>2026-04-30T11:02:23.06Z</time></trkpt><trkpt lat="41.5567228" lon="2.828422"><ele>0.0</ele><time>2026-04-30T11:02:24.06Z</time></trkpt><trkpt lat="41.5567585" lon="2.8285205"><ele>0.0</ele><time>2026-04-30T11:02:25.06Z</time></trkpt><trkpt lat="41.5567908" lon="2.8286249"><ele>0.0</ele><time>2026-04-30T11:02:26.06Z</time></trkpt><trkpt lat="41.5568255" lon="2.8287311"><ele>0.0</ele><time>2026-04-30T11:02:27.06Z</time></trkpt><trkpt lat="41.5568945" lon="2.8289328"><ele>0.0</ele><time>2026-04-30T11:02:29.059Z</time></trkpt><trkpt lat="41.5569324" lon="2.829032"><ele>0.0</ele><time>2026-04-30T11:02:30.059Z</time></trkpt><trkpt lat="41.5569749" lon="2.8291389"><ele>0.0</ele><time>2026-04-30T11:02:31.06Z</time></trkpt><trkpt lat="41.5570192" lon="2.8292433"><ele>0.0</ele><time>2026-04-30T11:02:32.059Z</time></trkpt><trkpt lat="41.557058" lon="2.8293507"><ele>0.0</ele><time>2026-04-30T11:02:33.059Z</time></trkpt><trkpt lat="41.5570925" lon="2.8294561"><ele>0.0</ele><time>2026-04-30T11:02:34.059Z</time></trkpt><trkpt lat="41.5571265" lon="2.8295656"><ele>0.0</ele><time>2026-04-30T11:02:35.06Z</time></trkpt><trkpt lat="41.557164" lon="2.8296728"><ele>0.0</ele><time>2026-04-30T11:02:36.06Z</time></trkpt><trkpt lat="41.5572046" lon="2.8297763"><ele>0.0</ele><time>2026-04-30T11:02:37.059Z</time></trkpt><trkpt lat="41.5572833" lon="2.8299782"><ele>0.0</ele><time>2026-04-30T11:02:39.06Z</time></trkpt><trkpt lat="41.5573214" lon="2.830079"><ele>0.0</ele><time>2026-04-30T11:02:40.059Z</time></trkpt><trkpt lat="41.5573579" lon="2.8301803"><ele>0.0</ele><time>2026-04-30T11:02:41.059Z</time></trkpt><trkpt lat="41.5573875" lon="2.8302908"><ele>0.0</ele><time>2026-04-30T11:02:42.059Z</time></trkpt><trkpt lat="41.5574274" lon="2.830391"><ele>0.0</ele><time>2026-04-30T11:02:43.059Z</time></trkpt><trkpt lat="41.5574691" lon="2.8304882"><ele>0.0</ele><time>2026-04-30T11:02:44.06Z</time></trkpt><trkpt lat="41.5575089" lon="2.8305877"><ele>0.0</ele><time>2026-04-30T11:02:45.06Z</time></trkpt><trkpt lat="41.5575516" lon="2.8306911"><ele>0.0</ele><time>2026-04-30T11:02:46.06Z</time></trkpt><trkpt lat="41.5575925" lon="2.8307978"><ele>0.0</ele><time>2026-04-30T11:02:47.059Z</time></trkpt><trkpt lat="41.5576257" lon="2.8309118"><ele>0.0</ele><time>2026-04-30T11:02:48.059Z</time></trkpt><trkpt lat="41.5576598" lon="2.8310237"><ele>0.0</ele><time>2026-04-30T11:02:49.06Z</time></trkpt><trkpt lat="41.5576932" lon="2.8311297"><ele>0.0</ele><time>2026-04-30T11:02:50.06Z</time></trkpt><trkpt lat="41.557729" lon="2.8312363"><ele>0.0</ele><time>2026-04-30T11:02:51.06Z</time></trkpt><trkpt lat="41.557769" lon="2.83134"><ele>0.0</ele><time>2026-04-30T11:02:52.06Z</time></trkpt><trkpt lat="41.5578064" lon="2.8314453"><ele>0.0</ele><time>2026-04-30T11:02:53.059Z</time></trkpt><trkpt lat="41.5578432" lon="2.8315485"><ele>0.0</ele><time>2026-04-30T11:02:54.059Z</time></trkpt><trkpt lat="41.5578929" lon="2.8316463"><ele>0.0</ele><time>2026-04-30T11:02:55.059Z</time></trkpt><trkpt lat="41.5579348" lon="2.8317398"><ele>0.0</ele><time>2026-04-30T11:02:56.06Z</time></trkpt><trkpt lat="41.5579766" lon="2.8318391"><ele>0.0</ele><time>2026-04-30T11:02:57.06Z</time></trkpt><trkpt lat="41.5580158" lon="2.8319401"><ele>0.0</ele><time>2026-04-30T11:02:58.06Z</time></trkpt><trkpt lat="41.5580555" lon="2.832043"><ele>0.0</ele><time>2026-04-30T11:02:59.059Z</time></trkpt><trkpt lat="41.5581819" lon="2.8323501"><ele>0.0</ele><time>2026-04-30T11:03:02.06Z</time></trkpt><trkpt lat="41.5582268" lon="2.8324516"><ele>0.0</ele><time>2026-04-30T11:03:03.059Z</time></trkpt><trkpt lat="41.5582632" lon="2.8325522"><ele>0.0</ele><time>2026-04-30T11:03:04.059Z</time></trkpt><trkpt lat="41.5582923" lon="2.8326518"><ele>0.0</ele><time>2026-04-30T11:03:05.06Z</time></trkpt><trkpt lat="41.5583276" lon="2.8327575"><ele>0.0</ele><time>2026-04-30T11:03:06.059Z</time></trkpt><trkpt lat="41.5583667" lon="2.8328628"><ele>0.0</ele><time>2026-04-30T11:03:07.059Z</time></trkpt><trkpt lat="41.5584109" lon="2.8329695"><ele>0.0</ele><time>2026-04-30T11:03:08.06Z</time></trkpt><trkpt lat="41.5584613" lon="2.833072"><ele>0.0</ele><time>2026-04-30T11:03:09.059Z</time></trkpt><trkpt lat="41.5585033" lon="2.8331747"><ele>0.0</ele><time>2026-04-30T11:03:10.06Z</time></trkpt><trkpt lat="41.5585323" lon="2.8332779"><ele>0.0</ele><time>2026-04-30T11:03:11.06Z</time></trkpt><trkpt lat="41.5585716" lon="2.8333826"><ele>0.0</ele><time>2026-04-30T11:03:12.06Z</time></trkpt><trkpt lat="41.5586048" lon="2.833488"><ele>0.0</ele><time>2026-04-30T11:03:13.059Z</time></trkpt><trkpt lat="41.5586365" lon="2.8335918"><ele>0.0</ele><time>2026-04-30T11:03:14.059Z</time></trkpt><trkpt lat="41.5586694" lon="2.8336977"><ele>0.0</ele><time>2026-04-30T11:03:15.059Z</time></trkpt><trkpt lat="41.558706" lon="2.8338028"><ele>0.0</ele><time>2026-04-30T11:03:16.06Z</time></trkpt><trkpt lat="41.5587351" lon="2.8339092"><ele>0.0</ele><time>2026-04-30T11:03:17.06Z</time></trkpt><trkpt lat="41.5587734" lon="2.8340172"><ele>0.0</ele><time>2026-04-30T11:03:18.059Z</time></trkpt><trkpt lat="41.5588162" lon="2.8341259"><ele>0.0</ele><time>2026-04-30T11:03:19.059Z</time></trkpt><trkpt lat="41.558865" lon="2.8342357"><ele>0.0</ele><time>2026-04-30T11:03:20.059Z</time></trkpt><trkpt lat="41.5589065" lon="2.834343"><ele>0.0</ele><time>2026-04-30T11:03:21.059Z</time></trkpt><trkpt lat="41.558993" lon="2.8345461"><ele>0.0</ele><time>2026-04-30T11:03:23.06Z</time></trkpt><trkpt lat="41.5590351" lon="2.8346442"><ele>0.0</ele><time>2026-04-30T11:03:24.059Z</time></trkpt><trkpt lat="41.5590706" lon="2.8347466"><ele>0.0</ele><time>2026-04-30T11:03:25.06Z</time></trkpt><trkpt lat="41.5591053" lon="2.8348543"><ele>0.0</ele><time>2026-04-30T11:03:26.059Z</time></trkpt><trkpt lat="41.5591348" lon="2.8349575"><ele>0.0</ele><time>2026-04-30T11:03:27.059Z</time></trkpt><trkpt lat="41.5591645" lon="2.835056"><ele>0.0</ele><time>2026-04-30T11:03:28.059Z</time></trkpt><trkpt lat="41.5592002" lon="2.835154"><ele>0.0</ele><time>2026-04-30T11:03:29.06Z</time></trkpt><trkpt lat="41.5592313" lon="2.8352569"><ele>0.0</ele><time>2026-04-30T11:03:30.06Z</time></trkpt><trkpt lat="41.5592683" lon="2.8353603"><ele>0.0</ele><time>2026-04-30T11:03:31.06Z</time></trkpt><trkpt lat="41.5593424" lon="2.835562"><ele>0.0</ele><time>2026-04-30T11:03:33.059Z</time></trkpt><trkpt lat="41.5593778" lon="2.8356651"><ele>0.0</ele><time>2026-04-30T11:03:34.059Z</time></trkpt><trkpt lat="41.5594198" lon="2.8357696"><ele>0.0</ele><time>2026-04-30T11:03:35.059Z</time></trkpt><trkpt lat="41.5594643" lon="2.8358732"><ele>0.0</ele><time>2026-04-30T11:03:36.06Z</time></trkpt><trkpt lat="41.5595047" lon="2.8359765"><ele>0.0</ele><time>2026-04-30T11:03:37.06Z</time></trkpt><trkpt lat="41.559542" lon="2.8360784"><ele>0.0</ele><time>2026-04-30T11:03:38.06Z</time></trkpt><trkpt lat="41.559573" lon="2.8361813"><ele>0.0</ele><time>2026-04-30T11:03:39.06Z</time></trkpt><trkpt lat="41.5596075" lon="2.8362832"><ele>0.0</ele><time>2026-04-30T11:03:40.06Z</time></trkpt><trkpt lat="41.5596496" lon="2.8363883"><ele>0.0</ele><time>2026-04-30T11:03:41.059Z</time></trkpt><trkpt lat="41.5596929" lon="2.8364915"><ele>0.0</ele><time>2026-04-30T11:03:42.059Z</time></trkpt><trkpt lat="41.5597786" lon="2.8366891"><ele>0.0</ele><time>2026-04-30T11:03:44.059Z</time></trkpt><trkpt lat="41.5598143" lon="2.8367885"><ele>0.0</ele><time>2026-04-30T11:03:45.06Z</time></trkpt><trkpt lat="41.5598534" lon="2.8368917"><ele>0.0</ele><time>2026-04-30T11:03:46.059Z</time></trkpt><trkpt lat="41.5598919" lon="2.8369978"><ele>0.0</ele><time>2026-04-30T11:03:47.059Z</time></trkpt><trkpt lat="41.5599402" lon="2.837106"><ele>0.0</ele><time>2026-04-30T11:03:48.06Z</time></trkpt><trkpt lat="41.559984" lon="2.8372095"><ele>0.0</ele><time>2026-04-30T11:03:49.06Z</time></trkpt><trkpt lat="41.5600269" lon="2.837316"><ele>0.0</ele><time>2026-04-30T11:03:50.06Z</time></trkpt><trkpt lat="41.5600641" lon="2.8374215"><ele>0.0</ele><time>2026-04-30T11:03:51.06Z</time></trkpt><trkpt lat="41.5601034" lon="2.8375274"><ele>0.0</ele><time>2026-04-30T11:03:52.06Z</time></trkpt><trkpt lat="41.5601405" lon="2.8376312"><ele>0.0</ele><time>2026-04-30T11:03:53.06Z</time></trkpt><trkpt lat="41.5601768" lon="2.8377352"><ele>0.0</ele><time>2026-04-30T11:03:54.059Z</time></trkpt><trkpt lat="41.560212" lon="2.837838"><ele>0.0</ele><time>2026-04-30T11:03:55.06Z</time></trkpt><trkpt lat="41.5602501" lon="2.8379399"><ele>0.0</ele><time>2026-04-30T11:03:56.059Z</time></trkpt><trkpt lat="41.5602997" lon="2.8380386"><ele>0.0</ele><time>2026-04-30T11:03:57.06Z</time></trkpt><trkpt lat="41.5603443" lon="2.8381354"><ele>0.0</ele><time>2026-04-30T11:03:58.059Z</time></trkpt><trkpt lat="41.5603953" lon="2.8382336"><ele>0.0</ele><time>2026-04-30T11:03:59.059Z</time></trkpt><trkpt lat="41.5604339" lon="2.8383335"><ele>0.0</ele><time>2026-04-30T11:04:00.059Z</time></trkpt><trkpt lat="41.5604737" lon="2.8384363"><ele>0.0</ele><time>2026-04-30T11:04:01.059Z</time></trkpt><trkpt lat="41.5605122" lon="2.8385371"><ele>0.0</ele><time>2026-04-30T11:04:02.059Z</time></trkpt><trkpt lat="41.5605418" lon="2.838638"><ele>0.0</ele><time>2026-04-30T11:04:03.06Z</time></trkpt><trkpt lat="41.5606139" lon="2.8388468"><ele>0.0</ele><time>2026-04-30T11:04:05.06Z</time></trkpt><trkpt lat="41.5606464" lon="2.838951"><ele>0.0</ele><time>2026-04-30T11:04:06.06Z</time></trkpt><trkpt lat="41.5606893" lon="2.8390589"><ele>0.0</ele><time>2026-04-30T11:04:07.06Z</time></trkpt><trkpt lat="41.5607341" lon="2.8391585"><ele>0.0</ele><time>2026-04-30T11:04:08.06Z</time></trkpt><trkpt lat="41.5607759" lon="2.8392616"><ele>0.0</ele><time>2026-04-30T11:04:09.059Z</time></trkpt><trkpt lat="41.5608176" lon="2.8393666"><ele>0.0</ele><time>2026-04-30T11:04:10.059Z</time></trkpt><trkpt lat="41.5608593" lon="2.8394742"><ele>0.0</ele><time>2026-04-30T11:04:11.059Z</time></trkpt><trkpt lat="41.5609067" lon="2.8395771"><ele>0.0</ele><time>2026-04-30T11:04:12.06Z</time></trkpt><trkpt lat="41.5609441" lon="2.8396812"><ele>0.0</ele><time>2026-04-30T11:04:13.06Z</time></trkpt><trkpt lat="41.560978" lon="2.8397876"><ele>0.0</ele><time>2026-04-30T11:04:14.059Z</time></trkpt><trkpt lat="41.5610126" lon="2.8398916"><ele>0.0</ele><time>2026-04-30T11:04:15.059Z</time></trkpt><trkpt lat="41.5610547" lon="2.8399963"><ele>0.0</ele><time>2026-04-30T11:04:16.059Z</time></trkpt><trkpt lat="41.5610925" lon="2.8400984"><ele>0.0</ele><time>2026-04-30T11:04:17.059Z</time></trkpt><trkpt lat="41.5611247" lon="2.8402032"><ele>0.0</ele><time>2026-04-30T11:04:18.06Z</time></trkpt><trkpt lat="41.5611549" lon="2.8403079"><ele>0.0</ele><time>2026-04-30T11:04:19.06Z</time></trkpt><trkpt lat="41.561186" lon="2.8404145"><ele>0.0</ele><time>2026-04-30T11:04:20.059Z</time></trkpt><trkpt lat="41.5612178" lon="2.8405198"><ele>0.0</ele><time>2026-04-30T11:04:21.059Z</time></trkpt><trkpt lat="41.5612554" lon="2.8406234"><ele>0.0</ele><time>2026-04-30T11:04:22.059Z</time></trkpt><trkpt lat="41.5612891" lon="2.8407269"><ele>0.0</ele><time>2026-04-30T11:04:23.06Z</time></trkpt><trkpt lat="41.561328" lon="2.8408284"><ele>0.0</ele><time>2026-04-30T11:04:24.059Z</time></trkpt><trkpt lat="41.5614187" lon="2.8410239"><ele>0.0</ele><time>2026-04-30T11:04:26.059Z</time></trkpt><trkpt lat="41.5614643" lon="2.841125"><ele>0.0</ele><time>2026-04-30T11:04:27.06Z</time></trkpt><trkpt lat="41.5615009" lon="2.8412327"><ele>0.0</ele><time>2026-04-30T11:04:28.06Z</time></trkpt><trkpt lat="41.561537" lon="2.8413409"><ele>0.0</ele><time>2026-04-30T11:04:29.059Z</time></trkpt><trkpt lat="41.5615749" lon="2.8414461"><ele>0.0</ele><time>2026-04-30T11:04:30.059Z</time></trkpt><trkpt lat="41.5616065" lon="2.8415552"><ele>0.0</ele><time>2026-04-30T11:04:31.059Z</time></trkpt><trkpt lat="41.5616436" lon="2.8416616"><ele>0.0</ele><time>2026-04-30T11:04:32.06Z</time></trkpt><trkpt lat="41.561676" lon="2.8417622"><ele>0.0</ele><time>2026-04-30T11:04:33.059Z</time></trkpt><trkpt lat="41.5617077" lon="2.8418719"><ele>0.0</ele><time>2026-04-30T11:04:34.059Z</time></trkpt><trkpt lat="41.5617404" lon="2.8419737"><ele>0.0</ele><time>2026-04-30T11:04:35.059Z</time></trkpt><trkpt lat="41.5617814" lon="2.8420753"><ele>0.0</ele><time>2026-04-30T11:04:36.06Z</time></trkpt><trkpt lat="41.5618176" lon="2.8421798"><ele>0.0</ele><time>2026-04-30T11:04:37.059Z</time></trkpt><trkpt lat="41.5618582" lon="2.8422849"><ele>0.0</ele><time>2026-04-30T11:04:38.06Z</time></trkpt><trkpt lat="41.5618981" lon="2.8423881"><ele>0.0</ele><time>2026-04-30T11:04:39.06Z</time></trkpt><trkpt lat="41.5619409" lon="2.8425004"><ele>0.0</ele><time>2026-04-30T11:04:40.059Z</time></trkpt><trkpt lat="41.5619756" lon="2.8426064"><ele>0.0</ele><time>2026-04-30T11:04:41.059Z</time></trkpt><trkpt lat="41.5620074" lon="2.8427146"><ele>0.0</ele><time>2026-04-30T11:04:42.06Z</time></trkpt><trkpt lat="41.5620404" lon="2.8428215"><ele>0.0</ele><time>2026-04-30T11:04:43.06Z</time></trkpt><trkpt lat="41.5620736" lon="2.8429295"><ele>0.0</ele><time>2026-04-30T11:04:44.059Z</time></trkpt><trkpt lat="41.5621115" lon="2.8430323"><ele>0.0</ele><time>2026-04-30T11:04:45.059Z</time></trkpt><trkpt lat="41.5621921" lon="2.8432462"><ele>0.0</ele><time>2026-04-30T11:04:47.06Z</time></trkpt><trkpt lat="41.562233" lon="2.8433514"><ele>0.0</ele><time>2026-04-30T11:04:48.06Z</time></trkpt><trkpt lat="41.5622748" lon="2.843452"><ele>0.0</ele><time>2026-04-30T11:04:49.059Z</time></trkpt><trkpt lat="41.5623109" lon="2.8435544"><ele>0.0</ele><time>2026-04-30T11:04:50.06Z</time></trkpt><trkpt lat="41.5623516" lon="2.8436551"><ele>0.0</ele><time>2026-04-30T11:04:51.06Z</time></trkpt><trkpt lat="41.562393" lon="2.8437557"><ele>0.0</ele><time>2026-04-30T11:04:52.059Z</time></trkpt><trkpt lat="41.5624346" lon="2.8438513"><ele>0.0</ele><time>2026-04-30T11:04:53.06Z</time></trkpt><trkpt lat="41.5624653" lon="2.8439572"><ele>0.0</ele><time>2026-04-30T11:04:54.06Z</time></trkpt><trkpt lat="41.5624993" lon="2.8440629"><ele>0.0</ele><time>2026-04-30T11:04:55.059Z</time></trkpt><trkpt lat="41.5625297" lon="2.8441681"><ele>0.0</ele><time>2026-04-30T11:04:56.059Z</time></trkpt><trkpt lat="41.5625661" lon="2.8442718"><ele>0.0</ele><time>2026-04-30T11:04:57.059Z</time></trkpt><trkpt lat="41.5626072" lon="2.8443724"><ele>0.0</ele><time>2026-04-30T11:04:58.059Z</time></trkpt><trkpt lat="41.562648" lon="2.8444724"><ele>0.0</ele><time>2026-04-30T11:04:59.059Z</time></trkpt><trkpt lat="41.5627024" lon="2.8445677"><ele>0.0</ele><time>2026-04-30T11:05:00.06Z</time></trkpt><trkpt lat="41.5627418" lon="2.8446683"><ele>0.0</ele><time>2026-04-30T11:05:01.059Z</time></trkpt><trkpt lat="41.562784" lon="2.8447747"><ele>0.0</ele><time>2026-04-30T11:05:02.059Z</time></trkpt><trkpt lat="41.562829" lon="2.8448798"><ele>0.0</ele><time>2026-04-30T11:05:03.059Z</time></trkpt><trkpt lat="41.5628655" lon="2.8449832"><ele>0.0</ele><time>2026-04-30T11:05:04.059Z</time></trkpt><trkpt lat="41.5629047" lon="2.8450878"><ele>0.0</ele><time>2026-04-30T11:05:05.059Z</time></trkpt><trkpt lat="41.5629377" lon="2.8451926"><ele>0.0</ele><time>2026-04-30T11:05:06.059Z</time></trkpt><trkpt lat="41.5629771" lon="2.8452968"><ele>0.0</ele><time>2026-04-30T11:05:07.059Z</time></trkpt><trkpt lat="41.5630515" lon="2.8455041"><ele>0.0</ele><time>2026-04-30T11:05:09.059Z</time></trkpt><trkpt lat="41.5630947" lon="2.8456063"><ele>0.0</ele><time>2026-04-30T11:05:10.059Z</time></trkpt><trkpt lat="41.5631336" lon="2.845714"><ele>0.0</ele><time>2026-04-30T11:05:11.06Z</time></trkpt><trkpt lat="41.5631689" lon="2.8458158"><ele>0.0</ele><time>2026-04-30T11:05:12.059Z</time></trkpt><trkpt lat="41.5632036" lon="2.8459215"><ele>0.0</ele><time>2026-04-30T11:05:13.06Z</time></trkpt><trkpt lat="41.5632384" lon="2.8460268"><ele>0.0</ele><time>2026-04-30T11:05:14.06Z</time></trkpt><trkpt lat="41.5632759" lon="2.8461288"><ele>0.0</ele><time>2026-04-30T11:05:15.06Z</time></trkpt><trkpt lat="41.5633175" lon="2.8462303"><ele>0.0</ele><time>2026-04-30T11:05:16.06Z</time></trkpt><trkpt lat="41.5633577" lon="2.8463323"><ele>0.0</ele><time>2026-04-30T11:05:17.06Z</time></trkpt><trkpt lat="41.5633951" lon="2.8464366"><ele>0.0</ele><time>2026-04-30T11:05:18.06Z</time></trkpt><trkpt lat="41.5634306" lon="2.8465413"><ele>0.0</ele><time>2026-04-30T11:05:19.06Z</time></trkpt><trkpt lat="41.5634741" lon="2.8466552"><ele>0.0</ele><time>2026-04-30T11:05:20.059Z</time></trkpt><trkpt lat="41.5635234" lon="2.8467645"><ele>0.0</ele><time>2026-04-30T11:05:21.059Z</time></trkpt><trkpt lat="41.5635675" lon="2.8468656"><ele>0.0</ele><time>2026-04-30T11:05:22.06Z</time></trkpt><trkpt lat="41.5636198" lon="2.8469596"><ele>0.0</ele><time>2026-04-30T11:05:23.06Z</time></trkpt><trkpt lat="41.563663" lon="2.8470643"><ele>0.0</ele><time>2026-04-30T11:05:24.06Z</time></trkpt><trkpt lat="41.563708" lon="2.8471621"><ele>0.0</ele><time>2026-04-30T11:05:25.06Z</time></trkpt><trkpt lat="41.5637483" lon="2.8472605"><ele>0.0</ele><time>2026-04-30T11:05:26.059Z</time></trkpt><trkpt lat="41.5637828" lon="2.8473589"><ele>0.0</ele><time>2026-04-30T11:05:27.06Z</time></trkpt><trkpt lat="41.5638163" lon="2.8474544"><ele>0.0</ele><time>2026-04-30T11:05:28.059Z</time></trkpt><trkpt lat="41.5638911" lon="2.8476646"><ele>0.0</ele><time>2026-04-30T11:05:30.06Z</time></trkpt><trkpt lat="41.5639245" lon="2.8477637"><ele>0.0</ele><time>2026-04-30T11:05:31.059Z</time></trkpt><trkpt lat="41.5639562" lon="2.8478649"><ele>0.0</ele><time>2026-04-30T11:05:32.059Z</time></trkpt><trkpt lat="41.5639897" lon="2.8479692"><ele>0.0</ele><time>2026-04-30T11:05:33.06Z</time></trkpt><trkpt lat="41.5640286" lon="2.848073"><ele>0.0</ele><time>2026-04-30T11:05:34.059Z</time></trkpt><trkpt lat="41.564066" lon="2.8481752"><ele>0.0</ele><time>2026-04-30T11:05:35.059Z</time></trkpt><trkpt lat="41.5641014" lon="2.8482812"><ele>0.0</ele><time>2026-04-30T11:05:36.06Z</time></trkpt><trkpt lat="41.5641391" lon="2.8483909"><ele>0.0</ele><time>2026-04-30T11:05:37.06Z</time></trkpt><trkpt lat="41.5641786" lon="2.8484905"><ele>0.0</ele><time>2026-04-30T11:05:38.06Z</time></trkpt><trkpt lat="41.5642648" lon="2.8486835"><ele>0.0</ele><time>2026-04-30T11:05:40.059Z</time></trkpt><trkpt lat="41.5643065" lon="2.8487836"><ele>0.0</ele><time>2026-04-30T11:05:41.06Z</time></trkpt><trkpt lat="41.5643444" lon="2.8488822"><ele>0.0</ele><time>2026-04-30T11:05:42.059Z</time></trkpt><trkpt lat="41.5643793" lon="2.8489805"><ele>0.0</ele><time>2026-04-30T11:05:43.06Z</time></trkpt><trkpt lat="41.564424" lon="2.8490831"><ele>0.0</ele><time>2026-04-30T11:05:44.059Z</time></trkpt><trkpt lat="41.5644606" lon="2.8491863"><ele>0.0</ele><time>2026-04-30T11:05:45.059Z</time></trkpt><trkpt lat="41.5644926" lon="2.8492896"><ele>0.0</ele><time>2026-04-30T11:05:46.06Z</time></trkpt><trkpt lat="41.564533" lon="2.8493987"><ele>0.0</ele><time>2026-04-30T11:05:47.059Z</time></trkpt><trkpt lat="41.5645762" lon="2.8495141"><ele>0.0</ele><time>2026-04-30T11:05:48.059Z</time></trkpt><trkpt lat="41.5646166" lon="2.8496191"><ele>0.0</ele><time>2026-04-30T11:05:49.059Z</time></trkpt><trkpt lat="41.5646951" lon="2.8498356"><ele>0.0</ele><time>2026-04-30T11:05:51.059Z</time></trkpt><trkpt lat="41.5647397" lon="2.8499371"><ele>0.0</ele><time>2026-04-30T11:05:52.058Z</time></trkpt><trkpt lat="41.5647787" lon="2.8500372"><ele>0.0</ele><time>2026-04-30T11:05:53.059Z</time></trkpt><trkpt lat="41.5648197" lon="2.8501373"><ele>0.0</ele><time>2026-04-30T11:05:54.059Z</time></trkpt><trkpt lat="41.5648587" lon="2.8502411"><ele>0.0</ele><time>2026-04-30T11:05:55.059Z</time></trkpt><trkpt lat="41.5648954" lon="2.850342"><ele>0.0</ele><time>2026-04-30T11:05:56.059Z</time></trkpt><trkpt lat="41.5649279" lon="2.8504434"><ele>0.0</ele><time>2026-04-30T11:05:57.059Z</time></trkpt><trkpt lat="41.5649723" lon="2.8505465"><ele>0.0</ele><time>2026-04-30T11:05:58.059Z</time></trkpt><trkpt lat="41.5650104" lon="2.850654"><ele>0.0</ele><time>2026-04-30T11:05:59.059Z</time></trkpt><trkpt lat="41.5650533" lon="2.8507553"><ele>0.0</ele><time>2026-04-30T11:06:00.058Z</time></trkpt><trkpt lat="41.5650963" lon="2.8508527"><ele>0.0</ele><time>2026-04-30T11:06:01.058Z</time></trkpt><trkpt lat="41.5651394" lon="2.8509553"><ele>0.0</ele><time>2026-04-30T11:06:02.059Z</time></trkpt><trkpt lat="41.5651789" lon="2.8510555"><ele>0.0</ele><time>2026-04-30T11:06:03.058Z</time></trkpt><trkpt lat="41.5652111" lon="2.8511623"><ele>0.0</ele><time>2026-04-30T11:06:04.058Z</time></trkpt><trkpt lat="41.5652455" lon="2.8512649"><ele>0.0</ele><time>2026-04-30T11:06:05.058Z</time></trkpt><trkpt lat="41.5652943" lon="2.8513709"><ele>0.0</ele><time>2026-04-30T11:06:06.058Z</time></trkpt><trkpt lat="41.565336" lon="2.8514734"><ele>0.0</ele><time>2026-04-30T11:06:07.058Z</time></trkpt><trkpt lat="41.5653724" lon="2.8515751"><ele>0.0</ele><time>2026-04-30T11:06:08.058Z</time></trkpt><trkpt lat="41.565409" lon="2.8516822"><ele>0.0</ele><time>2026-04-30T11:06:09.058Z</time></trkpt><trkpt lat="41.5654413" lon="2.8517866"><ele>0.0</ele><time>2026-04-30T11:06:10.059Z</time></trkpt><trkpt lat="41.565563" lon="2.8520974"><ele>0.0</ele><time>2026-04-30T11:06:13.058Z</time></trkpt><trkpt lat="41.5655989" lon="2.8522048"><ele>0.0</ele><time>2026-04-30T11:06:14.059Z</time></trkpt><trkpt lat="41.5656437" lon="2.8523125"><ele>0.0</ele><time>2026-04-30T11:06:15.059Z</time></trkpt><trkpt lat="41.565683" lon="2.8524094"><ele>0.0</ele><time>2026-04-30T11:06:16.058Z</time></trkpt><trkpt lat="41.5657232" lon="2.8525189"><ele>0.0</ele><time>2026-04-30T11:06:17.058Z</time></trkpt><trkpt lat="41.5657635" lon="2.8526219"><ele>0.0</ele><time>2026-04-30T11:06:18.058Z</time></trkpt><trkpt lat="41.5658089" lon="2.8527308"><ele>0.0</ele><time>2026-04-30T11:06:19.059Z</time></trkpt><trkpt lat="41.5658474" lon="2.8528346"><ele>0.0</ele><time>2026-04-30T11:06:20.058Z</time></trkpt><trkpt lat="41.5658814" lon="2.8529385"><ele>0.0</ele><time>2026-04-30T11:06:21.058Z</time></trkpt><trkpt lat="41.5659241" lon="2.8530402"><ele>0.0</ele><time>2026-04-30T11:06:22.059Z</time></trkpt><trkpt lat="41.5659622" lon="2.8531421"><ele>0.0</ele><time>2026-04-30T11:06:23.059Z</time></trkpt><trkpt lat="41.5660042" lon="2.8532392"><ele>0.0</ele><time>2026-04-30T11:06:24.058Z</time></trkpt><trkpt lat="41.566039" lon="2.8533429"><ele>0.0</ele><time>2026-04-30T11:06:25.058Z</time></trkpt><trkpt lat="41.566077" lon="2.853451"><ele>0.0</ele><time>2026-04-30T11:06:26.058Z</time></trkpt><trkpt lat="41.5661111" lon="2.8535566"><ele>0.0</ele><time>2026-04-30T11:06:27.058Z</time></trkpt><trkpt lat="41.5661429" lon="2.8536617"><ele>0.0</ele><time>2026-04-30T11:06:28.058Z</time></trkpt><trkpt lat="41.5661736" lon="2.853765"><ele>0.0</ele><time>2026-04-30T11:06:29.058Z</time></trkpt><trkpt lat="41.5662016" lon="2.8538629"><ele>0.0</ele><time>2026-04-30T11:06:30.058Z</time></trkpt><trkpt lat="41.5662324" lon="2.8539651"><ele>0.0</ele><time>2026-04-30T11:06:31.059Z</time></trkpt><trkpt lat="41.5662943" lon="2.854176"><ele>0.0</ele><time>2026-04-30T11:06:33.058Z</time></trkpt><trkpt lat="41.5663303" lon="2.8542783"><ele>0.0</ele><time>2026-04-30T11:06:34.058Z</time></trkpt><trkpt lat="41.5663698" lon="2.8543832"><ele>0.0</ele><time>2026-04-30T11:06:35.059Z</time></trkpt><trkpt lat="41.5664084" lon="2.8544867"><ele>0.0</ele><time>2026-04-30T11:06:36.058Z</time></trkpt><trkpt lat="41.5664469" lon="2.8545953"><ele>0.0</ele><time>2026-04-30T11:06:37.059Z</time></trkpt><trkpt lat="41.566485" lon="2.8547041"><ele>0.0</ele><time>2026-04-30T11:06:38.058Z</time></trkpt><trkpt lat="41.5665318" lon="2.8548028"><ele>0.0</ele><time>2026-04-30T11:06:39.059Z</time></trkpt><trkpt lat="41.5665772" lon="2.8549066"><ele>0.0</ele><time>2026-04-30T11:06:40.058Z</time></trkpt><trkpt lat="41.5666209" lon="2.85501"><ele>0.0</ele><time>2026-04-30T11:06:41.059Z</time></trkpt><trkpt lat="41.5666643" lon="2.8551133"><ele>0.0</ele><time>2026-04-30T11:06:42.059Z</time></trkpt><trkpt lat="41.5667033" lon="2.855218"><ele>0.0</ele><time>2026-04-30T11:06:43.059Z</time></trkpt><trkpt lat="41.5667407" lon="2.8553231"><ele>0.0</ele><time>2026-04-30T11:06:44.058Z</time></trkpt><trkpt lat="41.5667777" lon="2.855425"><ele>0.0</ele><time>2026-04-30T11:06:45.059Z</time></trkpt><trkpt lat="41.5668101" lon="2.8555239"><ele>0.0</ele><time>2026-04-30T11:06:46.058Z</time></trkpt><trkpt lat="41.5668443" lon="2.8556254"><ele>0.0</ele><time>2026-04-30T11:06:47.059Z</time></trkpt><trkpt lat="41.5668818" lon="2.855725"><ele>0.0</ele><time>2026-04-30T11:06:48.059Z</time></trkpt><trkpt lat="41.5669187" lon="2.8558352"><ele>0.0</ele><time>2026-04-30T11:06:49.058Z</time></trkpt><trkpt lat="41.5669539" lon="2.8559394"><ele>0.0</ele><time>2026-04-30T11:06:50.059Z</time></trkpt><trkpt lat="41.5669947" lon="2.856043"><ele>0.0</ele><time>2026-04-30T11:06:51.058Z</time></trkpt><trkpt lat="41.567032" lon="2.8561507"><ele>0.0</ele><time>2026-04-30T11:06:52.058Z</time></trkpt><trkpt lat="41.5671041" lon="2.8563621"><ele>0.0</ele><time>2026-04-30T11:06:54.059Z</time></trkpt><trkpt lat="41.567143" lon="2.8564606"><ele>0.0</ele><time>2026-04-30T11:06:55.059Z</time></trkpt><trkpt lat="41.567186" lon="2.8565591"><ele>0.0</ele><time>2026-04-30T11:06:56.058Z</time></trkpt><trkpt lat="41.5672308" lon="2.8566535"><ele>0.0</ele><time>2026-04-30T11:06:57.059Z</time></trkpt><trkpt lat="41.5672704" lon="2.8567563"><ele>0.0</ele><time>2026-04-30T11:06:58.059Z</time></trkpt><trkpt lat="41.5673104" lon="2.8568625"><ele>0.0</ele><time>2026-04-30T11:06:59.059Z</time></trkpt><trkpt lat="41.5673462" lon="2.8569621"><ele>0.0</ele><time>2026-04-30T11:07:00.058Z</time></trkpt><trkpt lat="41.5673951" lon="2.857059"><ele>0.0</ele><time>2026-04-30T11:07:01.058Z</time></trkpt><trkpt lat="41.5674479" lon="2.8571583"><ele>0.0</ele><time>2026-04-30T11:07:02.059Z</time></trkpt><trkpt lat="41.5675015" lon="2.8572559"><ele>0.0</ele><time>2026-04-30T11:07:03.058Z</time></trkpt><trkpt lat="41.5675489" lon="2.8573571"><ele>0.0</ele><time>2026-04-30T11:07:04.059Z</time></trkpt><trkpt lat="41.567589" lon="2.8574584"><ele>0.0</ele><time>2026-04-30T11:07:05.058Z</time></trkpt><trkpt lat="41.5676302" lon="2.8575637"><ele>0.0</ele><time>2026-04-30T11:07:06.059Z</time></trkpt><trkpt lat="41.5676688" lon="2.8576648"><ele>0.0</ele><time>2026-04-30T11:07:07.059Z</time></trkpt><trkpt lat="41.5677056" lon="2.8577679"><ele>0.0</ele><time>2026-04-30T11:07:08.058Z</time></trkpt><trkpt lat="41.5677383" lon="2.857874"><ele>0.0</ele><time>2026-04-30T11:07:09.058Z</time></trkpt><trkpt lat="41.5677716" lon="2.8579799"><ele>0.0</ele><time>2026-04-30T11:07:10.059Z</time></trkpt><trkpt lat="41.5678074" lon="2.8580862"><ele>0.0</ele><time>2026-04-30T11:07:11.059Z</time></trkpt><trkpt lat="41.5678411" lon="2.8581958"><ele>0.0</ele><time>2026-04-30T11:07:12.058Z</time></trkpt><trkpt lat="41.5678788" lon="2.858304"><ele>0.0</ele><time>2026-04-30T11:07:13.058Z</time></trkpt><trkpt lat="41.5679546" lon="2.8585168"><ele>0.0</ele><time>2026-04-30T11:07:15.058Z</time></trkpt><trkpt lat="41.5679936" lon="2.8586227"><ele>0.0</ele><time>2026-04-30T11:07:16.059Z</time></trkpt><trkpt lat="41.5680307" lon="2.8587266"><ele>0.0</ele><time>2026-04-30T11:07:17.058Z</time></trkpt><trkpt lat="41.568074" lon="2.8588286"><ele>0.0</ele><time>2026-04-30T11:07:18.058Z</time></trkpt><trkpt lat="41.5681144" lon="2.8589251"><ele>0.0</ele><time>2026-04-30T11:07:19.059Z</time></trkpt><trkpt lat="41.568152" lon="2.8590269"><ele>0.0</ele><time>2026-04-30T11:07:20.059Z</time></trkpt><trkpt lat="41.5681897" lon="2.8591327"><ele>0.0</ele><time>2026-04-30T11:07:21.059Z</time></trkpt><trkpt lat="41.5682297" lon="2.8592411"><ele>0.0</ele><time>2026-04-30T11:07:22.058Z</time></trkpt><trkpt lat="41.5682668" lon="2.8593455"><ele>0.0</ele><time>2026-04-30T11:07:23.059Z</time></trkpt><trkpt lat="41.5683032" lon="2.8594482"><ele>0.0</ele><time>2026-04-30T11:07:24.059Z</time></trkpt><trkpt lat="41.568345" lon="2.8595486"><ele>0.0</ele><time>2026-04-30T11:07:25.059Z</time></trkpt><trkpt lat="41.5683848" lon="2.8596542"><ele>0.0</ele><time>2026-04-30T11:07:26.059Z</time></trkpt><trkpt lat="41.5684237" lon="2.8597568"><ele>0.0</ele><time>2026-04-30T11:07:27.058Z</time></trkpt><trkpt lat="41.5684637" lon="2.859857"><ele>0.0</ele><time>2026-04-30T11:07:28.058Z</time></trkpt><trkpt lat="41.5685017" lon="2.85996"><ele>0.0</ele><time>2026-04-30T11:07:29.058Z</time></trkpt><trkpt lat="41.5685447" lon="2.8600657"><ele>0.0</ele><time>2026-04-30T11:07:30.058Z</time></trkpt><trkpt lat="41.5685836" lon="2.8601682"><ele>0.0</ele><time>2026-04-30T11:07:31.058Z</time></trkpt><trkpt lat="41.5686201" lon="2.8602699"><ele>0.0</ele><time>2026-04-30T11:07:32.058Z</time></trkpt><trkpt lat="41.5686572" lon="2.86037"><ele>0.0</ele><time>2026-04-30T11:07:33.058Z</time></trkpt><trkpt lat="41.5686955" lon="2.8604704"><ele>0.0</ele><time>2026-04-30T11:07:34.059Z</time></trkpt><trkpt lat="41.5687637" lon="2.86068"><ele>0.0</ele><time>2026-04-30T11:07:36.059Z</time></trkpt><trkpt lat="41.5688018" lon="2.8607865"><ele>0.0</ele><time>2026-04-30T11:07:37.059Z</time></trkpt><trkpt lat="41.568839" lon="2.8608872"><ele>0.0</ele><time>2026-04-30T11:07:38.058Z</time></trkpt><trkpt lat="41.5688772" lon="2.8609899"><ele>0.0</ele><time>2026-04-30T11:07:39.058Z</time></trkpt><trkpt lat="41.5689139" lon="2.8610935"><ele>0.0</ele><time>2026-04-30T11:07:40.058Z</time></trkpt><trkpt lat="41.5689517" lon="2.861201"><ele>0.0</ele><time>2026-04-30T11:07:41.058Z</time></trkpt><trkpt lat="41.5689919" lon="2.8613077"><ele>0.0</ele><time>2026-04-30T11:07:42.058Z</time></trkpt><trkpt lat="41.5690302" lon="2.8614117"><ele>0.0</ele><time>2026-04-30T11:07:43.058Z</time></trkpt><trkpt lat="41.5690684" lon="2.8615133"><ele>0.0</ele><time>2026-04-30T11:07:44.059Z</time></trkpt><trkpt lat="41.569105" lon="2.861617"><ele>0.0</ele><time>2026-04-30T11:07:45.058Z</time></trkpt><trkpt lat="41.5691417" lon="2.8617204"><ele>0.0</ele><time>2026-04-30T11:07:46.059Z</time></trkpt><trkpt lat="41.5691813" lon="2.8618248"><ele>0.0</ele><time>2026-04-30T11:07:47.058Z</time></trkpt><trkpt lat="41.5692199" lon="2.8619255"><ele>0.0</ele><time>2026-04-30T11:07:48.059Z</time></trkpt><trkpt lat="41.5692601" lon="2.8620283"><ele>0.0</ele><time>2026-04-30T11:07:49.058Z</time></trkpt><trkpt lat="41.5692983" lon="2.8621346"><ele>0.0</ele><time>2026-04-30T11:07:50.059Z</time></trkpt><trkpt lat="41.5693353" lon="2.86224"><ele>0.0</ele><time>2026-04-30T11:07:51.058Z</time></trkpt><trkpt lat="41.5693714" lon="2.8623503"><ele>0.0</ele><time>2026-04-30T11:07:52.059Z</time></trkpt><trkpt lat="41.5694065" lon="2.8624561"><ele>0.0</ele><time>2026-04-30T11:07:53.059Z</time></trkpt><trkpt lat="41.5694449" lon="2.8625595"><ele>0.0</ele><time>2026-04-30T11:07:54.058Z</time></trkpt><trkpt lat="41.5695283" lon="2.8627649"><ele>0.0</ele><time>2026-04-30T11:07:56.059Z</time></trkpt><trkpt lat="41.56957" lon="2.8628699"><ele>0.0</ele><time>2026-04-30T11:07:57.058Z</time></trkpt><trkpt lat="41.5696102" lon="2.8629763"><ele>0.0</ele><time>2026-04-30T11:07:58.058Z</time></trkpt><trkpt lat="41.5696442" lon="2.8630825"><ele>0.0</ele><time>2026-04-30T11:07:59.059Z</time></trkpt><trkpt lat="41.5696786" lon="2.863192"><ele>0.0</ele><time>2026-04-30T11:08:00.058Z</time></trkpt><trkpt lat="41.5697199" lon="2.8632922"><ele>0.0</ele><time>2026-04-30T11:08:01.058Z</time></trkpt><trkpt lat="41.5697632" lon="2.8633931"><ele>0.0</ele><time>2026-04-30T11:08:02.059Z</time></trkpt><trkpt lat="41.5698064" lon="2.863494"><ele>0.0</ele><time>2026-04-30T11:08:03.059Z</time></trkpt><trkpt lat="41.5698481" lon="2.8635904"><ele>0.0</ele><time>2026-04-30T11:08:04.059Z</time></trkpt><trkpt lat="41.5698886" lon="2.8636931"><ele>0.0</ele><time>2026-04-30T11:08:05.058Z</time></trkpt><trkpt lat="41.5699281" lon="2.8638019"><ele>0.0</ele><time>2026-04-30T11:08:06.058Z</time></trkpt><trkpt lat="41.5699684" lon="2.8639049"><ele>0.0</ele><time>2026-04-30T11:08:07.058Z</time></trkpt><trkpt lat="41.5700084" lon="2.8640096"><ele>0.0</ele><time>2026-04-30T11:08:08.058Z</time></trkpt><trkpt lat="41.5700471" lon="2.8641117"><ele>0.0</ele><time>2026-04-30T11:08:09.058Z</time></trkpt><trkpt lat="41.5700895" lon="2.8642103"><ele>0.0</ele><time>2026-04-30T11:08:10.059Z</time></trkpt><trkpt lat="41.57013" lon="2.8643119"><ele>0.0</ele><time>2026-04-30T11:08:11.058Z</time></trkpt><trkpt lat="41.5701699" lon="2.8644163"><ele>0.0</ele><time>2026-04-30T11:08:12.058Z</time></trkpt><trkpt lat="41.5702087" lon="2.8645156"><ele>0.0</ele><time>2026-04-30T11:08:13.058Z</time></trkpt><trkpt lat="41.5702457" lon="2.864617"><ele>0.0</ele><time>2026-04-30T11:08:14.058Z</time></trkpt><trkpt lat="41.5702852" lon="2.8647213"><ele>0.0</ele><time>2026-04-30T11:08:15.059Z</time></trkpt><trkpt lat="41.570362" lon="2.8649282"><ele>0.0</ele><time>2026-04-30T11:08:17.058Z</time></trkpt><trkpt lat="41.5703987" lon="2.8650342"><ele>0.0</ele><time>2026-04-30T11:08:18.058Z</time></trkpt><trkpt lat="41.5704397" lon="2.8651423"><ele>0.0</ele><time>2026-04-30T11:08:19.058Z</time></trkpt><trkpt lat="41.5704786" lon="2.8652448"><ele>0.0</ele><time>2026-04-30T11:08:20.058Z</time></trkpt><trkpt lat="41.5705184" lon="2.8653495"><ele>0.0</ele><time>2026-04-30T11:08:21.058Z</time></trkpt><trkpt lat="41.5705571" lon="2.8654533"><ele>0.0</ele><time>2026-04-30T11:08:22.058Z</time></trkpt><trkpt lat="41.5705935" lon="2.8655614"><ele>0.0</ele><time>2026-04-30T11:08:23.058Z</time></trkpt><trkpt lat="41.5706303" lon="2.865668"><ele>0.0</ele><time>2026-04-30T11:08:24.059Z</time></trkpt><trkpt lat="41.5706653" lon="2.8657775"><ele>0.0</ele><time>2026-04-30T11:08:25.059Z</time></trkpt><trkpt lat="41.5707001" lon="2.8658877"><ele>0.0</ele><time>2026-04-30T11:08:26.059Z</time></trkpt><trkpt lat="41.5707349" lon="2.8659965"><ele>0.0</ele><time>2026-04-30T11:08:27.059Z</time></trkpt><trkpt lat="41.5707718" lon="2.8660971"><ele>0.0</ele><time>2026-04-30T11:08:28.059Z</time></trkpt><trkpt lat="41.5708085" lon="2.8662028"><ele>0.0</ele><time>2026-04-30T11:08:29.058Z</time></trkpt><trkpt lat="41.5708452" lon="2.8663039"><ele>0.0</ele><time>2026-04-30T11:08:30.059Z</time></trkpt><trkpt lat="41.570882" lon="2.8664069"><ele>0.0</ele><time>2026-04-30T11:08:31.059Z</time></trkpt><trkpt lat="41.5709202" lon="2.8665101"><ele>0.0</ele><time>2026-04-30T11:08:32.058Z</time></trkpt><trkpt lat="41.5709553" lon="2.8666123"><ele>0.0</ele><time>2026-04-30T11:08:33.058Z</time></trkpt><trkpt lat="41.5709919" lon="2.866715"><ele>0.0</ele><time>2026-04-30T11:08:34.058Z</time></trkpt><trkpt lat="41.57103" lon="2.8668214"><ele>0.0</ele><time>2026-04-30T11:08:35.058Z</time></trkpt><trkpt lat="41.5711064" lon="2.8670365"><ele>0.0</ele><time>2026-04-30T11:08:37.058Z</time></trkpt><trkpt lat="41.5711498" lon="2.8671385"><ele>0.0</ele><time>2026-04-30T11:08:38.058Z</time></trkpt><trkpt lat="41.571193" lon="2.8672431"><ele>0.0</ele><time>2026-04-30T11:08:39.059Z</time></trkpt><trkpt lat="41.571235" lon="2.8673464"><ele>0.0</ele><time>2026-04-30T11:08:40.059Z</time></trkpt><trkpt lat="41.571276" lon="2.8674525"><ele>0.0</ele><time>2026-04-30T11:08:41.059Z</time></trkpt><trkpt lat="41.571315" lon="2.8675522"><ele>0.0</ele><time>2026-04-30T11:08:42.059Z</time></trkpt><trkpt lat="41.5713516" lon="2.8676537"><ele>0.0</ele><time>2026-04-30T11:08:43.058Z</time></trkpt><trkpt lat="41.5713913" lon="2.8677579"><ele>0.0</ele><time>2026-04-30T11:08:44.058Z</time></trkpt><trkpt lat="41.5714284" lon="2.8678617"><ele>0.0</ele><time>2026-04-30T11:08:45.058Z</time></trkpt><trkpt lat="41.5714671" lon="2.8679606"><ele>0.0</ele><time>2026-04-30T11:08:46.058Z</time></trkpt><trkpt lat="41.5715053" lon="2.8680601"><ele>0.0</ele><time>2026-04-30T11:08:47.058Z</time></trkpt><trkpt lat="41.5715467" lon="2.8681641"><ele>0.0</ele><time>2026-04-30T11:08:48.058Z</time></trkpt><trkpt lat="41.5715884" lon="2.8682693"><ele>0.0</ele><time>2026-04-30T11:08:49.058Z</time></trkpt><trkpt lat="41.5716271" lon="2.8683717"><ele>0.0</ele><time>2026-04-30T11:08:50.058Z</time></trkpt><trkpt lat="41.571662" lon="2.8684765"><ele>0.0</ele><time>2026-04-30T11:08:51.059Z</time></trkpt><trkpt lat="41.5717001" lon="2.8685861"><ele>0.0</ele><time>2026-04-30T11:08:52.059Z</time></trkpt><trkpt lat="41.5717367" lon="2.8686888"><ele>0.0</ele><time>2026-04-30T11:08:53.059Z</time></trkpt><trkpt lat="41.5717721" lon="2.8687874"><ele>0.0</ele><time>2026-04-30T11:08:54.058Z</time></trkpt><trkpt lat="41.5718085" lon="2.8688921"><ele>0.0</ele><time>2026-04-30T11:08:55.058Z</time></trkpt><trkpt lat="41.5718453" lon="2.8689981"><ele>0.0</ele><time>2026-04-30T11:08:56.059Z</time></trkpt><trkpt lat="41.571917" lon="2.8692069"><ele>0.0</ele><time>2026-04-30T11:08:58.059Z</time></trkpt><trkpt lat="41.5719565" lon="2.8693146"><ele>0.0</ele><time>2026-04-30T11:08:59.059Z</time></trkpt><trkpt lat="41.5719982" lon="2.8694204"><ele>0.0</ele><time>2026-04-30T11:09:00.058Z</time></trkpt><trkpt lat="41.5720356" lon="2.8695178"><ele>0.0</ele><time>2026-04-30T11:09:01.058Z</time></trkpt><trkpt lat="41.572072" lon="2.8696175"><ele>0.0</ele><time>2026-04-30T11:09:02.058Z</time></trkpt><trkpt lat="41.5721106" lon="2.8697177"><ele>0.0</ele><time>2026-04-30T11:09:03.058Z</time></trkpt><trkpt lat="41.5721486" lon="2.869816"><ele>0.0</ele><time>2026-04-30T11:09:04.058Z</time></trkpt><trkpt lat="41.5721851" lon="2.8699188"><ele>0.0</ele><time>2026-04-30T11:09:05.059Z</time></trkpt><trkpt lat="41.5722231" lon="2.8700221"><ele>0.0</ele><time>2026-04-30T11:09:06.058Z</time></trkpt><trkpt lat="41.57226" lon="2.8701253"><ele>0.0</ele><time>2026-04-30T11:09:07.058Z</time></trkpt><trkpt lat="41.5723055" lon="2.8702225"><ele>0.0</ele><time>2026-04-30T11:09:08.059Z</time></trkpt><trkpt lat="41.5723508" lon="2.8703306"><ele>0.0</ele><time>2026-04-30T11:09:09.059Z</time></trkpt><trkpt lat="41.5723919" lon="2.8704337"><ele>0.0</ele><time>2026-04-30T11:09:10.058Z</time></trkpt><trkpt lat="41.5724291" lon="2.8705314"><ele>0.0</ele><time>2026-04-30T11:09:11.059Z</time></trkpt><trkpt lat="41.5724669" lon="2.8706321"><ele>0.0</ele><time>2026-04-30T11:09:12.059Z</time></trkpt><trkpt lat="41.5725066" lon="2.8707335"><ele>0.0</ele><time>2026-04-30T11:09:13.059Z</time></trkpt><trkpt lat="41.5725467" lon="2.8708364"><ele>0.0</ele><time>2026-04-30T11:09:14.058Z</time></trkpt><trkpt lat="41.5725899" lon="2.8709427"><ele>0.0</ele><time>2026-04-30T11:09:15.059Z</time></trkpt><trkpt lat="41.572633" lon="2.871048"><ele>0.0</ele><time>2026-04-30T11:09:16.059Z</time></trkpt><trkpt lat="41.5726747" lon="2.8711556"><ele>0.0</ele><time>2026-04-30T11:09:17.059Z</time></trkpt><trkpt lat="41.5727596" lon="2.8713708"><ele>0.0</ele><time>2026-04-30T11:09:19.058Z</time></trkpt><trkpt lat="41.5728" lon="2.8714761"><ele>0.0</ele><time>2026-04-30T11:09:20.058Z</time></trkpt><trkpt lat="41.5728343" lon="2.8715787"><ele>0.0</ele><time>2026-04-30T11:09:21.059Z</time></trkpt><trkpt lat="41.5728621" lon="2.8716818"><ele>0.0</ele><time>2026-04-30T11:09:22.058Z</time></trkpt><trkpt lat="41.5729002" lon="2.8717834"><ele>0.0</ele><time>2026-04-30T11:09:23.059Z</time></trkpt><trkpt lat="41.5729343" lon="2.8718895"><ele>0.0</ele><time>2026-04-30T11:09:24.058Z</time></trkpt><trkpt lat="41.572968" lon="2.8719932"><ele>0.0</ele><time>2026-04-30T11:09:25.059Z</time></trkpt><trkpt lat="41.5730064" lon="2.8720954"><ele>0.0</ele><time>2026-04-30T11:09:26.059Z</time></trkpt><trkpt lat="41.5730379" lon="2.8722008"><ele>0.0</ele><time>2026-04-30T11:09:27.059Z</time></trkpt><trkpt lat="41.5730719" lon="2.8723094"><ele>0.0</ele><time>2026-04-30T11:09:28.058Z</time></trkpt><trkpt lat="41.5731128" lon="2.8724086"><ele>0.0</ele><time>2026-04-30T11:09:29.058Z</time></trkpt><trkpt lat="41.5731489" lon="2.8725103"><ele>0.0</ele><time>2026-04-30T11:09:30.059Z</time></trkpt><trkpt lat="41.5731867" lon="2.8726106"><ele>0.0</ele><time>2026-04-30T11:09:31.058Z</time></trkpt><trkpt lat="41.5732251" lon="2.872712"><ele>0.0</ele><time>2026-04-30T11:09:32.058Z</time></trkpt><trkpt lat="41.5732605" lon="2.8728194"><ele>0.0</ele><time>2026-04-30T11:09:33.058Z</time></trkpt><trkpt lat="41.5732938" lon="2.8729266"><ele>0.0</ele><time>2026-04-30T11:09:34.058Z</time></trkpt><trkpt lat="41.5733319" lon="2.8730369"><ele>0.0</ele><time>2026-04-30T11:09:35.058Z</time></trkpt><trkpt lat="41.57337" lon="2.8731418"><ele>0.0</ele><time>2026-04-30T11:09:36.059Z</time></trkpt><trkpt lat="41.5733985" lon="2.8732496"><ele>0.0</ele><time>2026-04-30T11:09:37.058Z</time></trkpt><trkpt lat="41.5734297" lon="2.8733494"><ele>0.0</ele><time>2026-04-30T11:09:38.059Z</time></trkpt><trkpt lat="41.5735011" lon="2.8735552"><ele>0.0</ele><time>2026-04-30T11:09:40.058Z</time></trkpt><trkpt lat="41.5735329" lon="2.87366"><ele>0.0</ele><time>2026-04-30T11:09:41.058Z</time></trkpt><trkpt lat="41.5735714" lon="2.8737678"><ele>0.0</ele><time>2026-04-30T11:09:42.058Z</time></trkpt><trkpt lat="41.5736241" lon="2.8738691"><ele>0.0</ele><time>2026-04-30T11:09:43.058Z</time></trkpt><trkpt lat="41.5736632" lon="2.8739722"><ele>0.0</ele><time>2026-04-30T11:09:44.058Z</time></trkpt><trkpt lat="41.5737017" lon="2.8740767"><ele>0.0</ele><time>2026-04-30T11:09:45.058Z</time></trkpt><trkpt lat="41.5737413" lon="2.8741772"><ele>0.0</ele><time>2026-04-30T11:09:46.058Z</time></trkpt><trkpt lat="41.5737812" lon="2.8742783"><ele>0.0</ele><time>2026-04-30T11:09:47.058Z</time></trkpt><trkpt lat="41.5738203" lon="2.8743844"><ele>0.0</ele><time>2026-04-30T11:09:48.059Z</time></trkpt><trkpt lat="41.573863" lon="2.8744881"><ele>0.0</ele><time>2026-04-30T11:09:49.058Z</time></trkpt><trkpt lat="41.5739092" lon="2.8745914"><ele>0.0</ele><time>2026-04-30T11:09:50.059Z</time></trkpt><trkpt lat="41.573957" lon="2.8746961"><ele>0.0</ele><time>2026-04-30T11:09:51.059Z</time></trkpt><trkpt lat="41.5739999" lon="2.8748025"><ele>0.0</ele><time>2026-04-30T11:09:52.058Z</time></trkpt><trkpt lat="41.5740387" lon="2.8749065"><ele>0.0</ele><time>2026-04-30T11:09:53.059Z</time></trkpt><trkpt lat="41.5740753" lon="2.8750087"><ele>0.0</ele><time>2026-04-30T11:09:54.059Z</time></trkpt><trkpt lat="41.5741135" lon="2.8751132"><ele>0.0</ele><time>2026-04-30T11:09:55.059Z</time></trkpt><trkpt lat="41.5741551" lon="2.8752178"><ele>0.0</ele><time>2026-04-30T11:09:56.059Z</time></trkpt><trkpt lat="41.5741949" lon="2.8753244"><ele>0.0</ele><time>2026-04-30T11:09:57.059Z</time></trkpt><trkpt lat="41.5742336" lon="2.8754316"><ele>0.0</ele><time>2026-04-30T11:09:58.058Z</time></trkpt><trkpt lat="41.5742719" lon="2.8755322"><ele>0.0</ele><time>2026-04-30T11:09:59.059Z</time></trkpt><trkpt lat="41.5743435" lon="2.875737"><ele>0.0</ele><time>2026-04-30T11:10:01.058Z</time></trkpt><trkpt lat="41.574382" lon="2.8758377"><ele>0.0</ele><time>2026-04-30T11:10:02.058Z</time></trkpt><trkpt lat="41.5744187" lon="2.8759377"><ele>0.0</ele><time>2026-04-30T11:10:03.058Z</time></trkpt><trkpt lat="41.5744584" lon="2.8760414"><ele>0.0</ele><time>2026-04-30T11:10:04.059Z</time></trkpt><trkpt lat="41.5744967" lon="2.8761465"><ele>0.0</ele><time>2026-04-30T11:10:05.058Z</time></trkpt><trkpt lat="41.5745364" lon="2.8762529"><ele>0.0</ele><time>2026-04-30T11:10:06.059Z</time></trkpt><trkpt lat="41.5745752" lon="2.8763497"><ele>0.0</ele><time>2026-04-30T11:10:07.058Z</time></trkpt><trkpt lat="41.5746183" lon="2.8764457"><ele>0.0</ele><time>2026-04-30T11:10:08.058Z</time></trkpt><trkpt lat="41.5746605" lon="2.8765424"><ele>0.0</ele><time>2026-04-30T11:10:09.058Z</time></trkpt><trkpt lat="41.574702" lon="2.8766423"><ele>0.0</ele><time>2026-04-30T11:10:10.059Z</time></trkpt><trkpt lat="41.5747493" lon="2.8767475"><ele>0.0</ele><time>2026-04-30T11:10:11.059Z</time></trkpt><trkpt lat="41.5747959" lon="2.8768555"><ele>0.0</ele><time>2026-04-30T11:10:12.058Z</time></trkpt><trkpt lat="41.5748401" lon="2.8769579"><ele>0.0</ele><time>2026-04-30T11:10:13.058Z</time></trkpt><trkpt lat="41.574882" lon="2.8770584"><ele>0.0</ele><time>2026-04-30T11:10:14.058Z</time></trkpt><trkpt lat="41.5749245" lon="2.8771626"><ele>0.0</ele><time>2026-04-30T11:10:15.059Z</time></trkpt><trkpt lat="41.574968" lon="2.8772677"><ele>0.0</ele><time>2026-04-30T11:10:16.059Z</time></trkpt><trkpt lat="41.5750158" lon="2.8773687"><ele>0.0</ele><time>2026-04-30T11:10:17.058Z</time></trkpt><trkpt lat="41.5750584" lon="2.8774685"><ele>0.0</ele><time>2026-04-30T11:10:18.059Z</time></trkpt><trkpt lat="41.5750955" lon="2.877569"><ele>0.0</ele><time>2026-04-30T11:10:19.057Z</time></trkpt><trkpt lat="41.5751319" lon="2.8776702"><ele>0.0</ele><time>2026-04-30T11:10:20.057Z</time></trkpt><trkpt lat="41.5752097" lon="2.8778777"><ele>0.0</ele><time>2026-04-30T11:10:22.057Z</time></trkpt><trkpt lat="41.5752517" lon="2.8779828"><ele>0.0</ele><time>2026-04-30T11:10:23.058Z</time></trkpt><trkpt lat="41.5752945" lon="2.8780909"><ele>0.0</ele><time>2026-04-30T11:10:24.057Z</time></trkpt><trkpt lat="41.5753381" lon="2.8781962"><ele>0.0</ele><time>2026-04-30T11:10:25.058Z</time></trkpt><trkpt lat="41.5753788" lon="2.8782987"><ele>0.0</ele><time>2026-04-30T11:10:26.058Z</time></trkpt><trkpt lat="41.5754172" lon="2.8783988"><ele>0.0</ele><time>2026-04-30T11:10:27.058Z</time></trkpt><trkpt lat="41.5754541" lon="2.8784988"><ele>0.0</ele><time>2026-04-30T11:10:28.057Z</time></trkpt><trkpt lat="41.575495" lon="2.8785997"><ele>0.0</ele><time>2026-04-30T11:10:29.057Z</time></trkpt><trkpt lat="41.5755368" lon="2.8787045"><ele>0.0</ele><time>2026-04-30T11:10:30.057Z</time></trkpt><trkpt lat="41.5755753" lon="2.87881"><ele>0.0</ele><time>2026-04-30T11:10:31.057Z</time></trkpt><trkpt lat="41.5756149" lon="2.8789132"><ele>0.0</ele><time>2026-04-30T11:10:32.057Z</time></trkpt><trkpt lat="41.5756564" lon="2.8790176"><ele>0.0</ele><time>2026-04-30T11:10:33.057Z</time></trkpt><trkpt lat="41.5756982" lon="2.8791244"><ele>0.0</ele><time>2026-04-30T11:10:34.058Z</time></trkpt><trkpt lat="41.5757415" lon="2.8792269"><ele>0.0</ele><time>2026-04-30T11:10:35.057Z</time></trkpt><trkpt lat="41.5757782" lon="2.8793279"><ele>0.0</ele><time>2026-04-30T11:10:36.058Z</time></trkpt><trkpt lat="41.5758152" lon="2.8794303"><ele>0.0</ele><time>2026-04-30T11:10:37.057Z</time></trkpt><trkpt lat="41.5758534" lon="2.8795318"><ele>0.0</ele><time>2026-04-30T11:10:38.057Z</time></trkpt><trkpt lat="41.575895" lon="2.879636"><ele>0.0</ele><time>2026-04-30T11:10:39.057Z</time></trkpt><trkpt lat="41.5759335" lon="2.8797391"><ele>0.0</ele><time>2026-04-30T11:10:40.057Z</time></trkpt><trkpt lat="41.5759705" lon="2.879839"><ele>0.0</ele><time>2026-04-30T11:10:41.057Z</time></trkpt><trkpt lat="41.576047" lon="2.8800417"><ele>0.0</ele><time>2026-04-30T11:10:43.057Z</time></trkpt><trkpt lat="41.5760883" lon="2.8801431"><ele>0.0</ele><time>2026-04-30T11:10:44.058Z</time></trkpt><trkpt lat="41.5761284" lon="2.8802479"><ele>0.0</ele><time>2026-04-30T11:10:45.058Z</time></trkpt><trkpt lat="41.5761654" lon="2.8803517"><ele>0.0</ele><time>2026-04-30T11:10:46.057Z</time></trkpt><trkpt lat="41.5762033" lon="2.8804551"><ele>0.0</ele><time>2026-04-30T11:10:47.058Z</time></trkpt><trkpt lat="41.57624" lon="2.88056"><ele>0.0</ele><time>2026-04-30T11:10:48.058Z</time></trkpt><trkpt lat="41.5762801" lon="2.880666"><ele>0.0</ele><time>2026-04-30T11:10:49.057Z</time></trkpt><trkpt lat="41.5763197" lon="2.8807742"><ele>0.0</ele><time>2026-04-30T11:10:50.058Z</time></trkpt><trkpt lat="41.5763586" lon="2.88088"><ele>0.0</ele><time>2026-04-30T11:10:51.057Z</time></trkpt><trkpt lat="41.5763958" lon="2.8809794"><ele>0.0</ele><time>2026-04-30T11:10:52.057Z</time></trkpt><trkpt lat="41.576437" lon="2.8810818"><ele>0.0</ele><time>2026-04-30T11:10:53.057Z</time></trkpt><trkpt lat="41.5764797" lon="2.8811865"><ele>0.0</ele><time>2026-04-30T11:10:54.057Z</time></trkpt><trkpt lat="41.5765201" lon="2.8812899"><ele>0.0</ele><time>2026-04-30T11:10:55.058Z</time></trkpt><trkpt lat="41.5765618" lon="2.8813926"><ele>0.0</ele><time>2026-04-30T11:10:56.058Z</time></trkpt><trkpt lat="41.5766002" lon="2.8814965"><ele>0.0</ele><time>2026-04-30T11:10:57.058Z</time></trkpt><trkpt lat="41.5766383" lon="2.8816003"><ele>0.0</ele><time>2026-04-30T11:10:58.057Z</time></trkpt><trkpt lat="41.5766766" lon="2.8817063"><ele>0.0</ele><time>2026-04-30T11:10:59.057Z</time></trkpt><trkpt lat="41.5767183" lon="2.8818096"><ele>0.0</ele><time>2026-04-30T11:11:00.057Z</time></trkpt><trkpt lat="41.576757" lon="2.8819117"><ele>0.0</ele><time>2026-04-30T11:11:01.057Z</time></trkpt><trkpt lat="41.576798" lon="2.8820192"><ele>0.0</ele><time>2026-04-30T11:11:02.058Z</time></trkpt><trkpt lat="41.5768719" lon="2.8822329"><ele>0.0</ele><time>2026-04-30T11:11:04.057Z</time></trkpt><trkpt lat="41.5769086" lon="2.8823339"><ele>0.0</ele><time>2026-04-30T11:11:05.057Z</time></trkpt><trkpt lat="41.5769452" lon="2.8824326"><ele>0.0</ele><time>2026-04-30T11:11:06.058Z</time></trkpt><trkpt lat="41.5769851" lon="2.8825336"><ele>0.0</ele><time>2026-04-30T11:11:07.058Z</time></trkpt><trkpt lat="41.5770235" lon="2.8826387"><ele>0.0</ele><time>2026-04-30T11:11:08.058Z</time></trkpt><trkpt lat="41.5770618" lon="2.8827387"><ele>0.0</ele><time>2026-04-30T11:11:09.058Z</time></trkpt><trkpt lat="41.5770972" lon="2.8828399"><ele>0.0</ele><time>2026-04-30T11:11:10.058Z</time></trkpt><trkpt lat="41.5771307" lon="2.8829432"><ele>0.0</ele><time>2026-04-30T11:11:11.058Z</time></trkpt><trkpt lat="41.5771655" lon="2.8830467"><ele>0.0</ele><time>2026-04-30T11:11:12.057Z</time></trkpt><trkpt lat="41.5772004" lon="2.8831547"><ele>0.0</ele><time>2026-04-30T11:11:13.058Z</time></trkpt><trkpt lat="41.5772385" lon="2.8832582"><ele>0.0</ele><time>2026-04-30T11:11:14.058Z</time></trkpt><trkpt lat="41.577277" lon="2.883364"><ele>0.0</ele><time>2026-04-30T11:11:15.057Z</time></trkpt><trkpt lat="41.5773171" lon="2.8834694"><ele>0.0</ele><time>2026-04-30T11:11:16.058Z</time></trkpt><trkpt lat="41.5773571" lon="2.883573"><ele>0.0</ele><time>2026-04-30T11:11:17.058Z</time></trkpt><trkpt lat="41.577395" lon="2.8836823"><ele>0.0</ele><time>2026-04-30T11:11:18.057Z</time></trkpt><trkpt lat="41.5774324" lon="2.8837865"><ele>0.0</ele><time>2026-04-30T11:11:19.058Z</time></trkpt><trkpt lat="41.5774689" lon="2.8838901"><ele>0.0</ele><time>2026-04-30T11:11:20.057Z</time></trkpt><trkpt lat="41.5775069" lon="2.8839948"><ele>0.0</ele><time>2026-04-30T11:11:21.057Z</time></trkpt><trkpt lat="41.5775423" lon="2.8841"><ele>0.0</ele><time>2026-04-30T11:11:22.057Z</time></trkpt><trkpt lat="41.5775754" lon="2.8842003"><ele>0.0</ele><time>2026-04-30T11:11:23.058Z</time></trkpt><trkpt lat="41.5776501" lon="2.884414"><ele>0.0</ele><time>2026-04-30T11:11:25.057Z</time></trkpt><trkpt lat="41.5776898" lon="2.8845255"><ele>0.0</ele><time>2026-04-30T11:11:26.058Z</time></trkpt><trkpt lat="41.5777255" lon="2.8846273"><ele>0.0</ele><time>2026-04-30T11:11:27.058Z</time></trkpt><trkpt lat="41.5777633" lon="2.8847316"><ele>0.0</ele><time>2026-04-30T11:11:28.057Z</time></trkpt><trkpt lat="41.5778015" lon="2.8848382"><ele>0.0</ele><time>2026-04-30T11:11:29.058Z</time></trkpt><trkpt lat="41.5778402" lon="2.8849403"><ele>0.0</ele><time>2026-04-30T11:11:30.057Z</time></trkpt><trkpt lat="41.5778772" lon="2.8850392"><ele>0.0</ele><time>2026-04-30T11:11:31.057Z</time></trkpt><trkpt lat="41.5779167" lon="2.8851447"><ele>0.0</ele><time>2026-04-30T11:11:32.057Z</time></trkpt><trkpt lat="41.5779535" lon="2.8852499"><ele>0.0</ele><time>2026-04-30T11:11:33.057Z</time></trkpt><trkpt lat="41.5779942" lon="2.8853647"><ele>0.0</ele><time>2026-04-30T11:11:34.058Z</time></trkpt><trkpt lat="41.57803" lon="2.8854729"><ele>0.0</ele><time>2026-04-30T11:11:35.058Z</time></trkpt><trkpt lat="41.578068" lon="2.885577"><ele>0.0</ele><time>2026-04-30T11:11:36.058Z</time></trkpt><trkpt lat="41.5781035" lon="2.8856803"><ele>0.0</ele><time>2026-04-30T11:11:37.057Z</time></trkpt><trkpt lat="41.5781433" lon="2.8857792"><ele>0.0</ele><time>2026-04-30T11:11:38.058Z</time></trkpt><trkpt lat="41.5781835" lon="2.8858785"><ele>0.0</ele><time>2026-04-30T11:11:39.058Z</time></trkpt><trkpt lat="41.5782248" lon="2.88598"><ele>0.0</ele><time>2026-04-30T11:11:40.057Z</time></trkpt><trkpt lat="41.5782636" lon="2.8860794"><ele>0.0</ele><time>2026-04-30T11:11:41.058Z</time></trkpt><trkpt lat="41.5783022" lon="2.8861805"><ele>0.0</ele><time>2026-04-30T11:11:42.057Z</time></trkpt><trkpt lat="41.5783387" lon="2.886279"><ele>0.0</ele><time>2026-04-30T11:11:43.057Z</time></trkpt><trkpt lat="41.5783784" lon="2.8863848"><ele>0.0</ele><time>2026-04-30T11:11:44.058Z</time></trkpt><trkpt lat="41.5784601" lon="2.8865881"><ele>0.0</ele><time>2026-04-30T11:11:46.057Z</time></trkpt><trkpt lat="41.5785026" lon="2.8867005"><ele>0.0</ele><time>2026-04-30T11:11:47.057Z</time></trkpt><trkpt lat="41.5785446" lon="2.8868045"><ele>0.0</ele><time>2026-04-30T11:11:48.057Z</time></trkpt><trkpt lat="41.5785834" lon="2.8869054"><ele>0.0</ele><time>2026-04-30T11:11:49.057Z</time></trkpt><trkpt lat="41.5786234" lon="2.8870054"><ele>0.0</ele><time>2026-04-30T11:11:50.058Z</time></trkpt><trkpt lat="41.5786664" lon="2.8871064"><ele>0.0</ele><time>2026-04-30T11:11:51.057Z</time></trkpt><trkpt lat="41.5787184" lon="2.8872024"><ele>0.0</ele><time>2026-04-30T11:11:52.058Z</time></trkpt><trkpt lat="41.5787628" lon="2.8873076"><ele>0.0</ele><time>2026-04-30T11:11:53.058Z</time></trkpt><trkpt lat="41.5788051" lon="2.8874128"><ele>0.0</ele><time>2026-04-30T11:11:54.057Z</time></trkpt><trkpt lat="41.5788479" lon="2.8875123"><ele>0.0</ele><time>2026-04-30T11:11:55.058Z</time></trkpt><trkpt lat="41.5788915" lon="2.8876192"><ele>0.0</ele><time>2026-04-30T11:11:56.058Z</time></trkpt><trkpt lat="41.5789305" lon="2.8877199"><ele>0.0</ele><time>2026-04-30T11:11:57.057Z</time></trkpt><trkpt lat="41.5789716" lon="2.8878244"><ele>0.0</ele><time>2026-04-30T11:11:58.057Z</time></trkpt><trkpt lat="41.5790117" lon="2.8879265"><ele>0.0</ele><time>2026-04-30T11:11:59.057Z</time></trkpt><trkpt lat="41.5790517" lon="2.8880325"><ele>0.0</ele><time>2026-04-30T11:12:00.058Z</time></trkpt><trkpt lat="41.5790945" lon="2.8881423"><ele>0.0</ele><time>2026-04-30T11:12:01.058Z</time></trkpt><trkpt lat="41.5791324" lon="2.888242"><ele>0.0</ele><time>2026-04-30T11:12:02.058Z</time></trkpt><trkpt lat="41.5791706" lon="2.8883437"><ele>0.0</ele><time>2026-04-30T11:12:03.057Z</time></trkpt><trkpt lat="41.5792046" lon="2.8884438"><ele>0.0</ele><time>2026-04-30T11:12:04.057Z</time></trkpt><trkpt lat="41.5792709" lon="2.8886557"><ele>0.0</ele><time>2026-04-30T11:12:06.057Z</time></trkpt><trkpt lat="41.5793052" lon="2.888763"><ele>0.0</ele><time>2026-04-30T11:12:07.057Z</time></trkpt><trkpt lat="41.5793402" lon="2.8888716"><ele>0.0</ele><time>2026-04-30T11:12:08.057Z</time></trkpt><trkpt lat="41.5793751" lon="2.888981"><ele>0.0</ele><time>2026-04-30T11:12:09.058Z</time></trkpt><trkpt lat="41.5794115" lon="2.8890895"><ele>0.0</ele><time>2026-04-30T11:12:10.057Z</time></trkpt><trkpt lat="41.5794483" lon="2.889193"><ele>0.0</ele><time>2026-04-30T11:12:11.057Z</time></trkpt><trkpt lat="41.5794848" lon="2.8892963"><ele>0.0</ele><time>2026-04-30T11:12:12.057Z</time></trkpt><trkpt lat="41.5795218" lon="2.8893984"><ele>0.0</ele><time>2026-04-30T11:12:13.058Z</time></trkpt><trkpt lat="41.5795616" lon="2.8895003"><ele>0.0</ele><time>2026-04-30T11:12:14.057Z</time></trkpt><trkpt lat="41.5796" lon="2.8896035"><ele>0.0</ele><time>2026-04-30T11:12:15.057Z</time></trkpt><trkpt lat="41.5796399" lon="2.8897052"><ele>0.0</ele><time>2026-04-30T11:12:16.058Z</time></trkpt><trkpt lat="41.5796769" lon="2.8898042"><ele>0.0</ele><time>2026-04-30T11:12:17.057Z</time></trkpt><trkpt lat="41.5797168" lon="2.8899066"><ele>0.0</ele><time>2026-04-30T11:12:18.058Z</time></trkpt><trkpt lat="41.5797566" lon="2.8900129"><ele>0.0</ele><time>2026-04-30T11:12:19.057Z</time></trkpt><trkpt lat="41.5797938" lon="2.8901202"><ele>0.0</ele><time>2026-04-30T11:12:20.058Z</time></trkpt><trkpt lat="41.5798319" lon="2.8902248"><ele>0.0</ele><time>2026-04-30T11:12:21.058Z</time></trkpt><trkpt lat="41.579873" lon="2.8903298"><ele>0.0</ele><time>2026-04-30T11:12:22.057Z</time></trkpt><trkpt lat="41.5799148" lon="2.8904361"><ele>0.0</ele><time>2026-04-30T11:12:23.057Z</time></trkpt><trkpt lat="41.5799565" lon="2.8905446"><ele>0.0</ele><time>2026-04-30T11:12:24.058Z</time></trkpt><trkpt lat="41.5799952" lon="2.8906499"><ele>0.0</ele><time>2026-04-30T11:12:25.058Z</time></trkpt><trkpt lat="41.5800654" lon="2.8908569"><ele>0.0</ele><time>2026-04-30T11:12:27.058Z</time></trkpt><trkpt lat="41.580102" lon="2.8909589"><ele>0.0</ele><time>2026-04-30T11:12:28.057Z</time></trkpt><trkpt lat="41.5801402" lon="2.8910617"><ele>0.0</ele><time>2026-04-30T11:12:29.058Z</time></trkpt><trkpt lat="41.5801768" lon="2.8911592"><ele>0.0</ele><time>2026-04-30T11:12:30.058Z</time></trkpt><trkpt lat="41.5802165" lon="2.8912634"><ele>0.0</ele><time>2026-04-30T11:12:31.058Z</time></trkpt><trkpt lat="41.5802548" lon="2.8913665"><ele>0.0</ele><time>2026-04-30T11:12:32.057Z</time></trkpt><trkpt lat="41.580295" lon="2.8914682"><ele>0.0</ele><time>2026-04-30T11:12:33.057Z</time></trkpt><trkpt lat="41.5803367" lon="2.8915698"><ele>0.0</ele><time>2026-04-30T11:12:34.057Z</time></trkpt><trkpt lat="41.5803757" lon="2.8916789"><ele>0.0</ele><time>2026-04-30T11:12:35.057Z</time></trkpt><trkpt lat="41.5804155" lon="2.891783"><ele>0.0</ele><time>2026-04-30T11:12:36.057Z</time></trkpt><trkpt lat="41.5804565" lon="2.8918876"><ele>0.0</ele><time>2026-04-30T11:12:37.058Z</time></trkpt><trkpt lat="41.5804967" lon="2.8919912"><ele>0.0</ele><time>2026-04-30T11:12:38.058Z</time></trkpt><trkpt lat="41.5805353" lon="2.8920931"><ele>0.0</ele><time>2026-04-30T11:12:39.057Z</time></trkpt><trkpt lat="41.5805862" lon="2.8921924"><ele>0.0</ele><time>2026-04-30T11:12:40.058Z</time></trkpt><trkpt lat="41.5806298" lon="2.8922951"><ele>0.0</ele><time>2026-04-30T11:12:41.057Z</time></trkpt><trkpt lat="41.58067" lon="2.8923959"><ele>0.0</ele><time>2026-04-30T11:12:42.057Z</time></trkpt><trkpt lat="41.5807029" lon="2.8924943"><ele>0.0</ele><time>2026-04-30T11:12:43.058Z</time></trkpt><trkpt lat="41.5807363" lon="2.8925952"><ele>0.0</ele><time>2026-04-30T11:12:44.058Z</time></trkpt><trkpt lat="41.5807724" lon="2.8926986"><ele>0.0</ele><time>2026-04-30T11:12:45.057Z</time></trkpt><trkpt lat="41.5808143" lon="2.8928024"><ele>0.0</ele><time>2026-04-30T11:12:46.057Z</time></trkpt><trkpt lat="41.5809073" lon="2.8930053"><ele>0.0</ele><time>2026-04-30T11:12:48.058Z</time></trkpt><trkpt lat="41.5809527" lon="2.8931095"><ele>0.0</ele><time>2026-04-30T11:12:49.057Z</time></trkpt><trkpt lat="41.5809991" lon="2.893212"><ele>0.0</ele><time>2026-04-30T11:12:50.058Z</time></trkpt><trkpt lat="41.5810444" lon="2.8933162"><ele>0.0</ele><time>2026-04-30T11:12:51.057Z</time></trkpt><trkpt lat="41.5810892" lon="2.8934212"><ele>0.0</ele><time>2026-04-30T11:12:52.057Z</time></trkpt><trkpt lat="41.5811212" lon="2.8935232"><ele>0.0</ele><time>2026-04-30T11:12:53.057Z</time></trkpt><trkpt lat="41.5811575" lon="2.8936222"><ele>0.0</ele><time>2026-04-30T11:12:54.057Z</time></trkpt><trkpt lat="41.5811927" lon="2.8937263"><ele>0.0</ele><time>2026-04-30T11:12:55.057Z</time></trkpt><trkpt lat="41.5812292" lon="2.8938342"><ele>0.0</ele><time>2026-04-30T11:12:56.058Z</time></trkpt><trkpt lat="41.581266" lon="2.8939381"><ele>0.0</ele><time>2026-04-30T11:12:57.057Z</time></trkpt><trkpt lat="41.5813039" lon="2.8940388"><ele>0.0</ele><time>2026-04-30T11:12:58.058Z</time></trkpt><trkpt lat="41.5813422" lon="2.8941381"><ele>0.0</ele><time>2026-04-30T11:12:59.058Z</time></trkpt><trkpt lat="41.5813822" lon="2.8942417"><ele>0.0</ele><time>2026-04-30T11:13:00.058Z</time></trkpt><trkpt lat="41.5814188" lon="2.8943421"><ele>0.0</ele><time>2026-04-30T11:13:01.058Z</time></trkpt><trkpt lat="41.5814553" lon="2.8944466"><ele>0.0</ele><time>2026-04-30T11:13:02.057Z</time></trkpt><trkpt lat="41.5814967" lon="2.8945515"><ele>0.0</ele><time>2026-04-30T11:13:03.058Z</time></trkpt><trkpt lat="41.581537" lon="2.8946553"><ele>0.0</ele><time>2026-04-30T11:13:04.057Z</time></trkpt><trkpt lat="41.5815798" lon="2.8947594"><ele>0.0</ele><time>2026-04-30T11:13:05.058Z</time></trkpt><trkpt lat="41.581663" lon="2.8949729"><ele>0.0</ele><time>2026-04-30T11:13:07.058Z</time></trkpt><trkpt lat="41.5817512" lon="2.8951776"><ele>0.0</ele><time>2026-04-30T11:13:09.057Z</time></trkpt><trkpt lat="41.581795" lon="2.8952832"><ele>0.0</ele><time>2026-04-30T11:13:10.057Z</time></trkpt><trkpt lat="41.5818363" lon="2.8953893"><ele>0.0</ele><time>2026-04-30T11:13:11.058Z</time></trkpt><trkpt lat="41.5818737" lon="2.895492"><ele>0.0</ele><time>2026-04-30T11:13:12.057Z</time></trkpt><trkpt lat="41.5819103" lon="2.8955925"><ele>0.0</ele><time>2026-04-30T11:13:13.058Z</time></trkpt><trkpt lat="41.5819482" lon="2.8957012"><ele>0.0</ele><time>2026-04-30T11:13:14.058Z</time></trkpt><trkpt lat="41.5819867" lon="2.8958047"><ele>0.0</ele><time>2026-04-30T11:13:15.057Z</time></trkpt><trkpt lat="41.5820279" lon="2.8959109"><ele>0.0</ele><time>2026-04-30T11:13:16.057Z</time></trkpt><trkpt lat="41.5820698" lon="2.8960148"><ele>0.0</ele><time>2026-04-30T11:13:17.057Z</time></trkpt><trkpt lat="41.5821118" lon="2.8961212"><ele>0.0</ele><time>2026-04-30T11:13:18.058Z</time></trkpt><trkpt lat="41.5821519" lon="2.8962249"><ele>0.0</ele><time>2026-04-30T11:13:19.058Z</time></trkpt><trkpt lat="41.5821858" lon="2.8963314"><ele>0.0</ele><time>2026-04-30T11:13:20.057Z</time></trkpt><trkpt lat="41.5822222" lon="2.8964335"><ele>0.0</ele><time>2026-04-30T11:13:21.058Z</time></trkpt><trkpt lat="41.5822601" lon="2.8965427"><ele>0.0</ele><time>2026-04-30T11:13:22.057Z</time></trkpt><trkpt lat="41.5822998" lon="2.8966469"><ele>0.0</ele><time>2026-04-30T11:13:23.057Z</time></trkpt><trkpt lat="41.5823417" lon="2.8967497"><ele>0.0</ele><time>2026-04-30T11:13:24.057Z</time></trkpt><trkpt lat="41.5823787" lon="2.8968475"><ele>0.0</ele><time>2026-04-30T11:13:25.058Z</time></trkpt><trkpt lat="41.5824137" lon="2.8969463"><ele>0.0</ele><time>2026-04-30T11:13:26.058Z</time></trkpt><trkpt lat="41.5824504" lon="2.8970485"><ele>0.0</ele><time>2026-04-30T11:13:27.058Z</time></trkpt><trkpt lat="41.5824839" lon="2.8971519"><ele>0.0</ele><time>2026-04-30T11:13:28.057Z</time></trkpt><trkpt lat="41.5825618" lon="2.897362"><ele>0.0</ele><time>2026-04-30T11:13:30.057Z</time></trkpt><trkpt lat="41.5825985" lon="2.897468"><ele>0.0</ele><time>2026-04-30T11:13:31.057Z</time></trkpt><trkpt lat="41.5826354" lon="2.8975736"><ele>0.0</ele><time>2026-04-30T11:13:32.058Z</time></trkpt><trkpt lat="41.5826703" lon="2.897677"><ele>0.0</ele><time>2026-04-30T11:13:33.058Z</time></trkpt><trkpt lat="41.5827082" lon="2.897787"><ele>0.0</ele><time>2026-04-30T11:13:34.058Z</time></trkpt><trkpt lat="41.5827453" lon="2.8978962"><ele>0.0</ele><time>2026-04-30T11:13:35.058Z</time></trkpt><trkpt lat="41.5827835" lon="2.8979999"><ele>0.0</ele><time>2026-04-30T11:13:36.057Z</time></trkpt><trkpt lat="41.5828189" lon="2.8981002"><ele>0.0</ele><time>2026-04-30T11:13:37.057Z</time></trkpt><trkpt lat="41.5828952" lon="2.8983093"><ele>0.0</ele><time>2026-04-30T11:13:39.058Z</time></trkpt><trkpt lat="41.5829379" lon="2.8984101"><ele>0.0</ele><time>2026-04-30T11:13:40.058Z</time></trkpt><trkpt lat="41.5829813" lon="2.8985127"><ele>0.0</ele><time>2026-04-30T11:13:41.058Z</time></trkpt><trkpt lat="41.5830215" lon="2.8986164"><ele>0.0</ele><time>2026-04-30T11:13:42.058Z</time></trkpt><trkpt lat="41.58306" lon="2.8987169"><ele>0.0</ele><time>2026-04-30T11:13:43.058Z</time></trkpt><trkpt lat="41.5830969" lon="2.8988174"><ele>0.0</ele><time>2026-04-30T11:13:44.058Z</time></trkpt><trkpt lat="41.5831339" lon="2.8989218"><ele>0.0</ele><time>2026-04-30T11:13:45.058Z</time></trkpt><trkpt lat="41.5831704" lon="2.8990268"><ele>0.0</ele><time>2026-04-30T11:13:46.057Z</time></trkpt><trkpt lat="41.5832099" lon="2.8991314"><ele>0.0</ele><time>2026-04-30T11:13:47.057Z</time></trkpt><trkpt lat="41.583256" lon="2.8992362"><ele>0.0</ele><time>2026-04-30T11:13:48.057Z</time></trkpt><trkpt lat="41.5833" lon="2.8993411"><ele>0.0</ele><time>2026-04-30T11:13:49.057Z</time></trkpt><trkpt lat="41.5833817" lon="2.8995471"><ele>0.0</ele><time>2026-04-30T11:13:51.057Z</time></trkpt><trkpt lat="41.5834235" lon="2.8996453"><ele>0.0</ele><time>2026-04-30T11:13:52.057Z</time></trkpt><trkpt lat="41.5834619" lon="2.8997456"><ele>0.0</ele><time>2026-04-30T11:13:53.057Z</time></trkpt><trkpt lat="41.5835032" lon="2.8998468"><ele>0.0</ele><time>2026-04-30T11:13:54.058Z</time></trkpt><trkpt lat="41.5835448" lon="2.8999455"><ele>0.0</ele><time>2026-04-30T11:13:55.057Z</time></trkpt><trkpt lat="41.5835868" lon="2.900042"><ele>0.0</ele><time>2026-04-30T11:13:56.058Z</time></trkpt><trkpt lat="41.5836329" lon="2.9001443"><ele>0.0</ele><time>2026-04-30T11:13:57.058Z</time></trkpt><trkpt lat="41.5836783" lon="2.9002422"><ele>0.0</ele><time>2026-04-30T11:13:58.058Z</time></trkpt><trkpt lat="41.5837175" lon="2.9003432"><ele>0.0</ele><time>2026-04-30T11:13:59.058Z</time></trkpt><trkpt lat="41.5837614" lon="2.9004506"><ele>0.0</ele><time>2026-04-30T11:14:00.057Z</time></trkpt><trkpt lat="41.5838004" lon="2.9005487"><ele>0.0</ele><time>2026-04-30T11:14:01.058Z</time></trkpt><trkpt lat="41.5838427" lon="2.9006573"><ele>0.0</ele><time>2026-04-30T11:14:02.058Z</time></trkpt><trkpt lat="41.5838814" lon="2.900762"><ele>0.0</ele><time>2026-04-30T11:14:03.058Z</time></trkpt><trkpt lat="41.5839213" lon="2.9008679"><ele>0.0</ele><time>2026-04-30T11:14:04.058Z</time></trkpt><trkpt lat="41.5839619" lon="2.9009689"><ele>0.0</ele><time>2026-04-30T11:14:05.058Z</time></trkpt><trkpt lat="41.5840051" lon="2.9010687"><ele>0.0</ele><time>2026-04-30T11:14:06.057Z</time></trkpt><trkpt lat="41.5840465" lon="2.9011728"><ele>0.0</ele><time>2026-04-30T11:14:07.058Z</time></trkpt><trkpt lat="41.5840885" lon="2.9012747"><ele>0.0</ele><time>2026-04-30T11:14:08.057Z</time></trkpt><trkpt lat="41.584172" lon="2.9014832"><ele>0.0</ele><time>2026-04-30T11:14:10.057Z</time></trkpt><trkpt lat="41.5842521" lon="2.9016815"><ele>0.0</ele><time>2026-04-30T11:14:12.057Z</time></trkpt><trkpt lat="41.5842921" lon="2.9017869"><ele>0.0</ele><time>2026-04-30T11:14:13.058Z</time></trkpt><trkpt lat="41.5843258" lon="2.9018916"><ele>0.0</ele><time>2026-04-30T11:14:14.058Z</time></trkpt><trkpt lat="41.5843625" lon="2.9019935"><ele>0.0</ele><time>2026-04-30T11:14:15.057Z</time></trkpt><trkpt lat="41.5843956" lon="2.902094"><ele>0.0</ele><time>2026-04-30T11:14:16.057Z</time></trkpt><trkpt lat="41.5844349" lon="2.9021979"><ele>0.0</ele><time>2026-04-30T11:14:17.058Z</time></trkpt><trkpt lat="41.5844723" lon="2.9023086"><ele>0.0</ele><time>2026-04-30T11:14:18.058Z</time></trkpt><trkpt lat="41.5845133" lon="2.9024159"><ele>0.0</ele><time>2026-04-30T11:14:19.057Z</time></trkpt><trkpt lat="41.5845537" lon="2.9025185"><ele>0.0</ele><time>2026-04-30T11:14:20.058Z</time></trkpt><trkpt lat="41.5845918" lon="2.9026247"><ele>0.0</ele><time>2026-04-30T11:14:21.057Z</time></trkpt><trkpt lat="41.5846303" lon="2.9027244"><ele>0.0</ele><time>2026-04-30T11:14:22.058Z</time></trkpt><trkpt lat="41.5846699" lon="2.9028254"><ele>0.0</ele><time>2026-04-30T11:14:23.058Z</time></trkpt><trkpt lat="41.5847087" lon="2.902924"><ele>0.0</ele><time>2026-04-30T11:14:24.058Z</time></trkpt><trkpt lat="41.5847436" lon="2.9030284"><ele>0.0</ele><time>2026-04-30T11:14:25.057Z</time></trkpt><trkpt lat="41.5847828" lon="2.9031333"><ele>0.0</ele><time>2026-04-30T11:14:26.058Z</time></trkpt><trkpt lat="41.5848243" lon="2.9032353"><ele>0.0</ele><time>2026-04-30T11:14:27.058Z</time></trkpt><trkpt lat="41.5848606" lon="2.9033356"><ele>0.0</ele><time>2026-04-30T11:14:28.057Z</time></trkpt><trkpt lat="41.5849" lon="2.9034441"><ele>0.0</ele><time>2026-04-30T11:14:29.057Z</time></trkpt><trkpt lat="41.5849417" lon="2.9035525"><ele>0.0</ele><time>2026-04-30T11:14:30.058Z</time></trkpt><trkpt lat="41.5849787" lon="2.9036594"><ele>0.0</ele><time>2026-04-30T11:14:31.057Z</time></trkpt><trkpt lat="41.585052" lon="2.9038731"><ele>0.0</ele><time>2026-04-30T11:14:33.057Z</time></trkpt><trkpt lat="41.5850858" lon="2.9039754"><ele>0.0</ele><time>2026-04-30T11:14:34.058Z</time></trkpt><trkpt lat="41.5851147" lon="2.9040858"><ele>0.0</ele><time>2026-04-30T11:14:35.057Z</time></trkpt><trkpt lat="41.5851499" lon="2.9041928"><ele>0.0</ele><time>2026-04-30T11:14:36.057Z</time></trkpt><trkpt lat="41.5851833" lon="2.9042899"><ele>0.0</ele><time>2026-04-30T11:14:37.057Z</time></trkpt><trkpt lat="41.5852167" lon="2.9043907"><ele>0.0</ele><time>2026-04-30T11:14:38.057Z</time></trkpt><trkpt lat="41.5852555" lon="2.9044897"><ele>0.0</ele><time>2026-04-30T11:14:39.058Z</time></trkpt><trkpt lat="41.5852882" lon="2.9045938"><ele>0.0</ele><time>2026-04-30T11:14:40.057Z</time></trkpt><trkpt lat="41.5853244" lon="2.9046997"><ele>0.0</ele><time>2026-04-30T11:14:41.057Z</time></trkpt><trkpt lat="41.5853579" lon="2.9048068"><ele>0.0</ele><time>2026-04-30T11:14:42.057Z</time></trkpt><trkpt lat="41.5853962" lon="2.9049106"><ele>0.0</ele><time>2026-04-30T11:14:43.057Z</time></trkpt><trkpt lat="41.5854348" lon="2.9050134"><ele>0.0</ele><time>2026-04-30T11:14:44.058Z</time></trkpt><trkpt lat="41.5854745" lon="2.9051157"><ele>0.0</ele><time>2026-04-30T11:14:45.057Z</time></trkpt><trkpt lat="41.5855163" lon="2.90522"><ele>0.0</ele><time>2026-04-30T11:14:46.057Z</time></trkpt><trkpt lat="41.5855547" lon="2.9053265"><ele>0.0</ele><time>2026-04-30T11:14:47.058Z</time></trkpt><trkpt lat="41.5856039" lon="2.9054219"><ele>0.0</ele><time>2026-04-30T11:14:48.057Z</time></trkpt><trkpt lat="41.5856443" lon="2.9055267"><ele>0.0</ele><time>2026-04-30T11:14:49.056Z</time></trkpt><trkpt lat="41.5856817" lon="2.90563"><ele>0.0</ele><time>2026-04-30T11:14:50.056Z</time></trkpt><trkpt lat="41.5857156" lon="2.9057322"><ele>0.0</ele><time>2026-04-30T11:14:51.057Z</time></trkpt><trkpt lat="41.5857549" lon="2.9058364"><ele>0.0</ele><time>2026-04-30T11:14:52.057Z</time></trkpt><trkpt lat="41.5858302" lon="2.9060483"><ele>0.0</ele><time>2026-04-30T11:14:54.057Z</time></trkpt><trkpt lat="41.585868" lon="2.906156"><ele>0.0</ele><time>2026-04-30T11:14:55.057Z</time></trkpt><trkpt lat="41.5859096" lon="2.90626"><ele>0.0</ele><time>2026-04-30T11:14:56.056Z</time></trkpt><trkpt lat="41.5859497" lon="2.9063649"><ele>0.0</ele><time>2026-04-30T11:14:57.056Z</time></trkpt><trkpt lat="41.5859899" lon="2.9064683"><ele>0.0</ele><time>2026-04-30T11:14:58.057Z</time></trkpt><trkpt lat="41.5860346" lon="2.9065715"><ele>0.0</ele><time>2026-04-30T11:14:59.056Z</time></trkpt><trkpt lat="41.5860794" lon="2.9066752"><ele>0.0</ele><time>2026-04-30T11:15:00.056Z</time></trkpt><trkpt lat="41.5861214" lon="2.9067796"><ele>0.0</ele><time>2026-04-30T11:15:01.057Z</time></trkpt><trkpt lat="41.5861651" lon="2.9068761"><ele>0.0</ele><time>2026-04-30T11:15:02.056Z</time></trkpt><trkpt lat="41.5862052" lon="2.9069784"><ele>0.0</ele><time>2026-04-30T11:15:03.056Z</time></trkpt><trkpt lat="41.5862446" lon="2.907076"><ele>0.0</ele><time>2026-04-30T11:15:04.056Z</time></trkpt><trkpt lat="41.5862833" lon="2.9071787"><ele>0.0</ele><time>2026-04-30T11:15:05.056Z</time></trkpt><trkpt lat="41.5863229" lon="2.9072789"><ele>0.0</ele><time>2026-04-30T11:15:06.057Z</time></trkpt><trkpt lat="41.5863613" lon="2.9073832"><ele>0.0</ele><time>2026-04-30T11:15:07.057Z</time></trkpt><trkpt lat="41.5864033" lon="2.9074898"><ele>0.0</ele><time>2026-04-30T11:15:08.056Z</time></trkpt><trkpt lat="41.5864381" lon="2.9075947"><ele>0.0</ele><time>2026-04-30T11:15:09.056Z</time></trkpt><trkpt lat="41.586477" lon="2.9076967"><ele>0.0</ele><time>2026-04-30T11:15:10.057Z</time></trkpt><trkpt lat="41.5865182" lon="2.907797"><ele>0.0</ele><time>2026-04-30T11:15:11.057Z</time></trkpt><trkpt lat="41.5865575" lon="2.9078997"><ele>0.0</ele><time>2026-04-30T11:15:12.057Z</time></trkpt><trkpt lat="41.5865933" lon="2.9080041"><ele>0.0</ele><time>2026-04-30T11:15:13.057Z</time></trkpt><trkpt lat="41.5866688" lon="2.9082131"><ele>0.0</ele><time>2026-04-30T11:15:15.057Z</time></trkpt><trkpt lat="41.5867097" lon="2.9083194"><ele>0.0</ele><time>2026-04-30T11:15:16.056Z</time></trkpt><trkpt lat="41.5867562" lon="2.9084291"><ele>0.0</ele><time>2026-04-30T11:15:17.056Z</time></trkpt><trkpt lat="41.5867964" lon="2.9085364"><ele>0.0</ele><time>2026-04-30T11:15:18.056Z</time></trkpt><trkpt lat="41.5868333" lon="2.9086375"><ele>0.0</ele><time>2026-04-30T11:15:19.057Z</time></trkpt><trkpt lat="41.5868661" lon="2.9087386"><ele>0.0</ele><time>2026-04-30T11:15:20.056Z</time></trkpt><trkpt lat="41.5868993" lon="2.9088444"><ele>0.0</ele><time>2026-04-30T11:15:21.056Z</time></trkpt><trkpt lat="41.5869368" lon="2.9089484"><ele>0.0</ele><time>2026-04-30T11:15:22.057Z</time></trkpt><trkpt lat="41.5869737" lon="2.9090544"><ele>0.0</ele><time>2026-04-30T11:15:23.056Z</time></trkpt><trkpt lat="41.5870127" lon="2.9091538"><ele>0.0</ele><time>2026-04-30T11:15:24.056Z</time></trkpt><trkpt lat="41.5870535" lon="2.909255"><ele>0.0</ele><time>2026-04-30T11:15:25.056Z</time></trkpt><trkpt lat="41.587096" lon="2.9093525"><ele>0.0</ele><time>2026-04-30T11:15:26.057Z</time></trkpt><trkpt lat="41.5871376" lon="2.9094607"><ele>0.0</ele><time>2026-04-30T11:15:27.056Z</time></trkpt><trkpt lat="41.5871776" lon="2.9095712"><ele>0.0</ele><time>2026-04-30T11:15:28.057Z</time></trkpt><trkpt lat="41.5872229" lon="2.9096732"><ele>0.0</ele><time>2026-04-30T11:15:29.057Z</time></trkpt><trkpt lat="41.5872626" lon="2.9097654"><ele>0.0</ele><time>2026-04-30T11:15:30.056Z</time></trkpt><trkpt lat="41.5873025" lon="2.9098612"><ele>0.0</ele><time>2026-04-30T11:15:31.057Z</time></trkpt><trkpt lat="41.5873351" lon="2.9099624"><ele>0.0</ele><time>2026-04-30T11:15:32.057Z</time></trkpt><trkpt lat="41.5873739" lon="2.9100672"><ele>0.0</ele><time>2026-04-30T11:15:33.056Z</time></trkpt><trkpt lat="41.5874113" lon="2.9101733"><ele>0.0</ele><time>2026-04-30T11:15:34.056Z</time></trkpt><trkpt lat="41.5874953" lon="2.9103673"><ele>0.0</ele><time>2026-04-30T11:15:36.057Z</time></trkpt><trkpt lat="41.5875413" lon="2.9104702"><ele>0.0</ele><time>2026-04-30T11:15:37.057Z</time></trkpt><trkpt lat="41.5875853" lon="2.910575"><ele>0.0</ele><time>2026-04-30T11:15:38.057Z</time></trkpt><trkpt lat="41.587623" lon="2.9106831"><ele>0.0</ele><time>2026-04-30T11:15:39.056Z</time></trkpt><trkpt lat="41.5876601" lon="2.910781"><ele>0.0</ele><time>2026-04-30T11:15:40.057Z</time></trkpt><trkpt lat="41.5876993" lon="2.9108875"><ele>0.0</ele><time>2026-04-30T11:15:41.056Z</time></trkpt><trkpt lat="41.5877381" lon="2.9109971"><ele>0.0</ele><time>2026-04-30T11:15:42.056Z</time></trkpt><trkpt lat="41.5877796" lon="2.9110986"><ele>0.0</ele><time>2026-04-30T11:15:43.056Z</time></trkpt><trkpt lat="41.5878216" lon="2.9112088"><ele>0.0</ele><time>2026-04-30T11:15:44.056Z</time></trkpt><trkpt lat="41.5878636" lon="2.9113185"><ele>0.0</ele><time>2026-04-30T11:15:45.056Z</time></trkpt><trkpt lat="41.5879095" lon="2.9114211"><ele>0.0</ele><time>2026-04-30T11:15:46.056Z</time></trkpt><trkpt lat="41.5879493" lon="2.9115212"><ele>0.0</ele><time>2026-04-30T11:15:47.056Z</time></trkpt><trkpt lat="41.587986" lon="2.9116274"><ele>0.0</ele><time>2026-04-30T11:15:48.057Z</time></trkpt><trkpt lat="41.5880239" lon="2.9117302"><ele>0.0</ele><time>2026-04-30T11:15:49.056Z</time></trkpt><trkpt lat="41.5880605" lon="2.9118304"><ele>0.0</ele><time>2026-04-30T11:15:50.057Z</time></trkpt><trkpt lat="41.5880971" lon="2.9119332"><ele>0.0</ele><time>2026-04-30T11:15:51.057Z</time></trkpt><trkpt lat="41.5881324" lon="2.9120393"><ele>0.0</ele><time>2026-04-30T11:15:52.057Z</time></trkpt><trkpt lat="41.5881717" lon="2.9121446"><ele>0.0</ele><time>2026-04-30T11:15:53.056Z</time></trkpt><trkpt lat="41.5882087" lon="2.9122453"><ele>0.0</ele><time>2026-04-30T11:15:54.057Z</time></trkpt><trkpt lat="41.5882464" lon="2.9123498"><ele>0.0</ele><time>2026-04-30T11:15:55.057Z</time></trkpt><trkpt lat="41.5883185" lon="2.9125516"><ele>0.0</ele><time>2026-04-30T11:15:57.057Z</time></trkpt><trkpt lat="41.5883569" lon="2.9126592"><ele>0.0</ele><time>2026-04-30T11:15:58.056Z</time></trkpt><trkpt lat="41.5884011" lon="2.9127659"><ele>0.0</ele><time>2026-04-30T11:15:59.057Z</time></trkpt><trkpt lat="41.5884419" lon="2.912871"><ele>0.0</ele><time>2026-04-30T11:16:00.056Z</time></trkpt><trkpt lat="41.5884795" lon="2.9129748"><ele>0.0</ele><time>2026-04-30T11:16:01.056Z</time></trkpt><trkpt lat="41.5885103" lon="2.9130779"><ele>0.0</ele><time>2026-04-30T11:16:02.057Z</time></trkpt><trkpt lat="41.5885482" lon="2.9131841"><ele>0.0</ele><time>2026-04-30T11:16:03.057Z</time></trkpt><trkpt lat="41.5885856" lon="2.9132868"><ele>0.0</ele><time>2026-04-30T11:16:04.057Z</time></trkpt><trkpt lat="41.5886262" lon="2.9133901"><ele>0.0</ele><time>2026-04-30T11:16:05.056Z</time></trkpt><trkpt lat="41.5886668" lon="2.9134885"><ele>0.0</ele><time>2026-04-30T11:16:06.056Z</time></trkpt><trkpt lat="41.5887015" lon="2.9135925"><ele>0.0</ele><time>2026-04-30T11:16:07.056Z</time></trkpt><trkpt lat="41.588742" lon="2.913692"><ele>0.0</ele><time>2026-04-30T11:16:08.057Z</time></trkpt><trkpt lat="41.5887794" lon="2.9137918"><ele>0.0</ele><time>2026-04-30T11:16:09.056Z</time></trkpt><trkpt lat="41.5888122" lon="2.9138946"><ele>0.0</ele><time>2026-04-30T11:16:10.057Z</time></trkpt><trkpt lat="41.5888444" lon="2.9139983"><ele>0.0</ele><time>2026-04-30T11:16:11.056Z</time></trkpt><trkpt lat="41.5888719" lon="2.9141031"><ele>0.0</ele><time>2026-04-30T11:16:12.057Z</time></trkpt><trkpt lat="41.58891" lon="2.9142024"><ele>0.0</ele><time>2026-04-30T11:16:13.056Z</time></trkpt><trkpt lat="41.5889543" lon="2.9143035"><ele>0.0</ele><time>2026-04-30T11:16:14.056Z</time></trkpt><trkpt lat="41.5890022" lon="2.9144035"><ele>0.0</ele><time>2026-04-30T11:16:15.056Z</time></trkpt><trkpt lat="41.5890435" lon="2.9145004"><ele>0.0</ele><time>2026-04-30T11:16:16.057Z</time></trkpt><trkpt lat="41.5891374" lon="2.9147"><ele>0.0</ele><time>2026-04-30T11:16:18.056Z</time></trkpt><trkpt lat="41.5891789" lon="2.9147986"><ele>0.0</ele><time>2026-04-30T11:16:19.057Z</time></trkpt><trkpt lat="41.5892233" lon="2.9148996"><ele>0.0</ele><time>2026-04-30T11:16:20.056Z</time></trkpt><trkpt lat="41.5892622" lon="2.9150028"><ele>0.0</ele><time>2026-04-30T11:16:21.057Z</time></trkpt><trkpt lat="41.5892963" lon="2.9151116"><ele>0.0</ele><time>2026-04-30T11:16:22.057Z</time></trkpt><trkpt lat="41.5893353" lon="2.9152175"><ele>0.0</ele><time>2026-04-30T11:16:23.056Z</time></trkpt><trkpt lat="41.5893695" lon="2.9153312"><ele>0.0</ele><time>2026-04-30T11:16:24.057Z</time></trkpt><trkpt lat="41.5894101" lon="2.9154376"><ele>0.0</ele><time>2026-04-30T11:16:25.057Z</time></trkpt><trkpt lat="41.5894519" lon="2.9155444"><ele>0.0</ele><time>2026-04-30T11:16:26.056Z</time></trkpt><trkpt lat="41.5894932" lon="2.915651"><ele>0.0</ele><time>2026-04-30T11:16:27.056Z</time></trkpt><trkpt lat="41.5895232" lon="2.9157572"><ele>0.0</ele><time>2026-04-30T11:16:28.057Z</time></trkpt><trkpt lat="41.5895603" lon="2.9158613"><ele>0.0</ele><time>2026-04-30T11:16:29.056Z</time></trkpt><trkpt lat="41.5895999" lon="2.9159633"><ele>0.0</ele><time>2026-04-30T11:16:30.056Z</time></trkpt><trkpt lat="41.5896413" lon="2.9160708"><ele>0.0</ele><time>2026-04-30T11:16:31.057Z</time></trkpt><trkpt lat="41.5896893" lon="2.916172"><ele>0.0</ele><time>2026-04-30T11:16:32.057Z</time></trkpt><trkpt lat="41.5897303" lon="2.9162707"><ele>0.0</ele><time>2026-04-30T11:16:33.057Z</time></trkpt><trkpt lat="41.5897716" lon="2.9163732"><ele>0.0</ele><time>2026-04-30T11:16:34.057Z</time></trkpt><trkpt lat="41.589815" lon="2.9164811"><ele>0.0</ele><time>2026-04-30T11:16:35.056Z</time></trkpt><trkpt lat="41.5898566" lon="2.9165848"><ele>0.0</ele><time>2026-04-30T11:16:36.057Z</time></trkpt><trkpt lat="41.5899024" lon="2.9166896"><ele>0.0</ele><time>2026-04-30T11:16:37.057Z</time></trkpt><trkpt lat="41.5899786" lon="2.9168938"><ele>0.0</ele><time>2026-04-30T11:16:39.056Z</time></trkpt><trkpt lat="41.5900186" lon="2.916995"><ele>0.0</ele><time>2026-04-30T11:16:40.057Z</time></trkpt><trkpt lat="41.5900559" lon="2.9170952"><ele>0.0</ele><time>2026-04-30T11:16:41.056Z</time></trkpt><trkpt lat="41.5900884" lon="2.9171993"><ele>0.0</ele><time>2026-04-30T11:16:42.057Z</time></trkpt><trkpt lat="41.5901327" lon="2.9172989"><ele>0.0</ele><time>2026-04-30T11:16:43.057Z</time></trkpt><trkpt lat="41.5901732" lon="2.9174013"><ele>0.0</ele><time>2026-04-30T11:16:44.057Z</time></trkpt><trkpt lat="41.5902134" lon="2.9175034"><ele>0.0</ele><time>2026-04-30T11:16:45.057Z</time></trkpt><trkpt lat="41.5902634" lon="2.9176081"><ele>0.0</ele><time>2026-04-30T11:16:46.056Z</time></trkpt><trkpt lat="41.5903118" lon="2.9177119"><ele>0.0</ele><time>2026-04-30T11:16:47.056Z</time></trkpt><trkpt lat="41.5904044" lon="2.9179263"><ele>0.0</ele><time>2026-04-30T11:16:49.057Z</time></trkpt><trkpt lat="41.5904365" lon="2.9180325"><ele>0.0</ele><time>2026-04-30T11:16:50.056Z</time></trkpt><trkpt lat="41.5904687" lon="2.9181361"><ele>0.0</ele><time>2026-04-30T11:16:51.056Z</time></trkpt><trkpt lat="41.5905028" lon="2.91824"><ele>0.0</ele><time>2026-04-30T11:16:52.056Z</time></trkpt><trkpt lat="41.5905401" lon="2.9183379"><ele>0.0</ele><time>2026-04-30T11:16:53.057Z</time></trkpt><trkpt lat="41.5905766" lon="2.9184358"><ele>0.0</ele><time>2026-04-30T11:16:54.056Z</time></trkpt><trkpt lat="41.5906123" lon="2.9185398"><ele>0.0</ele><time>2026-04-30T11:16:55.057Z</time></trkpt><trkpt lat="41.5906543" lon="2.9186475"><ele>0.0</ele><time>2026-04-30T11:16:56.057Z</time></trkpt><trkpt lat="41.5906976" lon="2.9187515"><ele>0.0</ele><time>2026-04-30T11:16:57.056Z</time></trkpt><trkpt lat="41.5907413" lon="2.918856"><ele>0.0</ele><time>2026-04-30T11:16:58.057Z</time></trkpt><trkpt lat="41.5908247" lon="2.9190616"><ele>0.0</ele><time>2026-04-30T11:17:00.057Z</time></trkpt><trkpt lat="41.590864" lon="2.9191646"><ele>0.0</ele><time>2026-04-30T11:17:01.057Z</time></trkpt><trkpt lat="41.5909053" lon="2.9192684"><ele>0.0</ele><time>2026-04-30T11:17:02.057Z</time></trkpt><trkpt lat="41.5909437" lon="2.9193701"><ele>0.0</ele><time>2026-04-30T11:17:03.056Z</time></trkpt><trkpt lat="41.5909834" lon="2.9194731"><ele>0.0</ele><time>2026-04-30T11:17:04.056Z</time></trkpt><trkpt lat="41.5910233" lon="2.919581"><ele>0.0</ele><time>2026-04-30T11:17:05.057Z</time></trkpt><trkpt lat="41.5910633" lon="2.919688"><ele>0.0</ele><time>2026-04-30T11:17:06.056Z</time></trkpt><trkpt lat="41.5911034" lon="2.9197943"><ele>0.0</ele><time>2026-04-30T11:17:07.056Z</time></trkpt><trkpt lat="41.5911404" lon="2.9198968"><ele>0.0</ele><time>2026-04-30T11:17:08.057Z</time></trkpt><trkpt lat="41.5911741" lon="2.9199987"><ele>0.0</ele><time>2026-04-30T11:17:09.056Z</time></trkpt><trkpt lat="41.5912132" lon="2.9201029"><ele>0.0</ele><time>2026-04-30T11:17:10.057Z</time></trkpt><trkpt lat="41.5912504" lon="2.9202024"><ele>0.0</ele><time>2026-04-30T11:17:11.056Z</time></trkpt><trkpt lat="41.5912853" lon="2.9203039"><ele>0.0</ele><time>2026-04-30T11:17:12.057Z</time></trkpt><trkpt lat="41.5913204" lon="2.9204066"><ele>0.0</ele><time>2026-04-30T11:17:13.057Z</time></trkpt><trkpt lat="41.5913571" lon="2.9205084"><ele>0.0</ele><time>2026-04-30T11:17:14.056Z</time></trkpt><trkpt lat="41.5913936" lon="2.9206118"><ele>0.0</ele><time>2026-04-30T11:17:15.057Z</time></trkpt><trkpt lat="41.5914305" lon="2.9207151"><ele>0.0</ele><time>2026-04-30T11:17:16.056Z</time></trkpt><trkpt lat="41.5914655" lon="2.920817"><ele>0.0</ele><time>2026-04-30T11:17:17.057Z</time></trkpt><trkpt lat="41.5915035" lon="2.9209185"><ele>0.0</ele><time>2026-04-30T11:17:18.056Z</time></trkpt><trkpt lat="41.5915406" lon="2.9210201"><ele>0.0</ele><time>2026-04-30T11:17:19.057Z</time></trkpt><trkpt lat="41.5915726" lon="2.921123"><ele>0.0</ele><time>2026-04-30T11:17:20.057Z</time></trkpt><trkpt lat="41.5916455" lon="2.9213316"><ele>0.0</ele><time>2026-04-30T11:17:22.057Z</time></trkpt><trkpt lat="41.5916851" lon="2.9214362"><ele>0.0</ele><time>2026-04-30T11:17:23.056Z</time></trkpt><trkpt lat="41.5917223" lon="2.9215425"><ele>0.0</ele><time>2026-04-30T11:17:24.057Z</time></trkpt><trkpt lat="41.5917631" lon="2.9216495"><ele>0.0</ele><time>2026-04-30T11:17:25.056Z</time></trkpt><trkpt lat="41.5918015" lon="2.9217561"><ele>0.0</ele><time>2026-04-30T11:17:26.056Z</time></trkpt><trkpt lat="41.5918369" lon="2.9218614"><ele>0.0</ele><time>2026-04-30T11:17:27.057Z</time></trkpt><trkpt lat="41.5918751" lon="2.9219663"><ele>0.0</ele><time>2026-04-30T11:17:28.056Z</time></trkpt><trkpt lat="41.5919178" lon="2.9220729"><ele>0.0</ele><time>2026-04-30T11:17:29.057Z</time></trkpt><trkpt lat="41.5919583" lon="2.9221764"><ele>0.0</ele><time>2026-04-30T11:17:30.057Z</time></trkpt><trkpt lat="41.5919984" lon="2.9222783"><ele>0.0</ele><time>2026-04-30T11:17:31.057Z</time></trkpt><trkpt lat="41.5920328" lon="2.9223814"><ele>0.0</ele><time>2026-04-30T11:17:32.057Z</time></trkpt><trkpt lat="41.5920689" lon="2.9224878"><ele>0.0</ele><time>2026-04-30T11:17:33.057Z</time></trkpt><trkpt lat="41.5921185" lon="2.922587"><ele>0.0</ele><time>2026-04-30T11:17:34.057Z</time></trkpt><trkpt lat="41.5921658" lon="2.9226871"><ele>0.0</ele><time>2026-04-30T11:17:35.056Z</time></trkpt><trkpt lat="41.5922098" lon="2.9227901"><ele>0.0</ele><time>2026-04-30T11:17:36.057Z</time></trkpt><trkpt lat="41.5922503" lon="2.9228932"><ele>0.0</ele><time>2026-04-30T11:17:37.056Z</time></trkpt><trkpt lat="41.5922876" lon="2.9229978"><ele>0.0</ele><time>2026-04-30T11:17:38.056Z</time></trkpt><trkpt lat="41.59233" lon="2.9231084"><ele>0.0</ele><time>2026-04-30T11:17:39.056Z</time></trkpt><trkpt lat="41.5923749" lon="2.9232074"><ele>0.0</ele><time>2026-04-30T11:17:40.057Z</time></trkpt><trkpt lat="41.5924111" lon="2.9233113"><ele>0.0</ele><time>2026-04-30T11:17:41.057Z</time></trkpt><trkpt lat="41.5924949" lon="2.9235168"><ele>0.0</ele><time>2026-04-30T11:17:43.057Z</time></trkpt><trkpt lat="41.5925354" lon="2.9236171"><ele>0.0</ele><time>2026-04-30T11:17:44.056Z</time></trkpt><trkpt lat="41.5925726" lon="2.9237212"><ele>0.0</ele><time>2026-04-30T11:17:45.056Z</time></trkpt><trkpt lat="41.5926125" lon="2.9238263"><ele>0.0</ele><time>2026-04-30T11:17:46.057Z</time></trkpt><trkpt lat="41.5926551" lon="2.9239299"><ele>0.0</ele><time>2026-04-30T11:17:47.056Z</time></trkpt><trkpt lat="41.5926984" lon="2.9240345"><ele>0.0</ele><time>2026-04-30T11:17:48.056Z</time></trkpt><trkpt lat="41.5927429" lon="2.9241353"><ele>0.0</ele><time>2026-04-30T11:17:49.057Z</time></trkpt><trkpt lat="41.5927867" lon="2.9242352"><ele>0.0</ele><time>2026-04-30T11:17:50.057Z</time></trkpt><trkpt lat="41.5928267" lon="2.924331"><ele>0.0</ele><time>2026-04-30T11:17:51.057Z</time></trkpt><trkpt lat="41.5928995" lon="2.9245411"><ele>0.0</ele><time>2026-04-30T11:17:53.057Z</time></trkpt><trkpt lat="41.5929419" lon="2.9246474"><ele>0.0</ele><time>2026-04-30T11:17:54.056Z</time></trkpt><trkpt lat="41.5929836" lon="2.9247524"><ele>0.0</ele><time>2026-04-30T11:17:55.056Z</time></trkpt><trkpt lat="41.5930208" lon="2.9248505"><ele>0.0</ele><time>2026-04-30T11:17:56.057Z</time></trkpt><trkpt lat="41.5930588" lon="2.9249505"><ele>0.0</ele><time>2026-04-30T11:17:57.057Z</time></trkpt><trkpt lat="41.593097" lon="2.9250549"><ele>0.0</ele><time>2026-04-30T11:17:58.056Z</time></trkpt><trkpt lat="41.5931294" lon="2.9251609"><ele>0.0</ele><time>2026-04-30T11:17:59.056Z</time></trkpt><trkpt lat="41.5931655" lon="2.9252647"><ele>0.0</ele><time>2026-04-30T11:18:00.057Z</time></trkpt><trkpt lat="41.5931953" lon="2.9253709"><ele>0.0</ele><time>2026-04-30T11:18:01.057Z</time></trkpt><trkpt lat="41.5932294" lon="2.9254675"><ele>0.0</ele><time>2026-04-30T11:18:02.057Z</time></trkpt><trkpt lat="41.5933026" lon="2.9256773"><ele>0.0</ele><time>2026-04-30T11:18:04.056Z</time></trkpt><trkpt lat="41.5933417" lon="2.9257828"><ele>0.0</ele><time>2026-04-30T11:18:05.056Z</time></trkpt><trkpt lat="41.5933774" lon="2.9258881"><ele>0.0</ele><time>2026-04-30T11:18:06.056Z</time></trkpt><trkpt lat="41.5934123" lon="2.9259946"><ele>0.0</ele><time>2026-04-30T11:18:07.057Z</time></trkpt><trkpt lat="41.5934526" lon="2.9260983"><ele>0.0</ele><time>2026-04-30T11:18:08.056Z</time></trkpt><trkpt lat="41.5934928" lon="2.9262045"><ele>0.0</ele><time>2026-04-30T11:18:09.056Z</time></trkpt><trkpt lat="41.5935363" lon="2.9263084"><ele>0.0</ele><time>2026-04-30T11:18:10.056Z</time></trkpt><trkpt lat="41.5935748" lon="2.926415"><ele>0.0</ele><time>2026-04-30T11:18:11.056Z</time></trkpt><trkpt lat="41.5936161" lon="2.9265213"><ele>0.0</ele><time>2026-04-30T11:18:12.056Z</time></trkpt><trkpt lat="41.5936553" lon="2.9266222"><ele>0.0</ele><time>2026-04-30T11:18:13.056Z</time></trkpt><trkpt lat="41.5936937" lon="2.926725"><ele>0.0</ele><time>2026-04-30T11:18:14.056Z</time></trkpt><trkpt lat="41.5937304" lon="2.92683"><ele>0.0</ele><time>2026-04-30T11:18:15.057Z</time></trkpt><trkpt lat="41.5937688" lon="2.9269291"><ele>0.0</ele><time>2026-04-30T11:18:16.056Z</time></trkpt><trkpt lat="41.5938072" lon="2.9270318"><ele>0.0</ele><time>2026-04-30T11:18:17.057Z</time></trkpt><trkpt lat="41.5938454" lon="2.9271332"><ele>0.0</ele><time>2026-04-30T11:18:18.056Z</time></trkpt><trkpt lat="41.5938866" lon="2.9272365"><ele>0.0</ele><time>2026-04-30T11:18:19.056Z</time></trkpt><trkpt lat="41.5939292" lon="2.9273402"><ele>0.0</ele><time>2026-04-30T11:18:20.056Z</time></trkpt><trkpt lat="41.593971" lon="2.9274435"><ele>0.0</ele><time>2026-04-30T11:18:21.056Z</time></trkpt><trkpt lat="41.5940114" lon="2.9275437"><ele>0.0</ele><time>2026-04-30T11:18:22.057Z</time></trkpt><trkpt lat="41.5940518" lon="2.9276453"><ele>0.0</ele><time>2026-04-30T11:18:23.056Z</time></trkpt><trkpt lat="41.5941284" lon="2.9278564"><ele>0.0</ele><time>2026-04-30T11:18:25.057Z</time></trkpt><trkpt lat="41.5941675" lon="2.9279569"><ele>0.0</ele><time>2026-04-30T11:18:26.056Z</time></trkpt><trkpt lat="41.5942024" lon="2.9280612"><ele>0.0</ele><time>2026-04-30T11:18:27.057Z</time></trkpt><trkpt lat="41.5942414" lon="2.9281634"><ele>0.0</ele><time>2026-04-30T11:18:28.057Z</time></trkpt><trkpt lat="41.5942828" lon="2.9282651"><ele>0.0</ele><time>2026-04-30T11:18:29.056Z</time></trkpt><trkpt lat="41.5943233" lon="2.9283668"><ele>0.0</ele><time>2026-04-30T11:18:30.057Z</time></trkpt><trkpt lat="41.5943585" lon="2.9284699"><ele>0.0</ele><time>2026-04-30T11:18:31.057Z</time></trkpt><trkpt lat="41.5943978" lon="2.9285708"><ele>0.0</ele><time>2026-04-30T11:18:32.057Z</time></trkpt><trkpt lat="41.5944423" lon="2.9286704"><ele>0.0</ele><time>2026-04-30T11:18:33.056Z</time></trkpt><trkpt lat="41.594485" lon="2.9287705"><ele>0.0</ele><time>2026-04-30T11:18:34.056Z</time></trkpt><trkpt lat="41.594531" lon="2.9288775"><ele>0.0</ele><time>2026-04-30T11:18:35.056Z</time></trkpt><trkpt lat="41.5945718" lon="2.9289886"><ele>0.0</ele><time>2026-04-30T11:18:36.057Z</time></trkpt><trkpt lat="41.5946128" lon="2.9290961"><ele>0.0</ele><time>2026-04-30T11:18:37.057Z</time></trkpt><trkpt lat="41.5946532" lon="2.929201"><ele>0.0</ele><time>2026-04-30T11:18:38.057Z</time></trkpt><trkpt lat="41.5946929" lon="2.9292991"><ele>0.0</ele><time>2026-04-30T11:18:39.057Z</time></trkpt><trkpt lat="41.5947261" lon="2.9294031"><ele>0.0</ele><time>2026-04-30T11:18:40.057Z</time></trkpt><trkpt lat="41.594761" lon="2.9295097"><ele>0.0</ele><time>2026-04-30T11:18:41.056Z</time></trkpt><trkpt lat="41.5947946" lon="2.9296119"><ele>0.0</ele><time>2026-04-30T11:18:42.057Z</time></trkpt><trkpt lat="41.5948348" lon="2.929712"><ele>0.0</ele><time>2026-04-30T11:18:43.057Z</time></trkpt><trkpt lat="41.5948775" lon="2.9298132"><ele>0.0</ele><time>2026-04-30T11:18:44.056Z</time></trkpt><trkpt lat="41.5949537" lon="2.9300163"><ele>0.0</ele><time>2026-04-30T11:18:46.057Z</time></trkpt><trkpt lat="41.5949961" lon="2.9301227"><ele>0.0</ele><time>2026-04-30T11:18:47.057Z</time></trkpt><trkpt lat="41.5950341" lon="2.9302292"><ele>0.0</ele><time>2026-04-30T11:18:48.056Z</time></trkpt><trkpt lat="41.5950717" lon="2.9303302"><ele>0.0</ele><time>2026-04-30T11:18:49.056Z</time></trkpt><trkpt lat="41.5951098" lon="2.9304303"><ele>0.0</ele><time>2026-04-30T11:18:50.056Z</time></trkpt><trkpt lat="41.5951469" lon="2.9305349"><ele>0.0</ele><time>2026-04-30T11:18:51.057Z</time></trkpt><trkpt lat="41.5951788" lon="2.9306398"><ele>0.0</ele><time>2026-04-30T11:18:52.057Z</time></trkpt><trkpt lat="41.5952178" lon="2.9307447"><ele>0.0</ele><time>2026-04-30T11:18:53.056Z</time></trkpt><trkpt lat="41.5952636" lon="2.9308456"><ele>0.0</ele><time>2026-04-30T11:18:54.056Z</time></trkpt><trkpt lat="41.5953388" lon="2.9310527"><ele>0.0</ele><time>2026-04-30T11:18:56.056Z</time></trkpt><trkpt lat="41.5953769" lon="2.9311578"><ele>0.0</ele><time>2026-04-30T11:18:57.057Z</time></trkpt><trkpt lat="41.5954169" lon="2.9312616"><ele>0.0</ele><time>2026-04-30T11:18:58.057Z</time></trkpt><trkpt lat="41.5954553" lon="2.9313666"><ele>0.0</ele><time>2026-04-30T11:18:59.057Z</time></trkpt><trkpt lat="41.5954936" lon="2.9314715"><ele>0.0</ele><time>2026-04-30T11:19:00.057Z</time></trkpt><trkpt lat="41.5955321" lon="2.9315735"><ele>0.0</ele><time>2026-04-30T11:19:01.056Z</time></trkpt><trkpt lat="41.5955699" lon="2.9316784"><ele>0.0</ele><time>2026-04-30T11:19:02.057Z</time></trkpt><trkpt lat="41.5956141" lon="2.9317816"><ele>0.0</ele><time>2026-04-30T11:19:03.057Z</time></trkpt><trkpt lat="41.5956565" lon="2.9318851"><ele>0.0</ele><time>2026-04-30T11:19:04.056Z</time></trkpt><trkpt lat="41.595697" lon="2.9319896"><ele>0.0</ele><time>2026-04-30T11:19:05.057Z</time></trkpt><trkpt lat="41.5957828" lon="2.9321921"><ele>0.0</ele><time>2026-04-30T11:19:07.057Z</time></trkpt><trkpt lat="41.595824" lon="2.9322919"><ele>0.0</ele><time>2026-04-30T11:19:08.057Z</time></trkpt><trkpt lat="41.5958653" lon="2.9323931"><ele>0.0</ele><time>2026-04-30T11:19:09.057Z</time></trkpt><trkpt lat="41.595908" lon="2.9324966"><ele>0.0</ele><time>2026-04-30T11:19:10.057Z</time></trkpt><trkpt lat="41.5959484" lon="2.9325971"><ele>0.0</ele><time>2026-04-30T11:19:11.057Z</time></trkpt><trkpt lat="41.5959954" lon="2.9326968"><ele>0.0</ele><time>2026-04-30T11:19:12.056Z</time></trkpt><trkpt lat="41.5960443" lon="2.9327997"><ele>0.0</ele><time>2026-04-30T11:19:13.057Z</time></trkpt><trkpt lat="41.5960898" lon="2.9329061"><ele>0.0</ele><time>2026-04-30T11:19:14.056Z</time></trkpt><trkpt lat="41.5961362" lon="2.9330096"><ele>0.0</ele><time>2026-04-30T11:19:15.056Z</time></trkpt><trkpt lat="41.5961823" lon="2.9331116"><ele>0.0</ele><time>2026-04-30T11:19:16.056Z</time></trkpt><trkpt lat="41.5962266" lon="2.9332115"><ele>0.0</ele><time>2026-04-30T11:19:17.056Z</time></trkpt><trkpt lat="41.5962683" lon="2.9333145"><ele>0.0</ele><time>2026-04-30T11:19:18.056Z</time></trkpt><trkpt lat="41.5963058" lon="2.9334208"><ele>0.0</ele><time>2026-04-30T11:19:19.055Z</time></trkpt><trkpt lat="41.5963424" lon="2.9335279"><ele>0.0</ele><time>2026-04-30T11:19:20.055Z</time></trkpt><trkpt lat="41.5963805" lon="2.93363"><ele>0.0</ele><time>2026-04-30T11:19:21.055Z</time></trkpt><trkpt lat="41.59642" lon="2.9337305"><ele>0.0</ele><time>2026-04-30T11:19:22.056Z</time></trkpt><trkpt lat="41.596458" lon="2.9338287"><ele>0.0</ele><time>2026-04-30T11:19:23.056Z</time></trkpt><trkpt lat="41.5964915" lon="2.9339299"><ele>0.0</ele><time>2026-04-30T11:19:24.056Z</time></trkpt><trkpt lat="41.5965304" lon="2.9340332"><ele>0.0</ele><time>2026-04-30T11:19:25.056Z</time></trkpt><trkpt lat="41.5965676" lon="2.9341322"><ele>0.0</ele><time>2026-04-30T11:19:26.055Z</time></trkpt><trkpt lat="41.5966123" lon="2.9342337"><ele>0.0</ele><time>2026-04-30T11:19:27.056Z</time></trkpt><trkpt lat="41.5967022" lon="2.9344349"><ele>0.0</ele><time>2026-04-30T11:19:29.055Z</time></trkpt><trkpt lat="41.5967474" lon="2.9345381"><ele>0.0</ele><time>2026-04-30T11:19:30.055Z</time></trkpt><trkpt lat="41.5967878" lon="2.9346403"><ele>0.0</ele><time>2026-04-30T11:19:31.055Z</time></trkpt><trkpt lat="41.5968279" lon="2.9347448"><ele>0.0</ele><time>2026-04-30T11:19:32.055Z</time></trkpt><trkpt lat="41.5968608" lon="2.9348424"><ele>0.0</ele><time>2026-04-30T11:19:33.056Z</time></trkpt><trkpt lat="41.5969038" lon="2.9349467"><ele>0.0</ele><time>2026-04-30T11:19:34.056Z</time></trkpt><trkpt lat="41.5969504" lon="2.9350457"><ele>0.0</ele><time>2026-04-30T11:19:35.056Z</time></trkpt><trkpt lat="41.5969944" lon="2.935144"><ele>0.0</ele><time>2026-04-30T11:19:36.056Z</time></trkpt><trkpt lat="41.5970303" lon="2.935248"><ele>0.0</ele><time>2026-04-30T11:19:37.056Z</time></trkpt><trkpt lat="41.5970686" lon="2.9353526"><ele>0.0</ele><time>2026-04-30T11:19:38.056Z</time></trkpt><trkpt lat="41.5971126" lon="2.935459"><ele>0.0</ele><time>2026-04-30T11:19:39.055Z</time></trkpt><trkpt lat="41.597155" lon="2.9355644"><ele>0.0</ele><time>2026-04-30T11:19:40.056Z</time></trkpt><trkpt lat="41.5971923" lon="2.9356639"><ele>0.0</ele><time>2026-04-30T11:19:41.056Z</time></trkpt><trkpt lat="41.5972331" lon="2.9357696"><ele>0.0</ele><time>2026-04-30T11:19:42.055Z</time></trkpt><trkpt lat="41.5972847" lon="2.9358733"><ele>0.0</ele><time>2026-04-30T11:19:43.056Z</time></trkpt><trkpt lat="41.5973279" lon="2.9359809"><ele>0.0</ele><time>2026-04-30T11:19:44.055Z</time></trkpt><trkpt lat="41.5973714" lon="2.9360832"><ele>0.0</ele><time>2026-04-30T11:19:45.056Z</time></trkpt><trkpt lat="41.5974019" lon="2.9361823"><ele>0.0</ele><time>2026-04-30T11:19:46.055Z</time></trkpt><trkpt lat="41.5974335" lon="2.9362789"><ele>0.0</ele><time>2026-04-30T11:19:47.055Z</time></trkpt><trkpt lat="41.5974692" lon="2.9363817"><ele>0.0</ele><time>2026-04-30T11:19:48.056Z</time></trkpt><trkpt lat="41.5975441" lon="2.9365899"><ele>0.0</ele><time>2026-04-30T11:19:50.056Z</time></trkpt><trkpt lat="41.5975786" lon="2.9366942"><ele>0.0</ele><time>2026-04-30T11:19:51.056Z</time></trkpt><trkpt lat="41.5976166" lon="2.9367968"><ele>0.0</ele><time>2026-04-30T11:19:52.055Z</time></trkpt><trkpt lat="41.5976563" lon="2.9369029"><ele>0.0</ele><time>2026-04-30T11:19:53.055Z</time></trkpt><trkpt lat="41.5976906" lon="2.9370073"><ele>0.0</ele><time>2026-04-30T11:19:54.056Z</time></trkpt><trkpt lat="41.597727" lon="2.9371102"><ele>0.0</ele><time>2026-04-30T11:19:55.055Z</time></trkpt><trkpt lat="41.5977633" lon="2.9372119"><ele>0.0</ele><time>2026-04-30T11:19:56.055Z</time></trkpt><trkpt lat="41.5978046" lon="2.9373135"><ele>0.0</ele><time>2026-04-30T11:19:57.056Z</time></trkpt><trkpt lat="41.5978491" lon="2.9374176"><ele>0.0</ele><time>2026-04-30T11:19:58.055Z</time></trkpt><trkpt lat="41.5978902" lon="2.9375256"><ele>0.0</ele><time>2026-04-30T11:19:59.055Z</time></trkpt><trkpt lat="41.5979356" lon="2.9376313"><ele>0.0</ele><time>2026-04-30T11:20:00.056Z</time></trkpt><trkpt lat="41.597977" lon="2.9377323"><ele>0.0</ele><time>2026-04-30T11:20:01.056Z</time></trkpt><trkpt lat="41.5980155" lon="2.9378351"><ele>0.0</ele><time>2026-04-30T11:20:02.055Z</time></trkpt><trkpt lat="41.5980579" lon="2.9379373"><ele>0.0</ele><time>2026-04-30T11:20:03.055Z</time></trkpt><trkpt lat="41.5980956" lon="2.938036"><ele>0.0</ele><time>2026-04-30T11:20:04.056Z</time></trkpt><trkpt lat="41.5981362" lon="2.9381426"><ele>0.0</ele><time>2026-04-30T11:20:05.055Z</time></trkpt><trkpt lat="41.5981694" lon="2.9382494"><ele>0.0</ele><time>2026-04-30T11:20:06.056Z</time></trkpt><trkpt lat="41.5982108" lon="2.9383534"><ele>0.0</ele><time>2026-04-30T11:20:07.056Z</time></trkpt><trkpt lat="41.5982512" lon="2.9384595"><ele>0.0</ele><time>2026-04-30T11:20:08.055Z</time></trkpt><trkpt lat="41.5982924" lon="2.9385619"><ele>0.0</ele><time>2026-04-30T11:20:09.055Z</time></trkpt><trkpt lat="41.5983766" lon="2.9387653"><ele>0.0</ele><time>2026-04-30T11:20:11.056Z</time></trkpt><trkpt lat="41.5984121" lon="2.938867"><ele>0.0</ele><time>2026-04-30T11:20:12.055Z</time></trkpt><trkpt lat="41.5984525" lon="2.9389672"><ele>0.0</ele><time>2026-04-30T11:20:13.056Z</time></trkpt><trkpt lat="41.5984926" lon="2.9390746"><ele>0.0</ele><time>2026-04-30T11:20:14.055Z</time></trkpt><trkpt lat="41.5985285" lon="2.9391772"><ele>0.0</ele><time>2026-04-30T11:20:15.056Z</time></trkpt><trkpt lat="41.5985649" lon="2.9392801"><ele>0.0</ele><time>2026-04-30T11:20:16.056Z</time></trkpt><trkpt lat="41.598605" lon="2.9393816"><ele>0.0</ele><time>2026-04-30T11:20:17.055Z</time></trkpt><trkpt lat="41.5986396" lon="2.9394846"><ele>0.0</ele><time>2026-04-30T11:20:18.056Z</time></trkpt><trkpt lat="41.5986789" lon="2.9395839"><ele>0.0</ele><time>2026-04-30T11:20:19.056Z</time></trkpt><trkpt lat="41.5987116" lon="2.9396863"><ele>0.0</ele><time>2026-04-30T11:20:20.055Z</time></trkpt><trkpt lat="41.5987471" lon="2.9397884"><ele>0.0</ele><time>2026-04-30T11:20:21.055Z</time></trkpt><trkpt lat="41.5987835" lon="2.9398901"><ele>0.0</ele><time>2026-04-30T11:20:22.055Z</time></trkpt><trkpt lat="41.5988234" lon="2.9399902"><ele>0.0</ele><time>2026-04-30T11:20:23.056Z</time></trkpt><trkpt lat="41.5988621" lon="2.9400919"><ele>0.0</ele><time>2026-04-30T11:20:24.055Z</time></trkpt><trkpt lat="41.5989016" lon="2.9401963"><ele>0.0</ele><time>2026-04-30T11:20:25.056Z</time></trkpt><trkpt lat="41.5989429" lon="2.9403026"><ele>0.0</ele><time>2026-04-30T11:20:26.056Z</time></trkpt><trkpt lat="41.5989819" lon="2.9404021"><ele>0.0</ele><time>2026-04-30T11:20:27.056Z</time></trkpt><trkpt lat="41.5990217" lon="2.9405052"><ele>0.0</ele><time>2026-04-30T11:20:28.055Z</time></trkpt><trkpt lat="41.5990617" lon="2.9406114"><ele>0.0</ele><time>2026-04-30T11:20:29.055Z</time></trkpt><trkpt lat="41.5991048" lon="2.9407174"><ele>0.0</ele><time>2026-04-30T11:20:30.055Z</time></trkpt><trkpt lat="41.5991905" lon="2.9409222"><ele>0.0</ele><time>2026-04-30T11:20:32.055Z</time></trkpt><trkpt lat="41.5992318" lon="2.9410191"><ele>0.0</ele><time>2026-04-30T11:20:33.055Z</time></trkpt><trkpt lat="41.5992835" lon="2.9411131"><ele>0.0</ele><time>2026-04-30T11:20:34.055Z</time></trkpt><trkpt lat="41.599328" lon="2.9412137"><ele>0.0</ele><time>2026-04-30T11:20:35.056Z</time></trkpt><trkpt lat="41.5993741" lon="2.941314"><ele>0.0</ele><time>2026-04-30T11:20:36.056Z</time></trkpt><trkpt lat="41.5994104" lon="2.9414127"><ele>0.0</ele><time>2026-04-30T11:20:37.055Z</time></trkpt><trkpt lat="41.5994424" lon="2.9415137"><ele>0.0</ele><time>2026-04-30T11:20:38.055Z</time></trkpt><trkpt lat="41.5994767" lon="2.9416166"><ele>0.0</ele><time>2026-04-30T11:20:39.055Z</time></trkpt><trkpt lat="41.5995179" lon="2.9417183"><ele>0.0</ele><time>2026-04-30T11:20:40.056Z</time></trkpt><trkpt lat="41.5995567" lon="2.9418243"><ele>0.0</ele><time>2026-04-30T11:20:41.055Z</time></trkpt><trkpt lat="41.5995949" lon="2.941931"><ele>0.0</ele><time>2026-04-30T11:20:42.055Z</time></trkpt><trkpt lat="41.5996372" lon="2.9420308"><ele>0.0</ele><time>2026-04-30T11:20:43.056Z</time></trkpt><trkpt lat="41.5996754" lon="2.9421275"><ele>0.0</ele><time>2026-04-30T11:20:44.056Z</time></trkpt><trkpt lat="41.5997177" lon="2.9422328"><ele>0.0</ele><time>2026-04-30T11:20:45.056Z</time></trkpt><trkpt lat="41.5997615" lon="2.942338"><ele>0.0</ele><time>2026-04-30T11:20:46.055Z</time></trkpt><trkpt lat="41.599805" lon="2.9424413"><ele>0.0</ele><time>2026-04-30T11:20:47.055Z</time></trkpt><trkpt lat="41.5998465" lon="2.9425447"><ele>0.0</ele><time>2026-04-30T11:20:48.056Z</time></trkpt><trkpt lat="41.5998897" lon="2.9426479"><ele>0.0</ele><time>2026-04-30T11:20:49.056Z</time></trkpt><trkpt lat="41.5999313" lon="2.9427515"><ele>0.0</ele><time>2026-04-30T11:20:50.055Z</time></trkpt><trkpt lat="41.5999719" lon="2.9428518"><ele>0.0</ele><time>2026-04-30T11:20:51.056Z</time></trkpt><trkpt lat="41.6000632" lon="2.9430616"><ele>0.0</ele><time>2026-04-30T11:20:53.056Z</time></trkpt><trkpt lat="41.6001007" lon="2.9431579"><ele>0.0</ele><time>2026-04-30T11:20:54.055Z</time></trkpt><trkpt lat="41.6001446" lon="2.9432583"><ele>0.0</ele><time>2026-04-30T11:20:55.056Z</time></trkpt><trkpt lat="41.6001864" lon="2.9433647"><ele>0.0</ele><time>2026-04-30T11:20:56.055Z</time></trkpt><trkpt lat="41.6002238" lon="2.9434624"><ele>0.0</ele><time>2026-04-30T11:20:57.056Z</time></trkpt><trkpt lat="41.6002603" lon="2.9435637"><ele>0.0</ele><time>2026-04-30T11:20:58.055Z</time></trkpt><trkpt lat="41.6003029" lon="2.943665"><ele>0.0</ele><time>2026-04-30T11:20:59.056Z</time></trkpt><trkpt lat="41.6003423" lon="2.9437622"><ele>0.0</ele><time>2026-04-30T11:21:00.055Z</time></trkpt><trkpt lat="41.6003878" lon="2.9438692"><ele>0.0</ele><time>2026-04-30T11:21:01.056Z</time></trkpt><trkpt lat="41.6004286" lon="2.9439702"><ele>0.0</ele><time>2026-04-30T11:21:02.055Z</time></trkpt><trkpt lat="41.6004673" lon="2.9440704"><ele>0.0</ele><time>2026-04-30T11:21:03.055Z</time></trkpt><trkpt lat="41.6005068" lon="2.9441749"><ele>0.0</ele><time>2026-04-30T11:21:04.055Z</time></trkpt><trkpt lat="41.6005454" lon="2.9442769"><ele>0.0</ele><time>2026-04-30T11:21:05.056Z</time></trkpt><trkpt lat="41.6005853" lon="2.9443812"><ele>0.0</ele><time>2026-04-30T11:21:06.055Z</time></trkpt><trkpt lat="41.6006231" lon="2.9444866"><ele>0.0</ele><time>2026-04-30T11:21:07.056Z</time></trkpt><trkpt lat="41.6006601" lon="2.944589"><ele>0.0</ele><time>2026-04-30T11:21:08.056Z</time></trkpt><trkpt lat="41.6006969" lon="2.9446889"><ele>0.0</ele><time>2026-04-30T11:21:09.055Z</time></trkpt><trkpt lat="41.6007351" lon="2.9447888"><ele>0.0</ele><time>2026-04-30T11:21:10.056Z</time></trkpt><trkpt lat="41.6007817" lon="2.944889"><ele>0.0</ele><time>2026-04-30T11:21:11.055Z</time></trkpt><trkpt lat="41.60082" lon="2.9449905"><ele>0.0</ele><time>2026-04-30T11:21:12.055Z</time></trkpt><trkpt lat="41.6008917" lon="2.945195"><ele>0.0</ele><time>2026-04-30T11:21:14.055Z</time></trkpt><trkpt lat="41.6009253" lon="2.9452986"><ele>0.0</ele><time>2026-04-30T11:21:15.056Z</time></trkpt><trkpt lat="41.6009571" lon="2.9453987"><ele>0.0</ele><time>2026-04-30T11:21:16.055Z</time></trkpt><trkpt lat="41.6009946" lon="2.9454985"><ele>0.0</ele><time>2026-04-30T11:21:17.055Z</time></trkpt><trkpt lat="41.6010313" lon="2.945606"><ele>0.0</ele><time>2026-04-30T11:21:18.055Z</time></trkpt><trkpt lat="41.6010684" lon="2.9457114"><ele>0.0</ele><time>2026-04-30T11:21:19.056Z</time></trkpt><trkpt lat="41.601105" lon="2.9458136"><ele>0.0</ele><time>2026-04-30T11:21:20.056Z</time></trkpt><trkpt lat="41.6011411" lon="2.945915"><ele>0.0</ele><time>2026-04-30T11:21:21.055Z</time></trkpt><trkpt lat="41.6011773" lon="2.9460171"><ele>0.0</ele><time>2026-04-30T11:21:22.055Z</time></trkpt><trkpt lat="41.6012139" lon="2.9461216"><ele>0.0</ele><time>2026-04-30T11:21:23.056Z</time></trkpt><trkpt lat="41.6012518" lon="2.9462224"><ele>0.0</ele><time>2026-04-30T11:21:24.055Z</time></trkpt><trkpt lat="41.6012861" lon="2.9463234"><ele>0.0</ele><time>2026-04-30T11:21:25.056Z</time></trkpt><trkpt lat="41.6013208" lon="2.9464223"><ele>0.0</ele><time>2026-04-30T11:21:26.055Z</time></trkpt><trkpt lat="41.601357" lon="2.9465252"><ele>0.0</ele><time>2026-04-30T11:21:27.056Z</time></trkpt><trkpt lat="41.6013922" lon="2.9466298"><ele>0.0</ele><time>2026-04-30T11:21:28.055Z</time></trkpt><trkpt lat="41.601427" lon="2.9467348"><ele>0.0</ele><time>2026-04-30T11:21:29.055Z</time></trkpt><trkpt lat="41.6014593" lon="2.9468411"><ele>0.0</ele><time>2026-04-30T11:21:30.055Z</time></trkpt><trkpt lat="41.6014952" lon="2.9469447"><ele>0.0</ele><time>2026-04-30T11:21:31.055Z</time></trkpt><trkpt lat="41.6015335" lon="2.9470469"><ele>0.0</ele><time>2026-04-30T11:21:32.056Z</time></trkpt><trkpt lat="41.6016105" lon="2.9472587"><ele>0.0</ele><time>2026-04-30T11:21:34.055Z</time></trkpt><trkpt lat="41.6016489" lon="2.9473675"><ele>0.0</ele><time>2026-04-30T11:21:35.056Z</time></trkpt><trkpt lat="41.6016884" lon="2.9474718"><ele>0.0</ele><time>2026-04-30T11:21:36.056Z</time></trkpt><trkpt lat="41.6017254" lon="2.9475751"><ele>0.0</ele><time>2026-04-30T11:21:37.055Z</time></trkpt><trkpt lat="41.6017649" lon="2.9476796"><ele>0.0</ele><time>2026-04-30T11:21:38.056Z</time></trkpt><trkpt lat="41.6018065" lon="2.9477846"><ele>0.0</ele><time>2026-04-30T11:21:39.056Z</time></trkpt><trkpt lat="41.6018477" lon="2.9478913"><ele>0.0</ele><time>2026-04-30T11:21:40.056Z</time></trkpt><trkpt lat="41.6018892" lon="2.9479948"><ele>0.0</ele><time>2026-04-30T11:21:41.056Z</time></trkpt><trkpt lat="41.6019307" lon="2.9481025"><ele>0.0</ele><time>2026-04-30T11:21:42.055Z</time></trkpt><trkpt lat="41.6019785" lon="2.9482052"><ele>0.0</ele><time>2026-04-30T11:21:43.055Z</time></trkpt><trkpt lat="41.6020197" lon="2.9483098"><ele>0.0</ele><time>2026-04-30T11:21:44.056Z</time></trkpt><trkpt lat="41.6020644" lon="2.9484127"><ele>0.0</ele><time>2026-04-30T11:21:45.055Z</time></trkpt><trkpt lat="41.6021065" lon="2.9485151"><ele>0.0</ele><time>2026-04-30T11:21:46.056Z</time></trkpt><trkpt lat="41.602148" lon="2.9486165"><ele>0.0</ele><time>2026-04-30T11:21:47.056Z</time></trkpt><trkpt lat="41.60219" lon="2.9487182"><ele>0.0</ele><time>2026-04-30T11:21:48.055Z</time></trkpt><trkpt lat="41.6022335" lon="2.9488154"><ele>0.0</ele><time>2026-04-30T11:21:49.055Z</time></trkpt><trkpt lat="41.6022736" lon="2.9489166"><ele>0.0</ele><time>2026-04-30T11:21:50.056Z</time></trkpt><trkpt lat="41.6023121" lon="2.949017"><ele>0.0</ele><time>2026-04-30T11:21:51.055Z</time></trkpt><trkpt lat="41.6023513" lon="2.949117"><ele>0.0</ele><time>2026-04-30T11:21:52.055Z</time></trkpt><trkpt lat="41.6023915" lon="2.9492199"><ele>0.0</ele><time>2026-04-30T11:21:53.056Z</time></trkpt><trkpt lat="41.6024774" lon="2.9494253"><ele>0.0</ele><time>2026-04-30T11:21:55.055Z</time></trkpt><trkpt lat="41.6025211" lon="2.9495268"><ele>0.0</ele><time>2026-04-30T11:21:56.056Z</time></trkpt><trkpt lat="41.6025633" lon="2.9496284"><ele>0.0</ele><time>2026-04-30T11:21:57.055Z</time></trkpt><trkpt lat="41.6026046" lon="2.9497315"><ele>0.0</ele><time>2026-04-30T11:21:58.055Z</time></trkpt><trkpt lat="41.6026465" lon="2.949835"><ele>0.0</ele><time>2026-04-30T11:21:59.056Z</time></trkpt><trkpt lat="41.602695" lon="2.9499341"><ele>0.0</ele><time>2026-04-30T11:22:00.055Z</time></trkpt><trkpt lat="41.6027414" lon="2.950032"><ele>0.0</ele><time>2026-04-30T11:22:01.056Z</time></trkpt><trkpt lat="41.6027847" lon="2.9501319"><ele>0.0</ele><time>2026-04-30T11:22:02.055Z</time></trkpt><trkpt lat="41.602828" lon="2.9502304"><ele>0.0</ele><time>2026-04-30T11:22:03.056Z</time></trkpt><trkpt lat="41.6028685" lon="2.9503316"><ele>0.0</ele><time>2026-04-30T11:22:04.055Z</time></trkpt><trkpt lat="41.6029087" lon="2.9504315"><ele>0.0</ele><time>2026-04-30T11:22:05.056Z</time></trkpt><trkpt lat="41.6029486" lon="2.9505345"><ele>0.0</ele><time>2026-04-30T11:22:06.055Z</time></trkpt><trkpt lat="41.6029857" lon="2.9506411"><ele>0.0</ele><time>2026-04-30T11:22:07.055Z</time></trkpt><trkpt lat="41.6030255" lon="2.9507476"><ele>0.0</ele><time>2026-04-30T11:22:08.056Z</time></trkpt><trkpt lat="41.603064" lon="2.9508457"><ele>0.0</ele><time>2026-04-30T11:22:09.056Z</time></trkpt><trkpt lat="41.6031037" lon="2.9509466"><ele>0.0</ele><time>2026-04-30T11:22:10.055Z</time></trkpt><trkpt lat="41.6031466" lon="2.9510499"><ele>0.0</ele><time>2026-04-30T11:22:11.055Z</time></trkpt><trkpt lat="41.603187" lon="2.9511502"><ele>0.0</ele><time>2026-04-30T11:22:12.055Z</time></trkpt><trkpt lat="41.6032309" lon="2.9512491"><ele>0.0</ele><time>2026-04-30T11:22:13.055Z</time></trkpt><trkpt lat="41.6032757" lon="2.9513518"><ele>0.0</ele><time>2026-04-30T11:22:14.056Z</time></trkpt><trkpt lat="41.603357" lon="2.9515569"><ele>0.0</ele><time>2026-04-30T11:22:16.056Z</time></trkpt><trkpt lat="41.6033969" lon="2.9516599"><ele>0.0</ele><time>2026-04-30T11:22:17.056Z</time></trkpt><trkpt lat="41.6034367" lon="2.9517634"><ele>0.0</ele><time>2026-04-30T11:22:18.055Z</time></trkpt><trkpt lat="41.6034726" lon="2.9518652"><ele>0.0</ele><time>2026-04-30T11:22:19.056Z</time></trkpt><trkpt lat="41.6035115" lon="2.9519726"><ele>0.0</ele><time>2026-04-30T11:22:20.056Z</time></trkpt><trkpt lat="41.6035473" lon="2.9520752"><ele>0.0</ele><time>2026-04-30T11:22:21.055Z</time></trkpt><trkpt lat="41.6035864" lon="2.9521783"><ele>0.0</ele><time>2026-04-30T11:22:22.056Z</time></trkpt><trkpt lat="41.6036207" lon="2.9522888"><ele>0.0</ele><time>2026-04-30T11:22:23.055Z</time></trkpt><trkpt lat="41.6036572" lon="2.9523902"><ele>0.0</ele><time>2026-04-30T11:22:24.056Z</time></trkpt><trkpt lat="41.6036998" lon="2.9524916"><ele>0.0</ele><time>2026-04-30T11:22:25.056Z</time></trkpt><trkpt lat="41.6037431" lon="2.9525932"><ele>0.0</ele><time>2026-04-30T11:22:26.055Z</time></trkpt><trkpt lat="41.6037838" lon="2.9526906"><ele>0.0</ele><time>2026-04-30T11:22:27.056Z</time></trkpt><trkpt lat="41.6038237" lon="2.9527903"><ele>0.0</ele><time>2026-04-30T11:22:28.055Z</time></trkpt><trkpt lat="41.6038607" lon="2.9528946"><ele>0.0</ele><time>2026-04-30T11:22:29.055Z</time></trkpt><trkpt lat="41.6038985" lon="2.9529966"><ele>0.0</ele><time>2026-04-30T11:22:30.055Z</time></trkpt><trkpt lat="41.6039354" lon="2.9530999"><ele>0.0</ele><time>2026-04-30T11:22:31.056Z</time></trkpt><trkpt lat="41.6039734" lon="2.9532029"><ele>0.0</ele><time>2026-04-30T11:22:32.056Z</time></trkpt><trkpt lat="41.6040098" lon="2.9533091"><ele>0.0</ele><time>2026-04-30T11:22:33.056Z</time></trkpt><trkpt lat="41.6040513" lon="2.9534118"><ele>0.0</ele><time>2026-04-30T11:22:34.055Z</time></trkpt><trkpt lat="41.6040904" lon="2.9535131"><ele>0.0</ele><time>2026-04-30T11:22:35.055Z</time></trkpt><trkpt lat="41.6041671" lon="2.9537151"><ele>0.0</ele><time>2026-04-30T11:22:37.055Z</time></trkpt><trkpt lat="41.6042122" lon="2.9538182"><ele>0.0</ele><time>2026-04-30T11:22:38.055Z</time></trkpt><trkpt lat="41.6042563" lon="2.9539227"><ele>0.0</ele><time>2026-04-30T11:22:39.056Z</time></trkpt><trkpt lat="41.604294" lon="2.954028"><ele>0.0</ele><time>2026-04-30T11:22:40.055Z</time></trkpt><trkpt lat="41.6043355" lon="2.9541282"><ele>0.0</ele><time>2026-04-30T11:22:41.055Z</time></trkpt><trkpt lat="41.6043768" lon="2.9542299"><ele>0.0</ele><time>2026-04-30T11:22:42.056Z</time></trkpt><trkpt lat="41.6044169" lon="2.9543315"><ele>0.0</ele><time>2026-04-30T11:22:43.055Z</time></trkpt><trkpt lat="41.6044566" lon="2.9544348"><ele>0.0</ele><time>2026-04-30T11:22:44.056Z</time></trkpt><trkpt lat="41.6044949" lon="2.9545355"><ele>0.0</ele><time>2026-04-30T11:22:45.056Z</time></trkpt><trkpt lat="41.6045362" lon="2.9546368"><ele>0.0</ele><time>2026-04-30T11:22:46.056Z</time></trkpt><trkpt lat="41.6045789" lon="2.9547382"><ele>0.0</ele><time>2026-04-30T11:22:47.056Z</time></trkpt><trkpt lat="41.6046196" lon="2.9548413"><ele>0.0</ele><time>2026-04-30T11:22:48.055Z</time></trkpt><trkpt lat="41.6046627" lon="2.9549473"><ele>0.0</ele><time>2026-04-30T11:22:49.056Z</time></trkpt><trkpt lat="41.6047047" lon="2.9550514"><ele>0.0</ele><time>2026-04-30T11:22:50.055Z</time></trkpt><trkpt lat="41.6047434" lon="2.9551506"><ele>0.0</ele><time>2026-04-30T11:22:51.055Z</time></trkpt><trkpt lat="41.6047802" lon="2.9552473"><ele>0.0</ele><time>2026-04-30T11:22:52.056Z</time></trkpt><trkpt lat="41.6048227" lon="2.9553541"><ele>0.0</ele><time>2026-04-30T11:22:53.056Z</time></trkpt><trkpt lat="41.6048665" lon="2.955454"><ele>0.0</ele><time>2026-04-30T11:22:54.055Z</time></trkpt><trkpt lat="41.6049081" lon="2.9555551"><ele>0.0</ele><time>2026-04-30T11:22:55.056Z</time></trkpt><trkpt lat="41.6049512" lon="2.9556567"><ele>0.0</ele><time>2026-04-30T11:22:56.055Z</time></trkpt><trkpt lat="41.605035" lon="2.9558573"><ele>0.0</ele><time>2026-04-30T11:22:58.055Z</time></trkpt><trkpt lat="41.6050749" lon="2.9559586"><ele>0.0</ele><time>2026-04-30T11:22:59.056Z</time></trkpt><trkpt lat="41.6051148" lon="2.9560658"><ele>0.0</ele><time>2026-04-30T11:23:00.056Z</time></trkpt><trkpt lat="41.6051578" lon="2.9561697"><ele>0.0</ele><time>2026-04-30T11:23:01.056Z</time></trkpt><trkpt lat="41.6051981" lon="2.9562718"><ele>0.0</ele><time>2026-04-30T11:23:02.055Z</time></trkpt><trkpt lat="41.6052396" lon="2.9563764"><ele>0.0</ele><time>2026-04-30T11:23:03.056Z</time></trkpt><trkpt lat="41.6052786" lon="2.9564756"><ele>0.0</ele><time>2026-04-30T11:23:04.055Z</time></trkpt><trkpt lat="41.60532" lon="2.9565722"><ele>0.0</ele><time>2026-04-30T11:23:05.056Z</time></trkpt><trkpt lat="41.6053626" lon="2.9566792"><ele>0.0</ele><time>2026-04-30T11:23:06.055Z</time></trkpt><trkpt lat="41.6054118" lon="2.9567804"><ele>0.0</ele><time>2026-04-30T11:23:07.056Z</time></trkpt><trkpt lat="41.6054617" lon="2.9568792"><ele>0.0</ele><time>2026-04-30T11:23:08.055Z</time></trkpt><trkpt lat="41.605506" lon="2.9569732"><ele>0.0</ele><time>2026-04-30T11:23:09.056Z</time></trkpt><trkpt lat="41.605548" lon="2.9570778"><ele>0.0</ele><time>2026-04-30T11:23:10.056Z</time></trkpt><trkpt lat="41.6055916" lon="2.9571769"><ele>0.0</ele><time>2026-04-30T11:23:11.055Z</time></trkpt><trkpt lat="41.605632" lon="2.957277"><ele>0.0</ele><time>2026-04-30T11:23:12.056Z</time></trkpt><trkpt lat="41.6056705" lon="2.9573711"><ele>0.0</ele><time>2026-04-30T11:23:13.056Z</time></trkpt><trkpt lat="41.6057073" lon="2.9574703"><ele>0.0</ele><time>2026-04-30T11:23:14.055Z</time></trkpt><trkpt lat="41.605744" lon="2.9575704"><ele>0.0</ele><time>2026-04-30T11:23:15.056Z</time></trkpt><trkpt lat="41.6057815" lon="2.9576791"><ele>0.0</ele><time>2026-04-30T11:23:16.055Z</time></trkpt><trkpt lat="41.6058143" lon="2.9577791"><ele>0.0</ele><time>2026-04-30T11:23:17.056Z</time></trkpt><trkpt lat="41.6058808" lon="2.9579836"><ele>0.0</ele><time>2026-04-30T11:23:19.055Z</time></trkpt><trkpt lat="41.6059156" lon="2.958094"><ele>0.0</ele><time>2026-04-30T11:23:20.055Z</time></trkpt><trkpt lat="41.6059522" lon="2.9581969"><ele>0.0</ele><time>2026-04-30T11:23:21.056Z</time></trkpt><trkpt lat="41.6059816" lon="2.9583059"><ele>0.0</ele><time>2026-04-30T11:23:22.055Z</time></trkpt><trkpt lat="41.6060143" lon="2.9584143"><ele>0.0</ele><time>2026-04-30T11:23:23.055Z</time></trkpt><trkpt lat="41.6060477" lon="2.9585202"><ele>0.0</ele><time>2026-04-30T11:23:24.056Z</time></trkpt><trkpt lat="41.6060848" lon="2.9586233"><ele>0.0</ele><time>2026-04-30T11:23:25.055Z</time></trkpt><trkpt lat="41.6061132" lon="2.9587282"><ele>0.0</ele><time>2026-04-30T11:23:26.055Z</time></trkpt><trkpt lat="41.60615" lon="2.9588319"><ele>0.0</ele><time>2026-04-30T11:23:27.055Z</time></trkpt><trkpt lat="41.6061841" lon="2.9589339"><ele>0.0</ele><time>2026-04-30T11:23:28.055Z</time></trkpt><trkpt lat="41.6062217" lon="2.9590352"><ele>0.0</ele><time>2026-04-30T11:23:29.056Z</time></trkpt><trkpt lat="41.6062603" lon="2.9591353"><ele>0.0</ele><time>2026-04-30T11:23:30.055Z</time></trkpt><trkpt lat="41.6062949" lon="2.9592393"><ele>0.0</ele><time>2026-04-30T11:23:31.055Z</time></trkpt><trkpt lat="41.6063354" lon="2.9593417"><ele>0.0</ele><time>2026-04-30T11:23:32.056Z</time></trkpt><trkpt lat="41.6063742" lon="2.9594447"><ele>0.0</ele><time>2026-04-30T11:23:33.055Z</time></trkpt><trkpt lat="41.6064103" lon="2.9595469"><ele>0.0</ele><time>2026-04-30T11:23:34.055Z</time></trkpt><trkpt lat="41.6064456" lon="2.9596498"><ele>0.0</ele><time>2026-04-30T11:23:35.056Z</time></trkpt><trkpt lat="41.6064823" lon="2.9597529"><ele>0.0</ele><time>2026-04-30T11:23:36.055Z</time></trkpt><trkpt lat="41.606515" lon="2.9598605"><ele>0.0</ele><time>2026-04-30T11:23:37.055Z</time></trkpt><trkpt lat="41.606552" lon="2.959966"><ele>0.0</ele><time>2026-04-30T11:23:38.055Z</time></trkpt><trkpt lat="41.606621" lon="2.960173"><ele>0.0</ele><time>2026-04-30T11:23:40.056Z</time></trkpt><trkpt lat="41.606656" lon="2.9602779"><ele>0.0</ele><time>2026-04-30T11:23:41.055Z</time></trkpt><trkpt lat="41.6066938" lon="2.9603785"><ele>0.0</ele><time>2026-04-30T11:23:42.055Z</time></trkpt><trkpt lat="41.6067304" lon="2.9604814"><ele>0.0</ele><time>2026-04-30T11:23:43.055Z</time></trkpt><trkpt lat="41.6067739" lon="2.9605864"><ele>0.0</ele><time>2026-04-30T11:23:44.056Z</time></trkpt><trkpt lat="41.6068122" lon="2.9606885"><ele>0.0</ele><time>2026-04-30T11:23:45.056Z</time></trkpt><trkpt lat="41.6068487" lon="2.9607844"><ele>0.0</ele><time>2026-04-30T11:23:46.054Z</time></trkpt><trkpt lat="41.6068881" lon="2.9608837"><ele>0.0</ele><time>2026-04-30T11:23:47.054Z</time></trkpt><trkpt lat="41.606925" lon="2.9609851"><ele>0.0</ele><time>2026-04-30T11:23:48.055Z</time></trkpt><trkpt lat="41.6069604" lon="2.9610898"><ele>0.0</ele><time>2026-04-30T11:23:49.055Z</time></trkpt><trkpt lat="41.6069982" lon="2.961193"><ele>0.0</ele><time>2026-04-30T11:23:50.055Z</time></trkpt><trkpt lat="41.6070379" lon="2.9612967"><ele>0.0</ele><time>2026-04-30T11:23:51.054Z</time></trkpt><trkpt lat="41.6070813" lon="2.9613944"><ele>0.0</ele><time>2026-04-30T11:23:52.054Z</time></trkpt><trkpt lat="41.6071244" lon="2.9614936"><ele>0.0</ele><time>2026-04-30T11:23:53.054Z</time></trkpt><trkpt lat="41.6071665" lon="2.9615966"><ele>0.0</ele><time>2026-04-30T11:23:54.055Z</time></trkpt><trkpt lat="41.6072083" lon="2.9617017"><ele>0.0</ele><time>2026-04-30T11:23:55.055Z</time></trkpt><trkpt lat="41.6072526" lon="2.9618019"><ele>0.0</ele><time>2026-04-30T11:23:56.054Z</time></trkpt><trkpt lat="41.6072948" lon="2.9619036"><ele>0.0</ele><time>2026-04-30T11:23:57.054Z</time></trkpt><trkpt lat="41.607335" lon="2.9620035"><ele>0.0</ele><time>2026-04-30T11:23:58.054Z</time></trkpt><trkpt lat="41.6073778" lon="2.9621063"><ele>0.0</ele><time>2026-04-30T11:23:59.055Z</time></trkpt><trkpt lat="41.6074575" lon="2.9623116"><ele>0.0</ele><time>2026-04-30T11:24:01.055Z</time></trkpt><trkpt lat="41.6074937" lon="2.9624145"><ele>0.0</ele><time>2026-04-30T11:24:02.054Z</time></trkpt><trkpt lat="41.6075336" lon="2.9625165"><ele>0.0</ele><time>2026-04-30T11:24:03.055Z</time></trkpt><trkpt lat="41.607575" lon="2.9626181"><ele>0.0</ele><time>2026-04-30T11:24:04.054Z</time></trkpt><trkpt lat="41.6076148" lon="2.9627156"><ele>0.0</ele><time>2026-04-30T11:24:05.054Z</time></trkpt><trkpt lat="41.6076576" lon="2.9628162"><ele>0.0</ele><time>2026-04-30T11:24:06.054Z</time></trkpt><trkpt lat="41.6076983" lon="2.9629184"><ele>0.0</ele><time>2026-04-30T11:24:07.054Z</time></trkpt><trkpt lat="41.60774" lon="2.9630212"><ele>0.0</ele><time>2026-04-30T11:24:08.054Z</time></trkpt><trkpt lat="41.6077786" lon="2.9631217"><ele>0.0</ele><time>2026-04-30T11:24:09.054Z</time></trkpt><trkpt lat="41.6078187" lon="2.96322"><ele>0.0</ele><time>2026-04-30T11:24:10.055Z</time></trkpt><trkpt lat="41.607857" lon="2.9633215"><ele>0.0</ele><time>2026-04-30T11:24:11.055Z</time></trkpt><trkpt lat="41.6078968" lon="2.9634246"><ele>0.0</ele><time>2026-04-30T11:24:12.054Z</time></trkpt><trkpt lat="41.6079298" lon="2.9635292"><ele>0.0</ele><time>2026-04-30T11:24:13.054Z</time></trkpt><trkpt lat="41.6079638" lon="2.9636332"><ele>0.0</ele><time>2026-04-30T11:24:14.055Z</time></trkpt><trkpt lat="41.6080423" lon="2.9638412"><ele>0.0</ele><time>2026-04-30T11:24:16.055Z</time></trkpt><trkpt lat="41.6080793" lon="2.9639477"><ele>0.0</ele><time>2026-04-30T11:24:17.055Z</time></trkpt><trkpt lat="41.6081184" lon="2.9640544"><ele>0.0</ele><time>2026-04-30T11:24:18.054Z</time></trkpt><trkpt lat="41.6081572" lon="2.9641572"><ele>0.0</ele><time>2026-04-30T11:24:19.054Z</time></trkpt><trkpt lat="41.6081937" lon="2.964259"><ele>0.0</ele><time>2026-04-30T11:24:20.054Z</time></trkpt><trkpt lat="41.6082702" lon="2.9644652"><ele>0.0</ele><time>2026-04-30T11:24:22.055Z</time></trkpt><trkpt lat="41.6083117" lon="2.9645671"><ele>0.0</ele><time>2026-04-30T11:24:23.055Z</time></trkpt><trkpt lat="41.6083503" lon="2.9646671"><ele>0.0</ele><time>2026-04-30T11:24:24.054Z</time></trkpt><trkpt lat="41.6083859" lon="2.9647698"><ele>0.0</ele><time>2026-04-30T11:24:25.054Z</time></trkpt><trkpt lat="41.6084233" lon="2.9648698"><ele>0.0</ele><time>2026-04-30T11:24:26.054Z</time></trkpt><trkpt lat="41.6084632" lon="2.9649684"><ele>0.0</ele><time>2026-04-30T11:24:27.055Z</time></trkpt><trkpt lat="41.6085016" lon="2.9650696"><ele>0.0</ele><time>2026-04-30T11:24:28.054Z</time></trkpt><trkpt lat="41.608543" lon="2.9651728"><ele>0.0</ele><time>2026-04-30T11:24:29.055Z</time></trkpt><trkpt lat="41.6085833" lon="2.965275"><ele>0.0</ele><time>2026-04-30T11:24:30.054Z</time></trkpt><trkpt lat="41.6086204" lon="2.9653797"><ele>0.0</ele><time>2026-04-30T11:24:31.054Z</time></trkpt><trkpt lat="41.60866" lon="2.9654833"><ele>0.0</ele><time>2026-04-30T11:24:32.055Z</time></trkpt><trkpt lat="41.6087015" lon="2.9655879"><ele>0.0</ele><time>2026-04-30T11:24:33.054Z</time></trkpt><trkpt lat="41.6087401" lon="2.9656916"><ele>0.0</ele><time>2026-04-30T11:24:34.055Z</time></trkpt><trkpt lat="41.6087766" lon="2.9657963"><ele>0.0</ele><time>2026-04-30T11:24:35.055Z</time></trkpt><trkpt lat="41.6088204" lon="2.9658986"><ele>0.0</ele><time>2026-04-30T11:24:36.054Z</time></trkpt><trkpt lat="41.6088613" lon="2.9660016"><ele>0.0</ele><time>2026-04-30T11:24:37.055Z</time></trkpt><trkpt lat="41.6089" lon="2.9661075"><ele>0.0</ele><time>2026-04-30T11:24:38.054Z</time></trkpt><trkpt lat="41.6089419" lon="2.9662129"><ele>0.0</ele><time>2026-04-30T11:24:39.055Z</time></trkpt><trkpt lat="41.6089806" lon="2.9663183"><ele>0.0</ele><time>2026-04-30T11:24:40.054Z</time></trkpt><trkpt lat="41.6090172" lon="2.9664187"><ele>0.0</ele><time>2026-04-30T11:24:41.055Z</time></trkpt><trkpt lat="41.6090963" lon="2.9666235"><ele>0.0</ele><time>2026-04-30T11:24:43.055Z</time></trkpt><trkpt lat="41.6091297" lon="2.9667288"><ele>0.0</ele><time>2026-04-30T11:24:44.054Z</time></trkpt><trkpt lat="41.6091669" lon="2.9668285"><ele>0.0</ele><time>2026-04-30T11:24:45.055Z</time></trkpt><trkpt lat="41.6092066" lon="2.9669329"><ele>0.0</ele><time>2026-04-30T11:24:46.054Z</time></trkpt><trkpt lat="41.6092467" lon="2.9670412"><ele>0.0</ele><time>2026-04-30T11:24:47.055Z</time></trkpt><trkpt lat="41.6092868" lon="2.9671447"><ele>0.0</ele><time>2026-04-30T11:24:48.055Z</time></trkpt><trkpt lat="41.6093251" lon="2.9672495"><ele>0.0</ele><time>2026-04-30T11:24:49.054Z</time></trkpt><trkpt lat="41.6093676" lon="2.9673507"><ele>0.0</ele><time>2026-04-30T11:24:50.054Z</time></trkpt><trkpt lat="41.6094083" lon="2.9674563"><ele>0.0</ele><time>2026-04-30T11:24:51.055Z</time></trkpt><trkpt lat="41.6094481" lon="2.9675575"><ele>0.0</ele><time>2026-04-30T11:24:52.055Z</time></trkpt><trkpt lat="41.609491" lon="2.9676587"><ele>0.0</ele><time>2026-04-30T11:24:53.054Z</time></trkpt><trkpt lat="41.6095273" lon="2.9677619"><ele>0.0</ele><time>2026-04-30T11:24:54.054Z</time></trkpt><trkpt lat="41.6095664" lon="2.9678649"><ele>0.0</ele><time>2026-04-30T11:24:55.054Z</time></trkpt><trkpt lat="41.6096008" lon="2.967973"><ele>0.0</ele><time>2026-04-30T11:24:56.055Z</time></trkpt><trkpt lat="41.6096382" lon="2.9680741"><ele>0.0</ele><time>2026-04-30T11:24:57.054Z</time></trkpt><trkpt lat="41.6096765" lon="2.9681737"><ele>0.0</ele><time>2026-04-30T11:24:58.055Z</time></trkpt><trkpt lat="41.609715" lon="2.9682749"><ele>0.0</ele><time>2026-04-30T11:24:59.055Z</time></trkpt><trkpt lat="41.6097552" lon="2.968377"><ele>0.0</ele><time>2026-04-30T11:25:00.055Z</time></trkpt><trkpt lat="41.6097933" lon="2.9684788"><ele>0.0</ele><time>2026-04-30T11:25:01.054Z</time></trkpt><trkpt lat="41.6098343" lon="2.96858"><ele>0.0</ele><time>2026-04-30T11:25:02.054Z</time></trkpt><trkpt lat="41.609918" lon="2.96879"><ele>0.0</ele><time>2026-04-30T11:25:04.054Z</time></trkpt><trkpt lat="41.6099569" lon="2.968895"><ele>0.0</ele><time>2026-04-30T11:25:05.055Z</time></trkpt><trkpt lat="41.6099966" lon="2.9689969"><ele>0.0</ele><time>2026-04-30T11:25:06.055Z</time></trkpt><trkpt lat="41.6100379" lon="2.9690984"><ele>0.0</ele><time>2026-04-30T11:25:07.054Z</time></trkpt><trkpt lat="41.6100797" lon="2.9691985"><ele>0.0</ele><time>2026-04-30T11:25:08.055Z</time></trkpt><trkpt lat="41.6101214" lon="2.9693042"><ele>0.0</ele><time>2026-04-30T11:25:09.054Z</time></trkpt><trkpt lat="41.6101617" lon="2.9694114"><ele>0.0</ele><time>2026-04-30T11:25:10.054Z</time></trkpt><trkpt lat="41.6102017" lon="2.9695166"><ele>0.0</ele><time>2026-04-30T11:25:11.055Z</time></trkpt><trkpt lat="41.6102401" lon="2.9696213"><ele>0.0</ele><time>2026-04-30T11:25:12.055Z</time></trkpt><trkpt lat="41.61028" lon="2.9697265"><ele>0.0</ele><time>2026-04-30T11:25:13.054Z</time></trkpt><trkpt lat="41.6103204" lon="2.9698285"><ele>0.0</ele><time>2026-04-30T11:25:14.054Z</time></trkpt><trkpt lat="41.6103545" lon="2.9699329"><ele>0.0</ele><time>2026-04-30T11:25:15.055Z</time></trkpt><trkpt lat="41.6103921" lon="2.9700347"><ele>0.0</ele><time>2026-04-30T11:25:16.054Z</time></trkpt><trkpt lat="41.6104248" lon="2.9701396"><ele>0.0</ele><time>2026-04-30T11:25:17.054Z</time></trkpt><trkpt lat="41.6104578" lon="2.9702417"><ele>0.0</ele><time>2026-04-30T11:25:18.054Z</time></trkpt><trkpt lat="41.6105356" lon="2.9704469"><ele>0.0</ele><time>2026-04-30T11:25:20.054Z</time></trkpt><trkpt lat="41.6105726" lon="2.9705427"><ele>0.0</ele><time>2026-04-30T11:25:21.054Z</time></trkpt><trkpt lat="41.6106076" lon="2.9706447"><ele>0.0</ele><time>2026-04-30T11:25:22.055Z</time></trkpt><trkpt lat="41.6106467" lon="2.9707453"><ele>0.0</ele><time>2026-04-30T11:25:23.054Z</time></trkpt><trkpt lat="41.6107164" lon="2.9709532"><ele>0.0</ele><time>2026-04-30T11:25:25.055Z</time></trkpt><trkpt lat="41.6107509" lon="2.9710553"><ele>0.0</ele><time>2026-04-30T11:25:26.055Z</time></trkpt><trkpt lat="41.6107871" lon="2.9711595"><ele>0.0</ele><time>2026-04-30T11:25:27.055Z</time></trkpt><trkpt lat="41.6108278" lon="2.9712605"><ele>0.0</ele><time>2026-04-30T11:25:28.055Z</time></trkpt><trkpt lat="41.6108714" lon="2.971363"><ele>0.0</ele><time>2026-04-30T11:25:29.054Z</time></trkpt><trkpt lat="41.6109195" lon="2.9714747"><ele>0.0</ele><time>2026-04-30T11:25:30.055Z</time></trkpt><trkpt lat="41.6109624" lon="2.9715799"><ele>0.0</ele><time>2026-04-30T11:25:31.054Z</time></trkpt><trkpt lat="41.611005" lon="2.9716805"><ele>0.0</ele><time>2026-04-30T11:25:32.055Z</time></trkpt><trkpt lat="41.6110468" lon="2.9717831"><ele>0.0</ele><time>2026-04-30T11:25:33.055Z</time></trkpt><trkpt lat="41.6110854" lon="2.9718851"><ele>0.0</ele><time>2026-04-30T11:25:34.054Z</time></trkpt><trkpt lat="41.6111237" lon="2.9719867"><ele>0.0</ele><time>2026-04-30T11:25:35.055Z</time></trkpt><trkpt lat="41.6111618" lon="2.9720883"><ele>0.0</ele><time>2026-04-30T11:25:36.055Z</time></trkpt><trkpt lat="41.6112033" lon="2.9721855"><ele>0.0</ele><time>2026-04-30T11:25:37.054Z</time></trkpt><trkpt lat="41.6112433" lon="2.9722894"><ele>0.0</ele><time>2026-04-30T11:25:38.055Z</time></trkpt><trkpt lat="41.6112863" lon="2.9723931"><ele>0.0</ele><time>2026-04-30T11:25:39.054Z</time></trkpt><trkpt lat="41.61133" lon="2.9724935"><ele>0.0</ele><time>2026-04-30T11:25:40.055Z</time></trkpt><trkpt lat="41.6113719" lon="2.9725905"><ele>0.0</ele><time>2026-04-30T11:25:41.054Z</time></trkpt><trkpt lat="41.6114093" lon="2.9726914"><ele>0.0</ele><time>2026-04-30T11:25:42.054Z</time></trkpt><trkpt lat="41.6114489" lon="2.9727908"><ele>0.0</ele><time>2026-04-30T11:25:43.055Z</time></trkpt><trkpt lat="41.6114892" lon="2.9728903"><ele>0.0</ele><time>2026-04-30T11:25:44.054Z</time></trkpt><trkpt lat="41.6115657" lon="2.9730917"><ele>0.0</ele><time>2026-04-30T11:25:46.054Z</time></trkpt><trkpt lat="41.6116068" lon="2.9731918"><ele>0.0</ele><time>2026-04-30T11:25:47.054Z</time></trkpt><trkpt lat="41.6116484" lon="2.9732947"><ele>0.0</ele><time>2026-04-30T11:25:48.054Z</time></trkpt><trkpt lat="41.6116885" lon="2.9733969"><ele>0.0</ele><time>2026-04-30T11:25:49.054Z</time></trkpt><trkpt lat="41.6117328" lon="2.9734954"><ele>0.0</ele><time>2026-04-30T11:25:50.054Z</time></trkpt><trkpt lat="41.6117779" lon="2.9735922"><ele>0.0</ele><time>2026-04-30T11:25:51.054Z</time></trkpt><trkpt lat="41.6118246" lon="2.9736931"><ele>0.0</ele><time>2026-04-30T11:25:52.054Z</time></trkpt><trkpt lat="41.6118701" lon="2.9737951"><ele>0.0</ele><time>2026-04-30T11:25:53.054Z</time></trkpt><trkpt lat="41.6119109" lon="2.9738952"><ele>0.0</ele><time>2026-04-30T11:25:54.055Z</time></trkpt><trkpt lat="41.6119532" lon="2.9739979"><ele>0.0</ele><time>2026-04-30T11:25:55.054Z</time></trkpt><trkpt lat="41.611992" lon="2.9741034"><ele>0.0</ele><time>2026-04-30T11:25:56.054Z</time></trkpt><trkpt lat="41.61203" lon="2.9742097"><ele>0.0</ele><time>2026-04-30T11:25:57.054Z</time></trkpt><trkpt lat="41.6120696" lon="2.9743089"><ele>0.0</ele><time>2026-04-30T11:25:58.054Z</time></trkpt><trkpt lat="41.61211" lon="2.9744128"><ele>0.0</ele><time>2026-04-30T11:25:59.054Z</time></trkpt><trkpt lat="41.6121505" lon="2.9745167"><ele>0.0</ele><time>2026-04-30T11:26:00.055Z</time></trkpt><trkpt lat="41.6121843" lon="2.9746213"><ele>0.0</ele><time>2026-04-30T11:26:01.055Z</time></trkpt><trkpt lat="41.6122174" lon="2.9747261"><ele>0.0</ele><time>2026-04-30T11:26:02.054Z</time></trkpt><trkpt lat="41.6122522" lon="2.9748341"><ele>0.0</ele><time>2026-04-30T11:26:03.054Z</time></trkpt><trkpt lat="41.6122871" lon="2.9749416"><ele>0.0</ele><time>2026-04-30T11:26:04.054Z</time></trkpt><trkpt lat="41.612322" lon="2.9750494"><ele>0.0</ele><time>2026-04-30T11:26:05.054Z</time></trkpt><trkpt lat="41.6123904" lon="2.9752606"><ele>0.0</ele><time>2026-04-30T11:26:07.055Z</time></trkpt><trkpt lat="41.6124249" lon="2.9753603"><ele>0.0</ele><time>2026-04-30T11:26:08.054Z</time></trkpt><trkpt lat="41.6124616" lon="2.9754628"><ele>0.0</ele><time>2026-04-30T11:26:09.055Z</time></trkpt><trkpt lat="41.6125009" lon="2.9755682"><ele>0.0</ele><time>2026-04-30T11:26:10.055Z</time></trkpt><trkpt lat="41.6125313" lon="2.9756759"><ele>0.0</ele><time>2026-04-30T11:26:11.055Z</time></trkpt><trkpt lat="41.6125681" lon="2.9757784"><ele>0.0</ele><time>2026-04-30T11:26:12.054Z</time></trkpt><trkpt lat="41.612608" lon="2.9758847"><ele>0.0</ele><time>2026-04-30T11:26:13.055Z</time></trkpt><trkpt lat="41.6126481" lon="2.9759902"><ele>0.0</ele><time>2026-04-30T11:26:14.054Z</time></trkpt><trkpt lat="41.6126867" lon="2.9760924"><ele>0.0</ele><time>2026-04-30T11:26:15.055Z</time></trkpt><trkpt lat="41.6127248" lon="2.9761906"><ele>0.0</ele><time>2026-04-30T11:26:16.055Z</time></trkpt><trkpt lat="41.6127647" lon="2.9762902"><ele>0.0</ele><time>2026-04-30T11:26:17.054Z</time></trkpt><trkpt lat="41.6128066" lon="2.9763913"><ele>0.0</ele><time>2026-04-30T11:26:18.055Z</time></trkpt><trkpt lat="41.6128483" lon="2.9764898"><ele>0.0</ele><time>2026-04-30T11:26:19.055Z</time></trkpt><trkpt lat="41.6128898" lon="2.9765902"><ele>0.0</ele><time>2026-04-30T11:26:20.055Z</time></trkpt><trkpt lat="41.6129289" lon="2.9766918"><ele>0.0</ele><time>2026-04-30T11:26:21.055Z</time></trkpt><trkpt lat="41.6129657" lon="2.9767948"><ele>0.0</ele><time>2026-04-30T11:26:22.054Z</time></trkpt><trkpt lat="41.6130336" lon="2.9770064"><ele>0.0</ele><time>2026-04-30T11:26:24.055Z</time></trkpt><trkpt lat="41.61307" lon="2.9771128"><ele>0.0</ele><time>2026-04-30T11:26:25.054Z</time></trkpt><trkpt lat="41.61311" lon="2.9772182"><ele>0.0</ele><time>2026-04-30T11:26:26.054Z</time></trkpt><trkpt lat="41.6131866" lon="2.9774268"><ele>0.0</ele><time>2026-04-30T11:26:28.055Z</time></trkpt><trkpt lat="41.6132247" lon="2.97753"><ele>0.0</ele><time>2026-04-30T11:26:29.055Z</time></trkpt><trkpt lat="41.6132616" lon="2.9776363"><ele>0.0</ele><time>2026-04-30T11:26:30.054Z</time></trkpt><trkpt lat="41.6133014" lon="2.9777458"><ele>0.0</ele><time>2026-04-30T11:26:31.054Z</time></trkpt><trkpt lat="41.6133397" lon="2.9778501"><ele>0.0</ele><time>2026-04-30T11:26:32.054Z</time></trkpt><trkpt lat="41.6133762" lon="2.9779565"><ele>0.0</ele><time>2026-04-30T11:26:33.054Z</time></trkpt><trkpt lat="41.6134164" lon="2.9780589"><ele>0.0</ele><time>2026-04-30T11:26:34.054Z</time></trkpt><trkpt lat="41.613455" lon="2.9781588"><ele>0.0</ele><time>2026-04-30T11:26:35.055Z</time></trkpt><trkpt lat="41.6134903" lon="2.9782627"><ele>0.0</ele><time>2026-04-30T11:26:36.055Z</time></trkpt><trkpt lat="41.6135269" lon="2.9783707"><ele>0.0</ele><time>2026-04-30T11:26:37.054Z</time></trkpt><trkpt lat="41.6135609" lon="2.9784748"><ele>0.0</ele><time>2026-04-30T11:26:38.055Z</time></trkpt><trkpt lat="41.6135955" lon="2.9785787"><ele>0.0</ele><time>2026-04-30T11:26:39.055Z</time></trkpt><trkpt lat="41.6136288" lon="2.9786804"><ele>0.0</ele><time>2026-04-30T11:26:40.054Z</time></trkpt><trkpt lat="41.6136648" lon="2.9787823"><ele>0.0</ele><time>2026-04-30T11:26:41.055Z</time></trkpt><trkpt lat="41.6136987" lon="2.9788867"><ele>0.0</ele><time>2026-04-30T11:26:42.054Z</time></trkpt><trkpt lat="41.613732" lon="2.9789874"><ele>0.0</ele><time>2026-04-30T11:26:43.054Z</time></trkpt><trkpt lat="41.6137665" lon="2.9790888"><ele>0.0</ele><time>2026-04-30T11:26:44.054Z</time></trkpt><trkpt lat="41.6138069" lon="2.9791903"><ele>0.0</ele><time>2026-04-30T11:26:45.055Z</time></trkpt><trkpt lat="41.6138478" lon="2.9792978"><ele>0.0</ele><time>2026-04-30T11:26:46.055Z</time></trkpt><trkpt lat="41.6138866" lon="2.9794046"><ele>0.0</ele><time>2026-04-30T11:26:47.055Z</time></trkpt><trkpt lat="41.6139589" lon="2.9796153"><ele>0.0</ele><time>2026-04-30T11:26:49.054Z</time></trkpt><trkpt lat="41.6139924" lon="2.9797183"><ele>0.0</ele><time>2026-04-30T11:26:50.055Z</time></trkpt><trkpt lat="41.6140237" lon="2.9798246"><ele>0.0</ele><time>2026-04-30T11:26:51.055Z</time></trkpt><trkpt lat="41.6140614" lon="2.9799298"><ele>0.0</ele><time>2026-04-30T11:26:52.055Z</time></trkpt><trkpt lat="41.6141096" lon="2.9800308"><ele>0.0</ele><time>2026-04-30T11:26:53.055Z</time></trkpt><trkpt lat="41.6141484" lon="2.9801307"><ele>0.0</ele><time>2026-04-30T11:26:54.055Z</time></trkpt><trkpt lat="41.6141827" lon="2.9802317"><ele>0.0</ele><time>2026-04-30T11:26:55.054Z</time></trkpt><trkpt lat="41.61422" lon="2.9803348"><ele>0.0</ele><time>2026-04-30T11:26:56.055Z</time></trkpt><trkpt lat="41.6142572" lon="2.9804384"><ele>0.0</ele><time>2026-04-30T11:26:57.054Z</time></trkpt><trkpt lat="41.6142912" lon="2.9805416"><ele>0.0</ele><time>2026-04-30T11:26:58.055Z</time></trkpt><trkpt lat="41.6143211" lon="2.980645"><ele>0.0</ele><time>2026-04-30T11:26:59.054Z</time></trkpt><trkpt lat="41.614351" lon="2.9807543"><ele>0.0</ele><time>2026-04-30T11:27:00.055Z</time></trkpt><trkpt lat="41.6143823" lon="2.9808605"><ele>0.0</ele><time>2026-04-30T11:27:01.054Z</time></trkpt><trkpt lat="41.6144154" lon="2.9809638"><ele>0.0</ele><time>2026-04-30T11:27:02.054Z</time></trkpt><trkpt lat="41.6144486" lon="2.981064"><ele>0.0</ele><time>2026-04-30T11:27:03.055Z</time></trkpt><trkpt lat="41.6144835" lon="2.9811649"><ele>0.0</ele><time>2026-04-30T11:27:04.055Z</time></trkpt><trkpt lat="41.6145154" lon="2.9812696"><ele>0.0</ele><time>2026-04-30T11:27:05.054Z</time></trkpt><trkpt lat="41.6145472" lon="2.9813777"><ele>0.0</ele><time>2026-04-30T11:27:06.055Z</time></trkpt><trkpt lat="41.614579" lon="2.9814893"><ele>0.0</ele><time>2026-04-30T11:27:07.054Z</time></trkpt><trkpt lat="41.6146166" lon="2.9815952"><ele>0.0</ele><time>2026-04-30T11:27:08.054Z</time></trkpt><trkpt lat="41.6146933" lon="2.981799"><ele>0.0</ele><time>2026-04-30T11:27:10.054Z</time></trkpt><trkpt lat="41.6147346" lon="2.9819002"><ele>0.0</ele><time>2026-04-30T11:27:11.054Z</time></trkpt><trkpt lat="41.6147767" lon="2.9820003"><ele>0.0</ele><time>2026-04-30T11:27:12.055Z</time></trkpt><trkpt lat="41.6148196" lon="2.9821047"><ele>0.0</ele><time>2026-04-30T11:27:13.054Z</time></trkpt><trkpt lat="41.6148619" lon="2.9822071"><ele>0.0</ele><time>2026-04-30T11:27:14.054Z</time></trkpt><trkpt lat="41.6149002" lon="2.98231"><ele>0.0</ele><time>2026-04-30T11:27:15.055Z</time></trkpt><trkpt lat="41.6149367" lon="2.9824135"><ele>0.0</ele><time>2026-04-30T11:27:16.054Z</time></trkpt><trkpt lat="41.6149735" lon="2.9825168"><ele>0.0</ele><time>2026-04-30T11:27:17.055Z</time></trkpt><trkpt lat="41.6150114" lon="2.982623"><ele>0.0</ele><time>2026-04-30T11:27:18.054Z</time></trkpt><trkpt lat="41.6150482" lon="2.982728"><ele>0.0</ele><time>2026-04-30T11:27:19.054Z</time></trkpt><trkpt lat="41.6150851" lon="2.9828302"><ele>0.0</ele><time>2026-04-30T11:27:20.055Z</time></trkpt><trkpt lat="41.6151245" lon="2.9829315"><ele>0.0</ele><time>2026-04-30T11:27:21.055Z</time></trkpt><trkpt lat="41.6151676" lon="2.983035"><ele>0.0</ele><time>2026-04-30T11:27:22.054Z</time></trkpt><trkpt lat="41.6152082" lon="2.9831399"><ele>0.0</ele><time>2026-04-30T11:27:23.054Z</time></trkpt><trkpt lat="41.6152455" lon="2.9832422"><ele>0.0</ele><time>2026-04-30T11:27:24.054Z</time></trkpt><trkpt lat="41.6152847" lon="2.9833476"><ele>0.0</ele><time>2026-04-30T11:27:25.054Z</time></trkpt><trkpt lat="41.6153237" lon="2.9834502"><ele>0.0</ele><time>2026-04-30T11:27:26.054Z</time></trkpt><trkpt lat="41.615369" lon="2.9835521"><ele>0.0</ele><time>2026-04-30T11:27:27.054Z</time></trkpt><trkpt lat="41.6154254" lon="2.9836529"><ele>0.0</ele><time>2026-04-30T11:27:28.055Z</time></trkpt><trkpt lat="41.6154639" lon="2.9837569"><ele>0.0</ele><time>2026-04-30T11:27:29.054Z</time></trkpt><trkpt lat="41.6155364" lon="2.9839709"><ele>0.0</ele><time>2026-04-30T11:27:31.054Z</time></trkpt><trkpt lat="41.6155724" lon="2.9840778"><ele>0.0</ele><time>2026-04-30T11:27:32.055Z</time></trkpt><trkpt lat="41.6156051" lon="2.9841857"><ele>0.0</ele><time>2026-04-30T11:27:33.054Z</time></trkpt><trkpt lat="41.6156353" lon="2.9842924"><ele>0.0</ele><time>2026-04-30T11:27:34.054Z</time></trkpt><trkpt lat="41.6156668" lon="2.9844007"><ele>0.0</ele><time>2026-04-30T11:27:35.055Z</time></trkpt><trkpt lat="41.6157059" lon="2.9845059"><ele>0.0</ele><time>2026-04-30T11:27:36.055Z</time></trkpt><trkpt lat="41.6157402" lon="2.9846119"><ele>0.0</ele><time>2026-04-30T11:27:37.054Z</time></trkpt><trkpt lat="41.6157723" lon="2.9847168"><ele>0.0</ele><time>2026-04-30T11:27:38.054Z</time></trkpt><trkpt lat="41.615803" lon="2.984823"><ele>0.0</ele><time>2026-04-30T11:27:39.054Z</time></trkpt><trkpt lat="41.6158368" lon="2.9849285"><ele>0.0</ele><time>2026-04-30T11:27:40.055Z</time></trkpt><trkpt lat="41.6158732" lon="2.9850318"><ele>0.0</ele><time>2026-04-30T11:27:41.054Z</time></trkpt><trkpt lat="41.6159096" lon="2.9851321"><ele>0.0</ele><time>2026-04-30T11:27:42.054Z</time></trkpt><trkpt lat="41.6159482" lon="2.9852332"><ele>0.0</ele><time>2026-04-30T11:27:43.054Z</time></trkpt><trkpt lat="41.6159821" lon="2.9853367"><ele>0.0</ele><time>2026-04-30T11:27:44.055Z</time></trkpt><trkpt lat="41.6160168" lon="2.9854417"><ele>0.0</ele><time>2026-04-30T11:27:45.055Z</time></trkpt><trkpt lat="41.6160503" lon="2.9855483"><ele>0.0</ele><time>2026-04-30T11:27:46.054Z</time></trkpt><trkpt lat="41.6160876" lon="2.9856506"><ele>0.0</ele><time>2026-04-30T11:27:47.054Z</time></trkpt><trkpt lat="41.616126" lon="2.9857505"><ele>0.0</ele><time>2026-04-30T11:27:48.054Z</time></trkpt><trkpt lat="41.6161619" lon="2.9858504"><ele>0.0</ele><time>2026-04-30T11:27:49.054Z</time></trkpt><trkpt lat="41.6162014" lon="2.9859491"><ele>0.0</ele><time>2026-04-30T11:27:50.055Z</time></trkpt><trkpt lat="41.6162783" lon="2.9861515"><ele>0.0</ele><time>2026-04-30T11:27:52.054Z</time></trkpt><trkpt lat="41.6163196" lon="2.9862533"><ele>0.0</ele><time>2026-04-30T11:27:53.054Z</time></trkpt><trkpt lat="41.6163572" lon="2.9863578"><ele>0.0</ele><time>2026-04-30T11:27:54.054Z</time></trkpt><trkpt lat="41.6163908" lon="2.9864631"><ele>0.0</ele><time>2026-04-30T11:27:55.054Z</time></trkpt><trkpt lat="41.6164236" lon="2.9865653"><ele>0.0</ele><time>2026-04-30T11:27:56.054Z</time></trkpt><trkpt lat="41.6164584" lon="2.9866701"><ele>0.0</ele><time>2026-04-30T11:27:57.055Z</time></trkpt><trkpt lat="41.6164967" lon="2.9867735"><ele>0.0</ele><time>2026-04-30T11:27:58.054Z</time></trkpt><trkpt lat="41.6165304" lon="2.9868767"><ele>0.0</ele><time>2026-04-30T11:27:59.054Z</time></trkpt><trkpt lat="41.6165637" lon="2.9869825"><ele>0.0</ele><time>2026-04-30T11:28:00.055Z</time></trkpt><trkpt lat="41.6166012" lon="2.9870866"><ele>0.0</ele><time>2026-04-30T11:28:01.054Z</time></trkpt><trkpt lat="41.6166399" lon="2.9871945"><ele>0.0</ele><time>2026-04-30T11:28:02.054Z</time></trkpt><trkpt lat="41.6166779" lon="2.9873003"><ele>0.0</ele><time>2026-04-30T11:28:03.054Z</time></trkpt><trkpt lat="41.6167151" lon="2.9874064"><ele>0.0</ele><time>2026-04-30T11:28:04.054Z</time></trkpt><trkpt lat="41.6167542" lon="2.987515"><ele>0.0</ele><time>2026-04-30T11:28:05.054Z</time></trkpt><trkpt lat="41.6167925" lon="2.9876217"><ele>0.0</ele><time>2026-04-30T11:28:06.055Z</time></trkpt><trkpt lat="41.6168253" lon="2.98773"><ele>0.0</ele><time>2026-04-30T11:28:07.055Z</time></trkpt><trkpt lat="41.6168583" lon="2.987837"><ele>0.0</ele><time>2026-04-30T11:28:08.055Z</time></trkpt><trkpt lat="41.6168934" lon="2.9879449"><ele>0.0</ele><time>2026-04-30T11:28:09.055Z</time></trkpt><trkpt lat="41.6169296" lon="2.9880489"><ele>0.0</ele><time>2026-04-30T11:28:10.054Z</time></trkpt><trkpt lat="41.6169637" lon="2.9881519"><ele>0.0</ele><time>2026-04-30T11:28:11.055Z</time></trkpt><trkpt lat="41.6170305" lon="2.9883613"><ele>0.0</ele><time>2026-04-30T11:28:13.055Z</time></trkpt><trkpt lat="41.6170654" lon="2.9884647"><ele>0.0</ele><time>2026-04-30T11:28:14.055Z</time></trkpt><trkpt lat="41.6171007" lon="2.9885675"><ele>0.0</ele><time>2026-04-30T11:28:15.055Z</time></trkpt><trkpt lat="41.6171336" lon="2.988673"><ele>0.0</ele><time>2026-04-30T11:28:16.054Z</time></trkpt><trkpt lat="41.6171696" lon="2.9887784"><ele>0.0</ele><time>2026-04-30T11:28:17.053Z</time></trkpt><trkpt lat="41.617208" lon="2.988882"><ele>0.0</ele><time>2026-04-30T11:28:18.053Z</time></trkpt><trkpt lat="41.6172421" lon="2.9889868"><ele>0.0</ele><time>2026-04-30T11:28:19.054Z</time></trkpt><trkpt lat="41.6172781" lon="2.98909"><ele>0.0</ele><time>2026-04-30T11:28:20.053Z</time></trkpt><trkpt lat="41.6173138" lon="2.9891967"><ele>0.0</ele><time>2026-04-30T11:28:21.053Z</time></trkpt><trkpt lat="41.6173457" lon="2.9893021"><ele>0.0</ele><time>2026-04-30T11:28:22.054Z</time></trkpt><trkpt lat="41.6173784" lon="2.9894067"><ele>0.0</ele><time>2026-04-30T11:28:23.054Z</time></trkpt><trkpt lat="41.6174144" lon="2.9895133"><ele>0.0</ele><time>2026-04-30T11:28:24.053Z</time></trkpt><trkpt lat="41.6174569" lon="2.9896204"><ele>0.0</ele><time>2026-04-30T11:28:25.054Z</time></trkpt><trkpt lat="41.6174916" lon="2.9897284"><ele>0.0</ele><time>2026-04-30T11:28:26.054Z</time></trkpt><trkpt lat="41.6175285" lon="2.9898326"><ele>0.0</ele><time>2026-04-30T11:28:27.054Z</time></trkpt><trkpt lat="41.6175641" lon="2.9899373"><ele>0.0</ele><time>2026-04-30T11:28:28.053Z</time></trkpt><trkpt lat="41.617598" lon="2.9900427"><ele>0.0</ele><time>2026-04-30T11:28:29.053Z</time></trkpt><trkpt lat="41.617671" lon="2.9902507"><ele>0.0</ele><time>2026-04-30T11:28:31.053Z</time></trkpt><trkpt lat="41.6177092" lon="2.9903581"><ele>0.0</ele><time>2026-04-30T11:28:32.053Z</time></trkpt><trkpt lat="41.6177858" lon="2.9905638"><ele>0.0</ele><time>2026-04-30T11:28:34.053Z</time></trkpt><trkpt lat="41.6178214" lon="2.9906714"><ele>0.0</ele><time>2026-04-30T11:28:35.054Z</time></trkpt><trkpt lat="41.6178555" lon="2.9907795"><ele>0.0</ele><time>2026-04-30T11:28:36.053Z</time></trkpt><trkpt lat="41.6178903" lon="2.9908891"><ele>0.0</ele><time>2026-04-30T11:28:37.054Z</time></trkpt><trkpt lat="41.6179269" lon="2.9909962"><ele>0.0</ele><time>2026-04-30T11:28:38.054Z</time></trkpt><trkpt lat="41.6179602" lon="2.9911013"><ele>0.0</ele><time>2026-04-30T11:28:39.054Z</time></trkpt><trkpt lat="41.617998" lon="2.9911985"><ele>0.0</ele><time>2026-04-30T11:28:40.054Z</time></trkpt><trkpt lat="41.6180298" lon="2.9913041"><ele>0.0</ele><time>2026-04-30T11:28:41.054Z</time></trkpt><trkpt lat="41.6180655" lon="2.9914066"><ele>0.0</ele><time>2026-04-30T11:28:42.053Z</time></trkpt><trkpt lat="41.6181005" lon="2.9915113"><ele>0.0</ele><time>2026-04-30T11:28:43.053Z</time></trkpt><trkpt lat="41.6181342" lon="2.991619"><ele>0.0</ele><time>2026-04-30T11:28:44.054Z</time></trkpt><trkpt lat="41.6181749" lon="2.9917173"><ele>0.0</ele><time>2026-04-30T11:28:45.054Z</time></trkpt><trkpt lat="41.6182167" lon="2.9918239"><ele>0.0</ele><time>2026-04-30T11:28:46.053Z</time></trkpt><trkpt lat="41.6182542" lon="2.991931"><ele>0.0</ele><time>2026-04-30T11:28:47.053Z</time></trkpt><trkpt lat="41.618292" lon="2.9920363"><ele>0.0</ele><time>2026-04-30T11:28:48.053Z</time></trkpt><trkpt lat="41.6183287" lon="2.9921425"><ele>0.0</ele><time>2026-04-30T11:28:49.053Z</time></trkpt><trkpt lat="41.6183667" lon="2.9922489"><ele>0.0</ele><time>2026-04-30T11:28:50.053Z</time></trkpt><trkpt lat="41.6184051" lon="2.9923544"><ele>0.0</ele><time>2026-04-30T11:28:51.054Z</time></trkpt><trkpt lat="41.6184448" lon="2.9924615"><ele>0.0</ele><time>2026-04-30T11:28:52.054Z</time></trkpt><trkpt lat="41.6184826" lon="2.9925664"><ele>0.0</ele><time>2026-04-30T11:28:53.053Z</time></trkpt><trkpt lat="41.6185571" lon="2.9927675"><ele>0.0</ele><time>2026-04-30T11:28:55.053Z</time></trkpt><trkpt lat="41.6185943" lon="2.9928724"><ele>0.0</ele><time>2026-04-30T11:28:56.054Z</time></trkpt><trkpt lat="41.6186307" lon="2.9929747"><ele>0.0</ele><time>2026-04-30T11:28:57.053Z</time></trkpt><trkpt lat="41.6186629" lon="2.9930796"><ele>0.0</ele><time>2026-04-30T11:28:58.053Z</time></trkpt><trkpt lat="41.6187015" lon="2.9931889"><ele>0.0</ele><time>2026-04-30T11:28:59.054Z</time></trkpt><trkpt lat="41.6187416" lon="2.9932955"><ele>0.0</ele><time>2026-04-30T11:29:00.054Z</time></trkpt><trkpt lat="41.6187804" lon="2.9933983"><ele>0.0</ele><time>2026-04-30T11:29:01.053Z</time></trkpt><trkpt lat="41.6188215" lon="2.9935102"><ele>0.0</ele><time>2026-04-30T11:29:02.053Z</time></trkpt><trkpt lat="41.6188538" lon="2.9936161"><ele>0.0</ele><time>2026-04-30T11:29:03.053Z</time></trkpt><trkpt lat="41.6188895" lon="2.9937224"><ele>0.0</ele><time>2026-04-30T11:29:04.054Z</time></trkpt><trkpt lat="41.6189201" lon="2.9938264"><ele>0.0</ele><time>2026-04-30T11:29:05.053Z</time></trkpt><trkpt lat="41.6189573" lon="2.993927"><ele>0.0</ele><time>2026-04-30T11:29:06.053Z</time></trkpt><trkpt lat="41.6189948" lon="2.9940232"><ele>0.0</ele><time>2026-04-30T11:29:07.054Z</time></trkpt><trkpt lat="41.6190288" lon="2.9941184"><ele>0.0</ele><time>2026-04-30T11:29:08.054Z</time></trkpt><trkpt lat="41.619065" lon="2.9942188"><ele>0.0</ele><time>2026-04-30T11:29:09.053Z</time></trkpt><trkpt lat="41.6191019" lon="2.9943232"><ele>0.0</ele><time>2026-04-30T11:29:10.053Z</time></trkpt><trkpt lat="41.6191419" lon="2.9944224"><ele>0.0</ele><time>2026-04-30T11:29:11.053Z</time></trkpt><trkpt lat="41.6191819" lon="2.9945223"><ele>0.0</ele><time>2026-04-30T11:29:12.054Z</time></trkpt><trkpt lat="41.6192318" lon="2.9946121"><ele>0.0</ele><time>2026-04-30T11:29:13.053Z</time></trkpt><trkpt lat="41.6192731" lon="2.9947104"><ele>0.0</ele><time>2026-04-30T11:29:14.053Z</time></trkpt><trkpt lat="41.6193656" lon="2.9949111"><ele>0.0</ele><time>2026-04-30T11:29:16.053Z</time></trkpt><trkpt lat="41.6194067" lon="2.9950149"><ele>0.0</ele><time>2026-04-30T11:29:17.054Z</time></trkpt><trkpt lat="41.6194456" lon="2.9951224"><ele>0.0</ele><time>2026-04-30T11:29:18.053Z</time></trkpt><trkpt lat="41.6194794" lon="2.9952253"><ele>0.0</ele><time>2026-04-30T11:29:19.053Z</time></trkpt><trkpt lat="41.6195202" lon="2.9953343"><ele>0.0</ele><time>2026-04-30T11:29:20.053Z</time></trkpt><trkpt lat="41.6195627" lon="2.9954417"><ele>0.0</ele><time>2026-04-30T11:29:21.053Z</time></trkpt><trkpt lat="41.6195987" lon="2.9955496"><ele>0.0</ele><time>2026-04-30T11:29:22.053Z</time></trkpt><trkpt lat="41.6196281" lon="2.995656"><ele>0.0</ele><time>2026-04-30T11:29:23.053Z</time></trkpt><trkpt lat="41.6196635" lon="2.9957685"><ele>0.0</ele><time>2026-04-30T11:29:24.053Z</time></trkpt><trkpt lat="41.6197015" lon="2.9958691"><ele>0.0</ele><time>2026-04-30T11:29:25.054Z</time></trkpt><trkpt lat="41.6197428" lon="2.9959672"><ele>0.0</ele><time>2026-04-30T11:29:26.053Z</time></trkpt><trkpt lat="41.6197846" lon="2.9960716"><ele>0.0</ele><time>2026-04-30T11:29:27.054Z</time></trkpt><trkpt lat="41.6198207" lon="2.9961795"><ele>0.0</ele><time>2026-04-30T11:29:28.053Z</time></trkpt><trkpt lat="41.6198553" lon="2.9962819"><ele>0.0</ele><time>2026-04-30T11:29:29.054Z</time></trkpt><trkpt lat="41.6198918" lon="2.9963912"><ele>0.0</ele><time>2026-04-30T11:29:30.054Z</time></trkpt><trkpt lat="41.6199185" lon="2.9965051"><ele>0.0</ele><time>2026-04-30T11:29:31.054Z</time></trkpt><trkpt lat="41.6199505" lon="2.9966112"><ele>0.0</ele><time>2026-04-30T11:29:32.053Z</time></trkpt><trkpt lat="41.6199824" lon="2.9967206"><ele>0.0</ele><time>2026-04-30T11:29:33.053Z</time></trkpt><trkpt lat="41.6200128" lon="2.9968236"><ele>0.0</ele><time>2026-04-30T11:29:34.053Z</time></trkpt><trkpt lat="41.6200495" lon="2.9969236"><ele>0.0</ele><time>2026-04-30T11:29:35.054Z</time></trkpt><trkpt lat="41.6201206" lon="2.9971298"><ele>0.0</ele><time>2026-04-30T11:29:37.053Z</time></trkpt><trkpt lat="41.6201541" lon="2.9972349"><ele>0.0</ele><time>2026-04-30T11:29:38.053Z</time></trkpt><trkpt lat="41.6201885" lon="2.997343"><ele>0.0</ele><time>2026-04-30T11:29:39.054Z</time></trkpt><trkpt lat="41.6202219" lon="2.9974517"><ele>0.0</ele><time>2026-04-30T11:29:40.054Z</time></trkpt><trkpt lat="41.6202586" lon="2.9975553"><ele>0.0</ele><time>2026-04-30T11:29:41.053Z</time></trkpt><trkpt lat="41.6202931" lon="2.9976601"><ele>0.0</ele><time>2026-04-30T11:29:42.053Z</time></trkpt><trkpt lat="41.6203296" lon="2.997764"><ele>0.0</ele><time>2026-04-30T11:29:43.053Z</time></trkpt><trkpt lat="41.6203679" lon="2.9978625"><ele>0.0</ele><time>2026-04-30T11:29:44.053Z</time></trkpt><trkpt lat="41.6204062" lon="2.9979622"><ele>0.0</ele><time>2026-04-30T11:29:45.054Z</time></trkpt><trkpt lat="41.6204446" lon="2.9980652"><ele>0.0</ele><time>2026-04-30T11:29:46.053Z</time></trkpt><trkpt lat="41.6204774" lon="2.9981685"><ele>0.0</ele><time>2026-04-30T11:29:47.053Z</time></trkpt><trkpt lat="41.6205107" lon="2.9982758"><ele>0.0</ele><time>2026-04-30T11:29:48.054Z</time></trkpt><trkpt lat="41.6205407" lon="2.9983818"><ele>0.0</ele><time>2026-04-30T11:29:49.054Z</time></trkpt><trkpt lat="41.6205639" lon="2.9984896"><ele>0.0</ele><time>2026-04-30T11:29:50.054Z</time></trkpt><trkpt lat="41.6205955" lon="2.9985961"><ele>0.0</ele><time>2026-04-30T11:29:51.054Z</time></trkpt><trkpt lat="41.6206284" lon="2.9987086"><ele>0.0</ele><time>2026-04-30T11:29:52.053Z</time></trkpt><trkpt lat="41.6206605" lon="2.9988205"><ele>0.0</ele><time>2026-04-30T11:29:53.054Z</time></trkpt><trkpt lat="41.6206912" lon="2.9989338"><ele>0.0</ele><time>2026-04-30T11:29:54.054Z</time></trkpt><trkpt lat="41.620727" lon="2.999046"><ele>0.0</ele><time>2026-04-30T11:29:55.054Z</time></trkpt><trkpt lat="41.6207634" lon="2.9991532"><ele>0.0</ele><time>2026-04-30T11:29:56.053Z</time></trkpt><trkpt lat="41.6208285" lon="2.9993575"><ele>0.0</ele><time>2026-04-30T11:29:58.053Z</time></trkpt><trkpt lat="41.6208636" lon="2.9994591"><ele>0.0</ele><time>2026-04-30T11:29:59.053Z</time></trkpt><trkpt lat="41.6208929" lon="2.9995611"><ele>0.0</ele><time>2026-04-30T11:30:00.053Z</time></trkpt><trkpt lat="41.6209198" lon="2.9996567"><ele>0.0</ele><time>2026-04-30T11:30:01.053Z</time></trkpt><trkpt lat="41.6209578" lon="2.9997589"><ele>0.0</ele><time>2026-04-30T11:30:02.053Z</time></trkpt><trkpt lat="41.6209907" lon="2.999862"><ele>0.0</ele><time>2026-04-30T11:30:03.054Z</time></trkpt><trkpt lat="41.6210271" lon="2.9999705"><ele>0.0</ele><time>2026-04-30T11:30:04.053Z</time></trkpt><trkpt lat="41.621064" lon="3.0000818"><ele>0.0</ele><time>2026-04-30T11:30:05.054Z</time></trkpt><trkpt lat="41.6211376" lon="3.0003057"><ele>0.0</ele><time>2026-04-30T11:30:07.053Z</time></trkpt><trkpt lat="41.6211695" lon="3.0004116"><ele>0.0</ele><time>2026-04-30T11:30:08.053Z</time></trkpt><trkpt lat="41.6212093" lon="3.0005071"><ele>0.0</ele><time>2026-04-30T11:30:09.054Z</time></trkpt><trkpt lat="41.6212538" lon="3.0006004"><ele>0.0</ele><time>2026-04-30T11:30:10.053Z</time></trkpt><trkpt lat="41.6212926" lon="3.0007042"><ele>0.0</ele><time>2026-04-30T11:30:11.054Z</time></trkpt><trkpt lat="41.6213301" lon="3.0008162"><ele>0.0</ele><time>2026-04-30T11:30:12.053Z</time></trkpt><trkpt lat="41.6213665" lon="3.0009247"><ele>0.0</ele><time>2026-04-30T11:30:13.053Z</time></trkpt><trkpt lat="41.621406" lon="3.0010274"><ele>0.0</ele><time>2026-04-30T11:30:14.054Z</time></trkpt><trkpt lat="41.6214463" lon="3.0011332"><ele>0.0</ele><time>2026-04-30T11:30:15.053Z</time></trkpt><trkpt lat="41.6214848" lon="3.0012351"><ele>0.0</ele><time>2026-04-30T11:30:16.053Z</time></trkpt><trkpt lat="41.6215244" lon="3.0013419"><ele>0.0</ele><time>2026-04-30T11:30:17.054Z</time></trkpt><trkpt lat="41.6216057" lon="3.0015434"><ele>0.0</ele><time>2026-04-30T11:30:19.054Z</time></trkpt><trkpt lat="41.6216504" lon="3.0016453"><ele>0.0</ele><time>2026-04-30T11:30:20.054Z</time></trkpt><trkpt lat="41.6216886" lon="3.00175"><ele>0.0</ele><time>2026-04-30T11:30:21.053Z</time></trkpt><trkpt lat="41.6217267" lon="3.001855"><ele>0.0</ele><time>2026-04-30T11:30:22.053Z</time></trkpt><trkpt lat="41.6217563" lon="3.0019658"><ele>0.0</ele><time>2026-04-30T11:30:23.054Z</time></trkpt><trkpt lat="41.6217919" lon="3.0020771"><ele>0.0</ele><time>2026-04-30T11:30:24.054Z</time></trkpt><trkpt lat="41.6218303" lon="3.002189"><ele>0.0</ele><time>2026-04-30T11:30:25.053Z</time></trkpt><trkpt lat="41.6218641" lon="3.0022947"><ele>0.0</ele><time>2026-04-30T11:30:26.054Z</time></trkpt><trkpt lat="41.6218976" lon="3.0023972"><ele>0.0</ele><time>2026-04-30T11:30:27.053Z</time></trkpt><trkpt lat="41.6219338" lon="3.0024992"><ele>0.0</ele><time>2026-04-30T11:30:28.053Z</time></trkpt><trkpt lat="41.6219659" lon="3.0026022"><ele>0.0</ele><time>2026-04-30T11:30:29.053Z</time></trkpt><trkpt lat="41.6220018" lon="3.0027094"><ele>0.0</ele><time>2026-04-30T11:30:30.054Z</time></trkpt><trkpt lat="41.6220427" lon="3.0028076"><ele>0.0</ele><time>2026-04-30T11:30:31.053Z</time></trkpt><trkpt lat="41.622082" lon="3.0029101"><ele>0.0</ele><time>2026-04-30T11:30:32.053Z</time></trkpt><trkpt lat="41.622123" lon="3.0030091"><ele>0.0</ele><time>2026-04-30T11:30:33.053Z</time></trkpt><trkpt lat="41.6221609" lon="3.0031202"><ele>0.0</ele><time>2026-04-30T11:30:34.053Z</time></trkpt><trkpt lat="41.6222002" lon="3.0032267"><ele>0.0</ele><time>2026-04-30T11:30:35.053Z</time></trkpt><trkpt lat="41.6222358" lon="3.0033273"><ele>0.0</ele><time>2026-04-30T11:30:36.053Z</time></trkpt><trkpt lat="41.6222735" lon="3.0034285"><ele>0.0</ele><time>2026-04-30T11:30:37.054Z</time></trkpt><trkpt lat="41.6223897" lon="3.003745"><ele>0.0</ele><time>2026-04-30T11:30:40.054Z</time></trkpt><trkpt lat="41.622427" lon="3.0038503"><ele>0.0</ele><time>2026-04-30T11:30:41.054Z</time></trkpt><trkpt lat="41.6224634" lon="3.0039567"><ele>0.0</ele><time>2026-04-30T11:30:42.053Z</time></trkpt><trkpt lat="41.6225002" lon="3.0040623"><ele>0.0</ele><time>2026-04-30T11:30:43.054Z</time></trkpt><trkpt lat="41.6225369" lon="3.0041658"><ele>0.0</ele><time>2026-04-30T11:30:44.054Z</time></trkpt><trkpt lat="41.6225721" lon="3.0042661"><ele>0.0</ele><time>2026-04-30T11:30:45.054Z</time></trkpt><trkpt lat="41.6226071" lon="3.0043726"><ele>0.0</ele><time>2026-04-30T11:30:46.053Z</time></trkpt><trkpt lat="41.6226448" lon="3.0044755"><ele>0.0</ele><time>2026-04-30T11:30:47.054Z</time></trkpt><trkpt lat="41.6226833" lon="3.0045787"><ele>0.0</ele><time>2026-04-30T11:30:48.054Z</time></trkpt><trkpt lat="41.6227203" lon="3.0046863"><ele>0.0</ele><time>2026-04-30T11:30:49.054Z</time></trkpt><trkpt lat="41.6227612" lon="3.0047844"><ele>0.0</ele><time>2026-04-30T11:30:50.054Z</time></trkpt><trkpt lat="41.6227971" lon="3.0048801"><ele>0.0</ele><time>2026-04-30T11:30:51.054Z</time></trkpt><trkpt lat="41.6228306" lon="3.0049849"><ele>0.0</ele><time>2026-04-30T11:30:52.054Z</time></trkpt><trkpt lat="41.6228683" lon="3.0050969"><ele>0.0</ele><time>2026-04-30T11:30:53.053Z</time></trkpt><trkpt lat="41.6229097" lon="3.0052059"><ele>0.0</ele><time>2026-04-30T11:30:54.053Z</time></trkpt><trkpt lat="41.6229443" lon="3.0053101"><ele>0.0</ele><time>2026-04-30T11:30:55.054Z</time></trkpt><trkpt lat="41.6229789" lon="3.0054164"><ele>0.0</ele><time>2026-04-30T11:30:56.054Z</time></trkpt><trkpt lat="41.6230123" lon="3.0055286"><ele>0.0</ele><time>2026-04-30T11:30:57.054Z</time></trkpt><trkpt lat="41.6230487" lon="3.0056335"><ele>0.0</ele><time>2026-04-30T11:30:58.054Z</time></trkpt><trkpt lat="41.6230866" lon="3.0057401"><ele>0.0</ele><time>2026-04-30T11:30:59.053Z</time></trkpt><trkpt lat="41.6231613" lon="3.0059557"><ele>0.0</ele><time>2026-04-30T11:31:01.053Z</time></trkpt><trkpt lat="41.6231983" lon="3.0060645"><ele>0.0</ele><time>2026-04-30T11:31:02.053Z</time></trkpt><trkpt lat="41.6232348" lon="3.0061715"><ele>0.0</ele><time>2026-04-30T11:31:03.053Z</time></trkpt><trkpt lat="41.6232717" lon="3.0062767"><ele>0.0</ele><time>2026-04-30T11:31:04.053Z</time></trkpt><trkpt lat="41.6233041" lon="3.0063805"><ele>0.0</ele><time>2026-04-30T11:31:05.053Z</time></trkpt><trkpt lat="41.623341" lon="3.0064821"><ele>0.0</ele><time>2026-04-30T11:31:06.054Z</time></trkpt><trkpt lat="41.6233795" lon="3.0065878"><ele>0.0</ele><time>2026-04-30T11:31:07.053Z</time></trkpt><trkpt lat="41.6234156" lon="3.0066973"><ele>0.0</ele><time>2026-04-30T11:31:08.053Z</time></trkpt><trkpt lat="41.6234905" lon="3.0069185"><ele>0.0</ele><time>2026-04-30T11:31:10.054Z</time></trkpt><trkpt lat="41.6235227" lon="3.0070204"><ele>0.0</ele><time>2026-04-30T11:31:11.054Z</time></trkpt><trkpt lat="41.6235545" lon="3.0071187"><ele>0.0</ele><time>2026-04-30T11:31:12.053Z</time></trkpt><trkpt lat="41.6235918" lon="3.0072135"><ele>0.0</ele><time>2026-04-30T11:31:13.054Z</time></trkpt><trkpt lat="41.623623" lon="3.0073155"><ele>0.0</ele><time>2026-04-30T11:31:14.054Z</time></trkpt><trkpt lat="41.6236514" lon="3.0074192"><ele>0.0</ele><time>2026-04-30T11:31:15.054Z</time></trkpt><trkpt lat="41.6236866" lon="3.0075227"><ele>0.0</ele><time>2026-04-30T11:31:16.053Z</time></trkpt><trkpt lat="41.6237259" lon="3.0076283"><ele>0.0</ele><time>2026-04-30T11:31:17.053Z</time></trkpt><trkpt lat="41.6237631" lon="3.007738"><ele>0.0</ele><time>2026-04-30T11:31:18.053Z</time></trkpt><trkpt lat="41.6237996" lon="3.007845"><ele>0.0</ele><time>2026-04-30T11:31:19.053Z</time></trkpt><trkpt lat="41.6238338" lon="3.0079529"><ele>0.0</ele><time>2026-04-30T11:31:20.053Z</time></trkpt><trkpt lat="41.6239069" lon="3.0081594"><ele>0.0</ele><time>2026-04-30T11:31:22.054Z</time></trkpt><trkpt lat="41.623942" lon="3.0082586"><ele>0.0</ele><time>2026-04-30T11:31:23.053Z</time></trkpt><trkpt lat="41.6239815" lon="3.0083677"><ele>0.0</ele><time>2026-04-30T11:31:24.054Z</time></trkpt><trkpt lat="41.62402" lon="3.0084762"><ele>0.0</ele><time>2026-04-30T11:31:25.053Z</time></trkpt><trkpt lat="41.6240571" lon="3.0085801"><ele>0.0</ele><time>2026-04-30T11:31:26.053Z</time></trkpt><trkpt lat="41.6240966" lon="3.0086867"><ele>0.0</ele><time>2026-04-30T11:31:27.054Z</time></trkpt><trkpt lat="41.6241325" lon="3.0087961"><ele>0.0</ele><time>2026-04-30T11:31:28.053Z</time></trkpt><trkpt lat="41.6241676" lon="3.0088975"><ele>0.0</ele><time>2026-04-30T11:31:29.054Z</time></trkpt><trkpt lat="41.6241993" lon="3.0090032"><ele>0.0</ele><time>2026-04-30T11:31:30.054Z</time></trkpt><trkpt lat="41.6242339" lon="3.0091068"><ele>0.0</ele><time>2026-04-30T11:31:31.054Z</time></trkpt><trkpt lat="41.6242731" lon="3.0092087"><ele>0.0</ele><time>2026-04-30T11:31:32.053Z</time></trkpt><trkpt lat="41.6243116" lon="3.0093133"><ele>0.0</ele><time>2026-04-30T11:31:33.053Z</time></trkpt><trkpt lat="41.6243512" lon="3.0094198"><ele>0.0</ele><time>2026-04-30T11:31:34.053Z</time></trkpt><trkpt lat="41.6243883" lon="3.009525"><ele>0.0</ele><time>2026-04-30T11:31:35.054Z</time></trkpt><trkpt lat="41.6244282" lon="3.0096327"><ele>0.0</ele><time>2026-04-30T11:31:36.053Z</time></trkpt><trkpt lat="41.624467" lon="3.0097341"><ele>0.0</ele><time>2026-04-30T11:31:37.054Z</time></trkpt><trkpt lat="41.6245094" lon="3.009831"><ele>0.0</ele><time>2026-04-30T11:31:38.053Z</time></trkpt><trkpt lat="41.6245455" lon="3.0099338"><ele>0.0</ele><time>2026-04-30T11:31:39.053Z</time></trkpt><trkpt lat="41.6245805" lon="3.0100369"><ele>0.0</ele><time>2026-04-30T11:31:40.053Z</time></trkpt><trkpt lat="41.6246256" lon="3.0101443"><ele>0.0</ele><time>2026-04-30T11:31:41.053Z</time></trkpt><trkpt lat="41.6247129" lon="3.0103541"><ele>0.0</ele><time>2026-04-30T11:31:43.054Z</time></trkpt><trkpt lat="41.6247502" lon="3.0104683"><ele>0.0</ele><time>2026-04-30T11:31:44.054Z</time></trkpt><trkpt lat="41.6247827" lon="3.0105817"><ele>0.0</ele><time>2026-04-30T11:31:45.054Z</time></trkpt><trkpt lat="41.6248183" lon="3.0106841"><ele>0.0</ele><time>2026-04-30T11:31:46.053Z</time></trkpt><trkpt lat="41.6248564" lon="3.0107899"><ele>0.0</ele><time>2026-04-30T11:31:47.054Z</time></trkpt><trkpt lat="41.6249004" lon="3.0108909"><ele>0.0</ele><time>2026-04-30T11:31:48.053Z</time></trkpt><trkpt lat="41.6249383" lon="3.010997"><ele>0.0</ele><time>2026-04-30T11:31:49.054Z</time></trkpt><trkpt lat="41.6249777" lon="3.0111049"><ele>0.0</ele><time>2026-04-30T11:31:50.054Z</time></trkpt><trkpt lat="41.6250136" lon="3.0112033"><ele>0.0</ele><time>2026-04-30T11:31:51.053Z</time></trkpt><trkpt lat="41.6250585" lon="3.0112985"><ele>0.0</ele><time>2026-04-30T11:31:52.053Z</time></trkpt><trkpt lat="41.6250977" lon="3.0114036"><ele>0.0</ele><time>2026-04-30T11:31:53.053Z</time></trkpt><trkpt lat="41.6251367" lon="3.0115101"><ele>0.0</ele><time>2026-04-30T11:31:54.053Z</time></trkpt><trkpt lat="41.6251749" lon="3.0116163"><ele>0.0</ele><time>2026-04-30T11:31:55.054Z</time></trkpt><trkpt lat="41.6252119" lon="3.0117228"><ele>0.0</ele><time>2026-04-30T11:31:56.053Z</time></trkpt><trkpt lat="41.6252474" lon="3.0118358"><ele>0.0</ele><time>2026-04-30T11:31:57.054Z</time></trkpt><trkpt lat="41.6252783" lon="3.0119505"><ele>0.0</ele><time>2026-04-30T11:31:58.053Z</time></trkpt><trkpt lat="41.6253121" lon="3.0120556"><ele>0.0</ele><time>2026-04-30T11:31:59.053Z</time></trkpt><trkpt lat="41.6253439" lon="3.0121602"><ele>0.0</ele><time>2026-04-30T11:32:00.054Z</time></trkpt><trkpt lat="41.6253758" lon="3.0122669"><ele>0.0</ele><time>2026-04-30T11:32:01.053Z</time></trkpt><trkpt lat="41.6254472" lon="3.0124645"><ele>0.0</ele><time>2026-04-30T11:32:03.054Z</time></trkpt><trkpt lat="41.6254794" lon="3.0125672"><ele>0.0</ele><time>2026-04-30T11:32:04.053Z</time></trkpt><trkpt lat="41.6255096" lon="3.0126734"><ele>0.0</ele><time>2026-04-30T11:32:05.053Z</time></trkpt><trkpt lat="41.6255406" lon="3.012783"><ele>0.0</ele><time>2026-04-30T11:32:06.053Z</time></trkpt><trkpt lat="41.6255724" lon="3.0128843"><ele>0.0</ele><time>2026-04-30T11:32:07.054Z</time></trkpt><trkpt lat="41.6256056" lon="3.0129856"><ele>0.0</ele><time>2026-04-30T11:32:08.053Z</time></trkpt><trkpt lat="41.6256359" lon="3.0130902"><ele>0.0</ele><time>2026-04-30T11:32:09.053Z</time></trkpt><trkpt lat="41.6256704" lon="3.0131965"><ele>0.0</ele><time>2026-04-30T11:32:10.054Z</time></trkpt><trkpt lat="41.6257096" lon="3.013299"><ele>0.0</ele><time>2026-04-30T11:32:11.053Z</time></trkpt><trkpt lat="41.6257481" lon="3.0134018"><ele>0.0</ele><time>2026-04-30T11:32:12.053Z</time></trkpt><trkpt lat="41.6257793" lon="3.0135151"><ele>0.0</ele><time>2026-04-30T11:32:13.053Z</time></trkpt><trkpt lat="41.6258253" lon="3.0136172"><ele>0.0</ele><time>2026-04-30T11:32:14.053Z</time></trkpt><trkpt lat="41.6258608" lon="3.0137274"><ele>0.0</ele><time>2026-04-30T11:32:15.053Z</time></trkpt><trkpt lat="41.6259002" lon="3.0138333"><ele>0.0</ele><time>2026-04-30T11:32:16.054Z</time></trkpt><trkpt lat="41.6259381" lon="3.0139343"><ele>0.0</ele><time>2026-04-30T11:32:17.053Z</time></trkpt><trkpt lat="41.625982" lon="3.0140415"><ele>0.0</ele><time>2026-04-30T11:32:18.053Z</time></trkpt><trkpt lat="41.6260156" lon="3.0141439"><ele>0.0</ele><time>2026-04-30T11:32:19.054Z</time></trkpt><trkpt lat="41.6260571" lon="3.0142461"><ele>0.0</ele><time>2026-04-30T11:32:20.053Z</time></trkpt><trkpt lat="41.6260949" lon="3.0143492"><ele>0.0</ele><time>2026-04-30T11:32:21.054Z</time></trkpt><trkpt lat="41.6261275" lon="3.0144572"><ele>0.0</ele><time>2026-04-30T11:32:22.053Z</time></trkpt><trkpt lat="41.6261958" lon="3.0146748"><ele>0.0</ele><time>2026-04-30T11:32:24.054Z</time></trkpt><trkpt lat="41.6262303" lon="3.0147782"><ele>0.0</ele><time>2026-04-30T11:32:25.053Z</time></trkpt><trkpt lat="41.6262652" lon="3.0148802"><ele>0.0</ele><time>2026-04-30T11:32:26.054Z</time></trkpt><trkpt lat="41.6263062" lon="3.014992"><ele>0.0</ele><time>2026-04-30T11:32:27.054Z</time></trkpt><trkpt lat="41.6263407" lon="3.0150981"><ele>0.0</ele><time>2026-04-30T11:32:28.054Z</time></trkpt><trkpt lat="41.6263796" lon="3.0152032"><ele>0.0</ele><time>2026-04-30T11:32:29.053Z</time></trkpt><trkpt lat="41.6264209" lon="3.0153072"><ele>0.0</ele><time>2026-04-30T11:32:30.054Z</time></trkpt><trkpt lat="41.6264542" lon="3.0154161"><ele>0.0</ele><time>2026-04-30T11:32:31.053Z</time></trkpt><trkpt lat="41.6264901" lon="3.0155192"><ele>0.0</ele><time>2026-04-30T11:32:32.053Z</time></trkpt><trkpt lat="41.6265311" lon="3.0156218"><ele>0.0</ele><time>2026-04-30T11:32:33.054Z</time></trkpt><trkpt lat="41.6265646" lon="3.0157236"><ele>0.0</ele><time>2026-04-30T11:32:34.054Z</time></trkpt><trkpt lat="41.626602" lon="3.0158266"><ele>0.0</ele><time>2026-04-30T11:32:35.054Z</time></trkpt><trkpt lat="41.6266374" lon="3.0159342"><ele>0.0</ele><time>2026-04-30T11:32:36.054Z</time></trkpt><trkpt lat="41.6266765" lon="3.016044"><ele>0.0</ele><time>2026-04-30T11:32:37.053Z</time></trkpt><trkpt lat="41.6267096" lon="3.0161571"><ele>0.0</ele><time>2026-04-30T11:32:38.053Z</time></trkpt><trkpt lat="41.6267456" lon="3.0162676"><ele>0.0</ele><time>2026-04-30T11:32:39.053Z</time></trkpt><trkpt lat="41.6267766" lon="3.0163737"><ele>0.0</ele><time>2026-04-30T11:32:40.053Z</time></trkpt><trkpt lat="41.6268123" lon="3.01648"><ele>0.0</ele><time>2026-04-30T11:32:41.053Z</time></trkpt><trkpt lat="41.6268516" lon="3.0165824"><ele>0.0</ele><time>2026-04-30T11:32:42.053Z</time></trkpt><trkpt lat="41.6268872" lon="3.0166896"><ele>0.0</ele><time>2026-04-30T11:32:43.054Z</time></trkpt><trkpt lat="41.6269617" lon="3.0168906"><ele>0.0</ele><time>2026-04-30T11:32:45.053Z</time></trkpt><trkpt lat="41.6269987" lon="3.0169963"><ele>0.0</ele><time>2026-04-30T11:32:46.054Z</time></trkpt><trkpt lat="41.6270414" lon="3.0170958"><ele>0.0</ele><time>2026-04-30T11:32:47.054Z</time></trkpt><trkpt lat="41.6270859" lon="3.0171973"><ele>0.0</ele><time>2026-04-30T11:32:48.053Z</time></trkpt><trkpt lat="41.6271195" lon="3.0173062"><ele>0.0</ele><time>2026-04-30T11:32:49.054Z</time></trkpt><trkpt lat="41.627161" lon="3.0174133"><ele>0.0</ele><time>2026-04-30T11:32:50.053Z</time></trkpt><trkpt lat="41.6272036" lon="3.0175128"><ele>0.0</ele><time>2026-04-30T11:32:51.054Z</time></trkpt><trkpt lat="41.6272415" lon="3.0176154"><ele>0.0</ele><time>2026-04-30T11:32:52.053Z</time></trkpt><trkpt lat="41.627274" lon="3.01773"><ele>0.0</ele><time>2026-04-30T11:32:53.053Z</time></trkpt><trkpt lat="41.6273003" lon="3.0178394"><ele>0.0</ele><time>2026-04-30T11:32:54.052Z</time></trkpt><trkpt lat="41.6273352" lon="3.017939"><ele>0.0</ele><time>2026-04-30T11:32:55.052Z</time></trkpt><trkpt lat="41.6273691" lon="3.0180477"><ele>0.0</ele><time>2026-04-30T11:32:56.052Z</time></trkpt><trkpt lat="41.6274008" lon="3.0181571"><ele>0.0</ele><time>2026-04-30T11:32:57.052Z</time></trkpt><trkpt lat="41.6274412" lon="3.0182607"><ele>0.0</ele><time>2026-04-30T11:32:58.053Z</time></trkpt><trkpt lat="41.6274799" lon="3.0183637"><ele>0.0</ele><time>2026-04-30T11:32:59.053Z</time></trkpt><trkpt lat="41.6275169" lon="3.0184712"><ele>0.0</ele><time>2026-04-30T11:33:00.053Z</time></trkpt><trkpt lat="41.6275494" lon="3.0185796"><ele>0.0</ele><time>2026-04-30T11:33:01.052Z</time></trkpt><trkpt lat="41.6275852" lon="3.0186878"><ele>0.0</ele><time>2026-04-30T11:33:02.052Z</time></trkpt><trkpt lat="41.6276205" lon="3.0187945"><ele>0.0</ele><time>2026-04-30T11:33:03.053Z</time></trkpt><trkpt lat="41.6276608" lon="3.0188901"><ele>0.0</ele><time>2026-04-30T11:33:04.052Z</time></trkpt><trkpt lat="41.6276982" lon="3.0189965"><ele>0.0</ele><time>2026-04-30T11:33:05.052Z</time></trkpt><trkpt lat="41.6277712" lon="3.0191975"><ele>0.0</ele><time>2026-04-30T11:33:07.053Z</time></trkpt><trkpt lat="41.6278127" lon="3.019299"><ele>0.0</ele><time>2026-04-30T11:33:08.052Z</time></trkpt><trkpt lat="41.6278507" lon="3.0194064"><ele>0.0</ele><time>2026-04-30T11:33:09.053Z</time></trkpt><trkpt lat="41.627887" lon="3.0195129"><ele>0.0</ele><time>2026-04-30T11:33:10.053Z</time></trkpt><trkpt lat="41.6279249" lon="3.0196236"><ele>0.0</ele><time>2026-04-30T11:33:11.052Z</time></trkpt><trkpt lat="41.6279554" lon="3.0197327"><ele>0.0</ele><time>2026-04-30T11:33:12.052Z</time></trkpt><trkpt lat="41.6279865" lon="3.0198409"><ele>0.0</ele><time>2026-04-30T11:33:13.053Z</time></trkpt><trkpt lat="41.6280248" lon="3.0199419"><ele>0.0</ele><time>2026-04-30T11:33:14.052Z</time></trkpt><trkpt lat="41.6280719" lon="3.0200437"><ele>0.0</ele><time>2026-04-30T11:33:15.052Z</time></trkpt><trkpt lat="41.6281102" lon="3.020144"><ele>0.0</ele><time>2026-04-30T11:33:16.053Z</time></trkpt><trkpt lat="41.6281471" lon="3.0202487"><ele>0.0</ele><time>2026-04-30T11:33:17.052Z</time></trkpt><trkpt lat="41.6282107" lon="3.0203365"><ele>0.0</ele><time>2026-04-30T11:33:18.053Z</time></trkpt><trkpt lat="41.6282416" lon="3.0204543"><ele>0.0</ele><time>2026-04-30T11:33:19.053Z</time></trkpt><trkpt lat="41.6282729" lon="3.0205704"><ele>0.0</ele><time>2026-04-30T11:33:20.052Z</time></trkpt><trkpt lat="41.6283003" lon="3.0206869"><ele>0.0</ele><time>2026-04-30T11:33:21.053Z</time></trkpt><trkpt lat="41.6283285" lon="3.0207924"><ele>0.0</ele><time>2026-04-30T11:33:22.052Z</time></trkpt><trkpt lat="41.6283562" lon="3.0208936"><ele>0.0</ele><time>2026-04-30T11:33:23.053Z</time></trkpt><trkpt lat="41.6283888" lon="3.0210026"><ele>0.0</ele><time>2026-04-30T11:33:24.052Z</time></trkpt><trkpt lat="41.6284223" lon="3.0211098"><ele>0.0</ele><time>2026-04-30T11:33:25.053Z</time></trkpt><trkpt lat="41.62846" lon="3.0212156"><ele>0.0</ele><time>2026-04-30T11:33:26.052Z</time></trkpt><trkpt lat="41.6285221" lon="3.02143"><ele>0.0</ele><time>2026-04-30T11:33:28.053Z</time></trkpt><trkpt lat="41.6285596" lon="3.0215325"><ele>0.0</ele><time>2026-04-30T11:33:29.052Z</time></trkpt><trkpt lat="41.6285992" lon="3.0216383"><ele>0.0</ele><time>2026-04-30T11:33:30.053Z</time></trkpt><trkpt lat="41.6286335" lon="3.0217449"><ele>0.0</ele><time>2026-04-30T11:33:31.052Z</time></trkpt><trkpt lat="41.6286727" lon="3.0218518"><ele>0.0</ele><time>2026-04-30T11:33:32.052Z</time></trkpt><trkpt lat="41.6287098" lon="3.0219627"><ele>0.0</ele><time>2026-04-30T11:33:33.053Z</time></trkpt><trkpt lat="41.6287451" lon="3.0220685"><ele>0.0</ele><time>2026-04-30T11:33:34.053Z</time></trkpt><trkpt lat="41.6287833" lon="3.0221762"><ele>0.0</ele><time>2026-04-30T11:33:35.053Z</time></trkpt><trkpt lat="41.628816" lon="3.0222745"><ele>0.0</ele><time>2026-04-30T11:33:36.052Z</time></trkpt><trkpt lat="41.6288507" lon="3.0223744"><ele>0.0</ele><time>2026-04-30T11:33:37.052Z</time></trkpt><trkpt lat="41.6288844" lon="3.0224748"><ele>0.0</ele><time>2026-04-30T11:33:38.052Z</time></trkpt><trkpt lat="41.628923" lon="3.0225787"><ele>0.0</ele><time>2026-04-30T11:33:39.053Z</time></trkpt><trkpt lat="41.6289643" lon="3.0226823"><ele>0.0</ele><time>2026-04-30T11:33:40.053Z</time></trkpt><trkpt lat="41.6290106" lon="3.022784"><ele>0.0</ele><time>2026-04-30T11:33:41.053Z</time></trkpt><trkpt lat="41.6290498" lon="3.0228913"><ele>0.0</ele><time>2026-04-30T11:33:42.053Z</time></trkpt><trkpt lat="41.6290897" lon="3.0229896"><ele>0.0</ele><time>2026-04-30T11:33:43.053Z</time></trkpt><trkpt lat="41.6291265" lon="3.023091"><ele>0.0</ele><time>2026-04-30T11:33:44.052Z</time></trkpt><trkpt lat="41.6291732" lon="3.0231939"><ele>0.0</ele><time>2026-04-30T11:33:45.053Z</time></trkpt><trkpt lat="41.6292115" lon="3.0233043"><ele>0.0</ele><time>2026-04-30T11:33:46.052Z</time></trkpt><trkpt lat="41.6292486" lon="3.02341"><ele>0.0</ele><time>2026-04-30T11:33:47.053Z</time></trkpt><trkpt lat="41.6293211" lon="3.0236263"><ele>0.0</ele><time>2026-04-30T11:33:49.053Z</time></trkpt><trkpt lat="41.6293644" lon="3.0237317"><ele>0.0</ele><time>2026-04-30T11:33:50.053Z</time></trkpt><trkpt lat="41.6294018" lon="3.0238309"><ele>0.0</ele><time>2026-04-30T11:33:51.052Z</time></trkpt><trkpt lat="41.6294429" lon="3.0239339"><ele>0.0</ele><time>2026-04-30T11:33:52.053Z</time></trkpt><trkpt lat="41.6294774" lon="3.0240385"><ele>0.0</ele><time>2026-04-30T11:33:53.052Z</time></trkpt><trkpt lat="41.6295134" lon="3.0241462"><ele>0.0</ele><time>2026-04-30T11:33:54.052Z</time></trkpt><trkpt lat="41.6295454" lon="3.0242561"><ele>0.0</ele><time>2026-04-30T11:33:55.052Z</time></trkpt><trkpt lat="41.6295771" lon="3.0243674"><ele>0.0</ele><time>2026-04-30T11:33:56.052Z</time></trkpt><trkpt lat="41.6296106" lon="3.0244763"><ele>0.0</ele><time>2026-04-30T11:33:57.052Z</time></trkpt><trkpt lat="41.6296437" lon="3.0245831"><ele>0.0</ele><time>2026-04-30T11:33:58.053Z</time></trkpt><trkpt lat="41.6296838" lon="3.0246883"><ele>0.0</ele><time>2026-04-30T11:33:59.052Z</time></trkpt><trkpt lat="41.629723" lon="3.0247932"><ele>0.0</ele><time>2026-04-30T11:34:00.052Z</time></trkpt><trkpt lat="41.6297602" lon="3.0248983"><ele>0.0</ele><time>2026-04-30T11:34:01.052Z</time></trkpt><trkpt lat="41.6297939" lon="3.0250063"><ele>0.0</ele><time>2026-04-30T11:34:02.052Z</time></trkpt><trkpt lat="41.6298318" lon="3.0251187"><ele>0.0</ele><time>2026-04-30T11:34:03.052Z</time></trkpt><trkpt lat="41.6298716" lon="3.0252308"><ele>0.0</ele><time>2026-04-30T11:34:04.052Z</time></trkpt><trkpt lat="41.6299149" lon="3.0253369"><ele>0.0</ele><time>2026-04-30T11:34:05.053Z</time></trkpt><trkpt lat="41.6299509" lon="3.0254436"><ele>0.0</ele><time>2026-04-30T11:34:06.052Z</time></trkpt><trkpt lat="41.6299915" lon="3.0255369"><ele>0.0</ele><time>2026-04-30T11:34:07.052Z</time></trkpt><trkpt lat="41.6300256" lon="3.0256328"><ele>0.0</ele><time>2026-04-30T11:34:08.053Z</time></trkpt><trkpt lat="41.6301035" lon="3.0258372"><ele>0.0</ele><time>2026-04-30T11:34:10.053Z</time></trkpt><trkpt lat="41.6301403" lon="3.0259403"><ele>0.0</ele><time>2026-04-30T11:34:11.053Z</time></trkpt><trkpt lat="41.6301773" lon="3.0260467"><ele>0.0</ele><time>2026-04-30T11:34:12.052Z</time></trkpt><trkpt lat="41.6302095" lon="3.0261548"><ele>0.0</ele><time>2026-04-30T11:34:13.053Z</time></trkpt><trkpt lat="41.6302449" lon="3.0262514"><ele>0.0</ele><time>2026-04-30T11:34:14.052Z</time></trkpt><trkpt lat="41.6302849" lon="3.0263537"><ele>0.0</ele><time>2026-04-30T11:34:15.052Z</time></trkpt><trkpt lat="41.6303308" lon="3.0264531"><ele>0.0</ele><time>2026-04-30T11:34:16.053Z</time></trkpt><trkpt lat="41.6303728" lon="3.0265539"><ele>0.0</ele><time>2026-04-30T11:34:17.053Z</time></trkpt><trkpt lat="41.6304105" lon="3.0266614"><ele>0.0</ele><time>2026-04-30T11:34:18.052Z</time></trkpt><trkpt lat="41.6304531" lon="3.026766"><ele>0.0</ele><time>2026-04-30T11:34:19.052Z</time></trkpt><trkpt lat="41.6304949" lon="3.0268756"><ele>0.0</ele><time>2026-04-30T11:34:20.053Z</time></trkpt><trkpt lat="41.6305322" lon="3.026983"><ele>0.0</ele><time>2026-04-30T11:34:21.052Z</time></trkpt><trkpt lat="41.6305661" lon="3.027086"><ele>0.0</ele><time>2026-04-30T11:34:22.053Z</time></trkpt><trkpt lat="41.6306024" lon="3.0271917"><ele>0.0</ele><time>2026-04-30T11:34:23.052Z</time></trkpt><trkpt lat="41.6306386" lon="3.0273027"><ele>0.0</ele><time>2026-04-30T11:34:24.053Z</time></trkpt><trkpt lat="41.6306766" lon="3.0274114"><ele>0.0</ele><time>2026-04-30T11:34:25.053Z</time></trkpt><trkpt lat="41.6307121" lon="3.027522"><ele>0.0</ele><time>2026-04-30T11:34:26.053Z</time></trkpt><trkpt lat="41.6307483" lon="3.0276244"><ele>0.0</ele><time>2026-04-30T11:34:27.052Z</time></trkpt><trkpt lat="41.6307809" lon="3.027736"><ele>0.0</ele><time>2026-04-30T11:34:28.052Z</time></trkpt><trkpt lat="41.6308157" lon="3.0278459"><ele>0.0</ele><time>2026-04-30T11:34:29.052Z</time></trkpt><trkpt lat="41.6308943" lon="3.028058"><ele>0.0</ele><time>2026-04-30T11:34:31.052Z</time></trkpt><trkpt lat="41.6309258" lon="3.028165"><ele>0.0</ele><time>2026-04-30T11:34:32.052Z</time></trkpt><trkpt lat="41.6309587" lon="3.028263"><ele>0.0</ele><time>2026-04-30T11:34:33.052Z</time></trkpt><trkpt lat="41.630994" lon="3.0283694"><ele>0.0</ele><time>2026-04-30T11:34:34.053Z</time></trkpt><trkpt lat="41.631033" lon="3.0284739"><ele>0.0</ele><time>2026-04-30T11:34:35.053Z</time></trkpt><trkpt lat="41.6310715" lon="3.0285815"><ele>0.0</ele><time>2026-04-30T11:34:36.053Z</time></trkpt><trkpt lat="41.6311128" lon="3.0286826"><ele>0.0</ele><time>2026-04-30T11:34:37.052Z</time></trkpt><trkpt lat="41.6311587" lon="3.0287883"><ele>0.0</ele><time>2026-04-30T11:34:38.052Z</time></trkpt><trkpt lat="41.6311917" lon="3.0288964"><ele>0.0</ele><time>2026-04-30T11:34:39.053Z</time></trkpt><trkpt lat="41.6312132" lon="3.0290005"><ele>0.0</ele><time>2026-04-30T11:34:40.053Z</time></trkpt><trkpt lat="41.6312446" lon="3.0291052"><ele>0.0</ele><time>2026-04-30T11:34:41.052Z</time></trkpt><trkpt lat="41.6312861" lon="3.0292101"><ele>0.0</ele><time>2026-04-30T11:34:42.052Z</time></trkpt><trkpt lat="41.6313211" lon="3.0293148"><ele>0.0</ele><time>2026-04-30T11:34:43.052Z</time></trkpt><trkpt lat="41.6313546" lon="3.0294216"><ele>0.0</ele><time>2026-04-30T11:34:44.053Z</time></trkpt><trkpt lat="41.6313834" lon="3.0295379"><ele>0.0</ele><time>2026-04-30T11:34:45.052Z</time></trkpt><trkpt lat="41.6314128" lon="3.0296511"><ele>0.0</ele><time>2026-04-30T11:34:46.052Z</time></trkpt><trkpt lat="41.6314486" lon="3.0297513"><ele>0.0</ele><time>2026-04-30T11:34:47.052Z</time></trkpt><trkpt lat="41.6314908" lon="3.0298577"><ele>0.0</ele><time>2026-04-30T11:34:48.053Z</time></trkpt><trkpt lat="41.6315295" lon="3.0299651"><ele>0.0</ele><time>2026-04-30T11:34:49.053Z</time></trkpt><trkpt lat="41.6315668" lon="3.0300663"><ele>0.0</ele><time>2026-04-30T11:34:50.052Z</time></trkpt><trkpt lat="41.6316052" lon="3.03017"><ele>0.0</ele><time>2026-04-30T11:34:51.052Z</time></trkpt><trkpt lat="41.6316864" lon="3.0303743"><ele>0.0</ele><time>2026-04-30T11:34:53.053Z</time></trkpt><trkpt lat="41.6317352" lon="3.0304796"><ele>0.0</ele><time>2026-04-30T11:34:54.052Z</time></trkpt><trkpt lat="41.6317817" lon="3.0305909"><ele>0.0</ele><time>2026-04-30T11:34:55.052Z</time></trkpt><trkpt lat="41.6318132" lon="3.0306986"><ele>0.0</ele><time>2026-04-30T11:34:56.052Z</time></trkpt><trkpt lat="41.631847" lon="3.0308065"><ele>0.0</ele><time>2026-04-30T11:34:57.052Z</time></trkpt><trkpt lat="41.6318761" lon="3.030914"><ele>0.0</ele><time>2026-04-30T11:34:58.053Z</time></trkpt><trkpt lat="41.6319018" lon="3.031018"><ele>0.0</ele><time>2026-04-30T11:34:59.052Z</time></trkpt><trkpt lat="41.6319363" lon="3.0311208"><ele>0.0</ele><time>2026-04-30T11:35:00.053Z</time></trkpt><trkpt lat="41.631966" lon="3.0312239"><ele>0.0</ele><time>2026-04-30T11:35:01.052Z</time></trkpt><trkpt lat="41.6319955" lon="3.0313328"><ele>0.0</ele><time>2026-04-30T11:35:02.053Z</time></trkpt><trkpt lat="41.6320286" lon="3.0314354"><ele>0.0</ele><time>2026-04-30T11:35:03.052Z</time></trkpt><trkpt lat="41.632059" lon="3.0315531"><ele>0.0</ele><time>2026-04-30T11:35:04.052Z</time></trkpt><trkpt lat="41.632089" lon="3.0316643"><ele>0.0</ele><time>2026-04-30T11:35:05.052Z</time></trkpt><trkpt lat="41.6321136" lon="3.0317741"><ele>0.0</ele><time>2026-04-30T11:35:06.053Z</time></trkpt><trkpt lat="41.632154" lon="3.0318784"><ele>0.0</ele><time>2026-04-30T11:35:07.052Z</time></trkpt><trkpt lat="41.6321883" lon="3.0319879"><ele>0.0</ele><time>2026-04-30T11:35:08.052Z</time></trkpt><trkpt lat="41.6322307" lon="3.0320865"><ele>0.0</ele><time>2026-04-30T11:35:09.053Z</time></trkpt><trkpt lat="41.6322781" lon="3.0321889"><ele>0.0</ele><time>2026-04-30T11:35:10.052Z</time></trkpt><trkpt lat="41.6323194" lon="3.0322934"><ele>0.0</ele><time>2026-04-30T11:35:11.052Z</time></trkpt><trkpt lat="41.6323554" lon="3.0323998"><ele>0.0</ele><time>2026-04-30T11:35:12.052Z</time></trkpt><trkpt lat="41.6324299" lon="3.0326179"><ele>0.0</ele><time>2026-04-30T11:35:14.052Z</time></trkpt><trkpt lat="41.6324699" lon="3.0327246"><ele>0.0</ele><time>2026-04-30T11:35:15.052Z</time></trkpt><trkpt lat="41.6325083" lon="3.0328329"><ele>0.0</ele><time>2026-04-30T11:35:16.052Z</time></trkpt><trkpt lat="41.632551" lon="3.0329426"><ele>0.0</ele><time>2026-04-30T11:35:17.053Z</time></trkpt><trkpt lat="41.6325897" lon="3.0330485"><ele>0.0</ele><time>2026-04-30T11:35:18.053Z</time></trkpt><trkpt lat="41.6326211" lon="3.0331536"><ele>0.0</ele><time>2026-04-30T11:35:19.052Z</time></trkpt><trkpt lat="41.6326512" lon="3.0332583"><ele>0.0</ele><time>2026-04-30T11:35:20.052Z</time></trkpt><trkpt lat="41.6326854" lon="3.0333632"><ele>0.0</ele><time>2026-04-30T11:35:21.052Z</time></trkpt><trkpt lat="41.632719" lon="3.0334722"><ele>0.0</ele><time>2026-04-30T11:35:22.053Z</time></trkpt><trkpt lat="41.6327537" lon="3.0335852"><ele>0.0</ele><time>2026-04-30T11:35:23.052Z</time></trkpt><trkpt lat="41.6327862" lon="3.0336941"><ele>0.0</ele><time>2026-04-30T11:35:24.053Z</time></trkpt><trkpt lat="41.6328219" lon="3.0337999"><ele>0.0</ele><time>2026-04-30T11:35:25.052Z</time></trkpt><trkpt lat="41.6328541" lon="3.0339093"><ele>0.0</ele><time>2026-04-30T11:35:26.053Z</time></trkpt><trkpt lat="41.6328858" lon="3.0340225"><ele>0.0</ele><time>2026-04-30T11:35:27.052Z</time></trkpt><trkpt lat="41.6329273" lon="3.0341317"><ele>0.0</ele><time>2026-04-30T11:35:28.052Z</time></trkpt><trkpt lat="41.6329692" lon="3.034233"><ele>0.0</ele><time>2026-04-30T11:35:29.052Z</time></trkpt><trkpt lat="41.6330078" lon="3.034326"><ele>0.0</ele><time>2026-04-30T11:35:30.052Z</time></trkpt><trkpt lat="41.6330449" lon="3.034433"><ele>0.0</ele><time>2026-04-30T11:35:31.052Z</time></trkpt><trkpt lat="41.6330806" lon="3.0345373"><ele>0.0</ele><time>2026-04-30T11:35:32.053Z</time></trkpt><trkpt lat="41.6331184" lon="3.0346418"><ele>0.0</ele><time>2026-04-30T11:35:33.052Z</time></trkpt><trkpt lat="41.6331954" lon="3.0348651"><ele>0.0</ele><time>2026-04-30T11:35:35.052Z</time></trkpt><trkpt lat="41.6332219" lon="3.0349702"><ele>0.0</ele><time>2026-04-30T11:35:36.052Z</time></trkpt><trkpt lat="41.6332497" lon="3.0350781"><ele>0.0</ele><time>2026-04-30T11:35:37.052Z</time></trkpt><trkpt lat="41.6332755" lon="3.0351818"><ele>0.0</ele><time>2026-04-30T11:35:38.052Z</time></trkpt><trkpt lat="41.6333057" lon="3.0352829"><ele>0.0</ele><time>2026-04-30T11:35:39.053Z</time></trkpt><trkpt lat="41.6333442" lon="3.0353815"><ele>0.0</ele><time>2026-04-30T11:35:40.053Z</time></trkpt><trkpt lat="41.6333718" lon="3.0354851"><ele>0.0</ele><time>2026-04-30T11:35:41.053Z</time></trkpt><trkpt lat="41.6334096" lon="3.0355973"><ele>0.0</ele><time>2026-04-30T11:35:42.052Z</time></trkpt><trkpt lat="41.6334438" lon="3.0357062"><ele>0.0</ele><time>2026-04-30T11:35:43.052Z</time></trkpt><trkpt lat="41.6334802" lon="3.0358148"><ele>0.0</ele><time>2026-04-30T11:35:44.052Z</time></trkpt><trkpt lat="41.633515" lon="3.0359256"><ele>0.0</ele><time>2026-04-30T11:35:45.052Z</time></trkpt><trkpt lat="41.6335518" lon="3.036036"><ele>0.0</ele><time>2026-04-30T11:35:46.053Z</time></trkpt><trkpt lat="41.6335859" lon="3.0361461"><ele>0.0</ele><time>2026-04-30T11:35:47.053Z</time></trkpt><trkpt lat="41.6336247" lon="3.0362533"><ele>0.0</ele><time>2026-04-30T11:35:48.052Z</time></trkpt><trkpt lat="41.6336591" lon="3.0363628"><ele>0.0</ele><time>2026-04-30T11:35:49.053Z</time></trkpt><trkpt lat="41.6336912" lon="3.0364672"><ele>0.0</ele><time>2026-04-30T11:35:50.052Z</time></trkpt><trkpt lat="41.633724" lon="3.0365766"><ele>0.0</ele><time>2026-04-30T11:35:51.052Z</time></trkpt><trkpt lat="41.6337589" lon="3.0366867"><ele>0.0</ele><time>2026-04-30T11:35:52.052Z</time></trkpt><trkpt lat="41.6337921" lon="3.0367876"><ele>0.0</ele><time>2026-04-30T11:35:53.052Z</time></trkpt><trkpt lat="41.63383" lon="3.0368918"><ele>0.0</ele><time>2026-04-30T11:35:54.052Z</time></trkpt><trkpt lat="41.6339451" lon="3.0372123"><ele>0.0</ele><time>2026-04-30T11:35:57.053Z</time></trkpt><trkpt lat="41.6339832" lon="3.0373199"><ele>0.0</ele><time>2026-04-30T11:35:58.052Z</time></trkpt><trkpt lat="41.6340229" lon="3.0374281"><ele>0.0</ele><time>2026-04-30T11:35:59.053Z</time></trkpt><trkpt lat="41.6340658" lon="3.0375268"><ele>0.0</ele><time>2026-04-30T11:36:00.052Z</time></trkpt><trkpt lat="41.6341087" lon="3.0376322"><ele>0.0</ele><time>2026-04-30T11:36:01.052Z</time></trkpt><trkpt lat="41.6341389" lon="3.0377389"><ele>0.0</ele><time>2026-04-30T11:36:02.052Z</time></trkpt><trkpt lat="41.6341764" lon="3.0378453"><ele>0.0</ele><time>2026-04-30T11:36:03.052Z</time></trkpt><trkpt lat="41.6342136" lon="3.0379503"><ele>0.0</ele><time>2026-04-30T11:36:04.052Z</time></trkpt><trkpt lat="41.6342503" lon="3.0380523"><ele>0.0</ele><time>2026-04-30T11:36:05.053Z</time></trkpt><trkpt lat="41.6342813" lon="3.038158"><ele>0.0</ele><time>2026-04-30T11:36:06.052Z</time></trkpt><trkpt lat="41.6343156" lon="3.038266"><ele>0.0</ele><time>2026-04-30T11:36:07.052Z</time></trkpt><trkpt lat="41.6343535" lon="3.0383719"><ele>0.0</ele><time>2026-04-30T11:36:08.052Z</time></trkpt><trkpt lat="41.6343942" lon="3.0384674"><ele>0.0</ele><time>2026-04-30T11:36:09.053Z</time></trkpt><trkpt lat="41.6344327" lon="3.0385677"><ele>0.0</ele><time>2026-04-30T11:36:10.053Z</time></trkpt><trkpt lat="41.6344756" lon="3.0386728"><ele>0.0</ele><time>2026-04-30T11:36:11.052Z</time></trkpt><trkpt lat="41.6345203" lon="3.0387713"><ele>0.0</ele><time>2026-04-30T11:36:12.053Z</time></trkpt><trkpt lat="41.6345626" lon="3.0388738"><ele>0.0</ele><time>2026-04-30T11:36:13.052Z</time></trkpt><trkpt lat="41.6345986" lon="3.0389752"><ele>0.0</ele><time>2026-04-30T11:36:14.053Z</time></trkpt><trkpt lat="41.6346281" lon="3.0390887"><ele>0.0</ele><time>2026-04-30T11:36:15.053Z</time></trkpt><trkpt lat="41.6346596" lon="3.0391936"><ele>0.0</ele><time>2026-04-30T11:36:16.053Z</time></trkpt><trkpt lat="41.6347371" lon="3.0394102"><ele>0.0</ele><time>2026-04-30T11:36:18.052Z</time></trkpt><trkpt lat="41.634775" lon="3.0395164"><ele>0.0</ele><time>2026-04-30T11:36:19.052Z</time></trkpt><trkpt lat="41.6348218" lon="3.039623"><ele>0.0</ele><time>2026-04-30T11:36:20.052Z</time></trkpt><trkpt lat="41.6348616" lon="3.0397296"><ele>0.0</ele><time>2026-04-30T11:36:21.053Z</time></trkpt><trkpt lat="41.6348957" lon="3.0398269"><ele>0.0</ele><time>2026-04-30T11:36:22.052Z</time></trkpt><trkpt lat="41.6349319" lon="3.0399279"><ele>0.0</ele><time>2026-04-30T11:36:23.053Z</time></trkpt><trkpt lat="41.6349714" lon="3.0400318"><ele>0.0</ele><time>2026-04-30T11:36:24.052Z</time></trkpt><trkpt lat="41.6350098" lon="3.0401356"><ele>0.0</ele><time>2026-04-30T11:36:25.052Z</time></trkpt><trkpt lat="41.6350472" lon="3.0402416"><ele>0.0</ele><time>2026-04-30T11:36:26.052Z</time></trkpt><trkpt lat="41.6350851" lon="3.0403482"><ele>0.0</ele><time>2026-04-30T11:36:27.052Z</time></trkpt><trkpt lat="41.6351232" lon="3.0404493"><ele>0.0</ele><time>2026-04-30T11:36:28.053Z</time></trkpt><trkpt lat="41.6351672" lon="3.0405533"><ele>0.0</ele><time>2026-04-30T11:36:29.052Z</time></trkpt><trkpt lat="41.6352077" lon="3.0406572"><ele>0.0</ele><time>2026-04-30T11:36:30.053Z</time></trkpt><trkpt lat="41.635245" lon="3.040762"><ele>0.0</ele><time>2026-04-30T11:36:31.052Z</time></trkpt><trkpt lat="41.6352876" lon="3.0408655"><ele>0.0</ele><time>2026-04-30T11:36:32.052Z</time></trkpt><trkpt lat="41.6353285" lon="3.0409716"><ele>0.0</ele><time>2026-04-30T11:36:33.053Z</time></trkpt><trkpt lat="41.6353652" lon="3.0410757"><ele>0.0</ele><time>2026-04-30T11:36:34.053Z</time></trkpt><trkpt lat="41.6354031" lon="3.0411775"><ele>0.0</ele><time>2026-04-30T11:36:35.053Z</time></trkpt><trkpt lat="41.6354408" lon="3.0412833"><ele>0.0</ele><time>2026-04-30T11:36:36.052Z</time></trkpt><trkpt lat="41.6354758" lon="3.0413901"><ele>0.0</ele><time>2026-04-30T11:36:37.053Z</time></trkpt><trkpt lat="41.635541" lon="3.0416127"><ele>0.0</ele><time>2026-04-30T11:36:39.053Z</time></trkpt><trkpt lat="41.635574" lon="3.0417183"><ele>0.0</ele><time>2026-04-30T11:36:40.052Z</time></trkpt><trkpt lat="41.6356074" lon="3.0418202"><ele>0.0</ele><time>2026-04-30T11:36:41.053Z</time></trkpt><trkpt lat="41.6356407" lon="3.0419238"><ele>0.0</ele><time>2026-04-30T11:36:42.053Z</time></trkpt><trkpt lat="41.6356766" lon="3.0420286"><ele>0.0</ele><time>2026-04-30T11:36:43.053Z</time></trkpt><trkpt lat="41.6357181" lon="3.0421307"><ele>0.0</ele><time>2026-04-30T11:36:44.053Z</time></trkpt><trkpt lat="41.6357496" lon="3.0422396"><ele>0.0</ele><time>2026-04-30T11:36:45.053Z</time></trkpt><trkpt lat="41.635782" lon="3.0423468"><ele>0.0</ele><time>2026-04-30T11:36:46.052Z</time></trkpt><trkpt lat="41.6358128" lon="3.0424533"><ele>0.0</ele><time>2026-04-30T11:36:47.053Z</time></trkpt><trkpt lat="41.6358473" lon="3.0425603"><ele>0.0</ele><time>2026-04-30T11:36:48.053Z</time></trkpt><trkpt lat="41.6358908" lon="3.0426653"><ele>0.0</ele><time>2026-04-30T11:36:49.052Z</time></trkpt><trkpt lat="41.6359285" lon="3.0427703"><ele>0.0</ele><time>2026-04-30T11:36:50.052Z</time></trkpt><trkpt lat="41.6359679" lon="3.042878"><ele>0.0</ele><time>2026-04-30T11:36:51.053Z</time></trkpt><trkpt lat="41.6360048" lon="3.0429934"><ele>0.0</ele><time>2026-04-30T11:36:52.053Z</time></trkpt><trkpt lat="41.6360405" lon="3.0430985"><ele>0.0</ele><time>2026-04-30T11:36:53.052Z</time></trkpt><trkpt lat="41.6360769" lon="3.043206"><ele>0.0</ele><time>2026-04-30T11:36:54.053Z</time></trkpt><trkpt lat="41.6361094" lon="3.0433116"><ele>0.0</ele><time>2026-04-30T11:36:55.053Z</time></trkpt><trkpt lat="41.6361436" lon="3.043417"><ele>0.0</ele><time>2026-04-30T11:36:56.052Z</time></trkpt><trkpt lat="41.63618" lon="3.0435218"><ele>0.0</ele><time>2026-04-30T11:36:57.052Z</time></trkpt><trkpt lat="41.6362936" lon="3.0438371"><ele>0.0</ele><time>2026-04-30T11:37:00.053Z</time></trkpt><trkpt lat="41.6363331" lon="3.0439447"><ele>0.0</ele><time>2026-04-30T11:37:01.053Z</time></trkpt><trkpt lat="41.6363732" lon="3.0440476"><ele>0.0</ele><time>2026-04-30T11:37:02.053Z</time></trkpt><trkpt lat="41.6364115" lon="3.0441507"><ele>0.0</ele><time>2026-04-30T11:37:03.053Z</time></trkpt><trkpt lat="41.6364517" lon="3.0442552"><ele>0.0</ele><time>2026-04-30T11:37:04.052Z</time></trkpt><trkpt lat="41.6364915" lon="3.0443586"><ele>0.0</ele><time>2026-04-30T11:37:05.052Z</time></trkpt><trkpt lat="41.6365302" lon="3.0444591"><ele>0.0</ele><time>2026-04-30T11:37:06.052Z</time></trkpt><trkpt lat="41.6365658" lon="3.0445663"><ele>0.0</ele><time>2026-04-30T11:37:07.053Z</time></trkpt><trkpt lat="41.636605" lon="3.0446733"><ele>0.0</ele><time>2026-04-30T11:37:08.053Z</time></trkpt><trkpt lat="41.6366419" lon="3.0447812"><ele>0.0</ele><time>2026-04-30T11:37:09.052Z</time></trkpt><trkpt lat="41.6366787" lon="3.0448939"><ele>0.0</ele><time>2026-04-30T11:37:10.053Z</time></trkpt><trkpt lat="41.6367165" lon="3.0449999"><ele>0.0</ele><time>2026-04-30T11:37:11.053Z</time></trkpt><trkpt lat="41.6367563" lon="3.0450963"><ele>0.0</ele><time>2026-04-30T11:37:12.052Z</time></trkpt><trkpt lat="41.6367967" lon="3.0452039"><ele>0.0</ele><time>2026-04-30T11:37:13.052Z</time></trkpt><trkpt lat="41.6368394" lon="3.0453111"><ele>0.0</ele><time>2026-04-30T11:37:14.052Z</time></trkpt><trkpt lat="41.6368796" lon="3.0454137"><ele>0.0</ele><time>2026-04-30T11:37:15.052Z</time></trkpt><trkpt lat="41.6369174" lon="3.0455112"><ele>0.0</ele><time>2026-04-30T11:37:16.053Z</time></trkpt><trkpt lat="41.6369552" lon="3.0456205"><ele>0.0</ele><time>2026-04-30T11:37:17.052Z</time></trkpt><trkpt lat="41.6369935" lon="3.0457255"><ele>0.0</ele><time>2026-04-30T11:37:18.053Z</time></trkpt><trkpt lat="41.6370319" lon="3.04583"><ele>0.0</ele><time>2026-04-30T11:37:19.052Z</time></trkpt><trkpt lat="41.6371052" lon="3.0460429"><ele>0.0</ele><time>2026-04-30T11:37:21.053Z</time></trkpt><trkpt lat="41.6371435" lon="3.046153"><ele>0.0</ele><time>2026-04-30T11:37:22.052Z</time></trkpt><trkpt lat="41.6371798" lon="3.046264"><ele>0.0</ele><time>2026-04-30T11:37:23.052Z</time></trkpt><trkpt lat="41.6372151" lon="3.046373"><ele>0.0</ele><time>2026-04-30T11:37:24.053Z</time></trkpt><trkpt lat="41.6372504" lon="3.0464814"><ele>0.0</ele><time>2026-04-30T11:37:25.053Z</time></trkpt><trkpt lat="41.6372871" lon="3.0465883"><ele>0.0</ele><time>2026-04-30T11:37:26.053Z</time></trkpt><trkpt lat="41.6373164" lon="3.0466962"><ele>0.0</ele><time>2026-04-30T11:37:27.053Z</time></trkpt><trkpt lat="41.6373464" lon="3.0468048"><ele>0.0</ele><time>2026-04-30T11:37:28.053Z</time></trkpt><trkpt lat="41.6373806" lon="3.0469089"><ele>0.0</ele><time>2026-04-30T11:37:29.052Z</time></trkpt><trkpt lat="41.6374597" lon="3.0471245"><ele>0.0</ele><time>2026-04-30T11:37:31.052Z</time></trkpt><trkpt lat="41.637496" lon="3.0472314"><ele>0.0</ele><time>2026-04-30T11:37:32.052Z</time></trkpt><trkpt lat="41.6375336" lon="3.047334"><ele>0.0</ele><time>2026-04-30T11:37:33.051Z</time></trkpt><trkpt lat="41.6375689" lon="3.0474258"><ele>0.0</ele><time>2026-04-30T11:37:34.052Z</time></trkpt><trkpt lat="41.6376053" lon="3.0475322"><ele>0.0</ele><time>2026-04-30T11:37:35.052Z</time></trkpt><trkpt lat="41.6376392" lon="3.0476412"><ele>0.0</ele><time>2026-04-30T11:37:36.052Z</time></trkpt><trkpt lat="41.6376651" lon="3.047754"><ele>0.0</ele><time>2026-04-30T11:37:37.052Z</time></trkpt><trkpt lat="41.6376974" lon="3.0478631"><ele>0.0</ele><time>2026-04-30T11:37:38.052Z</time></trkpt><trkpt lat="41.6377322" lon="3.0479731"><ele>0.0</ele><time>2026-04-30T11:37:39.051Z</time></trkpt><trkpt lat="41.63777" lon="3.0480787"><ele>0.0</ele><time>2026-04-30T11:37:40.051Z</time></trkpt><trkpt lat="41.6378372" lon="3.0482967"><ele>0.0</ele><time>2026-04-30T11:37:42.051Z</time></trkpt><trkpt lat="41.6378762" lon="3.0484022"><ele>0.0</ele><time>2026-04-30T11:37:43.051Z</time></trkpt><trkpt lat="41.6379117" lon="3.0485083"><ele>0.0</ele><time>2026-04-30T11:37:44.052Z</time></trkpt><trkpt lat="41.6379596" lon="3.0486077"><ele>0.0</ele><time>2026-04-30T11:37:45.051Z</time></trkpt><trkpt lat="41.6379995" lon="3.0487149"><ele>0.0</ele><time>2026-04-30T11:37:46.052Z</time></trkpt><trkpt lat="41.6380357" lon="3.0488215"><ele>0.0</ele><time>2026-04-30T11:37:47.051Z</time></trkpt><trkpt lat="41.6380774" lon="3.0489252"><ele>0.0</ele><time>2026-04-30T11:37:48.051Z</time></trkpt><trkpt lat="41.6381096" lon="3.0490285"><ele>0.0</ele><time>2026-04-30T11:37:49.051Z</time></trkpt><trkpt lat="41.6381382" lon="3.0491374"><ele>0.0</ele><time>2026-04-30T11:37:50.052Z</time></trkpt><trkpt lat="41.6381724" lon="3.0492388"><ele>0.0</ele><time>2026-04-30T11:37:51.052Z</time></trkpt><trkpt lat="41.6382073" lon="3.0493477"><ele>0.0</ele><time>2026-04-30T11:37:52.052Z</time></trkpt><trkpt lat="41.6382477" lon="3.0494522"><ele>0.0</ele><time>2026-04-30T11:37:53.052Z</time></trkpt><trkpt lat="41.6382864" lon="3.0495584"><ele>0.0</ele><time>2026-04-30T11:37:54.052Z</time></trkpt><trkpt lat="41.6383178" lon="3.0496678"><ele>0.0</ele><time>2026-04-30T11:37:55.052Z</time></trkpt><trkpt lat="41.6383382" lon="3.0497851"><ele>0.0</ele><time>2026-04-30T11:37:56.051Z</time></trkpt><trkpt lat="41.6383679" lon="3.0498935"><ele>0.0</ele><time>2026-04-30T11:37:57.051Z</time></trkpt><trkpt lat="41.6384021" lon="3.0499988"><ele>0.0</ele><time>2026-04-30T11:37:58.051Z</time></trkpt><trkpt lat="41.6384361" lon="3.0501033"><ele>0.0</ele><time>2026-04-30T11:37:59.051Z</time></trkpt><trkpt lat="41.638465" lon="3.0502098"><ele>0.0</ele><time>2026-04-30T11:38:00.052Z</time></trkpt><trkpt lat="41.6384958" lon="3.0503193"><ele>0.0</ele><time>2026-04-30T11:38:01.052Z</time></trkpt><trkpt lat="41.6385773" lon="3.0505243"><ele>0.0</ele><time>2026-04-30T11:38:03.051Z</time></trkpt><trkpt lat="41.6386292" lon="3.050627"><ele>0.0</ele><time>2026-04-30T11:38:04.051Z</time></trkpt><trkpt lat="41.6386587" lon="3.0507361"><ele>0.0</ele><time>2026-04-30T11:38:05.051Z</time></trkpt><trkpt lat="41.638691" lon="3.0508448"><ele>0.0</ele><time>2026-04-30T11:38:06.051Z</time></trkpt><trkpt lat="41.6387213" lon="3.0509531"><ele>0.0</ele><time>2026-04-30T11:38:07.051Z</time></trkpt><trkpt lat="41.6387541" lon="3.0510615"><ele>0.0</ele><time>2026-04-30T11:38:08.052Z</time></trkpt><trkpt lat="41.6387816" lon="3.0511728"><ele>0.0</ele><time>2026-04-30T11:38:09.051Z</time></trkpt><trkpt lat="41.6388112" lon="3.051283"><ele>0.0</ele><time>2026-04-30T11:38:10.051Z</time></trkpt><trkpt lat="41.6388466" lon="3.0513875"><ele>0.0</ele><time>2026-04-30T11:38:11.052Z</time></trkpt><trkpt lat="41.6388838" lon="3.0514925"><ele>0.0</ele><time>2026-04-30T11:38:12.052Z</time></trkpt><trkpt lat="41.6389205" lon="3.0515958"><ele>0.0</ele><time>2026-04-30T11:38:13.051Z</time></trkpt><trkpt lat="41.6389594" lon="3.0516989"><ele>0.0</ele><time>2026-04-30T11:38:14.052Z</time></trkpt><trkpt lat="41.6389941" lon="3.0518051"><ele>0.0</ele><time>2026-04-30T11:38:15.052Z</time></trkpt><trkpt lat="41.6390347" lon="3.0519119"><ele>0.0</ele><time>2026-04-30T11:38:16.052Z</time></trkpt><trkpt lat="41.6390849" lon="3.0520126"><ele>0.0</ele><time>2026-04-30T11:38:17.052Z</time></trkpt><trkpt lat="41.6391315" lon="3.052117"><ele>0.0</ele><time>2026-04-30T11:38:18.051Z</time></trkpt><trkpt lat="41.6391826" lon="3.0522152"><ele>0.0</ele><time>2026-04-30T11:38:19.051Z</time></trkpt><trkpt lat="41.6392263" lon="3.0523187"><ele>0.0</ele><time>2026-04-30T11:38:20.052Z</time></trkpt><trkpt lat="41.6392666" lon="3.0524233"><ele>0.0</ele><time>2026-04-30T11:38:21.051Z</time></trkpt><trkpt lat="41.6393023" lon="3.05253"><ele>0.0</ele><time>2026-04-30T11:38:22.051Z</time></trkpt><trkpt lat="41.6393787" lon="3.0527352"><ele>0.0</ele><time>2026-04-30T11:38:24.052Z</time></trkpt><trkpt lat="41.6394201" lon="3.0528401"><ele>0.0</ele><time>2026-04-30T11:38:25.052Z</time></trkpt><trkpt lat="41.6394633" lon="3.0529449"><ele>0.0</ele><time>2026-04-30T11:38:26.052Z</time></trkpt><trkpt lat="41.6395022" lon="3.05305"><ele>0.0</ele><time>2026-04-30T11:38:27.052Z</time></trkpt><trkpt lat="41.6395472" lon="3.0531553"><ele>0.0</ele><time>2026-04-30T11:38:28.051Z</time></trkpt><trkpt lat="41.6395856" lon="3.0532615"><ele>0.0</ele><time>2026-04-30T11:38:29.051Z</time></trkpt><trkpt lat="41.6396221" lon="3.0533697"><ele>0.0</ele><time>2026-04-30T11:38:30.052Z</time></trkpt><trkpt lat="41.6396586" lon="3.0534755"><ele>0.0</ele><time>2026-04-30T11:38:31.051Z</time></trkpt><trkpt lat="41.6396968" lon="3.0535816"><ele>0.0</ele><time>2026-04-30T11:38:32.051Z</time></trkpt><trkpt lat="41.639774" lon="3.0537898"><ele>0.0</ele><time>2026-04-30T11:38:34.052Z</time></trkpt><trkpt lat="41.6398146" lon="3.0538907"><ele>0.0</ele><time>2026-04-30T11:38:35.051Z</time></trkpt><trkpt lat="41.639852" lon="3.0539926"><ele>0.0</ele><time>2026-04-30T11:38:36.052Z</time></trkpt><trkpt lat="41.6398916" lon="3.0540986"><ele>0.0</ele><time>2026-04-30T11:38:37.052Z</time></trkpt><trkpt lat="41.6399325" lon="3.054207"><ele>0.0</ele><time>2026-04-30T11:38:38.052Z</time></trkpt><trkpt lat="41.6399714" lon="3.0543135"><ele>0.0</ele><time>2026-04-30T11:38:39.052Z</time></trkpt><trkpt lat="41.6400115" lon="3.0544174"><ele>0.0</ele><time>2026-04-30T11:38:40.052Z</time></trkpt><trkpt lat="41.640054" lon="3.0545205"><ele>0.0</ele><time>2026-04-30T11:38:41.051Z</time></trkpt><trkpt lat="41.6400904" lon="3.0546223"><ele>0.0</ele><time>2026-04-30T11:38:42.051Z</time></trkpt><trkpt lat="41.6401267" lon="3.054731"><ele>0.0</ele><time>2026-04-30T11:38:43.051Z</time></trkpt><trkpt lat="41.6401969" lon="3.054944"><ele>0.0</ele><time>2026-04-30T11:38:45.051Z</time></trkpt><trkpt lat="41.640225" lon="3.0550572"><ele>0.0</ele><time>2026-04-30T11:38:46.051Z</time></trkpt><trkpt lat="41.6402587" lon="3.0551692"><ele>0.0</ele><time>2026-04-30T11:38:47.051Z</time></trkpt><trkpt lat="41.6402936" lon="3.0552841"><ele>0.0</ele><time>2026-04-30T11:38:48.051Z</time></trkpt><trkpt lat="41.6403228" lon="3.0553936"><ele>0.0</ele><time>2026-04-30T11:38:49.052Z</time></trkpt><trkpt lat="41.6403598" lon="3.0555044"><ele>0.0</ele><time>2026-04-30T11:38:50.052Z</time></trkpt><trkpt lat="41.6403936" lon="3.0556102"><ele>0.0</ele><time>2026-04-30T11:38:51.051Z</time></trkpt><trkpt lat="41.6404355" lon="3.0557153"><ele>0.0</ele><time>2026-04-30T11:38:52.052Z</time></trkpt><trkpt lat="41.640472" lon="3.0558206"><ele>0.0</ele><time>2026-04-30T11:38:53.051Z</time></trkpt><trkpt lat="41.6405044" lon="3.0559267"><ele>0.0</ele><time>2026-04-30T11:38:54.052Z</time></trkpt><trkpt lat="41.6405529" lon="3.0560277"><ele>0.0</ele><time>2026-04-30T11:38:55.051Z</time></trkpt><trkpt lat="41.6405916" lon="3.0561304"><ele>0.0</ele><time>2026-04-30T11:38:56.052Z</time></trkpt><trkpt lat="41.6406241" lon="3.0562428"><ele>0.0</ele><time>2026-04-30T11:38:57.052Z</time></trkpt><trkpt lat="41.6406588" lon="3.0563515"><ele>0.0</ele><time>2026-04-30T11:38:58.051Z</time></trkpt><trkpt lat="41.6406939" lon="3.0564602"><ele>0.0</ele><time>2026-04-30T11:38:59.051Z</time></trkpt><trkpt lat="41.6407307" lon="3.0565667"><ele>0.0</ele><time>2026-04-30T11:39:00.051Z</time></trkpt><trkpt lat="41.6407641" lon="3.0566686"><ele>0.0</ele><time>2026-04-30T11:39:01.051Z</time></trkpt><trkpt lat="41.6407988" lon="3.0567717"><ele>0.0</ele><time>2026-04-30T11:39:02.052Z</time></trkpt><trkpt lat="41.640831" lon="3.056882"><ele>0.0</ele><time>2026-04-30T11:39:03.051Z</time></trkpt><trkpt lat="41.6408756" lon="3.0569925"><ele>0.0</ele><time>2026-04-30T11:39:04.052Z</time></trkpt><trkpt lat="41.640915" lon="3.0570957"><ele>0.0</ele><time>2026-04-30T11:39:05.051Z</time></trkpt><trkpt lat="41.6409905" lon="3.0573048"><ele>0.0</ele><time>2026-04-30T11:39:07.052Z</time></trkpt><trkpt lat="41.6410268" lon="3.0574086"><ele>0.0</ele><time>2026-04-30T11:39:08.051Z</time></trkpt><trkpt lat="41.6410537" lon="3.0575195"><ele>0.0</ele><time>2026-04-30T11:39:09.051Z</time></trkpt><trkpt lat="41.641082" lon="3.0576296"><ele>0.0</ele><time>2026-04-30T11:39:10.051Z</time></trkpt><trkpt lat="41.6411157" lon="3.0577338"><ele>0.0</ele><time>2026-04-30T11:39:11.052Z</time></trkpt><trkpt lat="41.6411482" lon="3.0578374"><ele>0.0</ele><time>2026-04-30T11:39:12.052Z</time></trkpt><trkpt lat="41.6411824" lon="3.0579481"><ele>0.0</ele><time>2026-04-30T11:39:13.052Z</time></trkpt><trkpt lat="41.6412201" lon="3.0580539"><ele>0.0</ele><time>2026-04-30T11:39:14.052Z</time></trkpt><trkpt lat="41.6412538" lon="3.0581576"><ele>0.0</ele><time>2026-04-30T11:39:15.052Z</time></trkpt><trkpt lat="41.6412957" lon="3.0582609"><ele>0.0</ele><time>2026-04-30T11:39:16.052Z</time></trkpt><trkpt lat="41.6413361" lon="3.0583669"><ele>0.0</ele><time>2026-04-30T11:39:17.051Z</time></trkpt><trkpt lat="41.6413789" lon="3.0584705"><ele>0.0</ele><time>2026-04-30T11:39:18.051Z</time></trkpt><trkpt lat="41.6414206" lon="3.0585769"><ele>0.0</ele><time>2026-04-30T11:39:19.051Z</time></trkpt><trkpt lat="41.6414654" lon="3.0586809"><ele>0.0</ele><time>2026-04-30T11:39:20.051Z</time></trkpt><trkpt lat="41.6415032" lon="3.0587882"><ele>0.0</ele><time>2026-04-30T11:39:21.051Z</time></trkpt><trkpt lat="41.6415471" lon="3.0588936"><ele>0.0</ele><time>2026-04-30T11:39:22.052Z</time></trkpt><trkpt lat="41.6415853" lon="3.0589956"><ele>0.0</ele><time>2026-04-30T11:39:23.052Z</time></trkpt><trkpt lat="41.6416204" lon="3.0590948"><ele>0.0</ele><time>2026-04-30T11:39:24.051Z</time></trkpt><trkpt lat="41.6416571" lon="3.0591987"><ele>0.0</ele><time>2026-04-30T11:39:25.051Z</time></trkpt><trkpt lat="41.6416977" lon="3.0593022"><ele>0.0</ele><time>2026-04-30T11:39:26.051Z</time></trkpt><trkpt lat="41.6417824" lon="3.0595109"><ele>0.0</ele><time>2026-04-30T11:39:28.051Z</time></trkpt><trkpt lat="41.6418178" lon="3.0596178"><ele>0.0</ele><time>2026-04-30T11:39:29.051Z</time></trkpt><trkpt lat="41.6418494" lon="3.0597221"><ele>0.0</ele><time>2026-04-30T11:39:30.052Z</time></trkpt><trkpt lat="41.6418827" lon="3.0598283"><ele>0.0</ele><time>2026-04-30T11:39:31.052Z</time></trkpt><trkpt lat="41.6419144" lon="3.0599407"><ele>0.0</ele><time>2026-04-30T11:39:32.051Z</time></trkpt><trkpt lat="41.6419532" lon="3.0600465"><ele>0.0</ele><time>2026-04-30T11:39:33.051Z</time></trkpt><trkpt lat="41.6419902" lon="3.0601487"><ele>0.0</ele><time>2026-04-30T11:39:34.052Z</time></trkpt><trkpt lat="41.6420326" lon="3.0602493"><ele>0.0</ele><time>2026-04-30T11:39:35.052Z</time></trkpt><trkpt lat="41.6420658" lon="3.0603622"><ele>0.0</ele><time>2026-04-30T11:39:36.052Z</time></trkpt><trkpt lat="41.6421517" lon="3.0605734"><ele>0.0</ele><time>2026-04-30T11:39:38.052Z</time></trkpt><trkpt lat="41.6421912" lon="3.06068"><ele>0.0</ele><time>2026-04-30T11:39:39.051Z</time></trkpt><trkpt lat="41.64223" lon="3.060788"><ele>0.0</ele><time>2026-04-30T11:39:40.051Z</time></trkpt><trkpt lat="41.6422682" lon="3.060891"><ele>0.0</ele><time>2026-04-30T11:39:41.051Z</time></trkpt><trkpt lat="41.6423064" lon="3.0609987"><ele>0.0</ele><time>2026-04-30T11:39:42.052Z</time></trkpt><trkpt lat="41.6423392" lon="3.0611066"><ele>0.0</ele><time>2026-04-30T11:39:43.051Z</time></trkpt><trkpt lat="41.6423725" lon="3.0612106"><ele>0.0</ele><time>2026-04-30T11:39:44.051Z</time></trkpt><trkpt lat="41.6424083" lon="3.0613168"><ele>0.0</ele><time>2026-04-30T11:39:45.051Z</time></trkpt><trkpt lat="41.6424423" lon="3.0614219"><ele>0.0</ele><time>2026-04-30T11:39:46.051Z</time></trkpt><trkpt lat="41.64248" lon="3.0615258"><ele>0.0</ele><time>2026-04-30T11:39:47.051Z</time></trkpt><trkpt lat="41.6425598" lon="3.0617412"><ele>0.0</ele><time>2026-04-30T11:39:49.051Z</time></trkpt><trkpt lat="41.6425984" lon="3.0618455"><ele>0.0</ele><time>2026-04-30T11:39:50.052Z</time></trkpt><trkpt lat="41.6426323" lon="3.0619488"><ele>0.0</ele><time>2026-04-30T11:39:51.052Z</time></trkpt><trkpt lat="41.6426629" lon="3.0620606"><ele>0.0</ele><time>2026-04-30T11:39:52.051Z</time></trkpt><trkpt lat="41.642693" lon="3.0621723"><ele>0.0</ele><time>2026-04-30T11:39:53.051Z</time></trkpt><trkpt lat="41.642727" lon="3.0622827"><ele>0.0</ele><time>2026-04-30T11:39:54.051Z</time></trkpt><trkpt lat="41.6427619" lon="3.0623957"><ele>0.0</ele><time>2026-04-30T11:39:55.051Z</time></trkpt><trkpt lat="41.6427982" lon="3.0625089"><ele>0.0</ele><time>2026-04-30T11:39:56.051Z</time></trkpt><trkpt lat="41.6428309" lon="3.0626195"><ele>0.0</ele><time>2026-04-30T11:39:57.051Z</time></trkpt><trkpt lat="41.642867" lon="3.0627311"><ele>0.0</ele><time>2026-04-30T11:39:58.051Z</time></trkpt><trkpt lat="41.6428988" lon="3.0628344"><ele>0.0</ele><time>2026-04-30T11:39:59.051Z</time></trkpt><trkpt lat="41.6429302" lon="3.0629418"><ele>0.0</ele><time>2026-04-30T11:40:00.052Z</time></trkpt><trkpt lat="41.6429635" lon="3.0630529"><ele>0.0</ele><time>2026-04-30T11:40:01.052Z</time></trkpt><trkpt lat="41.6429958" lon="3.0631633"><ele>0.0</ele><time>2026-04-30T11:40:02.051Z</time></trkpt><trkpt lat="41.643029" lon="3.0632728"><ele>0.0</ele><time>2026-04-30T11:40:03.052Z</time></trkpt><trkpt lat="41.6430596" lon="3.0633802"><ele>0.0</ele><time>2026-04-30T11:40:04.052Z</time></trkpt><trkpt lat="41.6430937" lon="3.0634856"><ele>0.0</ele><time>2026-04-30T11:40:05.051Z</time></trkpt><trkpt lat="41.6431256" lon="3.063596"><ele>0.0</ele><time>2026-04-30T11:40:06.052Z</time></trkpt><trkpt lat="41.6431659" lon="3.0637032"><ele>0.0</ele><time>2026-04-30T11:40:07.051Z</time></trkpt><trkpt lat="41.643202" lon="3.0638102"><ele>0.0</ele><time>2026-04-30T11:40:08.051Z</time></trkpt><trkpt lat="41.6432374" lon="3.0639168"><ele>0.0</ele><time>2026-04-30T11:40:09.051Z</time></trkpt><trkpt lat="41.6433118" lon="3.0641255"><ele>0.0</ele><time>2026-04-30T11:40:11.051Z</time></trkpt><trkpt lat="41.64335" lon="3.0642259"><ele>0.0</ele><time>2026-04-30T11:40:12.051Z</time></trkpt><trkpt lat="41.6433924" lon="3.0643291"><ele>0.0</ele><time>2026-04-30T11:40:13.051Z</time></trkpt><trkpt lat="41.6434369" lon="3.0644294"><ele>0.0</ele><time>2026-04-30T11:40:14.051Z</time></trkpt><trkpt lat="41.6434763" lon="3.0645324"><ele>0.0</ele><time>2026-04-30T11:40:15.052Z</time></trkpt><trkpt lat="41.6435162" lon="3.0646384"><ele>0.0</ele><time>2026-04-30T11:40:16.051Z</time></trkpt><trkpt lat="41.6435547" lon="3.0647554"><ele>0.0</ele><time>2026-04-30T11:40:17.052Z</time></trkpt><trkpt lat="41.64359" lon="3.0648723"><ele>0.0</ele><time>2026-04-30T11:40:18.052Z</time></trkpt><trkpt lat="41.6436249" lon="3.064978"><ele>0.0</ele><time>2026-04-30T11:40:19.051Z</time></trkpt><trkpt lat="41.64366" lon="3.065084"><ele>0.0</ele><time>2026-04-30T11:40:20.052Z</time></trkpt><trkpt lat="41.6436922" lon="3.0651919"><ele>0.0</ele><time>2026-04-30T11:40:21.051Z</time></trkpt><trkpt lat="41.6437271" lon="3.0652984"><ele>0.0</ele><time>2026-04-30T11:40:22.051Z</time></trkpt><trkpt lat="41.6437644" lon="3.06541"><ele>0.0</ele><time>2026-04-30T11:40:23.051Z</time></trkpt><trkpt lat="41.6438058" lon="3.0655186"><ele>0.0</ele><time>2026-04-30T11:40:24.052Z</time></trkpt><trkpt lat="41.6438463" lon="3.0656212"><ele>0.0</ele><time>2026-04-30T11:40:25.052Z</time></trkpt><trkpt lat="41.6438849" lon="3.0657231"><ele>0.0</ele><time>2026-04-30T11:40:26.052Z</time></trkpt><trkpt lat="41.6439216" lon="3.0658231"><ele>0.0</ele><time>2026-04-30T11:40:27.052Z</time></trkpt><trkpt lat="41.6439582" lon="3.0659302"><ele>0.0</ele><time>2026-04-30T11:40:28.052Z</time></trkpt><trkpt lat="41.643998" lon="3.066035"><ele>0.0</ele><time>2026-04-30T11:40:29.051Z</time></trkpt><trkpt lat="41.6440733" lon="3.0662512"><ele>0.0</ele><time>2026-04-30T11:40:31.051Z</time></trkpt><trkpt lat="41.6441131" lon="3.0663623"><ele>0.0</ele><time>2026-04-30T11:40:32.051Z</time></trkpt><trkpt lat="41.6441548" lon="3.0664671"><ele>0.0</ele><time>2026-04-30T11:40:33.052Z</time></trkpt><trkpt lat="41.6441933" lon="3.066572"><ele>0.0</ele><time>2026-04-30T11:40:34.052Z</time></trkpt><trkpt lat="41.6442299" lon="3.06668"><ele>0.0</ele><time>2026-04-30T11:40:35.051Z</time></trkpt><trkpt lat="41.6442668" lon="3.0667854"><ele>0.0</ele><time>2026-04-30T11:40:36.052Z</time></trkpt><trkpt lat="41.6443065" lon="3.0668887"><ele>0.0</ele><time>2026-04-30T11:40:37.052Z</time></trkpt><trkpt lat="41.644348" lon="3.0669877"><ele>0.0</ele><time>2026-04-30T11:40:38.052Z</time></trkpt><trkpt lat="41.6443882" lon="3.067093"><ele>0.0</ele><time>2026-04-30T11:40:39.051Z</time></trkpt><trkpt lat="41.6444238" lon="3.0671927"><ele>0.0</ele><time>2026-04-30T11:40:40.052Z</time></trkpt><trkpt lat="41.6444601" lon="3.0672984"><ele>0.0</ele><time>2026-04-30T11:40:41.051Z</time></trkpt><trkpt lat="41.6444951" lon="3.067405"><ele>0.0</ele><time>2026-04-30T11:40:42.052Z</time></trkpt><trkpt lat="41.6445349" lon="3.0675083"><ele>0.0</ele><time>2026-04-30T11:40:43.051Z</time></trkpt><trkpt lat="41.644575" lon="3.0676128"><ele>0.0</ele><time>2026-04-30T11:40:44.052Z</time></trkpt><trkpt lat="41.6446134" lon="3.0677199"><ele>0.0</ele><time>2026-04-30T11:40:45.052Z</time></trkpt><trkpt lat="41.6446534" lon="3.0678223"><ele>0.0</ele><time>2026-04-30T11:40:46.051Z</time></trkpt><trkpt lat="41.6446918" lon="3.0679286"><ele>0.0</ele><time>2026-04-30T11:40:47.051Z</time></trkpt><trkpt lat="41.6447283" lon="3.0680396"><ele>0.0</ele><time>2026-04-30T11:40:48.052Z</time></trkpt><trkpt lat="41.6447664" lon="3.0681525"><ele>0.0</ele><time>2026-04-30T11:40:49.052Z</time></trkpt><trkpt lat="41.6448035" lon="3.0682618"><ele>0.0</ele><time>2026-04-30T11:40:50.051Z</time></trkpt><trkpt lat="41.6448827" lon="3.0684752"><ele>0.0</ele><time>2026-04-30T11:40:52.051Z</time></trkpt><trkpt lat="41.6449233" lon="3.0685787"><ele>0.0</ele><time>2026-04-30T11:40:53.052Z</time></trkpt><trkpt lat="41.6449633" lon="3.06868"><ele>0.0</ele><time>2026-04-30T11:40:54.052Z</time></trkpt><trkpt lat="41.644996" lon="3.0687898"><ele>0.0</ele><time>2026-04-30T11:40:55.051Z</time></trkpt><trkpt lat="41.6450192" lon="3.0689028"><ele>0.0</ele><time>2026-04-30T11:40:56.051Z</time></trkpt><trkpt lat="41.645056" lon="3.0690082"><ele>0.0</ele><time>2026-04-30T11:40:57.051Z</time></trkpt><trkpt lat="41.6450901" lon="3.0691085"><ele>0.0</ele><time>2026-04-30T11:40:58.051Z</time></trkpt><trkpt lat="41.6451209" lon="3.0692137"><ele>0.0</ele><time>2026-04-30T11:40:59.051Z</time></trkpt><trkpt lat="41.6451596" lon="3.0693303"><ele>0.0</ele><time>2026-04-30T11:41:00.052Z</time></trkpt><trkpt lat="41.6451978" lon="3.0694404"><ele>0.0</ele><time>2026-04-30T11:41:01.051Z</time></trkpt><trkpt lat="41.6452318" lon="3.0695456"><ele>0.0</ele><time>2026-04-30T11:41:02.052Z</time></trkpt><trkpt lat="41.645267" lon="3.0696587"><ele>0.0</ele><time>2026-04-30T11:41:03.051Z</time></trkpt><trkpt lat="41.6453036" lon="3.0697628"><ele>0.0</ele><time>2026-04-30T11:41:04.052Z</time></trkpt><trkpt lat="41.6453357" lon="3.0698701"><ele>0.0</ele><time>2026-04-30T11:41:05.051Z</time></trkpt><trkpt lat="41.6453742" lon="3.0699839"><ele>0.0</ele><time>2026-04-30T11:41:06.052Z</time></trkpt><trkpt lat="41.6454149" lon="3.0700927"><ele>0.0</ele><time>2026-04-30T11:41:07.052Z</time></trkpt><trkpt lat="41.6454482" lon="3.0701953"><ele>0.0</ele><time>2026-04-30T11:41:08.051Z</time></trkpt><trkpt lat="41.6454854" lon="3.0703046"><ele>0.0</ele><time>2026-04-30T11:41:09.052Z</time></trkpt><trkpt lat="41.6455234" lon="3.0704087"><ele>0.0</ele><time>2026-04-30T11:41:10.052Z</time></trkpt><trkpt lat="41.6455576" lon="3.0705137"><ele>0.0</ele><time>2026-04-30T11:41:11.052Z</time></trkpt><trkpt lat="41.6455881" lon="3.0706212"><ele>0.0</ele><time>2026-04-30T11:41:12.051Z</time></trkpt><trkpt lat="41.6456606" lon="3.0708366"><ele>0.0</ele><time>2026-04-30T11:41:14.052Z</time></trkpt><trkpt lat="41.6456967" lon="3.0709415"><ele>0.0</ele><time>2026-04-30T11:41:15.052Z</time></trkpt><trkpt lat="41.6457324" lon="3.0710508"><ele>0.0</ele><time>2026-04-30T11:41:16.052Z</time></trkpt><trkpt lat="41.6457686" lon="3.0711626"><ele>0.0</ele><time>2026-04-30T11:41:17.052Z</time></trkpt><trkpt lat="41.6458075" lon="3.0712729"><ele>0.0</ele><time>2026-04-30T11:41:18.051Z</time></trkpt><trkpt lat="41.6458409" lon="3.0713827"><ele>0.0</ele><time>2026-04-30T11:41:19.052Z</time></trkpt><trkpt lat="41.6458755" lon="3.0714906"><ele>0.0</ele><time>2026-04-30T11:41:20.051Z</time></trkpt><trkpt lat="41.6459102" lon="3.0716004"><ele>0.0</ele><time>2026-04-30T11:41:21.051Z</time></trkpt><trkpt lat="41.6459482" lon="3.0717083"><ele>0.0</ele><time>2026-04-30T11:41:22.051Z</time></trkpt><trkpt lat="41.6459851" lon="3.071818"><ele>0.0</ele><time>2026-04-30T11:41:23.051Z</time></trkpt><trkpt lat="41.6460205" lon="3.0719267"><ele>0.0</ele><time>2026-04-30T11:41:24.051Z</time></trkpt><trkpt lat="41.6460553" lon="3.0720351"><ele>0.0</ele><time>2026-04-30T11:41:25.052Z</time></trkpt><trkpt lat="41.6460917" lon="3.0721415"><ele>0.0</ele><time>2026-04-30T11:41:26.051Z</time></trkpt><trkpt lat="41.6461284" lon="3.0722497"><ele>0.0</ele><time>2026-04-30T11:41:27.052Z</time></trkpt><trkpt lat="41.6461623" lon="3.0723567"><ele>0.0</ele><time>2026-04-30T11:41:28.051Z</time></trkpt><trkpt lat="41.6461995" lon="3.0724636"><ele>0.0</ele><time>2026-04-30T11:41:29.051Z</time></trkpt><trkpt lat="41.6462365" lon="3.0725688"><ele>0.0</ele><time>2026-04-30T11:41:30.052Z</time></trkpt><trkpt lat="41.646275" lon="3.0726765"><ele>0.0</ele><time>2026-04-30T11:41:31.051Z</time></trkpt><trkpt lat="41.6463103" lon="3.0727867"><ele>0.0</ele><time>2026-04-30T11:41:32.051Z</time></trkpt><trkpt lat="41.6463454" lon="3.0728935"><ele>0.0</ele><time>2026-04-30T11:41:33.052Z</time></trkpt><trkpt lat="41.6464147" lon="3.0731087"><ele>0.0</ele><time>2026-04-30T11:41:35.052Z</time></trkpt><trkpt lat="41.6464502" lon="3.0732182"><ele>0.0</ele><time>2026-04-30T11:41:36.052Z</time></trkpt><trkpt lat="41.6464869" lon="3.073328"><ele>0.0</ele><time>2026-04-30T11:41:37.051Z</time></trkpt><trkpt lat="41.6465206" lon="3.0734364"><ele>0.0</ele><time>2026-04-30T11:41:38.052Z</time></trkpt><trkpt lat="41.646557" lon="3.0735435"><ele>0.0</ele><time>2026-04-30T11:41:39.051Z</time></trkpt><trkpt lat="41.6465967" lon="3.0736512"><ele>0.0</ele><time>2026-04-30T11:41:40.051Z</time></trkpt><trkpt lat="41.646637" lon="3.0737553"><ele>0.0</ele><time>2026-04-30T11:41:41.051Z</time></trkpt><trkpt lat="41.6466769" lon="3.0738598"><ele>0.0</ele><time>2026-04-30T11:41:42.051Z</time></trkpt><trkpt lat="41.6467138" lon="3.0739634"><ele>0.0</ele><time>2026-04-30T11:41:43.052Z</time></trkpt><trkpt lat="41.6467459" lon="3.074067"><ele>0.0</ele><time>2026-04-30T11:41:44.052Z</time></trkpt><trkpt lat="41.6467788" lon="3.0741706"><ele>0.0</ele><time>2026-04-30T11:41:45.052Z</time></trkpt><trkpt lat="41.646814" lon="3.074277"><ele>0.0</ele><time>2026-04-30T11:41:46.051Z</time></trkpt><trkpt lat="41.6468493" lon="3.074382"><ele>0.0</ele><time>2026-04-30T11:41:47.051Z</time></trkpt><trkpt lat="41.6468812" lon="3.0744882"><ele>0.0</ele><time>2026-04-30T11:41:48.051Z</time></trkpt><trkpt lat="41.6469197" lon="3.0745977"><ele>0.0</ele><time>2026-04-30T11:41:49.052Z</time></trkpt><trkpt lat="41.6469626" lon="3.0747065"><ele>0.0</ele><time>2026-04-30T11:41:50.051Z</time></trkpt><trkpt lat="41.6470034" lon="3.0748207"><ele>0.0</ele><time>2026-04-30T11:41:51.052Z</time></trkpt><trkpt lat="41.6470473" lon="3.0749231"><ele>0.0</ele><time>2026-04-30T11:41:52.052Z</time></trkpt><trkpt lat="41.6470871" lon="3.0750271"><ele>0.0</ele><time>2026-04-30T11:41:53.051Z</time></trkpt><trkpt lat="41.6471238" lon="3.0751351"><ele>0.0</ele><time>2026-04-30T11:41:54.051Z</time></trkpt><trkpt lat="41.6472049" lon="3.0753419"><ele>0.0</ele><time>2026-04-30T11:41:56.051Z</time></trkpt><trkpt lat="41.6472448" lon="3.0754498"><ele>0.0</ele><time>2026-04-30T11:41:57.051Z</time></trkpt><trkpt lat="41.6472835" lon="3.0755569"><ele>0.0</ele><time>2026-04-30T11:41:58.052Z</time></trkpt><trkpt lat="41.6473189" lon="3.0756549"><ele>0.0</ele><time>2026-04-30T11:41:59.052Z</time></trkpt><trkpt lat="41.6473526" lon="3.0757664"><ele>0.0</ele><time>2026-04-30T11:42:00.052Z</time></trkpt><trkpt lat="41.6473842" lon="3.0758773"><ele>0.0</ele><time>2026-04-30T11:42:01.051Z</time></trkpt><trkpt lat="41.6474241" lon="3.0759838"><ele>0.0</ele><time>2026-04-30T11:42:02.051Z</time></trkpt><trkpt lat="41.647463" lon="3.0760931"><ele>0.0</ele><time>2026-04-30T11:42:03.051Z</time></trkpt><trkpt lat="41.6475032" lon="3.0762059"><ele>0.0</ele><time>2026-04-30T11:42:04.052Z</time></trkpt><trkpt lat="41.6475448" lon="3.0763103"><ele>0.0</ele><time>2026-04-30T11:42:05.052Z</time></trkpt><trkpt lat="41.6475779" lon="3.0764214"><ele>0.0</ele><time>2026-04-30T11:42:06.052Z</time></trkpt><trkpt lat="41.6476064" lon="3.0765348"><ele>0.0</ele><time>2026-04-30T11:42:07.051Z</time></trkpt><trkpt lat="41.6476419" lon="3.0766436"><ele>0.0</ele><time>2026-04-30T11:42:08.052Z</time></trkpt><trkpt lat="41.6476784" lon="3.0767535"><ele>0.0</ele><time>2026-04-30T11:42:09.052Z</time></trkpt><trkpt lat="41.6477166" lon="3.0768533"><ele>0.0</ele><time>2026-04-30T11:42:10.051Z</time></trkpt><trkpt lat="41.6477519" lon="3.0769619"><ele>0.0</ele><time>2026-04-30T11:42:11.051Z</time></trkpt><trkpt lat="41.6477864" lon="3.0770708"><ele>0.0</ele><time>2026-04-30T11:42:12.051Z</time></trkpt><trkpt lat="41.6478217" lon="3.0771775"><ele>0.0</ele><time>2026-04-30T11:42:13.051Z</time></trkpt><trkpt lat="41.6478636" lon="3.0772796"><ele>0.0</ele><time>2026-04-30T11:42:14.05Z</time></trkpt><trkpt lat="41.6479041" lon="3.0773809"><ele>0.0</ele><time>2026-04-30T11:42:15.05Z</time></trkpt><trkpt lat="41.647943" lon="3.0774853"><ele>0.0</ele><time>2026-04-30T11:42:16.051Z</time></trkpt><trkpt lat="41.6480507" lon="3.0777973"><ele>0.0</ele><time>2026-04-30T11:42:19.05Z</time></trkpt><trkpt lat="41.6480843" lon="3.0779049"><ele>0.0</ele><time>2026-04-30T11:42:20.051Z</time></trkpt><trkpt lat="41.6481263" lon="3.0780058"><ele>0.0</ele><time>2026-04-30T11:42:21.051Z</time></trkpt><trkpt lat="41.6481618" lon="3.0781176"><ele>0.0</ele><time>2026-04-30T11:42:22.05Z</time></trkpt><trkpt lat="41.6481939" lon="3.0782313"><ele>0.0</ele><time>2026-04-30T11:42:23.051Z</time></trkpt><trkpt lat="41.6482257" lon="3.0783474"><ele>0.0</ele><time>2026-04-30T11:42:24.051Z</time></trkpt><trkpt lat="41.6482589" lon="3.0784539"><ele>0.0</ele><time>2026-04-30T11:42:25.05Z</time></trkpt><trkpt lat="41.6482905" lon="3.0785561"><ele>0.0</ele><time>2026-04-30T11:42:26.051Z</time></trkpt><trkpt lat="41.6483254" lon="3.0786605"><ele>0.0</ele><time>2026-04-30T11:42:27.051Z</time></trkpt><trkpt lat="41.6483704" lon="3.0787656"><ele>0.0</ele><time>2026-04-30T11:42:28.05Z</time></trkpt><trkpt lat="41.6484097" lon="3.0788706"><ele>0.0</ele><time>2026-04-30T11:42:29.05Z</time></trkpt><trkpt lat="41.6484426" lon="3.0789813"><ele>0.0</ele><time>2026-04-30T11:42:30.05Z</time></trkpt><trkpt lat="41.648478" lon="3.0790933"><ele>0.0</ele><time>2026-04-30T11:42:31.05Z</time></trkpt><trkpt lat="41.6485121" lon="3.0792004"><ele>0.0</ele><time>2026-04-30T11:42:32.05Z</time></trkpt><trkpt lat="41.6485413" lon="3.0793057"><ele>0.0</ele><time>2026-04-30T11:42:33.05Z</time></trkpt><trkpt lat="41.6485765" lon="3.0794134"><ele>0.0</ele><time>2026-04-30T11:42:34.051Z</time></trkpt><trkpt lat="41.6486148" lon="3.0795185"><ele>0.0</ele><time>2026-04-30T11:42:35.05Z</time></trkpt><trkpt lat="41.6486517" lon="3.0796278"><ele>0.0</ele><time>2026-04-30T11:42:36.051Z</time></trkpt><trkpt lat="41.6486901" lon="3.0797348"><ele>0.0</ele><time>2026-04-30T11:42:37.05Z</time></trkpt><trkpt lat="41.6487298" lon="3.0798416"><ele>0.0</ele><time>2026-04-30T11:42:38.051Z</time></trkpt><trkpt lat="41.6488037" lon="3.080066"><ele>0.0</ele><time>2026-04-30T11:42:40.05Z</time></trkpt><trkpt lat="41.6488425" lon="3.0801742"><ele>0.0</ele><time>2026-04-30T11:42:41.051Z</time></trkpt><trkpt lat="41.6488775" lon="3.0802805"><ele>0.0</ele><time>2026-04-30T11:42:42.05Z</time></trkpt><trkpt lat="41.6489135" lon="3.0803887"><ele>0.0</ele><time>2026-04-30T11:42:43.051Z</time></trkpt><trkpt lat="41.6489529" lon="3.080493"><ele>0.0</ele><time>2026-04-30T11:42:44.051Z</time></trkpt><trkpt lat="41.6489927" lon="3.0805893"><ele>0.0</ele><time>2026-04-30T11:42:45.05Z</time></trkpt><trkpt lat="41.6490301" lon="3.0806911"><ele>0.0</ele><time>2026-04-30T11:42:46.051Z</time></trkpt><trkpt lat="41.6490683" lon="3.0807896"><ele>0.0</ele><time>2026-04-30T11:42:47.05Z</time></trkpt><trkpt lat="41.6491082" lon="3.0808989"><ele>0.0</ele><time>2026-04-30T11:42:48.051Z</time></trkpt><trkpt lat="41.6491865" lon="3.0811194"><ele>0.0</ele><time>2026-04-30T11:42:50.051Z</time></trkpt><trkpt lat="41.6492306" lon="3.0812191"><ele>0.0</ele><time>2026-04-30T11:42:51.05Z</time></trkpt><trkpt lat="41.6492725" lon="3.0813237"><ele>0.0</ele><time>2026-04-30T11:42:52.05Z</time></trkpt><trkpt lat="41.6493112" lon="3.0814289"><ele>0.0</ele><time>2026-04-30T11:42:53.05Z</time></trkpt><trkpt lat="41.6493522" lon="3.0815412"><ele>0.0</ele><time>2026-04-30T11:42:54.05Z</time></trkpt><trkpt lat="41.6493966" lon="3.0816517"><ele>0.0</ele><time>2026-04-30T11:42:55.05Z</time></trkpt><trkpt lat="41.6494335" lon="3.0817546"><ele>0.0</ele><time>2026-04-30T11:42:56.05Z</time></trkpt><trkpt lat="41.6494716" lon="3.0818604"><ele>0.0</ele><time>2026-04-30T11:42:57.051Z</time></trkpt><trkpt lat="41.64951" lon="3.0819666"><ele>0.0</ele><time>2026-04-30T11:42:58.051Z</time></trkpt><trkpt lat="41.6495398" lon="3.0820736"><ele>0.0</ele><time>2026-04-30T11:42:59.051Z</time></trkpt><trkpt lat="41.6496106" lon="3.0822871"><ele>0.0</ele><time>2026-04-30T11:43:01.05Z</time></trkpt><trkpt lat="41.6496444" lon="3.0823945"><ele>0.0</ele><time>2026-04-30T11:43:02.051Z</time></trkpt><trkpt lat="41.6496802" lon="3.0825058"><ele>0.0</ele><time>2026-04-30T11:43:03.05Z</time></trkpt><trkpt lat="41.6497153" lon="3.0826131"><ele>0.0</ele><time>2026-04-30T11:43:04.05Z</time></trkpt><trkpt lat="41.6497518" lon="3.0827234"><ele>0.0</ele><time>2026-04-30T11:43:05.05Z</time></trkpt><trkpt lat="41.6497867" lon="3.0828348"><ele>0.0</ele><time>2026-04-30T11:43:06.05Z</time></trkpt><trkpt lat="41.6498202" lon="3.0829435"><ele>0.0</ele><time>2026-04-30T11:43:07.051Z</time></trkpt><trkpt lat="41.6498595" lon="3.0830504"><ele>0.0</ele><time>2026-04-30T11:43:08.05Z</time></trkpt><trkpt lat="41.6498981" lon="3.0831598"><ele>0.0</ele><time>2026-04-30T11:43:09.051Z</time></trkpt><trkpt lat="41.6499322" lon="3.0832686"><ele>0.0</ele><time>2026-04-30T11:43:10.051Z</time></trkpt><trkpt lat="41.6499684" lon="3.083377"><ele>0.0</ele><time>2026-04-30T11:43:11.05Z</time></trkpt><trkpt lat="41.6500051" lon="3.0834849"><ele>0.0</ele><time>2026-04-30T11:43:12.051Z</time></trkpt><trkpt lat="41.6500433" lon="3.08359"><ele>0.0</ele><time>2026-04-30T11:43:13.051Z</time></trkpt><trkpt lat="41.6500819" lon="3.0836983"><ele>0.0</ele><time>2026-04-30T11:43:14.051Z</time></trkpt><trkpt lat="41.6501159" lon="3.0838023"><ele>0.0</ele><time>2026-04-30T11:43:15.05Z</time></trkpt><trkpt lat="41.6501502" lon="3.0839106"><ele>0.0</ele><time>2026-04-30T11:43:16.05Z</time></trkpt><trkpt lat="41.6501865" lon="3.0840187"><ele>0.0</ele><time>2026-04-30T11:43:17.05Z</time></trkpt><trkpt lat="41.6502265" lon="3.0841295"><ele>0.0</ele><time>2026-04-30T11:43:18.05Z</time></trkpt><trkpt lat="41.6502663" lon="3.0842395"><ele>0.0</ele><time>2026-04-30T11:43:19.05Z</time></trkpt><trkpt lat="41.6503078" lon="3.0843536"><ele>0.0</ele><time>2026-04-30T11:43:20.05Z</time></trkpt><trkpt lat="41.6503842" lon="3.084564"><ele>0.0</ele><time>2026-04-30T11:43:22.05Z</time></trkpt><trkpt lat="41.6504232" lon="3.0846685"><ele>0.0</ele><time>2026-04-30T11:43:23.05Z</time></trkpt><trkpt lat="41.6504586" lon="3.084777"><ele>0.0</ele><time>2026-04-30T11:43:24.05Z</time></trkpt><trkpt lat="41.6504935" lon="3.0848866"><ele>0.0</ele><time>2026-04-30T11:43:25.05Z</time></trkpt><trkpt lat="41.6505254" lon="3.0849929"><ele>0.0</ele><time>2026-04-30T11:43:26.051Z</time></trkpt><trkpt lat="41.6505539" lon="3.0850999"><ele>0.0</ele><time>2026-04-30T11:43:27.05Z</time></trkpt><trkpt lat="41.6505822" lon="3.0852093"><ele>0.0</ele><time>2026-04-30T11:43:28.051Z</time></trkpt><trkpt lat="41.6506121" lon="3.0853172"><ele>0.0</ele><time>2026-04-30T11:43:29.05Z</time></trkpt><trkpt lat="41.6506422" lon="3.0854253"><ele>0.0</ele><time>2026-04-30T11:43:30.051Z</time></trkpt><trkpt lat="41.6506748" lon="3.0855349"><ele>0.0</ele><time>2026-04-30T11:43:31.05Z</time></trkpt><trkpt lat="41.6507083" lon="3.0856452"><ele>0.0</ele><time>2026-04-30T11:43:32.05Z</time></trkpt><trkpt lat="41.6507417" lon="3.0857565"><ele>0.0</ele><time>2026-04-30T11:43:33.051Z</time></trkpt><trkpt lat="41.6507782" lon="3.085865"><ele>0.0</ele><time>2026-04-30T11:43:34.05Z</time></trkpt><trkpt lat="41.6508166" lon="3.0859733"><ele>0.0</ele><time>2026-04-30T11:43:35.05Z</time></trkpt><trkpt lat="41.6508548" lon="3.0860785"><ele>0.0</ele><time>2026-04-30T11:43:36.05Z</time></trkpt><trkpt lat="41.6508932" lon="3.0861805"><ele>0.0</ele><time>2026-04-30T11:43:37.051Z</time></trkpt><trkpt lat="41.6509286" lon="3.0862909"><ele>0.0</ele><time>2026-04-30T11:43:38.05Z</time></trkpt><trkpt lat="41.6509657" lon="3.0864006"><ele>0.0</ele><time>2026-04-30T11:43:39.051Z</time></trkpt><trkpt lat="41.6510007" lon="3.0865095"><ele>0.0</ele><time>2026-04-30T11:43:40.05Z</time></trkpt><trkpt lat="41.651037" lon="3.086619"><ele>0.0</ele><time>2026-04-30T11:43:41.05Z</time></trkpt><trkpt lat="41.6511118" lon="3.0868309"><ele>0.0</ele><time>2026-04-30T11:43:43.05Z</time></trkpt><trkpt lat="41.6511504" lon="3.0869369"><ele>0.0</ele><time>2026-04-30T11:43:44.051Z</time></trkpt><trkpt lat="41.6511869" lon="3.0870463"><ele>0.0</ele><time>2026-04-30T11:43:45.051Z</time></trkpt><trkpt lat="41.6512236" lon="3.0871531"><ele>0.0</ele><time>2026-04-30T11:43:46.051Z</time></trkpt><trkpt lat="41.6512601" lon="3.0872628"><ele>0.0</ele><time>2026-04-30T11:43:47.051Z</time></trkpt><trkpt lat="41.6512966" lon="3.0873743"><ele>0.0</ele><time>2026-04-30T11:43:48.051Z</time></trkpt><trkpt lat="41.6513334" lon="3.0874829"><ele>0.0</ele><time>2026-04-30T11:43:49.051Z</time></trkpt><trkpt lat="41.6513687" lon="3.08759"><ele>0.0</ele><time>2026-04-30T11:43:50.051Z</time></trkpt><trkpt lat="41.6514021" lon="3.0876982"><ele>0.0</ele><time>2026-04-30T11:43:51.051Z</time></trkpt><trkpt lat="41.6514368" lon="3.0878063"><ele>0.0</ele><time>2026-04-30T11:43:52.051Z</time></trkpt><trkpt lat="41.6514733" lon="3.0879131"><ele>0.0</ele><time>2026-04-30T11:43:53.05Z</time></trkpt><trkpt lat="41.6515115" lon="3.0880199"><ele>0.0</ele><time>2026-04-30T11:43:54.051Z</time></trkpt><trkpt lat="41.6515485" lon="3.0881277"><ele>0.0</ele><time>2026-04-30T11:43:55.05Z</time></trkpt><trkpt lat="41.6515851" lon="3.0882363"><ele>0.0</ele><time>2026-04-30T11:43:56.051Z</time></trkpt><trkpt lat="41.6516234" lon="3.0883446"><ele>0.0</ele><time>2026-04-30T11:43:57.05Z</time></trkpt><trkpt lat="41.6516621" lon="3.0884517"><ele>0.0</ele><time>2026-04-30T11:43:58.05Z</time></trkpt><trkpt lat="41.6516985" lon="3.0885571"><ele>0.0</ele><time>2026-04-30T11:43:59.051Z</time></trkpt><trkpt lat="41.6517354" lon="3.0886649"><ele>0.0</ele><time>2026-04-30T11:44:00.05Z</time></trkpt><trkpt lat="41.6517732" lon="3.0887718"><ele>0.0</ele><time>2026-04-30T11:44:01.05Z</time></trkpt><trkpt lat="41.6518073" lon="3.0888813"><ele>0.0</ele><time>2026-04-30T11:44:02.051Z</time></trkpt><trkpt lat="41.6518796" lon="3.0890934"><ele>0.0</ele><time>2026-04-30T11:44:04.051Z</time></trkpt><trkpt lat="41.6519125" lon="3.0892058"><ele>0.0</ele><time>2026-04-30T11:44:05.05Z</time></trkpt><trkpt lat="41.6519471" lon="3.0893118"><ele>0.0</ele><time>2026-04-30T11:44:06.051Z</time></trkpt><trkpt lat="41.6519791" lon="3.089423"><ele>0.0</ele><time>2026-04-30T11:44:07.051Z</time></trkpt><trkpt lat="41.6520134" lon="3.0895304"><ele>0.0</ele><time>2026-04-30T11:44:08.05Z</time></trkpt><trkpt lat="41.6520485" lon="3.089637"><ele>0.0</ele><time>2026-04-30T11:44:09.05Z</time></trkpt><trkpt lat="41.6520851" lon="3.0897433"><ele>0.0</ele><time>2026-04-30T11:44:10.05Z</time></trkpt><trkpt lat="41.6521231" lon="3.0898514"><ele>0.0</ele><time>2026-04-30T11:44:11.05Z</time></trkpt><trkpt lat="41.6521582" lon="3.0899629"><ele>0.0</ele><time>2026-04-30T11:44:12.05Z</time></trkpt><trkpt lat="41.6521935" lon="3.0900732"><ele>0.0</ele><time>2026-04-30T11:44:13.05Z</time></trkpt><trkpt lat="41.6522299" lon="3.0901829"><ele>0.0</ele><time>2026-04-30T11:44:14.05Z</time></trkpt><trkpt lat="41.6522652" lon="3.0902931"><ele>0.0</ele><time>2026-04-30T11:44:15.05Z</time></trkpt><trkpt lat="41.6523002" lon="3.0904018"><ele>0.0</ele><time>2026-04-30T11:44:16.051Z</time></trkpt><trkpt lat="41.652335" lon="3.09051"><ele>0.0</ele><time>2026-04-30T11:44:17.051Z</time></trkpt><trkpt lat="41.6523702" lon="3.09062"><ele>0.0</ele><time>2026-04-30T11:44:18.05Z</time></trkpt><trkpt lat="41.6524067" lon="3.0907285"><ele>0.0</ele><time>2026-04-30T11:44:19.051Z</time></trkpt><trkpt lat="41.6524418" lon="3.0908352"><ele>0.0</ele><time>2026-04-30T11:44:20.051Z</time></trkpt><trkpt lat="41.6524771" lon="3.0909356"><ele>0.0</ele><time>2026-04-30T11:44:21.05Z</time></trkpt><trkpt lat="41.6525132" lon="3.0910488"><ele>0.0</ele><time>2026-04-30T11:44:22.05Z</time></trkpt><trkpt lat="41.6525501" lon="3.091163"><ele>0.0</ele><time>2026-04-30T11:44:23.051Z</time></trkpt><trkpt lat="41.6525836" lon="3.091275"><ele>0.0</ele><time>2026-04-30T11:44:24.051Z</time></trkpt><trkpt lat="41.6526536" lon="3.0914928"><ele>0.0</ele><time>2026-04-30T11:44:26.051Z</time></trkpt><trkpt lat="41.6526902" lon="3.0915986"><ele>0.0</ele><time>2026-04-30T11:44:27.05Z</time></trkpt><trkpt lat="41.6527284" lon="3.0917021"><ele>0.0</ele><time>2026-04-30T11:44:28.051Z</time></trkpt><trkpt lat="41.6527651" lon="3.0918084"><ele>0.0</ele><time>2026-04-30T11:44:29.051Z</time></trkpt><trkpt lat="41.6528002" lon="3.0919112"><ele>0.0</ele><time>2026-04-30T11:44:30.051Z</time></trkpt><trkpt lat="41.6528352" lon="3.09202"><ele>0.0</ele><time>2026-04-30T11:44:31.05Z</time></trkpt><trkpt lat="41.6528702" lon="3.0921298"><ele>0.0</ele><time>2026-04-30T11:44:32.051Z</time></trkpt><trkpt lat="41.652908" lon="3.0922384"><ele>0.0</ele><time>2026-04-30T11:44:33.05Z</time></trkpt><trkpt lat="41.6529419" lon="3.0923497"><ele>0.0</ele><time>2026-04-30T11:44:34.05Z</time></trkpt><trkpt lat="41.6529767" lon="3.0924627"><ele>0.0</ele><time>2026-04-30T11:44:35.05Z</time></trkpt><trkpt lat="41.6530149" lon="3.092573"><ele>0.0</ele><time>2026-04-30T11:44:36.05Z</time></trkpt><trkpt lat="41.6530551" lon="3.0926799"><ele>0.0</ele><time>2026-04-30T11:44:37.05Z</time></trkpt><trkpt lat="41.6530902" lon="3.0927884"><ele>0.0</ele><time>2026-04-30T11:44:38.051Z</time></trkpt><trkpt lat="41.6531267" lon="3.0928982"><ele>0.0</ele><time>2026-04-30T11:44:39.05Z</time></trkpt><trkpt lat="41.6531605" lon="3.0930081"><ele>0.0</ele><time>2026-04-30T11:44:40.051Z</time></trkpt><trkpt lat="41.6531938" lon="3.0931153"><ele>0.0</ele><time>2026-04-30T11:44:41.051Z</time></trkpt><trkpt lat="41.6532269" lon="3.0932205"><ele>0.0</ele><time>2026-04-30T11:44:42.051Z</time></trkpt><trkpt lat="41.653265" lon="3.0933278"><ele>0.0</ele><time>2026-04-30T11:44:43.05Z</time></trkpt><trkpt lat="41.6533019" lon="3.0934345"><ele>0.0</ele><time>2026-04-30T11:44:44.051Z</time></trkpt><trkpt lat="41.6533402" lon="3.0935417"><ele>0.0</ele><time>2026-04-30T11:44:45.05Z</time></trkpt><trkpt lat="41.6534235" lon="3.0937471"><ele>0.0</ele><time>2026-04-30T11:44:47.05Z</time></trkpt><trkpt lat="41.6534592" lon="3.0938547"><ele>0.0</ele><time>2026-04-30T11:44:48.051Z</time></trkpt><trkpt lat="41.6534997" lon="3.0939643"><ele>0.0</ele><time>2026-04-30T11:44:49.051Z</time></trkpt><trkpt lat="41.6535372" lon="3.09407"><ele>0.0</ele><time>2026-04-30T11:44:50.05Z</time></trkpt><trkpt lat="41.6535737" lon="3.0941781"><ele>0.0</ele><time>2026-04-30T11:44:51.05Z</time></trkpt><trkpt lat="41.653609" lon="3.0942808"><ele>0.0</ele><time>2026-04-30T11:44:52.05Z</time></trkpt><trkpt lat="41.6536455" lon="3.0943882"><ele>0.0</ele><time>2026-04-30T11:44:53.051Z</time></trkpt><trkpt lat="41.6536807" lon="3.0944978"><ele>0.0</ele><time>2026-04-30T11:44:54.051Z</time></trkpt><trkpt lat="41.6537184" lon="3.0946111"><ele>0.0</ele><time>2026-04-30T11:44:55.05Z</time></trkpt><trkpt lat="41.653751" lon="3.0947201"><ele>0.0</ele><time>2026-04-30T11:44:56.051Z</time></trkpt><trkpt lat="41.6538327" lon="3.0949351"><ele>0.0</ele><time>2026-04-30T11:44:58.05Z</time></trkpt><trkpt lat="41.6538772" lon="3.095038"><ele>0.0</ele><time>2026-04-30T11:44:59.051Z</time></trkpt><trkpt lat="41.6539194" lon="3.0951493"><ele>0.0</ele><time>2026-04-30T11:45:00.05Z</time></trkpt><trkpt lat="41.653957" lon="3.0952574"><ele>0.0</ele><time>2026-04-30T11:45:01.051Z</time></trkpt><trkpt lat="41.6539934" lon="3.0953639"><ele>0.0</ele><time>2026-04-30T11:45:02.051Z</time></trkpt><trkpt lat="41.6540314" lon="3.0954719"><ele>0.0</ele><time>2026-04-30T11:45:03.05Z</time></trkpt><trkpt lat="41.6540684" lon="3.0955785"><ele>0.0</ele><time>2026-04-30T11:45:04.051Z</time></trkpt><trkpt lat="41.6541067" lon="3.0956861"><ele>0.0</ele><time>2026-04-30T11:45:05.05Z</time></trkpt><trkpt lat="41.6541409" lon="3.0957932"><ele>0.0</ele><time>2026-04-30T11:45:06.051Z</time></trkpt><trkpt lat="41.654212" lon="3.0960031"><ele>0.0</ele><time>2026-04-30T11:45:08.051Z</time></trkpt><trkpt lat="41.6542474" lon="3.0961114"><ele>0.0</ele><time>2026-04-30T11:45:09.05Z</time></trkpt><trkpt lat="41.6542822" lon="3.0962199"><ele>0.0</ele><time>2026-04-30T11:45:10.051Z</time></trkpt><trkpt lat="41.6543171" lon="3.0963279"><ele>0.0</ele><time>2026-04-30T11:45:11.05Z</time></trkpt><trkpt lat="41.6543517" lon="3.096441"><ele>0.0</ele><time>2026-04-30T11:45:12.051Z</time></trkpt><trkpt lat="41.6543853" lon="3.0965517"><ele>0.0</ele><time>2026-04-30T11:45:13.05Z</time></trkpt><trkpt lat="41.6544185" lon="3.0966572"><ele>0.0</ele><time>2026-04-30T11:45:14.051Z</time></trkpt><trkpt lat="41.6544508" lon="3.0967695"><ele>0.0</ele><time>2026-04-30T11:45:15.05Z</time></trkpt><trkpt lat="41.6544827" lon="3.096881"><ele>0.0</ele><time>2026-04-30T11:45:16.05Z</time></trkpt><trkpt lat="41.6545032" lon="3.0969956"><ele>0.0</ele><time>2026-04-30T11:45:17.05Z</time></trkpt><trkpt lat="41.6545329" lon="3.0971035"><ele>0.0</ele><time>2026-04-30T11:45:18.05Z</time></trkpt><trkpt lat="41.6545672" lon="3.09721"><ele>0.0</ele><time>2026-04-30T11:45:19.051Z</time></trkpt><trkpt lat="41.6546037" lon="3.0973166"><ele>0.0</ele><time>2026-04-30T11:45:20.05Z</time></trkpt><trkpt lat="41.6546416" lon="3.0974234"><ele>0.0</ele><time>2026-04-30T11:45:21.051Z</time></trkpt><trkpt lat="41.6546831" lon="3.0975301"><ele>0.0</ele><time>2026-04-30T11:45:22.051Z</time></trkpt><trkpt lat="41.6547219" lon="3.0976358"><ele>0.0</ele><time>2026-04-30T11:45:23.051Z</time></trkpt><trkpt lat="41.6547555" lon="3.0977409"><ele>0.0</ele><time>2026-04-30T11:45:24.051Z</time></trkpt><trkpt lat="41.6547916" lon="3.0978482"><ele>0.0</ele><time>2026-04-30T11:45:25.051Z</time></trkpt><trkpt lat="41.6548287" lon="3.0979551"><ele>0.0</ele><time>2026-04-30T11:45:26.05Z</time></trkpt><trkpt lat="41.654865" lon="3.0980663"><ele>0.0</ele><time>2026-04-30T11:45:27.051Z</time></trkpt><trkpt lat="41.6548976" lon="3.0981763"><ele>0.0</ele><time>2026-04-30T11:45:28.05Z</time></trkpt><trkpt lat="41.6549714" lon="3.0983964"><ele>0.0</ele><time>2026-04-30T11:45:30.05Z</time></trkpt><trkpt lat="41.6550123" lon="3.0984978"><ele>0.0</ele><time>2026-04-30T11:45:31.05Z</time></trkpt><trkpt lat="41.6550516" lon="3.0986021"><ele>0.0</ele><time>2026-04-30T11:45:32.051Z</time></trkpt><trkpt lat="41.6550926" lon="3.0987112"><ele>0.0</ele><time>2026-04-30T11:45:33.051Z</time></trkpt><trkpt lat="41.6551317" lon="3.0988212"><ele>0.0</ele><time>2026-04-30T11:45:34.051Z</time></trkpt><trkpt lat="41.655168" lon="3.0989329"><ele>0.0</ele><time>2026-04-30T11:45:35.05Z</time></trkpt><trkpt lat="41.6552079" lon="3.0990429"><ele>0.0</ele><time>2026-04-30T11:45:36.05Z</time></trkpt><trkpt lat="41.6552498" lon="3.0991472"><ele>0.0</ele><time>2026-04-30T11:45:37.05Z</time></trkpt><trkpt lat="41.6552869" lon="3.0992495"><ele>0.0</ele><time>2026-04-30T11:45:38.051Z</time></trkpt><trkpt lat="41.6553281" lon="3.0993564"><ele>0.0</ele><time>2026-04-30T11:45:39.05Z</time></trkpt><trkpt lat="41.6553681" lon="3.099462"><ele>0.0</ele><time>2026-04-30T11:45:40.051Z</time></trkpt><trkpt lat="41.6554066" lon="3.0995673"><ele>0.0</ele><time>2026-04-30T11:45:41.051Z</time></trkpt><trkpt lat="41.6554519" lon="3.0996679"><ele>0.0</ele><time>2026-04-30T11:45:42.05Z</time></trkpt><trkpt lat="41.6554986" lon="3.0997692"><ele>0.0</ele><time>2026-04-30T11:45:43.05Z</time></trkpt><trkpt lat="41.6555431" lon="3.0998735"><ele>0.0</ele><time>2026-04-30T11:45:44.05Z</time></trkpt><trkpt lat="41.655585" lon="3.0999784"><ele>0.0</ele><time>2026-04-30T11:45:45.051Z</time></trkpt><trkpt lat="41.6556222" lon="3.1000847"><ele>0.0</ele><time>2026-04-30T11:45:46.05Z</time></trkpt><trkpt lat="41.655659" lon="3.1001929"><ele>0.0</ele><time>2026-04-30T11:45:47.05Z</time></trkpt><trkpt lat="41.6556955" lon="3.1002966"><ele>0.0</ele><time>2026-04-30T11:45:48.051Z</time></trkpt><trkpt lat="41.6557325" lon="3.1004029"><ele>0.0</ele><time>2026-04-30T11:45:49.05Z</time></trkpt><trkpt lat="41.6557691" lon="3.1005157"><ele>0.0</ele><time>2026-04-30T11:45:50.05Z</time></trkpt><trkpt lat="41.655841" lon="3.100733"><ele>0.0</ele><time>2026-04-30T11:45:52.051Z</time></trkpt><trkpt lat="41.6558743" lon="3.1008414"><ele>0.0</ele><time>2026-04-30T11:45:53.05Z</time></trkpt><trkpt lat="41.6559072" lon="3.1009496"><ele>0.0</ele><time>2026-04-30T11:45:54.05Z</time></trkpt><trkpt lat="41.655942" lon="3.1010583"><ele>0.0</ele><time>2026-04-30T11:45:55.051Z</time></trkpt><trkpt lat="41.65598" lon="3.1011681"><ele>0.0</ele><time>2026-04-30T11:45:56.05Z</time></trkpt><trkpt lat="41.6560156" lon="3.1012766"><ele>0.0</ele><time>2026-04-30T11:45:57.05Z</time></trkpt><trkpt lat="41.6560503" lon="3.1013852"><ele>0.0</ele><time>2026-04-30T11:45:58.051Z</time></trkpt><trkpt lat="41.6560865" lon="3.1014951"><ele>0.0</ele><time>2026-04-30T11:45:59.051Z</time></trkpt><trkpt lat="41.6561234" lon="3.101602"><ele>0.0</ele><time>2026-04-30T11:46:00.05Z</time></trkpt><trkpt lat="41.6561586" lon="3.1017088"><ele>0.0</ele><time>2026-04-30T11:46:01.05Z</time></trkpt><trkpt lat="41.6561954" lon="3.1018167"><ele>0.0</ele><time>2026-04-30T11:46:02.05Z</time></trkpt><trkpt lat="41.6562319" lon="3.1019249"><ele>0.0</ele><time>2026-04-30T11:46:03.05Z</time></trkpt><trkpt lat="41.6562655" lon="3.1020319"><ele>0.0</ele><time>2026-04-30T11:46:04.051Z</time></trkpt><trkpt lat="41.6562934" lon="3.1021412"><ele>0.0</ele><time>2026-04-30T11:46:05.051Z</time></trkpt><trkpt lat="41.6563271" lon="3.1022562"><ele>0.0</ele><time>2026-04-30T11:46:06.05Z</time></trkpt><trkpt lat="41.6563631" lon="3.1023696"><ele>0.0</ele><time>2026-04-30T11:46:07.051Z</time></trkpt><trkpt lat="41.656397" lon="3.1024759"><ele>0.0</ele><time>2026-04-30T11:46:08.05Z</time></trkpt><trkpt lat="41.656432" lon="3.1025809"><ele>0.0</ele><time>2026-04-30T11:46:09.051Z</time></trkpt><trkpt lat="41.656465" lon="3.1026929"><ele>0.0</ele><time>2026-04-30T11:46:10.05Z</time></trkpt><trkpt lat="41.6565" lon="3.1028046"><ele>0.0</ele><time>2026-04-30T11:46:11.05Z</time></trkpt><trkpt lat="41.6565719" lon="3.1030232"><ele>0.0</ele><time>2026-04-30T11:46:13.05Z</time></trkpt><trkpt lat="41.6566126" lon="3.1031285"><ele>0.0</ele><time>2026-04-30T11:46:14.051Z</time></trkpt><trkpt lat="41.6566483" lon="3.1032324"><ele>0.0</ele><time>2026-04-30T11:46:15.05Z</time></trkpt><trkpt lat="41.6566849" lon="3.1033415"><ele>0.0</ele><time>2026-04-30T11:46:16.05Z</time></trkpt><trkpt lat="41.6567233" lon="3.1034469"><ele>0.0</ele><time>2026-04-30T11:46:17.051Z</time></trkpt><trkpt lat="41.6567598" lon="3.103556"><ele>0.0</ele><time>2026-04-30T11:46:18.051Z</time></trkpt><trkpt lat="41.6567984" lon="3.1036619"><ele>0.0</ele><time>2026-04-30T11:46:19.05Z</time></trkpt><trkpt lat="41.6568386" lon="3.1037627"><ele>0.0</ele><time>2026-04-30T11:46:20.051Z</time></trkpt><trkpt lat="41.6568754" lon="3.1038655"><ele>0.0</ele><time>2026-04-30T11:46:21.05Z</time></trkpt><trkpt lat="41.6569109" lon="3.1039772"><ele>0.0</ele><time>2026-04-30T11:46:22.051Z</time></trkpt><trkpt lat="41.6569474" lon="3.104079"><ele>0.0</ele><time>2026-04-30T11:46:23.05Z</time></trkpt><trkpt lat="41.6569854" lon="3.1041792"><ele>0.0</ele><time>2026-04-30T11:46:24.051Z</time></trkpt><trkpt lat="41.6570217" lon="3.1042898"><ele>0.0</ele><time>2026-04-30T11:46:25.05Z</time></trkpt><trkpt lat="41.657057" lon="3.1043952"><ele>0.0</ele><time>2026-04-30T11:46:26.05Z</time></trkpt><trkpt lat="41.6570951" lon="3.1045029"><ele>0.0</ele><time>2026-04-30T11:46:27.05Z</time></trkpt><trkpt lat="41.6571349" lon="3.1046145"><ele>0.0</ele><time>2026-04-30T11:46:28.051Z</time></trkpt><trkpt lat="41.6571702" lon="3.1047261"><ele>0.0</ele><time>2026-04-30T11:46:29.051Z</time></trkpt><trkpt lat="41.6572035" lon="3.1048334"><ele>0.0</ele><time>2026-04-30T11:46:30.051Z</time></trkpt><trkpt lat="41.6572416" lon="3.1049416"><ele>0.0</ele><time>2026-04-30T11:46:31.05Z</time></trkpt><trkpt lat="41.6572781" lon="3.1050484"><ele>0.0</ele><time>2026-04-30T11:46:32.05Z</time></trkpt><trkpt lat="41.657315" lon="3.1051548"><ele>0.0</ele><time>2026-04-30T11:46:33.05Z</time></trkpt><trkpt lat="41.6573936" lon="3.1053698"><ele>0.0</ele><time>2026-04-30T11:46:35.051Z</time></trkpt><trkpt lat="41.6574333" lon="3.1054798"><ele>0.0</ele><time>2026-04-30T11:46:36.051Z</time></trkpt><trkpt lat="41.6574686" lon="3.1055901"><ele>0.0</ele><time>2026-04-30T11:46:37.051Z</time></trkpt><trkpt lat="41.6575006" lon="3.105696"><ele>0.0</ele><time>2026-04-30T11:46:38.05Z</time></trkpt><trkpt lat="41.6575323" lon="3.1058023"><ele>0.0</ele><time>2026-04-30T11:46:39.05Z</time></trkpt><trkpt lat="41.6575652" lon="3.1059086"><ele>0.0</ele><time>2026-04-30T11:46:40.05Z</time></trkpt><trkpt lat="41.6575987" lon="3.1060202"><ele>0.0</ele><time>2026-04-30T11:46:41.05Z</time></trkpt><trkpt lat="41.6576321" lon="3.1061275"><ele>0.0</ele><time>2026-04-30T11:46:42.051Z</time></trkpt><trkpt lat="41.6576667" lon="3.1062353"><ele>0.0</ele><time>2026-04-30T11:46:43.051Z</time></trkpt><trkpt lat="41.6577" lon="3.1063436"><ele>0.0</ele><time>2026-04-30T11:46:44.05Z</time></trkpt><trkpt lat="41.6577367" lon="3.10645"><ele>0.0</ele><time>2026-04-30T11:46:45.05Z</time></trkpt><trkpt lat="41.6577735" lon="3.106557"><ele>0.0</ele><time>2026-04-30T11:46:46.05Z</time></trkpt><trkpt lat="41.6578084" lon="3.1066669"><ele>0.0</ele><time>2026-04-30T11:46:47.051Z</time></trkpt><trkpt lat="41.6578435" lon="3.1067736"><ele>0.0</ele><time>2026-04-30T11:46:48.05Z</time></trkpt><trkpt lat="41.6578818" lon="3.1068786"><ele>0.0</ele><time>2026-04-30T11:46:49.05Z</time></trkpt><trkpt lat="41.6579199" lon="3.106988"><ele>0.0</ele><time>2026-04-30T11:46:50.05Z</time></trkpt><trkpt lat="41.6579598" lon="3.1071007"><ele>0.0</ele><time>2026-04-30T11:46:51.051Z</time></trkpt><trkpt lat="41.657998" lon="3.1072157"><ele>0.0</ele><time>2026-04-30T11:46:52.05Z</time></trkpt><trkpt lat="41.6580366" lon="3.107325"><ele>0.0</ele><time>2026-04-30T11:46:53.05Z</time></trkpt><trkpt lat="41.6581119" lon="3.1075401"><ele>0.0</ele><time>2026-04-30T11:46:55.05Z</time></trkpt><trkpt lat="41.6581468" lon="3.1076488"><ele>0.0</ele><time>2026-04-30T11:46:56.05Z</time></trkpt><trkpt lat="41.6581801" lon="3.1077585"><ele>0.0</ele><time>2026-04-30T11:46:57.05Z</time></trkpt><trkpt lat="41.6582124" lon="3.1078612"><ele>0.0</ele><time>2026-04-30T11:46:58.049Z</time></trkpt><trkpt lat="41.6582486" lon="3.1079657"><ele>0.0</ele><time>2026-04-30T11:46:59.049Z</time></trkpt><trkpt lat="41.6582822" lon="3.1080748"><ele>0.0</ele><time>2026-04-30T11:47:00.049Z</time></trkpt><trkpt lat="41.6583155" lon="3.1081819"><ele>0.0</ele><time>2026-04-30T11:47:01.05Z</time></trkpt><trkpt lat="41.6583476" lon="3.1082827"><ele>0.0</ele><time>2026-04-30T11:47:02.049Z</time></trkpt><trkpt lat="41.6583804" lon="3.108393"><ele>0.0</ele><time>2026-04-30T11:47:03.049Z</time></trkpt><trkpt lat="41.6584139" lon="3.1085019"><ele>0.0</ele><time>2026-04-30T11:47:04.049Z</time></trkpt><trkpt lat="41.6584518" lon="3.108611"><ele>0.0</ele><time>2026-04-30T11:47:05.049Z</time></trkpt><trkpt lat="41.6584839" lon="3.1087211"><ele>0.0</ele><time>2026-04-30T11:47:06.049Z</time></trkpt><trkpt lat="41.6585187" lon="3.1088281"><ele>0.0</ele><time>2026-04-30T11:47:07.049Z</time></trkpt><trkpt lat="41.6585509" lon="3.1089377"><ele>0.0</ele><time>2026-04-30T11:47:08.05Z</time></trkpt><trkpt lat="41.6585837" lon="3.1090448"><ele>0.0</ele><time>2026-04-30T11:47:09.05Z</time></trkpt><trkpt lat="41.6586169" lon="3.1091553"><ele>0.0</ele><time>2026-04-30T11:47:10.049Z</time></trkpt><trkpt lat="41.6586519" lon="3.1092664"><ele>0.0</ele><time>2026-04-30T11:47:11.049Z</time></trkpt><trkpt lat="41.6586883" lon="3.1093752"><ele>0.0</ele><time>2026-04-30T11:47:12.05Z</time></trkpt><trkpt lat="41.6587218" lon="3.1094868"><ele>0.0</ele><time>2026-04-30T11:47:13.049Z</time></trkpt><trkpt lat="41.658754" lon="3.1095923"><ele>0.0</ele><time>2026-04-30T11:47:14.05Z</time></trkpt><trkpt lat="41.6588205" lon="3.1098108"><ele>0.0</ele><time>2026-04-30T11:47:16.05Z</time></trkpt><trkpt lat="41.6588576" lon="3.1099158"><ele>0.0</ele><time>2026-04-30T11:47:17.049Z</time></trkpt><trkpt lat="41.6588948" lon="3.1100248"><ele>0.0</ele><time>2026-04-30T11:47:18.049Z</time></trkpt><trkpt lat="41.6589362" lon="3.1101386"><ele>0.0</ele><time>2026-04-30T11:47:19.05Z</time></trkpt><trkpt lat="41.6589721" lon="3.1102453"><ele>0.0</ele><time>2026-04-30T11:47:20.05Z</time></trkpt><trkpt lat="41.6590084" lon="3.110353"><ele>0.0</ele><time>2026-04-30T11:47:21.05Z</time></trkpt><trkpt lat="41.6590435" lon="3.110456"><ele>0.0</ele><time>2026-04-30T11:47:22.049Z</time></trkpt><trkpt lat="41.6590818" lon="3.1105631"><ele>0.0</ele><time>2026-04-30T11:47:23.049Z</time></trkpt><trkpt lat="41.6591199" lon="3.1106715"><ele>0.0</ele><time>2026-04-30T11:47:24.05Z</time></trkpt><trkpt lat="41.6591554" lon="3.1107756"><ele>0.0</ele><time>2026-04-30T11:47:25.049Z</time></trkpt><trkpt lat="41.6591991" lon="3.1108818"><ele>0.0</ele><time>2026-04-30T11:47:26.05Z</time></trkpt><trkpt lat="41.6592369" lon="3.1109855"><ele>0.0</ele><time>2026-04-30T11:47:27.049Z</time></trkpt><trkpt lat="41.6592735" lon="3.111089"><ele>0.0</ele><time>2026-04-30T11:47:28.05Z</time></trkpt><trkpt lat="41.6593085" lon="3.1111983"><ele>0.0</ele><time>2026-04-30T11:47:29.049Z</time></trkpt><trkpt lat="41.6593449" lon="3.1113067"><ele>0.0</ele><time>2026-04-30T11:47:30.05Z</time></trkpt><trkpt lat="41.6593832" lon="3.1114191"><ele>0.0</ele><time>2026-04-30T11:47:31.05Z</time></trkpt><trkpt lat="41.6594173" lon="3.1115267"><ele>0.0</ele><time>2026-04-30T11:47:32.05Z</time></trkpt><trkpt lat="41.6594552" lon="3.1116348"><ele>0.0</ele><time>2026-04-30T11:47:33.049Z</time></trkpt><trkpt lat="41.6594888" lon="3.111739"><ele>0.0</ele><time>2026-04-30T11:47:34.05Z</time></trkpt><trkpt lat="41.6595282" lon="3.1118465"><ele>0.0</ele><time>2026-04-30T11:47:35.049Z</time></trkpt><trkpt lat="41.6596405" lon="3.1121728"><ele>0.0</ele><time>2026-04-30T11:47:38.049Z</time></trkpt><trkpt lat="41.6596786" lon="3.1122801"><ele>0.0</ele><time>2026-04-30T11:47:39.049Z</time></trkpt><trkpt lat="41.6597169" lon="3.1123912"><ele>0.0</ele><time>2026-04-30T11:47:40.05Z</time></trkpt><trkpt lat="41.6597519" lon="3.1124999"><ele>0.0</ele><time>2026-04-30T11:47:41.049Z</time></trkpt><trkpt lat="41.6597885" lon="3.1126126"><ele>0.0</ele><time>2026-04-30T11:47:42.05Z</time></trkpt><trkpt lat="41.6598268" lon="3.1127249"><ele>0.0</ele><time>2026-04-30T11:47:43.05Z</time></trkpt><trkpt lat="41.6598603" lon="3.1128323"><ele>0.0</ele><time>2026-04-30T11:47:44.05Z</time></trkpt><trkpt lat="41.6598983" lon="3.1129368"><ele>0.0</ele><time>2026-04-30T11:47:45.049Z</time></trkpt><trkpt lat="41.6599355" lon="3.1130452"><ele>0.0</ele><time>2026-04-30T11:47:46.049Z</time></trkpt><trkpt lat="41.6599721" lon="3.1131532"><ele>0.0</ele><time>2026-04-30T11:47:47.049Z</time></trkpt><trkpt lat="41.6600055" lon="3.1132589"><ele>0.0</ele><time>2026-04-30T11:47:48.05Z</time></trkpt><trkpt lat="41.6600402" lon="3.1133666"><ele>0.0</ele><time>2026-04-30T11:47:49.049Z</time></trkpt><trkpt lat="41.660074" lon="3.1134734"><ele>0.0</ele><time>2026-04-30T11:47:50.049Z</time></trkpt><trkpt lat="41.6601085" lon="3.1135829"><ele>0.0</ele><time>2026-04-30T11:47:51.05Z</time></trkpt><trkpt lat="41.6601433" lon="3.1136932"><ele>0.0</ele><time>2026-04-30T11:47:52.049Z</time></trkpt><trkpt lat="41.6601771" lon="3.1137989"><ele>0.0</ele><time>2026-04-30T11:47:53.05Z</time></trkpt><trkpt lat="41.6602119" lon="3.1139067"><ele>0.0</ele><time>2026-04-30T11:47:54.049Z</time></trkpt><trkpt lat="41.6602472" lon="3.1140166"><ele>0.0</ele><time>2026-04-30T11:47:55.049Z</time></trkpt><trkpt lat="41.6602788" lon="3.1141207"><ele>0.0</ele><time>2026-04-30T11:47:56.049Z</time></trkpt><trkpt lat="41.6603503" lon="3.1143427"><ele>0.0</ele><time>2026-04-30T11:47:58.05Z</time></trkpt><trkpt lat="41.6603835" lon="3.1144545"><ele>0.0</ele><time>2026-04-30T11:47:59.05Z</time></trkpt><trkpt lat="41.6604157" lon="3.1145661"><ele>0.0</ele><time>2026-04-30T11:48:00.049Z</time></trkpt><trkpt lat="41.6604502" lon="3.1146721"><ele>0.0</ele><time>2026-04-30T11:48:01.049Z</time></trkpt><trkpt lat="41.6604851" lon="3.1147799"><ele>0.0</ele><time>2026-04-30T11:48:02.05Z</time></trkpt><trkpt lat="41.6605233" lon="3.1148841"><ele>0.0</ele><time>2026-04-30T11:48:03.05Z</time></trkpt><trkpt lat="41.6605616" lon="3.1149947"><ele>0.0</ele><time>2026-04-30T11:48:04.049Z</time></trkpt><trkpt lat="41.6606054" lon="3.1150992"><ele>0.0</ele><time>2026-04-30T11:48:05.05Z</time></trkpt><trkpt lat="41.6606433" lon="3.1152026"><ele>0.0</ele><time>2026-04-30T11:48:06.05Z</time></trkpt><trkpt lat="41.6606832" lon="3.11531"><ele>0.0</ele><time>2026-04-30T11:48:07.05Z</time></trkpt><trkpt lat="41.6607245" lon="3.1154152"><ele>0.0</ele><time>2026-04-30T11:48:08.05Z</time></trkpt><trkpt lat="41.6607633" lon="3.1155189"><ele>0.0</ele><time>2026-04-30T11:48:09.05Z</time></trkpt><trkpt lat="41.6608017" lon="3.1156249"><ele>0.0</ele><time>2026-04-30T11:48:10.049Z</time></trkpt><trkpt lat="41.6608417" lon="3.115733"><ele>0.0</ele><time>2026-04-30T11:48:11.05Z</time></trkpt><trkpt lat="41.6608814" lon="3.1158488"><ele>0.0</ele><time>2026-04-30T11:48:12.049Z</time></trkpt><trkpt lat="41.660917" lon="3.1159572"><ele>0.0</ele><time>2026-04-30T11:48:13.049Z</time></trkpt><trkpt lat="41.6609503" lon="3.1160667"><ele>0.0</ele><time>2026-04-30T11:48:14.049Z</time></trkpt><trkpt lat="41.6609821" lon="3.1161736"><ele>0.0</ele><time>2026-04-30T11:48:15.049Z</time></trkpt><trkpt lat="41.6610134" lon="3.1162834"><ele>0.0</ele><time>2026-04-30T11:48:16.049Z</time></trkpt><trkpt lat="41.6610471" lon="3.1163903"><ele>0.0</ele><time>2026-04-30T11:48:17.049Z</time></trkpt><trkpt lat="41.6611154" lon="3.1166069"><ele>0.0</ele><time>2026-04-30T11:48:19.05Z</time></trkpt><trkpt lat="41.6611474" lon="3.1167121"><ele>0.0</ele><time>2026-04-30T11:48:20.049Z</time></trkpt><trkpt lat="41.6611761" lon="3.1168186"><ele>0.0</ele><time>2026-04-30T11:48:21.049Z</time></trkpt><trkpt lat="41.661206" lon="3.1169252"><ele>0.0</ele><time>2026-04-30T11:48:22.05Z</time></trkpt><trkpt lat="41.6612388" lon="3.1170332"><ele>0.0</ele><time>2026-04-30T11:48:23.05Z</time></trkpt><trkpt lat="41.6612722" lon="3.117139"><ele>0.0</ele><time>2026-04-30T11:48:24.049Z</time></trkpt><trkpt lat="41.6613051" lon="3.1172512"><ele>0.0</ele><time>2026-04-30T11:48:25.049Z</time></trkpt><trkpt lat="41.6613415" lon="3.117359"><ele>0.0</ele><time>2026-04-30T11:48:26.049Z</time></trkpt><trkpt lat="41.6613796" lon="3.117464"><ele>0.0</ele><time>2026-04-30T11:48:27.049Z</time></trkpt><trkpt lat="41.6614166" lon="3.1175746"><ele>0.0</ele><time>2026-04-30T11:48:28.05Z</time></trkpt><trkpt lat="41.6614549" lon="3.1176861"><ele>0.0</ele><time>2026-04-30T11:48:29.049Z</time></trkpt><trkpt lat="41.6614959" lon="3.1177894"><ele>0.0</ele><time>2026-04-30T11:48:30.049Z</time></trkpt><trkpt lat="41.6615321" lon="3.1178936"><ele>0.0</ele><time>2026-04-30T11:48:31.049Z</time></trkpt><trkpt lat="41.6615684" lon="3.1180014"><ele>0.0</ele><time>2026-04-30T11:48:32.049Z</time></trkpt><trkpt lat="41.6616056" lon="3.1181111"><ele>0.0</ele><time>2026-04-30T11:48:33.05Z</time></trkpt><trkpt lat="41.6616421" lon="3.1182181"><ele>0.0</ele><time>2026-04-30T11:48:34.05Z</time></trkpt><trkpt lat="41.6616768" lon="3.1183277"><ele>0.0</ele><time>2026-04-30T11:48:35.049Z</time></trkpt><trkpt lat="41.6617135" lon="3.1184395"><ele>0.0</ele><time>2026-04-30T11:48:36.049Z</time></trkpt><trkpt lat="41.661752" lon="3.1185485"><ele>0.0</ele><time>2026-04-30T11:48:37.049Z</time></trkpt><trkpt lat="41.6617903" lon="3.1186562"><ele>0.0</ele><time>2026-04-30T11:48:38.05Z</time></trkpt><trkpt lat="41.6618975" lon="3.118977"><ele>0.0</ele><time>2026-04-30T11:48:41.05Z</time></trkpt><trkpt lat="41.6619353" lon="3.1190878"><ele>0.0</ele><time>2026-04-30T11:48:42.049Z</time></trkpt><trkpt lat="41.6619717" lon="3.1191952"><ele>0.0</ele><time>2026-04-30T11:48:43.049Z</time></trkpt><trkpt lat="41.6620069" lon="3.1193077"><ele>0.0</ele><time>2026-04-30T11:48:44.049Z</time></trkpt><trkpt lat="41.6620417" lon="3.1194224"><ele>0.0</ele><time>2026-04-30T11:48:45.05Z</time></trkpt><trkpt lat="41.6620797" lon="3.1195317"><ele>0.0</ele><time>2026-04-30T11:48:46.05Z</time></trkpt><trkpt lat="41.6621182" lon="3.1196387"><ele>0.0</ele><time>2026-04-30T11:48:47.05Z</time></trkpt><trkpt lat="41.6621549" lon="3.1197453"><ele>0.0</ele><time>2026-04-30T11:48:48.049Z</time></trkpt><trkpt lat="41.6621917" lon="3.1198515"><ele>0.0</ele><time>2026-04-30T11:48:49.05Z</time></trkpt><trkpt lat="41.6622309" lon="3.1199586"><ele>0.0</ele><time>2026-04-30T11:48:50.05Z</time></trkpt><trkpt lat="41.6622699" lon="3.1200664"><ele>0.0</ele><time>2026-04-30T11:48:51.049Z</time></trkpt><trkpt lat="41.6623099" lon="3.1201764"><ele>0.0</ele><time>2026-04-30T11:48:52.05Z</time></trkpt><trkpt lat="41.6623453" lon="3.1202817"><ele>0.0</ele><time>2026-04-30T11:48:53.05Z</time></trkpt><trkpt lat="41.6623787" lon="3.1203826"><ele>0.0</ele><time>2026-04-30T11:48:54.05Z</time></trkpt><trkpt lat="41.6624165" lon="3.1204899"><ele>0.0</ele><time>2026-04-30T11:48:55.049Z</time></trkpt><trkpt lat="41.6624548" lon="3.120598"><ele>0.0</ele><time>2026-04-30T11:48:56.049Z</time></trkpt><trkpt lat="41.6624917" lon="3.1207035"><ele>0.0</ele><time>2026-04-30T11:48:57.05Z</time></trkpt><trkpt lat="41.66253" lon="3.12081"><ele>0.0</ele><time>2026-04-30T11:48:58.049Z</time></trkpt><trkpt lat="41.6625682" lon="3.1209182"><ele>0.0</ele><time>2026-04-30T11:48:59.049Z</time></trkpt><trkpt lat="41.6626051" lon="3.1210266"><ele>0.0</ele><time>2026-04-30T11:49:00.05Z</time></trkpt><trkpt lat="41.6626804" lon="3.1212468"><ele>0.0</ele><time>2026-04-30T11:49:02.049Z</time></trkpt><trkpt lat="41.6627169" lon="3.1213522"><ele>0.0</ele><time>2026-04-30T11:49:03.05Z</time></trkpt><trkpt lat="41.6627534" lon="3.1214583"><ele>0.0</ele><time>2026-04-30T11:49:04.05Z</time></trkpt><trkpt lat="41.6627855" lon="3.1215639"><ele>0.0</ele><time>2026-04-30T11:49:05.05Z</time></trkpt><trkpt lat="41.66282" lon="3.1216745"><ele>0.0</ele><time>2026-04-30T11:49:06.049Z</time></trkpt><trkpt lat="41.6628566" lon="3.1217875"><ele>0.0</ele><time>2026-04-30T11:49:07.05Z</time></trkpt><trkpt lat="41.6628902" lon="3.1218996"><ele>0.0</ele><time>2026-04-30T11:49:08.049Z</time></trkpt><trkpt lat="41.6629237" lon="3.1220116"><ele>0.0</ele><time>2026-04-30T11:49:09.05Z</time></trkpt><trkpt lat="41.6629569" lon="3.1221173"><ele>0.0</ele><time>2026-04-30T11:49:10.049Z</time></trkpt><trkpt lat="41.6630349" lon="3.1223332"><ele>0.0</ele><time>2026-04-30T11:49:12.049Z</time></trkpt><trkpt lat="41.6630735" lon="3.1224375"><ele>0.0</ele><time>2026-04-30T11:49:13.049Z</time></trkpt><trkpt lat="41.6631106" lon="3.1225391"><ele>0.0</ele><time>2026-04-30T11:49:14.049Z</time></trkpt><trkpt lat="41.6631472" lon="3.1226537"><ele>0.0</ele><time>2026-04-30T11:49:15.049Z</time></trkpt><trkpt lat="41.6631791" lon="3.122769"><ele>0.0</ele><time>2026-04-30T11:49:16.049Z</time></trkpt><trkpt lat="41.6632151" lon="3.1228783"><ele>0.0</ele><time>2026-04-30T11:49:17.049Z</time></trkpt><trkpt lat="41.6632518" lon="3.1229879"><ele>0.0</ele><time>2026-04-30T11:49:18.05Z</time></trkpt><trkpt lat="41.6632883" lon="3.1230982"><ele>0.0</ele><time>2026-04-30T11:49:19.049Z</time></trkpt><trkpt lat="41.6633221" lon="3.1232052"><ele>0.0</ele><time>2026-04-30T11:49:20.05Z</time></trkpt><trkpt lat="41.6633582" lon="3.1233145"><ele>0.0</ele><time>2026-04-30T11:49:21.05Z</time></trkpt><trkpt lat="41.6634272" lon="3.1235288"><ele>0.0</ele><time>2026-04-30T11:49:23.049Z</time></trkpt><trkpt lat="41.6634633" lon="3.1236396"><ele>0.0</ele><time>2026-04-30T11:49:24.049Z</time></trkpt><trkpt lat="41.6634985" lon="3.1237498"><ele>0.0</ele><time>2026-04-30T11:49:25.049Z</time></trkpt><trkpt lat="41.6635352" lon="3.1238569"><ele>0.0</ele><time>2026-04-30T11:49:26.05Z</time></trkpt><trkpt lat="41.6635719" lon="3.1239651"><ele>0.0</ele><time>2026-04-30T11:49:27.049Z</time></trkpt><trkpt lat="41.6636038" lon="3.1240678"><ele>0.0</ele><time>2026-04-30T11:49:28.049Z</time></trkpt><trkpt lat="41.6636385" lon="3.1241721"><ele>0.0</ele><time>2026-04-30T11:49:29.049Z</time></trkpt><trkpt lat="41.6636736" lon="3.1242769"><ele>0.0</ele><time>2026-04-30T11:49:30.05Z</time></trkpt><trkpt lat="41.6637054" lon="3.1243863"><ele>0.0</ele><time>2026-04-30T11:49:31.05Z</time></trkpt><trkpt lat="41.6637374" lon="3.1244976"><ele>0.0</ele><time>2026-04-30T11:49:32.049Z</time></trkpt><trkpt lat="41.663772" lon="3.1246094"><ele>0.0</ele><time>2026-04-30T11:49:33.049Z</time></trkpt><trkpt lat="41.6638081" lon="3.1247236"><ele>0.0</ele><time>2026-04-30T11:49:34.049Z</time></trkpt><trkpt lat="41.6638433" lon="3.1248364"><ele>0.0</ele><time>2026-04-30T11:49:35.049Z</time></trkpt><trkpt lat="41.6638785" lon="3.1249452"><ele>0.0</ele><time>2026-04-30T11:49:36.049Z</time></trkpt><trkpt lat="41.6639133" lon="3.1250551"><ele>0.0</ele><time>2026-04-30T11:49:37.049Z</time></trkpt><trkpt lat="41.6639483" lon="3.1251636"><ele>0.0</ele><time>2026-04-30T11:49:38.05Z</time></trkpt><trkpt lat="41.6639818" lon="3.1252702"><ele>0.0</ele><time>2026-04-30T11:49:39.05Z</time></trkpt><trkpt lat="41.6640169" lon="3.1253783"><ele>0.0</ele><time>2026-04-30T11:49:40.049Z</time></trkpt><trkpt lat="41.6640504" lon="3.1254851"><ele>0.0</ele><time>2026-04-30T11:49:41.049Z</time></trkpt><trkpt lat="41.6641207" lon="3.1257043"><ele>0.0</ele><time>2026-04-30T11:49:43.049Z</time></trkpt><trkpt lat="41.6641567" lon="3.1258131"><ele>0.0</ele><time>2026-04-30T11:49:44.05Z</time></trkpt><trkpt lat="41.6641934" lon="3.12592"><ele>0.0</ele><time>2026-04-30T11:49:45.049Z</time></trkpt><trkpt lat="41.6642303" lon="3.1260251"><ele>0.0</ele><time>2026-04-30T11:49:46.049Z</time></trkpt><trkpt lat="41.6642682" lon="3.1261303"><ele>0.0</ele><time>2026-04-30T11:49:47.049Z</time></trkpt><trkpt lat="41.6643033" lon="3.1262387"><ele>0.0</ele><time>2026-04-30T11:49:48.05Z</time></trkpt><trkpt lat="41.6643398" lon="3.1263494"><ele>0.0</ele><time>2026-04-30T11:49:49.05Z</time></trkpt><trkpt lat="41.6643733" lon="3.1264586"><ele>0.0</ele><time>2026-04-30T11:49:50.049Z</time></trkpt><trkpt lat="41.66441" lon="3.1265655"><ele>0.0</ele><time>2026-04-30T11:49:51.049Z</time></trkpt><trkpt lat="41.6644451" lon="3.126672"><ele>0.0</ele><time>2026-04-30T11:49:52.05Z</time></trkpt><trkpt lat="41.6644818" lon="3.1267784"><ele>0.0</ele><time>2026-04-30T11:49:53.049Z</time></trkpt><trkpt lat="41.6645154" lon="3.1268822"><ele>0.0</ele><time>2026-04-30T11:49:54.05Z</time></trkpt><trkpt lat="41.664552" lon="3.1269902"><ele>0.0</ele><time>2026-04-30T11:49:55.05Z</time></trkpt><trkpt lat="41.6645884" lon="3.1270967"><ele>0.0</ele><time>2026-04-30T11:49:56.049Z</time></trkpt><trkpt lat="41.6646221" lon="3.1272049"><ele>0.0</ele><time>2026-04-30T11:49:57.05Z</time></trkpt><trkpt lat="41.6646614" lon="3.1273076"><ele>0.0</ele><time>2026-04-30T11:49:58.05Z</time></trkpt><trkpt lat="41.6646984" lon="3.127415"><ele>0.0</ele><time>2026-04-30T11:49:59.049Z</time></trkpt><trkpt lat="41.6647333" lon="3.1275249"><ele>0.0</ele><time>2026-04-30T11:50:00.05Z</time></trkpt><trkpt lat="41.6647687" lon="3.1276277"><ele>0.0</ele><time>2026-04-30T11:50:01.049Z</time></trkpt><trkpt lat="41.664802" lon="3.1277352"><ele>0.0</ele><time>2026-04-30T11:50:02.049Z</time></trkpt><trkpt lat="41.6648398" lon="3.1278459"><ele>0.0</ele><time>2026-04-30T11:50:03.049Z</time></trkpt><trkpt lat="41.664918" lon="3.1280546"><ele>0.0</ele><time>2026-04-30T11:50:05.05Z</time></trkpt><trkpt lat="41.6649567" lon="3.1281629"><ele>0.0</ele><time>2026-04-30T11:50:06.05Z</time></trkpt><trkpt lat="41.6649934" lon="3.12827"><ele>0.0</ele><time>2026-04-30T11:50:07.05Z</time></trkpt><trkpt lat="41.6650317" lon="3.1283766"><ele>0.0</ele><time>2026-04-30T11:50:08.049Z</time></trkpt><trkpt lat="41.6650701" lon="3.1284834"><ele>0.0</ele><time>2026-04-30T11:50:09.049Z</time></trkpt><trkpt lat="41.6651038" lon="3.1285889"><ele>0.0</ele><time>2026-04-30T11:50:10.05Z</time></trkpt><trkpt lat="41.6651315" lon="3.1287011"><ele>0.0</ele><time>2026-04-30T11:50:11.05Z</time></trkpt><trkpt lat="41.6651637" lon="3.1288143"><ele>0.0</ele><time>2026-04-30T11:50:12.05Z</time></trkpt><trkpt lat="41.6651942" lon="3.1289292"><ele>0.0</ele><time>2026-04-30T11:50:13.049Z</time></trkpt><trkpt lat="41.6652274" lon="3.1290372"><ele>0.0</ele><time>2026-04-30T11:50:14.049Z</time></trkpt><trkpt lat="41.6652941" lon="3.1292461"><ele>0.0</ele><time>2026-04-30T11:50:16.05Z</time></trkpt><trkpt lat="41.6653301" lon="3.1293481"><ele>0.0</ele><time>2026-04-30T11:50:17.049Z</time></trkpt><trkpt lat="41.6653681" lon="3.1294565"><ele>0.0</ele><time>2026-04-30T11:50:18.049Z</time></trkpt><trkpt lat="41.6654038" lon="3.1295596"><ele>0.0</ele><time>2026-04-30T11:50:19.05Z</time></trkpt><trkpt lat="41.6654414" lon="3.1296669"><ele>0.0</ele><time>2026-04-30T11:50:20.049Z</time></trkpt><trkpt lat="41.6654798" lon="3.1297776"><ele>0.0</ele><time>2026-04-30T11:50:21.05Z</time></trkpt><trkpt lat="41.6655163" lon="3.1298921"><ele>0.0</ele><time>2026-04-30T11:50:22.049Z</time></trkpt><trkpt lat="41.6655548" lon="3.1300043"><ele>0.0</ele><time>2026-04-30T11:50:23.049Z</time></trkpt><trkpt lat="41.665593" lon="3.1301122"><ele>0.0</ele><time>2026-04-30T11:50:24.049Z</time></trkpt><trkpt lat="41.6656654" lon="3.1303241"><ele>0.0</ele><time>2026-04-30T11:50:26.05Z</time></trkpt><trkpt lat="41.6657016" lon="3.1304302"><ele>0.0</ele><time>2026-04-30T11:50:27.049Z</time></trkpt><trkpt lat="41.6657399" lon="3.1305341"><ele>0.0</ele><time>2026-04-30T11:50:28.05Z</time></trkpt><trkpt lat="41.6657782" lon="3.1306432"><ele>0.0</ele><time>2026-04-30T11:50:29.05Z</time></trkpt><trkpt lat="41.665816" lon="3.1307599"><ele>0.0</ele><time>2026-04-30T11:50:30.049Z</time></trkpt><trkpt lat="41.6658548" lon="3.1308724"><ele>0.0</ele><time>2026-04-30T11:50:31.05Z</time></trkpt><trkpt lat="41.6658935" lon="3.130983"><ele>0.0</ele><time>2026-04-30T11:50:32.049Z</time></trkpt><trkpt lat="41.66593" lon="3.1310903"><ele>0.0</ele><time>2026-04-30T11:50:33.049Z</time></trkpt><trkpt lat="41.6659613" lon="3.1312028"><ele>0.0</ele><time>2026-04-30T11:50:34.05Z</time></trkpt><trkpt lat="41.6659966" lon="3.1313147"><ele>0.0</ele><time>2026-04-30T11:50:35.05Z</time></trkpt><trkpt lat="41.6660319" lon="3.1314249"><ele>0.0</ele><time>2026-04-30T11:50:36.049Z</time></trkpt><trkpt lat="41.6660653" lon="3.1315351"><ele>0.0</ele><time>2026-04-30T11:50:37.049Z</time></trkpt><trkpt lat="41.6661042" lon="3.1316365"><ele>0.0</ele><time>2026-04-30T11:50:38.05Z</time></trkpt><trkpt lat="41.6661386" lon="3.1317436"><ele>0.0</ele><time>2026-04-30T11:50:39.05Z</time></trkpt><trkpt lat="41.6661708" lon="3.131849"><ele>0.0</ele><time>2026-04-30T11:50:40.049Z</time></trkpt><trkpt lat="41.6662081" lon="3.1319596"><ele>0.0</ele><time>2026-04-30T11:50:41.05Z</time></trkpt><trkpt lat="41.6662507" lon="3.1320658"><ele>0.0</ele><time>2026-04-30T11:50:42.049Z</time></trkpt><trkpt lat="41.6662872" lon="3.1321734"><ele>0.0</ele><time>2026-04-30T11:50:43.049Z</time></trkpt><trkpt lat="41.6663292" lon="3.1322789"><ele>0.0</ele><time>2026-04-30T11:50:44.049Z</time></trkpt><trkpt lat="41.6663669" lon="3.1323838"><ele>0.0</ele><time>2026-04-30T11:50:45.049Z</time></trkpt><trkpt lat="41.6664031" lon="3.1324933"><ele>0.0</ele><time>2026-04-30T11:50:46.049Z</time></trkpt><trkpt lat="41.6664727" lon="3.1327065"><ele>0.0</ele><time>2026-04-30T11:50:48.05Z</time></trkpt><trkpt lat="41.666506" lon="3.1328162"><ele>0.0</ele><time>2026-04-30T11:50:49.049Z</time></trkpt><trkpt lat="41.6665363" lon="3.1329305"><ele>0.0</ele><time>2026-04-30T11:50:50.05Z</time></trkpt><trkpt lat="41.6665679" lon="3.1330427"><ele>0.0</ele><time>2026-04-30T11:50:51.05Z</time></trkpt><trkpt lat="41.666595" lon="3.1331561"><ele>0.0</ele><time>2026-04-30T11:50:52.05Z</time></trkpt><trkpt lat="41.6666214" lon="3.1332697"><ele>0.0</ele><time>2026-04-30T11:50:53.05Z</time></trkpt><trkpt lat="41.6666602" lon="3.1333704"><ele>0.0</ele><time>2026-04-30T11:50:54.05Z</time></trkpt><trkpt lat="41.6667018" lon="3.1334732"><ele>0.0</ele><time>2026-04-30T11:50:55.049Z</time></trkpt><trkpt lat="41.6667355" lon="3.1335791"><ele>0.0</ele><time>2026-04-30T11:50:56.049Z</time></trkpt><trkpt lat="41.6667772" lon="3.1336838"><ele>0.0</ele><time>2026-04-30T11:50:57.049Z</time></trkpt><trkpt lat="41.6668124" lon="3.133793"><ele>0.0</ele><time>2026-04-30T11:50:58.05Z</time></trkpt><trkpt lat="41.6668485" lon="3.1338987"><ele>0.0</ele><time>2026-04-30T11:50:59.049Z</time></trkpt><trkpt lat="41.6668847" lon="3.1340069"><ele>0.0</ele><time>2026-04-30T11:51:00.049Z</time></trkpt><trkpt lat="41.6669245" lon="3.1341107"><ele>0.0</ele><time>2026-04-30T11:51:01.05Z</time></trkpt><trkpt lat="41.6669658" lon="3.1342213"><ele>0.0</ele><time>2026-04-30T11:51:02.049Z</time></trkpt><trkpt lat="41.6670059" lon="3.1343313"><ele>0.0</ele><time>2026-04-30T11:51:03.049Z</time></trkpt><trkpt lat="41.6670358" lon="3.13444"><ele>0.0</ele><time>2026-04-30T11:51:04.05Z</time></trkpt><trkpt lat="41.6670675" lon="3.134554"><ele>0.0</ele><time>2026-04-30T11:51:05.049Z</time></trkpt><trkpt lat="41.6670976" lon="3.1346605"><ele>0.0</ele><time>2026-04-30T11:51:06.049Z</time></trkpt><trkpt lat="41.667132" lon="3.1347685"><ele>0.0</ele><time>2026-04-30T11:51:07.049Z</time></trkpt><trkpt lat="41.6671912" lon="3.1349917"><ele>0.0</ele><time>2026-04-30T11:51:09.049Z</time></trkpt><trkpt lat="41.6672252" lon="3.1350997"><ele>0.0</ele><time>2026-04-30T11:51:10.05Z</time></trkpt><trkpt lat="41.6672585" lon="3.1352112"><ele>0.0</ele><time>2026-04-30T11:51:11.049Z</time></trkpt><trkpt lat="41.6672921" lon="3.1353226"><ele>0.0</ele><time>2026-04-30T11:51:12.049Z</time></trkpt><trkpt lat="41.6673227" lon="3.1354245"><ele>0.0</ele><time>2026-04-30T11:51:13.049Z</time></trkpt><trkpt lat="41.6673613" lon="3.1355279"><ele>0.0</ele><time>2026-04-30T11:51:14.05Z</time></trkpt><trkpt lat="41.6673941" lon="3.1356364"><ele>0.0</ele><time>2026-04-30T11:51:15.05Z</time></trkpt><trkpt lat="41.6674242" lon="3.1357474"><ele>0.0</ele><time>2026-04-30T11:51:16.05Z</time></trkpt><trkpt lat="41.6674657" lon="3.1358509"><ele>0.0</ele><time>2026-04-30T11:51:17.049Z</time></trkpt><trkpt lat="41.6675004" lon="3.1359609"><ele>0.0</ele><time>2026-04-30T11:51:18.05Z</time></trkpt><trkpt lat="41.6675354" lon="3.1360739"><ele>0.0</ele><time>2026-04-30T11:51:19.049Z</time></trkpt><trkpt lat="41.6675824" lon="3.1361746"><ele>0.0</ele><time>2026-04-30T11:51:20.05Z</time></trkpt><trkpt lat="41.6676196" lon="3.1362843"><ele>0.0</ele><time>2026-04-30T11:51:21.05Z</time></trkpt><trkpt lat="41.6676582" lon="3.1363956"><ele>0.0</ele><time>2026-04-30T11:51:22.05Z</time></trkpt><trkpt lat="41.6676976" lon="3.1365047"><ele>0.0</ele><time>2026-04-30T11:51:23.05Z</time></trkpt><trkpt lat="41.6677346" lon="3.1366164"><ele>0.0</ele><time>2026-04-30T11:51:24.049Z</time></trkpt><trkpt lat="41.6677724" lon="3.1367237"><ele>0.0</ele><time>2026-04-30T11:51:25.049Z</time></trkpt><trkpt lat="41.667812" lon="3.1368295"><ele>0.0</ele><time>2026-04-30T11:51:26.049Z</time></trkpt><trkpt lat="41.6678503" lon="3.1369372"><ele>0.0</ele><time>2026-04-30T11:51:27.05Z</time></trkpt><trkpt lat="41.667889" lon="3.1370411"><ele>0.0</ele><time>2026-04-30T11:51:28.05Z</time></trkpt><trkpt lat="41.6679753" lon="3.1372281"><ele>0.0</ele><time>2026-04-30T11:51:30.049Z</time></trkpt><trkpt lat="41.6680147" lon="3.1373338"><ele>0.0</ele><time>2026-04-30T11:51:31.05Z</time></trkpt><trkpt lat="41.6680504" lon="3.1374446"><ele>0.0</ele><time>2026-04-30T11:51:32.049Z</time></trkpt><trkpt lat="41.6680852" lon="3.1375532"><ele>0.0</ele><time>2026-04-30T11:51:33.049Z</time></trkpt><trkpt lat="41.6681172" lon="3.1376645"><ele>0.0</ele><time>2026-04-30T11:51:34.049Z</time></trkpt><trkpt lat="41.6681477" lon="3.1377789"><ele>0.0</ele><time>2026-04-30T11:51:35.05Z</time></trkpt><trkpt lat="41.6681822" lon="3.1378921"><ele>0.0</ele><time>2026-04-30T11:51:36.05Z</time></trkpt><trkpt lat="41.6682101" lon="3.1379987"><ele>0.0</ele><time>2026-04-30T11:51:37.049Z</time></trkpt><trkpt lat="41.6682379" lon="3.1381053"><ele>0.0</ele><time>2026-04-30T11:51:38.049Z</time></trkpt><trkpt lat="41.6682691" lon="3.1382147"><ele>0.0</ele><time>2026-04-30T11:51:39.049Z</time></trkpt><trkpt lat="41.668302" lon="3.1383305"><ele>0.0</ele><time>2026-04-30T11:51:40.049Z</time></trkpt><trkpt lat="41.6683384" lon="3.1384459"><ele>0.0</ele><time>2026-04-30T11:51:41.049Z</time></trkpt><trkpt lat="41.6683736" lon="3.1385595"><ele>0.0</ele><time>2026-04-30T11:51:42.049Z</time></trkpt><trkpt lat="41.6684099" lon="3.1386696"><ele>0.0</ele><time>2026-04-30T11:51:43.05Z</time></trkpt><trkpt lat="41.6684478" lon="3.1387785"><ele>0.0</ele><time>2026-04-30T11:51:44.05Z</time></trkpt><trkpt lat="41.6684823" lon="3.1388867"><ele>0.0</ele><time>2026-04-30T11:51:45.048Z</time></trkpt><trkpt lat="41.66852" lon="3.1389921"><ele>0.0</ele><time>2026-04-30T11:51:46.048Z</time></trkpt><trkpt lat="41.6685598" lon="3.1390955"><ele>0.0</ele><time>2026-04-30T11:51:47.049Z</time></trkpt><trkpt lat="41.6685983" lon="3.1391988"><ele>0.0</ele><time>2026-04-30T11:51:48.048Z</time></trkpt><trkpt lat="41.668638" lon="3.1393012"><ele>0.0</ele><time>2026-04-30T11:51:49.048Z</time></trkpt><trkpt lat="41.6687119" lon="3.1395093"><ele>0.0</ele><time>2026-04-30T11:51:51.049Z</time></trkpt><trkpt lat="41.6687454" lon="3.139618"><ele>0.0</ele><time>2026-04-30T11:51:52.049Z</time></trkpt><trkpt lat="41.6687816" lon="3.1397194"><ele>0.0</ele><time>2026-04-30T11:51:53.049Z</time></trkpt><trkpt lat="41.668817" lon="3.1398294"><ele>0.0</ele><time>2026-04-30T11:51:54.048Z</time></trkpt><trkpt lat="41.6688505" lon="3.1399383"><ele>0.0</ele><time>2026-04-30T11:51:55.049Z</time></trkpt><trkpt lat="41.6688824" lon="3.1400451"><ele>0.0</ele><time>2026-04-30T11:51:56.049Z</time></trkpt><trkpt lat="41.6689166" lon="3.1401565"><ele>0.0</ele><time>2026-04-30T11:51:57.048Z</time></trkpt><trkpt lat="41.6689517" lon="3.1402697"><ele>0.0</ele><time>2026-04-30T11:51:58.048Z</time></trkpt><trkpt lat="41.6689853" lon="3.1403827"><ele>0.0</ele><time>2026-04-30T11:51:59.049Z</time></trkpt><trkpt lat="41.6690217" lon="3.1404947"><ele>0.0</ele><time>2026-04-30T11:52:00.049Z</time></trkpt><trkpt lat="41.6690583" lon="3.1406048"><ele>0.0</ele><time>2026-04-30T11:52:01.048Z</time></trkpt><trkpt lat="41.6690951" lon="3.1407131"><ele>0.0</ele><time>2026-04-30T11:52:02.048Z</time></trkpt><trkpt lat="41.6691317" lon="3.1408246"><ele>0.0</ele><time>2026-04-30T11:52:03.049Z</time></trkpt><trkpt lat="41.6691685" lon="3.1409319"><ele>0.0</ele><time>2026-04-30T11:52:04.049Z</time></trkpt><trkpt lat="41.6692068" lon="3.14104"><ele>0.0</ele><time>2026-04-30T11:52:05.049Z</time></trkpt><trkpt lat="41.6692433" lon="3.1411499"><ele>0.0</ele><time>2026-04-30T11:52:06.048Z</time></trkpt><trkpt lat="41.6692785" lon="3.1412543"><ele>0.0</ele><time>2026-04-30T11:52:07.048Z</time></trkpt><trkpt lat="41.6693095" lon="3.1413632"><ele>0.0</ele><time>2026-04-30T11:52:08.048Z</time></trkpt><trkpt lat="41.6693421" lon="3.141472"><ele>0.0</ele><time>2026-04-30T11:52:09.048Z</time></trkpt><trkpt lat="41.6693739" lon="3.1415825"><ele>0.0</ele><time>2026-04-30T11:52:10.048Z</time></trkpt><trkpt lat="41.6694068" lon="3.141689"><ele>0.0</ele><time>2026-04-30T11:52:11.048Z</time></trkpt><trkpt lat="41.6694769" lon="3.1419079"><ele>0.0</ele><time>2026-04-30T11:52:13.048Z</time></trkpt><trkpt lat="41.6695104" lon="3.1420166"><ele>0.0</ele><time>2026-04-30T11:52:14.048Z</time></trkpt><trkpt lat="41.6695422" lon="3.142125"><ele>0.0</ele><time>2026-04-30T11:52:15.049Z</time></trkpt><trkpt lat="41.6695769" lon="3.1422318"><ele>0.0</ele><time>2026-04-30T11:52:16.049Z</time></trkpt><trkpt lat="41.6696134" lon="3.1423398"><ele>0.0</ele><time>2026-04-30T11:52:17.048Z</time></trkpt><trkpt lat="41.6696516" lon="3.1424482"><ele>0.0</ele><time>2026-04-30T11:52:18.048Z</time></trkpt><trkpt lat="41.6696857" lon="3.1425566"><ele>0.0</ele><time>2026-04-30T11:52:19.049Z</time></trkpt><trkpt lat="41.6697188" lon="3.1426691"><ele>0.0</ele><time>2026-04-30T11:52:20.048Z</time></trkpt><trkpt lat="41.6697507" lon="3.1427823"><ele>0.0</ele><time>2026-04-30T11:52:21.049Z</time></trkpt><trkpt lat="41.6697852" lon="3.1428928"><ele>0.0</ele><time>2026-04-30T11:52:22.048Z</time></trkpt><trkpt lat="41.6698569" lon="3.143115"><ele>0.0</ele><time>2026-04-30T11:52:24.049Z</time></trkpt><trkpt lat="41.6698905" lon="3.1432234"><ele>0.0</ele><time>2026-04-30T11:52:25.048Z</time></trkpt><trkpt lat="41.6699222" lon="3.1433303"><ele>0.0</ele><time>2026-04-30T11:52:26.048Z</time></trkpt><trkpt lat="41.6699534" lon="3.143443"><ele>0.0</ele><time>2026-04-30T11:52:27.048Z</time></trkpt><trkpt lat="41.6699871" lon="3.1435517"><ele>0.0</ele><time>2026-04-30T11:52:28.049Z</time></trkpt><trkpt lat="41.6700216" lon="3.143659"><ele>0.0</ele><time>2026-04-30T11:52:29.049Z</time></trkpt><trkpt lat="41.6700583" lon="3.14377"><ele>0.0</ele><time>2026-04-30T11:52:30.048Z</time></trkpt><trkpt lat="41.670092" lon="3.1438788"><ele>0.0</ele><time>2026-04-30T11:52:31.049Z</time></trkpt><trkpt lat="41.6701265" lon="3.1439871"><ele>0.0</ele><time>2026-04-30T11:52:32.049Z</time></trkpt><trkpt lat="41.6701984" lon="3.1441998"><ele>0.0</ele><time>2026-04-30T11:52:34.048Z</time></trkpt><trkpt lat="41.6702333" lon="3.14431"><ele>0.0</ele><time>2026-04-30T11:52:35.049Z</time></trkpt><trkpt lat="41.6702701" lon="3.1444153"><ele>0.0</ele><time>2026-04-30T11:52:36.048Z</time></trkpt><trkpt lat="41.6703069" lon="3.1445233"><ele>0.0</ele><time>2026-04-30T11:52:37.048Z</time></trkpt><trkpt lat="41.6703432" lon="3.1446329"><ele>0.0</ele><time>2026-04-30T11:52:38.048Z</time></trkpt><trkpt lat="41.6703736" lon="3.1447349"><ele>0.0</ele><time>2026-04-30T11:52:39.049Z</time></trkpt><trkpt lat="41.6704084" lon="3.1448417"><ele>0.0</ele><time>2026-04-30T11:52:40.048Z</time></trkpt><trkpt lat="41.6704433" lon="3.1449517"><ele>0.0</ele><time>2026-04-30T11:52:41.049Z</time></trkpt><trkpt lat="41.6704801" lon="3.1450613"><ele>0.0</ele><time>2026-04-30T11:52:42.048Z</time></trkpt><trkpt lat="41.6705179" lon="3.1451741"><ele>0.0</ele><time>2026-04-30T11:52:43.049Z</time></trkpt><trkpt lat="41.6705546" lon="3.1452875"><ele>0.0</ele><time>2026-04-30T11:52:44.049Z</time></trkpt><trkpt lat="41.6705902" lon="3.1453926"><ele>0.0</ele><time>2026-04-30T11:52:45.048Z</time></trkpt><trkpt lat="41.6706255" lon="3.1454975"><ele>0.0</ele><time>2026-04-30T11:52:46.048Z</time></trkpt><trkpt lat="41.670662" lon="3.1456082"><ele>0.0</ele><time>2026-04-30T11:52:47.048Z</time></trkpt><trkpt lat="41.6707" lon="3.1457197"><ele>0.0</ele><time>2026-04-30T11:52:48.049Z</time></trkpt><trkpt lat="41.6707351" lon="3.1458295"><ele>0.0</ele><time>2026-04-30T11:52:49.048Z</time></trkpt><trkpt lat="41.6707716" lon="3.145941"><ele>0.0</ele><time>2026-04-30T11:52:50.048Z</time></trkpt><trkpt lat="41.6708084" lon="3.1460482"><ele>0.0</ele><time>2026-04-30T11:52:51.048Z</time></trkpt><trkpt lat="41.670845" lon="3.146154"><ele>0.0</ele><time>2026-04-30T11:52:52.049Z</time></trkpt><trkpt lat="41.6708817" lon="3.1462634"><ele>0.0</ele><time>2026-04-30T11:52:53.048Z</time></trkpt><trkpt lat="41.6709169" lon="3.1463704"><ele>0.0</ele><time>2026-04-30T11:52:54.048Z</time></trkpt><trkpt lat="41.6709872" lon="3.1465806"><ele>0.0</ele><time>2026-04-30T11:52:56.048Z</time></trkpt><trkpt lat="41.6710237" lon="3.1466839"><ele>0.0</ele><time>2026-04-30T11:52:57.048Z</time></trkpt><trkpt lat="41.6710602" lon="3.1467901"><ele>0.0</ele><time>2026-04-30T11:52:58.048Z</time></trkpt><trkpt lat="41.6710938" lon="3.1469008"><ele>0.0</ele><time>2026-04-30T11:52:59.049Z</time></trkpt><trkpt lat="41.67113" lon="3.1470141"><ele>0.0</ele><time>2026-04-30T11:53:00.049Z</time></trkpt><trkpt lat="41.6711652" lon="3.1471248"><ele>0.0</ele><time>2026-04-30T11:53:01.048Z</time></trkpt><trkpt lat="41.6712016" lon="3.1472362"><ele>0.0</ele><time>2026-04-30T11:53:02.048Z</time></trkpt><trkpt lat="41.6712353" lon="3.147348"><ele>0.0</ele><time>2026-04-30T11:53:03.048Z</time></trkpt><trkpt lat="41.6712672" lon="3.1474568"><ele>0.0</ele><time>2026-04-30T11:53:04.048Z</time></trkpt><trkpt lat="41.6713049" lon="3.1475664"><ele>0.0</ele><time>2026-04-30T11:53:05.049Z</time></trkpt><trkpt lat="41.6713434" lon="3.1476763"><ele>0.0</ele><time>2026-04-30T11:53:06.049Z</time></trkpt><trkpt lat="41.6713802" lon="3.147785"><ele>0.0</ele><time>2026-04-30T11:53:07.048Z</time></trkpt><trkpt lat="41.6714167" lon="3.1478949"><ele>0.0</ele><time>2026-04-30T11:53:08.049Z</time></trkpt><trkpt lat="41.6714507" lon="3.1479991"><ele>0.0</ele><time>2026-04-30T11:53:09.048Z</time></trkpt><trkpt lat="41.6714851" lon="3.1481042"><ele>0.0</ele><time>2026-04-30T11:53:10.049Z</time></trkpt><trkpt lat="41.6715234" lon="3.1482088"><ele>0.0</ele><time>2026-04-30T11:53:11.048Z</time></trkpt><trkpt lat="41.6715587" lon="3.1483167"><ele>0.0</ele><time>2026-04-30T11:53:12.049Z</time></trkpt><trkpt lat="41.6715965" lon="3.1484268"><ele>0.0</ele><time>2026-04-30T11:53:13.048Z</time></trkpt><trkpt lat="41.6716348" lon="3.1485321"><ele>0.0</ele><time>2026-04-30T11:53:14.049Z</time></trkpt><trkpt lat="41.6716732" lon="3.1486387"><ele>0.0</ele><time>2026-04-30T11:53:15.049Z</time></trkpt><trkpt lat="41.6717518" lon="3.1488519"><ele>0.0</ele><time>2026-04-30T11:53:17.049Z</time></trkpt><trkpt lat="41.67179" lon="3.1489601"><ele>0.0</ele><time>2026-04-30T11:53:18.048Z</time></trkpt><trkpt lat="41.6718254" lon="3.1490656"><ele>0.0</ele><time>2026-04-30T11:53:19.048Z</time></trkpt><trkpt lat="41.671859" lon="3.149172"><ele>0.0</ele><time>2026-04-30T11:53:20.049Z</time></trkpt><trkpt lat="41.6718965" lon="3.1492773"><ele>0.0</ele><time>2026-04-30T11:53:21.049Z</time></trkpt><trkpt lat="41.6719363" lon="3.1493793"><ele>0.0</ele><time>2026-04-30T11:53:22.049Z</time></trkpt><trkpt lat="41.671975" lon="3.1494837"><ele>0.0</ele><time>2026-04-30T11:53:23.049Z</time></trkpt><trkpt lat="41.672015" lon="3.1495898"><ele>0.0</ele><time>2026-04-30T11:53:24.048Z</time></trkpt><trkpt lat="41.6720518" lon="3.1496968"><ele>0.0</ele><time>2026-04-30T11:53:25.048Z</time></trkpt><trkpt lat="41.6720926" lon="3.1498019"><ele>0.0</ele><time>2026-04-30T11:53:26.048Z</time></trkpt><trkpt lat="41.6721686" lon="3.1500132"><ele>0.0</ele><time>2026-04-30T11:53:28.048Z</time></trkpt><trkpt lat="41.6722034" lon="3.1501214"><ele>0.0</ele><time>2026-04-30T11:53:29.048Z</time></trkpt><trkpt lat="41.6722417" lon="3.1502309"><ele>0.0</ele><time>2026-04-30T11:53:30.049Z</time></trkpt><trkpt lat="41.6722801" lon="3.1503397"><ele>0.0</ele><time>2026-04-30T11:53:31.048Z</time></trkpt><trkpt lat="41.672315" lon="3.15045"><ele>0.0</ele><time>2026-04-30T11:53:32.048Z</time></trkpt><trkpt lat="41.67235" lon="3.1505613"><ele>0.0</ele><time>2026-04-30T11:53:33.048Z</time></trkpt><trkpt lat="41.6723866" lon="3.1506728"><ele>0.0</ele><time>2026-04-30T11:53:34.049Z</time></trkpt><trkpt lat="41.6724219" lon="3.1507845"><ele>0.0</ele><time>2026-04-30T11:53:35.049Z</time></trkpt><trkpt lat="41.672454" lon="3.1508989"><ele>0.0</ele><time>2026-04-30T11:53:36.049Z</time></trkpt><trkpt lat="41.6725266" lon="3.1511196"><ele>0.0</ele><time>2026-04-30T11:53:38.048Z</time></trkpt><trkpt lat="41.6725605" lon="3.1512298"><ele>0.0</ele><time>2026-04-30T11:53:39.048Z</time></trkpt><trkpt lat="41.6725938" lon="3.1513342"><ele>0.0</ele><time>2026-04-30T11:53:40.048Z</time></trkpt><trkpt lat="41.6726269" lon="3.151443"><ele>0.0</ele><time>2026-04-30T11:53:41.049Z</time></trkpt><trkpt lat="41.6726577" lon="3.151553"><ele>0.0</ele><time>2026-04-30T11:53:42.048Z</time></trkpt><trkpt lat="41.6726887" lon="3.1516617"><ele>0.0</ele><time>2026-04-30T11:53:43.048Z</time></trkpt><trkpt lat="41.6727219" lon="3.15177"><ele>0.0</ele><time>2026-04-30T11:53:44.049Z</time></trkpt><trkpt lat="41.6727571" lon="3.1518753"><ele>0.0</ele><time>2026-04-30T11:53:45.048Z</time></trkpt><trkpt lat="41.6727935" lon="3.1519818"><ele>0.0</ele><time>2026-04-30T11:53:46.049Z</time></trkpt><trkpt lat="41.6728302" lon="3.1520886"><ele>0.0</ele><time>2026-04-30T11:53:47.049Z</time></trkpt><trkpt lat="41.6728651" lon="3.1521979"><ele>0.0</ele><time>2026-04-30T11:53:48.048Z</time></trkpt><trkpt lat="41.6729002" lon="3.1523066"><ele>0.0</ele><time>2026-04-30T11:53:49.049Z</time></trkpt><trkpt lat="41.672932" lon="3.1524138"><ele>0.0</ele><time>2026-04-30T11:53:50.048Z</time></trkpt><trkpt lat="41.6729671" lon="3.1525201"><ele>0.0</ele><time>2026-04-30T11:53:51.049Z</time></trkpt><trkpt lat="41.673005" lon="3.1526283"><ele>0.0</ele><time>2026-04-30T11:53:52.048Z</time></trkpt><trkpt lat="41.6730401" lon="3.1527364"><ele>0.0</ele><time>2026-04-30T11:53:53.048Z</time></trkpt><trkpt lat="41.6730766" lon="3.152845"><ele>0.0</ele><time>2026-04-30T11:53:54.049Z</time></trkpt><trkpt lat="41.6731121" lon="3.1529505"><ele>0.0</ele><time>2026-04-30T11:53:55.049Z</time></trkpt><trkpt lat="41.6731455" lon="3.1530557"><ele>0.0</ele><time>2026-04-30T11:53:56.048Z</time></trkpt><trkpt lat="41.6731802" lon="3.1531661"><ele>0.0</ele><time>2026-04-30T11:53:57.049Z</time></trkpt><trkpt lat="41.673215" lon="3.1532765"><ele>0.0</ele><time>2026-04-30T11:53:58.049Z</time></trkpt><trkpt lat="41.6732802" lon="3.1534994"><ele>0.0</ele><time>2026-04-30T11:54:00.049Z</time></trkpt><trkpt lat="41.6733151" lon="3.1536067"><ele>0.0</ele><time>2026-04-30T11:54:01.049Z</time></trkpt><trkpt lat="41.6733487" lon="3.1537133"><ele>0.0</ele><time>2026-04-30T11:54:02.049Z</time></trkpt><trkpt lat="41.673382" lon="3.1538156"><ele>0.0</ele><time>2026-04-30T11:54:03.049Z</time></trkpt><trkpt lat="41.6734169" lon="3.1539222"><ele>0.0</ele><time>2026-04-30T11:54:04.049Z</time></trkpt><trkpt lat="41.67345" lon="3.1540317"><ele>0.0</ele><time>2026-04-30T11:54:05.048Z</time></trkpt><trkpt lat="41.6734833" lon="3.1541431"><ele>0.0</ele><time>2026-04-30T11:54:06.048Z</time></trkpt><trkpt lat="41.6735167" lon="3.1542547"><ele>0.0</ele><time>2026-04-30T11:54:07.049Z</time></trkpt><trkpt lat="41.6735531" lon="3.1543666"><ele>0.0</ele><time>2026-04-30T11:54:08.048Z</time></trkpt><trkpt lat="41.6735901" lon="3.1544779"><ele>0.0</ele><time>2026-04-30T11:54:09.048Z</time></trkpt><trkpt lat="41.6736234" lon="3.15459"><ele>0.0</ele><time>2026-04-30T11:54:10.048Z</time></trkpt><trkpt lat="41.6736569" lon="3.1547012"><ele>0.0</ele><time>2026-04-30T11:54:11.049Z</time></trkpt><trkpt lat="41.6736931" lon="3.1548116"><ele>0.0</ele><time>2026-04-30T11:54:12.049Z</time></trkpt><trkpt lat="41.6737304" lon="3.1549199"><ele>0.0</ele><time>2026-04-30T11:54:13.049Z</time></trkpt><trkpt lat="41.6737667" lon="3.1550285"><ele>0.0</ele><time>2026-04-30T11:54:14.048Z</time></trkpt><trkpt lat="41.6738032" lon="3.1551408"><ele>0.0</ele><time>2026-04-30T11:54:15.049Z</time></trkpt><trkpt lat="41.6738387" lon="3.155247"><ele>0.0</ele><time>2026-04-30T11:54:16.048Z</time></trkpt><trkpt lat="41.6738723" lon="3.1553511"><ele>0.0</ele><time>2026-04-30T11:54:17.048Z</time></trkpt><trkpt lat="41.6739087" lon="3.1554568"><ele>0.0</ele><time>2026-04-30T11:54:18.048Z</time></trkpt><trkpt lat="41.6739436" lon="3.1555617"><ele>0.0</ele><time>2026-04-30T11:54:19.048Z</time></trkpt><trkpt lat="41.6740137" lon="3.1557787"><ele>0.0</ele><time>2026-04-30T11:54:21.049Z</time></trkpt><trkpt lat="41.6740488" lon="3.155888"><ele>0.0</ele><time>2026-04-30T11:54:22.048Z</time></trkpt><trkpt lat="41.6740866" lon="3.1559979"><ele>0.0</ele><time>2026-04-30T11:54:23.048Z</time></trkpt><trkpt lat="41.6741251" lon="3.156105"><ele>0.0</ele><time>2026-04-30T11:54:24.049Z</time></trkpt><trkpt lat="41.6741604" lon="3.1562119"><ele>0.0</ele><time>2026-04-30T11:54:25.049Z</time></trkpt><trkpt lat="41.6741953" lon="3.1563215"><ele>0.0</ele><time>2026-04-30T11:54:26.049Z</time></trkpt><trkpt lat="41.6742332" lon="3.156434"><ele>0.0</ele><time>2026-04-30T11:54:27.049Z</time></trkpt><trkpt lat="41.674272" lon="3.1565402"><ele>0.0</ele><time>2026-04-30T11:54:28.048Z</time></trkpt><trkpt lat="41.6743117" lon="3.1566498"><ele>0.0</ele><time>2026-04-30T11:54:29.049Z</time></trkpt><trkpt lat="41.6743516" lon="3.1567638"><ele>0.0</ele><time>2026-04-30T11:54:30.048Z</time></trkpt><trkpt lat="41.6743885" lon="3.1568731"><ele>0.0</ele><time>2026-04-30T11:54:31.048Z</time></trkpt><trkpt lat="41.6744256" lon="3.15698"><ele>0.0</ele><time>2026-04-30T11:54:32.049Z</time></trkpt><trkpt lat="41.6744591" lon="3.157084"><ele>0.0</ele><time>2026-04-30T11:54:33.048Z</time></trkpt><trkpt lat="41.6744937" lon="3.1571914"><ele>0.0</ele><time>2026-04-30T11:54:34.049Z</time></trkpt><trkpt lat="41.6745257" lon="3.1572972"><ele>0.0</ele><time>2026-04-30T11:54:35.048Z</time></trkpt><trkpt lat="41.6745588" lon="3.1574113"><ele>0.0</ele><time>2026-04-30T11:54:36.049Z</time></trkpt><trkpt lat="41.674592" lon="3.1575201"><ele>0.0</ele><time>2026-04-30T11:54:37.048Z</time></trkpt><trkpt lat="41.6746225" lon="3.15763"><ele>0.0</ele><time>2026-04-30T11:54:38.048Z</time></trkpt><trkpt lat="41.6746536" lon="3.1577384"><ele>0.0</ele><time>2026-04-30T11:54:39.048Z</time></trkpt><trkpt lat="41.6746852" lon="3.1578409"><ele>0.0</ele><time>2026-04-30T11:54:40.048Z</time></trkpt><trkpt lat="41.6747604" lon="3.1580505"><ele>0.0</ele><time>2026-04-30T11:54:42.048Z</time></trkpt><trkpt lat="41.6747954" lon="3.1581568"><ele>0.0</ele><time>2026-04-30T11:54:43.048Z</time></trkpt><trkpt lat="41.6748348" lon="3.1582646"><ele>0.0</ele><time>2026-04-30T11:54:44.049Z</time></trkpt><trkpt lat="41.6748749" lon="3.1583713"><ele>0.0</ele><time>2026-04-30T11:54:45.048Z</time></trkpt><trkpt lat="41.6749104" lon="3.15848"><ele>0.0</ele><time>2026-04-30T11:54:46.048Z</time></trkpt><trkpt lat="41.6749451" lon="3.1585857"><ele>0.0</ele><time>2026-04-30T11:54:47.048Z</time></trkpt><trkpt lat="41.6749836" lon="3.1586931"><ele>0.0</ele><time>2026-04-30T11:54:48.048Z</time></trkpt><trkpt lat="41.6750199" lon="3.1588028"><ele>0.0</ele><time>2026-04-30T11:54:49.049Z</time></trkpt><trkpt lat="41.6750554" lon="3.1589087"><ele>0.0</ele><time>2026-04-30T11:54:50.049Z</time></trkpt><trkpt lat="41.6750905" lon="3.1590154"><ele>0.0</ele><time>2026-04-30T11:54:51.048Z</time></trkpt><trkpt lat="41.6751252" lon="3.1591203"><ele>0.0</ele><time>2026-04-30T11:54:52.049Z</time></trkpt><trkpt lat="41.67516" lon="3.1592292"><ele>0.0</ele><time>2026-04-30T11:54:53.048Z</time></trkpt><trkpt lat="41.6751938" lon="3.1593385"><ele>0.0</ele><time>2026-04-30T11:54:54.049Z</time></trkpt><trkpt lat="41.675233" lon="3.1594509"><ele>0.0</ele><time>2026-04-30T11:54:55.048Z</time></trkpt><trkpt lat="41.6752682" lon="3.1595628"><ele>0.0</ele><time>2026-04-30T11:54:56.048Z</time></trkpt><trkpt lat="41.6753047" lon="3.1596746"><ele>0.0</ele><time>2026-04-30T11:54:57.049Z</time></trkpt><trkpt lat="41.6753429" lon="3.1597833"><ele>0.0</ele><time>2026-04-30T11:54:58.049Z</time></trkpt><trkpt lat="41.6753775" lon="3.15989"><ele>0.0</ele><time>2026-04-30T11:54:59.048Z</time></trkpt><trkpt lat="41.6754105" lon="3.1599926"><ele>0.0</ele><time>2026-04-30T11:55:00.048Z</time></trkpt><trkpt lat="41.6754454" lon="3.1600985"><ele>0.0</ele><time>2026-04-30T11:55:01.048Z</time></trkpt><trkpt lat="41.6755504" lon="3.1604202"><ele>0.0</ele><time>2026-04-30T11:55:04.048Z</time></trkpt><trkpt lat="41.6755882" lon="3.1605311"><ele>0.0</ele><time>2026-04-30T11:55:05.049Z</time></trkpt><trkpt lat="41.6756248" lon="3.1606432"><ele>0.0</ele><time>2026-04-30T11:55:06.049Z</time></trkpt><trkpt lat="41.6756586" lon="3.1607507"><ele>0.0</ele><time>2026-04-30T11:55:07.049Z</time></trkpt><trkpt lat="41.6756902" lon="3.1608597"><ele>0.0</ele><time>2026-04-30T11:55:08.049Z</time></trkpt><trkpt lat="41.6757233" lon="3.1609715"><ele>0.0</ele><time>2026-04-30T11:55:09.049Z</time></trkpt><trkpt lat="41.6757552" lon="3.1610817"><ele>0.0</ele><time>2026-04-30T11:55:10.049Z</time></trkpt><trkpt lat="41.6757883" lon="3.1611903"><ele>0.0</ele><time>2026-04-30T11:55:11.049Z</time></trkpt><trkpt lat="41.675822" lon="3.1612926"><ele>0.0</ele><time>2026-04-30T11:55:12.049Z</time></trkpt><trkpt lat="41.6758568" lon="3.1613997"><ele>0.0</ele><time>2026-04-30T11:55:13.048Z</time></trkpt><trkpt lat="41.6758916" lon="3.1615112"><ele>0.0</ele><time>2026-04-30T11:55:14.049Z</time></trkpt><trkpt lat="41.675927" lon="3.1616127"><ele>0.0</ele><time>2026-04-30T11:55:15.049Z</time></trkpt><trkpt lat="41.6759605" lon="3.1617201"><ele>0.0</ele><time>2026-04-30T11:55:16.048Z</time></trkpt><trkpt lat="41.6759952" lon="3.1618282"><ele>0.0</ele><time>2026-04-30T11:55:17.048Z</time></trkpt><trkpt lat="41.6760301" lon="3.1619414"><ele>0.0</ele><time>2026-04-30T11:55:18.048Z</time></trkpt><trkpt lat="41.6760635" lon="3.1620529"><ele>0.0</ele><time>2026-04-30T11:55:19.048Z</time></trkpt><trkpt lat="41.676097" lon="3.1621647"><ele>0.0</ele><time>2026-04-30T11:55:20.049Z</time></trkpt><trkpt lat="41.6761256" lon="3.162275"><ele>0.0</ele><time>2026-04-30T11:55:21.049Z</time></trkpt><trkpt lat="41.6761568" lon="3.1623836"><ele>0.0</ele><time>2026-04-30T11:55:22.049Z</time></trkpt><trkpt lat="41.6762185" lon="3.1625964"><ele>0.0</ele><time>2026-04-30T11:55:24.049Z</time></trkpt><trkpt lat="41.6762531" lon="3.1627081"><ele>0.0</ele><time>2026-04-30T11:55:25.048Z</time></trkpt><trkpt lat="41.6762895" lon="3.1628186"><ele>0.0</ele><time>2026-04-30T11:55:26.048Z</time></trkpt><trkpt lat="41.6763305" lon="3.162924"><ele>0.0</ele><time>2026-04-30T11:55:27.048Z</time></trkpt><trkpt lat="41.6763707" lon="3.1630277"><ele>0.0</ele><time>2026-04-30T11:55:28.049Z</time></trkpt><trkpt lat="41.6764135" lon="3.1631325"><ele>0.0</ele><time>2026-04-30T11:55:29.049Z</time></trkpt><trkpt lat="41.6764511" lon="3.1632387"><ele>0.0</ele><time>2026-04-30T11:55:30.048Z</time></trkpt><trkpt lat="41.6764938" lon="3.1633426"><ele>0.0</ele><time>2026-04-30T11:55:31.048Z</time></trkpt><trkpt lat="41.6765319" lon="3.1634485"><ele>0.0</ele><time>2026-04-30T11:55:32.048Z</time></trkpt><trkpt lat="41.6765671" lon="3.163558"><ele>0.0</ele><time>2026-04-30T11:55:33.049Z</time></trkpt><trkpt lat="41.6766031" lon="3.163667"><ele>0.0</ele><time>2026-04-30T11:55:34.049Z</time></trkpt><trkpt lat="41.6766356" lon="3.1637734"><ele>0.0</ele><time>2026-04-30T11:55:35.048Z</time></trkpt><trkpt lat="41.676673" lon="3.1638859"><ele>0.0</ele><time>2026-04-30T11:55:36.049Z</time></trkpt><trkpt lat="41.6767115" lon="3.1639933"><ele>0.0</ele><time>2026-04-30T11:55:37.048Z</time></trkpt><trkpt lat="41.6767431" lon="3.1641017"><ele>0.0</ele><time>2026-04-30T11:55:38.048Z</time></trkpt><trkpt lat="41.6767726" lon="3.1642143"><ele>0.0</ele><time>2026-04-30T11:55:39.049Z</time></trkpt><trkpt lat="41.6768069" lon="3.1643223"><ele>0.0</ele><time>2026-04-30T11:55:40.049Z</time></trkpt><trkpt lat="41.6768449" lon="3.1644273"><ele>0.0</ele><time>2026-04-30T11:55:41.049Z</time></trkpt><trkpt lat="41.6768816" lon="3.1645378"><ele>0.0</ele><time>2026-04-30T11:55:42.049Z</time></trkpt><trkpt lat="41.6769131" lon="3.1646507"><ele>0.0</ele><time>2026-04-30T11:55:43.048Z</time></trkpt><trkpt lat="41.6769786" lon="3.1648699"><ele>0.0</ele><time>2026-04-30T11:55:45.049Z</time></trkpt><trkpt lat="41.6770103" lon="3.1649757"><ele>0.0</ele><time>2026-04-30T11:55:46.049Z</time></trkpt><trkpt lat="41.6770452" lon="3.165082"><ele>0.0</ele><time>2026-04-30T11:55:47.049Z</time></trkpt><trkpt lat="41.6770814" lon="3.1651929"><ele>0.0</ele><time>2026-04-30T11:55:48.049Z</time></trkpt><trkpt lat="41.6771199" lon="3.1653004"><ele>0.0</ele><time>2026-04-30T11:55:49.049Z</time></trkpt><trkpt lat="41.6771583" lon="3.1654066"><ele>0.0</ele><time>2026-04-30T11:55:50.049Z</time></trkpt><trkpt lat="41.6771921" lon="3.1655092"><ele>0.0</ele><time>2026-04-30T11:55:51.049Z</time></trkpt><trkpt lat="41.6772313" lon="3.1656208"><ele>0.0</ele><time>2026-04-30T11:55:52.049Z</time></trkpt><trkpt lat="41.6772681" lon="3.1657297"><ele>0.0</ele><time>2026-04-30T11:55:53.049Z</time></trkpt><trkpt lat="41.6773032" lon="3.1658354"><ele>0.0</ele><time>2026-04-30T11:55:54.049Z</time></trkpt><trkpt lat="41.6773413" lon="3.1659449"><ele>0.0</ele><time>2026-04-30T11:55:55.048Z</time></trkpt><trkpt lat="41.6773793" lon="3.1660498"><ele>0.0</ele><time>2026-04-30T11:55:56.049Z</time></trkpt><trkpt lat="41.6774115" lon="3.1661606"><ele>0.0</ele><time>2026-04-30T11:55:57.049Z</time></trkpt><trkpt lat="41.6774467" lon="3.1662703"><ele>0.0</ele><time>2026-04-30T11:55:58.048Z</time></trkpt><trkpt lat="41.6774814" lon="3.1663823"><ele>0.0</ele><time>2026-04-30T11:55:59.048Z</time></trkpt><trkpt lat="41.6775134" lon="3.1664923"><ele>0.0</ele><time>2026-04-30T11:56:00.049Z</time></trkpt><trkpt lat="41.6775464" lon="3.1666012"><ele>0.0</ele><time>2026-04-30T11:56:01.049Z</time></trkpt><trkpt lat="41.677582" lon="3.166709"><ele>0.0</ele><time>2026-04-30T11:56:02.048Z</time></trkpt><trkpt lat="41.6776195" lon="3.1668157"><ele>0.0</ele><time>2026-04-30T11:56:03.049Z</time></trkpt><trkpt lat="41.6776578" lon="3.1669268"><ele>0.0</ele><time>2026-04-30T11:56:04.048Z</time></trkpt><trkpt lat="41.677695" lon="3.1670277"><ele>0.0</ele><time>2026-04-30T11:56:05.049Z</time></trkpt><trkpt lat="41.6777667" lon="3.1672415"><ele>0.0</ele><time>2026-04-30T11:56:07.049Z</time></trkpt><trkpt lat="41.6778076" lon="3.1673497"><ele>0.0</ele><time>2026-04-30T11:56:08.049Z</time></trkpt><trkpt lat="41.6778478" lon="3.1674576"><ele>0.0</ele><time>2026-04-30T11:56:09.049Z</time></trkpt><trkpt lat="41.6778822" lon="3.1675563"><ele>0.0</ele><time>2026-04-30T11:56:10.048Z</time></trkpt><trkpt lat="41.6779212" lon="3.1676586"><ele>0.0</ele><time>2026-04-30T11:56:11.048Z</time></trkpt><trkpt lat="41.6779582" lon="3.1677655"><ele>0.0</ele><time>2026-04-30T11:56:12.049Z</time></trkpt><trkpt lat="41.6779934" lon="3.1678734"><ele>0.0</ele><time>2026-04-30T11:56:13.048Z</time></trkpt><trkpt lat="41.6780297" lon="3.1679789"><ele>0.0</ele><time>2026-04-30T11:56:14.048Z</time></trkpt><trkpt lat="41.6780662" lon="3.1680922"><ele>0.0</ele><time>2026-04-30T11:56:15.049Z</time></trkpt><trkpt lat="41.6781079" lon="3.1682058"><ele>0.0</ele><time>2026-04-30T11:56:16.049Z</time></trkpt><trkpt lat="41.6781479" lon="3.1683149"><ele>0.0</ele><time>2026-04-30T11:56:17.049Z</time></trkpt><trkpt lat="41.6781836" lon="3.1684205"><ele>0.0</ele><time>2026-04-30T11:56:18.049Z</time></trkpt><trkpt lat="41.6782182" lon="3.1685281"><ele>0.0</ele><time>2026-04-30T11:56:19.048Z</time></trkpt><trkpt lat="41.6782519" lon="3.1686367"><ele>0.0</ele><time>2026-04-30T11:56:20.048Z</time></trkpt><trkpt lat="41.6782867" lon="3.1687481"><ele>0.0</ele><time>2026-04-30T11:56:21.048Z</time></trkpt><trkpt lat="41.6783202" lon="3.1688538"><ele>0.0</ele><time>2026-04-30T11:56:22.048Z</time></trkpt><trkpt lat="41.6783536" lon="3.1689649"><ele>0.0</ele><time>2026-04-30T11:56:23.049Z</time></trkpt><trkpt lat="41.6783853" lon="3.1690722"><ele>0.0</ele><time>2026-04-30T11:56:24.049Z</time></trkpt><trkpt lat="41.6784184" lon="3.1691792"><ele>0.0</ele><time>2026-04-30T11:56:25.048Z</time></trkpt><trkpt lat="41.6784521" lon="3.1692838"><ele>0.0</ele><time>2026-04-30T11:56:26.048Z</time></trkpt><trkpt lat="41.678521" lon="3.1695004"><ele>0.0</ele><time>2026-04-30T11:56:28.049Z</time></trkpt><trkpt lat="41.6785553" lon="3.1696085"><ele>0.0</ele><time>2026-04-30T11:56:29.049Z</time></trkpt><trkpt lat="41.678589" lon="3.1697124"><ele>0.0</ele><time>2026-04-30T11:56:30.049Z</time></trkpt><trkpt lat="41.6786237" lon="3.1698224"><ele>0.0</ele><time>2026-04-30T11:56:31.049Z</time></trkpt><trkpt lat="41.6786562" lon="3.1699313"><ele>0.0</ele><time>2026-04-30T11:56:32.049Z</time></trkpt><trkpt lat="41.6786938" lon="3.170041"><ele>0.0</ele><time>2026-04-30T11:56:33.048Z</time></trkpt><trkpt lat="41.6787309" lon="3.1701509"><ele>0.0</ele><time>2026-04-30T11:56:34.048Z</time></trkpt><trkpt lat="41.6787643" lon="3.1702568"><ele>0.0</ele><time>2026-04-30T11:56:35.048Z</time></trkpt><trkpt lat="41.6788035" lon="3.1703633"><ele>0.0</ele><time>2026-04-30T11:56:36.049Z</time></trkpt><trkpt lat="41.6788403" lon="3.1704713"><ele>0.0</ele><time>2026-04-30T11:56:37.048Z</time></trkpt><trkpt lat="41.6789119" lon="3.170685"><ele>0.0</ele><time>2026-04-30T11:56:39.047Z</time></trkpt><trkpt lat="41.6789515" lon="3.1707886"><ele>0.0</ele><time>2026-04-30T11:56:40.048Z</time></trkpt><trkpt lat="41.6789919" lon="3.1708974"><ele>0.0</ele><time>2026-04-30T11:56:41.048Z</time></trkpt><trkpt lat="41.6790301" lon="3.1710076"><ele>0.0</ele><time>2026-04-30T11:56:42.047Z</time></trkpt><trkpt lat="41.6790665" lon="3.1711176"><ele>0.0</ele><time>2026-04-30T11:56:43.048Z</time></trkpt><trkpt lat="41.6791034" lon="3.1712236"><ele>0.0</ele><time>2026-04-30T11:56:44.047Z</time></trkpt><trkpt lat="41.6791385" lon="3.1713316"><ele>0.0</ele><time>2026-04-30T11:56:45.047Z</time></trkpt><trkpt lat="41.6791782" lon="3.1714412"><ele>0.0</ele><time>2026-04-30T11:56:46.047Z</time></trkpt><trkpt lat="41.6792151" lon="3.1715498"><ele>0.0</ele><time>2026-04-30T11:56:47.048Z</time></trkpt><trkpt lat="41.6792934" lon="3.1717743"><ele>0.0</ele><time>2026-04-30T11:56:49.047Z</time></trkpt><trkpt lat="41.6793301" lon="3.1718858"><ele>0.0</ele><time>2026-04-30T11:56:50.048Z</time></trkpt><trkpt lat="41.6793667" lon="3.1719917"><ele>0.0</ele><time>2026-04-30T11:56:51.047Z</time></trkpt><trkpt lat="41.6793992" lon="3.1720929"><ele>0.0</ele><time>2026-04-30T11:56:52.048Z</time></trkpt><trkpt lat="41.6794306" lon="3.1721974"><ele>0.0</ele><time>2026-04-30T11:56:53.047Z</time></trkpt><trkpt lat="41.6794638" lon="3.1723036"><ele>0.0</ele><time>2026-04-30T11:56:54.047Z</time></trkpt><trkpt lat="41.6795001" lon="3.1724086"><ele>0.0</ele><time>2026-04-30T11:56:55.048Z</time></trkpt><trkpt lat="41.6795354" lon="3.1725136"><ele>0.0</ele><time>2026-04-30T11:56:56.048Z</time></trkpt><trkpt lat="41.6795706" lon="3.1726185"><ele>0.0</ele><time>2026-04-30T11:56:57.048Z</time></trkpt><trkpt lat="41.6796067" lon="3.172728"><ele>0.0</ele><time>2026-04-30T11:56:58.047Z</time></trkpt><trkpt lat="41.6796436" lon="3.1728335"><ele>0.0</ele><time>2026-04-30T11:56:59.047Z</time></trkpt><trkpt lat="41.6796817" lon="3.1729398"><ele>0.0</ele><time>2026-04-30T11:57:00.048Z</time></trkpt><trkpt lat="41.67972" lon="3.1730478"><ele>0.0</ele><time>2026-04-30T11:57:01.047Z</time></trkpt><trkpt lat="41.679757" lon="3.1731576"><ele>0.0</ele><time>2026-04-30T11:57:02.048Z</time></trkpt><trkpt lat="41.679792" lon="3.1732676"><ele>0.0</ele><time>2026-04-30T11:57:03.047Z</time></trkpt><trkpt lat="41.6798224" lon="3.173375"><ele>0.0</ele><time>2026-04-30T11:57:04.048Z</time></trkpt><trkpt lat="41.6798558" lon="3.1734777"><ele>0.0</ele><time>2026-04-30T11:57:05.048Z</time></trkpt><trkpt lat="41.6798919" lon="3.1735849"><ele>0.0</ele><time>2026-04-30T11:57:06.047Z</time></trkpt><trkpt lat="41.679927" lon="3.1736944"><ele>0.0</ele><time>2026-04-30T11:57:07.047Z</time></trkpt><trkpt lat="41.679962" lon="3.1738042"><ele>0.0</ele><time>2026-04-30T11:57:08.048Z</time></trkpt><trkpt lat="41.6799914" lon="3.1739221"><ele>0.0</ele><time>2026-04-30T11:57:09.047Z</time></trkpt><trkpt lat="41.6800606" lon="3.174145"><ele>0.0</ele><time>2026-04-30T11:57:11.047Z</time></trkpt><trkpt lat="41.6800912" lon="3.1742488"><ele>0.0</ele><time>2026-04-30T11:57:12.047Z</time></trkpt><trkpt lat="41.6801223" lon="3.1743568"><ele>0.0</ele><time>2026-04-30T11:57:13.048Z</time></trkpt><trkpt lat="41.6801525" lon="3.1744623"><ele>0.0</ele><time>2026-04-30T11:57:14.047Z</time></trkpt><trkpt lat="41.6801807" lon="3.1745706"><ele>0.0</ele><time>2026-04-30T11:57:15.048Z</time></trkpt><trkpt lat="41.6802119" lon="3.1746803"><ele>0.0</ele><time>2026-04-30T11:57:16.048Z</time></trkpt><trkpt lat="41.680245" lon="3.1747901"><ele>0.0</ele><time>2026-04-30T11:57:17.048Z</time></trkpt><trkpt lat="41.6802788" lon="3.1748971"><ele>0.0</ele><time>2026-04-30T11:57:18.048Z</time></trkpt><trkpt lat="41.6803122" lon="3.1749995"><ele>0.0</ele><time>2026-04-30T11:57:19.048Z</time></trkpt><trkpt lat="41.6803469" lon="3.1751068"><ele>0.0</ele><time>2026-04-30T11:57:20.048Z</time></trkpt><trkpt lat="41.6803847" lon="3.1752194"><ele>0.0</ele><time>2026-04-30T11:57:21.048Z</time></trkpt><trkpt lat="41.6804201" lon="3.1753296"><ele>0.0</ele><time>2026-04-30T11:57:22.047Z</time></trkpt><trkpt lat="41.680458" lon="3.1754468"><ele>0.0</ele><time>2026-04-30T11:57:23.048Z</time></trkpt><trkpt lat="41.680492" lon="3.175555"><ele>0.0</ele><time>2026-04-30T11:57:24.048Z</time></trkpt><trkpt lat="41.6805281" lon="3.1756649"><ele>0.0</ele><time>2026-04-30T11:57:25.047Z</time></trkpt><trkpt lat="41.6805634" lon="3.175769"><ele>0.0</ele><time>2026-04-30T11:57:26.047Z</time></trkpt><trkpt lat="41.6806016" lon="3.1758724"><ele>0.0</ele><time>2026-04-30T11:57:27.047Z</time></trkpt><trkpt lat="41.6806353" lon="3.1759743"><ele>0.0</ele><time>2026-04-30T11:57:28.048Z</time></trkpt><trkpt lat="41.6806699" lon="3.1760761"><ele>0.0</ele><time>2026-04-30T11:57:29.048Z</time></trkpt><trkpt lat="41.6807081" lon="3.1761818"><ele>0.0</ele><time>2026-04-30T11:57:30.048Z</time></trkpt><trkpt lat="41.6807829" lon="3.1764013"><ele>0.0</ele><time>2026-04-30T11:57:32.047Z</time></trkpt><trkpt lat="41.6808212" lon="3.1765141"><ele>0.0</ele><time>2026-04-30T11:57:33.047Z</time></trkpt><trkpt lat="41.6808581" lon="3.1766246"><ele>0.0</ele><time>2026-04-30T11:57:34.047Z</time></trkpt><trkpt lat="41.6808965" lon="3.176733"><ele>0.0</ele><time>2026-04-30T11:57:35.048Z</time></trkpt><trkpt lat="41.6809334" lon="3.1768416"><ele>0.0</ele><time>2026-04-30T11:57:36.047Z</time></trkpt><trkpt lat="41.6809715" lon="3.176954"><ele>0.0</ele><time>2026-04-30T11:57:37.047Z</time></trkpt><trkpt lat="41.6810099" lon="3.1770618"><ele>0.0</ele><time>2026-04-30T11:57:38.047Z</time></trkpt><trkpt lat="41.6810466" lon="3.1771644"><ele>0.0</ele><time>2026-04-30T11:57:39.048Z</time></trkpt><trkpt lat="41.6810849" lon="3.1772647"><ele>0.0</ele><time>2026-04-30T11:57:40.047Z</time></trkpt><trkpt lat="41.6811233" lon="3.1773673"><ele>0.0</ele><time>2026-04-30T11:57:41.048Z</time></trkpt><trkpt lat="41.6811571" lon="3.1774723"><ele>0.0</ele><time>2026-04-30T11:57:42.047Z</time></trkpt><trkpt lat="41.6811951" lon="3.1775769"><ele>0.0</ele><time>2026-04-30T11:57:43.047Z</time></trkpt><trkpt lat="41.6812345" lon="3.1776832"><ele>0.0</ele><time>2026-04-30T11:57:44.048Z</time></trkpt><trkpt lat="41.6812716" lon="3.1777868"><ele>0.0</ele><time>2026-04-30T11:57:45.048Z</time></trkpt><trkpt lat="41.6813099" lon="3.1778922"><ele>0.0</ele><time>2026-04-30T11:57:46.048Z</time></trkpt><trkpt lat="41.6813437" lon="3.1779973"><ele>0.0</ele><time>2026-04-30T11:57:47.047Z</time></trkpt><trkpt lat="41.6813783" lon="3.1781025"><ele>0.0</ele><time>2026-04-30T11:57:48.047Z</time></trkpt><trkpt lat="41.6814105" lon="3.1782046"><ele>0.0</ele><time>2026-04-30T11:57:49.047Z</time></trkpt><trkpt lat="41.681442" lon="3.1783163"><ele>0.0</ele><time>2026-04-30T11:57:50.047Z</time></trkpt><trkpt lat="41.6814771" lon="3.1784234"><ele>0.0</ele><time>2026-04-30T11:57:51.048Z</time></trkpt><trkpt lat="41.6815499" lon="3.1786491"><ele>0.0</ele><time>2026-04-30T11:57:53.047Z</time></trkpt><trkpt lat="41.6815879" lon="3.1787622"><ele>0.0</ele><time>2026-04-30T11:57:54.047Z</time></trkpt><trkpt lat="41.6816265" lon="3.1788727"><ele>0.0</ele><time>2026-04-30T11:57:55.047Z</time></trkpt><trkpt lat="41.6816648" lon="3.1789842"><ele>0.0</ele><time>2026-04-30T11:57:56.047Z</time></trkpt><trkpt lat="41.6816969" lon="3.1790934"><ele>0.0</ele><time>2026-04-30T11:57:57.048Z</time></trkpt><trkpt lat="41.6817344" lon="3.179206"><ele>0.0</ele><time>2026-04-30T11:57:58.048Z</time></trkpt><trkpt lat="41.6817701" lon="3.1793178"><ele>0.0</ele><time>2026-04-30T11:57:59.047Z</time></trkpt><trkpt lat="41.6818036" lon="3.1794228"><ele>0.0</ele><time>2026-04-30T11:58:00.047Z</time></trkpt><trkpt lat="41.6818369" lon="3.1795275"><ele>0.0</ele><time>2026-04-30T11:58:01.048Z</time></trkpt><trkpt lat="41.6818674" lon="3.1796324"><ele>0.0</ele><time>2026-04-30T11:58:02.047Z</time></trkpt><trkpt lat="41.6819003" lon="3.1797387"><ele>0.0</ele><time>2026-04-30T11:58:03.047Z</time></trkpt><trkpt lat="41.6819335" lon="3.1798511"><ele>0.0</ele><time>2026-04-30T11:58:04.047Z</time></trkpt><trkpt lat="41.6819656" lon="3.1799631"><ele>0.0</ele><time>2026-04-30T11:58:05.047Z</time></trkpt><trkpt lat="41.682" lon="3.1800772"><ele>0.0</ele><time>2026-04-30T11:58:06.047Z</time></trkpt><trkpt lat="41.6820338" lon="3.1801826"><ele>0.0</ele><time>2026-04-30T11:58:07.048Z</time></trkpt><trkpt lat="41.6820658" lon="3.1802859"><ele>0.0</ele><time>2026-04-30T11:58:08.048Z</time></trkpt><trkpt lat="41.6821017" lon="3.1803947"><ele>0.0</ele><time>2026-04-30T11:58:09.047Z</time></trkpt><trkpt lat="41.6821353" lon="3.180503"><ele>0.0</ele><time>2026-04-30T11:58:10.048Z</time></trkpt><trkpt lat="41.6821671" lon="3.1806142"><ele>0.0</ele><time>2026-04-30T11:58:11.047Z</time></trkpt><trkpt lat="41.6822021" lon="3.1807216"><ele>0.0</ele><time>2026-04-30T11:58:12.047Z</time></trkpt><trkpt lat="41.6822369" lon="3.1808313"><ele>0.0</ele><time>2026-04-30T11:58:13.048Z</time></trkpt><trkpt lat="41.6823042" lon="3.1810377"><ele>0.0</ele><time>2026-04-30T11:58:15.048Z</time></trkpt><trkpt lat="41.6823389" lon="3.1811452"><ele>0.0</ele><time>2026-04-30T11:58:16.047Z</time></trkpt><trkpt lat="41.6823693" lon="3.181256"><ele>0.0</ele><time>2026-04-30T11:58:17.047Z</time></trkpt><trkpt lat="41.682399" lon="3.1813651"><ele>0.0</ele><time>2026-04-30T11:58:18.047Z</time></trkpt><trkpt lat="41.682432" lon="3.1814778"><ele>0.0</ele><time>2026-04-30T11:58:19.047Z</time></trkpt><trkpt lat="41.6824636" lon="3.1815911"><ele>0.0</ele><time>2026-04-30T11:58:20.047Z</time></trkpt><trkpt lat="41.6824971" lon="3.1816956"><ele>0.0</ele><time>2026-04-30T11:58:21.048Z</time></trkpt><trkpt lat="41.6825259" lon="3.1817955"><ele>0.0</ele><time>2026-04-30T11:58:22.048Z</time></trkpt><trkpt lat="41.6825613" lon="3.1819064"><ele>0.0</ele><time>2026-04-30T11:58:23.048Z</time></trkpt><trkpt lat="41.6825939" lon="3.182008"><ele>0.0</ele><time>2026-04-30T11:58:24.048Z</time></trkpt><trkpt lat="41.6826316" lon="3.182115"><ele>0.0</ele><time>2026-04-30T11:58:25.047Z</time></trkpt><trkpt lat="41.6826657" lon="3.1822179"><ele>0.0</ele><time>2026-04-30T11:58:26.048Z</time></trkpt><trkpt lat="41.6826998" lon="3.1823296"><ele>0.0</ele><time>2026-04-30T11:58:27.048Z</time></trkpt><trkpt lat="41.6827334" lon="3.1824396"><ele>0.0</ele><time>2026-04-30T11:58:28.047Z</time></trkpt><trkpt lat="41.6827699" lon="3.1825495"><ele>0.0</ele><time>2026-04-30T11:58:29.048Z</time></trkpt><trkpt lat="41.6828069" lon="3.1826563"><ele>0.0</ele><time>2026-04-30T11:58:30.048Z</time></trkpt><trkpt lat="41.6828449" lon="3.1827691"><ele>0.0</ele><time>2026-04-30T11:58:31.047Z</time></trkpt><trkpt lat="41.6828802" lon="3.1828797"><ele>0.0</ele><time>2026-04-30T11:58:32.047Z</time></trkpt><trkpt lat="41.6829184" lon="3.1829838"><ele>0.0</ele><time>2026-04-30T11:58:33.047Z</time></trkpt><trkpt lat="41.6829539" lon="3.1830843"><ele>0.0</ele><time>2026-04-30T11:58:34.048Z</time></trkpt><trkpt lat="41.6830302" lon="3.1832982"><ele>0.0</ele><time>2026-04-30T11:58:36.047Z</time></trkpt><trkpt lat="41.6830669" lon="3.1834081"><ele>0.0</ele><time>2026-04-30T11:58:37.047Z</time></trkpt><trkpt lat="41.6831049" lon="3.1835207"><ele>0.0</ele><time>2026-04-30T11:58:38.048Z</time></trkpt><trkpt lat="41.6831415" lon="3.1836353"><ele>0.0</ele><time>2026-04-30T11:58:39.048Z</time></trkpt><trkpt lat="41.68318" lon="3.183743"><ele>0.0</ele><time>2026-04-30T11:58:40.048Z</time></trkpt><trkpt lat="41.6832136" lon="3.1838541"><ele>0.0</ele><time>2026-04-30T11:58:41.047Z</time></trkpt><trkpt lat="41.6832499" lon="3.1839602"><ele>0.0</ele><time>2026-04-30T11:58:42.048Z</time></trkpt><trkpt lat="41.6832863" lon="3.1840711"><ele>0.0</ele><time>2026-04-30T11:58:43.047Z</time></trkpt><trkpt lat="41.6833246" lon="3.1841772"><ele>0.0</ele><time>2026-04-30T11:58:44.047Z</time></trkpt><trkpt lat="41.6833672" lon="3.1842782"><ele>0.0</ele><time>2026-04-30T11:58:45.048Z</time></trkpt><trkpt lat="41.68345" lon="3.1844727"><ele>0.0</ele><time>2026-04-30T11:58:47.047Z</time></trkpt><trkpt lat="41.683491" lon="3.1845784"><ele>0.0</ele><time>2026-04-30T11:58:48.047Z</time></trkpt><trkpt lat="41.6835314" lon="3.1846864"><ele>0.0</ele><time>2026-04-30T11:58:49.047Z</time></trkpt><trkpt lat="41.683567" lon="3.184792"><ele>0.0</ele><time>2026-04-30T11:58:50.048Z</time></trkpt><trkpt lat="41.6835948" lon="3.1849041"><ele>0.0</ele><time>2026-04-30T11:58:51.048Z</time></trkpt><trkpt lat="41.6836258" lon="3.1850142"><ele>0.0</ele><time>2026-04-30T11:58:52.047Z</time></trkpt><trkpt lat="41.6836576" lon="3.1851257"><ele>0.0</ele><time>2026-04-30T11:58:53.047Z</time></trkpt><trkpt lat="41.683699" lon="3.1852404"><ele>0.0</ele><time>2026-04-30T11:58:54.048Z</time></trkpt><trkpt lat="41.6837363" lon="3.1853516"><ele>0.0</ele><time>2026-04-30T11:58:55.047Z</time></trkpt><trkpt lat="41.6838117" lon="3.1855605"><ele>0.0</ele><time>2026-04-30T11:58:57.047Z</time></trkpt><trkpt lat="41.683848" lon="3.1856713"><ele>0.0</ele><time>2026-04-30T11:58:58.048Z</time></trkpt><trkpt lat="41.6838804" lon="3.1857815"><ele>0.0</ele><time>2026-04-30T11:58:59.048Z</time></trkpt><trkpt lat="41.6839082" lon="3.185897"><ele>0.0</ele><time>2026-04-30T11:59:00.047Z</time></trkpt><trkpt lat="41.6839406" lon="3.1860092"><ele>0.0</ele><time>2026-04-30T11:59:01.047Z</time></trkpt><trkpt lat="41.6839751" lon="3.1861215"><ele>0.0</ele><time>2026-04-30T11:59:02.048Z</time></trkpt><trkpt lat="41.6840058" lon="3.1862287"><ele>0.0</ele><time>2026-04-30T11:59:03.047Z</time></trkpt><trkpt lat="41.6840446" lon="3.1863363"><ele>0.0</ele><time>2026-04-30T11:59:04.048Z</time></trkpt><trkpt lat="41.6840788" lon="3.1864447"><ele>0.0</ele><time>2026-04-30T11:59:05.048Z</time></trkpt><trkpt lat="41.6841134" lon="3.1865508"><ele>0.0</ele><time>2026-04-30T11:59:06.048Z</time></trkpt><trkpt lat="41.684157" lon="3.1866502"><ele>0.0</ele><time>2026-04-30T11:59:07.048Z</time></trkpt><trkpt lat="41.6841961" lon="3.1867541"><ele>0.0</ele><time>2026-04-30T11:59:08.048Z</time></trkpt><trkpt lat="41.6842261" lon="3.1868646"><ele>0.0</ele><time>2026-04-30T11:59:09.047Z</time></trkpt><trkpt lat="41.6842661" lon="3.1869735"><ele>0.0</ele><time>2026-04-30T11:59:10.047Z</time></trkpt><trkpt lat="41.6843016" lon="3.1870806"><ele>0.0</ele><time>2026-04-30T11:59:11.048Z</time></trkpt><trkpt lat="41.6843295" lon="3.1871843"><ele>0.0</ele><time>2026-04-30T11:59:12.047Z</time></trkpt><trkpt lat="41.6843638" lon="3.1873013"><ele>0.0</ele><time>2026-04-30T11:59:13.048Z</time></trkpt><trkpt lat="41.6843947" lon="3.187411"><ele>0.0</ele><time>2026-04-30T11:59:14.048Z</time></trkpt><trkpt lat="41.6844285" lon="3.1875244"><ele>0.0</ele><time>2026-04-30T11:59:15.048Z</time></trkpt><trkpt lat="41.6844638" lon="3.1876347"><ele>0.0</ele><time>2026-04-30T11:59:16.048Z</time></trkpt><trkpt lat="41.6844997" lon="3.1877391"><ele>0.0</ele><time>2026-04-30T11:59:17.048Z</time></trkpt><trkpt lat="41.684575" lon="3.187958"><ele>0.0</ele><time>2026-04-30T11:59:19.047Z</time></trkpt><trkpt lat="41.6846103" lon="3.1880705"><ele>0.0</ele><time>2026-04-30T11:59:20.047Z</time></trkpt><trkpt lat="41.6846551" lon="3.1881741"><ele>0.0</ele><time>2026-04-30T11:59:21.047Z</time></trkpt><trkpt lat="41.6847003" lon="3.1882846"><ele>0.0</ele><time>2026-04-30T11:59:22.048Z</time></trkpt><trkpt lat="41.6847324" lon="3.188391"><ele>0.0</ele><time>2026-04-30T11:59:23.047Z</time></trkpt><trkpt lat="41.6847641" lon="3.1885026"><ele>0.0</ele><time>2026-04-30T11:59:24.048Z</time></trkpt><trkpt lat="41.6848029" lon="3.1886062"><ele>0.0</ele><time>2026-04-30T11:59:25.047Z</time></trkpt><trkpt lat="41.6848374" lon="3.1887118"><ele>0.0</ele><time>2026-04-30T11:59:26.047Z</time></trkpt><trkpt lat="41.6848708" lon="3.1888214"><ele>0.0</ele><time>2026-04-30T11:59:27.048Z</time></trkpt><trkpt lat="41.6849037" lon="3.1889316"><ele>0.0</ele><time>2026-04-30T11:59:28.047Z</time></trkpt><trkpt lat="41.6849461" lon="3.1890356"><ele>0.0</ele><time>2026-04-30T11:59:29.047Z</time></trkpt><trkpt lat="41.6849876" lon="3.1891377"><ele>0.0</ele><time>2026-04-30T11:59:30.047Z</time></trkpt><trkpt lat="41.6850249" lon="3.1892434"><ele>0.0</ele><time>2026-04-30T11:59:31.048Z</time></trkpt><trkpt lat="41.685062" lon="3.1893471"><ele>0.0</ele><time>2026-04-30T11:59:32.047Z</time></trkpt><trkpt lat="41.6850969" lon="3.1894591"><ele>0.0</ele><time>2026-04-30T11:59:33.048Z</time></trkpt><trkpt lat="41.6851359" lon="3.1895642"><ele>0.0</ele><time>2026-04-30T11:59:34.047Z</time></trkpt><trkpt lat="41.6851688" lon="3.189666"><ele>0.0</ele><time>2026-04-30T11:59:35.048Z</time></trkpt><trkpt lat="41.6852019" lon="3.1897763"><ele>0.0</ele><time>2026-04-30T11:59:36.048Z</time></trkpt><trkpt lat="41.6852327" lon="3.1898879"><ele>0.0</ele><time>2026-04-30T11:59:37.047Z</time></trkpt><trkpt lat="41.6852669" lon="3.1899927"><ele>0.0</ele><time>2026-04-30T11:59:38.047Z</time></trkpt><trkpt lat="41.6853306" lon="3.1902094"><ele>0.0</ele><time>2026-04-30T11:59:40.047Z</time></trkpt><trkpt lat="41.6853656" lon="3.1903242"><ele>0.0</ele><time>2026-04-30T11:59:41.047Z</time></trkpt><trkpt lat="41.6854074" lon="3.1904321"><ele>0.0</ele><time>2026-04-30T11:59:42.047Z</time></trkpt><trkpt lat="41.685446" lon="3.1905418"><ele>0.0</ele><time>2026-04-30T11:59:43.047Z</time></trkpt><trkpt lat="41.6854834" lon="3.19065"><ele>0.0</ele><time>2026-04-30T11:59:44.047Z</time></trkpt><trkpt lat="41.6855144" lon="3.1907581"><ele>0.0</ele><time>2026-04-30T11:59:45.047Z</time></trkpt><trkpt lat="41.6855475" lon="3.1908636"><ele>0.0</ele><time>2026-04-30T11:59:46.048Z</time></trkpt><trkpt lat="41.6855778" lon="3.1909774"><ele>0.0</ele><time>2026-04-30T11:59:47.048Z</time></trkpt><trkpt lat="41.6856119" lon="3.1910938"><ele>0.0</ele><time>2026-04-30T11:59:48.048Z</time></trkpt><trkpt lat="41.6856453" lon="3.1912034"><ele>0.0</ele><time>2026-04-30T11:59:49.047Z</time></trkpt><trkpt lat="41.6856786" lon="3.1913176"><ele>0.0</ele><time>2026-04-30T11:59:50.048Z</time></trkpt><trkpt lat="41.6857175" lon="3.1914324"><ele>0.0</ele><time>2026-04-30T11:59:51.048Z</time></trkpt><trkpt lat="41.6857621" lon="3.1915368"><ele>0.0</ele><time>2026-04-30T11:59:52.047Z</time></trkpt><trkpt lat="41.6858017" lon="3.1916422"><ele>0.0</ele><time>2026-04-30T11:59:53.048Z</time></trkpt><trkpt lat="41.6858355" lon="3.1917475"><ele>0.0</ele><time>2026-04-30T11:59:54.048Z</time></trkpt><trkpt lat="41.6858703" lon="3.1918525"><ele>0.0</ele><time>2026-04-30T11:59:55.047Z</time></trkpt><trkpt lat="41.685909" lon="3.1919589"><ele>0.0</ele><time>2026-04-30T11:59:56.047Z</time></trkpt><trkpt lat="41.6859406" lon="3.19207"><ele>0.0</ele><time>2026-04-30T11:59:57.048Z</time></trkpt><trkpt lat="41.6859722" lon="3.1921757"><ele>0.0</ele><time>2026-04-30T11:59:58.048Z</time></trkpt><trkpt lat="41.6860077" lon="3.1922826"><ele>0.0</ele><time>2026-04-30T11:59:59.047Z</time></trkpt><trkpt lat="41.6860753" lon="3.1924987"><ele>0.0</ele><time>2026-04-30T12:00:01.047Z</time></trkpt><trkpt lat="41.6861158" lon="3.1926037"><ele>0.0</ele><time>2026-04-30T12:00:02.047Z</time></trkpt><trkpt lat="41.6861535" lon="3.1927115"><ele>0.0</ele><time>2026-04-30T12:00:03.047Z</time></trkpt><trkpt lat="41.6861885" lon="3.1928185"><ele>0.0</ele><time>2026-04-30T12:00:04.047Z</time></trkpt><trkpt lat="41.6862221" lon="3.1929253"><ele>0.0</ele><time>2026-04-30T12:00:05.047Z</time></trkpt><trkpt lat="41.6862497" lon="3.1930345"><ele>0.0</ele><time>2026-04-30T12:00:06.048Z</time></trkpt><trkpt lat="41.686282" lon="3.1931418"><ele>0.0</ele><time>2026-04-30T12:00:07.048Z</time></trkpt><trkpt lat="41.6863152" lon="3.1932542"><ele>0.0</ele><time>2026-04-30T12:00:08.048Z</time></trkpt><trkpt lat="41.68635" lon="3.1933606"><ele>0.0</ele><time>2026-04-30T12:00:09.048Z</time></trkpt><trkpt lat="41.686385" lon="3.1934686"><ele>0.0</ele><time>2026-04-30T12:00:10.047Z</time></trkpt><trkpt lat="41.6864186" lon="3.1935787"><ele>0.0</ele><time>2026-04-30T12:00:11.048Z</time></trkpt><trkpt lat="41.6864532" lon="3.193688"><ele>0.0</ele><time>2026-04-30T12:00:12.048Z</time></trkpt><trkpt lat="41.6864925" lon="3.1937927"><ele>0.0</ele><time>2026-04-30T12:00:13.048Z</time></trkpt><trkpt lat="41.6865286" lon="3.1938987"><ele>0.0</ele><time>2026-04-30T12:00:14.047Z</time></trkpt><trkpt lat="41.6865706" lon="3.1940012"><ele>0.0</ele><time>2026-04-30T12:00:15.047Z</time></trkpt><trkpt lat="41.6866125" lon="3.1941042"><ele>0.0</ele><time>2026-04-30T12:00:16.048Z</time></trkpt><trkpt lat="41.6866528" lon="3.1942103"><ele>0.0</ele><time>2026-04-30T12:00:17.048Z</time></trkpt><trkpt lat="41.6866914" lon="3.194318"><ele>0.0</ele><time>2026-04-30T12:00:18.048Z</time></trkpt><trkpt lat="41.6867257" lon="3.1944289"><ele>0.0</ele><time>2026-04-30T12:00:19.047Z</time></trkpt><trkpt lat="41.6867615" lon="3.1945369"><ele>0.0</ele><time>2026-04-30T12:00:20.047Z</time></trkpt><trkpt lat="41.6867996" lon="3.1946434"><ele>0.0</ele><time>2026-04-30T12:00:21.048Z</time></trkpt><trkpt lat="41.6868628" lon="3.1948645"><ele>0.0</ele><time>2026-04-30T12:00:23.048Z</time></trkpt><trkpt lat="41.686896" lon="3.1949759"><ele>0.0</ele><time>2026-04-30T12:00:24.047Z</time></trkpt><trkpt lat="41.6869244" lon="3.1950919"><ele>0.0</ele><time>2026-04-30T12:00:25.047Z</time></trkpt><trkpt lat="41.6869528" lon="3.1952028"><ele>0.0</ele><time>2026-04-30T12:00:26.048Z</time></trkpt><trkpt lat="41.6869826" lon="3.1953117"><ele>0.0</ele><time>2026-04-30T12:00:27.048Z</time></trkpt><trkpt lat="41.6870139" lon="3.1954188"><ele>0.0</ele><time>2026-04-30T12:00:28.047Z</time></trkpt><trkpt lat="41.687043" lon="3.1955268"><ele>0.0</ele><time>2026-04-30T12:00:29.047Z</time></trkpt><trkpt lat="41.6870755" lon="3.1956368"><ele>0.0</ele><time>2026-04-30T12:00:30.047Z</time></trkpt><trkpt lat="41.6871029" lon="3.1957525"><ele>0.0</ele><time>2026-04-30T12:00:31.048Z</time></trkpt><trkpt lat="41.6871382" lon="3.1958646"><ele>0.0</ele><time>2026-04-30T12:00:32.047Z</time></trkpt><trkpt lat="41.687176" lon="3.195971"><ele>0.0</ele><time>2026-04-30T12:00:33.047Z</time></trkpt><trkpt lat="41.6872084" lon="3.1960828"><ele>0.0</ele><time>2026-04-30T12:00:34.048Z</time></trkpt><trkpt lat="41.6872503" lon="3.196186"><ele>0.0</ele><time>2026-04-30T12:00:35.047Z</time></trkpt><trkpt lat="41.6872937" lon="3.1962907"><ele>0.0</ele><time>2026-04-30T12:00:36.048Z</time></trkpt><trkpt lat="41.6873229" lon="3.1964013"><ele>0.0</ele><time>2026-04-30T12:00:37.047Z</time></trkpt><trkpt lat="41.6873502" lon="3.1965126"><ele>0.0</ele><time>2026-04-30T12:00:38.048Z</time></trkpt><trkpt lat="41.6873862" lon="3.1966161"><ele>0.0</ele><time>2026-04-30T12:00:39.048Z</time></trkpt><trkpt lat="41.6874186" lon="3.1967276"><ele>0.0</ele><time>2026-04-30T12:00:40.048Z</time></trkpt><trkpt lat="41.6874505" lon="3.1968379"><ele>0.0</ele><time>2026-04-30T12:00:41.047Z</time></trkpt><trkpt lat="41.687489" lon="3.1969438"><ele>0.0</ele><time>2026-04-30T12:00:42.047Z</time></trkpt><trkpt lat="41.6875236" lon="3.1970575"><ele>0.0</ele><time>2026-04-30T12:00:43.047Z</time></trkpt><trkpt lat="41.6875874" lon="3.1972797"><ele>0.0</ele><time>2026-04-30T12:00:45.047Z</time></trkpt><trkpt lat="41.6876182" lon="3.197391"><ele>0.0</ele><time>2026-04-30T12:00:46.048Z</time></trkpt><trkpt lat="41.6876432" lon="3.1974999"><ele>0.0</ele><time>2026-04-30T12:00:47.047Z</time></trkpt><trkpt lat="41.6876808" lon="3.197604"><ele>0.0</ele><time>2026-04-30T12:00:48.047Z</time></trkpt><trkpt lat="41.6877212" lon="3.1977077"><ele>0.0</ele><time>2026-04-30T12:00:49.047Z</time></trkpt><trkpt lat="41.6877494" lon="3.1978207"><ele>0.0</ele><time>2026-04-30T12:00:50.047Z</time></trkpt><trkpt lat="41.687788" lon="3.197928"><ele>0.0</ele><time>2026-04-30T12:00:51.047Z</time></trkpt><trkpt lat="41.6878221" lon="3.198041"><ele>0.0</ele><time>2026-04-30T12:00:52.047Z</time></trkpt><trkpt lat="41.6878599" lon="3.1981497"><ele>0.0</ele><time>2026-04-30T12:00:53.048Z</time></trkpt><trkpt lat="41.6879271" lon="3.1983648"><ele>0.0</ele><time>2026-04-30T12:00:55.047Z</time></trkpt><trkpt lat="41.6879579" lon="3.198473"><ele>0.0</ele><time>2026-04-30T12:00:56.048Z</time></trkpt><trkpt lat="41.6879902" lon="3.198579"><ele>0.0</ele><time>2026-04-30T12:00:57.048Z</time></trkpt><trkpt lat="41.6880319" lon="3.1986811"><ele>0.0</ele><time>2026-04-30T12:00:58.048Z</time></trkpt><trkpt lat="41.688068" lon="3.1987899"><ele>0.0</ele><time>2026-04-30T12:00:59.048Z</time></trkpt><trkpt lat="41.688106" lon="3.1989012"><ele>0.0</ele><time>2026-04-30T12:01:00.048Z</time></trkpt><trkpt lat="41.6881418" lon="3.1990085"><ele>0.0</ele><time>2026-04-30T12:01:01.047Z</time></trkpt><trkpt lat="41.6881756" lon="3.1991179"><ele>0.0</ele><time>2026-04-30T12:01:02.047Z</time></trkpt><trkpt lat="41.6882148" lon="3.1992294"><ele>0.0</ele><time>2026-04-30T12:01:03.048Z</time></trkpt><trkpt lat="41.6882533" lon="3.1993351"><ele>0.0</ele><time>2026-04-30T12:01:04.047Z</time></trkpt><trkpt lat="41.6883275" lon="3.1995562"><ele>0.0</ele><time>2026-04-30T12:01:06.048Z</time></trkpt><trkpt lat="41.6883622" lon="3.1996662"><ele>0.0</ele><time>2026-04-30T12:01:07.047Z</time></trkpt><trkpt lat="41.6884001" lon="3.1997758"><ele>0.0</ele><time>2026-04-30T12:01:08.047Z</time></trkpt><trkpt lat="41.6884354" lon="3.1998833"><ele>0.0</ele><time>2026-04-30T12:01:09.048Z</time></trkpt><trkpt lat="41.6884721" lon="3.1999914"><ele>0.0</ele><time>2026-04-30T12:01:10.047Z</time></trkpt><trkpt lat="41.6885043" lon="3.2001057"><ele>0.0</ele><time>2026-04-30T12:01:11.047Z</time></trkpt><trkpt lat="41.6885418" lon="3.2002191"><ele>0.0</ele><time>2026-04-30T12:01:12.047Z</time></trkpt><trkpt lat="41.6885758" lon="3.2003313"><ele>0.0</ele><time>2026-04-30T12:01:13.047Z</time></trkpt><trkpt lat="41.6886162" lon="3.2004357"><ele>0.0</ele><time>2026-04-30T12:01:14.047Z</time></trkpt><trkpt lat="41.6886523" lon="3.2005433"><ele>0.0</ele><time>2026-04-30T12:01:15.048Z</time></trkpt><trkpt lat="41.6886885" lon="3.2006515"><ele>0.0</ele><time>2026-04-30T12:01:16.047Z</time></trkpt><trkpt lat="41.6887251" lon="3.2007583"><ele>0.0</ele><time>2026-04-30T12:01:17.047Z</time></trkpt><trkpt lat="41.6887662" lon="3.2008598"><ele>0.0</ele><time>2026-04-30T12:01:18.047Z</time></trkpt><trkpt lat="41.6888005" lon="3.200968"><ele>0.0</ele><time>2026-04-30T12:01:19.047Z</time></trkpt><trkpt lat="41.6888337" lon="3.201075"><ele>0.0</ele><time>2026-04-30T12:01:20.048Z</time></trkpt><trkpt lat="41.6888742" lon="3.2011864"><ele>0.0</ele><time>2026-04-30T12:01:21.047Z</time></trkpt><trkpt lat="41.6889087" lon="3.2012951"><ele>0.0</ele><time>2026-04-30T12:01:22.048Z</time></trkpt><trkpt lat="41.6889405" lon="3.2014076"><ele>0.0</ele><time>2026-04-30T12:01:23.047Z</time></trkpt><trkpt lat="41.688968" lon="3.2015166"><ele>0.0</ele><time>2026-04-30T12:01:24.048Z</time></trkpt><trkpt lat="41.688999" lon="3.2016265"><ele>0.0</ele><time>2026-04-30T12:01:25.048Z</time></trkpt><trkpt lat="41.6890322" lon="3.2017362"><ele>0.0</ele><time>2026-04-30T12:01:26.047Z</time></trkpt><trkpt lat="41.689099" lon="3.2019619"><ele>0.0</ele><time>2026-04-30T12:01:28.048Z</time></trkpt><trkpt lat="41.6891337" lon="3.2020731"><ele>0.0</ele><time>2026-04-30T12:01:29.047Z</time></trkpt><trkpt lat="41.6891614" lon="3.2021778"><ele>0.0</ele><time>2026-04-30T12:01:30.048Z</time></trkpt><trkpt lat="41.6891988" lon="3.2022824"><ele>0.0</ele><time>2026-04-30T12:01:31.048Z</time></trkpt><trkpt lat="41.6892315" lon="3.2023919"><ele>0.0</ele><time>2026-04-30T12:01:32.048Z</time></trkpt><trkpt lat="41.6892664" lon="3.2025003"><ele>0.0</ele><time>2026-04-30T12:01:33.046Z</time></trkpt><trkpt lat="41.6892999" lon="3.2026072"><ele>0.0</ele><time>2026-04-30T12:01:34.046Z</time></trkpt><trkpt lat="41.6893375" lon="3.2027125"><ele>0.0</ele><time>2026-04-30T12:01:35.046Z</time></trkpt><trkpt lat="41.6893731" lon="3.2028203"><ele>0.0</ele><time>2026-04-30T12:01:36.046Z</time></trkpt><trkpt lat="41.6894041" lon="3.2029268"><ele>0.0</ele><time>2026-04-30T12:01:37.046Z</time></trkpt><trkpt lat="41.68944" lon="3.2030363"><ele>0.0</ele><time>2026-04-30T12:01:38.047Z</time></trkpt><trkpt lat="41.689478" lon="3.2031424"><ele>0.0</ele><time>2026-04-30T12:01:39.047Z</time></trkpt><trkpt lat="41.6895134" lon="3.2032487"><ele>0.0</ele><time>2026-04-30T12:01:40.046Z</time></trkpt><trkpt lat="41.6895454" lon="3.2033567"><ele>0.0</ele><time>2026-04-30T12:01:41.046Z</time></trkpt><trkpt lat="41.6895744" lon="3.2034639"><ele>0.0</ele><time>2026-04-30T12:01:42.047Z</time></trkpt><trkpt lat="41.6896089" lon="3.2035761"><ele>0.0</ele><time>2026-04-30T12:01:43.046Z</time></trkpt><trkpt lat="41.6896421" lon="3.2036838"><ele>0.0</ele><time>2026-04-30T12:01:44.046Z</time></trkpt><trkpt lat="41.6896755" lon="3.2037919"><ele>0.0</ele><time>2026-04-30T12:01:45.046Z</time></trkpt><trkpt lat="41.6897085" lon="3.2038972"><ele>0.0</ele><time>2026-04-30T12:01:46.046Z</time></trkpt><trkpt lat="41.6897797" lon="3.2041147"><ele>0.0</ele><time>2026-04-30T12:01:48.047Z</time></trkpt><trkpt lat="41.6898165" lon="3.204223"><ele>0.0</ele><time>2026-04-30T12:01:49.046Z</time></trkpt><trkpt lat="41.689852" lon="3.2043273"><ele>0.0</ele><time>2026-04-30T12:01:50.047Z</time></trkpt><trkpt lat="41.6898849" lon="3.2044383"><ele>0.0</ele><time>2026-04-30T12:01:51.046Z</time></trkpt><trkpt lat="41.6899214" lon="3.2045463"><ele>0.0</ele><time>2026-04-30T12:01:52.047Z</time></trkpt><trkpt lat="41.6899654" lon="3.2046505"><ele>0.0</ele><time>2026-04-30T12:01:53.046Z</time></trkpt><trkpt lat="41.6900058" lon="3.2047553"><ele>0.0</ele><time>2026-04-30T12:01:54.047Z</time></trkpt><trkpt lat="41.6900447" lon="3.2048604"><ele>0.0</ele><time>2026-04-30T12:01:55.046Z</time></trkpt><trkpt lat="41.690086" lon="3.204964"><ele>0.0</ele><time>2026-04-30T12:01:56.047Z</time></trkpt><trkpt lat="41.6901263" lon="3.2050698"><ele>0.0</ele><time>2026-04-30T12:01:57.046Z</time></trkpt><trkpt lat="41.6902002" lon="3.205288"><ele>0.0</ele><time>2026-04-30T12:01:59.047Z</time></trkpt><trkpt lat="41.6902398" lon="3.2053964"><ele>0.0</ele><time>2026-04-30T12:02:00.047Z</time></trkpt><trkpt lat="41.6902768" lon="3.2055064"><ele>0.0</ele><time>2026-04-30T12:02:01.047Z</time></trkpt><trkpt lat="41.6903132" lon="3.2056135"><ele>0.0</ele><time>2026-04-30T12:02:02.047Z</time></trkpt><trkpt lat="41.6903499" lon="3.2057202"><ele>0.0</ele><time>2026-04-30T12:02:03.046Z</time></trkpt><trkpt lat="41.6903871" lon="3.2058283"><ele>0.0</ele><time>2026-04-30T12:02:04.046Z</time></trkpt><trkpt lat="41.6904261" lon="3.2059337"><ele>0.0</ele><time>2026-04-30T12:02:05.047Z</time></trkpt><trkpt lat="41.6904615" lon="3.2060375"><ele>0.0</ele><time>2026-04-30T12:02:06.046Z</time></trkpt><trkpt lat="41.6904973" lon="3.2061435"><ele>0.0</ele><time>2026-04-30T12:02:07.046Z</time></trkpt><trkpt lat="41.6905703" lon="3.2063632"><ele>0.0</ele><time>2026-04-30T12:02:09.047Z</time></trkpt><trkpt lat="41.6906098" lon="3.2064755"><ele>0.0</ele><time>2026-04-30T12:02:10.046Z</time></trkpt><trkpt lat="41.6906467" lon="3.2065871"><ele>0.0</ele><time>2026-04-30T12:02:11.046Z</time></trkpt><trkpt lat="41.6906833" lon="3.2067022"><ele>0.0</ele><time>2026-04-30T12:02:12.046Z</time></trkpt><trkpt lat="41.6907182" lon="3.206813"><ele>0.0</ele><time>2026-04-30T12:02:13.047Z</time></trkpt><trkpt lat="41.6907532" lon="3.2069216"><ele>0.0</ele><time>2026-04-30T12:02:14.046Z</time></trkpt><trkpt lat="41.6907882" lon="3.2070299"><ele>0.0</ele><time>2026-04-30T12:02:15.047Z</time></trkpt><trkpt lat="41.6908209" lon="3.207134"><ele>0.0</ele><time>2026-04-30T12:02:16.046Z</time></trkpt><trkpt lat="41.690855" lon="3.2072431"><ele>0.0</ele><time>2026-04-30T12:02:17.046Z</time></trkpt><trkpt lat="41.6908902" lon="3.2073518"><ele>0.0</ele><time>2026-04-30T12:02:18.047Z</time></trkpt><trkpt lat="41.6909282" lon="3.2074628"><ele>0.0</ele><time>2026-04-30T12:02:19.047Z</time></trkpt><trkpt lat="41.6909635" lon="3.2075717"><ele>0.0</ele><time>2026-04-30T12:02:20.046Z</time></trkpt><trkpt lat="41.6909968" lon="3.2076799"><ele>0.0</ele><time>2026-04-30T12:02:21.046Z</time></trkpt><trkpt lat="41.6910304" lon="3.2077897"><ele>0.0</ele><time>2026-04-30T12:02:22.046Z</time></trkpt><trkpt lat="41.691065" lon="3.2079014"><ele>0.0</ele><time>2026-04-30T12:02:23.046Z</time></trkpt><trkpt lat="41.6910985" lon="3.2080116"><ele>0.0</ele><time>2026-04-30T12:02:24.046Z</time></trkpt><trkpt lat="41.6911347" lon="3.2081216"><ele>0.0</ele><time>2026-04-30T12:02:25.046Z</time></trkpt><trkpt lat="41.6911673" lon="3.208223"><ele>0.0</ele><time>2026-04-30T12:02:26.047Z</time></trkpt><trkpt lat="41.6911958" lon="3.2083247"><ele>0.0</ele><time>2026-04-30T12:02:27.046Z</time></trkpt><trkpt lat="41.6912598" lon="3.208546"><ele>0.0</ele><time>2026-04-30T12:02:29.046Z</time></trkpt><trkpt lat="41.6912947" lon="3.2086567"><ele>0.0</ele><time>2026-04-30T12:02:30.046Z</time></trkpt><trkpt lat="41.6913318" lon="3.2087635"><ele>0.0</ele><time>2026-04-30T12:02:31.047Z</time></trkpt><trkpt lat="41.6913668" lon="3.20887"><ele>0.0</ele><time>2026-04-30T12:02:32.047Z</time></trkpt><trkpt lat="41.6914018" lon="3.2089767"><ele>0.0</ele><time>2026-04-30T12:02:33.047Z</time></trkpt><trkpt lat="41.691435" lon="3.209088"><ele>0.0</ele><time>2026-04-30T12:02:34.046Z</time></trkpt><trkpt lat="41.69147" lon="3.2091984"><ele>0.0</ele><time>2026-04-30T12:02:35.047Z</time></trkpt><trkpt lat="41.691505" lon="3.2093113"><ele>0.0</ele><time>2026-04-30T12:02:36.047Z</time></trkpt><trkpt lat="41.6915415" lon="3.2094233"><ele>0.0</ele><time>2026-04-30T12:02:37.047Z</time></trkpt><trkpt lat="41.6915751" lon="3.2095351"><ele>0.0</ele><time>2026-04-30T12:02:38.046Z</time></trkpt><trkpt lat="41.6916055" lon="3.2096436"><ele>0.0</ele><time>2026-04-30T12:02:39.047Z</time></trkpt><trkpt lat="41.6916369" lon="3.2097518"><ele>0.0</ele><time>2026-04-30T12:02:40.046Z</time></trkpt><trkpt lat="41.69167" lon="3.2098603"><ele>0.0</ele><time>2026-04-30T12:02:41.046Z</time></trkpt><trkpt lat="41.691705" lon="3.2099686"><ele>0.0</ele><time>2026-04-30T12:02:42.047Z</time></trkpt><trkpt lat="41.6917372" lon="3.2100755"><ele>0.0</ele><time>2026-04-30T12:02:43.047Z</time></trkpt><trkpt lat="41.6917721" lon="3.2101803"><ele>0.0</ele><time>2026-04-30T12:02:44.047Z</time></trkpt><trkpt lat="41.6918082" lon="3.2102896"><ele>0.0</ele><time>2026-04-30T12:02:45.046Z</time></trkpt><trkpt lat="41.6918446" lon="3.2104012"><ele>0.0</ele><time>2026-04-30T12:02:46.046Z</time></trkpt><trkpt lat="41.6918784" lon="3.2105115"><ele>0.0</ele><time>2026-04-30T12:02:47.046Z</time></trkpt><trkpt lat="41.6919119" lon="3.2106215"><ele>0.0</ele><time>2026-04-30T12:02:48.047Z</time></trkpt><trkpt lat="41.6919788" lon="3.2108384"><ele>0.0</ele><time>2026-04-30T12:02:50.047Z</time></trkpt><trkpt lat="41.6920118" lon="3.2109499"><ele>0.0</ele><time>2026-04-30T12:02:51.046Z</time></trkpt><trkpt lat="41.6920436" lon="3.2110629"><ele>0.0</ele><time>2026-04-30T12:02:52.046Z</time></trkpt><trkpt lat="41.6920767" lon="3.2111719"><ele>0.0</ele><time>2026-04-30T12:02:53.047Z</time></trkpt><trkpt lat="41.6921099" lon="3.2112829"><ele>0.0</ele><time>2026-04-30T12:02:54.046Z</time></trkpt><trkpt lat="41.6921467" lon="3.2113961"><ele>0.0</ele><time>2026-04-30T12:02:55.046Z</time></trkpt><trkpt lat="41.6921803" lon="3.2115053"><ele>0.0</ele><time>2026-04-30T12:02:56.047Z</time></trkpt><trkpt lat="41.6922152" lon="3.2116161"><ele>0.0</ele><time>2026-04-30T12:02:57.046Z</time></trkpt><trkpt lat="41.6922502" lon="3.211725"><ele>0.0</ele><time>2026-04-30T12:02:58.046Z</time></trkpt><trkpt lat="41.6922819" lon="3.2118348"><ele>0.0</ele><time>2026-04-30T12:02:59.046Z</time></trkpt><trkpt lat="41.6923167" lon="3.2119449"><ele>0.0</ele><time>2026-04-30T12:03:00.046Z</time></trkpt><trkpt lat="41.692349" lon="3.2120435"><ele>0.0</ele><time>2026-04-30T12:03:01.047Z</time></trkpt><trkpt lat="41.6924168" lon="3.2122568"><ele>0.0</ele><time>2026-04-30T12:03:03.046Z</time></trkpt><trkpt lat="41.6924518" lon="3.2123648"><ele>0.0</ele><time>2026-04-30T12:03:04.046Z</time></trkpt><trkpt lat="41.6924882" lon="3.2124717"><ele>0.0</ele><time>2026-04-30T12:03:05.047Z</time></trkpt><trkpt lat="41.6925217" lon="3.2125796"><ele>0.0</ele><time>2026-04-30T12:03:06.047Z</time></trkpt><trkpt lat="41.6925547" lon="3.2126899"><ele>0.0</ele><time>2026-04-30T12:03:07.046Z</time></trkpt><trkpt lat="41.6925897" lon="3.2128"><ele>0.0</ele><time>2026-04-30T12:03:08.046Z</time></trkpt><trkpt lat="41.6926264" lon="3.2129101"><ele>0.0</ele><time>2026-04-30T12:03:09.046Z</time></trkpt><trkpt lat="41.6926997" lon="3.2131303"><ele>0.0</ele><time>2026-04-30T12:03:11.046Z</time></trkpt><trkpt lat="41.6927366" lon="3.2132399"><ele>0.0</ele><time>2026-04-30T12:03:12.046Z</time></trkpt><trkpt lat="41.6927704" lon="3.213344"><ele>0.0</ele><time>2026-04-30T12:03:13.046Z</time></trkpt><trkpt lat="41.6928037" lon="3.2134474"><ele>0.0</ele><time>2026-04-30T12:03:14.047Z</time></trkpt><trkpt lat="41.6928414" lon="3.2135593"><ele>0.0</ele><time>2026-04-30T12:03:15.046Z</time></trkpt><trkpt lat="41.6928778" lon="3.2136717"><ele>0.0</ele><time>2026-04-30T12:03:16.047Z</time></trkpt><trkpt lat="41.6929132" lon="3.2137789"><ele>0.0</ele><time>2026-04-30T12:03:17.047Z</time></trkpt><trkpt lat="41.6929514" lon="3.2138883"><ele>0.0</ele><time>2026-04-30T12:03:18.046Z</time></trkpt><trkpt lat="41.6929851" lon="3.2139987"><ele>0.0</ele><time>2026-04-30T12:03:19.046Z</time></trkpt><trkpt lat="41.6930185" lon="3.2141056"><ele>0.0</ele><time>2026-04-30T12:03:20.047Z</time></trkpt><trkpt lat="41.6930515" lon="3.2142168"><ele>0.0</ele><time>2026-04-30T12:03:21.047Z</time></trkpt><trkpt lat="41.6930836" lon="3.2143212"><ele>0.0</ele><time>2026-04-30T12:03:22.046Z</time></trkpt><trkpt lat="41.6931183" lon="3.2144316"><ele>0.0</ele><time>2026-04-30T12:03:23.047Z</time></trkpt><trkpt lat="41.693152" lon="3.214539"><ele>0.0</ele><time>2026-04-30T12:03:24.046Z</time></trkpt><trkpt lat="41.693185" lon="3.2146414"><ele>0.0</ele><time>2026-04-30T12:03:25.046Z</time></trkpt><trkpt lat="41.6932199" lon="3.2147515"><ele>0.0</ele><time>2026-04-30T12:03:26.047Z</time></trkpt><trkpt lat="41.6932551" lon="3.2148599"><ele>0.0</ele><time>2026-04-30T12:03:27.046Z</time></trkpt><trkpt lat="41.6932974" lon="3.214978"><ele>0.0</ele><time>2026-04-30T12:03:28.047Z</time></trkpt><trkpt lat="41.6933366" lon="3.2150878"><ele>0.0</ele><time>2026-04-30T12:03:29.046Z</time></trkpt><trkpt lat="41.6933718" lon="3.215195"><ele>0.0</ele><time>2026-04-30T12:03:30.046Z</time></trkpt><trkpt lat="41.6934468" lon="3.2154083"><ele>0.0</ele><time>2026-04-30T12:03:32.047Z</time></trkpt><trkpt lat="41.6934804" lon="3.2155137"><ele>0.0</ele><time>2026-04-30T12:03:33.047Z</time></trkpt><trkpt lat="41.6935168" lon="3.2156144"><ele>0.0</ele><time>2026-04-30T12:03:34.047Z</time></trkpt><trkpt lat="41.6935537" lon="3.2157154"><ele>0.0</ele><time>2026-04-30T12:03:35.047Z</time></trkpt><trkpt lat="41.69359" lon="3.2158214"><ele>0.0</ele><time>2026-04-30T12:03:36.046Z</time></trkpt><trkpt lat="41.6936269" lon="3.2159309"><ele>0.0</ele><time>2026-04-30T12:03:37.046Z</time></trkpt><trkpt lat="41.6936618" lon="3.2160411"><ele>0.0</ele><time>2026-04-30T12:03:38.046Z</time></trkpt><trkpt lat="41.6936967" lon="3.2161516"><ele>0.0</ele><time>2026-04-30T12:03:39.046Z</time></trkpt><trkpt lat="41.6937286" lon="3.2162617"><ele>0.0</ele><time>2026-04-30T12:03:40.047Z</time></trkpt><trkpt lat="41.6937636" lon="3.2163716"><ele>0.0</ele><time>2026-04-30T12:03:41.047Z</time></trkpt><trkpt lat="41.6937967" lon="3.2164815"><ele>0.0</ele><time>2026-04-30T12:03:42.047Z</time></trkpt><trkpt lat="41.6938285" lon="3.2165929"><ele>0.0</ele><time>2026-04-30T12:03:43.047Z</time></trkpt><trkpt lat="41.6938617" lon="3.2167045"><ele>0.0</ele><time>2026-04-30T12:03:44.046Z</time></trkpt><trkpt lat="41.6938967" lon="3.2168165"><ele>0.0</ele><time>2026-04-30T12:03:45.047Z</time></trkpt><trkpt lat="41.6939319" lon="3.2169267"><ele>0.0</ele><time>2026-04-30T12:03:46.047Z</time></trkpt><trkpt lat="41.6939652" lon="3.2170351"><ele>0.0</ele><time>2026-04-30T12:03:47.046Z</time></trkpt><trkpt lat="41.6939985" lon="3.2171421"><ele>0.0</ele><time>2026-04-30T12:03:48.046Z</time></trkpt><trkpt lat="41.6940332" lon="3.2172499"><ele>0.0</ele><time>2026-04-30T12:03:49.046Z</time></trkpt><trkpt lat="41.6940685" lon="3.2173584"><ele>0.0</ele><time>2026-04-30T12:03:50.047Z</time></trkpt><trkpt lat="41.6941032" lon="3.2174681"><ele>0.0</ele><time>2026-04-30T12:03:51.047Z</time></trkpt><trkpt lat="41.6941749" lon="3.2176895"><ele>0.0</ele><time>2026-04-30T12:03:53.047Z</time></trkpt><trkpt lat="41.6942118" lon="3.2177967"><ele>0.0</ele><time>2026-04-30T12:03:54.046Z</time></trkpt><trkpt lat="41.6942468" lon="3.2179049"><ele>0.0</ele><time>2026-04-30T12:03:55.047Z</time></trkpt><trkpt lat="41.6942802" lon="3.2180162"><ele>0.0</ele><time>2026-04-30T12:03:56.047Z</time></trkpt><trkpt lat="41.6943169" lon="3.2181265"><ele>0.0</ele><time>2026-04-30T12:03:57.046Z</time></trkpt><trkpt lat="41.694352" lon="3.218238"><ele>0.0</ele><time>2026-04-30T12:03:58.046Z</time></trkpt><trkpt lat="41.6943868" lon="3.2183484"><ele>0.0</ele><time>2026-04-30T12:03:59.046Z</time></trkpt><trkpt lat="41.694425" lon="3.2184582"><ele>0.0</ele><time>2026-04-30T12:04:00.046Z</time></trkpt><trkpt lat="41.6944602" lon="3.2185653"><ele>0.0</ele><time>2026-04-30T12:04:01.046Z</time></trkpt><trkpt lat="41.6944934" lon="3.2186716"><ele>0.0</ele><time>2026-04-30T12:04:02.046Z</time></trkpt><trkpt lat="41.6945282" lon="3.2187798"><ele>0.0</ele><time>2026-04-30T12:04:03.046Z</time></trkpt><trkpt lat="41.6945618" lon="3.2188897"><ele>0.0</ele><time>2026-04-30T12:04:04.046Z</time></trkpt><trkpt lat="41.6945969" lon="3.2189996"><ele>0.0</ele><time>2026-04-30T12:04:05.046Z</time></trkpt><trkpt lat="41.6946703" lon="3.2192089"><ele>0.0</ele><time>2026-04-30T12:04:07.047Z</time></trkpt><trkpt lat="41.6947069" lon="3.2193132"><ele>0.0</ele><time>2026-04-30T12:04:08.047Z</time></trkpt><trkpt lat="41.6947437" lon="3.2194172"><ele>0.0</ele><time>2026-04-30T12:04:09.046Z</time></trkpt><trkpt lat="41.694779" lon="3.2195221"><ele>0.0</ele><time>2026-04-30T12:04:10.047Z</time></trkpt><trkpt lat="41.6948122" lon="3.2196272"><ele>0.0</ele><time>2026-04-30T12:04:11.047Z</time></trkpt><trkpt lat="41.6948455" lon="3.2197337"><ele>0.0</ele><time>2026-04-30T12:04:12.047Z</time></trkpt><trkpt lat="41.6949155" lon="3.2199502"><ele>0.0</ele><time>2026-04-30T12:04:14.047Z</time></trkpt><trkpt lat="41.6949504" lon="3.2200568"><ele>0.0</ele><time>2026-04-30T12:04:15.046Z</time></trkpt><trkpt lat="41.6949867" lon="3.2201666"><ele>0.0</ele><time>2026-04-30T12:04:16.047Z</time></trkpt><trkpt lat="41.6950266" lon="3.2202763"><ele>0.0</ele><time>2026-04-30T12:04:17.047Z</time></trkpt><trkpt lat="41.6950652" lon="3.220383"><ele>0.0</ele><time>2026-04-30T12:04:18.047Z</time></trkpt><trkpt lat="41.6951032" lon="3.2204914"><ele>0.0</ele><time>2026-04-30T12:04:19.046Z</time></trkpt><trkpt lat="41.6951384" lon="3.2205998"><ele>0.0</ele><time>2026-04-30T12:04:20.047Z</time></trkpt><trkpt lat="41.6951764" lon="3.2207093"><ele>0.0</ele><time>2026-04-30T12:04:21.047Z</time></trkpt><trkpt lat="41.6952135" lon="3.2208197"><ele>0.0</ele><time>2026-04-30T12:04:22.046Z</time></trkpt><trkpt lat="41.6952516" lon="3.2209296"><ele>0.0</ele><time>2026-04-30T12:04:23.047Z</time></trkpt><trkpt lat="41.6952884" lon="3.2210368"><ele>0.0</ele><time>2026-04-30T12:04:24.046Z</time></trkpt><trkpt lat="41.6953268" lon="3.2211433"><ele>0.0</ele><time>2026-04-30T12:04:25.046Z</time></trkpt><trkpt lat="41.6953652" lon="3.2212483"><ele>0.0</ele><time>2026-04-30T12:04:26.046Z</time></trkpt><trkpt lat="41.6954018" lon="3.2213578"><ele>0.0</ele><time>2026-04-30T12:04:27.046Z</time></trkpt><trkpt lat="41.69544" lon="3.2214695"><ele>0.0</ele><time>2026-04-30T12:04:28.046Z</time></trkpt><trkpt lat="41.695474" lon="3.2215756"><ele>0.0</ele><time>2026-04-30T12:04:29.046Z</time></trkpt><trkpt lat="41.6955057" lon="3.221679"><ele>0.0</ele><time>2026-04-30T12:04:30.047Z</time></trkpt><trkpt lat="41.6955402" lon="3.2217852"><ele>0.0</ele><time>2026-04-30T12:04:31.047Z</time></trkpt><trkpt lat="41.6955751" lon="3.2218918"><ele>0.0</ele><time>2026-04-30T12:04:32.047Z</time></trkpt><trkpt lat="41.6956131" lon="3.2219998"><ele>0.0</ele><time>2026-04-30T12:04:33.046Z</time></trkpt><trkpt lat="41.6956866" lon="3.2222148"><ele>0.0</ele><time>2026-04-30T12:04:35.046Z</time></trkpt><trkpt lat="41.6957236" lon="3.22232"><ele>0.0</ele><time>2026-04-30T12:04:36.047Z</time></trkpt><trkpt lat="41.6957603" lon="3.2224265"><ele>0.0</ele><time>2026-04-30T12:04:37.046Z</time></trkpt><trkpt lat="41.6957938" lon="3.2225307"><ele>0.0</ele><time>2026-04-30T12:04:38.046Z</time></trkpt><trkpt lat="41.6958301" lon="3.2226352"><ele>0.0</ele><time>2026-04-30T12:04:39.047Z</time></trkpt><trkpt lat="41.6958686" lon="3.2227386"><ele>0.0</ele><time>2026-04-30T12:04:40.046Z</time></trkpt><trkpt lat="41.6959032" lon="3.2228451"><ele>0.0</ele><time>2026-04-30T12:04:41.047Z</time></trkpt><trkpt lat="41.6959356" lon="3.2229547"><ele>0.0</ele><time>2026-04-30T12:04:42.047Z</time></trkpt><trkpt lat="41.6959689" lon="3.2230648"><ele>0.0</ele><time>2026-04-30T12:04:43.046Z</time></trkpt><trkpt lat="41.6960036" lon="3.2231733"><ele>0.0</ele><time>2026-04-30T12:04:44.046Z</time></trkpt><trkpt lat="41.6960372" lon="3.2232817"><ele>0.0</ele><time>2026-04-30T12:04:45.046Z</time></trkpt><trkpt lat="41.696065" lon="3.2233926"><ele>0.0</ele><time>2026-04-30T12:04:46.046Z</time></trkpt><trkpt lat="41.6960971" lon="3.2235029"><ele>0.0</ele><time>2026-04-30T12:04:47.047Z</time></trkpt><trkpt lat="41.6961305" lon="3.2236119"><ele>0.0</ele><time>2026-04-30T12:04:48.046Z</time></trkpt><trkpt lat="41.6961634" lon="3.2237219"><ele>0.0</ele><time>2026-04-30T12:04:49.046Z</time></trkpt><trkpt lat="41.6962001" lon="3.2238299"><ele>0.0</ele><time>2026-04-30T12:04:50.047Z</time></trkpt><trkpt lat="41.6962335" lon="3.2239384"><ele>0.0</ele><time>2026-04-30T12:04:51.046Z</time></trkpt><trkpt lat="41.6962683" lon="3.2240481"><ele>0.0</ele><time>2026-04-30T12:04:52.047Z</time></trkpt><trkpt lat="41.6963067" lon="3.2241534"><ele>0.0</ele><time>2026-04-30T12:04:53.046Z</time></trkpt><trkpt lat="41.6963433" lon="3.2242626"><ele>0.0</ele><time>2026-04-30T12:04:54.046Z</time></trkpt><trkpt lat="41.6964201" lon="3.2244847"><ele>0.0</ele><time>2026-04-30T12:04:56.046Z</time></trkpt><trkpt lat="41.6964554" lon="3.2245918"><ele>0.0</ele><time>2026-04-30T12:04:57.047Z</time></trkpt><trkpt lat="41.6964876" lon="3.2246999"><ele>0.0</ele><time>2026-04-30T12:04:58.046Z</time></trkpt><trkpt lat="41.6965222" lon="3.2248068"><ele>0.0</ele><time>2026-04-30T12:04:59.046Z</time></trkpt><trkpt lat="41.6965586" lon="3.2249136"><ele>0.0</ele><time>2026-04-30T12:05:00.046Z</time></trkpt><trkpt lat="41.6965937" lon="3.2250215"><ele>0.0</ele><time>2026-04-30T12:05:01.046Z</time></trkpt><trkpt lat="41.6966274" lon="3.2251315"><ele>0.0</ele><time>2026-04-30T12:05:02.046Z</time></trkpt><trkpt lat="41.6966617" lon="3.2252384"><ele>0.0</ele><time>2026-04-30T12:05:03.047Z</time></trkpt><trkpt lat="41.6966968" lon="3.2253467"><ele>0.0</ele><time>2026-04-30T12:05:04.046Z</time></trkpt><trkpt lat="41.6967319" lon="3.2254522"><ele>0.0</ele><time>2026-04-30T12:05:05.046Z</time></trkpt><trkpt lat="41.6967642" lon="3.2255584"><ele>0.0</ele><time>2026-04-30T12:05:06.047Z</time></trkpt><trkpt lat="41.6967939" lon="3.2256639"><ele>0.0</ele><time>2026-04-30T12:05:07.046Z</time></trkpt><trkpt lat="41.6968268" lon="3.22577"><ele>0.0</ele><time>2026-04-30T12:05:08.047Z</time></trkpt><trkpt lat="41.6968964" lon="3.2259862"><ele>0.0</ele><time>2026-04-30T12:05:10.046Z</time></trkpt><trkpt lat="41.6969329" lon="3.2260976"><ele>0.0</ele><time>2026-04-30T12:05:11.046Z</time></trkpt><trkpt lat="41.6969698" lon="3.2262094"><ele>0.0</ele><time>2026-04-30T12:05:12.046Z</time></trkpt><trkpt lat="41.697003" lon="3.2263199"><ele>0.0</ele><time>2026-04-30T12:05:13.047Z</time></trkpt><trkpt lat="41.697037" lon="3.2264268"><ele>0.0</ele><time>2026-04-30T12:05:14.046Z</time></trkpt><trkpt lat="41.6970701" lon="3.2265334"><ele>0.0</ele><time>2026-04-30T12:05:15.046Z</time></trkpt><trkpt lat="41.6971385" lon="3.2267439"><ele>0.0</ele><time>2026-04-30T12:05:17.047Z</time></trkpt><trkpt lat="41.6971734" lon="3.2268502"><ele>0.0</ele><time>2026-04-30T12:05:18.046Z</time></trkpt><trkpt lat="41.6972115" lon="3.2269567"><ele>0.0</ele><time>2026-04-30T12:05:19.046Z</time></trkpt><trkpt lat="41.6972498" lon="3.227062"><ele>0.0</ele><time>2026-04-30T12:05:20.047Z</time></trkpt><trkpt lat="41.6972853" lon="3.2271697"><ele>0.0</ele><time>2026-04-30T12:05:21.046Z</time></trkpt><trkpt lat="41.6973214" lon="3.2272749"><ele>0.0</ele><time>2026-04-30T12:05:22.047Z</time></trkpt><trkpt lat="41.6973551" lon="3.2273832"><ele>0.0</ele><time>2026-04-30T12:05:23.046Z</time></trkpt><trkpt lat="41.6973916" lon="3.2274916"><ele>0.0</ele><time>2026-04-30T12:05:24.047Z</time></trkpt><trkpt lat="41.6974283" lon="3.2275996"><ele>0.0</ele><time>2026-04-30T12:05:25.047Z</time></trkpt><trkpt lat="41.6974652" lon="3.2277083"><ele>0.0</ele><time>2026-04-30T12:05:26.046Z</time></trkpt><trkpt lat="41.6975" lon="3.2278154"><ele>0.0</ele><time>2026-04-30T12:05:27.047Z</time></trkpt><trkpt lat="41.6975366" lon="3.2279228"><ele>0.0</ele><time>2026-04-30T12:05:28.047Z</time></trkpt><trkpt lat="41.6975732" lon="3.2280345"><ele>0.0</ele><time>2026-04-30T12:05:29.047Z</time></trkpt><trkpt lat="41.6976084" lon="3.2281431"><ele>0.0</ele><time>2026-04-30T12:05:30.047Z</time></trkpt><trkpt lat="41.6976421" lon="3.2282501"><ele>0.0</ele><time>2026-04-30T12:05:31.046Z</time></trkpt><trkpt lat="41.6976782" lon="3.2283595"><ele>0.0</ele><time>2026-04-30T12:05:32.046Z</time></trkpt><trkpt lat="41.6977149" lon="3.2284712"><ele>0.0</ele><time>2026-04-30T12:05:33.047Z</time></trkpt><trkpt lat="41.6977502" lon="3.2285785"><ele>0.0</ele><time>2026-04-30T12:05:34.046Z</time></trkpt><trkpt lat="41.6977835" lon="3.2286852"><ele>0.0</ele><time>2026-04-30T12:05:35.047Z</time></trkpt><trkpt lat="41.6978184" lon="3.2287931"><ele>0.0</ele><time>2026-04-30T12:05:36.046Z</time></trkpt><trkpt lat="41.697887" lon="3.2290036"><ele>0.0</ele><time>2026-04-30T12:05:38.047Z</time></trkpt><trkpt lat="41.6979218" lon="3.2291101"><ele>0.0</ele><time>2026-04-30T12:05:39.047Z</time></trkpt><trkpt lat="41.6979582" lon="3.2292168"><ele>0.0</ele><time>2026-04-30T12:05:40.047Z</time></trkpt><trkpt lat="41.6980318" lon="3.2294319"><ele>0.0</ele><time>2026-04-30T12:05:42.047Z</time></trkpt><trkpt lat="41.6980715" lon="3.2295398"><ele>0.0</ele><time>2026-04-30T12:05:43.046Z</time></trkpt><trkpt lat="41.698107" lon="3.2296453"><ele>0.0</ele><time>2026-04-30T12:05:44.047Z</time></trkpt><trkpt lat="41.6981419" lon="3.2297504"><ele>0.0</ele><time>2026-04-30T12:05:45.046Z</time></trkpt><trkpt lat="41.6981785" lon="3.2298583"><ele>0.0</ele><time>2026-04-30T12:05:46.046Z</time></trkpt><trkpt lat="41.6982149" lon="3.2299667"><ele>0.0</ele><time>2026-04-30T12:05:47.046Z</time></trkpt><trkpt lat="41.6982501" lon="3.230072"><ele>0.0</ele><time>2026-04-30T12:05:48.047Z</time></trkpt><trkpt lat="41.6982867" lon="3.2301783"><ele>0.0</ele><time>2026-04-30T12:05:49.047Z</time></trkpt><trkpt lat="41.6983235" lon="3.2302851"><ele>0.0</ele><time>2026-04-30T12:05:50.046Z</time></trkpt><trkpt lat="41.698362" lon="3.2303874"><ele>0.0</ele><time>2026-04-30T12:05:51.046Z</time></trkpt><trkpt lat="41.6983986" lon="3.2304919"><ele>0.0</ele><time>2026-04-30T12:05:52.046Z</time></trkpt><trkpt lat="41.6984352" lon="3.2305999"><ele>0.0</ele><time>2026-04-30T12:05:53.046Z</time></trkpt><trkpt lat="41.6984749" lon="3.2307083"><ele>0.0</ele><time>2026-04-30T12:05:54.046Z</time></trkpt><trkpt lat="41.6985148" lon="3.2308165"><ele>0.0</ele><time>2026-04-30T12:05:55.047Z</time></trkpt><trkpt lat="41.6985534" lon="3.2309233"><ele>0.0</ele><time>2026-04-30T12:05:56.046Z</time></trkpt><trkpt lat="41.6985902" lon="3.2310312"><ele>0.0</ele><time>2026-04-30T12:05:57.047Z</time></trkpt><trkpt lat="41.698662" lon="3.231245"><ele>0.0</ele><time>2026-04-30T12:05:59.046Z</time></trkpt><trkpt lat="41.6986984" lon="3.2313529"><ele>0.0</ele><time>2026-04-30T12:06:00.046Z</time></trkpt><trkpt lat="41.6987367" lon="3.2314597"><ele>0.0</ele><time>2026-04-30T12:06:01.046Z</time></trkpt><trkpt lat="41.6987751" lon="3.2315679"><ele>0.0</ele><time>2026-04-30T12:06:02.047Z</time></trkpt><trkpt lat="41.6988137" lon="3.2316749"><ele>0.0</ele><time>2026-04-30T12:06:03.046Z</time></trkpt><trkpt lat="41.6988502" lon="3.2317833"><ele>0.0</ele><time>2026-04-30T12:06:04.047Z</time></trkpt><trkpt lat="41.6988835" lon="3.2318903"><ele>0.0</ele><time>2026-04-30T12:06:05.047Z</time></trkpt><trkpt lat="41.6989168" lon="3.2319968"><ele>0.0</ele><time>2026-04-30T12:06:06.047Z</time></trkpt><trkpt lat="41.6989518" lon="3.2321063"><ele>0.0</ele><time>2026-04-30T12:06:07.046Z</time></trkpt><trkpt lat="41.6989884" lon="3.2322133"><ele>0.0</ele><time>2026-04-30T12:06:08.046Z</time></trkpt><trkpt lat="41.6990219" lon="3.2323217"><ele>0.0</ele><time>2026-04-30T12:06:09.046Z</time></trkpt><trkpt lat="41.6990568" lon="3.2324299"><ele>0.0</ele><time>2026-04-30T12:06:10.046Z</time></trkpt><trkpt lat="41.6990919" lon="3.2325382"><ele>0.0</ele><time>2026-04-30T12:06:11.046Z</time></trkpt><trkpt lat="41.6991268" lon="3.2326466"><ele>0.0</ele><time>2026-04-30T12:06:12.047Z</time></trkpt><trkpt lat="41.6991618" lon="3.2327549"><ele>0.0</ele><time>2026-04-30T12:06:13.047Z</time></trkpt><trkpt lat="41.6991968" lon="3.2328618"><ele>0.0</ele><time>2026-04-30T12:06:14.047Z</time></trkpt><trkpt lat="41.6992318" lon="3.2329699"><ele>0.0</ele><time>2026-04-30T12:06:15.047Z</time></trkpt><trkpt lat="41.699267" lon="3.233078"><ele>0.0</ele><time>2026-04-30T12:06:16.047Z</time></trkpt><trkpt lat="41.6993049" lon="3.2331879"><ele>0.0</ele><time>2026-04-30T12:06:17.046Z</time></trkpt><trkpt lat="41.6993418" lon="3.2332978"><ele>0.0</ele><time>2026-04-30T12:06:18.047Z</time></trkpt><trkpt lat="41.6994102" lon="3.2335165"><ele>0.0</ele><time>2026-04-30T12:06:20.047Z</time></trkpt><trkpt lat="41.6994466" lon="3.2336251"><ele>0.0</ele><time>2026-04-30T12:06:21.046Z</time></trkpt><trkpt lat="41.6994802" lon="3.2337321"><ele>0.0</ele><time>2026-04-30T12:06:22.047Z</time></trkpt><trkpt lat="41.6995134" lon="3.2338384"><ele>0.0</ele><time>2026-04-30T12:06:23.047Z</time></trkpt><trkpt lat="41.6995515" lon="3.2339465"><ele>0.0</ele><time>2026-04-30T12:06:24.046Z</time></trkpt><trkpt lat="41.699587" lon="3.2340548"><ele>0.0</ele><time>2026-04-30T12:06:25.047Z</time></trkpt><trkpt lat="41.6996219" lon="3.2341632"><ele>0.0</ele><time>2026-04-30T12:06:26.046Z</time></trkpt><trkpt lat="41.6996567" lon="3.2342731"><ele>0.0</ele><time>2026-04-30T12:06:27.046Z</time></trkpt><trkpt lat="41.699692" lon="3.2343785"><ele>0.0</ele><time>2026-04-30T12:06:28.046Z</time></trkpt><trkpt lat="41.6997269" lon="3.234488"><ele>0.0</ele><time>2026-04-30T12:06:29.046Z</time></trkpt><trkpt lat="41.6997617" lon="3.2345983"><ele>0.0</ele><time>2026-04-30T12:06:30.047Z</time></trkpt><trkpt lat="41.6997982" lon="3.2347067"><ele>0.0</ele><time>2026-04-30T12:06:31.046Z</time></trkpt><trkpt lat="41.6998323" lon="3.2348134"><ele>0.0</ele><time>2026-04-30T12:06:32.045Z</time></trkpt><trkpt lat="41.6998683" lon="3.2349216"><ele>0.0</ele><time>2026-04-30T12:06:33.046Z</time></trkpt><trkpt lat="41.6999032" lon="3.2350328"><ele>0.0</ele><time>2026-04-30T12:06:34.046Z</time></trkpt><trkpt lat="41.6999398" lon="3.2351415"><ele>0.0</ele><time>2026-04-30T12:06:35.046Z</time></trkpt><trkpt lat="41.6999734" lon="3.23525"><ele>0.0</ele><time>2026-04-30T12:06:36.045Z</time></trkpt><trkpt lat="41.7000084" lon="3.2353582"><ele>0.0</ele><time>2026-04-30T12:06:37.045Z</time></trkpt><trkpt lat="41.7000434" lon="3.2354637"><ele>0.0</ele><time>2026-04-30T12:06:38.046Z</time></trkpt><trkpt lat="41.7000784" lon="3.2355716"><ele>0.0</ele><time>2026-04-30T12:06:39.046Z</time></trkpt><trkpt lat="41.7001465" lon="3.2357866"><ele>0.0</ele><time>2026-04-30T12:06:41.046Z</time></trkpt><trkpt lat="41.7001816" lon="3.2358966"><ele>0.0</ele><time>2026-04-30T12:06:42.046Z</time></trkpt><trkpt lat="41.7002169" lon="3.2360065"><ele>0.0</ele><time>2026-04-30T12:06:43.046Z</time></trkpt><trkpt lat="41.7002549" lon="3.2361164"><ele>0.0</ele><time>2026-04-30T12:06:44.045Z</time></trkpt><trkpt lat="41.7002885" lon="3.2362237"><ele>0.0</ele><time>2026-04-30T12:06:45.046Z</time></trkpt><trkpt lat="41.7003233" lon="3.2363299"><ele>0.0</ele><time>2026-04-30T12:06:46.046Z</time></trkpt><trkpt lat="41.7003552" lon="3.2364398"><ele>0.0</ele><time>2026-04-30T12:06:47.046Z</time></trkpt><trkpt lat="41.7003885" lon="3.2365482"><ele>0.0</ele><time>2026-04-30T12:06:48.046Z</time></trkpt><trkpt lat="41.7004217" lon="3.2366597"><ele>0.0</ele><time>2026-04-30T12:06:49.045Z</time></trkpt><trkpt lat="41.7004553" lon="3.23677"><ele>0.0</ele><time>2026-04-30T12:06:50.046Z</time></trkpt><trkpt lat="41.7004885" lon="3.2368799"><ele>0.0</ele><time>2026-04-30T12:06:51.046Z</time></trkpt><trkpt lat="41.7005217" lon="3.2369901"><ele>0.0</ele><time>2026-04-30T12:06:52.045Z</time></trkpt><trkpt lat="41.7005552" lon="3.2370972"><ele>0.0</ele><time>2026-04-30T12:06:53.046Z</time></trkpt><trkpt lat="41.7005902" lon="3.2372051"><ele>0.0</ele><time>2026-04-30T12:06:54.046Z</time></trkpt><trkpt lat="41.7006235" lon="3.2373121"><ele>0.0</ele><time>2026-04-30T12:06:55.045Z</time></trkpt><trkpt lat="41.7006602" lon="3.2374201"><ele>0.0</ele><time>2026-04-30T12:06:56.045Z</time></trkpt><trkpt lat="41.7006952" lon="3.237527"><ele>0.0</ele><time>2026-04-30T12:06:57.046Z</time></trkpt><trkpt lat="41.7007304" lon="3.2376321"><ele>0.0</ele><time>2026-04-30T12:06:58.046Z</time></trkpt><trkpt lat="41.7007635" lon="3.2377401"><ele>0.0</ele><time>2026-04-30T12:06:59.045Z</time></trkpt><trkpt lat="41.7007985" lon="3.2378469"><ele>0.0</ele><time>2026-04-30T12:07:00.045Z</time></trkpt><trkpt lat="41.7008697" lon="3.2380787"><ele>0.0</ele><time>2026-04-30T12:07:02.046Z</time></trkpt><trkpt lat="41.7009079" lon="3.2381909"><ele>0.0</ele><time>2026-04-30T12:07:03.045Z</time></trkpt><trkpt lat="41.7009431" lon="3.238304"><ele>0.0</ele><time>2026-04-30T12:07:04.046Z</time></trkpt><trkpt lat="41.7009781" lon="3.2384145"><ele>0.0</ele><time>2026-04-30T12:07:05.046Z</time></trkpt><trkpt lat="41.7010118" lon="3.2385232"><ele>0.0</ele><time>2026-04-30T12:07:06.045Z</time></trkpt><trkpt lat="41.7010466" lon="3.238633"><ele>0.0</ele><time>2026-04-30T12:07:07.045Z</time></trkpt><trkpt lat="41.7010816" lon="3.238743"><ele>0.0</ele><time>2026-04-30T12:07:08.045Z</time></trkpt><trkpt lat="41.7011184" lon="3.2388516"><ele>0.0</ele><time>2026-04-30T12:07:09.045Z</time></trkpt><trkpt lat="41.7011535" lon="3.2389585"><ele>0.0</ele><time>2026-04-30T12:07:10.046Z</time></trkpt><trkpt lat="41.7011839" lon="3.2390657"><ele>0.0</ele><time>2026-04-30T12:07:11.045Z</time></trkpt><trkpt lat="41.7012136" lon="3.2391652"><ele>0.0</ele><time>2026-04-30T12:07:12.045Z</time></trkpt><trkpt lat="41.7012469" lon="3.2392691"><ele>0.0</ele><time>2026-04-30T12:07:13.045Z</time></trkpt><trkpt lat="41.7012818" lon="3.2393767"><ele>0.0</ele><time>2026-04-30T12:07:14.045Z</time></trkpt><trkpt lat="41.7013198" lon="3.2394833"><ele>0.0</ele><time>2026-04-30T12:07:15.045Z</time></trkpt><trkpt lat="41.7013919" lon="3.2396988"><ele>0.0</ele><time>2026-04-30T12:07:17.046Z</time></trkpt><trkpt lat="41.7014254" lon="3.239801"><ele>0.0</ele><time>2026-04-30T12:07:18.046Z</time></trkpt><trkpt lat="41.7014587" lon="3.2398999"><ele>0.0</ele><time>2026-04-30T12:07:19.046Z</time></trkpt><trkpt lat="41.7014961" lon="3.2400082"><ele>0.0</ele><time>2026-04-30T12:07:20.046Z</time></trkpt><trkpt lat="41.7015313" lon="3.2401296"><ele>0.0</ele><time>2026-04-30T12:07:21.045Z</time></trkpt><trkpt lat="41.7015918" lon="3.2403606"><ele>0.0</ele><time>2026-04-30T12:07:23.045Z</time></trkpt><trkpt lat="41.7016237" lon="3.2404684"><ele>0.0</ele><time>2026-04-30T12:07:24.045Z</time></trkpt><trkpt lat="41.7016572" lon="3.2405753"><ele>0.0</ele><time>2026-04-30T12:07:25.045Z</time></trkpt><trkpt lat="41.7016903" lon="3.2406822"><ele>0.0</ele><time>2026-04-30T12:07:26.046Z</time></trkpt><trkpt lat="41.701721" lon="3.240793"><ele>0.0</ele><time>2026-04-30T12:07:27.046Z</time></trkpt><trkpt lat="41.7017551" lon="3.2409002"><ele>0.0</ele><time>2026-04-30T12:07:28.045Z</time></trkpt><trkpt lat="41.7017899" lon="3.2410082"><ele>0.0</ele><time>2026-04-30T12:07:29.046Z</time></trkpt><trkpt lat="41.7018281" lon="3.2411177"><ele>0.0</ele><time>2026-04-30T12:07:30.045Z</time></trkpt><trkpt lat="41.7018665" lon="3.2412263"><ele>0.0</ele><time>2026-04-30T12:07:31.045Z</time></trkpt><trkpt lat="41.7019046" lon="3.2413376"><ele>0.0</ele><time>2026-04-30T12:07:32.046Z</time></trkpt><trkpt lat="41.701943" lon="3.2414463"><ele>0.0</ele><time>2026-04-30T12:07:33.046Z</time></trkpt><trkpt lat="41.7019815" lon="3.2415577"><ele>0.0</ele><time>2026-04-30T12:07:34.045Z</time></trkpt><trkpt lat="41.7020197" lon="3.2416653"><ele>0.0</ele><time>2026-04-30T12:07:35.045Z</time></trkpt><trkpt lat="41.7020581" lon="3.2417647"><ele>0.0</ele><time>2026-04-30T12:07:36.046Z</time></trkpt><trkpt lat="41.7021007" lon="3.2418676"><ele>0.0</ele><time>2026-04-30T12:07:37.046Z</time></trkpt><trkpt lat="41.7021426" lon="3.2419795"><ele>0.0</ele><time>2026-04-30T12:07:38.045Z</time></trkpt><trkpt lat="41.7021786" lon="3.2420883"><ele>0.0</ele><time>2026-04-30T12:07:39.046Z</time></trkpt><trkpt lat="41.7022066" lon="3.242194"><ele>0.0</ele><time>2026-04-30T12:07:40.046Z</time></trkpt><trkpt lat="41.7022376" lon="3.2423017"><ele>0.0</ele><time>2026-04-30T12:07:41.046Z</time></trkpt><trkpt lat="41.7022692" lon="3.2424096"><ele>0.0</ele><time>2026-04-30T12:07:42.046Z</time></trkpt><trkpt lat="41.702339" lon="3.2426282"><ele>0.0</ele><time>2026-04-30T12:07:44.046Z</time></trkpt><trkpt lat="41.7023736" lon="3.2427381"><ele>0.0</ele><time>2026-04-30T12:07:45.045Z</time></trkpt><trkpt lat="41.702406" lon="3.2428493"><ele>0.0</ele><time>2026-04-30T12:07:46.045Z</time></trkpt><trkpt lat="41.7024405" lon="3.2429581"><ele>0.0</ele><time>2026-04-30T12:07:47.046Z</time></trkpt><trkpt lat="41.7025115" lon="3.2431806"><ele>0.0</ele><time>2026-04-30T12:07:49.045Z</time></trkpt><trkpt lat="41.7025499" lon="3.2432913"><ele>0.0</ele><time>2026-04-30T12:07:50.045Z</time></trkpt><trkpt lat="41.7025901" lon="3.2433969"><ele>0.0</ele><time>2026-04-30T12:07:51.046Z</time></trkpt><trkpt lat="41.7026254" lon="3.2434992"><ele>0.0</ele><time>2026-04-30T12:07:52.046Z</time></trkpt><trkpt lat="41.7026618" lon="3.2436037"><ele>0.0</ele><time>2026-04-30T12:07:53.046Z</time></trkpt><trkpt lat="41.7026969" lon="3.2437117"><ele>0.0</ele><time>2026-04-30T12:07:54.046Z</time></trkpt><trkpt lat="41.7027323" lon="3.2438212"><ele>0.0</ele><time>2026-04-30T12:07:55.045Z</time></trkpt><trkpt lat="41.7027685" lon="3.2439325"><ele>0.0</ele><time>2026-04-30T12:07:56.046Z</time></trkpt><trkpt lat="41.7028082" lon="3.2440415"><ele>0.0</ele><time>2026-04-30T12:07:57.046Z</time></trkpt><trkpt lat="41.7028437" lon="3.2441471"><ele>0.0</ele><time>2026-04-30T12:07:58.045Z</time></trkpt><trkpt lat="41.702883" lon="3.244255"><ele>0.0</ele><time>2026-04-30T12:07:59.046Z</time></trkpt><trkpt lat="41.7029201" lon="3.2443618"><ele>0.0</ele><time>2026-04-30T12:08:00.045Z</time></trkpt><trkpt lat="41.7029579" lon="3.2444684"><ele>0.0</ele><time>2026-04-30T12:08:01.045Z</time></trkpt><trkpt lat="41.7030023" lon="3.2445751"><ele>0.0</ele><time>2026-04-30T12:08:02.045Z</time></trkpt><trkpt lat="41.7030456" lon="3.2446818"><ele>0.0</ele><time>2026-04-30T12:08:03.046Z</time></trkpt><trkpt lat="41.7031257" lon="3.2448929"><ele>0.0</ele><time>2026-04-30T12:08:05.046Z</time></trkpt><trkpt lat="41.7031734" lon="3.2449943"><ele>0.0</ele><time>2026-04-30T12:08:06.045Z</time></trkpt><trkpt lat="41.7032129" lon="3.2451018"><ele>0.0</ele><time>2026-04-30T12:08:07.045Z</time></trkpt><trkpt lat="41.7032483" lon="3.2452055"><ele>0.0</ele><time>2026-04-30T12:08:08.046Z</time></trkpt><trkpt lat="41.7032816" lon="3.245319"><ele>0.0</ele><time>2026-04-30T12:08:09.046Z</time></trkpt><trkpt lat="41.7033152" lon="3.2454269"><ele>0.0</ele><time>2026-04-30T12:08:10.046Z</time></trkpt><trkpt lat="41.7033489" lon="3.2455333"><ele>0.0</ele><time>2026-04-30T12:08:11.045Z</time></trkpt><trkpt lat="41.7033823" lon="3.2456414"><ele>0.0</ele><time>2026-04-30T12:08:12.046Z</time></trkpt><trkpt lat="41.7034153" lon="3.2457544"><ele>0.0</ele><time>2026-04-30T12:08:13.045Z</time></trkpt><trkpt lat="41.7034497" lon="3.2458647"><ele>0.0</ele><time>2026-04-30T12:08:14.045Z</time></trkpt><trkpt lat="41.7034833" lon="3.2459693"><ele>0.0</ele><time>2026-04-30T12:08:15.045Z</time></trkpt><trkpt lat="41.7035182" lon="3.2460784"><ele>0.0</ele><time>2026-04-30T12:08:16.045Z</time></trkpt><trkpt lat="41.7035502" lon="3.246187"><ele>0.0</ele><time>2026-04-30T12:08:17.045Z</time></trkpt><trkpt lat="41.7035805" lon="3.2462953"><ele>0.0</ele><time>2026-04-30T12:08:18.046Z</time></trkpt><trkpt lat="41.703612" lon="3.2464079"><ele>0.0</ele><time>2026-04-30T12:08:19.046Z</time></trkpt><trkpt lat="41.7036451" lon="3.246517"><ele>0.0</ele><time>2026-04-30T12:08:20.045Z</time></trkpt><trkpt lat="41.7036769" lon="3.2466267"><ele>0.0</ele><time>2026-04-30T12:08:21.046Z</time></trkpt><trkpt lat="41.7037086" lon="3.2467337"><ele>0.0</ele><time>2026-04-30T12:08:22.046Z</time></trkpt><trkpt lat="41.7037388" lon="3.2468363"><ele>0.0</ele><time>2026-04-30T12:08:23.046Z</time></trkpt><trkpt lat="41.703772" lon="3.2469436"><ele>0.0</ele><time>2026-04-30T12:08:24.045Z</time></trkpt><trkpt lat="41.7038403" lon="3.2471638"><ele>0.0</ele><time>2026-04-30T12:08:26.046Z</time></trkpt><trkpt lat="41.7038768" lon="3.2472715"><ele>0.0</ele><time>2026-04-30T12:08:27.045Z</time></trkpt><trkpt lat="41.70391" lon="3.2473815"><ele>0.0</ele><time>2026-04-30T12:08:28.046Z</time></trkpt><trkpt lat="41.7039451" lon="3.2474872"><ele>0.0</ele><time>2026-04-30T12:08:29.045Z</time></trkpt><trkpt lat="41.7039787" lon="3.247595"><ele>0.0</ele><time>2026-04-30T12:08:30.045Z</time></trkpt><trkpt lat="41.7040117" lon="3.247709"><ele>0.0</ele><time>2026-04-30T12:08:31.046Z</time></trkpt><trkpt lat="41.7040424" lon="3.2478156"><ele>0.0</ele><time>2026-04-30T12:08:32.045Z</time></trkpt><trkpt lat="41.7040753" lon="3.2479265"><ele>0.0</ele><time>2026-04-30T12:08:33.046Z</time></trkpt><trkpt lat="41.7041088" lon="3.2480322"><ele>0.0</ele><time>2026-04-30T12:08:34.046Z</time></trkpt><trkpt lat="41.704145" lon="3.2481416"><ele>0.0</ele><time>2026-04-30T12:08:35.046Z</time></trkpt><trkpt lat="41.7041799" lon="3.2482487"><ele>0.0</ele><time>2026-04-30T12:08:36.046Z</time></trkpt><trkpt lat="41.704215" lon="3.2483536"><ele>0.0</ele><time>2026-04-30T12:08:37.045Z</time></trkpt><trkpt lat="41.7042502" lon="3.2484575"><ele>0.0</ele><time>2026-04-30T12:08:38.045Z</time></trkpt><trkpt lat="41.7042864" lon="3.2485651"><ele>0.0</ele><time>2026-04-30T12:08:39.045Z</time></trkpt><trkpt lat="41.7043236" lon="3.2486689"><ele>0.0</ele><time>2026-04-30T12:08:40.045Z</time></trkpt><trkpt lat="41.7043599" lon="3.2487796"><ele>0.0</ele><time>2026-04-30T12:08:41.045Z</time></trkpt><trkpt lat="41.7043967" lon="3.248885"><ele>0.0</ele><time>2026-04-30T12:08:42.045Z</time></trkpt><trkpt lat="41.70443" lon="3.2489907"><ele>0.0</ele><time>2026-04-30T12:08:43.045Z</time></trkpt><trkpt lat="41.7044677" lon="3.2490987"><ele>0.0</ele><time>2026-04-30T12:08:44.045Z</time></trkpt><trkpt lat="41.7045352" lon="3.2493153"><ele>0.0</ele><time>2026-04-30T12:08:46.045Z</time></trkpt><trkpt lat="41.7045731" lon="3.2494245"><ele>0.0</ele><time>2026-04-30T12:08:47.045Z</time></trkpt><trkpt lat="41.7046086" lon="3.2495274"><ele>0.0</ele><time>2026-04-30T12:08:48.045Z</time></trkpt><trkpt lat="41.7046434" lon="3.2496333"><ele>0.0</ele><time>2026-04-30T12:08:49.045Z</time></trkpt><trkpt lat="41.7046783" lon="3.2497431"><ele>0.0</ele><time>2026-04-30T12:08:50.045Z</time></trkpt><trkpt lat="41.7047136" lon="3.2498515"><ele>0.0</ele><time>2026-04-30T12:08:51.046Z</time></trkpt><trkpt lat="41.7047868" lon="3.2500651"><ele>0.0</ele><time>2026-04-30T12:08:53.046Z</time></trkpt><trkpt lat="41.7048219" lon="3.2501747"><ele>0.0</ele><time>2026-04-30T12:08:54.046Z</time></trkpt><trkpt lat="41.7048569" lon="3.2502832"><ele>0.0</ele><time>2026-04-30T12:08:55.045Z</time></trkpt><trkpt lat="41.7048932" lon="3.2503944"><ele>0.0</ele><time>2026-04-30T12:08:56.045Z</time></trkpt><trkpt lat="41.7049299" lon="3.2504976"><ele>0.0</ele><time>2026-04-30T12:08:57.045Z</time></trkpt><trkpt lat="41.7049633" lon="3.2506053"><ele>0.0</ele><time>2026-04-30T12:08:58.046Z</time></trkpt><trkpt lat="41.7049982" lon="3.2507134"><ele>0.0</ele><time>2026-04-30T12:08:59.045Z</time></trkpt><trkpt lat="41.7050364" lon="3.2508185"><ele>0.0</ele><time>2026-04-30T12:09:00.045Z</time></trkpt><trkpt lat="41.7050736" lon="3.2509235"><ele>0.0</ele><time>2026-04-30T12:09:01.046Z</time></trkpt><trkpt lat="41.7051101" lon="3.2510286"><ele>0.0</ele><time>2026-04-30T12:09:02.046Z</time></trkpt><trkpt lat="41.7051498" lon="3.2511364"><ele>0.0</ele><time>2026-04-30T12:09:03.045Z</time></trkpt><trkpt lat="41.7051894" lon="3.2512508"><ele>0.0</ele><time>2026-04-30T12:09:04.046Z</time></trkpt><trkpt lat="41.7052265" lon="3.2513615"><ele>0.0</ele><time>2026-04-30T12:09:05.046Z</time></trkpt><trkpt lat="41.7052979" lon="3.2515773"><ele>0.0</ele><time>2026-04-30T12:09:07.046Z</time></trkpt><trkpt lat="41.7053331" lon="3.251688"><ele>0.0</ele><time>2026-04-30T12:09:08.046Z</time></trkpt><trkpt lat="41.7053641" lon="3.2517985"><ele>0.0</ele><time>2026-04-30T12:09:09.045Z</time></trkpt><trkpt lat="41.705401" lon="3.2519042"><ele>0.0</ele><time>2026-04-30T12:09:10.045Z</time></trkpt><trkpt lat="41.7054379" lon="3.2520092"><ele>0.0</ele><time>2026-04-30T12:09:11.045Z</time></trkpt><trkpt lat="41.7054813" lon="3.2521125"><ele>0.0</ele><time>2026-04-30T12:09:12.045Z</time></trkpt><trkpt lat="41.7055163" lon="3.2522161"><ele>0.0</ele><time>2026-04-30T12:09:13.045Z</time></trkpt><trkpt lat="41.7055515" lon="3.2523248"><ele>0.0</ele><time>2026-04-30T12:09:14.046Z</time></trkpt><trkpt lat="41.7055852" lon="3.2524391"><ele>0.0</ele><time>2026-04-30T12:09:15.045Z</time></trkpt><trkpt lat="41.7056183" lon="3.2525496"><ele>0.0</ele><time>2026-04-30T12:09:16.045Z</time></trkpt><trkpt lat="41.7056522" lon="3.2526615"><ele>0.0</ele><time>2026-04-30T12:09:17.046Z</time></trkpt><trkpt lat="41.705687" lon="3.2527687"><ele>0.0</ele><time>2026-04-30T12:09:18.046Z</time></trkpt><trkpt lat="41.7057217" lon="3.2528741"><ele>0.0</ele><time>2026-04-30T12:09:19.045Z</time></trkpt><trkpt lat="41.7057554" lon="3.2529802"><ele>0.0</ele><time>2026-04-30T12:09:20.045Z</time></trkpt><trkpt lat="41.7057932" lon="3.2530911"><ele>0.0</ele><time>2026-04-30T12:09:21.046Z</time></trkpt><trkpt lat="41.7058313" lon="3.2532013"><ele>0.0</ele><time>2026-04-30T12:09:22.046Z</time></trkpt><trkpt lat="41.705867" lon="3.2533084"><ele>0.0</ele><time>2026-04-30T12:09:23.046Z</time></trkpt><trkpt lat="41.7059019" lon="3.2534138"><ele>0.0</ele><time>2026-04-30T12:09:24.045Z</time></trkpt><trkpt lat="41.7059371" lon="3.2535159"><ele>0.0</ele><time>2026-04-30T12:09:25.046Z</time></trkpt><trkpt lat="41.7059722" lon="3.2536179"><ele>0.0</ele><time>2026-04-30T12:09:26.045Z</time></trkpt><trkpt lat="41.706054" lon="3.253844"><ele>0.0</ele><time>2026-04-30T12:09:28.046Z</time></trkpt><trkpt lat="41.7060957" lon="3.2539562"><ele>0.0</ele><time>2026-04-30T12:09:29.045Z</time></trkpt><trkpt lat="41.7061306" lon="3.2540636"><ele>0.0</ele><time>2026-04-30T12:09:30.046Z</time></trkpt><trkpt lat="41.7061599" lon="3.2541745"><ele>0.0</ele><time>2026-04-30T12:09:31.045Z</time></trkpt><trkpt lat="41.7061948" lon="3.2542873"><ele>0.0</ele><time>2026-04-30T12:09:32.045Z</time></trkpt><trkpt lat="41.706233" lon="3.2543962"><ele>0.0</ele><time>2026-04-30T12:09:33.046Z</time></trkpt><trkpt lat="41.7062645" lon="3.2545065"><ele>0.0</ele><time>2026-04-30T12:09:34.045Z</time></trkpt><trkpt lat="41.7062917" lon="3.2546068"><ele>0.0</ele><time>2026-04-30T12:09:35.045Z</time></trkpt><trkpt lat="41.7063227" lon="3.2547094"><ele>0.0</ele><time>2026-04-30T12:09:36.045Z</time></trkpt><trkpt lat="41.7063569" lon="3.2548136"><ele>0.0</ele><time>2026-04-30T12:09:37.046Z</time></trkpt><trkpt lat="41.7063934" lon="3.2549228"><ele>0.0</ele><time>2026-04-30T12:09:38.046Z</time></trkpt><trkpt lat="41.7064302" lon="3.2550329"><ele>0.0</ele><time>2026-04-30T12:09:39.046Z</time></trkpt><trkpt lat="41.7064654" lon="3.2551414"><ele>0.0</ele><time>2026-04-30T12:09:40.046Z</time></trkpt><trkpt lat="41.7064987" lon="3.2552484"><ele>0.0</ele><time>2026-04-30T12:09:41.045Z</time></trkpt><trkpt lat="41.7065322" lon="3.2553539"><ele>0.0</ele><time>2026-04-30T12:09:42.046Z</time></trkpt><trkpt lat="41.7065668" lon="3.2554628"><ele>0.0</ele><time>2026-04-30T12:09:43.045Z</time></trkpt><trkpt lat="41.7066035" lon="3.2555674"><ele>0.0</ele><time>2026-04-30T12:09:44.045Z</time></trkpt><trkpt lat="41.7066385" lon="3.2556709"><ele>0.0</ele><time>2026-04-30T12:09:45.045Z</time></trkpt><trkpt lat="41.7066709" lon="3.2557699"><ele>0.0</ele><time>2026-04-30T12:09:46.045Z</time></trkpt><trkpt lat="41.7067054" lon="3.2558808"><ele>0.0</ele><time>2026-04-30T12:09:47.045Z</time></trkpt><trkpt lat="41.7067863" lon="3.2561106"><ele>0.0</ele><time>2026-04-30T12:09:49.046Z</time></trkpt><trkpt lat="41.7068218" lon="3.2562184"><ele>0.0</ele><time>2026-04-30T12:09:50.045Z</time></trkpt><trkpt lat="41.7068571" lon="3.2563236"><ele>0.0</ele><time>2026-04-30T12:09:51.046Z</time></trkpt><trkpt lat="41.7068887" lon="3.2564329"><ele>0.0</ele><time>2026-04-30T12:09:52.046Z</time></trkpt><trkpt lat="41.7069249" lon="3.2565456"><ele>0.0</ele><time>2026-04-30T12:09:53.045Z</time></trkpt><trkpt lat="41.7069588" lon="3.2566565"><ele>0.0</ele><time>2026-04-30T12:09:54.045Z</time></trkpt><trkpt lat="41.7069879" lon="3.2567635"><ele>0.0</ele><time>2026-04-30T12:09:55.046Z</time></trkpt><trkpt lat="41.707055" lon="3.2569769"><ele>0.0</ele><time>2026-04-30T12:09:57.046Z</time></trkpt><trkpt lat="41.7070902" lon="3.257085"><ele>0.0</ele><time>2026-04-30T12:09:58.045Z</time></trkpt><trkpt lat="41.7071269" lon="3.2571905"><ele>0.0</ele><time>2026-04-30T12:09:59.045Z</time></trkpt><trkpt lat="41.7071589" lon="3.2572925"><ele>0.0</ele><time>2026-04-30T12:10:00.045Z</time></trkpt><trkpt lat="41.7071933" lon="3.2573973"><ele>0.0</ele><time>2026-04-30T12:10:01.045Z</time></trkpt><trkpt lat="41.7072282" lon="3.2575024"><ele>0.0</ele><time>2026-04-30T12:10:02.046Z</time></trkpt><trkpt lat="41.7072664" lon="3.257607"><ele>0.0</ele><time>2026-04-30T12:10:03.046Z</time></trkpt><trkpt lat="41.7073031" lon="3.2577106"><ele>0.0</ele><time>2026-04-30T12:10:04.045Z</time></trkpt><trkpt lat="41.7073397" lon="3.2578125"><ele>0.0</ele><time>2026-04-30T12:10:05.046Z</time></trkpt><trkpt lat="41.7073767" lon="3.2579157"><ele>0.0</ele><time>2026-04-30T12:10:06.045Z</time></trkpt><trkpt lat="41.7074148" lon="3.2580231"><ele>0.0</ele><time>2026-04-30T12:10:07.045Z</time></trkpt><trkpt lat="41.7074517" lon="3.2581255"><ele>0.0</ele><time>2026-04-30T12:10:08.045Z</time></trkpt><trkpt lat="41.7075246" lon="3.2583439"><ele>0.0</ele><time>2026-04-30T12:10:10.046Z</time></trkpt><trkpt lat="41.7075659" lon="3.2584544"><ele>0.0</ele><time>2026-04-30T12:10:11.045Z</time></trkpt><trkpt lat="41.7076035" lon="3.2585615"><ele>0.0</ele><time>2026-04-30T12:10:12.046Z</time></trkpt><trkpt lat="41.7076385" lon="3.2586699"><ele>0.0</ele><time>2026-04-30T12:10:13.045Z</time></trkpt><trkpt lat="41.7076735" lon="3.2587782"><ele>0.0</ele><time>2026-04-30T12:10:14.045Z</time></trkpt><trkpt lat="41.7077101" lon="3.2588878"><ele>0.0</ele><time>2026-04-30T12:10:15.046Z</time></trkpt><trkpt lat="41.7077467" lon="3.2589982"><ele>0.0</ele><time>2026-04-30T12:10:16.046Z</time></trkpt><trkpt lat="41.7077833" lon="3.2591054"><ele>0.0</ele><time>2026-04-30T12:10:17.046Z</time></trkpt><trkpt lat="41.7078186" lon="3.259213"><ele>0.0</ele><time>2026-04-30T12:10:18.046Z</time></trkpt><trkpt lat="41.7078563" lon="3.2593269"><ele>0.0</ele><time>2026-04-30T12:10:19.046Z</time></trkpt><trkpt lat="41.7078963" lon="3.2594435"><ele>0.0</ele><time>2026-04-30T12:10:20.046Z</time></trkpt><trkpt lat="41.7079348" lon="3.2595545"><ele>0.0</ele><time>2026-04-30T12:10:21.046Z</time></trkpt><trkpt lat="41.7079763" lon="3.2596688"><ele>0.0</ele><time>2026-04-30T12:10:22.045Z</time></trkpt><trkpt lat="41.7080106" lon="3.2597739"><ele>0.0</ele><time>2026-04-30T12:10:23.045Z</time></trkpt><trkpt lat="41.7080466" lon="3.2598844"><ele>0.0</ele><time>2026-04-30T12:10:24.045Z</time></trkpt><trkpt lat="41.7080874" lon="3.2599933"><ele>0.0</ele><time>2026-04-30T12:10:25.046Z</time></trkpt><trkpt lat="41.7081249" lon="3.2601028"><ele>0.0</ele><time>2026-04-30T12:10:26.046Z</time></trkpt><trkpt lat="41.7081571" lon="3.2602074"><ele>0.0</ele><time>2026-04-30T12:10:27.046Z</time></trkpt><trkpt lat="41.7082269" lon="3.260417"><ele>0.0</ele><time>2026-04-30T12:10:29.046Z</time></trkpt><trkpt lat="41.7082971" lon="3.2606366"><ele>0.0</ele><time>2026-04-30T12:10:31.046Z</time></trkpt><trkpt lat="41.7083347" lon="3.2607505"><ele>0.0</ele><time>2026-04-30T12:10:32.045Z</time></trkpt><trkpt lat="41.7083687" lon="3.2608556"><ele>0.0</ele><time>2026-04-30T12:10:33.045Z</time></trkpt><trkpt lat="41.7084052" lon="3.2609619"><ele>0.0</ele><time>2026-04-30T12:10:34.045Z</time></trkpt><trkpt lat="41.70844" lon="3.2610687"><ele>0.0</ele><time>2026-04-30T12:10:35.045Z</time></trkpt><trkpt lat="41.7084721" lon="3.2611711"><ele>0.0</ele><time>2026-04-30T12:10:36.046Z</time></trkpt><trkpt lat="41.7085057" lon="3.2612742"><ele>0.0</ele><time>2026-04-30T12:10:37.046Z</time></trkpt><trkpt lat="41.708536" lon="3.2613802"><ele>0.0</ele><time>2026-04-30T12:10:38.046Z</time></trkpt><trkpt lat="41.7085691" lon="3.2614911"><ele>0.0</ele><time>2026-04-30T12:10:39.046Z</time></trkpt><trkpt lat="41.7086039" lon="3.261593"><ele>0.0</ele><time>2026-04-30T12:10:40.045Z</time></trkpt><trkpt lat="41.7086388" lon="3.2617029"><ele>0.0</ele><time>2026-04-30T12:10:41.046Z</time></trkpt><trkpt lat="41.7086738" lon="3.2618186"><ele>0.0</ele><time>2026-04-30T12:10:42.046Z</time></trkpt><trkpt lat="41.7087072" lon="3.2619253"><ele>0.0</ele><time>2026-04-30T12:10:43.045Z</time></trkpt><trkpt lat="41.7087402" lon="3.2620305"><ele>0.0</ele><time>2026-04-30T12:10:44.046Z</time></trkpt><trkpt lat="41.70878" lon="3.2621384"><ele>0.0</ele><time>2026-04-30T12:10:45.045Z</time></trkpt><trkpt lat="41.7088199" lon="3.2622452"><ele>0.0</ele><time>2026-04-30T12:10:46.045Z</time></trkpt><trkpt lat="41.7088569" lon="3.2623534"><ele>0.0</ele><time>2026-04-30T12:10:47.046Z</time></trkpt><trkpt lat="41.7088916" lon="3.2624603"><ele>0.0</ele><time>2026-04-30T12:10:48.046Z</time></trkpt><trkpt lat="41.7089284" lon="3.2625696"><ele>0.0</ele><time>2026-04-30T12:10:49.046Z</time></trkpt><trkpt lat="41.7089619" lon="3.2626754"><ele>0.0</ele><time>2026-04-30T12:10:50.045Z</time></trkpt><trkpt lat="41.7090317" lon="3.2628916"><ele>0.0</ele><time>2026-04-30T12:10:52.046Z</time></trkpt><trkpt lat="41.7090699" lon="3.2629985"><ele>0.0</ele><time>2026-04-30T12:10:53.045Z</time></trkpt><trkpt lat="41.7091023" lon="3.2631108"><ele>0.0</ele><time>2026-04-30T12:10:54.045Z</time></trkpt><trkpt lat="41.7091383" lon="3.263224"><ele>0.0</ele><time>2026-04-30T12:10:55.046Z</time></trkpt><trkpt lat="41.7091719" lon="3.2633304"><ele>0.0</ele><time>2026-04-30T12:10:56.045Z</time></trkpt><trkpt lat="41.7092071" lon="3.2634398"><ele>0.0</ele><time>2026-04-30T12:10:57.046Z</time></trkpt><trkpt lat="41.7092405" lon="3.2635439"><ele>0.0</ele><time>2026-04-30T12:10:58.045Z</time></trkpt><trkpt lat="41.7092723" lon="3.2636506"><ele>0.0</ele><time>2026-04-30T12:10:59.045Z</time></trkpt><trkpt lat="41.709337" lon="3.2638708"><ele>0.0</ele><time>2026-04-30T12:11:01.046Z</time></trkpt><trkpt lat="41.7093688" lon="3.2639771"><ele>0.0</ele><time>2026-04-30T12:11:02.046Z</time></trkpt><trkpt lat="41.7093966" lon="3.2640894"><ele>0.0</ele><time>2026-04-30T12:11:03.046Z</time></trkpt><trkpt lat="41.7094263" lon="3.2642042"><ele>0.0</ele><time>2026-04-30T12:11:04.046Z</time></trkpt><trkpt lat="41.7094574" lon="3.2643192"><ele>0.0</ele><time>2026-04-30T12:11:05.046Z</time></trkpt><trkpt lat="41.7094886" lon="3.264431"><ele>0.0</ele><time>2026-04-30T12:11:06.045Z</time></trkpt><trkpt lat="41.7095219" lon="3.2645413"><ele>0.0</ele><time>2026-04-30T12:11:07.045Z</time></trkpt><trkpt lat="41.7095583" lon="3.2646571"><ele>0.0</ele><time>2026-04-30T12:11:08.046Z</time></trkpt><trkpt lat="41.7095933" lon="3.2647667"><ele>0.0</ele><time>2026-04-30T12:11:09.045Z</time></trkpt><trkpt lat="41.7096266" lon="3.2648737"><ele>0.0</ele><time>2026-04-30T12:11:10.045Z</time></trkpt><trkpt lat="41.7096618" lon="3.2649774"><ele>0.0</ele><time>2026-04-30T12:11:11.046Z</time></trkpt><trkpt lat="41.7097316" lon="3.2651918"><ele>0.0</ele><time>2026-04-30T12:11:13.045Z</time></trkpt><trkpt lat="41.7097752" lon="3.2652941"><ele>0.0</ele><time>2026-04-30T12:11:14.045Z</time></trkpt><trkpt lat="41.7098169" lon="3.2654016"><ele>0.0</ele><time>2026-04-30T12:11:15.045Z</time></trkpt><trkpt lat="41.7098589" lon="3.2655101"><ele>0.0</ele><time>2026-04-30T12:11:16.046Z</time></trkpt><trkpt lat="41.7098975" lon="3.2656184"><ele>0.0</ele><time>2026-04-30T12:11:17.045Z</time></trkpt><trkpt lat="41.7099362" lon="3.2657225"><ele>0.0</ele><time>2026-04-30T12:11:18.046Z</time></trkpt><trkpt lat="41.7099731" lon="3.2658271"><ele>0.0</ele><time>2026-04-30T12:11:19.045Z</time></trkpt><trkpt lat="41.710011" lon="3.2659351"><ele>0.0</ele><time>2026-04-30T12:11:20.046Z</time></trkpt><trkpt lat="41.7100436" lon="3.266042"><ele>0.0</ele><time>2026-04-30T12:11:21.046Z</time></trkpt><trkpt lat="41.7100767" lon="3.2661475"><ele>0.0</ele><time>2026-04-30T12:11:22.046Z</time></trkpt><trkpt lat="41.7101132" lon="3.2662524"><ele>0.0</ele><time>2026-04-30T12:11:23.045Z</time></trkpt><trkpt lat="41.7101498" lon="3.2663613"><ele>0.0</ele><time>2026-04-30T12:11:24.045Z</time></trkpt><trkpt lat="41.7101851" lon="3.2664683"><ele>0.0</ele><time>2026-04-30T12:11:25.046Z</time></trkpt><trkpt lat="41.7102202" lon="3.2665753"><ele>0.0</ele><time>2026-04-30T12:11:26.045Z</time></trkpt><trkpt lat="41.7102552" lon="3.2666821"><ele>0.0</ele><time>2026-04-30T12:11:27.046Z</time></trkpt><trkpt lat="41.710289" lon="3.2667857"><ele>0.0</ele><time>2026-04-30T12:11:28.045Z</time></trkpt><trkpt lat="41.7103236" lon="3.266892"><ele>0.0</ele><time>2026-04-30T12:11:29.046Z</time></trkpt><trkpt lat="41.7103588" lon="3.2669931"><ele>0.0</ele><time>2026-04-30T12:11:30.044Z</time></trkpt><trkpt lat="41.7103934" lon="3.2671"><ele>0.0</ele><time>2026-04-30T12:11:31.045Z</time></trkpt><trkpt lat="41.7104298" lon="3.2672094"><ele>0.0</ele><time>2026-04-30T12:11:32.045Z</time></trkpt><trkpt lat="41.710502" lon="3.2674187"><ele>0.0</ele><time>2026-04-30T12:11:34.044Z</time></trkpt><trkpt lat="41.7105329" lon="3.2675336"><ele>0.0</ele><time>2026-04-30T12:11:35.045Z</time></trkpt><trkpt lat="41.710567" lon="3.267643"><ele>0.0</ele><time>2026-04-30T12:11:36.044Z</time></trkpt><trkpt lat="41.7106049" lon="3.2677486"><ele>0.0</ele><time>2026-04-30T12:11:37.044Z</time></trkpt><trkpt lat="41.7106389" lon="3.2678578"><ele>0.0</ele><time>2026-04-30T12:11:38.045Z</time></trkpt><trkpt lat="41.7106724" lon="3.2679623"><ele>0.0</ele><time>2026-04-30T12:11:39.045Z</time></trkpt><trkpt lat="41.7107086" lon="3.2680685"><ele>0.0</ele><time>2026-04-30T12:11:40.044Z</time></trkpt><trkpt lat="41.7107485" lon="3.2681737"><ele>0.0</ele><time>2026-04-30T12:11:41.044Z</time></trkpt><trkpt lat="41.7107899" lon="3.2682844"><ele>0.0</ele><time>2026-04-30T12:11:42.044Z</time></trkpt><trkpt lat="41.7108303" lon="3.2683874"><ele>0.0</ele><time>2026-04-30T12:11:43.045Z</time></trkpt><trkpt lat="41.7108682" lon="3.2684964"><ele>0.0</ele><time>2026-04-30T12:11:44.045Z</time></trkpt><trkpt lat="41.7109051" lon="3.2686034"><ele>0.0</ele><time>2026-04-30T12:11:45.044Z</time></trkpt><trkpt lat="41.7109413" lon="3.2687144"><ele>0.0</ele><time>2026-04-30T12:11:46.044Z</time></trkpt><trkpt lat="41.7109828" lon="3.2688245"><ele>0.0</ele><time>2026-04-30T12:11:47.044Z</time></trkpt><trkpt lat="41.711024" lon="3.2689288"><ele>0.0</ele><time>2026-04-30T12:11:48.044Z</time></trkpt><trkpt lat="41.7110663" lon="3.269039"><ele>0.0</ele><time>2026-04-30T12:11:49.045Z</time></trkpt><trkpt lat="41.7111066" lon="3.2691448"><ele>0.0</ele><time>2026-04-30T12:11:50.045Z</time></trkpt><trkpt lat="41.7111438" lon="3.2692472"><ele>0.0</ele><time>2026-04-30T12:11:51.044Z</time></trkpt><trkpt lat="41.7111874" lon="3.2693548"><ele>0.0</ele><time>2026-04-30T12:11:52.044Z</time></trkpt><trkpt lat="41.7112294" lon="3.2694575"><ele>0.0</ele><time>2026-04-30T12:11:53.045Z</time></trkpt><trkpt lat="41.7113034" lon="3.2696714"><ele>0.0</ele><time>2026-04-30T12:11:55.044Z</time></trkpt><trkpt lat="41.711339" lon="3.2697756"><ele>0.0</ele><time>2026-04-30T12:11:56.045Z</time></trkpt><trkpt lat="41.7113753" lon="3.2698815"><ele>0.0</ele><time>2026-04-30T12:11:57.044Z</time></trkpt><trkpt lat="41.7114062" lon="3.2699954"><ele>0.0</ele><time>2026-04-30T12:11:58.045Z</time></trkpt><trkpt lat="41.711431" lon="3.2701103"><ele>0.0</ele><time>2026-04-30T12:11:59.045Z</time></trkpt><trkpt lat="41.7114559" lon="3.2702209"><ele>0.0</ele><time>2026-04-30T12:12:00.044Z</time></trkpt><trkpt lat="41.7114891" lon="3.2703241"><ele>0.0</ele><time>2026-04-30T12:12:01.044Z</time></trkpt><trkpt lat="41.7115268" lon="3.2704285"><ele>0.0</ele><time>2026-04-30T12:12:02.045Z</time></trkpt><trkpt lat="41.7115666" lon="3.2705323"><ele>0.0</ele><time>2026-04-30T12:12:03.045Z</time></trkpt><trkpt lat="41.7116398" lon="3.2707506"><ele>0.0</ele><time>2026-04-30T12:12:05.044Z</time></trkpt><trkpt lat="41.7116753" lon="3.2708568"><ele>0.0</ele><time>2026-04-30T12:12:06.044Z</time></trkpt><trkpt lat="41.7117132" lon="3.2709634"><ele>0.0</ele><time>2026-04-30T12:12:07.045Z</time></trkpt><trkpt lat="41.7117489" lon="3.2710645"><ele>0.0</ele><time>2026-04-30T12:12:08.045Z</time></trkpt><trkpt lat="41.7117852" lon="3.271169"><ele>0.0</ele><time>2026-04-30T12:12:09.044Z</time></trkpt><trkpt lat="41.7118199" lon="3.2712751"><ele>0.0</ele><time>2026-04-30T12:12:10.044Z</time></trkpt><trkpt lat="41.7118551" lon="3.2713818"><ele>0.0</ele><time>2026-04-30T12:12:11.044Z</time></trkpt><trkpt lat="41.7118915" lon="3.2714912"><ele>0.0</ele><time>2026-04-30T12:12:12.044Z</time></trkpt><trkpt lat="41.7119266" lon="3.2716028"><ele>0.0</ele><time>2026-04-30T12:12:13.045Z</time></trkpt><trkpt lat="41.7119618" lon="3.2717115"><ele>0.0</ele><time>2026-04-30T12:12:14.044Z</time></trkpt><trkpt lat="41.7120316" lon="3.2719358"><ele>0.0</ele><time>2026-04-30T12:12:16.045Z</time></trkpt><trkpt lat="41.7120652" lon="3.2720464"><ele>0.0</ele><time>2026-04-30T12:12:17.045Z</time></trkpt><trkpt lat="41.7120999" lon="3.272155"><ele>0.0</ele><time>2026-04-30T12:12:18.045Z</time></trkpt><trkpt lat="41.7121366" lon="3.272259"><ele>0.0</ele><time>2026-04-30T12:12:19.044Z</time></trkpt><trkpt lat="41.7121732" lon="3.2723611"><ele>0.0</ele><time>2026-04-30T12:12:20.044Z</time></trkpt><trkpt lat="41.7122071" lon="3.2724628"><ele>0.0</ele><time>2026-04-30T12:12:21.044Z</time></trkpt><trkpt lat="41.7122472" lon="3.2725674"><ele>0.0</ele><time>2026-04-30T12:12:22.044Z</time></trkpt><trkpt lat="41.712292" lon="3.2726809"><ele>0.0</ele><time>2026-04-30T12:12:23.045Z</time></trkpt><trkpt lat="41.7123296" lon="3.2727938"><ele>0.0</ele><time>2026-04-30T12:12:24.044Z</time></trkpt><trkpt lat="41.7123696" lon="3.2729075"><ele>0.0</ele><time>2026-04-30T12:12:25.045Z</time></trkpt><trkpt lat="41.7124018" lon="3.2730165"><ele>0.0</ele><time>2026-04-30T12:12:26.044Z</time></trkpt><trkpt lat="41.7124364" lon="3.2731306"><ele>0.0</ele><time>2026-04-30T12:12:27.044Z</time></trkpt><trkpt lat="41.7124701" lon="3.2732385"><ele>0.0</ele><time>2026-04-30T12:12:28.045Z</time></trkpt><trkpt lat="41.7125051" lon="3.2733452"><ele>0.0</ele><time>2026-04-30T12:12:29.045Z</time></trkpt><trkpt lat="41.7125371" lon="3.2734504"><ele>0.0</ele><time>2026-04-30T12:12:30.045Z</time></trkpt><trkpt lat="41.7125718" lon="3.2735553"><ele>0.0</ele><time>2026-04-30T12:12:31.044Z</time></trkpt><trkpt lat="41.7126053" lon="3.2736617"><ele>0.0</ele><time>2026-04-30T12:12:32.045Z</time></trkpt><trkpt lat="41.7126402" lon="3.2737672"><ele>0.0</ele><time>2026-04-30T12:12:33.044Z</time></trkpt><trkpt lat="41.7126735" lon="3.2738735"><ele>0.0</ele><time>2026-04-30T12:12:34.044Z</time></trkpt><trkpt lat="41.7127085" lon="3.2739788"><ele>0.0</ele><time>2026-04-30T12:12:35.044Z</time></trkpt><trkpt lat="41.7127816" lon="3.27419"><ele>0.0</ele><time>2026-04-30T12:12:37.044Z</time></trkpt><trkpt lat="41.7128199" lon="3.2742984"><ele>0.0</ele><time>2026-04-30T12:12:38.045Z</time></trkpt><trkpt lat="41.7128568" lon="3.2744108"><ele>0.0</ele><time>2026-04-30T12:12:39.044Z</time></trkpt><trkpt lat="41.7128884" lon="3.2745211"><ele>0.0</ele><time>2026-04-30T12:12:40.044Z</time></trkpt><trkpt lat="41.7129231" lon="3.2746324"><ele>0.0</ele><time>2026-04-30T12:12:41.044Z</time></trkpt><trkpt lat="41.7129626" lon="3.2747399"><ele>0.0</ele><time>2026-04-30T12:12:42.044Z</time></trkpt><trkpt lat="41.7129997" lon="3.274851"><ele>0.0</ele><time>2026-04-30T12:12:43.045Z</time></trkpt><trkpt lat="41.7130333" lon="3.2749582"><ele>0.0</ele><time>2026-04-30T12:12:44.045Z</time></trkpt><trkpt lat="41.7130717" lon="3.2750663"><ele>0.0</ele><time>2026-04-30T12:12:45.044Z</time></trkpt><trkpt lat="41.7131068" lon="3.2751732"><ele>0.0</ele><time>2026-04-30T12:12:46.044Z</time></trkpt><trkpt lat="41.7131403" lon="3.2752799"><ele>0.0</ele><time>2026-04-30T12:12:47.044Z</time></trkpt><trkpt lat="41.7131752" lon="3.2753841"><ele>0.0</ele><time>2026-04-30T12:12:48.044Z</time></trkpt><trkpt lat="41.7132085" lon="3.275489"><ele>0.0</ele><time>2026-04-30T12:12:49.044Z</time></trkpt><trkpt lat="41.7132421" lon="3.2755926"><ele>0.0</ele><time>2026-04-30T12:12:50.045Z</time></trkpt><trkpt lat="41.7132783" lon="3.2757029"><ele>0.0</ele><time>2026-04-30T12:12:51.045Z</time></trkpt><trkpt lat="41.7133149" lon="3.2758101"><ele>0.0</ele><time>2026-04-30T12:12:52.045Z</time></trkpt><trkpt lat="41.713363" lon="3.2759126"><ele>0.0</ele><time>2026-04-30T12:12:53.044Z</time></trkpt><trkpt lat="41.7134033" lon="3.2760156"><ele>0.0</ele><time>2026-04-30T12:12:54.045Z</time></trkpt><trkpt lat="41.7134418" lon="3.2761204"><ele>0.0</ele><time>2026-04-30T12:12:55.045Z</time></trkpt><trkpt lat="41.7134784" lon="3.2762311"><ele>0.0</ele><time>2026-04-30T12:12:56.044Z</time></trkpt><trkpt lat="41.7135533" lon="3.2764507"><ele>0.0</ele><time>2026-04-30T12:12:58.044Z</time></trkpt><trkpt lat="41.7135868" lon="3.2765668"><ele>0.0</ele><time>2026-04-30T12:12:59.044Z</time></trkpt><trkpt lat="41.7136159" lon="3.2766722"><ele>0.0</ele><time>2026-04-30T12:13:00.044Z</time></trkpt><trkpt lat="41.713647" lon="3.2767784"><ele>0.0</ele><time>2026-04-30T12:13:01.044Z</time></trkpt><trkpt lat="41.7136805" lon="3.2768833"><ele>0.0</ele><time>2026-04-30T12:13:02.045Z</time></trkpt><trkpt lat="41.7137168" lon="3.27699"><ele>0.0</ele><time>2026-04-30T12:13:03.044Z</time></trkpt><trkpt lat="41.7137522" lon="3.2770956"><ele>0.0</ele><time>2026-04-30T12:13:04.044Z</time></trkpt><trkpt lat="41.7137857" lon="3.2772006"><ele>0.0</ele><time>2026-04-30T12:13:05.045Z</time></trkpt><trkpt lat="41.7138205" lon="3.2773055"><ele>0.0</ele><time>2026-04-30T12:13:06.044Z</time></trkpt><trkpt lat="41.7138569" lon="3.2774133"><ele>0.0</ele><time>2026-04-30T12:13:07.045Z</time></trkpt><trkpt lat="41.7139287" lon="3.27763"><ele>0.0</ele><time>2026-04-30T12:13:09.044Z</time></trkpt><trkpt lat="41.7139652" lon="3.2777411"><ele>0.0</ele><time>2026-04-30T12:13:10.045Z</time></trkpt><trkpt lat="41.713996" lon="3.2778515"><ele>0.0</ele><time>2026-04-30T12:13:11.044Z</time></trkpt><trkpt lat="41.7140273" lon="3.2779587"><ele>0.0</ele><time>2026-04-30T12:13:12.044Z</time></trkpt><trkpt lat="41.7140572" lon="3.2780696"><ele>0.0</ele><time>2026-04-30T12:13:13.044Z</time></trkpt><trkpt lat="41.7140882" lon="3.278178"><ele>0.0</ele><time>2026-04-30T12:13:14.045Z</time></trkpt><trkpt lat="41.7141204" lon="3.2782852"><ele>0.0</ele><time>2026-04-30T12:13:15.045Z</time></trkpt><trkpt lat="41.714152" lon="3.2783907"><ele>0.0</ele><time>2026-04-30T12:13:16.045Z</time></trkpt><trkpt lat="41.7142169" lon="3.2786019"><ele>0.0</ele><time>2026-04-30T12:13:18.044Z</time></trkpt><trkpt lat="41.7142501" lon="3.2787098"><ele>0.0</ele><time>2026-04-30T12:13:19.044Z</time></trkpt><trkpt lat="41.714291" lon="3.2788153"><ele>0.0</ele><time>2026-04-30T12:13:20.044Z</time></trkpt><trkpt lat="41.7143287" lon="3.2789234"><ele>0.0</ele><time>2026-04-30T12:13:21.044Z</time></trkpt><trkpt lat="41.7143652" lon="3.2790301"><ele>0.0</ele><time>2026-04-30T12:13:22.044Z</time></trkpt><trkpt lat="41.7144014" lon="3.2791413"><ele>0.0</ele><time>2026-04-30T12:13:23.045Z</time></trkpt><trkpt lat="41.7144381" lon="3.2792499"><ele>0.0</ele><time>2026-04-30T12:13:24.045Z</time></trkpt><trkpt lat="41.7144751" lon="3.2793582"><ele>0.0</ele><time>2026-04-30T12:13:25.044Z</time></trkpt><trkpt lat="41.7145145" lon="3.2794664"><ele>0.0</ele><time>2026-04-30T12:13:26.045Z</time></trkpt><trkpt lat="41.7145517" lon="3.2795747"><ele>0.0</ele><time>2026-04-30T12:13:27.044Z</time></trkpt><trkpt lat="41.7145915" lon="3.2796829"><ele>0.0</ele><time>2026-04-30T12:13:28.044Z</time></trkpt><trkpt lat="41.7146268" lon="3.27979"><ele>0.0</ele><time>2026-04-30T12:13:29.044Z</time></trkpt><trkpt lat="41.7146634" lon="3.2798938"><ele>0.0</ele><time>2026-04-30T12:13:30.044Z</time></trkpt><trkpt lat="41.7146984" lon="3.2800002"><ele>0.0</ele><time>2026-04-30T12:13:31.045Z</time></trkpt><trkpt lat="41.7147351" lon="3.2801067"><ele>0.0</ele><time>2026-04-30T12:13:32.044Z</time></trkpt><trkpt lat="41.7147715" lon="3.2802148"><ele>0.0</ele><time>2026-04-30T12:13:33.044Z</time></trkpt><trkpt lat="41.7148099" lon="3.2803232"><ele>0.0</ele><time>2026-04-30T12:13:34.045Z</time></trkpt><trkpt lat="41.7148468" lon="3.2804301"><ele>0.0</ele><time>2026-04-30T12:13:35.045Z</time></trkpt><trkpt lat="41.7148834" lon="3.2805352"><ele>0.0</ele><time>2026-04-30T12:13:36.044Z</time></trkpt><trkpt lat="41.714922" lon="3.2806401"><ele>0.0</ele><time>2026-04-30T12:13:37.045Z</time></trkpt><trkpt lat="41.7150354" lon="3.2809605"><ele>0.0</ele><time>2026-04-30T12:13:40.045Z</time></trkpt><trkpt lat="41.7150717" lon="3.2810651"><ele>0.0</ele><time>2026-04-30T12:13:41.044Z</time></trkpt><trkpt lat="41.715107" lon="3.2811716"><ele>0.0</ele><time>2026-04-30T12:13:42.044Z</time></trkpt><trkpt lat="41.7151434" lon="3.2812782"><ele>0.0</ele><time>2026-04-30T12:13:43.045Z</time></trkpt><trkpt lat="41.7151798" lon="3.2813865"><ele>0.0</ele><time>2026-04-30T12:13:44.044Z</time></trkpt><trkpt lat="41.7152166" lon="3.2814965"><ele>0.0</ele><time>2026-04-30T12:13:45.045Z</time></trkpt><trkpt lat="41.7152551" lon="3.2816033"><ele>0.0</ele><time>2026-04-30T12:13:46.044Z</time></trkpt><trkpt lat="41.7152932" lon="3.2817101"><ele>0.0</ele><time>2026-04-30T12:13:47.044Z</time></trkpt><trkpt lat="41.7153289" lon="3.2818139"><ele>0.0</ele><time>2026-04-30T12:13:48.045Z</time></trkpt><trkpt lat="41.7153635" lon="3.2819186"><ele>0.0</ele><time>2026-04-30T12:13:49.045Z</time></trkpt><trkpt lat="41.7153986" lon="3.2820222"><ele>0.0</ele><time>2026-04-30T12:13:50.044Z</time></trkpt><trkpt lat="41.7154364" lon="3.2821314"><ele>0.0</ele><time>2026-04-30T12:13:51.044Z</time></trkpt><trkpt lat="41.7154733" lon="3.2822426"><ele>0.0</ele><time>2026-04-30T12:13:52.045Z</time></trkpt><trkpt lat="41.7155113" lon="3.2823527"><ele>0.0</ele><time>2026-04-30T12:13:53.044Z</time></trkpt><trkpt lat="41.7155451" lon="3.2824601"><ele>0.0</ele><time>2026-04-30T12:13:54.044Z</time></trkpt><trkpt lat="41.7155818" lon="3.2825668"><ele>0.0</ele><time>2026-04-30T12:13:55.045Z</time></trkpt><trkpt lat="41.7156182" lon="3.2826763"><ele>0.0</ele><time>2026-04-30T12:13:56.044Z</time></trkpt><trkpt lat="41.7156549" lon="3.2827864"><ele>0.0</ele><time>2026-04-30T12:13:57.045Z</time></trkpt><trkpt lat="41.7156918" lon="3.2828921"><ele>0.0</ele><time>2026-04-30T12:13:58.044Z</time></trkpt><trkpt lat="41.7157696" lon="3.2831144"><ele>0.0</ele><time>2026-04-30T12:14:00.044Z</time></trkpt><trkpt lat="41.7158053" lon="3.2832187"><ele>0.0</ele><time>2026-04-30T12:14:01.045Z</time></trkpt><trkpt lat="41.7158416" lon="3.2833252"><ele>0.0</ele><time>2026-04-30T12:14:02.044Z</time></trkpt><trkpt lat="41.715877" lon="3.2834317"><ele>0.0</ele><time>2026-04-30T12:14:03.045Z</time></trkpt><trkpt lat="41.715912" lon="3.2835401"><ele>0.0</ele><time>2026-04-30T12:14:04.045Z</time></trkpt><trkpt lat="41.7159466" lon="3.2836496"><ele>0.0</ele><time>2026-04-30T12:14:05.044Z</time></trkpt><trkpt lat="41.7159818" lon="3.2837581"><ele>0.0</ele><time>2026-04-30T12:14:06.044Z</time></trkpt><trkpt lat="41.7160152" lon="3.2838652"><ele>0.0</ele><time>2026-04-30T12:14:07.044Z</time></trkpt><trkpt lat="41.7160529" lon="3.2839705"><ele>0.0</ele><time>2026-04-30T12:14:08.045Z</time></trkpt><trkpt lat="41.7160924" lon="3.2840841"><ele>0.0</ele><time>2026-04-30T12:14:09.045Z</time></trkpt><trkpt lat="41.7161293" lon="3.2841905"><ele>0.0</ele><time>2026-04-30T12:14:10.044Z</time></trkpt><trkpt lat="41.716162" lon="3.2843"><ele>0.0</ele><time>2026-04-30T12:14:11.045Z</time></trkpt><trkpt lat="41.7161938" lon="3.2844083"><ele>0.0</ele><time>2026-04-30T12:14:12.045Z</time></trkpt><trkpt lat="41.7162267" lon="3.2845194"><ele>0.0</ele><time>2026-04-30T12:14:13.045Z</time></trkpt><trkpt lat="41.7162603" lon="3.2846266"><ele>0.0</ele><time>2026-04-30T12:14:14.045Z</time></trkpt><trkpt lat="41.7162919" lon="3.2847364"><ele>0.0</ele><time>2026-04-30T12:14:15.045Z</time></trkpt><trkpt lat="41.7163232" lon="3.2848434"><ele>0.0</ele><time>2026-04-30T12:14:16.044Z</time></trkpt><trkpt lat="41.7163535" lon="3.2849531"><ele>0.0</ele><time>2026-04-30T12:14:17.045Z</time></trkpt><trkpt lat="41.7163867" lon="3.2850633"><ele>0.0</ele><time>2026-04-30T12:14:18.045Z</time></trkpt><trkpt lat="41.7164183" lon="3.2851719"><ele>0.0</ele><time>2026-04-30T12:14:19.045Z</time></trkpt><trkpt lat="41.7164836" lon="3.2853868"><ele>0.0</ele><time>2026-04-30T12:14:21.045Z</time></trkpt><trkpt lat="41.7165138" lon="3.2854922"><ele>0.0</ele><time>2026-04-30T12:14:22.045Z</time></trkpt><trkpt lat="41.7165453" lon="3.2855976"><ele>0.0</ele><time>2026-04-30T12:14:23.045Z</time></trkpt><trkpt lat="41.716577" lon="3.2857026"><ele>0.0</ele><time>2026-04-30T12:14:24.044Z</time></trkpt><trkpt lat="41.7166102" lon="3.2858103"><ele>0.0</ele><time>2026-04-30T12:14:25.044Z</time></trkpt><trkpt lat="41.7166548" lon="3.2859112"><ele>0.0</ele><time>2026-04-30T12:14:26.045Z</time></trkpt><trkpt lat="41.7166918" lon="3.2860157"><ele>0.0</ele><time>2026-04-30T12:14:27.044Z</time></trkpt><trkpt lat="41.7167285" lon="3.2861235"><ele>0.0</ele><time>2026-04-30T12:14:28.045Z</time></trkpt><trkpt lat="41.7167652" lon="3.2862318"><ele>0.0</ele><time>2026-04-30T12:14:29.045Z</time></trkpt><trkpt lat="41.716796" lon="3.2863442"><ele>0.0</ele><time>2026-04-30T12:14:30.044Z</time></trkpt><trkpt lat="41.7168299" lon="3.2864542"><ele>0.0</ele><time>2026-04-30T12:14:31.045Z</time></trkpt><trkpt lat="41.7168666" lon="3.2865618"><ele>0.0</ele><time>2026-04-30T12:14:32.044Z</time></trkpt><trkpt lat="41.7169034" lon="3.2866713"><ele>0.0</ele><time>2026-04-30T12:14:33.044Z</time></trkpt><trkpt lat="41.7169368" lon="3.2867799"><ele>0.0</ele><time>2026-04-30T12:14:34.044Z</time></trkpt><trkpt lat="41.7169716" lon="3.2868896"><ele>0.0</ele><time>2026-04-30T12:14:35.044Z</time></trkpt><trkpt lat="41.7170081" lon="3.2870009"><ele>0.0</ele><time>2026-04-30T12:14:36.045Z</time></trkpt><trkpt lat="41.7170427" lon="3.2871116"><ele>0.0</ele><time>2026-04-30T12:14:37.044Z</time></trkpt><trkpt lat="41.717077" lon="3.2872156"><ele>0.0</ele><time>2026-04-30T12:14:38.045Z</time></trkpt><trkpt lat="41.7171106" lon="3.2873203"><ele>0.0</ele><time>2026-04-30T12:14:39.045Z</time></trkpt><trkpt lat="41.717142" lon="3.2874241"><ele>0.0</ele><time>2026-04-30T12:14:40.044Z</time></trkpt><trkpt lat="41.7172115" lon="3.2876382"><ele>0.0</ele><time>2026-04-30T12:14:42.045Z</time></trkpt><trkpt lat="41.717283" lon="3.2878609"><ele>0.0</ele><time>2026-04-30T12:14:44.044Z</time></trkpt><trkpt lat="41.7173185" lon="3.2879728"><ele>0.0</ele><time>2026-04-30T12:14:45.045Z</time></trkpt><trkpt lat="41.7173536" lon="3.2880849"><ele>0.0</ele><time>2026-04-30T12:14:46.045Z</time></trkpt><trkpt lat="41.7173872" lon="3.2881921"><ele>0.0</ele><time>2026-04-30T12:14:47.044Z</time></trkpt><trkpt lat="41.71742" lon="3.2883044"><ele>0.0</ele><time>2026-04-30T12:14:48.044Z</time></trkpt><trkpt lat="41.7174552" lon="3.2884107"><ele>0.0</ele><time>2026-04-30T12:14:49.044Z</time></trkpt><trkpt lat="41.7174895" lon="3.2885228"><ele>0.0</ele><time>2026-04-30T12:14:50.045Z</time></trkpt><trkpt lat="41.7175217" lon="3.2886316"><ele>0.0</ele><time>2026-04-30T12:14:51.044Z</time></trkpt><trkpt lat="41.7175535" lon="3.288736"><ele>0.0</ele><time>2026-04-30T12:14:52.044Z</time></trkpt><trkpt lat="41.7175823" lon="3.2888467"><ele>0.0</ele><time>2026-04-30T12:14:53.044Z</time></trkpt><trkpt lat="41.7176106" lon="3.2889552"><ele>0.0</ele><time>2026-04-30T12:14:54.044Z</time></trkpt><trkpt lat="41.7176431" lon="3.2890719"><ele>0.0</ele><time>2026-04-30T12:14:55.045Z</time></trkpt><trkpt lat="41.7176712" lon="3.2891859"><ele>0.0</ele><time>2026-04-30T12:14:56.044Z</time></trkpt><trkpt lat="41.7177007" lon="3.2893008"><ele>0.0</ele><time>2026-04-30T12:14:57.045Z</time></trkpt><trkpt lat="41.7177301" lon="3.2894087"><ele>0.0</ele><time>2026-04-30T12:14:58.044Z</time></trkpt><trkpt lat="41.7177604" lon="3.2895181"><ele>0.0</ele><time>2026-04-30T12:14:59.045Z</time></trkpt><trkpt lat="41.7177835" lon="3.2896311"><ele>0.0</ele><time>2026-04-30T12:15:00.044Z</time></trkpt><trkpt lat="41.7178125" lon="3.2897401"><ele>0.0</ele><time>2026-04-30T12:15:01.045Z</time></trkpt><trkpt lat="41.7178643" lon="3.2899617"><ele>0.0</ele><time>2026-04-30T12:15:03.044Z</time></trkpt><trkpt lat="41.7178909" lon="3.2900759"><ele>0.0</ele><time>2026-04-30T12:15:04.044Z</time></trkpt><trkpt lat="41.7179122" lon="3.2901878"><ele>0.0</ele><time>2026-04-30T12:15:05.044Z</time></trkpt><trkpt lat="41.7179377" lon="3.2903022"><ele>0.0</ele><time>2026-04-30T12:15:06.044Z</time></trkpt><trkpt lat="41.7179718" lon="3.2904129"><ele>0.0</ele><time>2026-04-30T12:15:07.045Z</time></trkpt><trkpt lat="41.7180038" lon="3.2905219"><ele>0.0</ele><time>2026-04-30T12:15:08.044Z</time></trkpt><trkpt lat="41.7180338" lon="3.2906316"><ele>0.0</ele><time>2026-04-30T12:15:09.044Z</time></trkpt><trkpt lat="41.7180611" lon="3.2907402"><ele>0.0</ele><time>2026-04-30T12:15:10.044Z</time></trkpt><trkpt lat="41.7180944" lon="3.2908444"><ele>0.0</ele><time>2026-04-30T12:15:11.045Z</time></trkpt><trkpt lat="41.7181352" lon="3.2909492"><ele>0.0</ele><time>2026-04-30T12:15:12.045Z</time></trkpt><trkpt lat="41.7181726" lon="3.2910585"><ele>0.0</ele><time>2026-04-30T12:15:13.044Z</time></trkpt><trkpt lat="41.7182082" lon="3.2911641"><ele>0.0</ele><time>2026-04-30T12:15:14.044Z</time></trkpt><trkpt lat="41.7182948" lon="3.2913693"><ele>0.0</ele><time>2026-04-30T12:15:16.045Z</time></trkpt><trkpt lat="41.7183329" lon="3.291477"><ele>0.0</ele><time>2026-04-30T12:15:17.045Z</time></trkpt><trkpt lat="41.7183726" lon="3.2915781"><ele>0.0</ele><time>2026-04-30T12:15:18.045Z</time></trkpt><trkpt lat="41.7184115" lon="3.2916909"><ele>0.0</ele><time>2026-04-30T12:15:19.044Z</time></trkpt><trkpt lat="41.7184477" lon="3.2918084"><ele>0.0</ele><time>2026-04-30T12:15:20.044Z</time></trkpt><trkpt lat="41.7184799" lon="3.291917"><ele>0.0</ele><time>2026-04-30T12:15:21.045Z</time></trkpt><trkpt lat="41.718513" lon="3.2920224"><ele>0.0</ele><time>2026-04-30T12:15:22.044Z</time></trkpt><trkpt lat="41.7185752" lon="3.2922368"><ele>0.0</ele><time>2026-04-30T12:15:24.044Z</time></trkpt><trkpt lat="41.7186083" lon="3.2923466"><ele>0.0</ele><time>2026-04-30T12:15:25.044Z</time></trkpt><trkpt lat="41.7186419" lon="3.2924553"><ele>0.0</ele><time>2026-04-30T12:15:26.044Z</time></trkpt><trkpt lat="41.7186736" lon="3.2925637"><ele>0.0</ele><time>2026-04-30T12:15:27.044Z</time></trkpt><trkpt lat="41.7187069" lon="3.2926718"><ele>0.0</ele><time>2026-04-30T12:15:28.045Z</time></trkpt><trkpt lat="41.7187385" lon="3.2927827"><ele>0.0</ele><time>2026-04-30T12:15:29.044Z</time></trkpt><trkpt lat="41.7187773" lon="3.2928932"><ele>0.0</ele><time>2026-04-30T12:15:30.044Z</time></trkpt><trkpt lat="41.718813" lon="3.2930045"><ele>0.0</ele><time>2026-04-30T12:15:31.045Z</time></trkpt><trkpt lat="41.7188409" lon="3.2931121"><ele>0.0</ele><time>2026-04-30T12:15:32.044Z</time></trkpt><trkpt lat="41.7188718" lon="3.2932218"><ele>0.0</ele><time>2026-04-30T12:15:33.044Z</time></trkpt><trkpt lat="41.7189033" lon="3.2933317"><ele>0.0</ele><time>2026-04-30T12:15:34.044Z</time></trkpt><trkpt lat="41.718935" lon="3.2934403"><ele>0.0</ele><time>2026-04-30T12:15:35.045Z</time></trkpt><trkpt lat="41.7189669" lon="3.2935485"><ele>0.0</ele><time>2026-04-30T12:15:36.045Z</time></trkpt><trkpt lat="41.7189983" lon="3.293657"><ele>0.0</ele><time>2026-04-30T12:15:37.044Z</time></trkpt><trkpt lat="41.7190316" lon="3.293768"><ele>0.0</ele><time>2026-04-30T12:15:38.045Z</time></trkpt><trkpt lat="41.7190669" lon="3.293877"><ele>0.0</ele><time>2026-04-30T12:15:39.045Z</time></trkpt><trkpt lat="41.7191003" lon="3.2939869"><ele>0.0</ele><time>2026-04-30T12:15:40.044Z</time></trkpt><trkpt lat="41.7191348" lon="3.2940981"><ele>0.0</ele><time>2026-04-30T12:15:41.045Z</time></trkpt><trkpt lat="41.7191716" lon="3.2942096"><ele>0.0</ele><time>2026-04-30T12:15:42.045Z</time></trkpt><trkpt lat="41.7192052" lon="3.29432"><ele>0.0</ele><time>2026-04-30T12:15:43.044Z</time></trkpt><trkpt lat="41.7192702" lon="3.2945371"><ele>0.0</ele><time>2026-04-30T12:15:45.045Z</time></trkpt><trkpt lat="41.719302" lon="3.294644"><ele>0.0</ele><time>2026-04-30T12:15:46.045Z</time></trkpt><trkpt lat="41.7193321" lon="3.2947508"><ele>0.0</ele><time>2026-04-30T12:15:47.045Z</time></trkpt><trkpt lat="41.7193636" lon="3.2948588"><ele>0.0</ele><time>2026-04-30T12:15:48.045Z</time></trkpt><trkpt lat="41.7193955" lon="3.2949654"><ele>0.0</ele><time>2026-04-30T12:15:49.044Z</time></trkpt><trkpt lat="41.7194255" lon="3.2950736"><ele>0.0</ele><time>2026-04-30T12:15:50.045Z</time></trkpt><trkpt lat="41.7194551" lon="3.2951835"><ele>0.0</ele><time>2026-04-30T12:15:51.045Z</time></trkpt><trkpt lat="41.7194853" lon="3.295292"><ele>0.0</ele><time>2026-04-30T12:15:52.044Z</time></trkpt><trkpt lat="41.7195153" lon="3.2954018"><ele>0.0</ele><time>2026-04-30T12:15:53.045Z</time></trkpt><trkpt lat="41.7195464" lon="3.2955129"><ele>0.0</ele><time>2026-04-30T12:15:54.044Z</time></trkpt><trkpt lat="41.7195816" lon="3.2956261"><ele>0.0</ele><time>2026-04-30T12:15:55.045Z</time></trkpt><trkpt lat="41.7196133" lon="3.2957379"><ele>0.0</ele><time>2026-04-30T12:15:56.044Z</time></trkpt><trkpt lat="41.7196478" lon="3.2958484"><ele>0.0</ele><time>2026-04-30T12:15:57.045Z</time></trkpt><trkpt lat="41.7196816" lon="3.2959598"><ele>0.0</ele><time>2026-04-30T12:15:58.045Z</time></trkpt><trkpt lat="41.7197119" lon="3.2960685"><ele>0.0</ele><time>2026-04-30T12:15:59.045Z</time></trkpt><trkpt lat="41.7197447" lon="3.2961782"><ele>0.0</ele><time>2026-04-30T12:16:00.045Z</time></trkpt><trkpt lat="41.719777" lon="3.2962866"><ele>0.0</ele><time>2026-04-30T12:16:01.044Z</time></trkpt><trkpt lat="41.7198117" lon="3.2963978"><ele>0.0</ele><time>2026-04-30T12:16:02.045Z</time></trkpt><trkpt lat="41.7198467" lon="3.2965096"><ele>0.0</ele><time>2026-04-30T12:16:03.045Z</time></trkpt><trkpt lat="41.7199118" lon="3.2967287"><ele>0.0</ele><time>2026-04-30T12:16:05.044Z</time></trkpt><trkpt lat="41.7199435" lon="3.2968369"><ele>0.0</ele><time>2026-04-30T12:16:06.044Z</time></trkpt><trkpt lat="41.7199752" lon="3.2969435"><ele>0.0</ele><time>2026-04-30T12:16:07.044Z</time></trkpt><trkpt lat="41.720008" lon="3.2970504"><ele>0.0</ele><time>2026-04-30T12:16:08.044Z</time></trkpt><trkpt lat="41.7200415" lon="3.2971583"><ele>0.0</ele><time>2026-04-30T12:16:09.044Z</time></trkpt><trkpt lat="41.7200635" lon="3.2972698"><ele>0.0</ele><time>2026-04-30T12:16:10.045Z</time></trkpt><trkpt lat="41.7200924" lon="3.2973797"><ele>0.0</ele><time>2026-04-30T12:16:11.044Z</time></trkpt><trkpt lat="41.7201253" lon="3.2974897"><ele>0.0</ele><time>2026-04-30T12:16:12.044Z</time></trkpt><trkpt lat="41.7201575" lon="3.2975985"><ele>0.0</ele><time>2026-04-30T12:16:13.044Z</time></trkpt><trkpt lat="41.7201886" lon="3.2977067"><ele>0.0</ele><time>2026-04-30T12:16:14.045Z</time></trkpt><trkpt lat="41.720216" lon="3.2978164"><ele>0.0</ele><time>2026-04-30T12:16:15.044Z</time></trkpt><trkpt lat="41.7202482" lon="3.2979337"><ele>0.0</ele><time>2026-04-30T12:16:16.045Z</time></trkpt><trkpt lat="41.7202804" lon="3.2980432"><ele>0.0</ele><time>2026-04-30T12:16:17.045Z</time></trkpt><trkpt lat="41.7203177" lon="3.2981488"><ele>0.0</ele><time>2026-04-30T12:16:18.045Z</time></trkpt><trkpt lat="41.7203842" lon="3.2983646"><ele>0.0</ele><time>2026-04-30T12:16:20.045Z</time></trkpt><trkpt lat="41.7204185" lon="3.2984718"><ele>0.0</ele><time>2026-04-30T12:16:21.044Z</time></trkpt><trkpt lat="41.7204589" lon="3.2985772"><ele>0.0</ele><time>2026-04-30T12:16:22.044Z</time></trkpt><trkpt lat="41.7204894" lon="3.2986838"><ele>0.0</ele><time>2026-04-30T12:16:23.044Z</time></trkpt><trkpt lat="41.720519" lon="3.2987922"><ele>0.0</ele><time>2026-04-30T12:16:24.045Z</time></trkpt><trkpt lat="41.7205932" lon="3.2990026"><ele>0.0</ele><time>2026-04-30T12:16:26.044Z</time></trkpt><trkpt lat="41.7206279" lon="3.2991087"><ele>0.0</ele><time>2026-04-30T12:16:27.044Z</time></trkpt><trkpt lat="41.7206603" lon="3.2992167"><ele>0.0</ele><time>2026-04-30T12:16:28.043Z</time></trkpt><trkpt lat="41.7206964" lon="3.2993278"><ele>0.0</ele><time>2026-04-30T12:16:29.043Z</time></trkpt><trkpt lat="41.7207356" lon="3.299441"><ele>0.0</ele><time>2026-04-30T12:16:30.043Z</time></trkpt><trkpt lat="41.7207685" lon="3.2995456"><ele>0.0</ele><time>2026-04-30T12:16:31.043Z</time></trkpt><trkpt lat="41.7208004" lon="3.2996505"><ele>0.0</ele><time>2026-04-30T12:16:32.043Z</time></trkpt><trkpt lat="41.7208305" lon="3.2997571"><ele>0.0</ele><time>2026-04-30T12:16:33.044Z</time></trkpt><trkpt lat="41.7208619" lon="3.2998651"><ele>0.0</ele><time>2026-04-30T12:16:34.044Z</time></trkpt><trkpt lat="41.7208935" lon="3.2999748"><ele>0.0</ele><time>2026-04-30T12:16:35.043Z</time></trkpt><trkpt lat="41.7209254" lon="3.3000834"><ele>0.0</ele><time>2026-04-30T12:16:36.043Z</time></trkpt><trkpt lat="41.7209537" lon="3.3001906"><ele>0.0</ele><time>2026-04-30T12:16:37.044Z</time></trkpt><trkpt lat="41.720982" lon="3.3002972"><ele>0.0</ele><time>2026-04-30T12:16:38.044Z</time></trkpt><trkpt lat="41.7210117" lon="3.3004095"><ele>0.0</ele><time>2026-04-30T12:16:39.043Z</time></trkpt><trkpt lat="41.7210435" lon="3.3005171"><ele>0.0</ele><time>2026-04-30T12:16:40.044Z</time></trkpt><trkpt lat="41.7210767" lon="3.3006268"><ele>0.0</ele><time>2026-04-30T12:16:41.043Z</time></trkpt><trkpt lat="41.7211085" lon="3.3007324"><ele>0.0</ele><time>2026-04-30T12:16:42.043Z</time></trkpt><trkpt lat="41.72114" lon="3.3008433"><ele>0.0</ele><time>2026-04-30T12:16:43.044Z</time></trkpt><trkpt lat="41.7211717" lon="3.3009547"><ele>0.0</ele><time>2026-04-30T12:16:44.043Z</time></trkpt><trkpt lat="41.7212032" lon="3.3010663"><ele>0.0</ele><time>2026-04-30T12:16:45.044Z</time></trkpt><trkpt lat="41.7212621" lon="3.3012864"><ele>0.0</ele><time>2026-04-30T12:16:47.043Z</time></trkpt><trkpt lat="41.7212901" lon="3.3013968"><ele>0.0</ele><time>2026-04-30T12:16:48.044Z</time></trkpt><trkpt lat="41.7213202" lon="3.3015038"><ele>0.0</ele><time>2026-04-30T12:16:49.044Z</time></trkpt><trkpt lat="41.7213518" lon="3.3016116"><ele>0.0</ele><time>2026-04-30T12:16:50.044Z</time></trkpt><trkpt lat="41.721382" lon="3.3017203"><ele>0.0</ele><time>2026-04-30T12:16:51.043Z</time></trkpt><trkpt lat="41.7214124" lon="3.3018284"><ele>0.0</ele><time>2026-04-30T12:16:52.044Z</time></trkpt><trkpt lat="41.7214451" lon="3.3019368"><ele>0.0</ele><time>2026-04-30T12:16:53.043Z</time></trkpt><trkpt lat="41.7214769" lon="3.3020452"><ele>0.0</ele><time>2026-04-30T12:16:54.043Z</time></trkpt><trkpt lat="41.7215093" lon="3.302155"><ele>0.0</ele><time>2026-04-30T12:16:55.044Z</time></trkpt><trkpt lat="41.7215455" lon="3.302255"><ele>0.0</ele><time>2026-04-30T12:16:56.043Z</time></trkpt><trkpt lat="41.7215894" lon="3.3023676"><ele>0.0</ele><time>2026-04-30T12:16:57.044Z</time></trkpt><trkpt lat="41.7216274" lon="3.3024839"><ele>0.0</ele><time>2026-04-30T12:16:58.043Z</time></trkpt><trkpt lat="41.7216587" lon="3.3025977"><ele>0.0</ele><time>2026-04-30T12:16:59.043Z</time></trkpt><trkpt lat="41.7216914" lon="3.3027024"><ele>0.0</ele><time>2026-04-30T12:17:00.044Z</time></trkpt><trkpt lat="41.7217176" lon="3.3028158"><ele>0.0</ele><time>2026-04-30T12:17:01.043Z</time></trkpt><trkpt lat="41.7217397" lon="3.3029293"><ele>0.0</ele><time>2026-04-30T12:17:02.043Z</time></trkpt><trkpt lat="41.7217714" lon="3.3030455"><ele>0.0</ele><time>2026-04-30T12:17:03.044Z</time></trkpt><trkpt lat="41.7218048" lon="3.3031492"><ele>0.0</ele><time>2026-04-30T12:17:04.044Z</time></trkpt><trkpt lat="41.7218364" lon="3.3032514"><ele>0.0</ele><time>2026-04-30T12:17:05.043Z</time></trkpt><trkpt lat="41.7218696" lon="3.3033601"><ele>0.0</ele><time>2026-04-30T12:17:06.043Z</time></trkpt><trkpt lat="41.7219395" lon="3.3035789"><ele>0.0</ele><time>2026-04-30T12:17:08.044Z</time></trkpt><trkpt lat="41.7219692" lon="3.3036883"><ele>0.0</ele><time>2026-04-30T12:17:09.043Z</time></trkpt><trkpt lat="41.7219976" lon="3.3038027"><ele>0.0</ele><time>2026-04-30T12:17:10.044Z</time></trkpt><trkpt lat="41.7220271" lon="3.3039118"><ele>0.0</ele><time>2026-04-30T12:17:11.043Z</time></trkpt><trkpt lat="41.7220628" lon="3.3040201"><ele>0.0</ele><time>2026-04-30T12:17:12.044Z</time></trkpt><trkpt lat="41.722101" lon="3.3041285"><ele>0.0</ele><time>2026-04-30T12:17:13.044Z</time></trkpt><trkpt lat="41.7221331" lon="3.3042381"><ele>0.0</ele><time>2026-04-30T12:17:14.043Z</time></trkpt><trkpt lat="41.7221739" lon="3.3043482"><ele>0.0</ele><time>2026-04-30T12:17:15.043Z</time></trkpt><trkpt lat="41.7222026" lon="3.3044613"><ele>0.0</ele><time>2026-04-30T12:17:16.043Z</time></trkpt><trkpt lat="41.7222245" lon="3.3045773"><ele>0.0</ele><time>2026-04-30T12:17:17.044Z</time></trkpt><trkpt lat="41.7222479" lon="3.3046868"><ele>0.0</ele><time>2026-04-30T12:17:18.044Z</time></trkpt><trkpt lat="41.7222796" lon="3.3047952"><ele>0.0</ele><time>2026-04-30T12:17:19.044Z</time></trkpt><trkpt lat="41.7223118" lon="3.3049033"><ele>0.0</ele><time>2026-04-30T12:17:20.043Z</time></trkpt><trkpt lat="41.7223435" lon="3.3050131"><ele>0.0</ele><time>2026-04-30T12:17:21.043Z</time></trkpt><trkpt lat="41.7223696" lon="3.3051177"><ele>0.0</ele><time>2026-04-30T12:17:22.043Z</time></trkpt><trkpt lat="41.7224247" lon="3.3053287"><ele>0.0</ele><time>2026-04-30T12:17:24.043Z</time></trkpt><trkpt lat="41.7224531" lon="3.3054338"><ele>0.0</ele><time>2026-04-30T12:17:25.044Z</time></trkpt><trkpt lat="41.7224838" lon="3.305542"><ele>0.0</ele><time>2026-04-30T12:17:26.044Z</time></trkpt><trkpt lat="41.7225175" lon="3.3056501"><ele>0.0</ele><time>2026-04-30T12:17:27.044Z</time></trkpt><trkpt lat="41.7225821" lon="3.3058712"><ele>0.0</ele><time>2026-04-30T12:17:29.044Z</time></trkpt><trkpt lat="41.7226121" lon="3.3059846"><ele>0.0</ele><time>2026-04-30T12:17:30.043Z</time></trkpt><trkpt lat="41.7226445" lon="3.3060964"><ele>0.0</ele><time>2026-04-30T12:17:31.043Z</time></trkpt><trkpt lat="41.722678" lon="3.3062124"><ele>0.0</ele><time>2026-04-30T12:17:32.044Z</time></trkpt><trkpt lat="41.7227115" lon="3.3063271"><ele>0.0</ele><time>2026-04-30T12:17:33.043Z</time></trkpt><trkpt lat="41.7227479" lon="3.306435"><ele>0.0</ele><time>2026-04-30T12:17:34.043Z</time></trkpt><trkpt lat="41.7227771" lon="3.3065422"><ele>0.0</ele><time>2026-04-30T12:17:35.044Z</time></trkpt><trkpt lat="41.7228025" lon="3.3066501"><ele>0.0</ele><time>2026-04-30T12:17:36.044Z</time></trkpt><trkpt lat="41.7228364" lon="3.3067625"><ele>0.0</ele><time>2026-04-30T12:17:37.043Z</time></trkpt><trkpt lat="41.7228716" lon="3.3068745"><ele>0.0</ele><time>2026-04-30T12:17:38.043Z</time></trkpt><trkpt lat="41.7229024" lon="3.3069806"><ele>0.0</ele><time>2026-04-30T12:17:39.043Z</time></trkpt><trkpt lat="41.7229383" lon="3.3070927"><ele>0.0</ele><time>2026-04-30T12:17:40.044Z</time></trkpt><trkpt lat="41.7229677" lon="3.3072017"><ele>0.0</ele><time>2026-04-30T12:17:41.044Z</time></trkpt><trkpt lat="41.7229984" lon="3.3073044"><ele>0.0</ele><time>2026-04-30T12:17:42.044Z</time></trkpt><trkpt lat="41.7230319" lon="3.3074135"><ele>0.0</ele><time>2026-04-30T12:17:43.044Z</time></trkpt><trkpt lat="41.7230693" lon="3.3075263"><ele>0.0</ele><time>2026-04-30T12:17:44.043Z</time></trkpt><trkpt lat="41.7231061" lon="3.3076367"><ele>0.0</ele><time>2026-04-30T12:17:45.043Z</time></trkpt><trkpt lat="41.7231386" lon="3.3077478"><ele>0.0</ele><time>2026-04-30T12:17:46.043Z</time></trkpt><trkpt lat="41.7231761" lon="3.3078609"><ele>0.0</ele><time>2026-04-30T12:17:47.043Z</time></trkpt><trkpt lat="41.723246" lon="3.3080837"><ele>0.0</ele><time>2026-04-30T12:17:49.043Z</time></trkpt><trkpt lat="41.7232791" lon="3.3081932"><ele>0.0</ele><time>2026-04-30T12:17:50.043Z</time></trkpt><trkpt lat="41.7233123" lon="3.3083005"><ele>0.0</ele><time>2026-04-30T12:17:51.043Z</time></trkpt><trkpt lat="41.7233521" lon="3.3084085"><ele>0.0</ele><time>2026-04-30T12:17:52.044Z</time></trkpt><trkpt lat="41.7233909" lon="3.3085155"><ele>0.0</ele><time>2026-04-30T12:17:53.043Z</time></trkpt><trkpt lat="41.7234363" lon="3.3086207"><ele>0.0</ele><time>2026-04-30T12:17:54.043Z</time></trkpt><trkpt lat="41.7235077" lon="3.3088422"><ele>0.0</ele><time>2026-04-30T12:17:56.043Z</time></trkpt><trkpt lat="41.7235428" lon="3.3089529"><ele>0.0</ele><time>2026-04-30T12:17:57.043Z</time></trkpt><trkpt lat="41.7235723" lon="3.309063"><ele>0.0</ele><time>2026-04-30T12:17:58.043Z</time></trkpt><trkpt lat="41.723605" lon="3.3091731"><ele>0.0</ele><time>2026-04-30T12:17:59.043Z</time></trkpt><trkpt lat="41.7236319" lon="3.3092789"><ele>0.0</ele><time>2026-04-30T12:18:00.044Z</time></trkpt><trkpt lat="41.7236543" lon="3.3093813"><ele>0.0</ele><time>2026-04-30T12:18:01.043Z</time></trkpt><trkpt lat="41.723683" lon="3.3094847"><ele>0.0</ele><time>2026-04-30T12:18:02.043Z</time></trkpt><trkpt lat="41.7237088" lon="3.3095924"><ele>0.0</ele><time>2026-04-30T12:18:03.043Z</time></trkpt><trkpt lat="41.7237398" lon="3.3096976"><ele>0.0</ele><time>2026-04-30T12:18:04.043Z</time></trkpt><trkpt lat="41.7237716" lon="3.3098068"><ele>0.0</ele><time>2026-04-30T12:18:05.044Z</time></trkpt><trkpt lat="41.7238005" lon="3.3099166"><ele>0.0</ele><time>2026-04-30T12:18:06.043Z</time></trkpt><trkpt lat="41.7238289" lon="3.3100238"><ele>0.0</ele><time>2026-04-30T12:18:07.043Z</time></trkpt><trkpt lat="41.723856" lon="3.3101319"><ele>0.0</ele><time>2026-04-30T12:18:08.043Z</time></trkpt><trkpt lat="41.7239137" lon="3.3103487"><ele>0.0</ele><time>2026-04-30T12:18:10.044Z</time></trkpt><trkpt lat="41.7239387" lon="3.3104599"><ele>0.0</ele><time>2026-04-30T12:18:11.044Z</time></trkpt><trkpt lat="41.723967" lon="3.3105727"><ele>0.0</ele><time>2026-04-30T12:18:12.043Z</time></trkpt><trkpt lat="41.7239986" lon="3.3106818"><ele>0.0</ele><time>2026-04-30T12:18:13.043Z</time></trkpt><trkpt lat="41.7240277" lon="3.3107987"><ele>0.0</ele><time>2026-04-30T12:18:14.043Z</time></trkpt><trkpt lat="41.7240573" lon="3.3109122"><ele>0.0</ele><time>2026-04-30T12:18:15.043Z</time></trkpt><trkpt lat="41.7240788" lon="3.3110258"><ele>0.0</ele><time>2026-04-30T12:18:16.044Z</time></trkpt><trkpt lat="41.7241115" lon="3.3111351"><ele>0.0</ele><time>2026-04-30T12:18:17.043Z</time></trkpt><trkpt lat="41.7241417" lon="3.3112423"><ele>0.0</ele><time>2026-04-30T12:18:18.044Z</time></trkpt><trkpt lat="41.7241775" lon="3.3113546"><ele>0.0</ele><time>2026-04-30T12:18:19.044Z</time></trkpt><trkpt lat="41.7242096" lon="3.3114663"><ele>0.0</ele><time>2026-04-30T12:18:20.043Z</time></trkpt><trkpt lat="41.7242503" lon="3.311571"><ele>0.0</ele><time>2026-04-30T12:18:21.044Z</time></trkpt><trkpt lat="41.7242876" lon="3.3116816"><ele>0.0</ele><time>2026-04-30T12:18:22.043Z</time></trkpt><trkpt lat="41.7243232" lon="3.3117875"><ele>0.0</ele><time>2026-04-30T12:18:23.043Z</time></trkpt><trkpt lat="41.7243508" lon="3.31189"><ele>0.0</ele><time>2026-04-30T12:18:24.044Z</time></trkpt><trkpt lat="41.7243795" lon="3.312"><ele>0.0</ele><time>2026-04-30T12:18:25.043Z</time></trkpt><trkpt lat="41.7244118" lon="3.3121125"><ele>0.0</ele><time>2026-04-30T12:18:26.044Z</time></trkpt><trkpt lat="41.7244491" lon="3.3122201"><ele>0.0</ele><time>2026-04-30T12:18:27.044Z</time></trkpt><trkpt lat="41.7244876" lon="3.312327"><ele>0.0</ele><time>2026-04-30T12:18:28.044Z</time></trkpt><trkpt lat="41.724522" lon="3.3124407"><ele>0.0</ele><time>2026-04-30T12:18:29.043Z</time></trkpt><trkpt lat="41.7245846" lon="3.3126659"><ele>0.0</ele><time>2026-04-30T12:18:31.044Z</time></trkpt><trkpt lat="41.7246152" lon="3.3127767"><ele>0.0</ele><time>2026-04-30T12:18:32.044Z</time></trkpt><trkpt lat="41.7246438" lon="3.3128865"><ele>0.0</ele><time>2026-04-30T12:18:33.044Z</time></trkpt><trkpt lat="41.7246651" lon="3.3129979"><ele>0.0</ele><time>2026-04-30T12:18:34.043Z</time></trkpt><trkpt lat="41.7246903" lon="3.3131082"><ele>0.0</ele><time>2026-04-30T12:18:35.044Z</time></trkpt><trkpt lat="41.724721" lon="3.313217"><ele>0.0</ele><time>2026-04-30T12:18:36.044Z</time></trkpt><trkpt lat="41.7247529" lon="3.3133237"><ele>0.0</ele><time>2026-04-30T12:18:37.044Z</time></trkpt><trkpt lat="41.7247839" lon="3.3134318"><ele>0.0</ele><time>2026-04-30T12:18:38.043Z</time></trkpt><trkpt lat="41.724817" lon="3.3135445"><ele>0.0</ele><time>2026-04-30T12:18:39.043Z</time></trkpt><trkpt lat="41.7248439" lon="3.3136592"><ele>0.0</ele><time>2026-04-30T12:18:40.044Z</time></trkpt><trkpt lat="41.7248701" lon="3.3137728"><ele>0.0</ele><time>2026-04-30T12:18:41.043Z</time></trkpt><trkpt lat="41.7249081" lon="3.3138859"><ele>0.0</ele><time>2026-04-30T12:18:42.044Z</time></trkpt><trkpt lat="41.7249444" lon="3.3139964"><ele>0.0</ele><time>2026-04-30T12:18:43.043Z</time></trkpt><trkpt lat="41.7249784" lon="3.3141052"><ele>0.0</ele><time>2026-04-30T12:18:44.043Z</time></trkpt><trkpt lat="41.7250146" lon="3.3142176"><ele>0.0</ele><time>2026-04-30T12:18:45.044Z</time></trkpt><trkpt lat="41.7250426" lon="3.3143236"><ele>0.0</ele><time>2026-04-30T12:18:46.044Z</time></trkpt><trkpt lat="41.7250748" lon="3.3144332"><ele>0.0</ele><time>2026-04-30T12:18:47.044Z</time></trkpt><trkpt lat="41.7251082" lon="3.3145389"><ele>0.0</ele><time>2026-04-30T12:18:48.044Z</time></trkpt><trkpt lat="41.7251386" lon="3.3146443"><ele>0.0</ele><time>2026-04-30T12:18:49.044Z</time></trkpt><trkpt lat="41.7251758" lon="3.3147503"><ele>0.0</ele><time>2026-04-30T12:18:50.044Z</time></trkpt><trkpt lat="41.7252465" lon="3.3149651"><ele>0.0</ele><time>2026-04-30T12:18:52.044Z</time></trkpt><trkpt lat="41.7252728" lon="3.3150747"><ele>0.0</ele><time>2026-04-30T12:18:53.044Z</time></trkpt><trkpt lat="41.7253034" lon="3.315189"><ele>0.0</ele><time>2026-04-30T12:18:54.044Z</time></trkpt><trkpt lat="41.7253292" lon="3.315298"><ele>0.0</ele><time>2026-04-30T12:18:55.044Z</time></trkpt><trkpt lat="41.725356" lon="3.3154008"><ele>0.0</ele><time>2026-04-30T12:18:56.044Z</time></trkpt><trkpt lat="41.7253868" lon="3.3155128"><ele>0.0</ele><time>2026-04-30T12:18:57.044Z</time></trkpt><trkpt lat="41.7254169" lon="3.3156229"><ele>0.0</ele><time>2026-04-30T12:18:58.043Z</time></trkpt><trkpt lat="41.7254471" lon="3.3157287"><ele>0.0</ele><time>2026-04-30T12:18:59.043Z</time></trkpt><trkpt lat="41.7254816" lon="3.3158436"><ele>0.0</ele><time>2026-04-30T12:19:00.043Z</time></trkpt><trkpt lat="41.7255166" lon="3.3159546"><ele>0.0</ele><time>2026-04-30T12:19:01.043Z</time></trkpt><trkpt lat="41.7255502" lon="3.316062"><ele>0.0</ele><time>2026-04-30T12:19:02.044Z</time></trkpt><trkpt lat="41.725585" lon="3.3161716"><ele>0.0</ele><time>2026-04-30T12:19:03.044Z</time></trkpt><trkpt lat="41.7256154" lon="3.3162815"><ele>0.0</ele><time>2026-04-30T12:19:04.044Z</time></trkpt><trkpt lat="41.7256436" lon="3.3163874"><ele>0.0</ele><time>2026-04-30T12:19:05.044Z</time></trkpt><trkpt lat="41.7256737" lon="3.3164937"><ele>0.0</ele><time>2026-04-30T12:19:06.043Z</time></trkpt><trkpt lat="41.7257048" lon="3.3166019"><ele>0.0</ele><time>2026-04-30T12:19:07.044Z</time></trkpt><trkpt lat="41.7257354" lon="3.3167129"><ele>0.0</ele><time>2026-04-30T12:19:08.043Z</time></trkpt><trkpt lat="41.7257638" lon="3.3168217"><ele>0.0</ele><time>2026-04-30T12:19:09.044Z</time></trkpt><trkpt lat="41.7257924" lon="3.3169328"><ele>0.0</ele><time>2026-04-30T12:19:10.044Z</time></trkpt><trkpt lat="41.7258206" lon="3.3170445"><ele>0.0</ele><time>2026-04-30T12:19:11.043Z</time></trkpt><trkpt lat="41.7258819" lon="3.3172665"><ele>0.0</ele><time>2026-04-30T12:19:13.043Z</time></trkpt><trkpt lat="41.7259137" lon="3.3173734"><ele>0.0</ele><time>2026-04-30T12:19:14.043Z</time></trkpt><trkpt lat="41.7259368" lon="3.3174848"><ele>0.0</ele><time>2026-04-30T12:19:15.044Z</time></trkpt><trkpt lat="41.7259667" lon="3.317592"><ele>0.0</ele><time>2026-04-30T12:19:16.044Z</time></trkpt><trkpt lat="41.7260011" lon="3.3177029"><ele>0.0</ele><time>2026-04-30T12:19:17.043Z</time></trkpt><trkpt lat="41.7260303" lon="3.31781"><ele>0.0</ele><time>2026-04-30T12:19:18.044Z</time></trkpt><trkpt lat="41.7260657" lon="3.3179172"><ele>0.0</ele><time>2026-04-30T12:19:19.043Z</time></trkpt><trkpt lat="41.7260925" lon="3.3180278"><ele>0.0</ele><time>2026-04-30T12:19:20.044Z</time></trkpt><trkpt lat="41.7261238" lon="3.3181379"><ele>0.0</ele><time>2026-04-30T12:19:21.044Z</time></trkpt><trkpt lat="41.7261612" lon="3.3182482"><ele>0.0</ele><time>2026-04-30T12:19:22.043Z</time></trkpt><trkpt lat="41.7261934" lon="3.3183552"><ele>0.0</ele><time>2026-04-30T12:19:23.044Z</time></trkpt><trkpt lat="41.7262222" lon="3.3184663"><ele>0.0</ele><time>2026-04-30T12:19:24.044Z</time></trkpt><trkpt lat="41.7262522" lon="3.3185764"><ele>0.0</ele><time>2026-04-30T12:19:25.044Z</time></trkpt><trkpt lat="41.7262836" lon="3.3186865"><ele>0.0</ele><time>2026-04-30T12:19:26.044Z</time></trkpt><trkpt lat="41.7263164" lon="3.318795"><ele>0.0</ele><time>2026-04-30T12:19:27.043Z</time></trkpt><trkpt lat="41.7263499" lon="3.3189034"><ele>0.0</ele><time>2026-04-30T12:19:28.043Z</time></trkpt><trkpt lat="41.7263821" lon="3.3190117"><ele>0.0</ele><time>2026-04-30T12:19:29.044Z</time></trkpt><trkpt lat="41.726415" lon="3.3191187"><ele>0.0</ele><time>2026-04-30T12:19:30.043Z</time></trkpt><trkpt lat="41.7264499" lon="3.3192253"><ele>0.0</ele><time>2026-04-30T12:19:31.044Z</time></trkpt><trkpt lat="41.7264837" lon="3.3193333"><ele>0.0</ele><time>2026-04-30T12:19:32.044Z</time></trkpt><trkpt lat="41.726547" lon="3.3195483"><ele>0.0</ele><time>2026-04-30T12:19:34.043Z</time></trkpt><trkpt lat="41.7265833" lon="3.3196553"><ele>0.0</ele><time>2026-04-30T12:19:35.043Z</time></trkpt><trkpt lat="41.7266159" lon="3.3197633"><ele>0.0</ele><time>2026-04-30T12:19:36.043Z</time></trkpt><trkpt lat="41.7266411" lon="3.3198703"><ele>0.0</ele><time>2026-04-30T12:19:37.043Z</time></trkpt><trkpt lat="41.7266686" lon="3.3199727"><ele>0.0</ele><time>2026-04-30T12:19:38.044Z</time></trkpt><trkpt lat="41.7267001" lon="3.32008"><ele>0.0</ele><time>2026-04-30T12:19:39.044Z</time></trkpt><trkpt lat="41.7267328" lon="3.3201899"><ele>0.0</ele><time>2026-04-30T12:19:40.043Z</time></trkpt><trkpt lat="41.726765" lon="3.3202997"><ele>0.0</ele><time>2026-04-30T12:19:41.044Z</time></trkpt><trkpt lat="41.7267997" lon="3.3204098"><ele>0.0</ele><time>2026-04-30T12:19:42.044Z</time></trkpt><trkpt lat="41.7268274" lon="3.320517"><ele>0.0</ele><time>2026-04-30T12:19:43.043Z</time></trkpt><trkpt lat="41.7268626" lon="3.3206336"><ele>0.0</ele><time>2026-04-30T12:19:44.043Z</time></trkpt><trkpt lat="41.7268936" lon="3.3207473"><ele>0.0</ele><time>2026-04-30T12:19:45.043Z</time></trkpt><trkpt lat="41.726922" lon="3.3208581"><ele>0.0</ele><time>2026-04-30T12:19:46.044Z</time></trkpt><trkpt lat="41.7269535" lon="3.3209695"><ele>0.0</ele><time>2026-04-30T12:19:47.044Z</time></trkpt><trkpt lat="41.7269878" lon="3.3210784"><ele>0.0</ele><time>2026-04-30T12:19:48.043Z</time></trkpt><trkpt lat="41.7270231" lon="3.321188"><ele>0.0</ele><time>2026-04-30T12:19:49.044Z</time></trkpt><trkpt lat="41.7270566" lon="3.3212967"><ele>0.0</ele><time>2026-04-30T12:19:50.044Z</time></trkpt><trkpt lat="41.7270899" lon="3.3214066"><ele>0.0</ele><time>2026-04-30T12:19:51.043Z</time></trkpt><trkpt lat="41.7271162" lon="3.3215093"><ele>0.0</ele><time>2026-04-30T12:19:52.043Z</time></trkpt><trkpt lat="41.7271524" lon="3.3216157"><ele>0.0</ele><time>2026-04-30T12:19:53.043Z</time></trkpt><trkpt lat="41.7272253" lon="3.321833"><ele>0.0</ele><time>2026-04-30T12:19:55.044Z</time></trkpt><trkpt lat="41.7272611" lon="3.3219402"><ele>0.0</ele><time>2026-04-30T12:19:56.044Z</time></trkpt><trkpt lat="41.727292" lon="3.3220513"><ele>0.0</ele><time>2026-04-30T12:19:57.043Z</time></trkpt><trkpt lat="41.7273262" lon="3.3221657"><ele>0.0</ele><time>2026-04-30T12:19:58.043Z</time></trkpt><trkpt lat="41.727359" lon="3.3222765"><ele>0.0</ele><time>2026-04-30T12:19:59.043Z</time></trkpt><trkpt lat="41.7273919" lon="3.3223934"><ele>0.0</ele><time>2026-04-30T12:20:00.043Z</time></trkpt><trkpt lat="41.7274236" lon="3.3225076"><ele>0.0</ele><time>2026-04-30T12:20:01.043Z</time></trkpt><trkpt lat="41.7274569" lon="3.3226123"><ele>0.0</ele><time>2026-04-30T12:20:02.043Z</time></trkpt><trkpt lat="41.7274918" lon="3.3227185"><ele>0.0</ele><time>2026-04-30T12:20:03.044Z</time></trkpt><trkpt lat="41.7275239" lon="3.3228251"><ele>0.0</ele><time>2026-04-30T12:20:04.044Z</time></trkpt><trkpt lat="41.7275567" lon="3.3229321"><ele>0.0</ele><time>2026-04-30T12:20:05.044Z</time></trkpt><trkpt lat="41.7275887" lon="3.3230386"><ele>0.0</ele><time>2026-04-30T12:20:06.044Z</time></trkpt><trkpt lat="41.7276199" lon="3.323141"><ele>0.0</ele><time>2026-04-30T12:20:07.044Z</time></trkpt><trkpt lat="41.727644" lon="3.3232472"><ele>0.0</ele><time>2026-04-30T12:20:08.043Z</time></trkpt><trkpt lat="41.7276776" lon="3.3233609"><ele>0.0</ele><time>2026-04-30T12:20:09.044Z</time></trkpt><trkpt lat="41.7277081" lon="3.3234701"><ele>0.0</ele><time>2026-04-30T12:20:10.043Z</time></trkpt><trkpt lat="41.7277423" lon="3.3235789"><ele>0.0</ele><time>2026-04-30T12:20:11.043Z</time></trkpt><trkpt lat="41.7277734" lon="3.3236885"><ele>0.0</ele><time>2026-04-30T12:20:12.044Z</time></trkpt><trkpt lat="41.7278008" lon="3.3237956"><ele>0.0</ele><time>2026-04-30T12:20:13.044Z</time></trkpt><trkpt lat="41.7278261" lon="3.3239036"><ele>0.0</ele><time>2026-04-30T12:20:14.044Z</time></trkpt><trkpt lat="41.7278853" lon="3.3241218"><ele>0.0</ele><time>2026-04-30T12:20:16.043Z</time></trkpt><trkpt lat="41.7279125" lon="3.3242289"><ele>0.0</ele><time>2026-04-30T12:20:17.044Z</time></trkpt><trkpt lat="41.7279379" lon="3.3243442"><ele>0.0</ele><time>2026-04-30T12:20:18.044Z</time></trkpt><trkpt lat="41.7279624" lon="3.3244592"><ele>0.0</ele><time>2026-04-30T12:20:19.043Z</time></trkpt><trkpt lat="41.7279903" lon="3.3245683"><ele>0.0</ele><time>2026-04-30T12:20:20.044Z</time></trkpt><trkpt lat="41.7280202" lon="3.3246795"><ele>0.0</ele><time>2026-04-30T12:20:21.044Z</time></trkpt><trkpt lat="41.7280503" lon="3.3247927"><ele>0.0</ele><time>2026-04-30T12:20:22.043Z</time></trkpt><trkpt lat="41.7280844" lon="3.3249002"><ele>0.0</ele><time>2026-04-30T12:20:23.044Z</time></trkpt><trkpt lat="41.728121" lon="3.3250125"><ele>0.0</ele><time>2026-04-30T12:20:24.043Z</time></trkpt><trkpt lat="41.728152" lon="3.3251217"><ele>0.0</ele><time>2026-04-30T12:20:25.044Z</time></trkpt><trkpt lat="41.7281833" lon="3.3252258"><ele>0.0</ele><time>2026-04-30T12:20:26.043Z</time></trkpt><trkpt lat="41.7282116" lon="3.3253348"><ele>0.0</ele><time>2026-04-30T12:20:27.043Z</time></trkpt><trkpt lat="41.7282461" lon="3.3254419"><ele>0.0</ele><time>2026-04-30T12:20:28.043Z</time></trkpt><trkpt lat="41.7282741" lon="3.3255527"><ele>0.0</ele><time>2026-04-30T12:20:29.043Z</time></trkpt><trkpt lat="41.7283081" lon="3.3256601"><ele>0.0</ele><time>2026-04-30T12:20:30.043Z</time></trkpt><trkpt lat="41.7283376" lon="3.325767"><ele>0.0</ele><time>2026-04-30T12:20:31.043Z</time></trkpt><trkpt lat="41.7283653" lon="3.3258778"><ele>0.0</ele><time>2026-04-30T12:20:32.043Z</time></trkpt><trkpt lat="41.7283929" lon="3.3259893"><ele>0.0</ele><time>2026-04-30T12:20:33.043Z</time></trkpt><trkpt lat="41.7284195" lon="3.3260999"><ele>0.0</ele><time>2026-04-30T12:20:34.044Z</time></trkpt><trkpt lat="41.7284459" lon="3.3262085"><ele>0.0</ele><time>2026-04-30T12:20:35.044Z</time></trkpt><trkpt lat="41.7285" lon="3.3264253"><ele>0.0</ele><time>2026-04-30T12:20:37.044Z</time></trkpt><trkpt lat="41.7285328" lon="3.3265351"><ele>0.0</ele><time>2026-04-30T12:20:38.043Z</time></trkpt><trkpt lat="41.7285678" lon="3.3266433"><ele>0.0</ele><time>2026-04-30T12:20:39.044Z</time></trkpt><trkpt lat="41.7286053" lon="3.3267519"><ele>0.0</ele><time>2026-04-30T12:20:40.043Z</time></trkpt><trkpt lat="41.7286437" lon="3.3268589"><ele>0.0</ele><time>2026-04-30T12:20:41.044Z</time></trkpt><trkpt lat="41.7286768" lon="3.3269665"><ele>0.0</ele><time>2026-04-30T12:20:42.044Z</time></trkpt><trkpt lat="41.7287053" lon="3.3270752"><ele>0.0</ele><time>2026-04-30T12:20:43.043Z</time></trkpt><trkpt lat="41.7287409" lon="3.3271821"><ele>0.0</ele><time>2026-04-30T12:20:44.043Z</time></trkpt><trkpt lat="41.7287735" lon="3.3272862"><ele>0.0</ele><time>2026-04-30T12:20:45.044Z</time></trkpt><trkpt lat="41.7288038" lon="3.3273937"><ele>0.0</ele><time>2026-04-30T12:20:46.043Z</time></trkpt><trkpt lat="41.7288366" lon="3.3275029"><ele>0.0</ele><time>2026-04-30T12:20:47.044Z</time></trkpt><trkpt lat="41.7288697" lon="3.327616"><ele>0.0</ele><time>2026-04-30T12:20:48.044Z</time></trkpt><trkpt lat="41.7289051" lon="3.3277234"><ele>0.0</ele><time>2026-04-30T12:20:49.043Z</time></trkpt><trkpt lat="41.7289374" lon="3.3278261"><ele>0.0</ele><time>2026-04-30T12:20:50.044Z</time></trkpt><trkpt lat="41.7289602" lon="3.3279309"><ele>0.0</ele><time>2026-04-30T12:20:51.044Z</time></trkpt><trkpt lat="41.7289902" lon="3.32804"><ele>0.0</ele><time>2026-04-30T12:20:52.044Z</time></trkpt><trkpt lat="41.7290247" lon="3.3281525"><ele>0.0</ele><time>2026-04-30T12:20:53.043Z</time></trkpt><trkpt lat="41.7290598" lon="3.3282615"><ele>0.0</ele><time>2026-04-30T12:20:54.043Z</time></trkpt><trkpt lat="41.7291021" lon="3.32837"><ele>0.0</ele><time>2026-04-30T12:20:55.044Z</time></trkpt><trkpt lat="41.7291308" lon="3.3284798"><ele>0.0</ele><time>2026-04-30T12:20:56.044Z</time></trkpt><trkpt lat="41.7291925" lon="3.3286985"><ele>0.0</ele><time>2026-04-30T12:20:58.044Z</time></trkpt><trkpt lat="41.729234" lon="3.328808"><ele>0.0</ele><time>2026-04-30T12:20:59.044Z</time></trkpt><trkpt lat="41.7292672" lon="3.3289194"><ele>0.0</ele><time>2026-04-30T12:21:00.043Z</time></trkpt><trkpt lat="41.7293028" lon="3.3290296"><ele>0.0</ele><time>2026-04-30T12:21:01.043Z</time></trkpt><trkpt lat="41.729341" lon="3.3291383"><ele>0.0</ele><time>2026-04-30T12:21:02.044Z</time></trkpt><trkpt lat="41.7293792" lon="3.3292521"><ele>0.0</ele><time>2026-04-30T12:21:03.043Z</time></trkpt><trkpt lat="41.7294165" lon="3.3293601"><ele>0.0</ele><time>2026-04-30T12:21:04.043Z</time></trkpt><trkpt lat="41.7294681" lon="3.3295733"><ele>0.0</ele><time>2026-04-30T12:21:06.043Z</time></trkpt><trkpt lat="41.7294884" lon="3.329683"><ele>0.0</ele><time>2026-04-30T12:21:07.043Z</time></trkpt><trkpt lat="41.7295184" lon="3.3297887"><ele>0.0</ele><time>2026-04-30T12:21:08.043Z</time></trkpt><trkpt lat="41.7295466" lon="3.3298937"><ele>0.0</ele><time>2026-04-30T12:21:09.044Z</time></trkpt><trkpt lat="41.7295665" lon="3.3300046"><ele>0.0</ele><time>2026-04-30T12:21:10.043Z</time></trkpt><trkpt lat="41.7295917" lon="3.3301149"><ele>0.0</ele><time>2026-04-30T12:21:11.043Z</time></trkpt><trkpt lat="41.7296324" lon="3.3302235"><ele>0.0</ele><time>2026-04-30T12:21:12.043Z</time></trkpt><trkpt lat="41.7296672" lon="3.3303279"><ele>0.0</ele><time>2026-04-30T12:21:13.043Z</time></trkpt><trkpt lat="41.7297021" lon="3.3304368"><ele>0.0</ele><time>2026-04-30T12:21:14.043Z</time></trkpt><trkpt lat="41.7297317" lon="3.3305467"><ele>0.0</ele><time>2026-04-30T12:21:15.044Z</time></trkpt><trkpt lat="41.72976" lon="3.3306554"><ele>0.0</ele><time>2026-04-30T12:21:16.044Z</time></trkpt><trkpt lat="41.7297874" lon="3.3307649"><ele>0.0</ele><time>2026-04-30T12:21:17.044Z</time></trkpt><trkpt lat="41.7298496" lon="3.3309871"><ele>0.0</ele><time>2026-04-30T12:21:19.043Z</time></trkpt><trkpt lat="41.7298813" lon="3.3310978"><ele>0.0</ele><time>2026-04-30T12:21:20.044Z</time></trkpt><trkpt lat="41.7299133" lon="3.3312093"><ele>0.0</ele><time>2026-04-30T12:21:21.044Z</time></trkpt><trkpt lat="41.7299403" lon="3.3313213"><ele>0.0</ele><time>2026-04-30T12:21:22.044Z</time></trkpt><trkpt lat="41.7299768" lon="3.3314344"><ele>0.0</ele><time>2026-04-30T12:21:23.043Z</time></trkpt><trkpt lat="41.7300112" lon="3.3315477"><ele>0.0</ele><time>2026-04-30T12:21:24.043Z</time></trkpt><trkpt lat="41.7300307" lon="3.3316552"><ele>0.0</ele><time>2026-04-30T12:21:25.043Z</time></trkpt><trkpt lat="41.7300633" lon="3.3317663"><ele>0.0</ele><time>2026-04-30T12:21:26.043Z</time></trkpt><trkpt lat="41.730095" lon="3.3318724"><ele>0.0</ele><time>2026-04-30T12:21:27.042Z</time></trkpt><trkpt lat="41.7301269" lon="3.331976"><ele>0.0</ele><time>2026-04-30T12:21:28.042Z</time></trkpt><trkpt lat="41.7301541" lon="3.3320809"><ele>0.0</ele><time>2026-04-30T12:21:29.042Z</time></trkpt><trkpt lat="41.7301809" lon="3.3321817"><ele>0.0</ele><time>2026-04-30T12:21:30.042Z</time></trkpt><trkpt lat="41.7302122" lon="3.3322886"><ele>0.0</ele><time>2026-04-30T12:21:31.042Z</time></trkpt><trkpt lat="41.7302416" lon="3.3323979"><ele>0.0</ele><time>2026-04-30T12:21:32.042Z</time></trkpt><trkpt lat="41.730277" lon="3.332508"><ele>0.0</ele><time>2026-04-30T12:21:33.042Z</time></trkpt><trkpt lat="41.7303109" lon="3.3326238"><ele>0.0</ele><time>2026-04-30T12:21:34.042Z</time></trkpt><trkpt lat="41.7303547" lon="3.3327305"><ele>0.0</ele><time>2026-04-30T12:21:35.042Z</time></trkpt><trkpt lat="41.7303911" lon="3.3328329"><ele>0.0</ele><time>2026-04-30T12:21:36.042Z</time></trkpt><trkpt lat="41.7304545" lon="3.3330498"><ele>0.0</ele><time>2026-04-30T12:21:38.042Z</time></trkpt><trkpt lat="41.7305202" lon="3.3332645"><ele>0.0</ele><time>2026-04-30T12:21:40.043Z</time></trkpt><trkpt lat="41.7305501" lon="3.3333766"><ele>0.0</ele><time>2026-04-30T12:21:41.043Z</time></trkpt><trkpt lat="41.7305826" lon="3.3334867"><ele>0.0</ele><time>2026-04-30T12:21:42.043Z</time></trkpt><trkpt lat="41.7306065" lon="3.3335976"><ele>0.0</ele><time>2026-04-30T12:21:43.042Z</time></trkpt><trkpt lat="41.7306316" lon="3.3337121"><ele>0.0</ele><time>2026-04-30T12:21:44.042Z</time></trkpt><trkpt lat="41.7306684" lon="3.3338287"><ele>0.0</ele><time>2026-04-30T12:21:45.042Z</time></trkpt><trkpt lat="41.7306972" lon="3.3339385"><ele>0.0</ele><time>2026-04-30T12:21:46.042Z</time></trkpt><trkpt lat="41.7307293" lon="3.3340398"><ele>0.0</ele><time>2026-04-30T12:21:47.042Z</time></trkpt><trkpt lat="41.7307676" lon="3.3341399"><ele>0.0</ele><time>2026-04-30T12:21:48.042Z</time></trkpt><trkpt lat="41.7308089" lon="3.3342425"><ele>0.0</ele><time>2026-04-30T12:21:49.043Z</time></trkpt><trkpt lat="41.7308506" lon="3.3343457"><ele>0.0</ele><time>2026-04-30T12:21:50.043Z</time></trkpt><trkpt lat="41.7308882" lon="3.3344531"><ele>0.0</ele><time>2026-04-30T12:21:51.042Z</time></trkpt><trkpt lat="41.7309221" lon="3.3345701"><ele>0.0</ele><time>2026-04-30T12:21:52.043Z</time></trkpt><trkpt lat="41.7309578" lon="3.3346799"><ele>0.0</ele><time>2026-04-30T12:21:53.042Z</time></trkpt><trkpt lat="41.7309901" lon="3.3347884"><ele>0.0</ele><time>2026-04-30T12:21:54.042Z</time></trkpt><trkpt lat="41.7310247" lon="3.3348953"><ele>0.0</ele><time>2026-04-30T12:21:55.043Z</time></trkpt><trkpt lat="41.7310555" lon="3.3350017"><ele>0.0</ele><time>2026-04-30T12:21:56.042Z</time></trkpt><trkpt lat="41.7310856" lon="3.3351117"><ele>0.0</ele><time>2026-04-30T12:21:57.042Z</time></trkpt><trkpt lat="41.7311181" lon="3.335226"><ele>0.0</ele><time>2026-04-30T12:21:58.042Z</time></trkpt><trkpt lat="41.7311469" lon="3.3353353"><ele>0.0</ele><time>2026-04-30T12:21:59.042Z</time></trkpt><trkpt lat="41.7312031" lon="3.335556"><ele>0.0</ele><time>2026-04-30T12:22:01.043Z</time></trkpt><trkpt lat="41.7312332" lon="3.3356635"><ele>0.0</ele><time>2026-04-30T12:22:02.043Z</time></trkpt><trkpt lat="41.731263" lon="3.3357748"><ele>0.0</ele><time>2026-04-30T12:22:03.043Z</time></trkpt><trkpt lat="41.731293" lon="3.3358879"><ele>0.0</ele><time>2026-04-30T12:22:04.043Z</time></trkpt><trkpt lat="41.7313232" lon="3.3359995"><ele>0.0</ele><time>2026-04-30T12:22:05.043Z</time></trkpt><trkpt lat="41.7313572" lon="3.3361054"><ele>0.0</ele><time>2026-04-30T12:22:06.042Z</time></trkpt><trkpt lat="41.7313939" lon="3.3362092"><ele>0.0</ele><time>2026-04-30T12:22:07.043Z</time></trkpt><trkpt lat="41.7314201" lon="3.3363182"><ele>0.0</ele><time>2026-04-30T12:22:08.042Z</time></trkpt><trkpt lat="41.7314438" lon="3.3364226"><ele>0.0</ele><time>2026-04-30T12:22:09.042Z</time></trkpt><trkpt lat="41.7314702" lon="3.3365303"><ele>0.0</ele><time>2026-04-30T12:22:10.042Z</time></trkpt><trkpt lat="41.7314949" lon="3.3366402"><ele>0.0</ele><time>2026-04-30T12:22:11.043Z</time></trkpt><trkpt lat="41.7315249" lon="3.3367498"><ele>0.0</ele><time>2026-04-30T12:22:12.042Z</time></trkpt><trkpt lat="41.7315533" lon="3.3368599"><ele>0.0</ele><time>2026-04-30T12:22:13.043Z</time></trkpt><trkpt lat="41.7315718" lon="3.3369672"><ele>0.0</ele><time>2026-04-30T12:22:14.042Z</time></trkpt><trkpt lat="41.7316057" lon="3.3370724"><ele>0.0</ele><time>2026-04-30T12:22:15.043Z</time></trkpt><trkpt lat="41.7316383" lon="3.3371801"><ele>0.0</ele><time>2026-04-30T12:22:16.042Z</time></trkpt><trkpt lat="41.7316677" lon="3.3372843"><ele>0.0</ele><time>2026-04-30T12:22:17.042Z</time></trkpt><trkpt lat="41.7317019" lon="3.3373936"><ele>0.0</ele><time>2026-04-30T12:22:18.043Z</time></trkpt><trkpt lat="41.7317339" lon="3.3375007"><ele>0.0</ele><time>2026-04-30T12:22:19.042Z</time></trkpt><trkpt lat="41.7317641" lon="3.3376185"><ele>0.0</ele><time>2026-04-30T12:22:20.042Z</time></trkpt><trkpt lat="41.7318255" lon="3.3378338"><ele>0.0</ele><time>2026-04-30T12:22:22.043Z</time></trkpt><trkpt lat="41.7318529" lon="3.3379445"><ele>0.0</ele><time>2026-04-30T12:22:23.042Z</time></trkpt><trkpt lat="41.7318882" lon="3.3380549"><ele>0.0</ele><time>2026-04-30T12:22:24.042Z</time></trkpt><trkpt lat="41.7319247" lon="3.338165"><ele>0.0</ele><time>2026-04-30T12:22:25.043Z</time></trkpt><trkpt lat="41.7319598" lon="3.3382816"><ele>0.0</ele><time>2026-04-30T12:22:26.043Z</time></trkpt><trkpt lat="41.7319989" lon="3.3383942"><ele>0.0</ele><time>2026-04-30T12:22:27.042Z</time></trkpt><trkpt lat="41.7320307" lon="3.3384989"><ele>0.0</ele><time>2026-04-30T12:22:28.043Z</time></trkpt><trkpt lat="41.732052" lon="3.3386066"><ele>0.0</ele><time>2026-04-30T12:22:29.042Z</time></trkpt><trkpt lat="41.7320858" lon="3.3387132"><ele>0.0</ele><time>2026-04-30T12:22:30.043Z</time></trkpt><trkpt lat="41.7321239" lon="3.3388242"><ele>0.0</ele><time>2026-04-30T12:22:31.042Z</time></trkpt><trkpt lat="41.7321614" lon="3.3389331"><ele>0.0</ele><time>2026-04-30T12:22:32.043Z</time></trkpt><trkpt lat="41.7321993" lon="3.3390373"><ele>0.0</ele><time>2026-04-30T12:22:33.042Z</time></trkpt><trkpt lat="41.7322275" lon="3.3391451"><ele>0.0</ele><time>2026-04-30T12:22:34.043Z</time></trkpt><trkpt lat="41.732256" lon="3.3392504"><ele>0.0</ele><time>2026-04-30T12:22:35.043Z</time></trkpt><trkpt lat="41.7322856" lon="3.3393682"><ele>0.0</ele><time>2026-04-30T12:22:36.043Z</time></trkpt><trkpt lat="41.7323156" lon="3.3394869"><ele>0.0</ele><time>2026-04-30T12:22:37.043Z</time></trkpt><trkpt lat="41.7323547" lon="3.3395991"><ele>0.0</ele><time>2026-04-30T12:22:38.042Z</time></trkpt><trkpt lat="41.7323901" lon="3.3397039"><ele>0.0</ele><time>2026-04-30T12:22:39.042Z</time></trkpt><trkpt lat="41.7324361" lon="3.3398075"><ele>0.0</ele><time>2026-04-30T12:22:40.043Z</time></trkpt><trkpt lat="41.7324832" lon="3.3399135"><ele>0.0</ele><time>2026-04-30T12:22:41.042Z</time></trkpt><trkpt lat="41.732552" lon="3.3401251"><ele>0.0</ele><time>2026-04-30T12:22:43.043Z</time></trkpt><trkpt lat="41.7325849" lon="3.3402289"><ele>0.0</ele><time>2026-04-30T12:22:44.042Z</time></trkpt><trkpt lat="41.7326126" lon="3.3403339"><ele>0.0</ele><time>2026-04-30T12:22:45.042Z</time></trkpt><trkpt lat="41.7326467" lon="3.3404487"><ele>0.0</ele><time>2026-04-30T12:22:46.042Z</time></trkpt><trkpt lat="41.7326783" lon="3.3405597"><ele>0.0</ele><time>2026-04-30T12:22:47.042Z</time></trkpt><trkpt lat="41.7327012" lon="3.3406669"><ele>0.0</ele><time>2026-04-30T12:22:48.042Z</time></trkpt><trkpt lat="41.7327275" lon="3.3407777"><ele>0.0</ele><time>2026-04-30T12:22:49.042Z</time></trkpt><trkpt lat="41.7327504" lon="3.3408894"><ele>0.0</ele><time>2026-04-30T12:22:50.043Z</time></trkpt><trkpt lat="41.732776" lon="3.3409954"><ele>0.0</ele><time>2026-04-30T12:22:51.042Z</time></trkpt><trkpt lat="41.7328086" lon="3.3411075"><ele>0.0</ele><time>2026-04-30T12:22:52.042Z</time></trkpt><trkpt lat="41.732836" lon="3.3412237"><ele>0.0</ele><time>2026-04-30T12:22:53.043Z</time></trkpt><trkpt lat="41.7328612" lon="3.3413321"><ele>0.0</ele><time>2026-04-30T12:22:54.042Z</time></trkpt><trkpt lat="41.7328961" lon="3.3414332"><ele>0.0</ele><time>2026-04-30T12:22:55.043Z</time></trkpt><trkpt lat="41.7329296" lon="3.3415406"><ele>0.0</ele><time>2026-04-30T12:22:56.042Z</time></trkpt><trkpt lat="41.7329616" lon="3.3416513"><ele>0.0</ele><time>2026-04-30T12:22:57.043Z</time></trkpt><trkpt lat="41.7329837" lon="3.3417644"><ele>0.0</ele><time>2026-04-30T12:22:58.042Z</time></trkpt><trkpt lat="41.7330169" lon="3.3418719"><ele>0.0</ele><time>2026-04-30T12:22:59.042Z</time></trkpt><trkpt lat="41.7330511" lon="3.3419801"><ele>0.0</ele><time>2026-04-30T12:23:00.042Z</time></trkpt><trkpt lat="41.7330877" lon="3.3420915"><ele>0.0</ele><time>2026-04-30T12:23:01.042Z</time></trkpt><trkpt lat="41.7331467" lon="3.3423056"><ele>0.0</ele><time>2026-04-30T12:23:03.043Z</time></trkpt><trkpt lat="41.7331706" lon="3.3424138"><ele>0.0</ele><time>2026-04-30T12:23:04.043Z</time></trkpt><trkpt lat="41.7332026" lon="3.3425233"><ele>0.0</ele><time>2026-04-30T12:23:05.043Z</time></trkpt><trkpt lat="41.7332422" lon="3.3426301"><ele>0.0</ele><time>2026-04-30T12:23:06.043Z</time></trkpt><trkpt lat="41.7332729" lon="3.3427397"><ele>0.0</ele><time>2026-04-30T12:23:07.042Z</time></trkpt><trkpt lat="41.7333057" lon="3.3428542"><ele>0.0</ele><time>2026-04-30T12:23:08.042Z</time></trkpt><trkpt lat="41.7333412" lon="3.3429661"><ele>0.0</ele><time>2026-04-30T12:23:09.042Z</time></trkpt><trkpt lat="41.7333566" lon="3.3430775"><ele>0.0</ele><time>2026-04-30T12:23:10.042Z</time></trkpt><trkpt lat="41.7333824" lon="3.3431895"><ele>0.0</ele><time>2026-04-30T12:23:11.043Z</time></trkpt><trkpt lat="41.7334129" lon="3.3432999"><ele>0.0</ele><time>2026-04-30T12:23:12.043Z</time></trkpt><trkpt lat="41.7334704" lon="3.3435133"><ele>0.0</ele><time>2026-04-30T12:23:14.042Z</time></trkpt><trkpt lat="41.7335002" lon="3.3436218"><ele>0.0</ele><time>2026-04-30T12:23:15.043Z</time></trkpt><trkpt lat="41.7335286" lon="3.3437261"><ele>0.0</ele><time>2026-04-30T12:23:16.042Z</time></trkpt><trkpt lat="41.7335626" lon="3.343831"><ele>0.0</ele><time>2026-04-30T12:23:17.042Z</time></trkpt><trkpt lat="41.7335961" lon="3.3439362"><ele>0.0</ele><time>2026-04-30T12:23:18.042Z</time></trkpt><trkpt lat="41.7336327" lon="3.3440368"><ele>0.0</ele><time>2026-04-30T12:23:19.042Z</time></trkpt><trkpt lat="41.7336709" lon="3.3441378"><ele>0.0</ele><time>2026-04-30T12:23:20.043Z</time></trkpt><trkpt lat="41.7337024" lon="3.3442477"><ele>0.0</ele><time>2026-04-30T12:23:21.042Z</time></trkpt><trkpt lat="41.7337193" lon="3.3443636"><ele>0.0</ele><time>2026-04-30T12:23:22.042Z</time></trkpt><trkpt lat="41.733775" lon="3.3445834"><ele>0.0</ele><time>2026-04-30T12:23:24.043Z</time></trkpt><trkpt lat="41.7338022" lon="3.3446863"><ele>0.0</ele><time>2026-04-30T12:23:25.042Z</time></trkpt><trkpt lat="41.7338349" lon="3.3447947"><ele>0.0</ele><time>2026-04-30T12:23:26.042Z</time></trkpt><trkpt lat="41.733867" lon="3.3449018"><ele>0.0</ele><time>2026-04-30T12:23:27.043Z</time></trkpt><trkpt lat="41.7338983" lon="3.3450102"><ele>0.0</ele><time>2026-04-30T12:23:28.043Z</time></trkpt><trkpt lat="41.7339301" lon="3.345117"><ele>0.0</ele><time>2026-04-30T12:23:29.043Z</time></trkpt><trkpt lat="41.7339548" lon="3.3452293"><ele>0.0</ele><time>2026-04-30T12:23:30.043Z</time></trkpt><trkpt lat="41.7339835" lon="3.3453411"><ele>0.0</ele><time>2026-04-30T12:23:31.042Z</time></trkpt><trkpt lat="41.7340169" lon="3.3454485"><ele>0.0</ele><time>2026-04-30T12:23:32.043Z</time></trkpt><trkpt lat="41.7340501" lon="3.3455551"><ele>0.0</ele><time>2026-04-30T12:23:33.042Z</time></trkpt><trkpt lat="41.7340863" lon="3.3456632"><ele>0.0</ele><time>2026-04-30T12:23:34.042Z</time></trkpt><trkpt lat="41.7341201" lon="3.3457745"><ele>0.0</ele><time>2026-04-30T12:23:35.043Z</time></trkpt><trkpt lat="41.7341524" lon="3.3458862"><ele>0.0</ele><time>2026-04-30T12:23:36.043Z</time></trkpt><trkpt lat="41.7341878" lon="3.3459964"><ele>0.0</ele><time>2026-04-30T12:23:37.043Z</time></trkpt><trkpt lat="41.7342189" lon="3.3461037"><ele>0.0</ele><time>2026-04-30T12:23:38.043Z</time></trkpt><trkpt lat="41.7342485" lon="3.3462144"><ele>0.0</ele><time>2026-04-30T12:23:39.043Z</time></trkpt><trkpt lat="41.7342816" lon="3.346323"><ele>0.0</ele><time>2026-04-30T12:23:40.043Z</time></trkpt><trkpt lat="41.7343104" lon="3.3464302"><ele>0.0</ele><time>2026-04-30T12:23:41.042Z</time></trkpt><trkpt lat="41.7343351" lon="3.3465357"><ele>0.0</ele><time>2026-04-30T12:23:42.043Z</time></trkpt><trkpt lat="41.734368" lon="3.3466535"><ele>0.0</ele><time>2026-04-30T12:23:43.042Z</time></trkpt><trkpt lat="41.7344019" lon="3.3467642"><ele>0.0</ele><time>2026-04-30T12:23:44.043Z</time></trkpt><trkpt lat="41.734474" lon="3.3469752"><ele>0.0</ele><time>2026-04-30T12:23:46.042Z</time></trkpt><trkpt lat="41.7345041" lon="3.3470848"><ele>0.0</ele><time>2026-04-30T12:23:47.043Z</time></trkpt><trkpt lat="41.7345365" lon="3.3471933"><ele>0.0</ele><time>2026-04-30T12:23:48.043Z</time></trkpt><trkpt lat="41.7345744" lon="3.3473004"><ele>0.0</ele><time>2026-04-30T12:23:49.042Z</time></trkpt><trkpt lat="41.7346121" lon="3.3474013"><ele>0.0</ele><time>2026-04-30T12:23:50.042Z</time></trkpt><trkpt lat="41.734643" lon="3.3475057"><ele>0.0</ele><time>2026-04-30T12:23:51.042Z</time></trkpt><trkpt lat="41.7346776" lon="3.3476133"><ele>0.0</ele><time>2026-04-30T12:23:52.043Z</time></trkpt><trkpt lat="41.7347082" lon="3.3477289"><ele>0.0</ele><time>2026-04-30T12:23:53.043Z</time></trkpt><trkpt lat="41.7347387" lon="3.3478369"><ele>0.0</ele><time>2026-04-30T12:23:54.042Z</time></trkpt><trkpt lat="41.7347712" lon="3.3479494"><ele>0.0</ele><time>2026-04-30T12:23:55.042Z</time></trkpt><trkpt lat="41.7348062" lon="3.3480638"><ele>0.0</ele><time>2026-04-30T12:23:56.042Z</time></trkpt><trkpt lat="41.7348398" lon="3.3481745"><ele>0.0</ele><time>2026-04-30T12:23:57.043Z</time></trkpt><trkpt lat="41.7348701" lon="3.3482817"><ele>0.0</ele><time>2026-04-30T12:23:58.043Z</time></trkpt><trkpt lat="41.7349" lon="3.3483902"><ele>0.0</ele><time>2026-04-30T12:23:59.042Z</time></trkpt><trkpt lat="41.7349274" lon="3.3484914"><ele>0.0</ele><time>2026-04-30T12:24:00.043Z</time></trkpt><trkpt lat="41.7349584" lon="3.3486001"><ele>0.0</ele><time>2026-04-30T12:24:01.042Z</time></trkpt><trkpt lat="41.7349887" lon="3.348707"><ele>0.0</ele><time>2026-04-30T12:24:02.043Z</time></trkpt><trkpt lat="41.7350143" lon="3.3488166"><ele>0.0</ele><time>2026-04-30T12:24:03.042Z</time></trkpt><trkpt lat="41.7350406" lon="3.3489236"><ele>0.0</ele><time>2026-04-30T12:24:04.042Z</time></trkpt><trkpt lat="41.7350771" lon="3.3490304"><ele>0.0</ele><time>2026-04-30T12:24:05.043Z</time></trkpt><trkpt lat="41.7351395" lon="3.3492501"><ele>0.0</ele><time>2026-04-30T12:24:07.043Z</time></trkpt><trkpt lat="41.7351715" lon="3.3493597"><ele>0.0</ele><time>2026-04-30T12:24:08.042Z</time></trkpt><trkpt lat="41.7352004" lon="3.3494711"><ele>0.0</ele><time>2026-04-30T12:24:09.042Z</time></trkpt><trkpt lat="41.73523" lon="3.34958"><ele>0.0</ele><time>2026-04-30T12:24:10.042Z</time></trkpt><trkpt lat="41.735263" lon="3.3496927"><ele>0.0</ele><time>2026-04-30T12:24:11.042Z</time></trkpt><trkpt lat="41.7352894" lon="3.3498044"><ele>0.0</ele><time>2026-04-30T12:24:12.042Z</time></trkpt><trkpt lat="41.7353184" lon="3.3499119"><ele>0.0</ele><time>2026-04-30T12:24:13.042Z</time></trkpt><trkpt lat="41.73534" lon="3.3500257"><ele>0.0</ele><time>2026-04-30T12:24:14.043Z</time></trkpt><trkpt lat="41.7353471" lon="3.3501375"><ele>0.0</ele><time>2026-04-30T12:24:15.042Z</time></trkpt><trkpt lat="41.7353713" lon="3.3502479"><ele>0.0</ele><time>2026-04-30T12:24:16.042Z</time></trkpt><trkpt lat="41.7354274" lon="3.3504728"><ele>0.0</ele><time>2026-04-30T12:24:18.042Z</time></trkpt><trkpt lat="41.7354551" lon="3.3505847"><ele>0.0</ele><time>2026-04-30T12:24:19.042Z</time></trkpt><trkpt lat="41.7354864" lon="3.3506947"><ele>0.0</ele><time>2026-04-30T12:24:20.042Z</time></trkpt><trkpt lat="41.7355153" lon="3.3507989"><ele>0.0</ele><time>2026-04-30T12:24:21.042Z</time></trkpt><trkpt lat="41.7355464" lon="3.350911"><ele>0.0</ele><time>2026-04-30T12:24:22.043Z</time></trkpt><trkpt lat="41.7355769" lon="3.3510216"><ele>0.0</ele><time>2026-04-30T12:24:23.042Z</time></trkpt><trkpt lat="41.7356055" lon="3.3511218"><ele>0.0</ele><time>2026-04-30T12:24:24.043Z</time></trkpt><trkpt lat="41.7356368" lon="3.3512288"><ele>0.0</ele><time>2026-04-30T12:24:25.043Z</time></trkpt><trkpt lat="41.7356716" lon="3.3513339"><ele>0.0</ele><time>2026-04-30T12:24:26.042Z</time></trkpt><trkpt lat="41.7357349" lon="3.3515475"><ele>0.0</ele><time>2026-04-30T12:24:28.042Z</time></trkpt><trkpt lat="41.7357661" lon="3.3516567"><ele>0.0</ele><time>2026-04-30T12:24:29.043Z</time></trkpt><trkpt lat="41.7358094" lon="3.3517621"><ele>0.0</ele><time>2026-04-30T12:24:30.043Z</time></trkpt><trkpt lat="41.7358502" lon="3.3518701"><ele>0.0</ele><time>2026-04-30T12:24:31.042Z</time></trkpt><trkpt lat="41.7358978" lon="3.3519739"><ele>0.0</ele><time>2026-04-30T12:24:32.043Z</time></trkpt><trkpt lat="41.7359365" lon="3.3520832"><ele>0.0</ele><time>2026-04-30T12:24:33.043Z</time></trkpt><trkpt lat="41.7359702" lon="3.3521918"><ele>0.0</ele><time>2026-04-30T12:24:34.042Z</time></trkpt><trkpt lat="41.7360047" lon="3.3523028"><ele>0.0</ele><time>2026-04-30T12:24:35.042Z</time></trkpt><trkpt lat="41.7360396" lon="3.3524144"><ele>0.0</ele><time>2026-04-30T12:24:36.042Z</time></trkpt><trkpt lat="41.7360661" lon="3.352523"><ele>0.0</ele><time>2026-04-30T12:24:37.042Z</time></trkpt><trkpt lat="41.7360912" lon="3.3526346"><ele>0.0</ele><time>2026-04-30T12:24:38.042Z</time></trkpt><trkpt lat="41.7361187" lon="3.3527432"><ele>0.0</ele><time>2026-04-30T12:24:39.043Z</time></trkpt><trkpt lat="41.7361487" lon="3.3528501"><ele>0.0</ele><time>2026-04-30T12:24:40.043Z</time></trkpt><trkpt lat="41.7361805" lon="3.352957"><ele>0.0</ele><time>2026-04-30T12:24:41.042Z</time></trkpt><trkpt lat="41.736211" lon="3.3530607"><ele>0.0</ele><time>2026-04-30T12:24:42.042Z</time></trkpt><trkpt lat="41.7362394" lon="3.35317"><ele>0.0</ele><time>2026-04-30T12:24:43.042Z</time></trkpt><trkpt lat="41.7362761" lon="3.3532786"><ele>0.0</ele><time>2026-04-30T12:24:44.043Z</time></trkpt><trkpt lat="41.7363159" lon="3.353388"><ele>0.0</ele><time>2026-04-30T12:24:45.043Z</time></trkpt><trkpt lat="41.7363571" lon="3.3534967"><ele>0.0</ele><time>2026-04-30T12:24:46.042Z</time></trkpt><trkpt lat="41.736389" lon="3.3536036"><ele>0.0</ele><time>2026-04-30T12:24:47.042Z</time></trkpt><trkpt lat="41.7364215" lon="3.3537047"><ele>0.0</ele><time>2026-04-30T12:24:48.042Z</time></trkpt><trkpt lat="41.736515" lon="3.3540443"><ele>0.0</ele><time>2026-04-30T12:24:51.043Z</time></trkpt><trkpt lat="41.7365422" lon="3.3541507"><ele>0.0</ele><time>2026-04-30T12:24:52.043Z</time></trkpt><trkpt lat="41.7365723" lon="3.3542603"><ele>0.0</ele><time>2026-04-30T12:24:53.042Z</time></trkpt><trkpt lat="41.7366018" lon="3.3543701"><ele>0.0</ele><time>2026-04-30T12:24:54.042Z</time></trkpt><trkpt lat="41.73663" lon="3.3544815"><ele>0.0</ele><time>2026-04-30T12:24:55.042Z</time></trkpt><trkpt lat="41.7366496" lon="3.3545917"><ele>0.0</ele><time>2026-04-30T12:24:56.043Z</time></trkpt><trkpt lat="41.7366735" lon="3.3547074"><ele>0.0</ele><time>2026-04-30T12:24:57.043Z</time></trkpt><trkpt lat="41.7366972" lon="3.3548168"><ele>0.0</ele><time>2026-04-30T12:24:58.042Z</time></trkpt><trkpt lat="41.7367236" lon="3.3549294"><ele>0.0</ele><time>2026-04-30T12:24:59.042Z</time></trkpt><trkpt lat="41.736754" lon="3.3550341"><ele>0.0</ele><time>2026-04-30T12:25:00.042Z</time></trkpt><trkpt lat="41.7367765" lon="3.3551458"><ele>0.0</ele><time>2026-04-30T12:25:01.043Z</time></trkpt><trkpt lat="41.7368038" lon="3.3552566"><ele>0.0</ele><time>2026-04-30T12:25:02.042Z</time></trkpt><trkpt lat="41.7368332" lon="3.3553724"><ele>0.0</ele><time>2026-04-30T12:25:03.042Z</time></trkpt><trkpt lat="41.7368619" lon="3.3554789"><ele>0.0</ele><time>2026-04-30T12:25:04.043Z</time></trkpt><trkpt lat="41.7369002" lon="3.3555815"><ele>0.0</ele><time>2026-04-30T12:25:05.043Z</time></trkpt><trkpt lat="41.7369335" lon="3.3556873"><ele>0.0</ele><time>2026-04-30T12:25:06.042Z</time></trkpt><trkpt lat="41.7369664" lon="3.3558008"><ele>0.0</ele><time>2026-04-30T12:25:07.043Z</time></trkpt><trkpt lat="41.7369998" lon="3.3559083"><ele>0.0</ele><time>2026-04-30T12:25:08.042Z</time></trkpt><trkpt lat="41.7370287" lon="3.3560209"><ele>0.0</ele><time>2026-04-30T12:25:09.042Z</time></trkpt><trkpt lat="41.7370585" lon="3.3561313"><ele>0.0</ele><time>2026-04-30T12:25:10.042Z</time></trkpt><trkpt lat="41.7371232" lon="3.3563444"><ele>0.0</ele><time>2026-04-30T12:25:12.042Z</time></trkpt><trkpt lat="41.7371605" lon="3.3564417"><ele>0.0</ele><time>2026-04-30T12:25:13.043Z</time></trkpt><trkpt lat="41.7371935" lon="3.3565457"><ele>0.0</ele><time>2026-04-30T12:25:14.043Z</time></trkpt><trkpt lat="41.7372251" lon="3.3566518"><ele>0.0</ele><time>2026-04-30T12:25:15.043Z</time></trkpt><trkpt lat="41.737258" lon="3.3567627"><ele>0.0</ele><time>2026-04-30T12:25:16.043Z</time></trkpt><trkpt lat="41.7372933" lon="3.3568673"><ele>0.0</ele><time>2026-04-30T12:25:17.043Z</time></trkpt><trkpt lat="41.7373269" lon="3.3569751"><ele>0.0</ele><time>2026-04-30T12:25:18.042Z</time></trkpt><trkpt lat="41.7373603" lon="3.3570828"><ele>0.0</ele><time>2026-04-30T12:25:19.042Z</time></trkpt><trkpt lat="41.737395" lon="3.3571945"><ele>0.0</ele><time>2026-04-30T12:25:20.043Z</time></trkpt><trkpt lat="41.7374546" lon="3.3574102"><ele>0.0</ele><time>2026-04-30T12:25:22.042Z</time></trkpt><trkpt lat="41.7374804" lon="3.3575198"><ele>0.0</ele><time>2026-04-30T12:25:23.043Z</time></trkpt><trkpt lat="41.7375107" lon="3.3576312"><ele>0.0</ele><time>2026-04-30T12:25:24.042Z</time></trkpt><trkpt lat="41.7375403" lon="3.3577414"><ele>0.0</ele><time>2026-04-30T12:25:25.043Z</time></trkpt><trkpt lat="41.7375682" lon="3.3578533"><ele>0.0</ele><time>2026-04-30T12:25:26.042Z</time></trkpt><trkpt lat="41.7375982" lon="3.3579603"><ele>0.0</ele><time>2026-04-30T12:25:27.042Z</time></trkpt><trkpt lat="41.7376299" lon="3.3580698"><ele>0.0</ele><time>2026-04-30T12:25:28.043Z</time></trkpt><trkpt lat="41.7376639" lon="3.3581784"><ele>0.0</ele><time>2026-04-30T12:25:29.043Z</time></trkpt><trkpt lat="41.7376951" lon="3.3582883"><ele>0.0</ele><time>2026-04-30T12:25:30.043Z</time></trkpt><trkpt lat="41.7377294" lon="3.3584025"><ele>0.0</ele><time>2026-04-30T12:25:31.042Z</time></trkpt><trkpt lat="41.7378061" lon="3.3586218"><ele>0.0</ele><time>2026-04-30T12:25:33.042Z</time></trkpt><trkpt lat="41.7378433" lon="3.3587284"><ele>0.0</ele><time>2026-04-30T12:25:34.043Z</time></trkpt><trkpt lat="41.7378814" lon="3.3588354"><ele>0.0</ele><time>2026-04-30T12:25:35.043Z</time></trkpt><trkpt lat="41.7379153" lon="3.3589448"><ele>0.0</ele><time>2026-04-30T12:25:36.043Z</time></trkpt><trkpt lat="41.7379457" lon="3.359052"><ele>0.0</ele><time>2026-04-30T12:25:37.043Z</time></trkpt><trkpt lat="41.7379711" lon="3.3591631"><ele>0.0</ele><time>2026-04-30T12:25:38.043Z</time></trkpt><trkpt lat="41.7380004" lon="3.3592677"><ele>0.0</ele><time>2026-04-30T12:25:39.043Z</time></trkpt><trkpt lat="41.7380304" lon="3.3593723"><ele>0.0</ele><time>2026-04-30T12:25:40.042Z</time></trkpt><trkpt lat="41.7380602" lon="3.3594816"><ele>0.0</ele><time>2026-04-30T12:25:41.043Z</time></trkpt><trkpt lat="41.7380988" lon="3.3595903"><ele>0.0</ele><time>2026-04-30T12:25:42.042Z</time></trkpt><trkpt lat="41.7381297" lon="3.3597026"><ele>0.0</ele><time>2026-04-30T12:25:43.042Z</time></trkpt><trkpt lat="41.7381613" lon="3.3598186"><ele>0.0</ele><time>2026-04-30T12:25:44.042Z</time></trkpt><trkpt lat="41.7381963" lon="3.359931"><ele>0.0</ele><time>2026-04-30T12:25:45.042Z</time></trkpt><trkpt lat="41.738225" lon="3.3600332"><ele>0.0</ele><time>2026-04-30T12:25:46.042Z</time></trkpt><trkpt lat="41.738262" lon="3.3601392"><ele>0.0</ele><time>2026-04-30T12:25:47.042Z</time></trkpt><trkpt lat="41.7382921" lon="3.3602426"><ele>0.0</ele><time>2026-04-30T12:25:48.043Z</time></trkpt><trkpt lat="41.7383222" lon="3.3603516"><ele>0.0</ele><time>2026-04-30T12:25:49.042Z</time></trkpt><trkpt lat="41.7383539" lon="3.3604588"><ele>0.0</ele><time>2026-04-30T12:25:50.043Z</time></trkpt><trkpt lat="41.7383812" lon="3.3605581"><ele>0.0</ele><time>2026-04-30T12:25:51.042Z</time></trkpt><trkpt lat="41.7384122" lon="3.3606706"><ele>0.0</ele><time>2026-04-30T12:25:52.043Z</time></trkpt><trkpt lat="41.738466" lon="3.3608871"><ele>0.0</ele><time>2026-04-30T12:25:54.042Z</time></trkpt><trkpt lat="41.7384972" lon="3.360992"><ele>0.0</ele><time>2026-04-30T12:25:55.042Z</time></trkpt><trkpt lat="41.7385275" lon="3.361097"><ele>0.0</ele><time>2026-04-30T12:25:56.043Z</time></trkpt><trkpt lat="41.738557" lon="3.3612079"><ele>0.0</ele><time>2026-04-30T12:25:57.042Z</time></trkpt><trkpt lat="41.738588" lon="3.3613208"><ele>0.0</ele><time>2026-04-30T12:25:58.042Z</time></trkpt><trkpt lat="41.7386194" lon="3.3614341"><ele>0.0</ele><time>2026-04-30T12:25:59.043Z</time></trkpt><trkpt lat="41.7386529" lon="3.3615475"><ele>0.0</ele><time>2026-04-30T12:26:00.042Z</time></trkpt><trkpt lat="41.7386853" lon="3.361655"><ele>0.0</ele><time>2026-04-30T12:26:01.043Z</time></trkpt><trkpt lat="41.7387183" lon="3.361759"><ele>0.0</ele><time>2026-04-30T12:26:02.043Z</time></trkpt><trkpt lat="41.7387478" lon="3.3618666"><ele>0.0</ele><time>2026-04-30T12:26:03.043Z</time></trkpt><trkpt lat="41.7387786" lon="3.3619733"><ele>0.0</ele><time>2026-04-30T12:26:04.042Z</time></trkpt><trkpt lat="41.7388116" lon="3.3620873"><ele>0.0</ele><time>2026-04-30T12:26:05.043Z</time></trkpt><trkpt lat="41.7388403" lon="3.3621982"><ele>0.0</ele><time>2026-04-30T12:26:06.042Z</time></trkpt><trkpt lat="41.738873" lon="3.3623055"><ele>0.0</ele><time>2026-04-30T12:26:07.043Z</time></trkpt><trkpt lat="41.7388976" lon="3.3624148"><ele>0.0</ele><time>2026-04-30T12:26:08.043Z</time></trkpt><trkpt lat="41.7389227" lon="3.3625218"><ele>0.0</ele><time>2026-04-30T12:26:09.042Z</time></trkpt><trkpt lat="41.7389521" lon="3.3626344"><ele>0.0</ele><time>2026-04-30T12:26:10.042Z</time></trkpt><trkpt lat="41.7389866" lon="3.3627488"><ele>0.0</ele><time>2026-04-30T12:26:11.042Z</time></trkpt><trkpt lat="41.739017" lon="3.3628551"><ele>0.0</ele><time>2026-04-30T12:26:12.043Z</time></trkpt><trkpt lat="41.7390529" lon="3.3629602"><ele>0.0</ele><time>2026-04-30T12:26:13.043Z</time></trkpt><trkpt lat="41.7391169" lon="3.3631752"><ele>0.0</ele><time>2026-04-30T12:26:15.041Z</time></trkpt><trkpt lat="41.7391485" lon="3.3632804"><ele>0.0</ele><time>2026-04-30T12:26:16.042Z</time></trkpt><trkpt lat="41.7391817" lon="3.3633857"><ele>0.0</ele><time>2026-04-30T12:26:17.042Z</time></trkpt><trkpt lat="41.7392121" lon="3.3634906"><ele>0.0</ele><time>2026-04-30T12:26:18.041Z</time></trkpt><trkpt lat="41.7392411" lon="3.3635982"><ele>0.0</ele><time>2026-04-30T12:26:19.042Z</time></trkpt><trkpt lat="41.7392793" lon="3.3637108"><ele>0.0</ele><time>2026-04-30T12:26:20.041Z</time></trkpt><trkpt lat="41.7393195" lon="3.3638141"><ele>0.0</ele><time>2026-04-30T12:26:21.041Z</time></trkpt><trkpt lat="41.7393596" lon="3.363912"><ele>0.0</ele><time>2026-04-30T12:26:22.042Z</time></trkpt><trkpt lat="41.7393866" lon="3.3640199"><ele>0.0</ele><time>2026-04-30T12:26:23.041Z</time></trkpt><trkpt lat="41.7394185" lon="3.3641282"><ele>0.0</ele><time>2026-04-30T12:26:24.042Z</time></trkpt><trkpt lat="41.7394521" lon="3.3642366"><ele>0.0</ele><time>2026-04-30T12:26:25.042Z</time></trkpt><trkpt lat="41.7394824" lon="3.3643394"><ele>0.0</ele><time>2026-04-30T12:26:26.041Z</time></trkpt><trkpt lat="41.7395119" lon="3.3644479"><ele>0.0</ele><time>2026-04-30T12:26:27.042Z</time></trkpt><trkpt lat="41.7395416" lon="3.364555"><ele>0.0</ele><time>2026-04-30T12:26:28.042Z</time></trkpt><trkpt lat="41.7395718" lon="3.3646633"><ele>0.0</ele><time>2026-04-30T12:26:29.041Z</time></trkpt><trkpt lat="41.7396045" lon="3.3647816"><ele>0.0</ele><time>2026-04-30T12:26:30.042Z</time></trkpt><trkpt lat="41.7396394" lon="3.3648972"><ele>0.0</ele><time>2026-04-30T12:26:31.042Z</time></trkpt><trkpt lat="41.7396748" lon="3.3650066"><ele>0.0</ele><time>2026-04-30T12:26:32.041Z</time></trkpt><trkpt lat="41.7397118" lon="3.3651136"><ele>0.0</ele><time>2026-04-30T12:26:33.042Z</time></trkpt><trkpt lat="41.7397421" lon="3.3652202"><ele>0.0</ele><time>2026-04-30T12:26:34.042Z</time></trkpt><trkpt lat="41.7398021" lon="3.3654398"><ele>0.0</ele><time>2026-04-30T12:26:36.042Z</time></trkpt><trkpt lat="41.7398338" lon="3.3655483"><ele>0.0</ele><time>2026-04-30T12:26:37.041Z</time></trkpt><trkpt lat="41.7398654" lon="3.3656593"><ele>0.0</ele><time>2026-04-30T12:26:38.041Z</time></trkpt><trkpt lat="41.7398938" lon="3.3657654"><ele>0.0</ele><time>2026-04-30T12:26:39.041Z</time></trkpt><trkpt lat="41.739924" lon="3.3658747"><ele>0.0</ele><time>2026-04-30T12:26:40.041Z</time></trkpt><trkpt lat="41.7399565" lon="3.365992"><ele>0.0</ele><time>2026-04-30T12:26:41.042Z</time></trkpt><trkpt lat="41.7399929" lon="3.3661084"><ele>0.0</ele><time>2026-04-30T12:26:42.041Z</time></trkpt><trkpt lat="41.7400252" lon="3.3662182"><ele>0.0</ele><time>2026-04-30T12:26:43.041Z</time></trkpt><trkpt lat="41.7400574" lon="3.3663177"><ele>0.0</ele><time>2026-04-30T12:26:44.042Z</time></trkpt><trkpt lat="41.740089" lon="3.3664235"><ele>0.0</ele><time>2026-04-30T12:26:45.042Z</time></trkpt><trkpt lat="41.7401234" lon="3.3665285"><ele>0.0</ele><time>2026-04-30T12:26:46.041Z</time></trkpt><trkpt lat="41.7401583" lon="3.3666378"><ele>0.0</ele><time>2026-04-30T12:26:47.042Z</time></trkpt><trkpt lat="41.7401916" lon="3.3667465"><ele>0.0</ele><time>2026-04-30T12:26:48.041Z</time></trkpt><trkpt lat="41.7402194" lon="3.3668576"><ele>0.0</ele><time>2026-04-30T12:26:49.041Z</time></trkpt><trkpt lat="41.7402432" lon="3.3669692"><ele>0.0</ele><time>2026-04-30T12:26:50.041Z</time></trkpt><trkpt lat="41.7402723" lon="3.3670767"><ele>0.0</ele><time>2026-04-30T12:26:51.042Z</time></trkpt><trkpt lat="41.7403069" lon="3.3671849"><ele>0.0</ele><time>2026-04-30T12:26:52.041Z</time></trkpt><trkpt lat="41.7403417" lon="3.3672934"><ele>0.0</ele><time>2026-04-30T12:26:53.042Z</time></trkpt><trkpt lat="41.7403751" lon="3.3673973"><ele>0.0</ele><time>2026-04-30T12:26:54.041Z</time></trkpt><trkpt lat="41.7404087" lon="3.3675037"><ele>0.0</ele><time>2026-04-30T12:26:55.041Z</time></trkpt><trkpt lat="41.7404779" lon="3.3677125"><ele>0.0</ele><time>2026-04-30T12:26:57.042Z</time></trkpt><trkpt lat="41.7405098" lon="3.3678214"><ele>0.0</ele><time>2026-04-30T12:26:58.042Z</time></trkpt><trkpt lat="41.7405429" lon="3.3679299"><ele>0.0</ele><time>2026-04-30T12:26:59.042Z</time></trkpt><trkpt lat="41.7405768" lon="3.3680384"><ele>0.0</ele><time>2026-04-30T12:27:00.042Z</time></trkpt><trkpt lat="41.740609" lon="3.3681453"><ele>0.0</ele><time>2026-04-30T12:27:01.041Z</time></trkpt><trkpt lat="41.7406334" lon="3.3682574"><ele>0.0</ele><time>2026-04-30T12:27:02.042Z</time></trkpt><trkpt lat="41.7406619" lon="3.368368"><ele>0.0</ele><time>2026-04-30T12:27:03.042Z</time></trkpt><trkpt lat="41.7406918" lon="3.3684764"><ele>0.0</ele><time>2026-04-30T12:27:04.041Z</time></trkpt><trkpt lat="41.7407219" lon="3.3685823"><ele>0.0</ele><time>2026-04-30T12:27:05.041Z</time></trkpt><trkpt lat="41.7407488" lon="3.3686886"><ele>0.0</ele><time>2026-04-30T12:27:06.041Z</time></trkpt><trkpt lat="41.74078" lon="3.368798"><ele>0.0</ele><time>2026-04-30T12:27:07.042Z</time></trkpt><trkpt lat="41.7408092" lon="3.3689052"><ele>0.0</ele><time>2026-04-30T12:27:08.041Z</time></trkpt><trkpt lat="41.7408368" lon="3.369019"><ele>0.0</ele><time>2026-04-30T12:27:09.041Z</time></trkpt><trkpt lat="41.7408614" lon="3.3691323"><ele>0.0</ele><time>2026-04-30T12:27:10.042Z</time></trkpt><trkpt lat="41.7408934" lon="3.3692428"><ele>0.0</ele><time>2026-04-30T12:27:11.042Z</time></trkpt><trkpt lat="41.7409237" lon="3.3693542"><ele>0.0</ele><time>2026-04-30T12:27:12.041Z</time></trkpt><trkpt lat="41.7409599" lon="3.3694631"><ele>0.0</ele><time>2026-04-30T12:27:13.042Z</time></trkpt><trkpt lat="41.7409934" lon="3.3695729"><ele>0.0</ele><time>2026-04-30T12:27:14.041Z</time></trkpt><trkpt lat="41.7410269" lon="3.3696817"><ele>0.0</ele><time>2026-04-30T12:27:15.041Z</time></trkpt><trkpt lat="41.7410587" lon="3.3697884"><ele>0.0</ele><time>2026-04-30T12:27:16.041Z</time></trkpt><trkpt lat="41.7411137" lon="3.3700099"><ele>0.0</ele><time>2026-04-30T12:27:18.041Z</time></trkpt><trkpt lat="41.741145" lon="3.3701198"><ele>0.0</ele><time>2026-04-30T12:27:19.041Z</time></trkpt><trkpt lat="41.7411764" lon="3.3702271"><ele>0.0</ele><time>2026-04-30T12:27:20.042Z</time></trkpt><trkpt lat="41.7412087" lon="3.3703382"><ele>0.0</ele><time>2026-04-30T12:27:21.041Z</time></trkpt><trkpt lat="41.7412385" lon="3.3704424"><ele>0.0</ele><time>2026-04-30T12:27:22.041Z</time></trkpt><trkpt lat="41.7412769" lon="3.3705499"><ele>0.0</ele><time>2026-04-30T12:27:23.041Z</time></trkpt><trkpt lat="41.7413076" lon="3.3706624"><ele>0.0</ele><time>2026-04-30T12:27:24.042Z</time></trkpt><trkpt lat="41.74134" lon="3.3707742"><ele>0.0</ele><time>2026-04-30T12:27:25.042Z</time></trkpt><trkpt lat="41.7413704" lon="3.3708802"><ele>0.0</ele><time>2026-04-30T12:27:26.041Z</time></trkpt><trkpt lat="41.7413974" lon="3.3709839"><ele>0.0</ele><time>2026-04-30T12:27:27.041Z</time></trkpt><trkpt lat="41.7414243" lon="3.3710988"><ele>0.0</ele><time>2026-04-30T12:27:28.042Z</time></trkpt><trkpt lat="41.7414466" lon="3.3712125"><ele>0.0</ele><time>2026-04-30T12:27:29.042Z</time></trkpt><trkpt lat="41.7414782" lon="3.3713245"><ele>0.0</ele><time>2026-04-30T12:27:30.042Z</time></trkpt><trkpt lat="41.7415099" lon="3.3714348"><ele>0.0</ele><time>2026-04-30T12:27:31.041Z</time></trkpt><trkpt lat="41.7415416" lon="3.3715378"><ele>0.0</ele><time>2026-04-30T12:27:32.041Z</time></trkpt><trkpt lat="41.7415747" lon="3.3716354"><ele>0.0</ele><time>2026-04-30T12:27:33.041Z</time></trkpt><trkpt lat="41.741605" lon="3.3717389"><ele>0.0</ele><time>2026-04-30T12:27:34.042Z</time></trkpt><trkpt lat="41.7416338" lon="3.3718482"><ele>0.0</ele><time>2026-04-30T12:27:35.041Z</time></trkpt><trkpt lat="41.7416652" lon="3.3719567"><ele>0.0</ele><time>2026-04-30T12:27:36.041Z</time></trkpt><trkpt lat="41.7416982" lon="3.3720651"><ele>0.0</ele><time>2026-04-30T12:27:37.042Z</time></trkpt><trkpt lat="41.7417693" lon="3.3722849"><ele>0.0</ele><time>2026-04-30T12:27:39.041Z</time></trkpt><trkpt lat="41.7418065" lon="3.3723934"><ele>0.0</ele><time>2026-04-30T12:27:40.042Z</time></trkpt><trkpt lat="41.7418416" lon="3.3724989"><ele>0.0</ele><time>2026-04-30T12:27:41.042Z</time></trkpt><trkpt lat="41.7418753" lon="3.3726051"><ele>0.0</ele><time>2026-04-30T12:27:42.042Z</time></trkpt><trkpt lat="41.7419069" lon="3.3727119"><ele>0.0</ele><time>2026-04-30T12:27:43.041Z</time></trkpt><trkpt lat="41.7419433" lon="3.3728201"><ele>0.0</ele><time>2026-04-30T12:27:44.042Z</time></trkpt><trkpt lat="41.7419785" lon="3.372927"><ele>0.0</ele><time>2026-04-30T12:27:45.042Z</time></trkpt><trkpt lat="41.7420175" lon="3.373031"><ele>0.0</ele><time>2026-04-30T12:27:46.041Z</time></trkpt><trkpt lat="41.7420409" lon="3.3731413"><ele>0.0</ele><time>2026-04-30T12:27:47.041Z</time></trkpt><trkpt lat="41.742071" lon="3.3732484"><ele>0.0</ele><time>2026-04-30T12:27:48.042Z</time></trkpt><trkpt lat="41.74209" lon="3.3733637"><ele>0.0</ele><time>2026-04-30T12:27:49.041Z</time></trkpt><trkpt lat="41.7421236" lon="3.373477"><ele>0.0</ele><time>2026-04-30T12:27:50.042Z</time></trkpt><trkpt lat="41.7421571" lon="3.3735835"><ele>0.0</ele><time>2026-04-30T12:27:51.041Z</time></trkpt><trkpt lat="41.7421876" lon="3.3736873"><ele>0.0</ele><time>2026-04-30T12:27:52.041Z</time></trkpt><trkpt lat="41.7422202" lon="3.3737963"><ele>0.0</ele><time>2026-04-30T12:27:53.041Z</time></trkpt><trkpt lat="41.7422551" lon="3.373909"><ele>0.0</ele><time>2026-04-30T12:27:54.041Z</time></trkpt><trkpt lat="41.7422873" lon="3.3740179"><ele>0.0</ele><time>2026-04-30T12:27:55.042Z</time></trkpt><trkpt lat="41.7423188" lon="3.3741266"><ele>0.0</ele><time>2026-04-30T12:27:56.041Z</time></trkpt><trkpt lat="41.742352" lon="3.3742393"><ele>0.0</ele><time>2026-04-30T12:27:57.041Z</time></trkpt><trkpt lat="41.7423868" lon="3.3743494"><ele>0.0</ele><time>2026-04-30T12:27:58.041Z</time></trkpt><trkpt lat="41.7424187" lon="3.3744582"><ele>0.0</ele><time>2026-04-30T12:27:59.041Z</time></trkpt><trkpt lat="41.7424824" lon="3.3746705"><ele>0.0</ele><time>2026-04-30T12:28:01.041Z</time></trkpt><trkpt lat="41.7425078" lon="3.3747743"><ele>0.0</ele><time>2026-04-30T12:28:02.042Z</time></trkpt><trkpt lat="41.7425372" lon="3.3748803"><ele>0.0</ele><time>2026-04-30T12:28:03.042Z</time></trkpt><trkpt lat="41.7425672" lon="3.374994"><ele>0.0</ele><time>2026-04-30T12:28:04.042Z</time></trkpt><trkpt lat="41.7426002" lon="3.3751046"><ele>0.0</ele><time>2026-04-30T12:28:05.041Z</time></trkpt><trkpt lat="41.7426278" lon="3.3752165"><ele>0.0</ele><time>2026-04-30T12:28:06.042Z</time></trkpt><trkpt lat="41.7426571" lon="3.3753279"><ele>0.0</ele><time>2026-04-30T12:28:07.042Z</time></trkpt><trkpt lat="41.7426855" lon="3.3754367"><ele>0.0</ele><time>2026-04-30T12:28:08.041Z</time></trkpt><trkpt lat="41.7427106" lon="3.3755481"><ele>0.0</ele><time>2026-04-30T12:28:09.042Z</time></trkpt><trkpt lat="41.7427358" lon="3.3756568"><ele>0.0</ele><time>2026-04-30T12:28:10.041Z</time></trkpt><trkpt lat="41.7427636" lon="3.3757666"><ele>0.0</ele><time>2026-04-30T12:28:11.042Z</time></trkpt><trkpt lat="41.7427905" lon="3.3758737"><ele>0.0</ele><time>2026-04-30T12:28:12.041Z</time></trkpt><trkpt lat="41.7428203" lon="3.3759805"><ele>0.0</ele><time>2026-04-30T12:28:13.041Z</time></trkpt><trkpt lat="41.7428504" lon="3.3760855"><ele>0.0</ele><time>2026-04-30T12:28:14.042Z</time></trkpt><trkpt lat="41.7428762" lon="3.3761975"><ele>0.0</ele><time>2026-04-30T12:28:15.041Z</time></trkpt><trkpt lat="41.7429038" lon="3.3763083"><ele>0.0</ele><time>2026-04-30T12:28:16.042Z</time></trkpt><trkpt lat="41.7429317" lon="3.3764224"><ele>0.0</ele><time>2026-04-30T12:28:17.042Z</time></trkpt><trkpt lat="41.74296" lon="3.376533"><ele>0.0</ele><time>2026-04-30T12:28:18.042Z</time></trkpt><trkpt lat="41.742987" lon="3.3766447"><ele>0.0</ele><time>2026-04-30T12:28:19.042Z</time></trkpt><trkpt lat="41.7430098" lon="3.3767578"><ele>0.0</ele><time>2026-04-30T12:28:20.041Z</time></trkpt><trkpt lat="41.743061" lon="3.3769746"><ele>0.0</ele><time>2026-04-30T12:28:22.041Z</time></trkpt><trkpt lat="41.7430903" lon="3.3770862"><ele>0.0</ele><time>2026-04-30T12:28:23.041Z</time></trkpt><trkpt lat="41.74312" lon="3.3771965"><ele>0.0</ele><time>2026-04-30T12:28:24.041Z</time></trkpt><trkpt lat="41.7431485" lon="3.3773051"><ele>0.0</ele><time>2026-04-30T12:28:25.042Z</time></trkpt><trkpt lat="41.7431797" lon="3.3774177"><ele>0.0</ele><time>2026-04-30T12:28:26.041Z</time></trkpt><trkpt lat="41.7432133" lon="3.377525"><ele>0.0</ele><time>2026-04-30T12:28:27.042Z</time></trkpt><trkpt lat="41.7432467" lon="3.377635"><ele>0.0</ele><time>2026-04-30T12:28:28.042Z</time></trkpt><trkpt lat="41.7432795" lon="3.3777477"><ele>0.0</ele><time>2026-04-30T12:28:29.042Z</time></trkpt><trkpt lat="41.7433203" lon="3.3778568"><ele>0.0</ele><time>2026-04-30T12:28:30.042Z</time></trkpt><trkpt lat="41.7433563" lon="3.3779663"><ele>0.0</ele><time>2026-04-30T12:28:31.041Z</time></trkpt><trkpt lat="41.7433958" lon="3.3780722"><ele>0.0</ele><time>2026-04-30T12:28:32.042Z</time></trkpt><trkpt lat="41.7434302" lon="3.3781743"><ele>0.0</ele><time>2026-04-30T12:28:33.041Z</time></trkpt><trkpt lat="41.7434664" lon="3.3782833"><ele>0.0</ele><time>2026-04-30T12:28:34.041Z</time></trkpt><trkpt lat="41.7434985" lon="3.378389"><ele>0.0</ele><time>2026-04-30T12:28:35.041Z</time></trkpt><trkpt lat="41.7435316" lon="3.3784952"><ele>0.0</ele><time>2026-04-30T12:28:36.041Z</time></trkpt><trkpt lat="41.7435578" lon="3.3786032"><ele>0.0</ele><time>2026-04-30T12:28:37.041Z</time></trkpt><trkpt lat="41.7435854" lon="3.3787103"><ele>0.0</ele><time>2026-04-30T12:28:38.041Z</time></trkpt><trkpt lat="41.7436155" lon="3.3788171"><ele>0.0</ele><time>2026-04-30T12:28:39.042Z</time></trkpt><trkpt lat="41.7436472" lon="3.3789279"><ele>0.0</ele><time>2026-04-30T12:28:40.042Z</time></trkpt><trkpt lat="41.7436784" lon="3.3790424"><ele>0.0</ele><time>2026-04-30T12:28:41.041Z</time></trkpt><trkpt lat="41.7437407" lon="3.3792554"><ele>0.0</ele><time>2026-04-30T12:28:43.041Z</time></trkpt><trkpt lat="41.7437703" lon="3.3793649"><ele>0.0</ele><time>2026-04-30T12:28:44.042Z</time></trkpt><trkpt lat="41.7437972" lon="3.3794776"><ele>0.0</ele><time>2026-04-30T12:28:45.042Z</time></trkpt><trkpt lat="41.74383" lon="3.3795868"><ele>0.0</ele><time>2026-04-30T12:28:46.041Z</time></trkpt><trkpt lat="41.7438649" lon="3.379695"><ele>0.0</ele><time>2026-04-30T12:28:47.041Z</time></trkpt><trkpt lat="41.7438982" lon="3.3798033"><ele>0.0</ele><time>2026-04-30T12:28:48.041Z</time></trkpt><trkpt lat="41.7439318" lon="3.379913"><ele>0.0</ele><time>2026-04-30T12:28:49.042Z</time></trkpt><trkpt lat="41.7439635" lon="3.3800217"><ele>0.0</ele><time>2026-04-30T12:28:50.041Z</time></trkpt><trkpt lat="41.7439969" lon="3.3801315"><ele>0.0</ele><time>2026-04-30T12:28:51.041Z</time></trkpt><trkpt lat="41.7440272" lon="3.3802387"><ele>0.0</ele><time>2026-04-30T12:28:52.041Z</time></trkpt><trkpt lat="41.7440585" lon="3.3803452"><ele>0.0</ele><time>2026-04-30T12:28:53.041Z</time></trkpt><trkpt lat="41.7440889" lon="3.3804505"><ele>0.0</ele><time>2026-04-30T12:28:54.042Z</time></trkpt><trkpt lat="41.7441184" lon="3.3805615"><ele>0.0</ele><time>2026-04-30T12:28:55.041Z</time></trkpt><trkpt lat="41.7441528" lon="3.3806729"><ele>0.0</ele><time>2026-04-30T12:28:56.042Z</time></trkpt><trkpt lat="41.7441881" lon="3.380783"><ele>0.0</ele><time>2026-04-30T12:28:57.041Z</time></trkpt><trkpt lat="41.7442204" lon="3.3808917"><ele>0.0</ele><time>2026-04-30T12:28:58.041Z</time></trkpt><trkpt lat="41.7442507" lon="3.3809999"><ele>0.0</ele><time>2026-04-30T12:28:59.042Z</time></trkpt><trkpt lat="41.7442817" lon="3.3811125"><ele>0.0</ele><time>2026-04-30T12:29:00.042Z</time></trkpt><trkpt lat="41.7443152" lon="3.3812202"><ele>0.0</ele><time>2026-04-30T12:29:01.042Z</time></trkpt><trkpt lat="41.7443467" lon="3.3813327"><ele>0.0</ele><time>2026-04-30T12:29:02.041Z</time></trkpt><trkpt lat="41.744447" lon="3.3816566"><ele>0.0</ele><time>2026-04-30T12:29:05.041Z</time></trkpt><trkpt lat="41.7444819" lon="3.3817621"><ele>0.0</ele><time>2026-04-30T12:29:06.042Z</time></trkpt><trkpt lat="41.7445135" lon="3.3818702"><ele>0.0</ele><time>2026-04-30T12:29:07.041Z</time></trkpt><trkpt lat="41.7445421" lon="3.3819784"><ele>0.0</ele><time>2026-04-30T12:29:08.041Z</time></trkpt><trkpt lat="41.7445656" lon="3.3820855"><ele>0.0</ele><time>2026-04-30T12:29:09.041Z</time></trkpt><trkpt lat="41.7445935" lon="3.382192"><ele>0.0</ele><time>2026-04-30T12:29:10.042Z</time></trkpt><trkpt lat="41.7446233" lon="3.382303"><ele>0.0</ele><time>2026-04-30T12:29:11.041Z</time></trkpt><trkpt lat="41.7446521" lon="3.3824115"><ele>0.0</ele><time>2026-04-30T12:29:12.042Z</time></trkpt><trkpt lat="41.7446817" lon="3.3825228"><ele>0.0</ele><time>2026-04-30T12:29:13.042Z</time></trkpt><trkpt lat="41.7447087" lon="3.3826317"><ele>0.0</ele><time>2026-04-30T12:29:14.042Z</time></trkpt><trkpt lat="41.744737" lon="3.3827431"><ele>0.0</ele><time>2026-04-30T12:29:15.041Z</time></trkpt><trkpt lat="41.744765" lon="3.3828531"><ele>0.0</ele><time>2026-04-30T12:29:16.041Z</time></trkpt><trkpt lat="41.7447933" lon="3.3829631"><ele>0.0</ele><time>2026-04-30T12:29:17.041Z</time></trkpt><trkpt lat="41.7448275" lon="3.383072"><ele>0.0</ele><time>2026-04-30T12:29:18.042Z</time></trkpt><trkpt lat="41.7448612" lon="3.3831787"><ele>0.0</ele><time>2026-04-30T12:29:19.042Z</time></trkpt><trkpt lat="41.744892" lon="3.3832852"><ele>0.0</ele><time>2026-04-30T12:29:20.042Z</time></trkpt><trkpt lat="41.7449262" lon="3.3833935"><ele>0.0</ele><time>2026-04-30T12:29:21.042Z</time></trkpt><trkpt lat="41.7449584" lon="3.3835017"><ele>0.0</ele><time>2026-04-30T12:29:22.041Z</time></trkpt><trkpt lat="41.7449874" lon="3.3836043"><ele>0.0</ele><time>2026-04-30T12:29:23.041Z</time></trkpt><trkpt lat="41.7450457" lon="3.3838212"><ele>0.0</ele><time>2026-04-30T12:29:25.042Z</time></trkpt><trkpt lat="41.7450765" lon="3.383937"><ele>0.0</ele><time>2026-04-30T12:29:26.042Z</time></trkpt><trkpt lat="41.7451019" lon="3.3840523"><ele>0.0</ele><time>2026-04-30T12:29:27.041Z</time></trkpt><trkpt lat="41.7451268" lon="3.3841632"><ele>0.0</ele><time>2026-04-30T12:29:28.041Z</time></trkpt><trkpt lat="41.7451552" lon="3.3842674"><ele>0.0</ele><time>2026-04-30T12:29:29.041Z</time></trkpt><trkpt lat="41.7451866" lon="3.3843778"><ele>0.0</ele><time>2026-04-30T12:29:30.041Z</time></trkpt><trkpt lat="41.7452152" lon="3.3844853"><ele>0.0</ele><time>2026-04-30T12:29:31.042Z</time></trkpt><trkpt lat="41.7452468" lon="3.3845903"><ele>0.0</ele><time>2026-04-30T12:29:32.041Z</time></trkpt><trkpt lat="41.7452752" lon="3.3846969"><ele>0.0</ele><time>2026-04-30T12:29:33.042Z</time></trkpt><trkpt lat="41.7453067" lon="3.3848024"><ele>0.0</ele><time>2026-04-30T12:29:34.042Z</time></trkpt><trkpt lat="41.745375" lon="3.3850172"><ele>0.0</ele><time>2026-04-30T12:29:36.042Z</time></trkpt><trkpt lat="41.7454129" lon="3.3851223"><ele>0.0</ele><time>2026-04-30T12:29:37.041Z</time></trkpt><trkpt lat="41.7454566" lon="3.3852301"><ele>0.0</ele><time>2026-04-30T12:29:38.041Z</time></trkpt><trkpt lat="41.7454948" lon="3.3853341"><ele>0.0</ele><time>2026-04-30T12:29:39.041Z</time></trkpt><trkpt lat="41.7455282" lon="3.3854347"><ele>0.0</ele><time>2026-04-30T12:29:40.042Z</time></trkpt><trkpt lat="41.7455615" lon="3.3855431"><ele>0.0</ele><time>2026-04-30T12:29:41.041Z</time></trkpt><trkpt lat="41.745595" lon="3.3856484"><ele>0.0</ele><time>2026-04-30T12:29:42.041Z</time></trkpt><trkpt lat="41.7456315" lon="3.3857578"><ele>0.0</ele><time>2026-04-30T12:29:43.042Z</time></trkpt><trkpt lat="41.7456651" lon="3.3858679"><ele>0.0</ele><time>2026-04-30T12:29:44.041Z</time></trkpt><trkpt lat="41.7457381" lon="3.3860957"><ele>0.0</ele><time>2026-04-30T12:29:46.041Z</time></trkpt><trkpt lat="41.7457703" lon="3.3862019"><ele>0.0</ele><time>2026-04-30T12:29:47.042Z</time></trkpt><trkpt lat="41.7458066" lon="3.38631"><ele>0.0</ele><time>2026-04-30T12:29:48.042Z</time></trkpt><trkpt lat="41.7458387" lon="3.3864154"><ele>0.0</ele><time>2026-04-30T12:29:49.041Z</time></trkpt><trkpt lat="41.7458732" lon="3.3865205"><ele>0.0</ele><time>2026-04-30T12:29:50.042Z</time></trkpt><trkpt lat="41.745907" lon="3.3866226"><ele>0.0</ele><time>2026-04-30T12:29:51.041Z</time></trkpt><trkpt lat="41.7459303" lon="3.3867315"><ele>0.0</ele><time>2026-04-30T12:29:52.041Z</time></trkpt><trkpt lat="41.7459577" lon="3.3868414"><ele>0.0</ele><time>2026-04-30T12:29:53.042Z</time></trkpt><trkpt lat="41.745983" lon="3.386954"><ele>0.0</ele><time>2026-04-30T12:29:54.042Z</time></trkpt><trkpt lat="41.7460078" lon="3.3870661"><ele>0.0</ele><time>2026-04-30T12:29:55.042Z</time></trkpt><trkpt lat="41.7460396" lon="3.3871721"><ele>0.0</ele><time>2026-04-30T12:29:56.042Z</time></trkpt><trkpt lat="41.7460774" lon="3.3872829"><ele>0.0</ele><time>2026-04-30T12:29:57.042Z</time></trkpt><trkpt lat="41.7461145" lon="3.3873945"><ele>0.0</ele><time>2026-04-30T12:29:58.042Z</time></trkpt><trkpt lat="41.7461453" lon="3.3875018"><ele>0.0</ele><time>2026-04-30T12:29:59.041Z</time></trkpt><trkpt lat="41.7461854" lon="3.3876116"><ele>0.0</ele><time>2026-04-30T12:30:00.041Z</time></trkpt><trkpt lat="41.7462157" lon="3.3877156"><ele>0.0</ele><time>2026-04-30T12:30:01.042Z</time></trkpt><trkpt lat="41.7462444" lon="3.3878207"><ele>0.0</ele><time>2026-04-30T12:30:02.041Z</time></trkpt><trkpt lat="41.7462726" lon="3.3879243"><ele>0.0</ele><time>2026-04-30T12:30:03.041Z</time></trkpt><trkpt lat="41.7463038" lon="3.3880275"><ele>0.0</ele><time>2026-04-30T12:30:04.041Z</time></trkpt><trkpt lat="41.7463355" lon="3.3881365"><ele>0.0</ele><time>2026-04-30T12:30:05.041Z</time></trkpt><trkpt lat="41.7463615" lon="3.3882477"><ele>0.0</ele><time>2026-04-30T12:30:06.041Z</time></trkpt><trkpt lat="41.7464526" lon="3.3885747"><ele>0.0</ele><time>2026-04-30T12:30:09.041Z</time></trkpt><trkpt lat="41.7464838" lon="3.3886847"><ele>0.0</ele><time>2026-04-30T12:30:10.041Z</time></trkpt><trkpt lat="41.7465165" lon="3.3887977"><ele>0.0</ele><time>2026-04-30T12:30:11.041Z</time></trkpt><trkpt lat="41.7465469" lon="3.3889096"><ele>0.0</ele><time>2026-04-30T12:30:12.042Z</time></trkpt><trkpt lat="41.7465769" lon="3.3890168"><ele>0.0</ele><time>2026-04-30T12:30:13.042Z</time></trkpt><trkpt lat="41.7466041" lon="3.3891224"><ele>0.0</ele><time>2026-04-30T12:30:14.041Z</time></trkpt><trkpt lat="41.7466267" lon="3.3892271"><ele>0.0</ele><time>2026-04-30T12:30:15.041Z</time></trkpt><trkpt lat="41.7466513" lon="3.3893352"><ele>0.0</ele><time>2026-04-30T12:30:16.042Z</time></trkpt><trkpt lat="41.7466789" lon="3.3894432"><ele>0.0</ele><time>2026-04-30T12:30:17.042Z</time></trkpt><trkpt lat="41.7467072" lon="3.3895529"><ele>0.0</ele><time>2026-04-30T12:30:18.042Z</time></trkpt><trkpt lat="41.7467376" lon="3.3896586"><ele>0.0</ele><time>2026-04-30T12:30:19.042Z</time></trkpt><trkpt lat="41.74677" lon="3.3897651"><ele>0.0</ele><time>2026-04-30T12:30:20.041Z</time></trkpt><trkpt lat="41.7468046" lon="3.3898689"><ele>0.0</ele><time>2026-04-30T12:30:21.041Z</time></trkpt><trkpt lat="41.7468311" lon="3.3899809"><ele>0.0</ele><time>2026-04-30T12:30:22.042Z</time></trkpt><trkpt lat="41.7468591" lon="3.390087"><ele>0.0</ele><time>2026-04-30T12:30:23.041Z</time></trkpt><trkpt lat="41.7468904" lon="3.3901976"><ele>0.0</ele><time>2026-04-30T12:30:24.041Z</time></trkpt><trkpt lat="41.7469277" lon="3.3903064"><ele>0.0</ele><time>2026-04-30T12:30:25.041Z</time></trkpt><trkpt lat="41.746966" lon="3.3904164"><ele>0.0</ele><time>2026-04-30T12:30:26.042Z</time></trkpt><trkpt lat="41.7469983" lon="3.3905263"><ele>0.0</ele><time>2026-04-30T12:30:27.041Z</time></trkpt><trkpt lat="41.7470361" lon="3.3906335"><ele>0.0</ele><time>2026-04-30T12:30:28.042Z</time></trkpt><trkpt lat="41.7471084" lon="3.3908483"><ele>0.0</ele><time>2026-04-30T12:30:30.041Z</time></trkpt><trkpt lat="41.7471435" lon="3.3909595"><ele>0.0</ele><time>2026-04-30T12:30:31.041Z</time></trkpt><trkpt lat="41.7471759" lon="3.3910639"><ele>0.0</ele><time>2026-04-30T12:30:32.042Z</time></trkpt><trkpt lat="41.7472169" lon="3.3911719"><ele>0.0</ele><time>2026-04-30T12:30:33.041Z</time></trkpt><trkpt lat="41.7472563" lon="3.3912826"><ele>0.0</ele><time>2026-04-30T12:30:34.041Z</time></trkpt><trkpt lat="41.7472902" lon="3.3913917"><ele>0.0</ele><time>2026-04-30T12:30:35.042Z</time></trkpt><trkpt lat="41.7473234" lon="3.3914984"><ele>0.0</ele><time>2026-04-30T12:30:36.041Z</time></trkpt><trkpt lat="41.7473556" lon="3.3916078"><ele>0.0</ele><time>2026-04-30T12:30:37.041Z</time></trkpt><trkpt lat="41.747393" lon="3.391715"><ele>0.0</ele><time>2026-04-30T12:30:38.041Z</time></trkpt><trkpt lat="41.747427" lon="3.3918245"><ele>0.0</ele><time>2026-04-30T12:30:39.041Z</time></trkpt><trkpt lat="41.7474548" lon="3.3919347"><ele>0.0</ele><time>2026-04-30T12:30:40.042Z</time></trkpt><trkpt lat="41.7474828" lon="3.3920419"><ele>0.0</ele><time>2026-04-30T12:30:41.041Z</time></trkpt><trkpt lat="41.7475066" lon="3.3921499"><ele>0.0</ele><time>2026-04-30T12:30:42.042Z</time></trkpt><trkpt lat="41.7475296" lon="3.3922599"><ele>0.0</ele><time>2026-04-30T12:30:43.041Z</time></trkpt><trkpt lat="41.7475531" lon="3.3923726"><ele>0.0</ele><time>2026-04-30T12:30:44.041Z</time></trkpt><trkpt lat="41.7475836" lon="3.3924815"><ele>0.0</ele><time>2026-04-30T12:30:45.041Z</time></trkpt><trkpt lat="41.7476108" lon="3.392593"><ele>0.0</ele><time>2026-04-30T12:30:46.042Z</time></trkpt><trkpt lat="41.7476475" lon="3.3927014"><ele>0.0</ele><time>2026-04-30T12:30:47.042Z</time></trkpt><trkpt lat="41.7476788" lon="3.3928085"><ele>0.0</ele><time>2026-04-30T12:30:48.041Z</time></trkpt><trkpt lat="41.74771" lon="3.3929153"><ele>0.0</ele><time>2026-04-30T12:30:49.042Z</time></trkpt><trkpt lat="41.7477684" lon="3.393137"><ele>0.0</ele><time>2026-04-30T12:30:51.042Z</time></trkpt><trkpt lat="41.7477984" lon="3.3932477"><ele>0.0</ele><time>2026-04-30T12:30:52.042Z</time></trkpt><trkpt lat="41.7478283" lon="3.3933611"><ele>0.0</ele><time>2026-04-30T12:30:53.042Z</time></trkpt><trkpt lat="41.7478614" lon="3.3934717"><ele>0.0</ele><time>2026-04-30T12:30:54.041Z</time></trkpt><trkpt lat="41.7478921" lon="3.393576"><ele>0.0</ele><time>2026-04-30T12:30:55.041Z</time></trkpt><trkpt lat="41.7479263" lon="3.3936735"><ele>0.0</ele><time>2026-04-30T12:30:56.042Z</time></trkpt><trkpt lat="41.7479539" lon="3.3937845"><ele>0.0</ele><time>2026-04-30T12:30:57.042Z</time></trkpt><trkpt lat="41.7479847" lon="3.3938961"><ele>0.0</ele><time>2026-04-30T12:30:58.041Z</time></trkpt><trkpt lat="41.7480178" lon="3.3940052"><ele>0.0</ele><time>2026-04-30T12:30:59.041Z</time></trkpt><trkpt lat="41.7480486" lon="3.3941191"><ele>0.0</ele><time>2026-04-30T12:31:00.042Z</time></trkpt><trkpt lat="41.7480846" lon="3.3942223"><ele>0.0</ele><time>2026-04-30T12:31:01.042Z</time></trkpt><trkpt lat="41.7481186" lon="3.3943328"><ele>0.0</ele><time>2026-04-30T12:31:02.041Z</time></trkpt><trkpt lat="41.7481491" lon="3.3944389"><ele>0.0</ele><time>2026-04-30T12:31:03.041Z</time></trkpt><trkpt lat="41.7481803" lon="3.3945482"><ele>0.0</ele><time>2026-04-30T12:31:04.041Z</time></trkpt><trkpt lat="41.7482122" lon="3.3946597"><ele>0.0</ele><time>2026-04-30T12:31:05.042Z</time></trkpt><trkpt lat="41.7482394" lon="3.3947699"><ele>0.0</ele><time>2026-04-30T12:31:06.042Z</time></trkpt><trkpt lat="41.7482703" lon="3.3948825"><ele>0.0</ele><time>2026-04-30T12:31:07.04Z</time></trkpt><trkpt lat="41.7482993" lon="3.3949918"><ele>0.0</ele><time>2026-04-30T12:31:08.041Z</time></trkpt><trkpt lat="41.7483292" lon="3.3951016"><ele>0.0</ele><time>2026-04-30T12:31:09.04Z</time></trkpt><trkpt lat="41.7483593" lon="3.3952084"><ele>0.0</ele><time>2026-04-30T12:31:10.04Z</time></trkpt><trkpt lat="41.7484347" lon="3.3955346"><ele>0.0</ele><time>2026-04-30T12:31:13.041Z</time></trkpt><trkpt lat="41.7484602" lon="3.395645"><ele>0.0</ele><time>2026-04-30T12:31:14.04Z</time></trkpt><trkpt lat="41.7484843" lon="3.395755"><ele>0.0</ele><time>2026-04-30T12:31:15.041Z</time></trkpt><trkpt lat="41.7485078" lon="3.3958647"><ele>0.0</ele><time>2026-04-30T12:31:16.041Z</time></trkpt><trkpt lat="41.748538" lon="3.3959749"><ele>0.0</ele><time>2026-04-30T12:31:17.04Z</time></trkpt><trkpt lat="41.7485676" lon="3.3960821"><ele>0.0</ele><time>2026-04-30T12:31:18.04Z</time></trkpt><trkpt lat="41.748597" lon="3.3961928"><ele>0.0</ele><time>2026-04-30T12:31:19.04Z</time></trkpt><trkpt lat="41.7486257" lon="3.3963002"><ele>0.0</ele><time>2026-04-30T12:31:20.04Z</time></trkpt><trkpt lat="41.7486563" lon="3.39641"><ele>0.0</ele><time>2026-04-30T12:31:21.04Z</time></trkpt><trkpt lat="41.748678" lon="3.3965251"><ele>0.0</ele><time>2026-04-30T12:31:22.04Z</time></trkpt><trkpt lat="41.7487064" lon="3.3966391"><ele>0.0</ele><time>2026-04-30T12:31:23.04Z</time></trkpt><trkpt lat="41.7487394" lon="3.3967483"><ele>0.0</ele><time>2026-04-30T12:31:24.04Z</time></trkpt><trkpt lat="41.7487799" lon="3.3968538"><ele>0.0</ele><time>2026-04-30T12:31:25.041Z</time></trkpt><trkpt lat="41.7488116" lon="3.3969619"><ele>0.0</ele><time>2026-04-30T12:31:26.04Z</time></trkpt><trkpt lat="41.7488476" lon="3.3970656"><ele>0.0</ele><time>2026-04-30T12:31:27.041Z</time></trkpt><trkpt lat="41.7488788" lon="3.3971719"><ele>0.0</ele><time>2026-04-30T12:31:28.041Z</time></trkpt><trkpt lat="41.7489072" lon="3.3972787"><ele>0.0</ele><time>2026-04-30T12:31:29.041Z</time></trkpt><trkpt lat="41.7489337" lon="3.3973883"><ele>0.0</ele><time>2026-04-30T12:31:30.04Z</time></trkpt><trkpt lat="41.748959" lon="3.3974924"><ele>0.0</ele><time>2026-04-30T12:31:31.04Z</time></trkpt><trkpt lat="41.7490123" lon="3.3977153"><ele>0.0</ele><time>2026-04-30T12:31:33.04Z</time></trkpt><trkpt lat="41.7490435" lon="3.3978249"><ele>0.0</ele><time>2026-04-30T12:31:34.04Z</time></trkpt><trkpt lat="41.7490722" lon="3.3979335"><ele>0.0</ele><time>2026-04-30T12:31:35.04Z</time></trkpt><trkpt lat="41.749102" lon="3.3980433"><ele>0.0</ele><time>2026-04-30T12:31:36.04Z</time></trkpt><trkpt lat="41.7491285" lon="3.398153"><ele>0.0</ele><time>2026-04-30T12:31:37.04Z</time></trkpt><trkpt lat="41.7491522" lon="3.3982715"><ele>0.0</ele><time>2026-04-30T12:31:38.04Z</time></trkpt><trkpt lat="41.7491764" lon="3.398386"><ele>0.0</ele><time>2026-04-30T12:31:39.041Z</time></trkpt><trkpt lat="41.7491997" lon="3.3984906"><ele>0.0</ele><time>2026-04-30T12:31:40.041Z</time></trkpt><trkpt lat="41.7492271" lon="3.3986025"><ele>0.0</ele><time>2026-04-30T12:31:41.04Z</time></trkpt><trkpt lat="41.7492557" lon="3.3987117"><ele>0.0</ele><time>2026-04-30T12:31:42.04Z</time></trkpt><trkpt lat="41.7492854" lon="3.3988188"><ele>0.0</ele><time>2026-04-30T12:31:43.04Z</time></trkpt><trkpt lat="41.7493243" lon="3.398925"><ele>0.0</ele><time>2026-04-30T12:31:44.041Z</time></trkpt><trkpt lat="41.7493625" lon="3.3990318"><ele>0.0</ele><time>2026-04-30T12:31:45.041Z</time></trkpt><trkpt lat="41.7494023" lon="3.39914"><ele>0.0</ele><time>2026-04-30T12:31:46.04Z</time></trkpt><trkpt lat="41.7494466" lon="3.3992452"><ele>0.0</ele><time>2026-04-30T12:31:47.041Z</time></trkpt><trkpt lat="41.7494853" lon="3.3993534"><ele>0.0</ele><time>2026-04-30T12:31:48.041Z</time></trkpt><trkpt lat="41.7495155" lon="3.3994689"><ele>0.0</ele><time>2026-04-30T12:31:49.04Z</time></trkpt><trkpt lat="41.7495465" lon="3.3995797"><ele>0.0</ele><time>2026-04-30T12:31:50.041Z</time></trkpt><trkpt lat="41.7495804" lon="3.3996927"><ele>0.0</ele><time>2026-04-30T12:31:51.04Z</time></trkpt><trkpt lat="41.7496122" lon="3.3998031"><ele>0.0</ele><time>2026-04-30T12:31:52.04Z</time></trkpt><trkpt lat="41.7496752" lon="3.4000108"><ele>0.0</ele><time>2026-04-30T12:31:54.041Z</time></trkpt><trkpt lat="41.7497099" lon="3.4001169"><ele>0.0</ele><time>2026-04-30T12:31:55.041Z</time></trkpt><trkpt lat="41.7497472" lon="3.4002223"><ele>0.0</ele><time>2026-04-30T12:31:56.041Z</time></trkpt><trkpt lat="41.7497825" lon="3.4003358"><ele>0.0</ele><time>2026-04-30T12:31:57.04Z</time></trkpt><trkpt lat="41.7498193" lon="3.4004477"><ele>0.0</ele><time>2026-04-30T12:31:58.041Z</time></trkpt><trkpt lat="41.7498507" lon="3.400555"><ele>0.0</ele><time>2026-04-30T12:31:59.041Z</time></trkpt><trkpt lat="41.7498818" lon="3.4006649"><ele>0.0</ele><time>2026-04-30T12:32:00.041Z</time></trkpt><trkpt lat="41.7499112" lon="3.4007763"><ele>0.0</ele><time>2026-04-30T12:32:01.04Z</time></trkpt><trkpt lat="41.7499446" lon="3.4008808"><ele>0.0</ele><time>2026-04-30T12:32:02.041Z</time></trkpt><trkpt lat="41.7499739" lon="3.4009913"><ele>0.0</ele><time>2026-04-30T12:32:03.04Z</time></trkpt><trkpt lat="41.7500097" lon="3.4011026"><ele>0.0</ele><time>2026-04-30T12:32:04.041Z</time></trkpt><trkpt lat="41.7500432" lon="3.4012075"><ele>0.0</ele><time>2026-04-30T12:32:05.04Z</time></trkpt><trkpt lat="41.7500735" lon="3.4013111"><ele>0.0</ele><time>2026-04-30T12:32:06.04Z</time></trkpt><trkpt lat="41.7501063" lon="3.4014139"><ele>0.0</ele><time>2026-04-30T12:32:07.04Z</time></trkpt><trkpt lat="41.7501369" lon="3.4015191"><ele>0.0</ele><time>2026-04-30T12:32:08.041Z</time></trkpt><trkpt lat="41.7501715" lon="3.401625"><ele>0.0</ele><time>2026-04-30T12:32:09.04Z</time></trkpt><trkpt lat="41.7502048" lon="3.4017331"><ele>0.0</ele><time>2026-04-30T12:32:10.04Z</time></trkpt><trkpt lat="41.7502342" lon="3.4018431"><ele>0.0</ele><time>2026-04-30T12:32:11.04Z</time></trkpt><trkpt lat="41.750265" lon="3.4019515"><ele>0.0</ele><time>2026-04-30T12:32:12.04Z</time></trkpt><trkpt lat="41.750324" lon="3.4021714"><ele>0.0</ele><time>2026-04-30T12:32:14.041Z</time></trkpt><trkpt lat="41.750351" lon="3.4022799"><ele>0.0</ele><time>2026-04-30T12:32:15.04Z</time></trkpt><trkpt lat="41.7503803" lon="3.4023881"><ele>0.0</ele><time>2026-04-30T12:32:16.041Z</time></trkpt><trkpt lat="41.7504031" lon="3.4024979"><ele>0.0</ele><time>2026-04-30T12:32:17.04Z</time></trkpt><trkpt lat="41.7504344" lon="3.4025997"><ele>0.0</ele><time>2026-04-30T12:32:18.04Z</time></trkpt><trkpt lat="41.7504692" lon="3.4027095"><ele>0.0</ele><time>2026-04-30T12:32:19.041Z</time></trkpt><trkpt lat="41.7504984" lon="3.4028156"><ele>0.0</ele><time>2026-04-30T12:32:20.04Z</time></trkpt><trkpt lat="41.7505269" lon="3.402922"><ele>0.0</ele><time>2026-04-30T12:32:21.04Z</time></trkpt><trkpt lat="41.7505541" lon="3.4030317"><ele>0.0</ele><time>2026-04-30T12:32:22.04Z</time></trkpt><trkpt lat="41.7505835" lon="3.4031357"><ele>0.0</ele><time>2026-04-30T12:32:23.041Z</time></trkpt><trkpt lat="41.7506204" lon="3.4032434"><ele>0.0</ele><time>2026-04-30T12:32:24.04Z</time></trkpt><trkpt lat="41.7506532" lon="3.403353"><ele>0.0</ele><time>2026-04-30T12:32:25.04Z</time></trkpt><trkpt lat="41.7506793" lon="3.4034673"><ele>0.0</ele><time>2026-04-30T12:32:26.041Z</time></trkpt><trkpt lat="41.7507086" lon="3.4035722"><ele>0.0</ele><time>2026-04-30T12:32:27.04Z</time></trkpt><trkpt lat="41.7507446" lon="3.403677"><ele>0.0</ele><time>2026-04-30T12:32:28.041Z</time></trkpt><trkpt lat="41.7507767" lon="3.4037877"><ele>0.0</ele><time>2026-04-30T12:32:29.041Z</time></trkpt><trkpt lat="41.7508071" lon="3.4038995"><ele>0.0</ele><time>2026-04-30T12:32:30.041Z</time></trkpt><trkpt lat="41.7508412" lon="3.4040099"><ele>0.0</ele><time>2026-04-30T12:32:31.041Z</time></trkpt><trkpt lat="41.7508718" lon="3.4041255"><ele>0.0</ele><time>2026-04-30T12:32:32.04Z</time></trkpt><trkpt lat="41.750903" lon="3.4042363"><ele>0.0</ele><time>2026-04-30T12:32:33.041Z</time></trkpt><trkpt lat="41.7509685" lon="3.4044534"><ele>0.0</ele><time>2026-04-30T12:32:35.04Z</time></trkpt><trkpt lat="41.7509992" lon="3.4045644"><ele>0.0</ele><time>2026-04-30T12:32:36.041Z</time></trkpt><trkpt lat="41.7510322" lon="3.4046719"><ele>0.0</ele><time>2026-04-30T12:32:37.04Z</time></trkpt><trkpt lat="41.7510622" lon="3.40478"><ele>0.0</ele><time>2026-04-30T12:32:38.04Z</time></trkpt><trkpt lat="41.7511006" lon="3.4048882"><ele>0.0</ele><time>2026-04-30T12:32:39.041Z</time></trkpt><trkpt lat="41.751131" lon="3.4049979"><ele>0.0</ele><time>2026-04-30T12:32:40.04Z</time></trkpt><trkpt lat="41.7511605" lon="3.4051107"><ele>0.0</ele><time>2026-04-30T12:32:41.041Z</time></trkpt><trkpt lat="41.7511872" lon="3.4052185"><ele>0.0</ele><time>2026-04-30T12:32:42.04Z</time></trkpt><trkpt lat="41.7512224" lon="3.4053242"><ele>0.0</ele><time>2026-04-30T12:32:43.04Z</time></trkpt><trkpt lat="41.7512493" lon="3.4054317"><ele>0.0</ele><time>2026-04-30T12:32:44.041Z</time></trkpt><trkpt lat="41.7512873" lon="3.4055429"><ele>0.0</ele><time>2026-04-30T12:32:45.04Z</time></trkpt><trkpt lat="41.7513241" lon="3.4056589"><ele>0.0</ele><time>2026-04-30T12:32:46.04Z</time></trkpt><trkpt lat="41.7513858" lon="3.4058741"><ele>0.0</ele><time>2026-04-30T12:32:48.04Z</time></trkpt><trkpt lat="41.7514153" lon="3.405979"><ele>0.0</ele><time>2026-04-30T12:32:49.04Z</time></trkpt><trkpt lat="41.7514493" lon="3.4060786"><ele>0.0</ele><time>2026-04-30T12:32:50.041Z</time></trkpt><trkpt lat="41.75148" lon="3.4061838"><ele>0.0</ele><time>2026-04-30T12:32:51.04Z</time></trkpt><trkpt lat="41.7515113" lon="3.4062916"><ele>0.0</ele><time>2026-04-30T12:32:52.04Z</time></trkpt><trkpt lat="41.7515486" lon="3.4063946"><ele>0.0</ele><time>2026-04-30T12:32:53.04Z</time></trkpt><trkpt lat="41.7515872" lon="3.4065005"><ele>0.0</ele><time>2026-04-30T12:32:54.04Z</time></trkpt><trkpt lat="41.751641" lon="3.4067244"><ele>0.0</ele><time>2026-04-30T12:32:56.041Z</time></trkpt><trkpt lat="41.7516647" lon="3.4068362"><ele>0.0</ele><time>2026-04-30T12:32:57.04Z</time></trkpt><trkpt lat="41.7516907" lon="3.4069466"><ele>0.0</ele><time>2026-04-30T12:32:58.04Z</time></trkpt><trkpt lat="41.7517142" lon="3.4070568"><ele>0.0</ele><time>2026-04-30T12:32:59.041Z</time></trkpt><trkpt lat="41.7517416" lon="3.4071653"><ele>0.0</ele><time>2026-04-30T12:33:00.04Z</time></trkpt><trkpt lat="41.7517693" lon="3.407271"><ele>0.0</ele><time>2026-04-30T12:33:01.041Z</time></trkpt><trkpt lat="41.7518062" lon="3.4073802"><ele>0.0</ele><time>2026-04-30T12:33:02.041Z</time></trkpt><trkpt lat="41.7518435" lon="3.4074953"><ele>0.0</ele><time>2026-04-30T12:33:03.041Z</time></trkpt><trkpt lat="41.7518791" lon="3.4076074"><ele>0.0</ele><time>2026-04-30T12:33:04.04Z</time></trkpt><trkpt lat="41.7519058" lon="3.4077122"><ele>0.0</ele><time>2026-04-30T12:33:05.041Z</time></trkpt><trkpt lat="41.7519267" lon="3.4078176"><ele>0.0</ele><time>2026-04-30T12:33:06.04Z</time></trkpt><trkpt lat="41.7519522" lon="3.4079266"><ele>0.0</ele><time>2026-04-30T12:33:07.04Z</time></trkpt><trkpt lat="41.7519746" lon="3.4080378"><ele>0.0</ele><time>2026-04-30T12:33:08.04Z</time></trkpt><trkpt lat="41.7519921" lon="3.4081522"><ele>0.0</ele><time>2026-04-30T12:33:09.04Z</time></trkpt><trkpt lat="41.7520213" lon="3.4082588"><ele>0.0</ele><time>2026-04-30T12:33:10.041Z</time></trkpt><trkpt lat="41.7520431" lon="3.408371"><ele>0.0</ele><time>2026-04-30T12:33:11.041Z</time></trkpt><trkpt lat="41.752066" lon="3.4084828"><ele>0.0</ele><time>2026-04-30T12:33:12.041Z</time></trkpt><trkpt lat="41.7520906" lon="3.4085903"><ele>0.0</ele><time>2026-04-30T12:33:13.04Z</time></trkpt><trkpt lat="41.7521188" lon="3.4086983"><ele>0.0</ele><time>2026-04-30T12:33:14.04Z</time></trkpt><trkpt lat="41.7521557" lon="3.4088069"><ele>0.0</ele><time>2026-04-30T12:33:15.04Z</time></trkpt><trkpt lat="41.7522119" lon="3.4090294"><ele>0.0</ele><time>2026-04-30T12:33:17.04Z</time></trkpt><trkpt lat="41.7522372" lon="3.4091428"><ele>0.0</ele><time>2026-04-30T12:33:18.04Z</time></trkpt><trkpt lat="41.7523008" lon="3.4093597"><ele>0.0</ele><time>2026-04-30T12:33:20.04Z</time></trkpt><trkpt lat="41.7523322" lon="3.4094696"><ele>0.0</ele><time>2026-04-30T12:33:21.04Z</time></trkpt><trkpt lat="41.7523635" lon="3.4095797"><ele>0.0</ele><time>2026-04-30T12:33:22.041Z</time></trkpt><trkpt lat="41.7523935" lon="3.4096883"><ele>0.0</ele><time>2026-04-30T12:33:23.04Z</time></trkpt><trkpt lat="41.7524314" lon="3.4097949"><ele>0.0</ele><time>2026-04-30T12:33:24.041Z</time></trkpt><trkpt lat="41.7524616" lon="3.4099075"><ele>0.0</ele><time>2026-04-30T12:33:25.04Z</time></trkpt><trkpt lat="41.7524871" lon="3.410018"><ele>0.0</ele><time>2026-04-30T12:33:26.04Z</time></trkpt><trkpt lat="41.7525093" lon="3.4101279"><ele>0.0</ele><time>2026-04-30T12:33:27.041Z</time></trkpt><trkpt lat="41.7525411" lon="3.4102355"><ele>0.0</ele><time>2026-04-30T12:33:28.04Z</time></trkpt><trkpt lat="41.7525748" lon="3.4103433"><ele>0.0</ele><time>2026-04-30T12:33:29.041Z</time></trkpt><trkpt lat="41.7526082" lon="3.4104475"><ele>0.0</ele><time>2026-04-30T12:33:30.041Z</time></trkpt><trkpt lat="41.7526443" lon="3.4105522"><ele>0.0</ele><time>2026-04-30T12:33:31.04Z</time></trkpt><trkpt lat="41.7526797" lon="3.4106598"><ele>0.0</ele><time>2026-04-30T12:33:32.04Z</time></trkpt><trkpt lat="41.752713" lon="3.41077"><ele>0.0</ele><time>2026-04-30T12:33:33.04Z</time></trkpt><trkpt lat="41.7527449" lon="3.410877"><ele>0.0</ele><time>2026-04-30T12:33:34.041Z</time></trkpt><trkpt lat="41.7527751" lon="3.4109865"><ele>0.0</ele><time>2026-04-30T12:33:35.04Z</time></trkpt><trkpt lat="41.7528095" lon="3.4110966"><ele>0.0</ele><time>2026-04-30T12:33:36.041Z</time></trkpt><trkpt lat="41.7528717" lon="3.4113171"><ele>0.0</ele><time>2026-04-30T12:33:38.04Z</time></trkpt><trkpt lat="41.7529023" lon="3.4114236"><ele>0.0</ele><time>2026-04-30T12:33:39.04Z</time></trkpt><trkpt lat="41.7529333" lon="3.4115261"><ele>0.0</ele><time>2026-04-30T12:33:40.041Z</time></trkpt><trkpt lat="41.7529605" lon="3.4116293"><ele>0.0</ele><time>2026-04-30T12:33:41.04Z</time></trkpt><trkpt lat="41.7529931" lon="3.4117398"><ele>0.0</ele><time>2026-04-30T12:33:42.041Z</time></trkpt><trkpt lat="41.7530208" lon="3.4118511"><ele>0.0</ele><time>2026-04-30T12:33:43.041Z</time></trkpt><trkpt lat="41.7530517" lon="3.4119542"><ele>0.0</ele><time>2026-04-30T12:33:44.04Z</time></trkpt><trkpt lat="41.7530804" lon="3.4120674"><ele>0.0</ele><time>2026-04-30T12:33:45.04Z</time></trkpt><trkpt lat="41.7531095" lon="3.4121696"><ele>0.0</ele><time>2026-04-30T12:33:46.041Z</time></trkpt><trkpt lat="41.7531366" lon="3.4122701"><ele>0.0</ele><time>2026-04-30T12:33:47.04Z</time></trkpt><trkpt lat="41.7531647" lon="3.4123827"><ele>0.0</ele><time>2026-04-30T12:33:48.04Z</time></trkpt><trkpt lat="41.7531923" lon="3.4124957"><ele>0.0</ele><time>2026-04-30T12:33:49.041Z</time></trkpt><trkpt lat="41.7532233" lon="3.4126106"><ele>0.0</ele><time>2026-04-30T12:33:50.041Z</time></trkpt><trkpt lat="41.7532849" lon="3.4128262"><ele>0.0</ele><time>2026-04-30T12:33:52.04Z</time></trkpt><trkpt lat="41.7533151" lon="3.4129363"><ele>0.0</ele><time>2026-04-30T12:33:53.04Z</time></trkpt><trkpt lat="41.7533454" lon="3.4130407"><ele>0.0</ele><time>2026-04-30T12:33:54.04Z</time></trkpt><trkpt lat="41.7533734" lon="3.4131473"><ele>0.0</ele><time>2026-04-30T12:33:55.04Z</time></trkpt><trkpt lat="41.7533918" lon="3.4132539"><ele>0.0</ele><time>2026-04-30T12:33:56.041Z</time></trkpt><trkpt lat="41.7534166" lon="3.4133611"><ele>0.0</ele><time>2026-04-30T12:33:57.04Z</time></trkpt><trkpt lat="41.7534633" lon="3.4135763"><ele>0.0</ele><time>2026-04-30T12:33:59.04Z</time></trkpt><trkpt lat="41.7534937" lon="3.4136865"><ele>0.0</ele><time>2026-04-30T12:34:00.04Z</time></trkpt><trkpt lat="41.7535225" lon="3.413802"><ele>0.0</ele><time>2026-04-30T12:34:01.041Z</time></trkpt><trkpt lat="41.7535553" lon="3.4139087"><ele>0.0</ele><time>2026-04-30T12:34:02.04Z</time></trkpt><trkpt lat="41.753589" lon="3.4140155"><ele>0.0</ele><time>2026-04-30T12:34:03.04Z</time></trkpt><trkpt lat="41.7536238" lon="3.4141222"><ele>0.0</ele><time>2026-04-30T12:34:04.041Z</time></trkpt><trkpt lat="41.7536535" lon="3.4142259"><ele>0.0</ele><time>2026-04-30T12:34:05.04Z</time></trkpt><trkpt lat="41.7536862" lon="3.4143322"><ele>0.0</ele><time>2026-04-30T12:34:06.041Z</time></trkpt><trkpt lat="41.7537181" lon="3.4144344"><ele>0.0</ele><time>2026-04-30T12:34:07.041Z</time></trkpt><trkpt lat="41.7537499" lon="3.414539"><ele>0.0</ele><time>2026-04-30T12:34:08.041Z</time></trkpt><trkpt lat="41.7537801" lon="3.4146438"><ele>0.0</ele><time>2026-04-30T12:34:09.04Z</time></trkpt><trkpt lat="41.7538145" lon="3.4147514"><ele>0.0</ele><time>2026-04-30T12:34:10.04Z</time></trkpt><trkpt lat="41.7538432" lon="3.4148616"><ele>0.0</ele><time>2026-04-30T12:34:11.041Z</time></trkpt><trkpt lat="41.7538759" lon="3.4149659"><ele>0.0</ele><time>2026-04-30T12:34:12.041Z</time></trkpt><trkpt lat="41.7539082" lon="3.4150718"><ele>0.0</ele><time>2026-04-30T12:34:13.041Z</time></trkpt><trkpt lat="41.7539401" lon="3.4151815"><ele>0.0</ele><time>2026-04-30T12:34:14.041Z</time></trkpt><trkpt lat="41.7539704" lon="3.415287"><ele>0.0</ele><time>2026-04-30T12:34:15.04Z</time></trkpt><trkpt lat="41.7540017" lon="3.4153936"><ele>0.0</ele><time>2026-04-30T12:34:16.04Z</time></trkpt><trkpt lat="41.7540381" lon="3.4155057"><ele>0.0</ele><time>2026-04-30T12:34:17.04Z</time></trkpt><trkpt lat="41.7540701" lon="3.4156191"><ele>0.0</ele><time>2026-04-30T12:34:18.04Z</time></trkpt><trkpt lat="41.7541271" lon="3.4158363"><ele>0.0</ele><time>2026-04-30T12:34:20.041Z</time></trkpt><trkpt lat="41.7541569" lon="3.4159476"><ele>0.0</ele><time>2026-04-30T12:34:21.04Z</time></trkpt><trkpt lat="41.7541869" lon="3.4160579"><ele>0.0</ele><time>2026-04-30T12:34:22.041Z</time></trkpt><trkpt lat="41.7542184" lon="3.4161678"><ele>0.0</ele><time>2026-04-30T12:34:23.04Z</time></trkpt><trkpt lat="41.7542517" lon="3.4162761"><ele>0.0</ele><time>2026-04-30T12:34:24.04Z</time></trkpt><trkpt lat="41.7542787" lon="3.4163907"><ele>0.0</ele><time>2026-04-30T12:34:25.04Z</time></trkpt><trkpt lat="41.7543119" lon="3.4165041"><ele>0.0</ele><time>2026-04-30T12:34:26.041Z</time></trkpt><trkpt lat="41.7543427" lon="3.4166162"><ele>0.0</ele><time>2026-04-30T12:34:27.041Z</time></trkpt><trkpt lat="41.7543691" lon="3.4167263"><ele>0.0</ele><time>2026-04-30T12:34:28.041Z</time></trkpt><trkpt lat="41.7543884" lon="3.4168353"><ele>0.0</ele><time>2026-04-30T12:34:29.041Z</time></trkpt><trkpt lat="41.7544095" lon="3.4169463"><ele>0.0</ele><time>2026-04-30T12:34:30.04Z</time></trkpt><trkpt lat="41.7544298" lon="3.417058"><ele>0.0</ele><time>2026-04-30T12:34:31.04Z</time></trkpt><trkpt lat="41.7544595" lon="3.4171668"><ele>0.0</ele><time>2026-04-30T12:34:32.041Z</time></trkpt><trkpt lat="41.7544955" lon="3.4172695"><ele>0.0</ele><time>2026-04-30T12:34:33.04Z</time></trkpt><trkpt lat="41.754528" lon="3.4173738"><ele>0.0</ele><time>2026-04-30T12:34:34.04Z</time></trkpt><trkpt lat="41.7545608" lon="3.4174732"><ele>0.0</ele><time>2026-04-30T12:34:35.04Z</time></trkpt><trkpt lat="41.7545883" lon="3.4175802"><ele>0.0</ele><time>2026-04-30T12:34:36.041Z</time></trkpt><trkpt lat="41.7546223" lon="3.4176858"><ele>0.0</ele><time>2026-04-30T12:34:37.04Z</time></trkpt><trkpt lat="41.7546458" lon="3.4177892"><ele>0.0</ele><time>2026-04-30T12:34:38.04Z</time></trkpt><trkpt lat="41.75468" lon="3.4178983"><ele>0.0</ele><time>2026-04-30T12:34:39.04Z</time></trkpt><trkpt lat="41.754745" lon="3.4181197"><ele>0.0</ele><time>2026-04-30T12:34:41.04Z</time></trkpt><trkpt lat="41.7547722" lon="3.418227"><ele>0.0</ele><time>2026-04-30T12:34:42.041Z</time></trkpt><trkpt lat="41.7548003" lon="3.4183337"><ele>0.0</ele><time>2026-04-30T12:34:43.04Z</time></trkpt><trkpt lat="41.7548304" lon="3.4184459"><ele>0.0</ele><time>2026-04-30T12:34:44.04Z</time></trkpt><trkpt lat="41.7548604" lon="3.4185447"><ele>0.0</ele><time>2026-04-30T12:34:45.041Z</time></trkpt><trkpt lat="41.7548902" lon="3.4186531"><ele>0.0</ele><time>2026-04-30T12:34:46.04Z</time></trkpt><trkpt lat="41.7549187" lon="3.4187643"><ele>0.0</ele><time>2026-04-30T12:34:47.04Z</time></trkpt><trkpt lat="41.754946" lon="3.4188718"><ele>0.0</ele><time>2026-04-30T12:34:48.041Z</time></trkpt><trkpt lat="41.7549778" lon="3.4189799"><ele>0.0</ele><time>2026-04-30T12:34:49.04Z</time></trkpt><trkpt lat="41.7550145" lon="3.4190881"><ele>0.0</ele><time>2026-04-30T12:34:50.04Z</time></trkpt><trkpt lat="41.7550472" lon="3.4191977"><ele>0.0</ele><time>2026-04-30T12:34:51.041Z</time></trkpt><trkpt lat="41.7550784" lon="3.4193054"><ele>0.0</ele><time>2026-04-30T12:34:52.041Z</time></trkpt><trkpt lat="41.7551071" lon="3.4194177"><ele>0.0</ele><time>2026-04-30T12:34:53.04Z</time></trkpt><trkpt lat="41.7551731" lon="3.4196354"><ele>0.0</ele><time>2026-04-30T12:34:55.04Z</time></trkpt><trkpt lat="41.7552023" lon="3.4197419"><ele>0.0</ele><time>2026-04-30T12:34:56.04Z</time></trkpt><trkpt lat="41.7552337" lon="3.419847"><ele>0.0</ele><time>2026-04-30T12:34:57.041Z</time></trkpt><trkpt lat="41.7552645" lon="3.4199536"><ele>0.0</ele><time>2026-04-30T12:34:58.04Z</time></trkpt><trkpt lat="41.7552936" lon="3.4200629"><ele>0.0</ele><time>2026-04-30T12:34:59.04Z</time></trkpt><trkpt lat="41.7553202" lon="3.4201702"><ele>0.0</ele><time>2026-04-30T12:35:00.04Z</time></trkpt><trkpt lat="41.7553831" lon="3.420382"><ele>0.0</ele><time>2026-04-30T12:35:02.041Z</time></trkpt><trkpt lat="41.755412" lon="3.420487"><ele>0.0</ele><time>2026-04-30T12:35:03.041Z</time></trkpt><trkpt lat="41.7554434" lon="3.4205933"><ele>0.0</ele><time>2026-04-30T12:35:04.041Z</time></trkpt><trkpt lat="41.7554692" lon="3.4207029"><ele>0.0</ele><time>2026-04-30T12:35:05.04Z</time></trkpt><trkpt lat="41.7555028" lon="3.4208185"><ele>0.0</ele><time>2026-04-30T12:35:06.041Z</time></trkpt><trkpt lat="41.7555378" lon="3.4209293"><ele>0.0</ele><time>2026-04-30T12:35:07.04Z</time></trkpt><trkpt lat="41.7555658" lon="3.4210337"><ele>0.0</ele><time>2026-04-30T12:35:08.041Z</time></trkpt><trkpt lat="41.7555982" lon="3.4211443"><ele>0.0</ele><time>2026-04-30T12:35:09.041Z</time></trkpt><trkpt lat="41.7556303" lon="3.4212544"><ele>0.0</ele><time>2026-04-30T12:35:10.04Z</time></trkpt><trkpt lat="41.7556616" lon="3.4213659"><ele>0.0</ele><time>2026-04-30T12:35:11.04Z</time></trkpt><trkpt lat="41.7556946" lon="3.4214748"><ele>0.0</ele><time>2026-04-30T12:35:12.041Z</time></trkpt><trkpt lat="41.7557284" lon="3.4215757"><ele>0.0</ele><time>2026-04-30T12:35:13.041Z</time></trkpt><trkpt lat="41.7557626" lon="3.4216775"><ele>0.0</ele><time>2026-04-30T12:35:14.04Z</time></trkpt><trkpt lat="41.7557976" lon="3.421785"><ele>0.0</ele><time>2026-04-30T12:35:15.04Z</time></trkpt><trkpt lat="41.7558285" lon="3.4218959"><ele>0.0</ele><time>2026-04-30T12:35:16.041Z</time></trkpt><trkpt lat="41.7558586" lon="3.4220004"><ele>0.0</ele><time>2026-04-30T12:35:17.04Z</time></trkpt><trkpt lat="41.7558909" lon="3.4221056"><ele>0.0</ele><time>2026-04-30T12:35:18.04Z</time></trkpt><trkpt lat="41.7559228" lon="3.4222132"><ele>0.0</ele><time>2026-04-30T12:35:19.04Z</time></trkpt><trkpt lat="41.7559576" lon="3.4223229"><ele>0.0</ele><time>2026-04-30T12:35:20.041Z</time></trkpt><trkpt lat="41.756023" lon="3.4225417"><ele>0.0</ele><time>2026-04-30T12:35:22.04Z</time></trkpt><trkpt lat="41.7560535" lon="3.4226487"><ele>0.0</ele><time>2026-04-30T12:35:23.04Z</time></trkpt><trkpt lat="41.7560849" lon="3.4227537"><ele>0.0</ele><time>2026-04-30T12:35:24.041Z</time></trkpt><trkpt lat="41.7561169" lon="3.422859"><ele>0.0</ele><time>2026-04-30T12:35:25.04Z</time></trkpt><trkpt lat="41.7561457" lon="3.4229638"><ele>0.0</ele><time>2026-04-30T12:35:26.04Z</time></trkpt><trkpt lat="41.7561724" lon="3.4230715"><ele>0.0</ele><time>2026-04-30T12:35:27.04Z</time></trkpt><trkpt lat="41.7562004" lon="3.4231866"><ele>0.0</ele><time>2026-04-30T12:35:28.041Z</time></trkpt><trkpt lat="41.7562269" lon="3.4233019"><ele>0.0</ele><time>2026-04-30T12:35:29.041Z</time></trkpt><trkpt lat="41.7562479" lon="3.4234127"><ele>0.0</ele><time>2026-04-30T12:35:30.04Z</time></trkpt><trkpt lat="41.7562695" lon="3.4235274"><ele>0.0</ele><time>2026-04-30T12:35:31.04Z</time></trkpt><trkpt lat="41.7562952" lon="3.4236425"><ele>0.0</ele><time>2026-04-30T12:35:32.04Z</time></trkpt><trkpt lat="41.7563211" lon="3.4237521"><ele>0.0</ele><time>2026-04-30T12:35:33.04Z</time></trkpt><trkpt lat="41.7563496" lon="3.4238586"><ele>0.0</ele><time>2026-04-30T12:35:34.04Z</time></trkpt><trkpt lat="41.7563786" lon="3.4239652"><ele>0.0</ele><time>2026-04-30T12:35:35.04Z</time></trkpt><trkpt lat="41.7563996" lon="3.4240757"><ele>0.0</ele><time>2026-04-30T12:35:36.04Z</time></trkpt><trkpt lat="41.7564163" lon="3.4241877"><ele>0.0</ele><time>2026-04-30T12:35:37.041Z</time></trkpt><trkpt lat="41.7564432" lon="3.4242894"><ele>0.0</ele><time>2026-04-30T12:35:38.041Z</time></trkpt><trkpt lat="41.7564714" lon="3.4243899"><ele>0.0</ele><time>2026-04-30T12:35:39.041Z</time></trkpt><trkpt lat="41.7565015" lon="3.424491"><ele>0.0</ele><time>2026-04-30T12:35:40.04Z</time></trkpt><trkpt lat="41.7565372" lon="3.4245958"><ele>0.0</ele><time>2026-04-30T12:35:41.04Z</time></trkpt><trkpt lat="41.7566085" lon="3.4248088"><ele>0.0</ele><time>2026-04-30T12:35:43.041Z</time></trkpt><trkpt lat="41.7566398" lon="3.4249178"><ele>0.0</ele><time>2026-04-30T12:35:44.04Z</time></trkpt><trkpt lat="41.7566759" lon="3.425029"><ele>0.0</ele><time>2026-04-30T12:35:45.041Z</time></trkpt><trkpt lat="41.75671" lon="3.4251379"><ele>0.0</ele><time>2026-04-30T12:35:46.041Z</time></trkpt><trkpt lat="41.7567465" lon="3.4252451"><ele>0.0</ele><time>2026-04-30T12:35:47.04Z</time></trkpt><trkpt lat="41.7567759" lon="3.4253475"><ele>0.0</ele><time>2026-04-30T12:35:48.041Z</time></trkpt><trkpt lat="41.756806" lon="3.4254536"><ele>0.0</ele><time>2026-04-30T12:35:49.04Z</time></trkpt><trkpt lat="41.7568385" lon="3.4255627"><ele>0.0</ele><time>2026-04-30T12:35:50.04Z</time></trkpt><trkpt lat="41.7568704" lon="3.4256673"><ele>0.0</ele><time>2026-04-30T12:35:51.04Z</time></trkpt><trkpt lat="41.7569097" lon="3.425775"><ele>0.0</ele><time>2026-04-30T12:35:52.04Z</time></trkpt><trkpt lat="41.7569483" lon="3.4258775"><ele>0.0</ele><time>2026-04-30T12:35:53.04Z</time></trkpt><trkpt lat="41.7569764" lon="3.4259807"><ele>0.0</ele><time>2026-04-30T12:35:54.04Z</time></trkpt><trkpt lat="41.7570072" lon="3.4260854"><ele>0.0</ele><time>2026-04-30T12:35:55.041Z</time></trkpt><trkpt lat="41.7570355" lon="3.4261919"><ele>0.0</ele><time>2026-04-30T12:35:56.04Z</time></trkpt><trkpt lat="41.7570648" lon="3.4262973"><ele>0.0</ele><time>2026-04-30T12:35:57.041Z</time></trkpt><trkpt lat="41.757131" lon="3.4265101"><ele>0.0</ele><time>2026-04-30T12:35:59.04Z</time></trkpt><trkpt lat="41.7571666" lon="3.4266264"><ele>0.0</ele><time>2026-04-30T12:36:00.039Z</time></trkpt><trkpt lat="41.7571964" lon="3.4267391"><ele>0.0</ele><time>2026-04-30T12:36:01.039Z</time></trkpt><trkpt lat="41.7572247" lon="3.4268467"><ele>0.0</ele><time>2026-04-30T12:36:02.039Z</time></trkpt><trkpt lat="41.7572829" lon="3.4270602"><ele>0.0</ele><time>2026-04-30T12:36:04.04Z</time></trkpt><trkpt lat="41.7573118" lon="3.4271684"><ele>0.0</ele><time>2026-04-30T12:36:05.039Z</time></trkpt><trkpt lat="41.7573388" lon="3.427281"><ele>0.0</ele><time>2026-04-30T12:36:06.039Z</time></trkpt><trkpt lat="41.757367" lon="3.4273899"><ele>0.0</ele><time>2026-04-30T12:36:07.039Z</time></trkpt><trkpt lat="41.7573942" lon="3.4274953"><ele>0.0</ele><time>2026-04-30T12:36:08.04Z</time></trkpt><trkpt lat="41.757428" lon="3.4276032"><ele>0.0</ele><time>2026-04-30T12:36:09.04Z</time></trkpt><trkpt lat="41.7574582" lon="3.4277117"><ele>0.0</ele><time>2026-04-30T12:36:10.039Z</time></trkpt><trkpt lat="41.7574879" lon="3.4278157"><ele>0.0</ele><time>2026-04-30T12:36:11.039Z</time></trkpt><trkpt lat="41.7575173" lon="3.427922"><ele>0.0</ele><time>2026-04-30T12:36:12.039Z</time></trkpt><trkpt lat="41.7575471" lon="3.4280242"><ele>0.0</ele><time>2026-04-30T12:36:13.039Z</time></trkpt><trkpt lat="41.7575796" lon="3.4281273"><ele>0.0</ele><time>2026-04-30T12:36:14.039Z</time></trkpt><trkpt lat="41.7576073" lon="3.4282379"><ele>0.0</ele><time>2026-04-30T12:36:15.04Z</time></trkpt><trkpt lat="41.757639" lon="3.4283438"><ele>0.0</ele><time>2026-04-30T12:36:16.04Z</time></trkpt><trkpt lat="41.7576684" lon="3.4284533"><ele>0.0</ele><time>2026-04-30T12:36:17.039Z</time></trkpt><trkpt lat="41.7576997" lon="3.4285618"><ele>0.0</ele><time>2026-04-30T12:36:18.039Z</time></trkpt><trkpt lat="41.7577287" lon="3.4286686"><ele>0.0</ele><time>2026-04-30T12:36:19.039Z</time></trkpt><trkpt lat="41.7577587" lon="3.4287766"><ele>0.0</ele><time>2026-04-30T12:36:20.039Z</time></trkpt><trkpt lat="41.7577877" lon="3.4288836"><ele>0.0</ele><time>2026-04-30T12:36:21.04Z</time></trkpt><trkpt lat="41.7578172" lon="3.4289901"><ele>0.0</ele><time>2026-04-30T12:36:22.039Z</time></trkpt><trkpt lat="41.7578412" lon="3.4291025"><ele>0.0</ele><time>2026-04-30T12:36:23.039Z</time></trkpt><trkpt lat="41.7578919" lon="3.4293218"><ele>0.0</ele><time>2026-04-30T12:36:25.04Z</time></trkpt><trkpt lat="41.7579244" lon="3.4294285"><ele>0.0</ele><time>2026-04-30T12:36:26.04Z</time></trkpt><trkpt lat="41.7579495" lon="3.4295376"><ele>0.0</ele><time>2026-04-30T12:36:27.04Z</time></trkpt><trkpt lat="41.7579785" lon="3.4296433"><ele>0.0</ele><time>2026-04-30T12:36:28.04Z</time></trkpt><trkpt lat="41.7580082" lon="3.4297514"><ele>0.0</ele><time>2026-04-30T12:36:29.039Z</time></trkpt><trkpt lat="41.7580328" lon="3.4298667"><ele>0.0</ele><time>2026-04-30T12:36:30.039Z</time></trkpt><trkpt lat="41.7580619" lon="3.4299761"><ele>0.0</ele><time>2026-04-30T12:36:31.04Z</time></trkpt><trkpt lat="41.7580919" lon="3.4300836"><ele>0.0</ele><time>2026-04-30T12:36:32.039Z</time></trkpt><trkpt lat="41.7581307" lon="3.4301927"><ele>0.0</ele><time>2026-04-30T12:36:33.04Z</time></trkpt><trkpt lat="41.7581649" lon="3.4302999"><ele>0.0</ele><time>2026-04-30T12:36:34.039Z</time></trkpt><trkpt lat="41.7581898" lon="3.4304059"><ele>0.0</ele><time>2026-04-30T12:36:35.039Z</time></trkpt><trkpt lat="41.7582128" lon="3.4305131"><ele>0.0</ele><time>2026-04-30T12:36:36.039Z</time></trkpt><trkpt lat="41.7582404" lon="3.4306188"><ele>0.0</ele><time>2026-04-30T12:36:37.039Z</time></trkpt><trkpt lat="41.7582771" lon="3.4307265"><ele>0.0</ele><time>2026-04-30T12:36:38.039Z</time></trkpt><trkpt lat="41.7583051" lon="3.4308397"><ele>0.0</ele><time>2026-04-30T12:36:39.04Z</time></trkpt><trkpt lat="41.7583377" lon="3.4309483"><ele>0.0</ele><time>2026-04-30T12:36:40.04Z</time></trkpt><trkpt lat="41.7583642" lon="3.4310511"><ele>0.0</ele><time>2026-04-30T12:36:41.04Z</time></trkpt><trkpt lat="41.7583922" lon="3.4311583"><ele>0.0</ele><time>2026-04-30T12:36:42.04Z</time></trkpt><trkpt lat="41.7584222" lon="3.4312652"><ele>0.0</ele><time>2026-04-30T12:36:43.039Z</time></trkpt><trkpt lat="41.7584521" lon="3.431376"><ele>0.0</ele><time>2026-04-30T12:36:44.039Z</time></trkpt><trkpt lat="41.7585151" lon="3.4315918"><ele>0.0</ele><time>2026-04-30T12:36:46.039Z</time></trkpt><trkpt lat="41.758551" lon="3.4317039"><ele>0.0</ele><time>2026-04-30T12:36:47.039Z</time></trkpt><trkpt lat="41.7585817" lon="3.4318086"><ele>0.0</ele><time>2026-04-30T12:36:48.04Z</time></trkpt><trkpt lat="41.7586131" lon="3.4319108"><ele>0.0</ele><time>2026-04-30T12:36:49.039Z</time></trkpt><trkpt lat="41.7586416" lon="3.4320199"><ele>0.0</ele><time>2026-04-30T12:36:50.04Z</time></trkpt><trkpt lat="41.7586734" lon="3.4321323"><ele>0.0</ele><time>2026-04-30T12:36:51.039Z</time></trkpt><trkpt lat="41.758705" lon="3.4322403"><ele>0.0</ele><time>2026-04-30T12:36:52.039Z</time></trkpt><trkpt lat="41.7587378" lon="3.4323466"><ele>0.0</ele><time>2026-04-30T12:36:53.04Z</time></trkpt><trkpt lat="41.7587712" lon="3.4324532"><ele>0.0</ele><time>2026-04-30T12:36:54.039Z</time></trkpt><trkpt lat="41.7588005" lon="3.43256"><ele>0.0</ele><time>2026-04-30T12:36:55.039Z</time></trkpt><trkpt lat="41.7588299" lon="3.4326638"><ele>0.0</ele><time>2026-04-30T12:36:56.039Z</time></trkpt><trkpt lat="41.7588561" lon="3.4327728"><ele>0.0</ele><time>2026-04-30T12:36:57.039Z</time></trkpt><trkpt lat="41.7588816" lon="3.4328817"><ele>0.0</ele><time>2026-04-30T12:36:58.039Z</time></trkpt><trkpt lat="41.758905" lon="3.4329859"><ele>0.0</ele><time>2026-04-30T12:36:59.04Z</time></trkpt><trkpt lat="41.7589324" lon="3.433095"><ele>0.0</ele><time>2026-04-30T12:37:00.039Z</time></trkpt><trkpt lat="41.758963" lon="3.4331988"><ele>0.0</ele><time>2026-04-30T12:37:01.04Z</time></trkpt><trkpt lat="41.7589917" lon="3.4333093"><ele>0.0</ele><time>2026-04-30T12:37:02.039Z</time></trkpt><trkpt lat="41.7590213" lon="3.4334138"><ele>0.0</ele><time>2026-04-30T12:37:03.039Z</time></trkpt><trkpt lat="41.7590557" lon="3.4335185"><ele>0.0</ele><time>2026-04-30T12:37:04.04Z</time></trkpt><trkpt lat="41.7590865" lon="3.4336282"><ele>0.0</ele><time>2026-04-30T12:37:05.04Z</time></trkpt><trkpt lat="41.7591491" lon="3.4338546"><ele>0.0</ele><time>2026-04-30T12:37:07.04Z</time></trkpt><trkpt lat="41.7591791" lon="3.4339564"><ele>0.0</ele><time>2026-04-30T12:37:08.04Z</time></trkpt><trkpt lat="41.759205" lon="3.4340689"><ele>0.0</ele><time>2026-04-30T12:37:09.039Z</time></trkpt><trkpt lat="41.7592358" lon="3.4341795"><ele>0.0</ele><time>2026-04-30T12:37:10.039Z</time></trkpt><trkpt lat="41.7592661" lon="3.4342859"><ele>0.0</ele><time>2026-04-30T12:37:11.039Z</time></trkpt><trkpt lat="41.7592991" lon="3.4343895"><ele>0.0</ele><time>2026-04-30T12:37:12.039Z</time></trkpt><trkpt lat="41.7593367" lon="3.4344946"><ele>0.0</ele><time>2026-04-30T12:37:13.04Z</time></trkpt><trkpt lat="41.7593667" lon="3.4346024"><ele>0.0</ele><time>2026-04-30T12:37:14.04Z</time></trkpt><trkpt lat="41.759398" lon="3.4347087"><ele>0.0</ele><time>2026-04-30T12:37:15.039Z</time></trkpt><trkpt lat="41.7594282" lon="3.4348169"><ele>0.0</ele><time>2026-04-30T12:37:16.04Z</time></trkpt><trkpt lat="41.7594601" lon="3.4349237"><ele>0.0</ele><time>2026-04-30T12:37:17.04Z</time></trkpt><trkpt lat="41.7594989" lon="3.4350304"><ele>0.0</ele><time>2026-04-30T12:37:18.039Z</time></trkpt><trkpt lat="41.7595285" lon="3.4351369"><ele>0.0</ele><time>2026-04-30T12:37:19.04Z</time></trkpt><trkpt lat="41.7595604" lon="3.4352392"><ele>0.0</ele><time>2026-04-30T12:37:20.039Z</time></trkpt><trkpt lat="41.7595902" lon="3.4353511"><ele>0.0</ele><time>2026-04-30T12:37:21.039Z</time></trkpt><trkpt lat="41.7596234" lon="3.4354598"><ele>0.0</ele><time>2026-04-30T12:37:22.04Z</time></trkpt><trkpt lat="41.7596512" lon="3.435567"><ele>0.0</ele><time>2026-04-30T12:37:23.039Z</time></trkpt><trkpt lat="41.7596822" lon="3.4356748"><ele>0.0</ele><time>2026-04-30T12:37:24.04Z</time></trkpt><trkpt lat="41.7597105" lon="3.4357831"><ele>0.0</ele><time>2026-04-30T12:37:25.04Z</time></trkpt><trkpt lat="41.7597387" lon="3.43589"><ele>0.0</ele><time>2026-04-30T12:37:26.039Z</time></trkpt><trkpt lat="41.7597924" lon="3.436102"><ele>0.0</ele><time>2026-04-30T12:37:28.039Z</time></trkpt><trkpt lat="41.7598251" lon="3.4362154"><ele>0.0</ele><time>2026-04-30T12:37:29.039Z</time></trkpt><trkpt lat="41.7598496" lon="3.4363329"><ele>0.0</ele><time>2026-04-30T12:37:30.04Z</time></trkpt><trkpt lat="41.7598801" lon="3.4364485"><ele>0.0</ele><time>2026-04-30T12:37:31.04Z</time></trkpt><trkpt lat="41.7599107" lon="3.4365637"><ele>0.0</ele><time>2026-04-30T12:37:32.039Z</time></trkpt><trkpt lat="41.7599477" lon="3.4366658"><ele>0.0</ele><time>2026-04-30T12:37:33.04Z</time></trkpt><trkpt lat="41.7599799" lon="3.4367717"><ele>0.0</ele><time>2026-04-30T12:37:34.039Z</time></trkpt><trkpt lat="41.7600051" lon="3.4368824"><ele>0.0</ele><time>2026-04-30T12:37:35.039Z</time></trkpt><trkpt lat="41.7600353" lon="3.4369882"><ele>0.0</ele><time>2026-04-30T12:37:36.04Z</time></trkpt><trkpt lat="41.7600553" lon="3.4370992"><ele>0.0</ele><time>2026-04-30T12:37:37.04Z</time></trkpt><trkpt lat="41.7600842" lon="3.4372053"><ele>0.0</ele><time>2026-04-30T12:37:38.039Z</time></trkpt><trkpt lat="41.7601137" lon="3.4373109"><ele>0.0</ele><time>2026-04-30T12:37:39.04Z</time></trkpt><trkpt lat="41.7601408" lon="3.4374157"><ele>0.0</ele><time>2026-04-30T12:37:40.04Z</time></trkpt><trkpt lat="41.7601632" lon="3.4375275"><ele>0.0</ele><time>2026-04-30T12:37:41.039Z</time></trkpt><trkpt lat="41.7601845" lon="3.437638"><ele>0.0</ele><time>2026-04-30T12:37:42.04Z</time></trkpt><trkpt lat="41.760215" lon="3.4377484"><ele>0.0</ele><time>2026-04-30T12:37:43.04Z</time></trkpt><trkpt lat="41.7602437" lon="3.4378567"><ele>0.0</ele><time>2026-04-30T12:37:44.04Z</time></trkpt><trkpt lat="41.7602677" lon="3.4379622"><ele>0.0</ele><time>2026-04-30T12:37:45.039Z</time></trkpt><trkpt lat="41.7602967" lon="3.4380683"><ele>0.0</ele><time>2026-04-30T12:37:46.04Z</time></trkpt><trkpt lat="41.7603236" lon="3.4381783"><ele>0.0</ele><time>2026-04-30T12:37:47.039Z</time></trkpt><trkpt lat="41.7603774" lon="3.4383968"><ele>0.0</ele><time>2026-04-30T12:37:49.04Z</time></trkpt><trkpt lat="41.7604096" lon="3.4385066"><ele>0.0</ele><time>2026-04-30T12:37:50.039Z</time></trkpt><trkpt lat="41.7604474" lon="3.4386151"><ele>0.0</ele><time>2026-04-30T12:37:51.04Z</time></trkpt><trkpt lat="41.760478" lon="3.4387273"><ele>0.0</ele><time>2026-04-30T12:37:52.04Z</time></trkpt><trkpt lat="41.7605094" lon="3.4388387"><ele>0.0</ele><time>2026-04-30T12:37:53.039Z</time></trkpt><trkpt lat="41.7605428" lon="3.4389478"><ele>0.0</ele><time>2026-04-30T12:37:54.04Z</time></trkpt><trkpt lat="41.7605763" lon="3.4390496"><ele>0.0</ele><time>2026-04-30T12:37:55.039Z</time></trkpt><trkpt lat="41.7606081" lon="3.4391566"><ele>0.0</ele><time>2026-04-30T12:37:56.04Z</time></trkpt><trkpt lat="41.7606368" lon="3.4392663"><ele>0.0</ele><time>2026-04-30T12:37:57.039Z</time></trkpt><trkpt lat="41.7606649" lon="3.4393734"><ele>0.0</ele><time>2026-04-30T12:37:58.039Z</time></trkpt><trkpt lat="41.7606982" lon="3.4394762"><ele>0.0</ele><time>2026-04-30T12:37:59.039Z</time></trkpt><trkpt lat="41.7607344" lon="3.4395814"><ele>0.0</ele><time>2026-04-30T12:38:00.039Z</time></trkpt><trkpt lat="41.7607698" lon="3.4396873"><ele>0.0</ele><time>2026-04-30T12:38:01.039Z</time></trkpt><trkpt lat="41.7607979" lon="3.4397904"><ele>0.0</ele><time>2026-04-30T12:38:02.039Z</time></trkpt><trkpt lat="41.7608361" lon="3.4398943"><ele>0.0</ele><time>2026-04-30T12:38:03.039Z</time></trkpt><trkpt lat="41.7608657" lon="3.4400028"><ele>0.0</ele><time>2026-04-30T12:38:04.039Z</time></trkpt><trkpt lat="41.7608915" lon="3.4401127"><ele>0.0</ele><time>2026-04-30T12:38:05.04Z</time></trkpt><trkpt lat="41.7609147" lon="3.4402216"><ele>0.0</ele><time>2026-04-30T12:38:06.04Z</time></trkpt><trkpt lat="41.7609478" lon="3.4403281"><ele>0.0</ele><time>2026-04-30T12:38:07.04Z</time></trkpt><trkpt lat="41.7609789" lon="3.440436"><ele>0.0</ele><time>2026-04-30T12:38:08.039Z</time></trkpt><trkpt lat="41.7610377" lon="3.4406472"><ele>0.0</ele><time>2026-04-30T12:38:10.039Z</time></trkpt><trkpt lat="41.7610732" lon="3.4407547"><ele>0.0</ele><time>2026-04-30T12:38:11.04Z</time></trkpt><trkpt lat="41.7611113" lon="3.4408575"><ele>0.0</ele><time>2026-04-30T12:38:12.04Z</time></trkpt><trkpt lat="41.7611442" lon="3.4409716"><ele>0.0</ele><time>2026-04-30T12:38:13.04Z</time></trkpt><trkpt lat="41.7611783" lon="3.4410814"><ele>0.0</ele><time>2026-04-30T12:38:14.039Z</time></trkpt><trkpt lat="41.7612101" lon="3.4411839"><ele>0.0</ele><time>2026-04-30T12:38:15.04Z</time></trkpt><trkpt lat="41.761245" lon="3.4412885"><ele>0.0</ele><time>2026-04-30T12:38:16.039Z</time></trkpt><trkpt lat="41.7612799" lon="3.4413974"><ele>0.0</ele><time>2026-04-30T12:38:17.039Z</time></trkpt><trkpt lat="41.7613125" lon="3.4415015"><ele>0.0</ele><time>2026-04-30T12:38:18.04Z</time></trkpt><trkpt lat="41.7613481" lon="3.4416071"><ele>0.0</ele><time>2026-04-30T12:38:19.039Z</time></trkpt><trkpt lat="41.7613805" lon="3.4417106"><ele>0.0</ele><time>2026-04-30T12:38:20.04Z</time></trkpt><trkpt lat="41.7614179" lon="3.4418152"><ele>0.0</ele><time>2026-04-30T12:38:21.039Z</time></trkpt><trkpt lat="41.7614531" lon="3.4419217"><ele>0.0</ele><time>2026-04-30T12:38:22.04Z</time></trkpt><trkpt lat="41.7614967" lon="3.4420268"><ele>0.0</ele><time>2026-04-30T12:38:23.039Z</time></trkpt><trkpt lat="41.761532" lon="3.4421333"><ele>0.0</ele><time>2026-04-30T12:38:24.04Z</time></trkpt><trkpt lat="41.7615627" lon="3.4422396"><ele>0.0</ele><time>2026-04-30T12:38:25.039Z</time></trkpt><trkpt lat="41.761594" lon="3.4423437"><ele>0.0</ele><time>2026-04-30T12:38:26.04Z</time></trkpt><trkpt lat="41.761622" lon="3.4424538"><ele>0.0</ele><time>2026-04-30T12:38:27.039Z</time></trkpt><trkpt lat="41.7616495" lon="3.4425631"><ele>0.0</ele><time>2026-04-30T12:38:28.04Z</time></trkpt><trkpt lat="41.7616778" lon="3.4426757"><ele>0.0</ele><time>2026-04-30T12:38:29.04Z</time></trkpt><trkpt lat="41.7617425" lon="3.4428979"><ele>0.0</ele><time>2026-04-30T12:38:31.039Z</time></trkpt><trkpt lat="41.7617654" lon="3.4430136"><ele>0.0</ele><time>2026-04-30T12:38:32.04Z</time></trkpt><trkpt lat="41.7617959" lon="3.4431215"><ele>0.0</ele><time>2026-04-30T12:38:33.039Z</time></trkpt><trkpt lat="41.761827" lon="3.4432257"><ele>0.0</ele><time>2026-04-30T12:38:34.04Z</time></trkpt><trkpt lat="41.7618618" lon="3.4433333"><ele>0.0</ele><time>2026-04-30T12:38:35.04Z</time></trkpt><trkpt lat="41.7618936" lon="3.4434371"><ele>0.0</ele><time>2026-04-30T12:38:36.04Z</time></trkpt><trkpt lat="41.7619168" lon="3.4435403"><ele>0.0</ele><time>2026-04-30T12:38:37.04Z</time></trkpt><trkpt lat="41.7619499" lon="3.4436391"><ele>0.0</ele><time>2026-04-30T12:38:38.039Z</time></trkpt><trkpt lat="41.7619892" lon="3.4437393"><ele>0.0</ele><time>2026-04-30T12:38:39.04Z</time></trkpt><trkpt lat="41.7620263" lon="3.4438393"><ele>0.0</ele><time>2026-04-30T12:38:40.039Z</time></trkpt><trkpt lat="41.7620533" lon="3.4439459"><ele>0.0</ele><time>2026-04-30T12:38:41.04Z</time></trkpt><trkpt lat="41.7620896" lon="3.4440513"><ele>0.0</ele><time>2026-04-30T12:38:42.039Z</time></trkpt><trkpt lat="41.7621163" lon="3.4441612"><ele>0.0</ele><time>2026-04-30T12:38:43.039Z</time></trkpt><trkpt lat="41.7621495" lon="3.4442651"><ele>0.0</ele><time>2026-04-30T12:38:44.04Z</time></trkpt><trkpt lat="41.7621849" lon="3.4443686"><ele>0.0</ele><time>2026-04-30T12:38:45.039Z</time></trkpt><trkpt lat="41.7622214" lon="3.4444706"><ele>0.0</ele><time>2026-04-30T12:38:46.039Z</time></trkpt><trkpt lat="41.7622616" lon="3.4445776"><ele>0.0</ele><time>2026-04-30T12:38:47.039Z</time></trkpt><trkpt lat="41.7622978" lon="3.4446945"><ele>0.0</ele><time>2026-04-30T12:38:48.04Z</time></trkpt><trkpt lat="41.76233" lon="3.4448059"><ele>0.0</ele><time>2026-04-30T12:38:49.039Z</time></trkpt><trkpt lat="41.7623612" lon="3.4449165"><ele>0.0</ele><time>2026-04-30T12:38:50.039Z</time></trkpt><trkpt lat="41.7624282" lon="3.4451309"><ele>0.0</ele><time>2026-04-30T12:38:52.04Z</time></trkpt><trkpt lat="41.762462" lon="3.4452353"><ele>0.0</ele><time>2026-04-30T12:38:53.04Z</time></trkpt><trkpt lat="41.7624925" lon="3.4453374"><ele>0.0</ele><time>2026-04-30T12:38:54.04Z</time></trkpt><trkpt lat="41.762527" lon="3.4454402"><ele>0.0</ele><time>2026-04-30T12:38:55.039Z</time></trkpt><trkpt lat="41.7625603" lon="3.4455445"><ele>0.0</ele><time>2026-04-30T12:38:56.04Z</time></trkpt><trkpt lat="41.7625934" lon="3.4456431"><ele>0.0</ele><time>2026-04-30T12:38:57.039Z</time></trkpt><trkpt lat="41.7626318" lon="3.4457443"><ele>0.0</ele><time>2026-04-30T12:38:58.039Z</time></trkpt><trkpt lat="41.7626717" lon="3.4458499"><ele>0.0</ele><time>2026-04-30T12:38:59.039Z</time></trkpt><trkpt lat="41.7627145" lon="3.4459522"><ele>0.0</ele><time>2026-04-30T12:39:00.04Z</time></trkpt><trkpt lat="41.7627659" lon="3.4460622"><ele>0.0</ele><time>2026-04-30T12:39:01.039Z</time></trkpt><trkpt lat="41.7628038" lon="3.4461707"><ele>0.0</ele><time>2026-04-30T12:39:02.04Z</time></trkpt><trkpt lat="41.7628406" lon="3.4462821"><ele>0.0</ele><time>2026-04-30T12:39:03.04Z</time></trkpt><trkpt lat="41.7628723" lon="3.4463853"><ele>0.0</ele><time>2026-04-30T12:39:04.04Z</time></trkpt><trkpt lat="41.762915" lon="3.4464828"><ele>0.0</ele><time>2026-04-30T12:39:05.039Z</time></trkpt><trkpt lat="41.7629535" lon="3.4465853"><ele>0.0</ele><time>2026-04-30T12:39:06.039Z</time></trkpt><trkpt lat="41.762992" lon="3.4466873"><ele>0.0</ele><time>2026-04-30T12:39:07.039Z</time></trkpt><trkpt lat="41.7630258" lon="3.4467932"><ele>0.0</ele><time>2026-04-30T12:39:08.039Z</time></trkpt><trkpt lat="41.7631027" lon="3.4469937"><ele>0.0</ele><time>2026-04-30T12:39:10.039Z</time></trkpt><trkpt lat="41.7631433" lon="3.4470968"><ele>0.0</ele><time>2026-04-30T12:39:11.04Z</time></trkpt><trkpt lat="41.763222" lon="3.4473109"><ele>0.0</ele><time>2026-04-30T12:39:13.04Z</time></trkpt><trkpt lat="41.7632575" lon="3.4474209"><ele>0.0</ele><time>2026-04-30T12:39:14.039Z</time></trkpt><trkpt lat="41.7632906" lon="3.4475308"><ele>0.0</ele><time>2026-04-30T12:39:15.039Z</time></trkpt><trkpt lat="41.7633235" lon="3.4476453"><ele>0.0</ele><time>2026-04-30T12:39:16.04Z</time></trkpt><trkpt lat="41.7633553" lon="3.4477545"><ele>0.0</ele><time>2026-04-30T12:39:17.039Z</time></trkpt><trkpt lat="41.7633881" lon="3.4478612"><ele>0.0</ele><time>2026-04-30T12:39:18.04Z</time></trkpt><trkpt lat="41.7634247" lon="3.4479638"><ele>0.0</ele><time>2026-04-30T12:39:19.039Z</time></trkpt><trkpt lat="41.7634641" lon="3.4480668"><ele>0.0</ele><time>2026-04-30T12:39:20.04Z</time></trkpt><trkpt lat="41.7635072" lon="3.4481699"><ele>0.0</ele><time>2026-04-30T12:39:21.04Z</time></trkpt><trkpt lat="41.7635519" lon="3.4482724"><ele>0.0</ele><time>2026-04-30T12:39:22.039Z</time></trkpt><trkpt lat="41.763594" lon="3.4483712"><ele>0.0</ele><time>2026-04-30T12:39:23.04Z</time></trkpt><trkpt lat="41.763637" lon="3.4484679"><ele>0.0</ele><time>2026-04-30T12:39:24.039Z</time></trkpt><trkpt lat="41.7636864" lon="3.4485743"><ele>0.0</ele><time>2026-04-30T12:39:25.04Z</time></trkpt><trkpt lat="41.7637267" lon="3.4486786"><ele>0.0</ele><time>2026-04-30T12:39:26.04Z</time></trkpt><trkpt lat="41.7637611" lon="3.4487892"><ele>0.0</ele><time>2026-04-30T12:39:27.04Z</time></trkpt><trkpt lat="41.7637989" lon="3.4488953"><ele>0.0</ele><time>2026-04-30T12:39:28.039Z</time></trkpt><trkpt lat="41.7638437" lon="3.4489997"><ele>0.0</ele><time>2026-04-30T12:39:29.039Z</time></trkpt><trkpt lat="41.7638808" lon="3.4491051"><ele>0.0</ele><time>2026-04-30T12:39:30.039Z</time></trkpt><trkpt lat="41.7639071" lon="3.449207"><ele>0.0</ele><time>2026-04-30T12:39:31.039Z</time></trkpt><trkpt lat="41.7639375" lon="3.4493201"><ele>0.0</ele><time>2026-04-30T12:39:32.04Z</time></trkpt><trkpt lat="41.7639923" lon="3.449539"><ele>0.0</ele><time>2026-04-30T12:39:34.039Z</time></trkpt><trkpt lat="41.7640245" lon="3.4496494"><ele>0.0</ele><time>2026-04-30T12:39:35.04Z</time></trkpt><trkpt lat="41.7640517" lon="3.4497578"><ele>0.0</ele><time>2026-04-30T12:39:36.039Z</time></trkpt><trkpt lat="41.7640828" lon="3.4498635"><ele>0.0</ele><time>2026-04-30T12:39:37.039Z</time></trkpt><trkpt lat="41.7641124" lon="3.4499714"><ele>0.0</ele><time>2026-04-30T12:39:38.039Z</time></trkpt><trkpt lat="41.7641381" lon="3.4500824"><ele>0.0</ele><time>2026-04-30T12:39:39.039Z</time></trkpt><trkpt lat="41.7641671" lon="3.4501872"><ele>0.0</ele><time>2026-04-30T12:39:40.039Z</time></trkpt><trkpt lat="41.7642015" lon="3.4502933"><ele>0.0</ele><time>2026-04-30T12:39:41.04Z</time></trkpt><trkpt lat="41.7642354" lon="3.4503988"><ele>0.0</ele><time>2026-04-30T12:39:42.04Z</time></trkpt><trkpt lat="41.7642688" lon="3.4505096"><ele>0.0</ele><time>2026-04-30T12:39:43.04Z</time></trkpt><trkpt lat="41.7643009" lon="3.4506111"><ele>0.0</ele><time>2026-04-30T12:39:44.039Z</time></trkpt><trkpt lat="41.7643355" lon="3.4507169"><ele>0.0</ele><time>2026-04-30T12:39:45.039Z</time></trkpt><trkpt lat="41.7643655" lon="3.4508223"><ele>0.0</ele><time>2026-04-30T12:39:46.04Z</time></trkpt><trkpt lat="41.7643935" lon="3.4509285"><ele>0.0</ele><time>2026-04-30T12:39:47.039Z</time></trkpt><trkpt lat="41.7644279" lon="3.4510393"><ele>0.0</ele><time>2026-04-30T12:39:48.039Z</time></trkpt><trkpt lat="41.7644661" lon="3.4511465"><ele>0.0</ele><time>2026-04-30T12:39:49.04Z</time></trkpt><trkpt lat="41.7645017" lon="3.4512534"><ele>0.0</ele><time>2026-04-30T12:39:50.039Z</time></trkpt><trkpt lat="41.7645313" lon="3.4513614"><ele>0.0</ele><time>2026-04-30T12:39:51.039Z</time></trkpt><trkpt lat="41.7645694" lon="3.4514652"><ele>0.0</ele><time>2026-04-30T12:39:52.039Z</time></trkpt><trkpt lat="41.7646109" lon="3.4515712"><ele>0.0</ele><time>2026-04-30T12:39:53.039Z</time></trkpt><trkpt lat="41.7646843" lon="3.4517857"><ele>0.0</ele><time>2026-04-30T12:39:55.04Z</time></trkpt><trkpt lat="41.7647176" lon="3.4518916"><ele>0.0</ele><time>2026-04-30T12:39:56.04Z</time></trkpt><trkpt lat="41.7647505" lon="3.452001"><ele>0.0</ele><time>2026-04-30T12:39:57.04Z</time></trkpt><trkpt lat="41.7647841" lon="3.4521109"><ele>0.0</ele><time>2026-04-30T12:39:58.039Z</time></trkpt><trkpt lat="41.7648299" lon="3.452217"><ele>0.0</ele><time>2026-04-30T12:39:59.039Z</time></trkpt><trkpt lat="41.7648695" lon="3.4523261"><ele>0.0</ele><time>2026-04-30T12:40:00.04Z</time></trkpt><trkpt lat="41.764909" lon="3.452435"><ele>0.0</ele><time>2026-04-30T12:40:01.04Z</time></trkpt><trkpt lat="41.7649403" lon="3.4525417"><ele>0.0</ele><time>2026-04-30T12:40:02.039Z</time></trkpt><trkpt lat="41.7649711" lon="3.452648"><ele>0.0</ele><time>2026-04-30T12:40:03.039Z</time></trkpt><trkpt lat="41.7650039" lon="3.4527561"><ele>0.0</ele><time>2026-04-30T12:40:04.04Z</time></trkpt><trkpt lat="41.7650403" lon="3.4528635"><ele>0.0</ele><time>2026-04-30T12:40:05.039Z</time></trkpt><trkpt lat="41.7650699" lon="3.4529727"><ele>0.0</ele><time>2026-04-30T12:40:06.039Z</time></trkpt><trkpt lat="41.7650954" lon="3.4530799"><ele>0.0</ele><time>2026-04-30T12:40:07.04Z</time></trkpt><trkpt lat="41.7651233" lon="3.4531878"><ele>0.0</ele><time>2026-04-30T12:40:08.039Z</time></trkpt><trkpt lat="41.7651547" lon="3.4532964"><ele>0.0</ele><time>2026-04-30T12:40:09.04Z</time></trkpt><trkpt lat="41.7651879" lon="3.4534044"><ele>0.0</ele><time>2026-04-30T12:40:10.04Z</time></trkpt><trkpt lat="41.765221" lon="3.4535122"><ele>0.0</ele><time>2026-04-30T12:40:11.039Z</time></trkpt><trkpt lat="41.7652543" lon="3.4536184"><ele>0.0</ele><time>2026-04-30T12:40:12.039Z</time></trkpt><trkpt lat="41.7652874" lon="3.4537249"><ele>0.0</ele><time>2026-04-30T12:40:13.04Z</time></trkpt><trkpt lat="41.7653218" lon="3.4538286"><ele>0.0</ele><time>2026-04-30T12:40:14.039Z</time></trkpt><trkpt lat="41.7653995" lon="3.4540371"><ele>0.0</ele><time>2026-04-30T12:40:16.04Z</time></trkpt><trkpt lat="41.7654399" lon="3.4541446"><ele>0.0</ele><time>2026-04-30T12:40:17.039Z</time></trkpt><trkpt lat="41.7654766" lon="3.4542546"><ele>0.0</ele><time>2026-04-30T12:40:18.04Z</time></trkpt><trkpt lat="41.765509" lon="3.4543623"><ele>0.0</ele><time>2026-04-30T12:40:19.039Z</time></trkpt><trkpt lat="41.7655374" lon="3.4544719"><ele>0.0</ele><time>2026-04-30T12:40:20.04Z</time></trkpt><trkpt lat="41.7655685" lon="3.454582"><ele>0.0</ele><time>2026-04-30T12:40:21.039Z</time></trkpt><trkpt lat="41.7656002" lon="3.4546887"><ele>0.0</ele><time>2026-04-30T12:40:22.039Z</time></trkpt><trkpt lat="41.7656319" lon="3.4547953"><ele>0.0</ele><time>2026-04-30T12:40:23.039Z</time></trkpt><trkpt lat="41.7656644" lon="3.4549005"><ele>0.0</ele><time>2026-04-30T12:40:24.039Z</time></trkpt><trkpt lat="41.7657021" lon="3.4550056"><ele>0.0</ele><time>2026-04-30T12:40:25.039Z</time></trkpt><trkpt lat="41.7657398" lon="3.4551089"><ele>0.0</ele><time>2026-04-30T12:40:26.039Z</time></trkpt><trkpt lat="41.7657733" lon="3.455215"><ele>0.0</ele><time>2026-04-30T12:40:27.039Z</time></trkpt><trkpt lat="41.7658095" lon="3.4553244"><ele>0.0</ele><time>2026-04-30T12:40:28.039Z</time></trkpt><trkpt lat="41.7658474" lon="3.455432"><ele>0.0</ele><time>2026-04-30T12:40:29.04Z</time></trkpt><trkpt lat="41.7658831" lon="3.4555387"><ele>0.0</ele><time>2026-04-30T12:40:30.039Z</time></trkpt><trkpt lat="41.7659239" lon="3.4556421"><ele>0.0</ele><time>2026-04-30T12:40:31.039Z</time></trkpt><trkpt lat="41.765961" lon="3.4557481"><ele>0.0</ele><time>2026-04-30T12:40:32.039Z</time></trkpt><trkpt lat="41.7659982" lon="3.455852"><ele>0.0</ele><time>2026-04-30T12:40:33.039Z</time></trkpt><trkpt lat="41.7660358" lon="3.455955"><ele>0.0</ele><time>2026-04-30T12:40:34.039Z</time></trkpt><trkpt lat="41.7660713" lon="3.4560572"><ele>0.0</ele><time>2026-04-30T12:40:35.039Z</time></trkpt><trkpt lat="41.7661553" lon="3.4562567"><ele>0.0</ele><time>2026-04-30T12:40:37.04Z</time></trkpt><trkpt lat="41.7661965" lon="3.456359"><ele>0.0</ele><time>2026-04-30T12:40:38.039Z</time></trkpt><trkpt lat="41.7662359" lon="3.4564605"><ele>0.0</ele><time>2026-04-30T12:40:39.039Z</time></trkpt><trkpt lat="41.7662758" lon="3.4565608"><ele>0.0</ele><time>2026-04-30T12:40:40.04Z</time></trkpt><trkpt lat="41.7663214" lon="3.4566625"><ele>0.0</ele><time>2026-04-30T12:40:41.04Z</time></trkpt><trkpt lat="41.766374" lon="3.4567609"><ele>0.0</ele><time>2026-04-30T12:40:42.04Z</time></trkpt><trkpt lat="41.7664187" lon="3.4568606"><ele>0.0</ele><time>2026-04-30T12:40:43.039Z</time></trkpt><trkpt lat="41.7664622" lon="3.4569604"><ele>0.0</ele><time>2026-04-30T12:40:44.04Z</time></trkpt><trkpt lat="41.7665013" lon="3.4570689"><ele>0.0</ele><time>2026-04-30T12:40:45.04Z</time></trkpt><trkpt lat="41.7665798" lon="3.4572784"><ele>0.0</ele><time>2026-04-30T12:40:47.04Z</time></trkpt><trkpt lat="41.7666246" lon="3.4573817"><ele>0.0</ele><time>2026-04-30T12:40:48.039Z</time></trkpt><trkpt lat="41.7666667" lon="3.4574912"><ele>0.0</ele><time>2026-04-30T12:40:49.039Z</time></trkpt><trkpt lat="41.766705" lon="3.4576037"><ele>0.0</ele><time>2026-04-30T12:40:50.039Z</time></trkpt><trkpt lat="41.7667386" lon="3.4577126"><ele>0.0</ele><time>2026-04-30T12:40:51.04Z</time></trkpt><trkpt lat="41.7667721" lon="3.4578185"><ele>0.0</ele><time>2026-04-30T12:40:52.039Z</time></trkpt><trkpt lat="41.7668054" lon="3.457925"><ele>0.0</ele><time>2026-04-30T12:40:53.039Z</time></trkpt><trkpt lat="41.7668418" lon="3.4580287"><ele>0.0</ele><time>2026-04-30T12:40:54.039Z</time></trkpt><trkpt lat="41.76688" lon="3.4581304"><ele>0.0</ele><time>2026-04-30T12:40:55.038Z</time></trkpt><trkpt lat="41.7669158" lon="3.4582346"><ele>0.0</ele><time>2026-04-30T12:40:56.038Z</time></trkpt><trkpt lat="41.7669858" lon="3.458445"><ele>0.0</ele><time>2026-04-30T12:40:58.039Z</time></trkpt><trkpt lat="41.7670105" lon="3.4585521"><ele>0.0</ele><time>2026-04-30T12:40:59.038Z</time></trkpt><trkpt lat="41.7670424" lon="3.4586577"><ele>0.0</ele><time>2026-04-30T12:41:00.038Z</time></trkpt><trkpt lat="41.7670769" lon="3.4587634"><ele>0.0</ele><time>2026-04-30T12:41:01.038Z</time></trkpt><trkpt lat="41.7671095" lon="3.458871"><ele>0.0</ele><time>2026-04-30T12:41:02.038Z</time></trkpt><trkpt lat="41.7671474" lon="3.4589753"><ele>0.0</ele><time>2026-04-30T12:41:03.039Z</time></trkpt><trkpt lat="41.767182" lon="3.4590786"><ele>0.0</ele><time>2026-04-30T12:41:04.039Z</time></trkpt><trkpt lat="41.767217" lon="3.4591819"><ele>0.0</ele><time>2026-04-30T12:41:05.038Z</time></trkpt><trkpt lat="41.7672505" lon="3.4592867"><ele>0.0</ele><time>2026-04-30T12:41:06.039Z</time></trkpt><trkpt lat="41.7672808" lon="3.4593928"><ele>0.0</ele><time>2026-04-30T12:41:07.038Z</time></trkpt><trkpt lat="41.7673168" lon="3.4595011"><ele>0.0</ele><time>2026-04-30T12:41:08.038Z</time></trkpt><trkpt lat="41.767355" lon="3.459608"><ele>0.0</ele><time>2026-04-30T12:41:09.038Z</time></trkpt><trkpt lat="41.7673846" lon="3.4597142"><ele>0.0</ele><time>2026-04-30T12:41:10.039Z</time></trkpt><trkpt lat="41.7674132" lon="3.4598228"><ele>0.0</ele><time>2026-04-30T12:41:11.038Z</time></trkpt><trkpt lat="41.7674442" lon="3.4599243"><ele>0.0</ele><time>2026-04-30T12:41:12.039Z</time></trkpt><trkpt lat="41.7674846" lon="3.4600293"><ele>0.0</ele><time>2026-04-30T12:41:13.038Z</time></trkpt><trkpt lat="41.7675191" lon="3.4601337"><ele>0.0</ele><time>2026-04-30T12:41:14.038Z</time></trkpt><trkpt lat="41.7675554" lon="3.4602385"><ele>0.0</ele><time>2026-04-30T12:41:15.038Z</time></trkpt><trkpt lat="41.7675977" lon="3.4603417"><ele>0.0</ele><time>2026-04-30T12:41:16.038Z</time></trkpt><trkpt lat="41.7676426" lon="3.4604549"><ele>0.0</ele><time>2026-04-30T12:41:17.038Z</time></trkpt><trkpt lat="41.7677361" lon="3.4606684"><ele>0.0</ele><time>2026-04-30T12:41:19.039Z</time></trkpt><trkpt lat="41.7677842" lon="3.4607707"><ele>0.0</ele><time>2026-04-30T12:41:20.038Z</time></trkpt><trkpt lat="41.7678281" lon="3.4608735"><ele>0.0</ele><time>2026-04-30T12:41:21.038Z</time></trkpt><trkpt lat="41.7678767" lon="3.4609783"><ele>0.0</ele><time>2026-04-30T12:41:22.039Z</time></trkpt><trkpt lat="41.7679186" lon="3.4610819"><ele>0.0</ele><time>2026-04-30T12:41:23.039Z</time></trkpt><trkpt lat="41.7679673" lon="3.4611837"><ele>0.0</ele><time>2026-04-30T12:41:24.039Z</time></trkpt><trkpt lat="41.7680058" lon="3.4612911"><ele>0.0</ele><time>2026-04-30T12:41:25.038Z</time></trkpt><trkpt lat="41.7680436" lon="3.4613935"><ele>0.0</ele><time>2026-04-30T12:41:26.038Z</time></trkpt><trkpt lat="41.76808" lon="3.4614981"><ele>0.0</ele><time>2026-04-30T12:41:27.038Z</time></trkpt><trkpt lat="41.7681196" lon="3.4616036"><ele>0.0</ele><time>2026-04-30T12:41:28.038Z</time></trkpt><trkpt lat="41.7681595" lon="3.4617086"><ele>0.0</ele><time>2026-04-30T12:41:29.039Z</time></trkpt><trkpt lat="41.7681952" lon="3.4618177"><ele>0.0</ele><time>2026-04-30T12:41:30.038Z</time></trkpt><trkpt lat="41.7682351" lon="3.461925"><ele>0.0</ele><time>2026-04-30T12:41:31.038Z</time></trkpt><trkpt lat="41.7682735" lon="3.4620285"><ele>0.0</ele><time>2026-04-30T12:41:32.039Z</time></trkpt><trkpt lat="41.7683119" lon="3.4621317"><ele>0.0</ele><time>2026-04-30T12:41:33.039Z</time></trkpt><trkpt lat="41.7683519" lon="3.4622351"><ele>0.0</ele><time>2026-04-30T12:41:34.038Z</time></trkpt><trkpt lat="41.7683917" lon="3.4623415"><ele>0.0</ele><time>2026-04-30T12:41:35.039Z</time></trkpt><trkpt lat="41.7684268" lon="3.4624498"><ele>0.0</ele><time>2026-04-30T12:41:36.039Z</time></trkpt><trkpt lat="41.7684575" lon="3.4625507"><ele>0.0</ele><time>2026-04-30T12:41:37.039Z</time></trkpt><trkpt lat="41.7684918" lon="3.4626565"><ele>0.0</ele><time>2026-04-30T12:41:38.038Z</time></trkpt><trkpt lat="41.7685651" lon="3.462878"><ele>0.0</ele><time>2026-04-30T12:41:40.038Z</time></trkpt><trkpt lat="41.7685975" lon="3.4629779"><ele>0.0</ele><time>2026-04-30T12:41:41.039Z</time></trkpt><trkpt lat="41.7686286" lon="3.4630815"><ele>0.0</ele><time>2026-04-30T12:41:42.038Z</time></trkpt><trkpt lat="41.7686633" lon="3.4631909"><ele>0.0</ele><time>2026-04-30T12:41:43.039Z</time></trkpt><trkpt lat="41.7686987" lon="3.4633"><ele>0.0</ele><time>2026-04-30T12:41:44.039Z</time></trkpt><trkpt lat="41.768735" lon="3.4634112"><ele>0.0</ele><time>2026-04-30T12:41:45.039Z</time></trkpt><trkpt lat="41.7687736" lon="3.4635212"><ele>0.0</ele><time>2026-04-30T12:41:46.038Z</time></trkpt><trkpt lat="41.7688082" lon="3.4636324"><ele>0.0</ele><time>2026-04-30T12:41:47.039Z</time></trkpt><trkpt lat="41.7688417" lon="3.4637426"><ele>0.0</ele><time>2026-04-30T12:41:48.038Z</time></trkpt><trkpt lat="41.7688666" lon="3.4638539"><ele>0.0</ele><time>2026-04-30T12:41:49.039Z</time></trkpt><trkpt lat="41.7689058" lon="3.4639574"><ele>0.0</ele><time>2026-04-30T12:41:50.039Z</time></trkpt><trkpt lat="41.7689477" lon="3.4640591"><ele>0.0</ele><time>2026-04-30T12:41:51.038Z</time></trkpt><trkpt lat="41.7689871" lon="3.4641628"><ele>0.0</ele><time>2026-04-30T12:41:52.039Z</time></trkpt><trkpt lat="41.7690284" lon="3.4642671"><ele>0.0</ele><time>2026-04-30T12:41:53.038Z</time></trkpt><trkpt lat="41.7690693" lon="3.4643662"><ele>0.0</ele><time>2026-04-30T12:41:54.038Z</time></trkpt><trkpt lat="41.769109" lon="3.4644718"><ele>0.0</ele><time>2026-04-30T12:41:55.038Z</time></trkpt><trkpt lat="41.7691428" lon="3.4645782"><ele>0.0</ele><time>2026-04-30T12:41:56.039Z</time></trkpt><trkpt lat="41.7691771" lon="3.4646881"><ele>0.0</ele><time>2026-04-30T12:41:57.039Z</time></trkpt><trkpt lat="41.7692091" lon="3.4647939"><ele>0.0</ele><time>2026-04-30T12:41:58.039Z</time></trkpt><trkpt lat="41.7692836" lon="3.4650021"><ele>0.0</ele><time>2026-04-30T12:42:00.038Z</time></trkpt><trkpt lat="41.7693202" lon="3.4651067"><ele>0.0</ele><time>2026-04-30T12:42:01.038Z</time></trkpt><trkpt lat="41.7693542" lon="3.4652105"><ele>0.0</ele><time>2026-04-30T12:42:02.038Z</time></trkpt><trkpt lat="41.7693918" lon="3.4653165"><ele>0.0</ele><time>2026-04-30T12:42:03.039Z</time></trkpt><trkpt lat="41.7694289" lon="3.4654219"><ele>0.0</ele><time>2026-04-30T12:42:04.038Z</time></trkpt><trkpt lat="41.7694593" lon="3.4655278"><ele>0.0</ele><time>2026-04-30T12:42:05.038Z</time></trkpt><trkpt lat="41.7694865" lon="3.4656342"><ele>0.0</ele><time>2026-04-30T12:42:06.039Z</time></trkpt><trkpt lat="41.7695258" lon="3.4657395"><ele>0.0</ele><time>2026-04-30T12:42:07.039Z</time></trkpt><trkpt lat="41.7695565" lon="3.4658546"><ele>0.0</ele><time>2026-04-30T12:42:08.038Z</time></trkpt><trkpt lat="41.7695863" lon="3.4659628"><ele>0.0</ele><time>2026-04-30T12:42:09.038Z</time></trkpt><trkpt lat="41.7696162" lon="3.4660712"><ele>0.0</ele><time>2026-04-30T12:42:10.038Z</time></trkpt><trkpt lat="41.7696546" lon="3.4661723"><ele>0.0</ele><time>2026-04-30T12:42:11.038Z</time></trkpt><trkpt lat="41.7696934" lon="3.4662781"><ele>0.0</ele><time>2026-04-30T12:42:12.038Z</time></trkpt><trkpt lat="41.7697314" lon="3.4663819"><ele>0.0</ele><time>2026-04-30T12:42:13.039Z</time></trkpt><trkpt lat="41.7697714" lon="3.4664869"><ele>0.0</ele><time>2026-04-30T12:42:14.039Z</time></trkpt><trkpt lat="41.7698169" lon="3.4665901"><ele>0.0</ele><time>2026-04-30T12:42:15.038Z</time></trkpt><trkpt lat="41.7698525" lon="3.466698"><ele>0.0</ele><time>2026-04-30T12:42:16.039Z</time></trkpt><trkpt lat="41.7698974" lon="3.4668046"><ele>0.0</ele><time>2026-04-30T12:42:17.038Z</time></trkpt><trkpt lat="41.7699439" lon="3.4669143"><ele>0.0</ele><time>2026-04-30T12:42:18.039Z</time></trkpt><trkpt lat="41.7699896" lon="3.4670186"><ele>0.0</ele><time>2026-04-30T12:42:19.039Z</time></trkpt><trkpt lat="41.7700738" lon="3.4672264"><ele>0.0</ele><time>2026-04-30T12:42:21.038Z</time></trkpt><trkpt lat="41.7701163" lon="3.4673304"><ele>0.0</ele><time>2026-04-30T12:42:22.038Z</time></trkpt><trkpt lat="41.7701585" lon="3.4674365"><ele>0.0</ele><time>2026-04-30T12:42:23.038Z</time></trkpt><trkpt lat="41.7701942" lon="3.4675399"><ele>0.0</ele><time>2026-04-30T12:42:24.039Z</time></trkpt><trkpt lat="41.7702331" lon="3.4676461"><ele>0.0</ele><time>2026-04-30T12:42:25.039Z</time></trkpt><trkpt lat="41.7702732" lon="3.4677516"><ele>0.0</ele><time>2026-04-30T12:42:26.039Z</time></trkpt><trkpt lat="41.7703122" lon="3.4678539"><ele>0.0</ele><time>2026-04-30T12:42:27.038Z</time></trkpt><trkpt lat="41.770348" lon="3.4679559"><ele>0.0</ele><time>2026-04-30T12:42:28.039Z</time></trkpt><trkpt lat="41.7703854" lon="3.4680574"><ele>0.0</ele><time>2026-04-30T12:42:29.039Z</time></trkpt><trkpt lat="41.7704239" lon="3.4681593"><ele>0.0</ele><time>2026-04-30T12:42:30.038Z</time></trkpt><trkpt lat="41.7704602" lon="3.4682631"><ele>0.0</ele><time>2026-04-30T12:42:31.039Z</time></trkpt><trkpt lat="41.7704956" lon="3.4683657"><ele>0.0</ele><time>2026-04-30T12:42:32.038Z</time></trkpt><trkpt lat="41.7705336" lon="3.4684727"><ele>0.0</ele><time>2026-04-30T12:42:33.038Z</time></trkpt><trkpt lat="41.770575" lon="3.4685816"><ele>0.0</ele><time>2026-04-30T12:42:34.038Z</time></trkpt><trkpt lat="41.7706096" lon="3.4686882"><ele>0.0</ele><time>2026-04-30T12:42:35.038Z</time></trkpt><trkpt lat="41.7706439" lon="3.4687936"><ele>0.0</ele><time>2026-04-30T12:42:36.038Z</time></trkpt><trkpt lat="41.7706802" lon="3.4689002"><ele>0.0</ele><time>2026-04-30T12:42:37.038Z</time></trkpt><trkpt lat="41.7707169" lon="3.469005"><ele>0.0</ele><time>2026-04-30T12:42:38.038Z</time></trkpt><trkpt lat="41.7707508" lon="3.4691128"><ele>0.0</ele><time>2026-04-30T12:42:39.038Z</time></trkpt><trkpt lat="41.7707888" lon="3.4692172"><ele>0.0</ele><time>2026-04-30T12:42:40.038Z</time></trkpt><trkpt lat="41.7708645" lon="3.4694238"><ele>0.0</ele><time>2026-04-30T12:42:42.039Z</time></trkpt><trkpt lat="41.7709052" lon="3.4695242"><ele>0.0</ele><time>2026-04-30T12:42:43.038Z</time></trkpt><trkpt lat="41.7709448" lon="3.4696252"><ele>0.0</ele><time>2026-04-30T12:42:44.038Z</time></trkpt><trkpt lat="41.770981" lon="3.4697329"><ele>0.0</ele><time>2026-04-30T12:42:45.039Z</time></trkpt><trkpt lat="41.7710164" lon="3.4698369"><ele>0.0</ele><time>2026-04-30T12:42:46.038Z</time></trkpt><trkpt lat="41.7710578" lon="3.4699405"><ele>0.0</ele><time>2026-04-30T12:42:47.039Z</time></trkpt><trkpt lat="41.7710967" lon="3.4700446"><ele>0.0</ele><time>2026-04-30T12:42:48.039Z</time></trkpt><trkpt lat="41.7711338" lon="3.4701414"><ele>0.0</ele><time>2026-04-30T12:42:49.039Z</time></trkpt><trkpt lat="41.7711685" lon="3.4702393"><ele>0.0</ele><time>2026-04-30T12:42:50.039Z</time></trkpt><trkpt lat="41.7712094" lon="3.4703417"><ele>0.0</ele><time>2026-04-30T12:42:51.039Z</time></trkpt><trkpt lat="41.7712442" lon="3.4704494"><ele>0.0</ele><time>2026-04-30T12:42:52.039Z</time></trkpt><trkpt lat="41.7712801" lon="3.470559"><ele>0.0</ele><time>2026-04-30T12:42:53.039Z</time></trkpt><trkpt lat="41.7713597" lon="3.4707789"><ele>0.0</ele><time>2026-04-30T12:42:55.038Z</time></trkpt><trkpt lat="41.7713971" lon="3.4708861"><ele>0.0</ele><time>2026-04-30T12:42:56.038Z</time></trkpt><trkpt lat="41.7714367" lon="3.4709944"><ele>0.0</ele><time>2026-04-30T12:42:57.038Z</time></trkpt><trkpt lat="41.7714706" lon="3.4711002"><ele>0.0</ele><time>2026-04-30T12:42:58.039Z</time></trkpt><trkpt lat="41.7715022" lon="3.4712018"><ele>0.0</ele><time>2026-04-30T12:42:59.039Z</time></trkpt><trkpt lat="41.7715377" lon="3.4713048"><ele>0.0</ele><time>2026-04-30T12:43:00.038Z</time></trkpt><trkpt lat="41.7715804" lon="3.4714117"><ele>0.0</ele><time>2026-04-30T12:43:01.038Z</time></trkpt><trkpt lat="41.7716665" lon="3.4716229"><ele>0.0</ele><time>2026-04-30T12:43:03.038Z</time></trkpt><trkpt lat="41.7717095" lon="3.4717285"><ele>0.0</ele><time>2026-04-30T12:43:04.039Z</time></trkpt><trkpt lat="41.7717502" lon="3.4718334"><ele>0.0</ele><time>2026-04-30T12:43:05.038Z</time></trkpt><trkpt lat="41.7717933" lon="3.4719382"><ele>0.0</ele><time>2026-04-30T12:43:06.039Z</time></trkpt><trkpt lat="41.771828" lon="3.4720447"><ele>0.0</ele><time>2026-04-30T12:43:07.039Z</time></trkpt><trkpt lat="41.771859" lon="3.4721513"><ele>0.0</ele><time>2026-04-30T12:43:08.039Z</time></trkpt><trkpt lat="41.7718987" lon="3.4722613"><ele>0.0</ele><time>2026-04-30T12:43:09.038Z</time></trkpt><trkpt lat="41.7719304" lon="3.4723613"><ele>0.0</ele><time>2026-04-30T12:43:10.038Z</time></trkpt><trkpt lat="41.7719593" lon="3.4724665"><ele>0.0</ele><time>2026-04-30T12:43:11.038Z</time></trkpt><trkpt lat="41.7719906" lon="3.4725735"><ele>0.0</ele><time>2026-04-30T12:43:12.038Z</time></trkpt><trkpt lat="41.7720251" lon="3.4726814"><ele>0.0</ele><time>2026-04-30T12:43:13.039Z</time></trkpt><trkpt lat="41.7720615" lon="3.4727855"><ele>0.0</ele><time>2026-04-30T12:43:14.039Z</time></trkpt><trkpt lat="41.7720996" lon="3.4728855"><ele>0.0</ele><time>2026-04-30T12:43:15.039Z</time></trkpt><trkpt lat="41.7721411" lon="3.4729867"><ele>0.0</ele><time>2026-04-30T12:43:16.038Z</time></trkpt><trkpt lat="41.7721832" lon="3.4730931"><ele>0.0</ele><time>2026-04-30T12:43:17.038Z</time></trkpt><trkpt lat="41.772225" lon="3.4731969"><ele>0.0</ele><time>2026-04-30T12:43:18.039Z</time></trkpt><trkpt lat="41.7722682" lon="3.4733"><ele>0.0</ele><time>2026-04-30T12:43:19.039Z</time></trkpt><trkpt lat="41.7723059" lon="3.4734032"><ele>0.0</ele><time>2026-04-30T12:43:20.038Z</time></trkpt><trkpt lat="41.7723446" lon="3.4735068"><ele>0.0</ele><time>2026-04-30T12:43:21.039Z</time></trkpt><trkpt lat="41.7723863" lon="3.4736129"><ele>0.0</ele><time>2026-04-30T12:43:22.039Z</time></trkpt><trkpt lat="41.772475" lon="3.4738317"><ele>0.0</ele><time>2026-04-30T12:43:24.039Z</time></trkpt><trkpt lat="41.7725138" lon="3.4739409"><ele>0.0</ele><time>2026-04-30T12:43:25.039Z</time></trkpt><trkpt lat="41.7725636" lon="3.4740551"><ele>0.0</ele><time>2026-04-30T12:43:26.039Z</time></trkpt><trkpt lat="41.7725997" lon="3.4741643"><ele>0.0</ele><time>2026-04-30T12:43:27.038Z</time></trkpt><trkpt lat="41.772629" lon="3.4742742"><ele>0.0</ele><time>2026-04-30T12:43:28.039Z</time></trkpt><trkpt lat="41.7726637" lon="3.4743784"><ele>0.0</ele><time>2026-04-30T12:43:29.038Z</time></trkpt><trkpt lat="41.7727028" lon="3.4744833"><ele>0.0</ele><time>2026-04-30T12:43:30.039Z</time></trkpt><trkpt lat="41.7727435" lon="3.4745884"><ele>0.0</ele><time>2026-04-30T12:43:31.038Z</time></trkpt><trkpt lat="41.7727784" lon="3.4746907"><ele>0.0</ele><time>2026-04-30T12:43:32.038Z</time></trkpt><trkpt lat="41.7728101" lon="3.474794"><ele>0.0</ele><time>2026-04-30T12:43:33.038Z</time></trkpt><trkpt lat="41.7728478" lon="3.4748984"><ele>0.0</ele><time>2026-04-30T12:43:34.038Z</time></trkpt><trkpt lat="41.7728822" lon="3.4750066"><ele>0.0</ele><time>2026-04-30T12:43:35.039Z</time></trkpt><trkpt lat="41.7729154" lon="3.4751119"><ele>0.0</ele><time>2026-04-30T12:43:36.039Z</time></trkpt><trkpt lat="41.7729471" lon="3.4752156"><ele>0.0</ele><time>2026-04-30T12:43:37.039Z</time></trkpt><trkpt lat="41.772987" lon="3.4753219"><ele>0.0</ele><time>2026-04-30T12:43:38.038Z</time></trkpt><trkpt lat="41.7730191" lon="3.4754288"><ele>0.0</ele><time>2026-04-30T12:43:39.039Z</time></trkpt><trkpt lat="41.7730604" lon="3.4755366"><ele>0.0</ele><time>2026-04-30T12:43:40.038Z</time></trkpt><trkpt lat="41.7730977" lon="3.4756405"><ele>0.0</ele><time>2026-04-30T12:43:41.038Z</time></trkpt><trkpt lat="41.7731332" lon="3.4757523"><ele>0.0</ele><time>2026-04-30T12:43:42.039Z</time></trkpt><trkpt lat="41.7731669" lon="3.4758595"><ele>0.0</ele><time>2026-04-30T12:43:43.038Z</time></trkpt><trkpt lat="41.7732527" lon="3.4760612"><ele>0.0</ele><time>2026-04-30T12:43:45.038Z</time></trkpt><trkpt lat="41.7732958" lon="3.4761737"><ele>0.0</ele><time>2026-04-30T12:43:46.039Z</time></trkpt><trkpt lat="41.7733406" lon="3.4762758"><ele>0.0</ele><time>2026-04-30T12:43:47.038Z</time></trkpt><trkpt lat="41.7733778" lon="3.4763761"><ele>0.0</ele><time>2026-04-30T12:43:48.038Z</time></trkpt><trkpt lat="41.7734037" lon="3.476483"><ele>0.0</ele><time>2026-04-30T12:43:49.039Z</time></trkpt><trkpt lat="41.7734331" lon="3.4765899"><ele>0.0</ele><time>2026-04-30T12:43:50.039Z</time></trkpt><trkpt lat="41.773463" lon="3.4766966"><ele>0.0</ele><time>2026-04-30T12:43:51.039Z</time></trkpt><trkpt lat="41.7735037" lon="3.4768003"><ele>0.0</ele><time>2026-04-30T12:43:52.039Z</time></trkpt><trkpt lat="41.773545" lon="3.4769009"><ele>0.0</ele><time>2026-04-30T12:43:53.038Z</time></trkpt><trkpt lat="41.7735853" lon="3.4770096"><ele>0.0</ele><time>2026-04-30T12:43:54.038Z</time></trkpt><trkpt lat="41.7736221" lon="3.4771179"><ele>0.0</ele><time>2026-04-30T12:43:55.039Z</time></trkpt><trkpt lat="41.7736528" lon="3.477229"><ele>0.0</ele><time>2026-04-30T12:43:56.038Z</time></trkpt><trkpt lat="41.7736892" lon="3.4773407"><ele>0.0</ele><time>2026-04-30T12:43:57.039Z</time></trkpt><trkpt lat="41.7737575" lon="3.4775535"><ele>0.0</ele><time>2026-04-30T12:43:59.038Z</time></trkpt><trkpt lat="41.7737905" lon="3.4776622"><ele>0.0</ele><time>2026-04-30T12:44:00.039Z</time></trkpt><trkpt lat="41.7738191" lon="3.4777709"><ele>0.0</ele><time>2026-04-30T12:44:01.038Z</time></trkpt><trkpt lat="41.7738518" lon="3.4778823"><ele>0.0</ele><time>2026-04-30T12:44:02.038Z</time></trkpt><trkpt lat="41.7738852" lon="3.4779889"><ele>0.0</ele><time>2026-04-30T12:44:03.039Z</time></trkpt><trkpt lat="41.7739238" lon="3.4780894"><ele>0.0</ele><time>2026-04-30T12:44:04.039Z</time></trkpt><trkpt lat="41.7739943" lon="3.4782909"><ele>0.0</ele><time>2026-04-30T12:44:06.038Z</time></trkpt><trkpt lat="41.7740304" lon="3.4784009"><ele>0.0</ele><time>2026-04-30T12:44:07.038Z</time></trkpt><trkpt lat="41.7740726" lon="3.4785109"><ele>0.0</ele><time>2026-04-30T12:44:08.038Z</time></trkpt><trkpt lat="41.7741132" lon="3.4786151"><ele>0.0</ele><time>2026-04-30T12:44:09.038Z</time></trkpt><trkpt lat="41.7741567" lon="3.4787214"><ele>0.0</ele><time>2026-04-30T12:44:10.038Z</time></trkpt><trkpt lat="41.7741983" lon="3.4788323"><ele>0.0</ele><time>2026-04-30T12:44:11.039Z</time></trkpt><trkpt lat="41.7742367" lon="3.4789425"><ele>0.0</ele><time>2026-04-30T12:44:12.039Z</time></trkpt><trkpt lat="41.774271" lon="3.4790538"><ele>0.0</ele><time>2026-04-30T12:44:13.038Z</time></trkpt><trkpt lat="41.7743" lon="3.4791641"><ele>0.0</ele><time>2026-04-30T12:44:14.038Z</time></trkpt><trkpt lat="41.7743277" lon="3.4792726"><ele>0.0</ele><time>2026-04-30T12:44:15.038Z</time></trkpt><trkpt lat="41.7743663" lon="3.4793754"><ele>0.0</ele><time>2026-04-30T12:44:16.038Z</time></trkpt><trkpt lat="41.7744082" lon="3.4794772"><ele>0.0</ele><time>2026-04-30T12:44:17.038Z</time></trkpt><trkpt lat="41.7744443" lon="3.4795818"><ele>0.0</ele><time>2026-04-30T12:44:18.038Z</time></trkpt><trkpt lat="41.7744779" lon="3.4796838"><ele>0.0</ele><time>2026-04-30T12:44:19.039Z</time></trkpt><trkpt lat="41.7745142" lon="3.4797868"><ele>0.0</ele><time>2026-04-30T12:44:20.038Z</time></trkpt><trkpt lat="41.7745492" lon="3.4798888"><ele>0.0</ele><time>2026-04-30T12:44:21.039Z</time></trkpt><trkpt lat="41.7745883" lon="3.4799889"><ele>0.0</ele><time>2026-04-30T12:44:22.038Z</time></trkpt><trkpt lat="41.7746287" lon="3.4800916"><ele>0.0</ele><time>2026-04-30T12:44:23.038Z</time></trkpt><trkpt lat="41.7746648" lon="3.4801921"><ele>0.0</ele><time>2026-04-30T12:44:24.038Z</time></trkpt><trkpt lat="41.7747024" lon="3.4802917"><ele>0.0</ele><time>2026-04-30T12:44:25.038Z</time></trkpt><trkpt lat="41.7747816" lon="3.4804957"><ele>0.0</ele><time>2026-04-30T12:44:27.038Z</time></trkpt><trkpt lat="41.7748207" lon="3.48059"><ele>0.0</ele><time>2026-04-30T12:44:28.038Z</time></trkpt><trkpt lat="41.7748627" lon="3.4806873"><ele>0.0</ele><time>2026-04-30T12:44:29.038Z</time></trkpt><trkpt lat="41.7749423" lon="3.4808971"><ele>0.0</ele><time>2026-04-30T12:44:31.039Z</time></trkpt><trkpt lat="41.7749819" lon="3.4810006"><ele>0.0</ele><time>2026-04-30T12:44:32.039Z</time></trkpt><trkpt lat="41.7750189" lon="3.4811048"><ele>0.0</ele><time>2026-04-30T12:44:33.038Z</time></trkpt><trkpt lat="41.775055" lon="3.4812117"><ele>0.0</ele><time>2026-04-30T12:44:34.038Z</time></trkpt><trkpt lat="41.7750974" lon="3.4813164"><ele>0.0</ele><time>2026-04-30T12:44:35.039Z</time></trkpt><trkpt lat="41.7751494" lon="3.4814158"><ele>0.0</ele><time>2026-04-30T12:44:36.038Z</time></trkpt><trkpt lat="41.7751896" lon="3.48152"><ele>0.0</ele><time>2026-04-30T12:44:37.039Z</time></trkpt><trkpt lat="41.7752299" lon="3.4816263"><ele>0.0</ele><time>2026-04-30T12:44:38.038Z</time></trkpt><trkpt lat="41.7752732" lon="3.4817286"><ele>0.0</ele><time>2026-04-30T12:44:39.039Z</time></trkpt><trkpt lat="41.7753132" lon="3.4818297"><ele>0.0</ele><time>2026-04-30T12:44:40.039Z</time></trkpt><trkpt lat="41.7753509" lon="3.4819305"><ele>0.0</ele><time>2026-04-30T12:44:41.039Z</time></trkpt><trkpt lat="41.7753871" lon="3.4820301"><ele>0.0</ele><time>2026-04-30T12:44:42.039Z</time></trkpt><trkpt lat="41.775425" lon="3.4821342"><ele>0.0</ele><time>2026-04-30T12:44:43.039Z</time></trkpt><trkpt lat="41.7754689" lon="3.482241"><ele>0.0</ele><time>2026-04-30T12:44:44.039Z</time></trkpt><trkpt lat="41.7755114" lon="3.4823449"><ele>0.0</ele><time>2026-04-30T12:44:45.038Z</time></trkpt><trkpt lat="41.7755533" lon="3.4824495"><ele>0.0</ele><time>2026-04-30T12:44:46.038Z</time></trkpt><trkpt lat="41.7756339" lon="3.4826676"><ele>0.0</ele><time>2026-04-30T12:44:48.038Z</time></trkpt><trkpt lat="41.775676" lon="3.4827763"><ele>0.0</ele><time>2026-04-30T12:44:49.039Z</time></trkpt><trkpt lat="41.7757175" lon="3.4828746"><ele>0.0</ele><time>2026-04-30T12:44:50.039Z</time></trkpt><trkpt lat="41.7757597" lon="3.4829795"><ele>0.0</ele><time>2026-04-30T12:44:51.038Z</time></trkpt><trkpt lat="41.7757985" lon="3.4830851"><ele>0.0</ele><time>2026-04-30T12:44:52.038Z</time></trkpt><trkpt lat="41.7758394" lon="3.4831889"><ele>0.0</ele><time>2026-04-30T12:44:53.038Z</time></trkpt><trkpt lat="41.7758842" lon="3.4832893"><ele>0.0</ele><time>2026-04-30T12:44:54.039Z</time></trkpt><trkpt lat="41.7759238" lon="3.4833889"><ele>0.0</ele><time>2026-04-30T12:44:55.039Z</time></trkpt><trkpt lat="41.7759714" lon="3.4834915"><ele>0.0</ele><time>2026-04-30T12:44:56.039Z</time></trkpt><trkpt lat="41.776017" lon="3.4835948"><ele>0.0</ele><time>2026-04-30T12:44:57.039Z</time></trkpt><trkpt lat="41.776058" lon="3.483704"><ele>0.0</ele><time>2026-04-30T12:44:58.038Z</time></trkpt><trkpt lat="41.7760966" lon="3.4838112"><ele>0.0</ele><time>2026-04-30T12:44:59.038Z</time></trkpt><trkpt lat="41.7761395" lon="3.4839167"><ele>0.0</ele><time>2026-04-30T12:45:00.039Z</time></trkpt><trkpt lat="41.7761743" lon="3.4840274"><ele>0.0</ele><time>2026-04-30T12:45:01.038Z</time></trkpt><trkpt lat="41.7762087" lon="3.4841388"><ele>0.0</ele><time>2026-04-30T12:45:02.039Z</time></trkpt><trkpt lat="41.7762456" lon="3.4842491"><ele>0.0</ele><time>2026-04-30T12:45:03.039Z</time></trkpt><trkpt lat="41.7762829" lon="3.4843535"><ele>0.0</ele><time>2026-04-30T12:45:04.038Z</time></trkpt><trkpt lat="41.7763161" lon="3.4844576"><ele>0.0</ele><time>2026-04-30T12:45:05.038Z</time></trkpt><trkpt lat="41.7763525" lon="3.4845597"><ele>0.0</ele><time>2026-04-30T12:45:06.038Z</time></trkpt><trkpt lat="41.7763972" lon="3.4846721"><ele>0.0</ele><time>2026-04-30T12:45:07.038Z</time></trkpt><trkpt lat="41.7764724" lon="3.4848762"><ele>0.0</ele><time>2026-04-30T12:45:09.038Z</time></trkpt><trkpt lat="41.7765157" lon="3.4849743"><ele>0.0</ele><time>2026-04-30T12:45:10.038Z</time></trkpt><trkpt lat="41.7765536" lon="3.4850728"><ele>0.0</ele><time>2026-04-30T12:45:11.038Z</time></trkpt><trkpt lat="41.7765912" lon="3.4851795"><ele>0.0</ele><time>2026-04-30T12:45:12.039Z</time></trkpt><trkpt lat="41.7766311" lon="3.4852866"><ele>0.0</ele><time>2026-04-30T12:45:13.039Z</time></trkpt><trkpt lat="41.7766641" lon="3.4853933"><ele>0.0</ele><time>2026-04-30T12:45:14.039Z</time></trkpt><trkpt lat="41.7767003" lon="3.485501"><ele>0.0</ele><time>2026-04-30T12:45:15.039Z</time></trkpt><trkpt lat="41.7767383" lon="3.4856094"><ele>0.0</ele><time>2026-04-30T12:45:16.039Z</time></trkpt><trkpt lat="41.7767753" lon="3.4857145"><ele>0.0</ele><time>2026-04-30T12:45:17.038Z</time></trkpt><trkpt lat="41.7768074" lon="3.4858245"><ele>0.0</ele><time>2026-04-30T12:45:18.039Z</time></trkpt><trkpt lat="41.7768375" lon="3.4859199"><ele>0.0</ele><time>2026-04-30T12:45:19.038Z</time></trkpt><trkpt lat="41.7768588" lon="3.4860206"><ele>0.0</ele><time>2026-04-30T12:45:20.038Z</time></trkpt><trkpt lat="41.776893" lon="3.4861133"><ele>0.0</ele><time>2026-04-30T12:45:21.038Z</time></trkpt><trkpt lat="41.7769332" lon="3.4862134"><ele>0.0</ele><time>2026-04-30T12:45:22.038Z</time></trkpt><trkpt lat="41.7769775" lon="3.4863168"><ele>0.0</ele><time>2026-04-30T12:45:23.039Z</time></trkpt><trkpt lat="41.7770217" lon="3.4864186"><ele>0.0</ele><time>2026-04-30T12:45:24.038Z</time></trkpt><trkpt lat="41.7770621" lon="3.4865274"><ele>0.0</ele><time>2026-04-30T12:45:25.039Z</time></trkpt><trkpt lat="41.7771025" lon="3.4866388"><ele>0.0</ele><time>2026-04-30T12:45:26.039Z</time></trkpt><trkpt lat="41.7771405" lon="3.486745"><ele>0.0</ele><time>2026-04-30T12:45:27.038Z</time></trkpt><trkpt lat="41.7771818" lon="3.4868467"><ele>0.0</ele><time>2026-04-30T12:45:28.038Z</time></trkpt><trkpt lat="41.7772615" lon="3.4870594"><ele>0.0</ele><time>2026-04-30T12:45:30.038Z</time></trkpt><trkpt lat="41.7772974" lon="3.487165"><ele>0.0</ele><time>2026-04-30T12:45:31.039Z</time></trkpt><trkpt lat="41.7773337" lon="3.4872702"><ele>0.0</ele><time>2026-04-30T12:45:32.038Z</time></trkpt><trkpt lat="41.7773692" lon="3.4873767"><ele>0.0</ele><time>2026-04-30T12:45:33.038Z</time></trkpt><trkpt lat="41.777434" lon="3.4875988"><ele>0.0</ele><time>2026-04-30T12:45:35.038Z</time></trkpt><trkpt lat="41.7774744" lon="3.4877008"><ele>0.0</ele><time>2026-04-30T12:45:36.038Z</time></trkpt><trkpt lat="41.777508" lon="3.4878091"><ele>0.0</ele><time>2026-04-30T12:45:37.039Z</time></trkpt><trkpt lat="41.7775475" lon="3.4879164"><ele>0.0</ele><time>2026-04-30T12:45:38.039Z</time></trkpt><trkpt lat="41.7775906" lon="3.4880203"><ele>0.0</ele><time>2026-04-30T12:45:39.039Z</time></trkpt><trkpt lat="41.7776281" lon="3.4881193"><ele>0.0</ele><time>2026-04-30T12:45:40.039Z</time></trkpt><trkpt lat="41.7776651" lon="3.4882219"><ele>0.0</ele><time>2026-04-30T12:45:41.038Z</time></trkpt><trkpt lat="41.7777051" lon="3.4883178"><ele>0.0</ele><time>2026-04-30T12:45:42.039Z</time></trkpt><trkpt lat="41.7777491" lon="3.48842"><ele>0.0</ele><time>2026-04-30T12:45:43.038Z</time></trkpt><trkpt lat="41.7777904" lon="3.4885235"><ele>0.0</ele><time>2026-04-30T12:45:44.038Z</time></trkpt><trkpt lat="41.7778347" lon="3.4886281"><ele>0.0</ele><time>2026-04-30T12:45:45.038Z</time></trkpt><trkpt lat="41.7778802" lon="3.4887346"><ele>0.0</ele><time>2026-04-30T12:45:46.038Z</time></trkpt><trkpt lat="41.7779207" lon="3.4888431"><ele>0.0</ele><time>2026-04-30T12:45:47.038Z</time></trkpt><trkpt lat="41.7779542" lon="3.4889428"><ele>0.0</ele><time>2026-04-30T12:45:48.037Z</time></trkpt><trkpt lat="41.7779844" lon="3.4890454"><ele>0.0</ele><time>2026-04-30T12:45:49.037Z</time></trkpt><trkpt lat="41.7780731" lon="3.48925"><ele>0.0</ele><time>2026-04-30T12:45:51.038Z</time></trkpt><trkpt lat="41.7781179" lon="3.4893562"><ele>0.0</ele><time>2026-04-30T12:45:52.037Z</time></trkpt><trkpt lat="41.7781486" lon="3.4894615"><ele>0.0</ele><time>2026-04-30T12:45:53.037Z</time></trkpt><trkpt lat="41.7781838" lon="3.4895635"><ele>0.0</ele><time>2026-04-30T12:45:54.037Z</time></trkpt><trkpt lat="41.7782134" lon="3.4896653"><ele>0.0</ele><time>2026-04-30T12:45:55.038Z</time></trkpt><trkpt lat="41.7782429" lon="3.4897655"><ele>0.0</ele><time>2026-04-30T12:45:56.038Z</time></trkpt><trkpt lat="41.7782811" lon="3.4898707"><ele>0.0</ele><time>2026-04-30T12:45:57.038Z</time></trkpt><trkpt lat="41.7783241" lon="3.4899749"><ele>0.0</ele><time>2026-04-30T12:45:58.037Z</time></trkpt><trkpt lat="41.7783665" lon="3.4900813"><ele>0.0</ele><time>2026-04-30T12:45:59.038Z</time></trkpt><trkpt lat="41.7784009" lon="3.4901849"><ele>0.0</ele><time>2026-04-30T12:46:00.037Z</time></trkpt><trkpt lat="41.7784394" lon="3.4902901"><ele>0.0</ele><time>2026-04-30T12:46:01.038Z</time></trkpt><trkpt lat="41.7784777" lon="3.4903979"><ele>0.0</ele><time>2026-04-30T12:46:02.038Z</time></trkpt><trkpt lat="41.7785135" lon="3.4905133"><ele>0.0</ele><time>2026-04-30T12:46:03.037Z</time></trkpt><trkpt lat="41.7785561" lon="3.4906187"><ele>0.0</ele><time>2026-04-30T12:46:04.037Z</time></trkpt><trkpt lat="41.7785955" lon="3.4907221"><ele>0.0</ele><time>2026-04-30T12:46:05.038Z</time></trkpt><trkpt lat="41.778635" lon="3.4908236"><ele>0.0</ele><time>2026-04-30T12:46:06.038Z</time></trkpt><trkpt lat="41.778672" lon="3.4909223"><ele>0.0</ele><time>2026-04-30T12:46:07.037Z</time></trkpt><trkpt lat="41.7787084" lon="3.4910276"><ele>0.0</ele><time>2026-04-30T12:46:08.038Z</time></trkpt><trkpt lat="41.7787398" lon="3.4911242"><ele>0.0</ele><time>2026-04-30T12:46:09.037Z</time></trkpt><trkpt lat="41.7787709" lon="3.4912282"><ele>0.0</ele><time>2026-04-30T12:46:10.037Z</time></trkpt><trkpt lat="41.7788387" lon="3.4914394"><ele>0.0</ele><time>2026-04-30T12:46:12.037Z</time></trkpt><trkpt lat="41.7788733" lon="3.4915449"><ele>0.0</ele><time>2026-04-30T12:46:13.038Z</time></trkpt><trkpt lat="41.7789117" lon="3.4916515"><ele>0.0</ele><time>2026-04-30T12:46:14.037Z</time></trkpt><trkpt lat="41.7789501" lon="3.4917556"><ele>0.0</ele><time>2026-04-30T12:46:15.037Z</time></trkpt><trkpt lat="41.7789872" lon="3.4918553"><ele>0.0</ele><time>2026-04-30T12:46:16.037Z</time></trkpt><trkpt lat="41.7790336" lon="3.4919568"><ele>0.0</ele><time>2026-04-30T12:46:17.038Z</time></trkpt><trkpt lat="41.7790693" lon="3.4920602"><ele>0.0</ele><time>2026-04-30T12:46:18.037Z</time></trkpt><trkpt lat="41.7791133" lon="3.4921564"><ele>0.0</ele><time>2026-04-30T12:46:19.037Z</time></trkpt><trkpt lat="41.7791629" lon="3.4922561"><ele>0.0</ele><time>2026-04-30T12:46:20.037Z</time></trkpt><trkpt lat="41.7792086" lon="3.4923572"><ele>0.0</ele><time>2026-04-30T12:46:21.037Z</time></trkpt><trkpt lat="41.7792494" lon="3.4924615"><ele>0.0</ele><time>2026-04-30T12:46:22.037Z</time></trkpt><trkpt lat="41.7792868" lon="3.4925607"><ele>0.0</ele><time>2026-04-30T12:46:23.037Z</time></trkpt><trkpt lat="41.7793254" lon="3.4926606"><ele>0.0</ele><time>2026-04-30T12:46:24.037Z</time></trkpt><trkpt lat="41.7793606" lon="3.4927654"><ele>0.0</ele><time>2026-04-30T12:46:25.037Z</time></trkpt><trkpt lat="41.7793935" lon="3.4928718"><ele>0.0</ele><time>2026-04-30T12:46:26.037Z</time></trkpt><trkpt lat="41.7794281" lon="3.4929769"><ele>0.0</ele><time>2026-04-30T12:46:27.038Z</time></trkpt><trkpt lat="41.7794633" lon="3.4930875"><ele>0.0</ele><time>2026-04-30T12:46:28.038Z</time></trkpt><trkpt lat="41.7794943" lon="3.4931966"><ele>0.0</ele><time>2026-04-30T12:46:29.037Z</time></trkpt><trkpt lat="41.7795259" lon="3.493303"><ele>0.0</ele><time>2026-04-30T12:46:30.037Z</time></trkpt><trkpt lat="41.77956" lon="3.4934108"><ele>0.0</ele><time>2026-04-30T12:46:31.037Z</time></trkpt><trkpt lat="41.7796267" lon="3.4936297"><ele>0.0</ele><time>2026-04-30T12:46:33.037Z</time></trkpt><trkpt lat="41.7796602" lon="3.4937349"><ele>0.0</ele><time>2026-04-30T12:46:34.037Z</time></trkpt><trkpt lat="41.7796947" lon="3.4938467"><ele>0.0</ele><time>2026-04-30T12:46:35.038Z</time></trkpt><trkpt lat="41.7797272" lon="3.4939616"><ele>0.0</ele><time>2026-04-30T12:46:36.038Z</time></trkpt><trkpt lat="41.7797595" lon="3.4940756"><ele>0.0</ele><time>2026-04-30T12:46:37.038Z</time></trkpt><trkpt lat="41.7797926" lon="3.4941842"><ele>0.0</ele><time>2026-04-30T12:46:38.038Z</time></trkpt><trkpt lat="41.7798318" lon="3.4942898"><ele>0.0</ele><time>2026-04-30T12:46:39.038Z</time></trkpt><trkpt lat="41.7798714" lon="3.494392"><ele>0.0</ele><time>2026-04-30T12:46:40.038Z</time></trkpt><trkpt lat="41.7799101" lon="3.494495"><ele>0.0</ele><time>2026-04-30T12:46:41.038Z</time></trkpt><trkpt lat="41.7799525" lon="3.4946013"><ele>0.0</ele><time>2026-04-30T12:46:42.037Z</time></trkpt><trkpt lat="41.7800057" lon="3.4947056"><ele>0.0</ele><time>2026-04-30T12:46:43.037Z</time></trkpt><trkpt lat="41.7800481" lon="3.4948087"><ele>0.0</ele><time>2026-04-30T12:46:44.038Z</time></trkpt><trkpt lat="41.7800839" lon="3.4949108"><ele>0.0</ele><time>2026-04-30T12:46:45.037Z</time></trkpt><trkpt lat="41.7801215" lon="3.4950109"><ele>0.0</ele><time>2026-04-30T12:46:46.038Z</time></trkpt><trkpt lat="41.7801559" lon="3.4951107"><ele>0.0</ele><time>2026-04-30T12:46:47.037Z</time></trkpt><trkpt lat="41.7801988" lon="3.4952121"><ele>0.0</ele><time>2026-04-30T12:46:48.038Z</time></trkpt><trkpt lat="41.7802396" lon="3.4953156"><ele>0.0</ele><time>2026-04-30T12:46:49.038Z</time></trkpt><trkpt lat="41.7802783" lon="3.4954169"><ele>0.0</ele><time>2026-04-30T12:46:50.038Z</time></trkpt><trkpt lat="41.7803308" lon="3.4955141"><ele>0.0</ele><time>2026-04-30T12:46:51.037Z</time></trkpt><trkpt lat="41.7803777" lon="3.4956181"><ele>0.0</ele><time>2026-04-30T12:46:52.037Z</time></trkpt><trkpt lat="41.7804658" lon="3.4958268"><ele>0.0</ele><time>2026-04-30T12:46:54.038Z</time></trkpt><trkpt lat="41.7805106" lon="3.4959271"><ele>0.0</ele><time>2026-04-30T12:46:55.037Z</time></trkpt><trkpt lat="41.7805502" lon="3.49603"><ele>0.0</ele><time>2026-04-30T12:46:56.037Z</time></trkpt><trkpt lat="41.7805863" lon="3.4961419"><ele>0.0</ele><time>2026-04-30T12:46:57.038Z</time></trkpt><trkpt lat="41.7806212" lon="3.4962453"><ele>0.0</ele><time>2026-04-30T12:46:58.038Z</time></trkpt><trkpt lat="41.7806532" lon="3.4963496"><ele>0.0</ele><time>2026-04-30T12:46:59.037Z</time></trkpt><trkpt lat="41.7806904" lon="3.4964604"><ele>0.0</ele><time>2026-04-30T12:47:00.037Z</time></trkpt><trkpt lat="41.7807316" lon="3.496569"><ele>0.0</ele><time>2026-04-30T12:47:01.037Z</time></trkpt><trkpt lat="41.7807707" lon="3.4966748"><ele>0.0</ele><time>2026-04-30T12:47:02.038Z</time></trkpt><trkpt lat="41.7808183" lon="3.4967737"><ele>0.0</ele><time>2026-04-30T12:47:03.038Z</time></trkpt><trkpt lat="41.7808573" lon="3.4968738"><ele>0.0</ele><time>2026-04-30T12:47:04.038Z</time></trkpt><trkpt lat="41.7808954" lon="3.4969742"><ele>0.0</ele><time>2026-04-30T12:47:05.037Z</time></trkpt><trkpt lat="41.7809342" lon="3.4970744"><ele>0.0</ele><time>2026-04-30T12:47:06.038Z</time></trkpt><trkpt lat="41.7809694" lon="3.4971783"><ele>0.0</ele><time>2026-04-30T12:47:07.037Z</time></trkpt><trkpt lat="41.7810015" lon="3.4972829"><ele>0.0</ele><time>2026-04-30T12:47:08.037Z</time></trkpt><trkpt lat="41.7810688" lon="3.4974879"><ele>0.0</ele><time>2026-04-30T12:47:10.037Z</time></trkpt><trkpt lat="41.7811055" lon="3.4975973"><ele>0.0</ele><time>2026-04-30T12:47:11.038Z</time></trkpt><trkpt lat="41.7811422" lon="3.497713"><ele>0.0</ele><time>2026-04-30T12:47:12.037Z</time></trkpt><trkpt lat="41.7811789" lon="3.4978268"><ele>0.0</ele><time>2026-04-30T12:47:13.038Z</time></trkpt><trkpt lat="41.7812617" lon="3.4980405"><ele>0.0</ele><time>2026-04-30T12:47:15.037Z</time></trkpt><trkpt lat="41.7813034" lon="3.4981453"><ele>0.0</ele><time>2026-04-30T12:47:16.037Z</time></trkpt><trkpt lat="41.7813508" lon="3.498247"><ele>0.0</ele><time>2026-04-30T12:47:17.037Z</time></trkpt><trkpt lat="41.7813928" lon="3.4983544"><ele>0.0</ele><time>2026-04-30T12:47:18.038Z</time></trkpt><trkpt lat="41.7814371" lon="3.4984582"><ele>0.0</ele><time>2026-04-30T12:47:19.038Z</time></trkpt><trkpt lat="41.781474" lon="3.4985623"><ele>0.0</ele><time>2026-04-30T12:47:20.038Z</time></trkpt><trkpt lat="41.781513" lon="3.4986566"><ele>0.0</ele><time>2026-04-30T12:47:21.037Z</time></trkpt><trkpt lat="41.7815557" lon="3.4987515"><ele>0.0</ele><time>2026-04-30T12:47:22.038Z</time></trkpt><trkpt lat="41.7815935" lon="3.4988562"><ele>0.0</ele><time>2026-04-30T12:47:23.037Z</time></trkpt><trkpt lat="41.781632" lon="3.4989624"><ele>0.0</ele><time>2026-04-30T12:47:24.037Z</time></trkpt><trkpt lat="41.7816673" lon="3.4990648"><ele>0.0</ele><time>2026-04-30T12:47:25.038Z</time></trkpt><trkpt lat="41.7817109" lon="3.4991674"><ele>0.0</ele><time>2026-04-30T12:47:26.038Z</time></trkpt><trkpt lat="41.7817538" lon="3.4992735"><ele>0.0</ele><time>2026-04-30T12:47:27.037Z</time></trkpt><trkpt lat="41.7817936" lon="3.499377"><ele>0.0</ele><time>2026-04-30T12:47:28.037Z</time></trkpt><trkpt lat="41.7818361" lon="3.4994773"><ele>0.0</ele><time>2026-04-30T12:47:29.037Z</time></trkpt><trkpt lat="41.7818733" lon="3.4995828"><ele>0.0</ele><time>2026-04-30T12:47:30.037Z</time></trkpt><trkpt lat="41.7819083" lon="3.4996826"><ele>0.0</ele><time>2026-04-30T12:47:31.038Z</time></trkpt><trkpt lat="41.781948" lon="3.4997868"><ele>0.0</ele><time>2026-04-30T12:47:32.037Z</time></trkpt><trkpt lat="41.7819878" lon="3.4998904"><ele>0.0</ele><time>2026-04-30T12:47:33.037Z</time></trkpt><trkpt lat="41.7820285" lon="3.4999951"><ele>0.0</ele><time>2026-04-30T12:47:34.038Z</time></trkpt><trkpt lat="41.7821003" lon="3.5002096"><ele>0.0</ele><time>2026-04-30T12:47:36.038Z</time></trkpt><trkpt lat="41.7821353" lon="3.5003191"><ele>0.0</ele><time>2026-04-30T12:47:37.037Z</time></trkpt><trkpt lat="41.7821784" lon="3.5004169"><ele>0.0</ele><time>2026-04-30T12:47:38.038Z</time></trkpt><trkpt lat="41.7822175" lon="3.5005174"><ele>0.0</ele><time>2026-04-30T12:47:39.037Z</time></trkpt><trkpt lat="41.7822588" lon="3.5006204"><ele>0.0</ele><time>2026-04-30T12:47:40.038Z</time></trkpt><trkpt lat="41.7823413" lon="3.5008299"><ele>0.0</ele><time>2026-04-30T12:47:42.037Z</time></trkpt><trkpt lat="41.7823777" lon="3.5009345"><ele>0.0</ele><time>2026-04-30T12:47:43.037Z</time></trkpt><trkpt lat="41.7824169" lon="3.5010424"><ele>0.0</ele><time>2026-04-30T12:47:44.037Z</time></trkpt><trkpt lat="41.78245" lon="3.5011537"><ele>0.0</ele><time>2026-04-30T12:47:45.038Z</time></trkpt><trkpt lat="41.7824855" lon="3.5012542"><ele>0.0</ele><time>2026-04-30T12:47:46.037Z</time></trkpt><trkpt lat="41.7825202" lon="3.5013604"><ele>0.0</ele><time>2026-04-30T12:47:47.038Z</time></trkpt><trkpt lat="41.7825519" lon="3.5014613"><ele>0.0</ele><time>2026-04-30T12:47:48.037Z</time></trkpt><trkpt lat="41.782583" lon="3.5015727"><ele>0.0</ele><time>2026-04-30T12:47:49.037Z</time></trkpt><trkpt lat="41.7826118" lon="3.5016803"><ele>0.0</ele><time>2026-04-30T12:47:50.037Z</time></trkpt><trkpt lat="41.7826454" lon="3.501787"><ele>0.0</ele><time>2026-04-30T12:47:51.037Z</time></trkpt><trkpt lat="41.7826847" lon="3.5018882"><ele>0.0</ele><time>2026-04-30T12:47:52.038Z</time></trkpt><trkpt lat="41.782721" lon="3.5019917"><ele>0.0</ele><time>2026-04-30T12:47:53.038Z</time></trkpt><trkpt lat="41.7827651" lon="3.5020968"><ele>0.0</ele><time>2026-04-30T12:47:54.038Z</time></trkpt><trkpt lat="41.7828447" lon="3.5023174"><ele>0.0</ele><time>2026-04-30T12:47:56.037Z</time></trkpt><trkpt lat="41.7828827" lon="3.5024195"><ele>0.0</ele><time>2026-04-30T12:47:57.037Z</time></trkpt><trkpt lat="41.7829184" lon="3.5025221"><ele>0.0</ele><time>2026-04-30T12:47:58.037Z</time></trkpt><trkpt lat="41.7829505" lon="3.5026302"><ele>0.0</ele><time>2026-04-30T12:47:59.037Z</time></trkpt><trkpt lat="41.7829835" lon="3.5027417"><ele>0.0</ele><time>2026-04-30T12:48:00.037Z</time></trkpt><trkpt lat="41.7830188" lon="3.5028488"><ele>0.0</ele><time>2026-04-30T12:48:01.038Z</time></trkpt><trkpt lat="41.7830486" lon="3.5029569"><ele>0.0</ele><time>2026-04-30T12:48:02.038Z</time></trkpt><trkpt lat="41.7830833" lon="3.5030637"><ele>0.0</ele><time>2026-04-30T12:48:03.038Z</time></trkpt><trkpt lat="41.7831203" lon="3.5031672"><ele>0.0</ele><time>2026-04-30T12:48:04.037Z</time></trkpt><trkpt lat="41.7831569" lon="3.5032687"><ele>0.0</ele><time>2026-04-30T12:48:05.038Z</time></trkpt><trkpt lat="41.7831905" lon="3.5033734"><ele>0.0</ele><time>2026-04-30T12:48:06.037Z</time></trkpt><trkpt lat="41.7832252" lon="3.5034801"><ele>0.0</ele><time>2026-04-30T12:48:07.038Z</time></trkpt><trkpt lat="41.78326" lon="3.5035886"><ele>0.0</ele><time>2026-04-30T12:48:08.037Z</time></trkpt><trkpt lat="41.7832993" lon="3.5036867"><ele>0.0</ele><time>2026-04-30T12:48:09.037Z</time></trkpt><trkpt lat="41.7833361" lon="3.5037877"><ele>0.0</ele><time>2026-04-30T12:48:10.037Z</time></trkpt><trkpt lat="41.7833772" lon="3.5038919"><ele>0.0</ele><time>2026-04-30T12:48:11.037Z</time></trkpt><trkpt lat="41.7834169" lon="3.5039909"><ele>0.0</ele><time>2026-04-30T12:48:12.038Z</time></trkpt><trkpt lat="41.7834608" lon="3.504092"><ele>0.0</ele><time>2026-04-30T12:48:13.037Z</time></trkpt><trkpt lat="41.7834999" lon="3.504192"><ele>0.0</ele><time>2026-04-30T12:48:14.037Z</time></trkpt><trkpt lat="41.7835355" lon="3.5042934"><ele>0.0</ele><time>2026-04-30T12:48:15.037Z</time></trkpt><trkpt lat="41.7836116" lon="3.504494"><ele>0.0</ele><time>2026-04-30T12:48:17.038Z</time></trkpt><trkpt lat="41.7836446" lon="3.5045975"><ele>0.0</ele><time>2026-04-30T12:48:18.038Z</time></trkpt><trkpt lat="41.7836723" lon="3.504701"><ele>0.0</ele><time>2026-04-30T12:48:19.038Z</time></trkpt><trkpt lat="41.7837056" lon="3.5048123"><ele>0.0</ele><time>2026-04-30T12:48:20.038Z</time></trkpt><trkpt lat="41.7837369" lon="3.5049101"><ele>0.0</ele><time>2026-04-30T12:48:21.037Z</time></trkpt><trkpt lat="41.783772" lon="3.5050094"><ele>0.0</ele><time>2026-04-30T12:48:22.037Z</time></trkpt><trkpt lat="41.783811" lon="3.5051115"><ele>0.0</ele><time>2026-04-30T12:48:23.037Z</time></trkpt><trkpt lat="41.7838456" lon="3.5052165"><ele>0.0</ele><time>2026-04-30T12:48:24.038Z</time></trkpt><trkpt lat="41.7838805" lon="3.5053186"><ele>0.0</ele><time>2026-04-30T12:48:25.037Z</time></trkpt><trkpt lat="41.7839181" lon="3.5054227"><ele>0.0</ele><time>2026-04-30T12:48:26.038Z</time></trkpt><trkpt lat="41.7839532" lon="3.5055309"><ele>0.0</ele><time>2026-04-30T12:48:27.038Z</time></trkpt><trkpt lat="41.7839898" lon="3.505641"><ele>0.0</ele><time>2026-04-30T12:48:28.037Z</time></trkpt><trkpt lat="41.784028" lon="3.5057494"><ele>0.0</ele><time>2026-04-30T12:48:29.037Z</time></trkpt><trkpt lat="41.7840681" lon="3.5058595"><ele>0.0</ele><time>2026-04-30T12:48:30.037Z</time></trkpt><trkpt lat="41.784108" lon="3.5059677"><ele>0.0</ele><time>2026-04-30T12:48:31.037Z</time></trkpt><trkpt lat="41.7841515" lon="3.50607"><ele>0.0</ele><time>2026-04-30T12:48:32.038Z</time></trkpt><trkpt lat="41.7841934" lon="3.5061683"><ele>0.0</ele><time>2026-04-30T12:48:33.037Z</time></trkpt><trkpt lat="41.7842294" lon="3.5062658"><ele>0.0</ele><time>2026-04-30T12:48:34.037Z</time></trkpt><trkpt lat="41.784267" lon="3.5063727"><ele>0.0</ele><time>2026-04-30T12:48:35.037Z</time></trkpt><trkpt lat="41.7843049" lon="3.5064799"><ele>0.0</ele><time>2026-04-30T12:48:36.037Z</time></trkpt><trkpt lat="41.7843777" lon="3.5066885"><ele>0.0</ele><time>2026-04-30T12:48:38.038Z</time></trkpt><trkpt lat="41.784416" lon="3.5067862"><ele>0.0</ele><time>2026-04-30T12:48:39.038Z</time></trkpt><trkpt lat="41.7844537" lon="3.5068904"><ele>0.0</ele><time>2026-04-30T12:48:40.038Z</time></trkpt><trkpt lat="41.7844923" lon="3.5069935"><ele>0.0</ele><time>2026-04-30T12:48:41.037Z</time></trkpt><trkpt lat="41.7845342" lon="3.5070953"><ele>0.0</ele><time>2026-04-30T12:48:42.037Z</time></trkpt><trkpt lat="41.7845793" lon="3.5071985"><ele>0.0</ele><time>2026-04-30T12:48:43.037Z</time></trkpt><trkpt lat="41.7846677" lon="3.5074022"><ele>0.0</ele><time>2026-04-30T12:48:45.037Z</time></trkpt><trkpt lat="41.7847084" lon="3.5075051"><ele>0.0</ele><time>2026-04-30T12:48:46.037Z</time></trkpt><trkpt lat="41.7847464" lon="3.5076084"><ele>0.0</ele><time>2026-04-30T12:48:47.038Z</time></trkpt><trkpt lat="41.7847832" lon="3.5077204"><ele>0.0</ele><time>2026-04-30T12:48:48.037Z</time></trkpt><trkpt lat="41.7848243" lon="3.5078254"><ele>0.0</ele><time>2026-04-30T12:48:49.038Z</time></trkpt><trkpt lat="41.7848662" lon="3.5079313"><ele>0.0</ele><time>2026-04-30T12:48:50.037Z</time></trkpt><trkpt lat="41.7849122" lon="3.5080295"><ele>0.0</ele><time>2026-04-30T12:48:51.037Z</time></trkpt><trkpt lat="41.7849578" lon="3.5081361"><ele>0.0</ele><time>2026-04-30T12:48:52.038Z</time></trkpt><trkpt lat="41.7849931" lon="3.5082442"><ele>0.0</ele><time>2026-04-30T12:48:53.038Z</time></trkpt><trkpt lat="41.7850306" lon="3.5083529"><ele>0.0</ele><time>2026-04-30T12:48:54.038Z</time></trkpt><trkpt lat="41.7850683" lon="3.5084568"><ele>0.0</ele><time>2026-04-30T12:48:55.037Z</time></trkpt><trkpt lat="41.7851051" lon="3.5085592"><ele>0.0</ele><time>2026-04-30T12:48:56.038Z</time></trkpt><trkpt lat="41.7851432" lon="3.5086619"><ele>0.0</ele><time>2026-04-30T12:48:57.038Z</time></trkpt><trkpt lat="41.785212" lon="3.50886"><ele>0.0</ele><time>2026-04-30T12:48:59.037Z</time></trkpt><trkpt lat="41.7852571" lon="3.5089517"><ele>0.0</ele><time>2026-04-30T12:49:00.037Z</time></trkpt><trkpt lat="41.7852974" lon="3.5090507"><ele>0.0</ele><time>2026-04-30T12:49:01.037Z</time></trkpt><trkpt lat="41.7853345" lon="3.5091567"><ele>0.0</ele><time>2026-04-30T12:49:02.038Z</time></trkpt><trkpt lat="41.7853717" lon="3.5092578"><ele>0.0</ele><time>2026-04-30T12:49:03.038Z</time></trkpt><trkpt lat="41.7854128" lon="3.5093689"><ele>0.0</ele><time>2026-04-30T12:49:04.038Z</time></trkpt><trkpt lat="41.7854546" lon="3.5094761"><ele>0.0</ele><time>2026-04-30T12:49:05.037Z</time></trkpt><trkpt lat="41.7854963" lon="3.5095823"><ele>0.0</ele><time>2026-04-30T12:49:06.037Z</time></trkpt><trkpt lat="41.7855325" lon="3.5096876"><ele>0.0</ele><time>2026-04-30T12:49:07.037Z</time></trkpt><trkpt lat="41.785562" lon="3.5097958"><ele>0.0</ele><time>2026-04-30T12:49:08.038Z</time></trkpt><trkpt lat="41.7855944" lon="3.5099029"><ele>0.0</ele><time>2026-04-30T12:49:09.038Z</time></trkpt><trkpt lat="41.7856191" lon="3.5100096"><ele>0.0</ele><time>2026-04-30T12:49:10.038Z</time></trkpt><trkpt lat="41.7856596" lon="3.5101163"><ele>0.0</ele><time>2026-04-30T12:49:11.037Z</time></trkpt><trkpt lat="41.7856886" lon="3.5102169"><ele>0.0</ele><time>2026-04-30T12:49:12.037Z</time></trkpt><trkpt lat="41.7857263" lon="3.510324"><ele>0.0</ele><time>2026-04-30T12:49:13.038Z</time></trkpt><trkpt lat="41.7857611" lon="3.5104283"><ele>0.0</ele><time>2026-04-30T12:49:14.038Z</time></trkpt><trkpt lat="41.7857955" lon="3.5105335"><ele>0.0</ele><time>2026-04-30T12:49:15.038Z</time></trkpt><trkpt lat="41.7858596" lon="3.5107413"><ele>0.0</ele><time>2026-04-30T12:49:17.038Z</time></trkpt><trkpt lat="41.7858984" lon="3.5108464"><ele>0.0</ele><time>2026-04-30T12:49:18.037Z</time></trkpt><trkpt lat="41.785964" lon="3.5110614"><ele>0.0</ele><time>2026-04-30T12:49:20.037Z</time></trkpt><trkpt lat="41.7860031" lon="3.5111709"><ele>0.0</ele><time>2026-04-30T12:49:21.037Z</time></trkpt><trkpt lat="41.7860425" lon="3.5112765"><ele>0.0</ele><time>2026-04-30T12:49:22.037Z</time></trkpt><trkpt lat="41.7860798" lon="3.5113786"><ele>0.0</ele><time>2026-04-30T12:49:23.038Z</time></trkpt><trkpt lat="41.786122" lon="3.5114778"><ele>0.0</ele><time>2026-04-30T12:49:24.038Z</time></trkpt><trkpt lat="41.7861662" lon="3.5115825"><ele>0.0</ele><time>2026-04-30T12:49:25.038Z</time></trkpt><trkpt lat="41.7862013" lon="3.5116913"><ele>0.0</ele><time>2026-04-30T12:49:26.037Z</time></trkpt><trkpt lat="41.7862373" lon="3.5117951"><ele>0.0</ele><time>2026-04-30T12:49:27.037Z</time></trkpt><trkpt lat="41.7862807" lon="3.5118886"><ele>0.0</ele><time>2026-04-30T12:49:28.037Z</time></trkpt><trkpt lat="41.786321" lon="3.5119855"><ele>0.0</ele><time>2026-04-30T12:49:29.037Z</time></trkpt><trkpt lat="41.7863599" lon="3.5120866"><ele>0.0</ele><time>2026-04-30T12:49:30.038Z</time></trkpt><trkpt lat="41.7864" lon="3.5121876"><ele>0.0</ele><time>2026-04-30T12:49:31.037Z</time></trkpt><trkpt lat="41.7864386" lon="3.5122891"><ele>0.0</ele><time>2026-04-30T12:49:32.038Z</time></trkpt><trkpt lat="41.7864799" lon="3.5123916"><ele>0.0</ele><time>2026-04-30T12:49:33.038Z</time></trkpt><trkpt lat="41.7865246" lon="3.5124936"><ele>0.0</ele><time>2026-04-30T12:49:34.037Z</time></trkpt><trkpt lat="41.7865684" lon="3.5125953"><ele>0.0</ele><time>2026-04-30T12:49:35.038Z</time></trkpt><trkpt lat="41.7866076" lon="3.5126932"><ele>0.0</ele><time>2026-04-30T12:49:36.038Z</time></trkpt><trkpt lat="41.7866408" lon="3.5127937"><ele>0.0</ele><time>2026-04-30T12:49:37.037Z</time></trkpt><trkpt lat="41.7866737" lon="3.5128997"><ele>0.0</ele><time>2026-04-30T12:49:38.037Z</time></trkpt><trkpt lat="41.7867058" lon="3.513005"><ele>0.0</ele><time>2026-04-30T12:49:39.038Z</time></trkpt><trkpt lat="41.7867683" lon="3.5132218"><ele>0.0</ele><time>2026-04-30T12:49:41.038Z</time></trkpt><trkpt lat="41.7868038" lon="3.5133338"><ele>0.0</ele><time>2026-04-30T12:49:42.038Z</time></trkpt><trkpt lat="41.786844" lon="3.5134425"><ele>0.0</ele><time>2026-04-30T12:49:43.038Z</time></trkpt><trkpt lat="41.7868824" lon="3.5135534"><ele>0.0</ele><time>2026-04-30T12:49:44.037Z</time></trkpt><trkpt lat="41.7869289" lon="3.5136621"><ele>0.0</ele><time>2026-04-30T12:49:45.038Z</time></trkpt><trkpt lat="41.7869788" lon="3.5137794"><ele>0.0</ele><time>2026-04-30T12:49:46.038Z</time></trkpt><trkpt lat="41.7870303" lon="3.5138907"><ele>0.0</ele><time>2026-04-30T12:49:47.038Z</time></trkpt><trkpt lat="41.787076" lon="3.5139974"><ele>0.0</ele><time>2026-04-30T12:49:48.037Z</time></trkpt><trkpt lat="41.7871169" lon="3.5140998"><ele>0.0</ele><time>2026-04-30T12:49:49.038Z</time></trkpt><trkpt lat="41.7871559" lon="3.5141998"><ele>0.0</ele><time>2026-04-30T12:49:50.037Z</time></trkpt><trkpt lat="41.7871957" lon="3.5143017"><ele>0.0</ele><time>2026-04-30T12:49:51.038Z</time></trkpt><trkpt lat="41.7872322" lon="3.5144021"><ele>0.0</ele><time>2026-04-30T12:49:52.038Z</time></trkpt><trkpt lat="41.7872651" lon="3.5145097"><ele>0.0</ele><time>2026-04-30T12:49:53.038Z</time></trkpt><trkpt lat="41.787294" lon="3.514614"><ele>0.0</ele><time>2026-04-30T12:49:54.037Z</time></trkpt><trkpt lat="41.7873217" lon="3.5147202"><ele>0.0</ele><time>2026-04-30T12:49:55.037Z</time></trkpt><trkpt lat="41.7873485" lon="3.514827"><ele>0.0</ele><time>2026-04-30T12:49:56.038Z</time></trkpt><trkpt lat="41.7873768" lon="3.5149278"><ele>0.0</ele><time>2026-04-30T12:49:57.037Z</time></trkpt><trkpt lat="41.7874125" lon="3.5150303"><ele>0.0</ele><time>2026-04-30T12:49:58.037Z</time></trkpt><trkpt lat="41.7874517" lon="3.5151348"><ele>0.0</ele><time>2026-04-30T12:49:59.038Z</time></trkpt><trkpt lat="41.787486" lon="3.5152398"><ele>0.0</ele><time>2026-04-30T12:50:00.037Z</time></trkpt><trkpt lat="41.7875535" lon="3.5154514"><ele>0.0</ele><time>2026-04-30T12:50:02.038Z</time></trkpt><trkpt lat="41.7875884" lon="3.5155581"><ele>0.0</ele><time>2026-04-30T12:50:03.038Z</time></trkpt><trkpt lat="41.7876187" lon="3.5156594"><ele>0.0</ele><time>2026-04-30T12:50:04.037Z</time></trkpt><trkpt lat="41.7876543" lon="3.5157651"><ele>0.0</ele><time>2026-04-30T12:50:05.037Z</time></trkpt><trkpt lat="41.7876968" lon="3.5158706"><ele>0.0</ele><time>2026-04-30T12:50:06.038Z</time></trkpt><trkpt lat="41.7877419" lon="3.5159797"><ele>0.0</ele><time>2026-04-30T12:50:07.037Z</time></trkpt><trkpt lat="41.7877791" lon="3.5160765"><ele>0.0</ele><time>2026-04-30T12:50:08.037Z</time></trkpt><trkpt lat="41.7878111" lon="3.5161759"><ele>0.0</ele><time>2026-04-30T12:50:09.038Z</time></trkpt><trkpt lat="41.7878464" lon="3.5162726"><ele>0.0</ele><time>2026-04-30T12:50:10.037Z</time></trkpt><trkpt lat="41.7878942" lon="3.5163722"><ele>0.0</ele><time>2026-04-30T12:50:11.037Z</time></trkpt><trkpt lat="41.7879436" lon="3.516477"><ele>0.0</ele><time>2026-04-30T12:50:12.038Z</time></trkpt><trkpt lat="41.7879939" lon="3.5165845"><ele>0.0</ele><time>2026-04-30T12:50:13.038Z</time></trkpt><trkpt lat="41.7880472" lon="3.5166857"><ele>0.0</ele><time>2026-04-30T12:50:14.038Z</time></trkpt><trkpt lat="41.788095" lon="3.5167832"><ele>0.0</ele><time>2026-04-30T12:50:15.038Z</time></trkpt><trkpt lat="41.7881299" lon="3.5168895"><ele>0.0</ele><time>2026-04-30T12:50:16.037Z</time></trkpt><trkpt lat="41.7881685" lon="3.5169962"><ele>0.0</ele><time>2026-04-30T12:50:17.037Z</time></trkpt><trkpt lat="41.7882081" lon="3.517103"><ele>0.0</ele><time>2026-04-30T12:50:18.038Z</time></trkpt><trkpt lat="41.7882452" lon="3.5172083"><ele>0.0</ele><time>2026-04-30T12:50:19.038Z</time></trkpt><trkpt lat="41.7882793" lon="3.5173075"><ele>0.0</ele><time>2026-04-30T12:50:20.038Z</time></trkpt><trkpt lat="41.7883621" lon="3.5175073"><ele>0.0</ele><time>2026-04-30T12:50:22.037Z</time></trkpt><trkpt lat="41.7884046" lon="3.5176098"><ele>0.0</ele><time>2026-04-30T12:50:23.037Z</time></trkpt><trkpt lat="41.788439" lon="3.5177122"><ele>0.0</ele><time>2026-04-30T12:50:24.038Z</time></trkpt><trkpt lat="41.7884753" lon="3.5178137"><ele>0.0</ele><time>2026-04-30T12:50:25.038Z</time></trkpt><trkpt lat="41.7885121" lon="3.5179167"><ele>0.0</ele><time>2026-04-30T12:50:26.038Z</time></trkpt><trkpt lat="41.788552" lon="3.5180246"><ele>0.0</ele><time>2026-04-30T12:50:27.037Z</time></trkpt><trkpt lat="41.7885918" lon="3.5181335"><ele>0.0</ele><time>2026-04-30T12:50:28.037Z</time></trkpt><trkpt lat="41.788629" lon="3.5182319"><ele>0.0</ele><time>2026-04-30T12:50:29.037Z</time></trkpt><trkpt lat="41.7886607" lon="3.5183369"><ele>0.0</ele><time>2026-04-30T12:50:30.038Z</time></trkpt><trkpt lat="41.7886926" lon="3.5184333"><ele>0.0</ele><time>2026-04-30T12:50:31.038Z</time></trkpt><trkpt lat="41.7887271" lon="3.5185328"><ele>0.0</ele><time>2026-04-30T12:50:32.037Z</time></trkpt><trkpt lat="41.7887621" lon="3.5186371"><ele>0.0</ele><time>2026-04-30T12:50:33.038Z</time></trkpt><trkpt lat="41.7887935" lon="3.5187407"><ele>0.0</ele><time>2026-04-30T12:50:34.037Z</time></trkpt><trkpt lat="41.7888346" lon="3.5188421"><ele>0.0</ele><time>2026-04-30T12:50:35.038Z</time></trkpt><trkpt lat="41.7888715" lon="3.5189451"><ele>0.0</ele><time>2026-04-30T12:50:36.037Z</time></trkpt><trkpt lat="41.7889063" lon="3.5190553"><ele>0.0</ele><time>2026-04-30T12:50:37.037Z</time></trkpt><trkpt lat="41.7889491" lon="3.5191656"><ele>0.0</ele><time>2026-04-30T12:50:38.038Z</time></trkpt><trkpt lat="41.7889926" lon="3.5192699"><ele>0.0</ele><time>2026-04-30T12:50:39.037Z</time></trkpt><trkpt lat="41.7890324" lon="3.5193666"><ele>0.0</ele><time>2026-04-30T12:50:40.036Z</time></trkpt><trkpt lat="41.7891158" lon="3.5195731"><ele>0.0</ele><time>2026-04-30T12:50:42.036Z</time></trkpt><trkpt lat="41.7891488" lon="3.519678"><ele>0.0</ele><time>2026-04-30T12:50:43.037Z</time></trkpt><trkpt lat="41.789172" lon="3.5197764"><ele>0.0</ele><time>2026-04-30T12:50:44.037Z</time></trkpt><trkpt lat="41.7892071" lon="3.5198758"><ele>0.0</ele><time>2026-04-30T12:50:45.036Z</time></trkpt><trkpt lat="41.7892417" lon="3.5199784"><ele>0.0</ele><time>2026-04-30T12:50:46.036Z</time></trkpt><trkpt lat="41.7892796" lon="3.5200773"><ele>0.0</ele><time>2026-04-30T12:50:47.036Z</time></trkpt><trkpt lat="41.7893182" lon="3.520181"><ele>0.0</ele><time>2026-04-30T12:50:48.037Z</time></trkpt><trkpt lat="41.7893601" lon="3.5202821"><ele>0.0</ele><time>2026-04-30T12:50:49.037Z</time></trkpt><trkpt lat="41.7893987" lon="3.5203864"><ele>0.0</ele><time>2026-04-30T12:50:50.036Z</time></trkpt><trkpt lat="41.7894357" lon="3.5204927"><ele>0.0</ele><time>2026-04-30T12:50:51.037Z</time></trkpt><trkpt lat="41.789473" lon="3.5205994"><ele>0.0</ele><time>2026-04-30T12:50:52.037Z</time></trkpt><trkpt lat="41.7895149" lon="3.5207033"><ele>0.0</ele><time>2026-04-30T12:50:53.037Z</time></trkpt><trkpt lat="41.7895629" lon="3.5208036"><ele>0.0</ele><time>2026-04-30T12:50:54.036Z</time></trkpt><trkpt lat="41.7896113" lon="3.5209062"><ele>0.0</ele><time>2026-04-30T12:50:55.037Z</time></trkpt><trkpt lat="41.7896568" lon="3.5210142"><ele>0.0</ele><time>2026-04-30T12:50:56.037Z</time></trkpt><trkpt lat="41.7896925" lon="3.521124"><ele>0.0</ele><time>2026-04-30T12:50:57.037Z</time></trkpt><trkpt lat="41.7897303" lon="3.5212255"><ele>0.0</ele><time>2026-04-30T12:50:58.036Z</time></trkpt><trkpt lat="41.7897655" lon="3.5213314"><ele>0.0</ele><time>2026-04-30T12:50:59.036Z</time></trkpt><trkpt lat="41.789805" lon="3.5214358"><ele>0.0</ele><time>2026-04-30T12:51:00.037Z</time></trkpt><trkpt lat="41.789845" lon="3.521538"><ele>0.0</ele><time>2026-04-30T12:51:01.036Z</time></trkpt><trkpt lat="41.7899293" lon="3.5217329"><ele>0.0</ele><time>2026-04-30T12:51:03.037Z</time></trkpt><trkpt lat="41.7899702" lon="3.5218378"><ele>0.0</ele><time>2026-04-30T12:51:04.036Z</time></trkpt><trkpt lat="41.7900104" lon="3.5219386"><ele>0.0</ele><time>2026-04-30T12:51:05.036Z</time></trkpt><trkpt lat="41.790049" lon="3.5220417"><ele>0.0</ele><time>2026-04-30T12:51:06.036Z</time></trkpt><trkpt lat="41.7900846" lon="3.5221477"><ele>0.0</ele><time>2026-04-30T12:51:07.037Z</time></trkpt><trkpt lat="41.7901191" lon="3.5222505"><ele>0.0</ele><time>2026-04-30T12:51:08.036Z</time></trkpt><trkpt lat="41.7901542" lon="3.5223579"><ele>0.0</ele><time>2026-04-30T12:51:09.037Z</time></trkpt><trkpt lat="41.7901933" lon="3.5224657"><ele>0.0</ele><time>2026-04-30T12:51:10.037Z</time></trkpt><trkpt lat="41.7902307" lon="3.5225727"><ele>0.0</ele><time>2026-04-30T12:51:11.036Z</time></trkpt><trkpt lat="41.7902714" lon="3.5226792"><ele>0.0</ele><time>2026-04-30T12:51:12.036Z</time></trkpt><trkpt lat="41.7903061" lon="3.5227903"><ele>0.0</ele><time>2026-04-30T12:51:13.036Z</time></trkpt><trkpt lat="41.7903405" lon="3.5228938"><ele>0.0</ele><time>2026-04-30T12:51:14.037Z</time></trkpt><trkpt lat="41.7903736" lon="3.522997"><ele>0.0</ele><time>2026-04-30T12:51:15.036Z</time></trkpt><trkpt lat="41.7904117" lon="3.5230959"><ele>0.0</ele><time>2026-04-30T12:51:16.036Z</time></trkpt><trkpt lat="41.7904506" lon="3.5231939"><ele>0.0</ele><time>2026-04-30T12:51:17.036Z</time></trkpt><trkpt lat="41.7904891" lon="3.5232976"><ele>0.0</ele><time>2026-04-30T12:51:18.036Z</time></trkpt><trkpt lat="41.7905182" lon="3.523407"><ele>0.0</ele><time>2026-04-30T12:51:19.036Z</time></trkpt><trkpt lat="41.7905518" lon="3.523514"><ele>0.0</ele><time>2026-04-30T12:51:20.036Z</time></trkpt><trkpt lat="41.7905846" lon="3.5236228"><ele>0.0</ele><time>2026-04-30T12:51:21.037Z</time></trkpt><trkpt lat="41.7906185" lon="3.5237283"><ele>0.0</ele><time>2026-04-30T12:51:22.036Z</time></trkpt><trkpt lat="41.7906593" lon="3.5238272"><ele>0.0</ele><time>2026-04-30T12:51:23.036Z</time></trkpt><trkpt lat="41.7907322" lon="3.5240267"><ele>0.0</ele><time>2026-04-30T12:51:25.037Z</time></trkpt><trkpt lat="41.7907687" lon="3.5241276"><ele>0.0</ele><time>2026-04-30T12:51:26.036Z</time></trkpt><trkpt lat="41.7908084" lon="3.5242271"><ele>0.0</ele><time>2026-04-30T12:51:27.036Z</time></trkpt><trkpt lat="41.7908456" lon="3.5243285"><ele>0.0</ele><time>2026-04-30T12:51:28.036Z</time></trkpt><trkpt lat="41.7908792" lon="3.5244329"><ele>0.0</ele><time>2026-04-30T12:51:29.036Z</time></trkpt><trkpt lat="41.7909247" lon="3.5245295"><ele>0.0</ele><time>2026-04-30T12:51:30.037Z</time></trkpt><trkpt lat="41.7909647" lon="3.5246343"><ele>0.0</ele><time>2026-04-30T12:51:31.036Z</time></trkpt><trkpt lat="41.7910047" lon="3.5247366"><ele>0.0</ele><time>2026-04-30T12:51:32.037Z</time></trkpt><trkpt lat="41.7910468" lon="3.5248429"><ele>0.0</ele><time>2026-04-30T12:51:33.036Z</time></trkpt><trkpt lat="41.7910869" lon="3.524948"><ele>0.0</ele><time>2026-04-30T12:51:34.036Z</time></trkpt><trkpt lat="41.7911226" lon="3.5250558"><ele>0.0</ele><time>2026-04-30T12:51:35.036Z</time></trkpt><trkpt lat="41.7911585" lon="3.5251617"><ele>0.0</ele><time>2026-04-30T12:51:36.037Z</time></trkpt><trkpt lat="41.7911938" lon="3.5252681"><ele>0.0</ele><time>2026-04-30T12:51:37.037Z</time></trkpt><trkpt lat="41.791233" lon="3.5253653"><ele>0.0</ele><time>2026-04-30T12:51:38.037Z</time></trkpt><trkpt lat="41.7912699" lon="3.5254679"><ele>0.0</ele><time>2026-04-30T12:51:39.037Z</time></trkpt><trkpt lat="41.7913068" lon="3.5255743"><ele>0.0</ele><time>2026-04-30T12:51:40.037Z</time></trkpt><trkpt lat="41.7913391" lon="3.5256785"><ele>0.0</ele><time>2026-04-30T12:51:41.036Z</time></trkpt><trkpt lat="41.7913735" lon="3.5257857"><ele>0.0</ele><time>2026-04-30T12:51:42.036Z</time></trkpt><trkpt lat="41.7914117" lon="3.5258915"><ele>0.0</ele><time>2026-04-30T12:51:43.037Z</time></trkpt><trkpt lat="41.791449" lon="3.5259966"><ele>0.0</ele><time>2026-04-30T12:51:44.036Z</time></trkpt><trkpt lat="41.7915229" lon="3.5262054"><ele>0.0</ele><time>2026-04-30T12:51:46.037Z</time></trkpt><trkpt lat="41.7915615" lon="3.5263125"><ele>0.0</ele><time>2026-04-30T12:51:47.036Z</time></trkpt><trkpt lat="41.7916002" lon="3.5264155"><ele>0.0</ele><time>2026-04-30T12:51:48.037Z</time></trkpt><trkpt lat="41.7916416" lon="3.5265169"><ele>0.0</ele><time>2026-04-30T12:51:49.037Z</time></trkpt><trkpt lat="41.7916803" lon="3.5266205"><ele>0.0</ele><time>2026-04-30T12:51:50.036Z</time></trkpt><trkpt lat="41.791717" lon="3.5267267"><ele>0.0</ele><time>2026-04-30T12:51:51.036Z</time></trkpt><trkpt lat="41.7917521" lon="3.5268347"><ele>0.0</ele><time>2026-04-30T12:51:52.036Z</time></trkpt><trkpt lat="41.7917899" lon="3.5269396"><ele>0.0</ele><time>2026-04-30T12:51:53.036Z</time></trkpt><trkpt lat="41.7918366" lon="3.5270446"><ele>0.0</ele><time>2026-04-30T12:51:54.036Z</time></trkpt><trkpt lat="41.7919071" lon="3.5272568"><ele>0.0</ele><time>2026-04-30T12:51:56.037Z</time></trkpt><trkpt lat="41.7919464" lon="3.5273684"><ele>0.0</ele><time>2026-04-30T12:51:57.037Z</time></trkpt><trkpt lat="41.791988" lon="3.5274734"><ele>0.0</ele><time>2026-04-30T12:51:58.036Z</time></trkpt><trkpt lat="41.7920255" lon="3.5275786"><ele>0.0</ele><time>2026-04-30T12:51:59.036Z</time></trkpt><trkpt lat="41.7920618" lon="3.5276835"><ele>0.0</ele><time>2026-04-30T12:52:00.036Z</time></trkpt><trkpt lat="41.7920986" lon="3.5277871"><ele>0.0</ele><time>2026-04-30T12:52:01.036Z</time></trkpt><trkpt lat="41.7921316" lon="3.5278889"><ele>0.0</ele><time>2026-04-30T12:52:02.036Z</time></trkpt><trkpt lat="41.7921643" lon="3.5279947"><ele>0.0</ele><time>2026-04-30T12:52:03.036Z</time></trkpt><trkpt lat="41.7921963" lon="3.5281116"><ele>0.0</ele><time>2026-04-30T12:52:04.037Z</time></trkpt><trkpt lat="41.7922318" lon="3.5282173"><ele>0.0</ele><time>2026-04-30T12:52:05.036Z</time></trkpt><trkpt lat="41.792294" lon="3.5284298"><ele>0.0</ele><time>2026-04-30T12:52:07.036Z</time></trkpt><trkpt lat="41.79233" lon="3.5285326"><ele>0.0</ele><time>2026-04-30T12:52:08.036Z</time></trkpt><trkpt lat="41.7923611" lon="3.5286456"><ele>0.0</ele><time>2026-04-30T12:52:09.036Z</time></trkpt><trkpt lat="41.7923967" lon="3.5287477"><ele>0.0</ele><time>2026-04-30T12:52:10.036Z</time></trkpt><trkpt lat="41.7924348" lon="3.5288464"><ele>0.0</ele><time>2026-04-30T12:52:11.037Z</time></trkpt><trkpt lat="41.7924705" lon="3.5289434"><ele>0.0</ele><time>2026-04-30T12:52:12.037Z</time></trkpt><trkpt lat="41.7925122" lon="3.5290423"><ele>0.0</ele><time>2026-04-30T12:52:13.036Z</time></trkpt><trkpt lat="41.7925501" lon="3.5291498"><ele>0.0</ele><time>2026-04-30T12:52:14.036Z</time></trkpt><trkpt lat="41.7925895" lon="3.5292549"><ele>0.0</ele><time>2026-04-30T12:52:15.037Z</time></trkpt><trkpt lat="41.7926273" lon="3.5293599"><ele>0.0</ele><time>2026-04-30T12:52:16.036Z</time></trkpt><trkpt lat="41.7926653" lon="3.5294648"><ele>0.0</ele><time>2026-04-30T12:52:17.036Z</time></trkpt><trkpt lat="41.7927075" lon="3.5295683"><ele>0.0</ele><time>2026-04-30T12:52:18.037Z</time></trkpt><trkpt lat="41.7927451" lon="3.5296678"><ele>0.0</ele><time>2026-04-30T12:52:19.036Z</time></trkpt><trkpt lat="41.7927783" lon="3.5297674"><ele>0.0</ele><time>2026-04-30T12:52:20.036Z</time></trkpt><trkpt lat="41.7928176" lon="3.5298707"><ele>0.0</ele><time>2026-04-30T12:52:21.037Z</time></trkpt><trkpt lat="41.7928536" lon="3.5299685"><ele>0.0</ele><time>2026-04-30T12:52:22.036Z</time></trkpt><trkpt lat="41.7928915" lon="3.5300735"><ele>0.0</ele><time>2026-04-30T12:52:23.037Z</time></trkpt><trkpt lat="41.7929274" lon="3.5301714"><ele>0.0</ele><time>2026-04-30T12:52:24.036Z</time></trkpt><trkpt lat="41.792959" lon="3.5302662"><ele>0.0</ele><time>2026-04-30T12:52:25.036Z</time></trkpt><trkpt lat="41.7929915" lon="3.5303714"><ele>0.0</ele><time>2026-04-30T12:52:26.037Z</time></trkpt><trkpt lat="41.7930663" lon="3.5305838"><ele>0.0</ele><time>2026-04-30T12:52:28.036Z</time></trkpt><trkpt lat="41.7931064" lon="3.5306872"><ele>0.0</ele><time>2026-04-30T12:52:29.037Z</time></trkpt><trkpt lat="41.7931421" lon="3.5307903"><ele>0.0</ele><time>2026-04-30T12:52:30.036Z</time></trkpt><trkpt lat="41.7931738" lon="3.5308948"><ele>0.0</ele><time>2026-04-30T12:52:31.036Z</time></trkpt><trkpt lat="41.7932016" lon="3.5309973"><ele>0.0</ele><time>2026-04-30T12:52:32.037Z</time></trkpt><trkpt lat="41.7932352" lon="3.5310974"><ele>0.0</ele><time>2026-04-30T12:52:33.037Z</time></trkpt><trkpt lat="41.7932732" lon="3.5312072"><ele>0.0</ele><time>2026-04-30T12:52:34.037Z</time></trkpt><trkpt lat="41.7933071" lon="3.5313115"><ele>0.0</ele><time>2026-04-30T12:52:35.036Z</time></trkpt><trkpt lat="41.7933463" lon="3.5314148"><ele>0.0</ele><time>2026-04-30T12:52:36.037Z</time></trkpt><trkpt lat="41.7933832" lon="3.5315285"><ele>0.0</ele><time>2026-04-30T12:52:37.037Z</time></trkpt><trkpt lat="41.7934231" lon="3.5316364"><ele>0.0</ele><time>2026-04-30T12:52:38.036Z</time></trkpt><trkpt lat="41.793459" lon="3.5317417"><ele>0.0</ele><time>2026-04-30T12:52:39.037Z</time></trkpt><trkpt lat="41.7934934" lon="3.5318395"><ele>0.0</ele><time>2026-04-30T12:52:40.036Z</time></trkpt><trkpt lat="41.7935376" lon="3.5319431"><ele>0.0</ele><time>2026-04-30T12:52:41.036Z</time></trkpt><trkpt lat="41.7935783" lon="3.5320432"><ele>0.0</ele><time>2026-04-30T12:52:42.037Z</time></trkpt><trkpt lat="41.793617" lon="3.5321499"><ele>0.0</ele><time>2026-04-30T12:52:43.037Z</time></trkpt><trkpt lat="41.7936525" lon="3.5322541"><ele>0.0</ele><time>2026-04-30T12:52:44.036Z</time></trkpt><trkpt lat="41.7936916" lon="3.5323643"><ele>0.0</ele><time>2026-04-30T12:52:45.037Z</time></trkpt><trkpt lat="41.7937272" lon="3.5324671"><ele>0.0</ele><time>2026-04-30T12:52:46.037Z</time></trkpt><trkpt lat="41.7937622" lon="3.5325644"><ele>0.0</ele><time>2026-04-30T12:52:47.036Z</time></trkpt><trkpt lat="41.7937972" lon="3.5326683"><ele>0.0</ele><time>2026-04-30T12:52:48.037Z</time></trkpt><trkpt lat="41.793875" lon="3.5328844"><ele>0.0</ele><time>2026-04-30T12:52:50.036Z</time></trkpt><trkpt lat="41.7939106" lon="3.5329938"><ele>0.0</ele><time>2026-04-30T12:52:51.037Z</time></trkpt><trkpt lat="41.7939463" lon="3.533104"><ele>0.0</ele><time>2026-04-30T12:52:52.037Z</time></trkpt><trkpt lat="41.793982" lon="3.5332087"><ele>0.0</ele><time>2026-04-30T12:52:53.037Z</time></trkpt><trkpt lat="41.7940157" lon="3.5333075"><ele>0.0</ele><time>2026-04-30T12:52:54.037Z</time></trkpt><trkpt lat="41.7940499" lon="3.5334055"><ele>0.0</ele><time>2026-04-30T12:52:55.036Z</time></trkpt><trkpt lat="41.7940841" lon="3.5335083"><ele>0.0</ele><time>2026-04-30T12:52:56.037Z</time></trkpt><trkpt lat="41.7941215" lon="3.5336118"><ele>0.0</ele><time>2026-04-30T12:52:57.037Z</time></trkpt><trkpt lat="41.794158" lon="3.5337153"><ele>0.0</ele><time>2026-04-30T12:52:58.037Z</time></trkpt><trkpt lat="41.7942372" lon="3.5339251"><ele>0.0</ele><time>2026-04-30T12:53:00.037Z</time></trkpt><trkpt lat="41.7942753" lon="3.5340286"><ele>0.0</ele><time>2026-04-30T12:53:01.036Z</time></trkpt><trkpt lat="41.7943145" lon="3.5341285"><ele>0.0</ele><time>2026-04-30T12:53:02.037Z</time></trkpt><trkpt lat="41.7943548" lon="3.5342318"><ele>0.0</ele><time>2026-04-30T12:53:03.036Z</time></trkpt><trkpt lat="41.7943958" lon="3.5343379"><ele>0.0</ele><time>2026-04-30T12:53:04.037Z</time></trkpt><trkpt lat="41.794433" lon="3.5344428"><ele>0.0</ele><time>2026-04-30T12:53:05.037Z</time></trkpt><trkpt lat="41.7944699" lon="3.534551"><ele>0.0</ele><time>2026-04-30T12:53:06.036Z</time></trkpt><trkpt lat="41.7945056" lon="3.5346563"><ele>0.0</ele><time>2026-04-30T12:53:07.037Z</time></trkpt><trkpt lat="41.7945421" lon="3.5347624"><ele>0.0</ele><time>2026-04-30T12:53:08.036Z</time></trkpt><trkpt lat="41.7945746" lon="3.5348661"><ele>0.0</ele><time>2026-04-30T12:53:09.036Z</time></trkpt><trkpt lat="41.7946489" lon="3.535077"><ele>0.0</ele><time>2026-04-30T12:53:11.036Z</time></trkpt><trkpt lat="41.7946824" lon="3.5351848"><ele>0.0</ele><time>2026-04-30T12:53:12.037Z</time></trkpt><trkpt lat="41.7947152" lon="3.5352895"><ele>0.0</ele><time>2026-04-30T12:53:13.037Z</time></trkpt><trkpt lat="41.7947447" lon="3.5353944"><ele>0.0</ele><time>2026-04-30T12:53:14.036Z</time></trkpt><trkpt lat="41.7947818" lon="3.5354996"><ele>0.0</ele><time>2026-04-30T12:53:15.036Z</time></trkpt><trkpt lat="41.7948257" lon="3.5356115"><ele>0.0</ele><time>2026-04-30T12:53:16.037Z</time></trkpt><trkpt lat="41.7948696" lon="3.5357181"><ele>0.0</ele><time>2026-04-30T12:53:17.037Z</time></trkpt><trkpt lat="41.7949059" lon="3.5358279"><ele>0.0</ele><time>2026-04-30T12:53:18.037Z</time></trkpt><trkpt lat="41.7949426" lon="3.5359333"><ele>0.0</ele><time>2026-04-30T12:53:19.036Z</time></trkpt><trkpt lat="41.7949704" lon="3.5360409"><ele>0.0</ele><time>2026-04-30T12:53:20.037Z</time></trkpt><trkpt lat="41.7949981" lon="3.5361495"><ele>0.0</ele><time>2026-04-30T12:53:21.036Z</time></trkpt><trkpt lat="41.7950289" lon="3.5362579"><ele>0.0</ele><time>2026-04-30T12:53:22.036Z</time></trkpt><trkpt lat="41.7950696" lon="3.5363663"><ele>0.0</ele><time>2026-04-30T12:53:23.037Z</time></trkpt><trkpt lat="41.7951113" lon="3.5364706"><ele>0.0</ele><time>2026-04-30T12:53:24.036Z</time></trkpt><trkpt lat="41.7951529" lon="3.536575"><ele>0.0</ele><time>2026-04-30T12:53:25.036Z</time></trkpt><trkpt lat="41.7951987" lon="3.5366751"><ele>0.0</ele><time>2026-04-30T12:53:26.036Z</time></trkpt><trkpt lat="41.7952399" lon="3.5367741"><ele>0.0</ele><time>2026-04-30T12:53:27.037Z</time></trkpt><trkpt lat="41.7952802" lon="3.536877"><ele>0.0</ele><time>2026-04-30T12:53:28.037Z</time></trkpt><trkpt lat="41.7953217" lon="3.5369803"><ele>0.0</ele><time>2026-04-30T12:53:29.036Z</time></trkpt><trkpt lat="41.7953641" lon="3.5370811"><ele>0.0</ele><time>2026-04-30T12:53:30.036Z</time></trkpt><trkpt lat="41.7954966" lon="3.5373698"><ele>0.0</ele><time>2026-04-30T12:53:33.036Z</time></trkpt><trkpt lat="41.7955312" lon="3.5374678"><ele>0.0</ele><time>2026-04-30T12:53:34.036Z</time></trkpt><trkpt lat="41.7955701" lon="3.537566"><ele>0.0</ele><time>2026-04-30T12:53:35.037Z</time></trkpt><trkpt lat="41.7956069" lon="3.5376672"><ele>0.0</ele><time>2026-04-30T12:53:36.037Z</time></trkpt><trkpt lat="41.7956538" lon="3.5377664"><ele>0.0</ele><time>2026-04-30T12:53:37.036Z</time></trkpt><trkpt lat="41.7956966" lon="3.5378656"><ele>0.0</ele><time>2026-04-30T12:53:38.036Z</time></trkpt><trkpt lat="41.7957422" lon="3.5379615"><ele>0.0</ele><time>2026-04-30T12:53:39.036Z</time></trkpt><trkpt lat="41.7957876" lon="3.5380618"><ele>0.0</ele><time>2026-04-30T12:53:40.036Z</time></trkpt><trkpt lat="41.7958257" lon="3.5381591"><ele>0.0</ele><time>2026-04-30T12:53:41.036Z</time></trkpt><trkpt lat="41.7958607" lon="3.5382624"><ele>0.0</ele><time>2026-04-30T12:53:42.036Z</time></trkpt><trkpt lat="41.7959013" lon="3.5383591"><ele>0.0</ele><time>2026-04-30T12:53:43.037Z</time></trkpt><trkpt lat="41.7959401" lon="3.5384589"><ele>0.0</ele><time>2026-04-30T12:53:44.037Z</time></trkpt><trkpt lat="41.7959836" lon="3.5385646"><ele>0.0</ele><time>2026-04-30T12:53:45.036Z</time></trkpt><trkpt lat="41.796026" lon="3.5386694"><ele>0.0</ele><time>2026-04-30T12:53:46.037Z</time></trkpt><trkpt lat="41.796064" lon="3.5387759"><ele>0.0</ele><time>2026-04-30T12:53:47.036Z</time></trkpt><trkpt lat="41.7960965" lon="3.5388798"><ele>0.0</ele><time>2026-04-30T12:53:48.037Z</time></trkpt><trkpt lat="41.7961285" lon="3.538989"><ele>0.0</ele><time>2026-04-30T12:53:49.036Z</time></trkpt><trkpt lat="41.7961633" lon="3.5390977"><ele>0.0</ele><time>2026-04-30T12:53:50.036Z</time></trkpt><trkpt lat="41.7962" lon="3.5392034"><ele>0.0</ele><time>2026-04-30T12:53:51.037Z</time></trkpt><trkpt lat="41.7962317" lon="3.539307"><ele>0.0</ele><time>2026-04-30T12:53:52.036Z</time></trkpt><trkpt lat="41.7963051" lon="3.5395192"><ele>0.0</ele><time>2026-04-30T12:53:54.036Z</time></trkpt><trkpt lat="41.7963449" lon="3.5396232"><ele>0.0</ele><time>2026-04-30T12:53:55.037Z</time></trkpt><trkpt lat="41.7963809" lon="3.5397317"><ele>0.0</ele><time>2026-04-30T12:53:56.037Z</time></trkpt><trkpt lat="41.7964131" lon="3.5398529"><ele>0.0</ele><time>2026-04-30T12:53:57.036Z</time></trkpt><trkpt lat="41.7964515" lon="3.5399609"><ele>0.0</ele><time>2026-04-30T12:53:58.037Z</time></trkpt><trkpt lat="41.796487" lon="3.5400696"><ele>0.0</ele><time>2026-04-30T12:53:59.037Z</time></trkpt><trkpt lat="41.7965208" lon="3.5401749"><ele>0.0</ele><time>2026-04-30T12:54:00.037Z</time></trkpt><trkpt lat="41.7965497" lon="3.5402813"><ele>0.0</ele><time>2026-04-30T12:54:01.037Z</time></trkpt><trkpt lat="41.796585" lon="3.5403869"><ele>0.0</ele><time>2026-04-30T12:54:02.036Z</time></trkpt><trkpt lat="41.7966247" lon="3.5404917"><ele>0.0</ele><time>2026-04-30T12:54:03.036Z</time></trkpt><trkpt lat="41.796669" lon="3.5405878"><ele>0.0</ele><time>2026-04-30T12:54:04.036Z</time></trkpt><trkpt lat="41.7967069" lon="3.5406843"><ele>0.0</ele><time>2026-04-30T12:54:05.036Z</time></trkpt><trkpt lat="41.7967477" lon="3.5407828"><ele>0.0</ele><time>2026-04-30T12:54:06.037Z</time></trkpt><trkpt lat="41.7967846" lon="3.5408768"><ele>0.0</ele><time>2026-04-30T12:54:07.037Z</time></trkpt><trkpt lat="41.7968251" lon="3.5409772"><ele>0.0</ele><time>2026-04-30T12:54:08.037Z</time></trkpt><trkpt lat="41.7968673" lon="3.5410777"><ele>0.0</ele><time>2026-04-30T12:54:09.037Z</time></trkpt><trkpt lat="41.7969102" lon="3.5411761"><ele>0.0</ele><time>2026-04-30T12:54:10.037Z</time></trkpt><trkpt lat="41.7969468" lon="3.5412777"><ele>0.0</ele><time>2026-04-30T12:54:11.036Z</time></trkpt><trkpt lat="41.7969895" lon="3.541379"><ele>0.0</ele><time>2026-04-30T12:54:12.037Z</time></trkpt><trkpt lat="41.7970311" lon="3.5414843"><ele>0.0</ele><time>2026-04-30T12:54:13.037Z</time></trkpt><trkpt lat="41.797111" lon="3.5416937"><ele>0.0</ele><time>2026-04-30T12:54:15.036Z</time></trkpt><trkpt lat="41.7971547" lon="3.5418009"><ele>0.0</ele><time>2026-04-30T12:54:16.036Z</time></trkpt><trkpt lat="41.797188" lon="3.5419046"><ele>0.0</ele><time>2026-04-30T12:54:17.037Z</time></trkpt><trkpt lat="41.7972209" lon="3.5420183"><ele>0.0</ele><time>2026-04-30T12:54:18.036Z</time></trkpt><trkpt lat="41.7972599" lon="3.5421233"><ele>0.0</ele><time>2026-04-30T12:54:19.036Z</time></trkpt><trkpt lat="41.7972982" lon="3.5422282"><ele>0.0</ele><time>2026-04-30T12:54:20.036Z</time></trkpt><trkpt lat="41.7973332" lon="3.5423345"><ele>0.0</ele><time>2026-04-30T12:54:21.037Z</time></trkpt><trkpt lat="41.7973726" lon="3.5424353"><ele>0.0</ele><time>2026-04-30T12:54:22.037Z</time></trkpt><trkpt lat="41.7974085" lon="3.5425397"><ele>0.0</ele><time>2026-04-30T12:54:23.036Z</time></trkpt><trkpt lat="41.7974379" lon="3.5426533"><ele>0.0</ele><time>2026-04-30T12:54:24.037Z</time></trkpt><trkpt lat="41.7974707" lon="3.5427632"><ele>0.0</ele><time>2026-04-30T12:54:25.036Z</time></trkpt><trkpt lat="41.7975081" lon="3.5428717"><ele>0.0</ele><time>2026-04-30T12:54:26.037Z</time></trkpt><trkpt lat="41.7975605" lon="3.5429587"><ele>0.0</ele><time>2026-04-30T12:54:27.037Z</time></trkpt><trkpt lat="41.7976054" lon="3.5430536"><ele>0.0</ele><time>2026-04-30T12:54:28.037Z</time></trkpt><trkpt lat="41.7976411" lon="3.5431642"><ele>0.0</ele><time>2026-04-30T12:54:29.036Z</time></trkpt><trkpt lat="41.7976794" lon="3.5432685"><ele>0.0</ele><time>2026-04-30T12:54:30.037Z</time></trkpt><trkpt lat="41.7977183" lon="3.5433658"><ele>0.0</ele><time>2026-04-30T12:54:31.036Z</time></trkpt><trkpt lat="41.7977583" lon="3.5434682"><ele>0.0</ele><time>2026-04-30T12:54:32.037Z</time></trkpt><trkpt lat="41.797801" lon="3.5435701"><ele>0.0</ele><time>2026-04-30T12:54:33.036Z</time></trkpt><trkpt lat="41.7978392" lon="3.5436722"><ele>0.0</ele><time>2026-04-30T12:54:34.036Z</time></trkpt><trkpt lat="41.7979041" lon="3.5438711"><ele>0.0</ele><time>2026-04-30T12:54:36.037Z</time></trkpt><trkpt lat="41.7979401" lon="3.5439795"><ele>0.0</ele><time>2026-04-30T12:54:37.036Z</time></trkpt><trkpt lat="41.7979774" lon="3.5440804"><ele>0.0</ele><time>2026-04-30T12:54:38.036Z</time></trkpt><trkpt lat="41.798014" lon="3.5441861"><ele>0.0</ele><time>2026-04-30T12:54:39.036Z</time></trkpt><trkpt lat="41.7980476" lon="3.5442919"><ele>0.0</ele><time>2026-04-30T12:54:40.036Z</time></trkpt><trkpt lat="41.7980802" lon="3.5443997"><ele>0.0</ele><time>2026-04-30T12:54:41.037Z</time></trkpt><trkpt lat="41.7981181" lon="3.5445121"><ele>0.0</ele><time>2026-04-30T12:54:42.036Z</time></trkpt><trkpt lat="41.7981561" lon="3.544621"><ele>0.0</ele><time>2026-04-30T12:54:43.036Z</time></trkpt><trkpt lat="41.7981931" lon="3.5447193"><ele>0.0</ele><time>2026-04-30T12:54:44.036Z</time></trkpt><trkpt lat="41.7982254" lon="3.5448248"><ele>0.0</ele><time>2026-04-30T12:54:45.037Z</time></trkpt><trkpt lat="41.7982528" lon="3.5449315"><ele>0.0</ele><time>2026-04-30T12:54:46.037Z</time></trkpt><trkpt lat="41.7982855" lon="3.5450328"><ele>0.0</ele><time>2026-04-30T12:54:47.037Z</time></trkpt><trkpt lat="41.7983211" lon="3.5451356"><ele>0.0</ele><time>2026-04-30T12:54:48.037Z</time></trkpt><trkpt lat="41.7983593" lon="3.545239"><ele>0.0</ele><time>2026-04-30T12:54:49.037Z</time></trkpt><trkpt lat="41.7983981" lon="3.5453446"><ele>0.0</ele><time>2026-04-30T12:54:50.036Z</time></trkpt><trkpt lat="41.7984368" lon="3.5454489"><ele>0.0</ele><time>2026-04-30T12:54:51.036Z</time></trkpt><trkpt lat="41.7984733" lon="3.5455576"><ele>0.0</ele><time>2026-04-30T12:54:52.037Z</time></trkpt><trkpt lat="41.7985084" lon="3.5456677"><ele>0.0</ele><time>2026-04-30T12:54:53.036Z</time></trkpt><trkpt lat="41.7985492" lon="3.5457761"><ele>0.0</ele><time>2026-04-30T12:54:54.036Z</time></trkpt><trkpt lat="41.7985893" lon="3.5458787"><ele>0.0</ele><time>2026-04-30T12:54:55.036Z</time></trkpt><trkpt lat="41.7986746" lon="3.546083"><ele>0.0</ele><time>2026-04-30T12:54:57.037Z</time></trkpt><trkpt lat="41.79872" lon="3.546181"><ele>0.0</ele><time>2026-04-30T12:54:58.037Z</time></trkpt><trkpt lat="41.7987627" lon="3.5462887"><ele>0.0</ele><time>2026-04-30T12:54:59.036Z</time></trkpt><trkpt lat="41.7988" lon="3.5464021"><ele>0.0</ele><time>2026-04-30T12:55:00.037Z</time></trkpt><trkpt lat="41.7988377" lon="3.5465114"><ele>0.0</ele><time>2026-04-30T12:55:01.036Z</time></trkpt><trkpt lat="41.7988788" lon="3.5466186"><ele>0.0</ele><time>2026-04-30T12:55:02.037Z</time></trkpt><trkpt lat="41.7989278" lon="3.5467208"><ele>0.0</ele><time>2026-04-30T12:55:03.037Z</time></trkpt><trkpt lat="41.7989828" lon="3.5468096"><ele>0.0</ele><time>2026-04-30T12:55:04.037Z</time></trkpt><trkpt lat="41.7990161" lon="3.5469174"><ele>0.0</ele><time>2026-04-30T12:55:05.037Z</time></trkpt><trkpt lat="41.7990462" lon="3.5470316"><ele>0.0</ele><time>2026-04-30T12:55:06.037Z</time></trkpt><trkpt lat="41.7990804" lon="3.5471386"><ele>0.0</ele><time>2026-04-30T12:55:07.036Z</time></trkpt><trkpt lat="41.7991125" lon="3.5472435"><ele>0.0</ele><time>2026-04-30T12:55:08.037Z</time></trkpt><trkpt lat="41.7991453" lon="3.5473495"><ele>0.0</ele><time>2026-04-30T12:55:09.036Z</time></trkpt><trkpt lat="41.7991801" lon="3.5474518"><ele>0.0</ele><time>2026-04-30T12:55:10.037Z</time></trkpt><trkpt lat="41.799212" lon="3.5475552"><ele>0.0</ele><time>2026-04-30T12:55:11.037Z</time></trkpt><trkpt lat="41.7992456" lon="3.5476574"><ele>0.0</ele><time>2026-04-30T12:55:12.037Z</time></trkpt><trkpt lat="41.7992762" lon="3.5477649"><ele>0.0</ele><time>2026-04-30T12:55:13.037Z</time></trkpt><trkpt lat="41.7993019" lon="3.5478732"><ele>0.0</ele><time>2026-04-30T12:55:14.036Z</time></trkpt><trkpt lat="41.7993364" lon="3.5479704"><ele>0.0</ele><time>2026-04-30T12:55:15.036Z</time></trkpt><trkpt lat="41.7993645" lon="3.5480749"><ele>0.0</ele><time>2026-04-30T12:55:16.036Z</time></trkpt><trkpt lat="41.7994497" lon="3.5482831"><ele>0.0</ele><time>2026-04-30T12:55:18.037Z</time></trkpt><trkpt lat="41.799491" lon="3.5483873"><ele>0.0</ele><time>2026-04-30T12:55:19.037Z</time></trkpt><trkpt lat="41.7995282" lon="3.5484945"><ele>0.0</ele><time>2026-04-30T12:55:20.037Z</time></trkpt><trkpt lat="41.7995661" lon="3.5486039"><ele>0.0</ele><time>2026-04-30T12:55:21.036Z</time></trkpt><trkpt lat="41.7996029" lon="3.548707"><ele>0.0</ele><time>2026-04-30T12:55:22.036Z</time></trkpt><trkpt lat="41.7996443" lon="3.5488087"><ele>0.0</ele><time>2026-04-30T12:55:23.036Z</time></trkpt><trkpt lat="41.7996831" lon="3.5489104"><ele>0.0</ele><time>2026-04-30T12:55:24.037Z</time></trkpt><trkpt lat="41.7997218" lon="3.5490035"><ele>0.0</ele><time>2026-04-30T12:55:25.036Z</time></trkpt><trkpt lat="41.7997599" lon="3.5491053"><ele>0.0</ele><time>2026-04-30T12:55:26.036Z</time></trkpt><trkpt lat="41.7998053" lon="3.5492085"><ele>0.0</ele><time>2026-04-30T12:55:27.036Z</time></trkpt><trkpt lat="41.7998466" lon="3.5493103"><ele>0.0</ele><time>2026-04-30T12:55:28.035Z</time></trkpt><trkpt lat="41.7998835" lon="3.549403"><ele>0.0</ele><time>2026-04-30T12:55:29.036Z</time></trkpt><trkpt lat="41.7999188" lon="3.5495062"><ele>0.0</ele><time>2026-04-30T12:55:30.036Z</time></trkpt><trkpt lat="41.7999628" lon="3.5496039"><ele>0.0</ele><time>2026-04-30T12:55:31.036Z</time></trkpt><trkpt lat="41.7999957" lon="3.549712"><ele>0.0</ele><time>2026-04-30T12:55:32.035Z</time></trkpt><trkpt lat="41.8000277" lon="3.5498207"><ele>0.0</ele><time>2026-04-30T12:55:33.036Z</time></trkpt><trkpt lat="41.8000707" lon="3.5499206"><ele>0.0</ele><time>2026-04-30T12:55:34.036Z</time></trkpt><trkpt lat="41.8001043" lon="3.5500247"><ele>0.0</ele><time>2026-04-30T12:55:35.035Z</time></trkpt><trkpt lat="41.8001347" lon="3.5501334"><ele>0.0</ele><time>2026-04-30T12:55:36.035Z</time></trkpt><trkpt lat="41.8001733" lon="3.5502365"><ele>0.0</ele><time>2026-04-30T12:55:37.035Z</time></trkpt><trkpt lat="41.8002103" lon="3.5503497"><ele>0.0</ele><time>2026-04-30T12:55:38.035Z</time></trkpt><trkpt lat="41.8003008" lon="3.5506759"><ele>0.0</ele><time>2026-04-30T12:55:41.035Z</time></trkpt><trkpt lat="41.8003235" lon="3.5507869"><ele>0.0</ele><time>2026-04-30T12:55:42.036Z</time></trkpt><trkpt lat="41.8003512" lon="3.5508998"><ele>0.0</ele><time>2026-04-30T12:55:43.035Z</time></trkpt><trkpt lat="41.8003821" lon="3.5510098"><ele>0.0</ele><time>2026-04-30T12:55:44.036Z</time></trkpt><trkpt lat="41.8004036" lon="3.5511227"><ele>0.0</ele><time>2026-04-30T12:55:45.036Z</time></trkpt><trkpt lat="41.8004336" lon="3.5512346"><ele>0.0</ele><time>2026-04-30T12:55:46.035Z</time></trkpt><trkpt lat="41.8004713" lon="3.5513376"><ele>0.0</ele><time>2026-04-30T12:55:47.036Z</time></trkpt><trkpt lat="41.8005166" lon="3.5514366"><ele>0.0</ele><time>2026-04-30T12:55:48.035Z</time></trkpt><trkpt lat="41.8005651" lon="3.5515353"><ele>0.0</ele><time>2026-04-30T12:55:49.035Z</time></trkpt><trkpt lat="41.8006118" lon="3.5516303"><ele>0.0</ele><time>2026-04-30T12:55:50.036Z</time></trkpt><trkpt lat="41.8006587" lon="3.5517265"><ele>0.0</ele><time>2026-04-30T12:55:51.036Z</time></trkpt><trkpt lat="41.8006958" lon="3.5518311"><ele>0.0</ele><time>2026-04-30T12:55:52.036Z</time></trkpt><trkpt lat="41.8007307" lon="3.5519395"><ele>0.0</ele><time>2026-04-30T12:55:53.036Z</time></trkpt><trkpt lat="41.8007715" lon="3.5520449"><ele>0.0</ele><time>2026-04-30T12:55:54.035Z</time></trkpt><trkpt lat="41.8008112" lon="3.5521474"><ele>0.0</ele><time>2026-04-30T12:55:55.036Z</time></trkpt><trkpt lat="41.8008556" lon="3.5522446"><ele>0.0</ele><time>2026-04-30T12:55:56.036Z</time></trkpt><trkpt lat="41.8008955" lon="3.552344"><ele>0.0</ele><time>2026-04-30T12:55:57.035Z</time></trkpt><trkpt lat="41.8009348" lon="3.552447"><ele>0.0</ele><time>2026-04-30T12:55:58.035Z</time></trkpt><trkpt lat="41.8009762" lon="3.5525477"><ele>0.0</ele><time>2026-04-30T12:55:59.035Z</time></trkpt><trkpt lat="41.801015" lon="3.5526472"><ele>0.0</ele><time>2026-04-30T12:56:00.035Z</time></trkpt><trkpt lat="41.8010904" lon="3.5528484"><ele>0.0</ele><time>2026-04-30T12:56:02.035Z</time></trkpt><trkpt lat="41.8011268" lon="3.5529501"><ele>0.0</ele><time>2026-04-30T12:56:03.036Z</time></trkpt><trkpt lat="41.8011603" lon="3.5530439"><ele>0.0</ele><time>2026-04-30T12:56:04.035Z</time></trkpt><trkpt lat="41.801204" lon="3.5531499"><ele>0.0</ele><time>2026-04-30T12:56:05.036Z</time></trkpt><trkpt lat="41.8012422" lon="3.553261"><ele>0.0</ele><time>2026-04-30T12:56:06.035Z</time></trkpt><trkpt lat="41.8012836" lon="3.5533623"><ele>0.0</ele><time>2026-04-30T12:56:07.036Z</time></trkpt><trkpt lat="41.8013233" lon="3.5534688"><ele>0.0</ele><time>2026-04-30T12:56:08.036Z</time></trkpt><trkpt lat="41.8013599" lon="3.553573"><ele>0.0</ele><time>2026-04-30T12:56:09.036Z</time></trkpt><trkpt lat="41.8013984" lon="3.5536752"><ele>0.0</ele><time>2026-04-30T12:56:10.035Z</time></trkpt><trkpt lat="41.8014352" lon="3.5537827"><ele>0.0</ele><time>2026-04-30T12:56:11.035Z</time></trkpt><trkpt lat="41.801474" lon="3.5538914"><ele>0.0</ele><time>2026-04-30T12:56:12.036Z</time></trkpt><trkpt lat="41.8015136" lon="3.5539993"><ele>0.0</ele><time>2026-04-30T12:56:13.035Z</time></trkpt><trkpt lat="41.8015567" lon="3.5540964"><ele>0.0</ele><time>2026-04-30T12:56:14.036Z</time></trkpt><trkpt lat="41.8015878" lon="3.5541949"><ele>0.0</ele><time>2026-04-30T12:56:15.036Z</time></trkpt><trkpt lat="41.8016259" lon="3.5542917"><ele>0.0</ele><time>2026-04-30T12:56:16.036Z</time></trkpt><trkpt lat="41.8016627" lon="3.5543897"><ele>0.0</ele><time>2026-04-30T12:56:17.036Z</time></trkpt><trkpt lat="41.8017053" lon="3.5544893"><ele>0.0</ele><time>2026-04-30T12:56:18.035Z</time></trkpt><trkpt lat="41.8017448" lon="3.5545949"><ele>0.0</ele><time>2026-04-30T12:56:19.036Z</time></trkpt><trkpt lat="41.8017807" lon="3.5547042"><ele>0.0</ele><time>2026-04-30T12:56:20.035Z</time></trkpt><trkpt lat="41.8018142" lon="3.5548155"><ele>0.0</ele><time>2026-04-30T12:56:21.036Z</time></trkpt><trkpt lat="41.8018835" lon="3.5550377"><ele>0.0</ele><time>2026-04-30T12:56:23.036Z</time></trkpt><trkpt lat="41.8019197" lon="3.5551474"><ele>0.0</ele><time>2026-04-30T12:56:24.035Z</time></trkpt><trkpt lat="41.8019549" lon="3.5552571"><ele>0.0</ele><time>2026-04-30T12:56:25.035Z</time></trkpt><trkpt lat="41.8019849" lon="3.5553706"><ele>0.0</ele><time>2026-04-30T12:56:26.036Z</time></trkpt><trkpt lat="41.8020186" lon="3.555481"><ele>0.0</ele><time>2026-04-30T12:56:27.035Z</time></trkpt><trkpt lat="41.802057" lon="3.555588"><ele>0.0</ele><time>2026-04-30T12:56:28.036Z</time></trkpt><trkpt lat="41.8020951" lon="3.5556934"><ele>0.0</ele><time>2026-04-30T12:56:29.035Z</time></trkpt><trkpt lat="41.8021349" lon="3.5557996"><ele>0.0</ele><time>2026-04-30T12:56:30.036Z</time></trkpt><trkpt lat="41.8021734" lon="3.5559052"><ele>0.0</ele><time>2026-04-30T12:56:31.036Z</time></trkpt><trkpt lat="41.8022149" lon="3.5560098"><ele>0.0</ele><time>2026-04-30T12:56:32.036Z</time></trkpt><trkpt lat="41.8022574" lon="3.556112"><ele>0.0</ele><time>2026-04-30T12:56:33.035Z</time></trkpt><trkpt lat="41.8022938" lon="3.5562135"><ele>0.0</ele><time>2026-04-30T12:56:34.035Z</time></trkpt><trkpt lat="41.8023334" lon="3.5563165"><ele>0.0</ele><time>2026-04-30T12:56:35.036Z</time></trkpt><trkpt lat="41.8023721" lon="3.5564157"><ele>0.0</ele><time>2026-04-30T12:56:36.036Z</time></trkpt><trkpt lat="41.8024103" lon="3.5565137"><ele>0.0</ele><time>2026-04-30T12:56:37.036Z</time></trkpt><trkpt lat="41.802444" lon="3.556618"><ele>0.0</ele><time>2026-04-30T12:56:38.036Z</time></trkpt><trkpt lat="41.8024803" lon="3.5567247"><ele>0.0</ele><time>2026-04-30T12:56:39.036Z</time></trkpt><trkpt lat="41.802517" lon="3.5568314"><ele>0.0</ele><time>2026-04-30T12:56:40.035Z</time></trkpt><trkpt lat="41.8025539" lon="3.5569353"><ele>0.0</ele><time>2026-04-30T12:56:41.035Z</time></trkpt><trkpt lat="41.8025903" lon="3.5570372"><ele>0.0</ele><time>2026-04-30T12:56:42.036Z</time></trkpt><trkpt lat="41.8026267" lon="3.5571388"><ele>0.0</ele><time>2026-04-30T12:56:43.035Z</time></trkpt><trkpt lat="41.8027099" lon="3.5573346"><ele>0.0</ele><time>2026-04-30T12:56:45.035Z</time></trkpt><trkpt lat="41.8027482" lon="3.5574313"><ele>0.0</ele><time>2026-04-30T12:56:46.036Z</time></trkpt><trkpt lat="41.8027898" lon="3.5575348"><ele>0.0</ele><time>2026-04-30T12:56:47.036Z</time></trkpt><trkpt lat="41.8028259" lon="3.5576446"><ele>0.0</ele><time>2026-04-30T12:56:48.035Z</time></trkpt><trkpt lat="41.8028637" lon="3.5577515"><ele>0.0</ele><time>2026-04-30T12:56:49.036Z</time></trkpt><trkpt lat="41.8029033" lon="3.5578551"><ele>0.0</ele><time>2026-04-30T12:56:50.035Z</time></trkpt><trkpt lat="41.8029416" lon="3.5579535"><ele>0.0</ele><time>2026-04-30T12:56:51.035Z</time></trkpt><trkpt lat="41.802987" lon="3.5580486"><ele>0.0</ele><time>2026-04-30T12:56:52.035Z</time></trkpt><trkpt lat="41.8030315" lon="3.5581472"><ele>0.0</ele><time>2026-04-30T12:56:53.035Z</time></trkpt><trkpt lat="41.8030676" lon="3.5582571"><ele>0.0</ele><time>2026-04-30T12:56:54.035Z</time></trkpt><trkpt lat="41.8031076" lon="3.558356"><ele>0.0</ele><time>2026-04-30T12:56:55.035Z</time></trkpt><trkpt lat="41.8031465" lon="3.55846"><ele>0.0</ele><time>2026-04-30T12:56:56.035Z</time></trkpt><trkpt lat="41.803182" lon="3.5585651"><ele>0.0</ele><time>2026-04-30T12:56:57.035Z</time></trkpt><trkpt lat="41.8032154" lon="3.5586724"><ele>0.0</ele><time>2026-04-30T12:56:58.036Z</time></trkpt><trkpt lat="41.8032479" lon="3.5587822"><ele>0.0</ele><time>2026-04-30T12:56:59.035Z</time></trkpt><trkpt lat="41.8032815" lon="3.5588924"><ele>0.0</ele><time>2026-04-30T12:57:00.035Z</time></trkpt><trkpt lat="41.8033205" lon="3.5589926"><ele>0.0</ele><time>2026-04-30T12:57:01.035Z</time></trkpt><trkpt lat="41.8033588" lon="3.559098"><ele>0.0</ele><time>2026-04-30T12:57:02.035Z</time></trkpt><trkpt lat="41.8033941" lon="3.5591976"><ele>0.0</ele><time>2026-04-30T12:57:03.035Z</time></trkpt><trkpt lat="41.80347" lon="3.5593958"><ele>0.0</ele><time>2026-04-30T12:57:05.035Z</time></trkpt><trkpt lat="41.8035041" lon="3.559494"><ele>0.0</ele><time>2026-04-30T12:57:06.036Z</time></trkpt><trkpt lat="41.8035371" lon="3.559605"><ele>0.0</ele><time>2026-04-30T12:57:07.036Z</time></trkpt><trkpt lat="41.8035747" lon="3.5597197"><ele>0.0</ele><time>2026-04-30T12:57:08.036Z</time></trkpt><trkpt lat="41.8036125" lon="3.5598309"><ele>0.0</ele><time>2026-04-30T12:57:09.035Z</time></trkpt><trkpt lat="41.8036472" lon="3.5599347"><ele>0.0</ele><time>2026-04-30T12:57:10.035Z</time></trkpt><trkpt lat="41.8036846" lon="3.5600409"><ele>0.0</ele><time>2026-04-30T12:57:11.035Z</time></trkpt><trkpt lat="41.803722" lon="3.5601463"><ele>0.0</ele><time>2026-04-30T12:57:12.036Z</time></trkpt><trkpt lat="41.8037587" lon="3.5602547"><ele>0.0</ele><time>2026-04-30T12:57:13.036Z</time></trkpt><trkpt lat="41.8037996" lon="3.5603602"><ele>0.0</ele><time>2026-04-30T12:57:14.035Z</time></trkpt><trkpt lat="41.8038675" lon="3.560575"><ele>0.0</ele><time>2026-04-30T12:57:16.035Z</time></trkpt><trkpt lat="41.8039067" lon="3.5606841"><ele>0.0</ele><time>2026-04-30T12:57:17.036Z</time></trkpt><trkpt lat="41.8039394" lon="3.5607929"><ele>0.0</ele><time>2026-04-30T12:57:18.035Z</time></trkpt><trkpt lat="41.8039736" lon="3.5609058"><ele>0.0</ele><time>2026-04-30T12:57:19.036Z</time></trkpt><trkpt lat="41.804007" lon="3.5610122"><ele>0.0</ele><time>2026-04-30T12:57:20.036Z</time></trkpt><trkpt lat="41.8040432" lon="3.5611172"><ele>0.0</ele><time>2026-04-30T12:57:21.036Z</time></trkpt><trkpt lat="41.80408" lon="3.5612191"><ele>0.0</ele><time>2026-04-30T12:57:22.036Z</time></trkpt><trkpt lat="41.8041134" lon="3.5613277"><ele>0.0</ele><time>2026-04-30T12:57:23.035Z</time></trkpt><trkpt lat="41.8041518" lon="3.561435"><ele>0.0</ele><time>2026-04-30T12:57:24.035Z</time></trkpt><trkpt lat="41.8042257" lon="3.5616388"><ele>0.0</ele><time>2026-04-30T12:57:26.036Z</time></trkpt><trkpt lat="41.8042598" lon="3.561742"><ele>0.0</ele><time>2026-04-30T12:57:27.036Z</time></trkpt><trkpt lat="41.8042933" lon="3.5618498"><ele>0.0</ele><time>2026-04-30T12:57:28.035Z</time></trkpt><trkpt lat="41.8043228" lon="3.5619624"><ele>0.0</ele><time>2026-04-30T12:57:29.035Z</time></trkpt><trkpt lat="41.8043612" lon="3.5620686"><ele>0.0</ele><time>2026-04-30T12:57:30.036Z</time></trkpt><trkpt lat="41.8043978" lon="3.5621737"><ele>0.0</ele><time>2026-04-30T12:57:31.035Z</time></trkpt><trkpt lat="41.8044384" lon="3.5622772"><ele>0.0</ele><time>2026-04-30T12:57:32.036Z</time></trkpt><trkpt lat="41.8044749" lon="3.5623836"><ele>0.0</ele><time>2026-04-30T12:57:33.036Z</time></trkpt><trkpt lat="41.8045081" lon="3.5624871"><ele>0.0</ele><time>2026-04-30T12:57:34.036Z</time></trkpt><trkpt lat="41.8045492" lon="3.5625904"><ele>0.0</ele><time>2026-04-30T12:57:35.036Z</time></trkpt><trkpt lat="41.8045901" lon="3.562695"><ele>0.0</ele><time>2026-04-30T12:57:36.036Z</time></trkpt><trkpt lat="41.80463" lon="3.5627873"><ele>0.0</ele><time>2026-04-30T12:57:37.036Z</time></trkpt><trkpt lat="41.8046683" lon="3.5628855"><ele>0.0</ele><time>2026-04-30T12:57:38.035Z</time></trkpt><trkpt lat="41.8047093" lon="3.5629881"><ele>0.0</ele><time>2026-04-30T12:57:39.035Z</time></trkpt><trkpt lat="41.8047539" lon="3.5630879"><ele>0.0</ele><time>2026-04-30T12:57:40.035Z</time></trkpt><trkpt lat="41.8047947" lon="3.5631818"><ele>0.0</ele><time>2026-04-30T12:57:41.035Z</time></trkpt><trkpt lat="41.8048381" lon="3.5632751"><ele>0.0</ele><time>2026-04-30T12:57:42.035Z</time></trkpt><trkpt lat="41.8048756" lon="3.563377"><ele>0.0</ele><time>2026-04-30T12:57:43.036Z</time></trkpt><trkpt lat="41.8049165" lon="3.563476"><ele>0.0</ele><time>2026-04-30T12:57:44.035Z</time></trkpt><trkpt lat="41.8049579" lon="3.5635771"><ele>0.0</ele><time>2026-04-30T12:57:45.036Z</time></trkpt><trkpt lat="41.8050059" lon="3.5636771"><ele>0.0</ele><time>2026-04-30T12:57:46.035Z</time></trkpt><trkpt lat="41.805135" lon="3.5639884"><ele>0.0</ele><time>2026-04-30T12:57:49.035Z</time></trkpt><trkpt lat="41.8051717" lon="3.564092"><ele>0.0</ele><time>2026-04-30T12:57:50.036Z</time></trkpt><trkpt lat="41.8052087" lon="3.5641979"><ele>0.0</ele><time>2026-04-30T12:57:51.035Z</time></trkpt><trkpt lat="41.8052437" lon="3.5643049"><ele>0.0</ele><time>2026-04-30T12:57:52.036Z</time></trkpt><trkpt lat="41.8052803" lon="3.56441"><ele>0.0</ele><time>2026-04-30T12:57:53.036Z</time></trkpt><trkpt lat="41.8053181" lon="3.5645166"><ele>0.0</ele><time>2026-04-30T12:57:54.036Z</time></trkpt><trkpt lat="41.8053566" lon="3.5646236"><ele>0.0</ele><time>2026-04-30T12:57:55.035Z</time></trkpt><trkpt lat="41.8053966" lon="3.5647275"><ele>0.0</ele><time>2026-04-30T12:57:56.035Z</time></trkpt><trkpt lat="41.805428" lon="3.5648376"><ele>0.0</ele><time>2026-04-30T12:57:57.035Z</time></trkpt><trkpt lat="41.8054581" lon="3.564946"><ele>0.0</ele><time>2026-04-30T12:57:58.035Z</time></trkpt><trkpt lat="41.8054883" lon="3.5650498"><ele>0.0</ele><time>2026-04-30T12:57:59.036Z</time></trkpt><trkpt lat="41.8055235" lon="3.5651548"><ele>0.0</ele><time>2026-04-30T12:58:00.036Z</time></trkpt><trkpt lat="41.8055559" lon="3.5652625"><ele>0.0</ele><time>2026-04-30T12:58:01.035Z</time></trkpt><trkpt lat="41.8055846" lon="3.5653706"><ele>0.0</ele><time>2026-04-30T12:58:02.036Z</time></trkpt><trkpt lat="41.8056216" lon="3.5654766"><ele>0.0</ele><time>2026-04-30T12:58:03.035Z</time></trkpt><trkpt lat="41.8056605" lon="3.5655788"><ele>0.0</ele><time>2026-04-30T12:58:04.035Z</time></trkpt><trkpt lat="41.8057002" lon="3.5656817"><ele>0.0</ele><time>2026-04-30T12:58:05.035Z</time></trkpt><trkpt lat="41.8057316" lon="3.5657814"><ele>0.0</ele><time>2026-04-30T12:58:06.036Z</time></trkpt><trkpt lat="41.8057671" lon="3.5658849"><ele>0.0</ele><time>2026-04-30T12:58:07.036Z</time></trkpt><trkpt lat="41.8058052" lon="3.5659854"><ele>0.0</ele><time>2026-04-30T12:58:08.036Z</time></trkpt><trkpt lat="41.8058837" lon="3.5661995"><ele>0.0</ele><time>2026-04-30T12:58:10.036Z</time></trkpt><trkpt lat="41.8059204" lon="3.5663079"><ele>0.0</ele><time>2026-04-30T12:58:11.035Z</time></trkpt><trkpt lat="41.8059556" lon="3.5664134"><ele>0.0</ele><time>2026-04-30T12:58:12.036Z</time></trkpt><trkpt lat="41.8059934" lon="3.5665169"><ele>0.0</ele><time>2026-04-30T12:58:13.035Z</time></trkpt><trkpt lat="41.806032" lon="3.5666218"><ele>0.0</ele><time>2026-04-30T12:58:14.035Z</time></trkpt><trkpt lat="41.8060714" lon="3.5667252"><ele>0.0</ele><time>2026-04-30T12:58:15.035Z</time></trkpt><trkpt lat="41.8061129" lon="3.566827"><ele>0.0</ele><time>2026-04-30T12:58:16.035Z</time></trkpt><trkpt lat="41.8061578" lon="3.5669285"><ele>0.0</ele><time>2026-04-30T12:58:17.035Z</time></trkpt><trkpt lat="41.8061967" lon="3.5670316"><ele>0.0</ele><time>2026-04-30T12:58:18.035Z</time></trkpt><trkpt lat="41.8062832" lon="3.5672342"><ele>0.0</ele><time>2026-04-30T12:58:20.036Z</time></trkpt><trkpt lat="41.8063175" lon="3.5673325"><ele>0.0</ele><time>2026-04-30T12:58:21.035Z</time></trkpt><trkpt lat="41.8063475" lon="3.5674408"><ele>0.0</ele><time>2026-04-30T12:58:22.035Z</time></trkpt><trkpt lat="41.8063863" lon="3.5675465"><ele>0.0</ele><time>2026-04-30T12:58:23.036Z</time></trkpt><trkpt lat="41.8064316" lon="3.5676474"><ele>0.0</ele><time>2026-04-30T12:58:24.035Z</time></trkpt><trkpt lat="41.8064716" lon="3.5677502"><ele>0.0</ele><time>2026-04-30T12:58:25.036Z</time></trkpt><trkpt lat="41.8065126" lon="3.5678496"><ele>0.0</ele><time>2026-04-30T12:58:26.035Z</time></trkpt><trkpt lat="41.8065541" lon="3.5679506"><ele>0.0</ele><time>2026-04-30T12:58:27.036Z</time></trkpt><trkpt lat="41.8065963" lon="3.5680495"><ele>0.0</ele><time>2026-04-30T12:58:28.035Z</time></trkpt><trkpt lat="41.8066309" lon="3.5681561"><ele>0.0</ele><time>2026-04-30T12:58:29.035Z</time></trkpt><trkpt lat="41.8067081" lon="3.5683671"><ele>0.0</ele><time>2026-04-30T12:58:31.035Z</time></trkpt><trkpt lat="41.8067536" lon="3.5684673"><ele>0.0</ele><time>2026-04-30T12:58:32.036Z</time></trkpt><trkpt lat="41.8067923" lon="3.5685733"><ele>0.0</ele><time>2026-04-30T12:58:33.036Z</time></trkpt><trkpt lat="41.8068315" lon="3.5686812"><ele>0.0</ele><time>2026-04-30T12:58:34.035Z</time></trkpt><trkpt lat="41.8068687" lon="3.5687809"><ele>0.0</ele><time>2026-04-30T12:58:35.035Z</time></trkpt><trkpt lat="41.8068982" lon="3.5688877"><ele>0.0</ele><time>2026-04-30T12:58:36.036Z</time></trkpt><trkpt lat="41.8069364" lon="3.5689861"><ele>0.0</ele><time>2026-04-30T12:58:37.035Z</time></trkpt><trkpt lat="41.8069749" lon="3.5690896"><ele>0.0</ele><time>2026-04-30T12:58:38.036Z</time></trkpt><trkpt lat="41.8070107" lon="3.5691949"><ele>0.0</ele><time>2026-04-30T12:58:39.035Z</time></trkpt><trkpt lat="41.8070516" lon="3.5692973"><ele>0.0</ele><time>2026-04-30T12:58:40.035Z</time></trkpt><trkpt lat="41.8070887" lon="3.5694085"><ele>0.0</ele><time>2026-04-30T12:58:41.035Z</time></trkpt><trkpt lat="41.8071311" lon="3.5695146"><ele>0.0</ele><time>2026-04-30T12:58:42.036Z</time></trkpt><trkpt lat="41.8071727" lon="3.5696194"><ele>0.0</ele><time>2026-04-30T12:58:43.036Z</time></trkpt><trkpt lat="41.8072075" lon="3.5697218"><ele>0.0</ele><time>2026-04-30T12:58:44.035Z</time></trkpt><trkpt lat="41.8072382" lon="3.5698269"><ele>0.0</ele><time>2026-04-30T12:58:45.035Z</time></trkpt><trkpt lat="41.8072737" lon="3.5699343"><ele>0.0</ele><time>2026-04-30T12:58:46.035Z</time></trkpt><trkpt lat="41.8073065" lon="3.5700411"><ele>0.0</ele><time>2026-04-30T12:58:47.035Z</time></trkpt><trkpt lat="41.8073423" lon="3.5701504"><ele>0.0</ele><time>2026-04-30T12:58:48.036Z</time></trkpt><trkpt lat="41.8073762" lon="3.5702588"><ele>0.0</ele><time>2026-04-30T12:58:49.036Z</time></trkpt><trkpt lat="41.8074161" lon="3.5703675"><ele>0.0</ele><time>2026-04-30T12:58:50.036Z</time></trkpt><trkpt lat="41.8075681" lon="3.5706477"><ele>0.0</ele><time>2026-04-30T12:58:53.035Z</time></trkpt><trkpt lat="41.8076113" lon="3.5707452"><ele>0.0</ele><time>2026-04-30T12:58:54.036Z</time></trkpt><trkpt lat="41.8076558" lon="3.5708408"><ele>0.0</ele><time>2026-04-30T12:58:55.035Z</time></trkpt><trkpt lat="41.8076993" lon="3.5709402"><ele>0.0</ele><time>2026-04-30T12:58:56.035Z</time></trkpt><trkpt lat="41.8077372" lon="3.5710481"><ele>0.0</ele><time>2026-04-30T12:58:57.035Z</time></trkpt><trkpt lat="41.8077779" lon="3.5711535"><ele>0.0</ele><time>2026-04-30T12:58:58.035Z</time></trkpt><trkpt lat="41.8078214" lon="3.5712605"><ele>0.0</ele><time>2026-04-30T12:58:59.035Z</time></trkpt><trkpt lat="41.8078628" lon="3.5713646"><ele>0.0</ele><time>2026-04-30T12:59:00.035Z</time></trkpt><trkpt lat="41.807902" lon="3.5714611"><ele>0.0</ele><time>2026-04-30T12:59:01.035Z</time></trkpt><trkpt lat="41.8079449" lon="3.5715718"><ele>0.0</ele><time>2026-04-30T12:59:02.036Z</time></trkpt><trkpt lat="41.8079922" lon="3.5716738"><ele>0.0</ele><time>2026-04-30T12:59:03.035Z</time></trkpt><trkpt lat="41.8080389" lon="3.5717695"><ele>0.0</ele><time>2026-04-30T12:59:04.035Z</time></trkpt><trkpt lat="41.8080848" lon="3.5718559"><ele>0.0</ele><time>2026-04-30T12:59:05.035Z</time></trkpt><trkpt lat="41.808118" lon="3.5719534"><ele>0.0</ele><time>2026-04-30T12:59:06.036Z</time></trkpt><trkpt lat="41.808157" lon="3.5720565"><ele>0.0</ele><time>2026-04-30T12:59:07.036Z</time></trkpt><trkpt lat="41.8081897" lon="3.5721646"><ele>0.0</ele><time>2026-04-30T12:59:08.036Z</time></trkpt><trkpt lat="41.8082211" lon="3.5722681"><ele>0.0</ele><time>2026-04-30T12:59:09.036Z</time></trkpt><trkpt lat="41.8082556" lon="3.5723619"><ele>0.0</ele><time>2026-04-30T12:59:10.036Z</time></trkpt><trkpt lat="41.8082906" lon="3.5724669"><ele>0.0</ele><time>2026-04-30T12:59:11.036Z</time></trkpt><trkpt lat="41.808358" lon="3.5726707"><ele>0.0</ele><time>2026-04-30T12:59:13.035Z</time></trkpt><trkpt lat="41.8083951" lon="3.5727776"><ele>0.0</ele><time>2026-04-30T12:59:14.035Z</time></trkpt><trkpt lat="41.8084352" lon="3.5728775"><ele>0.0</ele><time>2026-04-30T12:59:15.035Z</time></trkpt><trkpt lat="41.8084722" lon="3.5729818"><ele>0.0</ele><time>2026-04-30T12:59:16.036Z</time></trkpt><trkpt lat="41.8085087" lon="3.5730924"><ele>0.0</ele><time>2026-04-30T12:59:17.036Z</time></trkpt><trkpt lat="41.8085467" lon="3.5731969"><ele>0.0</ele><time>2026-04-30T12:59:18.036Z</time></trkpt><trkpt lat="41.8085836" lon="3.5732997"><ele>0.0</ele><time>2026-04-30T12:59:19.036Z</time></trkpt><trkpt lat="41.8086243" lon="3.5734066"><ele>0.0</ele><time>2026-04-30T12:59:20.036Z</time></trkpt><trkpt lat="41.8086691" lon="3.5735097"><ele>0.0</ele><time>2026-04-30T12:59:21.036Z</time></trkpt><trkpt lat="41.8087154" lon="3.5736047"><ele>0.0</ele><time>2026-04-30T12:59:22.035Z</time></trkpt><trkpt lat="41.8087873" lon="3.5738117"><ele>0.0</ele><time>2026-04-30T12:59:24.035Z</time></trkpt><trkpt lat="41.8088225" lon="3.5739166"><ele>0.0</ele><time>2026-04-30T12:59:25.036Z</time></trkpt><trkpt lat="41.8088558" lon="3.5740243"><ele>0.0</ele><time>2026-04-30T12:59:26.035Z</time></trkpt><trkpt lat="41.8088889" lon="3.5741284"><ele>0.0</ele><time>2026-04-30T12:59:27.036Z</time></trkpt><trkpt lat="41.808922" lon="3.5742362"><ele>0.0</ele><time>2026-04-30T12:59:28.036Z</time></trkpt><trkpt lat="41.8089569" lon="3.5743507"><ele>0.0</ele><time>2026-04-30T12:59:29.035Z</time></trkpt><trkpt lat="41.8089992" lon="3.5744584"><ele>0.0</ele><time>2026-04-30T12:59:30.035Z</time></trkpt><trkpt lat="41.8090385" lon="3.574565"><ele>0.0</ele><time>2026-04-30T12:59:31.035Z</time></trkpt><trkpt lat="41.8090722" lon="3.5746727"><ele>0.0</ele><time>2026-04-30T12:59:32.036Z</time></trkpt><trkpt lat="41.8091422" lon="3.574889"><ele>0.0</ele><time>2026-04-30T12:59:34.035Z</time></trkpt><trkpt lat="41.8091784" lon="3.575002"><ele>0.0</ele><time>2026-04-30T12:59:35.035Z</time></trkpt><trkpt lat="41.809217" lon="3.5751069"><ele>0.0</ele><time>2026-04-30T12:59:36.035Z</time></trkpt><trkpt lat="41.8092537" lon="3.5752071"><ele>0.0</ele><time>2026-04-30T12:59:37.036Z</time></trkpt><trkpt lat="41.8092917" lon="3.5753111"><ele>0.0</ele><time>2026-04-30T12:59:38.036Z</time></trkpt><trkpt lat="41.8093289" lon="3.5754153"><ele>0.0</ele><time>2026-04-30T12:59:39.036Z</time></trkpt><trkpt lat="41.8093626" lon="3.5755225"><ele>0.0</ele><time>2026-04-30T12:59:40.035Z</time></trkpt><trkpt lat="41.809392" lon="3.5756326"><ele>0.0</ele><time>2026-04-30T12:59:41.035Z</time></trkpt><trkpt lat="41.8094268" lon="3.5757384"><ele>0.0</ele><time>2026-04-30T12:59:42.036Z</time></trkpt><trkpt lat="41.8094622" lon="3.5758447"><ele>0.0</ele><time>2026-04-30T12:59:43.036Z</time></trkpt><trkpt lat="41.809497" lon="3.57595"><ele>0.0</ele><time>2026-04-30T12:59:44.036Z</time></trkpt><trkpt lat="41.8095374" lon="3.5760546"><ele>0.0</ele><time>2026-04-30T12:59:45.036Z</time></trkpt><trkpt lat="41.8095824" lon="3.5761567"><ele>0.0</ele><time>2026-04-30T12:59:46.036Z</time></trkpt><trkpt lat="41.8096214" lon="3.5762627"><ele>0.0</ele><time>2026-04-30T12:59:47.035Z</time></trkpt><trkpt lat="41.8096576" lon="3.5763695"><ele>0.0</ele><time>2026-04-30T12:59:48.036Z</time></trkpt><trkpt lat="41.8096938" lon="3.5764717"><ele>0.0</ele><time>2026-04-30T12:59:49.035Z</time></trkpt><trkpt lat="41.8097319" lon="3.5765793"><ele>0.0</ele><time>2026-04-30T12:59:50.035Z</time></trkpt><trkpt lat="41.809767" lon="3.5766848"><ele>0.0</ele><time>2026-04-30T12:59:51.036Z</time></trkpt><trkpt lat="41.8098021" lon="3.5767912"><ele>0.0</ele><time>2026-04-30T12:59:52.035Z</time></trkpt><trkpt lat="41.8098384" lon="3.5768982"><ele>0.0</ele><time>2026-04-30T12:59:53.036Z</time></trkpt><trkpt lat="41.8098768" lon="3.5770051"><ele>0.0</ele><time>2026-04-30T12:59:54.036Z</time></trkpt><trkpt lat="41.809984" lon="3.5773233"><ele>0.0</ele><time>2026-04-30T12:59:57.035Z</time></trkpt><trkpt lat="41.810016" lon="3.5774301"><ele>0.0</ele><time>2026-04-30T12:59:58.035Z</time></trkpt><trkpt lat="41.8100501" lon="3.5775383"><ele>0.0</ele><time>2026-04-30T12:59:59.035Z</time></trkpt><trkpt lat="41.810088" lon="3.5776447"><ele>0.0</ele><time>2026-04-30T13:00:00.036Z</time></trkpt><trkpt lat="41.8101238" lon="3.5777494"><ele>0.0</ele><time>2026-04-30T13:00:01.035Z</time></trkpt><trkpt lat="41.8101686" lon="3.5778361"><ele>0.0</ele><time>2026-04-30T13:00:02.035Z</time></trkpt><trkpt lat="41.8102114" lon="3.5779386"><ele>0.0</ele><time>2026-04-30T13:00:03.035Z</time></trkpt><trkpt lat="41.8102521" lon="3.578037"><ele>0.0</ele><time>2026-04-30T13:00:04.035Z</time></trkpt><trkpt lat="41.8102946" lon="3.5781335"><ele>0.0</ele><time>2026-04-30T13:00:05.035Z</time></trkpt><trkpt lat="41.8103309" lon="3.5782363"><ele>0.0</ele><time>2026-04-30T13:00:06.036Z</time></trkpt><trkpt lat="41.8103716" lon="3.5783382"><ele>0.0</ele><time>2026-04-30T13:00:07.036Z</time></trkpt><trkpt lat="41.8104103" lon="3.5784343"><ele>0.0</ele><time>2026-04-30T13:00:08.035Z</time></trkpt><trkpt lat="41.8104485" lon="3.5785363"><ele>0.0</ele><time>2026-04-30T13:00:09.035Z</time></trkpt><trkpt lat="41.8104867" lon="3.5786281"><ele>0.0</ele><time>2026-04-30T13:00:10.036Z</time></trkpt><trkpt lat="41.8105234" lon="3.5787188"><ele>0.0</ele><time>2026-04-30T13:00:11.035Z</time></trkpt><trkpt lat="41.8105715" lon="3.5788003"><ele>0.0</ele><time>2026-04-30T13:00:12.036Z</time></trkpt><trkpt lat="41.8106156" lon="3.5789016"><ele>0.0</ele><time>2026-04-30T13:00:13.035Z</time></trkpt><trkpt lat="41.810656" lon="3.5790186"><ele>0.0</ele><time>2026-04-30T13:00:14.036Z</time></trkpt><trkpt lat="41.8106908" lon="3.5791104"><ele>0.0</ele><time>2026-04-30T13:00:15.035Z</time></trkpt><trkpt lat="41.8107318" lon="3.5792102"><ele>0.0</ele><time>2026-04-30T13:00:16.035Z</time></trkpt><trkpt lat="41.810813" lon="3.5794155"><ele>0.0</ele><time>2026-04-30T13:00:18.034Z</time></trkpt><trkpt lat="41.8108549" lon="3.5795236"><ele>0.0</ele><time>2026-04-30T13:00:19.035Z</time></trkpt><trkpt lat="41.8108923" lon="3.5796295"><ele>0.0</ele><time>2026-04-30T13:00:20.034Z</time></trkpt><trkpt lat="41.810929" lon="3.5797374"><ele>0.0</ele><time>2026-04-30T13:00:21.034Z</time></trkpt><trkpt lat="41.8109571" lon="3.5798472"><ele>0.0</ele><time>2026-04-30T13:00:22.035Z</time></trkpt><trkpt lat="41.8109879" lon="3.5799599"><ele>0.0</ele><time>2026-04-30T13:00:23.034Z</time></trkpt><trkpt lat="41.8110281" lon="3.5800631"><ele>0.0</ele><time>2026-04-30T13:00:24.034Z</time></trkpt><trkpt lat="41.8110699" lon="3.5801739"><ele>0.0</ele><time>2026-04-30T13:00:25.035Z</time></trkpt><trkpt lat="41.8111088" lon="3.5802742"><ele>0.0</ele><time>2026-04-30T13:00:26.035Z</time></trkpt><trkpt lat="41.8111859" lon="3.5804668"><ele>0.0</ele><time>2026-04-30T13:00:28.035Z</time></trkpt><trkpt lat="41.8112253" lon="3.5805667"><ele>0.0</ele><time>2026-04-30T13:00:29.034Z</time></trkpt><trkpt lat="41.8112636" lon="3.5806668"><ele>0.0</ele><time>2026-04-30T13:00:30.034Z</time></trkpt><trkpt lat="41.8113017" lon="3.5807668"><ele>0.0</ele><time>2026-04-30T13:00:31.034Z</time></trkpt><trkpt lat="41.8113315" lon="3.5808824"><ele>0.0</ele><time>2026-04-30T13:00:32.035Z</time></trkpt><trkpt lat="41.8113731" lon="3.5809892"><ele>0.0</ele><time>2026-04-30T13:00:33.035Z</time></trkpt><trkpt lat="41.8114132" lon="3.5811019"><ele>0.0</ele><time>2026-04-30T13:00:34.034Z</time></trkpt><trkpt lat="41.8114543" lon="3.5812205"><ele>0.0</ele><time>2026-04-30T13:00:35.035Z</time></trkpt><trkpt lat="41.8114948" lon="3.5813106"><ele>0.0</ele><time>2026-04-30T13:00:36.034Z</time></trkpt><trkpt lat="41.8115392" lon="3.5814066"><ele>0.0</ele><time>2026-04-30T13:00:37.034Z</time></trkpt><trkpt lat="41.8116109" lon="3.5815992"><ele>0.0</ele><time>2026-04-30T13:00:39.034Z</time></trkpt><trkpt lat="41.8116483" lon="3.5816988"><ele>0.0</ele><time>2026-04-30T13:00:40.034Z</time></trkpt><trkpt lat="41.8116887" lon="3.5817989"><ele>0.0</ele><time>2026-04-30T13:00:41.034Z</time></trkpt><trkpt lat="41.8117263" lon="3.581927"><ele>0.0</ele><time>2026-04-30T13:00:42.035Z</time></trkpt><trkpt lat="41.8117644" lon="3.5820205"><ele>0.0</ele><time>2026-04-30T13:00:43.034Z</time></trkpt><trkpt lat="41.8118043" lon="3.5821178"><ele>0.0</ele><time>2026-04-30T13:00:44.034Z</time></trkpt><trkpt lat="41.8118418" lon="3.5822146"><ele>0.0</ele><time>2026-04-30T13:00:45.034Z</time></trkpt><trkpt lat="41.811881" lon="3.5823322"><ele>0.0</ele><time>2026-04-30T13:00:46.035Z</time></trkpt><trkpt lat="41.8119178" lon="3.5824461"><ele>0.0</ele><time>2026-04-30T13:00:47.034Z</time></trkpt><trkpt lat="41.811954" lon="3.582568"><ele>0.0</ele><time>2026-04-30T13:00:48.034Z</time></trkpt><trkpt lat="41.8119859" lon="3.5826847"><ele>0.0</ele><time>2026-04-30T13:00:49.034Z</time></trkpt><trkpt lat="41.8120202" lon="3.5827917"><ele>0.0</ele><time>2026-04-30T13:00:50.034Z</time></trkpt><trkpt lat="41.8120551" lon="3.5828954"><ele>0.0</ele><time>2026-04-30T13:00:51.034Z</time></trkpt><trkpt lat="41.8120932" lon="3.5830047"><ele>0.0</ele><time>2026-04-30T13:00:52.035Z</time></trkpt><trkpt lat="41.8121275" lon="3.5831116"><ele>0.0</ele><time>2026-04-30T13:00:53.034Z</time></trkpt><trkpt lat="41.8121606" lon="3.5832081"><ele>0.0</ele><time>2026-04-30T13:00:54.034Z</time></trkpt><trkpt lat="41.8121958" lon="3.5832991"><ele>0.0</ele><time>2026-04-30T13:00:55.034Z</time></trkpt><trkpt lat="41.812235" lon="3.5834146"><ele>0.0</ele><time>2026-04-30T13:00:56.034Z</time></trkpt><trkpt lat="41.8122746" lon="3.5835267"><ele>0.0</ele><time>2026-04-30T13:00:57.034Z</time></trkpt><trkpt lat="41.8123147" lon="3.5836388"><ele>0.0</ele><time>2026-04-30T13:00:58.034Z</time></trkpt><trkpt lat="41.8124231" lon="3.5839488"><ele>0.0</ele><time>2026-04-30T13:01:01.034Z</time></trkpt><trkpt lat="41.8124649" lon="3.5840548"><ele>0.0</ele><time>2026-04-30T13:01:02.035Z</time></trkpt><trkpt lat="41.812502" lon="3.5841658"><ele>0.0</ele><time>2026-04-30T13:01:03.035Z</time></trkpt><trkpt lat="41.8125356" lon="3.5842694"><ele>0.0</ele><time>2026-04-30T13:01:04.034Z</time></trkpt><trkpt lat="41.8125703" lon="3.5843842"><ele>0.0</ele><time>2026-04-30T13:01:05.034Z</time></trkpt><trkpt lat="41.8126057" lon="3.584491"><ele>0.0</ele><time>2026-04-30T13:01:06.035Z</time></trkpt><trkpt lat="41.8126407" lon="3.5845956"><ele>0.0</ele><time>2026-04-30T13:01:07.034Z</time></trkpt><trkpt lat="41.8126783" lon="3.5846976"><ele>0.0</ele><time>2026-04-30T13:01:08.035Z</time></trkpt><trkpt lat="41.8127121" lon="3.5847975"><ele>0.0</ele><time>2026-04-30T13:01:09.034Z</time></trkpt><trkpt lat="41.8127457" lon="3.5849044"><ele>0.0</ele><time>2026-04-30T13:01:10.034Z</time></trkpt><trkpt lat="41.8127787" lon="3.5850056"><ele>0.0</ele><time>2026-04-30T13:01:11.035Z</time></trkpt><trkpt lat="41.8128198" lon="3.5851059"><ele>0.0</ele><time>2026-04-30T13:01:12.035Z</time></trkpt><trkpt lat="41.8128603" lon="3.5852088"><ele>0.0</ele><time>2026-04-30T13:01:13.034Z</time></trkpt><trkpt lat="41.8129113" lon="3.5853006"><ele>0.0</ele><time>2026-04-30T13:01:14.035Z</time></trkpt><trkpt lat="41.8129488" lon="3.5854018"><ele>0.0</ele><time>2026-04-30T13:01:15.035Z</time></trkpt><trkpt lat="41.8129838" lon="3.5855087"><ele>0.0</ele><time>2026-04-30T13:01:16.034Z</time></trkpt><trkpt lat="41.813023" lon="3.5856103"><ele>0.0</ele><time>2026-04-30T13:01:17.035Z</time></trkpt><trkpt lat="41.8130649" lon="3.5857149"><ele>0.0</ele><time>2026-04-30T13:01:18.034Z</time></trkpt><trkpt lat="41.8131055" lon="3.5858153"><ele>0.0</ele><time>2026-04-30T13:01:19.035Z</time></trkpt><trkpt lat="41.8131868" lon="3.5860263"><ele>0.0</ele><time>2026-04-30T13:01:21.035Z</time></trkpt><trkpt lat="41.813222" lon="3.5861325"><ele>0.0</ele><time>2026-04-30T13:01:22.034Z</time></trkpt><trkpt lat="41.8132552" lon="3.5862323"><ele>0.0</ele><time>2026-04-30T13:01:23.034Z</time></trkpt><trkpt lat="41.8132903" lon="3.5863297"><ele>0.0</ele><time>2026-04-30T13:01:24.034Z</time></trkpt><trkpt lat="41.8133368" lon="3.5864514"><ele>0.0</ele><time>2026-04-30T13:01:25.034Z</time></trkpt><trkpt lat="41.8133749" lon="3.586562"><ele>0.0</ele><time>2026-04-30T13:01:26.034Z</time></trkpt><trkpt lat="41.8134119" lon="3.586661"><ele>0.0</ele><time>2026-04-30T13:01:27.035Z</time></trkpt><trkpt lat="41.8134572" lon="3.586762"><ele>0.0</ele><time>2026-04-30T13:01:28.035Z</time></trkpt><trkpt lat="41.8134968" lon="3.5868578"><ele>0.0</ele><time>2026-04-30T13:01:29.035Z</time></trkpt><trkpt lat="41.8135386" lon="3.5869697"><ele>0.0</ele><time>2026-04-30T13:01:30.035Z</time></trkpt><trkpt lat="41.8136187" lon="3.5871643"><ele>0.0</ele><time>2026-04-30T13:01:32.034Z</time></trkpt><trkpt lat="41.8136572" lon="3.5872587"><ele>0.0</ele><time>2026-04-30T13:01:33.034Z</time></trkpt><trkpt lat="41.8136923" lon="3.5873626"><ele>0.0</ele><time>2026-04-30T13:01:34.034Z</time></trkpt><trkpt lat="41.8137277" lon="3.5874538"><ele>0.0</ele><time>2026-04-30T13:01:35.034Z</time></trkpt><trkpt lat="41.8137672" lon="3.5875565"><ele>0.0</ele><time>2026-04-30T13:01:36.034Z</time></trkpt><trkpt lat="41.8138071" lon="3.5876555"><ele>0.0</ele><time>2026-04-30T13:01:37.034Z</time></trkpt><trkpt lat="41.8138437" lon="3.5877567"><ele>0.0</ele><time>2026-04-30T13:01:38.035Z</time></trkpt><trkpt lat="41.813882" lon="3.5878598"><ele>0.0</ele><time>2026-04-30T13:01:39.035Z</time></trkpt><trkpt lat="41.8139241" lon="3.5879701"><ele>0.0</ele><time>2026-04-30T13:01:40.035Z</time></trkpt><trkpt lat="41.8139929" lon="3.5881926"><ele>0.0</ele><time>2026-04-30T13:01:42.034Z</time></trkpt><trkpt lat="41.8140274" lon="3.5882898"><ele>0.0</ele><time>2026-04-30T13:01:43.034Z</time></trkpt><trkpt lat="41.8140644" lon="3.5883931"><ele>0.0</ele><time>2026-04-30T13:01:44.035Z</time></trkpt><trkpt lat="41.8141002" lon="3.5884983"><ele>0.0</ele><time>2026-04-30T13:01:45.035Z</time></trkpt><trkpt lat="41.8141399" lon="3.5886159"><ele>0.0</ele><time>2026-04-30T13:01:46.035Z</time></trkpt><trkpt lat="41.81418" lon="3.5887265"><ele>0.0</ele><time>2026-04-30T13:01:47.034Z</time></trkpt><trkpt lat="41.8142152" lon="3.588841"><ele>0.0</ele><time>2026-04-30T13:01:48.034Z</time></trkpt><trkpt lat="41.8142471" lon="3.5889547"><ele>0.0</ele><time>2026-04-30T13:01:49.035Z</time></trkpt><trkpt lat="41.8142787" lon="3.5890681"><ele>0.0</ele><time>2026-04-30T13:01:50.034Z</time></trkpt><trkpt lat="41.8143102" lon="3.5891844"><ele>0.0</ele><time>2026-04-30T13:01:51.035Z</time></trkpt><trkpt lat="41.8143435" lon="3.5892998"><ele>0.0</ele><time>2026-04-30T13:01:52.034Z</time></trkpt><trkpt lat="41.8143655" lon="3.5894132"><ele>0.0</ele><time>2026-04-30T13:01:53.035Z</time></trkpt><trkpt lat="41.8143954" lon="3.5895243"><ele>0.0</ele><time>2026-04-30T13:01:54.035Z</time></trkpt><trkpt lat="41.8144359" lon="3.5896298"><ele>0.0</ele><time>2026-04-30T13:01:55.034Z</time></trkpt><trkpt lat="41.814473" lon="3.5897389"><ele>0.0</ele><time>2026-04-30T13:01:56.035Z</time></trkpt><trkpt lat="41.8145059" lon="3.5898496"><ele>0.0</ele><time>2026-04-30T13:01:57.035Z</time></trkpt><trkpt lat="41.814539" lon="3.5899531"><ele>0.0</ele><time>2026-04-30T13:01:58.034Z</time></trkpt><trkpt lat="41.8145711" lon="3.5900557"><ele>0.0</ele><time>2026-04-30T13:01:59.034Z</time></trkpt><trkpt lat="41.814602" lon="3.5901606"><ele>0.0</ele><time>2026-04-30T13:02:00.034Z</time></trkpt><trkpt lat="41.8146337" lon="3.5902696"><ele>0.0</ele><time>2026-04-30T13:02:01.034Z</time></trkpt><trkpt lat="41.8146696" lon="3.5903668"><ele>0.0</ele><time>2026-04-30T13:02:02.034Z</time></trkpt><trkpt lat="41.8147431" lon="3.5905642"><ele>0.0</ele><time>2026-04-30T13:02:04.035Z</time></trkpt><trkpt lat="41.8147968" lon="3.590648"><ele>0.0</ele><time>2026-04-30T13:02:05.035Z</time></trkpt><trkpt lat="41.8148424" lon="3.5907453"><ele>0.0</ele><time>2026-04-30T13:02:06.035Z</time></trkpt><trkpt lat="41.8148893" lon="3.5908436"><ele>0.0</ele><time>2026-04-30T13:02:07.034Z</time></trkpt><trkpt lat="41.8149337" lon="3.5909423"><ele>0.0</ele><time>2026-04-30T13:02:08.035Z</time></trkpt><trkpt lat="41.8149726" lon="3.591039"><ele>0.0</ele><time>2026-04-30T13:02:09.034Z</time></trkpt><trkpt lat="41.8150054" lon="3.5911475"><ele>0.0</ele><time>2026-04-30T13:02:10.035Z</time></trkpt><trkpt lat="41.8150432" lon="3.591262"><ele>0.0</ele><time>2026-04-30T13:02:11.034Z</time></trkpt><trkpt lat="41.8150801" lon="3.5913742"><ele>0.0</ele><time>2026-04-30T13:02:12.034Z</time></trkpt><trkpt lat="41.8151172" lon="3.5914786"><ele>0.0</ele><time>2026-04-30T13:02:13.034Z</time></trkpt><trkpt lat="41.8151524" lon="3.5915807"><ele>0.0</ele><time>2026-04-30T13:02:14.034Z</time></trkpt><trkpt lat="41.81519" lon="3.5916765"><ele>0.0</ele><time>2026-04-30T13:02:15.035Z</time></trkpt><trkpt lat="41.8152256" lon="3.5917742"><ele>0.0</ele><time>2026-04-30T13:02:16.035Z</time></trkpt><trkpt lat="41.8152619" lon="3.5918796"><ele>0.0</ele><time>2026-04-30T13:02:17.035Z</time></trkpt><trkpt lat="41.815298" lon="3.5919818"><ele>0.0</ele><time>2026-04-30T13:02:18.035Z</time></trkpt><trkpt lat="41.8153366" lon="3.592088"><ele>0.0</ele><time>2026-04-30T13:02:19.034Z</time></trkpt><trkpt lat="41.8153763" lon="3.5922021"><ele>0.0</ele><time>2026-04-30T13:02:20.035Z</time></trkpt><trkpt lat="41.8154156" lon="3.5923101"><ele>0.0</ele><time>2026-04-30T13:02:21.034Z</time></trkpt><trkpt lat="41.8154547" lon="3.592421"><ele>0.0</ele><time>2026-04-30T13:02:22.034Z</time></trkpt><trkpt lat="41.8154917" lon="3.5925312"><ele>0.0</ele><time>2026-04-30T13:02:23.034Z</time></trkpt><trkpt lat="41.8155623" lon="3.5927389"><ele>0.0</ele><time>2026-04-30T13:02:25.035Z</time></trkpt><trkpt lat="41.8155942" lon="3.5928378"><ele>0.0</ele><time>2026-04-30T13:02:26.035Z</time></trkpt><trkpt lat="41.8156289" lon="3.5929362"><ele>0.0</ele><time>2026-04-30T13:02:27.035Z</time></trkpt><trkpt lat="41.8156683" lon="3.5930372"><ele>0.0</ele><time>2026-04-30T13:02:28.034Z</time></trkpt><trkpt lat="41.8157071" lon="3.5931372"><ele>0.0</ele><time>2026-04-30T13:02:29.034Z</time></trkpt><trkpt lat="41.8157464" lon="3.5932471"><ele>0.0</ele><time>2026-04-30T13:02:30.034Z</time></trkpt><trkpt lat="41.8157857" lon="3.5933474"><ele>0.0</ele><time>2026-04-30T13:02:31.034Z</time></trkpt><trkpt lat="41.815821" lon="3.5934459"><ele>0.0</ele><time>2026-04-30T13:02:32.034Z</time></trkpt><trkpt lat="41.8158582" lon="3.5935558"><ele>0.0</ele><time>2026-04-30T13:02:33.034Z</time></trkpt><trkpt lat="41.8158984" lon="3.5936598"><ele>0.0</ele><time>2026-04-30T13:02:34.034Z</time></trkpt><trkpt lat="41.8159279" lon="3.5937761"><ele>0.0</ele><time>2026-04-30T13:02:35.035Z</time></trkpt><trkpt lat="41.8159604" lon="3.5938787"><ele>0.0</ele><time>2026-04-30T13:02:36.034Z</time></trkpt><trkpt lat="41.8159965" lon="3.5939843"><ele>0.0</ele><time>2026-04-30T13:02:37.034Z</time></trkpt><trkpt lat="41.8160362" lon="3.5940977"><ele>0.0</ele><time>2026-04-30T13:02:38.034Z</time></trkpt><trkpt lat="41.8160738" lon="3.5942048"><ele>0.0</ele><time>2026-04-30T13:02:39.035Z</time></trkpt><trkpt lat="41.816114" lon="3.5943042"><ele>0.0</ele><time>2026-04-30T13:02:40.035Z</time></trkpt><trkpt lat="41.8161471" lon="3.5944043"><ele>0.0</ele><time>2026-04-30T13:02:41.034Z</time></trkpt><trkpt lat="41.8161833" lon="3.5945176"><ele>0.0</ele><time>2026-04-30T13:02:42.035Z</time></trkpt><trkpt lat="41.8162185" lon="3.5946274"><ele>0.0</ele><time>2026-04-30T13:02:43.035Z</time></trkpt><trkpt lat="41.8163049" lon="3.5948228"><ele>0.0</ele><time>2026-04-30T13:02:45.034Z</time></trkpt><trkpt lat="41.8163415" lon="3.5949271"><ele>0.0</ele><time>2026-04-30T13:02:46.034Z</time></trkpt><trkpt lat="41.8163768" lon="3.5950337"><ele>0.0</ele><time>2026-04-30T13:02:47.035Z</time></trkpt><trkpt lat="41.8164146" lon="3.5951401"><ele>0.0</ele><time>2026-04-30T13:02:48.035Z</time></trkpt><trkpt lat="41.8164527" lon="3.5952442"><ele>0.0</ele><time>2026-04-30T13:02:49.034Z</time></trkpt><trkpt lat="41.8164937" lon="3.595339"><ele>0.0</ele><time>2026-04-30T13:02:50.034Z</time></trkpt><trkpt lat="41.8165327" lon="3.5954369"><ele>0.0</ele><time>2026-04-30T13:02:51.035Z</time></trkpt><trkpt lat="41.8165699" lon="3.5955389"><ele>0.0</ele><time>2026-04-30T13:02:52.034Z</time></trkpt><trkpt lat="41.8166081" lon="3.5956528"><ele>0.0</ele><time>2026-04-30T13:02:53.035Z</time></trkpt><trkpt lat="41.8166513" lon="3.5957622"><ele>0.0</ele><time>2026-04-30T13:02:54.035Z</time></trkpt><trkpt lat="41.8166931" lon="3.5958697"><ele>0.0</ele><time>2026-04-30T13:02:55.035Z</time></trkpt><trkpt lat="41.8167352" lon="3.5959777"><ele>0.0</ele><time>2026-04-30T13:02:56.034Z</time></trkpt><trkpt lat="41.8167719" lon="3.5960934"><ele>0.0</ele><time>2026-04-30T13:02:57.034Z</time></trkpt><trkpt lat="41.8168022" lon="3.5961931"><ele>0.0</ele><time>2026-04-30T13:02:58.035Z</time></trkpt><trkpt lat="41.8168336" lon="3.5962955"><ele>0.0</ele><time>2026-04-30T13:02:59.034Z</time></trkpt><trkpt lat="41.8168661" lon="3.5963975"><ele>0.0</ele><time>2026-04-30T13:03:00.034Z</time></trkpt><trkpt lat="41.816909" lon="3.5965008"><ele>0.0</ele><time>2026-04-30T13:03:01.035Z</time></trkpt><trkpt lat="41.8169488" lon="3.5966033"><ele>0.0</ele><time>2026-04-30T13:03:02.034Z</time></trkpt><trkpt lat="41.8169938" lon="3.5967016"><ele>0.0</ele><time>2026-04-30T13:03:03.034Z</time></trkpt><trkpt lat="41.8170334" lon="3.5968019"><ele>0.0</ele><time>2026-04-30T13:03:04.034Z</time></trkpt><trkpt lat="41.8171234" lon="3.5969954"><ele>0.0</ele><time>2026-04-30T13:03:06.034Z</time></trkpt><trkpt lat="41.81723" lon="3.597193"><ele>0.0</ele><time>2026-04-30T13:03:08.034Z</time></trkpt><trkpt lat="41.817273" lon="3.5972925"><ele>0.0</ele><time>2026-04-30T13:03:09.034Z</time></trkpt><trkpt lat="41.817309" lon="3.5973883"><ele>0.0</ele><time>2026-04-30T13:03:10.035Z</time></trkpt><trkpt lat="41.8173451" lon="3.597489"><ele>0.0</ele><time>2026-04-30T13:03:11.034Z</time></trkpt><trkpt lat="41.8173865" lon="3.5975824"><ele>0.0</ele><time>2026-04-30T13:03:12.035Z</time></trkpt><trkpt lat="41.8174195" lon="3.5976938"><ele>0.0</ele><time>2026-04-30T13:03:13.034Z</time></trkpt><trkpt lat="41.817454" lon="3.5978111"><ele>0.0</ele><time>2026-04-30T13:03:14.034Z</time></trkpt><trkpt lat="41.8174888" lon="3.5979242"><ele>0.0</ele><time>2026-04-30T13:03:15.035Z</time></trkpt><trkpt lat="41.8175196" lon="3.5980375"><ele>0.0</ele><time>2026-04-30T13:03:16.034Z</time></trkpt><trkpt lat="41.8175512" lon="3.5981447"><ele>0.0</ele><time>2026-04-30T13:03:17.035Z</time></trkpt><trkpt lat="41.8175854" lon="3.598243"><ele>0.0</ele><time>2026-04-30T13:03:18.034Z</time></trkpt><trkpt lat="41.8176203" lon="3.5983454"><ele>0.0</ele><time>2026-04-30T13:03:19.034Z</time></trkpt><trkpt lat="41.8176525" lon="3.5984495"><ele>0.0</ele><time>2026-04-30T13:03:20.034Z</time></trkpt><trkpt lat="41.8176885" lon="3.5985486"><ele>0.0</ele><time>2026-04-30T13:03:21.035Z</time></trkpt><trkpt lat="41.8177256" lon="3.5986496"><ele>0.0</ele><time>2026-04-30T13:03:22.035Z</time></trkpt><trkpt lat="41.8177618" lon="3.5987487"><ele>0.0</ele><time>2026-04-30T13:03:23.034Z</time></trkpt><trkpt lat="41.8177985" lon="3.5988498"><ele>0.0</ele><time>2026-04-30T13:03:24.034Z</time></trkpt><trkpt lat="41.8178715" lon="3.5990467"><ele>0.0</ele><time>2026-04-30T13:03:26.034Z</time></trkpt><trkpt lat="41.8179081" lon="3.5991519"><ele>0.0</ele><time>2026-04-30T13:03:27.034Z</time></trkpt><trkpt lat="41.8179396" lon="3.5992585"><ele>0.0</ele><time>2026-04-30T13:03:28.035Z</time></trkpt><trkpt lat="41.8179793" lon="3.5993666"><ele>0.0</ele><time>2026-04-30T13:03:29.034Z</time></trkpt><trkpt lat="41.8180199" lon="3.5994726"><ele>0.0</ele><time>2026-04-30T13:03:30.035Z</time></trkpt><trkpt lat="41.8180597" lon="3.5995816"><ele>0.0</ele><time>2026-04-30T13:03:31.034Z</time></trkpt><trkpt lat="41.8180982" lon="3.5996888"><ele>0.0</ele><time>2026-04-30T13:03:32.035Z</time></trkpt><trkpt lat="41.818138" lon="3.599797"><ele>0.0</ele><time>2026-04-30T13:03:33.034Z</time></trkpt><trkpt lat="41.8181811" lon="3.5999081"><ele>0.0</ele><time>2026-04-30T13:03:34.035Z</time></trkpt><trkpt lat="41.8182198" lon="3.6000117"><ele>0.0</ele><time>2026-04-30T13:03:35.035Z</time></trkpt><trkpt lat="41.8182611" lon="3.6001159"><ele>0.0</ele><time>2026-04-30T13:03:36.034Z</time></trkpt><trkpt lat="41.8183" lon="3.6002169"><ele>0.0</ele><time>2026-04-30T13:03:37.034Z</time></trkpt><trkpt lat="41.8183381" lon="3.6003255"><ele>0.0</ele><time>2026-04-30T13:03:38.034Z</time></trkpt><trkpt lat="41.8183781" lon="3.600434"><ele>0.0</ele><time>2026-04-30T13:03:39.035Z</time></trkpt><trkpt lat="41.8184198" lon="3.6005395"><ele>0.0</ele><time>2026-04-30T13:03:40.034Z</time></trkpt><trkpt lat="41.8184556" lon="3.6006404"><ele>0.0</ele><time>2026-04-30T13:03:41.035Z</time></trkpt><trkpt lat="41.8184935" lon="3.6007371"><ele>0.0</ele><time>2026-04-30T13:03:42.035Z</time></trkpt><trkpt lat="41.8185318" lon="3.6008372"><ele>0.0</ele><time>2026-04-30T13:03:43.035Z</time></trkpt><trkpt lat="41.8185685" lon="3.6009345"><ele>0.0</ele><time>2026-04-30T13:03:44.034Z</time></trkpt><trkpt lat="41.8186106" lon="3.6010339"><ele>0.0</ele><time>2026-04-30T13:03:45.034Z</time></trkpt><trkpt lat="41.8186967" lon="3.6012611"><ele>0.0</ele><time>2026-04-30T13:03:47.034Z</time></trkpt><trkpt lat="41.8187334" lon="3.6013725"><ele>0.0</ele><time>2026-04-30T13:03:48.035Z</time></trkpt><trkpt lat="41.8187686" lon="3.6014799"><ele>0.0</ele><time>2026-04-30T13:03:49.035Z</time></trkpt><trkpt lat="41.8188117" lon="3.6015967"><ele>0.0</ele><time>2026-04-30T13:03:50.034Z</time></trkpt><trkpt lat="41.8188535" lon="3.6017078"><ele>0.0</ele><time>2026-04-30T13:03:51.034Z</time></trkpt><trkpt lat="41.8188835" lon="3.6018161"><ele>0.0</ele><time>2026-04-30T13:03:52.034Z</time></trkpt><trkpt lat="41.8189189" lon="3.6019231"><ele>0.0</ele><time>2026-04-30T13:03:53.034Z</time></trkpt><trkpt lat="41.8189585" lon="3.6020253"><ele>0.0</ele><time>2026-04-30T13:03:54.035Z</time></trkpt><trkpt lat="41.818991" lon="3.6021214"><ele>0.0</ele><time>2026-04-30T13:03:55.035Z</time></trkpt><trkpt lat="41.8190294" lon="3.6022261"><ele>0.0</ele><time>2026-04-30T13:03:56.035Z</time></trkpt><trkpt lat="41.8190782" lon="3.6023157"><ele>0.0</ele><time>2026-04-30T13:03:57.034Z</time></trkpt><trkpt lat="41.8191267" lon="3.602411"><ele>0.0</ele><time>2026-04-30T13:03:58.034Z</time></trkpt><trkpt lat="41.819178" lon="3.6025077"><ele>0.0</ele><time>2026-04-30T13:03:59.034Z</time></trkpt><trkpt lat="41.8192282" lon="3.602603"><ele>0.0</ele><time>2026-04-30T13:04:00.035Z</time></trkpt><trkpt lat="41.81927" lon="3.6027034"><ele>0.0</ele><time>2026-04-30T13:04:01.035Z</time></trkpt><trkpt lat="41.819316" lon="3.6028031"><ele>0.0</ele><time>2026-04-30T13:04:02.034Z</time></trkpt><trkpt lat="41.8193558" lon="3.6029031"><ele>0.0</ele><time>2026-04-30T13:04:03.035Z</time></trkpt><trkpt lat="41.8193954" lon="3.6030029"><ele>0.0</ele><time>2026-04-30T13:04:04.035Z</time></trkpt><trkpt lat="41.8194381" lon="3.6031081"><ele>0.0</ele><time>2026-04-30T13:04:05.034Z</time></trkpt><trkpt lat="41.8194731" lon="3.6032102"><ele>0.0</ele><time>2026-04-30T13:04:06.034Z</time></trkpt><trkpt lat="41.8195424" lon="3.603429"><ele>0.0</ele><time>2026-04-30T13:04:08.034Z</time></trkpt><trkpt lat="41.81958" lon="3.6035374"><ele>0.0</ele><time>2026-04-30T13:04:09.034Z</time></trkpt><trkpt lat="41.8196443" lon="3.6037646"><ele>0.0</ele><time>2026-04-30T13:04:11.035Z</time></trkpt><trkpt lat="41.8196788" lon="3.6038752"><ele>0.0</ele><time>2026-04-30T13:04:12.035Z</time></trkpt><trkpt lat="41.8197154" lon="3.603983"><ele>0.0</ele><time>2026-04-30T13:04:13.034Z</time></trkpt><trkpt lat="41.8197524" lon="3.6040943"><ele>0.0</ele><time>2026-04-30T13:04:14.035Z</time></trkpt><trkpt lat="41.819786" lon="3.6042061"><ele>0.0</ele><time>2026-04-30T13:04:15.034Z</time></trkpt><trkpt lat="41.8198192" lon="3.6043152"><ele>0.0</ele><time>2026-04-30T13:04:16.034Z</time></trkpt><trkpt lat="41.8198467" lon="3.6044186"><ele>0.0</ele><time>2026-04-30T13:04:17.034Z</time></trkpt><trkpt lat="41.8198831" lon="3.6045192"><ele>0.0</ele><time>2026-04-30T13:04:18.034Z</time></trkpt><trkpt lat="41.8199158" lon="3.6046279"><ele>0.0</ele><time>2026-04-30T13:04:19.035Z</time></trkpt><trkpt lat="41.8199533" lon="3.604735"><ele>0.0</ele><time>2026-04-30T13:04:20.034Z</time></trkpt><trkpt lat="41.8200006" lon="3.6048414"><ele>0.0</ele><time>2026-04-30T13:04:21.035Z</time></trkpt><trkpt lat="41.8200485" lon="3.6049451"><ele>0.0</ele><time>2026-04-30T13:04:22.035Z</time></trkpt><trkpt lat="41.8200857" lon="3.6050527"><ele>0.0</ele><time>2026-04-30T13:04:23.035Z</time></trkpt><trkpt lat="41.8201276" lon="3.6051624"><ele>0.0</ele><time>2026-04-30T13:04:24.035Z</time></trkpt><trkpt lat="41.8201627" lon="3.6052755"><ele>0.0</ele><time>2026-04-30T13:04:25.034Z</time></trkpt><trkpt lat="41.8202041" lon="3.6053816"><ele>0.0</ele><time>2026-04-30T13:04:26.034Z</time></trkpt><trkpt lat="41.8202432" lon="3.6054854"><ele>0.0</ele><time>2026-04-30T13:04:27.034Z</time></trkpt><trkpt lat="41.8203548" lon="3.6056703"><ele>0.0</ele><time>2026-04-30T13:04:29.035Z</time></trkpt><trkpt lat="41.820401" lon="3.6057748"><ele>0.0</ele><time>2026-04-30T13:04:30.035Z</time></trkpt><trkpt lat="41.8204354" lon="3.6058786"><ele>0.0</ele><time>2026-04-30T13:04:31.035Z</time></trkpt><trkpt lat="41.8204678" lon="3.6059821"><ele>0.0</ele><time>2026-04-30T13:04:32.035Z</time></trkpt><trkpt lat="41.8204998" lon="3.6060826"><ele>0.0</ele><time>2026-04-30T13:04:33.034Z</time></trkpt><trkpt lat="41.820534" lon="3.6061839"><ele>0.0</ele><time>2026-04-30T13:04:34.034Z</time></trkpt><trkpt lat="41.8205705" lon="3.6062852"><ele>0.0</ele><time>2026-04-30T13:04:35.034Z</time></trkpt><trkpt lat="41.8206046" lon="3.6063983"><ele>0.0</ele><time>2026-04-30T13:04:36.035Z</time></trkpt><trkpt lat="41.8206392" lon="3.6064988"><ele>0.0</ele><time>2026-04-30T13:04:37.035Z</time></trkpt><trkpt lat="41.820671" lon="3.60661"><ele>0.0</ele><time>2026-04-30T13:04:38.034Z</time></trkpt><trkpt lat="41.8207027" lon="3.6067088"><ele>0.0</ele><time>2026-04-30T13:04:39.034Z</time></trkpt><trkpt lat="41.8207314" lon="3.6068184"><ele>0.0</ele><time>2026-04-30T13:04:40.034Z</time></trkpt><trkpt lat="41.8207668" lon="3.6069302"><ele>0.0</ele><time>2026-04-30T13:04:41.034Z</time></trkpt><trkpt lat="41.8208053" lon="3.6070381"><ele>0.0</ele><time>2026-04-30T13:04:42.034Z</time></trkpt><trkpt lat="41.820842" lon="3.6071432"><ele>0.0</ele><time>2026-04-30T13:04:43.034Z</time></trkpt><trkpt lat="41.8208804" lon="3.6072423"><ele>0.0</ele><time>2026-04-30T13:04:44.035Z</time></trkpt><trkpt lat="41.8209187" lon="3.6073422"><ele>0.0</ele><time>2026-04-30T13:04:45.034Z</time></trkpt><trkpt lat="41.8209553" lon="3.6074433"><ele>0.0</ele><time>2026-04-30T13:04:46.034Z</time></trkpt><trkpt lat="41.8209888" lon="3.6075481"><ele>0.0</ele><time>2026-04-30T13:04:47.035Z</time></trkpt><trkpt lat="41.8210232" lon="3.6076649"><ele>0.0</ele><time>2026-04-30T13:04:48.035Z</time></trkpt><trkpt lat="41.8210969" lon="3.6078891"><ele>0.0</ele><time>2026-04-30T13:04:50.034Z</time></trkpt><trkpt lat="41.8211339" lon="3.6079909"><ele>0.0</ele><time>2026-04-30T13:04:51.034Z</time></trkpt><trkpt lat="41.8211718" lon="3.6081008"><ele>0.0</ele><time>2026-04-30T13:04:52.034Z</time></trkpt><trkpt lat="41.8212121" lon="3.6082054"><ele>0.0</ele><time>2026-04-30T13:04:53.035Z</time></trkpt><trkpt lat="41.8212549" lon="3.608314"><ele>0.0</ele><time>2026-04-30T13:04:54.034Z</time></trkpt><trkpt lat="41.8212907" lon="3.6084128"><ele>0.0</ele><time>2026-04-30T13:04:55.034Z</time></trkpt><trkpt lat="41.8213277" lon="3.6085192"><ele>0.0</ele><time>2026-04-30T13:04:56.034Z</time></trkpt><trkpt lat="41.8213668" lon="3.6086205"><ele>0.0</ele><time>2026-04-30T13:04:57.035Z</time></trkpt><trkpt lat="41.8214034" lon="3.6087217"><ele>0.0</ele><time>2026-04-30T13:04:58.034Z</time></trkpt><trkpt lat="41.8214389" lon="3.6088263"><ele>0.0</ele><time>2026-04-30T13:04:59.033Z</time></trkpt><trkpt lat="41.8214798" lon="3.6089301"><ele>0.0</ele><time>2026-04-30T13:05:00.034Z</time></trkpt><trkpt lat="41.8215189" lon="3.6090318"><ele>0.0</ele><time>2026-04-30T13:05:01.034Z</time></trkpt><trkpt lat="41.8215557" lon="3.609135"><ele>0.0</ele><time>2026-04-30T13:05:02.034Z</time></trkpt><trkpt lat="41.8215965" lon="3.6092398"><ele>0.0</ele><time>2026-04-30T13:05:03.034Z</time></trkpt><trkpt lat="41.8216397" lon="3.6093449"><ele>0.0</ele><time>2026-04-30T13:05:04.034Z</time></trkpt><trkpt lat="41.8216774" lon="3.6094495"><ele>0.0</ele><time>2026-04-30T13:05:05.034Z</time></trkpt><trkpt lat="41.8217123" lon="3.609555"><ele>0.0</ele><time>2026-04-30T13:05:06.033Z</time></trkpt><trkpt lat="41.8217524" lon="3.6096601"><ele>0.0</ele><time>2026-04-30T13:05:07.034Z</time></trkpt><trkpt lat="41.8217892" lon="3.6097708"><ele>0.0</ele><time>2026-04-30T13:05:08.033Z</time></trkpt><trkpt lat="41.8218255" lon="3.6098782"><ele>0.0</ele><time>2026-04-30T13:05:09.033Z</time></trkpt><trkpt lat="41.8219032" lon="3.6100955"><ele>0.0</ele><time>2026-04-30T13:05:11.034Z</time></trkpt><trkpt lat="41.8219398" lon="3.6102017"><ele>0.0</ele><time>2026-04-30T13:05:12.033Z</time></trkpt><trkpt lat="41.8219784" lon="3.6103127"><ele>0.0</ele><time>2026-04-30T13:05:13.033Z</time></trkpt><trkpt lat="41.8220251" lon="3.6104112"><ele>0.0</ele><time>2026-04-30T13:05:14.034Z</time></trkpt><trkpt lat="41.8220635" lon="3.6105122"><ele>0.0</ele><time>2026-04-30T13:05:15.034Z</time></trkpt><trkpt lat="41.8221145" lon="3.6106107"><ele>0.0</ele><time>2026-04-30T13:05:16.033Z</time></trkpt><trkpt lat="41.8221693" lon="3.6107145"><ele>0.0</ele><time>2026-04-30T13:05:17.034Z</time></trkpt><trkpt lat="41.8222143" lon="3.6108129"><ele>0.0</ele><time>2026-04-30T13:05:18.033Z</time></trkpt><trkpt lat="41.8222585" lon="3.6109259"><ele>0.0</ele><time>2026-04-30T13:05:19.034Z</time></trkpt><trkpt lat="41.8222993" lon="3.6110268"><ele>0.0</ele><time>2026-04-30T13:05:20.034Z</time></trkpt><trkpt lat="41.8223365" lon="3.6111365"><ele>0.0</ele><time>2026-04-30T13:05:21.034Z</time></trkpt><trkpt lat="41.8223761" lon="3.6112452"><ele>0.0</ele><time>2026-04-30T13:05:22.034Z</time></trkpt><trkpt lat="41.8224164" lon="3.6113461"><ele>0.0</ele><time>2026-04-30T13:05:23.034Z</time></trkpt><trkpt lat="41.8224538" lon="3.6114474"><ele>0.0</ele><time>2026-04-30T13:05:24.034Z</time></trkpt><trkpt lat="41.8224951" lon="3.611549"><ele>0.0</ele><time>2026-04-30T13:05:25.034Z</time></trkpt><trkpt lat="41.8225296" lon="3.6116491"><ele>0.0</ele><time>2026-04-30T13:05:26.034Z</time></trkpt><trkpt lat="41.8225643" lon="3.6117521"><ele>0.0</ele><time>2026-04-30T13:05:27.033Z</time></trkpt><trkpt lat="41.8226001" lon="3.6118537"><ele>0.0</ele><time>2026-04-30T13:05:28.034Z</time></trkpt><trkpt lat="41.8226356" lon="3.6119558"><ele>0.0</ele><time>2026-04-30T13:05:29.033Z</time></trkpt><trkpt lat="41.8226707" lon="3.6120618"><ele>0.0</ele><time>2026-04-30T13:05:30.034Z</time></trkpt><trkpt lat="41.8227384" lon="3.61227"><ele>0.0</ele><time>2026-04-30T13:05:32.033Z</time></trkpt><trkpt lat="41.8227781" lon="3.6123746"><ele>0.0</ele><time>2026-04-30T13:05:33.033Z</time></trkpt><trkpt lat="41.8228126" lon="3.6124882"><ele>0.0</ele><time>2026-04-30T13:05:34.034Z</time></trkpt><trkpt lat="41.8228503" lon="3.6125945"><ele>0.0</ele><time>2026-04-30T13:05:35.033Z</time></trkpt><trkpt lat="41.822893" lon="3.6126999"><ele>0.0</ele><time>2026-04-30T13:05:36.033Z</time></trkpt><trkpt lat="41.8229233" lon="3.6128046"><ele>0.0</ele><time>2026-04-30T13:05:37.033Z</time></trkpt><trkpt lat="41.8229544" lon="3.6129123"><ele>0.0</ele><time>2026-04-30T13:05:38.034Z</time></trkpt><trkpt lat="41.8229876" lon="3.6130083"><ele>0.0</ele><time>2026-04-30T13:05:39.033Z</time></trkpt><trkpt lat="41.8230269" lon="3.6131045"><ele>0.0</ele><time>2026-04-30T13:05:40.033Z</time></trkpt><trkpt lat="41.8230594" lon="3.613208"><ele>0.0</ele><time>2026-04-30T13:05:41.033Z</time></trkpt><trkpt lat="41.8231016" lon="3.6133144"><ele>0.0</ele><time>2026-04-30T13:05:42.034Z</time></trkpt><trkpt lat="41.8231422" lon="3.6134283"><ele>0.0</ele><time>2026-04-30T13:05:43.034Z</time></trkpt><trkpt lat="41.8231817" lon="3.6135333"><ele>0.0</ele><time>2026-04-30T13:05:44.033Z</time></trkpt><trkpt lat="41.8232183" lon="3.6136398"><ele>0.0</ele><time>2026-04-30T13:05:45.033Z</time></trkpt><trkpt lat="41.823258" lon="3.6137534"><ele>0.0</ele><time>2026-04-30T13:05:46.033Z</time></trkpt><trkpt lat="41.8233038" lon="3.613861"><ele>0.0</ele><time>2026-04-30T13:05:47.034Z</time></trkpt><trkpt lat="41.8233465" lon="3.6139693"><ele>0.0</ele><time>2026-04-30T13:05:48.033Z</time></trkpt><trkpt lat="41.8233867" lon="3.6140736"><ele>0.0</ele><time>2026-04-30T13:05:49.033Z</time></trkpt><trkpt lat="41.8234248" lon="3.614187"><ele>0.0</ele><time>2026-04-30T13:05:50.033Z</time></trkpt><trkpt lat="41.82346" lon="3.6142905"><ele>0.0</ele><time>2026-04-30T13:05:51.033Z</time></trkpt><trkpt lat="41.8235358" lon="3.6144955"><ele>0.0</ele><time>2026-04-30T13:05:53.033Z</time></trkpt><trkpt lat="41.823579" lon="3.6145936"><ele>0.0</ele><time>2026-04-30T13:05:54.033Z</time></trkpt><trkpt lat="41.8236152" lon="3.6147008"><ele>0.0</ele><time>2026-04-30T13:05:55.034Z</time></trkpt><trkpt lat="41.8236523" lon="3.6147977"><ele>0.0</ele><time>2026-04-30T13:05:56.034Z</time></trkpt><trkpt lat="41.8236888" lon="3.6148987"><ele>0.0</ele><time>2026-04-30T13:05:57.034Z</time></trkpt><trkpt lat="41.8237253" lon="3.6150089"><ele>0.0</ele><time>2026-04-30T13:05:58.034Z</time></trkpt><trkpt lat="41.8237621" lon="3.6151137"><ele>0.0</ele><time>2026-04-30T13:05:59.034Z</time></trkpt><trkpt lat="41.8237976" lon="3.615213"><ele>0.0</ele><time>2026-04-30T13:06:00.033Z</time></trkpt><trkpt lat="41.8238293" lon="3.6153215"><ele>0.0</ele><time>2026-04-30T13:06:01.033Z</time></trkpt><trkpt lat="41.8238622" lon="3.6154213"><ele>0.0</ele><time>2026-04-30T13:06:02.034Z</time></trkpt><trkpt lat="41.8238999" lon="3.6155213"><ele>0.0</ele><time>2026-04-30T13:06:03.033Z</time></trkpt><trkpt lat="41.8239382" lon="3.6156237"><ele>0.0</ele><time>2026-04-30T13:06:04.033Z</time></trkpt><trkpt lat="41.8239768" lon="3.6157323"><ele>0.0</ele><time>2026-04-30T13:06:05.033Z</time></trkpt><trkpt lat="41.8240166" lon="3.6158422"><ele>0.0</ele><time>2026-04-30T13:06:06.034Z</time></trkpt><trkpt lat="41.8240548" lon="3.6159554"><ele>0.0</ele><time>2026-04-30T13:06:07.033Z</time></trkpt><trkpt lat="41.8240917" lon="3.6160673"><ele>0.0</ele><time>2026-04-30T13:06:08.034Z</time></trkpt><trkpt lat="41.8241286" lon="3.6161692"><ele>0.0</ele><time>2026-04-30T13:06:09.033Z</time></trkpt><trkpt lat="41.8241679" lon="3.6162778"><ele>0.0</ele><time>2026-04-30T13:06:10.034Z</time></trkpt><trkpt lat="41.8242083" lon="3.6163836"><ele>0.0</ele><time>2026-04-30T13:06:11.034Z</time></trkpt><trkpt lat="41.824244" lon="3.616486"><ele>0.0</ele><time>2026-04-30T13:06:12.033Z</time></trkpt><trkpt lat="41.8243105" lon="3.6166864"><ele>0.0</ele><time>2026-04-30T13:06:14.033Z</time></trkpt><trkpt lat="41.8243484" lon="3.6167917"><ele>0.0</ele><time>2026-04-30T13:06:15.034Z</time></trkpt><trkpt lat="41.8243899" lon="3.6168951"><ele>0.0</ele><time>2026-04-30T13:06:16.033Z</time></trkpt><trkpt lat="41.8244287" lon="3.6169956"><ele>0.0</ele><time>2026-04-30T13:06:17.034Z</time></trkpt><trkpt lat="41.8244671" lon="3.617101"><ele>0.0</ele><time>2026-04-30T13:06:18.033Z</time></trkpt><trkpt lat="41.8245055" lon="3.6171988"><ele>0.0</ele><time>2026-04-30T13:06:19.034Z</time></trkpt><trkpt lat="41.8245436" lon="3.6173012"><ele>0.0</ele><time>2026-04-30T13:06:20.034Z</time></trkpt><trkpt lat="41.8245788" lon="3.6174079"><ele>0.0</ele><time>2026-04-30T13:06:21.034Z</time></trkpt><trkpt lat="41.8246168" lon="3.6175134"><ele>0.0</ele><time>2026-04-30T13:06:22.033Z</time></trkpt><trkpt lat="41.8246489" lon="3.6176184"><ele>0.0</ele><time>2026-04-30T13:06:23.033Z</time></trkpt><trkpt lat="41.8246827" lon="3.6177268"><ele>0.0</ele><time>2026-04-30T13:06:24.033Z</time></trkpt><trkpt lat="41.8247203" lon="3.6178306"><ele>0.0</ele><time>2026-04-30T13:06:25.033Z</time></trkpt><trkpt lat="41.8247633" lon="3.6179337"><ele>0.0</ele><time>2026-04-30T13:06:26.033Z</time></trkpt><trkpt lat="41.8248002" lon="3.6180369"><ele>0.0</ele><time>2026-04-30T13:06:27.034Z</time></trkpt><trkpt lat="41.8248416" lon="3.6181344"><ele>0.0</ele><time>2026-04-30T13:06:28.033Z</time></trkpt><trkpt lat="41.8248799" lon="3.6182412"><ele>0.0</ele><time>2026-04-30T13:06:29.033Z</time></trkpt><trkpt lat="41.8249131" lon="3.6183435"><ele>0.0</ele><time>2026-04-30T13:06:30.034Z</time></trkpt><trkpt lat="41.8249532" lon="3.6184554"><ele>0.0</ele><time>2026-04-30T13:06:31.034Z</time></trkpt><trkpt lat="41.8249919" lon="3.6185644"><ele>0.0</ele><time>2026-04-30T13:06:32.033Z</time></trkpt><trkpt lat="41.8250296" lon="3.6186856"><ele>0.0</ele><time>2026-04-30T13:06:33.033Z</time></trkpt><trkpt lat="41.8250897" lon="3.6188934"><ele>0.0</ele><time>2026-04-30T13:06:35.034Z</time></trkpt><trkpt lat="41.8251253" lon="3.6190029"><ele>0.0</ele><time>2026-04-30T13:06:36.034Z</time></trkpt><trkpt lat="41.8251663" lon="3.6191129"><ele>0.0</ele><time>2026-04-30T13:06:37.034Z</time></trkpt><trkpt lat="41.8252034" lon="3.6192172"><ele>0.0</ele><time>2026-04-30T13:06:38.033Z</time></trkpt><trkpt lat="41.8252419" lon="3.6193204"><ele>0.0</ele><time>2026-04-30T13:06:39.033Z</time></trkpt><trkpt lat="41.8252783" lon="3.6194208"><ele>0.0</ele><time>2026-04-30T13:06:40.033Z</time></trkpt><trkpt lat="41.8253183" lon="3.6195219"><ele>0.0</ele><time>2026-04-30T13:06:41.034Z</time></trkpt><trkpt lat="41.8253553" lon="3.619622"><ele>0.0</ele><time>2026-04-30T13:06:42.033Z</time></trkpt><trkpt lat="41.8253968" lon="3.6197333"><ele>0.0</ele><time>2026-04-30T13:06:43.034Z</time></trkpt><trkpt lat="41.8254394" lon="3.6198423"><ele>0.0</ele><time>2026-04-30T13:06:44.033Z</time></trkpt><trkpt lat="41.825477" lon="3.6199516"><ele>0.0</ele><time>2026-04-30T13:06:45.034Z</time></trkpt><trkpt lat="41.8255118" lon="3.6200589"><ele>0.0</ele><time>2026-04-30T13:06:46.033Z</time></trkpt><trkpt lat="41.8255418" lon="3.6201671"><ele>0.0</ele><time>2026-04-30T13:06:47.033Z</time></trkpt><trkpt lat="41.8255755" lon="3.6202716"><ele>0.0</ele><time>2026-04-30T13:06:48.034Z</time></trkpt><trkpt lat="41.8256564" lon="3.6204703"><ele>0.0</ele><time>2026-04-30T13:06:50.034Z</time></trkpt><trkpt lat="41.8256998" lon="3.6205788"><ele>0.0</ele><time>2026-04-30T13:06:51.034Z</time></trkpt><trkpt lat="41.825743" lon="3.620689"><ele>0.0</ele><time>2026-04-30T13:06:52.033Z</time></trkpt><trkpt lat="41.8257774" lon="3.6208019"><ele>0.0</ele><time>2026-04-30T13:06:53.034Z</time></trkpt><trkpt lat="41.8258165" lon="3.6209159"><ele>0.0</ele><time>2026-04-30T13:06:54.033Z</time></trkpt><trkpt lat="41.8258856" lon="3.6211297"><ele>0.0</ele><time>2026-04-30T13:06:56.033Z</time></trkpt><trkpt lat="41.8259232" lon="3.6212381"><ele>0.0</ele><time>2026-04-30T13:06:57.034Z</time></trkpt><trkpt lat="41.8259547" lon="3.6213465"><ele>0.0</ele><time>2026-04-30T13:06:58.033Z</time></trkpt><trkpt lat="41.8259875" lon="3.6214533"><ele>0.0</ele><time>2026-04-30T13:06:59.033Z</time></trkpt><trkpt lat="41.8260236" lon="3.6215568"><ele>0.0</ele><time>2026-04-30T13:07:00.033Z</time></trkpt><trkpt lat="41.8260686" lon="3.6216508"><ele>0.0</ele><time>2026-04-30T13:07:01.034Z</time></trkpt><trkpt lat="41.8261127" lon="3.6217458"><ele>0.0</ele><time>2026-04-30T13:07:02.033Z</time></trkpt><trkpt lat="41.8261573" lon="3.6218447"><ele>0.0</ele><time>2026-04-30T13:07:03.034Z</time></trkpt><trkpt lat="41.8262065" lon="3.6219429"><ele>0.0</ele><time>2026-04-30T13:07:04.034Z</time></trkpt><trkpt lat="41.8262491" lon="3.6220494"><ele>0.0</ele><time>2026-04-30T13:07:05.034Z</time></trkpt><trkpt lat="41.8262917" lon="3.6221524"><ele>0.0</ele><time>2026-04-30T13:07:06.034Z</time></trkpt><trkpt lat="41.8263265" lon="3.6222568"><ele>0.0</ele><time>2026-04-30T13:07:07.034Z</time></trkpt><trkpt lat="41.8263609" lon="3.6223586"><ele>0.0</ele><time>2026-04-30T13:07:08.034Z</time></trkpt><trkpt lat="41.8264001" lon="3.6224674"><ele>0.0</ele><time>2026-04-30T13:07:09.034Z</time></trkpt><trkpt lat="41.8264416" lon="3.6225729"><ele>0.0</ele><time>2026-04-30T13:07:10.034Z</time></trkpt><trkpt lat="41.8264807" lon="3.6226795"><ele>0.0</ele><time>2026-04-30T13:07:11.034Z</time></trkpt><trkpt lat="41.8265211" lon="3.6227835"><ele>0.0</ele><time>2026-04-30T13:07:12.033Z</time></trkpt><trkpt lat="41.8265602" lon="3.6228856"><ele>0.0</ele><time>2026-04-30T13:07:13.034Z</time></trkpt><trkpt lat="41.8265944" lon="3.6229861"><ele>0.0</ele><time>2026-04-30T13:07:14.033Z</time></trkpt><trkpt lat="41.8266305" lon="3.6230973"><ele>0.0</ele><time>2026-04-30T13:07:15.033Z</time></trkpt><trkpt lat="41.8267207" lon="3.6233199"><ele>0.0</ele><time>2026-04-30T13:07:17.033Z</time></trkpt><trkpt lat="41.8267611" lon="3.6234237"><ele>0.0</ele><time>2026-04-30T13:07:18.034Z</time></trkpt><trkpt lat="41.8267943" lon="3.6235285"><ele>0.0</ele><time>2026-04-30T13:07:19.033Z</time></trkpt><trkpt lat="41.8268372" lon="3.6236293"><ele>0.0</ele><time>2026-04-30T13:07:20.033Z</time></trkpt><trkpt lat="41.8268748" lon="3.6237335"><ele>0.0</ele><time>2026-04-30T13:07:21.034Z</time></trkpt><trkpt lat="41.826915" lon="3.6238372"><ele>0.0</ele><time>2026-04-30T13:07:22.033Z</time></trkpt><trkpt lat="41.826958" lon="3.6239374"><ele>0.0</ele><time>2026-04-30T13:07:23.033Z</time></trkpt><trkpt lat="41.8270004" lon="3.6240359"><ele>0.0</ele><time>2026-04-30T13:07:24.033Z</time></trkpt><trkpt lat="41.8270376" lon="3.6241412"><ele>0.0</ele><time>2026-04-30T13:07:25.034Z</time></trkpt><trkpt lat="41.8270764" lon="3.6242553"><ele>0.0</ele><time>2026-04-30T13:07:26.034Z</time></trkpt><trkpt lat="41.8271146" lon="3.6243746"><ele>0.0</ele><time>2026-04-30T13:07:27.033Z</time></trkpt><trkpt lat="41.8271549" lon="3.6244792"><ele>0.0</ele><time>2026-04-30T13:07:28.033Z</time></trkpt><trkpt lat="41.8271981" lon="3.6245866"><ele>0.0</ele><time>2026-04-30T13:07:29.034Z</time></trkpt><trkpt lat="41.8272386" lon="3.6246799"><ele>0.0</ele><time>2026-04-30T13:07:30.033Z</time></trkpt><trkpt lat="41.8272799" lon="3.624779"><ele>0.0</ele><time>2026-04-30T13:07:31.033Z</time></trkpt><trkpt lat="41.8273215" lon="3.6248807"><ele>0.0</ele><time>2026-04-30T13:07:32.034Z</time></trkpt><trkpt lat="41.8273623" lon="3.6249693"><ele>0.0</ele><time>2026-04-30T13:07:33.033Z</time></trkpt><trkpt lat="41.8274105" lon="3.6250813"><ele>0.0</ele><time>2026-04-30T13:07:34.033Z</time></trkpt><trkpt lat="41.8274535" lon="3.6251876"><ele>0.0</ele><time>2026-04-30T13:07:35.033Z</time></trkpt><trkpt lat="41.8274977" lon="3.6252929"><ele>0.0</ele><time>2026-04-30T13:07:36.033Z</time></trkpt><trkpt lat="41.8275755" lon="3.6255051"><ele>0.0</ele><time>2026-04-30T13:07:38.033Z</time></trkpt><trkpt lat="41.8276123" lon="3.6256011"><ele>0.0</ele><time>2026-04-30T13:07:39.033Z</time></trkpt><trkpt lat="41.8276459" lon="3.6256947"><ele>0.0</ele><time>2026-04-30T13:07:40.034Z</time></trkpt><trkpt lat="41.8276878" lon="3.6258152"><ele>0.0</ele><time>2026-04-30T13:07:41.033Z</time></trkpt><trkpt lat="41.8277271" lon="3.62592"><ele>0.0</ele><time>2026-04-30T13:07:42.033Z</time></trkpt><trkpt lat="41.8277563" lon="3.6260192"><ele>0.0</ele><time>2026-04-30T13:07:43.034Z</time></trkpt><trkpt lat="41.8277931" lon="3.6261301"><ele>0.0</ele><time>2026-04-30T13:07:44.033Z</time></trkpt><trkpt lat="41.8278317" lon="3.6262346"><ele>0.0</ele><time>2026-04-30T13:07:45.033Z</time></trkpt><trkpt lat="41.8278686" lon="3.6263385"><ele>0.0</ele><time>2026-04-30T13:07:46.033Z</time></trkpt><trkpt lat="41.8279072" lon="3.6264403"><ele>0.0</ele><time>2026-04-30T13:07:47.034Z</time></trkpt><trkpt lat="41.8279501" lon="3.6265437"><ele>0.0</ele><time>2026-04-30T13:07:48.034Z</time></trkpt><trkpt lat="41.8279889" lon="3.6266453"><ele>0.0</ele><time>2026-04-30T13:07:49.034Z</time></trkpt><trkpt lat="41.8280283" lon="3.6267526"><ele>0.0</ele><time>2026-04-30T13:07:50.034Z</time></trkpt><trkpt lat="41.8280613" lon="3.6268653"><ele>0.0</ele><time>2026-04-30T13:07:51.033Z</time></trkpt><trkpt lat="41.8281004" lon="3.6269685"><ele>0.0</ele><time>2026-04-30T13:07:52.033Z</time></trkpt><trkpt lat="41.82817" lon="3.6271735"><ele>0.0</ele><time>2026-04-30T13:07:54.033Z</time></trkpt><trkpt lat="41.8282032" lon="3.627275"><ele>0.0</ele><time>2026-04-30T13:07:55.033Z</time></trkpt><trkpt lat="41.8282389" lon="3.6273811"><ele>0.0</ele><time>2026-04-30T13:07:56.033Z</time></trkpt><trkpt lat="41.8282801" lon="3.6274888"><ele>0.0</ele><time>2026-04-30T13:07:57.034Z</time></trkpt><trkpt lat="41.8283426" lon="3.6277194"><ele>0.0</ele><time>2026-04-30T13:07:59.033Z</time></trkpt><trkpt lat="41.8283771" lon="3.6278237"><ele>0.0</ele><time>2026-04-30T13:08:00.034Z</time></trkpt><trkpt lat="41.8284152" lon="3.627936"><ele>0.0</ele><time>2026-04-30T13:08:01.033Z</time></trkpt><trkpt lat="41.8284449" lon="3.628046"><ele>0.0</ele><time>2026-04-30T13:08:02.034Z</time></trkpt><trkpt lat="41.8284732" lon="3.6281544"><ele>0.0</ele><time>2026-04-30T13:08:03.034Z</time></trkpt><trkpt lat="41.8285102" lon="3.62826"><ele>0.0</ele><time>2026-04-30T13:08:04.033Z</time></trkpt><trkpt lat="41.8285357" lon="3.6283679"><ele>0.0</ele><time>2026-04-30T13:08:05.033Z</time></trkpt><trkpt lat="41.8285677" lon="3.6284764"><ele>0.0</ele><time>2026-04-30T13:08:06.033Z</time></trkpt><trkpt lat="41.8285979" lon="3.6285762"><ele>0.0</ele><time>2026-04-30T13:08:07.034Z</time></trkpt><trkpt lat="41.8286439" lon="3.6286745"><ele>0.0</ele><time>2026-04-30T13:08:08.034Z</time></trkpt><trkpt lat="41.8286851" lon="3.628773"><ele>0.0</ele><time>2026-04-30T13:08:09.034Z</time></trkpt><trkpt lat="41.8287294" lon="3.6288696"><ele>0.0</ele><time>2026-04-30T13:08:10.033Z</time></trkpt><trkpt lat="41.8287718" lon="3.6289721"><ele>0.0</ele><time>2026-04-30T13:08:11.034Z</time></trkpt><trkpt lat="41.828816" lon="3.6290762"><ele>0.0</ele><time>2026-04-30T13:08:12.034Z</time></trkpt><trkpt lat="41.8288536" lon="3.6291827"><ele>0.0</ele><time>2026-04-30T13:08:13.034Z</time></trkpt><trkpt lat="41.8288907" lon="3.6292814"><ele>0.0</ele><time>2026-04-30T13:08:14.033Z</time></trkpt><trkpt lat="41.8289332" lon="3.6293839"><ele>0.0</ele><time>2026-04-30T13:08:15.033Z</time></trkpt><trkpt lat="41.828968" lon="3.6294916"><ele>0.0</ele><time>2026-04-30T13:08:16.033Z</time></trkpt><trkpt lat="41.8290095" lon="3.6296023"><ele>0.0</ele><time>2026-04-30T13:08:17.034Z</time></trkpt><trkpt lat="41.8290865" lon="3.6298073"><ele>0.0</ele><time>2026-04-30T13:08:19.034Z</time></trkpt><trkpt lat="41.8291226" lon="3.6299284"><ele>0.0</ele><time>2026-04-30T13:08:20.033Z</time></trkpt><trkpt lat="41.8291651" lon="3.6300389"><ele>0.0</ele><time>2026-04-30T13:08:21.034Z</time></trkpt><trkpt lat="41.8292051" lon="3.6301403"><ele>0.0</ele><time>2026-04-30T13:08:22.034Z</time></trkpt><trkpt lat="41.8292452" lon="3.630245"><ele>0.0</ele><time>2026-04-30T13:08:23.034Z</time></trkpt><trkpt lat="41.8292824" lon="3.630344"><ele>0.0</ele><time>2026-04-30T13:08:24.033Z</time></trkpt><trkpt lat="41.829372" lon="3.6305347"><ele>0.0</ele><time>2026-04-30T13:08:26.033Z</time></trkpt><trkpt lat="41.8294163" lon="3.6306475"><ele>0.0</ele><time>2026-04-30T13:08:27.033Z</time></trkpt><trkpt lat="41.8294572" lon="3.6307483"><ele>0.0</ele><time>2026-04-30T13:08:28.034Z</time></trkpt><trkpt lat="41.8294954" lon="3.630857"><ele>0.0</ele><time>2026-04-30T13:08:29.033Z</time></trkpt><trkpt lat="41.8295306" lon="3.6309605"><ele>0.0</ele><time>2026-04-30T13:08:30.033Z</time></trkpt><trkpt lat="41.82957" lon="3.6310698"><ele>0.0</ele><time>2026-04-30T13:08:31.033Z</time></trkpt><trkpt lat="41.8296099" lon="3.631174"><ele>0.0</ele><time>2026-04-30T13:08:32.034Z</time></trkpt><trkpt lat="41.8296475" lon="3.631273"><ele>0.0</ele><time>2026-04-30T13:08:33.033Z</time></trkpt><trkpt lat="41.8296866" lon="3.6313791"><ele>0.0</ele><time>2026-04-30T13:08:34.034Z</time></trkpt><trkpt lat="41.8297269" lon="3.6314791"><ele>0.0</ele><time>2026-04-30T13:08:35.034Z</time></trkpt><trkpt lat="41.8297637" lon="3.6315789"><ele>0.0</ele><time>2026-04-30T13:08:36.033Z</time></trkpt><trkpt lat="41.8298048" lon="3.631689"><ele>0.0</ele><time>2026-04-30T13:08:37.033Z</time></trkpt><trkpt lat="41.829845" lon="3.6317922"><ele>0.0</ele><time>2026-04-30T13:08:38.034Z</time></trkpt><trkpt lat="41.8299296" lon="3.6320141"><ele>0.0</ele><time>2026-04-30T13:08:40.033Z</time></trkpt><trkpt lat="41.8299717" lon="3.6321214"><ele>0.0</ele><time>2026-04-30T13:08:41.034Z</time></trkpt><trkpt lat="41.8300108" lon="3.6322239"><ele>0.0</ele><time>2026-04-30T13:08:42.034Z</time></trkpt><trkpt lat="41.8300606" lon="3.6323257"><ele>0.0</ele><time>2026-04-30T13:08:43.033Z</time></trkpt><trkpt lat="41.8301018" lon="3.63243"><ele>0.0</ele><time>2026-04-30T13:08:44.034Z</time></trkpt><trkpt lat="41.8301475" lon="3.6325279"><ele>0.0</ele><time>2026-04-30T13:08:45.033Z</time></trkpt><trkpt lat="41.8301912" lon="3.6326303"><ele>0.0</ele><time>2026-04-30T13:08:46.033Z</time></trkpt><trkpt lat="41.8302319" lon="3.6327308"><ele>0.0</ele><time>2026-04-30T13:08:47.033Z</time></trkpt><trkpt lat="41.8302689" lon="3.6328338"><ele>0.0</ele><time>2026-04-30T13:08:48.034Z</time></trkpt><trkpt lat="41.8303044" lon="3.6329298"><ele>0.0</ele><time>2026-04-30T13:08:49.033Z</time></trkpt><trkpt lat="41.830335" lon="3.6330345"><ele>0.0</ele><time>2026-04-30T13:08:50.034Z</time></trkpt><trkpt lat="41.830372" lon="3.633143"><ele>0.0</ele><time>2026-04-30T13:08:51.033Z</time></trkpt><trkpt lat="41.8304058" lon="3.6332441"><ele>0.0</ele><time>2026-04-30T13:08:52.034Z</time></trkpt><trkpt lat="41.8304409" lon="3.6333429"><ele>0.0</ele><time>2026-04-30T13:08:53.033Z</time></trkpt><trkpt lat="41.8304758" lon="3.6334452"><ele>0.0</ele><time>2026-04-30T13:08:54.034Z</time></trkpt><trkpt lat="41.8305124" lon="3.6335475"><ele>0.0</ele><time>2026-04-30T13:08:55.033Z</time></trkpt><trkpt lat="41.8305519" lon="3.6336501"><ele>0.0</ele><time>2026-04-30T13:08:56.034Z</time></trkpt><trkpt lat="41.830632" lon="3.6338515"><ele>0.0</ele><time>2026-04-30T13:08:58.034Z</time></trkpt><trkpt lat="41.8306718" lon="3.63395"><ele>0.0</ele><time>2026-04-30T13:08:59.033Z</time></trkpt><trkpt lat="41.8307516" lon="3.6341809"><ele>0.0</ele><time>2026-04-30T13:09:01.033Z</time></trkpt><trkpt lat="41.8307859" lon="3.6342911"><ele>0.0</ele><time>2026-04-30T13:09:02.033Z</time></trkpt><trkpt lat="41.8308282" lon="3.6343967"><ele>0.0</ele><time>2026-04-30T13:09:03.034Z</time></trkpt><trkpt lat="41.8308658" lon="3.6344975"><ele>0.0</ele><time>2026-04-30T13:09:04.033Z</time></trkpt><trkpt lat="41.8309011" lon="3.6345961"><ele>0.0</ele><time>2026-04-30T13:09:05.034Z</time></trkpt><trkpt lat="41.8309436" lon="3.6347298"><ele>0.0</ele><time>2026-04-30T13:09:06.034Z</time></trkpt><trkpt lat="41.8309758" lon="3.6348343"><ele>0.0</ele><time>2026-04-30T13:09:07.034Z</time></trkpt><trkpt lat="41.8310089" lon="3.6349449"><ele>0.0</ele><time>2026-04-30T13:09:08.033Z</time></trkpt><trkpt lat="41.8310426" lon="3.6350474"><ele>0.0</ele><time>2026-04-30T13:09:09.033Z</time></trkpt><trkpt lat="41.8310755" lon="3.6351576"><ele>0.0</ele><time>2026-04-30T13:09:10.034Z</time></trkpt><trkpt lat="41.8311116" lon="3.6352593"><ele>0.0</ele><time>2026-04-30T13:09:11.034Z</time></trkpt><trkpt lat="41.8311483" lon="3.6353608"><ele>0.0</ele><time>2026-04-30T13:09:12.034Z</time></trkpt><trkpt lat="41.831185" lon="3.6354679"><ele>0.0</ele><time>2026-04-30T13:09:13.034Z</time></trkpt><trkpt lat="41.8312245" lon="3.6355817"><ele>0.0</ele><time>2026-04-30T13:09:14.033Z</time></trkpt><trkpt lat="41.8312618" lon="3.6356922"><ele>0.0</ele><time>2026-04-30T13:09:15.033Z</time></trkpt><trkpt lat="41.8312971" lon="3.6358014"><ele>0.0</ele><time>2026-04-30T13:09:16.034Z</time></trkpt><trkpt lat="41.8313335" lon="3.6359078"><ele>0.0</ele><time>2026-04-30T13:09:17.033Z</time></trkpt><trkpt lat="41.8313687" lon="3.6360106"><ele>0.0</ele><time>2026-04-30T13:09:18.033Z</time></trkpt><trkpt lat="41.8314113" lon="3.6361295"><ele>0.0</ele><time>2026-04-30T13:09:19.033Z</time></trkpt><trkpt lat="41.831444" lon="3.6362222"><ele>0.0</ele><time>2026-04-30T13:09:20.034Z</time></trkpt><trkpt lat="41.8315152" lon="3.6364188"><ele>0.0</ele><time>2026-04-30T13:09:22.034Z</time></trkpt><trkpt lat="41.831555" lon="3.6365275"><ele>0.0</ele><time>2026-04-30T13:09:23.033Z</time></trkpt><trkpt lat="41.8315933" lon="3.6366275"><ele>0.0</ele><time>2026-04-30T13:09:24.034Z</time></trkpt><trkpt lat="41.8316405" lon="3.6367366"><ele>0.0</ele><time>2026-04-30T13:09:25.033Z</time></trkpt><trkpt lat="41.8316812" lon="3.6368423"><ele>0.0</ele><time>2026-04-30T13:09:26.033Z</time></trkpt><trkpt lat="41.8317185" lon="3.636939"><ele>0.0</ele><time>2026-04-30T13:09:27.033Z</time></trkpt><trkpt lat="41.8317612" lon="3.6370441"><ele>0.0</ele><time>2026-04-30T13:09:28.034Z</time></trkpt><trkpt lat="41.8318398" lon="3.637259"><ele>0.0</ele><time>2026-04-30T13:09:30.034Z</time></trkpt><trkpt lat="41.8318815" lon="3.6373671"><ele>0.0</ele><time>2026-04-30T13:09:31.034Z</time></trkpt><trkpt lat="41.8319248" lon="3.63748"><ele>0.0</ele><time>2026-04-30T13:09:32.034Z</time></trkpt><trkpt lat="41.8319618" lon="3.6375896"><ele>0.0</ele><time>2026-04-30T13:09:33.033Z</time></trkpt><trkpt lat="41.8320003" lon="3.6376966"><ele>0.0</ele><time>2026-04-30T13:09:34.033Z</time></trkpt><trkpt lat="41.8320356" lon="3.6377989"><ele>0.0</ele><time>2026-04-30T13:09:35.034Z</time></trkpt><trkpt lat="41.832069" lon="3.6379051"><ele>0.0</ele><time>2026-04-30T13:09:36.033Z</time></trkpt><trkpt lat="41.8321069" lon="3.6380103"><ele>0.0</ele><time>2026-04-30T13:09:37.034Z</time></trkpt><trkpt lat="41.8321473" lon="3.6381125"><ele>0.0</ele><time>2026-04-30T13:09:38.033Z</time></trkpt><trkpt lat="41.8321821" lon="3.6382182"><ele>0.0</ele><time>2026-04-30T13:09:39.032Z</time></trkpt><trkpt lat="41.8322228" lon="3.6383274"><ele>0.0</ele><time>2026-04-30T13:09:40.033Z</time></trkpt><trkpt lat="41.8322603" lon="3.6384273"><ele>0.0</ele><time>2026-04-30T13:09:41.032Z</time></trkpt><trkpt lat="41.8323386" lon="3.6386306"><ele>0.0</ele><time>2026-04-30T13:09:43.032Z</time></trkpt><trkpt lat="41.8323802" lon="3.6387306"><ele>0.0</ele><time>2026-04-30T13:09:44.033Z</time></trkpt><trkpt lat="41.8324198" lon="3.6388323"><ele>0.0</ele><time>2026-04-30T13:09:45.033Z</time></trkpt><trkpt lat="41.8324645" lon="3.6389383"><ele>0.0</ele><time>2026-04-30T13:09:46.033Z</time></trkpt><trkpt lat="41.8325104" lon="3.639042"><ele>0.0</ele><time>2026-04-30T13:09:47.032Z</time></trkpt><trkpt lat="41.8325559" lon="3.639151"><ele>0.0</ele><time>2026-04-30T13:09:48.033Z</time></trkpt><trkpt lat="41.8325935" lon="3.6392582"><ele>0.0</ele><time>2026-04-30T13:09:49.032Z</time></trkpt><trkpt lat="41.8326287" lon="3.6393607"><ele>0.0</ele><time>2026-04-30T13:09:50.033Z</time></trkpt><trkpt lat="41.8326727" lon="3.6394655"><ele>0.0</ele><time>2026-04-30T13:09:51.033Z</time></trkpt><trkpt lat="41.8327078" lon="3.6395719"><ele>0.0</ele><time>2026-04-30T13:09:52.032Z</time></trkpt><trkpt lat="41.8327426" lon="3.639671"><ele>0.0</ele><time>2026-04-30T13:09:53.033Z</time></trkpt><trkpt lat="41.8327821" lon="3.6397747"><ele>0.0</ele><time>2026-04-30T13:09:54.033Z</time></trkpt><trkpt lat="41.8328205" lon="3.6398798"><ele>0.0</ele><time>2026-04-30T13:09:55.032Z</time></trkpt><trkpt lat="41.8328572" lon="3.6399891"><ele>0.0</ele><time>2026-04-30T13:09:56.033Z</time></trkpt><trkpt lat="41.8329024" lon="3.6401063"><ele>0.0</ele><time>2026-04-30T13:09:57.033Z</time></trkpt><trkpt lat="41.8329378" lon="3.6402093"><ele>0.0</ele><time>2026-04-30T13:09:58.032Z</time></trkpt><trkpt lat="41.8329756" lon="3.6403167"><ele>0.0</ele><time>2026-04-30T13:09:59.033Z</time></trkpt><trkpt lat="41.8330123" lon="3.6404244"><ele>0.0</ele><time>2026-04-30T13:10:00.032Z</time></trkpt><trkpt lat="41.8330846" lon="3.6406436"><ele>0.0</ele><time>2026-04-30T13:10:02.032Z</time></trkpt><trkpt lat="41.8331604" lon="3.6408555"><ele>0.0</ele><time>2026-04-30T13:10:04.033Z</time></trkpt><trkpt lat="41.8331968" lon="3.6409617"><ele>0.0</ele><time>2026-04-30T13:10:05.033Z</time></trkpt><trkpt lat="41.8332351" lon="3.6410684"><ele>0.0</ele><time>2026-04-30T13:10:06.033Z</time></trkpt><trkpt lat="41.8332702" lon="3.6411767"><ele>0.0</ele><time>2026-04-30T13:10:07.032Z</time></trkpt><trkpt lat="41.833302" lon="3.6412795"><ele>0.0</ele><time>2026-04-30T13:10:08.032Z</time></trkpt><trkpt lat="41.833343" lon="3.6413826"><ele>0.0</ele><time>2026-04-30T13:10:09.033Z</time></trkpt><trkpt lat="41.8333892" lon="3.6414855"><ele>0.0</ele><time>2026-04-30T13:10:10.032Z</time></trkpt><trkpt lat="41.8334273" lon="3.6415885"><ele>0.0</ele><time>2026-04-30T13:10:11.032Z</time></trkpt><trkpt lat="41.8334669" lon="3.641693"><ele>0.0</ele><time>2026-04-30T13:10:12.033Z</time></trkpt><trkpt lat="41.83351" lon="3.6417976"><ele>0.0</ele><time>2026-04-30T13:10:13.033Z</time></trkpt><trkpt lat="41.8335561" lon="3.6419031"><ele>0.0</ele><time>2026-04-30T13:10:14.033Z</time></trkpt><trkpt lat="41.8335952" lon="3.6420008"><ele>0.0</ele><time>2026-04-30T13:10:15.033Z</time></trkpt><trkpt lat="41.8336335" lon="3.6421035"><ele>0.0</ele><time>2026-04-30T13:10:16.033Z</time></trkpt><trkpt lat="41.8336673" lon="3.6422084"><ele>0.0</ele><time>2026-04-30T13:10:17.032Z</time></trkpt><trkpt lat="41.8337036" lon="3.6423204"><ele>0.0</ele><time>2026-04-30T13:10:18.032Z</time></trkpt><trkpt lat="41.8337411" lon="3.6424248"><ele>0.0</ele><time>2026-04-30T13:10:19.033Z</time></trkpt><trkpt lat="41.8337837" lon="3.6425353"><ele>0.0</ele><time>2026-04-30T13:10:20.033Z</time></trkpt><trkpt lat="41.8338328" lon="3.6426438"><ele>0.0</ele><time>2026-04-30T13:10:21.033Z</time></trkpt><trkpt lat="41.8338751" lon="3.6427482"><ele>0.0</ele><time>2026-04-30T13:10:22.032Z</time></trkpt><trkpt lat="41.8339455" lon="3.642949"><ele>0.0</ele><time>2026-04-30T13:10:24.032Z</time></trkpt><trkpt lat="41.8339846" lon="3.6430549"><ele>0.0</ele><time>2026-04-30T13:10:25.032Z</time></trkpt><trkpt lat="41.8340191" lon="3.6431546"><ele>0.0</ele><time>2026-04-30T13:10:26.033Z</time></trkpt><trkpt lat="41.8340508" lon="3.643257"><ele>0.0</ele><time>2026-04-30T13:10:27.032Z</time></trkpt><trkpt lat="41.8340896" lon="3.6433631"><ele>0.0</ele><time>2026-04-30T13:10:28.033Z</time></trkpt><trkpt lat="41.834131" lon="3.6434766"><ele>0.0</ele><time>2026-04-30T13:10:29.032Z</time></trkpt><trkpt lat="41.8341714" lon="3.6435903"><ele>0.0</ele><time>2026-04-30T13:10:30.032Z</time></trkpt><trkpt lat="41.834213" lon="3.6436992"><ele>0.0</ele><time>2026-04-30T13:10:31.032Z</time></trkpt><trkpt lat="41.8342448" lon="3.6438045"><ele>0.0</ele><time>2026-04-30T13:10:32.032Z</time></trkpt><trkpt lat="41.8343231" lon="3.6440191"><ele>0.0</ele><time>2026-04-30T13:10:34.032Z</time></trkpt><trkpt lat="41.8343664" lon="3.6441271"><ele>0.0</ele><time>2026-04-30T13:10:35.033Z</time></trkpt><trkpt lat="41.8344079" lon="3.6442328"><ele>0.0</ele><time>2026-04-30T13:10:36.032Z</time></trkpt><trkpt lat="41.8344537" lon="3.644347"><ele>0.0</ele><time>2026-04-30T13:10:37.032Z</time></trkpt><trkpt lat="41.8344918" lon="3.644452"><ele>0.0</ele><time>2026-04-30T13:10:38.032Z</time></trkpt><trkpt lat="41.8345286" lon="3.6445513"><ele>0.0</ele><time>2026-04-30T13:10:39.033Z</time></trkpt><trkpt lat="41.8345664" lon="3.6446592"><ele>0.0</ele><time>2026-04-30T13:10:40.032Z</time></trkpt><trkpt lat="41.8346035" lon="3.6447621"><ele>0.0</ele><time>2026-04-30T13:10:41.033Z</time></trkpt><trkpt lat="41.8346404" lon="3.6448651"><ele>0.0</ele><time>2026-04-30T13:10:42.032Z</time></trkpt><trkpt lat="41.83468" lon="3.6449643"><ele>0.0</ele><time>2026-04-30T13:10:43.032Z</time></trkpt><trkpt lat="41.8347539" lon="3.6451734"><ele>0.0</ele><time>2026-04-30T13:10:45.033Z</time></trkpt><trkpt lat="41.8347838" lon="3.6452812"><ele>0.0</ele><time>2026-04-30T13:10:46.033Z</time></trkpt><trkpt lat="41.8348136" lon="3.6453937"><ele>0.0</ele><time>2026-04-30T13:10:47.032Z</time></trkpt><trkpt lat="41.8348432" lon="3.6455039"><ele>0.0</ele><time>2026-04-30T13:10:48.033Z</time></trkpt><trkpt lat="41.8348763" lon="3.6456109"><ele>0.0</ele><time>2026-04-30T13:10:49.032Z</time></trkpt><trkpt lat="41.8349137" lon="3.6457093"><ele>0.0</ele><time>2026-04-30T13:10:50.032Z</time></trkpt><trkpt lat="41.8349487" lon="3.6458047"><ele>0.0</ele><time>2026-04-30T13:10:51.032Z</time></trkpt><trkpt lat="41.8349848" lon="3.6459084"><ele>0.0</ele><time>2026-04-30T13:10:52.032Z</time></trkpt><trkpt lat="41.835025" lon="3.6460121"><ele>0.0</ele><time>2026-04-30T13:10:53.033Z</time></trkpt><trkpt lat="41.8350681" lon="3.646117"><ele>0.0</ele><time>2026-04-30T13:10:54.032Z</time></trkpt><trkpt lat="41.835108" lon="3.6462246"><ele>0.0</ele><time>2026-04-30T13:10:55.032Z</time></trkpt><trkpt lat="41.8351494" lon="3.6463356"><ele>0.0</ele><time>2026-04-30T13:10:56.032Z</time></trkpt><trkpt lat="41.8351886" lon="3.6464419"><ele>0.0</ele><time>2026-04-30T13:10:57.032Z</time></trkpt><trkpt lat="41.8352298" lon="3.6465524"><ele>0.0</ele><time>2026-04-30T13:10:58.033Z</time></trkpt><trkpt lat="41.8352676" lon="3.646661"><ele>0.0</ele><time>2026-04-30T13:10:59.032Z</time></trkpt><trkpt lat="41.8353043" lon="3.6467737"><ele>0.0</ele><time>2026-04-30T13:11:00.033Z</time></trkpt><trkpt lat="41.8353506" lon="3.6468821"><ele>0.0</ele><time>2026-04-30T13:11:01.033Z</time></trkpt><trkpt lat="41.8353903" lon="3.6469824"><ele>0.0</ele><time>2026-04-30T13:11:02.032Z</time></trkpt><trkpt lat="41.8354288" lon="3.6470867"><ele>0.0</ele><time>2026-04-30T13:11:03.033Z</time></trkpt><trkpt lat="41.8354712" lon="3.6471957"><ele>0.0</ele><time>2026-04-30T13:11:04.032Z</time></trkpt><trkpt lat="41.8355905" lon="3.6474797"><ele>0.0</ele><time>2026-04-30T13:11:07.033Z</time></trkpt><trkpt lat="41.8356306" lon="3.6475774"><ele>0.0</ele><time>2026-04-30T13:11:08.033Z</time></trkpt><trkpt lat="41.8356616" lon="3.6476803"><ele>0.0</ele><time>2026-04-30T13:11:09.032Z</time></trkpt><trkpt lat="41.835696" lon="3.6477878"><ele>0.0</ele><time>2026-04-30T13:11:10.032Z</time></trkpt><trkpt lat="41.8357307" lon="3.6478963"><ele>0.0</ele><time>2026-04-30T13:11:11.032Z</time></trkpt><trkpt lat="41.8357673" lon="3.6480045"><ele>0.0</ele><time>2026-04-30T13:11:12.033Z</time></trkpt><trkpt lat="41.8358094" lon="3.6481117"><ele>0.0</ele><time>2026-04-30T13:11:13.032Z</time></trkpt><trkpt lat="41.8358515" lon="3.6482209"><ele>0.0</ele><time>2026-04-30T13:11:14.032Z</time></trkpt><trkpt lat="41.8358903" lon="3.6483239"><ele>0.0</ele><time>2026-04-30T13:11:15.033Z</time></trkpt><trkpt lat="41.8359314" lon="3.6484312"><ele>0.0</ele><time>2026-04-30T13:11:16.032Z</time></trkpt><trkpt lat="41.8359699" lon="3.6485408"><ele>0.0</ele><time>2026-04-30T13:11:17.033Z</time></trkpt><trkpt lat="41.8360101" lon="3.6486539"><ele>0.0</ele><time>2026-04-30T13:11:18.033Z</time></trkpt><trkpt lat="41.8360467" lon="3.6487656"><ele>0.0</ele><time>2026-04-30T13:11:19.032Z</time></trkpt><trkpt lat="41.836086" lon="3.648883"><ele>0.0</ele><time>2026-04-30T13:11:20.032Z</time></trkpt><trkpt lat="41.8361275" lon="3.6489914"><ele>0.0</ele><time>2026-04-30T13:11:21.033Z</time></trkpt><trkpt lat="41.836165" lon="3.6490971"><ele>0.0</ele><time>2026-04-30T13:11:22.033Z</time></trkpt><trkpt lat="41.8362018" lon="3.6492007"><ele>0.0</ele><time>2026-04-30T13:11:23.032Z</time></trkpt><trkpt lat="41.8362413" lon="3.6493124"><ele>0.0</ele><time>2026-04-30T13:11:24.032Z</time></trkpt><trkpt lat="41.8362799" lon="3.6494198"><ele>0.0</ele><time>2026-04-30T13:11:25.033Z</time></trkpt><trkpt lat="41.8363181" lon="3.6495322"><ele>0.0</ele><time>2026-04-30T13:11:26.032Z</time></trkpt><trkpt lat="41.8363886" lon="3.6497407"><ele>0.0</ele><time>2026-04-30T13:11:28.032Z</time></trkpt><trkpt lat="41.8364256" lon="3.6498439"><ele>0.0</ele><time>2026-04-30T13:11:29.032Z</time></trkpt><trkpt lat="41.8364608" lon="3.6499442"><ele>0.0</ele><time>2026-04-30T13:11:30.032Z</time></trkpt><trkpt lat="41.8364928" lon="3.6500427"><ele>0.0</ele><time>2026-04-30T13:11:31.033Z</time></trkpt><trkpt lat="41.8365229" lon="3.6501554"><ele>0.0</ele><time>2026-04-30T13:11:32.033Z</time></trkpt><trkpt lat="41.8365583" lon="3.6502659"><ele>0.0</ele><time>2026-04-30T13:11:33.032Z</time></trkpt><trkpt lat="41.8365949" lon="3.6503743"><ele>0.0</ele><time>2026-04-30T13:11:34.033Z</time></trkpt><trkpt lat="41.8366379" lon="3.6504782"><ele>0.0</ele><time>2026-04-30T13:11:35.032Z</time></trkpt><trkpt lat="41.8366785" lon="3.6505819"><ele>0.0</ele><time>2026-04-30T13:11:36.032Z</time></trkpt><trkpt lat="41.8367621" lon="3.6507964"><ele>0.0</ele><time>2026-04-30T13:11:38.032Z</time></trkpt><trkpt lat="41.8368" lon="3.6509029"><ele>0.0</ele><time>2026-04-30T13:11:39.032Z</time></trkpt><trkpt lat="41.8368508" lon="3.6510008"><ele>0.0</ele><time>2026-04-30T13:11:40.032Z</time></trkpt><trkpt lat="41.8368942" lon="3.6511095"><ele>0.0</ele><time>2026-04-30T13:11:41.033Z</time></trkpt><trkpt lat="41.8369334" lon="3.6512093"><ele>0.0</ele><time>2026-04-30T13:11:42.033Z</time></trkpt><trkpt lat="41.8369729" lon="3.6513209"><ele>0.0</ele><time>2026-04-30T13:11:43.032Z</time></trkpt><trkpt lat="41.8370089" lon="3.6514199"><ele>0.0</ele><time>2026-04-30T13:11:44.032Z</time></trkpt><trkpt lat="41.8370524" lon="3.6515294"><ele>0.0</ele><time>2026-04-30T13:11:45.032Z</time></trkpt><trkpt lat="41.8370946" lon="3.6516302"><ele>0.0</ele><time>2026-04-30T13:11:46.032Z</time></trkpt><trkpt lat="41.8371338" lon="3.6517303"><ele>0.0</ele><time>2026-04-30T13:11:47.033Z</time></trkpt><trkpt lat="41.8372041" lon="3.6519336"><ele>0.0</ele><time>2026-04-30T13:11:49.033Z</time></trkpt><trkpt lat="41.8372405" lon="3.6520367"><ele>0.0</ele><time>2026-04-30T13:11:50.032Z</time></trkpt><trkpt lat="41.8372772" lon="3.6521343"><ele>0.0</ele><time>2026-04-30T13:11:51.033Z</time></trkpt><trkpt lat="41.8373153" lon="3.6522364"><ele>0.0</ele><time>2026-04-30T13:11:52.033Z</time></trkpt><trkpt lat="41.8373526" lon="3.6523341"><ele>0.0</ele><time>2026-04-30T13:11:53.033Z</time></trkpt><trkpt lat="41.8373918" lon="3.6524406"><ele>0.0</ele><time>2026-04-30T13:11:54.033Z</time></trkpt><trkpt lat="41.8374351" lon="3.6525433"><ele>0.0</ele><time>2026-04-30T13:11:55.033Z</time></trkpt><trkpt lat="41.8374725" lon="3.652638"><ele>0.0</ele><time>2026-04-30T13:11:56.032Z</time></trkpt><trkpt lat="41.8375117" lon="3.652747"><ele>0.0</ele><time>2026-04-30T13:11:57.032Z</time></trkpt><trkpt lat="41.8375532" lon="3.6528571"><ele>0.0</ele><time>2026-04-30T13:11:58.032Z</time></trkpt><trkpt lat="41.8375936" lon="3.6529661"><ele>0.0</ele><time>2026-04-30T13:11:59.032Z</time></trkpt><trkpt lat="41.8376321" lon="3.6530732"><ele>0.0</ele><time>2026-04-30T13:12:00.033Z</time></trkpt><trkpt lat="41.8376717" lon="3.6531825"><ele>0.0</ele><time>2026-04-30T13:12:01.032Z</time></trkpt><trkpt lat="41.8377114" lon="3.6532917"><ele>0.0</ele><time>2026-04-30T13:12:02.032Z</time></trkpt><trkpt lat="41.8377476" lon="3.6534044"><ele>0.0</ele><time>2026-04-30T13:12:03.033Z</time></trkpt><trkpt lat="41.8377818" lon="3.6535168"><ele>0.0</ele><time>2026-04-30T13:12:04.033Z</time></trkpt><trkpt lat="41.837817" lon="3.6536177"><ele>0.0</ele><time>2026-04-30T13:12:05.032Z</time></trkpt><trkpt lat="41.8378537" lon="3.653718"><ele>0.0</ele><time>2026-04-30T13:12:06.032Z</time></trkpt><trkpt lat="41.8378944" lon="3.6538291"><ele>0.0</ele><time>2026-04-30T13:12:07.032Z</time></trkpt><trkpt lat="41.837937" lon="3.6539298"><ele>0.0</ele><time>2026-04-30T13:12:08.032Z</time></trkpt><trkpt lat="41.8380134" lon="3.6541398"><ele>0.0</ele><time>2026-04-30T13:12:10.033Z</time></trkpt><trkpt lat="41.8380549" lon="3.6542432"><ele>0.0</ele><time>2026-04-30T13:12:11.033Z</time></trkpt><trkpt lat="41.8380934" lon="3.6543493"><ele>0.0</ele><time>2026-04-30T13:12:12.032Z</time></trkpt><trkpt lat="41.8381331" lon="3.6544603"><ele>0.0</ele><time>2026-04-30T13:12:13.032Z</time></trkpt><trkpt lat="41.8381709" lon="3.6545735"><ele>0.0</ele><time>2026-04-30T13:12:14.033Z</time></trkpt><trkpt lat="41.8382154" lon="3.6546871"><ele>0.0</ele><time>2026-04-30T13:12:15.032Z</time></trkpt><trkpt lat="41.8382563" lon="3.6548006"><ele>0.0</ele><time>2026-04-30T13:12:16.033Z</time></trkpt><trkpt lat="41.8382931" lon="3.6549081"><ele>0.0</ele><time>2026-04-30T13:12:17.032Z</time></trkpt><trkpt lat="41.8383331" lon="3.6550118"><ele>0.0</ele><time>2026-04-30T13:12:18.032Z</time></trkpt><trkpt lat="41.8383716" lon="3.6551081"><ele>0.0</ele><time>2026-04-30T13:12:19.033Z</time></trkpt><trkpt lat="41.8384068" lon="3.6552088"><ele>0.0</ele><time>2026-04-30T13:12:20.033Z</time></trkpt><trkpt lat="41.8384461" lon="3.6553174"><ele>0.0</ele><time>2026-04-30T13:12:21.033Z</time></trkpt><trkpt lat="41.8384851" lon="3.6554219"><ele>0.0</ele><time>2026-04-30T13:12:22.033Z</time></trkpt><trkpt lat="41.8385203" lon="3.6555253"><ele>0.0</ele><time>2026-04-30T13:12:23.032Z</time></trkpt><trkpt lat="41.8385582" lon="3.6556254"><ele>0.0</ele><time>2026-04-30T13:12:24.033Z</time></trkpt><trkpt lat="41.8385969" lon="3.6557252"><ele>0.0</ele><time>2026-04-30T13:12:25.032Z</time></trkpt><trkpt lat="41.8386367" lon="3.6558265"><ele>0.0</ele><time>2026-04-30T13:12:26.033Z</time></trkpt><trkpt lat="41.8386737" lon="3.6559286"><ele>0.0</ele><time>2026-04-30T13:12:27.033Z</time></trkpt><trkpt lat="41.8387134" lon="3.6560363"><ele>0.0</ele><time>2026-04-30T13:12:28.032Z</time></trkpt><trkpt lat="41.8387564" lon="3.6561444"><ele>0.0</ele><time>2026-04-30T13:12:29.033Z</time></trkpt><trkpt lat="41.838836" lon="3.6563629"><ele>0.0</ele><time>2026-04-30T13:12:31.032Z</time></trkpt><trkpt lat="41.8388733" lon="3.6564744"><ele>0.0</ele><time>2026-04-30T13:12:32.033Z</time></trkpt><trkpt lat="41.83891" lon="3.6565833"><ele>0.0</ele><time>2026-04-30T13:12:33.033Z</time></trkpt><trkpt lat="41.83895" lon="3.6566885"><ele>0.0</ele><time>2026-04-30T13:12:34.032Z</time></trkpt><trkpt lat="41.83899" lon="3.6567948"><ele>0.0</ele><time>2026-04-30T13:12:35.032Z</time></trkpt><trkpt lat="41.839033" lon="3.6568984"><ele>0.0</ele><time>2026-04-30T13:12:36.033Z</time></trkpt><trkpt lat="41.8390718" lon="3.6570031"><ele>0.0</ele><time>2026-04-30T13:12:37.033Z</time></trkpt><trkpt lat="41.8391101" lon="3.6571051"><ele>0.0</ele><time>2026-04-30T13:12:38.032Z</time></trkpt><trkpt lat="41.8391483" lon="3.6572084"><ele>0.0</ele><time>2026-04-30T13:12:39.032Z</time></trkpt><trkpt lat="41.839188" lon="3.6573189"><ele>0.0</ele><time>2026-04-30T13:12:40.032Z</time></trkpt><trkpt lat="41.8392653" lon="3.6575313"><ele>0.0</ele><time>2026-04-30T13:12:42.032Z</time></trkpt><trkpt lat="41.8393001" lon="3.657641"><ele>0.0</ele><time>2026-04-30T13:12:43.032Z</time></trkpt><trkpt lat="41.8393351" lon="3.6577468"><ele>0.0</ele><time>2026-04-30T13:12:44.033Z</time></trkpt><trkpt lat="41.8393732" lon="3.6578577"><ele>0.0</ele><time>2026-04-30T13:12:45.032Z</time></trkpt><trkpt lat="41.8394091" lon="3.6579607"><ele>0.0</ele><time>2026-04-30T13:12:46.033Z</time></trkpt><trkpt lat="41.8394455" lon="3.6580641"><ele>0.0</ele><time>2026-04-30T13:12:47.033Z</time></trkpt><trkpt lat="41.8394804" lon="3.6581715"><ele>0.0</ele><time>2026-04-30T13:12:48.033Z</time></trkpt><trkpt lat="41.8395092" lon="3.6582753"><ele>0.0</ele><time>2026-04-30T13:12:49.032Z</time></trkpt><trkpt lat="41.8395438" lon="3.6583798"><ele>0.0</ele><time>2026-04-30T13:12:50.032Z</time></trkpt><trkpt lat="41.8396154" lon="3.6585836"><ele>0.0</ele><time>2026-04-30T13:12:52.032Z</time></trkpt><trkpt lat="41.8396517" lon="3.6586797"><ele>0.0</ele><time>2026-04-30T13:12:53.033Z</time></trkpt><trkpt lat="41.8396872" lon="3.6587806"><ele>0.0</ele><time>2026-04-30T13:12:54.033Z</time></trkpt><trkpt lat="41.8397235" lon="3.6588863"><ele>0.0</ele><time>2026-04-30T13:12:55.032Z</time></trkpt><trkpt lat="41.8397632" lon="3.6589955"><ele>0.0</ele><time>2026-04-30T13:12:56.032Z</time></trkpt><trkpt lat="41.8397947" lon="3.6591056"><ele>0.0</ele><time>2026-04-30T13:12:57.033Z</time></trkpt><trkpt lat="41.8398307" lon="3.6592072"><ele>0.0</ele><time>2026-04-30T13:12:58.033Z</time></trkpt><trkpt lat="41.8398738" lon="3.6593143"><ele>0.0</ele><time>2026-04-30T13:12:59.033Z</time></trkpt><trkpt lat="41.8399292" lon="3.6594108"><ele>0.0</ele><time>2026-04-30T13:13:00.033Z</time></trkpt><trkpt lat="41.8399758" lon="3.6595117"><ele>0.0</ele><time>2026-04-30T13:13:01.032Z</time></trkpt><trkpt lat="41.8400107" lon="3.6596196"><ele>0.0</ele><time>2026-04-30T13:13:02.033Z</time></trkpt><trkpt lat="41.84004" lon="3.6597261"><ele>0.0</ele><time>2026-04-30T13:13:03.033Z</time></trkpt><trkpt lat="41.8400724" lon="3.6598272"><ele>0.0</ele><time>2026-04-30T13:13:04.032Z</time></trkpt><trkpt lat="41.840108" lon="3.6599343"><ele>0.0</ele><time>2026-04-30T13:13:05.032Z</time></trkpt><trkpt lat="41.8401474" lon="3.6600426"><ele>0.0</ele><time>2026-04-30T13:13:06.032Z</time></trkpt><trkpt lat="41.8401903" lon="3.6601511"><ele>0.0</ele><time>2026-04-30T13:13:07.032Z</time></trkpt><trkpt lat="41.8402326" lon="3.6602554"><ele>0.0</ele><time>2026-04-30T13:13:08.033Z</time></trkpt><trkpt lat="41.8402759" lon="3.6603659"><ele>0.0</ele><time>2026-04-30T13:13:09.033Z</time></trkpt><trkpt lat="41.8403195" lon="3.6604672"><ele>0.0</ele><time>2026-04-30T13:13:10.032Z</time></trkpt><trkpt lat="41.8404064" lon="3.660675"><ele>0.0</ele><time>2026-04-30T13:13:12.033Z</time></trkpt><trkpt lat="41.8404453" lon="3.6607739"><ele>0.0</ele><time>2026-04-30T13:13:13.032Z</time></trkpt><trkpt lat="41.8404893" lon="3.6608749"><ele>0.0</ele><time>2026-04-30T13:13:14.033Z</time></trkpt><trkpt lat="41.8405315" lon="3.660975"><ele>0.0</ele><time>2026-04-30T13:13:15.032Z</time></trkpt><trkpt lat="41.8405746" lon="3.6610734"><ele>0.0</ele><time>2026-04-30T13:13:16.032Z</time></trkpt><trkpt lat="41.8406223" lon="3.661176"><ele>0.0</ele><time>2026-04-30T13:13:17.032Z</time></trkpt><trkpt lat="41.8406646" lon="3.6612815"><ele>0.0</ele><time>2026-04-30T13:13:18.032Z</time></trkpt><trkpt lat="41.8407105" lon="3.6613921"><ele>0.0</ele><time>2026-04-30T13:13:19.033Z</time></trkpt><trkpt lat="41.8407758" lon="3.6614968"><ele>0.0</ele><time>2026-04-30T13:13:20.033Z</time></trkpt><trkpt lat="41.8408127" lon="3.6615999"><ele>0.0</ele><time>2026-04-30T13:13:21.033Z</time></trkpt><trkpt lat="41.8408436" lon="3.6617064"><ele>0.0</ele><time>2026-04-30T13:13:22.032Z</time></trkpt><trkpt lat="41.8408791" lon="3.6618146"><ele>0.0</ele><time>2026-04-30T13:13:23.032Z</time></trkpt><trkpt lat="41.8409199" lon="3.6619186"><ele>0.0</ele><time>2026-04-30T13:13:24.032Z</time></trkpt><trkpt lat="41.8409613" lon="3.6620295"><ele>0.0</ele><time>2026-04-30T13:13:25.033Z</time></trkpt><trkpt lat="41.8409989" lon="3.6621325"><ele>0.0</ele><time>2026-04-30T13:13:26.033Z</time></trkpt><trkpt lat="41.8410383" lon="3.662241"><ele>0.0</ele><time>2026-04-30T13:13:27.033Z</time></trkpt><trkpt lat="41.8410781" lon="3.662351"><ele>0.0</ele><time>2026-04-30T13:13:28.033Z</time></trkpt><trkpt lat="41.8411182" lon="3.6624593"><ele>0.0</ele><time>2026-04-30T13:13:29.032Z</time></trkpt><trkpt lat="41.8411569" lon="3.6625648"><ele>0.0</ele><time>2026-04-30T13:13:30.032Z</time></trkpt><trkpt lat="41.8411952" lon="3.6626725"><ele>0.0</ele><time>2026-04-30T13:13:31.033Z</time></trkpt><trkpt lat="41.8412736" lon="3.6628847"><ele>0.0</ele><time>2026-04-30T13:13:33.033Z</time></trkpt><trkpt lat="41.841312" lon="3.66299"><ele>0.0</ele><time>2026-04-30T13:13:34.032Z</time></trkpt><trkpt lat="41.8413502" lon="3.663092"><ele>0.0</ele><time>2026-04-30T13:13:35.032Z</time></trkpt><trkpt lat="41.841393" lon="3.6632008"><ele>0.0</ele><time>2026-04-30T13:13:36.033Z</time></trkpt><trkpt lat="41.8414334" lon="3.663305"><ele>0.0</ele><time>2026-04-30T13:13:37.033Z</time></trkpt><trkpt lat="41.8414687" lon="3.6634088"><ele>0.0</ele><time>2026-04-30T13:13:38.033Z</time></trkpt><trkpt lat="41.8415066" lon="3.6635193"><ele>0.0</ele><time>2026-04-30T13:13:39.033Z</time></trkpt><trkpt lat="41.8415469" lon="3.6636293"><ele>0.0</ele><time>2026-04-30T13:13:40.032Z</time></trkpt><trkpt lat="41.841584" lon="3.6637295"><ele>0.0</ele><time>2026-04-30T13:13:41.032Z</time></trkpt><trkpt lat="41.8416205" lon="3.6638339"><ele>0.0</ele><time>2026-04-30T13:13:42.032Z</time></trkpt><trkpt lat="41.8416583" lon="3.6639383"><ele>0.0</ele><time>2026-04-30T13:13:43.033Z</time></trkpt><trkpt lat="41.8416972" lon="3.6640405"><ele>0.0</ele><time>2026-04-30T13:13:44.032Z</time></trkpt><trkpt lat="41.8417355" lon="3.6641405"><ele>0.0</ele><time>2026-04-30T13:13:45.032Z</time></trkpt><trkpt lat="41.8417737" lon="3.6642431"><ele>0.0</ele><time>2026-04-30T13:13:46.033Z</time></trkpt><trkpt lat="41.8418118" lon="3.6643465"><ele>0.0</ele><time>2026-04-30T13:13:47.033Z</time></trkpt><trkpt lat="41.8418517" lon="3.6644516"><ele>0.0</ele><time>2026-04-30T13:13:48.033Z</time></trkpt><trkpt lat="41.8418934" lon="3.6645549"><ele>0.0</ele><time>2026-04-30T13:13:49.033Z</time></trkpt><trkpt lat="41.8419319" lon="3.6646642"><ele>0.0</ele><time>2026-04-30T13:13:50.032Z</time></trkpt><trkpt lat="41.8419729" lon="3.6647786"><ele>0.0</ele><time>2026-04-30T13:13:51.032Z</time></trkpt><trkpt lat="41.8420518" lon="3.6650086"><ele>0.0</ele><time>2026-04-30T13:13:53.032Z</time></trkpt><trkpt lat="41.8420902" lon="3.6651197"><ele>0.0</ele><time>2026-04-30T13:13:54.032Z</time></trkpt><trkpt lat="41.8421327" lon="3.6652297"><ele>0.0</ele><time>2026-04-30T13:13:55.033Z</time></trkpt><trkpt lat="41.8421733" lon="3.6653396"><ele>0.0</ele><time>2026-04-30T13:13:56.032Z</time></trkpt><trkpt lat="41.8422103" lon="3.6654479"><ele>0.0</ele><time>2026-04-30T13:13:57.032Z</time></trkpt><trkpt lat="41.8422422" lon="3.6655552"><ele>0.0</ele><time>2026-04-30T13:13:58.033Z</time></trkpt><trkpt lat="41.8422771" lon="3.6656532"><ele>0.0</ele><time>2026-04-30T13:13:59.032Z</time></trkpt><trkpt lat="41.8423108" lon="3.6657486"><ele>0.0</ele><time>2026-04-30T13:14:00.033Z</time></trkpt><trkpt lat="41.8423442" lon="3.6658449"><ele>0.0</ele><time>2026-04-30T13:14:01.033Z</time></trkpt><trkpt lat="41.8423786" lon="3.6659556"><ele>0.0</ele><time>2026-04-30T13:14:02.032Z</time></trkpt><trkpt lat="41.8424167" lon="3.66606"><ele>0.0</ele><time>2026-04-30T13:14:03.033Z</time></trkpt><trkpt lat="41.8424534" lon="3.6661661"><ele>0.0</ele><time>2026-04-30T13:14:04.033Z</time></trkpt><trkpt lat="41.8424915" lon="3.6662703"><ele>0.0</ele><time>2026-04-30T13:14:05.032Z</time></trkpt><trkpt lat="41.8425304" lon="3.6663734"><ele>0.0</ele><time>2026-04-30T13:14:06.033Z</time></trkpt><trkpt lat="41.8425672" lon="3.6664712"><ele>0.0</ele><time>2026-04-30T13:14:07.032Z</time></trkpt><trkpt lat="41.8426054" lon="3.6665689"><ele>0.0</ele><time>2026-04-30T13:14:08.032Z</time></trkpt><trkpt lat="41.8426352" lon="3.666673"><ele>0.0</ele><time>2026-04-30T13:14:09.032Z</time></trkpt><trkpt lat="41.8426699" lon="3.6667807"><ele>0.0</ele><time>2026-04-30T13:14:10.032Z</time></trkpt><trkpt lat="41.8427123" lon="3.6668945"><ele>0.0</ele><time>2026-04-30T13:14:11.032Z</time></trkpt><trkpt lat="41.8427565" lon="3.6669979"><ele>0.0</ele><time>2026-04-30T13:14:12.032Z</time></trkpt><trkpt lat="41.8428466" lon="3.667201"><ele>0.0</ele><time>2026-04-30T13:14:14.032Z</time></trkpt><trkpt lat="41.8428904" lon="3.6673082"><ele>0.0</ele><time>2026-04-30T13:14:15.031Z</time></trkpt><trkpt lat="41.8429298" lon="3.6674142"><ele>0.0</ele><time>2026-04-30T13:14:16.031Z</time></trkpt><trkpt lat="41.8430208" lon="3.6676242"><ele>0.0</ele><time>2026-04-30T13:14:18.031Z</time></trkpt><trkpt lat="41.843068" lon="3.6677279"><ele>0.0</ele><time>2026-04-30T13:14:19.032Z</time></trkpt><trkpt lat="41.8431088" lon="3.6678277"><ele>0.0</ele><time>2026-04-30T13:14:20.031Z</time></trkpt><trkpt lat="41.8431472" lon="3.6679246"><ele>0.0</ele><time>2026-04-30T13:14:21.032Z</time></trkpt><trkpt lat="41.8431896" lon="3.6680344"><ele>0.0</ele><time>2026-04-30T13:14:22.032Z</time></trkpt><trkpt lat="41.8432297" lon="3.6681372"><ele>0.0</ele><time>2026-04-30T13:14:23.031Z</time></trkpt><trkpt lat="41.8432701" lon="3.6682402"><ele>0.0</ele><time>2026-04-30T13:14:24.031Z</time></trkpt><trkpt lat="41.8433054" lon="3.6683455"><ele>0.0</ele><time>2026-04-30T13:14:25.031Z</time></trkpt><trkpt lat="41.8433434" lon="3.668453"><ele>0.0</ele><time>2026-04-30T13:14:26.032Z</time></trkpt><trkpt lat="41.843382" lon="3.6685613"><ele>0.0</ele><time>2026-04-30T13:14:27.032Z</time></trkpt><trkpt lat="41.8434247" lon="3.6686708"><ele>0.0</ele><time>2026-04-30T13:14:28.032Z</time></trkpt><trkpt lat="41.8434652" lon="3.6687779"><ele>0.0</ele><time>2026-04-30T13:14:29.032Z</time></trkpt><trkpt lat="41.8435023" lon="3.668882"><ele>0.0</ele><time>2026-04-30T13:14:30.031Z</time></trkpt><trkpt lat="41.8435387" lon="3.6689868"><ele>0.0</ele><time>2026-04-30T13:14:31.032Z</time></trkpt><trkpt lat="41.8435752" lon="3.6690886"><ele>0.0</ele><time>2026-04-30T13:14:32.031Z</time></trkpt><trkpt lat="41.8436135" lon="3.669196"><ele>0.0</ele><time>2026-04-30T13:14:33.032Z</time></trkpt><trkpt lat="41.8436902" lon="3.6694065"><ele>0.0</ele><time>2026-04-30T13:14:35.032Z</time></trkpt><trkpt lat="41.8437315" lon="3.669516"><ele>0.0</ele><time>2026-04-30T13:14:36.032Z</time></trkpt><trkpt lat="41.8437717" lon="3.6696231"><ele>0.0</ele><time>2026-04-30T13:14:37.031Z</time></trkpt><trkpt lat="41.8438086" lon="3.66973"><ele>0.0</ele><time>2026-04-30T13:14:38.031Z</time></trkpt><trkpt lat="41.8438451" lon="3.6698368"><ele>0.0</ele><time>2026-04-30T13:14:39.032Z</time></trkpt><trkpt lat="41.8438802" lon="3.6699464"><ele>0.0</ele><time>2026-04-30T13:14:40.031Z</time></trkpt><trkpt lat="41.8439151" lon="3.6700591"><ele>0.0</ele><time>2026-04-30T13:14:41.031Z</time></trkpt><trkpt lat="41.8439514" lon="3.6701705"><ele>0.0</ele><time>2026-04-30T13:14:42.031Z</time></trkpt><trkpt lat="41.8439882" lon="3.6702794"><ele>0.0</ele><time>2026-04-30T13:14:43.031Z</time></trkpt><trkpt lat="41.8440192" lon="3.6703854"><ele>0.0</ele><time>2026-04-30T13:14:44.031Z</time></trkpt><trkpt lat="41.8440504" lon="3.6704936"><ele>0.0</ele><time>2026-04-30T13:14:45.031Z</time></trkpt><trkpt lat="41.8440822" lon="3.6706005"><ele>0.0</ele><time>2026-04-30T13:14:46.032Z</time></trkpt><trkpt lat="41.8441122" lon="3.6707106"><ele>0.0</ele><time>2026-04-30T13:14:47.031Z</time></trkpt><trkpt lat="41.8441418" lon="3.6708145"><ele>0.0</ele><time>2026-04-30T13:14:48.032Z</time></trkpt><trkpt lat="41.8442085" lon="3.6710282"><ele>0.0</ele><time>2026-04-30T13:14:50.032Z</time></trkpt><trkpt lat="41.8442453" lon="3.6711307"><ele>0.0</ele><time>2026-04-30T13:14:51.031Z</time></trkpt><trkpt lat="41.8442836" lon="3.6712324"><ele>0.0</ele><time>2026-04-30T13:14:52.032Z</time></trkpt><trkpt lat="41.8443234" lon="3.671335"><ele>0.0</ele><time>2026-04-30T13:14:53.032Z</time></trkpt><trkpt lat="41.8443616" lon="3.6714383"><ele>0.0</ele><time>2026-04-30T13:14:54.032Z</time></trkpt><trkpt lat="41.8444417" lon="3.67165"><ele>0.0</ele><time>2026-04-30T13:14:56.031Z</time></trkpt><trkpt lat="41.8444833" lon="3.6717578"><ele>0.0</ele><time>2026-04-30T13:14:57.032Z</time></trkpt><trkpt lat="41.8445222" lon="3.6718576"><ele>0.0</ele><time>2026-04-30T13:14:58.031Z</time></trkpt><trkpt lat="41.8445619" lon="3.6719601"><ele>0.0</ele><time>2026-04-30T13:14:59.031Z</time></trkpt><trkpt lat="41.8446018" lon="3.6720646"><ele>0.0</ele><time>2026-04-30T13:15:00.032Z</time></trkpt><trkpt lat="41.8446419" lon="3.6721684"><ele>0.0</ele><time>2026-04-30T13:15:01.031Z</time></trkpt><trkpt lat="41.8446801" lon="3.672275"><ele>0.0</ele><time>2026-04-30T13:15:02.032Z</time></trkpt><trkpt lat="41.8447184" lon="3.6723875"><ele>0.0</ele><time>2026-04-30T13:15:03.032Z</time></trkpt><trkpt lat="41.8447522" lon="3.672497"><ele>0.0</ele><time>2026-04-30T13:15:04.032Z</time></trkpt><trkpt lat="41.8447866" lon="3.6726071"><ele>0.0</ele><time>2026-04-30T13:15:05.031Z</time></trkpt><trkpt lat="41.8448217" lon="3.6727134"><ele>0.0</ele><time>2026-04-30T13:15:06.032Z</time></trkpt><trkpt lat="41.844858" lon="3.6728203"><ele>0.0</ele><time>2026-04-30T13:15:07.031Z</time></trkpt><trkpt lat="41.844898" lon="3.6729307"><ele>0.0</ele><time>2026-04-30T13:15:08.032Z</time></trkpt><trkpt lat="41.8449439" lon="3.6730409"><ele>0.0</ele><time>2026-04-30T13:15:09.032Z</time></trkpt><trkpt lat="41.8449975" lon="3.6731381"><ele>0.0</ele><time>2026-04-30T13:15:10.031Z</time></trkpt><trkpt lat="41.8450341" lon="3.6732374"><ele>0.0</ele><time>2026-04-30T13:15:11.031Z</time></trkpt><trkpt lat="41.8450746" lon="3.6733368"><ele>0.0</ele><time>2026-04-30T13:15:12.031Z</time></trkpt><trkpt lat="41.8451176" lon="3.673438"><ele>0.0</ele><time>2026-04-30T13:15:13.031Z</time></trkpt><trkpt lat="41.8451669" lon="3.6735398"><ele>0.0</ele><time>2026-04-30T13:15:14.031Z</time></trkpt><trkpt lat="41.8452083" lon="3.6736401"><ele>0.0</ele><time>2026-04-30T13:15:15.031Z</time></trkpt><trkpt lat="41.8452904" lon="3.6738409"><ele>0.0</ele><time>2026-04-30T13:15:17.032Z</time></trkpt><trkpt lat="41.8453291" lon="3.6739461"><ele>0.0</ele><time>2026-04-30T13:15:18.031Z</time></trkpt><trkpt lat="41.8453656" lon="3.6740485"><ele>0.0</ele><time>2026-04-30T13:15:19.032Z</time></trkpt><trkpt lat="41.845405" lon="3.6741569"><ele>0.0</ele><time>2026-04-30T13:15:20.032Z</time></trkpt><trkpt lat="41.845482" lon="3.674372"><ele>0.0</ele><time>2026-04-30T13:15:22.031Z</time></trkpt><trkpt lat="41.8455177" lon="3.6744821"><ele>0.0</ele><time>2026-04-30T13:15:23.032Z</time></trkpt><trkpt lat="41.8455555" lon="3.6745849"><ele>0.0</ele><time>2026-04-30T13:15:24.031Z</time></trkpt><trkpt lat="41.8455994" lon="3.6746912"><ele>0.0</ele><time>2026-04-30T13:15:25.031Z</time></trkpt><trkpt lat="41.8456354" lon="3.6747986"><ele>0.0</ele><time>2026-04-30T13:15:26.032Z</time></trkpt><trkpt lat="41.8456694" lon="3.6749021"><ele>0.0</ele><time>2026-04-30T13:15:27.031Z</time></trkpt><trkpt lat="41.8457098" lon="3.6750116"><ele>0.0</ele><time>2026-04-30T13:15:28.031Z</time></trkpt><trkpt lat="41.8457471" lon="3.6751173"><ele>0.0</ele><time>2026-04-30T13:15:29.031Z</time></trkpt><trkpt lat="41.8457767" lon="3.6752208"><ele>0.0</ele><time>2026-04-30T13:15:30.031Z</time></trkpt><trkpt lat="41.8458104" lon="3.6753213"><ele>0.0</ele><time>2026-04-30T13:15:31.031Z</time></trkpt><trkpt lat="41.8458484" lon="3.675417"><ele>0.0</ele><time>2026-04-30T13:15:32.032Z</time></trkpt><trkpt lat="41.8458841" lon="3.6755185"><ele>0.0</ele><time>2026-04-30T13:15:33.031Z</time></trkpt><trkpt lat="41.8459175" lon="3.675626"><ele>0.0</ele><time>2026-04-30T13:15:34.031Z</time></trkpt><trkpt lat="41.8459553" lon="3.6757371"><ele>0.0</ele><time>2026-04-30T13:15:35.032Z</time></trkpt><trkpt lat="41.8459996" lon="3.6758471"><ele>0.0</ele><time>2026-04-30T13:15:36.031Z</time></trkpt><trkpt lat="41.8460757" lon="3.6760613"><ele>0.0</ele><time>2026-04-30T13:15:38.031Z</time></trkpt><trkpt lat="41.8461181" lon="3.6761666"><ele>0.0</ele><time>2026-04-30T13:15:39.032Z</time></trkpt><trkpt lat="41.8461617" lon="3.676274"><ele>0.0</ele><time>2026-04-30T13:15:40.031Z</time></trkpt><trkpt lat="41.8462017" lon="3.6763828"><ele>0.0</ele><time>2026-04-30T13:15:41.031Z</time></trkpt><trkpt lat="41.8462431" lon="3.6764869"><ele>0.0</ele><time>2026-04-30T13:15:42.032Z</time></trkpt><trkpt lat="41.8462849" lon="3.6765978"><ele>0.0</ele><time>2026-04-30T13:15:43.032Z</time></trkpt><trkpt lat="41.8463224" lon="3.6767066"><ele>0.0</ele><time>2026-04-30T13:15:44.031Z</time></trkpt><trkpt lat="41.8463603" lon="3.6768108"><ele>0.0</ele><time>2026-04-30T13:15:45.032Z</time></trkpt><trkpt lat="41.8463989" lon="3.6769124"><ele>0.0</ele><time>2026-04-30T13:15:46.032Z</time></trkpt><trkpt lat="41.8464313" lon="3.6770126"><ele>0.0</ele><time>2026-04-30T13:15:47.032Z</time></trkpt><trkpt lat="41.8464597" lon="3.6771118"><ele>0.0</ele><time>2026-04-30T13:15:48.032Z</time></trkpt><trkpt lat="41.8464895" lon="3.6772202"><ele>0.0</ele><time>2026-04-30T13:15:49.032Z</time></trkpt><trkpt lat="41.8465251" lon="3.6773241"><ele>0.0</ele><time>2026-04-30T13:15:50.031Z</time></trkpt><trkpt lat="41.846565" lon="3.6774357"><ele>0.0</ele><time>2026-04-30T13:15:51.032Z</time></trkpt><trkpt lat="41.846605" lon="3.6775431"><ele>0.0</ele><time>2026-04-30T13:15:52.031Z</time></trkpt><trkpt lat="41.8466847" lon="3.6777645"><ele>0.0</ele><time>2026-04-30T13:15:54.032Z</time></trkpt><trkpt lat="41.8467217" lon="3.6778722"><ele>0.0</ele><time>2026-04-30T13:15:55.031Z</time></trkpt><trkpt lat="41.8467584" lon="3.6779757"><ele>0.0</ele><time>2026-04-30T13:15:56.031Z</time></trkpt><trkpt lat="41.8467991" lon="3.6780763"><ele>0.0</ele><time>2026-04-30T13:15:57.031Z</time></trkpt><trkpt lat="41.846877" lon="3.6782876"><ele>0.0</ele><time>2026-04-30T13:15:59.031Z</time></trkpt><trkpt lat="41.8469151" lon="3.6783906"><ele>0.0</ele><time>2026-04-30T13:16:00.031Z</time></trkpt><trkpt lat="41.846955" lon="3.6784951"><ele>0.0</ele><time>2026-04-30T13:16:01.032Z</time></trkpt><trkpt lat="41.8469979" lon="3.6786026"><ele>0.0</ele><time>2026-04-30T13:16:02.032Z</time></trkpt><trkpt lat="41.8470327" lon="3.6786986"><ele>0.0</ele><time>2026-04-30T13:16:03.031Z</time></trkpt><trkpt lat="41.8470641" lon="3.678798"><ele>0.0</ele><time>2026-04-30T13:16:04.032Z</time></trkpt><trkpt lat="41.8470972" lon="3.6789036"><ele>0.0</ele><time>2026-04-30T13:16:05.031Z</time></trkpt><trkpt lat="41.8471334" lon="3.6790101"><ele>0.0</ele><time>2026-04-30T13:16:06.032Z</time></trkpt><trkpt lat="41.8471686" lon="3.6791172"><ele>0.0</ele><time>2026-04-30T13:16:07.031Z</time></trkpt><trkpt lat="41.8472039" lon="3.6792191"><ele>0.0</ele><time>2026-04-30T13:16:08.032Z</time></trkpt><trkpt lat="41.8472422" lon="3.6793189"><ele>0.0</ele><time>2026-04-30T13:16:09.032Z</time></trkpt><trkpt lat="41.8472777" lon="3.6794142"><ele>0.0</ele><time>2026-04-30T13:16:10.031Z</time></trkpt><trkpt lat="41.8473199" lon="3.6795149"><ele>0.0</ele><time>2026-04-30T13:16:11.031Z</time></trkpt><trkpt lat="41.8473632" lon="3.6796197"><ele>0.0</ele><time>2026-04-30T13:16:12.031Z</time></trkpt><trkpt lat="41.8474035" lon="3.679722"><ele>0.0</ele><time>2026-04-30T13:16:13.031Z</time></trkpt><trkpt lat="41.8474435" lon="3.6798236"><ele>0.0</ele><time>2026-04-30T13:16:14.032Z</time></trkpt><trkpt lat="41.8474863" lon="3.6799295"><ele>0.0</ele><time>2026-04-30T13:16:15.032Z</time></trkpt><trkpt lat="41.8475309" lon="3.6800365"><ele>0.0</ele><time>2026-04-30T13:16:16.031Z</time></trkpt><trkpt lat="41.8475715" lon="3.6801449"><ele>0.0</ele><time>2026-04-30T13:16:17.032Z</time></trkpt><trkpt lat="41.8476044" lon="3.6802504"><ele>0.0</ele><time>2026-04-30T13:16:18.031Z</time></trkpt><trkpt lat="41.8476878" lon="3.6804578"><ele>0.0</ele><time>2026-04-30T13:16:20.031Z</time></trkpt><trkpt lat="41.8477267" lon="3.6805659"><ele>0.0</ele><time>2026-04-30T13:16:21.031Z</time></trkpt><trkpt lat="41.8477636" lon="3.6806716"><ele>0.0</ele><time>2026-04-30T13:16:22.031Z</time></trkpt><trkpt lat="41.8477986" lon="3.6807767"><ele>0.0</ele><time>2026-04-30T13:16:23.032Z</time></trkpt><trkpt lat="41.847838" lon="3.6808849"><ele>0.0</ele><time>2026-04-30T13:16:24.031Z</time></trkpt><trkpt lat="41.847912" lon="3.6810981"><ele>0.0</ele><time>2026-04-30T13:16:26.032Z</time></trkpt><trkpt lat="41.8479456" lon="3.6812035"><ele>0.0</ele><time>2026-04-30T13:16:27.031Z</time></trkpt><trkpt lat="41.8479861" lon="3.6813059"><ele>0.0</ele><time>2026-04-30T13:16:28.032Z</time></trkpt><trkpt lat="41.8480218" lon="3.681415"><ele>0.0</ele><time>2026-04-30T13:16:29.032Z</time></trkpt><trkpt lat="41.8480582" lon="3.6815289"><ele>0.0</ele><time>2026-04-30T13:16:30.031Z</time></trkpt><trkpt lat="41.8480919" lon="3.6816397"><ele>0.0</ele><time>2026-04-30T13:16:31.032Z</time></trkpt><trkpt lat="41.8481268" lon="3.6817497"><ele>0.0</ele><time>2026-04-30T13:16:32.031Z</time></trkpt><trkpt lat="41.848162" lon="3.68186"><ele>0.0</ele><time>2026-04-30T13:16:33.031Z</time></trkpt><trkpt lat="41.8481986" lon="3.6819672"><ele>0.0</ele><time>2026-04-30T13:16:34.032Z</time></trkpt><trkpt lat="41.8482395" lon="3.6820694"><ele>0.0</ele><time>2026-04-30T13:16:35.031Z</time></trkpt><trkpt lat="41.8482818" lon="3.6821728"><ele>0.0</ele><time>2026-04-30T13:16:36.031Z</time></trkpt><trkpt lat="41.8483249" lon="3.6822765"><ele>0.0</ele><time>2026-04-30T13:16:37.032Z</time></trkpt><trkpt lat="41.8483726" lon="3.6823826"><ele>0.0</ele><time>2026-04-30T13:16:38.031Z</time></trkpt><trkpt lat="41.8484181" lon="3.6824923"><ele>0.0</ele><time>2026-04-30T13:16:39.031Z</time></trkpt><trkpt lat="41.8484928" lon="3.6827079"><ele>0.0</ele><time>2026-04-30T13:16:41.031Z</time></trkpt><trkpt lat="41.848526" lon="3.6828148"><ele>0.0</ele><time>2026-04-30T13:16:42.031Z</time></trkpt><trkpt lat="41.8485622" lon="3.6829188"><ele>0.0</ele><time>2026-04-30T13:16:43.031Z</time></trkpt><trkpt lat="41.8486059" lon="3.6830239"><ele>0.0</ele><time>2026-04-30T13:16:44.031Z</time></trkpt><trkpt lat="41.848644" lon="3.6831251"><ele>0.0</ele><time>2026-04-30T13:16:45.032Z</time></trkpt><trkpt lat="41.848681" lon="3.6832264"><ele>0.0</ele><time>2026-04-30T13:16:46.031Z</time></trkpt><trkpt lat="41.8487191" lon="3.6833266"><ele>0.0</ele><time>2026-04-30T13:16:47.031Z</time></trkpt><trkpt lat="41.8487604" lon="3.6834311"><ele>0.0</ele><time>2026-04-30T13:16:48.032Z</time></trkpt><trkpt lat="41.8487977" lon="3.683535"><ele>0.0</ele><time>2026-04-30T13:16:49.031Z</time></trkpt><trkpt lat="41.8488324" lon="3.683643"><ele>0.0</ele><time>2026-04-30T13:16:50.032Z</time></trkpt><trkpt lat="41.8488687" lon="3.6837542"><ele>0.0</ele><time>2026-04-30T13:16:51.031Z</time></trkpt><trkpt lat="41.8489036" lon="3.6838621"><ele>0.0</ele><time>2026-04-30T13:16:52.032Z</time></trkpt><trkpt lat="41.8489391" lon="3.6839655"><ele>0.0</ele><time>2026-04-30T13:16:53.031Z</time></trkpt><trkpt lat="41.8489771" lon="3.6840701"><ele>0.0</ele><time>2026-04-30T13:16:54.032Z</time></trkpt><trkpt lat="41.8490184" lon="3.6841744"><ele>0.0</ele><time>2026-04-30T13:16:55.032Z</time></trkpt><trkpt lat="41.8490585" lon="3.6842793"><ele>0.0</ele><time>2026-04-30T13:16:56.031Z</time></trkpt><trkpt lat="41.8490971" lon="3.6843846"><ele>0.0</ele><time>2026-04-30T13:16:57.031Z</time></trkpt><trkpt lat="41.8491211" lon="3.6844926"><ele>0.0</ele><time>2026-04-30T13:16:58.032Z</time></trkpt><trkpt lat="41.8491512" lon="3.6846038"><ele>0.0</ele><time>2026-04-30T13:16:59.032Z</time></trkpt><trkpt lat="41.8491899" lon="3.6847098"><ele>0.0</ele><time>2026-04-30T13:17:00.032Z</time></trkpt><trkpt lat="41.8492674" lon="3.6849306"><ele>0.0</ele><time>2026-04-30T13:17:02.031Z</time></trkpt><trkpt lat="41.8493064" lon="3.6850385"><ele>0.0</ele><time>2026-04-30T13:17:03.031Z</time></trkpt><trkpt lat="41.849352" lon="3.6851398"><ele>0.0</ele><time>2026-04-30T13:17:04.031Z</time></trkpt><trkpt lat="41.8493933" lon="3.6852399"><ele>0.0</ele><time>2026-04-30T13:17:05.031Z</time></trkpt><trkpt lat="41.8494276" lon="3.6853469"><ele>0.0</ele><time>2026-04-30T13:17:06.032Z</time></trkpt><trkpt lat="41.8494606" lon="3.6854567"><ele>0.0</ele><time>2026-04-30T13:17:07.032Z</time></trkpt><trkpt lat="41.8494962" lon="3.6855693"><ele>0.0</ele><time>2026-04-30T13:17:08.031Z</time></trkpt><trkpt lat="41.849532" lon="3.6856684"><ele>0.0</ele><time>2026-04-30T13:17:09.031Z</time></trkpt><trkpt lat="41.8495701" lon="3.6857749"><ele>0.0</ele><time>2026-04-30T13:17:10.032Z</time></trkpt><trkpt lat="41.8496143" lon="3.6858866"><ele>0.0</ele><time>2026-04-30T13:17:11.031Z</time></trkpt><trkpt lat="41.8496597" lon="3.6859898"><ele>0.0</ele><time>2026-04-30T13:17:12.031Z</time></trkpt><trkpt lat="41.8497061" lon="3.6861034"><ele>0.0</ele><time>2026-04-30T13:17:13.031Z</time></trkpt><trkpt lat="41.8497427" lon="3.6862114"><ele>0.0</ele><time>2026-04-30T13:17:14.032Z</time></trkpt><trkpt lat="41.8497819" lon="3.6863252"><ele>0.0</ele><time>2026-04-30T13:17:15.031Z</time></trkpt><trkpt lat="41.8498188" lon="3.6864328"><ele>0.0</ele><time>2026-04-30T13:17:16.031Z</time></trkpt><trkpt lat="41.8498598" lon="3.6865426"><ele>0.0</ele><time>2026-04-30T13:17:17.031Z</time></trkpt><trkpt lat="41.8498969" lon="3.6866573"><ele>0.0</ele><time>2026-04-30T13:17:18.031Z</time></trkpt><trkpt lat="41.8499339" lon="3.6867606"><ele>0.0</ele><time>2026-04-30T13:17:19.031Z</time></trkpt><trkpt lat="41.8499737" lon="3.6868561"><ele>0.0</ele><time>2026-04-30T13:17:20.031Z</time></trkpt><trkpt lat="41.8500419" lon="3.68706"><ele>0.0</ele><time>2026-04-30T13:17:22.032Z</time></trkpt><trkpt lat="41.850077" lon="3.6871678"><ele>0.0</ele><time>2026-04-30T13:17:23.032Z</time></trkpt><trkpt lat="41.8501121" lon="3.6872774"><ele>0.0</ele><time>2026-04-30T13:17:24.031Z</time></trkpt><trkpt lat="41.8501479" lon="3.6873924"><ele>0.0</ele><time>2026-04-30T13:17:25.031Z</time></trkpt><trkpt lat="41.8501865" lon="3.6875"><ele>0.0</ele><time>2026-04-30T13:17:26.031Z</time></trkpt><trkpt lat="41.8502251" lon="3.6876081"><ele>0.0</ele><time>2026-04-30T13:17:27.031Z</time></trkpt><trkpt lat="41.8502669" lon="3.6877146"><ele>0.0</ele><time>2026-04-30T13:17:28.031Z</time></trkpt><trkpt lat="41.8503494" lon="3.6879277"><ele>0.0</ele><time>2026-04-30T13:17:30.031Z</time></trkpt><trkpt lat="41.8503961" lon="3.6880325"><ele>0.0</ele><time>2026-04-30T13:17:31.031Z</time></trkpt><trkpt lat="41.8504371" lon="3.6881249"><ele>0.0</ele><time>2026-04-30T13:17:32.032Z</time></trkpt><trkpt lat="41.850477" lon="3.6882223"><ele>0.0</ele><time>2026-04-30T13:17:33.032Z</time></trkpt><trkpt lat="41.8505149" lon="3.6883256"><ele>0.0</ele><time>2026-04-30T13:17:34.031Z</time></trkpt><trkpt lat="41.850556" lon="3.6884376"><ele>0.0</ele><time>2026-04-30T13:17:35.031Z</time></trkpt><trkpt lat="41.8505944" lon="3.6885498"><ele>0.0</ele><time>2026-04-30T13:17:36.031Z</time></trkpt><trkpt lat="41.8506372" lon="3.6886619"><ele>0.0</ele><time>2026-04-30T13:17:37.032Z</time></trkpt><trkpt lat="41.8506742" lon="3.6887691"><ele>0.0</ele><time>2026-04-30T13:17:38.032Z</time></trkpt><trkpt lat="41.8507098" lon="3.6888687"><ele>0.0</ele><time>2026-04-30T13:17:39.031Z</time></trkpt><trkpt lat="41.8507493" lon="3.6889791"><ele>0.0</ele><time>2026-04-30T13:17:40.031Z</time></trkpt><trkpt lat="41.8507942" lon="3.6890864"><ele>0.0</ele><time>2026-04-30T13:17:41.031Z</time></trkpt><trkpt lat="41.8508762" lon="3.6892893"><ele>0.0</ele><time>2026-04-30T13:17:43.032Z</time></trkpt><trkpt lat="41.8509165" lon="3.6893925"><ele>0.0</ele><time>2026-04-30T13:17:44.031Z</time></trkpt><trkpt lat="41.8509549" lon="3.6894958"><ele>0.0</ele><time>2026-04-30T13:17:45.031Z</time></trkpt><trkpt lat="41.8509949" lon="3.6895945"><ele>0.0</ele><time>2026-04-30T13:17:46.032Z</time></trkpt><trkpt lat="41.8510378" lon="3.6896987"><ele>0.0</ele><time>2026-04-30T13:17:47.032Z</time></trkpt><trkpt lat="41.8510837" lon="3.6898021"><ele>0.0</ele><time>2026-04-30T13:17:48.032Z</time></trkpt><trkpt lat="41.851125" lon="3.6899052"><ele>0.0</ele><time>2026-04-30T13:17:49.031Z</time></trkpt><trkpt lat="41.8511649" lon="3.6900114"><ele>0.0</ele><time>2026-04-30T13:17:50.032Z</time></trkpt><trkpt lat="41.8512217" lon="3.690114"><ele>0.0</ele><time>2026-04-30T13:17:51.031Z</time></trkpt><trkpt lat="41.851273" lon="3.6902143"><ele>0.0</ele><time>2026-04-30T13:17:52.032Z</time></trkpt><trkpt lat="41.8513187" lon="3.6903157"><ele>0.0</ele><time>2026-04-30T13:17:53.031Z</time></trkpt><trkpt lat="41.851368" lon="3.6904159"><ele>0.0</ele><time>2026-04-30T13:17:54.031Z</time></trkpt><trkpt lat="41.8514104" lon="3.6905137"><ele>0.0</ele><time>2026-04-30T13:17:55.032Z</time></trkpt><trkpt lat="41.8514479" lon="3.6906161"><ele>0.0</ele><time>2026-04-30T13:17:56.031Z</time></trkpt><trkpt lat="41.8514916" lon="3.6907251"><ele>0.0</ele><time>2026-04-30T13:17:57.032Z</time></trkpt><trkpt lat="41.851535" lon="3.6908328"><ele>0.0</ele><time>2026-04-30T13:17:58.031Z</time></trkpt><trkpt lat="41.8515683" lon="3.6909378"><ele>0.0</ele><time>2026-04-30T13:17:59.032Z</time></trkpt><trkpt lat="41.8516025" lon="3.6910421"><ele>0.0</ele><time>2026-04-30T13:18:00.031Z</time></trkpt><trkpt lat="41.8516444" lon="3.6911482"><ele>0.0</ele><time>2026-04-30T13:18:01.032Z</time></trkpt><trkpt lat="41.8516831" lon="3.691258"><ele>0.0</ele><time>2026-04-30T13:18:02.031Z</time></trkpt><trkpt lat="41.8517663" lon="3.6914644"><ele>0.0</ele><time>2026-04-30T13:18:04.032Z</time></trkpt><trkpt lat="41.8518033" lon="3.6915591"><ele>0.0</ele><time>2026-04-30T13:18:05.031Z</time></trkpt><trkpt lat="41.8518425" lon="3.69166"><ele>0.0</ele><time>2026-04-30T13:18:06.032Z</time></trkpt><trkpt lat="41.8518802" lon="3.6917646"><ele>0.0</ele><time>2026-04-30T13:18:07.031Z</time></trkpt><trkpt lat="41.8519128" lon="3.6918799"><ele>0.0</ele><time>2026-04-30T13:18:08.032Z</time></trkpt><trkpt lat="41.8519477" lon="3.6919866"><ele>0.0</ele><time>2026-04-30T13:18:09.032Z</time></trkpt><trkpt lat="41.851985" lon="3.6920977"><ele>0.0</ele><time>2026-04-30T13:18:10.032Z</time></trkpt><trkpt lat="41.8520204" lon="3.6922067"><ele>0.0</ele><time>2026-04-30T13:18:11.032Z</time></trkpt><trkpt lat="41.8520537" lon="3.692317"><ele>0.0</ele><time>2026-04-30T13:18:12.032Z</time></trkpt><trkpt lat="41.8520909" lon="3.6924277"><ele>0.0</ele><time>2026-04-30T13:18:13.031Z</time></trkpt><trkpt lat="41.8521264" lon="3.6925304"><ele>0.0</ele><time>2026-04-30T13:18:14.031Z</time></trkpt><trkpt lat="41.85216" lon="3.692625"><ele>0.0</ele><time>2026-04-30T13:18:15.032Z</time></trkpt><trkpt lat="41.8521932" lon="3.6927257"><ele>0.0</ele><time>2026-04-30T13:18:16.032Z</time></trkpt><trkpt lat="41.8522262" lon="3.6928375"><ele>0.0</ele><time>2026-04-30T13:18:17.032Z</time></trkpt><trkpt lat="41.8522622" lon="3.6929463"><ele>0.0</ele><time>2026-04-30T13:18:18.031Z</time></trkpt><trkpt lat="41.8522947" lon="3.6930546"><ele>0.0</ele><time>2026-04-30T13:18:19.031Z</time></trkpt><trkpt lat="41.8523304" lon="3.6931603"><ele>0.0</ele><time>2026-04-30T13:18:20.031Z</time></trkpt><trkpt lat="41.8523673" lon="3.6932709"><ele>0.0</ele><time>2026-04-30T13:18:21.031Z</time></trkpt><trkpt lat="41.8524031" lon="3.6933794"><ele>0.0</ele><time>2026-04-30T13:18:22.032Z</time></trkpt><trkpt lat="41.8524448" lon="3.693488"><ele>0.0</ele><time>2026-04-30T13:18:23.032Z</time></trkpt><trkpt lat="41.8525192" lon="3.6937049"><ele>0.0</ele><time>2026-04-30T13:18:25.031Z</time></trkpt><trkpt lat="41.8525594" lon="3.6938144"><ele>0.0</ele><time>2026-04-30T13:18:26.031Z</time></trkpt><trkpt lat="41.8525983" lon="3.6939245"><ele>0.0</ele><time>2026-04-30T13:18:27.031Z</time></trkpt><trkpt lat="41.8526394" lon="3.6940276"><ele>0.0</ele><time>2026-04-30T13:18:28.032Z</time></trkpt><trkpt lat="41.8526801" lon="3.6941331"><ele>0.0</ele><time>2026-04-30T13:18:29.031Z</time></trkpt><trkpt lat="41.8527177" lon="3.6942412"><ele>0.0</ele><time>2026-04-30T13:18:30.031Z</time></trkpt><trkpt lat="41.8527571" lon="3.6943367"><ele>0.0</ele><time>2026-04-30T13:18:31.031Z</time></trkpt><trkpt lat="41.8527956" lon="3.694437"><ele>0.0</ele><time>2026-04-30T13:18:32.031Z</time></trkpt><trkpt lat="41.8528734" lon="3.6946404"><ele>0.0</ele><time>2026-04-30T13:18:34.032Z</time></trkpt><trkpt lat="41.8529149" lon="3.6947407"><ele>0.0</ele><time>2026-04-30T13:18:35.032Z</time></trkpt><trkpt lat="41.8529552" lon="3.6948435"><ele>0.0</ele><time>2026-04-30T13:18:36.032Z</time></trkpt><trkpt lat="41.8529937" lon="3.6949473"><ele>0.0</ele><time>2026-04-30T13:18:37.031Z</time></trkpt><trkpt lat="41.8530264" lon="3.695052"><ele>0.0</ele><time>2026-04-30T13:18:38.03Z</time></trkpt><trkpt lat="41.8530608" lon="3.6951593"><ele>0.0</ele><time>2026-04-30T13:18:39.031Z</time></trkpt><trkpt lat="41.8530956" lon="3.6952675"><ele>0.0</ele><time>2026-04-30T13:18:40.031Z</time></trkpt><trkpt lat="41.8531376" lon="3.6953745"><ele>0.0</ele><time>2026-04-30T13:18:41.03Z</time></trkpt><trkpt lat="41.8531784" lon="3.6954826"><ele>0.0</ele><time>2026-04-30T13:18:42.031Z</time></trkpt><trkpt lat="41.8532155" lon="3.6955924"><ele>0.0</ele><time>2026-04-30T13:18:43.03Z</time></trkpt><trkpt lat="41.8532511" lon="3.6956996"><ele>0.0</ele><time>2026-04-30T13:18:44.031Z</time></trkpt><trkpt lat="41.8533371" lon="3.6959159"><ele>0.0</ele><time>2026-04-30T13:18:46.03Z</time></trkpt><trkpt lat="41.8533768" lon="3.6960272"><ele>0.0</ele><time>2026-04-30T13:18:47.03Z</time></trkpt><trkpt lat="41.8534169" lon="3.6961387"><ele>0.0</ele><time>2026-04-30T13:18:48.03Z</time></trkpt><trkpt lat="41.8534612" lon="3.6962448"><ele>0.0</ele><time>2026-04-30T13:18:49.031Z</time></trkpt><trkpt lat="41.8535002" lon="3.6963501"><ele>0.0</ele><time>2026-04-30T13:18:50.031Z</time></trkpt><trkpt lat="41.8535416" lon="3.6964534"><ele>0.0</ele><time>2026-04-30T13:18:51.03Z</time></trkpt><trkpt lat="41.8535784" lon="3.6965585"><ele>0.0</ele><time>2026-04-30T13:18:52.03Z</time></trkpt><trkpt lat="41.8536168" lon="3.6966574"><ele>0.0</ele><time>2026-04-30T13:18:53.031Z</time></trkpt><trkpt lat="41.8536612" lon="3.6967584"><ele>0.0</ele><time>2026-04-30T13:18:54.031Z</time></trkpt><trkpt lat="41.8537051" lon="3.6968541"><ele>0.0</ele><time>2026-04-30T13:18:55.031Z</time></trkpt><trkpt lat="41.8537498" lon="3.696953"><ele>0.0</ele><time>2026-04-30T13:18:56.031Z</time></trkpt><trkpt lat="41.853796" lon="3.697056"><ele>0.0</ele><time>2026-04-30T13:18:57.031Z</time></trkpt><trkpt lat="41.8538425" lon="3.6971638"><ele>0.0</ele><time>2026-04-30T13:18:58.03Z</time></trkpt><trkpt lat="41.8538865" lon="3.6972682"><ele>0.0</ele><time>2026-04-30T13:18:59.03Z</time></trkpt><trkpt lat="41.8539282" lon="3.6973717"><ele>0.0</ele><time>2026-04-30T13:19:00.03Z</time></trkpt><trkpt lat="41.8539672" lon="3.697471"><ele>0.0</ele><time>2026-04-30T13:19:01.03Z</time></trkpt><trkpt lat="41.8540022" lon="3.6975707"><ele>0.0</ele><time>2026-04-30T13:19:02.03Z</time></trkpt><trkpt lat="41.8540398" lon="3.6976737"><ele>0.0</ele><time>2026-04-30T13:19:03.03Z</time></trkpt><trkpt lat="41.8540882" lon="3.6977751"><ele>0.0</ele><time>2026-04-30T13:19:04.03Z</time></trkpt><trkpt lat="41.8542099" lon="3.6980997"><ele>0.0</ele><time>2026-04-30T13:19:07.03Z</time></trkpt><trkpt lat="41.85425" lon="3.698203"><ele>0.0</ele><time>2026-04-30T13:19:08.03Z</time></trkpt><trkpt lat="41.8542903" lon="3.6983064"><ele>0.0</ele><time>2026-04-30T13:19:09.031Z</time></trkpt><trkpt lat="41.8543287" lon="3.6984114"><ele>0.0</ele><time>2026-04-30T13:19:10.03Z</time></trkpt><trkpt lat="41.8543568" lon="3.6985221"><ele>0.0</ele><time>2026-04-30T13:19:11.03Z</time></trkpt><trkpt lat="41.8543848" lon="3.6986344"><ele>0.0</ele><time>2026-04-30T13:19:12.03Z</time></trkpt><trkpt lat="41.8544172" lon="3.6987444"><ele>0.0</ele><time>2026-04-30T13:19:13.03Z</time></trkpt><trkpt lat="41.8544521" lon="3.69885"><ele>0.0</ele><time>2026-04-30T13:19:14.031Z</time></trkpt><trkpt lat="41.8544906" lon="3.6989517"><ele>0.0</ele><time>2026-04-30T13:19:15.031Z</time></trkpt><trkpt lat="41.8545292" lon="3.6990535"><ele>0.0</ele><time>2026-04-30T13:19:16.031Z</time></trkpt><trkpt lat="41.8545659" lon="3.6991597"><ele>0.0</ele><time>2026-04-30T13:19:17.031Z</time></trkpt><trkpt lat="41.8546008" lon="3.6992653"><ele>0.0</ele><time>2026-04-30T13:19:18.03Z</time></trkpt><trkpt lat="41.8546317" lon="3.6993802"><ele>0.0</ele><time>2026-04-30T13:19:19.031Z</time></trkpt><trkpt lat="41.8546602" lon="3.6994996"><ele>0.0</ele><time>2026-04-30T13:19:20.031Z</time></trkpt><trkpt lat="41.8547023" lon="3.6996071"><ele>0.0</ele><time>2026-04-30T13:19:21.031Z</time></trkpt><trkpt lat="41.8547417" lon="3.6997038"><ele>0.0</ele><time>2026-04-30T13:19:22.031Z</time></trkpt><trkpt lat="41.8547818" lon="3.6998025"><ele>0.0</ele><time>2026-04-30T13:19:23.03Z</time></trkpt><trkpt lat="41.8548302" lon="3.6999048"><ele>0.0</ele><time>2026-04-30T13:19:24.03Z</time></trkpt><trkpt lat="41.854872" lon="3.70001"><ele>0.0</ele><time>2026-04-30T13:19:25.031Z</time></trkpt><trkpt lat="41.8549447" lon="3.7002225"><ele>0.0</ele><time>2026-04-30T13:19:27.031Z</time></trkpt><trkpt lat="41.8549835" lon="3.7003297"><ele>0.0</ele><time>2026-04-30T13:19:28.03Z</time></trkpt><trkpt lat="41.8550191" lon="3.7004365"><ele>0.0</ele><time>2026-04-30T13:19:29.031Z</time></trkpt><trkpt lat="41.8550624" lon="3.7005473"><ele>0.0</ele><time>2026-04-30T13:19:30.031Z</time></trkpt><trkpt lat="41.8551004" lon="3.7006519"><ele>0.0</ele><time>2026-04-30T13:19:31.03Z</time></trkpt><trkpt lat="41.8551472" lon="3.7007485"><ele>0.0</ele><time>2026-04-30T13:19:32.03Z</time></trkpt><trkpt lat="41.8551925" lon="3.7008547"><ele>0.0</ele><time>2026-04-30T13:19:33.031Z</time></trkpt><trkpt lat="41.8552346" lon="3.7009614"><ele>0.0</ele><time>2026-04-30T13:19:34.03Z</time></trkpt><trkpt lat="41.8552783" lon="3.7010676"><ele>0.0</ele><time>2026-04-30T13:19:35.03Z</time></trkpt><trkpt lat="41.8553155" lon="3.7011746"><ele>0.0</ele><time>2026-04-30T13:19:36.03Z</time></trkpt><trkpt lat="41.8553835" lon="3.7013899"><ele>0.0</ele><time>2026-04-30T13:19:38.03Z</time></trkpt><trkpt lat="41.8554204" lon="3.7014982"><ele>0.0</ele><time>2026-04-30T13:19:39.03Z</time></trkpt><trkpt lat="41.8554555" lon="3.7016066"><ele>0.0</ele><time>2026-04-30T13:19:40.031Z</time></trkpt><trkpt lat="41.8554949" lon="3.7017106"><ele>0.0</ele><time>2026-04-30T13:19:41.031Z</time></trkpt><trkpt lat="41.8555262" lon="3.7018213"><ele>0.0</ele><time>2026-04-30T13:19:42.031Z</time></trkpt><trkpt lat="41.8555609" lon="3.7019274"><ele>0.0</ele><time>2026-04-30T13:19:43.03Z</time></trkpt><trkpt lat="41.8555985" lon="3.7020355"><ele>0.0</ele><time>2026-04-30T13:19:44.03Z</time></trkpt><trkpt lat="41.8556351" lon="3.7021467"><ele>0.0</ele><time>2026-04-30T13:19:45.03Z</time></trkpt><trkpt lat="41.8556744" lon="3.7022551"><ele>0.0</ele><time>2026-04-30T13:19:46.031Z</time></trkpt><trkpt lat="41.8557551" lon="3.702464"><ele>0.0</ele><time>2026-04-30T13:19:48.031Z</time></trkpt><trkpt lat="41.8557931" lon="3.7025658"><ele>0.0</ele><time>2026-04-30T13:19:49.03Z</time></trkpt><trkpt lat="41.8558415" lon="3.7026703"><ele>0.0</ele><time>2026-04-30T13:19:50.03Z</time></trkpt><trkpt lat="41.855887" lon="3.7027744"><ele>0.0</ele><time>2026-04-30T13:19:51.03Z</time></trkpt><trkpt lat="41.8559375" lon="3.7028737"><ele>0.0</ele><time>2026-04-30T13:19:52.031Z</time></trkpt><trkpt lat="41.8559853" lon="3.7029707"><ele>0.0</ele><time>2026-04-30T13:19:53.03Z</time></trkpt><trkpt lat="41.856022" lon="3.7030702"><ele>0.0</ele><time>2026-04-30T13:19:54.031Z</time></trkpt><trkpt lat="41.8560636" lon="3.7031732"><ele>0.0</ele><time>2026-04-30T13:19:55.031Z</time></trkpt><trkpt lat="41.8561063" lon="3.7032773"><ele>0.0</ele><time>2026-04-30T13:19:56.03Z</time></trkpt><trkpt lat="41.8561412" lon="3.7033873"><ele>0.0</ele><time>2026-04-30T13:19:57.031Z</time></trkpt><trkpt lat="41.8561771" lon="3.7034989"><ele>0.0</ele><time>2026-04-30T13:19:58.031Z</time></trkpt><trkpt lat="41.8562092" lon="3.7036123"><ele>0.0</ele><time>2026-04-30T13:19:59.031Z</time></trkpt><trkpt lat="41.8562459" lon="3.7037204"><ele>0.0</ele><time>2026-04-30T13:20:00.03Z</time></trkpt><trkpt lat="41.8562892" lon="3.7038221"><ele>0.0</ele><time>2026-04-30T13:20:01.03Z</time></trkpt><trkpt lat="41.8563298" lon="3.7039294"><ele>0.0</ele><time>2026-04-30T13:20:02.03Z</time></trkpt><trkpt lat="41.8563687" lon="3.7040318"><ele>0.0</ele><time>2026-04-30T13:20:03.03Z</time></trkpt><trkpt lat="41.8564101" lon="3.7041349"><ele>0.0</ele><time>2026-04-30T13:20:04.031Z</time></trkpt><trkpt lat="41.8564519" lon="3.704237"><ele>0.0</ele><time>2026-04-30T13:20:05.031Z</time></trkpt><trkpt lat="41.856492" lon="3.7043425"><ele>0.0</ele><time>2026-04-30T13:20:06.031Z</time></trkpt><trkpt lat="41.8565351" lon="3.7044477"><ele>0.0</ele><time>2026-04-30T13:20:07.031Z</time></trkpt><trkpt lat="41.856578" lon="3.7045545"><ele>0.0</ele><time>2026-04-30T13:20:08.031Z</time></trkpt><trkpt lat="41.8567036" lon="3.7048567"><ele>0.0</ele><time>2026-04-30T13:20:11.031Z</time></trkpt><trkpt lat="41.8567469" lon="3.7049566"><ele>0.0</ele><time>2026-04-30T13:20:12.03Z</time></trkpt><trkpt lat="41.8567885" lon="3.7050599"><ele>0.0</ele><time>2026-04-30T13:20:13.03Z</time></trkpt><trkpt lat="41.8568232" lon="3.7051677"><ele>0.0</ele><time>2026-04-30T13:20:14.031Z</time></trkpt><trkpt lat="41.8568548" lon="3.7052773"><ele>0.0</ele><time>2026-04-30T13:20:15.03Z</time></trkpt><trkpt lat="41.8568953" lon="3.7053827"><ele>0.0</ele><time>2026-04-30T13:20:16.03Z</time></trkpt><trkpt lat="41.8569352" lon="3.705491"><ele>0.0</ele><time>2026-04-30T13:20:17.03Z</time></trkpt><trkpt lat="41.8569706" lon="3.7055967"><ele>0.0</ele><time>2026-04-30T13:20:18.03Z</time></trkpt><trkpt lat="41.85701" lon="3.7057114"><ele>0.0</ele><time>2026-04-30T13:20:19.03Z</time></trkpt><trkpt lat="41.8570487" lon="3.7058235"><ele>0.0</ele><time>2026-04-30T13:20:20.031Z</time></trkpt><trkpt lat="41.8570837" lon="3.7059384"><ele>0.0</ele><time>2026-04-30T13:20:21.03Z</time></trkpt><trkpt lat="41.8571233" lon="3.7060462"><ele>0.0</ele><time>2026-04-30T13:20:22.031Z</time></trkpt><trkpt lat="41.8571606" lon="3.7061532"><ele>0.0</ele><time>2026-04-30T13:20:23.03Z</time></trkpt><trkpt lat="41.8571942" lon="3.7062572"><ele>0.0</ele><time>2026-04-30T13:20:24.03Z</time></trkpt><trkpt lat="41.8572286" lon="3.7063649"><ele>0.0</ele><time>2026-04-30T13:20:25.03Z</time></trkpt><trkpt lat="41.8572607" lon="3.7064705"><ele>0.0</ele><time>2026-04-30T13:20:26.03Z</time></trkpt><trkpt lat="41.8572888" lon="3.7065782"><ele>0.0</ele><time>2026-04-30T13:20:27.031Z</time></trkpt><trkpt lat="41.857322" lon="3.7066883"><ele>0.0</ele><time>2026-04-30T13:20:28.031Z</time></trkpt><trkpt lat="41.8573553" lon="3.7067943"><ele>0.0</ele><time>2026-04-30T13:20:29.03Z</time></trkpt><trkpt lat="41.8573871" lon="3.7069067"><ele>0.0</ele><time>2026-04-30T13:20:30.031Z</time></trkpt><trkpt lat="41.8574505" lon="3.7071339"><ele>0.0</ele><time>2026-04-30T13:20:32.03Z</time></trkpt><trkpt lat="41.8574803" lon="3.7072442"><ele>0.0</ele><time>2026-04-30T13:20:33.031Z</time></trkpt><trkpt lat="41.8575162" lon="3.7073522"><ele>0.0</ele><time>2026-04-30T13:20:34.031Z</time></trkpt><trkpt lat="41.857557" lon="3.7074535"><ele>0.0</ele><time>2026-04-30T13:20:35.03Z</time></trkpt><trkpt lat="41.8575957" lon="3.7075605"><ele>0.0</ele><time>2026-04-30T13:20:36.03Z</time></trkpt><trkpt lat="41.8576386" lon="3.7076603"><ele>0.0</ele><time>2026-04-30T13:20:37.03Z</time></trkpt><trkpt lat="41.857684" lon="3.7077552"><ele>0.0</ele><time>2026-04-30T13:20:38.031Z</time></trkpt><trkpt lat="41.8577383" lon="3.7078368"><ele>0.0</ele><time>2026-04-30T13:20:39.031Z</time></trkpt><trkpt lat="41.8577869" lon="3.7079309"><ele>0.0</ele><time>2026-04-30T13:20:40.031Z</time></trkpt><trkpt lat="41.8578717" lon="3.7081341"><ele>0.0</ele><time>2026-04-30T13:20:42.03Z</time></trkpt><trkpt lat="41.8579147" lon="3.7082317"><ele>0.0</ele><time>2026-04-30T13:20:43.03Z</time></trkpt><trkpt lat="41.8579548" lon="3.7083302"><ele>0.0</ele><time>2026-04-30T13:20:44.031Z</time></trkpt><trkpt lat="41.8579987" lon="3.7084307"><ele>0.0</ele><time>2026-04-30T13:20:45.03Z</time></trkpt><trkpt lat="41.8580434" lon="3.708534"><ele>0.0</ele><time>2026-04-30T13:20:46.031Z</time></trkpt><trkpt lat="41.858084" lon="3.7086403"><ele>0.0</ele><time>2026-04-30T13:20:47.031Z</time></trkpt><trkpt lat="41.8581269" lon="3.7087456"><ele>0.0</ele><time>2026-04-30T13:20:48.031Z</time></trkpt><trkpt lat="41.8581704" lon="3.7088495"><ele>0.0</ele><time>2026-04-30T13:20:49.03Z</time></trkpt><trkpt lat="41.8582153" lon="3.7089471"><ele>0.0</ele><time>2026-04-30T13:20:50.03Z</time></trkpt><trkpt lat="41.8582574" lon="3.7090476"><ele>0.0</ele><time>2026-04-30T13:20:51.03Z</time></trkpt><trkpt lat="41.8583285" lon="3.7092583"><ele>0.0</ele><time>2026-04-30T13:20:53.03Z</time></trkpt><trkpt lat="41.858359" lon="3.7093624"><ele>0.0</ele><time>2026-04-30T13:20:54.031Z</time></trkpt><trkpt lat="41.8583944" lon="3.7094671"><ele>0.0</ele><time>2026-04-30T13:20:55.03Z</time></trkpt><trkpt lat="41.8584293" lon="3.709578"><ele>0.0</ele><time>2026-04-30T13:20:56.031Z</time></trkpt><trkpt lat="41.8584657" lon="3.7096887"><ele>0.0</ele><time>2026-04-30T13:20:57.03Z</time></trkpt><trkpt lat="41.8585082" lon="3.7097934"><ele>0.0</ele><time>2026-04-30T13:20:58.031Z</time></trkpt><trkpt lat="41.8585468" lon="3.7099007"><ele>0.0</ele><time>2026-04-30T13:20:59.03Z</time></trkpt><trkpt lat="41.8585813" lon="3.7100148"><ele>0.0</ele><time>2026-04-30T13:21:00.03Z</time></trkpt><trkpt lat="41.8586131" lon="3.7101269"><ele>0.0</ele><time>2026-04-30T13:21:01.031Z</time></trkpt><trkpt lat="41.8586521" lon="3.7102342"><ele>0.0</ele><time>2026-04-30T13:21:02.031Z</time></trkpt><trkpt lat="41.8586866" lon="3.7103423"><ele>0.0</ele><time>2026-04-30T13:21:03.03Z</time></trkpt><trkpt lat="41.858722" lon="3.7104429"><ele>0.0</ele><time>2026-04-30T13:21:04.03Z</time></trkpt><trkpt lat="41.8587629" lon="3.7105482"><ele>0.0</ele><time>2026-04-30T13:21:05.03Z</time></trkpt><trkpt lat="41.8588125" lon="3.7106571"><ele>0.0</ele><time>2026-04-30T13:21:06.03Z</time></trkpt><trkpt lat="41.8588599" lon="3.7107569"><ele>0.0</ele><time>2026-04-30T13:21:07.031Z</time></trkpt><trkpt lat="41.8589124" lon="3.7108608"><ele>0.0</ele><time>2026-04-30T13:21:08.03Z</time></trkpt><trkpt lat="41.8589645" lon="3.7109613"><ele>0.0</ele><time>2026-04-30T13:21:09.03Z</time></trkpt><trkpt lat="41.8590151" lon="3.7110642"><ele>0.0</ele><time>2026-04-30T13:21:10.03Z</time></trkpt><trkpt lat="41.8590651" lon="3.7111636"><ele>0.0</ele><time>2026-04-30T13:21:11.031Z</time></trkpt><trkpt lat="41.8591138" lon="3.7112619"><ele>0.0</ele><time>2026-04-30T13:21:12.03Z</time></trkpt><trkpt lat="41.859159" lon="3.7113633"><ele>0.0</ele><time>2026-04-30T13:21:13.031Z</time></trkpt><trkpt lat="41.8592231" lon="3.7115788"><ele>0.0</ele><time>2026-04-30T13:21:15.03Z</time></trkpt><trkpt lat="41.8592567" lon="3.7116882"><ele>0.0</ele><time>2026-04-30T13:21:16.031Z</time></trkpt><trkpt lat="41.8592929" lon="3.7117954"><ele>0.0</ele><time>2026-04-30T13:21:17.031Z</time></trkpt><trkpt lat="41.8593192" lon="3.7119085"><ele>0.0</ele><time>2026-04-30T13:21:18.03Z</time></trkpt><trkpt lat="41.8593523" lon="3.7120226"><ele>0.0</ele><time>2026-04-30T13:21:19.031Z</time></trkpt><trkpt lat="41.8593828" lon="3.7121278"><ele>0.0</ele><time>2026-04-30T13:21:20.031Z</time></trkpt><trkpt lat="41.8594154" lon="3.7122355"><ele>0.0</ele><time>2026-04-30T13:21:21.03Z</time></trkpt><trkpt lat="41.8594499" lon="3.7123469"><ele>0.0</ele><time>2026-04-30T13:21:22.03Z</time></trkpt><trkpt lat="41.8594819" lon="3.7124554"><ele>0.0</ele><time>2026-04-30T13:21:23.031Z</time></trkpt><trkpt lat="41.8595124" lon="3.7125642"><ele>0.0</ele><time>2026-04-30T13:21:24.03Z</time></trkpt><trkpt lat="41.8595382" lon="3.7126727"><ele>0.0</ele><time>2026-04-30T13:21:25.031Z</time></trkpt><trkpt lat="41.8595746" lon="3.7127782"><ele>0.0</ele><time>2026-04-30T13:21:26.03Z</time></trkpt><trkpt lat="41.8596036" lon="3.7128831"><ele>0.0</ele><time>2026-04-30T13:21:27.031Z</time></trkpt><trkpt lat="41.8596369" lon="3.7129874"><ele>0.0</ele><time>2026-04-30T13:21:28.03Z</time></trkpt><trkpt lat="41.8596718" lon="3.7130934"><ele>0.0</ele><time>2026-04-30T13:21:29.03Z</time></trkpt><trkpt lat="41.8597087" lon="3.713193"><ele>0.0</ele><time>2026-04-30T13:21:30.03Z</time></trkpt><trkpt lat="41.8597543" lon="3.7132935"><ele>0.0</ele><time>2026-04-30T13:21:31.03Z</time></trkpt><trkpt lat="41.8598109" lon="3.7133921"><ele>0.0</ele><time>2026-04-30T13:21:32.031Z</time></trkpt><trkpt lat="41.8598611" lon="3.7134947"><ele>0.0</ele><time>2026-04-30T13:21:33.03Z</time></trkpt><trkpt lat="41.8599043" lon="3.713595"><ele>0.0</ele><time>2026-04-30T13:21:34.03Z</time></trkpt><trkpt lat="41.8599882" lon="3.7138041"><ele>0.0</ele><time>2026-04-30T13:21:36.031Z</time></trkpt><trkpt lat="41.8600325" lon="3.7139065"><ele>0.0</ele><time>2026-04-30T13:21:37.03Z</time></trkpt><trkpt lat="41.8600803" lon="3.7140078"><ele>0.0</ele><time>2026-04-30T13:21:38.03Z</time></trkpt><trkpt lat="41.8601242" lon="3.714124"><ele>0.0</ele><time>2026-04-30T13:21:39.031Z</time></trkpt><trkpt lat="41.8601698" lon="3.7142332"><ele>0.0</ele><time>2026-04-30T13:21:40.03Z</time></trkpt><trkpt lat="41.8602104" lon="3.7143446"><ele>0.0</ele><time>2026-04-30T13:21:41.031Z</time></trkpt><trkpt lat="41.86025" lon="3.7144533"><ele>0.0</ele><time>2026-04-30T13:21:42.03Z</time></trkpt><trkpt lat="41.8602891" lon="3.7145564"><ele>0.0</ele><time>2026-04-30T13:21:43.03Z</time></trkpt><trkpt lat="41.8603285" lon="3.7146613"><ele>0.0</ele><time>2026-04-30T13:21:44.031Z</time></trkpt><trkpt lat="41.8603668" lon="3.7147682"><ele>0.0</ele><time>2026-04-30T13:21:45.03Z</time></trkpt><trkpt lat="41.8604018" lon="3.7148763"><ele>0.0</ele><time>2026-04-30T13:21:46.03Z</time></trkpt><trkpt lat="41.8604372" lon="3.7149809"><ele>0.0</ele><time>2026-04-30T13:21:47.03Z</time></trkpt><trkpt lat="41.8604707" lon="3.7150833"><ele>0.0</ele><time>2026-04-30T13:21:48.03Z</time></trkpt><trkpt lat="41.8605096" lon="3.715188"><ele>0.0</ele><time>2026-04-30T13:21:49.03Z</time></trkpt><trkpt lat="41.8605504" lon="3.7152931"><ele>0.0</ele><time>2026-04-30T13:21:50.03Z</time></trkpt><trkpt lat="41.8605789" lon="3.7153965"><ele>0.0</ele><time>2026-04-30T13:21:51.03Z</time></trkpt><trkpt lat="41.8606214" lon="3.7155028"><ele>0.0</ele><time>2026-04-30T13:21:52.03Z</time></trkpt><trkpt lat="41.8606626" lon="3.7156094"><ele>0.0</ele><time>2026-04-30T13:21:53.031Z</time></trkpt><trkpt lat="41.8606938" lon="3.7157161"><ele>0.0</ele><time>2026-04-30T13:21:54.031Z</time></trkpt><trkpt lat="41.8607344" lon="3.7158177"><ele>0.0</ele><time>2026-04-30T13:21:55.03Z</time></trkpt><trkpt lat="41.8608135" lon="3.7160265"><ele>0.0</ele><time>2026-04-30T13:21:57.031Z</time></trkpt><trkpt lat="41.860859" lon="3.716126"><ele>0.0</ele><time>2026-04-30T13:21:58.03Z</time></trkpt><trkpt lat="41.8608988" lon="3.7162298"><ele>0.0</ele><time>2026-04-30T13:21:59.03Z</time></trkpt><trkpt lat="41.8609314" lon="3.7163387"><ele>0.0</ele><time>2026-04-30T13:22:00.03Z</time></trkpt><trkpt lat="41.8609746" lon="3.716444"><ele>0.0</ele><time>2026-04-30T13:22:01.03Z</time></trkpt><trkpt lat="41.8610138" lon="3.7165437"><ele>0.0</ele><time>2026-04-30T13:22:02.031Z</time></trkpt><trkpt lat="41.8610535" lon="3.7166496"><ele>0.0</ele><time>2026-04-30T13:22:03.031Z</time></trkpt><trkpt lat="41.8610936" lon="3.7167548"><ele>0.0</ele><time>2026-04-30T13:22:04.03Z</time></trkpt><trkpt lat="41.8611281" lon="3.716861"><ele>0.0</ele><time>2026-04-30T13:22:05.03Z</time></trkpt><trkpt lat="41.8611685" lon="3.7169659"><ele>0.0</ele><time>2026-04-30T13:22:06.031Z</time></trkpt><trkpt lat="41.8612086" lon="3.7170694"><ele>0.0</ele><time>2026-04-30T13:22:07.03Z</time></trkpt><trkpt lat="41.861252" lon="3.7171753"><ele>0.0</ele><time>2026-04-30T13:22:08.03Z</time></trkpt><trkpt lat="41.8612956" lon="3.7172733"><ele>0.0</ele><time>2026-04-30T13:22:09.03Z</time></trkpt><trkpt lat="41.8613387" lon="3.7173747"><ele>0.0</ele><time>2026-04-30T13:22:10.031Z</time></trkpt><trkpt lat="41.8613862" lon="3.7174758"><ele>0.0</ele><time>2026-04-30T13:22:11.03Z</time></trkpt><trkpt lat="41.8614328" lon="3.7175775"><ele>0.0</ele><time>2026-04-30T13:22:12.03Z</time></trkpt><trkpt lat="41.8614911" lon="3.7176776"><ele>0.0</ele><time>2026-04-30T13:22:13.03Z</time></trkpt><trkpt lat="41.8615382" lon="3.7177819"><ele>0.0</ele><time>2026-04-30T13:22:14.03Z</time></trkpt><trkpt lat="41.8615847" lon="3.7178874"><ele>0.0</ele><time>2026-04-30T13:22:15.031Z</time></trkpt><trkpt lat="41.8616313" lon="3.717993"><ele>0.0</ele><time>2026-04-30T13:22:16.03Z</time></trkpt><trkpt lat="41.8617528" lon="3.7183195"><ele>0.0</ele><time>2026-04-30T13:22:19.03Z</time></trkpt><trkpt lat="41.8617932" lon="3.7184299"><ele>0.0</ele><time>2026-04-30T13:22:20.03Z</time></trkpt><trkpt lat="41.8618286" lon="3.7185375"><ele>0.0</ele><time>2026-04-30T13:22:21.031Z</time></trkpt><trkpt lat="41.8618649" lon="3.7186471"><ele>0.0</ele><time>2026-04-30T13:22:22.03Z</time></trkpt><trkpt lat="41.8618974" lon="3.7187574"><ele>0.0</ele><time>2026-04-30T13:22:23.03Z</time></trkpt><trkpt lat="41.8619308" lon="3.7188661"><ele>0.0</ele><time>2026-04-30T13:22:24.031Z</time></trkpt><trkpt lat="41.8619638" lon="3.7189757"><ele>0.0</ele><time>2026-04-30T13:22:25.03Z</time></trkpt><trkpt lat="41.861997" lon="3.7190816"><ele>0.0</ele><time>2026-04-30T13:22:26.03Z</time></trkpt><trkpt lat="41.8620278" lon="3.7191818"><ele>0.0</ele><time>2026-04-30T13:22:27.03Z</time></trkpt><trkpt lat="41.8620624" lon="3.7192839"><ele>0.0</ele><time>2026-04-30T13:22:28.03Z</time></trkpt><trkpt lat="41.8621005" lon="3.7193867"><ele>0.0</ele><time>2026-04-30T13:22:29.031Z</time></trkpt><trkpt lat="41.8621403" lon="3.7194902"><ele>0.0</ele><time>2026-04-30T13:22:30.03Z</time></trkpt><trkpt lat="41.8621791" lon="3.7195887"><ele>0.0</ele><time>2026-04-30T13:22:31.031Z</time></trkpt><trkpt lat="41.8622144" lon="3.7196884"><ele>0.0</ele><time>2026-04-30T13:22:32.03Z</time></trkpt><trkpt lat="41.8622525" lon="3.7197911"><ele>0.0</ele><time>2026-04-30T13:22:33.031Z</time></trkpt><trkpt lat="41.862297" lon="3.7198958"><ele>0.0</ele><time>2026-04-30T13:22:34.03Z</time></trkpt><trkpt lat="41.8623438" lon="3.7199951"><ele>0.0</ele><time>2026-04-30T13:22:35.03Z</time></trkpt><trkpt lat="41.8623847" lon="3.720105"><ele>0.0</ele><time>2026-04-30T13:22:36.03Z</time></trkpt><trkpt lat="41.8624304" lon="3.7202107"><ele>0.0</ele><time>2026-04-30T13:22:37.03Z</time></trkpt><trkpt lat="41.8625137" lon="3.7204292"><ele>0.0</ele><time>2026-04-30T13:22:39.031Z</time></trkpt><trkpt lat="41.8625573" lon="3.7205351"><ele>0.0</ele><time>2026-04-30T13:22:40.03Z</time></trkpt><trkpt lat="41.8626028" lon="3.7206377"><ele>0.0</ele><time>2026-04-30T13:22:41.031Z</time></trkpt><trkpt lat="41.8626466" lon="3.7207441"><ele>0.0</ele><time>2026-04-30T13:22:42.03Z</time></trkpt><trkpt lat="41.8626837" lon="3.7208482"><ele>0.0</ele><time>2026-04-30T13:22:43.031Z</time></trkpt><trkpt lat="41.8627186" lon="3.7209533"><ele>0.0</ele><time>2026-04-30T13:22:44.03Z</time></trkpt><trkpt lat="41.8627561" lon="3.7210586"><ele>0.0</ele><time>2026-04-30T13:22:45.031Z</time></trkpt><trkpt lat="41.8627949" lon="3.7211727"><ele>0.0</ele><time>2026-04-30T13:22:46.031Z</time></trkpt><trkpt lat="41.8628301" lon="3.7212851"><ele>0.0</ele><time>2026-04-30T13:22:47.031Z</time></trkpt><trkpt lat="41.8628664" lon="3.7213943"><ele>0.0</ele><time>2026-04-30T13:22:48.031Z</time></trkpt><trkpt lat="41.8629303" lon="3.7216105"><ele>0.0</ele><time>2026-04-30T13:22:50.031Z</time></trkpt><trkpt lat="41.8629615" lon="3.7217243"><ele>0.0</ele><time>2026-04-30T13:22:51.031Z</time></trkpt><trkpt lat="41.8629932" lon="3.721832"><ele>0.0</ele><time>2026-04-30T13:22:52.031Z</time></trkpt><trkpt lat="41.8630266" lon="3.7219389"><ele>0.0</ele><time>2026-04-30T13:22:53.03Z</time></trkpt><trkpt lat="41.8630587" lon="3.7220467"><ele>0.0</ele><time>2026-04-30T13:22:54.031Z</time></trkpt><trkpt lat="41.8630934" lon="3.7221533"><ele>0.0</ele><time>2026-04-30T13:22:55.03Z</time></trkpt><trkpt lat="41.8631329" lon="3.7222595"><ele>0.0</ele><time>2026-04-30T13:22:56.03Z</time></trkpt><trkpt lat="41.8631748" lon="3.7223689"><ele>0.0</ele><time>2026-04-30T13:22:57.03Z</time></trkpt><trkpt lat="41.8632182" lon="3.7224725"><ele>0.0</ele><time>2026-04-30T13:22:58.03Z</time></trkpt><trkpt lat="41.8633065" lon="3.7226774"><ele>0.0</ele><time>2026-04-30T13:23:00.03Z</time></trkpt><trkpt lat="41.8633571" lon="3.7227851"><ele>0.0</ele><time>2026-04-30T13:23:01.03Z</time></trkpt><trkpt lat="41.8634019" lon="3.7228832"><ele>0.0</ele><time>2026-04-30T13:23:02.029Z</time></trkpt><trkpt lat="41.8634469" lon="3.7229798"><ele>0.0</ele><time>2026-04-30T13:23:03.029Z</time></trkpt><trkpt lat="41.8634919" lon="3.7230797"><ele>0.0</ele><time>2026-04-30T13:23:04.029Z</time></trkpt><trkpt lat="41.863537" lon="3.7231828"><ele>0.0</ele><time>2026-04-30T13:23:05.029Z</time></trkpt><trkpt lat="41.8635867" lon="3.7232861"><ele>0.0</ele><time>2026-04-30T13:23:06.03Z</time></trkpt><trkpt lat="41.8636204" lon="3.7233896"><ele>0.0</ele><time>2026-04-30T13:23:07.03Z</time></trkpt><trkpt lat="41.8636622" lon="3.7234957"><ele>0.0</ele><time>2026-04-30T13:23:08.03Z</time></trkpt><trkpt lat="41.8636944" lon="3.7236071"><ele>0.0</ele><time>2026-04-30T13:23:09.029Z</time></trkpt><trkpt lat="41.8637292" lon="3.7237176"><ele>0.0</ele><time>2026-04-30T13:23:10.029Z</time></trkpt><trkpt lat="41.8637637" lon="3.7238255"><ele>0.0</ele><time>2026-04-30T13:23:11.03Z</time></trkpt><trkpt lat="41.8637953" lon="3.7239307"><ele>0.0</ele><time>2026-04-30T13:23:12.03Z</time></trkpt><trkpt lat="41.8638309" lon="3.7240414"><ele>0.0</ele><time>2026-04-30T13:23:13.029Z</time></trkpt><trkpt lat="41.8638715" lon="3.724152"><ele>0.0</ele><time>2026-04-30T13:23:14.029Z</time></trkpt><trkpt lat="41.8639107" lon="3.7242635"><ele>0.0</ele><time>2026-04-30T13:23:15.029Z</time></trkpt><trkpt lat="41.8639464" lon="3.7243751"><ele>0.0</ele><time>2026-04-30T13:23:16.03Z</time></trkpt><trkpt lat="41.8639819" lon="3.7244838"><ele>0.0</ele><time>2026-04-30T13:23:17.03Z</time></trkpt><trkpt lat="41.864017" lon="3.7245935"><ele>0.0</ele><time>2026-04-30T13:23:18.03Z</time></trkpt><trkpt lat="41.8640552" lon="3.7246959"><ele>0.0</ele><time>2026-04-30T13:23:19.029Z</time></trkpt><trkpt lat="41.8640969" lon="3.7247972"><ele>0.0</ele><time>2026-04-30T13:23:20.03Z</time></trkpt><trkpt lat="41.8641709" lon="3.7250057"><ele>0.0</ele><time>2026-04-30T13:23:22.03Z</time></trkpt><trkpt lat="41.8642085" lon="3.7251139"><ele>0.0</ele><time>2026-04-30T13:23:23.029Z</time></trkpt><trkpt lat="41.8642482" lon="3.7252238"><ele>0.0</ele><time>2026-04-30T13:23:24.03Z</time></trkpt><trkpt lat="41.8642886" lon="3.7253293"><ele>0.0</ele><time>2026-04-30T13:23:25.029Z</time></trkpt><trkpt lat="41.8643319" lon="3.7254374"><ele>0.0</ele><time>2026-04-30T13:23:26.03Z</time></trkpt><trkpt lat="41.8643752" lon="3.72554"><ele>0.0</ele><time>2026-04-30T13:23:27.029Z</time></trkpt><trkpt lat="41.864417" lon="3.7256451"><ele>0.0</ele><time>2026-04-30T13:23:28.029Z</time></trkpt><trkpt lat="41.8644614" lon="3.7257432"><ele>0.0</ele><time>2026-04-30T13:23:29.03Z</time></trkpt><trkpt lat="41.8645052" lon="3.7258497"><ele>0.0</ele><time>2026-04-30T13:23:30.03Z</time></trkpt><trkpt lat="41.8645543" lon="3.7259521"><ele>0.0</ele><time>2026-04-30T13:23:31.029Z</time></trkpt><trkpt lat="41.8645999" lon="3.726052"><ele>0.0</ele><time>2026-04-30T13:23:32.029Z</time></trkpt><trkpt lat="41.8646433" lon="3.7261548"><ele>0.0</ele><time>2026-04-30T13:23:33.03Z</time></trkpt><trkpt lat="41.8646821" lon="3.7262575"><ele>0.0</ele><time>2026-04-30T13:23:34.03Z</time></trkpt><trkpt lat="41.8647185" lon="3.7263623"><ele>0.0</ele><time>2026-04-30T13:23:35.03Z</time></trkpt><trkpt lat="41.8647508" lon="3.7264634"><ele>0.0</ele><time>2026-04-30T13:23:36.029Z</time></trkpt><trkpt lat="41.8647825" lon="3.7265661"><ele>0.0</ele><time>2026-04-30T13:23:37.029Z</time></trkpt><trkpt lat="41.8648082" lon="3.7266713"><ele>0.0</ele><time>2026-04-30T13:23:38.029Z</time></trkpt><trkpt lat="41.8648373" lon="3.7267808"><ele>0.0</ele><time>2026-04-30T13:23:39.029Z</time></trkpt><trkpt lat="41.864868" lon="3.7268821"><ele>0.0</ele><time>2026-04-30T13:23:40.029Z</time></trkpt><trkpt lat="41.8649073" lon="3.7269873"><ele>0.0</ele><time>2026-04-30T13:23:41.03Z</time></trkpt><trkpt lat="41.8649442" lon="3.7270951"><ele>0.0</ele><time>2026-04-30T13:23:42.029Z</time></trkpt><trkpt lat="41.8650228" lon="3.7273074"><ele>0.0</ele><time>2026-04-30T13:23:44.029Z</time></trkpt><trkpt lat="41.8650584" lon="3.7274094"><ele>0.0</ele><time>2026-04-30T13:23:45.029Z</time></trkpt><trkpt lat="41.8650878" lon="3.7275124"><ele>0.0</ele><time>2026-04-30T13:23:46.03Z</time></trkpt><trkpt lat="41.8651151" lon="3.7276269"><ele>0.0</ele><time>2026-04-30T13:23:47.029Z</time></trkpt><trkpt lat="41.8651504" lon="3.7277327"><ele>0.0</ele><time>2026-04-30T13:23:48.03Z</time></trkpt><trkpt lat="41.8651916" lon="3.7278407"><ele>0.0</ele><time>2026-04-30T13:23:49.03Z</time></trkpt><trkpt lat="41.865232" lon="3.7279504"><ele>0.0</ele><time>2026-04-30T13:23:50.029Z</time></trkpt><trkpt lat="41.865272" lon="3.7280607"><ele>0.0</ele><time>2026-04-30T13:23:51.029Z</time></trkpt><trkpt lat="41.8653137" lon="3.728169"><ele>0.0</ele><time>2026-04-30T13:23:52.03Z</time></trkpt><trkpt lat="41.8653442" lon="3.7282815"><ele>0.0</ele><time>2026-04-30T13:23:53.029Z</time></trkpt><trkpt lat="41.8653826" lon="3.7283847"><ele>0.0</ele><time>2026-04-30T13:23:54.03Z</time></trkpt><trkpt lat="41.8654205" lon="3.7284896"><ele>0.0</ele><time>2026-04-30T13:23:55.03Z</time></trkpt><trkpt lat="41.8654617" lon="3.7285976"><ele>0.0</ele><time>2026-04-30T13:23:56.03Z</time></trkpt><trkpt lat="41.8655035" lon="3.7287044"><ele>0.0</ele><time>2026-04-30T13:23:57.029Z</time></trkpt><trkpt lat="41.8655418" lon="3.7288068"><ele>0.0</ele><time>2026-04-30T13:23:58.029Z</time></trkpt><trkpt lat="41.8655843" lon="3.7289204"><ele>0.0</ele><time>2026-04-30T13:23:59.029Z</time></trkpt><trkpt lat="41.8656248" lon="3.7290264"><ele>0.0</ele><time>2026-04-30T13:24:00.03Z</time></trkpt><trkpt lat="41.8656634" lon="3.729132"><ele>0.0</ele><time>2026-04-30T13:24:01.029Z</time></trkpt><trkpt lat="41.8657052" lon="3.7292338"><ele>0.0</ele><time>2026-04-30T13:24:02.03Z</time></trkpt><trkpt lat="41.865748" lon="3.7293354"><ele>0.0</ele><time>2026-04-30T13:24:03.029Z</time></trkpt><trkpt lat="41.8658366" lon="3.7295386"><ele>0.0</ele><time>2026-04-30T13:24:05.03Z</time></trkpt><trkpt lat="41.8658771" lon="3.7296388"><ele>0.0</ele><time>2026-04-30T13:24:06.029Z</time></trkpt><trkpt lat="41.8659267" lon="3.729739"><ele>0.0</ele><time>2026-04-30T13:24:07.03Z</time></trkpt><trkpt lat="41.8659723" lon="3.7298434"><ele>0.0</ele><time>2026-04-30T13:24:08.03Z</time></trkpt><trkpt lat="41.8660175" lon="3.7299487"><ele>0.0</ele><time>2026-04-30T13:24:09.029Z</time></trkpt><trkpt lat="41.8660567" lon="3.7300539"><ele>0.0</ele><time>2026-04-30T13:24:10.029Z</time></trkpt><trkpt lat="41.8660964" lon="3.7301619"><ele>0.0</ele><time>2026-04-30T13:24:11.029Z</time></trkpt><trkpt lat="41.8661403" lon="3.7302667"><ele>0.0</ele><time>2026-04-30T13:24:12.03Z</time></trkpt><trkpt lat="41.866187" lon="3.7303716"><ele>0.0</ele><time>2026-04-30T13:24:13.029Z</time></trkpt><trkpt lat="41.8662284" lon="3.7304691"><ele>0.0</ele><time>2026-04-30T13:24:14.029Z</time></trkpt><trkpt lat="41.866273" lon="3.7305656"><ele>0.0</ele><time>2026-04-30T13:24:15.029Z</time></trkpt><trkpt lat="41.8663067" lon="3.730667"><ele>0.0</ele><time>2026-04-30T13:24:16.029Z</time></trkpt><trkpt lat="41.8663498" lon="3.7307741"><ele>0.0</ele><time>2026-04-30T13:24:17.03Z</time></trkpt><trkpt lat="41.8663892" lon="3.7308826"><ele>0.0</ele><time>2026-04-30T13:24:18.029Z</time></trkpt><trkpt lat="41.8664217" lon="3.730987"><ele>0.0</ele><time>2026-04-30T13:24:19.03Z</time></trkpt><trkpt lat="41.8664517" lon="3.7310935"><ele>0.0</ele><time>2026-04-30T13:24:20.03Z</time></trkpt><trkpt lat="41.866487" lon="3.7312001"><ele>0.0</ele><time>2026-04-30T13:24:21.03Z</time></trkpt><trkpt lat="41.8665236" lon="3.7313037"><ele>0.0</ele><time>2026-04-30T13:24:22.03Z</time></trkpt><trkpt lat="41.8665674" lon="3.7314073"><ele>0.0</ele><time>2026-04-30T13:24:23.03Z</time></trkpt><trkpt lat="41.8666094" lon="3.7315106"><ele>0.0</ele><time>2026-04-30T13:24:24.03Z</time></trkpt><trkpt lat="41.8667278" lon="3.7318222"><ele>0.0</ele><time>2026-04-30T13:24:27.029Z</time></trkpt><trkpt lat="41.8667668" lon="3.7319254"><ele>0.0</ele><time>2026-04-30T13:24:28.029Z</time></trkpt><trkpt lat="41.8668093" lon="3.7320316"><ele>0.0</ele><time>2026-04-30T13:24:29.029Z</time></trkpt><trkpt lat="41.8668522" lon="3.7321383"><ele>0.0</ele><time>2026-04-30T13:24:30.029Z</time></trkpt><trkpt lat="41.866897" lon="3.7322454"><ele>0.0</ele><time>2026-04-30T13:24:31.029Z</time></trkpt><trkpt lat="41.8669335" lon="3.732352"><ele>0.0</ele><time>2026-04-30T13:24:32.029Z</time></trkpt><trkpt lat="41.866973" lon="3.7324567"><ele>0.0</ele><time>2026-04-30T13:24:33.03Z</time></trkpt><trkpt lat="41.8670156" lon="3.7325618"><ele>0.0</ele><time>2026-04-30T13:24:34.029Z</time></trkpt><trkpt lat="41.8670491" lon="3.7326681"><ele>0.0</ele><time>2026-04-30T13:24:35.029Z</time></trkpt><trkpt lat="41.8670866" lon="3.7327711"><ele>0.0</ele><time>2026-04-30T13:24:36.029Z</time></trkpt><trkpt lat="41.8671294" lon="3.7328765"><ele>0.0</ele><time>2026-04-30T13:24:37.03Z</time></trkpt><trkpt lat="41.8671703" lon="3.7329815"><ele>0.0</ele><time>2026-04-30T13:24:38.03Z</time></trkpt><trkpt lat="41.8672089" lon="3.7330852"><ele>0.0</ele><time>2026-04-30T13:24:39.03Z</time></trkpt><trkpt lat="41.8672473" lon="3.7331928"><ele>0.0</ele><time>2026-04-30T13:24:40.029Z</time></trkpt><trkpt lat="41.8672827" lon="3.733301"><ele>0.0</ele><time>2026-04-30T13:24:41.03Z</time></trkpt><trkpt lat="41.867319" lon="3.7334095"><ele>0.0</ele><time>2026-04-30T13:24:42.029Z</time></trkpt><trkpt lat="41.8673609" lon="3.7335194"><ele>0.0</ele><time>2026-04-30T13:24:43.03Z</time></trkpt><trkpt lat="41.8674031" lon="3.7336249"><ele>0.0</ele><time>2026-04-30T13:24:44.03Z</time></trkpt><trkpt lat="41.8674403" lon="3.7337346"><ele>0.0</ele><time>2026-04-30T13:24:45.029Z</time></trkpt><trkpt lat="41.867509" lon="3.7339501"><ele>0.0</ele><time>2026-04-30T13:24:47.029Z</time></trkpt><trkpt lat="41.8675474" lon="3.7340547"><ele>0.0</ele><time>2026-04-30T13:24:48.03Z</time></trkpt><trkpt lat="41.8675832" lon="3.7341577"><ele>0.0</ele><time>2026-04-30T13:24:49.03Z</time></trkpt><trkpt lat="41.8676223" lon="3.7342643"><ele>0.0</ele><time>2026-04-30T13:24:50.029Z</time></trkpt><trkpt lat="41.867661" lon="3.7343724"><ele>0.0</ele><time>2026-04-30T13:24:51.029Z</time></trkpt><trkpt lat="41.8676947" lon="3.7344824"><ele>0.0</ele><time>2026-04-30T13:24:52.03Z</time></trkpt><trkpt lat="41.8677252" lon="3.7345927"><ele>0.0</ele><time>2026-04-30T13:24:53.029Z</time></trkpt><trkpt lat="41.8677552" lon="3.7347042"><ele>0.0</ele><time>2026-04-30T13:24:54.03Z</time></trkpt><trkpt lat="41.8677845" lon="3.7348109"><ele>0.0</ele><time>2026-04-30T13:24:55.029Z</time></trkpt><trkpt lat="41.8678188" lon="3.7349146"><ele>0.0</ele><time>2026-04-30T13:24:56.03Z</time></trkpt><trkpt lat="41.8678568" lon="3.7350201"><ele>0.0</ele><time>2026-04-30T13:24:57.03Z</time></trkpt><trkpt lat="41.8678995" lon="3.7351293"><ele>0.0</ele><time>2026-04-30T13:24:58.029Z</time></trkpt><trkpt lat="41.8679386" lon="3.7352353"><ele>0.0</ele><time>2026-04-30T13:24:59.029Z</time></trkpt><trkpt lat="41.867976" lon="3.7353385"><ele>0.0</ele><time>2026-04-30T13:25:00.029Z</time></trkpt><trkpt lat="41.8680154" lon="3.735439"><ele>0.0</ele><time>2026-04-30T13:25:01.03Z</time></trkpt><trkpt lat="41.8680538" lon="3.7355438"><ele>0.0</ele><time>2026-04-30T13:25:02.029Z</time></trkpt><trkpt lat="41.8680919" lon="3.7356504"><ele>0.0</ele><time>2026-04-30T13:25:03.029Z</time></trkpt><trkpt lat="41.8681256" lon="3.7357616"><ele>0.0</ele><time>2026-04-30T13:25:04.029Z</time></trkpt><trkpt lat="41.8681666" lon="3.7358656"><ele>0.0</ele><time>2026-04-30T13:25:05.03Z</time></trkpt><trkpt lat="41.8682082" lon="3.7359713"><ele>0.0</ele><time>2026-04-30T13:25:06.029Z</time></trkpt><trkpt lat="41.8682851" lon="3.7361878"><ele>0.0</ele><time>2026-04-30T13:25:08.029Z</time></trkpt><trkpt lat="41.8683209" lon="3.736295"><ele>0.0</ele><time>2026-04-30T13:25:09.03Z</time></trkpt><trkpt lat="41.8683588" lon="3.7363987"><ele>0.0</ele><time>2026-04-30T13:25:10.03Z</time></trkpt><trkpt lat="41.868397" lon="3.7365063"><ele>0.0</ele><time>2026-04-30T13:25:11.03Z</time></trkpt><trkpt lat="41.8684409" lon="3.7366135"><ele>0.0</ele><time>2026-04-30T13:25:12.03Z</time></trkpt><trkpt lat="41.8684787" lon="3.7367149"><ele>0.0</ele><time>2026-04-30T13:25:13.029Z</time></trkpt><trkpt lat="41.8685225" lon="3.7368163"><ele>0.0</ele><time>2026-04-30T13:25:14.03Z</time></trkpt><trkpt lat="41.868562" lon="3.7369201"><ele>0.0</ele><time>2026-04-30T13:25:15.029Z</time></trkpt><trkpt lat="41.8686034" lon="3.7370217"><ele>0.0</ele><time>2026-04-30T13:25:16.029Z</time></trkpt><trkpt lat="41.8686465" lon="3.7371277"><ele>0.0</ele><time>2026-04-30T13:25:17.03Z</time></trkpt><trkpt lat="41.8686888" lon="3.7372318"><ele>0.0</ele><time>2026-04-30T13:25:18.029Z</time></trkpt><trkpt lat="41.8687289" lon="3.7373338"><ele>0.0</ele><time>2026-04-30T13:25:19.029Z</time></trkpt><trkpt lat="41.8687686" lon="3.7374355"><ele>0.0</ele><time>2026-04-30T13:25:20.029Z</time></trkpt><trkpt lat="41.8688083" lon="3.7375416"><ele>0.0</ele><time>2026-04-30T13:25:21.03Z</time></trkpt><trkpt lat="41.8688451" lon="3.7376498"><ele>0.0</ele><time>2026-04-30T13:25:22.03Z</time></trkpt><trkpt lat="41.8688862" lon="3.7377592"><ele>0.0</ele><time>2026-04-30T13:25:23.03Z</time></trkpt><trkpt lat="41.8689268" lon="3.7378647"><ele>0.0</ele><time>2026-04-30T13:25:24.029Z</time></trkpt><trkpt lat="41.8689665" lon="3.7379715"><ele>0.0</ele><time>2026-04-30T13:25:25.03Z</time></trkpt><trkpt lat="41.869008" lon="3.7380823"><ele>0.0</ele><time>2026-04-30T13:25:26.03Z</time></trkpt><trkpt lat="41.869048" lon="3.7381883"><ele>0.0</ele><time>2026-04-30T13:25:27.029Z</time></trkpt><trkpt lat="41.8690852" lon="3.7382905"><ele>0.0</ele><time>2026-04-30T13:25:28.029Z</time></trkpt><trkpt lat="41.8691906" lon="3.7386071"><ele>0.0</ele><time>2026-04-30T13:25:31.029Z</time></trkpt><trkpt lat="41.8692315" lon="3.7387131"><ele>0.0</ele><time>2026-04-30T13:25:32.029Z</time></trkpt><trkpt lat="41.8692702" lon="3.7388198"><ele>0.0</ele><time>2026-04-30T13:25:33.03Z</time></trkpt><trkpt lat="41.8693068" lon="3.7389225"><ele>0.0</ele><time>2026-04-30T13:25:34.029Z</time></trkpt><trkpt lat="41.8693419" lon="3.7390287"><ele>0.0</ele><time>2026-04-30T13:25:35.029Z</time></trkpt><trkpt lat="41.8693813" lon="3.7391365"><ele>0.0</ele><time>2026-04-30T13:25:36.03Z</time></trkpt><trkpt lat="41.869423" lon="3.739246"><ele>0.0</ele><time>2026-04-30T13:25:37.03Z</time></trkpt><trkpt lat="41.8694617" lon="3.7393532"><ele>0.0</ele><time>2026-04-30T13:25:38.03Z</time></trkpt><trkpt lat="41.8695018" lon="3.7394585"><ele>0.0</ele><time>2026-04-30T13:25:39.03Z</time></trkpt><trkpt lat="41.8695407" lon="3.7395645"><ele>0.0</ele><time>2026-04-30T13:25:40.03Z</time></trkpt><trkpt lat="41.8695776" lon="3.7396636"><ele>0.0</ele><time>2026-04-30T13:25:41.029Z</time></trkpt><trkpt lat="41.8696129" lon="3.7397678"><ele>0.0</ele><time>2026-04-30T13:25:42.029Z</time></trkpt><trkpt lat="41.8696493" lon="3.7398743"><ele>0.0</ele><time>2026-04-30T13:25:43.03Z</time></trkpt><trkpt lat="41.8696844" lon="3.7399784"><ele>0.0</ele><time>2026-04-30T13:25:44.029Z</time></trkpt><trkpt lat="41.8697177" lon="3.740078"><ele>0.0</ele><time>2026-04-30T13:25:45.029Z</time></trkpt><trkpt lat="41.8697533" lon="3.740185"><ele>0.0</ele><time>2026-04-30T13:25:46.03Z</time></trkpt><trkpt lat="41.8697983" lon="3.7402875"><ele>0.0</ele><time>2026-04-30T13:25:47.029Z</time></trkpt><trkpt lat="41.8698452" lon="3.7403873"><ele>0.0</ele><time>2026-04-30T13:25:48.03Z</time></trkpt><trkpt lat="41.8698894" lon="3.7404915"><ele>0.0</ele><time>2026-04-30T13:25:49.029Z</time></trkpt><trkpt lat="41.8699756" lon="3.7407052"><ele>0.0</ele><time>2026-04-30T13:25:51.029Z</time></trkpt><trkpt lat="41.8700196" lon="3.7408116"><ele>0.0</ele><time>2026-04-30T13:25:52.029Z</time></trkpt><trkpt lat="41.8700503" lon="3.7409168"><ele>0.0</ele><time>2026-04-30T13:25:53.03Z</time></trkpt><trkpt lat="41.8700826" lon="3.7410262"><ele>0.0</ele><time>2026-04-30T13:25:54.029Z</time></trkpt><trkpt lat="41.8701229" lon="3.7411402"><ele>0.0</ele><time>2026-04-30T13:25:55.03Z</time></trkpt><trkpt lat="41.8701647" lon="3.7412494"><ele>0.0</ele><time>2026-04-30T13:25:56.029Z</time></trkpt><trkpt lat="41.8702023" lon="3.7413567"><ele>0.0</ele><time>2026-04-30T13:25:57.029Z</time></trkpt><trkpt lat="41.8702402" lon="3.7414606"><ele>0.0</ele><time>2026-04-30T13:25:58.03Z</time></trkpt><trkpt lat="41.8702798" lon="3.7415668"><ele>0.0</ele><time>2026-04-30T13:25:59.029Z</time></trkpt><trkpt lat="41.8703183" lon="3.7416705"><ele>0.0</ele><time>2026-04-30T13:26:00.029Z</time></trkpt><trkpt lat="41.870354" lon="3.7417763"><ele>0.0</ele><time>2026-04-30T13:26:01.029Z</time></trkpt><trkpt lat="41.8703963" lon="3.7418803"><ele>0.0</ele><time>2026-04-30T13:26:02.03Z</time></trkpt><trkpt lat="41.8704384" lon="3.7419833"><ele>0.0</ele><time>2026-04-30T13:26:03.03Z</time></trkpt><trkpt lat="41.8704688" lon="3.7420941"><ele>0.0</ele><time>2026-04-30T13:26:04.029Z</time></trkpt><trkpt lat="41.8705115" lon="3.7422055"><ele>0.0</ele><time>2026-04-30T13:26:05.03Z</time></trkpt><trkpt lat="41.8705579" lon="3.7423132"><ele>0.0</ele><time>2026-04-30T13:26:06.029Z</time></trkpt><trkpt lat="41.8705998" lon="3.7424186"><ele>0.0</ele><time>2026-04-30T13:26:07.029Z</time></trkpt><trkpt lat="41.8706471" lon="3.7425209"><ele>0.0</ele><time>2026-04-30T13:26:08.029Z</time></trkpt><trkpt lat="41.8706882" lon="3.742624"><ele>0.0</ele><time>2026-04-30T13:26:09.029Z</time></trkpt><trkpt lat="41.8707267" lon="3.7427286"><ele>0.0</ele><time>2026-04-30T13:26:10.029Z</time></trkpt><trkpt lat="41.8708096" lon="3.7429329"><ele>0.0</ele><time>2026-04-30T13:26:12.03Z</time></trkpt><trkpt lat="41.8708524" lon="3.7430367"><ele>0.0</ele><time>2026-04-30T13:26:13.029Z</time></trkpt><trkpt lat="41.8708967" lon="3.7431357"><ele>0.0</ele><time>2026-04-30T13:26:14.03Z</time></trkpt><trkpt lat="41.8709401" lon="3.743237"><ele>0.0</ele><time>2026-04-30T13:26:15.03Z</time></trkpt><trkpt lat="41.870982" lon="3.7433455"><ele>0.0</ele><time>2026-04-30T13:26:16.03Z</time></trkpt><trkpt lat="41.8710152" lon="3.7434585"><ele>0.0</ele><time>2026-04-30T13:26:17.03Z</time></trkpt><trkpt lat="41.871048" lon="3.7435676"><ele>0.0</ele><time>2026-04-30T13:26:18.029Z</time></trkpt><trkpt lat="41.8710765" lon="3.7436789"><ele>0.0</ele><time>2026-04-30T13:26:19.03Z</time></trkpt><trkpt lat="41.8711052" lon="3.7437924"><ele>0.0</ele><time>2026-04-30T13:26:20.029Z</time></trkpt><trkpt lat="41.8711377" lon="3.743903"><ele>0.0</ele><time>2026-04-30T13:26:21.029Z</time></trkpt><trkpt lat="41.8711742" lon="3.7440068"><ele>0.0</ele><time>2026-04-30T13:26:22.029Z</time></trkpt><trkpt lat="41.871215" lon="3.7441101"><ele>0.0</ele><time>2026-04-30T13:26:23.029Z</time></trkpt><trkpt lat="41.8712491" lon="3.7442137"><ele>0.0</ele><time>2026-04-30T13:26:24.029Z</time></trkpt><trkpt lat="41.8712809" lon="3.7443158"><ele>0.0</ele><time>2026-04-30T13:26:25.03Z</time></trkpt><trkpt lat="41.871311" lon="3.7444234"><ele>0.0</ele><time>2026-04-30T13:26:26.03Z</time></trkpt><trkpt lat="41.8713491" lon="3.7445304"><ele>0.0</ele><time>2026-04-30T13:26:27.03Z</time></trkpt><trkpt lat="41.8713851" lon="3.7446353"><ele>0.0</ele><time>2026-04-30T13:26:28.029Z</time></trkpt><trkpt lat="41.871426" lon="3.7447417"><ele>0.0</ele><time>2026-04-30T13:26:29.029Z</time></trkpt><trkpt lat="41.8714595" lon="3.7448398"><ele>0.0</ele><time>2026-04-30T13:26:30.029Z</time></trkpt><trkpt lat="41.8715011" lon="3.7449423"><ele>0.0</ele><time>2026-04-30T13:26:31.029Z</time></trkpt><trkpt lat="41.8715371" lon="3.7450469"><ele>0.0</ele><time>2026-04-30T13:26:32.029Z</time></trkpt><trkpt lat="41.8716506" lon="3.7453701"><ele>0.0</ele><time>2026-04-30T13:26:35.029Z</time></trkpt><trkpt lat="41.8716871" lon="3.7454767"><ele>0.0</ele><time>2026-04-30T13:26:36.03Z</time></trkpt><trkpt lat="41.8717191" lon="3.7455908"><ele>0.0</ele><time>2026-04-30T13:26:37.029Z</time></trkpt><trkpt lat="41.8717581" lon="3.7457021"><ele>0.0</ele><time>2026-04-30T13:26:38.03Z</time></trkpt><trkpt lat="41.8717965" lon="3.7458098"><ele>0.0</ele><time>2026-04-30T13:26:39.029Z</time></trkpt><trkpt lat="41.871835" lon="3.7459151"><ele>0.0</ele><time>2026-04-30T13:26:40.03Z</time></trkpt><trkpt lat="41.8718764" lon="3.7460201"><ele>0.0</ele><time>2026-04-30T13:26:41.029Z</time></trkpt><trkpt lat="41.8719193" lon="3.7461254"><ele>0.0</ele><time>2026-04-30T13:26:42.029Z</time></trkpt><trkpt lat="41.8719618" lon="3.7462272"><ele>0.0</ele><time>2026-04-30T13:26:43.03Z</time></trkpt><trkpt lat="41.8720047" lon="3.7463365"><ele>0.0</ele><time>2026-04-30T13:26:44.03Z</time></trkpt><trkpt lat="41.8720446" lon="3.7464421"><ele>0.0</ele><time>2026-04-30T13:26:45.029Z</time></trkpt><trkpt lat="41.8720876" lon="3.7465457"><ele>0.0</ele><time>2026-04-30T13:26:46.03Z</time></trkpt><trkpt lat="41.8721329" lon="3.7466459"><ele>0.0</ele><time>2026-04-30T13:26:47.029Z</time></trkpt><trkpt lat="41.8721868" lon="3.7467379"><ele>0.0</ele><time>2026-04-30T13:26:48.029Z</time></trkpt><trkpt lat="41.8722359" lon="3.7468333"><ele>0.0</ele><time>2026-04-30T13:26:49.029Z</time></trkpt><trkpt lat="41.8722754" lon="3.7469358"><ele>0.0</ele><time>2026-04-30T13:26:50.03Z</time></trkpt><trkpt lat="41.8723208" lon="3.7470383"><ele>0.0</ele><time>2026-04-30T13:26:51.03Z</time></trkpt><trkpt lat="41.8723617" lon="3.7471416"><ele>0.0</ele><time>2026-04-30T13:26:52.03Z</time></trkpt><trkpt lat="41.8724045" lon="3.7472497"><ele>0.0</ele><time>2026-04-30T13:26:53.029Z</time></trkpt><trkpt lat="41.8724421" lon="3.747355"><ele>0.0</ele><time>2026-04-30T13:26:54.03Z</time></trkpt><trkpt lat="41.8725158" lon="3.7475634"><ele>0.0</ele><time>2026-04-30T13:26:56.03Z</time></trkpt><trkpt lat="41.8725525" lon="3.7476697"><ele>0.0</ele><time>2026-04-30T13:26:57.029Z</time></trkpt><trkpt lat="41.8725888" lon="3.7477836"><ele>0.0</ele><time>2026-04-30T13:26:58.029Z</time></trkpt><trkpt lat="41.872627" lon="3.7478871"><ele>0.0</ele><time>2026-04-30T13:26:59.029Z</time></trkpt><trkpt lat="41.8726621" lon="3.7479864"><ele>0.0</ele><time>2026-04-30T13:27:00.029Z</time></trkpt><trkpt lat="41.8727004" lon="3.7480899"><ele>0.0</ele><time>2026-04-30T13:27:01.029Z</time></trkpt><trkpt lat="41.8727399" lon="3.748201"><ele>0.0</ele><time>2026-04-30T13:27:02.03Z</time></trkpt><trkpt lat="41.8727783" lon="3.748311"><ele>0.0</ele><time>2026-04-30T13:27:03.029Z</time></trkpt><trkpt lat="41.8728176" lon="3.748417"><ele>0.0</ele><time>2026-04-30T13:27:04.029Z</time></trkpt><trkpt lat="41.8728619" lon="3.7485224"><ele>0.0</ele><time>2026-04-30T13:27:05.03Z</time></trkpt><trkpt lat="41.8729028" lon="3.7486241"><ele>0.0</ele><time>2026-04-30T13:27:06.029Z</time></trkpt><trkpt lat="41.872946" lon="3.7487331"><ele>0.0</ele><time>2026-04-30T13:27:07.03Z</time></trkpt><trkpt lat="41.8729864" lon="3.7488429"><ele>0.0</ele><time>2026-04-30T13:27:08.03Z</time></trkpt><trkpt lat="41.8730316" lon="3.7489503"><ele>0.0</ele><time>2026-04-30T13:27:09.029Z</time></trkpt><trkpt lat="41.8730739" lon="3.749053"><ele>0.0</ele><time>2026-04-30T13:27:10.03Z</time></trkpt><trkpt lat="41.8731146" lon="3.749152"><ele>0.0</ele><time>2026-04-30T13:27:11.03Z</time></trkpt><trkpt lat="41.873156" lon="3.7492593"><ele>0.0</ele><time>2026-04-30T13:27:12.029Z</time></trkpt><trkpt lat="41.8731949" lon="3.7493684"><ele>0.0</ele><time>2026-04-30T13:27:13.029Z</time></trkpt><trkpt lat="41.8732348" lon="3.7494794"><ele>0.0</ele><time>2026-04-30T13:27:14.03Z</time></trkpt><trkpt lat="41.8732704" lon="3.7495839"><ele>0.0</ele><time>2026-04-30T13:27:15.029Z</time></trkpt><trkpt lat="41.8733484" lon="3.7497892"><ele>0.0</ele><time>2026-04-30T13:27:17.03Z</time></trkpt><trkpt lat="41.8733851" lon="3.7498895"><ele>0.0</ele><time>2026-04-30T13:27:18.029Z</time></trkpt><trkpt lat="41.8734234" lon="3.7499939"><ele>0.0</ele><time>2026-04-30T13:27:19.029Z</time></trkpt><trkpt lat="41.8734644" lon="3.7500989"><ele>0.0</ele><time>2026-04-30T13:27:20.029Z</time></trkpt><trkpt lat="41.8735033" lon="3.7502036"><ele>0.0</ele><time>2026-04-30T13:27:21.029Z</time></trkpt><trkpt lat="41.8735446" lon="3.7503045"><ele>0.0</ele><time>2026-04-30T13:27:22.029Z</time></trkpt><trkpt lat="41.8735848" lon="3.7504112"><ele>0.0</ele><time>2026-04-30T13:27:23.028Z</time></trkpt><trkpt lat="41.8736276" lon="3.7505197"><ele>0.0</ele><time>2026-04-30T13:27:24.028Z</time></trkpt><trkpt lat="41.8736714" lon="3.750631"><ele>0.0</ele><time>2026-04-30T13:27:25.029Z</time></trkpt><trkpt lat="41.8737177" lon="3.7507355"><ele>0.0</ele><time>2026-04-30T13:27:26.028Z</time></trkpt><trkpt lat="41.8737658" lon="3.7508387"><ele>0.0</ele><time>2026-04-30T13:27:27.029Z</time></trkpt><trkpt lat="41.8738085" lon="3.7509379"><ele>0.0</ele><time>2026-04-30T13:27:28.029Z</time></trkpt><trkpt lat="41.8738543" lon="3.7510385"><ele>0.0</ele><time>2026-04-30T13:27:29.029Z</time></trkpt><trkpt lat="41.8738968" lon="3.7511363"><ele>0.0</ele><time>2026-04-30T13:27:30.028Z</time></trkpt><trkpt lat="41.8739456" lon="3.7512457"><ele>0.0</ele><time>2026-04-30T13:27:31.029Z</time></trkpt><trkpt lat="41.8739792" lon="3.7513489"><ele>0.0</ele><time>2026-04-30T13:27:32.029Z</time></trkpt><trkpt lat="41.8740171" lon="3.7514521"><ele>0.0</ele><time>2026-04-30T13:27:33.028Z</time></trkpt><trkpt lat="41.8740512" lon="3.7515598"><ele>0.0</ele><time>2026-04-30T13:27:34.028Z</time></trkpt><trkpt lat="41.8740814" lon="3.7516712"><ele>0.0</ele><time>2026-04-30T13:27:35.029Z</time></trkpt><trkpt lat="41.874117" lon="3.7517826"><ele>0.0</ele><time>2026-04-30T13:27:36.028Z</time></trkpt><trkpt lat="41.8742269" lon="3.7521064"><ele>0.0</ele><time>2026-04-30T13:27:39.029Z</time></trkpt><trkpt lat="41.8742635" lon="3.752215"><ele>0.0</ele><time>2026-04-30T13:27:40.028Z</time></trkpt><trkpt lat="41.8743003" lon="3.7523216"><ele>0.0</ele><time>2026-04-30T13:27:41.029Z</time></trkpt><trkpt lat="41.8743415" lon="3.7524309"><ele>0.0</ele><time>2026-04-30T13:27:42.028Z</time></trkpt><trkpt lat="41.8743792" lon="3.7525391"><ele>0.0</ele><time>2026-04-30T13:27:43.028Z</time></trkpt><trkpt lat="41.8744188" lon="3.7526359"><ele>0.0</ele><time>2026-04-30T13:27:44.028Z</time></trkpt><trkpt lat="41.8744633" lon="3.7527345"><ele>0.0</ele><time>2026-04-30T13:27:45.028Z</time></trkpt><trkpt lat="41.8744975" lon="3.7528357"><ele>0.0</ele><time>2026-04-30T13:27:46.028Z</time></trkpt><trkpt lat="41.8745318" lon="3.75294"><ele>0.0</ele><time>2026-04-30T13:27:47.028Z</time></trkpt><trkpt lat="41.8745614" lon="3.7530489"><ele>0.0</ele><time>2026-04-30T13:27:48.028Z</time></trkpt><trkpt lat="41.8746035" lon="3.7531598"><ele>0.0</ele><time>2026-04-30T13:27:49.029Z</time></trkpt><trkpt lat="41.8746466" lon="3.7532704"><ele>0.0</ele><time>2026-04-30T13:27:50.029Z</time></trkpt><trkpt lat="41.8746883" lon="3.7533788"><ele>0.0</ele><time>2026-04-30T13:27:51.028Z</time></trkpt><trkpt lat="41.8747285" lon="3.7534845"><ele>0.0</ele><time>2026-04-30T13:27:52.028Z</time></trkpt><trkpt lat="41.8747631" lon="3.7535966"><ele>0.0</ele><time>2026-04-30T13:27:53.028Z</time></trkpt><trkpt lat="41.8748039" lon="3.7537014"><ele>0.0</ele><time>2026-04-30T13:27:54.028Z</time></trkpt><trkpt lat="41.8748431" lon="3.7538088"><ele>0.0</ele><time>2026-04-30T13:27:55.028Z</time></trkpt><trkpt lat="41.8748886" lon="3.7539109"><ele>0.0</ele><time>2026-04-30T13:27:56.028Z</time></trkpt><trkpt lat="41.8749334" lon="3.7540132"><ele>0.0</ele><time>2026-04-30T13:27:57.029Z</time></trkpt><trkpt lat="41.8750249" lon="3.7542203"><ele>0.0</ele><time>2026-04-30T13:27:59.028Z</time></trkpt><trkpt lat="41.8750701" lon="3.7543247"><ele>0.0</ele><time>2026-04-30T13:28:00.028Z</time></trkpt><trkpt lat="41.875112" lon="3.7544267"><ele>0.0</ele><time>2026-04-30T13:28:01.028Z</time></trkpt><trkpt lat="41.8751519" lon="3.7545287"><ele>0.0</ele><time>2026-04-30T13:28:02.028Z</time></trkpt><trkpt lat="41.8751916" lon="3.7546345"><ele>0.0</ele><time>2026-04-30T13:28:03.029Z</time></trkpt><trkpt lat="41.8752271" lon="3.7547411"><ele>0.0</ele><time>2026-04-30T13:28:04.028Z</time></trkpt><trkpt lat="41.8752655" lon="3.7548477"><ele>0.0</ele><time>2026-04-30T13:28:05.029Z</time></trkpt><trkpt lat="41.8753042" lon="3.7549542"><ele>0.0</ele><time>2026-04-30T13:28:06.029Z</time></trkpt><trkpt lat="41.8753423" lon="3.7550571"><ele>0.0</ele><time>2026-04-30T13:28:07.029Z</time></trkpt><trkpt lat="41.875375" lon="3.7551646"><ele>0.0</ele><time>2026-04-30T13:28:08.029Z</time></trkpt><trkpt lat="41.8754126" lon="3.7552641"><ele>0.0</ele><time>2026-04-30T13:28:09.028Z</time></trkpt><trkpt lat="41.8754594" lon="3.7553708"><ele>0.0</ele><time>2026-04-30T13:28:10.028Z</time></trkpt><trkpt lat="41.875505" lon="3.7554775"><ele>0.0</ele><time>2026-04-30T13:28:11.029Z</time></trkpt><trkpt lat="41.8755373" lon="3.7555814"><ele>0.0</ele><time>2026-04-30T13:28:12.029Z</time></trkpt><trkpt lat="41.8755751" lon="3.7556951"><ele>0.0</ele><time>2026-04-30T13:28:13.029Z</time></trkpt><trkpt lat="41.8756162" lon="3.7558101"><ele>0.0</ele><time>2026-04-30T13:28:14.029Z</time></trkpt><trkpt lat="41.875658" lon="3.7559208"><ele>0.0</ele><time>2026-04-30T13:28:15.029Z</time></trkpt><trkpt lat="41.8756953" lon="3.7560227"><ele>0.0</ele><time>2026-04-30T13:28:16.028Z</time></trkpt><trkpt lat="41.8757333" lon="3.7561287"><ele>0.0</ele><time>2026-04-30T13:28:17.028Z</time></trkpt><trkpt lat="41.8757749" lon="3.7562347"><ele>0.0</ele><time>2026-04-30T13:28:18.028Z</time></trkpt><trkpt lat="41.8758596" lon="3.7564442"><ele>0.0</ele><time>2026-04-30T13:28:20.029Z</time></trkpt><trkpt lat="41.8759049" lon="3.7565427"><ele>0.0</ele><time>2026-04-30T13:28:21.028Z</time></trkpt><trkpt lat="41.8759469" lon="3.7566439"><ele>0.0</ele><time>2026-04-30T13:28:22.028Z</time></trkpt><trkpt lat="41.8759985" lon="3.756745"><ele>0.0</ele><time>2026-04-30T13:28:23.029Z</time></trkpt><trkpt lat="41.8760356" lon="3.756853"><ele>0.0</ele><time>2026-04-30T13:28:24.028Z</time></trkpt><trkpt lat="41.8760734" lon="3.7569584"><ele>0.0</ele><time>2026-04-30T13:28:25.029Z</time></trkpt><trkpt lat="41.8761061" lon="3.7570734"><ele>0.0</ele><time>2026-04-30T13:28:26.029Z</time></trkpt><trkpt lat="41.8761434" lon="3.7571859"><ele>0.0</ele><time>2026-04-30T13:28:27.029Z</time></trkpt><trkpt lat="41.8761805" lon="3.7572944"><ele>0.0</ele><time>2026-04-30T13:28:28.028Z</time></trkpt><trkpt lat="41.87622" lon="3.7574041"><ele>0.0</ele><time>2026-04-30T13:28:29.028Z</time></trkpt><trkpt lat="41.8762559" lon="3.7575097"><ele>0.0</ele><time>2026-04-30T13:28:30.028Z</time></trkpt><trkpt lat="41.8762922" lon="3.7576138"><ele>0.0</ele><time>2026-04-30T13:28:31.029Z</time></trkpt><trkpt lat="41.8763364" lon="3.7577239"><ele>0.0</ele><time>2026-04-30T13:28:32.029Z</time></trkpt><trkpt lat="41.8763799" lon="3.7578268"><ele>0.0</ele><time>2026-04-30T13:28:33.029Z</time></trkpt><trkpt lat="41.8764219" lon="3.7579282"><ele>0.0</ele><time>2026-04-30T13:28:34.029Z</time></trkpt><trkpt lat="41.8764679" lon="3.7580357"><ele>0.0</ele><time>2026-04-30T13:28:35.029Z</time></trkpt><trkpt lat="41.8765325" lon="3.758142"><ele>0.0</ele><time>2026-04-30T13:28:36.029Z</time></trkpt><trkpt lat="41.8765722" lon="3.7582401"><ele>0.0</ele><time>2026-04-30T13:28:37.029Z</time></trkpt><trkpt lat="41.876596" lon="3.7583436"><ele>0.0</ele><time>2026-04-30T13:28:38.028Z</time></trkpt><trkpt lat="41.8766211" lon="3.7584523"><ele>0.0</ele><time>2026-04-30T13:28:39.029Z</time></trkpt><trkpt lat="41.8766531" lon="3.7585582"><ele>0.0</ele><time>2026-04-30T13:28:40.028Z</time></trkpt><trkpt lat="41.8767637" lon="3.7588685"><ele>0.0</ele><time>2026-04-30T13:28:43.029Z</time></trkpt><trkpt lat="41.8767987" lon="3.7589767"><ele>0.0</ele><time>2026-04-30T13:28:44.029Z</time></trkpt><trkpt lat="41.8768293" lon="3.759085"><ele>0.0</ele><time>2026-04-30T13:28:45.028Z</time></trkpt><trkpt lat="41.8768618" lon="3.7591964"><ele>0.0</ele><time>2026-04-30T13:28:46.028Z</time></trkpt><trkpt lat="41.876892" lon="3.7593052"><ele>0.0</ele><time>2026-04-30T13:28:47.028Z</time></trkpt><trkpt lat="41.8769268" lon="3.7594159"><ele>0.0</ele><time>2026-04-30T13:28:48.029Z</time></trkpt><trkpt lat="41.8769622" lon="3.7595273"><ele>0.0</ele><time>2026-04-30T13:28:49.028Z</time></trkpt><trkpt lat="41.8770015" lon="3.7596347"><ele>0.0</ele><time>2026-04-30T13:28:50.028Z</time></trkpt><trkpt lat="41.8770356" lon="3.7597388"><ele>0.0</ele><time>2026-04-30T13:28:51.028Z</time></trkpt><trkpt lat="41.8770689" lon="3.7598463"><ele>0.0</ele><time>2026-04-30T13:28:52.028Z</time></trkpt><trkpt lat="41.8771021" lon="3.759952"><ele>0.0</ele><time>2026-04-30T13:28:53.028Z</time></trkpt><trkpt lat="41.8771371" lon="3.7600626"><ele>0.0</ele><time>2026-04-30T13:28:54.029Z</time></trkpt><trkpt lat="41.8771661" lon="3.7601747"><ele>0.0</ele><time>2026-04-30T13:28:55.028Z</time></trkpt><trkpt lat="41.8772004" lon="3.7602749"><ele>0.0</ele><time>2026-04-30T13:28:56.029Z</time></trkpt><trkpt lat="41.8772399" lon="3.7603816"><ele>0.0</ele><time>2026-04-30T13:28:57.028Z</time></trkpt><trkpt lat="41.877286" lon="3.7604807"><ele>0.0</ele><time>2026-04-30T13:28:58.028Z</time></trkpt><trkpt lat="41.8773241" lon="3.7605892"><ele>0.0</ele><time>2026-04-30T13:28:59.029Z</time></trkpt><trkpt lat="41.8773532" lon="3.7607009"><ele>0.0</ele><time>2026-04-30T13:29:00.028Z</time></trkpt><trkpt lat="41.8773873" lon="3.7608006"><ele>0.0</ele><time>2026-04-30T13:29:01.029Z</time></trkpt><trkpt lat="41.8774276" lon="3.760905"><ele>0.0</ele><time>2026-04-30T13:29:02.029Z</time></trkpt><trkpt lat="41.8775006" lon="3.7611271"><ele>0.0</ele><time>2026-04-30T13:29:04.029Z</time></trkpt><trkpt lat="41.8775369" lon="3.7612308"><ele>0.0</ele><time>2026-04-30T13:29:05.028Z</time></trkpt><trkpt lat="41.8775805" lon="3.761331"><ele>0.0</ele><time>2026-04-30T13:29:06.029Z</time></trkpt><trkpt lat="41.8776183" lon="3.7614337"><ele>0.0</ele><time>2026-04-30T13:29:07.029Z</time></trkpt><trkpt lat="41.8776551" lon="3.7615371"><ele>0.0</ele><time>2026-04-30T13:29:08.028Z</time></trkpt><trkpt lat="41.8776979" lon="3.7616415"><ele>0.0</ele><time>2026-04-30T13:29:09.028Z</time></trkpt><trkpt lat="41.8777467" lon="3.7617454"><ele>0.0</ele><time>2026-04-30T13:29:10.028Z</time></trkpt><trkpt lat="41.8777967" lon="3.7618514"><ele>0.0</ele><time>2026-04-30T13:29:11.029Z</time></trkpt><trkpt lat="41.8778386" lon="3.7619539"><ele>0.0</ele><time>2026-04-30T13:29:12.028Z</time></trkpt><trkpt lat="41.8779219" lon="3.7621618"><ele>0.0</ele><time>2026-04-30T13:29:14.028Z</time></trkpt><trkpt lat="41.8779681" lon="3.7622619"><ele>0.0</ele><time>2026-04-30T13:29:15.029Z</time></trkpt><trkpt lat="41.8780119" lon="3.7623619"><ele>0.0</ele><time>2026-04-30T13:29:16.028Z</time></trkpt><trkpt lat="41.8780493" lon="3.7624594"><ele>0.0</ele><time>2026-04-30T13:29:17.028Z</time></trkpt><trkpt lat="41.8780855" lon="3.7625665"><ele>0.0</ele><time>2026-04-30T13:29:18.028Z</time></trkpt><trkpt lat="41.8781193" lon="3.7626674"><ele>0.0</ele><time>2026-04-30T13:29:19.029Z</time></trkpt><trkpt lat="41.8781583" lon="3.7627765"><ele>0.0</ele><time>2026-04-30T13:29:20.028Z</time></trkpt><trkpt lat="41.8781981" lon="3.7628861"><ele>0.0</ele><time>2026-04-30T13:29:21.029Z</time></trkpt><trkpt lat="41.8782397" lon="3.7630009"><ele>0.0</ele><time>2026-04-30T13:29:22.029Z</time></trkpt><trkpt lat="41.8782813" lon="3.7631114"><ele>0.0</ele><time>2026-04-30T13:29:23.028Z</time></trkpt><trkpt lat="41.8783636" lon="3.7633153"><ele>0.0</ele><time>2026-04-30T13:29:25.028Z</time></trkpt><trkpt lat="41.8784085" lon="3.7634177"><ele>0.0</ele><time>2026-04-30T13:29:26.029Z</time></trkpt><trkpt lat="41.8784548" lon="3.7635236"><ele>0.0</ele><time>2026-04-30T13:29:27.028Z</time></trkpt><trkpt lat="41.8785015" lon="3.7636322"><ele>0.0</ele><time>2026-04-30T13:29:28.028Z</time></trkpt><trkpt lat="41.8785478" lon="3.7637354"><ele>0.0</ele><time>2026-04-30T13:29:29.029Z</time></trkpt><trkpt lat="41.8785895" lon="3.7638488"><ele>0.0</ele><time>2026-04-30T13:29:30.029Z</time></trkpt><trkpt lat="41.8786239" lon="3.7639581"><ele>0.0</ele><time>2026-04-30T13:29:31.028Z</time></trkpt><trkpt lat="41.8786535" lon="3.764071"><ele>0.0</ele><time>2026-04-30T13:29:32.028Z</time></trkpt><trkpt lat="41.8786887" lon="3.7641728"><ele>0.0</ele><time>2026-04-30T13:29:33.029Z</time></trkpt><trkpt lat="41.8787238" lon="3.764276"><ele>0.0</ele><time>2026-04-30T13:29:34.029Z</time></trkpt><trkpt lat="41.8787536" lon="3.7643816"><ele>0.0</ele><time>2026-04-30T13:29:35.028Z</time></trkpt><trkpt lat="41.8787837" lon="3.7644908"><ele>0.0</ele><time>2026-04-30T13:29:36.028Z</time></trkpt><trkpt lat="41.8788191" lon="3.7645994"><ele>0.0</ele><time>2026-04-30T13:29:37.029Z</time></trkpt><trkpt lat="41.8788554" lon="3.7647051"><ele>0.0</ele><time>2026-04-30T13:29:38.028Z</time></trkpt><trkpt lat="41.8788977" lon="3.7648118"><ele>0.0</ele><time>2026-04-30T13:29:39.028Z</time></trkpt><trkpt lat="41.8789413" lon="3.7649139"><ele>0.0</ele><time>2026-04-30T13:29:40.029Z</time></trkpt><trkpt lat="41.8789857" lon="3.7650145"><ele>0.0</ele><time>2026-04-30T13:29:41.029Z</time></trkpt><trkpt lat="41.8790264" lon="3.7651113"><ele>0.0</ele><time>2026-04-30T13:29:42.029Z</time></trkpt><trkpt lat="41.879065" lon="3.7652169"><ele>0.0</ele><time>2026-04-30T13:29:43.029Z</time></trkpt><trkpt lat="41.8791076" lon="3.7653178"><ele>0.0</ele><time>2026-04-30T13:29:44.028Z</time></trkpt><trkpt lat="41.8791526" lon="3.7654189"><ele>0.0</ele><time>2026-04-30T13:29:45.029Z</time></trkpt><trkpt lat="41.8792371" lon="3.765634"><ele>0.0</ele><time>2026-04-30T13:29:47.028Z</time></trkpt><trkpt lat="41.8792727" lon="3.7657467"><ele>0.0</ele><time>2026-04-30T13:29:48.028Z</time></trkpt><trkpt lat="41.8793106" lon="3.7658577"><ele>0.0</ele><time>2026-04-30T13:29:49.029Z</time></trkpt><trkpt lat="41.8793472" lon="3.7659625"><ele>0.0</ele><time>2026-04-30T13:29:50.029Z</time></trkpt><trkpt lat="41.8793833" lon="3.7660673"><ele>0.0</ele><time>2026-04-30T13:29:51.028Z</time></trkpt><trkpt lat="41.8794198" lon="3.7661741"><ele>0.0</ele><time>2026-04-30T13:29:52.028Z</time></trkpt><trkpt lat="41.8794609" lon="3.7662764"><ele>0.0</ele><time>2026-04-30T13:29:53.028Z</time></trkpt><trkpt lat="41.8795013" lon="3.7663802"><ele>0.0</ele><time>2026-04-30T13:29:54.028Z</time></trkpt><trkpt lat="41.8795437" lon="3.7664835"><ele>0.0</ele><time>2026-04-30T13:29:55.028Z</time></trkpt><trkpt lat="41.8795818" lon="3.7665885"><ele>0.0</ele><time>2026-04-30T13:29:56.028Z</time></trkpt><trkpt lat="41.8796259" lon="3.7666991"><ele>0.0</ele><time>2026-04-30T13:29:57.029Z</time></trkpt><trkpt lat="41.8796666" lon="3.7668108"><ele>0.0</ele><time>2026-04-30T13:29:58.029Z</time></trkpt><trkpt lat="41.8797065" lon="3.766918"><ele>0.0</ele><time>2026-04-30T13:29:59.029Z</time></trkpt><trkpt lat="41.8797453" lon="3.7670279"><ele>0.0</ele><time>2026-04-30T13:30:00.028Z</time></trkpt><trkpt lat="41.8797816" lon="3.7671335"><ele>0.0</ele><time>2026-04-30T13:30:01.029Z</time></trkpt><trkpt lat="41.8798228" lon="3.7672371"><ele>0.0</ele><time>2026-04-30T13:30:02.029Z</time></trkpt><trkpt lat="41.8798618" lon="3.7673431"><ele>0.0</ele><time>2026-04-30T13:30:03.029Z</time></trkpt><trkpt lat="41.8798976" lon="3.7674493"><ele>0.0</ele><time>2026-04-30T13:30:04.029Z</time></trkpt><trkpt lat="41.8799369" lon="3.7675545"><ele>0.0</ele><time>2026-04-30T13:30:05.029Z</time></trkpt><trkpt lat="41.8799755" lon="3.7676599"><ele>0.0</ele><time>2026-04-30T13:30:06.028Z</time></trkpt><trkpt lat="41.8800559" lon="3.7678641"><ele>0.0</ele><time>2026-04-30T13:30:08.028Z</time></trkpt><trkpt lat="41.8800908" lon="3.7679704"><ele>0.0</ele><time>2026-04-30T13:30:09.028Z</time></trkpt><trkpt lat="41.880127" lon="3.7680814"><ele>0.0</ele><time>2026-04-30T13:30:10.028Z</time></trkpt><trkpt lat="41.8801663" lon="3.7681882"><ele>0.0</ele><time>2026-04-30T13:30:11.029Z</time></trkpt><trkpt lat="41.8802007" lon="3.7682934"><ele>0.0</ele><time>2026-04-30T13:30:12.028Z</time></trkpt><trkpt lat="41.8802332" lon="3.768398"><ele>0.0</ele><time>2026-04-30T13:30:13.028Z</time></trkpt><trkpt lat="41.8802689" lon="3.7685045"><ele>0.0</ele><time>2026-04-30T13:30:14.028Z</time></trkpt><trkpt lat="41.8803086" lon="3.7686105"><ele>0.0</ele><time>2026-04-30T13:30:15.029Z</time></trkpt><trkpt lat="41.8803496" lon="3.7687137"><ele>0.0</ele><time>2026-04-30T13:30:16.028Z</time></trkpt><trkpt lat="41.8804302" lon="3.7689202"><ele>0.0</ele><time>2026-04-30T13:30:18.028Z</time></trkpt><trkpt lat="41.8804669" lon="3.7690247"><ele>0.0</ele><time>2026-04-30T13:30:19.028Z</time></trkpt><trkpt lat="41.8805065" lon="3.7691315"><ele>0.0</ele><time>2026-04-30T13:30:20.028Z</time></trkpt><trkpt lat="41.8805478" lon="3.7692381"><ele>0.0</ele><time>2026-04-30T13:30:21.028Z</time></trkpt><trkpt lat="41.8805924" lon="3.7693452"><ele>0.0</ele><time>2026-04-30T13:30:22.028Z</time></trkpt><trkpt lat="41.8806422" lon="3.7694544"><ele>0.0</ele><time>2026-04-30T13:30:23.028Z</time></trkpt><trkpt lat="41.8806853" lon="3.7695632"><ele>0.0</ele><time>2026-04-30T13:30:24.028Z</time></trkpt><trkpt lat="41.8807239" lon="3.7696671"><ele>0.0</ele><time>2026-04-30T13:30:25.028Z</time></trkpt><trkpt lat="41.880758" lon="3.7697716"><ele>0.0</ele><time>2026-04-30T13:30:26.028Z</time></trkpt><trkpt lat="41.8807952" lon="3.7698768"><ele>0.0</ele><time>2026-04-30T13:30:27.028Z</time></trkpt><trkpt lat="41.8808718" lon="3.77009"><ele>0.0</ele><time>2026-04-30T13:30:29.029Z</time></trkpt><trkpt lat="41.8809115" lon="3.7701952"><ele>0.0</ele><time>2026-04-30T13:30:30.029Z</time></trkpt><trkpt lat="41.88095" lon="3.7703002"><ele>0.0</ele><time>2026-04-30T13:30:31.028Z</time></trkpt><trkpt lat="41.8809901" lon="3.7704062"><ele>0.0</ele><time>2026-04-30T13:30:32.028Z</time></trkpt><trkpt lat="41.8810273" lon="3.7705174"><ele>0.0</ele><time>2026-04-30T13:30:33.029Z</time></trkpt><trkpt lat="41.8810642" lon="3.7706275"><ele>0.0</ele><time>2026-04-30T13:30:34.028Z</time></trkpt><trkpt lat="41.8811007" lon="3.7707348"><ele>0.0</ele><time>2026-04-30T13:30:35.028Z</time></trkpt><trkpt lat="41.8811447" lon="3.7708384"><ele>0.0</ele><time>2026-04-30T13:30:36.028Z</time></trkpt><trkpt lat="41.8811864" lon="3.7709454"><ele>0.0</ele><time>2026-04-30T13:30:37.029Z</time></trkpt><trkpt lat="41.8812294" lon="3.7710465"><ele>0.0</ele><time>2026-04-30T13:30:38.029Z</time></trkpt><trkpt lat="41.8812767" lon="3.7711489"><ele>0.0</ele><time>2026-04-30T13:30:39.029Z</time></trkpt><trkpt lat="41.8813154" lon="3.7712519"><ele>0.0</ele><time>2026-04-30T13:30:40.029Z</time></trkpt><trkpt lat="41.8813523" lon="3.7713567"><ele>0.0</ele><time>2026-04-30T13:30:41.029Z</time></trkpt><trkpt lat="41.881395" lon="3.7714657"><ele>0.0</ele><time>2026-04-30T13:30:42.028Z</time></trkpt><trkpt lat="41.8814355" lon="3.771573"><ele>0.0</ele><time>2026-04-30T13:30:43.029Z</time></trkpt><trkpt lat="41.8814727" lon="3.7716766"><ele>0.0</ele><time>2026-04-30T13:30:44.029Z</time></trkpt><trkpt lat="41.8815108" lon="3.7717784"><ele>0.0</ele><time>2026-04-30T13:30:45.029Z</time></trkpt><trkpt lat="41.881549" lon="3.7718801"><ele>0.0</ele><time>2026-04-30T13:30:46.029Z</time></trkpt><trkpt lat="41.8815871" lon="3.7719831"><ele>0.0</ele><time>2026-04-30T13:30:47.028Z</time></trkpt><trkpt lat="41.8816181" lon="3.7720942"><ele>0.0</ele><time>2026-04-30T13:30:48.029Z</time></trkpt><trkpt lat="41.8817269" lon="3.772418"><ele>0.0</ele><time>2026-04-30T13:30:51.028Z</time></trkpt><trkpt lat="41.8817679" lon="3.7725284"><ele>0.0</ele><time>2026-04-30T13:30:52.028Z</time></trkpt><trkpt lat="41.8818082" lon="3.7726356"><ele>0.0</ele><time>2026-04-30T13:30:53.028Z</time></trkpt><trkpt lat="41.88185" lon="3.772743"><ele>0.0</ele><time>2026-04-30T13:30:54.028Z</time></trkpt><trkpt lat="41.8818906" lon="3.7728442"><ele>0.0</ele><time>2026-04-30T13:30:55.028Z</time></trkpt><trkpt lat="41.88193" lon="3.7729482"><ele>0.0</ele><time>2026-04-30T13:30:56.029Z</time></trkpt><trkpt lat="41.8819686" lon="3.7730549"><ele>0.0</ele><time>2026-04-30T13:30:57.028Z</time></trkpt><trkpt lat="41.8820067" lon="3.7731615"><ele>0.0</ele><time>2026-04-30T13:30:58.028Z</time></trkpt><trkpt lat="41.8820433" lon="3.7732682"><ele>0.0</ele><time>2026-04-30T13:30:59.028Z</time></trkpt><trkpt lat="41.882077" lon="3.7733736"><ele>0.0</ele><time>2026-04-30T13:31:00.028Z</time></trkpt><trkpt lat="41.8821136" lon="3.7734771"><ele>0.0</ele><time>2026-04-30T13:31:01.029Z</time></trkpt><trkpt lat="41.8821503" lon="3.7735875"><ele>0.0</ele><time>2026-04-30T13:31:02.029Z</time></trkpt><trkpt lat="41.8821885" lon="3.7736994"><ele>0.0</ele><time>2026-04-30T13:31:03.028Z</time></trkpt><trkpt lat="41.8822277" lon="3.7738068"><ele>0.0</ele><time>2026-04-30T13:31:04.029Z</time></trkpt><trkpt lat="41.8822678" lon="3.7739164"><ele>0.0</ele><time>2026-04-30T13:31:05.029Z</time></trkpt><trkpt lat="41.8823053" lon="3.7740234"><ele>0.0</ele><time>2026-04-30T13:31:06.028Z</time></trkpt><trkpt lat="41.8823473" lon="3.7741289"><ele>0.0</ele><time>2026-04-30T13:31:07.028Z</time></trkpt><trkpt lat="41.882388" lon="3.7742366"><ele>0.0</ele><time>2026-04-30T13:31:08.029Z</time></trkpt><trkpt lat="41.8824336" lon="3.7743374"><ele>0.0</ele><time>2026-04-30T13:31:09.028Z</time></trkpt><trkpt lat="41.8824833" lon="3.774442"><ele>0.0</ele><time>2026-04-30T13:31:10.028Z</time></trkpt><trkpt lat="41.8825716" lon="3.7746497"><ele>0.0</ele><time>2026-04-30T13:31:12.029Z</time></trkpt><trkpt lat="41.8826135" lon="3.7747549"><ele>0.0</ele><time>2026-04-30T13:31:13.028Z</time></trkpt><trkpt lat="41.8826598" lon="3.7748599"><ele>0.0</ele><time>2026-04-30T13:31:14.029Z</time></trkpt><trkpt lat="41.8827018" lon="3.7749676"><ele>0.0</ele><time>2026-04-30T13:31:15.029Z</time></trkpt><trkpt lat="41.8827387" lon="3.7750749"><ele>0.0</ele><time>2026-04-30T13:31:16.028Z</time></trkpt><trkpt lat="41.8827739" lon="3.7751807"><ele>0.0</ele><time>2026-04-30T13:31:17.029Z</time></trkpt><trkpt lat="41.8828091" lon="3.7752829"><ele>0.0</ele><time>2026-04-30T13:31:18.028Z</time></trkpt><trkpt lat="41.8828432" lon="3.7753956"><ele>0.0</ele><time>2026-04-30T13:31:19.029Z</time></trkpt><trkpt lat="41.8828815" lon="3.775506"><ele>0.0</ele><time>2026-04-30T13:31:20.028Z</time></trkpt><trkpt lat="41.8829261" lon="3.7756129"><ele>0.0</ele><time>2026-04-30T13:31:21.029Z</time></trkpt><trkpt lat="41.8829674" lon="3.7757156"><ele>0.0</ele><time>2026-04-30T13:31:22.028Z</time></trkpt><trkpt lat="41.8830052" lon="3.7758231"><ele>0.0</ele><time>2026-04-30T13:31:23.029Z</time></trkpt><trkpt lat="41.8830423" lon="3.7759256"><ele>0.0</ele><time>2026-04-30T13:31:24.029Z</time></trkpt><trkpt lat="41.8830788" lon="3.7760276"><ele>0.0</ele><time>2026-04-30T13:31:25.028Z</time></trkpt><trkpt lat="41.8831157" lon="3.7761323"><ele>0.0</ele><time>2026-04-30T13:31:26.028Z</time></trkpt><trkpt lat="41.8831475" lon="3.776236"><ele>0.0</ele><time>2026-04-30T13:31:27.029Z</time></trkpt><trkpt lat="41.8831818" lon="3.776345"><ele>0.0</ele><time>2026-04-30T13:31:28.028Z</time></trkpt><trkpt lat="41.8832152" lon="3.7764547"><ele>0.0</ele><time>2026-04-30T13:31:29.029Z</time></trkpt><trkpt lat="41.8832506" lon="3.7765602"><ele>0.0</ele><time>2026-04-30T13:31:30.028Z</time></trkpt><trkpt lat="41.8832886" lon="3.7766651"><ele>0.0</ele><time>2026-04-30T13:31:31.028Z</time></trkpt><trkpt lat="41.8833637" lon="3.7768804"><ele>0.0</ele><time>2026-04-30T13:31:33.029Z</time></trkpt><trkpt lat="41.8834045" lon="3.7769871"><ele>0.0</ele><time>2026-04-30T13:31:34.029Z</time></trkpt><trkpt lat="41.8834433" lon="3.7770962"><ele>0.0</ele><time>2026-04-30T13:31:35.028Z</time></trkpt><trkpt lat="41.883483" lon="3.7772058"><ele>0.0</ele><time>2026-04-30T13:31:36.029Z</time></trkpt><trkpt lat="41.8835181" lon="3.7773189"><ele>0.0</ele><time>2026-04-30T13:31:37.029Z</time></trkpt><trkpt lat="41.8835543" lon="3.7774267"><ele>0.0</ele><time>2026-04-30T13:31:38.028Z</time></trkpt><trkpt lat="41.8835902" lon="3.777529"><ele>0.0</ele><time>2026-04-30T13:31:39.028Z</time></trkpt><trkpt lat="41.8836298" lon="3.7776336"><ele>0.0</ele><time>2026-04-30T13:31:40.028Z</time></trkpt><trkpt lat="41.8836703" lon="3.7777399"><ele>0.0</ele><time>2026-04-30T13:31:41.028Z</time></trkpt><trkpt lat="41.8837147" lon="3.7778415"><ele>0.0</ele><time>2026-04-30T13:31:42.028Z</time></trkpt><trkpt lat="41.8837631" lon="3.777949"><ele>0.0</ele><time>2026-04-30T13:31:43.027Z</time></trkpt><trkpt lat="41.8838067" lon="3.7780558"><ele>0.0</ele><time>2026-04-30T13:31:44.028Z</time></trkpt><trkpt lat="41.8838467" lon="3.7781658"><ele>0.0</ele><time>2026-04-30T13:31:45.028Z</time></trkpt><trkpt lat="41.8838837" lon="3.7782747"><ele>0.0</ele><time>2026-04-30T13:31:46.028Z</time></trkpt><trkpt lat="41.8839173" lon="3.7783803"><ele>0.0</ele><time>2026-04-30T13:31:47.027Z</time></trkpt><trkpt lat="41.8839505" lon="3.7784841"><ele>0.0</ele><time>2026-04-30T13:31:48.028Z</time></trkpt><trkpt lat="41.8839884" lon="3.7785901"><ele>0.0</ele><time>2026-04-30T13:31:49.027Z</time></trkpt><trkpt lat="41.8840224" lon="3.7787012"><ele>0.0</ele><time>2026-04-30T13:31:50.028Z</time></trkpt><trkpt lat="41.8840602" lon="3.7788098"><ele>0.0</ele><time>2026-04-30T13:31:51.027Z</time></trkpt><trkpt lat="41.8841008" lon="3.7789145"><ele>0.0</ele><time>2026-04-30T13:31:52.027Z</time></trkpt><trkpt lat="41.8842233" lon="3.7792379"><ele>0.0</ele><time>2026-04-30T13:31:55.028Z</time></trkpt><trkpt lat="41.8842621" lon="3.7793451"><ele>0.0</ele><time>2026-04-30T13:31:56.027Z</time></trkpt><trkpt lat="41.8843" lon="3.7794534"><ele>0.0</ele><time>2026-04-30T13:31:57.027Z</time></trkpt><trkpt lat="41.8843374" lon="3.779557"><ele>0.0</ele><time>2026-04-30T13:31:58.027Z</time></trkpt><trkpt lat="41.8843737" lon="3.7796603"><ele>0.0</ele><time>2026-04-30T13:31:59.027Z</time></trkpt><trkpt lat="41.8844103" lon="3.7797651"><ele>0.0</ele><time>2026-04-30T13:32:00.028Z</time></trkpt><trkpt lat="41.8844436" lon="3.77987"><ele>0.0</ele><time>2026-04-30T13:32:01.027Z</time></trkpt><trkpt lat="41.8844772" lon="3.7799707"><ele>0.0</ele><time>2026-04-30T13:32:02.028Z</time></trkpt><trkpt lat="41.8845135" lon="3.7800763"><ele>0.0</ele><time>2026-04-30T13:32:03.027Z</time></trkpt><trkpt lat="41.8845531" lon="3.780186"><ele>0.0</ele><time>2026-04-30T13:32:04.027Z</time></trkpt><trkpt lat="41.8845945" lon="3.7802918"><ele>0.0</ele><time>2026-04-30T13:32:05.027Z</time></trkpt><trkpt lat="41.8846361" lon="3.7804012"><ele>0.0</ele><time>2026-04-30T13:32:06.028Z</time></trkpt><trkpt lat="41.884675" lon="3.7805068"><ele>0.0</ele><time>2026-04-30T13:32:07.027Z</time></trkpt><trkpt lat="41.8847138" lon="3.7806088"><ele>0.0</ele><time>2026-04-30T13:32:08.028Z</time></trkpt><trkpt lat="41.8847534" lon="3.7807101"><ele>0.0</ele><time>2026-04-30T13:32:09.027Z</time></trkpt><trkpt lat="41.8847951" lon="3.7808175"><ele>0.0</ele><time>2026-04-30T13:32:10.027Z</time></trkpt><trkpt lat="41.8848371" lon="3.7809191"><ele>0.0</ele><time>2026-04-30T13:32:11.027Z</time></trkpt><trkpt lat="41.8848786" lon="3.781022"><ele>0.0</ele><time>2026-04-30T13:32:12.027Z</time></trkpt><trkpt lat="41.8849217" lon="3.7811266"><ele>0.0</ele><time>2026-04-30T13:32:13.027Z</time></trkpt><trkpt lat="41.8849636" lon="3.781227"><ele>0.0</ele><time>2026-04-30T13:32:14.028Z</time></trkpt><trkpt lat="41.8850496" lon="3.7814455"><ele>0.0</ele><time>2026-04-30T13:32:16.027Z</time></trkpt><trkpt lat="41.8850898" lon="3.781559"><ele>0.0</ele><time>2026-04-30T13:32:17.028Z</time></trkpt><trkpt lat="41.8851236" lon="3.7816651"><ele>0.0</ele><time>2026-04-30T13:32:18.027Z</time></trkpt><trkpt lat="41.885163" lon="3.7817749"><ele>0.0</ele><time>2026-04-30T13:32:19.027Z</time></trkpt><trkpt lat="41.885203" lon="3.7818844"><ele>0.0</ele><time>2026-04-30T13:32:20.027Z</time></trkpt><trkpt lat="41.8852475" lon="3.78199"><ele>0.0</ele><time>2026-04-30T13:32:21.028Z</time></trkpt><trkpt lat="41.8852916" lon="3.7820966"><ele>0.0</ele><time>2026-04-30T13:32:22.027Z</time></trkpt><trkpt lat="41.8853309" lon="3.7821957"><ele>0.0</ele><time>2026-04-30T13:32:23.027Z</time></trkpt><trkpt lat="41.8853704" lon="3.7822967"><ele>0.0</ele><time>2026-04-30T13:32:24.028Z</time></trkpt><trkpt lat="41.8854442" lon="3.7825122"><ele>0.0</ele><time>2026-04-30T13:32:26.028Z</time></trkpt><trkpt lat="41.8854837" lon="3.7826196"><ele>0.0</ele><time>2026-04-30T13:32:27.027Z</time></trkpt><trkpt lat="41.8855161" lon="3.7827236"><ele>0.0</ele><time>2026-04-30T13:32:28.027Z</time></trkpt><trkpt lat="41.8855447" lon="3.7828303"><ele>0.0</ele><time>2026-04-30T13:32:29.028Z</time></trkpt><trkpt lat="41.8855868" lon="3.7829325"><ele>0.0</ele><time>2026-04-30T13:32:30.028Z</time></trkpt><trkpt lat="41.8856321" lon="3.78304"><ele>0.0</ele><time>2026-04-30T13:32:31.028Z</time></trkpt><trkpt lat="41.8856755" lon="3.7831424"><ele>0.0</ele><time>2026-04-30T13:32:32.028Z</time></trkpt><trkpt lat="41.8857124" lon="3.7832452"><ele>0.0</ele><time>2026-04-30T13:32:33.027Z</time></trkpt><trkpt lat="41.885749" lon="3.7833481"><ele>0.0</ele><time>2026-04-30T13:32:34.028Z</time></trkpt><trkpt lat="41.8857858" lon="3.7834574"><ele>0.0</ele><time>2026-04-30T13:32:35.027Z</time></trkpt><trkpt lat="41.8858606" lon="3.7836712"><ele>0.0</ele><time>2026-04-30T13:32:37.027Z</time></trkpt><trkpt lat="41.8859045" lon="3.7837778"><ele>0.0</ele><time>2026-04-30T13:32:38.028Z</time></trkpt><trkpt lat="41.8859505" lon="3.7838817"><ele>0.0</ele><time>2026-04-30T13:32:39.027Z</time></trkpt><trkpt lat="41.8859883" lon="3.7839866"><ele>0.0</ele><time>2026-04-30T13:32:40.028Z</time></trkpt><trkpt lat="41.8860282" lon="3.7840935"><ele>0.0</ele><time>2026-04-30T13:32:41.027Z</time></trkpt><trkpt lat="41.8860693" lon="3.784203"><ele>0.0</ele><time>2026-04-30T13:32:42.027Z</time></trkpt><trkpt lat="41.8861022" lon="3.7843116"><ele>0.0</ele><time>2026-04-30T13:32:43.027Z</time></trkpt><trkpt lat="41.8861411" lon="3.7844112"><ele>0.0</ele><time>2026-04-30T13:32:44.028Z</time></trkpt><trkpt lat="41.8861842" lon="3.7845162"><ele>0.0</ele><time>2026-04-30T13:32:45.028Z</time></trkpt><trkpt lat="41.8862207" lon="3.7846218"><ele>0.0</ele><time>2026-04-30T13:32:46.028Z</time></trkpt><trkpt lat="41.8862613" lon="3.7847268"><ele>0.0</ele><time>2026-04-30T13:32:47.027Z</time></trkpt><trkpt lat="41.8863003" lon="3.784832"><ele>0.0</ele><time>2026-04-30T13:32:48.027Z</time></trkpt><trkpt lat="41.8863415" lon="3.7849368"><ele>0.0</ele><time>2026-04-30T13:32:49.027Z</time></trkpt><trkpt lat="41.8863788" lon="3.7850446"><ele>0.0</ele><time>2026-04-30T13:32:50.028Z</time></trkpt><trkpt lat="41.8864114" lon="3.7851458"><ele>0.0</ele><time>2026-04-30T13:32:51.028Z</time></trkpt><trkpt lat="41.88645" lon="3.7852518"><ele>0.0</ele><time>2026-04-30T13:32:52.027Z</time></trkpt><trkpt lat="41.8865012" lon="3.785361"><ele>0.0</ele><time>2026-04-30T13:32:53.027Z</time></trkpt><trkpt lat="41.8865436" lon="3.7854621"><ele>0.0</ele><time>2026-04-30T13:32:54.027Z</time></trkpt><trkpt lat="41.8865819" lon="3.7855651"><ele>0.0</ele><time>2026-04-30T13:32:55.027Z</time></trkpt><trkpt lat="41.8866189" lon="3.7856687"><ele>0.0</ele><time>2026-04-30T13:32:56.028Z</time></trkpt><trkpt lat="41.8867395" lon="3.7859799"><ele>0.0</ele><time>2026-04-30T13:32:59.027Z</time></trkpt><trkpt lat="41.8867759" lon="3.7860893"><ele>0.0</ele><time>2026-04-30T13:33:00.027Z</time></trkpt><trkpt lat="41.8868093" lon="3.7861952"><ele>0.0</ele><time>2026-04-30T13:33:01.027Z</time></trkpt><trkpt lat="41.8868434" lon="3.7863064"><ele>0.0</ele><time>2026-04-30T13:33:02.027Z</time></trkpt><trkpt lat="41.8868785" lon="3.7864149"><ele>0.0</ele><time>2026-04-30T13:33:03.027Z</time></trkpt><trkpt lat="41.8869167" lon="3.7865257"><ele>0.0</ele><time>2026-04-30T13:33:04.028Z</time></trkpt><trkpt lat="41.8869512" lon="3.7866341"><ele>0.0</ele><time>2026-04-30T13:33:05.028Z</time></trkpt><trkpt lat="41.8869871" lon="3.7867427"><ele>0.0</ele><time>2026-04-30T13:33:06.027Z</time></trkpt><trkpt lat="41.8870237" lon="3.7868528"><ele>0.0</ele><time>2026-04-30T13:33:07.028Z</time></trkpt><trkpt lat="41.8870556" lon="3.7869596"><ele>0.0</ele><time>2026-04-30T13:33:08.027Z</time></trkpt><trkpt lat="41.8870919" lon="3.7870711"><ele>0.0</ele><time>2026-04-30T13:33:09.028Z</time></trkpt><trkpt lat="41.8871297" lon="3.7871799"><ele>0.0</ele><time>2026-04-30T13:33:10.027Z</time></trkpt><trkpt lat="41.8871666" lon="3.7872864"><ele>0.0</ele><time>2026-04-30T13:33:11.028Z</time></trkpt><trkpt lat="41.8872067" lon="3.7873903"><ele>0.0</ele><time>2026-04-30T13:33:12.028Z</time></trkpt><trkpt lat="41.887245" lon="3.7875015"><ele>0.0</ele><time>2026-04-30T13:33:13.027Z</time></trkpt><trkpt lat="41.887278" lon="3.7876097"><ele>0.0</ele><time>2026-04-30T13:33:14.028Z</time></trkpt><trkpt lat="41.8873125" lon="3.7877138"><ele>0.0</ele><time>2026-04-30T13:33:15.028Z</time></trkpt><trkpt lat="41.8873533" lon="3.7878168"><ele>0.0</ele><time>2026-04-30T13:33:16.027Z</time></trkpt><trkpt lat="41.8873936" lon="3.7879212"><ele>0.0</ele><time>2026-04-30T13:33:17.028Z</time></trkpt><trkpt lat="41.8874322" lon="3.7880278"><ele>0.0</ele><time>2026-04-30T13:33:18.027Z</time></trkpt><trkpt lat="41.887511" lon="3.7882377"><ele>0.0</ele><time>2026-04-30T13:33:20.027Z</time></trkpt><trkpt lat="41.8875498" lon="3.7883465"><ele>0.0</ele><time>2026-04-30T13:33:21.028Z</time></trkpt><trkpt lat="41.8875923" lon="3.788456"><ele>0.0</ele><time>2026-04-30T13:33:22.027Z</time></trkpt><trkpt lat="41.8876373" lon="3.7885596"><ele>0.0</ele><time>2026-04-30T13:33:23.028Z</time></trkpt><trkpt lat="41.8876782" lon="3.7886616"><ele>0.0</ele><time>2026-04-30T13:33:24.027Z</time></trkpt><trkpt lat="41.8877174" lon="3.7887652"><ele>0.0</ele><time>2026-04-30T13:33:25.027Z</time></trkpt><trkpt lat="41.8877555" lon="3.7888669"><ele>0.0</ele><time>2026-04-30T13:33:26.027Z</time></trkpt><trkpt lat="41.8877935" lon="3.7889734"><ele>0.0</ele><time>2026-04-30T13:33:27.028Z</time></trkpt><trkpt lat="41.8878318" lon="3.7890843"><ele>0.0</ele><time>2026-04-30T13:33:28.028Z</time></trkpt><trkpt lat="41.8878659" lon="3.789193"><ele>0.0</ele><time>2026-04-30T13:33:29.027Z</time></trkpt><trkpt lat="41.8879088" lon="3.7892988"><ele>0.0</ele><time>2026-04-30T13:33:30.028Z</time></trkpt><trkpt lat="41.8879511" lon="3.7894067"><ele>0.0</ele><time>2026-04-30T13:33:31.028Z</time></trkpt><trkpt lat="41.8879884" lon="3.7895094"><ele>0.0</ele><time>2026-04-30T13:33:32.028Z</time></trkpt><trkpt lat="41.888028" lon="3.789614"><ele>0.0</ele><time>2026-04-30T13:33:33.028Z</time></trkpt><trkpt lat="41.8880676" lon="3.7897146"><ele>0.0</ele><time>2026-04-30T13:33:34.027Z</time></trkpt><trkpt lat="41.8881109" lon="3.7898161"><ele>0.0</ele><time>2026-04-30T13:33:35.027Z</time></trkpt><trkpt lat="41.888147" lon="3.789925"><ele>0.0</ele><time>2026-04-30T13:33:36.028Z</time></trkpt><trkpt lat="41.8881817" lon="3.7900336"><ele>0.0</ele><time>2026-04-30T13:33:37.028Z</time></trkpt><trkpt lat="41.8882207" lon="3.7901436"><ele>0.0</ele><time>2026-04-30T13:33:38.028Z</time></trkpt><trkpt lat="41.888254" lon="3.7902536"><ele>0.0</ele><time>2026-04-30T13:33:39.028Z</time></trkpt><trkpt lat="41.8883329" lon="3.7904797"><ele>0.0</ele><time>2026-04-30T13:33:41.027Z</time></trkpt><trkpt lat="41.8883764" lon="3.7905844"><ele>0.0</ele><time>2026-04-30T13:33:42.028Z</time></trkpt><trkpt lat="41.8884099" lon="3.7906947"><ele>0.0</ele><time>2026-04-30T13:33:43.028Z</time></trkpt><trkpt lat="41.8884557" lon="3.7907935"><ele>0.0</ele><time>2026-04-30T13:33:44.028Z</time></trkpt><trkpt lat="41.8884973" lon="3.7909004"><ele>0.0</ele><time>2026-04-30T13:33:45.028Z</time></trkpt><trkpt lat="41.8885337" lon="3.7910095"><ele>0.0</ele><time>2026-04-30T13:33:46.028Z</time></trkpt><trkpt lat="41.8885735" lon="3.7911133"><ele>0.0</ele><time>2026-04-30T13:33:47.027Z</time></trkpt><trkpt lat="41.8886175" lon="3.7912181"><ele>0.0</ele><time>2026-04-30T13:33:48.028Z</time></trkpt><trkpt lat="41.8886618" lon="3.7913227"><ele>0.0</ele><time>2026-04-30T13:33:49.027Z</time></trkpt><trkpt lat="41.888705" lon="3.7914233"><ele>0.0</ele><time>2026-04-30T13:33:50.027Z</time></trkpt><trkpt lat="41.8887483" lon="3.7915247"><ele>0.0</ele><time>2026-04-30T13:33:51.028Z</time></trkpt><trkpt lat="41.8887918" lon="3.7916306"><ele>0.0</ele><time>2026-04-30T13:33:52.028Z</time></trkpt><trkpt lat="41.8888337" lon="3.7917361"><ele>0.0</ele><time>2026-04-30T13:33:53.028Z</time></trkpt><trkpt lat="41.8888699" lon="3.7918411"><ele>0.0</ele><time>2026-04-30T13:33:54.027Z</time></trkpt><trkpt lat="41.8889019" lon="3.7919489"><ele>0.0</ele><time>2026-04-30T13:33:55.028Z</time></trkpt><trkpt lat="41.8889402" lon="3.7920526"><ele>0.0</ele><time>2026-04-30T13:33:56.027Z</time></trkpt><trkpt lat="41.8889805" lon="3.792159"><ele>0.0</ele><time>2026-04-30T13:33:57.028Z</time></trkpt><trkpt lat="41.8890179" lon="3.7922659"><ele>0.0</ele><time>2026-04-30T13:33:58.027Z</time></trkpt><trkpt lat="41.8890549" lon="3.7923754"><ele>0.0</ele><time>2026-04-30T13:33:59.028Z</time></trkpt><trkpt lat="41.8891813" lon="3.7926785"><ele>0.0</ele><time>2026-04-30T13:34:02.027Z</time></trkpt><trkpt lat="41.8892204" lon="3.7927876"><ele>0.0</ele><time>2026-04-30T13:34:03.027Z</time></trkpt><trkpt lat="41.889257" lon="3.7928996"><ele>0.0</ele><time>2026-04-30T13:34:04.028Z</time></trkpt><trkpt lat="41.8892985" lon="3.7930044"><ele>0.0</ele><time>2026-04-30T13:34:05.027Z</time></trkpt><trkpt lat="41.8893361" lon="3.793112"><ele>0.0</ele><time>2026-04-30T13:34:06.028Z</time></trkpt><trkpt lat="41.8893768" lon="3.7932207"><ele>0.0</ele><time>2026-04-30T13:34:07.028Z</time></trkpt><trkpt lat="41.8894189" lon="3.7933316"><ele>0.0</ele><time>2026-04-30T13:34:08.028Z</time></trkpt><trkpt lat="41.8894558" lon="3.793439"><ele>0.0</ele><time>2026-04-30T13:34:09.028Z</time></trkpt><trkpt lat="41.8894926" lon="3.7935443"><ele>0.0</ele><time>2026-04-30T13:34:10.027Z</time></trkpt><trkpt lat="41.8895295" lon="3.7936517"><ele>0.0</ele><time>2026-04-30T13:34:11.027Z</time></trkpt><trkpt lat="41.8895694" lon="3.7937653"><ele>0.0</ele><time>2026-04-30T13:34:12.027Z</time></trkpt><trkpt lat="41.8896061" lon="3.7938713"><ele>0.0</ele><time>2026-04-30T13:34:13.027Z</time></trkpt><trkpt lat="41.8896442" lon="3.7939778"><ele>0.0</ele><time>2026-04-30T13:34:14.028Z</time></trkpt><trkpt lat="41.8896896" lon="3.7940873"><ele>0.0</ele><time>2026-04-30T13:34:15.027Z</time></trkpt><trkpt lat="41.8897226" lon="3.79419"><ele>0.0</ele><time>2026-04-30T13:34:16.027Z</time></trkpt><trkpt lat="41.8897501" lon="3.7942976"><ele>0.0</ele><time>2026-04-30T13:34:17.027Z</time></trkpt><trkpt lat="41.8897888" lon="3.7943989"><ele>0.0</ele><time>2026-04-30T13:34:18.028Z</time></trkpt><trkpt lat="41.8898275" lon="3.7945"><ele>0.0</ele><time>2026-04-30T13:34:19.027Z</time></trkpt><trkpt lat="41.8898713" lon="3.7946064"><ele>0.0</ele><time>2026-04-30T13:34:20.028Z</time></trkpt><trkpt lat="41.8899154" lon="3.7947114"><ele>0.0</ele><time>2026-04-30T13:34:21.028Z</time></trkpt><trkpt lat="41.8899961" lon="3.7949288"><ele>0.0</ele><time>2026-04-30T13:34:23.027Z</time></trkpt><trkpt lat="41.8900314" lon="3.795036"><ele>0.0</ele><time>2026-04-30T13:34:24.027Z</time></trkpt><trkpt lat="41.8900749" lon="3.7951414"><ele>0.0</ele><time>2026-04-30T13:34:25.027Z</time></trkpt><trkpt lat="41.8901155" lon="3.7952437"><ele>0.0</ele><time>2026-04-30T13:34:26.028Z</time></trkpt><trkpt lat="41.8901565" lon="3.7953526"><ele>0.0</ele><time>2026-04-30T13:34:27.027Z</time></trkpt><trkpt lat="41.8901931" lon="3.7954572"><ele>0.0</ele><time>2026-04-30T13:34:28.028Z</time></trkpt><trkpt lat="41.8902295" lon="3.7955592"><ele>0.0</ele><time>2026-04-30T13:34:29.028Z</time></trkpt><trkpt lat="41.8902601" lon="3.7956626"><ele>0.0</ele><time>2026-04-30T13:34:30.028Z</time></trkpt><trkpt lat="41.8902886" lon="3.7957704"><ele>0.0</ele><time>2026-04-30T13:34:31.028Z</time></trkpt><trkpt lat="41.8903183" lon="3.7958786"><ele>0.0</ele><time>2026-04-30T13:34:32.027Z</time></trkpt><trkpt lat="41.8903524" lon="3.7959909"><ele>0.0</ele><time>2026-04-30T13:34:33.028Z</time></trkpt><trkpt lat="41.8903865" lon="3.7961058"><ele>0.0</ele><time>2026-04-30T13:34:34.027Z</time></trkpt><trkpt lat="41.8904331" lon="3.7962082"><ele>0.0</ele><time>2026-04-30T13:34:35.027Z</time></trkpt><trkpt lat="41.8904707" lon="3.7963152"><ele>0.0</ele><time>2026-04-30T13:34:36.027Z</time></trkpt><trkpt lat="41.8905058" lon="3.7964223"><ele>0.0</ele><time>2026-04-30T13:34:37.028Z</time></trkpt><trkpt lat="41.8905399" lon="3.796527"><ele>0.0</ele><time>2026-04-30T13:34:38.028Z</time></trkpt><trkpt lat="41.8905722" lon="3.7966319"><ele>0.0</ele><time>2026-04-30T13:34:39.027Z</time></trkpt><trkpt lat="41.8906086" lon="3.7967367"><ele>0.0</ele><time>2026-04-30T13:34:40.027Z</time></trkpt><trkpt lat="41.8906458" lon="3.7968458"><ele>0.0</ele><time>2026-04-30T13:34:41.027Z</time></trkpt><trkpt lat="41.8906883" lon="3.7969527"><ele>0.0</ele><time>2026-04-30T13:34:42.027Z</time></trkpt><trkpt lat="41.8907716" lon="3.7971661"><ele>0.0</ele><time>2026-04-30T13:34:44.027Z</time></trkpt><trkpt lat="41.8908154" lon="3.7972656"><ele>0.0</ele><time>2026-04-30T13:34:45.027Z</time></trkpt><trkpt lat="41.8908514" lon="3.7973696"><ele>0.0</ele><time>2026-04-30T13:34:46.027Z</time></trkpt><trkpt lat="41.8908928" lon="3.7974722"><ele>0.0</ele><time>2026-04-30T13:34:47.027Z</time></trkpt><trkpt lat="41.8909388" lon="3.7975767"><ele>0.0</ele><time>2026-04-30T13:34:48.028Z</time></trkpt><trkpt lat="41.890983" lon="3.7976829"><ele>0.0</ele><time>2026-04-30T13:34:49.028Z</time></trkpt><trkpt lat="41.8910255" lon="3.7977897"><ele>0.0</ele><time>2026-04-30T13:34:50.028Z</time></trkpt><trkpt lat="41.8910696" lon="3.7978977"><ele>0.0</ele><time>2026-04-30T13:34:51.028Z</time></trkpt><trkpt lat="41.891106" lon="3.7980047"><ele>0.0</ele><time>2026-04-30T13:34:52.027Z</time></trkpt><trkpt lat="41.8911391" lon="3.7981204"><ele>0.0</ele><time>2026-04-30T13:34:53.028Z</time></trkpt><trkpt lat="41.8911732" lon="3.7982245"><ele>0.0</ele><time>2026-04-30T13:34:54.028Z</time></trkpt><trkpt lat="41.8912022" lon="3.7983337"><ele>0.0</ele><time>2026-04-30T13:34:55.027Z</time></trkpt><trkpt lat="41.8912405" lon="3.7984407"><ele>0.0</ele><time>2026-04-30T13:34:56.028Z</time></trkpt><trkpt lat="41.8912805" lon="3.7985488"><ele>0.0</ele><time>2026-04-30T13:34:57.028Z</time></trkpt><trkpt lat="41.891326" lon="3.79865"><ele>0.0</ele><time>2026-04-30T13:34:58.027Z</time></trkpt><trkpt lat="41.8913631" lon="3.7987556"><ele>0.0</ele><time>2026-04-30T13:34:59.027Z</time></trkpt><trkpt lat="41.8914009" lon="3.7988624"><ele>0.0</ele><time>2026-04-30T13:35:00.027Z</time></trkpt><trkpt lat="41.8914405" lon="3.7989645"><ele>0.0</ele><time>2026-04-30T13:35:01.027Z</time></trkpt><trkpt lat="41.8914803" lon="3.7990659"><ele>0.0</ele><time>2026-04-30T13:35:02.028Z</time></trkpt><trkpt lat="41.8915219" lon="3.7991747"><ele>0.0</ele><time>2026-04-30T13:35:03.027Z</time></trkpt><trkpt lat="41.8916552" lon="3.7994909"><ele>0.0</ele><time>2026-04-30T13:35:06.028Z</time></trkpt><trkpt lat="41.891701" lon="3.7995906"><ele>0.0</ele><time>2026-04-30T13:35:07.027Z</time></trkpt><trkpt lat="41.891747" lon="3.7996967"><ele>0.0</ele><time>2026-04-30T13:35:08.027Z</time></trkpt><trkpt lat="41.8917894" lon="3.7998041"><ele>0.0</ele><time>2026-04-30T13:35:09.028Z</time></trkpt><trkpt lat="41.8918265" lon="3.7999104"><ele>0.0</ele><time>2026-04-30T13:35:10.028Z</time></trkpt><trkpt lat="41.8918615" lon="3.800011"><ele>0.0</ele><time>2026-04-30T13:35:11.028Z</time></trkpt><trkpt lat="41.8918996" lon="3.8001151"><ele>0.0</ele><time>2026-04-30T13:35:12.028Z</time></trkpt><trkpt lat="41.8919346" lon="3.800226"><ele>0.0</ele><time>2026-04-30T13:35:13.028Z</time></trkpt><trkpt lat="41.8919732" lon="3.8003345"><ele>0.0</ele><time>2026-04-30T13:35:14.027Z</time></trkpt><trkpt lat="41.8920157" lon="3.8004416"><ele>0.0</ele><time>2026-04-30T13:35:15.027Z</time></trkpt><trkpt lat="41.8920582" lon="3.8005497"><ele>0.0</ele><time>2026-04-30T13:35:16.027Z</time></trkpt><trkpt lat="41.8920988" lon="3.8006522"><ele>0.0</ele><time>2026-04-30T13:35:17.028Z</time></trkpt><trkpt lat="41.8921339" lon="3.8007525"><ele>0.0</ele><time>2026-04-30T13:35:18.027Z</time></trkpt><trkpt lat="41.8921646" lon="3.8008582"><ele>0.0</ele><time>2026-04-30T13:35:19.027Z</time></trkpt><trkpt lat="41.8922099" lon="3.8009662"><ele>0.0</ele><time>2026-04-30T13:35:20.028Z</time></trkpt><trkpt lat="41.8922497" lon="3.801076"><ele>0.0</ele><time>2026-04-30T13:35:21.028Z</time></trkpt><trkpt lat="41.8922869" lon="3.8011803"><ele>0.0</ele><time>2026-04-30T13:35:22.028Z</time></trkpt><trkpt lat="41.8923266" lon="3.8012863"><ele>0.0</ele><time>2026-04-30T13:35:23.028Z</time></trkpt><trkpt lat="41.8923654" lon="3.8013872"><ele>0.0</ele><time>2026-04-30T13:35:24.027Z</time></trkpt><trkpt lat="41.8924066" lon="3.8014885"><ele>0.0</ele><time>2026-04-30T13:35:25.027Z</time></trkpt><trkpt lat="41.8924796" lon="3.8017045"><ele>0.0</ele><time>2026-04-30T13:35:27.028Z</time></trkpt><trkpt lat="41.8925174" lon="3.8018113"><ele>0.0</ele><time>2026-04-30T13:35:28.028Z</time></trkpt><trkpt lat="41.8925554" lon="3.8019167"><ele>0.0</ele><time>2026-04-30T13:35:29.027Z</time></trkpt><trkpt lat="41.8925948" lon="3.802026"><ele>0.0</ele><time>2026-04-30T13:35:30.028Z</time></trkpt><trkpt lat="41.8926362" lon="3.8021374"><ele>0.0</ele><time>2026-04-30T13:35:31.028Z</time></trkpt><trkpt lat="41.8926726" lon="3.8022431"><ele>0.0</ele><time>2026-04-30T13:35:32.027Z</time></trkpt><trkpt lat="41.8927119" lon="3.802352"><ele>0.0</ele><time>2026-04-30T13:35:33.028Z</time></trkpt><trkpt lat="41.8927507" lon="3.8024564"><ele>0.0</ele><time>2026-04-30T13:35:34.028Z</time></trkpt><trkpt lat="41.8927889" lon="3.802563"><ele>0.0</ele><time>2026-04-30T13:35:35.028Z</time></trkpt><trkpt lat="41.8928705" lon="3.8027742"><ele>0.0</ele><time>2026-04-30T13:35:37.027Z</time></trkpt><trkpt lat="41.8929091" lon="3.8028754"><ele>0.0</ele><time>2026-04-30T13:35:38.027Z</time></trkpt><trkpt lat="41.8929402" lon="3.8029853"><ele>0.0</ele><time>2026-04-30T13:35:39.028Z</time></trkpt><trkpt lat="41.892974" lon="3.8030933"><ele>0.0</ele><time>2026-04-30T13:35:40.027Z</time></trkpt><trkpt lat="41.8930215" lon="3.8031967"><ele>0.0</ele><time>2026-04-30T13:35:41.028Z</time></trkpt><trkpt lat="41.8930689" lon="3.8032958"><ele>0.0</ele><time>2026-04-30T13:35:42.028Z</time></trkpt><trkpt lat="41.8931105" lon="3.803397"><ele>0.0</ele><time>2026-04-30T13:35:43.028Z</time></trkpt><trkpt lat="41.8931521" lon="3.8035014"><ele>0.0</ele><time>2026-04-30T13:35:44.027Z</time></trkpt><trkpt lat="41.8931967" lon="3.8036064"><ele>0.0</ele><time>2026-04-30T13:35:45.027Z</time></trkpt><trkpt lat="41.8932345" lon="3.8037072"><ele>0.0</ele><time>2026-04-30T13:35:46.027Z</time></trkpt><trkpt lat="41.8933196" lon="3.8039127"><ele>0.0</ele><time>2026-04-30T13:35:48.027Z</time></trkpt><trkpt lat="41.893359" lon="3.804021"><ele>0.0</ele><time>2026-04-30T13:35:49.027Z</time></trkpt><trkpt lat="41.8933987" lon="3.8041281"><ele>0.0</ele><time>2026-04-30T13:35:50.028Z</time></trkpt><trkpt lat="41.8934284" lon="3.8042323"><ele>0.0</ele><time>2026-04-30T13:35:51.028Z</time></trkpt><trkpt lat="41.8934609" lon="3.8043342"><ele>0.0</ele><time>2026-04-30T13:35:52.027Z</time></trkpt><trkpt lat="41.8935056" lon="3.804438"><ele>0.0</ele><time>2026-04-30T13:35:53.028Z</time></trkpt><trkpt lat="41.8935509" lon="3.8045444"><ele>0.0</ele><time>2026-04-30T13:35:54.027Z</time></trkpt><trkpt lat="41.8935959" lon="3.8046524"><ele>0.0</ele><time>2026-04-30T13:35:55.028Z</time></trkpt><trkpt lat="41.8936398" lon="3.8047567"><ele>0.0</ele><time>2026-04-30T13:35:56.027Z</time></trkpt><trkpt lat="41.8936815" lon="3.8048661"><ele>0.0</ele><time>2026-04-30T13:35:57.028Z</time></trkpt><trkpt lat="41.8937273" lon="3.8049646"><ele>0.0</ele><time>2026-04-30T13:35:58.027Z</time></trkpt><trkpt lat="41.8937697" lon="3.8050726"><ele>0.0</ele><time>2026-04-30T13:35:59.026Z</time></trkpt><trkpt lat="41.8938055" lon="3.8051783"><ele>0.0</ele><time>2026-04-30T13:36:00.026Z</time></trkpt><trkpt lat="41.8938432" lon="3.8052793"><ele>0.0</ele><time>2026-04-30T13:36:01.027Z</time></trkpt><trkpt lat="41.8938818" lon="3.8053819"><ele>0.0</ele><time>2026-04-30T13:36:02.027Z</time></trkpt><trkpt lat="41.8939202" lon="3.8054859"><ele>0.0</ele><time>2026-04-30T13:36:03.026Z</time></trkpt><trkpt lat="41.8939613" lon="3.8055863"><ele>0.0</ele><time>2026-04-30T13:36:04.026Z</time></trkpt><trkpt lat="41.8940017" lon="3.8056814"><ele>0.0</ele><time>2026-04-30T13:36:05.027Z</time></trkpt><trkpt lat="41.8940362" lon="3.8057906"><ele>0.0</ele><time>2026-04-30T13:36:06.027Z</time></trkpt><trkpt lat="41.8940841" lon="3.8058964"><ele>0.0</ele><time>2026-04-30T13:36:07.027Z</time></trkpt><trkpt lat="41.8941329" lon="3.8060001"><ele>0.0</ele><time>2026-04-30T13:36:08.026Z</time></trkpt><trkpt lat="41.8942193" lon="3.8062113"><ele>0.0</ele><time>2026-04-30T13:36:10.027Z</time></trkpt><trkpt lat="41.8942602" lon="3.8063196"><ele>0.0</ele><time>2026-04-30T13:36:11.027Z</time></trkpt><trkpt lat="41.894296" lon="3.8064278"><ele>0.0</ele><time>2026-04-30T13:36:12.027Z</time></trkpt><trkpt lat="41.8943308" lon="3.8065392"><ele>0.0</ele><time>2026-04-30T13:36:13.026Z</time></trkpt><trkpt lat="41.8943611" lon="3.8066469"><ele>0.0</ele><time>2026-04-30T13:36:14.026Z</time></trkpt><trkpt lat="41.8943925" lon="3.8067576"><ele>0.0</ele><time>2026-04-30T13:36:15.026Z</time></trkpt><trkpt lat="41.89443" lon="3.806856"><ele>0.0</ele><time>2026-04-30T13:36:16.027Z</time></trkpt><trkpt lat="41.8944716" lon="3.8069542"><ele>0.0</ele><time>2026-04-30T13:36:17.027Z</time></trkpt><trkpt lat="41.8945114" lon="3.8070593"><ele>0.0</ele><time>2026-04-30T13:36:18.027Z</time></trkpt><trkpt lat="41.8945488" lon="3.8071677"><ele>0.0</ele><time>2026-04-30T13:36:19.027Z</time></trkpt><trkpt lat="41.8945865" lon="3.807279"><ele>0.0</ele><time>2026-04-30T13:36:20.026Z</time></trkpt><trkpt lat="41.8946233" lon="3.8073892"><ele>0.0</ele><time>2026-04-30T13:36:21.027Z</time></trkpt><trkpt lat="41.8946588" lon="3.8074951"><ele>0.0</ele><time>2026-04-30T13:36:22.027Z</time></trkpt><trkpt lat="41.8946922" lon="3.8076019"><ele>0.0</ele><time>2026-04-30T13:36:23.027Z</time></trkpt><trkpt lat="41.8947334" lon="3.8077053"><ele>0.0</ele><time>2026-04-30T13:36:24.027Z</time></trkpt><trkpt lat="41.894768" lon="3.8078116"><ele>0.0</ele><time>2026-04-30T13:36:25.027Z</time></trkpt><trkpt lat="41.8948084" lon="3.8079164"><ele>0.0</ele><time>2026-04-30T13:36:26.027Z</time></trkpt><trkpt lat="41.8948611" lon="3.8080213"><ele>0.0</ele><time>2026-04-30T13:36:27.027Z</time></trkpt><trkpt lat="41.8949018" lon="3.8081237"><ele>0.0</ele><time>2026-04-30T13:36:28.026Z</time></trkpt><trkpt lat="41.8949403" lon="3.8082298"><ele>0.0</ele><time>2026-04-30T13:36:29.027Z</time></trkpt><trkpt lat="41.8950042" lon="3.8084447"><ele>0.0</ele><time>2026-04-30T13:36:31.026Z</time></trkpt><trkpt lat="41.8950383" lon="3.8085489"><ele>0.0</ele><time>2026-04-30T13:36:32.027Z</time></trkpt><trkpt lat="41.8950744" lon="3.8086539"><ele>0.0</ele><time>2026-04-30T13:36:33.027Z</time></trkpt><trkpt lat="41.8951118" lon="3.8087576"><ele>0.0</ele><time>2026-04-30T13:36:34.026Z</time></trkpt><trkpt lat="41.895156" lon="3.80886"><ele>0.0</ele><time>2026-04-30T13:36:35.026Z</time></trkpt><trkpt lat="41.8951938" lon="3.8089703"><ele>0.0</ele><time>2026-04-30T13:36:36.026Z</time></trkpt><trkpt lat="41.8952276" lon="3.8090766"><ele>0.0</ele><time>2026-04-30T13:36:37.026Z</time></trkpt><trkpt lat="41.8952677" lon="3.8091819"><ele>0.0</ele><time>2026-04-30T13:36:38.027Z</time></trkpt><trkpt lat="41.8953513" lon="3.8094024"><ele>0.0</ele><time>2026-04-30T13:36:40.027Z</time></trkpt><trkpt lat="41.8953915" lon="3.8095086"><ele>0.0</ele><time>2026-04-30T13:36:41.026Z</time></trkpt><trkpt lat="41.8954271" lon="3.8096138"><ele>0.0</ele><time>2026-04-30T13:36:42.026Z</time></trkpt><trkpt lat="41.8954693" lon="3.8097199"><ele>0.0</ele><time>2026-04-30T13:36:43.027Z</time></trkpt><trkpt lat="41.8955128" lon="3.8098225"><ele>0.0</ele><time>2026-04-30T13:36:44.027Z</time></trkpt><trkpt lat="41.8955532" lon="3.8099241"><ele>0.0</ele><time>2026-04-30T13:36:45.027Z</time></trkpt><trkpt lat="41.8955873" lon="3.8100345"><ele>0.0</ele><time>2026-04-30T13:36:46.026Z</time></trkpt><trkpt lat="41.8956235" lon="3.8101417"><ele>0.0</ele><time>2026-04-30T13:36:47.026Z</time></trkpt><trkpt lat="41.8956587" lon="3.8102428"><ele>0.0</ele><time>2026-04-30T13:36:48.026Z</time></trkpt><trkpt lat="41.8956963" lon="3.8103499"><ele>0.0</ele><time>2026-04-30T13:36:49.026Z</time></trkpt><trkpt lat="41.8957288" lon="3.810458"><ele>0.0</ele><time>2026-04-30T13:36:50.027Z</time></trkpt><trkpt lat="41.8958013" lon="3.8106626"><ele>0.0</ele><time>2026-04-30T13:36:52.026Z</time></trkpt><trkpt lat="41.8958418" lon="3.8107667"><ele>0.0</ele><time>2026-04-30T13:36:53.026Z</time></trkpt><trkpt lat="41.8958828" lon="3.8108746"><ele>0.0</ele><time>2026-04-30T13:36:54.027Z</time></trkpt><trkpt lat="41.8959268" lon="3.810986"><ele>0.0</ele><time>2026-04-30T13:36:55.027Z</time></trkpt><trkpt lat="41.8959649" lon="3.8110948"><ele>0.0</ele><time>2026-04-30T13:36:56.026Z</time></trkpt><trkpt lat="41.8960005" lon="3.811203"><ele>0.0</ele><time>2026-04-30T13:36:57.027Z</time></trkpt><trkpt lat="41.8960369" lon="3.8113115"><ele>0.0</ele><time>2026-04-30T13:36:58.026Z</time></trkpt><trkpt lat="41.8960723" lon="3.811421"><ele>0.0</ele><time>2026-04-30T13:36:59.026Z</time></trkpt><trkpt lat="41.8961105" lon="3.8115264"><ele>0.0</ele><time>2026-04-30T13:37:00.026Z</time></trkpt><trkpt lat="41.8961506" lon="3.8116316"><ele>0.0</ele><time>2026-04-30T13:37:01.027Z</time></trkpt><trkpt lat="41.8961976" lon="3.8117337"><ele>0.0</ele><time>2026-04-30T13:37:02.027Z</time></trkpt><trkpt lat="41.8962417" lon="3.8118381"><ele>0.0</ele><time>2026-04-30T13:37:03.026Z</time></trkpt><trkpt lat="41.8962847" lon="3.8119419"><ele>0.0</ele><time>2026-04-30T13:37:04.026Z</time></trkpt><trkpt lat="41.896328" lon="3.8120538"><ele>0.0</ele><time>2026-04-30T13:37:05.027Z</time></trkpt><trkpt lat="41.8963644" lon="3.8121643"><ele>0.0</ele><time>2026-04-30T13:37:06.026Z</time></trkpt><trkpt lat="41.8964033" lon="3.8122701"><ele>0.0</ele><time>2026-04-30T13:37:07.027Z</time></trkpt><trkpt lat="41.8964389" lon="3.8123796"><ele>0.0</ele><time>2026-04-30T13:37:08.026Z</time></trkpt><trkpt lat="41.8964738" lon="3.8124869"><ele>0.0</ele><time>2026-04-30T13:37:09.026Z</time></trkpt><trkpt lat="41.8965199" lon="3.8125945"><ele>0.0</ele><time>2026-04-30T13:37:10.026Z</time></trkpt><trkpt lat="41.896594" lon="3.8128097"><ele>0.0</ele><time>2026-04-30T13:37:12.026Z</time></trkpt><trkpt lat="41.8966365" lon="3.8129093"><ele>0.0</ele><time>2026-04-30T13:37:13.027Z</time></trkpt><trkpt lat="41.896684" lon="3.8130108"><ele>0.0</ele><time>2026-04-30T13:37:14.026Z</time></trkpt><trkpt lat="41.8967295" lon="3.8131135"><ele>0.0</ele><time>2026-04-30T13:37:15.027Z</time></trkpt><trkpt lat="41.8967654" lon="3.813217"><ele>0.0</ele><time>2026-04-30T13:37:16.027Z</time></trkpt><trkpt lat="41.896803" lon="3.8133178"><ele>0.0</ele><time>2026-04-30T13:37:17.027Z</time></trkpt><trkpt lat="41.8968431" lon="3.8134223"><ele>0.0</ele><time>2026-04-30T13:37:18.026Z</time></trkpt><trkpt lat="41.8968798" lon="3.8135271"><ele>0.0</ele><time>2026-04-30T13:37:19.026Z</time></trkpt><trkpt lat="41.8969225" lon="3.8136289"><ele>0.0</ele><time>2026-04-30T13:37:20.027Z</time></trkpt><trkpt lat="41.8969663" lon="3.813732"><ele>0.0</ele><time>2026-04-30T13:37:21.027Z</time></trkpt><trkpt lat="41.8970039" lon="3.8138399"><ele>0.0</ele><time>2026-04-30T13:37:22.027Z</time></trkpt><trkpt lat="41.8970392" lon="3.8139494"><ele>0.0</ele><time>2026-04-30T13:37:23.026Z</time></trkpt><trkpt lat="41.8970798" lon="3.8140582"><ele>0.0</ele><time>2026-04-30T13:37:24.027Z</time></trkpt><trkpt lat="41.8971146" lon="3.8141628"><ele>0.0</ele><time>2026-04-30T13:37:25.027Z</time></trkpt><trkpt lat="41.8971441" lon="3.8142681"><ele>0.0</ele><time>2026-04-30T13:37:26.026Z</time></trkpt><trkpt lat="41.8971816" lon="3.8143622"><ele>0.0</ele><time>2026-04-30T13:37:27.027Z</time></trkpt><trkpt lat="41.8972171" lon="3.8144657"><ele>0.0</ele><time>2026-04-30T13:37:28.026Z</time></trkpt><trkpt lat="41.8972567" lon="3.8145673"><ele>0.0</ele><time>2026-04-30T13:37:29.026Z</time></trkpt><trkpt lat="41.8972952" lon="3.8146745"><ele>0.0</ele><time>2026-04-30T13:37:30.026Z</time></trkpt><trkpt lat="41.8973276" lon="3.8147796"><ele>0.0</ele><time>2026-04-30T13:37:31.026Z</time></trkpt><trkpt lat="41.8974068" lon="3.8149948"><ele>0.0</ele><time>2026-04-30T13:37:33.027Z</time></trkpt><trkpt lat="41.897438" lon="3.8151015"><ele>0.0</ele><time>2026-04-30T13:37:34.027Z</time></trkpt><trkpt lat="41.8974712" lon="3.815208"><ele>0.0</ele><time>2026-04-30T13:37:35.027Z</time></trkpt><trkpt lat="41.8975071" lon="3.8153189"><ele>0.0</ele><time>2026-04-30T13:37:36.027Z</time></trkpt><trkpt lat="41.8975565" lon="3.8154233"><ele>0.0</ele><time>2026-04-30T13:37:37.026Z</time></trkpt><trkpt lat="41.8975994" lon="3.8155282"><ele>0.0</ele><time>2026-04-30T13:37:38.026Z</time></trkpt><trkpt lat="41.8976396" lon="3.8156348"><ele>0.0</ele><time>2026-04-30T13:37:39.026Z</time></trkpt><trkpt lat="41.8976795" lon="3.8157416"><ele>0.0</ele><time>2026-04-30T13:37:40.026Z</time></trkpt><trkpt lat="41.8977138" lon="3.8158526"><ele>0.0</ele><time>2026-04-30T13:37:41.027Z</time></trkpt><trkpt lat="41.8977518" lon="3.815957"><ele>0.0</ele><time>2026-04-30T13:37:42.026Z</time></trkpt><trkpt lat="41.8977907" lon="3.81606"><ele>0.0</ele><time>2026-04-30T13:37:43.026Z</time></trkpt><trkpt lat="41.8978252" lon="3.8161658"><ele>0.0</ele><time>2026-04-30T13:37:44.026Z</time></trkpt><trkpt lat="41.8978686" lon="3.8162681"><ele>0.0</ele><time>2026-04-30T13:37:45.027Z</time></trkpt><trkpt lat="41.897912" lon="3.8163732"><ele>0.0</ele><time>2026-04-30T13:37:46.026Z</time></trkpt><trkpt lat="41.8979519" lon="3.816478"><ele>0.0</ele><time>2026-04-30T13:37:47.026Z</time></trkpt><trkpt lat="41.8979926" lon="3.816582"><ele>0.0</ele><time>2026-04-30T13:37:48.027Z</time></trkpt><trkpt lat="41.8980285" lon="3.8166884"><ele>0.0</ele><time>2026-04-30T13:37:49.026Z</time></trkpt><trkpt lat="41.8980596" lon="3.8167948"><ele>0.0</ele><time>2026-04-30T13:37:50.027Z</time></trkpt><trkpt lat="41.8980924" lon="3.8169014"><ele>0.0</ele><time>2026-04-30T13:37:51.026Z</time></trkpt><trkpt lat="41.8981776" lon="3.8171003"><ele>0.0</ele><time>2026-04-30T13:37:53.027Z</time></trkpt><trkpt lat="41.8982223" lon="3.8172007"><ele>0.0</ele><time>2026-04-30T13:37:54.026Z</time></trkpt><trkpt lat="41.8982586" lon="3.8173079"><ele>0.0</ele><time>2026-04-30T13:37:55.027Z</time></trkpt><trkpt lat="41.898297" lon="3.8174134"><ele>0.0</ele><time>2026-04-30T13:37:56.026Z</time></trkpt><trkpt lat="41.8983266" lon="3.8175241"><ele>0.0</ele><time>2026-04-30T13:37:57.027Z</time></trkpt><trkpt lat="41.8983662" lon="3.8176286"><ele>0.0</ele><time>2026-04-30T13:37:58.026Z</time></trkpt><trkpt lat="41.8984122" lon="3.8177348"><ele>0.0</ele><time>2026-04-30T13:37:59.026Z</time></trkpt><trkpt lat="41.8984491" lon="3.8178427"><ele>0.0</ele><time>2026-04-30T13:38:00.026Z</time></trkpt><trkpt lat="41.8984816" lon="3.8179523"><ele>0.0</ele><time>2026-04-30T13:38:01.026Z</time></trkpt><trkpt lat="41.8985188" lon="3.8180582"><ele>0.0</ele><time>2026-04-30T13:38:02.026Z</time></trkpt><trkpt lat="41.8985568" lon="3.8181647"><ele>0.0</ele><time>2026-04-30T13:38:03.026Z</time></trkpt><trkpt lat="41.8985951" lon="3.8182683"><ele>0.0</ele><time>2026-04-30T13:38:04.026Z</time></trkpt><trkpt lat="41.8986378" lon="3.818379"><ele>0.0</ele><time>2026-04-30T13:38:05.027Z</time></trkpt><trkpt lat="41.8986768" lon="3.8184875"><ele>0.0</ele><time>2026-04-30T13:38:06.027Z</time></trkpt><trkpt lat="41.8987183" lon="3.8185919"><ele>0.0</ele><time>2026-04-30T13:38:07.027Z</time></trkpt><trkpt lat="41.898759" lon="3.8186978"><ele>0.0</ele><time>2026-04-30T13:38:08.026Z</time></trkpt><trkpt lat="41.8987917" lon="3.8188033"><ele>0.0</ele><time>2026-04-30T13:38:09.026Z</time></trkpt><trkpt lat="41.8988289" lon="3.8189079"><ele>0.0</ele><time>2026-04-30T13:38:10.026Z</time></trkpt><trkpt lat="41.8988659" lon="3.8190106"><ele>0.0</ele><time>2026-04-30T13:38:11.027Z</time></trkpt><trkpt lat="41.898901" lon="3.8191167"><ele>0.0</ele><time>2026-04-30T13:38:12.027Z</time></trkpt><trkpt lat="41.8989786" lon="3.8193328"><ele>0.0</ele><time>2026-04-30T13:38:14.027Z</time></trkpt><trkpt lat="41.8990512" lon="3.8195355"><ele>0.0</ele><time>2026-04-30T13:38:16.026Z</time></trkpt><trkpt lat="41.8991008" lon="3.8196482"><ele>0.0</ele><time>2026-04-30T13:38:17.026Z</time></trkpt><trkpt lat="41.8991515" lon="3.8197517"><ele>0.0</ele><time>2026-04-30T13:38:18.026Z</time></trkpt><trkpt lat="41.8991861" lon="3.8198508"><ele>0.0</ele><time>2026-04-30T13:38:19.027Z</time></trkpt><trkpt lat="41.8992211" lon="3.8199522"><ele>0.0</ele><time>2026-04-30T13:38:20.027Z</time></trkpt><trkpt lat="41.8992602" lon="3.8200638"><ele>0.0</ele><time>2026-04-30T13:38:21.026Z</time></trkpt><trkpt lat="41.8993098" lon="3.8201617"><ele>0.0</ele><time>2026-04-30T13:38:22.027Z</time></trkpt><trkpt lat="41.89935" lon="3.8202668"><ele>0.0</ele><time>2026-04-30T13:38:23.026Z</time></trkpt><trkpt lat="41.8993879" lon="3.8203758"><ele>0.0</ele><time>2026-04-30T13:38:24.027Z</time></trkpt><trkpt lat="41.8994244" lon="3.8204742"><ele>0.0</ele><time>2026-04-30T13:38:25.026Z</time></trkpt><trkpt lat="41.8994664" lon="3.8205856"><ele>0.0</ele><time>2026-04-30T13:38:26.026Z</time></trkpt><trkpt lat="41.8995037" lon="3.8206915"><ele>0.0</ele><time>2026-04-30T13:38:27.026Z</time></trkpt><trkpt lat="41.8995401" lon="3.8207981"><ele>0.0</ele><time>2026-04-30T13:38:28.027Z</time></trkpt><trkpt lat="41.8995753" lon="3.8209033"><ele>0.0</ele><time>2026-04-30T13:38:29.027Z</time></trkpt><trkpt lat="41.8996089" lon="3.8210056"><ele>0.0</ele><time>2026-04-30T13:38:30.027Z</time></trkpt><trkpt lat="41.8996479" lon="3.8211158"><ele>0.0</ele><time>2026-04-30T13:38:31.026Z</time></trkpt><trkpt lat="41.8996913" lon="3.8212228"><ele>0.0</ele><time>2026-04-30T13:38:32.027Z</time></trkpt><trkpt lat="41.8997377" lon="3.8213255"><ele>0.0</ele><time>2026-04-30T13:38:33.027Z</time></trkpt><trkpt lat="41.8998219" lon="3.8215335"><ele>0.0</ele><time>2026-04-30T13:38:35.026Z</time></trkpt><trkpt lat="41.8998544" lon="3.8216384"><ele>0.0</ele><time>2026-04-30T13:38:36.027Z</time></trkpt><trkpt lat="41.8998931" lon="3.8217432"><ele>0.0</ele><time>2026-04-30T13:38:37.026Z</time></trkpt><trkpt lat="41.8999187" lon="3.821847"><ele>0.0</ele><time>2026-04-30T13:38:38.026Z</time></trkpt><trkpt lat="41.8999522" lon="3.8219518"><ele>0.0</ele><time>2026-04-30T13:38:39.026Z</time></trkpt><trkpt lat="41.8999799" lon="3.8220637"><ele>0.0</ele><time>2026-04-30T13:38:40.027Z</time></trkpt><trkpt lat="41.9000052" lon="3.8221744"><ele>0.0</ele><time>2026-04-30T13:38:41.026Z</time></trkpt><trkpt lat="41.9000361" lon="3.822283"><ele>0.0</ele><time>2026-04-30T13:38:42.026Z</time></trkpt><trkpt lat="41.9000704" lon="3.8223854"><ele>0.0</ele><time>2026-04-30T13:38:43.027Z</time></trkpt><trkpt lat="41.9001085" lon="3.8224883"><ele>0.0</ele><time>2026-04-30T13:38:44.027Z</time></trkpt><trkpt lat="41.9001483" lon="3.8225962"><ele>0.0</ele><time>2026-04-30T13:38:45.027Z</time></trkpt><trkpt lat="41.9001883" lon="3.8227017"><ele>0.0</ele><time>2026-04-30T13:38:46.027Z</time></trkpt><trkpt lat="41.9002743" lon="3.8229179"><ele>0.0</ele><time>2026-04-30T13:38:48.027Z</time></trkpt><trkpt lat="41.9003191" lon="3.8230191"><ele>0.0</ele><time>2026-04-30T13:38:49.026Z</time></trkpt><trkpt lat="41.9003584" lon="3.8231207"><ele>0.0</ele><time>2026-04-30T13:38:50.026Z</time></trkpt><trkpt lat="41.9003978" lon="3.8232225"><ele>0.0</ele><time>2026-04-30T13:38:51.027Z</time></trkpt><trkpt lat="41.900435" lon="3.8233299"><ele>0.0</ele><time>2026-04-30T13:38:52.027Z</time></trkpt><trkpt lat="41.9004775" lon="3.8234308"><ele>0.0</ele><time>2026-04-30T13:38:53.027Z</time></trkpt><trkpt lat="41.9005177" lon="3.8235438"><ele>0.0</ele><time>2026-04-30T13:38:54.027Z</time></trkpt><trkpt lat="41.9006055" lon="3.8237517"><ele>0.0</ele><time>2026-04-30T13:38:56.027Z</time></trkpt><trkpt lat="41.9006491" lon="3.8238598"><ele>0.0</ele><time>2026-04-30T13:38:57.026Z</time></trkpt><trkpt lat="41.9006938" lon="3.8239622"><ele>0.0</ele><time>2026-04-30T13:38:58.026Z</time></trkpt><trkpt lat="41.9007375" lon="3.8240709"><ele>0.0</ele><time>2026-04-30T13:38:59.026Z</time></trkpt><trkpt lat="41.9007781" lon="3.8241765"><ele>0.0</ele><time>2026-04-30T13:39:00.027Z</time></trkpt><trkpt lat="41.9008164" lon="3.8242817"><ele>0.0</ele><time>2026-04-30T13:39:01.027Z</time></trkpt><trkpt lat="41.9008533" lon="3.8243897"><ele>0.0</ele><time>2026-04-30T13:39:02.027Z</time></trkpt><trkpt lat="41.9008903" lon="3.8244937"><ele>0.0</ele><time>2026-04-30T13:39:03.026Z</time></trkpt><trkpt lat="41.9009283" lon="3.824597"><ele>0.0</ele><time>2026-04-30T13:39:04.027Z</time></trkpt><trkpt lat="41.9009666" lon="3.8246988"><ele>0.0</ele><time>2026-04-30T13:39:05.027Z</time></trkpt><trkpt lat="41.9010066" lon="3.8248061"><ele>0.0</ele><time>2026-04-30T13:39:06.027Z</time></trkpt><trkpt lat="41.9010436" lon="3.8249104"><ele>0.0</ele><time>2026-04-30T13:39:07.026Z</time></trkpt><trkpt lat="41.9010829" lon="3.825018"><ele>0.0</ele><time>2026-04-30T13:39:08.026Z</time></trkpt><trkpt lat="41.9011202" lon="3.8251206"><ele>0.0</ele><time>2026-04-30T13:39:09.026Z</time></trkpt><trkpt lat="41.9011584" lon="3.8252296"><ele>0.0</ele><time>2026-04-30T13:39:10.026Z</time></trkpt><trkpt lat="41.9011956" lon="3.8253309"><ele>0.0</ele><time>2026-04-30T13:39:11.026Z</time></trkpt><trkpt lat="41.9012326" lon="3.8254324"><ele>0.0</ele><time>2026-04-30T13:39:12.026Z</time></trkpt><trkpt lat="41.9012731" lon="3.825541"><ele>0.0</ele><time>2026-04-30T13:39:13.026Z</time></trkpt><trkpt lat="41.9013136" lon="3.8256481"><ele>0.0</ele><time>2026-04-30T13:39:14.027Z</time></trkpt><trkpt lat="41.9013461" lon="3.825759"><ele>0.0</ele><time>2026-04-30T13:39:15.027Z</time></trkpt><trkpt lat="41.9014264" lon="3.8259576"><ele>0.0</ele><time>2026-04-30T13:39:17.026Z</time></trkpt><trkpt lat="41.901468" lon="3.8260632"><ele>0.0</ele><time>2026-04-30T13:39:18.027Z</time></trkpt><trkpt lat="41.901552" lon="3.8262715"><ele>0.0</ele><time>2026-04-30T13:39:20.026Z</time></trkpt><trkpt lat="41.9015949" lon="3.8263792"><ele>0.0</ele><time>2026-04-30T13:39:21.026Z</time></trkpt><trkpt lat="41.9016372" lon="3.8264848"><ele>0.0</ele><time>2026-04-30T13:39:22.026Z</time></trkpt><trkpt lat="41.9016773" lon="3.8265899"><ele>0.0</ele><time>2026-04-30T13:39:23.027Z</time></trkpt><trkpt lat="41.9017181" lon="3.8266976"><ele>0.0</ele><time>2026-04-30T13:39:24.026Z</time></trkpt><trkpt lat="41.9017553" lon="3.8268049"><ele>0.0</ele><time>2026-04-30T13:39:25.027Z</time></trkpt><trkpt lat="41.9017934" lon="3.8269145"><ele>0.0</ele><time>2026-04-30T13:39:26.027Z</time></trkpt><trkpt lat="41.9018331" lon="3.8270243"><ele>0.0</ele><time>2026-04-30T13:39:27.027Z</time></trkpt><trkpt lat="41.9018735" lon="3.8271313"><ele>0.0</ele><time>2026-04-30T13:39:28.027Z</time></trkpt><trkpt lat="41.9019106" lon="3.8272383"><ele>0.0</ele><time>2026-04-30T13:39:29.027Z</time></trkpt><trkpt lat="41.901953" lon="3.8273424"><ele>0.0</ele><time>2026-04-30T13:39:30.027Z</time></trkpt><trkpt lat="41.9019947" lon="3.827447"><ele>0.0</ele><time>2026-04-30T13:39:31.027Z</time></trkpt><trkpt lat="41.9020307" lon="3.8275419"><ele>0.0</ele><time>2026-04-30T13:39:32.026Z</time></trkpt><trkpt lat="41.9020687" lon="3.8276439"><ele>0.0</ele><time>2026-04-30T13:39:33.027Z</time></trkpt><trkpt lat="41.90211" lon="3.8277497"><ele>0.0</ele><time>2026-04-30T13:39:34.027Z</time></trkpt><trkpt lat="41.9021467" lon="3.8278563"><ele>0.0</ele><time>2026-04-30T13:39:35.026Z</time></trkpt><trkpt lat="41.9021881" lon="3.8279633"><ele>0.0</ele><time>2026-04-30T13:39:36.026Z</time></trkpt><trkpt lat="41.9022638" lon="3.8281749"><ele>0.0</ele><time>2026-04-30T13:39:38.027Z</time></trkpt><trkpt lat="41.9023018" lon="3.8282831"><ele>0.0</ele><time>2026-04-30T13:39:39.027Z</time></trkpt><trkpt lat="41.9023355" lon="3.8283855"><ele>0.0</ele><time>2026-04-30T13:39:40.027Z</time></trkpt><trkpt lat="41.9023661" lon="3.8284858"><ele>0.0</ele><time>2026-04-30T13:39:41.027Z</time></trkpt><trkpt lat="41.9024018" lon="3.8285916"><ele>0.0</ele><time>2026-04-30T13:39:42.026Z</time></trkpt><trkpt lat="41.9024353" lon="3.8286969"><ele>0.0</ele><time>2026-04-30T13:39:43.026Z</time></trkpt><trkpt lat="41.9024715" lon="3.8288062"><ele>0.0</ele><time>2026-04-30T13:39:44.026Z</time></trkpt><trkpt lat="41.9025097" lon="3.828913"><ele>0.0</ele><time>2026-04-30T13:39:45.027Z</time></trkpt><trkpt lat="41.9025478" lon="3.8290242"><ele>0.0</ele><time>2026-04-30T13:39:46.027Z</time></trkpt><trkpt lat="41.9025849" lon="3.82913"><ele>0.0</ele><time>2026-04-30T13:39:47.026Z</time></trkpt><trkpt lat="41.90262" lon="3.8292393"><ele>0.0</ele><time>2026-04-30T13:39:48.027Z</time></trkpt><trkpt lat="41.9026386" lon="3.8293522"><ele>0.0</ele><time>2026-04-30T13:39:49.027Z</time></trkpt><trkpt lat="41.9026669" lon="3.829464"><ele>0.0</ele><time>2026-04-30T13:39:50.027Z</time></trkpt><trkpt lat="41.9027376" lon="3.8296735"><ele>0.0</ele><time>2026-04-30T13:39:52.026Z</time></trkpt><trkpt lat="41.9027708" lon="3.8297726"><ele>0.0</ele><time>2026-04-30T13:39:53.027Z</time></trkpt><trkpt lat="41.9028035" lon="3.8298769"><ele>0.0</ele><time>2026-04-30T13:39:54.027Z</time></trkpt><trkpt lat="41.9028353" lon="3.8299848"><ele>0.0</ele><time>2026-04-30T13:39:55.026Z</time></trkpt><trkpt lat="41.9028718" lon="3.8300887"><ele>0.0</ele><time>2026-04-30T13:39:56.026Z</time></trkpt><trkpt lat="41.9029128" lon="3.8301934"><ele>0.0</ele><time>2026-04-30T13:39:57.026Z</time></trkpt><trkpt lat="41.9030042" lon="3.8304013"><ele>0.0</ele><time>2026-04-30T13:39:59.026Z</time></trkpt><trkpt lat="41.903055" lon="3.8305051"><ele>0.0</ele><time>2026-04-30T13:40:00.026Z</time></trkpt><trkpt lat="41.9031037" lon="3.8306129"><ele>0.0</ele><time>2026-04-30T13:40:01.026Z</time></trkpt><trkpt lat="41.9031568" lon="3.8307154"><ele>0.0</ele><time>2026-04-30T13:40:02.026Z</time></trkpt><trkpt lat="41.9032015" lon="3.8308215"><ele>0.0</ele><time>2026-04-30T13:40:03.027Z</time></trkpt><trkpt lat="41.9032436" lon="3.8309221"><ele>0.0</ele><time>2026-04-30T13:40:04.027Z</time></trkpt><trkpt lat="41.9032836" lon="3.8310254"><ele>0.0</ele><time>2026-04-30T13:40:05.027Z</time></trkpt><trkpt lat="41.9033235" lon="3.8311313"><ele>0.0</ele><time>2026-04-30T13:40:06.026Z</time></trkpt><trkpt lat="41.9033664" lon="3.8312407"><ele>0.0</ele><time>2026-04-30T13:40:07.027Z</time></trkpt><trkpt lat="41.9034052" lon="3.8313509"><ele>0.0</ele><time>2026-04-30T13:40:08.026Z</time></trkpt><trkpt lat="41.9034391" lon="3.831461"><ele>0.0</ele><time>2026-04-30T13:40:09.026Z</time></trkpt><trkpt lat="41.9034755" lon="3.8315682"><ele>0.0</ele><time>2026-04-30T13:40:10.026Z</time></trkpt><trkpt lat="41.9035122" lon="3.8316662"><ele>0.0</ele><time>2026-04-30T13:40:11.027Z</time></trkpt><trkpt lat="41.9035545" lon="3.8317686"><ele>0.0</ele><time>2026-04-30T13:40:12.027Z</time></trkpt><trkpt lat="41.9035906" lon="3.8318718"><ele>0.0</ele><time>2026-04-30T13:40:13.025Z</time></trkpt><trkpt lat="41.9036289" lon="3.8319738"><ele>0.0</ele><time>2026-04-30T13:40:14.025Z</time></trkpt><trkpt lat="41.903672" lon="3.8320768"><ele>0.0</ele><time>2026-04-30T13:40:15.025Z</time></trkpt><trkpt lat="41.9037166" lon="3.8321843"><ele>0.0</ele><time>2026-04-30T13:40:16.025Z</time></trkpt><trkpt lat="41.9037582" lon="3.8322939"><ele>0.0</ele><time>2026-04-30T13:40:17.025Z</time></trkpt><trkpt lat="41.9037973" lon="3.8323996"><ele>0.0</ele><time>2026-04-30T13:40:18.026Z</time></trkpt><trkpt lat="41.903884" lon="3.8326095"><ele>0.0</ele><time>2026-04-30T13:40:20.025Z</time></trkpt><trkpt lat="41.9039283" lon="3.8327146"><ele>0.0</ele><time>2026-04-30T13:40:21.026Z</time></trkpt><trkpt lat="41.9039732" lon="3.8328181"><ele>0.0</ele><time>2026-04-30T13:40:22.026Z</time></trkpt><trkpt lat="41.9040624" lon="3.8330154"><ele>0.0</ele><time>2026-04-30T13:40:24.025Z</time></trkpt><trkpt lat="41.9040998" lon="3.8331196"><ele>0.0</ele><time>2026-04-30T13:40:25.025Z</time></trkpt><trkpt lat="41.904131" lon="3.833229"><ele>0.0</ele><time>2026-04-30T13:40:26.025Z</time></trkpt><trkpt lat="41.9041657" lon="3.8333334"><ele>0.0</ele><time>2026-04-30T13:40:27.025Z</time></trkpt><trkpt lat="41.9042034" lon="3.8334398"><ele>0.0</ele><time>2026-04-30T13:40:28.025Z</time></trkpt><trkpt lat="41.9042404" lon="3.8335434"><ele>0.0</ele><time>2026-04-30T13:40:29.025Z</time></trkpt><trkpt lat="41.9042783" lon="3.8336481"><ele>0.0</ele><time>2026-04-30T13:40:30.025Z</time></trkpt><trkpt lat="41.9043182" lon="3.8337561"><ele>0.0</ele><time>2026-04-30T13:40:31.026Z</time></trkpt><trkpt lat="41.9043572" lon="3.8338673"><ele>0.0</ele><time>2026-04-30T13:40:32.026Z</time></trkpt><trkpt lat="41.9044002" lon="3.8339716"><ele>0.0</ele><time>2026-04-30T13:40:33.026Z</time></trkpt><trkpt lat="41.9044406" lon="3.8340706"><ele>0.0</ele><time>2026-04-30T13:40:34.025Z</time></trkpt><trkpt lat="41.9044819" lon="3.8341762"><ele>0.0</ele><time>2026-04-30T13:40:35.026Z</time></trkpt><trkpt lat="41.9045224" lon="3.8342786"><ele>0.0</ele><time>2026-04-30T13:40:36.025Z</time></trkpt><trkpt lat="41.9045609" lon="3.8343862"><ele>0.0</ele><time>2026-04-30T13:40:37.025Z</time></trkpt><trkpt lat="41.9046016" lon="3.8344988"><ele>0.0</ele><time>2026-04-30T13:40:38.025Z</time></trkpt><trkpt lat="41.9046373" lon="3.834605"><ele>0.0</ele><time>2026-04-30T13:40:39.025Z</time></trkpt><trkpt lat="41.9047188" lon="3.834815"><ele>0.0</ele><time>2026-04-30T13:40:41.026Z</time></trkpt><trkpt lat="41.904757" lon="3.8349201"><ele>0.0</ele><time>2026-04-30T13:40:42.026Z</time></trkpt><trkpt lat="41.9047936" lon="3.8350265"><ele>0.0</ele><time>2026-04-30T13:40:43.025Z</time></trkpt><trkpt lat="41.9048321" lon="3.8351301"><ele>0.0</ele><time>2026-04-30T13:40:44.026Z</time></trkpt><trkpt lat="41.904869" lon="3.8352353"><ele>0.0</ele><time>2026-04-30T13:40:45.026Z</time></trkpt><trkpt lat="41.9049069" lon="3.8353461"><ele>0.0</ele><time>2026-04-30T13:40:46.025Z</time></trkpt><trkpt lat="41.9049323" lon="3.8354608"><ele>0.0</ele><time>2026-04-30T13:40:47.026Z</time></trkpt><trkpt lat="41.9049661" lon="3.8355667"><ele>0.0</ele><time>2026-04-30T13:40:48.026Z</time></trkpt><trkpt lat="41.9050018" lon="3.835673"><ele>0.0</ele><time>2026-04-30T13:40:49.025Z</time></trkpt><trkpt lat="41.90504" lon="3.8357769"><ele>0.0</ele><time>2026-04-30T13:40:50.025Z</time></trkpt><trkpt lat="41.9050729" lon="3.8358716"><ele>0.0</ele><time>2026-04-30T13:40:51.025Z</time></trkpt><trkpt lat="41.9051078" lon="3.8359749"><ele>0.0</ele><time>2026-04-30T13:40:52.026Z</time></trkpt><trkpt lat="41.9051474" lon="3.8360787"><ele>0.0</ele><time>2026-04-30T13:40:53.025Z</time></trkpt><trkpt lat="41.9051869" lon="3.8361878"><ele>0.0</ele><time>2026-04-30T13:40:54.025Z</time></trkpt><trkpt lat="41.9052574" lon="3.8364103"><ele>0.0</ele><time>2026-04-30T13:40:56.026Z</time></trkpt><trkpt lat="41.9052958" lon="3.8365121"><ele>0.0</ele><time>2026-04-30T13:40:57.025Z</time></trkpt><trkpt lat="41.9053335" lon="3.8366183"><ele>0.0</ele><time>2026-04-30T13:40:58.025Z</time></trkpt><trkpt lat="41.9053703" lon="3.8367248"><ele>0.0</ele><time>2026-04-30T13:40:59.025Z</time></trkpt><trkpt lat="41.9054068" lon="3.8368259"><ele>0.0</ele><time>2026-04-30T13:41:00.025Z</time></trkpt><trkpt lat="41.9054834" lon="3.8370369"><ele>0.0</ele><time>2026-04-30T13:41:02.026Z</time></trkpt><trkpt lat="41.9055271" lon="3.8371405"><ele>0.0</ele><time>2026-04-30T13:41:03.025Z</time></trkpt><trkpt lat="41.9055696" lon="3.8372495"><ele>0.0</ele><time>2026-04-30T13:41:04.026Z</time></trkpt><trkpt lat="41.9056159" lon="3.8373578"><ele>0.0</ele><time>2026-04-30T13:41:05.026Z</time></trkpt><trkpt lat="41.9056598" lon="3.8374617"><ele>0.0</ele><time>2026-04-30T13:41:06.025Z</time></trkpt><trkpt lat="41.9057085" lon="3.8375612"><ele>0.0</ele><time>2026-04-30T13:41:07.025Z</time></trkpt><trkpt lat="41.9057494" lon="3.837665"><ele>0.0</ele><time>2026-04-30T13:41:08.025Z</time></trkpt><trkpt lat="41.9057869" lon="3.837773"><ele>0.0</ele><time>2026-04-30T13:41:09.025Z</time></trkpt><trkpt lat="41.9058193" lon="3.8378755"><ele>0.0</ele><time>2026-04-30T13:41:10.026Z</time></trkpt><trkpt lat="41.905851" lon="3.8379802"><ele>0.0</ele><time>2026-04-30T13:41:11.025Z</time></trkpt><trkpt lat="41.9058831" lon="3.8380824"><ele>0.0</ele><time>2026-04-30T13:41:12.025Z</time></trkpt><trkpt lat="41.9059171" lon="3.838191"><ele>0.0</ele><time>2026-04-30T13:41:13.025Z</time></trkpt><trkpt lat="41.9059536" lon="3.8382937"><ele>0.0</ele><time>2026-04-30T13:41:14.025Z</time></trkpt><trkpt lat="41.9059925" lon="3.838397"><ele>0.0</ele><time>2026-04-30T13:41:15.025Z</time></trkpt><trkpt lat="41.9060352" lon="3.8385041"><ele>0.0</ele><time>2026-04-30T13:41:16.026Z</time></trkpt><trkpt lat="41.9060764" lon="3.8386197"><ele>0.0</ele><time>2026-04-30T13:41:17.026Z</time></trkpt><trkpt lat="41.9061135" lon="3.8387307"><ele>0.0</ele><time>2026-04-30T13:41:18.026Z</time></trkpt><trkpt lat="41.9061499" lon="3.8388411"><ele>0.0</ele><time>2026-04-30T13:41:19.026Z</time></trkpt><trkpt lat="41.9061911" lon="3.8389535"><ele>0.0</ele><time>2026-04-30T13:41:20.026Z</time></trkpt><trkpt lat="41.9062297" lon="3.8390584"><ele>0.0</ele><time>2026-04-30T13:41:21.026Z</time></trkpt><trkpt lat="41.9063087" lon="3.8392655"><ele>0.0</ele><time>2026-04-30T13:41:23.026Z</time></trkpt><trkpt lat="41.906347" lon="3.8393687"><ele>0.0</ele><time>2026-04-30T13:41:24.025Z</time></trkpt><trkpt lat="41.9063884" lon="3.8394717"><ele>0.0</ele><time>2026-04-30T13:41:25.026Z</time></trkpt><trkpt lat="41.9064285" lon="3.8395766"><ele>0.0</ele><time>2026-04-30T13:41:26.025Z</time></trkpt><trkpt lat="41.9064688" lon="3.8396772"><ele>0.0</ele><time>2026-04-30T13:41:27.026Z</time></trkpt><trkpt lat="41.9065135" lon="3.83978"><ele>0.0</ele><time>2026-04-30T13:41:28.026Z</time></trkpt><trkpt lat="41.9065538" lon="3.8398835"><ele>0.0</ele><time>2026-04-30T13:41:29.025Z</time></trkpt><trkpt lat="41.9065951" lon="3.8399926"><ele>0.0</ele><time>2026-04-30T13:41:30.026Z</time></trkpt><trkpt lat="41.9066338" lon="3.8400995"><ele>0.0</ele><time>2026-04-30T13:41:31.025Z</time></trkpt><trkpt lat="41.9066689" lon="3.8402036"><ele>0.0</ele><time>2026-04-30T13:41:32.026Z</time></trkpt><trkpt lat="41.9067068" lon="3.8403057"><ele>0.0</ele><time>2026-04-30T13:41:33.026Z</time></trkpt><trkpt lat="41.9067478" lon="3.8404103"><ele>0.0</ele><time>2026-04-30T13:41:34.026Z</time></trkpt><trkpt lat="41.9067848" lon="3.8405167"><ele>0.0</ele><time>2026-04-30T13:41:35.025Z</time></trkpt><trkpt lat="41.9068235" lon="3.840619"><ele>0.0</ele><time>2026-04-30T13:41:36.025Z</time></trkpt><trkpt lat="41.9068631" lon="3.8407249"><ele>0.0</ele><time>2026-04-30T13:41:37.025Z</time></trkpt><trkpt lat="41.9069059" lon="3.8408371"><ele>0.0</ele><time>2026-04-30T13:41:38.025Z</time></trkpt><trkpt lat="41.906943" lon="3.8409435"><ele>0.0</ele><time>2026-04-30T13:41:39.026Z</time></trkpt><trkpt lat="41.9069814" lon="3.8410456"><ele>0.0</ele><time>2026-04-30T13:41:40.025Z</time></trkpt><trkpt lat="41.9070244" lon="3.8411528"><ele>0.0</ele><time>2026-04-30T13:41:41.026Z</time></trkpt><trkpt lat="41.9070709" lon="3.8412594"><ele>0.0</ele><time>2026-04-30T13:41:42.026Z</time></trkpt><trkpt lat="41.9071569" lon="3.8414672"><ele>0.0</ele><time>2026-04-30T13:41:44.025Z</time></trkpt><trkpt lat="41.9072019" lon="3.8415715"><ele>0.0</ele><time>2026-04-30T13:41:45.025Z</time></trkpt><trkpt lat="41.907245" lon="3.8416779"><ele>0.0</ele><time>2026-04-30T13:41:46.025Z</time></trkpt><trkpt lat="41.9072823" lon="3.8417774"><ele>0.0</ele><time>2026-04-30T13:41:47.025Z</time></trkpt><trkpt lat="41.9073184" lon="3.8418831"><ele>0.0</ele><time>2026-04-30T13:41:48.025Z</time></trkpt><trkpt lat="41.9073553" lon="3.8419871"><ele>0.0</ele><time>2026-04-30T13:41:49.025Z</time></trkpt><trkpt lat="41.9073934" lon="3.8420885"><ele>0.0</ele><time>2026-04-30T13:41:50.026Z</time></trkpt><trkpt lat="41.9074349" lon="3.8421932"><ele>0.0</ele><time>2026-04-30T13:41:51.025Z</time></trkpt><trkpt lat="41.9074763" lon="3.8422994"><ele>0.0</ele><time>2026-04-30T13:41:52.026Z</time></trkpt><trkpt lat="41.9075195" lon="3.842406"><ele>0.0</ele><time>2026-04-30T13:41:53.025Z</time></trkpt><trkpt lat="41.9075596" lon="3.8425128"><ele>0.0</ele><time>2026-04-30T13:41:54.025Z</time></trkpt><trkpt lat="41.9076053" lon="3.8426154"><ele>0.0</ele><time>2026-04-30T13:41:55.025Z</time></trkpt><trkpt lat="41.9076448" lon="3.8427201"><ele>0.0</ele><time>2026-04-30T13:41:56.025Z</time></trkpt><trkpt lat="41.90768" lon="3.8428235"><ele>0.0</ele><time>2026-04-30T13:41:57.025Z</time></trkpt><trkpt lat="41.9077619" lon="3.8430315"><ele>0.0</ele><time>2026-04-30T13:41:59.025Z</time></trkpt><trkpt lat="41.907805" lon="3.8431323"><ele>0.0</ele><time>2026-04-30T13:42:00.025Z</time></trkpt><trkpt lat="41.9078509" lon="3.8432354"><ele>0.0</ele><time>2026-04-30T13:42:01.026Z</time></trkpt><trkpt lat="41.9078934" lon="3.8433357"><ele>0.0</ele><time>2026-04-30T13:42:02.025Z</time></trkpt><trkpt lat="41.9079318" lon="3.8434342"><ele>0.0</ele><time>2026-04-30T13:42:03.025Z</time></trkpt><trkpt lat="41.9080089" lon="3.8436424"><ele>0.0</ele><time>2026-04-30T13:42:05.025Z</time></trkpt><trkpt lat="41.9080438" lon="3.8437473"><ele>0.0</ele><time>2026-04-30T13:42:06.026Z</time></trkpt><trkpt lat="41.9080821" lon="3.843852"><ele>0.0</ele><time>2026-04-30T13:42:07.025Z</time></trkpt><trkpt lat="41.9081138" lon="3.8439596"><ele>0.0</ele><time>2026-04-30T13:42:08.025Z</time></trkpt><trkpt lat="41.9081496" lon="3.8440676"><ele>0.0</ele><time>2026-04-30T13:42:09.025Z</time></trkpt><trkpt lat="41.908187" lon="3.8441673"><ele>0.0</ele><time>2026-04-30T13:42:10.026Z</time></trkpt><trkpt lat="41.9082277" lon="3.8442776"><ele>0.0</ele><time>2026-04-30T13:42:11.026Z</time></trkpt><trkpt lat="41.9082654" lon="3.8443821"><ele>0.0</ele><time>2026-04-30T13:42:12.025Z</time></trkpt><trkpt lat="41.9083021" lon="3.8444898"><ele>0.0</ele><time>2026-04-30T13:42:13.026Z</time></trkpt><trkpt lat="41.9083359" lon="3.8445966"><ele>0.0</ele><time>2026-04-30T13:42:14.025Z</time></trkpt><trkpt lat="41.9083694" lon="3.8447001"><ele>0.0</ele><time>2026-04-30T13:42:15.026Z</time></trkpt><trkpt lat="41.9084058" lon="3.8448062"><ele>0.0</ele><time>2026-04-30T13:42:16.025Z</time></trkpt><trkpt lat="41.9084421" lon="3.8449102"><ele>0.0</ele><time>2026-04-30T13:42:17.025Z</time></trkpt><trkpt lat="41.9084819" lon="3.8450162"><ele>0.0</ele><time>2026-04-30T13:42:18.026Z</time></trkpt><trkpt lat="41.9085203" lon="3.8451231"><ele>0.0</ele><time>2026-04-30T13:42:19.025Z</time></trkpt><trkpt lat="41.90856" lon="3.8452297"><ele>0.0</ele><time>2026-04-30T13:42:20.026Z</time></trkpt><trkpt lat="41.9085994" lon="3.8453405"><ele>0.0</ele><time>2026-04-30T13:42:21.026Z</time></trkpt><trkpt lat="41.9086334" lon="3.8454527"><ele>0.0</ele><time>2026-04-30T13:42:22.025Z</time></trkpt><trkpt lat="41.9086686" lon="3.845564"><ele>0.0</ele><time>2026-04-30T13:42:23.025Z</time></trkpt><trkpt lat="41.9087064" lon="3.8456676"><ele>0.0</ele><time>2026-04-30T13:42:24.025Z</time></trkpt><trkpt lat="41.9087763" lon="3.8458809"><ele>0.0</ele><time>2026-04-30T13:42:26.025Z</time></trkpt><trkpt lat="41.9088057" lon="3.8459837"><ele>0.0</ele><time>2026-04-30T13:42:27.025Z</time></trkpt><trkpt lat="41.9088474" lon="3.8460955"><ele>0.0</ele><time>2026-04-30T13:42:28.026Z</time></trkpt><trkpt lat="41.9088869" lon="3.8461983"><ele>0.0</ele><time>2026-04-30T13:42:29.025Z</time></trkpt><trkpt lat="41.9089554" lon="3.8464016"><ele>0.0</ele><time>2026-04-30T13:42:31.025Z</time></trkpt><trkpt lat="41.9089919" lon="3.8465099"><ele>0.0</ele><time>2026-04-30T13:42:32.025Z</time></trkpt><trkpt lat="41.9090303" lon="3.846611"><ele>0.0</ele><time>2026-04-30T13:42:33.025Z</time></trkpt><trkpt lat="41.909065" lon="3.846718"><ele>0.0</ele><time>2026-04-30T13:42:34.026Z</time></trkpt><trkpt lat="41.9090999" lon="3.8468279"><ele>0.0</ele><time>2026-04-30T13:42:35.025Z</time></trkpt><trkpt lat="41.9091367" lon="3.8469363"><ele>0.0</ele><time>2026-04-30T13:42:36.025Z</time></trkpt><trkpt lat="41.9091746" lon="3.8470433"><ele>0.0</ele><time>2026-04-30T13:42:37.026Z</time></trkpt><trkpt lat="41.909213" lon="3.8471527"><ele>0.0</ele><time>2026-04-30T13:42:38.026Z</time></trkpt><trkpt lat="41.9092577" lon="3.8472596"><ele>0.0</ele><time>2026-04-30T13:42:39.025Z</time></trkpt><trkpt lat="41.9092981" lon="3.8473605"><ele>0.0</ele><time>2026-04-30T13:42:40.025Z</time></trkpt><trkpt lat="41.9093426" lon="3.8474674"><ele>0.0</ele><time>2026-04-30T13:42:41.026Z</time></trkpt><trkpt lat="41.9093911" lon="3.8475628"><ele>0.0</ele><time>2026-04-30T13:42:42.026Z</time></trkpt><trkpt lat="41.9094434" lon="3.8476668"><ele>0.0</ele><time>2026-04-30T13:42:43.026Z</time></trkpt><trkpt lat="41.9094894" lon="3.84777"><ele>0.0</ele><time>2026-04-30T13:42:44.026Z</time></trkpt><trkpt lat="41.9095303" lon="3.8478705"><ele>0.0</ele><time>2026-04-30T13:42:45.026Z</time></trkpt><trkpt lat="41.9096218" lon="3.848071"><ele>0.0</ele><time>2026-04-30T13:42:47.025Z</time></trkpt><trkpt lat="41.909659" lon="3.8481792"><ele>0.0</ele><time>2026-04-30T13:42:48.025Z</time></trkpt><trkpt lat="41.9096927" lon="3.8482873"><ele>0.0</ele><time>2026-04-30T13:42:49.025Z</time></trkpt><trkpt lat="41.9097302" lon="3.8483933"><ele>0.0</ele><time>2026-04-30T13:42:50.025Z</time></trkpt><trkpt lat="41.9097682" lon="3.8485001"><ele>0.0</ele><time>2026-04-30T13:42:51.025Z</time></trkpt><trkpt lat="41.9098085" lon="3.8486064"><ele>0.0</ele><time>2026-04-30T13:42:52.026Z</time></trkpt><trkpt lat="41.9098514" lon="3.8487102"><ele>0.0</ele><time>2026-04-30T13:42:53.026Z</time></trkpt><trkpt lat="41.9098902" lon="3.8488123"><ele>0.0</ele><time>2026-04-30T13:42:54.025Z</time></trkpt><trkpt lat="41.9099275" lon="3.8489181"><ele>0.0</ele><time>2026-04-30T13:42:55.025Z</time></trkpt><trkpt lat="41.9099695" lon="3.8490204"><ele>0.0</ele><time>2026-04-30T13:42:56.026Z</time></trkpt><trkpt lat="41.9100099" lon="3.8491235"><ele>0.0</ele><time>2026-04-30T13:42:57.025Z</time></trkpt><trkpt lat="41.9100516" lon="3.8492297"><ele>0.0</ele><time>2026-04-30T13:42:58.025Z</time></trkpt><trkpt lat="41.9100901" lon="3.8493337"><ele>0.0</ele><time>2026-04-30T13:42:59.025Z</time></trkpt><trkpt lat="41.9101302" lon="3.8494327"><ele>0.0</ele><time>2026-04-30T13:43:00.026Z</time></trkpt><trkpt lat="41.910173" lon="3.8495381"><ele>0.0</ele><time>2026-04-30T13:43:01.026Z</time></trkpt><trkpt lat="41.9102165" lon="3.8496359"><ele>0.0</ele><time>2026-04-30T13:43:02.026Z</time></trkpt><trkpt lat="41.9102584" lon="3.8497371"><ele>0.0</ele><time>2026-04-30T13:43:03.026Z</time></trkpt><trkpt lat="41.9102989" lon="3.8498357"><ele>0.0</ele><time>2026-04-30T13:43:04.025Z</time></trkpt><trkpt lat="41.9103349" lon="3.8499385"><ele>0.0</ele><time>2026-04-30T13:43:05.025Z</time></trkpt><trkpt lat="41.9103707" lon="3.8500462"><ele>0.0</ele><time>2026-04-30T13:43:06.026Z</time></trkpt><trkpt lat="41.9104337" lon="3.8502644"><ele>0.0</ele><time>2026-04-30T13:43:08.025Z</time></trkpt><trkpt lat="41.9104701" lon="3.8503744"><ele>0.0</ele><time>2026-04-30T13:43:09.025Z</time></trkpt><trkpt lat="41.9105013" lon="3.8504815"><ele>0.0</ele><time>2026-04-30T13:43:10.025Z</time></trkpt><trkpt lat="41.9105359" lon="3.8505909"><ele>0.0</ele><time>2026-04-30T13:43:11.025Z</time></trkpt><trkpt lat="41.9105704" lon="3.850698"><ele>0.0</ele><time>2026-04-30T13:43:12.025Z</time></trkpt><trkpt lat="41.910617" lon="3.8508003"><ele>0.0</ele><time>2026-04-30T13:43:13.026Z</time></trkpt><trkpt lat="41.9106594" lon="3.8509021"><ele>0.0</ele><time>2026-04-30T13:43:14.025Z</time></trkpt><trkpt lat="41.910697" lon="3.8510114"><ele>0.0</ele><time>2026-04-30T13:43:15.025Z</time></trkpt><trkpt lat="41.9107337" lon="3.8511182"><ele>0.0</ele><time>2026-04-30T13:43:16.026Z</time></trkpt><trkpt lat="41.9107714" lon="3.8512224"><ele>0.0</ele><time>2026-04-30T13:43:17.026Z</time></trkpt><trkpt lat="41.9108082" lon="3.8513294"><ele>0.0</ele><time>2026-04-30T13:43:18.025Z</time></trkpt><trkpt lat="41.9108471" lon="3.8514362"><ele>0.0</ele><time>2026-04-30T13:43:19.025Z</time></trkpt><trkpt lat="41.910888" lon="3.8515457"><ele>0.0</ele><time>2026-04-30T13:43:20.025Z</time></trkpt><trkpt lat="41.9109284" lon="3.8516542"><ele>0.0</ele><time>2026-04-30T13:43:21.026Z</time></trkpt><trkpt lat="41.9109682" lon="3.851757"><ele>0.0</ele><time>2026-04-30T13:43:22.026Z</time></trkpt><trkpt lat="41.9110065" lon="3.8518674"><ele>0.0</ele><time>2026-04-30T13:43:23.025Z</time></trkpt><trkpt lat="41.911048" lon="3.8519691"><ele>0.0</ele><time>2026-04-30T13:43:24.026Z</time></trkpt><trkpt lat="41.9110755" lon="3.8520697"><ele>0.0</ele><time>2026-04-30T13:43:25.025Z</time></trkpt><trkpt lat="41.9111092" lon="3.8521766"><ele>0.0</ele><time>2026-04-30T13:43:26.025Z</time></trkpt><trkpt lat="41.9111414" lon="3.8522831"><ele>0.0</ele><time>2026-04-30T13:43:27.025Z</time></trkpt><trkpt lat="41.9112249" lon="3.8524836"><ele>0.0</ele><time>2026-04-30T13:43:29.025Z</time></trkpt><trkpt lat="41.911268" lon="3.8525883"><ele>0.0</ele><time>2026-04-30T13:43:30.026Z</time></trkpt><trkpt lat="41.9113166" lon="3.8526989"><ele>0.0</ele><time>2026-04-30T13:43:31.026Z</time></trkpt><trkpt lat="41.9113564" lon="3.8528034"><ele>0.0</ele><time>2026-04-30T13:43:32.026Z</time></trkpt><trkpt lat="41.9114009" lon="3.8529099"><ele>0.0</ele><time>2026-04-30T13:43:33.026Z</time></trkpt><trkpt lat="41.9114695" lon="3.8531201"><ele>0.0</ele><time>2026-04-30T13:43:35.026Z</time></trkpt><trkpt lat="41.911514" lon="3.8532248"><ele>0.0</ele><time>2026-04-30T13:43:36.025Z</time></trkpt><trkpt lat="41.9115508" lon="3.8533313"><ele>0.0</ele><time>2026-04-30T13:43:37.025Z</time></trkpt><trkpt lat="41.9115884" lon="3.8534395"><ele>0.0</ele><time>2026-04-30T13:43:38.025Z</time></trkpt><trkpt lat="41.9116238" lon="3.8535436"><ele>0.0</ele><time>2026-04-30T13:43:39.026Z</time></trkpt><trkpt lat="41.911664" lon="3.8536469"><ele>0.0</ele><time>2026-04-30T13:43:40.025Z</time></trkpt><trkpt lat="41.9117069" lon="3.8537505"><ele>0.0</ele><time>2026-04-30T13:43:41.026Z</time></trkpt><trkpt lat="41.9117451" lon="3.8538554"><ele>0.0</ele><time>2026-04-30T13:43:42.026Z</time></trkpt><trkpt lat="41.9117805" lon="3.8539545"><ele>0.0</ele><time>2026-04-30T13:43:43.025Z</time></trkpt><trkpt lat="41.9118154" lon="3.8540616"><ele>0.0</ele><time>2026-04-30T13:43:44.026Z</time></trkpt><trkpt lat="41.9118506" lon="3.8541639"><ele>0.0</ele><time>2026-04-30T13:43:45.026Z</time></trkpt><trkpt lat="41.9118872" lon="3.8542712"><ele>0.0</ele><time>2026-04-30T13:43:46.026Z</time></trkpt><trkpt lat="41.9119283" lon="3.8543778"><ele>0.0</ele><time>2026-04-30T13:43:47.026Z</time></trkpt><trkpt lat="41.9119629" lon="3.8544888"><ele>0.0</ele><time>2026-04-30T13:43:48.025Z</time></trkpt><trkpt lat="41.9120435" lon="3.8547061"><ele>0.0</ele><time>2026-04-30T13:43:50.025Z</time></trkpt><trkpt lat="41.9120718" lon="3.8548186"><ele>0.0</ele><time>2026-04-30T13:43:51.026Z</time></trkpt><trkpt lat="41.912108" lon="3.8549304"><ele>0.0</ele><time>2026-04-30T13:43:52.026Z</time></trkpt><trkpt lat="41.9121455" lon="3.8550325"><ele>0.0</ele><time>2026-04-30T13:43:53.026Z</time></trkpt><trkpt lat="41.912185" lon="3.8551368"><ele>0.0</ele><time>2026-04-30T13:43:54.025Z</time></trkpt><trkpt lat="41.9122235" lon="3.8552401"><ele>0.0</ele><time>2026-04-30T13:43:55.026Z</time></trkpt><trkpt lat="41.9122649" lon="3.8553475"><ele>0.0</ele><time>2026-04-30T13:43:56.026Z</time></trkpt><trkpt lat="41.9123069" lon="3.8554517"><ele>0.0</ele><time>2026-04-30T13:43:57.025Z</time></trkpt><trkpt lat="41.91235" lon="3.8555566"><ele>0.0</ele><time>2026-04-30T13:43:58.026Z</time></trkpt><trkpt lat="41.9123902" lon="3.8556574"><ele>0.0</ele><time>2026-04-30T13:43:59.026Z</time></trkpt><trkpt lat="41.9124304" lon="3.8557559"><ele>0.0</ele><time>2026-04-30T13:44:00.025Z</time></trkpt><trkpt lat="41.9124717" lon="3.8558615"><ele>0.0</ele><time>2026-04-30T13:44:01.025Z</time></trkpt><trkpt lat="41.9125163" lon="3.8559679"><ele>0.0</ele><time>2026-04-30T13:44:02.025Z</time></trkpt><trkpt lat="41.9125621" lon="3.8560722"><ele>0.0</ele><time>2026-04-30T13:44:03.025Z</time></trkpt><trkpt lat="41.9126091" lon="3.8561712"><ele>0.0</ele><time>2026-04-30T13:44:04.026Z</time></trkpt><trkpt lat="41.9126532" lon="3.8562706"><ele>0.0</ele><time>2026-04-30T13:44:05.026Z</time></trkpt><trkpt lat="41.9127455" lon="3.8564732"><ele>0.0</ele><time>2026-04-30T13:44:07.025Z</time></trkpt><trkpt lat="41.9127843" lon="3.856581"><ele>0.0</ele><time>2026-04-30T13:44:08.025Z</time></trkpt><trkpt lat="41.9128165" lon="3.8566868"><ele>0.0</ele><time>2026-04-30T13:44:09.026Z</time></trkpt><trkpt lat="41.9128817" lon="3.8569049"><ele>0.0</ele><time>2026-04-30T13:44:11.025Z</time></trkpt><trkpt lat="41.9129034" lon="3.8570118"><ele>0.0</ele><time>2026-04-30T13:44:12.025Z</time></trkpt><trkpt lat="41.9129241" lon="3.8571183"><ele>0.0</ele><time>2026-04-30T13:44:13.026Z</time></trkpt><trkpt lat="41.912959" lon="3.8572207"><ele>0.0</ele><time>2026-04-30T13:44:14.025Z</time></trkpt><trkpt lat="41.9129897" lon="3.8573294"><ele>0.0</ele><time>2026-04-30T13:44:15.025Z</time></trkpt><trkpt lat="41.9130297" lon="3.8574336"><ele>0.0</ele><time>2026-04-30T13:44:16.025Z</time></trkpt><trkpt lat="41.9130711" lon="3.857534"><ele>0.0</ele><time>2026-04-30T13:44:17.026Z</time></trkpt><trkpt lat="41.9131116" lon="3.8576357"><ele>0.0</ele><time>2026-04-30T13:44:18.025Z</time></trkpt><trkpt lat="41.9131559" lon="3.8577443"><ele>0.0</ele><time>2026-04-30T13:44:19.026Z</time></trkpt><trkpt lat="41.9131967" lon="3.8578482"><ele>0.0</ele><time>2026-04-30T13:44:20.026Z</time></trkpt><trkpt lat="41.9132324" lon="3.857956"><ele>0.0</ele><time>2026-04-30T13:44:21.025Z</time></trkpt><trkpt lat="41.9132703" lon="3.8580657"><ele>0.0</ele><time>2026-04-30T13:44:22.025Z</time></trkpt><trkpt lat="41.9133091" lon="3.8581785"><ele>0.0</ele><time>2026-04-30T13:44:23.026Z</time></trkpt><trkpt lat="41.9133544" lon="3.8582806"><ele>0.0</ele><time>2026-04-30T13:44:24.026Z</time></trkpt><trkpt lat="41.9134014" lon="3.8583832"><ele>0.0</ele><time>2026-04-30T13:44:25.025Z</time></trkpt><trkpt lat="41.9134494" lon="3.8584854"><ele>0.0</ele><time>2026-04-30T13:44:26.024Z</time></trkpt><trkpt lat="41.9135007" lon="3.8585881"><ele>0.0</ele><time>2026-04-30T13:44:27.024Z</time></trkpt><trkpt lat="41.9135553" lon="3.8586913"><ele>0.0</ele><time>2026-04-30T13:44:28.025Z</time></trkpt><trkpt lat="41.9136046" lon="3.8587919"><ele>0.0</ele><time>2026-04-30T13:44:29.024Z</time></trkpt><trkpt lat="41.913643" lon="3.8588949"><ele>0.0</ele><time>2026-04-30T13:44:30.025Z</time></trkpt><trkpt lat="41.913712" lon="3.859107"><ele>0.0</ele><time>2026-04-30T13:44:32.025Z</time></trkpt><trkpt lat="41.9137507" lon="3.8592115"><ele>0.0</ele><time>2026-04-30T13:44:33.025Z</time></trkpt><trkpt lat="41.9137919" lon="3.8593122"><ele>0.0</ele><time>2026-04-30T13:44:34.024Z</time></trkpt><trkpt lat="41.9138278" lon="3.8594168"><ele>0.0</ele><time>2026-04-30T13:44:35.024Z</time></trkpt><trkpt lat="41.9138626" lon="3.8595202"><ele>0.0</ele><time>2026-04-30T13:44:36.025Z</time></trkpt><trkpt lat="41.9139004" lon="3.8596279"><ele>0.0</ele><time>2026-04-30T13:44:37.024Z</time></trkpt><trkpt lat="41.913936" lon="3.8597379"><ele>0.0</ele><time>2026-04-30T13:44:38.025Z</time></trkpt><trkpt lat="41.9139763" lon="3.8598446"><ele>0.0</ele><time>2026-04-30T13:44:39.024Z</time></trkpt><trkpt lat="41.9140165" lon="3.8599512"><ele>0.0</ele><time>2026-04-30T13:44:40.025Z</time></trkpt><trkpt lat="41.9140537" lon="3.8600592"><ele>0.0</ele><time>2026-04-30T13:44:41.024Z</time></trkpt><trkpt lat="41.9140877" lon="3.8601633"><ele>0.0</ele><time>2026-04-30T13:44:42.024Z</time></trkpt><trkpt lat="41.9141254" lon="3.8602712"><ele>0.0</ele><time>2026-04-30T13:44:43.025Z</time></trkpt><trkpt lat="41.9141609" lon="3.8603824"><ele>0.0</ele><time>2026-04-30T13:44:44.025Z</time></trkpt><trkpt lat="41.9141999" lon="3.8604911"><ele>0.0</ele><time>2026-04-30T13:44:45.025Z</time></trkpt><trkpt lat="41.9142343" lon="3.8605952"><ele>0.0</ele><time>2026-04-30T13:44:46.025Z</time></trkpt><trkpt lat="41.9142681" lon="3.8606986"><ele>0.0</ele><time>2026-04-30T13:44:47.025Z</time></trkpt><trkpt lat="41.9143067" lon="3.8608034"><ele>0.0</ele><time>2026-04-30T13:44:48.024Z</time></trkpt><trkpt lat="41.9143426" lon="3.8609109"><ele>0.0</ele><time>2026-04-30T13:44:49.024Z</time></trkpt><trkpt lat="41.914382" lon="3.8610177"><ele>0.0</ele><time>2026-04-30T13:44:50.025Z</time></trkpt><trkpt lat="41.9144207" lon="3.8611228"><ele>0.0</ele><time>2026-04-30T13:44:51.025Z</time></trkpt><trkpt lat="41.9144983" lon="3.8613345"><ele>0.0</ele><time>2026-04-30T13:44:53.024Z</time></trkpt><trkpt lat="41.9145405" lon="3.8614371"><ele>0.0</ele><time>2026-04-30T13:44:54.024Z</time></trkpt><trkpt lat="41.9145761" lon="3.861543"><ele>0.0</ele><time>2026-04-30T13:44:55.024Z</time></trkpt><trkpt lat="41.9146092" lon="3.8616495"><ele>0.0</ele><time>2026-04-30T13:44:56.024Z</time></trkpt><trkpt lat="41.9146436" lon="3.8617561"><ele>0.0</ele><time>2026-04-30T13:44:57.024Z</time></trkpt><trkpt lat="41.91468" lon="3.8618616"><ele>0.0</ele><time>2026-04-30T13:44:58.024Z</time></trkpt><trkpt lat="41.9147168" lon="3.8619654"><ele>0.0</ele><time>2026-04-30T13:44:59.025Z</time></trkpt><trkpt lat="41.9147751" lon="3.8620656"><ele>0.0</ele><time>2026-04-30T13:45:00.025Z</time></trkpt><trkpt lat="41.9148213" lon="3.8621669"><ele>0.0</ele><time>2026-04-30T13:45:01.025Z</time></trkpt><trkpt lat="41.9148621" lon="3.8622686"><ele>0.0</ele><time>2026-04-30T13:45:02.024Z</time></trkpt><trkpt lat="41.9148951" lon="3.8623761"><ele>0.0</ele><time>2026-04-30T13:45:03.024Z</time></trkpt><trkpt lat="41.9149467" lon="3.8624757"><ele>0.0</ele><time>2026-04-30T13:45:04.025Z</time></trkpt><trkpt lat="41.9149841" lon="3.8625797"><ele>0.0</ele><time>2026-04-30T13:45:05.025Z</time></trkpt><trkpt lat="41.9150121" lon="3.862689"><ele>0.0</ele><time>2026-04-30T13:45:06.024Z</time></trkpt><trkpt lat="41.915043" lon="3.8627949"><ele>0.0</ele><time>2026-04-30T13:45:07.024Z</time></trkpt><trkpt lat="41.9150758" lon="3.8628988"><ele>0.0</ele><time>2026-04-30T13:45:08.024Z</time></trkpt><trkpt lat="41.9151486" lon="3.8631115"><ele>0.0</ele><time>2026-04-30T13:45:10.025Z</time></trkpt><trkpt lat="41.9151888" lon="3.8632166"><ele>0.0</ele><time>2026-04-30T13:45:11.024Z</time></trkpt><trkpt lat="41.9152306" lon="3.8633202"><ele>0.0</ele><time>2026-04-30T13:45:12.024Z</time></trkpt><trkpt lat="41.9153124" lon="3.8635321"><ele>0.0</ele><time>2026-04-30T13:45:14.025Z</time></trkpt><trkpt lat="41.9153487" lon="3.8636341"><ele>0.0</ele><time>2026-04-30T13:45:15.025Z</time></trkpt><trkpt lat="41.9153872" lon="3.863737"><ele>0.0</ele><time>2026-04-30T13:45:16.024Z</time></trkpt><trkpt lat="41.9154253" lon="3.8638418"><ele>0.0</ele><time>2026-04-30T13:45:17.024Z</time></trkpt><trkpt lat="41.9154652" lon="3.8639451"><ele>0.0</ele><time>2026-04-30T13:45:18.024Z</time></trkpt><trkpt lat="41.9155039" lon="3.8640411"><ele>0.0</ele><time>2026-04-30T13:45:19.025Z</time></trkpt><trkpt lat="41.9155439" lon="3.8641418"><ele>0.0</ele><time>2026-04-30T13:45:20.024Z</time></trkpt><trkpt lat="41.9155853" lon="3.8642465"><ele>0.0</ele><time>2026-04-30T13:45:21.024Z</time></trkpt><trkpt lat="41.9156265" lon="3.8643546"><ele>0.0</ele><time>2026-04-30T13:45:22.024Z</time></trkpt><trkpt lat="41.9156652" lon="3.8644586"><ele>0.0</ele><time>2026-04-30T13:45:23.024Z</time></trkpt><trkpt lat="41.915702" lon="3.8645621"><ele>0.0</ele><time>2026-04-30T13:45:24.025Z</time></trkpt><trkpt lat="41.9157412" lon="3.8646696"><ele>0.0</ele><time>2026-04-30T13:45:25.025Z</time></trkpt><trkpt lat="41.9157768" lon="3.8647764"><ele>0.0</ele><time>2026-04-30T13:45:26.024Z</time></trkpt><trkpt lat="41.9158114" lon="3.8648863"><ele>0.0</ele><time>2026-04-30T13:45:27.025Z</time></trkpt><trkpt lat="41.9158498" lon="3.8649962"><ele>0.0</ele><time>2026-04-30T13:45:28.025Z</time></trkpt><trkpt lat="41.9158865" lon="3.8651062"><ele>0.0</ele><time>2026-04-30T13:45:29.024Z</time></trkpt><trkpt lat="41.9159231" lon="3.8652063"><ele>0.0</ele><time>2026-04-30T13:45:30.025Z</time></trkpt><trkpt lat="41.9159614" lon="3.8653102"><ele>0.0</ele><time>2026-04-30T13:45:31.025Z</time></trkpt><trkpt lat="41.9160115" lon="3.8654076"><ele>0.0</ele><time>2026-04-30T13:45:32.025Z</time></trkpt><trkpt lat="41.9160588" lon="3.8655086"><ele>0.0</ele><time>2026-04-30T13:45:33.025Z</time></trkpt><trkpt lat="41.9161467" lon="3.8657185"><ele>0.0</ele><time>2026-04-30T13:45:35.025Z</time></trkpt><trkpt lat="41.9161885" lon="3.8658246"><ele>0.0</ele><time>2026-04-30T13:45:36.024Z</time></trkpt><trkpt lat="41.91623" lon="3.8659313"><ele>0.0</ele><time>2026-04-30T13:45:37.024Z</time></trkpt><trkpt lat="41.9162687" lon="3.8660351"><ele>0.0</ele><time>2026-04-30T13:45:38.024Z</time></trkpt><trkpt lat="41.9163024" lon="3.8661326"><ele>0.0</ele><time>2026-04-30T13:45:39.025Z</time></trkpt><trkpt lat="41.9163401" lon="3.8662411"><ele>0.0</ele><time>2026-04-30T13:45:40.024Z</time></trkpt><trkpt lat="41.9163763" lon="3.8663494"><ele>0.0</ele><time>2026-04-30T13:45:41.024Z</time></trkpt><trkpt lat="41.916413" lon="3.8664616"><ele>0.0</ele><time>2026-04-30T13:45:42.024Z</time></trkpt><trkpt lat="41.9164568" lon="3.8665706"><ele>0.0</ele><time>2026-04-30T13:45:43.024Z</time></trkpt><trkpt lat="41.9164973" lon="3.8666746"><ele>0.0</ele><time>2026-04-30T13:45:44.025Z</time></trkpt><trkpt lat="41.9165387" lon="3.8667795"><ele>0.0</ele><time>2026-04-30T13:45:45.025Z</time></trkpt><trkpt lat="41.9165801" lon="3.8668892"><ele>0.0</ele><time>2026-04-30T13:45:46.025Z</time></trkpt><trkpt lat="41.9166216" lon="3.8669946"><ele>0.0</ele><time>2026-04-30T13:45:47.024Z</time></trkpt><trkpt lat="41.91666" lon="3.8671"><ele>0.0</ele><time>2026-04-30T13:45:48.024Z</time></trkpt><trkpt lat="41.9166969" lon="3.8671993"><ele>0.0</ele><time>2026-04-30T13:45:49.025Z</time></trkpt><trkpt lat="41.9167383" lon="3.8673047"><ele>0.0</ele><time>2026-04-30T13:45:50.025Z</time></trkpt><trkpt lat="41.9167862" lon="3.8674109"><ele>0.0</ele><time>2026-04-30T13:45:51.024Z</time></trkpt><trkpt lat="41.9168318" lon="3.8675135"><ele>0.0</ele><time>2026-04-30T13:45:52.025Z</time></trkpt><trkpt lat="41.9168737" lon="3.8676138"><ele>0.0</ele><time>2026-04-30T13:45:53.025Z</time></trkpt><trkpt lat="41.9169169" lon="3.8677124"><ele>0.0</ele><time>2026-04-30T13:45:54.025Z</time></trkpt><trkpt lat="41.9169981" lon="3.8679184"><ele>0.0</ele><time>2026-04-30T13:45:56.025Z</time></trkpt><trkpt lat="41.9170369" lon="3.868022"><ele>0.0</ele><time>2026-04-30T13:45:57.024Z</time></trkpt><trkpt lat="41.917077" lon="3.868124"><ele>0.0</ele><time>2026-04-30T13:45:58.024Z</time></trkpt><trkpt lat="41.9171186" lon="3.8682265"><ele>0.0</ele><time>2026-04-30T13:45:59.025Z</time></trkpt><trkpt lat="41.9171599" lon="3.8683284"><ele>0.0</ele><time>2026-04-30T13:46:00.025Z</time></trkpt><trkpt lat="41.9172001" lon="3.8684317"><ele>0.0</ele><time>2026-04-30T13:46:01.024Z</time></trkpt><trkpt lat="41.9172387" lon="3.8685336"><ele>0.0</ele><time>2026-04-30T13:46:02.024Z</time></trkpt><trkpt lat="41.9172784" lon="3.8686357"><ele>0.0</ele><time>2026-04-30T13:46:03.024Z</time></trkpt><trkpt lat="41.9173169" lon="3.8687385"><ele>0.0</ele><time>2026-04-30T13:46:04.025Z</time></trkpt><trkpt lat="41.9173568" lon="3.8688445"><ele>0.0</ele><time>2026-04-30T13:46:05.024Z</time></trkpt><trkpt lat="41.9173936" lon="3.8689513"><ele>0.0</ele><time>2026-04-30T13:46:06.024Z</time></trkpt><trkpt lat="41.9174333" lon="3.8690579"><ele>0.0</ele><time>2026-04-30T13:46:07.024Z</time></trkpt><trkpt lat="41.9174751" lon="3.8691602"><ele>0.0</ele><time>2026-04-30T13:46:08.025Z</time></trkpt><trkpt lat="41.9175217" lon="3.8692629"><ele>0.0</ele><time>2026-04-30T13:46:09.024Z</time></trkpt><trkpt lat="41.9175672" lon="3.8693647"><ele>0.0</ele><time>2026-04-30T13:46:10.025Z</time></trkpt><trkpt lat="41.9176149" lon="3.8694666"><ele>0.0</ele><time>2026-04-30T13:46:11.025Z</time></trkpt><trkpt lat="41.9176615" lon="3.8695683"><ele>0.0</ele><time>2026-04-30T13:46:12.024Z</time></trkpt><trkpt lat="41.9177051" lon="3.8696716"><ele>0.0</ele><time>2026-04-30T13:46:13.025Z</time></trkpt><trkpt lat="41.9177471" lon="3.8697721"><ele>0.0</ele><time>2026-04-30T13:46:14.025Z</time></trkpt><trkpt lat="41.9177872" lon="3.8698737"><ele>0.0</ele><time>2026-04-30T13:46:15.025Z</time></trkpt><trkpt lat="41.9178606" lon="3.8700907"><ele>0.0</ele><time>2026-04-30T13:46:17.025Z</time></trkpt><trkpt lat="41.9178958" lon="3.8701908"><ele>0.0</ele><time>2026-04-30T13:46:18.024Z</time></trkpt><trkpt lat="41.917935" lon="3.8702965"><ele>0.0</ele><time>2026-04-30T13:46:19.024Z</time></trkpt><trkpt lat="41.9179748" lon="3.8704033"><ele>0.0</ele><time>2026-04-30T13:46:20.024Z</time></trkpt><trkpt lat="41.9180162" lon="3.8705072"><ele>0.0</ele><time>2026-04-30T13:46:21.025Z</time></trkpt><trkpt lat="41.9180594" lon="3.8706088"><ele>0.0</ele><time>2026-04-30T13:46:22.025Z</time></trkpt><trkpt lat="41.9180974" lon="3.8707116"><ele>0.0</ele><time>2026-04-30T13:46:23.025Z</time></trkpt><trkpt lat="41.918137" lon="3.8708136"><ele>0.0</ele><time>2026-04-30T13:46:24.025Z</time></trkpt><trkpt lat="41.9181715" lon="3.8709195"><ele>0.0</ele><time>2026-04-30T13:46:25.025Z</time></trkpt><trkpt lat="41.9182118" lon="3.8710261"><ele>0.0</ele><time>2026-04-30T13:46:26.025Z</time></trkpt><trkpt lat="41.9182566" lon="3.8711313"><ele>0.0</ele><time>2026-04-30T13:46:27.025Z</time></trkpt><trkpt lat="41.918303" lon="3.8712359"><ele>0.0</ele><time>2026-04-30T13:46:28.024Z</time></trkpt><trkpt lat="41.9183529" lon="3.8713449"><ele>0.0</ele><time>2026-04-30T13:46:29.025Z</time></trkpt><trkpt lat="41.9183969" lon="3.8714466"><ele>0.0</ele><time>2026-04-30T13:46:30.025Z</time></trkpt><trkpt lat="41.9184343" lon="3.8715443"><ele>0.0</ele><time>2026-04-30T13:46:31.025Z</time></trkpt><trkpt lat="41.9184708" lon="3.8716441"><ele>0.0</ele><time>2026-04-30T13:46:32.024Z</time></trkpt><trkpt lat="41.9185069" lon="3.8717542"><ele>0.0</ele><time>2026-04-30T13:46:33.024Z</time></trkpt><trkpt lat="41.918538" lon="3.8718684"><ele>0.0</ele><time>2026-04-30T13:46:34.024Z</time></trkpt><trkpt lat="41.9185724" lon="3.8719748"><ele>0.0</ele><time>2026-04-30T13:46:35.025Z</time></trkpt><trkpt lat="41.9186086" lon="3.8720812"><ele>0.0</ele><time>2026-04-30T13:46:36.024Z</time></trkpt><trkpt lat="41.9186855" lon="3.8722874"><ele>0.0</ele><time>2026-04-30T13:46:38.024Z</time></trkpt><trkpt lat="41.9187227" lon="3.8723958"><ele>0.0</ele><time>2026-04-30T13:46:39.025Z</time></trkpt><trkpt lat="41.9187623" lon="3.8724999"><ele>0.0</ele><time>2026-04-30T13:46:40.024Z</time></trkpt><trkpt lat="41.9188047" lon="3.8726046"><ele>0.0</ele><time>2026-04-30T13:46:41.024Z</time></trkpt><trkpt lat="41.9188466" lon="3.8727113"><ele>0.0</ele><time>2026-04-30T13:46:42.025Z</time></trkpt><trkpt lat="41.9188857" lon="3.8728165"><ele>0.0</ele><time>2026-04-30T13:46:43.025Z</time></trkpt><trkpt lat="41.9189271" lon="3.8729202"><ele>0.0</ele><time>2026-04-30T13:46:44.024Z</time></trkpt><trkpt lat="41.9190036" lon="3.8731233"><ele>0.0</ele><time>2026-04-30T13:46:46.024Z</time></trkpt><trkpt lat="41.9190447" lon="3.8732248"><ele>0.0</ele><time>2026-04-30T13:46:47.024Z</time></trkpt><trkpt lat="41.9190881" lon="3.8733269"><ele>0.0</ele><time>2026-04-30T13:46:48.025Z</time></trkpt><trkpt lat="41.9191271" lon="3.8734288"><ele>0.0</ele><time>2026-04-30T13:46:49.025Z</time></trkpt><trkpt lat="41.9191641" lon="3.8735404"><ele>0.0</ele><time>2026-04-30T13:46:50.025Z</time></trkpt><trkpt lat="41.919202" lon="3.8736463"><ele>0.0</ele><time>2026-04-30T13:46:51.024Z</time></trkpt><trkpt lat="41.9192372" lon="3.8737515"><ele>0.0</ele><time>2026-04-30T13:46:52.024Z</time></trkpt><trkpt lat="41.9192722" lon="3.8738579"><ele>0.0</ele><time>2026-04-30T13:46:53.024Z</time></trkpt><trkpt lat="41.9193087" lon="3.8739649"><ele>0.0</ele><time>2026-04-30T13:46:54.025Z</time></trkpt><trkpt lat="41.9193474" lon="3.874067"><ele>0.0</ele><time>2026-04-30T13:46:55.024Z</time></trkpt><trkpt lat="41.919387" lon="3.8741729"><ele>0.0</ele><time>2026-04-30T13:46:56.024Z</time></trkpt><trkpt lat="41.9194271" lon="3.8742767"><ele>0.0</ele><time>2026-04-30T13:46:57.024Z</time></trkpt><trkpt lat="41.9195069" lon="3.8744894"><ele>0.0</ele><time>2026-04-30T13:46:59.025Z</time></trkpt><trkpt lat="41.9195453" lon="3.8745992"><ele>0.0</ele><time>2026-04-30T13:47:00.025Z</time></trkpt><trkpt lat="41.9195847" lon="3.8747118"><ele>0.0</ele><time>2026-04-30T13:47:01.024Z</time></trkpt><trkpt lat="41.9196203" lon="3.874814"><ele>0.0</ele><time>2026-04-30T13:47:02.024Z</time></trkpt><trkpt lat="41.919657" lon="3.8749156"><ele>0.0</ele><time>2026-04-30T13:47:03.024Z</time></trkpt><trkpt lat="41.9196971" lon="3.8750155"><ele>0.0</ele><time>2026-04-30T13:47:04.025Z</time></trkpt><trkpt lat="41.9197367" lon="3.8751214"><ele>0.0</ele><time>2026-04-30T13:47:05.024Z</time></trkpt><trkpt lat="41.9197768" lon="3.8752264"><ele>0.0</ele><time>2026-04-30T13:47:06.024Z</time></trkpt><trkpt lat="41.9198169" lon="3.8753299"><ele>0.0</ele><time>2026-04-30T13:47:07.025Z</time></trkpt><trkpt lat="41.9198571" lon="3.8754319"><ele>0.0</ele><time>2026-04-30T13:47:08.025Z</time></trkpt><trkpt lat="41.9198972" lon="3.8755351"><ele>0.0</ele><time>2026-04-30T13:47:09.024Z</time></trkpt><trkpt lat="41.9199351" lon="3.8756386"><ele>0.0</ele><time>2026-04-30T13:47:10.025Z</time></trkpt><trkpt lat="41.9199733" lon="3.8757462"><ele>0.0</ele><time>2026-04-30T13:47:11.024Z</time></trkpt><trkpt lat="41.9200123" lon="3.8758499"><ele>0.0</ele><time>2026-04-30T13:47:12.025Z</time></trkpt><trkpt lat="41.9200537" lon="3.8759518"><ele>0.0</ele><time>2026-04-30T13:47:13.025Z</time></trkpt><trkpt lat="41.9200868" lon="3.8760594"><ele>0.0</ele><time>2026-04-30T13:47:14.025Z</time></trkpt><trkpt lat="41.9201269" lon="3.8761648"><ele>0.0</ele><time>2026-04-30T13:47:15.025Z</time></trkpt><trkpt lat="41.9201617" lon="3.8762725"><ele>0.0</ele><time>2026-04-30T13:47:16.024Z</time></trkpt><trkpt lat="41.9202427" lon="3.876486"><ele>0.0</ele><time>2026-04-30T13:47:18.024Z</time></trkpt><trkpt lat="41.9203138" lon="3.8767"><ele>0.0</ele><time>2026-04-30T13:47:20.025Z</time></trkpt><trkpt lat="41.920351" lon="3.8768019"><ele>0.0</ele><time>2026-04-30T13:47:21.024Z</time></trkpt><trkpt lat="41.9203905" lon="3.876902"><ele>0.0</ele><time>2026-04-30T13:47:22.024Z</time></trkpt><trkpt lat="41.9204292" lon="3.8770033"><ele>0.0</ele><time>2026-04-30T13:47:23.024Z</time></trkpt><trkpt lat="41.9204719" lon="3.8771021"><ele>0.0</ele><time>2026-04-30T13:47:24.025Z</time></trkpt><trkpt lat="41.9205138" lon="3.8772089"><ele>0.0</ele><time>2026-04-30T13:47:25.025Z</time></trkpt><trkpt lat="41.9205616" lon="3.87731"><ele>0.0</ele><time>2026-04-30T13:47:26.024Z</time></trkpt><trkpt lat="41.9206089" lon="3.8774102"><ele>0.0</ele><time>2026-04-30T13:47:27.025Z</time></trkpt><trkpt lat="41.9206537" lon="3.8775144"><ele>0.0</ele><time>2026-04-30T13:47:28.024Z</time></trkpt><trkpt lat="41.9206954" lon="3.8776181"><ele>0.0</ele><time>2026-04-30T13:47:29.025Z</time></trkpt><trkpt lat="41.9207323" lon="3.8777247"><ele>0.0</ele><time>2026-04-30T13:47:30.024Z</time></trkpt><trkpt lat="41.920769" lon="3.8778358"><ele>0.0</ele><time>2026-04-30T13:47:31.025Z</time></trkpt><trkpt lat="41.9208081" lon="3.8779471"><ele>0.0</ele><time>2026-04-30T13:47:32.024Z</time></trkpt><trkpt lat="41.9208434" lon="3.8780535"><ele>0.0</ele><time>2026-04-30T13:47:33.024Z</time></trkpt><trkpt lat="41.9208803" lon="3.8781557"><ele>0.0</ele><time>2026-04-30T13:47:34.025Z</time></trkpt><trkpt lat="41.920916" lon="3.87826"><ele>0.0</ele><time>2026-04-30T13:47:35.025Z</time></trkpt><trkpt lat="41.9209566" lon="3.8783622"><ele>0.0</ele><time>2026-04-30T13:47:36.024Z</time></trkpt><trkpt lat="41.9209966" lon="3.8784653"><ele>0.0</ele><time>2026-04-30T13:47:37.025Z</time></trkpt><trkpt lat="41.921031" lon="3.8785743"><ele>0.0</ele><time>2026-04-30T13:47:38.024Z</time></trkpt><trkpt lat="41.9210659" lon="3.8786771"><ele>0.0</ele><time>2026-04-30T13:47:39.024Z</time></trkpt><trkpt lat="41.9211526" lon="3.878877"><ele>0.0</ele><time>2026-04-30T13:47:41.025Z</time></trkpt><trkpt lat="41.921192" lon="3.8789801"><ele>0.0</ele><time>2026-04-30T13:47:42.024Z</time></trkpt><trkpt lat="41.9212321" lon="3.8790847"><ele>0.0</ele><time>2026-04-30T13:47:43.025Z</time></trkpt><trkpt lat="41.9212711" lon="3.8791894"><ele>0.0</ele><time>2026-04-30T13:47:44.025Z</time></trkpt><trkpt lat="41.9213139" lon="3.8792903"><ele>0.0</ele><time>2026-04-30T13:47:45.025Z</time></trkpt><trkpt lat="41.9213553" lon="3.8794019"><ele>0.0</ele><time>2026-04-30T13:47:46.025Z</time></trkpt><trkpt lat="41.9213912" lon="3.8795093"><ele>0.0</ele><time>2026-04-30T13:47:47.025Z</time></trkpt><trkpt lat="41.9214316" lon="3.8796163"><ele>0.0</ele><time>2026-04-30T13:47:48.024Z</time></trkpt><trkpt lat="41.9215137" lon="3.8798251"><ele>0.0</ele><time>2026-04-30T13:47:50.024Z</time></trkpt><trkpt lat="41.9215524" lon="3.8799255"><ele>0.0</ele><time>2026-04-30T13:47:51.024Z</time></trkpt><trkpt lat="41.9215906" lon="3.8800272"><ele>0.0</ele><time>2026-04-30T13:47:52.024Z</time></trkpt><trkpt lat="41.921632" lon="3.8801302"><ele>0.0</ele><time>2026-04-30T13:47:53.024Z</time></trkpt><trkpt lat="41.9216735" lon="3.8802348"><ele>0.0</ele><time>2026-04-30T13:47:54.024Z</time></trkpt><trkpt lat="41.9217135" lon="3.8803354"><ele>0.0</ele><time>2026-04-30T13:47:55.024Z</time></trkpt><trkpt lat="41.9217534" lon="3.8804383"><ele>0.0</ele><time>2026-04-30T13:47:56.025Z</time></trkpt><trkpt lat="41.9217935" lon="3.8805474"><ele>0.0</ele><time>2026-04-30T13:47:57.025Z</time></trkpt><trkpt lat="41.9218259" lon="3.8806507"><ele>0.0</ele><time>2026-04-30T13:47:58.024Z</time></trkpt><trkpt lat="41.9218588" lon="3.8807569"><ele>0.0</ele><time>2026-04-30T13:47:59.025Z</time></trkpt><trkpt lat="41.9219007" lon="3.8808618"><ele>0.0</ele><time>2026-04-30T13:48:00.024Z</time></trkpt><trkpt lat="41.9219905" lon="3.881073"><ele>0.0</ele><time>2026-04-30T13:48:02.025Z</time></trkpt><trkpt lat="41.9220302" lon="3.8811738"><ele>0.0</ele><time>2026-04-30T13:48:03.025Z</time></trkpt><trkpt lat="41.9220685" lon="3.8812769"><ele>0.0</ele><time>2026-04-30T13:48:04.025Z</time></trkpt><trkpt lat="41.9221085" lon="3.8813844"><ele>0.0</ele><time>2026-04-30T13:48:05.025Z</time></trkpt><trkpt lat="41.9221429" lon="3.8814926"><ele>0.0</ele><time>2026-04-30T13:48:06.025Z</time></trkpt><trkpt lat="41.922175" lon="3.8816011"><ele>0.0</ele><time>2026-04-30T13:48:07.024Z</time></trkpt><trkpt lat="41.9222077" lon="3.8817109"><ele>0.0</ele><time>2026-04-30T13:48:08.024Z</time></trkpt><trkpt lat="41.9222452" lon="3.8818194"><ele>0.0</ele><time>2026-04-30T13:48:09.024Z</time></trkpt><trkpt lat="41.9222835" lon="3.8819206"><ele>0.0</ele><time>2026-04-30T13:48:10.024Z</time></trkpt><trkpt lat="41.9223266" lon="3.8820249"><ele>0.0</ele><time>2026-04-30T13:48:11.025Z</time></trkpt><trkpt lat="41.9223671" lon="3.882124"><ele>0.0</ele><time>2026-04-30T13:48:12.024Z</time></trkpt><trkpt lat="41.922408" lon="3.8822268"><ele>0.0</ele><time>2026-04-30T13:48:13.024Z</time></trkpt><trkpt lat="41.9224511" lon="3.8823317"><ele>0.0</ele><time>2026-04-30T13:48:14.024Z</time></trkpt><trkpt lat="41.9224916" lon="3.882431"><ele>0.0</ele><time>2026-04-30T13:48:15.025Z</time></trkpt><trkpt lat="41.92253" lon="3.8825352"><ele>0.0</ele><time>2026-04-30T13:48:16.024Z</time></trkpt><trkpt lat="41.9225627" lon="3.8826358"><ele>0.0</ele><time>2026-04-30T13:48:17.024Z</time></trkpt><trkpt lat="41.9226001" lon="3.88274"><ele>0.0</ele><time>2026-04-30T13:48:18.024Z</time></trkpt><trkpt lat="41.9226401" lon="3.8828433"><ele>0.0</ele><time>2026-04-30T13:48:19.024Z</time></trkpt><trkpt lat="41.922683" lon="3.8829495"><ele>0.0</ele><time>2026-04-30T13:48:20.024Z</time></trkpt><trkpt lat="41.9227679" lon="3.8831645"><ele>0.0</ele><time>2026-04-30T13:48:22.024Z</time></trkpt><trkpt lat="41.9228452" lon="3.8833718"><ele>0.0</ele><time>2026-04-30T13:48:24.025Z</time></trkpt><trkpt lat="41.9228833" lon="3.8834753"><ele>0.0</ele><time>2026-04-30T13:48:25.025Z</time></trkpt><trkpt lat="41.9229219" lon="3.8835773"><ele>0.0</ele><time>2026-04-30T13:48:26.024Z</time></trkpt><trkpt lat="41.9229584" lon="3.8836863"><ele>0.0</ele><time>2026-04-30T13:48:27.025Z</time></trkpt><trkpt lat="41.9229967" lon="3.883796"><ele>0.0</ele><time>2026-04-30T13:48:28.025Z</time></trkpt><trkpt lat="41.9230318" lon="3.8838991"><ele>0.0</ele><time>2026-04-30T13:48:29.025Z</time></trkpt><trkpt lat="41.9230702" lon="3.8840006"><ele>0.0</ele><time>2026-04-30T13:48:30.024Z</time></trkpt><trkpt lat="41.9231116" lon="3.8841077"><ele>0.0</ele><time>2026-04-30T13:48:31.024Z</time></trkpt><trkpt lat="41.9231532" lon="3.8842088"><ele>0.0</ele><time>2026-04-30T13:48:32.024Z</time></trkpt><trkpt lat="41.9231963" lon="3.8843132"><ele>0.0</ele><time>2026-04-30T13:48:33.024Z</time></trkpt><trkpt lat="41.9232398" lon="3.8844167"><ele>0.0</ele><time>2026-04-30T13:48:34.025Z</time></trkpt><trkpt lat="41.92328" lon="3.8845245"><ele>0.0</ele><time>2026-04-30T13:48:35.024Z</time></trkpt><trkpt lat="41.9233218" lon="3.8846311"><ele>0.0</ele><time>2026-04-30T13:48:36.024Z</time></trkpt><trkpt lat="41.923365" lon="3.8847366"><ele>0.0</ele><time>2026-04-30T13:48:37.025Z</time></trkpt><trkpt lat="41.9234087" lon="3.8848371"><ele>0.0</ele><time>2026-04-30T13:48:38.024Z</time></trkpt><trkpt lat="41.9234535" lon="3.8849414"><ele>0.0</ele><time>2026-04-30T13:48:39.023Z</time></trkpt><trkpt lat="41.9234939" lon="3.8850433"><ele>0.0</ele><time>2026-04-30T13:48:40.024Z</time></trkpt><trkpt lat="41.9235251" lon="3.8851496"><ele>0.0</ele><time>2026-04-30T13:48:41.023Z</time></trkpt><trkpt lat="41.9235606" lon="3.8852565"><ele>0.0</ele><time>2026-04-30T13:48:42.024Z</time></trkpt><trkpt lat="41.9235984" lon="3.8853632"><ele>0.0</ele><time>2026-04-30T13:48:43.023Z</time></trkpt><trkpt lat="41.92368" lon="3.8855748"><ele>0.0</ele><time>2026-04-30T13:48:45.023Z</time></trkpt><trkpt lat="41.9237107" lon="3.8856811"><ele>0.0</ele><time>2026-04-30T13:48:46.024Z</time></trkpt><trkpt lat="41.9237462" lon="3.8857863"><ele>0.0</ele><time>2026-04-30T13:48:47.023Z</time></trkpt><trkpt lat="41.9237797" lon="3.8858915"><ele>0.0</ele><time>2026-04-30T13:48:48.024Z</time></trkpt><trkpt lat="41.9238143" lon="3.8859952"><ele>0.0</ele><time>2026-04-30T13:48:49.024Z</time></trkpt><trkpt lat="41.9238565" lon="3.8860998"><ele>0.0</ele><time>2026-04-30T13:48:50.024Z</time></trkpt><trkpt lat="41.9238939" lon="3.8862076"><ele>0.0</ele><time>2026-04-30T13:48:51.024Z</time></trkpt><trkpt lat="41.9239293" lon="3.8863144"><ele>0.0</ele><time>2026-04-30T13:48:52.023Z</time></trkpt><trkpt lat="41.924009" lon="3.8865137"><ele>0.0</ele><time>2026-04-30T13:48:54.023Z</time></trkpt><trkpt lat="41.9240534" lon="3.8866164"><ele>0.0</ele><time>2026-04-30T13:48:55.023Z</time></trkpt><trkpt lat="41.9240929" lon="3.8867194"><ele>0.0</ele><time>2026-04-30T13:48:56.023Z</time></trkpt><trkpt lat="41.9241353" lon="3.8868259"><ele>0.0</ele><time>2026-04-30T13:48:57.023Z</time></trkpt><trkpt lat="41.9241771" lon="3.8869269"><ele>0.0</ele><time>2026-04-30T13:48:58.024Z</time></trkpt><trkpt lat="41.9242171" lon="3.8870286"><ele>0.0</ele><time>2026-04-30T13:48:59.024Z</time></trkpt><trkpt lat="41.9242567" lon="3.8871345"><ele>0.0</ele><time>2026-04-30T13:49:00.024Z</time></trkpt><trkpt lat="41.9243037" lon="3.8872441"><ele>0.0</ele><time>2026-04-30T13:49:01.024Z</time></trkpt><trkpt lat="41.9243507" lon="3.8873442"><ele>0.0</ele><time>2026-04-30T13:49:02.024Z</time></trkpt><trkpt lat="41.9243984" lon="3.8874437"><ele>0.0</ele><time>2026-04-30T13:49:03.023Z</time></trkpt><trkpt lat="41.9244417" lon="3.8875479"><ele>0.0</ele><time>2026-04-30T13:49:04.023Z</time></trkpt><trkpt lat="41.9245203" lon="3.8877598"><ele>0.0</ele><time>2026-04-30T13:49:06.023Z</time></trkpt><trkpt lat="41.9245601" lon="3.8878652"><ele>0.0</ele><time>2026-04-30T13:49:07.023Z</time></trkpt><trkpt lat="41.9245968" lon="3.8879717"><ele>0.0</ele><time>2026-04-30T13:49:08.023Z</time></trkpt><trkpt lat="41.9246352" lon="3.8880753"><ele>0.0</ele><time>2026-04-30T13:49:09.023Z</time></trkpt><trkpt lat="41.9246751" lon="3.8881769"><ele>0.0</ele><time>2026-04-30T13:49:10.023Z</time></trkpt><trkpt lat="41.9247167" lon="3.8882816"><ele>0.0</ele><time>2026-04-30T13:49:11.023Z</time></trkpt><trkpt lat="41.9247569" lon="3.8883879"><ele>0.0</ele><time>2026-04-30T13:49:12.024Z</time></trkpt><trkpt lat="41.9247937" lon="3.8884916"><ele>0.0</ele><time>2026-04-30T13:49:13.023Z</time></trkpt><trkpt lat="41.9248333" lon="3.8885994"><ele>0.0</ele><time>2026-04-30T13:49:14.023Z</time></trkpt><trkpt lat="41.9248768" lon="3.8887061"><ele>0.0</ele><time>2026-04-30T13:49:15.023Z</time></trkpt><trkpt lat="41.9249216" lon="3.8888084"><ele>0.0</ele><time>2026-04-30T13:49:16.023Z</time></trkpt><trkpt lat="41.9249668" lon="3.8889128"><ele>0.0</ele><time>2026-04-30T13:49:17.023Z</time></trkpt><trkpt lat="41.9250089" lon="3.8890135"><ele>0.0</ele><time>2026-04-30T13:49:18.024Z</time></trkpt><trkpt lat="41.9250422" lon="3.889122"><ele>0.0</ele><time>2026-04-30T13:49:19.024Z</time></trkpt><trkpt lat="41.9250765" lon="3.889232"><ele>0.0</ele><time>2026-04-30T13:49:20.024Z</time></trkpt><trkpt lat="41.9251131" lon="3.8893393"><ele>0.0</ele><time>2026-04-30T13:49:21.024Z</time></trkpt><trkpt lat="41.9251481" lon="3.8894432"><ele>0.0</ele><time>2026-04-30T13:49:22.023Z</time></trkpt><trkpt lat="41.9251814" lon="3.8895468"><ele>0.0</ele><time>2026-04-30T13:49:23.023Z</time></trkpt><trkpt lat="41.925221" lon="3.8896506"><ele>0.0</ele><time>2026-04-30T13:49:24.024Z</time></trkpt><trkpt lat="41.9253405" lon="3.889965"><ele>0.0</ele><time>2026-04-30T13:49:27.024Z</time></trkpt><trkpt lat="41.9253811" lon="3.8900704"><ele>0.0</ele><time>2026-04-30T13:49:28.023Z</time></trkpt><trkpt lat="41.9254284" lon="3.8901723"><ele>0.0</ele><time>2026-04-30T13:49:29.023Z</time></trkpt><trkpt lat="41.9254739" lon="3.8902781"><ele>0.0</ele><time>2026-04-30T13:49:30.023Z</time></trkpt><trkpt lat="41.9255188" lon="3.8903806"><ele>0.0</ele><time>2026-04-30T13:49:31.024Z</time></trkpt><trkpt lat="41.9255598" lon="3.8904836"><ele>0.0</ele><time>2026-04-30T13:49:32.023Z</time></trkpt><trkpt lat="41.9255987" lon="3.8905867"><ele>0.0</ele><time>2026-04-30T13:49:33.023Z</time></trkpt><trkpt lat="41.92564" lon="3.890686"><ele>0.0</ele><time>2026-04-30T13:49:34.023Z</time></trkpt><trkpt lat="41.9256862" lon="3.8907873"><ele>0.0</ele><time>2026-04-30T13:49:35.024Z</time></trkpt><trkpt lat="41.9257298" lon="3.8908859"><ele>0.0</ele><time>2026-04-30T13:49:36.023Z</time></trkpt><trkpt lat="41.9257774" lon="3.8909885"><ele>0.0</ele><time>2026-04-30T13:49:37.023Z</time></trkpt><trkpt lat="41.9258211" lon="3.8910907"><ele>0.0</ele><time>2026-04-30T13:49:38.024Z</time></trkpt><trkpt lat="41.9258685" lon="3.8911939"><ele>0.0</ele><time>2026-04-30T13:49:39.024Z</time></trkpt><trkpt lat="41.9259083" lon="3.8912985"><ele>0.0</ele><time>2026-04-30T13:49:40.024Z</time></trkpt><trkpt lat="41.9259493" lon="3.8914049"><ele>0.0</ele><time>2026-04-30T13:49:41.024Z</time></trkpt><trkpt lat="41.925988" lon="3.8915131"><ele>0.0</ele><time>2026-04-30T13:49:42.023Z</time></trkpt><trkpt lat="41.9260261" lon="3.8916189"><ele>0.0</ele><time>2026-04-30T13:49:43.024Z</time></trkpt><trkpt lat="41.9260594" lon="3.891722"><ele>0.0</ele><time>2026-04-30T13:49:44.024Z</time></trkpt><trkpt lat="41.9260908" lon="3.8918271"><ele>0.0</ele><time>2026-04-30T13:49:45.023Z</time></trkpt><trkpt lat="41.9261193" lon="3.8919463"><ele>0.0</ele><time>2026-04-30T13:49:46.023Z</time></trkpt><trkpt lat="41.9261738" lon="3.8921636"><ele>0.0</ele><time>2026-04-30T13:49:48.023Z</time></trkpt><trkpt lat="41.926206" lon="3.8922674"><ele>0.0</ele><time>2026-04-30T13:49:49.023Z</time></trkpt><trkpt lat="41.9262494" lon="3.8923662"><ele>0.0</ele><time>2026-04-30T13:49:50.023Z</time></trkpt><trkpt lat="41.9262949" lon="3.8924668"><ele>0.0</ele><time>2026-04-30T13:49:51.023Z</time></trkpt><trkpt lat="41.9263401" lon="3.8925713"><ele>0.0</ele><time>2026-04-30T13:49:52.024Z</time></trkpt><trkpt lat="41.9263813" lon="3.8926787"><ele>0.0</ele><time>2026-04-30T13:49:53.024Z</time></trkpt><trkpt lat="41.9264256" lon="3.8927772"><ele>0.0</ele><time>2026-04-30T13:49:54.024Z</time></trkpt><trkpt lat="41.9264755" lon="3.8928765"><ele>0.0</ele><time>2026-04-30T13:49:55.023Z</time></trkpt><trkpt lat="41.9265236" lon="3.8929793"><ele>0.0</ele><time>2026-04-30T13:49:56.023Z</time></trkpt><trkpt lat="41.9266164" lon="3.8931933"><ele>0.0</ele><time>2026-04-30T13:49:58.024Z</time></trkpt><trkpt lat="41.926652" lon="3.8932948"><ele>0.0</ele><time>2026-04-30T13:49:59.024Z</time></trkpt><trkpt lat="41.926688" lon="3.8934008"><ele>0.0</ele><time>2026-04-30T13:50:00.023Z</time></trkpt><trkpt lat="41.9267254" lon="3.8935063"><ele>0.0</ele><time>2026-04-30T13:50:01.024Z</time></trkpt><trkpt lat="41.926765" lon="3.893613"><ele>0.0</ele><time>2026-04-30T13:50:02.023Z</time></trkpt><trkpt lat="41.9268068" lon="3.8937227"><ele>0.0</ele><time>2026-04-30T13:50:03.024Z</time></trkpt><trkpt lat="41.926844" lon="3.8938268"><ele>0.0</ele><time>2026-04-30T13:50:04.023Z</time></trkpt><trkpt lat="41.926872" lon="3.8939349"><ele>0.0</ele><time>2026-04-30T13:50:05.024Z</time></trkpt><trkpt lat="41.9269054" lon="3.8940432"><ele>0.0</ele><time>2026-04-30T13:50:06.023Z</time></trkpt><trkpt lat="41.9269429" lon="3.8941473"><ele>0.0</ele><time>2026-04-30T13:50:07.024Z</time></trkpt><trkpt lat="41.9270175" lon="3.8943593"><ele>0.0</ele><time>2026-04-30T13:50:09.023Z</time></trkpt><trkpt lat="41.9270545" lon="3.8944654"><ele>0.0</ele><time>2026-04-30T13:50:10.023Z</time></trkpt><trkpt lat="41.927087" lon="3.8945691"><ele>0.0</ele><time>2026-04-30T13:50:11.023Z</time></trkpt><trkpt lat="41.9271272" lon="3.8946711"><ele>0.0</ele><time>2026-04-30T13:50:12.023Z</time></trkpt><trkpt lat="41.9271687" lon="3.8947714"><ele>0.0</ele><time>2026-04-30T13:50:13.023Z</time></trkpt><trkpt lat="41.9272061" lon="3.8948785"><ele>0.0</ele><time>2026-04-30T13:50:14.023Z</time></trkpt><trkpt lat="41.9272447" lon="3.8949822"><ele>0.0</ele><time>2026-04-30T13:50:15.023Z</time></trkpt><trkpt lat="41.9272806" lon="3.895085"><ele>0.0</ele><time>2026-04-30T13:50:16.023Z</time></trkpt><trkpt lat="41.9273176" lon="3.8951869"><ele>0.0</ele><time>2026-04-30T13:50:17.024Z</time></trkpt><trkpt lat="41.9273557" lon="3.895294"><ele>0.0</ele><time>2026-04-30T13:50:18.024Z</time></trkpt><trkpt lat="41.9273998" lon="3.8953996"><ele>0.0</ele><time>2026-04-30T13:50:19.024Z</time></trkpt><trkpt lat="41.9274481" lon="3.8955031"><ele>0.0</ele><time>2026-04-30T13:50:20.024Z</time></trkpt><trkpt lat="41.9274964" lon="3.8956075"><ele>0.0</ele><time>2026-04-30T13:50:21.023Z</time></trkpt><trkpt lat="41.9275376" lon="3.8957153"><ele>0.0</ele><time>2026-04-30T13:50:22.024Z</time></trkpt><trkpt lat="41.9275778" lon="3.8958178"><ele>0.0</ele><time>2026-04-30T13:50:23.023Z</time></trkpt><trkpt lat="41.9276165" lon="3.8959226"><ele>0.0</ele><time>2026-04-30T13:50:24.023Z</time></trkpt><trkpt lat="41.927653" lon="3.8960277"><ele>0.0</ele><time>2026-04-30T13:50:25.023Z</time></trkpt><trkpt lat="41.9276939" lon="3.8961328"><ele>0.0</ele><time>2026-04-30T13:50:26.024Z</time></trkpt><trkpt lat="41.9277343" lon="3.8962364"><ele>0.0</ele><time>2026-04-30T13:50:27.024Z</time></trkpt><trkpt lat="41.9277787" lon="3.8963368"><ele>0.0</ele><time>2026-04-30T13:50:28.024Z</time></trkpt><trkpt lat="41.9278945" lon="3.8966469"><ele>0.0</ele><time>2026-04-30T13:50:31.024Z</time></trkpt><trkpt lat="41.9279323" lon="3.8967529"><ele>0.0</ele><time>2026-04-30T13:50:32.023Z</time></trkpt><trkpt lat="41.9279688" lon="3.8968587"><ele>0.0</ele><time>2026-04-30T13:50:33.024Z</time></trkpt><trkpt lat="41.9280022" lon="3.8969625"><ele>0.0</ele><time>2026-04-30T13:50:34.024Z</time></trkpt><trkpt lat="41.9280449" lon="3.897066"><ele>0.0</ele><time>2026-04-30T13:50:35.023Z</time></trkpt><trkpt lat="41.9280823" lon="3.8971689"><ele>0.0</ele><time>2026-04-30T13:50:36.023Z</time></trkpt><trkpt lat="41.9281133" lon="3.8972753"><ele>0.0</ele><time>2026-04-30T13:50:37.023Z</time></trkpt><trkpt lat="41.9281567" lon="3.8973802"><ele>0.0</ele><time>2026-04-30T13:50:38.023Z</time></trkpt><trkpt lat="41.928192" lon="3.8974825"><ele>0.0</ele><time>2026-04-30T13:50:39.024Z</time></trkpt><trkpt lat="41.9282326" lon="3.8975925"><ele>0.0</ele><time>2026-04-30T13:50:40.024Z</time></trkpt><trkpt lat="41.9282716" lon="3.8977013"><ele>0.0</ele><time>2026-04-30T13:50:41.024Z</time></trkpt><trkpt lat="41.9283128" lon="3.8978026"><ele>0.0</ele><time>2026-04-30T13:50:42.023Z</time></trkpt><trkpt lat="41.9283565" lon="3.8979052"><ele>0.0</ele><time>2026-04-30T13:50:43.023Z</time></trkpt><trkpt lat="41.9284017" lon="3.8980109"><ele>0.0</ele><time>2026-04-30T13:50:44.023Z</time></trkpt><trkpt lat="41.9284467" lon="3.8981145"><ele>0.0</ele><time>2026-04-30T13:50:45.023Z</time></trkpt><trkpt lat="41.9284902" lon="3.8982163"><ele>0.0</ele><time>2026-04-30T13:50:46.023Z</time></trkpt><trkpt lat="41.9285353" lon="3.8983181"><ele>0.0</ele><time>2026-04-30T13:50:47.023Z</time></trkpt><trkpt lat="41.9285787" lon="3.8984215"><ele>0.0</ele><time>2026-04-30T13:50:48.024Z</time></trkpt><trkpt lat="41.9286202" lon="3.898522"><ele>0.0</ele><time>2026-04-30T13:50:49.023Z</time></trkpt><trkpt lat="41.9286651" lon="3.8986249"><ele>0.0</ele><time>2026-04-30T13:50:50.024Z</time></trkpt><trkpt lat="41.9287489" lon="3.8988314"><ele>0.0</ele><time>2026-04-30T13:50:52.024Z</time></trkpt><trkpt lat="41.9287921" lon="3.8989333"><ele>0.0</ele><time>2026-04-30T13:50:53.023Z</time></trkpt><trkpt lat="41.9288324" lon="3.8990379"><ele>0.0</ele><time>2026-04-30T13:50:54.023Z</time></trkpt><trkpt lat="41.9288687" lon="3.8991434"><ele>0.0</ele><time>2026-04-30T13:50:55.024Z</time></trkpt><trkpt lat="41.9289023" lon="3.8992527"><ele>0.0</ele><time>2026-04-30T13:50:56.023Z</time></trkpt><trkpt lat="41.9289352" lon="3.8993614"><ele>0.0</ele><time>2026-04-30T13:50:57.023Z</time></trkpt><trkpt lat="41.9289682" lon="3.8994713"><ele>0.0</ele><time>2026-04-30T13:50:58.023Z</time></trkpt><trkpt lat="41.9290003" lon="3.8995798"><ele>0.0</ele><time>2026-04-30T13:50:59.024Z</time></trkpt><trkpt lat="41.9290334" lon="3.8996839"><ele>0.0</ele><time>2026-04-30T13:51:00.023Z</time></trkpt><trkpt lat="41.9291068" lon="3.8998969"><ele>0.0</ele><time>2026-04-30T13:51:02.023Z</time></trkpt><trkpt lat="41.9291416" lon="3.9000049"><ele>0.0</ele><time>2026-04-30T13:51:03.024Z</time></trkpt><trkpt lat="41.9291781" lon="3.900113"><ele>0.0</ele><time>2026-04-30T13:51:04.023Z</time></trkpt><trkpt lat="41.9292152" lon="3.9002183"><ele>0.0</ele><time>2026-04-30T13:51:05.023Z</time></trkpt><trkpt lat="41.9292507" lon="3.900321"><ele>0.0</ele><time>2026-04-30T13:51:06.023Z</time></trkpt><trkpt lat="41.9292852" lon="3.9004269"><ele>0.0</ele><time>2026-04-30T13:51:07.024Z</time></trkpt><trkpt lat="41.9293173" lon="3.9005292"><ele>0.0</ele><time>2026-04-30T13:51:08.024Z</time></trkpt><trkpt lat="41.9293516" lon="3.9006366"><ele>0.0</ele><time>2026-04-30T13:51:09.024Z</time></trkpt><trkpt lat="41.9293851" lon="3.9007463"><ele>0.0</ele><time>2026-04-30T13:51:10.023Z</time></trkpt><trkpt lat="41.9294186" lon="3.9008519"><ele>0.0</ele><time>2026-04-30T13:51:11.023Z</time></trkpt><trkpt lat="41.929492" lon="3.9010573"><ele>0.0</ele><time>2026-04-30T13:51:13.023Z</time></trkpt><trkpt lat="41.9295305" lon="3.9011616"><ele>0.0</ele><time>2026-04-30T13:51:14.023Z</time></trkpt><trkpt lat="41.9295701" lon="3.901268"><ele>0.0</ele><time>2026-04-30T13:51:15.023Z</time></trkpt><trkpt lat="41.9296116" lon="3.9013703"><ele>0.0</ele><time>2026-04-30T13:51:16.024Z</time></trkpt><trkpt lat="41.9296601" lon="3.901482"><ele>0.0</ele><time>2026-04-30T13:51:17.023Z</time></trkpt><trkpt lat="41.9297133" lon="3.9015808"><ele>0.0</ele><time>2026-04-30T13:51:18.023Z</time></trkpt><trkpt lat="41.9297547" lon="3.901678"><ele>0.0</ele><time>2026-04-30T13:51:19.024Z</time></trkpt><trkpt lat="41.9297963" lon="3.9017804"><ele>0.0</ele><time>2026-04-30T13:51:20.024Z</time></trkpt><trkpt lat="41.9298424" lon="3.9018892"><ele>0.0</ele><time>2026-04-30T13:51:21.024Z</time></trkpt><trkpt lat="41.9298862" lon="3.9019976"><ele>0.0</ele><time>2026-04-30T13:51:22.023Z</time></trkpt><trkpt lat="41.9299284" lon="3.9021002"><ele>0.0</ele><time>2026-04-30T13:51:23.024Z</time></trkpt><trkpt lat="41.9299684" lon="3.9022024"><ele>0.0</ele><time>2026-04-30T13:51:24.023Z</time></trkpt><trkpt lat="41.9300083" lon="3.9023069"><ele>0.0</ele><time>2026-04-30T13:51:25.024Z</time></trkpt><trkpt lat="41.9300481" lon="3.9024147"><ele>0.0</ele><time>2026-04-30T13:51:26.024Z</time></trkpt><trkpt lat="41.9300884" lon="3.9025184"><ele>0.0</ele><time>2026-04-30T13:51:27.023Z</time></trkpt><trkpt lat="41.9301299" lon="3.9026232"><ele>0.0</ele><time>2026-04-30T13:51:28.024Z</time></trkpt><trkpt lat="41.9301698" lon="3.9027285"><ele>0.0</ele><time>2026-04-30T13:51:29.024Z</time></trkpt><trkpt lat="41.9302083" lon="3.9028292"><ele>0.0</ele><time>2026-04-30T13:51:30.023Z</time></trkpt><trkpt lat="41.9302481" lon="3.9029308"><ele>0.0</ele><time>2026-04-30T13:51:31.023Z</time></trkpt><trkpt lat="41.9302883" lon="3.9030311"><ele>0.0</ele><time>2026-04-30T13:51:32.023Z</time></trkpt><trkpt lat="41.9303327" lon="3.9031351"><ele>0.0</ele><time>2026-04-30T13:51:33.023Z</time></trkpt><trkpt lat="41.930413" lon="3.9033449"><ele>0.0</ele><time>2026-04-30T13:51:35.023Z</time></trkpt><trkpt lat="41.9304529" lon="3.9034499"><ele>0.0</ele><time>2026-04-30T13:51:36.023Z</time></trkpt><trkpt lat="41.9305014" lon="3.903548"><ele>0.0</ele><time>2026-04-30T13:51:37.023Z</time></trkpt><trkpt lat="41.9305446" lon="3.9036517"><ele>0.0</ele><time>2026-04-30T13:51:38.024Z</time></trkpt><trkpt lat="41.9305849" lon="3.9037537"><ele>0.0</ele><time>2026-04-30T13:51:39.024Z</time></trkpt><trkpt lat="41.9306246" lon="3.9038597"><ele>0.0</ele><time>2026-04-30T13:51:40.023Z</time></trkpt><trkpt lat="41.9306613" lon="3.9039668"><ele>0.0</ele><time>2026-04-30T13:51:41.023Z</time></trkpt><trkpt lat="41.930695" lon="3.9040691"><ele>0.0</ele><time>2026-04-30T13:51:42.023Z</time></trkpt><trkpt lat="41.930733" lon="3.9041663"><ele>0.0</ele><time>2026-04-30T13:51:43.023Z</time></trkpt><trkpt lat="41.9307744" lon="3.9042745"><ele>0.0</ele><time>2026-04-30T13:51:44.023Z</time></trkpt><trkpt lat="41.9308163" lon="3.9043783"><ele>0.0</ele><time>2026-04-30T13:51:45.023Z</time></trkpt><trkpt lat="41.9308614" lon="3.9044787"><ele>0.0</ele><time>2026-04-30T13:51:46.024Z</time></trkpt><trkpt lat="41.9309046" lon="3.9045831"><ele>0.0</ele><time>2026-04-30T13:51:47.023Z</time></trkpt><trkpt lat="41.9309525" lon="3.9046892"><ele>0.0</ele><time>2026-04-30T13:51:48.024Z</time></trkpt><trkpt lat="41.9309974" lon="3.9047962"><ele>0.0</ele><time>2026-04-30T13:51:49.023Z</time></trkpt><trkpt lat="41.9310395" lon="3.9048986"><ele>0.0</ele><time>2026-04-30T13:51:50.024Z</time></trkpt><trkpt lat="41.9310861" lon="3.905"><ele>0.0</ele><time>2026-04-30T13:51:51.024Z</time></trkpt><trkpt lat="41.9311297" lon="3.9051023"><ele>0.0</ele><time>2026-04-30T13:51:52.023Z</time></trkpt><trkpt lat="41.9311758" lon="3.9051996"><ele>0.0</ele><time>2026-04-30T13:51:53.023Z</time></trkpt><trkpt lat="41.9312263" lon="3.9053005"><ele>0.0</ele><time>2026-04-30T13:51:54.023Z</time></trkpt><trkpt lat="41.9313052" lon="3.90551"><ele>0.0</ele><time>2026-04-30T13:51:56.024Z</time></trkpt><trkpt lat="41.9313445" lon="3.9056123"><ele>0.0</ele><time>2026-04-30T13:51:57.024Z</time></trkpt><trkpt lat="41.9313846" lon="3.9057126"><ele>0.0</ele><time>2026-04-30T13:51:58.023Z</time></trkpt><trkpt lat="41.9314216" lon="3.9058168"><ele>0.0</ele><time>2026-04-30T13:51:59.024Z</time></trkpt><trkpt lat="41.9314599" lon="3.9059217"><ele>0.0</ele><time>2026-04-30T13:52:00.023Z</time></trkpt><trkpt lat="41.9315027" lon="3.9060266"><ele>0.0</ele><time>2026-04-30T13:52:01.023Z</time></trkpt><trkpt lat="41.9315418" lon="3.9061216"><ele>0.0</ele><time>2026-04-30T13:52:02.024Z</time></trkpt><trkpt lat="41.9315818" lon="3.906225"><ele>0.0</ele><time>2026-04-30T13:52:03.023Z</time></trkpt><trkpt lat="41.931616" lon="3.9063314"><ele>0.0</ele><time>2026-04-30T13:52:04.024Z</time></trkpt><trkpt lat="41.9317004" lon="3.9065404"><ele>0.0</ele><time>2026-04-30T13:52:06.024Z</time></trkpt><trkpt lat="41.9317477" lon="3.9066405"><ele>0.0</ele><time>2026-04-30T13:52:07.024Z</time></trkpt><trkpt lat="41.9317947" lon="3.9067418"><ele>0.0</ele><time>2026-04-30T13:52:08.024Z</time></trkpt><trkpt lat="41.9318343" lon="3.9068476"><ele>0.0</ele><time>2026-04-30T13:52:09.024Z</time></trkpt><trkpt lat="41.9318668" lon="3.906953"><ele>0.0</ele><time>2026-04-30T13:52:10.024Z</time></trkpt><trkpt lat="41.931905" lon="3.9070624"><ele>0.0</ele><time>2026-04-30T13:52:11.024Z</time></trkpt><trkpt lat="41.931945" lon="3.9071683"><ele>0.0</ele><time>2026-04-30T13:52:12.023Z</time></trkpt><trkpt lat="41.9319854" lon="3.9072703"><ele>0.0</ele><time>2026-04-30T13:52:13.024Z</time></trkpt><trkpt lat="41.9320251" lon="3.9073766"><ele>0.0</ele><time>2026-04-30T13:52:14.023Z</time></trkpt><trkpt lat="41.9320636" lon="3.9074818"><ele>0.0</ele><time>2026-04-30T13:52:15.024Z</time></trkpt><trkpt lat="41.932145" lon="3.9076855"><ele>0.0</ele><time>2026-04-30T13:52:17.023Z</time></trkpt><trkpt lat="41.9321866" lon="3.9077913"><ele>0.0</ele><time>2026-04-30T13:52:18.024Z</time></trkpt><trkpt lat="41.9322271" lon="3.9078937"><ele>0.0</ele><time>2026-04-30T13:52:19.024Z</time></trkpt><trkpt lat="41.932267" lon="3.9079954"><ele>0.0</ele><time>2026-04-30T13:52:20.023Z</time></trkpt><trkpt lat="41.9323103" lon="3.9080967"><ele>0.0</ele><time>2026-04-30T13:52:21.024Z</time></trkpt><trkpt lat="41.9323519" lon="3.9081985"><ele>0.0</ele><time>2026-04-30T13:52:22.023Z</time></trkpt><trkpt lat="41.9323864" lon="3.9083017"><ele>0.0</ele><time>2026-04-30T13:52:23.024Z</time></trkpt><trkpt lat="41.9324281" lon="3.908409"><ele>0.0</ele><time>2026-04-30T13:52:24.023Z</time></trkpt><trkpt lat="41.9324715" lon="3.9085118"><ele>0.0</ele><time>2026-04-30T13:52:25.023Z</time></trkpt><trkpt lat="41.9325137" lon="3.9086166"><ele>0.0</ele><time>2026-04-30T13:52:26.024Z</time></trkpt><trkpt lat="41.9325552" lon="3.90872"><ele>0.0</ele><time>2026-04-30T13:52:27.024Z</time></trkpt><trkpt lat="41.9325938" lon="3.9088249"><ele>0.0</ele><time>2026-04-30T13:52:28.023Z</time></trkpt><trkpt lat="41.9326308" lon="3.9089299"><ele>0.0</ele><time>2026-04-30T13:52:29.023Z</time></trkpt><trkpt lat="41.932666" lon="3.909039"><ele>0.0</ele><time>2026-04-30T13:52:30.024Z</time></trkpt><trkpt lat="41.9327049" lon="3.9091506"><ele>0.0</ele><time>2026-04-30T13:52:31.023Z</time></trkpt><trkpt lat="41.9327395" lon="3.9092592"><ele>0.0</ele><time>2026-04-30T13:52:32.024Z</time></trkpt><trkpt lat="41.932774" lon="3.9093676"><ele>0.0</ele><time>2026-04-30T13:52:33.023Z</time></trkpt><trkpt lat="41.9328123" lon="3.9094718"><ele>0.0</ele><time>2026-04-30T13:52:34.024Z</time></trkpt><trkpt lat="41.9328576" lon="3.9095695"><ele>0.0</ele><time>2026-04-30T13:52:35.023Z</time></trkpt><trkpt lat="41.9328956" lon="3.909672"><ele>0.0</ele><time>2026-04-30T13:52:36.023Z</time></trkpt><trkpt lat="41.9330068" lon="3.9099789"><ele>0.0</ele><time>2026-04-30T13:52:39.024Z</time></trkpt><trkpt lat="41.9330466" lon="3.9100776"><ele>0.0</ele><time>2026-04-30T13:52:40.023Z</time></trkpt><trkpt lat="41.9330837" lon="3.9101775"><ele>0.0</ele><time>2026-04-30T13:52:41.024Z</time></trkpt><trkpt lat="41.9331169" lon="3.9102829"><ele>0.0</ele><time>2026-04-30T13:52:42.023Z</time></trkpt><trkpt lat="41.9331503" lon="3.9103913"><ele>0.0</ele><time>2026-04-30T13:52:43.023Z</time></trkpt><trkpt lat="41.9331869" lon="3.9104993"><ele>0.0</ele><time>2026-04-30T13:52:44.024Z</time></trkpt><trkpt lat="41.9332206" lon="3.9106066"><ele>0.0</ele><time>2026-04-30T13:52:45.023Z</time></trkpt><trkpt lat="41.9332613" lon="3.9107103"><ele>0.0</ele><time>2026-04-30T13:52:46.023Z</time></trkpt><trkpt lat="41.9333015" lon="3.9108135"><ele>0.0</ele><time>2026-04-30T13:52:47.023Z</time></trkpt><trkpt lat="41.9333485" lon="3.910917"><ele>0.0</ele><time>2026-04-30T13:52:48.024Z</time></trkpt><trkpt lat="41.9333895" lon="3.9110232"><ele>0.0</ele><time>2026-04-30T13:52:49.023Z</time></trkpt><trkpt lat="41.9334314" lon="3.9111208"><ele>0.0</ele><time>2026-04-30T13:52:50.024Z</time></trkpt><trkpt lat="41.9334718" lon="3.9112234"><ele>0.0</ele><time>2026-04-30T13:52:51.023Z</time></trkpt><trkpt lat="41.9335132" lon="3.9113253"><ele>0.0</ele><time>2026-04-30T13:52:52.024Z</time></trkpt><trkpt lat="41.9335534" lon="3.9114313"><ele>0.0</ele><time>2026-04-30T13:52:53.022Z</time></trkpt><trkpt lat="41.9335922" lon="3.9115352"><ele>0.0</ele><time>2026-04-30T13:52:54.023Z</time></trkpt><trkpt lat="41.9336273" lon="3.9116373"><ele>0.0</ele><time>2026-04-30T13:52:55.022Z</time></trkpt><trkpt lat="41.9336649" lon="3.9117475"><ele>0.0</ele><time>2026-04-30T13:52:56.022Z</time></trkpt><trkpt lat="41.9337033" lon="3.9118548"><ele>0.0</ele><time>2026-04-30T13:52:57.023Z</time></trkpt><trkpt lat="41.9337453" lon="3.9119581"><ele>0.0</ele><time>2026-04-30T13:52:58.022Z</time></trkpt><trkpt lat="41.9338263" lon="3.9121719"><ele>0.0</ele><time>2026-04-30T13:53:00.022Z</time></trkpt><trkpt lat="41.9338702" lon="3.9122761"><ele>0.0</ele><time>2026-04-30T13:53:01.022Z</time></trkpt><trkpt lat="41.9339172" lon="3.9123747"><ele>0.0</ele><time>2026-04-30T13:53:02.022Z</time></trkpt><trkpt lat="41.933958" lon="3.912479"><ele>0.0</ele><time>2026-04-30T13:53:03.022Z</time></trkpt><trkpt lat="41.933995" lon="3.9125855"><ele>0.0</ele><time>2026-04-30T13:53:04.022Z</time></trkpt><trkpt lat="41.9340346" lon="3.9126879"><ele>0.0</ele><time>2026-04-30T13:53:05.022Z</time></trkpt><trkpt lat="41.9340678" lon="3.9127897"><ele>0.0</ele><time>2026-04-30T13:53:06.022Z</time></trkpt><trkpt lat="41.9341022" lon="3.9128884"><ele>0.0</ele><time>2026-04-30T13:53:07.022Z</time></trkpt><trkpt lat="41.9341456" lon="3.9129879"><ele>0.0</ele><time>2026-04-30T13:53:08.022Z</time></trkpt><trkpt lat="41.9342292" lon="3.9131972"><ele>0.0</ele><time>2026-04-30T13:53:10.022Z</time></trkpt><trkpt lat="41.9342736" lon="3.9133023"><ele>0.0</ele><time>2026-04-30T13:53:11.022Z</time></trkpt><trkpt lat="41.9343172" lon="3.9134031"><ele>0.0</ele><time>2026-04-30T13:53:12.023Z</time></trkpt><trkpt lat="41.9343633" lon="3.9135089"><ele>0.0</ele><time>2026-04-30T13:53:13.023Z</time></trkpt><trkpt lat="41.9344025" lon="3.9136086"><ele>0.0</ele><time>2026-04-30T13:53:14.022Z</time></trkpt><trkpt lat="41.9344433" lon="3.9137158"><ele>0.0</ele><time>2026-04-30T13:53:15.023Z</time></trkpt><trkpt lat="41.9344839" lon="3.9138169"><ele>0.0</ele><time>2026-04-30T13:53:16.023Z</time></trkpt><trkpt lat="41.9345224" lon="3.9139226"><ele>0.0</ele><time>2026-04-30T13:53:17.023Z</time></trkpt><trkpt lat="41.9345655" lon="3.9140231"><ele>0.0</ele><time>2026-04-30T13:53:18.023Z</time></trkpt><trkpt lat="41.9346073" lon="3.9141248"><ele>0.0</ele><time>2026-04-30T13:53:19.022Z</time></trkpt><trkpt lat="41.9346871" lon="3.9143324"><ele>0.0</ele><time>2026-04-30T13:53:21.022Z</time></trkpt><trkpt lat="41.9347198" lon="3.9144408"><ele>0.0</ele><time>2026-04-30T13:53:22.023Z</time></trkpt><trkpt lat="41.9347573" lon="3.9145433"><ele>0.0</ele><time>2026-04-30T13:53:23.023Z</time></trkpt><trkpt lat="41.9347952" lon="3.9146509"><ele>0.0</ele><time>2026-04-30T13:53:24.022Z</time></trkpt><trkpt lat="41.9348333" lon="3.9147566"><ele>0.0</ele><time>2026-04-30T13:53:25.022Z</time></trkpt><trkpt lat="41.9348719" lon="3.9148643"><ele>0.0</ele><time>2026-04-30T13:53:26.022Z</time></trkpt><trkpt lat="41.9349123" lon="3.9149652"><ele>0.0</ele><time>2026-04-30T13:53:27.023Z</time></trkpt><trkpt lat="41.934954" lon="3.9150653"><ele>0.0</ele><time>2026-04-30T13:53:28.022Z</time></trkpt><trkpt lat="41.9349938" lon="3.9151656"><ele>0.0</ele><time>2026-04-30T13:53:29.023Z</time></trkpt><trkpt lat="41.9350322" lon="3.9152698"><ele>0.0</ele><time>2026-04-30T13:53:30.022Z</time></trkpt><trkpt lat="41.9350674" lon="3.9153734"><ele>0.0</ele><time>2026-04-30T13:53:31.023Z</time></trkpt><trkpt lat="41.9351051" lon="3.9154769"><ele>0.0</ele><time>2026-04-30T13:53:32.022Z</time></trkpt><trkpt lat="41.9351511" lon="3.9155801"><ele>0.0</ele><time>2026-04-30T13:53:33.022Z</time></trkpt><trkpt lat="41.9351932" lon="3.915685"><ele>0.0</ele><time>2026-04-30T13:53:34.023Z</time></trkpt><trkpt lat="41.9352335" lon="3.9157913"><ele>0.0</ele><time>2026-04-30T13:53:35.022Z</time></trkpt><trkpt lat="41.9352768" lon="3.9158991"><ele>0.0</ele><time>2026-04-30T13:53:36.023Z</time></trkpt><trkpt lat="41.9353196" lon="3.9160065"><ele>0.0</ele><time>2026-04-30T13:53:37.022Z</time></trkpt><trkpt lat="41.9353583" lon="3.916112"><ele>0.0</ele><time>2026-04-30T13:53:38.023Z</time></trkpt><trkpt lat="41.9353995" lon="3.9162112"><ele>0.0</ele><time>2026-04-30T13:53:39.022Z</time></trkpt><trkpt lat="41.9354401" lon="3.9163164"><ele>0.0</ele><time>2026-04-30T13:53:40.022Z</time></trkpt><trkpt lat="41.9354762" lon="3.9164215"><ele>0.0</ele><time>2026-04-30T13:53:41.022Z</time></trkpt><trkpt lat="41.9355433" lon="3.9166372"><ele>0.0</ele><time>2026-04-30T13:53:43.023Z</time></trkpt><trkpt lat="41.9355699" lon="3.9167512"><ele>0.0</ele><time>2026-04-30T13:53:44.023Z</time></trkpt><trkpt lat="41.9356106" lon="3.9168575"><ele>0.0</ele><time>2026-04-30T13:53:45.023Z</time></trkpt><trkpt lat="41.9356521" lon="3.9169599"><ele>0.0</ele><time>2026-04-30T13:53:46.023Z</time></trkpt><trkpt lat="41.9356848" lon="3.9170675"><ele>0.0</ele><time>2026-04-30T13:53:47.022Z</time></trkpt><trkpt lat="41.9357169" lon="3.9171743"><ele>0.0</ele><time>2026-04-30T13:53:48.022Z</time></trkpt><trkpt lat="41.9357525" lon="3.9172786"><ele>0.0</ele><time>2026-04-30T13:53:49.022Z</time></trkpt><trkpt lat="41.9357887" lon="3.9173821"><ele>0.0</ele><time>2026-04-30T13:53:50.022Z</time></trkpt><trkpt lat="41.9358267" lon="3.9174838"><ele>0.0</ele><time>2026-04-30T13:53:51.022Z</time></trkpt><trkpt lat="41.9358593" lon="3.9175897"><ele>0.0</ele><time>2026-04-30T13:53:52.022Z</time></trkpt><trkpt lat="41.9358968" lon="3.9176934"><ele>0.0</ele><time>2026-04-30T13:53:53.023Z</time></trkpt><trkpt lat="41.9359354" lon="3.9177938"><ele>0.0</ele><time>2026-04-30T13:53:54.023Z</time></trkpt><trkpt lat="41.9359769" lon="3.9178953"><ele>0.0</ele><time>2026-04-30T13:53:55.023Z</time></trkpt><trkpt lat="41.9360227" lon="3.9179984"><ele>0.0</ele><time>2026-04-30T13:53:56.023Z</time></trkpt><trkpt lat="41.9360667" lon="3.9180987"><ele>0.0</ele><time>2026-04-30T13:53:57.023Z</time></trkpt><trkpt lat="41.9361099" lon="3.9182003"><ele>0.0</ele><time>2026-04-30T13:53:58.023Z</time></trkpt><trkpt lat="41.9361578" lon="3.9183044"><ele>0.0</ele><time>2026-04-30T13:53:59.022Z</time></trkpt><trkpt lat="41.9361992" lon="3.9184078"><ele>0.0</ele><time>2026-04-30T13:54:00.023Z</time></trkpt><trkpt lat="41.9362346" lon="3.918517"><ele>0.0</ele><time>2026-04-30T13:54:01.022Z</time></trkpt><trkpt lat="41.9362683" lon="3.91862"><ele>0.0</ele><time>2026-04-30T13:54:02.022Z</time></trkpt><trkpt lat="41.9363436" lon="3.91883"><ele>0.0</ele><time>2026-04-30T13:54:04.023Z</time></trkpt><trkpt lat="41.9363792" lon="3.9189332"><ele>0.0</ele><time>2026-04-30T13:54:05.023Z</time></trkpt><trkpt lat="41.936413" lon="3.9190381"><ele>0.0</ele><time>2026-04-30T13:54:06.023Z</time></trkpt><trkpt lat="41.9364438" lon="3.9191458"><ele>0.0</ele><time>2026-04-30T13:54:07.023Z</time></trkpt><trkpt lat="41.9364863" lon="3.9192481"><ele>0.0</ele><time>2026-04-30T13:54:08.022Z</time></trkpt><trkpt lat="41.9365283" lon="3.91935"><ele>0.0</ele><time>2026-04-30T13:54:09.022Z</time></trkpt><trkpt lat="41.9365659" lon="3.9194562"><ele>0.0</ele><time>2026-04-30T13:54:10.022Z</time></trkpt><trkpt lat="41.9366041" lon="3.9195626"><ele>0.0</ele><time>2026-04-30T13:54:11.022Z</time></trkpt><trkpt lat="41.9366436" lon="3.9196681"><ele>0.0</ele><time>2026-04-30T13:54:12.022Z</time></trkpt><trkpt lat="41.9367239" lon="3.9198643"><ele>0.0</ele><time>2026-04-30T13:54:14.022Z</time></trkpt><trkpt lat="41.9367651" lon="3.919968"><ele>0.0</ele><time>2026-04-30T13:54:15.022Z</time></trkpt><trkpt lat="41.9368049" lon="3.9200758"><ele>0.0</ele><time>2026-04-30T13:54:16.023Z</time></trkpt><trkpt lat="41.9368504" lon="3.9201829"><ele>0.0</ele><time>2026-04-30T13:54:17.022Z</time></trkpt><trkpt lat="41.9368945" lon="3.9202855"><ele>0.0</ele><time>2026-04-30T13:54:18.023Z</time></trkpt><trkpt lat="41.9369347" lon="3.9203859"><ele>0.0</ele><time>2026-04-30T13:54:19.022Z</time></trkpt><trkpt lat="41.9369777" lon="3.9204915"><ele>0.0</ele><time>2026-04-30T13:54:20.022Z</time></trkpt><trkpt lat="41.9370212" lon="3.9205936"><ele>0.0</ele><time>2026-04-30T13:54:21.022Z</time></trkpt><trkpt lat="41.9370624" lon="3.9207007"><ele>0.0</ele><time>2026-04-30T13:54:22.023Z</time></trkpt><trkpt lat="41.9371036" lon="3.920812"><ele>0.0</ele><time>2026-04-30T13:54:23.023Z</time></trkpt><trkpt lat="41.9371855" lon="3.9210181"><ele>0.0</ele><time>2026-04-30T13:54:25.022Z</time></trkpt><trkpt lat="41.9372238" lon="3.921123"><ele>0.0</ele><time>2026-04-30T13:54:26.022Z</time></trkpt><trkpt lat="41.9372651" lon="3.921225"><ele>0.0</ele><time>2026-04-30T13:54:27.022Z</time></trkpt><trkpt lat="41.9373065" lon="3.9213282"><ele>0.0</ele><time>2026-04-30T13:54:28.022Z</time></trkpt><trkpt lat="41.9373409" lon="3.9214303"><ele>0.0</ele><time>2026-04-30T13:54:29.022Z</time></trkpt><trkpt lat="41.9373756" lon="3.9215392"><ele>0.0</ele><time>2026-04-30T13:54:30.022Z</time></trkpt><trkpt lat="41.9374174" lon="3.9216435"><ele>0.0</ele><time>2026-04-30T13:54:31.023Z</time></trkpt><trkpt lat="41.937461" lon="3.9217427"><ele>0.0</ele><time>2026-04-30T13:54:32.023Z</time></trkpt><trkpt lat="41.9375031" lon="3.9218411"><ele>0.0</ele><time>2026-04-30T13:54:33.022Z</time></trkpt><trkpt lat="41.9375419" lon="3.9219466"><ele>0.0</ele><time>2026-04-30T13:54:34.023Z</time></trkpt><trkpt lat="41.9375877" lon="3.9220556"><ele>0.0</ele><time>2026-04-30T13:54:35.022Z</time></trkpt><trkpt lat="41.9376302" lon="3.9221554"><ele>0.0</ele><time>2026-04-30T13:54:36.022Z</time></trkpt><trkpt lat="41.9376732" lon="3.9222569"><ele>0.0</ele><time>2026-04-30T13:54:37.022Z</time></trkpt><trkpt lat="41.9377137" lon="3.9223585"><ele>0.0</ele><time>2026-04-30T13:54:38.022Z</time></trkpt><trkpt lat="41.9377567" lon="3.9224619"><ele>0.0</ele><time>2026-04-30T13:54:39.022Z</time></trkpt><trkpt lat="41.9378003" lon="3.9225639"><ele>0.0</ele><time>2026-04-30T13:54:40.022Z</time></trkpt><trkpt lat="41.937838" lon="3.9226669"><ele>0.0</ele><time>2026-04-30T13:54:41.022Z</time></trkpt><trkpt lat="41.9378759" lon="3.9227716"><ele>0.0</ele><time>2026-04-30T13:54:42.023Z</time></trkpt><trkpt lat="41.9379065" lon="3.9228797"><ele>0.0</ele><time>2026-04-30T13:54:43.022Z</time></trkpt><trkpt lat="41.9379406" lon="3.9229866"><ele>0.0</ele><time>2026-04-30T13:54:44.022Z</time></trkpt><trkpt lat="41.9380556" lon="3.9232941"><ele>0.0</ele><time>2026-04-30T13:54:47.023Z</time></trkpt><trkpt lat="41.9380987" lon="3.9233936"><ele>0.0</ele><time>2026-04-30T13:54:48.022Z</time></trkpt><trkpt lat="41.938139" lon="3.9234966"><ele>0.0</ele><time>2026-04-30T13:54:49.022Z</time></trkpt><trkpt lat="41.9381811" lon="3.9236018"><ele>0.0</ele><time>2026-04-30T13:54:50.022Z</time></trkpt><trkpt lat="41.9382157" lon="3.9237096"><ele>0.0</ele><time>2026-04-30T13:54:51.023Z</time></trkpt><trkpt lat="41.9382506" lon="3.9238193"><ele>0.0</ele><time>2026-04-30T13:54:52.022Z</time></trkpt><trkpt lat="41.9382885" lon="3.9239275"><ele>0.0</ele><time>2026-04-30T13:54:53.023Z</time></trkpt><trkpt lat="41.9383279" lon="3.9240334"><ele>0.0</ele><time>2026-04-30T13:54:54.023Z</time></trkpt><trkpt lat="41.9383679" lon="3.9241398"><ele>0.0</ele><time>2026-04-30T13:54:55.022Z</time></trkpt><trkpt lat="41.9384066" lon="3.9242422"><ele>0.0</ele><time>2026-04-30T13:54:56.023Z</time></trkpt><trkpt lat="41.9384427" lon="3.9243467"><ele>0.0</ele><time>2026-04-30T13:54:57.022Z</time></trkpt><trkpt lat="41.9384804" lon="3.9244531"><ele>0.0</ele><time>2026-04-30T13:54:58.023Z</time></trkpt><trkpt lat="41.9385172" lon="3.9245581"><ele>0.0</ele><time>2026-04-30T13:54:59.022Z</time></trkpt><trkpt lat="41.9385551" lon="3.9246634"><ele>0.0</ele><time>2026-04-30T13:55:00.023Z</time></trkpt><trkpt lat="41.9385905" lon="3.9247683"><ele>0.0</ele><time>2026-04-30T13:55:01.022Z</time></trkpt><trkpt lat="41.9386255" lon="3.9248719"><ele>0.0</ele><time>2026-04-30T13:55:02.022Z</time></trkpt><trkpt lat="41.9386595" lon="3.924975"><ele>0.0</ele><time>2026-04-30T13:55:03.023Z</time></trkpt><trkpt lat="41.9386884" lon="3.9250857"><ele>0.0</ele><time>2026-04-30T13:55:04.023Z</time></trkpt><trkpt lat="41.9387297" lon="3.9251887"><ele>0.0</ele><time>2026-04-30T13:55:05.022Z</time></trkpt><trkpt lat="41.9388136" lon="3.9253884"><ele>0.0</ele><time>2026-04-30T13:55:07.022Z</time></trkpt><trkpt lat="41.9388526" lon="3.92549"><ele>0.0</ele><time>2026-04-30T13:55:08.022Z</time></trkpt><trkpt lat="41.9388905" lon="3.9255947"><ele>0.0</ele><time>2026-04-30T13:55:09.023Z</time></trkpt><trkpt lat="41.9389258" lon="3.9257012"><ele>0.0</ele><time>2026-04-30T13:55:10.022Z</time></trkpt><trkpt lat="41.9389566" lon="3.925808"><ele>0.0</ele><time>2026-04-30T13:55:11.022Z</time></trkpt><trkpt lat="41.9389896" lon="3.9259147"><ele>0.0</ele><time>2026-04-30T13:55:12.023Z</time></trkpt><trkpt lat="41.9390229" lon="3.92602"><ele>0.0</ele><time>2026-04-30T13:55:13.023Z</time></trkpt><trkpt lat="41.9390588" lon="3.9261224"><ele>0.0</ele><time>2026-04-30T13:55:14.022Z</time></trkpt><trkpt lat="41.9390955" lon="3.9262238"><ele>0.0</ele><time>2026-04-30T13:55:15.022Z</time></trkpt><trkpt lat="41.9391354" lon="3.9263239"><ele>0.0</ele><time>2026-04-30T13:55:16.023Z</time></trkpt><trkpt lat="41.9392051" lon="3.9265348"><ele>0.0</ele><time>2026-04-30T13:55:18.022Z</time></trkpt><trkpt lat="41.9392466" lon="3.9266398"><ele>0.0</ele><time>2026-04-30T13:55:19.022Z</time></trkpt><trkpt lat="41.9392879" lon="3.9267448"><ele>0.0</ele><time>2026-04-30T13:55:20.023Z</time></trkpt><trkpt lat="41.9393294" lon="3.9268485"><ele>0.0</ele><time>2026-04-30T13:55:21.022Z</time></trkpt><trkpt lat="41.9393739" lon="3.9269521"><ele>0.0</ele><time>2026-04-30T13:55:22.023Z</time></trkpt><trkpt lat="41.9394115" lon="3.9270582"><ele>0.0</ele><time>2026-04-30T13:55:23.022Z</time></trkpt><trkpt lat="41.9394497" lon="3.9271648"><ele>0.0</ele><time>2026-04-30T13:55:24.023Z</time></trkpt><trkpt lat="41.9394909" lon="3.9272715"><ele>0.0</ele><time>2026-04-30T13:55:25.023Z</time></trkpt><trkpt lat="41.9395358" lon="3.9273737"><ele>0.0</ele><time>2026-04-30T13:55:26.023Z</time></trkpt><trkpt lat="41.9396237" lon="3.9275843"><ele>0.0</ele><time>2026-04-30T13:55:28.022Z</time></trkpt><trkpt lat="41.9396655" lon="3.9276891"><ele>0.0</ele><time>2026-04-30T13:55:29.022Z</time></trkpt><trkpt lat="41.9397068" lon="3.9277906"><ele>0.0</ele><time>2026-04-30T13:55:30.022Z</time></trkpt><trkpt lat="41.9397552" lon="3.9278937"><ele>0.0</ele><time>2026-04-30T13:55:31.023Z</time></trkpt><trkpt lat="41.9397996" lon="3.9279953"><ele>0.0</ele><time>2026-04-30T13:55:32.022Z</time></trkpt><trkpt lat="41.9398389" lon="3.9281026"><ele>0.0</ele><time>2026-04-30T13:55:33.022Z</time></trkpt><trkpt lat="41.9398738" lon="3.9282086"><ele>0.0</ele><time>2026-04-30T13:55:34.023Z</time></trkpt><trkpt lat="41.9399086" lon="3.9283164"><ele>0.0</ele><time>2026-04-30T13:55:35.022Z</time></trkpt><trkpt lat="41.9399495" lon="3.9284202"><ele>0.0</ele><time>2026-04-30T13:55:36.022Z</time></trkpt><trkpt lat="41.9399884" lon="3.9285207"><ele>0.0</ele><time>2026-04-30T13:55:37.022Z</time></trkpt><trkpt lat="41.9400313" lon="3.9286262"><ele>0.0</ele><time>2026-04-30T13:55:38.023Z</time></trkpt><trkpt lat="41.9400722" lon="3.9287326"><ele>0.0</ele><time>2026-04-30T13:55:39.022Z</time></trkpt><trkpt lat="41.940112" lon="3.9288353"><ele>0.0</ele><time>2026-04-30T13:55:40.022Z</time></trkpt><trkpt lat="41.9401522" lon="3.9289385"><ele>0.0</ele><time>2026-04-30T13:55:41.022Z</time></trkpt><trkpt lat="41.9401816" lon="3.9290421"><ele>0.0</ele><time>2026-04-30T13:55:42.022Z</time></trkpt><trkpt lat="41.9402143" lon="3.9291482"><ele>0.0</ele><time>2026-04-30T13:55:43.022Z</time></trkpt><trkpt lat="41.9402549" lon="3.9292548"><ele>0.0</ele><time>2026-04-30T13:55:44.023Z</time></trkpt><trkpt lat="41.940288" lon="3.9293573"><ele>0.0</ele><time>2026-04-30T13:55:45.023Z</time></trkpt><trkpt lat="41.9403255" lon="3.9294647"><ele>0.0</ele><time>2026-04-30T13:55:46.023Z</time></trkpt><trkpt lat="41.9403634" lon="3.92957"><ele>0.0</ele><time>2026-04-30T13:55:47.022Z</time></trkpt><trkpt lat="41.9404065" lon="3.9296732"><ele>0.0</ele><time>2026-04-30T13:55:48.023Z</time></trkpt><trkpt lat="41.9404865" lon="3.9298858"><ele>0.0</ele><time>2026-04-30T13:55:50.022Z</time></trkpt><trkpt lat="41.9405284" lon="3.9299898"><ele>0.0</ele><time>2026-04-30T13:55:51.022Z</time></trkpt><trkpt lat="41.940566" lon="3.9300948"><ele>0.0</ele><time>2026-04-30T13:55:52.022Z</time></trkpt><trkpt lat="41.9406064" lon="3.9302011"><ele>0.0</ele><time>2026-04-30T13:55:53.023Z</time></trkpt><trkpt lat="41.9406465" lon="3.930304"><ele>0.0</ele><time>2026-04-30T13:55:54.023Z</time></trkpt><trkpt lat="41.9406876" lon="3.9304086"><ele>0.0</ele><time>2026-04-30T13:55:55.022Z</time></trkpt><trkpt lat="41.9407437" lon="3.9305077"><ele>0.0</ele><time>2026-04-30T13:55:56.023Z</time></trkpt><trkpt lat="41.9407934" lon="3.930606"><ele>0.0</ele><time>2026-04-30T13:55:57.023Z</time></trkpt><trkpt lat="41.940839" lon="3.9307082"><ele>0.0</ele><time>2026-04-30T13:55:58.022Z</time></trkpt><trkpt lat="41.9408812" lon="3.9308087"><ele>0.0</ele><time>2026-04-30T13:55:59.023Z</time></trkpt><trkpt lat="41.9409207" lon="3.9309073"><ele>0.0</ele><time>2026-04-30T13:56:00.022Z</time></trkpt><trkpt lat="41.9409586" lon="3.9310101"><ele>0.0</ele><time>2026-04-30T13:56:01.023Z</time></trkpt><trkpt lat="41.9409995" lon="3.9311152"><ele>0.0</ele><time>2026-04-30T13:56:02.022Z</time></trkpt><trkpt lat="41.9410425" lon="3.9312301"><ele>0.0</ele><time>2026-04-30T13:56:03.023Z</time></trkpt><trkpt lat="41.9410799" lon="3.9313353"><ele>0.0</ele><time>2026-04-30T13:56:04.023Z</time></trkpt><trkpt lat="41.9411214" lon="3.9314372"><ele>0.0</ele><time>2026-04-30T13:56:05.022Z</time></trkpt><trkpt lat="41.9411602" lon="3.9315388"><ele>0.0</ele><time>2026-04-30T13:56:06.023Z</time></trkpt><trkpt lat="41.9412046" lon="3.9316402"><ele>0.0</ele><time>2026-04-30T13:56:07.022Z</time></trkpt><trkpt lat="41.9412458" lon="3.9317456"><ele>0.0</ele><time>2026-04-30T13:56:08.022Z</time></trkpt><trkpt lat="41.9412857" lon="3.9318481"><ele>0.0</ele><time>2026-04-30T13:56:09.022Z</time></trkpt><trkpt lat="41.941364" lon="3.9320547"><ele>0.0</ele><time>2026-04-30T13:56:11.022Z</time></trkpt><trkpt lat="41.9413989" lon="3.9321557"><ele>0.0</ele><time>2026-04-30T13:56:12.023Z</time></trkpt><trkpt lat="41.9414367" lon="3.9322671"><ele>0.0</ele><time>2026-04-30T13:56:13.022Z</time></trkpt><trkpt lat="41.9414725" lon="3.9323747"><ele>0.0</ele><time>2026-04-30T13:56:14.022Z</time></trkpt><trkpt lat="41.9415078" lon="3.9324786"><ele>0.0</ele><time>2026-04-30T13:56:15.022Z</time></trkpt><trkpt lat="41.9415539" lon="3.9325779"><ele>0.0</ele><time>2026-04-30T13:56:16.022Z</time></trkpt><trkpt lat="41.9415922" lon="3.9326801"><ele>0.0</ele><time>2026-04-30T13:56:17.023Z</time></trkpt><trkpt lat="41.9416297" lon="3.9327844"><ele>0.0</ele><time>2026-04-30T13:56:18.023Z</time></trkpt><trkpt lat="41.9416708" lon="3.932888"><ele>0.0</ele><time>2026-04-30T13:56:19.022Z</time></trkpt><trkpt lat="41.9417025" lon="3.9329885"><ele>0.0</ele><time>2026-04-30T13:56:20.023Z</time></trkpt><trkpt lat="41.9417391" lon="3.9330901"><ele>0.0</ele><time>2026-04-30T13:56:21.023Z</time></trkpt><trkpt lat="41.9417774" lon="3.9331975"><ele>0.0</ele><time>2026-04-30T13:56:22.023Z</time></trkpt><trkpt lat="41.9418197" lon="3.9332999"><ele>0.0</ele><time>2026-04-30T13:56:23.022Z</time></trkpt><trkpt lat="41.9418616" lon="3.9334064"><ele>0.0</ele><time>2026-04-30T13:56:24.023Z</time></trkpt><trkpt lat="41.9419015" lon="3.9335147"><ele>0.0</ele><time>2026-04-30T13:56:25.023Z</time></trkpt><trkpt lat="41.94194" lon="3.9336187"><ele>0.0</ele><time>2026-04-30T13:56:26.023Z</time></trkpt><trkpt lat="41.9419728" lon="3.9337222"><ele>0.0</ele><time>2026-04-30T13:56:27.023Z</time></trkpt><trkpt lat="41.942009" lon="3.933824"><ele>0.0</ele><time>2026-04-30T13:56:28.023Z</time></trkpt><trkpt lat="41.9420502" lon="3.9339268"><ele>0.0</ele><time>2026-04-30T13:56:29.022Z</time></trkpt><trkpt lat="41.942089" lon="3.9340258"><ele>0.0</ele><time>2026-04-30T13:56:30.022Z</time></trkpt><trkpt lat="41.9421568" lon="3.9342401"><ele>0.0</ele><time>2026-04-30T13:56:32.023Z</time></trkpt><trkpt lat="41.9421894" lon="3.9343479"><ele>0.0</ele><time>2026-04-30T13:56:33.022Z</time></trkpt><trkpt lat="41.942224" lon="3.9344562"><ele>0.0</ele><time>2026-04-30T13:56:34.023Z</time></trkpt><trkpt lat="41.9422531" lon="3.934566"><ele>0.0</ele><time>2026-04-30T13:56:35.022Z</time></trkpt><trkpt lat="41.9422842" lon="3.9346749"><ele>0.0</ele><time>2026-04-30T13:56:36.022Z</time></trkpt><trkpt lat="41.9423235" lon="3.9347817"><ele>0.0</ele><time>2026-04-30T13:56:37.023Z</time></trkpt><trkpt lat="41.9423608" lon="3.9348882"><ele>0.0</ele><time>2026-04-30T13:56:38.023Z</time></trkpt><trkpt lat="41.9423988" lon="3.9349903"><ele>0.0</ele><time>2026-04-30T13:56:39.023Z</time></trkpt><trkpt lat="41.9424353" lon="3.9350979"><ele>0.0</ele><time>2026-04-30T13:56:40.022Z</time></trkpt><trkpt lat="41.9424705" lon="3.9352004"><ele>0.0</ele><time>2026-04-30T13:56:41.023Z</time></trkpt><trkpt lat="41.9425099" lon="3.9353048"><ele>0.0</ele><time>2026-04-30T13:56:42.023Z</time></trkpt><trkpt lat="41.9425455" lon="3.9354059"><ele>0.0</ele><time>2026-04-30T13:56:43.022Z</time></trkpt><trkpt lat="41.942586" lon="3.9355173"><ele>0.0</ele><time>2026-04-30T13:56:44.023Z</time></trkpt><trkpt lat="41.9426273" lon="3.9356221"><ele>0.0</ele><time>2026-04-30T13:56:45.023Z</time></trkpt><trkpt lat="41.9426624" lon="3.93573"><ele>0.0</ele><time>2026-04-30T13:56:46.022Z</time></trkpt><trkpt lat="41.9426998" lon="3.9358322"><ele>0.0</ele><time>2026-04-30T13:56:47.022Z</time></trkpt><trkpt lat="41.9427419" lon="3.9359395"><ele>0.0</ele><time>2026-04-30T13:56:48.023Z</time></trkpt><trkpt lat="41.9427795" lon="3.9360489"><ele>0.0</ele><time>2026-04-30T13:56:49.023Z</time></trkpt><trkpt lat="41.9428159" lon="3.9361532"><ele>0.0</ele><time>2026-04-30T13:56:50.023Z</time></trkpt><trkpt lat="41.9428524" lon="3.9362542"><ele>0.0</ele><time>2026-04-30T13:56:51.023Z</time></trkpt><trkpt lat="41.9428876" lon="3.9363572"><ele>0.0</ele><time>2026-04-30T13:56:52.022Z</time></trkpt><trkpt lat="41.9430088" lon="3.9366702"><ele>0.0</ele><time>2026-04-30T13:56:55.022Z</time></trkpt><trkpt lat="41.9430498" lon="3.9367764"><ele>0.0</ele><time>2026-04-30T13:56:56.022Z</time></trkpt><trkpt lat="41.9430914" lon="3.9368816"><ele>0.0</ele><time>2026-04-30T13:56:57.022Z</time></trkpt><trkpt lat="41.9431333" lon="3.9369821"><ele>0.0</ele><time>2026-04-30T13:56:58.022Z</time></trkpt><trkpt lat="41.9431719" lon="3.9370922"><ele>0.0</ele><time>2026-04-30T13:56:59.023Z</time></trkpt><trkpt lat="41.9432129" lon="3.9371983"><ele>0.0</ele><time>2026-04-30T13:57:00.022Z</time></trkpt><trkpt lat="41.9432518" lon="3.9373004"><ele>0.0</ele><time>2026-04-30T13:57:01.022Z</time></trkpt><trkpt lat="41.9432985" lon="3.9374036"><ele>0.0</ele><time>2026-04-30T13:57:02.023Z</time></trkpt><trkpt lat="41.9433439" lon="3.937504"><ele>0.0</ele><time>2026-04-30T13:57:03.023Z</time></trkpt><trkpt lat="41.9433863" lon="3.9376114"><ele>0.0</ele><time>2026-04-30T13:57:04.023Z</time></trkpt><trkpt lat="41.9434222" lon="3.9377141"><ele>0.0</ele><time>2026-04-30T13:57:05.022Z</time></trkpt><trkpt lat="41.9434559" lon="3.9378244"><ele>0.0</ele><time>2026-04-30T13:57:06.022Z</time></trkpt><trkpt lat="41.9434921" lon="3.9379357"><ele>0.0</ele><time>2026-04-30T13:57:07.021Z</time></trkpt><trkpt lat="41.9435331" lon="3.9380457"><ele>0.0</ele><time>2026-04-30T13:57:08.021Z</time></trkpt><trkpt lat="41.9435708" lon="3.9381513"><ele>0.0</ele><time>2026-04-30T13:57:09.022Z</time></trkpt><trkpt lat="41.9436076" lon="3.9382545"><ele>0.0</ele><time>2026-04-30T13:57:10.022Z</time></trkpt><trkpt lat="41.9436485" lon="3.9383624"><ele>0.0</ele><time>2026-04-30T13:57:11.022Z</time></trkpt><trkpt lat="41.9436857" lon="3.9384637"><ele>0.0</ele><time>2026-04-30T13:57:12.021Z</time></trkpt><trkpt lat="41.943728" lon="3.9385639"><ele>0.0</ele><time>2026-04-30T13:57:13.022Z</time></trkpt><trkpt lat="41.9437696" lon="3.9386654"><ele>0.0</ele><time>2026-04-30T13:57:14.021Z</time></trkpt><trkpt lat="41.9438453" lon="3.9388734"><ele>0.0</ele><time>2026-04-30T13:57:16.022Z</time></trkpt><trkpt lat="41.9438818" lon="3.9389785"><ele>0.0</ele><time>2026-04-30T13:57:17.022Z</time></trkpt><trkpt lat="41.9439166" lon="3.9390837"><ele>0.0</ele><time>2026-04-30T13:57:18.021Z</time></trkpt><trkpt lat="41.9439588" lon="3.9391887"><ele>0.0</ele><time>2026-04-30T13:57:19.021Z</time></trkpt><trkpt lat="41.9439997" lon="3.9392933"><ele>0.0</ele><time>2026-04-30T13:57:20.022Z</time></trkpt><trkpt lat="41.9440417" lon="3.9393909"><ele>0.0</ele><time>2026-04-30T13:57:21.021Z</time></trkpt><trkpt lat="41.9440804" lon="3.9394949"><ele>0.0</ele><time>2026-04-30T13:57:22.021Z</time></trkpt><trkpt lat="41.9441228" lon="3.9395986"><ele>0.0</ele><time>2026-04-30T13:57:23.021Z</time></trkpt><trkpt lat="41.9441632" lon="3.939702"><ele>0.0</ele><time>2026-04-30T13:57:24.021Z</time></trkpt><trkpt lat="41.9442018" lon="3.9398022"><ele>0.0</ele><time>2026-04-30T13:57:25.022Z</time></trkpt><trkpt lat="41.9442445" lon="3.9399081"><ele>0.0</ele><time>2026-04-30T13:57:26.022Z</time></trkpt><trkpt lat="41.9442807" lon="3.9400164"><ele>0.0</ele><time>2026-04-30T13:57:27.021Z</time></trkpt><trkpt lat="41.9443184" lon="3.9401131"><ele>0.0</ele><time>2026-04-30T13:57:28.022Z</time></trkpt><trkpt lat="41.9443588" lon="3.9402149"><ele>0.0</ele><time>2026-04-30T13:57:29.021Z</time></trkpt><trkpt lat="41.9444044" lon="3.9403196"><ele>0.0</ele><time>2026-04-30T13:57:30.022Z</time></trkpt><trkpt lat="41.9444478" lon="3.9404219"><ele>0.0</ele><time>2026-04-30T13:57:31.022Z</time></trkpt><trkpt lat="41.9444894" lon="3.9405212"><ele>0.0</ele><time>2026-04-30T13:57:32.021Z</time></trkpt><trkpt lat="41.9445324" lon="3.9406253"><ele>0.0</ele><time>2026-04-30T13:57:33.022Z</time></trkpt><trkpt lat="41.9445756" lon="3.9407288"><ele>0.0</ele><time>2026-04-30T13:57:34.021Z</time></trkpt><trkpt lat="41.9446191" lon="3.9408321"><ele>0.0</ele><time>2026-04-30T13:57:35.021Z</time></trkpt><trkpt lat="41.9447036" lon="3.9410419"><ele>0.0</ele><time>2026-04-30T13:57:37.022Z</time></trkpt><trkpt lat="41.9447424" lon="3.9411506"><ele>0.0</ele><time>2026-04-30T13:57:38.021Z</time></trkpt><trkpt lat="41.9447792" lon="3.9412546"><ele>0.0</ele><time>2026-04-30T13:57:39.022Z</time></trkpt><trkpt lat="41.9448146" lon="3.9413564"><ele>0.0</ele><time>2026-04-30T13:57:40.021Z</time></trkpt><trkpt lat="41.9448468" lon="3.9414612"><ele>0.0</ele><time>2026-04-30T13:57:41.022Z</time></trkpt><trkpt lat="41.9448824" lon="3.941565"><ele>0.0</ele><time>2026-04-30T13:57:42.022Z</time></trkpt><trkpt lat="41.9449204" lon="3.9416696"><ele>0.0</ele><time>2026-04-30T13:57:43.022Z</time></trkpt><trkpt lat="41.9449601" lon="3.9417735"><ele>0.0</ele><time>2026-04-30T13:57:44.021Z</time></trkpt><trkpt lat="41.9450018" lon="3.9418767"><ele>0.0</ele><time>2026-04-30T13:57:45.022Z</time></trkpt><trkpt lat="41.9450402" lon="3.9419816"><ele>0.0</ele><time>2026-04-30T13:57:46.022Z</time></trkpt><trkpt lat="41.9450842" lon="3.9420852"><ele>0.0</ele><time>2026-04-30T13:57:47.021Z</time></trkpt><trkpt lat="41.9451267" lon="3.9421898"><ele>0.0</ele><time>2026-04-30T13:57:48.022Z</time></trkpt><trkpt lat="41.9451639" lon="3.9422923"><ele>0.0</ele><time>2026-04-30T13:57:49.021Z</time></trkpt><trkpt lat="41.945205" lon="3.9423979"><ele>0.0</ele><time>2026-04-30T13:57:50.022Z</time></trkpt><trkpt lat="41.945247" lon="3.9424985"><ele>0.0</ele><time>2026-04-30T13:57:51.022Z</time></trkpt><trkpt lat="41.9452948" lon="3.9426013"><ele>0.0</ele><time>2026-04-30T13:57:52.021Z</time></trkpt><trkpt lat="41.9453389" lon="3.9427047"><ele>0.0</ele><time>2026-04-30T13:57:53.021Z</time></trkpt><trkpt lat="41.9453816" lon="3.9428067"><ele>0.0</ele><time>2026-04-30T13:57:54.021Z</time></trkpt><trkpt lat="41.9454189" lon="3.94291"><ele>0.0</ele><time>2026-04-30T13:57:55.021Z</time></trkpt><trkpt lat="41.9454555" lon="3.9430148"><ele>0.0</ele><time>2026-04-30T13:57:56.021Z</time></trkpt><trkpt lat="41.945581" lon="3.94333"><ele>0.0</ele><time>2026-04-30T13:57:59.022Z</time></trkpt><trkpt lat="41.9456253" lon="3.9434342"><ele>0.0</ele><time>2026-04-30T13:58:00.022Z</time></trkpt><trkpt lat="41.9456614" lon="3.9435337"><ele>0.0</ele><time>2026-04-30T13:58:01.022Z</time></trkpt><trkpt lat="41.9456987" lon="3.9436369"><ele>0.0</ele><time>2026-04-30T13:58:02.021Z</time></trkpt><trkpt lat="41.9457355" lon="3.9437459"><ele>0.0</ele><time>2026-04-30T13:58:03.022Z</time></trkpt><trkpt lat="41.945771" lon="3.9438542"><ele>0.0</ele><time>2026-04-30T13:58:04.021Z</time></trkpt><trkpt lat="41.9458114" lon="3.9439571"><ele>0.0</ele><time>2026-04-30T13:58:05.021Z</time></trkpt><trkpt lat="41.945855" lon="3.9440583"><ele>0.0</ele><time>2026-04-30T13:58:06.022Z</time></trkpt><trkpt lat="41.9458957" lon="3.9441597"><ele>0.0</ele><time>2026-04-30T13:58:07.021Z</time></trkpt><trkpt lat="41.9459269" lon="3.9442587"><ele>0.0</ele><time>2026-04-30T13:58:08.021Z</time></trkpt><trkpt lat="41.9459641" lon="3.9443619"><ele>0.0</ele><time>2026-04-30T13:58:09.021Z</time></trkpt><trkpt lat="41.9460018" lon="3.9444638"><ele>0.0</ele><time>2026-04-30T13:58:10.022Z</time></trkpt><trkpt lat="41.9460476" lon="3.9445651"><ele>0.0</ele><time>2026-04-30T13:58:11.021Z</time></trkpt><trkpt lat="41.9460916" lon="3.9446708"><ele>0.0</ele><time>2026-04-30T13:58:12.021Z</time></trkpt><trkpt lat="41.9461348" lon="3.9447719"><ele>0.0</ele><time>2026-04-30T13:58:13.022Z</time></trkpt><trkpt lat="41.9461713" lon="3.9448762"><ele>0.0</ele><time>2026-04-30T13:58:14.021Z</time></trkpt><trkpt lat="41.9462106" lon="3.9449798"><ele>0.0</ele><time>2026-04-30T13:58:15.022Z</time></trkpt><trkpt lat="41.9462536" lon="3.9450787"><ele>0.0</ele><time>2026-04-30T13:58:16.022Z</time></trkpt><trkpt lat="41.9462953" lon="3.9451804"><ele>0.0</ele><time>2026-04-30T13:58:17.021Z</time></trkpt><trkpt lat="41.9463356" lon="3.9452818"><ele>0.0</ele><time>2026-04-30T13:58:18.022Z</time></trkpt><trkpt lat="41.9464296" lon="3.9454819"><ele>0.0</ele><time>2026-04-30T13:58:20.022Z</time></trkpt><trkpt lat="41.9464729" lon="3.9455866"><ele>0.0</ele><time>2026-04-30T13:58:21.022Z</time></trkpt><trkpt lat="41.9465178" lon="3.9456948"><ele>0.0</ele><time>2026-04-30T13:58:22.021Z</time></trkpt><trkpt lat="41.946554" lon="3.9458016"><ele>0.0</ele><time>2026-04-30T13:58:23.021Z</time></trkpt><trkpt lat="41.9465932" lon="3.9459054"><ele>0.0</ele><time>2026-04-30T13:58:24.021Z</time></trkpt><trkpt lat="41.9466321" lon="3.9460057"><ele>0.0</ele><time>2026-04-30T13:58:25.021Z</time></trkpt><trkpt lat="41.9466718" lon="3.9461069"><ele>0.0</ele><time>2026-04-30T13:58:26.022Z</time></trkpt><trkpt lat="41.9467045" lon="3.9462115"><ele>0.0</ele><time>2026-04-30T13:58:27.022Z</time></trkpt><trkpt lat="41.9467446" lon="3.9463136"><ele>0.0</ele><time>2026-04-30T13:58:28.021Z</time></trkpt><trkpt lat="41.9468226" lon="3.9465142"><ele>0.0</ele><time>2026-04-30T13:58:30.022Z</time></trkpt><trkpt lat="41.9468636" lon="3.9466134"><ele>0.0</ele><time>2026-04-30T13:58:31.022Z</time></trkpt><trkpt lat="41.9468992" lon="3.9467235"><ele>0.0</ele><time>2026-04-30T13:58:32.021Z</time></trkpt><trkpt lat="41.9469381" lon="3.9468297"><ele>0.0</ele><time>2026-04-30T13:58:33.021Z</time></trkpt><trkpt lat="41.9469751" lon="3.9469395"><ele>0.0</ele><time>2026-04-30T13:58:34.021Z</time></trkpt><trkpt lat="41.9470058" lon="3.947048"><ele>0.0</ele><time>2026-04-30T13:58:35.021Z</time></trkpt><trkpt lat="41.9470419" lon="3.9471522"><ele>0.0</ele><time>2026-04-30T13:58:36.021Z</time></trkpt><trkpt lat="41.9470842" lon="3.9472637"><ele>0.0</ele><time>2026-04-30T13:58:37.022Z</time></trkpt><trkpt lat="41.9471245" lon="3.9473683"><ele>0.0</ele><time>2026-04-30T13:58:38.022Z</time></trkpt><trkpt lat="41.9471676" lon="3.9474717"><ele>0.0</ele><time>2026-04-30T13:58:39.022Z</time></trkpt><trkpt lat="41.9472549" lon="3.9476746"><ele>0.0</ele><time>2026-04-30T13:58:41.021Z</time></trkpt><trkpt lat="41.9472949" lon="3.9477784"><ele>0.0</ele><time>2026-04-30T13:58:42.021Z</time></trkpt><trkpt lat="41.9473295" lon="3.9478832"><ele>0.0</ele><time>2026-04-30T13:58:43.022Z</time></trkpt><trkpt lat="41.9473701" lon="3.947991"><ele>0.0</ele><time>2026-04-30T13:58:44.021Z</time></trkpt><trkpt lat="41.9474024" lon="3.9480891"><ele>0.0</ele><time>2026-04-30T13:58:45.021Z</time></trkpt><trkpt lat="41.9474365" lon="3.9481917"><ele>0.0</ele><time>2026-04-30T13:58:46.021Z</time></trkpt><trkpt lat="41.9474753" lon="3.9482906"><ele>0.0</ele><time>2026-04-30T13:58:47.021Z</time></trkpt><trkpt lat="41.9475112" lon="3.9483928"><ele>0.0</ele><time>2026-04-30T13:58:48.022Z</time></trkpt><trkpt lat="41.9475512" lon="3.9484921"><ele>0.0</ele><time>2026-04-30T13:58:49.022Z</time></trkpt><trkpt lat="41.947593" lon="3.9485978"><ele>0.0</ele><time>2026-04-30T13:58:50.021Z</time></trkpt><trkpt lat="41.9476316" lon="3.9487018"><ele>0.0</ele><time>2026-04-30T13:58:51.022Z</time></trkpt><trkpt lat="41.9476683" lon="3.9488053"><ele>0.0</ele><time>2026-04-30T13:58:52.022Z</time></trkpt><trkpt lat="41.9477107" lon="3.9489074"><ele>0.0</ele><time>2026-04-30T13:58:53.022Z</time></trkpt><trkpt lat="41.9477567" lon="3.9490122"><ele>0.0</ele><time>2026-04-30T13:58:54.022Z</time></trkpt><trkpt lat="41.9478006" lon="3.9491182"><ele>0.0</ele><time>2026-04-30T13:58:55.021Z</time></trkpt><trkpt lat="41.9478436" lon="3.949225"><ele>0.0</ele><time>2026-04-30T13:58:56.021Z</time></trkpt><trkpt lat="41.9478853" lon="3.9493277"><ele>0.0</ele><time>2026-04-30T13:58:57.022Z</time></trkpt><trkpt lat="41.9479183" lon="3.949431"><ele>0.0</ele><time>2026-04-30T13:58:58.022Z</time></trkpt><trkpt lat="41.9479621" lon="3.9495308"><ele>0.0</ele><time>2026-04-30T13:58:59.021Z</time></trkpt><trkpt lat="41.948003" lon="3.9496294"><ele>0.0</ele><time>2026-04-30T13:59:00.022Z</time></trkpt><trkpt lat="41.9481232" lon="3.9499364"><ele>0.0</ele><time>2026-04-30T13:59:03.022Z</time></trkpt><trkpt lat="41.948165" lon="3.9500397"><ele>0.0</ele><time>2026-04-30T13:59:04.021Z</time></trkpt><trkpt lat="41.9482032" lon="3.9501476"><ele>0.0</ele><time>2026-04-30T13:59:05.022Z</time></trkpt><trkpt lat="41.9482388" lon="3.9502547"><ele>0.0</ele><time>2026-04-30T13:59:06.022Z</time></trkpt><trkpt lat="41.9482733" lon="3.9503626"><ele>0.0</ele><time>2026-04-30T13:59:07.021Z</time></trkpt><trkpt lat="41.9483043" lon="3.9504725"><ele>0.0</ele><time>2026-04-30T13:59:08.022Z</time></trkpt><trkpt lat="41.9483418" lon="3.9505811"><ele>0.0</ele><time>2026-04-30T13:59:09.021Z</time></trkpt><trkpt lat="41.9483828" lon="3.9506895"><ele>0.0</ele><time>2026-04-30T13:59:10.022Z</time></trkpt><trkpt lat="41.9484178" lon="3.9507948"><ele>0.0</ele><time>2026-04-30T13:59:11.021Z</time></trkpt><trkpt lat="41.9484554" lon="3.9509027"><ele>0.0</ele><time>2026-04-30T13:59:12.021Z</time></trkpt><trkpt lat="41.948492" lon="3.9510097"><ele>0.0</ele><time>2026-04-30T13:59:13.022Z</time></trkpt><trkpt lat="41.94853" lon="3.9511162"><ele>0.0</ele><time>2026-04-30T13:59:14.021Z</time></trkpt><trkpt lat="41.9485683" lon="3.9512202"><ele>0.0</ele><time>2026-04-30T13:59:15.021Z</time></trkpt><trkpt lat="41.9486095" lon="3.9513279"><ele>0.0</ele><time>2026-04-30T13:59:16.021Z</time></trkpt><trkpt lat="41.9486526" lon="3.9514301"><ele>0.0</ele><time>2026-04-30T13:59:17.022Z</time></trkpt><trkpt lat="41.9486906" lon="3.9515316"><ele>0.0</ele><time>2026-04-30T13:59:18.022Z</time></trkpt><trkpt lat="41.9487288" lon="3.951635"><ele>0.0</ele><time>2026-04-30T13:59:19.021Z</time></trkpt><trkpt lat="41.9487681" lon="3.9517385"><ele>0.0</ele><time>2026-04-30T13:59:20.021Z</time></trkpt><trkpt lat="41.9488112" lon="3.9518402"><ele>0.0</ele><time>2026-04-30T13:59:21.022Z</time></trkpt><trkpt lat="41.9488954" lon="3.9520495"><ele>0.0</ele><time>2026-04-30T13:59:23.022Z</time></trkpt><trkpt lat="41.9489356" lon="3.9521529"><ele>0.0</ele><time>2026-04-30T13:59:24.021Z</time></trkpt><trkpt lat="41.9489766" lon="3.9522579"><ele>0.0</ele><time>2026-04-30T13:59:25.021Z</time></trkpt><trkpt lat="41.9490178" lon="3.952362"><ele>0.0</ele><time>2026-04-30T13:59:26.021Z</time></trkpt><trkpt lat="41.9490593" lon="3.9524637"><ele>0.0</ele><time>2026-04-30T13:59:27.021Z</time></trkpt><trkpt lat="41.9490983" lon="3.9525696"><ele>0.0</ele><time>2026-04-30T13:59:28.021Z</time></trkpt><trkpt lat="41.949138" lon="3.9526749"><ele>0.0</ele><time>2026-04-30T13:59:29.021Z</time></trkpt><trkpt lat="41.9491756" lon="3.9527798"><ele>0.0</ele><time>2026-04-30T13:59:30.022Z</time></trkpt><trkpt lat="41.9492106" lon="3.9528836"><ele>0.0</ele><time>2026-04-30T13:59:31.021Z</time></trkpt><trkpt lat="41.949247" lon="3.9529885"><ele>0.0</ele><time>2026-04-30T13:59:32.022Z</time></trkpt><trkpt lat="41.94932" lon="3.9531908"><ele>0.0</ele><time>2026-04-30T13:59:34.022Z</time></trkpt><trkpt lat="41.9493585" lon="3.9532964"><ele>0.0</ele><time>2026-04-30T13:59:35.021Z</time></trkpt><trkpt lat="41.9493961" lon="3.953402"><ele>0.0</ele><time>2026-04-30T13:59:36.022Z</time></trkpt><trkpt lat="41.9494316" lon="3.9535083"><ele>0.0</ele><time>2026-04-30T13:59:37.022Z</time></trkpt><trkpt lat="41.9494722" lon="3.953614"><ele>0.0</ele><time>2026-04-30T13:59:38.021Z</time></trkpt><trkpt lat="41.9495078" lon="3.953719"><ele>0.0</ele><time>2026-04-30T13:59:39.022Z</time></trkpt><trkpt lat="41.9495399" lon="3.95383"><ele>0.0</ele><time>2026-04-30T13:59:40.021Z</time></trkpt><trkpt lat="41.9495773" lon="3.9539375"><ele>0.0</ele><time>2026-04-30T13:59:41.022Z</time></trkpt><trkpt lat="41.9496104" lon="3.954045"><ele>0.0</ele><time>2026-04-30T13:59:42.021Z</time></trkpt><trkpt lat="41.9496834" lon="3.954255"><ele>0.0</ele><time>2026-04-30T13:59:44.022Z</time></trkpt><trkpt lat="41.9497217" lon="3.9543586"><ele>0.0</ele><time>2026-04-30T13:59:45.021Z</time></trkpt><trkpt lat="41.9497613" lon="3.9544639"><ele>0.0</ele><time>2026-04-30T13:59:46.022Z</time></trkpt><trkpt lat="41.9497979" lon="3.9545703"><ele>0.0</ele><time>2026-04-30T13:59:47.022Z</time></trkpt><trkpt lat="41.9498364" lon="3.9546781"><ele>0.0</ele><time>2026-04-30T13:59:48.022Z</time></trkpt><trkpt lat="41.9498767" lon="3.9547822"><ele>0.0</ele><time>2026-04-30T13:59:49.021Z</time></trkpt><trkpt lat="41.9499149" lon="3.9548867"><ele>0.0</ele><time>2026-04-30T13:59:50.022Z</time></trkpt><trkpt lat="41.9499533" lon="3.9549933"><ele>0.0</ele><time>2026-04-30T13:59:51.022Z</time></trkpt><trkpt lat="41.9499929" lon="3.9550986"><ele>0.0</ele><time>2026-04-30T13:59:52.022Z</time></trkpt><trkpt lat="41.9500295" lon="3.955208"><ele>0.0</ele><time>2026-04-30T13:59:53.022Z</time></trkpt><trkpt lat="41.950065" lon="3.9553151"><ele>0.0</ele><time>2026-04-30T13:59:54.022Z</time></trkpt><trkpt lat="41.9501045" lon="3.9554215"><ele>0.0</ele><time>2026-04-30T13:59:55.022Z</time></trkpt><trkpt lat="41.9501463" lon="3.9555251"><ele>0.0</ele><time>2026-04-30T13:59:56.022Z</time></trkpt><trkpt lat="41.9501854" lon="3.9556285"><ele>0.0</ele><time>2026-04-30T13:59:57.021Z</time></trkpt><trkpt lat="41.950225" lon="3.9557331"><ele>0.0</ele><time>2026-04-30T13:59:58.022Z</time></trkpt><trkpt lat="41.9502649" lon="3.9558353"><ele>0.0</ele><time>2026-04-30T13:59:59.021Z</time></trkpt><trkpt lat="41.9503079" lon="3.9559385"><ele>0.0</ele><time>2026-04-30T14:00:00.021Z</time></trkpt><trkpt lat="41.9503484" lon="3.9560402"><ele>0.0</ele><time>2026-04-30T14:00:01.021Z</time></trkpt><trkpt lat="41.9503957" lon="3.9561404"><ele>0.0</ele><time>2026-04-30T14:00:02.022Z</time></trkpt><trkpt lat="41.9504752" lon="3.9563423"><ele>0.0</ele><time>2026-04-30T14:00:04.021Z</time></trkpt><trkpt lat="41.9505107" lon="3.9564381"><ele>0.0</ele><time>2026-04-30T14:00:05.021Z</time></trkpt><trkpt lat="41.9505488" lon="3.9565333"><ele>0.0</ele><time>2026-04-30T14:00:06.022Z</time></trkpt><trkpt lat="41.9505916" lon="3.9566338"><ele>0.0</ele><time>2026-04-30T14:00:07.021Z</time></trkpt><trkpt lat="41.9506334" lon="3.9567353"><ele>0.0</ele><time>2026-04-30T14:00:08.021Z</time></trkpt><trkpt lat="41.9506732" lon="3.9568398"><ele>0.0</ele><time>2026-04-30T14:00:09.022Z</time></trkpt><trkpt lat="41.9507172" lon="3.9569392"><ele>0.0</ele><time>2026-04-30T14:00:10.021Z</time></trkpt><trkpt lat="41.9507568" lon="3.9570435"><ele>0.0</ele><time>2026-04-30T14:00:11.021Z</time></trkpt><trkpt lat="41.9507952" lon="3.9571454"><ele>0.0</ele><time>2026-04-30T14:00:12.021Z</time></trkpt><trkpt lat="41.9508345" lon="3.9572527"><ele>0.0</ele><time>2026-04-30T14:00:13.022Z</time></trkpt><trkpt lat="41.9508745" lon="3.9573566"><ele>0.0</ele><time>2026-04-30T14:00:14.022Z</time></trkpt><trkpt lat="41.9509179" lon="3.9574628"><ele>0.0</ele><time>2026-04-30T14:00:15.022Z</time></trkpt><trkpt lat="41.9509615" lon="3.9575665"><ele>0.0</ele><time>2026-04-30T14:00:16.021Z</time></trkpt><trkpt lat="41.9510034" lon="3.9576685"><ele>0.0</ele><time>2026-04-30T14:00:17.021Z</time></trkpt><trkpt lat="41.951045" lon="3.9577698"><ele>0.0</ele><time>2026-04-30T14:00:18.021Z</time></trkpt><trkpt lat="41.9510924" lon="3.957876"><ele>0.0</ele><time>2026-04-30T14:00:19.022Z</time></trkpt><trkpt lat="41.9511367" lon="3.957977"><ele>0.0</ele><time>2026-04-30T14:00:20.022Z</time></trkpt><trkpt lat="41.9511728" lon="3.9580742"><ele>0.0</ele><time>2026-04-30T14:00:21.021Z</time></trkpt><trkpt lat="41.9512119" lon="3.9581737"><ele>0.0</ele><time>2026-04-30T14:00:22.021Z</time></trkpt><trkpt lat="41.9512516" lon="3.958278"><ele>0.0</ele><time>2026-04-30T14:00:23.022Z</time></trkpt><trkpt lat="41.9513367" lon="3.9584834"><ele>0.0</ele><time>2026-04-30T14:00:25.021Z</time></trkpt><trkpt lat="41.9513801" lon="3.9585836"><ele>0.0</ele><time>2026-04-30T14:00:26.021Z</time></trkpt><trkpt lat="41.9514218" lon="3.9586851"><ele>0.0</ele><time>2026-04-30T14:00:27.022Z</time></trkpt><trkpt lat="41.9514602" lon="3.9587884"><ele>0.0</ele><time>2026-04-30T14:00:28.021Z</time></trkpt><trkpt lat="41.9515" lon="3.9588918"><ele>0.0</ele><time>2026-04-30T14:00:29.022Z</time></trkpt><trkpt lat="41.9515401" lon="3.958995"><ele>0.0</ele><time>2026-04-30T14:00:30.022Z</time></trkpt><trkpt lat="41.9515757" lon="3.9590941"><ele>0.0</ele><time>2026-04-30T14:00:31.021Z</time></trkpt><trkpt lat="41.9516135" lon="3.9591952"><ele>0.0</ele><time>2026-04-30T14:00:32.022Z</time></trkpt><trkpt lat="41.951655" lon="3.9592994"><ele>0.0</ele><time>2026-04-30T14:00:33.022Z</time></trkpt><trkpt lat="41.9516952" lon="3.9594032"><ele>0.0</ele><time>2026-04-30T14:00:34.022Z</time></trkpt><trkpt lat="41.9517368" lon="3.9595037"><ele>0.0</ele><time>2026-04-30T14:00:35.022Z</time></trkpt><trkpt lat="41.9517771" lon="3.9596066"><ele>0.0</ele><time>2026-04-30T14:00:36.022Z</time></trkpt><trkpt lat="41.951855" lon="3.9598122"><ele>0.0</ele><time>2026-04-30T14:00:38.021Z</time></trkpt><trkpt lat="41.9518951" lon="3.9599136"><ele>0.0</ele><time>2026-04-30T14:00:39.022Z</time></trkpt><trkpt lat="41.9519368" lon="3.9600153"><ele>0.0</ele><time>2026-04-30T14:00:40.021Z</time></trkpt><trkpt lat="41.9519782" lon="3.9601183"><ele>0.0</ele><time>2026-04-30T14:00:41.021Z</time></trkpt><trkpt lat="41.9520185" lon="3.9602218"><ele>0.0</ele><time>2026-04-30T14:00:42.022Z</time></trkpt><trkpt lat="41.95206" lon="3.9603266"><ele>0.0</ele><time>2026-04-30T14:00:43.021Z</time></trkpt><trkpt lat="41.952103" lon="3.9604311"><ele>0.0</ele><time>2026-04-30T14:00:44.021Z</time></trkpt><trkpt lat="41.9521832" lon="3.9606415"><ele>0.0</ele><time>2026-04-30T14:00:46.021Z</time></trkpt><trkpt lat="41.9522219" lon="3.9607437"><ele>0.0</ele><time>2026-04-30T14:00:47.022Z</time></trkpt><trkpt lat="41.9522601" lon="3.9608453"><ele>0.0</ele><time>2026-04-30T14:00:48.021Z</time></trkpt><trkpt lat="41.9522987" lon="3.9609469"><ele>0.0</ele><time>2026-04-30T14:00:49.022Z</time></trkpt><trkpt lat="41.9523382" lon="3.96105"><ele>0.0</ele><time>2026-04-30T14:00:50.021Z</time></trkpt><trkpt lat="41.9523754" lon="3.9611534"><ele>0.0</ele><time>2026-04-30T14:00:51.022Z</time></trkpt><trkpt lat="41.9524133" lon="3.9612581"><ele>0.0</ele><time>2026-04-30T14:00:52.021Z</time></trkpt><trkpt lat="41.9524519" lon="3.9613599"><ele>0.0</ele><time>2026-04-30T14:00:53.022Z</time></trkpt><trkpt lat="41.9524917" lon="3.9614616"><ele>0.0</ele><time>2026-04-30T14:00:54.022Z</time></trkpt><trkpt lat="41.9525289" lon="3.9615605"><ele>0.0</ele><time>2026-04-30T14:00:55.022Z</time></trkpt><trkpt lat="41.9525699" lon="3.9616646"><ele>0.0</ele><time>2026-04-30T14:00:56.021Z</time></trkpt><trkpt lat="41.9526101" lon="3.9617682"><ele>0.0</ele><time>2026-04-30T14:00:57.021Z</time></trkpt><trkpt lat="41.9526531" lon="3.9618743"><ele>0.0</ele><time>2026-04-30T14:00:58.021Z</time></trkpt><trkpt lat="41.9526966" lon="3.9619811"><ele>0.0</ele><time>2026-04-30T14:00:59.022Z</time></trkpt><trkpt lat="41.9527367" lon="3.9620868"><ele>0.0</ele><time>2026-04-30T14:01:00.021Z</time></trkpt><trkpt lat="41.9527766" lon="3.9621902"><ele>0.0</ele><time>2026-04-30T14:01:01.021Z</time></trkpt><trkpt lat="41.9528167" lon="3.9622938"><ele>0.0</ele><time>2026-04-30T14:01:02.021Z</time></trkpt><trkpt lat="41.9528552" lon="3.9623969"><ele>0.0</ele><time>2026-04-30T14:01:03.021Z</time></trkpt><trkpt lat="41.9528936" lon="3.9625018"><ele>0.0</ele><time>2026-04-30T14:01:04.021Z</time></trkpt><trkpt lat="41.952932" lon="3.9625998"><ele>0.0</ele><time>2026-04-30T14:01:05.021Z</time></trkpt><trkpt lat="41.9530088" lon="3.9628021"><ele>0.0</ele><time>2026-04-30T14:01:07.022Z</time></trkpt><trkpt lat="41.9530482" lon="3.9629065"><ele>0.0</ele><time>2026-04-30T14:01:08.021Z</time></trkpt><trkpt lat="41.9531219" lon="3.9631147"><ele>0.0</ele><time>2026-04-30T14:01:10.022Z</time></trkpt><trkpt lat="41.9531618" lon="3.9632181"><ele>0.0</ele><time>2026-04-30T14:01:11.022Z</time></trkpt><trkpt lat="41.9532015" lon="3.9633215"><ele>0.0</ele><time>2026-04-30T14:01:12.021Z</time></trkpt><trkpt lat="41.9532399" lon="3.9634279"><ele>0.0</ele><time>2026-04-30T14:01:13.021Z</time></trkpt><trkpt lat="41.9532784" lon="3.9635317"><ele>0.0</ele><time>2026-04-30T14:01:14.022Z</time></trkpt><trkpt lat="41.953312" lon="3.9636381"><ele>0.0</ele><time>2026-04-30T14:01:15.021Z</time></trkpt><trkpt lat="41.95335" lon="3.9637447"><ele>0.0</ele><time>2026-04-30T14:01:16.022Z</time></trkpt><trkpt lat="41.9533904" lon="3.9638512"><ele>0.0</ele><time>2026-04-30T14:01:17.022Z</time></trkpt><trkpt lat="41.9534287" lon="3.9639549"><ele>0.0</ele><time>2026-04-30T14:01:18.02Z</time></trkpt><trkpt lat="41.9534669" lon="3.9640556"><ele>0.0</ele><time>2026-04-30T14:01:19.02Z</time></trkpt><trkpt lat="41.9535039" lon="3.964154"><ele>0.0</ele><time>2026-04-30T14:01:20.02Z</time></trkpt><trkpt lat="41.9535432" lon="3.9642567"><ele>0.0</ele><time>2026-04-30T14:01:21.02Z</time></trkpt><trkpt lat="41.953582" lon="3.964357"><ele>0.0</ele><time>2026-04-30T14:01:22.02Z</time></trkpt><trkpt lat="41.9536199" lon="3.9644584"><ele>0.0</ele><time>2026-04-30T14:01:23.021Z</time></trkpt><trkpt lat="41.9536568" lon="3.964563"><ele>0.0</ele><time>2026-04-30T14:01:24.02Z</time></trkpt><trkpt lat="41.9536968" lon="3.9646666"><ele>0.0</ele><time>2026-04-30T14:01:25.02Z</time></trkpt><trkpt lat="41.9537352" lon="3.9647701"><ele>0.0</ele><time>2026-04-30T14:01:26.02Z</time></trkpt><trkpt lat="41.9538122" lon="3.9649741"><ele>0.0</ele><time>2026-04-30T14:01:28.021Z</time></trkpt><trkpt lat="41.9538505" lon="3.9650768"><ele>0.0</ele><time>2026-04-30T14:01:29.02Z</time></trkpt><trkpt lat="41.9538904" lon="3.9651798"><ele>0.0</ele><time>2026-04-30T14:01:30.02Z</time></trkpt><trkpt lat="41.953926" lon="3.9652842"><ele>0.0</ele><time>2026-04-30T14:01:31.02Z</time></trkpt><trkpt lat="41.953967" lon="3.9653847"><ele>0.0</ele><time>2026-04-30T14:01:32.021Z</time></trkpt><trkpt lat="41.9540103" lon="3.9654845"><ele>0.0</ele><time>2026-04-30T14:01:33.02Z</time></trkpt><trkpt lat="41.9540552" lon="3.9655829"><ele>0.0</ele><time>2026-04-30T14:01:34.02Z</time></trkpt><trkpt lat="41.9540988" lon="3.9656817"><ele>0.0</ele><time>2026-04-30T14:01:35.02Z</time></trkpt><trkpt lat="41.9541405" lon="3.9657857"><ele>0.0</ele><time>2026-04-30T14:01:36.021Z</time></trkpt><trkpt lat="41.9541839" lon="3.9658832"><ele>0.0</ele><time>2026-04-30T14:01:37.02Z</time></trkpt><trkpt lat="41.9542254" lon="3.9659843"><ele>0.0</ele><time>2026-04-30T14:01:38.021Z</time></trkpt><trkpt lat="41.9542685" lon="3.9660861"><ele>0.0</ele><time>2026-04-30T14:01:39.021Z</time></trkpt><trkpt lat="41.9543135" lon="3.9661878"><ele>0.0</ele><time>2026-04-30T14:01:40.021Z</time></trkpt><trkpt lat="41.9544004" lon="3.9663964"><ele>0.0</ele><time>2026-04-30T14:01:42.02Z</time></trkpt><trkpt lat="41.9544368" lon="3.9665008"><ele>0.0</ele><time>2026-04-30T14:01:43.02Z</time></trkpt><trkpt lat="41.9544787" lon="3.9666041"><ele>0.0</ele><time>2026-04-30T14:01:44.021Z</time></trkpt><trkpt lat="41.9545199" lon="3.9667125"><ele>0.0</ele><time>2026-04-30T14:01:45.021Z</time></trkpt><trkpt lat="41.9545566" lon="3.9668231"><ele>0.0</ele><time>2026-04-30T14:01:46.021Z</time></trkpt><trkpt lat="41.9545933" lon="3.9669318"><ele>0.0</ele><time>2026-04-30T14:01:47.02Z</time></trkpt><trkpt lat="41.954672" lon="3.9671466"><ele>0.0</ele><time>2026-04-30T14:01:49.021Z</time></trkpt><trkpt lat="41.9547084" lon="3.9672533"><ele>0.0</ele><time>2026-04-30T14:01:50.02Z</time></trkpt><trkpt lat="41.9547468" lon="3.9673587"><ele>0.0</ele><time>2026-04-30T14:01:51.021Z</time></trkpt><trkpt lat="41.9547851" lon="3.967465"><ele>0.0</ele><time>2026-04-30T14:01:52.021Z</time></trkpt><trkpt lat="41.9548233" lon="3.9675715"><ele>0.0</ele><time>2026-04-30T14:01:53.021Z</time></trkpt><trkpt lat="41.9548584" lon="3.9676757"><ele>0.0</ele><time>2026-04-30T14:01:54.02Z</time></trkpt><trkpt lat="41.9548936" lon="3.9677803"><ele>0.0</ele><time>2026-04-30T14:01:55.02Z</time></trkpt><trkpt lat="41.9549317" lon="3.9678837"><ele>0.0</ele><time>2026-04-30T14:01:56.02Z</time></trkpt><trkpt lat="41.9549686" lon="3.9679898"><ele>0.0</ele><time>2026-04-30T14:01:57.021Z</time></trkpt><trkpt lat="41.9550053" lon="3.9680922"><ele>0.0</ele><time>2026-04-30T14:01:58.021Z</time></trkpt><trkpt lat="41.9550419" lon="3.9681937"><ele>0.0</ele><time>2026-04-30T14:01:59.021Z</time></trkpt><trkpt lat="41.9550783" lon="3.9682982"><ele>0.0</ele><time>2026-04-30T14:02:00.021Z</time></trkpt><trkpt lat="41.9551166" lon="3.9684018"><ele>0.0</ele><time>2026-04-30T14:02:01.02Z</time></trkpt><trkpt lat="41.9551533" lon="3.9685067"><ele>0.0</ele><time>2026-04-30T14:02:02.02Z</time></trkpt><trkpt lat="41.9551903" lon="3.9686119"><ele>0.0</ele><time>2026-04-30T14:02:03.02Z</time></trkpt><trkpt lat="41.955226" lon="3.9687124"><ele>0.0</ele><time>2026-04-30T14:02:04.02Z</time></trkpt><trkpt lat="41.9552609" lon="3.9688098"><ele>0.0</ele><time>2026-04-30T14:02:05.021Z</time></trkpt><trkpt lat="41.9552926" lon="3.9689122"><ele>0.0</ele><time>2026-04-30T14:02:06.021Z</time></trkpt><trkpt lat="41.9553286" lon="3.9690152"><ele>0.0</ele><time>2026-04-30T14:02:07.021Z</time></trkpt><trkpt lat="41.9553687" lon="3.9691169"><ele>0.0</ele><time>2026-04-30T14:02:08.021Z</time></trkpt><trkpt lat="41.9554453" lon="3.9693196"><ele>0.0</ele><time>2026-04-30T14:02:10.02Z</time></trkpt><trkpt lat="41.9554766" lon="3.9694228"><ele>0.0</ele><time>2026-04-30T14:02:11.02Z</time></trkpt><trkpt lat="41.9555154" lon="3.9695217"><ele>0.0</ele><time>2026-04-30T14:02:12.021Z</time></trkpt><trkpt lat="41.9556" lon="3.9697211"><ele>0.0</ele><time>2026-04-30T14:02:14.021Z</time></trkpt><trkpt lat="41.9556419" lon="3.969823"><ele>0.0</ele><time>2026-04-30T14:02:15.02Z</time></trkpt><trkpt lat="41.9556853" lon="3.969922"><ele>0.0</ele><time>2026-04-30T14:02:16.021Z</time></trkpt><trkpt lat="41.9557255" lon="3.970023"><ele>0.0</ele><time>2026-04-30T14:02:17.02Z</time></trkpt><trkpt lat="41.9557652" lon="3.9701274"><ele>0.0</ele><time>2026-04-30T14:02:18.02Z</time></trkpt><trkpt lat="41.9558051" lon="3.9702313"><ele>0.0</ele><time>2026-04-30T14:02:19.021Z</time></trkpt><trkpt lat="41.9558441" lon="3.9703326"><ele>0.0</ele><time>2026-04-30T14:02:20.02Z</time></trkpt><trkpt lat="41.9558851" lon="3.970437"><ele>0.0</ele><time>2026-04-30T14:02:21.021Z</time></trkpt><trkpt lat="41.9559253" lon="3.9705398"><ele>0.0</ele><time>2026-04-30T14:02:22.021Z</time></trkpt><trkpt lat="41.9559649" lon="3.9706462"><ele>0.0</ele><time>2026-04-30T14:02:23.02Z</time></trkpt><trkpt lat="41.9560002" lon="3.9707558"><ele>0.0</ele><time>2026-04-30T14:02:24.02Z</time></trkpt><trkpt lat="41.9560347" lon="3.9708662"><ele>0.0</ele><time>2026-04-30T14:02:25.021Z</time></trkpt><trkpt lat="41.9560698" lon="3.9709777"><ele>0.0</ele><time>2026-04-30T14:02:26.021Z</time></trkpt><trkpt lat="41.9561039" lon="3.9710892"><ele>0.0</ele><time>2026-04-30T14:02:27.02Z</time></trkpt><trkpt lat="41.9561397" lon="3.9712039"><ele>0.0</ele><time>2026-04-30T14:02:28.021Z</time></trkpt><trkpt lat="41.9561734" lon="3.9713102"><ele>0.0</ele><time>2026-04-30T14:02:29.021Z</time></trkpt><trkpt lat="41.9562431" lon="3.9715235"><ele>0.0</ele><time>2026-04-30T14:02:31.021Z</time></trkpt><trkpt lat="41.9562868" lon="3.9716259"><ele>0.0</ele><time>2026-04-30T14:02:32.021Z</time></trkpt><trkpt lat="41.9563246" lon="3.9717363"><ele>0.0</ele><time>2026-04-30T14:02:33.021Z</time></trkpt><trkpt lat="41.9563631" lon="3.971842"><ele>0.0</ele><time>2026-04-30T14:02:34.021Z</time></trkpt><trkpt lat="41.9564014" lon="3.9719511"><ele>0.0</ele><time>2026-04-30T14:02:35.02Z</time></trkpt><trkpt lat="41.9564381" lon="3.9720554"><ele>0.0</ele><time>2026-04-30T14:02:36.02Z</time></trkpt><trkpt lat="41.9564753" lon="3.9721603"><ele>0.0</ele><time>2026-04-30T14:02:37.021Z</time></trkpt><trkpt lat="41.9565101" lon="3.9722637"><ele>0.0</ele><time>2026-04-30T14:02:38.021Z</time></trkpt><trkpt lat="41.9565467" lon="3.9723714"><ele>0.0</ele><time>2026-04-30T14:02:39.021Z</time></trkpt><trkpt lat="41.9565851" lon="3.9724722"><ele>0.0</ele><time>2026-04-30T14:02:40.021Z</time></trkpt><trkpt lat="41.9566251" lon="3.9725735"><ele>0.0</ele><time>2026-04-30T14:02:41.02Z</time></trkpt><trkpt lat="41.9566667" lon="3.9726764"><ele>0.0</ele><time>2026-04-30T14:02:42.02Z</time></trkpt><trkpt lat="41.9567096" lon="3.9727827"><ele>0.0</ele><time>2026-04-30T14:02:43.02Z</time></trkpt><trkpt lat="41.9567485" lon="3.9728884"><ele>0.0</ele><time>2026-04-30T14:02:44.02Z</time></trkpt><trkpt lat="41.9568268" lon="3.9730883"><ele>0.0</ele><time>2026-04-30T14:02:46.02Z</time></trkpt><trkpt lat="41.9568667" lon="3.9731899"><ele>0.0</ele><time>2026-04-30T14:02:47.021Z</time></trkpt><trkpt lat="41.9569067" lon="3.9732944"><ele>0.0</ele><time>2026-04-30T14:02:48.02Z</time></trkpt><trkpt lat="41.9569453" lon="3.9733953"><ele>0.0</ele><time>2026-04-30T14:02:49.02Z</time></trkpt><trkpt lat="41.956982" lon="3.9734972"><ele>0.0</ele><time>2026-04-30T14:02:50.021Z</time></trkpt><trkpt lat="41.9570582" lon="3.9737017"><ele>0.0</ele><time>2026-04-30T14:02:52.02Z</time></trkpt><trkpt lat="41.9570998" lon="3.9738049"><ele>0.0</ele><time>2026-04-30T14:02:53.02Z</time></trkpt><trkpt lat="41.9571403" lon="3.9739074"><ele>0.0</ele><time>2026-04-30T14:02:54.02Z</time></trkpt><trkpt lat="41.9571842" lon="3.974006"><ele>0.0</ele><time>2026-04-30T14:02:55.021Z</time></trkpt><trkpt lat="41.9572266" lon="3.974104"><ele>0.0</ele><time>2026-04-30T14:02:56.02Z</time></trkpt><trkpt lat="41.9572685" lon="3.9742035"><ele>0.0</ele><time>2026-04-30T14:02:57.021Z</time></trkpt><trkpt lat="41.9573117" lon="3.974305"><ele>0.0</ele><time>2026-04-30T14:02:58.021Z</time></trkpt><trkpt lat="41.9573536" lon="3.9744051"><ele>0.0</ele><time>2026-04-30T14:02:59.021Z</time></trkpt><trkpt lat="41.9573983" lon="3.9745066"><ele>0.0</ele><time>2026-04-30T14:03:00.021Z</time></trkpt><trkpt lat="41.9574433" lon="3.9746081"><ele>0.0</ele><time>2026-04-30T14:03:01.02Z</time></trkpt><trkpt lat="41.9574866" lon="3.9747082"><ele>0.0</ele><time>2026-04-30T14:03:02.02Z</time></trkpt><trkpt lat="41.9575309" lon="3.9748099"><ele>0.0</ele><time>2026-04-30T14:03:03.021Z</time></trkpt><trkpt lat="41.957573" lon="3.9749147"><ele>0.0</ele><time>2026-04-30T14:03:04.02Z</time></trkpt><trkpt lat="41.9576134" lon="3.9750182"><ele>0.0</ele><time>2026-04-30T14:03:05.02Z</time></trkpt><trkpt lat="41.9576549" lon="3.9751216"><ele>0.0</ele><time>2026-04-30T14:03:06.02Z</time></trkpt><trkpt lat="41.9576967" lon="3.9752275"><ele>0.0</ele><time>2026-04-30T14:03:07.02Z</time></trkpt><trkpt lat="41.9577416" lon="3.9753311"><ele>0.0</ele><time>2026-04-30T14:03:08.021Z</time></trkpt><trkpt lat="41.957785" lon="3.975433"><ele>0.0</ele><time>2026-04-30T14:03:09.02Z</time></trkpt><trkpt lat="41.9578256" lon="3.9755336"><ele>0.0</ele><time>2026-04-30T14:03:10.021Z</time></trkpt><trkpt lat="41.9578666" lon="3.975635"><ele>0.0</ele><time>2026-04-30T14:03:11.021Z</time></trkpt><trkpt lat="41.9579467" lon="3.9758379"><ele>0.0</ele><time>2026-04-30T14:03:13.02Z</time></trkpt><trkpt lat="41.9579883" lon="3.9759427"><ele>0.0</ele><time>2026-04-30T14:03:14.02Z</time></trkpt><trkpt lat="41.9580286" lon="3.9760434"><ele>0.0</ele><time>2026-04-30T14:03:15.02Z</time></trkpt><trkpt lat="41.95807" lon="3.9761449"><ele>0.0</ele><time>2026-04-30T14:03:16.02Z</time></trkpt><trkpt lat="41.9581501" lon="3.9763484"><ele>0.0</ele><time>2026-04-30T14:03:18.021Z</time></trkpt><trkpt lat="41.9581861" lon="3.97645"><ele>0.0</ele><time>2026-04-30T14:03:19.021Z</time></trkpt><trkpt lat="41.9582236" lon="3.9765518"><ele>0.0</ele><time>2026-04-30T14:03:20.021Z</time></trkpt><trkpt lat="41.9582602" lon="3.9766565"><ele>0.0</ele><time>2026-04-30T14:03:21.02Z</time></trkpt><trkpt lat="41.9582981" lon="3.9767575"><ele>0.0</ele><time>2026-04-30T14:03:22.02Z</time></trkpt><trkpt lat="41.9583366" lon="3.9768617"><ele>0.0</ele><time>2026-04-30T14:03:23.021Z</time></trkpt><trkpt lat="41.9583751" lon="3.976965"><ele>0.0</ele><time>2026-04-30T14:03:24.02Z</time></trkpt><trkpt lat="41.9584125" lon="3.9770765"><ele>0.0</ele><time>2026-04-30T14:03:25.02Z</time></trkpt><trkpt lat="41.9584479" lon="3.9771826"><ele>0.0</ele><time>2026-04-30T14:03:26.02Z</time></trkpt><trkpt lat="41.9584689" lon="3.9772821"><ele>0.0</ele><time>2026-04-30T14:03:27.02Z</time></trkpt><trkpt lat="41.9585073" lon="3.9773832"><ele>0.0</ele><time>2026-04-30T14:03:28.02Z</time></trkpt><trkpt lat="41.9585498" lon="3.9774849"><ele>0.0</ele><time>2026-04-30T14:03:29.021Z</time></trkpt><trkpt lat="41.9585902" lon="3.9775864"><ele>0.0</ele><time>2026-04-30T14:03:30.021Z</time></trkpt><trkpt lat="41.9586306" lon="3.9776898"><ele>0.0</ele><time>2026-04-30T14:03:31.021Z</time></trkpt><trkpt lat="41.9586687" lon="3.9777903"><ele>0.0</ele><time>2026-04-30T14:03:32.02Z</time></trkpt><trkpt lat="41.9587417" lon="3.9780076"><ele>0.0</ele><time>2026-04-30T14:03:34.02Z</time></trkpt><trkpt lat="41.9587805" lon="3.9781136"><ele>0.0</ele><time>2026-04-30T14:03:35.02Z</time></trkpt><trkpt lat="41.9588194" lon="3.9782202"><ele>0.0</ele><time>2026-04-30T14:03:36.02Z</time></trkpt><trkpt lat="41.9588634" lon="3.9783195"><ele>0.0</ele><time>2026-04-30T14:03:37.02Z</time></trkpt><trkpt lat="41.9589014" lon="3.9784207"><ele>0.0</ele><time>2026-04-30T14:03:38.021Z</time></trkpt><trkpt lat="41.9589395" lon="3.9785225"><ele>0.0</ele><time>2026-04-30T14:03:39.021Z</time></trkpt><trkpt lat="41.958978" lon="3.9786255"><ele>0.0</ele><time>2026-04-30T14:03:40.021Z</time></trkpt><trkpt lat="41.9590181" lon="3.9787291"><ele>0.0</ele><time>2026-04-30T14:03:41.021Z</time></trkpt><trkpt lat="41.9590563" lon="3.9788304"><ele>0.0</ele><time>2026-04-30T14:03:42.021Z</time></trkpt><trkpt lat="41.9590934" lon="3.9789363"><ele>0.0</ele><time>2026-04-30T14:03:43.02Z</time></trkpt><trkpt lat="41.9591314" lon="3.9790401"><ele>0.0</ele><time>2026-04-30T14:03:44.02Z</time></trkpt><trkpt lat="41.9591739" lon="3.9791422"><ele>0.0</ele><time>2026-04-30T14:03:45.021Z</time></trkpt><trkpt lat="41.9592057" lon="3.9792484"><ele>0.0</ele><time>2026-04-30T14:03:46.02Z</time></trkpt><trkpt lat="41.9592351" lon="3.9793547"><ele>0.0</ele><time>2026-04-30T14:03:47.021Z</time></trkpt><trkpt lat="41.9592693" lon="3.9794598"><ele>0.0</ele><time>2026-04-30T14:03:48.021Z</time></trkpt><trkpt lat="41.9593361" lon="3.9796715"><ele>0.0</ele><time>2026-04-30T14:03:50.021Z</time></trkpt><trkpt lat="41.9593693" lon="3.9797721"><ele>0.0</ele><time>2026-04-30T14:03:51.02Z</time></trkpt><trkpt lat="41.9594098" lon="3.9798735"><ele>0.0</ele><time>2026-04-30T14:03:52.02Z</time></trkpt><trkpt lat="41.9594516" lon="3.9799806"><ele>0.0</ele><time>2026-04-30T14:03:53.021Z</time></trkpt><trkpt lat="41.9595334" lon="3.980188"><ele>0.0</ele><time>2026-04-30T14:03:55.02Z</time></trkpt><trkpt lat="41.9595707" lon="3.9802888"><ele>0.0</ele><time>2026-04-30T14:03:56.021Z</time></trkpt><trkpt lat="41.9596089" lon="3.9803885"><ele>0.0</ele><time>2026-04-30T14:03:57.021Z</time></trkpt><trkpt lat="41.9596473" lon="3.9804901"><ele>0.0</ele><time>2026-04-30T14:03:58.02Z</time></trkpt><trkpt lat="41.9596838" lon="3.9805934"><ele>0.0</ele><time>2026-04-30T14:03:59.021Z</time></trkpt><trkpt lat="41.9597175" lon="3.9806997"><ele>0.0</ele><time>2026-04-30T14:04:00.021Z</time></trkpt><trkpt lat="41.9597555" lon="3.9808004"><ele>0.0</ele><time>2026-04-30T14:04:01.021Z</time></trkpt><trkpt lat="41.959797" lon="3.9809028"><ele>0.0</ele><time>2026-04-30T14:04:02.021Z</time></trkpt><trkpt lat="41.9598373" lon="3.9810049"><ele>0.0</ele><time>2026-04-30T14:04:03.02Z</time></trkpt><trkpt lat="41.9598801" lon="3.9811079"><ele>0.0</ele><time>2026-04-30T14:04:04.02Z</time></trkpt><trkpt lat="41.959922" lon="3.9812113"><ele>0.0</ele><time>2026-04-30T14:04:05.021Z</time></trkpt><trkpt lat="41.9599647" lon="3.9813136"><ele>0.0</ele><time>2026-04-30T14:04:06.021Z</time></trkpt><trkpt lat="41.960005" lon="3.9814166"><ele>0.0</ele><time>2026-04-30T14:04:07.021Z</time></trkpt><trkpt lat="41.9600432" lon="3.9815216"><ele>0.0</ele><time>2026-04-30T14:04:08.02Z</time></trkpt><trkpt lat="41.9600832" lon="3.9816265"><ele>0.0</ele><time>2026-04-30T14:04:09.02Z</time></trkpt><trkpt lat="41.9601237" lon="3.9817281"><ele>0.0</ele><time>2026-04-30T14:04:10.02Z</time></trkpt><trkpt lat="41.9601653" lon="3.981827"><ele>0.0</ele><time>2026-04-30T14:04:11.021Z</time></trkpt><trkpt lat="41.9602024" lon="3.9819337"><ele>0.0</ele><time>2026-04-30T14:04:12.02Z</time></trkpt><trkpt lat="41.9602433" lon="3.982039"><ele>0.0</ele><time>2026-04-30T14:04:13.02Z</time></trkpt><trkpt lat="41.9603266" lon="3.9822465"><ele>0.0</ele><time>2026-04-30T14:04:15.02Z</time></trkpt><trkpt lat="41.9603651" lon="3.9823501"><ele>0.0</ele><time>2026-04-30T14:04:16.021Z</time></trkpt><trkpt lat="41.9604019" lon="3.9824549"><ele>0.0</ele><time>2026-04-30T14:04:17.021Z</time></trkpt><trkpt lat="41.9604416" lon="3.9825583"><ele>0.0</ele><time>2026-04-30T14:04:18.02Z</time></trkpt><trkpt lat="41.9604815" lon="3.9826643"><ele>0.0</ele><time>2026-04-30T14:04:19.02Z</time></trkpt><trkpt lat="41.9605202" lon="3.9827684"><ele>0.0</ele><time>2026-04-30T14:04:20.021Z</time></trkpt><trkpt lat="41.9605985" lon="3.9829699"><ele>0.0</ele><time>2026-04-30T14:04:22.02Z</time></trkpt><trkpt lat="41.9606369" lon="3.9830719"><ele>0.0</ele><time>2026-04-30T14:04:23.021Z</time></trkpt><trkpt lat="41.960677" lon="3.9831732"><ele>0.0</ele><time>2026-04-30T14:04:24.02Z</time></trkpt><trkpt lat="41.9607168" lon="3.983275"><ele>0.0</ele><time>2026-04-30T14:04:25.021Z</time></trkpt><trkpt lat="41.960758" lon="3.9833794"><ele>0.0</ele><time>2026-04-30T14:04:26.02Z</time></trkpt><trkpt lat="41.9607969" lon="3.9834836"><ele>0.0</ele><time>2026-04-30T14:04:27.021Z</time></trkpt><trkpt lat="41.9608366" lon="3.9835869"><ele>0.0</ele><time>2026-04-30T14:04:28.02Z</time></trkpt><trkpt lat="41.9608733" lon="3.9836917"><ele>0.0</ele><time>2026-04-30T14:04:29.02Z</time></trkpt><trkpt lat="41.9609118" lon="3.983795"><ele>0.0</ele><time>2026-04-30T14:04:30.02Z</time></trkpt><trkpt lat="41.9609503" lon="3.9838967"><ele>0.0</ele><time>2026-04-30T14:04:31.02Z</time></trkpt><trkpt lat="41.9609915" lon="3.9839998"><ele>0.0</ele><time>2026-04-30T14:04:32.021Z</time></trkpt><trkpt lat="41.9610335" lon="3.9841027"><ele>0.0</ele><time>2026-04-30T14:04:33.021Z</time></trkpt><trkpt lat="41.9610755" lon="3.9842018"><ele>0.0</ele><time>2026-04-30T14:04:34.02Z</time></trkpt><trkpt lat="41.9611612" lon="3.9844106"><ele>0.0</ele><time>2026-04-30T14:04:36.02Z</time></trkpt><trkpt lat="41.9612031" lon="3.9845162"><ele>0.0</ele><time>2026-04-30T14:04:37.02Z</time></trkpt><trkpt lat="41.9612479" lon="3.9846226"><ele>0.0</ele><time>2026-04-30T14:04:38.02Z</time></trkpt><trkpt lat="41.9612902" lon="3.9847249"><ele>0.0</ele><time>2026-04-30T14:04:39.02Z</time></trkpt><trkpt lat="41.9613299" lon="3.9848296"><ele>0.0</ele><time>2026-04-30T14:04:40.02Z</time></trkpt><trkpt lat="41.9613669" lon="3.9849334"><ele>0.0</ele><time>2026-04-30T14:04:41.02Z</time></trkpt><trkpt lat="41.9614035" lon="3.9850368"><ele>0.0</ele><time>2026-04-30T14:04:42.02Z</time></trkpt><trkpt lat="41.9614436" lon="3.9851371"><ele>0.0</ele><time>2026-04-30T14:04:43.021Z</time></trkpt><trkpt lat="41.9614832" lon="3.9852399"><ele>0.0</ele><time>2026-04-30T14:04:44.02Z</time></trkpt><trkpt lat="41.9615236" lon="3.9853403"><ele>0.0</ele><time>2026-04-30T14:04:45.021Z</time></trkpt><trkpt lat="41.9615634" lon="3.9854419"><ele>0.0</ele><time>2026-04-30T14:04:46.02Z</time></trkpt><trkpt lat="41.9616051" lon="3.9855448"><ele>0.0</ele><time>2026-04-30T14:04:47.021Z</time></trkpt><trkpt lat="41.9616451" lon="3.9856469"><ele>0.0</ele><time>2026-04-30T14:04:48.021Z</time></trkpt><trkpt lat="41.9616849" lon="3.9857514"><ele>0.0</ele><time>2026-04-30T14:04:49.02Z</time></trkpt><trkpt lat="41.9617233" lon="3.9858568"><ele>0.0</ele><time>2026-04-30T14:04:50.021Z</time></trkpt><trkpt lat="41.9617619" lon="3.9859603"><ele>0.0</ele><time>2026-04-30T14:04:51.02Z</time></trkpt><trkpt lat="41.9618033" lon="3.9860629"><ele>0.0</ele><time>2026-04-30T14:04:52.021Z</time></trkpt><trkpt lat="41.9618815" lon="3.9862563"><ele>0.0</ele><time>2026-04-30T14:04:54.021Z</time></trkpt><trkpt lat="41.9619188" lon="3.9863569"><ele>0.0</ele><time>2026-04-30T14:04:55.02Z</time></trkpt><trkpt lat="41.9619903" lon="3.9865598"><ele>0.0</ele><time>2026-04-30T14:04:57.021Z</time></trkpt><trkpt lat="41.9620269" lon="3.9866649"><ele>0.0</ele><time>2026-04-30T14:04:58.021Z</time></trkpt><trkpt lat="41.9620619" lon="3.9867712"><ele>0.0</ele><time>2026-04-30T14:04:59.021Z</time></trkpt><trkpt lat="41.9620982" lon="3.9868792"><ele>0.0</ele><time>2026-04-30T14:05:00.021Z</time></trkpt><trkpt lat="41.9621381" lon="3.9869832"><ele>0.0</ele><time>2026-04-30T14:05:01.02Z</time></trkpt><trkpt lat="41.9621783" lon="3.9870849"><ele>0.0</ele><time>2026-04-30T14:05:02.021Z</time></trkpt><trkpt lat="41.9622172" lon="3.9871866"><ele>0.0</ele><time>2026-04-30T14:05:03.021Z</time></trkpt><trkpt lat="41.9622542" lon="3.987287"><ele>0.0</ele><time>2026-04-30T14:05:04.021Z</time></trkpt><trkpt lat="41.9622904" lon="3.9873896"><ele>0.0</ele><time>2026-04-30T14:05:05.02Z</time></trkpt><trkpt lat="41.9623283" lon="3.9874963"><ele>0.0</ele><time>2026-04-30T14:05:06.021Z</time></trkpt><trkpt lat="41.9623667" lon="3.9876045"><ele>0.0</ele><time>2026-04-30T14:05:07.02Z</time></trkpt><trkpt lat="41.9624069" lon="3.9877086"><ele>0.0</ele><time>2026-04-30T14:05:08.021Z</time></trkpt><trkpt lat="41.962442" lon="3.9878164"><ele>0.0</ele><time>2026-04-30T14:05:09.02Z</time></trkpt><trkpt lat="41.9624815" lon="3.9879217"><ele>0.0</ele><time>2026-04-30T14:05:10.021Z</time></trkpt><trkpt lat="41.9625201" lon="3.9880319"><ele>0.0</ele><time>2026-04-30T14:05:11.021Z</time></trkpt><trkpt lat="41.9625598" lon="3.9881364"><ele>0.0</ele><time>2026-04-30T14:05:12.021Z</time></trkpt><trkpt lat="41.9625984" lon="3.9882412"><ele>0.0</ele><time>2026-04-30T14:05:13.02Z</time></trkpt><trkpt lat="41.9626415" lon="3.9883447"><ele>0.0</ele><time>2026-04-30T14:05:14.021Z</time></trkpt><trkpt lat="41.9626821" lon="3.9884493"><ele>0.0</ele><time>2026-04-30T14:05:15.02Z</time></trkpt><trkpt lat="41.9627218" lon="3.9885516"><ele>0.0</ele><time>2026-04-30T14:05:16.02Z</time></trkpt><trkpt lat="41.9628048" lon="3.9887611"><ele>0.0</ele><time>2026-04-30T14:05:18.021Z</time></trkpt><trkpt lat="41.9628437" lon="3.9888566"><ele>0.0</ele><time>2026-04-30T14:05:19.02Z</time></trkpt><trkpt lat="41.962882" lon="3.9889588"><ele>0.0</ele><time>2026-04-30T14:05:20.02Z</time></trkpt><trkpt lat="41.9629216" lon="3.9890631"><ele>0.0</ele><time>2026-04-30T14:05:21.02Z</time></trkpt><trkpt lat="41.962962" lon="3.9891651"><ele>0.0</ele><time>2026-04-30T14:05:22.02Z</time></trkpt><trkpt lat="41.9630051" lon="3.9892681"><ele>0.0</ele><time>2026-04-30T14:05:23.02Z</time></trkpt><trkpt lat="41.9630486" lon="3.9893684"><ele>0.0</ele><time>2026-04-30T14:05:24.021Z</time></trkpt><trkpt lat="41.963132" lon="3.9895698"><ele>0.0</ele><time>2026-04-30T14:05:26.02Z</time></trkpt><trkpt lat="41.963175" lon="3.9896729"><ele>0.0</ele><time>2026-04-30T14:05:27.02Z</time></trkpt><trkpt lat="41.9632142" lon="3.989778"><ele>0.0</ele><time>2026-04-30T14:05:28.019Z</time></trkpt><trkpt lat="41.9632537" lon="3.9898819"><ele>0.0</ele><time>2026-04-30T14:05:29.019Z</time></trkpt><trkpt lat="41.9632902" lon="3.9899851"><ele>0.0</ele><time>2026-04-30T14:05:30.02Z</time></trkpt><trkpt lat="41.963322" lon="3.9900928"><ele>0.0</ele><time>2026-04-30T14:05:31.019Z</time></trkpt><trkpt lat="41.9633581" lon="3.9901999"><ele>0.0</ele><time>2026-04-30T14:05:32.02Z</time></trkpt><trkpt lat="41.9633953" lon="3.9903032"><ele>0.0</ele><time>2026-04-30T14:05:33.019Z</time></trkpt><trkpt lat="41.9634367" lon="3.9904048"><ele>0.0</ele><time>2026-04-30T14:05:34.019Z</time></trkpt><trkpt lat="41.9634769" lon="3.9905066"><ele>0.0</ele><time>2026-04-30T14:05:35.02Z</time></trkpt><trkpt lat="41.9635167" lon="3.9906102"><ele>0.0</ele><time>2026-04-30T14:05:36.019Z</time></trkpt><trkpt lat="41.9635602" lon="3.990712"><ele>0.0</ele><time>2026-04-30T14:05:37.02Z</time></trkpt><trkpt lat="41.9636354" lon="3.9909165"><ele>0.0</ele><time>2026-04-30T14:05:39.02Z</time></trkpt><trkpt lat="41.9636734" lon="3.9910218"><ele>0.0</ele><time>2026-04-30T14:05:40.019Z</time></trkpt><trkpt lat="41.9637119" lon="3.9911245"><ele>0.0</ele><time>2026-04-30T14:05:41.019Z</time></trkpt><trkpt lat="41.9637506" lon="3.9912266"><ele>0.0</ele><time>2026-04-30T14:05:42.02Z</time></trkpt><trkpt lat="41.9637934" lon="3.9913268"><ele>0.0</ele><time>2026-04-30T14:05:43.019Z</time></trkpt><trkpt lat="41.9638369" lon="3.9914295"><ele>0.0</ele><time>2026-04-30T14:05:44.02Z</time></trkpt><trkpt lat="41.9638802" lon="3.9915346"><ele>0.0</ele><time>2026-04-30T14:05:45.019Z</time></trkpt><trkpt lat="41.9639187" lon="3.9916369"><ele>0.0</ele><time>2026-04-30T14:05:46.02Z</time></trkpt><trkpt lat="41.9639555" lon="3.9917401"><ele>0.0</ele><time>2026-04-30T14:05:47.019Z</time></trkpt><trkpt lat="41.9639935" lon="3.9918405"><ele>0.0</ele><time>2026-04-30T14:05:48.019Z</time></trkpt><trkpt lat="41.9640318" lon="3.9919432"><ele>0.0</ele><time>2026-04-30T14:05:49.02Z</time></trkpt><trkpt lat="41.9640718" lon="3.9920451"><ele>0.0</ele><time>2026-04-30T14:05:50.019Z</time></trkpt><trkpt lat="41.9641117" lon="3.992148"><ele>0.0</ele><time>2026-04-30T14:05:51.019Z</time></trkpt><trkpt lat="41.9641531" lon="3.9922515"><ele>0.0</ele><time>2026-04-30T14:05:52.02Z</time></trkpt><trkpt lat="41.9641951" lon="3.9923535"><ele>0.0</ele><time>2026-04-30T14:05:53.019Z</time></trkpt><trkpt lat="41.9642368" lon="3.9924552"><ele>0.0</ele><time>2026-04-30T14:05:54.02Z</time></trkpt><trkpt lat="41.9642798" lon="3.9925581"><ele>0.0</ele><time>2026-04-30T14:05:55.019Z</time></trkpt><trkpt lat="41.9643235" lon="3.9926598"><ele>0.0</ele><time>2026-04-30T14:05:56.02Z</time></trkpt><trkpt lat="41.9644051" lon="3.992868"><ele>0.0</ele><time>2026-04-30T14:05:58.019Z</time></trkpt><trkpt lat="41.9644816" lon="3.9930777"><ele>0.0</ele><time>2026-04-30T14:06:00.02Z</time></trkpt><trkpt lat="41.9645202" lon="3.9931818"><ele>0.0</ele><time>2026-04-30T14:06:01.02Z</time></trkpt><trkpt lat="41.9645601" lon="3.9932848"><ele>0.0</ele><time>2026-04-30T14:06:02.019Z</time></trkpt><trkpt lat="41.9646005" lon="3.9933857"><ele>0.0</ele><time>2026-04-30T14:06:03.02Z</time></trkpt><trkpt lat="41.9646386" lon="3.9934853"><ele>0.0</ele><time>2026-04-30T14:06:04.02Z</time></trkpt><trkpt lat="41.9646782" lon="3.9935882"><ele>0.0</ele><time>2026-04-30T14:06:05.019Z</time></trkpt><trkpt lat="41.9647153" lon="3.9936915"><ele>0.0</ele><time>2026-04-30T14:06:06.019Z</time></trkpt><trkpt lat="41.9647532" lon="3.9937964"><ele>0.0</ele><time>2026-04-30T14:06:07.019Z</time></trkpt><trkpt lat="41.9647917" lon="3.9938998"><ele>0.0</ele><time>2026-04-30T14:06:08.019Z</time></trkpt><trkpt lat="41.9648283" lon="3.9940065"><ele>0.0</ele><time>2026-04-30T14:06:09.02Z</time></trkpt><trkpt lat="41.9648687" lon="3.9941086"><ele>0.0</ele><time>2026-04-30T14:06:10.019Z</time></trkpt><trkpt lat="41.9649101" lon="3.99421"><ele>0.0</ele><time>2026-04-30T14:06:11.019Z</time></trkpt><trkpt lat="41.9649518" lon="3.9943126"><ele>0.0</ele><time>2026-04-30T14:06:12.019Z</time></trkpt><trkpt lat="41.9649953" lon="3.9944161"><ele>0.0</ele><time>2026-04-30T14:06:13.019Z</time></trkpt><trkpt lat="41.9650402" lon="3.9945166"><ele>0.0</ele><time>2026-04-30T14:06:14.019Z</time></trkpt><trkpt lat="41.9650852" lon="3.9946199"><ele>0.0</ele><time>2026-04-30T14:06:15.019Z</time></trkpt><trkpt lat="41.9651285" lon="3.9947247"><ele>0.0</ele><time>2026-04-30T14:06:16.02Z</time></trkpt><trkpt lat="41.9651671" lon="3.9948282"><ele>0.0</ele><time>2026-04-30T14:06:17.019Z</time></trkpt><trkpt lat="41.965205" lon="3.9949319"><ele>0.0</ele><time>2026-04-30T14:06:18.02Z</time></trkpt><trkpt lat="41.965242" lon="3.9950377"><ele>0.0</ele><time>2026-04-30T14:06:19.02Z</time></trkpt><trkpt lat="41.9653149" lon="3.9952514"><ele>0.0</ele><time>2026-04-30T14:06:21.019Z</time></trkpt><trkpt lat="41.9653536" lon="3.9953534"><ele>0.0</ele><time>2026-04-30T14:06:22.02Z</time></trkpt><trkpt lat="41.9653952" lon="3.9954538"><ele>0.0</ele><time>2026-04-30T14:06:23.019Z</time></trkpt><trkpt lat="41.9654339" lon="3.9955551"><ele>0.0</ele><time>2026-04-30T14:06:24.019Z</time></trkpt><trkpt lat="41.9654735" lon="3.9956569"><ele>0.0</ele><time>2026-04-30T14:06:25.019Z</time></trkpt><trkpt lat="41.9655088" lon="3.995756"><ele>0.0</ele><time>2026-04-30T14:06:26.019Z</time></trkpt><trkpt lat="41.9655434" lon="3.9958602"><ele>0.0</ele><time>2026-04-30T14:06:27.019Z</time></trkpt><trkpt lat="41.96558" lon="3.9959622"><ele>0.0</ele><time>2026-04-30T14:06:28.02Z</time></trkpt><trkpt lat="41.9656567" lon="3.9961701"><ele>0.0</ele><time>2026-04-30T14:06:30.02Z</time></trkpt><trkpt lat="41.9656902" lon="3.9962755"><ele>0.0</ele><time>2026-04-30T14:06:31.019Z</time></trkpt><trkpt lat="41.9657292" lon="3.99638"><ele>0.0</ele><time>2026-04-30T14:06:32.019Z</time></trkpt><trkpt lat="41.9657664" lon="3.9964854"><ele>0.0</ele><time>2026-04-30T14:06:33.019Z</time></trkpt><trkpt lat="41.9657998" lon="3.9965877"><ele>0.0</ele><time>2026-04-30T14:06:34.019Z</time></trkpt><trkpt lat="41.9658299" lon="3.9966851"><ele>0.0</ele><time>2026-04-30T14:06:35.02Z</time></trkpt><trkpt lat="41.9658714" lon="3.9967847"><ele>0.0</ele><time>2026-04-30T14:06:36.02Z</time></trkpt><trkpt lat="41.9659093" lon="3.9968904"><ele>0.0</ele><time>2026-04-30T14:06:37.02Z</time></trkpt><trkpt lat="41.9659465" lon="3.9969965"><ele>0.0</ele><time>2026-04-30T14:06:38.019Z</time></trkpt><trkpt lat="41.9659864" lon="3.9971016"><ele>0.0</ele><time>2026-04-30T14:06:39.019Z</time></trkpt><trkpt lat="41.9660314" lon="3.9972062"><ele>0.0</ele><time>2026-04-30T14:06:40.019Z</time></trkpt><trkpt lat="41.9661199" lon="3.9974114"><ele>0.0</ele><time>2026-04-30T14:06:42.019Z</time></trkpt><trkpt lat="41.9661603" lon="3.997509"><ele>0.0</ele><time>2026-04-30T14:06:43.019Z</time></trkpt><trkpt lat="41.9662018" lon="3.9976087"><ele>0.0</ele><time>2026-04-30T14:06:44.02Z</time></trkpt><trkpt lat="41.9662419" lon="3.9977117"><ele>0.0</ele><time>2026-04-30T14:06:45.019Z</time></trkpt><trkpt lat="41.9662835" lon="3.9978129"><ele>0.0</ele><time>2026-04-30T14:06:46.02Z</time></trkpt><trkpt lat="41.9663267" lon="3.9979149"><ele>0.0</ele><time>2026-04-30T14:06:47.019Z</time></trkpt><trkpt lat="41.9663637" lon="3.998017"><ele>0.0</ele><time>2026-04-30T14:06:48.019Z</time></trkpt><trkpt lat="41.9664018" lon="3.9981199"><ele>0.0</ele><time>2026-04-30T14:06:49.019Z</time></trkpt><trkpt lat="41.9664418" lon="3.9982217"><ele>0.0</ele><time>2026-04-30T14:06:50.02Z</time></trkpt><trkpt lat="41.9664833" lon="3.9983233"><ele>0.0</ele><time>2026-04-30T14:06:51.019Z</time></trkpt><trkpt lat="41.9665233" lon="3.9984263"><ele>0.0</ele><time>2026-04-30T14:06:52.019Z</time></trkpt><trkpt lat="41.9665634" lon="3.99853"><ele>0.0</ele><time>2026-04-30T14:06:53.02Z</time></trkpt><trkpt lat="41.9666051" lon="3.9986332"><ele>0.0</ele><time>2026-04-30T14:06:54.02Z</time></trkpt><trkpt lat="41.9666434" lon="3.9987337"><ele>0.0</ele><time>2026-04-30T14:06:55.019Z</time></trkpt><trkpt lat="41.9666805" lon="3.9988348"><ele>0.0</ele><time>2026-04-30T14:06:56.02Z</time></trkpt><trkpt lat="41.9667143" lon="3.9989355"><ele>0.0</ele><time>2026-04-30T14:06:57.019Z</time></trkpt><trkpt lat="41.9667474" lon="3.9990369"><ele>0.0</ele><time>2026-04-30T14:06:58.019Z</time></trkpt><trkpt lat="41.9667803" lon="3.9991416"><ele>0.0</ele><time>2026-04-30T14:06:59.019Z</time></trkpt><trkpt lat="41.9668152" lon="3.9992452"><ele>0.0</ele><time>2026-04-30T14:07:00.02Z</time></trkpt><trkpt lat="41.9668488" lon="3.99935"><ele>0.0</ele><time>2026-04-30T14:07:01.019Z</time></trkpt><trkpt lat="41.9669182" lon="3.9995563"><ele>0.0</ele><time>2026-04-30T14:07:03.02Z</time></trkpt><trkpt lat="41.9669625" lon="3.9996582"><ele>0.0</ele><time>2026-04-30T14:07:04.019Z</time></trkpt><trkpt lat="41.9670082" lon="3.9997585"><ele>0.0</ele><time>2026-04-30T14:07:05.019Z</time></trkpt><trkpt lat="41.9670473" lon="3.9998611"><ele>0.0</ele><time>2026-04-30T14:07:06.019Z</time></trkpt><trkpt lat="41.9670901" lon="3.9999617"><ele>0.0</ele><time>2026-04-30T14:07:07.019Z</time></trkpt><trkpt lat="41.9671321" lon="4.0000602"><ele>0.0</ele><time>2026-04-30T14:07:08.02Z</time></trkpt><trkpt lat="41.9671766" lon="4.0001661"><ele>0.0</ele><time>2026-04-30T14:07:09.02Z</time></trkpt><trkpt lat="41.9672233" lon="4.0002695"><ele>0.0</ele><time>2026-04-30T14:07:10.019Z</time></trkpt><trkpt lat="41.9672682" lon="4.0003748"><ele>0.0</ele><time>2026-04-30T14:07:11.019Z</time></trkpt><trkpt lat="41.9673111" lon="4.0004783"><ele>0.0</ele><time>2026-04-30T14:07:12.02Z</time></trkpt><trkpt lat="41.9673474" lon="4.0005816"><ele>0.0</ele><time>2026-04-30T14:07:13.019Z</time></trkpt><trkpt lat="41.9673864" lon="4.0006848"><ele>0.0</ele><time>2026-04-30T14:07:14.02Z</time></trkpt><trkpt lat="41.9674281" lon="4.0007883"><ele>0.0</ele><time>2026-04-30T14:07:15.019Z</time></trkpt><trkpt lat="41.9674714" lon="4.0008928"><ele>0.0</ele><time>2026-04-30T14:07:16.02Z</time></trkpt><trkpt lat="41.9675123" lon="4.0009979"><ele>0.0</ele><time>2026-04-30T14:07:17.02Z</time></trkpt><trkpt lat="41.9675522" lon="4.0011044"><ele>0.0</ele><time>2026-04-30T14:07:18.02Z</time></trkpt><trkpt lat="41.9675903" lon="4.0012084"><ele>0.0</ele><time>2026-04-30T14:07:19.02Z</time></trkpt><trkpt lat="41.9676254" lon="4.0013144"><ele>0.0</ele><time>2026-04-30T14:07:20.02Z</time></trkpt><trkpt lat="41.967663" lon="4.0014225"><ele>0.0</ele><time>2026-04-30T14:07:21.02Z</time></trkpt><trkpt lat="41.9677015" lon="4.0015279"><ele>0.0</ele><time>2026-04-30T14:07:22.019Z</time></trkpt><trkpt lat="41.967767" lon="4.0017366"><ele>0.0</ele><time>2026-04-30T14:07:24.019Z</time></trkpt><trkpt lat="41.9678037" lon="4.00184"><ele>0.0</ele><time>2026-04-30T14:07:25.02Z</time></trkpt><trkpt lat="41.9678461" lon="4.0019432"><ele>0.0</ele><time>2026-04-30T14:07:26.02Z</time></trkpt><trkpt lat="41.9678885" lon="4.0020435"><ele>0.0</ele><time>2026-04-30T14:07:27.019Z</time></trkpt><trkpt lat="41.9679347" lon="4.0021434"><ele>0.0</ele><time>2026-04-30T14:07:28.02Z</time></trkpt><trkpt lat="41.9679789" lon="4.0022446"><ele>0.0</ele><time>2026-04-30T14:07:29.019Z</time></trkpt><trkpt lat="41.9680249" lon="4.0023466"><ele>0.0</ele><time>2026-04-30T14:07:30.019Z</time></trkpt><trkpt lat="41.9680661" lon="4.002447"><ele>0.0</ele><time>2026-04-30T14:07:31.02Z</time></trkpt><trkpt lat="41.9681056" lon="4.0025509"><ele>0.0</ele><time>2026-04-30T14:07:32.02Z</time></trkpt><trkpt lat="41.968182" lon="4.0027583"><ele>0.0</ele><time>2026-04-30T14:07:34.019Z</time></trkpt><trkpt lat="41.9682207" lon="4.0028645"><ele>0.0</ele><time>2026-04-30T14:07:35.019Z</time></trkpt><trkpt lat="41.9682587" lon="4.0029653"><ele>0.0</ele><time>2026-04-30T14:07:36.019Z</time></trkpt><trkpt lat="41.9682996" lon="4.0030668"><ele>0.0</ele><time>2026-04-30T14:07:37.02Z</time></trkpt><trkpt lat="41.9683429" lon="4.0031653"><ele>0.0</ele><time>2026-04-30T14:07:38.019Z</time></trkpt><trkpt lat="41.9683654" lon="4.0032649"><ele>0.0</ele><time>2026-04-30T14:07:39.02Z</time></trkpt><trkpt lat="41.9684052" lon="4.0033648"><ele>0.0</ele><time>2026-04-30T14:07:40.02Z</time></trkpt><trkpt lat="41.9684452" lon="4.0034692"><ele>0.0</ele><time>2026-04-30T14:07:41.019Z</time></trkpt><trkpt lat="41.9684853" lon="4.0035716"><ele>0.0</ele><time>2026-04-30T14:07:42.02Z</time></trkpt><trkpt lat="41.9685279" lon="4.0036734"><ele>0.0</ele><time>2026-04-30T14:07:43.019Z</time></trkpt><trkpt lat="41.9686116" lon="4.0038801"><ele>0.0</ele><time>2026-04-30T14:07:45.019Z</time></trkpt><trkpt lat="41.9686518" lon="4.0039832"><ele>0.0</ele><time>2026-04-30T14:07:46.02Z</time></trkpt><trkpt lat="41.9686916" lon="4.0040867"><ele>0.0</ele><time>2026-04-30T14:07:47.019Z</time></trkpt><trkpt lat="41.9687289" lon="4.0041899"><ele>0.0</ele><time>2026-04-30T14:07:48.02Z</time></trkpt><trkpt lat="41.968771" lon="4.0042929"><ele>0.0</ele><time>2026-04-30T14:07:49.02Z</time></trkpt><trkpt lat="41.9688005" lon="4.0044006"><ele>0.0</ele><time>2026-04-30T14:07:50.019Z</time></trkpt><trkpt lat="41.9688333" lon="4.0045059"><ele>0.0</ele><time>2026-04-30T14:07:51.019Z</time></trkpt><trkpt lat="41.9688647" lon="4.0046097"><ele>0.0</ele><time>2026-04-30T14:07:52.019Z</time></trkpt><trkpt lat="41.9689006" lon="4.0047148"><ele>0.0</ele><time>2026-04-30T14:07:53.019Z</time></trkpt><trkpt lat="41.9689383" lon="4.0048171"><ele>0.0</ele><time>2026-04-30T14:07:54.019Z</time></trkpt><trkpt lat="41.9689726" lon="4.0049216"><ele>0.0</ele><time>2026-04-30T14:07:55.02Z</time></trkpt><trkpt lat="41.9690072" lon="4.0050235"><ele>0.0</ele><time>2026-04-30T14:07:56.019Z</time></trkpt><trkpt lat="41.9690435" lon="4.0051267"><ele>0.0</ele><time>2026-04-30T14:07:57.019Z</time></trkpt><trkpt lat="41.9690858" lon="4.00523"><ele>0.0</ele><time>2026-04-30T14:07:58.02Z</time></trkpt><trkpt lat="41.9691266" lon="4.0053318"><ele>0.0</ele><time>2026-04-30T14:07:59.02Z</time></trkpt><trkpt lat="41.9691655" lon="4.0054305"><ele>0.0</ele><time>2026-04-30T14:08:00.02Z</time></trkpt><trkpt lat="41.9692107" lon="4.0055334"><ele>0.0</ele><time>2026-04-30T14:08:01.02Z</time></trkpt><trkpt lat="41.9692551" lon="4.005635"><ele>0.0</ele><time>2026-04-30T14:08:02.019Z</time></trkpt><trkpt lat="41.9692996" lon="4.0057381"><ele>0.0</ele><time>2026-04-30T14:08:03.02Z</time></trkpt><trkpt lat="41.9693421" lon="4.0058425"><ele>0.0</ele><time>2026-04-30T14:08:04.019Z</time></trkpt><trkpt lat="41.9694604" lon="4.0061443"><ele>0.0</ele><time>2026-04-30T14:08:07.02Z</time></trkpt><trkpt lat="41.9695" lon="4.0062483"><ele>0.0</ele><time>2026-04-30T14:08:08.019Z</time></trkpt><trkpt lat="41.9695382" lon="4.0063532"><ele>0.0</ele><time>2026-04-30T14:08:09.019Z</time></trkpt><trkpt lat="41.9695791" lon="4.0064539"><ele>0.0</ele><time>2026-04-30T14:08:10.02Z</time></trkpt><trkpt lat="41.9696233" lon="4.0065556"><ele>0.0</ele><time>2026-04-30T14:08:11.02Z</time></trkpt><trkpt lat="41.9696615" lon="4.0066598"><ele>0.0</ele><time>2026-04-30T14:08:12.02Z</time></trkpt><trkpt lat="41.9697013" lon="4.0067647"><ele>0.0</ele><time>2026-04-30T14:08:13.019Z</time></trkpt><trkpt lat="41.9697449" lon="4.0068679"><ele>0.0</ele><time>2026-04-30T14:08:14.02Z</time></trkpt><trkpt lat="41.9697869" lon="4.0069712"><ele>0.0</ele><time>2026-04-30T14:08:15.019Z</time></trkpt><trkpt lat="41.9698281" lon="4.0070747"><ele>0.0</ele><time>2026-04-30T14:08:16.019Z</time></trkpt><trkpt lat="41.9698699" lon="4.0071793"><ele>0.0</ele><time>2026-04-30T14:08:17.02Z</time></trkpt><trkpt lat="41.9699115" lon="4.0072865"><ele>0.0</ele><time>2026-04-30T14:08:18.02Z</time></trkpt><trkpt lat="41.9699485" lon="4.0073917"><ele>0.0</ele><time>2026-04-30T14:08:19.02Z</time></trkpt><trkpt lat="41.9699878" lon="4.0074954"><ele>0.0</ele><time>2026-04-30T14:08:20.019Z</time></trkpt><trkpt lat="41.970026" lon="4.0075985"><ele>0.0</ele><time>2026-04-30T14:08:21.02Z</time></trkpt><trkpt lat="41.9700629" lon="4.007702"><ele>0.0</ele><time>2026-04-30T14:08:22.019Z</time></trkpt><trkpt lat="41.9701039" lon="4.0078082"><ele>0.0</ele><time>2026-04-30T14:08:23.019Z</time></trkpt><trkpt lat="41.9701372" lon="4.0079133"><ele>0.0</ele><time>2026-04-30T14:08:24.02Z</time></trkpt><trkpt lat="41.9701726" lon="4.0080183"><ele>0.0</ele><time>2026-04-30T14:08:25.019Z</time></trkpt><trkpt lat="41.9702078" lon="4.0081253"><ele>0.0</ele><time>2026-04-30T14:08:26.02Z</time></trkpt><trkpt lat="41.9702792" lon="4.0083297"><ele>0.0</ele><time>2026-04-30T14:08:28.019Z</time></trkpt><trkpt lat="41.9703175" lon="4.0084346"><ele>0.0</ele><time>2026-04-30T14:08:29.019Z</time></trkpt><trkpt lat="41.9703502" lon="4.0085374"><ele>0.0</ele><time>2026-04-30T14:08:30.019Z</time></trkpt><trkpt lat="41.9703866" lon="4.0086387"><ele>0.0</ele><time>2026-04-30T14:08:31.019Z</time></trkpt><trkpt lat="41.9704263" lon="4.0087383"><ele>0.0</ele><time>2026-04-30T14:08:32.02Z</time></trkpt><trkpt lat="41.9704708" lon="4.0088356"><ele>0.0</ele><time>2026-04-30T14:08:33.02Z</time></trkpt><trkpt lat="41.9705146" lon="4.0089396"><ele>0.0</ele><time>2026-04-30T14:08:34.02Z</time></trkpt><trkpt lat="41.9705563" lon="4.0090461"><ele>0.0</ele><time>2026-04-30T14:08:35.019Z</time></trkpt><trkpt lat="41.9706001" lon="4.0091471"><ele>0.0</ele><time>2026-04-30T14:08:36.02Z</time></trkpt><trkpt lat="41.9706914" lon="4.0093453"><ele>0.0</ele><time>2026-04-30T14:08:38.02Z</time></trkpt><trkpt lat="41.9707348" lon="4.0094482"><ele>0.0</ele><time>2026-04-30T14:08:39.019Z</time></trkpt><trkpt lat="41.9707768" lon="4.0095529"><ele>0.0</ele><time>2026-04-30T14:08:40.019Z</time></trkpt><trkpt lat="41.9708187" lon="4.009655"><ele>0.0</ele><time>2026-04-30T14:08:41.02Z</time></trkpt><trkpt lat="41.9708634" lon="4.0097551"><ele>0.0</ele><time>2026-04-30T14:08:42.019Z</time></trkpt><trkpt lat="41.9709042" lon="4.0098511"><ele>0.0</ele><time>2026-04-30T14:08:43.019Z</time></trkpt><trkpt lat="41.9709489" lon="4.0099502"><ele>0.0</ele><time>2026-04-30T14:08:44.019Z</time></trkpt><trkpt lat="41.9709921" lon="4.0100501"><ele>0.0</ele><time>2026-04-30T14:08:45.019Z</time></trkpt><trkpt lat="41.9710352" lon="4.0101514"><ele>0.0</ele><time>2026-04-30T14:08:46.019Z</time></trkpt><trkpt lat="41.9710801" lon="4.0102534"><ele>0.0</ele><time>2026-04-30T14:08:47.019Z</time></trkpt><trkpt lat="41.971159" lon="4.0104586"><ele>0.0</ele><time>2026-04-30T14:08:49.02Z</time></trkpt><trkpt lat="41.9711972" lon="4.0105604"><ele>0.0</ele><time>2026-04-30T14:08:50.019Z</time></trkpt><trkpt lat="41.9712354" lon="4.0106632"><ele>0.0</ele><time>2026-04-30T14:08:51.019Z</time></trkpt><trkpt lat="41.9712751" lon="4.0107665"><ele>0.0</ele><time>2026-04-30T14:08:52.02Z</time></trkpt><trkpt lat="41.9713158" lon="4.0108654"><ele>0.0</ele><time>2026-04-30T14:08:53.02Z</time></trkpt><trkpt lat="41.971354" lon="4.0109606"><ele>0.0</ele><time>2026-04-30T14:08:54.02Z</time></trkpt><trkpt lat="41.971395" lon="4.0110628"><ele>0.0</ele><time>2026-04-30T14:08:55.019Z</time></trkpt><trkpt lat="41.9714355" lon="4.0111639"><ele>0.0</ele><time>2026-04-30T14:08:56.019Z</time></trkpt><trkpt lat="41.9714737" lon="4.0112665"><ele>0.0</ele><time>2026-04-30T14:08:57.02Z</time></trkpt><trkpt lat="41.971513" lon="4.0113709"><ele>0.0</ele><time>2026-04-30T14:08:58.02Z</time></trkpt><trkpt lat="41.9715533" lon="4.0114732"><ele>0.0</ele><time>2026-04-30T14:08:59.02Z</time></trkpt><trkpt lat="41.9715932" lon="4.0115782"><ele>0.0</ele><time>2026-04-30T14:09:00.02Z</time></trkpt><trkpt lat="41.9716348" lon="4.0116858"><ele>0.0</ele><time>2026-04-30T14:09:01.02Z</time></trkpt><trkpt lat="41.9716752" lon="4.011788"><ele>0.0</ele><time>2026-04-30T14:09:02.019Z</time></trkpt><trkpt lat="41.9717169" lon="4.0118896"><ele>0.0</ele><time>2026-04-30T14:09:03.02Z</time></trkpt><trkpt lat="41.9717601" lon="4.0119916"><ele>0.0</ele><time>2026-04-30T14:09:04.019Z</time></trkpt><trkpt lat="41.9718033" lon="4.0120974"><ele>0.0</ele><time>2026-04-30T14:09:05.019Z</time></trkpt><trkpt lat="41.9718479" lon="4.0122057"><ele>0.0</ele><time>2026-04-30T14:09:06.019Z</time></trkpt><trkpt lat="41.9718887" lon="4.0123101"><ele>0.0</ele><time>2026-04-30T14:09:07.02Z</time></trkpt><trkpt lat="41.9719268" lon="4.0124193"><ele>0.0</ele><time>2026-04-30T14:09:08.019Z</time></trkpt><trkpt lat="41.9720367" lon="4.012729"><ele>0.0</ele><time>2026-04-30T14:09:11.02Z</time></trkpt><trkpt lat="41.9720726" lon="4.0128289"><ele>0.0</ele><time>2026-04-30T14:09:12.02Z</time></trkpt><trkpt lat="41.972109" lon="4.0129273"><ele>0.0</ele><time>2026-04-30T14:09:13.02Z</time></trkpt><trkpt lat="41.9721459" lon="4.0130251"><ele>0.0</ele><time>2026-04-30T14:09:14.02Z</time></trkpt><trkpt lat="41.9721824" lon="4.0131294"><ele>0.0</ele><time>2026-04-30T14:09:15.019Z</time></trkpt><trkpt lat="41.9722189" lon="4.0132287"><ele>0.0</ele><time>2026-04-30T14:09:16.019Z</time></trkpt><trkpt lat="41.9722539" lon="4.0133314"><ele>0.0</ele><time>2026-04-30T14:09:17.02Z</time></trkpt><trkpt lat="41.9722902" lon="4.0134377"><ele>0.0</ele><time>2026-04-30T14:09:18.019Z</time></trkpt><trkpt lat="41.9723284" lon="4.0135429"><ele>0.0</ele><time>2026-04-30T14:09:19.02Z</time></trkpt><trkpt lat="41.9723666" lon="4.013648"><ele>0.0</ele><time>2026-04-30T14:09:20.02Z</time></trkpt><trkpt lat="41.9724035" lon="4.0137531"><ele>0.0</ele><time>2026-04-30T14:09:21.019Z</time></trkpt><trkpt lat="41.9724418" lon="4.0138564"><ele>0.0</ele><time>2026-04-30T14:09:22.019Z</time></trkpt><trkpt lat="41.9724831" lon="4.0139612"><ele>0.0</ele><time>2026-04-30T14:09:23.019Z</time></trkpt><trkpt lat="41.972524" lon="4.0140617"><ele>0.0</ele><time>2026-04-30T14:09:24.02Z</time></trkpt><trkpt lat="41.9725653" lon="4.0141631"><ele>0.0</ele><time>2026-04-30T14:09:25.019Z</time></trkpt><trkpt lat="41.9726021" lon="4.0142666"><ele>0.0</ele><time>2026-04-30T14:09:26.019Z</time></trkpt><trkpt lat="41.97264" lon="4.0143715"><ele>0.0</ele><time>2026-04-30T14:09:27.019Z</time></trkpt><trkpt lat="41.9726784" lon="4.0144749"><ele>0.0</ele><time>2026-04-30T14:09:28.02Z</time></trkpt><trkpt lat="41.9727169" lon="4.0145766"><ele>0.0</ele><time>2026-04-30T14:09:29.02Z</time></trkpt><trkpt lat="41.9727538" lon="4.0146801"><ele>0.0</ele><time>2026-04-30T14:09:30.02Z</time></trkpt><trkpt lat="41.9728251" lon="4.0148864"><ele>0.0</ele><time>2026-04-30T14:09:32.019Z</time></trkpt><trkpt lat="41.9728665" lon="4.0149898"><ele>0.0</ele><time>2026-04-30T14:09:33.019Z</time></trkpt><trkpt lat="41.9729085" lon="4.0150914"><ele>0.0</ele><time>2026-04-30T14:09:34.018Z</time></trkpt><trkpt lat="41.9729522" lon="4.0151888"><ele>0.0</ele><time>2026-04-30T14:09:35.018Z</time></trkpt><trkpt lat="41.9729896" lon="4.0152898"><ele>0.0</ele><time>2026-04-30T14:09:36.018Z</time></trkpt><trkpt lat="41.9730274" lon="4.0153887"><ele>0.0</ele><time>2026-04-30T14:09:37.018Z</time></trkpt><trkpt lat="41.9730651" lon="4.0154898"><ele>0.0</ele><time>2026-04-30T14:09:38.019Z</time></trkpt><trkpt lat="41.9731035" lon="4.0155914"><ele>0.0</ele><time>2026-04-30T14:09:39.019Z</time></trkpt><trkpt lat="41.9731432" lon="4.0156964"><ele>0.0</ele><time>2026-04-30T14:09:40.019Z</time></trkpt><trkpt lat="41.9732155" lon="4.0158998"><ele>0.0</ele><time>2026-04-30T14:09:42.018Z</time></trkpt><trkpt lat="41.9732551" lon="4.0160031"><ele>0.0</ele><time>2026-04-30T14:09:43.018Z</time></trkpt><trkpt lat="41.9732939" lon="4.0161052"><ele>0.0</ele><time>2026-04-30T14:09:44.019Z</time></trkpt><trkpt lat="41.9733304" lon="4.0162067"><ele>0.0</ele><time>2026-04-30T14:09:45.018Z</time></trkpt><trkpt lat="41.9733733" lon="4.0163063"><ele>0.0</ele><time>2026-04-30T14:09:46.018Z</time></trkpt><trkpt lat="41.9734151" lon="4.0164097"><ele>0.0</ele><time>2026-04-30T14:09:47.018Z</time></trkpt><trkpt lat="41.9734567" lon="4.0165145"><ele>0.0</ele><time>2026-04-30T14:09:48.018Z</time></trkpt><trkpt lat="41.9734939" lon="4.0166196"><ele>0.0</ele><time>2026-04-30T14:09:49.018Z</time></trkpt><trkpt lat="41.9735349" lon="4.0167246"><ele>0.0</ele><time>2026-04-30T14:09:50.018Z</time></trkpt><trkpt lat="41.9735751" lon="4.0168297"><ele>0.0</ele><time>2026-04-30T14:09:51.018Z</time></trkpt><trkpt lat="41.9736535" lon="4.01704"><ele>0.0</ele><time>2026-04-30T14:09:53.019Z</time></trkpt><trkpt lat="41.9736935" lon="4.0171419"><ele>0.0</ele><time>2026-04-30T14:09:54.019Z</time></trkpt><trkpt lat="41.9737354" lon="4.0172421"><ele>0.0</ele><time>2026-04-30T14:09:55.018Z</time></trkpt><trkpt lat="41.9737769" lon="4.0173416"><ele>0.0</ele><time>2026-04-30T14:09:56.018Z</time></trkpt><trkpt lat="41.9738168" lon="4.0174463"><ele>0.0</ele><time>2026-04-30T14:09:57.019Z</time></trkpt><trkpt lat="41.9738582" lon="4.0175514"><ele>0.0</ele><time>2026-04-30T14:09:58.019Z</time></trkpt><trkpt lat="41.9738983" lon="4.0176562"><ele>0.0</ele><time>2026-04-30T14:09:59.019Z</time></trkpt><trkpt lat="41.9739368" lon="4.0177626"><ele>0.0</ele><time>2026-04-30T14:10:00.018Z</time></trkpt><trkpt lat="41.9739779" lon="4.0178708"><ele>0.0</ele><time>2026-04-30T14:10:01.018Z</time></trkpt><trkpt lat="41.9740185" lon="4.0179768"><ele>0.0</ele><time>2026-04-30T14:10:02.018Z</time></trkpt><trkpt lat="41.9740552" lon="4.0180828"><ele>0.0</ele><time>2026-04-30T14:10:03.018Z</time></trkpt><trkpt lat="41.9740905" lon="4.0181911"><ele>0.0</ele><time>2026-04-30T14:10:04.019Z</time></trkpt><trkpt lat="41.9741284" lon="4.0182981"><ele>0.0</ele><time>2026-04-30T14:10:05.018Z</time></trkpt><trkpt lat="41.9741697" lon="4.0184012"><ele>0.0</ele><time>2026-04-30T14:10:06.018Z</time></trkpt><trkpt lat="41.9742116" lon="4.0185004"><ele>0.0</ele><time>2026-04-30T14:10:07.019Z</time></trkpt><trkpt lat="41.9742519" lon="4.0186002"><ele>0.0</ele><time>2026-04-30T14:10:08.018Z</time></trkpt><trkpt lat="41.9742902" lon="4.0187001"><ele>0.0</ele><time>2026-04-30T14:10:09.019Z</time></trkpt><trkpt lat="41.9743298" lon="4.0188017"><ele>0.0</ele><time>2026-04-30T14:10:10.018Z</time></trkpt><trkpt lat="41.9743701" lon="4.0189045"><ele>0.0</ele><time>2026-04-30T14:10:11.019Z</time></trkpt><trkpt lat="41.9744084" lon="4.0190066"><ele>0.0</ele><time>2026-04-30T14:10:12.018Z</time></trkpt><trkpt lat="41.9745184" lon="4.0193132"><ele>0.0</ele><time>2026-04-30T14:10:15.018Z</time></trkpt><trkpt lat="41.9745567" lon="4.0194148"><ele>0.0</ele><time>2026-04-30T14:10:16.019Z</time></trkpt><trkpt lat="41.9745966" lon="4.0195192"><ele>0.0</ele><time>2026-04-30T14:10:17.018Z</time></trkpt><trkpt lat="41.9746402" lon="4.0196172"><ele>0.0</ele><time>2026-04-30T14:10:18.019Z</time></trkpt><trkpt lat="41.9746801" lon="4.0197179"><ele>0.0</ele><time>2026-04-30T14:10:19.018Z</time></trkpt><trkpt lat="41.9747217" lon="4.0198199"><ele>0.0</ele><time>2026-04-30T14:10:20.018Z</time></trkpt><trkpt lat="41.9747633" lon="4.019923"><ele>0.0</ele><time>2026-04-30T14:10:21.018Z</time></trkpt><trkpt lat="41.9748018" lon="4.020028"><ele>0.0</ele><time>2026-04-30T14:10:22.018Z</time></trkpt><trkpt lat="41.9748401" lon="4.0201316"><ele>0.0</ele><time>2026-04-30T14:10:23.018Z</time></trkpt><trkpt lat="41.9748752" lon="4.0202336"><ele>0.0</ele><time>2026-04-30T14:10:24.018Z</time></trkpt><trkpt lat="41.9749118" lon="4.0203351"><ele>0.0</ele><time>2026-04-30T14:10:25.018Z</time></trkpt><trkpt lat="41.9749506" lon="4.0204381"><ele>0.0</ele><time>2026-04-30T14:10:26.018Z</time></trkpt><trkpt lat="41.9749883" lon="4.0205415"><ele>0.0</ele><time>2026-04-30T14:10:27.018Z</time></trkpt><trkpt lat="41.9750301" lon="4.0206444"><ele>0.0</ele><time>2026-04-30T14:10:28.018Z</time></trkpt><trkpt lat="41.9750703" lon="4.0207452"><ele>0.0</ele><time>2026-04-30T14:10:29.019Z</time></trkpt><trkpt lat="41.9751103" lon="4.0208466"><ele>0.0</ele><time>2026-04-30T14:10:30.018Z</time></trkpt><trkpt lat="41.9751503" lon="4.0209469"><ele>0.0</ele><time>2026-04-30T14:10:31.019Z</time></trkpt><trkpt lat="41.9751854" lon="4.0210484"><ele>0.0</ele><time>2026-04-30T14:10:32.018Z</time></trkpt><trkpt lat="41.9752218" lon="4.0211515"><ele>0.0</ele><time>2026-04-30T14:10:33.018Z</time></trkpt><trkpt lat="41.975257" lon="4.021258"><ele>0.0</ele><time>2026-04-30T14:10:34.019Z</time></trkpt><trkpt lat="41.9753243" lon="4.0214647"><ele>0.0</ele><time>2026-04-30T14:10:36.018Z</time></trkpt><trkpt lat="41.9753618" lon="4.021568"><ele>0.0</ele><time>2026-04-30T14:10:37.018Z</time></trkpt><trkpt lat="41.9753958" lon="4.021669"><ele>0.0</ele><time>2026-04-30T14:10:38.019Z</time></trkpt><trkpt lat="41.9754319" lon="4.0217702"><ele>0.0</ele><time>2026-04-30T14:10:39.018Z</time></trkpt><trkpt lat="41.9754686" lon="4.0218715"><ele>0.0</ele><time>2026-04-30T14:10:40.018Z</time></trkpt><trkpt lat="41.9755071" lon="4.021973"><ele>0.0</ele><time>2026-04-30T14:10:41.019Z</time></trkpt><trkpt lat="41.9755468" lon="4.0220764"><ele>0.0</ele><time>2026-04-30T14:10:42.019Z</time></trkpt><trkpt lat="41.9755836" lon="4.0221783"><ele>0.0</ele><time>2026-04-30T14:10:43.019Z</time></trkpt><trkpt lat="41.9756187" lon="4.0222816"><ele>0.0</ele><time>2026-04-30T14:10:44.019Z</time></trkpt><trkpt lat="41.9756919" lon="4.0224894"><ele>0.0</ele><time>2026-04-30T14:10:46.019Z</time></trkpt><trkpt lat="41.9757282" lon="4.0225961"><ele>0.0</ele><time>2026-04-30T14:10:47.018Z</time></trkpt><trkpt lat="41.9757651" lon="4.0226984"><ele>0.0</ele><time>2026-04-30T14:10:48.018Z</time></trkpt><trkpt lat="41.9758034" lon="4.0228029"><ele>0.0</ele><time>2026-04-30T14:10:49.018Z</time></trkpt><trkpt lat="41.975845" lon="4.0229048"><ele>0.0</ele><time>2026-04-30T14:10:50.018Z</time></trkpt><trkpt lat="41.9758867" lon="4.0230067"><ele>0.0</ele><time>2026-04-30T14:10:51.018Z</time></trkpt><trkpt lat="41.9759239" lon="4.0231085"><ele>0.0</ele><time>2026-04-30T14:10:52.019Z</time></trkpt><trkpt lat="41.9759603" lon="4.0232132"><ele>0.0</ele><time>2026-04-30T14:10:53.018Z</time></trkpt><trkpt lat="41.975995" lon="4.0233169"><ele>0.0</ele><time>2026-04-30T14:10:54.018Z</time></trkpt><trkpt lat="41.9760286" lon="4.023417"><ele>0.0</ele><time>2026-04-30T14:10:55.019Z</time></trkpt><trkpt lat="41.9760997" lon="4.0236278"><ele>0.0</ele><time>2026-04-30T14:10:57.019Z</time></trkpt><trkpt lat="41.9761371" lon="4.0237305"><ele>0.0</ele><time>2026-04-30T14:10:58.019Z</time></trkpt><trkpt lat="41.9761766" lon="4.0238347"><ele>0.0</ele><time>2026-04-30T14:10:59.019Z</time></trkpt><trkpt lat="41.9762186" lon="4.0239368"><ele>0.0</ele><time>2026-04-30T14:11:00.018Z</time></trkpt><trkpt lat="41.9762583" lon="4.0240382"><ele>0.0</ele><time>2026-04-30T14:11:01.019Z</time></trkpt><trkpt lat="41.9762996" lon="4.024141"><ele>0.0</ele><time>2026-04-30T14:11:02.018Z</time></trkpt><trkpt lat="41.9763402" lon="4.0242447"><ele>0.0</ele><time>2026-04-30T14:11:03.019Z</time></trkpt><trkpt lat="41.9763783" lon="4.0243498"><ele>0.0</ele><time>2026-04-30T14:11:04.019Z</time></trkpt><trkpt lat="41.9764168" lon="4.0244547"><ele>0.0</ele><time>2026-04-30T14:11:05.018Z</time></trkpt><trkpt lat="41.9764537" lon="4.0245569"><ele>0.0</ele><time>2026-04-30T14:11:06.019Z</time></trkpt><trkpt lat="41.9764918" lon="4.024657"><ele>0.0</ele><time>2026-04-30T14:11:07.018Z</time></trkpt><trkpt lat="41.9765317" lon="4.024755"><ele>0.0</ele><time>2026-04-30T14:11:08.019Z</time></trkpt><trkpt lat="41.9765689" lon="4.0248567"><ele>0.0</ele><time>2026-04-30T14:11:09.018Z</time></trkpt><trkpt lat="41.9766117" lon="4.0249568"><ele>0.0</ele><time>2026-04-30T14:11:10.018Z</time></trkpt><trkpt lat="41.976652" lon="4.0250598"><ele>0.0</ele><time>2026-04-30T14:11:11.018Z</time></trkpt><trkpt lat="41.9766932" lon="4.0251646"><ele>0.0</ele><time>2026-04-30T14:11:12.018Z</time></trkpt><trkpt lat="41.9767337" lon="4.0252668"><ele>0.0</ele><time>2026-04-30T14:11:13.018Z</time></trkpt><trkpt lat="41.9767749" lon="4.02537"><ele>0.0</ele><time>2026-04-30T14:11:14.018Z</time></trkpt><trkpt lat="41.9768151" lon="4.0254691"><ele>0.0</ele><time>2026-04-30T14:11:15.019Z</time></trkpt><trkpt lat="41.9768549" lon="4.025572"><ele>0.0</ele><time>2026-04-30T14:11:16.018Z</time></trkpt><trkpt lat="41.9769709" lon="4.0258776"><ele>0.0</ele><time>2026-04-30T14:11:19.018Z</time></trkpt><trkpt lat="41.9770117" lon="4.0259815"><ele>0.0</ele><time>2026-04-30T14:11:20.018Z</time></trkpt><trkpt lat="41.9770522" lon="4.0260848"><ele>0.0</ele><time>2026-04-30T14:11:21.019Z</time></trkpt><trkpt lat="41.977093" lon="4.0261868"><ele>0.0</ele><time>2026-04-30T14:11:22.019Z</time></trkpt><trkpt lat="41.9771291" lon="4.0262899"><ele>0.0</ele><time>2026-04-30T14:11:23.018Z</time></trkpt><trkpt lat="41.9771653" lon="4.0263919"><ele>0.0</ele><time>2026-04-30T14:11:24.019Z</time></trkpt><trkpt lat="41.9772016" lon="4.0264935"><ele>0.0</ele><time>2026-04-30T14:11:25.018Z</time></trkpt><trkpt lat="41.9772411" lon="4.0265934"><ele>0.0</ele><time>2026-04-30T14:11:26.018Z</time></trkpt><trkpt lat="41.9772804" lon="4.0266963"><ele>0.0</ele><time>2026-04-30T14:11:27.018Z</time></trkpt><trkpt lat="41.9773188" lon="4.0267995"><ele>0.0</ele><time>2026-04-30T14:11:28.018Z</time></trkpt><trkpt lat="41.9773618" lon="4.0268986"><ele>0.0</ele><time>2026-04-30T14:11:29.019Z</time></trkpt><trkpt lat="41.9774026" lon="4.0269997"><ele>0.0</ele><time>2026-04-30T14:11:30.019Z</time></trkpt><trkpt lat="41.9774393" lon="4.0271025"><ele>0.0</ele><time>2026-04-30T14:11:31.018Z</time></trkpt><trkpt lat="41.9774786" lon="4.0272017"><ele>0.0</ele><time>2026-04-30T14:11:32.019Z</time></trkpt><trkpt lat="41.9775185" lon="4.027303"><ele>0.0</ele><time>2026-04-30T14:11:33.018Z</time></trkpt><trkpt lat="41.9775539" lon="4.0274065"><ele>0.0</ele><time>2026-04-30T14:11:34.018Z</time></trkpt><trkpt lat="41.9775932" lon="4.0275085"><ele>0.0</ele><time>2026-04-30T14:11:35.018Z</time></trkpt><trkpt lat="41.9776327" lon="4.0276132"><ele>0.0</ele><time>2026-04-30T14:11:36.018Z</time></trkpt><trkpt lat="41.9776744" lon="4.0277183"><ele>0.0</ele><time>2026-04-30T14:11:37.019Z</time></trkpt><trkpt lat="41.9777148" lon="4.0278232"><ele>0.0</ele><time>2026-04-30T14:11:38.019Z</time></trkpt><trkpt lat="41.9778045" lon="4.02802"><ele>0.0</ele><time>2026-04-30T14:11:40.018Z</time></trkpt><trkpt lat="41.9778468" lon="4.0281171"><ele>0.0</ele><time>2026-04-30T14:11:41.019Z</time></trkpt><trkpt lat="41.9778882" lon="4.0282167"><ele>0.0</ele><time>2026-04-30T14:11:42.018Z</time></trkpt><trkpt lat="41.9779251" lon="4.0283184"><ele>0.0</ele><time>2026-04-30T14:11:43.019Z</time></trkpt><trkpt lat="41.9779661" lon="4.0284183"><ele>0.0</ele><time>2026-04-30T14:11:44.019Z</time></trkpt><trkpt lat="41.9780048" lon="4.0285211"><ele>0.0</ele><time>2026-04-30T14:11:45.018Z</time></trkpt><trkpt lat="41.9780419" lon="4.0286266"><ele>0.0</ele><time>2026-04-30T14:11:46.019Z</time></trkpt><trkpt lat="41.9780776" lon="4.0287327"><ele>0.0</ele><time>2026-04-30T14:11:47.018Z</time></trkpt><trkpt lat="41.9781169" lon="4.0288364"><ele>0.0</ele><time>2026-04-30T14:11:48.019Z</time></trkpt><trkpt lat="41.9781967" lon="4.0290418"><ele>0.0</ele><time>2026-04-30T14:11:50.018Z</time></trkpt><trkpt lat="41.9782371" lon="4.0291417"><ele>0.0</ele><time>2026-04-30T14:11:51.019Z</time></trkpt><trkpt lat="41.9782755" lon="4.0292465"><ele>0.0</ele><time>2026-04-30T14:11:52.019Z</time></trkpt><trkpt lat="41.9783137" lon="4.0293518"><ele>0.0</ele><time>2026-04-30T14:11:53.019Z</time></trkpt><trkpt lat="41.9783521" lon="4.0294551"><ele>0.0</ele><time>2026-04-30T14:11:54.019Z</time></trkpt><trkpt lat="41.9783901" lon="4.0295587"><ele>0.0</ele><time>2026-04-30T14:11:55.019Z</time></trkpt><trkpt lat="41.9784313" lon="4.0296589"><ele>0.0</ele><time>2026-04-30T14:11:56.019Z</time></trkpt><trkpt lat="41.9784698" lon="4.0297555"><ele>0.0</ele><time>2026-04-30T14:11:57.018Z</time></trkpt><trkpt lat="41.9785141" lon="4.0298521"><ele>0.0</ele><time>2026-04-30T14:11:58.018Z</time></trkpt><trkpt lat="41.9785527" lon="4.029951"><ele>0.0</ele><time>2026-04-30T14:11:59.018Z</time></trkpt><trkpt lat="41.9786298" lon="4.0301513"><ele>0.0</ele><time>2026-04-30T14:12:01.018Z</time></trkpt><trkpt lat="41.9786717" lon="4.0302519"><ele>0.0</ele><time>2026-04-30T14:12:02.018Z</time></trkpt><trkpt lat="41.9787062" lon="4.0303545"><ele>0.0</ele><time>2026-04-30T14:12:03.018Z</time></trkpt><trkpt lat="41.978742" lon="4.0304589"><ele>0.0</ele><time>2026-04-30T14:12:04.018Z</time></trkpt><trkpt lat="41.9787855" lon="4.0305643"><ele>0.0</ele><time>2026-04-30T14:12:05.018Z</time></trkpt><trkpt lat="41.9788277" lon="4.0306668"><ele>0.0</ele><time>2026-04-30T14:12:06.018Z</time></trkpt><trkpt lat="41.978872" lon="4.0307685"><ele>0.0</ele><time>2026-04-30T14:12:07.018Z</time></trkpt><trkpt lat="41.978916" lon="4.0308742"><ele>0.0</ele><time>2026-04-30T14:12:08.019Z</time></trkpt><trkpt lat="41.9789587" lon="4.0309764"><ele>0.0</ele><time>2026-04-30T14:12:09.019Z</time></trkpt><trkpt lat="41.9789989" lon="4.0310792"><ele>0.0</ele><time>2026-04-30T14:12:10.018Z</time></trkpt><trkpt lat="41.9790372" lon="4.0311826"><ele>0.0</ele><time>2026-04-30T14:12:11.019Z</time></trkpt><trkpt lat="41.9790737" lon="4.0312849"><ele>0.0</ele><time>2026-04-30T14:12:12.019Z</time></trkpt><trkpt lat="41.9791131" lon="4.0313836"><ele>0.0</ele><time>2026-04-30T14:12:13.018Z</time></trkpt><trkpt lat="41.9791516" lon="4.0314863"><ele>0.0</ele><time>2026-04-30T14:12:14.019Z</time></trkpt><trkpt lat="41.979191" lon="4.0315883"><ele>0.0</ele><time>2026-04-30T14:12:15.019Z</time></trkpt><trkpt lat="41.9792296" lon="4.03169"><ele>0.0</ele><time>2026-04-30T14:12:16.019Z</time></trkpt><trkpt lat="41.9792681" lon="4.0317932"><ele>0.0</ele><time>2026-04-30T14:12:17.019Z</time></trkpt><trkpt lat="41.9793052" lon="4.0318949"><ele>0.0</ele><time>2026-04-30T14:12:18.018Z</time></trkpt><trkpt lat="41.979345" lon="4.031995"><ele>0.0</ele><time>2026-04-30T14:12:19.018Z</time></trkpt><trkpt lat="41.9793838" lon="4.0320961"><ele>0.0</ele><time>2026-04-30T14:12:20.019Z</time></trkpt><trkpt lat="41.9795082" lon="4.0324027"><ele>0.0</ele><time>2026-04-30T14:12:23.019Z</time></trkpt><trkpt lat="41.9795512" lon="4.0325077"><ele>0.0</ele><time>2026-04-30T14:12:24.018Z</time></trkpt><trkpt lat="41.9795962" lon="4.0326129"><ele>0.0</ele><time>2026-04-30T14:12:25.018Z</time></trkpt><trkpt lat="41.9796372" lon="4.0327166"><ele>0.0</ele><time>2026-04-30T14:12:26.019Z</time></trkpt><trkpt lat="41.9796724" lon="4.0328199"><ele>0.0</ele><time>2026-04-30T14:12:27.019Z</time></trkpt><trkpt lat="41.9797094" lon="4.0329218"><ele>0.0</ele><time>2026-04-30T14:12:28.018Z</time></trkpt><trkpt lat="41.9797422" lon="4.0330234"><ele>0.0</ele><time>2026-04-30T14:12:29.019Z</time></trkpt><trkpt lat="41.9797782" lon="4.0331279"><ele>0.0</ele><time>2026-04-30T14:12:30.019Z</time></trkpt><trkpt lat="41.979824" lon="4.0332285"><ele>0.0</ele><time>2026-04-30T14:12:31.018Z</time></trkpt><trkpt lat="41.9798638" lon="4.0333298"><ele>0.0</ele><time>2026-04-30T14:12:32.018Z</time></trkpt><trkpt lat="41.9799034" lon="4.0334296"><ele>0.0</ele><time>2026-04-30T14:12:33.018Z</time></trkpt><trkpt lat="41.9799451" lon="4.0335298"><ele>0.0</ele><time>2026-04-30T14:12:34.018Z</time></trkpt><trkpt lat="41.9799792" lon="4.0336359"><ele>0.0</ele><time>2026-04-30T14:12:35.018Z</time></trkpt><trkpt lat="41.980017" lon="4.0337395"><ele>0.0</ele><time>2026-04-30T14:12:36.019Z</time></trkpt><trkpt lat="41.9800539" lon="4.0338416"><ele>0.0</ele><time>2026-04-30T14:12:37.018Z</time></trkpt><trkpt lat="41.9800904" lon="4.0339427"><ele>0.0</ele><time>2026-04-30T14:12:38.019Z</time></trkpt><trkpt lat="41.9801245" lon="4.0340507"><ele>0.0</ele><time>2026-04-30T14:12:39.018Z</time></trkpt><trkpt lat="41.9801607" lon="4.034153"><ele>0.0</ele><time>2026-04-30T14:12:40.018Z</time></trkpt><trkpt lat="41.9802001" lon="4.0342533"><ele>0.0</ele><time>2026-04-30T14:12:41.018Z</time></trkpt><trkpt lat="41.9802387" lon="4.034358"><ele>0.0</ele><time>2026-04-30T14:12:42.018Z</time></trkpt><trkpt lat="41.9803077" lon="4.0345612"><ele>0.0</ele><time>2026-04-30T14:12:44.018Z</time></trkpt><trkpt lat="41.9803463" lon="4.0346631"><ele>0.0</ele><time>2026-04-30T14:12:45.019Z</time></trkpt><trkpt lat="41.980389" lon="4.0347679"><ele>0.0</ele><time>2026-04-30T14:12:46.019Z</time></trkpt><trkpt lat="41.980433" lon="4.0348729"><ele>0.0</ele><time>2026-04-30T14:12:47.018Z</time></trkpt><trkpt lat="41.9804775" lon="4.0349719"><ele>0.0</ele><time>2026-04-30T14:12:48.018Z</time></trkpt><trkpt lat="41.9805243" lon="4.0350726"><ele>0.0</ele><time>2026-04-30T14:12:49.019Z</time></trkpt><trkpt lat="41.9805701" lon="4.035176"><ele>0.0</ele><time>2026-04-30T14:12:50.019Z</time></trkpt><trkpt lat="41.9806145" lon="4.0352838"><ele>0.0</ele><time>2026-04-30T14:12:51.019Z</time></trkpt><trkpt lat="41.9806571" lon="4.0353868"><ele>0.0</ele><time>2026-04-30T14:12:52.019Z</time></trkpt><trkpt lat="41.9807436" lon="4.0355831"><ele>0.0</ele><time>2026-04-30T14:12:54.018Z</time></trkpt><trkpt lat="41.9807853" lon="4.0356806"><ele>0.0</ele><time>2026-04-30T14:12:55.018Z</time></trkpt><trkpt lat="41.9808295" lon="4.0357773"><ele>0.0</ele><time>2026-04-30T14:12:56.018Z</time></trkpt><trkpt lat="41.980872" lon="4.0358781"><ele>0.0</ele><time>2026-04-30T14:12:57.019Z</time></trkpt><trkpt lat="41.9809135" lon="4.0359788"><ele>0.0</ele><time>2026-04-30T14:12:58.019Z</time></trkpt><trkpt lat="41.9809509" lon="4.0360803"><ele>0.0</ele><time>2026-04-30T14:12:59.018Z</time></trkpt><trkpt lat="41.9809913" lon="4.0361786"><ele>0.0</ele><time>2026-04-30T14:13:00.018Z</time></trkpt><trkpt lat="41.9810306" lon="4.0362796"><ele>0.0</ele><time>2026-04-30T14:13:01.019Z</time></trkpt><trkpt lat="41.9810733" lon="4.0363785"><ele>0.0</ele><time>2026-04-30T14:13:02.019Z</time></trkpt><trkpt lat="41.9811139" lon="4.0364781"><ele>0.0</ele><time>2026-04-30T14:13:03.018Z</time></trkpt><trkpt lat="41.9811917" lon="4.0366837"><ele>0.0</ele><time>2026-04-30T14:13:05.019Z</time></trkpt><trkpt lat="41.9812285" lon="4.0367862"><ele>0.0</ele><time>2026-04-30T14:13:06.018Z</time></trkpt><trkpt lat="41.9812699" lon="4.0368878"><ele>0.0</ele><time>2026-04-30T14:13:07.018Z</time></trkpt><trkpt lat="41.9813092" lon="4.0369896"><ele>0.0</ele><time>2026-04-30T14:13:08.019Z</time></trkpt><trkpt lat="41.9813508" lon="4.0370912"><ele>0.0</ele><time>2026-04-30T14:13:09.019Z</time></trkpt><trkpt lat="41.9813851" lon="4.0371916"><ele>0.0</ele><time>2026-04-30T14:13:10.019Z</time></trkpt><trkpt lat="41.981422" lon="4.0372918"><ele>0.0</ele><time>2026-04-30T14:13:11.019Z</time></trkpt><trkpt lat="41.9814586" lon="4.0373919"><ele>0.0</ele><time>2026-04-30T14:13:12.019Z</time></trkpt><trkpt lat="41.9814965" lon="4.0374948"><ele>0.0</ele><time>2026-04-30T14:13:13.018Z</time></trkpt><trkpt lat="41.9815333" lon="4.0375967"><ele>0.0</ele><time>2026-04-30T14:13:14.018Z</time></trkpt><trkpt lat="41.9815718" lon="4.0376984"><ele>0.0</ele><time>2026-04-30T14:13:15.018Z</time></trkpt><trkpt lat="41.9816133" lon="4.0377998"><ele>0.0</ele><time>2026-04-30T14:13:16.018Z</time></trkpt><trkpt lat="41.9816581" lon="4.037903"><ele>0.0</ele><time>2026-04-30T14:13:17.019Z</time></trkpt><trkpt lat="41.9817032" lon="4.0380048"><ele>0.0</ele><time>2026-04-30T14:13:18.019Z</time></trkpt><trkpt lat="41.9817456" lon="4.0381021"><ele>0.0</ele><time>2026-04-30T14:13:19.018Z</time></trkpt><trkpt lat="41.9817851" lon="4.0382033"><ele>0.0</ele><time>2026-04-30T14:13:20.019Z</time></trkpt><trkpt lat="41.9818253" lon="4.0383036"><ele>0.0</ele><time>2026-04-30T14:13:21.019Z</time></trkpt><trkpt lat="41.9818667" lon="4.0384048"><ele>0.0</ele><time>2026-04-30T14:13:22.019Z</time></trkpt><trkpt lat="41.9819088" lon="4.0385018"><ele>0.0</ele><time>2026-04-30T14:13:23.019Z</time></trkpt><trkpt lat="41.9819471" lon="4.0386033"><ele>0.0</ele><time>2026-04-30T14:13:24.019Z</time></trkpt><trkpt lat="41.9820538" lon="4.0389174"><ele>0.0</ele><time>2026-04-30T14:13:27.019Z</time></trkpt><trkpt lat="41.9820817" lon="4.0390228"><ele>0.0</ele><time>2026-04-30T14:13:28.018Z</time></trkpt><trkpt lat="41.9821148" lon="4.039134"><ele>0.0</ele><time>2026-04-30T14:13:29.018Z</time></trkpt><trkpt lat="41.9821514" lon="4.0392443"><ele>0.0</ele><time>2026-04-30T14:13:30.018Z</time></trkpt><trkpt lat="41.9821883" lon="4.0393501"><ele>0.0</ele><time>2026-04-30T14:13:31.018Z</time></trkpt><trkpt lat="41.9822221" lon="4.0394521"><ele>0.0</ele><time>2026-04-30T14:13:32.018Z</time></trkpt><trkpt lat="41.982258" lon="4.0395564"><ele>0.0</ele><time>2026-04-30T14:13:33.019Z</time></trkpt><trkpt lat="41.9823017" lon="4.0396584"><ele>0.0</ele><time>2026-04-30T14:13:34.018Z</time></trkpt><trkpt lat="41.982345" lon="4.0397599"><ele>0.0</ele><time>2026-04-30T14:13:35.018Z</time></trkpt><trkpt lat="41.9823855" lon="4.0398602"><ele>0.0</ele><time>2026-04-30T14:13:36.019Z</time></trkpt><trkpt lat="41.9824267" lon="4.0399587"><ele>0.0</ele><time>2026-04-30T14:13:37.018Z</time></trkpt><trkpt lat="41.9824666" lon="4.0400582"><ele>0.0</ele><time>2026-04-30T14:13:38.018Z</time></trkpt><trkpt lat="41.9825066" lon="4.0401612"><ele>0.0</ele><time>2026-04-30T14:13:39.018Z</time></trkpt><trkpt lat="41.9825468" lon="4.0402635"><ele>0.0</ele><time>2026-04-30T14:13:40.017Z</time></trkpt><trkpt lat="41.9825908" lon="4.0403637"><ele>0.0</ele><time>2026-04-30T14:13:41.018Z</time></trkpt><trkpt lat="41.9826315" lon="4.040467"><ele>0.0</ele><time>2026-04-30T14:13:42.017Z</time></trkpt><trkpt lat="41.9826714" lon="4.0405689"><ele>0.0</ele><time>2026-04-30T14:13:43.018Z</time></trkpt><trkpt lat="41.9827102" lon="4.0406735"><ele>0.0</ele><time>2026-04-30T14:13:44.018Z</time></trkpt><trkpt lat="41.9827473" lon="4.040778"><ele>0.0</ele><time>2026-04-30T14:13:45.017Z</time></trkpt><trkpt lat="41.9827866" lon="4.0408814"><ele>0.0</ele><time>2026-04-30T14:13:46.017Z</time></trkpt><trkpt lat="41.9828618" lon="4.0410818"><ele>0.0</ele><time>2026-04-30T14:13:48.018Z</time></trkpt><trkpt lat="41.9828979" lon="4.0411812"><ele>0.0</ele><time>2026-04-30T14:13:49.017Z</time></trkpt><trkpt lat="41.9829313" lon="4.04128"><ele>0.0</ele><time>2026-04-30T14:13:50.018Z</time></trkpt><trkpt lat="41.982968" lon="4.0413785"><ele>0.0</ele><time>2026-04-30T14:13:51.017Z</time></trkpt><trkpt lat="41.9830099" lon="4.0414784"><ele>0.0</ele><time>2026-04-30T14:13:52.018Z</time></trkpt><trkpt lat="41.9830517" lon="4.0415827"><ele>0.0</ele><time>2026-04-30T14:13:53.017Z</time></trkpt><trkpt lat="41.9830962" lon="4.0416835"><ele>0.0</ele><time>2026-04-30T14:13:54.017Z</time></trkpt><trkpt lat="41.9831399" lon="4.0417835"><ele>0.0</ele><time>2026-04-30T14:13:55.018Z</time></trkpt><trkpt lat="41.9831848" lon="4.041884"><ele>0.0</ele><time>2026-04-30T14:13:56.017Z</time></trkpt><trkpt lat="41.9832737" lon="4.0420849"><ele>0.0</ele><time>2026-04-30T14:13:58.018Z</time></trkpt><trkpt lat="41.9833112" lon="4.0421829"><ele>0.0</ele><time>2026-04-30T14:13:59.017Z</time></trkpt><trkpt lat="41.9833497" lon="4.0422814"><ele>0.0</ele><time>2026-04-30T14:14:00.018Z</time></trkpt><trkpt lat="41.9833869" lon="4.0423819"><ele>0.0</ele><time>2026-04-30T14:14:01.018Z</time></trkpt><trkpt lat="41.9834267" lon="4.0424817"><ele>0.0</ele><time>2026-04-30T14:14:02.017Z</time></trkpt><trkpt lat="41.9834653" lon="4.0425799"><ele>0.0</ele><time>2026-04-30T14:14:03.018Z</time></trkpt><trkpt lat="41.9835063" lon="4.0426812"><ele>0.0</ele><time>2026-04-30T14:14:04.018Z</time></trkpt><trkpt lat="41.9835471" lon="4.0427803"><ele>0.0</ele><time>2026-04-30T14:14:05.018Z</time></trkpt><trkpt lat="41.9835866" lon="4.0428825"><ele>0.0</ele><time>2026-04-30T14:14:06.018Z</time></trkpt><trkpt lat="41.9836267" lon="4.042989"><ele>0.0</ele><time>2026-04-30T14:14:07.017Z</time></trkpt><trkpt lat="41.9837099" lon="4.0431961"><ele>0.0</ele><time>2026-04-30T14:14:09.018Z</time></trkpt><trkpt lat="41.9837534" lon="4.0432966"><ele>0.0</ele><time>2026-04-30T14:14:10.017Z</time></trkpt><trkpt lat="41.9837936" lon="4.043401"><ele>0.0</ele><time>2026-04-30T14:14:11.018Z</time></trkpt><trkpt lat="41.9838292" lon="4.0435062"><ele>0.0</ele><time>2026-04-30T14:14:12.017Z</time></trkpt><trkpt lat="41.9838653" lon="4.04361"><ele>0.0</ele><time>2026-04-30T14:14:13.018Z</time></trkpt><trkpt lat="41.9839015" lon="4.043713"><ele>0.0</ele><time>2026-04-30T14:14:14.017Z</time></trkpt><trkpt lat="41.9839398" lon="4.0438192"><ele>0.0</ele><time>2026-04-30T14:14:15.018Z</time></trkpt><trkpt lat="41.9839784" lon="4.0439248"><ele>0.0</ele><time>2026-04-30T14:14:16.017Z</time></trkpt><trkpt lat="41.9840169" lon="4.0440255"><ele>0.0</ele><time>2026-04-30T14:14:17.018Z</time></trkpt><trkpt lat="41.9840552" lon="4.0441236"><ele>0.0</ele><time>2026-04-30T14:14:18.018Z</time></trkpt><trkpt lat="41.9840922" lon="4.0442235"><ele>0.0</ele><time>2026-04-30T14:14:19.018Z</time></trkpt><trkpt lat="41.9841318" lon="4.044323"><ele>0.0</ele><time>2026-04-30T14:14:20.018Z</time></trkpt><trkpt lat="41.9841702" lon="4.0444248"><ele>0.0</ele><time>2026-04-30T14:14:21.018Z</time></trkpt><trkpt lat="41.98421" lon="4.0445265"><ele>0.0</ele><time>2026-04-30T14:14:22.018Z</time></trkpt><trkpt lat="41.9842485" lon="4.0446287"><ele>0.0</ele><time>2026-04-30T14:14:23.017Z</time></trkpt><trkpt lat="41.9842821" lon="4.0447304"><ele>0.0</ele><time>2026-04-30T14:14:24.018Z</time></trkpt><trkpt lat="41.9843168" lon="4.0448337"><ele>0.0</ele><time>2026-04-30T14:14:25.018Z</time></trkpt><trkpt lat="41.9843535" lon="4.0449354"><ele>0.0</ele><time>2026-04-30T14:14:26.018Z</time></trkpt><trkpt lat="41.9843915" lon="4.0450381"><ele>0.0</ele><time>2026-04-30T14:14:27.017Z</time></trkpt><trkpt lat="41.9844302" lon="4.0451371"><ele>0.0</ele><time>2026-04-30T14:14:28.017Z</time></trkpt><trkpt lat="41.9845569" lon="4.045436"><ele>0.0</ele><time>2026-04-30T14:14:31.018Z</time></trkpt><trkpt lat="41.9845998" lon="4.0455432"><ele>0.0</ele><time>2026-04-30T14:14:32.017Z</time></trkpt><trkpt lat="41.984643" lon="4.0456505"><ele>0.0</ele><time>2026-04-30T14:14:33.017Z</time></trkpt><trkpt lat="41.984682" lon="4.0457532"><ele>0.0</ele><time>2026-04-30T14:14:34.018Z</time></trkpt><trkpt lat="41.9847214" lon="4.0458575"><ele>0.0</ele><time>2026-04-30T14:14:35.017Z</time></trkpt><trkpt lat="41.9847617" lon="4.0459642"><ele>0.0</ele><time>2026-04-30T14:14:36.018Z</time></trkpt><trkpt lat="41.9848001" lon="4.0460666"><ele>0.0</ele><time>2026-04-30T14:14:37.018Z</time></trkpt><trkpt lat="41.9848359" lon="4.046172"><ele>0.0</ele><time>2026-04-30T14:14:38.017Z</time></trkpt><trkpt lat="41.9848724" lon="4.0462786"><ele>0.0</ele><time>2026-04-30T14:14:39.017Z</time></trkpt><trkpt lat="41.9849093" lon="4.0463858"><ele>0.0</ele><time>2026-04-30T14:14:40.017Z</time></trkpt><trkpt lat="41.98495" lon="4.0464911"><ele>0.0</ele><time>2026-04-30T14:14:41.017Z</time></trkpt><trkpt lat="41.9849918" lon="4.0465963"><ele>0.0</ele><time>2026-04-30T14:14:42.017Z</time></trkpt><trkpt lat="41.9850333" lon="4.0466996"><ele>0.0</ele><time>2026-04-30T14:14:43.017Z</time></trkpt><trkpt lat="41.9850737" lon="4.0468033"><ele>0.0</ele><time>2026-04-30T14:14:44.017Z</time></trkpt><trkpt lat="41.9851102" lon="4.0469066"><ele>0.0</ele><time>2026-04-30T14:14:45.017Z</time></trkpt><trkpt lat="41.9851465" lon="4.047009"><ele>0.0</ele><time>2026-04-30T14:14:46.017Z</time></trkpt><trkpt lat="41.9851816" lon="4.0471105"><ele>0.0</ele><time>2026-04-30T14:14:47.018Z</time></trkpt><trkpt lat="41.9852146" lon="4.0472138"><ele>0.0</ele><time>2026-04-30T14:14:48.017Z</time></trkpt><trkpt lat="41.985248" lon="4.0473201"><ele>0.0</ele><time>2026-04-30T14:14:49.017Z</time></trkpt><trkpt lat="41.9852811" lon="4.0474222"><ele>0.0</ele><time>2026-04-30T14:14:50.017Z</time></trkpt><trkpt lat="41.985345" lon="4.0476273"><ele>0.0</ele><time>2026-04-30T14:14:52.017Z</time></trkpt><trkpt lat="41.9853769" lon="4.0477317"><ele>0.0</ele><time>2026-04-30T14:14:53.018Z</time></trkpt><trkpt lat="41.9854143" lon="4.0478355"><ele>0.0</ele><time>2026-04-30T14:14:54.017Z</time></trkpt><trkpt lat="41.9854482" lon="4.0479402"><ele>0.0</ele><time>2026-04-30T14:14:55.017Z</time></trkpt><trkpt lat="41.9854833" lon="4.0480425"><ele>0.0</ele><time>2026-04-30T14:14:56.018Z</time></trkpt><trkpt lat="41.9855201" lon="4.048145"><ele>0.0</ele><time>2026-04-30T14:14:57.017Z</time></trkpt><trkpt lat="41.9855633" lon="4.048244"><ele>0.0</ele><time>2026-04-30T14:14:58.017Z</time></trkpt><trkpt lat="41.9856104" lon="4.0483485"><ele>0.0</ele><time>2026-04-30T14:14:59.018Z</time></trkpt><trkpt lat="41.9856575" lon="4.0484495"><ele>0.0</ele><time>2026-04-30T14:15:00.017Z</time></trkpt><trkpt lat="41.9857401" lon="4.0486422"><ele>0.0</ele><time>2026-04-30T14:15:02.017Z</time></trkpt><trkpt lat="41.9857796" lon="4.0487373"><ele>0.0</ele><time>2026-04-30T14:15:03.017Z</time></trkpt><trkpt lat="41.9858253" lon="4.0488389"><ele>0.0</ele><time>2026-04-30T14:15:04.018Z</time></trkpt><trkpt lat="41.9858735" lon="4.048942"><ele>0.0</ele><time>2026-04-30T14:15:05.017Z</time></trkpt><trkpt lat="41.98592" lon="4.0490455"><ele>0.0</ele><time>2026-04-30T14:15:06.017Z</time></trkpt><trkpt lat="41.985957" lon="4.0491456"><ele>0.0</ele><time>2026-04-30T14:15:07.017Z</time></trkpt><trkpt lat="41.986002" lon="4.0492414"><ele>0.0</ele><time>2026-04-30T14:15:08.018Z</time></trkpt><trkpt lat="41.9860443" lon="4.0493418"><ele>0.0</ele><time>2026-04-30T14:15:09.018Z</time></trkpt><trkpt lat="41.9860892" lon="4.0494491"><ele>0.0</ele><time>2026-04-30T14:15:10.018Z</time></trkpt><trkpt lat="41.9861309" lon="4.0495545"><ele>0.0</ele><time>2026-04-30T14:15:11.018Z</time></trkpt><trkpt lat="41.9862082" lon="4.0497552"><ele>0.0</ele><time>2026-04-30T14:15:13.017Z</time></trkpt><trkpt lat="41.9862456" lon="4.0498526"><ele>0.0</ele><time>2026-04-30T14:15:14.018Z</time></trkpt><trkpt lat="41.9862819" lon="4.0499551"><ele>0.0</ele><time>2026-04-30T14:15:15.017Z</time></trkpt><trkpt lat="41.986319" lon="4.0500551"><ele>0.0</ele><time>2026-04-30T14:15:16.018Z</time></trkpt><trkpt lat="41.986358" lon="4.0501568"><ele>0.0</ele><time>2026-04-30T14:15:17.018Z</time></trkpt><trkpt lat="41.9863993" lon="4.0502587"><ele>0.0</ele><time>2026-04-30T14:15:18.017Z</time></trkpt><trkpt lat="41.9864365" lon="4.0503616"><ele>0.0</ele><time>2026-04-30T14:15:19.017Z</time></trkpt><trkpt lat="41.9864779" lon="4.0504631"><ele>0.0</ele><time>2026-04-30T14:15:20.018Z</time></trkpt><trkpt lat="41.9865166" lon="4.0505638"><ele>0.0</ele><time>2026-04-30T14:15:21.018Z</time></trkpt><trkpt lat="41.986557" lon="4.050659"><ele>0.0</ele><time>2026-04-30T14:15:22.017Z</time></trkpt><trkpt lat="41.9865935" lon="4.0507569"><ele>0.0</ele><time>2026-04-30T14:15:23.017Z</time></trkpt><trkpt lat="41.9866301" lon="4.0508551"><ele>0.0</ele><time>2026-04-30T14:15:24.018Z</time></trkpt><trkpt lat="41.9866697" lon="4.0509579"><ele>0.0</ele><time>2026-04-30T14:15:25.017Z</time></trkpt><trkpt lat="41.9867084" lon="4.0510601"><ele>0.0</ele><time>2026-04-30T14:15:26.017Z</time></trkpt><trkpt lat="41.9867468" lon="4.051157"><ele>0.0</ele><time>2026-04-30T14:15:27.018Z</time></trkpt><trkpt lat="41.9867851" lon="4.0512579"><ele>0.0</ele><time>2026-04-30T14:15:28.018Z</time></trkpt><trkpt lat="41.9868265" lon="4.0513628"><ele>0.0</ele><time>2026-04-30T14:15:29.017Z</time></trkpt><trkpt lat="41.986867" lon="4.0514608"><ele>0.0</ele><time>2026-04-30T14:15:30.018Z</time></trkpt><trkpt lat="41.9869067" lon="4.0515644"><ele>0.0</ele><time>2026-04-30T14:15:31.018Z</time></trkpt><trkpt lat="41.9869471" lon="4.0516654"><ele>0.0</ele><time>2026-04-30T14:15:32.018Z</time></trkpt><trkpt lat="41.9871086" lon="4.0520798"><ele>0.0</ele><time>2026-04-30T14:15:36.018Z</time></trkpt><trkpt lat="41.9871468" lon="4.052183"><ele>0.0</ele><time>2026-04-30T14:15:37.017Z</time></trkpt><trkpt lat="41.9871883" lon="4.0522864"><ele>0.0</ele><time>2026-04-30T14:15:38.017Z</time></trkpt><trkpt lat="41.9872286" lon="4.0523882"><ele>0.0</ele><time>2026-04-30T14:15:39.018Z</time></trkpt><trkpt lat="41.9872688" lon="4.0524904"><ele>0.0</ele><time>2026-04-30T14:15:40.017Z</time></trkpt><trkpt lat="41.987307" lon="4.052593"><ele>0.0</ele><time>2026-04-30T14:15:41.017Z</time></trkpt><trkpt lat="41.9873433" lon="4.0526947"><ele>0.0</ele><time>2026-04-30T14:15:42.018Z</time></trkpt><trkpt lat="41.9873807" lon="4.052795"><ele>0.0</ele><time>2026-04-30T14:15:43.017Z</time></trkpt><trkpt lat="41.9874165" lon="4.0528993"><ele>0.0</ele><time>2026-04-30T14:15:44.017Z</time></trkpt><trkpt lat="41.987455" lon="4.0530029"><ele>0.0</ele><time>2026-04-30T14:15:45.017Z</time></trkpt><trkpt lat="41.987495" lon="4.0531049"><ele>0.0</ele><time>2026-04-30T14:15:46.018Z</time></trkpt><trkpt lat="41.9875323" lon="4.0532053"><ele>0.0</ele><time>2026-04-30T14:15:47.018Z</time></trkpt><trkpt lat="41.9875729" lon="4.0533138"><ele>0.0</ele><time>2026-04-30T14:15:48.017Z</time></trkpt><trkpt lat="41.987608" lon="4.0534251"><ele>0.0</ele><time>2026-04-30T14:15:49.018Z</time></trkpt><trkpt lat="41.9876469" lon="4.053531"><ele>0.0</ele><time>2026-04-30T14:15:50.017Z</time></trkpt><trkpt lat="41.9876851" lon="4.0536333"><ele>0.0</ele><time>2026-04-30T14:15:51.018Z</time></trkpt><trkpt lat="41.9877249" lon="4.0537396"><ele>0.0</ele><time>2026-04-30T14:15:52.017Z</time></trkpt><trkpt lat="41.9877653" lon="4.0538402"><ele>0.0</ele><time>2026-04-30T14:15:53.018Z</time></trkpt><trkpt lat="41.9878052" lon="4.0539399"><ele>0.0</ele><time>2026-04-30T14:15:54.018Z</time></trkpt><trkpt lat="41.9878482" lon="4.0540469"><ele>0.0</ele><time>2026-04-30T14:15:55.018Z</time></trkpt><trkpt lat="41.987932" lon="4.0542496"><ele>0.0</ele><time>2026-04-30T14:15:57.018Z</time></trkpt><trkpt lat="41.9879752" lon="4.0543498"><ele>0.0</ele><time>2026-04-30T14:15:58.017Z</time></trkpt><trkpt lat="41.9880124" lon="4.0544484"><ele>0.0</ele><time>2026-04-30T14:15:59.017Z</time></trkpt><trkpt lat="41.9880518" lon="4.0545493"><ele>0.0</ele><time>2026-04-30T14:16:00.018Z</time></trkpt><trkpt lat="41.9880905" lon="4.05465"><ele>0.0</ele><time>2026-04-30T14:16:01.017Z</time></trkpt><trkpt lat="41.9881302" lon="4.0547499"><ele>0.0</ele><time>2026-04-30T14:16:02.017Z</time></trkpt><trkpt lat="41.9881698" lon="4.0548544"><ele>0.0</ele><time>2026-04-30T14:16:03.018Z</time></trkpt><trkpt lat="41.9882106" lon="4.0549553"><ele>0.0</ele><time>2026-04-30T14:16:04.017Z</time></trkpt><trkpt lat="41.9882951" lon="4.05516"><ele>0.0</ele><time>2026-04-30T14:16:06.017Z</time></trkpt><trkpt lat="41.9883385" lon="4.05526"><ele>0.0</ele><time>2026-04-30T14:16:07.018Z</time></trkpt><trkpt lat="41.9883772" lon="4.0553582"><ele>0.0</ele><time>2026-04-30T14:16:08.017Z</time></trkpt><trkpt lat="41.9884152" lon="4.055458"><ele>0.0</ele><time>2026-04-30T14:16:09.018Z</time></trkpt><trkpt lat="41.9884552" lon="4.0555611"><ele>0.0</ele><time>2026-04-30T14:16:10.018Z</time></trkpt><trkpt lat="41.9884922" lon="4.0556618"><ele>0.0</ele><time>2026-04-30T14:16:11.017Z</time></trkpt><trkpt lat="41.9885271" lon="4.0557662"><ele>0.0</ele><time>2026-04-30T14:16:12.018Z</time></trkpt><trkpt lat="41.9885638" lon="4.0558695"><ele>0.0</ele><time>2026-04-30T14:16:13.017Z</time></trkpt><trkpt lat="41.9885988" lon="4.0559732"><ele>0.0</ele><time>2026-04-30T14:16:14.018Z</time></trkpt><trkpt lat="41.9886352" lon="4.0560795"><ele>0.0</ele><time>2026-04-30T14:16:15.018Z</time></trkpt><trkpt lat="41.9886723" lon="4.0561859"><ele>0.0</ele><time>2026-04-30T14:16:16.018Z</time></trkpt><trkpt lat="41.9887501" lon="4.056385"><ele>0.0</ele><time>2026-04-30T14:16:18.017Z</time></trkpt><trkpt lat="41.988792" lon="4.0564833"><ele>0.0</ele><time>2026-04-30T14:16:19.018Z</time></trkpt><trkpt lat="41.988832" lon="4.056582"><ele>0.0</ele><time>2026-04-30T14:16:20.017Z</time></trkpt><trkpt lat="41.9888706" lon="4.0566821"><ele>0.0</ele><time>2026-04-30T14:16:21.018Z</time></trkpt><trkpt lat="41.9889106" lon="4.0567805"><ele>0.0</ele><time>2026-04-30T14:16:22.017Z</time></trkpt><trkpt lat="41.9889459" lon="4.0568775"><ele>0.0</ele><time>2026-04-30T14:16:23.018Z</time></trkpt><trkpt lat="41.9889834" lon="4.0569813"><ele>0.0</ele><time>2026-04-30T14:16:24.017Z</time></trkpt><trkpt lat="41.9890201" lon="4.0570863"><ele>0.0</ele><time>2026-04-30T14:16:25.018Z</time></trkpt><trkpt lat="41.9890568" lon="4.0571927"><ele>0.0</ele><time>2026-04-30T14:16:26.017Z</time></trkpt><trkpt lat="41.9890935" lon="4.0572953"><ele>0.0</ele><time>2026-04-30T14:16:27.018Z</time></trkpt><trkpt lat="41.9891335" lon="4.0573979"><ele>0.0</ele><time>2026-04-30T14:16:28.017Z</time></trkpt><trkpt lat="41.9891721" lon="4.0574973"><ele>0.0</ele><time>2026-04-30T14:16:29.017Z</time></trkpt><trkpt lat="41.9892086" lon="4.057597"><ele>0.0</ele><time>2026-04-30T14:16:30.018Z</time></trkpt><trkpt lat="41.9892469" lon="4.0576953"><ele>0.0</ele><time>2026-04-30T14:16:31.018Z</time></trkpt><trkpt lat="41.9892854" lon="4.0577954"><ele>0.0</ele><time>2026-04-30T14:16:32.017Z</time></trkpt><trkpt lat="41.9893265" lon="4.0578995"><ele>0.0</ele><time>2026-04-30T14:16:33.017Z</time></trkpt><trkpt lat="41.9893648" lon="4.0580046"><ele>0.0</ele><time>2026-04-30T14:16:34.017Z</time></trkpt><trkpt lat="41.9894048" lon="4.0581076"><ele>0.0</ele><time>2026-04-30T14:16:35.017Z</time></trkpt><trkpt lat="41.9894464" lon="4.0582125"><ele>0.0</ele><time>2026-04-30T14:16:36.017Z</time></trkpt><trkpt lat="41.9894914" lon="4.0583176"><ele>0.0</ele><time>2026-04-30T14:16:37.018Z</time></trkpt><trkpt lat="41.9895365" lon="4.0584258"><ele>0.0</ele><time>2026-04-30T14:16:38.018Z</time></trkpt><trkpt lat="41.9896652" lon="4.0587467"><ele>0.0</ele><time>2026-04-30T14:16:41.018Z</time></trkpt><trkpt lat="41.9897484" lon="4.0589446"><ele>0.0</ele><time>2026-04-30T14:16:43.017Z</time></trkpt><trkpt lat="41.9897931" lon="4.0590448"><ele>0.0</ele><time>2026-04-30T14:16:44.018Z</time></trkpt><trkpt lat="41.9898351" lon="4.059149"><ele>0.0</ele><time>2026-04-30T14:16:45.017Z</time></trkpt><trkpt lat="41.989875" lon="4.0592528"><ele>0.0</ele><time>2026-04-30T14:16:46.018Z</time></trkpt><trkpt lat="41.9899166" lon="4.0593589"><ele>0.0</ele><time>2026-04-30T14:16:47.018Z</time></trkpt><trkpt lat="41.9899554" lon="4.059463"><ele>0.0</ele><time>2026-04-30T14:16:48.017Z</time></trkpt><trkpt lat="41.9899925" lon="4.0595591"><ele>0.0</ele><time>2026-04-30T14:16:49.017Z</time></trkpt><trkpt lat="41.9900289" lon="4.0596571"><ele>0.0</ele><time>2026-04-30T14:16:50.017Z</time></trkpt><trkpt lat="41.9900652" lon="4.0597573"><ele>0.0</ele><time>2026-04-30T14:16:51.018Z</time></trkpt><trkpt lat="41.9901004" lon="4.0598587"><ele>0.0</ele><time>2026-04-30T14:16:52.017Z</time></trkpt><trkpt lat="41.9901368" lon="4.0599628"><ele>0.0</ele><time>2026-04-30T14:16:53.017Z</time></trkpt><trkpt lat="41.9901723" lon="4.060068"><ele>0.0</ele><time>2026-04-30T14:16:54.017Z</time></trkpt><trkpt lat="41.9902115" lon="4.0601676"><ele>0.0</ele><time>2026-04-30T14:16:55.017Z</time></trkpt><trkpt lat="41.9902505" lon="4.0602699"><ele>0.0</ele><time>2026-04-30T14:16:56.017Z</time></trkpt><trkpt lat="41.9902979" lon="4.0603786"><ele>0.0</ele><time>2026-04-30T14:16:57.017Z</time></trkpt><trkpt lat="41.9903417" lon="4.0604843"><ele>0.0</ele><time>2026-04-30T14:16:58.018Z</time></trkpt><trkpt lat="41.9903836" lon="4.0605871"><ele>0.0</ele><time>2026-04-30T14:16:59.017Z</time></trkpt><trkpt lat="41.9904224" lon="4.0606901"><ele>0.0</ele><time>2026-04-30T14:17:00.018Z</time></trkpt><trkpt lat="41.9904958" lon="4.0608849"><ele>0.0</ele><time>2026-04-30T14:17:02.018Z</time></trkpt><trkpt lat="41.9905336" lon="4.0609821"><ele>0.0</ele><time>2026-04-30T14:17:03.017Z</time></trkpt><trkpt lat="41.9905736" lon="4.0610791"><ele>0.0</ele><time>2026-04-30T14:17:04.018Z</time></trkpt><trkpt lat="41.9906154" lon="4.0611741"><ele>0.0</ele><time>2026-04-30T14:17:05.018Z</time></trkpt><trkpt lat="41.9906557" lon="4.0612719"><ele>0.0</ele><time>2026-04-30T14:17:06.017Z</time></trkpt><trkpt lat="41.990697" lon="4.061376"><ele>0.0</ele><time>2026-04-30T14:17:07.017Z</time></trkpt><trkpt lat="41.9907372" lon="4.061478"><ele>0.0</ele><time>2026-04-30T14:17:08.017Z</time></trkpt><trkpt lat="41.9907804" lon="4.0615779"><ele>0.0</ele><time>2026-04-30T14:17:09.018Z</time></trkpt><trkpt lat="41.9908218" lon="4.0616836"><ele>0.0</ele><time>2026-04-30T14:17:10.017Z</time></trkpt><trkpt lat="41.9908618" lon="4.0617847"><ele>0.0</ele><time>2026-04-30T14:17:11.017Z</time></trkpt><trkpt lat="41.9909246" lon="4.0619991"><ele>0.0</ele><time>2026-04-30T14:17:13.018Z</time></trkpt><trkpt lat="41.9909533" lon="4.0621018"><ele>0.0</ele><time>2026-04-30T14:17:14.018Z</time></trkpt><trkpt lat="41.9909886" lon="4.0621992"><ele>0.0</ele><time>2026-04-30T14:17:15.017Z</time></trkpt><trkpt lat="41.9910198" lon="4.0622998"><ele>0.0</ele><time>2026-04-30T14:17:16.017Z</time></trkpt><trkpt lat="41.991053" lon="4.0624019"><ele>0.0</ele><time>2026-04-30T14:17:17.017Z</time></trkpt><trkpt lat="41.9910873" lon="4.0625065"><ele>0.0</ele><time>2026-04-30T14:17:18.017Z</time></trkpt><trkpt lat="41.9911189" lon="4.0626102"><ele>0.0</ele><time>2026-04-30T14:17:19.018Z</time></trkpt><trkpt lat="41.9911546" lon="4.0627117"><ele>0.0</ele><time>2026-04-30T14:17:20.018Z</time></trkpt><trkpt lat="41.9911942" lon="4.062814"><ele>0.0</ele><time>2026-04-30T14:17:21.017Z</time></trkpt><trkpt lat="41.9912822" lon="4.0630185"><ele>0.0</ele><time>2026-04-30T14:17:23.018Z</time></trkpt><trkpt lat="41.9913217" lon="4.063129"><ele>0.0</ele><time>2026-04-30T14:17:24.017Z</time></trkpt><trkpt lat="41.9913566" lon="4.063236"><ele>0.0</ele><time>2026-04-30T14:17:25.018Z</time></trkpt><trkpt lat="41.9913975" lon="4.0633444"><ele>0.0</ele><time>2026-04-30T14:17:26.017Z</time></trkpt><trkpt lat="41.9914435" lon="4.063445"><ele>0.0</ele><time>2026-04-30T14:17:27.018Z</time></trkpt><trkpt lat="41.9914789" lon="4.063548"><ele>0.0</ele><time>2026-04-30T14:17:28.018Z</time></trkpt><trkpt lat="41.9915165" lon="4.0636575"><ele>0.0</ele><time>2026-04-30T14:17:29.018Z</time></trkpt><trkpt lat="41.9915606" lon="4.0637632"><ele>0.0</ele><time>2026-04-30T14:17:30.018Z</time></trkpt><trkpt lat="41.9916142" lon="4.0638565"><ele>0.0</ele><time>2026-04-30T14:17:31.017Z</time></trkpt><trkpt lat="41.9916665" lon="4.0639542"><ele>0.0</ele><time>2026-04-30T14:17:32.018Z</time></trkpt><trkpt lat="41.991705" lon="4.0640536"><ele>0.0</ele><time>2026-04-30T14:17:33.017Z</time></trkpt><trkpt lat="41.9917462" lon="4.0641606"><ele>0.0</ele><time>2026-04-30T14:17:34.017Z</time></trkpt><trkpt lat="41.9917897" lon="4.0642674"><ele>0.0</ele><time>2026-04-30T14:17:35.018Z</time></trkpt><trkpt lat="41.9918248" lon="4.064367"><ele>0.0</ele><time>2026-04-30T14:17:36.018Z</time></trkpt><trkpt lat="41.991858" lon="4.064474"><ele>0.0</ele><time>2026-04-30T14:17:37.017Z</time></trkpt><trkpt lat="41.9918865" lon="4.0645694"><ele>0.0</ele><time>2026-04-30T14:17:38.018Z</time></trkpt><trkpt lat="41.9919256" lon="4.0646655"><ele>0.0</ele><time>2026-04-30T14:17:39.017Z</time></trkpt><trkpt lat="41.9919663" lon="4.0647711"><ele>0.0</ele><time>2026-04-30T14:17:40.017Z</time></trkpt><trkpt lat="41.9920076" lon="4.0648806"><ele>0.0</ele><time>2026-04-30T14:17:41.017Z</time></trkpt><trkpt lat="41.9920468" lon="4.0649864"><ele>0.0</ele><time>2026-04-30T14:17:42.017Z</time></trkpt><trkpt lat="41.9920784" lon="4.0650857"><ele>0.0</ele><time>2026-04-30T14:17:43.017Z</time></trkpt><trkpt lat="41.9921632" lon="4.0652911"><ele>0.0</ele><time>2026-04-30T14:17:45.017Z</time></trkpt><trkpt lat="41.992198" lon="4.0653919"><ele>0.0</ele><time>2026-04-30T14:17:46.016Z</time></trkpt><trkpt lat="41.9922309" lon="4.0654936"><ele>0.0</ele><time>2026-04-30T14:17:47.016Z</time></trkpt><trkpt lat="41.9922654" lon="4.0655965"><ele>0.0</ele><time>2026-04-30T14:17:48.017Z</time></trkpt><trkpt lat="41.9922975" lon="4.0656954"><ele>0.0</ele><time>2026-04-30T14:17:49.017Z</time></trkpt><trkpt lat="41.9923289" lon="4.0657952"><ele>0.0</ele><time>2026-04-30T14:17:50.016Z</time></trkpt><trkpt lat="41.9923607" lon="4.065897"><ele>0.0</ele><time>2026-04-30T14:17:51.017Z</time></trkpt><trkpt lat="41.9924033" lon="4.0659954"><ele>0.0</ele><time>2026-04-30T14:17:52.017Z</time></trkpt><trkpt lat="41.9924484" lon="4.0660966"><ele>0.0</ele><time>2026-04-30T14:17:53.017Z</time></trkpt><trkpt lat="41.9924978" lon="4.0662014"><ele>0.0</ele><time>2026-04-30T14:17:54.016Z</time></trkpt><trkpt lat="41.9925471" lon="4.0663036"><ele>0.0</ele><time>2026-04-30T14:17:55.016Z</time></trkpt><trkpt lat="41.9925912" lon="4.0664083"><ele>0.0</ele><time>2026-04-30T14:17:56.017Z</time></trkpt><trkpt lat="41.99264" lon="4.0665104"><ele>0.0</ele><time>2026-04-30T14:17:57.017Z</time></trkpt><trkpt lat="41.9926876" lon="4.0666118"><ele>0.0</ele><time>2026-04-30T14:17:58.017Z</time></trkpt><trkpt lat="41.9927302" lon="4.0667133"><ele>0.0</ele><time>2026-04-30T14:17:59.016Z</time></trkpt><trkpt lat="41.9927729" lon="4.066815"><ele>0.0</ele><time>2026-04-30T14:18:00.016Z</time></trkpt><trkpt lat="41.992815" lon="4.0669197"><ele>0.0</ele><time>2026-04-30T14:18:01.016Z</time></trkpt><trkpt lat="41.9928467" lon="4.0670191"><ele>0.0</ele><time>2026-04-30T14:18:02.016Z</time></trkpt><trkpt lat="41.9928823" lon="4.0671201"><ele>0.0</ele><time>2026-04-30T14:18:03.016Z</time></trkpt><trkpt lat="41.9929189" lon="4.0672189"><ele>0.0</ele><time>2026-04-30T14:18:04.017Z</time></trkpt><trkpt lat="41.9929555" lon="4.0673189"><ele>0.0</ele><time>2026-04-30T14:18:05.017Z</time></trkpt><trkpt lat="41.9930238" lon="4.067517"><ele>0.0</ele><time>2026-04-30T14:18:07.017Z</time></trkpt><trkpt lat="41.9930615" lon="4.0676182"><ele>0.0</ele><time>2026-04-30T14:18:08.016Z</time></trkpt><trkpt lat="41.9931017" lon="4.0677244"><ele>0.0</ele><time>2026-04-30T14:18:09.016Z</time></trkpt><trkpt lat="41.9931405" lon="4.0678256"><ele>0.0</ele><time>2026-04-30T14:18:10.017Z</time></trkpt><trkpt lat="41.9931801" lon="4.0679281"><ele>0.0</ele><time>2026-04-30T14:18:11.016Z</time></trkpt><trkpt lat="41.993217" lon="4.0680313"><ele>0.0</ele><time>2026-04-30T14:18:12.016Z</time></trkpt><trkpt lat="41.9932562" lon="4.0681388"><ele>0.0</ele><time>2026-04-30T14:18:13.017Z</time></trkpt><trkpt lat="41.9932922" lon="4.0682416"><ele>0.0</ele><time>2026-04-30T14:18:14.016Z</time></trkpt><trkpt lat="41.9933231" lon="4.0683476"><ele>0.0</ele><time>2026-04-30T14:18:15.017Z</time></trkpt><trkpt lat="41.9933999" lon="4.0685576"><ele>0.0</ele><time>2026-04-30T14:18:17.016Z</time></trkpt><trkpt lat="41.9934352" lon="4.0686605"><ele>0.0</ele><time>2026-04-30T14:18:18.016Z</time></trkpt><trkpt lat="41.9934674" lon="4.0687621"><ele>0.0</ele><time>2026-04-30T14:18:19.017Z</time></trkpt><trkpt lat="41.9935047" lon="4.0688678"><ele>0.0</ele><time>2026-04-30T14:18:20.016Z</time></trkpt><trkpt lat="41.9935418" lon="4.068973"><ele>0.0</ele><time>2026-04-30T14:18:21.017Z</time></trkpt><trkpt lat="41.9935783" lon="4.069077"><ele>0.0</ele><time>2026-04-30T14:18:22.017Z</time></trkpt><trkpt lat="41.9936121" lon="4.0691787"><ele>0.0</ele><time>2026-04-30T14:18:23.016Z</time></trkpt><trkpt lat="41.99365" lon="4.0692814"><ele>0.0</ele><time>2026-04-30T14:18:24.016Z</time></trkpt><trkpt lat="41.9936856" lon="4.0693834"><ele>0.0</ele><time>2026-04-30T14:18:25.016Z</time></trkpt><trkpt lat="41.9937236" lon="4.0694868"><ele>0.0</ele><time>2026-04-30T14:18:26.017Z</time></trkpt><trkpt lat="41.9938018" lon="4.0696902"><ele>0.0</ele><time>2026-04-30T14:18:28.017Z</time></trkpt><trkpt lat="41.9938402" lon="4.0697921"><ele>0.0</ele><time>2026-04-30T14:18:29.016Z</time></trkpt><trkpt lat="41.9938785" lon="4.0698904"><ele>0.0</ele><time>2026-04-30T14:18:30.016Z</time></trkpt><trkpt lat="41.9939181" lon="4.069993"><ele>0.0</ele><time>2026-04-30T14:18:31.016Z</time></trkpt><trkpt lat="41.9939556" lon="4.0700951"><ele>0.0</ele><time>2026-04-30T14:18:32.016Z</time></trkpt><trkpt lat="41.9939922" lon="4.0701936"><ele>0.0</ele><time>2026-04-30T14:18:33.017Z</time></trkpt><trkpt lat="41.9940286" lon="4.0702928"><ele>0.0</ele><time>2026-04-30T14:18:34.017Z</time></trkpt><trkpt lat="41.9940715" lon="4.0703958"><ele>0.0</ele><time>2026-04-30T14:18:35.017Z</time></trkpt><trkpt lat="41.9941124" lon="4.0704952"><ele>0.0</ele><time>2026-04-30T14:18:36.017Z</time></trkpt><trkpt lat="41.9941488" lon="4.0705935"><ele>0.0</ele><time>2026-04-30T14:18:37.017Z</time></trkpt><trkpt lat="41.9941839" lon="4.0706978"><ele>0.0</ele><time>2026-04-30T14:18:38.017Z</time></trkpt><trkpt lat="41.9942217" lon="4.0708059"><ele>0.0</ele><time>2026-04-30T14:18:39.017Z</time></trkpt><trkpt lat="41.9942599" lon="4.0709129"><ele>0.0</ele><time>2026-04-30T14:18:40.017Z</time></trkpt><trkpt lat="41.994298" lon="4.0710238"><ele>0.0</ele><time>2026-04-30T14:18:41.017Z</time></trkpt><trkpt lat="41.9943382" lon="4.0711297"><ele>0.0</ele><time>2026-04-30T14:18:42.016Z</time></trkpt><trkpt lat="41.994377" lon="4.0712305"><ele>0.0</ele><time>2026-04-30T14:18:43.016Z</time></trkpt><trkpt lat="41.9944123" lon="4.0713289"><ele>0.0</ele><time>2026-04-30T14:18:44.017Z</time></trkpt><trkpt lat="41.9944503" lon="4.07143"><ele>0.0</ele><time>2026-04-30T14:18:45.016Z</time></trkpt><trkpt lat="41.9944869" lon="4.0715306"><ele>0.0</ele><time>2026-04-30T14:18:46.017Z</time></trkpt><trkpt lat="41.9945234" lon="4.0716318"><ele>0.0</ele><time>2026-04-30T14:18:47.017Z</time></trkpt><trkpt lat="41.9946317" lon="4.0719393"><ele>0.0</ele><time>2026-04-30T14:18:50.016Z</time></trkpt><trkpt lat="41.9946688" lon="4.0720387"><ele>0.0</ele><time>2026-04-30T14:18:51.017Z</time></trkpt><trkpt lat="41.9947008" lon="4.0721404"><ele>0.0</ele><time>2026-04-30T14:18:52.016Z</time></trkpt><trkpt lat="41.9947368" lon="4.0722431"><ele>0.0</ele><time>2026-04-30T14:18:53.017Z</time></trkpt><trkpt lat="41.9947747" lon="4.0723481"><ele>0.0</ele><time>2026-04-30T14:18:54.016Z</time></trkpt><trkpt lat="41.9948135" lon="4.0724532"><ele>0.0</ele><time>2026-04-30T14:18:55.016Z</time></trkpt><trkpt lat="41.9948518" lon="4.0725553"><ele>0.0</ele><time>2026-04-30T14:18:56.017Z</time></trkpt><trkpt lat="41.9948884" lon="4.0726581"><ele>0.0</ele><time>2026-04-30T14:18:57.017Z</time></trkpt><trkpt lat="41.9949281" lon="4.0727627"><ele>0.0</ele><time>2026-04-30T14:18:58.016Z</time></trkpt><trkpt lat="41.9949698" lon="4.0728665"><ele>0.0</ele><time>2026-04-30T14:18:59.016Z</time></trkpt><trkpt lat="41.9950115" lon="4.0729707"><ele>0.0</ele><time>2026-04-30T14:19:00.017Z</time></trkpt><trkpt lat="41.9950546" lon="4.0730743"><ele>0.0</ele><time>2026-04-30T14:19:01.017Z</time></trkpt><trkpt lat="41.9950982" lon="4.0731764"><ele>0.0</ele><time>2026-04-30T14:19:02.016Z</time></trkpt><trkpt lat="41.9951404" lon="4.0732723"><ele>0.0</ele><time>2026-04-30T14:19:03.016Z</time></trkpt><trkpt lat="41.9951834" lon="4.0733713"><ele>0.0</ele><time>2026-04-30T14:19:04.016Z</time></trkpt><trkpt lat="41.9952265" lon="4.0734714"><ele>0.0</ele><time>2026-04-30T14:19:05.016Z</time></trkpt><trkpt lat="41.9952743" lon="4.0735743"><ele>0.0</ele><time>2026-04-30T14:19:06.017Z</time></trkpt><trkpt lat="41.99532" lon="4.0736732"><ele>0.0</ele><time>2026-04-30T14:19:07.017Z</time></trkpt><trkpt lat="41.995362" lon="4.0737721"><ele>0.0</ele><time>2026-04-30T14:19:08.016Z</time></trkpt><trkpt lat="41.9954023" lon="4.0738705"><ele>0.0</ele><time>2026-04-30T14:19:09.016Z</time></trkpt><trkpt lat="41.9954817" lon="4.0740716"><ele>0.0</ele><time>2026-04-30T14:19:11.017Z</time></trkpt><trkpt lat="41.99553" lon="4.0741734"><ele>0.0</ele><time>2026-04-30T14:19:12.017Z</time></trkpt><trkpt lat="41.9955755" lon="4.0742851"><ele>0.0</ele><time>2026-04-30T14:19:13.017Z</time></trkpt><trkpt lat="41.9956118" lon="4.0743903"><ele>0.0</ele><time>2026-04-30T14:19:14.016Z</time></trkpt><trkpt lat="41.9956466" lon="4.0744919"><ele>0.0</ele><time>2026-04-30T14:19:15.017Z</time></trkpt><trkpt lat="41.9956816" lon="4.074595"><ele>0.0</ele><time>2026-04-30T14:19:16.017Z</time></trkpt><trkpt lat="41.9957182" lon="4.0746985"><ele>0.0</ele><time>2026-04-30T14:19:17.016Z</time></trkpt><trkpt lat="41.9957576" lon="4.0748002"><ele>0.0</ele><time>2026-04-30T14:19:18.016Z</time></trkpt><trkpt lat="41.9958047" lon="4.0748998"><ele>0.0</ele><time>2026-04-30T14:19:19.016Z</time></trkpt><trkpt lat="41.9959073" lon="4.0750953"><ele>0.0</ele><time>2026-04-30T14:19:21.016Z</time></trkpt><trkpt lat="41.9959527" lon="4.0751939"><ele>0.0</ele><time>2026-04-30T14:19:22.017Z</time></trkpt><trkpt lat="41.9959963" lon="4.0752948"><ele>0.0</ele><time>2026-04-30T14:19:23.016Z</time></trkpt><trkpt lat="41.9960352" lon="4.0753952"><ele>0.0</ele><time>2026-04-30T14:19:24.016Z</time></trkpt><trkpt lat="41.9960734" lon="4.0754996"><ele>0.0</ele><time>2026-04-30T14:19:25.016Z</time></trkpt><trkpt lat="41.9961118" lon="4.0756032"><ele>0.0</ele><time>2026-04-30T14:19:26.016Z</time></trkpt><trkpt lat="41.9961499" lon="4.0757079"><ele>0.0</ele><time>2026-04-30T14:19:27.017Z</time></trkpt><trkpt lat="41.9961914" lon="4.0758075"><ele>0.0</ele><time>2026-04-30T14:19:28.016Z</time></trkpt><trkpt lat="41.9962332" lon="4.0759097"><ele>0.0</ele><time>2026-04-30T14:19:29.017Z</time></trkpt><trkpt lat="41.9962707" lon="4.0760115"><ele>0.0</ele><time>2026-04-30T14:19:30.017Z</time></trkpt><trkpt lat="41.9963421" lon="4.0762145"><ele>0.0</ele><time>2026-04-30T14:19:32.016Z</time></trkpt><trkpt lat="41.99637" lon="4.0763195"><ele>0.0</ele><time>2026-04-30T14:19:33.016Z</time></trkpt><trkpt lat="41.9964051" lon="4.0764259"><ele>0.0</ele><time>2026-04-30T14:19:34.017Z</time></trkpt><trkpt lat="41.9964436" lon="4.0765298"><ele>0.0</ele><time>2026-04-30T14:19:35.017Z</time></trkpt><trkpt lat="41.9964833" lon="4.0766332"><ele>0.0</ele><time>2026-04-30T14:19:36.016Z</time></trkpt><trkpt lat="41.9965267" lon="4.0767344"><ele>0.0</ele><time>2026-04-30T14:19:37.017Z</time></trkpt><trkpt lat="41.9965734" lon="4.0768331"><ele>0.0</ele><time>2026-04-30T14:19:38.016Z</time></trkpt><trkpt lat="41.9966189" lon="4.0769282"><ele>0.0</ele><time>2026-04-30T14:19:39.016Z</time></trkpt><trkpt lat="41.9966683" lon="4.0770247"><ele>0.0</ele><time>2026-04-30T14:19:40.017Z</time></trkpt><trkpt lat="41.996714" lon="4.0771171"><ele>0.0</ele><time>2026-04-30T14:19:41.017Z</time></trkpt><trkpt lat="41.9967604" lon="4.0772129"><ele>0.0</ele><time>2026-04-30T14:19:42.016Z</time></trkpt><trkpt lat="41.9968046" lon="4.0773096"><ele>0.0</ele><time>2026-04-30T14:19:43.017Z</time></trkpt><trkpt lat="41.9968512" lon="4.0774073"><ele>0.0</ele><time>2026-04-30T14:19:44.016Z</time></trkpt><trkpt lat="41.9968934" lon="4.0774958"><ele>0.0</ele><time>2026-04-30T14:19:45.017Z</time></trkpt><trkpt lat="41.9969327" lon="4.0775964"><ele>0.0</ele><time>2026-04-30T14:19:46.016Z</time></trkpt><trkpt lat="41.9969697" lon="4.0776989"><ele>0.0</ele><time>2026-04-30T14:19:47.017Z</time></trkpt><trkpt lat="41.9970033" lon="4.0778038"><ele>0.0</ele><time>2026-04-30T14:19:48.017Z</time></trkpt><trkpt lat="41.9970351" lon="4.0779116"><ele>0.0</ele><time>2026-04-30T14:19:49.017Z</time></trkpt><trkpt lat="41.9970624" lon="4.0780121"><ele>0.0</ele><time>2026-04-30T14:19:50.016Z</time></trkpt><trkpt lat="41.997092" lon="4.0781187"><ele>0.0</ele><time>2026-04-30T14:19:51.017Z</time></trkpt><trkpt lat="41.9971275" lon="4.0782283"><ele>0.0</ele><time>2026-04-30T14:19:52.016Z</time></trkpt><trkpt lat="41.9972404" lon="4.07856"><ele>0.0</ele><time>2026-04-30T14:19:55.017Z</time></trkpt><trkpt lat="41.9972731" lon="4.0786668"><ele>0.0</ele><time>2026-04-30T14:19:56.016Z</time></trkpt><trkpt lat="41.9973082" lon="4.07877"><ele>0.0</ele><time>2026-04-30T14:19:57.016Z</time></trkpt><trkpt lat="41.997342" lon="4.0788732"><ele>0.0</ele><time>2026-04-30T14:19:58.016Z</time></trkpt><trkpt lat="41.9973781" lon="4.078975"><ele>0.0</ele><time>2026-04-30T14:19:59.016Z</time></trkpt><trkpt lat="41.9974121" lon="4.0790807"><ele>0.0</ele><time>2026-04-30T14:20:00.017Z</time></trkpt><trkpt lat="41.997447" lon="4.0791872"><ele>0.0</ele><time>2026-04-30T14:20:01.017Z</time></trkpt><trkpt lat="41.997481" lon="4.0792902"><ele>0.0</ele><time>2026-04-30T14:20:02.016Z</time></trkpt><trkpt lat="41.9975217" lon="4.0793933"><ele>0.0</ele><time>2026-04-30T14:20:03.017Z</time></trkpt><trkpt lat="41.9975623" lon="4.079498"><ele>0.0</ele><time>2026-04-30T14:20:04.016Z</time></trkpt><trkpt lat="41.9975996" lon="4.0795998"><ele>0.0</ele><time>2026-04-30T14:20:05.016Z</time></trkpt><trkpt lat="41.9976345" lon="4.0796999"><ele>0.0</ele><time>2026-04-30T14:20:06.016Z</time></trkpt><trkpt lat="41.9976681" lon="4.0797996"><ele>0.0</ele><time>2026-04-30T14:20:07.017Z</time></trkpt><trkpt lat="41.9977042" lon="4.0799013"><ele>0.0</ele><time>2026-04-30T14:20:08.016Z</time></trkpt><trkpt lat="41.9977404" lon="4.0800031"><ele>0.0</ele><time>2026-04-30T14:20:09.017Z</time></trkpt><trkpt lat="41.9977709" lon="4.0801065"><ele>0.0</ele><time>2026-04-30T14:20:10.017Z</time></trkpt><trkpt lat="41.9978036" lon="4.0802114"><ele>0.0</ele><time>2026-04-30T14:20:11.017Z</time></trkpt><trkpt lat="41.9978366" lon="4.0803193"><ele>0.0</ele><time>2026-04-30T14:20:12.017Z</time></trkpt><trkpt lat="41.9978739" lon="4.0804203"><ele>0.0</ele><time>2026-04-30T14:20:13.017Z</time></trkpt><trkpt lat="41.997914" lon="4.0805223"><ele>0.0</ele><time>2026-04-30T14:20:14.017Z</time></trkpt><trkpt lat="41.9979969" lon="4.0807173"><ele>0.0</ele><time>2026-04-30T14:20:16.017Z</time></trkpt><trkpt lat="41.9980351" lon="4.0808165"><ele>0.0</ele><time>2026-04-30T14:20:17.017Z</time></trkpt><trkpt lat="41.9980748" lon="4.0809163"><ele>0.0</ele><time>2026-04-30T14:20:18.017Z</time></trkpt><trkpt lat="41.9981179" lon="4.0810194"><ele>0.0</ele><time>2026-04-30T14:20:19.016Z</time></trkpt><trkpt lat="41.9981544" lon="4.0811255"><ele>0.0</ele><time>2026-04-30T14:20:20.016Z</time></trkpt><trkpt lat="41.9981932" lon="4.0812315"><ele>0.0</ele><time>2026-04-30T14:20:21.016Z</time></trkpt><trkpt lat="41.9982241" lon="4.0813424"><ele>0.0</ele><time>2026-04-30T14:20:22.016Z</time></trkpt><trkpt lat="41.9982626" lon="4.0814468"><ele>0.0</ele><time>2026-04-30T14:20:23.017Z</time></trkpt><trkpt lat="41.9983011" lon="4.0815526"><ele>0.0</ele><time>2026-04-30T14:20:24.016Z</time></trkpt><trkpt lat="41.998387" lon="4.0817573"><ele>0.0</ele><time>2026-04-30T14:20:26.017Z</time></trkpt><trkpt lat="41.9984261" lon="4.081858"><ele>0.0</ele><time>2026-04-30T14:20:27.016Z</time></trkpt><trkpt lat="41.9984659" lon="4.0819628"><ele>0.0</ele><time>2026-04-30T14:20:28.016Z</time></trkpt><trkpt lat="41.9985073" lon="4.0820665"><ele>0.0</ele><time>2026-04-30T14:20:29.016Z</time></trkpt><trkpt lat="41.9985591" lon="4.0821629"><ele>0.0</ele><time>2026-04-30T14:20:30.016Z</time></trkpt><trkpt lat="41.9986015" lon="4.0822662"><ele>0.0</ele><time>2026-04-30T14:20:31.017Z</time></trkpt><trkpt lat="41.9986402" lon="4.0823723"><ele>0.0</ele><time>2026-04-30T14:20:32.017Z</time></trkpt><trkpt lat="41.9986783" lon="4.0824796"><ele>0.0</ele><time>2026-04-30T14:20:33.016Z</time></trkpt><trkpt lat="41.9987168" lon="4.0825848"><ele>0.0</ele><time>2026-04-30T14:20:34.016Z</time></trkpt><trkpt lat="41.9987517" lon="4.0826927"><ele>0.0</ele><time>2026-04-30T14:20:35.017Z</time></trkpt><trkpt lat="41.9988249" lon="4.0829066"><ele>0.0</ele><time>2026-04-30T14:20:37.016Z</time></trkpt><trkpt lat="41.9988632" lon="4.0830101"><ele>0.0</ele><time>2026-04-30T14:20:38.017Z</time></trkpt><trkpt lat="41.9989031" lon="4.0831147"><ele>0.0</ele><time>2026-04-30T14:20:39.017Z</time></trkpt><trkpt lat="41.9989431" lon="4.0832201"><ele>0.0</ele><time>2026-04-30T14:20:40.016Z</time></trkpt><trkpt lat="41.9989847" lon="4.0833204"><ele>0.0</ele><time>2026-04-30T14:20:41.017Z</time></trkpt><trkpt lat="41.9990219" lon="4.0834181"><ele>0.0</ele><time>2026-04-30T14:20:42.016Z</time></trkpt><trkpt lat="41.9990584" lon="4.0835158"><ele>0.0</ele><time>2026-04-30T14:20:43.016Z</time></trkpt><trkpt lat="41.9990953" lon="4.083614"><ele>0.0</ele><time>2026-04-30T14:20:44.016Z</time></trkpt><trkpt lat="41.9991318" lon="4.0837138"><ele>0.0</ele><time>2026-04-30T14:20:45.016Z</time></trkpt><trkpt lat="41.9991683" lon="4.0838135"><ele>0.0</ele><time>2026-04-30T14:20:46.017Z</time></trkpt><trkpt lat="41.9992083" lon="4.0839136"><ele>0.0</ele><time>2026-04-30T14:20:47.017Z</time></trkpt><trkpt lat="41.9992484" lon="4.0840153"><ele>0.0</ele><time>2026-04-30T14:20:48.016Z</time></trkpt><trkpt lat="41.9992912" lon="4.0841153"><ele>0.0</ele><time>2026-04-30T14:20:49.016Z</time></trkpt><trkpt lat="41.9993334" lon="4.084215"><ele>0.0</ele><time>2026-04-30T14:20:50.017Z</time></trkpt><trkpt lat="41.9993754" lon="4.0843106"><ele>0.0</ele><time>2026-04-30T14:20:51.017Z</time></trkpt><trkpt lat="41.9994167" lon="4.0844082"><ele>0.0</ele><time>2026-04-30T14:20:52.017Z</time></trkpt><trkpt lat="41.9994553" lon="4.0845066"><ele>0.0</ele><time>2026-04-30T14:20:53.017Z</time></trkpt><trkpt lat="41.9994917" lon="4.0846108"><ele>0.0</ele><time>2026-04-30T14:20:54.016Z</time></trkpt><trkpt lat="41.9995298" lon="4.0847146"><ele>0.0</ele><time>2026-04-30T14:20:55.016Z</time></trkpt><trkpt lat="41.9995633" lon="4.0848209"><ele>0.0</ele><time>2026-04-30T14:20:56.017Z</time></trkpt><trkpt lat="41.9995951" lon="4.0849283"><ele>0.0</ele><time>2026-04-30T14:20:57.016Z</time></trkpt><trkpt lat="41.9997083" lon="4.0852353"><ele>0.0</ele><time>2026-04-30T14:21:00.017Z</time></trkpt><trkpt lat="41.9997446" lon="4.0853398"><ele>0.0</ele><time>2026-04-30T14:21:01.016Z</time></trkpt><trkpt lat="41.999778" lon="4.0854451"><ele>0.0</ele><time>2026-04-30T14:21:02.017Z</time></trkpt><trkpt lat="41.9998162" lon="4.0855496"><ele>0.0</ele><time>2026-04-30T14:21:03.017Z</time></trkpt><trkpt lat="41.9998605" lon="4.0856491"><ele>0.0</ele><time>2026-04-30T14:21:04.017Z</time></trkpt><trkpt lat="41.9999033" lon="4.0857485"><ele>0.0</ele><time>2026-04-30T14:21:05.017Z</time></trkpt><trkpt lat="41.9999482" lon="4.0858469"><ele>0.0</ele><time>2026-04-30T14:21:06.017Z</time></trkpt><trkpt lat="41.9999942" lon="4.0859455"><ele>0.0</ele><time>2026-04-30T14:21:07.016Z</time></trkpt><trkpt lat="42.0000336" lon="4.0860456"><ele>0.0</ele><time>2026-04-30T14:21:08.016Z</time></trkpt><trkpt lat="42.0000758" lon="4.0861497"><ele>0.0</ele><time>2026-04-30T14:21:09.016Z</time></trkpt><trkpt lat="42.0001161" lon="4.086258"><ele>0.0</ele><time>2026-04-30T14:21:10.016Z</time></trkpt><trkpt lat="42.0001521" lon="4.0863591"><ele>0.0</ele><time>2026-04-30T14:21:11.017Z</time></trkpt><trkpt lat="42.0001882" lon="4.0864601"><ele>0.0</ele><time>2026-04-30T14:21:12.017Z</time></trkpt><trkpt lat="42.0002263" lon="4.0865621"><ele>0.0</ele><time>2026-04-30T14:21:13.016Z</time></trkpt><trkpt lat="42.0002649" lon="4.0866711"><ele>0.0</ele><time>2026-04-30T14:21:14.016Z</time></trkpt><trkpt lat="42.000303" lon="4.0867785"><ele>0.0</ele><time>2026-04-30T14:21:15.017Z</time></trkpt><trkpt lat="42.0003388" lon="4.0868864"><ele>0.0</ele><time>2026-04-30T14:21:16.017Z</time></trkpt><trkpt lat="42.0003799" lon="4.0869899"><ele>0.0</ele><time>2026-04-30T14:21:17.017Z</time></trkpt><trkpt lat="42.0004217" lon="4.0870917"><ele>0.0</ele><time>2026-04-30T14:21:18.017Z</time></trkpt><trkpt lat="42.0004604" lon="4.0871935"><ele>0.0</ele><time>2026-04-30T14:21:19.017Z</time></trkpt><trkpt lat="42.0005416" lon="4.0873995"><ele>0.0</ele><time>2026-04-30T14:21:21.016Z</time></trkpt><trkpt lat="42.0005808" lon="4.0875016"><ele>0.0</ele><time>2026-04-30T14:21:22.017Z</time></trkpt><trkpt lat="42.0006233" lon="4.0876049"><ele>0.0</ele><time>2026-04-30T14:21:23.016Z</time></trkpt><trkpt lat="42.0006651" lon="4.0877083"><ele>0.0</ele><time>2026-04-30T14:21:24.016Z</time></trkpt><trkpt lat="42.0007053" lon="4.0878114"><ele>0.0</ele><time>2026-04-30T14:21:25.016Z</time></trkpt><trkpt lat="42.0007437" lon="4.0879105"><ele>0.0</ele><time>2026-04-30T14:21:26.017Z</time></trkpt><trkpt lat="42.0007823" lon="4.0880089"><ele>0.0</ele><time>2026-04-30T14:21:27.016Z</time></trkpt><trkpt lat="42.0008204" lon="4.0881087"><ele>0.0</ele><time>2026-04-30T14:21:28.016Z</time></trkpt><trkpt lat="42.0008585" lon="4.0882117"><ele>0.0</ele><time>2026-04-30T14:21:29.017Z</time></trkpt><trkpt lat="42.0008981" lon="4.0883182"><ele>0.0</ele><time>2026-04-30T14:21:30.017Z</time></trkpt><trkpt lat="42.0009778" lon="4.0885246"><ele>0.0</ele><time>2026-04-30T14:21:32.017Z</time></trkpt><trkpt lat="42.0010149" lon="4.0886301"><ele>0.0</ele><time>2026-04-30T14:21:33.016Z</time></trkpt><trkpt lat="42.0010542" lon="4.0887309"><ele>0.0</ele><time>2026-04-30T14:21:34.016Z</time></trkpt><trkpt lat="42.0010955" lon="4.0888308"><ele>0.0</ele><time>2026-04-30T14:21:35.017Z</time></trkpt><trkpt lat="42.0011345" lon="4.0889364"><ele>0.0</ele><time>2026-04-30T14:21:36.016Z</time></trkpt><trkpt lat="42.0011745" lon="4.0890441"><ele>0.0</ele><time>2026-04-30T14:21:37.017Z</time></trkpt><trkpt lat="42.0012167" lon="4.0891481"><ele>0.0</ele><time>2026-04-30T14:21:38.016Z</time></trkpt><trkpt lat="42.00126" lon="4.0892499"><ele>0.0</ele><time>2026-04-30T14:21:39.017Z</time></trkpt><trkpt lat="42.0013016" lon="4.0893513"><ele>0.0</ele><time>2026-04-30T14:21:40.016Z</time></trkpt><trkpt lat="42.0013865" lon="4.0895514"><ele>0.0</ele><time>2026-04-30T14:21:42.016Z</time></trkpt><trkpt lat="42.0014281" lon="4.0896532"><ele>0.0</ele><time>2026-04-30T14:21:43.016Z</time></trkpt><trkpt lat="42.0014733" lon="4.0897501"><ele>0.0</ele><time>2026-04-30T14:21:44.017Z</time></trkpt><trkpt lat="42.0015183" lon="4.0898482"><ele>0.0</ele><time>2026-04-30T14:21:45.017Z</time></trkpt><trkpt lat="42.0015603" lon="4.0899457"><ele>0.0</ele><time>2026-04-30T14:21:46.016Z</time></trkpt><trkpt lat="42.0015986" lon="4.0900424"><ele>0.0</ele><time>2026-04-30T14:21:47.017Z</time></trkpt><trkpt lat="42.0016365" lon="4.0901404"><ele>0.0</ele><time>2026-04-30T14:21:48.017Z</time></trkpt><trkpt lat="42.0016749" lon="4.0902388"><ele>0.0</ele><time>2026-04-30T14:21:49.016Z</time></trkpt><trkpt lat="42.0017135" lon="4.0903372"><ele>0.0</ele><time>2026-04-30T14:21:50.017Z</time></trkpt><trkpt lat="42.0017518" lon="4.0904352"><ele>0.0</ele><time>2026-04-30T14:21:51.017Z</time></trkpt><trkpt lat="42.00179" lon="4.090535"><ele>0.0</ele><time>2026-04-30T14:21:52.015Z</time></trkpt><trkpt lat="42.0018281" lon="4.0906366"><ele>0.0</ele><time>2026-04-30T14:21:53.015Z</time></trkpt><trkpt lat="42.0018668" lon="4.0907345"><ele>0.0</ele><time>2026-04-30T14:21:54.016Z</time></trkpt><trkpt lat="42.0019082" lon="4.0908397"><ele>0.0</ele><time>2026-04-30T14:21:55.016Z</time></trkpt><trkpt lat="42.00195" lon="4.090945"><ele>0.0</ele><time>2026-04-30T14:21:56.016Z</time></trkpt><trkpt lat="42.0019885" lon="4.0910457"><ele>0.0</ele><time>2026-04-30T14:21:57.016Z</time></trkpt><trkpt lat="42.0020219" lon="4.0911472"><ele>0.0</ele><time>2026-04-30T14:21:58.015Z</time></trkpt><trkpt lat="42.0020569" lon="4.0912503"><ele>0.0</ele><time>2026-04-30T14:21:59.015Z</time></trkpt><trkpt lat="42.00209" lon="4.0913551"><ele>0.0</ele><time>2026-04-30T14:22:00.016Z</time></trkpt><trkpt lat="42.0021216" lon="4.0914582"><ele>0.0</ele><time>2026-04-30T14:22:01.015Z</time></trkpt><trkpt lat="42.0021599" lon="4.0915632"><ele>0.0</ele><time>2026-04-30T14:22:02.016Z</time></trkpt><trkpt lat="42.0022285" lon="4.0917672"><ele>0.0</ele><time>2026-04-30T14:22:04.015Z</time></trkpt><trkpt lat="42.0023066" lon="4.0919672"><ele>0.0</ele><time>2026-04-30T14:22:06.016Z</time></trkpt><trkpt lat="42.0023466" lon="4.0920697"><ele>0.0</ele><time>2026-04-30T14:22:07.016Z</time></trkpt><trkpt lat="42.0023883" lon="4.0921731"><ele>0.0</ele><time>2026-04-30T14:22:08.015Z</time></trkpt><trkpt lat="42.0024282" lon="4.0922767"><ele>0.0</ele><time>2026-04-30T14:22:09.016Z</time></trkpt><trkpt lat="42.0024699" lon="4.0923853"><ele>0.0</ele><time>2026-04-30T14:22:10.016Z</time></trkpt><trkpt lat="42.0025163" lon="4.0924939"><ele>0.0</ele><time>2026-04-30T14:22:11.016Z</time></trkpt><trkpt lat="42.0025633" lon="4.0925977"><ele>0.0</ele><time>2026-04-30T14:22:12.015Z</time></trkpt><trkpt lat="42.0026118" lon="4.0926966"><ele>0.0</ele><time>2026-04-30T14:22:13.016Z</time></trkpt><trkpt lat="42.0026617" lon="4.092796"><ele>0.0</ele><time>2026-04-30T14:22:14.015Z</time></trkpt><trkpt lat="42.0027134" lon="4.0928962"><ele>0.0</ele><time>2026-04-30T14:22:15.016Z</time></trkpt><trkpt lat="42.0027565" lon="4.0929992"><ele>0.0</ele><time>2026-04-30T14:22:16.015Z</time></trkpt><trkpt lat="42.002801" lon="4.0931064"><ele>0.0</ele><time>2026-04-30T14:22:17.016Z</time></trkpt><trkpt lat="42.0028443" lon="4.0932049"><ele>0.0</ele><time>2026-04-30T14:22:18.016Z</time></trkpt><trkpt lat="42.002887" lon="4.0933064"><ele>0.0</ele><time>2026-04-30T14:22:19.016Z</time></trkpt><trkpt lat="42.002913" lon="4.0934157"><ele>0.0</ele><time>2026-04-30T14:22:20.015Z</time></trkpt><trkpt lat="42.0029476" lon="4.0935172"><ele>0.0</ele><time>2026-04-30T14:22:21.015Z</time></trkpt><trkpt lat="42.0029808" lon="4.0936167"><ele>0.0</ele><time>2026-04-30T14:22:22.016Z</time></trkpt><trkpt lat="42.0030159" lon="4.0937141"><ele>0.0</ele><time>2026-04-30T14:22:23.015Z</time></trkpt><trkpt lat="42.0030508" lon="4.0938125"><ele>0.0</ele><time>2026-04-30T14:22:24.016Z</time></trkpt><trkpt lat="42.0030886" lon="4.0939104"><ele>0.0</ele><time>2026-04-30T14:22:25.015Z</time></trkpt><trkpt lat="42.003165" lon="4.094122"><ele>0.0</ele><time>2026-04-30T14:22:27.016Z</time></trkpt><trkpt lat="42.0032071" lon="4.0942249"><ele>0.0</ele><time>2026-04-30T14:22:28.016Z</time></trkpt><trkpt lat="42.0032477" lon="4.0943224"><ele>0.0</ele><time>2026-04-30T14:22:29.015Z</time></trkpt><trkpt lat="42.0032828" lon="4.0944222"><ele>0.0</ele><time>2026-04-30T14:22:30.016Z</time></trkpt><trkpt lat="42.0033106" lon="4.0945277"><ele>0.0</ele><time>2026-04-30T14:22:31.015Z</time></trkpt><trkpt lat="42.0033456" lon="4.0946327"><ele>0.0</ele><time>2026-04-30T14:22:32.015Z</time></trkpt><trkpt lat="42.0033749" lon="4.0947396"><ele>0.0</ele><time>2026-04-30T14:22:33.015Z</time></trkpt><trkpt lat="42.0034087" lon="4.0948448"><ele>0.0</ele><time>2026-04-30T14:22:34.016Z</time></trkpt><trkpt lat="42.0034452" lon="4.0949497"><ele>0.0</ele><time>2026-04-30T14:22:35.015Z</time></trkpt><trkpt lat="42.0035221" lon="4.0951542"><ele>0.0</ele><time>2026-04-30T14:22:37.015Z</time></trkpt><trkpt lat="42.0035579" lon="4.0952575"><ele>0.0</ele><time>2026-04-30T14:22:38.015Z</time></trkpt><trkpt lat="42.0035968" lon="4.0953597"><ele>0.0</ele><time>2026-04-30T14:22:39.015Z</time></trkpt><trkpt lat="42.003631" lon="4.0954629"><ele>0.0</ele><time>2026-04-30T14:22:40.016Z</time></trkpt><trkpt lat="42.0036687" lon="4.0955677"><ele>0.0</ele><time>2026-04-30T14:22:41.016Z</time></trkpt><trkpt lat="42.0037082" lon="4.0956715"><ele>0.0</ele><time>2026-04-30T14:22:42.015Z</time></trkpt><trkpt lat="42.0037437" lon="4.0957794"><ele>0.0</ele><time>2026-04-30T14:22:43.016Z</time></trkpt><trkpt lat="42.0037741" lon="4.0958823"><ele>0.0</ele><time>2026-04-30T14:22:44.015Z</time></trkpt><trkpt lat="42.0038076" lon="4.0959821"><ele>0.0</ele><time>2026-04-30T14:22:45.016Z</time></trkpt><trkpt lat="42.0038414" lon="4.0960849"><ele>0.0</ele><time>2026-04-30T14:22:46.015Z</time></trkpt><trkpt lat="42.0039048" lon="4.0962949"><ele>0.0</ele><time>2026-04-30T14:22:48.016Z</time></trkpt><trkpt lat="42.003935" lon="4.0964016"><ele>0.0</ele><time>2026-04-30T14:22:49.015Z</time></trkpt><trkpt lat="42.0039682" lon="4.0965112"><ele>0.0</ele><time>2026-04-30T14:22:50.015Z</time></trkpt><trkpt lat="42.0040078" lon="4.0966169"><ele>0.0</ele><time>2026-04-30T14:22:51.015Z</time></trkpt><trkpt lat="42.0040449" lon="4.096723"><ele>0.0</ele><time>2026-04-30T14:22:52.016Z</time></trkpt><trkpt lat="42.004085" lon="4.0968279"><ele>0.0</ele><time>2026-04-30T14:22:53.015Z</time></trkpt><trkpt lat="42.0041279" lon="4.0969314"><ele>0.0</ele><time>2026-04-30T14:22:54.015Z</time></trkpt><trkpt lat="42.0041717" lon="4.09703"><ele>0.0</ele><time>2026-04-30T14:22:55.016Z</time></trkpt><trkpt lat="42.0042167" lon="4.0971268"><ele>0.0</ele><time>2026-04-30T14:22:56.015Z</time></trkpt><trkpt lat="42.0042599" lon="4.0972266"><ele>0.0</ele><time>2026-04-30T14:22:57.016Z</time></trkpt><trkpt lat="42.0043033" lon="4.0973264"><ele>0.0</ele><time>2026-04-30T14:22:58.016Z</time></trkpt><trkpt lat="42.0043467" lon="4.0974239"><ele>0.0</ele><time>2026-04-30T14:22:59.016Z</time></trkpt><trkpt lat="42.0043968" lon="4.0975308"><ele>0.0</ele><time>2026-04-30T14:23:00.016Z</time></trkpt><trkpt lat="42.0044438" lon="4.0976299"><ele>0.0</ele><time>2026-04-30T14:23:01.015Z</time></trkpt><trkpt lat="42.0044905" lon="4.0977309"><ele>0.0</ele><time>2026-04-30T14:23:02.015Z</time></trkpt><trkpt lat="42.0045447" lon="4.097831"><ele>0.0</ele><time>2026-04-30T14:23:03.015Z</time></trkpt><trkpt lat="42.0045917" lon="4.0979298"><ele>0.0</ele><time>2026-04-30T14:23:04.015Z</time></trkpt><trkpt lat="42.0046367" lon="4.0980315"><ele>0.0</ele><time>2026-04-30T14:23:05.015Z</time></trkpt><trkpt lat="42.0046848" lon="4.098129"><ele>0.0</ele><time>2026-04-30T14:23:06.015Z</time></trkpt><trkpt lat="42.0047345" lon="4.0982295"><ele>0.0</ele><time>2026-04-30T14:23:07.015Z</time></trkpt><trkpt lat="42.0047863" lon="4.0983355"><ele>0.0</ele><time>2026-04-30T14:23:08.016Z</time></trkpt><trkpt lat="42.0049284" lon="4.0986433"><ele>0.0</ele><time>2026-04-30T14:23:11.015Z</time></trkpt><trkpt lat="42.0049654" lon="4.098748"><ele>0.0</ele><time>2026-04-30T14:23:12.016Z</time></trkpt><trkpt lat="42.0050002" lon="4.0988529"><ele>0.0</ele><time>2026-04-30T14:23:13.015Z</time></trkpt><trkpt lat="42.0050382" lon="4.098958"><ele>0.0</ele><time>2026-04-30T14:23:14.015Z</time></trkpt><trkpt lat="42.0050797" lon="4.0990656"><ele>0.0</ele><time>2026-04-30T14:23:15.015Z</time></trkpt><trkpt lat="42.0051205" lon="4.0991669"><ele>0.0</ele><time>2026-04-30T14:23:16.016Z</time></trkpt><trkpt lat="42.0051605" lon="4.0992671"><ele>0.0</ele><time>2026-04-30T14:23:17.016Z</time></trkpt><trkpt lat="42.0052062" lon="4.0993723"><ele>0.0</ele><time>2026-04-30T14:23:18.015Z</time></trkpt><trkpt lat="42.0052461" lon="4.0994759"><ele>0.0</ele><time>2026-04-30T14:23:19.015Z</time></trkpt><trkpt lat="42.0052695" lon="4.099585"><ele>0.0</ele><time>2026-04-30T14:23:20.016Z</time></trkpt><trkpt lat="42.0053034" lon="4.0996913"><ele>0.0</ele><time>2026-04-30T14:23:21.015Z</time></trkpt><trkpt lat="42.0053452" lon="4.0997962"><ele>0.0</ele><time>2026-04-30T14:23:22.016Z</time></trkpt><trkpt lat="42.0053896" lon="4.0998972"><ele>0.0</ele><time>2026-04-30T14:23:23.016Z</time></trkpt><trkpt lat="42.0054323" lon="4.0999987"><ele>0.0</ele><time>2026-04-30T14:23:24.015Z</time></trkpt><trkpt lat="42.0054731" lon="4.1001005"><ele>0.0</ele><time>2026-04-30T14:23:25.016Z</time></trkpt><trkpt lat="42.0055118" lon="4.1002035"><ele>0.0</ele><time>2026-04-30T14:23:26.015Z</time></trkpt><trkpt lat="42.0055516" lon="4.1003054"><ele>0.0</ele><time>2026-04-30T14:23:27.015Z</time></trkpt><trkpt lat="42.0055917" lon="4.1004053"><ele>0.0</ele><time>2026-04-30T14:23:28.015Z</time></trkpt><trkpt lat="42.0056308" lon="4.1005067"><ele>0.0</ele><time>2026-04-30T14:23:29.015Z</time></trkpt><trkpt lat="42.0056664" lon="4.1006069"><ele>0.0</ele><time>2026-04-30T14:23:30.016Z</time></trkpt><trkpt lat="42.0057354" lon="4.1008035"><ele>0.0</ele><time>2026-04-30T14:23:32.016Z</time></trkpt><trkpt lat="42.0057719" lon="4.1009095"><ele>0.0</ele><time>2026-04-30T14:23:33.016Z</time></trkpt><trkpt lat="42.005807" lon="4.1010165"><ele>0.0</ele><time>2026-04-30T14:23:34.015Z</time></trkpt><trkpt lat="42.0058385" lon="4.1011235"><ele>0.0</ele><time>2026-04-30T14:23:35.015Z</time></trkpt><trkpt lat="42.0058745" lon="4.1012282"><ele>0.0</ele><time>2026-04-30T14:23:36.016Z</time></trkpt><trkpt lat="42.0059086" lon="4.1013316"><ele>0.0</ele><time>2026-04-30T14:23:37.015Z</time></trkpt><trkpt lat="42.0059463" lon="4.101435"><ele>0.0</ele><time>2026-04-30T14:23:38.015Z</time></trkpt><trkpt lat="42.0059835" lon="4.1015395"><ele>0.0</ele><time>2026-04-30T14:23:39.015Z</time></trkpt><trkpt lat="42.0060204" lon="4.1016446"><ele>0.0</ele><time>2026-04-30T14:23:40.015Z</time></trkpt><trkpt lat="42.0061047" lon="4.1018483"><ele>0.0</ele><time>2026-04-30T14:23:42.016Z</time></trkpt><trkpt lat="42.006145" lon="4.1019501"><ele>0.0</ele><time>2026-04-30T14:23:43.015Z</time></trkpt><trkpt lat="42.006185" lon="4.102053"><ele>0.0</ele><time>2026-04-30T14:23:44.015Z</time></trkpt><trkpt lat="42.0062252" lon="4.1021533"><ele>0.0</ele><time>2026-04-30T14:23:45.015Z</time></trkpt><trkpt lat="42.0062705" lon="4.1022593"><ele>0.0</ele><time>2026-04-30T14:23:46.015Z</time></trkpt><trkpt lat="42.006308" lon="4.1023619"><ele>0.0</ele><time>2026-04-30T14:23:47.015Z</time></trkpt><trkpt lat="42.0063492" lon="4.1024648"><ele>0.0</ele><time>2026-04-30T14:23:48.015Z</time></trkpt><trkpt lat="42.0063867" lon="4.102567"><ele>0.0</ele><time>2026-04-30T14:23:49.016Z</time></trkpt><trkpt lat="42.006425" lon="4.1026682"><ele>0.0</ele><time>2026-04-30T14:23:50.015Z</time></trkpt><trkpt lat="42.0064634" lon="4.1027729"><ele>0.0</ele><time>2026-04-30T14:23:51.016Z</time></trkpt><trkpt lat="42.006548" lon="4.1029796"><ele>0.0</ele><time>2026-04-30T14:23:53.016Z</time></trkpt><trkpt lat="42.0065903" lon="4.103083"><ele>0.0</ele><time>2026-04-30T14:23:54.015Z</time></trkpt><trkpt lat="42.0066303" lon="4.103185"><ele>0.0</ele><time>2026-04-30T14:23:55.016Z</time></trkpt><trkpt lat="42.0066701" lon="4.1032867"><ele>0.0</ele><time>2026-04-30T14:23:56.016Z</time></trkpt><trkpt lat="42.0067042" lon="4.1033885"><ele>0.0</ele><time>2026-04-30T14:23:57.016Z</time></trkpt><trkpt lat="42.0067385" lon="4.1034929"><ele>0.0</ele><time>2026-04-30T14:23:58.016Z</time></trkpt><trkpt lat="42.0067736" lon="4.1035983"><ele>0.0</ele><time>2026-04-30T14:23:59.016Z</time></trkpt><trkpt lat="42.0068114" lon="4.1037048"><ele>0.0</ele><time>2026-04-30T14:24:00.015Z</time></trkpt><trkpt lat="42.0068484" lon="4.1038084"><ele>0.0</ele><time>2026-04-30T14:24:01.016Z</time></trkpt><trkpt lat="42.0068848" lon="4.1039148"><ele>0.0</ele><time>2026-04-30T14:24:02.016Z</time></trkpt><trkpt lat="42.0069183" lon="4.1040187"><ele>0.0</ele><time>2026-04-30T14:24:03.015Z</time></trkpt><trkpt lat="42.0069498" lon="4.1041221"><ele>0.0</ele><time>2026-04-30T14:24:04.016Z</time></trkpt><trkpt lat="42.0069849" lon="4.1042252"><ele>0.0</ele><time>2026-04-30T14:24:05.016Z</time></trkpt><trkpt lat="42.0070233" lon="4.1043268"><ele>0.0</ele><time>2026-04-30T14:24:06.015Z</time></trkpt><trkpt lat="42.007065" lon="4.104424"><ele>0.0</ele><time>2026-04-30T14:24:07.016Z</time></trkpt><trkpt lat="42.0071107" lon="4.1045217"><ele>0.0</ele><time>2026-04-30T14:24:08.015Z</time></trkpt><trkpt lat="42.0071563" lon="4.1046219"><ele>0.0</ele><time>2026-04-30T14:24:09.015Z</time></trkpt><trkpt lat="42.0071957" lon="4.1047219"><ele>0.0</ele><time>2026-04-30T14:24:10.016Z</time></trkpt><trkpt lat="42.0072334" lon="4.1048248"><ele>0.0</ele><time>2026-04-30T14:24:11.015Z</time></trkpt><trkpt lat="42.0072716" lon="4.1049269"><ele>0.0</ele><time>2026-04-30T14:24:12.015Z</time></trkpt><trkpt lat="42.0073801" lon="4.1052352"><ele>0.0</ele><time>2026-04-30T14:24:15.015Z</time></trkpt><trkpt lat="42.0074191" lon="4.1053425"><ele>0.0</ele><time>2026-04-30T14:24:16.015Z</time></trkpt><trkpt lat="42.0074641" lon="4.1054426"><ele>0.0</ele><time>2026-04-30T14:24:17.015Z</time></trkpt><trkpt lat="42.0075092" lon="4.1055409"><ele>0.0</ele><time>2026-04-30T14:24:18.016Z</time></trkpt><trkpt lat="42.0075525" lon="4.1056464"><ele>0.0</ele><time>2026-04-30T14:24:19.015Z</time></trkpt><trkpt lat="42.0075942" lon="4.1057527"><ele>0.0</ele><time>2026-04-30T14:24:20.016Z</time></trkpt><trkpt lat="42.0076357" lon="4.1058567"><ele>0.0</ele><time>2026-04-30T14:24:21.016Z</time></trkpt><trkpt lat="42.0076759" lon="4.1059572"><ele>0.0</ele><time>2026-04-30T14:24:22.015Z</time></trkpt><trkpt lat="42.0077114" lon="4.1060613"><ele>0.0</ele><time>2026-04-30T14:24:23.015Z</time></trkpt><trkpt lat="42.007745" lon="4.1061683"><ele>0.0</ele><time>2026-04-30T14:24:24.016Z</time></trkpt><trkpt lat="42.00778" lon="4.1062707"><ele>0.0</ele><time>2026-04-30T14:24:25.015Z</time></trkpt><trkpt lat="42.0078206" lon="4.1063736"><ele>0.0</ele><time>2026-04-30T14:24:26.016Z</time></trkpt><trkpt lat="42.0078597" lon="4.106474"><ele>0.0</ele><time>2026-04-30T14:24:27.015Z</time></trkpt><trkpt lat="42.0079024" lon="4.1065739"><ele>0.0</ele><time>2026-04-30T14:24:28.015Z</time></trkpt><trkpt lat="42.0079459" lon="4.1066769"><ele>0.0</ele><time>2026-04-30T14:24:29.015Z</time></trkpt><trkpt lat="42.0079922" lon="4.1067776"><ele>0.0</ele><time>2026-04-30T14:24:30.016Z</time></trkpt><trkpt lat="42.0080304" lon="4.1068786"><ele>0.0</ele><time>2026-04-30T14:24:31.015Z</time></trkpt><trkpt lat="42.0080711" lon="4.1069831"><ele>0.0</ele><time>2026-04-30T14:24:32.015Z</time></trkpt><trkpt lat="42.008114" lon="4.1070838"><ele>0.0</ele><time>2026-04-30T14:24:33.016Z</time></trkpt><trkpt lat="42.0081528" lon="4.1071868"><ele>0.0</ele><time>2026-04-30T14:24:34.015Z</time></trkpt><trkpt lat="42.008227" lon="4.1073888"><ele>0.0</ele><time>2026-04-30T14:24:36.015Z</time></trkpt><trkpt lat="42.0082635" lon="4.1074875"><ele>0.0</ele><time>2026-04-30T14:24:37.016Z</time></trkpt><trkpt lat="42.0083002" lon="4.1075882"><ele>0.0</ele><time>2026-04-30T14:24:38.015Z</time></trkpt><trkpt lat="42.0083386" lon="4.1076899"><ele>0.0</ele><time>2026-04-30T14:24:39.015Z</time></trkpt><trkpt lat="42.0083799" lon="4.1077931"><ele>0.0</ele><time>2026-04-30T14:24:40.015Z</time></trkpt><trkpt lat="42.0084235" lon="4.1078948"><ele>0.0</ele><time>2026-04-30T14:24:41.016Z</time></trkpt><trkpt lat="42.0084655" lon="4.1079936"><ele>0.0</ele><time>2026-04-30T14:24:42.015Z</time></trkpt><trkpt lat="42.0085085" lon="4.1080933"><ele>0.0</ele><time>2026-04-30T14:24:43.016Z</time></trkpt><trkpt lat="42.0085456" lon="4.1081979"><ele>0.0</ele><time>2026-04-30T14:24:44.015Z</time></trkpt><trkpt lat="42.0086233" lon="4.1084096"><ele>0.0</ele><time>2026-04-30T14:24:46.015Z</time></trkpt><trkpt lat="42.0086618" lon="4.1085148"><ele>0.0</ele><time>2026-04-30T14:24:47.015Z</time></trkpt><trkpt lat="42.0086969" lon="4.1086198"><ele>0.0</ele><time>2026-04-30T14:24:48.015Z</time></trkpt><trkpt lat="42.0087364" lon="4.1087234"><ele>0.0</ele><time>2026-04-30T14:24:49.015Z</time></trkpt><trkpt lat="42.0087735" lon="4.1088236"><ele>0.0</ele><time>2026-04-30T14:24:50.015Z</time></trkpt><trkpt lat="42.0088067" lon="4.1089261"><ele>0.0</ele><time>2026-04-30T14:24:51.015Z</time></trkpt><trkpt lat="42.0088432" lon="4.1090327"><ele>0.0</ele><time>2026-04-30T14:24:52.016Z</time></trkpt><trkpt lat="42.0088816" lon="4.1091376"><ele>0.0</ele><time>2026-04-30T14:24:53.015Z</time></trkpt><trkpt lat="42.0089197" lon="4.1092431"><ele>0.0</ele><time>2026-04-30T14:24:54.015Z</time></trkpt><trkpt lat="42.0089566" lon="4.1093498"><ele>0.0</ele><time>2026-04-30T14:24:55.015Z</time></trkpt><trkpt lat="42.0090315" lon="4.1095663"><ele>0.0</ele><time>2026-04-30T14:24:57.015Z</time></trkpt><trkpt lat="42.0090702" lon="4.1096697"><ele>0.0</ele><time>2026-04-30T14:24:58.015Z</time></trkpt><trkpt lat="42.0091058" lon="4.1097716"><ele>0.0</ele><time>2026-04-30T14:24:59.015Z</time></trkpt><trkpt lat="42.0091455" lon="4.1098674"><ele>0.0</ele><time>2026-04-30T14:25:00.015Z</time></trkpt><trkpt lat="42.0091835" lon="4.1099666"><ele>0.0</ele><time>2026-04-30T14:25:01.016Z</time></trkpt><trkpt lat="42.0092235" lon="4.1100666"><ele>0.0</ele><time>2026-04-30T14:25:02.015Z</time></trkpt><trkpt lat="42.0092694" lon="4.1101708"><ele>0.0</ele><time>2026-04-30T14:25:03.015Z</time></trkpt><trkpt lat="42.0093119" lon="4.1102746"><ele>0.0</ele><time>2026-04-30T14:25:04.016Z</time></trkpt><trkpt lat="42.009349" lon="4.110374"><ele>0.0</ele><time>2026-04-30T14:25:05.015Z</time></trkpt><trkpt lat="42.0093853" lon="4.1104768"><ele>0.0</ele><time>2026-04-30T14:25:06.016Z</time></trkpt><trkpt lat="42.0094234" lon="4.1105814"><ele>0.0</ele><time>2026-04-30T14:25:07.016Z</time></trkpt><trkpt lat="42.0094601" lon="4.1106849"><ele>0.0</ele><time>2026-04-30T14:25:08.016Z</time></trkpt><trkpt lat="42.0095003" lon="4.1107852"><ele>0.0</ele><time>2026-04-30T14:25:09.016Z</time></trkpt><trkpt lat="42.0095386" lon="4.110888"><ele>0.0</ele><time>2026-04-30T14:25:10.016Z</time></trkpt><trkpt lat="42.0095757" lon="4.110987"><ele>0.0</ele><time>2026-04-30T14:25:11.016Z</time></trkpt><trkpt lat="42.009612" lon="4.1110894"><ele>0.0</ele><time>2026-04-30T14:25:12.016Z</time></trkpt><trkpt lat="42.0096472" lon="4.1111928"><ele>0.0</ele><time>2026-04-30T14:25:13.015Z</time></trkpt><trkpt lat="42.0096818" lon="4.1113006"><ele>0.0</ele><time>2026-04-30T14:25:14.015Z</time></trkpt><trkpt lat="42.0097182" lon="4.1114063"><ele>0.0</ele><time>2026-04-30T14:25:15.016Z</time></trkpt><trkpt lat="42.0097533" lon="4.1115112"><ele>0.0</ele><time>2026-04-30T14:25:16.016Z</time></trkpt><trkpt lat="42.0097854" lon="4.111615"><ele>0.0</ele><time>2026-04-30T14:25:17.016Z</time></trkpt><trkpt lat="42.0098759" lon="4.1119229"><ele>0.0</ele><time>2026-04-30T14:25:20.016Z</time></trkpt><trkpt lat="42.0099048" lon="4.1120308"><ele>0.0</ele><time>2026-04-30T14:25:21.015Z</time></trkpt><trkpt lat="42.0099388" lon="4.112136"><ele>0.0</ele><time>2026-04-30T14:25:22.015Z</time></trkpt><trkpt lat="42.0099753" lon="4.1122397"><ele>0.0</ele><time>2026-04-30T14:25:23.016Z</time></trkpt><trkpt lat="42.0100103" lon="4.1123506"><ele>0.0</ele><time>2026-04-30T14:25:24.015Z</time></trkpt><trkpt lat="42.0100453" lon="4.112458"><ele>0.0</ele><time>2026-04-30T14:25:25.016Z</time></trkpt><trkpt lat="42.0100833" lon="4.1125661"><ele>0.0</ele><time>2026-04-30T14:25:26.016Z</time></trkpt><trkpt lat="42.0101234" lon="4.1126756"><ele>0.0</ele><time>2026-04-30T14:25:27.016Z</time></trkpt><trkpt lat="42.0101645" lon="4.1127858"><ele>0.0</ele><time>2026-04-30T14:25:28.015Z</time></trkpt><trkpt lat="42.0102051" lon="4.1128913"><ele>0.0</ele><time>2026-04-30T14:25:29.016Z</time></trkpt><trkpt lat="42.0102498" lon="4.1129989"><ele>0.0</ele><time>2026-04-30T14:25:30.016Z</time></trkpt><trkpt lat="42.0102934" lon="4.1131044"><ele>0.0</ele><time>2026-04-30T14:25:31.016Z</time></trkpt><trkpt lat="42.0103367" lon="4.1132079"><ele>0.0</ele><time>2026-04-30T14:25:32.015Z</time></trkpt><trkpt lat="42.0103772" lon="4.1133071"><ele>0.0</ele><time>2026-04-30T14:25:33.016Z</time></trkpt><trkpt lat="42.0104156" lon="4.1134069"><ele>0.0</ele><time>2026-04-30T14:25:34.016Z</time></trkpt><trkpt lat="42.0104505" lon="4.1135116"><ele>0.0</ele><time>2026-04-30T14:25:35.015Z</time></trkpt><trkpt lat="42.0104821" lon="4.1136168"><ele>0.0</ele><time>2026-04-30T14:25:36.016Z</time></trkpt><trkpt lat="42.0105169" lon="4.11372"><ele>0.0</ele><time>2026-04-30T14:25:37.015Z</time></trkpt><trkpt lat="42.0105551" lon="4.1138217"><ele>0.0</ele><time>2026-04-30T14:25:38.016Z</time></trkpt><trkpt lat="42.0105922" lon="4.1139234"><ele>0.0</ele><time>2026-04-30T14:25:39.016Z</time></trkpt><trkpt lat="42.010664" lon="4.1141362"><ele>0.0</ele><time>2026-04-30T14:25:41.016Z</time></trkpt><trkpt lat="42.0106984" lon="4.1142431"><ele>0.0</ele><time>2026-04-30T14:25:42.015Z</time></trkpt><trkpt lat="42.0107337" lon="4.1143467"><ele>0.0</ele><time>2026-04-30T14:25:43.015Z</time></trkpt><trkpt lat="42.0107685" lon="4.1144528"><ele>0.0</ele><time>2026-04-30T14:25:44.015Z</time></trkpt><trkpt lat="42.0108032" lon="4.1145581"><ele>0.0</ele><time>2026-04-30T14:25:45.015Z</time></trkpt><trkpt lat="42.0108371" lon="4.1146645"><ele>0.0</ele><time>2026-04-30T14:25:46.016Z</time></trkpt><trkpt lat="42.0108716" lon="4.1147717"><ele>0.0</ele><time>2026-04-30T14:25:47.015Z</time></trkpt><trkpt lat="42.0109091" lon="4.1148784"><ele>0.0</ele><time>2026-04-30T14:25:48.015Z</time></trkpt><trkpt lat="42.0109489" lon="4.1149837"><ele>0.0</ele><time>2026-04-30T14:25:49.015Z</time></trkpt><trkpt lat="42.0109894" lon="4.1150872"><ele>0.0</ele><time>2026-04-30T14:25:50.016Z</time></trkpt><trkpt lat="42.0110656" lon="4.1152887"><ele>0.0</ele><time>2026-04-30T14:25:52.015Z</time></trkpt><trkpt lat="42.0111001" lon="4.1153934"><ele>0.0</ele><time>2026-04-30T14:25:53.015Z</time></trkpt><trkpt lat="42.0111336" lon="4.1155001"><ele>0.0</ele><time>2026-04-30T14:25:54.016Z</time></trkpt><trkpt lat="42.0111669" lon="4.1156054"><ele>0.0</ele><time>2026-04-30T14:25:55.016Z</time></trkpt><trkpt lat="42.0111986" lon="4.1157101"><ele>0.0</ele><time>2026-04-30T14:25:56.016Z</time></trkpt><trkpt lat="42.0112286" lon="4.1158152"><ele>0.0</ele><time>2026-04-30T14:25:57.014Z</time></trkpt><trkpt lat="42.0112619" lon="4.1159184"><ele>0.0</ele><time>2026-04-30T14:25:58.015Z</time></trkpt><trkpt lat="42.0112984" lon="4.1160188"><ele>0.0</ele><time>2026-04-30T14:25:59.015Z</time></trkpt><trkpt lat="42.0113353" lon="4.1161216"><ele>0.0</ele><time>2026-04-30T14:26:00.014Z</time></trkpt><trkpt lat="42.0114033" lon="4.1163287"><ele>0.0</ele><time>2026-04-30T14:26:02.015Z</time></trkpt><trkpt lat="42.0114353" lon="4.1164302"><ele>0.0</ele><time>2026-04-30T14:26:03.014Z</time></trkpt><trkpt lat="42.0114668" lon="4.1165352"><ele>0.0</ele><time>2026-04-30T14:26:04.014Z</time></trkpt><trkpt lat="42.0114984" lon="4.1166402"><ele>0.0</ele><time>2026-04-30T14:26:05.014Z</time></trkpt><trkpt lat="42.0115304" lon="4.1167421"><ele>0.0</ele><time>2026-04-30T14:26:06.015Z</time></trkpt><trkpt lat="42.0115635" lon="4.1168434"><ele>0.0</ele><time>2026-04-30T14:26:07.015Z</time></trkpt><trkpt lat="42.0116046" lon="4.1169418"><ele>0.0</ele><time>2026-04-30T14:26:08.015Z</time></trkpt><trkpt lat="42.0116449" lon="4.1170431"><ele>0.0</ele><time>2026-04-30T14:26:09.014Z</time></trkpt><trkpt lat="42.0116836" lon="4.1171464"><ele>0.0</ele><time>2026-04-30T14:26:10.014Z</time></trkpt><trkpt lat="42.0117262" lon="4.1172487"><ele>0.0</ele><time>2026-04-30T14:26:11.014Z</time></trkpt><trkpt lat="42.0117648" lon="4.1173518"><ele>0.0</ele><time>2026-04-30T14:26:12.014Z</time></trkpt><trkpt lat="42.0118015" lon="4.1174564"><ele>0.0</ele><time>2026-04-30T14:26:13.015Z</time></trkpt><trkpt lat="42.0118396" lon="4.1175584"><ele>0.0</ele><time>2026-04-30T14:26:14.015Z</time></trkpt><trkpt lat="42.0118769" lon="4.1176616"><ele>0.0</ele><time>2026-04-30T14:26:15.014Z</time></trkpt><trkpt lat="42.0119193" lon="4.1177676"><ele>0.0</ele><time>2026-04-30T14:26:16.015Z</time></trkpt><trkpt lat="42.0119614" lon="4.1178715"><ele>0.0</ele><time>2026-04-30T14:26:17.014Z</time></trkpt><trkpt lat="42.0120033" lon="4.1179748"><ele>0.0</ele><time>2026-04-30T14:26:18.014Z</time></trkpt><trkpt lat="42.0120435" lon="4.1180765"><ele>0.0</ele><time>2026-04-30T14:26:19.014Z</time></trkpt><trkpt lat="42.0120864" lon="4.1181814"><ele>0.0</ele><time>2026-04-30T14:26:20.015Z</time></trkpt><trkpt lat="42.0121282" lon="4.1182846"><ele>0.0</ele><time>2026-04-30T14:26:21.014Z</time></trkpt><trkpt lat="42.0121697" lon="4.1183894"><ele>0.0</ele><time>2026-04-30T14:26:22.014Z</time></trkpt><trkpt lat="42.0122881" lon="4.1187031"><ele>0.0</ele><time>2026-04-30T14:26:25.014Z</time></trkpt><trkpt lat="42.0123251" lon="4.1188072"><ele>0.0</ele><time>2026-04-30T14:26:26.015Z</time></trkpt><trkpt lat="42.0123632" lon="4.1189101"><ele>0.0</ele><time>2026-04-30T14:26:27.015Z</time></trkpt><trkpt lat="42.0123972" lon="4.1190124"><ele>0.0</ele><time>2026-04-30T14:26:28.015Z</time></trkpt><trkpt lat="42.0124298" lon="4.1191181"><ele>0.0</ele><time>2026-04-30T14:26:29.015Z</time></trkpt><trkpt lat="42.0124662" lon="4.1192235"><ele>0.0</ele><time>2026-04-30T14:26:30.015Z</time></trkpt><trkpt lat="42.0124981" lon="4.1193274"><ele>0.0</ele><time>2026-04-30T14:26:31.015Z</time></trkpt><trkpt lat="42.012531" lon="4.1194362"><ele>0.0</ele><time>2026-04-30T14:26:32.014Z</time></trkpt><trkpt lat="42.0125703" lon="4.1195503"><ele>0.0</ele><time>2026-04-30T14:26:33.014Z</time></trkpt><trkpt lat="42.0126078" lon="4.1196508"><ele>0.0</ele><time>2026-04-30T14:26:34.015Z</time></trkpt><trkpt lat="42.0126477" lon="4.1197566"><ele>0.0</ele><time>2026-04-30T14:26:35.014Z</time></trkpt><trkpt lat="42.0126915" lon="4.11986"><ele>0.0</ele><time>2026-04-30T14:26:36.015Z</time></trkpt><trkpt lat="42.0127348" lon="4.1199646"><ele>0.0</ele><time>2026-04-30T14:26:37.014Z</time></trkpt><trkpt lat="42.0127768" lon="4.1200668"><ele>0.0</ele><time>2026-04-30T14:26:38.014Z</time></trkpt><trkpt lat="42.0128215" lon="4.1201697"><ele>0.0</ele><time>2026-04-30T14:26:39.015Z</time></trkpt><trkpt lat="42.0128651" lon="4.1202698"><ele>0.0</ele><time>2026-04-30T14:26:40.014Z</time></trkpt><trkpt lat="42.0129097" lon="4.1203685"><ele>0.0</ele><time>2026-04-30T14:26:41.015Z</time></trkpt><trkpt lat="42.0129545" lon="4.1204727"><ele>0.0</ele><time>2026-04-30T14:26:42.014Z</time></trkpt><trkpt lat="42.0130015" lon="4.1205745"><ele>0.0</ele><time>2026-04-30T14:26:43.014Z</time></trkpt><trkpt lat="42.0130451" lon="4.1206719"><ele>0.0</ele><time>2026-04-30T14:26:44.014Z</time></trkpt><trkpt lat="42.0131284" lon="4.1208743"><ele>0.0</ele><time>2026-04-30T14:26:46.015Z</time></trkpt><trkpt lat="42.0131717" lon="4.1209778"><ele>0.0</ele><time>2026-04-30T14:26:47.015Z</time></trkpt><trkpt lat="42.0132165" lon="4.1210786"><ele>0.0</ele><time>2026-04-30T14:26:48.014Z</time></trkpt><trkpt lat="42.0132585" lon="4.1211827"><ele>0.0</ele><time>2026-04-30T14:26:49.015Z</time></trkpt><trkpt lat="42.013297" lon="4.1212868"><ele>0.0</ele><time>2026-04-30T14:26:50.014Z</time></trkpt><trkpt lat="42.0133327" lon="4.1213901"><ele>0.0</ele><time>2026-04-30T14:26:51.014Z</time></trkpt><trkpt lat="42.0133716" lon="4.1214903"><ele>0.0</ele><time>2026-04-30T14:26:52.014Z</time></trkpt><trkpt lat="42.0134085" lon="4.1215916"><ele>0.0</ele><time>2026-04-30T14:26:53.015Z</time></trkpt><trkpt lat="42.013447" lon="4.1216946"><ele>0.0</ele><time>2026-04-30T14:26:54.015Z</time></trkpt><trkpt lat="42.0135265" lon="4.1219019"><ele>0.0</ele><time>2026-04-30T14:26:56.015Z</time></trkpt><trkpt lat="42.0135668" lon="4.1220065"><ele>0.0</ele><time>2026-04-30T14:26:57.015Z</time></trkpt><trkpt lat="42.0136054" lon="4.1221098"><ele>0.0</ele><time>2026-04-30T14:26:58.014Z</time></trkpt><trkpt lat="42.0136453" lon="4.1222115"><ele>0.0</ele><time>2026-04-30T14:26:59.015Z</time></trkpt><trkpt lat="42.0136851" lon="4.1223147"><ele>0.0</ele><time>2026-04-30T14:27:00.014Z</time></trkpt><trkpt lat="42.0137238" lon="4.1224152"><ele>0.0</ele><time>2026-04-30T14:27:01.015Z</time></trkpt><trkpt lat="42.0137636" lon="4.1225151"><ele>0.0</ele><time>2026-04-30T14:27:02.014Z</time></trkpt><trkpt lat="42.0138018" lon="4.1226181"><ele>0.0</ele><time>2026-04-30T14:27:03.014Z</time></trkpt><trkpt lat="42.01384" lon="4.1227234"><ele>0.0</ele><time>2026-04-30T14:27:04.014Z</time></trkpt><trkpt lat="42.0138751" lon="4.1228279"><ele>0.0</ele><time>2026-04-30T14:27:05.014Z</time></trkpt><trkpt lat="42.0139547" lon="4.1230335"><ele>0.0</ele><time>2026-04-30T14:27:07.015Z</time></trkpt><trkpt lat="42.0139966" lon="4.1231363"><ele>0.0</ele><time>2026-04-30T14:27:08.014Z</time></trkpt><trkpt lat="42.01404" lon="4.1232383"><ele>0.0</ele><time>2026-04-30T14:27:09.015Z</time></trkpt><trkpt lat="42.0140773" lon="4.1233387"><ele>0.0</ele><time>2026-04-30T14:27:10.014Z</time></trkpt><trkpt lat="42.014115" lon="4.123443"><ele>0.0</ele><time>2026-04-30T14:27:11.015Z</time></trkpt><trkpt lat="42.0141536" lon="4.1235465"><ele>0.0</ele><time>2026-04-30T14:27:12.014Z</time></trkpt><trkpt lat="42.0141917" lon="4.1236515"><ele>0.0</ele><time>2026-04-30T14:27:13.015Z</time></trkpt><trkpt lat="42.0142301" lon="4.123755"><ele>0.0</ele><time>2026-04-30T14:27:14.014Z</time></trkpt><trkpt lat="42.014264" lon="4.1238556"><ele>0.0</ele><time>2026-04-30T14:27:15.014Z</time></trkpt><trkpt lat="42.0143018" lon="4.1239595"><ele>0.0</ele><time>2026-04-30T14:27:16.015Z</time></trkpt><trkpt lat="42.0143372" lon="4.1240617"><ele>0.0</ele><time>2026-04-30T14:27:17.015Z</time></trkpt><trkpt lat="42.0143707" lon="4.1241649"><ele>0.0</ele><time>2026-04-30T14:27:18.014Z</time></trkpt><trkpt lat="42.0144071" lon="4.1242667"><ele>0.0</ele><time>2026-04-30T14:27:19.014Z</time></trkpt><trkpt lat="42.0144449" lon="4.1243742"><ele>0.0</ele><time>2026-04-30T14:27:20.014Z</time></trkpt><trkpt lat="42.014482" lon="4.124483"><ele>0.0</ele><time>2026-04-30T14:27:21.014Z</time></trkpt><trkpt lat="42.0145157" lon="4.1245901"><ele>0.0</ele><time>2026-04-30T14:27:22.014Z</time></trkpt><trkpt lat="42.0145517" lon="4.124699"><ele>0.0</ele><time>2026-04-30T14:27:23.014Z</time></trkpt><trkpt lat="42.0145856" lon="4.1248017"><ele>0.0</ele><time>2026-04-30T14:27:24.015Z</time></trkpt><trkpt lat="42.014609" lon="4.1249093"><ele>0.0</ele><time>2026-04-30T14:27:25.014Z</time></trkpt><trkpt lat="42.014642" lon="4.1250163"><ele>0.0</ele><time>2026-04-30T14:27:26.014Z</time></trkpt><trkpt lat="42.0147417" lon="4.1253329"><ele>0.0</ele><time>2026-04-30T14:27:29.014Z</time></trkpt><trkpt lat="42.0147782" lon="4.1254409"><ele>0.0</ele><time>2026-04-30T14:27:30.015Z</time></trkpt><trkpt lat="42.0148136" lon="4.125547"><ele>0.0</ele><time>2026-04-30T14:27:31.015Z</time></trkpt><trkpt lat="42.0148484" lon="4.1256514"><ele>0.0</ele><time>2026-04-30T14:27:32.015Z</time></trkpt><trkpt lat="42.014885" lon="4.1257568"><ele>0.0</ele><time>2026-04-30T14:27:33.015Z</time></trkpt><trkpt lat="42.0149218" lon="4.1258586"><ele>0.0</ele><time>2026-04-30T14:27:34.014Z</time></trkpt><trkpt lat="42.0149568" lon="4.1259587"><ele>0.0</ele><time>2026-04-30T14:27:35.014Z</time></trkpt><trkpt lat="42.014995" lon="4.12606"><ele>0.0</ele><time>2026-04-30T14:27:36.015Z</time></trkpt><trkpt lat="42.0150335" lon="4.1261616"><ele>0.0</ele><time>2026-04-30T14:27:37.014Z</time></trkpt><trkpt lat="42.0150718" lon="4.126265"><ele>0.0</ele><time>2026-04-30T14:27:38.015Z</time></trkpt><trkpt lat="42.0151084" lon="4.1263696"><ele>0.0</ele><time>2026-04-30T14:27:39.014Z</time></trkpt><trkpt lat="42.0151439" lon="4.1264718"><ele>0.0</ele><time>2026-04-30T14:27:40.014Z</time></trkpt><trkpt lat="42.0151802" lon="4.1265734"><ele>0.0</ele><time>2026-04-30T14:27:41.015Z</time></trkpt><trkpt lat="42.0152179" lon="4.1266736"><ele>0.0</ele><time>2026-04-30T14:27:42.015Z</time></trkpt><trkpt lat="42.0152549" lon="4.1267793"><ele>0.0</ele><time>2026-04-30T14:27:43.014Z</time></trkpt><trkpt lat="42.0152903" lon="4.1268851"><ele>0.0</ele><time>2026-04-30T14:27:44.015Z</time></trkpt><trkpt lat="42.0153252" lon="4.1269885"><ele>0.0</ele><time>2026-04-30T14:27:45.014Z</time></trkpt><trkpt lat="42.015359" lon="4.1270903"><ele>0.0</ele><time>2026-04-30T14:27:46.014Z</time></trkpt><trkpt lat="42.0153934" lon="4.1271965"><ele>0.0</ele><time>2026-04-30T14:27:47.015Z</time></trkpt><trkpt lat="42.0154342" lon="4.1273015"><ele>0.0</ele><time>2026-04-30T14:27:48.014Z</time></trkpt><trkpt lat="42.0155194" lon="4.127512"><ele>0.0</ele><time>2026-04-30T14:27:50.015Z</time></trkpt><trkpt lat="42.015558" lon="4.1276163"><ele>0.0</ele><time>2026-04-30T14:27:51.014Z</time></trkpt><trkpt lat="42.0155963" lon="4.1277227"><ele>0.0</ele><time>2026-04-30T14:27:52.014Z</time></trkpt><trkpt lat="42.0156423" lon="4.1278279"><ele>0.0</ele><time>2026-04-30T14:27:53.014Z</time></trkpt><trkpt lat="42.0156874" lon="4.1279298"><ele>0.0</ele><time>2026-04-30T14:27:54.014Z</time></trkpt><trkpt lat="42.0157326" lon="4.1280328"><ele>0.0</ele><time>2026-04-30T14:27:55.015Z</time></trkpt><trkpt lat="42.0157749" lon="4.1281392"><ele>0.0</ele><time>2026-04-30T14:27:56.014Z</time></trkpt><trkpt lat="42.0158163" lon="4.1282446"><ele>0.0</ele><time>2026-04-30T14:27:57.015Z</time></trkpt><trkpt lat="42.0158592" lon="4.1283467"><ele>0.0</ele><time>2026-04-30T14:27:58.015Z</time></trkpt><trkpt lat="42.0159013" lon="4.1284469"><ele>0.0</ele><time>2026-04-30T14:27:59.015Z</time></trkpt><trkpt lat="42.0159802" lon="4.1286549"><ele>0.0</ele><time>2026-04-30T14:28:01.015Z</time></trkpt><trkpt lat="42.0160198" lon="4.1287581"><ele>0.0</ele><time>2026-04-30T14:28:02.014Z</time></trkpt><trkpt lat="42.0160608" lon="4.1288617"><ele>0.0</ele><time>2026-04-30T14:28:03.014Z</time></trkpt><trkpt lat="42.0160996" lon="4.128966"><ele>0.0</ele><time>2026-04-30T14:28:04.014Z</time></trkpt><trkpt lat="42.0161582" lon="4.1290673"><ele>0.0</ele><time>2026-04-30T14:28:05.014Z</time></trkpt><trkpt lat="42.0162011" lon="4.129167"><ele>0.0</ele><time>2026-04-30T14:28:06.015Z</time></trkpt><trkpt lat="42.0162383" lon="4.1292671"><ele>0.0</ele><time>2026-04-30T14:28:07.015Z</time></trkpt><trkpt lat="42.0162784" lon="4.1293701"><ele>0.0</ele><time>2026-04-30T14:28:08.014Z</time></trkpt><trkpt lat="42.0163124" lon="4.1294693"><ele>0.0</ele><time>2026-04-30T14:28:09.014Z</time></trkpt><trkpt lat="42.016385" lon="4.1296768"><ele>0.0</ele><time>2026-04-30T14:28:11.014Z</time></trkpt><trkpt lat="42.0164234" lon="4.1297801"><ele>0.0</ele><time>2026-04-30T14:28:12.014Z</time></trkpt><trkpt lat="42.0164589" lon="4.1298833"><ele>0.0</ele><time>2026-04-30T14:28:13.015Z</time></trkpt><trkpt lat="42.0164953" lon="4.1299881"><ele>0.0</ele><time>2026-04-30T14:28:14.015Z</time></trkpt><trkpt lat="42.0165332" lon="4.1300946"><ele>0.0</ele><time>2026-04-30T14:28:15.015Z</time></trkpt><trkpt lat="42.0165699" lon="4.1301998"><ele>0.0</ele><time>2026-04-30T14:28:16.015Z</time></trkpt><trkpt lat="42.0166051" lon="4.1303048"><ele>0.0</ele><time>2026-04-30T14:28:17.014Z</time></trkpt><trkpt lat="42.0166415" lon="4.1304145"><ele>0.0</ele><time>2026-04-30T14:28:18.014Z</time></trkpt><trkpt lat="42.0166767" lon="4.1305203"><ele>0.0</ele><time>2026-04-30T14:28:19.014Z</time></trkpt><trkpt lat="42.0167143" lon="4.1306268"><ele>0.0</ele><time>2026-04-30T14:28:20.014Z</time></trkpt><trkpt lat="42.0167481" lon="4.1307351"><ele>0.0</ele><time>2026-04-30T14:28:21.015Z</time></trkpt><trkpt lat="42.0167786" lon="4.1308389"><ele>0.0</ele><time>2026-04-30T14:28:22.014Z</time></trkpt><trkpt lat="42.0168133" lon="4.1309449"><ele>0.0</ele><time>2026-04-30T14:28:23.014Z</time></trkpt><trkpt lat="42.0168484" lon="4.1310503"><ele>0.0</ele><time>2026-04-30T14:28:24.014Z</time></trkpt><trkpt lat="42.0168814" lon="4.1311583"><ele>0.0</ele><time>2026-04-30T14:28:25.015Z</time></trkpt><trkpt lat="42.0169182" lon="4.1312633"><ele>0.0</ele><time>2026-04-30T14:28:26.014Z</time></trkpt><trkpt lat="42.0169551" lon="4.1313653"><ele>0.0</ele><time>2026-04-30T14:28:27.014Z</time></trkpt><trkpt lat="42.0169965" lon="4.1314663"><ele>0.0</ele><time>2026-04-30T14:28:28.015Z</time></trkpt><trkpt lat="42.0170397" lon="4.1315681"><ele>0.0</ele><time>2026-04-30T14:28:29.015Z</time></trkpt><trkpt lat="42.0170817" lon="4.13167"><ele>0.0</ele><time>2026-04-30T14:28:30.015Z</time></trkpt><trkpt lat="42.0171567" lon="4.1318769"><ele>0.0</ele><time>2026-04-30T14:28:32.014Z</time></trkpt><trkpt lat="42.0172304" lon="4.132082"><ele>0.0</ele><time>2026-04-30T14:28:34.015Z</time></trkpt><trkpt lat="42.0172648" lon="4.1321897"><ele>0.0</ele><time>2026-04-30T14:28:35.014Z</time></trkpt><trkpt lat="42.0172984" lon="4.1322939"><ele>0.0</ele><time>2026-04-30T14:28:36.014Z</time></trkpt><trkpt lat="42.01733" lon="4.1323983"><ele>0.0</ele><time>2026-04-30T14:28:37.014Z</time></trkpt><trkpt lat="42.0173614" lon="4.1325047"><ele>0.0</ele><time>2026-04-30T14:28:38.014Z</time></trkpt><trkpt lat="42.0174016" lon="4.1326106"><ele>0.0</ele><time>2026-04-30T14:28:39.014Z</time></trkpt><trkpt lat="42.017433" lon="4.1327173"><ele>0.0</ele><time>2026-04-30T14:28:40.015Z</time></trkpt><trkpt lat="42.017463" lon="4.1328238"><ele>0.0</ele><time>2026-04-30T14:28:41.014Z</time></trkpt><trkpt lat="42.0174964" lon="4.1329287"><ele>0.0</ele><time>2026-04-30T14:28:42.014Z</time></trkpt><trkpt lat="42.017541" lon="4.1330279"><ele>0.0</ele><time>2026-04-30T14:28:43.015Z</time></trkpt><trkpt lat="42.0175747" lon="4.1331265"><ele>0.0</ele><time>2026-04-30T14:28:44.015Z</time></trkpt><trkpt lat="42.0176095" lon="4.133225"><ele>0.0</ele><time>2026-04-30T14:28:45.014Z</time></trkpt><trkpt lat="42.0176417" lon="4.1333316"><ele>0.0</ele><time>2026-04-30T14:28:46.015Z</time></trkpt><trkpt lat="42.0176763" lon="4.1334342"><ele>0.0</ele><time>2026-04-30T14:28:47.014Z</time></trkpt><trkpt lat="42.0177131" lon="4.1335383"><ele>0.0</ele><time>2026-04-30T14:28:48.014Z</time></trkpt><trkpt lat="42.0177526" lon="4.1336457"><ele>0.0</ele><time>2026-04-30T14:28:49.015Z</time></trkpt><trkpt lat="42.0177928" lon="4.1337542"><ele>0.0</ele><time>2026-04-30T14:28:50.015Z</time></trkpt><trkpt lat="42.0178358" lon="4.133859"><ele>0.0</ele><time>2026-04-30T14:28:51.014Z</time></trkpt><trkpt lat="42.0179325" lon="4.1340461"><ele>0.0</ele><time>2026-04-30T14:28:53.014Z</time></trkpt><trkpt lat="42.0179772" lon="4.1341446"><ele>0.0</ele><time>2026-04-30T14:28:54.014Z</time></trkpt><trkpt lat="42.0180166" lon="4.1342468"><ele>0.0</ele><time>2026-04-30T14:28:55.015Z</time></trkpt><trkpt lat="42.0180566" lon="4.1343515"><ele>0.0</ele><time>2026-04-30T14:28:56.015Z</time></trkpt><trkpt lat="42.0180966" lon="4.1344566"><ele>0.0</ele><time>2026-04-30T14:28:57.014Z</time></trkpt><trkpt lat="42.0181397" lon="4.1345582"><ele>0.0</ele><time>2026-04-30T14:28:58.015Z</time></trkpt><trkpt lat="42.0181819" lon="4.1346614"><ele>0.0</ele><time>2026-04-30T14:28:59.015Z</time></trkpt><trkpt lat="42.0182233" lon="4.1347637"><ele>0.0</ele><time>2026-04-30T14:29:00.015Z</time></trkpt><trkpt lat="42.0182604" lon="4.1348639"><ele>0.0</ele><time>2026-04-30T14:29:01.015Z</time></trkpt><trkpt lat="42.018297" lon="4.1349649"><ele>0.0</ele><time>2026-04-30T14:29:02.015Z</time></trkpt><trkpt lat="42.0183351" lon="4.1350662"><ele>0.0</ele><time>2026-04-30T14:29:03.015Z</time></trkpt><trkpt lat="42.0183768" lon="4.1351683"><ele>0.0</ele><time>2026-04-30T14:29:04.014Z</time></trkpt><trkpt lat="42.0184554" lon="4.135375"><ele>0.0</ele><time>2026-04-30T14:29:06.014Z</time></trkpt><trkpt lat="42.0184986" lon="4.1354751"><ele>0.0</ele><time>2026-04-30T14:29:07.014Z</time></trkpt><trkpt lat="42.0185391" lon="4.1355722"><ele>0.0</ele><time>2026-04-30T14:29:08.014Z</time></trkpt><trkpt lat="42.0185738" lon="4.1356775"><ele>0.0</ele><time>2026-04-30T14:29:09.014Z</time></trkpt><trkpt lat="42.0186142" lon="4.1357784"><ele>0.0</ele><time>2026-04-30T14:29:10.014Z</time></trkpt><trkpt lat="42.0186572" lon="4.1358768"><ele>0.0</ele><time>2026-04-30T14:29:11.014Z</time></trkpt><trkpt lat="42.0187007" lon="4.1359735"><ele>0.0</ele><time>2026-04-30T14:29:12.014Z</time></trkpt><trkpt lat="42.0187905" lon="4.1361701"><ele>0.0</ele><time>2026-04-30T14:29:14.014Z</time></trkpt><trkpt lat="42.0188338" lon="4.1362686"><ele>0.0</ele><time>2026-04-30T14:29:15.015Z</time></trkpt><trkpt lat="42.0188724" lon="4.1363717"><ele>0.0</ele><time>2026-04-30T14:29:16.015Z</time></trkpt><trkpt lat="42.0189166" lon="4.1364763"><ele>0.0</ele><time>2026-04-30T14:29:17.014Z</time></trkpt><trkpt lat="42.0189574" lon="4.1365786"><ele>0.0</ele><time>2026-04-30T14:29:18.014Z</time></trkpt><trkpt lat="42.0189912" lon="4.1366829"><ele>0.0</ele><time>2026-04-30T14:29:19.014Z</time></trkpt><trkpt lat="42.0190288" lon="4.1367906"><ele>0.0</ele><time>2026-04-30T14:29:20.015Z</time></trkpt><trkpt lat="42.0190673" lon="4.1368913"><ele>0.0</ele><time>2026-04-30T14:29:21.014Z</time></trkpt><trkpt lat="42.0191056" lon="4.1369931"><ele>0.0</ele><time>2026-04-30T14:29:22.015Z</time></trkpt><trkpt lat="42.0191454" lon="4.1370965"><ele>0.0</ele><time>2026-04-30T14:29:23.015Z</time></trkpt><trkpt lat="42.0191852" lon="4.1371981"><ele>0.0</ele><time>2026-04-30T14:29:24.014Z</time></trkpt><trkpt lat="42.019222" lon="4.1373042"><ele>0.0</ele><time>2026-04-30T14:29:25.015Z</time></trkpt><trkpt lat="42.0192617" lon="4.1374092"><ele>0.0</ele><time>2026-04-30T14:29:26.015Z</time></trkpt><trkpt lat="42.0193005" lon="4.1375114"><ele>0.0</ele><time>2026-04-30T14:29:27.015Z</time></trkpt><trkpt lat="42.0193401" lon="4.1376175"><ele>0.0</ele><time>2026-04-30T14:29:28.014Z</time></trkpt><trkpt lat="42.0193782" lon="4.1377244"><ele>0.0</ele><time>2026-04-30T14:29:29.014Z</time></trkpt><trkpt lat="42.0194142" lon="4.1378311"><ele>0.0</ele><time>2026-04-30T14:29:30.014Z</time></trkpt><trkpt lat="42.0194507" lon="4.1379361"><ele>0.0</ele><time>2026-04-30T14:29:31.015Z</time></trkpt><trkpt lat="42.0194889" lon="4.1380382"><ele>0.0</ele><time>2026-04-30T14:29:32.015Z</time></trkpt><trkpt lat="42.019524" lon="4.1381417"><ele>0.0</ele><time>2026-04-30T14:29:33.015Z</time></trkpt><trkpt lat="42.0195888" lon="4.1383512"><ele>0.0</ele><time>2026-04-30T14:29:35.015Z</time></trkpt><trkpt lat="42.0196236" lon="4.1384581"><ele>0.0</ele><time>2026-04-30T14:29:36.014Z</time></trkpt><trkpt lat="42.0196559" lon="4.138563"><ele>0.0</ele><time>2026-04-30T14:29:37.014Z</time></trkpt><trkpt lat="42.0196934" lon="4.1386696"><ele>0.0</ele><time>2026-04-30T14:29:38.015Z</time></trkpt><trkpt lat="42.0197274" lon="4.1387734"><ele>0.0</ele><time>2026-04-30T14:29:39.014Z</time></trkpt><trkpt lat="42.0197597" lon="4.138875"><ele>0.0</ele><time>2026-04-30T14:29:40.015Z</time></trkpt><trkpt lat="42.0197965" lon="4.1389796"><ele>0.0</ele><time>2026-04-30T14:29:41.015Z</time></trkpt><trkpt lat="42.0198295" lon="4.1390785"><ele>0.0</ele><time>2026-04-30T14:29:42.014Z</time></trkpt><trkpt lat="42.0198626" lon="4.1391771"><ele>0.0</ele><time>2026-04-30T14:29:43.014Z</time></trkpt><trkpt lat="42.0198978" lon="4.1392754"><ele>0.0</ele><time>2026-04-30T14:29:44.015Z</time></trkpt><trkpt lat="42.0199309" lon="4.139378"><ele>0.0</ele><time>2026-04-30T14:29:45.015Z</time></trkpt><trkpt lat="42.0199635" lon="4.1394842"><ele>0.0</ele><time>2026-04-30T14:29:46.014Z</time></trkpt><trkpt lat="42.0199996" lon="4.1395971"><ele>0.0</ele><time>2026-04-30T14:29:47.014Z</time></trkpt><trkpt lat="42.0200383" lon="4.1397063"><ele>0.0</ele><time>2026-04-30T14:29:48.015Z</time></trkpt><trkpt lat="42.0200764" lon="4.1398173"><ele>0.0</ele><time>2026-04-30T14:29:49.014Z</time></trkpt><trkpt lat="42.0201117" lon="4.1399276"><ele>0.0</ele><time>2026-04-30T14:29:50.014Z</time></trkpt><trkpt lat="42.0201468" lon="4.1400364"><ele>0.0</ele><time>2026-04-30T14:29:51.014Z</time></trkpt><trkpt lat="42.0201806" lon="4.1401419"><ele>0.0</ele><time>2026-04-30T14:29:52.014Z</time></trkpt><trkpt lat="42.020214" lon="4.1402437"><ele>0.0</ele><time>2026-04-30T14:29:53.015Z</time></trkpt><trkpt lat="42.0202519" lon="4.1403467"><ele>0.0</ele><time>2026-04-30T14:29:54.015Z</time></trkpt><trkpt lat="42.02033" lon="4.1405596"><ele>0.0</ele><time>2026-04-30T14:29:56.014Z</time></trkpt><trkpt lat="42.0203654" lon="4.1406634"><ele>0.0</ele><time>2026-04-30T14:29:57.015Z</time></trkpt><trkpt lat="42.0204047" lon="4.1407725"><ele>0.0</ele><time>2026-04-30T14:29:58.015Z</time></trkpt><trkpt lat="42.0204334" lon="4.1408812"><ele>0.0</ele><time>2026-04-30T14:29:59.015Z</time></trkpt><trkpt lat="42.0204681" lon="4.1409896"><ele>0.0</ele><time>2026-04-30T14:30:00.015Z</time></trkpt><trkpt lat="42.0205049" lon="4.1410963"><ele>0.0</ele><time>2026-04-30T14:30:01.014Z</time></trkpt><trkpt lat="42.0205347" lon="4.1412071"><ele>0.0</ele><time>2026-04-30T14:30:02.013Z</time></trkpt><trkpt lat="42.0205661" lon="4.1413158"><ele>0.0</ele><time>2026-04-30T14:30:03.014Z</time></trkpt><trkpt lat="42.0205906" lon="4.1414269"><ele>0.0</ele><time>2026-04-30T14:30:04.014Z</time></trkpt><trkpt lat="42.0206256" lon="4.1415367"><ele>0.0</ele><time>2026-04-30T14:30:05.014Z</time></trkpt><trkpt lat="42.020666" lon="4.1416447"><ele>0.0</ele><time>2026-04-30T14:30:06.013Z</time></trkpt><trkpt lat="42.0207006" lon="4.1417471"><ele>0.0</ele><time>2026-04-30T14:30:07.014Z</time></trkpt><trkpt lat="42.0207424" lon="4.1418518"><ele>0.0</ele><time>2026-04-30T14:30:08.014Z</time></trkpt><trkpt lat="42.0207775" lon="4.1419569"><ele>0.0</ele><time>2026-04-30T14:30:09.014Z</time></trkpt><trkpt lat="42.0208104" lon="4.1420631"><ele>0.0</ele><time>2026-04-30T14:30:10.013Z</time></trkpt><trkpt lat="42.0208419" lon="4.1421659"><ele>0.0</ele><time>2026-04-30T14:30:11.014Z</time></trkpt><trkpt lat="42.0208805" lon="4.1422688"><ele>0.0</ele><time>2026-04-30T14:30:12.013Z</time></trkpt><trkpt lat="42.020915" lon="4.1423733"><ele>0.0</ele><time>2026-04-30T14:30:13.013Z</time></trkpt><trkpt lat="42.0209518" lon="4.1424738"><ele>0.0</ele><time>2026-04-30T14:30:14.014Z</time></trkpt><trkpt lat="42.0209886" lon="4.1425766"><ele>0.0</ele><time>2026-04-30T14:30:15.014Z</time></trkpt><trkpt lat="42.0210652" lon="4.1427808"><ele>0.0</ele><time>2026-04-30T14:30:17.014Z</time></trkpt><trkpt lat="42.0211002" lon="4.1428821"><ele>0.0</ele><time>2026-04-30T14:30:18.013Z</time></trkpt><trkpt lat="42.0211338" lon="4.1429853"><ele>0.0</ele><time>2026-04-30T14:30:19.014Z</time></trkpt><trkpt lat="42.0211683" lon="4.1430926"><ele>0.0</ele><time>2026-04-30T14:30:20.013Z</time></trkpt><trkpt lat="42.0212019" lon="4.1431997"><ele>0.0</ele><time>2026-04-30T14:30:21.014Z</time></trkpt><trkpt lat="42.0212334" lon="4.1433064"><ele>0.0</ele><time>2026-04-30T14:30:22.014Z</time></trkpt><trkpt lat="42.0212682" lon="4.1434143"><ele>0.0</ele><time>2026-04-30T14:30:23.013Z</time></trkpt><trkpt lat="42.0213033" lon="4.1435214"><ele>0.0</ele><time>2026-04-30T14:30:24.014Z</time></trkpt><trkpt lat="42.0213401" lon="4.143627"><ele>0.0</ele><time>2026-04-30T14:30:25.014Z</time></trkpt><trkpt lat="42.0213738" lon="4.1437332"><ele>0.0</ele><time>2026-04-30T14:30:26.013Z</time></trkpt><trkpt lat="42.0214113" lon="4.1438385"><ele>0.0</ele><time>2026-04-30T14:30:27.013Z</time></trkpt><trkpt lat="42.0214479" lon="4.1439447"><ele>0.0</ele><time>2026-04-30T14:30:28.013Z</time></trkpt><trkpt lat="42.0214877" lon="4.1440485"><ele>0.0</ele><time>2026-04-30T14:30:29.013Z</time></trkpt><trkpt lat="42.0215234" lon="4.1441546"><ele>0.0</ele><time>2026-04-30T14:30:30.014Z</time></trkpt><trkpt lat="42.021554" lon="4.1442642"><ele>0.0</ele><time>2026-04-30T14:30:31.014Z</time></trkpt><trkpt lat="42.0215868" lon="4.14437"><ele>0.0</ele><time>2026-04-30T14:30:32.013Z</time></trkpt><trkpt lat="42.02162" lon="4.1444793"><ele>0.0</ele><time>2026-04-30T14:30:33.013Z</time></trkpt><trkpt lat="42.0216464" lon="4.1445923"><ele>0.0</ele><time>2026-04-30T14:30:34.013Z</time></trkpt><trkpt lat="42.0216882" lon="4.1446941"><ele>0.0</ele><time>2026-04-30T14:30:35.013Z</time></trkpt><trkpt lat="42.0217219" lon="4.1447971"><ele>0.0</ele><time>2026-04-30T14:30:36.013Z</time></trkpt><trkpt lat="42.0218011" lon="4.1450073"><ele>0.0</ele><time>2026-04-30T14:30:38.014Z</time></trkpt><trkpt lat="42.0218369" lon="4.1451133"><ele>0.0</ele><time>2026-04-30T14:30:39.013Z</time></trkpt><trkpt lat="42.0218791" lon="4.1452184"><ele>0.0</ele><time>2026-04-30T14:30:40.013Z</time></trkpt><trkpt lat="42.0219216" lon="4.1453188"><ele>0.0</ele><time>2026-04-30T14:30:41.014Z</time></trkpt><trkpt lat="42.0219601" lon="4.1454202"><ele>0.0</ele><time>2026-04-30T14:30:42.014Z</time></trkpt><trkpt lat="42.0220004" lon="4.1455219"><ele>0.0</ele><time>2026-04-30T14:30:43.013Z</time></trkpt><trkpt lat="42.0220356" lon="4.1456239"><ele>0.0</ele><time>2026-04-30T14:30:44.013Z</time></trkpt><trkpt lat="42.0220702" lon="4.1457283"><ele>0.0</ele><time>2026-04-30T14:30:45.013Z</time></trkpt><trkpt lat="42.0221093" lon="4.1458264"><ele>0.0</ele><time>2026-04-30T14:30:46.013Z</time></trkpt><trkpt lat="42.0221477" lon="4.1459298"><ele>0.0</ele><time>2026-04-30T14:30:47.013Z</time></trkpt><trkpt lat="42.0221863" lon="4.1460349"><ele>0.0</ele><time>2026-04-30T14:30:48.013Z</time></trkpt><trkpt lat="42.0222274" lon="4.1461383"><ele>0.0</ele><time>2026-04-30T14:30:49.013Z</time></trkpt><trkpt lat="42.0222684" lon="4.14624"><ele>0.0</ele><time>2026-04-30T14:30:50.013Z</time></trkpt><trkpt lat="42.0223073" lon="4.1463404"><ele>0.0</ele><time>2026-04-30T14:30:51.013Z</time></trkpt><trkpt lat="42.0223466" lon="4.1464447"><ele>0.0</ele><time>2026-04-30T14:30:52.014Z</time></trkpt><trkpt lat="42.0223822" lon="4.1465485"><ele>0.0</ele><time>2026-04-30T14:30:53.014Z</time></trkpt><trkpt lat="42.0224172" lon="4.1466476"><ele>0.0</ele><time>2026-04-30T14:30:54.013Z</time></trkpt><trkpt lat="42.0224551" lon="4.1467515"><ele>0.0</ele><time>2026-04-30T14:30:55.013Z</time></trkpt><trkpt lat="42.022492" lon="4.1468554"><ele>0.0</ele><time>2026-04-30T14:30:56.014Z</time></trkpt><trkpt lat="42.0225313" lon="4.1469588"><ele>0.0</ele><time>2026-04-30T14:30:57.014Z</time></trkpt><trkpt lat="42.02261" lon="4.1471717"><ele>0.0</ele><time>2026-04-30T14:30:59.014Z</time></trkpt><trkpt lat="42.0226487" lon="4.1472736"><ele>0.0</ele><time>2026-04-30T14:31:00.013Z</time></trkpt><trkpt lat="42.0226881" lon="4.1473765"><ele>0.0</ele><time>2026-04-30T14:31:01.013Z</time></trkpt><trkpt lat="42.0227268" lon="4.1474828"><ele>0.0</ele><time>2026-04-30T14:31:02.014Z</time></trkpt><trkpt lat="42.022765" lon="4.1475897"><ele>0.0</ele><time>2026-04-30T14:31:03.013Z</time></trkpt><trkpt lat="42.0228005" lon="4.1476909"><ele>0.0</ele><time>2026-04-30T14:31:04.014Z</time></trkpt><trkpt lat="42.0228414" lon="4.1477965"><ele>0.0</ele><time>2026-04-30T14:31:05.013Z</time></trkpt><trkpt lat="42.0228782" lon="4.1479014"><ele>0.0</ele><time>2026-04-30T14:31:06.013Z</time></trkpt><trkpt lat="42.0229135" lon="4.1480037"><ele>0.0</ele><time>2026-04-30T14:31:07.014Z</time></trkpt><trkpt lat="42.0229502" lon="4.1481124"><ele>0.0</ele><time>2026-04-30T14:31:08.013Z</time></trkpt><trkpt lat="42.0229883" lon="4.1482183"><ele>0.0</ele><time>2026-04-30T14:31:09.013Z</time></trkpt><trkpt lat="42.0230225" lon="4.1483229"><ele>0.0</ele><time>2026-04-30T14:31:10.014Z</time></trkpt><trkpt lat="42.0230604" lon="4.1484248"><ele>0.0</ele><time>2026-04-30T14:31:11.013Z</time></trkpt><trkpt lat="42.0231002" lon="4.1485254"><ele>0.0</ele><time>2026-04-30T14:31:12.014Z</time></trkpt><trkpt lat="42.0231448" lon="4.1486291"><ele>0.0</ele><time>2026-04-30T14:31:13.013Z</time></trkpt><trkpt lat="42.0231841" lon="4.1487329"><ele>0.0</ele><time>2026-04-30T14:31:14.014Z</time></trkpt><trkpt lat="42.0232255" lon="4.1488324"><ele>0.0</ele><time>2026-04-30T14:31:15.013Z</time></trkpt><trkpt lat="42.0232652" lon="4.1489351"><ele>0.0</ele><time>2026-04-30T14:31:16.013Z</time></trkpt><trkpt lat="42.023299" lon="4.1490355"><ele>0.0</ele><time>2026-04-30T14:31:17.014Z</time></trkpt><trkpt lat="42.0233263" lon="4.1491358"><ele>0.0</ele><time>2026-04-30T14:31:18.013Z</time></trkpt><trkpt lat="42.0233914" lon="4.1493473"><ele>0.0</ele><time>2026-04-30T14:31:20.014Z</time></trkpt><trkpt lat="42.0234265" lon="4.1494529"><ele>0.0</ele><time>2026-04-30T14:31:21.014Z</time></trkpt><trkpt lat="42.0234648" lon="4.1495615"><ele>0.0</ele><time>2026-04-30T14:31:22.013Z</time></trkpt><trkpt lat="42.023502" lon="4.1496621"><ele>0.0</ele><time>2026-04-30T14:31:23.014Z</time></trkpt><trkpt lat="42.0235457" lon="4.149769"><ele>0.0</ele><time>2026-04-30T14:31:24.014Z</time></trkpt><trkpt lat="42.0235851" lon="4.1498734"><ele>0.0</ele><time>2026-04-30T14:31:25.013Z</time></trkpt><trkpt lat="42.0236267" lon="4.1499736"><ele>0.0</ele><time>2026-04-30T14:31:26.014Z</time></trkpt><trkpt lat="42.0236684" lon="4.1500765"><ele>0.0</ele><time>2026-04-30T14:31:27.013Z</time></trkpt><trkpt lat="42.0237084" lon="4.1501814"><ele>0.0</ele><time>2026-04-30T14:31:28.014Z</time></trkpt><trkpt lat="42.0237496" lon="4.1502897"><ele>0.0</ele><time>2026-04-30T14:31:29.014Z</time></trkpt><trkpt lat="42.0237895" lon="4.1503968"><ele>0.0</ele><time>2026-04-30T14:31:30.014Z</time></trkpt><trkpt lat="42.0238281" lon="4.1504992"><ele>0.0</ele><time>2026-04-30T14:31:31.014Z</time></trkpt><trkpt lat="42.0238632" lon="4.1506035"><ele>0.0</ele><time>2026-04-30T14:31:32.014Z</time></trkpt><trkpt lat="42.0239023" lon="4.150703"><ele>0.0</ele><time>2026-04-30T14:31:33.013Z</time></trkpt><trkpt lat="42.0239363" lon="4.150804"><ele>0.0</ele><time>2026-04-30T14:31:34.014Z</time></trkpt><trkpt lat="42.0239711" lon="4.1509085"><ele>0.0</ele><time>2026-04-30T14:31:35.013Z</time></trkpt><trkpt lat="42.0240048" lon="4.1510167"><ele>0.0</ele><time>2026-04-30T14:31:36.014Z</time></trkpt><trkpt lat="42.0240396" lon="4.1511222"><ele>0.0</ele><time>2026-04-30T14:31:37.013Z</time></trkpt><trkpt lat="42.0240781" lon="4.1512266"><ele>0.0</ele><time>2026-04-30T14:31:38.013Z</time></trkpt><trkpt lat="42.0241185" lon="4.1513282"><ele>0.0</ele><time>2026-04-30T14:31:39.014Z</time></trkpt><trkpt lat="42.0241965" lon="4.1515367"><ele>0.0</ele><time>2026-04-30T14:31:41.014Z</time></trkpt><trkpt lat="42.0242361" lon="4.1516429"><ele>0.0</ele><time>2026-04-30T14:31:42.014Z</time></trkpt><trkpt lat="42.0242765" lon="4.1517481"><ele>0.0</ele><time>2026-04-30T14:31:43.014Z</time></trkpt><trkpt lat="42.024325" lon="4.1518501"><ele>0.0</ele><time>2026-04-30T14:31:44.013Z</time></trkpt><trkpt lat="42.0243694" lon="4.1519558"><ele>0.0</ele><time>2026-04-30T14:31:45.014Z</time></trkpt><trkpt lat="42.0244553" lon="4.1521665"><ele>0.0</ele><time>2026-04-30T14:31:47.013Z</time></trkpt><trkpt lat="42.0244984" lon="4.1522696"><ele>0.0</ele><time>2026-04-30T14:31:48.013Z</time></trkpt><trkpt lat="42.0245405" lon="4.1523685"><ele>0.0</ele><time>2026-04-30T14:31:49.014Z</time></trkpt><trkpt lat="42.0245819" lon="4.1524697"><ele>0.0</ele><time>2026-04-30T14:31:50.014Z</time></trkpt><trkpt lat="42.0246222" lon="4.15257"><ele>0.0</ele><time>2026-04-30T14:31:51.014Z</time></trkpt><trkpt lat="42.0246601" lon="4.152673"><ele>0.0</ele><time>2026-04-30T14:31:52.014Z</time></trkpt><trkpt lat="42.0247001" lon="4.1527779"><ele>0.0</ele><time>2026-04-30T14:31:53.014Z</time></trkpt><trkpt lat="42.0247419" lon="4.152877"><ele>0.0</ele><time>2026-04-30T14:31:54.014Z</time></trkpt><trkpt lat="42.0247795" lon="4.1529809"><ele>0.0</ele><time>2026-04-30T14:31:55.014Z</time></trkpt><trkpt lat="42.0248216" lon="4.1530887"><ele>0.0</ele><time>2026-04-30T14:31:56.013Z</time></trkpt><trkpt lat="42.0248601" lon="4.1531931"><ele>0.0</ele><time>2026-04-30T14:31:57.013Z</time></trkpt><trkpt lat="42.0248986" lon="4.1532936"><ele>0.0</ele><time>2026-04-30T14:31:58.014Z</time></trkpt><trkpt lat="42.02493" lon="4.1533895"><ele>0.0</ele><time>2026-04-30T14:31:59.014Z</time></trkpt><trkpt lat="42.0249559" lon="4.1534973"><ele>0.0</ele><time>2026-04-30T14:32:00.013Z</time></trkpt><trkpt lat="42.0250285" lon="4.1537156"><ele>0.0</ele><time>2026-04-30T14:32:02.014Z</time></trkpt><trkpt lat="42.0250699" lon="4.1538226"><ele>0.0</ele><time>2026-04-30T14:32:03.014Z</time></trkpt><trkpt lat="42.0251099" lon="4.1539324"><ele>0.0</ele><time>2026-04-30T14:32:04.014Z</time></trkpt><trkpt lat="42.0251453" lon="4.1540384"><ele>0.0</ele><time>2026-04-30T14:32:05.013Z</time></trkpt><trkpt lat="42.0251803" lon="4.1541476"><ele>0.0</ele><time>2026-04-30T14:32:06.014Z</time></trkpt><trkpt lat="42.0252121" lon="4.1542549"><ele>0.0</ele><time>2026-04-30T14:32:07.013Z</time></trkpt><trkpt lat="42.0252436" lon="4.15436"><ele>0.0</ele><time>2026-04-30T14:32:08.014Z</time></trkpt><trkpt lat="42.0252767" lon="4.1544679"><ele>0.0</ele><time>2026-04-30T14:32:09.014Z</time></trkpt><trkpt lat="42.0253075" lon="4.154575"><ele>0.0</ele><time>2026-04-30T14:32:10.014Z</time></trkpt><trkpt lat="42.0253355" lon="4.1546819"><ele>0.0</ele><time>2026-04-30T14:32:11.014Z</time></trkpt><trkpt lat="42.0253666" lon="4.1547954"><ele>0.0</ele><time>2026-04-30T14:32:12.013Z</time></trkpt><trkpt lat="42.0253999" lon="4.1549028"><ele>0.0</ele><time>2026-04-30T14:32:13.013Z</time></trkpt><trkpt lat="42.0254365" lon="4.1550079"><ele>0.0</ele><time>2026-04-30T14:32:14.014Z</time></trkpt><trkpt lat="42.0254734" lon="4.1551116"><ele>0.0</ele><time>2026-04-30T14:32:15.014Z</time></trkpt><trkpt lat="42.0255117" lon="4.1552148"><ele>0.0</ele><time>2026-04-30T14:32:16.014Z</time></trkpt><trkpt lat="42.0255571" lon="4.1553187"><ele>0.0</ele><time>2026-04-30T14:32:17.014Z</time></trkpt><trkpt lat="42.0255951" lon="4.1554192"><ele>0.0</ele><time>2026-04-30T14:32:18.014Z</time></trkpt><trkpt lat="42.0256349" lon="4.1555219"><ele>0.0</ele><time>2026-04-30T14:32:19.013Z</time></trkpt><trkpt lat="42.0257164" lon="4.1557294"><ele>0.0</ele><time>2026-04-30T14:32:21.014Z</time></trkpt><trkpt lat="42.0257934" lon="4.1559434"><ele>0.0</ele><time>2026-04-30T14:32:23.014Z</time></trkpt><trkpt lat="42.0258272" lon="4.1560471"><ele>0.0</ele><time>2026-04-30T14:32:24.013Z</time></trkpt><trkpt lat="42.0258582" lon="4.1561534"><ele>0.0</ele><time>2026-04-30T14:32:25.014Z</time></trkpt><trkpt lat="42.0258869" lon="4.1562631"><ele>0.0</ele><time>2026-04-30T14:32:26.014Z</time></trkpt><trkpt lat="42.0259229" lon="4.156373"><ele>0.0</ele><time>2026-04-30T14:32:27.014Z</time></trkpt><trkpt lat="42.0259563" lon="4.1564817"><ele>0.0</ele><time>2026-04-30T14:32:28.013Z</time></trkpt><trkpt lat="42.0259881" lon="4.1565872"><ele>0.0</ele><time>2026-04-30T14:32:29.013Z</time></trkpt><trkpt lat="42.02602" lon="4.1566891"><ele>0.0</ele><time>2026-04-30T14:32:30.013Z</time></trkpt><trkpt lat="42.0260586" lon="4.1567869"><ele>0.0</ele><time>2026-04-30T14:32:31.013Z</time></trkpt><trkpt lat="42.0260942" lon="4.1568781"><ele>0.0</ele><time>2026-04-30T14:32:32.014Z</time></trkpt><trkpt lat="42.0261351" lon="4.1569738"><ele>0.0</ele><time>2026-04-30T14:32:33.013Z</time></trkpt><trkpt lat="42.0261598" lon="4.1570756"><ele>0.0</ele><time>2026-04-30T14:32:34.013Z</time></trkpt><trkpt lat="42.0262028" lon="4.1571803"><ele>0.0</ele><time>2026-04-30T14:32:35.013Z</time></trkpt><trkpt lat="42.0262351" lon="4.1572823"><ele>0.0</ele><time>2026-04-30T14:32:36.014Z</time></trkpt><trkpt lat="42.0262638" lon="4.1573823"><ele>0.0</ele><time>2026-04-30T14:32:37.013Z</time></trkpt><trkpt lat="42.0262952" lon="4.1574866"><ele>0.0</ele><time>2026-04-30T14:32:38.014Z</time></trkpt><trkpt lat="42.0263255" lon="4.1575903"><ele>0.0</ele><time>2026-04-30T14:32:39.013Z</time></trkpt><trkpt lat="42.0263601" lon="4.157698"><ele>0.0</ele><time>2026-04-30T14:32:40.014Z</time></trkpt><trkpt lat="42.0263965" lon="4.1578149"><ele>0.0</ele><time>2026-04-30T14:32:41.013Z</time></trkpt><trkpt lat="42.0264602" lon="4.1580283"><ele>0.0</ele><time>2026-04-30T14:32:43.013Z</time></trkpt><trkpt lat="42.0265022" lon="4.1581368"><ele>0.0</ele><time>2026-04-30T14:32:44.014Z</time></trkpt><trkpt lat="42.0265424" lon="4.1582403"><ele>0.0</ele><time>2026-04-30T14:32:45.013Z</time></trkpt><trkpt lat="42.0265771" lon="4.158341"><ele>0.0</ele><time>2026-04-30T14:32:46.013Z</time></trkpt><trkpt lat="42.0266118" lon="4.1584438"><ele>0.0</ele><time>2026-04-30T14:32:47.013Z</time></trkpt><trkpt lat="42.0266471" lon="4.1585428"><ele>0.0</ele><time>2026-04-30T14:32:48.014Z</time></trkpt><trkpt lat="42.0266847" lon="4.1586416"><ele>0.0</ele><time>2026-04-30T14:32:49.013Z</time></trkpt><trkpt lat="42.0267606" lon="4.1588341"><ele>0.0</ele><time>2026-04-30T14:32:51.013Z</time></trkpt><trkpt lat="42.0268746" lon="4.1590542"><ele>0.0</ele><time>2026-04-30T14:32:53.013Z</time></trkpt><trkpt lat="42.0269213" lon="4.1591541"><ele>0.0</ele><time>2026-04-30T14:32:54.013Z</time></trkpt><trkpt lat="42.026971" lon="4.1592561"><ele>0.0</ele><time>2026-04-30T14:32:55.014Z</time></trkpt><trkpt lat="42.0270152" lon="4.1593563"><ele>0.0</ele><time>2026-04-30T14:32:56.014Z</time></trkpt><trkpt lat="42.0270613" lon="4.1594648"><ele>0.0</ele><time>2026-04-30T14:32:57.013Z</time></trkpt><trkpt lat="42.0271122" lon="4.1595736"><ele>0.0</ele><time>2026-04-30T14:32:58.013Z</time></trkpt><trkpt lat="42.0271591" lon="4.1596735"><ele>0.0</ele><time>2026-04-30T14:32:59.013Z</time></trkpt><trkpt lat="42.027209" lon="4.1597805"><ele>0.0</ele><time>2026-04-30T14:33:00.013Z</time></trkpt><trkpt lat="42.0272502" lon="4.1598819"><ele>0.0</ele><time>2026-04-30T14:33:01.014Z</time></trkpt><trkpt lat="42.02729" lon="4.1599847"><ele>0.0</ele><time>2026-04-30T14:33:02.013Z</time></trkpt><trkpt lat="42.0273665" lon="4.1601847"><ele>0.0</ele><time>2026-04-30T14:33:04.013Z</time></trkpt><trkpt lat="42.0274055" lon="4.1602824"><ele>0.0</ele><time>2026-04-30T14:33:05.013Z</time></trkpt><trkpt lat="42.0274622" lon="4.1603782"><ele>0.0</ele><time>2026-04-30T14:33:06.014Z</time></trkpt><trkpt lat="42.0275119" lon="4.1604843"><ele>0.0</ele><time>2026-04-30T14:33:07.013Z</time></trkpt><trkpt lat="42.0275617" lon="4.1605883"><ele>0.0</ele><time>2026-04-30T14:33:08.013Z</time></trkpt><trkpt lat="42.0276032" lon="4.1606884"><ele>0.0</ele><time>2026-04-30T14:33:09.013Z</time></trkpt><trkpt lat="42.0276753" lon="4.1608842"><ele>0.0</ele><time>2026-04-30T14:33:11.013Z</time></trkpt><trkpt lat="42.0277133" lon="4.1609948"><ele>0.0</ele><time>2026-04-30T14:33:12.014Z</time></trkpt><trkpt lat="42.0277549" lon="4.1611026"><ele>0.0</ele><time>2026-04-30T14:33:13.013Z</time></trkpt><trkpt lat="42.0277936" lon="4.1612023"><ele>0.0</ele><time>2026-04-30T14:33:14.014Z</time></trkpt><trkpt lat="42.0278332" lon="4.1613094"><ele>0.0</ele><time>2026-04-30T14:33:15.013Z</time></trkpt><trkpt lat="42.0278731" lon="4.1614151"><ele>0.0</ele><time>2026-04-30T14:33:16.014Z</time></trkpt><trkpt lat="42.0279076" lon="4.1615129"><ele>0.0</ele><time>2026-04-30T14:33:17.014Z</time></trkpt><trkpt lat="42.0279437" lon="4.1616169"><ele>0.0</ele><time>2026-04-30T14:33:18.013Z</time></trkpt><trkpt lat="42.027979" lon="4.1617187"><ele>0.0</ele><time>2026-04-30T14:33:19.014Z</time></trkpt><trkpt lat="42.0280169" lon="4.161823"><ele>0.0</ele><time>2026-04-30T14:33:20.013Z</time></trkpt><trkpt lat="42.0280584" lon="4.1619309"><ele>0.0</ele><time>2026-04-30T14:33:21.013Z</time></trkpt><trkpt lat="42.0280988" lon="4.1620351"><ele>0.0</ele><time>2026-04-30T14:33:22.013Z</time></trkpt><trkpt lat="42.0282463" lon="4.162449"><ele>0.0</ele><time>2026-04-30T14:33:26.014Z</time></trkpt><trkpt lat="42.0282854" lon="4.1625603"><ele>0.0</ele><time>2026-04-30T14:33:27.014Z</time></trkpt><trkpt lat="42.0283223" lon="4.1626703"><ele>0.0</ele><time>2026-04-30T14:33:28.013Z</time></trkpt><trkpt lat="42.0283601" lon="4.1627759"><ele>0.0</ele><time>2026-04-30T14:33:29.014Z</time></trkpt><trkpt lat="42.0283968" lon="4.1628811"><ele>0.0</ele><time>2026-04-30T14:33:30.013Z</time></trkpt><trkpt lat="42.0284321" lon="4.1629849"><ele>0.0</ele><time>2026-04-30T14:33:31.013Z</time></trkpt><trkpt lat="42.0284702" lon="4.163094"><ele>0.0</ele><time>2026-04-30T14:33:32.013Z</time></trkpt><trkpt lat="42.0285069" lon="4.1632013"><ele>0.0</ele><time>2026-04-30T14:33:33.014Z</time></trkpt><trkpt lat="42.0285405" lon="4.1633053"><ele>0.0</ele><time>2026-04-30T14:33:34.013Z</time></trkpt><trkpt lat="42.0285768" lon="4.1634086"><ele>0.0</ele><time>2026-04-30T14:33:35.013Z</time></trkpt><trkpt lat="42.0286149" lon="4.1635146"><ele>0.0</ele><time>2026-04-30T14:33:36.013Z</time></trkpt><trkpt lat="42.0286536" lon="4.1636181"><ele>0.0</ele><time>2026-04-30T14:33:37.014Z</time></trkpt><trkpt lat="42.0286964" lon="4.1637176"><ele>0.0</ele><time>2026-04-30T14:33:38.013Z</time></trkpt><trkpt lat="42.0287338" lon="4.1638247"><ele>0.0</ele><time>2026-04-30T14:33:39.013Z</time></trkpt><trkpt lat="42.0287735" lon="4.1639283"><ele>0.0</ele><time>2026-04-30T14:33:40.014Z</time></trkpt><trkpt lat="42.0288107" lon="4.1640276"><ele>0.0</ele><time>2026-04-30T14:33:41.014Z</time></trkpt><trkpt lat="42.0288499" lon="4.1641356"><ele>0.0</ele><time>2026-04-30T14:33:42.014Z</time></trkpt><trkpt lat="42.0289057" lon="4.1643324"><ele>0.0</ele><time>2026-04-30T14:33:44.013Z</time></trkpt><trkpt lat="42.0289451" lon="4.1644363"><ele>0.0</ele><time>2026-04-30T14:33:45.013Z</time></trkpt><trkpt lat="42.0290254" lon="4.1646416"><ele>0.0</ele><time>2026-04-30T14:33:47.014Z</time></trkpt><trkpt lat="42.0290639" lon="4.1647481"><ele>0.0</ele><time>2026-04-30T14:33:48.014Z</time></trkpt><trkpt lat="42.0291022" lon="4.1648561"><ele>0.0</ele><time>2026-04-30T14:33:49.014Z</time></trkpt><trkpt lat="42.0291416" lon="4.164966"><ele>0.0</ele><time>2026-04-30T14:33:50.014Z</time></trkpt><trkpt lat="42.0291817" lon="4.1650759"><ele>0.0</ele><time>2026-04-30T14:33:51.013Z</time></trkpt><trkpt lat="42.0292234" lon="4.1651827"><ele>0.0</ele><time>2026-04-30T14:33:52.013Z</time></trkpt><trkpt lat="42.0292612" lon="4.1652825"><ele>0.0</ele><time>2026-04-30T14:33:53.013Z</time></trkpt><trkpt lat="42.0293017" lon="4.1653953"><ele>0.0</ele><time>2026-04-30T14:33:54.013Z</time></trkpt><trkpt lat="42.0293435" lon="4.1654967"><ele>0.0</ele><time>2026-04-30T14:33:55.014Z</time></trkpt><trkpt lat="42.0293625" lon="4.1656042"><ele>0.0</ele><time>2026-04-30T14:33:56.013Z</time></trkpt><trkpt lat="42.0294664" lon="4.1659172"><ele>0.0</ele><time>2026-04-30T14:33:59.014Z</time></trkpt><trkpt lat="42.0295001" lon="4.1660235"><ele>0.0</ele><time>2026-04-30T14:34:00.013Z</time></trkpt><trkpt lat="42.0295304" lon="4.1661273"><ele>0.0</ele><time>2026-04-30T14:34:01.013Z</time></trkpt><trkpt lat="42.0295661" lon="4.1662387"><ele>0.0</ele><time>2026-04-30T14:34:02.014Z</time></trkpt><trkpt lat="42.0296055" lon="4.1663482"><ele>0.0</ele><time>2026-04-30T14:34:03.013Z</time></trkpt><trkpt lat="42.0296396" lon="4.1664535"><ele>0.0</ele><time>2026-04-30T14:34:04.013Z</time></trkpt><trkpt lat="42.029666" lon="4.166557"><ele>0.0</ele><time>2026-04-30T14:34:05.014Z</time></trkpt><trkpt lat="42.0297442" lon="4.1667601"><ele>0.0</ele><time>2026-04-30T14:34:07.013Z</time></trkpt><trkpt lat="42.0297784" lon="4.166865"><ele>0.0</ele><time>2026-04-30T14:34:08.012Z</time></trkpt><trkpt lat="42.0298202" lon="4.1669743"><ele>0.0</ele><time>2026-04-30T14:34:09.012Z</time></trkpt><trkpt lat="42.0298506" lon="4.1670745"><ele>0.0</ele><time>2026-04-30T14:34:10.013Z</time></trkpt><trkpt lat="42.0298863" lon="4.1671751"><ele>0.0</ele><time>2026-04-30T14:34:11.013Z</time></trkpt><trkpt lat="42.0299171" lon="4.1672822"><ele>0.0</ele><time>2026-04-30T14:34:12.013Z</time></trkpt><trkpt lat="42.029949" lon="4.1673852"><ele>0.0</ele><time>2026-04-30T14:34:13.013Z</time></trkpt><trkpt lat="42.0299923" lon="4.1674855"><ele>0.0</ele><time>2026-04-30T14:34:14.012Z</time></trkpt><trkpt lat="42.0300348" lon="4.1675895"><ele>0.0</ele><time>2026-04-30T14:34:15.012Z</time></trkpt><trkpt lat="42.0300765" lon="4.1676961"><ele>0.0</ele><time>2026-04-30T14:34:16.012Z</time></trkpt><trkpt lat="42.0301405" lon="4.1677955"><ele>0.0</ele><time>2026-04-30T14:34:17.012Z</time></trkpt><trkpt lat="42.0301829" lon="4.167898"><ele>0.0</ele><time>2026-04-30T14:34:18.013Z</time></trkpt><trkpt lat="42.0302275" lon="4.1680043"><ele>0.0</ele><time>2026-04-30T14:34:19.012Z</time></trkpt><trkpt lat="42.030267" lon="4.1681041"><ele>0.0</ele><time>2026-04-30T14:34:20.012Z</time></trkpt><trkpt lat="42.0303049" lon="4.1682011"><ele>0.0</ele><time>2026-04-30T14:34:21.013Z</time></trkpt><trkpt lat="42.0303433" lon="4.1683048"><ele>0.0</ele><time>2026-04-30T14:34:22.012Z</time></trkpt><trkpt lat="42.0303734" lon="4.1684098"><ele>0.0</ele><time>2026-04-30T14:34:23.012Z</time></trkpt><trkpt lat="42.0304087" lon="4.1685146"><ele>0.0</ele><time>2026-04-30T14:34:24.012Z</time></trkpt><trkpt lat="42.0304446" lon="4.1686175"><ele>0.0</ele><time>2026-04-30T14:34:25.013Z</time></trkpt><trkpt lat="42.030481" lon="4.1687226"><ele>0.0</ele><time>2026-04-30T14:34:26.012Z</time></trkpt><trkpt lat="42.0305637" lon="4.1689246"><ele>0.0</ele><time>2026-04-30T14:34:28.012Z</time></trkpt><trkpt lat="42.0306112" lon="4.1690265"><ele>0.0</ele><time>2026-04-30T14:34:29.012Z</time></trkpt><trkpt lat="42.0306564" lon="4.169124"><ele>0.0</ele><time>2026-04-30T14:34:30.013Z</time></trkpt><trkpt lat="42.03069" lon="4.1692277"><ele>0.0</ele><time>2026-04-30T14:34:31.012Z</time></trkpt><trkpt lat="42.0307278" lon="4.1693343"><ele>0.0</ele><time>2026-04-30T14:34:32.012Z</time></trkpt><trkpt lat="42.0307702" lon="4.1694384"><ele>0.0</ele><time>2026-04-30T14:34:33.012Z</time></trkpt><trkpt lat="42.0308178" lon="4.1695414"><ele>0.0</ele><time>2026-04-30T14:34:34.013Z</time></trkpt><trkpt lat="42.0308587" lon="4.1696467"><ele>0.0</ele><time>2026-04-30T14:34:35.013Z</time></trkpt><trkpt lat="42.0308894" lon="4.1697376"><ele>0.0</ele><time>2026-04-30T14:34:36.012Z</time></trkpt><trkpt lat="42.0309249" lon="4.1698469"><ele>0.0</ele><time>2026-04-30T14:34:37.012Z</time></trkpt><trkpt lat="42.0309617" lon="4.1699575"><ele>0.0</ele><time>2026-04-30T14:34:38.012Z</time></trkpt><trkpt lat="42.0310011" lon="4.1700635"><ele>0.0</ele><time>2026-04-30T14:34:39.013Z</time></trkpt><trkpt lat="42.0310412" lon="4.1701725"><ele>0.0</ele><time>2026-04-30T14:34:40.013Z</time></trkpt><trkpt lat="42.0310783" lon="4.1702812"><ele>0.0</ele><time>2026-04-30T14:34:41.012Z</time></trkpt><trkpt lat="42.0311203" lon="4.1703806"><ele>0.0</ele><time>2026-04-30T14:34:42.012Z</time></trkpt><trkpt lat="42.0311611" lon="4.1704806"><ele>0.0</ele><time>2026-04-30T14:34:43.012Z</time></trkpt><trkpt lat="42.0311928" lon="4.1705836"><ele>0.0</ele><time>2026-04-30T14:34:44.013Z</time></trkpt><trkpt lat="42.031221" lon="4.1706858"><ele>0.0</ele><time>2026-04-30T14:34:45.012Z</time></trkpt><trkpt lat="42.031252" lon="4.1707928"><ele>0.0</ele><time>2026-04-30T14:34:46.013Z</time></trkpt><trkpt lat="42.0312825" lon="4.1708969"><ele>0.0</ele><time>2026-04-30T14:34:47.013Z</time></trkpt><trkpt lat="42.0313601" lon="4.1710958"><ele>0.0</ele><time>2026-04-30T14:34:49.012Z</time></trkpt><trkpt lat="42.0314054" lon="4.1712016"><ele>0.0</ele><time>2026-04-30T14:34:50.012Z</time></trkpt><trkpt lat="42.0314464" lon="4.1713081"><ele>0.0</ele><time>2026-04-30T14:34:51.012Z</time></trkpt><trkpt lat="42.0314906" lon="4.1714089"><ele>0.0</ele><time>2026-04-30T14:34:52.012Z</time></trkpt><trkpt lat="42.0315269" lon="4.1715133"><ele>0.0</ele><time>2026-04-30T14:34:53.012Z</time></trkpt><trkpt lat="42.0315698" lon="4.1716198"><ele>0.0</ele><time>2026-04-30T14:34:54.013Z</time></trkpt><trkpt lat="42.0316139" lon="4.1717294"><ele>0.0</ele><time>2026-04-30T14:34:55.013Z</time></trkpt><trkpt lat="42.0316574" lon="4.1718309"><ele>0.0</ele><time>2026-04-30T14:34:56.013Z</time></trkpt><trkpt lat="42.0317006" lon="4.1719348"><ele>0.0</ele><time>2026-04-30T14:34:57.013Z</time></trkpt><trkpt lat="42.0317451" lon="4.1720424"><ele>0.0</ele><time>2026-04-30T14:34:58.012Z</time></trkpt><trkpt lat="42.0317849" lon="4.1721494"><ele>0.0</ele><time>2026-04-30T14:34:59.012Z</time></trkpt><trkpt lat="42.0318176" lon="4.1722562"><ele>0.0</ele><time>2026-04-30T14:35:00.013Z</time></trkpt><trkpt lat="42.0318519" lon="4.1723575"><ele>0.0</ele><time>2026-04-30T14:35:01.012Z</time></trkpt><trkpt lat="42.0319206" lon="4.1725654"><ele>0.0</ele><time>2026-04-30T14:35:03.012Z</time></trkpt><trkpt lat="42.0320038" lon="4.1727697"><ele>0.0</ele><time>2026-04-30T14:35:05.012Z</time></trkpt><trkpt lat="42.0320528" lon="4.1728771"><ele>0.0</ele><time>2026-04-30T14:35:06.013Z</time></trkpt><trkpt lat="42.0320916" lon="4.1729832"><ele>0.0</ele><time>2026-04-30T14:35:07.013Z</time></trkpt><trkpt lat="42.0321257" lon="4.1730969"><ele>0.0</ele><time>2026-04-30T14:35:08.012Z</time></trkpt><trkpt lat="42.0322055" lon="4.1733147"><ele>0.0</ele><time>2026-04-30T14:35:10.013Z</time></trkpt><trkpt lat="42.0322461" lon="4.1734197"><ele>0.0</ele><time>2026-04-30T14:35:11.013Z</time></trkpt><trkpt lat="42.0322933" lon="4.1735286"><ele>0.0</ele><time>2026-04-30T14:35:12.012Z</time></trkpt><trkpt lat="42.0323287" lon="4.1736303"><ele>0.0</ele><time>2026-04-30T14:35:13.012Z</time></trkpt><trkpt lat="42.0323666" lon="4.1737349"><ele>0.0</ele><time>2026-04-30T14:35:14.012Z</time></trkpt><trkpt lat="42.032395" lon="4.1738315"><ele>0.0</ele><time>2026-04-30T14:35:15.012Z</time></trkpt><trkpt lat="42.0324315" lon="4.1739249"><ele>0.0</ele><time>2026-04-30T14:35:16.012Z</time></trkpt><trkpt lat="42.0324669" lon="4.174035"><ele>0.0</ele><time>2026-04-30T14:35:17.012Z</time></trkpt><trkpt lat="42.0325021" lon="4.1741369"><ele>0.0</ele><time>2026-04-30T14:35:18.013Z</time></trkpt><trkpt lat="42.0325416" lon="4.1742399"><ele>0.0</ele><time>2026-04-30T14:35:19.013Z</time></trkpt><trkpt lat="42.0325944" lon="4.1743375"><ele>0.0</ele><time>2026-04-30T14:35:20.012Z</time></trkpt><trkpt lat="42.0326393" lon="4.1744438"><ele>0.0</ele><time>2026-04-30T14:35:21.012Z</time></trkpt><trkpt lat="42.0326683" lon="4.1745481"><ele>0.0</ele><time>2026-04-30T14:35:22.012Z</time></trkpt><trkpt lat="42.0327036" lon="4.1746534"><ele>0.0</ele><time>2026-04-30T14:35:23.013Z</time></trkpt><trkpt lat="42.0327428" lon="4.1747569"><ele>0.0</ele><time>2026-04-30T14:35:24.013Z</time></trkpt><trkpt lat="42.0327689" lon="4.1748631"><ele>0.0</ele><time>2026-04-30T14:35:25.013Z</time></trkpt><trkpt lat="42.0328139" lon="4.1749638"><ele>0.0</ele><time>2026-04-30T14:35:26.013Z</time></trkpt><trkpt lat="42.0328495" lon="4.1750695"><ele>0.0</ele><time>2026-04-30T14:35:27.013Z</time></trkpt><trkpt lat="42.0328814" lon="4.1751706"><ele>0.0</ele><time>2026-04-30T14:35:28.013Z</time></trkpt><trkpt lat="42.0329144" lon="4.1752677"><ele>0.0</ele><time>2026-04-30T14:35:29.012Z</time></trkpt><trkpt lat="42.0329869" lon="4.1754821"><ele>0.0</ele><time>2026-04-30T14:35:31.012Z</time></trkpt><trkpt lat="42.0330227" lon="4.1755876"><ele>0.0</ele><time>2026-04-30T14:35:32.012Z</time></trkpt><trkpt lat="42.0330663" lon="4.1756925"><ele>0.0</ele><time>2026-04-30T14:35:33.013Z</time></trkpt><trkpt lat="42.0331129" lon="4.1757961"><ele>0.0</ele><time>2026-04-30T14:35:34.012Z</time></trkpt><trkpt lat="42.0332278" lon="4.1760983"><ele>0.0</ele><time>2026-04-30T14:35:37.013Z</time></trkpt><trkpt lat="42.0332605" lon="4.1762029"><ele>0.0</ele><time>2026-04-30T14:35:38.012Z</time></trkpt><trkpt lat="42.0332881" lon="4.1763093"><ele>0.0</ele><time>2026-04-30T14:35:39.012Z</time></trkpt><trkpt lat="42.0333173" lon="4.1764131"><ele>0.0</ele><time>2026-04-30T14:35:40.012Z</time></trkpt><trkpt lat="42.033353" lon="4.176518"><ele>0.0</ele><time>2026-04-30T14:35:41.012Z</time></trkpt><trkpt lat="42.0333859" lon="4.1766219"><ele>0.0</ele><time>2026-04-30T14:35:42.013Z</time></trkpt><trkpt lat="42.0334247" lon="4.1767235"><ele>0.0</ele><time>2026-04-30T14:35:43.012Z</time></trkpt><trkpt lat="42.0334645" lon="4.1768294"><ele>0.0</ele><time>2026-04-30T14:35:44.013Z</time></trkpt><trkpt lat="42.0335088" lon="4.1769318"><ele>0.0</ele><time>2026-04-30T14:35:45.013Z</time></trkpt><trkpt lat="42.0335496" lon="4.1770349"><ele>0.0</ele><time>2026-04-30T14:35:46.012Z</time></trkpt><trkpt lat="42.0335882" lon="4.1771471"><ele>0.0</ele><time>2026-04-30T14:35:47.013Z</time></trkpt><trkpt lat="42.0336223" lon="4.1772515"><ele>0.0</ele><time>2026-04-30T14:35:48.012Z</time></trkpt><trkpt lat="42.0336556" lon="4.1773567"><ele>0.0</ele><time>2026-04-30T14:35:49.012Z</time></trkpt><trkpt lat="42.0336902" lon="4.1774692"><ele>0.0</ele><time>2026-04-30T14:35:50.012Z</time></trkpt><trkpt lat="42.0337557" lon="4.177683"><ele>0.0</ele><time>2026-04-30T14:35:52.013Z</time></trkpt><trkpt lat="42.0337899" lon="4.1777857"><ele>0.0</ele><time>2026-04-30T14:35:53.013Z</time></trkpt><trkpt lat="42.0338248" lon="4.1778861"><ele>0.0</ele><time>2026-04-30T14:35:54.013Z</time></trkpt><trkpt lat="42.0338545" lon="4.1779945"><ele>0.0</ele><time>2026-04-30T14:35:55.013Z</time></trkpt><trkpt lat="42.0338893" lon="4.1781045"><ele>0.0</ele><time>2026-04-30T14:35:56.012Z</time></trkpt><trkpt lat="42.0339262" lon="4.1782133"><ele>0.0</ele><time>2026-04-30T14:35:57.012Z</time></trkpt><trkpt lat="42.0339585" lon="4.1783213"><ele>0.0</ele><time>2026-04-30T14:35:58.013Z</time></trkpt><trkpt lat="42.0339933" lon="4.1784295"><ele>0.0</ele><time>2026-04-30T14:35:59.013Z</time></trkpt><trkpt lat="42.0340309" lon="4.1785293"><ele>0.0</ele><time>2026-04-30T14:36:00.012Z</time></trkpt><trkpt lat="42.0340667" lon="4.1786304"><ele>0.0</ele><time>2026-04-30T14:36:01.013Z</time></trkpt><trkpt lat="42.0341103" lon="4.1787362"><ele>0.0</ele><time>2026-04-30T14:36:02.012Z</time></trkpt><trkpt lat="42.0341623" lon="4.1788375"><ele>0.0</ele><time>2026-04-30T14:36:03.013Z</time></trkpt><trkpt lat="42.0341985" lon="4.1789388"><ele>0.0</ele><time>2026-04-30T14:36:04.013Z</time></trkpt><trkpt lat="42.0342365" lon="4.179033"><ele>0.0</ele><time>2026-04-30T14:36:05.012Z</time></trkpt><trkpt lat="42.0342764" lon="4.1791405"><ele>0.0</ele><time>2026-04-30T14:36:06.013Z</time></trkpt><trkpt lat="42.0343138" lon="4.1792537"><ele>0.0</ele><time>2026-04-30T14:36:07.012Z</time></trkpt><trkpt lat="42.0343859" lon="4.1794642"><ele>0.0</ele><time>2026-04-30T14:36:09.013Z</time></trkpt><trkpt lat="42.034464" lon="4.1796779"><ele>0.0</ele><time>2026-04-30T14:36:11.012Z</time></trkpt><trkpt lat="42.0345461" lon="4.1798902"><ele>0.0</ele><time>2026-04-30T14:36:13.013Z</time></trkpt><trkpt lat="42.0345864" lon="4.1799895"><ele>0.0</ele><time>2026-04-30T14:36:14.013Z</time></trkpt><trkpt lat="42.0346277" lon="4.1800906"><ele>0.0</ele><time>2026-04-30T14:36:15.012Z</time></trkpt><trkpt lat="42.0346682" lon="4.1801862"><ele>0.0</ele><time>2026-04-30T14:36:16.013Z</time></trkpt><trkpt lat="42.0346996" lon="4.1802826"><ele>0.0</ele><time>2026-04-30T14:36:17.012Z</time></trkpt><trkpt lat="42.0347508" lon="4.1803823"><ele>0.0</ele><time>2026-04-30T14:36:18.013Z</time></trkpt><trkpt lat="42.0347969" lon="4.1804895"><ele>0.0</ele><time>2026-04-30T14:36:19.013Z</time></trkpt><trkpt lat="42.0348367" lon="4.1805992"><ele>0.0</ele><time>2026-04-30T14:36:20.012Z</time></trkpt><trkpt lat="42.034878" lon="4.1807044"><ele>0.0</ele><time>2026-04-30T14:36:21.013Z</time></trkpt><trkpt lat="42.0349138" lon="4.1808067"><ele>0.0</ele><time>2026-04-30T14:36:22.013Z</time></trkpt><trkpt lat="42.0349505" lon="4.1809096"><ele>0.0</ele><time>2026-04-30T14:36:23.012Z</time></trkpt><trkpt lat="42.0349896" lon="4.1810191"><ele>0.0</ele><time>2026-04-30T14:36:24.013Z</time></trkpt><trkpt lat="42.0350184" lon="4.1811302"><ele>0.0</ele><time>2026-04-30T14:36:25.013Z</time></trkpt><trkpt lat="42.0350381" lon="4.1812367"><ele>0.0</ele><time>2026-04-30T14:36:26.012Z</time></trkpt><trkpt lat="42.0350735" lon="4.1813402"><ele>0.0</ele><time>2026-04-30T14:36:27.012Z</time></trkpt><trkpt lat="42.0351086" lon="4.1814433"><ele>0.0</ele><time>2026-04-30T14:36:28.013Z</time></trkpt><trkpt lat="42.0351535" lon="4.1815496"><ele>0.0</ele><time>2026-04-30T14:36:29.013Z</time></trkpt><trkpt lat="42.0352017" lon="4.1816492"><ele>0.0</ele><time>2026-04-30T14:36:30.013Z</time></trkpt><trkpt lat="42.0352638" lon="4.1817535"><ele>0.0</ele><time>2026-04-30T14:36:31.012Z</time></trkpt><trkpt lat="42.0353091" lon="4.1818494"><ele>0.0</ele><time>2026-04-30T14:36:32.013Z</time></trkpt><trkpt lat="42.03538" lon="4.1820486"><ele>0.0</ele><time>2026-04-30T14:36:34.013Z</time></trkpt><trkpt lat="42.0354199" lon="4.1821475"><ele>0.0</ele><time>2026-04-30T14:36:35.012Z</time></trkpt><trkpt lat="42.0354448" lon="4.1822529"><ele>0.0</ele><time>2026-04-30T14:36:36.012Z</time></trkpt><trkpt lat="42.0354792" lon="4.1823537"><ele>0.0</ele><time>2026-04-30T14:36:37.012Z</time></trkpt><trkpt lat="42.0355042" lon="4.1824523"><ele>0.0</ele><time>2026-04-30T14:36:38.013Z</time></trkpt><trkpt lat="42.0355418" lon="4.1825549"><ele>0.0</ele><time>2026-04-30T14:36:39.013Z</time></trkpt><trkpt lat="42.0356837" lon="4.1828827"><ele>0.0</ele><time>2026-04-30T14:36:42.012Z</time></trkpt><trkpt lat="42.0357318" lon="4.1829835"><ele>0.0</ele><time>2026-04-30T14:36:43.013Z</time></trkpt><trkpt lat="42.0357819" lon="4.1830824"><ele>0.0</ele><time>2026-04-30T14:36:44.013Z</time></trkpt><trkpt lat="42.0358219" lon="4.1831839"><ele>0.0</ele><time>2026-04-30T14:36:45.012Z</time></trkpt><trkpt lat="42.0358572" lon="4.183287"><ele>0.0</ele><time>2026-04-30T14:36:46.013Z</time></trkpt><trkpt lat="42.0358936" lon="4.1833954"><ele>0.0</ele><time>2026-04-30T14:36:47.012Z</time></trkpt><trkpt lat="42.0359322" lon="4.1835015"><ele>0.0</ele><time>2026-04-30T14:36:48.013Z</time></trkpt><trkpt lat="42.0359741" lon="4.1836082"><ele>0.0</ele><time>2026-04-30T14:36:49.012Z</time></trkpt><trkpt lat="42.0360284" lon="4.1837131"><ele>0.0</ele><time>2026-04-30T14:36:50.012Z</time></trkpt><trkpt lat="42.0360696" lon="4.1838139"><ele>0.0</ele><time>2026-04-30T14:36:51.013Z</time></trkpt><trkpt lat="42.0361113" lon="4.183914"><ele>0.0</ele><time>2026-04-30T14:36:52.012Z</time></trkpt><trkpt lat="42.0361443" lon="4.1840136"><ele>0.0</ele><time>2026-04-30T14:36:53.013Z</time></trkpt><trkpt lat="42.0362109" lon="4.184228"><ele>0.0</ele><time>2026-04-30T14:36:55.012Z</time></trkpt><trkpt lat="42.0362427" lon="4.1843357"><ele>0.0</ele><time>2026-04-30T14:36:56.012Z</time></trkpt><trkpt lat="42.0362673" lon="4.1844415"><ele>0.0</ele><time>2026-04-30T14:36:57.012Z</time></trkpt><trkpt lat="42.0362876" lon="4.1845479"><ele>0.0</ele><time>2026-04-30T14:36:58.012Z</time></trkpt><trkpt lat="42.0363203" lon="4.1846476"><ele>0.0</ele><time>2026-04-30T14:36:59.012Z</time></trkpt><trkpt lat="42.0363427" lon="4.1847515"><ele>0.0</ele><time>2026-04-30T14:37:00.013Z</time></trkpt><trkpt lat="42.0363771" lon="4.1848566"><ele>0.0</ele><time>2026-04-30T14:37:01.012Z</time></trkpt><trkpt lat="42.036409" lon="4.1849621"><ele>0.0</ele><time>2026-04-30T14:37:02.013Z</time></trkpt><trkpt lat="42.0364455" lon="4.1850679"><ele>0.0</ele><time>2026-04-30T14:37:03.013Z</time></trkpt><trkpt lat="42.0364881" lon="4.1851719"><ele>0.0</ele><time>2026-04-30T14:37:04.012Z</time></trkpt><trkpt lat="42.0365311" lon="4.1852752"><ele>0.0</ele><time>2026-04-30T14:37:05.012Z</time></trkpt><trkpt lat="42.0365789" lon="4.1853824"><ele>0.0</ele><time>2026-04-30T14:37:06.013Z</time></trkpt><trkpt lat="42.0366157" lon="4.1854809"><ele>0.0</ele><time>2026-04-30T14:37:07.012Z</time></trkpt><trkpt lat="42.036649" lon="4.1855867"><ele>0.0</ele><time>2026-04-30T14:37:08.012Z</time></trkpt><trkpt lat="42.0366792" lon="4.1856903"><ele>0.0</ele><time>2026-04-30T14:37:09.013Z</time></trkpt><trkpt lat="42.0367193" lon="4.1857935"><ele>0.0</ele><time>2026-04-30T14:37:10.013Z</time></trkpt><trkpt lat="42.0367664" lon="4.1858984"><ele>0.0</ele><time>2026-04-30T14:37:11.013Z</time></trkpt><trkpt lat="42.0368081" lon="4.1860044"><ele>0.0</ele><time>2026-04-30T14:37:12.012Z</time></trkpt><trkpt lat="42.0369719" lon="4.1864222"><ele>0.0</ele><time>2026-04-30T14:37:16.012Z</time></trkpt><trkpt lat="42.0370081" lon="4.1865264"><ele>0.0</ele><time>2026-04-30T14:37:17.013Z</time></trkpt><trkpt lat="42.0370439" lon="4.1866256"><ele>0.0</ele><time>2026-04-30T14:37:18.012Z</time></trkpt><trkpt lat="42.0370764" lon="4.186724"><ele>0.0</ele><time>2026-04-30T14:37:19.012Z</time></trkpt><trkpt lat="42.0371109" lon="4.186827"><ele>0.0</ele><time>2026-04-30T14:37:20.013Z</time></trkpt><trkpt lat="42.0371472" lon="4.186933"><ele>0.0</ele><time>2026-04-30T14:37:21.012Z</time></trkpt><trkpt lat="42.0371819" lon="4.1870427"><ele>0.0</ele><time>2026-04-30T14:37:22.012Z</time></trkpt><trkpt lat="42.0372201" lon="4.1871467"><ele>0.0</ele><time>2026-04-30T14:37:23.012Z</time></trkpt><trkpt lat="42.0372665" lon="4.1872588"><ele>0.0</ele><time>2026-04-30T14:37:24.012Z</time></trkpt><trkpt lat="42.037314" lon="4.1873617"><ele>0.0</ele><time>2026-04-30T14:37:25.012Z</time></trkpt><trkpt lat="42.0373619" lon="4.1874619"><ele>0.0</ele><time>2026-04-30T14:37:26.012Z</time></trkpt><trkpt lat="42.0374089" lon="4.1875673"><ele>0.0</ele><time>2026-04-30T14:37:27.013Z</time></trkpt><trkpt lat="42.0374584" lon="4.1876673"><ele>0.0</ele><time>2026-04-30T14:37:28.013Z</time></trkpt><trkpt lat="42.037507" lon="4.1877713"><ele>0.0</ele><time>2026-04-30T14:37:29.013Z</time></trkpt><trkpt lat="42.037547" lon="4.1878732"><ele>0.0</ele><time>2026-04-30T14:37:30.013Z</time></trkpt><trkpt lat="42.0375771" lon="4.1879754"><ele>0.0</ele><time>2026-04-30T14:37:31.013Z</time></trkpt><trkpt lat="42.037611" lon="4.1880785"><ele>0.0</ele><time>2026-04-30T14:37:32.013Z</time></trkpt><trkpt lat="42.0376484" lon="4.1881848"><ele>0.0</ele><time>2026-04-30T14:37:33.013Z</time></trkpt><trkpt lat="42.0376839" lon="4.1882911"><ele>0.0</ele><time>2026-04-30T14:37:34.012Z</time></trkpt><trkpt lat="42.0377186" lon="4.1883994"><ele>0.0</ele><time>2026-04-30T14:37:35.012Z</time></trkpt><trkpt lat="42.0377914" lon="4.1886052"><ele>0.0</ele><time>2026-04-30T14:37:37.012Z</time></trkpt><trkpt lat="42.0378328" lon="4.1887112"><ele>0.0</ele><time>2026-04-30T14:37:38.012Z</time></trkpt><trkpt lat="42.0378649" lon="4.1888177"><ele>0.0</ele><time>2026-04-30T14:37:39.012Z</time></trkpt><trkpt lat="42.0378961" lon="4.1889214"><ele>0.0</ele><time>2026-04-30T14:37:40.012Z</time></trkpt><trkpt lat="42.0379361" lon="4.189028"><ele>0.0</ele><time>2026-04-30T14:37:41.013Z</time></trkpt><trkpt lat="42.0379777" lon="4.1891277"><ele>0.0</ele><time>2026-04-30T14:37:42.013Z</time></trkpt><trkpt lat="42.0380165" lon="4.1892233"><ele>0.0</ele><time>2026-04-30T14:37:43.012Z</time></trkpt><trkpt lat="42.0380535" lon="4.1893299"><ele>0.0</ele><time>2026-04-30T14:37:44.013Z</time></trkpt><trkpt lat="42.0380805" lon="4.189441"><ele>0.0</ele><time>2026-04-30T14:37:45.013Z</time></trkpt><trkpt lat="42.0381637" lon="4.1896499"><ele>0.0</ele><time>2026-04-30T14:37:47.013Z</time></trkpt><trkpt lat="42.0382295" lon="4.18987"><ele>0.0</ele><time>2026-04-30T14:37:49.013Z</time></trkpt><trkpt lat="42.0382691" lon="4.1899728"><ele>0.0</ele><time>2026-04-30T14:37:50.013Z</time></trkpt><trkpt lat="42.0383139" lon="4.1900758"><ele>0.0</ele><time>2026-04-30T14:37:51.013Z</time></trkpt><trkpt lat="42.038352" lon="4.1901801"><ele>0.0</ele><time>2026-04-30T14:37:52.012Z</time></trkpt><trkpt lat="42.0383934" lon="4.1902819"><ele>0.0</ele><time>2026-04-30T14:37:53.012Z</time></trkpt><trkpt lat="42.0384323" lon="4.1903878"><ele>0.0</ele><time>2026-04-30T14:37:54.013Z</time></trkpt><trkpt lat="42.0384675" lon="4.1904916"><ele>0.0</ele><time>2026-04-30T14:37:55.013Z</time></trkpt><trkpt lat="42.0384997" lon="4.1905962"><ele>0.0</ele><time>2026-04-30T14:37:56.012Z</time></trkpt><trkpt lat="42.0385763" lon="4.1907998"><ele>0.0</ele><time>2026-04-30T14:37:58.013Z</time></trkpt><trkpt lat="42.0386191" lon="4.1909048"><ele>0.0</ele><time>2026-04-30T14:37:59.012Z</time></trkpt><trkpt lat="42.0386597" lon="4.1910112"><ele>0.0</ele><time>2026-04-30T14:38:00.013Z</time></trkpt><trkpt lat="42.0387013" lon="4.1911155"><ele>0.0</ele><time>2026-04-30T14:38:01.013Z</time></trkpt><trkpt lat="42.0387446" lon="4.1912187"><ele>0.0</ele><time>2026-04-30T14:38:02.012Z</time></trkpt><trkpt lat="42.038783" lon="4.1913264"><ele>0.0</ele><time>2026-04-30T14:38:03.012Z</time></trkpt><trkpt lat="42.038814" lon="4.1914233"><ele>0.0</ele><time>2026-04-30T14:38:04.013Z</time></trkpt><trkpt lat="42.0388491" lon="4.1915182"><ele>0.0</ele><time>2026-04-30T14:38:05.012Z</time></trkpt><trkpt lat="42.0388907" lon="4.191622"><ele>0.0</ele><time>2026-04-30T14:38:06.013Z</time></trkpt><trkpt lat="42.0389328" lon="4.1917267"><ele>0.0</ele><time>2026-04-30T14:38:07.012Z</time></trkpt><trkpt lat="42.0389758" lon="4.1918316"><ele>0.0</ele><time>2026-04-30T14:38:08.012Z</time></trkpt><trkpt lat="42.0390165" lon="4.191931"><ele>0.0</ele><time>2026-04-30T14:38:09.013Z</time></trkpt><trkpt lat="42.0390595" lon="4.1920332"><ele>0.0</ele><time>2026-04-30T14:38:10.012Z</time></trkpt><trkpt lat="42.0391001" lon="4.192132"><ele>0.0</ele><time>2026-04-30T14:38:11.013Z</time></trkpt><trkpt lat="42.0391344" lon="4.1922362"><ele>0.0</ele><time>2026-04-30T14:38:12.011Z</time></trkpt><trkpt lat="42.039169" lon="4.1923504"><ele>0.0</ele><time>2026-04-30T14:38:13.011Z</time></trkpt><trkpt lat="42.039218" lon="4.1924436"><ele>0.0</ele><time>2026-04-30T14:38:14.011Z</time></trkpt><trkpt lat="42.0392452" lon="4.1925484"><ele>0.0</ele><time>2026-04-30T14:38:15.012Z</time></trkpt><trkpt lat="42.0392768" lon="4.1926576"><ele>0.0</ele><time>2026-04-30T14:38:16.011Z</time></trkpt><trkpt lat="42.0393143" lon="4.192769"><ele>0.0</ele><time>2026-04-30T14:38:17.011Z</time></trkpt><trkpt lat="42.0393473" lon="4.1928705"><ele>0.0</ele><time>2026-04-30T14:38:18.012Z</time></trkpt><trkpt lat="42.0394908" lon="4.1932906"><ele>0.0</ele><time>2026-04-30T14:38:22.012Z</time></trkpt><trkpt lat="42.0395252" lon="4.1933961"><ele>0.0</ele><time>2026-04-30T14:38:23.011Z</time></trkpt><trkpt lat="42.0395605" lon="4.1935029"><ele>0.0</ele><time>2026-04-30T14:38:24.011Z</time></trkpt><trkpt lat="42.0395998" lon="4.1936156"><ele>0.0</ele><time>2026-04-30T14:38:25.012Z</time></trkpt><trkpt lat="42.0396327" lon="4.193726"><ele>0.0</ele><time>2026-04-30T14:38:26.012Z</time></trkpt><trkpt lat="42.0396656" lon="4.1938301"><ele>0.0</ele><time>2026-04-30T14:38:27.012Z</time></trkpt><trkpt lat="42.0397032" lon="4.1939295"><ele>0.0</ele><time>2026-04-30T14:38:28.012Z</time></trkpt><trkpt lat="42.039733" lon="4.1940323"><ele>0.0</ele><time>2026-04-30T14:38:29.012Z</time></trkpt><trkpt lat="42.039774" lon="4.1941393"><ele>0.0</ele><time>2026-04-30T14:38:30.012Z</time></trkpt><trkpt lat="42.0398097" lon="4.1942461"><ele>0.0</ele><time>2026-04-30T14:38:31.011Z</time></trkpt><trkpt lat="42.0398559" lon="4.1943529"><ele>0.0</ele><time>2026-04-30T14:38:32.011Z</time></trkpt><trkpt lat="42.039902" lon="4.1944587"><ele>0.0</ele><time>2026-04-30T14:38:33.012Z</time></trkpt><trkpt lat="42.0399386" lon="4.1945634"><ele>0.0</ele><time>2026-04-30T14:38:34.011Z</time></trkpt><trkpt lat="42.0399748" lon="4.1946685"><ele>0.0</ele><time>2026-04-30T14:38:35.012Z</time></trkpt><trkpt lat="42.0400126" lon="4.1947736"><ele>0.0</ele><time>2026-04-30T14:38:36.011Z</time></trkpt><trkpt lat="42.0400536" lon="4.1948813"><ele>0.0</ele><time>2026-04-30T14:38:37.011Z</time></trkpt><trkpt lat="42.0400941" lon="4.1949869"><ele>0.0</ele><time>2026-04-30T14:38:38.012Z</time></trkpt><trkpt lat="42.0401315" lon="4.1950888"><ele>0.0</ele><time>2026-04-30T14:38:39.012Z</time></trkpt><trkpt lat="42.0401769" lon="4.1951892"><ele>0.0</ele><time>2026-04-30T14:38:40.011Z</time></trkpt><trkpt lat="42.0402172" lon="4.1952925"><ele>0.0</ele><time>2026-04-30T14:38:41.012Z</time></trkpt><trkpt lat="42.0402911" lon="4.1954952"><ele>0.0</ele><time>2026-04-30T14:38:43.011Z</time></trkpt><trkpt lat="42.0403382" lon="4.1955964"><ele>0.0</ele><time>2026-04-30T14:38:44.011Z</time></trkpt><trkpt lat="42.0403811" lon="4.1956995"><ele>0.0</ele><time>2026-04-30T14:38:45.011Z</time></trkpt><trkpt lat="42.0404187" lon="4.19581"><ele>0.0</ele><time>2026-04-30T14:38:46.012Z</time></trkpt><trkpt lat="42.04046" lon="4.1959213"><ele>0.0</ele><time>2026-04-30T14:38:47.011Z</time></trkpt><trkpt lat="42.0404926" lon="4.1960264"><ele>0.0</ele><time>2026-04-30T14:38:48.011Z</time></trkpt><trkpt lat="42.0405254" lon="4.196133"><ele>0.0</ele><time>2026-04-30T14:38:49.012Z</time></trkpt><trkpt lat="42.0405541" lon="4.196237"><ele>0.0</ele><time>2026-04-30T14:38:50.011Z</time></trkpt><trkpt lat="42.0405881" lon="4.1963435"><ele>0.0</ele><time>2026-04-30T14:38:51.012Z</time></trkpt><trkpt lat="42.0406698" lon="4.196555"><ele>0.0</ele><time>2026-04-30T14:38:53.011Z</time></trkpt><trkpt lat="42.0407446" lon="4.1967536"><ele>0.0</ele><time>2026-04-30T14:38:55.012Z</time></trkpt><trkpt lat="42.0407779" lon="4.1968552"><ele>0.0</ele><time>2026-04-30T14:38:56.012Z</time></trkpt><trkpt lat="42.0408134" lon="4.1969584"><ele>0.0</ele><time>2026-04-30T14:38:57.012Z</time></trkpt><trkpt lat="42.0408583" lon="4.1970606"><ele>0.0</ele><time>2026-04-30T14:38:58.012Z</time></trkpt><trkpt lat="42.0408883" lon="4.1971676"><ele>0.0</ele><time>2026-04-30T14:38:59.012Z</time></trkpt><trkpt lat="42.0409244" lon="4.1972715"><ele>0.0</ele><time>2026-04-30T14:39:00.012Z</time></trkpt><trkpt lat="42.0409566" lon="4.1973777"><ele>0.0</ele><time>2026-04-30T14:39:01.011Z</time></trkpt><trkpt lat="42.0409882" lon="4.1974812"><ele>0.0</ele><time>2026-04-30T14:39:02.012Z</time></trkpt><trkpt lat="42.0410454" lon="4.197688"><ele>0.0</ele><time>2026-04-30T14:39:04.011Z</time></trkpt><trkpt lat="42.0410745" lon="4.1977928"><ele>0.0</ele><time>2026-04-30T14:39:05.012Z</time></trkpt><trkpt lat="42.0410992" lon="4.1979005"><ele>0.0</ele><time>2026-04-30T14:39:06.011Z</time></trkpt><trkpt lat="42.0411386" lon="4.1979917"><ele>0.0</ele><time>2026-04-30T14:39:07.011Z</time></trkpt><trkpt lat="42.0411889" lon="4.198096"><ele>0.0</ele><time>2026-04-30T14:39:08.012Z</time></trkpt><trkpt lat="42.0412362" lon="4.1982"><ele>0.0</ele><time>2026-04-30T14:39:09.012Z</time></trkpt><trkpt lat="42.0412828" lon="4.1983032"><ele>0.0</ele><time>2026-04-30T14:39:10.011Z</time></trkpt><trkpt lat="42.0413263" lon="4.1984049"><ele>0.0</ele><time>2026-04-30T14:39:11.011Z</time></trkpt><trkpt lat="42.0413777" lon="4.1985096"><ele>0.0</ele><time>2026-04-30T14:39:12.011Z</time></trkpt><trkpt lat="42.0414237" lon="4.1986088"><ele>0.0</ele><time>2026-04-30T14:39:13.012Z</time></trkpt><trkpt lat="42.0414662" lon="4.1987157"><ele>0.0</ele><time>2026-04-30T14:39:14.011Z</time></trkpt><trkpt lat="42.0415089" lon="4.1988243"><ele>0.0</ele><time>2026-04-30T14:39:15.011Z</time></trkpt><trkpt lat="42.0415479" lon="4.1989328"><ele>0.0</ele><time>2026-04-30T14:39:16.011Z</time></trkpt><trkpt lat="42.0415874" lon="4.1990326"><ele>0.0</ele><time>2026-04-30T14:39:17.011Z</time></trkpt><trkpt lat="42.0416319" lon="4.1991368"><ele>0.0</ele><time>2026-04-30T14:39:18.012Z</time></trkpt><trkpt lat="42.041689" lon="4.1992415"><ele>0.0</ele><time>2026-04-30T14:39:19.011Z</time></trkpt><trkpt lat="42.0417351" lon="4.1993433"><ele>0.0</ele><time>2026-04-30T14:39:20.012Z</time></trkpt><trkpt lat="42.0417673" lon="4.1994505"><ele>0.0</ele><time>2026-04-30T14:39:21.011Z</time></trkpt><trkpt lat="42.0418039" lon="4.1995573"><ele>0.0</ele><time>2026-04-30T14:39:22.011Z</time></trkpt><trkpt lat="42.0418404" lon="4.1996585"><ele>0.0</ele><time>2026-04-30T14:39:23.012Z</time></trkpt><trkpt lat="42.0418826" lon="4.1997583"><ele>0.0</ele><time>2026-04-30T14:39:24.012Z</time></trkpt><trkpt lat="42.0419783" lon="4.200079"><ele>0.0</ele><time>2026-04-30T14:39:27.012Z</time></trkpt><trkpt lat="42.0420068" lon="4.2001829"><ele>0.0</ele><time>2026-04-30T14:39:28.011Z</time></trkpt><trkpt lat="42.0420408" lon="4.2002932"><ele>0.0</ele><time>2026-04-30T14:39:29.011Z</time></trkpt><trkpt lat="42.0420815" lon="4.2004019"><ele>0.0</ele><time>2026-04-30T14:39:30.011Z</time></trkpt><trkpt lat="42.0421205" lon="4.2005062"><ele>0.0</ele><time>2026-04-30T14:39:31.012Z</time></trkpt><trkpt lat="42.0421559" lon="4.2006112"><ele>0.0</ele><time>2026-04-30T14:39:32.011Z</time></trkpt><trkpt lat="42.0421896" lon="4.2007129"><ele>0.0</ele><time>2026-04-30T14:39:33.012Z</time></trkpt><trkpt lat="42.0422244" lon="4.2008189"><ele>0.0</ele><time>2026-04-30T14:39:34.011Z</time></trkpt><trkpt lat="42.042261" lon="4.2009168"><ele>0.0</ele><time>2026-04-30T14:39:35.011Z</time></trkpt><trkpt lat="42.0422852" lon="4.2010234"><ele>0.0</ele><time>2026-04-30T14:39:36.012Z</time></trkpt><trkpt lat="42.0423208" lon="4.2011263"><ele>0.0</ele><time>2026-04-30T14:39:37.012Z</time></trkpt><trkpt lat="42.0423588" lon="4.2012322"><ele>0.0</ele><time>2026-04-30T14:39:38.012Z</time></trkpt><trkpt lat="42.042397" lon="4.2013319"><ele>0.0</ele><time>2026-04-30T14:39:39.011Z</time></trkpt><trkpt lat="42.0424227" lon="4.2014419"><ele>0.0</ele><time>2026-04-30T14:39:40.011Z</time></trkpt><trkpt lat="42.0424473" lon="4.2015465"><ele>0.0</ele><time>2026-04-30T14:39:41.012Z</time></trkpt><trkpt lat="42.0424775" lon="4.2016516"><ele>0.0</ele><time>2026-04-30T14:39:42.012Z</time></trkpt><trkpt lat="42.0425146" lon="4.201758"><ele>0.0</ele><time>2026-04-30T14:39:43.011Z</time></trkpt><trkpt lat="42.0425543" lon="4.2018659"><ele>0.0</ele><time>2026-04-30T14:39:44.011Z</time></trkpt><trkpt lat="42.0425976" lon="4.2019736"><ele>0.0</ele><time>2026-04-30T14:39:45.012Z</time></trkpt><trkpt lat="42.0426367" lon="4.2020737"><ele>0.0</ele><time>2026-04-30T14:39:46.012Z</time></trkpt><trkpt lat="42.042675" lon="4.2021766"><ele>0.0</ele><time>2026-04-30T14:39:47.011Z</time></trkpt><trkpt lat="42.0427717" lon="4.2023856"><ele>0.0</ele><time>2026-04-30T14:39:49.011Z</time></trkpt><trkpt lat="42.0428155" lon="4.2024904"><ele>0.0</ele><time>2026-04-30T14:39:50.012Z</time></trkpt><trkpt lat="42.0428586" lon="4.2025956"><ele>0.0</ele><time>2026-04-30T14:39:51.011Z</time></trkpt><trkpt lat="42.0429032" lon="4.2026993"><ele>0.0</ele><time>2026-04-30T14:39:52.011Z</time></trkpt><trkpt lat="42.0429512" lon="4.2028044"><ele>0.0</ele><time>2026-04-30T14:39:53.012Z</time></trkpt><trkpt lat="42.0429943" lon="4.2029091"><ele>0.0</ele><time>2026-04-30T14:39:54.011Z</time></trkpt><trkpt lat="42.0430369" lon="4.2030173"><ele>0.0</ele><time>2026-04-30T14:39:55.011Z</time></trkpt><trkpt lat="42.0430745" lon="4.2031196"><ele>0.0</ele><time>2026-04-30T14:39:56.012Z</time></trkpt><trkpt lat="42.0431182" lon="4.2032197"><ele>0.0</ele><time>2026-04-30T14:39:57.012Z</time></trkpt><trkpt lat="42.043159" lon="4.2033182"><ele>0.0</ele><time>2026-04-30T14:39:58.011Z</time></trkpt><trkpt lat="42.0431977" lon="4.2034224"><ele>0.0</ele><time>2026-04-30T14:39:59.012Z</time></trkpt><trkpt lat="42.0432374" lon="4.2035276"><ele>0.0</ele><time>2026-04-30T14:40:00.011Z</time></trkpt><trkpt lat="42.0432775" lon="4.2036323"><ele>0.0</ele><time>2026-04-30T14:40:01.011Z</time></trkpt><trkpt lat="42.0433193" lon="4.2037389"><ele>0.0</ele><time>2026-04-30T14:40:02.012Z</time></trkpt><trkpt lat="42.0433593" lon="4.2038399"><ele>0.0</ele><time>2026-04-30T14:40:03.012Z</time></trkpt><trkpt lat="42.0433967" lon="4.2039454"><ele>0.0</ele><time>2026-04-30T14:40:04.011Z</time></trkpt><trkpt lat="42.0434362" lon="4.2040518"><ele>0.0</ele><time>2026-04-30T14:40:05.011Z</time></trkpt><trkpt lat="42.0434746" lon="4.2041572"><ele>0.0</ele><time>2026-04-30T14:40:06.011Z</time></trkpt><trkpt lat="42.0435117" lon="4.2042607"><ele>0.0</ele><time>2026-04-30T14:40:07.011Z</time></trkpt><trkpt lat="42.0435485" lon="4.2043636"><ele>0.0</ele><time>2026-04-30T14:40:08.011Z</time></trkpt><trkpt lat="42.0436199" lon="4.2045777"><ele>0.0</ele><time>2026-04-30T14:40:10.011Z</time></trkpt><trkpt lat="42.0436564" lon="4.2046818"><ele>0.0</ele><time>2026-04-30T14:40:11.011Z</time></trkpt><trkpt lat="42.0437003" lon="4.2047852"><ele>0.0</ele><time>2026-04-30T14:40:12.011Z</time></trkpt><trkpt lat="42.0437446" lon="4.2048881"><ele>0.0</ele><time>2026-04-30T14:40:13.012Z</time></trkpt><trkpt lat="42.0437797" lon="4.2049882"><ele>0.0</ele><time>2026-04-30T14:40:14.012Z</time></trkpt><trkpt lat="42.0438216" lon="4.205087"><ele>0.0</ele><time>2026-04-30T14:40:15.012Z</time></trkpt><trkpt lat="42.0438625" lon="4.2051906"><ele>0.0</ele><time>2026-04-30T14:40:16.011Z</time></trkpt><trkpt lat="42.043897" lon="4.2052911"><ele>0.0</ele><time>2026-04-30T14:40:17.012Z</time></trkpt><trkpt lat="42.0439073" lon="4.2054065"><ele>0.0</ele><time>2026-04-30T14:40:18.012Z</time></trkpt><trkpt lat="42.043947" lon="4.2055159"><ele>0.0</ele><time>2026-04-30T14:40:19.012Z</time></trkpt><trkpt lat="42.0439801" lon="4.2056264"><ele>0.0</ele><time>2026-04-30T14:40:20.012Z</time></trkpt><trkpt lat="42.0440111" lon="4.2057282"><ele>0.0</ele><time>2026-04-30T14:40:21.011Z</time></trkpt><trkpt lat="42.0440383" lon="4.2058338"><ele>0.0</ele><time>2026-04-30T14:40:22.012Z</time></trkpt><trkpt lat="42.0440681" lon="4.2059363"><ele>0.0</ele><time>2026-04-30T14:40:23.012Z</time></trkpt><trkpt lat="42.0441023" lon="4.2060435"><ele>0.0</ele><time>2026-04-30T14:40:24.011Z</time></trkpt><trkpt lat="42.0441417" lon="4.206149"><ele>0.0</ele><time>2026-04-30T14:40:25.011Z</time></trkpt><trkpt lat="42.0441862" lon="4.2062553"><ele>0.0</ele><time>2026-04-30T14:40:26.012Z</time></trkpt><trkpt lat="42.0442282" lon="4.2063635"><ele>0.0</ele><time>2026-04-30T14:40:27.011Z</time></trkpt><trkpt lat="42.0442648" lon="4.2064592"><ele>0.0</ele><time>2026-04-30T14:40:28.011Z</time></trkpt><trkpt lat="42.0443028" lon="4.2065589"><ele>0.0</ele><time>2026-04-30T14:40:29.012Z</time></trkpt><trkpt lat="42.0444091" lon="4.2068826"><ele>0.0</ele><time>2026-04-30T14:40:32.011Z</time></trkpt><trkpt lat="42.0444561" lon="4.2069859"><ele>0.0</ele><time>2026-04-30T14:40:33.012Z</time></trkpt><trkpt lat="42.0444702" lon="4.2070952"><ele>0.0</ele><time>2026-04-30T14:40:34.012Z</time></trkpt><trkpt lat="42.0445015" lon="4.2071998"><ele>0.0</ele><time>2026-04-30T14:40:35.011Z</time></trkpt><trkpt lat="42.0445428" lon="4.2073044"><ele>0.0</ele><time>2026-04-30T14:40:36.011Z</time></trkpt><trkpt lat="42.0445875" lon="4.2074123"><ele>0.0</ele><time>2026-04-30T14:40:37.012Z</time></trkpt><trkpt lat="42.0446286" lon="4.2075161"><ele>0.0</ele><time>2026-04-30T14:40:38.012Z</time></trkpt><trkpt lat="42.044664" lon="4.2076269"><ele>0.0</ele><time>2026-04-30T14:40:39.011Z</time></trkpt><trkpt lat="42.0446989" lon="4.2077332"><ele>0.0</ele><time>2026-04-30T14:40:40.011Z</time></trkpt><trkpt lat="42.0447325" lon="4.2078339"><ele>0.0</ele><time>2026-04-30T14:40:41.012Z</time></trkpt><trkpt lat="42.0447617" lon="4.2079336"><ele>0.0</ele><time>2026-04-30T14:40:42.012Z</time></trkpt><trkpt lat="42.0447957" lon="4.2080363"><ele>0.0</ele><time>2026-04-30T14:40:43.012Z</time></trkpt><trkpt lat="42.0448291" lon="4.2081437"><ele>0.0</ele><time>2026-04-30T14:40:44.012Z</time></trkpt><trkpt lat="42.0448698" lon="4.2082478"><ele>0.0</ele><time>2026-04-30T14:40:45.011Z</time></trkpt><trkpt lat="42.0449095" lon="4.2083584"><ele>0.0</ele><time>2026-04-30T14:40:46.011Z</time></trkpt><trkpt lat="42.0449486" lon="4.2084645"><ele>0.0</ele><time>2026-04-30T14:40:47.011Z</time></trkpt><trkpt lat="42.0449808" lon="4.2085758"><ele>0.0</ele><time>2026-04-30T14:40:48.012Z</time></trkpt><trkpt lat="42.0450167" lon="4.2086806"><ele>0.0</ele><time>2026-04-30T14:40:49.011Z</time></trkpt><trkpt lat="42.0450507" lon="4.2087752"><ele>0.0</ele><time>2026-04-30T14:40:50.012Z</time></trkpt><trkpt lat="42.0450868" lon="4.2088845"><ele>0.0</ele><time>2026-04-30T14:40:51.012Z</time></trkpt><trkpt lat="42.0451587" lon="4.2091032"><ele>0.0</ele><time>2026-04-30T14:40:53.012Z</time></trkpt><trkpt lat="42.0451932" lon="4.2092061"><ele>0.0</ele><time>2026-04-30T14:40:54.011Z</time></trkpt><trkpt lat="42.0452278" lon="4.209311"><ele>0.0</ele><time>2026-04-30T14:40:55.012Z</time></trkpt><trkpt lat="42.0452597" lon="4.2094154"><ele>0.0</ele><time>2026-04-30T14:40:56.012Z</time></trkpt><trkpt lat="42.0452939" lon="4.209515"><ele>0.0</ele><time>2026-04-30T14:40:57.011Z</time></trkpt><trkpt lat="42.0453302" lon="4.2096208"><ele>0.0</ele><time>2026-04-30T14:40:58.012Z</time></trkpt><trkpt lat="42.0453629" lon="4.2097264"><ele>0.0</ele><time>2026-04-30T14:40:59.011Z</time></trkpt><trkpt lat="42.0454004" lon="4.2098314"><ele>0.0</ele><time>2026-04-30T14:41:00.011Z</time></trkpt><trkpt lat="42.04544" lon="4.2099392"><ele>0.0</ele><time>2026-04-30T14:41:01.011Z</time></trkpt><trkpt lat="42.0455413" lon="4.2101362"><ele>0.0</ele><time>2026-04-30T14:41:03.012Z</time></trkpt><trkpt lat="42.0455824" lon="4.2102423"><ele>0.0</ele><time>2026-04-30T14:41:04.011Z</time></trkpt><trkpt lat="42.045617" lon="4.2103434"><ele>0.0</ele><time>2026-04-30T14:41:05.012Z</time></trkpt><trkpt lat="42.0456503" lon="4.2104472"><ele>0.0</ele><time>2026-04-30T14:41:06.011Z</time></trkpt><trkpt lat="42.0456826" lon="4.2105535"><ele>0.0</ele><time>2026-04-30T14:41:07.011Z</time></trkpt><trkpt lat="42.0457185" lon="4.2106586"><ele>0.0</ele><time>2026-04-30T14:41:08.012Z</time></trkpt><trkpt lat="42.0457565" lon="4.210765"><ele>0.0</ele><time>2026-04-30T14:41:09.011Z</time></trkpt><trkpt lat="42.0457966" lon="4.2108657"><ele>0.0</ele><time>2026-04-30T14:41:10.012Z</time></trkpt><trkpt lat="42.0458337" lon="4.2109715"><ele>0.0</ele><time>2026-04-30T14:41:11.012Z</time></trkpt><trkpt lat="42.0458758" lon="4.2110707"><ele>0.0</ele><time>2026-04-30T14:41:12.011Z</time></trkpt><trkpt lat="42.0459596" lon="4.2112719"><ele>0.0</ele><time>2026-04-30T14:41:14.011Z</time></trkpt><trkpt lat="42.046005" lon="4.2113791"><ele>0.0</ele><time>2026-04-30T14:41:15.011Z</time></trkpt><trkpt lat="42.0460512" lon="4.2114857"><ele>0.0</ele><time>2026-04-30T14:41:16.012Z</time></trkpt><trkpt lat="42.0460904" lon="4.2115923"><ele>0.0</ele><time>2026-04-30T14:41:17.012Z</time></trkpt><trkpt lat="42.0461273" lon="4.2116949"><ele>0.0</ele><time>2026-04-30T14:41:18.011Z</time></trkpt><trkpt lat="42.0461636" lon="4.211797"><ele>0.0</ele><time>2026-04-30T14:41:19.012Z</time></trkpt><trkpt lat="42.0462044" lon="4.2118916"><ele>0.0</ele><time>2026-04-30T14:41:20.012Z</time></trkpt><trkpt lat="42.0462488" lon="4.2119979"><ele>0.0</ele><time>2026-04-30T14:41:21.011Z</time></trkpt><trkpt lat="42.046291" lon="4.2120991"><ele>0.0</ele><time>2026-04-30T14:41:22.012Z</time></trkpt><trkpt lat="42.0463254" lon="4.2122034"><ele>0.0</ele><time>2026-04-30T14:41:23.012Z</time></trkpt><trkpt lat="42.0463544" lon="4.2123042"><ele>0.0</ele><time>2026-04-30T14:41:24.012Z</time></trkpt><trkpt lat="42.0463942" lon="4.2124188"><ele>0.0</ele><time>2026-04-30T14:41:25.011Z</time></trkpt><trkpt lat="42.0464348" lon="4.2125207"><ele>0.0</ele><time>2026-04-30T14:41:26.011Z</time></trkpt><trkpt lat="42.046476" lon="4.2126226"><ele>0.0</ele><time>2026-04-30T14:41:27.011Z</time></trkpt><trkpt lat="42.0465193" lon="4.2127225"><ele>0.0</ele><time>2026-04-30T14:41:28.011Z</time></trkpt><trkpt lat="42.0465624" lon="4.2128353"><ele>0.0</ele><time>2026-04-30T14:41:29.011Z</time></trkpt><trkpt lat="42.0466015" lon="4.2129372"><ele>0.0</ele><time>2026-04-30T14:41:30.012Z</time></trkpt><trkpt lat="42.0466404" lon="4.2130382"><ele>0.0</ele><time>2026-04-30T14:41:31.011Z</time></trkpt><trkpt lat="42.0466792" lon="4.2131479"><ele>0.0</ele><time>2026-04-30T14:41:32.011Z</time></trkpt><trkpt lat="42.0467172" lon="4.2132524"><ele>0.0</ele><time>2026-04-30T14:41:33.012Z</time></trkpt><trkpt lat="42.0467572" lon="4.2133587"><ele>0.0</ele><time>2026-04-30T14:41:34.011Z</time></trkpt><trkpt lat="42.046866" lon="4.2136688"><ele>0.0</ele><time>2026-04-30T14:41:37.011Z</time></trkpt><trkpt lat="42.0469025" lon="4.2137669"><ele>0.0</ele><time>2026-04-30T14:41:38.011Z</time></trkpt><trkpt lat="42.0469361" lon="4.2138606"><ele>0.0</ele><time>2026-04-30T14:41:39.011Z</time></trkpt><trkpt lat="42.0469735" lon="4.2139568"><ele>0.0</ele><time>2026-04-30T14:41:40.011Z</time></trkpt><trkpt lat="42.0470049" lon="4.2140592"><ele>0.0</ele><time>2026-04-30T14:41:41.012Z</time></trkpt><trkpt lat="42.0470432" lon="4.2141667"><ele>0.0</ele><time>2026-04-30T14:41:42.011Z</time></trkpt><trkpt lat="42.0470862" lon="4.2142763"><ele>0.0</ele><time>2026-04-30T14:41:43.012Z</time></trkpt><trkpt lat="42.047121" lon="4.214382"><ele>0.0</ele><time>2026-04-30T14:41:44.012Z</time></trkpt><trkpt lat="42.0471531" lon="4.2144845"><ele>0.0</ele><time>2026-04-30T14:41:45.011Z</time></trkpt><trkpt lat="42.0471833" lon="4.2145842"><ele>0.0</ele><time>2026-04-30T14:41:46.011Z</time></trkpt><trkpt lat="42.0472161" lon="4.2146946"><ele>0.0</ele><time>2026-04-30T14:41:47.011Z</time></trkpt><trkpt lat="42.0472508" lon="4.2148046"><ele>0.0</ele><time>2026-04-30T14:41:48.011Z</time></trkpt><trkpt lat="42.0472875" lon="4.2149077"><ele>0.0</ele><time>2026-04-30T14:41:49.011Z</time></trkpt><trkpt lat="42.0473245" lon="4.2150137"><ele>0.0</ele><time>2026-04-30T14:41:50.012Z</time></trkpt><trkpt lat="42.0473607" lon="4.215113"><ele>0.0</ele><time>2026-04-30T14:41:51.011Z</time></trkpt><trkpt lat="42.0473972" lon="4.2152203"><ele>0.0</ele><time>2026-04-30T14:41:52.012Z</time></trkpt><trkpt lat="42.0474352" lon="4.2153256"><ele>0.0</ele><time>2026-04-30T14:41:53.011Z</time></trkpt><trkpt lat="42.0474723" lon="4.2154339"><ele>0.0</ele><time>2026-04-30T14:41:54.011Z</time></trkpt><trkpt lat="42.0475089" lon="4.2155414"><ele>0.0</ele><time>2026-04-30T14:41:55.011Z</time></trkpt><trkpt lat="42.0475468" lon="4.215641"><ele>0.0</ele><time>2026-04-30T14:41:56.012Z</time></trkpt><trkpt lat="42.0475851" lon="4.2157463"><ele>0.0</ele><time>2026-04-30T14:41:57.011Z</time></trkpt><trkpt lat="42.0476623" lon="4.2159564"><ele>0.0</ele><time>2026-04-30T14:41:59.012Z</time></trkpt><trkpt lat="42.0477047" lon="4.2160622"><ele>0.0</ele><time>2026-04-30T14:42:00.012Z</time></trkpt><trkpt lat="42.0477493" lon="4.2161677"><ele>0.0</ele><time>2026-04-30T14:42:01.012Z</time></trkpt><trkpt lat="42.047787" lon="4.2162801"><ele>0.0</ele><time>2026-04-30T14:42:02.012Z</time></trkpt><trkpt lat="42.0478262" lon="4.2163816"><ele>0.0</ele><time>2026-04-30T14:42:03.012Z</time></trkpt><trkpt lat="42.0478664" lon="4.2164864"><ele>0.0</ele><time>2026-04-30T14:42:04.012Z</time></trkpt><trkpt lat="42.0479049" lon="4.2165917"><ele>0.0</ele><time>2026-04-30T14:42:05.011Z</time></trkpt><trkpt lat="42.0479457" lon="4.2167024"><ele>0.0</ele><time>2026-04-30T14:42:06.012Z</time></trkpt><trkpt lat="42.0479862" lon="4.2168102"><ele>0.0</ele><time>2026-04-30T14:42:07.011Z</time></trkpt><trkpt lat="42.048029" lon="4.2169169"><ele>0.0</ele><time>2026-04-30T14:42:08.012Z</time></trkpt><trkpt lat="42.0480717" lon="4.2170183"><ele>0.0</ele><time>2026-04-30T14:42:09.011Z</time></trkpt><trkpt lat="42.0481167" lon="4.2171255"><ele>0.0</ele><time>2026-04-30T14:42:10.012Z</time></trkpt><trkpt lat="42.048156" lon="4.2172311"><ele>0.0</ele><time>2026-04-30T14:42:11.011Z</time></trkpt><trkpt lat="42.048193" lon="4.2173377"><ele>0.0</ele><time>2026-04-30T14:42:12.011Z</time></trkpt><trkpt lat="42.0482254" lon="4.2174427"><ele>0.0</ele><time>2026-04-30T14:42:13.011Z</time></trkpt><trkpt lat="42.0482613" lon="4.2175449"><ele>0.0</ele><time>2026-04-30T14:42:14.012Z</time></trkpt><trkpt lat="42.0482918" lon="4.2176564"><ele>0.0</ele><time>2026-04-30T14:42:15.012Z</time></trkpt><trkpt lat="42.0483221" lon="4.2177634"><ele>0.0</ele><time>2026-04-30T14:42:16.012Z</time></trkpt><trkpt lat="42.0483596" lon="4.217873"><ele>0.0</ele><time>2026-04-30T14:42:17.012Z</time></trkpt><trkpt lat="42.0483922" lon="4.2179834"><ele>0.0</ele><time>2026-04-30T14:42:18.01Z</time></trkpt><trkpt lat="42.048467" lon="4.218188"><ele>0.0</ele><time>2026-04-30T14:42:20.011Z</time></trkpt><trkpt lat="42.0485002" lon="4.2182952"><ele>0.0</ele><time>2026-04-30T14:42:21.01Z</time></trkpt><trkpt lat="42.0485321" lon="4.2183992"><ele>0.0</ele><time>2026-04-30T14:42:22.011Z</time></trkpt><trkpt lat="42.0485638" lon="4.2184998"><ele>0.0</ele><time>2026-04-30T14:42:23.01Z</time></trkpt><trkpt lat="42.0486" lon="4.2186042"><ele>0.0</ele><time>2026-04-30T14:42:24.01Z</time></trkpt><trkpt lat="42.0486411" lon="4.2187063"><ele>0.0</ele><time>2026-04-30T14:42:25.01Z</time></trkpt><trkpt lat="42.0486803" lon="4.2188091"><ele>0.0</ele><time>2026-04-30T14:42:26.011Z</time></trkpt><trkpt lat="42.0487156" lon="4.218908"><ele>0.0</ele><time>2026-04-30T14:42:27.011Z</time></trkpt><trkpt lat="42.0487518" lon="4.2190106"><ele>0.0</ele><time>2026-04-30T14:42:28.011Z</time></trkpt><trkpt lat="42.0487902" lon="4.2191135"><ele>0.0</ele><time>2026-04-30T14:42:29.01Z</time></trkpt><trkpt lat="42.0488268" lon="4.2192222"><ele>0.0</ele><time>2026-04-30T14:42:30.011Z</time></trkpt><trkpt lat="42.0488638" lon="4.2193254"><ele>0.0</ele><time>2026-04-30T14:42:31.011Z</time></trkpt><trkpt lat="42.0488989" lon="4.2194316"><ele>0.0</ele><time>2026-04-30T14:42:32.011Z</time></trkpt><trkpt lat="42.0489379" lon="4.2195354"><ele>0.0</ele><time>2026-04-30T14:42:33.011Z</time></trkpt><trkpt lat="42.0489779" lon="4.2196356"><ele>0.0</ele><time>2026-04-30T14:42:34.01Z</time></trkpt><trkpt lat="42.0490193" lon="4.2197385"><ele>0.0</ele><time>2026-04-30T14:42:35.011Z</time></trkpt><trkpt lat="42.0490539" lon="4.219842"><ele>0.0</ele><time>2026-04-30T14:42:36.01Z</time></trkpt><trkpt lat="42.0490886" lon="4.2199452"><ele>0.0</ele><time>2026-04-30T14:42:37.01Z</time></trkpt><trkpt lat="42.0491291" lon="4.2200519"><ele>0.0</ele><time>2026-04-30T14:42:38.01Z</time></trkpt><trkpt lat="42.0492748" lon="4.2204555"><ele>0.0</ele><time>2026-04-30T14:42:42.01Z</time></trkpt><trkpt lat="42.0493092" lon="4.2205583"><ele>0.0</ele><time>2026-04-30T14:42:43.011Z</time></trkpt><trkpt lat="42.0493414" lon="4.2206658"><ele>0.0</ele><time>2026-04-30T14:42:44.01Z</time></trkpt><trkpt lat="42.0493741" lon="4.2207738"><ele>0.0</ele><time>2026-04-30T14:42:45.01Z</time></trkpt><trkpt lat="42.0494106" lon="4.220882"><ele>0.0</ele><time>2026-04-30T14:42:46.011Z</time></trkpt><trkpt lat="42.0494542" lon="4.2209793"><ele>0.0</ele><time>2026-04-30T14:42:47.01Z</time></trkpt><trkpt lat="42.0494976" lon="4.2210772"><ele>0.0</ele><time>2026-04-30T14:42:48.011Z</time></trkpt><trkpt lat="42.0495364" lon="4.2211799"><ele>0.0</ele><time>2026-04-30T14:42:49.01Z</time></trkpt><trkpt lat="42.0495776" lon="4.2212763"><ele>0.0</ele><time>2026-04-30T14:42:50.01Z</time></trkpt><trkpt lat="42.0496195" lon="4.2213773"><ele>0.0</ele><time>2026-04-30T14:42:51.01Z</time></trkpt><trkpt lat="42.0496539" lon="4.2214816"><ele>0.0</ele><time>2026-04-30T14:42:52.011Z</time></trkpt><trkpt lat="42.0496915" lon="4.221588"><ele>0.0</ele><time>2026-04-30T14:42:53.01Z</time></trkpt><trkpt lat="42.0497358" lon="4.2216973"><ele>0.0</ele><time>2026-04-30T14:42:54.01Z</time></trkpt><trkpt lat="42.0497766" lon="4.2218063"><ele>0.0</ele><time>2026-04-30T14:42:55.011Z</time></trkpt><trkpt lat="42.0498095" lon="4.2219087"><ele>0.0</ele><time>2026-04-30T14:42:56.01Z</time></trkpt><trkpt lat="42.0498438" lon="4.2220074"><ele>0.0</ele><time>2026-04-30T14:42:57.01Z</time></trkpt><trkpt lat="42.049883" lon="4.22211"><ele>0.0</ele><time>2026-04-30T14:42:58.01Z</time></trkpt><trkpt lat="42.0499258" lon="4.2222175"><ele>0.0</ele><time>2026-04-30T14:42:59.01Z</time></trkpt><trkpt lat="42.0499666" lon="4.22232"><ele>0.0</ele><time>2026-04-30T14:43:00.01Z</time></trkpt><trkpt lat="42.0500054" lon="4.222422"><ele>0.0</ele><time>2026-04-30T14:43:01.011Z</time></trkpt><trkpt lat="42.0500896" lon="4.2226341"><ele>0.0</ele><time>2026-04-30T14:43:03.01Z</time></trkpt><trkpt lat="42.0501299" lon="4.2227398"><ele>0.0</ele><time>2026-04-30T14:43:04.01Z</time></trkpt><trkpt lat="42.0501639" lon="4.2228432"><ele>0.0</ele><time>2026-04-30T14:43:05.01Z</time></trkpt><trkpt lat="42.0502044" lon="4.2229494"><ele>0.0</ele><time>2026-04-30T14:43:06.01Z</time></trkpt><trkpt lat="42.0502402" lon="4.2230592"><ele>0.0</ele><time>2026-04-30T14:43:07.01Z</time></trkpt><trkpt lat="42.0502813" lon="4.2231633"><ele>0.0</ele><time>2026-04-30T14:43:08.01Z</time></trkpt><trkpt lat="42.050323" lon="4.2232684"><ele>0.0</ele><time>2026-04-30T14:43:09.011Z</time></trkpt><trkpt lat="42.0503617" lon="4.2233707"><ele>0.0</ele><time>2026-04-30T14:43:10.01Z</time></trkpt><trkpt lat="42.0504027" lon="4.223475"><ele>0.0</ele><time>2026-04-30T14:43:11.01Z</time></trkpt><trkpt lat="42.0504781" lon="4.2236779"><ele>0.0</ele><time>2026-04-30T14:43:13.01Z</time></trkpt><trkpt lat="42.0505164" lon="4.2237813"><ele>0.0</ele><time>2026-04-30T14:43:14.01Z</time></trkpt><trkpt lat="42.0505605" lon="4.2238865"><ele>0.0</ele><time>2026-04-30T14:43:15.01Z</time></trkpt><trkpt lat="42.0506098" lon="4.2239904"><ele>0.0</ele><time>2026-04-30T14:43:16.01Z</time></trkpt><trkpt lat="42.0506529" lon="4.2240936"><ele>0.0</ele><time>2026-04-30T14:43:17.01Z</time></trkpt><trkpt lat="42.0506916" lon="4.224194"><ele>0.0</ele><time>2026-04-30T14:43:18.01Z</time></trkpt><trkpt lat="42.0507256" lon="4.2242995"><ele>0.0</ele><time>2026-04-30T14:43:19.011Z</time></trkpt><trkpt lat="42.0507588" lon="4.2244063"><ele>0.0</ele><time>2026-04-30T14:43:20.011Z</time></trkpt><trkpt lat="42.0507963" lon="4.2245117"><ele>0.0</ele><time>2026-04-30T14:43:21.01Z</time></trkpt><trkpt lat="42.0508317" lon="4.2246163"><ele>0.0</ele><time>2026-04-30T14:43:22.011Z</time></trkpt><trkpt lat="42.0508942" lon="4.2248295"><ele>0.0</ele><time>2026-04-30T14:43:24.01Z</time></trkpt><trkpt lat="42.0509276" lon="4.2249377"><ele>0.0</ele><time>2026-04-30T14:43:25.011Z</time></trkpt><trkpt lat="42.0510075" lon="4.2251532"><ele>0.0</ele><time>2026-04-30T14:43:27.01Z</time></trkpt><trkpt lat="42.0510501" lon="4.2252565"><ele>0.0</ele><time>2026-04-30T14:43:28.01Z</time></trkpt><trkpt lat="42.0510874" lon="4.2253586"><ele>0.0</ele><time>2026-04-30T14:43:29.01Z</time></trkpt><trkpt lat="42.0511238" lon="4.2254668"><ele>0.0</ele><time>2026-04-30T14:43:30.01Z</time></trkpt><trkpt lat="42.0511662" lon="4.2255715"><ele>0.0</ele><time>2026-04-30T14:43:31.01Z</time></trkpt><trkpt lat="42.0512435" lon="4.2257605"><ele>0.0</ele><time>2026-04-30T14:43:33.011Z</time></trkpt><trkpt lat="42.0512775" lon="4.2258576"><ele>0.0</ele><time>2026-04-30T14:43:34.01Z</time></trkpt><trkpt lat="42.0513125" lon="4.2259616"><ele>0.0</ele><time>2026-04-30T14:43:35.01Z</time></trkpt><trkpt lat="42.051349" lon="4.2260705"><ele>0.0</ele><time>2026-04-30T14:43:36.01Z</time></trkpt><trkpt lat="42.0513828" lon="4.2261801"><ele>0.0</ele><time>2026-04-30T14:43:37.011Z</time></trkpt><trkpt lat="42.0514171" lon="4.2262864"><ele>0.0</ele><time>2026-04-30T14:43:38.011Z</time></trkpt><trkpt lat="42.0514577" lon="4.2263899"><ele>0.0</ele><time>2026-04-30T14:43:39.01Z</time></trkpt><trkpt lat="42.0514993" lon="4.2264976"><ele>0.0</ele><time>2026-04-30T14:43:40.01Z</time></trkpt><trkpt lat="42.0515353" lon="4.2265988"><ele>0.0</ele><time>2026-04-30T14:43:41.01Z</time></trkpt><trkpt lat="42.0516052" lon="4.2268061"><ele>0.0</ele><time>2026-04-30T14:43:43.01Z</time></trkpt><trkpt lat="42.0516439" lon="4.2269082"><ele>0.0</ele><time>2026-04-30T14:43:44.011Z</time></trkpt><trkpt lat="42.0517852" lon="4.2273227"><ele>0.0</ele><time>2026-04-30T14:43:48.01Z</time></trkpt><trkpt lat="42.0518234" lon="4.2274293"><ele>0.0</ele><time>2026-04-30T14:43:49.01Z</time></trkpt><trkpt lat="42.0518674" lon="4.2275304"><ele>0.0</ele><time>2026-04-30T14:43:50.01Z</time></trkpt><trkpt lat="42.0519051" lon="4.2276309"><ele>0.0</ele><time>2026-04-30T14:43:51.011Z</time></trkpt><trkpt lat="42.0519391" lon="4.2277347"><ele>0.0</ele><time>2026-04-30T14:43:52.011Z</time></trkpt><trkpt lat="42.0519755" lon="4.2278425"><ele>0.0</ele><time>2026-04-30T14:43:53.011Z</time></trkpt><trkpt lat="42.0520162" lon="4.2279467"><ele>0.0</ele><time>2026-04-30T14:43:54.01Z</time></trkpt><trkpt lat="42.0520604" lon="4.2280485"><ele>0.0</ele><time>2026-04-30T14:43:55.01Z</time></trkpt><trkpt lat="42.0520987" lon="4.2281558"><ele>0.0</ele><time>2026-04-30T14:43:56.011Z</time></trkpt><trkpt lat="42.0521339" lon="4.2282639"><ele>0.0</ele><time>2026-04-30T14:43:57.01Z</time></trkpt><trkpt lat="42.0521733" lon="4.2283696"><ele>0.0</ele><time>2026-04-30T14:43:58.01Z</time></trkpt><trkpt lat="42.0522048" lon="4.2284749"><ele>0.0</ele><time>2026-04-30T14:43:59.011Z</time></trkpt><trkpt lat="42.0522391" lon="4.2285858"><ele>0.0</ele><time>2026-04-30T14:44:00.01Z</time></trkpt><trkpt lat="42.0522726" lon="4.2286946"><ele>0.0</ele><time>2026-04-30T14:44:01.01Z</time></trkpt><trkpt lat="42.0523043" lon="4.2287975"><ele>0.0</ele><time>2026-04-30T14:44:02.01Z</time></trkpt><trkpt lat="42.0523434" lon="4.2289046"><ele>0.0</ele><time>2026-04-30T14:44:03.011Z</time></trkpt><trkpt lat="42.0523793" lon="4.2290099"><ele>0.0</ele><time>2026-04-30T14:44:04.01Z</time></trkpt><trkpt lat="42.0524181" lon="4.2291104"><ele>0.0</ele><time>2026-04-30T14:44:05.011Z</time></trkpt><trkpt lat="42.0524584" lon="4.2292148"><ele>0.0</ele><time>2026-04-30T14:44:06.01Z</time></trkpt><trkpt lat="42.052497" lon="4.2293152"><ele>0.0</ele><time>2026-04-30T14:44:07.011Z</time></trkpt><trkpt lat="42.052582" lon="4.2295231"><ele>0.0</ele><time>2026-04-30T14:44:09.011Z</time></trkpt><trkpt lat="42.0526243" lon="4.22963"><ele>0.0</ele><time>2026-04-30T14:44:10.01Z</time></trkpt><trkpt lat="42.0526659" lon="4.2297367"><ele>0.0</ele><time>2026-04-30T14:44:11.01Z</time></trkpt><trkpt lat="42.0527063" lon="4.2298375"><ele>0.0</ele><time>2026-04-30T14:44:12.011Z</time></trkpt><trkpt lat="42.052745" lon="4.2299387"><ele>0.0</ele><time>2026-04-30T14:44:13.01Z</time></trkpt><trkpt lat="42.0527818" lon="4.230043"><ele>0.0</ele><time>2026-04-30T14:44:14.01Z</time></trkpt><trkpt lat="42.0528188" lon="4.2301463"><ele>0.0</ele><time>2026-04-30T14:44:15.01Z</time></trkpt><trkpt lat="42.0528554" lon="4.2302483"><ele>0.0</ele><time>2026-04-30T14:44:16.01Z</time></trkpt><trkpt lat="42.052899" lon="4.2303441"><ele>0.0</ele><time>2026-04-30T14:44:17.01Z</time></trkpt><trkpt lat="42.0529408" lon="4.2304473"><ele>0.0</ele><time>2026-04-30T14:44:18.01Z</time></trkpt><trkpt lat="42.0529855" lon="4.2305497"><ele>0.0</ele><time>2026-04-30T14:44:19.011Z</time></trkpt><trkpt lat="42.0530276" lon="4.2306543"><ele>0.0</ele><time>2026-04-30T14:44:20.011Z</time></trkpt><trkpt lat="42.0530624" lon="4.2307638"><ele>0.0</ele><time>2026-04-30T14:44:21.01Z</time></trkpt><trkpt lat="42.0530983" lon="4.2308694"><ele>0.0</ele><time>2026-04-30T14:44:22.011Z</time></trkpt><trkpt lat="42.0531383" lon="4.230973"><ele>0.0</ele><time>2026-04-30T14:44:23.011Z</time></trkpt><trkpt lat="42.0531809" lon="4.231074"><ele>0.0</ele><time>2026-04-30T14:44:24.01Z</time></trkpt><trkpt lat="42.05323" lon="4.2311755"><ele>0.0</ele><time>2026-04-30T14:44:25.011Z</time></trkpt><trkpt lat="42.053276" lon="4.2312741"><ele>0.0</ele><time>2026-04-30T14:44:26.01Z</time></trkpt><trkpt lat="42.0533094" lon="4.231381"><ele>0.0</ele><time>2026-04-30T14:44:27.01Z</time></trkpt><trkpt lat="42.0533423" lon="4.2314922"><ele>0.0</ele><time>2026-04-30T14:44:28.011Z</time></trkpt><trkpt lat="42.0534108" lon="4.2317095"><ele>0.0</ele><time>2026-04-30T14:44:30.011Z</time></trkpt><trkpt lat="42.0534472" lon="4.2318106"><ele>0.0</ele><time>2026-04-30T14:44:31.011Z</time></trkpt><trkpt lat="42.0534822" lon="4.231915"><ele>0.0</ele><time>2026-04-30T14:44:32.011Z</time></trkpt><trkpt lat="42.0535203" lon="4.2320258"><ele>0.0</ele><time>2026-04-30T14:44:33.01Z</time></trkpt><trkpt lat="42.0535656" lon="4.2321243"><ele>0.0</ele><time>2026-04-30T14:44:34.011Z</time></trkpt><trkpt lat="42.0536051" lon="4.2322252"><ele>0.0</ele><time>2026-04-30T14:44:35.011Z</time></trkpt><trkpt lat="42.0536445" lon="4.2323281"><ele>0.0</ele><time>2026-04-30T14:44:36.01Z</time></trkpt><trkpt lat="42.0536888" lon="4.2324288"><ele>0.0</ele><time>2026-04-30T14:44:37.01Z</time></trkpt><trkpt lat="42.0537284" lon="4.2325317"><ele>0.0</ele><time>2026-04-30T14:44:38.011Z</time></trkpt><trkpt lat="42.0537661" lon="4.2326366"><ele>0.0</ele><time>2026-04-30T14:44:39.01Z</time></trkpt><trkpt lat="42.0538019" lon="4.2327405"><ele>0.0</ele><time>2026-04-30T14:44:40.011Z</time></trkpt><trkpt lat="42.0538356" lon="4.2328468"><ele>0.0</ele><time>2026-04-30T14:44:41.011Z</time></trkpt><trkpt lat="42.0538732" lon="4.232952"><ele>0.0</ele><time>2026-04-30T14:44:42.01Z</time></trkpt><trkpt lat="42.0539102" lon="4.2330555"><ele>0.0</ele><time>2026-04-30T14:44:43.01Z</time></trkpt><trkpt lat="42.0539425" lon="4.2331629"><ele>0.0</ele><time>2026-04-30T14:44:44.011Z</time></trkpt><trkpt lat="42.0539768" lon="4.2332719"><ele>0.0</ele><time>2026-04-30T14:44:45.01Z</time></trkpt><trkpt lat="42.0540062" lon="4.2333801"><ele>0.0</ele><time>2026-04-30T14:44:46.01Z</time></trkpt><trkpt lat="42.0540375" lon="4.2334855"><ele>0.0</ele><time>2026-04-30T14:44:47.01Z</time></trkpt><trkpt lat="42.0540695" lon="4.2335931"><ele>0.0</ele><time>2026-04-30T14:44:48.01Z</time></trkpt><trkpt lat="42.0540986" lon="4.2337038"><ele>0.0</ele><time>2026-04-30T14:44:49.011Z</time></trkpt><trkpt lat="42.0541638" lon="4.2339247"><ele>0.0</ele><time>2026-04-30T14:44:51.011Z</time></trkpt><trkpt lat="42.0542342" lon="4.2341476"><ele>0.0</ele><time>2026-04-30T14:44:53.011Z</time></trkpt><trkpt lat="42.0542733" lon="4.2342565"><ele>0.0</ele><time>2026-04-30T14:44:54.011Z</time></trkpt><trkpt lat="42.054319" lon="4.2343604"><ele>0.0</ele><time>2026-04-30T14:44:55.01Z</time></trkpt><trkpt lat="42.0543501" lon="4.2344676"><ele>0.0</ele><time>2026-04-30T14:44:56.01Z</time></trkpt><trkpt lat="42.0543827" lon="4.234576"><ele>0.0</ele><time>2026-04-30T14:44:57.01Z</time></trkpt><trkpt lat="42.0544219" lon="4.2346805"><ele>0.0</ele><time>2026-04-30T14:44:58.01Z</time></trkpt><trkpt lat="42.0544614" lon="4.2347857"><ele>0.0</ele><time>2026-04-30T14:44:59.011Z</time></trkpt><trkpt lat="42.0545013" lon="4.2348893"><ele>0.0</ele><time>2026-04-30T14:45:00.011Z</time></trkpt><trkpt lat="42.0545373" lon="4.2349954"><ele>0.0</ele><time>2026-04-30T14:45:01.01Z</time></trkpt><trkpt lat="42.0545719" lon="4.2351004"><ele>0.0</ele><time>2026-04-30T14:45:02.01Z</time></trkpt><trkpt lat="42.0546067" lon="4.2352032"><ele>0.0</ele><time>2026-04-30T14:45:03.011Z</time></trkpt><trkpt lat="42.0546501" lon="4.2352921"><ele>0.0</ele><time>2026-04-30T14:45:04.01Z</time></trkpt><trkpt lat="42.0546854" lon="4.2353931"><ele>0.0</ele><time>2026-04-30T14:45:05.011Z</time></trkpt><trkpt lat="42.0547244" lon="4.2354974"><ele>0.0</ele><time>2026-04-30T14:45:06.01Z</time></trkpt><trkpt lat="42.0547557" lon="4.2356048"><ele>0.0</ele><time>2026-04-30T14:45:07.01Z</time></trkpt><trkpt lat="42.0547872" lon="4.2357105"><ele>0.0</ele><time>2026-04-30T14:45:08.01Z</time></trkpt><trkpt lat="42.0548273" lon="4.2358114"><ele>0.0</ele><time>2026-04-30T14:45:09.011Z</time></trkpt><trkpt lat="42.0548661" lon="4.2359157"><ele>0.0</ele><time>2026-04-30T14:45:10.011Z</time></trkpt><trkpt lat="42.0549089" lon="4.2360162"><ele>0.0</ele><time>2026-04-30T14:45:11.011Z</time></trkpt><trkpt lat="42.0549508" lon="4.2361205"><ele>0.0</ele><time>2026-04-30T14:45:12.01Z</time></trkpt><trkpt lat="42.0550319" lon="4.2363357"><ele>0.0</ele><time>2026-04-30T14:45:14.011Z</time></trkpt><trkpt lat="42.0550671" lon="4.2364432"><ele>0.0</ele><time>2026-04-30T14:45:15.01Z</time></trkpt><trkpt lat="42.0551008" lon="4.2365456"><ele>0.0</ele><time>2026-04-30T14:45:16.01Z</time></trkpt><trkpt lat="42.0551385" lon="4.2366498"><ele>0.0</ele><time>2026-04-30T14:45:17.01Z</time></trkpt><trkpt lat="42.0551756" lon="4.2367587"><ele>0.0</ele><time>2026-04-30T14:45:18.011Z</time></trkpt><trkpt lat="42.0552093" lon="4.2368631"><ele>0.0</ele><time>2026-04-30T14:45:19.011Z</time></trkpt><trkpt lat="42.0552438" lon="4.2369651"><ele>0.0</ele><time>2026-04-30T14:45:20.01Z</time></trkpt><trkpt lat="42.0552789" lon="4.2370696"><ele>0.0</ele><time>2026-04-30T14:45:21.01Z</time></trkpt><trkpt lat="42.0553181" lon="4.2371707"><ele>0.0</ele><time>2026-04-30T14:45:22.01Z</time></trkpt><trkpt lat="42.055393" lon="4.2373739"><ele>0.0</ele><time>2026-04-30T14:45:24.011Z</time></trkpt><trkpt lat="42.0554701" lon="4.2375766"><ele>0.0</ele><time>2026-04-30T14:45:26.011Z</time></trkpt><trkpt lat="42.0555069" lon="4.2376817"><ele>0.0</ele><time>2026-04-30T14:45:27.011Z</time></trkpt><trkpt lat="42.0555409" lon="4.2377849"><ele>0.0</ele><time>2026-04-30T14:45:28.011Z</time></trkpt><trkpt lat="42.0555756" lon="4.2378886"><ele>0.0</ele><time>2026-04-30T14:45:29.01Z</time></trkpt><trkpt lat="42.0556151" lon="4.2379929"><ele>0.0</ele><time>2026-04-30T14:45:30.011Z</time></trkpt><trkpt lat="42.0556478" lon="4.2380979"><ele>0.0</ele><time>2026-04-30T14:45:31.011Z</time></trkpt><trkpt lat="42.0556821" lon="4.2382017"><ele>0.0</ele><time>2026-04-30T14:45:32.011Z</time></trkpt><trkpt lat="42.0557171" lon="4.2383107"><ele>0.0</ele><time>2026-04-30T14:45:33.011Z</time></trkpt><trkpt lat="42.0558078" lon="4.2385184"><ele>0.0</ele><time>2026-04-30T14:45:35.01Z</time></trkpt><trkpt lat="42.0558493" lon="4.2386219"><ele>0.0</ele><time>2026-04-30T14:45:36.01Z</time></trkpt><trkpt lat="42.055891" lon="4.2387237"><ele>0.0</ele><time>2026-04-30T14:45:37.011Z</time></trkpt><trkpt lat="42.0559326" lon="4.2388283"><ele>0.0</ele><time>2026-04-30T14:45:38.011Z</time></trkpt><trkpt lat="42.0559744" lon="4.2389292"><ele>0.0</ele><time>2026-04-30T14:45:39.011Z</time></trkpt><trkpt lat="42.0560229" lon="4.2390274"><ele>0.0</ele><time>2026-04-30T14:45:40.01Z</time></trkpt><trkpt lat="42.0560702" lon="4.2391301"><ele>0.0</ele><time>2026-04-30T14:45:41.011Z</time></trkpt><trkpt lat="42.0561142" lon="4.2392293"><ele>0.0</ele><time>2026-04-30T14:45:42.01Z</time></trkpt><trkpt lat="42.0561576" lon="4.239325"><ele>0.0</ele><time>2026-04-30T14:45:43.01Z</time></trkpt><trkpt lat="42.0561979" lon="4.2394257"><ele>0.0</ele><time>2026-04-30T14:45:44.01Z</time></trkpt><trkpt lat="42.056237" lon="4.2395297"><ele>0.0</ele><time>2026-04-30T14:45:45.01Z</time></trkpt><trkpt lat="42.0562755" lon="4.2396314"><ele>0.0</ele><time>2026-04-30T14:45:46.01Z</time></trkpt><trkpt lat="42.0563121" lon="4.2397418"><ele>0.0</ele><time>2026-04-30T14:45:47.01Z</time></trkpt><trkpt lat="42.0563547" lon="4.2398478"><ele>0.0</ele><time>2026-04-30T14:45:48.01Z</time></trkpt><trkpt lat="42.0563899" lon="4.2399613"><ele>0.0</ele><time>2026-04-30T14:45:49.01Z</time></trkpt><trkpt lat="42.0564231" lon="4.2400706"><ele>0.0</ele><time>2026-04-30T14:45:50.01Z</time></trkpt><trkpt lat="42.0564615" lon="4.2401811"><ele>0.0</ele><time>2026-04-30T14:45:51.011Z</time></trkpt><trkpt lat="42.0564935" lon="4.2402839"><ele>0.0</ele><time>2026-04-30T14:45:52.01Z</time></trkpt><trkpt lat="42.0565275" lon="4.2403886"><ele>0.0</ele><time>2026-04-30T14:45:53.01Z</time></trkpt><trkpt lat="42.0565641" lon="4.2404918"><ele>0.0</ele><time>2026-04-30T14:45:54.011Z</time></trkpt><trkpt lat="42.0566064" lon="4.2405951"><ele>0.0</ele><time>2026-04-30T14:45:55.01Z</time></trkpt><trkpt lat="42.0567589" lon="4.2409916"><ele>0.0</ele><time>2026-04-30T14:45:59.01Z</time></trkpt><trkpt lat="42.0567956" lon="4.2410948"><ele>0.0</ele><time>2026-04-30T14:46:00.011Z</time></trkpt><trkpt lat="42.0568235" lon="4.2412054"><ele>0.0</ele><time>2026-04-30T14:46:01.01Z</time></trkpt><trkpt lat="42.0568555" lon="4.2413172"><ele>0.0</ele><time>2026-04-30T14:46:02.01Z</time></trkpt><trkpt lat="42.0568918" lon="4.2414234"><ele>0.0</ele><time>2026-04-30T14:46:03.011Z</time></trkpt><trkpt lat="42.0569312" lon="4.2415342"><ele>0.0</ele><time>2026-04-30T14:46:04.011Z</time></trkpt><trkpt lat="42.0569682" lon="4.2416371"><ele>0.0</ele><time>2026-04-30T14:46:05.011Z</time></trkpt><trkpt lat="42.0570036" lon="4.2417391"><ele>0.0</ele><time>2026-04-30T14:46:06.01Z</time></trkpt><trkpt lat="42.0570401" lon="4.2418375"><ele>0.0</ele><time>2026-04-30T14:46:07.01Z</time></trkpt><trkpt lat="42.0570733" lon="4.2419442"><ele>0.0</ele><time>2026-04-30T14:46:08.01Z</time></trkpt><trkpt lat="42.0571076" lon="4.2420525"><ele>0.0</ele><time>2026-04-30T14:46:09.01Z</time></trkpt><trkpt lat="42.0571553" lon="4.242154"><ele>0.0</ele><time>2026-04-30T14:46:10.011Z</time></trkpt><trkpt lat="42.0571868" lon="4.2422611"><ele>0.0</ele><time>2026-04-30T14:46:11.01Z</time></trkpt><trkpt lat="42.0572139" lon="4.242372"><ele>0.0</ele><time>2026-04-30T14:46:12.01Z</time></trkpt><trkpt lat="42.057249" lon="4.2424793"><ele>0.0</ele><time>2026-04-30T14:46:13.011Z</time></trkpt><trkpt lat="42.0572784" lon="4.2425917"><ele>0.0</ele><time>2026-04-30T14:46:14.011Z</time></trkpt><trkpt lat="42.0573127" lon="4.2426995"><ele>0.0</ele><time>2026-04-30T14:46:15.011Z</time></trkpt><trkpt lat="42.0573452" lon="4.2428059"><ele>0.0</ele><time>2026-04-30T14:46:16.011Z</time></trkpt><trkpt lat="42.0573793" lon="4.2429152"><ele>0.0</ele><time>2026-04-30T14:46:17.01Z</time></trkpt><trkpt lat="42.0574154" lon="4.2430228"><ele>0.0</ele><time>2026-04-30T14:46:18.01Z</time></trkpt><trkpt lat="42.0574856" lon="4.2432253"><ele>0.0</ele><time>2026-04-30T14:46:20.011Z</time></trkpt><trkpt lat="42.0575204" lon="4.2433302"><ele>0.0</ele><time>2026-04-30T14:46:21.011Z</time></trkpt><trkpt lat="42.0575554" lon="4.2434304"><ele>0.0</ele><time>2026-04-30T14:46:22.009Z</time></trkpt><trkpt lat="42.0575902" lon="4.2435391"><ele>0.0</ele><time>2026-04-30T14:46:23.01Z</time></trkpt><trkpt lat="42.0576236" lon="4.2436563"><ele>0.0</ele><time>2026-04-30T14:46:24.009Z</time></trkpt><trkpt lat="42.0576582" lon="4.2437591"><ele>0.0</ele><time>2026-04-30T14:46:25.009Z</time></trkpt><trkpt lat="42.057692" lon="4.2438651"><ele>0.0</ele><time>2026-04-30T14:46:26.009Z</time></trkpt><trkpt lat="42.057727" lon="4.2439703"><ele>0.0</ele><time>2026-04-30T14:46:27.01Z</time></trkpt><trkpt lat="42.0577645" lon="4.244075"><ele>0.0</ele><time>2026-04-30T14:46:28.01Z</time></trkpt><trkpt lat="42.0578817" lon="4.2443884"><ele>0.0</ele><time>2026-04-30T14:46:31.009Z</time></trkpt><trkpt lat="42.0579184" lon="4.2444921"><ele>0.0</ele><time>2026-04-30T14:46:32.009Z</time></trkpt><trkpt lat="42.057958" lon="4.2445981"><ele>0.0</ele><time>2026-04-30T14:46:33.009Z</time></trkpt><trkpt lat="42.0579968" lon="4.2447046"><ele>0.0</ele><time>2026-04-30T14:46:34.009Z</time></trkpt><trkpt lat="42.058042" lon="4.2448119"><ele>0.0</ele><time>2026-04-30T14:46:35.009Z</time></trkpt><trkpt lat="42.0580832" lon="4.2449209"><ele>0.0</ele><time>2026-04-30T14:46:36.009Z</time></trkpt><trkpt lat="42.0581273" lon="4.2450295"><ele>0.0</ele><time>2026-04-30T14:46:37.01Z</time></trkpt><trkpt lat="42.0581693" lon="4.2451309"><ele>0.0</ele><time>2026-04-30T14:46:38.009Z</time></trkpt><trkpt lat="42.0582111" lon="4.2452353"><ele>0.0</ele><time>2026-04-30T14:46:39.009Z</time></trkpt><trkpt lat="42.0583009" lon="4.245437"><ele>0.0</ele><time>2026-04-30T14:46:41.009Z</time></trkpt><trkpt lat="42.0583459" lon="4.2455442"><ele>0.0</ele><time>2026-04-30T14:46:42.009Z</time></trkpt><trkpt lat="42.0583837" lon="4.2456515"><ele>0.0</ele><time>2026-04-30T14:46:43.01Z</time></trkpt><trkpt lat="42.0584273" lon="4.2457495"><ele>0.0</ele><time>2026-04-30T14:46:44.009Z</time></trkpt><trkpt lat="42.0584676" lon="4.2458549"><ele>0.0</ele><time>2026-04-30T14:46:45.009Z</time></trkpt><trkpt lat="42.0585105" lon="4.2459585"><ele>0.0</ele><time>2026-04-30T14:46:46.009Z</time></trkpt><trkpt lat="42.058553" lon="4.2460604"><ele>0.0</ele><time>2026-04-30T14:46:47.009Z</time></trkpt><trkpt lat="42.0585963" lon="4.2461592"><ele>0.0</ele><time>2026-04-30T14:46:48.01Z</time></trkpt><trkpt lat="42.058638" lon="4.2462574"><ele>0.0</ele><time>2026-04-30T14:46:49.009Z</time></trkpt><trkpt lat="42.058681" lon="4.2463615"><ele>0.0</ele><time>2026-04-30T14:46:50.009Z</time></trkpt><trkpt lat="42.0587201" lon="4.2464637"><ele>0.0</ele><time>2026-04-30T14:46:51.009Z</time></trkpt><trkpt lat="42.0587658" lon="4.2465654"><ele>0.0</ele><time>2026-04-30T14:46:52.01Z</time></trkpt><trkpt lat="42.0588053" lon="4.2466685"><ele>0.0</ele><time>2026-04-30T14:46:53.009Z</time></trkpt><trkpt lat="42.0588468" lon="4.2467702"><ele>0.0</ele><time>2026-04-30T14:46:54.009Z</time></trkpt><trkpt lat="42.0588868" lon="4.246872"><ele>0.0</ele><time>2026-04-30T14:46:55.01Z</time></trkpt><trkpt lat="42.0589254" lon="4.2469722"><ele>0.0</ele><time>2026-04-30T14:46:56.01Z</time></trkpt><trkpt lat="42.0589582" lon="4.2470752"><ele>0.0</ele><time>2026-04-30T14:46:57.009Z</time></trkpt><trkpt lat="42.058994" lon="4.2471799"><ele>0.0</ele><time>2026-04-30T14:46:58.01Z</time></trkpt><trkpt lat="42.0590333" lon="4.2472863"><ele>0.0</ele><time>2026-04-30T14:46:59.009Z</time></trkpt><trkpt lat="42.059066" lon="4.2473973"><ele>0.0</ele><time>2026-04-30T14:47:00.01Z</time></trkpt><trkpt lat="42.0591378" lon="4.2476073"><ele>0.0</ele><time>2026-04-30T14:47:02.01Z</time></trkpt><trkpt lat="42.0592451" lon="4.2479176"><ele>0.0</ele><time>2026-04-30T14:47:05.009Z</time></trkpt><trkpt lat="42.0592778" lon="4.2480257"><ele>0.0</ele><time>2026-04-30T14:47:06.01Z</time></trkpt><trkpt lat="42.0593065" lon="4.248133"><ele>0.0</ele><time>2026-04-30T14:47:07.009Z</time></trkpt><trkpt lat="42.0593335" lon="4.248237"><ele>0.0</ele><time>2026-04-30T14:47:08.009Z</time></trkpt><trkpt lat="42.0593684" lon="4.2483476"><ele>0.0</ele><time>2026-04-30T14:47:09.01Z</time></trkpt><trkpt lat="42.0594053" lon="4.2484507"><ele>0.0</ele><time>2026-04-30T14:47:10.01Z</time></trkpt><trkpt lat="42.0594436" lon="4.2485609"><ele>0.0</ele><time>2026-04-30T14:47:11.01Z</time></trkpt><trkpt lat="42.0594819" lon="4.2486649"><ele>0.0</ele><time>2026-04-30T14:47:12.01Z</time></trkpt><trkpt lat="42.05952" lon="4.2487726"><ele>0.0</ele><time>2026-04-30T14:47:13.01Z</time></trkpt><trkpt lat="42.0595631" lon="4.2488863"><ele>0.0</ele><time>2026-04-30T14:47:14.01Z</time></trkpt><trkpt lat="42.0596046" lon="4.2489887"><ele>0.0</ele><time>2026-04-30T14:47:15.01Z</time></trkpt><trkpt lat="42.0596604" lon="4.2490844"><ele>0.0</ele><time>2026-04-30T14:47:16.009Z</time></trkpt><trkpt lat="42.0597089" lon="4.2491811"><ele>0.0</ele><time>2026-04-30T14:47:17.01Z</time></trkpt><trkpt lat="42.0597473" lon="4.2492789"><ele>0.0</ele><time>2026-04-30T14:47:18.01Z</time></trkpt><trkpt lat="42.0597802" lon="4.2493859"><ele>0.0</ele><time>2026-04-30T14:47:19.009Z</time></trkpt><trkpt lat="42.0598308" lon="4.2494839"><ele>0.0</ele><time>2026-04-30T14:47:20.009Z</time></trkpt><trkpt lat="42.0598744" lon="4.2495924"><ele>0.0</ele><time>2026-04-30T14:47:21.009Z</time></trkpt><trkpt lat="42.0599534" lon="4.2497984"><ele>0.0</ele><time>2026-04-30T14:47:23.009Z</time></trkpt><trkpt lat="42.0599843" lon="4.2499046"><ele>0.0</ele><time>2026-04-30T14:47:24.009Z</time></trkpt><trkpt lat="42.0600215" lon="4.2500013"><ele>0.0</ele><time>2026-04-30T14:47:25.009Z</time></trkpt><trkpt lat="42.0600597" lon="4.250104"><ele>0.0</ele><time>2026-04-30T14:47:26.01Z</time></trkpt><trkpt lat="42.0600992" lon="4.2502001"><ele>0.0</ele><time>2026-04-30T14:47:27.009Z</time></trkpt><trkpt lat="42.0601368" lon="4.2503009"><ele>0.0</ele><time>2026-04-30T14:47:28.009Z</time></trkpt><trkpt lat="42.0601778" lon="4.2504123"><ele>0.0</ele><time>2026-04-30T14:47:29.01Z</time></trkpt><trkpt lat="42.0602164" lon="4.250517"><ele>0.0</ele><time>2026-04-30T14:47:30.01Z</time></trkpt><trkpt lat="42.0602688" lon="4.2506148"><ele>0.0</ele><time>2026-04-30T14:47:31.009Z</time></trkpt><trkpt lat="42.0603096" lon="4.2507245"><ele>0.0</ele><time>2026-04-30T14:47:32.009Z</time></trkpt><trkpt lat="42.0603482" lon="4.2508286"><ele>0.0</ele><time>2026-04-30T14:47:33.01Z</time></trkpt><trkpt lat="42.0603841" lon="4.2509293"><ele>0.0</ele><time>2026-04-30T14:47:34.01Z</time></trkpt><trkpt lat="42.0604218" lon="4.251035"><ele>0.0</ele><time>2026-04-30T14:47:35.01Z</time></trkpt><trkpt lat="42.0604909" lon="4.2512452"><ele>0.0</ele><time>2026-04-30T14:47:37.009Z</time></trkpt><trkpt lat="42.0605371" lon="4.25135"><ele>0.0</ele><time>2026-04-30T14:47:38.009Z</time></trkpt><trkpt lat="42.0605843" lon="4.2514475"><ele>0.0</ele><time>2026-04-30T14:47:39.009Z</time></trkpt><trkpt lat="42.060631" lon="4.2515483"><ele>0.0</ele><time>2026-04-30T14:47:40.009Z</time></trkpt><trkpt lat="42.0606719" lon="4.2516485"><ele>0.0</ele><time>2026-04-30T14:47:41.01Z</time></trkpt><trkpt lat="42.0607121" lon="4.2517524"><ele>0.0</ele><time>2026-04-30T14:47:42.009Z</time></trkpt><trkpt lat="42.0607768" lon="4.2519669"><ele>0.0</ele><time>2026-04-30T14:47:44.01Z</time></trkpt><trkpt lat="42.0608082" lon="4.2520731"><ele>0.0</ele><time>2026-04-30T14:47:45.01Z</time></trkpt><trkpt lat="42.0608424" lon="4.2521782"><ele>0.0</ele><time>2026-04-30T14:47:46.01Z</time></trkpt><trkpt lat="42.0608817" lon="4.252283"><ele>0.0</ele><time>2026-04-30T14:47:47.01Z</time></trkpt><trkpt lat="42.0609203" lon="4.2523907"><ele>0.0</ele><time>2026-04-30T14:47:48.009Z</time></trkpt><trkpt lat="42.0609598" lon="4.2524966"><ele>0.0</ele><time>2026-04-30T14:47:49.009Z</time></trkpt><trkpt lat="42.0610026" lon="4.2525973"><ele>0.0</ele><time>2026-04-30T14:47:50.01Z</time></trkpt><trkpt lat="42.0610403" lon="4.2526987"><ele>0.0</ele><time>2026-04-30T14:47:51.009Z</time></trkpt><trkpt lat="42.0610811" lon="4.2528018"><ele>0.0</ele><time>2026-04-30T14:47:52.009Z</time></trkpt><trkpt lat="42.0611203" lon="4.2529052"><ele>0.0</ele><time>2026-04-30T14:47:53.009Z</time></trkpt><trkpt lat="42.0611628" lon="4.2530057"><ele>0.0</ele><time>2026-04-30T14:47:54.009Z</time></trkpt><trkpt lat="42.0611991" lon="4.2531084"><ele>0.0</ele><time>2026-04-30T14:47:55.01Z</time></trkpt><trkpt lat="42.0612371" lon="4.2532114"><ele>0.0</ele><time>2026-04-30T14:47:56.01Z</time></trkpt><trkpt lat="42.0612781" lon="4.2533161"><ele>0.0</ele><time>2026-04-30T14:47:57.01Z</time></trkpt><trkpt lat="42.0613201" lon="4.2534212"><ele>0.0</ele><time>2026-04-30T14:47:58.009Z</time></trkpt><trkpt lat="42.0613579" lon="4.2535264"><ele>0.0</ele><time>2026-04-30T14:47:59.01Z</time></trkpt><trkpt lat="42.0613941" lon="4.2536312"><ele>0.0</ele><time>2026-04-30T14:48:00.009Z</time></trkpt><trkpt lat="42.0614275" lon="4.2537393"><ele>0.0</ele><time>2026-04-30T14:48:01.009Z</time></trkpt><trkpt lat="42.0614622" lon="4.2538452"><ele>0.0</ele><time>2026-04-30T14:48:02.01Z</time></trkpt><trkpt lat="42.0615" lon="4.2539499"><ele>0.0</ele><time>2026-04-30T14:48:03.009Z</time></trkpt><trkpt lat="42.0615764" lon="4.2541626"><ele>0.0</ele><time>2026-04-30T14:48:05.01Z</time></trkpt><trkpt lat="42.0616179" lon="4.2542695"><ele>0.0</ele><time>2026-04-30T14:48:06.009Z</time></trkpt><trkpt lat="42.0616554" lon="4.2543778"><ele>0.0</ele><time>2026-04-30T14:48:07.009Z</time></trkpt><trkpt lat="42.0616919" lon="4.2544879"><ele>0.0</ele><time>2026-04-30T14:48:08.009Z</time></trkpt><trkpt lat="42.0618003" lon="4.254807"><ele>0.0</ele><time>2026-04-30T14:48:11.009Z</time></trkpt><trkpt lat="42.0618381" lon="4.2549118"><ele>0.0</ele><time>2026-04-30T14:48:12.01Z</time></trkpt><trkpt lat="42.0618767" lon="4.2550149"><ele>0.0</ele><time>2026-04-30T14:48:13.01Z</time></trkpt><trkpt lat="42.061918" lon="4.2551265"><ele>0.0</ele><time>2026-04-30T14:48:14.01Z</time></trkpt><trkpt lat="42.0619608" lon="4.255237"><ele>0.0</ele><time>2026-04-30T14:48:15.01Z</time></trkpt><trkpt lat="42.0619914" lon="4.2553456"><ele>0.0</ele><time>2026-04-30T14:48:16.01Z</time></trkpt><trkpt lat="42.0620225" lon="4.2554512"><ele>0.0</ele><time>2026-04-30T14:48:17.01Z</time></trkpt><trkpt lat="42.0620602" lon="4.2555535"><ele>0.0</ele><time>2026-04-30T14:48:18.009Z</time></trkpt><trkpt lat="42.0620954" lon="4.2556587"><ele>0.0</ele><time>2026-04-30T14:48:19.009Z</time></trkpt><trkpt lat="42.0621396" lon="4.2557596"><ele>0.0</ele><time>2026-04-30T14:48:20.009Z</time></trkpt><trkpt lat="42.0621738" lon="4.2558651"><ele>0.0</ele><time>2026-04-30T14:48:21.01Z</time></trkpt><trkpt lat="42.0622133" lon="4.2559644"><ele>0.0</ele><time>2026-04-30T14:48:22.009Z</time></trkpt><trkpt lat="42.0622478" lon="4.2560673"><ele>0.0</ele><time>2026-04-30T14:48:23.01Z</time></trkpt><trkpt lat="42.0622832" lon="4.2561773"><ele>0.0</ele><time>2026-04-30T14:48:24.01Z</time></trkpt><trkpt lat="42.0623651" lon="4.2563822"><ele>0.0</ele><time>2026-04-30T14:48:26.009Z</time></trkpt><trkpt lat="42.0624049" lon="4.2564824"><ele>0.0</ele><time>2026-04-30T14:48:27.009Z</time></trkpt><trkpt lat="42.0624451" lon="4.2565878"><ele>0.0</ele><time>2026-04-30T14:48:28.01Z</time></trkpt><trkpt lat="42.0624852" lon="4.2566945"><ele>0.0</ele><time>2026-04-30T14:48:29.009Z</time></trkpt><trkpt lat="42.0625192" lon="4.2568025"><ele>0.0</ele><time>2026-04-30T14:48:30.01Z</time></trkpt><trkpt lat="42.0625636" lon="4.2569026"><ele>0.0</ele><time>2026-04-30T14:48:31.01Z</time></trkpt><trkpt lat="42.0626058" lon="4.2570094"><ele>0.0</ele><time>2026-04-30T14:48:32.009Z</time></trkpt><trkpt lat="42.0626462" lon="4.257119"><ele>0.0</ele><time>2026-04-30T14:48:33.01Z</time></trkpt><trkpt lat="42.0626822" lon="4.2572236"><ele>0.0</ele><time>2026-04-30T14:48:34.009Z</time></trkpt><trkpt lat="42.0627101" lon="4.2573355"><ele>0.0</ele><time>2026-04-30T14:48:35.009Z</time></trkpt><trkpt lat="42.0627425" lon="4.2574429"><ele>0.0</ele><time>2026-04-30T14:48:36.01Z</time></trkpt><trkpt lat="42.0627828" lon="4.2575453"><ele>0.0</ele><time>2026-04-30T14:48:37.009Z</time></trkpt><trkpt lat="42.0628246" lon="4.2576438"><ele>0.0</ele><time>2026-04-30T14:48:38.01Z</time></trkpt><trkpt lat="42.0628653" lon="4.2577466"><ele>0.0</ele><time>2026-04-30T14:48:39.009Z</time></trkpt><trkpt lat="42.0629083" lon="4.2578539"><ele>0.0</ele><time>2026-04-30T14:48:40.01Z</time></trkpt><trkpt lat="42.0629583" lon="4.2579567"><ele>0.0</ele><time>2026-04-30T14:48:41.009Z</time></trkpt><trkpt lat="42.0630518" lon="4.2581594"><ele>0.0</ele><time>2026-04-30T14:48:43.009Z</time></trkpt><trkpt lat="42.0631253" lon="4.2583661"><ele>0.0</ele><time>2026-04-30T14:48:45.01Z</time></trkpt><trkpt lat="42.0631836" lon="4.2585644"><ele>0.0</ele><time>2026-04-30T14:48:47.009Z</time></trkpt><trkpt lat="42.0632196" lon="4.2586644"><ele>0.0</ele><time>2026-04-30T14:48:48.009Z</time></trkpt><trkpt lat="42.0632567" lon="4.2587669"><ele>0.0</ele><time>2026-04-30T14:48:49.009Z</time></trkpt><trkpt lat="42.063292" lon="4.2588763"><ele>0.0</ele><time>2026-04-30T14:48:50.009Z</time></trkpt><trkpt lat="42.0633268" lon="4.2589875"><ele>0.0</ele><time>2026-04-30T14:48:51.009Z</time></trkpt><trkpt lat="42.0633586" lon="4.2590976"><ele>0.0</ele><time>2026-04-30T14:48:52.009Z</time></trkpt><trkpt lat="42.0633948" lon="4.2592034"><ele>0.0</ele><time>2026-04-30T14:48:53.01Z</time></trkpt><trkpt lat="42.0634332" lon="4.2593069"><ele>0.0</ele><time>2026-04-30T14:48:54.009Z</time></trkpt><trkpt lat="42.0634787" lon="4.2594028"><ele>0.0</ele><time>2026-04-30T14:48:55.009Z</time></trkpt><trkpt lat="42.0635169" lon="4.259508"><ele>0.0</ele><time>2026-04-30T14:48:56.01Z</time></trkpt><trkpt lat="42.0635526" lon="4.2596129"><ele>0.0</ele><time>2026-04-30T14:48:57.01Z</time></trkpt><trkpt lat="42.063586" lon="4.2597166"><ele>0.0</ele><time>2026-04-30T14:48:58.01Z</time></trkpt><trkpt lat="42.0636222" lon="4.2598241"><ele>0.0</ele><time>2026-04-30T14:48:59.01Z</time></trkpt><trkpt lat="42.0636588" lon="4.2599312"><ele>0.0</ele><time>2026-04-30T14:49:00.01Z</time></trkpt><trkpt lat="42.0636898" lon="4.2600351"><ele>0.0</ele><time>2026-04-30T14:49:01.009Z</time></trkpt><trkpt lat="42.0637192" lon="4.2601413"><ele>0.0</ele><time>2026-04-30T14:49:02.009Z</time></trkpt><trkpt lat="42.0637533" lon="4.2602477"><ele>0.0</ele><time>2026-04-30T14:49:03.009Z</time></trkpt><trkpt lat="42.0637926" lon="4.2603549"><ele>0.0</ele><time>2026-04-30T14:49:04.01Z</time></trkpt><trkpt lat="42.063833" lon="4.2604588"><ele>0.0</ele><time>2026-04-30T14:49:05.009Z</time></trkpt><trkpt lat="42.0639101" lon="4.260668"><ele>0.0</ele><time>2026-04-30T14:49:07.009Z</time></trkpt><trkpt lat="42.0639523" lon="4.2607707"><ele>0.0</ele><time>2026-04-30T14:49:08.01Z</time></trkpt><trkpt lat="42.0639942" lon="4.2608722"><ele>0.0</ele><time>2026-04-30T14:49:09.009Z</time></trkpt><trkpt lat="42.0640318" lon="4.2609755"><ele>0.0</ele><time>2026-04-30T14:49:10.01Z</time></trkpt><trkpt lat="42.0640681" lon="4.2610789"><ele>0.0</ele><time>2026-04-30T14:49:11.009Z</time></trkpt><trkpt lat="42.0641025" lon="4.2611752"><ele>0.0</ele><time>2026-04-30T14:49:12.01Z</time></trkpt><trkpt lat="42.0641501" lon="4.2612718"><ele>0.0</ele><time>2026-04-30T14:49:13.009Z</time></trkpt><trkpt lat="42.0641895" lon="4.2613781"><ele>0.0</ele><time>2026-04-30T14:49:14.009Z</time></trkpt><trkpt lat="42.0643163" lon="4.2616868"><ele>0.0</ele><time>2026-04-30T14:49:17.01Z</time></trkpt><trkpt lat="42.0643535" lon="4.2617945"><ele>0.0</ele><time>2026-04-30T14:49:18.01Z</time></trkpt><trkpt lat="42.0643846" lon="4.2619042"><ele>0.0</ele><time>2026-04-30T14:49:19.01Z</time></trkpt><trkpt lat="42.0644172" lon="4.2620057"><ele>0.0</ele><time>2026-04-30T14:49:20.009Z</time></trkpt><trkpt lat="42.0644491" lon="4.2621101"><ele>0.0</ele><time>2026-04-30T14:49:21.009Z</time></trkpt><trkpt lat="42.0644853" lon="4.2622163"><ele>0.0</ele><time>2026-04-30T14:49:22.009Z</time></trkpt><trkpt lat="42.0645291" lon="4.262319"><ele>0.0</ele><time>2026-04-30T14:49:23.01Z</time></trkpt><trkpt lat="42.0645743" lon="4.2624206"><ele>0.0</ele><time>2026-04-30T14:49:24.009Z</time></trkpt><trkpt lat="42.0646109" lon="4.2625278"><ele>0.0</ele><time>2026-04-30T14:49:25.009Z</time></trkpt><trkpt lat="42.0646435" lon="4.2626371"><ele>0.0</ele><time>2026-04-30T14:49:26.009Z</time></trkpt><trkpt lat="42.0647255" lon="4.2628425"><ele>0.0</ele><time>2026-04-30T14:49:28.01Z</time></trkpt><trkpt lat="42.0647679" lon="4.2629407"><ele>0.0</ele><time>2026-04-30T14:49:29.01Z</time></trkpt><trkpt lat="42.064801" lon="4.2630446"><ele>0.0</ele><time>2026-04-30T14:49:30.009Z</time></trkpt><trkpt lat="42.0648399" lon="4.2631509"><ele>0.0</ele><time>2026-04-30T14:49:31.009Z</time></trkpt><trkpt lat="42.0648754" lon="4.2632576"><ele>0.0</ele><time>2026-04-30T14:49:32.009Z</time></trkpt><trkpt lat="42.0649109" lon="4.2633628"><ele>0.0</ele><time>2026-04-30T14:49:33.009Z</time></trkpt><trkpt lat="42.0649442" lon="4.2634734"><ele>0.0</ele><time>2026-04-30T14:49:34.01Z</time></trkpt><trkpt lat="42.064985" lon="4.2635781"><ele>0.0</ele><time>2026-04-30T14:49:35.01Z</time></trkpt><trkpt lat="42.0650234" lon="4.2636815"><ele>0.0</ele><time>2026-04-30T14:49:36.009Z</time></trkpt><trkpt lat="42.0650561" lon="4.2637862"><ele>0.0</ele><time>2026-04-30T14:49:37.009Z</time></trkpt><trkpt lat="42.0650906" lon="4.2638865"><ele>0.0</ele><time>2026-04-30T14:49:38.009Z</time></trkpt><trkpt lat="42.0651286" lon="4.2639916"><ele>0.0</ele><time>2026-04-30T14:49:39.009Z</time></trkpt><trkpt lat="42.0651668" lon="4.2640964"><ele>0.0</ele><time>2026-04-30T14:49:40.009Z</time></trkpt><trkpt lat="42.0652064" lon="4.2642015"><ele>0.0</ele><time>2026-04-30T14:49:41.01Z</time></trkpt><trkpt lat="42.0652469" lon="4.2643066"><ele>0.0</ele><time>2026-04-30T14:49:42.01Z</time></trkpt><trkpt lat="42.0652897" lon="4.2644143"><ele>0.0</ele><time>2026-04-30T14:49:43.01Z</time></trkpt><trkpt lat="42.0653283" lon="4.2645215"><ele>0.0</ele><time>2026-04-30T14:49:44.009Z</time></trkpt><trkpt lat="42.0653821" lon="4.2646168"><ele>0.0</ele><time>2026-04-30T14:49:45.01Z</time></trkpt><trkpt lat="42.0654386" lon="4.2647146"><ele>0.0</ele><time>2026-04-30T14:49:46.01Z</time></trkpt><trkpt lat="42.0654795" lon="4.264813"><ele>0.0</ele><time>2026-04-30T14:49:47.01Z</time></trkpt><trkpt lat="42.0655181" lon="4.2649181"><ele>0.0</ele><time>2026-04-30T14:49:48.01Z</time></trkpt><trkpt lat="42.065558" lon="4.2650262"><ele>0.0</ele><time>2026-04-30T14:49:49.01Z</time></trkpt><trkpt lat="42.0656376" lon="4.2652311"><ele>0.0</ele><time>2026-04-30T14:49:51.01Z</time></trkpt><trkpt lat="42.0656739" lon="4.2653351"><ele>0.0</ele><time>2026-04-30T14:49:52.009Z</time></trkpt><trkpt lat="42.065712" lon="4.2654414"><ele>0.0</ele><time>2026-04-30T14:49:53.009Z</time></trkpt><trkpt lat="42.0657472" lon="4.2655509"><ele>0.0</ele><time>2026-04-30T14:49:54.009Z</time></trkpt><trkpt lat="42.0657826" lon="4.2656518"><ele>0.0</ele><time>2026-04-30T14:49:55.01Z</time></trkpt><trkpt lat="42.0658162" lon="4.2657514"><ele>0.0</ele><time>2026-04-30T14:49:56.01Z</time></trkpt><trkpt lat="42.0658524" lon="4.2658525"><ele>0.0</ele><time>2026-04-30T14:49:57.01Z</time></trkpt><trkpt lat="42.065892" lon="4.2659483"><ele>0.0</ele><time>2026-04-30T14:49:58.009Z</time></trkpt><trkpt lat="42.0659334" lon="4.2660522"><ele>0.0</ele><time>2026-04-30T14:49:59.009Z</time></trkpt><trkpt lat="42.0659737" lon="4.2661546"><ele>0.0</ele><time>2026-04-30T14:50:00.009Z</time></trkpt><trkpt lat="42.0660103" lon="4.2662592"><ele>0.0</ele><time>2026-04-30T14:50:01.009Z</time></trkpt><trkpt lat="42.0660468" lon="4.2663715"><ele>0.0</ele><time>2026-04-30T14:50:02.009Z</time></trkpt><trkpt lat="42.0660882" lon="4.2664819"><ele>0.0</ele><time>2026-04-30T14:50:03.009Z</time></trkpt><trkpt lat="42.0661258" lon="4.2665891"><ele>0.0</ele><time>2026-04-30T14:50:04.009Z</time></trkpt><trkpt lat="42.0661657" lon="4.2666929"><ele>0.0</ele><time>2026-04-30T14:50:05.009Z</time></trkpt><trkpt lat="42.0662" lon="4.2667964"><ele>0.0</ele><time>2026-04-30T14:50:06.01Z</time></trkpt><trkpt lat="42.0662374" lon="4.2669028"><ele>0.0</ele><time>2026-04-30T14:50:07.009Z</time></trkpt><trkpt lat="42.0662741" lon="4.267008"><ele>0.0</ele><time>2026-04-30T14:50:08.009Z</time></trkpt><trkpt lat="42.0663081" lon="4.2671113"><ele>0.0</ele><time>2026-04-30T14:50:09.009Z</time></trkpt><trkpt lat="42.0663438" lon="4.2672174"><ele>0.0</ele><time>2026-04-30T14:50:10.009Z</time></trkpt><trkpt lat="42.0664336" lon="4.2674196"><ele>0.0</ele><time>2026-04-30T14:50:12.009Z</time></trkpt><trkpt lat="42.0664662" lon="4.267526"><ele>0.0</ele><time>2026-04-30T14:50:13.009Z</time></trkpt><trkpt lat="42.0664993" lon="4.2676311"><ele>0.0</ele><time>2026-04-30T14:50:14.01Z</time></trkpt><trkpt lat="42.0665316" lon="4.2677406"><ele>0.0</ele><time>2026-04-30T14:50:15.01Z</time></trkpt><trkpt lat="42.0665704" lon="4.2678477"><ele>0.0</ele><time>2026-04-30T14:50:16.01Z</time></trkpt><trkpt lat="42.0666113" lon="4.2679604"><ele>0.0</ele><time>2026-04-30T14:50:17.01Z</time></trkpt><trkpt lat="42.0666474" lon="4.2680721"><ele>0.0</ele><time>2026-04-30T14:50:18.01Z</time></trkpt><trkpt lat="42.0666795" lon="4.2681825"><ele>0.0</ele><time>2026-04-30T14:50:19.01Z</time></trkpt><trkpt lat="42.0667524" lon="4.2683917"><ele>0.0</ele><time>2026-04-30T14:50:21.01Z</time></trkpt><trkpt lat="42.0667875" lon="4.2684993"><ele>0.0</ele><time>2026-04-30T14:50:22.009Z</time></trkpt><trkpt lat="42.0668206" lon="4.2686036"><ele>0.0</ele><time>2026-04-30T14:50:23.009Z</time></trkpt><trkpt lat="42.0668581" lon="4.2687127"><ele>0.0</ele><time>2026-04-30T14:50:24.01Z</time></trkpt><trkpt lat="42.0668992" lon="4.2688169"><ele>0.0</ele><time>2026-04-30T14:50:25.01Z</time></trkpt><trkpt lat="42.0669438" lon="4.2689203"><ele>0.0</ele><time>2026-04-30T14:50:26.009Z</time></trkpt><trkpt lat="42.0669917" lon="4.2690192"><ele>0.0</ele><time>2026-04-30T14:50:27.009Z</time></trkpt><trkpt lat="42.0670287" lon="4.2691205"><ele>0.0</ele><time>2026-04-30T14:50:28.008Z</time></trkpt><trkpt lat="42.0670669" lon="4.2692249"><ele>0.0</ele><time>2026-04-30T14:50:29.008Z</time></trkpt><trkpt lat="42.0671049" lon="4.2693331"><ele>0.0</ele><time>2026-04-30T14:50:30.008Z</time></trkpt><trkpt lat="42.0671345" lon="4.2694412"><ele>0.0</ele><time>2026-04-30T14:50:31.009Z</time></trkpt><trkpt lat="42.0672099" lon="4.269656"><ele>0.0</ele><time>2026-04-30T14:50:33.008Z</time></trkpt><trkpt lat="42.0672515" lon="4.2697585"><ele>0.0</ele><time>2026-04-30T14:50:34.009Z</time></trkpt><trkpt lat="42.0672885" lon="4.2698661"><ele>0.0</ele><time>2026-04-30T14:50:35.008Z</time></trkpt><trkpt lat="42.0673253" lon="4.2699633"><ele>0.0</ele><time>2026-04-30T14:50:36.009Z</time></trkpt><trkpt lat="42.0673648" lon="4.2700628"><ele>0.0</ele><time>2026-04-30T14:50:37.009Z</time></trkpt><trkpt lat="42.067402" lon="4.2701672"><ele>0.0</ele><time>2026-04-30T14:50:38.009Z</time></trkpt><trkpt lat="42.0674345" lon="4.2702692"><ele>0.0</ele><time>2026-04-30T14:50:39.009Z</time></trkpt><trkpt lat="42.0674718" lon="4.2703664"><ele>0.0</ele><time>2026-04-30T14:50:40.009Z</time></trkpt><trkpt lat="42.0675128" lon="4.2704746"><ele>0.0</ele><time>2026-04-30T14:50:41.009Z</time></trkpt><trkpt lat="42.0675529" lon="4.2705814"><ele>0.0</ele><time>2026-04-30T14:50:42.009Z</time></trkpt><trkpt lat="42.0675902" lon="4.270691"><ele>0.0</ele><time>2026-04-30T14:50:43.008Z</time></trkpt><trkpt lat="42.0676296" lon="4.2707955"><ele>0.0</ele><time>2026-04-30T14:50:44.009Z</time></trkpt><trkpt lat="42.0676667" lon="4.2708946"><ele>0.0</ele><time>2026-04-30T14:50:45.009Z</time></trkpt><trkpt lat="42.067702" lon="4.2710058"><ele>0.0</ele><time>2026-04-30T14:50:46.008Z</time></trkpt><trkpt lat="42.0677358" lon="4.271113"><ele>0.0</ele><time>2026-04-30T14:50:47.009Z</time></trkpt><trkpt lat="42.0677676" lon="4.2712198"><ele>0.0</ele><time>2026-04-30T14:50:48.008Z</time></trkpt><trkpt lat="42.0678007" lon="4.2713279"><ele>0.0</ele><time>2026-04-30T14:50:49.008Z</time></trkpt><trkpt lat="42.0678339" lon="4.2714321"><ele>0.0</ele><time>2026-04-30T14:50:50.009Z</time></trkpt><trkpt lat="42.06787" lon="4.2715401"><ele>0.0</ele><time>2026-04-30T14:50:51.009Z</time></trkpt><trkpt lat="42.0679911" lon="4.2718477"><ele>0.0</ele><time>2026-04-30T14:50:54.008Z</time></trkpt><trkpt lat="42.0680294" lon="4.2719605"><ele>0.0</ele><time>2026-04-30T14:50:55.008Z</time></trkpt><trkpt lat="42.0680653" lon="4.2720651"><ele>0.0</ele><time>2026-04-30T14:50:56.009Z</time></trkpt><trkpt lat="42.068106" lon="4.2721716"><ele>0.0</ele><time>2026-04-30T14:50:57.008Z</time></trkpt><trkpt lat="42.0681422" lon="4.2722756"><ele>0.0</ele><time>2026-04-30T14:50:58.009Z</time></trkpt><trkpt lat="42.0681727" lon="4.2723819"><ele>0.0</ele><time>2026-04-30T14:50:59.008Z</time></trkpt><trkpt lat="42.0682126" lon="4.2724853"><ele>0.0</ele><time>2026-04-30T14:51:00.008Z</time></trkpt><trkpt lat="42.0682516" lon="4.2725916"><ele>0.0</ele><time>2026-04-30T14:51:01.009Z</time></trkpt><trkpt lat="42.0682928" lon="4.2726981"><ele>0.0</ele><time>2026-04-30T14:51:02.009Z</time></trkpt><trkpt lat="42.0683301" lon="4.2728033"><ele>0.0</ele><time>2026-04-30T14:51:03.008Z</time></trkpt><trkpt lat="42.0683724" lon="4.2729053"><ele>0.0</ele><time>2026-04-30T14:51:04.008Z</time></trkpt><trkpt lat="42.06841" lon="4.27301"><ele>0.0</ele><time>2026-04-30T14:51:05.009Z</time></trkpt><trkpt lat="42.0684497" lon="4.2731107"><ele>0.0</ele><time>2026-04-30T14:51:06.008Z</time></trkpt><trkpt lat="42.0684897" lon="4.2732153"><ele>0.0</ele><time>2026-04-30T14:51:07.008Z</time></trkpt><trkpt lat="42.0685296" lon="4.273317"><ele>0.0</ele><time>2026-04-30T14:51:08.008Z</time></trkpt><trkpt lat="42.068564" lon="4.273426"><ele>0.0</ele><time>2026-04-30T14:51:09.009Z</time></trkpt><trkpt lat="42.0686031" lon="4.2735288"><ele>0.0</ele><time>2026-04-30T14:51:10.009Z</time></trkpt><trkpt lat="42.0686378" lon="4.2736318"><ele>0.0</ele><time>2026-04-30T14:51:11.009Z</time></trkpt><trkpt lat="42.0686789" lon="4.2737354"><ele>0.0</ele><time>2026-04-30T14:51:12.009Z</time></trkpt><trkpt lat="42.0687094" lon="4.2738401"><ele>0.0</ele><time>2026-04-30T14:51:13.008Z</time></trkpt><trkpt lat="42.0687748" lon="4.2740531"><ele>0.0</ele><time>2026-04-30T14:51:15.008Z</time></trkpt><trkpt lat="42.0688114" lon="4.2741528"><ele>0.0</ele><time>2026-04-30T14:51:16.008Z</time></trkpt><trkpt lat="42.0688498" lon="4.2742586"><ele>0.0</ele><time>2026-04-30T14:51:17.008Z</time></trkpt><trkpt lat="42.0688921" lon="4.274361"><ele>0.0</ele><time>2026-04-30T14:51:18.009Z</time></trkpt><trkpt lat="42.0689294" lon="4.2744657"><ele>0.0</ele><time>2026-04-30T14:51:19.008Z</time></trkpt><trkpt lat="42.0689777" lon="4.2745706"><ele>0.0</ele><time>2026-04-30T14:51:20.009Z</time></trkpt><trkpt lat="42.0690171" lon="4.274673"><ele>0.0</ele><time>2026-04-30T14:51:21.008Z</time></trkpt><trkpt lat="42.0690561" lon="4.2747761"><ele>0.0</ele><time>2026-04-30T14:51:22.009Z</time></trkpt><trkpt lat="42.0690988" lon="4.2748765"><ele>0.0</ele><time>2026-04-30T14:51:23.009Z</time></trkpt><trkpt lat="42.0691359" lon="4.2749795"><ele>0.0</ele><time>2026-04-30T14:51:24.008Z</time></trkpt><trkpt lat="42.0692234" lon="4.2751888"><ele>0.0</ele><time>2026-04-30T14:51:26.009Z</time></trkpt><trkpt lat="42.0692699" lon="4.2752956"><ele>0.0</ele><time>2026-04-30T14:51:27.008Z</time></trkpt><trkpt lat="42.0693485" lon="4.2754985"><ele>0.0</ele><time>2026-04-30T14:51:29.008Z</time></trkpt><trkpt lat="42.0693823" lon="4.2756009"><ele>0.0</ele><time>2026-04-30T14:51:30.009Z</time></trkpt><trkpt lat="42.0694217" lon="4.2757029"><ele>0.0</ele><time>2026-04-30T14:51:31.008Z</time></trkpt><trkpt lat="42.0694598" lon="4.2758016"><ele>0.0</ele><time>2026-04-30T14:51:32.009Z</time></trkpt><trkpt lat="42.0695026" lon="4.2759041"><ele>0.0</ele><time>2026-04-30T14:51:33.008Z</time></trkpt><trkpt lat="42.0695432" lon="4.2760073"><ele>0.0</ele><time>2026-04-30T14:51:34.009Z</time></trkpt><trkpt lat="42.0696104" lon="4.2762232"><ele>0.0</ele><time>2026-04-30T14:51:36.009Z</time></trkpt><trkpt lat="42.0696427" lon="4.2763311"><ele>0.0</ele><time>2026-04-30T14:51:37.008Z</time></trkpt><trkpt lat="42.0696745" lon="4.276441"><ele>0.0</ele><time>2026-04-30T14:51:38.008Z</time></trkpt><trkpt lat="42.0697132" lon="4.276541"><ele>0.0</ele><time>2026-04-30T14:51:39.009Z</time></trkpt><trkpt lat="42.0697589" lon="4.2766437"><ele>0.0</ele><time>2026-04-30T14:51:40.008Z</time></trkpt><trkpt lat="42.0698026" lon="4.2767413"><ele>0.0</ele><time>2026-04-30T14:51:41.009Z</time></trkpt><trkpt lat="42.0698389" lon="4.2768437"><ele>0.0</ele><time>2026-04-30T14:51:42.009Z</time></trkpt><trkpt lat="42.069888" lon="4.2769369"><ele>0.0</ele><time>2026-04-30T14:51:43.008Z</time></trkpt><trkpt lat="42.0699229" lon="4.2770327"><ele>0.0</ele><time>2026-04-30T14:51:44.008Z</time></trkpt><trkpt lat="42.0699647" lon="4.2771364"><ele>0.0</ele><time>2026-04-30T14:51:45.009Z</time></trkpt><trkpt lat="42.0700106" lon="4.2772454"><ele>0.0</ele><time>2026-04-30T14:51:46.009Z</time></trkpt><trkpt lat="42.0700485" lon="4.2773524"><ele>0.0</ele><time>2026-04-30T14:51:47.008Z</time></trkpt><trkpt lat="42.070101" lon="4.2774549"><ele>0.0</ele><time>2026-04-30T14:51:48.009Z</time></trkpt><trkpt lat="42.0701373" lon="4.2775598"><ele>0.0</ele><time>2026-04-30T14:51:49.008Z</time></trkpt><trkpt lat="42.0701696" lon="4.277667"><ele>0.0</ele><time>2026-04-30T14:51:50.008Z</time></trkpt><trkpt lat="42.0702112" lon="4.2777642"><ele>0.0</ele><time>2026-04-30T14:51:51.009Z</time></trkpt><trkpt lat="42.070256" lon="4.2778621"><ele>0.0</ele><time>2026-04-30T14:51:52.009Z</time></trkpt><trkpt lat="42.070291" lon="4.2779635"><ele>0.0</ele><time>2026-04-30T14:51:53.008Z</time></trkpt><trkpt lat="42.0703328" lon="4.278061"><ele>0.0</ele><time>2026-04-30T14:51:54.009Z</time></trkpt><trkpt lat="42.0703684" lon="4.2781665"><ele>0.0</ele><time>2026-04-30T14:51:55.008Z</time></trkpt><trkpt lat="42.0704371" lon="4.2783764"><ele>0.0</ele><time>2026-04-30T14:51:57.008Z</time></trkpt><trkpt lat="42.0704955" lon="4.2786036"><ele>0.0</ele><time>2026-04-30T14:51:59.008Z</time></trkpt><trkpt lat="42.070567" lon="4.2788175"><ele>0.0</ele><time>2026-04-30T14:52:01.009Z</time></trkpt><trkpt lat="42.0706053" lon="4.2789185"><ele>0.0</ele><time>2026-04-30T14:52:02.009Z</time></trkpt><trkpt lat="42.070642" lon="4.2790186"><ele>0.0</ele><time>2026-04-30T14:52:03.008Z</time></trkpt><trkpt lat="42.0706845" lon="4.2791214"><ele>0.0</ele><time>2026-04-30T14:52:04.009Z</time></trkpt><trkpt lat="42.0707278" lon="4.2792234"><ele>0.0</ele><time>2026-04-30T14:52:05.009Z</time></trkpt><trkpt lat="42.0707666" lon="4.2793254"><ele>0.0</ele><time>2026-04-30T14:52:06.009Z</time></trkpt><trkpt lat="42.0708068" lon="4.2794368"><ele>0.0</ele><time>2026-04-30T14:52:07.008Z</time></trkpt><trkpt lat="42.0708468" lon="4.2795428"><ele>0.0</ele><time>2026-04-30T14:52:08.008Z</time></trkpt><trkpt lat="42.0708863" lon="4.2796521"><ele>0.0</ele><time>2026-04-30T14:52:09.009Z</time></trkpt><trkpt lat="42.0709272" lon="4.2797609"><ele>0.0</ele><time>2026-04-30T14:52:10.009Z</time></trkpt><trkpt lat="42.070972" lon="4.2798622"><ele>0.0</ele><time>2026-04-30T14:52:11.009Z</time></trkpt><trkpt lat="42.0710127" lon="4.2799664"><ele>0.0</ele><time>2026-04-30T14:52:12.009Z</time></trkpt><trkpt lat="42.071053" lon="4.2800671"><ele>0.0</ele><time>2026-04-30T14:52:13.009Z</time></trkpt><trkpt lat="42.0710929" lon="4.2801659"><ele>0.0</ele><time>2026-04-30T14:52:14.009Z</time></trkpt><trkpt lat="42.071134" lon="4.2802657"><ele>0.0</ele><time>2026-04-30T14:52:15.009Z</time></trkpt><trkpt lat="42.071177" lon="4.2803658"><ele>0.0</ele><time>2026-04-30T14:52:16.009Z</time></trkpt><trkpt lat="42.0712579" lon="4.280571"><ele>0.0</ele><time>2026-04-30T14:52:18.008Z</time></trkpt><trkpt lat="42.0712871" lon="4.2806734"><ele>0.0</ele><time>2026-04-30T14:52:19.009Z</time></trkpt><trkpt lat="42.0713228" lon="4.2807765"><ele>0.0</ele><time>2026-04-30T14:52:20.008Z</time></trkpt><trkpt lat="42.0713605" lon="4.2808757"><ele>0.0</ele><time>2026-04-30T14:52:21.008Z</time></trkpt><trkpt lat="42.0713999" lon="4.2809727"><ele>0.0</ele><time>2026-04-30T14:52:22.008Z</time></trkpt><trkpt lat="42.0714285" lon="4.2810782"><ele>0.0</ele><time>2026-04-30T14:52:23.008Z</time></trkpt><trkpt lat="42.0714656" lon="4.281183"><ele>0.0</ele><time>2026-04-30T14:52:24.009Z</time></trkpt><trkpt lat="42.0715082" lon="4.281292"><ele>0.0</ele><time>2026-04-30T14:52:25.009Z</time></trkpt><trkpt lat="42.0715483" lon="4.2813948"><ele>0.0</ele><time>2026-04-30T14:52:26.008Z</time></trkpt><trkpt lat="42.0715943" lon="4.2814962"><ele>0.0</ele><time>2026-04-30T14:52:27.008Z</time></trkpt><trkpt lat="42.0716408" lon="4.2815996"><ele>0.0</ele><time>2026-04-30T14:52:28.009Z</time></trkpt><trkpt lat="42.0716776" lon="4.2817002"><ele>0.0</ele><time>2026-04-30T14:52:29.008Z</time></trkpt><trkpt lat="42.0717096" lon="4.281802"><ele>0.0</ele><time>2026-04-30T14:52:30.009Z</time></trkpt><trkpt lat="42.0718193" lon="4.2821217"><ele>0.0</ele><time>2026-04-30T14:52:33.008Z</time></trkpt><trkpt lat="42.0718557" lon="4.2822263"><ele>0.0</ele><time>2026-04-30T14:52:34.008Z</time></trkpt><trkpt lat="42.0718955" lon="4.2823251"><ele>0.0</ele><time>2026-04-30T14:52:35.008Z</time></trkpt><trkpt lat="42.0719329" lon="4.2824248"><ele>0.0</ele><time>2026-04-30T14:52:36.009Z</time></trkpt><trkpt lat="42.0719747" lon="4.2825338"><ele>0.0</ele><time>2026-04-30T14:52:37.009Z</time></trkpt><trkpt lat="42.0720516" lon="4.282745"><ele>0.0</ele><time>2026-04-30T14:52:39.009Z</time></trkpt><trkpt lat="42.0720943" lon="4.2828559"><ele>0.0</ele><time>2026-04-30T14:52:40.009Z</time></trkpt><trkpt lat="42.0721259" lon="4.282956"><ele>0.0</ele><time>2026-04-30T14:52:41.009Z</time></trkpt><trkpt lat="42.0721575" lon="4.2830669"><ele>0.0</ele><time>2026-04-30T14:52:42.008Z</time></trkpt><trkpt lat="42.072192" lon="4.2831813"><ele>0.0</ele><time>2026-04-30T14:52:43.009Z</time></trkpt><trkpt lat="42.0722287" lon="4.2832836"><ele>0.0</ele><time>2026-04-30T14:52:44.009Z</time></trkpt><trkpt lat="42.0722658" lon="4.2833864"><ele>0.0</ele><time>2026-04-30T14:52:45.008Z</time></trkpt><trkpt lat="42.0723008" lon="4.2834929"><ele>0.0</ele><time>2026-04-30T14:52:46.009Z</time></trkpt><trkpt lat="42.0723356" lon="4.2835976"><ele>0.0</ele><time>2026-04-30T14:52:47.008Z</time></trkpt><trkpt lat="42.0723735" lon="4.2836958"><ele>0.0</ele><time>2026-04-30T14:52:48.008Z</time></trkpt><trkpt lat="42.0724096" lon="4.2837953"><ele>0.0</ele><time>2026-04-30T14:52:49.008Z</time></trkpt><trkpt lat="42.0724504" lon="4.283898"><ele>0.0</ele><time>2026-04-30T14:52:50.009Z</time></trkpt><trkpt lat="42.0724898" lon="4.284006"><ele>0.0</ele><time>2026-04-30T14:52:51.008Z</time></trkpt><trkpt lat="42.0725286" lon="4.2841097"><ele>0.0</ele><time>2026-04-30T14:52:52.009Z</time></trkpt><trkpt lat="42.0725738" lon="4.2842138"><ele>0.0</ele><time>2026-04-30T14:52:53.008Z</time></trkpt><trkpt lat="42.072616" lon="4.2843214"><ele>0.0</ele><time>2026-04-30T14:52:54.008Z</time></trkpt><trkpt lat="42.0726562" lon="4.2844269"><ele>0.0</ele><time>2026-04-30T14:52:55.009Z</time></trkpt><trkpt lat="42.0726921" lon="4.2845234"><ele>0.0</ele><time>2026-04-30T14:52:56.008Z</time></trkpt><trkpt lat="42.0727273" lon="4.2846266"><ele>0.0</ele><time>2026-04-30T14:52:57.009Z</time></trkpt><trkpt lat="42.0727638" lon="4.2847258"><ele>0.0</ele><time>2026-04-30T14:52:58.008Z</time></trkpt><trkpt lat="42.0728385" lon="4.2849259"><ele>0.0</ele><time>2026-04-30T14:53:00.008Z</time></trkpt><trkpt lat="42.0728811" lon="4.2850286"><ele>0.0</ele><time>2026-04-30T14:53:01.008Z</time></trkpt><trkpt lat="42.0729175" lon="4.2851317"><ele>0.0</ele><time>2026-04-30T14:53:02.009Z</time></trkpt><trkpt lat="42.0729491" lon="4.2852335"><ele>0.0</ele><time>2026-04-30T14:53:03.008Z</time></trkpt><trkpt lat="42.0730191" lon="4.2854359"><ele>0.0</ele><time>2026-04-30T14:53:05.008Z</time></trkpt><trkpt lat="42.0730983" lon="4.2856424"><ele>0.0</ele><time>2026-04-30T14:53:07.008Z</time></trkpt><trkpt lat="42.0731409" lon="4.2857468"><ele>0.0</ele><time>2026-04-30T14:53:08.009Z</time></trkpt><trkpt lat="42.0731772" lon="4.2858612"><ele>0.0</ele><time>2026-04-30T14:53:09.009Z</time></trkpt><trkpt lat="42.0732136" lon="4.2859765"><ele>0.0</ele><time>2026-04-30T14:53:10.009Z</time></trkpt><trkpt lat="42.0732527" lon="4.2860843"><ele>0.0</ele><time>2026-04-30T14:53:11.008Z</time></trkpt><trkpt lat="42.0732915" lon="4.2861941"><ele>0.0</ele><time>2026-04-30T14:53:12.008Z</time></trkpt><trkpt lat="42.0733299" lon="4.2862998"><ele>0.0</ele><time>2026-04-30T14:53:13.008Z</time></trkpt><trkpt lat="42.0733715" lon="4.286403"><ele>0.0</ele><time>2026-04-30T14:53:14.008Z</time></trkpt><trkpt lat="42.0734065" lon="4.2865048"><ele>0.0</ele><time>2026-04-30T14:53:15.009Z</time></trkpt><trkpt lat="42.0734452" lon="4.2866078"><ele>0.0</ele><time>2026-04-30T14:53:16.009Z</time></trkpt><trkpt lat="42.073478" lon="4.2867141"><ele>0.0</ele><time>2026-04-30T14:53:17.009Z</time></trkpt><trkpt lat="42.0735126" lon="4.286822"><ele>0.0</ele><time>2026-04-30T14:53:18.009Z</time></trkpt><trkpt lat="42.0735544" lon="4.2869311"><ele>0.0</ele><time>2026-04-30T14:53:19.009Z</time></trkpt><trkpt lat="42.0736379" lon="4.2871321"><ele>0.0</ele><time>2026-04-30T14:53:21.009Z</time></trkpt><trkpt lat="42.0736724" lon="4.2872383"><ele>0.0</ele><time>2026-04-30T14:53:22.008Z</time></trkpt><trkpt lat="42.0737047" lon="4.287342"><ele>0.0</ele><time>2026-04-30T14:53:23.009Z</time></trkpt><trkpt lat="42.0737308" lon="4.287451"><ele>0.0</ele><time>2026-04-30T14:53:24.008Z</time></trkpt><trkpt lat="42.0737571" lon="4.2875593"><ele>0.0</ele><time>2026-04-30T14:53:25.008Z</time></trkpt><trkpt lat="42.0737837" lon="4.2876663"><ele>0.0</ele><time>2026-04-30T14:53:26.008Z</time></trkpt><trkpt lat="42.0738201" lon="4.2877703"><ele>0.0</ele><time>2026-04-30T14:53:27.008Z</time></trkpt><trkpt lat="42.0738529" lon="4.2878707"><ele>0.0</ele><time>2026-04-30T14:53:28.009Z</time></trkpt><trkpt lat="42.0738931" lon="4.2879708"><ele>0.0</ele><time>2026-04-30T14:53:29.008Z</time></trkpt><trkpt lat="42.0739344" lon="4.288078"><ele>0.0</ele><time>2026-04-30T14:53:30.009Z</time></trkpt><trkpt lat="42.0739689" lon="4.2881888"><ele>0.0</ele><time>2026-04-30T14:53:31.008Z</time></trkpt><trkpt lat="42.0740037" lon="4.2882882"><ele>0.0</ele><time>2026-04-30T14:53:32.008Z</time></trkpt><trkpt lat="42.0740344" lon="4.2883977"><ele>0.0</ele><time>2026-04-30T14:53:33.008Z</time></trkpt><trkpt lat="42.0740744" lon="4.2885062"><ele>0.0</ele><time>2026-04-30T14:53:34.008Z</time></trkpt><trkpt lat="42.0741087" lon="4.2886146"><ele>0.0</ele><time>2026-04-30T14:53:35.009Z</time></trkpt><trkpt lat="42.0741353" lon="4.2887233"><ele>0.0</ele><time>2026-04-30T14:53:36.009Z</time></trkpt><trkpt lat="42.0742365" lon="4.2890325"><ele>0.0</ele><time>2026-04-30T14:53:39.008Z</time></trkpt><trkpt lat="42.0742792" lon="4.2891426"><ele>0.0</ele><time>2026-04-30T14:53:40.009Z</time></trkpt><trkpt lat="42.0743639" lon="4.2893443"><ele>0.0</ele><time>2026-04-30T14:53:42.008Z</time></trkpt><trkpt lat="42.074402" lon="4.2894458"><ele>0.0</ele><time>2026-04-30T14:53:43.008Z</time></trkpt><trkpt lat="42.0744371" lon="4.2895541"><ele>0.0</ele><time>2026-04-30T14:53:44.008Z</time></trkpt><trkpt lat="42.0744917" lon="4.2896499"><ele>0.0</ele><time>2026-04-30T14:53:45.008Z</time></trkpt><trkpt lat="42.0745471" lon="4.2897417"><ele>0.0</ele><time>2026-04-30T14:53:46.008Z</time></trkpt><trkpt lat="42.0745939" lon="4.2898407"><ele>0.0</ele><time>2026-04-30T14:53:47.008Z</time></trkpt><trkpt lat="42.0746323" lon="4.2899417"><ele>0.0</ele><time>2026-04-30T14:53:48.008Z</time></trkpt><trkpt lat="42.0746653" lon="4.2900416"><ele>0.0</ele><time>2026-04-30T14:53:49.009Z</time></trkpt><trkpt lat="42.0746955" lon="4.2901444"><ele>0.0</ele><time>2026-04-30T14:53:50.008Z</time></trkpt><trkpt lat="42.0747309" lon="4.2902466"><ele>0.0</ele><time>2026-04-30T14:53:51.008Z</time></trkpt><trkpt lat="42.0747577" lon="4.290354"><ele>0.0</ele><time>2026-04-30T14:53:52.008Z</time></trkpt><trkpt lat="42.0747866" lon="4.2904625"><ele>0.0</ele><time>2026-04-30T14:53:53.009Z</time></trkpt><trkpt lat="42.0748306" lon="4.2905711"><ele>0.0</ele><time>2026-04-30T14:53:54.009Z</time></trkpt><trkpt lat="42.0748722" lon="4.2906768"><ele>0.0</ele><time>2026-04-30T14:53:55.009Z</time></trkpt><trkpt lat="42.0749213" lon="4.2907788"><ele>0.0</ele><time>2026-04-30T14:53:56.008Z</time></trkpt><trkpt lat="42.0749585" lon="4.2908879"><ele>0.0</ele><time>2026-04-30T14:53:57.008Z</time></trkpt><trkpt lat="42.0749995" lon="4.2909921"><ele>0.0</ele><time>2026-04-30T14:53:58.009Z</time></trkpt><trkpt lat="42.0750367" lon="4.2910969"><ele>0.0</ele><time>2026-04-30T14:53:59.009Z</time></trkpt><trkpt lat="42.0750795" lon="4.2912005"><ele>0.0</ele><time>2026-04-30T14:54:00.008Z</time></trkpt><trkpt lat="42.0751188" lon="4.2913034"><ele>0.0</ele><time>2026-04-30T14:54:01.008Z</time></trkpt><trkpt lat="42.0751921" lon="4.2915065"><ele>0.0</ele><time>2026-04-30T14:54:03.009Z</time></trkpt><trkpt lat="42.0752304" lon="4.2916099"><ele>0.0</ele><time>2026-04-30T14:54:04.008Z</time></trkpt><trkpt lat="42.0752618" lon="4.2917247"><ele>0.0</ele><time>2026-04-30T14:54:05.009Z</time></trkpt><trkpt lat="42.075299" lon="4.2918298"><ele>0.0</ele><time>2026-04-30T14:54:06.009Z</time></trkpt><trkpt lat="42.0753388" lon="4.2919376"><ele>0.0</ele><time>2026-04-30T14:54:07.008Z</time></trkpt><trkpt lat="42.0753776" lon="4.2920458"><ele>0.0</ele><time>2026-04-30T14:54:08.009Z</time></trkpt><trkpt lat="42.0754153" lon="4.2921401"><ele>0.0</ele><time>2026-04-30T14:54:09.008Z</time></trkpt><trkpt lat="42.0754953" lon="4.2923383"><ele>0.0</ele><time>2026-04-30T14:54:11.008Z</time></trkpt><trkpt lat="42.0755339" lon="4.2924414"><ele>0.0</ele><time>2026-04-30T14:54:12.008Z</time></trkpt><trkpt lat="42.0755751" lon="4.2925503"><ele>0.0</ele><time>2026-04-30T14:54:13.008Z</time></trkpt><trkpt lat="42.0756206" lon="4.2926533"><ele>0.0</ele><time>2026-04-30T14:54:14.008Z</time></trkpt><trkpt lat="42.0756666" lon="4.2927637"><ele>0.0</ele><time>2026-04-30T14:54:15.008Z</time></trkpt><trkpt lat="42.0757042" lon="4.2928653"><ele>0.0</ele><time>2026-04-30T14:54:16.009Z</time></trkpt><trkpt lat="42.0757379" lon="4.292964"><ele>0.0</ele><time>2026-04-30T14:54:17.008Z</time></trkpt><trkpt lat="42.0757781" lon="4.2930652"><ele>0.0</ele><time>2026-04-30T14:54:18.008Z</time></trkpt><trkpt lat="42.0758155" lon="4.2931681"><ele>0.0</ele><time>2026-04-30T14:54:19.008Z</time></trkpt><trkpt lat="42.075852" lon="4.2932718"><ele>0.0</ele><time>2026-04-30T14:54:20.008Z</time></trkpt><trkpt lat="42.075893" lon="4.2933765"><ele>0.0</ele><time>2026-04-30T14:54:21.008Z</time></trkpt><trkpt lat="42.0759305" lon="4.2934799"><ele>0.0</ele><time>2026-04-30T14:54:22.009Z</time></trkpt><trkpt lat="42.0760148" lon="4.2936874"><ele>0.0</ele><time>2026-04-30T14:54:24.008Z</time></trkpt><trkpt lat="42.0760515" lon="4.293795"><ele>0.0</ele><time>2026-04-30T14:54:25.008Z</time></trkpt><trkpt lat="42.076111" lon="4.2938956"><ele>0.0</ele><time>2026-04-30T14:54:26.008Z</time></trkpt><trkpt lat="42.076164" lon="4.293989"><ele>0.0</ele><time>2026-04-30T14:54:27.008Z</time></trkpt><trkpt lat="42.0762005" lon="4.2940932"><ele>0.0</ele><time>2026-04-30T14:54:28.009Z</time></trkpt><trkpt lat="42.0762441" lon="4.2941894"><ele>0.0</ele><time>2026-04-30T14:54:29.009Z</time></trkpt><trkpt lat="42.0762832" lon="4.2942903"><ele>0.0</ele><time>2026-04-30T14:54:30.009Z</time></trkpt><trkpt lat="42.0763187" lon="4.2943964"><ele>0.0</ele><time>2026-04-30T14:54:31.009Z</time></trkpt><trkpt lat="42.0763537" lon="4.2944962"><ele>0.0</ele><time>2026-04-30T14:54:32.008Z</time></trkpt><trkpt lat="42.076386" lon="4.2946001"><ele>0.0</ele><time>2026-04-30T14:54:33.008Z</time></trkpt><trkpt lat="42.076419" lon="4.2947053"><ele>0.0</ele><time>2026-04-30T14:54:34.008Z</time></trkpt><trkpt lat="42.0764539" lon="4.2948142"><ele>0.0</ele><time>2026-04-30T14:54:35.007Z</time></trkpt><trkpt lat="42.0764877" lon="4.2949225"><ele>0.0</ele><time>2026-04-30T14:54:36.008Z</time></trkpt><trkpt lat="42.0765228" lon="4.295031"><ele>0.0</ele><time>2026-04-30T14:54:37.008Z</time></trkpt><trkpt lat="42.0765644" lon="4.2951393"><ele>0.0</ele><time>2026-04-30T14:54:38.008Z</time></trkpt><trkpt lat="42.0766027" lon="4.2952404"><ele>0.0</ele><time>2026-04-30T14:54:39.007Z</time></trkpt><trkpt lat="42.076649" lon="4.295342"><ele>0.0</ele><time>2026-04-30T14:54:40.007Z</time></trkpt><trkpt lat="42.0766843" lon="4.2954492"><ele>0.0</ele><time>2026-04-30T14:54:41.007Z</time></trkpt><trkpt lat="42.0767193" lon="4.2955588"><ele>0.0</ele><time>2026-04-30T14:54:42.008Z</time></trkpt><trkpt lat="42.0767955" lon="4.2957706"><ele>0.0</ele><time>2026-04-30T14:54:44.007Z</time></trkpt><trkpt lat="42.0769122" lon="4.2960771"><ele>0.0</ele><time>2026-04-30T14:54:47.008Z</time></trkpt><trkpt lat="42.0769517" lon="4.296186"><ele>0.0</ele><time>2026-04-30T14:54:48.007Z</time></trkpt><trkpt lat="42.0769917" lon="4.2962888"><ele>0.0</ele><time>2026-04-30T14:54:49.008Z</time></trkpt><trkpt lat="42.0770318" lon="4.2963918"><ele>0.0</ele><time>2026-04-30T14:54:50.007Z</time></trkpt><trkpt lat="42.0770686" lon="4.2964968"><ele>0.0</ele><time>2026-04-30T14:54:51.007Z</time></trkpt><trkpt lat="42.0771066" lon="4.2966022"><ele>0.0</ele><time>2026-04-30T14:54:52.007Z</time></trkpt><trkpt lat="42.0771406" lon="4.2967058"><ele>0.0</ele><time>2026-04-30T14:54:53.008Z</time></trkpt><trkpt lat="42.0771795" lon="4.2968045"><ele>0.0</ele><time>2026-04-30T14:54:54.007Z</time></trkpt><trkpt lat="42.0772296" lon="4.2969002"><ele>0.0</ele><time>2026-04-30T14:54:55.008Z</time></trkpt><trkpt lat="42.0772697" lon="4.2970123"><ele>0.0</ele><time>2026-04-30T14:54:56.007Z</time></trkpt><trkpt lat="42.0773071" lon="4.2971209"><ele>0.0</ele><time>2026-04-30T14:54:57.007Z</time></trkpt><trkpt lat="42.0773467" lon="4.2972265"><ele>0.0</ele><time>2026-04-30T14:54:58.008Z</time></trkpt><trkpt lat="42.0773852" lon="4.2973274"><ele>0.0</ele><time>2026-04-30T14:54:59.008Z</time></trkpt><trkpt lat="42.0774262" lon="4.2974277"><ele>0.0</ele><time>2026-04-30T14:55:00.008Z</time></trkpt><trkpt lat="42.0774793" lon="4.2975263"><ele>0.0</ele><time>2026-04-30T14:55:01.007Z</time></trkpt><trkpt lat="42.0775201" lon="4.297626"><ele>0.0</ele><time>2026-04-30T14:55:02.007Z</time></trkpt><trkpt lat="42.0775588" lon="4.2977287"><ele>0.0</ele><time>2026-04-30T14:55:03.008Z</time></trkpt><trkpt lat="42.077611" lon="4.2978206"><ele>0.0</ele><time>2026-04-30T14:55:04.008Z</time></trkpt><trkpt lat="42.0776562" lon="4.297922"><ele>0.0</ele><time>2026-04-30T14:55:05.007Z</time></trkpt><trkpt lat="42.077745" lon="4.2981278"><ele>0.0</ele><time>2026-04-30T14:55:07.008Z</time></trkpt><trkpt lat="42.0777791" lon="4.2982298"><ele>0.0</ele><time>2026-04-30T14:55:08.008Z</time></trkpt><trkpt lat="42.0778086" lon="4.2983359"><ele>0.0</ele><time>2026-04-30T14:55:09.007Z</time></trkpt><trkpt lat="42.0778383" lon="4.2984411"><ele>0.0</ele><time>2026-04-30T14:55:10.007Z</time></trkpt><trkpt lat="42.0778823" lon="4.2985432"><ele>0.0</ele><time>2026-04-30T14:55:11.008Z</time></trkpt><trkpt lat="42.0779287" lon="4.298646"><ele>0.0</ele><time>2026-04-30T14:55:12.007Z</time></trkpt><trkpt lat="42.0779657" lon="4.2987508"><ele>0.0</ele><time>2026-04-30T14:55:13.007Z</time></trkpt><trkpt lat="42.0780011" lon="4.2988643"><ele>0.0</ele><time>2026-04-30T14:55:14.008Z</time></trkpt><trkpt lat="42.0780363" lon="4.2989662"><ele>0.0</ele><time>2026-04-30T14:55:15.008Z</time></trkpt><trkpt lat="42.0781024" lon="4.2991789"><ele>0.0</ele><time>2026-04-30T14:55:17.008Z</time></trkpt><trkpt lat="42.0781389" lon="4.2992842"><ele>0.0</ele><time>2026-04-30T14:55:18.007Z</time></trkpt><trkpt lat="42.0781785" lon="4.299386"><ele>0.0</ele><time>2026-04-30T14:55:19.008Z</time></trkpt><trkpt lat="42.0782198" lon="4.2994834"><ele>0.0</ele><time>2026-04-30T14:55:20.007Z</time></trkpt><trkpt lat="42.078256" lon="4.2995885"><ele>0.0</ele><time>2026-04-30T14:55:21.007Z</time></trkpt><trkpt lat="42.0782925" lon="4.2996924"><ele>0.0</ele><time>2026-04-30T14:55:22.008Z</time></trkpt><trkpt lat="42.078329" lon="4.2997908"><ele>0.0</ele><time>2026-04-30T14:55:23.008Z</time></trkpt><trkpt lat="42.078367" lon="4.2998936"><ele>0.0</ele><time>2026-04-30T14:55:24.008Z</time></trkpt><trkpt lat="42.0784069" lon="4.2999997"><ele>0.0</ele><time>2026-04-30T14:55:25.008Z</time></trkpt><trkpt lat="42.0784422" lon="4.3001064"><ele>0.0</ele><time>2026-04-30T14:55:26.007Z</time></trkpt><trkpt lat="42.0785135" lon="4.3003199"><ele>0.0</ele><time>2026-04-30T14:55:28.007Z</time></trkpt><trkpt lat="42.0785516" lon="4.300424"><ele>0.0</ele><time>2026-04-30T14:55:29.008Z</time></trkpt><trkpt lat="42.0785854" lon="4.3005347"><ele>0.0</ele><time>2026-04-30T14:55:30.008Z</time></trkpt><trkpt lat="42.0786257" lon="4.300642"><ele>0.0</ele><time>2026-04-30T14:55:31.008Z</time></trkpt><trkpt lat="42.0786715" lon="4.3007458"><ele>0.0</ele><time>2026-04-30T14:55:32.007Z</time></trkpt><trkpt lat="42.0787097" lon="4.300856"><ele>0.0</ele><time>2026-04-30T14:55:33.007Z</time></trkpt><trkpt lat="42.0787441" lon="4.3009648"><ele>0.0</ele><time>2026-04-30T14:55:34.007Z</time></trkpt><trkpt lat="42.0787832" lon="4.3010688"><ele>0.0</ele><time>2026-04-30T14:55:35.007Z</time></trkpt><trkpt lat="42.0788215" lon="4.3011736"><ele>0.0</ele><time>2026-04-30T14:55:36.008Z</time></trkpt><trkpt lat="42.0788654" lon="4.3012741"><ele>0.0</ele><time>2026-04-30T14:55:37.008Z</time></trkpt><trkpt lat="42.0788976" lon="4.301381"><ele>0.0</ele><time>2026-04-30T14:55:38.008Z</time></trkpt><trkpt lat="42.0789296" lon="4.3014891"><ele>0.0</ele><time>2026-04-30T14:55:39.007Z</time></trkpt><trkpt lat="42.0789599" lon="4.3015946"><ele>0.0</ele><time>2026-04-30T14:55:40.008Z</time></trkpt><trkpt lat="42.0789912" lon="4.301702"><ele>0.0</ele><time>2026-04-30T14:55:41.008Z</time></trkpt><trkpt lat="42.0790249" lon="4.3018113"><ele>0.0</ele><time>2026-04-30T14:55:42.008Z</time></trkpt><trkpt lat="42.0790597" lon="4.3019157"><ele>0.0</ele><time>2026-04-30T14:55:43.008Z</time></trkpt><trkpt lat="42.0791029" lon="4.3020197"><ele>0.0</ele><time>2026-04-30T14:55:44.008Z</time></trkpt><trkpt lat="42.079141" lon="4.302123"><ele>0.0</ele><time>2026-04-30T14:55:45.008Z</time></trkpt><trkpt lat="42.0791762" lon="4.302225"><ele>0.0</ele><time>2026-04-30T14:55:46.008Z</time></trkpt><trkpt lat="42.0792179" lon="4.3023228"><ele>0.0</ele><time>2026-04-30T14:55:47.008Z</time></trkpt><trkpt lat="42.0793417" lon="4.3026408"><ele>0.0</ele><time>2026-04-30T14:55:50.007Z</time></trkpt><trkpt lat="42.0793872" lon="4.3027407"><ele>0.0</ele><time>2026-04-30T14:55:51.007Z</time></trkpt><trkpt lat="42.0794196" lon="4.302845"><ele>0.0</ele><time>2026-04-30T14:55:52.007Z</time></trkpt><trkpt lat="42.0794527" lon="4.3029524"><ele>0.0</ele><time>2026-04-30T14:55:53.008Z</time></trkpt><trkpt lat="42.0794889" lon="4.3030568"><ele>0.0</ele><time>2026-04-30T14:55:54.007Z</time></trkpt><trkpt lat="42.0795282" lon="4.303159"><ele>0.0</ele><time>2026-04-30T14:55:55.007Z</time></trkpt><trkpt lat="42.0795652" lon="4.3032565"><ele>0.0</ele><time>2026-04-30T14:55:56.007Z</time></trkpt><trkpt lat="42.079602" lon="4.3033519"><ele>0.0</ele><time>2026-04-30T14:55:57.007Z</time></trkpt><trkpt lat="42.0796387" lon="4.3034486"><ele>0.0</ele><time>2026-04-30T14:55:58.008Z</time></trkpt><trkpt lat="42.0796806" lon="4.303544"><ele>0.0</ele><time>2026-04-30T14:55:59.007Z</time></trkpt><trkpt lat="42.0797126" lon="4.3036475"><ele>0.0</ele><time>2026-04-30T14:56:00.007Z</time></trkpt><trkpt lat="42.079751" lon="4.3037468"><ele>0.0</ele><time>2026-04-30T14:56:01.007Z</time></trkpt><trkpt lat="42.0797922" lon="4.3038521"><ele>0.0</ele><time>2026-04-30T14:56:02.008Z</time></trkpt><trkpt lat="42.0798425" lon="4.3039587"><ele>0.0</ele><time>2026-04-30T14:56:03.007Z</time></trkpt><trkpt lat="42.0798842" lon="4.3040668"><ele>0.0</ele><time>2026-04-30T14:56:04.008Z</time></trkpt><trkpt lat="42.0799257" lon="4.3041708"><ele>0.0</ele><time>2026-04-30T14:56:05.007Z</time></trkpt><trkpt lat="42.079966" lon="4.3042796"><ele>0.0</ele><time>2026-04-30T14:56:06.008Z</time></trkpt><trkpt lat="42.0800031" lon="4.3043798"><ele>0.0</ele><time>2026-04-30T14:56:07.008Z</time></trkpt><trkpt lat="42.0800504" lon="4.3044682"><ele>0.0</ele><time>2026-04-30T14:56:08.008Z</time></trkpt><trkpt lat="42.0800853" lon="4.3045664"><ele>0.0</ele><time>2026-04-30T14:56:09.007Z</time></trkpt><trkpt lat="42.0801632" lon="4.3047733"><ele>0.0</ele><time>2026-04-30T14:56:11.007Z</time></trkpt><trkpt lat="42.0802005" lon="4.3048813"><ele>0.0</ele><time>2026-04-30T14:56:12.007Z</time></trkpt><trkpt lat="42.0802353" lon="4.304991"><ele>0.0</ele><time>2026-04-30T14:56:13.007Z</time></trkpt><trkpt lat="42.0802775" lon="4.3050994"><ele>0.0</ele><time>2026-04-30T14:56:14.007Z</time></trkpt><trkpt lat="42.0803183" lon="4.3052117"><ele>0.0</ele><time>2026-04-30T14:56:15.007Z</time></trkpt><trkpt lat="42.0803585" lon="4.3053208"><ele>0.0</ele><time>2026-04-30T14:56:16.008Z</time></trkpt><trkpt lat="42.0804056" lon="4.3054278"><ele>0.0</ele><time>2026-04-30T14:56:17.007Z</time></trkpt><trkpt lat="42.0804437" lon="4.3055348"><ele>0.0</ele><time>2026-04-30T14:56:18.008Z</time></trkpt><trkpt lat="42.080478" lon="4.3056414"><ele>0.0</ele><time>2026-04-30T14:56:19.007Z</time></trkpt><trkpt lat="42.0805542" lon="4.3058389"><ele>0.0</ele><time>2026-04-30T14:56:21.008Z</time></trkpt><trkpt lat="42.08063" lon="4.306042"><ele>0.0</ele><time>2026-04-30T14:56:23.008Z</time></trkpt><trkpt lat="42.0806814" lon="4.3061382"><ele>0.0</ele><time>2026-04-30T14:56:24.008Z</time></trkpt><trkpt lat="42.0807214" lon="4.3062462"><ele>0.0</ele><time>2026-04-30T14:56:25.007Z</time></trkpt><trkpt lat="42.0807601" lon="4.3063501"><ele>0.0</ele><time>2026-04-30T14:56:26.007Z</time></trkpt><trkpt lat="42.0807971" lon="4.3064575"><ele>0.0</ele><time>2026-04-30T14:56:27.007Z</time></trkpt><trkpt lat="42.0808327" lon="4.3065596"><ele>0.0</ele><time>2026-04-30T14:56:28.008Z</time></trkpt><trkpt lat="42.0808659" lon="4.3066573"><ele>0.0</ele><time>2026-04-30T14:56:29.007Z</time></trkpt><trkpt lat="42.0808965" lon="4.3067572"><ele>0.0</ele><time>2026-04-30T14:56:30.008Z</time></trkpt><trkpt lat="42.0809746" lon="4.3069664"><ele>0.0</ele><time>2026-04-30T14:56:32.007Z</time></trkpt><trkpt lat="42.0810161" lon="4.3070745"><ele>0.0</ele><time>2026-04-30T14:56:33.008Z</time></trkpt><trkpt lat="42.0810568" lon="4.3071772"><ele>0.0</ele><time>2026-04-30T14:56:34.008Z</time></trkpt><trkpt lat="42.0810982" lon="4.3072758"><ele>0.0</ele><time>2026-04-30T14:56:35.007Z</time></trkpt><trkpt lat="42.0811385" lon="4.3073815"><ele>0.0</ele><time>2026-04-30T14:56:36.008Z</time></trkpt><trkpt lat="42.081184" lon="4.3074806"><ele>0.0</ele><time>2026-04-30T14:56:37.008Z</time></trkpt><trkpt lat="42.0812211" lon="4.3075829"><ele>0.0</ele><time>2026-04-30T14:56:38.008Z</time></trkpt><trkpt lat="42.0812602" lon="4.3076864"><ele>0.0</ele><time>2026-04-30T14:56:39.007Z</time></trkpt><trkpt lat="42.0812937" lon="4.3077885"><ele>0.0</ele><time>2026-04-30T14:56:40.007Z</time></trkpt><trkpt lat="42.0813301" lon="4.3078916"><ele>0.0</ele><time>2026-04-30T14:56:41.007Z</time></trkpt><trkpt lat="42.0813701" lon="4.3079949"><ele>0.0</ele><time>2026-04-30T14:56:42.007Z</time></trkpt><trkpt lat="42.0814116" lon="4.308104"><ele>0.0</ele><time>2026-04-30T14:56:43.007Z</time></trkpt><trkpt lat="42.0814501" lon="4.3082116"><ele>0.0</ele><time>2026-04-30T14:56:44.007Z</time></trkpt><trkpt lat="42.0814887" lon="4.3083151"><ele>0.0</ele><time>2026-04-30T14:56:45.008Z</time></trkpt><trkpt lat="42.0815256" lon="4.3084187"><ele>0.0</ele><time>2026-04-30T14:56:46.007Z</time></trkpt><trkpt lat="42.081565" lon="4.3085233"><ele>0.0</ele><time>2026-04-30T14:56:47.008Z</time></trkpt><trkpt lat="42.0816036" lon="4.3086279"><ele>0.0</ele><time>2026-04-30T14:56:48.008Z</time></trkpt><trkpt lat="42.0816449" lon="4.3087357"><ele>0.0</ele><time>2026-04-30T14:56:49.007Z</time></trkpt><trkpt lat="42.0816838" lon="4.3088396"><ele>0.0</ele><time>2026-04-30T14:56:50.007Z</time></trkpt><trkpt lat="42.0817206" lon="4.3089388"><ele>0.0</ele><time>2026-04-30T14:56:51.008Z</time></trkpt><trkpt lat="42.0817584" lon="4.3090429"><ele>0.0</ele><time>2026-04-30T14:56:52.008Z</time></trkpt><trkpt lat="42.0819035" lon="4.3094532"><ele>0.0</ele><time>2026-04-30T14:56:56.008Z</time></trkpt><trkpt lat="42.0819399" lon="4.3095609"><ele>0.0</ele><time>2026-04-30T14:56:57.008Z</time></trkpt><trkpt lat="42.0819756" lon="4.3096648"><ele>0.0</ele><time>2026-04-30T14:56:58.007Z</time></trkpt><trkpt lat="42.0820133" lon="4.3097655"><ele>0.0</ele><time>2026-04-30T14:56:59.008Z</time></trkpt><trkpt lat="42.0820518" lon="4.3098697"><ele>0.0</ele><time>2026-04-30T14:57:00.007Z</time></trkpt><trkpt lat="42.0820921" lon="4.3099685"><ele>0.0</ele><time>2026-04-30T14:57:01.007Z</time></trkpt><trkpt lat="42.0821302" lon="4.310076"><ele>0.0</ele><time>2026-04-30T14:57:02.008Z</time></trkpt><trkpt lat="42.0821669" lon="4.3101828"><ele>0.0</ele><time>2026-04-30T14:57:03.007Z</time></trkpt><trkpt lat="42.0822019" lon="4.3102897"><ele>0.0</ele><time>2026-04-30T14:57:04.008Z</time></trkpt><trkpt lat="42.0822367" lon="4.3103963"><ele>0.0</ele><time>2026-04-30T14:57:05.007Z</time></trkpt><trkpt lat="42.0822733" lon="4.3105031"><ele>0.0</ele><time>2026-04-30T14:57:06.008Z</time></trkpt><trkpt lat="42.0823117" lon="4.3106112"><ele>0.0</ele><time>2026-04-30T14:57:07.007Z</time></trkpt><trkpt lat="42.0823499" lon="4.31072"><ele>0.0</ele><time>2026-04-30T14:57:08.008Z</time></trkpt><trkpt lat="42.0823884" lon="4.3108281"><ele>0.0</ele><time>2026-04-30T14:57:09.007Z</time></trkpt><trkpt lat="42.0824288" lon="4.3109307"><ele>0.0</ele><time>2026-04-30T14:57:10.008Z</time></trkpt><trkpt lat="42.082464" lon="4.3110326"><ele>0.0</ele><time>2026-04-30T14:57:11.008Z</time></trkpt><trkpt lat="42.082503" lon="4.3111344"><ele>0.0</ele><time>2026-04-30T14:57:12.007Z</time></trkpt><trkpt lat="42.0825407" lon="4.31123"><ele>0.0</ele><time>2026-04-30T14:57:13.008Z</time></trkpt><trkpt lat="42.0825833" lon="4.3113364"><ele>0.0</ele><time>2026-04-30T14:57:14.007Z</time></trkpt><trkpt lat="42.0826277" lon="4.3114457"><ele>0.0</ele><time>2026-04-30T14:57:15.007Z</time></trkpt><trkpt lat="42.0827147" lon="4.3116539"><ele>0.0</ele><time>2026-04-30T14:57:17.008Z</time></trkpt><trkpt lat="42.0827563" lon="4.3117582"><ele>0.0</ele><time>2026-04-30T14:57:18.007Z</time></trkpt><trkpt lat="42.0827951" lon="4.3118561"><ele>0.0</ele><time>2026-04-30T14:57:19.008Z</time></trkpt><trkpt lat="42.0828408" lon="4.3119664"><ele>0.0</ele><time>2026-04-30T14:57:20.007Z</time></trkpt><trkpt lat="42.0828851" lon="4.3120667"><ele>0.0</ele><time>2026-04-30T14:57:21.007Z</time></trkpt><trkpt lat="42.0829241" lon="4.3121627"><ele>0.0</ele><time>2026-04-30T14:57:22.008Z</time></trkpt><trkpt lat="42.0829638" lon="4.3122533"><ele>0.0</ele><time>2026-04-30T14:57:23.008Z</time></trkpt><trkpt lat="42.083002" lon="4.3123479"><ele>0.0</ele><time>2026-04-30T14:57:24.008Z</time></trkpt><trkpt lat="42.0830387" lon="4.3124487"><ele>0.0</ele><time>2026-04-30T14:57:25.008Z</time></trkpt><trkpt lat="42.0831169" lon="4.3126525"><ele>0.0</ele><time>2026-04-30T14:57:27.007Z</time></trkpt><trkpt lat="42.083155" lon="4.3127567"><ele>0.0</ele><time>2026-04-30T14:57:28.007Z</time></trkpt><trkpt lat="42.0831968" lon="4.3128558"><ele>0.0</ele><time>2026-04-30T14:57:29.007Z</time></trkpt><trkpt lat="42.0832336" lon="4.3129602"><ele>0.0</ele><time>2026-04-30T14:57:30.008Z</time></trkpt><trkpt lat="42.0832717" lon="4.3130652"><ele>0.0</ele><time>2026-04-30T14:57:31.008Z</time></trkpt><trkpt lat="42.0833084" lon="4.3131717"><ele>0.0</ele><time>2026-04-30T14:57:32.007Z</time></trkpt><trkpt lat="42.0833472" lon="4.3132725"><ele>0.0</ele><time>2026-04-30T14:57:33.007Z</time></trkpt><trkpt lat="42.0833854" lon="4.3133751"><ele>0.0</ele><time>2026-04-30T14:57:34.008Z</time></trkpt><trkpt lat="42.0834234" lon="4.313486"><ele>0.0</ele><time>2026-04-30T14:57:35.008Z</time></trkpt><trkpt lat="42.0834587" lon="4.3135872"><ele>0.0</ele><time>2026-04-30T14:57:36.008Z</time></trkpt><trkpt lat="42.0835336" lon="4.3137928"><ele>0.0</ele><time>2026-04-30T14:57:38.008Z</time></trkpt><trkpt lat="42.0835704" lon="4.3139008"><ele>0.0</ele><time>2026-04-30T14:57:39.007Z</time></trkpt><trkpt lat="42.0836084" lon="4.3140111"><ele>0.0</ele><time>2026-04-30T14:57:40.007Z</time></trkpt><trkpt lat="42.0836476" lon="4.3141098"><ele>0.0</ele><time>2026-04-30T14:57:41.008Z</time></trkpt><trkpt lat="42.0836824" lon="4.3142095"><ele>0.0</ele><time>2026-04-30T14:57:42.007Z</time></trkpt><trkpt lat="42.0837142" lon="4.3143151"><ele>0.0</ele><time>2026-04-30T14:57:43.007Z</time></trkpt><trkpt lat="42.0837504" lon="4.3144202"><ele>0.0</ele><time>2026-04-30T14:57:44.008Z</time></trkpt><trkpt lat="42.0837915" lon="4.3145308"><ele>0.0</ele><time>2026-04-30T14:57:45.008Z</time></trkpt><trkpt lat="42.0838331" lon="4.3146406"><ele>0.0</ele><time>2026-04-30T14:57:46.008Z</time></trkpt><trkpt lat="42.0838779" lon="4.3147547"><ele>0.0</ele><time>2026-04-30T14:57:47.008Z</time></trkpt><trkpt lat="42.083917" lon="4.3148598"><ele>0.0</ele><time>2026-04-30T14:57:48.007Z</time></trkpt><trkpt lat="42.083955" lon="4.3149622"><ele>0.0</ele><time>2026-04-30T14:57:49.007Z</time></trkpt><trkpt lat="42.0839904" lon="4.315061"><ele>0.0</ele><time>2026-04-30T14:57:50.007Z</time></trkpt><trkpt lat="42.0840283" lon="4.3151665"><ele>0.0</ele><time>2026-04-30T14:57:51.008Z</time></trkpt><trkpt lat="42.0840666" lon="4.3152687"><ele>0.0</ele><time>2026-04-30T14:57:52.007Z</time></trkpt><trkpt lat="42.0841035" lon="4.3153691"><ele>0.0</ele><time>2026-04-30T14:57:53.007Z</time></trkpt><trkpt lat="42.0841404" lon="4.3154676"><ele>0.0</ele><time>2026-04-30T14:57:54.008Z</time></trkpt><trkpt lat="42.0841826" lon="4.3155671"><ele>0.0</ele><time>2026-04-30T14:57:55.007Z</time></trkpt><trkpt lat="42.0842218" lon="4.315667"><ele>0.0</ele><time>2026-04-30T14:57:56.008Z</time></trkpt><trkpt lat="42.0842614" lon="4.3157746"><ele>0.0</ele><time>2026-04-30T14:57:57.007Z</time></trkpt><trkpt lat="42.0842986" lon="4.3158801"><ele>0.0</ele><time>2026-04-30T14:57:58.008Z</time></trkpt><trkpt lat="42.084459" lon="4.3162791"><ele>0.0</ele><time>2026-04-30T14:58:02.008Z</time></trkpt><trkpt lat="42.0844984" lon="4.3163801"><ele>0.0</ele><time>2026-04-30T14:58:03.007Z</time></trkpt><trkpt lat="42.0845396" lon="4.3164874"><ele>0.0</ele><time>2026-04-30T14:58:04.008Z</time></trkpt><trkpt lat="42.0845819" lon="4.3166027"><ele>0.0</ele><time>2026-04-30T14:58:05.008Z</time></trkpt><trkpt lat="42.0846258" lon="4.3167107"><ele>0.0</ele><time>2026-04-30T14:58:06.007Z</time></trkpt><trkpt lat="42.0846681" lon="4.3168178"><ele>0.0</ele><time>2026-04-30T14:58:07.007Z</time></trkpt><trkpt lat="42.0847125" lon="4.3169185"><ele>0.0</ele><time>2026-04-30T14:58:08.008Z</time></trkpt><trkpt lat="42.0847527" lon="4.3170159"><ele>0.0</ele><time>2026-04-30T14:58:09.008Z</time></trkpt><trkpt lat="42.0847915" lon="4.3171179"><ele>0.0</ele><time>2026-04-30T14:58:10.007Z</time></trkpt><trkpt lat="42.0848287" lon="4.3172203"><ele>0.0</ele><time>2026-04-30T14:58:11.008Z</time></trkpt><trkpt lat="42.0848671" lon="4.3173205"><ele>0.0</ele><time>2026-04-30T14:58:12.008Z</time></trkpt><trkpt lat="42.0849083" lon="4.3174188"><ele>0.0</ele><time>2026-04-30T14:58:13.007Z</time></trkpt><trkpt lat="42.0849557" lon="4.3175216"><ele>0.0</ele><time>2026-04-30T14:58:14.007Z</time></trkpt><trkpt lat="42.0850055" lon="4.3176218"><ele>0.0</ele><time>2026-04-30T14:58:15.008Z</time></trkpt><trkpt lat="42.0850425" lon="4.3177189"><ele>0.0</ele><time>2026-04-30T14:58:16.007Z</time></trkpt><trkpt lat="42.0850763" lon="4.3178183"><ele>0.0</ele><time>2026-04-30T14:58:17.008Z</time></trkpt><trkpt lat="42.0851069" lon="4.3179212"><ele>0.0</ele><time>2026-04-30T14:58:18.007Z</time></trkpt><trkpt lat="42.0851525" lon="4.3180273"><ele>0.0</ele><time>2026-04-30T14:58:19.007Z</time></trkpt><trkpt lat="42.0851992" lon="4.3181271"><ele>0.0</ele><time>2026-04-30T14:58:20.007Z</time></trkpt><trkpt lat="42.085236" lon="4.3182267"><ele>0.0</ele><time>2026-04-30T14:58:21.008Z</time></trkpt><trkpt lat="42.0853209" lon="4.3184283"><ele>0.0</ele><time>2026-04-30T14:58:23.007Z</time></trkpt><trkpt lat="42.0853562" lon="4.3185329"><ele>0.0</ele><time>2026-04-30T14:58:24.007Z</time></trkpt><trkpt lat="42.0853893" lon="4.3186393"><ele>0.0</ele><time>2026-04-30T14:58:25.007Z</time></trkpt><trkpt lat="42.085427" lon="4.3187474"><ele>0.0</ele><time>2026-04-30T14:58:26.008Z</time></trkpt><trkpt lat="42.0854681" lon="4.3188527"><ele>0.0</ele><time>2026-04-30T14:58:27.008Z</time></trkpt><trkpt lat="42.0855072" lon="4.3189591"><ele>0.0</ele><time>2026-04-30T14:58:28.008Z</time></trkpt><trkpt lat="42.0855513" lon="4.3190615"><ele>0.0</ele><time>2026-04-30T14:58:29.007Z</time></trkpt><trkpt lat="42.0855919" lon="4.3191534"><ele>0.0</ele><time>2026-04-30T14:58:30.007Z</time></trkpt><trkpt lat="42.0856333" lon="4.3192535"><ele>0.0</ele><time>2026-04-30T14:58:31.007Z</time></trkpt><trkpt lat="42.0856989" lon="4.319474"><ele>0.0</ele><time>2026-04-30T14:58:33.008Z</time></trkpt><trkpt lat="42.0857728" lon="4.3196938"><ele>0.0</ele><time>2026-04-30T14:58:35.007Z</time></trkpt><trkpt lat="42.0858129" lon="4.3198026"><ele>0.0</ele><time>2026-04-30T14:58:36.007Z</time></trkpt><trkpt lat="42.0858543" lon="4.3199095"><ele>0.0</ele><time>2026-04-30T14:58:37.006Z</time></trkpt><trkpt lat="42.0859035" lon="4.3200162"><ele>0.0</ele><time>2026-04-30T14:58:38.006Z</time></trkpt><trkpt lat="42.0859405" lon="4.3201201"><ele>0.0</ele><time>2026-04-30T14:58:39.007Z</time></trkpt><trkpt lat="42.0859724" lon="4.3202197"><ele>0.0</ele><time>2026-04-30T14:58:40.006Z</time></trkpt><trkpt lat="42.0860074" lon="4.3203184"><ele>0.0</ele><time>2026-04-30T14:58:41.007Z</time></trkpt><trkpt lat="42.0860439" lon="4.3204192"><ele>0.0</ele><time>2026-04-30T14:58:42.006Z</time></trkpt><trkpt lat="42.0861154" lon="4.320617"><ele>0.0</ele><time>2026-04-30T14:58:44.007Z</time></trkpt><trkpt lat="42.0861547" lon="4.3207186"><ele>0.0</ele><time>2026-04-30T14:58:45.006Z</time></trkpt><trkpt lat="42.0861892" lon="4.3208206"><ele>0.0</ele><time>2026-04-30T14:58:46.006Z</time></trkpt><trkpt lat="42.0862281" lon="4.320925"><ele>0.0</ele><time>2026-04-30T14:58:47.006Z</time></trkpt><trkpt lat="42.086271" lon="4.3210313"><ele>0.0</ele><time>2026-04-30T14:58:48.006Z</time></trkpt><trkpt lat="42.08631" lon="4.3211365"><ele>0.0</ele><time>2026-04-30T14:58:49.007Z</time></trkpt><trkpt lat="42.0863483" lon="4.3212402"><ele>0.0</ele><time>2026-04-30T14:58:50.007Z</time></trkpt><trkpt lat="42.086385" lon="4.3213424"><ele>0.0</ele><time>2026-04-30T14:58:51.007Z</time></trkpt><trkpt lat="42.0864235" lon="4.321448"><ele>0.0</ele><time>2026-04-30T14:58:52.006Z</time></trkpt><trkpt lat="42.0864604" lon="4.3215489"><ele>0.0</ele><time>2026-04-30T14:58:53.007Z</time></trkpt><trkpt lat="42.0864983" lon="4.3216534"><ele>0.0</ele><time>2026-04-30T14:58:54.007Z</time></trkpt><trkpt lat="42.0865382" lon="4.3217611"><ele>0.0</ele><time>2026-04-30T14:58:55.006Z</time></trkpt><trkpt lat="42.0865737" lon="4.3218637"><ele>0.0</ele><time>2026-04-30T14:58:56.007Z</time></trkpt><trkpt lat="42.0866088" lon="4.321967"><ele>0.0</ele><time>2026-04-30T14:58:57.007Z</time></trkpt><trkpt lat="42.086641" lon="4.3220773"><ele>0.0</ele><time>2026-04-30T14:58:58.006Z</time></trkpt><trkpt lat="42.0866782" lon="4.322186"><ele>0.0</ele><time>2026-04-30T14:58:59.007Z</time></trkpt><trkpt lat="42.0867179" lon="4.3222926"><ele>0.0</ele><time>2026-04-30T14:59:00.006Z</time></trkpt><trkpt lat="42.086758" lon="4.322395"><ele>0.0</ele><time>2026-04-30T14:59:01.006Z</time></trkpt><trkpt lat="42.0867969" lon="4.3224952"><ele>0.0</ele><time>2026-04-30T14:59:02.007Z</time></trkpt><trkpt lat="42.0868421" lon="4.3225954"><ele>0.0</ele><time>2026-04-30T14:59:03.007Z</time></trkpt><trkpt lat="42.0868846" lon="4.3227039"><ele>0.0</ele><time>2026-04-30T14:59:04.007Z</time></trkpt><trkpt lat="42.0870405" lon="4.323117"><ele>0.0</ele><time>2026-04-30T14:59:08.007Z</time></trkpt><trkpt lat="42.0870799" lon="4.3232271"><ele>0.0</ele><time>2026-04-30T14:59:09.006Z</time></trkpt><trkpt lat="42.0871201" lon="4.3233329"><ele>0.0</ele><time>2026-04-30T14:59:10.006Z</time></trkpt><trkpt lat="42.0871584" lon="4.3234365"><ele>0.0</ele><time>2026-04-30T14:59:11.007Z</time></trkpt><trkpt lat="42.0872012" lon="4.3235468"><ele>0.0</ele><time>2026-04-30T14:59:12.006Z</time></trkpt><trkpt lat="42.0872402" lon="4.3236512"><ele>0.0</ele><time>2026-04-30T14:59:13.007Z</time></trkpt><trkpt lat="42.0872784" lon="4.3237562"><ele>0.0</ele><time>2026-04-30T14:59:14.006Z</time></trkpt><trkpt lat="42.0873151" lon="4.3238585"><ele>0.0</ele><time>2026-04-30T14:59:15.006Z</time></trkpt><trkpt lat="42.0873504" lon="4.3239576"><ele>0.0</ele><time>2026-04-30T14:59:16.007Z</time></trkpt><trkpt lat="42.0873914" lon="4.3240659"><ele>0.0</ele><time>2026-04-30T14:59:17.007Z</time></trkpt><trkpt lat="42.0874304" lon="4.3241716"><ele>0.0</ele><time>2026-04-30T14:59:18.007Z</time></trkpt><trkpt lat="42.0874672" lon="4.3242696"><ele>0.0</ele><time>2026-04-30T14:59:19.006Z</time></trkpt><trkpt lat="42.0875052" lon="4.3243703"><ele>0.0</ele><time>2026-04-30T14:59:20.007Z</time></trkpt><trkpt lat="42.087545" lon="4.3244773"><ele>0.0</ele><time>2026-04-30T14:59:21.007Z</time></trkpt><trkpt lat="42.0875836" lon="4.3245784"><ele>0.0</ele><time>2026-04-30T14:59:22.006Z</time></trkpt><trkpt lat="42.0876235" lon="4.324677"><ele>0.0</ele><time>2026-04-30T14:59:23.007Z</time></trkpt><trkpt lat="42.0876633" lon="4.324781"><ele>0.0</ele><time>2026-04-30T14:59:24.007Z</time></trkpt><trkpt lat="42.0877017" lon="4.3248866"><ele>0.0</ele><time>2026-04-30T14:59:25.006Z</time></trkpt><trkpt lat="42.0877419" lon="4.3249869"><ele>0.0</ele><time>2026-04-30T14:59:26.006Z</time></trkpt><trkpt lat="42.0877791" lon="4.3250897"><ele>0.0</ele><time>2026-04-30T14:59:27.006Z</time></trkpt><trkpt lat="42.087855" lon="4.3252925"><ele>0.0</ele><time>2026-04-30T14:59:29.007Z</time></trkpt><trkpt lat="42.0878991" lon="4.3253938"><ele>0.0</ele><time>2026-04-30T14:59:30.007Z</time></trkpt><trkpt lat="42.0879398" lon="4.3254941"><ele>0.0</ele><time>2026-04-30T14:59:31.006Z</time></trkpt><trkpt lat="42.0879814" lon="4.3256001"><ele>0.0</ele><time>2026-04-30T14:59:32.006Z</time></trkpt><trkpt lat="42.0880218" lon="4.3257033"><ele>0.0</ele><time>2026-04-30T14:59:33.007Z</time></trkpt><trkpt lat="42.0880631" lon="4.3258065"><ele>0.0</ele><time>2026-04-30T14:59:34.007Z</time></trkpt><trkpt lat="42.0881046" lon="4.3259113"><ele>0.0</ele><time>2026-04-30T14:59:35.007Z</time></trkpt><trkpt lat="42.0881466" lon="4.3260104"><ele>0.0</ele><time>2026-04-30T14:59:36.007Z</time></trkpt><trkpt lat="42.0881869" lon="4.3261117"><ele>0.0</ele><time>2026-04-30T14:59:37.006Z</time></trkpt><trkpt lat="42.0882615" lon="4.3263137"><ele>0.0</ele><time>2026-04-30T14:59:39.006Z</time></trkpt><trkpt lat="42.0882986" lon="4.3264144"><ele>0.0</ele><time>2026-04-30T14:59:40.006Z</time></trkpt><trkpt lat="42.0883367" lon="4.3265227"><ele>0.0</ele><time>2026-04-30T14:59:41.007Z</time></trkpt><trkpt lat="42.0883733" lon="4.3266255"><ele>0.0</ele><time>2026-04-30T14:59:42.006Z</time></trkpt><trkpt lat="42.0884118" lon="4.3267271"><ele>0.0</ele><time>2026-04-30T14:59:43.006Z</time></trkpt><trkpt lat="42.0884871" lon="4.3269208"><ele>0.0</ele><time>2026-04-30T14:59:45.006Z</time></trkpt><trkpt lat="42.0885266" lon="4.3270248"><ele>0.0</ele><time>2026-04-30T14:59:46.006Z</time></trkpt><trkpt lat="42.0885667" lon="4.3271323"><ele>0.0</ele><time>2026-04-30T14:59:47.006Z</time></trkpt><trkpt lat="42.0886112" lon="4.3272418"><ele>0.0</ele><time>2026-04-30T14:59:48.006Z</time></trkpt><trkpt lat="42.0886969" lon="4.3274581"><ele>0.0</ele><time>2026-04-30T14:59:50.007Z</time></trkpt><trkpt lat="42.0887353" lon="4.3275605"><ele>0.0</ele><time>2026-04-30T14:59:51.006Z</time></trkpt><trkpt lat="42.0887776" lon="4.3276624"><ele>0.0</ele><time>2026-04-30T14:59:52.006Z</time></trkpt><trkpt lat="42.0888168" lon="4.3277668"><ele>0.0</ele><time>2026-04-30T14:59:53.007Z</time></trkpt><trkpt lat="42.0888582" lon="4.327871"><ele>0.0</ele><time>2026-04-30T14:59:54.006Z</time></trkpt><trkpt lat="42.0888941" lon="4.3279775"><ele>0.0</ele><time>2026-04-30T14:59:55.007Z</time></trkpt><trkpt lat="42.088932" lon="4.3280812"><ele>0.0</ele><time>2026-04-30T14:59:56.006Z</time></trkpt><trkpt lat="42.088959" lon="4.3281859"><ele>0.0</ele><time>2026-04-30T14:59:57.006Z</time></trkpt><trkpt lat="42.0889939" lon="4.3282866"><ele>0.0</ele><time>2026-04-30T14:59:58.006Z</time></trkpt><trkpt lat="42.0890334" lon="4.3283876"><ele>0.0</ele><time>2026-04-30T14:59:59.007Z</time></trkpt><trkpt lat="42.0890764" lon="4.3284924"><ele>0.0</ele><time>2026-04-30T15:00:00.006Z</time></trkpt><trkpt lat="42.0891165" lon="4.3285943"><ele>0.0</ele><time>2026-04-30T15:00:01.007Z</time></trkpt><trkpt lat="42.0891597" lon="4.3286988"><ele>0.0</ele><time>2026-04-30T15:00:02.006Z</time></trkpt><trkpt lat="42.0892032" lon="4.3288008"><ele>0.0</ele><time>2026-04-30T15:00:03.006Z</time></trkpt><trkpt lat="42.0892423" lon="4.3288985"><ele>0.0</ele><time>2026-04-30T15:00:04.006Z</time></trkpt><trkpt lat="42.0892805" lon="4.3290011"><ele>0.0</ele><time>2026-04-30T15:00:05.007Z</time></trkpt><trkpt lat="42.0893203" lon="4.3291017"><ele>0.0</ele><time>2026-04-30T15:00:06.007Z</time></trkpt><trkpt lat="42.0893602" lon="4.3292092"><ele>0.0</ele><time>2026-04-30T15:00:07.006Z</time></trkpt><trkpt lat="42.0894005" lon="4.3293086"><ele>0.0</ele><time>2026-04-30T15:00:08.006Z</time></trkpt><trkpt lat="42.0894386" lon="4.3294113"><ele>0.0</ele><time>2026-04-30T15:00:09.006Z</time></trkpt><trkpt lat="42.0894753" lon="4.3295147"><ele>0.0</ele><time>2026-04-30T15:00:10.006Z</time></trkpt><trkpt lat="42.0895874" lon="4.3298221"><ele>0.0</ele><time>2026-04-30T15:00:13.007Z</time></trkpt><trkpt lat="42.0896253" lon="4.3299252"><ele>0.0</ele><time>2026-04-30T15:00:14.006Z</time></trkpt><trkpt lat="42.0896649" lon="4.330034"><ele>0.0</ele><time>2026-04-30T15:00:15.007Z</time></trkpt><trkpt lat="42.0897006" lon="4.3301381"><ele>0.0</ele><time>2026-04-30T15:00:16.006Z</time></trkpt><trkpt lat="42.0897401" lon="4.3302441"><ele>0.0</ele><time>2026-04-30T15:00:17.006Z</time></trkpt><trkpt lat="42.089776" lon="4.3303422"><ele>0.0</ele><time>2026-04-30T15:00:18.006Z</time></trkpt><trkpt lat="42.089812" lon="4.3304446"><ele>0.0</ele><time>2026-04-30T15:00:19.006Z</time></trkpt><trkpt lat="42.0898531" lon="4.3305536"><ele>0.0</ele><time>2026-04-30T15:00:20.006Z</time></trkpt><trkpt lat="42.0898935" lon="4.3306607"><ele>0.0</ele><time>2026-04-30T15:00:21.006Z</time></trkpt><trkpt lat="42.0899332" lon="4.3307691"><ele>0.0</ele><time>2026-04-30T15:00:22.007Z</time></trkpt><trkpt lat="42.0899719" lon="4.3308701"><ele>0.0</ele><time>2026-04-30T15:00:23.006Z</time></trkpt><trkpt lat="42.0900118" lon="4.3309745"><ele>0.0</ele><time>2026-04-30T15:00:24.006Z</time></trkpt><trkpt lat="42.0900489" lon="4.3310739"><ele>0.0</ele><time>2026-04-30T15:00:25.007Z</time></trkpt><trkpt lat="42.09009" lon="4.3311783"><ele>0.0</ele><time>2026-04-30T15:00:26.006Z</time></trkpt><trkpt lat="42.0901272" lon="4.3312776"><ele>0.0</ele><time>2026-04-30T15:00:27.007Z</time></trkpt><trkpt lat="42.0901653" lon="4.331377"><ele>0.0</ele><time>2026-04-30T15:00:28.006Z</time></trkpt><trkpt lat="42.0902051" lon="4.331484"><ele>0.0</ele><time>2026-04-30T15:00:29.007Z</time></trkpt><trkpt lat="42.0902437" lon="4.3315881"><ele>0.0</ele><time>2026-04-30T15:00:30.006Z</time></trkpt><trkpt lat="42.090282" lon="4.3316928"><ele>0.0</ele><time>2026-04-30T15:00:31.007Z</time></trkpt><trkpt lat="42.0903152" lon="4.3318015"><ele>0.0</ele><time>2026-04-30T15:00:32.007Z</time></trkpt><trkpt lat="42.0903868" lon="4.3319998"><ele>0.0</ele><time>2026-04-30T15:00:34.007Z</time></trkpt><trkpt lat="42.0904297" lon="4.3321029"><ele>0.0</ele><time>2026-04-30T15:00:35.007Z</time></trkpt><trkpt lat="42.0904715" lon="4.3322046"><ele>0.0</ele><time>2026-04-30T15:00:36.006Z</time></trkpt><trkpt lat="42.0905132" lon="4.3323063"><ele>0.0</ele><time>2026-04-30T15:00:37.006Z</time></trkpt><trkpt lat="42.0905551" lon="4.332408"><ele>0.0</ele><time>2026-04-30T15:00:38.006Z</time></trkpt><trkpt lat="42.090595" lon="4.3325174"><ele>0.0</ele><time>2026-04-30T15:00:39.006Z</time></trkpt><trkpt lat="42.0906321" lon="4.3326188"><ele>0.0</ele><time>2026-04-30T15:00:40.006Z</time></trkpt><trkpt lat="42.0906702" lon="4.3327246"><ele>0.0</ele><time>2026-04-30T15:00:41.007Z</time></trkpt><trkpt lat="42.0907071" lon="4.3328282"><ele>0.0</ele><time>2026-04-30T15:00:42.006Z</time></trkpt><trkpt lat="42.0907835" lon="4.333046"><ele>0.0</ele><time>2026-04-30T15:00:44.007Z</time></trkpt><trkpt lat="42.090816" lon="4.333148"><ele>0.0</ele><time>2026-04-30T15:00:45.006Z</time></trkpt><trkpt lat="42.0908522" lon="4.3332486"><ele>0.0</ele><time>2026-04-30T15:00:46.006Z</time></trkpt><trkpt lat="42.0908948" lon="4.3333543"><ele>0.0</ele><time>2026-04-30T15:00:47.006Z</time></trkpt><trkpt lat="42.0909366" lon="4.3334606"><ele>0.0</ele><time>2026-04-30T15:00:48.006Z</time></trkpt><trkpt lat="42.0909781" lon="4.3335674"><ele>0.0</ele><time>2026-04-30T15:00:49.006Z</time></trkpt><trkpt lat="42.0910154" lon="4.3336669"><ele>0.0</ele><time>2026-04-30T15:00:50.007Z</time></trkpt><trkpt lat="42.0910549" lon="4.3337741"><ele>0.0</ele><time>2026-04-30T15:00:51.006Z</time></trkpt><trkpt lat="42.0910919" lon="4.3338828"><ele>0.0</ele><time>2026-04-30T15:00:52.007Z</time></trkpt><trkpt lat="42.0911272" lon="4.333991"><ele>0.0</ele><time>2026-04-30T15:00:53.006Z</time></trkpt><trkpt lat="42.0912004" lon="4.3342016"><ele>0.0</ele><time>2026-04-30T15:00:55.006Z</time></trkpt><trkpt lat="42.0912353" lon="4.3343025"><ele>0.0</ele><time>2026-04-30T15:00:56.007Z</time></trkpt><trkpt lat="42.0912717" lon="4.3344069"><ele>0.0</ele><time>2026-04-30T15:00:57.007Z</time></trkpt><trkpt lat="42.0913083" lon="4.3345104"><ele>0.0</ele><time>2026-04-30T15:00:58.007Z</time></trkpt><trkpt lat="42.0913482" lon="4.3346165"><ele>0.0</ele><time>2026-04-30T15:00:59.006Z</time></trkpt><trkpt lat="42.091388" lon="4.3347176"><ele>0.0</ele><time>2026-04-30T15:01:00.007Z</time></trkpt><trkpt lat="42.0914235" lon="4.3348205"><ele>0.0</ele><time>2026-04-30T15:01:01.007Z</time></trkpt><trkpt lat="42.0914602" lon="4.3349251"><ele>0.0</ele><time>2026-04-30T15:01:02.006Z</time></trkpt><trkpt lat="42.0914957" lon="4.3350213"><ele>0.0</ele><time>2026-04-30T15:01:03.006Z</time></trkpt><trkpt lat="42.0915336" lon="4.3351231"><ele>0.0</ele><time>2026-04-30T15:01:04.006Z</time></trkpt><trkpt lat="42.0915734" lon="4.3352266"><ele>0.0</ele><time>2026-04-30T15:01:05.007Z</time></trkpt><trkpt lat="42.0916133" lon="4.3353317"><ele>0.0</ele><time>2026-04-30T15:01:06.006Z</time></trkpt><trkpt lat="42.0916502" lon="4.3354337"><ele>0.0</ele><time>2026-04-30T15:01:07.006Z</time></trkpt><trkpt lat="42.0916883" lon="4.3355372"><ele>0.0</ele><time>2026-04-30T15:01:08.006Z</time></trkpt><trkpt lat="42.0917251" lon="4.3356406"><ele>0.0</ele><time>2026-04-30T15:01:09.007Z</time></trkpt><trkpt lat="42.0917647" lon="4.3357508"><ele>0.0</ele><time>2026-04-30T15:01:10.006Z</time></trkpt><trkpt lat="42.0918105" lon="4.3358583"><ele>0.0</ele><time>2026-04-30T15:01:11.006Z</time></trkpt><trkpt lat="42.0918515" lon="4.3359634"><ele>0.0</ele><time>2026-04-30T15:01:12.006Z</time></trkpt><trkpt lat="42.0918899" lon="4.3360655"><ele>0.0</ele><time>2026-04-30T15:01:13.006Z</time></trkpt><trkpt lat="42.0919271" lon="4.3361657"><ele>0.0</ele><time>2026-04-30T15:01:14.007Z</time></trkpt><trkpt lat="42.092037" lon="4.3364685"><ele>0.0</ele><time>2026-04-30T15:01:17.007Z</time></trkpt><trkpt lat="42.0920748" lon="4.3365748"><ele>0.0</ele><time>2026-04-30T15:01:18.007Z</time></trkpt><trkpt lat="42.0921134" lon="4.3366769"><ele>0.0</ele><time>2026-04-30T15:01:19.006Z</time></trkpt><trkpt lat="42.0921533" lon="4.3367782"><ele>0.0</ele><time>2026-04-30T15:01:20.006Z</time></trkpt><trkpt lat="42.0921918" lon="4.3368782"><ele>0.0</ele><time>2026-04-30T15:01:21.006Z</time></trkpt><trkpt lat="42.0922318" lon="4.33698"><ele>0.0</ele><time>2026-04-30T15:01:22.006Z</time></trkpt><trkpt lat="42.0922702" lon="4.3370822"><ele>0.0</ele><time>2026-04-30T15:01:23.006Z</time></trkpt><trkpt lat="42.09231" lon="4.3371868"><ele>0.0</ele><time>2026-04-30T15:01:24.006Z</time></trkpt><trkpt lat="42.0923485" lon="4.3372931"><ele>0.0</ele><time>2026-04-30T15:01:25.006Z</time></trkpt><trkpt lat="42.0923867" lon="4.3373982"><ele>0.0</ele><time>2026-04-30T15:01:26.006Z</time></trkpt><trkpt lat="42.0924251" lon="4.337506"><ele>0.0</ele><time>2026-04-30T15:01:27.006Z</time></trkpt><trkpt lat="42.0924649" lon="4.3376099"><ele>0.0</ele><time>2026-04-30T15:01:28.007Z</time></trkpt><trkpt lat="42.0925036" lon="4.3377104"><ele>0.0</ele><time>2026-04-30T15:01:29.007Z</time></trkpt><trkpt lat="42.0925387" lon="4.3378125"><ele>0.0</ele><time>2026-04-30T15:01:30.007Z</time></trkpt><trkpt lat="42.0925726" lon="4.3379214"><ele>0.0</ele><time>2026-04-30T15:01:31.006Z</time></trkpt><trkpt lat="42.0926084" lon="4.3380286"><ele>0.0</ele><time>2026-04-30T15:01:32.007Z</time></trkpt><trkpt lat="42.0926424" lon="4.3381327"><ele>0.0</ele><time>2026-04-30T15:01:33.007Z</time></trkpt><trkpt lat="42.0926772" lon="4.3382359"><ele>0.0</ele><time>2026-04-30T15:01:34.006Z</time></trkpt><trkpt lat="42.0927132" lon="4.3383447"><ele>0.0</ele><time>2026-04-30T15:01:35.007Z</time></trkpt><trkpt lat="42.0927503" lon="4.338453"><ele>0.0</ele><time>2026-04-30T15:01:36.006Z</time></trkpt><trkpt lat="42.0928327" lon="4.3386691"><ele>0.0</ele><time>2026-04-30T15:01:38.007Z</time></trkpt><trkpt lat="42.0928772" lon="4.3387808"><ele>0.0</ele><time>2026-04-30T15:01:39.007Z</time></trkpt><trkpt lat="42.0929165" lon="4.3388852"><ele>0.0</ele><time>2026-04-30T15:01:40.007Z</time></trkpt><trkpt lat="42.0929553" lon="4.3389903"><ele>0.0</ele><time>2026-04-30T15:01:41.007Z</time></trkpt><trkpt lat="42.0929952" lon="4.3390936"><ele>0.0</ele><time>2026-04-30T15:01:42.006Z</time></trkpt><trkpt lat="42.093032" lon="4.3391972"><ele>0.0</ele><time>2026-04-30T15:01:43.007Z</time></trkpt><trkpt lat="42.093067" lon="4.3392976"><ele>0.0</ele><time>2026-04-30T15:01:44.007Z</time></trkpt><trkpt lat="42.0931048" lon="4.339399"><ele>0.0</ele><time>2026-04-30T15:01:45.006Z</time></trkpt><trkpt lat="42.0931446" lon="4.3395061"><ele>0.0</ele><time>2026-04-30T15:01:46.006Z</time></trkpt><trkpt lat="42.0931877" lon="4.3396074"><ele>0.0</ele><time>2026-04-30T15:01:47.007Z</time></trkpt><trkpt lat="42.0932974" lon="4.3397935"><ele>0.0</ele><time>2026-04-30T15:01:49.006Z</time></trkpt><trkpt lat="42.0933378" lon="4.339894"><ele>0.0</ele><time>2026-04-30T15:01:50.006Z</time></trkpt><trkpt lat="42.0934169" lon="4.3400941"><ele>0.0</ele><time>2026-04-30T15:01:52.007Z</time></trkpt><trkpt lat="42.0934594" lon="4.3401983"><ele>0.0</ele><time>2026-04-30T15:01:53.006Z</time></trkpt><trkpt lat="42.0934986" lon="4.3403003"><ele>0.0</ele><time>2026-04-30T15:01:54.006Z</time></trkpt><trkpt lat="42.0935368" lon="4.3404032"><ele>0.0</ele><time>2026-04-30T15:01:55.006Z</time></trkpt><trkpt lat="42.0935725" lon="4.3405037"><ele>0.0</ele><time>2026-04-30T15:01:56.006Z</time></trkpt><trkpt lat="42.0936059" lon="4.3406078"><ele>0.0</ele><time>2026-04-30T15:01:57.007Z</time></trkpt><trkpt lat="42.0936844" lon="4.3408105"><ele>0.0</ele><time>2026-04-30T15:01:59.007Z</time></trkpt><trkpt lat="42.0937253" lon="4.3409129"><ele>0.0</ele><time>2026-04-30T15:02:00.006Z</time></trkpt><trkpt lat="42.0937598" lon="4.3410189"><ele>0.0</ele><time>2026-04-30T15:02:01.006Z</time></trkpt><trkpt lat="42.0938015" lon="4.341123"><ele>0.0</ele><time>2026-04-30T15:02:02.006Z</time></trkpt><trkpt lat="42.0938422" lon="4.3412293"><ele>0.0</ele><time>2026-04-30T15:02:03.006Z</time></trkpt><trkpt lat="42.0938758" lon="4.3413447"><ele>0.0</ele><time>2026-04-30T15:02:04.007Z</time></trkpt><trkpt lat="42.0939124" lon="4.3414538"><ele>0.0</ele><time>2026-04-30T15:02:05.007Z</time></trkpt><trkpt lat="42.0939519" lon="4.3415551"><ele>0.0</ele><time>2026-04-30T15:02:06.007Z</time></trkpt><trkpt lat="42.0940005" lon="4.3416549"><ele>0.0</ele><time>2026-04-30T15:02:07.007Z</time></trkpt><trkpt lat="42.0940445" lon="4.3417578"><ele>0.0</ele><time>2026-04-30T15:02:08.007Z</time></trkpt><trkpt lat="42.0940865" lon="4.3418657"><ele>0.0</ele><time>2026-04-30T15:02:09.007Z</time></trkpt><trkpt lat="42.0941257" lon="4.3419652"><ele>0.0</ele><time>2026-04-30T15:02:10.006Z</time></trkpt><trkpt lat="42.0941654" lon="4.3420694"><ele>0.0</ele><time>2026-04-30T15:02:11.006Z</time></trkpt><trkpt lat="42.0941968" lon="4.3421744"><ele>0.0</ele><time>2026-04-30T15:02:12.007Z</time></trkpt><trkpt lat="42.0942312" lon="4.3422726"><ele>0.0</ele><time>2026-04-30T15:02:13.006Z</time></trkpt><trkpt lat="42.0942646" lon="4.3423766"><ele>0.0</ele><time>2026-04-30T15:02:14.006Z</time></trkpt><trkpt lat="42.0942994" lon="4.3424858"><ele>0.0</ele><time>2026-04-30T15:02:15.006Z</time></trkpt><trkpt lat="42.0943358" lon="4.342594"><ele>0.0</ele><time>2026-04-30T15:02:16.007Z</time></trkpt><trkpt lat="42.0943754" lon="4.3426966"><ele>0.0</ele><time>2026-04-30T15:02:17.006Z</time></trkpt><trkpt lat="42.0944053" lon="4.3428"><ele>0.0</ele><time>2026-04-30T15:02:18.006Z</time></trkpt><trkpt lat="42.0944755" lon="4.3429992"><ele>0.0</ele><time>2026-04-30T15:02:20.007Z</time></trkpt><trkpt lat="42.0945898" lon="4.3432951"><ele>0.0</ele><time>2026-04-30T15:02:23.006Z</time></trkpt><trkpt lat="42.0946298" lon="4.3433955"><ele>0.0</ele><time>2026-04-30T15:02:24.006Z</time></trkpt><trkpt lat="42.0946696" lon="4.3434942"><ele>0.0</ele><time>2026-04-30T15:02:25.006Z</time></trkpt><trkpt lat="42.0947097" lon="4.3435995"><ele>0.0</ele><time>2026-04-30T15:02:26.006Z</time></trkpt><trkpt lat="42.0947485" lon="4.3437001"><ele>0.0</ele><time>2026-04-30T15:02:27.006Z</time></trkpt><trkpt lat="42.0947884" lon="4.3438012"><ele>0.0</ele><time>2026-04-30T15:02:28.006Z</time></trkpt><trkpt lat="42.094827" lon="4.3439018"><ele>0.0</ele><time>2026-04-30T15:02:29.007Z</time></trkpt><trkpt lat="42.0948681" lon="4.3440061"><ele>0.0</ele><time>2026-04-30T15:02:30.007Z</time></trkpt><trkpt lat="42.0949068" lon="4.344108"><ele>0.0</ele><time>2026-04-30T15:02:31.006Z</time></trkpt><trkpt lat="42.0949827" lon="4.3443193"><ele>0.0</ele><time>2026-04-30T15:02:33.007Z</time></trkpt><trkpt lat="42.0950234" lon="4.3444242"><ele>0.0</ele><time>2026-04-30T15:02:34.007Z</time></trkpt><trkpt lat="42.0950635" lon="4.3445277"><ele>0.0</ele><time>2026-04-30T15:02:35.006Z</time></trkpt><trkpt lat="42.095109" lon="4.3446313"><ele>0.0</ele><time>2026-04-30T15:02:36.007Z</time></trkpt><trkpt lat="42.09515" lon="4.3447322"><ele>0.0</ele><time>2026-04-30T15:02:37.007Z</time></trkpt><trkpt lat="42.0951918" lon="4.3448317"><ele>0.0</ele><time>2026-04-30T15:02:38.006Z</time></trkpt><trkpt lat="42.0952289" lon="4.3449285"><ele>0.0</ele><time>2026-04-30T15:02:39.006Z</time></trkpt><trkpt lat="42.0953103" lon="4.3451299"><ele>0.0</ele><time>2026-04-30T15:02:41.007Z</time></trkpt><trkpt lat="42.095349" lon="4.3452313"><ele>0.0</ele><time>2026-04-30T15:02:42.006Z</time></trkpt><trkpt lat="42.0953902" lon="4.3453343"><ele>0.0</ele><time>2026-04-30T15:02:43.005Z</time></trkpt><trkpt lat="42.0954304" lon="4.3454333"><ele>0.0</ele><time>2026-04-30T15:02:44.005Z</time></trkpt><trkpt lat="42.0954715" lon="4.3455377"><ele>0.0</ele><time>2026-04-30T15:02:45.005Z</time></trkpt><trkpt lat="42.0955134" lon="4.3456445"><ele>0.0</ele><time>2026-04-30T15:02:46.006Z</time></trkpt><trkpt lat="42.0955566" lon="4.3457464"><ele>0.0</ele><time>2026-04-30T15:02:47.005Z</time></trkpt><trkpt lat="42.095598" lon="4.3458553"><ele>0.0</ele><time>2026-04-30T15:02:48.005Z</time></trkpt><trkpt lat="42.0956381" lon="4.3459625"><ele>0.0</ele><time>2026-04-30T15:02:49.005Z</time></trkpt><trkpt lat="42.0956784" lon="4.3460652"><ele>0.0</ele><time>2026-04-30T15:02:50.006Z</time></trkpt><trkpt lat="42.0957182" lon="4.3461697"><ele>0.0</ele><time>2026-04-30T15:02:51.005Z</time></trkpt><trkpt lat="42.0957628" lon="4.3462745"><ele>0.0</ele><time>2026-04-30T15:02:52.006Z</time></trkpt><trkpt lat="42.0958051" lon="4.3463722"><ele>0.0</ele><time>2026-04-30T15:02:53.006Z</time></trkpt><trkpt lat="42.0958453" lon="4.3464706"><ele>0.0</ele><time>2026-04-30T15:02:54.006Z</time></trkpt><trkpt lat="42.0959251" lon="4.3466706"><ele>0.0</ele><time>2026-04-30T15:02:56.005Z</time></trkpt><trkpt lat="42.0959652" lon="4.3467702"><ele>0.0</ele><time>2026-04-30T15:02:57.005Z</time></trkpt><trkpt lat="42.0960082" lon="4.3468713"><ele>0.0</ele><time>2026-04-30T15:02:58.005Z</time></trkpt><trkpt lat="42.0960485" lon="4.3469717"><ele>0.0</ele><time>2026-04-30T15:02:59.005Z</time></trkpt><trkpt lat="42.0960871" lon="4.3470703"><ele>0.0</ele><time>2026-04-30T15:03:00.006Z</time></trkpt><trkpt lat="42.096164" lon="4.3472705"><ele>0.0</ele><time>2026-04-30T15:03:02.005Z</time></trkpt><trkpt lat="42.0962034" lon="4.3473731"><ele>0.0</ele><time>2026-04-30T15:03:03.006Z</time></trkpt><trkpt lat="42.0962446" lon="4.3474793"><ele>0.0</ele><time>2026-04-30T15:03:04.006Z</time></trkpt><trkpt lat="42.0962831" lon="4.3475875"><ele>0.0</ele><time>2026-04-30T15:03:05.005Z</time></trkpt><trkpt lat="42.0963218" lon="4.347693"><ele>0.0</ele><time>2026-04-30T15:03:06.005Z</time></trkpt><trkpt lat="42.0963616" lon="4.3477995"><ele>0.0</ele><time>2026-04-30T15:03:07.005Z</time></trkpt><trkpt lat="42.0963952" lon="4.3479049"><ele>0.0</ele><time>2026-04-30T15:03:08.005Z</time></trkpt><trkpt lat="42.0964301" lon="4.3480117"><ele>0.0</ele><time>2026-04-30T15:03:09.005Z</time></trkpt><trkpt lat="42.0964681" lon="4.3481212"><ele>0.0</ele><time>2026-04-30T15:03:10.006Z</time></trkpt><trkpt lat="42.0965051" lon="4.3482257"><ele>0.0</ele><time>2026-04-30T15:03:11.005Z</time></trkpt><trkpt lat="42.0965434" lon="4.3483278"><ele>0.0</ele><time>2026-04-30T15:03:12.005Z</time></trkpt><trkpt lat="42.0965836" lon="4.3484263"><ele>0.0</ele><time>2026-04-30T15:03:13.006Z</time></trkpt><trkpt lat="42.0966235" lon="4.3485286"><ele>0.0</ele><time>2026-04-30T15:03:14.005Z</time></trkpt><trkpt lat="42.0966647" lon="4.3486348"><ele>0.0</ele><time>2026-04-30T15:03:15.005Z</time></trkpt><trkpt lat="42.0967046" lon="4.3487448"><ele>0.0</ele><time>2026-04-30T15:03:16.006Z</time></trkpt><trkpt lat="42.096742" lon="4.348849"><ele>0.0</ele><time>2026-04-30T15:03:17.005Z</time></trkpt><trkpt lat="42.0967771" lon="4.3489494"><ele>0.0</ele><time>2026-04-30T15:03:18.005Z</time></trkpt><trkpt lat="42.0968136" lon="4.3490494"><ele>0.0</ele><time>2026-04-30T15:03:19.006Z</time></trkpt><trkpt lat="42.0968503" lon="4.3491508"><ele>0.0</ele><time>2026-04-30T15:03:20.005Z</time></trkpt><trkpt lat="42.0968881" lon="4.3492553"><ele>0.0</ele><time>2026-04-30T15:03:21.005Z</time></trkpt><trkpt lat="42.0969601" lon="4.3494508"><ele>0.0</ele><time>2026-04-30T15:03:23.006Z</time></trkpt><trkpt lat="42.0970023" lon="4.3495516"><ele>0.0</ele><time>2026-04-30T15:03:24.005Z</time></trkpt><trkpt lat="42.0970505" lon="4.3496471"><ele>0.0</ele><time>2026-04-30T15:03:25.005Z</time></trkpt><trkpt lat="42.0970958" lon="4.3497494"><ele>0.0</ele><time>2026-04-30T15:03:26.005Z</time></trkpt><trkpt lat="42.0971367" lon="4.3498499"><ele>0.0</ele><time>2026-04-30T15:03:27.006Z</time></trkpt><trkpt lat="42.0971799" lon="4.3499499"><ele>0.0</ele><time>2026-04-30T15:03:28.006Z</time></trkpt><trkpt lat="42.0972244" lon="4.3500571"><ele>0.0</ele><time>2026-04-30T15:03:29.005Z</time></trkpt><trkpt lat="42.097271" lon="4.3501623"><ele>0.0</ele><time>2026-04-30T15:03:30.005Z</time></trkpt><trkpt lat="42.0973146" lon="4.3502703"><ele>0.0</ele><time>2026-04-30T15:03:31.006Z</time></trkpt><trkpt lat="42.0973552" lon="4.3503703"><ele>0.0</ele><time>2026-04-30T15:03:32.006Z</time></trkpt><trkpt lat="42.0973935" lon="4.3504734"><ele>0.0</ele><time>2026-04-30T15:03:33.006Z</time></trkpt><trkpt lat="42.0974362" lon="4.3505778"><ele>0.0</ele><time>2026-04-30T15:03:34.005Z</time></trkpt><trkpt lat="42.0974783" lon="4.35068"><ele>0.0</ele><time>2026-04-30T15:03:35.005Z</time></trkpt><trkpt lat="42.0975172" lon="4.350776"><ele>0.0</ele><time>2026-04-30T15:03:36.006Z</time></trkpt><trkpt lat="42.0975571" lon="4.3508783"><ele>0.0</ele><time>2026-04-30T15:03:37.005Z</time></trkpt><trkpt lat="42.0975926" lon="4.3509786"><ele>0.0</ele><time>2026-04-30T15:03:38.005Z</time></trkpt><trkpt lat="42.0976304" lon="4.3510759"><ele>0.0</ele><time>2026-04-30T15:03:39.006Z</time></trkpt><trkpt lat="42.09767" lon="4.3511843"><ele>0.0</ele><time>2026-04-30T15:03:40.006Z</time></trkpt><trkpt lat="42.0977069" lon="4.3512885"><ele>0.0</ele><time>2026-04-30T15:03:41.006Z</time></trkpt><trkpt lat="42.0977465" lon="4.3513963"><ele>0.0</ele><time>2026-04-30T15:03:42.005Z</time></trkpt><trkpt lat="42.0978233" lon="4.3516009"><ele>0.0</ele><time>2026-04-30T15:03:44.005Z</time></trkpt><trkpt lat="42.0978619" lon="4.3517051"><ele>0.0</ele><time>2026-04-30T15:03:45.005Z</time></trkpt><trkpt lat="42.0979002" lon="4.3518099"><ele>0.0</ele><time>2026-04-30T15:03:46.006Z</time></trkpt><trkpt lat="42.0979402" lon="4.351912"><ele>0.0</ele><time>2026-04-30T15:03:47.005Z</time></trkpt><trkpt lat="42.0979785" lon="4.3520124"><ele>0.0</ele><time>2026-04-30T15:03:48.005Z</time></trkpt><trkpt lat="42.0980139" lon="4.3521166"><ele>0.0</ele><time>2026-04-30T15:03:49.006Z</time></trkpt><trkpt lat="42.0980488" lon="4.3522159"><ele>0.0</ele><time>2026-04-30T15:03:50.006Z</time></trkpt><trkpt lat="42.098088" lon="4.3523215"><ele>0.0</ele><time>2026-04-30T15:03:51.006Z</time></trkpt><trkpt lat="42.0981252" lon="4.3524225"><ele>0.0</ele><time>2026-04-30T15:03:52.005Z</time></trkpt><trkpt lat="42.0981663" lon="4.352528"><ele>0.0</ele><time>2026-04-30T15:03:53.006Z</time></trkpt><trkpt lat="42.0982066" lon="4.3526319"><ele>0.0</ele><time>2026-04-30T15:03:54.005Z</time></trkpt><trkpt lat="42.098262" lon="4.3527294"><ele>0.0</ele><time>2026-04-30T15:03:55.005Z</time></trkpt><trkpt lat="42.098307" lon="4.3528264"><ele>0.0</ele><time>2026-04-30T15:03:56.006Z</time></trkpt><trkpt lat="42.0983438" lon="4.35293"><ele>0.0</ele><time>2026-04-30T15:03:57.005Z</time></trkpt><trkpt lat="42.0983749" lon="4.3530317"><ele>0.0</ele><time>2026-04-30T15:03:58.005Z</time></trkpt><trkpt lat="42.0984102" lon="4.3531325"><ele>0.0</ele><time>2026-04-30T15:03:59.006Z</time></trkpt><trkpt lat="42.098487" lon="4.3533448"><ele>0.0</ele><time>2026-04-30T15:04:01.005Z</time></trkpt><trkpt lat="42.0985238" lon="4.3534499"><ele>0.0</ele><time>2026-04-30T15:04:02.006Z</time></trkpt><trkpt lat="42.0985617" lon="4.3535516"><ele>0.0</ele><time>2026-04-30T15:04:03.006Z</time></trkpt><trkpt lat="42.0986432" lon="4.3537568"><ele>0.0</ele><time>2026-04-30T15:04:05.005Z</time></trkpt><trkpt lat="42.0986848" lon="4.35386"><ele>0.0</ele><time>2026-04-30T15:04:06.005Z</time></trkpt><trkpt lat="42.0987293" lon="4.3539577"><ele>0.0</ele><time>2026-04-30T15:04:07.005Z</time></trkpt><trkpt lat="42.0987715" lon="4.3540573"><ele>0.0</ele><time>2026-04-30T15:04:08.005Z</time></trkpt><trkpt lat="42.0988122" lon="4.354157"><ele>0.0</ele><time>2026-04-30T15:04:09.005Z</time></trkpt><trkpt lat="42.0988505" lon="4.3542559"><ele>0.0</ele><time>2026-04-30T15:04:10.005Z</time></trkpt><trkpt lat="42.0988916" lon="4.3543528"><ele>0.0</ele><time>2026-04-30T15:04:11.006Z</time></trkpt><trkpt lat="42.0989329" lon="4.3544537"><ele>0.0</ele><time>2026-04-30T15:04:12.005Z</time></trkpt><trkpt lat="42.0989731" lon="4.3545596"><ele>0.0</ele><time>2026-04-30T15:04:13.006Z</time></trkpt><trkpt lat="42.0990178" lon="4.3546603"><ele>0.0</ele><time>2026-04-30T15:04:14.005Z</time></trkpt><trkpt lat="42.0990613" lon="4.3547564"><ele>0.0</ele><time>2026-04-30T15:04:15.005Z</time></trkpt><trkpt lat="42.0990946" lon="4.354857"><ele>0.0</ele><time>2026-04-30T15:04:16.006Z</time></trkpt><trkpt lat="42.0991366" lon="4.3549541"><ele>0.0</ele><time>2026-04-30T15:04:17.005Z</time></trkpt><trkpt lat="42.0991712" lon="4.3550653"><ele>0.0</ele><time>2026-04-30T15:04:18.005Z</time></trkpt><trkpt lat="42.099209" lon="4.3551639"><ele>0.0</ele><time>2026-04-30T15:04:19.005Z</time></trkpt><trkpt lat="42.099243" lon="4.3552692"><ele>0.0</ele><time>2026-04-30T15:04:20.005Z</time></trkpt><trkpt lat="42.0992807" lon="4.3553771"><ele>0.0</ele><time>2026-04-30T15:04:21.005Z</time></trkpt><trkpt lat="42.099323" lon="4.3554815"><ele>0.0</ele><time>2026-04-30T15:04:22.006Z</time></trkpt><trkpt lat="42.0993653" lon="4.3555821"><ele>0.0</ele><time>2026-04-30T15:04:23.006Z</time></trkpt><trkpt lat="42.0994035" lon="4.3556893"><ele>0.0</ele><time>2026-04-30T15:04:24.006Z</time></trkpt><trkpt lat="42.0994784" lon="4.355898"><ele>0.0</ele><time>2026-04-30T15:04:26.006Z</time></trkpt><trkpt lat="42.0995181" lon="4.3560057"><ele>0.0</ele><time>2026-04-30T15:04:27.005Z</time></trkpt><trkpt lat="42.0995584" lon="4.3561092"><ele>0.0</ele><time>2026-04-30T15:04:28.005Z</time></trkpt><trkpt lat="42.0996028" lon="4.3562138"><ele>0.0</ele><time>2026-04-30T15:04:29.006Z</time></trkpt><trkpt lat="42.099648" lon="4.3563243"><ele>0.0</ele><time>2026-04-30T15:04:30.005Z</time></trkpt><trkpt lat="42.0996877" lon="4.3564202"><ele>0.0</ele><time>2026-04-30T15:04:31.005Z</time></trkpt><trkpt lat="42.0997218" lon="4.356524"><ele>0.0</ele><time>2026-04-30T15:04:32.005Z</time></trkpt><trkpt lat="42.0998006" lon="4.3567225"><ele>0.0</ele><time>2026-04-30T15:04:34.006Z</time></trkpt><trkpt lat="42.0998374" lon="4.3568194"><ele>0.0</ele><time>2026-04-30T15:04:35.006Z</time></trkpt><trkpt lat="42.0998736" lon="4.3569206"><ele>0.0</ele><time>2026-04-30T15:04:36.006Z</time></trkpt><trkpt lat="42.0999117" lon="4.3570279"><ele>0.0</ele><time>2026-04-30T15:04:37.005Z</time></trkpt><trkpt lat="42.0999558" lon="4.3571387"><ele>0.0</ele><time>2026-04-30T15:04:38.006Z</time></trkpt><trkpt lat="42.0999966" lon="4.3572443"><ele>0.0</ele><time>2026-04-30T15:04:39.005Z</time></trkpt><trkpt lat="42.1000436" lon="4.357344"><ele>0.0</ele><time>2026-04-30T15:04:40.005Z</time></trkpt><trkpt lat="42.1000821" lon="4.3574424"><ele>0.0</ele><time>2026-04-30T15:04:41.006Z</time></trkpt><trkpt lat="42.1001146" lon="4.3575462"><ele>0.0</ele><time>2026-04-30T15:04:42.005Z</time></trkpt><trkpt lat="42.1001533" lon="4.3576526"><ele>0.0</ele><time>2026-04-30T15:04:43.006Z</time></trkpt><trkpt lat="42.1001933" lon="4.3577564"><ele>0.0</ele><time>2026-04-30T15:04:44.006Z</time></trkpt><trkpt lat="42.100236" lon="4.3578528"><ele>0.0</ele><time>2026-04-30T15:04:45.006Z</time></trkpt><trkpt lat="42.1003115" lon="4.3580591"><ele>0.0</ele><time>2026-04-30T15:04:47.006Z</time></trkpt><trkpt lat="42.1003471" lon="4.3581663"><ele>0.0</ele><time>2026-04-30T15:04:48.006Z</time></trkpt><trkpt lat="42.1003807" lon="4.3582672"><ele>0.0</ele><time>2026-04-30T15:04:49.006Z</time></trkpt><trkpt lat="42.1004198" lon="4.3583759"><ele>0.0</ele><time>2026-04-30T15:04:50.005Z</time></trkpt><trkpt lat="42.1004569" lon="4.3584801"><ele>0.0</ele><time>2026-04-30T15:04:51.005Z</time></trkpt><trkpt lat="42.1004979" lon="4.3585862"><ele>0.0</ele><time>2026-04-30T15:04:52.006Z</time></trkpt><trkpt lat="42.1005397" lon="4.3586924"><ele>0.0</ele><time>2026-04-30T15:04:53.005Z</time></trkpt><trkpt lat="42.1005828" lon="4.3587992"><ele>0.0</ele><time>2026-04-30T15:04:54.006Z</time></trkpt><trkpt lat="42.1006233" lon="4.3589044"><ele>0.0</ele><time>2026-04-30T15:04:55.005Z</time></trkpt><trkpt lat="42.1006618" lon="4.3590096"><ele>0.0</ele><time>2026-04-30T15:04:56.005Z</time></trkpt><trkpt lat="42.1007" lon="4.3591144"><ele>0.0</ele><time>2026-04-30T15:04:57.005Z</time></trkpt><trkpt lat="42.1007387" lon="4.359214"><ele>0.0</ele><time>2026-04-30T15:04:58.005Z</time></trkpt><trkpt lat="42.1007753" lon="4.3593135"><ele>0.0</ele><time>2026-04-30T15:04:59.005Z</time></trkpt><trkpt lat="42.1008153" lon="4.359408"><ele>0.0</ele><time>2026-04-30T15:05:00.006Z</time></trkpt><trkpt lat="42.1008551" lon="4.3595058"><ele>0.0</ele><time>2026-04-30T15:05:01.006Z</time></trkpt><trkpt lat="42.1008966" lon="4.3596022"><ele>0.0</ele><time>2026-04-30T15:05:02.006Z</time></trkpt><trkpt lat="42.1009384" lon="4.3597016"><ele>0.0</ele><time>2026-04-30T15:05:03.005Z</time></trkpt><trkpt lat="42.1009774" lon="4.3597932"><ele>0.0</ele><time>2026-04-30T15:05:04.005Z</time></trkpt><trkpt lat="42.1011349" lon="4.3602157"><ele>0.0</ele><time>2026-04-30T15:05:08.006Z</time></trkpt><trkpt lat="42.1011779" lon="4.3603241"><ele>0.0</ele><time>2026-04-30T15:05:09.006Z</time></trkpt><trkpt lat="42.1012141" lon="4.3604226"><ele>0.0</ele><time>2026-04-30T15:05:10.005Z</time></trkpt><trkpt lat="42.1012505" lon="4.3605238"><ele>0.0</ele><time>2026-04-30T15:05:11.006Z</time></trkpt><trkpt lat="42.1012842" lon="4.3606181"><ele>0.0</ele><time>2026-04-30T15:05:12.005Z</time></trkpt><trkpt lat="42.1013202" lon="4.36072"><ele>0.0</ele><time>2026-04-30T15:05:13.006Z</time></trkpt><trkpt lat="42.1013571" lon="4.3608234"><ele>0.0</ele><time>2026-04-30T15:05:14.005Z</time></trkpt><trkpt lat="42.101398" lon="4.360931"><ele>0.0</ele><time>2026-04-30T15:05:15.005Z</time></trkpt><trkpt lat="42.1014338" lon="4.3610367"><ele>0.0</ele><time>2026-04-30T15:05:16.005Z</time></trkpt><trkpt lat="42.1014746" lon="4.3611442"><ele>0.0</ele><time>2026-04-30T15:05:17.005Z</time></trkpt><trkpt lat="42.1015163" lon="4.3612539"><ele>0.0</ele><time>2026-04-30T15:05:18.005Z</time></trkpt><trkpt lat="42.1015567" lon="4.3613595"><ele>0.0</ele><time>2026-04-30T15:05:19.006Z</time></trkpt><trkpt lat="42.1015951" lon="4.3614589"><ele>0.0</ele><time>2026-04-30T15:05:20.005Z</time></trkpt><trkpt lat="42.1016334" lon="4.3615604"><ele>0.0</ele><time>2026-04-30T15:05:21.005Z</time></trkpt><trkpt lat="42.1016716" lon="4.3616634"><ele>0.0</ele><time>2026-04-30T15:05:22.006Z</time></trkpt><trkpt lat="42.1017117" lon="4.3617636"><ele>0.0</ele><time>2026-04-30T15:05:23.005Z</time></trkpt><trkpt lat="42.1017503" lon="4.3618635"><ele>0.0</ele><time>2026-04-30T15:05:24.006Z</time></trkpt><trkpt lat="42.1017915" lon="4.361972"><ele>0.0</ele><time>2026-04-30T15:05:25.005Z</time></trkpt><trkpt lat="42.1018286" lon="4.3620734"><ele>0.0</ele><time>2026-04-30T15:05:26.005Z</time></trkpt><trkpt lat="42.1018654" lon="4.3621738"><ele>0.0</ele><time>2026-04-30T15:05:27.006Z</time></trkpt><trkpt lat="42.1019322" lon="4.3623868"><ele>0.0</ele><time>2026-04-30T15:05:29.005Z</time></trkpt><trkpt lat="42.1019702" lon="4.3624928"><ele>0.0</ele><time>2026-04-30T15:05:30.006Z</time></trkpt><trkpt lat="42.1020099" lon="4.362601"><ele>0.0</ele><time>2026-04-30T15:05:31.005Z</time></trkpt><trkpt lat="42.1020497" lon="4.3627079"><ele>0.0</ele><time>2026-04-30T15:05:32.005Z</time></trkpt><trkpt lat="42.1020884" lon="4.3628117"><ele>0.0</ele><time>2026-04-30T15:05:33.006Z</time></trkpt><trkpt lat="42.1021236" lon="4.3629111"><ele>0.0</ele><time>2026-04-30T15:05:34.006Z</time></trkpt><trkpt lat="42.1021603" lon="4.3630139"><ele>0.0</ele><time>2026-04-30T15:05:35.005Z</time></trkpt><trkpt lat="42.1022009" lon="4.3631155"><ele>0.0</ele><time>2026-04-30T15:05:36.006Z</time></trkpt><trkpt lat="42.1022771" lon="4.3633248"><ele>0.0</ele><time>2026-04-30T15:05:38.006Z</time></trkpt><trkpt lat="42.1023147" lon="4.3634297"><ele>0.0</ele><time>2026-04-30T15:05:39.006Z</time></trkpt><trkpt lat="42.1023578" lon="4.3635361"><ele>0.0</ele><time>2026-04-30T15:05:40.006Z</time></trkpt><trkpt lat="42.1023983" lon="4.3636341"><ele>0.0</ele><time>2026-04-30T15:05:41.006Z</time></trkpt><trkpt lat="42.1024369" lon="4.3637308"><ele>0.0</ele><time>2026-04-30T15:05:42.005Z</time></trkpt><trkpt lat="42.1024752" lon="4.3638358"><ele>0.0</ele><time>2026-04-30T15:05:43.006Z</time></trkpt><trkpt lat="42.102511" lon="4.3639367"><ele>0.0</ele><time>2026-04-30T15:05:44.005Z</time></trkpt><trkpt lat="42.1025476" lon="4.3640382"><ele>0.0</ele><time>2026-04-30T15:05:45.006Z</time></trkpt><trkpt lat="42.102584" lon="4.3641386"><ele>0.0</ele><time>2026-04-30T15:05:46.005Z</time></trkpt><trkpt lat="42.1026162" lon="4.3642416"><ele>0.0</ele><time>2026-04-30T15:05:47.005Z</time></trkpt><trkpt lat="42.1026577" lon="4.3643504"><ele>0.0</ele><time>2026-04-30T15:05:48.005Z</time></trkpt><trkpt lat="42.1027348" lon="4.364557"><ele>0.0</ele><time>2026-04-30T15:05:50.005Z</time></trkpt><trkpt lat="42.1027749" lon="4.3646625"><ele>0.0</ele><time>2026-04-30T15:05:51.006Z</time></trkpt><trkpt lat="42.1028178" lon="4.3647634"><ele>0.0</ele><time>2026-04-30T15:05:52.005Z</time></trkpt><trkpt lat="42.1028609" lon="4.3648693"><ele>0.0</ele><time>2026-04-30T15:05:53.006Z</time></trkpt><trkpt lat="42.1029018" lon="4.3649686"><ele>0.0</ele><time>2026-04-30T15:05:54.006Z</time></trkpt><trkpt lat="42.1029385" lon="4.3650761"><ele>0.0</ele><time>2026-04-30T15:05:55.006Z</time></trkpt><trkpt lat="42.1029781" lon="4.3651845"><ele>0.0</ele><time>2026-04-30T15:05:56.006Z</time></trkpt><trkpt lat="42.1030196" lon="4.3652954"><ele>0.0</ele><time>2026-04-30T15:05:57.005Z</time></trkpt><trkpt lat="42.103057" lon="4.3653956"><ele>0.0</ele><time>2026-04-30T15:05:58.005Z</time></trkpt><trkpt lat="42.1030937" lon="4.3654941"><ele>0.0</ele><time>2026-04-30T15:05:59.005Z</time></trkpt><trkpt lat="42.1031305" lon="4.3655908"><ele>0.0</ele><time>2026-04-30T15:06:00.005Z</time></trkpt><trkpt lat="42.1031685" lon="4.3656904"><ele>0.0</ele><time>2026-04-30T15:06:01.005Z</time></trkpt><trkpt lat="42.103214" lon="4.3657847"><ele>0.0</ele><time>2026-04-30T15:06:02.005Z</time></trkpt><trkpt lat="42.103255" lon="4.3658897"><ele>0.0</ele><time>2026-04-30T15:06:03.006Z</time></trkpt><trkpt lat="42.1032965" lon="4.3659945"><ele>0.0</ele><time>2026-04-30T15:06:04.005Z</time></trkpt><trkpt lat="42.1033353" lon="4.3660938"><ele>0.0</ele><time>2026-04-30T15:06:05.005Z</time></trkpt><trkpt lat="42.1033767" lon="4.366188"><ele>0.0</ele><time>2026-04-30T15:06:06.006Z</time></trkpt><trkpt lat="42.1034114" lon="4.3662858"><ele>0.0</ele><time>2026-04-30T15:06:07.006Z</time></trkpt><trkpt lat="42.103449" lon="4.3663838"><ele>0.0</ele><time>2026-04-30T15:06:08.006Z</time></trkpt><trkpt lat="42.103486" lon="4.366482"><ele>0.0</ele><time>2026-04-30T15:06:09.005Z</time></trkpt><trkpt lat="42.10357" lon="4.3666812"><ele>0.0</ele><time>2026-04-30T15:06:11.006Z</time></trkpt><trkpt lat="42.1036563" lon="4.3668874"><ele>0.0</ele><time>2026-04-30T15:06:13.005Z</time></trkpt><trkpt lat="42.1037051" lon="4.366987"><ele>0.0</ele><time>2026-04-30T15:06:14.005Z</time></trkpt><trkpt lat="42.1037436" lon="4.3670842"><ele>0.0</ele><time>2026-04-30T15:06:15.005Z</time></trkpt><trkpt lat="42.1037848" lon="4.3671865"><ele>0.0</ele><time>2026-04-30T15:06:16.005Z</time></trkpt><trkpt lat="42.1038362" lon="4.3672798"><ele>0.0</ele><time>2026-04-30T15:06:17.006Z</time></trkpt><trkpt lat="42.103878" lon="4.3673802"><ele>0.0</ele><time>2026-04-30T15:06:18.005Z</time></trkpt><trkpt lat="42.1039216" lon="4.3674843"><ele>0.0</ele><time>2026-04-30T15:06:19.006Z</time></trkpt><trkpt lat="42.1039604" lon="4.3675891"><ele>0.0</ele><time>2026-04-30T15:06:20.005Z</time></trkpt><trkpt lat="42.1039998" lon="4.3676887"><ele>0.0</ele><time>2026-04-30T15:06:21.006Z</time></trkpt><trkpt lat="42.1040417" lon="4.3677915"><ele>0.0</ele><time>2026-04-30T15:06:22.006Z</time></trkpt><trkpt lat="42.104083" lon="4.3678947"><ele>0.0</ele><time>2026-04-30T15:06:23.006Z</time></trkpt><trkpt lat="42.1041205" lon="4.3679981"><ele>0.0</ele><time>2026-04-30T15:06:24.005Z</time></trkpt><trkpt lat="42.1041618" lon="4.3680957"><ele>0.0</ele><time>2026-04-30T15:06:25.005Z</time></trkpt><trkpt lat="42.104202" lon="4.3681981"><ele>0.0</ele><time>2026-04-30T15:06:26.006Z</time></trkpt><trkpt lat="42.1042372" lon="4.3682976"><ele>0.0</ele><time>2026-04-30T15:06:27.005Z</time></trkpt><trkpt lat="42.1042723" lon="4.368393"><ele>0.0</ele><time>2026-04-30T15:06:28.005Z</time></trkpt><trkpt lat="42.1043118" lon="4.3684921"><ele>0.0</ele><time>2026-04-30T15:06:29.005Z</time></trkpt><trkpt lat="42.1043532" lon="4.368596"><ele>0.0</ele><time>2026-04-30T15:06:30.006Z</time></trkpt><trkpt lat="42.1043964" lon="4.3687024"><ele>0.0</ele><time>2026-04-30T15:06:31.005Z</time></trkpt><trkpt lat="42.1044399" lon="4.3688061"><ele>0.0</ele><time>2026-04-30T15:06:32.005Z</time></trkpt><trkpt lat="42.1045201" lon="4.3690107"><ele>0.0</ele><time>2026-04-30T15:06:34.005Z</time></trkpt><trkpt lat="42.1045572" lon="4.3691131"><ele>0.0</ele><time>2026-04-30T15:06:35.006Z</time></trkpt><trkpt lat="42.1045951" lon="4.369215"><ele>0.0</ele><time>2026-04-30T15:06:36.005Z</time></trkpt><trkpt lat="42.1046348" lon="4.3693224"><ele>0.0</ele><time>2026-04-30T15:06:37.006Z</time></trkpt><trkpt lat="42.104675" lon="4.3694264"><ele>0.0</ele><time>2026-04-30T15:06:38.005Z</time></trkpt><trkpt lat="42.104718" lon="4.3695295"><ele>0.0</ele><time>2026-04-30T15:06:39.006Z</time></trkpt><trkpt lat="42.1047585" lon="4.3696315"><ele>0.0</ele><time>2026-04-30T15:06:40.006Z</time></trkpt><trkpt lat="42.1047955" lon="4.3697374"><ele>0.0</ele><time>2026-04-30T15:06:41.005Z</time></trkpt><trkpt lat="42.1048379" lon="4.3698426"><ele>0.0</ele><time>2026-04-30T15:06:42.005Z</time></trkpt><trkpt lat="42.1049228" lon="4.3700397"><ele>0.0</ele><time>2026-04-30T15:06:44.006Z</time></trkpt><trkpt lat="42.1049647" lon="4.370143"><ele>0.0</ele><time>2026-04-30T15:06:45.006Z</time></trkpt><trkpt lat="42.1050023" lon="4.3702423"><ele>0.0</ele><time>2026-04-30T15:06:46.004Z</time></trkpt><trkpt lat="42.1050407" lon="4.3703424"><ele>0.0</ele><time>2026-04-30T15:06:47.005Z</time></trkpt><trkpt lat="42.1050802" lon="4.3704423"><ele>0.0</ele><time>2026-04-30T15:06:48.004Z</time></trkpt><trkpt lat="42.1051183" lon="4.370551"><ele>0.0</ele><time>2026-04-30T15:06:49.004Z</time></trkpt><trkpt lat="42.1051538" lon="4.3706582"><ele>0.0</ele><time>2026-04-30T15:06:50.004Z</time></trkpt><trkpt lat="42.1051919" lon="4.3707622"><ele>0.0</ele><time>2026-04-30T15:06:51.005Z</time></trkpt><trkpt lat="42.105228" lon="4.3708649"><ele>0.0</ele><time>2026-04-30T15:06:52.004Z</time></trkpt><trkpt lat="42.105267" lon="4.3709683"><ele>0.0</ele><time>2026-04-30T15:06:53.005Z</time></trkpt><trkpt lat="42.1053462" lon="4.3711739"><ele>0.0</ele><time>2026-04-30T15:06:55.004Z</time></trkpt><trkpt lat="42.1053881" lon="4.3712761"><ele>0.0</ele><time>2026-04-30T15:06:56.004Z</time></trkpt><trkpt lat="42.1054299" lon="4.3713761"><ele>0.0</ele><time>2026-04-30T15:06:57.005Z</time></trkpt><trkpt lat="42.1054715" lon="4.3714807"><ele>0.0</ele><time>2026-04-30T15:06:58.005Z</time></trkpt><trkpt lat="42.1055073" lon="4.3715848"><ele>0.0</ele><time>2026-04-30T15:06:59.005Z</time></trkpt><trkpt lat="42.1055449" lon="4.371691"><ele>0.0</ele><time>2026-04-30T15:07:00.004Z</time></trkpt><trkpt lat="42.1055823" lon="4.3717886"><ele>0.0</ele><time>2026-04-30T15:07:01.004Z</time></trkpt><trkpt lat="42.1056233" lon="4.3718906"><ele>0.0</ele><time>2026-04-30T15:07:02.005Z</time></trkpt><trkpt lat="42.1056637" lon="4.3719899"><ele>0.0</ele><time>2026-04-30T15:07:03.004Z</time></trkpt><trkpt lat="42.1057033" lon="4.372093"><ele>0.0</ele><time>2026-04-30T15:07:04.004Z</time></trkpt><trkpt lat="42.1057419" lon="4.3721982"><ele>0.0</ele><time>2026-04-30T15:07:05.004Z</time></trkpt><trkpt lat="42.1057816" lon="4.3723044"><ele>0.0</ele><time>2026-04-30T15:07:06.004Z</time></trkpt><trkpt lat="42.1058161" lon="4.3724096"><ele>0.0</ele><time>2026-04-30T15:07:07.005Z</time></trkpt><trkpt lat="42.1058551" lon="4.3725162"><ele>0.0</ele><time>2026-04-30T15:07:08.005Z</time></trkpt><trkpt lat="42.1058905" lon="4.3726244"><ele>0.0</ele><time>2026-04-30T15:07:09.005Z</time></trkpt><trkpt lat="42.1059199" lon="4.3727244"><ele>0.0</ele><time>2026-04-30T15:07:10.005Z</time></trkpt><trkpt lat="42.1059568" lon="4.3728288"><ele>0.0</ele><time>2026-04-30T15:07:11.005Z</time></trkpt><trkpt lat="42.1059921" lon="4.3729261"><ele>0.0</ele><time>2026-04-30T15:07:12.004Z</time></trkpt><trkpt lat="42.1060272" lon="4.3730217"><ele>0.0</ele><time>2026-04-30T15:07:13.004Z</time></trkpt><trkpt lat="42.1060636" lon="4.3731163"><ele>0.0</ele><time>2026-04-30T15:07:14.004Z</time></trkpt><trkpt lat="42.106106" lon="4.3732161"><ele>0.0</ele><time>2026-04-30T15:07:15.005Z</time></trkpt><trkpt lat="42.1061816" lon="4.3734185"><ele>0.0</ele><time>2026-04-30T15:07:17.005Z</time></trkpt><trkpt lat="42.1062936" lon="4.3737324"><ele>0.0</ele><time>2026-04-30T15:07:20.005Z</time></trkpt><trkpt lat="42.1063316" lon="4.3738351"><ele>0.0</ele><time>2026-04-30T15:07:21.005Z</time></trkpt><trkpt lat="42.1063701" lon="4.3739398"><ele>0.0</ele><time>2026-04-30T15:07:22.005Z</time></trkpt><trkpt lat="42.1064096" lon="4.3740409"><ele>0.0</ele><time>2026-04-30T15:07:23.004Z</time></trkpt><trkpt lat="42.1064498" lon="4.3741451"><ele>0.0</ele><time>2026-04-30T15:07:24.005Z</time></trkpt><trkpt lat="42.1064867" lon="4.3742543"><ele>0.0</ele><time>2026-04-30T15:07:25.005Z</time></trkpt><trkpt lat="42.1065249" lon="4.3743627"><ele>0.0</ele><time>2026-04-30T15:07:26.005Z</time></trkpt><trkpt lat="42.1065619" lon="4.3744653"><ele>0.0</ele><time>2026-04-30T15:07:27.004Z</time></trkpt><trkpt lat="42.1065987" lon="4.3745655"><ele>0.0</ele><time>2026-04-30T15:07:28.004Z</time></trkpt><trkpt lat="42.106637" lon="4.3746654"><ele>0.0</ele><time>2026-04-30T15:07:29.004Z</time></trkpt><trkpt lat="42.1066768" lon="4.3747668"><ele>0.0</ele><time>2026-04-30T15:07:30.005Z</time></trkpt><trkpt lat="42.1067153" lon="4.3748656"><ele>0.0</ele><time>2026-04-30T15:07:31.004Z</time></trkpt><trkpt lat="42.1067573" lon="4.3749701"><ele>0.0</ele><time>2026-04-30T15:07:32.004Z</time></trkpt><trkpt lat="42.1067908" lon="4.3750637"><ele>0.0</ele><time>2026-04-30T15:07:33.005Z</time></trkpt><trkpt lat="42.1068284" lon="4.3751698"><ele>0.0</ele><time>2026-04-30T15:07:34.004Z</time></trkpt><trkpt lat="42.1068666" lon="4.375275"><ele>0.0</ele><time>2026-04-30T15:07:35.004Z</time></trkpt><trkpt lat="42.106905" lon="4.3753745"><ele>0.0</ele><time>2026-04-30T15:07:36.005Z</time></trkpt><trkpt lat="42.1069478" lon="4.3754774"><ele>0.0</ele><time>2026-04-30T15:07:37.004Z</time></trkpt><trkpt lat="42.1069897" lon="4.3755813"><ele>0.0</ele><time>2026-04-30T15:07:38.005Z</time></trkpt><trkpt lat="42.1070326" lon="4.3756905"><ele>0.0</ele><time>2026-04-30T15:07:39.005Z</time></trkpt><trkpt lat="42.1071115" lon="4.3758963"><ele>0.0</ele><time>2026-04-30T15:07:41.004Z</time></trkpt><trkpt lat="42.1071491" lon="4.3759997"><ele>0.0</ele><time>2026-04-30T15:07:42.004Z</time></trkpt><trkpt lat="42.1071885" lon="4.3760989"><ele>0.0</ele><time>2026-04-30T15:07:43.005Z</time></trkpt><trkpt lat="42.1072281" lon="4.3762042"><ele>0.0</ele><time>2026-04-30T15:07:44.004Z</time></trkpt><trkpt lat="42.1072696" lon="4.3763049"><ele>0.0</ele><time>2026-04-30T15:07:45.004Z</time></trkpt><trkpt lat="42.1073117" lon="4.3764032"><ele>0.0</ele><time>2026-04-30T15:07:46.005Z</time></trkpt><trkpt lat="42.1073547" lon="4.3764986"><ele>0.0</ele><time>2026-04-30T15:07:47.004Z</time></trkpt><trkpt lat="42.1073983" lon="4.3765968"><ele>0.0</ele><time>2026-04-30T15:07:48.004Z</time></trkpt><trkpt lat="42.1074769" lon="4.3767981"><ele>0.0</ele><time>2026-04-30T15:07:50.004Z</time></trkpt><trkpt lat="42.1075137" lon="4.3768975"><ele>0.0</ele><time>2026-04-30T15:07:51.005Z</time></trkpt><trkpt lat="42.1075534" lon="4.3769986"><ele>0.0</ele><time>2026-04-30T15:07:52.004Z</time></trkpt><trkpt lat="42.1075935" lon="4.3770984"><ele>0.0</ele><time>2026-04-30T15:07:53.004Z</time></trkpt><trkpt lat="42.107632" lon="4.3771957"><ele>0.0</ele><time>2026-04-30T15:07:54.005Z</time></trkpt><trkpt lat="42.1076719" lon="4.3772998"><ele>0.0</ele><time>2026-04-30T15:07:55.004Z</time></trkpt><trkpt lat="42.1077119" lon="4.3774034"><ele>0.0</ele><time>2026-04-30T15:07:56.005Z</time></trkpt><trkpt lat="42.1077504" lon="4.3774996"><ele>0.0</ele><time>2026-04-30T15:07:57.004Z</time></trkpt><trkpt lat="42.1077918" lon="4.3776017"><ele>0.0</ele><time>2026-04-30T15:07:58.005Z</time></trkpt><trkpt lat="42.1078319" lon="4.3777036"><ele>0.0</ele><time>2026-04-30T15:07:59.005Z</time></trkpt><trkpt lat="42.1078732" lon="4.3778096"><ele>0.0</ele><time>2026-04-30T15:08:00.004Z</time></trkpt><trkpt lat="42.1079565" lon="4.3780121"><ele>0.0</ele><time>2026-04-30T15:08:02.005Z</time></trkpt><trkpt lat="42.1079966" lon="4.3781089"><ele>0.0</ele><time>2026-04-30T15:08:03.004Z</time></trkpt><trkpt lat="42.1080382" lon="4.378207"><ele>0.0</ele><time>2026-04-30T15:08:04.004Z</time></trkpt><trkpt lat="42.1080738" lon="4.3783098"><ele>0.0</ele><time>2026-04-30T15:08:05.005Z</time></trkpt><trkpt lat="42.1081077" lon="4.3784162"><ele>0.0</ele><time>2026-04-30T15:08:06.005Z</time></trkpt><trkpt lat="42.1081465" lon="4.3785229"><ele>0.0</ele><time>2026-04-30T15:08:07.005Z</time></trkpt><trkpt lat="42.1081878" lon="4.3786221"><ele>0.0</ele><time>2026-04-30T15:08:08.004Z</time></trkpt><trkpt lat="42.108258" lon="4.3788319"><ele>0.0</ele><time>2026-04-30T15:08:10.004Z</time></trkpt><trkpt lat="42.1082937" lon="4.3789373"><ele>0.0</ele><time>2026-04-30T15:08:11.005Z</time></trkpt><trkpt lat="42.108333" lon="4.3790495"><ele>0.0</ele><time>2026-04-30T15:08:12.004Z</time></trkpt><trkpt lat="42.1083733" lon="4.3791573"><ele>0.0</ele><time>2026-04-30T15:08:13.005Z</time></trkpt><trkpt lat="42.1084119" lon="4.3792612"><ele>0.0</ele><time>2026-04-30T15:08:14.004Z</time></trkpt><trkpt lat="42.1084531" lon="4.3793575"><ele>0.0</ele><time>2026-04-30T15:08:15.004Z</time></trkpt><trkpt lat="42.108493" lon="4.3794599"><ele>0.0</ele><time>2026-04-30T15:08:16.005Z</time></trkpt><trkpt lat="42.1085333" lon="4.3795601"><ele>0.0</ele><time>2026-04-30T15:08:17.005Z</time></trkpt><trkpt lat="42.1085782" lon="4.379661"><ele>0.0</ele><time>2026-04-30T15:08:18.004Z</time></trkpt><trkpt lat="42.1086102" lon="4.3797742"><ele>0.0</ele><time>2026-04-30T15:08:19.005Z</time></trkpt><trkpt lat="42.1086461" lon="4.3798788"><ele>0.0</ele><time>2026-04-30T15:08:20.005Z</time></trkpt><trkpt lat="42.1086866" lon="4.3799766"><ele>0.0</ele><time>2026-04-30T15:08:21.005Z</time></trkpt><trkpt lat="42.108733" lon="4.3800706"><ele>0.0</ele><time>2026-04-30T15:08:22.004Z</time></trkpt><trkpt lat="42.108819" lon="4.3802605"><ele>0.0</ele><time>2026-04-30T15:08:24.004Z</time></trkpt><trkpt lat="42.1088601" lon="4.3803569"><ele>0.0</ele><time>2026-04-30T15:08:25.004Z</time></trkpt><trkpt lat="42.1088975" lon="4.3804535"><ele>0.0</ele><time>2026-04-30T15:08:26.005Z</time></trkpt><trkpt lat="42.1089369" lon="4.3805529"><ele>0.0</ele><time>2026-04-30T15:08:27.004Z</time></trkpt><trkpt lat="42.1089785" lon="4.3806556"><ele>0.0</ele><time>2026-04-30T15:08:28.004Z</time></trkpt><trkpt lat="42.1090162" lon="4.3807699"><ele>0.0</ele><time>2026-04-30T15:08:29.004Z</time></trkpt><trkpt lat="42.1090611" lon="4.380871"><ele>0.0</ele><time>2026-04-30T15:08:30.004Z</time></trkpt><trkpt lat="42.1091074" lon="4.3809739"><ele>0.0</ele><time>2026-04-30T15:08:31.004Z</time></trkpt><trkpt lat="42.1091447" lon="4.3810814"><ele>0.0</ele><time>2026-04-30T15:08:32.005Z</time></trkpt><trkpt lat="42.1091896" lon="4.3811758"><ele>0.0</ele><time>2026-04-30T15:08:33.004Z</time></trkpt><trkpt lat="42.1092305" lon="4.3812735"><ele>0.0</ele><time>2026-04-30T15:08:34.005Z</time></trkpt><trkpt lat="42.1092677" lon="4.3813747"><ele>0.0</ele><time>2026-04-30T15:08:35.005Z</time></trkpt><trkpt lat="42.1093015" lon="4.3814738"><ele>0.0</ele><time>2026-04-30T15:08:36.004Z</time></trkpt><trkpt lat="42.1093376" lon="4.3815711"><ele>0.0</ele><time>2026-04-30T15:08:37.005Z</time></trkpt><trkpt lat="42.1093726" lon="4.3816719"><ele>0.0</ele><time>2026-04-30T15:08:38.004Z</time></trkpt><trkpt lat="42.1094176" lon="4.381778"><ele>0.0</ele><time>2026-04-30T15:08:39.005Z</time></trkpt><trkpt lat="42.1094685" lon="4.3818789"><ele>0.0</ele><time>2026-04-30T15:08:40.004Z</time></trkpt><trkpt lat="42.1095101" lon="4.3819837"><ele>0.0</ele><time>2026-04-30T15:08:41.005Z</time></trkpt><trkpt lat="42.1095504" lon="4.3820839"><ele>0.0</ele><time>2026-04-30T15:08:42.005Z</time></trkpt><trkpt lat="42.1095899" lon="4.3821908"><ele>0.0</ele><time>2026-04-30T15:08:43.004Z</time></trkpt><trkpt lat="42.1096287" lon="4.3822907"><ele>0.0</ele><time>2026-04-30T15:08:44.005Z</time></trkpt><trkpt lat="42.1096975" lon="4.3824932"><ele>0.0</ele><time>2026-04-30T15:08:46.005Z</time></trkpt><trkpt lat="42.1097338" lon="4.3825966"><ele>0.0</ele><time>2026-04-30T15:08:47.005Z</time></trkpt><trkpt lat="42.1097716" lon="4.3827015"><ele>0.0</ele><time>2026-04-30T15:08:48.005Z</time></trkpt><trkpt lat="42.10981" lon="4.3828066"><ele>0.0</ele><time>2026-04-30T15:08:49.004Z</time></trkpt><trkpt lat="42.1098571" lon="4.3828973"><ele>0.0</ele><time>2026-04-30T15:08:50.005Z</time></trkpt><trkpt lat="42.1099126" lon="4.3829854"><ele>0.0</ele><time>2026-04-30T15:08:51.004Z</time></trkpt><trkpt lat="42.109959" lon="4.3830871"><ele>0.0</ele><time>2026-04-30T15:08:52.004Z</time></trkpt><trkpt lat="42.1099972" lon="4.3831831"><ele>0.0</ele><time>2026-04-30T15:08:53.004Z</time></trkpt><trkpt lat="42.1100762" lon="4.3833976"><ele>0.0</ele><time>2026-04-30T15:08:55.005Z</time></trkpt><trkpt lat="42.1101108" lon="4.3835129"><ele>0.0</ele><time>2026-04-30T15:08:56.005Z</time></trkpt><trkpt lat="42.1101499" lon="4.383625"><ele>0.0</ele><time>2026-04-30T15:08:57.005Z</time></trkpt><trkpt lat="42.1101868" lon="4.3837298"><ele>0.0</ele><time>2026-04-30T15:08:58.004Z</time></trkpt><trkpt lat="42.1102221" lon="4.383832"><ele>0.0</ele><time>2026-04-30T15:08:59.004Z</time></trkpt><trkpt lat="42.1102576" lon="4.3839264"><ele>0.0</ele><time>2026-04-30T15:09:00.004Z</time></trkpt><trkpt lat="42.1102952" lon="4.3840284"><ele>0.0</ele><time>2026-04-30T15:09:01.005Z</time></trkpt><trkpt lat="42.110335" lon="4.3841357"><ele>0.0</ele><time>2026-04-30T15:09:02.004Z</time></trkpt><trkpt lat="42.1103736" lon="4.3842341"><ele>0.0</ele><time>2026-04-30T15:09:03.004Z</time></trkpt><trkpt lat="42.1104134" lon="4.3843351"><ele>0.0</ele><time>2026-04-30T15:09:04.005Z</time></trkpt><trkpt lat="42.1104519" lon="4.3844367"><ele>0.0</ele><time>2026-04-30T15:09:05.004Z</time></trkpt><trkpt lat="42.1105302" lon="4.3846413"><ele>0.0</ele><time>2026-04-30T15:09:07.004Z</time></trkpt><trkpt lat="42.1105744" lon="4.3847501"><ele>0.0</ele><time>2026-04-30T15:09:08.005Z</time></trkpt><trkpt lat="42.1106167" lon="4.3848512"><ele>0.0</ele><time>2026-04-30T15:09:09.004Z</time></trkpt><trkpt lat="42.1106617" lon="4.3849511"><ele>0.0</ele><time>2026-04-30T15:09:10.004Z</time></trkpt><trkpt lat="42.110705" lon="4.3850526"><ele>0.0</ele><time>2026-04-30T15:09:11.004Z</time></trkpt><trkpt lat="42.1107439" lon="4.3851529"><ele>0.0</ele><time>2026-04-30T15:09:12.004Z</time></trkpt><trkpt lat="42.1107806" lon="4.3852585"><ele>0.0</ele><time>2026-04-30T15:09:13.004Z</time></trkpt><trkpt lat="42.1108219" lon="4.3853644"><ele>0.0</ele><time>2026-04-30T15:09:14.004Z</time></trkpt><trkpt lat="42.1108636" lon="4.3854678"><ele>0.0</ele><time>2026-04-30T15:09:15.005Z</time></trkpt><trkpt lat="42.1109053" lon="4.3855725"><ele>0.0</ele><time>2026-04-30T15:09:16.005Z</time></trkpt><trkpt lat="42.1109456" lon="4.3856715"><ele>0.0</ele><time>2026-04-30T15:09:17.005Z</time></trkpt><trkpt lat="42.110984" lon="4.3857687"><ele>0.0</ele><time>2026-04-30T15:09:18.004Z</time></trkpt><trkpt lat="42.1110179" lon="4.3858682"><ele>0.0</ele><time>2026-04-30T15:09:19.005Z</time></trkpt><trkpt lat="42.1110556" lon="4.3859696"><ele>0.0</ele><time>2026-04-30T15:09:20.005Z</time></trkpt><trkpt lat="42.1110869" lon="4.3860661"><ele>0.0</ele><time>2026-04-30T15:09:21.004Z</time></trkpt><trkpt lat="42.1111254" lon="4.386167"><ele>0.0</ele><time>2026-04-30T15:09:22.005Z</time></trkpt><trkpt lat="42.1111697" lon="4.3862653"><ele>0.0</ele><time>2026-04-30T15:09:23.004Z</time></trkpt><trkpt lat="42.1112163" lon="4.3863635"><ele>0.0</ele><time>2026-04-30T15:09:24.004Z</time></trkpt><trkpt lat="42.1112582" lon="4.3864663"><ele>0.0</ele><time>2026-04-30T15:09:25.004Z</time></trkpt><trkpt lat="42.1113031" lon="4.3865679"><ele>0.0</ele><time>2026-04-30T15:09:26.004Z</time></trkpt><trkpt lat="42.1113898" lon="4.3867762"><ele>0.0</ele><time>2026-04-30T15:09:28.005Z</time></trkpt><trkpt lat="42.1114276" lon="4.3868821"><ele>0.0</ele><time>2026-04-30T15:09:29.005Z</time></trkpt><trkpt lat="42.1114656" lon="4.3869918"><ele>0.0</ele><time>2026-04-30T15:09:30.004Z</time></trkpt><trkpt lat="42.1115022" lon="4.3870979"><ele>0.0</ele><time>2026-04-30T15:09:31.005Z</time></trkpt><trkpt lat="42.1115405" lon="4.3872059"><ele>0.0</ele><time>2026-04-30T15:09:32.005Z</time></trkpt><trkpt lat="42.1115647" lon="4.3873197"><ele>0.0</ele><time>2026-04-30T15:09:33.005Z</time></trkpt><trkpt lat="42.111601" lon="4.3874245"><ele>0.0</ele><time>2026-04-30T15:09:34.005Z</time></trkpt><trkpt lat="42.1116387" lon="4.3875279"><ele>0.0</ele><time>2026-04-30T15:09:35.004Z</time></trkpt><trkpt lat="42.1116785" lon="4.387634"><ele>0.0</ele><time>2026-04-30T15:09:36.004Z</time></trkpt><trkpt lat="42.1117156" lon="4.3877367"><ele>0.0</ele><time>2026-04-30T15:09:37.004Z</time></trkpt><trkpt lat="42.1117552" lon="4.3878385"><ele>0.0</ele><time>2026-04-30T15:09:38.004Z</time></trkpt><trkpt lat="42.1117947" lon="4.387939"><ele>0.0</ele><time>2026-04-30T15:09:39.005Z</time></trkpt><trkpt lat="42.1118306" lon="4.3880419"><ele>0.0</ele><time>2026-04-30T15:09:40.004Z</time></trkpt><trkpt lat="42.111867" lon="4.3881467"><ele>0.0</ele><time>2026-04-30T15:09:41.004Z</time></trkpt><trkpt lat="42.1119035" lon="4.388255"><ele>0.0</ele><time>2026-04-30T15:09:42.004Z</time></trkpt><trkpt lat="42.1119399" lon="4.3883647"><ele>0.0</ele><time>2026-04-30T15:09:43.005Z</time></trkpt><trkpt lat="42.1119771" lon="4.3884684"><ele>0.0</ele><time>2026-04-30T15:09:44.005Z</time></trkpt><trkpt lat="42.1120122" lon="4.388572"><ele>0.0</ele><time>2026-04-30T15:09:45.005Z</time></trkpt><trkpt lat="42.1120454" lon="4.388677"><ele>0.0</ele><time>2026-04-30T15:09:46.005Z</time></trkpt><trkpt lat="42.1120818" lon="4.3887833"><ele>0.0</ele><time>2026-04-30T15:09:47.004Z</time></trkpt><trkpt lat="42.1121571" lon="4.3889892"><ele>0.0</ele><time>2026-04-30T15:09:49.004Z</time></trkpt><trkpt lat="42.1121873" lon="4.3890867"><ele>0.0</ele><time>2026-04-30T15:09:50.004Z</time></trkpt><trkpt lat="42.1122184" lon="4.389191"><ele>0.0</ele><time>2026-04-30T15:09:51.004Z</time></trkpt><trkpt lat="42.1122516" lon="4.3892958"><ele>0.0</ele><time>2026-04-30T15:09:52.005Z</time></trkpt><trkpt lat="42.1122869" lon="4.3893981"><ele>0.0</ele><time>2026-04-30T15:09:53.005Z</time></trkpt><trkpt lat="42.1123202" lon="4.3894997"><ele>0.0</ele><time>2026-04-30T15:09:54.004Z</time></trkpt><trkpt lat="42.1123593" lon="4.3895995"><ele>0.0</ele><time>2026-04-30T15:09:55.004Z</time></trkpt><trkpt lat="42.1124176" lon="4.3896984"><ele>0.0</ele><time>2026-04-30T15:09:56.004Z</time></trkpt><trkpt lat="42.1124664" lon="4.3897979"><ele>0.0</ele><time>2026-04-30T15:09:57.004Z</time></trkpt><trkpt lat="42.1125598" lon="4.3899937"><ele>0.0</ele><time>2026-04-30T15:09:59.004Z</time></trkpt><trkpt lat="42.1126024" lon="4.390094"><ele>0.0</ele><time>2026-04-30T15:10:00.004Z</time></trkpt><trkpt lat="42.1126429" lon="4.3901914"><ele>0.0</ele><time>2026-04-30T15:10:01.004Z</time></trkpt><trkpt lat="42.112686" lon="4.3902866"><ele>0.0</ele><time>2026-04-30T15:10:02.005Z</time></trkpt><trkpt lat="42.1127295" lon="4.3903815"><ele>0.0</ele><time>2026-04-30T15:10:03.004Z</time></trkpt><trkpt lat="42.1127699" lon="4.3904804"><ele>0.0</ele><time>2026-04-30T15:10:04.004Z</time></trkpt><trkpt lat="42.1128072" lon="4.3905816"><ele>0.0</ele><time>2026-04-30T15:10:05.005Z</time></trkpt><trkpt lat="42.1128525" lon="4.3906788"><ele>0.0</ele><time>2026-04-30T15:10:06.004Z</time></trkpt><trkpt lat="42.1128933" lon="4.390777"><ele>0.0</ele><time>2026-04-30T15:10:07.005Z</time></trkpt><trkpt lat="42.1129381" lon="4.3908764"><ele>0.0</ele><time>2026-04-30T15:10:08.004Z</time></trkpt><trkpt lat="42.1130229" lon="4.3910785"><ele>0.0</ele><time>2026-04-30T15:10:10.005Z</time></trkpt><trkpt lat="42.1130632" lon="4.3911884"><ele>0.0</ele><time>2026-04-30T15:10:11.005Z</time></trkpt><trkpt lat="42.1131036" lon="4.3912971"><ele>0.0</ele><time>2026-04-30T15:10:12.005Z</time></trkpt><trkpt lat="42.1131421" lon="4.3914014"><ele>0.0</ele><time>2026-04-30T15:10:13.005Z</time></trkpt><trkpt lat="42.1131804" lon="4.391505"><ele>0.0</ele><time>2026-04-30T15:10:14.004Z</time></trkpt><trkpt lat="42.1132158" lon="4.3916058"><ele>0.0</ele><time>2026-04-30T15:10:15.004Z</time></trkpt><trkpt lat="42.1132489" lon="4.391706"><ele>0.0</ele><time>2026-04-30T15:10:16.005Z</time></trkpt><trkpt lat="42.1132879" lon="4.3918033"><ele>0.0</ele><time>2026-04-30T15:10:17.005Z</time></trkpt><trkpt lat="42.1133294" lon="4.3919112"><ele>0.0</ele><time>2026-04-30T15:10:18.005Z</time></trkpt><trkpt lat="42.113367" lon="4.3920171"><ele>0.0</ele><time>2026-04-30T15:10:19.004Z</time></trkpt><trkpt lat="42.1134065" lon="4.3921163"><ele>0.0</ele><time>2026-04-30T15:10:20.004Z</time></trkpt><trkpt lat="42.1134449" lon="4.3922201"><ele>0.0</ele><time>2026-04-30T15:10:21.004Z</time></trkpt><trkpt lat="42.1134862" lon="4.3923232"><ele>0.0</ele><time>2026-04-30T15:10:22.004Z</time></trkpt><trkpt lat="42.1135502" lon="4.392416"><ele>0.0</ele><time>2026-04-30T15:10:23.004Z</time></trkpt><trkpt lat="42.1135944" lon="4.3925172"><ele>0.0</ele><time>2026-04-30T15:10:24.005Z</time></trkpt><trkpt lat="42.1136393" lon="4.3926116"><ele>0.0</ele><time>2026-04-30T15:10:25.004Z</time></trkpt><trkpt lat="42.1136797" lon="4.3927107"><ele>0.0</ele><time>2026-04-30T15:10:26.005Z</time></trkpt><trkpt lat="42.1137214" lon="4.3928104"><ele>0.0</ele><time>2026-04-30T15:10:27.005Z</time></trkpt><trkpt lat="42.1137572" lon="4.3929175"><ele>0.0</ele><time>2026-04-30T15:10:28.005Z</time></trkpt><trkpt lat="42.1137923" lon="4.3930163"><ele>0.0</ele><time>2026-04-30T15:10:29.004Z</time></trkpt><trkpt lat="42.1138272" lon="4.3931172"><ele>0.0</ele><time>2026-04-30T15:10:30.005Z</time></trkpt><trkpt lat="42.1139347" lon="4.3934306"><ele>0.0</ele><time>2026-04-30T15:10:33.004Z</time></trkpt><trkpt lat="42.1139523" lon="4.3935498"><ele>0.0</ele><time>2026-04-30T15:10:34.004Z</time></trkpt><trkpt lat="42.1139903" lon="4.393657"><ele>0.0</ele><time>2026-04-30T15:10:35.004Z</time></trkpt><trkpt lat="42.1140286" lon="4.3937597"><ele>0.0</ele><time>2026-04-30T15:10:36.005Z</time></trkpt><trkpt lat="42.1140613" lon="4.3938657"><ele>0.0</ele><time>2026-04-30T15:10:37.004Z</time></trkpt><trkpt lat="42.1140973" lon="4.393972"><ele>0.0</ele><time>2026-04-30T15:10:38.004Z</time></trkpt><trkpt lat="42.1141481" lon="4.3940674"><ele>0.0</ele><time>2026-04-30T15:10:39.005Z</time></trkpt><trkpt lat="42.1141843" lon="4.394172"><ele>0.0</ele><time>2026-04-30T15:10:40.005Z</time></trkpt><trkpt lat="42.1142226" lon="4.3942741"><ele>0.0</ele><time>2026-04-30T15:10:41.005Z</time></trkpt><trkpt lat="42.1142511" lon="4.3943803"><ele>0.0</ele><time>2026-04-30T15:10:42.004Z</time></trkpt><trkpt lat="42.1142862" lon="4.394488"><ele>0.0</ele><time>2026-04-30T15:10:43.005Z</time></trkpt><trkpt lat="42.1143229" lon="4.3945902"><ele>0.0</ele><time>2026-04-30T15:10:44.005Z</time></trkpt><trkpt lat="42.1143566" lon="4.3946942"><ele>0.0</ele><time>2026-04-30T15:10:45.004Z</time></trkpt><trkpt lat="42.1143908" lon="4.394798"><ele>0.0</ele><time>2026-04-30T15:10:46.004Z</time></trkpt><trkpt lat="42.1144314" lon="4.3948967"><ele>0.0</ele><time>2026-04-30T15:10:47.004Z</time></trkpt><trkpt lat="42.1144759" lon="4.394995"><ele>0.0</ele><time>2026-04-30T15:10:48.005Z</time></trkpt><trkpt lat="42.1145143" lon="4.3950948"><ele>0.0</ele><time>2026-04-30T15:10:49.005Z</time></trkpt><trkpt lat="42.1145396" lon="4.3952146"><ele>0.0</ele><time>2026-04-30T15:10:50.005Z</time></trkpt><trkpt lat="42.1145871" lon="4.3953121"><ele>0.0</ele><time>2026-04-30T15:10:51.004Z</time></trkpt><trkpt lat="42.114624" lon="4.3954117"><ele>0.0</ele><time>2026-04-30T15:10:52.004Z</time></trkpt><trkpt lat="42.1146589" lon="4.3955145"><ele>0.0</ele><time>2026-04-30T15:10:53.003Z</time></trkpt><trkpt lat="42.1147332" lon="4.3957269"><ele>0.0</ele><time>2026-04-30T15:10:55.003Z</time></trkpt><trkpt lat="42.1147689" lon="4.3958412"><ele>0.0</ele><time>2026-04-30T15:10:56.003Z</time></trkpt><trkpt lat="42.1148039" lon="4.3959551"><ele>0.0</ele><time>2026-04-30T15:10:57.004Z</time></trkpt><trkpt lat="42.114842" lon="4.3960599"><ele>0.0</ele><time>2026-04-30T15:10:58.004Z</time></trkpt><trkpt lat="42.1148776" lon="4.3961673"><ele>0.0</ele><time>2026-04-30T15:10:59.003Z</time></trkpt><trkpt lat="42.1149125" lon="4.3962739"><ele>0.0</ele><time>2026-04-30T15:11:00.003Z</time></trkpt><trkpt lat="42.1149443" lon="4.3963866"><ele>0.0</ele><time>2026-04-30T15:11:01.003Z</time></trkpt><trkpt lat="42.1149871" lon="4.3964929"><ele>0.0</ele><time>2026-04-30T15:11:02.003Z</time></trkpt><trkpt lat="42.1150236" lon="4.396592"><ele>0.0</ele><time>2026-04-30T15:11:03.004Z</time></trkpt><trkpt lat="42.1150617" lon="4.3966961"><ele>0.0</ele><time>2026-04-30T15:11:04.004Z</time></trkpt><trkpt lat="42.1150946" lon="4.3967984"><ele>0.0</ele><time>2026-04-30T15:11:05.003Z</time></trkpt><trkpt lat="42.1151261" lon="4.3969045"><ele>0.0</ele><time>2026-04-30T15:11:06.004Z</time></trkpt><trkpt lat="42.1151648" lon="4.397014"><ele>0.0</ele><time>2026-04-30T15:11:07.003Z</time></trkpt><trkpt lat="42.1152005" lon="4.3971184"><ele>0.0</ele><time>2026-04-30T15:11:08.004Z</time></trkpt><trkpt lat="42.1152356" lon="4.3972216"><ele>0.0</ele><time>2026-04-30T15:11:09.003Z</time></trkpt><trkpt lat="42.1152718" lon="4.3973254"><ele>0.0</ele><time>2026-04-30T15:11:10.003Z</time></trkpt><trkpt lat="42.1153098" lon="4.3974261"><ele>0.0</ele><time>2026-04-30T15:11:11.003Z</time></trkpt><trkpt lat="42.1153495" lon="4.3975268"><ele>0.0</ele><time>2026-04-30T15:11:12.003Z</time></trkpt><trkpt lat="42.1153911" lon="4.3976297"><ele>0.0</ele><time>2026-04-30T15:11:13.004Z</time></trkpt><trkpt lat="42.1154297" lon="4.3977367"><ele>0.0</ele><time>2026-04-30T15:11:14.003Z</time></trkpt><trkpt lat="42.1154886" lon="4.3979524"><ele>0.0</ele><time>2026-04-30T15:11:16.003Z</time></trkpt><trkpt lat="42.1155203" lon="4.3980547"><ele>0.0</ele><time>2026-04-30T15:11:17.003Z</time></trkpt><trkpt lat="42.1155534" lon="4.3981596"><ele>0.0</ele><time>2026-04-30T15:11:18.003Z</time></trkpt><trkpt lat="42.115587" lon="4.3982652"><ele>0.0</ele><time>2026-04-30T15:11:19.003Z</time></trkpt><trkpt lat="42.1156258" lon="4.3983619"><ele>0.0</ele><time>2026-04-30T15:11:20.003Z</time></trkpt><trkpt lat="42.1156629" lon="4.398474"><ele>0.0</ele><time>2026-04-30T15:11:21.004Z</time></trkpt><trkpt lat="42.1156981" lon="4.3985872"><ele>0.0</ele><time>2026-04-30T15:11:22.003Z</time></trkpt><trkpt lat="42.1157317" lon="4.3986991"><ele>0.0</ele><time>2026-04-30T15:11:23.003Z</time></trkpt><trkpt lat="42.1157622" lon="4.3988136"><ele>0.0</ele><time>2026-04-30T15:11:24.003Z</time></trkpt><trkpt lat="42.1157954" lon="4.3989259"><ele>0.0</ele><time>2026-04-30T15:11:25.003Z</time></trkpt><trkpt lat="42.1158299" lon="4.3990305"><ele>0.0</ele><time>2026-04-30T15:11:26.003Z</time></trkpt><trkpt lat="42.1158649" lon="4.3991371"><ele>0.0</ele><time>2026-04-30T15:11:27.003Z</time></trkpt><trkpt lat="42.1159016" lon="4.3992354"><ele>0.0</ele><time>2026-04-30T15:11:28.003Z</time></trkpt><trkpt lat="42.1159626" lon="4.3993196"><ele>0.0</ele><time>2026-04-30T15:11:29.004Z</time></trkpt><trkpt lat="42.1160075" lon="4.3994196"><ele>0.0</ele><time>2026-04-30T15:11:30.004Z</time></trkpt><trkpt lat="42.1160466" lon="4.3995224"><ele>0.0</ele><time>2026-04-30T15:11:31.003Z</time></trkpt><trkpt lat="42.1160818" lon="4.3996187"><ele>0.0</ele><time>2026-04-30T15:11:32.003Z</time></trkpt><trkpt lat="42.1161168" lon="4.3997138"><ele>0.0</ele><time>2026-04-30T15:11:33.003Z</time></trkpt><trkpt lat="42.1161574" lon="4.3998144"><ele>0.0</ele><time>2026-04-30T15:11:34.003Z</time></trkpt><trkpt lat="42.1161964" lon="4.3999163"><ele>0.0</ele><time>2026-04-30T15:11:35.004Z</time></trkpt><trkpt lat="42.1162333" lon="4.4000261"><ele>0.0</ele><time>2026-04-30T15:11:36.003Z</time></trkpt><trkpt lat="42.1163045" lon="4.4002339"><ele>0.0</ele><time>2026-04-30T15:11:38.003Z</time></trkpt><trkpt lat="42.1163388" lon="4.4003358"><ele>0.0</ele><time>2026-04-30T15:11:39.003Z</time></trkpt><trkpt lat="42.1163749" lon="4.4004361"><ele>0.0</ele><time>2026-04-30T15:11:40.004Z</time></trkpt><trkpt lat="42.1164144" lon="4.4005402"><ele>0.0</ele><time>2026-04-30T15:11:41.004Z</time></trkpt><trkpt lat="42.1164501" lon="4.4006479"><ele>0.0</ele><time>2026-04-30T15:11:42.004Z</time></trkpt><trkpt lat="42.1164822" lon="4.400759"><ele>0.0</ele><time>2026-04-30T15:11:43.003Z</time></trkpt><trkpt lat="42.116517" lon="4.4008677"><ele>0.0</ele><time>2026-04-30T15:11:44.003Z</time></trkpt><trkpt lat="42.1165532" lon="4.400973"><ele>0.0</ele><time>2026-04-30T15:11:45.004Z</time></trkpt><trkpt lat="42.1165859" lon="4.4010754"><ele>0.0</ele><time>2026-04-30T15:11:46.003Z</time></trkpt><trkpt lat="42.1166205" lon="4.4011771"><ele>0.0</ele><time>2026-04-30T15:11:47.003Z</time></trkpt><trkpt lat="42.1166614" lon="4.4012772"><ele>0.0</ele><time>2026-04-30T15:11:48.003Z</time></trkpt><trkpt lat="42.1166986" lon="4.4013815"><ele>0.0</ele><time>2026-04-30T15:11:49.003Z</time></trkpt><trkpt lat="42.1167343" lon="4.4014851"><ele>0.0</ele><time>2026-04-30T15:11:50.004Z</time></trkpt><trkpt lat="42.1167662" lon="4.4015916"><ele>0.0</ele><time>2026-04-30T15:11:51.004Z</time></trkpt><trkpt lat="42.1168023" lon="4.4016936"><ele>0.0</ele><time>2026-04-30T15:11:52.003Z</time></trkpt><trkpt lat="42.1168401" lon="4.4018"><ele>0.0</ele><time>2026-04-30T15:11:53.004Z</time></trkpt><trkpt lat="42.1168827" lon="4.401902"><ele>0.0</ele><time>2026-04-30T15:11:54.004Z</time></trkpt><trkpt lat="42.1169259" lon="4.4020083"><ele>0.0</ele><time>2026-04-30T15:11:55.003Z</time></trkpt><trkpt lat="42.1169675" lon="4.4021023"><ele>0.0</ele><time>2026-04-30T15:11:56.004Z</time></trkpt><trkpt lat="42.1170023" lon="4.4021996"><ele>0.0</ele><time>2026-04-30T15:11:57.004Z</time></trkpt><trkpt lat="42.1170414" lon="4.4023005"><ele>0.0</ele><time>2026-04-30T15:11:58.004Z</time></trkpt><trkpt lat="42.1171056" lon="4.4025009"><ele>0.0</ele><time>2026-04-30T15:12:00.003Z</time></trkpt><trkpt lat="42.1171404" lon="4.4026019"><ele>0.0</ele><time>2026-04-30T15:12:01.004Z</time></trkpt><trkpt lat="42.1171868" lon="4.4026949"><ele>0.0</ele><time>2026-04-30T15:12:02.003Z</time></trkpt><trkpt lat="42.1172279" lon="4.4027954"><ele>0.0</ele><time>2026-04-30T15:12:03.003Z</time></trkpt><trkpt lat="42.1172695" lon="4.4028969"><ele>0.0</ele><time>2026-04-30T15:12:04.003Z</time></trkpt><trkpt lat="42.1173068" lon="4.4030011"><ele>0.0</ele><time>2026-04-30T15:12:05.003Z</time></trkpt><trkpt lat="42.117342" lon="4.403109"><ele>0.0</ele><time>2026-04-30T15:12:06.003Z</time></trkpt><trkpt lat="42.1173756" lon="4.4032151"><ele>0.0</ele><time>2026-04-30T15:12:07.004Z</time></trkpt><trkpt lat="42.1174119" lon="4.4033213"><ele>0.0</ele><time>2026-04-30T15:12:08.004Z</time></trkpt><trkpt lat="42.1174487" lon="4.403432"><ele>0.0</ele><time>2026-04-30T15:12:09.003Z</time></trkpt><trkpt lat="42.1174878" lon="4.4035353"><ele>0.0</ele><time>2026-04-30T15:12:10.003Z</time></trkpt><trkpt lat="42.1175267" lon="4.4036384"><ele>0.0</ele><time>2026-04-30T15:12:11.004Z</time></trkpt><trkpt lat="42.117565" lon="4.4037443"><ele>0.0</ele><time>2026-04-30T15:12:12.004Z</time></trkpt><trkpt lat="42.1176076" lon="4.4038453"><ele>0.0</ele><time>2026-04-30T15:12:13.004Z</time></trkpt><trkpt lat="42.1176481" lon="4.4039485"><ele>0.0</ele><time>2026-04-30T15:12:14.003Z</time></trkpt><trkpt lat="42.1176878" lon="4.4040486"><ele>0.0</ele><time>2026-04-30T15:12:15.004Z</time></trkpt><trkpt lat="42.1177263" lon="4.4041589"><ele>0.0</ele><time>2026-04-30T15:12:16.003Z</time></trkpt><trkpt lat="42.1177637" lon="4.4042643"><ele>0.0</ele><time>2026-04-30T15:12:17.003Z</time></trkpt><trkpt lat="42.1178002" lon="4.4043755"><ele>0.0</ele><time>2026-04-30T15:12:18.004Z</time></trkpt><trkpt lat="42.1178357" lon="4.4044855"><ele>0.0</ele><time>2026-04-30T15:12:19.003Z</time></trkpt><trkpt lat="42.1179084" lon="4.4046881"><ele>0.0</ele><time>2026-04-30T15:12:21.003Z</time></trkpt><trkpt lat="42.1179394" lon="4.4047929"><ele>0.0</ele><time>2026-04-30T15:12:22.004Z</time></trkpt><trkpt lat="42.1179753" lon="4.4048994"><ele>0.0</ele><time>2026-04-30T15:12:23.004Z</time></trkpt><trkpt lat="42.1180123" lon="4.4050046"><ele>0.0</ele><time>2026-04-30T15:12:24.003Z</time></trkpt><trkpt lat="42.1180487" lon="4.4051038"><ele>0.0</ele><time>2026-04-30T15:12:25.003Z</time></trkpt><trkpt lat="42.1180866" lon="4.405208"><ele>0.0</ele><time>2026-04-30T15:12:26.004Z</time></trkpt><trkpt lat="42.1181221" lon="4.4053189"><ele>0.0</ele><time>2026-04-30T15:12:27.004Z</time></trkpt><trkpt lat="42.1181572" lon="4.4054205"><ele>0.0</ele><time>2026-04-30T15:12:28.004Z</time></trkpt><trkpt lat="42.1181909" lon="4.4055219"><ele>0.0</ele><time>2026-04-30T15:12:29.004Z</time></trkpt><trkpt lat="42.1182275" lon="4.4056251"><ele>0.0</ele><time>2026-04-30T15:12:30.004Z</time></trkpt><trkpt lat="42.1182621" lon="4.4057259"><ele>0.0</ele><time>2026-04-30T15:12:31.003Z</time></trkpt><trkpt lat="42.1182999" lon="4.4058313"><ele>0.0</ele><time>2026-04-30T15:12:32.003Z</time></trkpt><trkpt lat="42.1183423" lon="4.4059424"><ele>0.0</ele><time>2026-04-30T15:12:33.003Z</time></trkpt><trkpt lat="42.1183862" lon="4.4060452"><ele>0.0</ele><time>2026-04-30T15:12:34.003Z</time></trkpt><trkpt lat="42.1184238" lon="4.4061512"><ele>0.0</ele><time>2026-04-30T15:12:35.004Z</time></trkpt><trkpt lat="42.118462" lon="4.4062518"><ele>0.0</ele><time>2026-04-30T15:12:36.003Z</time></trkpt><trkpt lat="42.1184999" lon="4.4063492"><ele>0.0</ele><time>2026-04-30T15:12:37.004Z</time></trkpt><trkpt lat="42.1185386" lon="4.406453"><ele>0.0</ele><time>2026-04-30T15:12:38.003Z</time></trkpt><trkpt lat="42.1185768" lon="4.4065535"><ele>0.0</ele><time>2026-04-30T15:12:39.003Z</time></trkpt><trkpt lat="42.118641" lon="4.4067745"><ele>0.0</ele><time>2026-04-30T15:12:41.003Z</time></trkpt><trkpt lat="42.1187127" lon="4.4069874"><ele>0.0</ele><time>2026-04-30T15:12:43.004Z</time></trkpt><trkpt lat="42.118746" lon="4.4070901"><ele>0.0</ele><time>2026-04-30T15:12:44.003Z</time></trkpt><trkpt lat="42.1187803" lon="4.4071891"><ele>0.0</ele><time>2026-04-30T15:12:45.004Z</time></trkpt><trkpt lat="42.1188166" lon="4.4072931"><ele>0.0</ele><time>2026-04-30T15:12:46.003Z</time></trkpt><trkpt lat="42.1188592" lon="4.4074021"><ele>0.0</ele><time>2026-04-30T15:12:47.003Z</time></trkpt><trkpt lat="42.1188983" lon="4.4075066"><ele>0.0</ele><time>2026-04-30T15:12:48.004Z</time></trkpt><trkpt lat="42.1189368" lon="4.4076072"><ele>0.0</ele><time>2026-04-30T15:12:49.003Z</time></trkpt><trkpt lat="42.1189767" lon="4.407707"><ele>0.0</ele><time>2026-04-30T15:12:50.003Z</time></trkpt><trkpt lat="42.1190121" lon="4.4078044"><ele>0.0</ele><time>2026-04-30T15:12:51.004Z</time></trkpt><trkpt lat="42.1190516" lon="4.4079097"><ele>0.0</ele><time>2026-04-30T15:12:52.004Z</time></trkpt><trkpt lat="42.1190899" lon="4.4080092"><ele>0.0</ele><time>2026-04-30T15:12:53.003Z</time></trkpt><trkpt lat="42.1191301" lon="4.4081118"><ele>0.0</ele><time>2026-04-30T15:12:54.003Z</time></trkpt><trkpt lat="42.1191699" lon="4.4082137"><ele>0.0</ele><time>2026-04-30T15:12:55.004Z</time></trkpt><trkpt lat="42.1192113" lon="4.408321"><ele>0.0</ele><time>2026-04-30T15:12:56.003Z</time></trkpt><trkpt lat="42.119247" lon="4.4084222"><ele>0.0</ele><time>2026-04-30T15:12:57.003Z</time></trkpt><trkpt lat="42.1192832" lon="4.4085223"><ele>0.0</ele><time>2026-04-30T15:12:58.003Z</time></trkpt><trkpt lat="42.1193216" lon="4.4086268"><ele>0.0</ele><time>2026-04-30T15:12:59.003Z</time></trkpt><trkpt lat="42.1193588" lon="4.4087228"><ele>0.0</ele><time>2026-04-30T15:13:00.004Z</time></trkpt><trkpt lat="42.1193868" lon="4.4088274"><ele>0.0</ele><time>2026-04-30T15:13:01.004Z</time></trkpt><trkpt lat="42.1194172" lon="4.4089325"><ele>0.0</ele><time>2026-04-30T15:13:02.003Z</time></trkpt><trkpt lat="42.1194882" lon="4.4091472"><ele>0.0</ele><time>2026-04-30T15:13:04.004Z</time></trkpt><trkpt lat="42.1195239" lon="4.4092499"><ele>0.0</ele><time>2026-04-30T15:13:05.003Z</time></trkpt><trkpt lat="42.1195648" lon="4.4093517"><ele>0.0</ele><time>2026-04-30T15:13:06.004Z</time></trkpt><trkpt lat="42.119599" lon="4.409458"><ele>0.0</ele><time>2026-04-30T15:13:07.004Z</time></trkpt><trkpt lat="42.1196395" lon="4.4095661"><ele>0.0</ele><time>2026-04-30T15:13:08.003Z</time></trkpt><trkpt lat="42.1196784" lon="4.4096715"><ele>0.0</ele><time>2026-04-30T15:13:09.004Z</time></trkpt><trkpt lat="42.1197151" lon="4.4097749"><ele>0.0</ele><time>2026-04-30T15:13:10.003Z</time></trkpt><trkpt lat="42.1197549" lon="4.4098754"><ele>0.0</ele><time>2026-04-30T15:13:11.003Z</time></trkpt><trkpt lat="42.1197949" lon="4.4099708"><ele>0.0</ele><time>2026-04-30T15:13:12.004Z</time></trkpt><trkpt lat="42.1198718" lon="4.4101729"><ele>0.0</ele><time>2026-04-30T15:13:14.003Z</time></trkpt><trkpt lat="42.1199102" lon="4.4102823"><ele>0.0</ele><time>2026-04-30T15:13:15.003Z</time></trkpt><trkpt lat="42.1199472" lon="4.4103854"><ele>0.0</ele><time>2026-04-30T15:13:16.003Z</time></trkpt><trkpt lat="42.1199822" lon="4.4104943"><ele>0.0</ele><time>2026-04-30T15:13:17.004Z</time></trkpt><trkpt lat="42.1200213" lon="4.4106101"><ele>0.0</ele><time>2026-04-30T15:13:18.003Z</time></trkpt><trkpt lat="42.1200543" lon="4.4107124"><ele>0.0</ele><time>2026-04-30T15:13:19.003Z</time></trkpt><trkpt lat="42.1200871" lon="4.4108197"><ele>0.0</ele><time>2026-04-30T15:13:20.003Z</time></trkpt><trkpt lat="42.1201248" lon="4.4109208"><ele>0.0</ele><time>2026-04-30T15:13:21.003Z</time></trkpt><trkpt lat="42.1201602" lon="4.4110251"><ele>0.0</ele><time>2026-04-30T15:13:22.003Z</time></trkpt><trkpt lat="42.1202027" lon="4.411127"><ele>0.0</ele><time>2026-04-30T15:13:23.004Z</time></trkpt><trkpt lat="42.1202825" lon="4.4113263"><ele>0.0</ele><time>2026-04-30T15:13:25.003Z</time></trkpt><trkpt lat="42.1203219" lon="4.4114241"><ele>0.0</ele><time>2026-04-30T15:13:26.004Z</time></trkpt><trkpt lat="42.1203617" lon="4.4115249"><ele>0.0</ele><time>2026-04-30T15:13:27.003Z</time></trkpt><trkpt lat="42.1204001" lon="4.4116255"><ele>0.0</ele><time>2026-04-30T15:13:28.003Z</time></trkpt><trkpt lat="42.1204343" lon="4.4117266"><ele>0.0</ele><time>2026-04-30T15:13:29.003Z</time></trkpt><trkpt lat="42.1204718" lon="4.4118282"><ele>0.0</ele><time>2026-04-30T15:13:30.003Z</time></trkpt><trkpt lat="42.1205116" lon="4.4119316"><ele>0.0</ele><time>2026-04-30T15:13:31.003Z</time></trkpt><trkpt lat="42.1205517" lon="4.4120405"><ele>0.0</ele><time>2026-04-30T15:13:32.004Z</time></trkpt><trkpt lat="42.1205842" lon="4.4121506"><ele>0.0</ele><time>2026-04-30T15:13:33.004Z</time></trkpt><trkpt lat="42.1206145" lon="4.4122554"><ele>0.0</ele><time>2026-04-30T15:13:34.004Z</time></trkpt><trkpt lat="42.1206558" lon="4.4123573"><ele>0.0</ele><time>2026-04-30T15:13:35.004Z</time></trkpt><trkpt lat="42.1206949" lon="4.412462"><ele>0.0</ele><time>2026-04-30T15:13:36.004Z</time></trkpt><trkpt lat="42.1207272" lon="4.4125597"><ele>0.0</ele><time>2026-04-30T15:13:37.003Z</time></trkpt><trkpt lat="42.120765" lon="4.4126532"><ele>0.0</ele><time>2026-04-30T15:13:38.003Z</time></trkpt><trkpt lat="42.1208042" lon="4.4127568"><ele>0.0</ele><time>2026-04-30T15:13:39.004Z</time></trkpt><trkpt lat="42.1208469" lon="4.4128591"><ele>0.0</ele><time>2026-04-30T15:13:40.003Z</time></trkpt><trkpt lat="42.1208834" lon="4.4129751"><ele>0.0</ele><time>2026-04-30T15:13:41.004Z</time></trkpt><trkpt lat="42.1209116" lon="4.4130903"><ele>0.0</ele><time>2026-04-30T15:13:42.003Z</time></trkpt><trkpt lat="42.1209426" lon="4.4131943"><ele>0.0</ele><time>2026-04-30T15:13:43.003Z</time></trkpt><trkpt lat="42.1209712" lon="4.4132937"><ele>0.0</ele><time>2026-04-30T15:13:44.003Z</time></trkpt><trkpt lat="42.1210083" lon="4.4133945"><ele>0.0</ele><time>2026-04-30T15:13:45.003Z</time></trkpt><trkpt lat="42.1211206" lon="4.4137129"><ele>0.0</ele><time>2026-04-30T15:13:48.003Z</time></trkpt><trkpt lat="42.1211479" lon="4.4138244"><ele>0.0</ele><time>2026-04-30T15:13:49.003Z</time></trkpt><trkpt lat="42.1211843" lon="4.4139305"><ele>0.0</ele><time>2026-04-30T15:13:50.004Z</time></trkpt><trkpt lat="42.1212196" lon="4.4140408"><ele>0.0</ele><time>2026-04-30T15:13:51.004Z</time></trkpt><trkpt lat="42.1212576" lon="4.4141448"><ele>0.0</ele><time>2026-04-30T15:13:52.004Z</time></trkpt><trkpt lat="42.1212932" lon="4.41425"><ele>0.0</ele><time>2026-04-30T15:13:53.003Z</time></trkpt><trkpt lat="42.1213316" lon="4.4143522"><ele>0.0</ele><time>2026-04-30T15:13:54.004Z</time></trkpt><trkpt lat="42.1213711" lon="4.414458"><ele>0.0</ele><time>2026-04-30T15:13:55.004Z</time></trkpt><trkpt lat="42.1214116" lon="4.4145748"><ele>0.0</ele><time>2026-04-30T15:13:56.003Z</time></trkpt><trkpt lat="42.1214527" lon="4.41468"><ele>0.0</ele><time>2026-04-30T15:13:57.003Z</time></trkpt><trkpt lat="42.1214999" lon="4.4147811"><ele>0.0</ele><time>2026-04-30T15:13:58.003Z</time></trkpt><trkpt lat="42.1215427" lon="4.4148837"><ele>0.0</ele><time>2026-04-30T15:13:59.003Z</time></trkpt><trkpt lat="42.1215743" lon="4.4149851"><ele>0.0</ele><time>2026-04-30T15:14:00.004Z</time></trkpt><trkpt lat="42.1216115" lon="4.41509"><ele>0.0</ele><time>2026-04-30T15:14:01.003Z</time></trkpt><trkpt lat="42.1216516" lon="4.4151979"><ele>0.0</ele><time>2026-04-30T15:14:02.003Z</time></trkpt><trkpt lat="42.1216871" lon="4.4153002"><ele>0.0</ele><time>2026-04-30T15:14:03.004Z</time></trkpt><trkpt lat="42.1217205" lon="4.4153992"><ele>0.0</ele><time>2026-04-30T15:14:04.003Z</time></trkpt><trkpt lat="42.1217528" lon="4.4155073"><ele>0.0</ele><time>2026-04-30T15:14:05.004Z</time></trkpt><trkpt lat="42.1217826" lon="4.4156101"><ele>0.0</ele><time>2026-04-30T15:14:06.004Z</time></trkpt><trkpt lat="42.1218186" lon="4.4157115"><ele>0.0</ele><time>2026-04-30T15:14:07.004Z</time></trkpt><trkpt lat="42.121902" lon="4.4159198"><ele>0.0</ele><time>2026-04-30T15:14:09.004Z</time></trkpt><trkpt lat="42.1219386" lon="4.4160292"><ele>0.0</ele><time>2026-04-30T15:14:10.003Z</time></trkpt><trkpt lat="42.1219737" lon="4.4161346"><ele>0.0</ele><time>2026-04-30T15:14:11.003Z</time></trkpt><trkpt lat="42.1220085" lon="4.4162398"><ele>0.0</ele><time>2026-04-30T15:14:12.004Z</time></trkpt><trkpt lat="42.122052" lon="4.4163421"><ele>0.0</ele><time>2026-04-30T15:14:13.003Z</time></trkpt><trkpt lat="42.1220889" lon="4.4164393"><ele>0.0</ele><time>2026-04-30T15:14:14.004Z</time></trkpt><trkpt lat="42.1221212" lon="4.4165447"><ele>0.0</ele><time>2026-04-30T15:14:15.004Z</time></trkpt><trkpt lat="42.1221469" lon="4.4166484"><ele>0.0</ele><time>2026-04-30T15:14:16.003Z</time></trkpt><trkpt lat="42.1221806" lon="4.4167486"><ele>0.0</ele><time>2026-04-30T15:14:17.004Z</time></trkpt><trkpt lat="42.1222363" lon="4.4169635"><ele>0.0</ele><time>2026-04-30T15:14:19.003Z</time></trkpt><trkpt lat="42.122273" lon="4.41707"><ele>0.0</ele><time>2026-04-30T15:14:20.004Z</time></trkpt><trkpt lat="42.1223099" lon="4.4171666"><ele>0.0</ele><time>2026-04-30T15:14:21.003Z</time></trkpt><trkpt lat="42.1223509" lon="4.4172675"><ele>0.0</ele><time>2026-04-30T15:14:22.004Z</time></trkpt><trkpt lat="42.1223929" lon="4.4173734"><ele>0.0</ele><time>2026-04-30T15:14:23.003Z</time></trkpt><trkpt lat="42.1224326" lon="4.4174858"><ele>0.0</ele><time>2026-04-30T15:14:24.003Z</time></trkpt><trkpt lat="42.1224788" lon="4.4175887"><ele>0.0</ele><time>2026-04-30T15:14:25.003Z</time></trkpt><trkpt lat="42.1225239" lon="4.417691"><ele>0.0</ele><time>2026-04-30T15:14:26.003Z</time></trkpt><trkpt lat="42.1225658" lon="4.4177969"><ele>0.0</ele><time>2026-04-30T15:14:27.003Z</time></trkpt><trkpt lat="42.122603" lon="4.4178979"><ele>0.0</ele><time>2026-04-30T15:14:28.003Z</time></trkpt><trkpt lat="42.1226796" lon="4.4180935"><ele>0.0</ele><time>2026-04-30T15:14:30.004Z</time></trkpt><trkpt lat="42.1227181" lon="4.4181895"><ele>0.0</ele><time>2026-04-30T15:14:31.003Z</time></trkpt><trkpt lat="42.1227551" lon="4.4182904"><ele>0.0</ele><time>2026-04-30T15:14:32.004Z</time></trkpt><trkpt lat="42.1227962" lon="4.4183861"><ele>0.0</ele><time>2026-04-30T15:14:33.003Z</time></trkpt><trkpt lat="42.1228245" lon="4.4184853"><ele>0.0</ele><time>2026-04-30T15:14:34.004Z</time></trkpt><trkpt lat="42.1228584" lon="4.4185878"><ele>0.0</ele><time>2026-04-30T15:14:35.004Z</time></trkpt><trkpt lat="42.122905" lon="4.4186943"><ele>0.0</ele><time>2026-04-30T15:14:36.004Z</time></trkpt><trkpt lat="42.122945" lon="4.4188023"><ele>0.0</ele><time>2026-04-30T15:14:37.004Z</time></trkpt><trkpt lat="42.122982" lon="4.4189076"><ele>0.0</ele><time>2026-04-30T15:14:38.003Z</time></trkpt><trkpt lat="42.1230198" lon="4.4190168"><ele>0.0</ele><time>2026-04-30T15:14:39.004Z</time></trkpt><trkpt lat="42.123054" lon="4.4191217"><ele>0.0</ele><time>2026-04-30T15:14:40.003Z</time></trkpt><trkpt lat="42.1230932" lon="4.4192264"><ele>0.0</ele><time>2026-04-30T15:14:41.004Z</time></trkpt><trkpt lat="42.1231332" lon="4.4193286"><ele>0.0</ele><time>2026-04-30T15:14:42.003Z</time></trkpt><trkpt lat="42.1231704" lon="4.4194271"><ele>0.0</ele><time>2026-04-30T15:14:43.003Z</time></trkpt><trkpt lat="42.1232029" lon="4.419537"><ele>0.0</ele><time>2026-04-30T15:14:44.003Z</time></trkpt><trkpt lat="42.12324" lon="4.4196428"><ele>0.0</ele><time>2026-04-30T15:14:45.003Z</time></trkpt><trkpt lat="42.1232782" lon="4.4197565"><ele>0.0</ele><time>2026-04-30T15:14:46.003Z</time></trkpt><trkpt lat="42.1233095" lon="4.4198686"><ele>0.0</ele><time>2026-04-30T15:14:47.003Z</time></trkpt><trkpt lat="42.1233387" lon="4.4199838"><ele>0.0</ele><time>2026-04-30T15:14:48.003Z</time></trkpt><trkpt lat="42.1233788" lon="4.4200918"><ele>0.0</ele><time>2026-04-30T15:14:49.004Z</time></trkpt><trkpt lat="42.1234987" lon="4.4203923"><ele>0.0</ele><time>2026-04-30T15:14:52.003Z</time></trkpt><trkpt lat="42.1235358" lon="4.4204922"><ele>0.0</ele><time>2026-04-30T15:14:53.004Z</time></trkpt><trkpt lat="42.1235754" lon="4.4206028"><ele>0.0</ele><time>2026-04-30T15:14:54.004Z</time></trkpt><trkpt lat="42.1236168" lon="4.4207063"><ele>0.0</ele><time>2026-04-30T15:14:55.003Z</time></trkpt><trkpt lat="42.1236537" lon="4.4208114"><ele>0.0</ele><time>2026-04-30T15:14:56.003Z</time></trkpt><trkpt lat="42.1236803" lon="4.4209165"><ele>0.0</ele><time>2026-04-30T15:14:57.003Z</time></trkpt><trkpt lat="42.1237153" lon="4.4210183"><ele>0.0</ele><time>2026-04-30T15:14:58.002Z</time></trkpt><trkpt lat="42.1237562" lon="4.4211255"><ele>0.0</ele><time>2026-04-30T15:14:59.003Z</time></trkpt><trkpt lat="42.1237924" lon="4.4212253"><ele>0.0</ele><time>2026-04-30T15:15:00.002Z</time></trkpt><trkpt lat="42.1238192" lon="4.4213278"><ele>0.0</ele><time>2026-04-30T15:15:01.002Z</time></trkpt><trkpt lat="42.1238557" lon="4.4214285"><ele>0.0</ele><time>2026-04-30T15:15:02.002Z</time></trkpt><trkpt lat="42.1238994" lon="4.4215401"><ele>0.0</ele><time>2026-04-30T15:15:03.002Z</time></trkpt><trkpt lat="42.1239371" lon="4.4216436"><ele>0.0</ele><time>2026-04-30T15:15:04.003Z</time></trkpt><trkpt lat="42.123975" lon="4.4217484"><ele>0.0</ele><time>2026-04-30T15:15:05.003Z</time></trkpt><trkpt lat="42.1240087" lon="4.4218546"><ele>0.0</ele><time>2026-04-30T15:15:06.002Z</time></trkpt><trkpt lat="42.1240537" lon="4.4219536"><ele>0.0</ele><time>2026-04-30T15:15:07.002Z</time></trkpt><trkpt lat="42.1240861" lon="4.422055"><ele>0.0</ele><time>2026-04-30T15:15:08.002Z</time></trkpt><trkpt lat="42.1241191" lon="4.4221612"><ele>0.0</ele><time>2026-04-30T15:15:09.003Z</time></trkpt><trkpt lat="42.1241521" lon="4.4222711"><ele>0.0</ele><time>2026-04-30T15:15:10.002Z</time></trkpt><trkpt lat="42.1241852" lon="4.4223786"><ele>0.0</ele><time>2026-04-30T15:15:11.002Z</time></trkpt><trkpt lat="42.1242552" lon="4.4225872"><ele>0.0</ele><time>2026-04-30T15:15:13.002Z</time></trkpt><trkpt lat="42.1242874" lon="4.4226945"><ele>0.0</ele><time>2026-04-30T15:15:14.002Z</time></trkpt><trkpt lat="42.1243233" lon="4.422804"><ele>0.0</ele><time>2026-04-30T15:15:15.002Z</time></trkpt><trkpt lat="42.1243656" lon="4.4229183"><ele>0.0</ele><time>2026-04-30T15:15:16.002Z</time></trkpt><trkpt lat="42.1244033" lon="4.4230333"><ele>0.0</ele><time>2026-04-30T15:15:17.003Z</time></trkpt><trkpt lat="42.1244401" lon="4.4231429"><ele>0.0</ele><time>2026-04-30T15:15:18.003Z</time></trkpt><trkpt lat="42.124475" lon="4.4232482"><ele>0.0</ele><time>2026-04-30T15:15:19.002Z</time></trkpt><trkpt lat="42.124512" lon="4.4233474"><ele>0.0</ele><time>2026-04-30T15:15:20.002Z</time></trkpt><trkpt lat="42.1245456" lon="4.4234462"><ele>0.0</ele><time>2026-04-30T15:15:21.002Z</time></trkpt><trkpt lat="42.1245834" lon="4.4235489"><ele>0.0</ele><time>2026-04-30T15:15:22.003Z</time></trkpt><trkpt lat="42.1246219" lon="4.4236479"><ele>0.0</ele><time>2026-04-30T15:15:23.002Z</time></trkpt><trkpt lat="42.1246557" lon="4.4237476"><ele>0.0</ele><time>2026-04-30T15:15:24.003Z</time></trkpt><trkpt lat="42.1246886" lon="4.4238524"><ele>0.0</ele><time>2026-04-30T15:15:25.002Z</time></trkpt><trkpt lat="42.1247233" lon="4.4239555"><ele>0.0</ele><time>2026-04-30T15:15:26.003Z</time></trkpt><trkpt lat="42.1247601" lon="4.4240585"><ele>0.0</ele><time>2026-04-30T15:15:27.003Z</time></trkpt><trkpt lat="42.1247935" lon="4.4241704"><ele>0.0</ele><time>2026-04-30T15:15:28.003Z</time></trkpt><trkpt lat="42.1248273" lon="4.424279"><ele>0.0</ele><time>2026-04-30T15:15:29.003Z</time></trkpt><trkpt lat="42.124865" lon="4.4243831"><ele>0.0</ele><time>2026-04-30T15:15:30.003Z</time></trkpt><trkpt lat="42.1249077" lon="4.4244862"><ele>0.0</ele><time>2026-04-30T15:15:31.003Z</time></trkpt><trkpt lat="42.1249513" lon="4.424591"><ele>0.0</ele><time>2026-04-30T15:15:32.002Z</time></trkpt><trkpt lat="42.1250259" lon="4.4248003"><ele>0.0</ele><time>2026-04-30T15:15:34.002Z</time></trkpt><trkpt lat="42.1250634" lon="4.4249051"><ele>0.0</ele><time>2026-04-30T15:15:35.003Z</time></trkpt><trkpt lat="42.1250984" lon="4.4250104"><ele>0.0</ele><time>2026-04-30T15:15:36.003Z</time></trkpt><trkpt lat="42.1251377" lon="4.425122"><ele>0.0</ele><time>2026-04-30T15:15:37.003Z</time></trkpt><trkpt lat="42.125181" lon="4.4252239"><ele>0.0</ele><time>2026-04-30T15:15:38.002Z</time></trkpt><trkpt lat="42.1252184" lon="4.4253271"><ele>0.0</ele><time>2026-04-30T15:15:39.003Z</time></trkpt><trkpt lat="42.1252564" lon="4.4254347"><ele>0.0</ele><time>2026-04-30T15:15:40.003Z</time></trkpt><trkpt lat="42.1252949" lon="4.4255413"><ele>0.0</ele><time>2026-04-30T15:15:41.002Z</time></trkpt><trkpt lat="42.125333" lon="4.4256495"><ele>0.0</ele><time>2026-04-30T15:15:42.003Z</time></trkpt><trkpt lat="42.1253701" lon="4.4257492"><ele>0.0</ele><time>2026-04-30T15:15:43.002Z</time></trkpt><trkpt lat="42.1254052" lon="4.4258532"><ele>0.0</ele><time>2026-04-30T15:15:44.002Z</time></trkpt><trkpt lat="42.1254434" lon="4.4259553"><ele>0.0</ele><time>2026-04-30T15:15:45.003Z</time></trkpt><trkpt lat="42.1254831" lon="4.4260568"><ele>0.0</ele><time>2026-04-30T15:15:46.002Z</time></trkpt><trkpt lat="42.1255221" lon="4.4261596"><ele>0.0</ele><time>2026-04-30T15:15:47.002Z</time></trkpt><trkpt lat="42.1255631" lon="4.4262685"><ele>0.0</ele><time>2026-04-30T15:15:48.002Z</time></trkpt><trkpt lat="42.1255991" lon="4.4263728"><ele>0.0</ele><time>2026-04-30T15:15:49.002Z</time></trkpt><trkpt lat="42.125637" lon="4.4264732"><ele>0.0</ele><time>2026-04-30T15:15:50.003Z</time></trkpt><trkpt lat="42.1256713" lon="4.4265763"><ele>0.0</ele><time>2026-04-30T15:15:51.002Z</time></trkpt><trkpt lat="42.1257055" lon="4.4266811"><ele>0.0</ele><time>2026-04-30T15:15:52.003Z</time></trkpt><trkpt lat="42.1257421" lon="4.4267822"><ele>0.0</ele><time>2026-04-30T15:15:53.002Z</time></trkpt><trkpt lat="42.1257775" lon="4.4268839"><ele>0.0</ele><time>2026-04-30T15:15:54.003Z</time></trkpt><trkpt lat="42.1258516" lon="4.4270916"><ele>0.0</ele><time>2026-04-30T15:15:56.002Z</time></trkpt><trkpt lat="42.1258857" lon="4.4271911"><ele>0.0</ele><time>2026-04-30T15:15:57.003Z</time></trkpt><trkpt lat="42.1259203" lon="4.4272909"><ele>0.0</ele><time>2026-04-30T15:15:58.002Z</time></trkpt><trkpt lat="42.1259551" lon="4.4273955"><ele>0.0</ele><time>2026-04-30T15:15:59.002Z</time></trkpt><trkpt lat="42.1259916" lon="4.4274963"><ele>0.0</ele><time>2026-04-30T15:16:00.002Z</time></trkpt><trkpt lat="42.1260308" lon="4.4275994"><ele>0.0</ele><time>2026-04-30T15:16:01.003Z</time></trkpt><trkpt lat="42.1260608" lon="4.4277041"><ele>0.0</ele><time>2026-04-30T15:16:02.002Z</time></trkpt><trkpt lat="42.1260963" lon="4.4278122"><ele>0.0</ele><time>2026-04-30T15:16:03.002Z</time></trkpt><trkpt lat="42.1261416" lon="4.4279231"><ele>0.0</ele><time>2026-04-30T15:16:04.003Z</time></trkpt><trkpt lat="42.1261853" lon="4.4280304"><ele>0.0</ele><time>2026-04-30T15:16:05.002Z</time></trkpt><trkpt lat="42.1262197" lon="4.4281428"><ele>0.0</ele><time>2026-04-30T15:16:06.002Z</time></trkpt><trkpt lat="42.1262562" lon="4.42825"><ele>0.0</ele><time>2026-04-30T15:16:07.002Z</time></trkpt><trkpt lat="42.1262947" lon="4.4283659"><ele>0.0</ele><time>2026-04-30T15:16:08.003Z</time></trkpt><trkpt lat="42.126324" lon="4.4284696"><ele>0.0</ele><time>2026-04-30T15:16:09.002Z</time></trkpt><trkpt lat="42.126362" lon="4.4285713"><ele>0.0</ele><time>2026-04-30T15:16:10.002Z</time></trkpt><trkpt lat="42.1264034" lon="4.4286674"><ele>0.0</ele><time>2026-04-30T15:16:11.002Z</time></trkpt><trkpt lat="42.12644" lon="4.4287707"><ele>0.0</ele><time>2026-04-30T15:16:12.003Z</time></trkpt><trkpt lat="42.1264751" lon="4.4288783"><ele>0.0</ele><time>2026-04-30T15:16:13.003Z</time></trkpt><trkpt lat="42.1265115" lon="4.4289864"><ele>0.0</ele><time>2026-04-30T15:16:14.002Z</time></trkpt><trkpt lat="42.1265498" lon="4.4290936"><ele>0.0</ele><time>2026-04-30T15:16:15.002Z</time></trkpt><trkpt lat="42.1266322" lon="4.4293011"><ele>0.0</ele><time>2026-04-30T15:16:17.002Z</time></trkpt><trkpt lat="42.1266767" lon="4.4294014"><ele>0.0</ele><time>2026-04-30T15:16:18.003Z</time></trkpt><trkpt lat="42.1267175" lon="4.4295011"><ele>0.0</ele><time>2026-04-30T15:16:19.002Z</time></trkpt><trkpt lat="42.1267522" lon="4.4295994"><ele>0.0</ele><time>2026-04-30T15:16:20.003Z</time></trkpt><trkpt lat="42.1267896" lon="4.4297023"><ele>0.0</ele><time>2026-04-30T15:16:21.003Z</time></trkpt><trkpt lat="42.1268308" lon="4.4298024"><ele>0.0</ele><time>2026-04-30T15:16:22.002Z</time></trkpt><trkpt lat="42.1268672" lon="4.4299011"><ele>0.0</ele><time>2026-04-30T15:16:23.002Z</time></trkpt><trkpt lat="42.1269036" lon="4.4299994"><ele>0.0</ele><time>2026-04-30T15:16:24.003Z</time></trkpt><trkpt lat="42.1269434" lon="4.4301004"><ele>0.0</ele><time>2026-04-30T15:16:25.003Z</time></trkpt><trkpt lat="42.1270152" lon="4.430309"><ele>0.0</ele><time>2026-04-30T15:16:27.002Z</time></trkpt><trkpt lat="42.1270521" lon="4.4304188"><ele>0.0</ele><time>2026-04-30T15:16:28.003Z</time></trkpt><trkpt lat="42.1270885" lon="4.4305304"><ele>0.0</ele><time>2026-04-30T15:16:29.003Z</time></trkpt><trkpt lat="42.1271236" lon="4.4306366"><ele>0.0</ele><time>2026-04-30T15:16:30.003Z</time></trkpt><trkpt lat="42.1271602" lon="4.430743"><ele>0.0</ele><time>2026-04-30T15:16:31.003Z</time></trkpt><trkpt lat="42.1271968" lon="4.4308479"><ele>0.0</ele><time>2026-04-30T15:16:32.003Z</time></trkpt><trkpt lat="42.127235" lon="4.4309512"><ele>0.0</ele><time>2026-04-30T15:16:33.003Z</time></trkpt><trkpt lat="42.1272764" lon="4.4310604"><ele>0.0</ele><time>2026-04-30T15:16:34.003Z</time></trkpt><trkpt lat="42.1273183" lon="4.4311632"><ele>0.0</ele><time>2026-04-30T15:16:35.003Z</time></trkpt><trkpt lat="42.127359" lon="4.4312577"><ele>0.0</ele><time>2026-04-30T15:16:36.003Z</time></trkpt><trkpt lat="42.1274352" lon="4.4314664"><ele>0.0</ele><time>2026-04-30T15:16:38.002Z</time></trkpt><trkpt lat="42.127475" lon="4.4315729"><ele>0.0</ele><time>2026-04-30T15:16:39.002Z</time></trkpt><trkpt lat="42.1275137" lon="4.4316766"><ele>0.0</ele><time>2026-04-30T15:16:40.002Z</time></trkpt><trkpt lat="42.1275478" lon="4.4317826"><ele>0.0</ele><time>2026-04-30T15:16:41.003Z</time></trkpt><trkpt lat="42.1275838" lon="4.4318879"><ele>0.0</ele><time>2026-04-30T15:16:42.002Z</time></trkpt><trkpt lat="42.1276179" lon="4.431993"><ele>0.0</ele><time>2026-04-30T15:16:43.002Z</time></trkpt><trkpt lat="42.1276498" lon="4.4321006"><ele>0.0</ele><time>2026-04-30T15:16:44.003Z</time></trkpt><trkpt lat="42.1276855" lon="4.4322061"><ele>0.0</ele><time>2026-04-30T15:16:45.002Z</time></trkpt><trkpt lat="42.1277217" lon="4.4323087"><ele>0.0</ele><time>2026-04-30T15:16:46.003Z</time></trkpt><trkpt lat="42.1277559" lon="4.4324162"><ele>0.0</ele><time>2026-04-30T15:16:47.003Z</time></trkpt><trkpt lat="42.1277934" lon="4.4325243"><ele>0.0</ele><time>2026-04-30T15:16:48.002Z</time></trkpt><trkpt lat="42.1278303" lon="4.4326323"><ele>0.0</ele><time>2026-04-30T15:16:49.002Z</time></trkpt><trkpt lat="42.1278654" lon="4.4327378"><ele>0.0</ele><time>2026-04-30T15:16:50.002Z</time></trkpt><trkpt lat="42.1279048" lon="4.4328427"><ele>0.0</ele><time>2026-04-30T15:16:51.003Z</time></trkpt><trkpt lat="42.1279419" lon="4.4329504"><ele>0.0</ele><time>2026-04-30T15:16:52.003Z</time></trkpt><trkpt lat="42.1279788" lon="4.4330529"><ele>0.0</ele><time>2026-04-30T15:16:53.002Z</time></trkpt><trkpt lat="42.1280167" lon="4.4331576"><ele>0.0</ele><time>2026-04-30T15:16:54.002Z</time></trkpt><trkpt lat="42.1280536" lon="4.4332642"><ele>0.0</ele><time>2026-04-30T15:16:55.002Z</time></trkpt><trkpt lat="42.1280905" lon="4.4333678"><ele>0.0</ele><time>2026-04-30T15:16:56.003Z</time></trkpt><trkpt lat="42.1281272" lon="4.4334683"><ele>0.0</ele><time>2026-04-30T15:16:57.002Z</time></trkpt><trkpt lat="42.1281638" lon="4.4335724"><ele>0.0</ele><time>2026-04-30T15:16:58.003Z</time></trkpt><trkpt lat="42.128269" lon="4.433894"><ele>0.0</ele><time>2026-04-30T15:17:01.002Z</time></trkpt><trkpt lat="42.1283041" lon="4.4339997"><ele>0.0</ele><time>2026-04-30T15:17:02.003Z</time></trkpt><trkpt lat="42.1283389" lon="4.4341078"><ele>0.0</ele><time>2026-04-30T15:17:03.002Z</time></trkpt><trkpt lat="42.1283757" lon="4.4342158"><ele>0.0</ele><time>2026-04-30T15:17:04.002Z</time></trkpt><trkpt lat="42.1284135" lon="4.4343183"><ele>0.0</ele><time>2026-04-30T15:17:05.002Z</time></trkpt><trkpt lat="42.1284543" lon="4.4344258"><ele>0.0</ele><time>2026-04-30T15:17:06.002Z</time></trkpt><trkpt lat="42.1284876" lon="4.4345311"><ele>0.0</ele><time>2026-04-30T15:17:07.002Z</time></trkpt><trkpt lat="42.1285291" lon="4.4346352"><ele>0.0</ele><time>2026-04-30T15:17:08.002Z</time></trkpt><trkpt lat="42.1285666" lon="4.4347383"><ele>0.0</ele><time>2026-04-30T15:17:09.002Z</time></trkpt><trkpt lat="42.1286033" lon="4.4348427"><ele>0.0</ele><time>2026-04-30T15:17:10.003Z</time></trkpt><trkpt lat="42.1286372" lon="4.4349496"><ele>0.0</ele><time>2026-04-30T15:17:11.002Z</time></trkpt><trkpt lat="42.1286694" lon="4.4350536"><ele>0.0</ele><time>2026-04-30T15:17:12.003Z</time></trkpt><trkpt lat="42.1287051" lon="4.4351612"><ele>0.0</ele><time>2026-04-30T15:17:13.002Z</time></trkpt><trkpt lat="42.1287402" lon="4.4352651"><ele>0.0</ele><time>2026-04-30T15:17:14.002Z</time></trkpt><trkpt lat="42.1287764" lon="4.4353714"><ele>0.0</ele><time>2026-04-30T15:17:15.003Z</time></trkpt><trkpt lat="42.1288149" lon="4.4354795"><ele>0.0</ele><time>2026-04-30T15:17:16.002Z</time></trkpt><trkpt lat="42.128852" lon="4.4355802"><ele>0.0</ele><time>2026-04-30T15:17:17.002Z</time></trkpt><trkpt lat="42.1288901" lon="4.4356833"><ele>0.0</ele><time>2026-04-30T15:17:18.003Z</time></trkpt><trkpt lat="42.1289282" lon="4.4357923"><ele>0.0</ele><time>2026-04-30T15:17:19.002Z</time></trkpt><trkpt lat="42.1289635" lon="4.435898"><ele>0.0</ele><time>2026-04-30T15:17:20.002Z</time></trkpt><trkpt lat="42.1290273" lon="4.4361289"><ele>0.0</ele><time>2026-04-30T15:17:22.003Z</time></trkpt><trkpt lat="42.1290648" lon="4.4362349"><ele>0.0</ele><time>2026-04-30T15:17:23.003Z</time></trkpt><trkpt lat="42.1291044" lon="4.4363385"><ele>0.0</ele><time>2026-04-30T15:17:24.002Z</time></trkpt><trkpt lat="42.1291374" lon="4.436438"><ele>0.0</ele><time>2026-04-30T15:17:25.002Z</time></trkpt><trkpt lat="42.1291692" lon="4.4365421"><ele>0.0</ele><time>2026-04-30T15:17:26.002Z</time></trkpt><trkpt lat="42.1292104" lon="4.4366444"><ele>0.0</ele><time>2026-04-30T15:17:27.002Z</time></trkpt><trkpt lat="42.1292479" lon="4.4367416"><ele>0.0</ele><time>2026-04-30T15:17:28.002Z</time></trkpt><trkpt lat="42.1292834" lon="4.4368439"><ele>0.0</ele><time>2026-04-30T15:17:29.002Z</time></trkpt><trkpt lat="42.1293194" lon="4.4369434"><ele>0.0</ele><time>2026-04-30T15:17:30.002Z</time></trkpt><trkpt lat="42.1293903" lon="4.4371646"><ele>0.0</ele><time>2026-04-30T15:17:32.003Z</time></trkpt><trkpt lat="42.1294286" lon="4.4372726"><ele>0.0</ele><time>2026-04-30T15:17:33.002Z</time></trkpt><trkpt lat="42.1294757" lon="4.4373747"><ele>0.0</ele><time>2026-04-30T15:17:34.003Z</time></trkpt><trkpt lat="42.1295126" lon="4.4374751"><ele>0.0</ele><time>2026-04-30T15:17:35.003Z</time></trkpt><trkpt lat="42.1295453" lon="4.437575"><ele>0.0</ele><time>2026-04-30T15:17:36.002Z</time></trkpt><trkpt lat="42.129574" lon="4.4376744"><ele>0.0</ele><time>2026-04-30T15:17:37.003Z</time></trkpt><trkpt lat="42.1296051" lon="4.4377781"><ele>0.0</ele><time>2026-04-30T15:17:38.002Z</time></trkpt><trkpt lat="42.1296397" lon="4.4378856"><ele>0.0</ele><time>2026-04-30T15:17:39.003Z</time></trkpt><trkpt lat="42.1296737" lon="4.4379893"><ele>0.0</ele><time>2026-04-30T15:17:40.002Z</time></trkpt><trkpt lat="42.1297082" lon="4.4380939"><ele>0.0</ele><time>2026-04-30T15:17:41.002Z</time></trkpt><trkpt lat="42.1297814" lon="4.4383102"><ele>0.0</ele><time>2026-04-30T15:17:43.002Z</time></trkpt><trkpt lat="42.1298204" lon="4.4384143"><ele>0.0</ele><time>2026-04-30T15:17:44.002Z</time></trkpt><trkpt lat="42.1298623" lon="4.4385115"><ele>0.0</ele><time>2026-04-30T15:17:45.002Z</time></trkpt><trkpt lat="42.129901" lon="4.4386168"><ele>0.0</ele><time>2026-04-30T15:17:46.002Z</time></trkpt><trkpt lat="42.1299384" lon="4.4387261"><ele>0.0</ele><time>2026-04-30T15:17:47.002Z</time></trkpt><trkpt lat="42.1299721" lon="4.4388308"><ele>0.0</ele><time>2026-04-30T15:17:48.002Z</time></trkpt><trkpt lat="42.1300068" lon="4.4389382"><ele>0.0</ele><time>2026-04-30T15:17:49.002Z</time></trkpt><trkpt lat="42.130043" lon="4.4390405"><ele>0.0</ele><time>2026-04-30T15:17:50.003Z</time></trkpt><trkpt lat="42.1300784" lon="4.4391436"><ele>0.0</ele><time>2026-04-30T15:17:51.003Z</time></trkpt><trkpt lat="42.1301134" lon="4.4392443"><ele>0.0</ele><time>2026-04-30T15:17:52.002Z</time></trkpt><trkpt lat="42.1301542" lon="4.4393429"><ele>0.0</ele><time>2026-04-30T15:17:53.003Z</time></trkpt><trkpt lat="42.1301915" lon="4.439444"><ele>0.0</ele><time>2026-04-30T15:17:54.002Z</time></trkpt><trkpt lat="42.1302313" lon="4.4395481"><ele>0.0</ele><time>2026-04-30T15:17:55.002Z</time></trkpt><trkpt lat="42.13027" lon="4.43965"><ele>0.0</ele><time>2026-04-30T15:17:56.003Z</time></trkpt><trkpt lat="42.1303043" lon="4.4397544"><ele>0.0</ele><time>2026-04-30T15:17:57.002Z</time></trkpt><trkpt lat="42.1303404" lon="4.4398637"><ele>0.0</ele><time>2026-04-30T15:17:58.002Z</time></trkpt><trkpt lat="42.1303769" lon="4.4399712"><ele>0.0</ele><time>2026-04-30T15:17:59.003Z</time></trkpt><trkpt lat="42.1304122" lon="4.4400794"><ele>0.0</ele><time>2026-04-30T15:18:00.002Z</time></trkpt><trkpt lat="42.1304514" lon="4.4401789"><ele>0.0</ele><time>2026-04-30T15:18:01.003Z</time></trkpt><trkpt lat="42.1304887" lon="4.4402786"><ele>0.0</ele><time>2026-04-30T15:18:02.003Z</time></trkpt><trkpt lat="42.1306097" lon="4.4405864"><ele>0.0</ele><time>2026-04-30T15:18:05.002Z</time></trkpt><trkpt lat="42.1306504" lon="4.4406866"><ele>0.0</ele><time>2026-04-30T15:18:06.002Z</time></trkpt><trkpt lat="42.1306904" lon="4.4407879"><ele>0.0</ele><time>2026-04-30T15:18:07.003Z</time></trkpt><trkpt lat="42.1307341" lon="4.4408901"><ele>0.0</ele><time>2026-04-30T15:18:08.003Z</time></trkpt><trkpt lat="42.1307733" lon="4.4409961"><ele>0.0</ele><time>2026-04-30T15:18:09.003Z</time></trkpt><trkpt lat="42.1308101" lon="4.4411001"><ele>0.0</ele><time>2026-04-30T15:18:10.003Z</time></trkpt><trkpt lat="42.1308425" lon="4.4412054"><ele>0.0</ele><time>2026-04-30T15:18:11.002Z</time></trkpt><trkpt lat="42.1308719" lon="4.4413088"><ele>0.0</ele><time>2026-04-30T15:18:12.002Z</time></trkpt><trkpt lat="42.1309076" lon="4.4414107"><ele>0.0</ele><time>2026-04-30T15:18:13.003Z</time></trkpt><trkpt lat="42.1309416" lon="4.4415181"><ele>0.0</ele><time>2026-04-30T15:18:14.003Z</time></trkpt><trkpt lat="42.130978" lon="4.441622"><ele>0.0</ele><time>2026-04-30T15:18:15.003Z</time></trkpt><trkpt lat="42.1310149" lon="4.4417281"><ele>0.0</ele><time>2026-04-30T15:18:16.003Z</time></trkpt><trkpt lat="42.1310518" lon="4.4418352"><ele>0.0</ele><time>2026-04-30T15:18:17.003Z</time></trkpt><trkpt lat="42.1310882" lon="4.4419432"><ele>0.0</ele><time>2026-04-30T15:18:18.003Z</time></trkpt><trkpt lat="42.1311254" lon="4.442044"><ele>0.0</ele><time>2026-04-30T15:18:19.003Z</time></trkpt><trkpt lat="42.1311621" lon="4.4421481"><ele>0.0</ele><time>2026-04-30T15:18:20.003Z</time></trkpt><trkpt lat="42.1311976" lon="4.4422501"><ele>0.0</ele><time>2026-04-30T15:18:21.002Z</time></trkpt><trkpt lat="42.1312354" lon="4.4423572"><ele>0.0</ele><time>2026-04-30T15:18:22.002Z</time></trkpt><trkpt lat="42.1312689" lon="4.4424626"><ele>0.0</ele><time>2026-04-30T15:18:23.003Z</time></trkpt><trkpt lat="42.1313038" lon="4.4425708"><ele>0.0</ele><time>2026-04-30T15:18:24.003Z</time></trkpt><trkpt lat="42.1313769" lon="4.4427788"><ele>0.0</ele><time>2026-04-30T15:18:26.003Z</time></trkpt><trkpt lat="42.1314077" lon="4.4428833"><ele>0.0</ele><time>2026-04-30T15:18:27.003Z</time></trkpt><trkpt lat="42.1314389" lon="4.4429811"><ele>0.0</ele><time>2026-04-30T15:18:28.002Z</time></trkpt><trkpt lat="42.131479" lon="4.4430809"><ele>0.0</ele><time>2026-04-30T15:18:29.002Z</time></trkpt><trkpt lat="42.1315092" lon="4.4431911"><ele>0.0</ele><time>2026-04-30T15:18:30.003Z</time></trkpt><trkpt lat="42.1315423" lon="4.4432966"><ele>0.0</ele><time>2026-04-30T15:18:31.002Z</time></trkpt><trkpt lat="42.1315796" lon="4.443406"><ele>0.0</ele><time>2026-04-30T15:18:32.002Z</time></trkpt><trkpt lat="42.1316183" lon="4.4435069"><ele>0.0</ele><time>2026-04-30T15:18:33.002Z</time></trkpt><trkpt lat="42.1316567" lon="4.4436141"><ele>0.0</ele><time>2026-04-30T15:18:34.002Z</time></trkpt><trkpt lat="42.1317353" lon="4.4438312"><ele>0.0</ele><time>2026-04-30T15:18:36.003Z</time></trkpt><trkpt lat="42.1317724" lon="4.4439332"><ele>0.0</ele><time>2026-04-30T15:18:37.003Z</time></trkpt><trkpt lat="42.1318103" lon="4.4440338"><ele>0.0</ele><time>2026-04-30T15:18:38.002Z</time></trkpt><trkpt lat="42.1318469" lon="4.4441412"><ele>0.0</ele><time>2026-04-30T15:18:39.002Z</time></trkpt><trkpt lat="42.1318866" lon="4.4442449"><ele>0.0</ele><time>2026-04-30T15:18:40.003Z</time></trkpt><trkpt lat="42.1319238" lon="4.4443453"><ele>0.0</ele><time>2026-04-30T15:18:41.002Z</time></trkpt><trkpt lat="42.1319617" lon="4.4444499"><ele>0.0</ele><time>2026-04-30T15:18:42.003Z</time></trkpt><trkpt lat="42.1319955" lon="4.4445535"><ele>0.0</ele><time>2026-04-30T15:18:43.003Z</time></trkpt><trkpt lat="42.1320304" lon="4.444658"><ele>0.0</ele><time>2026-04-30T15:18:44.003Z</time></trkpt><trkpt lat="42.1320599" lon="4.4447718"><ele>0.0</ele><time>2026-04-30T15:18:45.002Z</time></trkpt><trkpt lat="42.1321274" lon="4.4449863"><ele>0.0</ele><time>2026-04-30T15:18:47.003Z</time></trkpt><trkpt lat="42.1321608" lon="4.4450943"><ele>0.0</ele><time>2026-04-30T15:18:48.003Z</time></trkpt><trkpt lat="42.1321971" lon="4.4452"><ele>0.0</ele><time>2026-04-30T15:18:49.003Z</time></trkpt><trkpt lat="42.1322298" lon="4.4453048"><ele>0.0</ele><time>2026-04-30T15:18:50.003Z</time></trkpt><trkpt lat="42.1322668" lon="4.4454084"><ele>0.0</ele><time>2026-04-30T15:18:51.002Z</time></trkpt><trkpt lat="42.1322979" lon="4.4455132"><ele>0.0</ele><time>2026-04-30T15:18:52.002Z</time></trkpt><trkpt lat="42.132332" lon="4.4456139"><ele>0.0</ele><time>2026-04-30T15:18:53.002Z</time></trkpt><trkpt lat="42.1323696" lon="4.4457167"><ele>0.0</ele><time>2026-04-30T15:18:54.002Z</time></trkpt><trkpt lat="42.1324053" lon="4.4458257"><ele>0.0</ele><time>2026-04-30T15:18:55.002Z</time></trkpt><trkpt lat="42.1324374" lon="4.4459273"><ele>0.0</ele><time>2026-04-30T15:18:56.003Z</time></trkpt><trkpt lat="42.1324689" lon="4.4460346"><ele>0.0</ele><time>2026-04-30T15:18:57.002Z</time></trkpt><trkpt lat="42.1325036" lon="4.4461385"><ele>0.0</ele><time>2026-04-30T15:18:58.003Z</time></trkpt><trkpt lat="42.1325385" lon="4.4462448"><ele>0.0</ele><time>2026-04-30T15:18:59.003Z</time></trkpt><trkpt lat="42.1325675" lon="4.4463544"><ele>0.0</ele><time>2026-04-30T15:19:00.002Z</time></trkpt><trkpt lat="42.1325943" lon="4.4464618"><ele>0.0</ele><time>2026-04-30T15:19:01.002Z</time></trkpt><trkpt lat="42.13263" lon="4.4465694"><ele>0.0</ele><time>2026-04-30T15:19:02.001Z</time></trkpt><trkpt lat="42.132665" lon="4.4466793"><ele>0.0</ele><time>2026-04-30T15:19:03.001Z</time></trkpt><trkpt lat="42.1327068" lon="4.4467908"><ele>0.0</ele><time>2026-04-30T15:19:04.001Z</time></trkpt><trkpt lat="42.1327462" lon="4.4468939"><ele>0.0</ele><time>2026-04-30T15:19:05.002Z</time></trkpt><trkpt lat="42.1327872" lon="4.4469998"><ele>0.0</ele><time>2026-04-30T15:19:06.001Z</time></trkpt><trkpt lat="42.1328944" lon="4.4473005"><ele>0.0</ele><time>2026-04-30T15:19:09.001Z</time></trkpt><trkpt lat="42.1329333" lon="4.4474005"><ele>0.0</ele><time>2026-04-30T15:19:10.001Z</time></trkpt><trkpt lat="42.1329746" lon="4.4475019"><ele>0.0</ele><time>2026-04-30T15:19:11.001Z</time></trkpt><trkpt lat="42.1330121" lon="4.4476052"><ele>0.0</ele><time>2026-04-30T15:19:12.001Z</time></trkpt><trkpt lat="42.1330516" lon="4.4477082"><ele>0.0</ele><time>2026-04-30T15:19:13.001Z</time></trkpt><trkpt lat="42.1330872" lon="4.4478116"><ele>0.0</ele><time>2026-04-30T15:19:14.001Z</time></trkpt><trkpt lat="42.1331233" lon="4.4479166"><ele>0.0</ele><time>2026-04-30T15:19:15.001Z</time></trkpt><trkpt lat="42.13316" lon="4.4480171"><ele>0.0</ele><time>2026-04-30T15:19:16.002Z</time></trkpt><trkpt lat="42.1331982" lon="4.4481159"><ele>0.0</ele><time>2026-04-30T15:19:17.002Z</time></trkpt><trkpt lat="42.133235" lon="4.4482202"><ele>0.0</ele><time>2026-04-30T15:19:18.002Z</time></trkpt><trkpt lat="42.1332773" lon="4.4483302"><ele>0.0</ele><time>2026-04-30T15:19:19.001Z</time></trkpt><trkpt lat="42.1333235" lon="4.4484345"><ele>0.0</ele><time>2026-04-30T15:19:20.001Z</time></trkpt><trkpt lat="42.133366" lon="4.4485358"><ele>0.0</ele><time>2026-04-30T15:19:21.002Z</time></trkpt><trkpt lat="42.1334074" lon="4.4486386"><ele>0.0</ele><time>2026-04-30T15:19:22.002Z</time></trkpt><trkpt lat="42.1334448" lon="4.4487447"><ele>0.0</ele><time>2026-04-30T15:19:23.002Z</time></trkpt><trkpt lat="42.1334817" lon="4.4488517"><ele>0.0</ele><time>2026-04-30T15:19:24.001Z</time></trkpt><trkpt lat="42.1335212" lon="4.4489624"><ele>0.0</ele><time>2026-04-30T15:19:25.001Z</time></trkpt><trkpt lat="42.1335568" lon="4.4490626"><ele>0.0</ele><time>2026-04-30T15:19:26.001Z</time></trkpt><trkpt lat="42.1335921" lon="4.4491581"><ele>0.0</ele><time>2026-04-30T15:19:27.001Z</time></trkpt><trkpt lat="42.1336285" lon="4.4492602"><ele>0.0</ele><time>2026-04-30T15:19:28.002Z</time></trkpt><trkpt lat="42.1336972" lon="4.4494694"><ele>0.0</ele><time>2026-04-30T15:19:30.001Z</time></trkpt><trkpt lat="42.1337338" lon="4.4495692"><ele>0.0</ele><time>2026-04-30T15:19:31.001Z</time></trkpt><trkpt lat="42.1337701" lon="4.4496737"><ele>0.0</ele><time>2026-04-30T15:19:32.001Z</time></trkpt><trkpt lat="42.1338052" lon="4.449779"><ele>0.0</ele><time>2026-04-30T15:19:33.001Z</time></trkpt><trkpt lat="42.1338357" lon="4.4498813"><ele>0.0</ele><time>2026-04-30T15:19:34.001Z</time></trkpt><trkpt lat="42.133862" lon="4.4499915"><ele>0.0</ele><time>2026-04-30T15:19:35.002Z</time></trkpt><trkpt lat="42.1338917" lon="4.4500989"><ele>0.0</ele><time>2026-04-30T15:19:36.002Z</time></trkpt><trkpt lat="42.1339217" lon="4.4502029"><ele>0.0</ele><time>2026-04-30T15:19:37.002Z</time></trkpt><trkpt lat="42.1339517" lon="4.450312"><ele>0.0</ele><time>2026-04-30T15:19:38.002Z</time></trkpt><trkpt lat="42.1340162" lon="4.4505358"><ele>0.0</ele><time>2026-04-30T15:19:40.001Z</time></trkpt><trkpt lat="42.1340465" lon="4.4506464"><ele>0.0</ele><time>2026-04-30T15:19:41.002Z</time></trkpt><trkpt lat="42.1340795" lon="4.4507568"><ele>0.0</ele><time>2026-04-30T15:19:42.002Z</time></trkpt><trkpt lat="42.1341144" lon="4.4508681"><ele>0.0</ele><time>2026-04-30T15:19:43.002Z</time></trkpt><trkpt lat="42.1341496" lon="4.4509722"><ele>0.0</ele><time>2026-04-30T15:19:44.002Z</time></trkpt><trkpt lat="42.1341945" lon="4.451076"><ele>0.0</ele><time>2026-04-30T15:19:45.001Z</time></trkpt><trkpt lat="42.1342312" lon="4.4511777"><ele>0.0</ele><time>2026-04-30T15:19:46.002Z</time></trkpt><trkpt lat="42.1342671" lon="4.4512778"><ele>0.0</ele><time>2026-04-30T15:19:47.001Z</time></trkpt><trkpt lat="42.1343021" lon="4.451378"><ele>0.0</ele><time>2026-04-30T15:19:48.002Z</time></trkpt><trkpt lat="42.1343424" lon="4.4514751"><ele>0.0</ele><time>2026-04-30T15:19:49.001Z</time></trkpt><trkpt lat="42.1344163" lon="4.4516851"><ele>0.0</ele><time>2026-04-30T15:19:51.001Z</time></trkpt><trkpt lat="42.1344531" lon="4.4517904"><ele>0.0</ele><time>2026-04-30T15:19:52.001Z</time></trkpt><trkpt lat="42.1344916" lon="4.4518937"><ele>0.0</ele><time>2026-04-30T15:19:53.001Z</time></trkpt><trkpt lat="42.1345284" lon="4.4519967"><ele>0.0</ele><time>2026-04-30T15:19:54.002Z</time></trkpt><trkpt lat="42.1345652" lon="4.4521003"><ele>0.0</ele><time>2026-04-30T15:19:55.001Z</time></trkpt><trkpt lat="42.1346047" lon="4.4522079"><ele>0.0</ele><time>2026-04-30T15:19:56.002Z</time></trkpt><trkpt lat="42.1346419" lon="4.4523132"><ele>0.0</ele><time>2026-04-30T15:19:57.002Z</time></trkpt><trkpt lat="42.1346827" lon="4.4524111"><ele>0.0</ele><time>2026-04-30T15:19:58.001Z</time></trkpt><trkpt lat="42.1347257" lon="4.4525164"><ele>0.0</ele><time>2026-04-30T15:19:59.001Z</time></trkpt><trkpt lat="42.1347648" lon="4.4526188"><ele>0.0</ele><time>2026-04-30T15:20:00.002Z</time></trkpt><trkpt lat="42.1348033" lon="4.452723"><ele>0.0</ele><time>2026-04-30T15:20:01.002Z</time></trkpt><trkpt lat="42.1348403" lon="4.4528265"><ele>0.0</ele><time>2026-04-30T15:20:02.001Z</time></trkpt><trkpt lat="42.1348754" lon="4.4529313"><ele>0.0</ele><time>2026-04-30T15:20:03.002Z</time></trkpt><trkpt lat="42.1349091" lon="4.4530346"><ele>0.0</ele><time>2026-04-30T15:20:04.001Z</time></trkpt><trkpt lat="42.1349427" lon="4.4531424"><ele>0.0</ele><time>2026-04-30T15:20:05.002Z</time></trkpt><trkpt lat="42.134979" lon="4.4532463"><ele>0.0</ele><time>2026-04-30T15:20:06.002Z</time></trkpt><trkpt lat="42.1350168" lon="4.4533468"><ele>0.0</ele><time>2026-04-30T15:20:07.001Z</time></trkpt><trkpt lat="42.1350541" lon="4.4534569"><ele>0.0</ele><time>2026-04-30T15:20:08.001Z</time></trkpt><trkpt lat="42.1350922" lon="4.4535585"><ele>0.0</ele><time>2026-04-30T15:20:09.002Z</time></trkpt><trkpt lat="42.1351288" lon="4.4536716"><ele>0.0</ele><time>2026-04-30T15:20:10.002Z</time></trkpt><trkpt lat="42.1351978" lon="4.453881"><ele>0.0</ele><time>2026-04-30T15:20:12.001Z</time></trkpt><trkpt lat="42.1352671" lon="4.4540939"><ele>0.0</ele><time>2026-04-30T15:20:14.001Z</time></trkpt><trkpt lat="42.1353057" lon="4.454192"><ele>0.0</ele><time>2026-04-30T15:20:15.002Z</time></trkpt><trkpt lat="42.1353409" lon="4.4542947"><ele>0.0</ele><time>2026-04-30T15:20:16.002Z</time></trkpt><trkpt lat="42.1353816" lon="4.4543966"><ele>0.0</ele><time>2026-04-30T15:20:17.002Z</time></trkpt><trkpt lat="42.1354222" lon="4.4544963"><ele>0.0</ele><time>2026-04-30T15:20:18.002Z</time></trkpt><trkpt lat="42.1354626" lon="4.4545959"><ele>0.0</ele><time>2026-04-30T15:20:19.002Z</time></trkpt><trkpt lat="42.1355032" lon="4.454699"><ele>0.0</ele><time>2026-04-30T15:20:20.002Z</time></trkpt><trkpt lat="42.1355454" lon="4.4548008"><ele>0.0</ele><time>2026-04-30T15:20:21.002Z</time></trkpt><trkpt lat="42.1355851" lon="4.4549103"><ele>0.0</ele><time>2026-04-30T15:20:22.002Z</time></trkpt><trkpt lat="42.1356236" lon="4.4550147"><ele>0.0</ele><time>2026-04-30T15:20:23.001Z</time></trkpt><trkpt lat="42.1356621" lon="4.4551168"><ele>0.0</ele><time>2026-04-30T15:20:24.002Z</time></trkpt><trkpt lat="42.1357004" lon="4.4552213"><ele>0.0</ele><time>2026-04-30T15:20:25.001Z</time></trkpt><trkpt lat="42.1357331" lon="4.4553247"><ele>0.0</ele><time>2026-04-30T15:20:26.001Z</time></trkpt><trkpt lat="42.1357665" lon="4.4554279"><ele>0.0</ele><time>2026-04-30T15:20:27.001Z</time></trkpt><trkpt lat="42.1358028" lon="4.4555339"><ele>0.0</ele><time>2026-04-30T15:20:28.001Z</time></trkpt><trkpt lat="42.1358391" lon="4.4556347"><ele>0.0</ele><time>2026-04-30T15:20:29.001Z</time></trkpt><trkpt lat="42.1358769" lon="4.4557361"><ele>0.0</ele><time>2026-04-30T15:20:30.001Z</time></trkpt><trkpt lat="42.1359095" lon="4.4558422"><ele>0.0</ele><time>2026-04-30T15:20:31.002Z</time></trkpt><trkpt lat="42.135947" lon="4.455946"><ele>0.0</ele><time>2026-04-30T15:20:32.001Z</time></trkpt><trkpt lat="42.1359795" lon="4.4560514"><ele>0.0</ele><time>2026-04-30T15:20:33.001Z</time></trkpt><trkpt lat="42.136048" lon="4.4562653"><ele>0.0</ele><time>2026-04-30T15:20:35.002Z</time></trkpt><trkpt lat="42.1360777" lon="4.4563719"><ele>0.0</ele><time>2026-04-30T15:20:36.002Z</time></trkpt><trkpt lat="42.1361119" lon="4.4564782"><ele>0.0</ele><time>2026-04-30T15:20:37.001Z</time></trkpt><trkpt lat="42.1361442" lon="4.4565831"><ele>0.0</ele><time>2026-04-30T15:20:38.001Z</time></trkpt><trkpt lat="42.1361805" lon="4.4566909"><ele>0.0</ele><time>2026-04-30T15:20:39.001Z</time></trkpt><trkpt lat="42.1362127" lon="4.456795"><ele>0.0</ele><time>2026-04-30T15:20:40.001Z</time></trkpt><trkpt lat="42.1362499" lon="4.4569029"><ele>0.0</ele><time>2026-04-30T15:20:41.001Z</time></trkpt><trkpt lat="42.1362883" lon="4.4570113"><ele>0.0</ele><time>2026-04-30T15:20:42.001Z</time></trkpt><trkpt lat="42.136328" lon="4.4571196"><ele>0.0</ele><time>2026-04-30T15:20:43.001Z</time></trkpt><trkpt lat="42.1363605" lon="4.4572208"><ele>0.0</ele><time>2026-04-30T15:20:44.001Z</time></trkpt><trkpt lat="42.1363935" lon="4.4573248"><ele>0.0</ele><time>2026-04-30T15:20:45.002Z</time></trkpt><trkpt lat="42.1364297" lon="4.45743"><ele>0.0</ele><time>2026-04-30T15:20:46.001Z</time></trkpt><trkpt lat="42.1364651" lon="4.4575322"><ele>0.0</ele><time>2026-04-30T15:20:47.001Z</time></trkpt><trkpt lat="42.1364987" lon="4.4576394"><ele>0.0</ele><time>2026-04-30T15:20:48.001Z</time></trkpt><trkpt lat="42.1365334" lon="4.4577409"><ele>0.0</ele><time>2026-04-30T15:20:49.002Z</time></trkpt><trkpt lat="42.1365695" lon="4.4578454"><ele>0.0</ele><time>2026-04-30T15:20:50.002Z</time></trkpt><trkpt lat="42.1366034" lon="4.4579521"><ele>0.0</ele><time>2026-04-30T15:20:51.001Z</time></trkpt><trkpt lat="42.136634" lon="4.4580587"><ele>0.0</ele><time>2026-04-30T15:20:52.002Z</time></trkpt><trkpt lat="42.1366733" lon="4.4581571"><ele>0.0</ele><time>2026-04-30T15:20:53.001Z</time></trkpt><trkpt lat="42.1367123" lon="4.4582591"><ele>0.0</ele><time>2026-04-30T15:20:54.001Z</time></trkpt><trkpt lat="42.1367842" lon="4.4584645"><ele>0.0</ele><time>2026-04-30T15:20:56.001Z</time></trkpt><trkpt lat="42.1368309" lon="4.458566"><ele>0.0</ele><time>2026-04-30T15:20:57.001Z</time></trkpt><trkpt lat="42.1368706" lon="4.4586689"><ele>0.0</ele><time>2026-04-30T15:20:58.002Z</time></trkpt><trkpt lat="42.1369126" lon="4.4587659"><ele>0.0</ele><time>2026-04-30T15:20:59.001Z</time></trkpt><trkpt lat="42.1369486" lon="4.458867"><ele>0.0</ele><time>2026-04-30T15:21:00.001Z</time></trkpt><trkpt lat="42.1369909" lon="4.458964"><ele>0.0</ele><time>2026-04-30T15:21:01.002Z</time></trkpt><trkpt lat="42.1370302" lon="4.4590667"><ele>0.0</ele><time>2026-04-30T15:21:02.001Z</time></trkpt><trkpt lat="42.1370699" lon="4.4591672"><ele>0.0</ele><time>2026-04-30T15:21:03.001Z</time></trkpt><trkpt lat="42.137114" lon="4.4592656"><ele>0.0</ele><time>2026-04-30T15:21:04.002Z</time></trkpt><trkpt lat="42.1371582" lon="4.4593648"><ele>0.0</ele><time>2026-04-30T15:21:05.002Z</time></trkpt><trkpt lat="42.1372043" lon="4.4594662"><ele>0.0</ele><time>2026-04-30T15:21:06.002Z</time></trkpt><trkpt lat="42.137245" lon="4.4595683"><ele>0.0</ele><time>2026-04-30T15:21:07.001Z</time></trkpt><trkpt lat="42.1372837" lon="4.4596669"><ele>0.0</ele><time>2026-04-30T15:21:08.001Z</time></trkpt><trkpt lat="42.137322" lon="4.4597635"><ele>0.0</ele><time>2026-04-30T15:21:09.001Z</time></trkpt><trkpt lat="42.1373587" lon="4.4598647"><ele>0.0</ele><time>2026-04-30T15:21:10.001Z</time></trkpt><trkpt lat="42.1373926" lon="4.4599697"><ele>0.0</ele><time>2026-04-30T15:21:11.002Z</time></trkpt><trkpt lat="42.1374256" lon="4.4600776"><ele>0.0</ele><time>2026-04-30T15:21:12.002Z</time></trkpt><trkpt lat="42.1374619" lon="4.4601817"><ele>0.0</ele><time>2026-04-30T15:21:13.002Z</time></trkpt><trkpt lat="42.1374972" lon="4.460288"><ele>0.0</ele><time>2026-04-30T15:21:14.002Z</time></trkpt><trkpt lat="42.1375321" lon="4.4603915"><ele>0.0</ele><time>2026-04-30T15:21:15.002Z</time></trkpt><trkpt lat="42.1375715" lon="4.4604933"><ele>0.0</ele><time>2026-04-30T15:21:16.002Z</time></trkpt><trkpt lat="42.1376476" lon="4.4607137"><ele>0.0</ele><time>2026-04-30T15:21:18.002Z</time></trkpt><trkpt lat="42.1376829" lon="4.4608202"><ele>0.0</ele><time>2026-04-30T15:21:19.002Z</time></trkpt><trkpt lat="42.1377233" lon="4.460926"><ele>0.0</ele><time>2026-04-30T15:21:20.001Z</time></trkpt><trkpt lat="42.1377618" lon="4.4610343"><ele>0.0</ele><time>2026-04-30T15:21:21.002Z</time></trkpt><trkpt lat="42.1377953" lon="4.4611387"><ele>0.0</ele><time>2026-04-30T15:21:22.001Z</time></trkpt><trkpt lat="42.1378255" lon="4.4612453"><ele>0.0</ele><time>2026-04-30T15:21:23.001Z</time></trkpt><trkpt lat="42.1378569" lon="4.4613535"><ele>0.0</ele><time>2026-04-30T15:21:24.002Z</time></trkpt><trkpt lat="42.1378883" lon="4.4614631"><ele>0.0</ele><time>2026-04-30T15:21:25.001Z</time></trkpt><trkpt lat="42.1379233" lon="4.4615728"><ele>0.0</ele><time>2026-04-30T15:21:26.001Z</time></trkpt><trkpt lat="42.1379585" lon="4.4616797"><ele>0.0</ele><time>2026-04-30T15:21:27.002Z</time></trkpt><trkpt lat="42.1379851" lon="4.4617849"><ele>0.0</ele><time>2026-04-30T15:21:28.001Z</time></trkpt><trkpt lat="42.1380191" lon="4.461881"><ele>0.0</ele><time>2026-04-30T15:21:29.001Z</time></trkpt><trkpt lat="42.138051" lon="4.4619848"><ele>0.0</ele><time>2026-04-30T15:21:30.002Z</time></trkpt><trkpt lat="42.1380817" lon="4.462088"><ele>0.0</ele><time>2026-04-30T15:21:31.002Z</time></trkpt><trkpt lat="42.1381174" lon="4.462184"><ele>0.0</ele><time>2026-04-30T15:21:32.001Z</time></trkpt><trkpt lat="42.13815" lon="4.4622876"><ele>0.0</ele><time>2026-04-30T15:21:33.001Z</time></trkpt><trkpt lat="42.138187" lon="4.4623928"><ele>0.0</ele><time>2026-04-30T15:21:34.001Z</time></trkpt><trkpt lat="42.138221" lon="4.4624981"><ele>0.0</ele><time>2026-04-30T15:21:35.002Z</time></trkpt><trkpt lat="42.138257" lon="4.4626061"><ele>0.0</ele><time>2026-04-30T15:21:36.001Z</time></trkpt><trkpt lat="42.1382905" lon="4.4627145"><ele>0.0</ele><time>2026-04-30T15:21:37.001Z</time></trkpt><trkpt lat="42.1383646" lon="4.4629206"><ele>0.0</ele><time>2026-04-30T15:21:39.001Z</time></trkpt><trkpt lat="42.1383938" lon="4.463028"><ele>0.0</ele><time>2026-04-30T15:21:40.002Z</time></trkpt><trkpt lat="42.1384237" lon="4.4631349"><ele>0.0</ele><time>2026-04-30T15:21:41.001Z</time></trkpt><trkpt lat="42.1384539" lon="4.4632417"><ele>0.0</ele><time>2026-04-30T15:21:42.001Z</time></trkpt><trkpt lat="42.1384909" lon="4.4633414"><ele>0.0</ele><time>2026-04-30T15:21:43.001Z</time></trkpt><trkpt lat="42.1385359" lon="4.4634454"><ele>0.0</ele><time>2026-04-30T15:21:44.002Z</time></trkpt><trkpt lat="42.1385714" lon="4.4635518"><ele>0.0</ele><time>2026-04-30T15:21:45.001Z</time></trkpt><trkpt lat="42.1386068" lon="4.463658"><ele>0.0</ele><time>2026-04-30T15:21:46.002Z</time></trkpt><trkpt lat="42.1386405" lon="4.4637563"><ele>0.0</ele><time>2026-04-30T15:21:47.001Z</time></trkpt><trkpt lat="42.1386768" lon="4.4638599"><ele>0.0</ele><time>2026-04-30T15:21:48.001Z</time></trkpt><trkpt lat="42.1387148" lon="4.4639661"><ele>0.0</ele><time>2026-04-30T15:21:49.001Z</time></trkpt><trkpt lat="42.1387516" lon="4.4640715"><ele>0.0</ele><time>2026-04-30T15:21:50.001Z</time></trkpt><trkpt lat="42.1387898" lon="4.4641778"><ele>0.0</ele><time>2026-04-30T15:21:51.001Z</time></trkpt><trkpt lat="42.1388251" lon="4.4642831"><ele>0.0</ele><time>2026-04-30T15:21:52.001Z</time></trkpt><trkpt lat="42.13886" lon="4.4643898"><ele>0.0</ele><time>2026-04-30T15:21:53.001Z</time></trkpt><trkpt lat="42.1388934" lon="4.4644981"><ele>0.0</ele><time>2026-04-30T15:21:54.001Z</time></trkpt><trkpt lat="42.1389253" lon="4.4646051"><ele>0.0</ele><time>2026-04-30T15:21:55.002Z</time></trkpt><trkpt lat="42.1389594" lon="4.4647147"><ele>0.0</ele><time>2026-04-30T15:21:56.001Z</time></trkpt><trkpt lat="42.1389883" lon="4.4648203"><ele>0.0</ele><time>2026-04-30T15:21:57.002Z</time></trkpt><trkpt lat="42.1390211" lon="4.4649313"><ele>0.0</ele><time>2026-04-30T15:21:58.001Z</time></trkpt><trkpt lat="42.1390883" lon="4.4651331"><ele>0.0</ele><time>2026-04-30T15:22:00.001Z</time></trkpt><trkpt lat="42.1391217" lon="4.4652341"><ele>0.0</ele><time>2026-04-30T15:22:01.002Z</time></trkpt><trkpt lat="42.1391578" lon="4.4653331"><ele>0.0</ele><time>2026-04-30T15:22:02.002Z</time></trkpt><trkpt lat="42.1391973" lon="4.4654338"><ele>0.0</ele><time>2026-04-30T15:22:03.001Z</time></trkpt><trkpt lat="42.1392341" lon="4.4655357"><ele>0.0</ele><time>2026-04-30T15:22:04.002Z</time></trkpt><trkpt lat="42.1392736" lon="4.4656388"><ele>0.0</ele><time>2026-04-30T15:22:05.002Z</time></trkpt><trkpt lat="42.1393164" lon="4.4657425"><ele>0.0</ele><time>2026-04-30T15:22:06.002Z</time></trkpt><trkpt lat="42.1393546" lon="4.4658482"><ele>0.0</ele><time>2026-04-30T15:22:07.002Z</time></trkpt><trkpt lat="42.1393914" lon="4.4659548"><ele>0.0</ele><time>2026-04-30T15:22:08.001Z</time></trkpt><trkpt lat="42.1394285" lon="4.46606"><ele>0.0</ele><time>2026-04-30T15:22:09.002Z</time></trkpt><trkpt lat="42.1394666" lon="4.4661636"><ele>0.0</ele><time>2026-04-30T15:22:10.001Z</time></trkpt><trkpt lat="42.1395076" lon="4.4662658"><ele>0.0</ele><time>2026-04-30T15:22:11.001Z</time></trkpt><trkpt lat="42.1395466" lon="4.4663682"><ele>0.0</ele><time>2026-04-30T15:22:12.001Z</time></trkpt><trkpt lat="42.1395832" lon="4.4664703"><ele>0.0</ele><time>2026-04-30T15:22:13.002Z</time></trkpt><trkpt lat="42.1396219" lon="4.4665703"><ele>0.0</ele><time>2026-04-30T15:22:14.002Z</time></trkpt><trkpt lat="42.1396617" lon="4.4666673"><ele>0.0</ele><time>2026-04-30T15:22:15.001Z</time></trkpt><trkpt lat="42.1397034" lon="4.4667672"><ele>0.0</ele><time>2026-04-30T15:22:16.002Z</time></trkpt><trkpt lat="42.1397452" lon="4.4668712"><ele>0.0</ele><time>2026-04-30T15:22:17.001Z</time></trkpt><trkpt lat="42.1397852" lon="4.4669749"><ele>0.0</ele><time>2026-04-30T15:22:18.001Z</time></trkpt><trkpt lat="42.1398237" lon="4.4670783"><ele>0.0</ele><time>2026-04-30T15:22:19.002Z</time></trkpt><trkpt lat="42.13986" lon="4.4671789"><ele>0.0</ele><time>2026-04-30T15:22:20.002Z</time></trkpt><trkpt lat="42.1399766" lon="4.4674808"><ele>0.0</ele><time>2026-04-30T15:22:23.001Z</time></trkpt><trkpt lat="42.1400167" lon="4.4675904"><ele>0.0</ele><time>2026-04-30T15:22:24.001Z</time></trkpt><trkpt lat="42.1400561" lon="4.4676935"><ele>0.0</ele><time>2026-04-30T15:22:25.001Z</time></trkpt><trkpt lat="42.1400964" lon="4.467798"><ele>0.0</ele><time>2026-04-30T15:22:26.001Z</time></trkpt><trkpt lat="42.1401353" lon="4.4679016"><ele>0.0</ele><time>2026-04-30T15:22:27.002Z</time></trkpt><trkpt lat="42.1401736" lon="4.4680048"><ele>0.0</ele><time>2026-04-30T15:22:28.002Z</time></trkpt><trkpt lat="42.1402135" lon="4.468105"><ele>0.0</ele><time>2026-04-30T15:22:29.001Z</time></trkpt><trkpt lat="42.1402506" lon="4.4682068"><ele>0.0</ele><time>2026-04-30T15:22:30.001Z</time></trkpt><trkpt lat="42.1402917" lon="4.4683095"><ele>0.0</ele><time>2026-04-30T15:22:31.002Z</time></trkpt><trkpt lat="42.1403335" lon="4.4684157"><ele>0.0</ele><time>2026-04-30T15:22:32.001Z</time></trkpt><trkpt lat="42.1403734" lon="4.4685198"><ele>0.0</ele><time>2026-04-30T15:22:33.001Z</time></trkpt><trkpt lat="42.140409" lon="4.4686219"><ele>0.0</ele><time>2026-04-30T15:22:34.001Z</time></trkpt><trkpt lat="42.1404427" lon="4.4687223"><ele>0.0</ele><time>2026-04-30T15:22:35.001Z</time></trkpt><trkpt lat="42.1404756" lon="4.4688252"><ele>0.0</ele><time>2026-04-30T15:22:36.001Z</time></trkpt><trkpt lat="42.1405103" lon="4.4689272"><ele>0.0</ele><time>2026-04-30T15:22:37.002Z</time></trkpt><trkpt lat="42.1405422" lon="4.469029"><ele>0.0</ele><time>2026-04-30T15:22:38.002Z</time></trkpt><trkpt lat="42.1405652" lon="4.4691292"><ele>0.0</ele><time>2026-04-30T15:22:39.001Z</time></trkpt><trkpt lat="42.1405954" lon="4.4692319"><ele>0.0</ele><time>2026-04-30T15:22:40.002Z</time></trkpt><trkpt lat="42.1406283" lon="4.4693395"><ele>0.0</ele><time>2026-04-30T15:22:41.002Z</time></trkpt><trkpt lat="42.1406649" lon="4.4694463"><ele>0.0</ele><time>2026-04-30T15:22:42.002Z</time></trkpt><trkpt lat="42.1407349" lon="4.4696613"><ele>0.0</ele><time>2026-04-30T15:22:44.001Z</time></trkpt><trkpt lat="42.1407683" lon="4.4697682"><ele>0.0</ele><time>2026-04-30T15:22:45.002Z</time></trkpt><trkpt lat="42.1408049" lon="4.4698761"><ele>0.0</ele><time>2026-04-30T15:22:46.001Z</time></trkpt><trkpt lat="42.14084" lon="4.4699817"><ele>0.0</ele><time>2026-04-30T15:22:47.001Z</time></trkpt><trkpt lat="42.1408765" lon="4.4700835"><ele>0.0</ele><time>2026-04-30T15:22:48.001Z</time></trkpt><trkpt lat="42.1409133" lon="4.4701879"><ele>0.0</ele><time>2026-04-30T15:22:49.001Z</time></trkpt><trkpt lat="42.1409498" lon="4.4702887"><ele>0.0</ele><time>2026-04-30T15:22:50.001Z</time></trkpt><trkpt lat="42.1409851" lon="4.4703961"><ele>0.0</ele><time>2026-04-30T15:22:51.001Z</time></trkpt><trkpt lat="42.141058" lon="4.4706038"><ele>0.0</ele><time>2026-04-30T15:22:53.002Z</time></trkpt><trkpt lat="42.1410936" lon="4.4707109"><ele>0.0</ele><time>2026-04-30T15:22:54.002Z</time></trkpt><trkpt lat="42.1411319" lon="4.4708087"><ele>0.0</ele><time>2026-04-30T15:22:55.001Z</time></trkpt><trkpt lat="42.1411719" lon="4.470905"><ele>0.0</ele><time>2026-04-30T15:22:56.002Z</time></trkpt><trkpt lat="42.1412079" lon="4.4710071"><ele>0.0</ele><time>2026-04-30T15:22:57.001Z</time></trkpt><trkpt lat="42.1412445" lon="4.4711218"><ele>0.0</ele><time>2026-04-30T15:22:58.001Z</time></trkpt><trkpt lat="42.1412842" lon="4.4712314"><ele>0.0</ele><time>2026-04-30T15:22:59.001Z</time></trkpt><trkpt lat="42.1413227" lon="4.471331"><ele>0.0</ele><time>2026-04-30T15:23:00.001Z</time></trkpt><trkpt lat="42.141365" lon="4.4714322"><ele>0.0</ele><time>2026-04-30T15:23:01.001Z</time></trkpt><trkpt lat="42.1414055" lon="4.4715299"><ele>0.0</ele><time>2026-04-30T15:23:02.002Z</time></trkpt><trkpt lat="42.1414458" lon="4.4716295"><ele>0.0</ele><time>2026-04-30T15:23:03.001Z</time></trkpt><trkpt lat="42.1415246" lon="4.4718284"><ele>0.0</ele><time>2026-04-30T15:23:05.002Z</time></trkpt><trkpt lat="42.1415611" lon="4.4719297"><ele>0.0</ele><time>2026-04-30T15:23:06.001Z</time></trkpt><trkpt lat="42.141599" lon="4.4720338"><ele>0.0</ele><time>2026-04-30T15:23:07Z</time></trkpt><trkpt lat="42.141633" lon="4.4721406"><ele>0.0</ele><time>2026-04-30T15:23:08Z</time></trkpt><trkpt lat="42.141666" lon="4.4722433"><ele>0.0</ele><time>2026-04-30T15:23:09Z</time></trkpt><trkpt lat="42.1417016" lon="4.4723497"><ele>0.0</ele><time>2026-04-30T15:23:10.001Z</time></trkpt><trkpt lat="42.1417351" lon="4.472452"><ele>0.0</ele><time>2026-04-30T15:23:11.001Z</time></trkpt><trkpt lat="42.1417653" lon="4.472557"><ele>0.0</ele><time>2026-04-30T15:23:12Z</time></trkpt><trkpt lat="42.1417937" lon="4.4726608"><ele>0.0</ele><time>2026-04-30T15:23:13Z</time></trkpt><trkpt lat="42.14183" lon="4.4727574"><ele>0.0</ele><time>2026-04-30T15:23:14.001Z</time></trkpt><trkpt lat="42.1418597" lon="4.4728655"><ele>0.0</ele><time>2026-04-30T15:23:15.001Z</time></trkpt><trkpt lat="42.1418914" lon="4.4729753"><ele>0.0</ele><time>2026-04-30T15:23:16Z</time></trkpt><trkpt lat="42.1419244" lon="4.4730921"><ele>0.0</ele><time>2026-04-30T15:23:17.001Z</time></trkpt><trkpt lat="42.1419567" lon="4.4731987"><ele>0.0</ele><time>2026-04-30T15:23:18Z</time></trkpt><trkpt lat="42.1419869" lon="4.4733056"><ele>0.0</ele><time>2026-04-30T15:23:19Z</time></trkpt><trkpt lat="42.1420167" lon="4.473411"><ele>0.0</ele><time>2026-04-30T15:23:20Z</time></trkpt><trkpt lat="42.1420524" lon="4.4735127"><ele>0.0</ele><time>2026-04-30T15:23:21.001Z</time></trkpt><trkpt lat="42.1420849" lon="4.4736172"><ele>0.0</ele><time>2026-04-30T15:23:22.001Z</time></trkpt><trkpt lat="42.1421167" lon="4.4737234"><ele>0.0</ele><time>2026-04-30T15:23:23Z</time></trkpt><trkpt lat="42.1421482" lon="4.4738316"><ele>0.0</ele><time>2026-04-30T15:23:24Z</time></trkpt><trkpt lat="42.1422618" lon="4.4741478"><ele>0.0</ele><time>2026-04-30T15:23:27Z</time></trkpt><trkpt lat="42.1423082" lon="4.4742422"><ele>0.0</ele><time>2026-04-30T15:23:28Z</time></trkpt><trkpt lat="42.1423464" lon="4.4743427"><ele>0.0</ele><time>2026-04-30T15:23:29Z</time></trkpt><trkpt lat="42.1423817" lon="4.474447"><ele>0.0</ele><time>2026-04-30T15:23:30.001Z</time></trkpt><trkpt lat="42.1424281" lon="4.4745445"><ele>0.0</ele><time>2026-04-30T15:23:31.001Z</time></trkpt><trkpt lat="42.142471" lon="4.4746439"><ele>0.0</ele><time>2026-04-30T15:23:32Z</time></trkpt><trkpt lat="42.1425102" lon="4.474748"><ele>0.0</ele><time>2026-04-30T15:23:33.001Z</time></trkpt><trkpt lat="42.1425516" lon="4.4748511"><ele>0.0</ele><time>2026-04-30T15:23:34Z</time></trkpt><trkpt lat="42.1425865" lon="4.474956"><ele>0.0</ele><time>2026-04-30T15:23:35.001Z</time></trkpt><trkpt lat="42.1426256" lon="4.475057"><ele>0.0</ele><time>2026-04-30T15:23:36Z</time></trkpt><trkpt lat="42.1426643" lon="4.4751551"><ele>0.0</ele><time>2026-04-30T15:23:37.001Z</time></trkpt><trkpt lat="42.1427027" lon="4.4752562"><ele>0.0</ele><time>2026-04-30T15:23:38.001Z</time></trkpt><trkpt lat="42.142738" lon="4.4753578"><ele>0.0</ele><time>2026-04-30T15:23:39Z</time></trkpt><trkpt lat="42.1427716" lon="4.4754538"><ele>0.0</ele><time>2026-04-30T15:23:40Z</time></trkpt><trkpt lat="42.142809" lon="4.475559"><ele>0.0</ele><time>2026-04-30T15:23:41.001Z</time></trkpt><trkpt lat="42.1428469" lon="4.4756649"><ele>0.0</ele><time>2026-04-30T15:23:42Z</time></trkpt><trkpt lat="42.1428812" lon="4.4757733"><ele>0.0</ele><time>2026-04-30T15:23:43.001Z</time></trkpt><trkpt lat="42.1429189" lon="4.4758748"><ele>0.0</ele><time>2026-04-30T15:23:44Z</time></trkpt><trkpt lat="42.1429576" lon="4.4759753"><ele>0.0</ele><time>2026-04-30T15:23:45Z</time></trkpt><trkpt lat="42.1429956" lon="4.4760781"><ele>0.0</ele><time>2026-04-30T15:23:46Z</time></trkpt><trkpt lat="42.1430665" lon="4.476281"><ele>0.0</ele><time>2026-04-30T15:23:48Z</time></trkpt><trkpt lat="42.1430995" lon="4.4763869"><ele>0.0</ele><time>2026-04-30T15:23:49.001Z</time></trkpt><trkpt lat="42.14313" lon="4.4764978"><ele>0.0</ele><time>2026-04-30T15:23:50Z</time></trkpt><trkpt lat="42.1431613" lon="4.476601"><ele>0.0</ele><time>2026-04-30T15:23:51Z</time></trkpt><trkpt lat="42.1431816" lon="4.4767183"><ele>0.0</ele><time>2026-04-30T15:23:52.001Z</time></trkpt><trkpt lat="42.1432072" lon="4.4768258"><ele>0.0</ele><time>2026-04-30T15:23:53.001Z</time></trkpt><trkpt lat="42.1432404" lon="4.4769313"><ele>0.0</ele><time>2026-04-30T15:23:54.001Z</time></trkpt><trkpt lat="42.1432725" lon="4.4770345"><ele>0.0</ele><time>2026-04-30T15:23:55Z</time></trkpt><trkpt lat="42.1433102" lon="4.4771418"><ele>0.0</ele><time>2026-04-30T15:23:56Z</time></trkpt><trkpt lat="42.1433487" lon="4.4772474"><ele>0.0</ele><time>2026-04-30T15:23:57.001Z</time></trkpt><trkpt lat="42.1434275" lon="4.4774546"><ele>0.0</ele><time>2026-04-30T15:23:59Z</time></trkpt><trkpt lat="42.1434698" lon="4.4775559"><ele>0.0</ele><time>2026-04-30T15:24:00Z</time></trkpt><trkpt lat="42.1435074" lon="4.4776558"><ele>0.0</ele><time>2026-04-30T15:24:01Z</time></trkpt><trkpt lat="42.1435483" lon="4.4777629"><ele>0.0</ele><time>2026-04-30T15:24:02Z</time></trkpt><trkpt lat="42.1435859" lon="4.4778755"><ele>0.0</ele><time>2026-04-30T15:24:03Z</time></trkpt><trkpt lat="42.1436213" lon="4.4779817"><ele>0.0</ele><time>2026-04-30T15:24:04Z</time></trkpt><trkpt lat="42.1436582" lon="4.4780896"><ele>0.0</ele><time>2026-04-30T15:24:05Z</time></trkpt><trkpt lat="42.1436932" lon="4.4781964"><ele>0.0</ele><time>2026-04-30T15:24:06.001Z</time></trkpt><trkpt lat="42.1437314" lon="4.4783046"><ele>0.0</ele><time>2026-04-30T15:24:07Z</time></trkpt><trkpt lat="42.1438054" lon="4.4785075"><ele>0.0</ele><time>2026-04-30T15:24:09.001Z</time></trkpt><trkpt lat="42.1438438" lon="4.4786013"><ele>0.0</ele><time>2026-04-30T15:24:10Z</time></trkpt><trkpt lat="42.1438836" lon="4.4786974"><ele>0.0</ele><time>2026-04-30T15:24:11Z</time></trkpt><trkpt lat="42.143928" lon="4.4788005"><ele>0.0</ele><time>2026-04-30T15:24:12.001Z</time></trkpt><trkpt lat="42.1439677" lon="4.4788997"><ele>0.0</ele><time>2026-04-30T15:24:13.001Z</time></trkpt><trkpt lat="42.1440064" lon="4.4790023"><ele>0.0</ele><time>2026-04-30T15:24:14.001Z</time></trkpt><trkpt lat="42.1440473" lon="4.4791002"><ele>0.0</ele><time>2026-04-30T15:24:15Z</time></trkpt><trkpt lat="42.1440886" lon="4.4792042"><ele>0.0</ele><time>2026-04-30T15:24:16Z</time></trkpt><trkpt lat="42.1441314" lon="4.479312"><ele>0.0</ele><time>2026-04-30T15:24:17Z</time></trkpt><trkpt lat="42.1441734" lon="4.4794145"><ele>0.0</ele><time>2026-04-30T15:24:18.001Z</time></trkpt><trkpt lat="42.1442153" lon="4.4795174"><ele>0.0</ele><time>2026-04-30T15:24:19.001Z</time></trkpt><trkpt lat="42.1442553" lon="4.4796184"><ele>0.0</ele><time>2026-04-30T15:24:20Z</time></trkpt><trkpt lat="42.1442936" lon="4.4797214"><ele>0.0</ele><time>2026-04-30T15:24:21Z</time></trkpt><trkpt lat="42.1443236" lon="4.4798276"><ele>0.0</ele><time>2026-04-30T15:24:22Z</time></trkpt><trkpt lat="42.1443593" lon="4.4799304"><ele>0.0</ele><time>2026-04-30T15:24:23.001Z</time></trkpt><trkpt lat="42.1443923" lon="4.4800308"><ele>0.0</ele><time>2026-04-30T15:24:24Z</time></trkpt><trkpt lat="42.1444285" lon="4.4801364"><ele>0.0</ele><time>2026-04-30T15:24:25Z</time></trkpt><trkpt lat="42.1444601" lon="4.4802432"><ele>0.0</ele><time>2026-04-30T15:24:26Z</time></trkpt><trkpt lat="42.1444917" lon="4.4803514"><ele>0.0</ele><time>2026-04-30T15:24:27.001Z</time></trkpt><trkpt lat="42.1445234" lon="4.4804582"><ele>0.0</ele><time>2026-04-30T15:24:28Z</time></trkpt><trkpt lat="42.1445832" lon="4.4806687"><ele>0.0</ele><time>2026-04-30T15:24:30Z</time></trkpt><trkpt lat="42.1446497" lon="4.4808802"><ele>0.0</ele><time>2026-04-30T15:24:32.001Z</time></trkpt><trkpt lat="42.1446843" lon="4.4809827"><ele>0.0</ele><time>2026-04-30T15:24:33.001Z</time></trkpt><trkpt lat="42.144715" lon="4.4810887"><ele>0.0</ele><time>2026-04-30T15:24:34Z</time></trkpt><trkpt lat="42.1447511" lon="4.4811927"><ele>0.0</ele><time>2026-04-30T15:24:35Z</time></trkpt><trkpt lat="42.1447831" lon="4.4812931"><ele>0.0</ele><time>2026-04-30T15:24:36Z</time></trkpt><trkpt lat="42.1448163" lon="4.4813954"><ele>0.0</ele><time>2026-04-30T15:24:37Z</time></trkpt><trkpt lat="42.1448454" lon="4.4814964"><ele>0.0</ele><time>2026-04-30T15:24:38Z</time></trkpt><trkpt lat="42.1448765" lon="4.4816016"><ele>0.0</ele><time>2026-04-30T15:24:39Z</time></trkpt><trkpt lat="42.1449139" lon="4.4817051"><ele>0.0</ele><time>2026-04-30T15:24:40Z</time></trkpt><trkpt lat="42.1449491" lon="4.4818187"><ele>0.0</ele><time>2026-04-30T15:24:41Z</time></trkpt><trkpt lat="42.1449862" lon="4.4819262"><ele>0.0</ele><time>2026-04-30T15:24:42Z</time></trkpt><trkpt lat="42.1450286" lon="4.4820287"><ele>0.0</ele><time>2026-04-30T15:24:43Z</time></trkpt><trkpt lat="42.1450622" lon="4.4821306"><ele>0.0</ele><time>2026-04-30T15:24:44Z</time></trkpt><trkpt lat="42.1450936" lon="4.4822293"><ele>0.0</ele><time>2026-04-30T15:24:45.001Z</time></trkpt><trkpt lat="42.145128" lon="4.4823348"><ele>0.0</ele><time>2026-04-30T15:24:46.001Z</time></trkpt><trkpt lat="42.1451646" lon="4.4824442"><ele>0.0</ele><time>2026-04-30T15:24:47.001Z</time></trkpt><trkpt lat="42.1452087" lon="4.4825501"><ele>0.0</ele><time>2026-04-30T15:24:48Z</time></trkpt><trkpt lat="42.145248" lon="4.4826549"><ele>0.0</ele><time>2026-04-30T15:24:49Z</time></trkpt><trkpt lat="42.1453252" lon="4.4828627"><ele>0.0</ele><time>2026-04-30T15:24:51.001Z</time></trkpt><trkpt lat="42.1453636" lon="4.4829649"><ele>0.0</ele><time>2026-04-30T15:24:52Z</time></trkpt><trkpt lat="42.1454062" lon="4.4830694"><ele>0.0</ele><time>2026-04-30T15:24:53Z</time></trkpt><trkpt lat="42.1454452" lon="4.4831729"><ele>0.0</ele><time>2026-04-30T15:24:54Z</time></trkpt><trkpt lat="42.145482" lon="4.4832708"><ele>0.0</ele><time>2026-04-30T15:24:55.001Z</time></trkpt><trkpt lat="42.1455171" lon="4.4833721"><ele>0.0</ele><time>2026-04-30T15:24:56Z</time></trkpt><trkpt lat="42.1455519" lon="4.483478"><ele>0.0</ele><time>2026-04-30T15:24:57Z</time></trkpt><trkpt lat="42.1455867" lon="4.483582"><ele>0.0</ele><time>2026-04-30T15:24:58Z</time></trkpt><trkpt lat="42.1456202" lon="4.483691"><ele>0.0</ele><time>2026-04-30T15:24:59.001Z</time></trkpt><trkpt lat="42.1456536" lon="4.4837938"><ele>0.0</ele><time>2026-04-30T15:25:00.001Z</time></trkpt><trkpt lat="42.145684" lon="4.483904"><ele>0.0</ele><time>2026-04-30T15:25:01Z</time></trkpt><trkpt lat="42.1457184" lon="4.4840142"><ele>0.0</ele><time>2026-04-30T15:25:02.001Z</time></trkpt><trkpt lat="42.1457564" lon="4.4841213"><ele>0.0</ele><time>2026-04-30T15:25:03Z</time></trkpt><trkpt lat="42.1458702" lon="4.4844271"><ele>0.0</ele><time>2026-04-30T15:25:06.001Z</time></trkpt><trkpt lat="42.1459084" lon="4.4845328"><ele>0.0</ele><time>2026-04-30T15:25:07Z</time></trkpt><trkpt lat="42.1459466" lon="4.4846333"><ele>0.0</ele><time>2026-04-30T15:25:08Z</time></trkpt><trkpt lat="42.1459779" lon="4.4847354"><ele>0.0</ele><time>2026-04-30T15:25:09.001Z</time></trkpt><trkpt lat="42.1460106" lon="4.4848357"><ele>0.0</ele><time>2026-04-30T15:25:10Z</time></trkpt><trkpt lat="42.1460801" lon="4.4850468"><ele>0.0</ele><time>2026-04-30T15:25:12.001Z</time></trkpt><trkpt lat="42.1461138" lon="4.4851474"><ele>0.0</ele><time>2026-04-30T15:25:13Z</time></trkpt><trkpt lat="42.1461487" lon="4.4852487"><ele>0.0</ele><time>2026-04-30T15:25:14Z</time></trkpt><trkpt lat="42.146182" lon="4.485352"><ele>0.0</ele><time>2026-04-30T15:25:15.001Z</time></trkpt><trkpt lat="42.1462239" lon="4.4854567"><ele>0.0</ele><time>2026-04-30T15:25:16Z</time></trkpt><trkpt lat="42.1462584" lon="4.4855645"><ele>0.0</ele><time>2026-04-30T15:25:17Z</time></trkpt><trkpt lat="42.1462964" lon="4.4856713"><ele>0.0</ele><time>2026-04-30T15:25:18.001Z</time></trkpt><trkpt lat="42.1463364" lon="4.4857775"><ele>0.0</ele><time>2026-04-30T15:25:19.001Z</time></trkpt><trkpt lat="42.1463752" lon="4.485877"><ele>0.0</ele><time>2026-04-30T15:25:20.001Z</time></trkpt><trkpt lat="42.1464155" lon="4.4859769"><ele>0.0</ele><time>2026-04-30T15:25:21.001Z</time></trkpt><trkpt lat="42.1464557" lon="4.4860799"><ele>0.0</ele><time>2026-04-30T15:25:22.001Z</time></trkpt><trkpt lat="42.1464939" lon="4.4861792"><ele>0.0</ele><time>2026-04-30T15:25:23Z</time></trkpt><trkpt lat="42.1465266" lon="4.4862872"><ele>0.0</ele><time>2026-04-30T15:25:24.001Z</time></trkpt><trkpt lat="42.1465622" lon="4.4863945"><ele>0.0</ele><time>2026-04-30T15:25:25Z</time></trkpt><trkpt lat="42.1465971" lon="4.4864969"><ele>0.0</ele><time>2026-04-30T15:25:26Z</time></trkpt><trkpt lat="42.1466246" lon="4.4866017"><ele>0.0</ele><time>2026-04-30T15:25:27.001Z</time></trkpt><trkpt lat="42.1466572" lon="4.4867021"><ele>0.0</ele><time>2026-04-30T15:25:28Z</time></trkpt><trkpt lat="42.1466884" lon="4.4868068"><ele>0.0</ele><time>2026-04-30T15:25:29.001Z</time></trkpt><trkpt lat="42.1467247" lon="4.4869144"><ele>0.0</ele><time>2026-04-30T15:25:30Z</time></trkpt><trkpt lat="42.1467619" lon="4.4870152"><ele>0.0</ele><time>2026-04-30T15:25:31.001Z</time></trkpt><trkpt lat="42.146833" lon="4.4872218"><ele>0.0</ele><time>2026-04-30T15:25:33.001Z</time></trkpt><trkpt lat="42.1468768" lon="4.4873307"><ele>0.0</ele><time>2026-04-30T15:25:34Z</time></trkpt><trkpt lat="42.1469148" lon="4.487441"><ele>0.0</ele><time>2026-04-30T15:25:35Z</time></trkpt><trkpt lat="42.1469516" lon="4.4875494"><ele>0.0</ele><time>2026-04-30T15:25:36Z</time></trkpt><trkpt lat="42.1470266" lon="4.4877596"><ele>0.0</ele><time>2026-04-30T15:25:38.001Z</time></trkpt><trkpt lat="42.14706" lon="4.4878623"><ele>0.0</ele><time>2026-04-30T15:25:39Z</time></trkpt><trkpt lat="42.1470933" lon="4.4879681"><ele>0.0</ele><time>2026-04-30T15:25:40Z</time></trkpt><trkpt lat="42.1471271" lon="4.4880675"><ele>0.0</ele><time>2026-04-30T15:25:41.001Z</time></trkpt><trkpt lat="42.1471603" lon="4.4881698"><ele>0.0</ele><time>2026-04-30T15:25:42Z</time></trkpt><trkpt lat="42.1471954" lon="4.4882732"><ele>0.0</ele><time>2026-04-30T15:25:43Z</time></trkpt><trkpt lat="42.1472304" lon="4.4883781"><ele>0.0</ele><time>2026-04-30T15:25:44.001Z</time></trkpt><trkpt lat="42.1472667" lon="4.4884847"><ele>0.0</ele><time>2026-04-30T15:25:45.001Z</time></trkpt><trkpt lat="42.1473002" lon="4.48859"><ele>0.0</ele><time>2026-04-30T15:25:46.001Z</time></trkpt><trkpt lat="42.147332" lon="4.4886937"><ele>0.0</ele><time>2026-04-30T15:25:47.001Z</time></trkpt><trkpt lat="42.1473653" lon="4.4887956"><ele>0.0</ele><time>2026-04-30T15:25:48Z</time></trkpt><trkpt lat="42.1474017" lon="4.4889028"><ele>0.0</ele><time>2026-04-30T15:25:49Z</time></trkpt><trkpt lat="42.1474403" lon="4.4890036"><ele>0.0</ele><time>2026-04-30T15:25:50.001Z</time></trkpt><trkpt lat="42.1474768" lon="4.4891066"><ele>0.0</ele><time>2026-04-30T15:25:51.001Z</time></trkpt><trkpt lat="42.1475107" lon="4.4892115"><ele>0.0</ele><time>2026-04-30T15:25:52Z</time></trkpt><trkpt lat="42.1475886" lon="4.4894156"><ele>0.0</ele><time>2026-04-30T15:25:54Z</time></trkpt><trkpt lat="42.1476311" lon="4.4895214"><ele>0.0</ele><time>2026-04-30T15:25:55Z</time></trkpt><trkpt lat="42.1476745" lon="4.4896234"><ele>0.0</ele><time>2026-04-30T15:25:56Z</time></trkpt><trkpt lat="42.1477095" lon="4.4897222"><ele>0.0</ele><time>2026-04-30T15:25:57.001Z</time></trkpt><trkpt lat="42.1477423" lon="4.489831"><ele>0.0</ele><time>2026-04-30T15:25:58Z</time></trkpt><trkpt lat="42.1477692" lon="4.4899367"><ele>0.0</ele><time>2026-04-30T15:25:59Z</time></trkpt><trkpt lat="42.1478044" lon="4.4900431"><ele>0.0</ele><time>2026-04-30T15:26:00Z</time></trkpt><trkpt lat="42.1478443" lon="4.4901481"><ele>0.0</ele><time>2026-04-30T15:26:01Z</time></trkpt><trkpt lat="42.1478833" lon="4.490253"><ele>0.0</ele><time>2026-04-30T15:26:02.001Z</time></trkpt><trkpt lat="42.1479229" lon="4.4903553"><ele>0.0</ele><time>2026-04-30T15:26:03Z</time></trkpt><trkpt lat="42.1479583" lon="4.4904575"><ele>0.0</ele><time>2026-04-30T15:26:04.001Z</time></trkpt><trkpt lat="42.1479917" lon="4.4905635"><ele>0.0</ele><time>2026-04-30T15:26:05.001Z</time></trkpt><trkpt lat="42.148025" lon="4.4906697"><ele>0.0</ele><time>2026-04-30T15:26:06.001Z</time></trkpt><trkpt lat="42.1480601" lon="4.4907733"><ele>0.0</ele><time>2026-04-30T15:26:07.001Z</time></trkpt><trkpt lat="42.1480979" lon="4.4908753"><ele>0.0</ele><time>2026-04-30T15:26:08.001Z</time></trkpt><trkpt lat="42.1481748" lon="4.4910881"><ele>0.0</ele><time>2026-04-30T15:26:10Z</time></trkpt><trkpt lat="42.14821" lon="4.4911878"><ele>0.0</ele><time>2026-04-30T15:26:11Z</time></trkpt><trkpt lat="42.148245" lon="4.4912918"><ele>0.0</ele><time>2026-04-30T15:26:12.001Z</time></trkpt><trkpt lat="42.1482821" lon="4.4913923"><ele>0.0</ele><time>2026-04-30T15:26:13.001Z</time></trkpt><trkpt lat="42.148358" lon="4.4915996"><ele>0.0</ele><time>2026-04-30T15:26:15Z</time></trkpt><trkpt lat="42.1483902" lon="4.4917094"><ele>0.0</ele><time>2026-04-30T15:26:16Z</time></trkpt><trkpt lat="42.1484274" lon="4.4918194"><ele>0.0</ele><time>2026-04-30T15:26:17Z</time></trkpt><trkpt lat="42.148463" lon="4.4919304"><ele>0.0</ele><time>2026-04-30T15:26:18Z</time></trkpt><trkpt lat="42.1484934" lon="4.4920363"><ele>0.0</ele><time>2026-04-30T15:26:19Z</time></trkpt><trkpt lat="42.1485264" lon="4.4921443"><ele>0.0</ele><time>2026-04-30T15:26:20Z</time></trkpt><trkpt lat="42.1485646" lon="4.4922497"><ele>0.0</ele><time>2026-04-30T15:26:21.001Z</time></trkpt><trkpt lat="42.1486033" lon="4.492352"><ele>0.0</ele><time>2026-04-30T15:26:22.001Z</time></trkpt><trkpt lat="42.1486402" lon="4.492458"><ele>0.0</ele><time>2026-04-30T15:26:23.001Z</time></trkpt><trkpt lat="42.1486755" lon="4.4925592"><ele>0.0</ele><time>2026-04-30T15:26:24Z</time></trkpt><trkpt lat="42.1487086" lon="4.4926592"><ele>0.0</ele><time>2026-04-30T15:26:25.001Z</time></trkpt><trkpt lat="42.1487403" lon="4.4927622"><ele>0.0</ele><time>2026-04-30T15:26:26Z</time></trkpt><trkpt lat="42.1487718" lon="4.4928671"><ele>0.0</ele><time>2026-04-30T15:26:27.001Z</time></trkpt><trkpt lat="42.1487993" lon="4.4929705"><ele>0.0</ele><time>2026-04-30T15:26:28.001Z</time></trkpt><trkpt lat="42.1488287" lon="4.4930707"><ele>0.0</ele><time>2026-04-30T15:26:29.001Z</time></trkpt><trkpt lat="42.1488617" lon="4.4931731"><ele>0.0</ele><time>2026-04-30T15:26:30Z</time></trkpt><trkpt lat="42.1488964" lon="4.4932811"><ele>0.0</ele><time>2026-04-30T15:26:31Z</time></trkpt><trkpt lat="42.1489285" lon="4.4933881"><ele>0.0</ele><time>2026-04-30T15:26:32Z</time></trkpt><trkpt lat="42.14896" lon="4.493496"><ele>0.0</ele><time>2026-04-30T15:26:33.001Z</time></trkpt><trkpt lat="42.1489931" lon="4.4936017"><ele>0.0</ele><time>2026-04-30T15:26:34Z</time></trkpt><trkpt lat="42.1490611" lon="4.4938191"><ele>0.0</ele><time>2026-04-30T15:26:36Z</time></trkpt><trkpt lat="42.1491008" lon="4.4939293"><ele>0.0</ele><time>2026-04-30T15:26:37.001Z</time></trkpt><trkpt lat="42.1491335" lon="4.4940324"><ele>0.0</ele><time>2026-04-30T15:26:38.001Z</time></trkpt><trkpt lat="42.1491637" lon="4.4941357"><ele>0.0</ele><time>2026-04-30T15:26:39.001Z</time></trkpt><trkpt lat="42.1491951" lon="4.4942404"><ele>0.0</ele><time>2026-04-30T15:26:40Z</time></trkpt><trkpt lat="42.1492354" lon="4.4943451"><ele>0.0</ele><time>2026-04-30T15:26:41Z</time></trkpt><trkpt lat="42.1493096" lon="4.4945472"><ele>0.0</ele><time>2026-04-30T15:26:43Z</time></trkpt><trkpt lat="42.1493449" lon="4.4946434"><ele>0.0</ele><time>2026-04-30T15:26:44.001Z</time></trkpt><trkpt lat="42.14942" lon="4.4948497"><ele>0.0</ele><time>2026-04-30T15:26:46Z</time></trkpt><trkpt lat="42.1494563" lon="4.4949575"><ele>0.0</ele><time>2026-04-30T15:26:47.001Z</time></trkpt><trkpt lat="42.1494929" lon="4.4950661"><ele>0.0</ele><time>2026-04-30T15:26:48.001Z</time></trkpt><trkpt lat="42.1495297" lon="4.4951717"><ele>0.0</ele><time>2026-04-30T15:26:49Z</time></trkpt><trkpt lat="42.1495684" lon="4.4952766"><ele>0.0</ele><time>2026-04-30T15:26:50Z</time></trkpt><trkpt lat="42.1496067" lon="4.4953804"><ele>0.0</ele><time>2026-04-30T15:26:51.001Z</time></trkpt><trkpt lat="42.1496423" lon="4.4954807"><ele>0.0</ele><time>2026-04-30T15:26:52.001Z</time></trkpt><trkpt lat="42.1496786" lon="4.4955822"><ele>0.0</ele><time>2026-04-30T15:26:53.001Z</time></trkpt><trkpt lat="42.1497166" lon="4.4956864"><ele>0.0</ele><time>2026-04-30T15:26:54Z</time></trkpt><trkpt lat="42.149755" lon="4.4957927"><ele>0.0</ele><time>2026-04-30T15:26:55.001Z</time></trkpt><trkpt lat="42.1498252" lon="4.496003"><ele>0.0</ele><time>2026-04-30T15:26:57.001Z</time></trkpt><trkpt lat="42.1498515" lon="4.4961097"><ele>0.0</ele><time>2026-04-30T15:26:58Z</time></trkpt><trkpt lat="42.1498795" lon="4.4962135"><ele>0.0</ele><time>2026-04-30T15:26:59.001Z</time></trkpt><trkpt lat="42.1499121" lon="4.4963184"><ele>0.0</ele><time>2026-04-30T15:27:00Z</time></trkpt><trkpt lat="42.1499451" lon="4.4964234"><ele>0.0</ele><time>2026-04-30T15:27:01Z</time></trkpt><trkpt lat="42.149987" lon="4.4965241"><ele>0.0</ele><time>2026-04-30T15:27:02Z</time></trkpt><trkpt lat="42.1500262" lon="4.4966313"><ele>0.0</ele><time>2026-04-30T15:27:03Z</time></trkpt><trkpt lat="42.1500616" lon="4.4967381"><ele>0.0</ele><time>2026-04-30T15:27:04Z</time></trkpt><trkpt lat="42.1501035" lon="4.4968435"><ele>0.0</ele><time>2026-04-30T15:27:05.001Z</time></trkpt><trkpt lat="42.1501413" lon="4.4969488"><ele>0.0</ele><time>2026-04-30T15:27:06.001Z</time></trkpt><trkpt lat="42.1501792" lon="4.4970551"><ele>0.0</ele><time>2026-04-30T15:27:07.001Z</time></trkpt><trkpt lat="42.1502147" lon="4.4971588"><ele>0.0</ele><time>2026-04-30T15:27:08Z</time></trkpt><trkpt lat="42.1502526" lon="4.4972647"><ele>0.0</ele><time>2026-04-30T15:27:09.001Z</time></trkpt><trkpt lat="42.150292" lon="4.4973718"><ele>0.0</ele><time>2026-04-30T15:27:10Z</time></trkpt><trkpt lat="42.1503293" lon="4.4974825"><ele>0.0</ele><time>2026-04-30T15:27:10.999Z</time></trkpt><trkpt lat="42.1503646" lon="4.4975882"><ele>0.0</ele><time>2026-04-30T15:27:11.999Z</time></trkpt><trkpt lat="42.1504013" lon="4.4976946"><ele>0.0</ele><time>2026-04-30T15:27:13Z</time></trkpt><trkpt lat="42.1504366" lon="4.4978027"><ele>0.0</ele><time>2026-04-30T15:27:13.999Z</time></trkpt><trkpt lat="42.1505007" lon="4.4980089"><ele>0.0</ele><time>2026-04-30T15:27:15.999Z</time></trkpt><trkpt lat="42.1505984" lon="4.4983091"><ele>0.0</ele><time>2026-04-30T15:27:18.999Z</time></trkpt><trkpt lat="42.1506362" lon="4.4984135"><ele>0.0</ele><time>2026-04-30T15:27:20Z</time></trkpt><trkpt lat="42.1506701" lon="4.4985184"><ele>0.0</ele><time>2026-04-30T15:27:20.999Z</time></trkpt><trkpt lat="42.150705" lon="4.498622"><ele>0.0</ele><time>2026-04-30T15:27:21.999Z</time></trkpt><trkpt lat="42.1507383" lon="4.4987325"><ele>0.0</ele><time>2026-04-30T15:27:22.999Z</time></trkpt><trkpt lat="42.1507758" lon="4.4988386"><ele>0.0</ele><time>2026-04-30T15:27:24Z</time></trkpt><trkpt lat="42.1508242" lon="4.4989433"><ele>0.0</ele><time>2026-04-30T15:27:25Z</time></trkpt><trkpt lat="42.1508661" lon="4.4990536"><ele>0.0</ele><time>2026-04-30T15:27:26Z</time></trkpt><trkpt lat="42.1509082" lon="4.4991591"><ele>0.0</ele><time>2026-04-30T15:27:26.999Z</time></trkpt><trkpt lat="42.1509534" lon="4.4992626"><ele>0.0</ele><time>2026-04-30T15:27:27.999Z</time></trkpt><trkpt lat="42.1509928" lon="4.4993677"><ele>0.0</ele><time>2026-04-30T15:27:28.999Z</time></trkpt><trkpt lat="42.1510328" lon="4.4994669"><ele>0.0</ele><time>2026-04-30T15:27:29.999Z</time></trkpt><trkpt lat="42.151074" lon="4.4995669"><ele>0.0</ele><time>2026-04-30T15:27:30.999Z</time></trkpt><trkpt lat="42.1511173" lon="4.499671"><ele>0.0</ele><time>2026-04-30T15:27:31.999Z</time></trkpt><trkpt lat="42.1511637" lon="4.4997745"><ele>0.0</ele><time>2026-04-30T15:27:33Z</time></trkpt><trkpt lat="42.1511932" lon="4.4998795"><ele>0.0</ele><time>2026-04-30T15:27:33.999Z</time></trkpt><trkpt lat="42.1512306" lon="4.499986"><ele>0.0</ele><time>2026-04-30T15:27:35Z</time></trkpt><trkpt lat="42.1512645" lon="4.5000955"><ele>0.0</ele><time>2026-04-30T15:27:36Z</time></trkpt><trkpt lat="42.1513011" lon="4.5001984"><ele>0.0</ele><time>2026-04-30T15:27:37Z</time></trkpt><trkpt lat="42.1513658" lon="4.5004036"><ele>0.0</ele><time>2026-04-30T15:27:38.999Z</time></trkpt><trkpt lat="42.1514022" lon="4.5005097"><ele>0.0</ele><time>2026-04-30T15:27:40Z</time></trkpt><trkpt lat="42.151437" lon="4.5006122"><ele>0.0</ele><time>2026-04-30T15:27:40.999Z</time></trkpt><trkpt lat="42.1514718" lon="4.5007155"><ele>0.0</ele><time>2026-04-30T15:27:42Z</time></trkpt><trkpt lat="42.1515064" lon="4.5008229"><ele>0.0</ele><time>2026-04-30T15:27:42.999Z</time></trkpt><trkpt lat="42.1515372" lon="4.5009259"><ele>0.0</ele><time>2026-04-30T15:27:43.999Z</time></trkpt><trkpt lat="42.1515638" lon="4.5010222"><ele>0.0</ele><time>2026-04-30T15:27:44.999Z</time></trkpt><trkpt lat="42.1515895" lon="4.5011265"><ele>0.0</ele><time>2026-04-30T15:27:46Z</time></trkpt><trkpt lat="42.1516184" lon="4.5012286"><ele>0.0</ele><time>2026-04-30T15:27:46.999Z</time></trkpt><trkpt lat="42.1516922" lon="4.5014325"><ele>0.0</ele><time>2026-04-30T15:27:48.999Z</time></trkpt><trkpt lat="42.1517282" lon="4.5015337"><ele>0.0</ele><time>2026-04-30T15:27:50Z</time></trkpt><trkpt lat="42.1517617" lon="4.5016357"><ele>0.0</ele><time>2026-04-30T15:27:50.999Z</time></trkpt><trkpt lat="42.1517934" lon="4.5017389"><ele>0.0</ele><time>2026-04-30T15:27:51.999Z</time></trkpt><trkpt lat="42.1518239" lon="4.5018466"><ele>0.0</ele><time>2026-04-30T15:27:52.999Z</time></trkpt><trkpt lat="42.1518549" lon="4.5019535"><ele>0.0</ele><time>2026-04-30T15:27:54Z</time></trkpt><trkpt lat="42.1518893" lon="4.5020588"><ele>0.0</ele><time>2026-04-30T15:27:55Z</time></trkpt><trkpt lat="42.151923" lon="4.5021637"><ele>0.0</ele><time>2026-04-30T15:27:56Z</time></trkpt><trkpt lat="42.1519619" lon="4.502267"><ele>0.0</ele><time>2026-04-30T15:27:56.999Z</time></trkpt><trkpt lat="42.1519964" lon="4.5023717"><ele>0.0</ele><time>2026-04-30T15:27:58Z</time></trkpt><trkpt lat="42.1520691" lon="4.5025873"><ele>0.0</ele><time>2026-04-30T15:27:59.999Z</time></trkpt><trkpt lat="42.1521147" lon="4.5026905"><ele>0.0</ele><time>2026-04-30T15:28:01Z</time></trkpt><trkpt lat="42.1521601" lon="4.5027953"><ele>0.0</ele><time>2026-04-30T15:28:01.999Z</time></trkpt><trkpt lat="42.1522018" lon="4.5029015"><ele>0.0</ele><time>2026-04-30T15:28:03Z</time></trkpt><trkpt lat="42.1522423" lon="4.5030095"><ele>0.0</ele><time>2026-04-30T15:28:04Z</time></trkpt><trkpt lat="42.1522815" lon="4.5031164"><ele>0.0</ele><time>2026-04-30T15:28:05Z</time></trkpt><trkpt lat="42.1523134" lon="4.5032217"><ele>0.0</ele><time>2026-04-30T15:28:05.999Z</time></trkpt><trkpt lat="42.1523521" lon="4.5033337"><ele>0.0</ele><time>2026-04-30T15:28:06.999Z</time></trkpt><trkpt lat="42.1523863" lon="4.5034384"><ele>0.0</ele><time>2026-04-30T15:28:08Z</time></trkpt><trkpt lat="42.1524228" lon="4.5035418"><ele>0.0</ele><time>2026-04-30T15:28:09Z</time></trkpt><trkpt lat="42.1524553" lon="4.5036407"><ele>0.0</ele><time>2026-04-30T15:28:09.999Z</time></trkpt><trkpt lat="42.1524895" lon="4.5037406"><ele>0.0</ele><time>2026-04-30T15:28:11Z</time></trkpt><trkpt lat="42.1525192" lon="4.503839"><ele>0.0</ele><time>2026-04-30T15:28:11.999Z</time></trkpt><trkpt lat="42.1525477" lon="4.5039416"><ele>0.0</ele><time>2026-04-30T15:28:12.999Z</time></trkpt><trkpt lat="42.1525788" lon="4.5040407"><ele>0.0</ele><time>2026-04-30T15:28:14Z</time></trkpt><trkpt lat="42.1526143" lon="4.5041422"><ele>0.0</ele><time>2026-04-30T15:28:14.999Z</time></trkpt><trkpt lat="42.1526523" lon="4.5042453"><ele>0.0</ele><time>2026-04-30T15:28:16Z</time></trkpt><trkpt lat="42.1526891" lon="4.5043543"><ele>0.0</ele><time>2026-04-30T15:28:16.999Z</time></trkpt><trkpt lat="42.1527188" lon="4.5044571"><ele>0.0</ele><time>2026-04-30T15:28:17.999Z</time></trkpt><trkpt lat="42.1527522" lon="4.5045601"><ele>0.0</ele><time>2026-04-30T15:28:18.999Z</time></trkpt><trkpt lat="42.1528476" lon="4.504872"><ele>0.0</ele><time>2026-04-30T15:28:21.999Z</time></trkpt><trkpt lat="42.1528731" lon="4.5049832"><ele>0.0</ele><time>2026-04-30T15:28:22.999Z</time></trkpt><trkpt lat="42.1529164" lon="4.5050899"><ele>0.0</ele><time>2026-04-30T15:28:24Z</time></trkpt><trkpt lat="42.15296" lon="4.5051979"><ele>0.0</ele><time>2026-04-30T15:28:25Z</time></trkpt><trkpt lat="42.152997" lon="4.5053062"><ele>0.0</ele><time>2026-04-30T15:28:25.999Z</time></trkpt><trkpt lat="42.1530245" lon="4.5054179"><ele>0.0</ele><time>2026-04-30T15:28:26.999Z</time></trkpt><trkpt lat="42.153053" lon="4.5055263"><ele>0.0</ele><time>2026-04-30T15:28:27.999Z</time></trkpt><trkpt lat="42.1530831" lon="4.5056343"><ele>0.0</ele><time>2026-04-30T15:28:29Z</time></trkpt><trkpt lat="42.1531166" lon="4.5057346"><ele>0.0</ele><time>2026-04-30T15:28:30Z</time></trkpt><trkpt lat="42.1531583" lon="4.5058419"><ele>0.0</ele><time>2026-04-30T15:28:31Z</time></trkpt><trkpt lat="42.1532031" lon="4.5059386"><ele>0.0</ele><time>2026-04-30T15:28:31.999Z</time></trkpt><trkpt lat="42.1532459" lon="4.5060404"><ele>0.0</ele><time>2026-04-30T15:28:32.999Z</time></trkpt><trkpt lat="42.1532814" lon="4.5061452"><ele>0.0</ele><time>2026-04-30T15:28:33.999Z</time></trkpt><trkpt lat="42.1533215" lon="4.5062471"><ele>0.0</ele><time>2026-04-30T15:28:34.999Z</time></trkpt><trkpt lat="42.1533642" lon="4.5063517"><ele>0.0</ele><time>2026-04-30T15:28:36Z</time></trkpt><trkpt lat="42.1534036" lon="4.5064553"><ele>0.0</ele><time>2026-04-30T15:28:37Z</time></trkpt><trkpt lat="42.1534379" lon="4.5065599"><ele>0.0</ele><time>2026-04-30T15:28:38Z</time></trkpt><trkpt lat="42.1534701" lon="4.5066594"><ele>0.0</ele><time>2026-04-30T15:28:38.999Z</time></trkpt><trkpt lat="42.1535004" lon="4.5067631"><ele>0.0</ele><time>2026-04-30T15:28:40Z</time></trkpt><trkpt lat="42.1535372" lon="4.5068668"><ele>0.0</ele><time>2026-04-30T15:28:40.999Z</time></trkpt><trkpt lat="42.153605" lon="4.5070766"><ele>0.0</ele><time>2026-04-30T15:28:42.999Z</time></trkpt><trkpt lat="42.1536408" lon="4.5071875"><ele>0.0</ele><time>2026-04-30T15:28:43.999Z</time></trkpt><trkpt lat="42.1536782" lon="4.5072886"><ele>0.0</ele><time>2026-04-30T15:28:45Z</time></trkpt><trkpt lat="42.1537528" lon="4.5074891"><ele>0.0</ele><time>2026-04-30T15:28:46.999Z</time></trkpt><trkpt lat="42.1537877" lon="4.507592"><ele>0.0</ele><time>2026-04-30T15:28:48Z</time></trkpt><trkpt lat="42.1538258" lon="4.5076952"><ele>0.0</ele><time>2026-04-30T15:28:48.999Z</time></trkpt><trkpt lat="42.1538976" lon="4.5079054"><ele>0.0</ele><time>2026-04-30T15:28:50.999Z</time></trkpt><trkpt lat="42.1539399" lon="4.5080052"><ele>0.0</ele><time>2026-04-30T15:28:51.999Z</time></trkpt><trkpt lat="42.1540693" lon="4.5083158"><ele>0.0</ele><time>2026-04-30T15:28:55Z</time></trkpt><trkpt lat="42.1541074" lon="4.5084197"><ele>0.0</ele><time>2026-04-30T15:28:55.999Z</time></trkpt><trkpt lat="42.1541469" lon="4.5085262"><ele>0.0</ele><time>2026-04-30T15:28:56.999Z</time></trkpt><trkpt lat="42.1542146" lon="4.5087417"><ele>0.0</ele><time>2026-04-30T15:28:58.999Z</time></trkpt><trkpt lat="42.1542423" lon="4.5088502"><ele>0.0</ele><time>2026-04-30T15:29:00Z</time></trkpt><trkpt lat="42.15427" lon="4.5089582"><ele>0.0</ele><time>2026-04-30T15:29:00.999Z</time></trkpt><trkpt lat="42.1543036" lon="4.5090591"><ele>0.0</ele><time>2026-04-30T15:29:02Z</time></trkpt><trkpt lat="42.1543678" lon="4.509264"><ele>0.0</ele><time>2026-04-30T15:29:03.999Z</time></trkpt><trkpt lat="42.154405" lon="4.5093667"><ele>0.0</ele><time>2026-04-30T15:29:05Z</time></trkpt><trkpt lat="42.1544478" lon="4.5094731"><ele>0.0</ele><time>2026-04-30T15:29:05.999Z</time></trkpt><trkpt lat="42.1545256" lon="4.5096839"><ele>0.0</ele><time>2026-04-30T15:29:07.999Z</time></trkpt><trkpt lat="42.1545635" lon="4.509788"><ele>0.0</ele><time>2026-04-30T15:29:08.999Z</time></trkpt><trkpt lat="42.1545973" lon="4.5098899"><ele>0.0</ele><time>2026-04-30T15:29:09.999Z</time></trkpt><trkpt lat="42.1546378" lon="4.5099916"><ele>0.0</ele><time>2026-04-30T15:29:10.999Z</time></trkpt><trkpt lat="42.1546779" lon="4.5101003"><ele>0.0</ele><time>2026-04-30T15:29:12Z</time></trkpt><trkpt lat="42.1547153" lon="4.5102058"><ele>0.0</ele><time>2026-04-30T15:29:13Z</time></trkpt><trkpt lat="42.1547934" lon="4.510423"><ele>0.0</ele><time>2026-04-30T15:29:14.999Z</time></trkpt><trkpt lat="42.1548302" lon="4.5105239"><ele>0.0</ele><time>2026-04-30T15:29:16Z</time></trkpt><trkpt lat="42.1548566" lon="4.5106296"><ele>0.0</ele><time>2026-04-30T15:29:17Z</time></trkpt><trkpt lat="42.1548899" lon="4.5107333"><ele>0.0</ele><time>2026-04-30T15:29:18Z</time></trkpt><trkpt lat="42.1549272" lon="4.510841"><ele>0.0</ele><time>2026-04-30T15:29:19Z</time></trkpt><trkpt lat="42.1550017" lon="4.5110483"><ele>0.0</ele><time>2026-04-30T15:29:21Z</time></trkpt><trkpt lat="42.1550458" lon="4.5111588"><ele>0.0</ele><time>2026-04-30T15:29:22Z</time></trkpt><trkpt lat="42.1550834" lon="4.5112634"><ele>0.0</ele><time>2026-04-30T15:29:22.999Z</time></trkpt><trkpt lat="42.1551947" lon="4.5115714"><ele>0.0</ele><time>2026-04-30T15:29:26Z</time></trkpt><trkpt lat="42.1553224" lon="4.5118861"><ele>0.0</ele><time>2026-04-30T15:29:29Z</time></trkpt><trkpt lat="42.1553582" lon="4.5119813"><ele>0.0</ele><time>2026-04-30T15:29:30Z</time></trkpt><trkpt lat="42.1553848" lon="4.5120806"><ele>0.0</ele><time>2026-04-30T15:29:31Z</time></trkpt><trkpt lat="42.1554168" lon="4.512179"><ele>0.0</ele><time>2026-04-30T15:29:32Z</time></trkpt><trkpt lat="42.1554509" lon="4.5122803"><ele>0.0</ele><time>2026-04-30T15:29:32.999Z</time></trkpt><trkpt lat="42.155496" lon="4.5123834"><ele>0.0</ele><time>2026-04-30T15:29:34Z</time></trkpt><trkpt lat="42.1555341" lon="4.5124882"><ele>0.0</ele><time>2026-04-30T15:29:35Z</time></trkpt><trkpt lat="42.1555709" lon="4.5125905"><ele>0.0</ele><time>2026-04-30T15:29:36Z</time></trkpt><trkpt lat="42.1556035" lon="4.5126892"><ele>0.0</ele><time>2026-04-30T15:29:36.999Z</time></trkpt><trkpt lat="42.1556332" lon="4.5127878"><ele>0.0</ele><time>2026-04-30T15:29:38Z</time></trkpt><trkpt lat="42.1556618" lon="4.5128857"><ele>0.0</ele><time>2026-04-30T15:29:38.999Z</time></trkpt><trkpt lat="42.1556973" lon="4.5129871"><ele>0.0</ele><time>2026-04-30T15:29:39.999Z</time></trkpt><trkpt lat="42.1557324" lon="4.5130944"><ele>0.0</ele><time>2026-04-30T15:29:40.999Z</time></trkpt><trkpt lat="42.1557589" lon="4.5132029"><ele>0.0</ele><time>2026-04-30T15:29:41.999Z</time></trkpt><trkpt lat="42.1557834" lon="4.5133136"><ele>0.0</ele><time>2026-04-30T15:29:42.999Z</time></trkpt><trkpt lat="42.1558099" lon="4.5134227"><ele>0.0</ele><time>2026-04-30T15:29:43.999Z</time></trkpt><trkpt lat="42.1558467" lon="4.5135352"><ele>0.0</ele><time>2026-04-30T15:29:44.999Z</time></trkpt><trkpt lat="42.1559105" lon="4.5137536"><ele>0.0</ele><time>2026-04-30T15:29:47Z</time></trkpt><trkpt lat="42.1559436" lon="4.5138596"><ele>0.0</ele><time>2026-04-30T15:29:48Z</time></trkpt><trkpt lat="42.1559646" lon="4.513965"><ele>0.0</ele><time>2026-04-30T15:29:49Z</time></trkpt><trkpt lat="42.1559911" lon="4.5140726"><ele>0.0</ele><time>2026-04-30T15:29:50Z</time></trkpt><trkpt lat="42.1560311" lon="4.5141782"><ele>0.0</ele><time>2026-04-30T15:29:51Z</time></trkpt><trkpt lat="42.1560702" lon="4.5142872"><ele>0.0</ele><time>2026-04-30T15:29:51.999Z</time></trkpt><trkpt lat="42.1561049" lon="4.5143949"><ele>0.0</ele><time>2026-04-30T15:29:53Z</time></trkpt><trkpt lat="42.1561449" lon="4.5145041"><ele>0.0</ele><time>2026-04-30T15:29:53.999Z</time></trkpt><trkpt lat="42.1561797" lon="4.5146124"><ele>0.0</ele><time>2026-04-30T15:29:55Z</time></trkpt><trkpt lat="42.1562145" lon="4.5147168"><ele>0.0</ele><time>2026-04-30T15:29:56Z</time></trkpt><trkpt lat="42.1562503" lon="4.5148172"><ele>0.0</ele><time>2026-04-30T15:29:57Z</time></trkpt><trkpt lat="42.1562893" lon="4.5149185"><ele>0.0</ele><time>2026-04-30T15:29:57.999Z</time></trkpt><trkpt lat="42.1563269" lon="4.5150174"><ele>0.0</ele><time>2026-04-30T15:29:59Z</time></trkpt><trkpt lat="42.1563624" lon="4.5151188"><ele>0.0</ele><time>2026-04-30T15:29:59.999Z</time></trkpt><trkpt lat="42.1564727" lon="4.515435"><ele>0.0</ele><time>2026-04-30T15:30:03Z</time></trkpt><trkpt lat="42.1565063" lon="4.5155371"><ele>0.0</ele><time>2026-04-30T15:30:03.999Z</time></trkpt><trkpt lat="42.1565369" lon="4.5156402"><ele>0.0</ele><time>2026-04-30T15:30:04.999Z</time></trkpt><trkpt lat="42.1565679" lon="4.5157506"><ele>0.0</ele><time>2026-04-30T15:30:05.999Z</time></trkpt><trkpt lat="42.1566385" lon="4.5159708"><ele>0.0</ele><time>2026-04-30T15:30:07.999Z</time></trkpt><trkpt lat="42.1566778" lon="4.5160779"><ele>0.0</ele><time>2026-04-30T15:30:09Z</time></trkpt><trkpt lat="42.1567152" lon="4.5161787"><ele>0.0</ele><time>2026-04-30T15:30:09.999Z</time></trkpt><trkpt lat="42.1567532" lon="4.5162873"><ele>0.0</ele><time>2026-04-30T15:30:10.999Z</time></trkpt><trkpt lat="42.1567877" lon="4.5163913"><ele>0.0</ele><time>2026-04-30T15:30:12Z</time></trkpt><trkpt lat="42.156821" lon="4.5165006"><ele>0.0</ele><time>2026-04-30T15:30:12.999Z</time></trkpt><trkpt lat="42.1568518" lon="4.5166077"><ele>0.0</ele><time>2026-04-30T15:30:14Z</time></trkpt><trkpt lat="42.156887" lon="4.5167127"><ele>0.0</ele><time>2026-04-30T15:30:15Z</time></trkpt><trkpt lat="42.1569221" lon="4.5168152"><ele>0.0</ele><time>2026-04-30T15:30:15.999Z</time></trkpt><trkpt lat="42.1569587" lon="4.5169128"><ele>0.0</ele><time>2026-04-30T15:30:16.999Z</time></trkpt><trkpt lat="42.1570035" lon="4.5170105"><ele>0.0</ele><time>2026-04-30T15:30:17.999Z</time></trkpt><trkpt lat="42.1570432" lon="4.517115"><ele>0.0</ele><time>2026-04-30T15:30:19Z</time></trkpt><trkpt lat="42.1570818" lon="4.5172212"><ele>0.0</ele><time>2026-04-30T15:30:19.999Z</time></trkpt><trkpt lat="42.1571212" lon="4.5173252"><ele>0.0</ele><time>2026-04-30T15:30:20.999Z</time></trkpt><trkpt lat="42.15716" lon="4.5174313"><ele>0.0</ele><time>2026-04-30T15:30:21.999Z</time></trkpt><trkpt lat="42.1571895" lon="4.5175379"><ele>0.0</ele><time>2026-04-30T15:30:22.999Z</time></trkpt><trkpt lat="42.157222" lon="4.5176402"><ele>0.0</ele><time>2026-04-30T15:30:23.999Z</time></trkpt><trkpt lat="42.1572536" lon="4.5177409"><ele>0.0</ele><time>2026-04-30T15:30:24.999Z</time></trkpt><trkpt lat="42.1572955" lon="4.5178453"><ele>0.0</ele><time>2026-04-30T15:30:26Z</time></trkpt><trkpt lat="42.1573347" lon="4.51795"><ele>0.0</ele><time>2026-04-30T15:30:26.999Z</time></trkpt><trkpt lat="42.1574078" lon="4.518152"><ele>0.0</ele><time>2026-04-30T15:30:28.999Z</time></trkpt><trkpt lat="42.1574469" lon="4.5182548"><ele>0.0</ele><time>2026-04-30T15:30:29.999Z</time></trkpt><trkpt lat="42.1574884" lon="4.5183562"><ele>0.0</ele><time>2026-04-30T15:30:31Z</time></trkpt><trkpt lat="42.1575316" lon="4.5184594"><ele>0.0</ele><time>2026-04-30T15:30:31.999Z</time></trkpt><trkpt lat="42.1575739" lon="4.5185569"><ele>0.0</ele><time>2026-04-30T15:30:32.999Z</time></trkpt><trkpt lat="42.1576575" lon="4.5187545"><ele>0.0</ele><time>2026-04-30T15:30:34.999Z</time></trkpt><trkpt lat="42.1576835" lon="4.5188652"><ele>0.0</ele><time>2026-04-30T15:30:35.999Z</time></trkpt><trkpt lat="42.1577137" lon="4.5189643"><ele>0.0</ele><time>2026-04-30T15:30:37Z</time></trkpt><trkpt lat="42.1577493" lon="4.5190698"><ele>0.0</ele><time>2026-04-30T15:30:38Z</time></trkpt><trkpt lat="42.1577755" lon="4.5191877"><ele>0.0</ele><time>2026-04-30T15:30:39Z</time></trkpt><trkpt lat="42.1578037" lon="4.5192959"><ele>0.0</ele><time>2026-04-30T15:30:40Z</time></trkpt><trkpt lat="42.1578359" lon="4.5193998"><ele>0.0</ele><time>2026-04-30T15:30:41Z</time></trkpt><trkpt lat="42.1578673" lon="4.5195034"><ele>0.0</ele><time>2026-04-30T15:30:41.999Z</time></trkpt><trkpt lat="42.1578959" lon="4.5196165"><ele>0.0</ele><time>2026-04-30T15:30:43Z</time></trkpt><trkpt lat="42.1579268" lon="4.5197286"><ele>0.0</ele><time>2026-04-30T15:30:43.999Z</time></trkpt><trkpt lat="42.1579567" lon="4.5198376"><ele>0.0</ele><time>2026-04-30T15:30:44.999Z</time></trkpt><trkpt lat="42.1579875" lon="4.5199487"><ele>0.0</ele><time>2026-04-30T15:30:45.999Z</time></trkpt><trkpt lat="42.1580178" lon="4.5200587"><ele>0.0</ele><time>2026-04-30T15:30:46.999Z</time></trkpt><trkpt lat="42.1580593" lon="4.5201589"><ele>0.0</ele><time>2026-04-30T15:30:48Z</time></trkpt><trkpt lat="42.1581212" lon="4.5203699"><ele>0.0</ele><time>2026-04-30T15:30:50Z</time></trkpt><trkpt lat="42.1581583" lon="4.5204804"><ele>0.0</ele><time>2026-04-30T15:30:51Z</time></trkpt><trkpt lat="42.1582105" lon="4.5205873"><ele>0.0</ele><time>2026-04-30T15:30:51.999Z</time></trkpt><trkpt lat="42.1582398" lon="4.5207017"><ele>0.0</ele><time>2026-04-30T15:30:53Z</time></trkpt><trkpt lat="42.1582578" lon="4.5208163"><ele>0.0</ele><time>2026-04-30T15:30:53.999Z</time></trkpt><trkpt lat="42.1582892" lon="4.5209302"><ele>0.0</ele><time>2026-04-30T15:30:54.999Z</time></trkpt><trkpt lat="42.1583213" lon="4.5210388"><ele>0.0</ele><time>2026-04-30T15:30:56Z</time></trkpt><trkpt lat="42.1583484" lon="4.5211428"><ele>0.0</ele><time>2026-04-30T15:30:57Z</time></trkpt><trkpt lat="42.1583742" lon="4.5212454"><ele>0.0</ele><time>2026-04-30T15:30:58Z</time></trkpt><trkpt lat="42.1583945" lon="4.5213531"><ele>0.0</ele><time>2026-04-30T15:30:58.999Z</time></trkpt><trkpt lat="42.158438" lon="4.5214504"><ele>0.0</ele><time>2026-04-30T15:30:59.999Z</time></trkpt><trkpt lat="42.1584757" lon="4.5215485"><ele>0.0</ele><time>2026-04-30T15:31:00.999Z</time></trkpt><trkpt lat="42.1585156" lon="4.521651"><ele>0.0</ele><time>2026-04-30T15:31:01.999Z</time></trkpt><trkpt lat="42.1585591" lon="4.5217529"><ele>0.0</ele><time>2026-04-30T15:31:02.999Z</time></trkpt><trkpt lat="42.1586005" lon="4.5218543"><ele>0.0</ele><time>2026-04-30T15:31:03.999Z</time></trkpt><trkpt lat="42.1586478" lon="4.5219585"><ele>0.0</ele><time>2026-04-30T15:31:04.999Z</time></trkpt><trkpt lat="42.1586852" lon="4.5220617"><ele>0.0</ele><time>2026-04-30T15:31:05.999Z</time></trkpt><trkpt lat="42.1587654" lon="4.5222702"><ele>0.0</ele><time>2026-04-30T15:31:07.999Z</time></trkpt><trkpt lat="42.1588055" lon="4.5223751"><ele>0.0</ele><time>2026-04-30T15:31:08.999Z</time></trkpt><trkpt lat="42.1589087" lon="4.5226871"><ele>0.0</ele><time>2026-04-30T15:31:11.999Z</time></trkpt><trkpt lat="42.1589408" lon="4.5227875"><ele>0.0</ele><time>2026-04-30T15:31:12.999Z</time></trkpt><trkpt lat="42.1589767" lon="4.5228931"><ele>0.0</ele><time>2026-04-30T15:31:13.999Z</time></trkpt><trkpt lat="42.1590105" lon="4.5229914"><ele>0.0</ele><time>2026-04-30T15:31:14.999Z</time></trkpt><trkpt lat="42.1590407" lon="4.5230965"><ele>0.0</ele><time>2026-04-30T15:31:15.999Z</time></trkpt><trkpt lat="42.1590729" lon="4.5232"><ele>0.0</ele><time>2026-04-30T15:31:16.999Z</time></trkpt><trkpt lat="42.1591089" lon="4.5233065"><ele>0.0</ele><time>2026-04-30T15:31:17.998Z</time></trkpt><trkpt lat="42.1591483" lon="4.5234173"><ele>0.0</ele><time>2026-04-30T15:31:18.999Z</time></trkpt><trkpt lat="42.159217" lon="4.5236352"><ele>0.0</ele><time>2026-04-30T15:31:20.999Z</time></trkpt><trkpt lat="42.1592428" lon="4.5237406"><ele>0.0</ele><time>2026-04-30T15:31:21.999Z</time></trkpt><trkpt lat="42.1592682" lon="4.5238499"><ele>0.0</ele><time>2026-04-30T15:31:22.999Z</time></trkpt><trkpt lat="42.1592993" lon="4.5239609"><ele>0.0</ele><time>2026-04-30T15:31:23.998Z</time></trkpt><trkpt lat="42.1593346" lon="4.5240722"><ele>0.0</ele><time>2026-04-30T15:31:24.999Z</time></trkpt><trkpt lat="42.1593779" lon="4.5241796"><ele>0.0</ele><time>2026-04-30T15:31:25.998Z</time></trkpt><trkpt lat="42.1594154" lon="4.5242822"><ele>0.0</ele><time>2026-04-30T15:31:26.998Z</time></trkpt><trkpt lat="42.1594496" lon="4.5243839"><ele>0.0</ele><time>2026-04-30T15:31:27.998Z</time></trkpt><trkpt lat="42.1594914" lon="4.5244885"><ele>0.0</ele><time>2026-04-30T15:31:28.999Z</time></trkpt><trkpt lat="42.1595364" lon="4.5245934"><ele>0.0</ele><time>2026-04-30T15:31:29.999Z</time></trkpt><trkpt lat="42.1596152" lon="4.5247884"><ele>0.0</ele><time>2026-04-30T15:31:31.998Z</time></trkpt><trkpt lat="42.1596539" lon="4.5248864"><ele>0.0</ele><time>2026-04-30T15:31:32.998Z</time></trkpt><trkpt lat="42.1596922" lon="4.5249873"><ele>0.0</ele><time>2026-04-30T15:31:33.999Z</time></trkpt><trkpt lat="42.1597237" lon="4.5250945"><ele>0.0</ele><time>2026-04-30T15:31:34.999Z</time></trkpt><trkpt lat="42.1597553" lon="4.5252012"><ele>0.0</ele><time>2026-04-30T15:31:35.998Z</time></trkpt><trkpt lat="42.1597907" lon="4.5253036"><ele>0.0</ele><time>2026-04-30T15:31:36.999Z</time></trkpt><trkpt lat="42.159826" lon="4.5254025"><ele>0.0</ele><time>2026-04-30T15:31:37.999Z</time></trkpt><trkpt lat="42.1599242" lon="4.5257217"><ele>0.0</ele><time>2026-04-30T15:31:40.999Z</time></trkpt><trkpt lat="42.1599548" lon="4.5258293"><ele>0.0</ele><time>2026-04-30T15:31:41.999Z</time></trkpt><trkpt lat="42.1599915" lon="4.525939"><ele>0.0</ele><time>2026-04-30T15:31:42.998Z</time></trkpt><trkpt lat="42.1600191" lon="4.5260379"><ele>0.0</ele><time>2026-04-30T15:31:43.998Z</time></trkpt><trkpt lat="42.1600483" lon="4.5261429"><ele>0.0</ele><time>2026-04-30T15:31:44.999Z</time></trkpt><trkpt lat="42.1600702" lon="4.5262483"><ele>0.0</ele><time>2026-04-30T15:31:45.998Z</time></trkpt><trkpt lat="42.1601032" lon="4.5263573"><ele>0.0</ele><time>2026-04-30T15:31:46.999Z</time></trkpt><trkpt lat="42.1601621" lon="4.5265825"><ele>0.0</ele><time>2026-04-30T15:31:48.998Z</time></trkpt><trkpt lat="42.1601958" lon="4.5266942"><ele>0.0</ele><time>2026-04-30T15:31:49.998Z</time></trkpt><trkpt lat="42.1602288" lon="4.526797"><ele>0.0</ele><time>2026-04-30T15:31:50.999Z</time></trkpt><trkpt lat="42.1603018" lon="4.5270114"><ele>0.0</ele><time>2026-04-30T15:31:52.999Z</time></trkpt><trkpt lat="42.1603405" lon="4.5271126"><ele>0.0</ele><time>2026-04-30T15:31:53.998Z</time></trkpt><trkpt lat="42.1603819" lon="4.5272181"><ele>0.0</ele><time>2026-04-30T15:31:54.998Z</time></trkpt><trkpt lat="42.160418" lon="4.5273233"><ele>0.0</ele><time>2026-04-30T15:31:55.998Z</time></trkpt><trkpt lat="42.160454" lon="4.5274271"><ele>0.0</ele><time>2026-04-30T15:31:56.998Z</time></trkpt><trkpt lat="42.16052" lon="4.5276302"><ele>0.0</ele><time>2026-04-30T15:31:58.998Z</time></trkpt><trkpt lat="42.1605503" lon="4.5277311"><ele>0.0</ele><time>2026-04-30T15:31:59.999Z</time></trkpt><trkpt lat="42.1605797" lon="4.5278341"><ele>0.0</ele><time>2026-04-30T15:32:00.998Z</time></trkpt><trkpt lat="42.1606214" lon="4.5280564"><ele>0.0</ele><time>2026-04-30T15:32:02.998Z</time></trkpt><trkpt lat="42.160643" lon="4.5281616"><ele>0.0</ele><time>2026-04-30T15:32:03.998Z</time></trkpt><trkpt lat="42.1606742" lon="4.5282709"><ele>0.0</ele><time>2026-04-30T15:32:04.998Z</time></trkpt><trkpt lat="42.1607141" lon="4.5283761"><ele>0.0</ele><time>2026-04-30T15:32:05.998Z</time></trkpt><trkpt lat="42.1607662" lon="4.5284707"><ele>0.0</ele><time>2026-04-30T15:32:06.999Z</time></trkpt><trkpt lat="42.1608164" lon="4.5285661"><ele>0.0</ele><time>2026-04-30T15:32:07.999Z</time></trkpt><trkpt lat="42.1608618" lon="4.5286762"><ele>0.0</ele><time>2026-04-30T15:32:08.998Z</time></trkpt><trkpt lat="42.1609047" lon="4.5287876"><ele>0.0</ele><time>2026-04-30T15:32:09.999Z</time></trkpt><trkpt lat="42.1609538" lon="4.5288954"><ele>0.0</ele><time>2026-04-30T15:32:10.999Z</time></trkpt><trkpt lat="42.1610178" lon="4.5291019"><ele>0.0</ele><time>2026-04-30T15:32:12.999Z</time></trkpt><trkpt lat="42.1610535" lon="4.529202"><ele>0.0</ele><time>2026-04-30T15:32:13.999Z</time></trkpt><trkpt lat="42.1611201" lon="4.5294012"><ele>0.0</ele><time>2026-04-30T15:32:15.999Z</time></trkpt><trkpt lat="42.1611538" lon="4.5295047"><ele>0.0</ele><time>2026-04-30T15:32:16.999Z</time></trkpt><trkpt lat="42.161231" lon="4.5297152"><ele>0.0</ele><time>2026-04-30T15:32:18.999Z</time></trkpt><trkpt lat="42.1612737" lon="4.5298215"><ele>0.0</ele><time>2026-04-30T15:32:19.998Z</time></trkpt><trkpt lat="42.1613122" lon="4.5299264"><ele>0.0</ele><time>2026-04-30T15:32:20.999Z</time></trkpt><trkpt lat="42.161349" lon="4.5300315"><ele>0.0</ele><time>2026-04-30T15:32:21.999Z</time></trkpt><trkpt lat="42.1613855" lon="4.5301364"><ele>0.0</ele><time>2026-04-30T15:32:22.998Z</time></trkpt><trkpt lat="42.1614164" lon="4.5302384"><ele>0.0</ele><time>2026-04-30T15:32:23.999Z</time></trkpt><trkpt lat="42.1614458" lon="4.5303476"><ele>0.0</ele><time>2026-04-30T15:32:24.998Z</time></trkpt><trkpt lat="42.1614737" lon="4.53045"><ele>0.0</ele><time>2026-04-30T15:32:25.999Z</time></trkpt><trkpt lat="42.161504" lon="4.5305548"><ele>0.0</ele><time>2026-04-30T15:32:26.998Z</time></trkpt><trkpt lat="42.1615338" lon="4.5306583"><ele>0.0</ele><time>2026-04-30T15:32:27.998Z</time></trkpt><trkpt lat="42.1615774" lon="4.5307631"><ele>0.0</ele><time>2026-04-30T15:32:28.998Z</time></trkpt><trkpt lat="42.1616108" lon="4.5308654"><ele>0.0</ele><time>2026-04-30T15:32:29.999Z</time></trkpt><trkpt lat="42.1616381" lon="4.5309747"><ele>0.0</ele><time>2026-04-30T15:32:30.999Z</time></trkpt><trkpt lat="42.1616962" lon="4.5311793"><ele>0.0</ele><time>2026-04-30T15:32:32.998Z</time></trkpt><trkpt lat="42.1617242" lon="4.5312833"><ele>0.0</ele><time>2026-04-30T15:32:33.998Z</time></trkpt><trkpt lat="42.1617602" lon="4.5313964"><ele>0.0</ele><time>2026-04-30T15:32:34.998Z</time></trkpt><trkpt lat="42.1617947" lon="4.5315016"><ele>0.0</ele><time>2026-04-30T15:32:35.998Z</time></trkpt><trkpt lat="42.1618773" lon="4.5317168"><ele>0.0</ele><time>2026-04-30T15:32:37.999Z</time></trkpt><trkpt lat="42.1619183" lon="4.5318214"><ele>0.0</ele><time>2026-04-30T15:32:38.999Z</time></trkpt><trkpt lat="42.1619601" lon="4.5319263"><ele>0.0</ele><time>2026-04-30T15:32:39.998Z</time></trkpt><trkpt lat="42.162002" lon="4.5320255"><ele>0.0</ele><time>2026-04-30T15:32:40.998Z</time></trkpt><trkpt lat="42.1620416" lon="4.5321326"><ele>0.0</ele><time>2026-04-30T15:32:41.998Z</time></trkpt><trkpt lat="42.1620886" lon="4.5322367"><ele>0.0</ele><time>2026-04-30T15:32:42.999Z</time></trkpt><trkpt lat="42.1621219" lon="4.5323387"><ele>0.0</ele><time>2026-04-30T15:32:43.998Z</time></trkpt><trkpt lat="42.1622235" lon="4.5326611"><ele>0.0</ele><time>2026-04-30T15:32:46.998Z</time></trkpt><trkpt lat="42.1622567" lon="4.5327726"><ele>0.0</ele><time>2026-04-30T15:32:47.999Z</time></trkpt><trkpt lat="42.1622901" lon="4.5328773"><ele>0.0</ele><time>2026-04-30T15:32:48.998Z</time></trkpt><trkpt lat="42.162324" lon="4.5329802"><ele>0.0</ele><time>2026-04-30T15:32:49.999Z</time></trkpt><trkpt lat="42.1623565" lon="4.5330863"><ele>0.0</ele><time>2026-04-30T15:32:50.998Z</time></trkpt><trkpt lat="42.1623889" lon="4.5331928"><ele>0.0</ele><time>2026-04-30T15:32:51.998Z</time></trkpt><trkpt lat="42.1624208" lon="4.5332997"><ele>0.0</ele><time>2026-04-30T15:32:52.998Z</time></trkpt><trkpt lat="42.1624432" lon="4.5334004"><ele>0.0</ele><time>2026-04-30T15:32:53.998Z</time></trkpt><trkpt lat="42.1624832" lon="4.5335049"><ele>0.0</ele><time>2026-04-30T15:32:54.999Z</time></trkpt><trkpt lat="42.1625168" lon="4.5336101"><ele>0.0</ele><time>2026-04-30T15:32:55.999Z</time></trkpt><trkpt lat="42.1625498" lon="4.5337149"><ele>0.0</ele><time>2026-04-30T15:32:56.999Z</time></trkpt><trkpt lat="42.1626209" lon="4.5339178"><ele>0.0</ele><time>2026-04-30T15:32:58.998Z</time></trkpt><trkpt lat="42.1626589" lon="4.5340189"><ele>0.0</ele><time>2026-04-30T15:32:59.999Z</time></trkpt><trkpt lat="42.1626943" lon="4.5341261"><ele>0.0</ele><time>2026-04-30T15:33:00.998Z</time></trkpt><trkpt lat="42.1627309" lon="4.5342317"><ele>0.0</ele><time>2026-04-30T15:33:01.998Z</time></trkpt><trkpt lat="42.162766" lon="4.5343308"><ele>0.0</ele><time>2026-04-30T15:33:02.999Z</time></trkpt><trkpt lat="42.162805" lon="4.5344362"><ele>0.0</ele><time>2026-04-30T15:33:03.999Z</time></trkpt><trkpt lat="42.1628435" lon="4.5345415"><ele>0.0</ele><time>2026-04-30T15:33:04.998Z</time></trkpt><trkpt lat="42.1628819" lon="4.5346467"><ele>0.0</ele><time>2026-04-30T15:33:05.998Z</time></trkpt><trkpt lat="42.1629155" lon="4.5347475"><ele>0.0</ele><time>2026-04-30T15:33:06.998Z</time></trkpt><trkpt lat="42.16295" lon="4.5348503"><ele>0.0</ele><time>2026-04-30T15:33:07.999Z</time></trkpt><trkpt lat="42.1629835" lon="4.5349536"><ele>0.0</ele><time>2026-04-30T15:33:08.999Z</time></trkpt><trkpt lat="42.1630144" lon="4.535051"><ele>0.0</ele><time>2026-04-30T15:33:09.998Z</time></trkpt><trkpt lat="42.1630458" lon="4.535155"><ele>0.0</ele><time>2026-04-30T15:33:10.998Z</time></trkpt><trkpt lat="42.1630777" lon="4.535264"><ele>0.0</ele><time>2026-04-30T15:33:11.998Z</time></trkpt><trkpt lat="42.1631088" lon="4.5353668"><ele>0.0</ele><time>2026-04-30T15:33:12.999Z</time></trkpt><trkpt lat="42.1631345" lon="4.5354642"><ele>0.0</ele><time>2026-04-30T15:33:13.999Z</time></trkpt><trkpt lat="42.163167" lon="4.5355669"><ele>0.0</ele><time>2026-04-30T15:33:14.998Z</time></trkpt><trkpt lat="42.1632062" lon="4.535676"><ele>0.0</ele><time>2026-04-30T15:33:15.999Z</time></trkpt><trkpt lat="42.1632442" lon="4.5357788"><ele>0.0</ele><time>2026-04-30T15:33:16.999Z</time></trkpt><trkpt lat="42.1632815" lon="4.5358819"><ele>0.0</ele><time>2026-04-30T15:33:17.999Z</time></trkpt><trkpt lat="42.16341" lon="4.5363179"><ele>0.0</ele><time>2026-04-30T15:33:21.999Z</time></trkpt><trkpt lat="42.1634451" lon="4.536426"><ele>0.0</ele><time>2026-04-30T15:33:22.999Z</time></trkpt><trkpt lat="42.1634816" lon="4.5365316"><ele>0.0</ele><time>2026-04-30T15:33:23.998Z</time></trkpt><trkpt lat="42.163518" lon="4.536638"><ele>0.0</ele><time>2026-04-30T15:33:24.999Z</time></trkpt><trkpt lat="42.1635663" lon="4.5367402"><ele>0.0</ele><time>2026-04-30T15:33:25.998Z</time></trkpt><trkpt lat="42.1636065" lon="4.5368421"><ele>0.0</ele><time>2026-04-30T15:33:26.999Z</time></trkpt><trkpt lat="42.1636458" lon="4.5369424"><ele>0.0</ele><time>2026-04-30T15:33:27.999Z</time></trkpt><trkpt lat="42.1636802" lon="4.5370406"><ele>0.0</ele><time>2026-04-30T15:33:28.998Z</time></trkpt><trkpt lat="42.1637115" lon="4.5371402"><ele>0.0</ele><time>2026-04-30T15:33:29.999Z</time></trkpt><trkpt lat="42.1637421" lon="4.5372434"><ele>0.0</ele><time>2026-04-30T15:33:30.998Z</time></trkpt><trkpt lat="42.1637723" lon="4.5373582"><ele>0.0</ele><time>2026-04-30T15:33:31.998Z</time></trkpt><trkpt lat="42.1638053" lon="4.5374701"><ele>0.0</ele><time>2026-04-30T15:33:32.999Z</time></trkpt><trkpt lat="42.1638472" lon="4.537572"><ele>0.0</ele><time>2026-04-30T15:33:33.998Z</time></trkpt><trkpt lat="42.1638867" lon="4.5376763"><ele>0.0</ele><time>2026-04-30T15:33:34.998Z</time></trkpt><trkpt lat="42.1639232" lon="4.5377743"><ele>0.0</ele><time>2026-04-30T15:33:35.999Z</time></trkpt><trkpt lat="42.1639568" lon="4.5378794"><ele>0.0</ele><time>2026-04-30T15:33:36.999Z</time></trkpt><trkpt lat="42.1639928" lon="4.5379789"><ele>0.0</ele><time>2026-04-30T15:33:37.998Z</time></trkpt><trkpt lat="42.1640238" lon="4.5380873"><ele>0.0</ele><time>2026-04-30T15:33:38.999Z</time></trkpt><trkpt lat="42.1640638" lon="4.5381882"><ele>0.0</ele><time>2026-04-30T15:33:39.999Z</time></trkpt><trkpt lat="42.1640922" lon="4.5382971"><ele>0.0</ele><time>2026-04-30T15:33:40.999Z</time></trkpt><trkpt lat="42.1641611" lon="4.5385097"><ele>0.0</ele><time>2026-04-30T15:33:42.998Z</time></trkpt><trkpt lat="42.1642001" lon="4.5386149"><ele>0.0</ele><time>2026-04-30T15:33:43.998Z</time></trkpt><trkpt lat="42.1642381" lon="4.5387195"><ele>0.0</ele><time>2026-04-30T15:33:44.998Z</time></trkpt><trkpt lat="42.1642728" lon="4.5388207"><ele>0.0</ele><time>2026-04-30T15:33:45.998Z</time></trkpt><trkpt lat="42.1643077" lon="4.5389266"><ele>0.0</ele><time>2026-04-30T15:33:46.999Z</time></trkpt><trkpt lat="42.1643376" lon="4.5390322"><ele>0.0</ele><time>2026-04-30T15:33:47.998Z</time></trkpt><trkpt lat="42.1643816" lon="4.5391332"><ele>0.0</ele><time>2026-04-30T15:33:48.998Z</time></trkpt><trkpt lat="42.1644243" lon="4.5392398"><ele>0.0</ele><time>2026-04-30T15:33:49.999Z</time></trkpt><trkpt lat="42.1644632" lon="4.5393423"><ele>0.0</ele><time>2026-04-30T15:33:50.998Z</time></trkpt><trkpt lat="42.1645218" lon="4.5395446"><ele>0.0</ele><time>2026-04-30T15:33:52.998Z</time></trkpt><trkpt lat="42.16455" lon="4.5396456"><ele>0.0</ele><time>2026-04-30T15:33:53.999Z</time></trkpt><trkpt lat="42.1645738" lon="4.5397542"><ele>0.0</ele><time>2026-04-30T15:33:54.998Z</time></trkpt><trkpt lat="42.1646086" lon="4.5398612"><ele>0.0</ele><time>2026-04-30T15:33:55.999Z</time></trkpt><trkpt lat="42.1646383" lon="4.5399723"><ele>0.0</ele><time>2026-04-30T15:33:56.998Z</time></trkpt><trkpt lat="42.1646766" lon="4.5400784"><ele>0.0</ele><time>2026-04-30T15:33:57.998Z</time></trkpt><trkpt lat="42.1647125" lon="4.540182"><ele>0.0</ele><time>2026-04-30T15:33:58.998Z</time></trkpt><trkpt lat="42.1647478" lon="4.5402852"><ele>0.0</ele><time>2026-04-30T15:33:59.998Z</time></trkpt><trkpt lat="42.1647779" lon="4.5403897"><ele>0.0</ele><time>2026-04-30T15:34:00.998Z</time></trkpt><trkpt lat="42.164815" lon="4.5404947"><ele>0.0</ele><time>2026-04-30T15:34:01.999Z</time></trkpt><trkpt lat="42.1648943" lon="4.5407127"><ele>0.0</ele><time>2026-04-30T15:34:03.999Z</time></trkpt><trkpt lat="42.1649324" lon="4.5408183"><ele>0.0</ele><time>2026-04-30T15:34:04.998Z</time></trkpt><trkpt lat="42.1649596" lon="4.5409263"><ele>0.0</ele><time>2026-04-30T15:34:05.998Z</time></trkpt><trkpt lat="42.1649926" lon="4.5410385"><ele>0.0</ele><time>2026-04-30T15:34:06.999Z</time></trkpt><trkpt lat="42.1650237" lon="4.5411456"><ele>0.0</ele><time>2026-04-30T15:34:07.999Z</time></trkpt><trkpt lat="42.1650513" lon="4.5412538"><ele>0.0</ele><time>2026-04-30T15:34:08.998Z</time></trkpt><trkpt lat="42.1650923" lon="4.541359"><ele>0.0</ele><time>2026-04-30T15:34:09.999Z</time></trkpt><trkpt lat="42.1651299" lon="4.5414636"><ele>0.0</ele><time>2026-04-30T15:34:10.998Z</time></trkpt><trkpt lat="42.1651687" lon="4.5415656"><ele>0.0</ele><time>2026-04-30T15:34:11.999Z</time></trkpt><trkpt lat="42.1651999" lon="4.541667"><ele>0.0</ele><time>2026-04-30T15:34:12.998Z</time></trkpt><trkpt lat="42.1652308" lon="4.5417716"><ele>0.0</ele><time>2026-04-30T15:34:13.999Z</time></trkpt><trkpt lat="42.1652693" lon="4.541878"><ele>0.0</ele><time>2026-04-30T15:34:14.999Z</time></trkpt><trkpt lat="42.1652994" lon="4.5419834"><ele>0.0</ele><time>2026-04-30T15:34:15.998Z</time></trkpt><trkpt lat="42.1653297" lon="4.5420898"><ele>0.0</ele><time>2026-04-30T15:34:16.998Z</time></trkpt><trkpt lat="42.1653665" lon="4.5421905"><ele>0.0</ele><time>2026-04-30T15:34:17.998Z</time></trkpt><trkpt lat="42.1654034" lon="4.542292"><ele>0.0</ele><time>2026-04-30T15:34:18.998Z</time></trkpt><trkpt lat="42.1654362" lon="4.5423967"><ele>0.0</ele><time>2026-04-30T15:34:19.998Z</time></trkpt><trkpt lat="42.1654751" lon="4.5425031"><ele>0.0</ele><time>2026-04-30T15:34:20.998Z</time></trkpt><trkpt lat="42.1655152" lon="4.542604"><ele>0.0</ele><time>2026-04-30T15:34:21.998Z</time></trkpt><trkpt lat="42.1655552" lon="4.5427069"><ele>0.0</ele><time>2026-04-30T15:34:22.998Z</time></trkpt><trkpt lat="42.1656308" lon="4.5429107"><ele>0.0</ele><time>2026-04-30T15:34:24.998Z</time></trkpt><trkpt lat="42.1657066" lon="4.543121"><ele>0.0</ele><time>2026-04-30T15:34:26.999Z</time></trkpt><trkpt lat="42.1657421" lon="4.5432208"><ele>0.0</ele><time>2026-04-30T15:34:27.998Z</time></trkpt><trkpt lat="42.1657802" lon="4.543325"><ele>0.0</ele><time>2026-04-30T15:34:28.999Z</time></trkpt><trkpt lat="42.1658188" lon="4.5434328"><ele>0.0</ele><time>2026-04-30T15:34:29.999Z</time></trkpt><trkpt lat="42.165852" lon="4.5435369"><ele>0.0</ele><time>2026-04-30T15:34:30.998Z</time></trkpt><trkpt lat="42.165884" lon="4.5436442"><ele>0.0</ele><time>2026-04-30T15:34:31.998Z</time></trkpt><trkpt lat="42.165922" lon="4.5437513"><ele>0.0</ele><time>2026-04-30T15:34:32.998Z</time></trkpt><trkpt lat="42.1659562" lon="4.543858"><ele>0.0</ele><time>2026-04-30T15:34:33.998Z</time></trkpt><trkpt lat="42.1659952" lon="4.5439648"><ele>0.0</ele><time>2026-04-30T15:34:34.998Z</time></trkpt><trkpt lat="42.1660307" lon="4.544067"><ele>0.0</ele><time>2026-04-30T15:34:35.999Z</time></trkpt><trkpt lat="42.1660653" lon="4.5441717"><ele>0.0</ele><time>2026-04-30T15:34:36.999Z</time></trkpt><trkpt lat="42.1661032" lon="4.5442779"><ele>0.0</ele><time>2026-04-30T15:34:37.998Z</time></trkpt><trkpt lat="42.1661359" lon="4.5443817"><ele>0.0</ele><time>2026-04-30T15:34:38.999Z</time></trkpt><trkpt lat="42.1661658" lon="4.5444822"><ele>0.0</ele><time>2026-04-30T15:34:39.998Z</time></trkpt><trkpt lat="42.1662005" lon="4.5445853"><ele>0.0</ele><time>2026-04-30T15:34:40.999Z</time></trkpt><trkpt lat="42.1662285" lon="4.5446914"><ele>0.0</ele><time>2026-04-30T15:34:41.998Z</time></trkpt><trkpt lat="42.1662452" lon="4.5447978"><ele>0.0</ele><time>2026-04-30T15:34:42.998Z</time></trkpt><trkpt lat="42.1662731" lon="4.5449086"><ele>0.0</ele><time>2026-04-30T15:34:43.998Z</time></trkpt><trkpt lat="42.1663021" lon="4.5450175"><ele>0.0</ele><time>2026-04-30T15:34:44.999Z</time></trkpt><trkpt lat="42.1663258" lon="4.5451247"><ele>0.0</ele><time>2026-04-30T15:34:45.999Z</time></trkpt><trkpt lat="42.1664152" lon="4.5454351"><ele>0.0</ele><time>2026-04-30T15:34:48.999Z</time></trkpt><trkpt lat="42.166444" lon="4.5455399"><ele>0.0</ele><time>2026-04-30T15:34:49.999Z</time></trkpt><trkpt lat="42.1664731" lon="4.5456467"><ele>0.0</ele><time>2026-04-30T15:34:50.999Z</time></trkpt><trkpt lat="42.166553" lon="4.5458648"><ele>0.0</ele><time>2026-04-30T15:34:52.998Z</time></trkpt><trkpt lat="42.1665979" lon="4.5459672"><ele>0.0</ele><time>2026-04-30T15:34:53.998Z</time></trkpt><trkpt lat="42.1666408" lon="4.5460732"><ele>0.0</ele><time>2026-04-30T15:34:54.999Z</time></trkpt><trkpt lat="42.1666873" lon="4.5461782"><ele>0.0</ele><time>2026-04-30T15:34:55.998Z</time></trkpt><trkpt lat="42.166795" lon="4.5464709"><ele>0.0</ele><time>2026-04-30T15:34:58.999Z</time></trkpt><trkpt lat="42.1668368" lon="4.5465748"><ele>0.0</ele><time>2026-04-30T15:34:59.998Z</time></trkpt><trkpt lat="42.1668788" lon="4.54668"><ele>0.0</ele><time>2026-04-30T15:35:00.999Z</time></trkpt><trkpt lat="42.1669122" lon="4.5467825"><ele>0.0</ele><time>2026-04-30T15:35:01.998Z</time></trkpt><trkpt lat="42.1669493" lon="4.5468809"><ele>0.0</ele><time>2026-04-30T15:35:02.998Z</time></trkpt><trkpt lat="42.166987" lon="4.5469849"><ele>0.0</ele><time>2026-04-30T15:35:03.999Z</time></trkpt><trkpt lat="42.1670213" lon="4.5470923"><ele>0.0</ele><time>2026-04-30T15:35:04.998Z</time></trkpt><trkpt lat="42.1670589" lon="4.547198"><ele>0.0</ele><time>2026-04-30T15:35:05.998Z</time></trkpt><trkpt lat="42.1670915" lon="4.5473017"><ele>0.0</ele><time>2026-04-30T15:35:06.999Z</time></trkpt><trkpt lat="42.1671522" lon="4.5475116"><ele>0.0</ele><time>2026-04-30T15:35:08.998Z</time></trkpt><trkpt lat="42.1671875" lon="4.5476195"><ele>0.0</ele><time>2026-04-30T15:35:09.998Z</time></trkpt><trkpt lat="42.1672183" lon="4.5477291"><ele>0.0</ele><time>2026-04-30T15:35:10.998Z</time></trkpt><trkpt lat="42.1672439" lon="4.5478333"><ele>0.0</ele><time>2026-04-30T15:35:11.999Z</time></trkpt><trkpt lat="42.1672698" lon="4.5479394"><ele>0.0</ele><time>2026-04-30T15:35:12.998Z</time></trkpt><trkpt lat="42.1673199" lon="4.5481587"><ele>0.0</ele><time>2026-04-30T15:35:14.998Z</time></trkpt><trkpt lat="42.1673492" lon="4.5482674"><ele>0.0</ele><time>2026-04-30T15:35:15.999Z</time></trkpt><trkpt lat="42.1673786" lon="4.5483785"><ele>0.0</ele><time>2026-04-30T15:35:16.998Z</time></trkpt><trkpt lat="42.1674159" lon="4.5484861"><ele>0.0</ele><time>2026-04-30T15:35:17.999Z</time></trkpt><trkpt lat="42.167456" lon="4.5485886"><ele>0.0</ele><time>2026-04-30T15:35:18.999Z</time></trkpt><trkpt lat="42.1674979" lon="4.5486878"><ele>0.0</ele><time>2026-04-30T15:35:19.998Z</time></trkpt><trkpt lat="42.1675296" lon="4.5487902"><ele>0.0</ele><time>2026-04-30T15:35:20.997Z</time></trkpt><trkpt lat="42.1675648" lon="4.5488989"><ele>0.0</ele><time>2026-04-30T15:35:21.997Z</time></trkpt><trkpt lat="42.1676125" lon="4.5490045"><ele>0.0</ele><time>2026-04-30T15:35:22.998Z</time></trkpt><trkpt lat="42.1676865" lon="4.5492161"><ele>0.0</ele><time>2026-04-30T15:35:24.998Z</time></trkpt><trkpt lat="42.1677189" lon="4.5493228"><ele>0.0</ele><time>2026-04-30T15:35:25.997Z</time></trkpt><trkpt lat="42.1677524" lon="4.549428"><ele>0.0</ele><time>2026-04-30T15:35:26.997Z</time></trkpt><trkpt lat="42.1677825" lon="4.5495332"><ele>0.0</ele><time>2026-04-30T15:35:27.998Z</time></trkpt><trkpt lat="42.1678411" lon="4.5497399"><ele>0.0</ele><time>2026-04-30T15:35:29.997Z</time></trkpt><trkpt lat="42.1679419" lon="4.5500483"><ele>0.0</ele><time>2026-04-30T15:35:32.997Z</time></trkpt><trkpt lat="42.1679789" lon="4.5501486"><ele>0.0</ele><time>2026-04-30T15:35:33.997Z</time></trkpt><trkpt lat="42.1680239" lon="4.5502518"><ele>0.0</ele><time>2026-04-30T15:35:34.997Z</time></trkpt><trkpt lat="42.168062" lon="4.5503525"><ele>0.0</ele><time>2026-04-30T15:35:35.997Z</time></trkpt><trkpt lat="42.1681009" lon="4.550458"><ele>0.0</ele><time>2026-04-30T15:35:36.997Z</time></trkpt><trkpt lat="42.1681349" lon="4.5505599"><ele>0.0</ele><time>2026-04-30T15:35:37.997Z</time></trkpt><trkpt lat="42.1681785" lon="4.5506632"><ele>0.0</ele><time>2026-04-30T15:35:38.997Z</time></trkpt><trkpt lat="42.1682232" lon="4.5507713"><ele>0.0</ele><time>2026-04-30T15:35:39.998Z</time></trkpt><trkpt lat="42.1682653" lon="4.5508778"><ele>0.0</ele><time>2026-04-30T15:35:40.998Z</time></trkpt><trkpt lat="42.1683" lon="4.5509832"><ele>0.0</ele><time>2026-04-30T15:35:41.997Z</time></trkpt><trkpt lat="42.1683335" lon="4.5510868"><ele>0.0</ele><time>2026-04-30T15:35:42.998Z</time></trkpt><trkpt lat="42.168371" lon="4.5511955"><ele>0.0</ele><time>2026-04-30T15:35:43.998Z</time></trkpt><trkpt lat="42.1684035" lon="4.5512954"><ele>0.0</ele><time>2026-04-30T15:35:44.997Z</time></trkpt><trkpt lat="42.1684424" lon="4.5513925"><ele>0.0</ele><time>2026-04-30T15:35:45.997Z</time></trkpt><trkpt lat="42.1684814" lon="4.5514938"><ele>0.0</ele><time>2026-04-30T15:35:46.997Z</time></trkpt><trkpt lat="42.168521" lon="4.5515968"><ele>0.0</ele><time>2026-04-30T15:35:47.998Z</time></trkpt><trkpt lat="42.1685565" lon="4.5516974"><ele>0.0</ele><time>2026-04-30T15:35:48.997Z</time></trkpt><trkpt lat="42.1686344" lon="4.5518974"><ele>0.0</ele><time>2026-04-30T15:35:50.998Z</time></trkpt><trkpt lat="42.1686762" lon="4.551996"><ele>0.0</ele><time>2026-04-30T15:35:51.997Z</time></trkpt><trkpt lat="42.1687154" lon="4.5520945"><ele>0.0</ele><time>2026-04-30T15:35:52.997Z</time></trkpt><trkpt lat="42.1687465" lon="4.5521956"><ele>0.0</ele><time>2026-04-30T15:35:53.998Z</time></trkpt><trkpt lat="42.1687807" lon="4.5523"><ele>0.0</ele><time>2026-04-30T15:35:54.997Z</time></trkpt><trkpt lat="42.1688196" lon="4.552408"><ele>0.0</ele><time>2026-04-30T15:35:55.997Z</time></trkpt><trkpt lat="42.1688538" lon="4.5525149"><ele>0.0</ele><time>2026-04-30T15:35:56.998Z</time></trkpt><trkpt lat="42.1688857" lon="4.5526199"><ele>0.0</ele><time>2026-04-30T15:35:57.998Z</time></trkpt><trkpt lat="42.1689201" lon="4.5527264"><ele>0.0</ele><time>2026-04-30T15:35:58.997Z</time></trkpt><trkpt lat="42.1689505" lon="4.5528316"><ele>0.0</ele><time>2026-04-30T15:35:59.997Z</time></trkpt><trkpt lat="42.1689821" lon="4.5529378"><ele>0.0</ele><time>2026-04-30T15:36:00.998Z</time></trkpt><trkpt lat="42.1690123" lon="4.5530463"><ele>0.0</ele><time>2026-04-30T15:36:01.997Z</time></trkpt><trkpt lat="42.1690481" lon="4.553153"><ele>0.0</ele><time>2026-04-30T15:36:02.997Z</time></trkpt><trkpt lat="42.1691129" lon="4.5533602"><ele>0.0</ele><time>2026-04-30T15:36:04.998Z</time></trkpt><trkpt lat="42.1691439" lon="4.5534635"><ele>0.0</ele><time>2026-04-30T15:36:05.997Z</time></trkpt><trkpt lat="42.1691728" lon="4.5535684"><ele>0.0</ele><time>2026-04-30T15:36:06.997Z</time></trkpt><trkpt lat="42.1692066" lon="4.5536735"><ele>0.0</ele><time>2026-04-30T15:36:07.997Z</time></trkpt><trkpt lat="42.169237" lon="4.55378"><ele>0.0</ele><time>2026-04-30T15:36:08.998Z</time></trkpt><trkpt lat="42.1692678" lon="4.5538821"><ele>0.0</ele><time>2026-04-30T15:36:09.997Z</time></trkpt><trkpt lat="42.1693432" lon="4.5540941"><ele>0.0</ele><time>2026-04-30T15:36:11.997Z</time></trkpt><trkpt lat="42.1693744" lon="4.5541968"><ele>0.0</ele><time>2026-04-30T15:36:12.997Z</time></trkpt><trkpt lat="42.1694033" lon="4.5543043"><ele>0.0</ele><time>2026-04-30T15:36:13.997Z</time></trkpt><trkpt lat="42.1694341" lon="4.5544129"><ele>0.0</ele><time>2026-04-30T15:36:14.998Z</time></trkpt><trkpt lat="42.16947" lon="4.5545222"><ele>0.0</ele><time>2026-04-30T15:36:15.997Z</time></trkpt><trkpt lat="42.1695037" lon="4.5546266"><ele>0.0</ele><time>2026-04-30T15:36:16.997Z</time></trkpt><trkpt lat="42.1695407" lon="4.5547388"><ele>0.0</ele><time>2026-04-30T15:36:17.997Z</time></trkpt><trkpt lat="42.1695738" lon="4.5548403"><ele>0.0</ele><time>2026-04-30T15:36:18.998Z</time></trkpt><trkpt lat="42.1695999" lon="4.5549409"><ele>0.0</ele><time>2026-04-30T15:36:19.997Z</time></trkpt><trkpt lat="42.1696292" lon="4.5550436"><ele>0.0</ele><time>2026-04-30T15:36:20.997Z</time></trkpt><trkpt lat="42.1696631" lon="4.5551497"><ele>0.0</ele><time>2026-04-30T15:36:21.998Z</time></trkpt><trkpt lat="42.1696869" lon="4.5552562"><ele>0.0</ele><time>2026-04-30T15:36:22.997Z</time></trkpt><trkpt lat="42.169717" lon="4.5553616"><ele>0.0</ele><time>2026-04-30T15:36:23.997Z</time></trkpt><trkpt lat="42.1697485" lon="4.5554652"><ele>0.0</ele><time>2026-04-30T15:36:24.997Z</time></trkpt><trkpt lat="42.1697833" lon="4.5555728"><ele>0.0</ele><time>2026-04-30T15:36:25.998Z</time></trkpt><trkpt lat="42.1698197" lon="4.5556811"><ele>0.0</ele><time>2026-04-30T15:36:26.997Z</time></trkpt><trkpt lat="42.1698524" lon="4.5557824"><ele>0.0</ele><time>2026-04-30T15:36:27.997Z</time></trkpt><trkpt lat="42.1698857" lon="4.5558866"><ele>0.0</ele><time>2026-04-30T15:36:28.998Z</time></trkpt><trkpt lat="42.1699231" lon="4.555993"><ele>0.0</ele><time>2026-04-30T15:36:29.997Z</time></trkpt><trkpt lat="42.1699601" lon="4.5560981"><ele>0.0</ele><time>2026-04-30T15:36:30.997Z</time></trkpt><trkpt lat="42.1700254" lon="4.5563068"><ele>0.0</ele><time>2026-04-30T15:36:32.997Z</time></trkpt><trkpt lat="42.1700602" lon="4.5564115"><ele>0.0</ele><time>2026-04-30T15:36:33.998Z</time></trkpt><trkpt lat="42.1700976" lon="4.5565168"><ele>0.0</ele><time>2026-04-30T15:36:34.998Z</time></trkpt><trkpt lat="42.1701346" lon="4.5566231"><ele>0.0</ele><time>2026-04-30T15:36:35.997Z</time></trkpt><trkpt lat="42.1702069" lon="4.5568289"><ele>0.0</ele><time>2026-04-30T15:36:37.997Z</time></trkpt><trkpt lat="42.1702489" lon="4.556939"><ele>0.0</ele><time>2026-04-30T15:36:38.998Z</time></trkpt><trkpt lat="42.1702892" lon="4.5570363"><ele>0.0</ele><time>2026-04-30T15:36:39.998Z</time></trkpt><trkpt lat="42.1703252" lon="4.5571385"><ele>0.0</ele><time>2026-04-30T15:36:40.998Z</time></trkpt><trkpt lat="42.1703629" lon="4.5572431"><ele>0.0</ele><time>2026-04-30T15:36:41.998Z</time></trkpt><trkpt lat="42.1703994" lon="4.5573469"><ele>0.0</ele><time>2026-04-30T15:36:42.997Z</time></trkpt><trkpt lat="42.1704363" lon="4.5574531"><ele>0.0</ele><time>2026-04-30T15:36:43.998Z</time></trkpt><trkpt lat="42.1704671" lon="4.5575555"><ele>0.0</ele><time>2026-04-30T15:36:44.998Z</time></trkpt><trkpt lat="42.1704985" lon="4.557657"><ele>0.0</ele><time>2026-04-30T15:36:45.997Z</time></trkpt><trkpt lat="42.1705306" lon="4.5577643"><ele>0.0</ele><time>2026-04-30T15:36:46.998Z</time></trkpt><trkpt lat="42.1705566" lon="4.557867"><ele>0.0</ele><time>2026-04-30T15:36:47.997Z</time></trkpt><trkpt lat="42.1705862" lon="4.557969"><ele>0.0</ele><time>2026-04-30T15:36:48.998Z</time></trkpt><trkpt lat="42.1706119" lon="4.5580733"><ele>0.0</ele><time>2026-04-30T15:36:49.997Z</time></trkpt><trkpt lat="42.1706468" lon="4.558178"><ele>0.0</ele><time>2026-04-30T15:36:50.998Z</time></trkpt><trkpt lat="42.1706857" lon="4.5582834"><ele>0.0</ele><time>2026-04-30T15:36:51.997Z</time></trkpt><trkpt lat="42.1707482" lon="4.5584946"><ele>0.0</ele><time>2026-04-30T15:36:53.998Z</time></trkpt><trkpt lat="42.1707817" lon="4.5586016"><ele>0.0</ele><time>2026-04-30T15:36:54.998Z</time></trkpt><trkpt lat="42.1708079" lon="4.5587094"><ele>0.0</ele><time>2026-04-30T15:36:55.997Z</time></trkpt><trkpt lat="42.1708374" lon="4.5588179"><ele>0.0</ele><time>2026-04-30T15:36:56.997Z</time></trkpt><trkpt lat="42.170866" lon="4.5589265"><ele>0.0</ele><time>2026-04-30T15:36:57.997Z</time></trkpt><trkpt lat="42.1708946" lon="4.559033"><ele>0.0</ele><time>2026-04-30T15:36:58.997Z</time></trkpt><trkpt lat="42.1709236" lon="4.5591379"><ele>0.0</ele><time>2026-04-30T15:36:59.997Z</time></trkpt><trkpt lat="42.1709564" lon="4.5592419"><ele>0.0</ele><time>2026-04-30T15:37:00.997Z</time></trkpt><trkpt lat="42.1709913" lon="4.5593494"><ele>0.0</ele><time>2026-04-30T15:37:01.998Z</time></trkpt><trkpt lat="42.171023" lon="4.5594579"><ele>0.0</ele><time>2026-04-30T15:37:02.998Z</time></trkpt><trkpt lat="42.171058" lon="4.5595648"><ele>0.0</ele><time>2026-04-30T15:37:03.998Z</time></trkpt><trkpt lat="42.171093" lon="4.5596728"><ele>0.0</ele><time>2026-04-30T15:37:04.998Z</time></trkpt><trkpt lat="42.1711266" lon="4.5597782"><ele>0.0</ele><time>2026-04-30T15:37:05.998Z</time></trkpt><trkpt lat="42.1711616" lon="4.5598847"><ele>0.0</ele><time>2026-04-30T15:37:06.998Z</time></trkpt><trkpt lat="42.1711978" lon="4.5599914"><ele>0.0</ele><time>2026-04-30T15:37:07.998Z</time></trkpt><trkpt lat="42.1712766" lon="4.5602035"><ele>0.0</ele><time>2026-04-30T15:37:09.997Z</time></trkpt><trkpt lat="42.1713179" lon="4.5603067"><ele>0.0</ele><time>2026-04-30T15:37:10.997Z</time></trkpt><trkpt lat="42.1713552" lon="4.5604104"><ele>0.0</ele><time>2026-04-30T15:37:11.997Z</time></trkpt><trkpt lat="42.1713914" lon="4.5605165"><ele>0.0</ele><time>2026-04-30T15:37:12.998Z</time></trkpt><trkpt lat="42.1714664" lon="4.5607236"><ele>0.0</ele><time>2026-04-30T15:37:14.998Z</time></trkpt><trkpt lat="42.1715032" lon="4.5608269"><ele>0.0</ele><time>2026-04-30T15:37:15.997Z</time></trkpt><trkpt lat="42.1715437" lon="4.560929"><ele>0.0</ele><time>2026-04-30T15:37:16.997Z</time></trkpt><trkpt lat="42.1715842" lon="4.5610319"><ele>0.0</ele><time>2026-04-30T15:37:17.998Z</time></trkpt><trkpt lat="42.1716233" lon="4.5611337"><ele>0.0</ele><time>2026-04-30T15:37:18.998Z</time></trkpt><trkpt lat="42.1716588" lon="4.561237"><ele>0.0</ele><time>2026-04-30T15:37:19.998Z</time></trkpt><trkpt lat="42.171691" lon="4.5613418"><ele>0.0</ele><time>2026-04-30T15:37:20.998Z</time></trkpt><trkpt lat="42.1717251" lon="4.5614425"><ele>0.0</ele><time>2026-04-30T15:37:21.998Z</time></trkpt><trkpt lat="42.1717627" lon="4.5615468"><ele>0.0</ele><time>2026-04-30T15:37:22.997Z</time></trkpt><trkpt lat="42.1717951" lon="4.5616531"><ele>0.0</ele><time>2026-04-30T15:37:23.997Z</time></trkpt><trkpt lat="42.1718298" lon="4.5617571"><ele>0.0</ele><time>2026-04-30T15:37:24.997Z</time></trkpt><trkpt lat="42.1718661" lon="4.5618589"><ele>0.0</ele><time>2026-04-30T15:37:25.998Z</time></trkpt><trkpt lat="42.1718982" lon="4.5619634"><ele>0.0</ele><time>2026-04-30T15:37:26.997Z</time></trkpt><trkpt lat="42.1719297" lon="4.5620684"><ele>0.0</ele><time>2026-04-30T15:37:27.997Z</time></trkpt><trkpt lat="42.171966" lon="4.5621719"><ele>0.0</ele><time>2026-04-30T15:37:28.997Z</time></trkpt><trkpt lat="42.1720011" lon="4.5622768"><ele>0.0</ele><time>2026-04-30T15:37:29.997Z</time></trkpt><trkpt lat="42.1720363" lon="4.5623776"><ele>0.0</ele><time>2026-04-30T15:37:30.997Z</time></trkpt><trkpt lat="42.1720744" lon="4.562482"><ele>0.0</ele><time>2026-04-30T15:37:31.997Z</time></trkpt><trkpt lat="42.172114" lon="4.562588"><ele>0.0</ele><time>2026-04-30T15:37:32.997Z</time></trkpt><trkpt lat="42.1721529" lon="4.5626949"><ele>0.0</ele><time>2026-04-30T15:37:33.997Z</time></trkpt><trkpt lat="42.1722274" lon="4.5629033"><ele>0.0</ele><time>2026-04-30T15:37:35.997Z</time></trkpt><trkpt lat="42.1722617" lon="4.5630097"><ele>0.0</ele><time>2026-04-30T15:37:36.997Z</time></trkpt><trkpt lat="42.1722978" lon="4.563115"><ele>0.0</ele><time>2026-04-30T15:37:37.998Z</time></trkpt><trkpt lat="42.1723394" lon="4.5632187"><ele>0.0</ele><time>2026-04-30T15:37:38.998Z</time></trkpt><trkpt lat="42.1723798" lon="4.5633233"><ele>0.0</ele><time>2026-04-30T15:37:39.997Z</time></trkpt><trkpt lat="42.1724197" lon="4.5634284"><ele>0.0</ele><time>2026-04-30T15:37:40.998Z</time></trkpt><trkpt lat="42.1724585" lon="4.5635333"><ele>0.0</ele><time>2026-04-30T15:37:41.998Z</time></trkpt><trkpt lat="42.1724952" lon="4.5636353"><ele>0.0</ele><time>2026-04-30T15:37:42.997Z</time></trkpt><trkpt lat="42.1725347" lon="4.5637371"><ele>0.0</ele><time>2026-04-30T15:37:43.997Z</time></trkpt><trkpt lat="42.172572" lon="4.5638415"><ele>0.0</ele><time>2026-04-30T15:37:44.997Z</time></trkpt><trkpt lat="42.1726013" lon="4.5639467"><ele>0.0</ele><time>2026-04-30T15:37:45.997Z</time></trkpt><trkpt lat="42.1726284" lon="4.5640517"><ele>0.0</ele><time>2026-04-30T15:37:46.997Z</time></trkpt><trkpt lat="42.1726563" lon="4.5641568"><ele>0.0</ele><time>2026-04-30T15:37:47.998Z</time></trkpt><trkpt lat="42.172686" lon="4.5642604"><ele>0.0</ele><time>2026-04-30T15:37:48.997Z</time></trkpt><trkpt lat="42.1727199" lon="4.5643637"><ele>0.0</ele><time>2026-04-30T15:37:49.997Z</time></trkpt><trkpt lat="42.1727535" lon="4.5644683"><ele>0.0</ele><time>2026-04-30T15:37:50.997Z</time></trkpt><trkpt lat="42.1727869" lon="4.5645733"><ele>0.0</ele><time>2026-04-30T15:37:51.997Z</time></trkpt><trkpt lat="42.1728186" lon="4.5646797"><ele>0.0</ele><time>2026-04-30T15:37:52.997Z</time></trkpt><trkpt lat="42.1728477" lon="4.5647864"><ele>0.0</ele><time>2026-04-30T15:37:53.998Z</time></trkpt><trkpt lat="42.17287" lon="4.5648974"><ele>0.0</ele><time>2026-04-30T15:37:54.997Z</time></trkpt><trkpt lat="42.172924" lon="4.5651204"><ele>0.0</ele><time>2026-04-30T15:37:56.998Z</time></trkpt><trkpt lat="42.1729525" lon="4.5652307"><ele>0.0</ele><time>2026-04-30T15:37:57.997Z</time></trkpt><trkpt lat="42.1729804" lon="4.5653394"><ele>0.0</ele><time>2026-04-30T15:37:58.998Z</time></trkpt><trkpt lat="42.1730128" lon="4.565442"><ele>0.0</ele><time>2026-04-30T15:37:59.997Z</time></trkpt><trkpt lat="42.1730446" lon="4.5655452"><ele>0.0</ele><time>2026-04-30T15:38:00.997Z</time></trkpt><trkpt lat="42.1730794" lon="4.5656485"><ele>0.0</ele><time>2026-04-30T15:38:01.997Z</time></trkpt><trkpt lat="42.1731148" lon="4.5657517"><ele>0.0</ele><time>2026-04-30T15:38:02.998Z</time></trkpt><trkpt lat="42.1731527" lon="4.5658595"><ele>0.0</ele><time>2026-04-30T15:38:03.997Z</time></trkpt><trkpt lat="42.1731882" lon="4.5659664"><ele>0.0</ele><time>2026-04-30T15:38:04.997Z</time></trkpt><trkpt lat="42.1732176" lon="4.5660701"><ele>0.0</ele><time>2026-04-30T15:38:05.997Z</time></trkpt><trkpt lat="42.1732501" lon="4.5661734"><ele>0.0</ele><time>2026-04-30T15:38:06.997Z</time></trkpt><trkpt lat="42.1732832" lon="4.5662754"><ele>0.0</ele><time>2026-04-30T15:38:07.998Z</time></trkpt><trkpt lat="42.1733226" lon="4.5663825"><ele>0.0</ele><time>2026-04-30T15:38:08.997Z</time></trkpt><trkpt lat="42.1733583" lon="4.5664865"><ele>0.0</ele><time>2026-04-30T15:38:09.997Z</time></trkpt><trkpt lat="42.1733876" lon="4.5665885"><ele>0.0</ele><time>2026-04-30T15:38:10.997Z</time></trkpt><trkpt lat="42.173423" lon="4.5666846"><ele>0.0</ele><time>2026-04-30T15:38:11.997Z</time></trkpt><trkpt lat="42.1734598" lon="4.566787"><ele>0.0</ele><time>2026-04-30T15:38:12.997Z</time></trkpt><trkpt lat="42.1734933" lon="4.566896"><ele>0.0</ele><time>2026-04-30T15:38:13.998Z</time></trkpt><trkpt lat="42.1735281" lon="4.5670013"><ele>0.0</ele><time>2026-04-30T15:38:14.998Z</time></trkpt><trkpt lat="42.1735674" lon="4.5671094"><ele>0.0</ele><time>2026-04-30T15:38:15.997Z</time></trkpt><trkpt lat="42.1736362" lon="4.567318"><ele>0.0</ele><time>2026-04-30T15:38:17.998Z</time></trkpt><trkpt lat="42.1736739" lon="4.5674204"><ele>0.0</ele><time>2026-04-30T15:38:18.998Z</time></trkpt><trkpt lat="42.173714" lon="4.5675266"><ele>0.0</ele><time>2026-04-30T15:38:19.997Z</time></trkpt><trkpt lat="42.1737519" lon="4.5676315"><ele>0.0</ele><time>2026-04-30T15:38:20.998Z</time></trkpt><trkpt lat="42.1737902" lon="4.5677394"><ele>0.0</ele><time>2026-04-30T15:38:21.997Z</time></trkpt><trkpt lat="42.1738271" lon="4.5678433"><ele>0.0</ele><time>2026-04-30T15:38:22.998Z</time></trkpt><trkpt lat="42.1738638" lon="4.5679567"><ele>0.0</ele><time>2026-04-30T15:38:23.998Z</time></trkpt><trkpt lat="42.1738958" lon="4.5680617"><ele>0.0</ele><time>2026-04-30T15:38:24.998Z</time></trkpt><trkpt lat="42.1739639" lon="4.5682667"><ele>0.0</ele><time>2026-04-30T15:38:26.997Z</time></trkpt><trkpt lat="42.174002" lon="4.5683703"><ele>0.0</ele><time>2026-04-30T15:38:27.998Z</time></trkpt><trkpt lat="42.1740352" lon="4.5684721"><ele>0.0</ele><time>2026-04-30T15:38:28.997Z</time></trkpt><trkpt lat="42.1740704" lon="4.5685752"><ele>0.0</ele><time>2026-04-30T15:38:29.998Z</time></trkpt><trkpt lat="42.1741053" lon="4.56868"><ele>0.0</ele><time>2026-04-30T15:38:30.997Z</time></trkpt><trkpt lat="42.1741402" lon="4.5687836"><ele>0.0</ele><time>2026-04-30T15:38:31.997Z</time></trkpt><trkpt lat="42.174179" lon="4.5688869"><ele>0.0</ele><time>2026-04-30T15:38:32.997Z</time></trkpt><trkpt lat="42.174218" lon="4.568993"><ele>0.0</ele><time>2026-04-30T15:38:33.997Z</time></trkpt><trkpt lat="42.1742574" lon="4.5690926"><ele>0.0</ele><time>2026-04-30T15:38:34.998Z</time></trkpt><trkpt lat="42.1742919" lon="4.5691937"><ele>0.0</ele><time>2026-04-30T15:38:35.998Z</time></trkpt><trkpt lat="42.1743299" lon="4.5692968"><ele>0.0</ele><time>2026-04-30T15:38:36.998Z</time></trkpt><trkpt lat="42.1744101" lon="4.5695104"><ele>0.0</ele><time>2026-04-30T15:38:38.998Z</time></trkpt><trkpt lat="42.1744333" lon="4.5696151"><ele>0.0</ele><time>2026-04-30T15:38:39.997Z</time></trkpt><trkpt lat="42.174452" lon="4.569724"><ele>0.0</ele><time>2026-04-30T15:38:40.997Z</time></trkpt><trkpt lat="42.1744796" lon="4.5698354"><ele>0.0</ele><time>2026-04-30T15:38:41.997Z</time></trkpt><trkpt lat="42.1745205" lon="4.5699428"><ele>0.0</ele><time>2026-04-30T15:38:42.997Z</time></trkpt><trkpt lat="42.1745565" lon="4.5700526"><ele>0.0</ele><time>2026-04-30T15:38:43.998Z</time></trkpt><trkpt lat="42.1745973" lon="4.5701551"><ele>0.0</ele><time>2026-04-30T15:38:44.997Z</time></trkpt><trkpt lat="42.1746745" lon="4.570368"><ele>0.0</ele><time>2026-04-30T15:38:46.998Z</time></trkpt><trkpt lat="42.1747046" lon="4.5704674"><ele>0.0</ele><time>2026-04-30T15:38:47.998Z</time></trkpt><trkpt lat="42.1747372" lon="4.5705629"><ele>0.0</ele><time>2026-04-30T15:38:48.998Z</time></trkpt><trkpt lat="42.1747777" lon="4.570661"><ele>0.0</ele><time>2026-04-30T15:38:49.997Z</time></trkpt><trkpt lat="42.1748122" lon="4.5707648"><ele>0.0</ele><time>2026-04-30T15:38:50.998Z</time></trkpt><trkpt lat="42.1748528" lon="4.5708757"><ele>0.0</ele><time>2026-04-30T15:38:51.997Z</time></trkpt><trkpt lat="42.1748973" lon="4.5709813"><ele>0.0</ele><time>2026-04-30T15:38:52.998Z</time></trkpt><trkpt lat="42.1749395" lon="4.5710824"><ele>0.0</ele><time>2026-04-30T15:38:53.998Z</time></trkpt><trkpt lat="42.1749765" lon="4.5711866"><ele>0.0</ele><time>2026-04-30T15:38:54.997Z</time></trkpt><trkpt lat="42.1750123" lon="4.5712874"><ele>0.0</ele><time>2026-04-30T15:38:55.998Z</time></trkpt><trkpt lat="42.1750423" lon="4.5713889"><ele>0.0</ele><time>2026-04-30T15:38:56.997Z</time></trkpt><trkpt lat="42.1750753" lon="4.5714977"><ele>0.0</ele><time>2026-04-30T15:38:57.997Z</time></trkpt><trkpt lat="42.1751421" lon="4.5717084"><ele>0.0</ele><time>2026-04-30T15:38:59.997Z</time></trkpt><trkpt lat="42.1751782" lon="4.571816"><ele>0.0</ele><time>2026-04-30T15:39:00.997Z</time></trkpt><trkpt lat="42.1752106" lon="4.5719185"><ele>0.0</ele><time>2026-04-30T15:39:01.997Z</time></trkpt><trkpt lat="42.1752471" lon="4.5720203"><ele>0.0</ele><time>2026-04-30T15:39:02.998Z</time></trkpt><trkpt lat="42.1752793" lon="4.5721221"><ele>0.0</ele><time>2026-04-30T15:39:03.997Z</time></trkpt><trkpt lat="42.1753196" lon="4.5722395"><ele>0.0</ele><time>2026-04-30T15:39:04.997Z</time></trkpt><trkpt lat="42.1753558" lon="4.5723448"><ele>0.0</ele><time>2026-04-30T15:39:05.998Z</time></trkpt><trkpt lat="42.1753905" lon="4.5724525"><ele>0.0</ele><time>2026-04-30T15:39:06.997Z</time></trkpt><trkpt lat="42.1754679" lon="4.5726692"><ele>0.0</ele><time>2026-04-30T15:39:08.997Z</time></trkpt><trkpt lat="42.175509" lon="4.5727718"><ele>0.0</ele><time>2026-04-30T15:39:09.997Z</time></trkpt><trkpt lat="42.1755534" lon="4.5728751"><ele>0.0</ele><time>2026-04-30T15:39:10.998Z</time></trkpt><trkpt lat="42.1755974" lon="4.5729769"><ele>0.0</ele><time>2026-04-30T15:39:11.997Z</time></trkpt><trkpt lat="42.1756397" lon="4.5730814"><ele>0.0</ele><time>2026-04-30T15:39:12.998Z</time></trkpt><trkpt lat="42.1756849" lon="4.5731851"><ele>0.0</ele><time>2026-04-30T15:39:13.998Z</time></trkpt><trkpt lat="42.1757269" lon="4.5732928"><ele>0.0</ele><time>2026-04-30T15:39:14.997Z</time></trkpt><trkpt lat="42.1757645" lon="4.5733995"><ele>0.0</ele><time>2026-04-30T15:39:15.998Z</time></trkpt><trkpt lat="42.1758023" lon="4.5735033"><ele>0.0</ele><time>2026-04-30T15:39:16.998Z</time></trkpt><trkpt lat="42.1758316" lon="4.5736125"><ele>0.0</ele><time>2026-04-30T15:39:17.997Z</time></trkpt><trkpt lat="42.1759626" lon="4.5740305"><ele>0.0</ele><time>2026-04-30T15:39:21.998Z</time></trkpt><trkpt lat="42.176007" lon="4.5741321"><ele>0.0</ele><time>2026-04-30T15:39:22.997Z</time></trkpt><trkpt lat="42.1760374" lon="4.5742354"><ele>0.0</ele><time>2026-04-30T15:39:23.997Z</time></trkpt><trkpt lat="42.1760695" lon="4.5743402"><ele>0.0</ele><time>2026-04-30T15:39:24.996Z</time></trkpt><trkpt lat="42.1761009" lon="4.5744454"><ele>0.0</ele><time>2026-04-30T15:39:25.996Z</time></trkpt><trkpt lat="42.1761289" lon="4.5745475"><ele>0.0</ele><time>2026-04-30T15:39:26.996Z</time></trkpt><trkpt lat="42.1761607" lon="4.5746503"><ele>0.0</ele><time>2026-04-30T15:39:27.996Z</time></trkpt><trkpt lat="42.1761958" lon="4.5747549"><ele>0.0</ele><time>2026-04-30T15:39:28.996Z</time></trkpt><trkpt lat="42.1762353" lon="4.5748603"><ele>0.0</ele><time>2026-04-30T15:39:29.996Z</time></trkpt><trkpt lat="42.1762722" lon="4.5749595"><ele>0.0</ele><time>2026-04-30T15:39:30.997Z</time></trkpt><trkpt lat="42.1763076" lon="4.5750633"><ele>0.0</ele><time>2026-04-30T15:39:31.996Z</time></trkpt><trkpt lat="42.1763362" lon="4.5751708"><ele>0.0</ele><time>2026-04-30T15:39:32.996Z</time></trkpt><trkpt lat="42.1763635" lon="4.5752764"><ele>0.0</ele><time>2026-04-30T15:39:33.997Z</time></trkpt><trkpt lat="42.1763964" lon="4.5753815"><ele>0.0</ele><time>2026-04-30T15:39:34.997Z</time></trkpt><trkpt lat="42.1764284" lon="4.5754849"><ele>0.0</ele><time>2026-04-30T15:39:35.997Z</time></trkpt><trkpt lat="42.1764663" lon="4.5755912"><ele>0.0</ele><time>2026-04-30T15:39:36.996Z</time></trkpt><trkpt lat="42.1765065" lon="4.5756977"><ele>0.0</ele><time>2026-04-30T15:39:37.997Z</time></trkpt><trkpt lat="42.1765494" lon="4.5758059"><ele>0.0</ele><time>2026-04-30T15:39:38.996Z</time></trkpt><trkpt lat="42.1765934" lon="4.5759074"><ele>0.0</ele><time>2026-04-30T15:39:39.996Z</time></trkpt><trkpt lat="42.1766361" lon="4.5760145"><ele>0.0</ele><time>2026-04-30T15:39:40.997Z</time></trkpt><trkpt lat="42.1767252" lon="4.5762251"><ele>0.0</ele><time>2026-04-30T15:39:42.997Z</time></trkpt><trkpt lat="42.1767639" lon="4.576324"><ele>0.0</ele><time>2026-04-30T15:39:43.997Z</time></trkpt><trkpt lat="42.1768019" lon="4.5764268"><ele>0.0</ele><time>2026-04-30T15:39:44.996Z</time></trkpt><trkpt lat="42.17684" lon="4.5765318"><ele>0.0</ele><time>2026-04-30T15:39:45.997Z</time></trkpt><trkpt lat="42.1768783" lon="4.5766381"><ele>0.0</ele><time>2026-04-30T15:39:46.996Z</time></trkpt><trkpt lat="42.1769166" lon="4.5767432"><ele>0.0</ele><time>2026-04-30T15:39:47.997Z</time></trkpt><trkpt lat="42.1769507" lon="4.5768483"><ele>0.0</ele><time>2026-04-30T15:39:48.996Z</time></trkpt><trkpt lat="42.1769839" lon="4.5769534"><ele>0.0</ele><time>2026-04-30T15:39:49.996Z</time></trkpt><trkpt lat="42.1770576" lon="4.57716"><ele>0.0</ele><time>2026-04-30T15:39:51.997Z</time></trkpt><trkpt lat="42.1770919" lon="4.5772632"><ele>0.0</ele><time>2026-04-30T15:39:52.996Z</time></trkpt><trkpt lat="42.1771245" lon="4.5773655"><ele>0.0</ele><time>2026-04-30T15:39:53.996Z</time></trkpt><trkpt lat="42.1771545" lon="4.577472"><ele>0.0</ele><time>2026-04-30T15:39:54.997Z</time></trkpt><trkpt lat="42.1771834" lon="4.5775739"><ele>0.0</ele><time>2026-04-30T15:39:55.996Z</time></trkpt><trkpt lat="42.177207" lon="4.5776815"><ele>0.0</ele><time>2026-04-30T15:39:56.996Z</time></trkpt><trkpt lat="42.1772379" lon="4.5777843"><ele>0.0</ele><time>2026-04-30T15:39:57.997Z</time></trkpt><trkpt lat="42.1772816" lon="4.5778866"><ele>0.0</ele><time>2026-04-30T15:39:58.996Z</time></trkpt><trkpt lat="42.1773075" lon="4.5779925"><ele>0.0</ele><time>2026-04-30T15:39:59.996Z</time></trkpt><trkpt lat="42.1773339" lon="4.5781043"><ele>0.0</ele><time>2026-04-30T15:40:00.996Z</time></trkpt><trkpt lat="42.1773747" lon="4.5782185"><ele>0.0</ele><time>2026-04-30T15:40:01.996Z</time></trkpt><trkpt lat="42.1774529" lon="4.5784327"><ele>0.0</ele><time>2026-04-30T15:40:03.996Z</time></trkpt><trkpt lat="42.1774977" lon="4.5785411"><ele>0.0</ele><time>2026-04-30T15:40:04.996Z</time></trkpt><trkpt lat="42.177562" lon="4.5786605"><ele>0.0</ele><time>2026-04-30T15:40:05.997Z</time></trkpt><trkpt lat="42.1776533" lon="4.5788542"><ele>0.0</ele><time>2026-04-30T15:40:07.996Z</time></trkpt><trkpt lat="42.1776928" lon="4.5789496"><ele>0.0</ele><time>2026-04-30T15:40:08.996Z</time></trkpt><trkpt lat="42.1777313" lon="4.5790503"><ele>0.0</ele><time>2026-04-30T15:40:09.997Z</time></trkpt><trkpt lat="42.1777679" lon="4.5791521"><ele>0.0</ele><time>2026-04-30T15:40:10.997Z</time></trkpt><trkpt lat="42.1778043" lon="4.5792508"><ele>0.0</ele><time>2026-04-30T15:40:11.997Z</time></trkpt><trkpt lat="42.1778392" lon="4.5793538"><ele>0.0</ele><time>2026-04-30T15:40:12.996Z</time></trkpt><trkpt lat="42.1778785" lon="4.5794539"><ele>0.0</ele><time>2026-04-30T15:40:13.996Z</time></trkpt><trkpt lat="42.1779254" lon="4.5795583"><ele>0.0</ele><time>2026-04-30T15:40:14.997Z</time></trkpt><trkpt lat="42.1779667" lon="4.5796633"><ele>0.0</ele><time>2026-04-30T15:40:15.996Z</time></trkpt><trkpt lat="42.1780087" lon="4.5797653"><ele>0.0</ele><time>2026-04-30T15:40:16.997Z</time></trkpt><trkpt lat="42.1780503" lon="4.5798686"><ele>0.0</ele><time>2026-04-30T15:40:17.996Z</time></trkpt><trkpt lat="42.1780805" lon="4.5799689"><ele>0.0</ele><time>2026-04-30T15:40:18.997Z</time></trkpt><trkpt lat="42.1781091" lon="4.5800735"><ele>0.0</ele><time>2026-04-30T15:40:19.996Z</time></trkpt><trkpt lat="42.1781386" lon="4.5801756"><ele>0.0</ele><time>2026-04-30T15:40:20.996Z</time></trkpt><trkpt lat="42.1781726" lon="4.5802785"><ele>0.0</ele><time>2026-04-30T15:40:21.996Z</time></trkpt><trkpt lat="42.178206" lon="4.5803888"><ele>0.0</ele><time>2026-04-30T15:40:22.996Z</time></trkpt><trkpt lat="42.1782366" lon="4.580492"><ele>0.0</ele><time>2026-04-30T15:40:23.997Z</time></trkpt><trkpt lat="42.178318" lon="4.5807986"><ele>0.0</ele><time>2026-04-30T15:40:26.996Z</time></trkpt><trkpt lat="42.1783372" lon="4.5809046"><ele>0.0</ele><time>2026-04-30T15:40:27.996Z</time></trkpt><trkpt lat="42.1783686" lon="4.5810112"><ele>0.0</ele><time>2026-04-30T15:40:28.996Z</time></trkpt><trkpt lat="42.1784066" lon="4.5811178"><ele>0.0</ele><time>2026-04-30T15:40:29.996Z</time></trkpt><trkpt lat="42.1784466" lon="4.5812274"><ele>0.0</ele><time>2026-04-30T15:40:30.996Z</time></trkpt><trkpt lat="42.1784897" lon="4.5813333"><ele>0.0</ele><time>2026-04-30T15:40:31.996Z</time></trkpt><trkpt lat="42.1785329" lon="4.5814395"><ele>0.0</ele><time>2026-04-30T15:40:32.997Z</time></trkpt><trkpt lat="42.1785708" lon="4.5815448"><ele>0.0</ele><time>2026-04-30T15:40:33.996Z</time></trkpt><trkpt lat="42.1786035" lon="4.5816526"><ele>0.0</ele><time>2026-04-30T15:40:34.996Z</time></trkpt><trkpt lat="42.1786365" lon="4.5817581"><ele>0.0</ele><time>2026-04-30T15:40:35.996Z</time></trkpt><trkpt lat="42.1786739" lon="4.5818602"><ele>0.0</ele><time>2026-04-30T15:40:36.997Z</time></trkpt><trkpt lat="42.1787133" lon="4.5819663"><ele>0.0</ele><time>2026-04-30T15:40:37.996Z</time></trkpt><trkpt lat="42.1787506" lon="4.5820685"><ele>0.0</ele><time>2026-04-30T15:40:38.997Z</time></trkpt><trkpt lat="42.1787873" lon="4.5821729"><ele>0.0</ele><time>2026-04-30T15:40:39.996Z</time></trkpt><trkpt lat="42.1788238" lon="4.5822767"><ele>0.0</ele><time>2026-04-30T15:40:40.996Z</time></trkpt><trkpt lat="42.178863" lon="4.5823816"><ele>0.0</ele><time>2026-04-30T15:40:41.997Z</time></trkpt><trkpt lat="42.178902" lon="4.5824852"><ele>0.0</ele><time>2026-04-30T15:40:42.996Z</time></trkpt><trkpt lat="42.1789383" lon="4.5825915"><ele>0.0</ele><time>2026-04-30T15:40:43.997Z</time></trkpt><trkpt lat="42.1789732" lon="4.5826966"><ele>0.0</ele><time>2026-04-30T15:40:44.997Z</time></trkpt><trkpt lat="42.1790024" lon="4.5827989"><ele>0.0</ele><time>2026-04-30T15:40:45.996Z</time></trkpt><trkpt lat="42.1790336" lon="4.5829032"><ele>0.0</ele><time>2026-04-30T15:40:46.996Z</time></trkpt><trkpt lat="42.1791085" lon="4.5831101"><ele>0.0</ele><time>2026-04-30T15:40:48.996Z</time></trkpt><trkpt lat="42.1791498" lon="4.5832134"><ele>0.0</ele><time>2026-04-30T15:40:49.997Z</time></trkpt><trkpt lat="42.179183" lon="4.5833226"><ele>0.0</ele><time>2026-04-30T15:40:50.996Z</time></trkpt><trkpt lat="42.1792136" lon="4.5834267"><ele>0.0</ele><time>2026-04-30T15:40:51.996Z</time></trkpt><trkpt lat="42.1792459" lon="4.5835315"><ele>0.0</ele><time>2026-04-30T15:40:52.997Z</time></trkpt><trkpt lat="42.1792834" lon="4.5836382"><ele>0.0</ele><time>2026-04-30T15:40:53.997Z</time></trkpt><trkpt lat="42.1793262" lon="4.583742"><ele>0.0</ele><time>2026-04-30T15:40:54.996Z</time></trkpt><trkpt lat="42.1793683" lon="4.5838452"><ele>0.0</ele><time>2026-04-30T15:40:55.996Z</time></trkpt><trkpt lat="42.1794439" lon="4.584055"><ele>0.0</ele><time>2026-04-30T15:40:57.997Z</time></trkpt><trkpt lat="42.1794825" lon="4.58416"><ele>0.0</ele><time>2026-04-30T15:40:58.996Z</time></trkpt><trkpt lat="42.1795304" lon="4.5842623"><ele>0.0</ele><time>2026-04-30T15:40:59.996Z</time></trkpt><trkpt lat="42.1795679" lon="4.5843649"><ele>0.0</ele><time>2026-04-30T15:41:00.996Z</time></trkpt><trkpt lat="42.1796056" lon="4.5844699"><ele>0.0</ele><time>2026-04-30T15:41:01.997Z</time></trkpt><trkpt lat="42.179644" lon="4.5845664"><ele>0.0</ele><time>2026-04-30T15:41:02.996Z</time></trkpt><trkpt lat="42.1796812" lon="4.584673"><ele>0.0</ele><time>2026-04-30T15:41:03.997Z</time></trkpt><trkpt lat="42.1797213" lon="4.5847796"><ele>0.0</ele><time>2026-04-30T15:41:04.996Z</time></trkpt><trkpt lat="42.179757" lon="4.5848875"><ele>0.0</ele><time>2026-04-30T15:41:05.996Z</time></trkpt><trkpt lat="42.1797862" lon="4.5849945"><ele>0.0</ele><time>2026-04-30T15:41:06.997Z</time></trkpt><trkpt lat="42.1798147" lon="4.5850998"><ele>0.0</ele><time>2026-04-30T15:41:07.996Z</time></trkpt><trkpt lat="42.1798679" lon="4.5853118"><ele>0.0</ele><time>2026-04-30T15:41:09.996Z</time></trkpt><trkpt lat="42.179902" lon="4.5854166"><ele>0.0</ele><time>2026-04-30T15:41:10.996Z</time></trkpt><trkpt lat="42.1799394" lon="4.5855201"><ele>0.0</ele><time>2026-04-30T15:41:11.997Z</time></trkpt><trkpt lat="42.1799689" lon="4.5856222"><ele>0.0</ele><time>2026-04-30T15:41:12.996Z</time></trkpt><trkpt lat="42.1800061" lon="4.5857234"><ele>0.0</ele><time>2026-04-30T15:41:13.997Z</time></trkpt><trkpt lat="42.1800402" lon="4.5858267"><ele>0.0</ele><time>2026-04-30T15:41:14.996Z</time></trkpt><trkpt lat="42.1800766" lon="4.5859316"><ele>0.0</ele><time>2026-04-30T15:41:15.997Z</time></trkpt><trkpt lat="42.1801101" lon="4.5860363"><ele>0.0</ele><time>2026-04-30T15:41:16.997Z</time></trkpt><trkpt lat="42.180145" lon="4.5861417"><ele>0.0</ele><time>2026-04-30T15:41:17.996Z</time></trkpt><trkpt lat="42.1801818" lon="4.5862478"><ele>0.0</ele><time>2026-04-30T15:41:18.997Z</time></trkpt><trkpt lat="42.1802168" lon="4.586353"><ele>0.0</ele><time>2026-04-30T15:41:19.997Z</time></trkpt><trkpt lat="42.1802518" lon="4.5864553"><ele>0.0</ele><time>2026-04-30T15:41:20.997Z</time></trkpt><trkpt lat="42.1802867" lon="4.5865599"><ele>0.0</ele><time>2026-04-30T15:41:21.996Z</time></trkpt><trkpt lat="42.1803204" lon="4.586662"><ele>0.0</ele><time>2026-04-30T15:41:22.997Z</time></trkpt><trkpt lat="42.1803578" lon="4.5867681"><ele>0.0</ele><time>2026-04-30T15:41:23.996Z</time></trkpt><trkpt lat="42.1803914" lon="4.5868733"><ele>0.0</ele><time>2026-04-30T15:41:24.996Z</time></trkpt><trkpt lat="42.1804283" lon="4.5869752"><ele>0.0</ele><time>2026-04-30T15:41:25.997Z</time></trkpt><trkpt lat="42.1804646" lon="4.5870798"><ele>0.0</ele><time>2026-04-30T15:41:26.997Z</time></trkpt><trkpt lat="42.1805053" lon="4.587182"><ele>0.0</ele><time>2026-04-30T15:41:27.996Z</time></trkpt><trkpt lat="42.1805453" lon="4.5872865"><ele>0.0</ele><time>2026-04-30T15:41:28.997Z</time></trkpt><trkpt lat="42.1806215" lon="4.5874966"><ele>0.0</ele><time>2026-04-30T15:41:30.996Z</time></trkpt><trkpt lat="42.1807076" lon="4.5877068"><ele>0.0</ele><time>2026-04-30T15:41:32.996Z</time></trkpt><trkpt lat="42.1807448" lon="4.5878115"><ele>0.0</ele><time>2026-04-30T15:41:33.997Z</time></trkpt><trkpt lat="42.1807915" lon="4.5879078"><ele>0.0</ele><time>2026-04-30T15:41:34.996Z</time></trkpt><trkpt lat="42.1808383" lon="4.5880102"><ele>0.0</ele><time>2026-04-30T15:41:35.996Z</time></trkpt><trkpt lat="42.1808771" lon="4.5881149"><ele>0.0</ele><time>2026-04-30T15:41:36.996Z</time></trkpt><trkpt lat="42.1809192" lon="4.5882184"><ele>0.0</ele><time>2026-04-30T15:41:37.996Z</time></trkpt><trkpt lat="42.1809554" lon="4.5883216"><ele>0.0</ele><time>2026-04-30T15:41:38.997Z</time></trkpt><trkpt lat="42.1810012" lon="4.5884235"><ele>0.0</ele><time>2026-04-30T15:41:39.997Z</time></trkpt><trkpt lat="42.1810463" lon="4.5885254"><ele>0.0</ele><time>2026-04-30T15:41:40.996Z</time></trkpt><trkpt lat="42.1810863" lon="4.5886258"><ele>0.0</ele><time>2026-04-30T15:41:41.997Z</time></trkpt><trkpt lat="42.181129" lon="4.5887227"><ele>0.0</ele><time>2026-04-30T15:41:42.996Z</time></trkpt><trkpt lat="42.181174" lon="4.5888225"><ele>0.0</ele><time>2026-04-30T15:41:43.996Z</time></trkpt><trkpt lat="42.1812236" lon="4.5889293"><ele>0.0</ele><time>2026-04-30T15:41:44.997Z</time></trkpt><trkpt lat="42.1812745" lon="4.5890262"><ele>0.0</ele><time>2026-04-30T15:41:45.996Z</time></trkpt><trkpt lat="42.181331" lon="4.5891311"><ele>0.0</ele><time>2026-04-30T15:41:46.997Z</time></trkpt><trkpt lat="42.1813598" lon="4.589239"><ele>0.0</ele><time>2026-04-30T15:41:47.996Z</time></trkpt><trkpt lat="42.1814074" lon="4.5893446"><ele>0.0</ele><time>2026-04-30T15:41:48.997Z</time></trkpt><trkpt lat="42.1814586" lon="4.5894485"><ele>0.0</ele><time>2026-04-30T15:41:49.996Z</time></trkpt><trkpt lat="42.1815139" lon="4.589552"><ele>0.0</ele><time>2026-04-30T15:41:50.996Z</time></trkpt><trkpt lat="42.1815631" lon="4.5896567"><ele>0.0</ele><time>2026-04-30T15:41:51.996Z</time></trkpt><trkpt lat="42.1816435" lon="4.5898579"><ele>0.0</ele><time>2026-04-30T15:41:53.997Z</time></trkpt><trkpt lat="42.1816803" lon="4.5899517"><ele>0.0</ele><time>2026-04-30T15:41:54.996Z</time></trkpt><trkpt lat="42.1817165" lon="4.5900494"><ele>0.0</ele><time>2026-04-30T15:41:55.996Z</time></trkpt><trkpt lat="42.1817558" lon="4.5901489"><ele>0.0</ele><time>2026-04-30T15:41:56.997Z</time></trkpt><trkpt lat="42.1817925" lon="4.5902519"><ele>0.0</ele><time>2026-04-30T15:41:57.996Z</time></trkpt><trkpt lat="42.1818231" lon="4.5903527"><ele>0.0</ele><time>2026-04-30T15:41:58.996Z</time></trkpt><trkpt lat="42.1818493" lon="4.5904555"><ele>0.0</ele><time>2026-04-30T15:41:59.996Z</time></trkpt><trkpt lat="42.181874" lon="4.5905628"><ele>0.0</ele><time>2026-04-30T15:42:00.997Z</time></trkpt><trkpt lat="42.1819328" lon="4.5907779"><ele>0.0</ele><time>2026-04-30T15:42:02.996Z</time></trkpt><trkpt lat="42.1819635" lon="4.5908863"><ele>0.0</ele><time>2026-04-30T15:42:03.996Z</time></trkpt><trkpt lat="42.1819877" lon="4.5909916"><ele>0.0</ele><time>2026-04-30T15:42:04.997Z</time></trkpt><trkpt lat="42.1820109" lon="4.5910995"><ele>0.0</ele><time>2026-04-30T15:42:05.996Z</time></trkpt><trkpt lat="42.1820278" lon="4.5912093"><ele>0.0</ele><time>2026-04-30T15:42:06.996Z</time></trkpt><trkpt lat="42.1820526" lon="4.5913177"><ele>0.0</ele><time>2026-04-30T15:42:07.996Z</time></trkpt><trkpt lat="42.1820839" lon="4.5914247"><ele>0.0</ele><time>2026-04-30T15:42:08.997Z</time></trkpt><trkpt lat="42.1821193" lon="4.5915314"><ele>0.0</ele><time>2026-04-30T15:42:09.997Z</time></trkpt><trkpt lat="42.1821503" lon="4.5916394"><ele>0.0</ele><time>2026-04-30T15:42:10.996Z</time></trkpt><trkpt lat="42.1821791" lon="4.591745"><ele>0.0</ele><time>2026-04-30T15:42:11.996Z</time></trkpt><trkpt lat="42.1822157" lon="4.5918485"><ele>0.0</ele><time>2026-04-30T15:42:12.996Z</time></trkpt><trkpt lat="42.1822858" lon="4.592057"><ele>0.0</ele><time>2026-04-30T15:42:14.997Z</time></trkpt><trkpt lat="42.1823255" lon="4.5921602"><ele>0.0</ele><time>2026-04-30T15:42:15.996Z</time></trkpt><trkpt lat="42.1823669" lon="4.5922633"><ele>0.0</ele><time>2026-04-30T15:42:16.996Z</time></trkpt><trkpt lat="42.1823988" lon="4.5923698"><ele>0.0</ele><time>2026-04-30T15:42:17.996Z</time></trkpt><trkpt lat="42.1824317" lon="4.5924763"><ele>0.0</ele><time>2026-04-30T15:42:18.996Z</time></trkpt><trkpt lat="42.1824692" lon="4.5925816"><ele>0.0</ele><time>2026-04-30T15:42:19.996Z</time></trkpt><trkpt lat="42.1825003" lon="4.5926866"><ele>0.0</ele><time>2026-04-30T15:42:20.997Z</time></trkpt><trkpt lat="42.1825319" lon="4.5927944"><ele>0.0</ele><time>2026-04-30T15:42:21.996Z</time></trkpt><trkpt lat="42.1825653" lon="4.5929"><ele>0.0</ele><time>2026-04-30T15:42:22.997Z</time></trkpt><trkpt lat="42.1825932" lon="4.5930065"><ele>0.0</ele><time>2026-04-30T15:42:23.997Z</time></trkpt><trkpt lat="42.1826211" lon="4.5931133"><ele>0.0</ele><time>2026-04-30T15:42:24.997Z</time></trkpt><trkpt lat="42.1826566" lon="4.5932185"><ele>0.0</ele><time>2026-04-30T15:42:25.996Z</time></trkpt><trkpt lat="42.1826744" lon="4.5933233"><ele>0.0</ele><time>2026-04-30T15:42:26.997Z</time></trkpt><trkpt lat="42.1827106" lon="4.5934269"><ele>0.0</ele><time>2026-04-30T15:42:27.997Z</time></trkpt><trkpt lat="42.1827464" lon="4.5935314"><ele>0.0</ele><time>2026-04-30T15:42:28.996Z</time></trkpt><trkpt lat="42.1827877" lon="4.5936381"><ele>0.0</ele><time>2026-04-30T15:42:29.996Z</time></trkpt><trkpt lat="42.1828279" lon="4.5937448"><ele>0.0</ele><time>2026-04-30T15:42:30.997Z</time></trkpt><trkpt lat="42.182871" lon="4.5938499"><ele>0.0</ele><time>2026-04-30T15:42:31.996Z</time></trkpt><trkpt lat="42.1829115" lon="4.5939549"><ele>0.0</ele><time>2026-04-30T15:42:32.997Z</time></trkpt><trkpt lat="42.1830358" lon="4.5942656"><ele>0.0</ele><time>2026-04-30T15:42:35.997Z</time></trkpt><trkpt lat="42.1830697" lon="4.5943682"><ele>0.0</ele><time>2026-04-30T15:42:36.996Z</time></trkpt><trkpt lat="42.1831117" lon="4.5944699"><ele>0.0</ele><time>2026-04-30T15:42:37.997Z</time></trkpt><trkpt lat="42.1831524" lon="4.594572"><ele>0.0</ele><time>2026-04-30T15:42:38.997Z</time></trkpt><trkpt lat="42.1831754" lon="4.5946794"><ele>0.0</ele><time>2026-04-30T15:42:39.997Z</time></trkpt><trkpt lat="42.1832168" lon="4.5947847"><ele>0.0</ele><time>2026-04-30T15:42:40.996Z</time></trkpt><trkpt lat="42.1832539" lon="4.5948896"><ele>0.0</ele><time>2026-04-30T15:42:41.997Z</time></trkpt><trkpt lat="42.1832891" lon="4.5949935"><ele>0.0</ele><time>2026-04-30T15:42:42.996Z</time></trkpt><trkpt lat="42.1833317" lon="4.5950981"><ele>0.0</ele><time>2026-04-30T15:42:43.996Z</time></trkpt><trkpt lat="42.1833751" lon="4.5952031"><ele>0.0</ele><time>2026-04-30T15:42:44.996Z</time></trkpt><trkpt lat="42.1834152" lon="4.5953068"><ele>0.0</ele><time>2026-04-30T15:42:45.996Z</time></trkpt><trkpt lat="42.183455" lon="4.5954116"><ele>0.0</ele><time>2026-04-30T15:42:46.996Z</time></trkpt><trkpt lat="42.1834924" lon="4.5955138"><ele>0.0</ele><time>2026-04-30T15:42:47.996Z</time></trkpt><trkpt lat="42.1835308" lon="4.5956126"><ele>0.0</ele><time>2026-04-30T15:42:48.996Z</time></trkpt><trkpt lat="42.1835645" lon="4.5957108"><ele>0.0</ele><time>2026-04-30T15:42:49.997Z</time></trkpt><trkpt lat="42.1835953" lon="4.5958167"><ele>0.0</ele><time>2026-04-30T15:42:50.997Z</time></trkpt><trkpt lat="42.1836269" lon="4.5959218"><ele>0.0</ele><time>2026-04-30T15:42:51.996Z</time></trkpt><trkpt lat="42.1836585" lon="4.5960265"><ele>0.0</ele><time>2026-04-30T15:42:52.997Z</time></trkpt><trkpt lat="42.1836897" lon="4.5961315"><ele>0.0</ele><time>2026-04-30T15:42:53.996Z</time></trkpt><trkpt lat="42.1837186" lon="4.5962348"><ele>0.0</ele><time>2026-04-30T15:42:54.996Z</time></trkpt><trkpt lat="42.1837899" lon="4.5964497"><ele>0.0</ele><time>2026-04-30T15:42:56.997Z</time></trkpt><trkpt lat="42.1838235" lon="4.5965551"><ele>0.0</ele><time>2026-04-30T15:42:57.997Z</time></trkpt><trkpt lat="42.183858" lon="4.5966628"><ele>0.0</ele><time>2026-04-30T15:42:58.996Z</time></trkpt><trkpt lat="42.1838842" lon="4.5967729"><ele>0.0</ele><time>2026-04-30T15:42:59.996Z</time></trkpt><trkpt lat="42.1839139" lon="4.5968883"><ele>0.0</ele><time>2026-04-30T15:43:00.997Z</time></trkpt><trkpt lat="42.1839418" lon="4.597009"><ele>0.0</ele><time>2026-04-30T15:43:01.996Z</time></trkpt><trkpt lat="42.183956" lon="4.5971249"><ele>0.0</ele><time>2026-04-30T15:43:02.997Z</time></trkpt><trkpt lat="42.1839896" lon="4.5972314"><ele>0.0</ele><time>2026-04-30T15:43:03.996Z</time></trkpt><trkpt lat="42.18402" lon="4.5973426"><ele>0.0</ele><time>2026-04-30T15:43:04.997Z</time></trkpt><trkpt lat="42.1840361" lon="4.5974514"><ele>0.0</ele><time>2026-04-30T15:43:05.996Z</time></trkpt><trkpt lat="42.1840752" lon="4.5975569"><ele>0.0</ele><time>2026-04-30T15:43:06.996Z</time></trkpt><trkpt lat="42.184106" lon="4.597662"><ele>0.0</ele><time>2026-04-30T15:43:07.996Z</time></trkpt><trkpt lat="42.1841488" lon="4.5977695"><ele>0.0</ele><time>2026-04-30T15:43:08.996Z</time></trkpt><trkpt lat="42.1842022" lon="4.5978748"><ele>0.0</ele><time>2026-04-30T15:43:09.996Z</time></trkpt><trkpt lat="42.1842455" lon="4.5979802"><ele>0.0</ele><time>2026-04-30T15:43:10.996Z</time></trkpt><trkpt lat="42.1842817" lon="4.5980864"><ele>0.0</ele><time>2026-04-30T15:43:11.996Z</time></trkpt><trkpt lat="42.1843152" lon="4.5981873"><ele>0.0</ele><time>2026-04-30T15:43:12.997Z</time></trkpt><trkpt lat="42.184348" lon="4.5982844"><ele>0.0</ele><time>2026-04-30T15:43:13.997Z</time></trkpt><trkpt lat="42.1843799" lon="4.5983914"><ele>0.0</ele><time>2026-04-30T15:43:14.996Z</time></trkpt><trkpt lat="42.1844143" lon="4.5984982"><ele>0.0</ele><time>2026-04-30T15:43:15.996Z</time></trkpt><trkpt lat="42.1844968" lon="4.598716"><ele>0.0</ele><time>2026-04-30T15:43:17.997Z</time></trkpt><trkpt lat="42.184527" lon="4.5988274"><ele>0.0</ele><time>2026-04-30T15:43:18.997Z</time></trkpt><trkpt lat="42.1845571" lon="4.5989364"><ele>0.0</ele><time>2026-04-30T15:43:19.997Z</time></trkpt><trkpt lat="42.1845909" lon="4.5990458"><ele>0.0</ele><time>2026-04-30T15:43:20.996Z</time></trkpt><trkpt lat="42.1846275" lon="4.5991546"><ele>0.0</ele><time>2026-04-30T15:43:21.996Z</time></trkpt><trkpt lat="42.1846618" lon="4.5992615"><ele>0.0</ele><time>2026-04-30T15:43:22.996Z</time></trkpt><trkpt lat="42.1846906" lon="4.5993754"><ele>0.0</ele><time>2026-04-30T15:43:23.997Z</time></trkpt><trkpt lat="42.1847229" lon="4.5994801"><ele>0.0</ele><time>2026-04-30T15:43:24.997Z</time></trkpt><trkpt lat="42.1847625" lon="4.5995852"><ele>0.0</ele><time>2026-04-30T15:43:25.997Z</time></trkpt><trkpt lat="42.1847969" lon="4.5996927"><ele>0.0</ele><time>2026-04-30T15:43:26.996Z</time></trkpt><trkpt lat="42.1848303" lon="4.5997998"><ele>0.0</ele><time>2026-04-30T15:43:27.996Z</time></trkpt><trkpt lat="42.1848807" lon="4.5998895"><ele>0.0</ele><time>2026-04-30T15:43:28.997Z</time></trkpt><trkpt lat="42.1849308" lon="4.5999907"><ele>0.0</ele><time>2026-04-30T15:43:29.995Z</time></trkpt><trkpt lat="42.1849669" lon="4.6000954"><ele>0.0</ele><time>2026-04-30T15:43:30.996Z</time></trkpt><trkpt lat="42.1849977" lon="4.6002015"><ele>0.0</ele><time>2026-04-30T15:43:31.995Z</time></trkpt><trkpt lat="42.1850303" lon="4.6003093"><ele>0.0</ele><time>2026-04-30T15:43:32.995Z</time></trkpt><trkpt lat="42.1850621" lon="4.6004161"><ele>0.0</ele><time>2026-04-30T15:43:33.995Z</time></trkpt><trkpt lat="42.1850929" lon="4.6005256"><ele>0.0</ele><time>2026-04-30T15:43:34.995Z</time></trkpt><trkpt lat="42.1851272" lon="4.6006299"><ele>0.0</ele><time>2026-04-30T15:43:35.995Z</time></trkpt><trkpt lat="42.1851559" lon="4.6007375"><ele>0.0</ele><time>2026-04-30T15:43:36.995Z</time></trkpt><trkpt lat="42.1851853" lon="4.6008429"><ele>0.0</ele><time>2026-04-30T15:43:37.995Z</time></trkpt><trkpt lat="42.185254" lon="4.6010663"><ele>0.0</ele><time>2026-04-30T15:43:39.995Z</time></trkpt><trkpt lat="42.1853639" lon="4.6013913"><ele>0.0</ele><time>2026-04-30T15:43:42.996Z</time></trkpt><trkpt lat="42.1854016" lon="4.6014933"><ele>0.0</ele><time>2026-04-30T15:43:43.996Z</time></trkpt><trkpt lat="42.1854355" lon="4.6015983"><ele>0.0</ele><time>2026-04-30T15:43:44.995Z</time></trkpt><trkpt lat="42.1854679" lon="4.6017045"><ele>0.0</ele><time>2026-04-30T15:43:45.996Z</time></trkpt><trkpt lat="42.1854965" lon="4.6018194"><ele>0.0</ele><time>2026-04-30T15:43:46.996Z</time></trkpt><trkpt lat="42.185527" lon="4.6019265"><ele>0.0</ele><time>2026-04-30T15:43:47.995Z</time></trkpt><trkpt lat="42.1855619" lon="4.6020273"><ele>0.0</ele><time>2026-04-30T15:43:48.995Z</time></trkpt><trkpt lat="42.1856068" lon="4.602129"><ele>0.0</ele><time>2026-04-30T15:43:49.996Z</time></trkpt><trkpt lat="42.1856384" lon="4.6022305"><ele>0.0</ele><time>2026-04-30T15:43:50.995Z</time></trkpt><trkpt lat="42.1856711" lon="4.6023404"><ele>0.0</ele><time>2026-04-30T15:43:51.995Z</time></trkpt><trkpt lat="42.1857073" lon="4.6024451"><ele>0.0</ele><time>2026-04-30T15:43:52.996Z</time></trkpt><trkpt lat="42.1857367" lon="4.6025483"><ele>0.0</ele><time>2026-04-30T15:43:53.995Z</time></trkpt><trkpt lat="42.1857761" lon="4.6026503"><ele>0.0</ele><time>2026-04-30T15:43:54.996Z</time></trkpt><trkpt lat="42.1858092" lon="4.6027504"><ele>0.0</ele><time>2026-04-30T15:43:55.996Z</time></trkpt><trkpt lat="42.1858404" lon="4.6028579"><ele>0.0</ele><time>2026-04-30T15:43:56.996Z</time></trkpt><trkpt lat="42.1858599" lon="4.602966"><ele>0.0</ele><time>2026-04-30T15:43:57.995Z</time></trkpt><trkpt lat="42.1858876" lon="4.6030756"><ele>0.0</ele><time>2026-04-30T15:43:58.995Z</time></trkpt><trkpt lat="42.1859186" lon="4.6031843"><ele>0.0</ele><time>2026-04-30T15:43:59.996Z</time></trkpt><trkpt lat="42.1859558" lon="4.6032902"><ele>0.0</ele><time>2026-04-30T15:44:00.995Z</time></trkpt><trkpt lat="42.1860154" lon="4.6035069"><ele>0.0</ele><time>2026-04-30T15:44:02.996Z</time></trkpt><trkpt lat="42.1860436" lon="4.6036081"><ele>0.0</ele><time>2026-04-30T15:44:03.995Z</time></trkpt><trkpt lat="42.1860764" lon="4.6037155"><ele>0.0</ele><time>2026-04-30T15:44:04.996Z</time></trkpt><trkpt lat="42.1861087" lon="4.6038231"><ele>0.0</ele><time>2026-04-30T15:44:05.995Z</time></trkpt><trkpt lat="42.1861315" lon="4.603932"><ele>0.0</ele><time>2026-04-30T15:44:06.995Z</time></trkpt><trkpt lat="42.1861647" lon="4.6040297"><ele>0.0</ele><time>2026-04-30T15:44:07.996Z</time></trkpt><trkpt lat="42.1862144" lon="4.6041223"><ele>0.0</ele><time>2026-04-30T15:44:08.995Z</time></trkpt><trkpt lat="42.1862581" lon="4.6042269"><ele>0.0</ele><time>2026-04-30T15:44:09.996Z</time></trkpt><trkpt lat="42.1863043" lon="4.6043246"><ele>0.0</ele><time>2026-04-30T15:44:10.995Z</time></trkpt><trkpt lat="42.1863835" lon="4.6045222"><ele>0.0</ele><time>2026-04-30T15:44:12.996Z</time></trkpt><trkpt lat="42.1864488" lon="4.6047288"><ele>0.0</ele><time>2026-04-30T15:44:14.996Z</time></trkpt><trkpt lat="42.1864788" lon="4.604836"><ele>0.0</ele><time>2026-04-30T15:44:15.995Z</time></trkpt><trkpt lat="42.1865179" lon="4.6049426"><ele>0.0</ele><time>2026-04-30T15:44:16.995Z</time></trkpt><trkpt lat="42.1865569" lon="4.6050507"><ele>0.0</ele><time>2026-04-30T15:44:17.996Z</time></trkpt><trkpt lat="42.1865979" lon="4.6051548"><ele>0.0</ele><time>2026-04-30T15:44:18.995Z</time></trkpt><trkpt lat="42.1866368" lon="4.6052542"><ele>0.0</ele><time>2026-04-30T15:44:19.996Z</time></trkpt><trkpt lat="42.1866723" lon="4.6053581"><ele>0.0</ele><time>2026-04-30T15:44:20.995Z</time></trkpt><trkpt lat="42.1866987" lon="4.6054688"><ele>0.0</ele><time>2026-04-30T15:44:21.995Z</time></trkpt><trkpt lat="42.1867684" lon="4.6056756"><ele>0.0</ele><time>2026-04-30T15:44:23.995Z</time></trkpt><trkpt lat="42.1868194" lon="4.6057755"><ele>0.0</ele><time>2026-04-30T15:44:24.995Z</time></trkpt><trkpt lat="42.186858" lon="4.6058839"><ele>0.0</ele><time>2026-04-30T15:44:25.996Z</time></trkpt><trkpt lat="42.1868949" lon="4.6059899"><ele>0.0</ele><time>2026-04-30T15:44:26.996Z</time></trkpt><trkpt lat="42.1869317" lon="4.6060966"><ele>0.0</ele><time>2026-04-30T15:44:27.995Z</time></trkpt><trkpt lat="42.1869682" lon="4.6062014"><ele>0.0</ele><time>2026-04-30T15:44:28.995Z</time></trkpt><trkpt lat="42.1870093" lon="4.6063091"><ele>0.0</ele><time>2026-04-30T15:44:29.995Z</time></trkpt><trkpt lat="42.1870499" lon="4.606416"><ele>0.0</ele><time>2026-04-30T15:44:30.995Z</time></trkpt><trkpt lat="42.1870853" lon="4.6065154"><ele>0.0</ele><time>2026-04-30T15:44:31.995Z</time></trkpt><trkpt lat="42.1871181" lon="4.6066164"><ele>0.0</ele><time>2026-04-30T15:44:32.996Z</time></trkpt><trkpt lat="42.1871599" lon="4.6067138"><ele>0.0</ele><time>2026-04-30T15:44:33.995Z</time></trkpt><trkpt lat="42.1872011" lon="4.6068139"><ele>0.0</ele><time>2026-04-30T15:44:34.995Z</time></trkpt><trkpt lat="42.1872458" lon="4.6069123"><ele>0.0</ele><time>2026-04-30T15:44:35.995Z</time></trkpt><trkpt lat="42.1872853" lon="4.6070205"><ele>0.0</ele><time>2026-04-30T15:44:36.995Z</time></trkpt><trkpt lat="42.1873235" lon="4.6071248"><ele>0.0</ele><time>2026-04-30T15:44:37.995Z</time></trkpt><trkpt lat="42.1873549" lon="4.6072295"><ele>0.0</ele><time>2026-04-30T15:44:38.995Z</time></trkpt><trkpt lat="42.1873949" lon="4.6073349"><ele>0.0</ele><time>2026-04-30T15:44:39.996Z</time></trkpt><trkpt lat="42.1874247" lon="4.6074454"><ele>0.0</ele><time>2026-04-30T15:44:40.996Z</time></trkpt><trkpt lat="42.1874519" lon="4.6075627"><ele>0.0</ele><time>2026-04-30T15:44:41.996Z</time></trkpt><trkpt lat="42.1874843" lon="4.6076724"><ele>0.0</ele><time>2026-04-30T15:44:42.995Z</time></trkpt><trkpt lat="42.1875179" lon="4.6077793"><ele>0.0</ele><time>2026-04-30T15:44:43.996Z</time></trkpt><trkpt lat="42.1876159" lon="4.6081006"><ele>0.0</ele><time>2026-04-30T15:44:46.995Z</time></trkpt><trkpt lat="42.1876479" lon="4.6082076"><ele>0.0</ele><time>2026-04-30T15:44:47.995Z</time></trkpt><trkpt lat="42.1876838" lon="4.6083142"><ele>0.0</ele><time>2026-04-30T15:44:48.995Z</time></trkpt><trkpt lat="42.187729" lon="4.6084247"><ele>0.0</ele><time>2026-04-30T15:44:49.996Z</time></trkpt><trkpt lat="42.1877626" lon="4.6085276"><ele>0.0</ele><time>2026-04-30T15:44:50.995Z</time></trkpt><trkpt lat="42.1878025" lon="4.6086264"><ele>0.0</ele><time>2026-04-30T15:44:51.996Z</time></trkpt><trkpt lat="42.1878461" lon="4.6087255"><ele>0.0</ele><time>2026-04-30T15:44:52.995Z</time></trkpt><trkpt lat="42.1878783" lon="4.6088265"><ele>0.0</ele><time>2026-04-30T15:44:53.995Z</time></trkpt><trkpt lat="42.1879251" lon="4.6089212"><ele>0.0</ele><time>2026-04-30T15:44:54.996Z</time></trkpt><trkpt lat="42.1879645" lon="4.6090224"><ele>0.0</ele><time>2026-04-30T15:44:55.995Z</time></trkpt><trkpt lat="42.1880072" lon="4.6091197"><ele>0.0</ele><time>2026-04-30T15:44:56.995Z</time></trkpt><trkpt lat="42.188048" lon="4.6092205"><ele>0.0</ele><time>2026-04-30T15:44:57.996Z</time></trkpt><trkpt lat="42.1880966" lon="4.6093191"><ele>0.0</ele><time>2026-04-30T15:44:58.996Z</time></trkpt><trkpt lat="42.1881426" lon="4.6094232"><ele>0.0</ele><time>2026-04-30T15:44:59.996Z</time></trkpt><trkpt lat="42.1881862" lon="4.6095197"><ele>0.0</ele><time>2026-04-30T15:45:00.996Z</time></trkpt><trkpt lat="42.1882322" lon="4.6096164"><ele>0.0</ele><time>2026-04-30T15:45:01.995Z</time></trkpt><trkpt lat="42.1882719" lon="4.6097228"><ele>0.0</ele><time>2026-04-30T15:45:02.995Z</time></trkpt><trkpt lat="42.1883148" lon="4.6098249"><ele>0.0</ele><time>2026-04-30T15:45:03.995Z</time></trkpt><trkpt lat="42.1883538" lon="4.6099272"><ele>0.0</ele><time>2026-04-30T15:45:04.995Z</time></trkpt><trkpt lat="42.188388" lon="4.6100318"><ele>0.0</ele><time>2026-04-30T15:45:05.995Z</time></trkpt><trkpt lat="42.1884236" lon="4.6101329"><ele>0.0</ele><time>2026-04-30T15:45:06.995Z</time></trkpt><trkpt lat="42.1884986" lon="4.6103366"><ele>0.0</ele><time>2026-04-30T15:45:08.995Z</time></trkpt><trkpt lat="42.1885373" lon="4.6104441"><ele>0.0</ele><time>2026-04-30T15:45:09.995Z</time></trkpt><trkpt lat="42.1885714" lon="4.6105523"><ele>0.0</ele><time>2026-04-30T15:45:10.995Z</time></trkpt><trkpt lat="42.1886072" lon="4.6106625"><ele>0.0</ele><time>2026-04-30T15:45:11.996Z</time></trkpt><trkpt lat="42.1886394" lon="4.6107697"><ele>0.0</ele><time>2026-04-30T15:45:12.995Z</time></trkpt><trkpt lat="42.188678" lon="4.6108704"><ele>0.0</ele><time>2026-04-30T15:45:13.995Z</time></trkpt><trkpt lat="42.1887152" lon="4.6109795"><ele>0.0</ele><time>2026-04-30T15:45:14.996Z</time></trkpt><trkpt lat="42.1887549" lon="4.6110904"><ele>0.0</ele><time>2026-04-30T15:45:15.996Z</time></trkpt><trkpt lat="42.1887963" lon="4.611199"><ele>0.0</ele><time>2026-04-30T15:45:16.996Z</time></trkpt><trkpt lat="42.1888625" lon="4.6114143"><ele>0.0</ele><time>2026-04-30T15:45:18.995Z</time></trkpt><trkpt lat="42.1888899" lon="4.6115255"><ele>0.0</ele><time>2026-04-30T15:45:19.995Z</time></trkpt><trkpt lat="42.1889169" lon="4.6116328"><ele>0.0</ele><time>2026-04-30T15:45:20.996Z</time></trkpt><trkpt lat="42.1889422" lon="4.611741"><ele>0.0</ele><time>2026-04-30T15:45:21.996Z</time></trkpt><trkpt lat="42.1889769" lon="4.6118434"><ele>0.0</ele><time>2026-04-30T15:45:22.995Z</time></trkpt><trkpt lat="42.1890173" lon="4.6119393"><ele>0.0</ele><time>2026-04-30T15:45:23.996Z</time></trkpt><trkpt lat="42.1890546" lon="4.6120449"><ele>0.0</ele><time>2026-04-30T15:45:24.995Z</time></trkpt><trkpt lat="42.18909" lon="4.612147"><ele>0.0</ele><time>2026-04-30T15:45:25.995Z</time></trkpt><trkpt lat="42.1891264" lon="4.6122497"><ele>0.0</ele><time>2026-04-30T15:45:26.996Z</time></trkpt><trkpt lat="42.1891559" lon="4.6123621"><ele>0.0</ele><time>2026-04-30T15:45:27.996Z</time></trkpt><trkpt lat="42.1892181" lon="4.6125796"><ele>0.0</ele><time>2026-04-30T15:45:29.995Z</time></trkpt><trkpt lat="42.1892413" lon="4.6126896"><ele>0.0</ele><time>2026-04-30T15:45:30.995Z</time></trkpt><trkpt lat="42.1892644" lon="4.6128009"><ele>0.0</ele><time>2026-04-30T15:45:31.995Z</time></trkpt><trkpt lat="42.1892968" lon="4.6129122"><ele>0.0</ele><time>2026-04-30T15:45:32.996Z</time></trkpt><trkpt lat="42.1893288" lon="4.6130224"><ele>0.0</ele><time>2026-04-30T15:45:33.996Z</time></trkpt><trkpt lat="42.1893559" lon="4.6131312"><ele>0.0</ele><time>2026-04-30T15:45:34.996Z</time></trkpt><trkpt lat="42.1893828" lon="4.6132421"><ele>0.0</ele><time>2026-04-30T15:45:35.995Z</time></trkpt><trkpt lat="42.189418" lon="4.6133469"><ele>0.0</ele><time>2026-04-30T15:45:36.995Z</time></trkpt><trkpt lat="42.1894564" lon="4.6134547"><ele>0.0</ele><time>2026-04-30T15:45:37.995Z</time></trkpt><trkpt lat="42.189493" lon="4.6135628"><ele>0.0</ele><time>2026-04-30T15:45:38.995Z</time></trkpt><trkpt lat="42.1895309" lon="4.6136698"><ele>0.0</ele><time>2026-04-30T15:45:39.996Z</time></trkpt><trkpt lat="42.1895719" lon="4.6137737"><ele>0.0</ele><time>2026-04-30T15:45:40.996Z</time></trkpt><trkpt lat="42.1896082" lon="4.613874"><ele>0.0</ele><time>2026-04-30T15:45:41.996Z</time></trkpt><trkpt lat="42.1896468" lon="4.6139726"><ele>0.0</ele><time>2026-04-30T15:45:42.995Z</time></trkpt><trkpt lat="42.1896853" lon="4.6140708"><ele>0.0</ele><time>2026-04-30T15:45:43.996Z</time></trkpt><trkpt lat="42.1897487" lon="4.6141531"><ele>0.0</ele><time>2026-04-30T15:45:44.996Z</time></trkpt><trkpt lat="42.1897941" lon="4.614255"><ele>0.0</ele><time>2026-04-30T15:45:45.995Z</time></trkpt><trkpt lat="42.1898287" lon="4.614361"><ele>0.0</ele><time>2026-04-30T15:45:46.996Z</time></trkpt><trkpt lat="42.1898619" lon="4.6144707"><ele>0.0</ele><time>2026-04-30T15:45:47.996Z</time></trkpt><trkpt lat="42.189895" lon="4.6145764"><ele>0.0</ele><time>2026-04-30T15:45:48.996Z</time></trkpt><trkpt lat="42.1899646" lon="4.6147858"><ele>0.0</ele><time>2026-04-30T15:45:50.995Z</time></trkpt><trkpt lat="42.1900139" lon="4.6150152"><ele>0.0</ele><time>2026-04-30T15:45:52.995Z</time></trkpt><trkpt lat="42.1900406" lon="4.6151229"><ele>0.0</ele><time>2026-04-30T15:45:53.995Z</time></trkpt><trkpt lat="42.1900797" lon="4.6152203"><ele>0.0</ele><time>2026-04-30T15:45:54.996Z</time></trkpt><trkpt lat="42.1901159" lon="4.6153252"><ele>0.0</ele><time>2026-04-30T15:45:55.996Z</time></trkpt><trkpt lat="42.1901498" lon="4.6154285"><ele>0.0</ele><time>2026-04-30T15:45:56.995Z</time></trkpt><trkpt lat="42.1901908" lon="4.6155374"><ele>0.0</ele><time>2026-04-30T15:45:57.995Z</time></trkpt><trkpt lat="42.1902267" lon="4.6156402"><ele>0.0</ele><time>2026-04-30T15:45:58.996Z</time></trkpt><trkpt lat="42.1902576" lon="4.6157393"><ele>0.0</ele><time>2026-04-30T15:45:59.996Z</time></trkpt><trkpt lat="42.1902855" lon="4.615841"><ele>0.0</ele><time>2026-04-30T15:46:00.996Z</time></trkpt><trkpt lat="42.190314" lon="4.6159421"><ele>0.0</ele><time>2026-04-30T15:46:01.995Z</time></trkpt><trkpt lat="42.1903381" lon="4.6160399"><ele>0.0</ele><time>2026-04-30T15:46:02.996Z</time></trkpt><trkpt lat="42.1903501" lon="4.6161509"><ele>0.0</ele><time>2026-04-30T15:46:03.996Z</time></trkpt><trkpt lat="42.1904004" lon="4.6162608"><ele>0.0</ele><time>2026-04-30T15:46:04.996Z</time></trkpt><trkpt lat="42.1904381" lon="4.6163688"><ele>0.0</ele><time>2026-04-30T15:46:05.996Z</time></trkpt><trkpt lat="42.1904634" lon="4.6164775"><ele>0.0</ele><time>2026-04-30T15:46:06.995Z</time></trkpt><trkpt lat="42.1904954" lon="4.6165817"><ele>0.0</ele><time>2026-04-30T15:46:07.995Z</time></trkpt><trkpt lat="42.1905314" lon="4.6166838"><ele>0.0</ele><time>2026-04-30T15:46:08.995Z</time></trkpt><trkpt lat="42.1905654" lon="4.6167842"><ele>0.0</ele><time>2026-04-30T15:46:09.996Z</time></trkpt><trkpt lat="42.1905935" lon="4.6168841"><ele>0.0</ele><time>2026-04-30T15:46:10.995Z</time></trkpt><trkpt lat="42.1906244" lon="4.616981"><ele>0.0</ele><time>2026-04-30T15:46:11.996Z</time></trkpt><trkpt lat="42.1906886" lon="4.6171969"><ele>0.0</ele><time>2026-04-30T15:46:13.996Z</time></trkpt><trkpt lat="42.1907244" lon="4.6173108"><ele>0.0</ele><time>2026-04-30T15:46:14.995Z</time></trkpt><trkpt lat="42.1907614" lon="4.6174196"><ele>0.0</ele><time>2026-04-30T15:46:15.996Z</time></trkpt><trkpt lat="42.1907966" lon="4.6175278"><ele>0.0</ele><time>2026-04-30T15:46:16.995Z</time></trkpt><trkpt lat="42.1908319" lon="4.6176304"><ele>0.0</ele><time>2026-04-30T15:46:17.995Z</time></trkpt><trkpt lat="42.1908653" lon="4.6177346"><ele>0.0</ele><time>2026-04-30T15:46:18.995Z</time></trkpt><trkpt lat="42.1908983" lon="4.6178399"><ele>0.0</ele><time>2026-04-30T15:46:19.996Z</time></trkpt><trkpt lat="42.1909333" lon="4.6179417"><ele>0.0</ele><time>2026-04-30T15:46:20.995Z</time></trkpt><trkpt lat="42.1909711" lon="4.6180474"><ele>0.0</ele><time>2026-04-30T15:46:21.996Z</time></trkpt><trkpt lat="42.1910075" lon="4.618157"><ele>0.0</ele><time>2026-04-30T15:46:22.996Z</time></trkpt><trkpt lat="42.1910473" lon="4.61827"><ele>0.0</ele><time>2026-04-30T15:46:23.995Z</time></trkpt><trkpt lat="42.1910845" lon="4.6183765"><ele>0.0</ele><time>2026-04-30T15:46:24.996Z</time></trkpt><trkpt lat="42.1911325" lon="4.6184786"><ele>0.0</ele><time>2026-04-30T15:46:25.996Z</time></trkpt><trkpt lat="42.1911724" lon="4.6185792"><ele>0.0</ele><time>2026-04-30T15:46:26.996Z</time></trkpt><trkpt lat="42.1912222" lon="4.6186779"><ele>0.0</ele><time>2026-04-30T15:46:27.995Z</time></trkpt><trkpt lat="42.1912999" lon="4.6187781"><ele>0.0</ele><time>2026-04-30T15:46:28.996Z</time></trkpt><trkpt lat="42.1913492" lon="4.6188794"><ele>0.0</ele><time>2026-04-30T15:46:29.996Z</time></trkpt><trkpt lat="42.1913919" lon="4.618978"><ele>0.0</ele><time>2026-04-30T15:46:30.995Z</time></trkpt><trkpt lat="42.1914338" lon="4.619073"><ele>0.0</ele><time>2026-04-30T15:46:31.996Z</time></trkpt><trkpt lat="42.1914731" lon="4.6191707"><ele>0.0</ele><time>2026-04-30T15:46:32.996Z</time></trkpt><trkpt lat="42.1915526" lon="4.6193772"><ele>0.0</ele><time>2026-04-30T15:46:34.995Z</time></trkpt><trkpt lat="42.1915942" lon="4.6194801"><ele>0.0</ele><time>2026-04-30T15:46:35.996Z</time></trkpt><trkpt lat="42.1916285" lon="4.6195832"><ele>0.0</ele><time>2026-04-30T15:46:36.995Z</time></trkpt><trkpt lat="42.1916649" lon="4.6196767"><ele>0.0</ele><time>2026-04-30T15:46:37.996Z</time></trkpt><trkpt lat="42.1917016" lon="4.6197859"><ele>0.0</ele><time>2026-04-30T15:46:38.995Z</time></trkpt><trkpt lat="42.1917369" lon="4.6198902"><ele>0.0</ele><time>2026-04-30T15:46:39.996Z</time></trkpt><trkpt lat="42.1917732" lon="4.6199919"><ele>0.0</ele><time>2026-04-30T15:46:40.995Z</time></trkpt><trkpt lat="42.1918145" lon="4.6200934"><ele>0.0</ele><time>2026-04-30T15:46:41.995Z</time></trkpt><trkpt lat="42.1918521" lon="4.6201964"><ele>0.0</ele><time>2026-04-30T15:46:42.995Z</time></trkpt><trkpt lat="42.1918939" lon="4.6202985"><ele>0.0</ele><time>2026-04-30T15:46:43.996Z</time></trkpt><trkpt lat="42.1919349" lon="4.6204003"><ele>0.0</ele><time>2026-04-30T15:46:44.995Z</time></trkpt><trkpt lat="42.1919709" lon="4.6205062"><ele>0.0</ele><time>2026-04-30T15:46:45.995Z</time></trkpt><trkpt lat="42.1920128" lon="4.62061"><ele>0.0</ele><time>2026-04-30T15:46:46.995Z</time></trkpt><trkpt lat="42.1920543" lon="4.6207207"><ele>0.0</ele><time>2026-04-30T15:46:47.996Z</time></trkpt><trkpt lat="42.1920929" lon="4.6208379"><ele>0.0</ele><time>2026-04-30T15:46:48.995Z</time></trkpt><trkpt lat="42.1921344" lon="4.6209433"><ele>0.0</ele><time>2026-04-30T15:46:49.996Z</time></trkpt><trkpt lat="42.1921733" lon="4.6210467"><ele>0.0</ele><time>2026-04-30T15:46:50.996Z</time></trkpt><trkpt lat="42.1922046" lon="4.6211512"><ele>0.0</ele><time>2026-04-30T15:46:51.995Z</time></trkpt><trkpt lat="42.1922405" lon="4.6212591"><ele>0.0</ele><time>2026-04-30T15:46:52.995Z</time></trkpt><trkpt lat="42.1922957" lon="4.6214652"><ele>0.0</ele><time>2026-04-30T15:46:54.996Z</time></trkpt><trkpt lat="42.1923485" lon="4.6216704"><ele>0.0</ele><time>2026-04-30T15:46:56.996Z</time></trkpt><trkpt lat="42.1923811" lon="4.6217761"><ele>0.0</ele><time>2026-04-30T15:46:57.995Z</time></trkpt><trkpt lat="42.1924155" lon="4.6218784"><ele>0.0</ele><time>2026-04-30T15:46:58.995Z</time></trkpt><trkpt lat="42.1924456" lon="4.6219799"><ele>0.0</ele><time>2026-04-30T15:46:59.996Z</time></trkpt><trkpt lat="42.1924788" lon="4.6220816"><ele>0.0</ele><time>2026-04-30T15:47:00.995Z</time></trkpt><trkpt lat="42.1925132" lon="4.6221891"><ele>0.0</ele><time>2026-04-30T15:47:01.996Z</time></trkpt><trkpt lat="42.1925482" lon="4.6222977"><ele>0.0</ele><time>2026-04-30T15:47:02.995Z</time></trkpt><trkpt lat="42.1925816" lon="4.6224075"><ele>0.0</ele><time>2026-04-30T15:47:03.996Z</time></trkpt><trkpt lat="42.1926148" lon="4.6225177"><ele>0.0</ele><time>2026-04-30T15:47:04.995Z</time></trkpt><trkpt lat="42.1926479" lon="4.6226245"><ele>0.0</ele><time>2026-04-30T15:47:05.995Z</time></trkpt><trkpt lat="42.1926862" lon="4.622731"><ele>0.0</ele><time>2026-04-30T15:47:06.995Z</time></trkpt><trkpt lat="42.1927276" lon="4.622835"><ele>0.0</ele><time>2026-04-30T15:47:07.995Z</time></trkpt><trkpt lat="42.1927631" lon="4.6229428"><ele>0.0</ele><time>2026-04-30T15:47:08.995Z</time></trkpt><trkpt lat="42.1928023" lon="4.6230513"><ele>0.0</ele><time>2026-04-30T15:47:09.995Z</time></trkpt><trkpt lat="42.1928382" lon="4.6231584"><ele>0.0</ele><time>2026-04-30T15:47:10.995Z</time></trkpt><trkpt lat="42.1928717" lon="4.6232665"><ele>0.0</ele><time>2026-04-30T15:47:11.995Z</time></trkpt><trkpt lat="42.192905" lon="4.6233705"><ele>0.0</ele><time>2026-04-30T15:47:12.996Z</time></trkpt><trkpt lat="42.1929386" lon="4.6234677"><ele>0.0</ele><time>2026-04-30T15:47:13.996Z</time></trkpt><trkpt lat="42.1929719" lon="4.6235716"><ele>0.0</ele><time>2026-04-30T15:47:14.996Z</time></trkpt><trkpt lat="42.1930098" lon="4.6236762"><ele>0.0</ele><time>2026-04-30T15:47:15.995Z</time></trkpt><trkpt lat="42.193094" lon="4.6238866"><ele>0.0</ele><time>2026-04-30T15:47:17.995Z</time></trkpt><trkpt lat="42.1931349" lon="4.6239871"><ele>0.0</ele><time>2026-04-30T15:47:18.995Z</time></trkpt><trkpt lat="42.1931736" lon="4.6240899"><ele>0.0</ele><time>2026-04-30T15:47:19.996Z</time></trkpt><trkpt lat="42.193212" lon="4.6241946"><ele>0.0</ele><time>2026-04-30T15:47:20.995Z</time></trkpt><trkpt lat="42.1932517" lon="4.624293"><ele>0.0</ele><time>2026-04-30T15:47:21.995Z</time></trkpt><trkpt lat="42.1932953" lon="4.6243882"><ele>0.0</ele><time>2026-04-30T15:47:22.996Z</time></trkpt><trkpt lat="42.1933361" lon="4.6244912"><ele>0.0</ele><time>2026-04-30T15:47:23.995Z</time></trkpt><trkpt lat="42.1933778" lon="4.6245891"><ele>0.0</ele><time>2026-04-30T15:47:24.996Z</time></trkpt><trkpt lat="42.1934598" lon="4.6248012"><ele>0.0</ele><time>2026-04-30T15:47:26.995Z</time></trkpt><trkpt lat="42.1934942" lon="4.6249079"><ele>0.0</ele><time>2026-04-30T15:47:27.996Z</time></trkpt><trkpt lat="42.1935301" lon="4.6250133"><ele>0.0</ele><time>2026-04-30T15:47:28.995Z</time></trkpt><trkpt lat="42.1935686" lon="4.6251151"><ele>0.0</ele><time>2026-04-30T15:47:29.996Z</time></trkpt><trkpt lat="42.1936026" lon="4.6252127"><ele>0.0</ele><time>2026-04-30T15:47:30.995Z</time></trkpt><trkpt lat="42.1936357" lon="4.625322"><ele>0.0</ele><time>2026-04-30T15:47:31.995Z</time></trkpt><trkpt lat="42.1936734" lon="4.6254338"><ele>0.0</ele><time>2026-04-30T15:47:32.996Z</time></trkpt><trkpt lat="42.1937135" lon="4.6255439"><ele>0.0</ele><time>2026-04-30T15:47:33.996Z</time></trkpt><trkpt lat="42.1937521" lon="4.6256483"><ele>0.0</ele><time>2026-04-30T15:47:34.995Z</time></trkpt><trkpt lat="42.1937886" lon="4.6257533"><ele>0.0</ele><time>2026-04-30T15:47:35.995Z</time></trkpt><trkpt lat="42.1938196" lon="4.6258598"><ele>0.0</ele><time>2026-04-30T15:47:36.994Z</time></trkpt><trkpt lat="42.1938888" lon="4.6260655"><ele>0.0</ele><time>2026-04-30T15:47:38.994Z</time></trkpt><trkpt lat="42.1939252" lon="4.62617"><ele>0.0</ele><time>2026-04-30T15:47:39.994Z</time></trkpt><trkpt lat="42.1939645" lon="4.6262793"><ele>0.0</ele><time>2026-04-30T15:47:40.995Z</time></trkpt><trkpt lat="42.1940031" lon="4.6263833"><ele>0.0</ele><time>2026-04-30T15:47:41.994Z</time></trkpt><trkpt lat="42.19404" lon="4.6264879"><ele>0.0</ele><time>2026-04-30T15:47:42.994Z</time></trkpt><trkpt lat="42.1940812" lon="4.626597"><ele>0.0</ele><time>2026-04-30T15:47:43.995Z</time></trkpt><trkpt lat="42.1941285" lon="4.6267042"><ele>0.0</ele><time>2026-04-30T15:47:44.994Z</time></trkpt><trkpt lat="42.1941682" lon="4.6268082"><ele>0.0</ele><time>2026-04-30T15:47:45.995Z</time></trkpt><trkpt lat="42.1942051" lon="4.6269055"><ele>0.0</ele><time>2026-04-30T15:47:46.994Z</time></trkpt><trkpt lat="42.1942452" lon="4.6270072"><ele>0.0</ele><time>2026-04-30T15:47:47.995Z</time></trkpt><trkpt lat="42.1942794" lon="4.6271076"><ele>0.0</ele><time>2026-04-30T15:47:48.994Z</time></trkpt><trkpt lat="42.1943227" lon="4.6272106"><ele>0.0</ele><time>2026-04-30T15:47:49.995Z</time></trkpt><trkpt lat="42.1943619" lon="4.6273121"><ele>0.0</ele><time>2026-04-30T15:47:50.994Z</time></trkpt><trkpt lat="42.194393" lon="4.6274069"><ele>0.0</ele><time>2026-04-30T15:47:51.994Z</time></trkpt><trkpt lat="42.194427" lon="4.6275085"><ele>0.0</ele><time>2026-04-30T15:47:52.995Z</time></trkpt><trkpt lat="42.1944651" lon="4.6276116"><ele>0.0</ele><time>2026-04-30T15:47:53.994Z</time></trkpt><trkpt lat="42.194502" lon="4.627722"><ele>0.0</ele><time>2026-04-30T15:47:54.994Z</time></trkpt><trkpt lat="42.1945359" lon="4.6278293"><ele>0.0</ele><time>2026-04-30T15:47:55.995Z</time></trkpt><trkpt lat="42.1945703" lon="4.6279376"><ele>0.0</ele><time>2026-04-30T15:47:56.994Z</time></trkpt><trkpt lat="42.194683" lon="4.6282549"><ele>0.0</ele><time>2026-04-30T15:47:59.995Z</time></trkpt><trkpt lat="42.1947206" lon="4.6283599"><ele>0.0</ele><time>2026-04-30T15:48:00.994Z</time></trkpt><trkpt lat="42.1947612" lon="4.6284634"><ele>0.0</ele><time>2026-04-30T15:48:01.995Z</time></trkpt><trkpt lat="42.1947999" lon="4.6285694"><ele>0.0</ele><time>2026-04-30T15:48:02.995Z</time></trkpt><trkpt lat="42.1948392" lon="4.6286807"><ele>0.0</ele><time>2026-04-30T15:48:03.994Z</time></trkpt><trkpt lat="42.1948767" lon="4.6287865"><ele>0.0</ele><time>2026-04-30T15:48:04.995Z</time></trkpt><trkpt lat="42.194914" lon="4.628886"><ele>0.0</ele><time>2026-04-30T15:48:05.994Z</time></trkpt><trkpt lat="42.1949487" lon="4.6289959"><ele>0.0</ele><time>2026-04-30T15:48:06.994Z</time></trkpt><trkpt lat="42.1949737" lon="4.6290986"><ele>0.0</ele><time>2026-04-30T15:48:07.994Z</time></trkpt><trkpt lat="42.1950028" lon="4.6292072"><ele>0.0</ele><time>2026-04-30T15:48:08.995Z</time></trkpt><trkpt lat="42.1950364" lon="4.629316"><ele>0.0</ele><time>2026-04-30T15:48:09.994Z</time></trkpt><trkpt lat="42.19507" lon="4.629431"><ele>0.0</ele><time>2026-04-30T15:48:10.994Z</time></trkpt><trkpt lat="42.1951037" lon="4.6295421"><ele>0.0</ele><time>2026-04-30T15:48:11.994Z</time></trkpt><trkpt lat="42.1951413" lon="4.6296498"><ele>0.0</ele><time>2026-04-30T15:48:12.995Z</time></trkpt><trkpt lat="42.1951783" lon="4.6297553"><ele>0.0</ele><time>2026-04-30T15:48:13.995Z</time></trkpt><trkpt lat="42.1952134" lon="4.6298647"><ele>0.0</ele><time>2026-04-30T15:48:14.994Z</time></trkpt><trkpt lat="42.195247" lon="4.6299674"><ele>0.0</ele><time>2026-04-30T15:48:15.994Z</time></trkpt><trkpt lat="42.1952803" lon="4.6300676"><ele>0.0</ele><time>2026-04-30T15:48:16.995Z</time></trkpt><trkpt lat="42.1953125" lon="4.6301643"><ele>0.0</ele><time>2026-04-30T15:48:17.995Z</time></trkpt><trkpt lat="42.1953428" lon="4.6302714"><ele>0.0</ele><time>2026-04-30T15:48:18.995Z</time></trkpt><trkpt lat="42.1954115" lon="4.6304837"><ele>0.0</ele><time>2026-04-30T15:48:20.994Z</time></trkpt><trkpt lat="42.1954394" lon="4.6305944"><ele>0.0</ele><time>2026-04-30T15:48:21.994Z</time></trkpt><trkpt lat="42.1954759" lon="4.6306987"><ele>0.0</ele><time>2026-04-30T15:48:22.994Z</time></trkpt><trkpt lat="42.1955205" lon="4.6308091"><ele>0.0</ele><time>2026-04-30T15:48:23.995Z</time></trkpt><trkpt lat="42.1955543" lon="4.6309106"><ele>0.0</ele><time>2026-04-30T15:48:24.995Z</time></trkpt><trkpt lat="42.1955875" lon="4.6310164"><ele>0.0</ele><time>2026-04-30T15:48:25.994Z</time></trkpt><trkpt lat="42.1956185" lon="4.6311191"><ele>0.0</ele><time>2026-04-30T15:48:26.995Z</time></trkpt><trkpt lat="42.1956603" lon="4.6312125"><ele>0.0</ele><time>2026-04-30T15:48:27.995Z</time></trkpt><trkpt lat="42.195698" lon="4.6313181"><ele>0.0</ele><time>2026-04-30T15:48:28.995Z</time></trkpt><trkpt lat="42.1957291" lon="4.6314203"><ele>0.0</ele><time>2026-04-30T15:48:29.994Z</time></trkpt><trkpt lat="42.1957621" lon="4.6315223"><ele>0.0</ele><time>2026-04-30T15:48:30.994Z</time></trkpt><trkpt lat="42.1957997" lon="4.6316279"><ele>0.0</ele><time>2026-04-30T15:48:31.994Z</time></trkpt><trkpt lat="42.1958352" lon="4.6317418"><ele>0.0</ele><time>2026-04-30T15:48:32.994Z</time></trkpt><trkpt lat="42.1958771" lon="4.6318343"><ele>0.0</ele><time>2026-04-30T15:48:33.995Z</time></trkpt><trkpt lat="42.1959105" lon="4.631937"><ele>0.0</ele><time>2026-04-30T15:48:34.995Z</time></trkpt><trkpt lat="42.195942" lon="4.6320418"><ele>0.0</ele><time>2026-04-30T15:48:35.995Z</time></trkpt><trkpt lat="42.195971" lon="4.6321453"><ele>0.0</ele><time>2026-04-30T15:48:36.994Z</time></trkpt><trkpt lat="42.1960018" lon="4.6322535"><ele>0.0</ele><time>2026-04-30T15:48:37.994Z</time></trkpt><trkpt lat="42.1960324" lon="4.6323653"><ele>0.0</ele><time>2026-04-30T15:48:38.995Z</time></trkpt><trkpt lat="42.1960696" lon="4.6324661"><ele>0.0</ele><time>2026-04-30T15:48:39.995Z</time></trkpt><trkpt lat="42.1961465" lon="4.6326715"><ele>0.0</ele><time>2026-04-30T15:48:41.995Z</time></trkpt><trkpt lat="42.1961814" lon="4.6327811"><ele>0.0</ele><time>2026-04-30T15:48:42.994Z</time></trkpt><trkpt lat="42.1962176" lon="4.6328913"><ele>0.0</ele><time>2026-04-30T15:48:43.994Z</time></trkpt><trkpt lat="42.1962523" lon="4.6329972"><ele>0.0</ele><time>2026-04-30T15:48:44.995Z</time></trkpt><trkpt lat="42.1962874" lon="4.6330989"><ele>0.0</ele><time>2026-04-30T15:48:45.995Z</time></trkpt><trkpt lat="42.1963184" lon="4.6331959"><ele>0.0</ele><time>2026-04-30T15:48:46.994Z</time></trkpt><trkpt lat="42.1963571" lon="4.6332961"><ele>0.0</ele><time>2026-04-30T15:48:47.994Z</time></trkpt><trkpt lat="42.1963942" lon="4.6333986"><ele>0.0</ele><time>2026-04-30T15:48:48.995Z</time></trkpt><trkpt lat="42.1964339" lon="4.6335022"><ele>0.0</ele><time>2026-04-30T15:48:49.994Z</time></trkpt><trkpt lat="42.196467" lon="4.6336097"><ele>0.0</ele><time>2026-04-30T15:48:50.995Z</time></trkpt><trkpt lat="42.1965024" lon="4.633715"><ele>0.0</ele><time>2026-04-30T15:48:51.995Z</time></trkpt><trkpt lat="42.1965351" lon="4.6338186"><ele>0.0</ele><time>2026-04-30T15:48:52.995Z</time></trkpt><trkpt lat="42.1965701" lon="4.633919"><ele>0.0</ele><time>2026-04-30T15:48:53.995Z</time></trkpt><trkpt lat="42.1966096" lon="4.6340247"><ele>0.0</ele><time>2026-04-30T15:48:54.994Z</time></trkpt><trkpt lat="42.1966464" lon="4.6341343"><ele>0.0</ele><time>2026-04-30T15:48:55.995Z</time></trkpt><trkpt lat="42.1966785" lon="4.6342384"><ele>0.0</ele><time>2026-04-30T15:48:56.994Z</time></trkpt><trkpt lat="42.1967119" lon="4.6343447"><ele>0.0</ele><time>2026-04-30T15:48:57.995Z</time></trkpt><trkpt lat="42.1967499" lon="4.6344513"><ele>0.0</ele><time>2026-04-30T15:48:58.995Z</time></trkpt><trkpt lat="42.1967895" lon="4.6345576"><ele>0.0</ele><time>2026-04-30T15:48:59.994Z</time></trkpt><trkpt lat="42.1968266" lon="4.634669"><ele>0.0</ele><time>2026-04-30T15:49:00.994Z</time></trkpt><trkpt lat="42.1969393" lon="4.6349796"><ele>0.0</ele><time>2026-04-30T15:49:03.994Z</time></trkpt><trkpt lat="42.1969709" lon="4.6350849"><ele>0.0</ele><time>2026-04-30T15:49:04.995Z</time></trkpt><trkpt lat="42.1970041" lon="4.635187"><ele>0.0</ele><time>2026-04-30T15:49:05.994Z</time></trkpt><trkpt lat="42.1970412" lon="4.6352958"><ele>0.0</ele><time>2026-04-30T15:49:06.995Z</time></trkpt><trkpt lat="42.1970748" lon="4.6354027"><ele>0.0</ele><time>2026-04-30T15:49:07.994Z</time></trkpt><trkpt lat="42.1971099" lon="4.6355068"><ele>0.0</ele><time>2026-04-30T15:49:08.994Z</time></trkpt><trkpt lat="42.1971335" lon="4.6356119"><ele>0.0</ele><time>2026-04-30T15:49:09.994Z</time></trkpt><trkpt lat="42.1971608" lon="4.6357169"><ele>0.0</ele><time>2026-04-30T15:49:10.995Z</time></trkpt><trkpt lat="42.1971934" lon="4.635823"><ele>0.0</ele><time>2026-04-30T15:49:11.995Z</time></trkpt><trkpt lat="42.1972297" lon="4.6359325"><ele>0.0</ele><time>2026-04-30T15:49:12.995Z</time></trkpt><trkpt lat="42.1972621" lon="4.6360424"><ele>0.0</ele><time>2026-04-30T15:49:13.994Z</time></trkpt><trkpt lat="42.1972933" lon="4.6361496"><ele>0.0</ele><time>2026-04-30T15:49:14.995Z</time></trkpt><trkpt lat="42.1973221" lon="4.636254"><ele>0.0</ele><time>2026-04-30T15:49:15.994Z</time></trkpt><trkpt lat="42.1973532" lon="4.6363589"><ele>0.0</ele><time>2026-04-30T15:49:16.994Z</time></trkpt><trkpt lat="42.1973852" lon="4.6364594"><ele>0.0</ele><time>2026-04-30T15:49:17.995Z</time></trkpt><trkpt lat="42.1974209" lon="4.6365635"><ele>0.0</ele><time>2026-04-30T15:49:18.995Z</time></trkpt><trkpt lat="42.1974533" lon="4.6366632"><ele>0.0</ele><time>2026-04-30T15:49:19.994Z</time></trkpt><trkpt lat="42.1974853" lon="4.6367657"><ele>0.0</ele><time>2026-04-30T15:49:20.994Z</time></trkpt><trkpt lat="42.1975198" lon="4.6368646"><ele>0.0</ele><time>2026-04-30T15:49:21.994Z</time></trkpt><trkpt lat="42.1975631" lon="4.636964"><ele>0.0</ele><time>2026-04-30T15:49:22.994Z</time></trkpt><trkpt lat="42.1976344" lon="4.6371798"><ele>0.0</ele><time>2026-04-30T15:49:24.994Z</time></trkpt><trkpt lat="42.1976657" lon="4.6372893"><ele>0.0</ele><time>2026-04-30T15:49:25.995Z</time></trkpt><trkpt lat="42.1977001" lon="4.6373935"><ele>0.0</ele><time>2026-04-30T15:49:26.994Z</time></trkpt><trkpt lat="42.1977361" lon="4.6374997"><ele>0.0</ele><time>2026-04-30T15:49:27.995Z</time></trkpt><trkpt lat="42.1977728" lon="4.6376081"><ele>0.0</ele><time>2026-04-30T15:49:28.994Z</time></trkpt><trkpt lat="42.1978084" lon="4.6377162"><ele>0.0</ele><time>2026-04-30T15:49:29.995Z</time></trkpt><trkpt lat="42.197845" lon="4.6378231"><ele>0.0</ele><time>2026-04-30T15:49:30.994Z</time></trkpt><trkpt lat="42.1978819" lon="4.6379241"><ele>0.0</ele><time>2026-04-30T15:49:31.994Z</time></trkpt><trkpt lat="42.1979153" lon="4.6380271"><ele>0.0</ele><time>2026-04-30T15:49:32.995Z</time></trkpt><trkpt lat="42.1979975" lon="4.6382394"><ele>0.0</ele><time>2026-04-30T15:49:34.994Z</time></trkpt><trkpt lat="42.1980361" lon="4.638351"><ele>0.0</ele><time>2026-04-30T15:49:35.994Z</time></trkpt><trkpt lat="42.1980749" lon="4.6384595"><ele>0.0</ele><time>2026-04-30T15:49:36.995Z</time></trkpt><trkpt lat="42.1981132" lon="4.63856"><ele>0.0</ele><time>2026-04-30T15:49:37.995Z</time></trkpt><trkpt lat="42.1981523" lon="4.6386636"><ele>0.0</ele><time>2026-04-30T15:49:38.994Z</time></trkpt><trkpt lat="42.1981897" lon="4.6387637"><ele>0.0</ele><time>2026-04-30T15:49:39.995Z</time></trkpt><trkpt lat="42.1982355" lon="4.6388663"><ele>0.0</ele><time>2026-04-30T15:49:40.995Z</time></trkpt><trkpt lat="42.1982777" lon="4.6389699"><ele>0.0</ele><time>2026-04-30T15:49:41.994Z</time></trkpt><trkpt lat="42.1983181" lon="4.6390691"><ele>0.0</ele><time>2026-04-30T15:49:42.995Z</time></trkpt><trkpt lat="42.1983612" lon="4.6391687"><ele>0.0</ele><time>2026-04-30T15:49:43.995Z</time></trkpt><trkpt lat="42.1984405" lon="4.6393825"><ele>0.0</ele><time>2026-04-30T15:49:45.994Z</time></trkpt><trkpt lat="42.198476" lon="4.639488"><ele>0.0</ele><time>2026-04-30T15:49:46.995Z</time></trkpt><trkpt lat="42.1985107" lon="4.63959"><ele>0.0</ele><time>2026-04-30T15:49:47.995Z</time></trkpt><trkpt lat="42.1985425" lon="4.63969"><ele>0.0</ele><time>2026-04-30T15:49:48.995Z</time></trkpt><trkpt lat="42.1985803" lon="4.6397929"><ele>0.0</ele><time>2026-04-30T15:49:49.995Z</time></trkpt><trkpt lat="42.1986145" lon="4.6398981"><ele>0.0</ele><time>2026-04-30T15:49:50.995Z</time></trkpt><trkpt lat="42.1986531" lon="4.6400002"><ele>0.0</ele><time>2026-04-30T15:49:51.994Z</time></trkpt><trkpt lat="42.1986947" lon="4.6401158"><ele>0.0</ele><time>2026-04-30T15:49:52.995Z</time></trkpt><trkpt lat="42.1987336" lon="4.6402155"><ele>0.0</ele><time>2026-04-30T15:49:53.994Z</time></trkpt><trkpt lat="42.1987767" lon="4.6403166"><ele>0.0</ele><time>2026-04-30T15:49:54.995Z</time></trkpt><trkpt lat="42.1988155" lon="4.6404212"><ele>0.0</ele><time>2026-04-30T15:49:55.995Z</time></trkpt><trkpt lat="42.1988511" lon="4.6405205"><ele>0.0</ele><time>2026-04-30T15:49:56.994Z</time></trkpt><trkpt lat="42.1988876" lon="4.6406173"><ele>0.0</ele><time>2026-04-30T15:49:57.994Z</time></trkpt><trkpt lat="42.198923" lon="4.6407252"><ele>0.0</ele><time>2026-04-30T15:49:58.995Z</time></trkpt><trkpt lat="42.1989576" lon="4.6408314"><ele>0.0</ele><time>2026-04-30T15:49:59.994Z</time></trkpt><trkpt lat="42.1990083" lon="4.6409634"><ele>0.0</ele><time>2026-04-30T15:50:00.994Z</time></trkpt><trkpt lat="42.199046" lon="4.641067"><ele>0.0</ele><time>2026-04-30T15:50:01.995Z</time></trkpt><trkpt lat="42.1990813" lon="4.6411645"><ele>0.0</ele><time>2026-04-30T15:50:02.995Z</time></trkpt><trkpt lat="42.1991118" lon="4.6412624"><ele>0.0</ele><time>2026-04-30T15:50:03.994Z</time></trkpt><trkpt lat="42.1991475" lon="4.6413634"><ele>0.0</ele><time>2026-04-30T15:50:04.994Z</time></trkpt><trkpt lat="42.1991811" lon="4.6414635"><ele>0.0</ele><time>2026-04-30T15:50:05.994Z</time></trkpt><trkpt lat="42.199283" lon="4.6417779"><ele>0.0</ele><time>2026-04-30T15:50:08.994Z</time></trkpt><trkpt lat="42.1993185" lon="4.6418849"><ele>0.0</ele><time>2026-04-30T15:50:09.994Z</time></trkpt><trkpt lat="42.1993538" lon="4.6419909"><ele>0.0</ele><time>2026-04-30T15:50:10.995Z</time></trkpt><trkpt lat="42.1993929" lon="4.642092"><ele>0.0</ele><time>2026-04-30T15:50:11.995Z</time></trkpt><trkpt lat="42.1994327" lon="4.642191"><ele>0.0</ele><time>2026-04-30T15:50:12.994Z</time></trkpt><trkpt lat="42.1994688" lon="4.6422964"><ele>0.0</ele><time>2026-04-30T15:50:13.994Z</time></trkpt><trkpt lat="42.1995035" lon="4.6424014"><ele>0.0</ele><time>2026-04-30T15:50:14.994Z</time></trkpt><trkpt lat="42.1995414" lon="4.6425025"><ele>0.0</ele><time>2026-04-30T15:50:15.994Z</time></trkpt><trkpt lat="42.1995768" lon="4.6426053"><ele>0.0</ele><time>2026-04-30T15:50:16.995Z</time></trkpt><trkpt lat="42.1996103" lon="4.6427102"><ele>0.0</ele><time>2026-04-30T15:50:17.994Z</time></trkpt><trkpt lat="42.1996422" lon="4.6428123"><ele>0.0</ele><time>2026-04-30T15:50:18.994Z</time></trkpt><trkpt lat="42.1996769" lon="4.6429138"><ele>0.0</ele><time>2026-04-30T15:50:19.995Z</time></trkpt><trkpt lat="42.1997104" lon="4.6430197"><ele>0.0</ele><time>2026-04-30T15:50:20.994Z</time></trkpt><trkpt lat="42.1997432" lon="4.6431266"><ele>0.0</ele><time>2026-04-30T15:50:21.994Z</time></trkpt><trkpt lat="42.199781" lon="4.6432371"><ele>0.0</ele><time>2026-04-30T15:50:22.995Z</time></trkpt><trkpt lat="42.1998167" lon="4.6433415"><ele>0.0</ele><time>2026-04-30T15:50:23.994Z</time></trkpt><trkpt lat="42.1998532" lon="4.6434479"><ele>0.0</ele><time>2026-04-30T15:50:24.995Z</time></trkpt><trkpt lat="42.1998882" lon="4.6435546"><ele>0.0</ele><time>2026-04-30T15:50:25.994Z</time></trkpt><trkpt lat="42.1999234" lon="4.6436555"><ele>0.0</ele><time>2026-04-30T15:50:26.995Z</time></trkpt><trkpt lat="42.1999624" lon="4.6437612"><ele>0.0</ele><time>2026-04-30T15:50:27.994Z</time></trkpt></trkseg><trkseg><trkpt lat="42.4137554" lon="5.2350828"><ele>0.0</ele><time>2026-04-30T17:24:49.142Z</time></trkpt><trkpt lat="42.4138251" lon="5.2351955"><ele>0.0</ele><time>2026-04-30T17:24:50.093Z</time></trkpt><trkpt lat="42.4140867" lon="5.2356049"><ele>0.0</ele><time>2026-04-30T17:24:52.1Z</time></trkpt><trkpt lat="42.4142856" lon="5.2359859"><ele>0.0</ele><time>2026-04-30T17:24:55.1Z</time></trkpt><trkpt lat="42.4145053" lon="5.2365642"><ele>0.0</ele><time>2026-04-30T17:25:01.101Z</time></trkpt><trkpt lat="42.4145371" lon="5.2366439"><ele>0.0</ele><time>2026-04-30T17:25:02.1Z</time></trkpt><trkpt lat="42.4146546" lon="5.2370061"><ele>0.0</ele><time>2026-04-30T17:25:05.1Z</time></trkpt><trkpt lat="42.4149144" lon="5.2378902"><ele>0.0</ele><time>2026-04-30T17:25:14.101Z</time></trkpt><trkpt lat="42.4150849" lon="5.2384128"><ele>0.0</ele><time>2026-04-30T17:25:18.101Z</time></trkpt><trkpt lat="42.4151727" lon="5.2386659"><ele>0.0</ele><time>2026-04-30T17:25:20.1Z</time></trkpt><trkpt lat="42.4152184" lon="5.2387817"><ele>0.0</ele><time>2026-04-30T17:25:21.101Z</time></trkpt><trkpt lat="42.4153265" lon="5.2390729"><ele>0.0</ele><time>2026-04-30T17:25:24.1Z</time></trkpt><trkpt lat="42.4154009" lon="5.2393033"><ele>0.0</ele><time>2026-04-30T17:25:26.1Z</time></trkpt><trkpt lat="42.4154663" lon="5.2395171"><ele>0.0</ele><time>2026-04-30T17:25:28.101Z</time></trkpt><trkpt lat="42.4155303" lon="5.2397223"><ele>0.0</ele><time>2026-04-30T17:25:30.1Z</time></trkpt><trkpt lat="42.4156466" lon="5.240114"><ele>0.0</ele><time>2026-04-30T17:25:34.1Z</time></trkpt><trkpt lat="42.4157239" lon="5.2403596"><ele>0.0</ele><time>2026-04-30T17:25:36.1Z</time></trkpt><trkpt lat="42.4158715" lon="5.2408835"><ele>0.0</ele><time>2026-04-30T17:25:41.101Z</time></trkpt><trkpt lat="42.4159093" lon="5.241015"><ele>0.0</ele><time>2026-04-30T17:25:42.101Z</time></trkpt><trkpt lat="42.4159467" lon="5.2411256"><ele>0.0</ele><time>2026-04-30T17:25:43.101Z</time></trkpt><trkpt lat="42.4159819" lon="5.241233"><ele>0.0</ele><time>2026-04-30T17:25:44.1Z</time></trkpt><trkpt lat="42.4160195" lon="5.2413421"><ele>0.0</ele><time>2026-04-30T17:25:45.1Z</time></trkpt><trkpt lat="42.4160581" lon="5.2414488"><ele>0.0</ele><time>2026-04-30T17:25:46.101Z</time></trkpt><trkpt lat="42.4160951" lon="5.2415554"><ele>0.0</ele><time>2026-04-30T17:25:47.101Z</time></trkpt><trkpt lat="42.4161303" lon="5.2416618"><ele>0.0</ele><time>2026-04-30T17:25:48.101Z</time></trkpt><trkpt lat="42.4161639" lon="5.2417684"><ele>0.0</ele><time>2026-04-30T17:25:49.101Z</time></trkpt><trkpt lat="42.4161971" lon="5.2418703"><ele>0.0</ele><time>2026-04-30T17:25:50.101Z</time></trkpt><trkpt lat="42.4162332" lon="5.2419782"><ele>0.0</ele><time>2026-04-30T17:25:51.1Z</time></trkpt><trkpt lat="42.4162727" lon="5.2420812"><ele>0.0</ele><time>2026-04-30T17:25:52.101Z</time></trkpt><trkpt lat="42.4163101" lon="5.2421853"><ele>0.0</ele><time>2026-04-30T17:25:53.1Z</time></trkpt><trkpt lat="42.4163442" lon="5.2422914"><ele>0.0</ele><time>2026-04-30T17:25:54.101Z</time></trkpt><trkpt lat="42.4163803" lon="5.2423993"><ele>0.0</ele><time>2026-04-30T17:25:55.1Z</time></trkpt><trkpt lat="42.4164143" lon="5.2425162"><ele>0.0</ele><time>2026-04-30T17:25:56.101Z</time></trkpt><trkpt lat="42.416517" lon="5.242842"><ele>0.0</ele><time>2026-04-30T17:25:59.101Z</time></trkpt><trkpt lat="42.4165563" lon="5.2429451"><ele>0.0</ele><time>2026-04-30T17:26:00.101Z</time></trkpt><trkpt lat="42.4165964" lon="5.2430502"><ele>0.0</ele><time>2026-04-30T17:26:01.101Z</time></trkpt><trkpt lat="42.4166336" lon="5.2431563"><ele>0.0</ele><time>2026-04-30T17:26:02.1Z</time></trkpt><trkpt lat="42.4166729" lon="5.2432577"><ele>0.0</ele><time>2026-04-30T17:26:03.101Z</time></trkpt><trkpt lat="42.4167147" lon="5.2433616"><ele>0.0</ele><time>2026-04-30T17:26:04.1Z</time></trkpt><trkpt lat="42.4167534" lon="5.2434672"><ele>0.0</ele><time>2026-04-30T17:26:05.101Z</time></trkpt><trkpt lat="42.4167885" lon="5.2435768"><ele>0.0</ele><time>2026-04-30T17:26:06.1Z</time></trkpt><trkpt lat="42.4168267" lon="5.2436832"><ele>0.0</ele><time>2026-04-30T17:26:07.101Z</time></trkpt><trkpt lat="42.4168647" lon="5.2437884"><ele>0.0</ele><time>2026-04-30T17:26:08.101Z</time></trkpt><trkpt lat="42.4169033" lon="5.2438944"><ele>0.0</ele><time>2026-04-30T17:26:09.1Z</time></trkpt><trkpt lat="42.4169401" lon="5.2440003"><ele>0.0</ele><time>2026-04-30T17:26:10.101Z</time></trkpt><trkpt lat="42.4169797" lon="5.2441079"><ele>0.0</ele><time>2026-04-30T17:26:11.101Z</time></trkpt><trkpt lat="42.4170184" lon="5.2442147"><ele>0.0</ele><time>2026-04-30T17:26:12.101Z</time></trkpt><trkpt lat="42.4170568" lon="5.2443231"><ele>0.0</ele><time>2026-04-30T17:26:13.1Z</time></trkpt><trkpt lat="42.4170953" lon="5.2444285"><ele>0.0</ele><time>2026-04-30T17:26:14.1Z</time></trkpt><trkpt lat="42.4171319" lon="5.244532"><ele>0.0</ele><time>2026-04-30T17:26:15.1Z</time></trkpt><trkpt lat="42.41717" lon="5.2446353"><ele>0.0</ele><time>2026-04-30T17:26:16.101Z</time></trkpt><trkpt lat="42.4172085" lon="5.2447401"><ele>0.0</ele><time>2026-04-30T17:26:17.1Z</time></trkpt><trkpt lat="42.4172453" lon="5.2448452"><ele>0.0</ele><time>2026-04-30T17:26:18.1Z</time></trkpt><trkpt lat="42.4173184" lon="5.2450597"><ele>0.0</ele><time>2026-04-30T17:26:20.101Z</time></trkpt><trkpt lat="42.4173535" lon="5.24517"><ele>0.0</ele><time>2026-04-30T17:26:21.1Z</time></trkpt><trkpt lat="42.4173899" lon="5.2452771"><ele>0.0</ele><time>2026-04-30T17:26:22.101Z</time></trkpt><trkpt lat="42.4174298" lon="5.2453822"><ele>0.0</ele><time>2026-04-30T17:26:23.1Z</time></trkpt><trkpt lat="42.4174716" lon="5.2454841"><ele>0.0</ele><time>2026-04-30T17:26:24.101Z</time></trkpt><trkpt lat="42.4175073" lon="5.2455897"><ele>0.0</ele><time>2026-04-30T17:26:25.1Z</time></trkpt><trkpt lat="42.4175409" lon="5.245698"><ele>0.0</ele><time>2026-04-30T17:26:26.1Z</time></trkpt><trkpt lat="42.4175769" lon="5.2458022"><ele>0.0</ele><time>2026-04-30T17:26:27.1Z</time></trkpt><trkpt lat="42.4176178" lon="5.2458985"><ele>0.0</ele><time>2026-04-30T17:26:28.1Z</time></trkpt><trkpt lat="42.4176964" lon="5.2460949"><ele>0.0</ele><time>2026-04-30T17:26:30.1Z</time></trkpt><trkpt lat="42.4177359" lon="5.2462001"><ele>0.0</ele><time>2026-04-30T17:26:31.1Z</time></trkpt><trkpt lat="42.4177745" lon="5.2463092"><ele>0.0</ele><time>2026-04-30T17:26:32.1Z</time></trkpt><trkpt lat="42.4178143" lon="5.246415"><ele>0.0</ele><time>2026-04-30T17:26:33.101Z</time></trkpt><trkpt lat="42.4178528" lon="5.2465219"><ele>0.0</ele><time>2026-04-30T17:26:34.1Z</time></trkpt><trkpt lat="42.4178911" lon="5.246629"><ele>0.0</ele><time>2026-04-30T17:26:35.101Z</time></trkpt><trkpt lat="42.4179323" lon="5.2467371"><ele>0.0</ele><time>2026-04-30T17:26:36.1Z</time></trkpt><trkpt lat="42.4179697" lon="5.2468436"><ele>0.0</ele><time>2026-04-30T17:26:37.101Z</time></trkpt><trkpt lat="42.4180078" lon="5.2469474"><ele>0.0</ele><time>2026-04-30T17:26:38.101Z</time></trkpt><trkpt lat="42.4180449" lon="5.2470506"><ele>0.0</ele><time>2026-04-30T17:26:39.101Z</time></trkpt><trkpt lat="42.4181043" lon="5.2472695"><ele>0.0</ele><time>2026-04-30T17:26:41.1Z</time></trkpt><trkpt lat="42.4181389" lon="5.2473679"><ele>0.0</ele><time>2026-04-30T17:26:42.1Z</time></trkpt><trkpt lat="42.4181725" lon="5.2474706"><ele>0.0</ele><time>2026-04-30T17:26:43.1Z</time></trkpt><trkpt lat="42.4182073" lon="5.2475781"><ele>0.0</ele><time>2026-04-30T17:26:44.1Z</time></trkpt><trkpt lat="42.4182477" lon="5.2476823"><ele>0.0</ele><time>2026-04-30T17:26:45.1Z</time></trkpt><trkpt lat="42.4182847" lon="5.2477913"><ele>0.0</ele><time>2026-04-30T17:26:46.1Z</time></trkpt><trkpt lat="42.4183214" lon="5.2478983"><ele>0.0</ele><time>2026-04-30T17:26:47.101Z</time></trkpt><trkpt lat="42.4183599" lon="5.248002"><ele>0.0</ele><time>2026-04-30T17:26:48.1Z</time></trkpt><trkpt lat="42.4183954" lon="5.2481054"><ele>0.0</ele><time>2026-04-30T17:26:49.1Z</time></trkpt><trkpt lat="42.4184318" lon="5.248206"><ele>0.0</ele><time>2026-04-30T17:26:50.1Z</time></trkpt><trkpt lat="42.4184697" lon="5.2483073"><ele>0.0</ele><time>2026-04-30T17:26:51.1Z</time></trkpt><trkpt lat="42.4185113" lon="5.2484119"><ele>0.0</ele><time>2026-04-30T17:26:52.101Z</time></trkpt><trkpt lat="42.418547" lon="5.2485166"><ele>0.0</ele><time>2026-04-30T17:26:53.1Z</time></trkpt><trkpt lat="42.4185848" lon="5.2486233"><ele>0.0</ele><time>2026-04-30T17:26:54.1Z</time></trkpt><trkpt lat="42.4186221" lon="5.2487283"><ele>0.0</ele><time>2026-04-30T17:26:55.101Z</time></trkpt><trkpt lat="42.4186585" lon="5.2488352"><ele>0.0</ele><time>2026-04-30T17:26:56.1Z</time></trkpt><trkpt lat="42.4186951" lon="5.2489463"><ele>0.0</ele><time>2026-04-30T17:26:57.1Z</time></trkpt><trkpt lat="42.4187329" lon="5.2490549"><ele>0.0</ele><time>2026-04-30T17:26:58.1Z</time></trkpt><trkpt lat="42.418769" lon="5.2491573"><ele>0.0</ele><time>2026-04-30T17:26:59.1Z</time></trkpt><trkpt lat="42.4188054" lon="5.2492592"><ele>0.0</ele><time>2026-04-30T17:27:00.1Z</time></trkpt><trkpt lat="42.4188815" lon="5.2494719"><ele>0.0</ele><time>2026-04-30T17:27:02.1Z</time></trkpt><trkpt lat="42.4189172" lon="5.2495741"><ele>0.0</ele><time>2026-04-30T17:27:03.1Z</time></trkpt><trkpt lat="42.4189576" lon="5.2496758"><ele>0.0</ele><time>2026-04-30T17:27:04.1Z</time></trkpt><trkpt lat="42.4190021" lon="5.2497774"><ele>0.0</ele><time>2026-04-30T17:27:05.101Z</time></trkpt><trkpt lat="42.4190424" lon="5.2498809"><ele>0.0</ele><time>2026-04-30T17:27:06.101Z</time></trkpt><trkpt lat="42.4190828" lon="5.2499867"><ele>0.0</ele><time>2026-04-30T17:27:07.101Z</time></trkpt><trkpt lat="42.4191215" lon="5.2500936"><ele>0.0</ele><time>2026-04-30T17:27:08.1Z</time></trkpt><trkpt lat="42.4191569" lon="5.2501984"><ele>0.0</ele><time>2026-04-30T17:27:09.1Z</time></trkpt><trkpt lat="42.4191903" lon="5.2503065"><ele>0.0</ele><time>2026-04-30T17:27:10.1Z</time></trkpt><trkpt lat="42.4192267" lon="5.2504183"><ele>0.0</ele><time>2026-04-30T17:27:11.1Z</time></trkpt><trkpt lat="42.4192631" lon="5.2505286"><ele>0.0</ele><time>2026-04-30T17:27:12.101Z</time></trkpt><trkpt lat="42.4192989" lon="5.2506422"><ele>0.0</ele><time>2026-04-30T17:27:13.1Z</time></trkpt><trkpt lat="42.4193365" lon="5.2507541"><ele>0.0</ele><time>2026-04-30T17:27:14.1Z</time></trkpt><trkpt lat="42.4193721" lon="5.2508627"><ele>0.0</ele><time>2026-04-30T17:27:15.101Z</time></trkpt><trkpt lat="42.4194084" lon="5.2509712"><ele>0.0</ele><time>2026-04-30T17:27:16.1Z</time></trkpt><trkpt lat="42.4194452" lon="5.251078"><ele>0.0</ele><time>2026-04-30T17:27:17.1Z</time></trkpt><trkpt lat="42.4194789" lon="5.2511822"><ele>0.0</ele><time>2026-04-30T17:27:18.101Z</time></trkpt><trkpt lat="42.419517" lon="5.2512869"><ele>0.0</ele><time>2026-04-30T17:27:19.101Z</time></trkpt><trkpt lat="42.4195493" lon="5.251393"><ele>0.0</ele><time>2026-04-30T17:27:20.101Z</time></trkpt><trkpt lat="42.419585" lon="5.2514917"><ele>0.0</ele><time>2026-04-30T17:27:21.1Z</time></trkpt><trkpt lat="42.4196632" lon="5.2516975"><ele>0.0</ele><time>2026-04-30T17:27:23.1Z</time></trkpt><trkpt lat="42.4197017" lon="5.2518006"><ele>0.0</ele><time>2026-04-30T17:27:24.101Z</time></trkpt><trkpt lat="42.4197388" lon="5.2519023"><ele>0.0</ele><time>2026-04-30T17:27:25.101Z</time></trkpt><trkpt lat="42.419778" lon="5.2520039"><ele>0.0</ele><time>2026-04-30T17:27:26.101Z</time></trkpt><trkpt lat="42.4198152" lon="5.2521156"><ele>0.0</ele><time>2026-04-30T17:27:27.101Z</time></trkpt><trkpt lat="42.419856" lon="5.2522219"><ele>0.0</ele><time>2026-04-30T17:27:28.1Z</time></trkpt><trkpt lat="42.4198988" lon="5.2523347"><ele>0.0</ele><time>2026-04-30T17:27:29.1Z</time></trkpt><trkpt lat="42.4199465" lon="5.2524464"><ele>0.0</ele><time>2026-04-30T17:27:30.101Z</time></trkpt><trkpt lat="42.4199884" lon="5.2525566"><ele>0.0</ele><time>2026-04-30T17:27:31.1Z</time></trkpt><trkpt lat="42.420027" lon="5.2526689"><ele>0.0</ele><time>2026-04-30T17:27:32.101Z</time></trkpt><trkpt lat="42.4200989" lon="5.252886"><ele>0.0</ele><time>2026-04-30T17:27:34.101Z</time></trkpt><trkpt lat="42.4201321" lon="5.2529933"><ele>0.0</ele><time>2026-04-30T17:27:35.1Z</time></trkpt><trkpt lat="42.4201668" lon="5.2531001"><ele>0.0</ele><time>2026-04-30T17:27:36.1Z</time></trkpt><trkpt lat="42.4201999" lon="5.2532084"><ele>0.0</ele><time>2026-04-30T17:27:37.1Z</time></trkpt><trkpt lat="42.420235" lon="5.2533164"><ele>0.0</ele><time>2026-04-30T17:27:38.1Z</time></trkpt><trkpt lat="42.4202686" lon="5.2534262"><ele>0.0</ele><time>2026-04-30T17:27:39.101Z</time></trkpt><trkpt lat="42.420302" lon="5.2535319"><ele>0.0</ele><time>2026-04-30T17:27:40.1Z</time></trkpt><trkpt lat="42.4203382" lon="5.2536288"><ele>0.0</ele><time>2026-04-30T17:27:41.101Z</time></trkpt><trkpt lat="42.4203751" lon="5.2537292"><ele>0.0</ele><time>2026-04-30T17:27:42.101Z</time></trkpt><trkpt lat="42.4204441" lon="5.253948"><ele>0.0</ele><time>2026-04-30T17:27:44.1Z</time></trkpt><trkpt lat="42.4204724" lon="5.2540594"><ele>0.0</ele><time>2026-04-30T17:27:45.1Z</time></trkpt><trkpt lat="42.4205065" lon="5.2541671"><ele>0.0</ele><time>2026-04-30T17:27:46.1Z</time></trkpt><trkpt lat="42.4205415" lon="5.2542735"><ele>0.0</ele><time>2026-04-30T17:27:47.1Z</time></trkpt><trkpt lat="42.4205767" lon="5.2543802"><ele>0.0</ele><time>2026-04-30T17:27:48.1Z</time></trkpt><trkpt lat="42.4206102" lon="5.2544894"><ele>0.0</ele><time>2026-04-30T17:27:49.1Z</time></trkpt><trkpt lat="42.4206449" lon="5.2545996"><ele>0.0</ele><time>2026-04-30T17:27:50.101Z</time></trkpt><trkpt lat="42.4206812" lon="5.2547066"><ele>0.0</ele><time>2026-04-30T17:27:51.1Z</time></trkpt><trkpt lat="42.420718" lon="5.2548163"><ele>0.0</ele><time>2026-04-30T17:27:52.1Z</time></trkpt><trkpt lat="42.420759" lon="5.254925"><ele>0.0</ele><time>2026-04-30T17:27:53.1Z</time></trkpt><trkpt lat="42.4208008" lon="5.2550304"><ele>0.0</ele><time>2026-04-30T17:27:54.1Z</time></trkpt><trkpt lat="42.4208357" lon="5.2551353"><ele>0.0</ele><time>2026-04-30T17:27:55.1Z</time></trkpt><trkpt lat="42.4208702" lon="5.2552357"><ele>0.0</ele><time>2026-04-30T17:27:56.1Z</time></trkpt><trkpt lat="42.4209037" lon="5.2553391"><ele>0.0</ele><time>2026-04-30T17:27:57.101Z</time></trkpt><trkpt lat="42.4209386" lon="5.2554436"><ele>0.0</ele><time>2026-04-30T17:27:58.101Z</time></trkpt><trkpt lat="42.4209723" lon="5.25555"><ele>0.0</ele><time>2026-04-30T17:27:59.101Z</time></trkpt><trkpt lat="42.4210088" lon="5.2556534"><ele>0.0</ele><time>2026-04-30T17:28:00.1Z</time></trkpt><trkpt lat="42.4210482" lon="5.2557568"><ele>0.0</ele><time>2026-04-30T17:28:01.1Z</time></trkpt><trkpt lat="42.421084" lon="5.2558632"><ele>0.0</ele><time>2026-04-30T17:28:02.101Z</time></trkpt><trkpt lat="42.4211201" lon="5.2559671"><ele>0.0</ele><time>2026-04-30T17:28:03.101Z</time></trkpt><trkpt lat="42.4211563" lon="5.2560735"><ele>0.0</ele><time>2026-04-30T17:28:04.1Z</time></trkpt><trkpt lat="42.4212654" lon="5.2563919"><ele>0.0</ele><time>2026-04-30T17:28:07.101Z</time></trkpt><trkpt lat="42.4213005" lon="5.2564996"><ele>0.0</ele><time>2026-04-30T17:28:08.101Z</time></trkpt><trkpt lat="42.4213372" lon="5.2566064"><ele>0.0</ele><time>2026-04-30T17:28:09.1Z</time></trkpt><trkpt lat="42.4213735" lon="5.256712"><ele>0.0</ele><time>2026-04-30T17:28:10.1Z</time></trkpt><trkpt lat="42.4214142" lon="5.2568125"><ele>0.0</ele><time>2026-04-30T17:28:11.1Z</time></trkpt><trkpt lat="42.4214516" lon="5.2569156"><ele>0.0</ele><time>2026-04-30T17:28:12.101Z</time></trkpt><trkpt lat="42.4214813" lon="5.2570247"><ele>0.0</ele><time>2026-04-30T17:28:13.1Z</time></trkpt><trkpt lat="42.4215195" lon="5.2571233"><ele>0.0</ele><time>2026-04-30T17:28:14.1Z</time></trkpt><trkpt lat="42.4215497" lon="5.2572256"><ele>0.0</ele><time>2026-04-30T17:28:15.101Z</time></trkpt><trkpt lat="42.4215792" lon="5.257335"><ele>0.0</ele><time>2026-04-30T17:28:16.101Z</time></trkpt><trkpt lat="42.4216123" lon="5.2574415"><ele>0.0</ele><time>2026-04-30T17:28:17.1Z</time></trkpt><trkpt lat="42.4216514" lon="5.2575479"><ele>0.0</ele><time>2026-04-30T17:28:18.101Z</time></trkpt><trkpt lat="42.4216911" lon="5.2576547"><ele>0.0</ele><time>2026-04-30T17:28:19.101Z</time></trkpt><trkpt lat="42.4217283" lon="5.2577619"><ele>0.0</ele><time>2026-04-30T17:28:20.101Z</time></trkpt><trkpt lat="42.4217666" lon="5.2578681"><ele>0.0</ele><time>2026-04-30T17:28:21.1Z</time></trkpt><trkpt lat="42.4218031" lon="5.2579738"><ele>0.0</ele><time>2026-04-30T17:28:22.101Z</time></trkpt><trkpt lat="42.4218385" lon="5.25808"><ele>0.0</ele><time>2026-04-30T17:28:23.101Z</time></trkpt><trkpt lat="42.4218691" lon="5.2581853"><ele>0.0</ele><time>2026-04-30T17:28:24.1Z</time></trkpt><trkpt lat="42.421906" lon="5.2582891"><ele>0.0</ele><time>2026-04-30T17:28:25.1Z</time></trkpt><trkpt lat="42.4219456" lon="5.2583928"><ele>0.0</ele><time>2026-04-30T17:28:26.1Z</time></trkpt><trkpt lat="42.4220153" lon="5.2586064"><ele>0.0</ele><time>2026-04-30T17:28:28.101Z</time></trkpt><trkpt lat="42.4220544" lon="5.2587134"><ele>0.0</ele><time>2026-04-30T17:28:29.1Z</time></trkpt><trkpt lat="42.4220922" lon="5.258818"><ele>0.0</ele><time>2026-04-30T17:28:30.101Z</time></trkpt><trkpt lat="42.422127" lon="5.2589276"><ele>0.0</ele><time>2026-04-30T17:28:31.1Z</time></trkpt><trkpt lat="42.4221646" lon="5.2590349"><ele>0.0</ele><time>2026-04-30T17:28:32.1Z</time></trkpt><trkpt lat="42.4222004" lon="5.2591443"><ele>0.0</ele><time>2026-04-30T17:28:33.1Z</time></trkpt><trkpt lat="42.4222354" lon="5.259256"><ele>0.0</ele><time>2026-04-30T17:28:34.101Z</time></trkpt><trkpt lat="42.4222647" lon="5.2593688"><ele>0.0</ele><time>2026-04-30T17:28:35.1Z</time></trkpt><trkpt lat="42.4222984" lon="5.2594782"><ele>0.0</ele><time>2026-04-30T17:28:36.101Z</time></trkpt><trkpt lat="42.422369" lon="5.2596949"><ele>0.0</ele><time>2026-04-30T17:28:38.1Z</time></trkpt><trkpt lat="42.4224053" lon="5.2597999"><ele>0.0</ele><time>2026-04-30T17:28:39.1Z</time></trkpt><trkpt lat="42.4224407" lon="5.2599106"><ele>0.0</ele><time>2026-04-30T17:28:40.1Z</time></trkpt><trkpt lat="42.4224714" lon="5.2600182"><ele>0.0</ele><time>2026-04-30T17:28:41.1Z</time></trkpt><trkpt lat="42.4225023" lon="5.2601279"><ele>0.0</ele><time>2026-04-30T17:28:42.101Z</time></trkpt><trkpt lat="42.4225328" lon="5.2602376"><ele>0.0</ele><time>2026-04-30T17:28:43.1Z</time></trkpt><trkpt lat="42.4225596" lon="5.2603521"><ele>0.0</ele><time>2026-04-30T17:28:44.101Z</time></trkpt><trkpt lat="42.4225922" lon="5.26046"><ele>0.0</ele><time>2026-04-30T17:28:45.101Z</time></trkpt><trkpt lat="42.422627" lon="5.2605681"><ele>0.0</ele><time>2026-04-30T17:28:46.1Z</time></trkpt><trkpt lat="42.4226658" lon="5.2606767"><ele>0.0</ele><time>2026-04-30T17:28:47.101Z</time></trkpt><trkpt lat="42.4227416" lon="5.2608918"><ele>0.0</ele><time>2026-04-30T17:28:49.1Z</time></trkpt><trkpt lat="42.4227796" lon="5.261"><ele>0.0</ele><time>2026-04-30T17:28:50.1Z</time></trkpt><trkpt lat="42.4228169" lon="5.2611052"><ele>0.0</ele><time>2026-04-30T17:28:51.1Z</time></trkpt><trkpt lat="42.4228546" lon="5.2612105"><ele>0.0</ele><time>2026-04-30T17:28:52.1Z</time></trkpt><trkpt lat="42.4228959" lon="5.2613153"><ele>0.0</ele><time>2026-04-30T17:28:53.101Z</time></trkpt><trkpt lat="42.4229365" lon="5.2614145"><ele>0.0</ele><time>2026-04-30T17:28:54.1Z</time></trkpt><trkpt lat="42.4229791" lon="5.2615141"><ele>0.0</ele><time>2026-04-30T17:28:55.101Z</time></trkpt><trkpt lat="42.4230227" lon="5.2616104"><ele>0.0</ele><time>2026-04-30T17:28:56.1Z</time></trkpt><trkpt lat="42.4230633" lon="5.2617121"><ele>0.0</ele><time>2026-04-30T17:28:57.1Z</time></trkpt><trkpt lat="42.423107" lon="5.2618141"><ele>0.0</ele><time>2026-04-30T17:28:58.101Z</time></trkpt><trkpt lat="42.4231478" lon="5.2619229"><ele>0.0</ele><time>2026-04-30T17:28:59.1Z</time></trkpt><trkpt lat="42.4231864" lon="5.2620356"><ele>0.0</ele><time>2026-04-30T17:29:00.101Z</time></trkpt><trkpt lat="42.42322" lon="5.2621474"><ele>0.0</ele><time>2026-04-30T17:29:01.1Z</time></trkpt><trkpt lat="42.4232579" lon="5.2622536"><ele>0.0</ele><time>2026-04-30T17:29:02.1Z</time></trkpt><trkpt lat="42.4232923" lon="5.2623613"><ele>0.0</ele><time>2026-04-30T17:29:03.101Z</time></trkpt><trkpt lat="42.4233429" lon="5.2624553"><ele>0.0</ele><time>2026-04-30T17:29:04.1Z</time></trkpt><trkpt lat="42.4233934" lon="5.2625554"><ele>0.0</ele><time>2026-04-30T17:29:05.101Z</time></trkpt><trkpt lat="42.4234308" lon="5.2626583"><ele>0.0</ele><time>2026-04-30T17:29:06.101Z</time></trkpt><trkpt lat="42.423463" lon="5.2627647"><ele>0.0</ele><time>2026-04-30T17:29:07.1Z</time></trkpt><trkpt lat="42.4235018" lon="5.2628713"><ele>0.0</ele><time>2026-04-30T17:29:08.101Z</time></trkpt><trkpt lat="42.4235687" lon="5.2630804"><ele>0.0</ele><time>2026-04-30T17:29:10.1Z</time></trkpt><trkpt lat="42.423605" lon="5.2631853"><ele>0.0</ele><time>2026-04-30T17:29:11.1Z</time></trkpt><trkpt lat="42.4236388" lon="5.2632875"><ele>0.0</ele><time>2026-04-30T17:29:12.1Z</time></trkpt><trkpt lat="42.4236708" lon="5.2633919"><ele>0.0</ele><time>2026-04-30T17:29:13.101Z</time></trkpt><trkpt lat="42.4237108" lon="5.2634983"><ele>0.0</ele><time>2026-04-30T17:29:14.101Z</time></trkpt><trkpt lat="42.4237422" lon="5.2636067"><ele>0.0</ele><time>2026-04-30T17:29:15.1Z</time></trkpt><trkpt lat="42.4237707" lon="5.2637179"><ele>0.0</ele><time>2026-04-30T17:29:16.101Z</time></trkpt><trkpt lat="42.4237948" lon="5.2638281"><ele>0.0</ele><time>2026-04-30T17:29:17.101Z</time></trkpt><trkpt lat="42.4238228" lon="5.2639395"><ele>0.0</ele><time>2026-04-30T17:29:18.1Z</time></trkpt><trkpt lat="42.4238567" lon="5.2640483"><ele>0.0</ele><time>2026-04-30T17:29:19.101Z</time></trkpt><trkpt lat="42.423889" lon="5.2641568"><ele>0.0</ele><time>2026-04-30T17:29:20.101Z</time></trkpt><trkpt lat="42.4239261" lon="5.2642623"><ele>0.0</ele><time>2026-04-30T17:29:21.101Z</time></trkpt><trkpt lat="42.4239602" lon="5.2643686"><ele>0.0</ele><time>2026-04-30T17:29:22.1Z</time></trkpt><trkpt lat="42.4239924" lon="5.2644782"><ele>0.0</ele><time>2026-04-30T17:29:23.101Z</time></trkpt><trkpt lat="42.4240166" lon="5.2645883"><ele>0.0</ele><time>2026-04-30T17:29:24.1Z</time></trkpt><trkpt lat="42.4240516" lon="5.264697"><ele>0.0</ele><time>2026-04-30T17:29:25.101Z</time></trkpt><trkpt lat="42.4240771" lon="5.2648133"><ele>0.0</ele><time>2026-04-30T17:29:26.101Z</time></trkpt><trkpt lat="42.4241106" lon="5.26492"><ele>0.0</ele><time>2026-04-30T17:29:27.1Z</time></trkpt><trkpt lat="42.4241368" lon="5.2650292"><ele>0.0</ele><time>2026-04-30T17:29:28.101Z</time></trkpt><trkpt lat="42.4241616" lon="5.2651423"><ele>0.0</ele><time>2026-04-30T17:29:29.1Z</time></trkpt><trkpt lat="42.4242201" lon="5.265358"><ele>0.0</ele><time>2026-04-30T17:29:31.101Z</time></trkpt><trkpt lat="42.4242591" lon="5.2654681"><ele>0.0</ele><time>2026-04-30T17:29:32.1Z</time></trkpt><trkpt lat="42.4242993" lon="5.2655735"><ele>0.0</ele><time>2026-04-30T17:29:33.101Z</time></trkpt><trkpt lat="42.4243382" lon="5.2656815"><ele>0.0</ele><time>2026-04-30T17:29:34.1Z</time></trkpt><trkpt lat="42.424379" lon="5.2657883"><ele>0.0</ele><time>2026-04-30T17:29:35.1Z</time></trkpt><trkpt lat="42.4244166" lon="5.2658881"><ele>0.0</ele><time>2026-04-30T17:29:36.101Z</time></trkpt><trkpt lat="42.4244578" lon="5.2659922"><ele>0.0</ele><time>2026-04-30T17:29:37.1Z</time></trkpt><trkpt lat="42.4244978" lon="5.2660971"><ele>0.0</ele><time>2026-04-30T17:29:38.101Z</time></trkpt><trkpt lat="42.4245382" lon="5.266199"><ele>0.0</ele><time>2026-04-30T17:29:39.101Z</time></trkpt><trkpt lat="42.4245737" lon="5.2663035"><ele>0.0</ele><time>2026-04-30T17:29:40.101Z</time></trkpt><trkpt lat="42.4246389" lon="5.2665168"><ele>0.0</ele><time>2026-04-30T17:29:42.1Z</time></trkpt><trkpt lat="42.4246751" lon="5.2666233"><ele>0.0</ele><time>2026-04-30T17:29:43.1Z</time></trkpt><trkpt lat="42.4247117" lon="5.2667299"><ele>0.0</ele><time>2026-04-30T17:29:44.101Z</time></trkpt><trkpt lat="42.4247498" lon="5.2668284"><ele>0.0</ele><time>2026-04-30T17:29:45.1Z</time></trkpt><trkpt lat="42.4247862" lon="5.2669323"><ele>0.0</ele><time>2026-04-30T17:29:46.1Z</time></trkpt><trkpt lat="42.4248262" lon="5.2670401"><ele>0.0</ele><time>2026-04-30T17:29:47.1Z</time></trkpt><trkpt lat="42.4248619" lon="5.2671481"><ele>0.0</ele><time>2026-04-30T17:29:48.101Z</time></trkpt><trkpt lat="42.4248996" lon="5.2672579"><ele>0.0</ele><time>2026-04-30T17:29:49.1Z</time></trkpt><trkpt lat="42.4249382" lon="5.2673593"><ele>0.0</ele><time>2026-04-30T17:29:50.101Z</time></trkpt><trkpt lat="42.4250095" lon="5.2675711"><ele>0.0</ele><time>2026-04-30T17:29:52.101Z</time></trkpt><trkpt lat="42.425041" lon="5.267677"><ele>0.0</ele><time>2026-04-30T17:29:53.1Z</time></trkpt><trkpt lat="42.4250726" lon="5.2677834"><ele>0.0</ele><time>2026-04-30T17:29:54.101Z</time></trkpt><trkpt lat="42.4251082" lon="5.2678943"><ele>0.0</ele><time>2026-04-30T17:29:55.1Z</time></trkpt><trkpt lat="42.4251401" lon="5.2680047"><ele>0.0</ele><time>2026-04-30T17:29:56.101Z</time></trkpt><trkpt lat="42.4251746" lon="5.2681148"><ele>0.0</ele><time>2026-04-30T17:29:57.1Z</time></trkpt><trkpt lat="42.4252128" lon="5.2682205"><ele>0.0</ele><time>2026-04-30T17:29:58.101Z</time></trkpt><trkpt lat="42.4252483" lon="5.2683271"><ele>0.0</ele><time>2026-04-30T17:29:59.101Z</time></trkpt><trkpt lat="42.4252853" lon="5.2684321"><ele>0.0</ele><time>2026-04-30T17:30:00.1Z</time></trkpt><trkpt lat="42.4253159" lon="5.2685357"><ele>0.0</ele><time>2026-04-30T17:30:01.101Z</time></trkpt><trkpt lat="42.4253545" lon="5.2686391"><ele>0.0</ele><time>2026-04-30T17:30:02.101Z</time></trkpt><trkpt lat="42.4253922" lon="5.2687466"><ele>0.0</ele><time>2026-04-30T17:30:03.101Z</time></trkpt><trkpt lat="42.425426" lon="5.2688558"><ele>0.0</ele><time>2026-04-30T17:30:04.1Z</time></trkpt><trkpt lat="42.4254617" lon="5.2689664"><ele>0.0</ele><time>2026-04-30T17:30:05.101Z</time></trkpt><trkpt lat="42.4255057" lon="5.269069"><ele>0.0</ele><time>2026-04-30T17:30:06.101Z</time></trkpt><trkpt lat="42.425542" lon="5.2691778"><ele>0.0</ele><time>2026-04-30T17:30:07.1Z</time></trkpt><trkpt lat="42.4255796" lon="5.2692822"><ele>0.0</ele><time>2026-04-30T17:30:08.101Z</time></trkpt><trkpt lat="42.4256224" lon="5.2693826"><ele>0.0</ele><time>2026-04-30T17:30:09.1Z</time></trkpt><trkpt lat="42.4256645" lon="5.2694826"><ele>0.0</ele><time>2026-04-30T17:30:10.101Z</time></trkpt><trkpt lat="42.425703" lon="5.2695871"><ele>0.0</ele><time>2026-04-30T17:30:11.101Z</time></trkpt><trkpt lat="42.4257404" lon="5.2696917"><ele>0.0</ele><time>2026-04-30T17:30:12.101Z</time></trkpt><trkpt lat="42.4258138" lon="5.269903"><ele>0.0</ele><time>2026-04-30T17:30:14.1Z</time></trkpt><trkpt lat="42.4258517" lon="5.2700098"><ele>0.0</ele><time>2026-04-30T17:30:15.101Z</time></trkpt><trkpt lat="42.4258995" lon="5.2701114"><ele>0.0</ele><time>2026-04-30T17:30:16.1Z</time></trkpt><trkpt lat="42.425941" lon="5.2702181"><ele>0.0</ele><time>2026-04-30T17:30:17.101Z</time></trkpt><trkpt lat="42.4259725" lon="5.2703294"><ele>0.0</ele><time>2026-04-30T17:30:18.1Z</time></trkpt><trkpt lat="42.4260038" lon="5.2704381"><ele>0.0</ele><time>2026-04-30T17:30:19.1Z</time></trkpt><trkpt lat="42.4260342" lon="5.270545"><ele>0.0</ele><time>2026-04-30T17:30:20.1Z</time></trkpt><trkpt lat="42.426067" lon="5.2706577"><ele>0.0</ele><time>2026-04-30T17:30:21.1Z</time></trkpt><trkpt lat="42.4260992" lon="5.2707707"><ele>0.0</ele><time>2026-04-30T17:30:22.1Z</time></trkpt><trkpt lat="42.426132" lon="5.2708815"><ele>0.0</ele><time>2026-04-30T17:30:23.101Z</time></trkpt><trkpt lat="42.4261656" lon="5.2709841"><ele>0.0</ele><time>2026-04-30T17:30:24.101Z</time></trkpt><trkpt lat="42.4262028" lon="5.2710906"><ele>0.0</ele><time>2026-04-30T17:30:25.101Z</time></trkpt><trkpt lat="42.4262397" lon="5.2711955"><ele>0.0</ele><time>2026-04-30T17:30:26.1Z</time></trkpt><trkpt lat="42.426275" lon="5.2713006"><ele>0.0</ele><time>2026-04-30T17:30:27.1Z</time></trkpt><trkpt lat="42.4263071" lon="5.2714065"><ele>0.0</ele><time>2026-04-30T17:30:28.101Z</time></trkpt><trkpt lat="42.4263389" lon="5.2715146"><ele>0.0</ele><time>2026-04-30T17:30:29.101Z</time></trkpt><trkpt lat="42.4263749" lon="5.2716247"><ele>0.0</ele><time>2026-04-30T17:30:30.101Z</time></trkpt><trkpt lat="42.4264058" lon="5.271736"><ele>0.0</ele><time>2026-04-30T17:30:31.1Z</time></trkpt><trkpt lat="42.4264489" lon="5.2718463"><ele>0.0</ele><time>2026-04-30T17:30:32.1Z</time></trkpt><trkpt lat="42.426484" lon="5.2719548"><ele>0.0</ele><time>2026-04-30T17:30:33.1Z</time></trkpt><trkpt lat="42.4265496" lon="5.2721738"><ele>0.0</ele><time>2026-04-30T17:30:35.1Z</time></trkpt><trkpt lat="42.4265841" lon="5.2722811"><ele>0.0</ele><time>2026-04-30T17:30:36.1Z</time></trkpt><trkpt lat="42.4266179" lon="5.2723891"><ele>0.0</ele><time>2026-04-30T17:30:37.1Z</time></trkpt><trkpt lat="42.4266531" lon="5.2724983"><ele>0.0</ele><time>2026-04-30T17:30:38.1Z</time></trkpt><trkpt lat="42.4266937" lon="5.2726035"><ele>0.0</ele><time>2026-04-30T17:30:39.101Z</time></trkpt><trkpt lat="42.4267359" lon="5.2727099"><ele>0.0</ele><time>2026-04-30T17:30:40.101Z</time></trkpt><trkpt lat="42.4267761" lon="5.2728209"><ele>0.0</ele><time>2026-04-30T17:30:41.1Z</time></trkpt><trkpt lat="42.4268163" lon="5.2729267"><ele>0.0</ele><time>2026-04-30T17:30:42.101Z</time></trkpt><trkpt lat="42.4268509" lon="5.2730331"><ele>0.0</ele><time>2026-04-30T17:30:43.101Z</time></trkpt><trkpt lat="42.4269263" lon="5.2732482"><ele>0.0</ele><time>2026-04-30T17:30:45.1Z</time></trkpt><trkpt lat="42.4269646" lon="5.2733548"><ele>0.0</ele><time>2026-04-30T17:30:46.1Z</time></trkpt><trkpt lat="42.4269993" lon="5.2734617"><ele>0.0</ele><time>2026-04-30T17:30:47.1Z</time></trkpt><trkpt lat="42.427034" lon="5.2735682"><ele>0.0</ele><time>2026-04-30T17:30:48.101Z</time></trkpt><trkpt lat="42.427066" lon="5.2736705"><ele>0.0</ele><time>2026-04-30T17:30:49.1Z</time></trkpt><trkpt lat="42.4271029" lon="5.2737724"><ele>0.0</ele><time>2026-04-30T17:30:50.1Z</time></trkpt><trkpt lat="42.4271355" lon="5.2738784"><ele>0.0</ele><time>2026-04-30T17:30:51.101Z</time></trkpt><trkpt lat="42.4271679" lon="5.2739861"><ele>0.0</ele><time>2026-04-30T17:30:52.101Z</time></trkpt><trkpt lat="42.4272018" lon="5.2740907"><ele>0.0</ele><time>2026-04-30T17:30:53.1Z</time></trkpt><trkpt lat="42.4272357" lon="5.2741953"><ele>0.0</ele><time>2026-04-30T17:30:54.1Z</time></trkpt><trkpt lat="42.4273025" lon="5.2744025"><ele>0.0</ele><time>2026-04-30T17:30:56.1Z</time></trkpt><trkpt lat="42.4273361" lon="5.2745083"><ele>0.0</ele><time>2026-04-30T17:30:57.101Z</time></trkpt><trkpt lat="42.4273694" lon="5.2746131"><ele>0.0</ele><time>2026-04-30T17:30:58.101Z</time></trkpt><trkpt lat="42.4274024" lon="5.2747228"><ele>0.0</ele><time>2026-04-30T17:30:59.1Z</time></trkpt><trkpt lat="42.4274331" lon="5.2748312"><ele>0.0</ele><time>2026-04-30T17:31:00.1Z</time></trkpt><trkpt lat="42.427459" lon="5.2749481"><ele>0.0</ele><time>2026-04-30T17:31:01.1Z</time></trkpt><trkpt lat="42.4274912" lon="5.2750573"><ele>0.0</ele><time>2026-04-30T17:31:02.1Z</time></trkpt><trkpt lat="42.4275211" lon="5.2751673"><ele>0.0</ele><time>2026-04-30T17:31:03.101Z</time></trkpt><trkpt lat="42.4275527" lon="5.2752743"><ele>0.0</ele><time>2026-04-30T17:31:04.1Z</time></trkpt><trkpt lat="42.4275941" lon="5.2753785"><ele>0.0</ele><time>2026-04-30T17:31:05.1Z</time></trkpt><trkpt lat="42.4276329" lon="5.2754837"><ele>0.0</ele><time>2026-04-30T17:31:06.101Z</time></trkpt><trkpt lat="42.4276731" lon="5.2755868"><ele>0.0</ele><time>2026-04-30T17:31:07.101Z</time></trkpt><trkpt lat="42.42772" lon="5.2756818"><ele>0.0</ele><time>2026-04-30T17:31:08.1Z</time></trkpt><trkpt lat="42.4277727" lon="5.2757812"><ele>0.0</ele><time>2026-04-30T17:31:09.101Z</time></trkpt><trkpt lat="42.4278287" lon="5.2758768"><ele>0.0</ele><time>2026-04-30T17:31:10.1Z</time></trkpt><trkpt lat="42.4278668" lon="5.2759829"><ele>0.0</ele><time>2026-04-30T17:31:11.1Z</time></trkpt><trkpt lat="42.4279059" lon="5.2760867"><ele>0.0</ele><time>2026-04-30T17:31:12.1Z</time></trkpt><trkpt lat="42.4279404" lon="5.2761948"><ele>0.0</ele><time>2026-04-30T17:31:13.101Z</time></trkpt><trkpt lat="42.427988" lon="5.2762918"><ele>0.0</ele><time>2026-04-30T17:31:14.101Z</time></trkpt><trkpt lat="42.4280376" lon="5.2763871"><ele>0.0</ele><time>2026-04-30T17:31:15.1Z</time></trkpt><trkpt lat="42.4281192" lon="5.2766001"><ele>0.0</ele><time>2026-04-30T17:31:17.101Z</time></trkpt><trkpt lat="42.4281598" lon="5.2767065"><ele>0.0</ele><time>2026-04-30T17:31:18.1Z</time></trkpt><trkpt lat="42.4281983" lon="5.2768161"><ele>0.0</ele><time>2026-04-30T17:31:19.1Z</time></trkpt><trkpt lat="42.4282407" lon="5.2769248"><ele>0.0</ele><time>2026-04-30T17:31:20.1Z</time></trkpt><trkpt lat="42.4282783" lon="5.2770383"><ele>0.0</ele><time>2026-04-30T17:31:21.101Z</time></trkpt><trkpt lat="42.4283137" lon="5.2771475"><ele>0.0</ele><time>2026-04-30T17:31:22.1Z</time></trkpt><trkpt lat="42.4283546" lon="5.2772544"><ele>0.0</ele><time>2026-04-30T17:31:23.101Z</time></trkpt><trkpt lat="42.428389" lon="5.277367"><ele>0.0</ele><time>2026-04-30T17:31:24.1Z</time></trkpt><trkpt lat="42.4284233" lon="5.277475"><ele>0.0</ele><time>2026-04-30T17:31:25.101Z</time></trkpt><trkpt lat="42.4284581" lon="5.2775791"><ele>0.0</ele><time>2026-04-30T17:31:26.101Z</time></trkpt><trkpt lat="42.4284919" lon="5.2776809"><ele>0.0</ele><time>2026-04-30T17:31:27.101Z</time></trkpt><trkpt lat="42.4285271" lon="5.277783"><ele>0.0</ele><time>2026-04-30T17:31:28.1Z</time></trkpt><trkpt lat="42.4285638" lon="5.2778897"><ele>0.0</ele><time>2026-04-30T17:31:29.1Z</time></trkpt><trkpt lat="42.4285961" lon="5.2779965"><ele>0.0</ele><time>2026-04-30T17:31:30.1Z</time></trkpt><trkpt lat="42.4286321" lon="5.2781004"><ele>0.0</ele><time>2026-04-30T17:31:31.1Z</time></trkpt><trkpt lat="42.4286816" lon="5.2781907"><ele>0.0</ele><time>2026-04-30T17:31:32.1Z</time></trkpt><trkpt lat="42.4287223" lon="5.2782935"><ele>0.0</ele><time>2026-04-30T17:31:33.1Z</time></trkpt><trkpt lat="42.4287607" lon="5.2783995"><ele>0.0</ele><time>2026-04-30T17:31:34.101Z</time></trkpt><trkpt lat="42.428794" lon="5.278508"><ele>0.0</ele><time>2026-04-30T17:31:35.1Z</time></trkpt><trkpt lat="42.4288218" lon="5.2786252"><ele>0.0</ele><time>2026-04-30T17:31:36.101Z</time></trkpt><trkpt lat="42.4288557" lon="5.2787334"><ele>0.0</ele><time>2026-04-30T17:31:37.101Z</time></trkpt><trkpt lat="42.4289237" lon="5.2789421"><ele>0.0</ele><time>2026-04-30T17:31:39.101Z</time></trkpt><trkpt lat="42.428957" lon="5.2790484"><ele>0.0</ele><time>2026-04-30T17:31:40.1Z</time></trkpt><trkpt lat="42.4289903" lon="5.2791565"><ele>0.0</ele><time>2026-04-30T17:31:41.101Z</time></trkpt><trkpt lat="42.4290233" lon="5.2792632"><ele>0.0</ele><time>2026-04-30T17:31:42.1Z</time></trkpt><trkpt lat="42.429058" lon="5.2793718"><ele>0.0</ele><time>2026-04-30T17:31:43.1Z</time></trkpt><trkpt lat="42.429095" lon="5.2794799"><ele>0.0</ele><time>2026-04-30T17:31:44.101Z</time></trkpt><trkpt lat="42.4291264" lon="5.2795891"><ele>0.0</ele><time>2026-04-30T17:31:45.101Z</time></trkpt><trkpt lat="42.4291573" lon="5.279708"><ele>0.0</ele><time>2026-04-30T17:31:46.1Z</time></trkpt><trkpt lat="42.4291904" lon="5.2798178"><ele>0.0</ele><time>2026-04-30T17:31:47.1Z</time></trkpt><trkpt lat="42.4292666" lon="5.2800318"><ele>0.0</ele><time>2026-04-30T17:31:49.1Z</time></trkpt><trkpt lat="42.4293105" lon="5.2801267"><ele>0.0</ele><time>2026-04-30T17:31:50.1Z</time></trkpt><trkpt lat="42.4293454" lon="5.2802327"><ele>0.0</ele><time>2026-04-30T17:31:51.101Z</time></trkpt><trkpt lat="42.4293806" lon="5.2803394"><ele>0.0</ele><time>2026-04-30T17:31:52.1Z</time></trkpt><trkpt lat="42.4294097" lon="5.2804479"><ele>0.0</ele><time>2026-04-30T17:31:53.101Z</time></trkpt><trkpt lat="42.4294451" lon="5.2805553"><ele>0.0</ele><time>2026-04-30T17:31:54.1Z</time></trkpt><trkpt lat="42.4294815" lon="5.2806618"><ele>0.0</ele><time>2026-04-30T17:31:55.1Z</time></trkpt><trkpt lat="42.4295185" lon="5.2807681"><ele>0.0</ele><time>2026-04-30T17:31:56.1Z</time></trkpt><trkpt lat="42.4295566" lon="5.280872"><ele>0.0</ele><time>2026-04-30T17:31:57.1Z</time></trkpt><trkpt lat="42.4295877" lon="5.2809783"><ele>0.0</ele><time>2026-04-30T17:31:58.1Z</time></trkpt><trkpt lat="42.4296548" lon="5.2811917"><ele>0.0</ele><time>2026-04-30T17:32:00.101Z</time></trkpt><trkpt lat="42.4296959" lon="5.2812982"><ele>0.0</ele><time>2026-04-30T17:32:01.101Z</time></trkpt><trkpt lat="42.429732" lon="5.281409"><ele>0.0</ele><time>2026-04-30T17:32:02.1Z</time></trkpt><trkpt lat="42.4297669" lon="5.2815183"><ele>0.0</ele><time>2026-04-30T17:32:03.101Z</time></trkpt><trkpt lat="42.4298144" lon="5.2816193"><ele>0.0</ele><time>2026-04-30T17:32:04.1Z</time></trkpt><trkpt lat="42.42985" lon="5.2817281"><ele>0.0</ele><time>2026-04-30T17:32:05.1Z</time></trkpt><trkpt lat="42.4298901" lon="5.2818318"><ele>0.0</ele><time>2026-04-30T17:32:06.1Z</time></trkpt><trkpt lat="42.4299285" lon="5.2819367"><ele>0.0</ele><time>2026-04-30T17:32:07.101Z</time></trkpt><trkpt lat="42.429965" lon="5.2820419"><ele>0.0</ele><time>2026-04-30T17:32:08.1Z</time></trkpt><trkpt lat="42.430004" lon="5.2821443"><ele>0.0</ele><time>2026-04-30T17:32:09.1Z</time></trkpt><trkpt lat="42.4300394" lon="5.2822504"><ele>0.0</ele><time>2026-04-30T17:32:10.1Z</time></trkpt><trkpt lat="42.4300673" lon="5.2823585"><ele>0.0</ele><time>2026-04-30T17:32:11.101Z</time></trkpt><trkpt lat="42.4301007" lon="5.2824632"><ele>0.0</ele><time>2026-04-30T17:32:12.101Z</time></trkpt><trkpt lat="42.4301332" lon="5.2825696"><ele>0.0</ele><time>2026-04-30T17:32:13.101Z</time></trkpt><trkpt lat="42.4301634" lon="5.2826777"><ele>0.0</ele><time>2026-04-30T17:32:14.1Z</time></trkpt><trkpt lat="42.4302006" lon="5.2827816"><ele>0.0</ele><time>2026-04-30T17:32:15.1Z</time></trkpt><trkpt lat="42.4302361" lon="5.2828876"><ele>0.0</ele><time>2026-04-30T17:32:16.1Z</time></trkpt><trkpt lat="42.4302706" lon="5.282996"><ele>0.0</ele><time>2026-04-30T17:32:17.1Z</time></trkpt><trkpt lat="42.4303044" lon="5.2831016"><ele>0.0</ele><time>2026-04-30T17:32:18.101Z</time></trkpt><trkpt lat="42.4303321" lon="5.2832081"><ele>0.0</ele><time>2026-04-30T17:32:19.1Z</time></trkpt><trkpt lat="42.4304129" lon="5.2835384"><ele>0.0</ele><time>2026-04-30T17:32:22.1Z</time></trkpt><trkpt lat="42.4304431" lon="5.2836461"><ele>0.0</ele><time>2026-04-30T17:32:23.101Z</time></trkpt><trkpt lat="42.4304757" lon="5.2837531"><ele>0.0</ele><time>2026-04-30T17:32:24.1Z</time></trkpt><trkpt lat="42.4305087" lon="5.2838614"><ele>0.0</ele><time>2026-04-30T17:32:25.1Z</time></trkpt><trkpt lat="42.4305475" lon="5.2839653"><ele>0.0</ele><time>2026-04-30T17:32:26.1Z</time></trkpt><trkpt lat="42.4305818" lon="5.2840744"><ele>0.0</ele><time>2026-04-30T17:32:27.1Z</time></trkpt><trkpt lat="42.4306233" lon="5.2841775"><ele>0.0</ele><time>2026-04-30T17:32:28.101Z</time></trkpt><trkpt lat="42.4306652" lon="5.2842795"><ele>0.0</ele><time>2026-04-30T17:32:29.1Z</time></trkpt><trkpt lat="42.4307111" lon="5.2843826"><ele>0.0</ele><time>2026-04-30T17:32:30.101Z</time></trkpt><trkpt lat="42.4307466" lon="5.2844942"><ele>0.0</ele><time>2026-04-30T17:32:31.1Z</time></trkpt><trkpt lat="42.4307827" lon="5.2846064"><ele>0.0</ele><time>2026-04-30T17:32:32.101Z</time></trkpt><trkpt lat="42.4308207" lon="5.2847165"><ele>0.0</ele><time>2026-04-30T17:32:33.1Z</time></trkpt><trkpt lat="42.4308568" lon="5.2848219"><ele>0.0</ele><time>2026-04-30T17:32:34.1Z</time></trkpt><trkpt lat="42.4308957" lon="5.2849269"><ele>0.0</ele><time>2026-04-30T17:32:35.1Z</time></trkpt><trkpt lat="42.4309328" lon="5.2850318"><ele>0.0</ele><time>2026-04-30T17:32:36.1Z</time></trkpt><trkpt lat="42.4309668" lon="5.2851382"><ele>0.0</ele><time>2026-04-30T17:32:37.1Z</time></trkpt><trkpt lat="42.4309989" lon="5.2852465"><ele>0.0</ele><time>2026-04-30T17:32:38.101Z</time></trkpt><trkpt lat="42.4310363" lon="5.2853506"><ele>0.0</ele><time>2026-04-30T17:32:39.1Z</time></trkpt><trkpt lat="42.4310772" lon="5.2854567"><ele>0.0</ele><time>2026-04-30T17:32:40.101Z</time></trkpt><trkpt lat="42.4311187" lon="5.2855638"><ele>0.0</ele><time>2026-04-30T17:32:41.101Z</time></trkpt><trkpt lat="42.4311942" lon="5.2857825"><ele>0.0</ele><time>2026-04-30T17:32:43.1Z</time></trkpt><trkpt lat="42.4312343" lon="5.2858869"><ele>0.0</ele><time>2026-04-30T17:32:44.1Z</time></trkpt><trkpt lat="42.4312788" lon="5.2859931"><ele>0.0</ele><time>2026-04-30T17:32:45.1Z</time></trkpt><trkpt lat="42.4313169" lon="5.2860983"><ele>0.0</ele><time>2026-04-30T17:32:46.101Z</time></trkpt><trkpt lat="42.4313529" lon="5.286201"><ele>0.0</ele><time>2026-04-30T17:32:47.1Z</time></trkpt><trkpt lat="42.4313885" lon="5.286304"><ele>0.0</ele><time>2026-04-30T17:32:48.1Z</time></trkpt><trkpt lat="42.4314217" lon="5.2864085"><ele>0.0</ele><time>2026-04-30T17:32:49.1Z</time></trkpt><trkpt lat="42.4314599" lon="5.286512"><ele>0.0</ele><time>2026-04-30T17:32:50.101Z</time></trkpt><trkpt lat="42.4314949" lon="5.2866173"><ele>0.0</ele><time>2026-04-30T17:32:51.101Z</time></trkpt><trkpt lat="42.4315673" lon="5.2868316"><ele>0.0</ele><time>2026-04-30T17:32:53.101Z</time></trkpt><trkpt lat="42.4316032" lon="5.286935"><ele>0.0</ele><time>2026-04-30T17:32:54.1Z</time></trkpt><trkpt lat="42.4316391" lon="5.287041"><ele>0.0</ele><time>2026-04-30T17:32:55.101Z</time></trkpt><trkpt lat="42.4316667" lon="5.2871511"><ele>0.0</ele><time>2026-04-30T17:32:56.101Z</time></trkpt><trkpt lat="42.4316957" lon="5.2872599"><ele>0.0</ele><time>2026-04-30T17:32:57.101Z</time></trkpt><trkpt lat="42.4317316" lon="5.2873723"><ele>0.0</ele><time>2026-04-30T17:32:58.1Z</time></trkpt><trkpt lat="42.4317669" lon="5.2874783"><ele>0.0</ele><time>2026-04-30T17:32:59.1Z</time></trkpt><trkpt lat="42.4318007" lon="5.2875862"><ele>0.0</ele><time>2026-04-30T17:33:00.1Z</time></trkpt><trkpt lat="42.431837" lon="5.287693"><ele>0.0</ele><time>2026-04-30T17:33:01.1Z</time></trkpt><trkpt lat="42.4318722" lon="5.2877982"><ele>0.0</ele><time>2026-04-30T17:33:02.101Z</time></trkpt><trkpt lat="42.431946" lon="5.2880035"><ele>0.0</ele><time>2026-04-30T17:33:04.1Z</time></trkpt><trkpt lat="42.4319863" lon="5.2881071"><ele>0.0</ele><time>2026-04-30T17:33:05.1Z</time></trkpt><trkpt lat="42.4320224" lon="5.2882133"><ele>0.0</ele><time>2026-04-30T17:33:06.1Z</time></trkpt><trkpt lat="42.4320633" lon="5.288324"><ele>0.0</ele><time>2026-04-30T17:33:07.1Z</time></trkpt><trkpt lat="42.4320965" lon="5.2884327"><ele>0.0</ele><time>2026-04-30T17:33:08.101Z</time></trkpt><trkpt lat="42.4321367" lon="5.288537"><ele>0.0</ele><time>2026-04-30T17:33:09.1Z</time></trkpt><trkpt lat="42.4321754" lon="5.2886374"><ele>0.0</ele><time>2026-04-30T17:33:10.1Z</time></trkpt><trkpt lat="42.4322111" lon="5.2887413"><ele>0.0</ele><time>2026-04-30T17:33:11.101Z</time></trkpt><trkpt lat="42.4322515" lon="5.2888465"><ele>0.0</ele><time>2026-04-30T17:33:12.1Z</time></trkpt><trkpt lat="42.4323003" lon="5.2889445"><ele>0.0</ele><time>2026-04-30T17:33:13.1Z</time></trkpt><trkpt lat="42.4323363" lon="5.289051"><ele>0.0</ele><time>2026-04-30T17:33:14.101Z</time></trkpt><trkpt lat="42.4323679" lon="5.2891582"><ele>0.0</ele><time>2026-04-30T17:33:15.101Z</time></trkpt><trkpt lat="42.4323965" lon="5.2892693"><ele>0.0</ele><time>2026-04-30T17:33:16.101Z</time></trkpt><trkpt lat="42.432432" lon="5.2893737"><ele>0.0</ele><time>2026-04-30T17:33:17.101Z</time></trkpt><trkpt lat="42.4324657" lon="5.2894813"><ele>0.0</ele><time>2026-04-30T17:33:18.1Z</time></trkpt><trkpt lat="42.4324964" lon="5.2895882"><ele>0.0</ele><time>2026-04-30T17:33:19.101Z</time></trkpt><trkpt lat="42.4325264" lon="5.2896991"><ele>0.0</ele><time>2026-04-30T17:33:20.1Z</time></trkpt><trkpt lat="42.4325588" lon="5.2898024"><ele>0.0</ele><time>2026-04-30T17:33:21.1Z</time></trkpt><trkpt lat="42.4325924" lon="5.2899123"><ele>0.0</ele><time>2026-04-30T17:33:22.1Z</time></trkpt><trkpt lat="42.4326272" lon="5.290018"><ele>0.0</ele><time>2026-04-30T17:33:23.1Z</time></trkpt><trkpt lat="42.4326634" lon="5.2901244"><ele>0.0</ele><time>2026-04-30T17:33:24.101Z</time></trkpt><trkpt lat="42.4327359" lon="5.2903426"><ele>0.0</ele><time>2026-04-30T17:33:26.101Z</time></trkpt><trkpt lat="42.4327732" lon="5.2904498"><ele>0.0</ele><time>2026-04-30T17:33:27.101Z</time></trkpt><trkpt lat="42.4328184" lon="5.2905522"><ele>0.0</ele><time>2026-04-30T17:33:28.1Z</time></trkpt><trkpt lat="42.4328607" lon="5.2906598"><ele>0.0</ele><time>2026-04-30T17:33:29.101Z</time></trkpt><trkpt lat="42.4328925" lon="5.2907666"><ele>0.0</ele><time>2026-04-30T17:33:30.101Z</time></trkpt><trkpt lat="42.4329226" lon="5.2908748"><ele>0.0</ele><time>2026-04-30T17:33:31.1Z</time></trkpt><trkpt lat="42.432951" lon="5.2909847"><ele>0.0</ele><time>2026-04-30T17:33:32.101Z</time></trkpt><trkpt lat="42.432985" lon="5.2910931"><ele>0.0</ele><time>2026-04-30T17:33:33.1Z</time></trkpt><trkpt lat="42.4330243" lon="5.2911954"><ele>0.0</ele><time>2026-04-30T17:33:34.101Z</time></trkpt><trkpt lat="42.4330616" lon="5.2912988"><ele>0.0</ele><time>2026-04-30T17:33:35.1Z</time></trkpt><trkpt lat="42.4331027" lon="5.2914019"><ele>0.0</ele><time>2026-04-30T17:33:36.1Z</time></trkpt><trkpt lat="42.4331351" lon="5.2915079"><ele>0.0</ele><time>2026-04-30T17:33:37.1Z</time></trkpt><trkpt lat="42.4331642" lon="5.2916136"><ele>0.0</ele><time>2026-04-30T17:33:38.1Z</time></trkpt><trkpt lat="42.4331951" lon="5.2917183"><ele>0.0</ele><time>2026-04-30T17:33:39.101Z</time></trkpt><trkpt lat="42.4332283" lon="5.2918235"><ele>0.0</ele><time>2026-04-30T17:33:40.1Z</time></trkpt><trkpt lat="42.4332621" lon="5.2919284"><ele>0.0</ele><time>2026-04-30T17:33:41.101Z</time></trkpt><trkpt lat="42.4333026" lon="5.2920307"><ele>0.0</ele><time>2026-04-30T17:33:42.1Z</time></trkpt><trkpt lat="42.4333362" lon="5.2921363"><ele>0.0</ele><time>2026-04-30T17:33:43.101Z</time></trkpt><trkpt lat="42.4333655" lon="5.2922397"><ele>0.0</ele><time>2026-04-30T17:33:44.1Z</time></trkpt><trkpt lat="42.4333918" lon="5.2923433"><ele>0.0</ele><time>2026-04-30T17:33:45.1Z</time></trkpt><trkpt lat="42.4334572" lon="5.2925519"><ele>0.0</ele><time>2026-04-30T17:33:47.1Z</time></trkpt><trkpt lat="42.4334949" lon="5.2926536"><ele>0.0</ele><time>2026-04-30T17:33:48.1Z</time></trkpt><trkpt lat="42.4335275" lon="5.2927596"><ele>0.0</ele><time>2026-04-30T17:33:49.1Z</time></trkpt><trkpt lat="42.4335648" lon="5.2928676"><ele>0.0</ele><time>2026-04-30T17:33:50.101Z</time></trkpt><trkpt lat="42.4335975" lon="5.2929774"><ele>0.0</ele><time>2026-04-30T17:33:51.1Z</time></trkpt><trkpt lat="42.4336302" lon="5.2930848"><ele>0.0</ele><time>2026-04-30T17:33:52.1Z</time></trkpt><trkpt lat="42.4336664" lon="5.29319"><ele>0.0</ele><time>2026-04-30T17:33:53.101Z</time></trkpt><trkpt lat="42.4336945" lon="5.293302"><ele>0.0</ele><time>2026-04-30T17:33:54.1Z</time></trkpt><trkpt lat="42.4337677" lon="5.2935107"><ele>0.0</ele><time>2026-04-30T17:33:56.1Z</time></trkpt><trkpt lat="42.4338065" lon="5.2936136"><ele>0.0</ele><time>2026-04-30T17:33:57.1Z</time></trkpt><trkpt lat="42.4338405" lon="5.2937137"><ele>0.0</ele><time>2026-04-30T17:33:58.1Z</time></trkpt><trkpt lat="42.4338811" lon="5.2938168"><ele>0.0</ele><time>2026-04-30T17:33:59.1Z</time></trkpt><trkpt lat="42.4339137" lon="5.2939276"><ele>0.0</ele><time>2026-04-30T17:34:00.1Z</time></trkpt><trkpt lat="42.4339353" lon="5.2940405"><ele>0.0</ele><time>2026-04-30T17:34:01.101Z</time></trkpt><trkpt lat="42.433966" lon="5.2941502"><ele>0.0</ele><time>2026-04-30T17:34:02.101Z</time></trkpt><trkpt lat="42.4340025" lon="5.2942541"><ele>0.0</ele><time>2026-04-30T17:34:03.1Z</time></trkpt><trkpt lat="42.4340383" lon="5.2943599"><ele>0.0</ele><time>2026-04-30T17:34:04.1Z</time></trkpt><trkpt lat="42.4340706" lon="5.2944648"><ele>0.0</ele><time>2026-04-30T17:34:05.1Z</time></trkpt><trkpt lat="42.4341035" lon="5.2945699"><ele>0.0</ele><time>2026-04-30T17:34:06.101Z</time></trkpt><trkpt lat="42.4341736" lon="5.2947799"><ele>0.0</ele><time>2026-04-30T17:34:08.1Z</time></trkpt><trkpt lat="42.4342127" lon="5.2948807"><ele>0.0</ele><time>2026-04-30T17:34:09.1Z</time></trkpt><trkpt lat="42.4342371" lon="5.2949921"><ele>0.0</ele><time>2026-04-30T17:34:10.101Z</time></trkpt><trkpt lat="42.4342688" lon="5.2950966"><ele>0.0</ele><time>2026-04-30T17:34:11.1Z</time></trkpt><trkpt lat="42.4343064" lon="5.2951955"><ele>0.0</ele><time>2026-04-30T17:34:12.1Z</time></trkpt><trkpt lat="42.4343445" lon="5.2952982"><ele>0.0</ele><time>2026-04-30T17:34:13.1Z</time></trkpt><trkpt lat="42.4343843" lon="5.2954045"><ele>0.0</ele><time>2026-04-30T17:34:14.101Z</time></trkpt><trkpt lat="42.4344086" lon="5.2955112"><ele>0.0</ele><time>2026-04-30T17:34:15.101Z</time></trkpt><trkpt lat="42.4344416" lon="5.2956121"><ele>0.0</ele><time>2026-04-30T17:34:16.1Z</time></trkpt><trkpt lat="42.4344746" lon="5.2957153"><ele>0.0</ele><time>2026-04-30T17:34:17.1Z</time></trkpt><trkpt lat="42.4345077" lon="5.2958173"><ele>0.0</ele><time>2026-04-30T17:34:18.1Z</time></trkpt><trkpt lat="42.4345422" lon="5.2959206"><ele>0.0</ele><time>2026-04-30T17:34:19.1Z</time></trkpt><trkpt lat="42.4345691" lon="5.2960336"><ele>0.0</ele><time>2026-04-30T17:34:20.1Z</time></trkpt><trkpt lat="42.4346083" lon="5.2961391"><ele>0.0</ele><time>2026-04-30T17:34:21.101Z</time></trkpt><trkpt lat="42.4346477" lon="5.2962462"><ele>0.0</ele><time>2026-04-30T17:34:22.1Z</time></trkpt><trkpt lat="42.4346861" lon="5.2963525"><ele>0.0</ele><time>2026-04-30T17:34:23.1Z</time></trkpt><trkpt lat="42.434716" lon="5.296462"><ele>0.0</ele><time>2026-04-30T17:34:24.1Z</time></trkpt><trkpt lat="42.4347518" lon="5.2965733"><ele>0.0</ele><time>2026-04-30T17:34:25.1Z</time></trkpt><trkpt lat="42.4347883" lon="5.2966765"><ele>0.0</ele><time>2026-04-30T17:34:26.1Z</time></trkpt><trkpt lat="42.4348987" lon="5.2969943"><ele>0.0</ele><time>2026-04-30T17:34:29.1Z</time></trkpt><trkpt lat="42.4349363" lon="5.2970967"><ele>0.0</ele><time>2026-04-30T17:34:30.101Z</time></trkpt><trkpt lat="42.4349814" lon="5.2971932"><ele>0.0</ele><time>2026-04-30T17:34:31.1Z</time></trkpt><trkpt lat="42.4350191" lon="5.2972954"><ele>0.0</ele><time>2026-04-30T17:34:32.101Z</time></trkpt><trkpt lat="42.4350593" lon="5.2973954"><ele>0.0</ele><time>2026-04-30T17:34:33.101Z</time></trkpt><trkpt lat="42.4350978" lon="5.2974972"><ele>0.0</ele><time>2026-04-30T17:34:34.101Z</time></trkpt><trkpt lat="42.4351322" lon="5.2975973"><ele>0.0</ele><time>2026-04-30T17:34:35.1Z</time></trkpt><trkpt lat="42.4351651" lon="5.297697"><ele>0.0</ele><time>2026-04-30T17:34:36.101Z</time></trkpt><trkpt lat="42.4351965" lon="5.2977997"><ele>0.0</ele><time>2026-04-30T17:34:37.101Z</time></trkpt><trkpt lat="42.4352217" lon="5.297902"><ele>0.0</ele><time>2026-04-30T17:34:38.1Z</time></trkpt><trkpt lat="42.4352639" lon="5.2979962"><ele>0.0</ele><time>2026-04-30T17:34:39.101Z</time></trkpt><trkpt lat="42.4352978" lon="5.2980949"><ele>0.0</ele><time>2026-04-30T17:34:40.1Z</time></trkpt><trkpt lat="42.4353222" lon="5.2982036"><ele>0.0</ele><time>2026-04-30T17:34:41.1Z</time></trkpt><trkpt lat="42.4353468" lon="5.2983108"><ele>0.0</ele><time>2026-04-30T17:34:42.1Z</time></trkpt><trkpt lat="42.4353899" lon="5.2984038"><ele>0.0</ele><time>2026-04-30T17:34:43.101Z</time></trkpt><trkpt lat="42.4354193" lon="5.2985079"><ele>0.0</ele><time>2026-04-30T17:34:44.101Z</time></trkpt><trkpt lat="42.4354574" lon="5.2986098"><ele>0.0</ele><time>2026-04-30T17:34:45.1Z</time></trkpt><trkpt lat="42.4354905" lon="5.2987157"><ele>0.0</ele><time>2026-04-30T17:34:46.1Z</time></trkpt><trkpt lat="42.4355297" lon="5.2988122"><ele>0.0</ele><time>2026-04-30T17:34:47.1Z</time></trkpt><trkpt lat="42.4355677" lon="5.298906"><ele>0.0</ele><time>2026-04-30T17:34:48.1Z</time></trkpt><trkpt lat="42.4356498" lon="5.2991011"><ele>0.0</ele><time>2026-04-30T17:34:50.1Z</time></trkpt><trkpt lat="42.4356822" lon="5.2992032"><ele>0.0</ele><time>2026-04-30T17:34:51.1Z</time></trkpt><trkpt lat="42.4357222" lon="5.2992966"><ele>0.0</ele><time>2026-04-30T17:34:52.101Z</time></trkpt><trkpt lat="42.4357568" lon="5.2993937"><ele>0.0</ele><time>2026-04-30T17:34:53.1Z</time></trkpt><trkpt lat="42.4357956" lon="5.2994868"><ele>0.0</ele><time>2026-04-30T17:34:54.101Z</time></trkpt><trkpt lat="42.4358306" lon="5.2995878"><ele>0.0</ele><time>2026-04-30T17:34:55.1Z</time></trkpt><trkpt lat="42.4358682" lon="5.2996852"><ele>0.0</ele><time>2026-04-30T17:34:56.1Z</time></trkpt><trkpt lat="42.4359108" lon="5.2997835"><ele>0.0</ele><time>2026-04-30T17:34:57.1Z</time></trkpt><trkpt lat="42.4359482" lon="5.2998846"><ele>0.0</ele><time>2026-04-30T17:34:58.1Z</time></trkpt><trkpt lat="42.4360181" lon="5.3000822"><ele>0.0</ele><time>2026-04-30T17:35:00.1Z</time></trkpt><trkpt lat="42.4360563" lon="5.3001845"><ele>0.0</ele><time>2026-04-30T17:35:01.101Z</time></trkpt><trkpt lat="42.4360918" lon="5.3002849"><ele>0.0</ele><time>2026-04-30T17:35:02.101Z</time></trkpt><trkpt lat="42.4361296" lon="5.3003777"><ele>0.0</ele><time>2026-04-30T17:35:03.101Z</time></trkpt><trkpt lat="42.4361636" lon="5.3004781"><ele>0.0</ele><time>2026-04-30T17:35:04.1Z</time></trkpt><trkpt lat="42.4362038" lon="5.3005741"><ele>0.0</ele><time>2026-04-30T17:35:05.101Z</time></trkpt><trkpt lat="42.4362427" lon="5.3006721"><ele>0.0</ele><time>2026-04-30T17:35:06.1Z</time></trkpt><trkpt lat="42.4362842" lon="5.30077"><ele>0.0</ele><time>2026-04-30T17:35:07.1Z</time></trkpt><trkpt lat="42.4363216" lon="5.3008725"><ele>0.0</ele><time>2026-04-30T17:35:08.1Z</time></trkpt><trkpt lat="42.4363553" lon="5.3009759"><ele>0.0</ele><time>2026-04-30T17:35:09.1Z</time></trkpt><trkpt lat="42.4364281" lon="5.3011765"><ele>0.0</ele><time>2026-04-30T17:35:11.101Z</time></trkpt><trkpt lat="42.4364666" lon="5.301272"><ele>0.0</ele><time>2026-04-30T17:35:12.101Z</time></trkpt><trkpt lat="42.4365007" lon="5.301367"><ele>0.0</ele><time>2026-04-30T17:35:13.1Z</time></trkpt><trkpt lat="42.4365339" lon="5.3014633"><ele>0.0</ele><time>2026-04-30T17:35:14.1Z</time></trkpt><trkpt lat="42.4365797" lon="5.3015531"><ele>0.0</ele><time>2026-04-30T17:35:15.101Z</time></trkpt><trkpt lat="42.4366166" lon="5.30165"><ele>0.0</ele><time>2026-04-30T17:35:16.1Z</time></trkpt><trkpt lat="42.4366561" lon="5.3017467"><ele>0.0</ele><time>2026-04-30T17:35:17.101Z</time></trkpt><trkpt lat="42.4366934" lon="5.3018448"><ele>0.0</ele><time>2026-04-30T17:35:18.101Z</time></trkpt><trkpt lat="42.4367258" lon="5.3019417"><ele>0.0</ele><time>2026-04-30T17:35:19.101Z</time></trkpt><trkpt lat="42.4367574" lon="5.30204"><ele>0.0</ele><time>2026-04-30T17:35:20.1Z</time></trkpt><trkpt lat="42.4367918" lon="5.3021353"><ele>0.0</ele><time>2026-04-30T17:35:21.101Z</time></trkpt><trkpt lat="42.4368309" lon="5.3022318"><ele>0.0</ele><time>2026-04-30T17:35:22.1Z</time></trkpt><trkpt lat="42.4368552" lon="5.3023326"><ele>0.0</ele><time>2026-04-30T17:35:23.101Z</time></trkpt><trkpt lat="42.4368827" lon="5.3024271"><ele>0.0</ele><time>2026-04-30T17:35:24.1Z</time></trkpt><trkpt lat="42.4369195" lon="5.3025222"><ele>0.0</ele><time>2026-04-30T17:35:25.1Z</time></trkpt><trkpt lat="42.4369479" lon="5.3026228"><ele>0.0</ele><time>2026-04-30T17:35:26.101Z</time></trkpt><trkpt lat="42.4369647" lon="5.3027301"><ele>0.0</ele><time>2026-04-30T17:35:27.1Z</time></trkpt><trkpt lat="42.4369823" lon="5.3028413"><ele>0.0</ele><time>2026-04-30T17:35:28.101Z</time></trkpt><trkpt lat="42.437013" lon="5.3029384"><ele>0.0</ele><time>2026-04-30T17:35:29.1Z</time></trkpt><trkpt lat="42.4370479" lon="5.3030348"><ele>0.0</ele><time>2026-04-30T17:35:30.1Z</time></trkpt><trkpt lat="42.4370798" lon="5.303132"><ele>0.0</ele><time>2026-04-30T17:35:31.1Z</time></trkpt><trkpt lat="42.4371455" lon="5.3033221"><ele>0.0</ele><time>2026-04-30T17:35:33.101Z</time></trkpt><trkpt lat="42.4371922" lon="5.3034083"><ele>0.0</ele><time>2026-04-30T17:35:34.1Z</time></trkpt><trkpt lat="42.4372334" lon="5.3035076"><ele>0.0</ele><time>2026-04-30T17:35:35.1Z</time></trkpt><trkpt lat="42.437272" lon="5.3035991"><ele>0.0</ele><time>2026-04-30T17:35:36.1Z</time></trkpt><trkpt lat="42.4372961" lon="5.3036992"><ele>0.0</ele><time>2026-04-30T17:35:37.1Z</time></trkpt><trkpt lat="42.4373319" lon="5.3037863"><ele>0.0</ele><time>2026-04-30T17:35:38.101Z</time></trkpt><trkpt lat="42.4373521" lon="5.303884"><ele>0.0</ele><time>2026-04-30T17:35:39.1Z</time></trkpt><trkpt lat="42.4373763" lon="5.3039856"><ele>0.0</ele><time>2026-04-30T17:35:40.101Z</time></trkpt><trkpt lat="42.437408" lon="5.3040831"><ele>0.0</ele><time>2026-04-30T17:35:41.1Z</time></trkpt><trkpt lat="42.4374412" lon="5.3041729"><ele>0.0</ele><time>2026-04-30T17:35:42.1Z</time></trkpt><trkpt lat="42.4374674" lon="5.3042671"><ele>0.0</ele><time>2026-04-30T17:35:43.101Z</time></trkpt><trkpt lat="42.4375012" lon="5.3043574"><ele>0.0</ele><time>2026-04-30T17:35:44.101Z</time></trkpt><trkpt lat="42.4375362" lon="5.3044487"><ele>0.0</ele><time>2026-04-30T17:35:45.101Z</time></trkpt><trkpt lat="42.4375667" lon="5.3045417"><ele>0.0</ele><time>2026-04-30T17:35:46.1Z</time></trkpt><trkpt lat="42.4375998" lon="5.3046308"><ele>0.0</ele><time>2026-04-30T17:35:47.101Z</time></trkpt><trkpt lat="42.4376291" lon="5.3047248"><ele>0.0</ele><time>2026-04-30T17:35:48.1Z</time></trkpt><trkpt lat="42.4376592" lon="5.3048212"><ele>0.0</ele><time>2026-04-30T17:35:49.1Z</time></trkpt><trkpt lat="42.4376992" lon="5.3049103"><ele>0.0</ele><time>2026-04-30T17:35:50.1Z</time></trkpt><trkpt lat="42.4377293" lon="5.3050003"><ele>0.0</ele><time>2026-04-30T17:35:51.101Z</time></trkpt><trkpt lat="42.4377463" lon="5.3050948"><ele>0.0</ele><time>2026-04-30T17:35:52.101Z</time></trkpt><trkpt lat="42.4378163" lon="5.3052766"><ele>0.0</ele><time>2026-04-30T17:35:54.1Z</time></trkpt><trkpt lat="42.4378541" lon="5.3053655"><ele>0.0</ele><time>2026-04-30T17:35:55.1Z</time></trkpt><trkpt lat="42.4378938" lon="5.3054538"><ele>0.0</ele><time>2026-04-30T17:35:56.101Z</time></trkpt><trkpt lat="42.4379327" lon="5.3055422"><ele>0.0</ele><time>2026-04-30T17:35:57.1Z</time></trkpt><trkpt lat="42.4379611" lon="5.3056319"><ele>0.0</ele><time>2026-04-30T17:35:58.101Z</time></trkpt><trkpt lat="42.4379934" lon="5.3057189"><ele>0.0</ele><time>2026-04-30T17:35:59.101Z</time></trkpt><trkpt lat="42.4380253" lon="5.3058079"><ele>0.0</ele><time>2026-04-30T17:36:00.1Z</time></trkpt><trkpt lat="42.438054" lon="5.3058968"><ele>0.0</ele><time>2026-04-30T17:36:01.1Z</time></trkpt><trkpt lat="42.438088" lon="5.3059809"><ele>0.0</ele><time>2026-04-30T17:36:02.1Z</time></trkpt><trkpt lat="42.438152" lon="5.3061554"><ele>0.0</ele><time>2026-04-30T17:36:04.1Z</time></trkpt><trkpt lat="42.4381806" lon="5.306245"><ele>0.0</ele><time>2026-04-30T17:36:05.101Z</time></trkpt><trkpt lat="42.4381932" lon="5.3063417"><ele>0.0</ele><time>2026-04-30T17:36:06.1Z</time></trkpt><trkpt lat="42.4382187" lon="5.3064285"><ele>0.0</ele><time>2026-04-30T17:36:07.101Z</time></trkpt><trkpt lat="42.4382494" lon="5.306518"><ele>0.0</ele><time>2026-04-30T17:36:08.1Z</time></trkpt><trkpt lat="42.4382769" lon="5.306607"><ele>0.0</ele><time>2026-04-30T17:36:09.1Z</time></trkpt><trkpt lat="42.438302" lon="5.3066939"><ele>0.0</ele><time>2026-04-30T17:36:10.101Z</time></trkpt><trkpt lat="42.43833" lon="5.3067832"><ele>0.0</ele><time>2026-04-30T17:36:11.1Z</time></trkpt><trkpt lat="42.4383685" lon="5.3068659"><ele>0.0</ele><time>2026-04-30T17:36:12.101Z</time></trkpt><trkpt lat="42.4384014" lon="5.3069519"><ele>0.0</ele><time>2026-04-30T17:36:13.101Z</time></trkpt><trkpt lat="42.4384674" lon="5.3071174"><ele>0.0</ele><time>2026-04-30T17:36:15.1Z</time></trkpt><trkpt lat="42.4384995" lon="5.3072032"><ele>0.0</ele><time>2026-04-30T17:36:16.1Z</time></trkpt><trkpt lat="42.4385269" lon="5.3072872"><ele>0.0</ele><time>2026-04-30T17:36:17.1Z</time></trkpt><trkpt lat="42.4385578" lon="5.307366"><ele>0.0</ele><time>2026-04-30T17:36:18.1Z</time></trkpt><trkpt lat="42.4385896" lon="5.3074457"><ele>0.0</ele><time>2026-04-30T17:36:19.101Z</time></trkpt><trkpt lat="42.4386226" lon="5.3075285"><ele>0.0</ele><time>2026-04-30T17:36:20.1Z</time></trkpt><trkpt lat="42.4386517" lon="5.3076147"><ele>0.0</ele><time>2026-04-30T17:36:21.1Z</time></trkpt><trkpt lat="42.4386844" lon="5.3076986"><ele>0.0</ele><time>2026-04-30T17:36:22.101Z</time></trkpt><trkpt lat="42.4387149" lon="5.3077804"><ele>0.0</ele><time>2026-04-30T17:36:23.1Z</time></trkpt><trkpt lat="42.4387275" lon="5.3078708"><ele>0.0</ele><time>2026-04-30T17:36:24.101Z</time></trkpt><trkpt lat="42.4387321" lon="5.307961"><ele>0.0</ele><time>2026-04-30T17:36:25.101Z</time></trkpt><trkpt lat="42.4387567" lon="5.3080396"><ele>0.0</ele><time>2026-04-30T17:36:26.1Z</time></trkpt><trkpt lat="42.4387833" lon="5.3081203"><ele>0.0</ele><time>2026-04-30T17:36:27.1Z</time></trkpt><trkpt lat="42.4388055" lon="5.3082048"><ele>0.0</ele><time>2026-04-30T17:36:28.101Z</time></trkpt><trkpt lat="42.43883" lon="5.3082853"><ele>0.0</ele><time>2026-04-30T17:36:29.1Z</time></trkpt><trkpt lat="42.4388664" lon="5.3084514"><ele>0.0</ele><time>2026-04-30T17:36:31.1Z</time></trkpt><trkpt lat="42.4388884" lon="5.3085349"><ele>0.0</ele><time>2026-04-30T17:36:32.1Z</time></trkpt><trkpt lat="42.438917" lon="5.308614"><ele>0.0</ele><time>2026-04-30T17:36:33.101Z</time></trkpt><trkpt lat="42.4389415" lon="5.3086952"><ele>0.0</ele><time>2026-04-30T17:36:34.101Z</time></trkpt><trkpt lat="42.4389688" lon="5.3087768"><ele>0.0</ele><time>2026-04-30T17:36:35.101Z</time></trkpt><trkpt lat="42.4390122" lon="5.3089398"><ele>0.0</ele><time>2026-04-30T17:36:37.1Z</time></trkpt><trkpt lat="42.439067" lon="5.3090925"><ele>0.0</ele><time>2026-04-30T17:36:39.1Z</time></trkpt><trkpt lat="42.4390986" lon="5.3091716"><ele>0.0</ele><time>2026-04-30T17:36:40.1Z</time></trkpt><trkpt lat="42.4391263" lon="5.3092501"><ele>0.0</ele><time>2026-04-30T17:36:41.1Z</time></trkpt><trkpt lat="42.4391544" lon="5.3093314"><ele>0.0</ele><time>2026-04-30T17:36:42.101Z</time></trkpt><trkpt lat="42.4391842" lon="5.3094103"><ele>0.0</ele><time>2026-04-30T17:36:43.101Z</time></trkpt><trkpt lat="42.4392053" lon="5.309493"><ele>0.0</ele><time>2026-04-30T17:36:44.1Z</time></trkpt><trkpt lat="42.4392266" lon="5.3095764"><ele>0.0</ele><time>2026-04-30T17:36:45.101Z</time></trkpt><trkpt lat="42.439254" lon="5.3096582"><ele>0.0</ele><time>2026-04-30T17:36:46.1Z</time></trkpt><trkpt lat="42.4393079" lon="5.3098028"><ele>0.0</ele><time>2026-04-30T17:36:48.101Z</time></trkpt><trkpt lat="42.4393319" lon="5.3098842"><ele>0.0</ele><time>2026-04-30T17:36:49.101Z</time></trkpt><trkpt lat="42.4393706" lon="5.3100401"><ele>0.0</ele><time>2026-04-30T17:36:51.1Z</time></trkpt><trkpt lat="42.439415" lon="5.310197"><ele>0.0</ele><time>2026-04-30T17:36:53.101Z</time></trkpt><trkpt lat="42.4394395" lon="5.3102768"><ele>0.0</ele><time>2026-04-30T17:36:54.101Z</time></trkpt><trkpt lat="42.439477" lon="5.3104413"><ele>0.0</ele><time>2026-04-30T17:36:56.1Z</time></trkpt><trkpt lat="42.439514" lon="5.3106883"><ele>0.0</ele><time>2026-04-30T17:36:59.1Z</time></trkpt><trkpt lat="42.4395638" lon="5.3108387"><ele>0.0</ele><time>2026-04-30T17:37:01.101Z</time></trkpt><trkpt lat="42.439615" lon="5.3109942"><ele>0.0</ele><time>2026-04-30T17:37:03.101Z</time></trkpt><trkpt lat="42.4396747" lon="5.3111316"><ele>0.0</ele><time>2026-04-30T17:37:05.1Z</time></trkpt><trkpt lat="42.4397076" lon="5.3112094"><ele>0.0</ele><time>2026-04-30T17:37:06.1Z</time></trkpt><trkpt lat="42.4397616" lon="5.3113601"><ele>0.0</ele><time>2026-04-30T17:37:08.1Z</time></trkpt><trkpt lat="42.4398162" lon="5.3115049"><ele>0.0</ele><time>2026-04-30T17:37:10.101Z</time></trkpt><trkpt lat="42.439875" lon="5.3116522"><ele>0.0</ele><time>2026-04-30T17:37:12.1Z</time></trkpt><trkpt lat="42.439933" lon="5.3117942"><ele>0.0</ele><time>2026-04-30T17:37:14.1Z</time></trkpt><trkpt lat="42.4399709" lon="5.3119432"><ele>0.0</ele><time>2026-04-30T17:37:16.1Z</time></trkpt><trkpt lat="42.4400241" lon="5.3120888"><ele>0.0</ele><time>2026-04-30T17:37:18.101Z</time></trkpt><trkpt lat="42.4401244" lon="5.3123979"><ele>0.0</ele><time>2026-04-30T17:37:22.1Z</time></trkpt><trkpt lat="42.4401676" lon="5.3125482"><ele>0.0</ele><time>2026-04-30T17:37:24.1Z</time></trkpt><trkpt lat="42.4402188" lon="5.3126923"><ele>0.0</ele><time>2026-04-30T17:37:26.1Z</time></trkpt><trkpt lat="42.4402572" lon="5.3128461"><ele>0.0</ele><time>2026-04-30T17:37:28.1Z</time></trkpt><trkpt lat="42.4403049" lon="5.3129888"><ele>0.0</ele><time>2026-04-30T17:37:30.101Z</time></trkpt><trkpt lat="42.440355" lon="5.3131427"><ele>0.0</ele><time>2026-04-30T17:37:32.1Z</time></trkpt><trkpt lat="42.4403731" lon="5.3132284"><ele>0.0</ele><time>2026-04-30T17:37:34.175Z</time></trkpt><trkpt lat="42.4404013" lon="5.3133124"><ele>0.0</ele><time>2026-04-30T17:37:35.1Z</time></trkpt><trkpt lat="42.4404385" lon="5.3133954"><ele>0.0</ele><time>2026-04-30T17:37:36.1Z</time></trkpt><trkpt lat="42.4404726" lon="5.3134793"><ele>0.0</ele><time>2026-04-30T17:37:37.1Z</time></trkpt><trkpt lat="42.4405046" lon="5.3135634"><ele>0.0</ele><time>2026-04-30T17:37:38.1Z</time></trkpt><trkpt lat="42.4405338" lon="5.3136419"><ele>0.0</ele><time>2026-04-30T17:37:39.1Z</time></trkpt><trkpt lat="42.4406459" lon="5.3138644"><ele>0.0</ele><time>2026-04-30T17:37:42.116Z</time></trkpt><trkpt lat="42.4406775" lon="5.3139393"><ele>0.0</ele><time>2026-04-30T17:37:43.122Z</time></trkpt><trkpt lat="42.4406941" lon="5.3140247"><ele>0.0</ele><time>2026-04-30T17:37:44.127Z</time></trkpt><trkpt lat="42.4407639" lon="5.3141657"><ele>0.0</ele><time>2026-04-30T17:37:46.137Z</time></trkpt><trkpt lat="42.4407952" lon="5.3142478"><ele>0.0</ele><time>2026-04-30T17:37:48.1Z</time></trkpt><trkpt lat="42.4408497" lon="5.3143803"><ele>0.0</ele><time>2026-04-30T17:37:50.1Z</time></trkpt><trkpt lat="42.4409014" lon="5.3145218"><ele>0.0</ele><time>2026-04-30T17:37:52.1Z</time></trkpt><trkpt lat="42.4409519" lon="5.3146605"><ele>0.0</ele><time>2026-04-30T17:37:54.1Z</time></trkpt><trkpt lat="42.4409975" lon="5.314792"><ele>0.0</ele><time>2026-04-30T17:37:56.101Z</time></trkpt><trkpt lat="42.4410448" lon="5.3149391"><ele>0.0</ele><time>2026-04-30T17:37:58.101Z</time></trkpt><trkpt lat="42.4410924" lon="5.3150784"><ele>0.0</ele><time>2026-04-30T17:38:00.1Z</time></trkpt><trkpt lat="42.4411966" lon="5.3153559"><ele>0.0</ele><time>2026-04-30T17:38:04.101Z</time></trkpt><trkpt lat="42.441243" lon="5.3154969"><ele>0.0</ele><time>2026-04-30T17:38:06.1Z</time></trkpt><trkpt lat="42.4412737" lon="5.3155726"><ele>0.0</ele><time>2026-04-30T17:38:07.1Z</time></trkpt><trkpt lat="42.4412994" lon="5.3156506"><ele>0.0</ele><time>2026-04-30T17:38:08.101Z</time></trkpt><trkpt lat="42.4413481" lon="5.3157966"><ele>0.0</ele><time>2026-04-30T17:38:10.101Z</time></trkpt><trkpt lat="42.4414226" lon="5.3160057"><ele>0.0</ele><time>2026-04-30T17:38:13.101Z</time></trkpt><trkpt lat="42.4414625" lon="5.3161396"><ele>0.0</ele><time>2026-04-30T17:38:15.101Z</time></trkpt><trkpt lat="42.4415124" lon="5.3162928"><ele>0.0</ele><time>2026-04-30T17:38:17.1Z</time></trkpt><trkpt lat="42.4415382" lon="5.3164458"><ele>0.0</ele><time>2026-04-30T17:38:19.101Z</time></trkpt><trkpt lat="42.4415781" lon="5.3165828"><ele>0.0</ele><time>2026-04-30T17:38:21.1Z</time></trkpt><trkpt lat="42.4416992" lon="5.3168478"><ele>0.0</ele><time>2026-04-30T17:38:25.1Z</time></trkpt><trkpt lat="42.4417562" lon="5.3169711"><ele>0.0</ele><time>2026-04-30T17:38:27.101Z</time></trkpt><trkpt lat="42.4418126" lon="5.3171082"><ele>0.0</ele><time>2026-04-30T17:38:29.1Z</time></trkpt><trkpt lat="42.4418592" lon="5.3172531"><ele>0.0</ele><time>2026-04-30T17:38:31.101Z</time></trkpt><trkpt lat="42.4419112" lon="5.3173887"><ele>0.0</ele><time>2026-04-30T17:38:33.101Z</time></trkpt><trkpt lat="42.4419587" lon="5.3175368"><ele>0.0</ele><time>2026-04-30T17:38:35.101Z</time></trkpt><trkpt lat="42.4420044" lon="5.3176786"><ele>0.0</ele><time>2026-04-30T17:38:37.101Z</time></trkpt><trkpt lat="42.4420457" lon="5.3178197"><ele>0.0</ele><time>2026-04-30T17:38:39.1Z</time></trkpt><trkpt lat="42.4420795" lon="5.3179586"><ele>0.0</ele><time>2026-04-30T17:38:41.101Z</time></trkpt><trkpt lat="42.4421439" lon="5.3181685"><ele>0.0</ele><time>2026-04-30T17:38:44.1Z</time></trkpt><trkpt lat="42.4422333" lon="5.3184469"><ele>0.0</ele><time>2026-04-30T17:38:48.1Z</time></trkpt><trkpt lat="42.4422952" lon="5.3185868"><ele>0.0</ele><time>2026-04-30T17:38:50.1Z</time></trkpt><trkpt lat="42.442345" lon="5.3187299"><ele>0.0</ele><time>2026-04-30T17:38:52.1Z</time></trkpt><trkpt lat="42.4423935" lon="5.3188762"><ele>0.0</ele><time>2026-04-30T17:38:54.1Z</time></trkpt><trkpt lat="42.4424342" lon="5.3190036"><ele>0.0</ele><time>2026-04-30T17:38:56.101Z</time></trkpt><trkpt lat="42.4424919" lon="5.319144"><ele>0.0</ele><time>2026-04-30T17:38:58.1Z</time></trkpt><trkpt lat="42.442546" lon="5.319294"><ele>0.0</ele><time>2026-04-30T17:39:00.1Z</time></trkpt><trkpt lat="42.4426028" lon="5.31943"><ele>0.0</ele><time>2026-04-30T17:39:02.1Z</time></trkpt><trkpt lat="42.4426453" lon="5.3195707"><ele>0.0</ele><time>2026-04-30T17:39:04.099Z</time></trkpt><trkpt lat="42.4426944" lon="5.319702"><ele>0.0</ele><time>2026-04-30T17:39:06.099Z</time></trkpt><trkpt lat="42.4427934" lon="5.3199763"><ele>0.0</ele><time>2026-04-30T17:39:10.099Z</time></trkpt><trkpt lat="42.4428392" lon="5.3201183"><ele>0.0</ele><time>2026-04-30T17:39:12.1Z</time></trkpt><trkpt lat="42.4428907" lon="5.3202492"><ele>0.0</ele><time>2026-04-30T17:39:14.099Z</time></trkpt><trkpt lat="42.4429267" lon="5.3203827"><ele>0.0</ele><time>2026-04-30T17:39:16.099Z</time></trkpt><trkpt lat="42.4429733" lon="5.3205132"><ele>0.0</ele><time>2026-04-30T17:39:18.1Z</time></trkpt><trkpt lat="42.4430261" lon="5.3206607"><ele>0.0</ele><time>2026-04-30T17:39:20.099Z</time></trkpt><trkpt lat="42.4430597" lon="5.3208037"><ele>0.0</ele><time>2026-04-30T17:39:22.099Z</time></trkpt><trkpt lat="42.4431225" lon="5.3209472"><ele>0.0</ele><time>2026-04-30T17:39:25.16Z</time></trkpt><trkpt lat="42.443152" lon="5.3210677"><ele>0.0</ele><time>2026-04-30T17:39:26.165Z</time></trkpt><trkpt lat="42.4431736" lon="5.3211512"><ele>0.0</ele><time>2026-04-30T17:39:27.171Z</time></trkpt><trkpt lat="42.4432333" lon="5.3214683"><ele>0.0</ele><time>2026-04-30T17:39:31.1Z</time></trkpt><trkpt lat="42.4432768" lon="5.3215653"><ele>0.0</ele><time>2026-04-30T17:39:33.099Z</time></trkpt><trkpt lat="42.4433305" lon="5.3216954"><ele>0.0</ele><time>2026-04-30T17:39:35.1Z</time></trkpt><trkpt lat="42.4433885" lon="5.32183"><ele>0.0</ele><time>2026-04-30T17:39:37.099Z</time></trkpt><trkpt lat="42.4434461" lon="5.3219755"><ele>0.0</ele><time>2026-04-30T17:39:39.1Z</time></trkpt><trkpt lat="42.4434888" lon="5.3221164"><ele>0.0</ele><time>2026-04-30T17:39:41.1Z</time></trkpt><trkpt lat="42.4435355" lon="5.3222499"><ele>0.0</ele><time>2026-04-30T17:39:43.1Z</time></trkpt><trkpt lat="42.4435848" lon="5.3223901"><ele>0.0</ele><time>2026-04-30T17:39:45.1Z</time></trkpt><trkpt lat="42.4436503" lon="5.3225995"><ele>0.0</ele><time>2026-04-30T17:39:48.099Z</time></trkpt><trkpt lat="42.4437476" lon="5.3228778"><ele>0.0</ele><time>2026-04-30T17:39:52.099Z</time></trkpt><trkpt lat="42.4437834" lon="5.3230294"><ele>0.0</ele><time>2026-04-30T17:39:54.1Z</time></trkpt><trkpt lat="42.4438147" lon="5.3231775"><ele>0.0</ele><time>2026-04-30T17:39:56.1Z</time></trkpt><trkpt lat="42.4438504" lon="5.3233158"><ele>0.0</ele><time>2026-04-30T17:39:58.1Z</time></trkpt><trkpt lat="42.4439023" lon="5.3234427"><ele>0.0</ele><time>2026-04-30T17:40:00.1Z</time></trkpt><trkpt lat="42.4439452" lon="5.323578"><ele>0.0</ele><time>2026-04-30T17:40:02.099Z</time></trkpt><trkpt lat="42.4439927" lon="5.3237213"><ele>0.0</ele><time>2026-04-30T17:40:04.1Z</time></trkpt><trkpt lat="42.4440321" lon="5.3238614"><ele>0.0</ele><time>2026-04-30T17:40:06.099Z</time></trkpt><trkpt lat="42.4440742" lon="5.3239989"><ele>0.0</ele><time>2026-04-30T17:40:08.1Z</time></trkpt><trkpt lat="42.4441384" lon="5.3241356"><ele>0.0</ele><time>2026-04-30T17:40:10.1Z</time></trkpt><trkpt lat="42.4442562" lon="5.3244005"><ele>0.0</ele><time>2026-04-30T17:40:14.099Z</time></trkpt><trkpt lat="42.4443095" lon="5.3245309"><ele>0.0</ele><time>2026-04-30T17:40:16.1Z</time></trkpt><trkpt lat="42.444358" lon="5.3246605"><ele>0.0</ele><time>2026-04-30T17:40:18.1Z</time></trkpt><trkpt lat="42.4444083" lon="5.3247901"><ele>0.0</ele><time>2026-04-30T17:40:20.1Z</time></trkpt><trkpt lat="42.4444643" lon="5.3249184"><ele>0.0</ele><time>2026-04-30T17:40:22.1Z</time></trkpt><trkpt lat="42.4445119" lon="5.3250506"><ele>0.0</ele><time>2026-04-30T17:40:24.099Z</time></trkpt><trkpt lat="42.4445504" lon="5.3251949"><ele>0.0</ele><time>2026-04-30T17:40:26.1Z</time></trkpt><trkpt lat="42.4446024" lon="5.325337"><ele>0.0</ele><time>2026-04-30T17:40:28.099Z</time></trkpt><trkpt lat="42.4446448" lon="5.3254873"><ele>0.0</ele><time>2026-04-30T17:40:30.1Z</time></trkpt><trkpt lat="42.4446771" lon="5.3256279"><ele>0.0</ele><time>2026-04-30T17:40:32.1Z</time></trkpt><trkpt lat="42.4447757" lon="5.3258945"><ele>0.0</ele><time>2026-04-30T17:40:36.099Z</time></trkpt><trkpt lat="42.4448101" lon="5.3259719"><ele>0.0</ele><time>2026-04-30T17:40:38.151Z</time></trkpt><trkpt lat="42.4448936" lon="5.3260753"><ele>0.0</ele><time>2026-04-30T17:40:40.161Z</time></trkpt><trkpt lat="42.4449252" lon="5.326191"><ele>0.0</ele><time>2026-04-30T17:40:41.167Z</time></trkpt><trkpt lat="42.4449135" lon="5.3262856"><ele>0.0</ele><time>2026-04-30T17:40:42.099Z</time></trkpt><trkpt lat="42.444915" lon="5.3263728"><ele>0.0</ele><time>2026-04-30T17:40:43.177Z</time></trkpt><trkpt lat="42.4449487" lon="5.3264453"><ele>0.0</ele><time>2026-04-30T17:40:44.099Z</time></trkpt><trkpt lat="42.4450009" lon="5.3265697"><ele>0.0</ele><time>2026-04-30T17:40:46.099Z</time></trkpt><trkpt lat="42.4450515" lon="5.3267081"><ele>0.0</ele><time>2026-04-30T17:40:48.1Z</time></trkpt><trkpt lat="42.4451084" lon="5.3268433"><ele>0.0</ele><time>2026-04-30T17:40:50.099Z</time></trkpt><trkpt lat="42.4451577" lon="5.3269805"><ele>0.0</ele><time>2026-04-30T17:40:52.099Z</time></trkpt><trkpt lat="42.4452032" lon="5.3271175"><ele>0.0</ele><time>2026-04-30T17:40:54.1Z</time></trkpt><trkpt lat="42.445309" lon="5.3273873"><ele>0.0</ele><time>2026-04-30T17:40:58.099Z</time></trkpt><trkpt lat="42.4453705" lon="5.3275204"><ele>0.0</ele><time>2026-04-30T17:41:00.099Z</time></trkpt><trkpt lat="42.4454331" lon="5.3276423"><ele>0.0</ele><time>2026-04-30T17:41:02.099Z</time></trkpt><trkpt lat="42.4454914" lon="5.3277643"><ele>0.0</ele><time>2026-04-30T17:41:04.1Z</time></trkpt><trkpt lat="42.4455296" lon="5.3278902"><ele>0.0</ele><time>2026-04-30T17:41:06.099Z</time></trkpt><trkpt lat="42.4455748" lon="5.3280252"><ele>0.0</ele><time>2026-04-30T17:41:08.099Z</time></trkpt><trkpt lat="42.4456181" lon="5.3281666"><ele>0.0</ele><time>2026-04-30T17:41:10.099Z</time></trkpt><trkpt lat="42.4456664" lon="5.3283075"><ele>0.0</ele><time>2026-04-30T17:41:12.099Z</time></trkpt><trkpt lat="42.4457182" lon="5.3284432"><ele>0.0</ele><time>2026-04-30T17:41:14.099Z</time></trkpt><trkpt lat="42.4457733" lon="5.3285778"><ele>0.0</ele><time>2026-04-30T17:41:16.099Z</time></trkpt><trkpt lat="42.4458856" lon="5.3288423"><ele>0.0</ele><time>2026-04-30T17:41:20.099Z</time></trkpt><trkpt lat="42.4459664" lon="5.3290316"><ele>0.0</ele><time>2026-04-30T17:41:23.099Z</time></trkpt><trkpt lat="42.4460215" lon="5.3291633"><ele>0.0</ele><time>2026-04-30T17:41:25.1Z</time></trkpt><trkpt lat="42.4460698" lon="5.3293046"><ele>0.0</ele><time>2026-04-30T17:41:27.099Z</time></trkpt><trkpt lat="42.4461105" lon="5.3294511"><ele>0.0</ele><time>2026-04-30T17:41:29.1Z</time></trkpt><trkpt lat="42.4461563" lon="5.3295898"><ele>0.0</ele><time>2026-04-30T17:41:31.1Z</time></trkpt><trkpt lat="42.4461908" lon="5.3297407"><ele>0.0</ele><time>2026-04-30T17:41:33.1Z</time></trkpt><trkpt lat="42.4462031" lon="5.3298383"><ele>0.0</ele><time>2026-04-30T17:41:35.1Z</time></trkpt><trkpt lat="42.4462408" lon="5.3299293"><ele>0.0</ele><time>2026-04-30T17:41:36.099Z</time></trkpt><trkpt lat="42.4462973" lon="5.3300615"><ele>0.0</ele><time>2026-04-30T17:41:38.1Z</time></trkpt><trkpt lat="42.4464038" lon="5.330329"><ele>0.0</ele><time>2026-04-30T17:41:42.099Z</time></trkpt><trkpt lat="42.4464485" lon="5.3304634"><ele>0.0</ele><time>2026-04-30T17:41:44.099Z</time></trkpt><trkpt lat="42.4464828" lon="5.3306079"><ele>0.0</ele><time>2026-04-30T17:41:46.099Z</time></trkpt><trkpt lat="42.4465189" lon="5.3307483"><ele>0.0</ele><time>2026-04-30T17:41:48.099Z</time></trkpt><trkpt lat="42.4465573" lon="5.3308844"><ele>0.0</ele><time>2026-04-30T17:41:50.1Z</time></trkpt><trkpt lat="42.4465957" lon="5.3310138"><ele>0.0</ele><time>2026-04-30T17:41:52.099Z</time></trkpt><trkpt lat="42.4466585" lon="5.3312174"><ele>0.0</ele><time>2026-04-30T17:41:55.099Z</time></trkpt><trkpt lat="42.4467138" lon="5.3313568"><ele>0.0</ele><time>2026-04-30T17:41:57.099Z</time></trkpt><trkpt lat="42.4467742" lon="5.3314917"><ele>0.0</ele><time>2026-04-30T17:41:59.1Z</time></trkpt><trkpt lat="42.4468727" lon="5.331757"><ele>0.0</ele><time>2026-04-30T17:42:03.1Z</time></trkpt><trkpt lat="42.4469232" lon="5.3318884"><ele>0.0</ele><time>2026-04-30T17:42:05.099Z</time></trkpt><trkpt lat="42.4469704" lon="5.3320264"><ele>0.0</ele><time>2026-04-30T17:42:07.1Z</time></trkpt><trkpt lat="42.447024" lon="5.3321585"><ele>0.0</ele><time>2026-04-30T17:42:09.099Z</time></trkpt><trkpt lat="42.4470815" lon="5.3322947"><ele>0.0</ele><time>2026-04-30T17:42:11.099Z</time></trkpt><trkpt lat="42.4471517" lon="5.332458"><ele>0.0</ele><time>2026-04-30T17:42:14.158Z</time></trkpt><trkpt lat="42.4471768" lon="5.3325533"><ele>0.0</ele><time>2026-04-30T17:42:15.163Z</time></trkpt><trkpt lat="42.4471984" lon="5.3326378"><ele>0.0</ele><time>2026-04-30T17:42:16.169Z</time></trkpt><trkpt lat="42.4472209" lon="5.3327175"><ele>0.0</ele><time>2026-04-30T17:42:17.174Z</time></trkpt><trkpt lat="42.4472766" lon="5.33286"><ele>0.0</ele><time>2026-04-30T17:42:19.1Z</time></trkpt><trkpt lat="42.4473232" lon="5.3329761"><ele>0.0</ele><time>2026-04-30T17:42:21.099Z</time></trkpt><trkpt lat="42.4474163" lon="5.3332581"><ele>0.0</ele><time>2026-04-30T17:42:25.099Z</time></trkpt><trkpt lat="42.4474681" lon="5.3333981"><ele>0.0</ele><time>2026-04-30T17:42:27.099Z</time></trkpt><trkpt lat="42.4475273" lon="5.3335252"><ele>0.0</ele><time>2026-04-30T17:42:29.099Z</time></trkpt><trkpt lat="42.4475862" lon="5.3336549"><ele>0.0</ele><time>2026-04-30T17:42:31.099Z</time></trkpt><trkpt lat="42.4476322" lon="5.3337865"><ele>0.0</ele><time>2026-04-30T17:42:33.1Z</time></trkpt><trkpt lat="42.4476699" lon="5.3339289"><ele>0.0</ele><time>2026-04-30T17:42:35.099Z</time></trkpt><trkpt lat="42.447707" lon="5.3340635"><ele>0.0</ele><time>2026-04-30T17:42:37.099Z</time></trkpt><trkpt lat="42.4477555" lon="5.3342065"><ele>0.0</ele><time>2026-04-30T17:42:39.099Z</time></trkpt><trkpt lat="42.4478077" lon="5.3343483"><ele>0.0</ele><time>2026-04-30T17:42:41.099Z</time></trkpt><trkpt lat="42.4478524" lon="5.3344833"><ele>0.0</ele><time>2026-04-30T17:42:43.1Z</time></trkpt><trkpt lat="42.4479372" lon="5.334755"><ele>0.0</ele><time>2026-04-30T17:42:47.1Z</time></trkpt><trkpt lat="42.4479989" lon="5.3348872"><ele>0.0</ele><time>2026-04-30T17:42:49.1Z</time></trkpt><trkpt lat="42.4480458" lon="5.3350246"><ele>0.0</ele><time>2026-04-30T17:42:51.099Z</time></trkpt><trkpt lat="42.4480981" lon="5.3351571"><ele>0.0</ele><time>2026-04-30T17:42:53.1Z</time></trkpt><trkpt lat="42.4481484" lon="5.3352914"><ele>0.0</ele><time>2026-04-30T17:42:55.099Z</time></trkpt><trkpt lat="42.4481886" lon="5.3354347"><ele>0.0</ele><time>2026-04-30T17:42:57.099Z</time></trkpt><trkpt lat="42.4482313" lon="5.3355702"><ele>0.0</ele><time>2026-04-30T17:42:59.099Z</time></trkpt><trkpt lat="42.4482767" lon="5.3356925"><ele>0.0</ele><time>2026-04-30T17:43:01.1Z</time></trkpt><trkpt lat="42.4483325" lon="5.3358234"><ele>0.0</ele><time>2026-04-30T17:43:03.099Z</time></trkpt><trkpt lat="42.4483662" lon="5.3359731"><ele>0.0</ele><time>2026-04-30T17:43:05.099Z</time></trkpt><trkpt lat="42.4484579" lon="5.3362525"><ele>0.0</ele><time>2026-04-30T17:43:09.1Z</time></trkpt><trkpt lat="42.4485061" lon="5.3363905"><ele>0.0</ele><time>2026-04-30T17:43:11.1Z</time></trkpt><trkpt lat="42.4485663" lon="5.3365248"><ele>0.0</ele><time>2026-04-30T17:43:13.099Z</time></trkpt><trkpt lat="42.4486101" lon="5.3366553"><ele>0.0</ele><time>2026-04-30T17:43:15.099Z</time></trkpt><trkpt lat="42.4486577" lon="5.3367888"><ele>0.0</ele><time>2026-04-30T17:43:17.099Z</time></trkpt><trkpt lat="42.4487109" lon="5.3369204"><ele>0.0</ele><time>2026-04-30T17:43:19.1Z</time></trkpt><trkpt lat="42.4487585" lon="5.3370594"><ele>0.0</ele><time>2026-04-30T17:43:21.1Z</time></trkpt><trkpt lat="42.4487897" lon="5.3371977"><ele>0.0</ele><time>2026-04-30T17:43:23.1Z</time></trkpt><trkpt lat="42.4488441" lon="5.3373285"><ele>0.0</ele><time>2026-04-30T17:43:25.099Z</time></trkpt><trkpt lat="42.4488915" lon="5.3374619"><ele>0.0</ele><time>2026-04-30T17:43:27.099Z</time></trkpt><trkpt lat="42.4489738" lon="5.3377231"><ele>0.0</ele><time>2026-04-30T17:43:31.099Z</time></trkpt><trkpt lat="42.4490175" lon="5.3378611"><ele>0.0</ele><time>2026-04-30T17:43:33.099Z</time></trkpt><trkpt lat="42.4490635" lon="5.3379984"><ele>0.0</ele><time>2026-04-30T17:43:35.099Z</time></trkpt><trkpt lat="42.4491207" lon="5.3381766"><ele>0.0</ele><time>2026-04-30T17:43:38.156Z</time></trkpt><trkpt lat="42.44915" lon="5.3382596"><ele>0.0</ele><time>2026-04-30T17:43:39.161Z</time></trkpt><trkpt lat="42.4491729" lon="5.3383426"><ele>0.0</ele><time>2026-04-30T17:43:40.166Z</time></trkpt><trkpt lat="42.4492093" lon="5.3384994"><ele>0.0</ele><time>2026-04-30T17:43:42.177Z</time></trkpt><trkpt lat="42.4492687" lon="5.3386337"><ele>0.0</ele><time>2026-04-30T17:43:44.099Z</time></trkpt><trkpt lat="42.4493167" lon="5.3387794"><ele>0.0</ele><time>2026-04-30T17:43:46.099Z</time></trkpt><trkpt lat="42.4493769" lon="5.3389187"><ele>0.0</ele><time>2026-04-30T17:43:48.11Z</time></trkpt><trkpt lat="42.4494651" lon="5.3391587"><ele>0.0</ele><time>2026-04-30T17:43:52.1Z</time></trkpt><trkpt lat="42.4495167" lon="5.3392996"><ele>0.0</ele><time>2026-04-30T17:43:54.099Z</time></trkpt><trkpt lat="42.449551" lon="5.3394486"><ele>0.0</ele><time>2026-04-30T17:43:56.099Z</time></trkpt><trkpt lat="42.4495937" lon="5.3395798"><ele>0.0</ele><time>2026-04-30T17:43:58.1Z</time></trkpt><trkpt lat="42.4496385" lon="5.3397163"><ele>0.0</ele><time>2026-04-30T17:44:00.099Z</time></trkpt><trkpt lat="42.4496806" lon="5.3399236"><ele>0.0</ele><time>2026-04-30T17:44:03.1Z</time></trkpt><trkpt lat="42.4497259" lon="5.3400598"><ele>0.0</ele><time>2026-04-30T17:44:05.099Z</time></trkpt><trkpt lat="42.4497796" lon="5.3401917"><ele>0.0</ele><time>2026-04-30T17:44:07.1Z</time></trkpt><trkpt lat="42.4498233" lon="5.3403303"><ele>0.0</ele><time>2026-04-30T17:44:09.1Z</time></trkpt><trkpt lat="42.4499093" lon="5.3406034"><ele>0.0</ele><time>2026-04-30T17:44:13.099Z</time></trkpt><trkpt lat="42.4499582" lon="5.3407353"><ele>0.0</ele><time>2026-04-30T17:44:15.1Z</time></trkpt><trkpt lat="42.4500075" lon="5.3408624"><ele>0.0</ele><time>2026-04-30T17:44:17.1Z</time></trkpt><trkpt lat="42.4500509" lon="5.3409966"><ele>0.0</ele><time>2026-04-30T17:44:19.1Z</time></trkpt><trkpt lat="42.4501073" lon="5.3411297"><ele>0.0</ele><time>2026-04-30T17:44:21.099Z</time></trkpt><trkpt lat="42.450161" lon="5.3412634"><ele>0.0</ele><time>2026-04-30T17:44:23.1Z</time></trkpt><trkpt lat="42.4502183" lon="5.3413925"><ele>0.0</ele><time>2026-04-30T17:44:25.1Z</time></trkpt><trkpt lat="42.4502524" lon="5.3415269"><ele>0.0</ele><time>2026-04-30T17:44:27.099Z</time></trkpt><trkpt lat="42.450292" lon="5.3416631"><ele>0.0</ele><time>2026-04-30T17:44:29.1Z</time></trkpt><trkpt lat="42.4503421" lon="5.3417954"><ele>0.0</ele><time>2026-04-30T17:44:31.1Z</time></trkpt><trkpt lat="42.4504625" lon="5.3420523"><ele>0.0</ele><time>2026-04-30T17:44:35.1Z</time></trkpt><trkpt lat="42.4505133" lon="5.3421848"><ele>0.0</ele><time>2026-04-30T17:44:37.099Z</time></trkpt><trkpt lat="42.4505644" lon="5.342317"><ele>0.0</ele><time>2026-04-30T17:44:39.1Z</time></trkpt><trkpt lat="42.4506179" lon="5.3424468"><ele>0.0</ele><time>2026-04-30T17:44:41.1Z</time></trkpt><trkpt lat="42.4506793" lon="5.3425909"><ele>0.0</ele><time>2026-04-30T17:44:43.099Z</time></trkpt><trkpt lat="42.4507319" lon="5.3427341"><ele>0.0</ele><time>2026-04-30T17:44:45.1Z</time></trkpt><trkpt lat="42.4507848" lon="5.3428672"><ele>0.0</ele><time>2026-04-30T17:44:47.1Z</time></trkpt><trkpt lat="42.4508409" lon="5.3430013"><ele>0.0</ele><time>2026-04-30T17:44:49.099Z</time></trkpt><trkpt lat="42.4508936" lon="5.3431354"><ele>0.0</ele><time>2026-04-30T17:44:51.099Z</time></trkpt><trkpt lat="42.4509448" lon="5.343276"><ele>0.0</ele><time>2026-04-30T17:44:53.099Z</time></trkpt><trkpt lat="42.4510371" lon="5.3435408"><ele>0.0</ele><time>2026-04-30T17:44:57.1Z</time></trkpt><trkpt lat="42.4510895" lon="5.3436795"><ele>0.0</ele><time>2026-04-30T17:44:59.099Z</time></trkpt><trkpt lat="42.4511469" lon="5.343791"><ele>0.0</ele><time>2026-04-30T17:45:01.099Z</time></trkpt><trkpt lat="42.4511904" lon="5.3439247"><ele>0.0</ele><time>2026-04-30T17:45:03.099Z</time></trkpt><trkpt lat="42.4512368" lon="5.3440649"><ele>0.0</ele><time>2026-04-30T17:45:05.1Z</time></trkpt><trkpt lat="42.4512918" lon="5.3441877"><ele>0.0</ele><time>2026-04-30T17:45:07.1Z</time></trkpt><trkpt lat="42.4513398" lon="5.3443155"><ele>0.0</ele><time>2026-04-30T17:45:09.099Z</time></trkpt><trkpt lat="42.4513799" lon="5.3444601"><ele>0.0</ele><time>2026-04-30T17:45:11.099Z</time></trkpt><trkpt lat="42.4514149" lon="5.3446032"><ele>0.0</ele><time>2026-04-30T17:45:13.099Z</time></trkpt><trkpt lat="42.4514734" lon="5.3447434"><ele>0.0</ele><time>2026-04-30T17:45:15.1Z</time></trkpt><trkpt lat="42.4515721" lon="5.3450219"><ele>0.0</ele><time>2026-04-30T17:45:19.099Z</time></trkpt><trkpt lat="42.4516241" lon="5.3451538"><ele>0.0</ele><time>2026-04-30T17:45:21.1Z</time></trkpt><trkpt lat="42.451663" lon="5.3452874"><ele>0.0</ele><time>2026-04-30T17:45:23.099Z</time></trkpt><trkpt lat="42.451694" lon="5.3454278"><ele>0.0</ele><time>2026-04-30T17:45:25.099Z</time></trkpt><trkpt lat="42.4517339" lon="5.3455613"><ele>0.0</ele><time>2026-04-30T17:45:27.1Z</time></trkpt><trkpt lat="42.4517938" lon="5.3456967"><ele>0.0</ele><time>2026-04-30T17:45:29.1Z</time></trkpt><trkpt lat="42.4518578" lon="5.3458239"><ele>0.0</ele><time>2026-04-30T17:45:31.099Z</time></trkpt><trkpt lat="42.4519104" lon="5.3459552"><ele>0.0</ele><time>2026-04-30T17:45:33.1Z</time></trkpt><trkpt lat="42.4519497" lon="5.3460985"><ele>0.0</ele><time>2026-04-30T17:45:35.099Z</time></trkpt><trkpt lat="42.451994" lon="5.3462511"><ele>0.0</ele><time>2026-04-30T17:45:37.1Z</time></trkpt><trkpt lat="42.4520671" lon="5.3465431"><ele>0.0</ele><time>2026-04-30T17:45:41.1Z</time></trkpt><trkpt lat="42.4521052" lon="5.3466783"><ele>0.0</ele><time>2026-04-30T17:45:43.099Z</time></trkpt><trkpt lat="42.4521478" lon="5.346818"><ele>0.0</ele><time>2026-04-30T17:45:45.099Z</time></trkpt><trkpt lat="42.4521951" lon="5.3469565"><ele>0.0</ele><time>2026-04-30T17:45:47.1Z</time></trkpt><trkpt lat="42.4522348" lon="5.3470964"><ele>0.0</ele><time>2026-04-30T17:45:49.099Z</time></trkpt><trkpt lat="42.4522766" lon="5.3472318"><ele>0.0</ele><time>2026-04-30T17:45:51.099Z</time></trkpt><trkpt lat="42.4523248" lon="5.3473728"><ele>0.0</ele><time>2026-04-30T17:45:53.099Z</time></trkpt><trkpt lat="42.4523779" lon="5.347509"><ele>0.0</ele><time>2026-04-30T17:45:55.1Z</time></trkpt><trkpt lat="42.4524252" lon="5.3476349"><ele>0.0</ele><time>2026-04-30T17:45:57.099Z</time></trkpt><trkpt lat="42.452475" lon="5.3477729"><ele>0.0</ele><time>2026-04-30T17:45:59.099Z</time></trkpt><trkpt lat="42.4525704" lon="5.3480418"><ele>0.0</ele><time>2026-04-30T17:46:03.099Z</time></trkpt><trkpt lat="42.45262" lon="5.3481782"><ele>0.0</ele><time>2026-04-30T17:46:05.1Z</time></trkpt><trkpt lat="42.4526602" lon="5.3483134"><ele>0.0</ele><time>2026-04-30T17:46:07.099Z</time></trkpt><trkpt lat="42.4527017" lon="5.3484478"><ele>0.0</ele><time>2026-04-30T17:46:09.1Z</time></trkpt><trkpt lat="42.4527454" lon="5.3485833"><ele>0.0</ele><time>2026-04-30T17:46:11.099Z</time></trkpt><trkpt lat="42.4527904" lon="5.34872"><ele>0.0</ele><time>2026-04-30T17:46:13.1Z</time></trkpt><trkpt lat="42.4528349" lon="5.3488579"><ele>0.0</ele><time>2026-04-30T17:46:15.1Z</time></trkpt><trkpt lat="42.4528813" lon="5.3489867"><ele>0.0</ele><time>2026-04-30T17:46:17.099Z</time></trkpt><trkpt lat="42.4529331" lon="5.3491243"><ele>0.0</ele><time>2026-04-30T17:46:19.1Z</time></trkpt><trkpt lat="42.4529817" lon="5.3492632"><ele>0.0</ele><time>2026-04-30T17:46:21.1Z</time></trkpt><trkpt lat="42.4530902" lon="5.3495395"><ele>0.0</ele><time>2026-04-30T17:46:25.1Z</time></trkpt><trkpt lat="42.4531417" lon="5.3496781"><ele>0.0</ele><time>2026-04-30T17:46:27.1Z</time></trkpt><trkpt lat="42.4531895" lon="5.349817"><ele>0.0</ele><time>2026-04-30T17:46:29.099Z</time></trkpt><trkpt lat="42.4532363" lon="5.3499483"><ele>0.0</ele><time>2026-04-30T17:46:31.099Z</time></trkpt><trkpt lat="42.4532881" lon="5.3500859"><ele>0.0</ele><time>2026-04-30T17:46:33.099Z</time></trkpt><trkpt lat="42.4533404" lon="5.3502173"><ele>0.0</ele><time>2026-04-30T17:46:35.099Z</time></trkpt><trkpt lat="42.4533893" lon="5.3503525"><ele>0.0</ele><time>2026-04-30T17:46:37.1Z</time></trkpt><trkpt lat="42.4534384" lon="5.35049"><ele>0.0</ele><time>2026-04-30T17:46:39.099Z</time></trkpt><trkpt lat="42.4534834" lon="5.3506182"><ele>0.0</ele><time>2026-04-30T17:46:41.099Z</time></trkpt><trkpt lat="42.4535899" lon="5.3508932"><ele>0.0</ele><time>2026-04-30T17:46:45.098Z</time></trkpt><trkpt lat="42.4536424" lon="5.3510206"><ele>0.0</ele><time>2026-04-30T17:46:47.098Z</time></trkpt><trkpt lat="42.453685" lon="5.3511542"><ele>0.0</ele><time>2026-04-30T17:46:49.099Z</time></trkpt><trkpt lat="42.4537287" lon="5.3512962"><ele>0.0</ele><time>2026-04-30T17:46:51.098Z</time></trkpt><trkpt lat="42.4537734" lon="5.3514346"><ele>0.0</ele><time>2026-04-30T17:46:53.099Z</time></trkpt><trkpt lat="42.4538167" lon="5.3515797"><ele>0.0</ele><time>2026-04-30T17:46:55.099Z</time></trkpt><trkpt lat="42.4538473" lon="5.3517259"><ele>0.0</ele><time>2026-04-30T17:46:57.099Z</time></trkpt><trkpt lat="42.4538819" lon="5.3518667"><ele>0.0</ele><time>2026-04-30T17:46:59.099Z</time></trkpt><trkpt lat="42.4539232" lon="5.3520077"><ele>0.0</ele><time>2026-04-30T17:47:01.098Z</time></trkpt><trkpt lat="42.4539792" lon="5.3521307"><ele>0.0</ele><time>2026-04-30T17:47:03.098Z</time></trkpt><trkpt lat="42.4540837" lon="5.352402"><ele>0.0</ele><time>2026-04-30T17:47:07.098Z</time></trkpt><trkpt lat="42.4541335" lon="5.3525435"><ele>0.0</ele><time>2026-04-30T17:47:09.098Z</time></trkpt><trkpt lat="42.4541796" lon="5.3526816"><ele>0.0</ele><time>2026-04-30T17:47:11.098Z</time></trkpt><trkpt lat="42.4542438" lon="5.3528854"><ele>0.0</ele><time>2026-04-30T17:47:14.098Z</time></trkpt><trkpt lat="42.4542926" lon="5.3530092"><ele>0.0</ele><time>2026-04-30T17:47:16.099Z</time></trkpt><trkpt lat="42.4543369" lon="5.3531394"><ele>0.0</ele><time>2026-04-30T17:47:18.098Z</time></trkpt><trkpt lat="42.4543819" lon="5.3532784"><ele>0.0</ele><time>2026-04-30T17:47:20.099Z</time></trkpt><trkpt lat="42.4544217" lon="5.3534128"><ele>0.0</ele><time>2026-04-30T17:47:22.098Z</time></trkpt><trkpt lat="42.4544631" lon="5.3535606"><ele>0.0</ele><time>2026-04-30T17:47:24.099Z</time></trkpt><trkpt lat="42.4545549" lon="5.3538531"><ele>0.0</ele><time>2026-04-30T17:47:28.098Z</time></trkpt><trkpt lat="42.4546302" lon="5.3539695"><ele>0.0</ele><time>2026-04-30T17:47:30.099Z</time></trkpt><trkpt lat="42.4546801" lon="5.3540947"><ele>0.0</ele><time>2026-04-30T17:47:32.098Z</time></trkpt><trkpt lat="42.4547164" lon="5.3542451"><ele>0.0</ele><time>2026-04-30T17:47:34.099Z</time></trkpt><trkpt lat="42.4547471" lon="5.3543997"><ele>0.0</ele><time>2026-04-30T17:47:36.099Z</time></trkpt><trkpt lat="42.4547966" lon="5.3545419"><ele>0.0</ele><time>2026-04-30T17:47:38.099Z</time></trkpt><trkpt lat="42.4548434" lon="5.3546734"><ele>0.0</ele><time>2026-04-30T17:47:40.098Z</time></trkpt><trkpt lat="42.4548923" lon="5.3548079"><ele>0.0</ele><time>2026-04-30T17:47:42.098Z</time></trkpt><trkpt lat="42.4549269" lon="5.3549412"><ele>0.0</ele><time>2026-04-30T17:47:44.099Z</time></trkpt><trkpt lat="42.4549734" lon="5.3550717"><ele>0.0</ele><time>2026-04-30T17:47:46.098Z</time></trkpt><trkpt lat="42.4550768" lon="5.3553223"><ele>0.0</ele><time>2026-04-30T17:47:50.098Z</time></trkpt><trkpt lat="42.4551258" lon="5.3554516"><ele>0.0</ele><time>2026-04-30T17:47:52.098Z</time></trkpt><trkpt lat="42.4551632" lon="5.355588"><ele>0.0</ele><time>2026-04-30T17:47:54.098Z</time></trkpt><trkpt lat="42.4551905" lon="5.3557268"><ele>0.0</ele><time>2026-04-30T17:47:56.099Z</time></trkpt><trkpt lat="42.4552356" lon="5.3558612"><ele>0.0</ele><time>2026-04-30T17:47:58.098Z</time></trkpt><trkpt lat="42.4552877" lon="5.3559942"><ele>0.0</ele><time>2026-04-30T17:48:00.098Z</time></trkpt><trkpt lat="42.4553276" lon="5.3561327"><ele>0.0</ele><time>2026-04-30T17:48:02.098Z</time></trkpt><trkpt lat="42.4553835" lon="5.3562653"><ele>0.0</ele><time>2026-04-30T17:48:04.099Z</time></trkpt><trkpt lat="42.4554361" lon="5.3564019"><ele>0.0</ele><time>2026-04-30T17:48:06.098Z</time></trkpt><trkpt lat="42.4554837" lon="5.3565386"><ele>0.0</ele><time>2026-04-30T17:48:08.099Z</time></trkpt><trkpt lat="42.4555815" lon="5.3568038"><ele>0.0</ele><time>2026-04-30T17:48:12.098Z</time></trkpt><trkpt lat="42.4556404" lon="5.3569441"><ele>0.0</ele><time>2026-04-30T17:48:14.099Z</time></trkpt><trkpt lat="42.4557081" lon="5.3571463"><ele>0.0</ele><time>2026-04-30T17:48:17.098Z</time></trkpt><trkpt lat="42.4557585" lon="5.3572808"><ele>0.0</ele><time>2026-04-30T17:48:19.099Z</time></trkpt><trkpt lat="42.4557922" lon="5.3574243"><ele>0.0</ele><time>2026-04-30T17:48:21.098Z</time></trkpt><trkpt lat="42.4558243" lon="5.3575628"><ele>0.0</ele><time>2026-04-30T17:48:23.098Z</time></trkpt><trkpt lat="42.455872" lon="5.3576854"><ele>0.0</ele><time>2026-04-30T17:48:25.098Z</time></trkpt><trkpt lat="42.455925" lon="5.357823"><ele>0.0</ele><time>2026-04-30T17:48:27.098Z</time></trkpt><trkpt lat="42.4559649" lon="5.3579636"><ele>0.0</ele><time>2026-04-30T17:48:29.098Z</time></trkpt><trkpt lat="42.4560572" lon="5.3582363"><ele>0.0</ele><time>2026-04-30T17:48:33.098Z</time></trkpt><trkpt lat="42.4561146" lon="5.3583745"><ele>0.0</ele><time>2026-04-30T17:48:35.099Z</time></trkpt><trkpt lat="42.4561696" lon="5.3585161"><ele>0.0</ele><time>2026-04-30T17:48:37.098Z</time></trkpt><trkpt lat="42.4562209" lon="5.3586579"><ele>0.0</ele><time>2026-04-30T17:48:39.098Z</time></trkpt><trkpt lat="42.45627" lon="5.3587942"><ele>0.0</ele><time>2026-04-30T17:48:41.099Z</time></trkpt><trkpt lat="42.4563181" lon="5.3589282"><ele>0.0</ele><time>2026-04-30T17:48:43.098Z</time></trkpt><trkpt lat="42.4563785" lon="5.3590566"><ele>0.0</ele><time>2026-04-30T17:48:45.099Z</time></trkpt><trkpt lat="42.4564254" lon="5.359192"><ele>0.0</ele><time>2026-04-30T17:48:47.098Z</time></trkpt><trkpt lat="42.4564762" lon="5.3593171"><ele>0.0</ele><time>2026-04-30T17:48:49.098Z</time></trkpt><trkpt lat="42.4565259" lon="5.3594404"><ele>0.0</ele><time>2026-04-30T17:48:51.098Z</time></trkpt><trkpt lat="42.4566226" lon="5.3597227"><ele>0.0</ele><time>2026-04-30T17:48:55.098Z</time></trkpt><trkpt lat="42.4566629" lon="5.3598694"><ele>0.0</ele><time>2026-04-30T17:48:57.098Z</time></trkpt><trkpt lat="42.4567164" lon="5.359997"><ele>0.0</ele><time>2026-04-30T17:48:59.098Z</time></trkpt><trkpt lat="42.4567758" lon="5.3601237"><ele>0.0</ele><time>2026-04-30T17:49:01.098Z</time></trkpt><trkpt lat="42.4568224" lon="5.3602668"><ele>0.0</ele><time>2026-04-30T17:49:03.099Z</time></trkpt><trkpt lat="42.4568584" lon="5.360418"><ele>0.0</ele><time>2026-04-30T17:49:05.098Z</time></trkpt><trkpt lat="42.4569058" lon="5.3605504"><ele>0.0</ele><time>2026-04-30T17:49:07.098Z</time></trkpt><trkpt lat="42.456958" lon="5.360674"><ele>0.0</ele><time>2026-04-30T17:49:09.098Z</time></trkpt><trkpt lat="42.4569976" lon="5.3608104"><ele>0.0</ele><time>2026-04-30T17:49:11.098Z</time></trkpt><trkpt lat="42.4570262" lon="5.3609509"><ele>0.0</ele><time>2026-04-30T17:49:13.098Z</time></trkpt><trkpt lat="42.457123" lon="5.3612119"><ele>0.0</ele><time>2026-04-30T17:49:17.098Z</time></trkpt><trkpt lat="42.4571849" lon="5.3613427"><ele>0.0</ele><time>2026-04-30T17:49:19.098Z</time></trkpt><trkpt lat="42.4572378" lon="5.3614778"><ele>0.0</ele><time>2026-04-30T17:49:21.099Z</time></trkpt><trkpt lat="42.4572962" lon="5.361616"><ele>0.0</ele><time>2026-04-30T17:49:23.099Z</time></trkpt><trkpt lat="42.4573361" lon="5.3617562"><ele>0.0</ele><time>2026-04-30T17:49:25.098Z</time></trkpt><trkpt lat="42.4573841" lon="5.3618873"><ele>0.0</ele><time>2026-04-30T17:49:27.098Z</time></trkpt><trkpt lat="42.4574415" lon="5.3620109"><ele>0.0</ele><time>2026-04-30T17:49:29.098Z</time></trkpt><trkpt lat="42.4575045" lon="5.3621297"><ele>0.0</ele><time>2026-04-30T17:49:31.099Z</time></trkpt><trkpt lat="42.4575465" lon="5.3622696"><ele>0.0</ele><time>2026-04-30T17:49:33.098Z</time></trkpt><trkpt lat="42.4575778" lon="5.3624119"><ele>0.0</ele><time>2026-04-30T17:49:35.098Z</time></trkpt><trkpt lat="42.4576883" lon="5.3626637"><ele>0.0</ele><time>2026-04-30T17:49:39.099Z</time></trkpt><trkpt lat="42.4577256" lon="5.3627975"><ele>0.0</ele><time>2026-04-30T17:49:41.098Z</time></trkpt><trkpt lat="42.4577594" lon="5.3629384"><ele>0.0</ele><time>2026-04-30T17:49:43.098Z</time></trkpt><trkpt lat="42.4578053" lon="5.3630697"><ele>0.0</ele><time>2026-04-30T17:49:45.098Z</time></trkpt><trkpt lat="42.4578388" lon="5.3632094"><ele>0.0</ele><time>2026-04-30T17:49:47.098Z</time></trkpt><trkpt lat="42.4578803" lon="5.3633538"><ele>0.0</ele><time>2026-04-30T17:49:49.099Z</time></trkpt><trkpt lat="42.4579161" lon="5.3634918"><ele>0.0</ele><time>2026-04-30T17:49:51.098Z</time></trkpt><trkpt lat="42.4579621" lon="5.3636197"><ele>0.0</ele><time>2026-04-30T17:49:53.098Z</time></trkpt><trkpt lat="42.4580132" lon="5.3637539"><ele>0.0</ele><time>2026-04-30T17:49:55.098Z</time></trkpt><trkpt lat="42.4580625" lon="5.3638822"><ele>0.0</ele><time>2026-04-30T17:49:57.098Z</time></trkpt><trkpt lat="42.4581727" lon="5.3641125"><ele>0.0</ele><time>2026-04-30T17:50:01.098Z</time></trkpt><trkpt lat="42.4582389" lon="5.3642365"><ele>0.0</ele><time>2026-04-30T17:50:03.099Z</time></trkpt><trkpt lat="42.4582914" lon="5.3643684"><ele>0.0</ele><time>2026-04-30T17:50:05.098Z</time></trkpt><trkpt lat="42.458338" lon="5.3645032"><ele>0.0</ele><time>2026-04-30T17:50:07.099Z</time></trkpt><trkpt lat="42.4583917" lon="5.3646299"><ele>0.0</ele><time>2026-04-30T17:50:09.098Z</time></trkpt><trkpt lat="42.4584369" lon="5.3647622"><ele>0.0</ele><time>2026-04-30T17:50:11.098Z</time></trkpt><trkpt lat="42.4584845" lon="5.3648987"><ele>0.0</ele><time>2026-04-30T17:50:13.099Z</time></trkpt><trkpt lat="42.4585369" lon="5.3650354"><ele>0.0</ele><time>2026-04-30T17:50:15.098Z</time></trkpt><trkpt lat="42.4585783" lon="5.3651798"><ele>0.0</ele><time>2026-04-30T17:50:17.099Z</time></trkpt><trkpt lat="42.4586324" lon="5.3653205"><ele>0.0</ele><time>2026-04-30T17:50:19.098Z</time></trkpt><trkpt lat="42.4587232" lon="5.3655851"><ele>0.0</ele><time>2026-04-30T17:50:23.099Z</time></trkpt><trkpt lat="42.4587627" lon="5.3657148"><ele>0.0</ele><time>2026-04-30T17:50:25.098Z</time></trkpt><trkpt lat="42.458801" lon="5.3658558"><ele>0.0</ele><time>2026-04-30T17:50:27.098Z</time></trkpt><trkpt lat="42.4588338" lon="5.365996"><ele>0.0</ele><time>2026-04-30T17:50:29.098Z</time></trkpt><trkpt lat="42.4588926" lon="5.3661284"><ele>0.0</ele><time>2026-04-30T17:50:31.099Z</time></trkpt><trkpt lat="42.4589316" lon="5.3662661"><ele>0.0</ele><time>2026-04-30T17:50:33.099Z</time></trkpt><trkpt lat="42.4589745" lon="5.3664099"><ele>0.0</ele><time>2026-04-30T17:50:35.098Z</time></trkpt><trkpt lat="42.4590168" lon="5.3665438"><ele>0.0</ele><time>2026-04-30T17:50:37.098Z</time></trkpt><trkpt lat="42.4590564" lon="5.3666819"><ele>0.0</ele><time>2026-04-30T17:50:39.099Z</time></trkpt><trkpt lat="42.4591119" lon="5.3668079"><ele>0.0</ele><time>2026-04-30T17:50:41.098Z</time></trkpt><trkpt lat="42.4592207" lon="5.3670576"><ele>0.0</ele><time>2026-04-30T17:50:45.099Z</time></trkpt><trkpt lat="42.4592811" lon="5.3671947"><ele>0.0</ele><time>2026-04-30T17:50:47.098Z</time></trkpt><trkpt lat="42.4593291" lon="5.3673405"><ele>0.0</ele><time>2026-04-30T17:50:49.098Z</time></trkpt><trkpt lat="42.4593812" lon="5.3674849"><ele>0.0</ele><time>2026-04-30T17:50:51.098Z</time></trkpt><trkpt lat="42.4594285" lon="5.3676185"><ele>0.0</ele><time>2026-04-30T17:50:53.099Z</time></trkpt><trkpt lat="42.4594754" lon="5.3677658"><ele>0.0</ele><time>2026-04-30T17:50:55.098Z</time></trkpt><trkpt lat="42.4595087" lon="5.367905"><ele>0.0</ele><time>2026-04-30T17:50:57.098Z</time></trkpt><trkpt lat="42.459556" lon="5.3680339"><ele>0.0</ele><time>2026-04-30T17:50:59.098Z</time></trkpt><trkpt lat="42.4596055" lon="5.3680885"><ele>0.0</ele><time>2026-04-30T17:51:00.099Z</time></trkpt><trkpt lat="42.4596641" lon="5.3682149"><ele>0.0</ele><time>2026-04-30T17:51:02.098Z</time></trkpt><trkpt lat="42.4597843" lon="5.3684807"><ele>0.0</ele><time>2026-04-30T17:51:06.099Z</time></trkpt><trkpt lat="42.4598395" lon="5.3686118"><ele>0.0</ele><time>2026-04-30T17:51:08.099Z</time></trkpt><trkpt lat="42.4598779" lon="5.368748"><ele>0.0</ele><time>2026-04-30T17:51:10.098Z</time></trkpt><trkpt lat="42.459922" lon="5.3688772"><ele>0.0</ele><time>2026-04-30T17:51:12.098Z</time></trkpt><trkpt lat="42.4599707" lon="5.3690098"><ele>0.0</ele><time>2026-04-30T17:51:14.099Z</time></trkpt><trkpt lat="42.460016" lon="5.3691485"><ele>0.0</ele><time>2026-04-30T17:51:16.099Z</time></trkpt><trkpt lat="42.4600617" lon="5.369275"><ele>0.0</ele><time>2026-04-30T17:51:18.098Z</time></trkpt><trkpt lat="42.460111" lon="5.3694022"><ele>0.0</ele><time>2026-04-30T17:51:20.098Z</time></trkpt><trkpt lat="42.4601602" lon="5.3695269"><ele>0.0</ele><time>2026-04-30T17:51:22.098Z</time></trkpt><trkpt lat="42.4601957" lon="5.3696698"><ele>0.0</ele><time>2026-04-30T17:51:24.098Z</time></trkpt><trkpt lat="42.4602985" lon="5.3699421"><ele>0.0</ele><time>2026-04-30T17:51:28.098Z</time></trkpt><trkpt lat="42.4603644" lon="5.3700693"><ele>0.0</ele><time>2026-04-30T17:51:30.099Z</time></trkpt><trkpt lat="42.4604089" lon="5.3702025"><ele>0.0</ele><time>2026-04-30T17:51:32.099Z</time></trkpt><trkpt lat="42.4604414" lon="5.3703394"><ele>0.0</ele><time>2026-04-30T17:51:34.098Z</time></trkpt><trkpt lat="42.4604826" lon="5.3704713"><ele>0.0</ele><time>2026-04-30T17:51:36.099Z</time></trkpt><trkpt lat="42.4605409" lon="5.3705966"><ele>0.0</ele><time>2026-04-30T17:51:38.098Z</time></trkpt><trkpt lat="42.4605983" lon="5.3707321"><ele>0.0</ele><time>2026-04-30T17:51:40.098Z</time></trkpt><trkpt lat="42.4606418" lon="5.3708695"><ele>0.0</ele><time>2026-04-30T17:51:42.098Z</time></trkpt><trkpt lat="42.4606899" lon="5.3710087"><ele>0.0</ele><time>2026-04-30T17:51:44.098Z</time></trkpt><trkpt lat="42.4607251" lon="5.3711645"><ele>0.0</ele><time>2026-04-30T17:51:46.099Z</time></trkpt><trkpt lat="42.4608061" lon="5.3714444"><ele>0.0</ele><time>2026-04-30T17:51:50.098Z</time></trkpt><trkpt lat="42.460858" lon="5.3715909"><ele>0.0</ele><time>2026-04-30T17:51:52.099Z</time></trkpt><trkpt lat="42.4609057" lon="5.3717301"><ele>0.0</ele><time>2026-04-30T17:51:54.098Z</time></trkpt><trkpt lat="42.4609596" lon="5.3718603"><ele>0.0</ele><time>2026-04-30T17:51:56.098Z</time></trkpt><trkpt lat="42.4610196" lon="5.3720041"><ele>0.0</ele><time>2026-04-30T17:51:58.099Z</time></trkpt><trkpt lat="42.4611035" lon="5.3722129"><ele>0.0</ele><time>2026-04-30T17:52:01.099Z</time></trkpt><trkpt lat="42.4611374" lon="5.3722887"><ele>0.0</ele><time>2026-04-30T17:52:02.098Z</time></trkpt><trkpt lat="42.4611838" lon="5.3724278"><ele>0.0</ele><time>2026-04-30T17:52:04.099Z</time></trkpt><trkpt lat="42.4612292" lon="5.372564"><ele>0.0</ele><time>2026-04-30T17:52:06.098Z</time></trkpt><trkpt lat="42.4612773" lon="5.3727025"><ele>0.0</ele><time>2026-04-30T17:52:08.098Z</time></trkpt><trkpt lat="42.4613627" lon="5.3729725"><ele>0.0</ele><time>2026-04-30T17:52:12.099Z</time></trkpt><trkpt lat="42.461395" lon="5.3731142"><ele>0.0</ele><time>2026-04-30T17:52:14.099Z</time></trkpt><trkpt lat="42.46143" lon="5.373248"><ele>0.0</ele><time>2026-04-30T17:52:16.098Z</time></trkpt><trkpt lat="42.4614763" lon="5.373379"><ele>0.0</ele><time>2026-04-30T17:52:18.098Z</time></trkpt><trkpt lat="42.4615249" lon="5.3735098"><ele>0.0</ele><time>2026-04-30T17:52:20.098Z</time></trkpt><trkpt lat="42.4615741" lon="5.3736404"><ele>0.0</ele><time>2026-04-30T17:52:22.098Z</time></trkpt><trkpt lat="42.4616196" lon="5.3737787"><ele>0.0</ele><time>2026-04-30T17:52:24.098Z</time></trkpt><trkpt lat="42.4616609" lon="5.373915"><ele>0.0</ele><time>2026-04-30T17:52:26.099Z</time></trkpt><trkpt lat="42.4617076" lon="5.37405"><ele>0.0</ele><time>2026-04-30T17:52:28.099Z</time></trkpt><trkpt lat="42.461743" lon="5.374194"><ele>0.0</ele><time>2026-04-30T17:52:30.099Z</time></trkpt><trkpt lat="42.4618225" lon="5.3744691"><ele>0.0</ele><time>2026-04-30T17:52:34.098Z</time></trkpt><trkpt lat="42.4618745" lon="5.3745981"><ele>0.0</ele><time>2026-04-30T17:52:36.099Z</time></trkpt><trkpt lat="42.4619306" lon="5.3747338"><ele>0.0</ele><time>2026-04-30T17:52:38.098Z</time></trkpt><trkpt lat="42.4619713" lon="5.3748736"><ele>0.0</ele><time>2026-04-30T17:52:40.098Z</time></trkpt><trkpt lat="42.4620165" lon="5.3750008"><ele>0.0</ele><time>2026-04-30T17:52:42.099Z</time></trkpt><trkpt lat="42.462058" lon="5.375132"><ele>0.0</ele><time>2026-04-30T17:52:44.099Z</time></trkpt><trkpt lat="42.4621078" lon="5.3752589"><ele>0.0</ele><time>2026-04-30T17:52:46.098Z</time></trkpt><trkpt lat="42.4621566" lon="5.3753866"><ele>0.0</ele><time>2026-04-30T17:52:48.099Z</time></trkpt><trkpt lat="42.4622048" lon="5.3755139"><ele>0.0</ele><time>2026-04-30T17:52:50.099Z</time></trkpt><trkpt lat="42.4622493" lon="5.3756453"><ele>0.0</ele><time>2026-04-30T17:52:52.098Z</time></trkpt><trkpt lat="42.4623592" lon="5.3759224"><ele>0.0</ele><time>2026-04-30T17:52:56.098Z</time></trkpt><trkpt lat="42.4624254" lon="5.376047"><ele>0.0</ele><time>2026-04-30T17:52:58.098Z</time></trkpt><trkpt lat="42.4624862" lon="5.3761845"><ele>0.0</ele><time>2026-04-30T17:53:00.098Z</time></trkpt><trkpt lat="42.4625379" lon="5.3763318"><ele>0.0</ele><time>2026-04-30T17:53:02.098Z</time></trkpt><trkpt lat="42.4625791" lon="5.3764717"><ele>0.0</ele><time>2026-04-30T17:53:04.098Z</time></trkpt><trkpt lat="42.4626299" lon="5.3766057"><ele>0.0</ele><time>2026-04-30T17:53:06.098Z</time></trkpt><trkpt lat="42.462676" lon="5.3767378"><ele>0.0</ele><time>2026-04-30T17:53:08.098Z</time></trkpt><trkpt lat="42.4627248" lon="5.3768753"><ele>0.0</ele><time>2026-04-30T17:53:10.098Z</time></trkpt><trkpt lat="42.4627794" lon="5.377006"><ele>0.0</ele><time>2026-04-30T17:53:12.099Z</time></trkpt><trkpt lat="42.4628729" lon="5.3772799"><ele>0.0</ele><time>2026-04-30T17:53:16.098Z</time></trkpt><trkpt lat="42.4629233" lon="5.3774172"><ele>0.0</ele><time>2026-04-30T17:53:18.098Z</time></trkpt><trkpt lat="42.4629827" lon="5.3775492"><ele>0.0</ele><time>2026-04-30T17:53:20.098Z</time></trkpt><trkpt lat="42.463036" lon="5.3776759"><ele>0.0</ele><time>2026-04-30T17:53:22.098Z</time></trkpt><trkpt lat="42.4630802" lon="5.3778175"><ele>0.0</ele><time>2026-04-30T17:53:24.098Z</time></trkpt><trkpt lat="42.4631236" lon="5.3779548"><ele>0.0</ele><time>2026-04-30T17:53:26.098Z</time></trkpt><trkpt lat="42.4631709" lon="5.3780945"><ele>0.0</ele><time>2026-04-30T17:53:28.098Z</time></trkpt><trkpt lat="42.4632173" lon="5.3782281"><ele>0.0</ele><time>2026-04-30T17:53:30.097Z</time></trkpt><trkpt lat="42.4632626" lon="5.3783681"><ele>0.0</ele><time>2026-04-30T17:53:32.097Z</time></trkpt><trkpt lat="42.4633131" lon="5.3785078"><ele>0.0</ele><time>2026-04-30T17:53:34.097Z</time></trkpt><trkpt lat="42.4634101" lon="5.3787729"><ele>0.0</ele><time>2026-04-30T17:53:38.097Z</time></trkpt><trkpt lat="42.4634617" lon="5.3788973"><ele>0.0</ele><time>2026-04-30T17:53:40.097Z</time></trkpt><trkpt lat="42.4635177" lon="5.3790226"><ele>0.0</ele><time>2026-04-30T17:53:42.098Z</time></trkpt><trkpt lat="42.4635672" lon="5.3791381"><ele>0.0</ele><time>2026-04-30T17:53:44.097Z</time></trkpt><trkpt lat="42.463612" lon="5.3792753"><ele>0.0</ele><time>2026-04-30T17:53:46.097Z</time></trkpt><trkpt lat="42.4636522" lon="5.3794117"><ele>0.0</ele><time>2026-04-30T17:53:48.098Z</time></trkpt><trkpt lat="42.463695" lon="5.3795446"><ele>0.0</ele><time>2026-04-30T17:53:50.097Z</time></trkpt><trkpt lat="42.4637466" lon="5.379677"><ele>0.0</ele><time>2026-04-30T17:53:52.097Z</time></trkpt><trkpt lat="42.4638147" lon="5.3798064"><ele>0.0</ele><time>2026-04-30T17:53:54.097Z</time></trkpt><trkpt lat="42.4638787" lon="5.3799356"><ele>0.0</ele><time>2026-04-30T17:53:56.097Z</time></trkpt><trkpt lat="42.4639298" lon="5.3800667"><ele>0.0</ele><time>2026-04-30T17:53:58.098Z</time></trkpt><trkpt lat="42.4640297" lon="5.3803606"><ele>0.0</ele><time>2026-04-30T17:54:02.098Z</time></trkpt><trkpt lat="42.4640791" lon="5.3805109"><ele>0.0</ele><time>2026-04-30T17:54:04.097Z</time></trkpt><trkpt lat="42.4641308" lon="5.3806561"><ele>0.0</ele><time>2026-04-30T17:54:06.097Z</time></trkpt><trkpt lat="42.46418" lon="5.3807949"><ele>0.0</ele><time>2026-04-30T17:54:08.098Z</time></trkpt><trkpt lat="42.4642157" lon="5.3809275"><ele>0.0</ele><time>2026-04-30T17:54:10.097Z</time></trkpt><trkpt lat="42.4642628" lon="5.3810617"><ele>0.0</ele><time>2026-04-30T17:54:12.097Z</time></trkpt><trkpt lat="42.4643345" lon="5.3811839"><ele>0.0</ele><time>2026-04-30T17:54:14.098Z</time></trkpt><trkpt lat="42.4643796" lon="5.3813208"><ele>0.0</ele><time>2026-04-30T17:54:16.097Z</time></trkpt><trkpt lat="42.4644169" lon="5.3814551"><ele>0.0</ele><time>2026-04-30T17:54:18.097Z</time></trkpt><trkpt lat="42.4644526" lon="5.3815927"><ele>0.0</ele><time>2026-04-30T17:54:20.097Z</time></trkpt><trkpt lat="42.464526" lon="5.3818652"><ele>0.0</ele><time>2026-04-30T17:54:24.097Z</time></trkpt><trkpt lat="42.4645543" lon="5.3820122"><ele>0.0</ele><time>2026-04-30T17:54:26.097Z</time></trkpt><trkpt lat="42.4645948" lon="5.3821502"><ele>0.0</ele><time>2026-04-30T17:54:28.097Z</time></trkpt><trkpt lat="42.4646369" lon="5.3822237"><ele>0.0</ele><time>2026-04-30T17:54:29.098Z</time></trkpt><trkpt lat="42.4646995" lon="5.3823583"><ele>0.0</ele><time>2026-04-30T17:54:31.098Z</time></trkpt><trkpt lat="42.4647444" lon="5.3824898"><ele>0.0</ele><time>2026-04-30T17:54:33.098Z</time></trkpt><trkpt lat="42.4647739" lon="5.3826218"><ele>0.0</ele><time>2026-04-30T17:54:35.098Z</time></trkpt><trkpt lat="42.4648093" lon="5.3827492"><ele>0.0</ele><time>2026-04-30T17:54:37.098Z</time></trkpt><trkpt lat="42.4648501" lon="5.382869"><ele>0.0</ele><time>2026-04-30T17:54:39.098Z</time></trkpt><trkpt lat="42.4648804" lon="5.3830099"><ele>0.0</ele><time>2026-04-30T17:54:41.098Z</time></trkpt><trkpt lat="42.4649665" lon="5.3832779"><ele>0.0</ele><time>2026-04-30T17:54:45.098Z</time></trkpt><trkpt lat="42.4650124" lon="5.3834226"><ele>0.0</ele><time>2026-04-30T17:54:47.098Z</time></trkpt><trkpt lat="42.4650513" lon="5.3835656"><ele>0.0</ele><time>2026-04-30T17:54:49.097Z</time></trkpt><trkpt lat="42.4651035" lon="5.383697"><ele>0.0</ele><time>2026-04-30T17:54:51.098Z</time></trkpt><trkpt lat="42.4651642" lon="5.3838223"><ele>0.0</ele><time>2026-04-30T17:54:53.097Z</time></trkpt><trkpt lat="42.4652085" lon="5.3839518"><ele>0.0</ele><time>2026-04-30T17:54:55.097Z</time></trkpt><trkpt lat="42.4652596" lon="5.3840859"><ele>0.0</ele><time>2026-04-30T17:54:57.097Z</time></trkpt><trkpt lat="42.4653089" lon="5.3842198"><ele>0.0</ele><time>2026-04-30T17:54:59.098Z</time></trkpt><trkpt lat="42.465368" lon="5.3843473"><ele>0.0</ele><time>2026-04-30T17:55:01.097Z</time></trkpt><trkpt lat="42.4654162" lon="5.3844778"><ele>0.0</ele><time>2026-04-30T17:55:03.097Z</time></trkpt><trkpt lat="42.465499" lon="5.3846849"><ele>0.0</ele><time>2026-04-30T17:55:06.097Z</time></trkpt><trkpt lat="42.4655372" lon="5.3848284"><ele>0.0</ele><time>2026-04-30T17:55:08.098Z</time></trkpt><trkpt lat="42.4655944" lon="5.3849625"><ele>0.0</ele><time>2026-04-30T17:55:10.097Z</time></trkpt><trkpt lat="42.465657" lon="5.3851555"><ele>0.0</ele><time>2026-04-30T17:55:13.098Z</time></trkpt><trkpt lat="42.4657039" lon="5.385289"><ele>0.0</ele><time>2026-04-30T17:55:15.098Z</time></trkpt><trkpt lat="42.4657468" lon="5.3854214"><ele>0.0</ele><time>2026-04-30T17:55:17.097Z</time></trkpt><trkpt lat="42.4657846" lon="5.3855568"><ele>0.0</ele><time>2026-04-30T17:55:19.097Z</time></trkpt><trkpt lat="42.4658502" lon="5.3856866"><ele>0.0</ele><time>2026-04-30T17:55:21.098Z</time></trkpt><trkpt lat="42.4658948" lon="5.3858236"><ele>0.0</ele><time>2026-04-30T17:55:23.097Z</time></trkpt><trkpt lat="42.4659301" lon="5.3859646"><ele>0.0</ele><time>2026-04-30T17:55:25.098Z</time></trkpt><trkpt lat="42.4660299" lon="5.3862369"><ele>0.0</ele><time>2026-04-30T17:55:29.097Z</time></trkpt><trkpt lat="42.466086" lon="5.3863714"><ele>0.0</ele><time>2026-04-30T17:55:31.098Z</time></trkpt><trkpt lat="42.4661377" lon="5.3865091"><ele>0.0</ele><time>2026-04-30T17:55:33.098Z</time></trkpt><trkpt lat="42.4661829" lon="5.3866439"><ele>0.0</ele><time>2026-04-30T17:55:35.097Z</time></trkpt><trkpt lat="42.4662229" lon="5.3867733"><ele>0.0</ele><time>2026-04-30T17:55:37.098Z</time></trkpt><trkpt lat="42.4662701" lon="5.3869048"><ele>0.0</ele><time>2026-04-30T17:55:39.097Z</time></trkpt><trkpt lat="42.4663109" lon="5.3870371"><ele>0.0</ele><time>2026-04-30T17:55:41.097Z</time></trkpt><trkpt lat="42.4663804" lon="5.3872353"><ele>0.0</ele><time>2026-04-30T17:55:44.098Z</time></trkpt><trkpt lat="42.4664385" lon="5.3873638"><ele>0.0</ele><time>2026-04-30T17:55:46.098Z</time></trkpt><trkpt lat="42.4665195" lon="5.3876305"><ele>0.0</ele><time>2026-04-30T17:55:50.097Z</time></trkpt><trkpt lat="42.4665707" lon="5.3877589"><ele>0.0</ele><time>2026-04-30T17:55:52.098Z</time></trkpt><trkpt lat="42.4666101" lon="5.3878859"><ele>0.0</ele><time>2026-04-30T17:55:54.098Z</time></trkpt><trkpt lat="42.4666607" lon="5.3880128"><ele>0.0</ele><time>2026-04-30T17:55:56.097Z</time></trkpt><trkpt lat="42.4667256" lon="5.3881529"><ele>0.0</ele><time>2026-04-30T17:55:58.097Z</time></trkpt><trkpt lat="42.4667869" lon="5.3882947"><ele>0.0</ele><time>2026-04-30T17:56:00.097Z</time></trkpt><trkpt lat="42.4668367" lon="5.388424"><ele>0.0</ele><time>2026-04-30T17:56:02.098Z</time></trkpt><trkpt lat="42.4668902" lon="5.38856"><ele>0.0</ele><time>2026-04-30T17:56:04.097Z</time></trkpt><trkpt lat="42.4669302" lon="5.3886983"><ele>0.0</ele><time>2026-04-30T17:56:06.097Z</time></trkpt><trkpt lat="42.4669653" lon="5.3888407"><ele>0.0</ele><time>2026-04-30T17:56:08.097Z</time></trkpt><trkpt lat="42.4670434" lon="5.389117"><ele>0.0</ele><time>2026-04-30T17:56:12.098Z</time></trkpt><trkpt lat="42.4670863" lon="5.3892522"><ele>0.0</ele><time>2026-04-30T17:56:14.097Z</time></trkpt><trkpt lat="42.4671568" lon="5.3894504"><ele>0.0</ele><time>2026-04-30T17:56:17.097Z</time></trkpt><trkpt lat="42.4672037" lon="5.3895805"><ele>0.0</ele><time>2026-04-30T17:56:19.097Z</time></trkpt><trkpt lat="42.467243" lon="5.3897147"><ele>0.0</ele><time>2026-04-30T17:56:21.098Z</time></trkpt><trkpt lat="42.4672801" lon="5.3898583"><ele>0.0</ele><time>2026-04-30T17:56:23.098Z</time></trkpt><trkpt lat="42.467315" lon="5.3899996"><ele>0.0</ele><time>2026-04-30T17:56:25.098Z</time></trkpt><trkpt lat="42.4673543" lon="5.3901394"><ele>0.0</ele><time>2026-04-30T17:56:27.098Z</time></trkpt><trkpt lat="42.4674047" lon="5.3902864"><ele>0.0</ele><time>2026-04-30T17:56:29.098Z</time></trkpt><trkpt lat="42.4675238" lon="5.3905488"><ele>0.0</ele><time>2026-04-30T17:56:33.098Z</time></trkpt><trkpt lat="42.4675825" lon="5.390679"><ele>0.0</ele><time>2026-04-30T17:56:35.098Z</time></trkpt><trkpt lat="42.4676336" lon="5.390816"><ele>0.0</ele><time>2026-04-30T17:56:37.098Z</time></trkpt><trkpt lat="42.4676819" lon="5.3909487"><ele>0.0</ele><time>2026-04-30T17:56:39.098Z</time></trkpt><trkpt lat="42.467738" lon="5.3910891"><ele>0.0</ele><time>2026-04-30T17:56:41.097Z</time></trkpt><trkpt lat="42.4677821" lon="5.391237"><ele>0.0</ele><time>2026-04-30T17:56:43.098Z</time></trkpt><trkpt lat="42.4678265" lon="5.3913939"><ele>0.0</ele><time>2026-04-30T17:56:45.098Z</time></trkpt><trkpt lat="42.4678679" lon="5.3915343"><ele>0.0</ele><time>2026-04-30T17:56:47.098Z</time></trkpt><trkpt lat="42.4679185" lon="5.3916682"><ele>0.0</ele><time>2026-04-30T17:56:49.097Z</time></trkpt><trkpt lat="42.4679688" lon="5.3918067"><ele>0.0</ele><time>2026-04-30T17:56:51.097Z</time></trkpt><trkpt lat="42.468063" lon="5.3920696"><ele>0.0</ele><time>2026-04-30T17:56:55.097Z</time></trkpt><trkpt lat="42.4681058" lon="5.3922037"><ele>0.0</ele><time>2026-04-30T17:56:57.097Z</time></trkpt><trkpt lat="42.4681423" lon="5.3923367"><ele>0.0</ele><time>2026-04-30T17:56:59.097Z</time></trkpt><trkpt lat="42.4681906" lon="5.3924618"><ele>0.0</ele><time>2026-04-30T17:57:01.097Z</time></trkpt><trkpt lat="42.4682442" lon="5.3925897"><ele>0.0</ele><time>2026-04-30T17:57:03.097Z</time></trkpt><trkpt lat="42.4682996" lon="5.3927248"><ele>0.0</ele><time>2026-04-30T17:57:05.098Z</time></trkpt><trkpt lat="42.4683525" lon="5.3928583"><ele>0.0</ele><time>2026-04-30T17:57:07.097Z</time></trkpt><trkpt lat="42.4684023" lon="5.3929932"><ele>0.0</ele><time>2026-04-30T17:57:09.097Z</time></trkpt><trkpt lat="42.4684539" lon="5.3931327"><ele>0.0</ele><time>2026-04-30T17:57:11.097Z</time></trkpt><trkpt lat="42.4685024" lon="5.3932696"><ele>0.0</ele><time>2026-04-30T17:57:13.097Z</time></trkpt><trkpt lat="42.4686019" lon="5.3935391"><ele>0.0</ele><time>2026-04-30T17:57:17.098Z</time></trkpt><trkpt lat="42.4686488" lon="5.3936731"><ele>0.0</ele><time>2026-04-30T17:57:19.097Z</time></trkpt><trkpt lat="42.4687084" lon="5.3938037"><ele>0.0</ele><time>2026-04-30T17:57:21.097Z</time></trkpt><trkpt lat="42.4687595" lon="5.3939373"><ele>0.0</ele><time>2026-04-30T17:57:23.098Z</time></trkpt><trkpt lat="42.4688054" lon="5.3940715"><ele>0.0</ele><time>2026-04-30T17:57:25.097Z</time></trkpt><trkpt lat="42.4688568" lon="5.3942033"><ele>0.0</ele><time>2026-04-30T17:57:27.097Z</time></trkpt><trkpt lat="42.4689056" lon="5.3943364"><ele>0.0</ele><time>2026-04-30T17:57:29.098Z</time></trkpt><trkpt lat="42.4689506" lon="5.3944786"><ele>0.0</ele><time>2026-04-30T17:57:31.097Z</time></trkpt><trkpt lat="42.4690025" lon="5.3946217"><ele>0.0</ele><time>2026-04-30T17:57:33.098Z</time></trkpt><trkpt lat="42.4690566" lon="5.3947561"><ele>0.0</ele><time>2026-04-30T17:57:35.097Z</time></trkpt><trkpt lat="42.4691462" lon="5.3950268"><ele>0.0</ele><time>2026-04-30T17:57:39.097Z</time></trkpt><trkpt lat="42.469194" lon="5.395158"><ele>0.0</ele><time>2026-04-30T17:57:41.098Z</time></trkpt><trkpt lat="42.4692465" lon="5.3952905"><ele>0.0</ele><time>2026-04-30T17:57:43.098Z</time></trkpt><trkpt lat="42.4692954" lon="5.39542"><ele>0.0</ele><time>2026-04-30T17:57:45.097Z</time></trkpt><trkpt lat="42.4693444" lon="5.3955512"><ele>0.0</ele><time>2026-04-30T17:57:47.098Z</time></trkpt><trkpt lat="42.4693875" lon="5.3956893"><ele>0.0</ele><time>2026-04-30T17:57:49.098Z</time></trkpt><trkpt lat="42.4694262" lon="5.3958298"><ele>0.0</ele><time>2026-04-30T17:57:51.098Z</time></trkpt><trkpt lat="42.4694706" lon="5.3959664"><ele>0.0</ele><time>2026-04-30T17:57:53.098Z</time></trkpt><trkpt lat="42.4695189" lon="5.3961076"><ele>0.0</ele><time>2026-04-30T17:57:55.097Z</time></trkpt><trkpt lat="42.4695602" lon="5.3962305"><ele>0.0</ele><time>2026-04-30T17:57:57.097Z</time></trkpt><trkpt lat="42.4696475" lon="5.3965068"><ele>0.0</ele><time>2026-04-30T17:58:01.097Z</time></trkpt><trkpt lat="42.4696888" lon="5.3966404"><ele>0.0</ele><time>2026-04-30T17:58:03.098Z</time></trkpt><trkpt lat="42.4697339" lon="5.3967825"><ele>0.0</ele><time>2026-04-30T17:58:05.098Z</time></trkpt><trkpt lat="42.4697899" lon="5.3969162"><ele>0.0</ele><time>2026-04-30T17:58:07.098Z</time></trkpt><trkpt lat="42.4698451" lon="5.3970538"><ele>0.0</ele><time>2026-04-30T17:58:09.098Z</time></trkpt><trkpt lat="42.4698923" lon="5.3971862"><ele>0.0</ele><time>2026-04-30T17:58:11.097Z</time></trkpt><trkpt lat="42.4699385" lon="5.3973211"><ele>0.0</ele><time>2026-04-30T17:58:13.098Z</time></trkpt><trkpt lat="42.4699911" lon="5.3974565"><ele>0.0</ele><time>2026-04-30T17:58:15.097Z</time></trkpt><trkpt lat="42.470042" lon="5.3976024"><ele>0.0</ele><time>2026-04-30T17:58:17.097Z</time></trkpt><trkpt lat="42.4701296" lon="5.3978713"><ele>0.0</ele><time>2026-04-30T17:58:21.097Z</time></trkpt><trkpt lat="42.4701716" lon="5.3980038"><ele>0.0</ele><time>2026-04-30T17:58:23.097Z</time></trkpt><trkpt lat="42.4702171" lon="5.3981379"><ele>0.0</ele><time>2026-04-30T17:58:25.097Z</time></trkpt><trkpt lat="42.4702698" lon="5.3982666"><ele>0.0</ele><time>2026-04-30T17:58:27.097Z</time></trkpt><trkpt lat="42.4703152" lon="5.398408"><ele>0.0</ele><time>2026-04-30T17:58:29.097Z</time></trkpt><trkpt lat="42.4703531" lon="5.3985495"><ele>0.0</ele><time>2026-04-30T17:58:31.097Z</time></trkpt><trkpt lat="42.4703886" lon="5.3986864"><ele>0.0</ele><time>2026-04-30T17:58:33.097Z</time></trkpt><trkpt lat="42.4704349" lon="5.3988261"><ele>0.0</ele><time>2026-04-30T17:58:35.097Z</time></trkpt><trkpt lat="42.470481" lon="5.3989686"><ele>0.0</ele><time>2026-04-30T17:58:37.098Z</time></trkpt><trkpt lat="42.4705342" lon="5.3990966"><ele>0.0</ele><time>2026-04-30T17:58:39.098Z</time></trkpt><trkpt lat="42.4706334" lon="5.3993697"><ele>0.0</ele><time>2026-04-30T17:58:43.098Z</time></trkpt><trkpt lat="42.4706866" lon="5.3995062"><ele>0.0</ele><time>2026-04-30T17:58:45.097Z</time></trkpt><trkpt lat="42.4707336" lon="5.3996422"><ele>0.0</ele><time>2026-04-30T17:58:47.098Z</time></trkpt><trkpt lat="42.4707836" lon="5.3997779"><ele>0.0</ele><time>2026-04-30T17:58:49.097Z</time></trkpt><trkpt lat="42.4708127" lon="5.3998549"><ele>0.0</ele><time>2026-04-30T17:58:50.098Z</time></trkpt><trkpt lat="42.4708604" lon="5.3999944"><ele>0.0</ele><time>2026-04-30T17:58:52.097Z</time></trkpt><trkpt lat="42.4709104" lon="5.4001354"><ele>0.0</ele><time>2026-04-30T17:58:54.097Z</time></trkpt><trkpt lat="42.4709837" lon="5.4003517"><ele>0.0</ele><time>2026-04-30T17:58:57.098Z</time></trkpt><trkpt lat="42.4710299" lon="5.4004866"><ele>0.0</ele><time>2026-04-30T17:58:59.097Z</time></trkpt><trkpt lat="42.471078" lon="5.4006279"><ele>0.0</ele><time>2026-04-30T17:59:01.098Z</time></trkpt><trkpt lat="42.4711685" lon="5.4008983"><ele>0.0</ele><time>2026-04-30T17:59:05.098Z</time></trkpt><trkpt lat="42.4712213" lon="5.4010259"><ele>0.0</ele><time>2026-04-30T17:59:07.097Z</time></trkpt><trkpt lat="42.4712645" lon="5.4011572"><ele>0.0</ele><time>2026-04-30T17:59:09.097Z</time></trkpt><trkpt lat="42.4713041" lon="5.4012919"><ele>0.0</ele><time>2026-04-30T17:59:11.097Z</time></trkpt><trkpt lat="42.4713549" lon="5.4014225"><ele>0.0</ele><time>2026-04-30T17:59:13.097Z</time></trkpt><trkpt lat="42.4714044" lon="5.4015584"><ele>0.0</ele><time>2026-04-30T17:59:15.097Z</time></trkpt><trkpt lat="42.4714516" lon="5.401692"><ele>0.0</ele><time>2026-04-30T17:59:17.098Z</time></trkpt><trkpt lat="42.4714965" lon="5.4018265"><ele>0.0</ele><time>2026-04-30T17:59:19.098Z</time></trkpt><trkpt lat="42.4715372" lon="5.4019623"><ele>0.0</ele><time>2026-04-30T17:59:21.097Z</time></trkpt><trkpt lat="42.4715818" lon="5.4020967"><ele>0.0</ele><time>2026-04-30T17:59:23.098Z</time></trkpt><trkpt lat="42.4716669" lon="5.4023619"><ele>0.0</ele><time>2026-04-30T17:59:27.098Z</time></trkpt><trkpt lat="42.4717061" lon="5.4025021"><ele>0.0</ele><time>2026-04-30T17:59:29.097Z</time></trkpt><trkpt lat="42.4717535" lon="5.4026405"><ele>0.0</ele><time>2026-04-30T17:59:31.097Z</time></trkpt><trkpt lat="42.4718105" lon="5.4027677"><ele>0.0</ele><time>2026-04-30T17:59:33.097Z</time></trkpt><trkpt lat="42.4718722" lon="5.4028837"><ele>0.0</ele><time>2026-04-30T17:59:35.097Z</time></trkpt><trkpt lat="42.4719163" lon="5.4030196"><ele>0.0</ele><time>2026-04-30T17:59:37.098Z</time></trkpt><trkpt lat="42.4719645" lon="5.4031554"><ele>0.0</ele><time>2026-04-30T17:59:39.097Z</time></trkpt><trkpt lat="42.4720106" lon="5.4032859"><ele>0.0</ele><time>2026-04-30T17:59:41.097Z</time></trkpt><trkpt lat="42.472065" lon="5.4034206"><ele>0.0</ele><time>2026-04-30T17:59:43.098Z</time></trkpt><trkpt lat="42.4721202" lon="5.4035478"><ele>0.0</ele><time>2026-04-30T17:59:45.098Z</time></trkpt><trkpt lat="42.4722253" lon="5.4038235"><ele>0.0</ele><time>2026-04-30T17:59:49.098Z</time></trkpt><trkpt lat="42.4722766" lon="5.4039632"><ele>0.0</ele><time>2026-04-30T17:59:51.098Z</time></trkpt><trkpt lat="42.4723249" lon="5.4040937"><ele>0.0</ele><time>2026-04-30T17:59:53.097Z</time></trkpt><trkpt lat="42.472387" lon="5.4042249"><ele>0.0</ele><time>2026-04-30T17:59:55.097Z</time></trkpt><trkpt lat="42.4724481" lon="5.40436"><ele>0.0</ele><time>2026-04-30T17:59:57.097Z</time></trkpt><trkpt lat="42.4725054" lon="5.4044972"><ele>0.0</ele><time>2026-04-30T17:59:59.097Z</time></trkpt><trkpt lat="42.472555" lon="5.4046275"><ele>0.0</ele><time>2026-04-30T18:00:01.098Z</time></trkpt><trkpt lat="42.4726068" lon="5.4047584"><ele>0.0</ele><time>2026-04-30T18:00:03.098Z</time></trkpt><trkpt lat="42.472703" lon="5.4048829"><ele>0.0</ele><time>2026-04-30T18:00:05.097Z</time></trkpt><trkpt lat="42.4727654" lon="5.4050152"><ele>0.0</ele><time>2026-04-30T18:00:07.096Z</time></trkpt><trkpt lat="42.4728658" lon="5.4052848"><ele>0.0</ele><time>2026-04-30T18:00:11.096Z</time></trkpt><trkpt lat="42.4729138" lon="5.4054244"><ele>0.0</ele><time>2026-04-30T18:00:13.097Z</time></trkpt><trkpt lat="42.4729655" lon="5.4055645"><ele>0.0</ele><time>2026-04-30T18:00:15.096Z</time></trkpt><trkpt lat="42.4729984" lon="5.4057031"><ele>0.0</ele><time>2026-04-30T18:00:17.097Z</time></trkpt><trkpt lat="42.4730456" lon="5.4058465"><ele>0.0</ele><time>2026-04-30T18:00:19.097Z</time></trkpt><trkpt lat="42.4731071" lon="5.4059811"><ele>0.0</ele><time>2026-04-30T18:00:21.096Z</time></trkpt><trkpt lat="42.4731609" lon="5.4061185"><ele>0.0</ele><time>2026-04-30T18:00:23.097Z</time></trkpt><trkpt lat="42.4732072" lon="5.4062468"><ele>0.0</ele><time>2026-04-30T18:00:25.097Z</time></trkpt><trkpt lat="42.4732607" lon="5.4063808"><ele>0.0</ele><time>2026-04-30T18:00:27.097Z</time></trkpt><trkpt lat="42.4733074" lon="5.4065283"><ele>0.0</ele><time>2026-04-30T18:00:29.096Z</time></trkpt><trkpt lat="42.4734032" lon="5.4068023"><ele>0.0</ele><time>2026-04-30T18:00:33.097Z</time></trkpt><trkpt lat="42.4734615" lon="5.4069317"><ele>0.0</ele><time>2026-04-30T18:00:35.097Z</time></trkpt><trkpt lat="42.4735193" lon="5.4070564"><ele>0.0</ele><time>2026-04-30T18:00:37.097Z</time></trkpt><trkpt lat="42.4735696" lon="5.4071719"><ele>0.0</ele><time>2026-04-30T18:00:39.096Z</time></trkpt><trkpt lat="42.4736169" lon="5.4073031"><ele>0.0</ele><time>2026-04-30T18:00:41.097Z</time></trkpt><trkpt lat="42.4736744" lon="5.4074387"><ele>0.0</ele><time>2026-04-30T18:00:43.096Z</time></trkpt><trkpt lat="42.4737252" lon="5.4075777"><ele>0.0</ele><time>2026-04-30T18:00:45.097Z</time></trkpt><trkpt lat="42.4737817" lon="5.4077151"><ele>0.0</ele><time>2026-04-30T18:00:47.096Z</time></trkpt><trkpt lat="42.4738386" lon="5.4078496"><ele>0.0</ele><time>2026-04-30T18:00:49.096Z</time></trkpt><trkpt lat="42.4738822" lon="5.4079895"><ele>0.0</ele><time>2026-04-30T18:00:51.097Z</time></trkpt><trkpt lat="42.4739758" lon="5.4082529"><ele>0.0</ele><time>2026-04-30T18:00:55.097Z</time></trkpt><trkpt lat="42.4740185" lon="5.4083861"><ele>0.0</ele><time>2026-04-30T18:00:57.096Z</time></trkpt><trkpt lat="42.4740714" lon="5.4085314"><ele>0.0</ele><time>2026-04-30T18:00:59.097Z</time></trkpt><trkpt lat="42.4741225" lon="5.4086704"><ele>0.0</ele><time>2026-04-30T18:01:01.096Z</time></trkpt><trkpt lat="42.4741713" lon="5.4088035"><ele>0.0</ele><time>2026-04-30T18:01:03.096Z</time></trkpt><trkpt lat="42.4742249" lon="5.4089392"><ele>0.0</ele><time>2026-04-30T18:01:05.096Z</time></trkpt><trkpt lat="42.4742756" lon="5.4090713"><ele>0.0</ele><time>2026-04-30T18:01:07.097Z</time></trkpt><trkpt lat="42.4743228" lon="5.4092084"><ele>0.0</ele><time>2026-04-30T18:01:09.096Z</time></trkpt><trkpt lat="42.4743789" lon="5.4093443"><ele>0.0</ele><time>2026-04-30T18:01:11.097Z</time></trkpt><trkpt lat="42.4744401" lon="5.4094738"><ele>0.0</ele><time>2026-04-30T18:01:13.097Z</time></trkpt><trkpt lat="42.4745304" lon="5.4097399"><ele>0.0</ele><time>2026-04-30T18:01:17.096Z</time></trkpt><trkpt lat="42.4745907" lon="5.4098652"><ele>0.0</ele><time>2026-04-30T18:01:19.096Z</time></trkpt><trkpt lat="42.4746385" lon="5.4099983"><ele>0.0</ele><time>2026-04-30T18:01:21.097Z</time></trkpt><trkpt lat="42.4746798" lon="5.4101286"><ele>0.0</ele><time>2026-04-30T18:01:23.097Z</time></trkpt><trkpt lat="42.4747231" lon="5.4102567"><ele>0.0</ele><time>2026-04-30T18:01:25.097Z</time></trkpt><trkpt lat="42.4747651" lon="5.4104008"><ele>0.0</ele><time>2026-04-30T18:01:27.097Z</time></trkpt><trkpt lat="42.4748023" lon="5.4105349"><ele>0.0</ele><time>2026-04-30T18:01:29.097Z</time></trkpt><trkpt lat="42.4748457" lon="5.4106718"><ele>0.0</ele><time>2026-04-30T18:01:31.096Z</time></trkpt><trkpt lat="42.4748865" lon="5.4108088"><ele>0.0</ele><time>2026-04-30T18:01:33.097Z</time></trkpt><trkpt lat="42.4749244" lon="5.4109336"><ele>0.0</ele><time>2026-04-30T18:01:35.097Z</time></trkpt><trkpt lat="42.4750188" lon="5.4111989"><ele>0.0</ele><time>2026-04-30T18:01:39.096Z</time></trkpt><trkpt lat="42.4750564" lon="5.4113264"><ele>0.0</ele><time>2026-04-30T18:01:41.096Z</time></trkpt><trkpt lat="42.4751015" lon="5.4114643"><ele>0.0</ele><time>2026-04-30T18:01:43.097Z</time></trkpt><trkpt lat="42.4751514" lon="5.4115996"><ele>0.0</ele><time>2026-04-30T18:01:45.096Z</time></trkpt><trkpt lat="42.4752092" lon="5.4117522"><ele>0.0</ele><time>2026-04-30T18:01:47.096Z</time></trkpt><trkpt lat="42.4752585" lon="5.411898"><ele>0.0</ele><time>2026-04-30T18:01:49.096Z</time></trkpt><trkpt lat="42.4753106" lon="5.4120349"><ele>0.0</ele><time>2026-04-30T18:01:51.097Z</time></trkpt><trkpt lat="42.4753556" lon="5.4121646"><ele>0.0</ele><time>2026-04-30T18:01:53.097Z</time></trkpt><trkpt lat="42.475401" lon="5.412304"><ele>0.0</ele><time>2026-04-30T18:01:55.096Z</time></trkpt><trkpt lat="42.4754455" lon="5.4124436"><ele>0.0</ele><time>2026-04-30T18:01:57.096Z</time></trkpt><trkpt lat="42.4755324" lon="5.4127192"><ele>0.0</ele><time>2026-04-30T18:02:01.096Z</time></trkpt><trkpt lat="42.475564" lon="5.4128568"><ele>0.0</ele><time>2026-04-30T18:02:03.096Z</time></trkpt><trkpt lat="42.4756037" lon="5.4129872"><ele>0.0</ele><time>2026-04-30T18:02:05.096Z</time></trkpt><trkpt lat="42.4756421" lon="5.4131179"><ele>0.0</ele><time>2026-04-30T18:02:07.096Z</time></trkpt><trkpt lat="42.4756863" lon="5.4132442"><ele>0.0</ele><time>2026-04-30T18:02:09.096Z</time></trkpt><trkpt lat="42.475736" lon="5.4133722"><ele>0.0</ele><time>2026-04-30T18:02:11.097Z</time></trkpt><trkpt lat="42.4757906" lon="5.4135082"><ele>0.0</ele><time>2026-04-30T18:02:13.096Z</time></trkpt><trkpt lat="42.475839" lon="5.4136431"><ele>0.0</ele><time>2026-04-30T18:02:15.096Z</time></trkpt><trkpt lat="42.4758876" lon="5.4137802"><ele>0.0</ele><time>2026-04-30T18:02:17.096Z</time></trkpt><trkpt lat="42.4759409" lon="5.4139133"><ele>0.0</ele><time>2026-04-30T18:02:19.096Z</time></trkpt><trkpt lat="42.4760517" lon="5.414202"><ele>0.0</ele><time>2026-04-30T18:02:23.096Z</time></trkpt><trkpt lat="42.4761069" lon="5.4143341"><ele>0.0</ele><time>2026-04-30T18:02:25.097Z</time></trkpt><trkpt lat="42.4761579" lon="5.4144652"><ele>0.0</ele><time>2026-04-30T18:02:27.097Z</time></trkpt><trkpt lat="42.4762104" lon="5.4145983"><ele>0.0</ele><time>2026-04-30T18:02:29.096Z</time></trkpt><trkpt lat="42.4762577" lon="5.414735"><ele>0.0</ele><time>2026-04-30T18:02:31.096Z</time></trkpt><trkpt lat="42.4763119" lon="5.4148685"><ele>0.0</ele><time>2026-04-30T18:02:33.096Z</time></trkpt><trkpt lat="42.4763534" lon="5.4150065"><ele>0.0</ele><time>2026-04-30T18:02:35.096Z</time></trkpt><trkpt lat="42.4763931" lon="5.4151439"><ele>0.0</ele><time>2026-04-30T18:02:37.097Z</time></trkpt><trkpt lat="42.4764344" lon="5.4152812"><ele>0.0</ele><time>2026-04-30T18:02:39.097Z</time></trkpt><trkpt lat="42.4765443" lon="5.4155609"><ele>0.0</ele><time>2026-04-30T18:02:43.096Z</time></trkpt><trkpt lat="42.4765903" lon="5.4156988"><ele>0.0</ele><time>2026-04-30T18:02:45.096Z</time></trkpt><trkpt lat="42.4766378" lon="5.4158317"><ele>0.0</ele><time>2026-04-30T18:02:47.097Z</time></trkpt><trkpt lat="42.476685" lon="5.4159624"><ele>0.0</ele><time>2026-04-30T18:02:49.096Z</time></trkpt><trkpt lat="42.4767271" lon="5.4160908"><ele>0.0</ele><time>2026-04-30T18:02:51.096Z</time></trkpt><trkpt lat="42.4767745" lon="5.4162166"><ele>0.0</ele><time>2026-04-30T18:02:53.096Z</time></trkpt><trkpt lat="42.4768256" lon="5.416356"><ele>0.0</ele><time>2026-04-30T18:02:55.096Z</time></trkpt><trkpt lat="42.4768811" lon="5.416488"><ele>0.0</ele><time>2026-04-30T18:02:57.097Z</time></trkpt><trkpt lat="42.476943" lon="5.4166295"><ele>0.0</ele><time>2026-04-30T18:02:59.097Z</time></trkpt><trkpt lat="42.4770001" lon="5.4167668"><ele>0.0</ele><time>2026-04-30T18:03:01.097Z</time></trkpt><trkpt lat="42.477103" lon="5.4170437"><ele>0.0</ele><time>2026-04-30T18:03:05.096Z</time></trkpt><trkpt lat="42.4771607" lon="5.4171749"><ele>0.0</ele><time>2026-04-30T18:03:07.096Z</time></trkpt><trkpt lat="42.4772113" lon="5.4173071"><ele>0.0</ele><time>2026-04-30T18:03:09.097Z</time></trkpt><trkpt lat="42.4772548" lon="5.4174382"><ele>0.0</ele><time>2026-04-30T18:03:11.097Z</time></trkpt><trkpt lat="42.477295" lon="5.4175757"><ele>0.0</ele><time>2026-04-30T18:03:13.096Z</time></trkpt><trkpt lat="42.4773445" lon="5.4177112"><ele>0.0</ele><time>2026-04-30T18:03:15.097Z</time></trkpt><trkpt lat="42.4773914" lon="5.4178539"><ele>0.0</ele><time>2026-04-30T18:03:17.096Z</time></trkpt><trkpt lat="42.4774338" lon="5.4179902"><ele>0.0</ele><time>2026-04-30T18:03:19.097Z</time></trkpt><trkpt lat="42.4774847" lon="5.4181111"><ele>0.0</ele><time>2026-04-30T18:03:21.096Z</time></trkpt><trkpt lat="42.4775357" lon="5.4182443"><ele>0.0</ele><time>2026-04-30T18:03:23.096Z</time></trkpt><trkpt lat="42.4776497" lon="5.418512"><ele>0.0</ele><time>2026-04-30T18:03:27.096Z</time></trkpt><trkpt lat="42.4777046" lon="5.4186449"><ele>0.0</ele><time>2026-04-30T18:03:29.096Z</time></trkpt><trkpt lat="42.4777481" lon="5.4187829"><ele>0.0</ele><time>2026-04-30T18:03:31.096Z</time></trkpt><trkpt lat="42.4778043" lon="5.4189132"><ele>0.0</ele><time>2026-04-30T18:03:33.096Z</time></trkpt><trkpt lat="42.4778604" lon="5.4190421"><ele>0.0</ele><time>2026-04-30T18:03:35.097Z</time></trkpt><trkpt lat="42.4779165" lon="5.4191795"><ele>0.0</ele><time>2026-04-30T18:03:37.097Z</time></trkpt><trkpt lat="42.4779614" lon="5.4193078"><ele>0.0</ele><time>2026-04-30T18:03:39.096Z</time></trkpt><trkpt lat="42.4780099" lon="5.4194362"><ele>0.0</ele><time>2026-04-30T18:03:41.096Z</time></trkpt><trkpt lat="42.4780958" lon="5.4196434"><ele>0.0</ele><time>2026-04-30T18:03:44.096Z</time></trkpt><trkpt lat="42.4782189" lon="5.4199137"><ele>0.0</ele><time>2026-04-30T18:03:48.097Z</time></trkpt><trkpt lat="42.4782774" lon="5.4200466"><ele>0.0</ele><time>2026-04-30T18:03:50.096Z</time></trkpt><trkpt lat="42.4783256" lon="5.4201785"><ele>0.0</ele><time>2026-04-30T18:03:52.097Z</time></trkpt><trkpt lat="42.4783761" lon="5.4203148"><ele>0.0</ele><time>2026-04-30T18:03:54.096Z</time></trkpt><trkpt lat="42.4784236" lon="5.4204503"><ele>0.0</ele><time>2026-04-30T18:03:56.096Z</time></trkpt><trkpt lat="42.4784729" lon="5.4205828"><ele>0.0</ele><time>2026-04-30T18:03:58.096Z</time></trkpt><trkpt lat="42.4785212" lon="5.4207189"><ele>0.0</ele><time>2026-04-30T18:04:00.096Z</time></trkpt><trkpt lat="42.478572" lon="5.4208469"><ele>0.0</ele><time>2026-04-30T18:04:02.097Z</time></trkpt><trkpt lat="42.4786231" lon="5.4209755"><ele>0.0</ele><time>2026-04-30T18:04:04.096Z</time></trkpt><trkpt lat="42.4786764" lon="5.4211101"><ele>0.0</ele><time>2026-04-30T18:04:06.096Z</time></trkpt><trkpt lat="42.4787715" lon="5.4213707"><ele>0.0</ele><time>2026-04-30T18:04:10.097Z</time></trkpt><trkpt lat="42.4788195" lon="5.4215005"><ele>0.0</ele><time>2026-04-30T18:04:12.097Z</time></trkpt><trkpt lat="42.478873" lon="5.421628"><ele>0.0</ele><time>2026-04-30T18:04:14.096Z</time></trkpt><trkpt lat="42.478956" lon="5.4218325"><ele>0.0</ele><time>2026-04-30T18:04:17.097Z</time></trkpt><trkpt lat="42.4790165" lon="5.4219633"><ele>0.0</ele><time>2026-04-30T18:04:19.097Z</time></trkpt><trkpt lat="42.4790734" lon="5.4220983"><ele>0.0</ele><time>2026-04-30T18:04:21.096Z</time></trkpt><trkpt lat="42.4791253" lon="5.4222365"><ele>0.0</ele><time>2026-04-30T18:04:23.096Z</time></trkpt><trkpt lat="42.4791705" lon="5.4223718"><ele>0.0</ele><time>2026-04-30T18:04:25.096Z</time></trkpt><trkpt lat="42.4792145" lon="5.4225123"><ele>0.0</ele><time>2026-04-30T18:04:27.097Z</time></trkpt><trkpt lat="42.4793199" lon="5.4227897"><ele>0.0</ele><time>2026-04-30T18:04:31.097Z</time></trkpt><trkpt lat="42.4793733" lon="5.422923"><ele>0.0</ele><time>2026-04-30T18:04:33.096Z</time></trkpt><trkpt lat="42.4794267" lon="5.4230655"><ele>0.0</ele><time>2026-04-30T18:04:35.097Z</time></trkpt><trkpt lat="42.4794752" lon="5.4232083"><ele>0.0</ele><time>2026-04-30T18:04:37.096Z</time></trkpt><trkpt lat="42.4795214" lon="5.4233555"><ele>0.0</ele><time>2026-04-30T18:04:39.096Z</time></trkpt><trkpt lat="42.4795697" lon="5.4234966"><ele>0.0</ele><time>2026-04-30T18:04:41.096Z</time></trkpt><trkpt lat="42.479619" lon="5.423633"><ele>0.0</ele><time>2026-04-30T18:04:43.097Z</time></trkpt><trkpt lat="42.4796614" lon="5.4237684"><ele>0.0</ele><time>2026-04-30T18:04:45.096Z</time></trkpt><trkpt lat="42.4796964" lon="5.4239049"><ele>0.0</ele><time>2026-04-30T18:04:47.096Z</time></trkpt><trkpt lat="42.4797419" lon="5.4240358"><ele>0.0</ele><time>2026-04-30T18:04:49.096Z</time></trkpt><trkpt lat="42.4798337" lon="5.4243071"><ele>0.0</ele><time>2026-04-30T18:04:53.096Z</time></trkpt><trkpt lat="42.479885" lon="5.4244449"><ele>0.0</ele><time>2026-04-30T18:04:55.097Z</time></trkpt><trkpt lat="42.4799349" lon="5.424582"><ele>0.0</ele><time>2026-04-30T18:04:57.097Z</time></trkpt><trkpt lat="42.4799879" lon="5.4247098"><ele>0.0</ele><time>2026-04-30T18:04:59.097Z</time></trkpt><trkpt lat="42.4800326" lon="5.4248447"><ele>0.0</ele><time>2026-04-30T18:05:01.097Z</time></trkpt><trkpt lat="42.480063" lon="5.4249875"><ele>0.0</ele><time>2026-04-30T18:05:03.096Z</time></trkpt><trkpt lat="42.4801081" lon="5.4251294"><ele>0.0</ele><time>2026-04-30T18:05:05.097Z</time></trkpt><trkpt lat="42.4801569" lon="5.4252663"><ele>0.0</ele><time>2026-04-30T18:05:07.096Z</time></trkpt><trkpt lat="42.4802191" lon="5.4254076"><ele>0.0</ele><time>2026-04-30T18:05:09.097Z</time></trkpt><trkpt lat="42.4802706" lon="5.425547"><ele>0.0</ele><time>2026-04-30T18:05:11.096Z</time></trkpt><trkpt lat="42.4803598" lon="5.4258199"><ele>0.0</ele><time>2026-04-30T18:05:15.097Z</time></trkpt><trkpt lat="42.4804159" lon="5.425954"><ele>0.0</ele><time>2026-04-30T18:05:17.097Z</time></trkpt><trkpt lat="42.480465" lon="5.4260934"><ele>0.0</ele><time>2026-04-30T18:05:19.097Z</time></trkpt><trkpt lat="42.4805169" lon="5.426226"><ele>0.0</ele><time>2026-04-30T18:05:21.097Z</time></trkpt><trkpt lat="42.4805684" lon="5.426357"><ele>0.0</ele><time>2026-04-30T18:05:23.097Z</time></trkpt><trkpt lat="42.4806131" lon="5.4264903"><ele>0.0</ele><time>2026-04-30T18:05:25.097Z</time></trkpt><trkpt lat="42.4806693" lon="5.4266243"><ele>0.0</ele><time>2026-04-30T18:05:27.096Z</time></trkpt><trkpt lat="42.4807277" lon="5.4267537"><ele>0.0</ele><time>2026-04-30T18:05:29.096Z</time></trkpt><trkpt lat="42.480785" lon="5.4268814"><ele>0.0</ele><time>2026-04-30T18:05:31.097Z</time></trkpt><trkpt lat="42.4808354" lon="5.4270245"><ele>0.0</ele><time>2026-04-30T18:05:33.097Z</time></trkpt><trkpt lat="42.4809413" lon="5.4272915"><ele>0.0</ele><time>2026-04-30T18:05:37.096Z</time></trkpt><trkpt lat="42.4809953" lon="5.4274285"><ele>0.0</ele><time>2026-04-30T18:05:39.096Z</time></trkpt><trkpt lat="42.4810528" lon="5.4275636"><ele>0.0</ele><time>2026-04-30T18:05:41.096Z</time></trkpt><trkpt lat="42.4811133" lon="5.4276948"><ele>0.0</ele><time>2026-04-30T18:05:43.096Z</time></trkpt><trkpt lat="42.4811784" lon="5.427827"><ele>0.0</ele><time>2026-04-30T18:05:45.096Z</time></trkpt><trkpt lat="42.4812336" lon="5.4279568"><ele>0.0</ele><time>2026-04-30T18:05:47.097Z</time></trkpt><trkpt lat="42.4812902" lon="5.428088"><ele>0.0</ele><time>2026-04-30T18:05:49.097Z</time></trkpt><trkpt lat="42.4813433" lon="5.4282167"><ele>0.0</ele><time>2026-04-30T18:05:51.096Z</time></trkpt><trkpt lat="42.4813935" lon="5.4283432"><ele>0.0</ele><time>2026-04-30T18:05:53.097Z</time></trkpt><trkpt lat="42.4814378" lon="5.4284842"><ele>0.0</ele><time>2026-04-30T18:05:55.096Z</time></trkpt><trkpt lat="42.4815232" lon="5.4287619"><ele>0.0</ele><time>2026-04-30T18:05:59.096Z</time></trkpt><trkpt lat="42.4815671" lon="5.4288921"><ele>0.0</ele><time>2026-04-30T18:06:01.097Z</time></trkpt><trkpt lat="42.4816154" lon="5.4290282"><ele>0.0</ele><time>2026-04-30T18:06:03.097Z</time></trkpt><trkpt lat="42.4816607" lon="5.4291642"><ele>0.0</ele><time>2026-04-30T18:06:05.097Z</time></trkpt><trkpt lat="42.4817002" lon="5.4292981"><ele>0.0</ele><time>2026-04-30T18:06:07.096Z</time></trkpt><trkpt lat="42.4817483" lon="5.4294335"><ele>0.0</ele><time>2026-04-30T18:06:09.096Z</time></trkpt><trkpt lat="42.4817918" lon="5.4295668"><ele>0.0</ele><time>2026-04-30T18:06:11.097Z</time></trkpt><trkpt lat="42.4818404" lon="5.4297038"><ele>0.0</ele><time>2026-04-30T18:06:13.096Z</time></trkpt><trkpt lat="42.481884" lon="5.4298431"><ele>0.0</ele><time>2026-04-30T18:06:15.096Z</time></trkpt><trkpt lat="42.4819387" lon="5.4299805"><ele>0.0</ele><time>2026-04-30T18:06:17.097Z</time></trkpt><trkpt lat="42.48205" lon="5.4302497"><ele>0.0</ele><time>2026-04-30T18:06:21.097Z</time></trkpt><trkpt lat="42.4820969" lon="5.4303881"><ele>0.0</ele><time>2026-04-30T18:06:23.096Z</time></trkpt><trkpt lat="42.4821405" lon="5.4305237"><ele>0.0</ele><time>2026-04-30T18:06:25.097Z</time></trkpt><trkpt lat="42.4821818" lon="5.4306592"><ele>0.0</ele><time>2026-04-30T18:06:27.096Z</time></trkpt><trkpt lat="42.4822317" lon="5.4307983"><ele>0.0</ele><time>2026-04-30T18:06:29.096Z</time></trkpt><trkpt lat="42.4822752" lon="5.4309319"><ele>0.0</ele><time>2026-04-30T18:06:31.096Z</time></trkpt><trkpt lat="42.4823149" lon="5.4310681"><ele>0.0</ele><time>2026-04-30T18:06:33.096Z</time></trkpt><trkpt lat="42.4823597" lon="5.4312047"><ele>0.0</ele><time>2026-04-30T18:06:35.095Z</time></trkpt><trkpt lat="42.4824117" lon="5.4313399"><ele>0.0</ele><time>2026-04-30T18:06:37.095Z</time></trkpt><trkpt lat="42.4824581" lon="5.4314795"><ele>0.0</ele><time>2026-04-30T18:06:39.095Z</time></trkpt><trkpt lat="42.482569" lon="5.4317535"><ele>0.0</ele><time>2026-04-30T18:06:43.095Z</time></trkpt><trkpt lat="42.4826446" lon="5.4318811"><ele>0.0</ele><time>2026-04-30T18:06:45.095Z</time></trkpt><trkpt lat="42.4827063" lon="5.4320238"><ele>0.0</ele><time>2026-04-30T18:06:47.096Z</time></trkpt><trkpt lat="42.4827613" lon="5.4321623"><ele>0.0</ele><time>2026-04-30T18:06:49.095Z</time></trkpt><trkpt lat="42.4828233" lon="5.4322941"><ele>0.0</ele><time>2026-04-30T18:06:51.096Z</time></trkpt><trkpt lat="42.4828813" lon="5.4324165"><ele>0.0</ele><time>2026-04-30T18:06:53.095Z</time></trkpt><trkpt lat="42.4829387" lon="5.4325406"><ele>0.0</ele><time>2026-04-30T18:06:55.095Z</time></trkpt><trkpt lat="42.4829965" lon="5.4326727"><ele>0.0</ele><time>2026-04-30T18:06:57.095Z</time></trkpt><trkpt lat="42.4830534" lon="5.4328035"><ele>0.0</ele><time>2026-04-30T18:06:59.095Z</time></trkpt><trkpt lat="42.4830983" lon="5.4329413"><ele>0.0</ele><time>2026-04-30T18:07:01.096Z</time></trkpt><trkpt lat="42.4832045" lon="5.4332171"><ele>0.0</ele><time>2026-04-30T18:07:05.096Z</time></trkpt><trkpt lat="42.4832603" lon="5.4333481"><ele>0.0</ele><time>2026-04-30T18:07:07.095Z</time></trkpt><trkpt lat="42.4833137" lon="5.4334845"><ele>0.0</ele><time>2026-04-30T18:07:09.095Z</time></trkpt><trkpt lat="42.4833651" lon="5.4336249"><ele>0.0</ele><time>2026-04-30T18:07:11.096Z</time></trkpt><trkpt lat="42.4834207" lon="5.4337642"><ele>0.0</ele><time>2026-04-30T18:07:13.095Z</time></trkpt><trkpt lat="42.483472" lon="5.4339017"><ele>0.0</ele><time>2026-04-30T18:07:15.096Z</time></trkpt><trkpt lat="42.4835175" lon="5.4340397"><ele>0.0</ele><time>2026-04-30T18:07:17.096Z</time></trkpt><trkpt lat="42.4835613" lon="5.4341689"><ele>0.0</ele><time>2026-04-30T18:07:19.095Z</time></trkpt><trkpt lat="42.4836136" lon="5.4343027"><ele>0.0</ele><time>2026-04-30T18:07:21.095Z</time></trkpt><trkpt lat="42.4836668" lon="5.4344415"><ele>0.0</ele><time>2026-04-30T18:07:23.095Z</time></trkpt><trkpt lat="42.4837818" lon="5.4347098"><ele>0.0</ele><time>2026-04-30T18:07:27.095Z</time></trkpt><trkpt lat="42.4838354" lon="5.4348462"><ele>0.0</ele><time>2026-04-30T18:07:29.095Z</time></trkpt><trkpt lat="42.4838873" lon="5.4349869"><ele>0.0</ele><time>2026-04-30T18:07:31.095Z</time></trkpt><trkpt lat="42.4839352" lon="5.4351355"><ele>0.0</ele><time>2026-04-30T18:07:33.096Z</time></trkpt><trkpt lat="42.4839777" lon="5.4352731"><ele>0.0</ele><time>2026-04-30T18:07:35.096Z</time></trkpt><trkpt lat="42.4840174" lon="5.4354117"><ele>0.0</ele><time>2026-04-30T18:07:37.096Z</time></trkpt><trkpt lat="42.4840625" lon="5.435547"><ele>0.0</ele><time>2026-04-30T18:07:39.096Z</time></trkpt><trkpt lat="42.4841143" lon="5.435668"><ele>0.0</ele><time>2026-04-30T18:07:41.095Z</time></trkpt><trkpt lat="42.4841431" lon="5.435746"><ele>0.0</ele><time>2026-04-30T18:07:42.096Z</time></trkpt><trkpt lat="42.484206" lon="5.4358757"><ele>0.0</ele><time>2026-04-30T18:07:44.095Z</time></trkpt><trkpt lat="42.4843059" lon="5.4361331"><ele>0.0</ele><time>2026-04-30T18:07:48.096Z</time></trkpt><trkpt lat="42.4843489" lon="5.4362708"><ele>0.0</ele><time>2026-04-30T18:07:50.096Z</time></trkpt><trkpt lat="42.4844007" lon="5.4364021"><ele>0.0</ele><time>2026-04-30T18:07:52.096Z</time></trkpt><trkpt lat="42.4844556" lon="5.4365362"><ele>0.0</ele><time>2026-04-30T18:07:54.095Z</time></trkpt><trkpt lat="42.4845053" lon="5.4366684"><ele>0.0</ele><time>2026-04-30T18:07:56.095Z</time></trkpt><trkpt lat="42.4845504" lon="5.4368042"><ele>0.0</ele><time>2026-04-30T18:07:58.095Z</time></trkpt><trkpt lat="42.4846027" lon="5.4369504"><ele>0.0</ele><time>2026-04-30T18:08:00.095Z</time></trkpt><trkpt lat="42.4846606" lon="5.4370924"><ele>0.0</ele><time>2026-04-30T18:08:02.096Z</time></trkpt><trkpt lat="42.4847187" lon="5.4372284"><ele>0.0</ele><time>2026-04-30T18:08:04.095Z</time></trkpt><trkpt lat="42.4847681" lon="5.437367"><ele>0.0</ele><time>2026-04-30T18:08:06.096Z</time></trkpt><trkpt lat="42.4848472" lon="5.4376434"><ele>0.0</ele><time>2026-04-30T18:08:10.096Z</time></trkpt><trkpt lat="42.4848968" lon="5.4377827"><ele>0.0</ele><time>2026-04-30T18:08:12.096Z</time></trkpt><trkpt lat="42.4849522" lon="5.4379296"><ele>0.0</ele><time>2026-04-30T18:08:14.095Z</time></trkpt><trkpt lat="42.4850082" lon="5.4380573"><ele>0.0</ele><time>2026-04-30T18:08:16.095Z</time></trkpt><trkpt lat="42.4850575" lon="5.4381903"><ele>0.0</ele><time>2026-04-30T18:08:18.096Z</time></trkpt><trkpt lat="42.4851087" lon="5.4383207"><ele>0.0</ele><time>2026-04-30T18:08:20.096Z</time></trkpt><trkpt lat="42.4851611" lon="5.4384513"><ele>0.0</ele><time>2026-04-30T18:08:22.096Z</time></trkpt><trkpt lat="42.4852127" lon="5.4385903"><ele>0.0</ele><time>2026-04-30T18:08:24.096Z</time></trkpt><trkpt lat="42.4852675" lon="5.4387231"><ele>0.0</ele><time>2026-04-30T18:08:26.096Z</time></trkpt><trkpt lat="42.4853111" lon="5.4388647"><ele>0.0</ele><time>2026-04-30T18:08:28.096Z</time></trkpt><trkpt lat="42.4853998" lon="5.4391445"><ele>0.0</ele><time>2026-04-30T18:08:32.095Z</time></trkpt><trkpt lat="42.4854521" lon="5.4392829"><ele>0.0</ele><time>2026-04-30T18:08:34.096Z</time></trkpt><trkpt lat="42.4855048" lon="5.4394231"><ele>0.0</ele><time>2026-04-30T18:08:36.095Z</time></trkpt><trkpt lat="42.4855465" lon="5.4395713"><ele>0.0</ele><time>2026-04-30T18:08:38.095Z</time></trkpt><trkpt lat="42.4855937" lon="5.4397129"><ele>0.0</ele><time>2026-04-30T18:08:40.095Z</time></trkpt><trkpt lat="42.4856433" lon="5.4398519"><ele>0.0</ele><time>2026-04-30T18:08:42.095Z</time></trkpt><trkpt lat="42.485687" lon="5.4399884"><ele>0.0</ele><time>2026-04-30T18:08:44.095Z</time></trkpt><trkpt lat="42.4857361" lon="5.4401263"><ele>0.0</ele><time>2026-04-30T18:08:46.095Z</time></trkpt><trkpt lat="42.4857813" lon="5.4402667"><ele>0.0</ele><time>2026-04-30T18:08:48.095Z</time></trkpt><trkpt lat="42.4858237" lon="5.4404049"><ele>0.0</ele><time>2026-04-30T18:08:50.095Z</time></trkpt><trkpt lat="42.4859239" lon="5.4406828"><ele>0.0</ele><time>2026-04-30T18:08:54.095Z</time></trkpt><trkpt lat="42.4859714" lon="5.4408218"><ele>0.0</ele><time>2026-04-30T18:08:56.096Z</time></trkpt><trkpt lat="42.4860106" lon="5.440963"><ele>0.0</ele><time>2026-04-30T18:08:58.096Z</time></trkpt><trkpt lat="42.4860612" lon="5.4410957"><ele>0.0</ele><time>2026-04-30T18:09:00.096Z</time></trkpt><trkpt lat="42.4861039" lon="5.4412316"><ele>0.0</ele><time>2026-04-30T18:09:02.095Z</time></trkpt><trkpt lat="42.4861758" lon="5.4414414"><ele>0.0</ele><time>2026-04-30T18:09:05.095Z</time></trkpt><trkpt lat="42.4862225" lon="5.4415793"><ele>0.0</ele><time>2026-04-30T18:09:07.096Z</time></trkpt><trkpt lat="42.4862753" lon="5.4417138"><ele>0.0</ele><time>2026-04-30T18:09:09.096Z</time></trkpt><trkpt lat="42.4863242" lon="5.44184"><ele>0.0</ele><time>2026-04-30T18:09:11.095Z</time></trkpt><trkpt lat="42.4864337" lon="5.442111"><ele>0.0</ele><time>2026-04-30T18:09:15.095Z</time></trkpt><trkpt lat="42.4864789" lon="5.4422498"><ele>0.0</ele><time>2026-04-30T18:09:17.096Z</time></trkpt><trkpt lat="42.4865363" lon="5.4423771"><ele>0.0</ele><time>2026-04-30T18:09:19.096Z</time></trkpt><trkpt lat="42.4865909" lon="5.4425118"><ele>0.0</ele><time>2026-04-30T18:09:21.095Z</time></trkpt><trkpt lat="42.4866446" lon="5.4426421"><ele>0.0</ele><time>2026-04-30T18:09:23.095Z</time></trkpt><trkpt lat="42.4867003" lon="5.4427751"><ele>0.0</ele><time>2026-04-30T18:09:25.095Z</time></trkpt><trkpt lat="42.4867548" lon="5.4429101"><ele>0.0</ele><time>2026-04-30T18:09:27.095Z</time></trkpt><trkpt lat="42.4868124" lon="5.4430463"><ele>0.0</ele><time>2026-04-30T18:09:29.095Z</time></trkpt><trkpt lat="42.4868654" lon="5.4431872"><ele>0.0</ele><time>2026-04-30T18:09:31.096Z</time></trkpt><trkpt lat="42.4869092" lon="5.4433308"><ele>0.0</ele><time>2026-04-30T18:09:33.096Z</time></trkpt><trkpt lat="42.4869943" lon="5.4436138"><ele>0.0</ele><time>2026-04-30T18:09:37.095Z</time></trkpt><trkpt lat="42.4870487" lon="5.4437518"><ele>0.0</ele><time>2026-04-30T18:09:39.096Z</time></trkpt><trkpt lat="42.4870968" lon="5.4438943"><ele>0.0</ele><time>2026-04-30T18:09:41.095Z</time></trkpt><trkpt lat="42.4871611" lon="5.4440258"><ele>0.0</ele><time>2026-04-30T18:09:43.095Z</time></trkpt><trkpt lat="42.4872262" lon="5.4441524"><ele>0.0</ele><time>2026-04-30T18:09:45.096Z</time></trkpt><trkpt lat="42.4872883" lon="5.4442877"><ele>0.0</ele><time>2026-04-30T18:09:47.095Z</time></trkpt><trkpt lat="42.4873537" lon="5.4444226"><ele>0.0</ele><time>2026-04-30T18:09:49.096Z</time></trkpt><trkpt lat="42.4874018" lon="5.4445548"><ele>0.0</ele><time>2026-04-30T18:09:51.095Z</time></trkpt><trkpt lat="42.4874516" lon="5.4446856"><ele>0.0</ele><time>2026-04-30T18:09:53.096Z</time></trkpt><trkpt lat="42.4875015" lon="5.4448214"><ele>0.0</ele><time>2026-04-30T18:09:55.095Z</time></trkpt><trkpt lat="42.4876251" lon="5.4450851"><ele>0.0</ele><time>2026-04-30T18:09:59.096Z</time></trkpt><trkpt lat="42.4876863" lon="5.4452178"><ele>0.0</ele><time>2026-04-30T18:10:01.095Z</time></trkpt><trkpt lat="42.4877364" lon="5.4453542"><ele>0.0</ele><time>2026-04-30T18:10:03.096Z</time></trkpt><trkpt lat="42.4877822" lon="5.4454919"><ele>0.0</ele><time>2026-04-30T18:10:05.095Z</time></trkpt><trkpt lat="42.4878249" lon="5.4456265"><ele>0.0</ele><time>2026-04-30T18:10:07.095Z</time></trkpt><trkpt lat="42.4878706" lon="5.4457648"><ele>0.0</ele><time>2026-04-30T18:10:09.095Z</time></trkpt><trkpt lat="42.4879098" lon="5.445919"><ele>0.0</ele><time>2026-04-30T18:10:11.096Z</time></trkpt><trkpt lat="42.4879523" lon="5.4460603"><ele>0.0</ele><time>2026-04-30T18:10:13.096Z</time></trkpt><trkpt lat="42.4880095" lon="5.4461904"><ele>0.0</ele><time>2026-04-30T18:10:15.096Z</time></trkpt><trkpt lat="42.4880682" lon="5.4463229"><ele>0.0</ele><time>2026-04-30T18:10:17.095Z</time></trkpt><trkpt lat="42.4881498" lon="5.4465936"><ele>0.0</ele><time>2026-04-30T18:10:21.096Z</time></trkpt><trkpt lat="42.4881915" lon="5.4467255"><ele>0.0</ele><time>2026-04-30T18:10:23.095Z</time></trkpt><trkpt lat="42.488248" lon="5.4468537"><ele>0.0</ele><time>2026-04-30T18:10:25.095Z</time></trkpt><trkpt lat="42.488301" lon="5.4469855"><ele>0.0</ele><time>2026-04-30T18:10:27.095Z</time></trkpt><trkpt lat="42.4883536" lon="5.4471185"><ele>0.0</ele><time>2026-04-30T18:10:29.096Z</time></trkpt><trkpt lat="42.4884123" lon="5.4472505"><ele>0.0</ele><time>2026-04-30T18:10:31.095Z</time></trkpt><trkpt lat="42.4884732" lon="5.4473852"><ele>0.0</ele><time>2026-04-30T18:10:33.095Z</time></trkpt><trkpt lat="42.4885337" lon="5.4475188"><ele>0.0</ele><time>2026-04-30T18:10:35.095Z</time></trkpt><trkpt lat="42.4885878" lon="5.4476562"><ele>0.0</ele><time>2026-04-30T18:10:37.096Z</time></trkpt><trkpt lat="42.4886341" lon="5.447803"><ele>0.0</ele><time>2026-04-30T18:10:39.095Z</time></trkpt><trkpt lat="42.4887234" lon="5.4480825"><ele>0.0</ele><time>2026-04-30T18:10:43.095Z</time></trkpt><trkpt lat="42.4887644" lon="5.4482266"><ele>0.0</ele><time>2026-04-30T18:10:45.096Z</time></trkpt><trkpt lat="42.4888085" lon="5.4483661"><ele>0.0</ele><time>2026-04-30T18:10:47.095Z</time></trkpt><trkpt lat="42.4888633" lon="5.4485061"><ele>0.0</ele><time>2026-04-30T18:10:49.095Z</time></trkpt><trkpt lat="42.4889088" lon="5.4486485"><ele>0.0</ele><time>2026-04-30T18:10:51.096Z</time></trkpt><trkpt lat="42.4889568" lon="5.4487868"><ele>0.0</ele><time>2026-04-30T18:10:53.096Z</time></trkpt><trkpt lat="42.489007" lon="5.4489209"><ele>0.0</ele><time>2026-04-30T18:10:55.095Z</time></trkpt><trkpt lat="42.4890554" lon="5.4490593"><ele>0.0</ele><time>2026-04-30T18:10:57.095Z</time></trkpt><trkpt lat="42.4890939" lon="5.4491931"><ele>0.0</ele><time>2026-04-30T18:10:59.095Z</time></trkpt><trkpt lat="42.4891382" lon="5.4493269"><ele>0.0</ele><time>2026-04-30T18:11:01.095Z</time></trkpt><trkpt lat="42.4892488" lon="5.4495965"><ele>0.0</ele><time>2026-04-30T18:11:05.096Z</time></trkpt><trkpt lat="42.4892951" lon="5.4497331"><ele>0.0</ele><time>2026-04-30T18:11:07.095Z</time></trkpt><trkpt lat="42.4893492" lon="5.4498717"><ele>0.0</ele><time>2026-04-30T18:11:09.095Z</time></trkpt><trkpt lat="42.4893943" lon="5.4500099"><ele>0.0</ele><time>2026-04-30T18:11:11.095Z</time></trkpt><trkpt lat="42.489442" lon="5.4501428"><ele>0.0</ele><time>2026-04-30T18:11:13.095Z</time></trkpt><trkpt lat="42.489498" lon="5.450277"><ele>0.0</ele><time>2026-04-30T18:11:15.095Z</time></trkpt><trkpt lat="42.4895487" lon="5.4503987"><ele>0.0</ele><time>2026-04-30T18:11:17.096Z</time></trkpt><trkpt lat="42.4896018" lon="5.4505204"><ele>0.0</ele><time>2026-04-30T18:11:19.095Z</time></trkpt><trkpt lat="42.4896687" lon="5.4506489"><ele>0.0</ele><time>2026-04-30T18:11:21.096Z</time></trkpt><trkpt lat="42.4897258" lon="5.4507868"><ele>0.0</ele><time>2026-04-30T18:11:23.095Z</time></trkpt><trkpt lat="42.4898272" lon="5.4510811"><ele>0.0</ele><time>2026-04-30T18:11:27.095Z</time></trkpt><trkpt lat="42.4898645" lon="5.4512231"><ele>0.0</ele><time>2026-04-30T18:11:29.095Z</time></trkpt><trkpt lat="42.4899038" lon="5.4513598"><ele>0.0</ele><time>2026-04-30T18:11:31.096Z</time></trkpt><trkpt lat="42.4899381" lon="5.4514999"><ele>0.0</ele><time>2026-04-30T18:11:33.095Z</time></trkpt><trkpt lat="42.4899679" lon="5.4516379"><ele>0.0</ele><time>2026-04-30T18:11:35.095Z</time></trkpt><trkpt lat="42.4900208" lon="5.4517689"><ele>0.0</ele><time>2026-04-30T18:11:37.095Z</time></trkpt><trkpt lat="42.4900759" lon="5.4519006"><ele>0.0</ele><time>2026-04-30T18:11:39.096Z</time></trkpt><trkpt lat="42.4901233" lon="5.452032"><ele>0.0</ele><time>2026-04-30T18:11:41.096Z</time></trkpt><trkpt lat="42.4901976" lon="5.4522388"><ele>0.0</ele><time>2026-04-30T18:11:44.096Z</time></trkpt><trkpt lat="42.4903051" lon="5.4524939"><ele>0.0</ele><time>2026-04-30T18:11:48.096Z</time></trkpt><trkpt lat="42.4903542" lon="5.4526271"><ele>0.0</ele><time>2026-04-30T18:11:50.095Z</time></trkpt><trkpt lat="42.4904047" lon="5.4527672"><ele>0.0</ele><time>2026-04-30T18:11:52.095Z</time></trkpt><trkpt lat="42.4904289" lon="5.4528491"><ele>0.0</ele><time>2026-04-30T18:11:53.096Z</time></trkpt><trkpt lat="42.490486" lon="5.4529789"><ele>0.0</ele><time>2026-04-30T18:11:55.096Z</time></trkpt><trkpt lat="42.4905342" lon="5.4531048"><ele>0.0</ele><time>2026-04-30T18:11:57.096Z</time></trkpt><trkpt lat="42.490583" lon="5.4532402"><ele>0.0</ele><time>2026-04-30T18:11:59.095Z</time></trkpt><trkpt lat="42.4906318" lon="5.4533818"><ele>0.0</ele><time>2026-04-30T18:12:01.095Z</time></trkpt><trkpt lat="42.4906918" lon="5.4535123"><ele>0.0</ele><time>2026-04-30T18:12:03.096Z</time></trkpt><trkpt lat="42.4907467" lon="5.453639"><ele>0.0</ele><time>2026-04-30T18:12:05.096Z</time></trkpt><trkpt lat="42.4908537" lon="5.4539072"><ele>0.0</ele><time>2026-04-30T18:12:09.095Z</time></trkpt><trkpt lat="42.4908964" lon="5.4540456"><ele>0.0</ele><time>2026-04-30T18:12:11.096Z</time></trkpt><trkpt lat="42.4909437" lon="5.4541872"><ele>0.0</ele><time>2026-04-30T18:12:13.096Z</time></trkpt><trkpt lat="42.490994" lon="5.4543295"><ele>0.0</ele><time>2026-04-30T18:12:15.095Z</time></trkpt><trkpt lat="42.4910483" lon="5.4544679"><ele>0.0</ele><time>2026-04-30T18:12:17.095Z</time></trkpt><trkpt lat="42.491109" lon="5.4545972"><ele>0.0</ele><time>2026-04-30T18:12:19.096Z</time></trkpt><trkpt lat="42.4911512" lon="5.454734"><ele>0.0</ele><time>2026-04-30T18:12:21.096Z</time></trkpt><trkpt lat="42.4911909" lon="5.4548766"><ele>0.0</ele><time>2026-04-30T18:12:23.095Z</time></trkpt><trkpt lat="42.4912381" lon="5.4550052"><ele>0.0</ele><time>2026-04-30T18:12:25.096Z</time></trkpt><trkpt lat="42.4912871" lon="5.455145"><ele>0.0</ele><time>2026-04-30T18:12:27.095Z</time></trkpt><trkpt lat="42.4913675" lon="5.4554242"><ele>0.0</ele><time>2026-04-30T18:12:31.094Z</time></trkpt><trkpt lat="42.4914158" lon="5.4555622"><ele>0.0</ele><time>2026-04-30T18:12:33.094Z</time></trkpt><trkpt lat="42.491466" lon="5.4556936"><ele>0.0</ele><time>2026-04-30T18:12:35.094Z</time></trkpt><trkpt lat="42.4915131" lon="5.4558317"><ele>0.0</ele><time>2026-04-30T18:12:37.095Z</time></trkpt><trkpt lat="42.4915567" lon="5.4559671"><ele>0.0</ele><time>2026-04-30T18:12:39.094Z</time></trkpt><trkpt lat="42.4916035" lon="5.456094"><ele>0.0</ele><time>2026-04-30T18:12:41.094Z</time></trkpt><trkpt lat="42.4916539" lon="5.4562186"><ele>0.0</ele><time>2026-04-30T18:12:43.095Z</time></trkpt><trkpt lat="42.4916974" lon="5.4563581"><ele>0.0</ele><time>2026-04-30T18:12:45.094Z</time></trkpt><trkpt lat="42.4917418" lon="5.456498"><ele>0.0</ele><time>2026-04-30T18:12:47.094Z</time></trkpt><trkpt lat="42.4918454" lon="5.4567793"><ele>0.0</ele><time>2026-04-30T18:12:51.094Z</time></trkpt><trkpt lat="42.4918932" lon="5.4569263"><ele>0.0</ele><time>2026-04-30T18:12:53.094Z</time></trkpt><trkpt lat="42.4919294" lon="5.4570757"><ele>0.0</ele><time>2026-04-30T18:12:55.094Z</time></trkpt><trkpt lat="42.49195" lon="5.4571564"><ele>0.0</ele><time>2026-04-30T18:12:56.095Z</time></trkpt><trkpt lat="42.4920031" lon="5.4573001"><ele>0.0</ele><time>2026-04-30T18:12:58.094Z</time></trkpt><trkpt lat="42.4920397" lon="5.4574475"><ele>0.0</ele><time>2026-04-30T18:13:00.094Z</time></trkpt><trkpt lat="42.4920856" lon="5.4575762"><ele>0.0</ele><time>2026-04-30T18:13:02.094Z</time></trkpt><trkpt lat="42.4921368" lon="5.457704"><ele>0.0</ele><time>2026-04-30T18:13:04.095Z</time></trkpt><trkpt lat="42.492191" lon="5.4578372"><ele>0.0</ele><time>2026-04-30T18:13:06.094Z</time></trkpt><trkpt lat="42.4922416" lon="5.4579736"><ele>0.0</ele><time>2026-04-30T18:13:08.094Z</time></trkpt><trkpt lat="42.4923332" lon="5.4582462"><ele>0.0</ele><time>2026-04-30T18:13:12.094Z</time></trkpt><trkpt lat="42.492378" lon="5.4583894"><ele>0.0</ele><time>2026-04-30T18:13:14.094Z</time></trkpt><trkpt lat="42.4924227" lon="5.4585358"><ele>0.0</ele><time>2026-04-30T18:13:16.094Z</time></trkpt><trkpt lat="42.4924795" lon="5.458674"><ele>0.0</ele><time>2026-04-30T18:13:18.094Z</time></trkpt><trkpt lat="42.4925614" lon="5.4588657"><ele>0.0</ele><time>2026-04-30T18:13:21.095Z</time></trkpt><trkpt lat="42.4926135" lon="5.4589951"><ele>0.0</ele><time>2026-04-30T18:13:23.094Z</time></trkpt><trkpt lat="42.4926601" lon="5.4591296"><ele>0.0</ele><time>2026-04-30T18:13:25.095Z</time></trkpt><trkpt lat="42.4927128" lon="5.4592679"><ele>0.0</ele><time>2026-04-30T18:13:27.095Z</time></trkpt><trkpt lat="42.4927697" lon="5.459405"><ele>0.0</ele><time>2026-04-30T18:13:29.094Z</time></trkpt><trkpt lat="42.4928735" lon="5.4596812"><ele>0.0</ele><time>2026-04-30T18:13:33.095Z</time></trkpt><trkpt lat="42.4929186" lon="5.4598169"><ele>0.0</ele><time>2026-04-30T18:13:35.094Z</time></trkpt><trkpt lat="42.4929636" lon="5.4599519"><ele>0.0</ele><time>2026-04-30T18:13:37.094Z</time></trkpt><trkpt lat="42.4930097" lon="5.4600856"><ele>0.0</ele><time>2026-04-30T18:13:39.094Z</time></trkpt><trkpt lat="42.4930167" lon="5.4602418"><ele>0.0</ele><time>2026-04-30T18:13:41.094Z</time></trkpt><trkpt lat="42.493053" lon="5.4603865"><ele>0.0</ele><time>2026-04-30T18:13:43.095Z</time></trkpt><trkpt lat="42.493105" lon="5.4605201"><ele>0.0</ele><time>2026-04-30T18:13:45.094Z</time></trkpt><trkpt lat="42.4931469" lon="5.4606518"><ele>0.0</ele><time>2026-04-30T18:13:47.094Z</time></trkpt><trkpt lat="42.4931964" lon="5.4607893"><ele>0.0</ele><time>2026-04-30T18:13:49.094Z</time></trkpt><trkpt lat="42.4932398" lon="5.4609294"><ele>0.0</ele><time>2026-04-30T18:13:51.095Z</time></trkpt><trkpt lat="42.4933285" lon="5.4612068"><ele>0.0</ele><time>2026-04-30T18:13:55.094Z</time></trkpt><trkpt lat="42.49338" lon="5.4613385"><ele>0.0</ele><time>2026-04-30T18:13:57.094Z</time></trkpt><trkpt lat="42.4934282" lon="5.4614722"><ele>0.0</ele><time>2026-04-30T18:13:59.095Z</time></trkpt><trkpt lat="42.4934768" lon="5.4616054"><ele>0.0</ele><time>2026-04-30T18:14:01.094Z</time></trkpt><trkpt lat="42.4935412" lon="5.4617366"><ele>0.0</ele><time>2026-04-30T18:14:03.094Z</time></trkpt><trkpt lat="42.4935913" lon="5.4618745"><ele>0.0</ele><time>2026-04-30T18:14:05.095Z</time></trkpt><trkpt lat="42.4936467" lon="5.4620149"><ele>0.0</ele><time>2026-04-30T18:14:07.094Z</time></trkpt><trkpt lat="42.4936951" lon="5.4621502"><ele>0.0</ele><time>2026-04-30T18:14:09.094Z</time></trkpt><trkpt lat="42.4937433" lon="5.4622896"><ele>0.0</ele><time>2026-04-30T18:14:11.094Z</time></trkpt><trkpt lat="42.4937966" lon="5.462425"><ele>0.0</ele><time>2026-04-30T18:14:13.095Z</time></trkpt><trkpt lat="42.4938951" lon="5.4626871"><ele>0.0</ele><time>2026-04-30T18:14:17.094Z</time></trkpt><trkpt lat="42.4939359" lon="5.4628141"><ele>0.0</ele><time>2026-04-30T18:14:19.095Z</time></trkpt><trkpt lat="42.4939847" lon="5.4629468"><ele>0.0</ele><time>2026-04-30T18:14:21.094Z</time></trkpt><trkpt lat="42.4940383" lon="5.4630862"><ele>0.0</ele><time>2026-04-30T18:14:23.095Z</time></trkpt><trkpt lat="42.4940917" lon="5.4632199"><ele>0.0</ele><time>2026-04-30T18:14:25.094Z</time></trkpt><trkpt lat="42.4941432" lon="5.4633535"><ele>0.0</ele><time>2026-04-30T18:14:27.095Z</time></trkpt><trkpt lat="42.4941948" lon="5.4634852"><ele>0.0</ele><time>2026-04-30T18:14:29.094Z</time></trkpt><trkpt lat="42.4942435" lon="5.46362"><ele>0.0</ele><time>2026-04-30T18:14:31.095Z</time></trkpt><trkpt lat="42.4942979" lon="5.4637544"><ele>0.0</ele><time>2026-04-30T18:14:33.094Z</time></trkpt><trkpt lat="42.4943453" lon="5.4638974"><ele>0.0</ele><time>2026-04-30T18:14:35.095Z</time></trkpt><trkpt lat="42.4944238" lon="5.4641827"><ele>0.0</ele><time>2026-04-30T18:14:39.094Z</time></trkpt><trkpt lat="42.4944808" lon="5.4643158"><ele>0.0</ele><time>2026-04-30T18:14:41.095Z</time></trkpt><trkpt lat="42.4945335" lon="5.4644499"><ele>0.0</ele><time>2026-04-30T18:14:43.095Z</time></trkpt><trkpt lat="42.4945879" lon="5.4645895"><ele>0.0</ele><time>2026-04-30T18:14:45.095Z</time></trkpt><trkpt lat="42.4946512" lon="5.4647251"><ele>0.0</ele><time>2026-04-30T18:14:47.094Z</time></trkpt><trkpt lat="42.4947033" lon="5.4648532"><ele>0.0</ele><time>2026-04-30T18:14:49.094Z</time></trkpt><trkpt lat="42.4947583" lon="5.4649917"><ele>0.0</ele><time>2026-04-30T18:14:51.095Z</time></trkpt><trkpt lat="42.4948154" lon="5.4651267"><ele>0.0</ele><time>2026-04-30T18:14:53.094Z</time></trkpt><trkpt lat="42.4948651" lon="5.4652569"><ele>0.0</ele><time>2026-04-30T18:14:55.095Z</time></trkpt><trkpt lat="42.4949734" lon="5.4655218"><ele>0.0</ele><time>2026-04-30T18:14:59.094Z</time></trkpt><trkpt lat="42.4950241" lon="5.4656498"><ele>0.0</ele><time>2026-04-30T18:15:01.094Z</time></trkpt><trkpt lat="42.4950748" lon="5.4657828"><ele>0.0</ele><time>2026-04-30T18:15:03.095Z</time></trkpt><trkpt lat="42.495125" lon="5.4659181"><ele>0.0</ele><time>2026-04-30T18:15:05.094Z</time></trkpt><trkpt lat="42.4951715" lon="5.4660501"><ele>0.0</ele><time>2026-04-30T18:15:07.094Z</time></trkpt><trkpt lat="42.4952137" lon="5.4661916"><ele>0.0</ele><time>2026-04-30T18:15:09.094Z</time></trkpt><trkpt lat="42.4952486" lon="5.4663334"><ele>0.0</ele><time>2026-04-30T18:15:11.094Z</time></trkpt><trkpt lat="42.4952967" lon="5.4664702"><ele>0.0</ele><time>2026-04-30T18:15:13.094Z</time></trkpt><trkpt lat="42.4953465" lon="5.4666022"><ele>0.0</ele><time>2026-04-30T18:15:15.094Z</time></trkpt><trkpt lat="42.4953967" lon="5.4667333"><ele>0.0</ele><time>2026-04-30T18:15:17.094Z</time></trkpt><trkpt lat="42.4954916" lon="5.467005"><ele>0.0</ele><time>2026-04-30T18:15:21.095Z</time></trkpt><trkpt lat="42.4955334" lon="5.4671431"><ele>0.0</ele><time>2026-04-30T18:15:23.095Z</time></trkpt><trkpt lat="42.4955803" lon="5.4672868"><ele>0.0</ele><time>2026-04-30T18:15:25.094Z</time></trkpt><trkpt lat="42.4956331" lon="5.46742"><ele>0.0</ele><time>2026-04-30T18:15:27.094Z</time></trkpt><trkpt lat="42.4956833" lon="5.4675565"><ele>0.0</ele><time>2026-04-30T18:15:29.094Z</time></trkpt><trkpt lat="42.495727" lon="5.4676929"><ele>0.0</ele><time>2026-04-30T18:15:31.095Z</time></trkpt><trkpt lat="42.49578" lon="5.4678231"><ele>0.0</ele><time>2026-04-30T18:15:33.095Z</time></trkpt><trkpt lat="42.4958234" lon="5.4679682"><ele>0.0</ele><time>2026-04-30T18:15:35.094Z</time></trkpt><trkpt lat="42.4958735" lon="5.4681021"><ele>0.0</ele><time>2026-04-30T18:15:37.094Z</time></trkpt><trkpt lat="42.4959205" lon="5.4682354"><ele>0.0</ele><time>2026-04-30T18:15:39.095Z</time></trkpt><trkpt lat="42.4960111" lon="5.4685119"><ele>0.0</ele><time>2026-04-30T18:15:43.094Z</time></trkpt><trkpt lat="42.4960505" lon="5.4686512"><ele>0.0</ele><time>2026-04-30T18:15:45.094Z</time></trkpt><trkpt lat="42.496095" lon="5.4687902"><ele>0.0</ele><time>2026-04-30T18:15:47.095Z</time></trkpt><trkpt lat="42.4961412" lon="5.4689301"><ele>0.0</ele><time>2026-04-30T18:15:49.094Z</time></trkpt><trkpt lat="42.4961877" lon="5.4690678"><ele>0.0</ele><time>2026-04-30T18:15:51.094Z</time></trkpt><trkpt lat="42.4962309" lon="5.469215"><ele>0.0</ele><time>2026-04-30T18:15:53.094Z</time></trkpt><trkpt lat="42.4962834" lon="5.4693526"><ele>0.0</ele><time>2026-04-30T18:15:55.095Z</time></trkpt><trkpt lat="42.4963254" lon="5.4694806"><ele>0.0</ele><time>2026-04-30T18:15:57.095Z</time></trkpt><trkpt lat="42.4963753" lon="5.4696121"><ele>0.0</ele><time>2026-04-30T18:15:59.094Z</time></trkpt><trkpt lat="42.4964226" lon="5.4697442"><ele>0.0</ele><time>2026-04-30T18:16:01.094Z</time></trkpt><trkpt lat="42.4965066" lon="5.4700181"><ele>0.0</ele><time>2026-04-30T18:16:05.095Z</time></trkpt><trkpt lat="42.4965522" lon="5.4701585"><ele>0.0</ele><time>2026-04-30T18:16:07.095Z</time></trkpt><trkpt lat="42.4966047" lon="5.4702958"><ele>0.0</ele><time>2026-04-30T18:16:09.095Z</time></trkpt><trkpt lat="42.4966574" lon="5.4704398"><ele>0.0</ele><time>2026-04-30T18:16:11.094Z</time></trkpt><trkpt lat="42.4967149" lon="5.4705845"><ele>0.0</ele><time>2026-04-30T18:16:13.095Z</time></trkpt><trkpt lat="42.4967586" lon="5.4707187"><ele>0.0</ele><time>2026-04-30T18:16:15.095Z</time></trkpt><trkpt lat="42.4968039" lon="5.4708491"><ele>0.0</ele><time>2026-04-30T18:16:17.094Z</time></trkpt><trkpt lat="42.4968442" lon="5.4709864"><ele>0.0</ele><time>2026-04-30T18:16:19.094Z</time></trkpt><trkpt lat="42.4968847" lon="5.4711284"><ele>0.0</ele><time>2026-04-30T18:16:21.094Z</time></trkpt><trkpt lat="42.4969351" lon="5.4712682"><ele>0.0</ele><time>2026-04-30T18:16:23.094Z</time></trkpt><trkpt lat="42.4970365" lon="5.4715463"><ele>0.0</ele><time>2026-04-30T18:16:27.094Z</time></trkpt><trkpt lat="42.497087" lon="5.4716835"><ele>0.0</ele><time>2026-04-30T18:16:29.094Z</time></trkpt><trkpt lat="42.4971316" lon="5.4718235"><ele>0.0</ele><time>2026-04-30T18:16:31.094Z</time></trkpt><trkpt lat="42.4971815" lon="5.4719555"><ele>0.0</ele><time>2026-04-30T18:16:33.095Z</time></trkpt><trkpt lat="42.4972282" lon="5.4720978"><ele>0.0</ele><time>2026-04-30T18:16:35.094Z</time></trkpt><trkpt lat="42.497278" lon="5.4722367"><ele>0.0</ele><time>2026-04-30T18:16:37.094Z</time></trkpt><trkpt lat="42.4973266" lon="5.4723781"><ele>0.0</ele><time>2026-04-30T18:16:39.095Z</time></trkpt><trkpt lat="42.4973861" lon="5.4725073"><ele>0.0</ele><time>2026-04-30T18:16:41.094Z</time></trkpt><trkpt lat="42.4974538" lon="5.4726281"><ele>0.0</ele><time>2026-04-30T18:16:43.095Z</time></trkpt><trkpt lat="42.4975001" lon="5.4727535"><ele>0.0</ele><time>2026-04-30T18:16:45.095Z</time></trkpt><trkpt lat="42.4976023" lon="5.4730198"><ele>0.0</ele><time>2026-04-30T18:16:49.094Z</time></trkpt><trkpt lat="42.4976583" lon="5.4731598"><ele>0.0</ele><time>2026-04-30T18:16:51.095Z</time></trkpt><trkpt lat="42.4977097" lon="5.473301"><ele>0.0</ele><time>2026-04-30T18:16:53.094Z</time></trkpt><trkpt lat="42.4977617" lon="5.4734381"><ele>0.0</ele><time>2026-04-30T18:16:55.094Z</time></trkpt><trkpt lat="42.497816" lon="5.4735783"><ele>0.0</ele><time>2026-04-30T18:16:57.094Z</time></trkpt><trkpt lat="42.4978601" lon="5.4737229"><ele>0.0</ele><time>2026-04-30T18:16:59.094Z</time></trkpt><trkpt lat="42.4978854" lon="5.4738701"><ele>0.0</ele><time>2026-04-30T18:17:01.094Z</time></trkpt><trkpt lat="42.4979335" lon="5.4740074"><ele>0.0</ele><time>2026-04-30T18:17:03.095Z</time></trkpt><trkpt lat="42.4979915" lon="5.4741452"><ele>0.0</ele><time>2026-04-30T18:17:05.094Z</time></trkpt><trkpt lat="42.4980417" lon="5.4742803"><ele>0.0</ele><time>2026-04-30T18:17:07.095Z</time></trkpt><trkpt lat="42.4981465" lon="5.4745545"><ele>0.0</ele><time>2026-04-30T18:17:11.094Z</time></trkpt><trkpt lat="42.498195" lon="5.4746885"><ele>0.0</ele><time>2026-04-30T18:17:13.095Z</time></trkpt><trkpt lat="42.4982402" lon="5.4748282"><ele>0.0</ele><time>2026-04-30T18:17:15.094Z</time></trkpt><trkpt lat="42.4983096" lon="5.4749637"><ele>0.0</ele><time>2026-04-30T18:17:17.094Z</time></trkpt><trkpt lat="42.4983692" lon="5.4750955"><ele>0.0</ele><time>2026-04-30T18:17:19.095Z</time></trkpt><trkpt lat="42.4984249" lon="5.4752278"><ele>0.0</ele><time>2026-04-30T18:17:21.094Z</time></trkpt><trkpt lat="42.498474" lon="5.475362"><ele>0.0</ele><time>2026-04-30T18:17:23.094Z</time></trkpt><trkpt lat="42.4985211" lon="5.4754998"><ele>0.0</ele><time>2026-04-30T18:17:25.094Z</time></trkpt><trkpt lat="42.4985709" lon="5.475638"><ele>0.0</ele><time>2026-04-30T18:17:27.094Z</time></trkpt><trkpt lat="42.4986251" lon="5.4757734"><ele>0.0</ele><time>2026-04-30T18:17:29.094Z</time></trkpt><trkpt lat="42.498719" lon="5.4760568"><ele>0.0</ele><time>2026-04-30T18:17:33.094Z</time></trkpt><trkpt lat="42.4987743" lon="5.4761982"><ele>0.0</ele><time>2026-04-30T18:17:35.094Z</time></trkpt><trkpt lat="42.4988284" lon="5.4763318"><ele>0.0</ele><time>2026-04-30T18:17:37.095Z</time></trkpt><trkpt lat="42.4988793" lon="5.4764685"><ele>0.0</ele><time>2026-04-30T18:17:39.094Z</time></trkpt><trkpt lat="42.4989251" lon="5.4766035"><ele>0.0</ele><time>2026-04-30T18:17:41.095Z</time></trkpt><trkpt lat="42.4989746" lon="5.4767365"><ele>0.0</ele><time>2026-04-30T18:17:43.095Z</time></trkpt><trkpt lat="42.4990268" lon="5.4768716"><ele>0.0</ele><time>2026-04-30T18:17:45.095Z</time></trkpt><trkpt lat="42.499073" lon="5.4770067"><ele>0.0</ele><time>2026-04-30T18:17:47.095Z</time></trkpt><trkpt lat="42.4991182" lon="5.4771429"><ele>0.0</ele><time>2026-04-30T18:17:49.094Z</time></trkpt><trkpt lat="42.4991699" lon="5.4772797"><ele>0.0</ele><time>2026-04-30T18:17:51.094Z</time></trkpt><trkpt lat="42.4992727" lon="5.4775546"><ele>0.0</ele><time>2026-04-30T18:17:55.095Z</time></trkpt><trkpt lat="42.4993139" lon="5.477701"><ele>0.0</ele><time>2026-04-30T18:17:57.095Z</time></trkpt><trkpt lat="42.4993585" lon="5.4778428"><ele>0.0</ele><time>2026-04-30T18:17:59.095Z</time></trkpt><trkpt lat="42.4994036" lon="5.477983"><ele>0.0</ele><time>2026-04-30T18:18:01.094Z</time></trkpt><trkpt lat="42.4994531" lon="5.4781201"><ele>0.0</ele><time>2026-04-30T18:18:03.094Z</time></trkpt><trkpt lat="42.4994966" lon="5.4782627"><ele>0.0</ele><time>2026-04-30T18:18:05.094Z</time></trkpt><trkpt lat="42.4995416" lon="5.4784094"><ele>0.0</ele><time>2026-04-30T18:18:07.094Z</time></trkpt><trkpt lat="42.4995893" lon="5.4785515"><ele>0.0</ele><time>2026-04-30T18:18:09.094Z</time></trkpt><trkpt lat="42.499642" lon="5.4786931"><ele>0.0</ele><time>2026-04-30T18:18:11.093Z</time></trkpt><trkpt lat="42.4997469" lon="5.4789687"><ele>0.0</ele><time>2026-04-30T18:18:15.094Z</time></trkpt><trkpt lat="42.499798" lon="5.4791"><ele>0.0</ele><time>2026-04-30T18:18:17.093Z</time></trkpt><trkpt lat="42.4998505" lon="5.4792398"><ele>0.0</ele><time>2026-04-30T18:18:19.093Z</time></trkpt><trkpt lat="42.4998995" lon="5.4793752"><ele>0.0</ele><time>2026-04-30T18:18:21.094Z</time></trkpt><trkpt lat="42.4999582" lon="5.4794942"><ele>0.0</ele><time>2026-04-30T18:18:23.093Z</time></trkpt><trkpt lat="42.500015" lon="5.4796235"><ele>0.0</ele><time>2026-04-30T18:18:25.094Z</time></trkpt><trkpt lat="42.5000687" lon="5.4797555"><ele>0.0</ele><time>2026-04-30T18:18:27.093Z</time></trkpt><trkpt lat="42.5001216" lon="5.479893"><ele>0.0</ele><time>2026-04-30T18:18:29.094Z</time></trkpt><trkpt lat="42.5001701" lon="5.4800271"><ele>0.0</ele><time>2026-04-30T18:18:31.093Z</time></trkpt><trkpt lat="42.5002197" lon="5.4801664"><ele>0.0</ele><time>2026-04-30T18:18:33.093Z</time></trkpt><trkpt lat="42.5003051" lon="5.480457"><ele>0.0</ele><time>2026-04-30T18:18:37.094Z</time></trkpt><trkpt lat="42.5003476" lon="5.4805953"><ele>0.0</ele><time>2026-04-30T18:18:39.094Z</time></trkpt><trkpt lat="42.5003887" lon="5.4807362"><ele>0.0</ele><time>2026-04-30T18:18:41.094Z</time></trkpt><trkpt lat="42.5004483" lon="5.4808648"><ele>0.0</ele><time>2026-04-30T18:18:43.094Z</time></trkpt><trkpt lat="42.5004972" lon="5.4810073"><ele>0.0</ele><time>2026-04-30T18:18:45.094Z</time></trkpt><trkpt lat="42.500558" lon="5.4811383"><ele>0.0</ele><time>2026-04-30T18:18:47.093Z</time></trkpt><trkpt lat="42.5006067" lon="5.4812791"><ele>0.0</ele><time>2026-04-30T18:18:49.093Z</time></trkpt><trkpt lat="42.5006526" lon="5.4814167"><ele>0.0</ele><time>2026-04-30T18:18:51.094Z</time></trkpt><trkpt lat="42.5006971" lon="5.4815608"><ele>0.0</ele><time>2026-04-30T18:18:53.094Z</time></trkpt><trkpt lat="42.5007372" lon="5.481705"><ele>0.0</ele><time>2026-04-30T18:18:55.094Z</time></trkpt><trkpt lat="42.5008182" lon="5.481995"><ele>0.0</ele><time>2026-04-30T18:18:59.094Z</time></trkpt><trkpt lat="42.5008668" lon="5.4821274"><ele>0.0</ele><time>2026-04-30T18:19:01.094Z</time></trkpt><trkpt lat="42.5009135" lon="5.4822669"><ele>0.0</ele><time>2026-04-30T18:19:03.094Z</time></trkpt><trkpt lat="42.5009658" lon="5.4824045"><ele>0.0</ele><time>2026-04-30T18:19:05.093Z</time></trkpt><trkpt lat="42.5010179" lon="5.4825405"><ele>0.0</ele><time>2026-04-30T18:19:07.094Z</time></trkpt><trkpt lat="42.5010637" lon="5.4826769"><ele>0.0</ele><time>2026-04-30T18:19:09.094Z</time></trkpt><trkpt lat="42.5011075" lon="5.4828095"><ele>0.0</ele><time>2026-04-30T18:19:11.093Z</time></trkpt><trkpt lat="42.5011556" lon="5.4829377"><ele>0.0</ele><time>2026-04-30T18:19:13.093Z</time></trkpt><trkpt lat="42.5012106" lon="5.4830702"><ele>0.0</ele><time>2026-04-30T18:19:15.093Z</time></trkpt><trkpt lat="42.5012723" lon="5.483202"><ele>0.0</ele><time>2026-04-30T18:19:17.093Z</time></trkpt><trkpt lat="42.5013763" lon="5.4834721"><ele>0.0</ele><time>2026-04-30T18:19:21.093Z</time></trkpt><trkpt lat="42.5014257" lon="5.4836073"><ele>0.0</ele><time>2026-04-30T18:19:23.094Z</time></trkpt><trkpt lat="42.5014734" lon="5.4837412"><ele>0.0</ele><time>2026-04-30T18:19:25.094Z</time></trkpt><trkpt lat="42.5015256" lon="5.4838796"><ele>0.0</ele><time>2026-04-30T18:19:27.093Z</time></trkpt><trkpt lat="42.501572" lon="5.4840181"><ele>0.0</ele><time>2026-04-30T18:19:29.094Z</time></trkpt><trkpt lat="42.5016215" lon="5.484155"><ele>0.0</ele><time>2026-04-30T18:19:31.094Z</time></trkpt><trkpt lat="42.5016683" lon="5.4842902"><ele>0.0</ele><time>2026-04-30T18:19:33.093Z</time></trkpt><trkpt lat="42.5017125" lon="5.4844282"><ele>0.0</ele><time>2026-04-30T18:19:35.094Z</time></trkpt><trkpt lat="42.5017717" lon="5.4845642"><ele>0.0</ele><time>2026-04-30T18:19:37.093Z</time></trkpt><trkpt lat="42.5018114" lon="5.4847092"><ele>0.0</ele><time>2026-04-30T18:19:39.093Z</time></trkpt><trkpt lat="42.5019336" lon="5.4850516"><ele>0.0</ele><time>2026-04-30T18:19:44.094Z</time></trkpt><trkpt lat="42.5019896" lon="5.485185"><ele>0.0</ele><time>2026-04-30T18:19:46.093Z</time></trkpt><trkpt lat="42.5020412" lon="5.4853217"><ele>0.0</ele><time>2026-04-30T18:19:48.094Z</time></trkpt><trkpt lat="42.5020882" lon="5.4854615"><ele>0.0</ele><time>2026-04-30T18:19:50.094Z</time></trkpt><trkpt lat="42.5021414" lon="5.4855984"><ele>0.0</ele><time>2026-04-30T18:19:52.094Z</time></trkpt><trkpt lat="42.5021767" lon="5.4857445"><ele>0.0</ele><time>2026-04-30T18:19:54.093Z</time></trkpt><trkpt lat="42.5022218" lon="5.4858913"><ele>0.0</ele><time>2026-04-30T18:19:56.093Z</time></trkpt><trkpt lat="42.5022717" lon="5.4860267"><ele>0.0</ele><time>2026-04-30T18:19:58.094Z</time></trkpt><trkpt lat="42.5023195" lon="5.4861682"><ele>0.0</ele><time>2026-04-30T18:20:00.093Z</time></trkpt><trkpt lat="42.5024277" lon="5.4864338"><ele>0.0</ele><time>2026-04-30T18:20:04.094Z</time></trkpt><trkpt lat="42.5024842" lon="5.4865702"><ele>0.0</ele><time>2026-04-30T18:20:06.094Z</time></trkpt><trkpt lat="42.5025329" lon="5.4867043"><ele>0.0</ele><time>2026-04-30T18:20:08.094Z</time></trkpt><trkpt lat="42.502576" lon="5.486843"><ele>0.0</ele><time>2026-04-30T18:20:10.094Z</time></trkpt><trkpt lat="42.5026228" lon="5.4869806"><ele>0.0</ele><time>2026-04-30T18:20:12.093Z</time></trkpt><trkpt lat="42.5026747" lon="5.4871182"><ele>0.0</ele><time>2026-04-30T18:20:14.093Z</time></trkpt><trkpt lat="42.5027263" lon="5.4872547"><ele>0.0</ele><time>2026-04-30T18:20:16.093Z</time></trkpt><trkpt lat="42.5027832" lon="5.4873931"><ele>0.0</ele><time>2026-04-30T18:20:18.093Z</time></trkpt><trkpt lat="42.5028382" lon="5.4875328"><ele>0.0</ele><time>2026-04-30T18:20:20.094Z</time></trkpt><trkpt lat="42.5028835" lon="5.4876763"><ele>0.0</ele><time>2026-04-30T18:20:22.094Z</time></trkpt><trkpt lat="42.5029783" lon="5.4879595"><ele>0.0</ele><time>2026-04-30T18:20:26.093Z</time></trkpt><trkpt lat="42.5030281" lon="5.488097"><ele>0.0</ele><time>2026-04-30T18:20:28.093Z</time></trkpt><trkpt lat="42.5030726" lon="5.4882334"><ele>0.0</ele><time>2026-04-30T18:20:30.093Z</time></trkpt><trkpt lat="42.5031071" lon="5.4883765"><ele>0.0</ele><time>2026-04-30T18:20:32.093Z</time></trkpt><trkpt lat="42.5031421" lon="5.4885198"><ele>0.0</ele><time>2026-04-30T18:20:34.094Z</time></trkpt><trkpt lat="42.5031786" lon="5.4886631"><ele>0.0</ele><time>2026-04-30T18:20:36.094Z</time></trkpt><trkpt lat="42.5032236" lon="5.4888087"><ele>0.0</ele><time>2026-04-30T18:20:38.093Z</time></trkpt><trkpt lat="42.5032642" lon="5.4889527"><ele>0.0</ele><time>2026-04-30T18:20:40.094Z</time></trkpt><trkpt lat="42.5033134" lon="5.4890931"><ele>0.0</ele><time>2026-04-30T18:20:42.094Z</time></trkpt><trkpt lat="42.5033653" lon="5.4892321"><ele>0.0</ele><time>2026-04-30T18:20:44.093Z</time></trkpt><trkpt lat="42.5034788" lon="5.4895722"><ele>0.0</ele><time>2026-04-30T18:20:49.093Z</time></trkpt><trkpt lat="42.5035234" lon="5.4897054"><ele>0.0</ele><time>2026-04-30T18:20:51.093Z</time></trkpt><trkpt lat="42.5035714" lon="5.4898386"><ele>0.0</ele><time>2026-04-30T18:20:53.093Z</time></trkpt><trkpt lat="42.5036249" lon="5.4899702"><ele>0.0</ele><time>2026-04-30T18:20:55.093Z</time></trkpt><trkpt lat="42.5036809" lon="5.4901007"><ele>0.0</ele><time>2026-04-30T18:20:57.094Z</time></trkpt><trkpt lat="42.5037418" lon="5.4902256"><ele>0.0</ele><time>2026-04-30T18:20:59.094Z</time></trkpt><trkpt lat="42.503792" lon="5.4903569"><ele>0.0</ele><time>2026-04-30T18:21:01.093Z</time></trkpt><trkpt lat="42.5038425" lon="5.4904901"><ele>0.0</ele><time>2026-04-30T18:21:03.093Z</time></trkpt><trkpt lat="42.5038952" lon="5.490627"><ele>0.0</ele><time>2026-04-30T18:21:05.093Z</time></trkpt><trkpt lat="42.5039881" lon="5.4908979"><ele>0.0</ele><time>2026-04-30T18:21:09.094Z</time></trkpt><trkpt lat="42.5040385" lon="5.4910283"><ele>0.0</ele><time>2026-04-30T18:21:11.093Z</time></trkpt><trkpt lat="42.5040903" lon="5.4911677"><ele>0.0</ele><time>2026-04-30T18:21:13.093Z</time></trkpt><trkpt lat="42.5041415" lon="5.4913068"><ele>0.0</ele><time>2026-04-30T18:21:15.094Z</time></trkpt><trkpt lat="42.5041965" lon="5.4914446"><ele>0.0</ele><time>2026-04-30T18:21:17.094Z</time></trkpt><trkpt lat="42.5042459" lon="5.4915813"><ele>0.0</ele><time>2026-04-30T18:21:19.093Z</time></trkpt><trkpt lat="42.5042967" lon="5.4917215"><ele>0.0</ele><time>2026-04-30T18:21:21.093Z</time></trkpt><trkpt lat="42.5043438" lon="5.491863"><ele>0.0</ele><time>2026-04-30T18:21:23.093Z</time></trkpt><trkpt lat="42.5043811" lon="5.4919946"><ele>0.0</ele><time>2026-04-30T18:21:25.093Z</time></trkpt><trkpt lat="42.5044169" lon="5.4921336"><ele>0.0</ele><time>2026-04-30T18:21:27.093Z</time></trkpt><trkpt lat="42.5045091" lon="5.4923991"><ele>0.0</ele><time>2026-04-30T18:21:31.093Z</time></trkpt><trkpt lat="42.5045553" lon="5.4925338"><ele>0.0</ele><time>2026-04-30T18:21:33.093Z</time></trkpt><trkpt lat="42.5046032" lon="5.4926667"><ele>0.0</ele><time>2026-04-30T18:21:35.093Z</time></trkpt><trkpt lat="42.5046533" lon="5.4928047"><ele>0.0</ele><time>2026-04-30T18:21:37.093Z</time></trkpt><trkpt lat="42.5047" lon="5.492945"><ele>0.0</ele><time>2026-04-30T18:21:39.094Z</time></trkpt><trkpt lat="42.5047483" lon="5.4930801"><ele>0.0</ele><time>2026-04-30T18:21:41.094Z</time></trkpt><trkpt lat="42.5047965" lon="5.4932215"><ele>0.0</ele><time>2026-04-30T18:21:43.093Z</time></trkpt><trkpt lat="42.5048415" lon="5.49336"><ele>0.0</ele><time>2026-04-30T18:21:45.093Z</time></trkpt><trkpt lat="42.5048928" lon="5.4934996"><ele>0.0</ele><time>2026-04-30T18:21:47.094Z</time></trkpt><trkpt lat="42.504938" lon="5.4936416"><ele>0.0</ele><time>2026-04-30T18:21:49.093Z</time></trkpt><trkpt lat="42.5050488" lon="5.4939172"><ele>0.0</ele><time>2026-04-30T18:21:53.093Z</time></trkpt><trkpt lat="42.5051064" lon="5.4940516"><ele>0.0</ele><time>2026-04-30T18:21:55.093Z</time></trkpt><trkpt lat="42.5051583" lon="5.4941916"><ele>0.0</ele><time>2026-04-30T18:21:57.093Z</time></trkpt><trkpt lat="42.5052136" lon="5.4943219"><ele>0.0</ele><time>2026-04-30T18:21:59.094Z</time></trkpt><trkpt lat="42.5052631" lon="5.4944599"><ele>0.0</ele><time>2026-04-30T18:22:01.094Z</time></trkpt><trkpt lat="42.5053167" lon="5.4945984"><ele>0.0</ele><time>2026-04-30T18:22:03.094Z</time></trkpt><trkpt lat="42.5053685" lon="5.49473"><ele>0.0</ele><time>2026-04-30T18:22:05.094Z</time></trkpt><trkpt lat="42.5054205" lon="5.4948695"><ele>0.0</ele><time>2026-04-30T18:22:07.093Z</time></trkpt><trkpt lat="42.5054699" lon="5.4950053"><ele>0.0</ele><time>2026-04-30T18:22:09.094Z</time></trkpt><trkpt lat="42.5055233" lon="5.4951431"><ele>0.0</ele><time>2026-04-30T18:22:11.093Z</time></trkpt><trkpt lat="42.5056233" lon="5.4954101"><ele>0.0</ele><time>2026-04-30T18:22:15.094Z</time></trkpt><trkpt lat="42.5056728" lon="5.4955419"><ele>0.0</ele><time>2026-04-30T18:22:17.093Z</time></trkpt><trkpt lat="42.5057071" lon="5.4956816"><ele>0.0</ele><time>2026-04-30T18:22:19.093Z</time></trkpt><trkpt lat="42.5057532" lon="5.4958199"><ele>0.0</ele><time>2026-04-30T18:22:21.094Z</time></trkpt><trkpt lat="42.5058083" lon="5.4959586"><ele>0.0</ele><time>2026-04-30T18:22:23.093Z</time></trkpt><trkpt lat="42.5058567" lon="5.4960929"><ele>0.0</ele><time>2026-04-30T18:22:25.094Z</time></trkpt><trkpt lat="42.5059085" lon="5.4962305"><ele>0.0</ele><time>2026-04-30T18:22:27.093Z</time></trkpt><trkpt lat="42.5059548" lon="5.4963643"><ele>0.0</ele><time>2026-04-30T18:22:29.094Z</time></trkpt><trkpt lat="42.50601" lon="5.4965016"><ele>0.0</ele><time>2026-04-30T18:22:31.094Z</time></trkpt><trkpt lat="42.5060622" lon="5.4966391"><ele>0.0</ele><time>2026-04-30T18:22:33.093Z</time></trkpt><trkpt lat="42.50615" lon="5.4969243"><ele>0.0</ele><time>2026-04-30T18:22:37.093Z</time></trkpt><trkpt lat="42.506196" lon="5.4970622"><ele>0.0</ele><time>2026-04-30T18:22:39.093Z</time></trkpt><trkpt lat="42.5062508" lon="5.4971991"><ele>0.0</ele><time>2026-04-30T18:22:41.093Z</time></trkpt><trkpt lat="42.5063052" lon="5.4973323"><ele>0.0</ele><time>2026-04-30T18:22:43.094Z</time></trkpt><trkpt lat="42.5063657" lon="5.4974573"><ele>0.0</ele><time>2026-04-30T18:22:45.093Z</time></trkpt><trkpt lat="42.5064259" lon="5.4975884"><ele>0.0</ele><time>2026-04-30T18:22:47.094Z</time></trkpt><trkpt lat="42.5064809" lon="5.4977235"><ele>0.0</ele><time>2026-04-30T18:22:49.093Z</time></trkpt><trkpt lat="42.5065291" lon="5.4978561"><ele>0.0</ele><time>2026-04-30T18:22:51.094Z</time></trkpt><trkpt lat="42.5065776" lon="5.4980013"><ele>0.0</ele><time>2026-04-30T18:22:53.093Z</time></trkpt><trkpt lat="42.5066284" lon="5.4981384"><ele>0.0</ele><time>2026-04-30T18:22:55.093Z</time></trkpt><trkpt lat="42.5067238" lon="5.4984063"><ele>0.0</ele><time>2026-04-30T18:22:59.094Z</time></trkpt><trkpt lat="42.5067816" lon="5.4985379"><ele>0.0</ele><time>2026-04-30T18:23:01.094Z</time></trkpt><trkpt lat="42.5068317" lon="5.4986751"><ele>0.0</ele><time>2026-04-30T18:23:03.093Z</time></trkpt><trkpt lat="42.5068863" lon="5.49881"><ele>0.0</ele><time>2026-04-30T18:23:05.094Z</time></trkpt><trkpt lat="42.5069371" lon="5.4989453"><ele>0.0</ele><time>2026-04-30T18:23:07.093Z</time></trkpt><trkpt lat="42.5069753" lon="5.4990866"><ele>0.0</ele><time>2026-04-30T18:23:09.093Z</time></trkpt><trkpt lat="42.5070235" lon="5.4992213"><ele>0.0</ele><time>2026-04-30T18:23:11.093Z</time></trkpt><trkpt lat="42.5070723" lon="5.4993564"><ele>0.0</ele><time>2026-04-30T18:23:13.093Z</time></trkpt><trkpt lat="42.5071144" lon="5.4994976"><ele>0.0</ele><time>2026-04-30T18:23:15.093Z</time></trkpt><trkpt lat="42.5071568" lon="5.4996412"><ele>0.0</ele><time>2026-04-30T18:23:17.094Z</time></trkpt><trkpt lat="42.5072413" lon="5.4999231"><ele>0.0</ele><time>2026-04-30T18:23:21.093Z</time></trkpt><trkpt lat="42.5072877" lon="5.5000658"><ele>0.0</ele><time>2026-04-30T18:23:23.093Z</time></trkpt><trkpt lat="42.5073344" lon="5.5002082"><ele>0.0</ele><time>2026-04-30T18:23:25.094Z</time></trkpt><trkpt lat="42.5073909" lon="5.5003383"><ele>0.0</ele><time>2026-04-30T18:23:27.093Z</time></trkpt><trkpt lat="42.5074369" lon="5.5004763"><ele>0.0</ele><time>2026-04-30T18:23:29.094Z</time></trkpt><trkpt lat="42.5074817" lon="5.5006164"><ele>0.0</ele><time>2026-04-30T18:23:31.094Z</time></trkpt><trkpt lat="42.5075393" lon="5.5007506"><ele>0.0</ele><time>2026-04-30T18:23:33.093Z</time></trkpt><trkpt lat="42.5075914" lon="5.5008822"><ele>0.0</ele><time>2026-04-30T18:23:35.093Z</time></trkpt><trkpt lat="42.507642" lon="5.5010165"><ele>0.0</ele><time>2026-04-30T18:23:37.094Z</time></trkpt><trkpt lat="42.5076881" lon="5.5011565"><ele>0.0</ele><time>2026-04-30T18:23:39.093Z</time></trkpt><trkpt lat="42.5077868" lon="5.5014315"><ele>0.0</ele><time>2026-04-30T18:23:43.092Z</time></trkpt><trkpt lat="42.5078258" lon="5.5015679"><ele>0.0</ele><time>2026-04-30T18:23:45.092Z</time></trkpt><trkpt lat="42.5078724" lon="5.5017051"><ele>0.0</ele><time>2026-04-30T18:23:47.092Z</time></trkpt><trkpt lat="42.5079334" lon="5.5018399"><ele>0.0</ele><time>2026-04-30T18:23:49.093Z</time></trkpt><trkpt lat="42.5079857" lon="5.5019796"><ele>0.0</ele><time>2026-04-30T18:23:51.092Z</time></trkpt><trkpt lat="42.5080384" lon="5.5021071"><ele>0.0</ele><time>2026-04-30T18:23:53.093Z</time></trkpt><trkpt lat="42.5080843" lon="5.5022416"><ele>0.0</ele><time>2026-04-30T18:23:55.092Z</time></trkpt><trkpt lat="42.5081368" lon="5.5023797"><ele>0.0</ele><time>2026-04-30T18:23:57.092Z</time></trkpt><trkpt lat="42.5081935" lon="5.5025165"><ele>0.0</ele><time>2026-04-30T18:23:59.093Z</time></trkpt><trkpt lat="42.5082934" lon="5.5027983"><ele>0.0</ele><time>2026-04-30T18:24:03.093Z</time></trkpt><trkpt lat="42.5083447" lon="5.502932"><ele>0.0</ele><time>2026-04-30T18:24:05.093Z</time></trkpt><trkpt lat="42.5083937" lon="5.5030673"><ele>0.0</ele><time>2026-04-30T18:24:07.092Z</time></trkpt><trkpt lat="42.5084428" lon="5.5032089"><ele>0.0</ele><time>2026-04-30T18:24:09.092Z</time></trkpt><trkpt lat="42.5084898" lon="5.5033488"><ele>0.0</ele><time>2026-04-30T18:24:11.093Z</time></trkpt><trkpt lat="42.5085286" lon="5.5034898"><ele>0.0</ele><time>2026-04-30T18:24:13.093Z</time></trkpt><trkpt lat="42.5085683" lon="5.5036281"><ele>0.0</ele><time>2026-04-30T18:24:15.092Z</time></trkpt><trkpt lat="42.508617" lon="5.5037633"><ele>0.0</ele><time>2026-04-30T18:24:17.093Z</time></trkpt><trkpt lat="42.5086555" lon="5.5039062"><ele>0.0</ele><time>2026-04-30T18:24:19.092Z</time></trkpt><trkpt lat="42.5087113" lon="5.5040433"><ele>0.0</ele><time>2026-04-30T18:24:21.092Z</time></trkpt><trkpt lat="42.5088235" lon="5.504312"><ele>0.0</ele><time>2026-04-30T18:24:25.092Z</time></trkpt><trkpt lat="42.5088687" lon="5.5044484"><ele>0.0</ele><time>2026-04-30T18:24:27.093Z</time></trkpt><trkpt lat="42.5089098" lon="5.5045899"><ele>0.0</ele><time>2026-04-30T18:24:29.092Z</time></trkpt><trkpt lat="42.5089505" lon="5.5047324"><ele>0.0</ele><time>2026-04-30T18:24:31.092Z</time></trkpt><trkpt lat="42.5089956" lon="5.5048599"><ele>0.0</ele><time>2026-04-30T18:24:33.092Z</time></trkpt><trkpt lat="42.5090403" lon="5.504995"><ele>0.0</ele><time>2026-04-30T18:24:35.093Z</time></trkpt><trkpt lat="42.5090886" lon="5.5051356"><ele>0.0</ele><time>2026-04-30T18:24:37.092Z</time></trkpt><trkpt lat="42.5091383" lon="5.5052747"><ele>0.0</ele><time>2026-04-30T18:24:39.092Z</time></trkpt><trkpt lat="42.509184" lon="5.5054225"><ele>0.0</ele><time>2026-04-30T18:24:41.092Z</time></trkpt><trkpt lat="42.5092273" lon="5.5055622"><ele>0.0</ele><time>2026-04-30T18:24:43.092Z</time></trkpt><trkpt lat="42.5093443" lon="5.5058353"><ele>0.0</ele><time>2026-04-30T18:24:47.093Z</time></trkpt><trkpt lat="42.5094104" lon="5.5059703"><ele>0.0</ele><time>2026-04-30T18:24:49.093Z</time></trkpt><trkpt lat="42.5094556" lon="5.5061045"><ele>0.0</ele><time>2026-04-30T18:24:51.092Z</time></trkpt><trkpt lat="42.5095045" lon="5.5062391"><ele>0.0</ele><time>2026-04-30T18:24:53.093Z</time></trkpt><trkpt lat="42.509552" lon="5.5063796"><ele>0.0</ele><time>2026-04-30T18:24:55.093Z</time></trkpt><trkpt lat="42.5095983" lon="5.5065136"><ele>0.0</ele><time>2026-04-30T18:24:57.093Z</time></trkpt><trkpt lat="42.5096507" lon="5.5066501"><ele>0.0</ele><time>2026-04-30T18:24:59.093Z</time></trkpt><trkpt lat="42.5097026" lon="5.5067901"><ele>0.0</ele><time>2026-04-30T18:25:01.092Z</time></trkpt><trkpt lat="42.5097468" lon="5.5069299"><ele>0.0</ele><time>2026-04-30T18:25:03.092Z</time></trkpt><trkpt lat="42.5098628" lon="5.5071951"><ele>0.0</ele><time>2026-04-30T18:25:07.092Z</time></trkpt><trkpt lat="42.5099187" lon="5.5073351"><ele>0.0</ele><time>2026-04-30T18:25:09.092Z</time></trkpt><trkpt lat="42.5099768" lon="5.5074724"><ele>0.0</ele><time>2026-04-30T18:25:11.092Z</time></trkpt><trkpt lat="42.5100232" lon="5.5076085"><ele>0.0</ele><time>2026-04-30T18:25:13.092Z</time></trkpt><trkpt lat="42.5100732" lon="5.5077437"><ele>0.0</ele><time>2026-04-30T18:25:15.092Z</time></trkpt><trkpt lat="42.5101171" lon="5.5078877"><ele>0.0</ele><time>2026-04-30T18:25:17.093Z</time></trkpt><trkpt lat="42.5101607" lon="5.5080346"><ele>0.0</ele><time>2026-04-30T18:25:19.092Z</time></trkpt><trkpt lat="42.5102048" lon="5.5081731"><ele>0.0</ele><time>2026-04-30T18:25:21.092Z</time></trkpt><trkpt lat="42.5102533" lon="5.5083088"><ele>0.0</ele><time>2026-04-30T18:25:23.093Z</time></trkpt><trkpt lat="42.5103038" lon="5.5084418"><ele>0.0</ele><time>2026-04-30T18:25:25.093Z</time></trkpt><trkpt lat="42.5103957" lon="5.5087111"><ele>0.0</ele><time>2026-04-30T18:25:29.093Z</time></trkpt><trkpt lat="42.5104369" lon="5.5088518"><ele>0.0</ele><time>2026-04-30T18:25:31.092Z</time></trkpt><trkpt lat="42.5104808" lon="5.508988"><ele>0.0</ele><time>2026-04-30T18:25:33.092Z</time></trkpt><trkpt lat="42.5105392" lon="5.5091176"><ele>0.0</ele><time>2026-04-30T18:25:35.093Z</time></trkpt><trkpt lat="42.5105915" lon="5.5092534"><ele>0.0</ele><time>2026-04-30T18:25:37.093Z</time></trkpt><trkpt lat="42.5106497" lon="5.5093872"><ele>0.0</ele><time>2026-04-30T18:25:39.092Z</time></trkpt><trkpt lat="42.5106916" lon="5.5095295"><ele>0.0</ele><time>2026-04-30T18:25:41.093Z</time></trkpt><trkpt lat="42.5107372" lon="5.5096714"><ele>0.0</ele><time>2026-04-30T18:25:43.093Z</time></trkpt><trkpt lat="42.5107832" lon="5.5098061"><ele>0.0</ele><time>2026-04-30T18:25:45.093Z</time></trkpt><trkpt lat="42.5108345" lon="5.5099391"><ele>0.0</ele><time>2026-04-30T18:25:47.093Z</time></trkpt><trkpt lat="42.510932" lon="5.5102095"><ele>0.0</ele><time>2026-04-30T18:25:51.092Z</time></trkpt><trkpt lat="42.5109637" lon="5.5103532"><ele>0.0</ele><time>2026-04-30T18:25:53.093Z</time></trkpt><trkpt lat="42.5110168" lon="5.5104898"><ele>0.0</ele><time>2026-04-30T18:25:55.092Z</time></trkpt><trkpt lat="42.5110617" lon="5.5106343"><ele>0.0</ele><time>2026-04-30T18:25:57.092Z</time></trkpt><trkpt lat="42.5111084" lon="5.5107831"><ele>0.0</ele><time>2026-04-30T18:25:59.093Z</time></trkpt><trkpt lat="42.5111571" lon="5.5109214"><ele>0.0</ele><time>2026-04-30T18:26:01.092Z</time></trkpt><trkpt lat="42.5112103" lon="5.5110566"><ele>0.0</ele><time>2026-04-30T18:26:03.092Z</time></trkpt><trkpt lat="42.5112676" lon="5.5111935"><ele>0.0</ele><time>2026-04-30T18:26:05.093Z</time></trkpt><trkpt lat="42.5113176" lon="5.5113319"><ele>0.0</ele><time>2026-04-30T18:26:07.092Z</time></trkpt><trkpt lat="42.5114239" lon="5.5115979"><ele>0.0</ele><time>2026-04-30T18:26:11.092Z</time></trkpt><trkpt lat="42.5114642" lon="5.5117366"><ele>0.0</ele><time>2026-04-30T18:26:13.092Z</time></trkpt><trkpt lat="42.5115143" lon="5.51187"><ele>0.0</ele><time>2026-04-30T18:26:15.093Z</time></trkpt><trkpt lat="42.5115476" lon="5.5120111"><ele>0.0</ele><time>2026-04-30T18:26:17.092Z</time></trkpt><trkpt lat="42.5115932" lon="5.5121495"><ele>0.0</ele><time>2026-04-30T18:26:19.092Z</time></trkpt><trkpt lat="42.5116396" lon="5.5122899"><ele>0.0</ele><time>2026-04-30T18:26:21.092Z</time></trkpt><trkpt lat="42.5116884" lon="5.5124264"><ele>0.0</ele><time>2026-04-30T18:26:23.092Z</time></trkpt><trkpt lat="42.5117395" lon="5.5125651"><ele>0.0</ele><time>2026-04-30T18:26:25.093Z</time></trkpt><trkpt lat="42.5117879" lon="5.512705"><ele>0.0</ele><time>2026-04-30T18:26:27.092Z</time></trkpt><trkpt lat="42.5118399" lon="5.5128416"><ele>0.0</ele><time>2026-04-30T18:26:29.092Z</time></trkpt><trkpt lat="42.5119513" lon="5.5131036"><ele>0.0</ele><time>2026-04-30T18:26:33.093Z</time></trkpt><trkpt lat="42.5120028" lon="5.5132398"><ele>0.0</ele><time>2026-04-30T18:26:35.092Z</time></trkpt><trkpt lat="42.5120482" lon="5.5133797"><ele>0.0</ele><time>2026-04-30T18:26:37.092Z</time></trkpt><trkpt lat="42.5120943" lon="5.5135187"><ele>0.0</ele><time>2026-04-30T18:26:39.093Z</time></trkpt><trkpt lat="42.512149" lon="5.5136474"><ele>0.0</ele><time>2026-04-30T18:26:41.092Z</time></trkpt><trkpt lat="42.5122077" lon="5.5137737"><ele>0.0</ele><time>2026-04-30T18:26:43.092Z</time></trkpt><trkpt lat="42.5122571" lon="5.5139091"><ele>0.0</ele><time>2026-04-30T18:26:45.092Z</time></trkpt><trkpt lat="42.512305" lon="5.5140384"><ele>0.0</ele><time>2026-04-30T18:26:47.093Z</time></trkpt><trkpt lat="42.5123578" lon="5.5141733"><ele>0.0</ele><time>2026-04-30T18:26:49.092Z</time></trkpt><trkpt lat="42.5124051" lon="5.5143035"><ele>0.0</ele><time>2026-04-30T18:26:51.092Z</time></trkpt><trkpt lat="42.5124966" lon="5.5145845"><ele>0.0</ele><time>2026-04-30T18:26:55.093Z</time></trkpt><trkpt lat="42.5125485" lon="5.5147245"><ele>0.0</ele><time>2026-04-30T18:26:57.093Z</time></trkpt><trkpt lat="42.5125983" lon="5.5148598"><ele>0.0</ele><time>2026-04-30T18:26:59.093Z</time></trkpt><trkpt lat="42.5126545" lon="5.5149898"><ele>0.0</ele><time>2026-04-30T18:27:01.092Z</time></trkpt><trkpt lat="42.512708" lon="5.5151227"><ele>0.0</ele><time>2026-04-30T18:27:03.092Z</time></trkpt><trkpt lat="42.5127668" lon="5.5152614"><ele>0.0</ele><time>2026-04-30T18:27:05.093Z</time></trkpt><trkpt lat="42.5128072" lon="5.5154118"><ele>0.0</ele><time>2026-04-30T18:27:07.092Z</time></trkpt><trkpt lat="42.5128638" lon="5.5155502"><ele>0.0</ele><time>2026-04-30T18:27:09.092Z</time></trkpt><trkpt lat="42.5128985" lon="5.5156881"><ele>0.0</ele><time>2026-04-30T18:27:11.092Z</time></trkpt><trkpt lat="42.5129816" lon="5.5159616"><ele>0.0</ele><time>2026-04-30T18:27:15.092Z</time></trkpt><trkpt lat="42.5130231" lon="5.5161051"><ele>0.0</ele><time>2026-04-30T18:27:17.092Z</time></trkpt><trkpt lat="42.5130743" lon="5.5162415"><ele>0.0</ele><time>2026-04-30T18:27:19.092Z</time></trkpt><trkpt lat="42.5131327" lon="5.5163717"><ele>0.0</ele><time>2026-04-30T18:27:21.093Z</time></trkpt><trkpt lat="42.5131865" lon="5.5165036"><ele>0.0</ele><time>2026-04-30T18:27:23.093Z</time></trkpt><trkpt lat="42.51324" lon="5.5166431"><ele>0.0</ele><time>2026-04-30T18:27:25.092Z</time></trkpt><trkpt lat="42.5132874" lon="5.5167941"><ele>0.0</ele><time>2026-04-30T18:27:27.092Z</time></trkpt><trkpt lat="42.513331" lon="5.5169285"><ele>0.0</ele><time>2026-04-30T18:27:29.092Z</time></trkpt><trkpt lat="42.513378" lon="5.5170592"><ele>0.0</ele><time>2026-04-30T18:27:31.093Z</time></trkpt><trkpt lat="42.5134236" lon="5.5172008"><ele>0.0</ele><time>2026-04-30T18:27:33.092Z</time></trkpt><trkpt lat="42.5135268" lon="5.5174849"><ele>0.0</ele><time>2026-04-30T18:27:37.093Z</time></trkpt><trkpt lat="42.5135778" lon="5.5176218"><ele>0.0</ele><time>2026-04-30T18:27:39.092Z</time></trkpt><trkpt lat="42.5136288" lon="5.5177584"><ele>0.0</ele><time>2026-04-30T18:27:41.092Z</time></trkpt><trkpt lat="42.5137049" lon="5.5179548"><ele>0.0</ele><time>2026-04-30T18:27:44.093Z</time></trkpt><trkpt lat="42.5137502" lon="5.5180943"><ele>0.0</ele><time>2026-04-30T18:27:46.092Z</time></trkpt><trkpt lat="42.5138002" lon="5.5182317"><ele>0.0</ele><time>2026-04-30T18:27:48.092Z</time></trkpt><trkpt lat="42.5138432" lon="5.5183683"><ele>0.0</ele><time>2026-04-30T18:27:50.092Z</time></trkpt><trkpt lat="42.5138947" lon="5.5185051"><ele>0.0</ele><time>2026-04-30T18:27:52.093Z</time></trkpt><trkpt lat="42.513946" lon="5.5186418"><ele>0.0</ele><time>2026-04-30T18:27:54.092Z</time></trkpt><trkpt lat="42.5140382" lon="5.5189181"><ele>0.0</ele><time>2026-04-30T18:27:58.092Z</time></trkpt><trkpt lat="42.5140875" lon="5.5190596"><ele>0.0</ele><time>2026-04-30T18:28:00.092Z</time></trkpt><trkpt lat="42.5141429" lon="5.5191983"><ele>0.0</ele><time>2026-04-30T18:28:02.092Z</time></trkpt><trkpt lat="42.5141979" lon="5.5193368"><ele>0.0</ele><time>2026-04-30T18:28:04.093Z</time></trkpt><trkpt lat="42.5142467" lon="5.5194722"><ele>0.0</ele><time>2026-04-30T18:28:06.093Z</time></trkpt><trkpt lat="42.514293" lon="5.5196047"><ele>0.0</ele><time>2026-04-30T18:28:08.093Z</time></trkpt><trkpt lat="42.5143352" lon="5.5197336"><ele>0.0</ele><time>2026-04-30T18:28:10.093Z</time></trkpt><trkpt lat="42.5143869" lon="5.5198684"><ele>0.0</ele><time>2026-04-30T18:28:12.092Z</time></trkpt><trkpt lat="42.5144443" lon="5.5200037"><ele>0.0</ele><time>2026-04-30T18:28:14.092Z</time></trkpt><trkpt lat="42.5145332" lon="5.5202102"><ele>0.0</ele><time>2026-04-30T18:28:17.092Z</time></trkpt><trkpt lat="42.5146432" lon="5.5204868"><ele>0.0</ele><time>2026-04-30T18:28:21.092Z</time></trkpt><trkpt lat="42.514681" lon="5.5206233"><ele>0.0</ele><time>2026-04-30T18:28:23.092Z</time></trkpt><trkpt lat="42.5147317" lon="5.5207486"><ele>0.0</ele><time>2026-04-30T18:28:25.092Z</time></trkpt><trkpt lat="42.5147767" lon="5.5208816"><ele>0.0</ele><time>2026-04-30T18:28:27.093Z</time></trkpt><trkpt lat="42.5148226" lon="5.5210199"><ele>0.0</ele><time>2026-04-30T18:28:29.092Z</time></trkpt><trkpt lat="42.514865" lon="5.5211601"><ele>0.0</ele><time>2026-04-30T18:28:31.093Z</time></trkpt><trkpt lat="42.5149013" lon="5.5212991"><ele>0.0</ele><time>2026-04-30T18:28:33.093Z</time></trkpt><trkpt lat="42.5149319" lon="5.5214462"><ele>0.0</ele><time>2026-04-30T18:28:35.092Z</time></trkpt><trkpt lat="42.5149664" lon="5.5215896"><ele>0.0</ele><time>2026-04-30T18:28:37.092Z</time></trkpt><trkpt lat="42.5150133" lon="5.5217362"><ele>0.0</ele><time>2026-04-30T18:28:39.093Z</time></trkpt><trkpt lat="42.5151055" lon="5.5220065"><ele>0.0</ele><time>2026-04-30T18:28:43.092Z</time></trkpt><trkpt lat="42.5151594" lon="5.5221435"><ele>0.0</ele><time>2026-04-30T18:28:45.093Z</time></trkpt><trkpt lat="42.5152214" lon="5.5222769"><ele>0.0</ele><time>2026-04-30T18:28:47.092Z</time></trkpt><trkpt lat="42.5152615" lon="5.5224139"><ele>0.0</ele><time>2026-04-30T18:28:49.092Z</time></trkpt><trkpt lat="42.5153061" lon="5.5225545"><ele>0.0</ele><time>2026-04-30T18:28:51.092Z</time></trkpt><trkpt lat="42.5153466" lon="5.5226916"><ele>0.0</ele><time>2026-04-30T18:28:53.092Z</time></trkpt><trkpt lat="42.5153877" lon="5.5228333"><ele>0.0</ele><time>2026-04-30T18:28:55.093Z</time></trkpt><trkpt lat="42.5154443" lon="5.522974"><ele>0.0</ele><time>2026-04-30T18:28:57.092Z</time></trkpt><trkpt lat="42.5155012" lon="5.5231131"><ele>0.0</ele><time>2026-04-30T18:28:59.092Z</time></trkpt><trkpt lat="42.5155516" lon="5.5232535"><ele>0.0</ele><time>2026-04-30T18:29:01.093Z</time></trkpt><trkpt lat="42.5156682" lon="5.5235253"><ele>0.0</ele><time>2026-04-30T18:29:05.093Z</time></trkpt><trkpt lat="42.5157209" lon="5.5236609"><ele>0.0</ele><time>2026-04-30T18:29:07.092Z</time></trkpt><trkpt lat="42.5157772" lon="5.523795"><ele>0.0</ele><time>2026-04-30T18:29:09.092Z</time></trkpt><trkpt lat="42.5158128" lon="5.523935"><ele>0.0</ele><time>2026-04-30T18:29:11.093Z</time></trkpt><trkpt lat="42.515862" lon="5.5240634"><ele>0.0</ele><time>2026-04-30T18:29:13.091Z</time></trkpt><trkpt lat="42.5159171" lon="5.524197"><ele>0.0</ele><time>2026-04-30T18:29:15.092Z</time></trkpt><trkpt lat="42.5159713" lon="5.5243286"><ele>0.0</ele><time>2026-04-30T18:29:17.091Z</time></trkpt><trkpt lat="42.5160159" lon="5.524465"><ele>0.0</ele><time>2026-04-30T18:29:19.092Z</time></trkpt><trkpt lat="42.516063" lon="5.5246003"><ele>0.0</ele><time>2026-04-30T18:29:21.092Z</time></trkpt><trkpt lat="42.5161175" lon="5.5247332"><ele>0.0</ele><time>2026-04-30T18:29:23.091Z</time></trkpt><trkpt lat="42.5162154" lon="5.5250149"><ele>0.0</ele><time>2026-04-30T18:29:27.091Z</time></trkpt><trkpt lat="42.5162528" lon="5.5251518"><ele>0.0</ele><time>2026-04-30T18:29:29.091Z</time></trkpt><trkpt lat="42.5162951" lon="5.5252807"><ele>0.0</ele><time>2026-04-30T18:29:31.092Z</time></trkpt><trkpt lat="42.5163443" lon="5.5254101"><ele>0.0</ele><time>2026-04-30T18:29:33.092Z</time></trkpt><trkpt lat="42.5164046" lon="5.5255419"><ele>0.0</ele><time>2026-04-30T18:29:35.091Z</time></trkpt><trkpt lat="42.5164559" lon="5.5256752"><ele>0.0</ele><time>2026-04-30T18:29:37.091Z</time></trkpt><trkpt lat="42.5165022" lon="5.5258145"><ele>0.0</ele><time>2026-04-30T18:29:39.091Z</time></trkpt><trkpt lat="42.5165546" lon="5.525952"><ele>0.0</ele><time>2026-04-30T18:29:41.091Z</time></trkpt><trkpt lat="42.5166012" lon="5.5260904"><ele>0.0</ele><time>2026-04-30T18:29:43.092Z</time></trkpt><trkpt lat="42.516644" lon="5.5262329"><ele>0.0</ele><time>2026-04-30T18:29:45.091Z</time></trkpt><trkpt lat="42.5167215" lon="5.5265051"><ele>0.0</ele><time>2026-04-30T18:29:49.092Z</time></trkpt><trkpt lat="42.5167626" lon="5.5266337"><ele>0.0</ele><time>2026-04-30T18:29:51.092Z</time></trkpt><trkpt lat="42.5168026" lon="5.5267651"><ele>0.0</ele><time>2026-04-30T18:29:53.091Z</time></trkpt><trkpt lat="42.5168473" lon="5.5269004"><ele>0.0</ele><time>2026-04-30T18:29:55.091Z</time></trkpt><trkpt lat="42.5168797" lon="5.5270414"><ele>0.0</ele><time>2026-04-30T18:29:57.092Z</time></trkpt><trkpt lat="42.5169184" lon="5.5271875"><ele>0.0</ele><time>2026-04-30T18:29:59.092Z</time></trkpt><trkpt lat="42.5169698" lon="5.5273252"><ele>0.0</ele><time>2026-04-30T18:30:01.092Z</time></trkpt><trkpt lat="42.5170219" lon="5.5274616"><ele>0.0</ele><time>2026-04-30T18:30:03.091Z</time></trkpt><trkpt lat="42.5170767" lon="5.5275971"><ele>0.0</ele><time>2026-04-30T18:30:05.091Z</time></trkpt><trkpt lat="42.5171279" lon="5.5277319"><ele>0.0</ele><time>2026-04-30T18:30:07.092Z</time></trkpt><trkpt lat="42.5172438" lon="5.5279921"><ele>0.0</ele><time>2026-04-30T18:30:11.091Z</time></trkpt><trkpt lat="42.5172915" lon="5.5281299"><ele>0.0</ele><time>2026-04-30T18:30:13.091Z</time></trkpt><trkpt lat="42.5173409" lon="5.5282714"><ele>0.0</ele><time>2026-04-30T18:30:15.091Z</time></trkpt><trkpt lat="42.5173834" lon="5.5284163"><ele>0.0</ele><time>2026-04-30T18:30:17.091Z</time></trkpt><trkpt lat="42.5174337" lon="5.5285551"><ele>0.0</ele><time>2026-04-30T18:30:19.092Z</time></trkpt><trkpt lat="42.517479" lon="5.5286993"><ele>0.0</ele><time>2026-04-30T18:30:21.092Z</time></trkpt><trkpt lat="42.5175237" lon="5.5288365"><ele>0.0</ele><time>2026-04-30T18:30:23.092Z</time></trkpt><trkpt lat="42.5175736" lon="5.5289735"><ele>0.0</ele><time>2026-04-30T18:30:25.092Z</time></trkpt><trkpt lat="42.5176199" lon="5.5291149"><ele>0.0</ele><time>2026-04-30T18:30:27.091Z</time></trkpt><trkpt lat="42.5176746" lon="5.5292501"><ele>0.0</ele><time>2026-04-30T18:30:29.092Z</time></trkpt><trkpt lat="42.5177806" lon="5.5295236"><ele>0.0</ele><time>2026-04-30T18:30:33.092Z</time></trkpt><trkpt lat="42.51783" lon="5.5296571"><ele>0.0</ele><time>2026-04-30T18:30:35.091Z</time></trkpt><trkpt lat="42.5178849" lon="5.5297887"><ele>0.0</ele><time>2026-04-30T18:30:37.091Z</time></trkpt><trkpt lat="42.5179266" lon="5.5299306"><ele>0.0</ele><time>2026-04-30T18:30:39.091Z</time></trkpt><trkpt lat="42.5179833" lon="5.5300588"><ele>0.0</ele><time>2026-04-30T18:30:41.091Z</time></trkpt><trkpt lat="42.518025" lon="5.5301935"><ele>0.0</ele><time>2026-04-30T18:30:43.092Z</time></trkpt><trkpt lat="42.5180667" lon="5.5303297"><ele>0.0</ele><time>2026-04-30T18:30:45.091Z</time></trkpt><trkpt lat="42.5181112" lon="5.5304655"><ele>0.0</ele><time>2026-04-30T18:30:47.091Z</time></trkpt><trkpt lat="42.5181561" lon="5.5305973"><ele>0.0</ele><time>2026-04-30T18:30:49.091Z</time></trkpt><trkpt lat="42.5182037" lon="5.5307203"><ele>0.0</ele><time>2026-04-30T18:30:51.091Z</time></trkpt><trkpt lat="42.5182834" lon="5.530993"><ele>0.0</ele><time>2026-04-30T18:30:55.091Z</time></trkpt><trkpt lat="42.5183315" lon="5.5311324"><ele>0.0</ele><time>2026-04-30T18:30:57.091Z</time></trkpt><trkpt lat="42.5183799" lon="5.5312741"><ele>0.0</ele><time>2026-04-30T18:30:59.091Z</time></trkpt><trkpt lat="42.5184388" lon="5.5314052"><ele>0.0</ele><time>2026-04-30T18:31:01.091Z</time></trkpt><trkpt lat="42.5184837" lon="5.5315409"><ele>0.0</ele><time>2026-04-30T18:31:03.091Z</time></trkpt><trkpt lat="42.5185328" lon="5.5316815"><ele>0.0</ele><time>2026-04-30T18:31:05.091Z</time></trkpt><trkpt lat="42.5185861" lon="5.5318183"><ele>0.0</ele><time>2026-04-30T18:31:07.091Z</time></trkpt><trkpt lat="42.5186478" lon="5.5319566"><ele>0.0</ele><time>2026-04-30T18:31:09.091Z</time></trkpt><trkpt lat="42.518699" lon="5.5320876"><ele>0.0</ele><time>2026-04-30T18:31:11.091Z</time></trkpt><trkpt lat="42.5187538" lon="5.5322171"><ele>0.0</ele><time>2026-04-30T18:31:13.091Z</time></trkpt><trkpt lat="42.518864" lon="5.532487"><ele>0.0</ele><time>2026-04-30T18:31:17.091Z</time></trkpt><trkpt lat="42.5189182" lon="5.5326217"><ele>0.0</ele><time>2026-04-30T18:31:19.091Z</time></trkpt><trkpt lat="42.5189671" lon="5.5327564"><ele>0.0</ele><time>2026-04-30T18:31:21.092Z</time></trkpt><trkpt lat="42.5190136" lon="5.5328991"><ele>0.0</ele><time>2026-04-30T18:31:23.092Z</time></trkpt><trkpt lat="42.5190651" lon="5.5330396"><ele>0.0</ele><time>2026-04-30T18:31:25.091Z</time></trkpt><trkpt lat="42.5191113" lon="5.5331795"><ele>0.0</ele><time>2026-04-30T18:31:27.092Z</time></trkpt><trkpt lat="42.5191577" lon="5.5333182"><ele>0.0</ele><time>2026-04-30T18:31:29.092Z</time></trkpt><trkpt lat="42.5191998" lon="5.5334504"><ele>0.0</ele><time>2026-04-30T18:31:31.092Z</time></trkpt><trkpt lat="42.5192482" lon="5.5335773"><ele>0.0</ele><time>2026-04-30T18:31:33.092Z</time></trkpt><trkpt lat="42.5192992" lon="5.5337106"><ele>0.0</ele><time>2026-04-30T18:31:35.092Z</time></trkpt><trkpt lat="42.5193968" lon="5.5339785"><ele>0.0</ele><time>2026-04-30T18:31:39.092Z</time></trkpt><trkpt lat="42.5194541" lon="5.5341114"><ele>0.0</ele><time>2026-04-30T18:31:41.092Z</time></trkpt><trkpt lat="42.5194965" lon="5.5342406"><ele>0.0</ele><time>2026-04-30T18:31:43.092Z</time></trkpt><trkpt lat="42.5195579" lon="5.5343716"><ele>0.0</ele><time>2026-04-30T18:31:45.092Z</time></trkpt><trkpt lat="42.5196084" lon="5.534511"><ele>0.0</ele><time>2026-04-30T18:31:47.092Z</time></trkpt><trkpt lat="42.5196524" lon="5.5346525"><ele>0.0</ele><time>2026-04-30T18:31:49.092Z</time></trkpt><trkpt lat="42.5197002" lon="5.5347945"><ele>0.0</ele><time>2026-04-30T18:31:51.091Z</time></trkpt><trkpt lat="42.5197552" lon="5.5349272"><ele>0.0</ele><time>2026-04-30T18:31:53.091Z</time></trkpt><trkpt lat="42.5198081" lon="5.5350599"><ele>0.0</ele><time>2026-04-30T18:31:55.091Z</time></trkpt><trkpt lat="42.5198562" lon="5.5352"><ele>0.0</ele><time>2026-04-30T18:31:57.091Z</time></trkpt><trkpt lat="42.5199467" lon="5.5354734"><ele>0.0</ele><time>2026-04-30T18:32:01.091Z</time></trkpt><trkpt lat="42.5199925" lon="5.5356094"><ele>0.0</ele><time>2026-04-30T18:32:03.092Z</time></trkpt><trkpt lat="42.5200307" lon="5.535751"><ele>0.0</ele><time>2026-04-30T18:32:05.091Z</time></trkpt><trkpt lat="42.520078" lon="5.5358967"><ele>0.0</ele><time>2026-04-30T18:32:07.091Z</time></trkpt><trkpt lat="42.5201308" lon="5.5360294"><ele>0.0</ele><time>2026-04-30T18:32:09.091Z</time></trkpt><trkpt lat="42.5201831" lon="5.5361585"><ele>0.0</ele><time>2026-04-30T18:32:11.092Z</time></trkpt><trkpt lat="42.5202316" lon="5.5362933"><ele>0.0</ele><time>2026-04-30T18:32:13.091Z</time></trkpt><trkpt lat="42.5202872" lon="5.53643"><ele>0.0</ele><time>2026-04-30T18:32:15.091Z</time></trkpt><trkpt lat="42.52034" lon="5.5365584"><ele>0.0</ele><time>2026-04-30T18:32:17.092Z</time></trkpt><trkpt lat="42.5203894" lon="5.5366967"><ele>0.0</ele><time>2026-04-30T18:32:19.091Z</time></trkpt><trkpt lat="42.5204916" lon="5.5369665"><ele>0.0</ele><time>2026-04-30T18:32:23.091Z</time></trkpt><trkpt lat="42.5205403" lon="5.5371061"><ele>0.0</ele><time>2026-04-30T18:32:25.091Z</time></trkpt><trkpt lat="42.5205841" lon="5.5372432"><ele>0.0</ele><time>2026-04-30T18:32:27.092Z</time></trkpt><trkpt lat="42.5206284" lon="5.5373771"><ele>0.0</ele><time>2026-04-30T18:32:29.092Z</time></trkpt><trkpt lat="42.5206692" lon="5.5375099"><ele>0.0</ele><time>2026-04-30T18:32:31.091Z</time></trkpt><trkpt lat="42.520706" lon="5.5376497"><ele>0.0</ele><time>2026-04-30T18:32:33.092Z</time></trkpt><trkpt lat="42.5207432" lon="5.5377933"><ele>0.0</ele><time>2026-04-30T18:32:35.091Z</time></trkpt><trkpt lat="42.5207884" lon="5.5379317"><ele>0.0</ele><time>2026-04-30T18:32:37.091Z</time></trkpt><trkpt lat="42.5208354" lon="5.5380668"><ele>0.0</ele><time>2026-04-30T18:32:39.091Z</time></trkpt><trkpt lat="42.5208833" lon="5.538205"><ele>0.0</ele><time>2026-04-30T18:32:41.091Z</time></trkpt><trkpt lat="42.5209884" lon="5.5384705"><ele>0.0</ele><time>2026-04-30T18:32:45.092Z</time></trkpt><trkpt lat="42.5210368" lon="5.5386053"><ele>0.0</ele><time>2026-04-30T18:32:47.092Z</time></trkpt><trkpt lat="42.5210851" lon="5.5387388"><ele>0.0</ele><time>2026-04-30T18:32:49.091Z</time></trkpt><trkpt lat="42.521139" lon="5.5388651"><ele>0.0</ele><time>2026-04-30T18:32:51.092Z</time></trkpt><trkpt lat="42.5211873" lon="5.5390015"><ele>0.0</ele><time>2026-04-30T18:32:53.091Z</time></trkpt><trkpt lat="42.5212241" lon="5.5391401"><ele>0.0</ele><time>2026-04-30T18:32:55.091Z</time></trkpt><trkpt lat="42.5212533" lon="5.5392782"><ele>0.0</ele><time>2026-04-30T18:32:57.091Z</time></trkpt><trkpt lat="42.5212979" lon="5.5394154"><ele>0.0</ele><time>2026-04-30T18:32:59.092Z</time></trkpt><trkpt lat="42.5213373" lon="5.5395606"><ele>0.0</ele><time>2026-04-30T18:33:01.092Z</time></trkpt><trkpt lat="42.5213828" lon="5.5396981"><ele>0.0</ele><time>2026-04-30T18:33:03.091Z</time></trkpt><trkpt lat="42.5214791" lon="5.5399612"><ele>0.0</ele><time>2026-04-30T18:33:07.091Z</time></trkpt><trkpt lat="42.521525" lon="5.5400923"><ele>0.0</ele><time>2026-04-30T18:33:09.092Z</time></trkpt><trkpt lat="42.5215711" lon="5.5402238"><ele>0.0</ele><time>2026-04-30T18:33:11.091Z</time></trkpt><trkpt lat="42.52161" lon="5.54036"><ele>0.0</ele><time>2026-04-30T18:33:13.092Z</time></trkpt><trkpt lat="42.5216644" lon="5.5404981"><ele>0.0</ele><time>2026-04-30T18:33:15.091Z</time></trkpt><trkpt lat="42.521713" lon="5.5406366"><ele>0.0</ele><time>2026-04-30T18:33:17.092Z</time></trkpt><trkpt lat="42.5217666" lon="5.5407728"><ele>0.0</ele><time>2026-04-30T18:33:19.091Z</time></trkpt><trkpt lat="42.5218144" lon="5.5409101"><ele>0.0</ele><time>2026-04-30T18:33:21.091Z</time></trkpt><trkpt lat="42.5218661" lon="5.5410451"><ele>0.0</ele><time>2026-04-30T18:33:23.092Z</time></trkpt><trkpt lat="42.5219182" lon="5.541182"><ele>0.0</ele><time>2026-04-30T18:33:25.092Z</time></trkpt><trkpt lat="42.5220311" lon="5.5414464"><ele>0.0</ele><time>2026-04-30T18:33:29.091Z</time></trkpt><trkpt lat="42.5220792" lon="5.5415852"><ele>0.0</ele><time>2026-04-30T18:33:31.091Z</time></trkpt><trkpt lat="42.5221255" lon="5.5417205"><ele>0.0</ele><time>2026-04-30T18:33:33.092Z</time></trkpt><trkpt lat="42.5221737" lon="5.5418554"><ele>0.0</ele><time>2026-04-30T18:33:35.091Z</time></trkpt><trkpt lat="42.5222251" lon="5.5419896"><ele>0.0</ele><time>2026-04-30T18:33:37.092Z</time></trkpt><trkpt lat="42.5222737" lon="5.5421299"><ele>0.0</ele><time>2026-04-30T18:33:39.091Z</time></trkpt><trkpt lat="42.5223218" lon="5.5422652"><ele>0.0</ele><time>2026-04-30T18:33:41.091Z</time></trkpt><trkpt lat="42.5223684" lon="5.5424016"><ele>0.0</ele><time>2026-04-30T18:33:43.092Z</time></trkpt><trkpt lat="42.522416" lon="5.5425398"><ele>0.0</ele><time>2026-04-30T18:33:45.091Z</time></trkpt><trkpt lat="42.5224598" lon="5.5426698"><ele>0.0</ele><time>2026-04-30T18:33:47.091Z</time></trkpt><trkpt lat="42.5225647" lon="5.5429383"><ele>0.0</ele><time>2026-04-30T18:33:51.091Z</time></trkpt><trkpt lat="42.5226125" lon="5.5430772"><ele>0.0</ele><time>2026-04-30T18:33:53.091Z</time></trkpt><trkpt lat="42.5226601" lon="5.5432199"><ele>0.0</ele><time>2026-04-30T18:33:55.091Z</time></trkpt><trkpt lat="42.5227113" lon="5.5433537"><ele>0.0</ele><time>2026-04-30T18:33:57.092Z</time></trkpt><trkpt lat="42.5227632" lon="5.5434856"><ele>0.0</ele><time>2026-04-30T18:33:59.092Z</time></trkpt><trkpt lat="42.5228184" lon="5.5436151"><ele>0.0</ele><time>2026-04-30T18:34:01.092Z</time></trkpt><trkpt lat="42.5228727" lon="5.5437517"><ele>0.0</ele><time>2026-04-30T18:34:03.091Z</time></trkpt><trkpt lat="42.5229265" lon="5.5438868"><ele>0.0</ele><time>2026-04-30T18:34:05.091Z</time></trkpt><trkpt lat="42.5229798" lon="5.5440224"><ele>0.0</ele><time>2026-04-30T18:34:07.091Z</time></trkpt><trkpt lat="42.523043" lon="5.5441571"><ele>0.0</ele><time>2026-04-30T18:34:09.091Z</time></trkpt><trkpt lat="42.523128" lon="5.544424"><ele>0.0</ele><time>2026-04-30T18:34:13.091Z</time></trkpt><trkpt lat="42.5231765" lon="5.5445573"><ele>0.0</ele><time>2026-04-30T18:34:15.092Z</time></trkpt><trkpt lat="42.5232325" lon="5.54469"><ele>0.0</ele><time>2026-04-30T18:34:17.092Z</time></trkpt><trkpt lat="42.5232772" lon="5.5448277"><ele>0.0</ele><time>2026-04-30T18:34:19.091Z</time></trkpt><trkpt lat="42.5233097" lon="5.5449681"><ele>0.0</ele><time>2026-04-30T18:34:21.092Z</time></trkpt><trkpt lat="42.5233532" lon="5.5451003"><ele>0.0</ele><time>2026-04-30T18:34:23.091Z</time></trkpt><trkpt lat="42.5233949" lon="5.5452364"><ele>0.0</ele><time>2026-04-30T18:34:25.091Z</time></trkpt><trkpt lat="42.523443" lon="5.545375"><ele>0.0</ele><time>2026-04-30T18:34:27.091Z</time></trkpt><trkpt lat="42.5234948" lon="5.5455098"><ele>0.0</ele><time>2026-04-30T18:34:29.091Z</time></trkpt><trkpt lat="42.5235424" lon="5.5456417"><ele>0.0</ele><time>2026-04-30T18:34:31.092Z</time></trkpt><trkpt lat="42.5236436" lon="5.5459058"><ele>0.0</ele><time>2026-04-30T18:34:35.092Z</time></trkpt><trkpt lat="42.523697" lon="5.5460461"><ele>0.0</ele><time>2026-04-30T18:34:37.092Z</time></trkpt><trkpt lat="42.5237426" lon="5.5461822"><ele>0.0</ele><time>2026-04-30T18:34:39.091Z</time></trkpt><trkpt lat="42.5237793" lon="5.5463247"><ele>0.0</ele><time>2026-04-30T18:34:41.091Z</time></trkpt><trkpt lat="42.5238269" lon="5.5464603"><ele>0.0</ele><time>2026-04-30T18:34:43.09Z</time></trkpt><trkpt lat="42.5238719" lon="5.546595"><ele>0.0</ele><time>2026-04-30T18:34:45.09Z</time></trkpt><trkpt lat="42.5239185" lon="5.5467318"><ele>0.0</ele><time>2026-04-30T18:34:47.09Z</time></trkpt><trkpt lat="42.5239591" lon="5.5468731"><ele>0.0</ele><time>2026-04-30T18:34:49.091Z</time></trkpt><trkpt lat="42.5240052" lon="5.5470149"><ele>0.0</ele><time>2026-04-30T18:34:51.09Z</time></trkpt><trkpt lat="42.5240568" lon="5.5471453"><ele>0.0</ele><time>2026-04-30T18:34:53.09Z</time></trkpt><trkpt lat="42.5241582" lon="5.5474149"><ele>0.0</ele><time>2026-04-30T18:34:57.09Z</time></trkpt><trkpt lat="42.5242018" lon="5.54755"><ele>0.0</ele><time>2026-04-30T18:34:59.09Z</time></trkpt><trkpt lat="42.5242533" lon="5.5476866"><ele>0.0</ele><time>2026-04-30T18:35:01.091Z</time></trkpt><trkpt lat="42.5242984" lon="5.5478171"><ele>0.0</ele><time>2026-04-30T18:35:03.091Z</time></trkpt><trkpt lat="42.524352" lon="5.5479451"><ele>0.0</ele><time>2026-04-30T18:35:05.09Z</time></trkpt><trkpt lat="42.5244047" lon="5.5480753"><ele>0.0</ele><time>2026-04-30T18:35:07.091Z</time></trkpt><trkpt lat="42.5244513" lon="5.5482024"><ele>0.0</ele><time>2026-04-30T18:35:09.09Z</time></trkpt><trkpt lat="42.5244954" lon="5.5483378"><ele>0.0</ele><time>2026-04-30T18:35:11.09Z</time></trkpt><trkpt lat="42.5245421" lon="5.5484716"><ele>0.0</ele><time>2026-04-30T18:35:13.091Z</time></trkpt><trkpt lat="42.5245975" lon="5.5486053"><ele>0.0</ele><time>2026-04-30T18:35:15.091Z</time></trkpt><trkpt lat="42.5246875" lon="5.548881"><ele>0.0</ele><time>2026-04-30T18:35:19.09Z</time></trkpt><trkpt lat="42.5247359" lon="5.549018"><ele>0.0</ele><time>2026-04-30T18:35:21.09Z</time></trkpt><trkpt lat="42.524784" lon="5.5491575"><ele>0.0</ele><time>2026-04-30T18:35:23.09Z</time></trkpt><trkpt lat="42.5248291" lon="5.5492931"><ele>0.0</ele><time>2026-04-30T18:35:25.09Z</time></trkpt><trkpt lat="42.5248752" lon="5.5494301"><ele>0.0</ele><time>2026-04-30T18:35:27.09Z</time></trkpt><trkpt lat="42.5249191" lon="5.5495682"><ele>0.0</ele><time>2026-04-30T18:35:29.09Z</time></trkpt><trkpt lat="42.5249638" lon="5.5497076"><ele>0.0</ele><time>2026-04-30T18:35:31.09Z</time></trkpt><trkpt lat="42.5250107" lon="5.5498464"><ele>0.0</ele><time>2026-04-30T18:35:33.091Z</time></trkpt><trkpt lat="42.5250543" lon="5.54998"><ele>0.0</ele><time>2026-04-30T18:35:35.091Z</time></trkpt><trkpt lat="42.5251018" lon="5.5501129"><ele>0.0</ele><time>2026-04-30T18:35:37.09Z</time></trkpt><trkpt lat="42.5251907" lon="5.5503813"><ele>0.0</ele><time>2026-04-30T18:35:41.091Z</time></trkpt><trkpt lat="42.5252668" lon="5.5505838"><ele>0.0</ele><time>2026-04-30T18:35:44.091Z</time></trkpt><trkpt lat="42.5253148" lon="5.5507178"><ele>0.0</ele><time>2026-04-30T18:35:46.09Z</time></trkpt><trkpt lat="42.5253698" lon="5.5508517"><ele>0.0</ele><time>2026-04-30T18:35:48.09Z</time></trkpt><trkpt lat="42.5254193" lon="5.5509912"><ele>0.0</ele><time>2026-04-30T18:35:50.091Z</time></trkpt><trkpt lat="42.5254758" lon="5.5511252"><ele>0.0</ele><time>2026-04-30T18:35:52.091Z</time></trkpt><trkpt lat="42.5255387" lon="5.5512561"><ele>0.0</ele><time>2026-04-30T18:35:54.09Z</time></trkpt><trkpt lat="42.5255866" lon="5.5513989"><ele>0.0</ele><time>2026-04-30T18:35:56.09Z</time></trkpt><trkpt lat="42.525635" lon="5.551546"><ele>0.0</ele><time>2026-04-30T18:35:58.09Z</time></trkpt><trkpt lat="42.5257145" lon="5.5518229"><ele>0.0</ele><time>2026-04-30T18:36:02.09Z</time></trkpt><trkpt lat="42.5257627" lon="5.5519564"><ele>0.0</ele><time>2026-04-30T18:36:04.091Z</time></trkpt><trkpt lat="42.5258092" lon="5.5520944"><ele>0.0</ele><time>2026-04-30T18:36:06.09Z</time></trkpt><trkpt lat="42.5258534" lon="5.5522334"><ele>0.0</ele><time>2026-04-30T18:36:08.09Z</time></trkpt><trkpt lat="42.5259019" lon="5.5523713"><ele>0.0</ele><time>2026-04-30T18:36:10.09Z</time></trkpt><trkpt lat="42.5259392" lon="5.5525143"><ele>0.0</ele><time>2026-04-30T18:36:12.09Z</time></trkpt><trkpt lat="42.5259884" lon="5.5526456"><ele>0.0</ele><time>2026-04-30T18:36:14.09Z</time></trkpt><trkpt lat="42.5260386" lon="5.5527746"><ele>0.0</ele><time>2026-04-30T18:36:16.091Z</time></trkpt><trkpt lat="42.5260796" lon="5.5529115"><ele>0.0</ele><time>2026-04-30T18:36:18.09Z</time></trkpt><trkpt lat="42.5261173" lon="5.5530545"><ele>0.0</ele><time>2026-04-30T18:36:20.091Z</time></trkpt><trkpt lat="42.5262039" lon="5.5533314"><ele>0.0</ele><time>2026-04-30T18:36:24.091Z</time></trkpt><trkpt lat="42.5262518" lon="5.5534671"><ele>0.0</ele><time>2026-04-30T18:36:26.091Z</time></trkpt><trkpt lat="42.5263051" lon="5.5536018"><ele>0.0</ele><time>2026-04-30T18:36:28.09Z</time></trkpt><trkpt lat="42.5263506" lon="5.5537351"><ele>0.0</ele><time>2026-04-30T18:36:30.091Z</time></trkpt><trkpt lat="42.5263794" lon="5.5538745"><ele>0.0</ele><time>2026-04-30T18:36:32.091Z</time></trkpt><trkpt lat="42.5264261" lon="5.5540167"><ele>0.0</ele><time>2026-04-30T18:36:34.09Z</time></trkpt><trkpt lat="42.5264813" lon="5.5541515"><ele>0.0</ele><time>2026-04-30T18:36:36.09Z</time></trkpt><trkpt lat="42.5265275" lon="5.5542817"><ele>0.0</ele><time>2026-04-30T18:36:38.09Z</time></trkpt><trkpt lat="42.5265642" lon="5.5544229"><ele>0.0</ele><time>2026-04-30T18:36:40.091Z</time></trkpt><trkpt lat="42.5266067" lon="5.5545631"><ele>0.0</ele><time>2026-04-30T18:36:42.091Z</time></trkpt><trkpt lat="42.5267049" lon="5.5548334"><ele>0.0</ele><time>2026-04-30T18:36:46.09Z</time></trkpt><trkpt lat="42.526749" lon="5.5549728"><ele>0.0</ele><time>2026-04-30T18:36:48.09Z</time></trkpt><trkpt lat="42.5267905" lon="5.5551148"><ele>0.0</ele><time>2026-04-30T18:36:50.09Z</time></trkpt><trkpt lat="42.5268372" lon="5.5552553"><ele>0.0</ele><time>2026-04-30T18:36:52.09Z</time></trkpt><trkpt lat="42.5268862" lon="5.5554"><ele>0.0</ele><time>2026-04-30T18:36:54.09Z</time></trkpt><trkpt lat="42.5269305" lon="5.5555448"><ele>0.0</ele><time>2026-04-30T18:36:56.09Z</time></trkpt><trkpt lat="42.5269743" lon="5.5556863"><ele>0.0</ele><time>2026-04-30T18:36:58.091Z</time></trkpt><trkpt lat="42.527025" lon="5.5558284"><ele>0.0</ele><time>2026-04-30T18:37:00.09Z</time></trkpt><trkpt lat="42.5270788" lon="5.5559585"><ele>0.0</ele><time>2026-04-30T18:37:02.091Z</time></trkpt><trkpt lat="42.5271275" lon="5.5560885"><ele>0.0</ele><time>2026-04-30T18:37:04.09Z</time></trkpt><trkpt lat="42.5272065" lon="5.5563621"><ele>0.0</ele><time>2026-04-30T18:37:08.09Z</time></trkpt><trkpt lat="42.5272582" lon="5.5564919"><ele>0.0</ele><time>2026-04-30T18:37:10.09Z</time></trkpt><trkpt lat="42.5273119" lon="5.5566268"><ele>0.0</ele><time>2026-04-30T18:37:12.09Z</time></trkpt><trkpt lat="42.5273634" lon="5.5567617"><ele>0.0</ele><time>2026-04-30T18:37:14.091Z</time></trkpt><trkpt lat="42.5274087" lon="5.5569022"><ele>0.0</ele><time>2026-04-30T18:37:16.09Z</time></trkpt><trkpt lat="42.5274585" lon="5.5570384"><ele>0.0</ele><time>2026-04-30T18:37:18.09Z</time></trkpt><trkpt lat="42.5275397" lon="5.5572352"><ele>0.0</ele><time>2026-04-30T18:37:21.091Z</time></trkpt><trkpt lat="42.5275834" lon="5.5573763"><ele>0.0</ele><time>2026-04-30T18:37:23.091Z</time></trkpt><trkpt lat="42.5276298" lon="5.557515"><ele>0.0</ele><time>2026-04-30T18:37:25.09Z</time></trkpt><trkpt lat="42.5277059" lon="5.5577937"><ele>0.0</ele><time>2026-04-30T18:37:29.091Z</time></trkpt><trkpt lat="42.5277421" lon="5.5579328"><ele>0.0</ele><time>2026-04-30T18:37:31.09Z</time></trkpt><trkpt lat="42.5277869" lon="5.5580713"><ele>0.0</ele><time>2026-04-30T18:37:33.09Z</time></trkpt><trkpt lat="42.5278322" lon="5.5582096"><ele>0.0</ele><time>2026-04-30T18:37:35.09Z</time></trkpt><trkpt lat="42.5278859" lon="5.5583374"><ele>0.0</ele><time>2026-04-30T18:37:37.091Z</time></trkpt><trkpt lat="42.5279415" lon="5.5584635"><ele>0.0</ele><time>2026-04-30T18:37:39.09Z</time></trkpt><trkpt lat="42.5279876" lon="5.5585951"><ele>0.0</ele><time>2026-04-30T18:37:41.091Z</time></trkpt><trkpt lat="42.528037" lon="5.5587312"><ele>0.0</ele><time>2026-04-30T18:37:43.091Z</time></trkpt><trkpt lat="42.5280896" lon="5.558868"><ele>0.0</ele><time>2026-04-30T18:37:45.09Z</time></trkpt><trkpt lat="42.5281339" lon="5.5590029"><ele>0.0</ele><time>2026-04-30T18:37:47.09Z</time></trkpt><trkpt lat="42.5282281" lon="5.5592676"><ele>0.0</ele><time>2026-04-30T18:37:51.09Z</time></trkpt><trkpt lat="42.5282816" lon="5.5593958"><ele>0.0</ele><time>2026-04-30T18:37:53.09Z</time></trkpt><trkpt lat="42.5283481" lon="5.559531"><ele>0.0</ele><time>2026-04-30T18:37:55.09Z</time></trkpt><trkpt lat="42.5283952" lon="5.5596724"><ele>0.0</ele><time>2026-04-30T18:37:57.09Z</time></trkpt><trkpt lat="42.5284271" lon="5.5598161"><ele>0.0</ele><time>2026-04-30T18:37:59.09Z</time></trkpt><trkpt lat="42.528481" lon="5.5599485"><ele>0.0</ele><time>2026-04-30T18:38:01.09Z</time></trkpt><trkpt lat="42.5285302" lon="5.5600833"><ele>0.0</ele><time>2026-04-30T18:38:03.091Z</time></trkpt><trkpt lat="42.5285827" lon="5.5602219"><ele>0.0</ele><time>2026-04-30T18:38:05.09Z</time></trkpt><trkpt lat="42.5286392" lon="5.5603534"><ele>0.0</ele><time>2026-04-30T18:38:07.09Z</time></trkpt><trkpt lat="42.528692" lon="5.5604911"><ele>0.0</ele><time>2026-04-30T18:38:09.09Z</time></trkpt><trkpt lat="42.5287902" lon="5.5607777"><ele>0.0</ele><time>2026-04-30T18:38:13.091Z</time></trkpt><trkpt lat="42.5288455" lon="5.5609134"><ele>0.0</ele><time>2026-04-30T18:38:15.091Z</time></trkpt><trkpt lat="42.5288968" lon="5.5610334"><ele>0.0</ele><time>2026-04-30T18:38:17.09Z</time></trkpt><trkpt lat="42.5289463" lon="5.5611674"><ele>0.0</ele><time>2026-04-30T18:38:19.09Z</time></trkpt><trkpt lat="42.5289999" lon="5.5612943"><ele>0.0</ele><time>2026-04-30T18:38:21.091Z</time></trkpt><trkpt lat="42.5290515" lon="5.5614265"><ele>0.0</ele><time>2026-04-30T18:38:23.091Z</time></trkpt><trkpt lat="42.5290847" lon="5.5615712"><ele>0.0</ele><time>2026-04-30T18:38:25.091Z</time></trkpt><trkpt lat="42.5291382" lon="5.5617033"><ele>0.0</ele><time>2026-04-30T18:38:27.09Z</time></trkpt><trkpt lat="42.5291899" lon="5.5618414"><ele>0.0</ele><time>2026-04-30T18:38:29.091Z</time></trkpt><trkpt lat="42.5292418" lon="5.5619754"><ele>0.0</ele><time>2026-04-30T18:38:31.09Z</time></trkpt><trkpt lat="42.5293394" lon="5.5622386"><ele>0.0</ele><time>2026-04-30T18:38:35.091Z</time></trkpt><trkpt lat="42.5293922" lon="5.5623809"><ele>0.0</ele><time>2026-04-30T18:38:37.09Z</time></trkpt><trkpt lat="42.5294453" lon="5.5625187"><ele>0.0</ele><time>2026-04-30T18:38:39.091Z</time></trkpt><trkpt lat="42.5294978" lon="5.5626519"><ele>0.0</ele><time>2026-04-30T18:38:41.091Z</time></trkpt><trkpt lat="42.5295485" lon="5.5627871"><ele>0.0</ele><time>2026-04-30T18:38:43.091Z</time></trkpt><trkpt lat="42.5295997" lon="5.5629219"><ele>0.0</ele><time>2026-04-30T18:38:45.09Z</time></trkpt><trkpt lat="42.5296518" lon="5.5630566"><ele>0.0</ele><time>2026-04-30T18:38:47.09Z</time></trkpt><trkpt lat="42.5296817" lon="5.5632014"><ele>0.0</ele><time>2026-04-30T18:38:49.09Z</time></trkpt><trkpt lat="42.52973" lon="5.5633383"><ele>0.0</ele><time>2026-04-30T18:38:51.091Z</time></trkpt><trkpt lat="42.529777" lon="5.5634767"><ele>0.0</ele><time>2026-04-30T18:38:53.091Z</time></trkpt><trkpt lat="42.5298686" lon="5.5637511"><ele>0.0</ele><time>2026-04-30T18:38:57.091Z</time></trkpt><trkpt lat="42.5298969" lon="5.5638968"><ele>0.0</ele><time>2026-04-30T18:38:59.09Z</time></trkpt><trkpt lat="42.5299405" lon="5.5640316"><ele>0.0</ele><time>2026-04-30T18:39:01.09Z</time></trkpt><trkpt lat="42.5299853" lon="5.5641683"><ele>0.0</ele><time>2026-04-30T18:39:03.09Z</time></trkpt><trkpt lat="42.5300303" lon="5.5643051"><ele>0.0</ele><time>2026-04-30T18:39:05.09Z</time></trkpt><trkpt lat="42.5300669" lon="5.5644449"><ele>0.0</ele><time>2026-04-30T18:39:07.091Z</time></trkpt><trkpt lat="42.5301189" lon="5.5645741"><ele>0.0</ele><time>2026-04-30T18:39:09.09Z</time></trkpt><trkpt lat="42.5301704" lon="5.564709"><ele>0.0</ele><time>2026-04-30T18:39:11.09Z</time></trkpt><trkpt lat="42.530231" lon="5.5648401"><ele>0.0</ele><time>2026-04-30T18:39:13.091Z</time></trkpt><trkpt lat="42.5302865" lon="5.5649767"><ele>0.0</ele><time>2026-04-30T18:39:15.091Z</time></trkpt><trkpt lat="42.5303903" lon="5.5652451"><ele>0.0</ele><time>2026-04-30T18:39:19.09Z</time></trkpt><trkpt lat="42.530428" lon="5.5653874"><ele>0.0</ele><time>2026-04-30T18:39:21.09Z</time></trkpt><trkpt lat="42.5304651" lon="5.5655299"><ele>0.0</ele><time>2026-04-30T18:39:23.09Z</time></trkpt><trkpt lat="42.530512" lon="5.5656668"><ele>0.0</ele><time>2026-04-30T18:39:25.09Z</time></trkpt><trkpt lat="42.5305506" lon="5.5658034"><ele>0.0</ele><time>2026-04-30T18:39:27.091Z</time></trkpt><trkpt lat="42.530599" lon="5.5659365"><ele>0.0</ele><time>2026-04-30T18:39:29.091Z</time></trkpt><trkpt lat="42.5306342" lon="5.5660777"><ele>0.0</ele><time>2026-04-30T18:39:31.09Z</time></trkpt><trkpt lat="42.5306819" lon="5.5662116"><ele>0.0</ele><time>2026-04-30T18:39:33.09Z</time></trkpt><trkpt lat="42.5307258" lon="5.5663527"><ele>0.0</ele><time>2026-04-30T18:39:35.091Z</time></trkpt><trkpt lat="42.5307668" lon="5.5664899"><ele>0.0</ele><time>2026-04-30T18:39:37.09Z</time></trkpt><trkpt lat="42.5308634" lon="5.566752"><ele>0.0</ele><time>2026-04-30T18:39:41.09Z</time></trkpt><trkpt lat="42.5309206" lon="5.5668774"><ele>0.0</ele><time>2026-04-30T18:39:43.091Z</time></trkpt><trkpt lat="42.5309752" lon="5.5670092"><ele>0.0</ele><time>2026-04-30T18:39:45.09Z</time></trkpt><trkpt lat="42.5310183" lon="5.5671436"><ele>0.0</ele><time>2026-04-30T18:39:47.091Z</time></trkpt><trkpt lat="42.5310744" lon="5.567274"><ele>0.0</ele><time>2026-04-30T18:39:49.09Z</time></trkpt><trkpt lat="42.5311235" lon="5.5674071"><ele>0.0</ele><time>2026-04-30T18:39:51.09Z</time></trkpt><trkpt lat="42.5311733" lon="5.5675443"><ele>0.0</ele><time>2026-04-30T18:39:53.091Z</time></trkpt><trkpt lat="42.531222" lon="5.5676803"><ele>0.0</ele><time>2026-04-30T18:39:55.09Z</time></trkpt><trkpt lat="42.5312718" lon="5.5678172"><ele>0.0</ele><time>2026-04-30T18:39:57.09Z</time></trkpt><trkpt lat="42.5313152" lon="5.5679532"><ele>0.0</ele><time>2026-04-30T18:39:59.091Z</time></trkpt><trkpt lat="42.5314106" lon="5.5682289"><ele>0.0</ele><time>2026-04-30T18:40:03.091Z</time></trkpt><trkpt lat="42.5314569" lon="5.5683637"><ele>0.0</ele><time>2026-04-30T18:40:05.09Z</time></trkpt><trkpt lat="42.5315131" lon="5.5685024"><ele>0.0</ele><time>2026-04-30T18:40:07.09Z</time></trkpt><trkpt lat="42.5315718" lon="5.5686391"><ele>0.0</ele><time>2026-04-30T18:40:09.091Z</time></trkpt><trkpt lat="42.5316258" lon="5.568775"><ele>0.0</ele><time>2026-04-30T18:40:11.091Z</time></trkpt><trkpt lat="42.5316704" lon="5.5689097"><ele>0.0</ele><time>2026-04-30T18:40:13.091Z</time></trkpt><trkpt lat="42.5317103" lon="5.5690513"><ele>0.0</ele><time>2026-04-30T18:40:15.091Z</time></trkpt><trkpt lat="42.5317538" lon="5.5691961"><ele>0.0</ele><time>2026-04-30T18:40:17.09Z</time></trkpt><trkpt lat="42.5318008" lon="5.5693306"><ele>0.0</ele><time>2026-04-30T18:40:19.091Z</time></trkpt><trkpt lat="42.531845" lon="5.5694653"><ele>0.0</ele><time>2026-04-30T18:40:21.09Z</time></trkpt><trkpt lat="42.5319449" lon="5.5697198"><ele>0.0</ele><time>2026-04-30T18:40:25.091Z</time></trkpt><trkpt lat="42.5319925" lon="5.5698518"><ele>0.0</ele><time>2026-04-30T18:40:27.09Z</time></trkpt><trkpt lat="42.5320394" lon="5.5699805"><ele>0.0</ele><time>2026-04-30T18:40:29.091Z</time></trkpt><trkpt lat="42.5320873" lon="5.5701134"><ele>0.0</ele><time>2026-04-30T18:40:31.089Z</time></trkpt><trkpt lat="42.5321398" lon="5.5702465"><ele>0.0</ele><time>2026-04-30T18:40:33.09Z</time></trkpt><trkpt lat="42.5322043" lon="5.5703813"><ele>0.0</ele><time>2026-04-30T18:40:35.09Z</time></trkpt><trkpt lat="42.532267" lon="5.5705075"><ele>0.0</ele><time>2026-04-30T18:40:37.089Z</time></trkpt><trkpt lat="42.5323198" lon="5.5706433"><ele>0.0</ele><time>2026-04-30T18:40:39.089Z</time></trkpt><trkpt lat="42.5323681" lon="5.5707769"><ele>0.0</ele><time>2026-04-30T18:40:41.09Z</time></trkpt><trkpt lat="42.5324119" lon="5.5709099"><ele>0.0</ele><time>2026-04-30T18:40:43.089Z</time></trkpt><trkpt lat="42.5325153" lon="5.5711752"><ele>0.0</ele><time>2026-04-30T18:40:47.089Z</time></trkpt><trkpt lat="42.5325663" lon="5.5713106"><ele>0.0</ele><time>2026-04-30T18:40:49.089Z</time></trkpt><trkpt lat="42.5326179" lon="5.5714389"><ele>0.0</ele><time>2026-04-30T18:40:51.09Z</time></trkpt><trkpt lat="42.5326615" lon="5.5715814"><ele>0.0</ele><time>2026-04-30T18:40:53.09Z</time></trkpt><trkpt lat="42.532706" lon="5.5717217"><ele>0.0</ele><time>2026-04-30T18:40:55.09Z</time></trkpt><trkpt lat="42.5327574" lon="5.5718591"><ele>0.0</ele><time>2026-04-30T18:40:57.089Z</time></trkpt><trkpt lat="42.5328083" lon="5.5719935"><ele>0.0</ele><time>2026-04-30T18:40:59.089Z</time></trkpt><trkpt lat="42.5328472" lon="5.5721352"><ele>0.0</ele><time>2026-04-30T18:41:01.089Z</time></trkpt><trkpt lat="42.5328973" lon="5.5722778"><ele>0.0</ele><time>2026-04-30T18:41:03.09Z</time></trkpt><trkpt lat="42.5329945" lon="5.5725379"><ele>0.0</ele><time>2026-04-30T18:41:07.089Z</time></trkpt><trkpt lat="42.5330521" lon="5.5726632"><ele>0.0</ele><time>2026-04-30T18:41:09.089Z</time></trkpt><trkpt lat="42.5331081" lon="5.5727921"><ele>0.0</ele><time>2026-04-30T18:41:11.089Z</time></trkpt><trkpt lat="42.5331617" lon="5.5729237"><ele>0.0</ele><time>2026-04-30T18:41:13.09Z</time></trkpt><trkpt lat="42.533213" lon="5.5730582"><ele>0.0</ele><time>2026-04-30T18:41:15.089Z</time></trkpt><trkpt lat="42.5332615" lon="5.5731951"><ele>0.0</ele><time>2026-04-30T18:41:17.09Z</time></trkpt><trkpt lat="42.5333162" lon="5.5733305"><ele>0.0</ele><time>2026-04-30T18:41:19.09Z</time></trkpt><trkpt lat="42.5333616" lon="5.5734664"><ele>0.0</ele><time>2026-04-30T18:41:21.089Z</time></trkpt><trkpt lat="42.533407" lon="5.5736048"><ele>0.0</ele><time>2026-04-30T18:41:23.089Z</time></trkpt><trkpt lat="42.5334461" lon="5.5737369"><ele>0.0</ele><time>2026-04-30T18:41:25.089Z</time></trkpt><trkpt lat="42.5335082" lon="5.5740127"><ele>0.0</ele><time>2026-04-30T18:41:29.09Z</time></trkpt><trkpt lat="42.5335495" lon="5.574148"><ele>0.0</ele><time>2026-04-30T18:41:31.089Z</time></trkpt><trkpt lat="42.5335964" lon="5.5742862"><ele>0.0</ele><time>2026-04-30T18:41:33.089Z</time></trkpt><trkpt lat="42.5336367" lon="5.5744309"><ele>0.0</ele><time>2026-04-30T18:41:35.09Z</time></trkpt><trkpt lat="42.5336745" lon="5.5745735"><ele>0.0</ele><time>2026-04-30T18:41:37.089Z</time></trkpt><trkpt lat="42.5337091" lon="5.5747159"><ele>0.0</ele><time>2026-04-30T18:41:39.089Z</time></trkpt><trkpt lat="42.533769" lon="5.5748422"><ele>0.0</ele><time>2026-04-30T18:41:41.09Z</time></trkpt><trkpt lat="42.5338335" lon="5.5749681"><ele>0.0</ele><time>2026-04-30T18:41:43.089Z</time></trkpt><trkpt lat="42.5338865" lon="5.5751061"><ele>0.0</ele><time>2026-04-30T18:41:45.09Z</time></trkpt><trkpt lat="42.5339367" lon="5.5752437"><ele>0.0</ele><time>2026-04-30T18:41:47.09Z</time></trkpt><trkpt lat="42.534043" lon="5.5755103"><ele>0.0</ele><time>2026-04-30T18:41:51.09Z</time></trkpt><trkpt lat="42.5340856" lon="5.5756402"><ele>0.0</ele><time>2026-04-30T18:41:53.09Z</time></trkpt><trkpt lat="42.5341349" lon="5.5757668"><ele>0.0</ele><time>2026-04-30T18:41:55.09Z</time></trkpt><trkpt lat="42.5341866" lon="5.5759022"><ele>0.0</ele><time>2026-04-30T18:41:57.089Z</time></trkpt><trkpt lat="42.5342377" lon="5.5760371"><ele>0.0</ele><time>2026-04-30T18:41:59.089Z</time></trkpt><trkpt lat="42.5342911" lon="5.5761745"><ele>0.0</ele><time>2026-04-30T18:42:01.09Z</time></trkpt><trkpt lat="42.5343385" lon="5.5763153"><ele>0.0</ele><time>2026-04-30T18:42:03.089Z</time></trkpt><trkpt lat="42.5343798" lon="5.5764589"><ele>0.0</ele><time>2026-04-30T18:42:05.09Z</time></trkpt><trkpt lat="42.5344283" lon="5.5765922"><ele>0.0</ele><time>2026-04-30T18:42:07.09Z</time></trkpt><trkpt lat="42.5345329" lon="5.576874"><ele>0.0</ele><time>2026-04-30T18:42:11.089Z</time></trkpt><trkpt lat="42.5345702" lon="5.5770143"><ele>0.0</ele><time>2026-04-30T18:42:13.089Z</time></trkpt><trkpt lat="42.5346093" lon="5.5771593"><ele>0.0</ele><time>2026-04-30T18:42:15.089Z</time></trkpt><trkpt lat="42.534654" lon="5.5772937"><ele>0.0</ele><time>2026-04-30T18:42:17.089Z</time></trkpt><trkpt lat="42.5347078" lon="5.5774304"><ele>0.0</ele><time>2026-04-30T18:42:19.089Z</time></trkpt><trkpt lat="42.5347569" lon="5.5775618"><ele>0.0</ele><time>2026-04-30T18:42:21.089Z</time></trkpt><trkpt lat="42.534816" lon="5.5776861"><ele>0.0</ele><time>2026-04-30T18:42:23.089Z</time></trkpt><trkpt lat="42.5348631" lon="5.5778185"><ele>0.0</ele><time>2026-04-30T18:42:25.089Z</time></trkpt><trkpt lat="42.5349165" lon="5.5779475"><ele>0.0</ele><time>2026-04-30T18:42:27.09Z</time></trkpt><trkpt lat="42.5349718" lon="5.5780691"><ele>0.0</ele><time>2026-04-30T18:42:29.089Z</time></trkpt><trkpt lat="42.5350408" lon="5.5783539"><ele>0.0</ele><time>2026-04-30T18:42:33.089Z</time></trkpt><trkpt lat="42.5350947" lon="5.5784869"><ele>0.0</ele><time>2026-04-30T18:42:35.089Z</time></trkpt><trkpt lat="42.535135" lon="5.5786247"><ele>0.0</ele><time>2026-04-30T18:42:37.09Z</time></trkpt><trkpt lat="42.5351847" lon="5.5787712"><ele>0.0</ele><time>2026-04-30T18:42:39.09Z</time></trkpt><trkpt lat="42.53523" lon="5.5789172"><ele>0.0</ele><time>2026-04-30T18:42:41.089Z</time></trkpt><trkpt lat="42.5352813" lon="5.5790536"><ele>0.0</ele><time>2026-04-30T18:42:43.089Z</time></trkpt><trkpt lat="42.5353288" lon="5.5791932"><ele>0.0</ele><time>2026-04-30T18:42:45.089Z</time></trkpt><trkpt lat="42.5353721" lon="5.5793329"><ele>0.0</ele><time>2026-04-30T18:42:47.089Z</time></trkpt><trkpt lat="42.5354166" lon="5.5794714"><ele>0.0</ele><time>2026-04-30T18:42:49.089Z</time></trkpt><trkpt lat="42.53546" lon="5.5796124"><ele>0.0</ele><time>2026-04-30T18:42:51.09Z</time></trkpt><trkpt lat="42.5355481" lon="5.5798871"><ele>0.0</ele><time>2026-04-30T18:42:55.089Z</time></trkpt><trkpt lat="42.5356087" lon="5.5800078"><ele>0.0</ele><time>2026-04-30T18:42:57.089Z</time></trkpt><trkpt lat="42.5356573" lon="5.580138"><ele>0.0</ele><time>2026-04-30T18:42:59.089Z</time></trkpt><trkpt lat="42.5357097" lon="5.5802748"><ele>0.0</ele><time>2026-04-30T18:43:01.09Z</time></trkpt><trkpt lat="42.5357632" lon="5.5804081"><ele>0.0</ele><time>2026-04-30T18:43:03.089Z</time></trkpt><trkpt lat="42.5358102" lon="5.5805419"><ele>0.0</ele><time>2026-04-30T18:43:05.089Z</time></trkpt><trkpt lat="42.5358555" lon="5.5806741"><ele>0.0</ele><time>2026-04-30T18:43:07.09Z</time></trkpt><trkpt lat="42.535907" lon="5.5808099"><ele>0.0</ele><time>2026-04-30T18:43:09.089Z</time></trkpt><trkpt lat="42.5359609" lon="5.5809422"><ele>0.0</ele><time>2026-04-30T18:43:11.09Z</time></trkpt><trkpt lat="42.5360482" lon="5.5811975"><ele>0.0</ele><time>2026-04-30T18:43:15.089Z</time></trkpt><trkpt lat="42.5361088" lon="5.5813204"><ele>0.0</ele><time>2026-04-30T18:43:17.089Z</time></trkpt><trkpt lat="42.5361603" lon="5.5814532"><ele>0.0</ele><time>2026-04-30T18:43:19.09Z</time></trkpt><trkpt lat="42.5362081" lon="5.5815961"><ele>0.0</ele><time>2026-04-30T18:43:21.089Z</time></trkpt><trkpt lat="42.5362644" lon="5.5817351"><ele>0.0</ele><time>2026-04-30T18:43:23.089Z</time></trkpt><trkpt lat="42.5363107" lon="5.5818774"><ele>0.0</ele><time>2026-04-30T18:43:25.089Z</time></trkpt><trkpt lat="42.5363555" lon="5.5820241"><ele>0.0</ele><time>2026-04-30T18:43:27.089Z</time></trkpt><trkpt lat="42.5363879" lon="5.5821682"><ele>0.0</ele><time>2026-04-30T18:43:29.089Z</time></trkpt><trkpt lat="42.5364298" lon="5.5823025"><ele>0.0</ele><time>2026-04-30T18:43:31.089Z</time></trkpt><trkpt lat="42.5364765" lon="5.582434"><ele>0.0</ele><time>2026-04-30T18:43:33.09Z</time></trkpt><trkpt lat="42.5365766" lon="5.5827058"><ele>0.0</ele><time>2026-04-30T18:43:37.089Z</time></trkpt><trkpt lat="42.5366229" lon="5.5828402"><ele>0.0</ele><time>2026-04-30T18:43:39.089Z</time></trkpt><trkpt lat="42.536678" lon="5.5829748"><ele>0.0</ele><time>2026-04-30T18:43:41.09Z</time></trkpt><trkpt lat="42.5367471" lon="5.5831864"><ele>0.0</ele><time>2026-04-30T18:43:44.089Z</time></trkpt><trkpt lat="42.5367887" lon="5.5833266"><ele>0.0</ele><time>2026-04-30T18:43:46.089Z</time></trkpt><trkpt lat="42.5368335" lon="5.5834665"><ele>0.0</ele><time>2026-04-30T18:43:48.09Z</time></trkpt><trkpt lat="42.5368896" lon="5.5835869"><ele>0.0</ele><time>2026-04-30T18:43:50.09Z</time></trkpt><trkpt lat="42.5369339" lon="5.5837183"><ele>0.0</ele><time>2026-04-30T18:43:52.089Z</time></trkpt><trkpt lat="42.5369709" lon="5.5838622"><ele>0.0</ele><time>2026-04-30T18:43:54.089Z</time></trkpt><trkpt lat="42.5370609" lon="5.5841565"><ele>0.0</ele><time>2026-04-30T18:43:58.09Z</time></trkpt><trkpt lat="42.5371064" lon="5.5842875"><ele>0.0</ele><time>2026-04-30T18:44:00.09Z</time></trkpt><trkpt lat="42.5371526" lon="5.5844218"><ele>0.0</ele><time>2026-04-30T18:44:02.09Z</time></trkpt><trkpt lat="42.5371875" lon="5.5845583"><ele>0.0</ele><time>2026-04-30T18:44:04.09Z</time></trkpt><trkpt lat="42.5372379" lon="5.5846888"><ele>0.0</ele><time>2026-04-30T18:44:06.089Z</time></trkpt><trkpt lat="42.5373081" lon="5.5848129"><ele>0.0</ele><time>2026-04-30T18:44:08.09Z</time></trkpt><trkpt lat="42.5373607" lon="5.5849518"><ele>0.0</ele><time>2026-04-30T18:44:10.09Z</time></trkpt><trkpt lat="42.5374213" lon="5.5850895"><ele>0.0</ele><time>2026-04-30T18:44:12.09Z</time></trkpt><trkpt lat="42.5374603" lon="5.5852325"><ele>0.0</ele><time>2026-04-30T18:44:14.09Z</time></trkpt><trkpt lat="42.5375725" lon="5.58541"><ele>0.0</ele><time>2026-04-30T18:44:17.09Z</time></trkpt><trkpt lat="42.5376904" lon="5.585678"><ele>0.0</ele><time>2026-04-30T18:44:21.09Z</time></trkpt><trkpt lat="42.5377368" lon="5.585815"><ele>0.0</ele><time>2026-04-30T18:44:23.089Z</time></trkpt><trkpt lat="42.5377969" lon="5.5859407"><ele>0.0</ele><time>2026-04-30T18:44:25.09Z</time></trkpt><trkpt lat="42.5378232" lon="5.5860862"><ele>0.0</ele><time>2026-04-30T18:44:27.089Z</time></trkpt><trkpt lat="42.5378637" lon="5.5862117"><ele>0.0</ele><time>2026-04-30T18:44:29.089Z</time></trkpt><trkpt lat="42.5379044" lon="5.5863559"><ele>0.0</ele><time>2026-04-30T18:44:31.09Z</time></trkpt><trkpt lat="42.5379415" lon="5.5864929"><ele>0.0</ele><time>2026-04-30T18:44:33.089Z</time></trkpt><trkpt lat="42.5379786" lon="5.5866339"><ele>0.0</ele><time>2026-04-30T18:44:35.09Z</time></trkpt><trkpt lat="42.5380202" lon="5.5867676"><ele>0.0</ele><time>2026-04-30T18:44:37.089Z</time></trkpt><trkpt lat="42.5380656" lon="5.5869"><ele>0.0</ele><time>2026-04-30T18:44:39.089Z</time></trkpt><trkpt lat="42.5381522" lon="5.5871805"><ele>0.0</ele><time>2026-04-30T18:44:43.09Z</time></trkpt><trkpt lat="42.5382231" lon="5.5873099"><ele>0.0</ele><time>2026-04-30T18:44:45.089Z</time></trkpt><trkpt lat="42.5382671" lon="5.5874452"><ele>0.0</ele><time>2026-04-30T18:44:47.089Z</time></trkpt><trkpt lat="42.5383158" lon="5.5875785"><ele>0.0</ele><time>2026-04-30T18:44:49.09Z</time></trkpt><trkpt lat="42.5383617" lon="5.5877166"><ele>0.0</ele><time>2026-04-30T18:44:51.09Z</time></trkpt><trkpt lat="42.5384069" lon="5.5878481"><ele>0.0</ele><time>2026-04-30T18:44:53.089Z</time></trkpt><trkpt lat="42.5384514" lon="5.5879831"><ele>0.0</ele><time>2026-04-30T18:44:55.09Z</time></trkpt><trkpt lat="42.5385066" lon="5.5881085"><ele>0.0</ele><time>2026-04-30T18:44:57.089Z</time></trkpt><trkpt lat="42.5385624" lon="5.5882352"><ele>0.0</ele><time>2026-04-30T18:44:59.089Z</time></trkpt><trkpt lat="42.53861" lon="5.5883673"><ele>0.0</ele><time>2026-04-30T18:45:01.09Z</time></trkpt><trkpt lat="42.5387052" lon="5.5886134"><ele>0.0</ele><time>2026-04-30T18:45:05.089Z</time></trkpt><trkpt lat="42.5387455" lon="5.5887548"><ele>0.0</ele><time>2026-04-30T18:45:07.089Z</time></trkpt><trkpt lat="42.5387855" lon="5.5888977"><ele>0.0</ele><time>2026-04-30T18:45:09.089Z</time></trkpt><trkpt lat="42.5388276" lon="5.5890408"><ele>0.0</ele><time>2026-04-30T18:45:11.09Z</time></trkpt><trkpt lat="42.5388632" lon="5.5891807"><ele>0.0</ele><time>2026-04-30T18:45:13.09Z</time></trkpt><trkpt lat="42.5389149" lon="5.5893102"><ele>0.0</ele><time>2026-04-30T18:45:15.089Z</time></trkpt><trkpt lat="42.5389553" lon="5.5894441"><ele>0.0</ele><time>2026-04-30T18:45:17.089Z</time></trkpt><trkpt lat="42.5389837" lon="5.5895732"><ele>0.0</ele><time>2026-04-30T18:45:19.089Z</time></trkpt><trkpt lat="42.539027" lon="5.5897015"><ele>0.0</ele><time>2026-04-30T18:45:21.089Z</time></trkpt><trkpt lat="42.539075" lon="5.5898303"><ele>0.0</ele><time>2026-04-30T18:45:23.09Z</time></trkpt><trkpt lat="42.5391724" lon="5.5900839"><ele>0.0</ele><time>2026-04-30T18:45:27.09Z</time></trkpt><trkpt lat="42.5392167" lon="5.5902149"><ele>0.0</ele><time>2026-04-30T18:45:29.089Z</time></trkpt><trkpt lat="42.5392715" lon="5.5903367"><ele>0.0</ele><time>2026-04-30T18:45:31.09Z</time></trkpt><trkpt lat="42.5393022" lon="5.5904639"><ele>0.0</ele><time>2026-04-30T18:45:33.089Z</time></trkpt><trkpt lat="42.5393386" lon="5.5905871"><ele>0.0</ele><time>2026-04-30T18:45:35.09Z</time></trkpt><trkpt lat="42.5393873" lon="5.5907047"><ele>0.0</ele><time>2026-04-30T18:45:37.089Z</time></trkpt><trkpt lat="42.5394382" lon="5.5908319"><ele>0.0</ele><time>2026-04-30T18:45:39.09Z</time></trkpt><trkpt lat="42.5394846" lon="5.5909717"><ele>0.0</ele><time>2026-04-30T18:45:41.09Z</time></trkpt><trkpt lat="42.5395301" lon="5.5911091"><ele>0.0</ele><time>2026-04-30T18:45:43.089Z</time></trkpt><trkpt lat="42.5395748" lon="5.5912398"><ele>0.0</ele><time>2026-04-30T18:45:45.089Z</time></trkpt><trkpt lat="42.5396581" lon="5.5915078"><ele>0.0</ele><time>2026-04-30T18:45:49.089Z</time></trkpt><trkpt lat="42.5397043" lon="5.5916425"><ele>0.0</ele><time>2026-04-30T18:45:51.089Z</time></trkpt><trkpt lat="42.5397502" lon="5.5917807"><ele>0.0</ele><time>2026-04-30T18:45:53.089Z</time></trkpt><trkpt lat="42.5398027" lon="5.59191"><ele>0.0</ele><time>2026-04-30T18:45:55.089Z</time></trkpt><trkpt lat="42.5398564" lon="5.5920393"><ele>0.0</ele><time>2026-04-30T18:45:57.089Z</time></trkpt><trkpt lat="42.5399066" lon="5.592161"><ele>0.0</ele><time>2026-04-30T18:45:59.09Z</time></trkpt><trkpt lat="42.5399516" lon="5.5922916"><ele>0.0</ele><time>2026-04-30T18:46:01.089Z</time></trkpt><trkpt lat="42.5399968" lon="5.5924218"><ele>0.0</ele><time>2026-04-30T18:46:03.089Z</time></trkpt><trkpt lat="42.540047" lon="5.5925536"><ele>0.0</ele><time>2026-04-30T18:46:05.09Z</time></trkpt><trkpt lat="42.5401025" lon="5.5926848"><ele>0.0</ele><time>2026-04-30T18:46:07.089Z</time></trkpt><trkpt lat="42.5402026" lon="5.5929458"><ele>0.0</ele><time>2026-04-30T18:46:11.089Z</time></trkpt><trkpt lat="42.5402551" lon="5.5930626"><ele>0.0</ele><time>2026-04-30T18:46:13.089Z</time></trkpt><trkpt lat="42.5403011" lon="5.5931967"><ele>0.0</ele><time>2026-04-30T18:46:15.089Z</time></trkpt><trkpt lat="42.5403448" lon="5.593333"><ele>0.0</ele><time>2026-04-30T18:46:17.089Z</time></trkpt><trkpt lat="42.5403888" lon="5.5934801"><ele>0.0</ele><time>2026-04-30T18:46:19.09Z</time></trkpt><trkpt lat="42.5404227" lon="5.5936256"><ele>0.0</ele><time>2026-04-30T18:46:21.089Z</time></trkpt><trkpt lat="42.5404702" lon="5.5937592"><ele>0.0</ele><time>2026-04-30T18:46:23.089Z</time></trkpt><trkpt lat="42.5405138" lon="5.5938885"><ele>0.0</ele><time>2026-04-30T18:46:25.089Z</time></trkpt><trkpt lat="42.5405603" lon="5.594023"><ele>0.0</ele><time>2026-04-30T18:46:27.09Z</time></trkpt><trkpt lat="42.5406078" lon="5.5941461"><ele>0.0</ele><time>2026-04-30T18:46:29.09Z</time></trkpt><trkpt lat="42.5407144" lon="5.5943804"><ele>0.0</ele><time>2026-04-30T18:46:33.089Z</time></trkpt><trkpt lat="42.5407674" lon="5.594518"><ele>0.0</ele><time>2026-04-30T18:46:35.089Z</time></trkpt><trkpt lat="42.5408169" lon="5.5946551"><ele>0.0</ele><time>2026-04-30T18:46:37.088Z</time></trkpt><trkpt lat="42.54086" lon="5.5947908"><ele>0.0</ele><time>2026-04-30T18:46:39.089Z</time></trkpt><trkpt lat="42.5409025" lon="5.594931"><ele>0.0</ele><time>2026-04-30T18:46:41.089Z</time></trkpt><trkpt lat="42.5409425" lon="5.5950701"><ele>0.0</ele><time>2026-04-30T18:46:43.089Z</time></trkpt><trkpt lat="42.5410074" lon="5.5952031"><ele>0.0</ele><time>2026-04-30T18:46:45.088Z</time></trkpt><trkpt lat="42.5410591" lon="5.595339"><ele>0.0</ele><time>2026-04-30T18:46:47.088Z</time></trkpt><trkpt lat="42.5411158" lon="5.5954734"><ele>0.0</ele><time>2026-04-30T18:46:49.088Z</time></trkpt><trkpt lat="42.5411744" lon="5.5956138"><ele>0.0</ele><time>2026-04-30T18:46:51.088Z</time></trkpt><trkpt lat="42.5412762" lon="5.5958933"><ele>0.0</ele><time>2026-04-30T18:46:55.088Z</time></trkpt><trkpt lat="42.5413283" lon="5.5960264"><ele>0.0</ele><time>2026-04-30T18:46:57.088Z</time></trkpt><trkpt lat="42.5413802" lon="5.5961693"><ele>0.0</ele><time>2026-04-30T18:46:59.088Z</time></trkpt><trkpt lat="42.5414253" lon="5.5963141"><ele>0.0</ele><time>2026-04-30T18:47:01.088Z</time></trkpt><trkpt lat="42.5414713" lon="5.5964534"><ele>0.0</ele><time>2026-04-30T18:47:03.088Z</time></trkpt><trkpt lat="42.5415075" lon="5.5966004"><ele>0.0</ele><time>2026-04-30T18:47:05.088Z</time></trkpt><trkpt lat="42.5415628" lon="5.5967474"><ele>0.0</ele><time>2026-04-30T18:47:07.088Z</time></trkpt><trkpt lat="42.5416226" lon="5.5968898"><ele>0.0</ele><time>2026-04-30T18:47:09.088Z</time></trkpt><trkpt lat="42.5416728" lon="5.5970331"><ele>0.0</ele><time>2026-04-30T18:47:11.089Z</time></trkpt><trkpt lat="42.5417288" lon="5.5971803"><ele>0.0</ele><time>2026-04-30T18:47:13.089Z</time></trkpt><trkpt lat="42.5418348" lon="5.5974736"><ele>0.0</ele><time>2026-04-30T18:47:17.088Z</time></trkpt><trkpt lat="42.5418832" lon="5.5976283"><ele>0.0</ele><time>2026-04-30T18:47:19.089Z</time></trkpt><trkpt lat="42.5419425" lon="5.5977741"><ele>0.0</ele><time>2026-04-30T18:47:21.088Z</time></trkpt><trkpt lat="42.5420034" lon="5.5979151"><ele>0.0</ele><time>2026-04-30T18:47:23.088Z</time></trkpt><trkpt lat="42.5420386" lon="5.5979885"><ele>0.0</ele><time>2026-04-30T18:47:24.089Z</time></trkpt><trkpt lat="42.5420721" lon="5.5980637"><ele>0.0</ele><time>2026-04-30T18:47:25.088Z</time></trkpt><trkpt lat="42.5421001" lon="5.5981427"><ele>0.0</ele><time>2026-04-30T18:47:26.089Z</time></trkpt><trkpt lat="42.5421269" lon="5.5982215"><ele>0.0</ele><time>2026-04-30T18:47:27.089Z</time></trkpt><trkpt lat="42.542177" lon="5.598378"><ele>0.0</ele><time>2026-04-30T18:47:29.089Z</time></trkpt><trkpt lat="42.5422222" lon="5.5985315"><ele>0.0</ele><time>2026-04-30T18:47:31.088Z</time></trkpt><trkpt lat="42.5422486" lon="5.5986115"><ele>0.0</ele><time>2026-04-30T18:47:32.089Z</time></trkpt><trkpt lat="42.5422736" lon="5.5986939"><ele>0.0</ele><time>2026-04-30T18:47:33.089Z</time></trkpt><trkpt lat="42.5423072" lon="5.5987716"><ele>0.0</ele><time>2026-04-30T18:47:34.088Z</time></trkpt><trkpt lat="42.5423874" lon="5.5989939"><ele>0.0</ele><time>2026-04-30T18:47:37.089Z</time></trkpt><trkpt lat="42.542446" lon="5.5991419"><ele>0.0</ele><time>2026-04-30T18:47:39.088Z</time></trkpt><trkpt lat="42.5425049" lon="5.5992999"><ele>0.0</ele><time>2026-04-30T18:47:41.089Z</time></trkpt><trkpt lat="42.5425331" lon="5.5993841"><ele>0.0</ele><time>2026-04-30T18:47:42.088Z</time></trkpt><trkpt lat="42.5425635" lon="5.5994631"><ele>0.0</ele><time>2026-04-30T18:47:43.088Z</time></trkpt><trkpt lat="42.5426056" lon="5.5995321"><ele>0.0</ele><time>2026-04-30T18:47:44.088Z</time></trkpt><trkpt lat="42.5426535" lon="5.5995974"><ele>0.0</ele><time>2026-04-30T18:47:45.088Z</time></trkpt><trkpt lat="42.5426865" lon="5.5996709"><ele>0.0</ele><time>2026-04-30T18:47:46.088Z</time></trkpt><trkpt lat="42.5427158" lon="5.5997485"><ele>0.0</ele><time>2026-04-30T18:47:47.089Z</time></trkpt><trkpt lat="42.5427436" lon="5.5998299"><ele>0.0</ele><time>2026-04-30T18:47:48.088Z</time></trkpt><trkpt lat="42.542775" lon="5.5999085"><ele>0.0</ele><time>2026-04-30T18:47:49.089Z</time></trkpt><trkpt lat="42.5428039" lon="5.5999911"><ele>0.0</ele><time>2026-04-30T18:47:50.089Z</time></trkpt><trkpt lat="42.5428305" lon="5.6000773"><ele>0.0</ele><time>2026-04-30T18:47:51.088Z</time></trkpt><trkpt lat="42.5428629" lon="5.6001568"><ele>0.0</ele><time>2026-04-30T18:47:52.089Z</time></trkpt><trkpt lat="42.5428963" lon="5.6002352"><ele>0.0</ele><time>2026-04-30T18:47:53.088Z</time></trkpt><trkpt lat="42.5429264" lon="5.6003148"><ele>0.0</ele><time>2026-04-30T18:47:54.088Z</time></trkpt><trkpt lat="42.5429597" lon="5.6003931"><ele>0.0</ele><time>2026-04-30T18:47:55.089Z</time></trkpt><trkpt lat="42.5430312" lon="5.6005512"><ele>0.0</ele><time>2026-04-30T18:47:57.089Z</time></trkpt><trkpt lat="42.5430766" lon="5.6006285"><ele>0.0</ele><time>2026-04-30T18:47:58.088Z</time></trkpt><trkpt lat="42.5431061" lon="5.6007125"><ele>0.0</ele><time>2026-04-30T18:47:59.088Z</time></trkpt><trkpt lat="42.5431647" lon="5.6008763"><ele>0.0</ele><time>2026-04-30T18:48:01.089Z</time></trkpt><trkpt lat="42.5432125" lon="5.6009511"><ele>0.0</ele><time>2026-04-30T18:48:02.088Z</time></trkpt><trkpt lat="42.5432583" lon="5.601033"><ele>0.0</ele><time>2026-04-30T18:48:03.088Z</time></trkpt><trkpt lat="42.5433013" lon="5.6011122"><ele>0.0</ele><time>2026-04-30T18:48:04.088Z</time></trkpt><trkpt lat="42.5433416" lon="5.6011902"><ele>0.0</ele><time>2026-04-30T18:48:05.089Z</time></trkpt><trkpt lat="42.543383" lon="5.6012722"><ele>0.0</ele><time>2026-04-30T18:48:06.088Z</time></trkpt><trkpt lat="42.5434221" lon="5.601355"><ele>0.0</ele><time>2026-04-30T18:48:07.088Z</time></trkpt><trkpt lat="42.5434563" lon="5.6014381"><ele>0.0</ele><time>2026-04-30T18:48:08.089Z</time></trkpt><trkpt lat="42.5434972" lon="5.6015144"><ele>0.0</ele><time>2026-04-30T18:48:09.089Z</time></trkpt><trkpt lat="42.5435288" lon="5.6015983"><ele>0.0</ele><time>2026-04-30T18:48:10.088Z</time></trkpt><trkpt lat="42.5435575" lon="5.6016803"><ele>0.0</ele><time>2026-04-30T18:48:11.089Z</time></trkpt><trkpt lat="42.5435899" lon="5.6017664"><ele>0.0</ele><time>2026-04-30T18:48:12.089Z</time></trkpt><trkpt lat="42.5436246" lon="5.6018501"><ele>0.0</ele><time>2026-04-30T18:48:13.088Z</time></trkpt><trkpt lat="42.5436638" lon="5.6019347"><ele>0.0</ele><time>2026-04-30T18:48:14.088Z</time></trkpt><trkpt lat="42.5436964" lon="5.6020216"><ele>0.0</ele><time>2026-04-30T18:48:15.089Z</time></trkpt><trkpt lat="42.5437268" lon="5.602104"><ele>0.0</ele><time>2026-04-30T18:48:16.088Z</time></trkpt><trkpt lat="42.5437851" lon="5.6022733"><ele>0.0</ele><time>2026-04-30T18:48:18.088Z</time></trkpt><trkpt lat="42.5438186" lon="5.6023566"><ele>0.0</ele><time>2026-04-30T18:48:19.088Z</time></trkpt><trkpt lat="42.5438535" lon="5.6024416"><ele>0.0</ele><time>2026-04-30T18:48:20.088Z</time></trkpt><trkpt lat="42.5438825" lon="5.6025268"><ele>0.0</ele><time>2026-04-30T18:48:21.089Z</time></trkpt><trkpt lat="42.5439105" lon="5.6026131"><ele>0.0</ele><time>2026-04-30T18:48:22.089Z</time></trkpt><trkpt lat="42.543943" lon="5.6026998"><ele>0.0</ele><time>2026-04-30T18:48:23.089Z</time></trkpt><trkpt lat="42.5439759" lon="5.6027853"><ele>0.0</ele><time>2026-04-30T18:48:24.088Z</time></trkpt><trkpt lat="42.5440066" lon="5.6028705"><ele>0.0</ele><time>2026-04-30T18:48:25.089Z</time></trkpt><trkpt lat="42.5440336" lon="5.6029611"><ele>0.0</ele><time>2026-04-30T18:48:26.089Z</time></trkpt><trkpt lat="42.5440589" lon="5.6030513"><ele>0.0</ele><time>2026-04-30T18:48:27.089Z</time></trkpt><trkpt lat="42.5440858" lon="5.6031425"><ele>0.0</ele><time>2026-04-30T18:48:28.088Z</time></trkpt><trkpt lat="42.5441136" lon="5.603233"><ele>0.0</ele><time>2026-04-30T18:48:29.088Z</time></trkpt><trkpt lat="42.5441391" lon="5.6033228"><ele>0.0</ele><time>2026-04-30T18:48:30.088Z</time></trkpt><trkpt lat="42.5441658" lon="5.6034127"><ele>0.0</ele><time>2026-04-30T18:48:31.088Z</time></trkpt><trkpt lat="42.5442143" lon="5.6035974"><ele>0.0</ele><time>2026-04-30T18:48:33.088Z</time></trkpt><trkpt lat="42.544238" lon="5.603689"><ele>0.0</ele><time>2026-04-30T18:48:34.088Z</time></trkpt><trkpt lat="42.5442623" lon="5.603781"><ele>0.0</ele><time>2026-04-30T18:48:35.089Z</time></trkpt><trkpt lat="42.5442875" lon="5.6038743"><ele>0.0</ele><time>2026-04-30T18:48:36.088Z</time></trkpt><trkpt lat="42.5443125" lon="5.6039648"><ele>0.0</ele><time>2026-04-30T18:48:37.088Z</time></trkpt><trkpt lat="42.5443637" lon="5.6041498"><ele>0.0</ele><time>2026-04-30T18:48:39.088Z</time></trkpt><trkpt lat="42.5444" lon="5.6042386"><ele>0.0</ele><time>2026-04-30T18:48:40.088Z</time></trkpt><trkpt lat="42.544437" lon="5.6043271"><ele>0.0</ele><time>2026-04-30T18:48:41.088Z</time></trkpt><trkpt lat="42.5444711" lon="5.6044139"><ele>0.0</ele><time>2026-04-30T18:48:42.088Z</time></trkpt><trkpt lat="42.5445088" lon="5.6044992"><ele>0.0</ele><time>2026-04-30T18:48:43.088Z</time></trkpt><trkpt lat="42.5445424" lon="5.6045873"><ele>0.0</ele><time>2026-04-30T18:48:44.088Z</time></trkpt><trkpt lat="42.5445746" lon="5.6046755"><ele>0.0</ele><time>2026-04-30T18:48:45.089Z</time></trkpt><trkpt lat="42.5446051" lon="5.6047638"><ele>0.0</ele><time>2026-04-30T18:48:46.088Z</time></trkpt><trkpt lat="42.5446353" lon="5.6048488"><ele>0.0</ele><time>2026-04-30T18:48:47.088Z</time></trkpt><trkpt lat="42.5446618" lon="5.6049355"><ele>0.0</ele><time>2026-04-30T18:48:48.089Z</time></trkpt><trkpt lat="42.5446872" lon="5.6050294"><ele>0.0</ele><time>2026-04-30T18:48:49.089Z</time></trkpt><trkpt lat="42.5447152" lon="5.6051232"><ele>0.0</ele><time>2026-04-30T18:48:50.089Z</time></trkpt><trkpt lat="42.5447424" lon="5.6052162"><ele>0.0</ele><time>2026-04-30T18:48:51.088Z</time></trkpt><trkpt lat="42.5447674" lon="5.6053113"><ele>0.0</ele><time>2026-04-30T18:48:52.088Z</time></trkpt><trkpt lat="42.5447932" lon="5.6054036"><ele>0.0</ele><time>2026-04-30T18:48:53.088Z</time></trkpt><trkpt lat="42.5448231" lon="5.6054979"><ele>0.0</ele><time>2026-04-30T18:48:54.089Z</time></trkpt><trkpt lat="42.5448575" lon="5.6055886"><ele>0.0</ele><time>2026-04-30T18:48:55.088Z</time></trkpt><trkpt lat="42.5448826" lon="5.605683"><ele>0.0</ele><time>2026-04-30T18:48:56.089Z</time></trkpt><trkpt lat="42.5449029" lon="5.605781"><ele>0.0</ele><time>2026-04-30T18:48:57.088Z</time></trkpt><trkpt lat="42.5449432" lon="5.6059794"><ele>0.0</ele><time>2026-04-30T18:48:59.088Z</time></trkpt><trkpt lat="42.5449656" lon="5.6060805"><ele>0.0</ele><time>2026-04-30T18:49:00.089Z</time></trkpt><trkpt lat="42.5449821" lon="5.6061834"><ele>0.0</ele><time>2026-04-30T18:49:01.089Z</time></trkpt><trkpt lat="42.5449999" lon="5.6062781"><ele>0.0</ele><time>2026-04-30T18:49:02.088Z</time></trkpt><trkpt lat="42.5450271" lon="5.6063759"><ele>0.0</ele><time>2026-04-30T18:49:03.089Z</time></trkpt><trkpt lat="42.5450766" lon="5.6065686"><ele>0.0</ele><time>2026-04-30T18:49:05.089Z</time></trkpt><trkpt lat="42.5450999" lon="5.6066618"><ele>0.0</ele><time>2026-04-30T18:49:06.088Z</time></trkpt><trkpt lat="42.5451285" lon="5.6067494"><ele>0.0</ele><time>2026-04-30T18:49:07.088Z</time></trkpt><trkpt lat="42.5451567" lon="5.6068434"><ele>0.0</ele><time>2026-04-30T18:49:08.088Z</time></trkpt><trkpt lat="42.5451807" lon="5.6069424"><ele>0.0</ele><time>2026-04-30T18:49:09.088Z</time></trkpt><trkpt lat="42.5452071" lon="5.6070467"><ele>0.0</ele><time>2026-04-30T18:49:10.089Z</time></trkpt><trkpt lat="42.5452379" lon="5.6071391"><ele>0.0</ele><time>2026-04-30T18:49:11.088Z</time></trkpt><trkpt lat="42.5452694" lon="5.6072334"><ele>0.0</ele><time>2026-04-30T18:49:12.088Z</time></trkpt><trkpt lat="42.5453018" lon="5.6073266"><ele>0.0</ele><time>2026-04-30T18:49:13.088Z</time></trkpt><trkpt lat="42.5453365" lon="5.6074186"><ele>0.0</ele><time>2026-04-30T18:49:14.088Z</time></trkpt><trkpt lat="42.5453673" lon="5.6075133"><ele>0.0</ele><time>2026-04-30T18:49:15.088Z</time></trkpt><trkpt lat="42.5453955" lon="5.6076096"><ele>0.0</ele><time>2026-04-30T18:49:16.088Z</time></trkpt><trkpt lat="42.5454256" lon="5.6077032"><ele>0.0</ele><time>2026-04-30T18:49:17.088Z</time></trkpt><trkpt lat="42.5454542" lon="5.6077995"><ele>0.0</ele><time>2026-04-30T18:49:18.088Z</time></trkpt><trkpt lat="42.5455061" lon="5.6080053"><ele>0.0</ele><time>2026-04-30T18:49:20.089Z</time></trkpt><trkpt lat="42.5455289" lon="5.6080989"><ele>0.0</ele><time>2026-04-30T18:49:21.088Z</time></trkpt><trkpt lat="42.5455624" lon="5.6081865"><ele>0.0</ele><time>2026-04-30T18:49:22.089Z</time></trkpt><trkpt lat="42.5456003" lon="5.6082735"><ele>0.0</ele><time>2026-04-30T18:49:23.089Z</time></trkpt><trkpt lat="42.5456341" lon="5.6083687"><ele>0.0</ele><time>2026-04-30T18:49:24.088Z</time></trkpt><trkpt lat="42.5456606" lon="5.6084633"><ele>0.0</ele><time>2026-04-30T18:49:25.088Z</time></trkpt><trkpt lat="42.5456882" lon="5.6085597"><ele>0.0</ele><time>2026-04-30T18:49:26.088Z</time></trkpt><trkpt lat="42.5457183" lon="5.6086552"><ele>0.0</ele><time>2026-04-30T18:49:27.089Z</time></trkpt><trkpt lat="42.5457451" lon="5.6087545"><ele>0.0</ele><time>2026-04-30T18:49:28.089Z</time></trkpt><trkpt lat="42.5457716" lon="5.6088518"><ele>0.0</ele><time>2026-04-30T18:49:29.088Z</time></trkpt><trkpt lat="42.5458025" lon="5.6089514"><ele>0.0</ele><time>2026-04-30T18:49:30.089Z</time></trkpt><trkpt lat="42.545833" lon="5.6090471"><ele>0.0</ele><time>2026-04-30T18:49:31.088Z</time></trkpt><trkpt lat="42.5458601" lon="5.6091463"><ele>0.0</ele><time>2026-04-30T18:49:32.089Z</time></trkpt><trkpt lat="42.5458885" lon="5.6092431"><ele>0.0</ele><time>2026-04-30T18:49:33.089Z</time></trkpt><trkpt lat="42.5459156" lon="5.6093426"><ele>0.0</ele><time>2026-04-30T18:49:34.089Z</time></trkpt><trkpt lat="42.5459397" lon="5.6094427"><ele>0.0</ele><time>2026-04-30T18:49:35.088Z</time></trkpt><trkpt lat="42.5459971" lon="5.6096406"><ele>0.0</ele><time>2026-04-30T18:49:37.088Z</time></trkpt><trkpt lat="42.5460267" lon="5.6097336"><ele>0.0</ele><time>2026-04-30T18:49:38.089Z</time></trkpt><trkpt lat="42.5460553" lon="5.6098328"><ele>0.0</ele><time>2026-04-30T18:49:39.088Z</time></trkpt><trkpt lat="42.5461225" lon="5.6100289"><ele>0.0</ele><time>2026-04-30T18:49:41.089Z</time></trkpt><trkpt lat="42.5461475" lon="5.6101295"><ele>0.0</ele><time>2026-04-30T18:49:42.089Z</time></trkpt><trkpt lat="42.5461738" lon="5.6102296"><ele>0.0</ele><time>2026-04-30T18:49:43.088Z</time></trkpt><trkpt lat="42.5462006" lon="5.61033"><ele>0.0</ele><time>2026-04-30T18:49:44.088Z</time></trkpt><trkpt lat="42.5462387" lon="5.6104271"><ele>0.0</ele><time>2026-04-30T18:49:45.089Z</time></trkpt><trkpt lat="42.5462798" lon="5.6105236"><ele>0.0</ele><time>2026-04-30T18:49:46.088Z</time></trkpt><trkpt lat="42.5463174" lon="5.610622"><ele>0.0</ele><time>2026-04-30T18:49:47.088Z</time></trkpt><trkpt lat="42.546351" lon="5.6107203"><ele>0.0</ele><time>2026-04-30T18:49:48.089Z</time></trkpt><trkpt lat="42.5463805" lon="5.6108156"><ele>0.0</ele><time>2026-04-30T18:49:49.088Z</time></trkpt><trkpt lat="42.5464153" lon="5.6109097"><ele>0.0</ele><time>2026-04-30T18:49:50.089Z</time></trkpt><trkpt lat="42.5464447" lon="5.6110028"><ele>0.0</ele><time>2026-04-30T18:49:51.088Z</time></trkpt><trkpt lat="42.5464721" lon="5.6110988"><ele>0.0</ele><time>2026-04-30T18:49:52.088Z</time></trkpt><trkpt lat="42.5465084" lon="5.6111953"><ele>0.0</ele><time>2026-04-30T18:49:53.089Z</time></trkpt><trkpt lat="42.5465397" lon="5.6112951"><ele>0.0</ele><time>2026-04-30T18:49:54.088Z</time></trkpt><trkpt lat="42.5465671" lon="5.6114035"><ele>0.0</ele><time>2026-04-30T18:49:55.088Z</time></trkpt><trkpt lat="42.5465953" lon="5.6115105"><ele>0.0</ele><time>2026-04-30T18:49:56.088Z</time></trkpt><trkpt lat="42.546625" lon="5.6116114"><ele>0.0</ele><time>2026-04-30T18:49:57.089Z</time></trkpt><trkpt lat="42.5466562" lon="5.6117132"><ele>0.0</ele><time>2026-04-30T18:49:58.089Z</time></trkpt><trkpt lat="42.5466907" lon="5.6118109"><ele>0.0</ele><time>2026-04-30T18:49:59.088Z</time></trkpt><trkpt lat="42.5467217" lon="5.6119101"><ele>0.0</ele><time>2026-04-30T18:50:00.088Z</time></trkpt><trkpt lat="42.5467863" lon="5.6121051"><ele>0.0</ele><time>2026-04-30T18:50:02.088Z</time></trkpt><trkpt lat="42.5468199" lon="5.612205"><ele>0.0</ele><time>2026-04-30T18:50:03.089Z</time></trkpt><trkpt lat="42.5468532" lon="5.6123036"><ele>0.0</ele><time>2026-04-30T18:50:04.088Z</time></trkpt><trkpt lat="42.5468926" lon="5.6124004"><ele>0.0</ele><time>2026-04-30T18:50:05.088Z</time></trkpt><trkpt lat="42.5469193" lon="5.6124984"><ele>0.0</ele><time>2026-04-30T18:50:06.089Z</time></trkpt><trkpt lat="42.5469458" lon="5.6125966"><ele>0.0</ele><time>2026-04-30T18:50:07.089Z</time></trkpt><trkpt lat="42.5470004" lon="5.6127999"><ele>0.0</ele><time>2026-04-30T18:50:09.088Z</time></trkpt><trkpt lat="42.5470303" lon="5.6129"><ele>0.0</ele><time>2026-04-30T18:50:10.089Z</time></trkpt><trkpt lat="42.5470618" lon="5.6130032"><ele>0.0</ele><time>2026-04-30T18:50:11.089Z</time></trkpt><trkpt lat="42.5470908" lon="5.6131064"><ele>0.0</ele><time>2026-04-30T18:50:12.088Z</time></trkpt><trkpt lat="42.547116" lon="5.6132212"><ele>0.0</ele><time>2026-04-30T18:50:13.088Z</time></trkpt><trkpt lat="42.5471442" lon="5.6133247"><ele>0.0</ele><time>2026-04-30T18:50:14.089Z</time></trkpt><trkpt lat="42.5471752" lon="5.6134225"><ele>0.0</ele><time>2026-04-30T18:50:15.088Z</time></trkpt><trkpt lat="42.5472036" lon="5.6135291"><ele>0.0</ele><time>2026-04-30T18:50:16.089Z</time></trkpt><trkpt lat="42.5472278" lon="5.6136386"><ele>0.0</ele><time>2026-04-30T18:50:17.089Z</time></trkpt><trkpt lat="42.5472663" lon="5.6137403"><ele>0.0</ele><time>2026-04-30T18:50:18.089Z</time></trkpt><trkpt lat="42.5473049" lon="5.6138376"><ele>0.0</ele><time>2026-04-30T18:50:19.088Z</time></trkpt><trkpt lat="42.5473348" lon="5.6139398"><ele>0.0</ele><time>2026-04-30T18:50:20.088Z</time></trkpt><trkpt lat="42.5473576" lon="5.6140404"><ele>0.0</ele><time>2026-04-30T18:50:21.088Z</time></trkpt><trkpt lat="42.547411" lon="5.6142455"><ele>0.0</ele><time>2026-04-30T18:50:23.088Z</time></trkpt><trkpt lat="42.5474343" lon="5.6143566"><ele>0.0</ele><time>2026-04-30T18:50:24.088Z</time></trkpt><trkpt lat="42.5474648" lon="5.614467"><ele>0.0</ele><time>2026-04-30T18:50:25.088Z</time></trkpt><trkpt lat="42.5474997" lon="5.614574"><ele>0.0</ele><time>2026-04-30T18:50:26.088Z</time></trkpt><trkpt lat="42.5475246" lon="5.6146836"><ele>0.0</ele><time>2026-04-30T18:50:27.089Z</time></trkpt><trkpt lat="42.547552" lon="5.614788"><ele>0.0</ele><time>2026-04-30T18:50:28.089Z</time></trkpt><trkpt lat="42.5475787" lon="5.6148928"><ele>0.0</ele><time>2026-04-30T18:50:29.088Z</time></trkpt><trkpt lat="42.5476025" lon="5.6150025"><ele>0.0</ele><time>2026-04-30T18:50:30.089Z</time></trkpt><trkpt lat="42.5476273" lon="5.6151096"><ele>0.0</ele><time>2026-04-30T18:50:31.089Z</time></trkpt><trkpt lat="42.5476524" lon="5.6152118"><ele>0.0</ele><time>2026-04-30T18:50:32.088Z</time></trkpt><trkpt lat="42.5476788" lon="5.6153135"><ele>0.0</ele><time>2026-04-30T18:50:33.088Z</time></trkpt><trkpt lat="42.5477029" lon="5.6154151"><ele>0.0</ele><time>2026-04-30T18:50:34.088Z</time></trkpt><trkpt lat="42.5477264" lon="5.6155198"><ele>0.0</ele><time>2026-04-30T18:50:35.088Z</time></trkpt><trkpt lat="42.5477535" lon="5.6156179"><ele>0.0</ele><time>2026-04-30T18:50:36.088Z</time></trkpt><trkpt lat="42.5477862" lon="5.6157128"><ele>0.0</ele><time>2026-04-30T18:50:37.089Z</time></trkpt><trkpt lat="42.5478224" lon="5.6158077"><ele>0.0</ele><time>2026-04-30T18:50:38.088Z</time></trkpt><trkpt lat="42.5478505" lon="5.6159032"><ele>0.0</ele><time>2026-04-30T18:50:39.089Z</time></trkpt><trkpt lat="42.5479028" lon="5.6161076"><ele>0.0</ele><time>2026-04-30T18:50:41.088Z</time></trkpt><trkpt lat="42.5479422" lon="5.6162098"><ele>0.0</ele><time>2026-04-30T18:50:42.088Z</time></trkpt><trkpt lat="42.5480138" lon="5.61641"><ele>0.0</ele><time>2026-04-30T18:50:44.089Z</time></trkpt><trkpt lat="42.5480405" lon="5.6165148"><ele>0.0</ele><time>2026-04-30T18:50:45.088Z</time></trkpt><trkpt lat="42.5480786" lon="5.6166168"><ele>0.0</ele><time>2026-04-30T18:50:46.088Z</time></trkpt><trkpt lat="42.5481157" lon="5.6167154"><ele>0.0</ele><time>2026-04-30T18:50:47.088Z</time></trkpt><trkpt lat="42.5481508" lon="5.6168153"><ele>0.0</ele><time>2026-04-30T18:50:48.089Z</time></trkpt><trkpt lat="42.548186" lon="5.6169152"><ele>0.0</ele><time>2026-04-30T18:50:49.088Z</time></trkpt><trkpt lat="42.5482215" lon="5.6170167"><ele>0.0</ele><time>2026-04-30T18:50:50.088Z</time></trkpt><trkpt lat="42.5482491" lon="5.6171184"><ele>0.0</ele><time>2026-04-30T18:50:51.089Z</time></trkpt><trkpt lat="42.5482774" lon="5.6172228"><ele>0.0</ele><time>2026-04-30T18:50:52.088Z</time></trkpt><trkpt lat="42.5483031" lon="5.6173283"><ele>0.0</ele><time>2026-04-30T18:50:53.088Z</time></trkpt><trkpt lat="42.5483312" lon="5.6174314"><ele>0.0</ele><time>2026-04-30T18:50:54.088Z</time></trkpt><trkpt lat="42.5483581" lon="5.6175347"><ele>0.0</ele><time>2026-04-30T18:50:55.088Z</time></trkpt><trkpt lat="42.5483843" lon="5.6176423"><ele>0.0</ele><time>2026-04-30T18:50:56.089Z</time></trkpt><trkpt lat="42.5484095" lon="5.6177497"><ele>0.0</ele><time>2026-04-30T18:50:57.089Z</time></trkpt><trkpt lat="42.5484428" lon="5.6178503"><ele>0.0</ele><time>2026-04-30T18:50:58.088Z</time></trkpt><trkpt lat="42.5484794" lon="5.6179503"><ele>0.0</ele><time>2026-04-30T18:50:59.088Z</time></trkpt><trkpt lat="42.5485158" lon="5.6180508"><ele>0.0</ele><time>2026-04-30T18:51:00.089Z</time></trkpt><trkpt lat="42.5485481" lon="5.6181517"><ele>0.0</ele><time>2026-04-30T18:51:01.089Z</time></trkpt><trkpt lat="42.5485786" lon="5.6182535"><ele>0.0</ele><time>2026-04-30T18:51:02.088Z</time></trkpt><trkpt lat="42.5486087" lon="5.6183553"><ele>0.0</ele><time>2026-04-30T18:51:03.088Z</time></trkpt><trkpt lat="42.5486803" lon="5.6185572"><ele>0.0</ele><time>2026-04-30T18:51:05.089Z</time></trkpt><trkpt lat="42.5487137" lon="5.6186602"><ele>0.0</ele><time>2026-04-30T18:51:06.088Z</time></trkpt><trkpt lat="42.548744" lon="5.6187635"><ele>0.0</ele><time>2026-04-30T18:51:07.089Z</time></trkpt><trkpt lat="42.5487726" lon="5.6188666"><ele>0.0</ele><time>2026-04-30T18:51:08.088Z</time></trkpt><trkpt lat="42.5487982" lon="5.6189727"><ele>0.0</ele><time>2026-04-30T18:51:09.088Z</time></trkpt><trkpt lat="42.5488253" lon="5.6190783"><ele>0.0</ele><time>2026-04-30T18:51:10.088Z</time></trkpt><trkpt lat="42.5488566" lon="5.6191832"><ele>0.0</ele><time>2026-04-30T18:51:11.089Z</time></trkpt><trkpt lat="42.5489231" lon="5.6193853"><ele>0.0</ele><time>2026-04-30T18:51:13.088Z</time></trkpt><trkpt lat="42.5489537" lon="5.6194867"><ele>0.0</ele><time>2026-04-30T18:51:14.089Z</time></trkpt><trkpt lat="42.5489877" lon="5.6195842"><ele>0.0</ele><time>2026-04-30T18:51:15.089Z</time></trkpt><trkpt lat="42.5490218" lon="5.6196851"><ele>0.0</ele><time>2026-04-30T18:51:16.089Z</time></trkpt><trkpt lat="42.5490489" lon="5.6197887"><ele>0.0</ele><time>2026-04-30T18:51:17.088Z</time></trkpt><trkpt lat="42.5490802" lon="5.6198876"><ele>0.0</ele><time>2026-04-30T18:51:18.089Z</time></trkpt><trkpt lat="42.5491106" lon="5.6199873"><ele>0.0</ele><time>2026-04-30T18:51:19.089Z</time></trkpt><trkpt lat="42.5491459" lon="5.6200875"><ele>0.0</ele><time>2026-04-30T18:51:20.088Z</time></trkpt><trkpt lat="42.5491783" lon="5.6201887"><ele>0.0</ele><time>2026-04-30T18:51:21.088Z</time></trkpt><trkpt lat="42.5492101" lon="5.6202889"><ele>0.0</ele><time>2026-04-30T18:51:22.088Z</time></trkpt><trkpt lat="42.5492416" lon="5.6203917"><ele>0.0</ele><time>2026-04-30T18:51:23.088Z</time></trkpt><trkpt lat="42.5492765" lon="5.620495"><ele>0.0</ele><time>2026-04-30T18:51:24.089Z</time></trkpt><trkpt lat="42.5493356" lon="5.6207027"><ele>0.0</ele><time>2026-04-30T18:51:26.088Z</time></trkpt><trkpt lat="42.5493654" lon="5.6208094"><ele>0.0</ele><time>2026-04-30T18:51:27.088Z</time></trkpt><trkpt lat="42.5493952" lon="5.6209133"><ele>0.0</ele><time>2026-04-30T18:51:28.089Z</time></trkpt><trkpt lat="42.5494238" lon="5.6210155"><ele>0.0</ele><time>2026-04-30T18:51:29.088Z</time></trkpt><trkpt lat="42.5494537" lon="5.6211184"><ele>0.0</ele><time>2026-04-30T18:51:30.088Z</time></trkpt><trkpt lat="42.5494866" lon="5.6212218"><ele>0.0</ele><time>2026-04-30T18:51:31.088Z</time></trkpt><trkpt lat="42.5495188" lon="5.6213235"><ele>0.0</ele><time>2026-04-30T18:51:32.089Z</time></trkpt><trkpt lat="42.5495476" lon="5.6214293"><ele>0.0</ele><time>2026-04-30T18:51:33.088Z</time></trkpt><trkpt lat="42.549572" lon="5.6215374"><ele>0.0</ele><time>2026-04-30T18:51:34.089Z</time></trkpt><trkpt lat="42.5496007" lon="5.6216416"><ele>0.0</ele><time>2026-04-30T18:51:35.089Z</time></trkpt><trkpt lat="42.5496311" lon="5.6217432"><ele>0.0</ele><time>2026-04-30T18:51:36.089Z</time></trkpt><trkpt lat="42.5496639" lon="5.6218463"><ele>0.0</ele><time>2026-04-30T18:51:37.089Z</time></trkpt><trkpt lat="42.5496998" lon="5.6219525"><ele>0.0</ele><time>2026-04-30T18:51:38.088Z</time></trkpt><trkpt lat="42.5497291" lon="5.622055"><ele>0.0</ele><time>2026-04-30T18:51:39.089Z</time></trkpt><trkpt lat="42.5497606" lon="5.6221567"><ele>0.0</ele><time>2026-04-30T18:51:40.088Z</time></trkpt><trkpt lat="42.5497939" lon="5.6222611"><ele>0.0</ele><time>2026-04-30T18:51:41.089Z</time></trkpt><trkpt lat="42.549829" lon="5.6223678"><ele>0.0</ele><time>2026-04-30T18:51:42.088Z</time></trkpt><trkpt lat="42.5498944" lon="5.6225818"><ele>0.0</ele><time>2026-04-30T18:51:44.089Z</time></trkpt><trkpt lat="42.5499272" lon="5.6226836"><ele>0.0</ele><time>2026-04-30T18:51:45.089Z</time></trkpt><trkpt lat="42.5500044" lon="5.6228853"><ele>0.0</ele><time>2026-04-30T18:51:47.089Z</time></trkpt><trkpt lat="42.5500395" lon="5.6229883"><ele>0.0</ele><time>2026-04-30T18:51:48.089Z</time></trkpt><trkpt lat="42.5500745" lon="5.623093"><ele>0.0</ele><time>2026-04-30T18:51:49.089Z</time></trkpt><trkpt lat="42.5501065" lon="5.623198"><ele>0.0</ele><time>2026-04-30T18:51:50.088Z</time></trkpt><trkpt lat="42.5501398" lon="5.6233029"><ele>0.0</ele><time>2026-04-30T18:51:51.088Z</time></trkpt><trkpt lat="42.5501724" lon="5.6234077"><ele>0.0</ele><time>2026-04-30T18:51:52.089Z</time></trkpt><trkpt lat="42.550201" lon="5.6235159"><ele>0.0</ele><time>2026-04-30T18:51:53.089Z</time></trkpt><trkpt lat="42.5502302" lon="5.6236231"><ele>0.0</ele><time>2026-04-30T18:51:54.088Z</time></trkpt><trkpt lat="42.5502608" lon="5.6237292"><ele>0.0</ele><time>2026-04-30T18:51:55.089Z</time></trkpt><trkpt lat="42.5502878" lon="5.6238405"><ele>0.0</ele><time>2026-04-30T18:51:56.089Z</time></trkpt><trkpt lat="42.55032" lon="5.6239484"><ele>0.0</ele><time>2026-04-30T18:51:57.089Z</time></trkpt><trkpt lat="42.5503564" lon="5.6240444"><ele>0.0</ele><time>2026-04-30T18:51:58.088Z</time></trkpt><trkpt lat="42.5503886" lon="5.6241481"><ele>0.0</ele><time>2026-04-30T18:51:59.089Z</time></trkpt><trkpt lat="42.5504213" lon="5.6242522"><ele>0.0</ele><time>2026-04-30T18:52:00.088Z</time></trkpt><trkpt lat="42.550453" lon="5.624354"><ele>0.0</ele><time>2026-04-30T18:52:01.088Z</time></trkpt><trkpt lat="42.5504871" lon="5.6244595"><ele>0.0</ele><time>2026-04-30T18:52:02.088Z</time></trkpt><trkpt lat="42.5505199" lon="5.6245717"><ele>0.0</ele><time>2026-04-30T18:52:03.089Z</time></trkpt><trkpt lat="42.5505518" lon="5.6246814"><ele>0.0</ele><time>2026-04-30T18:52:04.089Z</time></trkpt><trkpt lat="42.5505816" lon="5.6247874"><ele>0.0</ele><time>2026-04-30T18:52:05.088Z</time></trkpt><trkpt lat="42.5506143" lon="5.6248933"><ele>0.0</ele><time>2026-04-30T18:52:06.088Z</time></trkpt><trkpt lat="42.5506802" lon="5.6250982"><ele>0.0</ele><time>2026-04-30T18:52:08.089Z</time></trkpt><trkpt lat="42.5507108" lon="5.6252043"><ele>0.0</ele><time>2026-04-30T18:52:09.088Z</time></trkpt><trkpt lat="42.550741" lon="5.625311"><ele>0.0</ele><time>2026-04-30T18:52:10.088Z</time></trkpt><trkpt lat="42.5507769" lon="5.6254107"><ele>0.0</ele><time>2026-04-30T18:52:11.088Z</time></trkpt><trkpt lat="42.5508094" lon="5.6255086"><ele>0.0</ele><time>2026-04-30T18:52:12.088Z</time></trkpt><trkpt lat="42.5508398" lon="5.6256069"><ele>0.0</ele><time>2026-04-30T18:52:13.088Z</time></trkpt><trkpt lat="42.5508754" lon="5.6256984"><ele>0.0</ele><time>2026-04-30T18:52:14.088Z</time></trkpt><trkpt lat="42.5509066" lon="5.6257987"><ele>0.0</ele><time>2026-04-30T18:52:15.088Z</time></trkpt><trkpt lat="42.5509375" lon="5.6259015"><ele>0.0</ele><time>2026-04-30T18:52:16.088Z</time></trkpt><trkpt lat="42.5509724" lon="5.6260043"><ele>0.0</ele><time>2026-04-30T18:52:17.088Z</time></trkpt><trkpt lat="42.5510098" lon="5.6260993"><ele>0.0</ele><time>2026-04-30T18:52:18.088Z</time></trkpt><trkpt lat="42.5510455" lon="5.6262011"><ele>0.0</ele><time>2026-04-30T18:52:19.089Z</time></trkpt><trkpt lat="42.551082" lon="5.6263046"><ele>0.0</ele><time>2026-04-30T18:52:20.089Z</time></trkpt><trkpt lat="42.5511212" lon="5.6264095"><ele>0.0</ele><time>2026-04-30T18:52:21.089Z</time></trkpt><trkpt lat="42.551155" lon="5.6265118"><ele>0.0</ele><time>2026-04-30T18:52:22.089Z</time></trkpt><trkpt lat="42.551197" lon="5.6266089"><ele>0.0</ele><time>2026-04-30T18:52:23.088Z</time></trkpt><trkpt lat="42.5512463" lon="5.6267011"><ele>0.0</ele><time>2026-04-30T18:52:24.088Z</time></trkpt><trkpt lat="42.5512845" lon="5.6268007"><ele>0.0</ele><time>2026-04-30T18:52:25.088Z</time></trkpt><trkpt lat="42.5513346" lon="5.626899"><ele>0.0</ele><time>2026-04-30T18:52:26.088Z</time></trkpt><trkpt lat="42.5513751" lon="5.6270071"><ele>0.0</ele><time>2026-04-30T18:52:27.089Z</time></trkpt><trkpt lat="42.5514464" lon="5.6272227"><ele>0.0</ele><time>2026-04-30T18:52:29.089Z</time></trkpt><trkpt lat="42.5514833" lon="5.627325"><ele>0.0</ele><time>2026-04-30T18:52:30.088Z</time></trkpt><trkpt lat="42.5515232" lon="5.6274307"><ele>0.0</ele><time>2026-04-30T18:52:31.089Z</time></trkpt><trkpt lat="42.5515615" lon="5.6275378"><ele>0.0</ele><time>2026-04-30T18:52:32.088Z</time></trkpt><trkpt lat="42.5515958" lon="5.627643"><ele>0.0</ele><time>2026-04-30T18:52:33.089Z</time></trkpt><trkpt lat="42.5516307" lon="5.6277495"><ele>0.0</ele><time>2026-04-30T18:52:34.089Z</time></trkpt><trkpt lat="42.5516684" lon="5.6278551"><ele>0.0</ele><time>2026-04-30T18:52:35.088Z</time></trkpt><trkpt lat="42.5517025" lon="5.6279581"><ele>0.0</ele><time>2026-04-30T18:52:36.088Z</time></trkpt><trkpt lat="42.5517385" lon="5.6280629"><ele>0.0</ele><time>2026-04-30T18:52:37.088Z</time></trkpt><trkpt lat="42.5517753" lon="5.6281635"><ele>0.0</ele><time>2026-04-30T18:52:38.089Z</time></trkpt><trkpt lat="42.5518129" lon="5.6282666"><ele>0.0</ele><time>2026-04-30T18:52:39.089Z</time></trkpt><trkpt lat="42.5518538" lon="5.6283673"><ele>0.0</ele><time>2026-04-30T18:52:40.088Z</time></trkpt><trkpt lat="42.5519" lon="5.6284667"><ele>0.0</ele><time>2026-04-30T18:52:41.089Z</time></trkpt><trkpt lat="42.551941" lon="5.6285685"><ele>0.0</ele><time>2026-04-30T18:52:42.088Z</time></trkpt><trkpt lat="42.5519756" lon="5.6286727"><ele>0.0</ele><time>2026-04-30T18:52:43.089Z</time></trkpt><trkpt lat="42.5520127" lon="5.628778"><ele>0.0</ele><time>2026-04-30T18:52:44.087Z</time></trkpt><trkpt lat="42.5520569" lon="5.6288763"><ele>0.0</ele><time>2026-04-30T18:52:45.088Z</time></trkpt><trkpt lat="42.552099" lon="5.6289755"><ele>0.0</ele><time>2026-04-30T18:52:46.087Z</time></trkpt><trkpt lat="42.5521309" lon="5.6290838"><ele>0.0</ele><time>2026-04-30T18:52:47.088Z</time></trkpt><trkpt lat="42.5522289" lon="5.6294095"><ele>0.0</ele><time>2026-04-30T18:52:50.087Z</time></trkpt><trkpt lat="42.5522619" lon="5.6295134"><ele>0.0</ele><time>2026-04-30T18:52:51.088Z</time></trkpt><trkpt lat="42.5522968" lon="5.6296182"><ele>0.0</ele><time>2026-04-30T18:52:52.088Z</time></trkpt><trkpt lat="42.552339" lon="5.6297186"><ele>0.0</ele><time>2026-04-30T18:52:53.088Z</time></trkpt><trkpt lat="42.5523777" lon="5.6298202"><ele>0.0</ele><time>2026-04-30T18:52:54.087Z</time></trkpt><trkpt lat="42.5524116" lon="5.6299246"><ele>0.0</ele><time>2026-04-30T18:52:55.088Z</time></trkpt><trkpt lat="42.5524436" lon="5.6300353"><ele>0.0</ele><time>2026-04-30T18:52:56.087Z</time></trkpt><trkpt lat="42.5524756" lon="5.6301424"><ele>0.0</ele><time>2026-04-30T18:52:57.087Z</time></trkpt><trkpt lat="42.5525127" lon="5.6302451"><ele>0.0</ele><time>2026-04-30T18:52:58.088Z</time></trkpt><trkpt lat="42.5525483" lon="5.6303454"><ele>0.0</ele><time>2026-04-30T18:52:59.088Z</time></trkpt><trkpt lat="42.5525835" lon="5.6304496"><ele>0.0</ele><time>2026-04-30T18:53:00.087Z</time></trkpt><trkpt lat="42.5526252" lon="5.6305502"><ele>0.0</ele><time>2026-04-30T18:53:01.088Z</time></trkpt><trkpt lat="42.5526619" lon="5.630653"><ele>0.0</ele><time>2026-04-30T18:53:02.087Z</time></trkpt><trkpt lat="42.5526941" lon="5.6307607"><ele>0.0</ele><time>2026-04-30T18:53:03.088Z</time></trkpt><trkpt lat="42.5527257" lon="5.6308663"><ele>0.0</ele><time>2026-04-30T18:53:04.087Z</time></trkpt><trkpt lat="42.5527573" lon="5.6309711"><ele>0.0</ele><time>2026-04-30T18:53:05.088Z</time></trkpt><trkpt lat="42.5527892" lon="5.6310761"><ele>0.0</ele><time>2026-04-30T18:53:06.087Z</time></trkpt><trkpt lat="42.5528205" lon="5.6311827"><ele>0.0</ele><time>2026-04-30T18:53:07.087Z</time></trkpt><trkpt lat="42.5528537" lon="5.6312909"><ele>0.0</ele><time>2026-04-30T18:53:08.088Z</time></trkpt><trkpt lat="42.552887" lon="5.6313952"><ele>0.0</ele><time>2026-04-30T18:53:09.087Z</time></trkpt><trkpt lat="42.552962" lon="5.631597"><ele>0.0</ele><time>2026-04-30T18:53:11.087Z</time></trkpt><trkpt lat="42.5530008" lon="5.6316973"><ele>0.0</ele><time>2026-04-30T18:53:12.087Z</time></trkpt><trkpt lat="42.5530409" lon="5.6317996"><ele>0.0</ele><time>2026-04-30T18:53:13.088Z</time></trkpt><trkpt lat="42.5530768" lon="5.63191"><ele>0.0</ele><time>2026-04-30T18:53:14.087Z</time></trkpt><trkpt lat="42.5531165" lon="5.632017"><ele>0.0</ele><time>2026-04-30T18:53:15.088Z</time></trkpt><trkpt lat="42.5531548" lon="5.6321201"><ele>0.0</ele><time>2026-04-30T18:53:16.087Z</time></trkpt><trkpt lat="42.5531874" lon="5.6322244"><ele>0.0</ele><time>2026-04-30T18:53:17.087Z</time></trkpt><trkpt lat="42.5532193" lon="5.6323334"><ele>0.0</ele><time>2026-04-30T18:53:18.087Z</time></trkpt><trkpt lat="42.553252" lon="5.632455"><ele>0.0</ele><time>2026-04-30T18:53:19.088Z</time></trkpt><trkpt lat="42.5533202" lon="5.6326481"><ele>0.0</ele><time>2026-04-30T18:53:21.087Z</time></trkpt><trkpt lat="42.5533539" lon="5.6327458"><ele>0.0</ele><time>2026-04-30T18:53:22.087Z</time></trkpt><trkpt lat="42.553393" lon="5.6328502"><ele>0.0</ele><time>2026-04-30T18:53:23.088Z</time></trkpt><trkpt lat="42.5534256" lon="5.6329562"><ele>0.0</ele><time>2026-04-30T18:53:24.087Z</time></trkpt><trkpt lat="42.5534682" lon="5.6330531"><ele>0.0</ele><time>2026-04-30T18:53:25.088Z</time></trkpt><trkpt lat="42.5534948" lon="5.6331619"><ele>0.0</ele><time>2026-04-30T18:53:26.088Z</time></trkpt><trkpt lat="42.5535271" lon="5.633273"><ele>0.0</ele><time>2026-04-30T18:53:27.087Z</time></trkpt><trkpt lat="42.5535646" lon="5.6333786"><ele>0.0</ele><time>2026-04-30T18:53:28.087Z</time></trkpt><trkpt lat="42.5535986" lon="5.6334791"><ele>0.0</ele><time>2026-04-30T18:53:29.087Z</time></trkpt><trkpt lat="42.5536394" lon="5.6335847"><ele>0.0</ele><time>2026-04-30T18:53:30.087Z</time></trkpt><trkpt lat="42.5537129" lon="5.6338"><ele>0.0</ele><time>2026-04-30T18:53:32.087Z</time></trkpt><trkpt lat="42.5537515" lon="5.6339062"><ele>0.0</ele><time>2026-04-30T18:53:33.087Z</time></trkpt><trkpt lat="42.5537857" lon="5.6340145"><ele>0.0</ele><time>2026-04-30T18:53:34.088Z</time></trkpt><trkpt lat="42.5538161" lon="5.6341241"><ele>0.0</ele><time>2026-04-30T18:53:35.087Z</time></trkpt><trkpt lat="42.5538419" lon="5.6342383"><ele>0.0</ele><time>2026-04-30T18:53:36.088Z</time></trkpt><trkpt lat="42.5538742" lon="5.6343419"><ele>0.0</ele><time>2026-04-30T18:53:37.087Z</time></trkpt><trkpt lat="42.5539044" lon="5.634448"><ele>0.0</ele><time>2026-04-30T18:53:38.088Z</time></trkpt><trkpt lat="42.553937" lon="5.6345489"><ele>0.0</ele><time>2026-04-30T18:53:39.087Z</time></trkpt><trkpt lat="42.5539661" lon="5.6346466"><ele>0.0</ele><time>2026-04-30T18:53:40.087Z</time></trkpt><trkpt lat="42.554001" lon="5.6347429"><ele>0.0</ele><time>2026-04-30T18:53:41.088Z</time></trkpt><trkpt lat="42.554033" lon="5.6348325"><ele>0.0</ele><time>2026-04-30T18:53:42.087Z</time></trkpt><trkpt lat="42.5540701" lon="5.6349324"><ele>0.0</ele><time>2026-04-30T18:53:43.087Z</time></trkpt><trkpt lat="42.5541026" lon="5.6350325"><ele>0.0</ele><time>2026-04-30T18:53:44.087Z</time></trkpt><trkpt lat="42.5541312" lon="5.6351442"><ele>0.0</ele><time>2026-04-30T18:53:45.087Z</time></trkpt><trkpt lat="42.554161" lon="5.6352571"><ele>0.0</ele><time>2026-04-30T18:53:46.087Z</time></trkpt><trkpt lat="42.5541924" lon="5.6353543"><ele>0.0</ele><time>2026-04-30T18:53:47.087Z</time></trkpt><trkpt lat="42.5542243" lon="5.6354569"><ele>0.0</ele><time>2026-04-30T18:53:48.088Z</time></trkpt><trkpt lat="42.5542617" lon="5.6355615"><ele>0.0</ele><time>2026-04-30T18:53:49.087Z</time></trkpt><trkpt lat="42.5542958" lon="5.6356607"><ele>0.0</ele><time>2026-04-30T18:53:50.088Z</time></trkpt><trkpt lat="42.5543319" lon="5.6357664"><ele>0.0</ele><time>2026-04-30T18:53:51.087Z</time></trkpt><trkpt lat="42.5544121" lon="5.6359756"><ele>0.0</ele><time>2026-04-30T18:53:53.088Z</time></trkpt><trkpt lat="42.5544454" lon="5.6360833"><ele>0.0</ele><time>2026-04-30T18:53:54.088Z</time></trkpt><trkpt lat="42.5544786" lon="5.6361856"><ele>0.0</ele><time>2026-04-30T18:53:55.087Z</time></trkpt><trkpt lat="42.5545162" lon="5.6362888"><ele>0.0</ele><time>2026-04-30T18:53:56.087Z</time></trkpt><trkpt lat="42.5545546" lon="5.6363892"><ele>0.0</ele><time>2026-04-30T18:53:57.087Z</time></trkpt><trkpt lat="42.5545913" lon="5.6364908"><ele>0.0</ele><time>2026-04-30T18:53:58.087Z</time></trkpt><trkpt lat="42.5546279" lon="5.6365937"><ele>0.0</ele><time>2026-04-30T18:53:59.087Z</time></trkpt><trkpt lat="42.554662" lon="5.6367011"><ele>0.0</ele><time>2026-04-30T18:54:00.087Z</time></trkpt><trkpt lat="42.5547012" lon="5.6368095"><ele>0.0</ele><time>2026-04-30T18:54:01.087Z</time></trkpt><trkpt lat="42.5547426" lon="5.6369177"><ele>0.0</ele><time>2026-04-30T18:54:02.087Z</time></trkpt><trkpt lat="42.5547828" lon="5.6370259"><ele>0.0</ele><time>2026-04-30T18:54:03.087Z</time></trkpt><trkpt lat="42.5548228" lon="5.6371342"><ele>0.0</ele><time>2026-04-30T18:54:04.087Z</time></trkpt><trkpt lat="42.5548598" lon="5.6372412"><ele>0.0</ele><time>2026-04-30T18:54:05.088Z</time></trkpt><trkpt lat="42.5548965" lon="5.6373478"><ele>0.0</ele><time>2026-04-30T18:54:06.087Z</time></trkpt><trkpt lat="42.5549392" lon="5.6374487"><ele>0.0</ele><time>2026-04-30T18:54:07.088Z</time></trkpt><trkpt lat="42.5549771" lon="5.6375545"><ele>0.0</ele><time>2026-04-30T18:54:08.087Z</time></trkpt><trkpt lat="42.5550167" lon="5.6376614"><ele>0.0</ele><time>2026-04-30T18:54:09.088Z</time></trkpt><trkpt lat="42.5550496" lon="5.6377671"><ele>0.0</ele><time>2026-04-30T18:54:10.087Z</time></trkpt><trkpt lat="42.5550805" lon="5.6378677"><ele>0.0</ele><time>2026-04-30T18:54:11.087Z</time></trkpt><trkpt lat="42.5551212" lon="5.637967"><ele>0.0</ele><time>2026-04-30T18:54:12.087Z</time></trkpt><trkpt lat="42.5551555" lon="5.6380714"><ele>0.0</ele><time>2026-04-30T18:54:13.087Z</time></trkpt><trkpt lat="42.5552289" lon="5.6382783"><ele>0.0</ele><time>2026-04-30T18:54:15.088Z</time></trkpt><trkpt lat="42.5552695" lon="5.6383815"><ele>0.0</ele><time>2026-04-30T18:54:16.087Z</time></trkpt><trkpt lat="42.5553123" lon="5.6384821"><ele>0.0</ele><time>2026-04-30T18:54:17.087Z</time></trkpt><trkpt lat="42.555343" lon="5.638586"><ele>0.0</ele><time>2026-04-30T18:54:18.087Z</time></trkpt><trkpt lat="42.5553715" lon="5.6387008"><ele>0.0</ele><time>2026-04-30T18:54:19.088Z</time></trkpt><trkpt lat="42.5554031" lon="5.638813"><ele>0.0</ele><time>2026-04-30T18:54:20.088Z</time></trkpt><trkpt lat="42.5554359" lon="5.6389211"><ele>0.0</ele><time>2026-04-30T18:54:21.087Z</time></trkpt><trkpt lat="42.5554673" lon="5.639028"><ele>0.0</ele><time>2026-04-30T18:54:22.087Z</time></trkpt><trkpt lat="42.5555061" lon="5.6391318"><ele>0.0</ele><time>2026-04-30T18:54:23.087Z</time></trkpt><trkpt lat="42.5555867" lon="5.6393341"><ele>0.0</ele><time>2026-04-30T18:54:25.087Z</time></trkpt><trkpt lat="42.5556289" lon="5.6394357"><ele>0.0</ele><time>2026-04-30T18:54:26.088Z</time></trkpt><trkpt lat="42.5556751" lon="5.6395343"><ele>0.0</ele><time>2026-04-30T18:54:27.088Z</time></trkpt><trkpt lat="42.5557135" lon="5.6396365"><ele>0.0</ele><time>2026-04-30T18:54:28.088Z</time></trkpt><trkpt lat="42.5557554" lon="5.6397361"><ele>0.0</ele><time>2026-04-30T18:54:29.088Z</time></trkpt><trkpt lat="42.5557986" lon="5.6398366"><ele>0.0</ele><time>2026-04-30T18:54:30.087Z</time></trkpt><trkpt lat="42.5558434" lon="5.6399418"><ele>0.0</ele><time>2026-04-30T18:54:31.087Z</time></trkpt><trkpt lat="42.555886" lon="5.6400471"><ele>0.0</ele><time>2026-04-30T18:54:32.087Z</time></trkpt><trkpt lat="42.555922" lon="5.6401545"><ele>0.0</ele><time>2026-04-30T18:54:33.088Z</time></trkpt><trkpt lat="42.5559624" lon="5.6402603"><ele>0.0</ele><time>2026-04-30T18:54:34.087Z</time></trkpt><trkpt lat="42.5560346" lon="5.6404861"><ele>0.0</ele><time>2026-04-30T18:54:36.087Z</time></trkpt><trkpt lat="42.5560663" lon="5.6405916"><ele>0.0</ele><time>2026-04-30T18:54:37.087Z</time></trkpt><trkpt lat="42.5561029" lon="5.6406937"><ele>0.0</ele><time>2026-04-30T18:54:38.088Z</time></trkpt><trkpt lat="42.5561356" lon="5.6407942"><ele>0.0</ele><time>2026-04-30T18:54:39.087Z</time></trkpt><trkpt lat="42.5561636" lon="5.6408971"><ele>0.0</ele><time>2026-04-30T18:54:40.087Z</time></trkpt><trkpt lat="42.5561947" lon="5.6410044"><ele>0.0</ele><time>2026-04-30T18:54:41.088Z</time></trkpt><trkpt lat="42.5562338" lon="5.6411099"><ele>0.0</ele><time>2026-04-30T18:54:42.088Z</time></trkpt><trkpt lat="42.5562696" lon="5.6412139"><ele>0.0</ele><time>2026-04-30T18:54:43.087Z</time></trkpt><trkpt lat="42.5563119" lon="5.6413158"><ele>0.0</ele><time>2026-04-30T18:54:44.087Z</time></trkpt><trkpt lat="42.5563488" lon="5.6414176"><ele>0.0</ele><time>2026-04-30T18:54:45.087Z</time></trkpt><trkpt lat="42.5563829" lon="5.6415239"><ele>0.0</ele><time>2026-04-30T18:54:46.088Z</time></trkpt><trkpt lat="42.5564173" lon="5.6416312"><ele>0.0</ele><time>2026-04-30T18:54:47.087Z</time></trkpt><trkpt lat="42.5564511" lon="5.6417363"><ele>0.0</ele><time>2026-04-30T18:54:48.087Z</time></trkpt><trkpt lat="42.5564859" lon="5.6418468"><ele>0.0</ele><time>2026-04-30T18:54:49.087Z</time></trkpt><trkpt lat="42.5565196" lon="5.6419592"><ele>0.0</ele><time>2026-04-30T18:54:50.087Z</time></trkpt><trkpt lat="42.556557" lon="5.6420649"><ele>0.0</ele><time>2026-04-30T18:54:51.087Z</time></trkpt><trkpt lat="42.5565933" lon="5.6421672"><ele>0.0</ele><time>2026-04-30T18:54:52.088Z</time></trkpt><trkpt lat="42.5566282" lon="5.6422674"><ele>0.0</ele><time>2026-04-30T18:54:53.088Z</time></trkpt><trkpt lat="42.5566594" lon="5.6423696"><ele>0.0</ele><time>2026-04-30T18:54:54.088Z</time></trkpt><trkpt lat="42.5566883" lon="5.6424756"><ele>0.0</ele><time>2026-04-30T18:54:55.087Z</time></trkpt><trkpt lat="42.5567539" lon="5.6426833"><ele>0.0</ele><time>2026-04-30T18:54:57.087Z</time></trkpt><trkpt lat="42.5567901" lon="5.6427866"><ele>0.0</ele><time>2026-04-30T18:54:58.087Z</time></trkpt><trkpt lat="42.5568267" lon="5.6428939"><ele>0.0</ele><time>2026-04-30T18:54:59.088Z</time></trkpt><trkpt lat="42.5568676" lon="5.6429982"><ele>0.0</ele><time>2026-04-30T18:55:00.088Z</time></trkpt><trkpt lat="42.5569077" lon="5.6430974"><ele>0.0</ele><time>2026-04-30T18:55:01.088Z</time></trkpt><trkpt lat="42.5569438" lon="5.6431995"><ele>0.0</ele><time>2026-04-30T18:55:02.088Z</time></trkpt><trkpt lat="42.5569819" lon="5.6433013"><ele>0.0</ele><time>2026-04-30T18:55:03.088Z</time></trkpt><trkpt lat="42.5570177" lon="5.6434075"><ele>0.0</ele><time>2026-04-30T18:55:04.087Z</time></trkpt><trkpt lat="42.5570526" lon="5.6435098"><ele>0.0</ele><time>2026-04-30T18:55:05.087Z</time></trkpt><trkpt lat="42.5570871" lon="5.643613"><ele>0.0</ele><time>2026-04-30T18:55:06.087Z</time></trkpt><trkpt lat="42.5571195" lon="5.6437147"><ele>0.0</ele><time>2026-04-30T18:55:07.088Z</time></trkpt><trkpt lat="42.5571507" lon="5.643821"><ele>0.0</ele><time>2026-04-30T18:55:08.088Z</time></trkpt><trkpt lat="42.5571826" lon="5.6439275"><ele>0.0</ele><time>2026-04-30T18:55:09.088Z</time></trkpt><trkpt lat="42.5572161" lon="5.6440312"><ele>0.0</ele><time>2026-04-30T18:55:10.088Z</time></trkpt><trkpt lat="42.5572477" lon="5.6441376"><ele>0.0</ele><time>2026-04-30T18:55:11.088Z</time></trkpt><trkpt lat="42.5572778" lon="5.6442476"><ele>0.0</ele><time>2026-04-30T18:55:12.088Z</time></trkpt><trkpt lat="42.5573178" lon="5.6443486"><ele>0.0</ele><time>2026-04-30T18:55:13.088Z</time></trkpt><trkpt lat="42.5573581" lon="5.6444483"><ele>0.0</ele><time>2026-04-30T18:55:14.088Z</time></trkpt><trkpt lat="42.5573971" lon="5.6445536"><ele>0.0</ele><time>2026-04-30T18:55:15.088Z</time></trkpt><trkpt lat="42.5574343" lon="5.6446604"><ele>0.0</ele><time>2026-04-30T18:55:16.088Z</time></trkpt><trkpt lat="42.5574705" lon="5.6447648"><ele>0.0</ele><time>2026-04-30T18:55:17.087Z</time></trkpt><trkpt lat="42.557544" lon="5.644984"><ele>0.0</ele><time>2026-04-30T18:55:19.087Z</time></trkpt><trkpt lat="42.5575807" lon="5.6450966"><ele>0.0</ele><time>2026-04-30T18:55:20.087Z</time></trkpt><trkpt lat="42.5576161" lon="5.6452089"><ele>0.0</ele><time>2026-04-30T18:55:21.088Z</time></trkpt><trkpt lat="42.5576536" lon="5.6453162"><ele>0.0</ele><time>2026-04-30T18:55:22.087Z</time></trkpt><trkpt lat="42.5576935" lon="5.6454239"><ele>0.0</ele><time>2026-04-30T18:55:23.088Z</time></trkpt><trkpt lat="42.5577261" lon="5.6455324"><ele>0.0</ele><time>2026-04-30T18:55:24.088Z</time></trkpt><trkpt lat="42.5577622" lon="5.6456393"><ele>0.0</ele><time>2026-04-30T18:55:25.087Z</time></trkpt><trkpt lat="42.5577987" lon="5.6457489"><ele>0.0</ele><time>2026-04-30T18:55:26.087Z</time></trkpt><trkpt lat="42.5578323" lon="5.6458578"><ele>0.0</ele><time>2026-04-30T18:55:27.087Z</time></trkpt><trkpt lat="42.5579019" lon="5.6460625"><ele>0.0</ele><time>2026-04-30T18:55:29.088Z</time></trkpt><trkpt lat="42.5579373" lon="5.6461632"><ele>0.0</ele><time>2026-04-30T18:55:30.087Z</time></trkpt><trkpt lat="42.5579718" lon="5.6462657"><ele>0.0</ele><time>2026-04-30T18:55:31.087Z</time></trkpt><trkpt lat="42.5580014" lon="5.6463684"><ele>0.0</ele><time>2026-04-30T18:55:32.087Z</time></trkpt><trkpt lat="42.5580354" lon="5.6464762"><ele>0.0</ele><time>2026-04-30T18:55:33.087Z</time></trkpt><trkpt lat="42.5580689" lon="5.6465827"><ele>0.0</ele><time>2026-04-30T18:55:34.088Z</time></trkpt><trkpt lat="42.5581048" lon="5.6466897"><ele>0.0</ele><time>2026-04-30T18:55:35.087Z</time></trkpt><trkpt lat="42.5581415" lon="5.646792"><ele>0.0</ele><time>2026-04-30T18:55:36.087Z</time></trkpt><trkpt lat="42.5581774" lon="5.6468977"><ele>0.0</ele><time>2026-04-30T18:55:37.088Z</time></trkpt><trkpt lat="42.5582191" lon="5.6469979"><ele>0.0</ele><time>2026-04-30T18:55:38.087Z</time></trkpt><trkpt lat="42.5582859" lon="5.6472017"><ele>0.0</ele><time>2026-04-30T18:55:40.088Z</time></trkpt><trkpt lat="42.5583285" lon="5.6472997"><ele>0.0</ele><time>2026-04-30T18:55:41.088Z</time></trkpt><trkpt lat="42.5583677" lon="5.6473963"><ele>0.0</ele><time>2026-04-30T18:55:42.087Z</time></trkpt><trkpt lat="42.558405" lon="5.6475"><ele>0.0</ele><time>2026-04-30T18:55:43.088Z</time></trkpt><trkpt lat="42.5584345" lon="5.6476114"><ele>0.0</ele><time>2026-04-30T18:55:44.088Z</time></trkpt><trkpt lat="42.5584655" lon="5.6477206"><ele>0.0</ele><time>2026-04-30T18:55:45.087Z</time></trkpt><trkpt lat="42.5585017" lon="5.6478267"><ele>0.0</ele><time>2026-04-30T18:55:46.087Z</time></trkpt><trkpt lat="42.5585352" lon="5.6479339"><ele>0.0</ele><time>2026-04-30T18:55:47.087Z</time></trkpt><trkpt lat="42.5585705" lon="5.6480384"><ele>0.0</ele><time>2026-04-30T18:55:48.087Z</time></trkpt><trkpt lat="42.5586065" lon="5.6481457"><ele>0.0</ele><time>2026-04-30T18:55:49.088Z</time></trkpt><trkpt lat="42.5586364" lon="5.6482628"><ele>0.0</ele><time>2026-04-30T18:55:50.088Z</time></trkpt><trkpt lat="42.5586676" lon="5.6483723"><ele>0.0</ele><time>2026-04-30T18:55:51.087Z</time></trkpt><trkpt lat="42.5587004" lon="5.6484821"><ele>0.0</ele><time>2026-04-30T18:55:52.087Z</time></trkpt><trkpt lat="42.5587351" lon="5.6485925"><ele>0.0</ele><time>2026-04-30T18:55:53.087Z</time></trkpt><trkpt lat="42.5587705" lon="5.648704"><ele>0.0</ele><time>2026-04-30T18:55:54.087Z</time></trkpt><trkpt lat="42.5588071" lon="5.6488097"><ele>0.0</ele><time>2026-04-30T18:55:55.087Z</time></trkpt><trkpt lat="42.5588421" lon="5.6489162"><ele>0.0</ele><time>2026-04-30T18:55:56.087Z</time></trkpt><trkpt lat="42.5588742" lon="5.6490243"><ele>0.0</ele><time>2026-04-30T18:55:57.087Z</time></trkpt><trkpt lat="42.5589036" lon="5.6491333"><ele>0.0</ele><time>2026-04-30T18:55:58.088Z</time></trkpt><trkpt lat="42.5589381" lon="5.6492415"><ele>0.0</ele><time>2026-04-30T18:55:59.087Z</time></trkpt><trkpt lat="42.5589732" lon="5.649351"><ele>0.0</ele><time>2026-04-30T18:56:00.088Z</time></trkpt><trkpt lat="42.5590407" lon="5.6495646"><ele>0.0</ele><time>2026-04-30T18:56:02.088Z</time></trkpt><trkpt lat="42.5590738" lon="5.6496698"><ele>0.0</ele><time>2026-04-30T18:56:03.087Z</time></trkpt><trkpt lat="42.5591116" lon="5.6497734"><ele>0.0</ele><time>2026-04-30T18:56:04.088Z</time></trkpt><trkpt lat="42.5591538" lon="5.649876"><ele>0.0</ele><time>2026-04-30T18:56:05.087Z</time></trkpt><trkpt lat="42.5591888" lon="5.6499845"><ele>0.0</ele><time>2026-04-30T18:56:06.087Z</time></trkpt><trkpt lat="42.5592222" lon="5.650092"><ele>0.0</ele><time>2026-04-30T18:56:07.087Z</time></trkpt><trkpt lat="42.559257" lon="5.6501955"><ele>0.0</ele><time>2026-04-30T18:56:08.088Z</time></trkpt><trkpt lat="42.559289" lon="5.6503001"><ele>0.0</ele><time>2026-04-30T18:56:09.087Z</time></trkpt><trkpt lat="42.5593187" lon="5.6504039"><ele>0.0</ele><time>2026-04-30T18:56:10.088Z</time></trkpt><trkpt lat="42.5593543" lon="5.6505074"><ele>0.0</ele><time>2026-04-30T18:56:11.087Z</time></trkpt><trkpt lat="42.5593879" lon="5.6506086"><ele>0.0</ele><time>2026-04-30T18:56:12.088Z</time></trkpt><trkpt lat="42.5594285" lon="5.6507155"><ele>0.0</ele><time>2026-04-30T18:56:13.087Z</time></trkpt><trkpt lat="42.5594655" lon="5.6508285"><ele>0.0</ele><time>2026-04-30T18:56:14.088Z</time></trkpt><trkpt lat="42.5595017" lon="5.6509325"><ele>0.0</ele><time>2026-04-30T18:56:15.088Z</time></trkpt><trkpt lat="42.5595387" lon="5.651035"><ele>0.0</ele><time>2026-04-30T18:56:16.087Z</time></trkpt><trkpt lat="42.5595727" lon="5.6511398"><ele>0.0</ele><time>2026-04-30T18:56:17.088Z</time></trkpt><trkpt lat="42.5596093" lon="5.6512436"><ele>0.0</ele><time>2026-04-30T18:56:18.087Z</time></trkpt><trkpt lat="42.5596492" lon="5.6513558"><ele>0.0</ele><time>2026-04-30T18:56:19.087Z</time></trkpt><trkpt lat="42.5596911" lon="5.651443"><ele>0.0</ele><time>2026-04-30T18:56:20.087Z</time></trkpt><trkpt lat="42.5597373" lon="5.6515462"><ele>0.0</ele><time>2026-04-30T18:56:21.087Z</time></trkpt><trkpt lat="42.5598224" lon="5.6517429"><ele>0.0</ele><time>2026-04-30T18:56:23.088Z</time></trkpt><trkpt lat="42.5598602" lon="5.6518445"><ele>0.0</ele><time>2026-04-30T18:56:24.088Z</time></trkpt><trkpt lat="42.5598944" lon="5.651949"><ele>0.0</ele><time>2026-04-30T18:56:25.087Z</time></trkpt><trkpt lat="42.5599304" lon="5.6520515"><ele>0.0</ele><time>2026-04-30T18:56:26.088Z</time></trkpt><trkpt lat="42.5599643" lon="5.6521517"><ele>0.0</ele><time>2026-04-30T18:56:27.087Z</time></trkpt><trkpt lat="42.5599974" lon="5.6522627"><ele>0.0</ele><time>2026-04-30T18:56:28.088Z</time></trkpt><trkpt lat="42.5600332" lon="5.652375"><ele>0.0</ele><time>2026-04-30T18:56:29.088Z</time></trkpt><trkpt lat="42.5600683" lon="5.6524873"><ele>0.0</ele><time>2026-04-30T18:56:30.088Z</time></trkpt><trkpt lat="42.5601068" lon="5.652593"><ele>0.0</ele><time>2026-04-30T18:56:31.087Z</time></trkpt><trkpt lat="42.5601939" lon="5.6527939"><ele>0.0</ele><time>2026-04-30T18:56:33.088Z</time></trkpt><trkpt lat="42.5602347" lon="5.652894"><ele>0.0</ele><time>2026-04-30T18:56:34.087Z</time></trkpt><trkpt lat="42.5602702" lon="5.6529909"><ele>0.0</ele><time>2026-04-30T18:56:35.087Z</time></trkpt><trkpt lat="42.5603051" lon="5.6530949"><ele>0.0</ele><time>2026-04-30T18:56:36.088Z</time></trkpt><trkpt lat="42.5603419" lon="5.6532"><ele>0.0</ele><time>2026-04-30T18:56:37.087Z</time></trkpt><trkpt lat="42.5603782" lon="5.6533077"><ele>0.0</ele><time>2026-04-30T18:56:38.087Z</time></trkpt><trkpt lat="42.5604138" lon="5.6534169"><ele>0.0</ele><time>2026-04-30T18:56:39.087Z</time></trkpt><trkpt lat="42.5604461" lon="5.6535297"><ele>0.0</ele><time>2026-04-30T18:56:40.088Z</time></trkpt><trkpt lat="42.5604775" lon="5.6536432"><ele>0.0</ele><time>2026-04-30T18:56:41.087Z</time></trkpt><trkpt lat="42.5605094" lon="5.6537521"><ele>0.0</ele><time>2026-04-30T18:56:42.088Z</time></trkpt><trkpt lat="42.5605727" lon="5.6539763"><ele>0.0</ele><time>2026-04-30T18:56:44.087Z</time></trkpt><trkpt lat="42.5606033" lon="5.6540904"><ele>0.0</ele><time>2026-04-30T18:56:45.088Z</time></trkpt><trkpt lat="42.5606442" lon="5.6542"><ele>0.0</ele><time>2026-04-30T18:56:46.088Z</time></trkpt><trkpt lat="42.5606734" lon="5.6543111"><ele>0.0</ele><time>2026-04-30T18:56:47.087Z</time></trkpt><trkpt lat="42.5607059" lon="5.6544185"><ele>0.0</ele><time>2026-04-30T18:56:48.088Z</time></trkpt><trkpt lat="42.5607408" lon="5.6545276"><ele>0.0</ele><time>2026-04-30T18:56:49.088Z</time></trkpt><trkpt lat="42.5607757" lon="5.6546316"><ele>0.0</ele><time>2026-04-30T18:56:50.088Z</time></trkpt><trkpt lat="42.5608093" lon="5.6547394"><ele>0.0</ele><time>2026-04-30T18:56:51.088Z</time></trkpt><trkpt lat="42.560848" lon="5.6548404"><ele>0.0</ele><time>2026-04-30T18:56:52.087Z</time></trkpt><trkpt lat="42.5608834" lon="5.6549434"><ele>0.0</ele><time>2026-04-30T18:56:53.088Z</time></trkpt><trkpt lat="42.5609186" lon="5.6550508"><ele>0.0</ele><time>2026-04-30T18:56:54.087Z</time></trkpt><trkpt lat="42.5609492" lon="5.6551547"><ele>0.0</ele><time>2026-04-30T18:56:55.087Z</time></trkpt><trkpt lat="42.5609877" lon="5.6552582"><ele>0.0</ele><time>2026-04-30T18:56:56.088Z</time></trkpt><trkpt lat="42.5610219" lon="5.6553602"><ele>0.0</ele><time>2026-04-30T18:56:57.088Z</time></trkpt><trkpt lat="42.5610595" lon="5.6554631"><ele>0.0</ele><time>2026-04-30T18:56:58.087Z</time></trkpt><trkpt lat="42.5610951" lon="5.6555706"><ele>0.0</ele><time>2026-04-30T18:56:59.087Z</time></trkpt><trkpt lat="42.5611402" lon="5.655669"><ele>0.0</ele><time>2026-04-30T18:57:00.088Z</time></trkpt><trkpt lat="42.5611767" lon="5.6557701"><ele>0.0</ele><time>2026-04-30T18:57:01.087Z</time></trkpt><trkpt lat="42.5612289" lon="5.6558789"><ele>0.0</ele><time>2026-04-30T18:57:02.087Z</time></trkpt><trkpt lat="42.5612723" lon="5.6559863"><ele>0.0</ele><time>2026-04-30T18:57:03.088Z</time></trkpt><trkpt lat="42.5613851" lon="5.6563127"><ele>0.0</ele><time>2026-04-30T18:57:06.088Z</time></trkpt><trkpt lat="42.561419" lon="5.656424"><ele>0.0</ele><time>2026-04-30T18:57:07.087Z</time></trkpt><trkpt lat="42.561451" lon="5.6565332"><ele>0.0</ele><time>2026-04-30T18:57:08.087Z</time></trkpt><trkpt lat="42.5614894" lon="5.6566357"><ele>0.0</ele><time>2026-04-30T18:57:09.087Z</time></trkpt><trkpt lat="42.561531" lon="5.6567415"><ele>0.0</ele><time>2026-04-30T18:57:10.088Z</time></trkpt><trkpt lat="42.5615642" lon="5.6568482"><ele>0.0</ele><time>2026-04-30T18:57:11.088Z</time></trkpt><trkpt lat="42.5615957" lon="5.6569551"><ele>0.0</ele><time>2026-04-30T18:57:12.087Z</time></trkpt><trkpt lat="42.5616315" lon="5.6570558"><ele>0.0</ele><time>2026-04-30T18:57:13.088Z</time></trkpt><trkpt lat="42.5616583" lon="5.6571578"><ele>0.0</ele><time>2026-04-30T18:57:14.087Z</time></trkpt><trkpt lat="42.5616891" lon="5.6572627"><ele>0.0</ele><time>2026-04-30T18:57:15.088Z</time></trkpt><trkpt lat="42.5617253" lon="5.6573724"><ele>0.0</ele><time>2026-04-30T18:57:16.087Z</time></trkpt><trkpt lat="42.5617551" lon="5.6574856"><ele>0.0</ele><time>2026-04-30T18:57:17.088Z</time></trkpt><trkpt lat="42.5617903" lon="5.6575924"><ele>0.0</ele><time>2026-04-30T18:57:18.088Z</time></trkpt><trkpt lat="42.5618264" lon="5.6576926"><ele>0.0</ele><time>2026-04-30T18:57:19.088Z</time></trkpt><trkpt lat="42.5618646" lon="5.6577933"><ele>0.0</ele><time>2026-04-30T18:57:20.087Z</time></trkpt><trkpt lat="42.5619017" lon="5.6578937"><ele>0.0</ele><time>2026-04-30T18:57:21.088Z</time></trkpt><trkpt lat="42.5619386" lon="5.6579931"><ele>0.0</ele><time>2026-04-30T18:57:22.088Z</time></trkpt><trkpt lat="42.5619738" lon="5.6580934"><ele>0.0</ele><time>2026-04-30T18:57:23.087Z</time></trkpt><trkpt lat="42.5620071" lon="5.6581979"><ele>0.0</ele><time>2026-04-30T18:57:24.087Z</time></trkpt><trkpt lat="42.5620407" lon="5.6583032"><ele>0.0</ele><time>2026-04-30T18:57:25.088Z</time></trkpt><trkpt lat="42.5621072" lon="5.6585148"><ele>0.0</ele><time>2026-04-30T18:57:27.087Z</time></trkpt><trkpt lat="42.562135" lon="5.6586197"><ele>0.0</ele><time>2026-04-30T18:57:28.087Z</time></trkpt><trkpt lat="42.5621634" lon="5.6587299"><ele>0.0</ele><time>2026-04-30T18:57:29.088Z</time></trkpt><trkpt lat="42.5621973" lon="5.6588445"><ele>0.0</ele><time>2026-04-30T18:57:30.087Z</time></trkpt><trkpt lat="42.5622334" lon="5.6589501"><ele>0.0</ele><time>2026-04-30T18:57:31.087Z</time></trkpt><trkpt lat="42.5622616" lon="5.6590562"><ele>0.0</ele><time>2026-04-30T18:57:32.088Z</time></trkpt><trkpt lat="42.5622885" lon="5.6591614"><ele>0.0</ele><time>2026-04-30T18:57:33.087Z</time></trkpt><trkpt lat="42.5623215" lon="5.6592661"><ele>0.0</ele><time>2026-04-30T18:57:34.088Z</time></trkpt><trkpt lat="42.5623569" lon="5.6593739"><ele>0.0</ele><time>2026-04-30T18:57:35.088Z</time></trkpt><trkpt lat="42.562433" lon="5.6595828"><ele>0.0</ele><time>2026-04-30T18:57:37.087Z</time></trkpt><trkpt lat="42.5624714" lon="5.6596935"><ele>0.0</ele><time>2026-04-30T18:57:38.087Z</time></trkpt><trkpt lat="42.5625099" lon="5.6598021"><ele>0.0</ele><time>2026-04-30T18:57:39.088Z</time></trkpt><trkpt lat="42.5625465" lon="5.6599114"><ele>0.0</ele><time>2026-04-30T18:57:40.088Z</time></trkpt><trkpt lat="42.5625804" lon="5.6600166"><ele>0.0</ele><time>2026-04-30T18:57:41.087Z</time></trkpt><trkpt lat="42.5626122" lon="5.6601146"><ele>0.0</ele><time>2026-04-30T18:57:42.087Z</time></trkpt><trkpt lat="42.5626486" lon="5.6602165"><ele>0.0</ele><time>2026-04-30T18:57:43.088Z</time></trkpt><trkpt lat="42.5626841" lon="5.6603269"><ele>0.0</ele><time>2026-04-30T18:57:44.087Z</time></trkpt><trkpt lat="42.5627202" lon="5.6604377"><ele>0.0</ele><time>2026-04-30T18:57:45.088Z</time></trkpt><trkpt lat="42.562757" lon="5.6605477"><ele>0.0</ele><time>2026-04-30T18:57:46.087Z</time></trkpt><trkpt lat="42.5628392" lon="5.6607547"><ele>0.0</ele><time>2026-04-30T18:57:48.087Z</time></trkpt><trkpt lat="42.5628751" lon="5.6608586"><ele>0.0</ele><time>2026-04-30T18:57:49.087Z</time></trkpt><trkpt lat="42.5629031" lon="5.6609617"><ele>0.0</ele><time>2026-04-30T18:57:50.087Z</time></trkpt><trkpt lat="42.5629384" lon="5.6610568"><ele>0.0</ele><time>2026-04-30T18:57:51.088Z</time></trkpt><trkpt lat="42.5629765" lon="5.6611558"><ele>0.0</ele><time>2026-04-30T18:57:52.087Z</time></trkpt><trkpt lat="42.5630148" lon="5.6612528"><ele>0.0</ele><time>2026-04-30T18:57:53.088Z</time></trkpt><trkpt lat="42.5630502" lon="5.6613534"><ele>0.0</ele><time>2026-04-30T18:57:54.087Z</time></trkpt><trkpt lat="42.563085" lon="5.6614579"><ele>0.0</ele><time>2026-04-30T18:57:55.088Z</time></trkpt><trkpt lat="42.5631178" lon="5.6615727"><ele>0.0</ele><time>2026-04-30T18:57:56.087Z</time></trkpt><trkpt lat="42.5631551" lon="5.6616943"><ele>0.0</ele><time>2026-04-30T18:57:57.087Z</time></trkpt><trkpt lat="42.563186" lon="5.6617988"><ele>0.0</ele><time>2026-04-30T18:57:58.087Z</time></trkpt><trkpt lat="42.5632192" lon="5.6619026"><ele>0.0</ele><time>2026-04-30T18:57:59.087Z</time></trkpt><trkpt lat="42.5632572" lon="5.6620054"><ele>0.0</ele><time>2026-04-30T18:58:00.087Z</time></trkpt><trkpt lat="42.5632927" lon="5.6621002"><ele>0.0</ele><time>2026-04-30T18:58:01.088Z</time></trkpt><trkpt lat="42.5633279" lon="5.6622017"><ele>0.0</ele><time>2026-04-30T18:58:02.087Z</time></trkpt><trkpt lat="42.563363" lon="5.6623043"><ele>0.0</ele><time>2026-04-30T18:58:03.088Z</time></trkpt><trkpt lat="42.5633983" lon="5.6624102"><ele>0.0</ele><time>2026-04-30T18:58:04.087Z</time></trkpt><trkpt lat="42.5634348" lon="5.6625176"><ele>0.0</ele><time>2026-04-30T18:58:05.087Z</time></trkpt><trkpt lat="42.5634687" lon="5.6626288"><ele>0.0</ele><time>2026-04-30T18:58:06.087Z</time></trkpt><trkpt lat="42.5635006" lon="5.662728"><ele>0.0</ele><time>2026-04-30T18:58:07.087Z</time></trkpt><trkpt lat="42.5636009" lon="5.663045"><ele>0.0</ele><time>2026-04-30T18:58:10.088Z</time></trkpt><trkpt lat="42.5636344" lon="5.6631571"><ele>0.0</ele><time>2026-04-30T18:58:11.088Z</time></trkpt><trkpt lat="42.5636645" lon="5.6632656"><ele>0.0</ele><time>2026-04-30T18:58:12.087Z</time></trkpt><trkpt lat="42.5636959" lon="5.6633616"><ele>0.0</ele><time>2026-04-30T18:58:13.087Z</time></trkpt><trkpt lat="42.5637246" lon="5.663465"><ele>0.0</ele><time>2026-04-30T18:58:14.088Z</time></trkpt><trkpt lat="42.563757" lon="5.6635727"><ele>0.0</ele><time>2026-04-30T18:58:15.088Z</time></trkpt><trkpt lat="42.5637877" lon="5.6636781"><ele>0.0</ele><time>2026-04-30T18:58:16.087Z</time></trkpt><trkpt lat="42.5638193" lon="5.6637815"><ele>0.0</ele><time>2026-04-30T18:58:17.088Z</time></trkpt><trkpt lat="42.563852" lon="5.6638909"><ele>0.0</ele><time>2026-04-30T18:58:18.087Z</time></trkpt><trkpt lat="42.5638883" lon="5.6640066"><ele>0.0</ele><time>2026-04-30T18:58:19.088Z</time></trkpt><trkpt lat="42.5639233" lon="5.6641205"><ele>0.0</ele><time>2026-04-30T18:58:20.088Z</time></trkpt><trkpt lat="42.5639631" lon="5.6642222"><ele>0.0</ele><time>2026-04-30T18:58:21.087Z</time></trkpt><trkpt lat="42.5639983" lon="5.6643229"><ele>0.0</ele><time>2026-04-30T18:58:22.087Z</time></trkpt><trkpt lat="42.5640374" lon="5.6644183"><ele>0.0</ele><time>2026-04-30T18:58:23.088Z</time></trkpt><trkpt lat="42.5640791" lon="5.664516"><ele>0.0</ele><time>2026-04-30T18:58:24.087Z</time></trkpt><trkpt lat="42.5641165" lon="5.6646201"><ele>0.0</ele><time>2026-04-30T18:58:25.087Z</time></trkpt><trkpt lat="42.564146" lon="5.6647204"><ele>0.0</ele><time>2026-04-30T18:58:26.087Z</time></trkpt><trkpt lat="42.5641775" lon="5.6648215"><ele>0.0</ele><time>2026-04-30T18:58:27.087Z</time></trkpt><trkpt lat="42.5642148" lon="5.6649189"><ele>0.0</ele><time>2026-04-30T18:58:28.087Z</time></trkpt><trkpt lat="42.5642531" lon="5.6650155"><ele>0.0</ele><time>2026-04-30T18:58:29.087Z</time></trkpt><trkpt lat="42.5643212" lon="5.6652212"><ele>0.0</ele><time>2026-04-30T18:58:31.088Z</time></trkpt><trkpt lat="42.5643585" lon="5.6653247"><ele>0.0</ele><time>2026-04-30T18:58:32.087Z</time></trkpt><trkpt lat="42.5643983" lon="5.6654267"><ele>0.0</ele><time>2026-04-30T18:58:33.087Z</time></trkpt><trkpt lat="42.5644337" lon="5.6655343"><ele>0.0</ele><time>2026-04-30T18:58:34.087Z</time></trkpt><trkpt lat="42.5644731" lon="5.6656395"><ele>0.0</ele><time>2026-04-30T18:58:35.087Z</time></trkpt><trkpt lat="42.5645161" lon="5.6657444"><ele>0.0</ele><time>2026-04-30T18:58:36.087Z</time></trkpt><trkpt lat="42.5645535" lon="5.6658481"><ele>0.0</ele><time>2026-04-30T18:58:37.087Z</time></trkpt><trkpt lat="42.5645903" lon="5.6659544"><ele>0.0</ele><time>2026-04-30T18:58:38.087Z</time></trkpt><trkpt lat="42.5646281" lon="5.66606"><ele>0.0</ele><time>2026-04-30T18:58:39.087Z</time></trkpt><trkpt lat="42.5646681" lon="5.6661606"><ele>0.0</ele><time>2026-04-30T18:58:40.087Z</time></trkpt><trkpt lat="42.5647022" lon="5.6662631"><ele>0.0</ele><time>2026-04-30T18:58:41.088Z</time></trkpt><trkpt lat="42.5647448" lon="5.6663659"><ele>0.0</ele><time>2026-04-30T18:58:42.087Z</time></trkpt><trkpt lat="42.5647828" lon="5.6664693"><ele>0.0</ele><time>2026-04-30T18:58:43.087Z</time></trkpt><trkpt lat="42.5648222" lon="5.6665747"><ele>0.0</ele><time>2026-04-30T18:58:44.088Z</time></trkpt><trkpt lat="42.5648518" lon="5.6666828"><ele>0.0</ele><time>2026-04-30T18:58:45.088Z</time></trkpt><trkpt lat="42.5648801" lon="5.6667913"><ele>0.0</ele><time>2026-04-30T18:58:46.088Z</time></trkpt><trkpt lat="42.564915" lon="5.6669038"><ele>0.0</ele><time>2026-04-30T18:58:47.087Z</time></trkpt><trkpt lat="42.5649558" lon="5.667004"><ele>0.0</ele><time>2026-04-30T18:58:48.088Z</time></trkpt><trkpt lat="42.564992" lon="5.6671051"><ele>0.0</ele><time>2026-04-30T18:58:49.087Z</time></trkpt><trkpt lat="42.5650229" lon="5.6672078"><ele>0.0</ele><time>2026-04-30T18:58:50.087Z</time></trkpt><trkpt lat="42.5650972" lon="5.6674188"><ele>0.0</ele><time>2026-04-30T18:58:52.087Z</time></trkpt><trkpt lat="42.5651348" lon="5.6675284"><ele>0.0</ele><time>2026-04-30T18:58:53.088Z</time></trkpt><trkpt lat="42.5651721" lon="5.6676412"><ele>0.0</ele><time>2026-04-30T18:58:54.088Z</time></trkpt><trkpt lat="42.5652095" lon="5.6677522"><ele>0.0</ele><time>2026-04-30T18:58:55.088Z</time></trkpt><trkpt lat="42.5652426" lon="5.6678548"><ele>0.0</ele><time>2026-04-30T18:58:56.088Z</time></trkpt><trkpt lat="42.5652799" lon="5.6679581"><ele>0.0</ele><time>2026-04-30T18:58:57.088Z</time></trkpt><trkpt lat="42.5653181" lon="5.6680672"><ele>0.0</ele><time>2026-04-30T18:58:58.088Z</time></trkpt><trkpt lat="42.5653573" lon="5.6681751"><ele>0.0</ele><time>2026-04-30T18:58:59.088Z</time></trkpt><trkpt lat="42.5654015" lon="5.6682829"><ele>0.0</ele><time>2026-04-30T18:59:00.088Z</time></trkpt><trkpt lat="42.5654469" lon="5.6683897"><ele>0.0</ele><time>2026-04-30T18:59:01.087Z</time></trkpt><trkpt lat="42.5654861" lon="5.6685019"><ele>0.0</ele><time>2026-04-30T18:59:02.087Z</time></trkpt><trkpt lat="42.5655217" lon="5.6686129"><ele>0.0</ele><time>2026-04-30T18:59:03.088Z</time></trkpt><trkpt lat="42.5655562" lon="5.6687163"><ele>0.0</ele><time>2026-04-30T18:59:04.088Z</time></trkpt><trkpt lat="42.5655883" lon="5.6688377"><ele>0.0</ele><time>2026-04-30T18:59:05.088Z</time></trkpt><trkpt lat="42.5656247" lon="5.6689481"><ele>0.0</ele><time>2026-04-30T18:59:06.087Z</time></trkpt><trkpt lat="42.565662" lon="5.6690427"><ele>0.0</ele><time>2026-04-30T18:59:07.088Z</time></trkpt><trkpt lat="42.5656939" lon="5.669143"><ele>0.0</ele><time>2026-04-30T18:59:08.088Z</time></trkpt><trkpt lat="42.5657251" lon="5.6692458"><ele>0.0</ele><time>2026-04-30T18:59:09.087Z</time></trkpt><trkpt lat="42.565753" lon="5.6693519"><ele>0.0</ele><time>2026-04-30T18:59:10.087Z</time></trkpt><trkpt lat="42.5657827" lon="5.6694597"><ele>0.0</ele><time>2026-04-30T18:59:11.088Z</time></trkpt><trkpt lat="42.5658866" lon="5.669786"><ele>0.0</ele><time>2026-04-30T18:59:14.087Z</time></trkpt><trkpt lat="42.565926" lon="5.6698872"><ele>0.0</ele><time>2026-04-30T18:59:15.087Z</time></trkpt><trkpt lat="42.5659702" lon="5.669989"><ele>0.0</ele><time>2026-04-30T18:59:16.087Z</time></trkpt><trkpt lat="42.5660038" lon="5.6700949"><ele>0.0</ele><time>2026-04-30T18:59:17.087Z</time></trkpt><trkpt lat="42.5660413" lon="5.6701953"><ele>0.0</ele><time>2026-04-30T18:59:18.088Z</time></trkpt><trkpt lat="42.5660771" lon="5.6702981"><ele>0.0</ele><time>2026-04-30T18:59:19.087Z</time></trkpt><trkpt lat="42.5661145" lon="5.6704006"><ele>0.0</ele><time>2026-04-30T18:59:20.088Z</time></trkpt><trkpt lat="42.5661445" lon="5.6705124"><ele>0.0</ele><time>2026-04-30T18:59:21.086Z</time></trkpt><trkpt lat="42.5661744" lon="5.6706281"><ele>0.0</ele><time>2026-04-30T18:59:22.086Z</time></trkpt><trkpt lat="42.5662044" lon="5.6707404"><ele>0.0</ele><time>2026-04-30T18:59:23.086Z</time></trkpt><trkpt lat="42.5662377" lon="5.6708463"><ele>0.0</ele><time>2026-04-30T18:59:24.086Z</time></trkpt><trkpt lat="42.5662691" lon="5.6709557"><ele>0.0</ele><time>2026-04-30T18:59:25.086Z</time></trkpt><trkpt lat="42.5663054" lon="5.6710584"><ele>0.0</ele><time>2026-04-30T18:59:26.086Z</time></trkpt><trkpt lat="42.5663417" lon="5.6711605"><ele>0.0</ele><time>2026-04-30T18:59:27.086Z</time></trkpt><trkpt lat="42.5663785" lon="5.671263"><ele>0.0</ele><time>2026-04-30T18:59:28.086Z</time></trkpt><trkpt lat="42.5664139" lon="5.6713666"><ele>0.0</ele><time>2026-04-30T18:59:29.087Z</time></trkpt><trkpt lat="42.5664528" lon="5.6714675"><ele>0.0</ele><time>2026-04-30T18:59:30.086Z</time></trkpt><trkpt lat="42.5664913" lon="5.671569"><ele>0.0</ele><time>2026-04-30T18:59:31.086Z</time></trkpt><trkpt lat="42.5665271" lon="5.6716765"><ele>0.0</ele><time>2026-04-30T18:59:32.086Z</time></trkpt><trkpt lat="42.5665595" lon="5.6717858"><ele>0.0</ele><time>2026-04-30T18:59:33.086Z</time></trkpt><trkpt lat="42.5666297" lon="5.671992"><ele>0.0</ele><time>2026-04-30T18:59:35.086Z</time></trkpt><trkpt lat="42.5666672" lon="5.6720918"><ele>0.0</ele><time>2026-04-30T18:59:36.087Z</time></trkpt><trkpt lat="42.5667023" lon="5.6721963"><ele>0.0</ele><time>2026-04-30T18:59:37.086Z</time></trkpt><trkpt lat="42.5667428" lon="5.6723059"><ele>0.0</ele><time>2026-04-30T18:59:38.086Z</time></trkpt><trkpt lat="42.5667842" lon="5.6724085"><ele>0.0</ele><time>2026-04-30T18:59:39.086Z</time></trkpt><trkpt lat="42.5668176" lon="5.6725072"><ele>0.0</ele><time>2026-04-30T18:59:40.086Z</time></trkpt><trkpt lat="42.5668482" lon="5.6726128"><ele>0.0</ele><time>2026-04-30T18:59:41.086Z</time></trkpt><trkpt lat="42.5668835" lon="5.6727241"><ele>0.0</ele><time>2026-04-30T18:59:42.086Z</time></trkpt><trkpt lat="42.5669598" lon="5.6729423"><ele>0.0</ele><time>2026-04-30T18:59:44.086Z</time></trkpt><trkpt lat="42.5670011" lon="5.6730426"><ele>0.0</ele><time>2026-04-30T18:59:45.087Z</time></trkpt><trkpt lat="42.5670383" lon="5.6731522"><ele>0.0</ele><time>2026-04-30T18:59:46.087Z</time></trkpt><trkpt lat="42.5670735" lon="5.6732638"><ele>0.0</ele><time>2026-04-30T18:59:47.086Z</time></trkpt><trkpt lat="42.5671097" lon="5.6733742"><ele>0.0</ele><time>2026-04-30T18:59:48.086Z</time></trkpt><trkpt lat="42.5671437" lon="5.6734801"><ele>0.0</ele><time>2026-04-30T18:59:49.086Z</time></trkpt><trkpt lat="42.5671784" lon="5.6735811"><ele>0.0</ele><time>2026-04-30T18:59:50.086Z</time></trkpt><trkpt lat="42.5672162" lon="5.6736841"><ele>0.0</ele><time>2026-04-30T18:59:51.086Z</time></trkpt><trkpt lat="42.5672494" lon="5.6737883"><ele>0.0</ele><time>2026-04-30T18:59:52.086Z</time></trkpt><trkpt lat="42.5672821" lon="5.673892"><ele>0.0</ele><time>2026-04-30T18:59:53.087Z</time></trkpt><trkpt lat="42.5673186" lon="5.6739964"><ele>0.0</ele><time>2026-04-30T18:59:54.086Z</time></trkpt><trkpt lat="42.5673909" lon="5.6742072"><ele>0.0</ele><time>2026-04-30T18:59:56.086Z</time></trkpt><trkpt lat="42.5674312" lon="5.6743088"><ele>0.0</ele><time>2026-04-30T18:59:57.086Z</time></trkpt><trkpt lat="42.5674657" lon="5.6744159"><ele>0.0</ele><time>2026-04-30T18:59:58.087Z</time></trkpt><trkpt lat="42.5674946" lon="5.6745172"><ele>0.0</ele><time>2026-04-30T18:59:59.086Z</time></trkpt><trkpt lat="42.5675304" lon="5.67461"><ele>0.0</ele><time>2026-04-30T19:00:00.087Z</time></trkpt><trkpt lat="42.567567" lon="5.6747118"><ele>0.0</ele><time>2026-04-30T19:00:01.086Z</time></trkpt><trkpt lat="42.5676037" lon="5.6748178"><ele>0.0</ele><time>2026-04-30T19:00:02.086Z</time></trkpt><trkpt lat="42.5676406" lon="5.6749235"><ele>0.0</ele><time>2026-04-30T19:00:03.086Z</time></trkpt><trkpt lat="42.5676827" lon="5.6750212"><ele>0.0</ele><time>2026-04-30T19:00:04.087Z</time></trkpt><trkpt lat="42.5677224" lon="5.6751265"><ele>0.0</ele><time>2026-04-30T19:00:05.087Z</time></trkpt><trkpt lat="42.5677557" lon="5.6752288"><ele>0.0</ele><time>2026-04-30T19:00:06.086Z</time></trkpt><trkpt lat="42.5677901" lon="5.6753307"><ele>0.0</ele><time>2026-04-30T19:00:07.087Z</time></trkpt><trkpt lat="42.5678235" lon="5.675438"><ele>0.0</ele><time>2026-04-30T19:00:08.086Z</time></trkpt><trkpt lat="42.5678609" lon="5.6755461"><ele>0.0</ele><time>2026-04-30T19:00:09.087Z</time></trkpt><trkpt lat="42.5678938" lon="5.6756572"><ele>0.0</ele><time>2026-04-30T19:00:10.086Z</time></trkpt><trkpt lat="42.567927" lon="5.6757632"><ele>0.0</ele><time>2026-04-30T19:00:11.087Z</time></trkpt><trkpt lat="42.5679642" lon="5.6758711"><ele>0.0</ele><time>2026-04-30T19:00:12.087Z</time></trkpt><trkpt lat="42.5679955" lon="5.6759723"><ele>0.0</ele><time>2026-04-30T19:00:13.087Z</time></trkpt><trkpt lat="42.5680242" lon="5.6760766"><ele>0.0</ele><time>2026-04-30T19:00:14.087Z</time></trkpt><trkpt lat="42.5680489" lon="5.6761787"><ele>0.0</ele><time>2026-04-30T19:00:15.086Z</time></trkpt><trkpt lat="42.5681554" lon="5.6764784"><ele>0.0</ele><time>2026-04-30T19:00:18.087Z</time></trkpt><trkpt lat="42.568193" lon="5.6765744"><ele>0.0</ele><time>2026-04-30T19:00:19.086Z</time></trkpt><trkpt lat="42.568226" lon="5.6766764"><ele>0.0</ele><time>2026-04-30T19:00:20.086Z</time></trkpt><trkpt lat="42.5682577" lon="5.6767755"><ele>0.0</ele><time>2026-04-30T19:00:21.086Z</time></trkpt><trkpt lat="42.5682912" lon="5.6768821"><ele>0.0</ele><time>2026-04-30T19:00:22.087Z</time></trkpt><trkpt lat="42.5683264" lon="5.6769914"><ele>0.0</ele><time>2026-04-30T19:00:23.087Z</time></trkpt><trkpt lat="42.5683631" lon="5.6771027"><ele>0.0</ele><time>2026-04-30T19:00:24.087Z</time></trkpt><trkpt lat="42.5684041" lon="5.6772153"><ele>0.0</ele><time>2026-04-30T19:00:25.087Z</time></trkpt><trkpt lat="42.5684461" lon="5.6773169"><ele>0.0</ele><time>2026-04-30T19:00:26.087Z</time></trkpt><trkpt lat="42.568481" lon="5.6774245"><ele>0.0</ele><time>2026-04-30T19:00:27.086Z</time></trkpt><trkpt lat="42.5685084" lon="5.6775359"><ele>0.0</ele><time>2026-04-30T19:00:28.087Z</time></trkpt><trkpt lat="42.5685477" lon="5.6776415"><ele>0.0</ele><time>2026-04-30T19:00:29.087Z</time></trkpt><trkpt lat="42.5685881" lon="5.6777452"><ele>0.0</ele><time>2026-04-30T19:00:30.087Z</time></trkpt><trkpt lat="42.5686179" lon="5.6778545"><ele>0.0</ele><time>2026-04-30T19:00:31.086Z</time></trkpt><trkpt lat="42.568642" lon="5.6779601"><ele>0.0</ele><time>2026-04-30T19:00:32.087Z</time></trkpt><trkpt lat="42.5686698" lon="5.6780637"><ele>0.0</ele><time>2026-04-30T19:00:33.086Z</time></trkpt><trkpt lat="42.5687095" lon="5.6781668"><ele>0.0</ele><time>2026-04-30T19:00:34.087Z</time></trkpt><trkpt lat="42.5687552" lon="5.6782658"><ele>0.0</ele><time>2026-04-30T19:00:35.087Z</time></trkpt><trkpt lat="42.5687971" lon="5.6783628"><ele>0.0</ele><time>2026-04-30T19:00:36.087Z</time></trkpt><trkpt lat="42.5688321" lon="5.6784651"><ele>0.0</ele><time>2026-04-30T19:00:37.086Z</time></trkpt><trkpt lat="42.5688991" lon="5.6786853"><ele>0.0</ele><time>2026-04-30T19:00:39.087Z</time></trkpt><trkpt lat="42.568941" lon="5.6787911"><ele>0.0</ele><time>2026-04-30T19:00:40.086Z</time></trkpt><trkpt lat="42.5689765" lon="5.6789007"><ele>0.0</ele><time>2026-04-30T19:00:41.086Z</time></trkpt><trkpt lat="42.5690074" lon="5.6790117"><ele>0.0</ele><time>2026-04-30T19:00:42.086Z</time></trkpt><trkpt lat="42.5690334" lon="5.6791178"><ele>0.0</ele><time>2026-04-30T19:00:43.086Z</time></trkpt><trkpt lat="42.569066" lon="5.6792242"><ele>0.0</ele><time>2026-04-30T19:00:44.086Z</time></trkpt><trkpt lat="42.5691046" lon="5.6793272"><ele>0.0</ele><time>2026-04-30T19:00:45.087Z</time></trkpt><trkpt lat="42.5691392" lon="5.6794305"><ele>0.0</ele><time>2026-04-30T19:00:46.086Z</time></trkpt><trkpt lat="42.5691772" lon="5.6795321"><ele>0.0</ele><time>2026-04-30T19:00:47.086Z</time></trkpt><trkpt lat="42.5692107" lon="5.6796393"><ele>0.0</ele><time>2026-04-30T19:00:48.087Z</time></trkpt><trkpt lat="42.5692368" lon="5.679749"><ele>0.0</ele><time>2026-04-30T19:00:49.086Z</time></trkpt><trkpt lat="42.5692746" lon="5.6798518"><ele>0.0</ele><time>2026-04-30T19:00:50.086Z</time></trkpt><trkpt lat="42.5693161" lon="5.6799506"><ele>0.0</ele><time>2026-04-30T19:00:51.087Z</time></trkpt><trkpt lat="42.5693491" lon="5.6800578"><ele>0.0</ele><time>2026-04-30T19:00:52.086Z</time></trkpt><trkpt lat="42.569378" lon="5.6801605"><ele>0.0</ele><time>2026-04-30T19:00:53.086Z</time></trkpt><trkpt lat="42.5694103" lon="5.6802662"><ele>0.0</ele><time>2026-04-30T19:00:54.086Z</time></trkpt><trkpt lat="42.569445" lon="5.6803754"><ele>0.0</ele><time>2026-04-30T19:00:55.087Z</time></trkpt><trkpt lat="42.5694829" lon="5.6804807"><ele>0.0</ele><time>2026-04-30T19:00:56.086Z</time></trkpt><trkpt lat="42.5695168" lon="5.6805866"><ele>0.0</ele><time>2026-04-30T19:00:57.087Z</time></trkpt><trkpt lat="42.5695518" lon="5.6806916"><ele>0.0</ele><time>2026-04-30T19:00:58.086Z</time></trkpt><trkpt lat="42.5696325" lon="5.6809054"><ele>0.0</ele><time>2026-04-30T19:01:00.087Z</time></trkpt><trkpt lat="42.5696744" lon="5.6810069"><ele>0.0</ele><time>2026-04-30T19:01:01.087Z</time></trkpt><trkpt lat="42.5697106" lon="5.6811099"><ele>0.0</ele><time>2026-04-30T19:01:02.086Z</time></trkpt><trkpt lat="42.5697494" lon="5.6812133"><ele>0.0</ele><time>2026-04-30T19:01:03.087Z</time></trkpt><trkpt lat="42.5697882" lon="5.6813208"><ele>0.0</ele><time>2026-04-30T19:01:04.087Z</time></trkpt><trkpt lat="42.5698225" lon="5.6814291"><ele>0.0</ele><time>2026-04-30T19:01:05.086Z</time></trkpt><trkpt lat="42.5698514" lon="5.6815352"><ele>0.0</ele><time>2026-04-30T19:01:06.087Z</time></trkpt><trkpt lat="42.5698763" lon="5.681646"><ele>0.0</ele><time>2026-04-30T19:01:07.086Z</time></trkpt><trkpt lat="42.5699075" lon="5.6817458"><ele>0.0</ele><time>2026-04-30T19:01:08.087Z</time></trkpt><trkpt lat="42.5699389" lon="5.6818439"><ele>0.0</ele><time>2026-04-30T19:01:09.086Z</time></trkpt><trkpt lat="42.5699568" lon="5.6819475"><ele>0.0</ele><time>2026-04-30T19:01:10.087Z</time></trkpt><trkpt lat="42.5699917" lon="5.6820576"><ele>0.0</ele><time>2026-04-30T19:01:11.086Z</time></trkpt><trkpt lat="42.5700184" lon="5.6821661"><ele>0.0</ele><time>2026-04-30T19:01:12.086Z</time></trkpt><trkpt lat="42.5700563" lon="5.6822743"><ele>0.0</ele><time>2026-04-30T19:01:13.086Z</time></trkpt><trkpt lat="42.5700958" lon="5.6823813"><ele>0.0</ele><time>2026-04-30T19:01:14.086Z</time></trkpt><trkpt lat="42.5701328" lon="5.682488"><ele>0.0</ele><time>2026-04-30T19:01:15.087Z</time></trkpt><trkpt lat="42.5701738" lon="5.6825974"><ele>0.0</ele><time>2026-04-30T19:01:16.086Z</time></trkpt><trkpt lat="42.5702115" lon="5.6827076"><ele>0.0</ele><time>2026-04-30T19:01:17.086Z</time></trkpt><trkpt lat="42.5702499" lon="5.6828175"><ele>0.0</ele><time>2026-04-30T19:01:18.086Z</time></trkpt><trkpt lat="42.5702881" lon="5.6829207"><ele>0.0</ele><time>2026-04-30T19:01:19.086Z</time></trkpt><trkpt lat="42.5703333" lon="5.6830236"><ele>0.0</ele><time>2026-04-30T19:01:20.087Z</time></trkpt><trkpt lat="42.5704151" lon="5.6832253"><ele>0.0</ele><time>2026-04-30T19:01:22.086Z</time></trkpt><trkpt lat="42.5704489" lon="5.6833284"><ele>0.0</ele><time>2026-04-30T19:01:23.087Z</time></trkpt><trkpt lat="42.5704905" lon="5.6834287"><ele>0.0</ele><time>2026-04-30T19:01:24.087Z</time></trkpt><trkpt lat="42.5705252" lon="5.6835348"><ele>0.0</ele><time>2026-04-30T19:01:25.087Z</time></trkpt><trkpt lat="42.5705514" lon="5.6836403"><ele>0.0</ele><time>2026-04-30T19:01:26.086Z</time></trkpt><trkpt lat="42.5705776" lon="5.6837456"><ele>0.0</ele><time>2026-04-30T19:01:27.087Z</time></trkpt><trkpt lat="42.5706111" lon="5.6838504"><ele>0.0</ele><time>2026-04-30T19:01:28.087Z</time></trkpt><trkpt lat="42.5706422" lon="5.6839606"><ele>0.0</ele><time>2026-04-30T19:01:29.087Z</time></trkpt><trkpt lat="42.5706737" lon="5.6840633"><ele>0.0</ele><time>2026-04-30T19:01:30.086Z</time></trkpt><trkpt lat="42.5707073" lon="5.684168"><ele>0.0</ele><time>2026-04-30T19:01:31.086Z</time></trkpt><trkpt lat="42.5707394" lon="5.684272"><ele>0.0</ele><time>2026-04-30T19:01:32.086Z</time></trkpt><trkpt lat="42.5707734" lon="5.6843768"><ele>0.0</ele><time>2026-04-30T19:01:33.087Z</time></trkpt><trkpt lat="42.5708048" lon="5.6844855"><ele>0.0</ele><time>2026-04-30T19:01:34.087Z</time></trkpt><trkpt lat="42.5708364" lon="5.6845863"><ele>0.0</ele><time>2026-04-30T19:01:35.087Z</time></trkpt><trkpt lat="42.5708759" lon="5.6846849"><ele>0.0</ele><time>2026-04-30T19:01:36.086Z</time></trkpt><trkpt lat="42.5709231" lon="5.6847835"><ele>0.0</ele><time>2026-04-30T19:01:37.087Z</time></trkpt><trkpt lat="42.57096" lon="5.6848903"><ele>0.0</ele><time>2026-04-30T19:01:38.086Z</time></trkpt><trkpt lat="42.5709968" lon="5.6849945"><ele>0.0</ele><time>2026-04-30T19:01:39.086Z</time></trkpt><trkpt lat="42.5710351" lon="5.6850958"><ele>0.0</ele><time>2026-04-30T19:01:40.086Z</time></trkpt><trkpt lat="42.5711057" lon="5.6853024"><ele>0.0</ele><time>2026-04-30T19:01:42.086Z</time></trkpt><trkpt lat="42.5711388" lon="5.6854122"><ele>0.0</ele><time>2026-04-30T19:01:43.087Z</time></trkpt><trkpt lat="42.5711722" lon="5.685512"><ele>0.0</ele><time>2026-04-30T19:01:44.086Z</time></trkpt><trkpt lat="42.5712123" lon="5.6856096"><ele>0.0</ele><time>2026-04-30T19:01:45.086Z</time></trkpt><trkpt lat="42.5712544" lon="5.6857148"><ele>0.0</ele><time>2026-04-30T19:01:46.086Z</time></trkpt><trkpt lat="42.571293" lon="5.6858225"><ele>0.0</ele><time>2026-04-30T19:01:47.086Z</time></trkpt><trkpt lat="42.5713304" lon="5.6859305"><ele>0.0</ele><time>2026-04-30T19:01:48.086Z</time></trkpt><trkpt lat="42.5713585" lon="5.686035"><ele>0.0</ele><time>2026-04-30T19:01:49.086Z</time></trkpt><trkpt lat="42.5713909" lon="5.6861355"><ele>0.0</ele><time>2026-04-30T19:01:50.086Z</time></trkpt><trkpt lat="42.5714573" lon="5.6863424"><ele>0.0</ele><time>2026-04-30T19:01:52.086Z</time></trkpt><trkpt lat="42.5714921" lon="5.6864392"><ele>0.0</ele><time>2026-04-30T19:01:53.086Z</time></trkpt><trkpt lat="42.5715289" lon="5.6865412"><ele>0.0</ele><time>2026-04-30T19:01:54.086Z</time></trkpt><trkpt lat="42.5715657" lon="5.6866463"><ele>0.0</ele><time>2026-04-30T19:01:55.087Z</time></trkpt><trkpt lat="42.5716021" lon="5.6867526"><ele>0.0</ele><time>2026-04-30T19:01:56.087Z</time></trkpt><trkpt lat="42.5716357" lon="5.6868604"><ele>0.0</ele><time>2026-04-30T19:01:57.086Z</time></trkpt><trkpt lat="42.5716705" lon="5.686962"><ele>0.0</ele><time>2026-04-30T19:01:58.087Z</time></trkpt><trkpt lat="42.5717066" lon="5.687066"><ele>0.0</ele><time>2026-04-30T19:01:59.087Z</time></trkpt><trkpt lat="42.5717435" lon="5.6871739"><ele>0.0</ele><time>2026-04-30T19:02:00.086Z</time></trkpt><trkpt lat="42.5717759" lon="5.6872768"><ele>0.0</ele><time>2026-04-30T19:02:01.086Z</time></trkpt><trkpt lat="42.5718449" lon="5.687492"><ele>0.0</ele><time>2026-04-30T19:02:03.087Z</time></trkpt><trkpt lat="42.5718776" lon="5.6875966"><ele>0.0</ele><time>2026-04-30T19:02:04.086Z</time></trkpt><trkpt lat="42.5718995" lon="5.6877014"><ele>0.0</ele><time>2026-04-30T19:02:05.086Z</time></trkpt><trkpt lat="42.5719295" lon="5.6878018"><ele>0.0</ele><time>2026-04-30T19:02:06.086Z</time></trkpt><trkpt lat="42.5719668" lon="5.6879004"><ele>0.0</ele><time>2026-04-30T19:02:07.086Z</time></trkpt><trkpt lat="42.5720035" lon="5.6880037"><ele>0.0</ele><time>2026-04-30T19:02:08.086Z</time></trkpt><trkpt lat="42.5720388" lon="5.6881"><ele>0.0</ele><time>2026-04-30T19:02:09.086Z</time></trkpt><trkpt lat="42.5720791" lon="5.6882004"><ele>0.0</ele><time>2026-04-30T19:02:10.086Z</time></trkpt><trkpt lat="42.5721243" lon="5.6882998"><ele>0.0</ele><time>2026-04-30T19:02:11.087Z</time></trkpt><trkpt lat="42.5721565" lon="5.6884069"><ele>0.0</ele><time>2026-04-30T19:02:12.086Z</time></trkpt><trkpt lat="42.5721934" lon="5.6885249"><ele>0.0</ele><time>2026-04-30T19:02:13.087Z</time></trkpt><trkpt lat="42.5722342" lon="5.6886252"><ele>0.0</ele><time>2026-04-30T19:02:14.086Z</time></trkpt><trkpt lat="42.5722733" lon="5.6887341"><ele>0.0</ele><time>2026-04-30T19:02:15.086Z</time></trkpt><trkpt lat="42.5723074" lon="5.6888342"><ele>0.0</ele><time>2026-04-30T19:02:16.086Z</time></trkpt><trkpt lat="42.5723449" lon="5.6889509"><ele>0.0</ele><time>2026-04-30T19:02:17.086Z</time></trkpt><trkpt lat="42.5723833" lon="5.6890553"><ele>0.0</ele><time>2026-04-30T19:02:18.086Z</time></trkpt><trkpt lat="42.5724176" lon="5.6891636"><ele>0.0</ele><time>2026-04-30T19:02:19.086Z</time></trkpt><trkpt lat="42.5724554" lon="5.6892707"><ele>0.0</ele><time>2026-04-30T19:02:20.086Z</time></trkpt><trkpt lat="42.5724921" lon="5.6893862"><ele>0.0</ele><time>2026-04-30T19:02:21.086Z</time></trkpt><trkpt lat="42.5725284" lon="5.6894982"><ele>0.0</ele><time>2026-04-30T19:02:22.087Z</time></trkpt><trkpt lat="42.5725641" lon="5.6896044"><ele>0.0</ele><time>2026-04-30T19:02:23.087Z</time></trkpt><trkpt lat="42.5726321" lon="5.6898372"><ele>0.0</ele><time>2026-04-30T19:02:25.086Z</time></trkpt><trkpt lat="42.572664" lon="5.6899458"><ele>0.0</ele><time>2026-04-30T19:02:26.087Z</time></trkpt><trkpt lat="42.5726952" lon="5.6900519"><ele>0.0</ele><time>2026-04-30T19:02:27.086Z</time></trkpt><trkpt lat="42.5727188" lon="5.6901522"><ele>0.0</ele><time>2026-04-30T19:02:28.087Z</time></trkpt><trkpt lat="42.5727507" lon="5.6902551"><ele>0.0</ele><time>2026-04-30T19:02:29.086Z</time></trkpt><trkpt lat="42.5727867" lon="5.6903545"><ele>0.0</ele><time>2026-04-30T19:02:30.087Z</time></trkpt><trkpt lat="42.572816" lon="5.6904587"><ele>0.0</ele><time>2026-04-30T19:02:31.087Z</time></trkpt><trkpt lat="42.5728466" lon="5.6905578"><ele>0.0</ele><time>2026-04-30T19:02:32.086Z</time></trkpt><trkpt lat="42.5728842" lon="5.6906634"><ele>0.0</ele><time>2026-04-30T19:02:33.087Z</time></trkpt><trkpt lat="42.5729252" lon="5.6907684"><ele>0.0</ele><time>2026-04-30T19:02:34.087Z</time></trkpt><trkpt lat="42.5729695" lon="5.690871"><ele>0.0</ele><time>2026-04-30T19:02:35.086Z</time></trkpt><trkpt lat="42.5730068" lon="5.6909705"><ele>0.0</ele><time>2026-04-30T19:02:36.087Z</time></trkpt><trkpt lat="42.5730348" lon="5.6910694"><ele>0.0</ele><time>2026-04-30T19:02:37.086Z</time></trkpt><trkpt lat="42.5730564" lon="5.6911789"><ele>0.0</ele><time>2026-04-30T19:02:38.086Z</time></trkpt><trkpt lat="42.5730805" lon="5.6912905"><ele>0.0</ele><time>2026-04-30T19:02:39.087Z</time></trkpt><trkpt lat="42.5731095" lon="5.6913977"><ele>0.0</ele><time>2026-04-30T19:02:40.087Z</time></trkpt><trkpt lat="42.5731437" lon="5.6915006"><ele>0.0</ele><time>2026-04-30T19:02:41.086Z</time></trkpt><trkpt lat="42.5731828" lon="5.6916081"><ele>0.0</ele><time>2026-04-30T19:02:42.086Z</time></trkpt><trkpt lat="42.5732322" lon="5.6917168"><ele>0.0</ele><time>2026-04-30T19:02:43.087Z</time></trkpt><trkpt lat="42.5732965" lon="5.6919302"><ele>0.0</ele><time>2026-04-30T19:02:45.086Z</time></trkpt><trkpt lat="42.5733293" lon="5.6920357"><ele>0.0</ele><time>2026-04-30T19:02:46.086Z</time></trkpt><trkpt lat="42.573361" lon="5.6921374"><ele>0.0</ele><time>2026-04-30T19:02:47.086Z</time></trkpt><trkpt lat="42.5733921" lon="5.6922376"><ele>0.0</ele><time>2026-04-30T19:02:48.086Z</time></trkpt><trkpt lat="42.5734261" lon="5.6923389"><ele>0.0</ele><time>2026-04-30T19:02:49.086Z</time></trkpt><trkpt lat="42.5734687" lon="5.6924453"><ele>0.0</ele><time>2026-04-30T19:02:50.086Z</time></trkpt><trkpt lat="42.5735053" lon="5.692553"><ele>0.0</ele><time>2026-04-30T19:02:51.086Z</time></trkpt><trkpt lat="42.5735399" lon="5.6926637"><ele>0.0</ele><time>2026-04-30T19:02:52.087Z</time></trkpt><trkpt lat="42.5735749" lon="5.6927738"><ele>0.0</ele><time>2026-04-30T19:02:53.086Z</time></trkpt><trkpt lat="42.573649" lon="5.6929852"><ele>0.0</ele><time>2026-04-30T19:02:55.087Z</time></trkpt><trkpt lat="42.5736872" lon="5.6930927"><ele>0.0</ele><time>2026-04-30T19:02:56.086Z</time></trkpt><trkpt lat="42.5737279" lon="5.6931908"><ele>0.0</ele><time>2026-04-30T19:02:57.087Z</time></trkpt><trkpt lat="42.5737637" lon="5.693289"><ele>0.0</ele><time>2026-04-30T19:02:58.086Z</time></trkpt><trkpt lat="42.5737968" lon="5.693395"><ele>0.0</ele><time>2026-04-30T19:02:59.087Z</time></trkpt><trkpt lat="42.573836" lon="5.6935104"><ele>0.0</ele><time>2026-04-30T19:03:00.086Z</time></trkpt><trkpt lat="42.5738633" lon="5.6936202"><ele>0.0</ele><time>2026-04-30T19:03:01.086Z</time></trkpt><trkpt lat="42.5738954" lon="5.6937292"><ele>0.0</ele><time>2026-04-30T19:03:02.086Z</time></trkpt><trkpt lat="42.5739273" lon="5.6938322"><ele>0.0</ele><time>2026-04-30T19:03:03.086Z</time></trkpt><trkpt lat="42.5739651" lon="5.693933"><ele>0.0</ele><time>2026-04-30T19:03:04.087Z</time></trkpt><trkpt lat="42.5740468" lon="5.6941377"><ele>0.0</ele><time>2026-04-30T19:03:06.087Z</time></trkpt><trkpt lat="42.5740853" lon="5.6942458"><ele>0.0</ele><time>2026-04-30T19:03:07.086Z</time></trkpt><trkpt lat="42.574122" lon="5.6943497"><ele>0.0</ele><time>2026-04-30T19:03:08.086Z</time></trkpt><trkpt lat="42.5741558" lon="5.6944475"><ele>0.0</ele><time>2026-04-30T19:03:09.086Z</time></trkpt><trkpt lat="42.5741763" lon="5.6945444"><ele>0.0</ele><time>2026-04-30T19:03:10.086Z</time></trkpt><trkpt lat="42.5741991" lon="5.6946394"><ele>0.0</ele><time>2026-04-30T19:03:11.086Z</time></trkpt><trkpt lat="42.5742378" lon="5.6947413"><ele>0.0</ele><time>2026-04-30T19:03:12.086Z</time></trkpt><trkpt lat="42.5742765" lon="5.694851"><ele>0.0</ele><time>2026-04-30T19:03:13.087Z</time></trkpt><trkpt lat="42.5743132" lon="5.6949552"><ele>0.0</ele><time>2026-04-30T19:03:14.086Z</time></trkpt><trkpt lat="42.5743488" lon="5.695061"><ele>0.0</ele><time>2026-04-30T19:03:15.086Z</time></trkpt><trkpt lat="42.5743822" lon="5.6951715"><ele>0.0</ele><time>2026-04-30T19:03:16.086Z</time></trkpt><trkpt lat="42.5744196" lon="5.6952763"><ele>0.0</ele><time>2026-04-30T19:03:17.086Z</time></trkpt><trkpt lat="42.5744565" lon="5.6953785"><ele>0.0</ele><time>2026-04-30T19:03:18.086Z</time></trkpt><trkpt lat="42.5744857" lon="5.6954848"><ele>0.0</ele><time>2026-04-30T19:03:19.086Z</time></trkpt><trkpt lat="42.5745148" lon="5.6955942"><ele>0.0</ele><time>2026-04-30T19:03:20.087Z</time></trkpt><trkpt lat="42.5745446" lon="5.6957029"><ele>0.0</ele><time>2026-04-30T19:03:21.086Z</time></trkpt><trkpt lat="42.5745789" lon="5.6958097"><ele>0.0</ele><time>2026-04-30T19:03:22.086Z</time></trkpt><trkpt lat="42.5746132" lon="5.6959209"><ele>0.0</ele><time>2026-04-30T19:03:23.086Z</time></trkpt><trkpt lat="42.5746484" lon="5.6960238"><ele>0.0</ele><time>2026-04-30T19:03:24.086Z</time></trkpt><trkpt lat="42.5746832" lon="5.6961241"><ele>0.0</ele><time>2026-04-30T19:03:25.087Z</time></trkpt><trkpt lat="42.5747827" lon="5.6964539"><ele>0.0</ele><time>2026-04-30T19:03:28.087Z</time></trkpt><trkpt lat="42.5748124" lon="5.6965629"><ele>0.0</ele><time>2026-04-30T19:03:29.087Z</time></trkpt><trkpt lat="42.5748515" lon="5.6966691"><ele>0.0</ele><time>2026-04-30T19:03:30.086Z</time></trkpt><trkpt lat="42.5748871" lon="5.6967708"><ele>0.0</ele><time>2026-04-30T19:03:31.086Z</time></trkpt><trkpt lat="42.5749233" lon="5.6968765"><ele>0.0</ele><time>2026-04-30T19:03:32.087Z</time></trkpt><trkpt lat="42.5749595" lon="5.6969832"><ele>0.0</ele><time>2026-04-30T19:03:33.086Z</time></trkpt><trkpt lat="42.5749947" lon="5.6970895"><ele>0.0</ele><time>2026-04-30T19:03:34.086Z</time></trkpt><trkpt lat="42.5750269" lon="5.6971952"><ele>0.0</ele><time>2026-04-30T19:03:35.087Z</time></trkpt><trkpt lat="42.5750614" lon="5.6973007"><ele>0.0</ele><time>2026-04-30T19:03:36.086Z</time></trkpt><trkpt lat="42.5751008" lon="5.6974025"><ele>0.0</ele><time>2026-04-30T19:03:37.086Z</time></trkpt><trkpt lat="42.5751384" lon="5.6975014"><ele>0.0</ele><time>2026-04-30T19:03:38.087Z</time></trkpt><trkpt lat="42.5751747" lon="5.697599"><ele>0.0</ele><time>2026-04-30T19:03:39.087Z</time></trkpt><trkpt lat="42.5752071" lon="5.6977014"><ele>0.0</ele><time>2026-04-30T19:03:40.086Z</time></trkpt><trkpt lat="42.5752462" lon="5.6978047"><ele>0.0</ele><time>2026-04-30T19:03:41.086Z</time></trkpt><trkpt lat="42.5752848" lon="5.6979084"><ele>0.0</ele><time>2026-04-30T19:03:42.086Z</time></trkpt><trkpt lat="42.575316" lon="5.6980086"><ele>0.0</ele><time>2026-04-30T19:03:43.086Z</time></trkpt><trkpt lat="42.5753506" lon="5.6981114"><ele>0.0</ele><time>2026-04-30T19:03:44.087Z</time></trkpt><trkpt lat="42.5753853" lon="5.6982154"><ele>0.0</ele><time>2026-04-30T19:03:45.086Z</time></trkpt><trkpt lat="42.5754184" lon="5.6983188"><ele>0.0</ele><time>2026-04-30T19:03:46.086Z</time></trkpt><trkpt lat="42.5754888" lon="5.6985281"><ele>0.0</ele><time>2026-04-30T19:03:48.087Z</time></trkpt><trkpt lat="42.5755243" lon="5.6986298"><ele>0.0</ele><time>2026-04-30T19:03:49.086Z</time></trkpt><trkpt lat="42.5755768" lon="5.6987222"><ele>0.0</ele><time>2026-04-30T19:03:50.087Z</time></trkpt><trkpt lat="42.575615" lon="5.6988278"><ele>0.0</ele><time>2026-04-30T19:03:51.086Z</time></trkpt><trkpt lat="42.5756505" lon="5.6989385"><ele>0.0</ele><time>2026-04-30T19:03:52.086Z</time></trkpt><trkpt lat="42.5756879" lon="5.6990466"><ele>0.0</ele><time>2026-04-30T19:03:53.086Z</time></trkpt><trkpt lat="42.5757247" lon="5.6991617"><ele>0.0</ele><time>2026-04-30T19:03:54.086Z</time></trkpt><trkpt lat="42.5757673" lon="5.6992701"><ele>0.0</ele><time>2026-04-30T19:03:55.086Z</time></trkpt><trkpt lat="42.5758019" lon="5.6993747"><ele>0.0</ele><time>2026-04-30T19:03:56.086Z</time></trkpt><trkpt lat="42.5758402" lon="5.6994766"><ele>0.0</ele><time>2026-04-30T19:03:57.086Z</time></trkpt><trkpt lat="42.5759126" lon="5.6996892"><ele>0.0</ele><time>2026-04-30T19:03:59.086Z</time></trkpt><trkpt lat="42.5759505" lon="5.6997903"><ele>0.0</ele><time>2026-04-30T19:04:00.087Z</time></trkpt><trkpt lat="42.5759829" lon="5.6998901"><ele>0.0</ele><time>2026-04-30T19:04:01.086Z</time></trkpt><trkpt lat="42.5760157" lon="5.6999959"><ele>0.0</ele><time>2026-04-30T19:04:02.086Z</time></trkpt><trkpt lat="42.5760509" lon="5.7000929"><ele>0.0</ele><time>2026-04-30T19:04:03.086Z</time></trkpt><trkpt lat="42.5760814" lon="5.7001997"><ele>0.0</ele><time>2026-04-30T19:04:04.087Z</time></trkpt><trkpt lat="42.57611" lon="5.7003093"><ele>0.0</ele><time>2026-04-30T19:04:05.086Z</time></trkpt><trkpt lat="42.5761383" lon="5.7004131"><ele>0.0</ele><time>2026-04-30T19:04:06.086Z</time></trkpt><trkpt lat="42.5761712" lon="5.7005206"><ele>0.0</ele><time>2026-04-30T19:04:07.087Z</time></trkpt><trkpt lat="42.5762417" lon="5.7007326"><ele>0.0</ele><time>2026-04-30T19:04:09.086Z</time></trkpt><trkpt lat="42.5762782" lon="5.7008362"><ele>0.0</ele><time>2026-04-30T19:04:10.086Z</time></trkpt><trkpt lat="42.5763207" lon="5.7009399"><ele>0.0</ele><time>2026-04-30T19:04:11.086Z</time></trkpt><trkpt lat="42.5763622" lon="5.7010389"><ele>0.0</ele><time>2026-04-30T19:04:12.086Z</time></trkpt><trkpt lat="42.5763968" lon="5.7011417"><ele>0.0</ele><time>2026-04-30T19:04:13.086Z</time></trkpt><trkpt lat="42.5764355" lon="5.7012413"><ele>0.0</ele><time>2026-04-30T19:04:14.087Z</time></trkpt><trkpt lat="42.5764704" lon="5.7013424"><ele>0.0</ele><time>2026-04-30T19:04:15.087Z</time></trkpt><trkpt lat="42.5765024" lon="5.7014437"><ele>0.0</ele><time>2026-04-30T19:04:16.086Z</time></trkpt><trkpt lat="42.5765405" lon="5.701545"><ele>0.0</ele><time>2026-04-30T19:04:17.086Z</time></trkpt><trkpt lat="42.5765762" lon="5.7016498"><ele>0.0</ele><time>2026-04-30T19:04:18.086Z</time></trkpt><trkpt lat="42.576605" lon="5.7017565"><ele>0.0</ele><time>2026-04-30T19:04:19.086Z</time></trkpt><trkpt lat="42.5766414" lon="5.7018576"><ele>0.0</ele><time>2026-04-30T19:04:20.087Z</time></trkpt><trkpt lat="42.576684" lon="5.7019532"><ele>0.0</ele><time>2026-04-30T19:04:21.086Z</time></trkpt><trkpt lat="42.5767257" lon="5.702052"><ele>0.0</ele><time>2026-04-30T19:04:22.086Z</time></trkpt><trkpt lat="42.5767707" lon="5.702152"><ele>0.0</ele><time>2026-04-30T19:04:23.087Z</time></trkpt><trkpt lat="42.5768129" lon="5.7022562"><ele>0.0</ele><time>2026-04-30T19:04:24.087Z</time></trkpt><trkpt lat="42.576853" lon="5.7023598"><ele>0.0</ele><time>2026-04-30T19:04:25.086Z</time></trkpt><trkpt lat="42.5768902" lon="5.7024661"><ele>0.0</ele><time>2026-04-30T19:04:26.086Z</time></trkpt><trkpt lat="42.5769336" lon="5.7025786"><ele>0.0</ele><time>2026-04-30T19:04:27.087Z</time></trkpt><trkpt lat="42.5769603" lon="5.7026832"><ele>0.0</ele><time>2026-04-30T19:04:28.087Z</time></trkpt><trkpt lat="42.5769909" lon="5.7027851"><ele>0.0</ele><time>2026-04-30T19:04:29.086Z</time></trkpt><trkpt lat="42.5771038" lon="5.7030993"><ele>0.0</ele><time>2026-04-30T19:04:32.086Z</time></trkpt><trkpt lat="42.5771371" lon="5.7032116"><ele>0.0</ele><time>2026-04-30T19:04:33.086Z</time></trkpt><trkpt lat="42.5771708" lon="5.7033217"><ele>0.0</ele><time>2026-04-30T19:04:34.087Z</time></trkpt><trkpt lat="42.5772039" lon="5.7034275"><ele>0.0</ele><time>2026-04-30T19:04:35.087Z</time></trkpt><trkpt lat="42.5772357" lon="5.7035302"><ele>0.0</ele><time>2026-04-30T19:04:36.086Z</time></trkpt><trkpt lat="42.5772657" lon="5.7036333"><ele>0.0</ele><time>2026-04-30T19:04:37.086Z</time></trkpt><trkpt lat="42.5772985" lon="5.7037346"><ele>0.0</ele><time>2026-04-30T19:04:38.087Z</time></trkpt><trkpt lat="42.5773329" lon="5.7038346"><ele>0.0</ele><time>2026-04-30T19:04:39.087Z</time></trkpt><trkpt lat="42.5773557" lon="5.7039371"><ele>0.0</ele><time>2026-04-30T19:04:40.087Z</time></trkpt><trkpt lat="42.5773919" lon="5.7040374"><ele>0.0</ele><time>2026-04-30T19:04:41.087Z</time></trkpt><trkpt lat="42.5774329" lon="5.7041415"><ele>0.0</ele><time>2026-04-30T19:04:42.086Z</time></trkpt><trkpt lat="42.5774719" lon="5.7042448"><ele>0.0</ele><time>2026-04-30T19:04:43.086Z</time></trkpt><trkpt lat="42.577506" lon="5.7043527"><ele>0.0</ele><time>2026-04-30T19:04:44.087Z</time></trkpt><trkpt lat="42.5775372" lon="5.7044637"><ele>0.0</ele><time>2026-04-30T19:04:45.086Z</time></trkpt><trkpt lat="42.5775671" lon="5.7045707"><ele>0.0</ele><time>2026-04-30T19:04:46.086Z</time></trkpt><trkpt lat="42.5776034" lon="5.7046747"><ele>0.0</ele><time>2026-04-30T19:04:47.086Z</time></trkpt><trkpt lat="42.577637" lon="5.7047769"><ele>0.0</ele><time>2026-04-30T19:04:48.086Z</time></trkpt><trkpt lat="42.5776758" lon="5.7048756"><ele>0.0</ele><time>2026-04-30T19:04:49.087Z</time></trkpt><trkpt lat="42.5777093" lon="5.7049827"><ele>0.0</ele><time>2026-04-30T19:04:50.087Z</time></trkpt><trkpt lat="42.5777395" lon="5.7050844"><ele>0.0</ele><time>2026-04-30T19:04:51.086Z</time></trkpt><trkpt lat="42.5778191" lon="5.7052892"><ele>0.0</ele><time>2026-04-30T19:04:53.086Z</time></trkpt><trkpt lat="42.5778568" lon="5.7053959"><ele>0.0</ele><time>2026-04-30T19:04:54.086Z</time></trkpt><trkpt lat="42.5778946" lon="5.7054972"><ele>0.0</ele><time>2026-04-30T19:04:55.086Z</time></trkpt><trkpt lat="42.5779243" lon="5.7056055"><ele>0.0</ele><time>2026-04-30T19:04:56.087Z</time></trkpt><trkpt lat="42.5779527" lon="5.7057154"><ele>0.0</ele><time>2026-04-30T19:04:57.087Z</time></trkpt><trkpt lat="42.5779914" lon="5.705824"><ele>0.0</ele><time>2026-04-30T19:04:58.087Z</time></trkpt><trkpt lat="42.5780288" lon="5.7059311"><ele>0.0</ele><time>2026-04-30T19:04:59.087Z</time></trkpt><trkpt lat="42.5780651" lon="5.7060418"><ele>0.0</ele><time>2026-04-30T19:05:00.086Z</time></trkpt><trkpt lat="42.5781217" lon="5.7061378"><ele>0.0</ele><time>2026-04-30T19:05:01.086Z</time></trkpt><trkpt lat="42.5782111" lon="5.7063406"><ele>0.0</ele><time>2026-04-30T19:05:03.086Z</time></trkpt><trkpt lat="42.578248" lon="5.706442"><ele>0.0</ele><time>2026-04-30T19:05:04.086Z</time></trkpt><trkpt lat="42.5782845" lon="5.7065436"><ele>0.0</ele><time>2026-04-30T19:05:05.087Z</time></trkpt><trkpt lat="42.5783171" lon="5.7066498"><ele>0.0</ele><time>2026-04-30T19:05:06.086Z</time></trkpt><trkpt lat="42.5783505" lon="5.7067633"><ele>0.0</ele><time>2026-04-30T19:05:07.086Z</time></trkpt><trkpt lat="42.5783636" lon="5.7068747"><ele>0.0</ele><time>2026-04-30T19:05:08.086Z</time></trkpt><trkpt lat="42.5783989" lon="5.7069796"><ele>0.0</ele><time>2026-04-30T19:05:09.086Z</time></trkpt><trkpt lat="42.5784211" lon="5.7070864"><ele>0.0</ele><time>2026-04-30T19:05:10.086Z</time></trkpt><trkpt lat="42.5784599" lon="5.7071905"><ele>0.0</ele><time>2026-04-30T19:05:11.087Z</time></trkpt><trkpt lat="42.5784969" lon="5.7072967"><ele>0.0</ele><time>2026-04-30T19:05:12.086Z</time></trkpt><trkpt lat="42.5786082" lon="5.7074997"><ele>0.0</ele><time>2026-04-30T19:05:14.086Z</time></trkpt><trkpt lat="42.5786486" lon="5.707602"><ele>0.0</ele><time>2026-04-30T19:05:15.087Z</time></trkpt><trkpt lat="42.578683" lon="5.7076992"><ele>0.0</ele><time>2026-04-30T19:05:16.087Z</time></trkpt><trkpt lat="42.5787203" lon="5.7077998"><ele>0.0</ele><time>2026-04-30T19:05:17.086Z</time></trkpt><trkpt lat="42.5787538" lon="5.7079021"><ele>0.0</ele><time>2026-04-30T19:05:18.087Z</time></trkpt><trkpt lat="42.5787884" lon="5.7080092"><ele>0.0</ele><time>2026-04-30T19:05:19.087Z</time></trkpt><trkpt lat="42.5788236" lon="5.7081174"><ele>0.0</ele><time>2026-04-30T19:05:20.087Z</time></trkpt><trkpt lat="42.5788697" lon="5.7082171"><ele>0.0</ele><time>2026-04-30T19:05:21.086Z</time></trkpt><trkpt lat="42.5789038" lon="5.708317"><ele>0.0</ele><time>2026-04-30T19:05:22.086Z</time></trkpt><trkpt lat="42.5789323" lon="5.708424"><ele>0.0</ele><time>2026-04-30T19:05:23.087Z</time></trkpt><trkpt lat="42.5789717" lon="5.7085278"><ele>0.0</ele><time>2026-04-30T19:05:24.087Z</time></trkpt><trkpt lat="42.5790147" lon="5.7086299"><ele>0.0</ele><time>2026-04-30T19:05:25.087Z</time></trkpt><trkpt lat="42.5790524" lon="5.7087361"><ele>0.0</ele><time>2026-04-30T19:05:26.087Z</time></trkpt><trkpt lat="42.5790875" lon="5.7088443"><ele>0.0</ele><time>2026-04-30T19:05:27.086Z</time></trkpt><trkpt lat="42.5791152" lon="5.70896"><ele>0.0</ele><time>2026-04-30T19:05:28.087Z</time></trkpt><trkpt lat="42.5791443" lon="5.7090635"><ele>0.0</ele><time>2026-04-30T19:05:29.086Z</time></trkpt><trkpt lat="42.5791779" lon="5.7091671"><ele>0.0</ele><time>2026-04-30T19:05:30.086Z</time></trkpt><trkpt lat="42.5792232" lon="5.7092633"><ele>0.0</ele><time>2026-04-30T19:05:31.087Z</time></trkpt><trkpt lat="42.5792536" lon="5.7093628"><ele>0.0</ele><time>2026-04-30T19:05:32.086Z</time></trkpt><trkpt lat="42.5792955" lon="5.7094673"><ele>0.0</ele><time>2026-04-30T19:05:33.086Z</time></trkpt><trkpt lat="42.5794095" lon="5.7097894"><ele>0.0</ele><time>2026-04-30T19:05:36.087Z</time></trkpt><trkpt lat="42.5794369" lon="5.709893"><ele>0.0</ele><time>2026-04-30T19:05:37.086Z</time></trkpt><trkpt lat="42.5794646" lon="5.7099936"><ele>0.0</ele><time>2026-04-30T19:05:38.087Z</time></trkpt><trkpt lat="42.5794965" lon="5.7101001"><ele>0.0</ele><time>2026-04-30T19:05:39.086Z</time></trkpt><trkpt lat="42.579533" lon="5.7102009"><ele>0.0</ele><time>2026-04-30T19:05:40.087Z</time></trkpt><trkpt lat="42.5795722" lon="5.7103025"><ele>0.0</ele><time>2026-04-30T19:05:41.087Z</time></trkpt><trkpt lat="42.5796074" lon="5.7104103"><ele>0.0</ele><time>2026-04-30T19:05:42.087Z</time></trkpt><trkpt lat="42.5796381" lon="5.7105203"><ele>0.0</ele><time>2026-04-30T19:05:43.087Z</time></trkpt><trkpt lat="42.5796735" lon="5.7106338"><ele>0.0</ele><time>2026-04-30T19:05:44.087Z</time></trkpt><trkpt lat="42.579711" lon="5.7107471"><ele>0.0</ele><time>2026-04-30T19:05:45.086Z</time></trkpt><trkpt lat="42.5797407" lon="5.7108563"><ele>0.0</ele><time>2026-04-30T19:05:46.086Z</time></trkpt><trkpt lat="42.5797707" lon="5.7109643"><ele>0.0</ele><time>2026-04-30T19:05:47.086Z</time></trkpt><trkpt lat="42.5798117" lon="5.711068"><ele>0.0</ele><time>2026-04-30T19:05:48.086Z</time></trkpt><trkpt lat="42.5798555" lon="5.7111731"><ele>0.0</ele><time>2026-04-30T19:05:49.086Z</time></trkpt><trkpt lat="42.5798921" lon="5.7112775"><ele>0.0</ele><time>2026-04-30T19:05:50.086Z</time></trkpt><trkpt lat="42.579923" lon="5.7113841"><ele>0.0</ele><time>2026-04-30T19:05:51.086Z</time></trkpt><trkpt lat="42.5799559" lon="5.7114878"><ele>0.0</ele><time>2026-04-30T19:05:52.086Z</time></trkpt><trkpt lat="42.5799866" lon="5.7115897"><ele>0.0</ele><time>2026-04-30T19:05:53.086Z</time></trkpt><trkpt lat="42.5800205" lon="5.7116902"><ele>0.0</ele><time>2026-04-30T19:05:54.086Z</time></trkpt><trkpt lat="42.5800573" lon="5.7117942"><ele>0.0</ele><time>2026-04-30T19:05:55.087Z</time></trkpt><trkpt lat="42.5801321" lon="5.712006"><ele>0.0</ele><time>2026-04-30T19:05:57.086Z</time></trkpt><trkpt lat="42.5801734" lon="5.7121065"><ele>0.0</ele><time>2026-04-30T19:05:58.086Z</time></trkpt><trkpt lat="42.5802278" lon="5.7122066"><ele>0.0</ele><time>2026-04-30T19:05:59.086Z</time></trkpt><trkpt lat="42.5802806" lon="5.7123046"><ele>0.0</ele><time>2026-04-30T19:06:00.087Z</time></trkpt><trkpt lat="42.5803283" lon="5.7124068"><ele>0.0</ele><time>2026-04-30T19:06:01.086Z</time></trkpt><trkpt lat="42.5803662" lon="5.7125106"><ele>0.0</ele><time>2026-04-30T19:06:02.086Z</time></trkpt><trkpt lat="42.5804162" lon="5.7126049"><ele>0.0</ele><time>2026-04-30T19:06:03.086Z</time></trkpt><trkpt lat="42.5804478" lon="5.7127106"><ele>0.0</ele><time>2026-04-30T19:06:04.086Z</time></trkpt><trkpt lat="42.580479" lon="5.7128223"><ele>0.0</ele><time>2026-04-30T19:06:05.085Z</time></trkpt><trkpt lat="42.580566" lon="5.7130284"><ele>0.0</ele><time>2026-04-30T19:06:07.086Z</time></trkpt><trkpt lat="42.580596" lon="5.7131407"><ele>0.0</ele><time>2026-04-30T19:06:08.085Z</time></trkpt><trkpt lat="42.5806303" lon="5.7132436"><ele>0.0</ele><time>2026-04-30T19:06:09.086Z</time></trkpt><trkpt lat="42.5806636" lon="5.7133472"><ele>0.0</ele><time>2026-04-30T19:06:10.085Z</time></trkpt><trkpt lat="42.5807042" lon="5.7134447"><ele>0.0</ele><time>2026-04-30T19:06:11.086Z</time></trkpt><trkpt lat="42.5807467" lon="5.713539"><ele>0.0</ele><time>2026-04-30T19:06:12.085Z</time></trkpt><trkpt lat="42.5807818" lon="5.7136392"><ele>0.0</ele><time>2026-04-30T19:06:13.086Z</time></trkpt><trkpt lat="42.5808127" lon="5.7137477"><ele>0.0</ele><time>2026-04-30T19:06:14.085Z</time></trkpt><trkpt lat="42.5808428" lon="5.7138575"><ele>0.0</ele><time>2026-04-30T19:06:15.086Z</time></trkpt><trkpt lat="42.580874" lon="5.7139719"><ele>0.0</ele><time>2026-04-30T19:06:16.085Z</time></trkpt><trkpt lat="42.5809306" lon="5.7141915"><ele>0.0</ele><time>2026-04-30T19:06:18.086Z</time></trkpt><trkpt lat="42.5809623" lon="5.7143012"><ele>0.0</ele><time>2026-04-30T19:06:19.086Z</time></trkpt><trkpt lat="42.5809982" lon="5.7144083"><ele>0.0</ele><time>2026-04-30T19:06:20.085Z</time></trkpt><trkpt lat="42.5810321" lon="5.7145148"><ele>0.0</ele><time>2026-04-30T19:06:21.085Z</time></trkpt><trkpt lat="42.5810697" lon="5.7146143"><ele>0.0</ele><time>2026-04-30T19:06:22.086Z</time></trkpt><trkpt lat="42.581107" lon="5.7147142"><ele>0.0</ele><time>2026-04-30T19:06:23.085Z</time></trkpt><trkpt lat="42.581142" lon="5.7148186"><ele>0.0</ele><time>2026-04-30T19:06:24.086Z</time></trkpt><trkpt lat="42.5811768" lon="5.7149246"><ele>0.0</ele><time>2026-04-30T19:06:25.086Z</time></trkpt><trkpt lat="42.5812121" lon="5.7150299"><ele>0.0</ele><time>2026-04-30T19:06:26.085Z</time></trkpt><trkpt lat="42.5812438" lon="5.7151364"><ele>0.0</ele><time>2026-04-30T19:06:27.085Z</time></trkpt><trkpt lat="42.5812886" lon="5.7152428"><ele>0.0</ele><time>2026-04-30T19:06:28.086Z</time></trkpt><trkpt lat="42.5813219" lon="5.7153512"><ele>0.0</ele><time>2026-04-30T19:06:29.086Z</time></trkpt><trkpt lat="42.5813737" lon="5.715457"><ele>0.0</ele><time>2026-04-30T19:06:30.086Z</time></trkpt><trkpt lat="42.5814072" lon="5.7155663"><ele>0.0</ele><time>2026-04-30T19:06:31.086Z</time></trkpt><trkpt lat="42.5814373" lon="5.7156762"><ele>0.0</ele><time>2026-04-30T19:06:32.085Z</time></trkpt><trkpt lat="42.5814747" lon="5.7157772"><ele>0.0</ele><time>2026-04-30T19:06:33.085Z</time></trkpt><trkpt lat="42.5815212" lon="5.7158758"><ele>0.0</ele><time>2026-04-30T19:06:34.085Z</time></trkpt><trkpt lat="42.5815596" lon="5.7159788"><ele>0.0</ele><time>2026-04-30T19:06:35.085Z</time></trkpt><trkpt lat="42.5815937" lon="5.7160807"><ele>0.0</ele><time>2026-04-30T19:06:36.085Z</time></trkpt><trkpt lat="42.581641" lon="5.7161837"><ele>0.0</ele><time>2026-04-30T19:06:37.085Z</time></trkpt><trkpt lat="42.5817378" lon="5.7164952"><ele>0.0</ele><time>2026-04-30T19:06:40.085Z</time></trkpt><trkpt lat="42.5817648" lon="5.7166025"><ele>0.0</ele><time>2026-04-30T19:06:41.086Z</time></trkpt><trkpt lat="42.5817844" lon="5.7167166"><ele>0.0</ele><time>2026-04-30T19:06:42.086Z</time></trkpt><trkpt lat="42.581815" lon="5.716822"><ele>0.0</ele><time>2026-04-30T19:06:43.086Z</time></trkpt><trkpt lat="42.5818384" lon="5.7169254"><ele>0.0</ele><time>2026-04-30T19:06:44.086Z</time></trkpt><trkpt lat="42.581872" lon="5.7170227"><ele>0.0</ele><time>2026-04-30T19:06:45.085Z</time></trkpt><trkpt lat="42.5819065" lon="5.7171241"><ele>0.0</ele><time>2026-04-30T19:06:46.085Z</time></trkpt><trkpt lat="42.5819429" lon="5.717227"><ele>0.0</ele><time>2026-04-30T19:06:47.086Z</time></trkpt><trkpt lat="42.5819793" lon="5.7173329"><ele>0.0</ele><time>2026-04-30T19:06:48.085Z</time></trkpt><trkpt lat="42.5820137" lon="5.7174449"><ele>0.0</ele><time>2026-04-30T19:06:49.085Z</time></trkpt><trkpt lat="42.582047" lon="5.7175544"><ele>0.0</ele><time>2026-04-30T19:06:50.085Z</time></trkpt><trkpt lat="42.5820847" lon="5.7176614"><ele>0.0</ele><time>2026-04-30T19:06:51.086Z</time></trkpt><trkpt lat="42.5821229" lon="5.7177678"><ele>0.0</ele><time>2026-04-30T19:06:52.085Z</time></trkpt><trkpt lat="42.5821673" lon="5.717867"><ele>0.0</ele><time>2026-04-30T19:06:53.086Z</time></trkpt><trkpt lat="42.5822092" lon="5.7179588"><ele>0.0</ele><time>2026-04-30T19:06:54.085Z</time></trkpt><trkpt lat="42.5822479" lon="5.71806"><ele>0.0</ele><time>2026-04-30T19:06:55.085Z</time></trkpt><trkpt lat="42.5822838" lon="5.7181676"><ele>0.0</ele><time>2026-04-30T19:06:56.086Z</time></trkpt><trkpt lat="42.5823188" lon="5.7182719"><ele>0.0</ele><time>2026-04-30T19:06:57.086Z</time></trkpt><trkpt lat="42.5823518" lon="5.7183799"><ele>0.0</ele><time>2026-04-30T19:06:58.085Z</time></trkpt><trkpt lat="42.5823895" lon="5.7184851"><ele>0.0</ele><time>2026-04-30T19:06:59.085Z</time></trkpt><trkpt lat="42.5824764" lon="5.7186891"><ele>0.0</ele><time>2026-04-30T19:07:01.086Z</time></trkpt><trkpt lat="42.5825184" lon="5.7187913"><ele>0.0</ele><time>2026-04-30T19:07:02.085Z</time></trkpt><trkpt lat="42.5825545" lon="5.7188889"><ele>0.0</ele><time>2026-04-30T19:07:03.086Z</time></trkpt><trkpt lat="42.5825868" lon="5.718984"><ele>0.0</ele><time>2026-04-30T19:07:04.086Z</time></trkpt><trkpt lat="42.5826224" lon="5.7190858"><ele>0.0</ele><time>2026-04-30T19:07:05.085Z</time></trkpt><trkpt lat="42.5826557" lon="5.7191848"><ele>0.0</ele><time>2026-04-30T19:07:06.085Z</time></trkpt><trkpt lat="42.5826895" lon="5.7192843"><ele>0.0</ele><time>2026-04-30T19:07:07.086Z</time></trkpt><trkpt lat="42.5827215" lon="5.7193889"><ele>0.0</ele><time>2026-04-30T19:07:08.086Z</time></trkpt><trkpt lat="42.5827518" lon="5.7194966"><ele>0.0</ele><time>2026-04-30T19:07:09.085Z</time></trkpt><trkpt lat="42.5828169" lon="5.7197152"><ele>0.0</ele><time>2026-04-30T19:07:11.086Z</time></trkpt><trkpt lat="42.5828469" lon="5.719832"><ele>0.0</ele><time>2026-04-30T19:07:12.085Z</time></trkpt><trkpt lat="42.5828806" lon="5.7199392"><ele>0.0</ele><time>2026-04-30T19:07:13.085Z</time></trkpt><trkpt lat="42.5829126" lon="5.7200489"><ele>0.0</ele><time>2026-04-30T19:07:14.085Z</time></trkpt><trkpt lat="42.5829483" lon="5.7201532"><ele>0.0</ele><time>2026-04-30T19:07:15.086Z</time></trkpt><trkpt lat="42.5829815" lon="5.7202616"><ele>0.0</ele><time>2026-04-30T19:07:16.085Z</time></trkpt><trkpt lat="42.583022" lon="5.7203642"><ele>0.0</ele><time>2026-04-30T19:07:17.086Z</time></trkpt><trkpt lat="42.5830619" lon="5.7204674"><ele>0.0</ele><time>2026-04-30T19:07:18.085Z</time></trkpt><trkpt lat="42.583098" lon="5.7205719"><ele>0.0</ele><time>2026-04-30T19:07:19.085Z</time></trkpt><trkpt lat="42.5831329" lon="5.7206823"><ele>0.0</ele><time>2026-04-30T19:07:20.085Z</time></trkpt><trkpt lat="42.5832" lon="5.7209009"><ele>0.0</ele><time>2026-04-30T19:07:22.086Z</time></trkpt><trkpt lat="42.583233" lon="5.7210115"><ele>0.0</ele><time>2026-04-30T19:07:23.085Z</time></trkpt><trkpt lat="42.5832597" lon="5.7211194"><ele>0.0</ele><time>2026-04-30T19:07:24.085Z</time></trkpt><trkpt lat="42.5832892" lon="5.7212279"><ele>0.0</ele><time>2026-04-30T19:07:25.085Z</time></trkpt><trkpt lat="42.583323" lon="5.7213336"><ele>0.0</ele><time>2026-04-30T19:07:26.086Z</time></trkpt><trkpt lat="42.5833584" lon="5.7214385"><ele>0.0</ele><time>2026-04-30T19:07:27.086Z</time></trkpt><trkpt lat="42.5833933" lon="5.7215451"><ele>0.0</ele><time>2026-04-30T19:07:28.086Z</time></trkpt><trkpt lat="42.583427" lon="5.7216503"><ele>0.0</ele><time>2026-04-30T19:07:29.085Z</time></trkpt><trkpt lat="42.5834634" lon="5.721757"><ele>0.0</ele><time>2026-04-30T19:07:30.085Z</time></trkpt><trkpt lat="42.5834988" lon="5.7218639"><ele>0.0</ele><time>2026-04-30T19:07:31.085Z</time></trkpt><trkpt lat="42.5835295" lon="5.7219676"><ele>0.0</ele><time>2026-04-30T19:07:32.085Z</time></trkpt><trkpt lat="42.5835711" lon="5.7220734"><ele>0.0</ele><time>2026-04-30T19:07:33.085Z</time></trkpt><trkpt lat="42.5836128" lon="5.722176"><ele>0.0</ele><time>2026-04-30T19:07:34.085Z</time></trkpt><trkpt lat="42.583653" lon="5.7222792"><ele>0.0</ele><time>2026-04-30T19:07:35.086Z</time></trkpt><trkpt lat="42.5836927" lon="5.7223835"><ele>0.0</ele><time>2026-04-30T19:07:36.085Z</time></trkpt><trkpt lat="42.583736" lon="5.722487"><ele>0.0</ele><time>2026-04-30T19:07:37.085Z</time></trkpt><trkpt lat="42.5837788" lon="5.7225904"><ele>0.0</ele><time>2026-04-30T19:07:38.085Z</time></trkpt><trkpt lat="42.5838346" lon="5.7226828"><ele>0.0</ele><time>2026-04-30T19:07:39.086Z</time></trkpt><trkpt lat="42.5838763" lon="5.7227798"><ele>0.0</ele><time>2026-04-30T19:07:40.086Z</time></trkpt><trkpt lat="42.5839149" lon="5.7228808"><ele>0.0</ele><time>2026-04-30T19:07:41.086Z</time></trkpt><trkpt lat="42.5840275" lon="5.7231937"><ele>0.0</ele><time>2026-04-30T19:07:44.085Z</time></trkpt><trkpt lat="42.584054" lon="5.7232983"><ele>0.0</ele><time>2026-04-30T19:07:45.085Z</time></trkpt><trkpt lat="42.5840801" lon="5.7234004"><ele>0.0</ele><time>2026-04-30T19:07:46.085Z</time></trkpt><trkpt lat="42.5841119" lon="5.7235022"><ele>0.0</ele><time>2026-04-30T19:07:47.085Z</time></trkpt><trkpt lat="42.5841423" lon="5.7236058"><ele>0.0</ele><time>2026-04-30T19:07:48.085Z</time></trkpt><trkpt lat="42.5841966" lon="5.7237044"><ele>0.0</ele><time>2026-04-30T19:07:49.085Z</time></trkpt><trkpt lat="42.5842289" lon="5.7238113"><ele>0.0</ele><time>2026-04-30T19:07:50.086Z</time></trkpt><trkpt lat="42.5842591" lon="5.7239194"><ele>0.0</ele><time>2026-04-30T19:07:51.085Z</time></trkpt><trkpt lat="42.5842932" lon="5.7240204"><ele>0.0</ele><time>2026-04-30T19:07:52.086Z</time></trkpt><trkpt lat="42.584324" lon="5.7241208"><ele>0.0</ele><time>2026-04-30T19:07:53.085Z</time></trkpt><trkpt lat="42.5843742" lon="5.7242224"><ele>0.0</ele><time>2026-04-30T19:07:54.085Z</time></trkpt><trkpt lat="42.584406" lon="5.7243224"><ele>0.0</ele><time>2026-04-30T19:07:55.086Z</time></trkpt><trkpt lat="42.5844319" lon="5.724425"><ele>0.0</ele><time>2026-04-30T19:07:56.085Z</time></trkpt><trkpt lat="42.5844682" lon="5.7245314"><ele>0.0</ele><time>2026-04-30T19:07:57.086Z</time></trkpt><trkpt lat="42.5844948" lon="5.7246368"><ele>0.0</ele><time>2026-04-30T19:07:58.085Z</time></trkpt><trkpt lat="42.5845231" lon="5.7247374"><ele>0.0</ele><time>2026-04-30T19:07:59.085Z</time></trkpt><trkpt lat="42.5845567" lon="5.7248399"><ele>0.0</ele><time>2026-04-30T19:08:00.085Z</time></trkpt><trkpt lat="42.5845878" lon="5.7249476"><ele>0.0</ele><time>2026-04-30T19:08:01.085Z</time></trkpt><trkpt lat="42.5846332" lon="5.7250474"><ele>0.0</ele><time>2026-04-30T19:08:02.085Z</time></trkpt><trkpt lat="42.5846811" lon="5.7251433"><ele>0.0</ele><time>2026-04-30T19:08:03.085Z</time></trkpt><trkpt lat="42.5847426" lon="5.7253605"><ele>0.0</ele><time>2026-04-30T19:08:05.085Z</time></trkpt><trkpt lat="42.5847715" lon="5.7254662"><ele>0.0</ele><time>2026-04-30T19:08:06.086Z</time></trkpt><trkpt lat="42.5848085" lon="5.7255647"><ele>0.0</ele><time>2026-04-30T19:08:07.086Z</time></trkpt><trkpt lat="42.5848437" lon="5.7256656"><ele>0.0</ele><time>2026-04-30T19:08:08.086Z</time></trkpt><trkpt lat="42.5848758" lon="5.7257688"><ele>0.0</ele><time>2026-04-30T19:08:09.086Z</time></trkpt><trkpt lat="42.584909" lon="5.725869"><ele>0.0</ele><time>2026-04-30T19:08:10.085Z</time></trkpt><trkpt lat="42.5849421" lon="5.7259718"><ele>0.0</ele><time>2026-04-30T19:08:11.085Z</time></trkpt><trkpt lat="42.584978" lon="5.7260736"><ele>0.0</ele><time>2026-04-30T19:08:12.085Z</time></trkpt><trkpt lat="42.5850724" lon="5.7262806"><ele>0.0</ele><time>2026-04-30T19:08:14.086Z</time></trkpt><trkpt lat="42.5851082" lon="5.7263931"><ele>0.0</ele><time>2026-04-30T19:08:15.086Z</time></trkpt><trkpt lat="42.5851409" lon="5.7264962"><ele>0.0</ele><time>2026-04-30T19:08:16.085Z</time></trkpt><trkpt lat="42.5852034" lon="5.7265928"><ele>0.0</ele><time>2026-04-30T19:08:17.085Z</time></trkpt><trkpt lat="42.5852412" lon="5.7266993"><ele>0.0</ele><time>2026-04-30T19:08:18.086Z</time></trkpt><trkpt lat="42.5852911" lon="5.7267959"><ele>0.0</ele><time>2026-04-30T19:08:19.085Z</time></trkpt><trkpt lat="42.5853354" lon="5.7268914"><ele>0.0</ele><time>2026-04-30T19:08:20.086Z</time></trkpt><trkpt lat="42.5853643" lon="5.7269994"><ele>0.0</ele><time>2026-04-30T19:08:21.085Z</time></trkpt><trkpt lat="42.5853985" lon="5.7271018"><ele>0.0</ele><time>2026-04-30T19:08:22.086Z</time></trkpt><trkpt lat="42.5854336" lon="5.7272035"><ele>0.0</ele><time>2026-04-30T19:08:23.085Z</time></trkpt><trkpt lat="42.5854586" lon="5.7273096"><ele>0.0</ele><time>2026-04-30T19:08:24.085Z</time></trkpt><trkpt lat="42.5855163" lon="5.7275176"><ele>0.0</ele><time>2026-04-30T19:08:26.085Z</time></trkpt><trkpt lat="42.5855501" lon="5.7276287"><ele>0.0</ele><time>2026-04-30T19:08:27.086Z</time></trkpt><trkpt lat="42.5855849" lon="5.7277403"><ele>0.0</ele><time>2026-04-30T19:08:28.085Z</time></trkpt><trkpt lat="42.5856204" lon="5.7278445"><ele>0.0</ele><time>2026-04-30T19:08:29.086Z</time></trkpt><trkpt lat="42.5856583" lon="5.7279451"><ele>0.0</ele><time>2026-04-30T19:08:30.085Z</time></trkpt><trkpt lat="42.5856966" lon="5.728041"><ele>0.0</ele><time>2026-04-30T19:08:31.085Z</time></trkpt><trkpt lat="42.5857333" lon="5.7281427"><ele>0.0</ele><time>2026-04-30T19:08:32.085Z</time></trkpt><trkpt lat="42.5857605" lon="5.7282519"><ele>0.0</ele><time>2026-04-30T19:08:33.086Z</time></trkpt><trkpt lat="42.5857911" lon="5.7283554"><ele>0.0</ele><time>2026-04-30T19:08:34.086Z</time></trkpt><trkpt lat="42.5858213" lon="5.7284614"><ele>0.0</ele><time>2026-04-30T19:08:35.086Z</time></trkpt><trkpt lat="42.5858578" lon="5.7285739"><ele>0.0</ele><time>2026-04-30T19:08:36.085Z</time></trkpt><trkpt lat="42.5858923" lon="5.7286828"><ele>0.0</ele><time>2026-04-30T19:08:37.086Z</time></trkpt><trkpt lat="42.5859281" lon="5.728784"><ele>0.0</ele><time>2026-04-30T19:08:38.086Z</time></trkpt><trkpt lat="42.5859635" lon="5.7288894"><ele>0.0</ele><time>2026-04-30T19:08:39.085Z</time></trkpt><trkpt lat="42.5859971" lon="5.7289933"><ele>0.0</ele><time>2026-04-30T19:08:40.085Z</time></trkpt><trkpt lat="42.5860264" lon="5.7291024"><ele>0.0</ele><time>2026-04-30T19:08:41.085Z</time></trkpt><trkpt lat="42.5860577" lon="5.7292127"><ele>0.0</ele><time>2026-04-30T19:08:42.086Z</time></trkpt><trkpt lat="42.5860884" lon="5.7293236"><ele>0.0</ele><time>2026-04-30T19:08:43.085Z</time></trkpt><trkpt lat="42.5861228" lon="5.7294252"><ele>0.0</ele><time>2026-04-30T19:08:44.086Z</time></trkpt><trkpt lat="42.586155" lon="5.7295324"><ele>0.0</ele><time>2026-04-30T19:08:45.085Z</time></trkpt><trkpt lat="42.5861888" lon="5.7296378"><ele>0.0</ele><time>2026-04-30T19:08:46.085Z</time></trkpt><trkpt lat="42.5862474" lon="5.7298481"><ele>0.0</ele><time>2026-04-30T19:08:48.085Z</time></trkpt><trkpt lat="42.5862829" lon="5.7299443"><ele>0.0</ele><time>2026-04-30T19:08:49.085Z</time></trkpt><trkpt lat="42.5863194" lon="5.7300457"><ele>0.0</ele><time>2026-04-30T19:08:50.086Z</time></trkpt><trkpt lat="42.5863562" lon="5.7301565"><ele>0.0</ele><time>2026-04-30T19:08:51.086Z</time></trkpt><trkpt lat="42.586401" lon="5.7302585"><ele>0.0</ele><time>2026-04-30T19:08:52.085Z</time></trkpt><trkpt lat="42.5864365" lon="5.7303607"><ele>0.0</ele><time>2026-04-30T19:08:53.085Z</time></trkpt><trkpt lat="42.5864688" lon="5.7304668"><ele>0.0</ele><time>2026-04-30T19:08:54.085Z</time></trkpt><trkpt lat="42.586509" lon="5.7305703"><ele>0.0</ele><time>2026-04-30T19:08:55.085Z</time></trkpt><trkpt lat="42.5865611" lon="5.7306691"><ele>0.0</ele><time>2026-04-30T19:08:56.086Z</time></trkpt><trkpt lat="42.5866125" lon="5.7307677"><ele>0.0</ele><time>2026-04-30T19:08:57.085Z</time></trkpt><trkpt lat="42.5866474" lon="5.7308703"><ele>0.0</ele><time>2026-04-30T19:08:58.086Z</time></trkpt><trkpt lat="42.5866788" lon="5.7309707"><ele>0.0</ele><time>2026-04-30T19:08:59.085Z</time></trkpt><trkpt lat="42.5867062" lon="5.7310751"><ele>0.0</ele><time>2026-04-30T19:09:00.085Z</time></trkpt><trkpt lat="42.5867399" lon="5.7311801"><ele>0.0</ele><time>2026-04-30T19:09:01.085Z</time></trkpt><trkpt lat="42.5867737" lon="5.7312879"><ele>0.0</ele><time>2026-04-30T19:09:02.085Z</time></trkpt><trkpt lat="42.586807" lon="5.7313935"><ele>0.0</ele><time>2026-04-30T19:09:03.086Z</time></trkpt><trkpt lat="42.5868406" lon="5.7314939"><ele>0.0</ele><time>2026-04-30T19:09:04.085Z</time></trkpt><trkpt lat="42.5868692" lon="5.731598"><ele>0.0</ele><time>2026-04-30T19:09:05.085Z</time></trkpt><trkpt lat="42.586905" lon="5.731703"><ele>0.0</ele><time>2026-04-30T19:09:06.086Z</time></trkpt><trkpt lat="42.5869387" lon="5.7318097"><ele>0.0</ele><time>2026-04-30T19:09:07.086Z</time></trkpt><trkpt lat="42.5870098" lon="5.732028"><ele>0.0</ele><time>2026-04-30T19:09:09.085Z</time></trkpt><trkpt lat="42.5870656" lon="5.7321327"><ele>0.0</ele><time>2026-04-30T19:09:10.085Z</time></trkpt><trkpt lat="42.5871081" lon="5.7322348"><ele>0.0</ele><time>2026-04-30T19:09:11.085Z</time></trkpt><trkpt lat="42.5871569" lon="5.7323378"><ele>0.0</ele><time>2026-04-30T19:09:12.086Z</time></trkpt><trkpt lat="42.5872014" lon="5.7324398"><ele>0.0</ele><time>2026-04-30T19:09:13.086Z</time></trkpt><trkpt lat="42.5872346" lon="5.7325384"><ele>0.0</ele><time>2026-04-30T19:09:14.086Z</time></trkpt><trkpt lat="42.5872793" lon="5.7326312"><ele>0.0</ele><time>2026-04-30T19:09:15.086Z</time></trkpt><trkpt lat="42.5873213" lon="5.7327283"><ele>0.0</ele><time>2026-04-30T19:09:16.085Z</time></trkpt><trkpt lat="42.5873588" lon="5.7328324"><ele>0.0</ele><time>2026-04-30T19:09:17.085Z</time></trkpt><trkpt lat="42.5874199" lon="5.7330443"><ele>0.0</ele><time>2026-04-30T19:09:19.086Z</time></trkpt><trkpt lat="42.5874514" lon="5.7331477"><ele>0.0</ele><time>2026-04-30T19:09:20.086Z</time></trkpt><trkpt lat="42.5874861" lon="5.7332538"><ele>0.0</ele><time>2026-04-30T19:09:21.086Z</time></trkpt><trkpt lat="42.5875166" lon="5.7333602"><ele>0.0</ele><time>2026-04-30T19:09:22.085Z</time></trkpt><trkpt lat="42.5875461" lon="5.7334703"><ele>0.0</ele><time>2026-04-30T19:09:23.085Z</time></trkpt><trkpt lat="42.5875928" lon="5.7335793"><ele>0.0</ele><time>2026-04-30T19:09:24.085Z</time></trkpt><trkpt lat="42.5876435" lon="5.7336794"><ele>0.0</ele><time>2026-04-30T19:09:25.085Z</time></trkpt><trkpt lat="42.587688" lon="5.7337837"><ele>0.0</ele><time>2026-04-30T19:09:26.086Z</time></trkpt><trkpt lat="42.5877302" lon="5.7338945"><ele>0.0</ele><time>2026-04-30T19:09:27.085Z</time></trkpt><trkpt lat="42.5877704" lon="5.7340051"><ele>0.0</ele><time>2026-04-30T19:09:28.086Z</time></trkpt><trkpt lat="42.5878355" lon="5.7342171"><ele>0.0</ele><time>2026-04-30T19:09:30.086Z</time></trkpt><trkpt lat="42.5878612" lon="5.7343264"><ele>0.0</ele><time>2026-04-30T19:09:31.086Z</time></trkpt><trkpt lat="42.5878921" lon="5.7344347"><ele>0.0</ele><time>2026-04-30T19:09:32.085Z</time></trkpt><trkpt lat="42.5879249" lon="5.7345448"><ele>0.0</ele><time>2026-04-30T19:09:33.085Z</time></trkpt><trkpt lat="42.587956" lon="5.7346487"><ele>0.0</ele><time>2026-04-30T19:09:34.085Z</time></trkpt><trkpt lat="42.5879845" lon="5.7347531"><ele>0.0</ele><time>2026-04-30T19:09:35.085Z</time></trkpt><trkpt lat="42.5880153" lon="5.7348533"><ele>0.0</ele><time>2026-04-30T19:09:36.085Z</time></trkpt><trkpt lat="42.5880431" lon="5.734954"><ele>0.0</ele><time>2026-04-30T19:09:37.086Z</time></trkpt><trkpt lat="42.5880723" lon="5.7350568"><ele>0.0</ele><time>2026-04-30T19:09:38.085Z</time></trkpt><trkpt lat="42.5881052" lon="5.7351601"><ele>0.0</ele><time>2026-04-30T19:09:39.085Z</time></trkpt><trkpt lat="42.5881456" lon="5.7352636"><ele>0.0</ele><time>2026-04-30T19:09:40.085Z</time></trkpt><trkpt lat="42.5881846" lon="5.735371"><ele>0.0</ele><time>2026-04-30T19:09:41.085Z</time></trkpt><trkpt lat="42.5882188" lon="5.7354792"><ele>0.0</ele><time>2026-04-30T19:09:42.086Z</time></trkpt><trkpt lat="42.5882562" lon="5.7355877"><ele>0.0</ele><time>2026-04-30T19:09:43.086Z</time></trkpt><trkpt lat="42.5882932" lon="5.7356922"><ele>0.0</ele><time>2026-04-30T19:09:44.085Z</time></trkpt><trkpt lat="42.5883296" lon="5.7357978"><ele>0.0</ele><time>2026-04-30T19:09:45.085Z</time></trkpt><trkpt lat="42.588368" lon="5.735907"><ele>0.0</ele><time>2026-04-30T19:09:46.086Z</time></trkpt><trkpt lat="42.5884064" lon="5.7360128"><ele>0.0</ele><time>2026-04-30T19:09:47.085Z</time></trkpt><trkpt lat="42.5884449" lon="5.736114"><ele>0.0</ele><time>2026-04-30T19:09:48.086Z</time></trkpt><trkpt lat="42.5884827" lon="5.7362156"><ele>0.0</ele><time>2026-04-30T19:09:49.085Z</time></trkpt><trkpt lat="42.5885886" lon="5.7365296"><ele>0.0</ele><time>2026-04-30T19:09:52.085Z</time></trkpt><trkpt lat="42.5886249" lon="5.7366348"><ele>0.0</ele><time>2026-04-30T19:09:53.086Z</time></trkpt><trkpt lat="42.5886592" lon="5.7367416"><ele>0.0</ele><time>2026-04-30T19:09:54.086Z</time></trkpt><trkpt lat="42.5886877" lon="5.7368485"><ele>0.0</ele><time>2026-04-30T19:09:55.085Z</time></trkpt><trkpt lat="42.5887203" lon="5.7369548"><ele>0.0</ele><time>2026-04-30T19:09:56.085Z</time></trkpt><trkpt lat="42.5887552" lon="5.73706"><ele>0.0</ele><time>2026-04-30T19:09:57.086Z</time></trkpt><trkpt lat="42.58879" lon="5.7371666"><ele>0.0</ele><time>2026-04-30T19:09:58.085Z</time></trkpt><trkpt lat="42.5888225" lon="5.7372722"><ele>0.0</ele><time>2026-04-30T19:09:59.085Z</time></trkpt><trkpt lat="42.5888628" lon="5.7373753"><ele>0.0</ele><time>2026-04-30T19:10:00.086Z</time></trkpt><trkpt lat="42.5888977" lon="5.7374765"><ele>0.0</ele><time>2026-04-30T19:10:01.086Z</time></trkpt><trkpt lat="42.5889381" lon="5.737581"><ele>0.0</ele><time>2026-04-30T19:10:02.086Z</time></trkpt><trkpt lat="42.5889738" lon="5.7376861"><ele>0.0</ele><time>2026-04-30T19:10:03.086Z</time></trkpt><trkpt lat="42.5890044" lon="5.737794"><ele>0.0</ele><time>2026-04-30T19:10:04.085Z</time></trkpt><trkpt lat="42.5890386" lon="5.7378939"><ele>0.0</ele><time>2026-04-30T19:10:05.085Z</time></trkpt><trkpt lat="42.5890767" lon="5.7379965"><ele>0.0</ele><time>2026-04-30T19:10:06.085Z</time></trkpt><trkpt lat="42.5891096" lon="5.7381019"><ele>0.0</ele><time>2026-04-30T19:10:07.086Z</time></trkpt><trkpt lat="42.5891455" lon="5.7382064"><ele>0.0</ele><time>2026-04-30T19:10:08.085Z</time></trkpt><trkpt lat="42.5891833" lon="5.7383075"><ele>0.0</ele><time>2026-04-30T19:10:09.085Z</time></trkpt><trkpt lat="42.5892263" lon="5.7384159"><ele>0.0</ele><time>2026-04-30T19:10:10.085Z</time></trkpt><trkpt lat="42.5892665" lon="5.7385214"><ele>0.0</ele><time>2026-04-30T19:10:11.085Z</time></trkpt><trkpt lat="42.5893386" lon="5.7387341"><ele>0.0</ele><time>2026-04-30T19:10:13.086Z</time></trkpt><trkpt lat="42.5893753" lon="5.7388352"><ele>0.0</ele><time>2026-04-30T19:10:14.085Z</time></trkpt><trkpt lat="42.5894112" lon="5.7389332"><ele>0.0</ele><time>2026-04-30T19:10:15.085Z</time></trkpt><trkpt lat="42.5894487" lon="5.7390365"><ele>0.0</ele><time>2026-04-30T19:10:16.086Z</time></trkpt><trkpt lat="42.5894797" lon="5.7391442"><ele>0.0</ele><time>2026-04-30T19:10:17.086Z</time></trkpt><trkpt lat="42.5895171" lon="5.7392466"><ele>0.0</ele><time>2026-04-30T19:10:18.085Z</time></trkpt><trkpt lat="42.5895509" lon="5.7393556"><ele>0.0</ele><time>2026-04-30T19:10:19.085Z</time></trkpt><trkpt lat="42.5895896" lon="5.7394588"><ele>0.0</ele><time>2026-04-30T19:10:20.085Z</time></trkpt><trkpt lat="42.5896253" lon="5.7395634"><ele>0.0</ele><time>2026-04-30T19:10:21.085Z</time></trkpt><trkpt lat="42.589659" lon="5.739664"><ele>0.0</ele><time>2026-04-30T19:10:22.086Z</time></trkpt><trkpt lat="42.5896953" lon="5.7397679"><ele>0.0</ele><time>2026-04-30T19:10:23.085Z</time></trkpt><trkpt lat="42.5897234" lon="5.7398787"><ele>0.0</ele><time>2026-04-30T19:10:24.086Z</time></trkpt><trkpt lat="42.5897486" lon="5.7399904"><ele>0.0</ele><time>2026-04-30T19:10:25.086Z</time></trkpt><trkpt lat="42.5897775" lon="5.740101"><ele>0.0</ele><time>2026-04-30T19:10:26.085Z</time></trkpt><trkpt lat="42.5898033" lon="5.7402131"><ele>0.0</ele><time>2026-04-30T19:10:27.085Z</time></trkpt><trkpt lat="42.5898352" lon="5.7403204"><ele>0.0</ele><time>2026-04-30T19:10:28.086Z</time></trkpt><trkpt lat="42.5898639" lon="5.7404269"><ele>0.0</ele><time>2026-04-30T19:10:29.086Z</time></trkpt><trkpt lat="42.5898964" lon="5.7405307"><ele>0.0</ele><time>2026-04-30T19:10:30.086Z</time></trkpt><trkpt lat="42.5899301" lon="5.7406322"><ele>0.0</ele><time>2026-04-30T19:10:31.086Z</time></trkpt><trkpt lat="42.5899676" lon="5.7407309"><ele>0.0</ele><time>2026-04-30T19:10:32.085Z</time></trkpt><trkpt lat="42.590046" lon="5.7409279"><ele>0.0</ele><time>2026-04-30T19:10:34.085Z</time></trkpt><trkpt lat="42.5900819" lon="5.7410343"><ele>0.0</ele><time>2026-04-30T19:10:35.085Z</time></trkpt><trkpt lat="42.5901142" lon="5.7411418"><ele>0.0</ele><time>2026-04-30T19:10:36.086Z</time></trkpt><trkpt lat="42.59015" lon="5.741251"><ele>0.0</ele><time>2026-04-30T19:10:37.086Z</time></trkpt><trkpt lat="42.5901935" lon="5.7413527"><ele>0.0</ele><time>2026-04-30T19:10:38.085Z</time></trkpt><trkpt lat="42.5902288" lon="5.7414512"><ele>0.0</ele><time>2026-04-30T19:10:39.085Z</time></trkpt><trkpt lat="42.5902556" lon="5.7415548"><ele>0.0</ele><time>2026-04-30T19:10:40.085Z</time></trkpt><trkpt lat="42.5902862" lon="5.7416569"><ele>0.0</ele><time>2026-04-30T19:10:41.086Z</time></trkpt><trkpt lat="42.5903165" lon="5.7417643"><ele>0.0</ele><time>2026-04-30T19:10:42.085Z</time></trkpt><trkpt lat="42.5903477" lon="5.7418724"><ele>0.0</ele><time>2026-04-30T19:10:43.085Z</time></trkpt><trkpt lat="42.5903809" lon="5.7419755"><ele>0.0</ele><time>2026-04-30T19:10:44.086Z</time></trkpt><trkpt lat="42.5904184" lon="5.7420816"><ele>0.0</ele><time>2026-04-30T19:10:45.086Z</time></trkpt><trkpt lat="42.590464" lon="5.7421849"><ele>0.0</ele><time>2026-04-30T19:10:46.086Z</time></trkpt><trkpt lat="42.5905193" lon="5.7422854"><ele>0.0</ele><time>2026-04-30T19:10:47.085Z</time></trkpt><trkpt lat="42.5905583" lon="5.7423823"><ele>0.0</ele><time>2026-04-30T19:10:48.086Z</time></trkpt><trkpt lat="42.5905926" lon="5.7424805"><ele>0.0</ele><time>2026-04-30T19:10:49.086Z</time></trkpt><trkpt lat="42.5906274" lon="5.7425804"><ele>0.0</ele><time>2026-04-30T19:10:50.085Z</time></trkpt><trkpt lat="42.5906623" lon="5.7426775"><ele>0.0</ele><time>2026-04-30T19:10:51.085Z</time></trkpt><trkpt lat="42.590697" lon="5.7427811"><ele>0.0</ele><time>2026-04-30T19:10:52.085Z</time></trkpt><trkpt lat="42.5907309" lon="5.7428834"><ele>0.0</ele><time>2026-04-30T19:10:53.085Z</time></trkpt><trkpt lat="42.5908065" lon="5.7432098"><ele>0.0</ele><time>2026-04-30T19:10:56.086Z</time></trkpt><trkpt lat="42.590843" lon="5.7433122"><ele>0.0</ele><time>2026-04-30T19:10:57.085Z</time></trkpt><trkpt lat="42.5908848" lon="5.7434186"><ele>0.0</ele><time>2026-04-30T19:10:58.086Z</time></trkpt><trkpt lat="42.5909519" lon="5.743514"><ele>0.0</ele><time>2026-04-30T19:10:59.086Z</time></trkpt><trkpt lat="42.5909945" lon="5.7436216"><ele>0.0</ele><time>2026-04-30T19:11:00.086Z</time></trkpt><trkpt lat="42.5910323" lon="5.7437304"><ele>0.0</ele><time>2026-04-30T19:11:01.085Z</time></trkpt><trkpt lat="42.5910701" lon="5.7438367"><ele>0.0</ele><time>2026-04-30T19:11:02.086Z</time></trkpt><trkpt lat="42.5911041" lon="5.7439405"><ele>0.0</ele><time>2026-04-30T19:11:03.085Z</time></trkpt><trkpt lat="42.5911359" lon="5.7440433"><ele>0.0</ele><time>2026-04-30T19:11:04.086Z</time></trkpt><trkpt lat="42.5911694" lon="5.7441507"><ele>0.0</ele><time>2026-04-30T19:11:05.085Z</time></trkpt><trkpt lat="42.5912066" lon="5.7442593"><ele>0.0</ele><time>2026-04-30T19:11:06.085Z</time></trkpt><trkpt lat="42.5912452" lon="5.7443646"><ele>0.0</ele><time>2026-04-30T19:11:07.086Z</time></trkpt><trkpt lat="42.5912918" lon="5.7444696"><ele>0.0</ele><time>2026-04-30T19:11:08.085Z</time></trkpt><trkpt lat="42.5913357" lon="5.7445751"><ele>0.0</ele><time>2026-04-30T19:11:09.086Z</time></trkpt><trkpt lat="42.5913665" lon="5.7446727"><ele>0.0</ele><time>2026-04-30T19:11:10.085Z</time></trkpt><trkpt lat="42.5913966" lon="5.7447747"><ele>0.0</ele><time>2026-04-30T19:11:11.085Z</time></trkpt><trkpt lat="42.5914262" lon="5.7448758"><ele>0.0</ele><time>2026-04-30T19:11:12.086Z</time></trkpt><trkpt lat="42.5914673" lon="5.7449709"><ele>0.0</ele><time>2026-04-30T19:11:13.086Z</time></trkpt><trkpt lat="42.5915039" lon="5.7450747"><ele>0.0</ele><time>2026-04-30T19:11:14.086Z</time></trkpt><trkpt lat="42.5915405" lon="5.7451801"><ele>0.0</ele><time>2026-04-30T19:11:15.086Z</time></trkpt><trkpt lat="42.5916087" lon="5.7453857"><ele>0.0</ele><time>2026-04-30T19:11:17.085Z</time></trkpt><trkpt lat="42.5916453" lon="5.7454946"><ele>0.0</ele><time>2026-04-30T19:11:18.086Z</time></trkpt><trkpt lat="42.5916775" lon="5.7456017"><ele>0.0</ele><time>2026-04-30T19:11:19.085Z</time></trkpt><trkpt lat="42.5917075" lon="5.7457052"><ele>0.0</ele><time>2026-04-30T19:11:20.086Z</time></trkpt><trkpt lat="42.5917406" lon="5.7458103"><ele>0.0</ele><time>2026-04-30T19:11:21.085Z</time></trkpt><trkpt lat="42.5917755" lon="5.7459179"><ele>0.0</ele><time>2026-04-30T19:11:22.085Z</time></trkpt><trkpt lat="42.5918093" lon="5.7460246"><ele>0.0</ele><time>2026-04-30T19:11:23.085Z</time></trkpt><trkpt lat="42.5918425" lon="5.7461312"><ele>0.0</ele><time>2026-04-30T19:11:24.085Z</time></trkpt><trkpt lat="42.5918758" lon="5.7462317"><ele>0.0</ele><time>2026-04-30T19:11:25.086Z</time></trkpt><trkpt lat="42.591945" lon="5.7464402"><ele>0.0</ele><time>2026-04-30T19:11:27.086Z</time></trkpt><trkpt lat="42.5919789" lon="5.7465392"><ele>0.0</ele><time>2026-04-30T19:11:28.085Z</time></trkpt><trkpt lat="42.5920209" lon="5.7466362"><ele>0.0</ele><time>2026-04-30T19:11:29.085Z</time></trkpt><trkpt lat="42.5920555" lon="5.7467429"><ele>0.0</ele><time>2026-04-30T19:11:30.086Z</time></trkpt><trkpt lat="42.5920902" lon="5.7468454"><ele>0.0</ele><time>2026-04-30T19:11:31.086Z</time></trkpt><trkpt lat="42.592125" lon="5.7469524"><ele>0.0</ele><time>2026-04-30T19:11:32.086Z</time></trkpt><trkpt lat="42.5921556" lon="5.7470564"><ele>0.0</ele><time>2026-04-30T19:11:33.085Z</time></trkpt><trkpt lat="42.5921956" lon="5.7471551"><ele>0.0</ele><time>2026-04-30T19:11:34.085Z</time></trkpt><trkpt lat="42.5922305" lon="5.7472636"><ele>0.0</ele><time>2026-04-30T19:11:35.085Z</time></trkpt><trkpt lat="42.5922627" lon="5.7473725"><ele>0.0</ele><time>2026-04-30T19:11:36.085Z</time></trkpt><trkpt lat="42.5923336" lon="5.747587"><ele>0.0</ele><time>2026-04-30T19:11:38.085Z</time></trkpt><trkpt lat="42.5923676" lon="5.7476827"><ele>0.0</ele><time>2026-04-30T19:11:39.085Z</time></trkpt><trkpt lat="42.592405" lon="5.7477802"><ele>0.0</ele><time>2026-04-30T19:11:40.085Z</time></trkpt><trkpt lat="42.592438" lon="5.7478842"><ele>0.0</ele><time>2026-04-30T19:11:41.085Z</time></trkpt><trkpt lat="42.5924693" lon="5.7479826"><ele>0.0</ele><time>2026-04-30T19:11:42.085Z</time></trkpt><trkpt lat="42.592502" lon="5.7480839"><ele>0.0</ele><time>2026-04-30T19:11:43.086Z</time></trkpt><trkpt lat="42.592534" lon="5.7481868"><ele>0.0</ele><time>2026-04-30T19:11:44.085Z</time></trkpt><trkpt lat="42.5925675" lon="5.748287"><ele>0.0</ele><time>2026-04-30T19:11:45.086Z</time></trkpt><trkpt lat="42.5926024" lon="5.7483928"><ele>0.0</ele><time>2026-04-30T19:11:46.086Z</time></trkpt><trkpt lat="42.5926325" lon="5.7485038"><ele>0.0</ele><time>2026-04-30T19:11:47.085Z</time></trkpt><trkpt lat="42.5926653" lon="5.748614"><ele>0.0</ele><time>2026-04-30T19:11:48.085Z</time></trkpt><trkpt lat="42.5927003" lon="5.7487196"><ele>0.0</ele><time>2026-04-30T19:11:49.086Z</time></trkpt><trkpt lat="42.5927399" lon="5.7488305"><ele>0.0</ele><time>2026-04-30T19:11:50.085Z</time></trkpt><trkpt lat="42.592773" lon="5.7489419"><ele>0.0</ele><time>2026-04-30T19:11:51.086Z</time></trkpt><trkpt lat="42.5927987" lon="5.7490555"><ele>0.0</ele><time>2026-04-30T19:11:52.086Z</time></trkpt><trkpt lat="42.5928219" lon="5.7491631"><ele>0.0</ele><time>2026-04-30T19:11:53.086Z</time></trkpt><trkpt lat="42.592854" lon="5.7492655"><ele>0.0</ele><time>2026-04-30T19:11:54.086Z</time></trkpt><trkpt lat="42.5928871" lon="5.7493646"><ele>0.0</ele><time>2026-04-30T19:11:55.085Z</time></trkpt><trkpt lat="42.5929228" lon="5.7494651"><ele>0.0</ele><time>2026-04-30T19:11:56.085Z</time></trkpt><trkpt lat="42.592963" lon="5.7495678"><ele>0.0</ele><time>2026-04-30T19:11:57.086Z</time></trkpt><trkpt lat="42.5930698" lon="5.749878"><ele>0.0</ele><time>2026-04-30T19:12:00.085Z</time></trkpt><trkpt lat="42.5931093" lon="5.7499816"><ele>0.0</ele><time>2026-04-30T19:12:01.085Z</time></trkpt><trkpt lat="42.5931478" lon="5.7500847"><ele>0.0</ele><time>2026-04-30T19:12:02.085Z</time></trkpt><trkpt lat="42.5931887" lon="5.7501931"><ele>0.0</ele><time>2026-04-30T19:12:03.085Z</time></trkpt><trkpt lat="42.5932251" lon="5.7502968"><ele>0.0</ele><time>2026-04-30T19:12:04.085Z</time></trkpt><trkpt lat="42.593263" lon="5.7503988"><ele>0.0</ele><time>2026-04-30T19:12:05.085Z</time></trkpt><trkpt lat="42.5933014" lon="5.7505045"><ele>0.0</ele><time>2026-04-30T19:12:06.085Z</time></trkpt><trkpt lat="42.5933383" lon="5.7506111"><ele>0.0</ele><time>2026-04-30T19:12:07.085Z</time></trkpt><trkpt lat="42.5933806" lon="5.7507151"><ele>0.0</ele><time>2026-04-30T19:12:08.086Z</time></trkpt><trkpt lat="42.5934213" lon="5.7508111"><ele>0.0</ele><time>2026-04-30T19:12:09.086Z</time></trkpt><trkpt lat="42.5934556" lon="5.750918"><ele>0.0</ele><time>2026-04-30T19:12:10.085Z</time></trkpt><trkpt lat="42.5934875" lon="5.751031"><ele>0.0</ele><time>2026-04-30T19:12:11.086Z</time></trkpt><trkpt lat="42.5935247" lon="5.7511385"><ele>0.0</ele><time>2026-04-30T19:12:12.086Z</time></trkpt><trkpt lat="42.5935633" lon="5.751239"><ele>0.0</ele><time>2026-04-30T19:12:13.085Z</time></trkpt><trkpt lat="42.5936002" lon="5.7513444"><ele>0.0</ele><time>2026-04-30T19:12:14.085Z</time></trkpt><trkpt lat="42.5936369" lon="5.751452"><ele>0.0</ele><time>2026-04-30T19:12:15.086Z</time></trkpt><trkpt lat="42.5936708" lon="5.7515557"><ele>0.0</ele><time>2026-04-30T19:12:16.086Z</time></trkpt><trkpt lat="42.5937038" lon="5.7516592"><ele>0.0</ele><time>2026-04-30T19:12:17.085Z</time></trkpt><trkpt lat="42.5937312" lon="5.7517647"><ele>0.0</ele><time>2026-04-30T19:12:18.085Z</time></trkpt><trkpt lat="42.5937636" lon="5.7518614"><ele>0.0</ele><time>2026-04-30T19:12:19.086Z</time></trkpt><trkpt lat="42.5938208" lon="5.7520656"><ele>0.0</ele><time>2026-04-30T19:12:21.085Z</time></trkpt><trkpt lat="42.593851" lon="5.7521657"><ele>0.0</ele><time>2026-04-30T19:12:22.085Z</time></trkpt><trkpt lat="42.5938836" lon="5.7522793"><ele>0.0</ele><time>2026-04-30T19:12:23.085Z</time></trkpt><trkpt lat="42.5939196" lon="5.7523943"><ele>0.0</ele><time>2026-04-30T19:12:24.085Z</time></trkpt><trkpt lat="42.5939582" lon="5.7524995"><ele>0.0</ele><time>2026-04-30T19:12:25.086Z</time></trkpt><trkpt lat="42.5939923" lon="5.7526089"><ele>0.0</ele><time>2026-04-30T19:12:26.085Z</time></trkpt><trkpt lat="42.5940297" lon="5.7527174"><ele>0.0</ele><time>2026-04-30T19:12:27.085Z</time></trkpt><trkpt lat="42.5940657" lon="5.7528214"><ele>0.0</ele><time>2026-04-30T19:12:28.085Z</time></trkpt><trkpt lat="42.5941007" lon="5.7529249"><ele>0.0</ele><time>2026-04-30T19:12:29.084Z</time></trkpt><trkpt lat="42.5941339" lon="5.7530153"><ele>0.0</ele><time>2026-04-30T19:12:30.085Z</time></trkpt><trkpt lat="42.5941703" lon="5.7531111"><ele>0.0</ele><time>2026-04-30T19:12:31.084Z</time></trkpt><trkpt lat="42.5942068" lon="5.7532106"><ele>0.0</ele><time>2026-04-30T19:12:32.085Z</time></trkpt><trkpt lat="42.5942445" lon="5.7533104"><ele>0.0</ele><time>2026-04-30T19:12:33.085Z</time></trkpt><trkpt lat="42.5942796" lon="5.7534135"><ele>0.0</ele><time>2026-04-30T19:12:34.085Z</time></trkpt><trkpt lat="42.5943145" lon="5.7535174"><ele>0.0</ele><time>2026-04-30T19:12:35.084Z</time></trkpt><trkpt lat="42.5943466" lon="5.7536205"><ele>0.0</ele><time>2026-04-30T19:12:36.085Z</time></trkpt><trkpt lat="42.5943798" lon="5.7537264"><ele>0.0</ele><time>2026-04-30T19:12:37.085Z</time></trkpt><trkpt lat="42.5944175" lon="5.7538275"><ele>0.0</ele><time>2026-04-30T19:12:38.084Z</time></trkpt><trkpt lat="42.5944547" lon="5.7539274"><ele>0.0</ele><time>2026-04-30T19:12:39.085Z</time></trkpt><trkpt lat="42.5944902" lon="5.7540256"><ele>0.0</ele><time>2026-04-30T19:12:40.085Z</time></trkpt><trkpt lat="42.5945582" lon="5.754249"><ele>0.0</ele><time>2026-04-30T19:12:42.085Z</time></trkpt><trkpt lat="42.5945949" lon="5.7543506"><ele>0.0</ele><time>2026-04-30T19:12:43.085Z</time></trkpt><trkpt lat="42.5946276" lon="5.7544531"><ele>0.0</ele><time>2026-04-30T19:12:44.085Z</time></trkpt><trkpt lat="42.5946625" lon="5.7545591"><ele>0.0</ele><time>2026-04-30T19:12:45.084Z</time></trkpt><trkpt lat="42.5946975" lon="5.7546629"><ele>0.0</ele><time>2026-04-30T19:12:46.085Z</time></trkpt><trkpt lat="42.5947336" lon="5.7547658"><ele>0.0</ele><time>2026-04-30T19:12:47.085Z</time></trkpt><trkpt lat="42.5947727" lon="5.7548697"><ele>0.0</ele><time>2026-04-30T19:12:48.084Z</time></trkpt><trkpt lat="42.5948133" lon="5.7549715"><ele>0.0</ele><time>2026-04-30T19:12:49.085Z</time></trkpt><trkpt lat="42.5948531" lon="5.7550678"><ele>0.0</ele><time>2026-04-30T19:12:50.085Z</time></trkpt><trkpt lat="42.5949018" lon="5.7551617"><ele>0.0</ele><time>2026-04-30T19:12:51.084Z</time></trkpt><trkpt lat="42.5949428" lon="5.755268"><ele>0.0</ele><time>2026-04-30T19:12:52.084Z</time></trkpt><trkpt lat="42.5949792" lon="5.755379"><ele>0.0</ele><time>2026-04-30T19:12:53.085Z</time></trkpt><trkpt lat="42.5950182" lon="5.7554844"><ele>0.0</ele><time>2026-04-30T19:12:54.084Z</time></trkpt><trkpt lat="42.595051" lon="5.7555832"><ele>0.0</ele><time>2026-04-30T19:12:55.085Z</time></trkpt><trkpt lat="42.5951194" lon="5.7556761"><ele>0.0</ele><time>2026-04-30T19:12:56.084Z</time></trkpt><trkpt lat="42.5951696" lon="5.7557784"><ele>0.0</ele><time>2026-04-30T19:12:57.085Z</time></trkpt><trkpt lat="42.595201" lon="5.7558845"><ele>0.0</ele><time>2026-04-30T19:12:58.084Z</time></trkpt><trkpt lat="42.595244" lon="5.7559884"><ele>0.0</ele><time>2026-04-30T19:12:59.085Z</time></trkpt><trkpt lat="42.5952731" lon="5.7560978"><ele>0.0</ele><time>2026-04-30T19:13:00.084Z</time></trkpt><trkpt lat="42.5953131" lon="5.7562103"><ele>0.0</ele><time>2026-04-30T19:13:01.085Z</time></trkpt><trkpt lat="42.5953458" lon="5.7563132"><ele>0.0</ele><time>2026-04-30T19:13:02.084Z</time></trkpt><trkpt lat="42.5954078" lon="5.756519"><ele>0.0</ele><time>2026-04-30T19:13:04.084Z</time></trkpt><trkpt lat="42.5954364" lon="5.7566258"><ele>0.0</ele><time>2026-04-30T19:13:05.084Z</time></trkpt><trkpt lat="42.5954621" lon="5.7567414"><ele>0.0</ele><time>2026-04-30T19:13:06.085Z</time></trkpt><trkpt lat="42.5954966" lon="5.756847"><ele>0.0</ele><time>2026-04-30T19:13:07.085Z</time></trkpt><trkpt lat="42.59553" lon="5.7569578"><ele>0.0</ele><time>2026-04-30T19:13:08.084Z</time></trkpt><trkpt lat="42.5955578" lon="5.7570652"><ele>0.0</ele><time>2026-04-30T19:13:09.085Z</time></trkpt><trkpt lat="42.5955926" lon="5.7571705"><ele>0.0</ele><time>2026-04-30T19:13:10.084Z</time></trkpt><trkpt lat="42.5956247" lon="5.7572738"><ele>0.0</ele><time>2026-04-30T19:13:11.085Z</time></trkpt><trkpt lat="42.5956598" lon="5.7573797"><ele>0.0</ele><time>2026-04-30T19:13:12.085Z</time></trkpt><trkpt lat="42.5956965" lon="5.7574811"><ele>0.0</ele><time>2026-04-30T19:13:13.085Z</time></trkpt><trkpt lat="42.5957336" lon="5.7575821"><ele>0.0</ele><time>2026-04-30T19:13:14.085Z</time></trkpt><trkpt lat="42.5957747" lon="5.7576877"><ele>0.0</ele><time>2026-04-30T19:13:15.084Z</time></trkpt><trkpt lat="42.5958059" lon="5.7577875"><ele>0.0</ele><time>2026-04-30T19:13:16.084Z</time></trkpt><trkpt lat="42.5958385" lon="5.7578929"><ele>0.0</ele><time>2026-04-30T19:13:17.084Z</time></trkpt><trkpt lat="42.5958725" lon="5.7580002"><ele>0.0</ele><time>2026-04-30T19:13:18.085Z</time></trkpt><trkpt lat="42.5959108" lon="5.7581082"><ele>0.0</ele><time>2026-04-30T19:13:19.084Z</time></trkpt><trkpt lat="42.5959514" lon="5.7582047"><ele>0.0</ele><time>2026-04-30T19:13:20.084Z</time></trkpt><trkpt lat="42.5959929" lon="5.7583091"><ele>0.0</ele><time>2026-04-30T19:13:21.085Z</time></trkpt><trkpt lat="42.596035" lon="5.758414"><ele>0.0</ele><time>2026-04-30T19:13:22.085Z</time></trkpt><trkpt lat="42.5961235" lon="5.7586159"><ele>0.0</ele><time>2026-04-30T19:13:24.084Z</time></trkpt><trkpt lat="42.5961608" lon="5.7587165"><ele>0.0</ele><time>2026-04-30T19:13:25.084Z</time></trkpt><trkpt lat="42.5961944" lon="5.7588182"><ele>0.0</ele><time>2026-04-30T19:13:26.085Z</time></trkpt><trkpt lat="42.5962292" lon="5.7589215"><ele>0.0</ele><time>2026-04-30T19:13:27.085Z</time></trkpt><trkpt lat="42.5962681" lon="5.7590265"><ele>0.0</ele><time>2026-04-30T19:13:28.084Z</time></trkpt><trkpt lat="42.5963039" lon="5.7591301"><ele>0.0</ele><time>2026-04-30T19:13:29.084Z</time></trkpt><trkpt lat="42.5963389" lon="5.7592345"><ele>0.0</ele><time>2026-04-30T19:13:30.085Z</time></trkpt><trkpt lat="42.5963684" lon="5.7593379"><ele>0.0</ele><time>2026-04-30T19:13:31.084Z</time></trkpt><trkpt lat="42.5964023" lon="5.7594401"><ele>0.0</ele><time>2026-04-30T19:13:32.084Z</time></trkpt><trkpt lat="42.5964288" lon="5.7595532"><ele>0.0</ele><time>2026-04-30T19:13:33.085Z</time></trkpt><trkpt lat="42.5964891" lon="5.7597525"><ele>0.0</ele><time>2026-04-30T19:13:35.085Z</time></trkpt><trkpt lat="42.5965234" lon="5.759854"><ele>0.0</ele><time>2026-04-30T19:13:36.085Z</time></trkpt><trkpt lat="42.5965573" lon="5.7599556"><ele>0.0</ele><time>2026-04-30T19:13:37.084Z</time></trkpt><trkpt lat="42.5965922" lon="5.7600565"><ele>0.0</ele><time>2026-04-30T19:13:38.084Z</time></trkpt><trkpt lat="42.5966258" lon="5.7601624"><ele>0.0</ele><time>2026-04-30T19:13:39.084Z</time></trkpt><trkpt lat="42.5966576" lon="5.7602694"><ele>0.0</ele><time>2026-04-30T19:13:40.085Z</time></trkpt><trkpt lat="42.5966892" lon="5.7603779"><ele>0.0</ele><time>2026-04-30T19:13:41.085Z</time></trkpt><trkpt lat="42.5967204" lon="5.7604835"><ele>0.0</ele><time>2026-04-30T19:13:42.085Z</time></trkpt><trkpt lat="42.596752" lon="5.7605843"><ele>0.0</ele><time>2026-04-30T19:13:43.084Z</time></trkpt><trkpt lat="42.5968158" lon="5.7607869"><ele>0.0</ele><time>2026-04-30T19:13:45.084Z</time></trkpt><trkpt lat="42.5968383" lon="5.7608973"><ele>0.0</ele><time>2026-04-30T19:13:46.084Z</time></trkpt><trkpt lat="42.5968703" lon="5.7610101"><ele>0.0</ele><time>2026-04-30T19:13:47.085Z</time></trkpt><trkpt lat="42.5969065" lon="5.7611215"><ele>0.0</ele><time>2026-04-30T19:13:48.085Z</time></trkpt><trkpt lat="42.5969422" lon="5.7612321"><ele>0.0</ele><time>2026-04-30T19:13:49.085Z</time></trkpt><trkpt lat="42.5969883" lon="5.7613406"><ele>0.0</ele><time>2026-04-30T19:13:50.085Z</time></trkpt><trkpt lat="42.5970275" lon="5.7614424"><ele>0.0</ele><time>2026-04-30T19:13:51.085Z</time></trkpt><trkpt lat="42.5970676" lon="5.7615454"><ele>0.0</ele><time>2026-04-30T19:13:52.084Z</time></trkpt><trkpt lat="42.5971059" lon="5.7616482"><ele>0.0</ele><time>2026-04-30T19:13:53.084Z</time></trkpt><trkpt lat="42.5971504" lon="5.7617616"><ele>0.0</ele><time>2026-04-30T19:13:54.085Z</time></trkpt><trkpt lat="42.5971905" lon="5.7618662"><ele>0.0</ele><time>2026-04-30T19:13:55.084Z</time></trkpt><trkpt lat="42.5972301" lon="5.7619725"><ele>0.0</ele><time>2026-04-30T19:13:56.084Z</time></trkpt><trkpt lat="42.597267" lon="5.7620793"><ele>0.0</ele><time>2026-04-30T19:13:57.084Z</time></trkpt><trkpt lat="42.5973005" lon="5.7621806"><ele>0.0</ele><time>2026-04-30T19:13:58.084Z</time></trkpt><trkpt lat="42.5973392" lon="5.762285"><ele>0.0</ele><time>2026-04-30T19:13:59.084Z</time></trkpt><trkpt lat="42.5973766" lon="5.762389"><ele>0.0</ele><time>2026-04-30T19:14:00.084Z</time></trkpt><trkpt lat="42.5974133" lon="5.7624903"><ele>0.0</ele><time>2026-04-30T19:14:01.085Z</time></trkpt><trkpt lat="42.5974543" lon="5.7625896"><ele>0.0</ele><time>2026-04-30T19:14:02.084Z</time></trkpt><trkpt lat="42.5974864" lon="5.7626842"><ele>0.0</ele><time>2026-04-30T19:14:03.085Z</time></trkpt><trkpt lat="42.5975177" lon="5.7627836"><ele>0.0</ele><time>2026-04-30T19:14:04.084Z</time></trkpt><trkpt lat="42.5975522" lon="5.7628848"><ele>0.0</ele><time>2026-04-30T19:14:05.084Z</time></trkpt><trkpt lat="42.5976567" lon="5.7632148"><ele>0.0</ele><time>2026-04-30T19:14:08.084Z</time></trkpt><trkpt lat="42.5976965" lon="5.7633226"><ele>0.0</ele><time>2026-04-30T19:14:09.084Z</time></trkpt><trkpt lat="42.5977325" lon="5.7634315"><ele>0.0</ele><time>2026-04-30T19:14:10.084Z</time></trkpt><trkpt lat="42.5977633" lon="5.7635369"><ele>0.0</ele><time>2026-04-30T19:14:11.084Z</time></trkpt><trkpt lat="42.5978016" lon="5.7636387"><ele>0.0</ele><time>2026-04-30T19:14:12.085Z</time></trkpt><trkpt lat="42.5978374" lon="5.7637359"><ele>0.0</ele><time>2026-04-30T19:14:13.084Z</time></trkpt><trkpt lat="42.5978681" lon="5.7638419"><ele>0.0</ele><time>2026-04-30T19:14:14.084Z</time></trkpt><trkpt lat="42.5978993" lon="5.7639484"><ele>0.0</ele><time>2026-04-30T19:14:15.084Z</time></trkpt><trkpt lat="42.597931" lon="5.7640455"><ele>0.0</ele><time>2026-04-30T19:14:16.084Z</time></trkpt><trkpt lat="42.5979674" lon="5.7641422"><ele>0.0</ele><time>2026-04-30T19:14:17.084Z</time></trkpt><trkpt lat="42.5980012" lon="5.7642446"><ele>0.0</ele><time>2026-04-30T19:14:18.085Z</time></trkpt><trkpt lat="42.5980345" lon="5.7643467"><ele>0.0</ele><time>2026-04-30T19:14:19.084Z</time></trkpt><trkpt lat="42.5980606" lon="5.76445"><ele>0.0</ele><time>2026-04-30T19:14:20.085Z</time></trkpt><trkpt lat="42.5980906" lon="5.7645494"><ele>0.0</ele><time>2026-04-30T19:14:21.084Z</time></trkpt><trkpt lat="42.5981284" lon="5.764654"><ele>0.0</ele><time>2026-04-30T19:14:22.085Z</time></trkpt><trkpt lat="42.5981644" lon="5.7647625"><ele>0.0</ele><time>2026-04-30T19:14:23.084Z</time></trkpt><trkpt lat="42.5981976" lon="5.7648707"><ele>0.0</ele><time>2026-04-30T19:14:24.084Z</time></trkpt><trkpt lat="42.5982305" lon="5.7649735"><ele>0.0</ele><time>2026-04-30T19:14:25.084Z</time></trkpt><trkpt lat="42.5982607" lon="5.7650719"><ele>0.0</ele><time>2026-04-30T19:14:26.085Z</time></trkpt><trkpt lat="42.59832" lon="5.7652718"><ele>0.0</ele><time>2026-04-30T19:14:28.085Z</time></trkpt><trkpt lat="42.5983486" lon="5.7653746"><ele>0.0</ele><time>2026-04-30T19:14:29.085Z</time></trkpt><trkpt lat="42.5983793" lon="5.7654863"><ele>0.0</ele><time>2026-04-30T19:14:30.085Z</time></trkpt><trkpt lat="42.5984149" lon="5.7655981"><ele>0.0</ele><time>2026-04-30T19:14:31.084Z</time></trkpt><trkpt lat="42.5984489" lon="5.765706"><ele>0.0</ele><time>2026-04-30T19:14:32.084Z</time></trkpt><trkpt lat="42.5984892" lon="5.7658085"><ele>0.0</ele><time>2026-04-30T19:14:33.084Z</time></trkpt><trkpt lat="42.5985239" lon="5.7659101"><ele>0.0</ele><time>2026-04-30T19:14:34.084Z</time></trkpt><trkpt lat="42.5985573" lon="5.7660113"><ele>0.0</ele><time>2026-04-30T19:14:35.085Z</time></trkpt><trkpt lat="42.5985904" lon="5.7661177"><ele>0.0</ele><time>2026-04-30T19:14:36.084Z</time></trkpt><trkpt lat="42.5986336" lon="5.7662258"><ele>0.0</ele><time>2026-04-30T19:14:37.085Z</time></trkpt><trkpt lat="42.5987048" lon="5.7664425"><ele>0.0</ele><time>2026-04-30T19:14:39.084Z</time></trkpt><trkpt lat="42.5987421" lon="5.76655"><ele>0.0</ele><time>2026-04-30T19:14:40.084Z</time></trkpt><trkpt lat="42.5987833" lon="5.7666517"><ele>0.0</ele><time>2026-04-30T19:14:41.084Z</time></trkpt><trkpt lat="42.5988231" lon="5.7667592"><ele>0.0</ele><time>2026-04-30T19:14:42.084Z</time></trkpt><trkpt lat="42.5988727" lon="5.766856"><ele>0.0</ele><time>2026-04-30T19:14:43.085Z</time></trkpt><trkpt lat="42.5989087" lon="5.766962"><ele>0.0</ele><time>2026-04-30T19:14:44.085Z</time></trkpt><trkpt lat="42.5989477" lon="5.7670715"><ele>0.0</ele><time>2026-04-30T19:14:45.085Z</time></trkpt><trkpt lat="42.5989907" lon="5.7671801"><ele>0.0</ele><time>2026-04-30T19:14:46.085Z</time></trkpt><trkpt lat="42.5990292" lon="5.767287"><ele>0.0</ele><time>2026-04-30T19:14:47.084Z</time></trkpt><trkpt lat="42.59912" lon="5.7674935"><ele>0.0</ele><time>2026-04-30T19:14:49.085Z</time></trkpt><trkpt lat="42.5991524" lon="5.7676"><ele>0.0</ele><time>2026-04-30T19:14:50.084Z</time></trkpt><trkpt lat="42.5991838" lon="5.7677062"><ele>0.0</ele><time>2026-04-30T19:14:51.085Z</time></trkpt><trkpt lat="42.5992174" lon="5.7678038"><ele>0.0</ele><time>2026-04-30T19:14:52.085Z</time></trkpt><trkpt lat="42.5992548" lon="5.7678976"><ele>0.0</ele><time>2026-04-30T19:14:53.085Z</time></trkpt><trkpt lat="42.5992869" lon="5.7680045"><ele>0.0</ele><time>2026-04-30T19:14:54.084Z</time></trkpt><trkpt lat="42.5993386" lon="5.7680986"><ele>0.0</ele><time>2026-04-30T19:14:55.085Z</time></trkpt><trkpt lat="42.5993753" lon="5.768203"><ele>0.0</ele><time>2026-04-30T19:14:56.085Z</time></trkpt><trkpt lat="42.5994072" lon="5.7683096"><ele>0.0</ele><time>2026-04-30T19:14:57.084Z</time></trkpt><trkpt lat="42.5994377" lon="5.7684179"><ele>0.0</ele><time>2026-04-30T19:14:58.085Z</time></trkpt><trkpt lat="42.5994602" lon="5.7685214"><ele>0.0</ele><time>2026-04-30T19:14:59.085Z</time></trkpt><trkpt lat="42.59949" lon="5.768616"><ele>0.0</ele><time>2026-04-30T19:15:00.084Z</time></trkpt><trkpt lat="42.599523" lon="5.7687202"><ele>0.0</ele><time>2026-04-30T19:15:01.085Z</time></trkpt><trkpt lat="42.5995488" lon="5.7688269"><ele>0.0</ele><time>2026-04-30T19:15:02.084Z</time></trkpt><trkpt lat="42.5995712" lon="5.7689238"><ele>0.0</ele><time>2026-04-30T19:15:03.084Z</time></trkpt><trkpt lat="42.5995956" lon="5.7690277"><ele>0.0</ele><time>2026-04-30T19:15:04.085Z</time></trkpt><trkpt lat="42.5996175" lon="5.7691383"><ele>0.0</ele><time>2026-04-30T19:15:05.085Z</time></trkpt><trkpt lat="42.5996445" lon="5.769243"><ele>0.0</ele><time>2026-04-30T19:15:06.084Z</time></trkpt><trkpt lat="42.5996685" lon="5.7693521"><ele>0.0</ele><time>2026-04-30T19:15:07.085Z</time></trkpt><trkpt lat="42.599702" lon="5.7694559"><ele>0.0</ele><time>2026-04-30T19:15:08.084Z</time></trkpt><trkpt lat="42.5997425" lon="5.7695551"><ele>0.0</ele><time>2026-04-30T19:15:09.084Z</time></trkpt><trkpt lat="42.5998837" lon="5.7698444"><ele>0.0</ele><time>2026-04-30T19:15:12.085Z</time></trkpt><trkpt lat="42.5999256" lon="5.7699483"><ele>0.0</ele><time>2026-04-30T19:15:13.084Z</time></trkpt><trkpt lat="42.5999671" lon="5.770055"><ele>0.0</ele><time>2026-04-30T19:15:14.085Z</time></trkpt><trkpt lat="42.6000089" lon="5.7701577"><ele>0.0</ele><time>2026-04-30T19:15:15.084Z</time></trkpt><trkpt lat="42.6000486" lon="5.770258"><ele>0.0</ele><time>2026-04-30T19:15:16.084Z</time></trkpt><trkpt lat="42.6000841" lon="5.7703649"><ele>0.0</ele><time>2026-04-30T19:15:17.084Z</time></trkpt><trkpt lat="42.6001367" lon="5.7704664"><ele>0.0</ele><time>2026-04-30T19:15:18.084Z</time></trkpt><trkpt lat="42.6001719" lon="5.7705705"><ele>0.0</ele><time>2026-04-30T19:15:19.084Z</time></trkpt><trkpt lat="42.6002189" lon="5.7706692"><ele>0.0</ele><time>2026-04-30T19:15:20.084Z</time></trkpt><trkpt lat="42.6002503" lon="5.7707764"><ele>0.0</ele><time>2026-04-30T19:15:21.084Z</time></trkpt><trkpt lat="42.6002848" lon="5.7708832"><ele>0.0</ele><time>2026-04-30T19:15:22.084Z</time></trkpt><trkpt lat="42.6003225" lon="5.7709871"><ele>0.0</ele><time>2026-04-30T19:15:23.084Z</time></trkpt><trkpt lat="42.6003507" lon="5.7710979"><ele>0.0</ele><time>2026-04-30T19:15:24.085Z</time></trkpt><trkpt lat="42.6003829" lon="5.7712069"><ele>0.0</ele><time>2026-04-30T19:15:25.084Z</time></trkpt><trkpt lat="42.6004152" lon="5.771312"><ele>0.0</ele><time>2026-04-30T19:15:26.084Z</time></trkpt><trkpt lat="42.6004584" lon="5.7714181"><ele>0.0</ele><time>2026-04-30T19:15:27.085Z</time></trkpt><trkpt lat="42.6004898" lon="5.7715264"><ele>0.0</ele><time>2026-04-30T19:15:28.085Z</time></trkpt><trkpt lat="42.6005231" lon="5.7716348"><ele>0.0</ele><time>2026-04-30T19:15:29.085Z</time></trkpt><trkpt lat="42.6005539" lon="5.7717463"><ele>0.0</ele><time>2026-04-30T19:15:30.084Z</time></trkpt><trkpt lat="42.6005954" lon="5.771848"><ele>0.0</ele><time>2026-04-30T19:15:31.084Z</time></trkpt><trkpt lat="42.6006565" lon="5.7720554"><ele>0.0</ele><time>2026-04-30T19:15:33.085Z</time></trkpt><trkpt lat="42.6006894" lon="5.7721601"><ele>0.0</ele><time>2026-04-30T19:15:34.084Z</time></trkpt><trkpt lat="42.6007161" lon="5.7722679"><ele>0.0</ele><time>2026-04-30T19:15:35.084Z</time></trkpt><trkpt lat="42.6007495" lon="5.7723739"><ele>0.0</ele><time>2026-04-30T19:15:36.085Z</time></trkpt><trkpt lat="42.6007882" lon="5.7724822"><ele>0.0</ele><time>2026-04-30T19:15:37.084Z</time></trkpt><trkpt lat="42.6008255" lon="5.7725832"><ele>0.0</ele><time>2026-04-30T19:15:38.084Z</time></trkpt><trkpt lat="42.6008626" lon="5.7726828"><ele>0.0</ele><time>2026-04-30T19:15:39.085Z</time></trkpt><trkpt lat="42.6009097" lon="5.772784"><ele>0.0</ele><time>2026-04-30T19:15:40.085Z</time></trkpt><trkpt lat="42.6009393" lon="5.7728915"><ele>0.0</ele><time>2026-04-30T19:15:41.084Z</time></trkpt><trkpt lat="42.601009" lon="5.7731038"><ele>0.0</ele><time>2026-04-30T19:15:43.084Z</time></trkpt><trkpt lat="42.6010452" lon="5.7732055"><ele>0.0</ele><time>2026-04-30T19:15:44.084Z</time></trkpt><trkpt lat="42.6010785" lon="5.7733029"><ele>0.0</ele><time>2026-04-30T19:15:45.084Z</time></trkpt><trkpt lat="42.6011118" lon="5.7733981"><ele>0.0</ele><time>2026-04-30T19:15:46.084Z</time></trkpt><trkpt lat="42.6011406" lon="5.7734932"><ele>0.0</ele><time>2026-04-30T19:15:47.085Z</time></trkpt><trkpt lat="42.6011731" lon="5.7735941"><ele>0.0</ele><time>2026-04-30T19:15:48.085Z</time></trkpt><trkpt lat="42.6012092" lon="5.7736957"><ele>0.0</ele><time>2026-04-30T19:15:49.084Z</time></trkpt><trkpt lat="42.6012416" lon="5.7738006"><ele>0.0</ele><time>2026-04-30T19:15:50.084Z</time></trkpt><trkpt lat="42.6012771" lon="5.7739066"><ele>0.0</ele><time>2026-04-30T19:15:51.084Z</time></trkpt><trkpt lat="42.6013129" lon="5.7740072"><ele>0.0</ele><time>2026-04-30T19:15:52.085Z</time></trkpt><trkpt lat="42.601395" lon="5.7742141"><ele>0.0</ele><time>2026-04-30T19:15:54.084Z</time></trkpt><trkpt lat="42.6014392" lon="5.7743095"><ele>0.0</ele><time>2026-04-30T19:15:55.085Z</time></trkpt><trkpt lat="42.6014777" lon="5.7744117"><ele>0.0</ele><time>2026-04-30T19:15:56.085Z</time></trkpt><trkpt lat="42.601511" lon="5.7745165"><ele>0.0</ele><time>2026-04-30T19:15:57.085Z</time></trkpt><trkpt lat="42.6015466" lon="5.7746213"><ele>0.0</ele><time>2026-04-30T19:15:58.084Z</time></trkpt><trkpt lat="42.601585" lon="5.7747296"><ele>0.0</ele><time>2026-04-30T19:15:59.084Z</time></trkpt><trkpt lat="42.6016221" lon="5.7748365"><ele>0.0</ele><time>2026-04-30T19:16:00.085Z</time></trkpt><trkpt lat="42.6016545" lon="5.7749436"><ele>0.0</ele><time>2026-04-30T19:16:01.084Z</time></trkpt><trkpt lat="42.6016854" lon="5.7750478"><ele>0.0</ele><time>2026-04-30T19:16:02.084Z</time></trkpt><trkpt lat="42.6017169" lon="5.7751517"><ele>0.0</ele><time>2026-04-30T19:16:03.085Z</time></trkpt><trkpt lat="42.601753" lon="5.7752539"><ele>0.0</ele><time>2026-04-30T19:16:04.084Z</time></trkpt><trkpt lat="42.6017879" lon="5.7753586"><ele>0.0</ele><time>2026-04-30T19:16:05.085Z</time></trkpt><trkpt lat="42.6018205" lon="5.7754688"><ele>0.0</ele><time>2026-04-30T19:16:06.084Z</time></trkpt><trkpt lat="42.6018527" lon="5.7755719"><ele>0.0</ele><time>2026-04-30T19:16:07.085Z</time></trkpt><trkpt lat="42.6018795" lon="5.7756706"><ele>0.0</ele><time>2026-04-30T19:16:08.084Z</time></trkpt><trkpt lat="42.6019215" lon="5.7757713"><ele>0.0</ele><time>2026-04-30T19:16:09.084Z</time></trkpt><trkpt lat="42.6019563" lon="5.775875"><ele>0.0</ele><time>2026-04-30T19:16:10.084Z</time></trkpt><trkpt lat="42.6019882" lon="5.7759813"><ele>0.0</ele><time>2026-04-30T19:16:11.084Z</time></trkpt><trkpt lat="42.602016" lon="5.776092"><ele>0.0</ele><time>2026-04-30T19:16:12.085Z</time></trkpt><trkpt lat="42.6021315" lon="5.776399"><ele>0.0</ele><time>2026-04-30T19:16:15.084Z</time></trkpt><trkpt lat="42.6021635" lon="5.7765033"><ele>0.0</ele><time>2026-04-30T19:16:16.085Z</time></trkpt><trkpt lat="42.6022069" lon="5.776604"><ele>0.0</ele><time>2026-04-30T19:16:17.084Z</time></trkpt><trkpt lat="42.6022503" lon="5.7767098"><ele>0.0</ele><time>2026-04-30T19:16:18.084Z</time></trkpt><trkpt lat="42.6022903" lon="5.7768166"><ele>0.0</ele><time>2026-04-30T19:16:19.084Z</time></trkpt><trkpt lat="42.6023277" lon="5.7769202"><ele>0.0</ele><time>2026-04-30T19:16:20.084Z</time></trkpt><trkpt lat="42.6023677" lon="5.7770219"><ele>0.0</ele><time>2026-04-30T19:16:21.085Z</time></trkpt><trkpt lat="42.6024033" lon="5.7771266"><ele>0.0</ele><time>2026-04-30T19:16:22.085Z</time></trkpt><trkpt lat="42.6024386" lon="5.7772242"><ele>0.0</ele><time>2026-04-30T19:16:23.084Z</time></trkpt><trkpt lat="42.6024801" lon="5.7773234"><ele>0.0</ele><time>2026-04-30T19:16:24.085Z</time></trkpt><trkpt lat="42.6025131" lon="5.7774248"><ele>0.0</ele><time>2026-04-30T19:16:25.084Z</time></trkpt><trkpt lat="42.6025442" lon="5.7775292"><ele>0.0</ele><time>2026-04-30T19:16:26.084Z</time></trkpt><trkpt lat="42.6025832" lon="5.7776264"><ele>0.0</ele><time>2026-04-30T19:16:27.084Z</time></trkpt><trkpt lat="42.6026148" lon="5.7777263"><ele>0.0</ele><time>2026-04-30T19:16:28.084Z</time></trkpt><trkpt lat="42.6026488" lon="5.7778291"><ele>0.0</ele><time>2026-04-30T19:16:29.085Z</time></trkpt><trkpt lat="42.6026839" lon="5.7779296"><ele>0.0</ele><time>2026-04-30T19:16:30.085Z</time></trkpt><trkpt lat="42.6027177" lon="5.7780267"><ele>0.0</ele><time>2026-04-30T19:16:31.085Z</time></trkpt><trkpt lat="42.6027537" lon="5.7781307"><ele>0.0</ele><time>2026-04-30T19:16:32.085Z</time></trkpt><trkpt lat="42.6027855" lon="5.7782394"><ele>0.0</ele><time>2026-04-30T19:16:33.084Z</time></trkpt><trkpt lat="42.602823" lon="5.7783475"><ele>0.0</ele><time>2026-04-30T19:16:34.085Z</time></trkpt><trkpt lat="42.6028981" lon="5.7785658"><ele>0.0</ele><time>2026-04-30T19:16:36.084Z</time></trkpt><trkpt lat="42.6029305" lon="5.7786774"><ele>0.0</ele><time>2026-04-30T19:16:37.084Z</time></trkpt><trkpt lat="42.602968" lon="5.778786"><ele>0.0</ele><time>2026-04-30T19:16:38.084Z</time></trkpt><trkpt lat="42.6030023" lon="5.77889"><ele>0.0</ele><time>2026-04-30T19:16:39.085Z</time></trkpt><trkpt lat="42.6030404" lon="5.7789885"><ele>0.0</ele><time>2026-04-30T19:16:40.085Z</time></trkpt><trkpt lat="42.6030739" lon="5.7790881"><ele>0.0</ele><time>2026-04-30T19:16:41.084Z</time></trkpt><trkpt lat="42.6031101" lon="5.779185"><ele>0.0</ele><time>2026-04-30T19:16:42.084Z</time></trkpt><trkpt lat="42.6031517" lon="5.779289"><ele>0.0</ele><time>2026-04-30T19:16:43.085Z</time></trkpt><trkpt lat="42.6031864" lon="5.7793946"><ele>0.0</ele><time>2026-04-30T19:16:44.084Z</time></trkpt><trkpt lat="42.6032283" lon="5.7794975"><ele>0.0</ele><time>2026-04-30T19:16:45.084Z</time></trkpt><trkpt lat="42.6033017" lon="5.7796987"><ele>0.0</ele><time>2026-04-30T19:16:47.084Z</time></trkpt><trkpt lat="42.6033374" lon="5.7798027"><ele>0.0</ele><time>2026-04-30T19:16:48.084Z</time></trkpt><trkpt lat="42.6033782" lon="5.7799087"><ele>0.0</ele><time>2026-04-30T19:16:49.084Z</time></trkpt><trkpt lat="42.6034125" lon="5.7800089"><ele>0.0</ele><time>2026-04-30T19:16:50.084Z</time></trkpt><trkpt lat="42.6034454" lon="5.7801142"><ele>0.0</ele><time>2026-04-30T19:16:51.084Z</time></trkpt><trkpt lat="42.6034831" lon="5.7802168"><ele>0.0</ele><time>2026-04-30T19:16:52.084Z</time></trkpt><trkpt lat="42.6035154" lon="5.780318"><ele>0.0</ele><time>2026-04-30T19:16:53.085Z</time></trkpt><trkpt lat="42.6035549" lon="5.7804206"><ele>0.0</ele><time>2026-04-30T19:16:54.085Z</time></trkpt><trkpt lat="42.6035951" lon="5.7805263"><ele>0.0</ele><time>2026-04-30T19:16:55.085Z</time></trkpt><trkpt lat="42.6036761" lon="5.7807435"><ele>0.0</ele><time>2026-04-30T19:16:57.084Z</time></trkpt><trkpt lat="42.6037189" lon="5.7808491"><ele>0.0</ele><time>2026-04-30T19:16:58.084Z</time></trkpt><trkpt lat="42.6037573" lon="5.7809546"><ele>0.0</ele><time>2026-04-30T19:16:59.085Z</time></trkpt><trkpt lat="42.6037859" lon="5.7810609"><ele>0.0</ele><time>2026-04-30T19:17:00.084Z</time></trkpt><trkpt lat="42.6038116" lon="5.7811801"><ele>0.0</ele><time>2026-04-30T19:17:01.084Z</time></trkpt><trkpt lat="42.6038364" lon="5.7812932"><ele>0.0</ele><time>2026-04-30T19:17:02.085Z</time></trkpt><trkpt lat="42.6038632" lon="5.781395"><ele>0.0</ele><time>2026-04-30T19:17:03.084Z</time></trkpt><trkpt lat="42.6038955" lon="5.7814951"><ele>0.0</ele><time>2026-04-30T19:17:04.085Z</time></trkpt><trkpt lat="42.6039168" lon="5.7816009"><ele>0.0</ele><time>2026-04-30T19:17:05.084Z</time></trkpt><trkpt lat="42.6039387" lon="5.7816986"><ele>0.0</ele><time>2026-04-30T19:17:06.084Z</time></trkpt><trkpt lat="42.6039619" lon="5.7818015"><ele>0.0</ele><time>2026-04-30T19:17:07.085Z</time></trkpt><trkpt lat="42.6039882" lon="5.7819018"><ele>0.0</ele><time>2026-04-30T19:17:08.084Z</time></trkpt><trkpt lat="42.6040133" lon="5.782003"><ele>0.0</ele><time>2026-04-30T19:17:09.084Z</time></trkpt><trkpt lat="42.6040438" lon="5.7821105"><ele>0.0</ele><time>2026-04-30T19:17:10.084Z</time></trkpt><trkpt lat="42.6040768" lon="5.7822181"><ele>0.0</ele><time>2026-04-30T19:17:11.084Z</time></trkpt><trkpt lat="42.6041058" lon="5.7823174"><ele>0.0</ele><time>2026-04-30T19:17:12.085Z</time></trkpt><trkpt lat="42.6041353" lon="5.7824245"><ele>0.0</ele><time>2026-04-30T19:17:13.084Z</time></trkpt><trkpt lat="42.6041685" lon="5.7825315"><ele>0.0</ele><time>2026-04-30T19:17:14.085Z</time></trkpt><trkpt lat="42.604192" lon="5.7826367"><ele>0.0</ele><time>2026-04-30T19:17:15.084Z</time></trkpt><trkpt lat="42.6042154" lon="5.7827371"><ele>0.0</ele><time>2026-04-30T19:17:16.084Z</time></trkpt><trkpt lat="42.6042402" lon="5.7828409"><ele>0.0</ele><time>2026-04-30T19:17:17.084Z</time></trkpt><trkpt lat="42.6043018" lon="5.7830572"><ele>0.0</ele><time>2026-04-30T19:17:19.084Z</time></trkpt><trkpt lat="42.6043431" lon="5.7831687"><ele>0.0</ele><time>2026-04-30T19:17:20.084Z</time></trkpt><trkpt lat="42.6043875" lon="5.7832785"><ele>0.0</ele><time>2026-04-30T19:17:21.085Z</time></trkpt><trkpt lat="42.6044298" lon="5.7833859"><ele>0.0</ele><time>2026-04-30T19:17:22.084Z</time></trkpt><trkpt lat="42.6044654" lon="5.7834922"><ele>0.0</ele><time>2026-04-30T19:17:23.084Z</time></trkpt><trkpt lat="42.6045068" lon="5.7835942"><ele>0.0</ele><time>2026-04-30T19:17:24.085Z</time></trkpt><trkpt lat="42.6045566" lon="5.7836918"><ele>0.0</ele><time>2026-04-30T19:17:25.085Z</time></trkpt><trkpt lat="42.6046089" lon="5.7837928"><ele>0.0</ele><time>2026-04-30T19:17:26.085Z</time></trkpt><trkpt lat="42.6046446" lon="5.7839028"><ele>0.0</ele><time>2026-04-30T19:17:27.085Z</time></trkpt><trkpt lat="42.6046879" lon="5.7840099"><ele>0.0</ele><time>2026-04-30T19:17:28.084Z</time></trkpt><trkpt lat="42.60472" lon="5.7841154"><ele>0.0</ele><time>2026-04-30T19:17:29.084Z</time></trkpt><trkpt lat="42.6047527" lon="5.7842305"><ele>0.0</ele><time>2026-04-30T19:17:30.084Z</time></trkpt><trkpt lat="42.6047902" lon="5.7843325"><ele>0.0</ele><time>2026-04-30T19:17:31.085Z</time></trkpt><trkpt lat="42.6048259" lon="5.784432"><ele>0.0</ele><time>2026-04-30T19:17:32.085Z</time></trkpt><trkpt lat="42.6048599" lon="5.7845375"><ele>0.0</ele><time>2026-04-30T19:17:33.085Z</time></trkpt><trkpt lat="42.6049016" lon="5.7846392"><ele>0.0</ele><time>2026-04-30T19:17:34.085Z</time></trkpt><trkpt lat="42.6049422" lon="5.7847379"><ele>0.0</ele><time>2026-04-30T19:17:35.085Z</time></trkpt><trkpt lat="42.6049779" lon="5.784845"><ele>0.0</ele><time>2026-04-30T19:17:36.084Z</time></trkpt><trkpt lat="42.6050173" lon="5.7849546"><ele>0.0</ele><time>2026-04-30T19:17:37.085Z</time></trkpt><trkpt lat="42.6050576" lon="5.7850587"><ele>0.0</ele><time>2026-04-30T19:17:38.085Z</time></trkpt><trkpt lat="42.6050953" lon="5.7851579"><ele>0.0</ele><time>2026-04-30T19:17:39.084Z</time></trkpt><trkpt lat="42.6051665" lon="5.7853647"><ele>0.0</ele><time>2026-04-30T19:17:41.084Z</time></trkpt><trkpt lat="42.6052061" lon="5.7854759"><ele>0.0</ele><time>2026-04-30T19:17:42.085Z</time></trkpt><trkpt lat="42.6052397" lon="5.7855831"><ele>0.0</ele><time>2026-04-30T19:17:43.085Z</time></trkpt><trkpt lat="42.6052809" lon="5.7856838"><ele>0.0</ele><time>2026-04-30T19:17:44.084Z</time></trkpt><trkpt lat="42.6053168" lon="5.7857871"><ele>0.0</ele><time>2026-04-30T19:17:45.084Z</time></trkpt><trkpt lat="42.6053517" lon="5.7858905"><ele>0.0</ele><time>2026-04-30T19:17:46.084Z</time></trkpt><trkpt lat="42.6053899" lon="5.7859936"><ele>0.0</ele><time>2026-04-30T19:17:47.084Z</time></trkpt><trkpt lat="42.6054191" lon="5.786083"><ele>0.0</ele><time>2026-04-30T19:17:48.085Z</time></trkpt><trkpt lat="42.6054503" lon="5.7861856"><ele>0.0</ele><time>2026-04-30T19:17:49.085Z</time></trkpt><trkpt lat="42.6055085" lon="5.786391"><ele>0.0</ele><time>2026-04-30T19:17:51.085Z</time></trkpt><trkpt lat="42.6055562" lon="5.7864861"><ele>0.0</ele><time>2026-04-30T19:17:52.085Z</time></trkpt><trkpt lat="42.6055951" lon="5.7865898"><ele>0.0</ele><time>2026-04-30T19:17:53.085Z</time></trkpt><trkpt lat="42.6056352" lon="5.7866978"><ele>0.0</ele><time>2026-04-30T19:17:54.084Z</time></trkpt><trkpt lat="42.605675" lon="5.7868024"><ele>0.0</ele><time>2026-04-30T19:17:55.084Z</time></trkpt><trkpt lat="42.6057137" lon="5.7869062"><ele>0.0</ele><time>2026-04-30T19:17:56.085Z</time></trkpt><trkpt lat="42.6057424" lon="5.7870137"><ele>0.0</ele><time>2026-04-30T19:17:57.084Z</time></trkpt><trkpt lat="42.6057718" lon="5.7871235"><ele>0.0</ele><time>2026-04-30T19:17:58.084Z</time></trkpt><trkpt lat="42.6058061" lon="5.7872376"><ele>0.0</ele><time>2026-04-30T19:17:59.085Z</time></trkpt><trkpt lat="42.6058402" lon="5.7873386"><ele>0.0</ele><time>2026-04-30T19:18:00.085Z</time></trkpt><trkpt lat="42.605915" lon="5.7875434"><ele>0.0</ele><time>2026-04-30T19:18:02.084Z</time></trkpt><trkpt lat="42.6059508" lon="5.7876438"><ele>0.0</ele><time>2026-04-30T19:18:03.084Z</time></trkpt><trkpt lat="42.6059927" lon="5.7877452"><ele>0.0</ele><time>2026-04-30T19:18:04.085Z</time></trkpt><trkpt lat="42.6060301" lon="5.7878437"><ele>0.0</ele><time>2026-04-30T19:18:05.085Z</time></trkpt><trkpt lat="42.6060703" lon="5.7879452"><ele>0.0</ele><time>2026-04-30T19:18:06.085Z</time></trkpt><trkpt lat="42.6061087" lon="5.7880513"><ele>0.0</ele><time>2026-04-30T19:18:07.084Z</time></trkpt><trkpt lat="42.6061466" lon="5.7881548"><ele>0.0</ele><time>2026-04-30T19:18:08.084Z</time></trkpt><trkpt lat="42.6061823" lon="5.7882594"><ele>0.0</ele><time>2026-04-30T19:18:09.084Z</time></trkpt><trkpt lat="42.6062156" lon="5.7883651"><ele>0.0</ele><time>2026-04-30T19:18:10.084Z</time></trkpt><trkpt lat="42.6062455" lon="5.7884687"><ele>0.0</ele><time>2026-04-30T19:18:11.085Z</time></trkpt><trkpt lat="42.6062836" lon="5.788572"><ele>0.0</ele><time>2026-04-30T19:18:12.085Z</time></trkpt><trkpt lat="42.6063243" lon="5.7886652"><ele>0.0</ele><time>2026-04-30T19:18:13.084Z</time></trkpt><trkpt lat="42.606361" lon="5.7887612"><ele>0.0</ele><time>2026-04-30T19:18:14.084Z</time></trkpt><trkpt lat="42.6063952" lon="5.7888607"><ele>0.0</ele><time>2026-04-30T19:18:15.085Z</time></trkpt><trkpt lat="42.6064258" lon="5.7889647"><ele>0.0</ele><time>2026-04-30T19:18:16.084Z</time></trkpt><trkpt lat="42.6064587" lon="5.7890668"><ele>0.0</ele><time>2026-04-30T19:18:17.084Z</time></trkpt><trkpt lat="42.6064843" lon="5.7891717"><ele>0.0</ele><time>2026-04-30T19:18:18.084Z</time></trkpt><trkpt lat="42.6065133" lon="5.7892819"><ele>0.0</ele><time>2026-04-30T19:18:19.084Z</time></trkpt><trkpt lat="42.6065465" lon="5.7893933"><ele>0.0</ele><time>2026-04-30T19:18:20.085Z</time></trkpt><trkpt lat="42.6065818" lon="5.7894996"><ele>0.0</ele><time>2026-04-30T19:18:21.084Z</time></trkpt><trkpt lat="42.6066885" lon="5.7897995"><ele>0.0</ele><time>2026-04-30T19:18:24.084Z</time></trkpt><trkpt lat="42.6067214" lon="5.7899013"><ele>0.0</ele><time>2026-04-30T19:18:25.085Z</time></trkpt><trkpt lat="42.6067554" lon="5.7900031"><ele>0.0</ele><time>2026-04-30T19:18:26.084Z</time></trkpt><trkpt lat="42.6067932" lon="5.7901037"><ele>0.0</ele><time>2026-04-30T19:18:27.084Z</time></trkpt><trkpt lat="42.6068232" lon="5.7902052"><ele>0.0</ele><time>2026-04-30T19:18:28.085Z</time></trkpt><trkpt lat="42.6068526" lon="5.79031"><ele>0.0</ele><time>2026-04-30T19:18:29.084Z</time></trkpt><trkpt lat="42.6068822" lon="5.7904147"><ele>0.0</ele><time>2026-04-30T19:18:30.084Z</time></trkpt><trkpt lat="42.6069145" lon="5.790522"><ele>0.0</ele><time>2026-04-30T19:18:31.084Z</time></trkpt><trkpt lat="42.6069539" lon="5.7906284"><ele>0.0</ele><time>2026-04-30T19:18:32.085Z</time></trkpt><trkpt lat="42.60699" lon="5.7907348"><ele>0.0</ele><time>2026-04-30T19:18:33.084Z</time></trkpt><trkpt lat="42.6070273" lon="5.7908416"><ele>0.0</ele><time>2026-04-30T19:18:34.084Z</time></trkpt><trkpt lat="42.6070702" lon="5.7909523"><ele>0.0</ele><time>2026-04-30T19:18:35.085Z</time></trkpt><trkpt lat="42.6071113" lon="5.7910611"><ele>0.0</ele><time>2026-04-30T19:18:36.085Z</time></trkpt><trkpt lat="42.607147" lon="5.7911721"><ele>0.0</ele><time>2026-04-30T19:18:37.085Z</time></trkpt><trkpt lat="42.6071889" lon="5.791276"><ele>0.0</ele><time>2026-04-30T19:18:38.085Z</time></trkpt><trkpt lat="42.6072293" lon="5.7913812"><ele>0.0</ele><time>2026-04-30T19:18:39.084Z</time></trkpt><trkpt lat="42.6072677" lon="5.7914861"><ele>0.0</ele><time>2026-04-30T19:18:40.085Z</time></trkpt><trkpt lat="42.6073074" lon="5.7915896"><ele>0.0</ele><time>2026-04-30T19:18:41.084Z</time></trkpt><trkpt lat="42.6073449" lon="5.7916945"><ele>0.0</ele><time>2026-04-30T19:18:42.084Z</time></trkpt><trkpt lat="42.6073839" lon="5.7917934"><ele>0.0</ele><time>2026-04-30T19:18:43.085Z</time></trkpt><trkpt lat="42.6074631" lon="5.7919944"><ele>0.0</ele><time>2026-04-30T19:18:45.085Z</time></trkpt><trkpt lat="42.6074975" lon="5.7920969"><ele>0.0</ele><time>2026-04-30T19:18:46.084Z</time></trkpt><trkpt lat="42.6075311" lon="5.7922012"><ele>0.0</ele><time>2026-04-30T19:18:47.084Z</time></trkpt><trkpt lat="42.6075686" lon="5.7923036"><ele>0.0</ele><time>2026-04-30T19:18:48.083Z</time></trkpt><trkpt lat="42.6076078" lon="5.7924126"><ele>0.0</ele><time>2026-04-30T19:18:49.083Z</time></trkpt><trkpt lat="42.6076451" lon="5.792517"><ele>0.0</ele><time>2026-04-30T19:18:50.083Z</time></trkpt><trkpt lat="42.6076874" lon="5.7926139"><ele>0.0</ele><time>2026-04-30T19:18:51.083Z</time></trkpt><trkpt lat="42.6077238" lon="5.7927219"><ele>0.0</ele><time>2026-04-30T19:18:52.084Z</time></trkpt><trkpt lat="42.6077534" lon="5.7928364"><ele>0.0</ele><time>2026-04-30T19:18:53.083Z</time></trkpt><trkpt lat="42.6078282" lon="5.7930402"><ele>0.0</ele><time>2026-04-30T19:18:55.084Z</time></trkpt><trkpt lat="42.6078633" lon="5.7931376"><ele>0.0</ele><time>2026-04-30T19:18:56.084Z</time></trkpt><trkpt lat="42.6079002" lon="5.7932384"><ele>0.0</ele><time>2026-04-30T19:18:57.084Z</time></trkpt><trkpt lat="42.6079512" lon="5.7933434"><ele>0.0</ele><time>2026-04-30T19:18:58.084Z</time></trkpt><trkpt lat="42.6079879" lon="5.7934485"><ele>0.0</ele><time>2026-04-30T19:18:59.083Z</time></trkpt><trkpt lat="42.6080236" lon="5.7935554"><ele>0.0</ele><time>2026-04-30T19:19:00.084Z</time></trkpt><trkpt lat="42.6080576" lon="5.7936648"><ele>0.0</ele><time>2026-04-30T19:19:01.083Z</time></trkpt><trkpt lat="42.6080895" lon="5.7937648"><ele>0.0</ele><time>2026-04-30T19:19:02.083Z</time></trkpt><trkpt lat="42.6081231" lon="5.7938679"><ele>0.0</ele><time>2026-04-30T19:19:03.083Z</time></trkpt><trkpt lat="42.6081562" lon="5.79397"><ele>0.0</ele><time>2026-04-30T19:19:04.083Z</time></trkpt><trkpt lat="42.6082055" lon="5.7941721"><ele>0.0</ele><time>2026-04-30T19:19:06.083Z</time></trkpt><trkpt lat="42.608231" lon="5.7942766"><ele>0.0</ele><time>2026-04-30T19:19:07.084Z</time></trkpt><trkpt lat="42.6082565" lon="5.794378"><ele>0.0</ele><time>2026-04-30T19:19:08.083Z</time></trkpt><trkpt lat="42.6082902" lon="5.7944771"><ele>0.0</ele><time>2026-04-30T19:19:09.083Z</time></trkpt><trkpt lat="42.6083227" lon="5.7945797"><ele>0.0</ele><time>2026-04-30T19:19:10.083Z</time></trkpt><trkpt lat="42.60835" lon="5.7946796"><ele>0.0</ele><time>2026-04-30T19:19:11.084Z</time></trkpt><trkpt lat="42.6083805" lon="5.7947774"><ele>0.0</ele><time>2026-04-30T19:19:12.083Z</time></trkpt><trkpt lat="42.608415" lon="5.794881"><ele>0.0</ele><time>2026-04-30T19:19:13.084Z</time></trkpt><trkpt lat="42.6084541" lon="5.7949877"><ele>0.0</ele><time>2026-04-30T19:19:14.084Z</time></trkpt><trkpt lat="42.6084869" lon="5.7950902"><ele>0.0</ele><time>2026-04-30T19:19:15.083Z</time></trkpt><trkpt lat="42.6085201" lon="5.7951889"><ele>0.0</ele><time>2026-04-30T19:19:16.084Z</time></trkpt><trkpt lat="42.6085519" lon="5.7952899"><ele>0.0</ele><time>2026-04-30T19:19:17.083Z</time></trkpt><trkpt lat="42.6085825" lon="5.7953973"><ele>0.0</ele><time>2026-04-30T19:19:18.084Z</time></trkpt><trkpt lat="42.6086189" lon="5.7954977"><ele>0.0</ele><time>2026-04-30T19:19:19.083Z</time></trkpt><trkpt lat="42.6086563" lon="5.7956029"><ele>0.0</ele><time>2026-04-30T19:19:20.083Z</time></trkpt><trkpt lat="42.6086962" lon="5.7957202"><ele>0.0</ele><time>2026-04-30T19:19:21.084Z</time></trkpt><trkpt lat="42.6087305" lon="5.7958275"><ele>0.0</ele><time>2026-04-30T19:19:22.083Z</time></trkpt><trkpt lat="42.6087692" lon="5.7959304"><ele>0.0</ele><time>2026-04-30T19:19:23.084Z</time></trkpt><trkpt lat="42.6088135" lon="5.7960364"><ele>0.0</ele><time>2026-04-30T19:19:24.083Z</time></trkpt><trkpt lat="42.6088556" lon="5.7961375"><ele>0.0</ele><time>2026-04-30T19:19:25.083Z</time></trkpt><trkpt lat="42.6089598" lon="5.7964398"><ele>0.0</ele><time>2026-04-30T19:19:28.084Z</time></trkpt><trkpt lat="42.6089993" lon="5.7965474"><ele>0.0</ele><time>2026-04-30T19:19:29.084Z</time></trkpt><trkpt lat="42.6090397" lon="5.7966488"><ele>0.0</ele><time>2026-04-30T19:19:30.084Z</time></trkpt><trkpt lat="42.6090766" lon="5.7967562"><ele>0.0</ele><time>2026-04-30T19:19:31.084Z</time></trkpt><trkpt lat="42.6091137" lon="5.7968588"><ele>0.0</ele><time>2026-04-30T19:19:32.083Z</time></trkpt><trkpt lat="42.6091448" lon="5.79696"><ele>0.0</ele><time>2026-04-30T19:19:33.083Z</time></trkpt><trkpt lat="42.6091783" lon="5.797066"><ele>0.0</ele><time>2026-04-30T19:19:34.083Z</time></trkpt><trkpt lat="42.609212" lon="5.7971756"><ele>0.0</ele><time>2026-04-30T19:19:35.083Z</time></trkpt><trkpt lat="42.6092581" lon="5.797277"><ele>0.0</ele><time>2026-04-30T19:19:36.083Z</time></trkpt><trkpt lat="42.6092925" lon="5.7973809"><ele>0.0</ele><time>2026-04-30T19:19:37.083Z</time></trkpt><trkpt lat="42.6093232" lon="5.7974834"><ele>0.0</ele><time>2026-04-30T19:19:38.084Z</time></trkpt><trkpt lat="42.6093545" lon="5.7975822"><ele>0.0</ele><time>2026-04-30T19:19:39.084Z</time></trkpt><trkpt lat="42.6093844" lon="5.7976875"><ele>0.0</ele><time>2026-04-30T19:19:40.083Z</time></trkpt><trkpt lat="42.6094103" lon="5.7977928"><ele>0.0</ele><time>2026-04-30T19:19:41.083Z</time></trkpt><trkpt lat="42.6094435" lon="5.7979053"><ele>0.0</ele><time>2026-04-30T19:19:42.083Z</time></trkpt><trkpt lat="42.6094756" lon="5.7980175"><ele>0.0</ele><time>2026-04-30T19:19:43.083Z</time></trkpt><trkpt lat="42.6095158" lon="5.7981257"><ele>0.0</ele><time>2026-04-30T19:19:44.083Z</time></trkpt><trkpt lat="42.6095565" lon="5.7982259"><ele>0.0</ele><time>2026-04-30T19:19:45.083Z</time></trkpt><trkpt lat="42.6096048" lon="5.7983238"><ele>0.0</ele><time>2026-04-30T19:19:46.084Z</time></trkpt><trkpt lat="42.6096755" lon="5.79853"><ele>0.0</ele><time>2026-04-30T19:19:48.084Z</time></trkpt><trkpt lat="42.6097165" lon="5.798626"><ele>0.0</ele><time>2026-04-30T19:19:49.084Z</time></trkpt><trkpt lat="42.6097552" lon="5.7987281"><ele>0.0</ele><time>2026-04-30T19:19:50.083Z</time></trkpt><trkpt lat="42.6097905" lon="5.7988343"><ele>0.0</ele><time>2026-04-30T19:19:51.084Z</time></trkpt><trkpt lat="42.6098197" lon="5.798941"><ele>0.0</ele><time>2026-04-30T19:19:52.083Z</time></trkpt><trkpt lat="42.6098549" lon="5.7990437"><ele>0.0</ele><time>2026-04-30T19:19:53.084Z</time></trkpt><trkpt lat="42.6098877" lon="5.799148"><ele>0.0</ele><time>2026-04-30T19:19:54.083Z</time></trkpt><trkpt lat="42.6099105" lon="5.7992563"><ele>0.0</ele><time>2026-04-30T19:19:55.084Z</time></trkpt><trkpt lat="42.6099406" lon="5.7993617"><ele>0.0</ele><time>2026-04-30T19:19:56.084Z</time></trkpt><trkpt lat="42.6099737" lon="5.7994679"><ele>0.0</ele><time>2026-04-30T19:19:57.083Z</time></trkpt><trkpt lat="42.6100628" lon="5.7996774"><ele>0.0</ele><time>2026-04-30T19:19:59.083Z</time></trkpt><trkpt lat="42.6101031" lon="5.7997844"><ele>0.0</ele><time>2026-04-30T19:20:00.084Z</time></trkpt><trkpt lat="42.6101364" lon="5.7998901"><ele>0.0</ele><time>2026-04-30T19:20:01.084Z</time></trkpt><trkpt lat="42.610169" lon="5.7999951"><ele>0.0</ele><time>2026-04-30T19:20:02.084Z</time></trkpt><trkpt lat="42.6101993" lon="5.8000985"><ele>0.0</ele><time>2026-04-30T19:20:03.083Z</time></trkpt><trkpt lat="42.610235" lon="5.8002003"><ele>0.0</ele><time>2026-04-30T19:20:04.083Z</time></trkpt><trkpt lat="42.6102715" lon="5.8003034"><ele>0.0</ele><time>2026-04-30T19:20:05.083Z</time></trkpt><trkpt lat="42.6102995" lon="5.800407"><ele>0.0</ele><time>2026-04-30T19:20:06.083Z</time></trkpt><trkpt lat="42.6103328" lon="5.8005164"><ele>0.0</ele><time>2026-04-30T19:20:07.083Z</time></trkpt><trkpt lat="42.6103883" lon="5.8007403"><ele>0.0</ele><time>2026-04-30T19:20:09.083Z</time></trkpt><trkpt lat="42.6104116" lon="5.8008525"><ele>0.0</ele><time>2026-04-30T19:20:10.083Z</time></trkpt><trkpt lat="42.6104305" lon="5.8009629"><ele>0.0</ele><time>2026-04-30T19:20:11.083Z</time></trkpt><trkpt lat="42.610459" lon="5.8010683"><ele>0.0</ele><time>2026-04-30T19:20:12.084Z</time></trkpt><trkpt lat="42.6104925" lon="5.8011724"><ele>0.0</ele><time>2026-04-30T19:20:13.084Z</time></trkpt><trkpt lat="42.6105232" lon="5.8012785"><ele>0.0</ele><time>2026-04-30T19:20:14.083Z</time></trkpt><trkpt lat="42.6105578" lon="5.8013836"><ele>0.0</ele><time>2026-04-30T19:20:15.083Z</time></trkpt><trkpt lat="42.6105945" lon="5.8014839"><ele>0.0</ele><time>2026-04-30T19:20:16.083Z</time></trkpt><trkpt lat="42.6106343" lon="5.8015864"><ele>0.0</ele><time>2026-04-30T19:20:17.084Z</time></trkpt><trkpt lat="42.6106631" lon="5.8016941"><ele>0.0</ele><time>2026-04-30T19:20:18.084Z</time></trkpt><trkpt lat="42.6106871" lon="5.8018053"><ele>0.0</ele><time>2026-04-30T19:20:19.083Z</time></trkpt><trkpt lat="42.6107087" lon="5.8019142"><ele>0.0</ele><time>2026-04-30T19:20:20.084Z</time></trkpt><trkpt lat="42.6107359" lon="5.8020224"><ele>0.0</ele><time>2026-04-30T19:20:21.084Z</time></trkpt><trkpt lat="42.6107602" lon="5.80213"><ele>0.0</ele><time>2026-04-30T19:20:22.083Z</time></trkpt><trkpt lat="42.6107835" lon="5.8022308"><ele>0.0</ele><time>2026-04-30T19:20:23.084Z</time></trkpt><trkpt lat="42.6108208" lon="5.8023316"><ele>0.0</ele><time>2026-04-30T19:20:24.083Z</time></trkpt><trkpt lat="42.6108488" lon="5.8024383"><ele>0.0</ele><time>2026-04-30T19:20:25.083Z</time></trkpt><trkpt lat="42.6108803" lon="5.8025464"><ele>0.0</ele><time>2026-04-30T19:20:26.084Z</time></trkpt><trkpt lat="42.6109137" lon="5.8026536"><ele>0.0</ele><time>2026-04-30T19:20:27.083Z</time></trkpt><trkpt lat="42.6109475" lon="5.8027589"><ele>0.0</ele><time>2026-04-30T19:20:28.084Z</time></trkpt><trkpt lat="42.6110022" lon="5.8028479"><ele>0.0</ele><time>2026-04-30T19:20:29.083Z</time></trkpt><trkpt lat="42.6111506" lon="5.8031413"><ele>0.0</ele><time>2026-04-30T19:20:32.084Z</time></trkpt><trkpt lat="42.6111876" lon="5.8032437"><ele>0.0</ele><time>2026-04-30T19:20:33.083Z</time></trkpt><trkpt lat="42.6112257" lon="5.8033454"><ele>0.0</ele><time>2026-04-30T19:20:34.084Z</time></trkpt><trkpt lat="42.611277" lon="5.8034481"><ele>0.0</ele><time>2026-04-30T19:20:35.083Z</time></trkpt><trkpt lat="42.6113178" lon="5.8035536"><ele>0.0</ele><time>2026-04-30T19:20:36.083Z</time></trkpt><trkpt lat="42.6113692" lon="5.8036513"><ele>0.0</ele><time>2026-04-30T19:20:37.083Z</time></trkpt><trkpt lat="42.6114107" lon="5.8037551"><ele>0.0</ele><time>2026-04-30T19:20:38.084Z</time></trkpt><trkpt lat="42.6114469" lon="5.8038556"><ele>0.0</ele><time>2026-04-30T19:20:39.084Z</time></trkpt><trkpt lat="42.6114776" lon="5.8039566"><ele>0.0</ele><time>2026-04-30T19:20:40.083Z</time></trkpt><trkpt lat="42.6115073" lon="5.8040596"><ele>0.0</ele><time>2026-04-30T19:20:41.083Z</time></trkpt><trkpt lat="42.6115417" lon="5.8041691"><ele>0.0</ele><time>2026-04-30T19:20:42.084Z</time></trkpt><trkpt lat="42.6115739" lon="5.8042733"><ele>0.0</ele><time>2026-04-30T19:20:43.084Z</time></trkpt><trkpt lat="42.6116059" lon="5.8043751"><ele>0.0</ele><time>2026-04-30T19:20:44.084Z</time></trkpt><trkpt lat="42.611643" lon="5.8044825"><ele>0.0</ele><time>2026-04-30T19:20:45.083Z</time></trkpt><trkpt lat="42.6116788" lon="5.8045914"><ele>0.0</ele><time>2026-04-30T19:20:46.083Z</time></trkpt><trkpt lat="42.6117165" lon="5.8046954"><ele>0.0</ele><time>2026-04-30T19:20:47.084Z</time></trkpt><trkpt lat="42.611755" lon="5.8047975"><ele>0.0</ele><time>2026-04-30T19:20:48.084Z</time></trkpt><trkpt lat="42.611792" lon="5.8049016"><ele>0.0</ele><time>2026-04-30T19:20:49.083Z</time></trkpt><trkpt lat="42.611827" lon="5.8050053"><ele>0.0</ele><time>2026-04-30T19:20:50.084Z</time></trkpt><trkpt lat="42.6118481" lon="5.8051125"><ele>0.0</ele><time>2026-04-30T19:20:51.084Z</time></trkpt><trkpt lat="42.6118931" lon="5.8053278"><ele>0.0</ele><time>2026-04-30T19:20:53.083Z</time></trkpt><trkpt lat="42.6119275" lon="5.8054329"><ele>0.0</ele><time>2026-04-30T19:20:54.084Z</time></trkpt><trkpt lat="42.6119656" lon="5.8055334"><ele>0.0</ele><time>2026-04-30T19:20:55.084Z</time></trkpt><trkpt lat="42.6119966" lon="5.8056345"><ele>0.0</ele><time>2026-04-30T19:20:56.083Z</time></trkpt><trkpt lat="42.6120318" lon="5.8057362"><ele>0.0</ele><time>2026-04-30T19:20:57.084Z</time></trkpt><trkpt lat="42.612067" lon="5.8058427"><ele>0.0</ele><time>2026-04-30T19:20:58.083Z</time></trkpt><trkpt lat="42.6121068" lon="5.8059438"><ele>0.0</ele><time>2026-04-30T19:20:59.084Z</time></trkpt><trkpt lat="42.6121451" lon="5.8060447"><ele>0.0</ele><time>2026-04-30T19:21:00.083Z</time></trkpt><trkpt lat="42.6121806" lon="5.8061435"><ele>0.0</ele><time>2026-04-30T19:21:01.083Z</time></trkpt><trkpt lat="42.6122154" lon="5.8062437"><ele>0.0</ele><time>2026-04-30T19:21:02.083Z</time></trkpt><trkpt lat="42.6122517" lon="5.8063476"><ele>0.0</ele><time>2026-04-30T19:21:03.084Z</time></trkpt><trkpt lat="42.6122888" lon="5.8064486"><ele>0.0</ele><time>2026-04-30T19:21:04.083Z</time></trkpt><trkpt lat="42.6123237" lon="5.8065498"><ele>0.0</ele><time>2026-04-30T19:21:05.084Z</time></trkpt><trkpt lat="42.6123556" lon="5.8066545"><ele>0.0</ele><time>2026-04-30T19:21:06.084Z</time></trkpt><trkpt lat="42.6123897" lon="5.8067582"><ele>0.0</ele><time>2026-04-30T19:21:07.083Z</time></trkpt><trkpt lat="42.6124264" lon="5.8068648"><ele>0.0</ele><time>2026-04-30T19:21:08.083Z</time></trkpt><trkpt lat="42.6124649" lon="5.8069681"><ele>0.0</ele><time>2026-04-30T19:21:09.083Z</time></trkpt><trkpt lat="42.6124961" lon="5.8070719"><ele>0.0</ele><time>2026-04-30T19:21:10.083Z</time></trkpt><trkpt lat="42.6125295" lon="5.8071834"><ele>0.0</ele><time>2026-04-30T19:21:11.084Z</time></trkpt><trkpt lat="42.6125655" lon="5.8072895"><ele>0.0</ele><time>2026-04-30T19:21:12.084Z</time></trkpt><trkpt lat="42.6126439" lon="5.8075085"><ele>0.0</ele><time>2026-04-30T19:21:14.083Z</time></trkpt><trkpt lat="42.6126788" lon="5.8076119"><ele>0.0</ele><time>2026-04-30T19:21:15.084Z</time></trkpt><trkpt lat="42.6127273" lon="5.8077107"><ele>0.0</ele><time>2026-04-30T19:21:16.083Z</time></trkpt><trkpt lat="42.6127653" lon="5.8078088"><ele>0.0</ele><time>2026-04-30T19:21:17.084Z</time></trkpt><trkpt lat="42.6128045" lon="5.8079144"><ele>0.0</ele><time>2026-04-30T19:21:18.084Z</time></trkpt><trkpt lat="42.612825" lon="5.8080255"><ele>0.0</ele><time>2026-04-30T19:21:19.084Z</time></trkpt><trkpt lat="42.6128527" lon="5.8081345"><ele>0.0</ele><time>2026-04-30T19:21:20.084Z</time></trkpt><trkpt lat="42.6128826" lon="5.8082389"><ele>0.0</ele><time>2026-04-30T19:21:21.083Z</time></trkpt><trkpt lat="42.6129123" lon="5.8083448"><ele>0.0</ele><time>2026-04-30T19:21:22.083Z</time></trkpt><trkpt lat="42.6129453" lon="5.8084501"><ele>0.0</ele><time>2026-04-30T19:21:23.084Z</time></trkpt><trkpt lat="42.6129771" lon="5.8085564"><ele>0.0</ele><time>2026-04-30T19:21:24.083Z</time></trkpt><trkpt lat="42.6130072" lon="5.8086588"><ele>0.0</ele><time>2026-04-30T19:21:25.083Z</time></trkpt><trkpt lat="42.6130402" lon="5.8087633"><ele>0.0</ele><time>2026-04-30T19:21:26.084Z</time></trkpt><trkpt lat="42.6130732" lon="5.8088739"><ele>0.0</ele><time>2026-04-30T19:21:27.084Z</time></trkpt><trkpt lat="42.6131195" lon="5.8089754"><ele>0.0</ele><time>2026-04-30T19:21:28.083Z</time></trkpt><trkpt lat="42.6131579" lon="5.8090815"><ele>0.0</ele><time>2026-04-30T19:21:29.084Z</time></trkpt><trkpt lat="42.6131946" lon="5.8091845"><ele>0.0</ele><time>2026-04-30T19:21:30.084Z</time></trkpt><trkpt lat="42.6132299" lon="5.8092895"><ele>0.0</ele><time>2026-04-30T19:21:31.083Z</time></trkpt><trkpt lat="42.6132607" lon="5.8093963"><ele>0.0</ele><time>2026-04-30T19:21:32.083Z</time></trkpt><trkpt lat="42.6133469" lon="5.8097177"><ele>0.0</ele><time>2026-04-30T19:21:35.083Z</time></trkpt><trkpt lat="42.6133727" lon="5.8098248"><ele>0.0</ele><time>2026-04-30T19:21:36.083Z</time></trkpt><trkpt lat="42.6134031" lon="5.8099289"><ele>0.0</ele><time>2026-04-30T19:21:37.083Z</time></trkpt><trkpt lat="42.613436" lon="5.8100367"><ele>0.0</ele><time>2026-04-30T19:21:38.083Z</time></trkpt><trkpt lat="42.6134666" lon="5.8101469"><ele>0.0</ele><time>2026-04-30T19:21:39.084Z</time></trkpt><trkpt lat="42.6134997" lon="5.810252"><ele>0.0</ele><time>2026-04-30T19:21:40.083Z</time></trkpt><trkpt lat="42.6135331" lon="5.8103552"><ele>0.0</ele><time>2026-04-30T19:21:41.083Z</time></trkpt><trkpt lat="42.6135696" lon="5.8104571"><ele>0.0</ele><time>2026-04-30T19:21:42.084Z</time></trkpt><trkpt lat="42.6136091" lon="5.8105618"><ele>0.0</ele><time>2026-04-30T19:21:43.083Z</time></trkpt><trkpt lat="42.6136498" lon="5.8106655"><ele>0.0</ele><time>2026-04-30T19:21:44.084Z</time></trkpt><trkpt lat="42.6136885" lon="5.8107654"><ele>0.0</ele><time>2026-04-30T19:21:45.083Z</time></trkpt><trkpt lat="42.6137307" lon="5.8108653"><ele>0.0</ele><time>2026-04-30T19:21:46.083Z</time></trkpt><trkpt lat="42.6137687" lon="5.8109683"><ele>0.0</ele><time>2026-04-30T19:21:47.084Z</time></trkpt><trkpt lat="42.6138035" lon="5.8110732"><ele>0.0</ele><time>2026-04-30T19:21:48.083Z</time></trkpt><trkpt lat="42.6138353" lon="5.81118"><ele>0.0</ele><time>2026-04-30T19:21:49.083Z</time></trkpt><trkpt lat="42.6138651" lon="5.8112882"><ele>0.0</ele><time>2026-04-30T19:21:50.083Z</time></trkpt><trkpt lat="42.6138935" lon="5.8113961"><ele>0.0</ele><time>2026-04-30T19:21:51.084Z</time></trkpt><trkpt lat="42.6139217" lon="5.8115031"><ele>0.0</ele><time>2026-04-30T19:21:52.084Z</time></trkpt><trkpt lat="42.6139561" lon="5.8116069"><ele>0.0</ele><time>2026-04-30T19:21:53.083Z</time></trkpt><trkpt lat="42.6139899" lon="5.8117113"><ele>0.0</ele><time>2026-04-30T19:21:54.083Z</time></trkpt><trkpt lat="42.614063" lon="5.8119232"><ele>0.0</ele><time>2026-04-30T19:21:56.084Z</time></trkpt><trkpt lat="42.6141001" lon="5.8120283"><ele>0.0</ele><time>2026-04-30T19:21:57.084Z</time></trkpt><trkpt lat="42.6141318" lon="5.812135"><ele>0.0</ele><time>2026-04-30T19:21:58.084Z</time></trkpt><trkpt lat="42.6141697" lon="5.8122373"><ele>0.0</ele><time>2026-04-30T19:21:59.083Z</time></trkpt><trkpt lat="42.6142094" lon="5.8123399"><ele>0.0</ele><time>2026-04-30T19:22:00.083Z</time></trkpt><trkpt lat="42.6142448" lon="5.8124464"><ele>0.0</ele><time>2026-04-30T19:22:01.083Z</time></trkpt><trkpt lat="42.6142786" lon="5.8125534"><ele>0.0</ele><time>2026-04-30T19:22:02.083Z</time></trkpt><trkpt lat="42.6143134" lon="5.8126568"><ele>0.0</ele><time>2026-04-30T19:22:03.083Z</time></trkpt><trkpt lat="42.6143484" lon="5.81276"><ele>0.0</ele><time>2026-04-30T19:22:04.083Z</time></trkpt><trkpt lat="42.6143802" lon="5.8128614"><ele>0.0</ele><time>2026-04-30T19:22:05.083Z</time></trkpt><trkpt lat="42.6144133" lon="5.8129631"><ele>0.0</ele><time>2026-04-30T19:22:06.083Z</time></trkpt><trkpt lat="42.6144497" lon="5.8130659"><ele>0.0</ele><time>2026-04-30T19:22:07.083Z</time></trkpt><trkpt lat="42.6144881" lon="5.8131714"><ele>0.0</ele><time>2026-04-30T19:22:08.083Z</time></trkpt><trkpt lat="42.6145235" lon="5.8132768"><ele>0.0</ele><time>2026-04-30T19:22:09.084Z</time></trkpt><trkpt lat="42.6145566" lon="5.8133802"><ele>0.0</ele><time>2026-04-30T19:22:10.083Z</time></trkpt><trkpt lat="42.6145914" lon="5.8134908"><ele>0.0</ele><time>2026-04-30T19:22:11.083Z</time></trkpt><trkpt lat="42.6146253" lon="5.8135965"><ele>0.0</ele><time>2026-04-30T19:22:12.083Z</time></trkpt><trkpt lat="42.6146585" lon="5.8137001"><ele>0.0</ele><time>2026-04-30T19:22:13.084Z</time></trkpt><trkpt lat="42.6146936" lon="5.8138032"><ele>0.0</ele><time>2026-04-30T19:22:14.083Z</time></trkpt><trkpt lat="42.6147302" lon="5.813904"><ele>0.0</ele><time>2026-04-30T19:22:15.084Z</time></trkpt><trkpt lat="42.6148116" lon="5.814105"><ele>0.0</ele><time>2026-04-30T19:22:17.083Z</time></trkpt><trkpt lat="42.614849" lon="5.8142017"><ele>0.0</ele><time>2026-04-30T19:22:18.084Z</time></trkpt><trkpt lat="42.6148715" lon="5.8143084"><ele>0.0</ele><time>2026-04-30T19:22:19.084Z</time></trkpt><trkpt lat="42.6148921" lon="5.8144185"><ele>0.0</ele><time>2026-04-30T19:22:20.083Z</time></trkpt><trkpt lat="42.6149245" lon="5.8145231"><ele>0.0</ele><time>2026-04-30T19:22:21.084Z</time></trkpt><trkpt lat="42.6149644" lon="5.814623"><ele>0.0</ele><time>2026-04-30T19:22:22.083Z</time></trkpt><trkpt lat="42.6149962" lon="5.8147287"><ele>0.0</ele><time>2026-04-30T19:22:23.083Z</time></trkpt><trkpt lat="42.6150316" lon="5.8148335"><ele>0.0</ele><time>2026-04-30T19:22:24.083Z</time></trkpt><trkpt lat="42.6150667" lon="5.8149358"><ele>0.0</ele><time>2026-04-30T19:22:25.084Z</time></trkpt><trkpt lat="42.6151033" lon="5.8150376"><ele>0.0</ele><time>2026-04-30T19:22:26.083Z</time></trkpt><trkpt lat="42.6151414" lon="5.8151411"><ele>0.0</ele><time>2026-04-30T19:22:27.084Z</time></trkpt><trkpt lat="42.6151784" lon="5.8152429"><ele>0.0</ele><time>2026-04-30T19:22:28.083Z</time></trkpt><trkpt lat="42.6152167" lon="5.8153429"><ele>0.0</ele><time>2026-04-30T19:22:29.083Z</time></trkpt><trkpt lat="42.6152594" lon="5.8154491"><ele>0.0</ele><time>2026-04-30T19:22:30.083Z</time></trkpt><trkpt lat="42.6153098" lon="5.8155529"><ele>0.0</ele><time>2026-04-30T19:22:31.083Z</time></trkpt><trkpt lat="42.6153581" lon="5.8156624"><ele>0.0</ele><time>2026-04-30T19:22:32.083Z</time></trkpt><trkpt lat="42.6153978" lon="5.8157728"><ele>0.0</ele><time>2026-04-30T19:22:33.084Z</time></trkpt><trkpt lat="42.6154322" lon="5.8158789"><ele>0.0</ele><time>2026-04-30T19:22:34.084Z</time></trkpt><trkpt lat="42.6154696" lon="5.8159878"><ele>0.0</ele><time>2026-04-30T19:22:35.084Z</time></trkpt><trkpt lat="42.6155152" lon="5.8160847"><ele>0.0</ele><time>2026-04-30T19:22:36.084Z</time></trkpt><trkpt lat="42.6156262" lon="5.8163893"><ele>0.0</ele><time>2026-04-30T19:22:39.083Z</time></trkpt><trkpt lat="42.6156651" lon="5.8164902"><ele>0.0</ele><time>2026-04-30T19:22:40.084Z</time></trkpt><trkpt lat="42.6157018" lon="5.8165891"><ele>0.0</ele><time>2026-04-30T19:22:41.083Z</time></trkpt><trkpt lat="42.6157348" lon="5.8166922"><ele>0.0</ele><time>2026-04-30T19:22:42.084Z</time></trkpt><trkpt lat="42.6157689" lon="5.8167981"><ele>0.0</ele><time>2026-04-30T19:22:43.083Z</time></trkpt><trkpt lat="42.6158068" lon="5.8169046"><ele>0.0</ele><time>2026-04-30T19:22:44.084Z</time></trkpt><trkpt lat="42.6158425" lon="5.8170113"><ele>0.0</ele><time>2026-04-30T19:22:45.083Z</time></trkpt><trkpt lat="42.615876" lon="5.817121"><ele>0.0</ele><time>2026-04-30T19:22:46.083Z</time></trkpt><trkpt lat="42.6159036" lon="5.8172312"><ele>0.0</ele><time>2026-04-30T19:22:47.083Z</time></trkpt><trkpt lat="42.615932" lon="5.8173398"><ele>0.0</ele><time>2026-04-30T19:22:48.083Z</time></trkpt><trkpt lat="42.6159602" lon="5.8174462"><ele>0.0</ele><time>2026-04-30T19:22:49.083Z</time></trkpt><trkpt lat="42.6159872" lon="5.8175518"><ele>0.0</ele><time>2026-04-30T19:22:50.083Z</time></trkpt><trkpt lat="42.6160248" lon="5.8176553"><ele>0.0</ele><time>2026-04-30T19:22:51.084Z</time></trkpt><trkpt lat="42.6160595" lon="5.817759"><ele>0.0</ele><time>2026-04-30T19:22:52.083Z</time></trkpt><trkpt lat="42.6161013" lon="5.8178588"><ele>0.0</ele><time>2026-04-30T19:22:53.084Z</time></trkpt><trkpt lat="42.616145" lon="5.8179662"><ele>0.0</ele><time>2026-04-30T19:22:54.083Z</time></trkpt><trkpt lat="42.6161973" lon="5.8180602"><ele>0.0</ele><time>2026-04-30T19:22:55.084Z</time></trkpt><trkpt lat="42.6162361" lon="5.818159"><ele>0.0</ele><time>2026-04-30T19:22:56.083Z</time></trkpt><trkpt lat="42.6162746" lon="5.818257"><ele>0.0</ele><time>2026-04-30T19:22:57.083Z</time></trkpt><trkpt lat="42.6163629" lon="5.8184646"><ele>0.0</ele><time>2026-04-30T19:22:59.083Z</time></trkpt><trkpt lat="42.6164039" lon="5.8185729"><ele>0.0</ele><time>2026-04-30T19:23:00.084Z</time></trkpt><trkpt lat="42.6164393" lon="5.8186762"><ele>0.0</ele><time>2026-04-30T19:23:01.084Z</time></trkpt><trkpt lat="42.616479" lon="5.8187807"><ele>0.0</ele><time>2026-04-30T19:23:02.083Z</time></trkpt><trkpt lat="42.6165189" lon="5.8188812"><ele>0.0</ele><time>2026-04-30T19:23:03.084Z</time></trkpt><trkpt lat="42.6165558" lon="5.8189797"><ele>0.0</ele><time>2026-04-30T19:23:04.084Z</time></trkpt><trkpt lat="42.6165952" lon="5.8190794"><ele>0.0</ele><time>2026-04-30T19:23:05.084Z</time></trkpt><trkpt lat="42.616629" lon="5.8191821"><ele>0.0</ele><time>2026-04-30T19:23:06.083Z</time></trkpt><trkpt lat="42.6166584" lon="5.8192943"><ele>0.0</ele><time>2026-04-30T19:23:07.083Z</time></trkpt><trkpt lat="42.6166957" lon="5.8193994"><ele>0.0</ele><time>2026-04-30T19:23:08.084Z</time></trkpt><trkpt lat="42.616769" lon="5.8196065"><ele>0.0</ele><time>2026-04-30T19:23:10.084Z</time></trkpt><trkpt lat="42.6168113" lon="5.8197168"><ele>0.0</ele><time>2026-04-30T19:23:11.084Z</time></trkpt><trkpt lat="42.6168513" lon="5.8198239"><ele>0.0</ele><time>2026-04-30T19:23:12.083Z</time></trkpt><trkpt lat="42.6168904" lon="5.81993"><ele>0.0</ele><time>2026-04-30T19:23:13.083Z</time></trkpt><trkpt lat="42.6169164" lon="5.8200355"><ele>0.0</ele><time>2026-04-30T19:23:14.083Z</time></trkpt><trkpt lat="42.6169421" lon="5.8201419"><ele>0.0</ele><time>2026-04-30T19:23:15.083Z</time></trkpt><trkpt lat="42.6169777" lon="5.8202529"><ele>0.0</ele><time>2026-04-30T19:23:16.083Z</time></trkpt><trkpt lat="42.6170187" lon="5.8203618"><ele>0.0</ele><time>2026-04-30T19:23:17.083Z</time></trkpt><trkpt lat="42.6170602" lon="5.8204662"><ele>0.0</ele><time>2026-04-30T19:23:18.084Z</time></trkpt><trkpt lat="42.6171441" lon="5.820666"><ele>0.0</ele><time>2026-04-30T19:23:20.084Z</time></trkpt><trkpt lat="42.6171818" lon="5.8207685"><ele>0.0</ele><time>2026-04-30T19:23:21.083Z</time></trkpt><trkpt lat="42.6172096" lon="5.8208706"><ele>0.0</ele><time>2026-04-30T19:23:22.083Z</time></trkpt><trkpt lat="42.6172371" lon="5.8209705"><ele>0.0</ele><time>2026-04-30T19:23:23.083Z</time></trkpt><trkpt lat="42.6172686" lon="5.821069"><ele>0.0</ele><time>2026-04-30T19:23:24.084Z</time></trkpt><trkpt lat="42.6173018" lon="5.8211702"><ele>0.0</ele><time>2026-04-30T19:23:25.084Z</time></trkpt><trkpt lat="42.6173348" lon="5.8212845"><ele>0.0</ele><time>2026-04-30T19:23:26.084Z</time></trkpt><trkpt lat="42.617371" lon="5.8213989"><ele>0.0</ele><time>2026-04-30T19:23:27.083Z</time></trkpt><trkpt lat="42.6174051" lon="5.8215007"><ele>0.0</ele><time>2026-04-30T19:23:28.083Z</time></trkpt><trkpt lat="42.6174373" lon="5.8216063"><ele>0.0</ele><time>2026-04-30T19:23:29.083Z</time></trkpt><trkpt lat="42.6174746" lon="5.8217133"><ele>0.0</ele><time>2026-04-30T19:23:30.083Z</time></trkpt><trkpt lat="42.6175058" lon="5.8218246"><ele>0.0</ele><time>2026-04-30T19:23:31.083Z</time></trkpt><trkpt lat="42.6175427" lon="5.8219322"><ele>0.0</ele><time>2026-04-30T19:23:32.084Z</time></trkpt><trkpt lat="42.6175772" lon="5.822036"><ele>0.0</ele><time>2026-04-30T19:23:33.083Z</time></trkpt><trkpt lat="42.6176117" lon="5.8221403"><ele>0.0</ele><time>2026-04-30T19:23:34.083Z</time></trkpt><trkpt lat="42.6176452" lon="5.8222467"><ele>0.0</ele><time>2026-04-30T19:23:35.084Z</time></trkpt><trkpt lat="42.6176814" lon="5.822351"><ele>0.0</ele><time>2026-04-30T19:23:36.083Z</time></trkpt><trkpt lat="42.6177167" lon="5.8224528"><ele>0.0</ele><time>2026-04-30T19:23:37.083Z</time></trkpt><trkpt lat="42.6177521" lon="5.8225582"><ele>0.0</ele><time>2026-04-30T19:23:38.084Z</time></trkpt><trkpt lat="42.6177855" lon="5.8226634"><ele>0.0</ele><time>2026-04-30T19:23:39.083Z</time></trkpt><trkpt lat="42.6178163" lon="5.8227685"><ele>0.0</ele><time>2026-04-30T19:23:40.083Z</time></trkpt><trkpt lat="42.6179244" lon="5.8230834"><ele>0.0</ele><time>2026-04-30T19:23:43.084Z</time></trkpt><trkpt lat="42.617953" lon="5.823184"><ele>0.0</ele><time>2026-04-30T19:23:44.084Z</time></trkpt><trkpt lat="42.6179851" lon="5.8232854"><ele>0.0</ele><time>2026-04-30T19:23:45.083Z</time></trkpt><trkpt lat="42.6180126" lon="5.8233886"><ele>0.0</ele><time>2026-04-30T19:23:46.084Z</time></trkpt><trkpt lat="42.6180359" lon="5.8234921"><ele>0.0</ele><time>2026-04-30T19:23:47.083Z</time></trkpt><trkpt lat="42.6180575" lon="5.8235956"><ele>0.0</ele><time>2026-04-30T19:23:48.084Z</time></trkpt><trkpt lat="42.6180768" lon="5.8237001"><ele>0.0</ele><time>2026-04-30T19:23:49.083Z</time></trkpt><trkpt lat="42.6180976" lon="5.8238051"><ele>0.0</ele><time>2026-04-30T19:23:50.083Z</time></trkpt><trkpt lat="42.618119" lon="5.8239144"><ele>0.0</ele><time>2026-04-30T19:23:51.084Z</time></trkpt><trkpt lat="42.6181473" lon="5.8240186"><ele>0.0</ele><time>2026-04-30T19:23:52.083Z</time></trkpt><trkpt lat="42.6181756" lon="5.824123"><ele>0.0</ele><time>2026-04-30T19:23:53.083Z</time></trkpt><trkpt lat="42.6182039" lon="5.8242283"><ele>0.0</ele><time>2026-04-30T19:23:54.083Z</time></trkpt><trkpt lat="42.6182354" lon="5.8243302"><ele>0.0</ele><time>2026-04-30T19:23:55.084Z</time></trkpt><trkpt lat="42.6182802" lon="5.8244297"><ele>0.0</ele><time>2026-04-30T19:23:56.083Z</time></trkpt><trkpt lat="42.6183157" lon="5.8245337"><ele>0.0</ele><time>2026-04-30T19:23:57.084Z</time></trkpt><trkpt lat="42.6183494" lon="5.8246373"><ele>0.0</ele><time>2026-04-30T19:23:58.083Z</time></trkpt><trkpt lat="42.6183839" lon="5.8247412"><ele>0.0</ele><time>2026-04-30T19:23:59.083Z</time></trkpt><trkpt lat="42.6184302" lon="5.8248403"><ele>0.0</ele><time>2026-04-30T19:24:00.083Z</time></trkpt><trkpt lat="42.6184644" lon="5.824941"><ele>0.0</ele><time>2026-04-30T19:24:01.084Z</time></trkpt><trkpt lat="42.6184956" lon="5.8250459"><ele>0.0</ele><time>2026-04-30T19:24:02.083Z</time></trkpt><trkpt lat="42.618568" lon="5.825262"><ele>0.0</ele><time>2026-04-30T19:24:04.083Z</time></trkpt><trkpt lat="42.618611" lon="5.825368"><ele>0.0</ele><time>2026-04-30T19:24:05.083Z</time></trkpt><trkpt lat="42.6186503" lon="5.8254704"><ele>0.0</ele><time>2026-04-30T19:24:06.084Z</time></trkpt><trkpt lat="42.6186888" lon="5.825576"><ele>0.0</ele><time>2026-04-30T19:24:07.084Z</time></trkpt><trkpt lat="42.6187252" lon="5.8256828"><ele>0.0</ele><time>2026-04-30T19:24:08.084Z</time></trkpt><trkpt lat="42.6187643" lon="5.8257866"><ele>0.0</ele><time>2026-04-30T19:24:09.084Z</time></trkpt><trkpt lat="42.6188013" lon="5.8258926"><ele>0.0</ele><time>2026-04-30T19:24:10.084Z</time></trkpt><trkpt lat="42.6188381" lon="5.8259981"><ele>0.0</ele><time>2026-04-30T19:24:11.083Z</time></trkpt><trkpt lat="42.6188739" lon="5.8260982"><ele>0.0</ele><time>2026-04-30T19:24:12.083Z</time></trkpt><trkpt lat="42.6189117" lon="5.8261992"><ele>0.0</ele><time>2026-04-30T19:24:13.084Z</time></trkpt><trkpt lat="42.6189526" lon="5.8263082"><ele>0.0</ele><time>2026-04-30T19:24:14.084Z</time></trkpt><trkpt lat="42.6189916" lon="5.8264134"><ele>0.0</ele><time>2026-04-30T19:24:15.084Z</time></trkpt><trkpt lat="42.619029" lon="5.8265108"><ele>0.0</ele><time>2026-04-30T19:24:16.083Z</time></trkpt><trkpt lat="42.6190686" lon="5.8266054"><ele>0.0</ele><time>2026-04-30T19:24:17.083Z</time></trkpt><trkpt lat="42.6191102" lon="5.8267045"><ele>0.0</ele><time>2026-04-30T19:24:18.083Z</time></trkpt><trkpt lat="42.619152" lon="5.8268095"><ele>0.0</ele><time>2026-04-30T19:24:19.083Z</time></trkpt><trkpt lat="42.6191875" lon="5.8269123"><ele>0.0</ele><time>2026-04-30T19:24:20.083Z</time></trkpt><trkpt lat="42.6192236" lon="5.8270182"><ele>0.0</ele><time>2026-04-30T19:24:21.084Z</time></trkpt><trkpt lat="42.619259" lon="5.8271219"><ele>0.0</ele><time>2026-04-30T19:24:22.084Z</time></trkpt><trkpt lat="42.6192893" lon="5.8272225"><ele>0.0</ele><time>2026-04-30T19:24:23.083Z</time></trkpt><trkpt lat="42.6193517" lon="5.8274326"><ele>0.0</ele><time>2026-04-30T19:24:25.084Z</time></trkpt><trkpt lat="42.6193758" lon="5.8275364"><ele>0.0</ele><time>2026-04-30T19:24:26.083Z</time></trkpt><trkpt lat="42.6194085" lon="5.8276425"><ele>0.0</ele><time>2026-04-30T19:24:27.084Z</time></trkpt><trkpt lat="42.6194439" lon="5.827751"><ele>0.0</ele><time>2026-04-30T19:24:28.084Z</time></trkpt><trkpt lat="42.6194704" lon="5.8278576"><ele>0.0</ele><time>2026-04-30T19:24:29.084Z</time></trkpt><trkpt lat="42.6195028" lon="5.8279616"><ele>0.0</ele><time>2026-04-30T19:24:30.083Z</time></trkpt><trkpt lat="42.6195353" lon="5.8280679"><ele>0.0</ele><time>2026-04-30T19:24:31.083Z</time></trkpt><trkpt lat="42.6195669" lon="5.8281761"><ele>0.0</ele><time>2026-04-30T19:24:32.084Z</time></trkpt><trkpt lat="42.6195986" lon="5.8282803"><ele>0.0</ele><time>2026-04-30T19:24:33.083Z</time></trkpt><trkpt lat="42.6196365" lon="5.8283862"><ele>0.0</ele><time>2026-04-30T19:24:34.084Z</time></trkpt><trkpt lat="42.6196755" lon="5.8284883"><ele>0.0</ele><time>2026-04-30T19:24:35.083Z</time></trkpt><trkpt lat="42.6197123" lon="5.8285875"><ele>0.0</ele><time>2026-04-30T19:24:36.083Z</time></trkpt><trkpt lat="42.6197471" lon="5.8286887"><ele>0.0</ele><time>2026-04-30T19:24:37.084Z</time></trkpt><trkpt lat="42.6197721" lon="5.8287915"><ele>0.0</ele><time>2026-04-30T19:24:38.083Z</time></trkpt><trkpt lat="42.6198038" lon="5.8288931"><ele>0.0</ele><time>2026-04-30T19:24:39.083Z</time></trkpt><trkpt lat="42.6198352" lon="5.8289981"><ele>0.0</ele><time>2026-04-30T19:24:40.083Z</time></trkpt><trkpt lat="42.6198653" lon="5.8291049"><ele>0.0</ele><time>2026-04-30T19:24:41.084Z</time></trkpt><trkpt lat="42.6198953" lon="5.8292086"><ele>0.0</ele><time>2026-04-30T19:24:42.084Z</time></trkpt><trkpt lat="42.6199253" lon="5.8293128"><ele>0.0</ele><time>2026-04-30T19:24:43.083Z</time></trkpt><trkpt lat="42.6199614" lon="5.8294175"><ele>0.0</ele><time>2026-04-30T19:24:44.084Z</time></trkpt><trkpt lat="42.6200733" lon="5.8297282"><ele>0.0</ele><time>2026-04-30T19:24:47.083Z</time></trkpt><trkpt lat="42.6201099" lon="5.8298375"><ele>0.0</ele><time>2026-04-30T19:24:48.083Z</time></trkpt><trkpt lat="42.6201451" lon="5.8299496"><ele>0.0</ele><time>2026-04-30T19:24:49.083Z</time></trkpt><trkpt lat="42.6201797" lon="5.8300542"><ele>0.0</ele><time>2026-04-30T19:24:50.083Z</time></trkpt><trkpt lat="42.6202135" lon="5.8301572"><ele>0.0</ele><time>2026-04-30T19:24:51.083Z</time></trkpt><trkpt lat="42.6202502" lon="5.8302598"><ele>0.0</ele><time>2026-04-30T19:24:52.083Z</time></trkpt><trkpt lat="42.6202754" lon="5.8303646"><ele>0.0</ele><time>2026-04-30T19:24:53.082Z</time></trkpt><trkpt lat="42.6203131" lon="5.830469"><ele>0.0</ele><time>2026-04-30T19:24:54.083Z</time></trkpt><trkpt lat="42.62035" lon="5.8305745"><ele>0.0</ele><time>2026-04-30T19:24:55.082Z</time></trkpt><trkpt lat="42.6203867" lon="5.8306822"><ele>0.0</ele><time>2026-04-30T19:24:56.083Z</time></trkpt><trkpt lat="42.6204206" lon="5.8307894"><ele>0.0</ele><time>2026-04-30T19:24:57.082Z</time></trkpt><trkpt lat="42.6204638" lon="5.8308992"><ele>0.0</ele><time>2026-04-30T19:24:58.082Z</time></trkpt><trkpt lat="42.6205049" lon="5.8310111"><ele>0.0</ele><time>2026-04-30T19:24:59.082Z</time></trkpt><trkpt lat="42.6205423" lon="5.8311142"><ele>0.0</ele><time>2026-04-30T19:25:00.082Z</time></trkpt><trkpt lat="42.6205829" lon="5.8312168"><ele>0.0</ele><time>2026-04-30T19:25:01.083Z</time></trkpt><trkpt lat="42.6206204" lon="5.831317"><ele>0.0</ele><time>2026-04-30T19:25:02.082Z</time></trkpt><trkpt lat="42.6206571" lon="5.8314187"><ele>0.0</ele><time>2026-04-30T19:25:03.083Z</time></trkpt><trkpt lat="42.6206938" lon="5.8315201"><ele>0.0</ele><time>2026-04-30T19:25:04.082Z</time></trkpt><trkpt lat="42.6207317" lon="5.8316244"><ele>0.0</ele><time>2026-04-30T19:25:05.083Z</time></trkpt><trkpt lat="42.6207592" lon="5.8317238"><ele>0.0</ele><time>2026-04-30T19:25:06.082Z</time></trkpt><trkpt lat="42.6208247" lon="5.8319314"><ele>0.0</ele><time>2026-04-30T19:25:08.082Z</time></trkpt><trkpt lat="42.6208675" lon="5.8320325"><ele>0.0</ele><time>2026-04-30T19:25:09.082Z</time></trkpt><trkpt lat="42.6209045" lon="5.8321318"><ele>0.0</ele><time>2026-04-30T19:25:10.082Z</time></trkpt><trkpt lat="42.6209552" lon="5.8322351"><ele>0.0</ele><time>2026-04-30T19:25:11.083Z</time></trkpt><trkpt lat="42.6209964" lon="5.8323409"><ele>0.0</ele><time>2026-04-30T19:25:12.082Z</time></trkpt><trkpt lat="42.6210353" lon="5.8324464"><ele>0.0</ele><time>2026-04-30T19:25:13.083Z</time></trkpt><trkpt lat="42.6210752" lon="5.8325477"><ele>0.0</ele><time>2026-04-30T19:25:14.082Z</time></trkpt><trkpt lat="42.6211125" lon="5.8326514"><ele>0.0</ele><time>2026-04-30T19:25:15.083Z</time></trkpt><trkpt lat="42.6211476" lon="5.8327535"><ele>0.0</ele><time>2026-04-30T19:25:16.082Z</time></trkpt><trkpt lat="42.6212137" lon="5.8329611"><ele>0.0</ele><time>2026-04-30T19:25:18.082Z</time></trkpt><trkpt lat="42.6212524" lon="5.8330688"><ele>0.0</ele><time>2026-04-30T19:25:19.083Z</time></trkpt><trkpt lat="42.6212838" lon="5.8331715"><ele>0.0</ele><time>2026-04-30T19:25:20.083Z</time></trkpt><trkpt lat="42.6213247" lon="5.8332717"><ele>0.0</ele><time>2026-04-30T19:25:21.082Z</time></trkpt><trkpt lat="42.6213617" lon="5.8333751"><ele>0.0</ele><time>2026-04-30T19:25:22.082Z</time></trkpt><trkpt lat="42.6213895" lon="5.8334827"><ele>0.0</ele><time>2026-04-30T19:25:23.083Z</time></trkpt><trkpt lat="42.6214151" lon="5.8335867"><ele>0.0</ele><time>2026-04-30T19:25:24.083Z</time></trkpt><trkpt lat="42.6214428" lon="5.8336901"><ele>0.0</ele><time>2026-04-30T19:25:25.082Z</time></trkpt><trkpt lat="42.6214694" lon="5.8337901"><ele>0.0</ele><time>2026-04-30T19:25:26.083Z</time></trkpt><trkpt lat="42.6214987" lon="5.8338915"><ele>0.0</ele><time>2026-04-30T19:25:27.083Z</time></trkpt><trkpt lat="42.6215632" lon="5.8340969"><ele>0.0</ele><time>2026-04-30T19:25:29.083Z</time></trkpt><trkpt lat="42.6215825" lon="5.8342013"><ele>0.0</ele><time>2026-04-30T19:25:30.083Z</time></trkpt><trkpt lat="42.6216031" lon="5.8343051"><ele>0.0</ele><time>2026-04-30T19:25:31.082Z</time></trkpt><trkpt lat="42.6216458" lon="5.8344067"><ele>0.0</ele><time>2026-04-30T19:25:32.082Z</time></trkpt><trkpt lat="42.6216925" lon="5.8345116"><ele>0.0</ele><time>2026-04-30T19:25:33.082Z</time></trkpt><trkpt lat="42.6217394" lon="5.8346152"><ele>0.0</ele><time>2026-04-30T19:25:34.083Z</time></trkpt><trkpt lat="42.6217824" lon="5.8347197"><ele>0.0</ele><time>2026-04-30T19:25:35.083Z</time></trkpt><trkpt lat="42.6218145" lon="5.8348232"><ele>0.0</ele><time>2026-04-30T19:25:36.082Z</time></trkpt><trkpt lat="42.6218532" lon="5.8349265"><ele>0.0</ele><time>2026-04-30T19:25:37.083Z</time></trkpt><trkpt lat="42.6218804" lon="5.8350358"><ele>0.0</ele><time>2026-04-30T19:25:38.083Z</time></trkpt><trkpt lat="42.6219057" lon="5.8351458"><ele>0.0</ele><time>2026-04-30T19:25:39.082Z</time></trkpt><trkpt lat="42.6219345" lon="5.8352489"><ele>0.0</ele><time>2026-04-30T19:25:40.082Z</time></trkpt><trkpt lat="42.6219699" lon="5.8353529"><ele>0.0</ele><time>2026-04-30T19:25:41.083Z</time></trkpt><trkpt lat="42.6220006" lon="5.8354568"><ele>0.0</ele><time>2026-04-30T19:25:42.082Z</time></trkpt><trkpt lat="42.622032" lon="5.8355631"><ele>0.0</ele><time>2026-04-30T19:25:43.082Z</time></trkpt><trkpt lat="42.6220668" lon="5.8356652"><ele>0.0</ele><time>2026-04-30T19:25:44.083Z</time></trkpt><trkpt lat="42.6221045" lon="5.8357686"><ele>0.0</ele><time>2026-04-30T19:25:45.082Z</time></trkpt><trkpt lat="42.6221377" lon="5.8358718"><ele>0.0</ele><time>2026-04-30T19:25:46.083Z</time></trkpt><trkpt lat="42.6221717" lon="5.8359708"><ele>0.0</ele><time>2026-04-30T19:25:47.083Z</time></trkpt><trkpt lat="42.6222064" lon="5.8360738"><ele>0.0</ele><time>2026-04-30T19:25:48.082Z</time></trkpt><trkpt lat="42.6223074" lon="5.83638"><ele>0.0</ele><time>2026-04-30T19:25:51.083Z</time></trkpt><trkpt lat="42.6223448" lon="5.836485"><ele>0.0</ele><time>2026-04-30T19:25:52.083Z</time></trkpt><trkpt lat="42.6223843" lon="5.8365956"><ele>0.0</ele><time>2026-04-30T19:25:53.083Z</time></trkpt><trkpt lat="42.6224214" lon="5.8367019"><ele>0.0</ele><time>2026-04-30T19:25:54.083Z</time></trkpt><trkpt lat="42.6224534" lon="5.8368037"><ele>0.0</ele><time>2026-04-30T19:25:55.082Z</time></trkpt><trkpt lat="42.6224912" lon="5.8369065"><ele>0.0</ele><time>2026-04-30T19:25:56.083Z</time></trkpt><trkpt lat="42.6225316" lon="5.8370084"><ele>0.0</ele><time>2026-04-30T19:25:57.082Z</time></trkpt><trkpt lat="42.6225717" lon="5.8371101"><ele>0.0</ele><time>2026-04-30T19:25:58.082Z</time></trkpt><trkpt lat="42.6226257" lon="5.8372129"><ele>0.0</ele><time>2026-04-30T19:25:59.082Z</time></trkpt><trkpt lat="42.6226716" lon="5.8373119"><ele>0.0</ele><time>2026-04-30T19:26:00.083Z</time></trkpt><trkpt lat="42.622712" lon="5.8374149"><ele>0.0</ele><time>2026-04-30T19:26:01.082Z</time></trkpt><trkpt lat="42.6227532" lon="5.8375199"><ele>0.0</ele><time>2026-04-30T19:26:02.082Z</time></trkpt><trkpt lat="42.6227945" lon="5.8376218"><ele>0.0</ele><time>2026-04-30T19:26:03.083Z</time></trkpt><trkpt lat="42.622833" lon="5.8377236"><ele>0.0</ele><time>2026-04-30T19:26:04.083Z</time></trkpt><trkpt lat="42.6228658" lon="5.8378254"><ele>0.0</ele><time>2026-04-30T19:26:05.083Z</time></trkpt><trkpt lat="42.6228962" lon="5.8379207"><ele>0.0</ele><time>2026-04-30T19:26:06.082Z</time></trkpt><trkpt lat="42.6229291" lon="5.8380229"><ele>0.0</ele><time>2026-04-30T19:26:07.082Z</time></trkpt><trkpt lat="42.6229624" lon="5.8381294"><ele>0.0</ele><time>2026-04-30T19:26:08.083Z</time></trkpt><trkpt lat="42.6230016" lon="5.8382317"><ele>0.0</ele><time>2026-04-30T19:26:09.083Z</time></trkpt><trkpt lat="42.6230444" lon="5.8383331"><ele>0.0</ele><time>2026-04-30T19:26:10.082Z</time></trkpt><trkpt lat="42.6231164" lon="5.8385413"><ele>0.0</ele><time>2026-04-30T19:26:12.083Z</time></trkpt><trkpt lat="42.6231505" lon="5.8386449"><ele>0.0</ele><time>2026-04-30T19:26:13.083Z</time></trkpt><trkpt lat="42.6231824" lon="5.8387533"><ele>0.0</ele><time>2026-04-30T19:26:14.083Z</time></trkpt><trkpt lat="42.6232175" lon="5.8388634"><ele>0.0</ele><time>2026-04-30T19:26:15.082Z</time></trkpt><trkpt lat="42.6232469" lon="5.8389667"><ele>0.0</ele><time>2026-04-30T19:26:16.083Z</time></trkpt><trkpt lat="42.6232738" lon="5.8390642"><ele>0.0</ele><time>2026-04-30T19:26:17.083Z</time></trkpt><trkpt lat="42.6233105" lon="5.8391595"><ele>0.0</ele><time>2026-04-30T19:26:18.082Z</time></trkpt><trkpt lat="42.6233484" lon="5.8392625"><ele>0.0</ele><time>2026-04-30T19:26:19.082Z</time></trkpt><trkpt lat="42.6233838" lon="5.8393649"><ele>0.0</ele><time>2026-04-30T19:26:20.082Z</time></trkpt><trkpt lat="42.62346" lon="5.8395705"><ele>0.0</ele><time>2026-04-30T19:26:22.082Z</time></trkpt><trkpt lat="42.6235042" lon="5.8396846"><ele>0.0</ele><time>2026-04-30T19:26:23.082Z</time></trkpt><trkpt lat="42.6235437" lon="5.8397934"><ele>0.0</ele><time>2026-04-30T19:26:24.082Z</time></trkpt><trkpt lat="42.6235806" lon="5.8398993"><ele>0.0</ele><time>2026-04-30T19:26:25.082Z</time></trkpt><trkpt lat="42.6236184" lon="5.8400032"><ele>0.0</ele><time>2026-04-30T19:26:26.082Z</time></trkpt><trkpt lat="42.623655" lon="5.8401051"><ele>0.0</ele><time>2026-04-30T19:26:27.082Z</time></trkpt><trkpt lat="42.6236958" lon="5.8402069"><ele>0.0</ele><time>2026-04-30T19:26:28.082Z</time></trkpt><trkpt lat="42.6237394" lon="5.8403176"><ele>0.0</ele><time>2026-04-30T19:26:29.083Z</time></trkpt><trkpt lat="42.6237787" lon="5.8404205"><ele>0.0</ele><time>2026-04-30T19:26:30.082Z</time></trkpt><trkpt lat="42.6238199" lon="5.8405222"><ele>0.0</ele><time>2026-04-30T19:26:31.083Z</time></trkpt><trkpt lat="42.6239024" lon="5.8407292"><ele>0.0</ele><time>2026-04-30T19:26:33.082Z</time></trkpt><trkpt lat="42.6239368" lon="5.8408329"><ele>0.0</ele><time>2026-04-30T19:26:34.082Z</time></trkpt><trkpt lat="42.6239712" lon="5.840939"><ele>0.0</ele><time>2026-04-30T19:26:35.082Z</time></trkpt><trkpt lat="42.6240031" lon="5.8410449"><ele>0.0</ele><time>2026-04-30T19:26:36.082Z</time></trkpt><trkpt lat="42.6240454" lon="5.841144"><ele>0.0</ele><time>2026-04-30T19:26:37.082Z</time></trkpt><trkpt lat="42.6240826" lon="5.8412422"><ele>0.0</ele><time>2026-04-30T19:26:38.082Z</time></trkpt><trkpt lat="42.6241184" lon="5.8413462"><ele>0.0</ele><time>2026-04-30T19:26:39.082Z</time></trkpt><trkpt lat="42.6241604" lon="5.8414487"><ele>0.0</ele><time>2026-04-30T19:26:40.082Z</time></trkpt><trkpt lat="42.6241942" lon="5.8415549"><ele>0.0</ele><time>2026-04-30T19:26:41.083Z</time></trkpt><trkpt lat="42.6242227" lon="5.8416598"><ele>0.0</ele><time>2026-04-30T19:26:42.082Z</time></trkpt><trkpt lat="42.6242535" lon="5.841763"><ele>0.0</ele><time>2026-04-30T19:26:43.083Z</time></trkpt><trkpt lat="42.6242876" lon="5.8418662"><ele>0.0</ele><time>2026-04-30T19:26:44.082Z</time></trkpt><trkpt lat="42.6243193" lon="5.8419714"><ele>0.0</ele><time>2026-04-30T19:26:45.083Z</time></trkpt><trkpt lat="42.6243567" lon="5.842078"><ele>0.0</ele><time>2026-04-30T19:26:46.082Z</time></trkpt><trkpt lat="42.6243935" lon="5.8421847"><ele>0.0</ele><time>2026-04-30T19:26:47.082Z</time></trkpt><trkpt lat="42.6244171" lon="5.8422897"><ele>0.0</ele><time>2026-04-30T19:26:48.082Z</time></trkpt><trkpt lat="42.6244502" lon="5.8423913"><ele>0.0</ele><time>2026-04-30T19:26:49.082Z</time></trkpt><trkpt lat="42.6244867" lon="5.8424948"><ele>0.0</ele><time>2026-04-30T19:26:50.082Z</time></trkpt><trkpt lat="42.6245189" lon="5.842599"><ele>0.0</ele><time>2026-04-30T19:26:51.082Z</time></trkpt><trkpt lat="42.6245638" lon="5.8426996"><ele>0.0</ele><time>2026-04-30T19:26:52.083Z</time></trkpt><trkpt lat="42.6246911" lon="5.8429997"><ele>0.0</ele><time>2026-04-30T19:26:55.082Z</time></trkpt><trkpt lat="42.6247256" lon="5.8431034"><ele>0.0</ele><time>2026-04-30T19:26:56.082Z</time></trkpt><trkpt lat="42.6247505" lon="5.8432096"><ele>0.0</ele><time>2026-04-30T19:26:57.082Z</time></trkpt><trkpt lat="42.6247788" lon="5.8433163"><ele>0.0</ele><time>2026-04-30T19:26:58.083Z</time></trkpt><trkpt lat="42.624814" lon="5.843423"><ele>0.0</ele><time>2026-04-30T19:26:59.082Z</time></trkpt><trkpt lat="42.6248537" lon="5.8435269"><ele>0.0</ele><time>2026-04-30T19:27:00.083Z</time></trkpt><trkpt lat="42.6248966" lon="5.8436261"><ele>0.0</ele><time>2026-04-30T19:27:01.082Z</time></trkpt><trkpt lat="42.6249307" lon="5.843732"><ele>0.0</ele><time>2026-04-30T19:27:02.082Z</time></trkpt><trkpt lat="42.624968" lon="5.843844"><ele>0.0</ele><time>2026-04-30T19:27:03.082Z</time></trkpt><trkpt lat="42.6250011" lon="5.8439484"><ele>0.0</ele><time>2026-04-30T19:27:04.082Z</time></trkpt><trkpt lat="42.6250287" lon="5.8440575"><ele>0.0</ele><time>2026-04-30T19:27:05.082Z</time></trkpt><trkpt lat="42.6250607" lon="5.8441652"><ele>0.0</ele><time>2026-04-30T19:27:06.082Z</time></trkpt><trkpt lat="42.6250931" lon="5.8442643"><ele>0.0</ele><time>2026-04-30T19:27:07.083Z</time></trkpt><trkpt lat="42.625126" lon="5.8443669"><ele>0.0</ele><time>2026-04-30T19:27:08.082Z</time></trkpt><trkpt lat="42.6251526" lon="5.8444688"><ele>0.0</ele><time>2026-04-30T19:27:09.083Z</time></trkpt><trkpt lat="42.6251775" lon="5.8445717"><ele>0.0</ele><time>2026-04-30T19:27:10.082Z</time></trkpt><trkpt lat="42.6252095" lon="5.8446749"><ele>0.0</ele><time>2026-04-30T19:27:11.083Z</time></trkpt><trkpt lat="42.6252452" lon="5.8447826"><ele>0.0</ele><time>2026-04-30T19:27:12.082Z</time></trkpt><trkpt lat="42.62528" lon="5.8448898"><ele>0.0</ele><time>2026-04-30T19:27:13.083Z</time></trkpt><trkpt lat="42.6253082" lon="5.8449909"><ele>0.0</ele><time>2026-04-30T19:27:14.082Z</time></trkpt><trkpt lat="42.6253887" lon="5.8451984"><ele>0.0</ele><time>2026-04-30T19:27:16.082Z</time></trkpt><trkpt lat="42.6254235" lon="5.8453048"><ele>0.0</ele><time>2026-04-30T19:27:17.082Z</time></trkpt><trkpt lat="42.6254624" lon="5.845411"><ele>0.0</ele><time>2026-04-30T19:27:18.083Z</time></trkpt><trkpt lat="42.6255068" lon="5.8455153"><ele>0.0</ele><time>2026-04-30T19:27:19.083Z</time></trkpt><trkpt lat="42.6255536" lon="5.8456184"><ele>0.0</ele><time>2026-04-30T19:27:20.082Z</time></trkpt><trkpt lat="42.625595" lon="5.8457201"><ele>0.0</ele><time>2026-04-30T19:27:21.082Z</time></trkpt><trkpt lat="42.6256293" lon="5.8458203"><ele>0.0</ele><time>2026-04-30T19:27:22.082Z</time></trkpt><trkpt lat="42.6256595" lon="5.8459232"><ele>0.0</ele><time>2026-04-30T19:27:23.083Z</time></trkpt><trkpt lat="42.6256835" lon="5.8460267"><ele>0.0</ele><time>2026-04-30T19:27:24.083Z</time></trkpt><trkpt lat="42.6257413" lon="5.8462409"><ele>0.0</ele><time>2026-04-30T19:27:26.083Z</time></trkpt><trkpt lat="42.6257727" lon="5.8463444"><ele>0.0</ele><time>2026-04-30T19:27:27.082Z</time></trkpt><trkpt lat="42.6258099" lon="5.8464542"><ele>0.0</ele><time>2026-04-30T19:27:28.082Z</time></trkpt><trkpt lat="42.6258599" lon="5.8465624"><ele>0.0</ele><time>2026-04-30T19:27:29.083Z</time></trkpt><trkpt lat="42.6259003" lon="5.8466679"><ele>0.0</ele><time>2026-04-30T19:27:30.083Z</time></trkpt><trkpt lat="42.6259445" lon="5.8467692"><ele>0.0</ele><time>2026-04-30T19:27:31.083Z</time></trkpt><trkpt lat="42.6259775" lon="5.8468704"><ele>0.0</ele><time>2026-04-30T19:27:32.082Z</time></trkpt><trkpt lat="42.626016" lon="5.8469716"><ele>0.0</ele><time>2026-04-30T19:27:33.082Z</time></trkpt><trkpt lat="42.6260537" lon="5.8470763"><ele>0.0</ele><time>2026-04-30T19:27:34.082Z</time></trkpt><trkpt lat="42.6260918" lon="5.8471828"><ele>0.0</ele><time>2026-04-30T19:27:35.083Z</time></trkpt><trkpt lat="42.6261554" lon="5.8473884"><ele>0.0</ele><time>2026-04-30T19:27:37.082Z</time></trkpt><trkpt lat="42.626189" lon="5.8474915"><ele>0.0</ele><time>2026-04-30T19:27:38.083Z</time></trkpt><trkpt lat="42.6262251" lon="5.8475949"><ele>0.0</ele><time>2026-04-30T19:27:39.083Z</time></trkpt><trkpt lat="42.6262571" lon="5.8476998"><ele>0.0</ele><time>2026-04-30T19:27:40.083Z</time></trkpt><trkpt lat="42.6262858" lon="5.8478021"><ele>0.0</ele><time>2026-04-30T19:27:41.082Z</time></trkpt><trkpt lat="42.6263169" lon="5.8479036"><ele>0.0</ele><time>2026-04-30T19:27:42.082Z</time></trkpt><trkpt lat="42.6263523" lon="5.8480038"><ele>0.0</ele><time>2026-04-30T19:27:43.082Z</time></trkpt><trkpt lat="42.626386" lon="5.8481048"><ele>0.0</ele><time>2026-04-30T19:27:44.083Z</time></trkpt><trkpt lat="42.6264152" lon="5.8482052"><ele>0.0</ele><time>2026-04-30T19:27:45.083Z</time></trkpt><trkpt lat="42.6264391" lon="5.8483065"><ele>0.0</ele><time>2026-04-30T19:27:46.082Z</time></trkpt><trkpt lat="42.6264689" lon="5.8484123"><ele>0.0</ele><time>2026-04-30T19:27:47.083Z</time></trkpt><trkpt lat="42.6264993" lon="5.8485154"><ele>0.0</ele><time>2026-04-30T19:27:48.083Z</time></trkpt><trkpt lat="42.6265198" lon="5.848621"><ele>0.0</ele><time>2026-04-30T19:27:49.082Z</time></trkpt><trkpt lat="42.6265616" lon="5.8487249"><ele>0.0</ele><time>2026-04-30T19:27:50.082Z</time></trkpt><trkpt lat="42.6265962" lon="5.8488323"><ele>0.0</ele><time>2026-04-30T19:27:51.083Z</time></trkpt><trkpt lat="42.6266323" lon="5.848942"><ele>0.0</ele><time>2026-04-30T19:27:52.083Z</time></trkpt><trkpt lat="42.626671" lon="5.849052"><ele>0.0</ele><time>2026-04-30T19:27:53.083Z</time></trkpt><trkpt lat="42.6267052" lon="5.8491579"><ele>0.0</ele><time>2026-04-30T19:27:54.082Z</time></trkpt><trkpt lat="42.6267399" lon="5.8492646"><ele>0.0</ele><time>2026-04-30T19:27:55.082Z</time></trkpt><trkpt lat="42.626778" lon="5.8493715"><ele>0.0</ele><time>2026-04-30T19:27:56.082Z</time></trkpt><trkpt lat="42.626824" lon="5.8494679"><ele>0.0</ele><time>2026-04-30T19:27:57.082Z</time></trkpt><trkpt lat="42.6269046" lon="5.8496698"><ele>0.0</ele><time>2026-04-30T19:27:59.082Z</time></trkpt><trkpt lat="42.6269378" lon="5.849772"><ele>0.0</ele><time>2026-04-30T19:28:00.082Z</time></trkpt><trkpt lat="42.6269685" lon="5.8498762"><ele>0.0</ele><time>2026-04-30T19:28:01.082Z</time></trkpt><trkpt lat="42.6269902" lon="5.8499828"><ele>0.0</ele><time>2026-04-30T19:28:02.082Z</time></trkpt><trkpt lat="42.6270185" lon="5.8500924"><ele>0.0</ele><time>2026-04-30T19:28:03.083Z</time></trkpt><trkpt lat="42.6270517" lon="5.8501984"><ele>0.0</ele><time>2026-04-30T19:28:04.082Z</time></trkpt><trkpt lat="42.6270764" lon="5.850309"><ele>0.0</ele><time>2026-04-30T19:28:05.082Z</time></trkpt><trkpt lat="42.627105" lon="5.8504151"><ele>0.0</ele><time>2026-04-30T19:28:06.083Z</time></trkpt><trkpt lat="42.6271208" lon="5.8505307"><ele>0.0</ele><time>2026-04-30T19:28:07.082Z</time></trkpt><trkpt lat="42.62714" lon="5.8506355"><ele>0.0</ele><time>2026-04-30T19:28:08.083Z</time></trkpt><trkpt lat="42.62716" lon="5.8507371"><ele>0.0</ele><time>2026-04-30T19:28:09.083Z</time></trkpt><trkpt lat="42.6271784" lon="5.8508417"><ele>0.0</ele><time>2026-04-30T19:28:10.082Z</time></trkpt><trkpt lat="42.6272031" lon="5.8509467"><ele>0.0</ele><time>2026-04-30T19:28:11.083Z</time></trkpt><trkpt lat="42.6272314" lon="5.8510572"><ele>0.0</ele><time>2026-04-30T19:28:12.082Z</time></trkpt><trkpt lat="42.6272569" lon="5.8511674"><ele>0.0</ele><time>2026-04-30T19:28:13.083Z</time></trkpt><trkpt lat="42.627276" lon="5.8512751"><ele>0.0</ele><time>2026-04-30T19:28:14.083Z</time></trkpt><trkpt lat="42.6273015" lon="5.8513822"><ele>0.0</ele><time>2026-04-30T19:28:15.083Z</time></trkpt><trkpt lat="42.6273321" lon="5.8514869"><ele>0.0</ele><time>2026-04-30T19:28:16.083Z</time></trkpt><trkpt lat="42.6273622" lon="5.8515848"><ele>0.0</ele><time>2026-04-30T19:28:17.082Z</time></trkpt><trkpt lat="42.6273918" lon="5.8516932"><ele>0.0</ele><time>2026-04-30T19:28:18.082Z</time></trkpt><trkpt lat="42.6274555" lon="5.8519114"><ele>0.0</ele><time>2026-04-30T19:28:20.082Z</time></trkpt><trkpt lat="42.6274889" lon="5.8520225"><ele>0.0</ele><time>2026-04-30T19:28:21.082Z</time></trkpt><trkpt lat="42.6275271" lon="5.8521342"><ele>0.0</ele><time>2026-04-30T19:28:22.082Z</time></trkpt><trkpt lat="42.6275628" lon="5.85224"><ele>0.0</ele><time>2026-04-30T19:28:23.083Z</time></trkpt><trkpt lat="42.6276165" lon="5.8523393"><ele>0.0</ele><time>2026-04-30T19:28:24.082Z</time></trkpt><trkpt lat="42.6276699" lon="5.852435"><ele>0.0</ele><time>2026-04-30T19:28:25.083Z</time></trkpt><trkpt lat="42.627711" lon="5.85254"><ele>0.0</ele><time>2026-04-30T19:28:26.083Z</time></trkpt><trkpt lat="42.6277477" lon="5.8526453"><ele>0.0</ele><time>2026-04-30T19:28:27.082Z</time></trkpt><trkpt lat="42.627786" lon="5.8527471"><ele>0.0</ele><time>2026-04-30T19:28:28.083Z</time></trkpt><trkpt lat="42.6278718" lon="5.8529606"><ele>0.0</ele><time>2026-04-30T19:28:30.082Z</time></trkpt><trkpt lat="42.6279331" lon="5.8530521"><ele>0.0</ele><time>2026-04-30T19:28:31.082Z</time></trkpt><trkpt lat="42.627976" lon="5.8531438"><ele>0.0</ele><time>2026-04-30T19:28:32.082Z</time></trkpt><trkpt lat="42.6280037" lon="5.8532468"><ele>0.0</ele><time>2026-04-30T19:28:33.082Z</time></trkpt><trkpt lat="42.6280325" lon="5.8533503"><ele>0.0</ele><time>2026-04-30T19:28:34.082Z</time></trkpt><trkpt lat="42.628065" lon="5.8534548"><ele>0.0</ele><time>2026-04-30T19:28:35.082Z</time></trkpt><trkpt lat="42.6280952" lon="5.8535571"><ele>0.0</ele><time>2026-04-30T19:28:36.082Z</time></trkpt><trkpt lat="42.6281439" lon="5.8536591"><ele>0.0</ele><time>2026-04-30T19:28:37.082Z</time></trkpt><trkpt lat="42.628187" lon="5.8537592"><ele>0.0</ele><time>2026-04-30T19:28:38.083Z</time></trkpt><trkpt lat="42.6282303" lon="5.853859"><ele>0.0</ele><time>2026-04-30T19:28:39.082Z</time></trkpt><trkpt lat="42.6282972" lon="5.8540587"><ele>0.0</ele><time>2026-04-30T19:28:41.082Z</time></trkpt><trkpt lat="42.6283355" lon="5.8541643"><ele>0.0</ele><time>2026-04-30T19:28:42.083Z</time></trkpt><trkpt lat="42.6283702" lon="5.8542713"><ele>0.0</ele><time>2026-04-30T19:28:43.082Z</time></trkpt><trkpt lat="42.6284067" lon="5.8543748"><ele>0.0</ele><time>2026-04-30T19:28:44.082Z</time></trkpt><trkpt lat="42.6284435" lon="5.8544794"><ele>0.0</ele><time>2026-04-30T19:28:45.083Z</time></trkpt><trkpt lat="42.6284803" lon="5.854585"><ele>0.0</ele><time>2026-04-30T19:28:46.082Z</time></trkpt><trkpt lat="42.6285143" lon="5.8546881"><ele>0.0</ele><time>2026-04-30T19:28:47.083Z</time></trkpt><trkpt lat="42.6285521" lon="5.8547887"><ele>0.0</ele><time>2026-04-30T19:28:48.082Z</time></trkpt><trkpt lat="42.6285809" lon="5.8548985"><ele>0.0</ele><time>2026-04-30T19:28:49.082Z</time></trkpt><trkpt lat="42.6286146" lon="5.8550027"><ele>0.0</ele><time>2026-04-30T19:28:50.082Z</time></trkpt><trkpt lat="42.6286522" lon="5.8551094"><ele>0.0</ele><time>2026-04-30T19:28:51.082Z</time></trkpt><trkpt lat="42.6286916" lon="5.8552089"><ele>0.0</ele><time>2026-04-30T19:28:52.082Z</time></trkpt><trkpt lat="42.6287247" lon="5.8553057"><ele>0.0</ele><time>2026-04-30T19:28:53.082Z</time></trkpt><trkpt lat="42.628759" lon="5.855411"><ele>0.0</ele><time>2026-04-30T19:28:54.083Z</time></trkpt><trkpt lat="42.6287915" lon="5.8555117"><ele>0.0</ele><time>2026-04-30T19:28:55.083Z</time></trkpt><trkpt lat="42.6288183" lon="5.8556136"><ele>0.0</ele><time>2026-04-30T19:28:56.082Z</time></trkpt><trkpt lat="42.6288481" lon="5.8557135"><ele>0.0</ele><time>2026-04-30T19:28:57.083Z</time></trkpt><trkpt lat="42.6288809" lon="5.8558177"><ele>0.0</ele><time>2026-04-30T19:28:58.083Z</time></trkpt><trkpt lat="42.6289156" lon="5.8559198"><ele>0.0</ele><time>2026-04-30T19:28:59.082Z</time></trkpt><trkpt lat="42.6289503" lon="5.8560258"><ele>0.0</ele><time>2026-04-30T19:29:00.082Z</time></trkpt><trkpt lat="42.6289799" lon="5.8561445"><ele>0.0</ele><time>2026-04-30T19:29:01.082Z</time></trkpt><trkpt lat="42.6290584" lon="5.8563588"><ele>0.0</ele><time>2026-04-30T19:29:03.082Z</time></trkpt><trkpt lat="42.6290969" lon="5.8564602"><ele>0.0</ele><time>2026-04-30T19:29:04.083Z</time></trkpt><trkpt lat="42.6291419" lon="5.8565606"><ele>0.0</ele><time>2026-04-30T19:29:05.082Z</time></trkpt><trkpt lat="42.6291705" lon="5.8566589"><ele>0.0</ele><time>2026-04-30T19:29:06.083Z</time></trkpt><trkpt lat="42.629202" lon="5.8567645"><ele>0.0</ele><time>2026-04-30T19:29:07.082Z</time></trkpt><trkpt lat="42.6292299" lon="5.8568697"><ele>0.0</ele><time>2026-04-30T19:29:08.083Z</time></trkpt><trkpt lat="42.6292602" lon="5.8569762"><ele>0.0</ele><time>2026-04-30T19:29:09.082Z</time></trkpt><trkpt lat="42.6292833" lon="5.8570897"><ele>0.0</ele><time>2026-04-30T19:29:10.083Z</time></trkpt><trkpt lat="42.6293025" lon="5.8571948"><ele>0.0</ele><time>2026-04-30T19:29:11.083Z</time></trkpt><trkpt lat="42.6293387" lon="5.8573026"><ele>0.0</ele><time>2026-04-30T19:29:12.083Z</time></trkpt><trkpt lat="42.6293845" lon="5.8574079"><ele>0.0</ele><time>2026-04-30T19:29:13.083Z</time></trkpt><trkpt lat="42.6294256" lon="5.8575057"><ele>0.0</ele><time>2026-04-30T19:29:14.083Z</time></trkpt><trkpt lat="42.6294792" lon="5.8576012"><ele>0.0</ele><time>2026-04-30T19:29:15.083Z</time></trkpt><trkpt lat="42.6295232" lon="5.8576963"><ele>0.0</ele><time>2026-04-30T19:29:16.082Z</time></trkpt><trkpt lat="42.6295602" lon="5.8577954"><ele>0.0</ele><time>2026-04-30T19:29:17.082Z</time></trkpt><trkpt lat="42.6295956" lon="5.8578997"><ele>0.0</ele><time>2026-04-30T19:29:18.083Z</time></trkpt><trkpt lat="42.6296321" lon="5.8579961"><ele>0.0</ele><time>2026-04-30T19:29:19.083Z</time></trkpt><trkpt lat="42.6296747" lon="5.8580953"><ele>0.0</ele><time>2026-04-30T19:29:20.082Z</time></trkpt><trkpt lat="42.6297109" lon="5.8581952"><ele>0.0</ele><time>2026-04-30T19:29:21.083Z</time></trkpt><trkpt lat="42.6297909" lon="5.8584119"><ele>0.0</ele><time>2026-04-30T19:29:23.082Z</time></trkpt><trkpt lat="42.6298403" lon="5.8585163"><ele>0.0</ele><time>2026-04-30T19:29:24.082Z</time></trkpt><trkpt lat="42.6298777" lon="5.8586239"><ele>0.0</ele><time>2026-04-30T19:29:25.083Z</time></trkpt><trkpt lat="42.6299189" lon="5.8587282"><ele>0.0</ele><time>2026-04-30T19:29:26.083Z</time></trkpt><trkpt lat="42.6299605" lon="5.8588298"><ele>0.0</ele><time>2026-04-30T19:29:27.082Z</time></trkpt><trkpt lat="42.6299962" lon="5.8589299"><ele>0.0</ele><time>2026-04-30T19:29:28.083Z</time></trkpt><trkpt lat="42.6300324" lon="5.8590359"><ele>0.0</ele><time>2026-04-30T19:29:29.082Z</time></trkpt><trkpt lat="42.6300744" lon="5.8591335"><ele>0.0</ele><time>2026-04-30T19:29:30.083Z</time></trkpt><trkpt lat="42.6301133" lon="5.8592319"><ele>0.0</ele><time>2026-04-30T19:29:31.083Z</time></trkpt><trkpt lat="42.6301569" lon="5.8593316"><ele>0.0</ele><time>2026-04-30T19:29:32.082Z</time></trkpt><trkpt lat="42.630195" lon="5.8594318"><ele>0.0</ele><time>2026-04-30T19:29:33.082Z</time></trkpt><trkpt lat="42.6302321" lon="5.8595348"><ele>0.0</ele><time>2026-04-30T19:29:34.083Z</time></trkpt><trkpt lat="42.630268" lon="5.859634"><ele>0.0</ele><time>2026-04-30T19:29:35.082Z</time></trkpt><trkpt lat="42.6303049" lon="5.8597309"><ele>0.0</ele><time>2026-04-30T19:29:36.082Z</time></trkpt><trkpt lat="42.6303278" lon="5.8598307"><ele>0.0</ele><time>2026-04-30T19:29:37.083Z</time></trkpt><trkpt lat="42.6303597" lon="5.859936"><ele>0.0</ele><time>2026-04-30T19:29:38.083Z</time></trkpt><trkpt lat="42.6303956" lon="5.8600396"><ele>0.0</ele><time>2026-04-30T19:29:39.082Z</time></trkpt><trkpt lat="42.6304279" lon="5.8601529"><ele>0.0</ele><time>2026-04-30T19:29:40.083Z</time></trkpt><trkpt lat="42.6304669" lon="5.860264"><ele>0.0</ele><time>2026-04-30T19:29:41.083Z</time></trkpt><trkpt lat="42.6304999" lon="5.8603713"><ele>0.0</ele><time>2026-04-30T19:29:42.083Z</time></trkpt><trkpt lat="42.6305521" lon="5.8605816"><ele>0.0</ele><time>2026-04-30T19:29:44.082Z</time></trkpt><trkpt lat="42.6305792" lon="5.860692"><ele>0.0</ele><time>2026-04-30T19:29:45.083Z</time></trkpt><trkpt lat="42.6306162" lon="5.8607982"><ele>0.0</ele><time>2026-04-30T19:29:46.083Z</time></trkpt><trkpt lat="42.6306514" lon="5.8609021"><ele>0.0</ele><time>2026-04-30T19:29:47.082Z</time></trkpt><trkpt lat="42.630689" lon="5.8610093"><ele>0.0</ele><time>2026-04-30T19:29:48.083Z</time></trkpt><trkpt lat="42.6307231" lon="5.8611135"><ele>0.0</ele><time>2026-04-30T19:29:49.083Z</time></trkpt><trkpt lat="42.630758" lon="5.8612156"><ele>0.0</ele><time>2026-04-30T19:29:50.083Z</time></trkpt><trkpt lat="42.6307944" lon="5.8613216"><ele>0.0</ele><time>2026-04-30T19:29:51.083Z</time></trkpt><trkpt lat="42.6308354" lon="5.8614308"><ele>0.0</ele><time>2026-04-30T19:29:52.083Z</time></trkpt><trkpt lat="42.6308657" lon="5.8615394"><ele>0.0</ele><time>2026-04-30T19:29:53.083Z</time></trkpt><trkpt lat="42.6308995" lon="5.8616463"><ele>0.0</ele><time>2026-04-30T19:29:54.083Z</time></trkpt><trkpt lat="42.630947" lon="5.86175"><ele>0.0</ele><time>2026-04-30T19:29:55.082Z</time></trkpt><trkpt lat="42.6309812" lon="5.8618607"><ele>0.0</ele><time>2026-04-30T19:29:56.082Z</time></trkpt><trkpt lat="42.6310134" lon="5.8619667"><ele>0.0</ele><time>2026-04-30T19:29:57.083Z</time></trkpt><trkpt lat="42.6310436" lon="5.8620704"><ele>0.0</ele><time>2026-04-30T19:29:58.083Z</time></trkpt><trkpt lat="42.631072" lon="5.8621736"><ele>0.0</ele><time>2026-04-30T19:29:59.082Z</time></trkpt><trkpt lat="42.6311047" lon="5.8622697"><ele>0.0</ele><time>2026-04-30T19:30:00.082Z</time></trkpt><trkpt lat="42.6311354" lon="5.862368"><ele>0.0</ele><time>2026-04-30T19:30:01.082Z</time></trkpt><trkpt lat="42.6311697" lon="5.8624648"><ele>0.0</ele><time>2026-04-30T19:30:02.083Z</time></trkpt><trkpt lat="42.6312004" lon="5.8625687"><ele>0.0</ele><time>2026-04-30T19:30:03.082Z</time></trkpt><trkpt lat="42.6313112" lon="5.8628668"><ele>0.0</ele><time>2026-04-30T19:30:06.082Z</time></trkpt><trkpt lat="42.631348" lon="5.86297"><ele>0.0</ele><time>2026-04-30T19:30:07.082Z</time></trkpt><trkpt lat="42.6313822" lon="5.8630781"><ele>0.0</ele><time>2026-04-30T19:30:08.082Z</time></trkpt><trkpt lat="42.6314127" lon="5.8631792"><ele>0.0</ele><time>2026-04-30T19:30:09.083Z</time></trkpt><trkpt lat="42.6314405" lon="5.8632836"><ele>0.0</ele><time>2026-04-30T19:30:10.082Z</time></trkpt><trkpt lat="42.6314677" lon="5.8633898"><ele>0.0</ele><time>2026-04-30T19:30:11.082Z</time></trkpt><trkpt lat="42.6315029" lon="5.8634949"><ele>0.0</ele><time>2026-04-30T19:30:12.082Z</time></trkpt><trkpt lat="42.6315351" lon="5.8635957"><ele>0.0</ele><time>2026-04-30T19:30:13.082Z</time></trkpt><trkpt lat="42.6315685" lon="5.8636982"><ele>0.0</ele><time>2026-04-30T19:30:14.082Z</time></trkpt><trkpt lat="42.6315932" lon="5.8638033"><ele>0.0</ele><time>2026-04-30T19:30:15.082Z</time></trkpt><trkpt lat="42.6316211" lon="5.8639026"><ele>0.0</ele><time>2026-04-30T19:30:16.083Z</time></trkpt><trkpt lat="42.6316473" lon="5.8640054"><ele>0.0</ele><time>2026-04-30T19:30:17.083Z</time></trkpt><trkpt lat="42.6316737" lon="5.8641132"><ele>0.0</ele><time>2026-04-30T19:30:18.082Z</time></trkpt><trkpt lat="42.6316936" lon="5.8642257"><ele>0.0</ele><time>2026-04-30T19:30:19.082Z</time></trkpt><trkpt lat="42.6317227" lon="5.8643344"><ele>0.0</ele><time>2026-04-30T19:30:20.082Z</time></trkpt><trkpt lat="42.6317551" lon="5.8644413"><ele>0.0</ele><time>2026-04-30T19:30:21.083Z</time></trkpt><trkpt lat="42.6317917" lon="5.8645463"><ele>0.0</ele><time>2026-04-30T19:30:22.082Z</time></trkpt><trkpt lat="42.6318266" lon="5.8646527"><ele>0.0</ele><time>2026-04-30T19:30:23.083Z</time></trkpt><trkpt lat="42.6318633" lon="5.8647566"><ele>0.0</ele><time>2026-04-30T19:30:24.083Z</time></trkpt><trkpt lat="42.6319001" lon="5.8648615"><ele>0.0</ele><time>2026-04-30T19:30:25.082Z</time></trkpt><trkpt lat="42.6319923" lon="5.8650622"><ele>0.0</ele><time>2026-04-30T19:30:27.082Z</time></trkpt><trkpt lat="42.6320451" lon="5.8651641"><ele>0.0</ele><time>2026-04-30T19:30:28.083Z</time></trkpt><trkpt lat="42.6320975" lon="5.8652597"><ele>0.0</ele><time>2026-04-30T19:30:29.083Z</time></trkpt><trkpt lat="42.6321396" lon="5.8653588"><ele>0.0</ele><time>2026-04-30T19:30:30.082Z</time></trkpt><trkpt lat="42.6321775" lon="5.8654576"><ele>0.0</ele><time>2026-04-30T19:30:31.082Z</time></trkpt><trkpt lat="42.6322136" lon="5.8655541"><ele>0.0</ele><time>2026-04-30T19:30:32.082Z</time></trkpt><trkpt lat="42.6322499" lon="5.8656569"><ele>0.0</ele><time>2026-04-30T19:30:33.082Z</time></trkpt><trkpt lat="42.6322901" lon="5.8657597"><ele>0.0</ele><time>2026-04-30T19:30:34.082Z</time></trkpt><trkpt lat="42.6323399" lon="5.8658636"><ele>0.0</ele><time>2026-04-30T19:30:35.083Z</time></trkpt><trkpt lat="42.6323884" lon="5.8659623"><ele>0.0</ele><time>2026-04-30T19:30:36.082Z</time></trkpt><trkpt lat="42.6324249" lon="5.8660703"><ele>0.0</ele><time>2026-04-30T19:30:37.082Z</time></trkpt><trkpt lat="42.6324689" lon="5.8661754"><ele>0.0</ele><time>2026-04-30T19:30:38.082Z</time></trkpt><trkpt lat="42.6325167" lon="5.8662769"><ele>0.0</ele><time>2026-04-30T19:30:39.083Z</time></trkpt><trkpt lat="42.6325564" lon="5.8663818"><ele>0.0</ele><time>2026-04-30T19:30:40.082Z</time></trkpt><trkpt lat="42.6325934" lon="5.8664881"><ele>0.0</ele><time>2026-04-30T19:30:41.082Z</time></trkpt><trkpt lat="42.6326285" lon="5.8665863"><ele>0.0</ele><time>2026-04-30T19:30:42.082Z</time></trkpt><trkpt lat="42.6326577" lon="5.8666831"><ele>0.0</ele><time>2026-04-30T19:30:43.082Z</time></trkpt><trkpt lat="42.6326833" lon="5.8667855"><ele>0.0</ele><time>2026-04-30T19:30:44.082Z</time></trkpt><trkpt lat="42.6326952" lon="5.8668914"><ele>0.0</ele><time>2026-04-30T19:30:45.083Z</time></trkpt><trkpt lat="42.6327172" lon="5.866992"><ele>0.0</ele><time>2026-04-30T19:30:46.083Z</time></trkpt><trkpt lat="42.6327539" lon="5.8672041"><ele>0.0</ele><time>2026-04-30T19:30:48.082Z</time></trkpt><trkpt lat="42.6327779" lon="5.8673097"><ele>0.0</ele><time>2026-04-30T19:30:49.083Z</time></trkpt><trkpt lat="42.6328097" lon="5.8674115"><ele>0.0</ele><time>2026-04-30T19:30:50.082Z</time></trkpt><trkpt lat="42.6328497" lon="5.8675164"><ele>0.0</ele><time>2026-04-30T19:30:51.082Z</time></trkpt><trkpt lat="42.6328928" lon="5.8676228"><ele>0.0</ele><time>2026-04-30T19:30:52.082Z</time></trkpt><trkpt lat="42.6329249" lon="5.8677292"><ele>0.0</ele><time>2026-04-30T19:30:53.083Z</time></trkpt><trkpt lat="42.6329504" lon="5.8678361"><ele>0.0</ele><time>2026-04-30T19:30:54.082Z</time></trkpt><trkpt lat="42.6329772" lon="5.8679472"><ele>0.0</ele><time>2026-04-30T19:30:55.083Z</time></trkpt><trkpt lat="42.6330012" lon="5.8680529"><ele>0.0</ele><time>2026-04-30T19:30:56.083Z</time></trkpt><trkpt lat="42.6330315" lon="5.8681621"><ele>0.0</ele><time>2026-04-30T19:30:57.083Z</time></trkpt><trkpt lat="42.6330651" lon="5.8682709"><ele>0.0</ele><time>2026-04-30T19:30:58.082Z</time></trkpt><trkpt lat="42.6330966" lon="5.868375"><ele>0.0</ele><time>2026-04-30T19:30:59.082Z</time></trkpt><trkpt lat="42.6331333" lon="5.8684801"><ele>0.0</ele><time>2026-04-30T19:31:00.082Z</time></trkpt><trkpt lat="42.6331765" lon="5.8685822"><ele>0.0</ele><time>2026-04-30T19:31:01.083Z</time></trkpt><trkpt lat="42.633211" lon="5.8686749"><ele>0.0</ele><time>2026-04-30T19:31:02.082Z</time></trkpt><trkpt lat="42.6332426" lon="5.8687726"><ele>0.0</ele><time>2026-04-30T19:31:03.083Z</time></trkpt><trkpt lat="42.6332746" lon="5.8688782"><ele>0.0</ele><time>2026-04-30T19:31:04.083Z</time></trkpt><trkpt lat="42.6333237" lon="5.8689837"><ele>0.0</ele><time>2026-04-30T19:31:05.083Z</time></trkpt><trkpt lat="42.6333642" lon="5.8690884"><ele>0.0</ele><time>2026-04-30T19:31:06.083Z</time></trkpt><trkpt lat="42.6334071" lon="5.8691963"><ele>0.0</ele><time>2026-04-30T19:31:07.082Z</time></trkpt><trkpt lat="42.6335237" lon="5.8695179"><ele>0.0</ele><time>2026-04-30T19:31:10.082Z</time></trkpt><trkpt lat="42.6335667" lon="5.8696186"><ele>0.0</ele><time>2026-04-30T19:31:11.082Z</time></trkpt><trkpt lat="42.6335954" lon="5.8697217"><ele>0.0</ele><time>2026-04-30T19:31:12.083Z</time></trkpt><trkpt lat="42.63362" lon="5.8698265"><ele>0.0</ele><time>2026-04-30T19:31:13.082Z</time></trkpt><trkpt lat="42.6336556" lon="5.8699387"><ele>0.0</ele><time>2026-04-30T19:31:14.083Z</time></trkpt><trkpt lat="42.6336936" lon="5.8700507"><ele>0.0</ele><time>2026-04-30T19:31:15.082Z</time></trkpt><trkpt lat="42.6337234" lon="5.8701475"><ele>0.0</ele><time>2026-04-30T19:31:16.083Z</time></trkpt><trkpt lat="42.6337549" lon="5.8702497"><ele>0.0</ele><time>2026-04-30T19:31:17.082Z</time></trkpt><trkpt lat="42.633782" lon="5.8703503"><ele>0.0</ele><time>2026-04-30T19:31:18.081Z</time></trkpt><trkpt lat="42.6338114" lon="5.8704534"><ele>0.0</ele><time>2026-04-30T19:31:19.081Z</time></trkpt><trkpt lat="42.6338384" lon="5.8705595"><ele>0.0</ele><time>2026-04-30T19:31:20.081Z</time></trkpt><trkpt lat="42.6338787" lon="5.8706649"><ele>0.0</ele><time>2026-04-30T19:31:21.082Z</time></trkpt><trkpt lat="42.6339125" lon="5.8707744"><ele>0.0</ele><time>2026-04-30T19:31:22.081Z</time></trkpt><trkpt lat="42.6339444" lon="5.8708814"><ele>0.0</ele><time>2026-04-30T19:31:23.082Z</time></trkpt><trkpt lat="42.6339836" lon="5.8709895"><ele>0.0</ele><time>2026-04-30T19:31:24.081Z</time></trkpt><trkpt lat="42.6340215" lon="5.8710975"><ele>0.0</ele><time>2026-04-30T19:31:25.081Z</time></trkpt><trkpt lat="42.6340649" lon="5.871202"><ele>0.0</ele><time>2026-04-30T19:31:26.081Z</time></trkpt><trkpt lat="42.6341047" lon="5.8713112"><ele>0.0</ele><time>2026-04-30T19:31:27.082Z</time></trkpt><trkpt lat="42.6341412" lon="5.8714154"><ele>0.0</ele><time>2026-04-30T19:31:28.081Z</time></trkpt><trkpt lat="42.6342314" lon="5.8716124"><ele>0.0</ele><time>2026-04-30T19:31:30.082Z</time></trkpt><trkpt lat="42.6342679" lon="5.8717111"><ele>0.0</ele><time>2026-04-30T19:31:31.081Z</time></trkpt><trkpt lat="42.6343015" lon="5.8718163"><ele>0.0</ele><time>2026-04-30T19:31:32.082Z</time></trkpt><trkpt lat="42.6343351" lon="5.8719215"><ele>0.0</ele><time>2026-04-30T19:31:33.081Z</time></trkpt><trkpt lat="42.6343668" lon="5.8720234"><ele>0.0</ele><time>2026-04-30T19:31:34.081Z</time></trkpt><trkpt lat="42.6343946" lon="5.8721293"><ele>0.0</ele><time>2026-04-30T19:31:35.081Z</time></trkpt><trkpt lat="42.6344327" lon="5.8722316"><ele>0.0</ele><time>2026-04-30T19:31:36.081Z</time></trkpt><trkpt lat="42.63447" lon="5.8723416"><ele>0.0</ele><time>2026-04-30T19:31:37.081Z</time></trkpt><trkpt lat="42.6345053" lon="5.8724498"><ele>0.0</ele><time>2026-04-30T19:31:38.081Z</time></trkpt><trkpt lat="42.6345352" lon="5.8725619"><ele>0.0</ele><time>2026-04-30T19:31:39.081Z</time></trkpt><trkpt lat="42.6345693" lon="5.8726654"><ele>0.0</ele><time>2026-04-30T19:31:40.082Z</time></trkpt><trkpt lat="42.6345943" lon="5.8727857"><ele>0.0</ele><time>2026-04-30T19:31:41.082Z</time></trkpt><trkpt lat="42.6346261" lon="5.8728907"><ele>0.0</ele><time>2026-04-30T19:31:42.081Z</time></trkpt><trkpt lat="42.6346685" lon="5.872994"><ele>0.0</ele><time>2026-04-30T19:31:43.081Z</time></trkpt><trkpt lat="42.6347061" lon="5.8730954"><ele>0.0</ele><time>2026-04-30T19:31:44.081Z</time></trkpt><trkpt lat="42.6347449" lon="5.8732016"><ele>0.0</ele><time>2026-04-30T19:31:45.082Z</time></trkpt><trkpt lat="42.6347805" lon="5.8733064"><ele>0.0</ele><time>2026-04-30T19:31:46.081Z</time></trkpt><trkpt lat="42.6348085" lon="5.8734086"><ele>0.0</ele><time>2026-04-30T19:31:47.081Z</time></trkpt><trkpt lat="42.6348472" lon="5.8735075"><ele>0.0</ele><time>2026-04-30T19:31:48.081Z</time></trkpt><trkpt lat="42.6348826" lon="5.8736074"><ele>0.0</ele><time>2026-04-30T19:31:49.081Z</time></trkpt><trkpt lat="42.6349485" lon="5.8738199"><ele>0.0</ele><time>2026-04-30T19:31:51.081Z</time></trkpt><trkpt lat="42.6349819" lon="5.8739264"><ele>0.0</ele><time>2026-04-30T19:31:52.081Z</time></trkpt><trkpt lat="42.6350214" lon="5.8740282"><ele>0.0</ele><time>2026-04-30T19:31:53.082Z</time></trkpt><trkpt lat="42.6350612" lon="5.8741287"><ele>0.0</ele><time>2026-04-30T19:31:54.082Z</time></trkpt><trkpt lat="42.6350916" lon="5.8742272"><ele>0.0</ele><time>2026-04-30T19:31:55.082Z</time></trkpt><trkpt lat="42.6351267" lon="5.874334"><ele>0.0</ele><time>2026-04-30T19:31:56.081Z</time></trkpt><trkpt lat="42.6351619" lon="5.8744398"><ele>0.0</ele><time>2026-04-30T19:31:57.082Z</time></trkpt><trkpt lat="42.6351983" lon="5.874548"><ele>0.0</ele><time>2026-04-30T19:31:58.081Z</time></trkpt><trkpt lat="42.6352368" lon="5.8746504"><ele>0.0</ele><time>2026-04-30T19:31:59.082Z</time></trkpt><trkpt lat="42.6352679" lon="5.8747523"><ele>0.0</ele><time>2026-04-30T19:32:00.081Z</time></trkpt><trkpt lat="42.6352992" lon="5.8748553"><ele>0.0</ele><time>2026-04-30T19:32:01.082Z</time></trkpt><trkpt lat="42.6353319" lon="5.8749536"><ele>0.0</ele><time>2026-04-30T19:32:02.081Z</time></trkpt><trkpt lat="42.6353649" lon="5.8750566"><ele>0.0</ele><time>2026-04-30T19:32:03.081Z</time></trkpt><trkpt lat="42.6354001" lon="5.8751553"><ele>0.0</ele><time>2026-04-30T19:32:04.081Z</time></trkpt><trkpt lat="42.6354425" lon="5.8752568"><ele>0.0</ele><time>2026-04-30T19:32:05.081Z</time></trkpt><trkpt lat="42.6354828" lon="5.8753615"><ele>0.0</ele><time>2026-04-30T19:32:06.081Z</time></trkpt><trkpt lat="42.6355248" lon="5.8754765"><ele>0.0</ele><time>2026-04-30T19:32:07.081Z</time></trkpt><trkpt lat="42.6355644" lon="5.8755903"><ele>0.0</ele><time>2026-04-30T19:32:08.081Z</time></trkpt><trkpt lat="42.635613" lon="5.8757007"><ele>0.0</ele><time>2026-04-30T19:32:09.082Z</time></trkpt><trkpt lat="42.6356476" lon="5.8757978"><ele>0.0</ele><time>2026-04-30T19:32:10.082Z</time></trkpt><trkpt lat="42.6356621" lon="5.8759102"><ele>0.0</ele><time>2026-04-30T19:32:11.082Z</time></trkpt><trkpt lat="42.635768" lon="5.8762136"><ele>0.0</ele><time>2026-04-30T19:32:14.082Z</time></trkpt><trkpt lat="42.6357928" lon="5.8763182"><ele>0.0</ele><time>2026-04-30T19:32:15.081Z</time></trkpt><trkpt lat="42.6358128" lon="5.8764246"><ele>0.0</ele><time>2026-04-30T19:32:16.081Z</time></trkpt><trkpt lat="42.6358375" lon="5.8765301"><ele>0.0</ele><time>2026-04-30T19:32:17.082Z</time></trkpt><trkpt lat="42.6358624" lon="5.8766347"><ele>0.0</ele><time>2026-04-30T19:32:18.081Z</time></trkpt><trkpt lat="42.6358998" lon="5.87674"><ele>0.0</ele><time>2026-04-30T19:32:19.081Z</time></trkpt><trkpt lat="42.635933" lon="5.8768494"><ele>0.0</ele><time>2026-04-30T19:32:20.082Z</time></trkpt><trkpt lat="42.6359712" lon="5.876968"><ele>0.0</ele><time>2026-04-30T19:32:21.081Z</time></trkpt><trkpt lat="42.6360086" lon="5.8770779"><ele>0.0</ele><time>2026-04-30T19:32:22.081Z</time></trkpt><trkpt lat="42.6360477" lon="5.8771759"><ele>0.0</ele><time>2026-04-30T19:32:23.082Z</time></trkpt><trkpt lat="42.6360816" lon="5.8772786"><ele>0.0</ele><time>2026-04-30T19:32:24.082Z</time></trkpt><trkpt lat="42.6361383" lon="5.8773792"><ele>0.0</ele><time>2026-04-30T19:32:25.082Z</time></trkpt><trkpt lat="42.6361862" lon="5.8774821"><ele>0.0</ele><time>2026-04-30T19:32:26.081Z</time></trkpt><trkpt lat="42.6362291" lon="5.8775853"><ele>0.0</ele><time>2026-04-30T19:32:27.081Z</time></trkpt><trkpt lat="42.6362712" lon="5.8776839"><ele>0.0</ele><time>2026-04-30T19:32:28.081Z</time></trkpt><trkpt lat="42.6363041" lon="5.8777834"><ele>0.0</ele><time>2026-04-30T19:32:29.082Z</time></trkpt><trkpt lat="42.636331" lon="5.8778852"><ele>0.0</ele><time>2026-04-30T19:32:30.081Z</time></trkpt><trkpt lat="42.6363633" lon="5.8779912"><ele>0.0</ele><time>2026-04-30T19:32:31.082Z</time></trkpt><trkpt lat="42.6363999" lon="5.8780945"><ele>0.0</ele><time>2026-04-30T19:32:32.081Z</time></trkpt><trkpt lat="42.6364785" lon="5.8783009"><ele>0.0</ele><time>2026-04-30T19:32:34.081Z</time></trkpt><trkpt lat="42.6365225" lon="5.8784066"><ele>0.0</ele><time>2026-04-30T19:32:35.082Z</time></trkpt><trkpt lat="42.6365648" lon="5.8785113"><ele>0.0</ele><time>2026-04-30T19:32:36.081Z</time></trkpt><trkpt lat="42.6366022" lon="5.878612"><ele>0.0</ele><time>2026-04-30T19:32:37.081Z</time></trkpt><trkpt lat="42.6366385" lon="5.8787145"><ele>0.0</ele><time>2026-04-30T19:32:38.081Z</time></trkpt><trkpt lat="42.6366796" lon="5.8788224"><ele>0.0</ele><time>2026-04-30T19:32:39.082Z</time></trkpt><trkpt lat="42.6367064" lon="5.8789294"><ele>0.0</ele><time>2026-04-30T19:32:40.081Z</time></trkpt><trkpt lat="42.6367425" lon="5.8790348"><ele>0.0</ele><time>2026-04-30T19:32:41.081Z</time></trkpt><trkpt lat="42.6367747" lon="5.8791409"><ele>0.0</ele><time>2026-04-30T19:32:42.081Z</time></trkpt><trkpt lat="42.636849" lon="5.8793506"><ele>0.0</ele><time>2026-04-30T19:32:44.082Z</time></trkpt><trkpt lat="42.636887" lon="5.8794518"><ele>0.0</ele><time>2026-04-30T19:32:45.081Z</time></trkpt><trkpt lat="42.6369233" lon="5.8795561"><ele>0.0</ele><time>2026-04-30T19:32:46.082Z</time></trkpt><trkpt lat="42.6369575" lon="5.8796669"><ele>0.0</ele><time>2026-04-30T19:32:47.082Z</time></trkpt><trkpt lat="42.636987" lon="5.8797744"><ele>0.0</ele><time>2026-04-30T19:32:48.082Z</time></trkpt><trkpt lat="42.6370183" lon="5.8798753"><ele>0.0</ele><time>2026-04-30T19:32:49.082Z</time></trkpt><trkpt lat="42.6370384" lon="5.8799778"><ele>0.0</ele><time>2026-04-30T19:32:50.081Z</time></trkpt><trkpt lat="42.6370578" lon="5.8800814"><ele>0.0</ele><time>2026-04-30T19:32:51.081Z</time></trkpt><trkpt lat="42.6370797" lon="5.8801823"><ele>0.0</ele><time>2026-04-30T19:32:52.081Z</time></trkpt><trkpt lat="42.6370958" lon="5.8802848"><ele>0.0</ele><time>2026-04-30T19:32:53.081Z</time></trkpt><trkpt lat="42.6371686" lon="5.8804934"><ele>0.0</ele><time>2026-04-30T19:32:55.082Z</time></trkpt><trkpt lat="42.6372108" lon="5.8805975"><ele>0.0</ele><time>2026-04-30T19:32:56.081Z</time></trkpt><trkpt lat="42.6372417" lon="5.8807011"><ele>0.0</ele><time>2026-04-30T19:32:57.081Z</time></trkpt><trkpt lat="42.6372754" lon="5.8808064"><ele>0.0</ele><time>2026-04-30T19:32:58.081Z</time></trkpt><trkpt lat="42.6373089" lon="5.8809098"><ele>0.0</ele><time>2026-04-30T19:32:59.082Z</time></trkpt><trkpt lat="42.6373365" lon="5.8810036"><ele>0.0</ele><time>2026-04-30T19:33:00.081Z</time></trkpt><trkpt lat="42.6373655" lon="5.8811052"><ele>0.0</ele><time>2026-04-30T19:33:01.082Z</time></trkpt><trkpt lat="42.6373993" lon="5.8812165"><ele>0.0</ele><time>2026-04-30T19:33:02.082Z</time></trkpt><trkpt lat="42.6374375" lon="5.8813241"><ele>0.0</ele><time>2026-04-30T19:33:03.081Z</time></trkpt><trkpt lat="42.637468" lon="5.8814314"><ele>0.0</ele><time>2026-04-30T19:33:04.081Z</time></trkpt><trkpt lat="42.6374974" lon="5.8815339"><ele>0.0</ele><time>2026-04-30T19:33:05.081Z</time></trkpt><trkpt lat="42.6375121" lon="5.8816413"><ele>0.0</ele><time>2026-04-30T19:33:06.081Z</time></trkpt><trkpt lat="42.6375403" lon="5.8817423"><ele>0.0</ele><time>2026-04-30T19:33:07.082Z</time></trkpt><trkpt lat="42.637565" lon="5.8818406"><ele>0.0</ele><time>2026-04-30T19:33:08.082Z</time></trkpt><trkpt lat="42.6375965" lon="5.8819432"><ele>0.0</ele><time>2026-04-30T19:33:09.081Z</time></trkpt><trkpt lat="42.6376314" lon="5.8820458"><ele>0.0</ele><time>2026-04-30T19:33:10.082Z</time></trkpt><trkpt lat="42.6376659" lon="5.882153"><ele>0.0</ele><time>2026-04-30T19:33:11.082Z</time></trkpt><trkpt lat="42.6377035" lon="5.8822552"><ele>0.0</ele><time>2026-04-30T19:33:12.082Z</time></trkpt><trkpt lat="42.6377434" lon="5.8823598"><ele>0.0</ele><time>2026-04-30T19:33:13.081Z</time></trkpt><trkpt lat="42.6377795" lon="5.8824673"><ele>0.0</ele><time>2026-04-30T19:33:14.082Z</time></trkpt><trkpt lat="42.6378181" lon="5.8825746"><ele>0.0</ele><time>2026-04-30T19:33:15.081Z</time></trkpt><trkpt lat="42.637936" lon="5.8828981"><ele>0.0</ele><time>2026-04-30T19:33:18.081Z</time></trkpt><trkpt lat="42.6379806" lon="5.8830003"><ele>0.0</ele><time>2026-04-30T19:33:19.081Z</time></trkpt><trkpt lat="42.6380238" lon="5.8830995"><ele>0.0</ele><time>2026-04-30T19:33:20.081Z</time></trkpt><trkpt lat="42.6380624" lon="5.8832004"><ele>0.0</ele><time>2026-04-30T19:33:21.081Z</time></trkpt><trkpt lat="42.6380996" lon="5.8833033"><ele>0.0</ele><time>2026-04-30T19:33:22.082Z</time></trkpt><trkpt lat="42.6381289" lon="5.8834012"><ele>0.0</ele><time>2026-04-30T19:33:23.082Z</time></trkpt><trkpt lat="42.6381677" lon="5.8835007"><ele>0.0</ele><time>2026-04-30T19:33:24.081Z</time></trkpt><trkpt lat="42.6382117" lon="5.8835991"><ele>0.0</ele><time>2026-04-30T19:33:25.081Z</time></trkpt><trkpt lat="42.6382554" lon="5.8837003"><ele>0.0</ele><time>2026-04-30T19:33:26.082Z</time></trkpt><trkpt lat="42.638299" lon="5.8838088"><ele>0.0</ele><time>2026-04-30T19:33:27.082Z</time></trkpt><trkpt lat="42.6383439" lon="5.8839217"><ele>0.0</ele><time>2026-04-30T19:33:28.081Z</time></trkpt><trkpt lat="42.6383746" lon="5.8840296"><ele>0.0</ele><time>2026-04-30T19:33:29.081Z</time></trkpt><trkpt lat="42.6384192" lon="5.8841318"><ele>0.0</ele><time>2026-04-30T19:33:30.081Z</time></trkpt><trkpt lat="42.6384545" lon="5.8842391"><ele>0.0</ele><time>2026-04-30T19:33:31.082Z</time></trkpt><trkpt lat="42.6384881" lon="5.8843387"><ele>0.0</ele><time>2026-04-30T19:33:32.082Z</time></trkpt><trkpt lat="42.6385283" lon="5.8844327"><ele>0.0</ele><time>2026-04-30T19:33:33.081Z</time></trkpt><trkpt lat="42.6385683" lon="5.8845336"><ele>0.0</ele><time>2026-04-30T19:33:34.082Z</time></trkpt><trkpt lat="42.6386021" lon="5.8846334"><ele>0.0</ele><time>2026-04-30T19:33:35.081Z</time></trkpt><trkpt lat="42.6386482" lon="5.884732"><ele>0.0</ele><time>2026-04-30T19:33:36.082Z</time></trkpt><trkpt lat="42.6386849" lon="5.884829"><ele>0.0</ele><time>2026-04-30T19:33:37.082Z</time></trkpt><trkpt lat="42.6387478" lon="5.8850332"><ele>0.0</ele><time>2026-04-30T19:33:39.082Z</time></trkpt><trkpt lat="42.6387678" lon="5.8851352"><ele>0.0</ele><time>2026-04-30T19:33:40.081Z</time></trkpt><trkpt lat="42.638812" lon="5.8852326"><ele>0.0</ele><time>2026-04-30T19:33:41.082Z</time></trkpt><trkpt lat="42.6388648" lon="5.8853325"><ele>0.0</ele><time>2026-04-30T19:33:42.081Z</time></trkpt><trkpt lat="42.6389195" lon="5.8854295"><ele>0.0</ele><time>2026-04-30T19:33:43.081Z</time></trkpt><trkpt lat="42.6389576" lon="5.8855274"><ele>0.0</ele><time>2026-04-30T19:33:44.081Z</time></trkpt><trkpt lat="42.6390023" lon="5.8856287"><ele>0.0</ele><time>2026-04-30T19:33:45.081Z</time></trkpt><trkpt lat="42.6390563" lon="5.8857302"><ele>0.0</ele><time>2026-04-30T19:33:46.082Z</time></trkpt><trkpt lat="42.6390884" lon="5.8858337"><ele>0.0</ele><time>2026-04-30T19:33:47.081Z</time></trkpt><trkpt lat="42.6391645" lon="5.8860421"><ele>0.0</ele><time>2026-04-30T19:33:49.082Z</time></trkpt><trkpt lat="42.6391951" lon="5.8861438"><ele>0.0</ele><time>2026-04-30T19:33:50.081Z</time></trkpt><trkpt lat="42.6392278" lon="5.8862537"><ele>0.0</ele><time>2026-04-30T19:33:51.082Z</time></trkpt><trkpt lat="42.6392753" lon="5.8863566"><ele>0.0</ele><time>2026-04-30T19:33:52.082Z</time></trkpt><trkpt lat="42.6393066" lon="5.8864542"><ele>0.0</ele><time>2026-04-30T19:33:53.081Z</time></trkpt><trkpt lat="42.6393375" lon="5.8865553"><ele>0.0</ele><time>2026-04-30T19:33:54.082Z</time></trkpt><trkpt lat="42.639373" lon="5.8866584"><ele>0.0</ele><time>2026-04-30T19:33:55.081Z</time></trkpt><trkpt lat="42.6394134" lon="5.8867648"><ele>0.0</ele><time>2026-04-30T19:33:56.081Z</time></trkpt><trkpt lat="42.6394481" lon="5.8868687"><ele>0.0</ele><time>2026-04-30T19:33:57.082Z</time></trkpt><trkpt lat="42.6394819" lon="5.8869688"><ele>0.0</ele><time>2026-04-30T19:33:58.082Z</time></trkpt><trkpt lat="42.6395471" lon="5.8871588"><ele>0.0</ele><time>2026-04-30T19:34:00.081Z</time></trkpt><trkpt lat="42.6395593" lon="5.8872669"><ele>0.0</ele><time>2026-04-30T19:34:01.081Z</time></trkpt><trkpt lat="42.6395815" lon="5.8873783"><ele>0.0</ele><time>2026-04-30T19:34:02.081Z</time></trkpt><trkpt lat="42.6396018" lon="5.8874886"><ele>0.0</ele><time>2026-04-30T19:34:03.081Z</time></trkpt><trkpt lat="42.6396399" lon="5.887596"><ele>0.0</ele><time>2026-04-30T19:34:04.081Z</time></trkpt><trkpt lat="42.6396761" lon="5.8877067"><ele>0.0</ele><time>2026-04-30T19:34:05.082Z</time></trkpt><trkpt lat="42.6397088" lon="5.8878143"><ele>0.0</ele><time>2026-04-30T19:34:06.081Z</time></trkpt><trkpt lat="42.6397435" lon="5.8879227"><ele>0.0</ele><time>2026-04-30T19:34:07.082Z</time></trkpt><trkpt lat="42.6397782" lon="5.888031"><ele>0.0</ele><time>2026-04-30T19:34:08.082Z</time></trkpt><trkpt lat="42.6398087" lon="5.8881336"><ele>0.0</ele><time>2026-04-30T19:34:09.081Z</time></trkpt><trkpt lat="42.6398371" lon="5.8882365"><ele>0.0</ele><time>2026-04-30T19:34:10.081Z</time></trkpt><trkpt lat="42.6398726" lon="5.8883441"><ele>0.0</ele><time>2026-04-30T19:34:11.082Z</time></trkpt><trkpt lat="42.6399092" lon="5.8884509"><ele>0.0</ele><time>2026-04-30T19:34:12.082Z</time></trkpt><trkpt lat="42.6399289" lon="5.8885647"><ele>0.0</ele><time>2026-04-30T19:34:13.081Z</time></trkpt><trkpt lat="42.6399402" lon="5.8886768"><ele>0.0</ele><time>2026-04-30T19:34:14.081Z</time></trkpt><trkpt lat="42.6399688" lon="5.8887845"><ele>0.0</ele><time>2026-04-30T19:34:15.081Z</time></trkpt><trkpt lat="42.6399858" lon="5.8888924"><ele>0.0</ele><time>2026-04-30T19:34:16.082Z</time></trkpt><trkpt lat="42.6400093" lon="5.8889952"><ele>0.0</ele><time>2026-04-30T19:34:17.081Z</time></trkpt><trkpt lat="42.6400351" lon="5.8891026"><ele>0.0</ele><time>2026-04-30T19:34:18.082Z</time></trkpt><trkpt lat="42.6400709" lon="5.8892105"><ele>0.0</ele><time>2026-04-30T19:34:19.081Z</time></trkpt><trkpt lat="42.6401659" lon="5.8895221"><ele>0.0</ele><time>2026-04-30T19:34:22.081Z</time></trkpt><trkpt lat="42.6401974" lon="5.8896278"><ele>0.0</ele><time>2026-04-30T19:34:23.082Z</time></trkpt><trkpt lat="42.6402272" lon="5.8897332"><ele>0.0</ele><time>2026-04-30T19:34:24.082Z</time></trkpt><trkpt lat="42.6402602" lon="5.8898396"><ele>0.0</ele><time>2026-04-30T19:34:25.081Z</time></trkpt><trkpt lat="42.6402877" lon="5.8899387"><ele>0.0</ele><time>2026-04-30T19:34:26.081Z</time></trkpt><trkpt lat="42.6403135" lon="5.8900464"><ele>0.0</ele><time>2026-04-30T19:34:27.082Z</time></trkpt><trkpt lat="42.6403615" lon="5.890146"><ele>0.0</ele><time>2026-04-30T19:34:28.082Z</time></trkpt><trkpt lat="42.6404206" lon="5.8902425"><ele>0.0</ele><time>2026-04-30T19:34:29.082Z</time></trkpt><trkpt lat="42.6404772" lon="5.8903462"><ele>0.0</ele><time>2026-04-30T19:34:30.081Z</time></trkpt><trkpt lat="42.6405183" lon="5.8904496"><ele>0.0</ele><time>2026-04-30T19:34:31.082Z</time></trkpt><trkpt lat="42.6405656" lon="5.8905501"><ele>0.0</ele><time>2026-04-30T19:34:32.082Z</time></trkpt><trkpt lat="42.6406067" lon="5.8906544"><ele>0.0</ele><time>2026-04-30T19:34:33.081Z</time></trkpt><trkpt lat="42.6406465" lon="5.8907582"><ele>0.0</ele><time>2026-04-30T19:34:34.082Z</time></trkpt><trkpt lat="42.6406725" lon="5.8908628"><ele>0.0</ele><time>2026-04-30T19:34:35.082Z</time></trkpt><trkpt lat="42.6407085" lon="5.8909666"><ele>0.0</ele><time>2026-04-30T19:34:36.082Z</time></trkpt><trkpt lat="42.6407428" lon="5.8910652"><ele>0.0</ele><time>2026-04-30T19:34:37.082Z</time></trkpt><trkpt lat="42.6407885" lon="5.8911623"><ele>0.0</ele><time>2026-04-30T19:34:38.082Z</time></trkpt><trkpt lat="42.6408224" lon="5.8912676"><ele>0.0</ele><time>2026-04-30T19:34:39.082Z</time></trkpt><trkpt lat="42.6408545" lon="5.891371"><ele>0.0</ele><time>2026-04-30T19:34:40.081Z</time></trkpt><trkpt lat="42.6408922" lon="5.8914742"><ele>0.0</ele><time>2026-04-30T19:34:41.081Z</time></trkpt><trkpt lat="42.6409726" lon="5.8916761"><ele>0.0</ele><time>2026-04-30T19:34:43.081Z</time></trkpt><trkpt lat="42.6410174" lon="5.8917782"><ele>0.0</ele><time>2026-04-30T19:34:44.082Z</time></trkpt><trkpt lat="42.6410601" lon="5.8918766"><ele>0.0</ele><time>2026-04-30T19:34:45.081Z</time></trkpt><trkpt lat="42.6411019" lon="5.8919763"><ele>0.0</ele><time>2026-04-30T19:34:46.082Z</time></trkpt><trkpt lat="42.6411403" lon="5.8920739"><ele>0.0</ele><time>2026-04-30T19:34:47.081Z</time></trkpt><trkpt lat="42.6411745" lon="5.8921679"><ele>0.0</ele><time>2026-04-30T19:34:48.081Z</time></trkpt><trkpt lat="42.6412046" lon="5.8922625"><ele>0.0</ele><time>2026-04-30T19:34:49.082Z</time></trkpt><trkpt lat="42.6412361" lon="5.8923648"><ele>0.0</ele><time>2026-04-30T19:34:50.081Z</time></trkpt><trkpt lat="42.6412703" lon="5.8924698"><ele>0.0</ele><time>2026-04-30T19:34:51.082Z</time></trkpt><trkpt lat="42.641335" lon="5.8926705"><ele>0.0</ele><time>2026-04-30T19:34:53.081Z</time></trkpt><trkpt lat="42.6413391" lon="5.8927857"><ele>0.0</ele><time>2026-04-30T19:34:54.081Z</time></trkpt><trkpt lat="42.6413508" lon="5.8929036"><ele>0.0</ele><time>2026-04-30T19:34:55.082Z</time></trkpt><trkpt lat="42.6413746" lon="5.8930167"><ele>0.0</ele><time>2026-04-30T19:34:56.082Z</time></trkpt><trkpt lat="42.6414011" lon="5.8931252"><ele>0.0</ele><time>2026-04-30T19:34:57.081Z</time></trkpt><trkpt lat="42.6414303" lon="5.8932354"><ele>0.0</ele><time>2026-04-30T19:34:58.081Z</time></trkpt><trkpt lat="42.6414629" lon="5.8933412"><ele>0.0</ele><time>2026-04-30T19:34:59.082Z</time></trkpt><trkpt lat="42.6415018" lon="5.8934434"><ele>0.0</ele><time>2026-04-30T19:35:00.081Z</time></trkpt><trkpt lat="42.6415445" lon="5.8935446"><ele>0.0</ele><time>2026-04-30T19:35:01.081Z</time></trkpt><trkpt lat="42.6415838" lon="5.8936526"><ele>0.0</ele><time>2026-04-30T19:35:02.081Z</time></trkpt><trkpt lat="42.6416602" lon="5.8938671"><ele>0.0</ele><time>2026-04-30T19:35:04.081Z</time></trkpt><trkpt lat="42.6416968" lon="5.8939687"><ele>0.0</ele><time>2026-04-30T19:35:05.081Z</time></trkpt><trkpt lat="42.6417331" lon="5.8940729"><ele>0.0</ele><time>2026-04-30T19:35:06.081Z</time></trkpt><trkpt lat="42.6417739" lon="5.8941735"><ele>0.0</ele><time>2026-04-30T19:35:07.081Z</time></trkpt><trkpt lat="42.6418148" lon="5.8942751"><ele>0.0</ele><time>2026-04-30T19:35:08.081Z</time></trkpt><trkpt lat="42.6418518" lon="5.894377"><ele>0.0</ele><time>2026-04-30T19:35:09.081Z</time></trkpt><trkpt lat="42.6418938" lon="5.8944753"><ele>0.0</ele><time>2026-04-30T19:35:10.081Z</time></trkpt><trkpt lat="42.6419728" lon="5.894558"><ele>0.0</ele><time>2026-04-30T19:35:11.081Z</time></trkpt><trkpt lat="42.6420586" lon="5.8946415"><ele>0.0</ele><time>2026-04-30T19:35:12.081Z</time></trkpt><trkpt lat="42.6421192" lon="5.8947222"><ele>0.0</ele><time>2026-04-30T19:35:13.082Z</time></trkpt><trkpt lat="42.6421564" lon="5.8948101"><ele>0.0</ele><time>2026-04-30T19:35:14.082Z</time></trkpt><trkpt lat="42.6421916" lon="5.8949099"><ele>0.0</ele><time>2026-04-30T19:35:15.082Z</time></trkpt><trkpt lat="42.6422262" lon="5.8950058"><ele>0.0</ele><time>2026-04-30T19:35:16.081Z</time></trkpt><trkpt lat="42.6422659" lon="5.8951005"><ele>0.0</ele><time>2026-04-30T19:35:17.081Z</time></trkpt><trkpt lat="42.6423041" lon="5.8951995"><ele>0.0</ele><time>2026-04-30T19:35:18.082Z</time></trkpt><trkpt lat="42.6423451" lon="5.8953025"><ele>0.0</ele><time>2026-04-30T19:35:19.082Z</time></trkpt><trkpt lat="42.6423752" lon="5.895403"><ele>0.0</ele><time>2026-04-30T19:35:20.082Z</time></trkpt><trkpt lat="42.6424048" lon="5.8954972"><ele>0.0</ele><time>2026-04-30T19:35:21.081Z</time></trkpt><trkpt lat="42.6424258" lon="5.8956033"><ele>0.0</ele><time>2026-04-30T19:35:22.082Z</time></trkpt><trkpt lat="42.6424637" lon="5.8957074"><ele>0.0</ele><time>2026-04-30T19:35:23.081Z</time></trkpt><trkpt lat="42.6425778" lon="5.8960067"><ele>0.0</ele><time>2026-04-30T19:35:26.082Z</time></trkpt><trkpt lat="42.642621" lon="5.8961076"><ele>0.0</ele><time>2026-04-30T19:35:27.081Z</time></trkpt><trkpt lat="42.642632" lon="5.8962237"><ele>0.0</ele><time>2026-04-30T19:35:28.081Z</time></trkpt><trkpt lat="42.6426724" lon="5.8963236"><ele>0.0</ele><time>2026-04-30T19:35:29.082Z</time></trkpt><trkpt lat="42.6427074" lon="5.896429"><ele>0.0</ele><time>2026-04-30T19:35:30.082Z</time></trkpt><trkpt lat="42.6427489" lon="5.8965315"><ele>0.0</ele><time>2026-04-30T19:35:31.081Z</time></trkpt><trkpt lat="42.6427987" lon="5.8966361"><ele>0.0</ele><time>2026-04-30T19:35:32.082Z</time></trkpt><trkpt lat="42.6428311" lon="5.8967451"><ele>0.0</ele><time>2026-04-30T19:35:33.082Z</time></trkpt><trkpt lat="42.6428606" lon="5.8968465"><ele>0.0</ele><time>2026-04-30T19:35:34.081Z</time></trkpt><trkpt lat="42.6428888" lon="5.8969468"><ele>0.0</ele><time>2026-04-30T19:35:35.082Z</time></trkpt><trkpt lat="42.6429367" lon="5.8970468"><ele>0.0</ele><time>2026-04-30T19:35:36.082Z</time></trkpt><trkpt lat="42.6429919" lon="5.8971482"><ele>0.0</ele><time>2026-04-30T19:35:37.082Z</time></trkpt><trkpt lat="42.6430531" lon="5.897257"><ele>0.0</ele><time>2026-04-30T19:35:38.082Z</time></trkpt><trkpt lat="42.6431174" lon="5.8973572"><ele>0.0</ele><time>2026-04-30T19:35:39.082Z</time></trkpt><trkpt lat="42.643171" lon="5.8974583"><ele>0.0</ele><time>2026-04-30T19:35:40.081Z</time></trkpt><trkpt lat="42.643201" lon="5.8975573"><ele>0.0</ele><time>2026-04-30T19:35:41.082Z</time></trkpt><trkpt lat="42.6432195" lon="5.897658"><ele>0.0</ele><time>2026-04-30T19:35:42.082Z</time></trkpt><trkpt lat="42.6432629" lon="5.897757"><ele>0.0</ele><time>2026-04-30T19:35:43.081Z</time></trkpt><trkpt lat="42.6433022" lon="5.8978537"><ele>0.0</ele><time>2026-04-30T19:35:44.081Z</time></trkpt><trkpt lat="42.6433373" lon="5.8979488"><ele>0.0</ele><time>2026-04-30T19:35:45.081Z</time></trkpt><trkpt lat="42.6434126" lon="5.8981511"><ele>0.0</ele><time>2026-04-30T19:35:47.082Z</time></trkpt><trkpt lat="42.6434471" lon="5.8982585"><ele>0.0</ele><time>2026-04-30T19:35:48.081Z</time></trkpt><trkpt lat="42.6434623" lon="5.8983626"><ele>0.0</ele><time>2026-04-30T19:35:49.082Z</time></trkpt><trkpt lat="42.6435012" lon="5.8984605"><ele>0.0</ele><time>2026-04-30T19:35:50.082Z</time></trkpt><trkpt lat="42.6435361" lon="5.8985617"><ele>0.0</ele><time>2026-04-30T19:35:51.081Z</time></trkpt><trkpt lat="42.6435836" lon="5.8986717"><ele>0.0</ele><time>2026-04-30T19:35:52.081Z</time></trkpt><trkpt lat="42.6436265" lon="5.8987706"><ele>0.0</ele><time>2026-04-30T19:35:53.082Z</time></trkpt><trkpt lat="42.6436712" lon="5.8988698"><ele>0.0</ele><time>2026-04-30T19:35:54.081Z</time></trkpt><trkpt lat="42.643712" lon="5.8989715"><ele>0.0</ele><time>2026-04-30T19:35:55.081Z</time></trkpt><trkpt lat="42.6438072" lon="5.8991836"><ele>0.0</ele><time>2026-04-30T19:35:57.081Z</time></trkpt><trkpt lat="42.6438495" lon="5.8992858"><ele>0.0</ele><time>2026-04-30T19:35:58.081Z</time></trkpt><trkpt lat="42.6438994" lon="5.8993839"><ele>0.0</ele><time>2026-04-30T19:35:59.082Z</time></trkpt><trkpt lat="42.6439363" lon="5.8994822"><ele>0.0</ele><time>2026-04-30T19:36:00.082Z</time></trkpt><trkpt lat="42.6439781" lon="5.8995851"><ele>0.0</ele><time>2026-04-30T19:36:01.081Z</time></trkpt><trkpt lat="42.6440212" lon="5.8996783"><ele>0.0</ele><time>2026-04-30T19:36:02.081Z</time></trkpt><trkpt lat="42.6440632" lon="5.8997743"><ele>0.0</ele><time>2026-04-30T19:36:03.081Z</time></trkpt><trkpt lat="42.6440948" lon="5.8998752"><ele>0.0</ele><time>2026-04-30T19:36:04.082Z</time></trkpt><trkpt lat="42.6441203" lon="5.899984"><ele>0.0</ele><time>2026-04-30T19:36:05.082Z</time></trkpt><trkpt lat="42.6441521" lon="5.9000895"><ele>0.0</ele><time>2026-04-30T19:36:06.082Z</time></trkpt><trkpt lat="42.6442257" lon="5.9002978"><ele>0.0</ele><time>2026-04-30T19:36:08.081Z</time></trkpt><trkpt lat="42.6442625" lon="5.9004015"><ele>0.0</ele><time>2026-04-30T19:36:09.081Z</time></trkpt><trkpt lat="42.6443074" lon="5.9005004"><ele>0.0</ele><time>2026-04-30T19:36:10.081Z</time></trkpt><trkpt lat="42.6443484" lon="5.9005984"><ele>0.0</ele><time>2026-04-30T19:36:11.081Z</time></trkpt><trkpt lat="42.644391" lon="5.9006982"><ele>0.0</ele><time>2026-04-30T19:36:12.081Z</time></trkpt><trkpt lat="42.644429" lon="5.900796"><ele>0.0</ele><time>2026-04-30T19:36:13.081Z</time></trkpt><trkpt lat="42.6444725" lon="5.9008994"><ele>0.0</ele><time>2026-04-30T19:36:14.081Z</time></trkpt><trkpt lat="42.6445041" lon="5.9010126"><ele>0.0</ele><time>2026-04-30T19:36:15.082Z</time></trkpt><trkpt lat="42.6445371" lon="5.9011178"><ele>0.0</ele><time>2026-04-30T19:36:16.082Z</time></trkpt><trkpt lat="42.644572" lon="5.9012199"><ele>0.0</ele><time>2026-04-30T19:36:17.081Z</time></trkpt><trkpt lat="42.6446085" lon="5.9013243"><ele>0.0</ele><time>2026-04-30T19:36:18.081Z</time></trkpt><trkpt lat="42.6446412" lon="5.9014313"><ele>0.0</ele><time>2026-04-30T19:36:19.081Z</time></trkpt><trkpt lat="42.6446757" lon="5.9015335"><ele>0.0</ele><time>2026-04-30T19:36:20.081Z</time></trkpt><trkpt lat="42.6447091" lon="5.9016335"><ele>0.0</ele><time>2026-04-30T19:36:21.082Z</time></trkpt><trkpt lat="42.6447439" lon="5.9017294"><ele>0.0</ele><time>2026-04-30T19:36:22.081Z</time></trkpt><trkpt lat="42.644783" lon="5.9018298"><ele>0.0</ele><time>2026-04-30T19:36:23.081Z</time></trkpt><trkpt lat="42.6448173" lon="5.90193"><ele>0.0</ele><time>2026-04-30T19:36:24.081Z</time></trkpt><trkpt lat="42.6448493" lon="5.9020274"><ele>0.0</ele><time>2026-04-30T19:36:25.082Z</time></trkpt><trkpt lat="42.6448879" lon="5.9021354"><ele>0.0</ele><time>2026-04-30T19:36:26.081Z</time></trkpt><trkpt lat="42.6449238" lon="5.9022425"><ele>0.0</ele><time>2026-04-30T19:36:27.082Z</time></trkpt><trkpt lat="42.6450211" lon="5.9025552"><ele>0.0</ele><time>2026-04-30T19:36:30.081Z</time></trkpt><trkpt lat="42.6450542" lon="5.9026538"><ele>0.0</ele><time>2026-04-30T19:36:31.081Z</time></trkpt><trkpt lat="42.645083" lon="5.9027563"><ele>0.0</ele><time>2026-04-30T19:36:32.082Z</time></trkpt><trkpt lat="42.6451054" lon="5.9028609"><ele>0.0</ele><time>2026-04-30T19:36:33.081Z</time></trkpt><trkpt lat="42.6451413" lon="5.9029731"><ele>0.0</ele><time>2026-04-30T19:36:34.081Z</time></trkpt><trkpt lat="42.645178" lon="5.9030808"><ele>0.0</ele><time>2026-04-30T19:36:35.081Z</time></trkpt><trkpt lat="42.6452175" lon="5.903186"><ele>0.0</ele><time>2026-04-30T19:36:36.081Z</time></trkpt><trkpt lat="42.6452718" lon="5.9032883"><ele>0.0</ele><time>2026-04-30T19:36:37.082Z</time></trkpt><trkpt lat="42.6453233" lon="5.9033897"><ele>0.0</ele><time>2026-04-30T19:36:38.081Z</time></trkpt><trkpt lat="42.645367" lon="5.903496"><ele>0.0</ele><time>2026-04-30T19:36:39.082Z</time></trkpt><trkpt lat="42.6454044" lon="5.9036025"><ele>0.0</ele><time>2026-04-30T19:36:40.081Z</time></trkpt><trkpt lat="42.6454519" lon="5.9036964"><ele>0.0</ele><time>2026-04-30T19:36:41.081Z</time></trkpt><trkpt lat="42.6455055" lon="5.9037897"><ele>0.0</ele><time>2026-04-30T19:36:42.082Z</time></trkpt><trkpt lat="42.645546" lon="5.9038888"><ele>0.0</ele><time>2026-04-30T19:36:43.082Z</time></trkpt><trkpt lat="42.6455731" lon="5.9039902"><ele>0.0</ele><time>2026-04-30T19:36:44.081Z</time></trkpt><trkpt lat="42.645598" lon="5.9040877"><ele>0.0</ele><time>2026-04-30T19:36:45.081Z</time></trkpt><trkpt lat="42.6456197" lon="5.9041796"><ele>0.0</ele><time>2026-04-30T19:36:46.082Z</time></trkpt><trkpt lat="42.6456435" lon="5.9042801"><ele>0.0</ele><time>2026-04-30T19:36:47.082Z</time></trkpt><trkpt lat="42.6456876" lon="5.9043756"><ele>0.0</ele><time>2026-04-30T19:36:48.082Z</time></trkpt><trkpt lat="42.6457205" lon="5.9044827"><ele>0.0</ele><time>2026-04-30T19:36:49.082Z</time></trkpt><trkpt lat="42.6457703" lon="5.9047062"><ele>0.0</ele><time>2026-04-30T19:36:51.082Z</time></trkpt><trkpt lat="42.6457978" lon="5.9048071"><ele>0.0</ele><time>2026-04-30T19:36:52.081Z</time></trkpt><trkpt lat="42.645826" lon="5.9049099"><ele>0.0</ele><time>2026-04-30T19:36:53.081Z</time></trkpt><trkpt lat="42.6458657" lon="5.9050119"><ele>0.0</ele><time>2026-04-30T19:36:54.082Z</time></trkpt><trkpt lat="42.6458989" lon="5.9051164"><ele>0.0</ele><time>2026-04-30T19:36:55.081Z</time></trkpt><trkpt lat="42.6459339" lon="5.9052226"><ele>0.0</ele><time>2026-04-30T19:36:56.081Z</time></trkpt><trkpt lat="42.6459764" lon="5.9053295"><ele>0.0</ele><time>2026-04-30T19:36:57.081Z</time></trkpt><trkpt lat="42.6460196" lon="5.9054343"><ele>0.0</ele><time>2026-04-30T19:36:58.082Z</time></trkpt><trkpt lat="42.6460611" lon="5.9055407"><ele>0.0</ele><time>2026-04-30T19:36:59.082Z</time></trkpt><trkpt lat="42.6461355" lon="5.9057433"><ele>0.0</ele><time>2026-04-30T19:37:01.081Z</time></trkpt><trkpt lat="42.6461736" lon="5.9058451"><ele>0.0</ele><time>2026-04-30T19:37:02.082Z</time></trkpt><trkpt lat="42.6462054" lon="5.9059483"><ele>0.0</ele><time>2026-04-30T19:37:03.082Z</time></trkpt><trkpt lat="42.6462296" lon="5.9060526"><ele>0.0</ele><time>2026-04-30T19:37:04.081Z</time></trkpt><trkpt lat="42.6462576" lon="5.9061547"><ele>0.0</ele><time>2026-04-30T19:37:05.081Z</time></trkpt><trkpt lat="42.6462904" lon="5.9062581"><ele>0.0</ele><time>2026-04-30T19:37:06.082Z</time></trkpt><trkpt lat="42.6463234" lon="5.906363"><ele>0.0</ele><time>2026-04-30T19:37:07.082Z</time></trkpt><trkpt lat="42.6463638" lon="5.9064596"><ele>0.0</ele><time>2026-04-30T19:37:08.081Z</time></trkpt><trkpt lat="42.64641" lon="5.906559"><ele>0.0</ele><time>2026-04-30T19:37:09.081Z</time></trkpt><trkpt lat="42.6464539" lon="5.9066615"><ele>0.0</ele><time>2026-04-30T19:37:10.081Z</time></trkpt><trkpt lat="42.6465655" lon="5.9068651"><ele>0.0</ele><time>2026-04-30T19:37:12.082Z</time></trkpt><trkpt lat="42.6466166" lon="5.9069697"><ele>0.0</ele><time>2026-04-30T19:37:13.082Z</time></trkpt><trkpt lat="42.6466809" lon="5.9070618"><ele>0.0</ele><time>2026-04-30T19:37:14.082Z</time></trkpt><trkpt lat="42.6467176" lon="5.9071536"><ele>0.0</ele><time>2026-04-30T19:37:15.081Z</time></trkpt><trkpt lat="42.6467555" lon="5.9072463"><ele>0.0</ele><time>2026-04-30T19:37:16.082Z</time></trkpt><trkpt lat="42.6467823" lon="5.9073481"><ele>0.0</ele><time>2026-04-30T19:37:17.082Z</time></trkpt><trkpt lat="42.6468174" lon="5.907447"><ele>0.0</ele><time>2026-04-30T19:37:18.082Z</time></trkpt><trkpt lat="42.6468548" lon="5.907551"><ele>0.0</ele><time>2026-04-30T19:37:19.081Z</time></trkpt><trkpt lat="42.6468917" lon="5.9076577"><ele>0.0</ele><time>2026-04-30T19:37:20.082Z</time></trkpt><trkpt lat="42.6469302" lon="5.9077556"><ele>0.0</ele><time>2026-04-30T19:37:21.082Z</time></trkpt><trkpt lat="42.6469656" lon="5.9078522"><ele>0.0</ele><time>2026-04-30T19:37:22.082Z</time></trkpt><trkpt lat="42.6470066" lon="5.9079579"><ele>0.0</ele><time>2026-04-30T19:37:23.081Z</time></trkpt><trkpt lat="42.6470424" lon="5.9080572"><ele>0.0</ele><time>2026-04-30T19:37:24.082Z</time></trkpt><trkpt lat="42.6470789" lon="5.9081571"><ele>0.0</ele><time>2026-04-30T19:37:25.082Z</time></trkpt><trkpt lat="42.6471122" lon="5.9082623"><ele>0.0</ele><time>2026-04-30T19:37:26.081Z</time></trkpt><trkpt lat="42.6471402" lon="5.9083716"><ele>0.0</ele><time>2026-04-30T19:37:27.081Z</time></trkpt><trkpt lat="42.6471852" lon="5.9084804"><ele>0.0</ele><time>2026-04-30T19:37:28.081Z</time></trkpt><trkpt lat="42.6472202" lon="5.9085817"><ele>0.0</ele><time>2026-04-30T19:37:29.081Z</time></trkpt><trkpt lat="42.6472518" lon="5.9086862"><ele>0.0</ele><time>2026-04-30T19:37:30.082Z</time></trkpt><trkpt lat="42.6472782" lon="5.9087923"><ele>0.0</ele><time>2026-04-30T19:37:31.082Z</time></trkpt><trkpt lat="42.6473569" lon="5.9090004"><ele>0.0</ele><time>2026-04-30T19:37:33.081Z</time></trkpt><trkpt lat="42.6473977" lon="5.9091015"><ele>0.0</ele><time>2026-04-30T19:37:34.081Z</time></trkpt><trkpt lat="42.6474313" lon="5.9091962"><ele>0.0</ele><time>2026-04-30T19:37:35.081Z</time></trkpt><trkpt lat="42.6474641" lon="5.9092937"><ele>0.0</ele><time>2026-04-30T19:37:36.082Z</time></trkpt><trkpt lat="42.6474973" lon="5.9093823"><ele>0.0</ele><time>2026-04-30T19:37:37.081Z</time></trkpt><trkpt lat="42.6475344" lon="5.909478"><ele>0.0</ele><time>2026-04-30T19:37:38.082Z</time></trkpt><trkpt lat="42.6475742" lon="5.9095786"><ele>0.0</ele><time>2026-04-30T19:37:39.081Z</time></trkpt><trkpt lat="42.6476187" lon="5.9096812"><ele>0.0</ele><time>2026-04-30T19:37:40.081Z</time></trkpt><trkpt lat="42.6476598" lon="5.9097876"><ele>0.0</ele><time>2026-04-30T19:37:41.081Z</time></trkpt><trkpt lat="42.6477025" lon="5.9098928"><ele>0.0</ele><time>2026-04-30T19:37:42.082Z</time></trkpt><trkpt lat="42.6477427" lon="5.9100008"><ele>0.0</ele><time>2026-04-30T19:37:43.081Z</time></trkpt><trkpt lat="42.6477796" lon="5.9101046"><ele>0.0</ele><time>2026-04-30T19:37:44.082Z</time></trkpt><trkpt lat="42.6478296" lon="5.9102011"><ele>0.0</ele><time>2026-04-30T19:37:45.082Z</time></trkpt><trkpt lat="42.6478699" lon="5.910299"><ele>0.0</ele><time>2026-04-30T19:37:46.081Z</time></trkpt><trkpt lat="42.6478995" lon="5.9103986"><ele>0.0</ele><time>2026-04-30T19:37:47.081Z</time></trkpt><trkpt lat="42.6479004" lon="5.910513"><ele>0.0</ele><time>2026-04-30T19:37:48.08Z</time></trkpt><trkpt lat="42.6479123" lon="5.9106177"><ele>0.0</ele><time>2026-04-30T19:37:49.08Z</time></trkpt><trkpt lat="42.6479294" lon="5.9107194"><ele>0.0</ele><time>2026-04-30T19:37:50.081Z</time></trkpt><trkpt lat="42.647963" lon="5.9108229"><ele>0.0</ele><time>2026-04-30T19:37:51.081Z</time></trkpt><trkpt lat="42.6479984" lon="5.9109239"><ele>0.0</ele><time>2026-04-30T19:37:52.08Z</time></trkpt><trkpt lat="42.6480346" lon="5.9110311"><ele>0.0</ele><time>2026-04-30T19:37:53.08Z</time></trkpt><trkpt lat="42.648159" lon="5.9112326"><ele>0.0</ele><time>2026-04-30T19:37:55.08Z</time></trkpt><trkpt lat="42.6482036" lon="5.9113364"><ele>0.0</ele><time>2026-04-30T19:37:56.08Z</time></trkpt><trkpt lat="42.6482451" lon="5.9114366"><ele>0.0</ele><time>2026-04-30T19:37:57.08Z</time></trkpt><trkpt lat="42.6482764" lon="5.9115386"><ele>0.0</ele><time>2026-04-30T19:37:58.081Z</time></trkpt><trkpt lat="42.6483146" lon="5.9116382"><ele>0.0</ele><time>2026-04-30T19:37:59.08Z</time></trkpt><trkpt lat="42.6483302" lon="5.9117454"><ele>0.0</ele><time>2026-04-30T19:38:00.08Z</time></trkpt><trkpt lat="42.6483718" lon="5.9118493"><ele>0.0</ele><time>2026-04-30T19:38:01.081Z</time></trkpt><trkpt lat="42.6484217" lon="5.9119556"><ele>0.0</ele><time>2026-04-30T19:38:02.081Z</time></trkpt><trkpt lat="42.6484772" lon="5.912061"><ele>0.0</ele><time>2026-04-30T19:38:03.08Z</time></trkpt><trkpt lat="42.6485296" lon="5.912163"><ele>0.0</ele><time>2026-04-30T19:38:04.08Z</time></trkpt><trkpt lat="42.6485701" lon="5.9122664"><ele>0.0</ele><time>2026-04-30T19:38:05.081Z</time></trkpt><trkpt lat="42.6485982" lon="5.9123682"><ele>0.0</ele><time>2026-04-30T19:38:06.08Z</time></trkpt><trkpt lat="42.6486348" lon="5.9124673"><ele>0.0</ele><time>2026-04-30T19:38:07.08Z</time></trkpt><trkpt lat="42.6486702" lon="5.9125685"><ele>0.0</ele><time>2026-04-30T19:38:08.081Z</time></trkpt><trkpt lat="42.6487037" lon="5.9126668"><ele>0.0</ele><time>2026-04-30T19:38:09.081Z</time></trkpt><trkpt lat="42.6487357" lon="5.9127625"><ele>0.0</ele><time>2026-04-30T19:38:10.081Z</time></trkpt><trkpt lat="42.6487672" lon="5.9128604"><ele>0.0</ele><time>2026-04-30T19:38:11.08Z</time></trkpt><trkpt lat="42.6487985" lon="5.9129646"><ele>0.0</ele><time>2026-04-30T19:38:12.08Z</time></trkpt><trkpt lat="42.6488332" lon="5.9130707"><ele>0.0</ele><time>2026-04-30T19:38:13.081Z</time></trkpt><trkpt lat="42.6488638" lon="5.9131746"><ele>0.0</ele><time>2026-04-30T19:38:14.08Z</time></trkpt><trkpt lat="42.648931" lon="5.9133873"><ele>0.0</ele><time>2026-04-30T19:38:16.081Z</time></trkpt><trkpt lat="42.6489664" lon="5.9134927"><ele>0.0</ele><time>2026-04-30T19:38:17.081Z</time></trkpt><trkpt lat="42.6490027" lon="5.9136019"><ele>0.0</ele><time>2026-04-30T19:38:18.08Z</time></trkpt><trkpt lat="42.6490362" lon="5.913708"><ele>0.0</ele><time>2026-04-30T19:38:19.081Z</time></trkpt><trkpt lat="42.6490806" lon="5.9138102"><ele>0.0</ele><time>2026-04-30T19:38:20.08Z</time></trkpt><trkpt lat="42.649119" lon="5.913913"><ele>0.0</ele><time>2026-04-30T19:38:21.081Z</time></trkpt><trkpt lat="42.6491686" lon="5.9140094"><ele>0.0</ele><time>2026-04-30T19:38:22.08Z</time></trkpt><trkpt lat="42.6492174" lon="5.9141116"><ele>0.0</ele><time>2026-04-30T19:38:23.081Z</time></trkpt><trkpt lat="42.6492571" lon="5.9142188"><ele>0.0</ele><time>2026-04-30T19:38:24.081Z</time></trkpt><trkpt lat="42.6492857" lon="5.9143076"><ele>0.0</ele><time>2026-04-30T19:38:25.081Z</time></trkpt><trkpt lat="42.6493164" lon="5.9144101"><ele>0.0</ele><time>2026-04-30T19:38:26.081Z</time></trkpt><trkpt lat="42.6493466" lon="5.9145192"><ele>0.0</ele><time>2026-04-30T19:38:27.081Z</time></trkpt><trkpt lat="42.6493808" lon="5.9146303"><ele>0.0</ele><time>2026-04-30T19:38:28.08Z</time></trkpt><trkpt lat="42.6494216" lon="5.9147316"><ele>0.0</ele><time>2026-04-30T19:38:29.08Z</time></trkpt><trkpt lat="42.649455" lon="5.9148306"><ele>0.0</ele><time>2026-04-30T19:38:30.08Z</time></trkpt><trkpt lat="42.6494848" lon="5.914938"><ele>0.0</ele><time>2026-04-30T19:38:31.08Z</time></trkpt><trkpt lat="42.6495199" lon="5.915042"><ele>0.0</ele><time>2026-04-30T19:38:32.08Z</time></trkpt><trkpt lat="42.6495519" lon="5.9151485"><ele>0.0</ele><time>2026-04-30T19:38:33.08Z</time></trkpt><trkpt lat="42.6495799" lon="5.9152516"><ele>0.0</ele><time>2026-04-30T19:38:34.081Z</time></trkpt><trkpt lat="42.6496023" lon="5.9153539"><ele>0.0</ele><time>2026-04-30T19:38:35.081Z</time></trkpt><trkpt lat="42.6497273" lon="5.9156549"><ele>0.0</ele><time>2026-04-30T19:38:38.08Z</time></trkpt><trkpt lat="42.6497579" lon="5.9157641"><ele>0.0</ele><time>2026-04-30T19:38:39.081Z</time></trkpt><trkpt lat="42.6497915" lon="5.9158739"><ele>0.0</ele><time>2026-04-30T19:38:40.081Z</time></trkpt><trkpt lat="42.6498293" lon="5.9159748"><ele>0.0</ele><time>2026-04-30T19:38:41.08Z</time></trkpt><trkpt lat="42.6498632" lon="5.9160795"><ele>0.0</ele><time>2026-04-30T19:38:42.08Z</time></trkpt><trkpt lat="42.6498978" lon="5.9161843"><ele>0.0</ele><time>2026-04-30T19:38:43.081Z</time></trkpt><trkpt lat="42.6499346" lon="5.9162909"><ele>0.0</ele><time>2026-04-30T19:38:44.081Z</time></trkpt><trkpt lat="42.6499771" lon="5.9163958"><ele>0.0</ele><time>2026-04-30T19:38:45.081Z</time></trkpt><trkpt lat="42.6500164" lon="5.9164948"><ele>0.0</ele><time>2026-04-30T19:38:46.08Z</time></trkpt><trkpt lat="42.6500648" lon="5.9165978"><ele>0.0</ele><time>2026-04-30T19:38:47.081Z</time></trkpt><trkpt lat="42.6501035" lon="5.9167013"><ele>0.0</ele><time>2026-04-30T19:38:48.08Z</time></trkpt><trkpt lat="42.6501305" lon="5.9168045"><ele>0.0</ele><time>2026-04-30T19:38:49.08Z</time></trkpt><trkpt lat="42.650154" lon="5.9169122"><ele>0.0</ele><time>2026-04-30T19:38:50.08Z</time></trkpt><trkpt lat="42.6501855" lon="5.9170175"><ele>0.0</ele><time>2026-04-30T19:38:51.081Z</time></trkpt><trkpt lat="42.6502197" lon="5.9171199"><ele>0.0</ele><time>2026-04-30T19:38:52.081Z</time></trkpt><trkpt lat="42.6502553" lon="5.9172187"><ele>0.0</ele><time>2026-04-30T19:38:53.081Z</time></trkpt><trkpt lat="42.6502961" lon="5.9173218"><ele>0.0</ele><time>2026-04-30T19:38:54.081Z</time></trkpt><trkpt lat="42.6503348" lon="5.9174232"><ele>0.0</ele><time>2026-04-30T19:38:55.08Z</time></trkpt><trkpt lat="42.6503848" lon="5.9175236"><ele>0.0</ele><time>2026-04-30T19:38:56.08Z</time></trkpt><trkpt lat="42.6504245" lon="5.9176267"><ele>0.0</ele><time>2026-04-30T19:38:57.08Z</time></trkpt><trkpt lat="42.6504874" lon="5.9178248"><ele>0.0</ele><time>2026-04-30T19:38:59.08Z</time></trkpt><trkpt lat="42.6505204" lon="5.9179233"><ele>0.0</ele><time>2026-04-30T19:39:00.08Z</time></trkpt><trkpt lat="42.6505632" lon="5.9180247"><ele>0.0</ele><time>2026-04-30T19:39:01.081Z</time></trkpt><trkpt lat="42.6505939" lon="5.9181263"><ele>0.0</ele><time>2026-04-30T19:39:02.08Z</time></trkpt><trkpt lat="42.6506495" lon="5.9182225"><ele>0.0</ele><time>2026-04-30T19:39:03.08Z</time></trkpt><trkpt lat="42.6506931" lon="5.9183276"><ele>0.0</ele><time>2026-04-30T19:39:04.081Z</time></trkpt><trkpt lat="42.6507311" lon="5.9184297"><ele>0.0</ele><time>2026-04-30T19:39:05.08Z</time></trkpt><trkpt lat="42.6507685" lon="5.9185345"><ele>0.0</ele><time>2026-04-30T19:39:06.08Z</time></trkpt><trkpt lat="42.6508068" lon="5.9186364"><ele>0.0</ele><time>2026-04-30T19:39:07.08Z</time></trkpt><trkpt lat="42.6508422" lon="5.9187341"><ele>0.0</ele><time>2026-04-30T19:39:08.081Z</time></trkpt><trkpt lat="42.6508828" lon="5.9188331"><ele>0.0</ele><time>2026-04-30T19:39:09.081Z</time></trkpt><trkpt lat="42.6509203" lon="5.9189304"><ele>0.0</ele><time>2026-04-30T19:39:10.081Z</time></trkpt><trkpt lat="42.6509512" lon="5.9190329"><ele>0.0</ele><time>2026-04-30T19:39:11.081Z</time></trkpt><trkpt lat="42.6509835" lon="5.9191279"><ele>0.0</ele><time>2026-04-30T19:39:12.081Z</time></trkpt><trkpt lat="42.6510239" lon="5.9192241"><ele>0.0</ele><time>2026-04-30T19:39:13.08Z</time></trkpt><trkpt lat="42.6510567" lon="5.9193266"><ele>0.0</ele><time>2026-04-30T19:39:14.08Z</time></trkpt><trkpt lat="42.6511032" lon="5.9194274"><ele>0.0</ele><time>2026-04-30T19:39:15.08Z</time></trkpt><trkpt lat="42.6511572" lon="5.9195194"><ele>0.0</ele><time>2026-04-30T19:39:16.081Z</time></trkpt><trkpt lat="42.6511942" lon="5.9196284"><ele>0.0</ele><time>2026-04-30T19:39:17.08Z</time></trkpt><trkpt lat="42.6512297" lon="5.919736"><ele>0.0</ele><time>2026-04-30T19:39:18.081Z</time></trkpt><trkpt lat="42.6512837" lon="5.9199422"><ele>0.0</ele><time>2026-04-30T19:39:20.081Z</time></trkpt><trkpt lat="42.6513111" lon="5.9200505"><ele>0.0</ele><time>2026-04-30T19:39:21.08Z</time></trkpt><trkpt lat="42.6513326" lon="5.9201474"><ele>0.0</ele><time>2026-04-30T19:39:22.08Z</time></trkpt><trkpt lat="42.6513628" lon="5.920254"><ele>0.0</ele><time>2026-04-30T19:39:23.08Z</time></trkpt><trkpt lat="42.6513946" lon="5.9203627"><ele>0.0</ele><time>2026-04-30T19:39:24.081Z</time></trkpt><trkpt lat="42.6514377" lon="5.9204739"><ele>0.0</ele><time>2026-04-30T19:39:25.08Z</time></trkpt><trkpt lat="42.6514972" lon="5.9205838"><ele>0.0</ele><time>2026-04-30T19:39:26.08Z</time></trkpt><trkpt lat="42.6515505" lon="5.9206937"><ele>0.0</ele><time>2026-04-30T19:39:27.081Z</time></trkpt><trkpt lat="42.6516025" lon="5.9207996"><ele>0.0</ele><time>2026-04-30T19:39:28.081Z</time></trkpt><trkpt lat="42.651651" lon="5.9209021"><ele>0.0</ele><time>2026-04-30T19:39:29.08Z</time></trkpt><trkpt lat="42.6516955" lon="5.9210035"><ele>0.0</ele><time>2026-04-30T19:39:30.08Z</time></trkpt><trkpt lat="42.6517351" lon="5.9210991"><ele>0.0</ele><time>2026-04-30T19:39:31.081Z</time></trkpt><trkpt lat="42.6517491" lon="5.9211957"><ele>0.0</ele><time>2026-04-30T19:39:32.08Z</time></trkpt><trkpt lat="42.651773" lon="5.9212936"><ele>0.0</ele><time>2026-04-30T19:39:33.081Z</time></trkpt><trkpt lat="42.6518121" lon="5.921394"><ele>0.0</ele><time>2026-04-30T19:39:34.08Z</time></trkpt><trkpt lat="42.6518551" lon="5.9214938"><ele>0.0</ele><time>2026-04-30T19:39:35.08Z</time></trkpt><trkpt lat="42.6518946" lon="5.9215895"><ele>0.0</ele><time>2026-04-30T19:39:36.08Z</time></trkpt><trkpt lat="42.6519258" lon="5.9216846"><ele>0.0</ele><time>2026-04-30T19:39:37.081Z</time></trkpt><trkpt lat="42.6519648" lon="5.9217884"><ele>0.0</ele><time>2026-04-30T19:39:38.08Z</time></trkpt><trkpt lat="42.6520017" lon="5.9218917"><ele>0.0</ele><time>2026-04-30T19:39:39.08Z</time></trkpt><trkpt lat="42.6521494" lon="5.9221943"><ele>0.0</ele><time>2026-04-30T19:39:42.08Z</time></trkpt><trkpt lat="42.6522094" lon="5.9222952"><ele>0.0</ele><time>2026-04-30T19:39:43.08Z</time></trkpt><trkpt lat="42.6522499" lon="5.9224011"><ele>0.0</ele><time>2026-04-30T19:39:44.08Z</time></trkpt><trkpt lat="42.652294" lon="5.9224987"><ele>0.0</ele><time>2026-04-30T19:39:45.08Z</time></trkpt><trkpt lat="42.6523288" lon="5.9225971"><ele>0.0</ele><time>2026-04-30T19:39:46.081Z</time></trkpt><trkpt lat="42.6523652" lon="5.9226924"><ele>0.0</ele><time>2026-04-30T19:39:47.081Z</time></trkpt><trkpt lat="42.6524021" lon="5.9227918"><ele>0.0</ele><time>2026-04-30T19:39:48.08Z</time></trkpt><trkpt lat="42.652427" lon="5.9228861"><ele>0.0</ele><time>2026-04-30T19:39:49.08Z</time></trkpt><trkpt lat="42.652443" lon="5.9229824"><ele>0.0</ele><time>2026-04-30T19:39:50.08Z</time></trkpt><trkpt lat="42.6524608" lon="5.9230862"><ele>0.0</ele><time>2026-04-30T19:39:51.081Z</time></trkpt><trkpt lat="42.6524918" lon="5.9231868"><ele>0.0</ele><time>2026-04-30T19:39:52.08Z</time></trkpt><trkpt lat="42.652536" lon="5.9232896"><ele>0.0</ele><time>2026-04-30T19:39:53.081Z</time></trkpt><trkpt lat="42.652574" lon="5.9233905"><ele>0.0</ele><time>2026-04-30T19:39:54.08Z</time></trkpt><trkpt lat="42.6526137" lon="5.923495"><ele>0.0</ele><time>2026-04-30T19:39:55.081Z</time></trkpt><trkpt lat="42.6526535" lon="5.9236027"><ele>0.0</ele><time>2026-04-30T19:39:56.08Z</time></trkpt><trkpt lat="42.6527166" lon="5.9237022"><ele>0.0</ele><time>2026-04-30T19:39:57.08Z</time></trkpt><trkpt lat="42.6527551" lon="5.923808"><ele>0.0</ele><time>2026-04-30T19:39:58.08Z</time></trkpt><trkpt lat="42.652806" lon="5.9239057"><ele>0.0</ele><time>2026-04-30T19:39:59.08Z</time></trkpt><trkpt lat="42.6528548" lon="5.924004"><ele>0.0</ele><time>2026-04-30T19:40:00.08Z</time></trkpt><trkpt lat="42.6528904" lon="5.9241036"><ele>0.0</ele><time>2026-04-30T19:40:01.081Z</time></trkpt><trkpt lat="42.6529805" lon="5.9242977"><ele>0.0</ele><time>2026-04-30T19:40:03.08Z</time></trkpt><trkpt lat="42.6530268" lon="5.9243968"><ele>0.0</ele><time>2026-04-30T19:40:04.081Z</time></trkpt><trkpt lat="42.6530463" lon="5.9244999"><ele>0.0</ele><time>2026-04-30T19:40:05.08Z</time></trkpt><trkpt lat="42.6530648" lon="5.9246094"><ele>0.0</ele><time>2026-04-30T19:40:06.08Z</time></trkpt><trkpt lat="42.6530982" lon="5.9247165"><ele>0.0</ele><time>2026-04-30T19:40:07.08Z</time></trkpt><trkpt lat="42.6531349" lon="5.9248251"><ele>0.0</ele><time>2026-04-30T19:40:08.08Z</time></trkpt><trkpt lat="42.6531768" lon="5.9249292"><ele>0.0</ele><time>2026-04-30T19:40:09.08Z</time></trkpt><trkpt lat="42.6532258" lon="5.9250261"><ele>0.0</ele><time>2026-04-30T19:40:10.081Z</time></trkpt><trkpt lat="42.6532774" lon="5.9251244"><ele>0.0</ele><time>2026-04-30T19:40:11.08Z</time></trkpt><trkpt lat="42.6533688" lon="5.9253219"><ele>0.0</ele><time>2026-04-30T19:40:13.08Z</time></trkpt><trkpt lat="42.6534105" lon="5.9254267"><ele>0.0</ele><time>2026-04-30T19:40:14.081Z</time></trkpt><trkpt lat="42.6534497" lon="5.9255243"><ele>0.0</ele><time>2026-04-30T19:40:15.08Z</time></trkpt><trkpt lat="42.6534921" lon="5.9256256"><ele>0.0</ele><time>2026-04-30T19:40:16.08Z</time></trkpt><trkpt lat="42.6535349" lon="5.9257271"><ele>0.0</ele><time>2026-04-30T19:40:17.081Z</time></trkpt><trkpt lat="42.6535765" lon="5.9258295"><ele>0.0</ele><time>2026-04-30T19:40:18.08Z</time></trkpt><trkpt lat="42.6536152" lon="5.9259331"><ele>0.0</ele><time>2026-04-30T19:40:19.081Z</time></trkpt><trkpt lat="42.6536504" lon="5.9260381"><ele>0.0</ele><time>2026-04-30T19:40:20.081Z</time></trkpt><trkpt lat="42.6536821" lon="5.9261459"><ele>0.0</ele><time>2026-04-30T19:40:21.08Z</time></trkpt><trkpt lat="42.6537179" lon="5.9262483"><ele>0.0</ele><time>2026-04-30T19:40:22.08Z</time></trkpt><trkpt lat="42.6537963" lon="5.9264476"><ele>0.0</ele><time>2026-04-30T19:40:24.081Z</time></trkpt><trkpt lat="42.6538239" lon="5.9265411"><ele>0.0</ele><time>2026-04-30T19:40:25.08Z</time></trkpt><trkpt lat="42.6538536" lon="5.926643"><ele>0.0</ele><time>2026-04-30T19:40:26.08Z</time></trkpt><trkpt lat="42.653882" lon="5.9267448"><ele>0.0</ele><time>2026-04-30T19:40:27.081Z</time></trkpt><trkpt lat="42.6539133" lon="5.9268493"><ele>0.0</ele><time>2026-04-30T19:40:28.081Z</time></trkpt><trkpt lat="42.6539463" lon="5.9269517"><ele>0.0</ele><time>2026-04-30T19:40:29.081Z</time></trkpt><trkpt lat="42.6539627" lon="5.9270633"><ele>0.0</ele><time>2026-04-30T19:40:30.081Z</time></trkpt><trkpt lat="42.6539836" lon="5.9271692"><ele>0.0</ele><time>2026-04-30T19:40:31.08Z</time></trkpt><trkpt lat="42.6540277" lon="5.9272699"><ele>0.0</ele><time>2026-04-30T19:40:32.081Z</time></trkpt><trkpt lat="42.6540688" lon="5.9273722"><ele>0.0</ele><time>2026-04-30T19:40:33.08Z</time></trkpt><trkpt lat="42.6541104" lon="5.9274751"><ele>0.0</ele><time>2026-04-30T19:40:34.081Z</time></trkpt><trkpt lat="42.6541423" lon="5.9275782"><ele>0.0</ele><time>2026-04-30T19:40:35.08Z</time></trkpt><trkpt lat="42.6541752" lon="5.9276817"><ele>0.0</ele><time>2026-04-30T19:40:36.08Z</time></trkpt><trkpt lat="42.6542098" lon="5.9277835"><ele>0.0</ele><time>2026-04-30T19:40:37.081Z</time></trkpt><trkpt lat="42.6542715" lon="5.9278749"><ele>0.0</ele><time>2026-04-30T19:40:38.081Z</time></trkpt><trkpt lat="42.6543181" lon="5.9279808"><ele>0.0</ele><time>2026-04-30T19:40:39.081Z</time></trkpt><trkpt lat="42.6543505" lon="5.9280861"><ele>0.0</ele><time>2026-04-30T19:40:40.08Z</time></trkpt><trkpt lat="42.6543821" lon="5.928194"><ele>0.0</ele><time>2026-04-30T19:40:41.08Z</time></trkpt><trkpt lat="42.6544164" lon="5.9283041"><ele>0.0</ele><time>2026-04-30T19:40:42.081Z</time></trkpt><trkpt lat="42.6545268" lon="5.9286326"><ele>0.0</ele><time>2026-04-30T19:40:45.081Z</time></trkpt><trkpt lat="42.654553" lon="5.9287355"><ele>0.0</ele><time>2026-04-30T19:40:46.08Z</time></trkpt><trkpt lat="42.654587" lon="5.9288341"><ele>0.0</ele><time>2026-04-30T19:40:47.08Z</time></trkpt><trkpt lat="42.6546314" lon="5.9289364"><ele>0.0</ele><time>2026-04-30T19:40:48.08Z</time></trkpt><trkpt lat="42.6546762" lon="5.9290397"><ele>0.0</ele><time>2026-04-30T19:40:49.081Z</time></trkpt><trkpt lat="42.6547177" lon="5.9291447"><ele>0.0</ele><time>2026-04-30T19:40:50.081Z</time></trkpt><trkpt lat="42.6547645" lon="5.9292453"><ele>0.0</ele><time>2026-04-30T19:40:51.081Z</time></trkpt><trkpt lat="42.6548057" lon="5.9293448"><ele>0.0</ele><time>2026-04-30T19:40:52.081Z</time></trkpt><trkpt lat="42.6548431" lon="5.9294475"><ele>0.0</ele><time>2026-04-30T19:40:53.081Z</time></trkpt><trkpt lat="42.6548699" lon="5.929557"><ele>0.0</ele><time>2026-04-30T19:40:54.08Z</time></trkpt><trkpt lat="42.6548677" lon="5.9296671"><ele>0.0</ele><time>2026-04-30T19:40:55.081Z</time></trkpt><trkpt lat="42.6548642" lon="5.9297842"><ele>0.0</ele><time>2026-04-30T19:40:56.08Z</time></trkpt><trkpt lat="42.6548928" lon="5.9298927"><ele>0.0</ele><time>2026-04-30T19:40:57.08Z</time></trkpt><trkpt lat="42.6549291" lon="5.9299947"><ele>0.0</ele><time>2026-04-30T19:40:58.08Z</time></trkpt><trkpt lat="42.6549701" lon="5.9300938"><ele>0.0</ele><time>2026-04-30T19:40:59.08Z</time></trkpt><trkpt lat="42.6550097" lon="5.9302005"><ele>0.0</ele><time>2026-04-30T19:41:00.08Z</time></trkpt><trkpt lat="42.6550513" lon="5.9303045"><ele>0.0</ele><time>2026-04-30T19:41:01.081Z</time></trkpt><trkpt lat="42.6550939" lon="5.9304051"><ele>0.0</ele><time>2026-04-30T19:41:02.08Z</time></trkpt><trkpt lat="42.6551384" lon="5.9305049"><ele>0.0</ele><time>2026-04-30T19:41:03.08Z</time></trkpt><trkpt lat="42.655206" lon="5.9306012"><ele>0.0</ele><time>2026-04-30T19:41:04.081Z</time></trkpt><trkpt lat="42.6552947" lon="5.9308052"><ele>0.0</ele><time>2026-04-30T19:41:06.081Z</time></trkpt><trkpt lat="42.6553412" lon="5.9309009"><ele>0.0</ele><time>2026-04-30T19:41:07.08Z</time></trkpt><trkpt lat="42.6553882" lon="5.9309977"><ele>0.0</ele><time>2026-04-30T19:41:08.08Z</time></trkpt><trkpt lat="42.6554377" lon="5.9310916"><ele>0.0</ele><time>2026-04-30T19:41:09.08Z</time></trkpt><trkpt lat="42.6554862" lon="5.9311878"><ele>0.0</ele><time>2026-04-30T19:41:10.081Z</time></trkpt><trkpt lat="42.6555288" lon="5.9312797"><ele>0.0</ele><time>2026-04-30T19:41:11.081Z</time></trkpt><trkpt lat="42.655565" lon="5.9313759"><ele>0.0</ele><time>2026-04-30T19:41:12.081Z</time></trkpt><trkpt lat="42.6556087" lon="5.9314726"><ele>0.0</ele><time>2026-04-30T19:41:13.081Z</time></trkpt><trkpt lat="42.6556511" lon="5.9315732"><ele>0.0</ele><time>2026-04-30T19:41:14.081Z</time></trkpt><trkpt lat="42.6556899" lon="5.9316778"><ele>0.0</ele><time>2026-04-30T19:41:15.08Z</time></trkpt><trkpt lat="42.6557792" lon="5.9318749"><ele>0.0</ele><time>2026-04-30T19:41:17.08Z</time></trkpt><trkpt lat="42.655824" lon="5.9319736"><ele>0.0</ele><time>2026-04-30T19:41:18.08Z</time></trkpt><trkpt lat="42.6558633" lon="5.9320763"><ele>0.0</ele><time>2026-04-30T19:41:19.08Z</time></trkpt><trkpt lat="42.6558759" lon="5.9321842"><ele>0.0</ele><time>2026-04-30T19:41:20.08Z</time></trkpt><trkpt lat="42.6558933" lon="5.9323009"><ele>0.0</ele><time>2026-04-30T19:41:21.08Z</time></trkpt><trkpt lat="42.6559127" lon="5.9324102"><ele>0.0</ele><time>2026-04-30T19:41:22.08Z</time></trkpt><trkpt lat="42.6559337" lon="5.9325183"><ele>0.0</ele><time>2026-04-30T19:41:23.081Z</time></trkpt><trkpt lat="42.6559621" lon="5.9326286"><ele>0.0</ele><time>2026-04-30T19:41:24.08Z</time></trkpt><trkpt lat="42.6560015" lon="5.9327332"><ele>0.0</ele><time>2026-04-30T19:41:25.081Z</time></trkpt><trkpt lat="42.6561006" lon="5.9329399"><ele>0.0</ele><time>2026-04-30T19:41:27.08Z</time></trkpt><trkpt lat="42.6561467" lon="5.9330476"><ele>0.0</ele><time>2026-04-30T19:41:28.08Z</time></trkpt><trkpt lat="42.6561876" lon="5.9331528"><ele>0.0</ele><time>2026-04-30T19:41:29.081Z</time></trkpt><trkpt lat="42.6562222" lon="5.9332538"><ele>0.0</ele><time>2026-04-30T19:41:30.08Z</time></trkpt><trkpt lat="42.6562572" lon="5.9333494"><ele>0.0</ele><time>2026-04-30T19:41:31.08Z</time></trkpt><trkpt lat="42.6562866" lon="5.9334389"><ele>0.0</ele><time>2026-04-30T19:41:32.081Z</time></trkpt><trkpt lat="42.6563175" lon="5.9335361"><ele>0.0</ele><time>2026-04-30T19:41:33.08Z</time></trkpt><trkpt lat="42.6563505" lon="5.9336409"><ele>0.0</ele><time>2026-04-30T19:41:34.08Z</time></trkpt><trkpt lat="42.656392" lon="5.9337464"><ele>0.0</ele><time>2026-04-30T19:41:35.081Z</time></trkpt><trkpt lat="42.6564344" lon="5.9338495"><ele>0.0</ele><time>2026-04-30T19:41:36.08Z</time></trkpt><trkpt lat="42.6564823" lon="5.9339429"><ele>0.0</ele><time>2026-04-30T19:41:37.08Z</time></trkpt><trkpt lat="42.6565234" lon="5.9340436"><ele>0.0</ele><time>2026-04-30T19:41:38.081Z</time></trkpt><trkpt lat="42.6565693" lon="5.9341509"><ele>0.0</ele><time>2026-04-30T19:41:39.08Z</time></trkpt><trkpt lat="42.6566175" lon="5.9342521"><ele>0.0</ele><time>2026-04-30T19:41:40.081Z</time></trkpt><trkpt lat="42.6566292" lon="5.934359"><ele>0.0</ele><time>2026-04-30T19:41:41.08Z</time></trkpt><trkpt lat="42.6566606" lon="5.9344614"><ele>0.0</ele><time>2026-04-30T19:41:42.081Z</time></trkpt><trkpt lat="42.6566919" lon="5.9345648"><ele>0.0</ele><time>2026-04-30T19:41:43.081Z</time></trkpt><trkpt lat="42.6567279" lon="5.934665"><ele>0.0</ele><time>2026-04-30T19:41:44.08Z</time></trkpt><trkpt lat="42.6567715" lon="5.934766"><ele>0.0</ele><time>2026-04-30T19:41:45.081Z</time></trkpt><trkpt lat="42.656822" lon="5.9348682"><ele>0.0</ele><time>2026-04-30T19:41:46.08Z</time></trkpt><trkpt lat="42.6568709" lon="5.9349684"><ele>0.0</ele><time>2026-04-30T19:41:47.08Z</time></trkpt><trkpt lat="42.6569988" lon="5.9352585"><ele>0.0</ele><time>2026-04-30T19:41:50.081Z</time></trkpt><trkpt lat="42.6570315" lon="5.9353684"><ele>0.0</ele><time>2026-04-30T19:41:51.08Z</time></trkpt><trkpt lat="42.6570543" lon="5.9354851"><ele>0.0</ele><time>2026-04-30T19:41:52.08Z</time></trkpt><trkpt lat="42.6570702" lon="5.9355882"><ele>0.0</ele><time>2026-04-30T19:41:53.08Z</time></trkpt><trkpt lat="42.657096" lon="5.9356985"><ele>0.0</ele><time>2026-04-30T19:41:54.08Z</time></trkpt><trkpt lat="42.6571176" lon="5.9358074"><ele>0.0</ele><time>2026-04-30T19:41:55.08Z</time></trkpt><trkpt lat="42.6571449" lon="5.9359125"><ele>0.0</ele><time>2026-04-30T19:41:56.081Z</time></trkpt><trkpt lat="42.6571775" lon="5.9360146"><ele>0.0</ele><time>2026-04-30T19:41:57.081Z</time></trkpt><trkpt lat="42.6572127" lon="5.9361118"><ele>0.0</ele><time>2026-04-30T19:41:58.08Z</time></trkpt><trkpt lat="42.6572475" lon="5.9362131"><ele>0.0</ele><time>2026-04-30T19:41:59.08Z</time></trkpt><trkpt lat="42.6572764" lon="5.9363104"><ele>0.0</ele><time>2026-04-30T19:42:00.08Z</time></trkpt><trkpt lat="42.6573171" lon="5.9364064"><ele>0.0</ele><time>2026-04-30T19:42:01.08Z</time></trkpt><trkpt lat="42.6573651" lon="5.9365051"><ele>0.0</ele><time>2026-04-30T19:42:02.081Z</time></trkpt><trkpt lat="42.6574338" lon="5.9366048"><ele>0.0</ele><time>2026-04-30T19:42:03.081Z</time></trkpt><trkpt lat="42.6574858" lon="5.9367048"><ele>0.0</ele><time>2026-04-30T19:42:04.081Z</time></trkpt><trkpt lat="42.6575374" lon="5.9368066"><ele>0.0</ele><time>2026-04-30T19:42:05.08Z</time></trkpt><trkpt lat="42.6575835" lon="5.9369142"><ele>0.0</ele><time>2026-04-30T19:42:06.081Z</time></trkpt><trkpt lat="42.6576173" lon="5.9370232"><ele>0.0</ele><time>2026-04-30T19:42:07.08Z</time></trkpt><trkpt lat="42.6576516" lon="5.937125"><ele>0.0</ele><time>2026-04-30T19:42:08.081Z</time></trkpt><trkpt lat="42.6576894" lon="5.9372296"><ele>0.0</ele><time>2026-04-30T19:42:09.08Z</time></trkpt><trkpt lat="42.6577806" lon="5.937423"><ele>0.0</ele><time>2026-04-30T19:42:11.081Z</time></trkpt><trkpt lat="42.6578214" lon="5.937522"><ele>0.0</ele><time>2026-04-30T19:42:12.081Z</time></trkpt><trkpt lat="42.6578614" lon="5.9376247"><ele>0.0</ele><time>2026-04-30T19:42:13.08Z</time></trkpt><trkpt lat="42.6578932" lon="5.9377239"><ele>0.0</ele><time>2026-04-30T19:42:14.081Z</time></trkpt><trkpt lat="42.657927" lon="5.9378275"><ele>0.0</ele><time>2026-04-30T19:42:15.08Z</time></trkpt><trkpt lat="42.6579645" lon="5.9379256"><ele>0.0</ele><time>2026-04-30T19:42:16.081Z</time></trkpt><trkpt lat="42.6580029" lon="5.9380239"><ele>0.0</ele><time>2026-04-30T19:42:17.081Z</time></trkpt><trkpt lat="42.6580338" lon="5.9381294"><ele>0.0</ele><time>2026-04-30T19:42:18.081Z</time></trkpt><trkpt lat="42.6580635" lon="5.938236"><ele>0.0</ele><time>2026-04-30T19:42:19.08Z</time></trkpt><trkpt lat="42.6581413" lon="5.9384498"><ele>0.0</ele><time>2026-04-30T19:42:21.08Z</time></trkpt><trkpt lat="42.6582135" lon="5.9385416"><ele>0.0</ele><time>2026-04-30T19:42:22.08Z</time></trkpt><trkpt lat="42.6582547" lon="5.9386463"><ele>0.0</ele><time>2026-04-30T19:42:23.08Z</time></trkpt><trkpt lat="42.6583238" lon="5.9387355"><ele>0.0</ele><time>2026-04-30T19:42:24.081Z</time></trkpt><trkpt lat="42.6583658" lon="5.9388413"><ele>0.0</ele><time>2026-04-30T19:42:25.08Z</time></trkpt><trkpt lat="42.6584168" lon="5.9389404"><ele>0.0</ele><time>2026-04-30T19:42:26.081Z</time></trkpt><trkpt lat="42.6584565" lon="5.9390398"><ele>0.0</ele><time>2026-04-30T19:42:27.081Z</time></trkpt><trkpt lat="42.6584982" lon="5.939143"><ele>0.0</ele><time>2026-04-30T19:42:28.08Z</time></trkpt><trkpt lat="42.6585399" lon="5.9392519"><ele>0.0</ele><time>2026-04-30T19:42:29.08Z</time></trkpt><trkpt lat="42.6585788" lon="5.9393596"><ele>0.0</ele><time>2026-04-30T19:42:30.08Z</time></trkpt><trkpt lat="42.6586483" lon="5.9395604"><ele>0.0</ele><time>2026-04-30T19:42:32.081Z</time></trkpt><trkpt lat="42.6586837" lon="5.9396631"><ele>0.0</ele><time>2026-04-30T19:42:33.081Z</time></trkpt><trkpt lat="42.6587152" lon="5.939765"><ele>0.0</ele><time>2026-04-30T19:42:34.08Z</time></trkpt><trkpt lat="42.658739" lon="5.9398609"><ele>0.0</ele><time>2026-04-30T19:42:35.08Z</time></trkpt><trkpt lat="42.658773" lon="5.9399616"><ele>0.0</ele><time>2026-04-30T19:42:36.08Z</time></trkpt><trkpt lat="42.6588094" lon="5.940066"><ele>0.0</ele><time>2026-04-30T19:42:37.08Z</time></trkpt><trkpt lat="42.6588463" lon="5.940168"><ele>0.0</ele><time>2026-04-30T19:42:38.08Z</time></trkpt><trkpt lat="42.6588773" lon="5.9402796"><ele>0.0</ele><time>2026-04-30T19:42:39.081Z</time></trkpt><trkpt lat="42.6589072" lon="5.9403862"><ele>0.0</ele><time>2026-04-30T19:42:40.08Z</time></trkpt><trkpt lat="42.6589575" lon="5.9404853"><ele>0.0</ele><time>2026-04-30T19:42:41.081Z</time></trkpt><trkpt lat="42.6590094" lon="5.9405794"><ele>0.0</ele><time>2026-04-30T19:42:42.081Z</time></trkpt><trkpt lat="42.6590441" lon="5.94068"><ele>0.0</ele><time>2026-04-30T19:42:43.08Z</time></trkpt><trkpt lat="42.6590808" lon="5.9407886"><ele>0.0</ele><time>2026-04-30T19:42:44.08Z</time></trkpt><trkpt lat="42.6591116" lon="5.9408998"><ele>0.0</ele><time>2026-04-30T19:42:45.081Z</time></trkpt><trkpt lat="42.6591303" lon="5.9410061"><ele>0.0</ele><time>2026-04-30T19:42:46.081Z</time></trkpt><trkpt lat="42.6591623" lon="5.9411127"><ele>0.0</ele><time>2026-04-30T19:42:47.081Z</time></trkpt><trkpt lat="42.6591928" lon="5.9412178"><ele>0.0</ele><time>2026-04-30T19:42:48.081Z</time></trkpt><trkpt lat="42.6592321" lon="5.9413216"><ele>0.0</ele><time>2026-04-30T19:42:49.08Z</time></trkpt><trkpt lat="42.6592724" lon="5.941427"><ele>0.0</ele><time>2026-04-30T19:42:50.081Z</time></trkpt><trkpt lat="42.6593125" lon="5.9415318"><ele>0.0</ele><time>2026-04-30T19:42:51.08Z</time></trkpt><trkpt lat="42.6593879" lon="5.941624"><ele>0.0</ele><time>2026-04-30T19:42:52.08Z</time></trkpt><trkpt lat="42.6594718" lon="5.941826"><ele>0.0</ele><time>2026-04-30T19:42:54.08Z</time></trkpt><trkpt lat="42.6595117" lon="5.9419311"><ele>0.0</ele><time>2026-04-30T19:42:55.08Z</time></trkpt><trkpt lat="42.659549" lon="5.9420319"><ele>0.0</ele><time>2026-04-30T19:42:56.081Z</time></trkpt><trkpt lat="42.6595853" lon="5.9421347"><ele>0.0</ele><time>2026-04-30T19:42:57.081Z</time></trkpt><trkpt lat="42.6596166" lon="5.9422412"><ele>0.0</ele><time>2026-04-30T19:42:58.08Z</time></trkpt><trkpt lat="42.6596516" lon="5.9423436"><ele>0.0</ele><time>2026-04-30T19:42:59.081Z</time></trkpt><trkpt lat="42.6596879" lon="5.9424433"><ele>0.0</ele><time>2026-04-30T19:43:00.08Z</time></trkpt><trkpt lat="42.6597291" lon="5.9425434"><ele>0.0</ele><time>2026-04-30T19:43:01.08Z</time></trkpt><trkpt lat="42.6597693" lon="5.9426465"><ele>0.0</ele><time>2026-04-30T19:43:02.08Z</time></trkpt><trkpt lat="42.6598023" lon="5.9427512"><ele>0.0</ele><time>2026-04-30T19:43:03.08Z</time></trkpt><trkpt lat="42.6598412" lon="5.9428475"><ele>0.0</ele><time>2026-04-30T19:43:04.081Z</time></trkpt><trkpt lat="42.6598796" lon="5.9429513"><ele>0.0</ele><time>2026-04-30T19:43:05.08Z</time></trkpt><trkpt lat="42.6599138" lon="5.9430619"><ele>0.0</ele><time>2026-04-30T19:43:06.08Z</time></trkpt><trkpt lat="42.6599517" lon="5.943164"><ele>0.0</ele><time>2026-04-30T19:43:07.08Z</time></trkpt><trkpt lat="42.6599916" lon="5.9432656"><ele>0.0</ele><time>2026-04-30T19:43:08.08Z</time></trkpt><trkpt lat="42.6600213" lon="5.9433654"><ele>0.0</ele><time>2026-04-30T19:43:09.08Z</time></trkpt><trkpt lat="42.6600556" lon="5.9434653"><ele>0.0</ele><time>2026-04-30T19:43:10.081Z</time></trkpt><trkpt lat="42.6600934" lon="5.9435653"><ele>0.0</ele><time>2026-04-30T19:43:11.08Z</time></trkpt><trkpt lat="42.6601317" lon="5.9436681"><ele>0.0</ele><time>2026-04-30T19:43:12.081Z</time></trkpt><trkpt lat="42.6601685" lon="5.9437712"><ele>0.0</ele><time>2026-04-30T19:43:13.081Z</time></trkpt><trkpt lat="42.6602369" lon="5.9439829"><ele>0.0</ele><time>2026-04-30T19:43:15.081Z</time></trkpt><trkpt lat="42.6602643" lon="5.9440922"><ele>0.0</ele><time>2026-04-30T19:43:16.081Z</time></trkpt><trkpt lat="42.6602916" lon="5.9442008"><ele>0.0</ele><time>2026-04-30T19:43:17.081Z</time></trkpt><trkpt lat="42.6603302" lon="5.944306"><ele>0.0</ele><time>2026-04-30T19:43:18.081Z</time></trkpt><trkpt lat="42.6603728" lon="5.9444117"><ele>0.0</ele><time>2026-04-30T19:43:19.08Z</time></trkpt><trkpt lat="42.6604102" lon="5.9445123"><ele>0.0</ele><time>2026-04-30T19:43:20.08Z</time></trkpt><trkpt lat="42.6604421" lon="5.9446138"><ele>0.0</ele><time>2026-04-30T19:43:21.081Z</time></trkpt><trkpt lat="42.6604752" lon="5.9447111"><ele>0.0</ele><time>2026-04-30T19:43:22.081Z</time></trkpt><trkpt lat="42.660485" lon="5.9448192"><ele>0.0</ele><time>2026-04-30T19:43:23.081Z</time></trkpt><trkpt lat="42.6605057" lon="5.9449319"><ele>0.0</ele><time>2026-04-30T19:43:24.081Z</time></trkpt><trkpt lat="42.6605356" lon="5.9450353"><ele>0.0</ele><time>2026-04-30T19:43:25.08Z</time></trkpt><trkpt lat="42.66056" lon="5.9451525"><ele>0.0</ele><time>2026-04-30T19:43:26.08Z</time></trkpt><trkpt lat="42.6605696" lon="5.9452613"><ele>0.0</ele><time>2026-04-30T19:43:27.08Z</time></trkpt><trkpt lat="42.6605889" lon="5.9453659"><ele>0.0</ele><time>2026-04-30T19:43:28.081Z</time></trkpt><trkpt lat="42.6606139" lon="5.9454743"><ele>0.0</ele><time>2026-04-30T19:43:29.081Z</time></trkpt><trkpt lat="42.6606348" lon="5.9455811"><ele>0.0</ele><time>2026-04-30T19:43:30.08Z</time></trkpt><trkpt lat="42.660662" lon="5.9456862"><ele>0.0</ele><time>2026-04-30T19:43:31.081Z</time></trkpt><trkpt lat="42.6606893" lon="5.9457939"><ele>0.0</ele><time>2026-04-30T19:43:32.081Z</time></trkpt><trkpt lat="42.6607058" lon="5.9458952"><ele>0.0</ele><time>2026-04-30T19:43:33.081Z</time></trkpt><trkpt lat="42.6607293" lon="5.9459983"><ele>0.0</ele><time>2026-04-30T19:43:34.081Z</time></trkpt><trkpt lat="42.6607869" lon="5.9462035"><ele>0.0</ele><time>2026-04-30T19:43:36.081Z</time></trkpt><trkpt lat="42.6608271" lon="5.9463009"><ele>0.0</ele><time>2026-04-30T19:43:37.08Z</time></trkpt><trkpt lat="42.6608692" lon="5.9464024"><ele>0.0</ele><time>2026-04-30T19:43:38.08Z</time></trkpt><trkpt lat="42.6609108" lon="5.9465055"><ele>0.0</ele><time>2026-04-30T19:43:39.081Z</time></trkpt><trkpt lat="42.6609692" lon="5.9466055"><ele>0.0</ele><time>2026-04-30T19:43:40.08Z</time></trkpt><trkpt lat="42.661013" lon="5.9467093"><ele>0.0</ele><time>2026-04-30T19:43:41.081Z</time></trkpt><trkpt lat="42.6610531" lon="5.9468161"><ele>0.0</ele><time>2026-04-30T19:43:42.081Z</time></trkpt><trkpt lat="42.661094" lon="5.9469156"><ele>0.0</ele><time>2026-04-30T19:43:43.08Z</time></trkpt><trkpt lat="42.6611303" lon="5.9470216"><ele>0.0</ele><time>2026-04-30T19:43:44.08Z</time></trkpt><trkpt lat="42.6611724" lon="5.9471251"><ele>0.0</ele><time>2026-04-30T19:43:45.081Z</time></trkpt><trkpt lat="42.6612199" lon="5.9472294"><ele>0.0</ele><time>2026-04-30T19:43:46.081Z</time></trkpt><trkpt lat="42.6612635" lon="5.947333"><ele>0.0</ele><time>2026-04-30T19:43:47.081Z</time></trkpt><trkpt lat="42.6613053" lon="5.9474297"><ele>0.0</ele><time>2026-04-30T19:43:48.08Z</time></trkpt><trkpt lat="42.6613544" lon="5.9475247"><ele>0.0</ele><time>2026-04-30T19:43:49.081Z</time></trkpt><trkpt lat="42.6613961" lon="5.9476267"><ele>0.0</ele><time>2026-04-30T19:43:50.08Z</time></trkpt><trkpt lat="42.6614389" lon="5.9477229"><ele>0.0</ele><time>2026-04-30T19:43:51.081Z</time></trkpt><trkpt lat="42.6614763" lon="5.9478266"><ele>0.0</ele><time>2026-04-30T19:43:52.08Z</time></trkpt><trkpt lat="42.6615284" lon="5.9479157"><ele>0.0</ele><time>2026-04-30T19:43:53.081Z</time></trkpt><trkpt lat="42.6615751" lon="5.9480168"><ele>0.0</ele><time>2026-04-30T19:43:54.081Z</time></trkpt><trkpt lat="42.6616981" lon="5.9483254"><ele>0.0</ele><time>2026-04-30T19:43:57.08Z</time></trkpt><trkpt lat="42.66173" lon="5.9484266"><ele>0.0</ele><time>2026-04-30T19:43:58.081Z</time></trkpt><trkpt lat="42.6617744" lon="5.9485225"><ele>0.0</ele><time>2026-04-30T19:43:59.081Z</time></trkpt><trkpt lat="42.6618225" lon="5.9486217"><ele>0.0</ele><time>2026-04-30T19:44:00.08Z</time></trkpt><trkpt lat="42.6618711" lon="5.9487202"><ele>0.0</ele><time>2026-04-30T19:44:01.081Z</time></trkpt><trkpt lat="42.6619126" lon="5.9488202"><ele>0.0</ele><time>2026-04-30T19:44:02.08Z</time></trkpt><trkpt lat="42.6619467" lon="5.9489246"><ele>0.0</ele><time>2026-04-30T19:44:03.08Z</time></trkpt><trkpt lat="42.6619867" lon="5.949026"><ele>0.0</ele><time>2026-04-30T19:44:04.08Z</time></trkpt><trkpt lat="42.662031" lon="5.9491335"><ele>0.0</ele><time>2026-04-30T19:44:05.08Z</time></trkpt><trkpt lat="42.6620761" lon="5.9492324"><ele>0.0</ele><time>2026-04-30T19:44:06.08Z</time></trkpt><trkpt lat="42.662144" lon="5.9493263"><ele>0.0</ele><time>2026-04-30T19:44:07.08Z</time></trkpt><trkpt lat="42.6622028" lon="5.9494227"><ele>0.0</ele><time>2026-04-30T19:44:08.08Z</time></trkpt><trkpt lat="42.6622422" lon="5.9495252"><ele>0.0</ele><time>2026-04-30T19:44:09.08Z</time></trkpt><trkpt lat="42.6622698" lon="5.9496241"><ele>0.0</ele><time>2026-04-30T19:44:10.08Z</time></trkpt><trkpt lat="42.6623103" lon="5.949722"><ele>0.0</ele><time>2026-04-30T19:44:11.08Z</time></trkpt><trkpt lat="42.6623527" lon="5.9498219"><ele>0.0</ele><time>2026-04-30T19:44:12.08Z</time></trkpt><trkpt lat="42.6623902" lon="5.949925"><ele>0.0</ele><time>2026-04-30T19:44:13.08Z</time></trkpt><trkpt lat="42.6624265" lon="5.9500269"><ele>0.0</ele><time>2026-04-30T19:44:14.081Z</time></trkpt><trkpt lat="42.6624629" lon="5.9501281"><ele>0.0</ele><time>2026-04-30T19:44:15.08Z</time></trkpt><trkpt lat="42.6624984" lon="5.9502332"><ele>0.0</ele><time>2026-04-30T19:44:16.079Z</time></trkpt><trkpt lat="42.6625766" lon="5.9504411"><ele>0.0</ele><time>2026-04-30T19:44:18.079Z</time></trkpt><trkpt lat="42.6626124" lon="5.950549"><ele>0.0</ele><time>2026-04-30T19:44:19.079Z</time></trkpt><trkpt lat="42.6626461" lon="5.9506572"><ele>0.0</ele><time>2026-04-30T19:44:20.08Z</time></trkpt><trkpt lat="42.6626822" lon="5.9507658"><ele>0.0</ele><time>2026-04-30T19:44:21.08Z</time></trkpt><trkpt lat="42.6627116" lon="5.9508783"><ele>0.0</ele><time>2026-04-30T19:44:22.079Z</time></trkpt><trkpt lat="42.6627385" lon="5.9509844"><ele>0.0</ele><time>2026-04-30T19:44:23.079Z</time></trkpt><trkpt lat="42.662764" lon="5.9510894"><ele>0.0</ele><time>2026-04-30T19:44:24.079Z</time></trkpt><trkpt lat="42.6627989" lon="5.951193"><ele>0.0</ele><time>2026-04-30T19:44:25.08Z</time></trkpt><trkpt lat="42.6628355" lon="5.9512963"><ele>0.0</ele><time>2026-04-30T19:44:26.079Z</time></trkpt><trkpt lat="42.6628755" lon="5.9513982"><ele>0.0</ele><time>2026-04-30T19:44:27.08Z</time></trkpt><trkpt lat="42.6629496" lon="5.9516095"><ele>0.0</ele><time>2026-04-30T19:44:29.079Z</time></trkpt><trkpt lat="42.6629889" lon="5.9517119"><ele>0.0</ele><time>2026-04-30T19:44:30.079Z</time></trkpt><trkpt lat="42.6630263" lon="5.9518133"><ele>0.0</ele><time>2026-04-30T19:44:31.079Z</time></trkpt><trkpt lat="42.6630652" lon="5.9519193"><ele>0.0</ele><time>2026-04-30T19:44:32.08Z</time></trkpt><trkpt lat="42.6631092" lon="5.9520264"><ele>0.0</ele><time>2026-04-30T19:44:33.079Z</time></trkpt><trkpt lat="42.6631471" lon="5.9521292"><ele>0.0</ele><time>2026-04-30T19:44:34.079Z</time></trkpt><trkpt lat="42.663185" lon="5.9522287"><ele>0.0</ele><time>2026-04-30T19:44:35.08Z</time></trkpt><trkpt lat="42.6632221" lon="5.9523299"><ele>0.0</ele><time>2026-04-30T19:44:36.08Z</time></trkpt><trkpt lat="42.6632559" lon="5.9524304"><ele>0.0</ele><time>2026-04-30T19:44:37.08Z</time></trkpt><trkpt lat="42.663359" lon="5.9526251"><ele>0.0</ele><time>2026-04-30T19:44:39.079Z</time></trkpt><trkpt lat="42.6634049" lon="5.9527278"><ele>0.0</ele><time>2026-04-30T19:44:40.079Z</time></trkpt><trkpt lat="42.6634458" lon="5.9528315"><ele>0.0</ele><time>2026-04-30T19:44:41.08Z</time></trkpt><trkpt lat="42.6634884" lon="5.9529319"><ele>0.0</ele><time>2026-04-30T19:44:42.079Z</time></trkpt><trkpt lat="42.6635474" lon="5.9530319"><ele>0.0</ele><time>2026-04-30T19:44:43.079Z</time></trkpt><trkpt lat="42.6635901" lon="5.9531334"><ele>0.0</ele><time>2026-04-30T19:44:44.08Z</time></trkpt><trkpt lat="42.6636289" lon="5.9532337"><ele>0.0</ele><time>2026-04-30T19:44:45.079Z</time></trkpt><trkpt lat="42.6636672" lon="5.9533349"><ele>0.0</ele><time>2026-04-30T19:44:46.08Z</time></trkpt><trkpt lat="42.6636888" lon="5.9534421"><ele>0.0</ele><time>2026-04-30T19:44:47.079Z</time></trkpt><trkpt lat="42.6637188" lon="5.953545"><ele>0.0</ele><time>2026-04-30T19:44:48.079Z</time></trkpt><trkpt lat="42.6637575" lon="5.9536457"><ele>0.0</ele><time>2026-04-30T19:44:49.08Z</time></trkpt><trkpt lat="42.663793" lon="5.9537452"><ele>0.0</ele><time>2026-04-30T19:44:50.079Z</time></trkpt><trkpt lat="42.6638319" lon="5.9538482"><ele>0.0</ele><time>2026-04-30T19:44:51.079Z</time></trkpt><trkpt lat="42.6638764" lon="5.9539514"><ele>0.0</ele><time>2026-04-30T19:44:52.079Z</time></trkpt><trkpt lat="42.6639213" lon="5.9540475"><ele>0.0</ele><time>2026-04-30T19:44:53.079Z</time></trkpt><trkpt lat="42.6639659" lon="5.9541508"><ele>0.0</ele><time>2026-04-30T19:44:54.079Z</time></trkpt><trkpt lat="42.664011" lon="5.9542608"><ele>0.0</ele><time>2026-04-30T19:44:55.08Z</time></trkpt><trkpt lat="42.6640629" lon="5.9543678"><ele>0.0</ele><time>2026-04-30T19:44:56.08Z</time></trkpt><trkpt lat="42.6641129" lon="5.9544747"><ele>0.0</ele><time>2026-04-30T19:44:57.079Z</time></trkpt><trkpt lat="42.6641868" lon="5.9546846"><ele>0.0</ele><time>2026-04-30T19:44:59.08Z</time></trkpt><trkpt lat="42.6642239" lon="5.9547891"><ele>0.0</ele><time>2026-04-30T19:45:00.079Z</time></trkpt><trkpt lat="42.6642649" lon="5.9548888"><ele>0.0</ele><time>2026-04-30T19:45:01.079Z</time></trkpt><trkpt lat="42.6643048" lon="5.954997"><ele>0.0</ele><time>2026-04-30T19:45:02.08Z</time></trkpt><trkpt lat="42.6643447" lon="5.9551051"><ele>0.0</ele><time>2026-04-30T19:45:03.079Z</time></trkpt><trkpt lat="42.664363" lon="5.9552155"><ele>0.0</ele><time>2026-04-30T19:45:04.079Z</time></trkpt><trkpt lat="42.6643888" lon="5.9553225"><ele>0.0</ele><time>2026-04-30T19:45:05.079Z</time></trkpt><trkpt lat="42.6644043" lon="5.9554291"><ele>0.0</ele><time>2026-04-30T19:45:06.079Z</time></trkpt><trkpt lat="42.6644201" lon="5.9555362"><ele>0.0</ele><time>2026-04-30T19:45:07.079Z</time></trkpt><trkpt lat="42.6644523" lon="5.9556372"><ele>0.0</ele><time>2026-04-30T19:45:08.079Z</time></trkpt><trkpt lat="42.6644772" lon="5.9557413"><ele>0.0</ele><time>2026-04-30T19:45:09.079Z</time></trkpt><trkpt lat="42.6644909" lon="5.9558462"><ele>0.0</ele><time>2026-04-30T19:45:10.079Z</time></trkpt><trkpt lat="42.6645207" lon="5.9559512"><ele>0.0</ele><time>2026-04-30T19:45:11.08Z</time></trkpt><trkpt lat="42.6645552" lon="5.9560564"><ele>0.0</ele><time>2026-04-30T19:45:12.08Z</time></trkpt><trkpt lat="42.6645901" lon="5.9561628"><ele>0.0</ele><time>2026-04-30T19:45:13.08Z</time></trkpt><trkpt lat="42.6646268" lon="5.9562694"><ele>0.0</ele><time>2026-04-30T19:45:14.08Z</time></trkpt><trkpt lat="42.6646631" lon="5.9563718"><ele>0.0</ele><time>2026-04-30T19:45:15.079Z</time></trkpt><trkpt lat="42.6646986" lon="5.9564737"><ele>0.0</ele><time>2026-04-30T19:45:16.079Z</time></trkpt><trkpt lat="42.664738" lon="5.956577"><ele>0.0</ele><time>2026-04-30T19:45:17.079Z</time></trkpt><trkpt lat="42.664773" lon="5.9566846"><ele>0.0</ele><time>2026-04-30T19:45:18.079Z</time></trkpt><trkpt lat="42.6648905" lon="5.9568759"><ele>0.0</ele><time>2026-04-30T19:45:20.08Z</time></trkpt><trkpt lat="42.6649271" lon="5.9569772"><ele>0.0</ele><time>2026-04-30T19:45:21.079Z</time></trkpt><trkpt lat="42.6649659" lon="5.9570788"><ele>0.0</ele><time>2026-04-30T19:45:22.079Z</time></trkpt><trkpt lat="42.6650114" lon="5.9571774"><ele>0.0</ele><time>2026-04-30T19:45:23.079Z</time></trkpt><trkpt lat="42.6650454" lon="5.9572789"><ele>0.0</ele><time>2026-04-30T19:45:24.08Z</time></trkpt><trkpt lat="42.66508" lon="5.9573876"><ele>0.0</ele><time>2026-04-30T19:45:25.079Z</time></trkpt><trkpt lat="42.6651112" lon="5.9574876"><ele>0.0</ele><time>2026-04-30T19:45:26.079Z</time></trkpt><trkpt lat="42.6651391" lon="5.9575886"><ele>0.0</ele><time>2026-04-30T19:45:27.079Z</time></trkpt><trkpt lat="42.6651752" lon="5.9576931"><ele>0.0</ele><time>2026-04-30T19:45:28.079Z</time></trkpt><trkpt lat="42.6652446" lon="5.9577887"><ele>0.0</ele><time>2026-04-30T19:45:29.079Z</time></trkpt><trkpt lat="42.6652918" lon="5.9578872"><ele>0.0</ele><time>2026-04-30T19:45:30.079Z</time></trkpt><trkpt lat="42.6653227" lon="5.9579884"><ele>0.0</ele><time>2026-04-30T19:45:31.079Z</time></trkpt><trkpt lat="42.6654217" lon="5.9581712"><ele>0.0</ele><time>2026-04-30T19:45:33.079Z</time></trkpt><trkpt lat="42.6654557" lon="5.9582681"><ele>0.0</ele><time>2026-04-30T19:45:34.08Z</time></trkpt><trkpt lat="42.6654863" lon="5.9583699"><ele>0.0</ele><time>2026-04-30T19:45:35.08Z</time></trkpt><trkpt lat="42.6655177" lon="5.9584748"><ele>0.0</ele><time>2026-04-30T19:45:36.079Z</time></trkpt><trkpt lat="42.665549" lon="5.9585817"><ele>0.0</ele><time>2026-04-30T19:45:37.08Z</time></trkpt><trkpt lat="42.6655847" lon="5.9586878"><ele>0.0</ele><time>2026-04-30T19:45:38.079Z</time></trkpt><trkpt lat="42.6656225" lon="5.9587915"><ele>0.0</ele><time>2026-04-30T19:45:39.08Z</time></trkpt><trkpt lat="42.6656909" lon="5.9589967"><ele>0.0</ele><time>2026-04-30T19:45:41.079Z</time></trkpt><trkpt lat="42.6657245" lon="5.9591014"><ele>0.0</ele><time>2026-04-30T19:45:42.08Z</time></trkpt><trkpt lat="42.6657761" lon="5.9591993"><ele>0.0</ele><time>2026-04-30T19:45:43.079Z</time></trkpt><trkpt lat="42.6658018" lon="5.9592991"><ele>0.0</ele><time>2026-04-30T19:45:44.079Z</time></trkpt><trkpt lat="42.6658323" lon="5.9593989"><ele>0.0</ele><time>2026-04-30T19:45:45.079Z</time></trkpt><trkpt lat="42.6658686" lon="5.9595029"><ele>0.0</ele><time>2026-04-30T19:45:46.079Z</time></trkpt><trkpt lat="42.6659028" lon="5.9596075"><ele>0.0</ele><time>2026-04-30T19:45:47.08Z</time></trkpt><trkpt lat="42.6659379" lon="5.9597123"><ele>0.0</ele><time>2026-04-30T19:45:48.08Z</time></trkpt><trkpt lat="42.66597" lon="5.9598218"><ele>0.0</ele><time>2026-04-30T19:45:49.079Z</time></trkpt><trkpt lat="42.665996" lon="5.9599289"><ele>0.0</ele><time>2026-04-30T19:45:50.08Z</time></trkpt><trkpt lat="42.6660334" lon="5.96003"><ele>0.0</ele><time>2026-04-30T19:45:51.079Z</time></trkpt><trkpt lat="42.666082" lon="5.9601303"><ele>0.0</ele><time>2026-04-30T19:45:52.079Z</time></trkpt><trkpt lat="42.6661135" lon="5.9602374"><ele>0.0</ele><time>2026-04-30T19:45:53.079Z</time></trkpt><trkpt lat="42.6661519" lon="5.9603399"><ele>0.0</ele><time>2026-04-30T19:45:54.079Z</time></trkpt><trkpt lat="42.6661944" lon="5.9604401"><ele>0.0</ele><time>2026-04-30T19:45:55.079Z</time></trkpt><trkpt lat="42.6662248" lon="5.9605405"><ele>0.0</ele><time>2026-04-30T19:45:56.079Z</time></trkpt><trkpt lat="42.6662603" lon="5.960649"><ele>0.0</ele><time>2026-04-30T19:45:57.079Z</time></trkpt><trkpt lat="42.6662934" lon="5.9607604"><ele>0.0</ele><time>2026-04-30T19:45:58.08Z</time></trkpt><trkpt lat="42.6663161" lon="5.9608673"><ele>0.0</ele><time>2026-04-30T19:45:59.079Z</time></trkpt><trkpt lat="42.6663519" lon="5.9609757"><ele>0.0</ele><time>2026-04-30T19:46:00.079Z</time></trkpt><trkpt lat="42.6664207" lon="5.9611885"><ele>0.0</ele><time>2026-04-30T19:46:02.079Z</time></trkpt><trkpt lat="42.6664531" lon="5.9612961"><ele>0.0</ele><time>2026-04-30T19:46:03.08Z</time></trkpt><trkpt lat="42.6665031" lon="5.9613944"><ele>0.0</ele><time>2026-04-30T19:46:04.079Z</time></trkpt><trkpt lat="42.6665368" lon="5.9614938"><ele>0.0</ele><time>2026-04-30T19:46:05.08Z</time></trkpt><trkpt lat="42.6665883" lon="5.9615925"><ele>0.0</ele><time>2026-04-30T19:46:06.079Z</time></trkpt><trkpt lat="42.6666274" lon="5.9616968"><ele>0.0</ele><time>2026-04-30T19:46:07.079Z</time></trkpt><trkpt lat="42.6666872" lon="5.961795"><ele>0.0</ele><time>2026-04-30T19:46:08.079Z</time></trkpt><trkpt lat="42.6667502" lon="5.9618903"><ele>0.0</ele><time>2026-04-30T19:46:09.079Z</time></trkpt><trkpt lat="42.6667784" lon="5.9619964"><ele>0.0</ele><time>2026-04-30T19:46:10.08Z</time></trkpt><trkpt lat="42.6668173" lon="5.9620941"><ele>0.0</ele><time>2026-04-30T19:46:11.08Z</time></trkpt><trkpt lat="42.666846" lon="5.9621956"><ele>0.0</ele><time>2026-04-30T19:46:12.08Z</time></trkpt><trkpt lat="42.6668667" lon="5.9622967"><ele>0.0</ele><time>2026-04-30T19:46:13.079Z</time></trkpt><trkpt lat="42.6668936" lon="5.9623982"><ele>0.0</ele><time>2026-04-30T19:46:14.08Z</time></trkpt><trkpt lat="42.6669277" lon="5.9625002"><ele>0.0</ele><time>2026-04-30T19:46:15.079Z</time></trkpt><trkpt lat="42.6669689" lon="5.9625977"><ele>0.0</ele><time>2026-04-30T19:46:16.079Z</time></trkpt><trkpt lat="42.6669977" lon="5.9627003"><ele>0.0</ele><time>2026-04-30T19:46:17.079Z</time></trkpt><trkpt lat="42.6670217" lon="5.9628067"><ele>0.0</ele><time>2026-04-30T19:46:18.08Z</time></trkpt><trkpt lat="42.6670423" lon="5.962907"><ele>0.0</ele><time>2026-04-30T19:46:19.079Z</time></trkpt><trkpt lat="42.6670717" lon="5.9630086"><ele>0.0</ele><time>2026-04-30T19:46:20.08Z</time></trkpt><trkpt lat="42.6671059" lon="5.9631106"><ele>0.0</ele><time>2026-04-30T19:46:21.08Z</time></trkpt><trkpt lat="42.6671783" lon="5.9633256"><ele>0.0</ele><time>2026-04-30T19:46:23.079Z</time></trkpt><trkpt lat="42.6672276" lon="5.963424"><ele>0.0</ele><time>2026-04-30T19:46:24.08Z</time></trkpt><trkpt lat="42.6672633" lon="5.9635241"><ele>0.0</ele><time>2026-04-30T19:46:25.08Z</time></trkpt><trkpt lat="42.6672826" lon="5.963616"><ele>0.0</ele><time>2026-04-30T19:46:26.079Z</time></trkpt><trkpt lat="42.6672936" lon="5.9637046"><ele>0.0</ele><time>2026-04-30T19:46:27.08Z</time></trkpt><trkpt lat="42.6673275" lon="5.9638183"><ele>0.0</ele><time>2026-04-30T19:46:28.08Z</time></trkpt><trkpt lat="42.6673659" lon="5.9639394"><ele>0.0</ele><time>2026-04-30T19:46:29.08Z</time></trkpt><trkpt lat="42.6674196" lon="5.9640436"><ele>0.0</ele><time>2026-04-30T19:46:30.079Z</time></trkpt><trkpt lat="42.6674605" lon="5.9641526"><ele>0.0</ele><time>2026-04-30T19:46:31.079Z</time></trkpt><trkpt lat="42.6674973" lon="5.9642651"><ele>0.0</ele><time>2026-04-30T19:46:32.08Z</time></trkpt><trkpt lat="42.6675319" lon="5.9643741"><ele>0.0</ele><time>2026-04-30T19:46:33.079Z</time></trkpt><trkpt lat="42.6675835" lon="5.964474"><ele>0.0</ele><time>2026-04-30T19:46:34.08Z</time></trkpt><trkpt lat="42.6676845" lon="5.9646758"><ele>0.0</ele><time>2026-04-30T19:46:36.079Z</time></trkpt><trkpt lat="42.6677227" lon="5.9647854"><ele>0.0</ele><time>2026-04-30T19:46:37.08Z</time></trkpt><trkpt lat="42.6677531" lon="5.964896"><ele>0.0</ele><time>2026-04-30T19:46:38.079Z</time></trkpt><trkpt lat="42.6677797" lon="5.9650074"><ele>0.0</ele><time>2026-04-30T19:46:39.08Z</time></trkpt><trkpt lat="42.6678072" lon="5.9651206"><ele>0.0</ele><time>2026-04-30T19:46:40.079Z</time></trkpt><trkpt lat="42.6678413" lon="5.9652309"><ele>0.0</ele><time>2026-04-30T19:46:41.08Z</time></trkpt><trkpt lat="42.6678765" lon="5.9653323"><ele>0.0</ele><time>2026-04-30T19:46:42.08Z</time></trkpt><trkpt lat="42.6679691" lon="5.9655301"><ele>0.0</ele><time>2026-04-30T19:46:44.079Z</time></trkpt><trkpt lat="42.6680067" lon="5.9656336"><ele>0.0</ele><time>2026-04-30T19:46:45.079Z</time></trkpt><trkpt lat="42.6680391" lon="5.9657309"><ele>0.0</ele><time>2026-04-30T19:46:46.08Z</time></trkpt><trkpt lat="42.6680932" lon="5.9658247"><ele>0.0</ele><time>2026-04-30T19:46:47.079Z</time></trkpt><trkpt lat="42.6681271" lon="5.9659293"><ele>0.0</ele><time>2026-04-30T19:46:48.079Z</time></trkpt><trkpt lat="42.6681574" lon="5.9660362"><ele>0.0</ele><time>2026-04-30T19:46:49.08Z</time></trkpt><trkpt lat="42.6681879" lon="5.9661457"><ele>0.0</ele><time>2026-04-30T19:46:50.079Z</time></trkpt><trkpt lat="42.6682148" lon="5.9662525"><ele>0.0</ele><time>2026-04-30T19:46:51.079Z</time></trkpt><trkpt lat="42.6682355" lon="5.9663594"><ele>0.0</ele><time>2026-04-30T19:46:52.08Z</time></trkpt><trkpt lat="42.6682638" lon="5.9664621"><ele>0.0</ele><time>2026-04-30T19:46:53.079Z</time></trkpt><trkpt lat="42.6682983" lon="5.9665639"><ele>0.0</ele><time>2026-04-30T19:46:54.079Z</time></trkpt><trkpt lat="42.668336" lon="5.9666626"><ele>0.0</ele><time>2026-04-30T19:46:55.079Z</time></trkpt><trkpt lat="42.6683702" lon="5.9667608"><ele>0.0</ele><time>2026-04-30T19:46:56.08Z</time></trkpt><trkpt lat="42.668401" lon="5.9668588"><ele>0.0</ele><time>2026-04-30T19:46:57.079Z</time></trkpt><trkpt lat="42.6684413" lon="5.9669615"><ele>0.0</ele><time>2026-04-30T19:46:58.079Z</time></trkpt><trkpt lat="42.6684845" lon="5.9670577"><ele>0.0</ele><time>2026-04-30T19:46:59.079Z</time></trkpt><trkpt lat="42.66852" lon="5.9671637"><ele>0.0</ele><time>2026-04-30T19:47:00.08Z</time></trkpt><trkpt lat="42.6685577" lon="5.9672707"><ele>0.0</ele><time>2026-04-30T19:47:01.08Z</time></trkpt><trkpt lat="42.6685918" lon="5.9673745"><ele>0.0</ele><time>2026-04-30T19:47:02.08Z</time></trkpt><trkpt lat="42.6686247" lon="5.967479"><ele>0.0</ele><time>2026-04-30T19:47:03.079Z</time></trkpt><trkpt lat="42.6686935" lon="5.9676811"><ele>0.0</ele><time>2026-04-30T19:47:05.079Z</time></trkpt><trkpt lat="42.6687247" lon="5.9677801"><ele>0.0</ele><time>2026-04-30T19:47:06.079Z</time></trkpt><trkpt lat="42.6687968" lon="5.9679821"><ele>0.0</ele><time>2026-04-30T19:47:08.079Z</time></trkpt><trkpt lat="42.6688381" lon="5.9680792"><ele>0.0</ele><time>2026-04-30T19:47:09.08Z</time></trkpt><trkpt lat="42.6688748" lon="5.9681782"><ele>0.0</ele><time>2026-04-30T19:47:10.08Z</time></trkpt><trkpt lat="42.6689164" lon="5.9682786"><ele>0.0</ele><time>2026-04-30T19:47:11.079Z</time></trkpt><trkpt lat="42.6689846" lon="5.9683758"><ele>0.0</ele><time>2026-04-30T19:47:12.079Z</time></trkpt><trkpt lat="42.6690348" lon="5.9684797"><ele>0.0</ele><time>2026-04-30T19:47:13.079Z</time></trkpt><trkpt lat="42.6690768" lon="5.9685828"><ele>0.0</ele><time>2026-04-30T19:47:14.08Z</time></trkpt><trkpt lat="42.6691281" lon="5.9686748"><ele>0.0</ele><time>2026-04-30T19:47:15.079Z</time></trkpt><trkpt lat="42.6691672" lon="5.9687692"><ele>0.0</ele><time>2026-04-30T19:47:16.079Z</time></trkpt><trkpt lat="42.6692122" lon="5.9688731"><ele>0.0</ele><time>2026-04-30T19:47:17.079Z</time></trkpt><trkpt lat="42.6692448" lon="5.9689734"><ele>0.0</ele><time>2026-04-30T19:47:18.079Z</time></trkpt><trkpt lat="42.6692753" lon="5.9690683"><ele>0.0</ele><time>2026-04-30T19:47:19.08Z</time></trkpt><trkpt lat="42.6693154" lon="5.9691712"><ele>0.0</ele><time>2026-04-30T19:47:20.079Z</time></trkpt><trkpt lat="42.6693552" lon="5.9692718"><ele>0.0</ele><time>2026-04-30T19:47:21.079Z</time></trkpt><trkpt lat="42.669398" lon="5.9693746"><ele>0.0</ele><time>2026-04-30T19:47:22.08Z</time></trkpt><trkpt lat="42.6694396" lon="5.9694735"><ele>0.0</ele><time>2026-04-30T19:47:23.08Z</time></trkpt><trkpt lat="42.669477" lon="5.9695805"><ele>0.0</ele><time>2026-04-30T19:47:24.08Z</time></trkpt><trkpt lat="42.6695564" lon="5.9697818"><ele>0.0</ele><time>2026-04-30T19:47:26.08Z</time></trkpt><trkpt lat="42.6695955" lon="5.9698815"><ele>0.0</ele><time>2026-04-30T19:47:27.079Z</time></trkpt><trkpt lat="42.669634" lon="5.9699824"><ele>0.0</ele><time>2026-04-30T19:47:28.079Z</time></trkpt><trkpt lat="42.6696695" lon="5.9700902"><ele>0.0</ele><time>2026-04-30T19:47:29.079Z</time></trkpt><trkpt lat="42.6697043" lon="5.9702032"><ele>0.0</ele><time>2026-04-30T19:47:30.08Z</time></trkpt><trkpt lat="42.6697461" lon="5.9703078"><ele>0.0</ele><time>2026-04-30T19:47:31.079Z</time></trkpt><trkpt lat="42.6697906" lon="5.9704081"><ele>0.0</ele><time>2026-04-30T19:47:32.079Z</time></trkpt><trkpt lat="42.6698592" lon="5.9705003"><ele>0.0</ele><time>2026-04-30T19:47:33.079Z</time></trkpt><trkpt lat="42.6698959" lon="5.9705934"><ele>0.0</ele><time>2026-04-30T19:47:34.079Z</time></trkpt><trkpt lat="42.6699334" lon="5.9706979"><ele>0.0</ele><time>2026-04-30T19:47:35.079Z</time></trkpt><trkpt lat="42.6699985" lon="5.9707874"><ele>0.0</ele><time>2026-04-30T19:47:36.079Z</time></trkpt><trkpt lat="42.6700571" lon="5.9708811"><ele>0.0</ele><time>2026-04-30T19:47:37.08Z</time></trkpt><trkpt lat="42.6701006" lon="5.9709823"><ele>0.0</ele><time>2026-04-30T19:47:38.079Z</time></trkpt><trkpt lat="42.6701938" lon="5.9711699"><ele>0.0</ele><time>2026-04-30T19:47:40.08Z</time></trkpt><trkpt lat="42.6702298" lon="5.9712667"><ele>0.0</ele><time>2026-04-30T19:47:41.08Z</time></trkpt><trkpt lat="42.6702664" lon="5.9713592"><ele>0.0</ele><time>2026-04-30T19:47:42.079Z</time></trkpt><trkpt lat="42.6703038" lon="5.971447"><ele>0.0</ele><time>2026-04-30T19:47:43.08Z</time></trkpt><trkpt lat="42.670343" lon="5.9715425"><ele>0.0</ele><time>2026-04-30T19:47:44.079Z</time></trkpt><trkpt lat="42.670389" lon="5.9716409"><ele>0.0</ele><time>2026-04-30T19:47:45.079Z</time></trkpt><trkpt lat="42.6704746" lon="5.9718471"><ele>0.0</ele><time>2026-04-30T19:47:47.079Z</time></trkpt><trkpt lat="42.6705097" lon="5.9719481"><ele>0.0</ele><time>2026-04-30T19:47:48.08Z</time></trkpt><trkpt lat="42.6705262" lon="5.972048"><ele>0.0</ele><time>2026-04-30T19:47:49.079Z</time></trkpt><trkpt lat="42.6705483" lon="5.9721537"><ele>0.0</ele><time>2026-04-30T19:47:50.079Z</time></trkpt><trkpt lat="42.6705548" lon="5.9722716"><ele>0.0</ele><time>2026-04-30T19:47:51.08Z</time></trkpt><trkpt lat="42.6705646" lon="5.9723812"><ele>0.0</ele><time>2026-04-30T19:47:52.08Z</time></trkpt><trkpt lat="42.6705896" lon="5.9724859"><ele>0.0</ele><time>2026-04-30T19:47:53.079Z</time></trkpt><trkpt lat="42.6706287" lon="5.9725882"><ele>0.0</ele><time>2026-04-30T19:47:54.079Z</time></trkpt><trkpt lat="42.6706619" lon="5.9726981"><ele>0.0</ele><time>2026-04-30T19:47:55.079Z</time></trkpt><trkpt lat="42.6707093" lon="5.9727986"><ele>0.0</ele><time>2026-04-30T19:47:56.08Z</time></trkpt><trkpt lat="42.670749" lon="5.9728964"><ele>0.0</ele><time>2026-04-30T19:47:57.079Z</time></trkpt><trkpt lat="42.6707956" lon="5.972995"><ele>0.0</ele><time>2026-04-30T19:47:58.079Z</time></trkpt><trkpt lat="42.6708384" lon="5.9730962"><ele>0.0</ele><time>2026-04-30T19:47:59.079Z</time></trkpt><trkpt lat="42.6708785" lon="5.9731934"><ele>0.0</ele><time>2026-04-30T19:48:00.079Z</time></trkpt><trkpt lat="42.6709094" lon="5.9732974"><ele>0.0</ele><time>2026-04-30T19:48:01.08Z</time></trkpt><trkpt lat="42.6709413" lon="5.9734037"><ele>0.0</ele><time>2026-04-30T19:48:02.079Z</time></trkpt><trkpt lat="42.6709817" lon="5.9735081"><ele>0.0</ele><time>2026-04-30T19:48:03.08Z</time></trkpt><trkpt lat="42.6710232" lon="5.9736028"><ele>0.0</ele><time>2026-04-30T19:48:04.079Z</time></trkpt><trkpt lat="42.6710592" lon="5.9737104"><ele>0.0</ele><time>2026-04-30T19:48:05.079Z</time></trkpt><trkpt lat="42.6710972" lon="5.9738116"><ele>0.0</ele><time>2026-04-30T19:48:06.08Z</time></trkpt><trkpt lat="42.67118" lon="5.9740071"><ele>0.0</ele><time>2026-04-30T19:48:08.08Z</time></trkpt><trkpt lat="42.671226" lon="5.9741038"><ele>0.0</ele><time>2026-04-30T19:48:09.08Z</time></trkpt><trkpt lat="42.6712657" lon="5.9742008"><ele>0.0</ele><time>2026-04-30T19:48:10.079Z</time></trkpt><trkpt lat="42.6712968" lon="5.9743049"><ele>0.0</ele><time>2026-04-30T19:48:11.08Z</time></trkpt><trkpt lat="42.6713269" lon="5.9744114"><ele>0.0</ele><time>2026-04-30T19:48:12.079Z</time></trkpt><trkpt lat="42.6713585" lon="5.9745212"><ele>0.0</ele><time>2026-04-30T19:48:13.08Z</time></trkpt><trkpt lat="42.6714195" lon="5.9746204"><ele>0.0</ele><time>2026-04-30T19:48:14.079Z</time></trkpt><trkpt lat="42.6714577" lon="5.9747284"><ele>0.0</ele><time>2026-04-30T19:48:15.079Z</time></trkpt><trkpt lat="42.6714812" lon="5.9748354"><ele>0.0</ele><time>2026-04-30T19:48:16.08Z</time></trkpt><trkpt lat="42.6715088" lon="5.9749422"><ele>0.0</ele><time>2026-04-30T19:48:17.08Z</time></trkpt><trkpt lat="42.6715412" lon="5.9750394"><ele>0.0</ele><time>2026-04-30T19:48:18.08Z</time></trkpt><trkpt lat="42.6715742" lon="5.9751316"><ele>0.0</ele><time>2026-04-30T19:48:19.079Z</time></trkpt><trkpt lat="42.6716103" lon="5.9752241"><ele>0.0</ele><time>2026-04-30T19:48:20.079Z</time></trkpt><trkpt lat="42.6716517" lon="5.975317"><ele>0.0</ele><time>2026-04-30T19:48:21.079Z</time></trkpt><trkpt lat="42.6716922" lon="5.9754143"><ele>0.0</ele><time>2026-04-30T19:48:22.079Z</time></trkpt><trkpt lat="42.6717314" lon="5.9755142"><ele>0.0</ele><time>2026-04-30T19:48:23.08Z</time></trkpt><trkpt lat="42.6717749" lon="5.97561"><ele>0.0</ele><time>2026-04-30T19:48:24.079Z</time></trkpt><trkpt lat="42.6718212" lon="5.9757037"><ele>0.0</ele><time>2026-04-30T19:48:25.079Z</time></trkpt><trkpt lat="42.6718722" lon="5.975797"><ele>0.0</ele><time>2026-04-30T19:48:26.08Z</time></trkpt><trkpt lat="42.6719194" lon="5.9758919"><ele>0.0</ele><time>2026-04-30T19:48:27.08Z</time></trkpt><trkpt lat="42.672016" lon="5.9760836"><ele>0.0</ele><time>2026-04-30T19:48:29.08Z</time></trkpt><trkpt lat="42.6720585" lon="5.9761755"><ele>0.0</ele><time>2026-04-30T19:48:30.079Z</time></trkpt><trkpt lat="42.6720947" lon="5.9762724"><ele>0.0</ele><time>2026-04-30T19:48:31.08Z</time></trkpt><trkpt lat="42.6721269" lon="5.9763768"><ele>0.0</ele><time>2026-04-30T19:48:32.079Z</time></trkpt><trkpt lat="42.6721599" lon="5.9764759"><ele>0.0</ele><time>2026-04-30T19:48:33.079Z</time></trkpt><trkpt lat="42.6722031" lon="5.9765701"><ele>0.0</ele><time>2026-04-30T19:48:34.079Z</time></trkpt><trkpt lat="42.672254" lon="5.9766574"><ele>0.0</ele><time>2026-04-30T19:48:35.08Z</time></trkpt><trkpt lat="42.6723032" lon="5.9767437"><ele>0.0</ele><time>2026-04-30T19:48:36.08Z</time></trkpt><trkpt lat="42.6723697" lon="5.9768376"><ele>0.0</ele><time>2026-04-30T19:48:37.08Z</time></trkpt><trkpt lat="42.6724142" lon="5.9769392"><ele>0.0</ele><time>2026-04-30T19:48:38.08Z</time></trkpt><trkpt lat="42.6724658" lon="5.9770352"><ele>0.0</ele><time>2026-04-30T19:48:39.08Z</time></trkpt><trkpt lat="42.6725214" lon="5.977129"><ele>0.0</ele><time>2026-04-30T19:48:40.08Z</time></trkpt><trkpt lat="42.6725736" lon="5.9772236"><ele>0.0</ele><time>2026-04-30T19:48:41.079Z</time></trkpt><trkpt lat="42.6726145" lon="5.9773228"><ele>0.0</ele><time>2026-04-30T19:48:42.08Z</time></trkpt><trkpt lat="42.6726956" lon="5.9775244"><ele>0.0</ele><time>2026-04-30T19:48:44.08Z</time></trkpt><trkpt lat="42.6727461" lon="5.9776204"><ele>0.0</ele><time>2026-04-30T19:48:45.08Z</time></trkpt><trkpt lat="42.6727978" lon="5.9777104"><ele>0.0</ele><time>2026-04-30T19:48:46.079Z</time></trkpt><trkpt lat="42.6728506" lon="5.9778064"><ele>0.0</ele><time>2026-04-30T19:48:47.079Z</time></trkpt><trkpt lat="42.6729425" lon="5.9780024"><ele>0.0</ele><time>2026-04-30T19:48:49.079Z</time></trkpt><trkpt lat="42.6729737" lon="5.9781002"><ele>0.0</ele><time>2026-04-30T19:48:50.079Z</time></trkpt><trkpt lat="42.6730116" lon="5.9781969"><ele>0.0</ele><time>2026-04-30T19:48:51.079Z</time></trkpt><trkpt lat="42.673058" lon="5.9782977"><ele>0.0</ele><time>2026-04-30T19:48:52.079Z</time></trkpt><trkpt lat="42.673109" lon="5.9784024"><ele>0.0</ele><time>2026-04-30T19:48:53.08Z</time></trkpt><trkpt lat="42.6731593" lon="5.9785027"><ele>0.0</ele><time>2026-04-30T19:48:54.079Z</time></trkpt><trkpt lat="42.6732116" lon="5.9785942"><ele>0.0</ele><time>2026-04-30T19:48:55.079Z</time></trkpt><trkpt lat="42.6732661" lon="5.9786844"><ele>0.0</ele><time>2026-04-30T19:48:56.079Z</time></trkpt><trkpt lat="42.6733185" lon="5.9787701"><ele>0.0</ele><time>2026-04-30T19:48:57.08Z</time></trkpt><trkpt lat="42.6733661" lon="5.9788595"><ele>0.0</ele><time>2026-04-30T19:48:58.079Z</time></trkpt><trkpt lat="42.6734115" lon="5.9789523"><ele>0.0</ele><time>2026-04-30T19:48:59.079Z</time></trkpt><trkpt lat="42.6734972" lon="5.9790313"><ele>0.0</ele><time>2026-04-30T19:49:00.079Z</time></trkpt><trkpt lat="42.6735474" lon="5.9791205"><ele>0.0</ele><time>2026-04-30T19:49:01.079Z</time></trkpt><trkpt lat="42.6735945" lon="5.979219"><ele>0.0</ele><time>2026-04-30T19:49:02.079Z</time></trkpt><trkpt lat="42.673633" lon="5.9793192"><ele>0.0</ele><time>2026-04-30T19:49:03.079Z</time></trkpt><trkpt lat="42.6736791" lon="5.9794228"><ele>0.0</ele><time>2026-04-30T19:49:04.08Z</time></trkpt><trkpt lat="42.6737251" lon="5.9795285"><ele>0.0</ele><time>2026-04-30T19:49:05.08Z</time></trkpt><trkpt lat="42.6737718" lon="5.9796329"><ele>0.0</ele><time>2026-04-30T19:49:06.079Z</time></trkpt><trkpt lat="42.6738179" lon="5.9797318"><ele>0.0</ele><time>2026-04-30T19:49:07.079Z</time></trkpt><trkpt lat="42.6738614" lon="5.9798215"><ele>0.0</ele><time>2026-04-30T19:49:08.079Z</time></trkpt><trkpt lat="42.6739356" lon="5.9800259"><ele>0.0</ele><time>2026-04-30T19:49:10.079Z</time></trkpt><trkpt lat="42.6739535" lon="5.9801378"><ele>0.0</ele><time>2026-04-30T19:49:11.079Z</time></trkpt><trkpt lat="42.6739802" lon="5.980249"><ele>0.0</ele><time>2026-04-30T19:49:12.08Z</time></trkpt><trkpt lat="42.6740109" lon="5.9803565"><ele>0.0</ele><time>2026-04-30T19:49:13.079Z</time></trkpt><trkpt lat="42.674049" lon="5.9804593"><ele>0.0</ele><time>2026-04-30T19:49:14.079Z</time></trkpt><trkpt lat="42.6741349" lon="5.9806678"><ele>0.0</ele><time>2026-04-30T19:49:16.08Z</time></trkpt><trkpt lat="42.6741752" lon="5.9807713"><ele>0.0</ele><time>2026-04-30T19:49:17.079Z</time></trkpt><trkpt lat="42.6742083" lon="5.9808673"><ele>0.0</ele><time>2026-04-30T19:49:18.08Z</time></trkpt><trkpt lat="42.6742469" lon="5.9809621"><ele>0.0</ele><time>2026-04-30T19:49:19.079Z</time></trkpt><trkpt lat="42.6742885" lon="5.9810585"><ele>0.0</ele><time>2026-04-30T19:49:20.079Z</time></trkpt><trkpt lat="42.6743332" lon="5.9811584"><ele>0.0</ele><time>2026-04-30T19:49:21.08Z</time></trkpt><trkpt lat="42.6743751" lon="5.9812561"><ele>0.0</ele><time>2026-04-30T19:49:22.079Z</time></trkpt><trkpt lat="42.6744171" lon="5.9813463"><ele>0.0</ele><time>2026-04-30T19:49:23.08Z</time></trkpt><trkpt lat="42.6744653" lon="5.9814375"><ele>0.0</ele><time>2026-04-30T19:49:24.08Z</time></trkpt><trkpt lat="42.6745096" lon="5.9815324"><ele>0.0</ele><time>2026-04-30T19:49:25.08Z</time></trkpt><trkpt lat="42.6745507" lon="5.9816343"><ele>0.0</ele><time>2026-04-30T19:49:26.08Z</time></trkpt><trkpt lat="42.6745965" lon="5.9817345"><ele>0.0</ele><time>2026-04-30T19:49:27.08Z</time></trkpt><trkpt lat="42.674646" lon="5.9818305"><ele>0.0</ele><time>2026-04-30T19:49:28.08Z</time></trkpt><trkpt lat="42.6746948" lon="5.9819268"><ele>0.0</ele><time>2026-04-30T19:49:29.08Z</time></trkpt><trkpt lat="42.6747876" lon="5.982117"><ele>0.0</ele><time>2026-04-30T19:49:31.079Z</time></trkpt><trkpt lat="42.6748314" lon="5.9822096"><ele>0.0</ele><time>2026-04-30T19:49:32.079Z</time></trkpt><trkpt lat="42.6748916" lon="5.9822968"><ele>0.0</ele><time>2026-04-30T19:49:33.079Z</time></trkpt><trkpt lat="42.6749349" lon="5.982392"><ele>0.0</ele><time>2026-04-30T19:49:34.079Z</time></trkpt><trkpt lat="42.6749814" lon="5.9824857"><ele>0.0</ele><time>2026-04-30T19:49:35.08Z</time></trkpt><trkpt lat="42.6750283" lon="5.9825805"><ele>0.0</ele><time>2026-04-30T19:49:36.079Z</time></trkpt><trkpt lat="42.6750566" lon="5.982691"><ele>0.0</ele><time>2026-04-30T19:49:37.08Z</time></trkpt><trkpt lat="42.6750858" lon="5.9828026"><ele>0.0</ele><time>2026-04-30T19:49:38.08Z</time></trkpt><trkpt lat="42.6751174" lon="5.9829142"><ele>0.0</ele><time>2026-04-30T19:49:39.079Z</time></trkpt><trkpt lat="42.6751559" lon="5.9830231"><ele>0.0</ele><time>2026-04-30T19:49:40.08Z</time></trkpt><trkpt lat="42.6751931" lon="5.9831207"><ele>0.0</ele><time>2026-04-30T19:49:41.08Z</time></trkpt><trkpt lat="42.6752295" lon="5.9832183"><ele>0.0</ele><time>2026-04-30T19:49:42.08Z</time></trkpt><trkpt lat="42.6752746" lon="5.9833179"><ele>0.0</ele><time>2026-04-30T19:49:43.079Z</time></trkpt><trkpt lat="42.6753212" lon="5.9834152"><ele>0.0</ele><time>2026-04-30T19:49:44.08Z</time></trkpt><trkpt lat="42.6753664" lon="5.983512"><ele>0.0</ele><time>2026-04-30T19:49:45.08Z</time></trkpt><trkpt lat="42.6754117" lon="5.9836115"><ele>0.0</ele><time>2026-04-30T19:49:46.08Z</time></trkpt><trkpt lat="42.6754911" lon="5.9838129"><ele>0.0</ele><time>2026-04-30T19:49:48.079Z</time></trkpt><trkpt lat="42.6755237" lon="5.9839144"><ele>0.0</ele><time>2026-04-30T19:49:49.079Z</time></trkpt><trkpt lat="42.6755531" lon="5.984017"><ele>0.0</ele><time>2026-04-30T19:49:50.079Z</time></trkpt><trkpt lat="42.675586" lon="5.9842264"><ele>0.0</ele><time>2026-04-30T19:49:52.08Z</time></trkpt><trkpt lat="42.6756225" lon="5.9843296"><ele>0.0</ele><time>2026-04-30T19:49:53.079Z</time></trkpt><trkpt lat="42.6756621" lon="5.9844304"><ele>0.0</ele><time>2026-04-30T19:49:54.08Z</time></trkpt><trkpt lat="42.6757022" lon="5.9845322"><ele>0.0</ele><time>2026-04-30T19:49:55.079Z</time></trkpt><trkpt lat="42.6757364" lon="5.9846364"><ele>0.0</ele><time>2026-04-30T19:49:56.079Z</time></trkpt><trkpt lat="42.6757706" lon="5.9847357"><ele>0.0</ele><time>2026-04-30T19:49:57.079Z</time></trkpt><trkpt lat="42.6758056" lon="5.9848364"><ele>0.0</ele><time>2026-04-30T19:49:58.079Z</time></trkpt><trkpt lat="42.6758436" lon="5.9849334"><ele>0.0</ele><time>2026-04-30T19:49:59.08Z</time></trkpt><trkpt lat="42.6758876" lon="5.9850327"><ele>0.0</ele><time>2026-04-30T19:50:00.08Z</time></trkpt><trkpt lat="42.6759353" lon="5.9851333"><ele>0.0</ele><time>2026-04-30T19:50:01.08Z</time></trkpt><trkpt lat="42.6759798" lon="5.985236"><ele>0.0</ele><time>2026-04-30T19:50:02.08Z</time></trkpt><trkpt lat="42.6760272" lon="5.9853381"><ele>0.0</ele><time>2026-04-30T19:50:03.08Z</time></trkpt><trkpt lat="42.6760703" lon="5.9854325"><ele>0.0</ele><time>2026-04-30T19:50:04.08Z</time></trkpt><trkpt lat="42.6761148" lon="5.98553"><ele>0.0</ele><time>2026-04-30T19:50:05.08Z</time></trkpt><trkpt lat="42.6761553" lon="5.9856256"><ele>0.0</ele><time>2026-04-30T19:50:06.079Z</time></trkpt><trkpt lat="42.6761997" lon="5.9857227"><ele>0.0</ele><time>2026-04-30T19:50:07.08Z</time></trkpt><trkpt lat="42.6762448" lon="5.9858221"><ele>0.0</ele><time>2026-04-30T19:50:08.08Z</time></trkpt><trkpt lat="42.6762861" lon="5.9859245"><ele>0.0</ele><time>2026-04-30T19:50:09.08Z</time></trkpt><trkpt lat="42.6763271" lon="5.9860261"><ele>0.0</ele><time>2026-04-30T19:50:10.079Z</time></trkpt><trkpt lat="42.6763686" lon="5.9861247"><ele>0.0</ele><time>2026-04-30T19:50:11.08Z</time></trkpt><trkpt lat="42.6764517" lon="5.9863186"><ele>0.0</ele><time>2026-04-30T19:50:13.08Z</time></trkpt><trkpt lat="42.6764892" lon="5.9864113"><ele>0.0</ele><time>2026-04-30T19:50:14.08Z</time></trkpt><trkpt lat="42.6765303" lon="5.9865096"><ele>0.0</ele><time>2026-04-30T19:50:15.08Z</time></trkpt><trkpt lat="42.676596" lon="5.9865943"><ele>0.0</ele><time>2026-04-30T19:50:16.08Z</time></trkpt><trkpt lat="42.6766492" lon="5.9866851"><ele>0.0</ele><time>2026-04-30T19:50:17.08Z</time></trkpt><trkpt lat="42.6766972" lon="5.9867795"><ele>0.0</ele><time>2026-04-30T19:50:18.079Z</time></trkpt><trkpt lat="42.6767947" lon="5.9869683"><ele>0.0</ele><time>2026-04-30T19:50:20.079Z</time></trkpt><trkpt lat="42.6768374" lon="5.9870661"><ele>0.0</ele><time>2026-04-30T19:50:21.08Z</time></trkpt><trkpt lat="42.6768768" lon="5.9871719"><ele>0.0</ele><time>2026-04-30T19:50:22.079Z</time></trkpt><trkpt lat="42.6769224" lon="5.987273"><ele>0.0</ele><time>2026-04-30T19:50:23.079Z</time></trkpt><trkpt lat="42.6769603" lon="5.9873707"><ele>0.0</ele><time>2026-04-30T19:50:24.079Z</time></trkpt><trkpt lat="42.6769957" lon="5.9874639"><ele>0.0</ele><time>2026-04-30T19:50:25.08Z</time></trkpt><trkpt lat="42.6770242" lon="5.9875657"><ele>0.0</ele><time>2026-04-30T19:50:26.08Z</time></trkpt><trkpt lat="42.6770604" lon="5.9876678"><ele>0.0</ele><time>2026-04-30T19:50:27.079Z</time></trkpt><trkpt lat="42.6770948" lon="5.9877683"><ele>0.0</ele><time>2026-04-30T19:50:28.079Z</time></trkpt><trkpt lat="42.6771325" lon="5.987871"><ele>0.0</ele><time>2026-04-30T19:50:29.08Z</time></trkpt><trkpt lat="42.6771494" lon="5.9879817"><ele>0.0</ele><time>2026-04-30T19:50:30.079Z</time></trkpt><trkpt lat="42.6771798" lon="5.9880863"><ele>0.0</ele><time>2026-04-30T19:50:31.079Z</time></trkpt><trkpt lat="42.6772171" lon="5.9881897"><ele>0.0</ele><time>2026-04-30T19:50:32.08Z</time></trkpt><trkpt lat="42.6773039" lon="5.988385"><ele>0.0</ele><time>2026-04-30T19:50:34.079Z</time></trkpt><trkpt lat="42.6773421" lon="5.9884792"><ele>0.0</ele><time>2026-04-30T19:50:35.08Z</time></trkpt><trkpt lat="42.6773765" lon="5.9885808"><ele>0.0</ele><time>2026-04-30T19:50:36.08Z</time></trkpt><trkpt lat="42.6774285" lon="5.9886857"><ele>0.0</ele><time>2026-04-30T19:50:37.08Z</time></trkpt><trkpt lat="42.6774709" lon="5.9887864"><ele>0.0</ele><time>2026-04-30T19:50:38.08Z</time></trkpt><trkpt lat="42.6775193" lon="5.9888804"><ele>0.0</ele><time>2026-04-30T19:50:39.079Z</time></trkpt><trkpt lat="42.6775649" lon="5.9889784"><ele>0.0</ele><time>2026-04-30T19:50:40.08Z</time></trkpt><trkpt lat="42.6776111" lon="5.9890772"><ele>0.0</ele><time>2026-04-30T19:50:41.079Z</time></trkpt><trkpt lat="42.6776578" lon="5.9891769"><ele>0.0</ele><time>2026-04-30T19:50:42.079Z</time></trkpt><trkpt lat="42.6777094" lon="5.9892725"><ele>0.0</ele><time>2026-04-30T19:50:43.079Z</time></trkpt><trkpt lat="42.6777658" lon="5.9893586"><ele>0.0</ele><time>2026-04-30T19:50:44.079Z</time></trkpt><trkpt lat="42.6778213" lon="5.9894465"><ele>0.0</ele><time>2026-04-30T19:50:45.079Z</time></trkpt><trkpt lat="42.6779221" lon="5.9895163"><ele>0.0</ele><time>2026-04-30T19:50:46.078Z</time></trkpt><trkpt lat="42.6779731" lon="5.9896057"><ele>0.0</ele><time>2026-04-30T19:50:47.079Z</time></trkpt><trkpt lat="42.6780497" lon="5.9896915"><ele>0.0</ele><time>2026-04-30T19:50:48.078Z</time></trkpt><trkpt lat="42.6781194" lon="5.9897755"><ele>0.0</ele><time>2026-04-30T19:50:49.079Z</time></trkpt><trkpt lat="42.6781717" lon="5.989879"><ele>0.0</ele><time>2026-04-30T19:50:50.079Z</time></trkpt><trkpt lat="42.678215" lon="5.9899908"><ele>0.0</ele><time>2026-04-30T19:50:51.079Z</time></trkpt><trkpt lat="42.6782564" lon="5.9900958"><ele>0.0</ele><time>2026-04-30T19:50:52.079Z</time></trkpt><trkpt lat="42.6782954" lon="5.9902061"><ele>0.0</ele><time>2026-04-30T19:50:53.078Z</time></trkpt><trkpt lat="42.6783671" lon="5.9904042"><ele>0.0</ele><time>2026-04-30T19:50:55.078Z</time></trkpt><trkpt lat="42.6784115" lon="5.9905018"><ele>0.0</ele><time>2026-04-30T19:50:56.078Z</time></trkpt><trkpt lat="42.6784605" lon="5.9906029"><ele>0.0</ele><time>2026-04-30T19:50:57.079Z</time></trkpt><trkpt lat="42.6785034" lon="5.9906989"><ele>0.0</ele><time>2026-04-30T19:50:58.078Z</time></trkpt><trkpt lat="42.6785447" lon="5.9907956"><ele>0.0</ele><time>2026-04-30T19:50:59.078Z</time></trkpt><trkpt lat="42.6785881" lon="5.9908946"><ele>0.0</ele><time>2026-04-30T19:51:00.079Z</time></trkpt><trkpt lat="42.6786329" lon="5.990993"><ele>0.0</ele><time>2026-04-30T19:51:01.079Z</time></trkpt><trkpt lat="42.6786736" lon="5.9910946"><ele>0.0</ele><time>2026-04-30T19:51:02.078Z</time></trkpt><trkpt lat="42.6787109" lon="5.9911962"><ele>0.0</ele><time>2026-04-30T19:51:03.079Z</time></trkpt><trkpt lat="42.6787633" lon="5.991292"><ele>0.0</ele><time>2026-04-30T19:51:04.079Z</time></trkpt><trkpt lat="42.678807" lon="5.9913973"><ele>0.0</ele><time>2026-04-30T19:51:05.078Z</time></trkpt><trkpt lat="42.67888" lon="5.9914895"><ele>0.0</ele><time>2026-04-30T19:51:06.079Z</time></trkpt><trkpt lat="42.6789245" lon="5.9915867"><ele>0.0</ele><time>2026-04-30T19:51:07.079Z</time></trkpt><trkpt lat="42.6789578" lon="5.9916791"><ele>0.0</ele><time>2026-04-30T19:51:08.078Z</time></trkpt><trkpt lat="42.6789899" lon="5.991771"><ele>0.0</ele><time>2026-04-30T19:51:09.079Z</time></trkpt><trkpt lat="42.6790287" lon="5.9918682"><ele>0.0</ele><time>2026-04-30T19:51:10.078Z</time></trkpt><trkpt lat="42.6790713" lon="5.9919752"><ele>0.0</ele><time>2026-04-30T19:51:11.078Z</time></trkpt><trkpt lat="42.6791134" lon="5.9920774"><ele>0.0</ele><time>2026-04-30T19:51:12.079Z</time></trkpt><trkpt lat="42.679155" lon="5.9921723"><ele>0.0</ele><time>2026-04-30T19:51:13.078Z</time></trkpt><trkpt lat="42.6791943" lon="5.9922758"><ele>0.0</ele><time>2026-04-30T19:51:14.078Z</time></trkpt><trkpt lat="42.6792844" lon="5.992486"><ele>0.0</ele><time>2026-04-30T19:51:16.078Z</time></trkpt><trkpt lat="42.6793231" lon="5.9925876"><ele>0.0</ele><time>2026-04-30T19:51:17.078Z</time></trkpt><trkpt lat="42.6793624" lon="5.9926841"><ele>0.0</ele><time>2026-04-30T19:51:18.078Z</time></trkpt><trkpt lat="42.6793936" lon="5.9927777"><ele>0.0</ele><time>2026-04-30T19:51:19.078Z</time></trkpt><trkpt lat="42.679426" lon="5.9928664"><ele>0.0</ele><time>2026-04-30T19:51:20.079Z</time></trkpt><trkpt lat="42.6794683" lon="5.9929603"><ele>0.0</ele><time>2026-04-30T19:51:21.078Z</time></trkpt><trkpt lat="42.679588" lon="5.993137"><ele>0.0</ele><time>2026-04-30T19:51:23.078Z</time></trkpt><trkpt lat="42.679634" lon="5.9932325"><ele>0.0</ele><time>2026-04-30T19:51:24.079Z</time></trkpt><trkpt lat="42.6796829" lon="5.993328"><ele>0.0</ele><time>2026-04-30T19:51:25.079Z</time></trkpt><trkpt lat="42.6797366" lon="5.9934244"><ele>0.0</ele><time>2026-04-30T19:51:26.079Z</time></trkpt><trkpt lat="42.6797745" lon="5.9935203"><ele>0.0</ele><time>2026-04-30T19:51:27.079Z</time></trkpt><trkpt lat="42.6798153" lon="5.9936156"><ele>0.0</ele><time>2026-04-30T19:51:28.078Z</time></trkpt><trkpt lat="42.679861" lon="5.9937122"><ele>0.0</ele><time>2026-04-30T19:51:29.079Z</time></trkpt><trkpt lat="42.6799022" lon="5.9938165"><ele>0.0</ele><time>2026-04-30T19:51:30.079Z</time></trkpt><trkpt lat="42.6799474" lon="5.9939184"><ele>0.0</ele><time>2026-04-30T19:51:31.078Z</time></trkpt><trkpt lat="42.6799873" lon="5.9940138"><ele>0.0</ele><time>2026-04-30T19:51:32.079Z</time></trkpt><trkpt lat="42.6800287" lon="5.9941098"><ele>0.0</ele><time>2026-04-30T19:51:33.079Z</time></trkpt><trkpt lat="42.6800833" lon="5.9942064"><ele>0.0</ele><time>2026-04-30T19:51:34.078Z</time></trkpt><trkpt lat="42.6801299" lon="5.994316"><ele>0.0</ele><time>2026-04-30T19:51:35.078Z</time></trkpt><trkpt lat="42.6802227" lon="5.9945179"><ele>0.0</ele><time>2026-04-30T19:51:37.079Z</time></trkpt><trkpt lat="42.6802692" lon="5.9946139"><ele>0.0</ele><time>2026-04-30T19:51:38.078Z</time></trkpt><trkpt lat="42.6803142" lon="5.9947162"><ele>0.0</ele><time>2026-04-30T19:51:39.079Z</time></trkpt><trkpt lat="42.6803507" lon="5.9948156"><ele>0.0</ele><time>2026-04-30T19:51:40.078Z</time></trkpt><trkpt lat="42.6804014" lon="5.9949054"><ele>0.0</ele><time>2026-04-30T19:51:41.078Z</time></trkpt><trkpt lat="42.6804425" lon="5.9950018"><ele>0.0</ele><time>2026-04-30T19:51:42.078Z</time></trkpt><trkpt lat="42.6804865" lon="5.9951002"><ele>0.0</ele><time>2026-04-30T19:51:43.078Z</time></trkpt><trkpt lat="42.6805345" lon="5.9951929"><ele>0.0</ele><time>2026-04-30T19:51:44.078Z</time></trkpt><trkpt lat="42.6805743" lon="5.995279"><ele>0.0</ele><time>2026-04-30T19:51:45.078Z</time></trkpt><trkpt lat="42.6806225" lon="5.9953678"><ele>0.0</ele><time>2026-04-30T19:51:46.078Z</time></trkpt><trkpt lat="42.6806584" lon="5.9954676"><ele>0.0</ele><time>2026-04-30T19:51:47.078Z</time></trkpt><trkpt lat="42.6806932" lon="5.9955726"><ele>0.0</ele><time>2026-04-30T19:51:48.078Z</time></trkpt><trkpt lat="42.6807249" lon="5.9956761"><ele>0.0</ele><time>2026-04-30T19:51:49.079Z</time></trkpt><trkpt lat="42.6807619" lon="5.9957763"><ele>0.0</ele><time>2026-04-30T19:51:50.078Z</time></trkpt><trkpt lat="42.6808032" lon="5.9958779"><ele>0.0</ele><time>2026-04-30T19:51:51.078Z</time></trkpt><trkpt lat="42.6808466" lon="5.9959793"><ele>0.0</ele><time>2026-04-30T19:51:52.079Z</time></trkpt><trkpt lat="42.6808912" lon="5.9960824"><ele>0.0</ele><time>2026-04-30T19:51:53.078Z</time></trkpt><trkpt lat="42.6809849" lon="5.9962796"><ele>0.0</ele><time>2026-04-30T19:51:55.079Z</time></trkpt><trkpt lat="42.6810141" lon="5.9963828"><ele>0.0</ele><time>2026-04-30T19:51:56.079Z</time></trkpt><trkpt lat="42.6810599" lon="5.9965854"><ele>0.0</ele><time>2026-04-30T19:51:58.079Z</time></trkpt><trkpt lat="42.6810825" lon="5.9966866"><ele>0.0</ele><time>2026-04-30T19:51:59.078Z</time></trkpt><trkpt lat="42.6811006" lon="5.996792"><ele>0.0</ele><time>2026-04-30T19:52:00.078Z</time></trkpt><trkpt lat="42.6811327" lon="5.9968987"><ele>0.0</ele><time>2026-04-30T19:52:01.078Z</time></trkpt><trkpt lat="42.6811699" lon="5.9970044"><ele>0.0</ele><time>2026-04-30T19:52:02.078Z</time></trkpt><trkpt lat="42.6812065" lon="5.9970983"><ele>0.0</ele><time>2026-04-30T19:52:03.078Z</time></trkpt><trkpt lat="42.6812474" lon="5.9971956"><ele>0.0</ele><time>2026-04-30T19:52:04.078Z</time></trkpt><trkpt lat="42.6812952" lon="5.9972994"><ele>0.0</ele><time>2026-04-30T19:52:05.078Z</time></trkpt><trkpt lat="42.6813464" lon="5.9973943"><ele>0.0</ele><time>2026-04-30T19:52:06.079Z</time></trkpt><trkpt lat="42.6813871" lon="5.9974884"><ele>0.0</ele><time>2026-04-30T19:52:07.078Z</time></trkpt><trkpt lat="42.681434" lon="5.997586"><ele>0.0</ele><time>2026-04-30T19:52:08.078Z</time></trkpt><trkpt lat="42.6814699" lon="5.997696"><ele>0.0</ele><time>2026-04-30T19:52:09.078Z</time></trkpt><trkpt lat="42.6815415" lon="5.9977889"><ele>0.0</ele><time>2026-04-30T19:52:10.079Z</time></trkpt><trkpt lat="42.6816105" lon="5.9978864"><ele>0.0</ele><time>2026-04-30T19:52:11.079Z</time></trkpt><trkpt lat="42.6816537" lon="5.997986"><ele>0.0</ele><time>2026-04-30T19:52:12.079Z</time></trkpt><trkpt lat="42.6817162" lon="5.9980758"><ele>0.0</ele><time>2026-04-30T19:52:13.079Z</time></trkpt><trkpt lat="42.6817645" lon="5.9981692"><ele>0.0</ele><time>2026-04-30T19:52:14.079Z</time></trkpt><trkpt lat="42.6818312" lon="5.9982523"><ele>0.0</ele><time>2026-04-30T19:52:15.078Z</time></trkpt><trkpt lat="42.6818742" lon="5.9983537"><ele>0.0</ele><time>2026-04-30T19:52:16.078Z</time></trkpt><trkpt lat="42.6819343" lon="5.9985576"><ele>0.0</ele><time>2026-04-30T19:52:18.078Z</time></trkpt><trkpt lat="42.6819739" lon="5.9986544"><ele>0.0</ele><time>2026-04-30T19:52:19.079Z</time></trkpt><trkpt lat="42.6820198" lon="5.9987445"><ele>0.0</ele><time>2026-04-30T19:52:20.078Z</time></trkpt><trkpt lat="42.6820736" lon="5.9988421"><ele>0.0</ele><time>2026-04-30T19:52:21.078Z</time></trkpt><trkpt lat="42.6821155" lon="5.9989399"><ele>0.0</ele><time>2026-04-30T19:52:22.079Z</time></trkpt><trkpt lat="42.682167" lon="5.999038"><ele>0.0</ele><time>2026-04-30T19:52:23.078Z</time></trkpt><trkpt lat="42.6822165" lon="5.9991402"><ele>0.0</ele><time>2026-04-30T19:52:24.078Z</time></trkpt><trkpt lat="42.6822566" lon="5.9992409"><ele>0.0</ele><time>2026-04-30T19:52:25.079Z</time></trkpt><trkpt lat="42.6823015" lon="5.9994537"><ele>0.0</ele><time>2026-04-30T19:52:27.079Z</time></trkpt><trkpt lat="42.6823295" lon="5.9995517"><ele>0.0</ele><time>2026-04-30T19:52:28.079Z</time></trkpt><trkpt lat="42.6823706" lon="5.9996497"><ele>0.0</ele><time>2026-04-30T19:52:29.079Z</time></trkpt><trkpt lat="42.6824063" lon="5.9997468"><ele>0.0</ele><time>2026-04-30T19:52:30.078Z</time></trkpt><trkpt lat="42.6824437" lon="5.9998421"><ele>0.0</ele><time>2026-04-30T19:52:31.078Z</time></trkpt><trkpt lat="42.6824875" lon="5.999946"><ele>0.0</ele><time>2026-04-30T19:52:32.079Z</time></trkpt><trkpt lat="42.6825309" lon="6.0000485"><ele>0.0</ele><time>2026-04-30T19:52:33.078Z</time></trkpt><trkpt lat="42.6825767" lon="6.0001529"><ele>0.0</ele><time>2026-04-30T19:52:34.079Z</time></trkpt><trkpt lat="42.6826196" lon="6.0002562"><ele>0.0</ele><time>2026-04-30T19:52:35.078Z</time></trkpt><trkpt lat="42.6826629" lon="6.0003568"><ele>0.0</ele><time>2026-04-30T19:52:36.079Z</time></trkpt><trkpt lat="42.6826964" lon="6.0004666"><ele>0.0</ele><time>2026-04-30T19:52:37.078Z</time></trkpt><trkpt lat="42.6827719" lon="6.000674"><ele>0.0</ele><time>2026-04-30T19:52:39.079Z</time></trkpt><trkpt lat="42.6828141" lon="6.0007704"><ele>0.0</ele><time>2026-04-30T19:52:40.078Z</time></trkpt><trkpt lat="42.6828511" lon="6.0008674"><ele>0.0</ele><time>2026-04-30T19:52:41.078Z</time></trkpt><trkpt lat="42.6828806" lon="6.0009723"><ele>0.0</ele><time>2026-04-30T19:52:42.078Z</time></trkpt><trkpt lat="42.6829174" lon="6.0010732"><ele>0.0</ele><time>2026-04-30T19:52:43.079Z</time></trkpt><trkpt lat="42.6829686" lon="6.0011709"><ele>0.0</ele><time>2026-04-30T19:52:44.079Z</time></trkpt><trkpt lat="42.6830134" lon="6.0012672"><ele>0.0</ele><time>2026-04-30T19:52:45.079Z</time></trkpt><trkpt lat="42.6830523" lon="6.0013686"><ele>0.0</ele><time>2026-04-30T19:52:46.079Z</time></trkpt><trkpt lat="42.6831006" lon="6.0014699"><ele>0.0</ele><time>2026-04-30T19:52:47.079Z</time></trkpt><trkpt lat="42.6831416" lon="6.001569"><ele>0.0</ele><time>2026-04-30T19:52:48.078Z</time></trkpt><trkpt lat="42.6831818" lon="6.0016714"><ele>0.0</ele><time>2026-04-30T19:52:49.079Z</time></trkpt><trkpt lat="42.6832217" lon="6.0017748"><ele>0.0</ele><time>2026-04-30T19:52:50.078Z</time></trkpt><trkpt lat="42.6832715" lon="6.0018744"><ele>0.0</ele><time>2026-04-30T19:52:51.078Z</time></trkpt><trkpt lat="42.6833204" lon="6.001971"><ele>0.0</ele><time>2026-04-30T19:52:52.079Z</time></trkpt><trkpt lat="42.6833802" lon="6.0020562"><ele>0.0</ele><time>2026-04-30T19:52:53.079Z</time></trkpt><trkpt lat="42.683413" lon="6.0021527"><ele>0.0</ele><time>2026-04-30T19:52:54.078Z</time></trkpt><trkpt lat="42.6834471" lon="6.0022506"><ele>0.0</ele><time>2026-04-30T19:52:55.078Z</time></trkpt><trkpt lat="42.6835071" lon="6.0023366"><ele>0.0</ele><time>2026-04-30T19:52:56.079Z</time></trkpt><trkpt lat="42.6835566" lon="6.0024373"><ele>0.0</ele><time>2026-04-30T19:52:57.079Z</time></trkpt><trkpt lat="42.683679" lon="6.002741"><ele>0.0</ele><time>2026-04-30T19:53:00.079Z</time></trkpt><trkpt lat="42.6837239" lon="6.002835"><ele>0.0</ele><time>2026-04-30T19:53:01.079Z</time></trkpt><trkpt lat="42.6837634" lon="6.0029385"><ele>0.0</ele><time>2026-04-30T19:53:02.078Z</time></trkpt><trkpt lat="42.683807" lon="6.0030405"><ele>0.0</ele><time>2026-04-30T19:53:03.079Z</time></trkpt><trkpt lat="42.6838534" lon="6.0031398"><ele>0.0</ele><time>2026-04-30T19:53:04.078Z</time></trkpt><trkpt lat="42.6838944" lon="6.0032408"><ele>0.0</ele><time>2026-04-30T19:53:05.079Z</time></trkpt><trkpt lat="42.6839316" lon="6.0033453"><ele>0.0</ele><time>2026-04-30T19:53:06.079Z</time></trkpt><trkpt lat="42.6839734" lon="6.0034476"><ele>0.0</ele><time>2026-04-30T19:53:07.078Z</time></trkpt><trkpt lat="42.6840238" lon="6.0035419"><ele>0.0</ele><time>2026-04-30T19:53:08.079Z</time></trkpt><trkpt lat="42.6841029" lon="6.0036238"><ele>0.0</ele><time>2026-04-30T19:53:09.078Z</time></trkpt><trkpt lat="42.684153" lon="6.0037177"><ele>0.0</ele><time>2026-04-30T19:53:10.078Z</time></trkpt><trkpt lat="42.6841945" lon="6.0038159"><ele>0.0</ele><time>2026-04-30T19:53:11.078Z</time></trkpt><trkpt lat="42.6842345" lon="6.0039147"><ele>0.0</ele><time>2026-04-30T19:53:12.079Z</time></trkpt><trkpt lat="42.684278" lon="6.0040151"><ele>0.0</ele><time>2026-04-30T19:53:13.078Z</time></trkpt><trkpt lat="42.6843295" lon="6.0041159"><ele>0.0</ele><time>2026-04-30T19:53:14.078Z</time></trkpt><trkpt lat="42.6843765" lon="6.0042095"><ele>0.0</ele><time>2026-04-30T19:53:15.079Z</time></trkpt><trkpt lat="42.6844142" lon="6.0043073"><ele>0.0</ele><time>2026-04-30T19:53:16.079Z</time></trkpt><trkpt lat="42.6844503" lon="6.0044103"><ele>0.0</ele><time>2026-04-30T19:53:17.078Z</time></trkpt><trkpt lat="42.6844854" lon="6.004512"><ele>0.0</ele><time>2026-04-30T19:53:18.079Z</time></trkpt><trkpt lat="42.6845425" lon="6.0045995"><ele>0.0</ele><time>2026-04-30T19:53:19.078Z</time></trkpt><trkpt lat="42.6846121" lon="6.004802"><ele>0.0</ele><time>2026-04-30T19:53:21.078Z</time></trkpt><trkpt lat="42.6846635" lon="6.0048929"><ele>0.0</ele><time>2026-04-30T19:53:22.079Z</time></trkpt><trkpt lat="42.6846985" lon="6.0049862"><ele>0.0</ele><time>2026-04-30T19:53:23.078Z</time></trkpt><trkpt lat="42.6847366" lon="6.005079"><ele>0.0</ele><time>2026-04-30T19:53:24.079Z</time></trkpt><trkpt lat="42.6847905" lon="6.0051666"><ele>0.0</ele><time>2026-04-30T19:53:25.078Z</time></trkpt><trkpt lat="42.6848334" lon="6.0052636"><ele>0.0</ele><time>2026-04-30T19:53:26.079Z</time></trkpt><trkpt lat="42.6848673" lon="6.0053644"><ele>0.0</ele><time>2026-04-30T19:53:27.079Z</time></trkpt><trkpt lat="42.6848967" lon="6.0054651"><ele>0.0</ele><time>2026-04-30T19:53:28.079Z</time></trkpt><trkpt lat="42.6849318" lon="6.005557"><ele>0.0</ele><time>2026-04-30T19:53:29.078Z</time></trkpt><trkpt lat="42.6850123" lon="6.0057455"><ele>0.0</ele><time>2026-04-30T19:53:31.078Z</time></trkpt><trkpt lat="42.685056" lon="6.0058454"><ele>0.0</ele><time>2026-04-30T19:53:32.078Z</time></trkpt><trkpt lat="42.6851084" lon="6.0059511"><ele>0.0</ele><time>2026-04-30T19:53:33.079Z</time></trkpt><trkpt lat="42.6851443" lon="6.006054"><ele>0.0</ele><time>2026-04-30T19:53:34.079Z</time></trkpt><trkpt lat="42.6851848" lon="6.0061497"><ele>0.0</ele><time>2026-04-30T19:53:35.079Z</time></trkpt><trkpt lat="42.6852176" lon="6.0062456"><ele>0.0</ele><time>2026-04-30T19:53:36.078Z</time></trkpt><trkpt lat="42.6852536" lon="6.00634"><ele>0.0</ele><time>2026-04-30T19:53:37.079Z</time></trkpt><trkpt lat="42.6852703" lon="6.0064544"><ele>0.0</ele><time>2026-04-30T19:53:38.078Z</time></trkpt><trkpt lat="42.6853193" lon="6.0065527"><ele>0.0</ele><time>2026-04-30T19:53:39.078Z</time></trkpt><trkpt lat="42.6853726" lon="6.006647"><ele>0.0</ele><time>2026-04-30T19:53:40.078Z</time></trkpt><trkpt lat="42.685433" lon="6.0068495"><ele>0.0</ele><time>2026-04-30T19:53:42.079Z</time></trkpt><trkpt lat="42.6854797" lon="6.0069511"><ele>0.0</ele><time>2026-04-30T19:53:43.079Z</time></trkpt><trkpt lat="42.6855232" lon="6.0070542"><ele>0.0</ele><time>2026-04-30T19:53:44.078Z</time></trkpt><trkpt lat="42.6855693" lon="6.0071534"><ele>0.0</ele><time>2026-04-30T19:53:45.079Z</time></trkpt><trkpt lat="42.6856071" lon="6.0072573"><ele>0.0</ele><time>2026-04-30T19:53:46.078Z</time></trkpt><trkpt lat="42.6856415" lon="6.0073539"><ele>0.0</ele><time>2026-04-30T19:53:47.078Z</time></trkpt><trkpt lat="42.6856876" lon="6.0074444"><ele>0.0</ele><time>2026-04-30T19:53:48.079Z</time></trkpt><trkpt lat="42.6857245" lon="6.0075355"><ele>0.0</ele><time>2026-04-30T19:53:49.079Z</time></trkpt><trkpt lat="42.6857627" lon="6.007633"><ele>0.0</ele><time>2026-04-30T19:53:50.078Z</time></trkpt><trkpt lat="42.6857983" lon="6.0077369"><ele>0.0</ele><time>2026-04-30T19:53:51.079Z</time></trkpt><trkpt lat="42.6858305" lon="6.0078403"><ele>0.0</ele><time>2026-04-30T19:53:52.079Z</time></trkpt><trkpt lat="42.685858" lon="6.0079395"><ele>0.0</ele><time>2026-04-30T19:53:53.078Z</time></trkpt><trkpt lat="42.6858991" lon="6.0080364"><ele>0.0</ele><time>2026-04-30T19:53:54.078Z</time></trkpt><trkpt lat="42.6859588" lon="6.0081255"><ele>0.0</ele><time>2026-04-30T19:53:55.079Z</time></trkpt><trkpt lat="42.6859995" lon="6.008214"><ele>0.0</ele><time>2026-04-30T19:53:56.078Z</time></trkpt><trkpt lat="42.6860435" lon="6.0083049"><ele>0.0</ele><time>2026-04-30T19:53:57.078Z</time></trkpt><trkpt lat="42.6860929" lon="6.0083976"><ele>0.0</ele><time>2026-04-30T19:53:58.078Z</time></trkpt><trkpt lat="42.6861354" lon="6.0084929"><ele>0.0</ele><time>2026-04-30T19:53:59.079Z</time></trkpt><trkpt lat="42.6861829" lon="6.0085925"><ele>0.0</ele><time>2026-04-30T19:54:00.078Z</time></trkpt><trkpt lat="42.6862319" lon="6.0086938"><ele>0.0</ele><time>2026-04-30T19:54:01.079Z</time></trkpt><trkpt lat="42.6862733" lon="6.0087911"><ele>0.0</ele><time>2026-04-30T19:54:02.079Z</time></trkpt><trkpt lat="42.6864083" lon="6.0089622"><ele>0.0</ele><time>2026-04-30T19:54:04.079Z</time></trkpt><trkpt lat="42.6864595" lon="6.0090609"><ele>0.0</ele><time>2026-04-30T19:54:05.079Z</time></trkpt><trkpt lat="42.6865171" lon="6.0091538"><ele>0.0</ele><time>2026-04-30T19:54:06.078Z</time></trkpt><trkpt lat="42.6865579" lon="6.0092513"><ele>0.0</ele><time>2026-04-30T19:54:07.079Z</time></trkpt><trkpt lat="42.6866002" lon="6.0093465"><ele>0.0</ele><time>2026-04-30T19:54:08.079Z</time></trkpt><trkpt lat="42.6866362" lon="6.0094377"><ele>0.0</ele><time>2026-04-30T19:54:09.078Z</time></trkpt><trkpt lat="42.6866812" lon="6.0095363"><ele>0.0</ele><time>2026-04-30T19:54:10.078Z</time></trkpt><trkpt lat="42.6867346" lon="6.009635"><ele>0.0</ele><time>2026-04-30T19:54:11.078Z</time></trkpt><trkpt lat="42.6867849" lon="6.0097362"><ele>0.0</ele><time>2026-04-30T19:54:12.078Z</time></trkpt><trkpt lat="42.686828" lon="6.0098369"><ele>0.0</ele><time>2026-04-30T19:54:13.078Z</time></trkpt><trkpt lat="42.6868779" lon="6.0099365"><ele>0.0</ele><time>2026-04-30T19:54:14.078Z</time></trkpt><trkpt lat="42.6869312" lon="6.0100236"><ele>0.0</ele><time>2026-04-30T19:54:15.078Z</time></trkpt><trkpt lat="42.686986" lon="6.0101114"><ele>0.0</ele><time>2026-04-30T19:54:16.078Z</time></trkpt><trkpt lat="42.6870341" lon="6.0102052"><ele>0.0</ele><time>2026-04-30T19:54:17.078Z</time></trkpt><trkpt lat="42.687088" lon="6.0103016"><ele>0.0</ele><time>2026-04-30T19:54:18.079Z</time></trkpt><trkpt lat="42.6871446" lon="6.0103937"><ele>0.0</ele><time>2026-04-30T19:54:19.079Z</time></trkpt><trkpt lat="42.6872013" lon="6.0104799"><ele>0.0</ele><time>2026-04-30T19:54:20.079Z</time></trkpt><trkpt lat="42.6872496" lon="6.0105775"><ele>0.0</ele><time>2026-04-30T19:54:21.078Z</time></trkpt><trkpt lat="42.687278" lon="6.010683"><ele>0.0</ele><time>2026-04-30T19:54:22.078Z</time></trkpt><trkpt lat="42.6873176" lon="6.0107884"><ele>0.0</ele><time>2026-04-30T19:54:23.078Z</time></trkpt><trkpt lat="42.6874083" lon="6.0109807"><ele>0.0</ele><time>2026-04-30T19:54:25.079Z</time></trkpt><trkpt lat="42.6874401" lon="6.0110748"><ele>0.0</ele><time>2026-04-30T19:54:26.079Z</time></trkpt><trkpt lat="42.6874848" lon="6.0111766"><ele>0.0</ele><time>2026-04-30T19:54:27.079Z</time></trkpt><trkpt lat="42.6875326" lon="6.0112641"><ele>0.0</ele><time>2026-04-30T19:54:28.078Z</time></trkpt><trkpt lat="42.6875768" lon="6.0113621"><ele>0.0</ele><time>2026-04-30T19:54:29.079Z</time></trkpt><trkpt lat="42.6876256" lon="6.0114593"><ele>0.0</ele><time>2026-04-30T19:54:30.079Z</time></trkpt><trkpt lat="42.6876672" lon="6.0115501"><ele>0.0</ele><time>2026-04-30T19:54:31.079Z</time></trkpt><trkpt lat="42.6877152" lon="6.011646"><ele>0.0</ele><time>2026-04-30T19:54:32.079Z</time></trkpt><trkpt lat="42.6877653" lon="6.0117351"><ele>0.0</ele><time>2026-04-30T19:54:33.079Z</time></trkpt><trkpt lat="42.6878629" lon="6.0119212"><ele>0.0</ele><time>2026-04-30T19:54:35.079Z</time></trkpt><trkpt lat="42.6879106" lon="6.0120133"><ele>0.0</ele><time>2026-04-30T19:54:36.078Z</time></trkpt><trkpt lat="42.6879461" lon="6.0121036"><ele>0.0</ele><time>2026-04-30T19:54:37.078Z</time></trkpt><trkpt lat="42.6879783" lon="6.0121931"><ele>0.0</ele><time>2026-04-30T19:54:38.078Z</time></trkpt><trkpt lat="42.6880113" lon="6.0122822"><ele>0.0</ele><time>2026-04-30T19:54:39.079Z</time></trkpt><trkpt lat="42.6880587" lon="6.012375"><ele>0.0</ele><time>2026-04-30T19:54:40.078Z</time></trkpt><trkpt lat="42.6881055" lon="6.0124683"><ele>0.0</ele><time>2026-04-30T19:54:41.078Z</time></trkpt><trkpt lat="42.6881491" lon="6.012566"><ele>0.0</ele><time>2026-04-30T19:54:42.079Z</time></trkpt><trkpt lat="42.6881942" lon="6.0126572"><ele>0.0</ele><time>2026-04-30T19:54:43.078Z</time></trkpt><trkpt lat="42.6882387" lon="6.0127501"><ele>0.0</ele><time>2026-04-30T19:54:44.079Z</time></trkpt><trkpt lat="42.688332" lon="6.0129427"><ele>0.0</ele><time>2026-04-30T19:54:46.079Z</time></trkpt><trkpt lat="42.6883629" lon="6.0130411"><ele>0.0</ele><time>2026-04-30T19:54:47.079Z</time></trkpt><trkpt lat="42.6884125" lon="6.0131393"><ele>0.0</ele><time>2026-04-30T19:54:48.078Z</time></trkpt><trkpt lat="42.6884675" lon="6.0132344"><ele>0.0</ele><time>2026-04-30T19:54:49.079Z</time></trkpt><trkpt lat="42.6885197" lon="6.0133294"><ele>0.0</ele><time>2026-04-30T19:54:50.078Z</time></trkpt><trkpt lat="42.6885771" lon="6.0134221"><ele>0.0</ele><time>2026-04-30T19:54:51.079Z</time></trkpt><trkpt lat="42.6886327" lon="6.0135091"><ele>0.0</ele><time>2026-04-30T19:54:52.078Z</time></trkpt><trkpt lat="42.6886833" lon="6.0135968"><ele>0.0</ele><time>2026-04-30T19:54:53.078Z</time></trkpt><trkpt lat="42.6887364" lon="6.0136909"><ele>0.0</ele><time>2026-04-30T19:54:54.078Z</time></trkpt><trkpt lat="42.6887849" lon="6.0137876"><ele>0.0</ele><time>2026-04-30T19:54:55.078Z</time></trkpt><trkpt lat="42.6888329" lon="6.0138876"><ele>0.0</ele><time>2026-04-30T19:54:56.078Z</time></trkpt><trkpt lat="42.6888798" lon="6.0139848"><ele>0.0</ele><time>2026-04-30T19:54:57.078Z</time></trkpt><trkpt lat="42.6889252" lon="6.0140799"><ele>0.0</ele><time>2026-04-30T19:54:58.079Z</time></trkpt><trkpt lat="42.6889748" lon="6.0141762"><ele>0.0</ele><time>2026-04-30T19:54:59.078Z</time></trkpt><trkpt lat="42.6890234" lon="6.0142713"><ele>0.0</ele><time>2026-04-30T19:55:00.079Z</time></trkpt><trkpt lat="42.6890742" lon="6.0143663"><ele>0.0</ele><time>2026-04-30T19:55:01.079Z</time></trkpt><trkpt lat="42.6891351" lon="6.0144628"><ele>0.0</ele><time>2026-04-30T19:55:02.079Z</time></trkpt><trkpt lat="42.6891901" lon="6.014558"><ele>0.0</ele><time>2026-04-30T19:55:03.078Z</time></trkpt><trkpt lat="42.6892379" lon="6.0146561"><ele>0.0</ele><time>2026-04-30T19:55:04.078Z</time></trkpt><trkpt lat="42.6892802" lon="6.0147517"><ele>0.0</ele><time>2026-04-30T19:55:05.079Z</time></trkpt><trkpt lat="42.6894152" lon="6.0150207"><ele>0.0</ele><time>2026-04-30T19:55:08.078Z</time></trkpt><trkpt lat="42.6894573" lon="6.0151109"><ele>0.0</ele><time>2026-04-30T19:55:09.078Z</time></trkpt><trkpt lat="42.689502" lon="6.015205"><ele>0.0</ele><time>2026-04-30T19:55:10.079Z</time></trkpt><trkpt lat="42.6895437" lon="6.0153029"><ele>0.0</ele><time>2026-04-30T19:55:11.079Z</time></trkpt><trkpt lat="42.6896229" lon="6.0153888"><ele>0.0</ele><time>2026-04-30T19:55:12.078Z</time></trkpt><trkpt lat="42.6897034" lon="6.0154721"><ele>0.0</ele><time>2026-04-30T19:55:13.079Z</time></trkpt><trkpt lat="42.6897643" lon="6.0155654"><ele>0.0</ele><time>2026-04-30T19:55:14.078Z</time></trkpt><trkpt lat="42.6898275" lon="6.015657"><ele>0.0</ele><time>2026-04-30T19:55:15.079Z</time></trkpt><trkpt lat="42.6898709" lon="6.0157501"><ele>0.0</ele><time>2026-04-30T19:55:16.078Z</time></trkpt><trkpt lat="42.6899202" lon="6.0158473"><ele>0.0</ele><time>2026-04-30T19:55:17.078Z</time></trkpt><trkpt lat="42.6899701" lon="6.0159427"><ele>0.0</ele><time>2026-04-30T19:55:18.079Z</time></trkpt><trkpt lat="42.690018" lon="6.0160404"><ele>0.0</ele><time>2026-04-30T19:55:19.079Z</time></trkpt><trkpt lat="42.6900591" lon="6.0161364"><ele>0.0</ele><time>2026-04-30T19:55:20.078Z</time></trkpt><trkpt lat="42.6900936" lon="6.0162401"><ele>0.0</ele><time>2026-04-30T19:55:21.079Z</time></trkpt><trkpt lat="42.6901334" lon="6.0163465"><ele>0.0</ele><time>2026-04-30T19:55:22.078Z</time></trkpt><trkpt lat="42.6901803" lon="6.0164419"><ele>0.0</ele><time>2026-04-30T19:55:23.078Z</time></trkpt><trkpt lat="42.690233" lon="6.016535"><ele>0.0</ele><time>2026-04-30T19:55:24.078Z</time></trkpt><trkpt lat="42.6903001" lon="6.0166268"><ele>0.0</ele><time>2026-04-30T19:55:25.078Z</time></trkpt><trkpt lat="42.6903501" lon="6.0167142"><ele>0.0</ele><time>2026-04-30T19:55:26.078Z</time></trkpt><trkpt lat="42.6903955" lon="6.016804"><ele>0.0</ele><time>2026-04-30T19:55:27.078Z</time></trkpt><trkpt lat="42.690495" lon="6.0169836"><ele>0.0</ele><time>2026-04-30T19:55:29.079Z</time></trkpt><trkpt lat="42.6905372" lon="6.0170754"><ele>0.0</ele><time>2026-04-30T19:55:30.078Z</time></trkpt><trkpt lat="42.6905752" lon="6.0171715"><ele>0.0</ele><time>2026-04-30T19:55:31.079Z</time></trkpt><trkpt lat="42.6906249" lon="6.0172609"><ele>0.0</ele><time>2026-04-30T19:55:32.079Z</time></trkpt><trkpt lat="42.6906823" lon="6.0173437"><ele>0.0</ele><time>2026-04-30T19:55:33.078Z</time></trkpt><trkpt lat="42.6907319" lon="6.0174351"><ele>0.0</ele><time>2026-04-30T19:55:34.078Z</time></trkpt><trkpt lat="42.6907817" lon="6.0175283"><ele>0.0</ele><time>2026-04-30T19:55:35.079Z</time></trkpt><trkpt lat="42.6908305" lon="6.0176259"><ele>0.0</ele><time>2026-04-30T19:55:36.078Z</time></trkpt><trkpt lat="42.690876" lon="6.0177259"><ele>0.0</ele><time>2026-04-30T19:55:37.079Z</time></trkpt><trkpt lat="42.6909754" lon="6.0179242"><ele>0.0</ele><time>2026-04-30T19:55:39.079Z</time></trkpt><trkpt lat="42.6910279" lon="6.0180184"><ele>0.0</ele><time>2026-04-30T19:55:40.079Z</time></trkpt><trkpt lat="42.691073" lon="6.0181116"><ele>0.0</ele><time>2026-04-30T19:55:41.078Z</time></trkpt><trkpt lat="42.6911161" lon="6.0182066"><ele>0.0</ele><time>2026-04-30T19:55:42.078Z</time></trkpt><trkpt lat="42.6911563" lon="6.0183045"><ele>0.0</ele><time>2026-04-30T19:55:43.079Z</time></trkpt><trkpt lat="42.6911976" lon="6.0184054"><ele>0.0</ele><time>2026-04-30T19:55:44.078Z</time></trkpt><trkpt lat="42.6912466" lon="6.0185027"><ele>0.0</ele><time>2026-04-30T19:55:45.079Z</time></trkpt><trkpt lat="42.6912891" lon="6.0185969"><ele>0.0</ele><time>2026-04-30T19:55:46.079Z</time></trkpt><trkpt lat="42.6913377" lon="6.0186833"><ele>0.0</ele><time>2026-04-30T19:55:47.079Z</time></trkpt><trkpt lat="42.6913902" lon="6.0187672"><ele>0.0</ele><time>2026-04-30T19:55:48.079Z</time></trkpt><trkpt lat="42.6915009" lon="6.0189526"><ele>0.0</ele><time>2026-04-30T19:55:50.078Z</time></trkpt><trkpt lat="42.6915468" lon="6.0190493"><ele>0.0</ele><time>2026-04-30T19:55:51.079Z</time></trkpt><trkpt lat="42.691597" lon="6.0191471"><ele>0.0</ele><time>2026-04-30T19:55:52.078Z</time></trkpt><trkpt lat="42.6916485" lon="6.0192426"><ele>0.0</ele><time>2026-04-30T19:55:53.079Z</time></trkpt><trkpt lat="42.6917012" lon="6.0193422"><ele>0.0</ele><time>2026-04-30T19:55:54.078Z</time></trkpt><trkpt lat="42.6917503" lon="6.0194447"><ele>0.0</ele><time>2026-04-30T19:55:55.078Z</time></trkpt><trkpt lat="42.6917996" lon="6.0195466"><ele>0.0</ele><time>2026-04-30T19:55:56.078Z</time></trkpt><trkpt lat="42.691849" lon="6.0196388"><ele>0.0</ele><time>2026-04-30T19:55:57.078Z</time></trkpt><trkpt lat="42.691898" lon="6.0197329"><ele>0.0</ele><time>2026-04-30T19:55:58.079Z</time></trkpt><trkpt lat="42.6919489" lon="6.0198183"><ele>0.0</ele><time>2026-04-30T19:55:59.079Z</time></trkpt><trkpt lat="42.6919966" lon="6.0199035"><ele>0.0</ele><time>2026-04-30T19:56:00.078Z</time></trkpt><trkpt lat="42.6920273" lon="6.0200063"><ele>0.0</ele><time>2026-04-30T19:56:01.079Z</time></trkpt><trkpt lat="42.6920685" lon="6.0201073"><ele>0.0</ele><time>2026-04-30T19:56:02.079Z</time></trkpt><trkpt lat="42.6921139" lon="6.0202045"><ele>0.0</ele><time>2026-04-30T19:56:03.079Z</time></trkpt><trkpt lat="42.692158" lon="6.0202976"><ele>0.0</ele><time>2026-04-30T19:56:04.078Z</time></trkpt><trkpt lat="42.6922072" lon="6.0203887"><ele>0.0</ele><time>2026-04-30T19:56:05.078Z</time></trkpt><trkpt lat="42.6922584" lon="6.0204784"><ele>0.0</ele><time>2026-04-30T19:56:06.078Z</time></trkpt><trkpt lat="42.6923073" lon="6.0205657"><ele>0.0</ele><time>2026-04-30T19:56:07.078Z</time></trkpt><trkpt lat="42.6923484" lon="6.0206639"><ele>0.0</ele><time>2026-04-30T19:56:08.079Z</time></trkpt><trkpt lat="42.6923967" lon="6.0207581"><ele>0.0</ele><time>2026-04-30T19:56:09.079Z</time></trkpt><trkpt lat="42.6925185" lon="6.0210315"><ele>0.0</ele><time>2026-04-30T19:56:12.078Z</time></trkpt><trkpt lat="42.6925622" lon="6.0211277"><ele>0.0</ele><time>2026-04-30T19:56:13.079Z</time></trkpt><trkpt lat="42.6926034" lon="6.021227"><ele>0.0</ele><time>2026-04-30T19:56:14.079Z</time></trkpt><trkpt lat="42.6926562" lon="6.0213216"><ele>0.0</ele><time>2026-04-30T19:56:15.078Z</time></trkpt><trkpt lat="42.6927019" lon="6.0214174"><ele>0.0</ele><time>2026-04-30T19:56:16.078Z</time></trkpt><trkpt lat="42.6927469" lon="6.021512"><ele>0.0</ele><time>2026-04-30T19:56:17.079Z</time></trkpt><trkpt lat="42.692787" lon="6.0216087"><ele>0.0</ele><time>2026-04-30T19:56:18.078Z</time></trkpt><trkpt lat="42.6928282" lon="6.0216923"><ele>0.0</ele><time>2026-04-30T19:56:19.078Z</time></trkpt><trkpt lat="42.6928724" lon="6.021785"><ele>0.0</ele><time>2026-04-30T19:56:20.078Z</time></trkpt><trkpt lat="42.6929101" lon="6.0218786"><ele>0.0</ele><time>2026-04-30T19:56:21.078Z</time></trkpt><trkpt lat="42.692953" lon="6.0219774"><ele>0.0</ele><time>2026-04-30T19:56:22.079Z</time></trkpt><trkpt lat="42.6930019" lon="6.0220702"><ele>0.0</ele><time>2026-04-30T19:56:23.078Z</time></trkpt><trkpt lat="42.6930503" lon="6.0221625"><ele>0.0</ele><time>2026-04-30T19:56:24.078Z</time></trkpt><trkpt lat="42.6930903" lon="6.0222597"><ele>0.0</ele><time>2026-04-30T19:56:25.079Z</time></trkpt><trkpt lat="42.6931342" lon="6.0223577"><ele>0.0</ele><time>2026-04-30T19:56:26.079Z</time></trkpt><trkpt lat="42.6931715" lon="6.0224589"><ele>0.0</ele><time>2026-04-30T19:56:27.078Z</time></trkpt><trkpt lat="42.6932318" lon="6.0225534"><ele>0.0</ele><time>2026-04-30T19:56:28.079Z</time></trkpt><trkpt lat="42.6932986" lon="6.0226453"><ele>0.0</ele><time>2026-04-30T19:56:29.078Z</time></trkpt><trkpt lat="42.6933499" lon="6.0227367"><ele>0.0</ele><time>2026-04-30T19:56:30.078Z</time></trkpt><trkpt lat="42.6934067" lon="6.0228314"><ele>0.0</ele><time>2026-04-30T19:56:31.079Z</time></trkpt><trkpt lat="42.6935176" lon="6.0230095"><ele>0.0</ele><time>2026-04-30T19:56:33.079Z</time></trkpt><trkpt lat="42.6935648" lon="6.023099"><ele>0.0</ele><time>2026-04-30T19:56:34.078Z</time></trkpt><trkpt lat="42.6936132" lon="6.0231904"><ele>0.0</ele><time>2026-04-30T19:56:35.078Z</time></trkpt><trkpt lat="42.6936628" lon="6.0232835"><ele>0.0</ele><time>2026-04-30T19:56:36.079Z</time></trkpt><trkpt lat="42.6937101" lon="6.0233711"><ele>0.0</ele><time>2026-04-30T19:56:37.079Z</time></trkpt><trkpt lat="42.6937594" lon="6.0234591"><ele>0.0</ele><time>2026-04-30T19:56:38.078Z</time></trkpt><trkpt lat="42.6938128" lon="6.0235469"><ele>0.0</ele><time>2026-04-30T19:56:39.079Z</time></trkpt><trkpt lat="42.6938631" lon="6.0236374"><ele>0.0</ele><time>2026-04-30T19:56:40.079Z</time></trkpt><trkpt lat="42.6939045" lon="6.0237359"><ele>0.0</ele><time>2026-04-30T19:56:41.078Z</time></trkpt><trkpt lat="42.6939974" lon="6.0239197"><ele>0.0</ele><time>2026-04-30T19:56:43.079Z</time></trkpt><trkpt lat="42.694049" lon="6.0240152"><ele>0.0</ele><time>2026-04-30T19:56:44.078Z</time></trkpt><trkpt lat="42.6941208" lon="6.0240968"><ele>0.0</ele><time>2026-04-30T19:56:45.078Z</time></trkpt><trkpt lat="42.6941603" lon="6.0241921"><ele>0.0</ele><time>2026-04-30T19:56:46.079Z</time></trkpt><trkpt lat="42.6941943" lon="6.0242866"><ele>0.0</ele><time>2026-04-30T19:56:47.079Z</time></trkpt><trkpt lat="42.6942402" lon="6.0243769"><ele>0.0</ele><time>2026-04-30T19:56:48.078Z</time></trkpt><trkpt lat="42.6943036" lon="6.024461"><ele>0.0</ele><time>2026-04-30T19:56:49.079Z</time></trkpt><trkpt lat="42.6943659" lon="6.0245503"><ele>0.0</ele><time>2026-04-30T19:56:50.078Z</time></trkpt><trkpt lat="42.6944185" lon="6.0246459"><ele>0.0</ele><time>2026-04-30T19:56:51.079Z</time></trkpt><trkpt lat="42.6944737" lon="6.0247402"><ele>0.0</ele><time>2026-04-30T19:56:52.078Z</time></trkpt><trkpt lat="42.6945646" lon="6.0249338"><ele>0.0</ele><time>2026-04-30T19:56:54.078Z</time></trkpt><trkpt lat="42.6946127" lon="6.025029"><ele>0.0</ele><time>2026-04-30T19:56:55.078Z</time></trkpt><trkpt lat="42.6946645" lon="6.0251201"><ele>0.0</ele><time>2026-04-30T19:56:56.078Z</time></trkpt><trkpt lat="42.6947145" lon="6.0252131"><ele>0.0</ele><time>2026-04-30T19:56:57.078Z</time></trkpt><trkpt lat="42.6947598" lon="6.0253066"><ele>0.0</ele><time>2026-04-30T19:56:58.079Z</time></trkpt><trkpt lat="42.6948071" lon="6.0254026"><ele>0.0</ele><time>2026-04-30T19:56:59.079Z</time></trkpt><trkpt lat="42.6948567" lon="6.0254924"><ele>0.0</ele><time>2026-04-30T19:57:00.079Z</time></trkpt><trkpt lat="42.6949003" lon="6.0255862"><ele>0.0</ele><time>2026-04-30T19:57:01.079Z</time></trkpt><trkpt lat="42.6949553" lon="6.0256783"><ele>0.0</ele><time>2026-04-30T19:57:02.079Z</time></trkpt><trkpt lat="42.6950007" lon="6.0257714"><ele>0.0</ele><time>2026-04-30T19:57:03.079Z</time></trkpt><trkpt lat="42.6950519" lon="6.0258618"><ele>0.0</ele><time>2026-04-30T19:57:04.079Z</time></trkpt><trkpt lat="42.6951032" lon="6.0259575"><ele>0.0</ele><time>2026-04-30T19:57:05.078Z</time></trkpt><trkpt lat="42.6951595" lon="6.0260501"><ele>0.0</ele><time>2026-04-30T19:57:06.079Z</time></trkpt><trkpt lat="42.69522" lon="6.0261347"><ele>0.0</ele><time>2026-04-30T19:57:07.078Z</time></trkpt><trkpt lat="42.6952828" lon="6.0262168"><ele>0.0</ele><time>2026-04-30T19:57:08.079Z</time></trkpt><trkpt lat="42.6953331" lon="6.0263069"><ele>0.0</ele><time>2026-04-30T19:57:09.079Z</time></trkpt><trkpt lat="42.6953823" lon="6.026397"><ele>0.0</ele><time>2026-04-30T19:57:10.078Z</time></trkpt><trkpt lat="42.69543" lon="6.0264871"><ele>0.0</ele><time>2026-04-30T19:57:11.078Z</time></trkpt><trkpt lat="42.6954627" lon="6.0265899"><ele>0.0</ele><time>2026-04-30T19:57:12.078Z</time></trkpt><trkpt lat="42.6955624" lon="6.0268704"><ele>0.0</ele><time>2026-04-30T19:57:15.078Z</time></trkpt><trkpt lat="42.695607" lon="6.0269675"><ele>0.0</ele><time>2026-04-30T19:57:16.079Z</time></trkpt><trkpt lat="42.6956522" lon="6.0270671"><ele>0.0</ele><time>2026-04-30T19:57:17.079Z</time></trkpt><trkpt lat="42.6956933" lon="6.0271714"><ele>0.0</ele><time>2026-04-30T19:57:18.078Z</time></trkpt><trkpt lat="42.6957427" lon="6.0272664"><ele>0.0</ele><time>2026-04-30T19:57:19.079Z</time></trkpt><trkpt lat="42.6957899" lon="6.0273686"><ele>0.0</ele><time>2026-04-30T19:57:20.078Z</time></trkpt><trkpt lat="42.695828" lon="6.0274733"><ele>0.0</ele><time>2026-04-30T19:57:21.078Z</time></trkpt><trkpt lat="42.6958677" lon="6.0275782"><ele>0.0</ele><time>2026-04-30T19:57:22.078Z</time></trkpt><trkpt lat="42.6959053" lon="6.0276789"><ele>0.0</ele><time>2026-04-30T19:57:23.078Z</time></trkpt><trkpt lat="42.6959366" lon="6.0277735"><ele>0.0</ele><time>2026-04-30T19:57:24.078Z</time></trkpt><trkpt lat="42.6959796" lon="6.0278639"><ele>0.0</ele><time>2026-04-30T19:57:25.079Z</time></trkpt><trkpt lat="42.6960251" lon="6.027958"><ele>0.0</ele><time>2026-04-30T19:57:26.078Z</time></trkpt><trkpt lat="42.6960633" lon="6.0280531"><ele>0.0</ele><time>2026-04-30T19:57:27.078Z</time></trkpt><trkpt lat="42.6961146" lon="6.0281478"><ele>0.0</ele><time>2026-04-30T19:57:28.078Z</time></trkpt><trkpt lat="42.6961622" lon="6.0282425"><ele>0.0</ele><time>2026-04-30T19:57:29.078Z</time></trkpt><trkpt lat="42.6962032" lon="6.0283373"><ele>0.0</ele><time>2026-04-30T19:57:30.077Z</time></trkpt><trkpt lat="42.6962456" lon="6.028436"><ele>0.0</ele><time>2026-04-30T19:57:31.078Z</time></trkpt><trkpt lat="42.6962916" lon="6.0285302"><ele>0.0</ele><time>2026-04-30T19:57:32.077Z</time></trkpt><trkpt lat="42.6963438" lon="6.028618"><ele>0.0</ele><time>2026-04-30T19:57:33.077Z</time></trkpt><trkpt lat="42.6963893" lon="6.0287157"><ele>0.0</ele><time>2026-04-30T19:57:34.077Z</time></trkpt><trkpt lat="42.6964993" lon="6.0289013"><ele>0.0</ele><time>2026-04-30T19:57:36.077Z</time></trkpt><trkpt lat="42.6965539" lon="6.028995"><ele>0.0</ele><time>2026-04-30T19:57:37.077Z</time></trkpt><trkpt lat="42.6966047" lon="6.0290923"><ele>0.0</ele><time>2026-04-30T19:57:38.077Z</time></trkpt><trkpt lat="42.6966577" lon="6.0291889"><ele>0.0</ele><time>2026-04-30T19:57:39.077Z</time></trkpt><trkpt lat="42.6967052" lon="6.0292801"><ele>0.0</ele><time>2026-04-30T19:57:40.077Z</time></trkpt><trkpt lat="42.6967649" lon="6.0293691"><ele>0.0</ele><time>2026-04-30T19:57:41.077Z</time></trkpt><trkpt lat="42.6968063" lon="6.0294573"><ele>0.0</ele><time>2026-04-30T19:57:42.078Z</time></trkpt><trkpt lat="42.696846" lon="6.029546"><ele>0.0</ele><time>2026-04-30T19:57:43.077Z</time></trkpt><trkpt lat="42.6968873" lon="6.0296371"><ele>0.0</ele><time>2026-04-30T19:57:44.077Z</time></trkpt><trkpt lat="42.6969247" lon="6.0297317"><ele>0.0</ele><time>2026-04-30T19:57:45.077Z</time></trkpt><trkpt lat="42.6970115" lon="6.0299086"><ele>0.0</ele><time>2026-04-30T19:57:47.078Z</time></trkpt><trkpt lat="42.697066" lon="6.03"><ele>0.0</ele><time>2026-04-30T19:57:48.078Z</time></trkpt><trkpt lat="42.6971205" lon="6.030092"><ele>0.0</ele><time>2026-04-30T19:57:49.077Z</time></trkpt><trkpt lat="42.6971684" lon="6.0301936"><ele>0.0</ele><time>2026-04-30T19:57:50.077Z</time></trkpt><trkpt lat="42.6971997" lon="6.0302991"><ele>0.0</ele><time>2026-04-30T19:57:51.077Z</time></trkpt><trkpt lat="42.6972462" lon="6.030399"><ele>0.0</ele><time>2026-04-30T19:57:52.077Z</time></trkpt><trkpt lat="42.6973041" lon="6.0304962"><ele>0.0</ele><time>2026-04-30T19:57:53.078Z</time></trkpt><trkpt lat="42.6973592" lon="6.0305926"><ele>0.0</ele><time>2026-04-30T19:57:54.077Z</time></trkpt><trkpt lat="42.6974068" lon="6.0306851"><ele>0.0</ele><time>2026-04-30T19:57:55.078Z</time></trkpt><trkpt lat="42.6975042" lon="6.0308702"><ele>0.0</ele><time>2026-04-30T19:57:57.077Z</time></trkpt><trkpt lat="42.6975544" lon="6.0309592"><ele>0.0</ele><time>2026-04-30T19:57:58.078Z</time></trkpt><trkpt lat="42.6976063" lon="6.031049"><ele>0.0</ele><time>2026-04-30T19:57:59.078Z</time></trkpt><trkpt lat="42.6976595" lon="6.0311415"><ele>0.0</ele><time>2026-04-30T19:58:00.077Z</time></trkpt><trkpt lat="42.6977072" lon="6.0312347"><ele>0.0</ele><time>2026-04-30T19:58:01.078Z</time></trkpt><trkpt lat="42.6977525" lon="6.0313282"><ele>0.0</ele><time>2026-04-30T19:58:02.077Z</time></trkpt><trkpt lat="42.6978002" lon="6.0314218"><ele>0.0</ele><time>2026-04-30T19:58:03.077Z</time></trkpt><trkpt lat="42.6978459" lon="6.0315134"><ele>0.0</ele><time>2026-04-30T19:58:04.077Z</time></trkpt><trkpt lat="42.6979056" lon="6.0316049"><ele>0.0</ele><time>2026-04-30T19:58:05.077Z</time></trkpt><trkpt lat="42.6979611" lon="6.0316951"><ele>0.0</ele><time>2026-04-30T19:58:06.077Z</time></trkpt><trkpt lat="42.6980119" lon="6.0317837"><ele>0.0</ele><time>2026-04-30T19:58:07.078Z</time></trkpt><trkpt lat="42.698059" lon="6.0318737"><ele>0.0</ele><time>2026-04-30T19:58:08.077Z</time></trkpt><trkpt lat="42.6981087" lon="6.0319621"><ele>0.0</ele><time>2026-04-30T19:58:09.078Z</time></trkpt><trkpt lat="42.6981542" lon="6.0320546"><ele>0.0</ele><time>2026-04-30T19:58:10.077Z</time></trkpt><trkpt lat="42.6982088" lon="6.0321453"><ele>0.0</ele><time>2026-04-30T19:58:11.078Z</time></trkpt><trkpt lat="42.6982586" lon="6.0322322"><ele>0.0</ele><time>2026-04-30T19:58:12.078Z</time></trkpt><trkpt lat="42.6983045" lon="6.0323276"><ele>0.0</ele><time>2026-04-30T19:58:13.077Z</time></trkpt><trkpt lat="42.6983605" lon="6.0324228"><ele>0.0</ele><time>2026-04-30T19:58:14.077Z</time></trkpt><trkpt lat="42.69841" lon="6.0325222"><ele>0.0</ele><time>2026-04-30T19:58:15.078Z</time></trkpt><trkpt lat="42.6984586" lon="6.0326152"><ele>0.0</ele><time>2026-04-30T19:58:16.077Z</time></trkpt><trkpt lat="42.6985127" lon="6.0326997"><ele>0.0</ele><time>2026-04-30T19:58:17.078Z</time></trkpt><trkpt lat="42.6986594" lon="6.0329708"><ele>0.0</ele><time>2026-04-30T19:58:20.078Z</time></trkpt><trkpt lat="42.698704" lon="6.0330735"><ele>0.0</ele><time>2026-04-30T19:58:21.078Z</time></trkpt><trkpt lat="42.6987506" lon="6.0331767"><ele>0.0</ele><time>2026-04-30T19:58:22.077Z</time></trkpt><trkpt lat="42.6987923" lon="6.0332716"><ele>0.0</ele><time>2026-04-30T19:58:23.077Z</time></trkpt><trkpt lat="42.698825" lon="6.033368"><ele>0.0</ele><time>2026-04-30T19:58:24.077Z</time></trkpt><trkpt lat="42.6988528" lon="6.0334575"><ele>0.0</ele><time>2026-04-30T19:58:25.078Z</time></trkpt><trkpt lat="42.698877" lon="6.0335601"><ele>0.0</ele><time>2026-04-30T19:58:26.078Z</time></trkpt><trkpt lat="42.6989091" lon="6.0336649"><ele>0.0</ele><time>2026-04-30T19:58:27.078Z</time></trkpt><trkpt lat="42.6989496" lon="6.0337611"><ele>0.0</ele><time>2026-04-30T19:58:28.078Z</time></trkpt><trkpt lat="42.698994" lon="6.0338619"><ele>0.0</ele><time>2026-04-30T19:58:29.078Z</time></trkpt><trkpt lat="42.6990407" lon="6.0339563"><ele>0.0</ele><time>2026-04-30T19:58:30.077Z</time></trkpt><trkpt lat="42.699084" lon="6.0340516"><ele>0.0</ele><time>2026-04-30T19:58:31.077Z</time></trkpt><trkpt lat="42.6991312" lon="6.0341455"><ele>0.0</ele><time>2026-04-30T19:58:32.078Z</time></trkpt><trkpt lat="42.6991765" lon="6.0342374"><ele>0.0</ele><time>2026-04-30T19:58:33.078Z</time></trkpt><trkpt lat="42.6992259" lon="6.0343274"><ele>0.0</ele><time>2026-04-30T19:58:34.077Z</time></trkpt><trkpt lat="42.699275" lon="6.0344218"><ele>0.0</ele><time>2026-04-30T19:58:35.078Z</time></trkpt><trkpt lat="42.699329" lon="6.0345166"><ele>0.0</ele><time>2026-04-30T19:58:36.077Z</time></trkpt><trkpt lat="42.6993771" lon="6.0346143"><ele>0.0</ele><time>2026-04-30T19:58:37.078Z</time></trkpt><trkpt lat="42.6994195" lon="6.0347067"><ele>0.0</ele><time>2026-04-30T19:58:38.077Z</time></trkpt><trkpt lat="42.6994753" lon="6.0347986"><ele>0.0</ele><time>2026-04-30T19:58:39.078Z</time></trkpt><trkpt lat="42.6995765" lon="6.0349854"><ele>0.0</ele><time>2026-04-30T19:58:41.077Z</time></trkpt><trkpt lat="42.699625" lon="6.0350758"><ele>0.0</ele><time>2026-04-30T19:58:42.078Z</time></trkpt><trkpt lat="42.6996743" lon="6.0351674"><ele>0.0</ele><time>2026-04-30T19:58:43.077Z</time></trkpt><trkpt lat="42.6997205" lon="6.0352619"><ele>0.0</ele><time>2026-04-30T19:58:44.077Z</time></trkpt><trkpt lat="42.699758" lon="6.0353611"><ele>0.0</ele><time>2026-04-30T19:58:45.078Z</time></trkpt><trkpt lat="42.6997992" lon="6.0354551"><ele>0.0</ele><time>2026-04-30T19:58:46.078Z</time></trkpt><trkpt lat="42.6998459" lon="6.0355528"><ele>0.0</ele><time>2026-04-30T19:58:47.078Z</time></trkpt><trkpt lat="42.6998876" lon="6.0356469"><ele>0.0</ele><time>2026-04-30T19:58:48.077Z</time></trkpt><trkpt lat="42.6999372" lon="6.0357402"><ele>0.0</ele><time>2026-04-30T19:58:49.078Z</time></trkpt><trkpt lat="42.7000553" lon="6.0359253"><ele>0.0</ele><time>2026-04-30T19:58:51.077Z</time></trkpt><trkpt lat="42.7001065" lon="6.0360194"><ele>0.0</ele><time>2026-04-30T19:58:52.077Z</time></trkpt><trkpt lat="42.7001628" lon="6.0361132"><ele>0.0</ele><time>2026-04-30T19:58:53.077Z</time></trkpt><trkpt lat="42.7002129" lon="6.0362137"><ele>0.0</ele><time>2026-04-30T19:58:54.078Z</time></trkpt><trkpt lat="42.700271" lon="6.0363084"><ele>0.0</ele><time>2026-04-30T19:58:55.078Z</time></trkpt><trkpt lat="42.7003197" lon="6.0364005"><ele>0.0</ele><time>2026-04-30T19:58:56.077Z</time></trkpt><trkpt lat="42.700361" lon="6.0364921"><ele>0.0</ele><time>2026-04-30T19:58:57.077Z</time></trkpt><trkpt lat="42.7004057" lon="6.0365834"><ele>0.0</ele><time>2026-04-30T19:58:58.078Z</time></trkpt><trkpt lat="42.7004591" lon="6.0366739"><ele>0.0</ele><time>2026-04-30T19:58:59.077Z</time></trkpt><trkpt lat="42.7005126" lon="6.0367667"><ele>0.0</ele><time>2026-04-30T19:59:00.077Z</time></trkpt><trkpt lat="42.7006133" lon="6.0369559"><ele>0.0</ele><time>2026-04-30T19:59:02.077Z</time></trkpt><trkpt lat="42.7006675" lon="6.0370499"><ele>0.0</ele><time>2026-04-30T19:59:03.078Z</time></trkpt><trkpt lat="42.7007256" lon="6.0371434"><ele>0.0</ele><time>2026-04-30T19:59:04.077Z</time></trkpt><trkpt lat="42.7007751" lon="6.0372325"><ele>0.0</ele><time>2026-04-30T19:59:05.077Z</time></trkpt><trkpt lat="42.7008209" lon="6.0373234"><ele>0.0</ele><time>2026-04-30T19:59:06.077Z</time></trkpt><trkpt lat="42.7008682" lon="6.0374211"><ele>0.0</ele><time>2026-04-30T19:59:07.078Z</time></trkpt><trkpt lat="42.7009134" lon="6.0375106"><ele>0.0</ele><time>2026-04-30T19:59:08.077Z</time></trkpt><trkpt lat="42.7009657" lon="6.0376003"><ele>0.0</ele><time>2026-04-30T19:59:09.078Z</time></trkpt><trkpt lat="42.7010104" lon="6.0376893"><ele>0.0</ele><time>2026-04-30T19:59:10.077Z</time></trkpt><trkpt lat="42.7010555" lon="6.0377819"><ele>0.0</ele><time>2026-04-30T19:59:11.078Z</time></trkpt><trkpt lat="42.701099" lon="6.0378763"><ele>0.0</ele><time>2026-04-30T19:59:12.077Z</time></trkpt><trkpt lat="42.7011452" lon="6.0379697"><ele>0.0</ele><time>2026-04-30T19:59:13.078Z</time></trkpt><trkpt lat="42.7011888" lon="6.0380646"><ele>0.0</ele><time>2026-04-30T19:59:14.077Z</time></trkpt><trkpt lat="42.7012352" lon="6.0381652"><ele>0.0</ele><time>2026-04-30T19:59:15.078Z</time></trkpt><trkpt lat="42.7012791" lon="6.0382598"><ele>0.0</ele><time>2026-04-30T19:59:16.077Z</time></trkpt><trkpt lat="42.7013153" lon="6.0383645"><ele>0.0</ele><time>2026-04-30T19:59:17.078Z</time></trkpt><trkpt lat="42.7013488" lon="6.0384697"><ele>0.0</ele><time>2026-04-30T19:59:18.077Z</time></trkpt><trkpt lat="42.7013866" lon="6.0385676"><ele>0.0</ele><time>2026-04-30T19:59:19.077Z</time></trkpt><trkpt lat="42.7014285" lon="6.0386611"><ele>0.0</ele><time>2026-04-30T19:59:20.078Z</time></trkpt><trkpt lat="42.7014805" lon="6.0387579"><ele>0.0</ele><time>2026-04-30T19:59:21.078Z</time></trkpt><trkpt lat="42.7016156" lon="6.0390501"><ele>0.0</ele><time>2026-04-30T19:59:24.078Z</time></trkpt><trkpt lat="42.7016587" lon="6.0391444"><ele>0.0</ele><time>2026-04-30T19:59:25.078Z</time></trkpt><trkpt lat="42.7017088" lon="6.0392356"><ele>0.0</ele><time>2026-04-30T19:59:26.078Z</time></trkpt><trkpt lat="42.7017633" lon="6.0393273"><ele>0.0</ele><time>2026-04-30T19:59:27.077Z</time></trkpt><trkpt lat="42.7018126" lon="6.0394189"><ele>0.0</ele><time>2026-04-30T19:59:28.078Z</time></trkpt><trkpt lat="42.7018619" lon="6.0395114"><ele>0.0</ele><time>2026-04-30T19:59:29.078Z</time></trkpt><trkpt lat="42.7019056" lon="6.0396022"><ele>0.0</ele><time>2026-04-30T19:59:30.078Z</time></trkpt><trkpt lat="42.7019549" lon="6.0396906"><ele>0.0</ele><time>2026-04-30T19:59:31.077Z</time></trkpt><trkpt lat="42.7020006" lon="6.0397762"><ele>0.0</ele><time>2026-04-30T19:59:32.077Z</time></trkpt><trkpt lat="42.702054" lon="6.03986"><ele>0.0</ele><time>2026-04-30T19:59:33.077Z</time></trkpt><trkpt lat="42.7021006" lon="6.0399533"><ele>0.0</ele><time>2026-04-30T19:59:34.077Z</time></trkpt><trkpt lat="42.7021479" lon="6.0400482"><ele>0.0</ele><time>2026-04-30T19:59:35.078Z</time></trkpt><trkpt lat="42.7021943" lon="6.0401421"><ele>0.0</ele><time>2026-04-30T19:59:36.078Z</time></trkpt><trkpt lat="42.7022369" lon="6.0402325"><ele>0.0</ele><time>2026-04-30T19:59:37.077Z</time></trkpt><trkpt lat="42.7022788" lon="6.0403238"><ele>0.0</ele><time>2026-04-30T19:59:38.077Z</time></trkpt><trkpt lat="42.7023165" lon="6.0404172"><ele>0.0</ele><time>2026-04-30T19:59:39.077Z</time></trkpt><trkpt lat="42.7023629" lon="6.0405119"><ele>0.0</ele><time>2026-04-30T19:59:40.078Z</time></trkpt><trkpt lat="42.7024222" lon="6.0406026"><ele>0.0</ele><time>2026-04-30T19:59:41.077Z</time></trkpt><trkpt lat="42.7024707" lon="6.0406994"><ele>0.0</ele><time>2026-04-30T19:59:42.078Z</time></trkpt><trkpt lat="42.7025346" lon="6.0407892"><ele>0.0</ele><time>2026-04-30T19:59:43.077Z</time></trkpt><trkpt lat="42.7026395" lon="6.0409716"><ele>0.0</ele><time>2026-04-30T19:59:45.077Z</time></trkpt><trkpt lat="42.7026876" lon="6.0410677"><ele>0.0</ele><time>2026-04-30T19:59:46.078Z</time></trkpt><trkpt lat="42.7027337" lon="6.0411602"><ele>0.0</ele><time>2026-04-30T19:59:47.077Z</time></trkpt><trkpt lat="42.7027859" lon="6.0412504"><ele>0.0</ele><time>2026-04-30T19:59:48.077Z</time></trkpt><trkpt lat="42.7028294" lon="6.0413419"><ele>0.0</ele><time>2026-04-30T19:59:49.078Z</time></trkpt><trkpt lat="42.7028765" lon="6.0414336"><ele>0.0</ele><time>2026-04-30T19:59:50.077Z</time></trkpt><trkpt lat="42.7029209" lon="6.0415251"><ele>0.0</ele><time>2026-04-30T19:59:51.077Z</time></trkpt><trkpt lat="42.702966" lon="6.0416153"><ele>0.0</ele><time>2026-04-30T19:59:52.077Z</time></trkpt><trkpt lat="42.7030123" lon="6.0417083"><ele>0.0</ele><time>2026-04-30T19:59:53.077Z</time></trkpt><trkpt lat="42.7031005" lon="6.0418949"><ele>0.0</ele><time>2026-04-30T19:59:55.078Z</time></trkpt><trkpt lat="42.7031424" lon="6.0419882"><ele>0.0</ele><time>2026-04-30T19:59:56.078Z</time></trkpt><trkpt lat="42.7031827" lon="6.0420858"><ele>0.0</ele><time>2026-04-30T19:59:57.078Z</time></trkpt><trkpt lat="42.7032268" lon="6.0421803"><ele>0.0</ele><time>2026-04-30T19:59:58.078Z</time></trkpt><trkpt lat="42.7032784" lon="6.0422733"><ele>0.0</ele><time>2026-04-30T19:59:59.078Z</time></trkpt><trkpt lat="42.703325" lon="6.0423711"><ele>0.0</ele><time>2026-04-30T20:00:00.078Z</time></trkpt><trkpt lat="42.7033711" lon="6.0424653"><ele>0.0</ele><time>2026-04-30T20:00:01.078Z</time></trkpt><trkpt lat="42.7034181" lon="6.0425541"><ele>0.0</ele><time>2026-04-30T20:00:02.078Z</time></trkpt><trkpt lat="42.703465" lon="6.0426409"><ele>0.0</ele><time>2026-04-30T20:00:03.078Z</time></trkpt><trkpt lat="42.7035089" lon="6.0427319"><ele>0.0</ele><time>2026-04-30T20:00:04.078Z</time></trkpt><trkpt lat="42.7035942" lon="6.0429186"><ele>0.0</ele><time>2026-04-30T20:00:06.078Z</time></trkpt><trkpt lat="42.7036314" lon="6.043023"><ele>0.0</ele><time>2026-04-30T20:00:07.078Z</time></trkpt><trkpt lat="42.7036699" lon="6.0431254"><ele>0.0</ele><time>2026-04-30T20:00:08.077Z</time></trkpt><trkpt lat="42.7037048" lon="6.0432256"><ele>0.0</ele><time>2026-04-30T20:00:09.078Z</time></trkpt><trkpt lat="42.7037355" lon="6.0433232"><ele>0.0</ele><time>2026-04-30T20:00:10.078Z</time></trkpt><trkpt lat="42.7037712" lon="6.0434212"><ele>0.0</ele><time>2026-04-30T20:00:11.077Z</time></trkpt><trkpt lat="42.7038189" lon="6.0435179"><ele>0.0</ele><time>2026-04-30T20:00:12.078Z</time></trkpt><trkpt lat="42.7038635" lon="6.0436133"><ele>0.0</ele><time>2026-04-30T20:00:13.077Z</time></trkpt><trkpt lat="42.7039164" lon="6.0437043"><ele>0.0</ele><time>2026-04-30T20:00:14.078Z</time></trkpt><trkpt lat="42.7039688" lon="6.0438009"><ele>0.0</ele><time>2026-04-30T20:00:15.078Z</time></trkpt><trkpt lat="42.7040167" lon="6.0438986"><ele>0.0</ele><time>2026-04-30T20:00:16.078Z</time></trkpt><trkpt lat="42.7040676" lon="6.0439914"><ele>0.0</ele><time>2026-04-30T20:00:17.077Z</time></trkpt><trkpt lat="42.704133" lon="6.0440718"><ele>0.0</ele><time>2026-04-30T20:00:18.077Z</time></trkpt><trkpt lat="42.7041932" lon="6.0441632"><ele>0.0</ele><time>2026-04-30T20:00:19.077Z</time></trkpt><trkpt lat="42.7042553" lon="6.0442494"><ele>0.0</ele><time>2026-04-30T20:00:20.077Z</time></trkpt><trkpt lat="42.7043114" lon="6.044343"><ele>0.0</ele><time>2026-04-30T20:00:21.077Z</time></trkpt><trkpt lat="42.7043589" lon="6.0444306"><ele>0.0</ele><time>2026-04-30T20:00:22.077Z</time></trkpt><trkpt lat="42.7044111" lon="6.0445245"><ele>0.0</ele><time>2026-04-30T20:00:23.078Z</time></trkpt><trkpt lat="42.7044604" lon="6.0446211"><ele>0.0</ele><time>2026-04-30T20:00:24.078Z</time></trkpt><trkpt lat="42.7045089" lon="6.0447215"><ele>0.0</ele><time>2026-04-30T20:00:25.077Z</time></trkpt><trkpt lat="42.7046479" lon="6.0449936"><ele>0.0</ele><time>2026-04-30T20:00:28.077Z</time></trkpt><trkpt lat="42.7046885" lon="6.0450836"><ele>0.0</ele><time>2026-04-30T20:00:29.077Z</time></trkpt><trkpt lat="42.7047376" lon="6.0451735"><ele>0.0</ele><time>2026-04-30T20:00:30.078Z</time></trkpt><trkpt lat="42.7047936" lon="6.0452634"><ele>0.0</ele><time>2026-04-30T20:00:31.077Z</time></trkpt><trkpt lat="42.7048476" lon="6.0453549"><ele>0.0</ele><time>2026-04-30T20:00:32.078Z</time></trkpt><trkpt lat="42.7048898" lon="6.0454508"><ele>0.0</ele><time>2026-04-30T20:00:33.078Z</time></trkpt><trkpt lat="42.7049402" lon="6.0455479"><ele>0.0</ele><time>2026-04-30T20:00:34.078Z</time></trkpt><trkpt lat="42.7049956" lon="6.0456401"><ele>0.0</ele><time>2026-04-30T20:00:35.078Z</time></trkpt><trkpt lat="42.7050535" lon="6.0457329"><ele>0.0</ele><time>2026-04-30T20:00:36.077Z</time></trkpt><trkpt lat="42.7051129" lon="6.0458166"><ele>0.0</ele><time>2026-04-30T20:00:37.078Z</time></trkpt><trkpt lat="42.7051604" lon="6.0458968"><ele>0.0</ele><time>2026-04-30T20:00:38.077Z</time></trkpt><trkpt lat="42.7052142" lon="6.0459885"><ele>0.0</ele><time>2026-04-30T20:00:39.078Z</time></trkpt><trkpt lat="42.7052694" lon="6.0460743"><ele>0.0</ele><time>2026-04-30T20:00:40.077Z</time></trkpt><trkpt lat="42.7053415" lon="6.046155"><ele>0.0</ele><time>2026-04-30T20:00:41.078Z</time></trkpt><trkpt lat="42.7053872" lon="6.046245"><ele>0.0</ele><time>2026-04-30T20:00:42.078Z</time></trkpt><trkpt lat="42.705435" lon="6.0463383"><ele>0.0</ele><time>2026-04-30T20:00:43.077Z</time></trkpt><trkpt lat="42.7054778" lon="6.0464327"><ele>0.0</ele><time>2026-04-30T20:00:44.078Z</time></trkpt><trkpt lat="42.7055261" lon="6.0465237"><ele>0.0</ele><time>2026-04-30T20:00:45.078Z</time></trkpt><trkpt lat="42.7055775" lon="6.0466135"><ele>0.0</ele><time>2026-04-30T20:00:46.077Z</time></trkpt><trkpt lat="42.7056236" lon="6.0467048"><ele>0.0</ele><time>2026-04-30T20:00:47.077Z</time></trkpt><trkpt lat="42.7057163" lon="6.0468904"><ele>0.0</ele><time>2026-04-30T20:00:49.077Z</time></trkpt><trkpt lat="42.7057636" lon="6.0469832"><ele>0.0</ele><time>2026-04-30T20:00:50.077Z</time></trkpt><trkpt lat="42.7058078" lon="6.0470818"><ele>0.0</ele><time>2026-04-30T20:00:51.077Z</time></trkpt><trkpt lat="42.7058565" lon="6.0471762"><ele>0.0</ele><time>2026-04-30T20:00:52.077Z</time></trkpt><trkpt lat="42.7059012" lon="6.0472721"><ele>0.0</ele><time>2026-04-30T20:00:53.077Z</time></trkpt><trkpt lat="42.7059445" lon="6.0473731"><ele>0.0</ele><time>2026-04-30T20:00:54.078Z</time></trkpt><trkpt lat="42.7059861" lon="6.0474622"><ele>0.0</ele><time>2026-04-30T20:00:55.077Z</time></trkpt><trkpt lat="42.7060266" lon="6.0475445"><ele>0.0</ele><time>2026-04-30T20:00:56.077Z</time></trkpt><trkpt lat="42.706072" lon="6.0476371"><ele>0.0</ele><time>2026-04-30T20:00:57.077Z</time></trkpt><trkpt lat="42.7061212" lon="6.0477287"><ele>0.0</ele><time>2026-04-30T20:00:58.077Z</time></trkpt><trkpt lat="42.7061695" lon="6.0478172"><ele>0.0</ele><time>2026-04-30T20:00:59.078Z</time></trkpt><trkpt lat="42.7062199" lon="6.0479054"><ele>0.0</ele><time>2026-04-30T20:01:00.078Z</time></trkpt><trkpt lat="42.7062716" lon="6.0479964"><ele>0.0</ele><time>2026-04-30T20:01:01.078Z</time></trkpt><trkpt lat="42.7063214" lon="6.0480899"><ele>0.0</ele><time>2026-04-30T20:01:02.078Z</time></trkpt><trkpt lat="42.7063738" lon="6.0481822"><ele>0.0</ele><time>2026-04-30T20:01:03.078Z</time></trkpt><trkpt lat="42.7064195" lon="6.0482733"><ele>0.0</ele><time>2026-04-30T20:01:04.077Z</time></trkpt><trkpt lat="42.7064641" lon="6.0483636"><ele>0.0</ele><time>2026-04-30T20:01:05.077Z</time></trkpt><trkpt lat="42.7065021" lon="6.0484523"><ele>0.0</ele><time>2026-04-30T20:01:06.077Z</time></trkpt><trkpt lat="42.7065401" lon="6.0485437"><ele>0.0</ele><time>2026-04-30T20:01:07.078Z</time></trkpt><trkpt lat="42.7065856" lon="6.0486355"><ele>0.0</ele><time>2026-04-30T20:01:08.078Z</time></trkpt><trkpt lat="42.7066877" lon="6.04883"><ele>0.0</ele><time>2026-04-30T20:01:10.077Z</time></trkpt><trkpt lat="42.7067318" lon="6.0489261"><ele>0.0</ele><time>2026-04-30T20:01:11.078Z</time></trkpt><trkpt lat="42.7067815" lon="6.0490168"><ele>0.0</ele><time>2026-04-30T20:01:12.077Z</time></trkpt><trkpt lat="42.7068238" lon="6.0491087"><ele>0.0</ele><time>2026-04-30T20:01:13.077Z</time></trkpt><trkpt lat="42.7068685" lon="6.0491988"><ele>0.0</ele><time>2026-04-30T20:01:14.077Z</time></trkpt><trkpt lat="42.7069096" lon="6.0492904"><ele>0.0</ele><time>2026-04-30T20:01:15.078Z</time></trkpt><trkpt lat="42.7069483" lon="6.0493846"><ele>0.0</ele><time>2026-04-30T20:01:16.077Z</time></trkpt><trkpt lat="42.7069909" lon="6.0494795"><ele>0.0</ele><time>2026-04-30T20:01:17.077Z</time></trkpt><trkpt lat="42.7070425" lon="6.049573"><ele>0.0</ele><time>2026-04-30T20:01:18.078Z</time></trkpt><trkpt lat="42.7070968" lon="6.0496708"><ele>0.0</ele><time>2026-04-30T20:01:19.077Z</time></trkpt><trkpt lat="42.7071461" lon="6.0497649"><ele>0.0</ele><time>2026-04-30T20:01:20.077Z</time></trkpt><trkpt lat="42.7071978" lon="6.0498552"><ele>0.0</ele><time>2026-04-30T20:01:21.077Z</time></trkpt><trkpt lat="42.7072452" lon="6.0499479"><ele>0.0</ele><time>2026-04-30T20:01:22.078Z</time></trkpt><trkpt lat="42.7072919" lon="6.0500439"><ele>0.0</ele><time>2026-04-30T20:01:23.077Z</time></trkpt><trkpt lat="42.7073432" lon="6.0501378"><ele>0.0</ele><time>2026-04-30T20:01:24.077Z</time></trkpt><trkpt lat="42.7073949" lon="6.0502301"><ele>0.0</ele><time>2026-04-30T20:01:25.077Z</time></trkpt><trkpt lat="42.7074408" lon="6.0503244"><ele>0.0</ele><time>2026-04-30T20:01:26.077Z</time></trkpt><trkpt lat="42.7074914" lon="6.0504195"><ele>0.0</ele><time>2026-04-30T20:01:27.077Z</time></trkpt><trkpt lat="42.7075512" lon="6.0505085"><ele>0.0</ele><time>2026-04-30T20:01:28.077Z</time></trkpt><trkpt lat="42.7076046" lon="6.0505982"><ele>0.0</ele><time>2026-04-30T20:01:29.078Z</time></trkpt><trkpt lat="42.7077485" lon="6.0508753"><ele>0.0</ele><time>2026-04-30T20:01:32.078Z</time></trkpt><trkpt lat="42.7077894" lon="6.0509737"><ele>0.0</ele><time>2026-04-30T20:01:33.078Z</time></trkpt><trkpt lat="42.7078339" lon="6.051068"><ele>0.0</ele><time>2026-04-30T20:01:34.077Z</time></trkpt><trkpt lat="42.7078841" lon="6.0511576"><ele>0.0</ele><time>2026-04-30T20:01:35.077Z</time></trkpt><trkpt lat="42.7079301" lon="6.0512445"><ele>0.0</ele><time>2026-04-30T20:01:36.077Z</time></trkpt><trkpt lat="42.707976" lon="6.0513293"><ele>0.0</ele><time>2026-04-30T20:01:37.077Z</time></trkpt><trkpt lat="42.7080237" lon="6.0514157"><ele>0.0</ele><time>2026-04-30T20:01:38.078Z</time></trkpt><trkpt lat="42.7080689" lon="6.0515067"><ele>0.0</ele><time>2026-04-30T20:01:39.077Z</time></trkpt><trkpt lat="42.7081122" lon="6.0515942"><ele>0.0</ele><time>2026-04-30T20:01:40.077Z</time></trkpt><trkpt lat="42.7081568" lon="6.0516907"><ele>0.0</ele><time>2026-04-30T20:01:41.077Z</time></trkpt><trkpt lat="42.7082077" lon="6.0517889"><ele>0.0</ele><time>2026-04-30T20:01:42.078Z</time></trkpt><trkpt lat="42.708254" lon="6.0518847"><ele>0.0</ele><time>2026-04-30T20:01:43.077Z</time></trkpt><trkpt lat="42.7083059" lon="6.0519786"><ele>0.0</ele><time>2026-04-30T20:01:44.078Z</time></trkpt><trkpt lat="42.708365" lon="6.0520688"><ele>0.0</ele><time>2026-04-30T20:01:45.078Z</time></trkpt><trkpt lat="42.7084122" lon="6.0521631"><ele>0.0</ele><time>2026-04-30T20:01:46.078Z</time></trkpt><trkpt lat="42.7084599" lon="6.0522563"><ele>0.0</ele><time>2026-04-30T20:01:47.078Z</time></trkpt><trkpt lat="42.7085084" lon="6.0523498"><ele>0.0</ele><time>2026-04-30T20:01:48.077Z</time></trkpt><trkpt lat="42.7085527" lon="6.0524428"><ele>0.0</ele><time>2026-04-30T20:01:49.078Z</time></trkpt><trkpt lat="42.7086001" lon="6.0525378"><ele>0.0</ele><time>2026-04-30T20:01:50.077Z</time></trkpt><trkpt lat="42.7086923" lon="6.0527215"><ele>0.0</ele><time>2026-04-30T20:01:52.078Z</time></trkpt><trkpt lat="42.7087344" lon="6.0528164"><ele>0.0</ele><time>2026-04-30T20:01:53.078Z</time></trkpt><trkpt lat="42.708783" lon="6.0529116"><ele>0.0</ele><time>2026-04-30T20:01:54.078Z</time></trkpt><trkpt lat="42.708829" lon="6.0530022"><ele>0.0</ele><time>2026-04-30T20:01:55.078Z</time></trkpt><trkpt lat="42.7088751" lon="6.0530951"><ele>0.0</ele><time>2026-04-30T20:01:56.077Z</time></trkpt><trkpt lat="42.7089218" lon="6.0531895"><ele>0.0</ele><time>2026-04-30T20:01:57.077Z</time></trkpt><trkpt lat="42.7089673" lon="6.0532816"><ele>0.0</ele><time>2026-04-30T20:01:58.077Z</time></trkpt><trkpt lat="42.7090071" lon="6.0533791"><ele>0.0</ele><time>2026-04-30T20:01:59.077Z</time></trkpt><trkpt lat="42.7090483" lon="6.0534799"><ele>0.0</ele><time>2026-04-30T20:02:00.077Z</time></trkpt><trkpt lat="42.7090826" lon="6.0535833"><ele>0.0</ele><time>2026-04-30T20:02:01.078Z</time></trkpt><trkpt lat="42.7091738" lon="6.0537766"><ele>0.0</ele><time>2026-04-30T20:02:03.077Z</time></trkpt><trkpt lat="42.7092208" lon="6.053861"><ele>0.0</ele><time>2026-04-30T20:02:04.078Z</time></trkpt><trkpt lat="42.7092648" lon="6.0539518"><ele>0.0</ele><time>2026-04-30T20:02:05.078Z</time></trkpt><trkpt lat="42.7093148" lon="6.0540423"><ele>0.0</ele><time>2026-04-30T20:02:06.077Z</time></trkpt><trkpt lat="42.7093607" lon="6.0541323"><ele>0.0</ele><time>2026-04-30T20:02:07.077Z</time></trkpt><trkpt lat="42.7094059" lon="6.0542279"><ele>0.0</ele><time>2026-04-30T20:02:08.077Z</time></trkpt><trkpt lat="42.7094537" lon="6.0543212"><ele>0.0</ele><time>2026-04-30T20:02:09.078Z</time></trkpt><trkpt lat="42.7094987" lon="6.0544118"><ele>0.0</ele><time>2026-04-30T20:02:10.078Z</time></trkpt><trkpt lat="42.7095447" lon="6.0545036"><ele>0.0</ele><time>2026-04-30T20:02:11.078Z</time></trkpt><trkpt lat="42.7096364" lon="6.0546857"><ele>0.0</ele><time>2026-04-30T20:02:13.077Z</time></trkpt><trkpt lat="42.7096777" lon="6.05478"><ele>0.0</ele><time>2026-04-30T20:02:14.077Z</time></trkpt><trkpt lat="42.7097328" lon="6.0548739"><ele>0.0</ele><time>2026-04-30T20:02:15.078Z</time></trkpt><trkpt lat="42.7097803" lon="6.054968"><ele>0.0</ele><time>2026-04-30T20:02:16.078Z</time></trkpt><trkpt lat="42.7098283" lon="6.0550531"><ele>0.0</ele><time>2026-04-30T20:02:17.078Z</time></trkpt><trkpt lat="42.7098741" lon="6.0551421"><ele>0.0</ele><time>2026-04-30T20:02:18.078Z</time></trkpt><trkpt lat="42.7099216" lon="6.0552333"><ele>0.0</ele><time>2026-04-30T20:02:19.078Z</time></trkpt><trkpt lat="42.7099696" lon="6.0553265"><ele>0.0</ele><time>2026-04-30T20:02:20.078Z</time></trkpt><trkpt lat="42.7100179" lon="6.0554213"><ele>0.0</ele><time>2026-04-30T20:02:21.077Z</time></trkpt><trkpt lat="42.7100661" lon="6.0555136"><ele>0.0</ele><time>2026-04-30T20:02:22.077Z</time></trkpt><trkpt lat="42.7101231" lon="6.0556092"><ele>0.0</ele><time>2026-04-30T20:02:23.077Z</time></trkpt><trkpt lat="42.7101762" lon="6.0557028"><ele>0.0</ele><time>2026-04-30T20:02:24.078Z</time></trkpt><trkpt lat="42.7102283" lon="6.0557991"><ele>0.0</ele><time>2026-04-30T20:02:25.078Z</time></trkpt><trkpt lat="42.7102753" lon="6.0558872"><ele>0.0</ele><time>2026-04-30T20:02:26.077Z</time></trkpt><trkpt lat="42.710325" lon="6.0559768"><ele>0.0</ele><time>2026-04-30T20:02:27.078Z</time></trkpt><trkpt lat="42.7103764" lon="6.0560681"><ele>0.0</ele><time>2026-04-30T20:02:28.078Z</time></trkpt><trkpt lat="42.7104296" lon="6.0561653"><ele>0.0</ele><time>2026-04-30T20:02:29.077Z</time></trkpt><trkpt lat="42.7104801" lon="6.0562597"><ele>0.0</ele><time>2026-04-30T20:02:30.077Z</time></trkpt><trkpt lat="42.7105343" lon="6.0563474"><ele>0.0</ele><time>2026-04-30T20:02:31.077Z</time></trkpt><trkpt lat="42.7105879" lon="6.05644"><ele>0.0</ele><time>2026-04-30T20:02:32.078Z</time></trkpt><trkpt lat="42.7106422" lon="6.0565264"><ele>0.0</ele><time>2026-04-30T20:02:33.078Z</time></trkpt><trkpt lat="42.7108002" lon="6.0567972"><ele>0.0</ele><time>2026-04-30T20:02:36.077Z</time></trkpt><trkpt lat="42.7108501" lon="6.0568898"><ele>0.0</ele><time>2026-04-30T20:02:37.077Z</time></trkpt><trkpt lat="42.7108966" lon="6.0569879"><ele>0.0</ele><time>2026-04-30T20:02:38.078Z</time></trkpt><trkpt lat="42.7109373" lon="6.0570853"><ele>0.0</ele><time>2026-04-30T20:02:39.077Z</time></trkpt><trkpt lat="42.7109742" lon="6.0571791"><ele>0.0</ele><time>2026-04-30T20:02:40.078Z</time></trkpt><trkpt lat="42.7110106" lon="6.0572709"><ele>0.0</ele><time>2026-04-30T20:02:41.077Z</time></trkpt><trkpt lat="42.7110553" lon="6.0573692"><ele>0.0</ele><time>2026-04-30T20:02:42.077Z</time></trkpt><trkpt lat="42.7111019" lon="6.0574603"><ele>0.0</ele><time>2026-04-30T20:02:43.078Z</time></trkpt><trkpt lat="42.7111485" lon="6.0575448"><ele>0.0</ele><time>2026-04-30T20:02:44.077Z</time></trkpt><trkpt lat="42.7111966" lon="6.0576381"><ele>0.0</ele><time>2026-04-30T20:02:45.078Z</time></trkpt><trkpt lat="42.7112427" lon="6.0577268"><ele>0.0</ele><time>2026-04-30T20:02:46.077Z</time></trkpt><trkpt lat="42.7112896" lon="6.0578197"><ele>0.0</ele><time>2026-04-30T20:02:47.077Z</time></trkpt><trkpt lat="42.7113383" lon="6.0579172"><ele>0.0</ele><time>2026-04-30T20:02:48.078Z</time></trkpt><trkpt lat="42.7113824" lon="6.0580071"><ele>0.0</ele><time>2026-04-30T20:02:49.078Z</time></trkpt><trkpt lat="42.7114245" lon="6.0581068"><ele>0.0</ele><time>2026-04-30T20:02:50.078Z</time></trkpt><trkpt lat="42.7114719" lon="6.0582029"><ele>0.0</ele><time>2026-04-30T20:02:51.077Z</time></trkpt><trkpt lat="42.7115286" lon="6.0582964"><ele>0.0</ele><time>2026-04-30T20:02:52.078Z</time></trkpt><trkpt lat="42.7115826" lon="6.0583914"><ele>0.0</ele><time>2026-04-30T20:02:53.078Z</time></trkpt><trkpt lat="42.711632" lon="6.0584816"><ele>0.0</ele><time>2026-04-30T20:02:54.077Z</time></trkpt><trkpt lat="42.7116791" lon="6.0585701"><ele>0.0</ele><time>2026-04-30T20:02:55.077Z</time></trkpt><trkpt lat="42.7117788" lon="6.0587481"><ele>0.0</ele><time>2026-04-30T20:02:57.078Z</time></trkpt><trkpt lat="42.7118267" lon="6.058843"><ele>0.0</ele><time>2026-04-30T20:02:58.077Z</time></trkpt><trkpt lat="42.7118766" lon="6.058936"><ele>0.0</ele><time>2026-04-30T20:02:59.077Z</time></trkpt><trkpt lat="42.7119197" lon="6.0590296"><ele>0.0</ele><time>2026-04-30T20:03:00.078Z</time></trkpt><trkpt lat="42.7119672" lon="6.0591271"><ele>0.0</ele><time>2026-04-30T20:03:01.078Z</time></trkpt><trkpt lat="42.712014" lon="6.0592183"><ele>0.0</ele><time>2026-04-30T20:03:02.077Z</time></trkpt><trkpt lat="42.7120649" lon="6.0593156"><ele>0.0</ele><time>2026-04-30T20:03:03.078Z</time></trkpt><trkpt lat="42.7121138" lon="6.0594094"><ele>0.0</ele><time>2026-04-30T20:03:04.077Z</time></trkpt><trkpt lat="42.7121591" lon="6.0595041"><ele>0.0</ele><time>2026-04-30T20:03:05.078Z</time></trkpt><trkpt lat="42.7122084" lon="6.0595995"><ele>0.0</ele><time>2026-04-30T20:03:06.078Z</time></trkpt><trkpt lat="42.7122561" lon="6.0596899"><ele>0.0</ele><time>2026-04-30T20:03:07.077Z</time></trkpt><trkpt lat="42.7123072" lon="6.0597815"><ele>0.0</ele><time>2026-04-30T20:03:08.077Z</time></trkpt><trkpt lat="42.7123657" lon="6.0598602"><ele>0.0</ele><time>2026-04-30T20:03:09.078Z</time></trkpt><trkpt lat="42.7124136" lon="6.0599457"><ele>0.0</ele><time>2026-04-30T20:03:10.077Z</time></trkpt><trkpt lat="42.7124607" lon="6.0600383"><ele>0.0</ele><time>2026-04-30T20:03:11.077Z</time></trkpt><trkpt lat="42.7125057" lon="6.0601347"><ele>0.0</ele><time>2026-04-30T20:03:12.078Z</time></trkpt><trkpt lat="42.7125475" lon="6.0602282"><ele>0.0</ele><time>2026-04-30T20:03:13.077Z</time></trkpt><trkpt lat="42.712592" lon="6.0603216"><ele>0.0</ele><time>2026-04-30T20:03:14.078Z</time></trkpt><trkpt lat="42.712637" lon="6.0604173"><ele>0.0</ele><time>2026-04-30T20:03:15.077Z</time></trkpt><trkpt lat="42.7126838" lon="6.0605138"><ele>0.0</ele><time>2026-04-30T20:03:16.077Z</time></trkpt><trkpt lat="42.7127758" lon="6.0607059"><ele>0.0</ele><time>2026-04-30T20:03:18.078Z</time></trkpt><trkpt lat="42.7128222" lon="6.0608012"><ele>0.0</ele><time>2026-04-30T20:03:19.077Z</time></trkpt><trkpt lat="42.7128641" lon="6.060892"><ele>0.0</ele><time>2026-04-30T20:03:20.078Z</time></trkpt><trkpt lat="42.7129107" lon="6.0609833"><ele>0.0</ele><time>2026-04-30T20:03:21.077Z</time></trkpt><trkpt lat="42.7129581" lon="6.0610766"><ele>0.0</ele><time>2026-04-30T20:03:22.077Z</time></trkpt><trkpt lat="42.7129994" lon="6.0611698"><ele>0.0</ele><time>2026-04-30T20:03:23.078Z</time></trkpt><trkpt lat="42.7130482" lon="6.0612675"><ele>0.0</ele><time>2026-04-30T20:03:24.077Z</time></trkpt><trkpt lat="42.7130971" lon="6.0613671"><ele>0.0</ele><time>2026-04-30T20:03:25.078Z</time></trkpt><trkpt lat="42.713141" lon="6.0614627"><ele>0.0</ele><time>2026-04-30T20:03:26.078Z</time></trkpt><trkpt lat="42.7131839" lon="6.0615537"><ele>0.0</ele><time>2026-04-30T20:03:27.078Z</time></trkpt><trkpt lat="42.7132268" lon="6.0616497"><ele>0.0</ele><time>2026-04-30T20:03:28.078Z</time></trkpt><trkpt lat="42.7132757" lon="6.0617364"><ele>0.0</ele><time>2026-04-30T20:03:29.078Z</time></trkpt><trkpt lat="42.7133216" lon="6.0618345"><ele>0.0</ele><time>2026-04-30T20:03:30.077Z</time></trkpt><trkpt lat="42.7133655" lon="6.0619256"><ele>0.0</ele><time>2026-04-30T20:03:31.078Z</time></trkpt><trkpt lat="42.7134176" lon="6.0620152"><ele>0.0</ele><time>2026-04-30T20:03:32.077Z</time></trkpt><trkpt lat="42.7134723" lon="6.0621039"><ele>0.0</ele><time>2026-04-30T20:03:33.078Z</time></trkpt><trkpt lat="42.7135206" lon="6.0621921"><ele>0.0</ele><time>2026-04-30T20:03:34.077Z</time></trkpt><trkpt lat="42.7135672" lon="6.062285"><ele>0.0</ele><time>2026-04-30T20:03:35.077Z</time></trkpt><trkpt lat="42.7136247" lon="6.0623783"><ele>0.0</ele><time>2026-04-30T20:03:36.078Z</time></trkpt><trkpt lat="42.7136793" lon="6.0624728"><ele>0.0</ele><time>2026-04-30T20:03:37.077Z</time></trkpt><trkpt lat="42.7138365" lon="6.0627516"><ele>0.0</ele><time>2026-04-30T20:03:40.078Z</time></trkpt><trkpt lat="42.7138812" lon="6.0628383"><ele>0.0</ele><time>2026-04-30T20:03:41.078Z</time></trkpt><trkpt lat="42.7139247" lon="6.0629296"><ele>0.0</ele><time>2026-04-30T20:03:42.078Z</time></trkpt><trkpt lat="42.7139761" lon="6.0630227"><ele>0.0</ele><time>2026-04-30T20:03:43.078Z</time></trkpt><trkpt lat="42.7140336" lon="6.0631119"><ele>0.0</ele><time>2026-04-30T20:03:44.078Z</time></trkpt><trkpt lat="42.7140806" lon="6.0632004"><ele>0.0</ele><time>2026-04-30T20:03:45.077Z</time></trkpt><trkpt lat="42.7141188" lon="6.0633004"><ele>0.0</ele><time>2026-04-30T20:03:46.077Z</time></trkpt><trkpt lat="42.7141638" lon="6.063389"><ele>0.0</ele><time>2026-04-30T20:03:47.077Z</time></trkpt><trkpt lat="42.7142032" lon="6.0634802"><ele>0.0</ele><time>2026-04-30T20:03:48.078Z</time></trkpt><trkpt lat="42.714247" lon="6.0635703"><ele>0.0</ele><time>2026-04-30T20:03:49.078Z</time></trkpt><trkpt lat="42.7142963" lon="6.0636646"><ele>0.0</ele><time>2026-04-30T20:03:50.078Z</time></trkpt><trkpt lat="42.7143544" lon="6.0637608"><ele>0.0</ele><time>2026-04-30T20:03:51.077Z</time></trkpt><trkpt lat="42.7144122" lon="6.0638582"><ele>0.0</ele><time>2026-04-30T20:03:52.078Z</time></trkpt><trkpt lat="42.7144716" lon="6.0639483"><ele>0.0</ele><time>2026-04-30T20:03:53.077Z</time></trkpt><trkpt lat="42.7145288" lon="6.0640339"><ele>0.0</ele><time>2026-04-30T20:03:54.077Z</time></trkpt><trkpt lat="42.7145756" lon="6.0641222"><ele>0.0</ele><time>2026-04-30T20:03:55.077Z</time></trkpt><trkpt lat="42.7146292" lon="6.0642116"><ele>0.0</ele><time>2026-04-30T20:03:56.077Z</time></trkpt><trkpt lat="42.7146754" lon="6.0643019"><ele>0.0</ele><time>2026-04-30T20:03:57.077Z</time></trkpt><trkpt lat="42.7147204" lon="6.0643876"><ele>0.0</ele><time>2026-04-30T20:03:58.077Z</time></trkpt><trkpt lat="42.7147712" lon="6.0644782"><ele>0.0</ele><time>2026-04-30T20:03:59.077Z</time></trkpt><trkpt lat="42.7148783" lon="6.0646693"><ele>0.0</ele><time>2026-04-30T20:04:01.077Z</time></trkpt><trkpt lat="42.7149286" lon="6.06476"><ele>0.0</ele><time>2026-04-30T20:04:02.077Z</time></trkpt><trkpt lat="42.7149631" lon="6.0648528"><ele>0.0</ele><time>2026-04-30T20:04:03.078Z</time></trkpt><trkpt lat="42.7150031" lon="6.0649503"><ele>0.0</ele><time>2026-04-30T20:04:04.077Z</time></trkpt><trkpt lat="42.7150514" lon="6.0650443"><ele>0.0</ele><time>2026-04-30T20:04:05.077Z</time></trkpt><trkpt lat="42.7150931" lon="6.0651437"><ele>0.0</ele><time>2026-04-30T20:04:06.078Z</time></trkpt><trkpt lat="42.7151389" lon="6.0652379"><ele>0.0</ele><time>2026-04-30T20:04:07.078Z</time></trkpt><trkpt lat="42.7151866" lon="6.0653326"><ele>0.0</ele><time>2026-04-30T20:04:08.077Z</time></trkpt><trkpt lat="42.7152425" lon="6.0654204"><ele>0.0</ele><time>2026-04-30T20:04:09.077Z</time></trkpt><trkpt lat="42.715341" lon="6.065606"><ele>0.0</ele><time>2026-04-30T20:04:11.078Z</time></trkpt><trkpt lat="42.7153847" lon="6.0657063"><ele>0.0</ele><time>2026-04-30T20:04:12.077Z</time></trkpt><trkpt lat="42.7154361" lon="6.0657967"><ele>0.0</ele><time>2026-04-30T20:04:13.078Z</time></trkpt><trkpt lat="42.7154851" lon="6.0658843"><ele>0.0</ele><time>2026-04-30T20:04:14.078Z</time></trkpt><trkpt lat="42.7155322" lon="6.0659796"><ele>0.0</ele><time>2026-04-30T20:04:15.078Z</time></trkpt><trkpt lat="42.7155759" lon="6.0660749"><ele>0.0</ele><time>2026-04-30T20:04:16.077Z</time></trkpt><trkpt lat="42.7156192" lon="6.0661711"><ele>0.0</ele><time>2026-04-30T20:04:17.077Z</time></trkpt><trkpt lat="42.7156668" lon="6.0662603"><ele>0.0</ele><time>2026-04-30T20:04:18.078Z</time></trkpt><trkpt lat="42.7157122" lon="6.066353"><ele>0.0</ele><time>2026-04-30T20:04:19.078Z</time></trkpt><trkpt lat="42.715757" lon="6.066451"><ele>0.0</ele><time>2026-04-30T20:04:20.078Z</time></trkpt><trkpt lat="42.7158607" lon="6.0666356"><ele>0.0</ele><time>2026-04-30T20:04:22.078Z</time></trkpt><trkpt lat="42.7159032" lon="6.0667287"><ele>0.0</ele><time>2026-04-30T20:04:23.077Z</time></trkpt><trkpt lat="42.7159436" lon="6.0668271"><ele>0.0</ele><time>2026-04-30T20:04:24.077Z</time></trkpt><trkpt lat="42.715983" lon="6.0669257"><ele>0.0</ele><time>2026-04-30T20:04:25.077Z</time></trkpt><trkpt lat="42.7160233" lon="6.0670287"><ele>0.0</ele><time>2026-04-30T20:04:26.077Z</time></trkpt><trkpt lat="42.7160715" lon="6.0671206"><ele>0.0</ele><time>2026-04-30T20:04:27.077Z</time></trkpt><trkpt lat="42.7161168" lon="6.0672167"><ele>0.0</ele><time>2026-04-30T20:04:28.077Z</time></trkpt><trkpt lat="42.7161577" lon="6.0673099"><ele>0.0</ele><time>2026-04-30T20:04:29.078Z</time></trkpt><trkpt lat="42.7162064" lon="6.0674003"><ele>0.0</ele><time>2026-04-30T20:04:30.077Z</time></trkpt><trkpt lat="42.7162607" lon="6.0674907"><ele>0.0</ele><time>2026-04-30T20:04:31.078Z</time></trkpt><trkpt lat="42.7163101" lon="6.0675803"><ele>0.0</ele><time>2026-04-30T20:04:32.077Z</time></trkpt><trkpt lat="42.716355" lon="6.0676691"><ele>0.0</ele><time>2026-04-30T20:04:33.078Z</time></trkpt><trkpt lat="42.7164085" lon="6.067762"><ele>0.0</ele><time>2026-04-30T20:04:34.077Z</time></trkpt><trkpt lat="42.7164599" lon="6.0678521"><ele>0.0</ele><time>2026-04-30T20:04:35.078Z</time></trkpt><trkpt lat="42.7165123" lon="6.0679447"><ele>0.0</ele><time>2026-04-30T20:04:36.076Z</time></trkpt><trkpt lat="42.7165658" lon="6.068038"><ele>0.0</ele><time>2026-04-30T20:04:37.077Z</time></trkpt><trkpt lat="42.7166288" lon="6.0681242"><ele>0.0</ele><time>2026-04-30T20:04:38.076Z</time></trkpt><trkpt lat="42.7166713" lon="6.068212"><ele>0.0</ele><time>2026-04-30T20:04:39.077Z</time></trkpt><trkpt lat="42.7167174" lon="6.0683032"><ele>0.0</ele><time>2026-04-30T20:04:40.076Z</time></trkpt><trkpt lat="42.7167669" lon="6.0683964"><ele>0.0</ele><time>2026-04-30T20:04:41.077Z</time></trkpt><trkpt lat="42.7169163" lon="6.0686863"><ele>0.0</ele><time>2026-04-30T20:04:44.077Z</time></trkpt><trkpt lat="42.716963" lon="6.0687786"><ele>0.0</ele><time>2026-04-30T20:04:45.076Z</time></trkpt><trkpt lat="42.7170086" lon="6.0688758"><ele>0.0</ele><time>2026-04-30T20:04:46.077Z</time></trkpt><trkpt lat="42.7170575" lon="6.0689684"><ele>0.0</ele><time>2026-04-30T20:04:47.076Z</time></trkpt><trkpt lat="42.717102" lon="6.0690623"><ele>0.0</ele><time>2026-04-30T20:04:48.076Z</time></trkpt><trkpt lat="42.7171441" lon="6.0691523"><ele>0.0</ele><time>2026-04-30T20:04:49.076Z</time></trkpt><trkpt lat="42.7171931" lon="6.0692408"><ele>0.0</ele><time>2026-04-30T20:04:50.077Z</time></trkpt><trkpt lat="42.7172395" lon="6.0693333"><ele>0.0</ele><time>2026-04-30T20:04:51.077Z</time></trkpt><trkpt lat="42.7172872" lon="6.0694221"><ele>0.0</ele><time>2026-04-30T20:04:52.076Z</time></trkpt><trkpt lat="42.7173297" lon="6.0695147"><ele>0.0</ele><time>2026-04-30T20:04:53.077Z</time></trkpt><trkpt lat="42.7173683" lon="6.0696076"><ele>0.0</ele><time>2026-04-30T20:04:54.077Z</time></trkpt><trkpt lat="42.7174137" lon="6.0697057"><ele>0.0</ele><time>2026-04-30T20:04:55.077Z</time></trkpt><trkpt lat="42.7174601" lon="6.0697986"><ele>0.0</ele><time>2026-04-30T20:04:56.077Z</time></trkpt><trkpt lat="42.7175099" lon="6.0698916"><ele>0.0</ele><time>2026-04-30T20:04:57.077Z</time></trkpt><trkpt lat="42.7175599" lon="6.0699905"><ele>0.0</ele><time>2026-04-30T20:04:58.076Z</time></trkpt><trkpt lat="42.7176081" lon="6.070086"><ele>0.0</ele><time>2026-04-30T20:04:59.076Z</time></trkpt><trkpt lat="42.7176591" lon="6.0701799"><ele>0.0</ele><time>2026-04-30T20:05:00.076Z</time></trkpt><trkpt lat="42.7177056" lon="6.0702719"><ele>0.0</ele><time>2026-04-30T20:05:01.076Z</time></trkpt><trkpt lat="42.7177519" lon="6.0703621"><ele>0.0</ele><time>2026-04-30T20:05:02.076Z</time></trkpt><trkpt lat="42.7177995" lon="6.0704523"><ele>0.0</ele><time>2026-04-30T20:05:03.076Z</time></trkpt><trkpt lat="42.7178993" lon="6.070634"><ele>0.0</ele><time>2026-04-30T20:05:05.076Z</time></trkpt><trkpt lat="42.7179494" lon="6.0707235"><ele>0.0</ele><time>2026-04-30T20:05:06.077Z</time></trkpt><trkpt lat="42.7179942" lon="6.0708152"><ele>0.0</ele><time>2026-04-30T20:05:07.076Z</time></trkpt><trkpt lat="42.7180376" lon="6.0709042"><ele>0.0</ele><time>2026-04-30T20:05:08.076Z</time></trkpt><trkpt lat="42.7180804" lon="6.0709978"><ele>0.0</ele><time>2026-04-30T20:05:09.076Z</time></trkpt><trkpt lat="42.7181282" lon="6.07109"><ele>0.0</ele><time>2026-04-30T20:05:10.077Z</time></trkpt><trkpt lat="42.7181782" lon="6.0711851"><ele>0.0</ele><time>2026-04-30T20:05:11.077Z</time></trkpt><trkpt lat="42.7182212" lon="6.0712812"><ele>0.0</ele><time>2026-04-30T20:05:12.076Z</time></trkpt><trkpt lat="42.7183084" lon="6.0714644"><ele>0.0</ele><time>2026-04-30T20:05:14.076Z</time></trkpt><trkpt lat="42.7183526" lon="6.0715547"><ele>0.0</ele><time>2026-04-30T20:05:15.076Z</time></trkpt><trkpt lat="42.7184022" lon="6.0716438"><ele>0.0</ele><time>2026-04-30T20:05:16.077Z</time></trkpt><trkpt lat="42.718443" lon="6.0717348"><ele>0.0</ele><time>2026-04-30T20:05:17.077Z</time></trkpt><trkpt lat="42.7184842" lon="6.0718311"><ele>0.0</ele><time>2026-04-30T20:05:18.077Z</time></trkpt><trkpt lat="42.7185257" lon="6.0719236"><ele>0.0</ele><time>2026-04-30T20:05:19.076Z</time></trkpt><trkpt lat="42.7185703" lon="6.072018"><ele>0.0</ele><time>2026-04-30T20:05:20.077Z</time></trkpt><trkpt lat="42.7186129" lon="6.072112"><ele>0.0</ele><time>2026-04-30T20:05:21.076Z</time></trkpt><trkpt lat="42.7186544" lon="6.0722049"><ele>0.0</ele><time>2026-04-30T20:05:22.077Z</time></trkpt><trkpt lat="42.7187028" lon="6.0722952"><ele>0.0</ele><time>2026-04-30T20:05:23.076Z</time></trkpt><trkpt lat="42.7187594" lon="6.0723897"><ele>0.0</ele><time>2026-04-30T20:05:24.076Z</time></trkpt><trkpt lat="42.7188957" lon="6.0725815"><ele>0.0</ele><time>2026-04-30T20:05:26.076Z</time></trkpt><trkpt lat="42.7189478" lon="6.0726748"><ele>0.0</ele><time>2026-04-30T20:05:27.077Z</time></trkpt><trkpt lat="42.7189982" lon="6.0727677"><ele>0.0</ele><time>2026-04-30T20:05:28.076Z</time></trkpt><trkpt lat="42.7190516" lon="6.0728596"><ele>0.0</ele><time>2026-04-30T20:05:29.076Z</time></trkpt><trkpt lat="42.7191046" lon="6.0729545"><ele>0.0</ele><time>2026-04-30T20:05:30.077Z</time></trkpt><trkpt lat="42.7191502" lon="6.0730413"><ele>0.0</ele><time>2026-04-30T20:05:31.077Z</time></trkpt><trkpt lat="42.7191998" lon="6.0731313"><ele>0.0</ele><time>2026-04-30T20:05:32.076Z</time></trkpt><trkpt lat="42.719244" lon="6.0732249"><ele>0.0</ele><time>2026-04-30T20:05:33.077Z</time></trkpt><trkpt lat="42.719293" lon="6.0733167"><ele>0.0</ele><time>2026-04-30T20:05:34.077Z</time></trkpt><trkpt lat="42.7193402" lon="6.0734101"><ele>0.0</ele><time>2026-04-30T20:05:35.076Z</time></trkpt><trkpt lat="42.7193868" lon="6.0735064"><ele>0.0</ele><time>2026-04-30T20:05:36.077Z</time></trkpt><trkpt lat="42.7194323" lon="6.0735979"><ele>0.0</ele><time>2026-04-30T20:05:37.076Z</time></trkpt><trkpt lat="42.7194814" lon="6.0736873"><ele>0.0</ele><time>2026-04-30T20:05:38.076Z</time></trkpt><trkpt lat="42.7195323" lon="6.0737798"><ele>0.0</ele><time>2026-04-30T20:05:39.076Z</time></trkpt><trkpt lat="42.7195842" lon="6.0738718"><ele>0.0</ele><time>2026-04-30T20:05:40.077Z</time></trkpt><trkpt lat="42.719629" lon="6.0739647"><ele>0.0</ele><time>2026-04-30T20:05:41.077Z</time></trkpt><trkpt lat="42.7196754" lon="6.0740565"><ele>0.0</ele><time>2026-04-30T20:05:42.077Z</time></trkpt><trkpt lat="42.7197236" lon="6.0741485"><ele>0.0</ele><time>2026-04-30T20:05:43.076Z</time></trkpt><trkpt lat="42.7197676" lon="6.0742387"><ele>0.0</ele><time>2026-04-30T20:05:44.076Z</time></trkpt><trkpt lat="42.7198113" lon="6.0743328"><ele>0.0</ele><time>2026-04-30T20:05:45.076Z</time></trkpt><trkpt lat="42.7199328" lon="6.0746194"><ele>0.0</ele><time>2026-04-30T20:05:48.077Z</time></trkpt><trkpt lat="42.7199859" lon="6.0747088"><ele>0.0</ele><time>2026-04-30T20:05:49.076Z</time></trkpt><trkpt lat="42.7200363" lon="6.0747975"><ele>0.0</ele><time>2026-04-30T20:05:50.076Z</time></trkpt><trkpt lat="42.7200934" lon="6.0748903"><ele>0.0</ele><time>2026-04-30T20:05:51.077Z</time></trkpt><trkpt lat="42.7201466" lon="6.0749851"><ele>0.0</ele><time>2026-04-30T20:05:52.077Z</time></trkpt><trkpt lat="42.7201938" lon="6.0750784"><ele>0.0</ele><time>2026-04-30T20:05:53.077Z</time></trkpt><trkpt lat="42.7202474" lon="6.075169"><ele>0.0</ele><time>2026-04-30T20:05:54.077Z</time></trkpt><trkpt lat="42.7202963" lon="6.0752599"><ele>0.0</ele><time>2026-04-30T20:05:55.076Z</time></trkpt><trkpt lat="42.7203448" lon="6.0753489"><ele>0.0</ele><time>2026-04-30T20:05:56.076Z</time></trkpt><trkpt lat="42.7203948" lon="6.07544"><ele>0.0</ele><time>2026-04-30T20:05:57.076Z</time></trkpt><trkpt lat="42.7204433" lon="6.0755359"><ele>0.0</ele><time>2026-04-30T20:05:58.076Z</time></trkpt><trkpt lat="42.7204928" lon="6.0756271"><ele>0.0</ele><time>2026-04-30T20:05:59.077Z</time></trkpt><trkpt lat="42.7205417" lon="6.0757212"><ele>0.0</ele><time>2026-04-30T20:06:00.077Z</time></trkpt><trkpt lat="42.7205942" lon="6.0758207"><ele>0.0</ele><time>2026-04-30T20:06:01.076Z</time></trkpt><trkpt lat="42.7206387" lon="6.0759149"><ele>0.0</ele><time>2026-04-30T20:06:02.077Z</time></trkpt><trkpt lat="42.7206866" lon="6.076011"><ele>0.0</ele><time>2026-04-30T20:06:03.077Z</time></trkpt><trkpt lat="42.7207393" lon="6.0761018"><ele>0.0</ele><time>2026-04-30T20:06:04.076Z</time></trkpt><trkpt lat="42.7207839" lon="6.0761936"><ele>0.0</ele><time>2026-04-30T20:06:05.076Z</time></trkpt><trkpt lat="42.7208232" lon="6.0762852"><ele>0.0</ele><time>2026-04-30T20:06:06.076Z</time></trkpt><trkpt lat="42.7208599" lon="6.0763725"><ele>0.0</ele><time>2026-04-30T20:06:07.076Z</time></trkpt><trkpt lat="42.7209409" lon="6.0765585"><ele>0.0</ele><time>2026-04-30T20:06:09.076Z</time></trkpt><trkpt lat="42.7209829" lon="6.0766471"><ele>0.0</ele><time>2026-04-30T20:06:10.076Z</time></trkpt><trkpt lat="42.7210294" lon="6.0767443"><ele>0.0</ele><time>2026-04-30T20:06:11.076Z</time></trkpt><trkpt lat="42.7210714" lon="6.0768466"><ele>0.0</ele><time>2026-04-30T20:06:12.076Z</time></trkpt><trkpt lat="42.7211072" lon="6.0769442"><ele>0.0</ele><time>2026-04-30T20:06:13.077Z</time></trkpt><trkpt lat="42.7211493" lon="6.0770395"><ele>0.0</ele><time>2026-04-30T20:06:14.076Z</time></trkpt><trkpt lat="42.721191" lon="6.0771322"><ele>0.0</ele><time>2026-04-30T20:06:15.077Z</time></trkpt><trkpt lat="42.7212326" lon="6.0772232"><ele>0.0</ele><time>2026-04-30T20:06:16.077Z</time></trkpt><trkpt lat="42.7212785" lon="6.0773092"><ele>0.0</ele><time>2026-04-30T20:06:17.076Z</time></trkpt><trkpt lat="42.7213765" lon="6.077499"><ele>0.0</ele><time>2026-04-30T20:06:19.077Z</time></trkpt><trkpt lat="42.7214197" lon="6.0775929"><ele>0.0</ele><time>2026-04-30T20:06:20.076Z</time></trkpt><trkpt lat="42.7214598" lon="6.0776905"><ele>0.0</ele><time>2026-04-30T20:06:21.076Z</time></trkpt><trkpt lat="42.7215094" lon="6.0777848"><ele>0.0</ele><time>2026-04-30T20:06:22.076Z</time></trkpt><trkpt lat="42.7215681" lon="6.0778855"><ele>0.0</ele><time>2026-04-30T20:06:23.076Z</time></trkpt><trkpt lat="42.7216282" lon="6.0779771"><ele>0.0</ele><time>2026-04-30T20:06:24.077Z</time></trkpt><trkpt lat="42.7216813" lon="6.0780661"><ele>0.0</ele><time>2026-04-30T20:06:25.077Z</time></trkpt><trkpt lat="42.7217346" lon="6.0781514"><ele>0.0</ele><time>2026-04-30T20:06:26.076Z</time></trkpt><trkpt lat="42.7217863" lon="6.078236"><ele>0.0</ele><time>2026-04-30T20:06:27.076Z</time></trkpt><trkpt lat="42.7218391" lon="6.0783325"><ele>0.0</ele><time>2026-04-30T20:06:28.076Z</time></trkpt><trkpt lat="42.7219379" lon="6.0785092"><ele>0.0</ele><time>2026-04-30T20:06:30.076Z</time></trkpt><trkpt lat="42.7219894" lon="6.0785943"><ele>0.0</ele><time>2026-04-30T20:06:31.077Z</time></trkpt><trkpt lat="42.7220429" lon="6.0786834"><ele>0.0</ele><time>2026-04-30T20:06:32.076Z</time></trkpt><trkpt lat="42.7220891" lon="6.0787765"><ele>0.0</ele><time>2026-04-30T20:06:33.076Z</time></trkpt><trkpt lat="42.7221325" lon="6.0788708"><ele>0.0</ele><time>2026-04-30T20:06:34.076Z</time></trkpt><trkpt lat="42.7221746" lon="6.0789646"><ele>0.0</ele><time>2026-04-30T20:06:35.076Z</time></trkpt><trkpt lat="42.7222191" lon="6.0790574"><ele>0.0</ele><time>2026-04-30T20:06:36.077Z</time></trkpt><trkpt lat="42.7222598" lon="6.0791521"><ele>0.0</ele><time>2026-04-30T20:06:37.076Z</time></trkpt><trkpt lat="42.7223053" lon="6.079249"><ele>0.0</ele><time>2026-04-30T20:06:38.076Z</time></trkpt><trkpt lat="42.7223505" lon="6.0793398"><ele>0.0</ele><time>2026-04-30T20:06:39.076Z</time></trkpt><trkpt lat="42.7223951" lon="6.0794316"><ele>0.0</ele><time>2026-04-30T20:06:40.077Z</time></trkpt><trkpt lat="42.7224419" lon="6.0795293"><ele>0.0</ele><time>2026-04-30T20:06:41.076Z</time></trkpt><trkpt lat="42.7224872" lon="6.0796247"><ele>0.0</ele><time>2026-04-30T20:06:42.077Z</time></trkpt><trkpt lat="42.7225363" lon="6.0797184"><ele>0.0</ele><time>2026-04-30T20:06:43.076Z</time></trkpt><trkpt lat="42.7225821" lon="6.079813"><ele>0.0</ele><time>2026-04-30T20:06:44.076Z</time></trkpt><trkpt lat="42.7226267" lon="6.0799053"><ele>0.0</ele><time>2026-04-30T20:06:45.076Z</time></trkpt><trkpt lat="42.7226719" lon="6.079997"><ele>0.0</ele><time>2026-04-30T20:06:46.076Z</time></trkpt><trkpt lat="42.7227188" lon="6.0800853"><ele>0.0</ele><time>2026-04-30T20:06:47.077Z</time></trkpt><trkpt lat="42.7227639" lon="6.0801752"><ele>0.0</ele><time>2026-04-30T20:06:48.076Z</time></trkpt><trkpt lat="42.7228132" lon="6.0802624"><ele>0.0</ele><time>2026-04-30T20:06:49.077Z</time></trkpt><trkpt lat="42.7229586" lon="6.0805383"><ele>0.0</ele><time>2026-04-30T20:06:52.077Z</time></trkpt><trkpt lat="42.7230093" lon="6.0806294"><ele>0.0</ele><time>2026-04-30T20:06:53.076Z</time></trkpt><trkpt lat="42.7230553" lon="6.0807189"><ele>0.0</ele><time>2026-04-30T20:06:54.076Z</time></trkpt><trkpt lat="42.7231062" lon="6.0808131"><ele>0.0</ele><time>2026-04-30T20:06:55.076Z</time></trkpt><trkpt lat="42.7231505" lon="6.0809083"><ele>0.0</ele><time>2026-04-30T20:06:56.077Z</time></trkpt><trkpt lat="42.7232025" lon="6.0810076"><ele>0.0</ele><time>2026-04-30T20:06:57.076Z</time></trkpt><trkpt lat="42.7232498" lon="6.0811071"><ele>0.0</ele><time>2026-04-30T20:06:58.076Z</time></trkpt><trkpt lat="42.7232955" lon="6.0811997"><ele>0.0</ele><time>2026-04-30T20:06:59.077Z</time></trkpt><trkpt lat="42.7233459" lon="6.0812931"><ele>0.0</ele><time>2026-04-30T20:07:00.077Z</time></trkpt><trkpt lat="42.7233963" lon="6.0813824"><ele>0.0</ele><time>2026-04-30T20:07:01.077Z</time></trkpt><trkpt lat="42.7234536" lon="6.0814704"><ele>0.0</ele><time>2026-04-30T20:07:02.077Z</time></trkpt><trkpt lat="42.7235123" lon="6.0815587"><ele>0.0</ele><time>2026-04-30T20:07:03.076Z</time></trkpt><trkpt lat="42.7235659" lon="6.0816501"><ele>0.0</ele><time>2026-04-30T20:07:04.076Z</time></trkpt><trkpt lat="42.7236108" lon="6.0817418"><ele>0.0</ele><time>2026-04-30T20:07:05.077Z</time></trkpt><trkpt lat="42.7236616" lon="6.0818304"><ele>0.0</ele><time>2026-04-30T20:07:06.076Z</time></trkpt><trkpt lat="42.7237148" lon="6.0819184"><ele>0.0</ele><time>2026-04-30T20:07:07.077Z</time></trkpt><trkpt lat="42.7237623" lon="6.082017"><ele>0.0</ele><time>2026-04-30T20:07:08.077Z</time></trkpt><trkpt lat="42.723803" lon="6.0821148"><ele>0.0</ele><time>2026-04-30T20:07:09.077Z</time></trkpt><trkpt lat="42.7238469" lon="6.0822082"><ele>0.0</ele><time>2026-04-30T20:07:10.076Z</time></trkpt><trkpt lat="42.7238975" lon="6.0822968"><ele>0.0</ele><time>2026-04-30T20:07:11.076Z</time></trkpt><trkpt lat="42.7239908" lon="6.0824705"><ele>0.0</ele><time>2026-04-30T20:07:13.077Z</time></trkpt><trkpt lat="42.7240424" lon="6.0825546"><ele>0.0</ele><time>2026-04-30T20:07:14.077Z</time></trkpt><trkpt lat="42.7240911" lon="6.0826485"><ele>0.0</ele><time>2026-04-30T20:07:15.076Z</time></trkpt><trkpt lat="42.7241393" lon="6.0827457"><ele>0.0</ele><time>2026-04-30T20:07:16.076Z</time></trkpt><trkpt lat="42.7241891" lon="6.082841"><ele>0.0</ele><time>2026-04-30T20:07:17.077Z</time></trkpt><trkpt lat="42.7242413" lon="6.0829371"><ele>0.0</ele><time>2026-04-30T20:07:18.076Z</time></trkpt><trkpt lat="42.7242896" lon="6.083032"><ele>0.0</ele><time>2026-04-30T20:07:19.076Z</time></trkpt><trkpt lat="42.7243381" lon="6.083124"><ele>0.0</ele><time>2026-04-30T20:07:20.076Z</time></trkpt><trkpt lat="42.7243808" lon="6.0832162"><ele>0.0</ele><time>2026-04-30T20:07:21.077Z</time></trkpt><trkpt lat="42.7244313" lon="6.0833036"><ele>0.0</ele><time>2026-04-30T20:07:22.077Z</time></trkpt><trkpt lat="42.7244885" lon="6.083392"><ele>0.0</ele><time>2026-04-30T20:07:23.077Z</time></trkpt><trkpt lat="42.7245394" lon="6.0834784"><ele>0.0</ele><time>2026-04-30T20:07:24.076Z</time></trkpt><trkpt lat="42.7245881" lon="6.0835636"><ele>0.0</ele><time>2026-04-30T20:07:25.077Z</time></trkpt><trkpt lat="42.7246334" lon="6.0836529"><ele>0.0</ele><time>2026-04-30T20:07:26.077Z</time></trkpt><trkpt lat="42.7246769" lon="6.0837424"><ele>0.0</ele><time>2026-04-30T20:07:27.077Z</time></trkpt><trkpt lat="42.7247229" lon="6.083836"><ele>0.0</ele><time>2026-04-30T20:07:28.076Z</time></trkpt><trkpt lat="42.7247738" lon="6.0839233"><ele>0.0</ele><time>2026-04-30T20:07:29.077Z</time></trkpt><trkpt lat="42.7248211" lon="6.0840184"><ele>0.0</ele><time>2026-04-30T20:07:30.077Z</time></trkpt><trkpt lat="42.7248639" lon="6.0841108"><ele>0.0</ele><time>2026-04-30T20:07:31.076Z</time></trkpt><trkpt lat="42.7249162" lon="6.0842096"><ele>0.0</ele><time>2026-04-30T20:07:32.077Z</time></trkpt><trkpt lat="42.7250067" lon="6.0844065"><ele>0.0</ele><time>2026-04-30T20:07:34.076Z</time></trkpt><trkpt lat="42.7250477" lon="6.084495"><ele>0.0</ele><time>2026-04-30T20:07:35.076Z</time></trkpt><trkpt lat="42.7250905" lon="6.0845885"><ele>0.0</ele><time>2026-04-30T20:07:36.077Z</time></trkpt><trkpt lat="42.7251367" lon="6.0846766"><ele>0.0</ele><time>2026-04-30T20:07:37.076Z</time></trkpt><trkpt lat="42.7251773" lon="6.0847718"><ele>0.0</ele><time>2026-04-30T20:07:38.076Z</time></trkpt><trkpt lat="42.7252183" lon="6.0848687"><ele>0.0</ele><time>2026-04-30T20:07:39.076Z</time></trkpt><trkpt lat="42.7252591" lon="6.0849626"><ele>0.0</ele><time>2026-04-30T20:07:40.077Z</time></trkpt><trkpt lat="42.7252899" lon="6.0850531"><ele>0.0</ele><time>2026-04-30T20:07:41.077Z</time></trkpt><trkpt lat="42.7253337" lon="6.0851472"><ele>0.0</ele><time>2026-04-30T20:07:42.076Z</time></trkpt><trkpt lat="42.7253761" lon="6.0852407"><ele>0.0</ele><time>2026-04-30T20:07:43.076Z</time></trkpt><trkpt lat="42.725425" lon="6.0853324"><ele>0.0</ele><time>2026-04-30T20:07:44.077Z</time></trkpt><trkpt lat="42.7254731" lon="6.0854224"><ele>0.0</ele><time>2026-04-30T20:07:45.076Z</time></trkpt><trkpt lat="42.7255299" lon="6.085522"><ele>0.0</ele><time>2026-04-30T20:07:46.077Z</time></trkpt><trkpt lat="42.7255908" lon="6.085618"><ele>0.0</ele><time>2026-04-30T20:07:47.076Z</time></trkpt><trkpt lat="42.7256382" lon="6.0857143"><ele>0.0</ele><time>2026-04-30T20:07:48.076Z</time></trkpt><trkpt lat="42.7256828" lon="6.0858027"><ele>0.0</ele><time>2026-04-30T20:07:49.077Z</time></trkpt><trkpt lat="42.725734" lon="6.0858969"><ele>0.0</ele><time>2026-04-30T20:07:50.076Z</time></trkpt><trkpt lat="42.725783" lon="6.0859919"><ele>0.0</ele><time>2026-04-30T20:07:51.077Z</time></trkpt><trkpt lat="42.7258272" lon="6.0860882"><ele>0.0</ele><time>2026-04-30T20:07:52.076Z</time></trkpt><trkpt lat="42.7258759" lon="6.0861835"><ele>0.0</ele><time>2026-04-30T20:07:53.076Z</time></trkpt><trkpt lat="42.7260312" lon="6.0864602"><ele>0.0</ele><time>2026-04-30T20:07:56.076Z</time></trkpt><trkpt lat="42.7260829" lon="6.0865533"><ele>0.0</ele><time>2026-04-30T20:07:57.077Z</time></trkpt><trkpt lat="42.7261303" lon="6.0866559"><ele>0.0</ele><time>2026-04-30T20:07:58.076Z</time></trkpt><trkpt lat="42.7261685" lon="6.0867519"><ele>0.0</ele><time>2026-04-30T20:07:59.076Z</time></trkpt><trkpt lat="42.7262066" lon="6.0868495"><ele>0.0</ele><time>2026-04-30T20:08:00.076Z</time></trkpt><trkpt lat="42.7262487" lon="6.0869551"><ele>0.0</ele><time>2026-04-30T20:08:01.076Z</time></trkpt><trkpt lat="42.7262923" lon="6.0870548"><ele>0.0</ele><time>2026-04-30T20:08:02.076Z</time></trkpt><trkpt lat="42.7263381" lon="6.0871489"><ele>0.0</ele><time>2026-04-30T20:08:03.077Z</time></trkpt><trkpt lat="42.7263919" lon="6.0872362"><ele>0.0</ele><time>2026-04-30T20:08:04.076Z</time></trkpt><trkpt lat="42.7264485" lon="6.0873258"><ele>0.0</ele><time>2026-04-30T20:08:05.077Z</time></trkpt><trkpt lat="42.7265024" lon="6.0874169"><ele>0.0</ele><time>2026-04-30T20:08:06.076Z</time></trkpt><trkpt lat="42.7265534" lon="6.0875063"><ele>0.0</ele><time>2026-04-30T20:08:07.076Z</time></trkpt><trkpt lat="42.726602" lon="6.0875968"><ele>0.0</ele><time>2026-04-30T20:08:08.076Z</time></trkpt><trkpt lat="42.72665" lon="6.0876886"><ele>0.0</ele><time>2026-04-30T20:08:09.077Z</time></trkpt><trkpt lat="42.7267012" lon="6.0877747"><ele>0.0</ele><time>2026-04-30T20:08:10.077Z</time></trkpt><trkpt lat="42.7267431" lon="6.0878636"><ele>0.0</ele><time>2026-04-30T20:08:11.076Z</time></trkpt><trkpt lat="42.7267876" lon="6.0879538"><ele>0.0</ele><time>2026-04-30T20:08:12.076Z</time></trkpt><trkpt lat="42.7268263" lon="6.0880457"><ele>0.0</ele><time>2026-04-30T20:08:13.076Z</time></trkpt><trkpt lat="42.7268729" lon="6.088139"><ele>0.0</ele><time>2026-04-30T20:08:14.077Z</time></trkpt><trkpt lat="42.7269183" lon="6.0882327"><ele>0.0</ele><time>2026-04-30T20:08:15.077Z</time></trkpt><trkpt lat="42.7270225" lon="6.0884174"><ele>0.0</ele><time>2026-04-30T20:08:17.076Z</time></trkpt><trkpt lat="42.7270712" lon="6.0885109"><ele>0.0</ele><time>2026-04-30T20:08:18.077Z</time></trkpt><trkpt lat="42.7271197" lon="6.0886037"><ele>0.0</ele><time>2026-04-30T20:08:19.076Z</time></trkpt><trkpt lat="42.7271721" lon="6.0886984"><ele>0.0</ele><time>2026-04-30T20:08:20.077Z</time></trkpt><trkpt lat="42.7272231" lon="6.0887918"><ele>0.0</ele><time>2026-04-30T20:08:21.076Z</time></trkpt><trkpt lat="42.7272699" lon="6.0888808"><ele>0.0</ele><time>2026-04-30T20:08:22.076Z</time></trkpt><trkpt lat="42.7273155" lon="6.0889745"><ele>0.0</ele><time>2026-04-30T20:08:23.077Z</time></trkpt><trkpt lat="42.7273601" lon="6.0890656"><ele>0.0</ele><time>2026-04-30T20:08:24.077Z</time></trkpt><trkpt lat="42.7274029" lon="6.0891579"><ele>0.0</ele><time>2026-04-30T20:08:25.076Z</time></trkpt><trkpt lat="42.7275059" lon="6.0893403"><ele>0.0</ele><time>2026-04-30T20:08:27.076Z</time></trkpt><trkpt lat="42.7275494" lon="6.0894343"><ele>0.0</ele><time>2026-04-30T20:08:28.076Z</time></trkpt><trkpt lat="42.7275937" lon="6.089531"><ele>0.0</ele><time>2026-04-30T20:08:29.077Z</time></trkpt><trkpt lat="42.7276471" lon="6.0896224"><ele>0.0</ele><time>2026-04-30T20:08:30.077Z</time></trkpt><trkpt lat="42.7277008" lon="6.0897167"><ele>0.0</ele><time>2026-04-30T20:08:31.077Z</time></trkpt><trkpt lat="42.7277501" lon="6.089819"><ele>0.0</ele><time>2026-04-30T20:08:32.076Z</time></trkpt><trkpt lat="42.7278013" lon="6.0899155"><ele>0.0</ele><time>2026-04-30T20:08:33.076Z</time></trkpt><trkpt lat="42.7278471" lon="6.0900151"><ele>0.0</ele><time>2026-04-30T20:08:34.077Z</time></trkpt><trkpt lat="42.727892" lon="6.0901108"><ele>0.0</ele><time>2026-04-30T20:08:35.076Z</time></trkpt><trkpt lat="42.7279385" lon="6.0902069"><ele>0.0</ele><time>2026-04-30T20:08:36.077Z</time></trkpt><trkpt lat="42.7280267" lon="6.0904004"><ele>0.0</ele><time>2026-04-30T20:08:38.077Z</time></trkpt><trkpt lat="42.7280678" lon="6.0904965"><ele>0.0</ele><time>2026-04-30T20:08:39.077Z</time></trkpt><trkpt lat="42.7281091" lon="6.0905889"><ele>0.0</ele><time>2026-04-30T20:08:40.077Z</time></trkpt><trkpt lat="42.7281578" lon="6.0906836"><ele>0.0</ele><time>2026-04-30T20:08:41.077Z</time></trkpt><trkpt lat="42.7282048" lon="6.0907804"><ele>0.0</ele><time>2026-04-30T20:08:42.077Z</time></trkpt><trkpt lat="42.7282488" lon="6.0908798"><ele>0.0</ele><time>2026-04-30T20:08:43.077Z</time></trkpt><trkpt lat="42.7282922" lon="6.090971"><ele>0.0</ele><time>2026-04-30T20:08:44.077Z</time></trkpt><trkpt lat="42.7283427" lon="6.0910642"><ele>0.0</ele><time>2026-04-30T20:08:45.076Z</time></trkpt><trkpt lat="42.728389" lon="6.0911565"><ele>0.0</ele><time>2026-04-30T20:08:46.077Z</time></trkpt><trkpt lat="42.7284369" lon="6.0912469"><ele>0.0</ele><time>2026-04-30T20:08:47.076Z</time></trkpt><trkpt lat="42.7284796" lon="6.0913338"><ele>0.0</ele><time>2026-04-30T20:08:48.076Z</time></trkpt><trkpt lat="42.7285187" lon="6.0914215"><ele>0.0</ele><time>2026-04-30T20:08:49.076Z</time></trkpt><trkpt lat="42.7285589" lon="6.091511"><ele>0.0</ele><time>2026-04-30T20:08:50.077Z</time></trkpt><trkpt lat="42.728587" lon="6.0916081"><ele>0.0</ele><time>2026-04-30T20:08:51.076Z</time></trkpt><trkpt lat="42.7286249" lon="6.0917025"><ele>0.0</ele><time>2026-04-30T20:08:52.077Z</time></trkpt><trkpt lat="42.7286774" lon="6.0917902"><ele>0.0</ele><time>2026-04-30T20:08:53.077Z</time></trkpt><trkpt lat="42.7287408" lon="6.0918786"><ele>0.0</ele><time>2026-04-30T20:08:54.077Z</time></trkpt><trkpt lat="42.7287988" lon="6.0919711"><ele>0.0</ele><time>2026-04-30T20:08:55.076Z</time></trkpt><trkpt lat="42.728854" lon="6.0920602"><ele>0.0</ele><time>2026-04-30T20:08:56.077Z</time></trkpt><trkpt lat="42.7289021" lon="6.0921501"><ele>0.0</ele><time>2026-04-30T20:08:57.077Z</time></trkpt><trkpt lat="42.7289451" lon="6.0922441"><ele>0.0</ele><time>2026-04-30T20:08:58.076Z</time></trkpt><trkpt lat="42.7290324" lon="6.0924286"><ele>0.0</ele><time>2026-04-30T20:09:00.077Z</time></trkpt><trkpt lat="42.7290844" lon="6.092518"><ele>0.0</ele><time>2026-04-30T20:09:01.076Z</time></trkpt><trkpt lat="42.7291393" lon="6.0926111"><ele>0.0</ele><time>2026-04-30T20:09:02.077Z</time></trkpt><trkpt lat="42.7291916" lon="6.0927078"><ele>0.0</ele><time>2026-04-30T20:09:03.076Z</time></trkpt><trkpt lat="42.7292371" lon="6.0927987"><ele>0.0</ele><time>2026-04-30T20:09:04.076Z</time></trkpt><trkpt lat="42.7292829" lon="6.0928903"><ele>0.0</ele><time>2026-04-30T20:09:05.076Z</time></trkpt><trkpt lat="42.7293313" lon="6.0929847"><ele>0.0</ele><time>2026-04-30T20:09:06.076Z</time></trkpt><trkpt lat="42.7293804" lon="6.0930754"><ele>0.0</ele><time>2026-04-30T20:09:07.076Z</time></trkpt><trkpt lat="42.7294315" lon="6.0931708"><ele>0.0</ele><time>2026-04-30T20:09:08.076Z</time></trkpt><trkpt lat="42.7294884" lon="6.0932658"><ele>0.0</ele><time>2026-04-30T20:09:09.077Z</time></trkpt><trkpt lat="42.7295466" lon="6.0933643"><ele>0.0</ele><time>2026-04-30T20:09:10.076Z</time></trkpt><trkpt lat="42.729602" lon="6.093457"><ele>0.0</ele><time>2026-04-30T20:09:11.076Z</time></trkpt><trkpt lat="42.7296591" lon="6.093544"><ele>0.0</ele><time>2026-04-30T20:09:12.077Z</time></trkpt><trkpt lat="42.7297129" lon="6.0936338"><ele>0.0</ele><time>2026-04-30T20:09:13.077Z</time></trkpt><trkpt lat="42.7297591" lon="6.0937222"><ele>0.0</ele><time>2026-04-30T20:09:14.076Z</time></trkpt><trkpt lat="42.7298039" lon="6.093809"><ele>0.0</ele><time>2026-04-30T20:09:15.076Z</time></trkpt><trkpt lat="42.7298532" lon="6.0938985"><ele>0.0</ele><time>2026-04-30T20:09:16.077Z</time></trkpt><trkpt lat="42.7299004" lon="6.0939886"><ele>0.0</ele><time>2026-04-30T20:09:17.076Z</time></trkpt><trkpt lat="42.7299481" lon="6.0940799"><ele>0.0</ele><time>2026-04-30T20:09:18.076Z</time></trkpt><trkpt lat="42.7299973" lon="6.0941745"><ele>0.0</ele><time>2026-04-30T20:09:19.076Z</time></trkpt><trkpt lat="42.7300922" lon="6.0943598"><ele>0.0</ele><time>2026-04-30T20:09:21.077Z</time></trkpt><trkpt lat="42.7301404" lon="6.0944544"><ele>0.0</ele><time>2026-04-30T20:09:22.076Z</time></trkpt><trkpt lat="42.730187" lon="6.0945506"><ele>0.0</ele><time>2026-04-30T20:09:23.076Z</time></trkpt><trkpt lat="42.7302353" lon="6.0946444"><ele>0.0</ele><time>2026-04-30T20:09:24.076Z</time></trkpt><trkpt lat="42.7302816" lon="6.0947296"><ele>0.0</ele><time>2026-04-30T20:09:25.076Z</time></trkpt><trkpt lat="42.7303326" lon="6.0948182"><ele>0.0</ele><time>2026-04-30T20:09:26.076Z</time></trkpt><trkpt lat="42.7303817" lon="6.0949133"><ele>0.0</ele><time>2026-04-30T20:09:27.076Z</time></trkpt><trkpt lat="42.7304306" lon="6.0950086"><ele>0.0</ele><time>2026-04-30T20:09:28.077Z</time></trkpt><trkpt lat="42.7304721" lon="6.0951093"><ele>0.0</ele><time>2026-04-30T20:09:29.077Z</time></trkpt><trkpt lat="42.7305621" lon="6.0952987"><ele>0.0</ele><time>2026-04-30T20:09:31.076Z</time></trkpt><trkpt lat="42.7306123" lon="6.0953902"><ele>0.0</ele><time>2026-04-30T20:09:32.076Z</time></trkpt><trkpt lat="42.730655" lon="6.0954848"><ele>0.0</ele><time>2026-04-30T20:09:33.077Z</time></trkpt><trkpt lat="42.7307037" lon="6.0955772"><ele>0.0</ele><time>2026-04-30T20:09:34.076Z</time></trkpt><trkpt lat="42.7307517" lon="6.0956722"><ele>0.0</ele><time>2026-04-30T20:09:35.077Z</time></trkpt><trkpt lat="42.7308013" lon="6.0957659"><ele>0.0</ele><time>2026-04-30T20:09:36.076Z</time></trkpt><trkpt lat="42.7308472" lon="6.095861"><ele>0.0</ele><time>2026-04-30T20:09:37.077Z</time></trkpt><trkpt lat="42.7308911" lon="6.0959531"><ele>0.0</ele><time>2026-04-30T20:09:38.076Z</time></trkpt><trkpt lat="42.7309324" lon="6.0960495"><ele>0.0</ele><time>2026-04-30T20:09:39.076Z</time></trkpt><trkpt lat="42.7309796" lon="6.0961491"><ele>0.0</ele><time>2026-04-30T20:09:40.076Z</time></trkpt><trkpt lat="42.7310738" lon="6.0963364"><ele>0.0</ele><time>2026-04-30T20:09:42.076Z</time></trkpt><trkpt lat="42.731128" lon="6.096432"><ele>0.0</ele><time>2026-04-30T20:09:43.077Z</time></trkpt><trkpt lat="42.7311876" lon="6.0965257"><ele>0.0</ele><time>2026-04-30T20:09:44.077Z</time></trkpt><trkpt lat="42.7312378" lon="6.096616"><ele>0.0</ele><time>2026-04-30T20:09:45.077Z</time></trkpt><trkpt lat="42.7312818" lon="6.0967075"><ele>0.0</ele><time>2026-04-30T20:09:46.077Z</time></trkpt><trkpt lat="42.7313325" lon="6.0967931"><ele>0.0</ele><time>2026-04-30T20:09:47.076Z</time></trkpt><trkpt lat="42.7313766" lon="6.0968832"><ele>0.0</ele><time>2026-04-30T20:09:48.076Z</time></trkpt><trkpt lat="42.7314194" lon="6.0969729"><ele>0.0</ele><time>2026-04-30T20:09:49.077Z</time></trkpt><trkpt lat="42.7314617" lon="6.0970652"><ele>0.0</ele><time>2026-04-30T20:09:50.076Z</time></trkpt><trkpt lat="42.7315032" lon="6.0971559"><ele>0.0</ele><time>2026-04-30T20:09:51.076Z</time></trkpt><trkpt lat="42.7315523" lon="6.0972485"><ele>0.0</ele><time>2026-04-30T20:09:52.077Z</time></trkpt><trkpt lat="42.7316053" lon="6.0973387"><ele>0.0</ele><time>2026-04-30T20:09:53.076Z</time></trkpt><trkpt lat="42.7316413" lon="6.097436"><ele>0.0</ele><time>2026-04-30T20:09:54.076Z</time></trkpt><trkpt lat="42.7316837" lon="6.0975316"><ele>0.0</ele><time>2026-04-30T20:09:55.076Z</time></trkpt><trkpt lat="42.7317183" lon="6.0976337"><ele>0.0</ele><time>2026-04-30T20:09:56.077Z</time></trkpt><trkpt lat="42.7317545" lon="6.0977374"><ele>0.0</ele><time>2026-04-30T20:09:57.077Z</time></trkpt><trkpt lat="42.731798" lon="6.0978349"><ele>0.0</ele><time>2026-04-30T20:09:58.077Z</time></trkpt><trkpt lat="42.7318469" lon="6.0979316"><ele>0.0</ele><time>2026-04-30T20:09:59.076Z</time></trkpt><trkpt lat="42.7318955" lon="6.0980286"><ele>0.0</ele><time>2026-04-30T20:10:00.076Z</time></trkpt><trkpt lat="42.7319326" lon="6.0981296"><ele>0.0</ele><time>2026-04-30T20:10:01.076Z</time></trkpt><trkpt lat="42.7319802" lon="6.0982229"><ele>0.0</ele><time>2026-04-30T20:10:02.076Z</time></trkpt><trkpt lat="42.7320813" lon="6.0983994"><ele>0.0</ele><time>2026-04-30T20:10:04.076Z</time></trkpt><trkpt lat="42.7321398" lon="6.0984861"><ele>0.0</ele><time>2026-04-30T20:10:05.076Z</time></trkpt><trkpt lat="42.7322023" lon="6.0985745"><ele>0.0</ele><time>2026-04-30T20:10:06.077Z</time></trkpt><trkpt lat="42.7322586" lon="6.098667"><ele>0.0</ele><time>2026-04-30T20:10:07.077Z</time></trkpt><trkpt lat="42.7323111" lon="6.0987548"><ele>0.0</ele><time>2026-04-30T20:10:08.077Z</time></trkpt><trkpt lat="42.7323581" lon="6.0988444"><ele>0.0</ele><time>2026-04-30T20:10:09.077Z</time></trkpt><trkpt lat="42.7323987" lon="6.0989374"><ele>0.0</ele><time>2026-04-30T20:10:10.076Z</time></trkpt><trkpt lat="42.7324443" lon="6.0990322"><ele>0.0</ele><time>2026-04-30T20:10:11.077Z</time></trkpt><trkpt lat="42.7324908" lon="6.0991243"><ele>0.0</ele><time>2026-04-30T20:10:12.077Z</time></trkpt><trkpt lat="42.7325369" lon="6.09921"><ele>0.0</ele><time>2026-04-30T20:10:13.077Z</time></trkpt><trkpt lat="42.7325849" lon="6.0993019"><ele>0.0</ele><time>2026-04-30T20:10:14.076Z</time></trkpt><trkpt lat="42.732632" lon="6.0993894"><ele>0.0</ele><time>2026-04-30T20:10:15.077Z</time></trkpt><trkpt lat="42.7326843" lon="6.0994799"><ele>0.0</ele><time>2026-04-30T20:10:16.077Z</time></trkpt><trkpt lat="42.7327378" lon="6.099566"><ele>0.0</ele><time>2026-04-30T20:10:17.076Z</time></trkpt><trkpt lat="42.732794" lon="6.0996597"><ele>0.0</ele><time>2026-04-30T20:10:18.076Z</time></trkpt><trkpt lat="42.7328461" lon="6.0997506"><ele>0.0</ele><time>2026-04-30T20:10:19.076Z</time></trkpt><trkpt lat="42.7328902" lon="6.0998473"><ele>0.0</ele><time>2026-04-30T20:10:20.076Z</time></trkpt><trkpt lat="42.732938" lon="6.0999428"><ele>0.0</ele><time>2026-04-30T20:10:21.076Z</time></trkpt><trkpt lat="42.732988" lon="6.1000362"><ele>0.0</ele><time>2026-04-30T20:10:22.076Z</time></trkpt><trkpt lat="42.7330341" lon="6.1001306"><ele>0.0</ele><time>2026-04-30T20:10:23.077Z</time></trkpt><trkpt lat="42.7331376" lon="6.1003117"><ele>0.0</ele><time>2026-04-30T20:10:25.076Z</time></trkpt><trkpt lat="42.73319" lon="6.1004005"><ele>0.0</ele><time>2026-04-30T20:10:26.077Z</time></trkpt><trkpt lat="42.7332357" lon="6.1004962"><ele>0.0</ele><time>2026-04-30T20:10:27.077Z</time></trkpt><trkpt lat="42.7332808" lon="6.1005827"><ele>0.0</ele><time>2026-04-30T20:10:28.076Z</time></trkpt><trkpt lat="42.7333183" lon="6.1006689"><ele>0.0</ele><time>2026-04-30T20:10:29.077Z</time></trkpt><trkpt lat="42.7333568" lon="6.1007615"><ele>0.0</ele><time>2026-04-30T20:10:30.076Z</time></trkpt><trkpt lat="42.7333988" lon="6.1008607"><ele>0.0</ele><time>2026-04-30T20:10:31.076Z</time></trkpt><trkpt lat="42.733445" lon="6.1009624"><ele>0.0</ele><time>2026-04-30T20:10:32.077Z</time></trkpt><trkpt lat="42.7334959" lon="6.1010614"><ele>0.0</ele><time>2026-04-30T20:10:33.077Z</time></trkpt><trkpt lat="42.7335823" lon="6.101254"><ele>0.0</ele><time>2026-04-30T20:10:35.076Z</time></trkpt><trkpt lat="42.7336326" lon="6.1013497"><ele>0.0</ele><time>2026-04-30T20:10:36.076Z</time></trkpt><trkpt lat="42.73368" lon="6.1014422"><ele>0.0</ele><time>2026-04-30T20:10:37.077Z</time></trkpt><trkpt lat="42.7337281" lon="6.1015291"><ele>0.0</ele><time>2026-04-30T20:10:38.077Z</time></trkpt><trkpt lat="42.7337792" lon="6.1016233"><ele>0.0</ele><time>2026-04-30T20:10:39.077Z</time></trkpt><trkpt lat="42.7338284" lon="6.1017138"><ele>0.0</ele><time>2026-04-30T20:10:40.076Z</time></trkpt><trkpt lat="42.733871" lon="6.1018054"><ele>0.0</ele><time>2026-04-30T20:10:41.077Z</time></trkpt><trkpt lat="42.7339155" lon="6.1018939"><ele>0.0</ele><time>2026-04-30T20:10:42.077Z</time></trkpt><trkpt lat="42.7339649" lon="6.101985"><ele>0.0</ele><time>2026-04-30T20:10:43.077Z</time></trkpt><trkpt lat="42.734074" lon="6.1021679"><ele>0.0</ele><time>2026-04-30T20:10:45.077Z</time></trkpt><trkpt lat="42.7341294" lon="6.1022598"><ele>0.0</ele><time>2026-04-30T20:10:46.076Z</time></trkpt><trkpt lat="42.7341772" lon="6.1023517"><ele>0.0</ele><time>2026-04-30T20:10:47.077Z</time></trkpt><trkpt lat="42.7342218" lon="6.1024451"><ele>0.0</ele><time>2026-04-30T20:10:48.077Z</time></trkpt><trkpt lat="42.7342711" lon="6.102534"><ele>0.0</ele><time>2026-04-30T20:10:49.076Z</time></trkpt><trkpt lat="42.7343255" lon="6.1026297"><ele>0.0</ele><time>2026-04-30T20:10:50.076Z</time></trkpt><trkpt lat="42.7343861" lon="6.1027198"><ele>0.0</ele><time>2026-04-30T20:10:51.076Z</time></trkpt><trkpt lat="42.7344408" lon="6.1028111"><ele>0.0</ele><time>2026-04-30T20:10:52.076Z</time></trkpt><trkpt lat="42.7344935" lon="6.1029026"><ele>0.0</ele><time>2026-04-30T20:10:53.076Z</time></trkpt><trkpt lat="42.7345401" lon="6.1029997"><ele>0.0</ele><time>2026-04-30T20:10:54.077Z</time></trkpt><trkpt lat="42.7345882" lon="6.1030914"><ele>0.0</ele><time>2026-04-30T20:10:55.076Z</time></trkpt><trkpt lat="42.7346352" lon="6.1031814"><ele>0.0</ele><time>2026-04-30T20:10:56.076Z</time></trkpt><trkpt lat="42.7346801" lon="6.1032682"><ele>0.0</ele><time>2026-04-30T20:10:57.077Z</time></trkpt><trkpt lat="42.734722" lon="6.1033589"><ele>0.0</ele><time>2026-04-30T20:10:58.076Z</time></trkpt><trkpt lat="42.7347654" lon="6.1034534"><ele>0.0</ele><time>2026-04-30T20:10:59.076Z</time></trkpt><trkpt lat="42.7348144" lon="6.1035442"><ele>0.0</ele><time>2026-04-30T20:11:00.076Z</time></trkpt><trkpt lat="42.7348668" lon="6.1036343"><ele>0.0</ele><time>2026-04-30T20:11:01.076Z</time></trkpt><trkpt lat="42.7349273" lon="6.10372"><ele>0.0</ele><time>2026-04-30T20:11:02.076Z</time></trkpt><trkpt lat="42.7349865" lon="6.1038131"><ele>0.0</ele><time>2026-04-30T20:11:03.076Z</time></trkpt><trkpt lat="42.7350394" lon="6.1039075"><ele>0.0</ele><time>2026-04-30T20:11:04.076Z</time></trkpt><trkpt lat="42.7350883" lon="6.1039999"><ele>0.0</ele><time>2026-04-30T20:11:05.077Z</time></trkpt><trkpt lat="42.7352222" lon="6.1042766"><ele>0.0</ele><time>2026-04-30T20:11:08.076Z</time></trkpt><trkpt lat="42.7352743" lon="6.1043638"><ele>0.0</ele><time>2026-04-30T20:11:09.076Z</time></trkpt><trkpt lat="42.7353347" lon="6.1044524"><ele>0.0</ele><time>2026-04-30T20:11:10.076Z</time></trkpt><trkpt lat="42.7353899" lon="6.1045421"><ele>0.0</ele><time>2026-04-30T20:11:11.076Z</time></trkpt><trkpt lat="42.7354464" lon="6.1046298"><ele>0.0</ele><time>2026-04-30T20:11:12.077Z</time></trkpt><trkpt lat="42.7354961" lon="6.1047196"><ele>0.0</ele><time>2026-04-30T20:11:13.076Z</time></trkpt><trkpt lat="42.7355391" lon="6.104818"><ele>0.0</ele><time>2026-04-30T20:11:14.077Z</time></trkpt><trkpt lat="42.7355892" lon="6.104911"><ele>0.0</ele><time>2026-04-30T20:11:15.077Z</time></trkpt><trkpt lat="42.7356381" lon="6.1050049"><ele>0.0</ele><time>2026-04-30T20:11:16.076Z</time></trkpt><trkpt lat="42.7356839" lon="6.1050996"><ele>0.0</ele><time>2026-04-30T20:11:17.077Z</time></trkpt><trkpt lat="42.7357345" lon="6.1051903"><ele>0.0</ele><time>2026-04-30T20:11:18.076Z</time></trkpt><trkpt lat="42.7357892" lon="6.1052802"><ele>0.0</ele><time>2026-04-30T20:11:19.077Z</time></trkpt><trkpt lat="42.7358397" lon="6.1053722"><ele>0.0</ele><time>2026-04-30T20:11:20.076Z</time></trkpt><trkpt lat="42.7358908" lon="6.1054575"><ele>0.0</ele><time>2026-04-30T20:11:21.077Z</time></trkpt><trkpt lat="42.7359403" lon="6.1055463"><ele>0.0</ele><time>2026-04-30T20:11:22.076Z</time></trkpt><trkpt lat="42.7359912" lon="6.1056337"><ele>0.0</ele><time>2026-04-30T20:11:23.076Z</time></trkpt><trkpt lat="42.7360388" lon="6.105726"><ele>0.0</ele><time>2026-04-30T20:11:24.077Z</time></trkpt><trkpt lat="42.7360886" lon="6.1058184"><ele>0.0</ele><time>2026-04-30T20:11:25.077Z</time></trkpt><trkpt lat="42.7361414" lon="6.1059102"><ele>0.0</ele><time>2026-04-30T20:11:26.075Z</time></trkpt><trkpt lat="42.7361949" lon="6.1059984"><ele>0.0</ele><time>2026-04-30T20:11:27.076Z</time></trkpt><trkpt lat="42.7362983" lon="6.1061739"><ele>0.0</ele><time>2026-04-30T20:11:29.076Z</time></trkpt><trkpt lat="42.7363558" lon="6.1062604"><ele>0.0</ele><time>2026-04-30T20:11:30.076Z</time></trkpt><trkpt lat="42.7364071" lon="6.1063485"><ele>0.0</ele><time>2026-04-30T20:11:31.075Z</time></trkpt><trkpt lat="42.7364517" lon="6.1064403"><ele>0.0</ele><time>2026-04-30T20:11:32.075Z</time></trkpt><trkpt lat="42.7365034" lon="6.1065311"><ele>0.0</ele><time>2026-04-30T20:11:33.075Z</time></trkpt><trkpt lat="42.7365522" lon="6.1066287"><ele>0.0</ele><time>2026-04-30T20:11:34.075Z</time></trkpt><trkpt lat="42.7366044" lon="6.1067173"><ele>0.0</ele><time>2026-04-30T20:11:35.076Z</time></trkpt><trkpt lat="42.7366551" lon="6.1068025"><ele>0.0</ele><time>2026-04-30T20:11:36.075Z</time></trkpt><trkpt lat="42.7367106" lon="6.1068931"><ele>0.0</ele><time>2026-04-30T20:11:37.076Z</time></trkpt><trkpt lat="42.7368224" lon="6.1070744"><ele>0.0</ele><time>2026-04-30T20:11:39.076Z</time></trkpt><trkpt lat="42.736875" lon="6.1071604"><ele>0.0</ele><time>2026-04-30T20:11:40.075Z</time></trkpt><trkpt lat="42.7369295" lon="6.1072481"><ele>0.0</ele><time>2026-04-30T20:11:41.075Z</time></trkpt><trkpt lat="42.7369857" lon="6.1073357"><ele>0.0</ele><time>2026-04-30T20:11:42.075Z</time></trkpt><trkpt lat="42.7370426" lon="6.1074283"><ele>0.0</ele><time>2026-04-30T20:11:43.075Z</time></trkpt><trkpt lat="42.7370991" lon="6.1075231"><ele>0.0</ele><time>2026-04-30T20:11:44.076Z</time></trkpt><trkpt lat="42.7371515" lon="6.1076235"><ele>0.0</ele><time>2026-04-30T20:11:45.076Z</time></trkpt><trkpt lat="42.7372072" lon="6.1077252"><ele>0.0</ele><time>2026-04-30T20:11:46.075Z</time></trkpt><trkpt lat="42.7372582" lon="6.107818"><ele>0.0</ele><time>2026-04-30T20:11:47.075Z</time></trkpt><trkpt lat="42.7373085" lon="6.1079069"><ele>0.0</ele><time>2026-04-30T20:11:48.075Z</time></trkpt><trkpt lat="42.7374069" lon="6.1080855"><ele>0.0</ele><time>2026-04-30T20:11:50.076Z</time></trkpt><trkpt lat="42.7374541" lon="6.1081752"><ele>0.0</ele><time>2026-04-30T20:11:51.075Z</time></trkpt><trkpt lat="42.7375006" lon="6.1082635"><ele>0.0</ele><time>2026-04-30T20:11:52.076Z</time></trkpt><trkpt lat="42.7375517" lon="6.1083504"><ele>0.0</ele><time>2026-04-30T20:11:53.076Z</time></trkpt><trkpt lat="42.7375977" lon="6.1084429"><ele>0.0</ele><time>2026-04-30T20:11:54.075Z</time></trkpt><trkpt lat="42.7376469" lon="6.1085277"><ele>0.0</ele><time>2026-04-30T20:11:55.075Z</time></trkpt><trkpt lat="42.7376984" lon="6.1086098"><ele>0.0</ele><time>2026-04-30T20:11:56.076Z</time></trkpt><trkpt lat="42.7377456" lon="6.1086974"><ele>0.0</ele><time>2026-04-30T20:11:57.076Z</time></trkpt><trkpt lat="42.7377982" lon="6.1087837"><ele>0.0</ele><time>2026-04-30T20:11:58.076Z</time></trkpt><trkpt lat="42.7378485" lon="6.1088732"><ele>0.0</ele><time>2026-04-30T20:11:59.075Z</time></trkpt><trkpt lat="42.737897" lon="6.108962"><ele>0.0</ele><time>2026-04-30T20:12:00.076Z</time></trkpt><trkpt lat="42.737952" lon="6.1090484"><ele>0.0</ele><time>2026-04-30T20:12:01.075Z</time></trkpt><trkpt lat="42.738012" lon="6.1091349"><ele>0.0</ele><time>2026-04-30T20:12:02.076Z</time></trkpt><trkpt lat="42.7380776" lon="6.1092176"><ele>0.0</ele><time>2026-04-30T20:12:03.076Z</time></trkpt><trkpt lat="42.7381344" lon="6.1093021"><ele>0.0</ele><time>2026-04-30T20:12:04.076Z</time></trkpt><trkpt lat="42.7381825" lon="6.1093896"><ele>0.0</ele><time>2026-04-30T20:12:05.075Z</time></trkpt><trkpt lat="42.7382337" lon="6.1094734"><ele>0.0</ele><time>2026-04-30T20:12:06.076Z</time></trkpt><trkpt lat="42.7382898" lon="6.1095584"><ele>0.0</ele><time>2026-04-30T20:12:07.075Z</time></trkpt><trkpt lat="42.7383377" lon="6.1096469"><ele>0.0</ele><time>2026-04-30T20:12:08.075Z</time></trkpt><trkpt lat="42.7383842" lon="6.109738"><ele>0.0</ele><time>2026-04-30T20:12:09.075Z</time></trkpt><trkpt lat="42.7385368" lon="6.110012"><ele>0.0</ele><time>2026-04-30T20:12:12.076Z</time></trkpt><trkpt lat="42.738587" lon="6.1100998"><ele>0.0</ele><time>2026-04-30T20:12:13.076Z</time></trkpt><trkpt lat="42.7386349" lon="6.1101954"><ele>0.0</ele><time>2026-04-30T20:12:14.075Z</time></trkpt><trkpt lat="42.738682" lon="6.1102891"><ele>0.0</ele><time>2026-04-30T20:12:15.075Z</time></trkpt><trkpt lat="42.7387414" lon="6.1103773"><ele>0.0</ele><time>2026-04-30T20:12:16.075Z</time></trkpt><trkpt lat="42.7387972" lon="6.1104695"><ele>0.0</ele><time>2026-04-30T20:12:17.075Z</time></trkpt><trkpt lat="42.7388567" lon="6.1105602"><ele>0.0</ele><time>2026-04-30T20:12:18.076Z</time></trkpt><trkpt lat="42.73891" lon="6.1106496"><ele>0.0</ele><time>2026-04-30T20:12:19.076Z</time></trkpt><trkpt lat="42.7389589" lon="6.1107386"><ele>0.0</ele><time>2026-04-30T20:12:20.076Z</time></trkpt><trkpt lat="42.7390059" lon="6.1108322"><ele>0.0</ele><time>2026-04-30T20:12:21.076Z</time></trkpt><trkpt lat="42.7390539" lon="6.1109249"><ele>0.0</ele><time>2026-04-30T20:12:22.075Z</time></trkpt><trkpt lat="42.7391123" lon="6.1110032"><ele>0.0</ele><time>2026-04-30T20:12:23.076Z</time></trkpt><trkpt lat="42.739168" lon="6.1110845"><ele>0.0</ele><time>2026-04-30T20:12:24.076Z</time></trkpt><trkpt lat="42.7392229" lon="6.1111729"><ele>0.0</ele><time>2026-04-30T20:12:25.075Z</time></trkpt><trkpt lat="42.7392839" lon="6.1112589"><ele>0.0</ele><time>2026-04-30T20:12:26.075Z</time></trkpt><trkpt lat="42.7393381" lon="6.1113479"><ele>0.0</ele><time>2026-04-30T20:12:27.075Z</time></trkpt><trkpt lat="42.7393913" lon="6.1114352"><ele>0.0</ele><time>2026-04-30T20:12:28.075Z</time></trkpt><trkpt lat="42.7394432" lon="6.1115231"><ele>0.0</ele><time>2026-04-30T20:12:29.075Z</time></trkpt><trkpt lat="42.7394919" lon="6.1116161"><ele>0.0</ele><time>2026-04-30T20:12:30.075Z</time></trkpt><trkpt lat="42.7395447" lon="6.1117004"><ele>0.0</ele><time>2026-04-30T20:12:31.076Z</time></trkpt><trkpt lat="42.7396587" lon="6.1118804"><ele>0.0</ele><time>2026-04-30T20:12:33.075Z</time></trkpt><trkpt lat="42.7397115" lon="6.11197"><ele>0.0</ele><time>2026-04-30T20:12:34.075Z</time></trkpt><trkpt lat="42.7397647" lon="6.1120568"><ele>0.0</ele><time>2026-04-30T20:12:35.075Z</time></trkpt><trkpt lat="42.7398124" lon="6.1121462"><ele>0.0</ele><time>2026-04-30T20:12:36.076Z</time></trkpt><trkpt lat="42.7398603" lon="6.1122322"><ele>0.0</ele><time>2026-04-30T20:12:37.076Z</time></trkpt><trkpt lat="42.7399132" lon="6.1123257"><ele>0.0</ele><time>2026-04-30T20:12:38.075Z</time></trkpt><trkpt lat="42.7399637" lon="6.1124219"><ele>0.0</ele><time>2026-04-30T20:12:39.076Z</time></trkpt><trkpt lat="42.7400136" lon="6.1125141"><ele>0.0</ele><time>2026-04-30T20:12:40.075Z</time></trkpt><trkpt lat="42.7400635" lon="6.1126046"><ele>0.0</ele><time>2026-04-30T20:12:41.075Z</time></trkpt><trkpt lat="42.7401489" lon="6.1127853"><ele>0.0</ele><time>2026-04-30T20:12:43.075Z</time></trkpt><trkpt lat="42.7401938" lon="6.1128797"><ele>0.0</ele><time>2026-04-30T20:12:44.075Z</time></trkpt><trkpt lat="42.740243" lon="6.1129745"><ele>0.0</ele><time>2026-04-30T20:12:45.075Z</time></trkpt><trkpt lat="42.7402905" lon="6.1130679"><ele>0.0</ele><time>2026-04-30T20:12:46.075Z</time></trkpt><trkpt lat="42.7403381" lon="6.1131588"><ele>0.0</ele><time>2026-04-30T20:12:47.075Z</time></trkpt><trkpt lat="42.7403965" lon="6.1132449"><ele>0.0</ele><time>2026-04-30T20:12:48.075Z</time></trkpt><trkpt lat="42.7404515" lon="6.1133345"><ele>0.0</ele><time>2026-04-30T20:12:49.075Z</time></trkpt><trkpt lat="42.7405093" lon="6.1134185"><ele>0.0</ele><time>2026-04-30T20:12:50.075Z</time></trkpt><trkpt lat="42.7405578" lon="6.1135106"><ele>0.0</ele><time>2026-04-30T20:12:51.076Z</time></trkpt><trkpt lat="42.7406047" lon="6.113597"><ele>0.0</ele><time>2026-04-30T20:12:52.075Z</time></trkpt><trkpt lat="42.7406951" lon="6.1137703"><ele>0.0</ele><time>2026-04-30T20:12:54.075Z</time></trkpt><trkpt lat="42.7407355" lon="6.1138622"><ele>0.0</ele><time>2026-04-30T20:12:55.075Z</time></trkpt><trkpt lat="42.7407758" lon="6.1139641"><ele>0.0</ele><time>2026-04-30T20:12:56.076Z</time></trkpt><trkpt lat="42.740827" lon="6.1140571"><ele>0.0</ele><time>2026-04-30T20:12:57.076Z</time></trkpt><trkpt lat="42.7408863" lon="6.1141505"><ele>0.0</ele><time>2026-04-30T20:12:58.075Z</time></trkpt><trkpt lat="42.7409479" lon="6.1142434"><ele>0.0</ele><time>2026-04-30T20:12:59.075Z</time></trkpt><trkpt lat="42.7410079" lon="6.1143325"><ele>0.0</ele><time>2026-04-30T20:13:00.075Z</time></trkpt><trkpt lat="42.7410622" lon="6.114424"><ele>0.0</ele><time>2026-04-30T20:13:01.076Z</time></trkpt><trkpt lat="42.7411136" lon="6.114517"><ele>0.0</ele><time>2026-04-30T20:13:02.076Z</time></trkpt><trkpt lat="42.7411639" lon="6.1146077"><ele>0.0</ele><time>2026-04-30T20:13:03.075Z</time></trkpt><trkpt lat="42.7412123" lon="6.1147006"><ele>0.0</ele><time>2026-04-30T20:13:04.075Z</time></trkpt><trkpt lat="42.7412621" lon="6.1147972"><ele>0.0</ele><time>2026-04-30T20:13:05.075Z</time></trkpt><trkpt lat="42.7413079" lon="6.1148893"><ele>0.0</ele><time>2026-04-30T20:13:06.075Z</time></trkpt><trkpt lat="42.7413647" lon="6.1149803"><ele>0.0</ele><time>2026-04-30T20:13:07.076Z</time></trkpt><trkpt lat="42.7414244" lon="6.1150698"><ele>0.0</ele><time>2026-04-30T20:13:08.075Z</time></trkpt><trkpt lat="42.74148" lon="6.1151585"><ele>0.0</ele><time>2026-04-30T20:13:09.076Z</time></trkpt><trkpt lat="42.7415292" lon="6.1152434"><ele>0.0</ele><time>2026-04-30T20:13:10.075Z</time></trkpt><trkpt lat="42.7415778" lon="6.1153314"><ele>0.0</ele><time>2026-04-30T20:13:11.076Z</time></trkpt><trkpt lat="42.7416319" lon="6.1154182"><ele>0.0</ele><time>2026-04-30T20:13:12.075Z</time></trkpt><trkpt lat="42.741786" lon="6.1156749"><ele>0.0</ele><time>2026-04-30T20:13:15.075Z</time></trkpt><trkpt lat="42.7418447" lon="6.1157569"><ele>0.0</ele><time>2026-04-30T20:13:16.076Z</time></trkpt><trkpt lat="42.7418992" lon="6.1158373"><ele>0.0</ele><time>2026-04-30T20:13:17.075Z</time></trkpt><trkpt lat="42.7419526" lon="6.1159199"><ele>0.0</ele><time>2026-04-30T20:13:18.075Z</time></trkpt><trkpt lat="42.742008" lon="6.1160091"><ele>0.0</ele><time>2026-04-30T20:13:19.075Z</time></trkpt><trkpt lat="42.7420589" lon="6.116098"><ele>0.0</ele><time>2026-04-30T20:13:20.075Z</time></trkpt><trkpt lat="42.7421175" lon="6.1161894"><ele>0.0</ele><time>2026-04-30T20:13:21.075Z</time></trkpt><trkpt lat="42.7421744" lon="6.1162743"><ele>0.0</ele><time>2026-04-30T20:13:22.076Z</time></trkpt><trkpt lat="42.7422183" lon="6.1163609"><ele>0.0</ele><time>2026-04-30T20:13:23.076Z</time></trkpt><trkpt lat="42.7422671" lon="6.1164471"><ele>0.0</ele><time>2026-04-30T20:13:24.075Z</time></trkpt><trkpt lat="42.7423171" lon="6.1165335"><ele>0.0</ele><time>2026-04-30T20:13:25.075Z</time></trkpt><trkpt lat="42.7423672" lon="6.1166176"><ele>0.0</ele><time>2026-04-30T20:13:26.075Z</time></trkpt><trkpt lat="42.7424185" lon="6.1167036"><ele>0.0</ele><time>2026-04-30T20:13:27.076Z</time></trkpt><trkpt lat="42.7424672" lon="6.1167904"><ele>0.0</ele><time>2026-04-30T20:13:28.076Z</time></trkpt><trkpt lat="42.7425157" lon="6.1168741"><ele>0.0</ele><time>2026-04-30T20:13:29.076Z</time></trkpt><trkpt lat="42.7425679" lon="6.116964"><ele>0.0</ele><time>2026-04-30T20:13:30.075Z</time></trkpt><trkpt lat="42.7426227" lon="6.1170519"><ele>0.0</ele><time>2026-04-30T20:13:31.075Z</time></trkpt><trkpt lat="42.7426766" lon="6.1171416"><ele>0.0</ele><time>2026-04-30T20:13:32.076Z</time></trkpt><trkpt lat="42.7427331" lon="6.1172241"><ele>0.0</ele><time>2026-04-30T20:13:33.076Z</time></trkpt><trkpt lat="42.7427914" lon="6.1173044"><ele>0.0</ele><time>2026-04-30T20:13:34.075Z</time></trkpt><trkpt lat="42.7428411" lon="6.1173955"><ele>0.0</ele><time>2026-04-30T20:13:35.075Z</time></trkpt><trkpt lat="42.7429419" lon="6.1175832"><ele>0.0</ele><time>2026-04-30T20:13:37.075Z</time></trkpt><trkpt lat="42.7429865" lon="6.1176773"><ele>0.0</ele><time>2026-04-30T20:13:38.075Z</time></trkpt><trkpt lat="42.7430411" lon="6.1177708"><ele>0.0</ele><time>2026-04-30T20:13:39.075Z</time></trkpt><trkpt lat="42.743092" lon="6.1178614"><ele>0.0</ele><time>2026-04-30T20:13:40.076Z</time></trkpt><trkpt lat="42.7431464" lon="6.1179505"><ele>0.0</ele><time>2026-04-30T20:13:41.076Z</time></trkpt><trkpt lat="42.7432086" lon="6.1180352"><ele>0.0</ele><time>2026-04-30T20:13:42.076Z</time></trkpt><trkpt lat="42.7432707" lon="6.1181229"><ele>0.0</ele><time>2026-04-30T20:13:43.075Z</time></trkpt><trkpt lat="42.7433226" lon="6.1182079"><ele>0.0</ele><time>2026-04-30T20:13:44.075Z</time></trkpt><trkpt lat="42.7433715" lon="6.118293"><ele>0.0</ele><time>2026-04-30T20:13:45.075Z</time></trkpt><trkpt lat="42.7434252" lon="6.1183783"><ele>0.0</ele><time>2026-04-30T20:13:46.075Z</time></trkpt><trkpt lat="42.7434714" lon="6.1184675"><ele>0.0</ele><time>2026-04-30T20:13:47.075Z</time></trkpt><trkpt lat="42.7435208" lon="6.1185531"><ele>0.0</ele><time>2026-04-30T20:13:48.075Z</time></trkpt><trkpt lat="42.7435688" lon="6.1186398"><ele>0.0</ele><time>2026-04-30T20:13:49.075Z</time></trkpt><trkpt lat="42.7436217" lon="6.1187251"><ele>0.0</ele><time>2026-04-30T20:13:50.076Z</time></trkpt><trkpt lat="42.7436753" lon="6.1188155"><ele>0.0</ele><time>2026-04-30T20:13:51.076Z</time></trkpt><trkpt lat="42.7437286" lon="6.1189087"><ele>0.0</ele><time>2026-04-30T20:13:52.075Z</time></trkpt><trkpt lat="42.7437903" lon="6.1190008"><ele>0.0</ele><time>2026-04-30T20:13:53.076Z</time></trkpt><trkpt lat="42.7438523" lon="6.1190938"><ele>0.0</ele><time>2026-04-30T20:13:54.075Z</time></trkpt><trkpt lat="42.7439059" lon="6.1191915"><ele>0.0</ele><time>2026-04-30T20:13:55.075Z</time></trkpt><trkpt lat="42.7439628" lon="6.1192813"><ele>0.0</ele><time>2026-04-30T20:13:56.076Z</time></trkpt><trkpt lat="42.7440758" lon="6.1194579"><ele>0.0</ele><time>2026-04-30T20:13:58.075Z</time></trkpt><trkpt lat="42.7441316" lon="6.1195492"><ele>0.0</ele><time>2026-04-30T20:13:59.076Z</time></trkpt><trkpt lat="42.744185" lon="6.119637"><ele>0.0</ele><time>2026-04-30T20:14:00.075Z</time></trkpt><trkpt lat="42.7442396" lon="6.1197217"><ele>0.0</ele><time>2026-04-30T20:14:01.076Z</time></trkpt><trkpt lat="42.7442902" lon="6.1198108"><ele>0.0</ele><time>2026-04-30T20:14:02.075Z</time></trkpt><trkpt lat="42.7443476" lon="6.1199024"><ele>0.0</ele><time>2026-04-30T20:14:03.075Z</time></trkpt><trkpt lat="42.7444016" lon="6.1199918"><ele>0.0</ele><time>2026-04-30T20:14:04.075Z</time></trkpt><trkpt lat="42.7444517" lon="6.1200784"><ele>0.0</ele><time>2026-04-30T20:14:05.075Z</time></trkpt><trkpt lat="42.7444916" lon="6.1201709"><ele>0.0</ele><time>2026-04-30T20:14:06.075Z</time></trkpt><trkpt lat="42.7445321" lon="6.1202598"><ele>0.0</ele><time>2026-04-30T20:14:07.076Z</time></trkpt><trkpt lat="42.7445763" lon="6.1203489"><ele>0.0</ele><time>2026-04-30T20:14:08.076Z</time></trkpt><trkpt lat="42.7446225" lon="6.1204385"><ele>0.0</ele><time>2026-04-30T20:14:09.075Z</time></trkpt><trkpt lat="42.7446639" lon="6.1205322"><ele>0.0</ele><time>2026-04-30T20:14:10.075Z</time></trkpt><trkpt lat="42.744717" lon="6.1206202"><ele>0.0</ele><time>2026-04-30T20:14:11.075Z</time></trkpt><trkpt lat="42.7447717" lon="6.1207099"><ele>0.0</ele><time>2026-04-30T20:14:12.076Z</time></trkpt><trkpt lat="42.744825" lon="6.1207976"><ele>0.0</ele><time>2026-04-30T20:14:13.076Z</time></trkpt><trkpt lat="42.7448769" lon="6.1208826"><ele>0.0</ele><time>2026-04-30T20:14:14.075Z</time></trkpt><trkpt lat="42.7449282" lon="6.1209747"><ele>0.0</ele><time>2026-04-30T20:14:15.075Z</time></trkpt><trkpt lat="42.7449814" lon="6.1210677"><ele>0.0</ele><time>2026-04-30T20:14:16.075Z</time></trkpt><trkpt lat="42.7450333" lon="6.1211583"><ele>0.0</ele><time>2026-04-30T20:14:17.075Z</time></trkpt><trkpt lat="42.7451994" lon="6.1214414"><ele>0.0</ele><time>2026-04-30T20:14:20.075Z</time></trkpt><trkpt lat="42.745255" lon="6.1215344"><ele>0.0</ele><time>2026-04-30T20:14:21.076Z</time></trkpt><trkpt lat="42.7453058" lon="6.1216178"><ele>0.0</ele><time>2026-04-30T20:14:22.075Z</time></trkpt><trkpt lat="42.7453529" lon="6.1216937"><ele>0.0</ele><time>2026-04-30T20:14:23.076Z</time></trkpt><trkpt lat="42.7454039" lon="6.1217752"><ele>0.0</ele><time>2026-04-30T20:14:24.076Z</time></trkpt><trkpt lat="42.7454582" lon="6.1218604"><ele>0.0</ele><time>2026-04-30T20:14:25.075Z</time></trkpt><trkpt lat="42.745509" lon="6.1219441"><ele>0.0</ele><time>2026-04-30T20:14:26.075Z</time></trkpt><trkpt lat="42.7455605" lon="6.122035"><ele>0.0</ele><time>2026-04-30T20:14:27.075Z</time></trkpt><trkpt lat="42.7456057" lon="6.1221291"><ele>0.0</ele><time>2026-04-30T20:14:28.075Z</time></trkpt><trkpt lat="42.745655" lon="6.1222202"><ele>0.0</ele><time>2026-04-30T20:14:29.075Z</time></trkpt><trkpt lat="42.7457049" lon="6.1223089"><ele>0.0</ele><time>2026-04-30T20:14:30.075Z</time></trkpt><trkpt lat="42.7457535" lon="6.1223956"><ele>0.0</ele><time>2026-04-30T20:14:31.076Z</time></trkpt><trkpt lat="42.7458022" lon="6.1224903"><ele>0.0</ele><time>2026-04-30T20:14:32.076Z</time></trkpt><trkpt lat="42.7458565" lon="6.1225796"><ele>0.0</ele><time>2026-04-30T20:14:33.076Z</time></trkpt><trkpt lat="42.7459072" lon="6.1226709"><ele>0.0</ele><time>2026-04-30T20:14:34.075Z</time></trkpt><trkpt lat="42.7459585" lon="6.1227659"><ele>0.0</ele><time>2026-04-30T20:14:35.075Z</time></trkpt><trkpt lat="42.7460145" lon="6.1228593"><ele>0.0</ele><time>2026-04-30T20:14:36.076Z</time></trkpt><trkpt lat="42.7460664" lon="6.1229599"><ele>0.0</ele><time>2026-04-30T20:14:37.076Z</time></trkpt><trkpt lat="42.7461179" lon="6.1230504"><ele>0.0</ele><time>2026-04-30T20:14:38.076Z</time></trkpt><trkpt lat="42.746171" lon="6.12314"><ele>0.0</ele><time>2026-04-30T20:14:39.076Z</time></trkpt><trkpt lat="42.7462657" lon="6.123323"><ele>0.0</ele><time>2026-04-30T20:14:41.076Z</time></trkpt><trkpt lat="42.7463185" lon="6.1234112"><ele>0.0</ele><time>2026-04-30T20:14:42.076Z</time></trkpt><trkpt lat="42.7463689" lon="6.1235012"><ele>0.0</ele><time>2026-04-30T20:14:43.075Z</time></trkpt><trkpt lat="42.7464162" lon="6.1235883"><ele>0.0</ele><time>2026-04-30T20:14:44.075Z</time></trkpt><trkpt lat="42.7464706" lon="6.1236731"><ele>0.0</ele><time>2026-04-30T20:14:45.076Z</time></trkpt><trkpt lat="42.7465247" lon="6.1237631"><ele>0.0</ele><time>2026-04-30T20:14:46.076Z</time></trkpt><trkpt lat="42.7465783" lon="6.1238543"><ele>0.0</ele><time>2026-04-30T20:14:47.075Z</time></trkpt><trkpt lat="42.7466287" lon="6.1239403"><ele>0.0</ele><time>2026-04-30T20:14:48.076Z</time></trkpt><trkpt lat="42.7466815" lon="6.1240282"><ele>0.0</ele><time>2026-04-30T20:14:49.075Z</time></trkpt><trkpt lat="42.7468016" lon="6.1241976"><ele>0.0</ele><time>2026-04-30T20:14:51.076Z</time></trkpt><trkpt lat="42.746858" lon="6.1242847"><ele>0.0</ele><time>2026-04-30T20:14:52.075Z</time></trkpt><trkpt lat="42.7469151" lon="6.1243713"><ele>0.0</ele><time>2026-04-30T20:14:53.076Z</time></trkpt><trkpt lat="42.7469685" lon="6.1244622"><ele>0.0</ele><time>2026-04-30T20:14:54.075Z</time></trkpt><trkpt lat="42.7470288" lon="6.1245442"><ele>0.0</ele><time>2026-04-30T20:14:55.075Z</time></trkpt><trkpt lat="42.7470832" lon="6.1246274"><ele>0.0</ele><time>2026-04-30T20:14:56.076Z</time></trkpt><trkpt lat="42.7471321" lon="6.1247153"><ele>0.0</ele><time>2026-04-30T20:14:57.076Z</time></trkpt><trkpt lat="42.7471928" lon="6.1247977"><ele>0.0</ele><time>2026-04-30T20:14:58.075Z</time></trkpt><trkpt lat="42.7472475" lon="6.1248944"><ele>0.0</ele><time>2026-04-30T20:14:59.076Z</time></trkpt><trkpt lat="42.7473021" lon="6.1249787"><ele>0.0</ele><time>2026-04-30T20:15:00.075Z</time></trkpt><trkpt lat="42.7474036" lon="6.1251479"><ele>0.0</ele><time>2026-04-30T20:15:02.075Z</time></trkpt><trkpt lat="42.7474551" lon="6.1252361"><ele>0.0</ele><time>2026-04-30T20:15:03.076Z</time></trkpt><trkpt lat="42.7475081" lon="6.125328"><ele>0.0</ele><time>2026-04-30T20:15:04.075Z</time></trkpt><trkpt lat="42.7475599" lon="6.12542"><ele>0.0</ele><time>2026-04-30T20:15:05.076Z</time></trkpt><trkpt lat="42.7476133" lon="6.12551"><ele>0.0</ele><time>2026-04-30T20:15:06.075Z</time></trkpt><trkpt lat="42.7476665" lon="6.1255948"><ele>0.0</ele><time>2026-04-30T20:15:07.075Z</time></trkpt><trkpt lat="42.7477187" lon="6.1256787"><ele>0.0</ele><time>2026-04-30T20:15:08.075Z</time></trkpt><trkpt lat="42.7477703" lon="6.1257634"><ele>0.0</ele><time>2026-04-30T20:15:09.076Z</time></trkpt><trkpt lat="42.7478281" lon="6.1258463"><ele>0.0</ele><time>2026-04-30T20:15:10.076Z</time></trkpt><trkpt lat="42.7478797" lon="6.125938"><ele>0.0</ele><time>2026-04-30T20:15:11.076Z</time></trkpt><trkpt lat="42.7479341" lon="6.126023"><ele>0.0</ele><time>2026-04-30T20:15:12.076Z</time></trkpt><trkpt lat="42.7479783" lon="6.1261168"><ele>0.0</ele><time>2026-04-30T20:15:13.076Z</time></trkpt><trkpt lat="42.7480285" lon="6.1262076"><ele>0.0</ele><time>2026-04-30T20:15:14.075Z</time></trkpt><trkpt lat="42.7480741" lon="6.1262974"><ele>0.0</ele><time>2026-04-30T20:15:15.075Z</time></trkpt><trkpt lat="42.74812" lon="6.1263852"><ele>0.0</ele><time>2026-04-30T20:15:16.075Z</time></trkpt><trkpt lat="42.7481665" lon="6.1264776"><ele>0.0</ele><time>2026-04-30T20:15:17.076Z</time></trkpt><trkpt lat="42.7482177" lon="6.1265724"><ele>0.0</ele><time>2026-04-30T20:15:18.075Z</time></trkpt><trkpt lat="42.7482685" lon="6.1266605"><ele>0.0</ele><time>2026-04-30T20:15:19.076Z</time></trkpt><trkpt lat="42.7483162" lon="6.1267483"><ele>0.0</ele><time>2026-04-30T20:15:20.075Z</time></trkpt><trkpt lat="42.7483699" lon="6.126835"><ele>0.0</ele><time>2026-04-30T20:15:21.075Z</time></trkpt><trkpt lat="42.7485392" lon="6.1270971"><ele>0.0</ele><time>2026-04-30T20:15:24.076Z</time></trkpt><trkpt lat="42.7485929" lon="6.1271909"><ele>0.0</ele><time>2026-04-30T20:15:25.076Z</time></trkpt><trkpt lat="42.7486414" lon="6.1272863"><ele>0.0</ele><time>2026-04-30T20:15:26.075Z</time></trkpt><trkpt lat="42.7486934" lon="6.1273731"><ele>0.0</ele><time>2026-04-30T20:15:27.076Z</time></trkpt><trkpt lat="42.7487441" lon="6.1274642"><ele>0.0</ele><time>2026-04-30T20:15:28.075Z</time></trkpt><trkpt lat="42.7487924" lon="6.1275549"><ele>0.0</ele><time>2026-04-30T20:15:29.075Z</time></trkpt><trkpt lat="42.748852" lon="6.1276377"><ele>0.0</ele><time>2026-04-30T20:15:30.075Z</time></trkpt><trkpt lat="42.7489092" lon="6.127721"><ele>0.0</ele><time>2026-04-30T20:15:31.076Z</time></trkpt><trkpt lat="42.7489685" lon="6.1278113"><ele>0.0</ele><time>2026-04-30T20:15:32.075Z</time></trkpt><trkpt lat="42.7490229" lon="6.1279027"><ele>0.0</ele><time>2026-04-30T20:15:33.075Z</time></trkpt><trkpt lat="42.7490767" lon="6.1279933"><ele>0.0</ele><time>2026-04-30T20:15:34.075Z</time></trkpt><trkpt lat="42.7491242" lon="6.1280854"><ele>0.0</ele><time>2026-04-30T20:15:35.076Z</time></trkpt><trkpt lat="42.7491718" lon="6.1281783"><ele>0.0</ele><time>2026-04-30T20:15:36.075Z</time></trkpt><trkpt lat="42.7492215" lon="6.1282696"><ele>0.0</ele><time>2026-04-30T20:15:37.076Z</time></trkpt><trkpt lat="42.7492701" lon="6.1283616"><ele>0.0</ele><time>2026-04-30T20:15:38.076Z</time></trkpt><trkpt lat="42.7493219" lon="6.1284562"><ele>0.0</ele><time>2026-04-30T20:15:39.075Z</time></trkpt><trkpt lat="42.7493735" lon="6.1285498"><ele>0.0</ele><time>2026-04-30T20:15:40.075Z</time></trkpt><trkpt lat="42.7494252" lon="6.1286417"><ele>0.0</ele><time>2026-04-30T20:15:41.075Z</time></trkpt><trkpt lat="42.7494768" lon="6.1287337"><ele>0.0</ele><time>2026-04-30T20:15:42.076Z</time></trkpt><trkpt lat="42.7495325" lon="6.1288225"><ele>0.0</ele><time>2026-04-30T20:15:43.075Z</time></trkpt><trkpt lat="42.7496479" lon="6.128999"><ele>0.0</ele><time>2026-04-30T20:15:45.075Z</time></trkpt><trkpt lat="42.749702" lon="6.1290824"><ele>0.0</ele><time>2026-04-30T20:15:46.075Z</time></trkpt><trkpt lat="42.7497522" lon="6.1291697"><ele>0.0</ele><time>2026-04-30T20:15:47.076Z</time></trkpt><trkpt lat="42.7498022" lon="6.129255"><ele>0.0</ele><time>2026-04-30T20:15:48.075Z</time></trkpt><trkpt lat="42.7498522" lon="6.1293434"><ele>0.0</ele><time>2026-04-30T20:15:49.075Z</time></trkpt><trkpt lat="42.7498993" lon="6.1294271"><ele>0.0</ele><time>2026-04-30T20:15:50.075Z</time></trkpt><trkpt lat="42.7499484" lon="6.1295148"><ele>0.0</ele><time>2026-04-30T20:15:51.076Z</time></trkpt><trkpt lat="42.7499929" lon="6.1295979"><ele>0.0</ele><time>2026-04-30T20:15:52.075Z</time></trkpt><trkpt lat="42.7500405" lon="6.1296912"><ele>0.0</ele><time>2026-04-30T20:15:53.075Z</time></trkpt><trkpt lat="42.7501416" lon="6.129877"><ele>0.0</ele><time>2026-04-30T20:15:55.076Z</time></trkpt><trkpt lat="42.750195" lon="6.12997"><ele>0.0</ele><time>2026-04-30T20:15:56.076Z</time></trkpt><trkpt lat="42.7502502" lon="6.130062"><ele>0.0</ele><time>2026-04-30T20:15:57.075Z</time></trkpt><trkpt lat="42.7503008" lon="6.1301483"><ele>0.0</ele><time>2026-04-30T20:15:58.075Z</time></trkpt><trkpt lat="42.7503545" lon="6.1302409"><ele>0.0</ele><time>2026-04-30T20:15:59.076Z</time></trkpt><trkpt lat="42.7504067" lon="6.130336"><ele>0.0</ele><time>2026-04-30T20:16:00.075Z</time></trkpt><trkpt lat="42.7504556" lon="6.1304239"><ele>0.0</ele><time>2026-04-30T20:16:01.075Z</time></trkpt><trkpt lat="42.7505079" lon="6.1305124"><ele>0.0</ele><time>2026-04-30T20:16:02.075Z</time></trkpt><trkpt lat="42.7505585" lon="6.1306028"><ele>0.0</ele><time>2026-04-30T20:16:03.076Z</time></trkpt><trkpt lat="42.7506142" lon="6.1306892"><ele>0.0</ele><time>2026-04-30T20:16:04.076Z</time></trkpt><trkpt lat="42.7507308" lon="6.1308838"><ele>0.0</ele><time>2026-04-30T20:16:06.075Z</time></trkpt><trkpt lat="42.7507864" lon="6.130976"><ele>0.0</ele><time>2026-04-30T20:16:07.076Z</time></trkpt><trkpt lat="42.7508368" lon="6.1310649"><ele>0.0</ele><time>2026-04-30T20:16:08.075Z</time></trkpt><trkpt lat="42.7508906" lon="6.1311478"><ele>0.0</ele><time>2026-04-30T20:16:09.075Z</time></trkpt><trkpt lat="42.7509382" lon="6.1312352"><ele>0.0</ele><time>2026-04-30T20:16:10.076Z</time></trkpt><trkpt lat="42.7509848" lon="6.131328"><ele>0.0</ele><time>2026-04-30T20:16:11.075Z</time></trkpt><trkpt lat="42.75103" lon="6.1314199"><ele>0.0</ele><time>2026-04-30T20:16:12.075Z</time></trkpt><trkpt lat="42.7510758" lon="6.1315137"><ele>0.0</ele><time>2026-04-30T20:16:13.076Z</time></trkpt><trkpt lat="42.7511381" lon="6.1315944"><ele>0.0</ele><time>2026-04-30T20:16:14.076Z</time></trkpt><trkpt lat="42.7511879" lon="6.1316843"><ele>0.0</ele><time>2026-04-30T20:16:15.076Z</time></trkpt><trkpt lat="42.751235" lon="6.1317738"><ele>0.0</ele><time>2026-04-30T20:16:16.076Z</time></trkpt><trkpt lat="42.7512815" lon="6.1318636"><ele>0.0</ele><time>2026-04-30T20:16:17.076Z</time></trkpt><trkpt lat="42.7513344" lon="6.1319534"><ele>0.0</ele><time>2026-04-30T20:16:18.075Z</time></trkpt><trkpt lat="42.7513865" lon="6.1320423"><ele>0.0</ele><time>2026-04-30T20:16:19.075Z</time></trkpt><trkpt lat="42.7514365" lon="6.1321333"><ele>0.0</ele><time>2026-04-30T20:16:20.075Z</time></trkpt><trkpt lat="42.7514882" lon="6.132225"><ele>0.0</ele><time>2026-04-30T20:16:21.075Z</time></trkpt><trkpt lat="42.7515416" lon="6.132315"><ele>0.0</ele><time>2026-04-30T20:16:22.076Z</time></trkpt><trkpt lat="42.751593" lon="6.1324078"><ele>0.0</ele><time>2026-04-30T20:16:23.075Z</time></trkpt><trkpt lat="42.7516433" lon="6.132497"><ele>0.0</ele><time>2026-04-30T20:16:24.075Z</time></trkpt><trkpt lat="42.751695" lon="6.1325867"><ele>0.0</ele><time>2026-04-30T20:16:25.075Z</time></trkpt><trkpt lat="42.7518563" lon="6.1328503"><ele>0.0</ele><time>2026-04-30T20:16:28.076Z</time></trkpt><trkpt lat="42.7519155" lon="6.1329355"><ele>0.0</ele><time>2026-04-30T20:16:29.076Z</time></trkpt><trkpt lat="42.7519712" lon="6.1330236"><ele>0.0</ele><time>2026-04-30T20:16:30.076Z</time></trkpt><trkpt lat="42.7520203" lon="6.1331151"><ele>0.0</ele><time>2026-04-30T20:16:31.075Z</time></trkpt><trkpt lat="42.7520669" lon="6.1332069"><ele>0.0</ele><time>2026-04-30T20:16:32.076Z</time></trkpt><trkpt lat="42.7521061" lon="6.1333031"><ele>0.0</ele><time>2026-04-30T20:16:33.075Z</time></trkpt><trkpt lat="42.7521473" lon="6.1333952"><ele>0.0</ele><time>2026-04-30T20:16:34.075Z</time></trkpt><trkpt lat="42.752186" lon="6.1334898"><ele>0.0</ele><time>2026-04-30T20:16:35.075Z</time></trkpt><trkpt lat="42.7522285" lon="6.1335834"><ele>0.0</ele><time>2026-04-30T20:16:36.076Z</time></trkpt><trkpt lat="42.7522763" lon="6.1336735"><ele>0.0</ele><time>2026-04-30T20:16:37.075Z</time></trkpt><trkpt lat="42.7523248" lon="6.1337647"><ele>0.0</ele><time>2026-04-30T20:16:38.076Z</time></trkpt><trkpt lat="42.7523733" lon="6.1338566"><ele>0.0</ele><time>2026-04-30T20:16:39.075Z</time></trkpt><trkpt lat="42.7524225" lon="6.1339484"><ele>0.0</ele><time>2026-04-30T20:16:40.076Z</time></trkpt><trkpt lat="42.7524761" lon="6.1340414"><ele>0.0</ele><time>2026-04-30T20:16:41.076Z</time></trkpt><trkpt lat="42.7525267" lon="6.1341328"><ele>0.0</ele><time>2026-04-30T20:16:42.076Z</time></trkpt><trkpt lat="42.7525768" lon="6.1342248"><ele>0.0</ele><time>2026-04-30T20:16:43.076Z</time></trkpt><trkpt lat="42.7526295" lon="6.1343179"><ele>0.0</ele><time>2026-04-30T20:16:44.075Z</time></trkpt><trkpt lat="42.7526814" lon="6.1344126"><ele>0.0</ele><time>2026-04-30T20:16:45.076Z</time></trkpt><trkpt lat="42.7527343" lon="6.1345054"><ele>0.0</ele><time>2026-04-30T20:16:46.075Z</time></trkpt><trkpt lat="42.7527878" lon="6.1345967"><ele>0.0</ele><time>2026-04-30T20:16:47.075Z</time></trkpt><trkpt lat="42.7529063" lon="6.1347682"><ele>0.0</ele><time>2026-04-30T20:16:49.075Z</time></trkpt><trkpt lat="42.7529585" lon="6.1348572"><ele>0.0</ele><time>2026-04-30T20:16:50.075Z</time></trkpt><trkpt lat="42.7530131" lon="6.1349421"><ele>0.0</ele><time>2026-04-30T20:16:51.075Z</time></trkpt><trkpt lat="42.7530681" lon="6.1350298"><ele>0.0</ele><time>2026-04-30T20:16:52.076Z</time></trkpt><trkpt lat="42.7531237" lon="6.1351149"><ele>0.0</ele><time>2026-04-30T20:16:53.075Z</time></trkpt><trkpt lat="42.7531829" lon="6.1351996"><ele>0.0</ele><time>2026-04-30T20:16:54.075Z</time></trkpt><trkpt lat="42.7532418" lon="6.1352848"><ele>0.0</ele><time>2026-04-30T20:16:55.075Z</time></trkpt><trkpt lat="42.7532985" lon="6.1353718"><ele>0.0</ele><time>2026-04-30T20:16:56.076Z</time></trkpt><trkpt lat="42.7533535" lon="6.1354599"><ele>0.0</ele><time>2026-04-30T20:16:57.075Z</time></trkpt><trkpt lat="42.7534621" lon="6.1356364"><ele>0.0</ele><time>2026-04-30T20:16:59.075Z</time></trkpt><trkpt lat="42.7535149" lon="6.1357248"><ele>0.0</ele><time>2026-04-30T20:17:00.075Z</time></trkpt><trkpt lat="42.7535671" lon="6.1358128"><ele>0.0</ele><time>2026-04-30T20:17:01.076Z</time></trkpt><trkpt lat="42.7536203" lon="6.1359031"><ele>0.0</ele><time>2026-04-30T20:17:02.076Z</time></trkpt><trkpt lat="42.753669" lon="6.1359976"><ele>0.0</ele><time>2026-04-30T20:17:03.075Z</time></trkpt><trkpt lat="42.7537218" lon="6.1360878"><ele>0.0</ele><time>2026-04-30T20:17:04.075Z</time></trkpt><trkpt lat="42.7537718" lon="6.1361799"><ele>0.0</ele><time>2026-04-30T20:17:05.076Z</time></trkpt><trkpt lat="42.7538275" lon="6.1362684"><ele>0.0</ele><time>2026-04-30T20:17:06.076Z</time></trkpt><trkpt lat="42.7538815" lon="6.136361"><ele>0.0</ele><time>2026-04-30T20:17:07.076Z</time></trkpt><trkpt lat="42.7539381" lon="6.1364498"><ele>0.0</ele><time>2026-04-30T20:17:08.076Z</time></trkpt><trkpt lat="42.7540499" lon="6.1366215"><ele>0.0</ele><time>2026-04-30T20:17:10.076Z</time></trkpt><trkpt lat="42.7541018" lon="6.1367118"><ele>0.0</ele><time>2026-04-30T20:17:11.076Z</time></trkpt><trkpt lat="42.7541566" lon="6.1367981"><ele>0.0</ele><time>2026-04-30T20:17:12.075Z</time></trkpt><trkpt lat="42.7542131" lon="6.1368845"><ele>0.0</ele><time>2026-04-30T20:17:13.076Z</time></trkpt><trkpt lat="42.7542686" lon="6.1369716"><ele>0.0</ele><time>2026-04-30T20:17:14.075Z</time></trkpt><trkpt lat="42.7543224" lon="6.1370612"><ele>0.0</ele><time>2026-04-30T20:17:15.075Z</time></trkpt><trkpt lat="42.7543756" lon="6.1371452"><ele>0.0</ele><time>2026-04-30T20:17:16.075Z</time></trkpt><trkpt lat="42.7544248" lon="6.1372326"><ele>0.0</ele><time>2026-04-30T20:17:17.075Z</time></trkpt><trkpt lat="42.7544756" lon="6.1373181"><ele>0.0</ele><time>2026-04-30T20:17:18.075Z</time></trkpt><trkpt lat="42.7545287" lon="6.1374065"><ele>0.0</ele><time>2026-04-30T20:17:19.075Z</time></trkpt><trkpt lat="42.7545834" lon="6.1374947"><ele>0.0</ele><time>2026-04-30T20:17:20.076Z</time></trkpt><trkpt lat="42.7546384" lon="6.1375798"><ele>0.0</ele><time>2026-04-30T20:17:21.076Z</time></trkpt><trkpt lat="42.7546949" lon="6.1376649"><ele>0.0</ele><time>2026-04-30T20:17:22.075Z</time></trkpt><trkpt lat="42.7547434" lon="6.1377552"><ele>0.0</ele><time>2026-04-30T20:17:23.076Z</time></trkpt><trkpt lat="42.7547958" lon="6.1378383"><ele>0.0</ele><time>2026-04-30T20:17:24.075Z</time></trkpt><trkpt lat="42.7548432" lon="6.137934"><ele>0.0</ele><time>2026-04-30T20:17:25.075Z</time></trkpt><trkpt lat="42.7548984" lon="6.1380273"><ele>0.0</ele><time>2026-04-30T20:17:26.076Z</time></trkpt><trkpt lat="42.754943" lon="6.1381093"><ele>0.0</ele><time>2026-04-30T20:17:27.076Z</time></trkpt><trkpt lat="42.7549873" lon="6.1381936"><ele>0.0</ele><time>2026-04-30T20:17:28.075Z</time></trkpt><trkpt lat="42.7550336" lon="6.1382847"><ele>0.0</ele><time>2026-04-30T20:17:29.075Z</time></trkpt><trkpt lat="42.7552012" lon="6.1385458"><ele>0.0</ele><time>2026-04-30T20:17:32.076Z</time></trkpt><trkpt lat="42.7552613" lon="6.1386357"><ele>0.0</ele><time>2026-04-30T20:17:33.075Z</time></trkpt><trkpt lat="42.7553167" lon="6.1387232"><ele>0.0</ele><time>2026-04-30T20:17:34.075Z</time></trkpt><trkpt lat="42.7553715" lon="6.1388161"><ele>0.0</ele><time>2026-04-30T20:17:35.075Z</time></trkpt><trkpt lat="42.7554297" lon="6.1389107"><ele>0.0</ele><time>2026-04-30T20:17:36.075Z</time></trkpt><trkpt lat="42.7554814" lon="6.1390077"><ele>0.0</ele><time>2026-04-30T20:17:37.075Z</time></trkpt><trkpt lat="42.7555316" lon="6.1390959"><ele>0.0</ele><time>2026-04-30T20:17:38.076Z</time></trkpt><trkpt lat="42.7555828" lon="6.1391853"><ele>0.0</ele><time>2026-04-30T20:17:39.075Z</time></trkpt><trkpt lat="42.7556347" lon="6.1392752"><ele>0.0</ele><time>2026-04-30T20:17:40.075Z</time></trkpt><trkpt lat="42.7556914" lon="6.1393618"><ele>0.0</ele><time>2026-04-30T20:17:41.075Z</time></trkpt><trkpt lat="42.755747" lon="6.139447"><ele>0.0</ele><time>2026-04-30T20:17:42.076Z</time></trkpt><trkpt lat="42.7558018" lon="6.1395338"><ele>0.0</ele><time>2026-04-30T20:17:43.076Z</time></trkpt><trkpt lat="42.7558525" lon="6.1396162"><ele>0.0</ele><time>2026-04-30T20:17:44.075Z</time></trkpt><trkpt lat="42.7559038" lon="6.1397077"><ele>0.0</ele><time>2026-04-30T20:17:45.076Z</time></trkpt><trkpt lat="42.7559537" lon="6.1397913"><ele>0.0</ele><time>2026-04-30T20:17:46.075Z</time></trkpt><trkpt lat="42.7559966" lon="6.1398803"><ele>0.0</ele><time>2026-04-30T20:17:47.075Z</time></trkpt><trkpt lat="42.7560419" lon="6.1399762"><ele>0.0</ele><time>2026-04-30T20:17:48.075Z</time></trkpt><trkpt lat="42.7560901" lon="6.1400664"><ele>0.0</ele><time>2026-04-30T20:17:49.076Z</time></trkpt><trkpt lat="42.7561402" lon="6.1401536"><ele>0.0</ele><time>2026-04-30T20:17:50.075Z</time></trkpt><trkpt lat="42.7561993" lon="6.140242"><ele>0.0</ele><time>2026-04-30T20:17:51.075Z</time></trkpt><trkpt lat="42.7563129" lon="6.1404259"><ele>0.0</ele><time>2026-04-30T20:17:53.075Z</time></trkpt><trkpt lat="42.7563642" lon="6.1405173"><ele>0.0</ele><time>2026-04-30T20:17:54.076Z</time></trkpt><trkpt lat="42.7564168" lon="6.1406109"><ele>0.0</ele><time>2026-04-30T20:17:55.076Z</time></trkpt><trkpt lat="42.7564761" lon="6.1406988"><ele>0.0</ele><time>2026-04-30T20:17:56.076Z</time></trkpt><trkpt lat="42.7565297" lon="6.1407851"><ele>0.0</ele><time>2026-04-30T20:17:57.075Z</time></trkpt><trkpt lat="42.7565846" lon="6.1408716"><ele>0.0</ele><time>2026-04-30T20:17:58.076Z</time></trkpt><trkpt lat="42.7566371" lon="6.1409667"><ele>0.0</ele><time>2026-04-30T20:17:59.076Z</time></trkpt><trkpt lat="42.756692" lon="6.1410535"><ele>0.0</ele><time>2026-04-30T20:18:00.075Z</time></trkpt><trkpt lat="42.7567467" lon="6.1411338"><ele>0.0</ele><time>2026-04-30T20:18:01.075Z</time></trkpt><trkpt lat="42.7568677" lon="6.1413132"><ele>0.0</ele><time>2026-04-30T20:18:03.075Z</time></trkpt><trkpt lat="42.7569264" lon="6.1413999"><ele>0.0</ele><time>2026-04-30T20:18:04.075Z</time></trkpt><trkpt lat="42.7569803" lon="6.141481"><ele>0.0</ele><time>2026-04-30T20:18:05.075Z</time></trkpt><trkpt lat="42.7570333" lon="6.141564"><ele>0.0</ele><time>2026-04-30T20:18:06.075Z</time></trkpt><trkpt lat="42.7570849" lon="6.1416514"><ele>0.0</ele><time>2026-04-30T20:18:07.075Z</time></trkpt><trkpt lat="42.7571395" lon="6.1417394"><ele>0.0</ele><time>2026-04-30T20:18:08.075Z</time></trkpt><trkpt lat="42.7571948" lon="6.1418253"><ele>0.0</ele><time>2026-04-30T20:18:09.075Z</time></trkpt><trkpt lat="42.7572533" lon="6.1419116"><ele>0.0</ele><time>2026-04-30T20:18:10.074Z</time></trkpt><trkpt lat="42.7573099" lon="6.1419995"><ele>0.0</ele><time>2026-04-30T20:18:11.074Z</time></trkpt><trkpt lat="42.7573736" lon="6.1421038"><ele>0.0</ele><time>2026-04-30T20:18:12.074Z</time></trkpt><trkpt lat="42.7574756" lon="6.1422816"><ele>0.0</ele><time>2026-04-30T20:18:14.075Z</time></trkpt><trkpt lat="42.7575251" lon="6.1423761"><ele>0.0</ele><time>2026-04-30T20:18:15.075Z</time></trkpt><trkpt lat="42.7575721" lon="6.1424655"><ele>0.0</ele><time>2026-04-30T20:18:16.075Z</time></trkpt><trkpt lat="42.7576172" lon="6.1425554"><ele>0.0</ele><time>2026-04-30T20:18:17.074Z</time></trkpt><trkpt lat="42.7576644" lon="6.1426407"><ele>0.0</ele><time>2026-04-30T20:18:18.075Z</time></trkpt><trkpt lat="42.7577155" lon="6.1427265"><ele>0.0</ele><time>2026-04-30T20:18:19.074Z</time></trkpt><trkpt lat="42.7577633" lon="6.1428174"><ele>0.0</ele><time>2026-04-30T20:18:20.074Z</time></trkpt><trkpt lat="42.7578131" lon="6.1429079"><ele>0.0</ele><time>2026-04-30T20:18:21.074Z</time></trkpt><trkpt lat="42.7578631" lon="6.1430013"><ele>0.0</ele><time>2026-04-30T20:18:22.074Z</time></trkpt><trkpt lat="42.757913" lon="6.1430916"><ele>0.0</ele><time>2026-04-30T20:18:23.074Z</time></trkpt><trkpt lat="42.7579617" lon="6.1431784"><ele>0.0</ele><time>2026-04-30T20:18:24.074Z</time></trkpt><trkpt lat="42.7580148" lon="6.1432694"><ele>0.0</ele><time>2026-04-30T20:18:25.074Z</time></trkpt><trkpt lat="42.7580651" lon="6.1433615"><ele>0.0</ele><time>2026-04-30T20:18:26.075Z</time></trkpt><trkpt lat="42.7581166" lon="6.14345"><ele>0.0</ele><time>2026-04-30T20:18:27.074Z</time></trkpt><trkpt lat="42.7581656" lon="6.1435387"><ele>0.0</ele><time>2026-04-30T20:18:28.074Z</time></trkpt><trkpt lat="42.7582153" lon="6.1436251"><ele>0.0</ele><time>2026-04-30T20:18:29.075Z</time></trkpt><trkpt lat="42.7582684" lon="6.1437099"><ele>0.0</ele><time>2026-04-30T20:18:30.075Z</time></trkpt><trkpt lat="42.7583185" lon="6.143798"><ele>0.0</ele><time>2026-04-30T20:18:31.074Z</time></trkpt><trkpt lat="42.7583701" lon="6.143887"><ele>0.0</ele><time>2026-04-30T20:18:32.075Z</time></trkpt><trkpt lat="42.7584182" lon="6.1439766"><ele>0.0</ele><time>2026-04-30T20:18:33.074Z</time></trkpt><trkpt lat="42.7585681" lon="6.1442513"><ele>0.0</ele><time>2026-04-30T20:18:36.074Z</time></trkpt><trkpt lat="42.7586173" lon="6.1443403"><ele>0.0</ele><time>2026-04-30T20:18:37.074Z</time></trkpt><trkpt lat="42.7586702" lon="6.1444266"><ele>0.0</ele><time>2026-04-30T20:18:38.074Z</time></trkpt><trkpt lat="42.758723" lon="6.1445179"><ele>0.0</ele><time>2026-04-30T20:18:39.075Z</time></trkpt><trkpt lat="42.7587766" lon="6.1446081"><ele>0.0</ele><time>2026-04-30T20:18:40.074Z</time></trkpt><trkpt lat="42.7588298" lon="6.1446966"><ele>0.0</ele><time>2026-04-30T20:18:41.075Z</time></trkpt><trkpt lat="42.7588785" lon="6.14479"><ele>0.0</ele><time>2026-04-30T20:18:42.075Z</time></trkpt><trkpt lat="42.7589323" lon="6.1448858"><ele>0.0</ele><time>2026-04-30T20:18:43.074Z</time></trkpt><trkpt lat="42.7589861" lon="6.1449749"><ele>0.0</ele><time>2026-04-30T20:18:44.074Z</time></trkpt><trkpt lat="42.7590385" lon="6.1450607"><ele>0.0</ele><time>2026-04-30T20:18:45.074Z</time></trkpt><trkpt lat="42.7590885" lon="6.145147"><ele>0.0</ele><time>2026-04-30T20:18:46.074Z</time></trkpt><trkpt lat="42.7591418" lon="6.1452288"><ele>0.0</ele><time>2026-04-30T20:18:47.074Z</time></trkpt><trkpt lat="42.7591966" lon="6.1453148"><ele>0.0</ele><time>2026-04-30T20:18:48.075Z</time></trkpt><trkpt lat="42.7592515" lon="6.1454046"><ele>0.0</ele><time>2026-04-30T20:18:49.074Z</time></trkpt><trkpt lat="42.759305" lon="6.1454963"><ele>0.0</ele><time>2026-04-30T20:18:50.074Z</time></trkpt><trkpt lat="42.7593618" lon="6.1455837"><ele>0.0</ele><time>2026-04-30T20:18:51.074Z</time></trkpt><trkpt lat="42.7594181" lon="6.1456701"><ele>0.0</ele><time>2026-04-30T20:18:52.075Z</time></trkpt><trkpt lat="42.7594748" lon="6.1457595"><ele>0.0</ele><time>2026-04-30T20:18:53.075Z</time></trkpt><trkpt lat="42.7595361" lon="6.1458434"><ele>0.0</ele><time>2026-04-30T20:18:54.074Z</time></trkpt><trkpt lat="42.7595937" lon="6.1459269"><ele>0.0</ele><time>2026-04-30T20:18:55.074Z</time></trkpt><trkpt lat="42.7596958" lon="6.1461055"><ele>0.0</ele><time>2026-04-30T20:18:57.074Z</time></trkpt><trkpt lat="42.7597485" lon="6.1461933"><ele>0.0</ele><time>2026-04-30T20:18:58.074Z</time></trkpt><trkpt lat="42.7598045" lon="6.1462762"><ele>0.0</ele><time>2026-04-30T20:18:59.075Z</time></trkpt><trkpt lat="42.7598579" lon="6.1463645"><ele>0.0</ele><time>2026-04-30T20:19:00.075Z</time></trkpt><trkpt lat="42.7599148" lon="6.1464531"><ele>0.0</ele><time>2026-04-30T20:19:01.074Z</time></trkpt><trkpt lat="42.7599701" lon="6.1465419"><ele>0.0</ele><time>2026-04-30T20:19:02.074Z</time></trkpt><trkpt lat="42.7600211" lon="6.1466336"><ele>0.0</ele><time>2026-04-30T20:19:03.074Z</time></trkpt><trkpt lat="42.7600754" lon="6.1467198"><ele>0.0</ele><time>2026-04-30T20:19:04.074Z</time></trkpt><trkpt lat="42.7601305" lon="6.1468034"><ele>0.0</ele><time>2026-04-30T20:19:05.075Z</time></trkpt><trkpt lat="42.7602446" lon="6.1469743"><ele>0.0</ele><time>2026-04-30T20:19:07.074Z</time></trkpt><trkpt lat="42.7603018" lon="6.1470617"><ele>0.0</ele><time>2026-04-30T20:19:08.075Z</time></trkpt><trkpt lat="42.7603585" lon="6.1471499"><ele>0.0</ele><time>2026-04-30T20:19:09.075Z</time></trkpt><trkpt lat="42.7604106" lon="6.1472386"><ele>0.0</ele><time>2026-04-30T20:19:10.075Z</time></trkpt><trkpt lat="42.7604628" lon="6.1473291"><ele>0.0</ele><time>2026-04-30T20:19:11.075Z</time></trkpt><trkpt lat="42.7605117" lon="6.1474201"><ele>0.0</ele><time>2026-04-30T20:19:12.075Z</time></trkpt><trkpt lat="42.7605621" lon="6.1475071"><ele>0.0</ele><time>2026-04-30T20:19:13.074Z</time></trkpt><trkpt lat="42.760615" lon="6.1475965"><ele>0.0</ele><time>2026-04-30T20:19:14.074Z</time></trkpt><trkpt lat="42.7606626" lon="6.1476865"><ele>0.0</ele><time>2026-04-30T20:19:15.075Z</time></trkpt><trkpt lat="42.7607103" lon="6.1477737"><ele>0.0</ele><time>2026-04-30T20:19:16.075Z</time></trkpt><trkpt lat="42.7608097" lon="6.1479568"><ele>0.0</ele><time>2026-04-30T20:19:18.075Z</time></trkpt><trkpt lat="42.7608618" lon="6.1480466"><ele>0.0</ele><time>2026-04-30T20:19:19.075Z</time></trkpt><trkpt lat="42.7609205" lon="6.1481325"><ele>0.0</ele><time>2026-04-30T20:19:20.074Z</time></trkpt><trkpt lat="42.7609821" lon="6.1482231"><ele>0.0</ele><time>2026-04-30T20:19:21.075Z</time></trkpt><trkpt lat="42.7610401" lon="6.1483117"><ele>0.0</ele><time>2026-04-30T20:19:22.074Z</time></trkpt><trkpt lat="42.761098" lon="6.1483996"><ele>0.0</ele><time>2026-04-30T20:19:23.074Z</time></trkpt><trkpt lat="42.7611522" lon="6.1484836"><ele>0.0</ele><time>2026-04-30T20:19:24.074Z</time></trkpt><trkpt lat="42.7612051" lon="6.1485728"><ele>0.0</ele><time>2026-04-30T20:19:25.075Z</time></trkpt><trkpt lat="42.761257" lon="6.1486619"><ele>0.0</ele><time>2026-04-30T20:19:26.075Z</time></trkpt><trkpt lat="42.7613085" lon="6.1487485"><ele>0.0</ele><time>2026-04-30T20:19:27.074Z</time></trkpt><trkpt lat="42.7613604" lon="6.1488352"><ele>0.0</ele><time>2026-04-30T20:19:28.074Z</time></trkpt><trkpt lat="42.7614118" lon="6.1489265"><ele>0.0</ele><time>2026-04-30T20:19:29.075Z</time></trkpt><trkpt lat="42.761462" lon="6.1490149"><ele>0.0</ele><time>2026-04-30T20:19:30.074Z</time></trkpt><trkpt lat="42.7615073" lon="6.1491084"><ele>0.0</ele><time>2026-04-30T20:19:31.074Z</time></trkpt><trkpt lat="42.7615554" lon="6.1491972"><ele>0.0</ele><time>2026-04-30T20:19:32.074Z</time></trkpt><trkpt lat="42.7616019" lon="6.1492884"><ele>0.0</ele><time>2026-04-30T20:19:33.075Z</time></trkpt><trkpt lat="42.7616443" lon="6.149383"><ele>0.0</ele><time>2026-04-30T20:19:34.075Z</time></trkpt><trkpt lat="42.7616874" lon="6.1494754"><ele>0.0</ele><time>2026-04-30T20:19:35.074Z</time></trkpt><trkpt lat="42.7617351" lon="6.1495671"><ele>0.0</ele><time>2026-04-30T20:19:36.074Z</time></trkpt><trkpt lat="42.7617803" lon="6.149656"><ele>0.0</ele><time>2026-04-30T20:19:37.074Z</time></trkpt><trkpt lat="42.7619296" lon="6.1499283"><ele>0.0</ele><time>2026-04-30T20:19:40.074Z</time></trkpt><trkpt lat="42.7619846" lon="6.1500155"><ele>0.0</ele><time>2026-04-30T20:19:41.074Z</time></trkpt><trkpt lat="42.7620367" lon="6.1501052"><ele>0.0</ele><time>2026-04-30T20:19:42.074Z</time></trkpt><trkpt lat="42.76209" lon="6.1501935"><ele>0.0</ele><time>2026-04-30T20:19:43.075Z</time></trkpt><trkpt lat="42.762143" lon="6.1502832"><ele>0.0</ele><time>2026-04-30T20:19:44.074Z</time></trkpt><trkpt lat="42.7621967" lon="6.1503729"><ele>0.0</ele><time>2026-04-30T20:19:45.074Z</time></trkpt><trkpt lat="42.7622514" lon="6.1504646"><ele>0.0</ele><time>2026-04-30T20:19:46.075Z</time></trkpt><trkpt lat="42.7623069" lon="6.1505567"><ele>0.0</ele><time>2026-04-30T20:19:47.075Z</time></trkpt><trkpt lat="42.7623662" lon="6.1506409"><ele>0.0</ele><time>2026-04-30T20:19:48.074Z</time></trkpt><trkpt lat="42.7624247" lon="6.1507238"><ele>0.0</ele><time>2026-04-30T20:19:49.075Z</time></trkpt><trkpt lat="42.7624772" lon="6.1508124"><ele>0.0</ele><time>2026-04-30T20:19:50.075Z</time></trkpt><trkpt lat="42.7625291" lon="6.1509001"><ele>0.0</ele><time>2026-04-30T20:19:51.074Z</time></trkpt><trkpt lat="42.7625786" lon="6.150988"><ele>0.0</ele><time>2026-04-30T20:19:52.074Z</time></trkpt><trkpt lat="42.7626236" lon="6.1510798"><ele>0.0</ele><time>2026-04-30T20:19:53.074Z</time></trkpt><trkpt lat="42.7626747" lon="6.1511703"><ele>0.0</ele><time>2026-04-30T20:19:54.074Z</time></trkpt><trkpt lat="42.7627287" lon="6.1512593"><ele>0.0</ele><time>2026-04-30T20:19:55.074Z</time></trkpt><trkpt lat="42.7627806" lon="6.1513489"><ele>0.0</ele><time>2026-04-30T20:19:56.075Z</time></trkpt><trkpt lat="42.7628297" lon="6.1514345"><ele>0.0</ele><time>2026-04-30T20:19:57.075Z</time></trkpt><trkpt lat="42.7628789" lon="6.1515187"><ele>0.0</ele><time>2026-04-30T20:19:58.074Z</time></trkpt><trkpt lat="42.7629346" lon="6.1516111"><ele>0.0</ele><time>2026-04-30T20:19:59.074Z</time></trkpt><trkpt lat="42.7630359" lon="6.1517933"><ele>0.0</ele><time>2026-04-30T20:20:01.075Z</time></trkpt><trkpt lat="42.7630834" lon="6.1518812"><ele>0.0</ele><time>2026-04-30T20:20:02.074Z</time></trkpt><trkpt lat="42.7631311" lon="6.1519711"><ele>0.0</ele><time>2026-04-30T20:20:03.074Z</time></trkpt><trkpt lat="42.7631815" lon="6.1520607"><ele>0.0</ele><time>2026-04-30T20:20:04.075Z</time></trkpt><trkpt lat="42.7632285" lon="6.1521577"><ele>0.0</ele><time>2026-04-30T20:20:05.074Z</time></trkpt><trkpt lat="42.7632749" lon="6.1522538"><ele>0.0</ele><time>2026-04-30T20:20:06.074Z</time></trkpt><trkpt lat="42.7633231" lon="6.1523442"><ele>0.0</ele><time>2026-04-30T20:20:07.074Z</time></trkpt><trkpt lat="42.7633743" lon="6.1524337"><ele>0.0</ele><time>2026-04-30T20:20:08.074Z</time></trkpt><trkpt lat="42.7634261" lon="6.1525207"><ele>0.0</ele><time>2026-04-30T20:20:09.074Z</time></trkpt><trkpt lat="42.7635391" lon="6.1526885"><ele>0.0</ele><time>2026-04-30T20:20:11.074Z</time></trkpt><trkpt lat="42.7635929" lon="6.1527694"><ele>0.0</ele><time>2026-04-30T20:20:12.075Z</time></trkpt><trkpt lat="42.7636491" lon="6.1528495"><ele>0.0</ele><time>2026-04-30T20:20:13.074Z</time></trkpt><trkpt lat="42.7636972" lon="6.1529426"><ele>0.0</ele><time>2026-04-30T20:20:14.075Z</time></trkpt><trkpt lat="42.7637495" lon="6.1530307"><ele>0.0</ele><time>2026-04-30T20:20:15.074Z</time></trkpt><trkpt lat="42.7638001" lon="6.1531197"><ele>0.0</ele><time>2026-04-30T20:20:16.074Z</time></trkpt><trkpt lat="42.7638513" lon="6.1532074"><ele>0.0</ele><time>2026-04-30T20:20:17.074Z</time></trkpt><trkpt lat="42.7639027" lon="6.1532944"><ele>0.0</ele><time>2026-04-30T20:20:18.074Z</time></trkpt><trkpt lat="42.7639529" lon="6.1533854"><ele>0.0</ele><time>2026-04-30T20:20:19.074Z</time></trkpt><trkpt lat="42.7640032" lon="6.1534779"><ele>0.0</ele><time>2026-04-30T20:20:20.075Z</time></trkpt><trkpt lat="42.7641039" lon="6.1536607"><ele>0.0</ele><time>2026-04-30T20:20:22.074Z</time></trkpt><trkpt lat="42.7641564" lon="6.1537537"><ele>0.0</ele><time>2026-04-30T20:20:23.074Z</time></trkpt><trkpt lat="42.7642122" lon="6.1538424"><ele>0.0</ele><time>2026-04-30T20:20:24.074Z</time></trkpt><trkpt lat="42.7642692" lon="6.1539306"><ele>0.0</ele><time>2026-04-30T20:20:25.075Z</time></trkpt><trkpt lat="42.7643286" lon="6.1540173"><ele>0.0</ele><time>2026-04-30T20:20:26.074Z</time></trkpt><trkpt lat="42.7643832" lon="6.1541037"><ele>0.0</ele><time>2026-04-30T20:20:27.074Z</time></trkpt><trkpt lat="42.7644351" lon="6.154193"><ele>0.0</ele><time>2026-04-30T20:20:28.074Z</time></trkpt><trkpt lat="42.7644896" lon="6.1542816"><ele>0.0</ele><time>2026-04-30T20:20:29.075Z</time></trkpt><trkpt lat="42.7645465" lon="6.1543667"><ele>0.0</ele><time>2026-04-30T20:20:30.075Z</time></trkpt><trkpt lat="42.7645974" lon="6.1544561"><ele>0.0</ele><time>2026-04-30T20:20:31.075Z</time></trkpt><trkpt lat="42.7646458" lon="6.1545473"><ele>0.0</ele><time>2026-04-30T20:20:32.074Z</time></trkpt><trkpt lat="42.7646953" lon="6.1546409"><ele>0.0</ele><time>2026-04-30T20:20:33.075Z</time></trkpt><trkpt lat="42.7647454" lon="6.1547346"><ele>0.0</ele><time>2026-04-30T20:20:34.074Z</time></trkpt><trkpt lat="42.7647981" lon="6.1548239"><ele>0.0</ele><time>2026-04-30T20:20:35.074Z</time></trkpt><trkpt lat="42.7648529" lon="6.154909"><ele>0.0</ele><time>2026-04-30T20:20:36.074Z</time></trkpt><trkpt lat="42.7649035" lon="6.1549994"><ele>0.0</ele><time>2026-04-30T20:20:37.075Z</time></trkpt><trkpt lat="42.7649568" lon="6.1550909"><ele>0.0</ele><time>2026-04-30T20:20:38.075Z</time></trkpt><trkpt lat="42.7650116" lon="6.1551798"><ele>0.0</ele><time>2026-04-30T20:20:39.075Z</time></trkpt><trkpt lat="42.765065" lon="6.1552741"><ele>0.0</ele><time>2026-04-30T20:20:40.075Z</time></trkpt><trkpt lat="42.7651142" lon="6.1553716"><ele>0.0</ele><time>2026-04-30T20:20:41.074Z</time></trkpt><trkpt lat="42.7652717" lon="6.1556394"><ele>0.0</ele><time>2026-04-30T20:20:44.074Z</time></trkpt><trkpt lat="42.7653228" lon="6.1557271"><ele>0.0</ele><time>2026-04-30T20:20:45.075Z</time></trkpt><trkpt lat="42.7653776" lon="6.1558152"><ele>0.0</ele><time>2026-04-30T20:20:46.074Z</time></trkpt><trkpt lat="42.7654324" lon="6.1559041"><ele>0.0</ele><time>2026-04-30T20:20:47.074Z</time></trkpt><trkpt lat="42.7654861" lon="6.1559935"><ele>0.0</ele><time>2026-04-30T20:20:48.074Z</time></trkpt><trkpt lat="42.7655378" lon="6.1560836"><ele>0.0</ele><time>2026-04-30T20:20:49.075Z</time></trkpt><trkpt lat="42.7655912" lon="6.1561721"><ele>0.0</ele><time>2026-04-30T20:20:50.075Z</time></trkpt><trkpt lat="42.7656462" lon="6.1562643"><ele>0.0</ele><time>2026-04-30T20:20:51.075Z</time></trkpt><trkpt lat="42.7656984" lon="6.156358"><ele>0.0</ele><time>2026-04-30T20:20:52.074Z</time></trkpt><trkpt lat="42.7657427" lon="6.1564525"><ele>0.0</ele><time>2026-04-30T20:20:53.074Z</time></trkpt><trkpt lat="42.7657915" lon="6.1565421"><ele>0.0</ele><time>2026-04-30T20:20:54.074Z</time></trkpt><trkpt lat="42.7658446" lon="6.1566287"><ele>0.0</ele><time>2026-04-30T20:20:55.074Z</time></trkpt><trkpt lat="42.7658894" lon="6.1567239"><ele>0.0</ele><time>2026-04-30T20:20:56.074Z</time></trkpt><trkpt lat="42.7659397" lon="6.1568139"><ele>0.0</ele><time>2026-04-30T20:20:57.074Z</time></trkpt><trkpt lat="42.7659941" lon="6.1568991"><ele>0.0</ele><time>2026-04-30T20:20:58.075Z</time></trkpt><trkpt lat="42.766051" lon="6.1569836"><ele>0.0</ele><time>2026-04-30T20:20:59.074Z</time></trkpt><trkpt lat="42.7661089" lon="6.1570708"><ele>0.0</ele><time>2026-04-30T20:21:00.074Z</time></trkpt><trkpt lat="42.7661602" lon="6.1571583"><ele>0.0</ele><time>2026-04-30T20:21:01.074Z</time></trkpt><trkpt lat="42.7662145" lon="6.1572436"><ele>0.0</ele><time>2026-04-30T20:21:02.074Z</time></trkpt><trkpt lat="42.7662739" lon="6.1573285"><ele>0.0</ele><time>2026-04-30T20:21:03.075Z</time></trkpt><trkpt lat="42.7663884" lon="6.1575012"><ele>0.0</ele><time>2026-04-30T20:21:05.075Z</time></trkpt><trkpt lat="42.7664433" lon="6.1575881"><ele>0.0</ele><time>2026-04-30T20:21:06.075Z</time></trkpt><trkpt lat="42.7664972" lon="6.1576758"><ele>0.0</ele><time>2026-04-30T20:21:07.075Z</time></trkpt><trkpt lat="42.7665534" lon="6.1577598"><ele>0.0</ele><time>2026-04-30T20:21:08.075Z</time></trkpt><trkpt lat="42.7666044" lon="6.1578553"><ele>0.0</ele><time>2026-04-30T20:21:09.074Z</time></trkpt><trkpt lat="42.7666556" lon="6.1579513"><ele>0.0</ele><time>2026-04-30T20:21:10.074Z</time></trkpt><trkpt lat="42.7667086" lon="6.158048"><ele>0.0</ele><time>2026-04-30T20:21:11.075Z</time></trkpt><trkpt lat="42.766768" lon="6.1581446"><ele>0.0</ele><time>2026-04-30T20:21:12.074Z</time></trkpt><trkpt lat="42.7668794" lon="6.1583274"><ele>0.0</ele><time>2026-04-30T20:21:14.074Z</time></trkpt><trkpt lat="42.7669298" lon="6.1584161"><ele>0.0</ele><time>2026-04-30T20:21:15.074Z</time></trkpt><trkpt lat="42.7669842" lon="6.1585028"><ele>0.0</ele><time>2026-04-30T20:21:16.074Z</time></trkpt><trkpt lat="42.7670337" lon="6.1585922"><ele>0.0</ele><time>2026-04-30T20:21:17.074Z</time></trkpt><trkpt lat="42.7670817" lon="6.1586845"><ele>0.0</ele><time>2026-04-30T20:21:18.074Z</time></trkpt><trkpt lat="42.7671267" lon="6.1587765"><ele>0.0</ele><time>2026-04-30T20:21:19.074Z</time></trkpt><trkpt lat="42.7671724" lon="6.1588666"><ele>0.0</ele><time>2026-04-30T20:21:20.075Z</time></trkpt><trkpt lat="42.7672307" lon="6.1589536"><ele>0.0</ele><time>2026-04-30T20:21:21.075Z</time></trkpt><trkpt lat="42.7672835" lon="6.1590431"><ele>0.0</ele><time>2026-04-30T20:21:22.074Z</time></trkpt><trkpt lat="42.7673334" lon="6.1591306"><ele>0.0</ele><time>2026-04-30T20:21:23.074Z</time></trkpt><trkpt lat="42.7673847" lon="6.15922"><ele>0.0</ele><time>2026-04-30T20:21:24.074Z</time></trkpt><trkpt lat="42.7674821" lon="6.1593954"><ele>0.0</ele><time>2026-04-30T20:21:26.074Z</time></trkpt><trkpt lat="42.7675308" lon="6.1594835"><ele>0.0</ele><time>2026-04-30T20:21:27.075Z</time></trkpt><trkpt lat="42.7675834" lon="6.1595766"><ele>0.0</ele><time>2026-04-30T20:21:28.074Z</time></trkpt><trkpt lat="42.7676395" lon="6.1596656"><ele>0.0</ele><time>2026-04-30T20:21:29.075Z</time></trkpt><trkpt lat="42.7676901" lon="6.159755"><ele>0.0</ele><time>2026-04-30T20:21:30.075Z</time></trkpt><trkpt lat="42.7677372" lon="6.1598493"><ele>0.0</ele><time>2026-04-30T20:21:31.075Z</time></trkpt><trkpt lat="42.7677894" lon="6.1599419"><ele>0.0</ele><time>2026-04-30T20:21:32.075Z</time></trkpt><trkpt lat="42.7678477" lon="6.1600274"><ele>0.0</ele><time>2026-04-30T20:21:33.074Z</time></trkpt><trkpt lat="42.7679035" lon="6.1601148"><ele>0.0</ele><time>2026-04-30T20:21:34.074Z</time></trkpt><trkpt lat="42.7679576" lon="6.1601974"><ele>0.0</ele><time>2026-04-30T20:21:35.074Z</time></trkpt><trkpt lat="42.7680062" lon="6.1602826"><ele>0.0</ele><time>2026-04-30T20:21:36.075Z</time></trkpt><trkpt lat="42.7680529" lon="6.1603656"><ele>0.0</ele><time>2026-04-30T20:21:37.074Z</time></trkpt><trkpt lat="42.7680962" lon="6.1604519"><ele>0.0</ele><time>2026-04-30T20:21:38.075Z</time></trkpt><trkpt lat="42.7681465" lon="6.1605358"><ele>0.0</ele><time>2026-04-30T20:21:39.074Z</time></trkpt><trkpt lat="42.7681965" lon="6.1606235"><ele>0.0</ele><time>2026-04-30T20:21:40.074Z</time></trkpt><trkpt lat="42.7682494" lon="6.1607095"><ele>0.0</ele><time>2026-04-30T20:21:41.075Z</time></trkpt><trkpt lat="42.7683001" lon="6.1607951"><ele>0.0</ele><time>2026-04-30T20:21:42.075Z</time></trkpt><trkpt lat="42.768356" lon="6.1608748"><ele>0.0</ele><time>2026-04-30T20:21:43.074Z</time></trkpt><trkpt lat="42.7684123" lon="6.1609643"><ele>0.0</ele><time>2026-04-30T20:21:44.074Z</time></trkpt><trkpt lat="42.7684665" lon="6.1610505"><ele>0.0</ele><time>2026-04-30T20:21:45.075Z</time></trkpt><trkpt lat="42.7686332" lon="6.1613232"><ele>0.0</ele><time>2026-04-30T20:21:48.075Z</time></trkpt><trkpt lat="42.7686793" lon="6.1614171"><ele>0.0</ele><time>2026-04-30T20:21:49.075Z</time></trkpt><trkpt lat="42.7687224" lon="6.1615112"><ele>0.0</ele><time>2026-04-30T20:21:50.075Z</time></trkpt><trkpt lat="42.7687628" lon="6.1616088"><ele>0.0</ele><time>2026-04-30T20:21:51.074Z</time></trkpt><trkpt lat="42.7688065" lon="6.1617073"><ele>0.0</ele><time>2026-04-30T20:21:52.074Z</time></trkpt><trkpt lat="42.7688546" lon="6.1618034"><ele>0.0</ele><time>2026-04-30T20:21:53.074Z</time></trkpt><trkpt lat="42.7689031" lon="6.1619012"><ele>0.0</ele><time>2026-04-30T20:21:54.075Z</time></trkpt><trkpt lat="42.7689556" lon="6.1619922"><ele>0.0</ele><time>2026-04-30T20:21:55.075Z</time></trkpt><trkpt lat="42.7690075" lon="6.1620876"><ele>0.0</ele><time>2026-04-30T20:21:56.074Z</time></trkpt><trkpt lat="42.7690601" lon="6.1621838"><ele>0.0</ele><time>2026-04-30T20:21:57.074Z</time></trkpt><trkpt lat="42.7691134" lon="6.1622776"><ele>0.0</ele><time>2026-04-30T20:21:58.075Z</time></trkpt><trkpt lat="42.7691639" lon="6.1623726"><ele>0.0</ele><time>2026-04-30T20:21:59.075Z</time></trkpt><trkpt lat="42.7692153" lon="6.162465"><ele>0.0</ele><time>2026-04-30T20:22:00.075Z</time></trkpt><trkpt lat="42.7692653" lon="6.1625555"><ele>0.0</ele><time>2026-04-30T20:22:01.075Z</time></trkpt><trkpt lat="42.769318" lon="6.1626435"><ele>0.0</ele><time>2026-04-30T20:22:02.074Z</time></trkpt><trkpt lat="42.7693711" lon="6.1627334"><ele>0.0</ele><time>2026-04-30T20:22:03.074Z</time></trkpt><trkpt lat="42.7694244" lon="6.1628238"><ele>0.0</ele><time>2026-04-30T20:22:04.074Z</time></trkpt><trkpt lat="42.7694784" lon="6.1629124"><ele>0.0</ele><time>2026-04-30T20:22:05.074Z</time></trkpt><trkpt lat="42.7695334" lon="6.1629957"><ele>0.0</ele><time>2026-04-30T20:22:06.075Z</time></trkpt><trkpt lat="42.7695829" lon="6.163083"><ele>0.0</ele><time>2026-04-30T20:22:07.075Z</time></trkpt><trkpt lat="42.769685" lon="6.1632677"><ele>0.0</ele><time>2026-04-30T20:22:09.074Z</time></trkpt><trkpt lat="42.7697422" lon="6.1633585"><ele>0.0</ele><time>2026-04-30T20:22:10.075Z</time></trkpt><trkpt lat="42.7697947" lon="6.1634496"><ele>0.0</ele><time>2026-04-30T20:22:11.075Z</time></trkpt><trkpt lat="42.769844" lon="6.163538"><ele>0.0</ele><time>2026-04-30T20:22:12.074Z</time></trkpt><trkpt lat="42.7698962" lon="6.1636184"><ele>0.0</ele><time>2026-04-30T20:22:13.075Z</time></trkpt><trkpt lat="42.7699431" lon="6.1636997"><ele>0.0</ele><time>2026-04-30T20:22:14.075Z</time></trkpt><trkpt lat="42.7699928" lon="6.1637826"><ele>0.0</ele><time>2026-04-30T20:22:15.074Z</time></trkpt><trkpt lat="42.7700489" lon="6.1638723"><ele>0.0</ele><time>2026-04-30T20:22:16.074Z</time></trkpt><trkpt lat="42.7700986" lon="6.1639617"><ele>0.0</ele><time>2026-04-30T20:22:17.075Z</time></trkpt><trkpt lat="42.7701938" lon="6.1641431"><ele>0.0</ele><time>2026-04-30T20:22:19.074Z</time></trkpt><trkpt lat="42.7702416" lon="6.1642368"><ele>0.0</ele><time>2026-04-30T20:22:20.075Z</time></trkpt><trkpt lat="42.7702876" lon="6.1643327"><ele>0.0</ele><time>2026-04-30T20:22:21.075Z</time></trkpt><trkpt lat="42.7703339" lon="6.1644326"><ele>0.0</ele><time>2026-04-30T20:22:22.074Z</time></trkpt><trkpt lat="42.7703758" lon="6.1645319"><ele>0.0</ele><time>2026-04-30T20:22:23.075Z</time></trkpt><trkpt lat="42.770417" lon="6.1646285"><ele>0.0</ele><time>2026-04-30T20:22:24.074Z</time></trkpt><trkpt lat="42.77046" lon="6.164719"><ele>0.0</ele><time>2026-04-30T20:22:25.074Z</time></trkpt><trkpt lat="42.7705071" lon="6.1648065"><ele>0.0</ele><time>2026-04-30T20:22:26.074Z</time></trkpt><trkpt lat="42.770561" lon="6.1648887"><ele>0.0</ele><time>2026-04-30T20:22:27.074Z</time></trkpt><trkpt lat="42.770612" lon="6.1649802"><ele>0.0</ele><time>2026-04-30T20:22:28.074Z</time></trkpt><trkpt lat="42.7707167" lon="6.1651601"><ele>0.0</ele><time>2026-04-30T20:22:30.075Z</time></trkpt><trkpt lat="42.7707716" lon="6.165248"><ele>0.0</ele><time>2026-04-30T20:22:31.075Z</time></trkpt><trkpt lat="42.7708198" lon="6.1653395"><ele>0.0</ele><time>2026-04-30T20:22:32.075Z</time></trkpt><trkpt lat="42.7708672" lon="6.1654299"><ele>0.0</ele><time>2026-04-30T20:22:33.075Z</time></trkpt><trkpt lat="42.7709155" lon="6.1655198"><ele>0.0</ele><time>2026-04-30T20:22:34.075Z</time></trkpt><trkpt lat="42.7709682" lon="6.1656068"><ele>0.0</ele><time>2026-04-30T20:22:35.074Z</time></trkpt><trkpt lat="42.7710199" lon="6.1656979"><ele>0.0</ele><time>2026-04-30T20:22:36.075Z</time></trkpt><trkpt lat="42.7710717" lon="6.1657883"><ele>0.0</ele><time>2026-04-30T20:22:37.075Z</time></trkpt><trkpt lat="42.7711146" lon="6.1658785"><ele>0.0</ele><time>2026-04-30T20:22:38.074Z</time></trkpt><trkpt lat="42.7711671" lon="6.1659711"><ele>0.0</ele><time>2026-04-30T20:22:39.075Z</time></trkpt><trkpt lat="42.7712406" lon="6.1660522"><ele>0.0</ele><time>2026-04-30T20:22:40.074Z</time></trkpt><trkpt lat="42.7713057" lon="6.1661327"><ele>0.0</ele><time>2026-04-30T20:22:41.075Z</time></trkpt><trkpt lat="42.7713667" lon="6.1662065"><ele>0.0</ele><time>2026-04-30T20:22:42.075Z</time></trkpt><trkpt lat="42.771427" lon="6.1662933"><ele>0.0</ele><time>2026-04-30T20:22:43.074Z</time></trkpt><trkpt lat="42.7714762" lon="6.1663815"><ele>0.0</ele><time>2026-04-30T20:22:44.074Z</time></trkpt><trkpt lat="42.7715327" lon="6.16647"><ele>0.0</ele><time>2026-04-30T20:22:45.075Z</time></trkpt><trkpt lat="42.7715811" lon="6.166565"><ele>0.0</ele><time>2026-04-30T20:22:46.074Z</time></trkpt><trkpt lat="42.7716209" lon="6.1666617"><ele>0.0</ele><time>2026-04-30T20:22:47.074Z</time></trkpt><trkpt lat="42.7716607" lon="6.1667587"><ele>0.0</ele><time>2026-04-30T20:22:48.074Z</time></trkpt><trkpt lat="42.7716983" lon="6.1668558"><ele>0.0</ele><time>2026-04-30T20:22:49.075Z</time></trkpt><trkpt lat="42.7718527" lon="6.1671216"><ele>0.0</ele><time>2026-04-30T20:22:52.075Z</time></trkpt><trkpt lat="42.7719152" lon="6.1672014"><ele>0.0</ele><time>2026-04-30T20:22:53.075Z</time></trkpt><trkpt lat="42.7719587" lon="6.1673039"><ele>0.0</ele><time>2026-04-30T20:22:54.075Z</time></trkpt><trkpt lat="42.7720013" lon="6.1674079"><ele>0.0</ele><time>2026-04-30T20:22:55.074Z</time></trkpt><trkpt lat="42.7720502" lon="6.167497"><ele>0.0</ele><time>2026-04-30T20:22:56.074Z</time></trkpt><trkpt lat="42.7720942" lon="6.1675917"><ele>0.0</ele><time>2026-04-30T20:22:57.074Z</time></trkpt><trkpt lat="42.7721485" lon="6.1676763"><ele>0.0</ele><time>2026-04-30T20:22:58.075Z</time></trkpt><trkpt lat="42.772194" lon="6.1677708"><ele>0.0</ele><time>2026-04-30T20:22:59.074Z</time></trkpt><trkpt lat="42.7722516" lon="6.1678535"><ele>0.0</ele><time>2026-04-30T20:23:00.074Z</time></trkpt><trkpt lat="42.772314" lon="6.1679325"><ele>0.0</ele><time>2026-04-30T20:23:01.074Z</time></trkpt><trkpt lat="42.7723665" lon="6.1680222"><ele>0.0</ele><time>2026-04-30T20:23:02.075Z</time></trkpt><trkpt lat="42.7724147" lon="6.168117"><ele>0.0</ele><time>2026-04-30T20:23:03.074Z</time></trkpt><trkpt lat="42.7724607" lon="6.1682123"><ele>0.0</ele><time>2026-04-30T20:23:04.075Z</time></trkpt><trkpt lat="42.7725133" lon="6.1683035"><ele>0.0</ele><time>2026-04-30T20:23:05.074Z</time></trkpt><trkpt lat="42.772562" lon="6.1683948"><ele>0.0</ele><time>2026-04-30T20:23:06.074Z</time></trkpt><trkpt lat="42.7726064" lon="6.1684918"><ele>0.0</ele><time>2026-04-30T20:23:07.074Z</time></trkpt><trkpt lat="42.7726483" lon="6.1685932"><ele>0.0</ele><time>2026-04-30T20:23:08.074Z</time></trkpt><trkpt lat="42.7726857" lon="6.1686892"><ele>0.0</ele><time>2026-04-30T20:23:09.074Z</time></trkpt><trkpt lat="42.7727279" lon="6.1687811"><ele>0.0</ele><time>2026-04-30T20:23:10.074Z</time></trkpt><trkpt lat="42.7727771" lon="6.1688729"><ele>0.0</ele><time>2026-04-30T20:23:11.075Z</time></trkpt><trkpt lat="42.7728831" lon="6.1690549"><ele>0.0</ele><time>2026-04-30T20:23:13.075Z</time></trkpt><trkpt lat="42.7729281" lon="6.1691608"><ele>0.0</ele><time>2026-04-30T20:23:14.074Z</time></trkpt><trkpt lat="42.7729696" lon="6.1692592"><ele>0.0</ele><time>2026-04-30T20:23:15.074Z</time></trkpt><trkpt lat="42.7730164" lon="6.1693499"><ele>0.0</ele><time>2026-04-30T20:23:16.074Z</time></trkpt><trkpt lat="42.7730676" lon="6.169439"><ele>0.0</ele><time>2026-04-30T20:23:17.074Z</time></trkpt><trkpt lat="42.7731118" lon="6.1695346"><ele>0.0</ele><time>2026-04-30T20:23:18.074Z</time></trkpt><trkpt lat="42.7731657" lon="6.1696184"><ele>0.0</ele><time>2026-04-30T20:23:19.075Z</time></trkpt><trkpt lat="42.7732182" lon="6.1697091"><ele>0.0</ele><time>2026-04-30T20:23:20.074Z</time></trkpt><trkpt lat="42.7732714" lon="6.1698012"><ele>0.0</ele><time>2026-04-30T20:23:21.074Z</time></trkpt><trkpt lat="42.7733751" lon="6.1699811"><ele>0.0</ele><time>2026-04-30T20:23:23.074Z</time></trkpt><trkpt lat="42.7734232" lon="6.1700743"><ele>0.0</ele><time>2026-04-30T20:23:24.074Z</time></trkpt><trkpt lat="42.7734733" lon="6.1701707"><ele>0.0</ele><time>2026-04-30T20:23:25.075Z</time></trkpt><trkpt lat="42.7735201" lon="6.1702651"><ele>0.0</ele><time>2026-04-30T20:23:26.074Z</time></trkpt><trkpt lat="42.7735629" lon="6.1703653"><ele>0.0</ele><time>2026-04-30T20:23:27.075Z</time></trkpt><trkpt lat="42.7736072" lon="6.1704633"><ele>0.0</ele><time>2026-04-30T20:23:28.074Z</time></trkpt><trkpt lat="42.7736553" lon="6.1705548"><ele>0.0</ele><time>2026-04-30T20:23:29.075Z</time></trkpt><trkpt lat="42.7737038" lon="6.1706448"><ele>0.0</ele><time>2026-04-30T20:23:30.075Z</time></trkpt><trkpt lat="42.773755" lon="6.1707362"><ele>0.0</ele><time>2026-04-30T20:23:31.075Z</time></trkpt><trkpt lat="42.7738069" lon="6.1708297"><ele>0.0</ele><time>2026-04-30T20:23:32.074Z</time></trkpt><trkpt lat="42.7739095" lon="6.1710141"><ele>0.0</ele><time>2026-04-30T20:23:34.075Z</time></trkpt><trkpt lat="42.77396" lon="6.171114"><ele>0.0</ele><time>2026-04-30T20:23:35.074Z</time></trkpt><trkpt lat="42.7740053" lon="6.1712041"><ele>0.0</ele><time>2026-04-30T20:23:36.075Z</time></trkpt><trkpt lat="42.7740515" lon="6.1712979"><ele>0.0</ele><time>2026-04-30T20:23:37.074Z</time></trkpt><trkpt lat="42.7741" lon="6.171393"><ele>0.0</ele><time>2026-04-30T20:23:38.074Z</time></trkpt><trkpt lat="42.7741488" lon="6.1714819"><ele>0.0</ele><time>2026-04-30T20:23:39.075Z</time></trkpt><trkpt lat="42.7741969" lon="6.1715682"><ele>0.0</ele><time>2026-04-30T20:23:40.074Z</time></trkpt><trkpt lat="42.7742485" lon="6.1716548"><ele>0.0</ele><time>2026-04-30T20:23:41.075Z</time></trkpt><trkpt lat="42.7742971" lon="6.1717424"><ele>0.0</ele><time>2026-04-30T20:23:42.075Z</time></trkpt><trkpt lat="42.7743409" lon="6.1718312"><ele>0.0</ele><time>2026-04-30T20:23:43.074Z</time></trkpt><trkpt lat="42.7743868" lon="6.1719249"><ele>0.0</ele><time>2026-04-30T20:23:44.074Z</time></trkpt><trkpt lat="42.7744323" lon="6.1720173"><ele>0.0</ele><time>2026-04-30T20:23:45.075Z</time></trkpt><trkpt lat="42.7744784" lon="6.1721101"><ele>0.0</ele><time>2026-04-30T20:23:46.074Z</time></trkpt><trkpt lat="42.7745285" lon="6.1722032"><ele>0.0</ele><time>2026-04-30T20:23:47.075Z</time></trkpt><trkpt lat="42.7745771" lon="6.1722951"><ele>0.0</ele><time>2026-04-30T20:23:48.075Z</time></trkpt><trkpt lat="42.7746236" lon="6.1723921"><ele>0.0</ele><time>2026-04-30T20:23:49.074Z</time></trkpt><trkpt lat="42.7746746" lon="6.1724838"><ele>0.0</ele><time>2026-04-30T20:23:50.075Z</time></trkpt><trkpt lat="42.7747218" lon="6.1725734"><ele>0.0</ele><time>2026-04-30T20:23:51.075Z</time></trkpt><trkpt lat="42.774767" lon="6.1726664"><ele>0.0</ele><time>2026-04-30T20:23:52.074Z</time></trkpt><trkpt lat="42.7748087" lon="6.1727573"><ele>0.0</ele><time>2026-04-30T20:23:53.074Z</time></trkpt><trkpt lat="42.7748534" lon="6.1728437"><ele>0.0</ele><time>2026-04-30T20:23:54.075Z</time></trkpt><trkpt lat="42.7749982" lon="6.1731165"><ele>0.0</ele><time>2026-04-30T20:23:57.074Z</time></trkpt><trkpt lat="42.775051" lon="6.1732089"><ele>0.0</ele><time>2026-04-30T20:23:58.074Z</time></trkpt><trkpt lat="42.7751014" lon="6.1733014"><ele>0.0</ele><time>2026-04-30T20:23:59.074Z</time></trkpt><trkpt lat="42.7751543" lon="6.1733944"><ele>0.0</ele><time>2026-04-30T20:24:00.074Z</time></trkpt><trkpt lat="42.7752047" lon="6.1734907"><ele>0.0</ele><time>2026-04-30T20:24:01.075Z</time></trkpt><trkpt lat="42.7752533" lon="6.1735817"><ele>0.0</ele><time>2026-04-30T20:24:02.074Z</time></trkpt><trkpt lat="42.7753015" lon="6.1736761"><ele>0.0</ele><time>2026-04-30T20:24:03.075Z</time></trkpt><trkpt lat="42.7753443" lon="6.1737761"><ele>0.0</ele><time>2026-04-30T20:24:04.074Z</time></trkpt><trkpt lat="42.7753902" lon="6.1738715"><ele>0.0</ele><time>2026-04-30T20:24:05.074Z</time></trkpt><trkpt lat="42.7754417" lon="6.1739644"><ele>0.0</ele><time>2026-04-30T20:24:06.074Z</time></trkpt><trkpt lat="42.7754967" lon="6.1740563"><ele>0.0</ele><time>2026-04-30T20:24:07.075Z</time></trkpt><trkpt lat="42.7755501" lon="6.1741486"><ele>0.0</ele><time>2026-04-30T20:24:08.075Z</time></trkpt><trkpt lat="42.7756036" lon="6.1742336"><ele>0.0</ele><time>2026-04-30T20:24:09.074Z</time></trkpt><trkpt lat="42.7756586" lon="6.1743199"><ele>0.0</ele><time>2026-04-30T20:24:10.075Z</time></trkpt><trkpt lat="42.7757104" lon="6.1744115"><ele>0.0</ele><time>2026-04-30T20:24:11.074Z</time></trkpt><trkpt lat="42.7757591" lon="6.1744979"><ele>0.0</ele><time>2026-04-30T20:24:12.075Z</time></trkpt><trkpt lat="42.7758069" lon="6.1745898"><ele>0.0</ele><time>2026-04-30T20:24:13.074Z</time></trkpt><trkpt lat="42.7758566" lon="6.1746845"><ele>0.0</ele><time>2026-04-30T20:24:14.074Z</time></trkpt><trkpt lat="42.7759042" lon="6.1747751"><ele>0.0</ele><time>2026-04-30T20:24:15.075Z</time></trkpt><trkpt lat="42.7759521" lon="6.1748618"><ele>0.0</ele><time>2026-04-30T20:24:16.075Z</time></trkpt><trkpt lat="42.7760519" lon="6.1750444"><ele>0.0</ele><time>2026-04-30T20:24:18.075Z</time></trkpt><trkpt lat="42.7761021" lon="6.1751343"><ele>0.0</ele><time>2026-04-30T20:24:19.074Z</time></trkpt><trkpt lat="42.7761502" lon="6.1752298"><ele>0.0</ele><time>2026-04-30T20:24:20.075Z</time></trkpt><trkpt lat="42.776194" lon="6.1753246"><ele>0.0</ele><time>2026-04-30T20:24:21.075Z</time></trkpt><trkpt lat="42.7762372" lon="6.1754206"><ele>0.0</ele><time>2026-04-30T20:24:22.074Z</time></trkpt><trkpt lat="42.7762845" lon="6.1755105"><ele>0.0</ele><time>2026-04-30T20:24:23.074Z</time></trkpt><trkpt lat="42.7763331" lon="6.1756032"><ele>0.0</ele><time>2026-04-30T20:24:24.074Z</time></trkpt><trkpt lat="42.7763819" lon="6.1756948"><ele>0.0</ele><time>2026-04-30T20:24:25.074Z</time></trkpt><trkpt lat="42.7764334" lon="6.1757875"><ele>0.0</ele><time>2026-04-30T20:24:26.075Z</time></trkpt><trkpt lat="42.7765336" lon="6.1759682"><ele>0.0</ele><time>2026-04-30T20:24:28.074Z</time></trkpt><trkpt lat="42.7765834" lon="6.1760579"><ele>0.0</ele><time>2026-04-30T20:24:29.074Z</time></trkpt><trkpt lat="42.776632" lon="6.1761497"><ele>0.0</ele><time>2026-04-30T20:24:30.074Z</time></trkpt><trkpt lat="42.7766846" lon="6.1762397"><ele>0.0</ele><time>2026-04-30T20:24:31.074Z</time></trkpt><trkpt lat="42.7767337" lon="6.1763285"><ele>0.0</ele><time>2026-04-30T20:24:32.075Z</time></trkpt><trkpt lat="42.7767847" lon="6.1764192"><ele>0.0</ele><time>2026-04-30T20:24:33.075Z</time></trkpt><trkpt lat="42.776835" lon="6.17651"><ele>0.0</ele><time>2026-04-30T20:24:34.074Z</time></trkpt><trkpt lat="42.7768852" lon="6.1766028"><ele>0.0</ele><time>2026-04-30T20:24:35.075Z</time></trkpt><trkpt lat="42.7769338" lon="6.1766979"><ele>0.0</ele><time>2026-04-30T20:24:36.074Z</time></trkpt><trkpt lat="42.7769818" lon="6.1767946"><ele>0.0</ele><time>2026-04-30T20:24:37.075Z</time></trkpt><trkpt lat="42.7770747" lon="6.1769924"><ele>0.0</ele><time>2026-04-30T20:24:39.075Z</time></trkpt><trkpt lat="42.7771231" lon="6.1770925"><ele>0.0</ele><time>2026-04-30T20:24:40.074Z</time></trkpt><trkpt lat="42.7771718" lon="6.1771911"><ele>0.0</ele><time>2026-04-30T20:24:41.074Z</time></trkpt><trkpt lat="42.7772217" lon="6.1772877"><ele>0.0</ele><time>2026-04-30T20:24:42.074Z</time></trkpt><trkpt lat="42.7772734" lon="6.1773814"><ele>0.0</ele><time>2026-04-30T20:24:43.074Z</time></trkpt><trkpt lat="42.7773234" lon="6.177476"><ele>0.0</ele><time>2026-04-30T20:24:44.074Z</time></trkpt><trkpt lat="42.7773732" lon="6.1775725"><ele>0.0</ele><time>2026-04-30T20:24:45.074Z</time></trkpt><trkpt lat="42.7774248" lon="6.1776648"><ele>0.0</ele><time>2026-04-30T20:24:46.074Z</time></trkpt><trkpt lat="42.7774776" lon="6.1777595"><ele>0.0</ele><time>2026-04-30T20:24:47.074Z</time></trkpt><trkpt lat="42.7775355" lon="6.1778498"><ele>0.0</ele><time>2026-04-30T20:24:48.073Z</time></trkpt><trkpt lat="42.7775994" lon="6.1779314"><ele>0.0</ele><time>2026-04-30T20:24:49.073Z</time></trkpt><trkpt lat="42.7776544" lon="6.1780197"><ele>0.0</ele><time>2026-04-30T20:24:50.074Z</time></trkpt><trkpt lat="42.7776967" lon="6.1781231"><ele>0.0</ele><time>2026-04-30T20:24:51.073Z</time></trkpt><trkpt lat="42.7777468" lon="6.1782191"><ele>0.0</ele><time>2026-04-30T20:24:52.074Z</time></trkpt><trkpt lat="42.7777967" lon="6.1783094"><ele>0.0</ele><time>2026-04-30T20:24:53.073Z</time></trkpt><trkpt lat="42.7778457" lon="6.1783956"><ele>0.0</ele><time>2026-04-30T20:24:54.074Z</time></trkpt><trkpt lat="42.7778937" lon="6.1784879"><ele>0.0</ele><time>2026-04-30T20:24:55.074Z</time></trkpt><trkpt lat="42.7779389" lon="6.1785794"><ele>0.0</ele><time>2026-04-30T20:24:56.073Z</time></trkpt><trkpt lat="42.7779776" lon="6.1786654"><ele>0.0</ele><time>2026-04-30T20:24:57.074Z</time></trkpt><trkpt lat="42.7780206" lon="6.178749"><ele>0.0</ele><time>2026-04-30T20:24:58.074Z</time></trkpt><trkpt lat="42.7780652" lon="6.1788401"><ele>0.0</ele><time>2026-04-30T20:24:59.073Z</time></trkpt><trkpt lat="42.7782195" lon="6.1791158"><ele>0.0</ele><time>2026-04-30T20:25:02.074Z</time></trkpt><trkpt lat="42.7782819" lon="6.1792046"><ele>0.0</ele><time>2026-04-30T20:25:03.073Z</time></trkpt><trkpt lat="42.778335" lon="6.1792905"><ele>0.0</ele><time>2026-04-30T20:25:04.073Z</time></trkpt><trkpt lat="42.7783838" lon="6.1793848"><ele>0.0</ele><time>2026-04-30T20:25:05.073Z</time></trkpt><trkpt lat="42.7784286" lon="6.1794754"><ele>0.0</ele><time>2026-04-30T20:25:06.073Z</time></trkpt><trkpt lat="42.7784768" lon="6.1795711"><ele>0.0</ele><time>2026-04-30T20:25:07.074Z</time></trkpt><trkpt lat="42.7785231" lon="6.1796698"><ele>0.0</ele><time>2026-04-30T20:25:08.073Z</time></trkpt><trkpt lat="42.7785799" lon="6.1797554"><ele>0.0</ele><time>2026-04-30T20:25:09.074Z</time></trkpt><trkpt lat="42.7786316" lon="6.1798407"><ele>0.0</ele><time>2026-04-30T20:25:10.073Z</time></trkpt><trkpt lat="42.7786819" lon="6.1799286"><ele>0.0</ele><time>2026-04-30T20:25:11.074Z</time></trkpt><trkpt lat="42.7787305" lon="6.1800187"><ele>0.0</ele><time>2026-04-30T20:25:12.073Z</time></trkpt><trkpt lat="42.7787803" lon="6.1801102"><ele>0.0</ele><time>2026-04-30T20:25:13.073Z</time></trkpt><trkpt lat="42.7788271" lon="6.180205"><ele>0.0</ele><time>2026-04-30T20:25:14.074Z</time></trkpt><trkpt lat="42.7788767" lon="6.1802998"><ele>0.0</ele><time>2026-04-30T20:25:15.074Z</time></trkpt><trkpt lat="42.7789238" lon="6.1803951"><ele>0.0</ele><time>2026-04-30T20:25:16.073Z</time></trkpt><trkpt lat="42.7789689" lon="6.1804838"><ele>0.0</ele><time>2026-04-30T20:25:17.073Z</time></trkpt><trkpt lat="42.7790165" lon="6.1805772"><ele>0.0</ele><time>2026-04-30T20:25:18.073Z</time></trkpt><trkpt lat="42.7790653" lon="6.1806712"><ele>0.0</ele><time>2026-04-30T20:25:19.073Z</time></trkpt><trkpt lat="42.7791153" lon="6.180765"><ele>0.0</ele><time>2026-04-30T20:25:20.074Z</time></trkpt><trkpt lat="42.7791606" lon="6.1808614"><ele>0.0</ele><time>2026-04-30T20:25:21.074Z</time></trkpt><trkpt lat="42.7792515" lon="6.1810483"><ele>0.0</ele><time>2026-04-30T20:25:23.073Z</time></trkpt><trkpt lat="42.7792973" lon="6.1811438"><ele>0.0</ele><time>2026-04-30T20:25:24.074Z</time></trkpt><trkpt lat="42.7793451" lon="6.1812339"><ele>0.0</ele><time>2026-04-30T20:25:25.074Z</time></trkpt><trkpt lat="42.7793928" lon="6.1813231"><ele>0.0</ele><time>2026-04-30T20:25:26.073Z</time></trkpt><trkpt lat="42.7794417" lon="6.1814116"><ele>0.0</ele><time>2026-04-30T20:25:27.073Z</time></trkpt><trkpt lat="42.7794885" lon="6.1815012"><ele>0.0</ele><time>2026-04-30T20:25:28.073Z</time></trkpt><trkpt lat="42.7795387" lon="6.1815931"><ele>0.0</ele><time>2026-04-30T20:25:29.073Z</time></trkpt><trkpt lat="42.7795928" lon="6.181679"><ele>0.0</ele><time>2026-04-30T20:25:30.074Z</time></trkpt><trkpt lat="42.7796449" lon="6.1817637"><ele>0.0</ele><time>2026-04-30T20:25:31.074Z</time></trkpt><trkpt lat="42.7797441" lon="6.1819431"><ele>0.0</ele><time>2026-04-30T20:25:33.074Z</time></trkpt><trkpt lat="42.7797964" lon="6.1820302"><ele>0.0</ele><time>2026-04-30T20:25:34.074Z</time></trkpt><trkpt lat="42.7798427" lon="6.18212"><ele>0.0</ele><time>2026-04-30T20:25:35.074Z</time></trkpt><trkpt lat="42.7798888" lon="6.1822083"><ele>0.0</ele><time>2026-04-30T20:25:36.073Z</time></trkpt><trkpt lat="42.7799342" lon="6.1823013"><ele>0.0</ele><time>2026-04-30T20:25:37.073Z</time></trkpt><trkpt lat="42.7799818" lon="6.1823893"><ele>0.0</ele><time>2026-04-30T20:25:38.074Z</time></trkpt><trkpt lat="42.7800354" lon="6.1824733"><ele>0.0</ele><time>2026-04-30T20:25:39.074Z</time></trkpt><trkpt lat="42.7800889" lon="6.1825576"><ele>0.0</ele><time>2026-04-30T20:25:40.073Z</time></trkpt><trkpt lat="42.7801454" lon="6.1826458"><ele>0.0</ele><time>2026-04-30T20:25:41.074Z</time></trkpt><trkpt lat="42.7801951" lon="6.1827339"><ele>0.0</ele><time>2026-04-30T20:25:42.073Z</time></trkpt><trkpt lat="42.7803007" lon="6.1829049"><ele>0.0</ele><time>2026-04-30T20:25:44.073Z</time></trkpt><trkpt lat="42.7803483" lon="6.1829845"><ele>0.0</ele><time>2026-04-30T20:25:45.074Z</time></trkpt><trkpt lat="42.7804028" lon="6.1830744"><ele>0.0</ele><time>2026-04-30T20:25:46.074Z</time></trkpt><trkpt lat="42.7804599" lon="6.1831658"><ele>0.0</ele><time>2026-04-30T20:25:47.073Z</time></trkpt><trkpt lat="42.7805109" lon="6.1832509"><ele>0.0</ele><time>2026-04-30T20:25:48.073Z</time></trkpt><trkpt lat="42.7805579" lon="6.183344"><ele>0.0</ele><time>2026-04-30T20:25:49.074Z</time></trkpt><trkpt lat="42.7806073" lon="6.1834393"><ele>0.0</ele><time>2026-04-30T20:25:50.074Z</time></trkpt><trkpt lat="42.7806522" lon="6.1835359"><ele>0.0</ele><time>2026-04-30T20:25:51.073Z</time></trkpt><trkpt lat="42.780698" lon="6.183634"><ele>0.0</ele><time>2026-04-30T20:25:52.073Z</time></trkpt><trkpt lat="42.7807434" lon="6.1837257"><ele>0.0</ele><time>2026-04-30T20:25:53.073Z</time></trkpt><trkpt lat="42.780797" lon="6.1838109"><ele>0.0</ele><time>2026-04-30T20:25:54.073Z</time></trkpt><trkpt lat="42.7808494" lon="6.1839048"><ele>0.0</ele><time>2026-04-30T20:25:55.073Z</time></trkpt><trkpt lat="42.7808972" lon="6.1839984"><ele>0.0</ele><time>2026-04-30T20:25:56.074Z</time></trkpt><trkpt lat="42.7809477" lon="6.1840957"><ele>0.0</ele><time>2026-04-30T20:25:57.074Z</time></trkpt><trkpt lat="42.7810008" lon="6.1841857"><ele>0.0</ele><time>2026-04-30T20:25:58.074Z</time></trkpt><trkpt lat="42.7810516" lon="6.1842766"><ele>0.0</ele><time>2026-04-30T20:25:59.073Z</time></trkpt><trkpt lat="42.7811032" lon="6.1843708"><ele>0.0</ele><time>2026-04-30T20:26:00.073Z</time></trkpt><trkpt lat="42.7811491" lon="6.1844693"><ele>0.0</ele><time>2026-04-30T20:26:01.073Z</time></trkpt><trkpt lat="42.7811994" lon="6.1845612"><ele>0.0</ele><time>2026-04-30T20:26:02.074Z</time></trkpt><trkpt lat="42.7812454" lon="6.1846535"><ele>0.0</ele><time>2026-04-30T20:26:03.074Z</time></trkpt><trkpt lat="42.7812887" lon="6.1847455"><ele>0.0</ele><time>2026-04-30T20:26:04.074Z</time></trkpt><trkpt lat="42.7813801" lon="6.1849296"><ele>0.0</ele><time>2026-04-30T20:26:06.073Z</time></trkpt><trkpt lat="42.7814254" lon="6.1850204"><ele>0.0</ele><time>2026-04-30T20:26:07.074Z</time></trkpt><trkpt lat="42.7814674" lon="6.1851132"><ele>0.0</ele><time>2026-04-30T20:26:08.074Z</time></trkpt><trkpt lat="42.7815098" lon="6.1852068"><ele>0.0</ele><time>2026-04-30T20:26:09.074Z</time></trkpt><trkpt lat="42.7815529" lon="6.1853019"><ele>0.0</ele><time>2026-04-30T20:26:10.073Z</time></trkpt><trkpt lat="42.7815969" lon="6.185391"><ele>0.0</ele><time>2026-04-30T20:26:11.074Z</time></trkpt><trkpt lat="42.7816414" lon="6.1854821"><ele>0.0</ele><time>2026-04-30T20:26:12.073Z</time></trkpt><trkpt lat="42.7816879" lon="6.1855764"><ele>0.0</ele><time>2026-04-30T20:26:13.073Z</time></trkpt><trkpt lat="42.7817393" lon="6.1856661"><ele>0.0</ele><time>2026-04-30T20:26:14.073Z</time></trkpt><trkpt lat="42.7817899" lon="6.1857581"><ele>0.0</ele><time>2026-04-30T20:26:15.074Z</time></trkpt><trkpt lat="42.7818415" lon="6.1858561"><ele>0.0</ele><time>2026-04-30T20:26:16.074Z</time></trkpt><trkpt lat="42.7818931" lon="6.1859549"><ele>0.0</ele><time>2026-04-30T20:26:17.073Z</time></trkpt><trkpt lat="42.781942" lon="6.18604"><ele>0.0</ele><time>2026-04-30T20:26:18.073Z</time></trkpt><trkpt lat="42.7819949" lon="6.1861264"><ele>0.0</ele><time>2026-04-30T20:26:19.074Z</time></trkpt><trkpt lat="42.7820496" lon="6.1862182"><ele>0.0</ele><time>2026-04-30T20:26:20.074Z</time></trkpt><trkpt lat="42.7821086" lon="6.1862946"><ele>0.0</ele><time>2026-04-30T20:26:21.073Z</time></trkpt><trkpt lat="42.7821581" lon="6.1863739"><ele>0.0</ele><time>2026-04-30T20:26:22.074Z</time></trkpt><trkpt lat="42.7822213" lon="6.1864467"><ele>0.0</ele><time>2026-04-30T20:26:23.074Z</time></trkpt><trkpt lat="42.782282" lon="6.1865325"><ele>0.0</ele><time>2026-04-30T20:26:24.073Z</time></trkpt><trkpt lat="42.7823475" lon="6.1865931"><ele>0.0</ele><time>2026-04-30T20:26:25.074Z</time></trkpt><trkpt lat="42.7824583" lon="6.1867537"><ele>0.0</ele><time>2026-04-30T20:26:27.074Z</time></trkpt><trkpt lat="42.7825121" lon="6.1868333"><ele>0.0</ele><time>2026-04-30T20:26:28.073Z</time></trkpt><trkpt lat="42.7825632" lon="6.1869335"><ele>0.0</ele><time>2026-04-30T20:26:29.074Z</time></trkpt><trkpt lat="42.782616" lon="6.1870373"><ele>0.0</ele><time>2026-04-30T20:26:30.073Z</time></trkpt><trkpt lat="42.7826666" lon="6.1871364"><ele>0.0</ele><time>2026-04-30T20:26:31.074Z</time></trkpt><trkpt lat="42.782715" lon="6.1872306"><ele>0.0</ele><time>2026-04-30T20:26:32.073Z</time></trkpt><trkpt lat="42.7827634" lon="6.1873142"><ele>0.0</ele><time>2026-04-30T20:26:33.074Z</time></trkpt><trkpt lat="42.7828118" lon="6.1874047"><ele>0.0</ele><time>2026-04-30T20:26:34.074Z</time></trkpt><trkpt lat="42.7828647" lon="6.1874948"><ele>0.0</ele><time>2026-04-30T20:26:35.074Z</time></trkpt><trkpt lat="42.7829697" lon="6.1876777"><ele>0.0</ele><time>2026-04-30T20:26:37.074Z</time></trkpt><trkpt lat="42.7830227" lon="6.1877717"><ele>0.0</ele><time>2026-04-30T20:26:38.073Z</time></trkpt><trkpt lat="42.78307" lon="6.1878648"><ele>0.0</ele><time>2026-04-30T20:26:39.074Z</time></trkpt><trkpt lat="42.7831164" lon="6.187964"><ele>0.0</ele><time>2026-04-30T20:26:40.074Z</time></trkpt><trkpt lat="42.7831688" lon="6.1880548"><ele>0.0</ele><time>2026-04-30T20:26:41.073Z</time></trkpt><trkpt lat="42.7832135" lon="6.188151"><ele>0.0</ele><time>2026-04-30T20:26:42.074Z</time></trkpt><trkpt lat="42.7832587" lon="6.1882432"><ele>0.0</ele><time>2026-04-30T20:26:43.074Z</time></trkpt><trkpt lat="42.7832993" lon="6.1883479"><ele>0.0</ele><time>2026-04-30T20:26:44.073Z</time></trkpt><trkpt lat="42.7833481" lon="6.1884438"><ele>0.0</ele><time>2026-04-30T20:26:45.073Z</time></trkpt><trkpt lat="42.7834136" lon="6.1885265"><ele>0.0</ele><time>2026-04-30T20:26:46.074Z</time></trkpt><trkpt lat="42.7835175" lon="6.1887132"><ele>0.0</ele><time>2026-04-30T20:26:48.074Z</time></trkpt><trkpt lat="42.7835553" lon="6.1888102"><ele>0.0</ele><time>2026-04-30T20:26:49.074Z</time></trkpt><trkpt lat="42.7836014" lon="6.1889032"><ele>0.0</ele><time>2026-04-30T20:26:50.074Z</time></trkpt><trkpt lat="42.7836459" lon="6.1890051"><ele>0.0</ele><time>2026-04-30T20:26:51.074Z</time></trkpt><trkpt lat="42.7836935" lon="6.1891047"><ele>0.0</ele><time>2026-04-30T20:26:52.074Z</time></trkpt><trkpt lat="42.7837375" lon="6.1891989"><ele>0.0</ele><time>2026-04-30T20:26:53.073Z</time></trkpt><trkpt lat="42.783779" lon="6.1892976"><ele>0.0</ele><time>2026-04-30T20:26:54.073Z</time></trkpt><trkpt lat="42.7838234" lon="6.1893974"><ele>0.0</ele><time>2026-04-30T20:26:55.073Z</time></trkpt><trkpt lat="42.7838668" lon="6.1894975"><ele>0.0</ele><time>2026-04-30T20:26:56.074Z</time></trkpt><trkpt lat="42.7839163" lon="6.1895957"><ele>0.0</ele><time>2026-04-30T20:26:57.073Z</time></trkpt><trkpt lat="42.7839664" lon="6.1896942"><ele>0.0</ele><time>2026-04-30T20:26:58.073Z</time></trkpt><trkpt lat="42.7840164" lon="6.1897907"><ele>0.0</ele><time>2026-04-30T20:26:59.073Z</time></trkpt><trkpt lat="42.7840682" lon="6.1898847"><ele>0.0</ele><time>2026-04-30T20:27:00.073Z</time></trkpt><trkpt lat="42.7841203" lon="6.1899732"><ele>0.0</ele><time>2026-04-30T20:27:01.073Z</time></trkpt><trkpt lat="42.7841699" lon="6.1900631"><ele>0.0</ele><time>2026-04-30T20:27:02.074Z</time></trkpt><trkpt lat="42.78422" lon="6.1901562"><ele>0.0</ele><time>2026-04-30T20:27:03.073Z</time></trkpt><trkpt lat="42.7842685" lon="6.1902466"><ele>0.0</ele><time>2026-04-30T20:27:04.073Z</time></trkpt><trkpt lat="42.7843152" lon="6.1903412"><ele>0.0</ele><time>2026-04-30T20:27:05.073Z</time></trkpt><trkpt lat="42.7843638" lon="6.1904348"><ele>0.0</ele><time>2026-04-30T20:27:06.073Z</time></trkpt><trkpt lat="42.7844078" lon="6.1905278"><ele>0.0</ele><time>2026-04-30T20:27:07.074Z</time></trkpt><trkpt lat="42.7845436" lon="6.1908059"><ele>0.0</ele><time>2026-04-30T20:27:10.074Z</time></trkpt><trkpt lat="42.7845906" lon="6.1908982"><ele>0.0</ele><time>2026-04-30T20:27:11.073Z</time></trkpt><trkpt lat="42.7846369" lon="6.1909901"><ele>0.0</ele><time>2026-04-30T20:27:12.074Z</time></trkpt><trkpt lat="42.7846835" lon="6.191086"><ele>0.0</ele><time>2026-04-30T20:27:13.073Z</time></trkpt><trkpt lat="42.7847417" lon="6.1911713"><ele>0.0</ele><time>2026-04-30T20:27:14.074Z</time></trkpt><trkpt lat="42.7848075" lon="6.1912434"><ele>0.0</ele><time>2026-04-30T20:27:15.073Z</time></trkpt><trkpt lat="42.7848513" lon="6.1913365"><ele>0.0</ele><time>2026-04-30T20:27:16.073Z</time></trkpt><trkpt lat="42.7848989" lon="6.1914228"><ele>0.0</ele><time>2026-04-30T20:27:17.073Z</time></trkpt><trkpt lat="42.7849481" lon="6.1915086"><ele>0.0</ele><time>2026-04-30T20:27:18.074Z</time></trkpt><trkpt lat="42.7849983" lon="6.1915952"><ele>0.0</ele><time>2026-04-30T20:27:19.073Z</time></trkpt><trkpt lat="42.7850452" lon="6.1916799"><ele>0.0</ele><time>2026-04-30T20:27:20.073Z</time></trkpt><trkpt lat="42.7850917" lon="6.1917696"><ele>0.0</ele><time>2026-04-30T20:27:21.074Z</time></trkpt><trkpt lat="42.7851443" lon="6.1918602"><ele>0.0</ele><time>2026-04-30T20:27:22.073Z</time></trkpt><trkpt lat="42.7851959" lon="6.1919544"><ele>0.0</ele><time>2026-04-30T20:27:23.074Z</time></trkpt><trkpt lat="42.7852456" lon="6.1920396"><ele>0.0</ele><time>2026-04-30T20:27:24.074Z</time></trkpt><trkpt lat="42.7852951" lon="6.1921315"><ele>0.0</ele><time>2026-04-30T20:27:25.074Z</time></trkpt><trkpt lat="42.7853447" lon="6.1922277"><ele>0.0</ele><time>2026-04-30T20:27:26.073Z</time></trkpt><trkpt lat="42.7853922" lon="6.1923146"><ele>0.0</ele><time>2026-04-30T20:27:27.073Z</time></trkpt><trkpt lat="42.7854402" lon="6.1924081"><ele>0.0</ele><time>2026-04-30T20:27:28.074Z</time></trkpt><trkpt lat="42.7854793" lon="6.1925092"><ele>0.0</ele><time>2026-04-30T20:27:29.073Z</time></trkpt><trkpt lat="42.7855731" lon="6.1926931"><ele>0.0</ele><time>2026-04-30T20:27:31.073Z</time></trkpt><trkpt lat="42.7856211" lon="6.1928"><ele>0.0</ele><time>2026-04-30T20:27:32.073Z</time></trkpt><trkpt lat="42.7856697" lon="6.1929035"><ele>0.0</ele><time>2026-04-30T20:27:33.073Z</time></trkpt><trkpt lat="42.7857125" lon="6.1930031"><ele>0.0</ele><time>2026-04-30T20:27:34.073Z</time></trkpt><trkpt lat="42.7857548" lon="6.1931058"><ele>0.0</ele><time>2026-04-30T20:27:35.073Z</time></trkpt><trkpt lat="42.785798" lon="6.1932104"><ele>0.0</ele><time>2026-04-30T20:27:36.073Z</time></trkpt><trkpt lat="42.7858418" lon="6.193313"><ele>0.0</ele><time>2026-04-30T20:27:37.073Z</time></trkpt><trkpt lat="42.7858834" lon="6.1934087"><ele>0.0</ele><time>2026-04-30T20:27:38.074Z</time></trkpt><trkpt lat="42.7859284" lon="6.1935008"><ele>0.0</ele><time>2026-04-30T20:27:39.074Z</time></trkpt><trkpt lat="42.7860262" lon="6.1936581"><ele>0.0</ele><time>2026-04-30T20:27:41.074Z</time></trkpt><trkpt lat="42.7860852" lon="6.1937383"><ele>0.0</ele><time>2026-04-30T20:27:42.073Z</time></trkpt><trkpt lat="42.7861609" lon="6.1938"><ele>0.0</ele><time>2026-04-30T20:27:43.073Z</time></trkpt><trkpt lat="42.7862193" lon="6.1938833"><ele>0.0</ele><time>2026-04-30T20:27:44.073Z</time></trkpt><trkpt lat="42.7862696" lon="6.1939711"><ele>0.0</ele><time>2026-04-30T20:27:45.073Z</time></trkpt><trkpt lat="42.7863151" lon="6.1940667"><ele>0.0</ele><time>2026-04-30T20:27:46.073Z</time></trkpt><trkpt lat="42.7863671" lon="6.1941588"><ele>0.0</ele><time>2026-04-30T20:27:47.074Z</time></trkpt><trkpt lat="42.7864146" lon="6.1942558"><ele>0.0</ele><time>2026-04-30T20:27:48.074Z</time></trkpt><trkpt lat="42.7864587" lon="6.1943503"><ele>0.0</ele><time>2026-04-30T20:27:49.074Z</time></trkpt><trkpt lat="42.7865022" lon="6.1944422"><ele>0.0</ele><time>2026-04-30T20:27:50.073Z</time></trkpt><trkpt lat="42.7866116" lon="6.1946177"><ele>0.0</ele><time>2026-04-30T20:27:52.074Z</time></trkpt><trkpt lat="42.7866559" lon="6.1947087"><ele>0.0</ele><time>2026-04-30T20:27:53.073Z</time></trkpt><trkpt lat="42.7867075" lon="6.194803"><ele>0.0</ele><time>2026-04-30T20:27:54.074Z</time></trkpt><trkpt lat="42.7867549" lon="6.194894"><ele>0.0</ele><time>2026-04-30T20:27:55.074Z</time></trkpt><trkpt lat="42.7868004" lon="6.1949868"><ele>0.0</ele><time>2026-04-30T20:27:56.074Z</time></trkpt><trkpt lat="42.7868447" lon="6.19508"><ele>0.0</ele><time>2026-04-30T20:27:57.073Z</time></trkpt><trkpt lat="42.7868929" lon="6.1951719"><ele>0.0</ele><time>2026-04-30T20:27:58.073Z</time></trkpt><trkpt lat="42.7869416" lon="6.1952619"><ele>0.0</ele><time>2026-04-30T20:27:59.073Z</time></trkpt><trkpt lat="42.7869875" lon="6.1953532"><ele>0.0</ele><time>2026-04-30T20:28:00.074Z</time></trkpt><trkpt lat="42.7870353" lon="6.1954526"><ele>0.0</ele><time>2026-04-30T20:28:01.074Z</time></trkpt><trkpt lat="42.787085" lon="6.1955494"><ele>0.0</ele><time>2026-04-30T20:28:02.073Z</time></trkpt><trkpt lat="42.7871251" lon="6.1956575"><ele>0.0</ele><time>2026-04-30T20:28:03.074Z</time></trkpt><trkpt lat="42.7871734" lon="6.1957573"><ele>0.0</ele><time>2026-04-30T20:28:04.073Z</time></trkpt><trkpt lat="42.7872234" lon="6.195856"><ele>0.0</ele><time>2026-04-30T20:28:05.074Z</time></trkpt><trkpt lat="42.7872704" lon="6.1959587"><ele>0.0</ele><time>2026-04-30T20:28:06.073Z</time></trkpt><trkpt lat="42.7873183" lon="6.1960592"><ele>0.0</ele><time>2026-04-30T20:28:07.073Z</time></trkpt><trkpt lat="42.7873696" lon="6.1961574"><ele>0.0</ele><time>2026-04-30T20:28:08.073Z</time></trkpt><trkpt lat="42.7874184" lon="6.1962557"><ele>0.0</ele><time>2026-04-30T20:28:09.074Z</time></trkpt><trkpt lat="42.7874616" lon="6.196356"><ele>0.0</ele><time>2026-04-30T20:28:10.073Z</time></trkpt><trkpt lat="42.7875078" lon="6.1964514"><ele>0.0</ele><time>2026-04-30T20:28:11.074Z</time></trkpt><trkpt lat="42.7876406" lon="6.1967415"><ele>0.0</ele><time>2026-04-30T20:28:14.073Z</time></trkpt><trkpt lat="42.7876885" lon="6.1968391"><ele>0.0</ele><time>2026-04-30T20:28:15.074Z</time></trkpt><trkpt lat="42.7877333" lon="6.1969367"><ele>0.0</ele><time>2026-04-30T20:28:16.074Z</time></trkpt><trkpt lat="42.787778" lon="6.1970321"><ele>0.0</ele><time>2026-04-30T20:28:17.074Z</time></trkpt><trkpt lat="42.7878176" lon="6.1971312"><ele>0.0</ele><time>2026-04-30T20:28:18.074Z</time></trkpt><trkpt lat="42.7878616" lon="6.197228"><ele>0.0</ele><time>2026-04-30T20:28:19.073Z</time></trkpt><trkpt lat="42.7879094" lon="6.1973235"><ele>0.0</ele><time>2026-04-30T20:28:20.073Z</time></trkpt><trkpt lat="42.7879561" lon="6.1974156"><ele>0.0</ele><time>2026-04-30T20:28:21.074Z</time></trkpt><trkpt lat="42.7880043" lon="6.1975131"><ele>0.0</ele><time>2026-04-30T20:28:22.073Z</time></trkpt><trkpt lat="42.7880529" lon="6.1976059"><ele>0.0</ele><time>2026-04-30T20:28:23.074Z</time></trkpt><trkpt lat="42.7881011" lon="6.1976959"><ele>0.0</ele><time>2026-04-30T20:28:24.074Z</time></trkpt><trkpt lat="42.7881448" lon="6.1977902"><ele>0.0</ele><time>2026-04-30T20:28:25.073Z</time></trkpt><trkpt lat="42.78819" lon="6.1978855"><ele>0.0</ele><time>2026-04-30T20:28:26.074Z</time></trkpt><trkpt lat="42.7882317" lon="6.1979786"><ele>0.0</ele><time>2026-04-30T20:28:27.073Z</time></trkpt><trkpt lat="42.7882792" lon="6.1980676"><ele>0.0</ele><time>2026-04-30T20:28:28.074Z</time></trkpt><trkpt lat="42.7883247" lon="6.1981585"><ele>0.0</ele><time>2026-04-30T20:28:29.073Z</time></trkpt><trkpt lat="42.7883714" lon="6.198249"><ele>0.0</ele><time>2026-04-30T20:28:30.073Z</time></trkpt><trkpt lat="42.7884139" lon="6.1983431"><ele>0.0</ele><time>2026-04-30T20:28:31.073Z</time></trkpt><trkpt lat="42.7884642" lon="6.1984361"><ele>0.0</ele><time>2026-04-30T20:28:32.074Z</time></trkpt><trkpt lat="42.7885117" lon="6.1985271"><ele>0.0</ele><time>2026-04-30T20:28:33.073Z</time></trkpt><trkpt lat="42.7886083" lon="6.1987066"><ele>0.0</ele><time>2026-04-30T20:28:35.073Z</time></trkpt><trkpt lat="42.7886565" lon="6.1988049"><ele>0.0</ele><time>2026-04-30T20:28:36.073Z</time></trkpt><trkpt lat="42.7887039" lon="6.1989056"><ele>0.0</ele><time>2026-04-30T20:28:37.073Z</time></trkpt><trkpt lat="42.7887562" lon="6.1990097"><ele>0.0</ele><time>2026-04-30T20:28:38.074Z</time></trkpt><trkpt lat="42.7888075" lon="6.1991022"><ele>0.0</ele><time>2026-04-30T20:28:39.074Z</time></trkpt><trkpt lat="42.7888605" lon="6.199188"><ele>0.0</ele><time>2026-04-30T20:28:40.073Z</time></trkpt><trkpt lat="42.7889083" lon="6.1992834"><ele>0.0</ele><time>2026-04-30T20:28:41.074Z</time></trkpt><trkpt lat="42.7889537" lon="6.1993752"><ele>0.0</ele><time>2026-04-30T20:28:42.073Z</time></trkpt><trkpt lat="42.7890388" lon="6.1995636"><ele>0.0</ele><time>2026-04-30T20:28:44.073Z</time></trkpt><trkpt lat="42.7890838" lon="6.1996566"><ele>0.0</ele><time>2026-04-30T20:28:45.073Z</time></trkpt><trkpt lat="42.7891307" lon="6.1997427"><ele>0.0</ele><time>2026-04-30T20:28:46.074Z</time></trkpt><trkpt lat="42.7891787" lon="6.1998333"><ele>0.0</ele><time>2026-04-30T20:28:47.073Z</time></trkpt><trkpt lat="42.7892266" lon="6.1999303"><ele>0.0</ele><time>2026-04-30T20:28:48.073Z</time></trkpt><trkpt lat="42.7892781" lon="6.2000259"><ele>0.0</ele><time>2026-04-30T20:28:49.074Z</time></trkpt><trkpt lat="42.7893214" lon="6.200124"><ele>0.0</ele><time>2026-04-30T20:28:50.073Z</time></trkpt><trkpt lat="42.789362" lon="6.2002241"><ele>0.0</ele><time>2026-04-30T20:28:51.074Z</time></trkpt><trkpt lat="42.7894071" lon="6.2003184"><ele>0.0</ele><time>2026-04-30T20:28:52.074Z</time></trkpt><trkpt lat="42.7894493" lon="6.200414"><ele>0.0</ele><time>2026-04-30T20:28:53.073Z</time></trkpt><trkpt lat="42.7894954" lon="6.2005077"><ele>0.0</ele><time>2026-04-30T20:28:54.073Z</time></trkpt><trkpt lat="42.7895915" lon="6.2007013"><ele>0.0</ele><time>2026-04-30T20:28:56.073Z</time></trkpt><trkpt lat="42.7896415" lon="6.2007966"><ele>0.0</ele><time>2026-04-30T20:28:57.073Z</time></trkpt><trkpt lat="42.7896898" lon="6.2008913"><ele>0.0</ele><time>2026-04-30T20:28:58.073Z</time></trkpt><trkpt lat="42.7897396" lon="6.2009891"><ele>0.0</ele><time>2026-04-30T20:28:59.074Z</time></trkpt><trkpt lat="42.7897882" lon="6.2010866"><ele>0.0</ele><time>2026-04-30T20:29:00.074Z</time></trkpt><trkpt lat="42.7898364" lon="6.2011776"><ele>0.0</ele><time>2026-04-30T20:29:01.073Z</time></trkpt><trkpt lat="42.7898833" lon="6.201276"><ele>0.0</ele><time>2026-04-30T20:29:02.074Z</time></trkpt><trkpt lat="42.7899312" lon="6.2013721"><ele>0.0</ele><time>2026-04-30T20:29:03.073Z</time></trkpt><trkpt lat="42.7899784" lon="6.201464"><ele>0.0</ele><time>2026-04-30T20:29:04.073Z</time></trkpt><trkpt lat="42.7900268" lon="6.2015548"><ele>0.0</ele><time>2026-04-30T20:29:05.074Z</time></trkpt><trkpt lat="42.7900721" lon="6.20165"><ele>0.0</ele><time>2026-04-30T20:29:06.074Z</time></trkpt><trkpt lat="42.7901173" lon="6.2017435"><ele>0.0</ele><time>2026-04-30T20:29:07.074Z</time></trkpt><trkpt lat="42.7901651" lon="6.2018369"><ele>0.0</ele><time>2026-04-30T20:29:08.073Z</time></trkpt><trkpt lat="42.7902133" lon="6.2019328"><ele>0.0</ele><time>2026-04-30T20:29:09.073Z</time></trkpt><trkpt lat="42.7902587" lon="6.2020255"><ele>0.0</ele><time>2026-04-30T20:29:10.074Z</time></trkpt><trkpt lat="42.7903053" lon="6.2021167"><ele>0.0</ele><time>2026-04-30T20:29:11.073Z</time></trkpt><trkpt lat="42.79035" lon="6.2022086"><ele>0.0</ele><time>2026-04-30T20:29:12.074Z</time></trkpt><trkpt lat="42.7903923" lon="6.2022988"><ele>0.0</ele><time>2026-04-30T20:29:13.074Z</time></trkpt><trkpt lat="42.7904353" lon="6.2023918"><ele>0.0</ele><time>2026-04-30T20:29:14.074Z</time></trkpt><trkpt lat="42.7904816" lon="6.2024864"><ele>0.0</ele><time>2026-04-30T20:29:15.074Z</time></trkpt><trkpt lat="42.7906235" lon="6.2027732"><ele>0.0</ele><time>2026-04-30T20:29:18.074Z</time></trkpt><trkpt lat="42.7906706" lon="6.2028707"><ele>0.0</ele><time>2026-04-30T20:29:19.073Z</time></trkpt><trkpt lat="42.7907201" lon="6.2029677"><ele>0.0</ele><time>2026-04-30T20:29:20.073Z</time></trkpt><trkpt lat="42.7907655" lon="6.2030622"><ele>0.0</ele><time>2026-04-30T20:29:21.073Z</time></trkpt><trkpt lat="42.7908072" lon="6.2031543"><ele>0.0</ele><time>2026-04-30T20:29:22.073Z</time></trkpt><trkpt lat="42.7908484" lon="6.2032499"><ele>0.0</ele><time>2026-04-30T20:29:23.073Z</time></trkpt><trkpt lat="42.790892" lon="6.2033451"><ele>0.0</ele><time>2026-04-30T20:29:24.074Z</time></trkpt><trkpt lat="42.7909319" lon="6.2034436"><ele>0.0</ele><time>2026-04-30T20:29:25.074Z</time></trkpt><trkpt lat="42.7909737" lon="6.2035377"><ele>0.0</ele><time>2026-04-30T20:29:26.074Z</time></trkpt><trkpt lat="42.7910154" lon="6.2036321"><ele>0.0</ele><time>2026-04-30T20:29:27.073Z</time></trkpt><trkpt lat="42.7910585" lon="6.2037283"><ele>0.0</ele><time>2026-04-30T20:29:28.073Z</time></trkpt><trkpt lat="42.7911035" lon="6.2038203"><ele>0.0</ele><time>2026-04-30T20:29:29.073Z</time></trkpt><trkpt lat="42.7911516" lon="6.2039142"><ele>0.0</ele><time>2026-04-30T20:29:30.073Z</time></trkpt><trkpt lat="42.7912013" lon="6.2040137"><ele>0.0</ele><time>2026-04-30T20:29:31.074Z</time></trkpt><trkpt lat="42.7912465" lon="6.2041141"><ele>0.0</ele><time>2026-04-30T20:29:32.074Z</time></trkpt><trkpt lat="42.7912932" lon="6.2042124"><ele>0.0</ele><time>2026-04-30T20:29:33.073Z</time></trkpt><trkpt lat="42.7913371" lon="6.2043051"><ele>0.0</ele><time>2026-04-30T20:29:34.073Z</time></trkpt><trkpt lat="42.7913803" lon="6.2044084"><ele>0.0</ele><time>2026-04-30T20:29:35.073Z</time></trkpt><trkpt lat="42.7914283" lon="6.2045079"><ele>0.0</ele><time>2026-04-30T20:29:36.074Z</time></trkpt><trkpt lat="42.7914738" lon="6.2046013"><ele>0.0</ele><time>2026-04-30T20:29:37.074Z</time></trkpt><trkpt lat="42.7915655" lon="6.2047975"><ele>0.0</ele><time>2026-04-30T20:29:39.074Z</time></trkpt><trkpt lat="42.7916102" lon="6.2048918"><ele>0.0</ele><time>2026-04-30T20:29:40.074Z</time></trkpt><trkpt lat="42.7916527" lon="6.2049879"><ele>0.0</ele><time>2026-04-30T20:29:41.073Z</time></trkpt><trkpt lat="42.7916955" lon="6.2050799"><ele>0.0</ele><time>2026-04-30T20:29:42.073Z</time></trkpt><trkpt lat="42.7917418" lon="6.2051749"><ele>0.0</ele><time>2026-04-30T20:29:43.073Z</time></trkpt><trkpt lat="42.7917883" lon="6.2052727"><ele>0.0</ele><time>2026-04-30T20:29:44.074Z</time></trkpt><trkpt lat="42.7918381" lon="6.2053696"><ele>0.0</ele><time>2026-04-30T20:29:45.073Z</time></trkpt><trkpt lat="42.7918905" lon="6.2054631"><ele>0.0</ele><time>2026-04-30T20:29:46.073Z</time></trkpt><trkpt lat="42.7919383" lon="6.2055581"><ele>0.0</ele><time>2026-04-30T20:29:47.073Z</time></trkpt><trkpt lat="42.7920384" lon="6.2057485"><ele>0.0</ele><time>2026-04-30T20:29:49.074Z</time></trkpt><trkpt lat="42.792087" lon="6.2058376"><ele>0.0</ele><time>2026-04-30T20:29:50.073Z</time></trkpt><trkpt lat="42.7921338" lon="6.2059245"><ele>0.0</ele><time>2026-04-30T20:29:51.074Z</time></trkpt><trkpt lat="42.7921802" lon="6.2060137"><ele>0.0</ele><time>2026-04-30T20:29:52.073Z</time></trkpt><trkpt lat="42.7922268" lon="6.2061036"><ele>0.0</ele><time>2026-04-30T20:29:53.073Z</time></trkpt><trkpt lat="42.7922686" lon="6.2061941"><ele>0.0</ele><time>2026-04-30T20:29:54.074Z</time></trkpt><trkpt lat="42.7923101" lon="6.2062885"><ele>0.0</ele><time>2026-04-30T20:29:55.074Z</time></trkpt><trkpt lat="42.792362" lon="6.2063779"><ele>0.0</ele><time>2026-04-30T20:29:56.073Z</time></trkpt><trkpt lat="42.7924088" lon="6.2064711"><ele>0.0</ele><time>2026-04-30T20:29:57.073Z</time></trkpt><trkpt lat="42.7924526" lon="6.2065714"><ele>0.0</ele><time>2026-04-30T20:29:58.074Z</time></trkpt><trkpt lat="42.7925338" lon="6.2067687"><ele>0.0</ele><time>2026-04-30T20:30:00.073Z</time></trkpt><trkpt lat="42.7925818" lon="6.2068605"><ele>0.0</ele><time>2026-04-30T20:30:01.073Z</time></trkpt><trkpt lat="42.7926312" lon="6.2069596"><ele>0.0</ele><time>2026-04-30T20:30:02.073Z</time></trkpt><trkpt lat="42.7926886" lon="6.2070504"><ele>0.0</ele><time>2026-04-30T20:30:03.073Z</time></trkpt><trkpt lat="42.7927432" lon="6.2071403"><ele>0.0</ele><time>2026-04-30T20:30:04.073Z</time></trkpt><trkpt lat="42.7927984" lon="6.2072255"><ele>0.0</ele><time>2026-04-30T20:30:05.073Z</time></trkpt><trkpt lat="42.7928486" lon="6.2073137"><ele>0.0</ele><time>2026-04-30T20:30:06.074Z</time></trkpt><trkpt lat="42.7929042" lon="6.2073925"><ele>0.0</ele><time>2026-04-30T20:30:07.073Z</time></trkpt><trkpt lat="42.7929551" lon="6.2074776"><ele>0.0</ele><time>2026-04-30T20:30:08.073Z</time></trkpt><trkpt lat="42.7930025" lon="6.2075682"><ele>0.0</ele><time>2026-04-30T20:30:09.074Z</time></trkpt><trkpt lat="42.7930507" lon="6.2076585"><ele>0.0</ele><time>2026-04-30T20:30:10.074Z</time></trkpt><trkpt lat="42.7931265" lon="6.2077189"><ele>0.0</ele><time>2026-04-30T20:30:11.073Z</time></trkpt><trkpt lat="42.7931771" lon="6.2078121"><ele>0.0</ele><time>2026-04-30T20:30:12.074Z</time></trkpt><trkpt lat="42.7932216" lon="6.2079134"><ele>0.0</ele><time>2026-04-30T20:30:13.073Z</time></trkpt><trkpt lat="42.793262" lon="6.2080142"><ele>0.0</ele><time>2026-04-30T20:30:14.074Z</time></trkpt><trkpt lat="42.7933052" lon="6.2081096"><ele>0.0</ele><time>2026-04-30T20:30:15.073Z</time></trkpt><trkpt lat="42.7933503" lon="6.2082049"><ele>0.0</ele><time>2026-04-30T20:30:16.074Z</time></trkpt><trkpt lat="42.7933953" lon="6.2082998"><ele>0.0</ele><time>2026-04-30T20:30:17.074Z</time></trkpt><trkpt lat="42.7934373" lon="6.2083964"><ele>0.0</ele><time>2026-04-30T20:30:18.073Z</time></trkpt><trkpt lat="42.7934848" lon="6.2084942"><ele>0.0</ele><time>2026-04-30T20:30:19.074Z</time></trkpt><trkpt lat="42.7936266" lon="6.2087723"><ele>0.0</ele><time>2026-04-30T20:30:22.073Z</time></trkpt><trkpt lat="42.7936706" lon="6.2088668"><ele>0.0</ele><time>2026-04-30T20:30:23.074Z</time></trkpt><trkpt lat="42.7937213" lon="6.2089538"><ele>0.0</ele><time>2026-04-30T20:30:24.074Z</time></trkpt><trkpt lat="42.7937716" lon="6.2090426"><ele>0.0</ele><time>2026-04-30T20:30:25.074Z</time></trkpt><trkpt lat="42.7938216" lon="6.2091316"><ele>0.0</ele><time>2026-04-30T20:30:26.074Z</time></trkpt><trkpt lat="42.7938733" lon="6.2092256"><ele>0.0</ele><time>2026-04-30T20:30:27.074Z</time></trkpt><trkpt lat="42.793922" lon="6.2093194"><ele>0.0</ele><time>2026-04-30T20:30:28.074Z</time></trkpt><trkpt lat="42.7939658" lon="6.2094185"><ele>0.0</ele><time>2026-04-30T20:30:29.074Z</time></trkpt><trkpt lat="42.794015" lon="6.2095144"><ele>0.0</ele><time>2026-04-30T20:30:30.073Z</time></trkpt><trkpt lat="42.794062" lon="6.2096093"><ele>0.0</ele><time>2026-04-30T20:30:31.074Z</time></trkpt><trkpt lat="42.7941055" lon="6.2097108"><ele>0.0</ele><time>2026-04-30T20:30:32.074Z</time></trkpt><trkpt lat="42.7941485" lon="6.2098185"><ele>0.0</ele><time>2026-04-30T20:30:33.074Z</time></trkpt><trkpt lat="42.79419" lon="6.2099265"><ele>0.0</ele><time>2026-04-30T20:30:34.073Z</time></trkpt><trkpt lat="42.7942318" lon="6.2100337"><ele>0.0</ele><time>2026-04-30T20:30:35.073Z</time></trkpt><trkpt lat="42.7942737" lon="6.2101362"><ele>0.0</ele><time>2026-04-30T20:30:36.074Z</time></trkpt><trkpt lat="42.7943167" lon="6.2102335"><ele>0.0</ele><time>2026-04-30T20:30:37.073Z</time></trkpt><trkpt lat="42.7943545" lon="6.2103273"><ele>0.0</ele><time>2026-04-30T20:30:38.073Z</time></trkpt><trkpt lat="42.794396" lon="6.2104273"><ele>0.0</ele><time>2026-04-30T20:30:39.073Z</time></trkpt><trkpt lat="42.7944432" lon="6.2105161"><ele>0.0</ele><time>2026-04-30T20:30:40.074Z</time></trkpt><trkpt lat="42.7944874" lon="6.2106021"><ele>0.0</ele><time>2026-04-30T20:30:41.074Z</time></trkpt><trkpt lat="42.7945806" lon="6.2107673"><ele>0.0</ele><time>2026-04-30T20:30:43.073Z</time></trkpt><trkpt lat="42.7946237" lon="6.2108617"><ele>0.0</ele><time>2026-04-30T20:30:44.073Z</time></trkpt><trkpt lat="42.7946716" lon="6.2109596"><ele>0.0</ele><time>2026-04-30T20:30:45.074Z</time></trkpt><trkpt lat="42.7947197" lon="6.2110651"><ele>0.0</ele><time>2026-04-30T20:30:46.073Z</time></trkpt><trkpt lat="42.794768" lon="6.2111698"><ele>0.0</ele><time>2026-04-30T20:30:47.073Z</time></trkpt><trkpt lat="42.7948149" lon="6.2112719"><ele>0.0</ele><time>2026-04-30T20:30:48.073Z</time></trkpt><trkpt lat="42.7948616" lon="6.211374"><ele>0.0</ele><time>2026-04-30T20:30:49.073Z</time></trkpt><trkpt lat="42.79491" lon="6.2114655"><ele>0.0</ele><time>2026-04-30T20:30:50.073Z</time></trkpt><trkpt lat="42.794957" lon="6.2115656"><ele>0.0</ele><time>2026-04-30T20:30:51.073Z</time></trkpt><trkpt lat="42.7950392" lon="6.2117696"><ele>0.0</ele><time>2026-04-30T20:30:53.073Z</time></trkpt><trkpt lat="42.7950781" lon="6.2118664"><ele>0.0</ele><time>2026-04-30T20:30:54.074Z</time></trkpt><trkpt lat="42.7951172" lon="6.2119488"><ele>0.0</ele><time>2026-04-30T20:30:55.073Z</time></trkpt><trkpt lat="42.7951628" lon="6.2120351"><ele>0.0</ele><time>2026-04-30T20:30:56.074Z</time></trkpt><trkpt lat="42.7952109" lon="6.2121274"><ele>0.0</ele><time>2026-04-30T20:30:57.074Z</time></trkpt><trkpt lat="42.7952763" lon="6.2121925"><ele>0.0</ele><time>2026-04-30T20:30:58.073Z</time></trkpt><trkpt lat="42.7953218" lon="6.2122823"><ele>0.0</ele><time>2026-04-30T20:30:59.073Z</time></trkpt><trkpt lat="42.7953613" lon="6.2123809"><ele>0.0</ele><time>2026-04-30T20:31:00.074Z</time></trkpt><trkpt lat="42.7954038" lon="6.212477"><ele>0.0</ele><time>2026-04-30T20:31:01.074Z</time></trkpt><trkpt lat="42.7954411" lon="6.2125718"><ele>0.0</ele><time>2026-04-30T20:31:02.073Z</time></trkpt><trkpt lat="42.7955614" lon="6.2127435"><ele>0.0</ele><time>2026-04-30T20:31:04.073Z</time></trkpt><trkpt lat="42.7956198" lon="6.2128246"><ele>0.0</ele><time>2026-04-30T20:31:05.073Z</time></trkpt><trkpt lat="42.7956681" lon="6.2129081"><ele>0.0</ele><time>2026-04-30T20:31:06.074Z</time></trkpt><trkpt lat="42.7957238" lon="6.2129945"><ele>0.0</ele><time>2026-04-30T20:31:07.073Z</time></trkpt><trkpt lat="42.7957651" lon="6.2131038"><ele>0.0</ele><time>2026-04-30T20:31:08.073Z</time></trkpt><trkpt lat="42.7958061" lon="6.2132054"><ele>0.0</ele><time>2026-04-30T20:31:09.074Z</time></trkpt><trkpt lat="42.7958503" lon="6.213306"><ele>0.0</ele><time>2026-04-30T20:31:10.074Z</time></trkpt><trkpt lat="42.7958919" lon="6.2134046"><ele>0.0</ele><time>2026-04-30T20:31:11.074Z</time></trkpt><trkpt lat="42.7959522" lon="6.213482"><ele>0.0</ele><time>2026-04-30T20:31:12.074Z</time></trkpt><trkpt lat="42.7959942" lon="6.2135772"><ele>0.0</ele><time>2026-04-30T20:31:13.074Z</time></trkpt><trkpt lat="42.7960385" lon="6.2136832"><ele>0.0</ele><time>2026-04-30T20:31:14.073Z</time></trkpt><trkpt lat="42.7960972" lon="6.2137802"><ele>0.0</ele><time>2026-04-30T20:31:15.073Z</time></trkpt><trkpt lat="42.7961267" lon="6.2138693"><ele>0.0</ele><time>2026-04-30T20:31:16.072Z</time></trkpt><trkpt lat="42.7961601" lon="6.2139666"><ele>0.0</ele><time>2026-04-30T20:31:17.072Z</time></trkpt><trkpt lat="42.7962005" lon="6.2140629"><ele>0.0</ele><time>2026-04-30T20:31:18.072Z</time></trkpt><trkpt lat="42.7962468" lon="6.2141696"><ele>0.0</ele><time>2026-04-30T20:31:19.072Z</time></trkpt><trkpt lat="42.7962892" lon="6.2142755"><ele>0.0</ele><time>2026-04-30T20:31:20.073Z</time></trkpt><trkpt lat="42.7963444" lon="6.2143667"><ele>0.0</ele><time>2026-04-30T20:31:21.072Z</time></trkpt><trkpt lat="42.796384" lon="6.2144589"><ele>0.0</ele><time>2026-04-30T20:31:22.072Z</time></trkpt><trkpt lat="42.7964311" lon="6.2145435"><ele>0.0</ele><time>2026-04-30T20:31:23.073Z</time></trkpt><trkpt lat="42.7965768" lon="6.2148381"><ele>0.0</ele><time>2026-04-30T20:31:26.073Z</time></trkpt><trkpt lat="42.7966191" lon="6.2149403"><ele>0.0</ele><time>2026-04-30T20:31:27.072Z</time></trkpt><trkpt lat="42.7966568" lon="6.2150339"><ele>0.0</ele><time>2026-04-30T20:31:28.073Z</time></trkpt><trkpt lat="42.796696" lon="6.2151301"><ele>0.0</ele><time>2026-04-30T20:31:29.073Z</time></trkpt><trkpt lat="42.7967342" lon="6.2152268"><ele>0.0</ele><time>2026-04-30T20:31:30.072Z</time></trkpt><trkpt lat="42.7967825" lon="6.2153195"><ele>0.0</ele><time>2026-04-30T20:31:31.072Z</time></trkpt><trkpt lat="42.7968328" lon="6.2154165"><ele>0.0</ele><time>2026-04-30T20:31:32.072Z</time></trkpt><trkpt lat="42.7968789" lon="6.2155081"><ele>0.0</ele><time>2026-04-30T20:31:33.072Z</time></trkpt><trkpt lat="42.7969316" lon="6.2155871"><ele>0.0</ele><time>2026-04-30T20:31:34.072Z</time></trkpt><trkpt lat="42.7969752" lon="6.2156835"><ele>0.0</ele><time>2026-04-30T20:31:35.072Z</time></trkpt><trkpt lat="42.7970209" lon="6.2157788"><ele>0.0</ele><time>2026-04-30T20:31:36.073Z</time></trkpt><trkpt lat="42.7970671" lon="6.2158714"><ele>0.0</ele><time>2026-04-30T20:31:37.072Z</time></trkpt><trkpt lat="42.7971153" lon="6.2159644"><ele>0.0</ele><time>2026-04-30T20:31:38.072Z</time></trkpt><trkpt lat="42.7971665" lon="6.2160536"><ele>0.0</ele><time>2026-04-30T20:31:39.072Z</time></trkpt><trkpt lat="42.7972111" lon="6.216145"><ele>0.0</ele><time>2026-04-30T20:31:40.073Z</time></trkpt><trkpt lat="42.7972525" lon="6.2162424"><ele>0.0</ele><time>2026-04-30T20:31:41.073Z</time></trkpt><trkpt lat="42.7972973" lon="6.2163395"><ele>0.0</ele><time>2026-04-30T20:31:42.072Z</time></trkpt><trkpt lat="42.7973407" lon="6.2164396"><ele>0.0</ele><time>2026-04-30T20:31:43.073Z</time></trkpt><trkpt lat="42.7973825" lon="6.2165592"><ele>0.0</ele><time>2026-04-30T20:31:44.073Z</time></trkpt><trkpt lat="42.7974199" lon="6.2166834"><ele>0.0</ele><time>2026-04-30T20:31:45.072Z</time></trkpt><trkpt lat="42.7974945" lon="6.2169149"><ele>0.0</ele><time>2026-04-30T20:31:47.073Z</time></trkpt><trkpt lat="42.7975329" lon="6.217026"><ele>0.0</ele><time>2026-04-30T20:31:48.072Z</time></trkpt><trkpt lat="42.797574" lon="6.2171305"><ele>0.0</ele><time>2026-04-30T20:31:49.072Z</time></trkpt><trkpt lat="42.7976153" lon="6.2172352"><ele>0.0</ele><time>2026-04-30T20:31:50.073Z</time></trkpt><trkpt lat="42.7976627" lon="6.2173373"><ele>0.0</ele><time>2026-04-30T20:31:51.072Z</time></trkpt><trkpt lat="42.7977145" lon="6.2174333"><ele>0.0</ele><time>2026-04-30T20:31:52.072Z</time></trkpt><trkpt lat="42.797762" lon="6.2175342"><ele>0.0</ele><time>2026-04-30T20:31:53.072Z</time></trkpt><trkpt lat="42.797808" lon="6.2176315"><ele>0.0</ele><time>2026-04-30T20:31:54.072Z</time></trkpt><trkpt lat="42.7978523" lon="6.217731"><ele>0.0</ele><time>2026-04-30T20:31:55.072Z</time></trkpt><trkpt lat="42.7979031" lon="6.2178249"><ele>0.0</ele><time>2026-04-30T20:31:56.073Z</time></trkpt><trkpt lat="42.797948" lon="6.2179124"><ele>0.0</ele><time>2026-04-30T20:31:57.072Z</time></trkpt><trkpt lat="42.7979895" lon="6.2180019"><ele>0.0</ele><time>2026-04-30T20:31:58.072Z</time></trkpt><trkpt lat="42.7980509" lon="6.2180684"><ele>0.0</ele><time>2026-04-30T20:31:59.072Z</time></trkpt><trkpt lat="42.7981044" lon="6.2181576"><ele>0.0</ele><time>2026-04-30T20:32:00.072Z</time></trkpt><trkpt lat="42.7981619" lon="6.2182398"><ele>0.0</ele><time>2026-04-30T20:32:01.073Z</time></trkpt><trkpt lat="42.7982114" lon="6.2183263"><ele>0.0</ele><time>2026-04-30T20:32:02.072Z</time></trkpt><trkpt lat="42.7982555" lon="6.2184229"><ele>0.0</ele><time>2026-04-30T20:32:03.073Z</time></trkpt><trkpt lat="42.7983042" lon="6.2185157"><ele>0.0</ele><time>2026-04-30T20:32:04.072Z</time></trkpt><trkpt lat="42.7983548" lon="6.2186127"><ele>0.0</ele><time>2026-04-30T20:32:05.072Z</time></trkpt><trkpt lat="42.7984023" lon="6.2187078"><ele>0.0</ele><time>2026-04-30T20:32:06.072Z</time></trkpt><trkpt lat="42.7985118" lon="6.2188716"><ele>0.0</ele><time>2026-04-30T20:32:08.072Z</time></trkpt><trkpt lat="42.7985513" lon="6.2189734"><ele>0.0</ele><time>2026-04-30T20:32:09.072Z</time></trkpt><trkpt lat="42.7985901" lon="6.2190712"><ele>0.0</ele><time>2026-04-30T20:32:10.073Z</time></trkpt><trkpt lat="42.7986337" lon="6.2191625"><ele>0.0</ele><time>2026-04-30T20:32:11.072Z</time></trkpt><trkpt lat="42.7986757" lon="6.2192566"><ele>0.0</ele><time>2026-04-30T20:32:12.073Z</time></trkpt><trkpt lat="42.7987173" lon="6.2193544"><ele>0.0</ele><time>2026-04-30T20:32:13.073Z</time></trkpt><trkpt lat="42.7987616" lon="6.219443"><ele>0.0</ele><time>2026-04-30T20:32:14.073Z</time></trkpt><trkpt lat="42.798804" lon="6.219538"><ele>0.0</ele><time>2026-04-30T20:32:15.072Z</time></trkpt><trkpt lat="42.7988482" lon="6.219629"><ele>0.0</ele><time>2026-04-30T20:32:16.073Z</time></trkpt><trkpt lat="42.7988945" lon="6.2197192"><ele>0.0</ele><time>2026-04-30T20:32:17.072Z</time></trkpt><trkpt lat="42.7989413" lon="6.2198162"><ele>0.0</ele><time>2026-04-30T20:32:18.073Z</time></trkpt><trkpt lat="42.7989838" lon="6.219913"><ele>0.0</ele><time>2026-04-30T20:32:19.073Z</time></trkpt><trkpt lat="42.7990269" lon="6.2200136"><ele>0.0</ele><time>2026-04-30T20:32:20.072Z</time></trkpt><trkpt lat="42.7990886" lon="6.220088"><ele>0.0</ele><time>2026-04-30T20:32:21.073Z</time></trkpt><trkpt lat="42.7991398" lon="6.2201756"><ele>0.0</ele><time>2026-04-30T20:32:22.073Z</time></trkpt><trkpt lat="42.7991817" lon="6.2202707"><ele>0.0</ele><time>2026-04-30T20:32:23.072Z</time></trkpt><trkpt lat="42.7992289" lon="6.220349"><ele>0.0</ele><time>2026-04-30T20:32:24.072Z</time></trkpt><trkpt lat="42.7992781" lon="6.220436"><ele>0.0</ele><time>2026-04-30T20:32:25.073Z</time></trkpt><trkpt lat="42.7993227" lon="6.2205295"><ele>0.0</ele><time>2026-04-30T20:32:26.073Z</time></trkpt><trkpt lat="42.7993699" lon="6.2206244"><ele>0.0</ele><time>2026-04-30T20:32:27.072Z</time></trkpt><trkpt lat="42.7995106" lon="6.220914"><ele>0.0</ele><time>2026-04-30T20:32:30.072Z</time></trkpt><trkpt lat="42.7995544" lon="6.221012"><ele>0.0</ele><time>2026-04-30T20:32:31.072Z</time></trkpt><trkpt lat="42.7995949" lon="6.2211139"><ele>0.0</ele><time>2026-04-30T20:32:32.073Z</time></trkpt><trkpt lat="42.7996404" lon="6.2212086"><ele>0.0</ele><time>2026-04-30T20:32:33.073Z</time></trkpt><trkpt lat="42.7996834" lon="6.2213062"><ele>0.0</ele><time>2026-04-30T20:32:34.072Z</time></trkpt><trkpt lat="42.7997268" lon="6.2214013"><ele>0.0</ele><time>2026-04-30T20:32:35.073Z</time></trkpt><trkpt lat="42.799763" lon="6.2215068"><ele>0.0</ele><time>2026-04-30T20:32:36.072Z</time></trkpt><trkpt lat="42.7997979" lon="6.2216134"><ele>0.0</ele><time>2026-04-30T20:32:37.072Z</time></trkpt><trkpt lat="42.7998451" lon="6.2217157"><ele>0.0</ele><time>2026-04-30T20:32:38.073Z</time></trkpt><trkpt lat="42.7998892" lon="6.2218168"><ele>0.0</ele><time>2026-04-30T20:32:39.072Z</time></trkpt><trkpt lat="42.799929" lon="6.221916"><ele>0.0</ele><time>2026-04-30T20:32:40.073Z</time></trkpt><trkpt lat="42.7999688" lon="6.222016"><ele>0.0</ele><time>2026-04-30T20:32:41.073Z</time></trkpt><trkpt lat="42.8000105" lon="6.2221127"><ele>0.0</ele><time>2026-04-30T20:32:42.072Z</time></trkpt><trkpt lat="42.8000565" lon="6.2222114"><ele>0.0</ele><time>2026-04-30T20:32:43.072Z</time></trkpt><trkpt lat="42.8001045" lon="6.2223068"><ele>0.0</ele><time>2026-04-30T20:32:44.072Z</time></trkpt><trkpt lat="42.8001525" lon="6.2223988"><ele>0.0</ele><time>2026-04-30T20:32:45.072Z</time></trkpt><trkpt lat="42.8002043" lon="6.222495"><ele>0.0</ele><time>2026-04-30T20:32:46.072Z</time></trkpt><trkpt lat="42.8002574" lon="6.2225898"><ele>0.0</ele><time>2026-04-30T20:32:47.072Z</time></trkpt><trkpt lat="42.8003069" lon="6.222683"><ele>0.0</ele><time>2026-04-30T20:32:48.073Z</time></trkpt><trkpt lat="42.8003581" lon="6.2227749"><ele>0.0</ele><time>2026-04-30T20:32:49.073Z</time></trkpt><trkpt lat="42.8004613" lon="6.2229692"><ele>0.0</ele><time>2026-04-30T20:32:51.073Z</time></trkpt><trkpt lat="42.8004949" lon="6.2230815"><ele>0.0</ele><time>2026-04-30T20:32:52.073Z</time></trkpt><trkpt lat="42.8005374" lon="6.2231878"><ele>0.0</ele><time>2026-04-30T20:32:53.073Z</time></trkpt><trkpt lat="42.8005765" lon="6.2232917"><ele>0.0</ele><time>2026-04-30T20:32:54.073Z</time></trkpt><trkpt lat="42.8006187" lon="6.2233912"><ele>0.0</ele><time>2026-04-30T20:32:55.072Z</time></trkpt><trkpt lat="42.8006634" lon="6.223481"><ele>0.0</ele><time>2026-04-30T20:32:56.072Z</time></trkpt><trkpt lat="42.8007065" lon="6.2235794"><ele>0.0</ele><time>2026-04-30T20:32:57.073Z</time></trkpt><trkpt lat="42.8007457" lon="6.2236738"><ele>0.0</ele><time>2026-04-30T20:32:58.072Z</time></trkpt><trkpt lat="42.8007944" lon="6.2237591"><ele>0.0</ele><time>2026-04-30T20:32:59.073Z</time></trkpt><trkpt lat="42.8008818" lon="6.2239525"><ele>0.0</ele><time>2026-04-30T20:33:01.072Z</time></trkpt><trkpt lat="42.8009278" lon="6.2240499"><ele>0.0</ele><time>2026-04-30T20:33:02.072Z</time></trkpt><trkpt lat="42.8009651" lon="6.2241636"><ele>0.0</ele><time>2026-04-30T20:33:03.072Z</time></trkpt><trkpt lat="42.8010052" lon="6.2242735"><ele>0.0</ele><time>2026-04-30T20:33:04.073Z</time></trkpt><trkpt lat="42.8010464" lon="6.224374"><ele>0.0</ele><time>2026-04-30T20:33:05.072Z</time></trkpt><trkpt lat="42.8011026" lon="6.2244554"><ele>0.0</ele><time>2026-04-30T20:33:06.073Z</time></trkpt><trkpt lat="42.8011536" lon="6.2245434"><ele>0.0</ele><time>2026-04-30T20:33:07.073Z</time></trkpt><trkpt lat="42.8012121" lon="6.2246258"><ele>0.0</ele><time>2026-04-30T20:33:08.072Z</time></trkpt><trkpt lat="42.8012613" lon="6.2247357"><ele>0.0</ele><time>2026-04-30T20:33:09.072Z</time></trkpt><trkpt lat="42.8013165" lon="6.2248179"><ele>0.0</ele><time>2026-04-30T20:33:10.072Z</time></trkpt><trkpt lat="42.8014141" lon="6.2250317"><ele>0.0</ele><time>2026-04-30T20:33:12.072Z</time></trkpt><trkpt lat="42.8014588" lon="6.2251192"><ele>0.0</ele><time>2026-04-30T20:33:13.072Z</time></trkpt><trkpt lat="42.8015022" lon="6.2252104"><ele>0.0</ele><time>2026-04-30T20:33:14.073Z</time></trkpt><trkpt lat="42.8015441" lon="6.2253062"><ele>0.0</ele><time>2026-04-30T20:33:15.073Z</time></trkpt><trkpt lat="42.8015912" lon="6.2254046"><ele>0.0</ele><time>2026-04-30T20:33:16.072Z</time></trkpt><trkpt lat="42.8016395" lon="6.2255086"><ele>0.0</ele><time>2026-04-30T20:33:17.073Z</time></trkpt><trkpt lat="42.8016905" lon="6.2255966"><ele>0.0</ele><time>2026-04-30T20:33:18.072Z</time></trkpt><trkpt lat="42.8017436" lon="6.2256841"><ele>0.0</ele><time>2026-04-30T20:33:19.073Z</time></trkpt><trkpt lat="42.8017977" lon="6.2257767"><ele>0.0</ele><time>2026-04-30T20:33:20.072Z</time></trkpt><trkpt lat="42.8018438" lon="6.2258718"><ele>0.0</ele><time>2026-04-30T20:33:21.072Z</time></trkpt><trkpt lat="42.8018914" lon="6.225965"><ele>0.0</ele><time>2026-04-30T20:33:22.073Z</time></trkpt><trkpt lat="42.8019412" lon="6.2260572"><ele>0.0</ele><time>2026-04-30T20:33:23.072Z</time></trkpt><trkpt lat="42.8019874" lon="6.2261498"><ele>0.0</ele><time>2026-04-30T20:33:24.072Z</time></trkpt><trkpt lat="42.8020364" lon="6.2262388"><ele>0.0</ele><time>2026-04-30T20:33:25.072Z</time></trkpt><trkpt lat="42.8020796" lon="6.2263315"><ele>0.0</ele><time>2026-04-30T20:33:26.072Z</time></trkpt><trkpt lat="42.8021198" lon="6.2264265"><ele>0.0</ele><time>2026-04-30T20:33:27.072Z</time></trkpt><trkpt lat="42.8021555" lon="6.2265198"><ele>0.0</ele><time>2026-04-30T20:33:28.073Z</time></trkpt><trkpt lat="42.802198" lon="6.22661"><ele>0.0</ele><time>2026-04-30T20:33:29.072Z</time></trkpt><trkpt lat="42.8022371" lon="6.2266975"><ele>0.0</ele><time>2026-04-30T20:33:30.073Z</time></trkpt><trkpt lat="42.8022812" lon="6.2267898"><ele>0.0</ele><time>2026-04-30T20:33:31.072Z</time></trkpt><trkpt lat="42.8023225" lon="6.2268818"><ele>0.0</ele><time>2026-04-30T20:33:32.072Z</time></trkpt><trkpt lat="42.8024098" lon="6.2270704"><ele>0.0</ele><time>2026-04-30T20:33:34.073Z</time></trkpt><trkpt lat="42.802458" lon="6.2271607"><ele>0.0</ele><time>2026-04-30T20:33:35.072Z</time></trkpt><trkpt lat="42.8025006" lon="6.2272576"><ele>0.0</ele><time>2026-04-30T20:33:36.073Z</time></trkpt><trkpt lat="42.8025495" lon="6.2273473"><ele>0.0</ele><time>2026-04-30T20:33:37.072Z</time></trkpt><trkpt lat="42.8026021" lon="6.2274316"><ele>0.0</ele><time>2026-04-30T20:33:38.072Z</time></trkpt><trkpt lat="42.8026514" lon="6.2275268"><ele>0.0</ele><time>2026-04-30T20:33:39.072Z</time></trkpt><trkpt lat="42.8026981" lon="6.2276161"><ele>0.0</ele><time>2026-04-30T20:33:40.072Z</time></trkpt><trkpt lat="42.8027549" lon="6.2276988"><ele>0.0</ele><time>2026-04-30T20:33:41.073Z</time></trkpt><trkpt lat="42.8028061" lon="6.227789"><ele>0.0</ele><time>2026-04-30T20:33:42.072Z</time></trkpt><trkpt lat="42.8028546" lon="6.2278808"><ele>0.0</ele><time>2026-04-30T20:33:43.072Z</time></trkpt><trkpt lat="42.8028959" lon="6.2279891"><ele>0.0</ele><time>2026-04-30T20:33:44.073Z</time></trkpt><trkpt lat="42.8029402" lon="6.2280953"><ele>0.0</ele><time>2026-04-30T20:33:45.073Z</time></trkpt><trkpt lat="42.8029832" lon="6.2281973"><ele>0.0</ele><time>2026-04-30T20:33:46.072Z</time></trkpt><trkpt lat="42.803025" lon="6.228293"><ele>0.0</ele><time>2026-04-30T20:33:47.073Z</time></trkpt><trkpt lat="42.8030699" lon="6.2283899"><ele>0.0</ele><time>2026-04-30T20:33:48.072Z</time></trkpt><trkpt lat="42.8031105" lon="6.228485"><ele>0.0</ele><time>2026-04-30T20:33:49.072Z</time></trkpt><trkpt lat="42.803155" lon="6.2285783"><ele>0.0</ele><time>2026-04-30T20:33:50.072Z</time></trkpt><trkpt lat="42.8031983" lon="6.2286747"><ele>0.0</ele><time>2026-04-30T20:33:51.073Z</time></trkpt><trkpt lat="42.8032433" lon="6.2287699"><ele>0.0</ele><time>2026-04-30T20:33:52.072Z</time></trkpt><trkpt lat="42.8033138" lon="6.2288581"><ele>0.0</ele><time>2026-04-30T20:33:53.072Z</time></trkpt><trkpt lat="42.8034119" lon="6.2290404"><ele>0.0</ele><time>2026-04-30T20:33:55.072Z</time></trkpt><trkpt lat="42.8034529" lon="6.229148"><ele>0.0</ele><time>2026-04-30T20:33:56.073Z</time></trkpt><trkpt lat="42.8035181" lon="6.2292311"><ele>0.0</ele><time>2026-04-30T20:33:57.072Z</time></trkpt><trkpt lat="42.8035663" lon="6.2293207"><ele>0.0</ele><time>2026-04-30T20:33:58.073Z</time></trkpt><trkpt lat="42.8036091" lon="6.2294147"><ele>0.0</ele><time>2026-04-30T20:33:59.072Z</time></trkpt><trkpt lat="42.8036551" lon="6.2295094"><ele>0.0</ele><time>2026-04-30T20:34:00.072Z</time></trkpt><trkpt lat="42.803699" lon="6.2296145"><ele>0.0</ele><time>2026-04-30T20:34:01.072Z</time></trkpt><trkpt lat="42.803744" lon="6.229708"><ele>0.0</ele><time>2026-04-30T20:34:02.072Z</time></trkpt><trkpt lat="42.8037886" lon="6.2297964"><ele>0.0</ele><time>2026-04-30T20:34:03.073Z</time></trkpt><trkpt lat="42.8038358" lon="6.2298839"><ele>0.0</ele><time>2026-04-30T20:34:04.073Z</time></trkpt><trkpt lat="42.8038805" lon="6.2299779"><ele>0.0</ele><time>2026-04-30T20:34:05.072Z</time></trkpt><trkpt lat="42.8039273" lon="6.2300741"><ele>0.0</ele><time>2026-04-30T20:34:06.072Z</time></trkpt><trkpt lat="42.8039739" lon="6.2301683"><ele>0.0</ele><time>2026-04-30T20:34:07.072Z</time></trkpt><trkpt lat="42.8040147" lon="6.230266"><ele>0.0</ele><time>2026-04-30T20:34:08.072Z</time></trkpt><trkpt lat="42.8040486" lon="6.2303689"><ele>0.0</ele><time>2026-04-30T20:34:09.072Z</time></trkpt><trkpt lat="42.8040871" lon="6.2304712"><ele>0.0</ele><time>2026-04-30T20:34:10.072Z</time></trkpt><trkpt lat="42.8041324" lon="6.2305691"><ele>0.0</ele><time>2026-04-30T20:34:11.072Z</time></trkpt><trkpt lat="42.8041893" lon="6.2306543"><ele>0.0</ele><time>2026-04-30T20:34:12.072Z</time></trkpt><trkpt lat="42.8042305" lon="6.2307458"><ele>0.0</ele><time>2026-04-30T20:34:13.072Z</time></trkpt><trkpt lat="42.8042734" lon="6.2308387"><ele>0.0</ele><time>2026-04-30T20:34:14.073Z</time></trkpt><trkpt lat="42.8043506" lon="6.2310346"><ele>0.0</ele><time>2026-04-30T20:34:16.073Z</time></trkpt><trkpt lat="42.8043947" lon="6.2311301"><ele>0.0</ele><time>2026-04-30T20:34:17.072Z</time></trkpt><trkpt lat="42.8044383" lon="6.2312265"><ele>0.0</ele><time>2026-04-30T20:34:18.072Z</time></trkpt><trkpt lat="42.8044848" lon="6.2313208"><ele>0.0</ele><time>2026-04-30T20:34:19.072Z</time></trkpt><trkpt lat="42.8045331" lon="6.231412"><ele>0.0</ele><time>2026-04-30T20:34:20.073Z</time></trkpt><trkpt lat="42.8045799" lon="6.231505"><ele>0.0</ele><time>2026-04-30T20:34:21.073Z</time></trkpt><trkpt lat="42.8046296" lon="6.2315953"><ele>0.0</ele><time>2026-04-30T20:34:22.073Z</time></trkpt><trkpt lat="42.8046787" lon="6.2316836"><ele>0.0</ele><time>2026-04-30T20:34:23.072Z</time></trkpt><trkpt lat="42.8047256" lon="6.2317749"><ele>0.0</ele><time>2026-04-30T20:34:24.072Z</time></trkpt><trkpt lat="42.8047746" lon="6.2318779"><ele>0.0</ele><time>2026-04-30T20:34:25.072Z</time></trkpt><trkpt lat="42.8048231" lon="6.23198"><ele>0.0</ele><time>2026-04-30T20:34:26.073Z</time></trkpt><trkpt lat="42.8048714" lon="6.232079"><ele>0.0</ele><time>2026-04-30T20:34:27.072Z</time></trkpt><trkpt lat="42.8049201" lon="6.232176"><ele>0.0</ele><time>2026-04-30T20:34:28.072Z</time></trkpt><trkpt lat="42.8049669" lon="6.2322747"><ele>0.0</ele><time>2026-04-30T20:34:29.072Z</time></trkpt><trkpt lat="42.805012" lon="6.2323699"><ele>0.0</ele><time>2026-04-30T20:34:30.072Z</time></trkpt><trkpt lat="42.8050587" lon="6.2324632"><ele>0.0</ele><time>2026-04-30T20:34:31.072Z</time></trkpt><trkpt lat="42.8051006" lon="6.2325652"><ele>0.0</ele><time>2026-04-30T20:34:32.072Z</time></trkpt><trkpt lat="42.8051453" lon="6.2326647"><ele>0.0</ele><time>2026-04-30T20:34:33.072Z</time></trkpt><trkpt lat="42.8051897" lon="6.2327659"><ele>0.0</ele><time>2026-04-30T20:34:34.072Z</time></trkpt><trkpt lat="42.805235" lon="6.2328616"><ele>0.0</ele><time>2026-04-30T20:34:35.072Z</time></trkpt><trkpt lat="42.8053708" lon="6.2331405"><ele>0.0</ele><time>2026-04-30T20:34:38.073Z</time></trkpt><trkpt lat="42.8054182" lon="6.2332317"><ele>0.0</ele><time>2026-04-30T20:34:39.072Z</time></trkpt><trkpt lat="42.8054607" lon="6.2333288"><ele>0.0</ele><time>2026-04-30T20:34:40.072Z</time></trkpt><trkpt lat="42.8055037" lon="6.2334234"><ele>0.0</ele><time>2026-04-30T20:34:41.072Z</time></trkpt><trkpt lat="42.8055441" lon="6.2335146"><ele>0.0</ele><time>2026-04-30T20:34:42.073Z</time></trkpt><trkpt lat="42.8055853" lon="6.233606"><ele>0.0</ele><time>2026-04-30T20:34:43.072Z</time></trkpt><trkpt lat="42.8056282" lon="6.2336999"><ele>0.0</ele><time>2026-04-30T20:34:44.073Z</time></trkpt><trkpt lat="42.8056731" lon="6.2337824"><ele>0.0</ele><time>2026-04-30T20:34:45.072Z</time></trkpt><trkpt lat="42.8057214" lon="6.2338748"><ele>0.0</ele><time>2026-04-30T20:34:46.072Z</time></trkpt><trkpt lat="42.8057743" lon="6.2339739"><ele>0.0</ele><time>2026-04-30T20:34:47.072Z</time></trkpt><trkpt lat="42.8058219" lon="6.2340717"><ele>0.0</ele><time>2026-04-30T20:34:48.073Z</time></trkpt><trkpt lat="42.8058713" lon="6.2341668"><ele>0.0</ele><time>2026-04-30T20:34:49.072Z</time></trkpt><trkpt lat="42.8059214" lon="6.2342513"><ele>0.0</ele><time>2026-04-30T20:34:50.073Z</time></trkpt><trkpt lat="42.8059714" lon="6.2343346"><ele>0.0</ele><time>2026-04-30T20:34:51.072Z</time></trkpt><trkpt lat="42.8060188" lon="6.2344218"><ele>0.0</ele><time>2026-04-30T20:34:52.072Z</time></trkpt><trkpt lat="42.8060823" lon="6.2344915"><ele>0.0</ele><time>2026-04-30T20:34:53.073Z</time></trkpt><trkpt lat="42.8061345" lon="6.2345812"><ele>0.0</ele><time>2026-04-30T20:34:54.072Z</time></trkpt><trkpt lat="42.8061851" lon="6.2346728"><ele>0.0</ele><time>2026-04-30T20:34:55.072Z</time></trkpt><trkpt lat="42.806232" lon="6.2347663"><ele>0.0</ele><time>2026-04-30T20:34:56.072Z</time></trkpt><trkpt lat="42.8062815" lon="6.2348596"><ele>0.0</ele><time>2026-04-30T20:34:57.072Z</time></trkpt><trkpt lat="42.8063785" lon="6.2350466"><ele>0.0</ele><time>2026-04-30T20:34:59.072Z</time></trkpt><trkpt lat="42.8064251" lon="6.2351398"><ele>0.0</ele><time>2026-04-30T20:35:00.072Z</time></trkpt><trkpt lat="42.8064732" lon="6.235236"><ele>0.0</ele><time>2026-04-30T20:35:01.073Z</time></trkpt><trkpt lat="42.8065244" lon="6.2353233"><ele>0.0</ele><time>2026-04-30T20:35:02.072Z</time></trkpt><trkpt lat="42.8065774" lon="6.2354096"><ele>0.0</ele><time>2026-04-30T20:35:03.072Z</time></trkpt><trkpt lat="42.8066264" lon="6.2354946"><ele>0.0</ele><time>2026-04-30T20:35:04.072Z</time></trkpt><trkpt lat="42.8066721" lon="6.2355859"><ele>0.0</ele><time>2026-04-30T20:35:05.072Z</time></trkpt><trkpt lat="42.806717" lon="6.2356842"><ele>0.0</ele><time>2026-04-30T20:35:06.072Z</time></trkpt><trkpt lat="42.8067604" lon="6.2357785"><ele>0.0</ele><time>2026-04-30T20:35:07.073Z</time></trkpt><trkpt lat="42.8068037" lon="6.2358728"><ele>0.0</ele><time>2026-04-30T20:35:08.073Z</time></trkpt><trkpt lat="42.8068485" lon="6.2359614"><ele>0.0</ele><time>2026-04-30T20:35:09.072Z</time></trkpt><trkpt lat="42.8068934" lon="6.2360546"><ele>0.0</ele><time>2026-04-30T20:35:10.072Z</time></trkpt><trkpt lat="42.80694" lon="6.2361508"><ele>0.0</ele><time>2026-04-30T20:35:11.073Z</time></trkpt><trkpt lat="42.8069837" lon="6.2362505"><ele>0.0</ele><time>2026-04-30T20:35:12.073Z</time></trkpt><trkpt lat="42.8070303" lon="6.2363463"><ele>0.0</ele><time>2026-04-30T20:35:13.072Z</time></trkpt><trkpt lat="42.8070751" lon="6.2364506"><ele>0.0</ele><time>2026-04-30T20:35:14.073Z</time></trkpt><trkpt lat="42.8071219" lon="6.2365482"><ele>0.0</ele><time>2026-04-30T20:35:15.073Z</time></trkpt><trkpt lat="42.8071683" lon="6.2366403"><ele>0.0</ele><time>2026-04-30T20:35:16.072Z</time></trkpt><trkpt lat="42.8072151" lon="6.2367346"><ele>0.0</ele><time>2026-04-30T20:35:17.072Z</time></trkpt><trkpt lat="42.8072616" lon="6.2368283"><ele>0.0</ele><time>2026-04-30T20:35:18.073Z</time></trkpt><trkpt lat="42.8073583" lon="6.237018"><ele>0.0</ele><time>2026-04-30T20:35:20.072Z</time></trkpt><trkpt lat="42.8074067" lon="6.2371076"><ele>0.0</ele><time>2026-04-30T20:35:21.072Z</time></trkpt><trkpt lat="42.8074568" lon="6.2371985"><ele>0.0</ele><time>2026-04-30T20:35:22.072Z</time></trkpt><trkpt lat="42.8075034" lon="6.2372948"><ele>0.0</ele><time>2026-04-30T20:35:23.072Z</time></trkpt><trkpt lat="42.8075528" lon="6.2373856"><ele>0.0</ele><time>2026-04-30T20:35:24.072Z</time></trkpt><trkpt lat="42.8076003" lon="6.2374754"><ele>0.0</ele><time>2026-04-30T20:35:25.073Z</time></trkpt><trkpt lat="42.8076467" lon="6.2375679"><ele>0.0</ele><time>2026-04-30T20:35:26.072Z</time></trkpt><trkpt lat="42.8076936" lon="6.2376614"><ele>0.0</ele><time>2026-04-30T20:35:27.073Z</time></trkpt><trkpt lat="42.8077386" lon="6.2377522"><ele>0.0</ele><time>2026-04-30T20:35:28.073Z</time></trkpt><trkpt lat="42.8077847" lon="6.2378449"><ele>0.0</ele><time>2026-04-30T20:35:29.072Z</time></trkpt><trkpt lat="42.8078302" lon="6.2379381"><ele>0.0</ele><time>2026-04-30T20:35:30.072Z</time></trkpt><trkpt lat="42.807875" lon="6.2380336"><ele>0.0</ele><time>2026-04-30T20:35:31.073Z</time></trkpt><trkpt lat="42.8079202" lon="6.2381282"><ele>0.0</ele><time>2026-04-30T20:35:32.072Z</time></trkpt><trkpt lat="42.807971" lon="6.2382261"><ele>0.0</ele><time>2026-04-30T20:35:33.072Z</time></trkpt><trkpt lat="42.8080202" lon="6.2383182"><ele>0.0</ele><time>2026-04-30T20:35:34.072Z</time></trkpt><trkpt lat="42.8080685" lon="6.2384129"><ele>0.0</ele><time>2026-04-30T20:35:35.073Z</time></trkpt><trkpt lat="42.8081138" lon="6.2385052"><ele>0.0</ele><time>2026-04-30T20:35:36.072Z</time></trkpt><trkpt lat="42.8081602" lon="6.2385968"><ele>0.0</ele><time>2026-04-30T20:35:37.072Z</time></trkpt><trkpt lat="42.808201" lon="6.2386928"><ele>0.0</ele><time>2026-04-30T20:35:38.073Z</time></trkpt><trkpt lat="42.8082458" lon="6.2387894"><ele>0.0</ele><time>2026-04-30T20:35:39.073Z</time></trkpt><trkpt lat="42.8082921" lon="6.2388829"><ele>0.0</ele><time>2026-04-30T20:35:40.073Z</time></trkpt><trkpt lat="42.8083778" lon="6.2390757"><ele>0.0</ele><time>2026-04-30T20:35:42.073Z</time></trkpt><trkpt lat="42.8084234" lon="6.2391755"><ele>0.0</ele><time>2026-04-30T20:35:43.072Z</time></trkpt><trkpt lat="42.8084686" lon="6.2392728"><ele>0.0</ele><time>2026-04-30T20:35:44.073Z</time></trkpt><trkpt lat="42.8085102" lon="6.2393698"><ele>0.0</ele><time>2026-04-30T20:35:45.072Z</time></trkpt><trkpt lat="42.8085432" lon="6.2394738"><ele>0.0</ele><time>2026-04-30T20:35:46.072Z</time></trkpt><trkpt lat="42.8085803" lon="6.239576"><ele>0.0</ele><time>2026-04-30T20:35:47.072Z</time></trkpt><trkpt lat="42.8086273" lon="6.2396706"><ele>0.0</ele><time>2026-04-30T20:35:48.072Z</time></trkpt><trkpt lat="42.8086734" lon="6.2397636"><ele>0.0</ele><time>2026-04-30T20:35:49.072Z</time></trkpt><trkpt lat="42.8087169" lon="6.23986"><ele>0.0</ele><time>2026-04-30T20:35:50.072Z</time></trkpt><trkpt lat="42.8087575" lon="6.2399591"><ele>0.0</ele><time>2026-04-30T20:35:51.072Z</time></trkpt><trkpt lat="42.8088079" lon="6.2400463"><ele>0.0</ele><time>2026-04-30T20:35:52.072Z</time></trkpt><trkpt lat="42.8088533" lon="6.2401402"><ele>0.0</ele><time>2026-04-30T20:35:53.073Z</time></trkpt><trkpt lat="42.8089042" lon="6.2402344"><ele>0.0</ele><time>2026-04-30T20:35:54.072Z</time></trkpt><trkpt lat="42.8089504" lon="6.2403294"><ele>0.0</ele><time>2026-04-30T20:35:55.072Z</time></trkpt><trkpt lat="42.8089937" lon="6.2404243"><ele>0.0</ele><time>2026-04-30T20:35:56.073Z</time></trkpt><trkpt lat="42.8090434" lon="6.2405184"><ele>0.0</ele><time>2026-04-30T20:35:57.073Z</time></trkpt><trkpt lat="42.8090944" lon="6.2406131"><ele>0.0</ele><time>2026-04-30T20:35:58.072Z</time></trkpt><trkpt lat="42.809144" lon="6.2407122"><ele>0.0</ele><time>2026-04-30T20:35:59.072Z</time></trkpt><trkpt lat="42.8091971" lon="6.2408094"><ele>0.0</ele><time>2026-04-30T20:36:00.072Z</time></trkpt><trkpt lat="42.8092756" lon="6.2410079"><ele>0.0</ele><time>2026-04-30T20:36:02.073Z</time></trkpt><trkpt lat="42.8093184" lon="6.2411066"><ele>0.0</ele><time>2026-04-30T20:36:03.073Z</time></trkpt><trkpt lat="42.8093595" lon="6.2412076"><ele>0.0</ele><time>2026-04-30T20:36:04.072Z</time></trkpt><trkpt lat="42.8094095" lon="6.2413033"><ele>0.0</ele><time>2026-04-30T20:36:05.072Z</time></trkpt><trkpt lat="42.8094593" lon="6.2413943"><ele>0.0</ele><time>2026-04-30T20:36:06.072Z</time></trkpt><trkpt lat="42.8095097" lon="6.2414815"><ele>0.0</ele><time>2026-04-30T20:36:07.073Z</time></trkpt><trkpt lat="42.8095581" lon="6.2415733"><ele>0.0</ele><time>2026-04-30T20:36:08.073Z</time></trkpt><trkpt lat="42.8096065" lon="6.2416693"><ele>0.0</ele><time>2026-04-30T20:36:09.073Z</time></trkpt><trkpt lat="42.8096522" lon="6.241762"><ele>0.0</ele><time>2026-04-30T20:36:10.073Z</time></trkpt><trkpt lat="42.8097462" lon="6.2419469"><ele>0.0</ele><time>2026-04-30T20:36:12.072Z</time></trkpt><trkpt lat="42.8097935" lon="6.2420412"><ele>0.0</ele><time>2026-04-30T20:36:13.073Z</time></trkpt><trkpt lat="42.8098403" lon="6.2421365"><ele>0.0</ele><time>2026-04-30T20:36:14.073Z</time></trkpt><trkpt lat="42.8098868" lon="6.2422331"><ele>0.0</ele><time>2026-04-30T20:36:15.072Z</time></trkpt><trkpt lat="42.8099334" lon="6.2423255"><ele>0.0</ele><time>2026-04-30T20:36:16.072Z</time></trkpt><trkpt lat="42.8099783" lon="6.2424186"><ele>0.0</ele><time>2026-04-30T20:36:17.072Z</time></trkpt><trkpt lat="42.8100273" lon="6.2425146"><ele>0.0</ele><time>2026-04-30T20:36:18.073Z</time></trkpt><trkpt lat="42.8100733" lon="6.2426116"><ele>0.0</ele><time>2026-04-30T20:36:19.073Z</time></trkpt><trkpt lat="42.8101156" lon="6.2427083"><ele>0.0</ele><time>2026-04-30T20:36:20.073Z</time></trkpt><trkpt lat="42.8101554" lon="6.242808"><ele>0.0</ele><time>2026-04-30T20:36:21.072Z</time></trkpt><trkpt lat="42.8102764" lon="6.2429603"><ele>0.0</ele><time>2026-04-30T20:36:23.073Z</time></trkpt><trkpt lat="42.8103263" lon="6.2430506"><ele>0.0</ele><time>2026-04-30T20:36:24.073Z</time></trkpt><trkpt lat="42.8103718" lon="6.2431494"><ele>0.0</ele><time>2026-04-30T20:36:25.072Z</time></trkpt><trkpt lat="42.8104159" lon="6.2432463"><ele>0.0</ele><time>2026-04-30T20:36:26.072Z</time></trkpt><trkpt lat="42.8104622" lon="6.2433399"><ele>0.0</ele><time>2026-04-30T20:36:27.072Z</time></trkpt><trkpt lat="42.8105071" lon="6.2434392"><ele>0.0</ele><time>2026-04-30T20:36:28.073Z</time></trkpt><trkpt lat="42.8105478" lon="6.2435376"><ele>0.0</ele><time>2026-04-30T20:36:29.073Z</time></trkpt><trkpt lat="42.8105905" lon="6.2436333"><ele>0.0</ele><time>2026-04-30T20:36:30.073Z</time></trkpt><trkpt lat="42.8106339" lon="6.2437311"><ele>0.0</ele><time>2026-04-30T20:36:31.073Z</time></trkpt><trkpt lat="42.8106816" lon="6.2438285"><ele>0.0</ele><time>2026-04-30T20:36:32.073Z</time></trkpt><trkpt lat="42.8107239" lon="6.2439206"><ele>0.0</ele><time>2026-04-30T20:36:33.072Z</time></trkpt><trkpt lat="42.8107654" lon="6.2440136"><ele>0.0</ele><time>2026-04-30T20:36:34.073Z</time></trkpt><trkpt lat="42.8108113" lon="6.2441083"><ele>0.0</ele><time>2026-04-30T20:36:35.072Z</time></trkpt><trkpt lat="42.8108573" lon="6.2442016"><ele>0.0</ele><time>2026-04-30T20:36:36.073Z</time></trkpt><trkpt lat="42.8109017" lon="6.2443006"><ele>0.0</ele><time>2026-04-30T20:36:37.072Z</time></trkpt><trkpt lat="42.81095" lon="6.2444002"><ele>0.0</ele><time>2026-04-30T20:36:38.073Z</time></trkpt><trkpt lat="42.8109997" lon="6.2444925"><ele>0.0</ele><time>2026-04-30T20:36:39.072Z</time></trkpt><trkpt lat="42.8110471" lon="6.2445833"><ele>0.0</ele><time>2026-04-30T20:36:40.072Z</time></trkpt><trkpt lat="42.8110949" lon="6.2446798"><ele>0.0</ele><time>2026-04-30T20:36:41.072Z</time></trkpt><trkpt lat="42.8111448" lon="6.2447772"><ele>0.0</ele><time>2026-04-30T20:36:42.073Z</time></trkpt><trkpt lat="42.8112822" lon="6.2450766"><ele>0.0</ele><time>2026-04-30T20:36:45.072Z</time></trkpt><trkpt lat="42.8113284" lon="6.2451682"><ele>0.0</ele><time>2026-04-30T20:36:46.073Z</time></trkpt><trkpt lat="42.8113708" lon="6.2452618"><ele>0.0</ele><time>2026-04-30T20:36:47.073Z</time></trkpt><trkpt lat="42.8114135" lon="6.2453568"><ele>0.0</ele><time>2026-04-30T20:36:48.073Z</time></trkpt><trkpt lat="42.811457" lon="6.245453"><ele>0.0</ele><time>2026-04-30T20:36:49.073Z</time></trkpt><trkpt lat="42.8115036" lon="6.2455454"><ele>0.0</ele><time>2026-04-30T20:36:50.072Z</time></trkpt><trkpt lat="42.8115472" lon="6.2456398"><ele>0.0</ele><time>2026-04-30T20:36:51.073Z</time></trkpt><trkpt lat="42.811592" lon="6.2457368"><ele>0.0</ele><time>2026-04-30T20:36:52.072Z</time></trkpt><trkpt lat="42.8116354" lon="6.2458289"><ele>0.0</ele><time>2026-04-30T20:36:53.073Z</time></trkpt><trkpt lat="42.8116821" lon="6.2459258"><ele>0.0</ele><time>2026-04-30T20:36:54.073Z</time></trkpt><trkpt lat="42.8117259" lon="6.246023"><ele>0.0</ele><time>2026-04-30T20:36:55.073Z</time></trkpt><trkpt lat="42.8117676" lon="6.2461195"><ele>0.0</ele><time>2026-04-30T20:36:56.072Z</time></trkpt><trkpt lat="42.8118091" lon="6.2462155"><ele>0.0</ele><time>2026-04-30T20:36:57.073Z</time></trkpt><trkpt lat="42.8118512" lon="6.2463138"><ele>0.0</ele><time>2026-04-30T20:36:58.073Z</time></trkpt><trkpt lat="42.8118958" lon="6.2464122"><ele>0.0</ele><time>2026-04-30T20:36:59.073Z</time></trkpt><trkpt lat="42.8119375" lon="6.2465093"><ele>0.0</ele><time>2026-04-30T20:37:00.072Z</time></trkpt><trkpt lat="42.8119789" lon="6.2466093"><ele>0.0</ele><time>2026-04-30T20:37:01.073Z</time></trkpt><trkpt lat="42.8120251" lon="6.2467076"><ele>0.0</ele><time>2026-04-30T20:37:02.073Z</time></trkpt><trkpt lat="42.8120745" lon="6.2468045"><ele>0.0</ele><time>2026-04-30T20:37:03.073Z</time></trkpt><trkpt lat="42.8121222" lon="6.2468998"><ele>0.0</ele><time>2026-04-30T20:37:04.072Z</time></trkpt><trkpt lat="42.8122184" lon="6.2470832"><ele>0.0</ele><time>2026-04-30T20:37:06.072Z</time></trkpt><trkpt lat="42.8122658" lon="6.2471775"><ele>0.0</ele><time>2026-04-30T20:37:07.073Z</time></trkpt><trkpt lat="42.8123109" lon="6.2472726"><ele>0.0</ele><time>2026-04-30T20:37:08.072Z</time></trkpt><trkpt lat="42.8123558" lon="6.2473762"><ele>0.0</ele><time>2026-04-30T20:37:09.072Z</time></trkpt><trkpt lat="42.8123957" lon="6.247481"><ele>0.0</ele><time>2026-04-30T20:37:10.073Z</time></trkpt><trkpt lat="42.8124395" lon="6.2475727"><ele>0.0</ele><time>2026-04-30T20:37:11.072Z</time></trkpt><trkpt lat="42.8124859" lon="6.2476674"><ele>0.0</ele><time>2026-04-30T20:37:12.073Z</time></trkpt><trkpt lat="42.8125297" lon="6.2477644"><ele>0.0</ele><time>2026-04-30T20:37:13.072Z</time></trkpt><trkpt lat="42.8125753" lon="6.247858"><ele>0.0</ele><time>2026-04-30T20:37:14.073Z</time></trkpt><trkpt lat="42.8126575" lon="6.2480455"><ele>0.0</ele><time>2026-04-30T20:37:16.072Z</time></trkpt><trkpt lat="42.8126947" lon="6.2481414"><ele>0.0</ele><time>2026-04-30T20:37:17.073Z</time></trkpt><trkpt lat="42.8127369" lon="6.2482337"><ele>0.0</ele><time>2026-04-30T20:37:18.072Z</time></trkpt><trkpt lat="42.8127766" lon="6.2483271"><ele>0.0</ele><time>2026-04-30T20:37:19.072Z</time></trkpt><trkpt lat="42.8128166" lon="6.2484259"><ele>0.0</ele><time>2026-04-30T20:37:20.072Z</time></trkpt><trkpt lat="42.8128608" lon="6.2485208"><ele>0.0</ele><time>2026-04-30T20:37:21.072Z</time></trkpt><trkpt lat="42.8128902" lon="6.2486299"><ele>0.0</ele><time>2026-04-30T20:37:22.073Z</time></trkpt><trkpt lat="42.8129356" lon="6.2487216"><ele>0.0</ele><time>2026-04-30T20:37:23.072Z</time></trkpt><trkpt lat="42.812974" lon="6.2488211"><ele>0.0</ele><time>2026-04-30T20:37:24.072Z</time></trkpt><trkpt lat="42.8130265" lon="6.2489054"><ele>0.0</ele><time>2026-04-30T20:37:25.072Z</time></trkpt><trkpt lat="42.8131214" lon="6.2490876"><ele>0.0</ele><time>2026-04-30T20:37:27.072Z</time></trkpt><trkpt lat="42.8131694" lon="6.2491774"><ele>0.0</ele><time>2026-04-30T20:37:28.073Z</time></trkpt><trkpt lat="42.8132188" lon="6.2492687"><ele>0.0</ele><time>2026-04-30T20:37:29.073Z</time></trkpt><trkpt lat="42.8132678" lon="6.2493632"><ele>0.0</ele><time>2026-04-30T20:37:30.072Z</time></trkpt><trkpt lat="42.8133138" lon="6.2494617"><ele>0.0</ele><time>2026-04-30T20:37:31.072Z</time></trkpt><trkpt lat="42.813357" lon="6.2495599"><ele>0.0</ele><time>2026-04-30T20:37:32.071Z</time></trkpt><trkpt lat="42.8134039" lon="6.2496543"><ele>0.0</ele><time>2026-04-30T20:37:33.072Z</time></trkpt><trkpt lat="42.8134509" lon="6.2497501"><ele>0.0</ele><time>2026-04-30T20:37:34.071Z</time></trkpt><trkpt lat="42.8135036" lon="6.2498407"><ele>0.0</ele><time>2026-04-30T20:37:35.071Z</time></trkpt><trkpt lat="42.8135514" lon="6.2499321"><ele>0.0</ele><time>2026-04-30T20:37:36.071Z</time></trkpt><trkpt lat="42.8136035" lon="6.250024"><ele>0.0</ele><time>2026-04-30T20:37:37.072Z</time></trkpt><trkpt lat="42.8136526" lon="6.2501183"><ele>0.0</ele><time>2026-04-30T20:37:38.072Z</time></trkpt><trkpt lat="42.8137026" lon="6.2502118"><ele>0.0</ele><time>2026-04-30T20:37:39.071Z</time></trkpt><trkpt lat="42.8137512" lon="6.2503069"><ele>0.0</ele><time>2026-04-30T20:37:40.071Z</time></trkpt><trkpt lat="42.8138009" lon="6.2503975"><ele>0.0</ele><time>2026-04-30T20:37:41.071Z</time></trkpt><trkpt lat="42.813847" lon="6.250493"><ele>0.0</ele><time>2026-04-30T20:37:42.072Z</time></trkpt><trkpt lat="42.813892" lon="6.2505952"><ele>0.0</ele><time>2026-04-30T20:37:43.072Z</time></trkpt><trkpt lat="42.8139382" lon="6.2506939"><ele>0.0</ele><time>2026-04-30T20:37:44.072Z</time></trkpt><trkpt lat="42.8139851" lon="6.2507914"><ele>0.0</ele><time>2026-04-30T20:37:45.071Z</time></trkpt><trkpt lat="42.8140348" lon="6.250888"><ele>0.0</ele><time>2026-04-30T20:37:46.071Z</time></trkpt><trkpt lat="42.8140791" lon="6.2509862"><ele>0.0</ele><time>2026-04-30T20:37:47.072Z</time></trkpt><trkpt lat="42.8141719" lon="6.2511771"><ele>0.0</ele><time>2026-04-30T20:37:49.071Z</time></trkpt><trkpt lat="42.8142188" lon="6.2512725"><ele>0.0</ele><time>2026-04-30T20:37:50.072Z</time></trkpt><trkpt lat="42.8142636" lon="6.251368"><ele>0.0</ele><time>2026-04-30T20:37:51.072Z</time></trkpt><trkpt lat="42.8143073" lon="6.2514604"><ele>0.0</ele><time>2026-04-30T20:37:52.071Z</time></trkpt><trkpt lat="42.8143487" lon="6.251556"><ele>0.0</ele><time>2026-04-30T20:37:53.072Z</time></trkpt><trkpt lat="42.8143892" lon="6.2516555"><ele>0.0</ele><time>2026-04-30T20:37:54.071Z</time></trkpt><trkpt lat="42.8144333" lon="6.2517502"><ele>0.0</ele><time>2026-04-30T20:37:55.072Z</time></trkpt><trkpt lat="42.8144773" lon="6.2518423"><ele>0.0</ele><time>2026-04-30T20:37:56.071Z</time></trkpt><trkpt lat="42.8145233" lon="6.2519356"><ele>0.0</ele><time>2026-04-30T20:37:57.071Z</time></trkpt><trkpt lat="42.8145727" lon="6.2520284"><ele>0.0</ele><time>2026-04-30T20:37:58.072Z</time></trkpt><trkpt lat="42.8146247" lon="6.2521186"><ele>0.0</ele><time>2026-04-30T20:37:59.072Z</time></trkpt><trkpt lat="42.8146721" lon="6.2522117"><ele>0.0</ele><time>2026-04-30T20:38:00.071Z</time></trkpt><trkpt lat="42.8147186" lon="6.2523036"><ele>0.0</ele><time>2026-04-30T20:38:01.071Z</time></trkpt><trkpt lat="42.8147657" lon="6.2523948"><ele>0.0</ele><time>2026-04-30T20:38:02.071Z</time></trkpt><trkpt lat="42.8148106" lon="6.2524869"><ele>0.0</ele><time>2026-04-30T20:38:03.071Z</time></trkpt><trkpt lat="42.8148541" lon="6.2525768"><ele>0.0</ele><time>2026-04-30T20:38:04.071Z</time></trkpt><trkpt lat="42.8148956" lon="6.252671"><ele>0.0</ele><time>2026-04-30T20:38:05.072Z</time></trkpt><trkpt lat="42.81494" lon="6.2527664"><ele>0.0</ele><time>2026-04-30T20:38:06.071Z</time></trkpt><trkpt lat="42.8149835" lon="6.2528628"><ele>0.0</ele><time>2026-04-30T20:38:07.071Z</time></trkpt><trkpt lat="42.8150212" lon="6.2529656"><ele>0.0</ele><time>2026-04-30T20:38:08.072Z</time></trkpt><trkpt lat="42.815106" lon="6.2531623"><ele>0.0</ele><time>2026-04-30T20:38:10.071Z</time></trkpt><trkpt lat="42.8151542" lon="6.2532625"><ele>0.0</ele><time>2026-04-30T20:38:11.071Z</time></trkpt><trkpt lat="42.8151972" lon="6.2533613"><ele>0.0</ele><time>2026-04-30T20:38:12.071Z</time></trkpt><trkpt lat="42.8152386" lon="6.2534571"><ele>0.0</ele><time>2026-04-30T20:38:13.071Z</time></trkpt><trkpt lat="42.8152827" lon="6.2535561"><ele>0.0</ele><time>2026-04-30T20:38:14.071Z</time></trkpt><trkpt lat="42.8153253" lon="6.2536546"><ele>0.0</ele><time>2026-04-30T20:38:15.072Z</time></trkpt><trkpt lat="42.81537" lon="6.2537503"><ele>0.0</ele><time>2026-04-30T20:38:16.071Z</time></trkpt><trkpt lat="42.8154122" lon="6.2538451"><ele>0.0</ele><time>2026-04-30T20:38:17.072Z</time></trkpt><trkpt lat="42.8154535" lon="6.2539415"><ele>0.0</ele><time>2026-04-30T20:38:18.072Z</time></trkpt><trkpt lat="42.8155468" lon="6.2541338"><ele>0.0</ele><time>2026-04-30T20:38:20.071Z</time></trkpt><trkpt lat="42.8155948" lon="6.2542283"><ele>0.0</ele><time>2026-04-30T20:38:21.071Z</time></trkpt><trkpt lat="42.8156419" lon="6.2543217"><ele>0.0</ele><time>2026-04-30T20:38:22.071Z</time></trkpt><trkpt lat="42.8156843" lon="6.2544207"><ele>0.0</ele><time>2026-04-30T20:38:23.072Z</time></trkpt><trkpt lat="42.8157297" lon="6.2545157"><ele>0.0</ele><time>2026-04-30T20:38:24.071Z</time></trkpt><trkpt lat="42.8157744" lon="6.2546077"><ele>0.0</ele><time>2026-04-30T20:38:25.072Z</time></trkpt><trkpt lat="42.8158178" lon="6.2547006"><ele>0.0</ele><time>2026-04-30T20:38:26.071Z</time></trkpt><trkpt lat="42.8158598" lon="6.2548053"><ele>0.0</ele><time>2026-04-30T20:38:27.072Z</time></trkpt><trkpt lat="42.8159088" lon="6.254905"><ele>0.0</ele><time>2026-04-30T20:38:28.071Z</time></trkpt><trkpt lat="42.8159617" lon="6.2550044"><ele>0.0</ele><time>2026-04-30T20:38:29.071Z</time></trkpt><trkpt lat="42.8160489" lon="6.2552023"><ele>0.0</ele><time>2026-04-30T20:38:31.071Z</time></trkpt><trkpt lat="42.8161" lon="6.2552958"><ele>0.0</ele><time>2026-04-30T20:38:32.071Z</time></trkpt><trkpt lat="42.8161523" lon="6.2553874"><ele>0.0</ele><time>2026-04-30T20:38:33.072Z</time></trkpt><trkpt lat="42.8161957" lon="6.2554847"><ele>0.0</ele><time>2026-04-30T20:38:34.071Z</time></trkpt><trkpt lat="42.8162358" lon="6.2555831"><ele>0.0</ele><time>2026-04-30T20:38:35.071Z</time></trkpt><trkpt lat="42.8162767" lon="6.2556803"><ele>0.0</ele><time>2026-04-30T20:38:36.071Z</time></trkpt><trkpt lat="42.8163243" lon="6.2557738"><ele>0.0</ele><time>2026-04-30T20:38:37.071Z</time></trkpt><trkpt lat="42.8163726" lon="6.2558715"><ele>0.0</ele><time>2026-04-30T20:38:38.072Z</time></trkpt><trkpt lat="42.8164185" lon="6.2559668"><ele>0.0</ele><time>2026-04-30T20:38:39.072Z</time></trkpt><trkpt lat="42.816462" lon="6.2560588"><ele>0.0</ele><time>2026-04-30T20:38:40.071Z</time></trkpt><trkpt lat="42.8165035" lon="6.2561544"><ele>0.0</ele><time>2026-04-30T20:38:41.072Z</time></trkpt><trkpt lat="42.8165512" lon="6.2562485"><ele>0.0</ele><time>2026-04-30T20:38:42.072Z</time></trkpt><trkpt lat="42.8165979" lon="6.2563422"><ele>0.0</ele><time>2026-04-30T20:38:43.072Z</time></trkpt><trkpt lat="42.816642" lon="6.2564398"><ele>0.0</ele><time>2026-04-30T20:38:44.071Z</time></trkpt><trkpt lat="42.8166851" lon="6.2565335"><ele>0.0</ele><time>2026-04-30T20:38:45.072Z</time></trkpt><trkpt lat="42.8167284" lon="6.2566252"><ele>0.0</ele><time>2026-04-30T20:38:46.071Z</time></trkpt><trkpt lat="42.8167732" lon="6.2567212"><ele>0.0</ele><time>2026-04-30T20:38:47.071Z</time></trkpt><trkpt lat="42.8168217" lon="6.2568179"><ele>0.0</ele><time>2026-04-30T20:38:48.072Z</time></trkpt><trkpt lat="42.8168684" lon="6.2569133"><ele>0.0</ele><time>2026-04-30T20:38:49.072Z</time></trkpt><trkpt lat="42.8169135" lon="6.2570079"><ele>0.0</ele><time>2026-04-30T20:38:50.071Z</time></trkpt><trkpt lat="42.8169629" lon="6.2571028"><ele>0.0</ele><time>2026-04-30T20:38:51.071Z</time></trkpt><trkpt lat="42.8171079" lon="6.2573915"><ele>0.0</ele><time>2026-04-30T20:38:54.072Z</time></trkpt><trkpt lat="42.8171629" lon="6.2574806"><ele>0.0</ele><time>2026-04-30T20:38:55.071Z</time></trkpt><trkpt lat="42.8172107" lon="6.2575729"><ele>0.0</ele><time>2026-04-30T20:38:56.071Z</time></trkpt><trkpt lat="42.8172498" lon="6.2576707"><ele>0.0</ele><time>2026-04-30T20:38:57.071Z</time></trkpt><trkpt lat="42.8172922" lon="6.2577683"><ele>0.0</ele><time>2026-04-30T20:38:58.071Z</time></trkpt><trkpt lat="42.8173309" lon="6.2578675"><ele>0.0</ele><time>2026-04-30T20:38:59.071Z</time></trkpt><trkpt lat="42.8173763" lon="6.2579616"><ele>0.0</ele><time>2026-04-30T20:39:00.071Z</time></trkpt><trkpt lat="42.8174246" lon="6.2580549"><ele>0.0</ele><time>2026-04-30T20:39:01.071Z</time></trkpt><trkpt lat="42.8174716" lon="6.2581498"><ele>0.0</ele><time>2026-04-30T20:39:02.071Z</time></trkpt><trkpt lat="42.8175168" lon="6.2582452"><ele>0.0</ele><time>2026-04-30T20:39:03.071Z</time></trkpt><trkpt lat="42.8175629" lon="6.2583387"><ele>0.0</ele><time>2026-04-30T20:39:04.072Z</time></trkpt><trkpt lat="42.8176066" lon="6.2584361"><ele>0.0</ele><time>2026-04-30T20:39:05.071Z</time></trkpt><trkpt lat="42.8176499" lon="6.2585333"><ele>0.0</ele><time>2026-04-30T20:39:06.071Z</time></trkpt><trkpt lat="42.8176907" lon="6.2586315"><ele>0.0</ele><time>2026-04-30T20:39:07.071Z</time></trkpt><trkpt lat="42.8177275" lon="6.2587325"><ele>0.0</ele><time>2026-04-30T20:39:08.072Z</time></trkpt><trkpt lat="42.8177611" lon="6.2588344"><ele>0.0</ele><time>2026-04-30T20:39:09.071Z</time></trkpt><trkpt lat="42.8177971" lon="6.2589409"><ele>0.0</ele><time>2026-04-30T20:39:10.072Z</time></trkpt><trkpt lat="42.8178397" lon="6.2590387"><ele>0.0</ele><time>2026-04-30T20:39:11.071Z</time></trkpt><trkpt lat="42.81788" lon="6.2591384"><ele>0.0</ele><time>2026-04-30T20:39:12.071Z</time></trkpt><trkpt lat="42.8179215" lon="6.2592368"><ele>0.0</ele><time>2026-04-30T20:39:13.071Z</time></trkpt><trkpt lat="42.8180036" lon="6.25943"><ele>0.0</ele><time>2026-04-30T20:39:15.071Z</time></trkpt><trkpt lat="42.8180481" lon="6.2595312"><ele>0.0</ele><time>2026-04-30T20:39:16.072Z</time></trkpt><trkpt lat="42.8181005" lon="6.2596231"><ele>0.0</ele><time>2026-04-30T20:39:17.072Z</time></trkpt><trkpt lat="42.8181493" lon="6.2597168"><ele>0.0</ele><time>2026-04-30T20:39:18.072Z</time></trkpt><trkpt lat="42.818202" lon="6.2598145"><ele>0.0</ele><time>2026-04-30T20:39:19.072Z</time></trkpt><trkpt lat="42.81825" lon="6.2599131"><ele>0.0</ele><time>2026-04-30T20:39:20.072Z</time></trkpt><trkpt lat="42.8183039" lon="6.2600044"><ele>0.0</ele><time>2026-04-30T20:39:21.071Z</time></trkpt><trkpt lat="42.8183572" lon="6.2600986"><ele>0.0</ele><time>2026-04-30T20:39:22.071Z</time></trkpt><trkpt lat="42.818405" lon="6.2601936"><ele>0.0</ele><time>2026-04-30T20:39:23.071Z</time></trkpt><trkpt lat="42.8185056" lon="6.260373"><ele>0.0</ele><time>2026-04-30T20:39:25.072Z</time></trkpt><trkpt lat="42.8185548" lon="6.2604677"><ele>0.0</ele><time>2026-04-30T20:39:26.071Z</time></trkpt><trkpt lat="42.8186059" lon="6.2605589"><ele>0.0</ele><time>2026-04-30T20:39:27.071Z</time></trkpt><trkpt lat="42.8186546" lon="6.2606548"><ele>0.0</ele><time>2026-04-30T20:39:28.072Z</time></trkpt><trkpt lat="42.8186998" lon="6.2607487"><ele>0.0</ele><time>2026-04-30T20:39:29.072Z</time></trkpt><trkpt lat="42.8187478" lon="6.2608378"><ele>0.0</ele><time>2026-04-30T20:39:30.071Z</time></trkpt><trkpt lat="42.8187919" lon="6.2609299"><ele>0.0</ele><time>2026-04-30T20:39:31.071Z</time></trkpt><trkpt lat="42.8188346" lon="6.2610258"><ele>0.0</ele><time>2026-04-30T20:39:32.071Z</time></trkpt><trkpt lat="42.8188789" lon="6.2611216"><ele>0.0</ele><time>2026-04-30T20:39:33.071Z</time></trkpt><trkpt lat="42.8189248" lon="6.2612164"><ele>0.0</ele><time>2026-04-30T20:39:34.072Z</time></trkpt><trkpt lat="42.8190155" lon="6.2614112"><ele>0.0</ele><time>2026-04-30T20:39:36.071Z</time></trkpt><trkpt lat="42.8190605" lon="6.2615083"><ele>0.0</ele><time>2026-04-30T20:39:37.071Z</time></trkpt><trkpt lat="42.8191026" lon="6.2616047"><ele>0.0</ele><time>2026-04-30T20:39:38.072Z</time></trkpt><trkpt lat="42.8191449" lon="6.2617014"><ele>0.0</ele><time>2026-04-30T20:39:39.072Z</time></trkpt><trkpt lat="42.8191897" lon="6.2617955"><ele>0.0</ele><time>2026-04-30T20:39:40.072Z</time></trkpt><trkpt lat="42.8192364" lon="6.2618901"><ele>0.0</ele><time>2026-04-30T20:39:41.071Z</time></trkpt><trkpt lat="42.8192819" lon="6.2619905"><ele>0.0</ele><time>2026-04-30T20:39:42.072Z</time></trkpt><trkpt lat="42.819327" lon="6.2620893"><ele>0.0</ele><time>2026-04-30T20:39:43.072Z</time></trkpt><trkpt lat="42.8193733" lon="6.2621851"><ele>0.0</ele><time>2026-04-30T20:39:44.071Z</time></trkpt><trkpt lat="42.8194246" lon="6.2622783"><ele>0.0</ele><time>2026-04-30T20:39:45.071Z</time></trkpt><trkpt lat="42.8194719" lon="6.2623708"><ele>0.0</ele><time>2026-04-30T20:39:46.072Z</time></trkpt><trkpt lat="42.8195156" lon="6.2624662"><ele>0.0</ele><time>2026-04-30T20:39:47.072Z</time></trkpt><trkpt lat="42.81956" lon="6.2625631"><ele>0.0</ele><time>2026-04-30T20:39:48.072Z</time></trkpt><trkpt lat="42.8196094" lon="6.2626577"><ele>0.0</ele><time>2026-04-30T20:39:49.071Z</time></trkpt><trkpt lat="42.8196596" lon="6.2627502"><ele>0.0</ele><time>2026-04-30T20:39:50.071Z</time></trkpt><trkpt lat="42.8197111" lon="6.2628391"><ele>0.0</ele><time>2026-04-30T20:39:51.072Z</time></trkpt><trkpt lat="42.8197671" lon="6.2629274"><ele>0.0</ele><time>2026-04-30T20:39:52.071Z</time></trkpt><trkpt lat="42.819817" lon="6.2630182"><ele>0.0</ele><time>2026-04-30T20:39:53.071Z</time></trkpt><trkpt lat="42.8198694" lon="6.2631099"><ele>0.0</ele><time>2026-04-30T20:39:54.071Z</time></trkpt><trkpt lat="42.8199215" lon="6.2631999"><ele>0.0</ele><time>2026-04-30T20:39:55.071Z</time></trkpt><trkpt lat="42.819966" lon="6.2632985"><ele>0.0</ele><time>2026-04-30T20:39:56.071Z</time></trkpt><trkpt lat="42.8200512" lon="6.2635005"><ele>0.0</ele><time>2026-04-30T20:39:58.071Z</time></trkpt><trkpt lat="42.8200957" lon="6.2635974"><ele>0.0</ele><time>2026-04-30T20:39:59.072Z</time></trkpt><trkpt lat="42.8201601" lon="6.2636732"><ele>0.0</ele><time>2026-04-30T20:40:00.071Z</time></trkpt><trkpt lat="42.820204" lon="6.2637714"><ele>0.0</ele><time>2026-04-30T20:40:01.072Z</time></trkpt><trkpt lat="42.820248" lon="6.2638695"><ele>0.0</ele><time>2026-04-30T20:40:02.071Z</time></trkpt><trkpt lat="42.8202915" lon="6.2639674"><ele>0.0</ele><time>2026-04-30T20:40:03.071Z</time></trkpt><trkpt lat="42.8203295" lon="6.264063"><ele>0.0</ele><time>2026-04-30T20:40:04.072Z</time></trkpt><trkpt lat="42.8203629" lon="6.2641638"><ele>0.0</ele><time>2026-04-30T20:40:05.072Z</time></trkpt><trkpt lat="42.8204018" lon="6.2642573"><ele>0.0</ele><time>2026-04-30T20:40:06.071Z</time></trkpt><trkpt lat="42.8204443" lon="6.2643517"><ele>0.0</ele><time>2026-04-30T20:40:07.072Z</time></trkpt><trkpt lat="42.8204927" lon="6.2644439"><ele>0.0</ele><time>2026-04-30T20:40:08.071Z</time></trkpt><trkpt lat="42.8205427" lon="6.2645327"><ele>0.0</ele><time>2026-04-30T20:40:09.072Z</time></trkpt><trkpt lat="42.8205886" lon="6.264628"><ele>0.0</ele><time>2026-04-30T20:40:10.072Z</time></trkpt><trkpt lat="42.8206364" lon="6.2647206"><ele>0.0</ele><time>2026-04-30T20:40:11.072Z</time></trkpt><trkpt lat="42.8206803" lon="6.2648148"><ele>0.0</ele><time>2026-04-30T20:40:12.072Z</time></trkpt><trkpt lat="42.820725" lon="6.2649102"><ele>0.0</ele><time>2026-04-30T20:40:13.072Z</time></trkpt><trkpt lat="42.8207705" lon="6.2650091"><ele>0.0</ele><time>2026-04-30T20:40:14.071Z</time></trkpt><trkpt lat="42.8208155" lon="6.2651051"><ele>0.0</ele><time>2026-04-30T20:40:15.072Z</time></trkpt><trkpt lat="42.8208532" lon="6.2652016"><ele>0.0</ele><time>2026-04-30T20:40:16.071Z</time></trkpt><trkpt lat="42.8208977" lon="6.2652964"><ele>0.0</ele><time>2026-04-30T20:40:17.071Z</time></trkpt><trkpt lat="42.8209911" lon="6.2654856"><ele>0.0</ele><time>2026-04-30T20:40:19.071Z</time></trkpt><trkpt lat="42.8210406" lon="6.2655772"><ele>0.0</ele><time>2026-04-30T20:40:20.071Z</time></trkpt><trkpt lat="42.8210918" lon="6.2656687"><ele>0.0</ele><time>2026-04-30T20:40:21.072Z</time></trkpt><trkpt lat="42.8211422" lon="6.2657619"><ele>0.0</ele><time>2026-04-30T20:40:22.071Z</time></trkpt><trkpt lat="42.8211924" lon="6.2658553"><ele>0.0</ele><time>2026-04-30T20:40:23.071Z</time></trkpt><trkpt lat="42.8212453" lon="6.2659486"><ele>0.0</ele><time>2026-04-30T20:40:24.072Z</time></trkpt><trkpt lat="42.8212989" lon="6.2660417"><ele>0.0</ele><time>2026-04-30T20:40:25.071Z</time></trkpt><trkpt lat="42.8213496" lon="6.2661362"><ele>0.0</ele><time>2026-04-30T20:40:26.072Z</time></trkpt><trkpt lat="42.8213993" lon="6.2662287"><ele>0.0</ele><time>2026-04-30T20:40:27.072Z</time></trkpt><trkpt lat="42.8214864" lon="6.2664186"><ele>0.0</ele><time>2026-04-30T20:40:29.072Z</time></trkpt><trkpt lat="42.8215317" lon="6.2665132"><ele>0.0</ele><time>2026-04-30T20:40:30.072Z</time></trkpt><trkpt lat="42.8215776" lon="6.2666093"><ele>0.0</ele><time>2026-04-30T20:40:31.071Z</time></trkpt><trkpt lat="42.8216263" lon="6.266702"><ele>0.0</ele><time>2026-04-30T20:40:32.071Z</time></trkpt><trkpt lat="42.8216773" lon="6.266794"><ele>0.0</ele><time>2026-04-30T20:40:33.071Z</time></trkpt><trkpt lat="42.8217224" lon="6.2668866"><ele>0.0</ele><time>2026-04-30T20:40:34.072Z</time></trkpt><trkpt lat="42.8217684" lon="6.2669829"><ele>0.0</ele><time>2026-04-30T20:40:35.071Z</time></trkpt><trkpt lat="42.8218193" lon="6.2670739"><ele>0.0</ele><time>2026-04-30T20:40:36.072Z</time></trkpt><trkpt lat="42.8218738" lon="6.2671648"><ele>0.0</ele><time>2026-04-30T20:40:37.071Z</time></trkpt><trkpt lat="42.8219293" lon="6.2672569"><ele>0.0</ele><time>2026-04-30T20:40:38.071Z</time></trkpt><trkpt lat="42.822041" lon="6.2674323"><ele>0.0</ele><time>2026-04-30T20:40:40.072Z</time></trkpt><trkpt lat="42.8220946" lon="6.2675217"><ele>0.0</ele><time>2026-04-30T20:40:41.071Z</time></trkpt><trkpt lat="42.8221438" lon="6.2676189"><ele>0.0</ele><time>2026-04-30T20:40:42.072Z</time></trkpt><trkpt lat="42.8221845" lon="6.2677148"><ele>0.0</ele><time>2026-04-30T20:40:43.072Z</time></trkpt><trkpt lat="42.8222242" lon="6.2678126"><ele>0.0</ele><time>2026-04-30T20:40:44.072Z</time></trkpt><trkpt lat="42.8222698" lon="6.2679093"><ele>0.0</ele><time>2026-04-30T20:40:45.072Z</time></trkpt><trkpt lat="42.8223155" lon="6.2680063"><ele>0.0</ele><time>2026-04-30T20:40:46.071Z</time></trkpt><trkpt lat="42.8223563" lon="6.2681099"><ele>0.0</ele><time>2026-04-30T20:40:47.072Z</time></trkpt><trkpt lat="42.8223975" lon="6.2682107"><ele>0.0</ele><time>2026-04-30T20:40:48.071Z</time></trkpt><trkpt lat="42.8224379" lon="6.2683078"><ele>0.0</ele><time>2026-04-30T20:40:49.071Z</time></trkpt><trkpt lat="42.8224825" lon="6.2684042"><ele>0.0</ele><time>2026-04-30T20:40:50.072Z</time></trkpt><trkpt lat="42.8225216" lon="6.268501"><ele>0.0</ele><time>2026-04-30T20:40:51.071Z</time></trkpt><trkpt lat="42.8225623" lon="6.2685976"><ele>0.0</ele><time>2026-04-30T20:40:52.072Z</time></trkpt><trkpt lat="42.8226053" lon="6.2686944"><ele>0.0</ele><time>2026-04-30T20:40:53.071Z</time></trkpt><trkpt lat="42.8226517" lon="6.268785"><ele>0.0</ele><time>2026-04-30T20:40:54.072Z</time></trkpt><trkpt lat="42.8226998" lon="6.2688794"><ele>0.0</ele><time>2026-04-30T20:40:55.072Z</time></trkpt><trkpt lat="42.8227484" lon="6.268973"><ele>0.0</ele><time>2026-04-30T20:40:56.071Z</time></trkpt><trkpt lat="42.8227998" lon="6.2690677"><ele>0.0</ele><time>2026-04-30T20:40:57.071Z</time></trkpt><trkpt lat="42.8228428" lon="6.2691726"><ele>0.0</ele><time>2026-04-30T20:40:58.072Z</time></trkpt><trkpt lat="42.8228866" lon="6.269272"><ele>0.0</ele><time>2026-04-30T20:40:59.072Z</time></trkpt><trkpt lat="42.8229237" lon="6.2693736"><ele>0.0</ele><time>2026-04-30T20:41:00.071Z</time></trkpt><trkpt lat="42.8229914" lon="6.2695808"><ele>0.0</ele><time>2026-04-30T20:41:02.071Z</time></trkpt><trkpt lat="42.8230317" lon="6.26968"><ele>0.0</ele><time>2026-04-30T20:41:03.072Z</time></trkpt><trkpt lat="42.8230742" lon="6.2697767"><ele>0.0</ele><time>2026-04-30T20:41:04.072Z</time></trkpt><trkpt lat="42.823112" lon="6.2698791"><ele>0.0</ele><time>2026-04-30T20:41:05.071Z</time></trkpt><trkpt lat="42.8231516" lon="6.2699799"><ele>0.0</ele><time>2026-04-30T20:41:06.071Z</time></trkpt><trkpt lat="42.8231945" lon="6.2700755"><ele>0.0</ele><time>2026-04-30T20:41:07.071Z</time></trkpt><trkpt lat="42.8232408" lon="6.2701676"><ele>0.0</ele><time>2026-04-30T20:41:08.071Z</time></trkpt><trkpt lat="42.8232923" lon="6.2702593"><ele>0.0</ele><time>2026-04-30T20:41:09.071Z</time></trkpt><trkpt lat="42.8233381" lon="6.2703552"><ele>0.0</ele><time>2026-04-30T20:41:10.072Z</time></trkpt><trkpt lat="42.8233816" lon="6.270449"><ele>0.0</ele><time>2026-04-30T20:41:11.071Z</time></trkpt><trkpt lat="42.8234233" lon="6.270544"><ele>0.0</ele><time>2026-04-30T20:41:12.071Z</time></trkpt><trkpt lat="42.8234635" lon="6.2706359"><ele>0.0</ele><time>2026-04-30T20:41:13.071Z</time></trkpt><trkpt lat="42.8235077" lon="6.2707277"><ele>0.0</ele><time>2026-04-30T20:41:14.072Z</time></trkpt><trkpt lat="42.8235586" lon="6.2708223"><ele>0.0</ele><time>2026-04-30T20:41:15.072Z</time></trkpt><trkpt lat="42.8236066" lon="6.2709212"><ele>0.0</ele><time>2026-04-30T20:41:16.071Z</time></trkpt><trkpt lat="42.8236574" lon="6.2710173"><ele>0.0</ele><time>2026-04-30T20:41:17.072Z</time></trkpt><trkpt lat="42.8237" lon="6.2711186"><ele>0.0</ele><time>2026-04-30T20:41:18.071Z</time></trkpt><trkpt lat="42.8237434" lon="6.2712191"><ele>0.0</ele><time>2026-04-30T20:41:19.071Z</time></trkpt><trkpt lat="42.823788" lon="6.2713167"><ele>0.0</ele><time>2026-04-30T20:41:20.071Z</time></trkpt><trkpt lat="42.8238347" lon="6.2714115"><ele>0.0</ele><time>2026-04-30T20:41:21.071Z</time></trkpt><trkpt lat="42.8239269" lon="6.2716077"><ele>0.0</ele><time>2026-04-30T20:41:23.072Z</time></trkpt><trkpt lat="42.8239734" lon="6.2717076"><ele>0.0</ele><time>2026-04-30T20:41:24.071Z</time></trkpt><trkpt lat="42.8240185" lon="6.2718063"><ele>0.0</ele><time>2026-04-30T20:41:25.071Z</time></trkpt><trkpt lat="42.8240693" lon="6.2719002"><ele>0.0</ele><time>2026-04-30T20:41:26.072Z</time></trkpt><trkpt lat="42.8241178" lon="6.2719966"><ele>0.0</ele><time>2026-04-30T20:41:27.072Z</time></trkpt><trkpt lat="42.8241653" lon="6.2720927"><ele>0.0</ele><time>2026-04-30T20:41:28.072Z</time></trkpt><trkpt lat="42.8242091" lon="6.2721872"><ele>0.0</ele><time>2026-04-30T20:41:29.071Z</time></trkpt><trkpt lat="42.8242549" lon="6.2722793"><ele>0.0</ele><time>2026-04-30T20:41:30.072Z</time></trkpt><trkpt lat="42.8243016" lon="6.272372"><ele>0.0</ele><time>2026-04-30T20:41:31.072Z</time></trkpt><trkpt lat="42.8243901" lon="6.2725653"><ele>0.0</ele><time>2026-04-30T20:41:33.071Z</time></trkpt><trkpt lat="42.8244358" lon="6.2726581"><ele>0.0</ele><time>2026-04-30T20:41:34.071Z</time></trkpt><trkpt lat="42.8244807" lon="6.2727533"><ele>0.0</ele><time>2026-04-30T20:41:35.071Z</time></trkpt><trkpt lat="42.8245268" lon="6.2728487"><ele>0.0</ele><time>2026-04-30T20:41:36.072Z</time></trkpt><trkpt lat="42.8245763" lon="6.2729408"><ele>0.0</ele><time>2026-04-30T20:41:37.071Z</time></trkpt><trkpt lat="42.8246256" lon="6.2730313"><ele>0.0</ele><time>2026-04-30T20:41:38.072Z</time></trkpt><trkpt lat="42.824676" lon="6.273125"><ele>0.0</ele><time>2026-04-30T20:41:39.071Z</time></trkpt><trkpt lat="42.8247249" lon="6.2732226"><ele>0.0</ele><time>2026-04-30T20:41:40.072Z</time></trkpt><trkpt lat="42.8247732" lon="6.2733199"><ele>0.0</ele><time>2026-04-30T20:41:41.072Z</time></trkpt><trkpt lat="42.8248133" lon="6.2734151"><ele>0.0</ele><time>2026-04-30T20:41:42.071Z</time></trkpt><trkpt lat="42.8248984" lon="6.273597"><ele>0.0</ele><time>2026-04-30T20:41:44.071Z</time></trkpt><trkpt lat="42.8249451" lon="6.2736899"><ele>0.0</ele><time>2026-04-30T20:41:45.071Z</time></trkpt><trkpt lat="42.8249929" lon="6.2737879"><ele>0.0</ele><time>2026-04-30T20:41:46.072Z</time></trkpt><trkpt lat="42.8250344" lon="6.2738834"><ele>0.0</ele><time>2026-04-30T20:41:47.071Z</time></trkpt><trkpt lat="42.8250826" lon="6.2739801"><ele>0.0</ele><time>2026-04-30T20:41:48.072Z</time></trkpt><trkpt lat="42.8251256" lon="6.2740776"><ele>0.0</ele><time>2026-04-30T20:41:49.071Z</time></trkpt><trkpt lat="42.8251704" lon="6.2741741"><ele>0.0</ele><time>2026-04-30T20:41:50.071Z</time></trkpt><trkpt lat="42.8252209" lon="6.2742667"><ele>0.0</ele><time>2026-04-30T20:41:51.071Z</time></trkpt><trkpt lat="42.8252716" lon="6.2743582"><ele>0.0</ele><time>2026-04-30T20:41:52.071Z</time></trkpt><trkpt lat="42.8253196" lon="6.2744458"><ele>0.0</ele><time>2026-04-30T20:41:53.072Z</time></trkpt><trkpt lat="42.8253701" lon="6.2745361"><ele>0.0</ele><time>2026-04-30T20:41:54.071Z</time></trkpt><trkpt lat="42.8254215" lon="6.2746249"><ele>0.0</ele><time>2026-04-30T20:41:55.072Z</time></trkpt><trkpt lat="42.825472" lon="6.2747165"><ele>0.0</ele><time>2026-04-30T20:41:56.071Z</time></trkpt><trkpt lat="42.8255234" lon="6.2748124"><ele>0.0</ele><time>2026-04-30T20:41:57.071Z</time></trkpt><trkpt lat="42.8255724" lon="6.2749092"><ele>0.0</ele><time>2026-04-30T20:41:58.071Z</time></trkpt><trkpt lat="42.8256217" lon="6.275006"><ele>0.0</ele><time>2026-04-30T20:41:59.071Z</time></trkpt><trkpt lat="42.8256718" lon="6.2751011"><ele>0.0</ele><time>2026-04-30T20:42:00.071Z</time></trkpt><trkpt lat="42.82572" lon="6.2751993"><ele>0.0</ele><time>2026-04-30T20:42:01.072Z</time></trkpt><trkpt lat="42.8257628" lon="6.2752992"><ele>0.0</ele><time>2026-04-30T20:42:02.072Z</time></trkpt><trkpt lat="42.8258053" lon="6.2753978"><ele>0.0</ele><time>2026-04-30T20:42:03.072Z</time></trkpt><trkpt lat="42.8258503" lon="6.2754946"><ele>0.0</ele><time>2026-04-30T20:42:04.071Z</time></trkpt><trkpt lat="42.8259852" lon="6.2757883"><ele>0.0</ele><time>2026-04-30T20:42:07.071Z</time></trkpt><trkpt lat="42.8260272" lon="6.2758823"><ele>0.0</ele><time>2026-04-30T20:42:08.071Z</time></trkpt><trkpt lat="42.82607" lon="6.2759772"><ele>0.0</ele><time>2026-04-30T20:42:09.071Z</time></trkpt><trkpt lat="42.8261119" lon="6.2760735"><ele>0.0</ele><time>2026-04-30T20:42:10.071Z</time></trkpt><trkpt lat="42.8261491" lon="6.2761745"><ele>0.0</ele><time>2026-04-30T20:42:11.071Z</time></trkpt><trkpt lat="42.8261912" lon="6.2762736"><ele>0.0</ele><time>2026-04-30T20:42:12.072Z</time></trkpt><trkpt lat="42.8262391" lon="6.2763736"><ele>0.0</ele><time>2026-04-30T20:42:13.071Z</time></trkpt><trkpt lat="42.8262879" lon="6.2764659"><ele>0.0</ele><time>2026-04-30T20:42:14.071Z</time></trkpt><trkpt lat="42.8263377" lon="6.2765563"><ele>0.0</ele><time>2026-04-30T20:42:15.072Z</time></trkpt><trkpt lat="42.8263847" lon="6.2766493"><ele>0.0</ele><time>2026-04-30T20:42:16.071Z</time></trkpt><trkpt lat="42.8264299" lon="6.2767405"><ele>0.0</ele><time>2026-04-30T20:42:17.071Z</time></trkpt><trkpt lat="42.8264751" lon="6.276831"><ele>0.0</ele><time>2026-04-30T20:42:18.072Z</time></trkpt><trkpt lat="42.8265197" lon="6.2769196"><ele>0.0</ele><time>2026-04-30T20:42:19.071Z</time></trkpt><trkpt lat="42.8265665" lon="6.2770104"><ele>0.0</ele><time>2026-04-30T20:42:20.071Z</time></trkpt><trkpt lat="42.8266058" lon="6.2771108"><ele>0.0</ele><time>2026-04-30T20:42:21.072Z</time></trkpt><trkpt lat="42.8266497" lon="6.2772071"><ele>0.0</ele><time>2026-04-30T20:42:22.071Z</time></trkpt><trkpt lat="42.8266961" lon="6.2773036"><ele>0.0</ele><time>2026-04-30T20:42:23.072Z</time></trkpt><trkpt lat="42.8267402" lon="6.2774027"><ele>0.0</ele><time>2026-04-30T20:42:24.071Z</time></trkpt><trkpt lat="42.8267838" lon="6.2775"><ele>0.0</ele><time>2026-04-30T20:42:25.072Z</time></trkpt><trkpt lat="42.8268269" lon="6.2775965"><ele>0.0</ele><time>2026-04-30T20:42:26.071Z</time></trkpt><trkpt lat="42.8269336" lon="6.277756"><ele>0.0</ele><time>2026-04-30T20:42:28.071Z</time></trkpt><trkpt lat="42.8269789" lon="6.2778474"><ele>0.0</ele><time>2026-04-30T20:42:29.072Z</time></trkpt><trkpt lat="42.8270201" lon="6.2779507"><ele>0.0</ele><time>2026-04-30T20:42:30.071Z</time></trkpt><trkpt lat="42.8270653" lon="6.2780479"><ele>0.0</ele><time>2026-04-30T20:42:31.072Z</time></trkpt><trkpt lat="42.8271101" lon="6.2781447"><ele>0.0</ele><time>2026-04-30T20:42:32.072Z</time></trkpt><trkpt lat="42.8271551" lon="6.2782401"><ele>0.0</ele><time>2026-04-30T20:42:33.071Z</time></trkpt><trkpt lat="42.8271989" lon="6.2783378"><ele>0.0</ele><time>2026-04-30T20:42:34.071Z</time></trkpt><trkpt lat="42.8272508" lon="6.2784333"><ele>0.0</ele><time>2026-04-30T20:42:35.072Z</time></trkpt><trkpt lat="42.8272999" lon="6.2785273"><ele>0.0</ele><time>2026-04-30T20:42:36.071Z</time></trkpt><trkpt lat="42.8273952" lon="6.2787161"><ele>0.0</ele><time>2026-04-30T20:42:38.072Z</time></trkpt><trkpt lat="42.827444" lon="6.2788125"><ele>0.0</ele><time>2026-04-30T20:42:39.072Z</time></trkpt><trkpt lat="42.8274891" lon="6.278905"><ele>0.0</ele><time>2026-04-30T20:42:40.072Z</time></trkpt><trkpt lat="42.8275326" lon="6.2790009"><ele>0.0</ele><time>2026-04-30T20:42:41.071Z</time></trkpt><trkpt lat="42.8275756" lon="6.2790968"><ele>0.0</ele><time>2026-04-30T20:42:42.072Z</time></trkpt><trkpt lat="42.8276185" lon="6.2791919"><ele>0.0</ele><time>2026-04-30T20:42:43.071Z</time></trkpt><trkpt lat="42.8276631" lon="6.2792838"><ele>0.0</ele><time>2026-04-30T20:42:44.072Z</time></trkpt><trkpt lat="42.8277106" lon="6.2793788"><ele>0.0</ele><time>2026-04-30T20:42:45.071Z</time></trkpt><trkpt lat="42.8277551" lon="6.2794748"><ele>0.0</ele><time>2026-04-30T20:42:46.071Z</time></trkpt><trkpt lat="42.827804" lon="6.2795718"><ele>0.0</ele><time>2026-04-30T20:42:47.071Z</time></trkpt><trkpt lat="42.8278954" lon="6.2797663"><ele>0.0</ele><time>2026-04-30T20:42:49.072Z</time></trkpt><trkpt lat="42.8279415" lon="6.2798587"><ele>0.0</ele><time>2026-04-30T20:42:50.071Z</time></trkpt><trkpt lat="42.8279897" lon="6.2799518"><ele>0.0</ele><time>2026-04-30T20:42:51.071Z</time></trkpt><trkpt lat="42.8280417" lon="6.2800404"><ele>0.0</ele><time>2026-04-30T20:42:52.071Z</time></trkpt><trkpt lat="42.8280904" lon="6.2801327"><ele>0.0</ele><time>2026-04-30T20:42:53.072Z</time></trkpt><trkpt lat="42.8281371" lon="6.2802248"><ele>0.0</ele><time>2026-04-30T20:42:54.071Z</time></trkpt><trkpt lat="42.8281883" lon="6.2803149"><ele>0.0</ele><time>2026-04-30T20:42:55.071Z</time></trkpt><trkpt lat="42.8282389" lon="6.2804075"><ele>0.0</ele><time>2026-04-30T20:42:56.072Z</time></trkpt><trkpt lat="42.8282861" lon="6.2805066"><ele>0.0</ele><time>2026-04-30T20:42:57.072Z</time></trkpt><trkpt lat="42.8283252" lon="6.2806023"><ele>0.0</ele><time>2026-04-30T20:42:58.072Z</time></trkpt><trkpt lat="42.8283674" lon="6.2807048"><ele>0.0</ele><time>2026-04-30T20:42:59.071Z</time></trkpt><trkpt lat="42.8284137" lon="6.2808064"><ele>0.0</ele><time>2026-04-30T20:43:00.071Z</time></trkpt><trkpt lat="42.8284576" lon="6.2809097"><ele>0.0</ele><time>2026-04-30T20:43:01.071Z</time></trkpt><trkpt lat="42.8285042" lon="6.2810089"><ele>0.0</ele><time>2026-04-30T20:43:02.071Z</time></trkpt><trkpt lat="42.8285507" lon="6.2811028"><ele>0.0</ele><time>2026-04-30T20:43:03.072Z</time></trkpt><trkpt lat="42.8285934" lon="6.2812147"><ele>0.0</ele><time>2026-04-30T20:43:04.072Z</time></trkpt><trkpt lat="42.8286359" lon="6.2813143"><ele>0.0</ele><time>2026-04-30T20:43:05.071Z</time></trkpt><trkpt lat="42.8286775" lon="6.2814157"><ele>0.0</ele><time>2026-04-30T20:43:06.071Z</time></trkpt><trkpt lat="42.8287279" lon="6.2815076"><ele>0.0</ele><time>2026-04-30T20:43:07.072Z</time></trkpt><trkpt lat="42.8287764" lon="6.2815974"><ele>0.0</ele><time>2026-04-30T20:43:08.071Z</time></trkpt><trkpt lat="42.8289162" lon="6.2818757"><ele>0.0</ele><time>2026-04-30T20:43:11.072Z</time></trkpt><trkpt lat="42.8289566" lon="6.2819724"><ele>0.0</ele><time>2026-04-30T20:43:12.071Z</time></trkpt><trkpt lat="42.8289965" lon="6.282069"><ele>0.0</ele><time>2026-04-30T20:43:13.072Z</time></trkpt><trkpt lat="42.829039" lon="6.2821673"><ele>0.0</ele><time>2026-04-30T20:43:14.072Z</time></trkpt><trkpt lat="42.8290779" lon="6.2822648"><ele>0.0</ele><time>2026-04-30T20:43:15.072Z</time></trkpt><trkpt lat="42.829117" lon="6.2823615"><ele>0.0</ele><time>2026-04-30T20:43:16.072Z</time></trkpt><trkpt lat="42.8291555" lon="6.2824613"><ele>0.0</ele><time>2026-04-30T20:43:17.072Z</time></trkpt><trkpt lat="42.8292015" lon="6.2825523"><ele>0.0</ele><time>2026-04-30T20:43:18.072Z</time></trkpt><trkpt lat="42.8292509" lon="6.282642"><ele>0.0</ele><time>2026-04-30T20:43:19.071Z</time></trkpt><trkpt lat="42.8292941" lon="6.2827359"><ele>0.0</ele><time>2026-04-30T20:43:20.072Z</time></trkpt><trkpt lat="42.8293419" lon="6.2828255"><ele>0.0</ele><time>2026-04-30T20:43:21.072Z</time></trkpt><trkpt lat="42.8293929" lon="6.2829109"><ele>0.0</ele><time>2026-04-30T20:43:22.072Z</time></trkpt><trkpt lat="42.8294432" lon="6.2829998"><ele>0.0</ele><time>2026-04-30T20:43:23.071Z</time></trkpt><trkpt lat="42.8294949" lon="6.2830932"><ele>0.0</ele><time>2026-04-30T20:43:24.071Z</time></trkpt><trkpt lat="42.8295438" lon="6.2831866"><ele>0.0</ele><time>2026-04-30T20:43:25.071Z</time></trkpt><trkpt lat="42.8295865" lon="6.2832798"><ele>0.0</ele><time>2026-04-30T20:43:26.072Z</time></trkpt><trkpt lat="42.829633" lon="6.2833706"><ele>0.0</ele><time>2026-04-30T20:43:27.071Z</time></trkpt><trkpt lat="42.8296783" lon="6.2834635"><ele>0.0</ele><time>2026-04-30T20:43:28.071Z</time></trkpt><trkpt lat="42.8297308" lon="6.2835523"><ele>0.0</ele><time>2026-04-30T20:43:29.071Z</time></trkpt><trkpt lat="42.8297783" lon="6.2836465"><ele>0.0</ele><time>2026-04-30T20:43:30.071Z</time></trkpt><trkpt lat="42.8298685" lon="6.2838374"><ele>0.0</ele><time>2026-04-30T20:43:32.071Z</time></trkpt><trkpt lat="42.8299166" lon="6.2839315"><ele>0.0</ele><time>2026-04-30T20:43:33.071Z</time></trkpt><trkpt lat="42.8299623" lon="6.2840233"><ele>0.0</ele><time>2026-04-30T20:43:34.071Z</time></trkpt><trkpt lat="42.8300084" lon="6.2841134"><ele>0.0</ele><time>2026-04-30T20:43:35.071Z</time></trkpt><trkpt lat="42.8300554" lon="6.2842032"><ele>0.0</ele><time>2026-04-30T20:43:36.072Z</time></trkpt><trkpt lat="42.8300938" lon="6.2843187"><ele>0.0</ele><time>2026-04-30T20:43:37.071Z</time></trkpt><trkpt lat="42.8301421" lon="6.2844134"><ele>0.0</ele><time>2026-04-30T20:43:38.072Z</time></trkpt><trkpt lat="42.8301899" lon="6.2845088"><ele>0.0</ele><time>2026-04-30T20:43:39.072Z</time></trkpt><trkpt lat="42.8302416" lon="6.2846025"><ele>0.0</ele><time>2026-04-30T20:43:40.072Z</time></trkpt><trkpt lat="42.8303463" lon="6.2847943"><ele>0.0</ele><time>2026-04-30T20:43:42.071Z</time></trkpt><trkpt lat="42.8303948" lon="6.2848895"><ele>0.0</ele><time>2026-04-30T20:43:43.072Z</time></trkpt><trkpt lat="42.8304395" lon="6.2849873"><ele>0.0</ele><time>2026-04-30T20:43:44.071Z</time></trkpt><trkpt lat="42.8304825" lon="6.2850847"><ele>0.0</ele><time>2026-04-30T20:43:45.071Z</time></trkpt><trkpt lat="42.8305282" lon="6.2851827"><ele>0.0</ele><time>2026-04-30T20:43:46.07Z</time></trkpt><trkpt lat="42.8305793" lon="6.285277"><ele>0.0</ele><time>2026-04-30T20:43:47.07Z</time></trkpt><trkpt lat="42.8306272" lon="6.2853731"><ele>0.0</ele><time>2026-04-30T20:43:48.07Z</time></trkpt><trkpt lat="42.8306706" lon="6.285471"><ele>0.0</ele><time>2026-04-30T20:43:49.07Z</time></trkpt><trkpt lat="42.8307164" lon="6.2855781"><ele>0.0</ele><time>2026-04-30T20:43:50.071Z</time></trkpt><trkpt lat="42.8307677" lon="6.2856688"><ele>0.0</ele><time>2026-04-30T20:43:51.07Z</time></trkpt><trkpt lat="42.830859" lon="6.2858554"><ele>0.0</ele><time>2026-04-30T20:43:53.07Z</time></trkpt><trkpt lat="42.8308997" lon="6.2859591"><ele>0.0</ele><time>2026-04-30T20:43:54.07Z</time></trkpt><trkpt lat="42.8309405" lon="6.2860581"><ele>0.0</ele><time>2026-04-30T20:43:55.07Z</time></trkpt><trkpt lat="42.8309794" lon="6.2861567"><ele>0.0</ele><time>2026-04-30T20:43:56.07Z</time></trkpt><trkpt lat="42.8310211" lon="6.2862532"><ele>0.0</ele><time>2026-04-30T20:43:57.07Z</time></trkpt><trkpt lat="42.831064" lon="6.2863497"><ele>0.0</ele><time>2026-04-30T20:43:58.07Z</time></trkpt><trkpt lat="42.8311076" lon="6.2864467"><ele>0.0</ele><time>2026-04-30T20:43:59.071Z</time></trkpt><trkpt lat="42.831148" lon="6.286554"><ele>0.0</ele><time>2026-04-30T20:44:00.07Z</time></trkpt><trkpt lat="42.831194" lon="6.2866548"><ele>0.0</ele><time>2026-04-30T20:44:01.071Z</time></trkpt><trkpt lat="42.831239" lon="6.2867565"><ele>0.0</ele><time>2026-04-30T20:44:02.07Z</time></trkpt><trkpt lat="42.8312798" lon="6.2868624"><ele>0.0</ele><time>2026-04-30T20:44:03.071Z</time></trkpt><trkpt lat="42.8313228" lon="6.2869695"><ele>0.0</ele><time>2026-04-30T20:44:04.071Z</time></trkpt><trkpt lat="42.8313759" lon="6.2870522"><ele>0.0</ele><time>2026-04-30T20:44:05.071Z</time></trkpt><trkpt lat="42.8314294" lon="6.2871297"><ele>0.0</ele><time>2026-04-30T20:44:06.07Z</time></trkpt><trkpt lat="42.8314698" lon="6.2872229"><ele>0.0</ele><time>2026-04-30T20:44:07.071Z</time></trkpt><trkpt lat="42.8315082" lon="6.2873219"><ele>0.0</ele><time>2026-04-30T20:44:08.071Z</time></trkpt><trkpt lat="42.8315434" lon="6.2874225"><ele>0.0</ele><time>2026-04-30T20:44:09.07Z</time></trkpt><trkpt lat="42.8315856" lon="6.2875206"><ele>0.0</ele><time>2026-04-30T20:44:10.071Z</time></trkpt><trkpt lat="42.8316339" lon="6.2876187"><ele>0.0</ele><time>2026-04-30T20:44:11.07Z</time></trkpt><trkpt lat="42.8316782" lon="6.2877171"><ele>0.0</ele><time>2026-04-30T20:44:12.071Z</time></trkpt><trkpt lat="42.8317201" lon="6.2878181"><ele>0.0</ele><time>2026-04-30T20:44:13.071Z</time></trkpt><trkpt lat="42.8318078" lon="6.2880171"><ele>0.0</ele><time>2026-04-30T20:44:15.07Z</time></trkpt><trkpt lat="42.8318559" lon="6.288111"><ele>0.0</ele><time>2026-04-30T20:44:16.07Z</time></trkpt><trkpt lat="42.8319049" lon="6.288203"><ele>0.0</ele><time>2026-04-30T20:44:17.07Z</time></trkpt><trkpt lat="42.8319493" lon="6.2882949"><ele>0.0</ele><time>2026-04-30T20:44:18.07Z</time></trkpt><trkpt lat="42.8319938" lon="6.288388"><ele>0.0</ele><time>2026-04-30T20:44:19.07Z</time></trkpt><trkpt lat="42.832039" lon="6.2884828"><ele>0.0</ele><time>2026-04-30T20:44:20.07Z</time></trkpt><trkpt lat="42.8320825" lon="6.2885737"><ele>0.0</ele><time>2026-04-30T20:44:21.07Z</time></trkpt><trkpt lat="42.8321285" lon="6.288665"><ele>0.0</ele><time>2026-04-30T20:44:22.071Z</time></trkpt><trkpt lat="42.8321771" lon="6.2887553"><ele>0.0</ele><time>2026-04-30T20:44:23.07Z</time></trkpt><trkpt lat="42.832221" lon="6.2888479"><ele>0.0</ele><time>2026-04-30T20:44:24.071Z</time></trkpt><trkpt lat="42.8322641" lon="6.2889442"><ele>0.0</ele><time>2026-04-30T20:44:25.07Z</time></trkpt><trkpt lat="42.8323089" lon="6.2890481"><ele>0.0</ele><time>2026-04-30T20:44:26.07Z</time></trkpt><trkpt lat="42.8323484" lon="6.2891442"><ele>0.0</ele><time>2026-04-30T20:44:27.07Z</time></trkpt><trkpt lat="42.8323936" lon="6.2892379"><ele>0.0</ele><time>2026-04-30T20:44:28.071Z</time></trkpt><trkpt lat="42.8324377" lon="6.2893329"><ele>0.0</ele><time>2026-04-30T20:44:29.07Z</time></trkpt><trkpt lat="42.8324825" lon="6.2894279"><ele>0.0</ele><time>2026-04-30T20:44:30.071Z</time></trkpt><trkpt lat="42.8325302" lon="6.2895243"><ele>0.0</ele><time>2026-04-30T20:44:31.071Z</time></trkpt><trkpt lat="42.8325781" lon="6.2896241"><ele>0.0</ele><time>2026-04-30T20:44:32.071Z</time></trkpt><trkpt lat="42.8326237" lon="6.2897229"><ele>0.0</ele><time>2026-04-30T20:44:33.07Z</time></trkpt><trkpt lat="42.8326683" lon="6.289821"><ele>0.0</ele><time>2026-04-30T20:44:34.07Z</time></trkpt><trkpt lat="42.8327599" lon="6.2900221"><ele>0.0</ele><time>2026-04-30T20:44:36.07Z</time></trkpt><trkpt lat="42.832807" lon="6.2901168"><ele>0.0</ele><time>2026-04-30T20:44:37.07Z</time></trkpt><trkpt lat="42.8328565" lon="6.2902101"><ele>0.0</ele><time>2026-04-30T20:44:38.071Z</time></trkpt><trkpt lat="42.8329023" lon="6.2903023"><ele>0.0</ele><time>2026-04-30T20:44:39.07Z</time></trkpt><trkpt lat="42.8329484" lon="6.2903937"><ele>0.0</ele><time>2026-04-30T20:44:40.071Z</time></trkpt><trkpt lat="42.8329979" lon="6.2904852"><ele>0.0</ele><time>2026-04-30T20:44:41.071Z</time></trkpt><trkpt lat="42.8330509" lon="6.2905767"><ele>0.0</ele><time>2026-04-30T20:44:42.07Z</time></trkpt><trkpt lat="42.8330986" lon="6.2906684"><ele>0.0</ele><time>2026-04-30T20:44:43.071Z</time></trkpt><trkpt lat="42.8331469" lon="6.2907611"><ele>0.0</ele><time>2026-04-30T20:44:44.071Z</time></trkpt><trkpt lat="42.833232" lon="6.2909461"><ele>0.0</ele><time>2026-04-30T20:44:46.07Z</time></trkpt><trkpt lat="42.8332746" lon="6.2910375"><ele>0.0</ele><time>2026-04-30T20:44:47.071Z</time></trkpt><trkpt lat="42.8333162" lon="6.2911311"><ele>0.0</ele><time>2026-04-30T20:44:48.07Z</time></trkpt><trkpt lat="42.8333564" lon="6.2912385"><ele>0.0</ele><time>2026-04-30T20:44:49.07Z</time></trkpt><trkpt lat="42.8333995" lon="6.2913355"><ele>0.0</ele><time>2026-04-30T20:44:50.071Z</time></trkpt><trkpt lat="42.8334453" lon="6.2914324"><ele>0.0</ele><time>2026-04-30T20:44:51.071Z</time></trkpt><trkpt lat="42.8334931" lon="6.2915267"><ele>0.0</ele><time>2026-04-30T20:44:52.071Z</time></trkpt><trkpt lat="42.8335429" lon="6.29162"><ele>0.0</ele><time>2026-04-30T20:44:53.07Z</time></trkpt><trkpt lat="42.8335874" lon="6.2917116"><ele>0.0</ele><time>2026-04-30T20:44:54.07Z</time></trkpt><trkpt lat="42.8336335" lon="6.2918033"><ele>0.0</ele><time>2026-04-30T20:44:55.07Z</time></trkpt><trkpt lat="42.8337199" lon="6.2919933"><ele>0.0</ele><time>2026-04-30T20:44:57.07Z</time></trkpt><trkpt lat="42.8337663" lon="6.2920885"><ele>0.0</ele><time>2026-04-30T20:44:58.07Z</time></trkpt><trkpt lat="42.8338147" lon="6.2921833"><ele>0.0</ele><time>2026-04-30T20:44:59.07Z</time></trkpt><trkpt lat="42.8338617" lon="6.2922754"><ele>0.0</ele><time>2026-04-30T20:45:00.07Z</time></trkpt><trkpt lat="42.8339084" lon="6.2923682"><ele>0.0</ele><time>2026-04-30T20:45:01.07Z</time></trkpt><trkpt lat="42.8339553" lon="6.2924584"><ele>0.0</ele><time>2026-04-30T20:45:02.07Z</time></trkpt><trkpt lat="42.8340003" lon="6.2925499"><ele>0.0</ele><time>2026-04-30T20:45:03.071Z</time></trkpt><trkpt lat="42.8340452" lon="6.2926475"><ele>0.0</ele><time>2026-04-30T20:45:04.07Z</time></trkpt><trkpt lat="42.8340933" lon="6.2927387"><ele>0.0</ele><time>2026-04-30T20:45:05.07Z</time></trkpt><trkpt lat="42.8341406" lon="6.2928324"><ele>0.0</ele><time>2026-04-30T20:45:06.07Z</time></trkpt><trkpt lat="42.8341888" lon="6.2929264"><ele>0.0</ele><time>2026-04-30T20:45:07.071Z</time></trkpt><trkpt lat="42.8342392" lon="6.2930175"><ele>0.0</ele><time>2026-04-30T20:45:08.071Z</time></trkpt><trkpt lat="42.8342898" lon="6.2931093"><ele>0.0</ele><time>2026-04-30T20:45:09.07Z</time></trkpt><trkpt lat="42.83434" lon="6.2932029"><ele>0.0</ele><time>2026-04-30T20:45:10.07Z</time></trkpt><trkpt lat="42.8343857" lon="6.2932979"><ele>0.0</ele><time>2026-04-30T20:45:11.071Z</time></trkpt><trkpt lat="42.8344275" lon="6.2933973"><ele>0.0</ele><time>2026-04-30T20:45:12.07Z</time></trkpt><trkpt lat="42.8344753" lon="6.293491"><ele>0.0</ele><time>2026-04-30T20:45:13.071Z</time></trkpt><trkpt lat="42.8345201" lon="6.2935866"><ele>0.0</ele><time>2026-04-30T20:45:14.071Z</time></trkpt><trkpt lat="42.8345683" lon="6.2936781"><ele>0.0</ele><time>2026-04-30T20:45:15.07Z</time></trkpt><trkpt lat="42.834618" lon="6.2937669"><ele>0.0</ele><time>2026-04-30T20:45:16.07Z</time></trkpt><trkpt lat="42.8346612" lon="6.2938607"><ele>0.0</ele><time>2026-04-30T20:45:17.07Z</time></trkpt><trkpt lat="42.8347518" lon="6.294043"><ele>0.0</ele><time>2026-04-30T20:45:19.071Z</time></trkpt><trkpt lat="42.8347946" lon="6.2941313"><ele>0.0</ele><time>2026-04-30T20:45:20.07Z</time></trkpt><trkpt lat="42.8348444" lon="6.2942202"><ele>0.0</ele><time>2026-04-30T20:45:21.071Z</time></trkpt><trkpt lat="42.8348991" lon="6.2943058"><ele>0.0</ele><time>2026-04-30T20:45:22.071Z</time></trkpt><trkpt lat="42.8349525" lon="6.2943955"><ele>0.0</ele><time>2026-04-30T20:45:23.071Z</time></trkpt><trkpt lat="42.835003" lon="6.29449"><ele>0.0</ele><time>2026-04-30T20:45:24.071Z</time></trkpt><trkpt lat="42.8350685" lon="6.2945582"><ele>0.0</ele><time>2026-04-30T20:45:25.071Z</time></trkpt><trkpt lat="42.8351228" lon="6.2946445"><ele>0.0</ele><time>2026-04-30T20:45:26.071Z</time></trkpt><trkpt lat="42.8351705" lon="6.294729"><ele>0.0</ele><time>2026-04-30T20:45:27.071Z</time></trkpt><trkpt lat="42.8352118" lon="6.2948222"><ele>0.0</ele><time>2026-04-30T20:45:28.07Z</time></trkpt><trkpt lat="42.8352614" lon="6.2949135"><ele>0.0</ele><time>2026-04-30T20:45:29.07Z</time></trkpt><trkpt lat="42.8353079" lon="6.2950072"><ele>0.0</ele><time>2026-04-30T20:45:30.07Z</time></trkpt><trkpt lat="42.8353509" lon="6.2951058"><ele>0.0</ele><time>2026-04-30T20:45:31.071Z</time></trkpt><trkpt lat="42.8353941" lon="6.2952088"><ele>0.0</ele><time>2026-04-30T20:45:32.07Z</time></trkpt><trkpt lat="42.8354384" lon="6.2953079"><ele>0.0</ele><time>2026-04-30T20:45:33.07Z</time></trkpt><trkpt lat="42.8354851" lon="6.2954015"><ele>0.0</ele><time>2026-04-30T20:45:34.071Z</time></trkpt><trkpt lat="42.8355318" lon="6.2954991"><ele>0.0</ele><time>2026-04-30T20:45:35.07Z</time></trkpt><trkpt lat="42.8355786" lon="6.2955975"><ele>0.0</ele><time>2026-04-30T20:45:36.07Z</time></trkpt><trkpt lat="42.8356252" lon="6.2956919"><ele>0.0</ele><time>2026-04-30T20:45:37.071Z</time></trkpt><trkpt lat="42.8356662" lon="6.2957892"><ele>0.0</ele><time>2026-04-30T20:45:38.071Z</time></trkpt><trkpt lat="42.8357504" lon="6.2959847"><ele>0.0</ele><time>2026-04-30T20:45:40.07Z</time></trkpt><trkpt lat="42.8357854" lon="6.2960797"><ele>0.0</ele><time>2026-04-30T20:45:41.07Z</time></trkpt><trkpt lat="42.835822" lon="6.2961741"><ele>0.0</ele><time>2026-04-30T20:45:42.071Z</time></trkpt><trkpt lat="42.8358625" lon="6.2962777"><ele>0.0</ele><time>2026-04-30T20:45:43.071Z</time></trkpt><trkpt lat="42.8359046" lon="6.2963828"><ele>0.0</ele><time>2026-04-30T20:45:44.07Z</time></trkpt><trkpt lat="42.8359473" lon="6.2964793"><ele>0.0</ele><time>2026-04-30T20:45:45.07Z</time></trkpt><trkpt lat="42.8359946" lon="6.2965758"><ele>0.0</ele><time>2026-04-30T20:45:46.07Z</time></trkpt><trkpt lat="42.8360405" lon="6.296671"><ele>0.0</ele><time>2026-04-30T20:45:47.07Z</time></trkpt><trkpt lat="42.8360881" lon="6.2967663"><ele>0.0</ele><time>2026-04-30T20:45:48.07Z</time></trkpt><trkpt lat="42.8361847" lon="6.2969487"><ele>0.0</ele><time>2026-04-30T20:45:50.071Z</time></trkpt><trkpt lat="42.8362303" lon="6.29704"><ele>0.0</ele><time>2026-04-30T20:45:51.07Z</time></trkpt><trkpt lat="42.8362771" lon="6.2971314"><ele>0.0</ele><time>2026-04-30T20:45:52.071Z</time></trkpt><trkpt lat="42.836328" lon="6.2972233"><ele>0.0</ele><time>2026-04-30T20:45:53.07Z</time></trkpt><trkpt lat="42.8363807" lon="6.2973198"><ele>0.0</ele><time>2026-04-30T20:45:54.07Z</time></trkpt><trkpt lat="42.8364299" lon="6.2974177"><ele>0.0</ele><time>2026-04-30T20:45:55.071Z</time></trkpt><trkpt lat="42.8364756" lon="6.2975158"><ele>0.0</ele><time>2026-04-30T20:45:56.07Z</time></trkpt><trkpt lat="42.8365222" lon="6.2976144"><ele>0.0</ele><time>2026-04-30T20:45:57.071Z</time></trkpt><trkpt lat="42.8365675" lon="6.2977074"><ele>0.0</ele><time>2026-04-30T20:45:58.071Z</time></trkpt><trkpt lat="42.8366097" lon="6.297803"><ele>0.0</ele><time>2026-04-30T20:45:59.07Z</time></trkpt><trkpt lat="42.8367027" lon="6.2979931"><ele>0.0</ele><time>2026-04-30T20:46:01.071Z</time></trkpt><trkpt lat="42.8367458" lon="6.2980833"><ele>0.0</ele><time>2026-04-30T20:46:02.071Z</time></trkpt><trkpt lat="42.8367906" lon="6.2981737"><ele>0.0</ele><time>2026-04-30T20:46:03.07Z</time></trkpt><trkpt lat="42.8368385" lon="6.2982648"><ele>0.0</ele><time>2026-04-30T20:46:04.07Z</time></trkpt><trkpt lat="42.8368909" lon="6.2983587"><ele>0.0</ele><time>2026-04-30T20:46:05.07Z</time></trkpt><trkpt lat="42.8369401" lon="6.2984532"><ele>0.0</ele><time>2026-04-30T20:46:06.071Z</time></trkpt><trkpt lat="42.8369886" lon="6.2985467"><ele>0.0</ele><time>2026-04-30T20:46:07.071Z</time></trkpt><trkpt lat="42.8370358" lon="6.2986395"><ele>0.0</ele><time>2026-04-30T20:46:08.071Z</time></trkpt><trkpt lat="42.8370826" lon="6.2987319"><ele>0.0</ele><time>2026-04-30T20:46:09.071Z</time></trkpt><trkpt lat="42.837125" lon="6.2988265"><ele>0.0</ele><time>2026-04-30T20:46:10.071Z</time></trkpt><trkpt lat="42.8371718" lon="6.2989028"><ele>0.0</ele><time>2026-04-30T20:46:11.071Z</time></trkpt><trkpt lat="42.8372148" lon="6.2989932"><ele>0.0</ele><time>2026-04-30T20:46:12.07Z</time></trkpt><trkpt lat="42.8372503" lon="6.2990924"><ele>0.0</ele><time>2026-04-30T20:46:13.071Z</time></trkpt><trkpt lat="42.8372939" lon="6.2991909"><ele>0.0</ele><time>2026-04-30T20:46:14.07Z</time></trkpt><trkpt lat="42.8373374" lon="6.2992895"><ele>0.0</ele><time>2026-04-30T20:46:15.071Z</time></trkpt><trkpt lat="42.8373819" lon="6.2993878"><ele>0.0</ele><time>2026-04-30T20:46:16.07Z</time></trkpt><trkpt lat="42.8374256" lon="6.2994874"><ele>0.0</ele><time>2026-04-30T20:46:17.071Z</time></trkpt><trkpt lat="42.8374733" lon="6.2995875"><ele>0.0</ele><time>2026-04-30T20:46:18.07Z</time></trkpt><trkpt lat="42.8375203" lon="6.2996861"><ele>0.0</ele><time>2026-04-30T20:46:19.07Z</time></trkpt><trkpt lat="42.8375671" lon="6.2997858"><ele>0.0</ele><time>2026-04-30T20:46:20.07Z</time></trkpt><trkpt lat="42.8376081" lon="6.2998886"><ele>0.0</ele><time>2026-04-30T20:46:21.07Z</time></trkpt><trkpt lat="42.8376981" lon="6.3000866"><ele>0.0</ele><time>2026-04-30T20:46:23.071Z</time></trkpt><trkpt lat="42.8377373" lon="6.3001903"><ele>0.0</ele><time>2026-04-30T20:46:24.07Z</time></trkpt><trkpt lat="42.8377772" lon="6.3002937"><ele>0.0</ele><time>2026-04-30T20:46:25.071Z</time></trkpt><trkpt lat="42.8378214" lon="6.3003933"><ele>0.0</ele><time>2026-04-30T20:46:26.07Z</time></trkpt><trkpt lat="42.8378621" lon="6.3004972"><ele>0.0</ele><time>2026-04-30T20:46:27.07Z</time></trkpt><trkpt lat="42.8379033" lon="6.3005998"><ele>0.0</ele><time>2026-04-30T20:46:28.07Z</time></trkpt><trkpt lat="42.8379436" lon="6.3006969"><ele>0.0</ele><time>2026-04-30T20:46:29.07Z</time></trkpt><trkpt lat="42.8379835" lon="6.3007921"><ele>0.0</ele><time>2026-04-30T20:46:30.071Z</time></trkpt><trkpt lat="42.8380278" lon="6.3008913"><ele>0.0</ele><time>2026-04-30T20:46:31.07Z</time></trkpt><trkpt lat="42.8380734" lon="6.3009899"><ele>0.0</ele><time>2026-04-30T20:46:32.071Z</time></trkpt><trkpt lat="42.8381138" lon="6.3010882"><ele>0.0</ele><time>2026-04-30T20:46:33.07Z</time></trkpt><trkpt lat="42.8381568" lon="6.3011832"><ele>0.0</ele><time>2026-04-30T20:46:34.071Z</time></trkpt><trkpt lat="42.8382006" lon="6.3012798"><ele>0.0</ele><time>2026-04-30T20:46:35.071Z</time></trkpt><trkpt lat="42.8382398" lon="6.3013789"><ele>0.0</ele><time>2026-04-30T20:46:36.071Z</time></trkpt><trkpt lat="42.8382806" lon="6.3014792"><ele>0.0</ele><time>2026-04-30T20:46:37.07Z</time></trkpt><trkpt lat="42.8383207" lon="6.3015793"><ele>0.0</ele><time>2026-04-30T20:46:38.07Z</time></trkpt><trkpt lat="42.838371" lon="6.3016733"><ele>0.0</ele><time>2026-04-30T20:46:39.07Z</time></trkpt><trkpt lat="42.8384226" lon="6.3017666"><ele>0.0</ele><time>2026-04-30T20:46:40.071Z</time></trkpt><trkpt lat="42.8384729" lon="6.30186"><ele>0.0</ele><time>2026-04-30T20:46:41.07Z</time></trkpt><trkpt lat="42.8385231" lon="6.3019532"><ele>0.0</ele><time>2026-04-30T20:46:42.07Z</time></trkpt><trkpt lat="42.8386161" lon="6.3021393"><ele>0.0</ele><time>2026-04-30T20:46:44.07Z</time></trkpt><trkpt lat="42.838655" lon="6.3022346"><ele>0.0</ele><time>2026-04-30T20:46:45.07Z</time></trkpt><trkpt lat="42.8386975" lon="6.3023313"><ele>0.0</ele><time>2026-04-30T20:46:46.07Z</time></trkpt><trkpt lat="42.8387449" lon="6.302427"><ele>0.0</ele><time>2026-04-30T20:46:47.07Z</time></trkpt><trkpt lat="42.8387933" lon="6.3025117"><ele>0.0</ele><time>2026-04-30T20:46:48.071Z</time></trkpt><trkpt lat="42.8388418" lon="6.3025979"><ele>0.0</ele><time>2026-04-30T20:46:49.07Z</time></trkpt><trkpt lat="42.8388858" lon="6.3026899"><ele>0.0</ele><time>2026-04-30T20:46:50.071Z</time></trkpt><trkpt lat="42.8389332" lon="6.3027847"><ele>0.0</ele><time>2026-04-30T20:46:51.07Z</time></trkpt><trkpt lat="42.8389749" lon="6.3028848"><ele>0.0</ele><time>2026-04-30T20:46:52.07Z</time></trkpt><trkpt lat="42.8390205" lon="6.3029839"><ele>0.0</ele><time>2026-04-30T20:46:53.07Z</time></trkpt><trkpt lat="42.8390656" lon="6.3030808"><ele>0.0</ele><time>2026-04-30T20:46:54.071Z</time></trkpt><trkpt lat="42.8391119" lon="6.303179"><ele>0.0</ele><time>2026-04-30T20:46:55.07Z</time></trkpt><trkpt lat="42.8391588" lon="6.3032798"><ele>0.0</ele><time>2026-04-30T20:46:56.07Z</time></trkpt><trkpt lat="42.8392051" lon="6.3033713"><ele>0.0</ele><time>2026-04-30T20:46:57.07Z</time></trkpt><trkpt lat="42.839254" lon="6.3034608"><ele>0.0</ele><time>2026-04-30T20:46:58.07Z</time></trkpt><trkpt lat="42.8392959" lon="6.3035608"><ele>0.0</ele><time>2026-04-30T20:46:59.071Z</time></trkpt><trkpt lat="42.8393376" lon="6.3036583"><ele>0.0</ele><time>2026-04-30T20:47:00.07Z</time></trkpt><trkpt lat="42.8393819" lon="6.3037562"><ele>0.0</ele><time>2026-04-30T20:47:01.07Z</time></trkpt><trkpt lat="42.839425" lon="6.3038562"><ele>0.0</ele><time>2026-04-30T20:47:02.07Z</time></trkpt><trkpt lat="42.839473" lon="6.3039529"><ele>0.0</ele><time>2026-04-30T20:47:03.07Z</time></trkpt><trkpt lat="42.839571" lon="6.3041519"><ele>0.0</ele><time>2026-04-30T20:47:05.071Z</time></trkpt><trkpt lat="42.8396141" lon="6.3042482"><ele>0.0</ele><time>2026-04-30T20:47:06.07Z</time></trkpt><trkpt lat="42.8396584" lon="6.3043466"><ele>0.0</ele><time>2026-04-30T20:47:07.07Z</time></trkpt><trkpt lat="42.8397006" lon="6.3044465"><ele>0.0</ele><time>2026-04-30T20:47:08.071Z</time></trkpt><trkpt lat="42.8397436" lon="6.3045505"><ele>0.0</ele><time>2026-04-30T20:47:09.071Z</time></trkpt><trkpt lat="42.839793" lon="6.3046496"><ele>0.0</ele><time>2026-04-30T20:47:10.071Z</time></trkpt><trkpt lat="42.839836" lon="6.3047463"><ele>0.0</ele><time>2026-04-30T20:47:11.071Z</time></trkpt><trkpt lat="42.8398833" lon="6.3048459"><ele>0.0</ele><time>2026-04-30T20:47:12.07Z</time></trkpt><trkpt lat="42.8399273" lon="6.3049431"><ele>0.0</ele><time>2026-04-30T20:47:13.07Z</time></trkpt><trkpt lat="42.8399733" lon="6.3050371"><ele>0.0</ele><time>2026-04-30T20:47:14.07Z</time></trkpt><trkpt lat="42.8400241" lon="6.3051271"><ele>0.0</ele><time>2026-04-30T20:47:15.071Z</time></trkpt><trkpt lat="42.8400678" lon="6.3052254"><ele>0.0</ele><time>2026-04-30T20:47:16.071Z</time></trkpt><trkpt lat="42.8401121" lon="6.3053247"><ele>0.0</ele><time>2026-04-30T20:47:17.07Z</time></trkpt><trkpt lat="42.8401559" lon="6.3054171"><ele>0.0</ele><time>2026-04-30T20:47:18.071Z</time></trkpt><trkpt lat="42.8401975" lon="6.3055158"><ele>0.0</ele><time>2026-04-30T20:47:19.07Z</time></trkpt><trkpt lat="42.8402392" lon="6.305612"><ele>0.0</ele><time>2026-04-30T20:47:20.071Z</time></trkpt><trkpt lat="42.8402739" lon="6.3057179"><ele>0.0</ele><time>2026-04-30T20:47:21.07Z</time></trkpt><trkpt lat="42.8403147" lon="6.305816"><ele>0.0</ele><time>2026-04-30T20:47:22.07Z</time></trkpt><trkpt lat="42.8403532" lon="6.3059134"><ele>0.0</ele><time>2026-04-30T20:47:23.071Z</time></trkpt><trkpt lat="42.8404986" lon="6.306197"><ele>0.0</ele><time>2026-04-30T20:47:26.071Z</time></trkpt><trkpt lat="42.8405482" lon="6.3062852"><ele>0.0</ele><time>2026-04-30T20:47:27.071Z</time></trkpt><trkpt lat="42.8405882" lon="6.3063866"><ele>0.0</ele><time>2026-04-30T20:47:28.07Z</time></trkpt><trkpt lat="42.8406316" lon="6.3064825"><ele>0.0</ele><time>2026-04-30T20:47:29.071Z</time></trkpt><trkpt lat="42.8406763" lon="6.306576"><ele>0.0</ele><time>2026-04-30T20:47:30.071Z</time></trkpt><trkpt lat="42.8407185" lon="6.3066721"><ele>0.0</ele><time>2026-04-30T20:47:31.07Z</time></trkpt><trkpt lat="42.8407661" lon="6.3067618"><ele>0.0</ele><time>2026-04-30T20:47:32.071Z</time></trkpt><trkpt lat="42.8408085" lon="6.3068567"><ele>0.0</ele><time>2026-04-30T20:47:33.07Z</time></trkpt><trkpt lat="42.8408531" lon="6.3069536"><ele>0.0</ele><time>2026-04-30T20:47:34.07Z</time></trkpt><trkpt lat="42.8409028" lon="6.3070497"><ele>0.0</ele><time>2026-04-30T20:47:35.07Z</time></trkpt><trkpt lat="42.8409461" lon="6.307149"><ele>0.0</ele><time>2026-04-30T20:47:36.071Z</time></trkpt><trkpt lat="42.8409861" lon="6.3072437"><ele>0.0</ele><time>2026-04-30T20:47:37.071Z</time></trkpt><trkpt lat="42.8410273" lon="6.3073367"><ele>0.0</ele><time>2026-04-30T20:47:38.07Z</time></trkpt><trkpt lat="42.8410741" lon="6.307433"><ele>0.0</ele><time>2026-04-30T20:47:39.07Z</time></trkpt><trkpt lat="42.8411286" lon="6.3075325"><ele>0.0</ele><time>2026-04-30T20:47:40.071Z</time></trkpt><trkpt lat="42.841181" lon="6.3076239"><ele>0.0</ele><time>2026-04-30T20:47:41.07Z</time></trkpt><trkpt lat="42.8412358" lon="6.3077154"><ele>0.0</ele><time>2026-04-30T20:47:42.07Z</time></trkpt><trkpt lat="42.8412828" lon="6.3078117"><ele>0.0</ele><time>2026-04-30T20:47:43.071Z</time></trkpt><trkpt lat="42.8413246" lon="6.3079054"><ele>0.0</ele><time>2026-04-30T20:47:44.07Z</time></trkpt><trkpt lat="42.8413685" lon="6.308"><ele>0.0</ele><time>2026-04-30T20:47:45.07Z</time></trkpt><trkpt lat="42.8414511" lon="6.3082072"><ele>0.0</ele><time>2026-04-30T20:47:47.07Z</time></trkpt><trkpt lat="42.8414981" lon="6.308304"><ele>0.0</ele><time>2026-04-30T20:47:48.071Z</time></trkpt><trkpt lat="42.8415351" lon="6.3084116"><ele>0.0</ele><time>2026-04-30T20:47:49.071Z</time></trkpt><trkpt lat="42.8415815" lon="6.3085116"><ele>0.0</ele><time>2026-04-30T20:47:50.07Z</time></trkpt><trkpt lat="42.8416281" lon="6.3086054"><ele>0.0</ele><time>2026-04-30T20:47:51.07Z</time></trkpt><trkpt lat="42.8416753" lon="6.3086973"><ele>0.0</ele><time>2026-04-30T20:47:52.071Z</time></trkpt><trkpt lat="42.8417208" lon="6.3087883"><ele>0.0</ele><time>2026-04-30T20:47:53.07Z</time></trkpt><trkpt lat="42.8417644" lon="6.308884"><ele>0.0</ele><time>2026-04-30T20:47:54.071Z</time></trkpt><trkpt lat="42.841813" lon="6.3089812"><ele>0.0</ele><time>2026-04-30T20:47:55.07Z</time></trkpt><trkpt lat="42.8419036" lon="6.3091738"><ele>0.0</ele><time>2026-04-30T20:47:57.071Z</time></trkpt><trkpt lat="42.8419429" lon="6.3092714"><ele>0.0</ele><time>2026-04-30T20:47:58.07Z</time></trkpt><trkpt lat="42.8419851" lon="6.3093663"><ele>0.0</ele><time>2026-04-30T20:47:59.071Z</time></trkpt><trkpt lat="42.8420328" lon="6.3094565"><ele>0.0</ele><time>2026-04-30T20:48:00.07Z</time></trkpt><trkpt lat="42.8420771" lon="6.3095563"><ele>0.0</ele><time>2026-04-30T20:48:01.07Z</time></trkpt><trkpt lat="42.8421199" lon="6.3096585"><ele>0.0</ele><time>2026-04-30T20:48:02.071Z</time></trkpt><trkpt lat="42.8421662" lon="6.309756"><ele>0.0</ele><time>2026-04-30T20:48:03.071Z</time></trkpt><trkpt lat="42.8422115" lon="6.3098508"><ele>0.0</ele><time>2026-04-30T20:48:04.07Z</time></trkpt><trkpt lat="42.8422596" lon="6.309941"><ele>0.0</ele><time>2026-04-30T20:48:05.07Z</time></trkpt><trkpt lat="42.8423078" lon="6.3100333"><ele>0.0</ele><time>2026-04-30T20:48:06.07Z</time></trkpt><trkpt lat="42.8423985" lon="6.3102204"><ele>0.0</ele><time>2026-04-30T20:48:08.07Z</time></trkpt><trkpt lat="42.8424378" lon="6.3103147"><ele>0.0</ele><time>2026-04-30T20:48:09.071Z</time></trkpt><trkpt lat="42.8424843" lon="6.3104058"><ele>0.0</ele><time>2026-04-30T20:48:10.07Z</time></trkpt><trkpt lat="42.8425273" lon="6.3104944"><ele>0.0</ele><time>2026-04-30T20:48:11.07Z</time></trkpt><trkpt lat="42.8425718" lon="6.3105837"><ele>0.0</ele><time>2026-04-30T20:48:12.071Z</time></trkpt><trkpt lat="42.8426164" lon="6.3106781"><ele>0.0</ele><time>2026-04-30T20:48:13.07Z</time></trkpt><trkpt lat="42.8426605" lon="6.3107747"><ele>0.0</ele><time>2026-04-30T20:48:14.071Z</time></trkpt><trkpt lat="42.8427022" lon="6.3108725"><ele>0.0</ele><time>2026-04-30T20:48:15.07Z</time></trkpt><trkpt lat="42.8427438" lon="6.3109688"><ele>0.0</ele><time>2026-04-30T20:48:16.071Z</time></trkpt><trkpt lat="42.842791" lon="6.3110619"><ele>0.0</ele><time>2026-04-30T20:48:17.07Z</time></trkpt><trkpt lat="42.8428439" lon="6.3111566"><ele>0.0</ele><time>2026-04-30T20:48:18.071Z</time></trkpt><trkpt lat="42.8428892" lon="6.3112531"><ele>0.0</ele><time>2026-04-30T20:48:19.071Z</time></trkpt><trkpt lat="42.842934" lon="6.311351"><ele>0.0</ele><time>2026-04-30T20:48:20.071Z</time></trkpt><trkpt lat="42.8429762" lon="6.3114501"><ele>0.0</ele><time>2026-04-30T20:48:21.07Z</time></trkpt><trkpt lat="42.8430188" lon="6.311552"><ele>0.0</ele><time>2026-04-30T20:48:22.07Z</time></trkpt><trkpt lat="42.8430667" lon="6.3116521"><ele>0.0</ele><time>2026-04-30T20:48:23.07Z</time></trkpt><trkpt lat="42.8431109" lon="6.3117681"><ele>0.0</ele><time>2026-04-30T20:48:24.071Z</time></trkpt><trkpt lat="42.8431569" lon="6.3118633"><ele>0.0</ele><time>2026-04-30T20:48:25.071Z</time></trkpt><trkpt lat="42.8432016" lon="6.3119622"><ele>0.0</ele><time>2026-04-30T20:48:26.071Z</time></trkpt><trkpt lat="42.8432438" lon="6.3120567"><ele>0.0</ele><time>2026-04-30T20:48:27.07Z</time></trkpt><trkpt lat="42.8433733" lon="6.3123513"><ele>0.0</ele><time>2026-04-30T20:48:30.071Z</time></trkpt><trkpt lat="42.8434248" lon="6.3124447"><ele>0.0</ele><time>2026-04-30T20:48:31.071Z</time></trkpt><trkpt lat="42.843472" lon="6.3125429"><ele>0.0</ele><time>2026-04-30T20:48:32.071Z</time></trkpt><trkpt lat="42.8435184" lon="6.3126402"><ele>0.0</ele><time>2026-04-30T20:48:33.071Z</time></trkpt><trkpt lat="42.8435708" lon="6.3127352"><ele>0.0</ele><time>2026-04-30T20:48:34.071Z</time></trkpt><trkpt lat="42.8436213" lon="6.3128289"><ele>0.0</ele><time>2026-04-30T20:48:35.07Z</time></trkpt><trkpt lat="42.8436682" lon="6.3129261"><ele>0.0</ele><time>2026-04-30T20:48:36.071Z</time></trkpt><trkpt lat="42.8437164" lon="6.313022"><ele>0.0</ele><time>2026-04-30T20:48:37.071Z</time></trkpt><trkpt lat="42.8437634" lon="6.3131121"><ele>0.0</ele><time>2026-04-30T20:48:38.07Z</time></trkpt><trkpt lat="42.8438086" lon="6.3132047"><ele>0.0</ele><time>2026-04-30T20:48:39.07Z</time></trkpt><trkpt lat="42.8438507" lon="6.3133039"><ele>0.0</ele><time>2026-04-30T20:48:40.071Z</time></trkpt><trkpt lat="42.8438954" lon="6.313404"><ele>0.0</ele><time>2026-04-30T20:48:41.071Z</time></trkpt><trkpt lat="42.8439405" lon="6.3135044"><ele>0.0</ele><time>2026-04-30T20:48:42.07Z</time></trkpt><trkpt lat="42.8439811" lon="6.3136012"><ele>0.0</ele><time>2026-04-30T20:48:43.07Z</time></trkpt><trkpt lat="42.8440223" lon="6.3136977"><ele>0.0</ele><time>2026-04-30T20:48:44.071Z</time></trkpt><trkpt lat="42.8440599" lon="6.3138031"><ele>0.0</ele><time>2026-04-30T20:48:45.071Z</time></trkpt><trkpt lat="42.8441019" lon="6.3139061"><ele>0.0</ele><time>2026-04-30T20:48:46.071Z</time></trkpt><trkpt lat="42.8441453" lon="6.3140012"><ele>0.0</ele><time>2026-04-30T20:48:47.071Z</time></trkpt><trkpt lat="42.84419" lon="6.3140992"><ele>0.0</ele><time>2026-04-30T20:48:48.07Z</time></trkpt><trkpt lat="42.8442351" lon="6.314188"><ele>0.0</ele><time>2026-04-30T20:48:49.07Z</time></trkpt><trkpt lat="42.8443234" lon="6.3143776"><ele>0.0</ele><time>2026-04-30T20:48:51.071Z</time></trkpt><trkpt lat="42.8443673" lon="6.3144719"><ele>0.0</ele><time>2026-04-30T20:48:52.07Z</time></trkpt><trkpt lat="42.8444136" lon="6.3145713"><ele>0.0</ele><time>2026-04-30T20:48:53.07Z</time></trkpt><trkpt lat="42.8444589" lon="6.3146727"><ele>0.0</ele><time>2026-04-30T20:48:54.071Z</time></trkpt><trkpt lat="42.844505" lon="6.3147704"><ele>0.0</ele><time>2026-04-30T20:48:55.07Z</time></trkpt><trkpt lat="42.8445542" lon="6.3148613"><ele>0.0</ele><time>2026-04-30T20:48:56.07Z</time></trkpt><trkpt lat="42.8446024" lon="6.31495"><ele>0.0</ele><time>2026-04-30T20:48:57.07Z</time></trkpt><trkpt lat="42.8446537" lon="6.3150437"><ele>0.0</ele><time>2026-04-30T20:48:58.07Z</time></trkpt><trkpt lat="42.8447042" lon="6.3151316"><ele>0.0</ele><time>2026-04-30T20:48:59.07Z</time></trkpt><trkpt lat="42.8447997" lon="6.3153127"><ele>0.0</ele><time>2026-04-30T20:49:01.071Z</time></trkpt><trkpt lat="42.8448511" lon="6.3154052"><ele>0.0</ele><time>2026-04-30T20:49:02.071Z</time></trkpt><trkpt lat="42.8448984" lon="6.3154871"><ele>0.0</ele><time>2026-04-30T20:49:03.07Z</time></trkpt><trkpt lat="42.8449393" lon="6.3155858"><ele>0.0</ele><time>2026-04-30T20:49:04.07Z</time></trkpt><trkpt lat="42.8449845" lon="6.315685"><ele>0.0</ele><time>2026-04-30T20:49:05.07Z</time></trkpt><trkpt lat="42.8450294" lon="6.3157805"><ele>0.0</ele><time>2026-04-30T20:49:06.07Z</time></trkpt><trkpt lat="42.8450778" lon="6.3158733"><ele>0.0</ele><time>2026-04-30T20:49:07.071Z</time></trkpt><trkpt lat="42.8451306" lon="6.315965"><ele>0.0</ele><time>2026-04-30T20:49:08.07Z</time></trkpt><trkpt lat="42.8451814" lon="6.3160644"><ele>0.0</ele><time>2026-04-30T20:49:09.071Z</time></trkpt><trkpt lat="42.8452298" lon="6.3161585"><ele>0.0</ele><time>2026-04-30T20:49:10.071Z</time></trkpt><trkpt lat="42.8453251" lon="6.3163418"><ele>0.0</ele><time>2026-04-30T20:49:12.071Z</time></trkpt><trkpt lat="42.8453756" lon="6.3164336"><ele>0.0</ele><time>2026-04-30T20:49:13.071Z</time></trkpt><trkpt lat="42.8454305" lon="6.3165234"><ele>0.0</ele><time>2026-04-30T20:49:14.071Z</time></trkpt><trkpt lat="42.845479" lon="6.3166193"><ele>0.0</ele><time>2026-04-30T20:49:15.071Z</time></trkpt><trkpt lat="42.8455252" lon="6.3167148"><ele>0.0</ele><time>2026-04-30T20:49:16.07Z</time></trkpt><trkpt lat="42.8455707" lon="6.3168069"><ele>0.0</ele><time>2026-04-30T20:49:17.07Z</time></trkpt><trkpt lat="42.8456156" lon="6.3169015"><ele>0.0</ele><time>2026-04-30T20:49:18.071Z</time></trkpt><trkpt lat="42.8456593" lon="6.3169929"><ele>0.0</ele><time>2026-04-30T20:49:19.07Z</time></trkpt><trkpt lat="42.8457027" lon="6.3170859"><ele>0.0</ele><time>2026-04-30T20:49:20.07Z</time></trkpt><trkpt lat="42.8457448" lon="6.3171839"><ele>0.0</ele><time>2026-04-30T20:49:21.07Z</time></trkpt><trkpt lat="42.8457861" lon="6.3172783"><ele>0.0</ele><time>2026-04-30T20:49:22.07Z</time></trkpt><trkpt lat="42.8458305" lon="6.3173742"><ele>0.0</ele><time>2026-04-30T20:49:23.071Z</time></trkpt><trkpt lat="42.8458727" lon="6.3174722"><ele>0.0</ele><time>2026-04-30T20:49:24.071Z</time></trkpt><trkpt lat="42.8459159" lon="6.3175704"><ele>0.0</ele><time>2026-04-30T20:49:25.07Z</time></trkpt><trkpt lat="42.8459605" lon="6.3176708"><ele>0.0</ele><time>2026-04-30T20:49:26.071Z</time></trkpt><trkpt lat="42.8459987" lon="6.3177718"><ele>0.0</ele><time>2026-04-30T20:49:27.071Z</time></trkpt><trkpt lat="42.8460393" lon="6.3178719"><ele>0.0</ele><time>2026-04-30T20:49:28.07Z</time></trkpt><trkpt lat="42.8460783" lon="6.3179703"><ele>0.0</ele><time>2026-04-30T20:49:29.071Z</time></trkpt><trkpt lat="42.8461162" lon="6.3180677"><ele>0.0</ele><time>2026-04-30T20:49:30.07Z</time></trkpt><trkpt lat="42.8461575" lon="6.3181647"><ele>0.0</ele><time>2026-04-30T20:49:31.071Z</time></trkpt><trkpt lat="42.8462809" lon="6.3184559"><ele>0.0</ele><time>2026-04-30T20:49:34.07Z</time></trkpt><trkpt lat="42.846322" lon="6.3185513"><ele>0.0</ele><time>2026-04-30T20:49:35.07Z</time></trkpt><trkpt lat="42.8463652" lon="6.3186473"><ele>0.0</ele><time>2026-04-30T20:49:36.071Z</time></trkpt><trkpt lat="42.8464083" lon="6.3187459"><ele>0.0</ele><time>2026-04-30T20:49:37.071Z</time></trkpt><trkpt lat="42.8464531" lon="6.318843"><ele>0.0</ele><time>2026-04-30T20:49:38.07Z</time></trkpt><trkpt lat="42.8464982" lon="6.3189428"><ele>0.0</ele><time>2026-04-30T20:49:39.071Z</time></trkpt><trkpt lat="42.8465428" lon="6.3190459"><ele>0.0</ele><time>2026-04-30T20:49:40.071Z</time></trkpt><trkpt lat="42.846591" lon="6.3191474"><ele>0.0</ele><time>2026-04-30T20:49:41.07Z</time></trkpt><trkpt lat="42.8466399" lon="6.319237"><ele>0.0</ele><time>2026-04-30T20:49:42.071Z</time></trkpt><trkpt lat="42.846698" lon="6.3193313"><ele>0.0</ele><time>2026-04-30T20:49:43.071Z</time></trkpt><trkpt lat="42.8467509" lon="6.3194266"><ele>0.0</ele><time>2026-04-30T20:49:44.07Z</time></trkpt><trkpt lat="42.8468027" lon="6.319516"><ele>0.0</ele><time>2026-04-30T20:49:45.071Z</time></trkpt><trkpt lat="42.8468458" lon="6.3196097"><ele>0.0</ele><time>2026-04-30T20:49:46.071Z</time></trkpt><trkpt lat="42.8468885" lon="6.3197065"><ele>0.0</ele><time>2026-04-30T20:49:47.07Z</time></trkpt><trkpt lat="42.8469348" lon="6.3198078"><ele>0.0</ele><time>2026-04-30T20:49:48.07Z</time></trkpt><trkpt lat="42.8469802" lon="6.3199008"><ele>0.0</ele><time>2026-04-30T20:49:49.071Z</time></trkpt><trkpt lat="42.8470234" lon="6.3199953"><ele>0.0</ele><time>2026-04-30T20:49:50.07Z</time></trkpt><trkpt lat="42.8470641" lon="6.3200933"><ele>0.0</ele><time>2026-04-30T20:49:51.07Z</time></trkpt><trkpt lat="42.8471068" lon="6.3201915"><ele>0.0</ele><time>2026-04-30T20:49:52.07Z</time></trkpt><trkpt lat="42.8471561" lon="6.3202884"><ele>0.0</ele><time>2026-04-30T20:49:53.071Z</time></trkpt><trkpt lat="42.8472473" lon="6.3205018"><ele>0.0</ele><time>2026-04-30T20:49:55.07Z</time></trkpt><trkpt lat="42.8472933" lon="6.3206026"><ele>0.0</ele><time>2026-04-30T20:49:56.071Z</time></trkpt><trkpt lat="42.847343" lon="6.3207014"><ele>0.0</ele><time>2026-04-30T20:49:57.071Z</time></trkpt><trkpt lat="42.8473903" lon="6.3208023"><ele>0.0</ele><time>2026-04-30T20:49:58.07Z</time></trkpt><trkpt lat="42.8474357" lon="6.3208955"><ele>0.0</ele><time>2026-04-30T20:49:59.07Z</time></trkpt><trkpt lat="42.8474835" lon="6.3209911"><ele>0.0</ele><time>2026-04-30T20:50:00.07Z</time></trkpt><trkpt lat="42.8475264" lon="6.321091"><ele>0.0</ele><time>2026-04-30T20:50:01.071Z</time></trkpt><trkpt lat="42.847572" lon="6.3211886"><ele>0.0</ele><time>2026-04-30T20:50:02.071Z</time></trkpt><trkpt lat="42.8476171" lon="6.3212821"><ele>0.0</ele><time>2026-04-30T20:50:03.07Z</time></trkpt><trkpt lat="42.8476829" lon="6.3214702"><ele>0.0</ele><time>2026-04-30T20:50:05.071Z</time></trkpt><trkpt lat="42.8477283" lon="6.3215693"><ele>0.0</ele><time>2026-04-30T20:50:06.071Z</time></trkpt><trkpt lat="42.8477751" lon="6.3216651"><ele>0.0</ele><time>2026-04-30T20:50:07.07Z</time></trkpt><trkpt lat="42.8478229" lon="6.3217643"><ele>0.0</ele><time>2026-04-30T20:50:08.07Z</time></trkpt><trkpt lat="42.8478684" lon="6.3218659"><ele>0.0</ele><time>2026-04-30T20:50:09.07Z</time></trkpt><trkpt lat="42.8479146" lon="6.321965"><ele>0.0</ele><time>2026-04-30T20:50:10.07Z</time></trkpt><trkpt lat="42.8479585" lon="6.3220661"><ele>0.0</ele><time>2026-04-30T20:50:11.071Z</time></trkpt><trkpt lat="42.8480035" lon="6.3221646"><ele>0.0</ele><time>2026-04-30T20:50:12.071Z</time></trkpt><trkpt lat="42.8480517" lon="6.3222645"><ele>0.0</ele><time>2026-04-30T20:50:13.071Z</time></trkpt><trkpt lat="42.848097" lon="6.3223628"><ele>0.0</ele><time>2026-04-30T20:50:14.07Z</time></trkpt><trkpt lat="42.8481899" lon="6.3225632"><ele>0.0</ele><time>2026-04-30T20:50:16.071Z</time></trkpt><trkpt lat="42.8482371" lon="6.3226599"><ele>0.0</ele><time>2026-04-30T20:50:17.07Z</time></trkpt><trkpt lat="42.8482736" lon="6.3227711"><ele>0.0</ele><time>2026-04-30T20:50:18.071Z</time></trkpt><trkpt lat="42.8483172" lon="6.3228731"><ele>0.0</ele><time>2026-04-30T20:50:19.07Z</time></trkpt><trkpt lat="42.8483617" lon="6.3229763"><ele>0.0</ele><time>2026-04-30T20:50:20.071Z</time></trkpt><trkpt lat="42.8484099" lon="6.3230747"><ele>0.0</ele><time>2026-04-30T20:50:21.07Z</time></trkpt><trkpt lat="42.8484572" lon="6.3231704"><ele>0.0</ele><time>2026-04-30T20:50:22.071Z</time></trkpt><trkpt lat="42.8485052" lon="6.3232666"><ele>0.0</ele><time>2026-04-30T20:50:23.071Z</time></trkpt><trkpt lat="42.8485448" lon="6.323367"><ele>0.0</ele><time>2026-04-30T20:50:24.07Z</time></trkpt><trkpt lat="42.848583" lon="6.3234661"><ele>0.0</ele><time>2026-04-30T20:50:25.07Z</time></trkpt><trkpt lat="42.8486367" lon="6.323559"><ele>0.0</ele><time>2026-04-30T20:50:26.07Z</time></trkpt><trkpt lat="42.848681" lon="6.3236562"><ele>0.0</ele><time>2026-04-30T20:50:27.071Z</time></trkpt><trkpt lat="42.8487085" lon="6.3237601"><ele>0.0</ele><time>2026-04-30T20:50:28.07Z</time></trkpt><trkpt lat="42.8487516" lon="6.323857"><ele>0.0</ele><time>2026-04-30T20:50:29.07Z</time></trkpt><trkpt lat="42.8487941" lon="6.3239508"><ele>0.0</ele><time>2026-04-30T20:50:30.071Z</time></trkpt><trkpt lat="42.8488369" lon="6.3240453"><ele>0.0</ele><time>2026-04-30T20:50:31.07Z</time></trkpt><trkpt lat="42.8488821" lon="6.3241332"><ele>0.0</ele><time>2026-04-30T20:50:32.07Z</time></trkpt><trkpt lat="42.8489305" lon="6.3242209"><ele>0.0</ele><time>2026-04-30T20:50:33.07Z</time></trkpt><trkpt lat="42.848973" lon="6.3242994"><ele>0.0</ele><time>2026-04-30T20:50:34.07Z</time></trkpt><trkpt lat="42.84901" lon="6.3243886"><ele>0.0</ele><time>2026-04-30T20:50:35.07Z</time></trkpt><trkpt lat="42.849055" lon="6.3244762"><ele>0.0</ele><time>2026-04-30T20:50:36.071Z</time></trkpt><trkpt lat="42.8491502" lon="6.3246522"><ele>0.0</ele><time>2026-04-30T20:50:38.07Z</time></trkpt><trkpt lat="42.8491968" lon="6.324741"><ele>0.0</ele><time>2026-04-30T20:50:39.07Z</time></trkpt><trkpt lat="42.8492454" lon="6.3248236"><ele>0.0</ele><time>2026-04-30T20:50:40.07Z</time></trkpt><trkpt lat="42.849286" lon="6.3249058"><ele>0.0</ele><time>2026-04-30T20:50:41.069Z</time></trkpt><trkpt lat="42.8493263" lon="6.3249984"><ele>0.0</ele><time>2026-04-30T20:50:42.07Z</time></trkpt><trkpt lat="42.8493673" lon="6.3250935"><ele>0.0</ele><time>2026-04-30T20:50:43.069Z</time></trkpt><trkpt lat="42.8494084" lon="6.3251902"><ele>0.0</ele><time>2026-04-30T20:50:44.069Z</time></trkpt><trkpt lat="42.8494533" lon="6.3252869"><ele>0.0</ele><time>2026-04-30T20:50:45.069Z</time></trkpt><trkpt lat="42.8494951" lon="6.3253833"><ele>0.0</ele><time>2026-04-30T20:50:46.069Z</time></trkpt><trkpt lat="42.8495388" lon="6.3254819"><ele>0.0</ele><time>2026-04-30T20:50:47.069Z</time></trkpt><trkpt lat="42.8495849" lon="6.3255853"><ele>0.0</ele><time>2026-04-30T20:50:48.069Z</time></trkpt><trkpt lat="42.8496301" lon="6.3256835"><ele>0.0</ele><time>2026-04-30T20:50:49.069Z</time></trkpt><trkpt lat="42.849672" lon="6.3257784"><ele>0.0</ele><time>2026-04-30T20:50:50.07Z</time></trkpt><trkpt lat="42.8497179" lon="6.3258776"><ele>0.0</ele><time>2026-04-30T20:50:51.069Z</time></trkpt><trkpt lat="42.8497678" lon="6.3259804"><ele>0.0</ele><time>2026-04-30T20:50:52.07Z</time></trkpt><trkpt lat="42.8498165" lon="6.3260796"><ele>0.0</ele><time>2026-04-30T20:50:53.069Z</time></trkpt><trkpt lat="42.8498621" lon="6.3261809"><ele>0.0</ele><time>2026-04-30T20:50:54.07Z</time></trkpt><trkpt lat="42.8499082" lon="6.3262828"><ele>0.0</ele><time>2026-04-30T20:50:55.069Z</time></trkpt><trkpt lat="42.8499511" lon="6.326384"><ele>0.0</ele><time>2026-04-30T20:50:56.069Z</time></trkpt><trkpt lat="42.849997" lon="6.3264842"><ele>0.0</ele><time>2026-04-30T20:50:57.07Z</time></trkpt><trkpt lat="42.850076" lon="6.3266915"><ele>0.0</ele><time>2026-04-30T20:50:59.069Z</time></trkpt><trkpt lat="42.850114" lon="6.3268019"><ele>0.0</ele><time>2026-04-30T20:51:00.07Z</time></trkpt><trkpt lat="42.8501599" lon="6.3269076"><ele>0.0</ele><time>2026-04-30T20:51:01.069Z</time></trkpt><trkpt lat="42.8502058" lon="6.3270106"><ele>0.0</ele><time>2026-04-30T20:51:02.069Z</time></trkpt><trkpt lat="42.8502487" lon="6.3271117"><ele>0.0</ele><time>2026-04-30T20:51:03.069Z</time></trkpt><trkpt lat="42.8502987" lon="6.3272061"><ele>0.0</ele><time>2026-04-30T20:51:04.07Z</time></trkpt><trkpt lat="42.8503465" lon="6.3273034"><ele>0.0</ele><time>2026-04-30T20:51:05.07Z</time></trkpt><trkpt lat="42.8503933" lon="6.3273983"><ele>0.0</ele><time>2026-04-30T20:51:06.07Z</time></trkpt><trkpt lat="42.85044" lon="6.3274947"><ele>0.0</ele><time>2026-04-30T20:51:07.07Z</time></trkpt><trkpt lat="42.8504835" lon="6.3275903"><ele>0.0</ele><time>2026-04-30T20:51:08.069Z</time></trkpt><trkpt lat="42.8505269" lon="6.3276833"><ele>0.0</ele><time>2026-04-30T20:51:09.069Z</time></trkpt><trkpt lat="42.8505736" lon="6.3277768"><ele>0.0</ele><time>2026-04-30T20:51:10.069Z</time></trkpt><trkpt lat="42.8506203" lon="6.3278701"><ele>0.0</ele><time>2026-04-30T20:51:11.07Z</time></trkpt><trkpt lat="42.850665" lon="6.3279649"><ele>0.0</ele><time>2026-04-30T20:51:12.07Z</time></trkpt><trkpt lat="42.8507097" lon="6.3280631"><ele>0.0</ele><time>2026-04-30T20:51:13.07Z</time></trkpt><trkpt lat="42.8507594" lon="6.3281573"><ele>0.0</ele><time>2026-04-30T20:51:14.07Z</time></trkpt><trkpt lat="42.850805" lon="6.3282519"><ele>0.0</ele><time>2026-04-30T20:51:15.069Z</time></trkpt><trkpt lat="42.8508502" lon="6.3283484"><ele>0.0</ele><time>2026-04-30T20:51:16.069Z</time></trkpt><trkpt lat="42.8508948" lon="6.3284496"><ele>0.0</ele><time>2026-04-30T20:51:17.069Z</time></trkpt><trkpt lat="42.8509416" lon="6.3285481"><ele>0.0</ele><time>2026-04-30T20:51:18.069Z</time></trkpt><trkpt lat="42.8510346" lon="6.3287436"><ele>0.0</ele><time>2026-04-30T20:51:20.069Z</time></trkpt><trkpt lat="42.8510828" lon="6.3288356"><ele>0.0</ele><time>2026-04-30T20:51:21.069Z</time></trkpt><trkpt lat="42.8511315" lon="6.3289283"><ele>0.0</ele><time>2026-04-30T20:51:22.069Z</time></trkpt><trkpt lat="42.8511799" lon="6.329026"><ele>0.0</ele><time>2026-04-30T20:51:23.069Z</time></trkpt><trkpt lat="42.8512283" lon="6.3291186"><ele>0.0</ele><time>2026-04-30T20:51:24.069Z</time></trkpt><trkpt lat="42.8512751" lon="6.3292164"><ele>0.0</ele><time>2026-04-30T20:51:25.07Z</time></trkpt><trkpt lat="42.8513172" lon="6.3293122"><ele>0.0</ele><time>2026-04-30T20:51:26.07Z</time></trkpt><trkpt lat="42.8513602" lon="6.3294032"><ele>0.0</ele><time>2026-04-30T20:51:27.069Z</time></trkpt><trkpt lat="42.8514084" lon="6.3294969"><ele>0.0</ele><time>2026-04-30T20:51:28.069Z</time></trkpt><trkpt lat="42.851457" lon="6.3295931"><ele>0.0</ele><time>2026-04-30T20:51:29.07Z</time></trkpt><trkpt lat="42.8515037" lon="6.3296826"><ele>0.0</ele><time>2026-04-30T20:51:30.07Z</time></trkpt><trkpt lat="42.8515504" lon="6.3297736"><ele>0.0</ele><time>2026-04-30T20:51:31.069Z</time></trkpt><trkpt lat="42.8515982" lon="6.3298712"><ele>0.0</ele><time>2026-04-30T20:51:32.07Z</time></trkpt><trkpt lat="42.8516481" lon="6.3299713"><ele>0.0</ele><time>2026-04-30T20:51:33.07Z</time></trkpt><trkpt lat="42.8516968" lon="6.3300696"><ele>0.0</ele><time>2026-04-30T20:51:34.069Z</time></trkpt><trkpt lat="42.8517434" lon="6.3301665"><ele>0.0</ele><time>2026-04-30T20:51:35.069Z</time></trkpt><trkpt lat="42.8517904" lon="6.3302619"><ele>0.0</ele><time>2026-04-30T20:51:36.069Z</time></trkpt><trkpt lat="42.8518367" lon="6.3303627"><ele>0.0</ele><time>2026-04-30T20:51:37.069Z</time></trkpt><trkpt lat="42.8518803" lon="6.3304601"><ele>0.0</ele><time>2026-04-30T20:51:38.069Z</time></trkpt><trkpt lat="42.851925" lon="6.3305569"><ele>0.0</ele><time>2026-04-30T20:51:39.069Z</time></trkpt><trkpt lat="42.8520539" lon="6.3308365"><ele>0.0</ele><time>2026-04-30T20:51:42.069Z</time></trkpt><trkpt lat="42.852097" lon="6.3309349"><ele>0.0</ele><time>2026-04-30T20:51:43.07Z</time></trkpt><trkpt lat="42.8521402" lon="6.3310288"><ele>0.0</ele><time>2026-04-30T20:51:44.069Z</time></trkpt><trkpt lat="42.8521836" lon="6.3311253"><ele>0.0</ele><time>2026-04-30T20:51:45.07Z</time></trkpt><trkpt lat="42.8522269" lon="6.3312231"><ele>0.0</ele><time>2026-04-30T20:51:46.07Z</time></trkpt><trkpt lat="42.8522718" lon="6.3313208"><ele>0.0</ele><time>2026-04-30T20:51:47.069Z</time></trkpt><trkpt lat="42.8523139" lon="6.3314124"><ele>0.0</ele><time>2026-04-30T20:51:48.07Z</time></trkpt><trkpt lat="42.8523526" lon="6.3315091"><ele>0.0</ele><time>2026-04-30T20:51:49.07Z</time></trkpt><trkpt lat="42.8523969" lon="6.3316063"><ele>0.0</ele><time>2026-04-30T20:51:50.069Z</time></trkpt><trkpt lat="42.8524444" lon="6.331706"><ele>0.0</ele><time>2026-04-30T20:51:51.07Z</time></trkpt><trkpt lat="42.8524946" lon="6.3318041"><ele>0.0</ele><time>2026-04-30T20:51:52.07Z</time></trkpt><trkpt lat="42.852542" lon="6.3318985"><ele>0.0</ele><time>2026-04-30T20:51:53.07Z</time></trkpt><trkpt lat="42.8525868" lon="6.3319876"><ele>0.0</ele><time>2026-04-30T20:51:54.069Z</time></trkpt><trkpt lat="42.8526336" lon="6.3320761"><ele>0.0</ele><time>2026-04-30T20:51:55.07Z</time></trkpt><trkpt lat="42.8526774" lon="6.3321643"><ele>0.0</ele><time>2026-04-30T20:51:56.069Z</time></trkpt><trkpt lat="42.8527186" lon="6.3322588"><ele>0.0</ele><time>2026-04-30T20:51:57.069Z</time></trkpt><trkpt lat="42.8527606" lon="6.3323468"><ele>0.0</ele><time>2026-04-30T20:51:58.069Z</time></trkpt><trkpt lat="42.852811" lon="6.3324379"><ele>0.0</ele><time>2026-04-30T20:51:59.07Z</time></trkpt><trkpt lat="42.8528616" lon="6.3325317"><ele>0.0</ele><time>2026-04-30T20:52:00.069Z</time></trkpt><trkpt lat="42.8529073" lon="6.3326276"><ele>0.0</ele><time>2026-04-30T20:52:01.069Z</time></trkpt><trkpt lat="42.8530071" lon="6.3328138"><ele>0.0</ele><time>2026-04-30T20:52:03.069Z</time></trkpt><trkpt lat="42.853055" lon="6.3329113"><ele>0.0</ele><time>2026-04-30T20:52:04.07Z</time></trkpt><trkpt lat="42.8531034" lon="6.3330064"><ele>0.0</ele><time>2026-04-30T20:52:05.07Z</time></trkpt><trkpt lat="42.8531513" lon="6.3331032"><ele>0.0</ele><time>2026-04-30T20:52:06.069Z</time></trkpt><trkpt lat="42.8531966" lon="6.3332"><ele>0.0</ele><time>2026-04-30T20:52:07.069Z</time></trkpt><trkpt lat="42.8532433" lon="6.3332917"><ele>0.0</ele><time>2026-04-30T20:52:08.07Z</time></trkpt><trkpt lat="42.8532919" lon="6.3333831"><ele>0.0</ele><time>2026-04-30T20:52:09.07Z</time></trkpt><trkpt lat="42.8533402" lon="6.333478"><ele>0.0</ele><time>2026-04-30T20:52:10.069Z</time></trkpt><trkpt lat="42.8533856" lon="6.3335704"><ele>0.0</ele><time>2026-04-30T20:52:11.07Z</time></trkpt><trkpt lat="42.8534768" lon="6.3337588"><ele>0.0</ele><time>2026-04-30T20:52:13.069Z</time></trkpt><trkpt lat="42.8535221" lon="6.3338502"><ele>0.0</ele><time>2026-04-30T20:52:14.069Z</time></trkpt><trkpt lat="42.8535682" lon="6.3339431"><ele>0.0</ele><time>2026-04-30T20:52:15.07Z</time></trkpt><trkpt lat="42.8536153" lon="6.3340369"><ele>0.0</ele><time>2026-04-30T20:52:16.069Z</time></trkpt><trkpt lat="42.8536621" lon="6.3341317"><ele>0.0</ele><time>2026-04-30T20:52:17.069Z</time></trkpt><trkpt lat="42.8537043" lon="6.3342269"><ele>0.0</ele><time>2026-04-30T20:52:18.07Z</time></trkpt><trkpt lat="42.8537472" lon="6.3343189"><ele>0.0</ele><time>2026-04-30T20:52:19.07Z</time></trkpt><trkpt lat="42.8537921" lon="6.3344102"><ele>0.0</ele><time>2026-04-30T20:52:20.069Z</time></trkpt><trkpt lat="42.8538369" lon="6.3345108"><ele>0.0</ele><time>2026-04-30T20:52:21.069Z</time></trkpt><trkpt lat="42.8538819" lon="6.3346124"><ele>0.0</ele><time>2026-04-30T20:52:22.069Z</time></trkpt><trkpt lat="42.8539717" lon="6.33481"><ele>0.0</ele><time>2026-04-30T20:52:24.069Z</time></trkpt><trkpt lat="42.85401" lon="6.3349095"><ele>0.0</ele><time>2026-04-30T20:52:25.07Z</time></trkpt><trkpt lat="42.8540505" lon="6.3350081"><ele>0.0</ele><time>2026-04-30T20:52:26.07Z</time></trkpt><trkpt lat="42.8540903" lon="6.3351079"><ele>0.0</ele><time>2026-04-30T20:52:27.069Z</time></trkpt><trkpt lat="42.8541318" lon="6.335202"><ele>0.0</ele><time>2026-04-30T20:52:28.07Z</time></trkpt><trkpt lat="42.8541734" lon="6.3352963"><ele>0.0</ele><time>2026-04-30T20:52:29.069Z</time></trkpt><trkpt lat="42.8542214" lon="6.3353877"><ele>0.0</ele><time>2026-04-30T20:52:30.07Z</time></trkpt><trkpt lat="42.8542672" lon="6.3354799"><ele>0.0</ele><time>2026-04-30T20:52:31.07Z</time></trkpt><trkpt lat="42.8543132" lon="6.3355731"><ele>0.0</ele><time>2026-04-30T20:52:32.07Z</time></trkpt><trkpt lat="42.8543582" lon="6.3356694"><ele>0.0</ele><time>2026-04-30T20:52:33.069Z</time></trkpt><trkpt lat="42.8544066" lon="6.3357647"><ele>0.0</ele><time>2026-04-30T20:52:34.07Z</time></trkpt><trkpt lat="42.8544519" lon="6.3358597"><ele>0.0</ele><time>2026-04-30T20:52:35.069Z</time></trkpt><trkpt lat="42.8544948" lon="6.3359603"><ele>0.0</ele><time>2026-04-30T20:52:36.069Z</time></trkpt><trkpt lat="42.8545407" lon="6.3360534"><ele>0.0</ele><time>2026-04-30T20:52:37.07Z</time></trkpt><trkpt lat="42.8545839" lon="6.3361495"><ele>0.0</ele><time>2026-04-30T20:52:38.069Z</time></trkpt><trkpt lat="42.8546271" lon="6.3362449"><ele>0.0</ele><time>2026-04-30T20:52:39.069Z</time></trkpt><trkpt lat="42.8546687" lon="6.3363421"><ele>0.0</ele><time>2026-04-30T20:52:40.069Z</time></trkpt><trkpt lat="42.8547118" lon="6.3364401"><ele>0.0</ele><time>2026-04-30T20:52:41.07Z</time></trkpt><trkpt lat="42.8547569" lon="6.3365381"><ele>0.0</ele><time>2026-04-30T20:52:42.069Z</time></trkpt><trkpt lat="42.8548885" lon="6.3368205"><ele>0.0</ele><time>2026-04-30T20:52:45.069Z</time></trkpt><trkpt lat="42.8549323" lon="6.336909"><ele>0.0</ele><time>2026-04-30T20:52:46.07Z</time></trkpt><trkpt lat="42.8549785" lon="6.337003"><ele>0.0</ele><time>2026-04-30T20:52:47.07Z</time></trkpt><trkpt lat="42.8550237" lon="6.337094"><ele>0.0</ele><time>2026-04-30T20:52:48.069Z</time></trkpt><trkpt lat="42.8550715" lon="6.3371864"><ele>0.0</ele><time>2026-04-30T20:52:49.069Z</time></trkpt><trkpt lat="42.8551185" lon="6.3372782"><ele>0.0</ele><time>2026-04-30T20:52:50.07Z</time></trkpt><trkpt lat="42.855165" lon="6.3373773"><ele>0.0</ele><time>2026-04-30T20:52:51.069Z</time></trkpt><trkpt lat="42.8552133" lon="6.3374773"><ele>0.0</ele><time>2026-04-30T20:52:52.069Z</time></trkpt><trkpt lat="42.8552554" lon="6.3375805"><ele>0.0</ele><time>2026-04-30T20:52:53.069Z</time></trkpt><trkpt lat="42.8552978" lon="6.3376794"><ele>0.0</ele><time>2026-04-30T20:52:54.07Z</time></trkpt><trkpt lat="42.8553403" lon="6.3377751"><ele>0.0</ele><time>2026-04-30T20:52:55.069Z</time></trkpt><trkpt lat="42.8553821" lon="6.3378702"><ele>0.0</ele><time>2026-04-30T20:52:56.069Z</time></trkpt><trkpt lat="42.8554208" lon="6.3379674"><ele>0.0</ele><time>2026-04-30T20:52:57.069Z</time></trkpt><trkpt lat="42.8554602" lon="6.3380666"><ele>0.0</ele><time>2026-04-30T20:52:58.07Z</time></trkpt><trkpt lat="42.8555034" lon="6.3381603"><ele>0.0</ele><time>2026-04-30T20:52:59.07Z</time></trkpt><trkpt lat="42.8555513" lon="6.3382477"><ele>0.0</ele><time>2026-04-30T20:53:00.069Z</time></trkpt><trkpt lat="42.8555984" lon="6.3383396"><ele>0.0</ele><time>2026-04-30T20:53:01.069Z</time></trkpt><trkpt lat="42.8556464" lon="6.3384362"><ele>0.0</ele><time>2026-04-30T20:53:02.07Z</time></trkpt><trkpt lat="42.8556949" lon="6.3385314"><ele>0.0</ele><time>2026-04-30T20:53:03.07Z</time></trkpt><trkpt lat="42.8557451" lon="6.3386243"><ele>0.0</ele><time>2026-04-30T20:53:04.07Z</time></trkpt><trkpt lat="42.8558417" lon="6.3388096"><ele>0.0</ele><time>2026-04-30T20:53:06.07Z</time></trkpt><trkpt lat="42.8558899" lon="6.3389026"><ele>0.0</ele><time>2026-04-30T20:53:07.069Z</time></trkpt><trkpt lat="42.855937" lon="6.3390015"><ele>0.0</ele><time>2026-04-30T20:53:08.069Z</time></trkpt><trkpt lat="42.8559852" lon="6.3390963"><ele>0.0</ele><time>2026-04-30T20:53:09.069Z</time></trkpt><trkpt lat="42.8560321" lon="6.3391913"><ele>0.0</ele><time>2026-04-30T20:53:10.069Z</time></trkpt><trkpt lat="42.8560756" lon="6.3392866"><ele>0.0</ele><time>2026-04-30T20:53:11.07Z</time></trkpt><trkpt lat="42.8561153" lon="6.3393833"><ele>0.0</ele><time>2026-04-30T20:53:12.07Z</time></trkpt><trkpt lat="42.8561568" lon="6.3394769"><ele>0.0</ele><time>2026-04-30T20:53:13.07Z</time></trkpt><trkpt lat="42.8562029" lon="6.3395708"><ele>0.0</ele><time>2026-04-30T20:53:14.07Z</time></trkpt><trkpt lat="42.8562514" lon="6.339666"><ele>0.0</ele><time>2026-04-30T20:53:15.069Z</time></trkpt><trkpt lat="42.8563531" lon="6.3398548"><ele>0.0</ele><time>2026-04-30T20:53:17.07Z</time></trkpt><trkpt lat="42.8564048" lon="6.3399462"><ele>0.0</ele><time>2026-04-30T20:53:18.069Z</time></trkpt><trkpt lat="42.8564546" lon="6.3400408"><ele>0.0</ele><time>2026-04-30T20:53:19.069Z</time></trkpt><trkpt lat="42.8564998" lon="6.3401375"><ele>0.0</ele><time>2026-04-30T20:53:20.069Z</time></trkpt><trkpt lat="42.8565463" lon="6.3402377"><ele>0.0</ele><time>2026-04-30T20:53:21.069Z</time></trkpt><trkpt lat="42.8565975" lon="6.3403346"><ele>0.0</ele><time>2026-04-30T20:53:22.07Z</time></trkpt><trkpt lat="42.8566435" lon="6.3404328"><ele>0.0</ele><time>2026-04-30T20:53:23.07Z</time></trkpt><trkpt lat="42.8566866" lon="6.3405299"><ele>0.0</ele><time>2026-04-30T20:53:24.07Z</time></trkpt><trkpt lat="42.8567346" lon="6.3406275"><ele>0.0</ele><time>2026-04-30T20:53:25.07Z</time></trkpt><trkpt lat="42.8568329" lon="6.3408248"><ele>0.0</ele><time>2026-04-30T20:53:27.069Z</time></trkpt><trkpt lat="42.8568799" lon="6.3409226"><ele>0.0</ele><time>2026-04-30T20:53:28.069Z</time></trkpt><trkpt lat="42.8569235" lon="6.3410229"><ele>0.0</ele><time>2026-04-30T20:53:29.07Z</time></trkpt><trkpt lat="42.85697" lon="6.3411199"><ele>0.0</ele><time>2026-04-30T20:53:30.069Z</time></trkpt><trkpt lat="42.8570196" lon="6.3412161"><ele>0.0</ele><time>2026-04-30T20:53:31.07Z</time></trkpt><trkpt lat="42.8570698" lon="6.3413098"><ele>0.0</ele><time>2026-04-30T20:53:32.07Z</time></trkpt><trkpt lat="42.8571169" lon="6.3414063"><ele>0.0</ele><time>2026-04-30T20:53:33.069Z</time></trkpt><trkpt lat="42.8571604" lon="6.3415037"><ele>0.0</ele><time>2026-04-30T20:53:34.069Z</time></trkpt><trkpt lat="42.8572005" lon="6.3415987"><ele>0.0</ele><time>2026-04-30T20:53:35.069Z</time></trkpt><trkpt lat="42.8572452" lon="6.3416965"><ele>0.0</ele><time>2026-04-30T20:53:36.069Z</time></trkpt><trkpt lat="42.8572903" lon="6.3417921"><ele>0.0</ele><time>2026-04-30T20:53:37.069Z</time></trkpt><trkpt lat="42.8573382" lon="6.3418912"><ele>0.0</ele><time>2026-04-30T20:53:38.07Z</time></trkpt><trkpt lat="42.8573824" lon="6.3419893"><ele>0.0</ele><time>2026-04-30T20:53:39.069Z</time></trkpt><trkpt lat="42.8574269" lon="6.3420854"><ele>0.0</ele><time>2026-04-30T20:53:40.07Z</time></trkpt><trkpt lat="42.8574801" lon="6.3421756"><ele>0.0</ele><time>2026-04-30T20:53:41.07Z</time></trkpt><trkpt lat="42.8575282" lon="6.3422697"><ele>0.0</ele><time>2026-04-30T20:53:42.069Z</time></trkpt><trkpt lat="42.8575733" lon="6.3423692"><ele>0.0</ele><time>2026-04-30T20:53:43.07Z</time></trkpt><trkpt lat="42.8576152" lon="6.342468"><ele>0.0</ele><time>2026-04-30T20:53:44.069Z</time></trkpt><trkpt lat="42.8576571" lon="6.3425663"><ele>0.0</ele><time>2026-04-30T20:53:45.069Z</time></trkpt><trkpt lat="42.8576945" lon="6.3426722"><ele>0.0</ele><time>2026-04-30T20:53:46.07Z</time></trkpt><trkpt lat="42.8577328" lon="6.3427774"><ele>0.0</ele><time>2026-04-30T20:53:47.07Z</time></trkpt><trkpt lat="42.8578676" lon="6.3430702"><ele>0.0</ele><time>2026-04-30T20:53:50.069Z</time></trkpt><trkpt lat="42.8579148" lon="6.3431647"><ele>0.0</ele><time>2026-04-30T20:53:51.07Z</time></trkpt><trkpt lat="42.8579649" lon="6.3432555"><ele>0.0</ele><time>2026-04-30T20:53:52.07Z</time></trkpt><trkpt lat="42.8580139" lon="6.3433525"><ele>0.0</ele><time>2026-04-30T20:53:53.07Z</time></trkpt><trkpt lat="42.8580585" lon="6.3434504"><ele>0.0</ele><time>2026-04-30T20:53:54.069Z</time></trkpt><trkpt lat="42.8581002" lon="6.3435468"><ele>0.0</ele><time>2026-04-30T20:53:55.069Z</time></trkpt><trkpt lat="42.8581448" lon="6.3436432"><ele>0.0</ele><time>2026-04-30T20:53:56.069Z</time></trkpt><trkpt lat="42.8581888" lon="6.3437402"><ele>0.0</ele><time>2026-04-30T20:53:57.07Z</time></trkpt><trkpt lat="42.8582304" lon="6.3438342"><ele>0.0</ele><time>2026-04-30T20:53:58.069Z</time></trkpt><trkpt lat="42.8582705" lon="6.3439287"><ele>0.0</ele><time>2026-04-30T20:53:59.069Z</time></trkpt><trkpt lat="42.8583134" lon="6.3440239"><ele>0.0</ele><time>2026-04-30T20:54:00.069Z</time></trkpt><trkpt lat="42.858354" lon="6.3441116"><ele>0.0</ele><time>2026-04-30T20:54:01.07Z</time></trkpt><trkpt lat="42.8584043" lon="6.3442008"><ele>0.0</ele><time>2026-04-30T20:54:02.07Z</time></trkpt><trkpt lat="42.8584518" lon="6.3442963"><ele>0.0</ele><time>2026-04-30T20:54:03.07Z</time></trkpt><trkpt lat="42.8584969" lon="6.3443901"><ele>0.0</ele><time>2026-04-30T20:54:04.069Z</time></trkpt><trkpt lat="42.8585344" lon="6.3444723"><ele>0.0</ele><time>2026-04-30T20:54:05.07Z</time></trkpt><trkpt lat="42.8585812" lon="6.3445712"><ele>0.0</ele><time>2026-04-30T20:54:06.069Z</time></trkpt><trkpt lat="42.8586284" lon="6.344665"><ele>0.0</ele><time>2026-04-30T20:54:07.069Z</time></trkpt><trkpt lat="42.8586717" lon="6.3447627"><ele>0.0</ele><time>2026-04-30T20:54:08.069Z</time></trkpt><trkpt lat="42.8587166" lon="6.3448626"><ele>0.0</ele><time>2026-04-30T20:54:09.069Z</time></trkpt><trkpt lat="42.8588066" lon="6.3450484"><ele>0.0</ele><time>2026-04-30T20:54:11.07Z</time></trkpt><trkpt lat="42.8588515" lon="6.3451448"><ele>0.0</ele><time>2026-04-30T20:54:12.069Z</time></trkpt><trkpt lat="42.8588981" lon="6.3452429"><ele>0.0</ele><time>2026-04-30T20:54:13.069Z</time></trkpt><trkpt lat="42.8589464" lon="6.345341"><ele>0.0</ele><time>2026-04-30T20:54:14.07Z</time></trkpt><trkpt lat="42.8589914" lon="6.3454393"><ele>0.0</ele><time>2026-04-30T20:54:15.069Z</time></trkpt><trkpt lat="42.8590371" lon="6.3455374"><ele>0.0</ele><time>2026-04-30T20:54:16.069Z</time></trkpt><trkpt lat="42.8590817" lon="6.3456329"><ele>0.0</ele><time>2026-04-30T20:54:17.07Z</time></trkpt><trkpt lat="42.8591239" lon="6.3457335"><ele>0.0</ele><time>2026-04-30T20:54:18.069Z</time></trkpt><trkpt lat="42.8591698" lon="6.3458339"><ele>0.0</ele><time>2026-04-30T20:54:19.069Z</time></trkpt><trkpt lat="42.8592148" lon="6.3459384"><ele>0.0</ele><time>2026-04-30T20:54:20.07Z</time></trkpt><trkpt lat="42.8592596" lon="6.346045"><ele>0.0</ele><time>2026-04-30T20:54:21.069Z</time></trkpt><trkpt lat="42.8593032" lon="6.3461517"><ele>0.0</ele><time>2026-04-30T20:54:22.069Z</time></trkpt><trkpt lat="42.8593462" lon="6.3462605"><ele>0.0</ele><time>2026-04-30T20:54:23.069Z</time></trkpt><trkpt lat="42.8593872" lon="6.3463614"><ele>0.0</ele><time>2026-04-30T20:54:24.07Z</time></trkpt><trkpt lat="42.8594242" lon="6.3464659"><ele>0.0</ele><time>2026-04-30T20:54:25.069Z</time></trkpt><trkpt lat="42.8594621" lon="6.3465697"><ele>0.0</ele><time>2026-04-30T20:54:26.069Z</time></trkpt><trkpt lat="42.8595005" lon="6.3466744"><ele>0.0</ele><time>2026-04-30T20:54:27.069Z</time></trkpt><trkpt lat="42.8595388" lon="6.3467765"><ele>0.0</ele><time>2026-04-30T20:54:28.07Z</time></trkpt><trkpt lat="42.8595754" lon="6.3468793"><ele>0.0</ele><time>2026-04-30T20:54:29.069Z</time></trkpt><trkpt lat="42.8596166" lon="6.3469799"><ele>0.0</ele><time>2026-04-30T20:54:30.07Z</time></trkpt><trkpt lat="42.8597079" lon="6.3471829"><ele>0.0</ele><time>2026-04-30T20:54:32.07Z</time></trkpt><trkpt lat="42.8597519" lon="6.3472783"><ele>0.0</ele><time>2026-04-30T20:54:33.069Z</time></trkpt><trkpt lat="42.8597945" lon="6.3473779"><ele>0.0</ele><time>2026-04-30T20:54:34.07Z</time></trkpt><trkpt lat="42.859843" lon="6.3474762"><ele>0.0</ele><time>2026-04-30T20:54:35.069Z</time></trkpt><trkpt lat="42.8598901" lon="6.3475745"><ele>0.0</ele><time>2026-04-30T20:54:36.069Z</time></trkpt><trkpt lat="42.8599352" lon="6.3476702"><ele>0.0</ele><time>2026-04-30T20:54:37.069Z</time></trkpt><trkpt lat="42.8599815" lon="6.3477697"><ele>0.0</ele><time>2026-04-30T20:54:38.069Z</time></trkpt><trkpt lat="42.860028" lon="6.3478664"><ele>0.0</ele><time>2026-04-30T20:54:39.069Z</time></trkpt><trkpt lat="42.8600733" lon="6.3479649"><ele>0.0</ele><time>2026-04-30T20:54:40.069Z</time></trkpt><trkpt lat="42.8601169" lon="6.3480599"><ele>0.0</ele><time>2026-04-30T20:54:41.069Z</time></trkpt><trkpt lat="42.8601604" lon="6.3481537"><ele>0.0</ele><time>2026-04-30T20:54:42.069Z</time></trkpt><trkpt lat="42.8602047" lon="6.348252"><ele>0.0</ele><time>2026-04-30T20:54:43.069Z</time></trkpt><trkpt lat="42.8602474" lon="6.34834"><ele>0.0</ele><time>2026-04-30T20:54:44.069Z</time></trkpt><trkpt lat="42.8602918" lon="6.3484327"><ele>0.0</ele><time>2026-04-30T20:54:45.069Z</time></trkpt><trkpt lat="42.8603428" lon="6.3485267"><ele>0.0</ele><time>2026-04-30T20:54:46.07Z</time></trkpt><trkpt lat="42.8603887" lon="6.3486154"><ele>0.0</ele><time>2026-04-30T20:54:47.07Z</time></trkpt><trkpt lat="42.8604407" lon="6.3487141"><ele>0.0</ele><time>2026-04-30T20:54:48.069Z</time></trkpt><trkpt lat="42.8604883" lon="6.3488053"><ele>0.0</ele><time>2026-04-30T20:54:49.069Z</time></trkpt><trkpt lat="42.8605397" lon="6.3488998"><ele>0.0</ele><time>2026-04-30T20:54:50.07Z</time></trkpt><trkpt lat="42.8605868" lon="6.3489904"><ele>0.0</ele><time>2026-04-30T20:54:51.07Z</time></trkpt><trkpt lat="42.8607302" lon="6.34927"><ele>0.0</ele><time>2026-04-30T20:54:54.07Z</time></trkpt><trkpt lat="42.8607723" lon="6.3493651"><ele>0.0</ele><time>2026-04-30T20:54:55.069Z</time></trkpt><trkpt lat="42.8608121" lon="6.3494662"><ele>0.0</ele><time>2026-04-30T20:54:56.069Z</time></trkpt><trkpt lat="42.8608534" lon="6.349565"><ele>0.0</ele><time>2026-04-30T20:54:57.07Z</time></trkpt><trkpt lat="42.8608924" lon="6.3496477"><ele>0.0</ele><time>2026-04-30T20:54:58.07Z</time></trkpt><trkpt lat="42.8609349" lon="6.3497404"><ele>0.0</ele><time>2026-04-30T20:54:59.069Z</time></trkpt><trkpt lat="42.8609743" lon="6.3498349"><ele>0.0</ele><time>2026-04-30T20:55:00.069Z</time></trkpt><trkpt lat="42.8610216" lon="6.3499271"><ele>0.0</ele><time>2026-04-30T20:55:01.07Z</time></trkpt><trkpt lat="42.8610698" lon="6.3500185"><ele>0.0</ele><time>2026-04-30T20:55:02.07Z</time></trkpt><trkpt lat="42.8611152" lon="6.3501131"><ele>0.0</ele><time>2026-04-30T20:55:03.07Z</time></trkpt><trkpt lat="42.8611618" lon="6.3502094"><ele>0.0</ele><time>2026-04-30T20:55:04.069Z</time></trkpt><trkpt lat="42.8612083" lon="6.3503061"><ele>0.0</ele><time>2026-04-30T20:55:05.069Z</time></trkpt><trkpt lat="42.8612548" lon="6.3504044"><ele>0.0</ele><time>2026-04-30T20:55:06.069Z</time></trkpt><trkpt lat="42.8613077" lon="6.3505012"><ele>0.0</ele><time>2026-04-30T20:55:07.069Z</time></trkpt><trkpt lat="42.8613623" lon="6.3506004"><ele>0.0</ele><time>2026-04-30T20:55:08.07Z</time></trkpt><trkpt lat="42.8614146" lon="6.3506943"><ele>0.0</ele><time>2026-04-30T20:55:09.069Z</time></trkpt><trkpt lat="42.8614637" lon="6.3507906"><ele>0.0</ele><time>2026-04-30T20:55:10.07Z</time></trkpt><trkpt lat="42.861509" lon="6.350888"><ele>0.0</ele><time>2026-04-30T20:55:11.069Z</time></trkpt><trkpt lat="42.8615574" lon="6.3509841"><ele>0.0</ele><time>2026-04-30T20:55:12.069Z</time></trkpt><trkpt lat="42.8616177" lon="6.3510786"><ele>0.0</ele><time>2026-04-30T20:55:13.07Z</time></trkpt><trkpt lat="42.861694" lon="6.3512714"><ele>0.0</ele><time>2026-04-30T20:55:15.07Z</time></trkpt><trkpt lat="42.8617383" lon="6.3513696"><ele>0.0</ele><time>2026-04-30T20:55:16.07Z</time></trkpt><trkpt lat="42.8617806" lon="6.3514695"><ele>0.0</ele><time>2026-04-30T20:55:17.069Z</time></trkpt><trkpt lat="42.8618291" lon="6.3515682"><ele>0.0</ele><time>2026-04-30T20:55:18.069Z</time></trkpt><trkpt lat="42.861872" lon="6.3516636"><ele>0.0</ele><time>2026-04-30T20:55:19.07Z</time></trkpt><trkpt lat="42.8619166" lon="6.3517595"><ele>0.0</ele><time>2026-04-30T20:55:20.07Z</time></trkpt><trkpt lat="42.8619616" lon="6.3518547"><ele>0.0</ele><time>2026-04-30T20:55:21.07Z</time></trkpt><trkpt lat="42.8620095" lon="6.3519512"><ele>0.0</ele><time>2026-04-30T20:55:22.069Z</time></trkpt><trkpt lat="42.8620569" lon="6.3520466"><ele>0.0</ele><time>2026-04-30T20:55:23.069Z</time></trkpt><trkpt lat="42.8621468" lon="6.3522419"><ele>0.0</ele><time>2026-04-30T20:55:25.07Z</time></trkpt><trkpt lat="42.8621983" lon="6.3523319"><ele>0.0</ele><time>2026-04-30T20:55:26.069Z</time></trkpt><trkpt lat="42.8622453" lon="6.3524233"><ele>0.0</ele><time>2026-04-30T20:55:27.07Z</time></trkpt><trkpt lat="42.8622888" lon="6.352521"><ele>0.0</ele><time>2026-04-30T20:55:28.07Z</time></trkpt><trkpt lat="42.8623293" lon="6.3526197"><ele>0.0</ele><time>2026-04-30T20:55:29.069Z</time></trkpt><trkpt lat="42.8623719" lon="6.3527183"><ele>0.0</ele><time>2026-04-30T20:55:30.07Z</time></trkpt><trkpt lat="42.8624153" lon="6.3528167"><ele>0.0</ele><time>2026-04-30T20:55:31.069Z</time></trkpt><trkpt lat="42.8624542" lon="6.3529151"><ele>0.0</ele><time>2026-04-30T20:55:32.07Z</time></trkpt><trkpt lat="42.862497" lon="6.3530131"><ele>0.0</ele><time>2026-04-30T20:55:33.069Z</time></trkpt><trkpt lat="42.8625376" lon="6.3531147"><ele>0.0</ele><time>2026-04-30T20:55:34.069Z</time></trkpt><trkpt lat="42.8626272" lon="6.3533221"><ele>0.0</ele><time>2026-04-30T20:55:36.069Z</time></trkpt><trkpt lat="42.8626719" lon="6.3534212"><ele>0.0</ele><time>2026-04-30T20:55:37.07Z</time></trkpt><trkpt lat="42.862718" lon="6.353524"><ele>0.0</ele><time>2026-04-30T20:55:38.069Z</time></trkpt><trkpt lat="42.8627617" lon="6.3536276"><ele>0.0</ele><time>2026-04-30T20:55:39.07Z</time></trkpt><trkpt lat="42.8627964" lon="6.3537338"><ele>0.0</ele><time>2026-04-30T20:55:40.07Z</time></trkpt><trkpt lat="42.8628381" lon="6.3538389"><ele>0.0</ele><time>2026-04-30T20:55:41.07Z</time></trkpt><trkpt lat="42.8628833" lon="6.3539334"><ele>0.0</ele><time>2026-04-30T20:55:42.07Z</time></trkpt><trkpt lat="42.8629237" lon="6.35403"><ele>0.0</ele><time>2026-04-30T20:55:43.07Z</time></trkpt><trkpt lat="42.8629667" lon="6.3541281"><ele>0.0</ele><time>2026-04-30T20:55:44.069Z</time></trkpt><trkpt lat="42.8630102" lon="6.3542236"><ele>0.0</ele><time>2026-04-30T20:55:45.07Z</time></trkpt><trkpt lat="42.8630565" lon="6.3543179"><ele>0.0</ele><time>2026-04-30T20:55:46.069Z</time></trkpt><trkpt lat="42.8631018" lon="6.3544149"><ele>0.0</ele><time>2026-04-30T20:55:47.069Z</time></trkpt><trkpt lat="42.8631466" lon="6.3545126"><ele>0.0</ele><time>2026-04-30T20:55:48.07Z</time></trkpt><trkpt lat="42.8631918" lon="6.3546083"><ele>0.0</ele><time>2026-04-30T20:55:49.069Z</time></trkpt><trkpt lat="42.8632367" lon="6.3547032"><ele>0.0</ele><time>2026-04-30T20:55:50.069Z</time></trkpt><trkpt lat="42.8632852" lon="6.354798"><ele>0.0</ele><time>2026-04-30T20:55:51.07Z</time></trkpt><trkpt lat="42.8633318" lon="6.3548947"><ele>0.0</ele><time>2026-04-30T20:55:52.069Z</time></trkpt><trkpt lat="42.8633772" lon="6.3549856"><ele>0.0</ele><time>2026-04-30T20:55:53.07Z</time></trkpt><trkpt lat="42.8634233" lon="6.3550797"><ele>0.0</ele><time>2026-04-30T20:55:54.07Z</time></trkpt><trkpt lat="42.8634705" lon="6.3551631"><ele>0.0</ele><time>2026-04-30T20:55:55.07Z</time></trkpt><trkpt lat="42.8636129" lon="6.3554168"><ele>0.0</ele><time>2026-04-30T20:55:58.07Z</time></trkpt><trkpt lat="42.8636559" lon="6.3555057"><ele>0.0</ele><time>2026-04-30T20:55:59.07Z</time></trkpt><trkpt lat="42.8637017" lon="6.3555997"><ele>0.0</ele><time>2026-04-30T20:56:00.07Z</time></trkpt><trkpt lat="42.8637485" lon="6.3556947"><ele>0.0</ele><time>2026-04-30T20:56:01.07Z</time></trkpt><trkpt lat="42.8637969" lon="6.3557868"><ele>0.0</ele><time>2026-04-30T20:56:02.069Z</time></trkpt><trkpt lat="42.8638448" lon="6.3558829"><ele>0.0</ele><time>2026-04-30T20:56:03.07Z</time></trkpt><trkpt lat="42.8638935" lon="6.3559747"><ele>0.0</ele><time>2026-04-30T20:56:04.069Z</time></trkpt><trkpt lat="42.8639416" lon="6.356071"><ele>0.0</ele><time>2026-04-30T20:56:05.07Z</time></trkpt><trkpt lat="42.8639883" lon="6.3561698"><ele>0.0</ele><time>2026-04-30T20:56:06.069Z</time></trkpt><trkpt lat="42.8640334" lon="6.3562637"><ele>0.0</ele><time>2026-04-30T20:56:07.069Z</time></trkpt><trkpt lat="42.8640801" lon="6.3563537"><ele>0.0</ele><time>2026-04-30T20:56:08.069Z</time></trkpt><trkpt lat="42.8641283" lon="6.3564448"><ele>0.0</ele><time>2026-04-30T20:56:09.069Z</time></trkpt><trkpt lat="42.8641768" lon="6.3565334"><ele>0.0</ele><time>2026-04-30T20:56:10.069Z</time></trkpt><trkpt lat="42.8642234" lon="6.3566265"><ele>0.0</ele><time>2026-04-30T20:56:11.07Z</time></trkpt><trkpt lat="42.8642699" lon="6.3567241"><ele>0.0</ele><time>2026-04-30T20:56:12.07Z</time></trkpt><trkpt lat="42.864318" lon="6.3568211"><ele>0.0</ele><time>2026-04-30T20:56:13.069Z</time></trkpt><trkpt lat="42.8643684" lon="6.3569148"><ele>0.0</ele><time>2026-04-30T20:56:14.069Z</time></trkpt><trkpt lat="42.8644192" lon="6.3570069"><ele>0.0</ele><time>2026-04-30T20:56:15.07Z</time></trkpt><trkpt lat="42.8644669" lon="6.3570984"><ele>0.0</ele><time>2026-04-30T20:56:16.07Z</time></trkpt><trkpt lat="42.8645134" lon="6.3571901"><ele>0.0</ele><time>2026-04-30T20:56:17.07Z</time></trkpt><trkpt lat="42.8646115" lon="6.3573792"><ele>0.0</ele><time>2026-04-30T20:56:19.069Z</time></trkpt><trkpt lat="42.8646615" lon="6.3574716"><ele>0.0</ele><time>2026-04-30T20:56:20.069Z</time></trkpt><trkpt lat="42.8647101" lon="6.3575653"><ele>0.0</ele><time>2026-04-30T20:56:21.07Z</time></trkpt><trkpt lat="42.8647539" lon="6.3576586"><ele>0.0</ele><time>2026-04-30T20:56:22.069Z</time></trkpt><trkpt lat="42.864797" lon="6.3577434"><ele>0.0</ele><time>2026-04-30T20:56:23.07Z</time></trkpt><trkpt lat="42.8648434" lon="6.3578351"><ele>0.0</ele><time>2026-04-30T20:56:24.069Z</time></trkpt><trkpt lat="42.8648901" lon="6.3579281"><ele>0.0</ele><time>2026-04-30T20:56:25.07Z</time></trkpt><trkpt lat="42.8649355" lon="6.3580218"><ele>0.0</ele><time>2026-04-30T20:56:26.069Z</time></trkpt><trkpt lat="42.8649773" lon="6.3581252"><ele>0.0</ele><time>2026-04-30T20:56:27.07Z</time></trkpt><trkpt lat="42.8650652" lon="6.3583261"><ele>0.0</ele><time>2026-04-30T20:56:29.069Z</time></trkpt><trkpt lat="42.8651086" lon="6.3584248"><ele>0.0</ele><time>2026-04-30T20:56:30.069Z</time></trkpt><trkpt lat="42.8651537" lon="6.3585154"><ele>0.0</ele><time>2026-04-30T20:56:31.07Z</time></trkpt><trkpt lat="42.8652002" lon="6.3586069"><ele>0.0</ele><time>2026-04-30T20:56:32.069Z</time></trkpt><trkpt lat="42.8652466" lon="6.3587027"><ele>0.0</ele><time>2026-04-30T20:56:33.07Z</time></trkpt><trkpt lat="42.8652935" lon="6.3587942"><ele>0.0</ele><time>2026-04-30T20:56:34.07Z</time></trkpt><trkpt lat="42.86534" lon="6.3588926"><ele>0.0</ele><time>2026-04-30T20:56:35.069Z</time></trkpt><trkpt lat="42.8653837" lon="6.3589888"><ele>0.0</ele><time>2026-04-30T20:56:36.069Z</time></trkpt><trkpt lat="42.8654328" lon="6.3590752"><ele>0.0</ele><time>2026-04-30T20:56:37.069Z</time></trkpt><trkpt lat="42.8654797" lon="6.359169"><ele>0.0</ele><time>2026-04-30T20:56:38.069Z</time></trkpt><trkpt lat="42.8655752" lon="6.3593661"><ele>0.0</ele><time>2026-04-30T20:56:40.069Z</time></trkpt><trkpt lat="42.8656231" lon="6.3594596"><ele>0.0</ele><time>2026-04-30T20:56:41.07Z</time></trkpt><trkpt lat="42.8656646" lon="6.3595572"><ele>0.0</ele><time>2026-04-30T20:56:42.069Z</time></trkpt><trkpt lat="42.865709" lon="6.3596502"><ele>0.0</ele><time>2026-04-30T20:56:43.069Z</time></trkpt><trkpt lat="42.865752" lon="6.3597481"><ele>0.0</ele><time>2026-04-30T20:56:44.069Z</time></trkpt><trkpt lat="42.8657927" lon="6.3598502"><ele>0.0</ele><time>2026-04-30T20:56:45.069Z</time></trkpt><trkpt lat="42.8658317" lon="6.3599507"><ele>0.0</ele><time>2026-04-30T20:56:46.07Z</time></trkpt><trkpt lat="42.8658715" lon="6.3600491"><ele>0.0</ele><time>2026-04-30T20:56:47.069Z</time></trkpt><trkpt lat="42.8659093" lon="6.3601505"><ele>0.0</ele><time>2026-04-30T20:56:48.07Z</time></trkpt><trkpt lat="42.8659547" lon="6.3602583"><ele>0.0</ele><time>2026-04-30T20:56:49.069Z</time></trkpt><trkpt lat="42.8659984" lon="6.3603565"><ele>0.0</ele><time>2026-04-30T20:56:50.069Z</time></trkpt><trkpt lat="42.8660403" lon="6.3604508"><ele>0.0</ele><time>2026-04-30T20:56:51.069Z</time></trkpt><trkpt lat="42.8660871" lon="6.360548"><ele>0.0</ele><time>2026-04-30T20:56:52.07Z</time></trkpt><trkpt lat="42.8661372" lon="6.3606447"><ele>0.0</ele><time>2026-04-30T20:56:53.069Z</time></trkpt><trkpt lat="42.866188" lon="6.3607382"><ele>0.0</ele><time>2026-04-30T20:56:54.07Z</time></trkpt><trkpt lat="42.8662365" lon="6.3608292"><ele>0.0</ele><time>2026-04-30T20:56:55.069Z</time></trkpt><trkpt lat="42.8662851" lon="6.3609259"><ele>0.0</ele><time>2026-04-30T20:56:56.07Z</time></trkpt><trkpt lat="42.8663301" lon="6.3610245"><ele>0.0</ele><time>2026-04-30T20:56:57.07Z</time></trkpt><trkpt lat="42.8663753" lon="6.3611184"><ele>0.0</ele><time>2026-04-30T20:56:58.069Z</time></trkpt><trkpt lat="42.8664247" lon="6.3612003"><ele>0.0</ele><time>2026-04-30T20:56:59.069Z</time></trkpt><trkpt lat="42.8665694" lon="6.3614673"><ele>0.0</ele><time>2026-04-30T20:57:02.069Z</time></trkpt><trkpt lat="42.8666122" lon="6.3615717"><ele>0.0</ele><time>2026-04-30T20:57:03.069Z</time></trkpt><trkpt lat="42.8666569" lon="6.3616682"><ele>0.0</ele><time>2026-04-30T20:57:04.07Z</time></trkpt><trkpt lat="42.8666991" lon="6.3617643"><ele>0.0</ele><time>2026-04-30T20:57:05.07Z</time></trkpt><trkpt lat="42.8667363" lon="6.3618715"><ele>0.0</ele><time>2026-04-30T20:57:06.07Z</time></trkpt><trkpt lat="42.8667725" lon="6.3619759"><ele>0.0</ele><time>2026-04-30T20:57:07.069Z</time></trkpt><trkpt lat="42.8668246" lon="6.3620652"><ele>0.0</ele><time>2026-04-30T20:57:08.069Z</time></trkpt><trkpt lat="42.8668682" lon="6.3621619"><ele>0.0</ele><time>2026-04-30T20:57:09.069Z</time></trkpt><trkpt lat="42.8669145" lon="6.3622539"><ele>0.0</ele><time>2026-04-30T20:57:10.07Z</time></trkpt><trkpt lat="42.866953" lon="6.3623592"><ele>0.0</ele><time>2026-04-30T20:57:11.069Z</time></trkpt><trkpt lat="42.8669943" lon="6.3624605"><ele>0.0</ele><time>2026-04-30T20:57:12.069Z</time></trkpt><trkpt lat="42.8670344" lon="6.3625643"><ele>0.0</ele><time>2026-04-30T20:57:13.069Z</time></trkpt><trkpt lat="42.8670743" lon="6.3626671"><ele>0.0</ele><time>2026-04-30T20:57:14.07Z</time></trkpt><trkpt lat="42.8671184" lon="6.3627706"><ele>0.0</ele><time>2026-04-30T20:57:15.069Z</time></trkpt><trkpt lat="42.8671618" lon="6.3628729"><ele>0.0</ele><time>2026-04-30T20:57:16.069Z</time></trkpt><trkpt lat="42.8672038" lon="6.3629707"><ele>0.0</ele><time>2026-04-30T20:57:17.07Z</time></trkpt><trkpt lat="42.8672474" lon="6.363063"><ele>0.0</ele><time>2026-04-30T20:57:18.07Z</time></trkpt><trkpt lat="42.8672903" lon="6.3631557"><ele>0.0</ele><time>2026-04-30T20:57:19.07Z</time></trkpt><trkpt lat="42.8673365" lon="6.3632444"><ele>0.0</ele><time>2026-04-30T20:57:20.069Z</time></trkpt><trkpt lat="42.8673833" lon="6.3633367"><ele>0.0</ele><time>2026-04-30T20:57:21.069Z</time></trkpt><trkpt lat="42.8674739" lon="6.3635151"><ele>0.0</ele><time>2026-04-30T20:57:23.07Z</time></trkpt><trkpt lat="42.8675233" lon="6.3636083"><ele>0.0</ele><time>2026-04-30T20:57:24.069Z</time></trkpt><trkpt lat="42.8675745" lon="6.3637088"><ele>0.0</ele><time>2026-04-30T20:57:25.07Z</time></trkpt><trkpt lat="42.8676187" lon="6.3638053"><ele>0.0</ele><time>2026-04-30T20:57:26.069Z</time></trkpt><trkpt lat="42.8676602" lon="6.3638961"><ele>0.0</ele><time>2026-04-30T20:57:27.069Z</time></trkpt><trkpt lat="42.8677008" lon="6.3639817"><ele>0.0</ele><time>2026-04-30T20:57:28.069Z</time></trkpt><trkpt lat="42.8677405" lon="6.3640769"><ele>0.0</ele><time>2026-04-30T20:57:29.069Z</time></trkpt><trkpt lat="42.8677849" lon="6.3641718"><ele>0.0</ele><time>2026-04-30T20:57:30.07Z</time></trkpt><trkpt lat="42.8678256" lon="6.3642579"><ele>0.0</ele><time>2026-04-30T20:57:31.07Z</time></trkpt><trkpt lat="42.8679152" lon="6.3644379"><ele>0.0</ele><time>2026-04-30T20:57:33.069Z</time></trkpt><trkpt lat="42.8679645" lon="6.3645431"><ele>0.0</ele><time>2026-04-30T20:57:34.07Z</time></trkpt><trkpt lat="42.8680071" lon="6.3646598"><ele>0.0</ele><time>2026-04-30T20:57:35.07Z</time></trkpt><trkpt lat="42.8680516" lon="6.3647669"><ele>0.0</ele><time>2026-04-30T20:57:36.069Z</time></trkpt><trkpt lat="42.8680952" lon="6.3648777"><ele>0.0</ele><time>2026-04-30T20:57:37.07Z</time></trkpt><trkpt lat="42.8681329" lon="6.3649862"><ele>0.0</ele><time>2026-04-30T20:57:38.07Z</time></trkpt><trkpt lat="42.868175" lon="6.3650884"><ele>0.0</ele><time>2026-04-30T20:57:39.069Z</time></trkpt><trkpt lat="42.8682172" lon="6.3651824"><ele>0.0</ele><time>2026-04-30T20:57:40.07Z</time></trkpt><trkpt lat="42.8682619" lon="6.3652737"><ele>0.0</ele><time>2026-04-30T20:57:41.069Z</time></trkpt><trkpt lat="42.8683022" lon="6.3653674"><ele>0.0</ele><time>2026-04-30T20:57:42.07Z</time></trkpt><trkpt lat="42.8683849" lon="6.3655611"><ele>0.0</ele><time>2026-04-30T20:57:44.07Z</time></trkpt><trkpt lat="42.8684283" lon="6.3656599"><ele>0.0</ele><time>2026-04-30T20:57:45.07Z</time></trkpt><trkpt lat="42.8684735" lon="6.3657534"><ele>0.0</ele><time>2026-04-30T20:57:46.069Z</time></trkpt><trkpt lat="42.868517" lon="6.3658512"><ele>0.0</ele><time>2026-04-30T20:57:47.069Z</time></trkpt><trkpt lat="42.8685634" lon="6.365948"><ele>0.0</ele><time>2026-04-30T20:57:48.07Z</time></trkpt><trkpt lat="42.8686086" lon="6.3660446"><ele>0.0</ele><time>2026-04-30T20:57:49.069Z</time></trkpt><trkpt lat="42.8686503" lon="6.3661417"><ele>0.0</ele><time>2026-04-30T20:57:50.069Z</time></trkpt><trkpt lat="42.8686993" lon="6.3662395"><ele>0.0</ele><time>2026-04-30T20:57:51.069Z</time></trkpt><trkpt lat="42.8687471" lon="6.3663306"><ele>0.0</ele><time>2026-04-30T20:57:52.07Z</time></trkpt><trkpt lat="42.8687948" lon="6.3664217"><ele>0.0</ele><time>2026-04-30T20:57:53.07Z</time></trkpt><trkpt lat="42.8688358" lon="6.3665148"><ele>0.0</ele><time>2026-04-30T20:57:54.069Z</time></trkpt><trkpt lat="42.8688817" lon="6.3666097"><ele>0.0</ele><time>2026-04-30T20:57:55.07Z</time></trkpt><trkpt lat="42.868927" lon="6.3667001"><ele>0.0</ele><time>2026-04-30T20:57:56.07Z</time></trkpt><trkpt lat="42.8689766" lon="6.3667931"><ele>0.0</ele><time>2026-04-30T20:57:57.069Z</time></trkpt><trkpt lat="42.8690266" lon="6.3668847"><ele>0.0</ele><time>2026-04-30T20:57:58.068Z</time></trkpt><trkpt lat="42.8690749" lon="6.3669782"><ele>0.0</ele><time>2026-04-30T20:57:59.068Z</time></trkpt><trkpt lat="42.8691186" lon="6.3670704"><ele>0.0</ele><time>2026-04-30T20:58:00.069Z</time></trkpt><trkpt lat="42.8691637" lon="6.3671652"><ele>0.0</ele><time>2026-04-30T20:58:01.068Z</time></trkpt><trkpt lat="42.8692116" lon="6.3672526"><ele>0.0</ele><time>2026-04-30T20:58:02.069Z</time></trkpt><trkpt lat="42.8692618" lon="6.3673407"><ele>0.0</ele><time>2026-04-30T20:58:03.069Z</time></trkpt><trkpt lat="42.8694131" lon="6.3676276"><ele>0.0</ele><time>2026-04-30T20:58:06.069Z</time></trkpt><trkpt lat="42.8694615" lon="6.3677246"><ele>0.0</ele><time>2026-04-30T20:58:07.068Z</time></trkpt><trkpt lat="42.8695095" lon="6.3678194"><ele>0.0</ele><time>2026-04-30T20:58:08.069Z</time></trkpt><trkpt lat="42.8695582" lon="6.3679148"><ele>0.0</ele><time>2026-04-30T20:58:09.068Z</time></trkpt><trkpt lat="42.8696052" lon="6.3680103"><ele>0.0</ele><time>2026-04-30T20:58:10.068Z</time></trkpt><trkpt lat="42.8696504" lon="6.3681067"><ele>0.0</ele><time>2026-04-30T20:58:11.068Z</time></trkpt><trkpt lat="42.8696954" lon="6.368196"><ele>0.0</ele><time>2026-04-30T20:58:12.068Z</time></trkpt><trkpt lat="42.8697422" lon="6.3682884"><ele>0.0</ele><time>2026-04-30T20:58:13.068Z</time></trkpt><trkpt lat="42.8697888" lon="6.3683788"><ele>0.0</ele><time>2026-04-30T20:58:14.068Z</time></trkpt><trkpt lat="42.8698498" lon="6.3684588"><ele>0.0</ele><time>2026-04-30T20:58:15.069Z</time></trkpt><trkpt lat="42.8698991" lon="6.3685472"><ele>0.0</ele><time>2026-04-30T20:58:16.069Z</time></trkpt><trkpt lat="42.8699472" lon="6.3686398"><ele>0.0</ele><time>2026-04-30T20:58:17.068Z</time></trkpt><trkpt lat="42.8699896" lon="6.3687376"><ele>0.0</ele><time>2026-04-30T20:58:18.068Z</time></trkpt><trkpt lat="42.8700405" lon="6.3688304"><ele>0.0</ele><time>2026-04-30T20:58:19.069Z</time></trkpt><trkpt lat="42.8700913" lon="6.368923"><ele>0.0</ele><time>2026-04-30T20:58:20.068Z</time></trkpt><trkpt lat="42.8701416" lon="6.3690176"><ele>0.0</ele><time>2026-04-30T20:58:21.068Z</time></trkpt><trkpt lat="42.8701916" lon="6.3691158"><ele>0.0</ele><time>2026-04-30T20:58:22.068Z</time></trkpt><trkpt lat="42.8702387" lon="6.3692129"><ele>0.0</ele><time>2026-04-30T20:58:23.068Z</time></trkpt><trkpt lat="42.8702855" lon="6.3693123"><ele>0.0</ele><time>2026-04-30T20:58:24.069Z</time></trkpt><trkpt lat="42.8703347" lon="6.3694055"><ele>0.0</ele><time>2026-04-30T20:58:25.068Z</time></trkpt><trkpt lat="42.870435" lon="6.3695928"><ele>0.0</ele><time>2026-04-30T20:58:27.068Z</time></trkpt><trkpt lat="42.8704862" lon="6.3696811"><ele>0.0</ele><time>2026-04-30T20:58:28.069Z</time></trkpt><trkpt lat="42.8705394" lon="6.3697706"><ele>0.0</ele><time>2026-04-30T20:58:29.069Z</time></trkpt><trkpt lat="42.8705903" lon="6.3698632"><ele>0.0</ele><time>2026-04-30T20:58:30.069Z</time></trkpt><trkpt lat="42.8706406" lon="6.3699478"><ele>0.0</ele><time>2026-04-30T20:58:31.068Z</time></trkpt><trkpt lat="42.870686" lon="6.3700325"><ele>0.0</ele><time>2026-04-30T20:58:32.068Z</time></trkpt><trkpt lat="42.8707323" lon="6.3701208"><ele>0.0</ele><time>2026-04-30T20:58:33.068Z</time></trkpt><trkpt lat="42.870779" lon="6.3702118"><ele>0.0</ele><time>2026-04-30T20:58:34.069Z</time></trkpt><trkpt lat="42.8708241" lon="6.3703008"><ele>0.0</ele><time>2026-04-30T20:58:35.068Z</time></trkpt><trkpt lat="42.8709201" lon="6.3704846"><ele>0.0</ele><time>2026-04-30T20:58:37.068Z</time></trkpt><trkpt lat="42.8709665" lon="6.3705779"><ele>0.0</ele><time>2026-04-30T20:58:38.068Z</time></trkpt><trkpt lat="42.8710137" lon="6.3706682"><ele>0.0</ele><time>2026-04-30T20:58:39.069Z</time></trkpt><trkpt lat="42.8710598" lon="6.3707617"><ele>0.0</ele><time>2026-04-30T20:58:40.069Z</time></trkpt><trkpt lat="42.8711067" lon="6.3708552"><ele>0.0</ele><time>2026-04-30T20:58:41.068Z</time></trkpt><trkpt lat="42.8711537" lon="6.3709468"><ele>0.0</ele><time>2026-04-30T20:58:42.068Z</time></trkpt><trkpt lat="42.8712029" lon="6.371044"><ele>0.0</ele><time>2026-04-30T20:58:43.068Z</time></trkpt><trkpt lat="42.8712513" lon="6.3711382"><ele>0.0</ele><time>2026-04-30T20:58:44.068Z</time></trkpt><trkpt lat="42.8713" lon="6.3712299"><ele>0.0</ele><time>2026-04-30T20:58:45.068Z</time></trkpt><trkpt lat="42.8713482" lon="6.3713217"><ele>0.0</ele><time>2026-04-30T20:58:46.068Z</time></trkpt><trkpt lat="42.8714467" lon="6.3715032"><ele>0.0</ele><time>2026-04-30T20:58:48.068Z</time></trkpt><trkpt lat="42.871495" lon="6.3715977"><ele>0.0</ele><time>2026-04-30T20:58:49.068Z</time></trkpt><trkpt lat="42.8715478" lon="6.3716954"><ele>0.0</ele><time>2026-04-30T20:58:50.068Z</time></trkpt><trkpt lat="42.871597" lon="6.3717901"><ele>0.0</ele><time>2026-04-30T20:58:51.068Z</time></trkpt><trkpt lat="42.8716451" lon="6.371885"><ele>0.0</ele><time>2026-04-30T20:58:52.068Z</time></trkpt><trkpt lat="42.8716951" lon="6.3719753"><ele>0.0</ele><time>2026-04-30T20:58:53.068Z</time></trkpt><trkpt lat="42.8717408" lon="6.372074"><ele>0.0</ele><time>2026-04-30T20:58:54.068Z</time></trkpt><trkpt lat="42.8717871" lon="6.3721698"><ele>0.0</ele><time>2026-04-30T20:58:55.068Z</time></trkpt><trkpt lat="42.8718348" lon="6.3722661"><ele>0.0</ele><time>2026-04-30T20:58:56.068Z</time></trkpt><trkpt lat="42.8718849" lon="6.3723613"><ele>0.0</ele><time>2026-04-30T20:58:57.069Z</time></trkpt><trkpt lat="42.8719393" lon="6.3724656"><ele>0.0</ele><time>2026-04-30T20:58:58.069Z</time></trkpt><trkpt lat="42.8719812" lon="6.3725962"><ele>0.0</ele><time>2026-04-30T20:58:59.068Z</time></trkpt><trkpt lat="42.8720259" lon="6.3726904"><ele>0.0</ele><time>2026-04-30T20:59:00.069Z</time></trkpt><trkpt lat="42.8720929" lon="6.3727682"><ele>0.0</ele><time>2026-04-30T20:59:01.068Z</time></trkpt><trkpt lat="42.8721502" lon="6.3728544"><ele>0.0</ele><time>2026-04-30T20:59:02.068Z</time></trkpt><trkpt lat="42.872209" lon="6.3729364"><ele>0.0</ele><time>2026-04-30T20:59:03.069Z</time></trkpt><trkpt lat="42.8722616" lon="6.3730226"><ele>0.0</ele><time>2026-04-30T20:59:04.069Z</time></trkpt><trkpt lat="42.8723118" lon="6.3731088"><ele>0.0</ele><time>2026-04-30T20:59:05.068Z</time></trkpt><trkpt lat="42.8723618" lon="6.3731972"><ele>0.0</ele><time>2026-04-30T20:59:06.069Z</time></trkpt><trkpt lat="42.8724118" lon="6.3732883"><ele>0.0</ele><time>2026-04-30T20:59:07.068Z</time></trkpt><trkpt lat="42.8725575" lon="6.3735508"><ele>0.0</ele><time>2026-04-30T20:59:10.068Z</time></trkpt><trkpt lat="42.8726066" lon="6.3736445"><ele>0.0</ele><time>2026-04-30T20:59:11.068Z</time></trkpt><trkpt lat="42.8726548" lon="6.3737465"><ele>0.0</ele><time>2026-04-30T20:59:12.068Z</time></trkpt><trkpt lat="42.872705" lon="6.3738411"><ele>0.0</ele><time>2026-04-30T20:59:13.069Z</time></trkpt><trkpt lat="42.8727561" lon="6.3739405"><ele>0.0</ele><time>2026-04-30T20:59:14.068Z</time></trkpt><trkpt lat="42.8728048" lon="6.3740168"><ele>0.0</ele><time>2026-04-30T20:59:15.069Z</time></trkpt><trkpt lat="42.8728545" lon="6.374106"><ele>0.0</ele><time>2026-04-30T20:59:16.068Z</time></trkpt><trkpt lat="42.8729021" lon="6.3741999"><ele>0.0</ele><time>2026-04-30T20:59:17.069Z</time></trkpt><trkpt lat="42.872947" lon="6.3742905"><ele>0.0</ele><time>2026-04-30T20:59:18.068Z</time></trkpt><trkpt lat="42.8729948" lon="6.3743817"><ele>0.0</ele><time>2026-04-30T20:59:19.069Z</time></trkpt><trkpt lat="42.8730417" lon="6.3744718"><ele>0.0</ele><time>2026-04-30T20:59:20.068Z</time></trkpt><trkpt lat="42.87309" lon="6.3745614"><ele>0.0</ele><time>2026-04-30T20:59:21.069Z</time></trkpt><trkpt lat="42.8731296" lon="6.3746433"><ele>0.0</ele><time>2026-04-30T20:59:22.068Z</time></trkpt><trkpt lat="42.8731739" lon="6.3747341"><ele>0.0</ele><time>2026-04-30T20:59:23.068Z</time></trkpt><trkpt lat="42.8732236" lon="6.3748263"><ele>0.0</ele><time>2026-04-30T20:59:24.068Z</time></trkpt><trkpt lat="42.8732704" lon="6.3749198"><ele>0.0</ele><time>2026-04-30T20:59:25.069Z</time></trkpt><trkpt lat="42.8733132" lon="6.3750164"><ele>0.0</ele><time>2026-04-30T20:59:26.069Z</time></trkpt><trkpt lat="42.8733556" lon="6.3751155"><ele>0.0</ele><time>2026-04-30T20:59:27.069Z</time></trkpt><trkpt lat="42.8733988" lon="6.3752089"><ele>0.0</ele><time>2026-04-30T20:59:28.068Z</time></trkpt><trkpt lat="42.8734378" lon="6.3753015"><ele>0.0</ele><time>2026-04-30T20:59:29.068Z</time></trkpt><trkpt lat="42.8735211" lon="6.3754983"><ele>0.0</ele><time>2026-04-30T20:59:31.068Z</time></trkpt><trkpt lat="42.873567" lon="6.3755916"><ele>0.0</ele><time>2026-04-30T20:59:32.069Z</time></trkpt><trkpt lat="42.8736119" lon="6.3756821"><ele>0.0</ele><time>2026-04-30T20:59:33.069Z</time></trkpt><trkpt lat="42.8736614" lon="6.3757751"><ele>0.0</ele><time>2026-04-30T20:59:34.069Z</time></trkpt><trkpt lat="42.8737086" lon="6.3758685"><ele>0.0</ele><time>2026-04-30T20:59:35.068Z</time></trkpt><trkpt lat="42.8737556" lon="6.3759572"><ele>0.0</ele><time>2026-04-30T20:59:36.068Z</time></trkpt><trkpt lat="42.8737989" lon="6.3760497"><ele>0.0</ele><time>2026-04-30T20:59:37.068Z</time></trkpt><trkpt lat="42.8738436" lon="6.3761415"><ele>0.0</ele><time>2026-04-30T20:59:38.068Z</time></trkpt><trkpt lat="42.8738885" lon="6.3762363"><ele>0.0</ele><time>2026-04-30T20:59:39.069Z</time></trkpt><trkpt lat="42.8739845" lon="6.3764282"><ele>0.0</ele><time>2026-04-30T20:59:41.069Z</time></trkpt><trkpt lat="42.874042" lon="6.3764973"><ele>0.0</ele><time>2026-04-30T20:59:42.068Z</time></trkpt><trkpt lat="42.8740934" lon="6.3765836"><ele>0.0</ele><time>2026-04-30T20:59:43.069Z</time></trkpt><trkpt lat="42.8741458" lon="6.3766859"><ele>0.0</ele><time>2026-04-30T20:59:44.069Z</time></trkpt><trkpt lat="42.8742018" lon="6.3767671"><ele>0.0</ele><time>2026-04-30T20:59:45.069Z</time></trkpt><trkpt lat="42.8742496" lon="6.3768627"><ele>0.0</ele><time>2026-04-30T20:59:46.068Z</time></trkpt><trkpt lat="42.8742979" lon="6.3769642"><ele>0.0</ele><time>2026-04-30T20:59:47.069Z</time></trkpt><trkpt lat="42.8743478" lon="6.3770619"><ele>0.0</ele><time>2026-04-30T20:59:48.069Z</time></trkpt><trkpt lat="42.8743951" lon="6.3771555"><ele>0.0</ele><time>2026-04-30T20:59:49.069Z</time></trkpt><trkpt lat="42.8744433" lon="6.37725"><ele>0.0</ele><time>2026-04-30T20:59:50.069Z</time></trkpt><trkpt lat="42.8745454" lon="6.3774283"><ele>0.0</ele><time>2026-04-30T20:59:52.069Z</time></trkpt><trkpt lat="42.8745906" lon="6.3775214"><ele>0.0</ele><time>2026-04-30T20:59:53.068Z</time></trkpt><trkpt lat="42.8746367" lon="6.3776145"><ele>0.0</ele><time>2026-04-30T20:59:54.069Z</time></trkpt><trkpt lat="42.874683" lon="6.3777097"><ele>0.0</ele><time>2026-04-30T20:59:55.068Z</time></trkpt><trkpt lat="42.8747316" lon="6.3778049"><ele>0.0</ele><time>2026-04-30T20:59:56.069Z</time></trkpt><trkpt lat="42.8747783" lon="6.3778999"><ele>0.0</ele><time>2026-04-30T20:59:57.069Z</time></trkpt><trkpt lat="42.8748286" lon="6.3779944"><ele>0.0</ele><time>2026-04-30T20:59:58.068Z</time></trkpt><trkpt lat="42.8748783" lon="6.3780868"><ele>0.0</ele><time>2026-04-30T20:59:59.069Z</time></trkpt><trkpt lat="42.8749381" lon="6.3781755"><ele>0.0</ele><time>2026-04-30T21:00:00.068Z</time></trkpt><trkpt lat="42.8749948" lon="6.3782647"><ele>0.0</ele><time>2026-04-30T21:00:01.068Z</time></trkpt><trkpt lat="42.8750497" lon="6.3783541"><ele>0.0</ele><time>2026-04-30T21:00:02.069Z</time></trkpt><trkpt lat="42.8750986" lon="6.3784464"><ele>0.0</ele><time>2026-04-30T21:00:03.069Z</time></trkpt><trkpt lat="42.8751453" lon="6.3785311"><ele>0.0</ele><time>2026-04-30T21:00:04.068Z</time></trkpt><trkpt lat="42.8751902" lon="6.3786217"><ele>0.0</ele><time>2026-04-30T21:00:05.068Z</time></trkpt><trkpt lat="42.8752322" lon="6.3787112"><ele>0.0</ele><time>2026-04-30T21:00:06.068Z</time></trkpt><trkpt lat="42.8752754" lon="6.3787919"><ele>0.0</ele><time>2026-04-30T21:00:07.069Z</time></trkpt><trkpt lat="42.8753264" lon="6.378877"><ele>0.0</ele><time>2026-04-30T21:00:08.069Z</time></trkpt><trkpt lat="42.875381" lon="6.3789693"><ele>0.0</ele><time>2026-04-30T21:00:09.068Z</time></trkpt><trkpt lat="42.8754317" lon="6.3790612"><ele>0.0</ele><time>2026-04-30T21:00:10.069Z</time></trkpt><trkpt lat="42.8754772" lon="6.3791518"><ele>0.0</ele><time>2026-04-30T21:00:11.069Z</time></trkpt><trkpt lat="42.875622" lon="6.3794315"><ele>0.0</ele><time>2026-04-30T21:00:14.069Z</time></trkpt><trkpt lat="42.8756652" lon="6.3795236"><ele>0.0</ele><time>2026-04-30T21:00:15.069Z</time></trkpt><trkpt lat="42.8757111" lon="6.3796255"><ele>0.0</ele><time>2026-04-30T21:00:16.068Z</time></trkpt><trkpt lat="42.8757593" lon="6.3797232"><ele>0.0</ele><time>2026-04-30T21:00:17.068Z</time></trkpt><trkpt lat="42.875805" lon="6.3798247"><ele>0.0</ele><time>2026-04-30T21:00:18.068Z</time></trkpt><trkpt lat="42.87585" lon="6.3799266"><ele>0.0</ele><time>2026-04-30T21:00:19.068Z</time></trkpt><trkpt lat="42.8758966" lon="6.3800239"><ele>0.0</ele><time>2026-04-30T21:00:20.069Z</time></trkpt><trkpt lat="42.8759434" lon="6.3801171"><ele>0.0</ele><time>2026-04-30T21:00:21.069Z</time></trkpt><trkpt lat="42.8759938" lon="6.3802047"><ele>0.0</ele><time>2026-04-30T21:00:22.068Z</time></trkpt><trkpt lat="42.8760402" lon="6.3802953"><ele>0.0</ele><time>2026-04-30T21:00:23.069Z</time></trkpt><trkpt lat="42.8760851" lon="6.3803881"><ele>0.0</ele><time>2026-04-30T21:00:24.069Z</time></trkpt><trkpt lat="42.8761347" lon="6.3804798"><ele>0.0</ele><time>2026-04-30T21:00:25.068Z</time></trkpt><trkpt lat="42.8761848" lon="6.3805746"><ele>0.0</ele><time>2026-04-30T21:00:26.068Z</time></trkpt><trkpt lat="42.8762332" lon="6.3806729"><ele>0.0</ele><time>2026-04-30T21:00:27.068Z</time></trkpt><trkpt lat="42.8762807" lon="6.38077"><ele>0.0</ele><time>2026-04-30T21:00:28.069Z</time></trkpt><trkpt lat="42.8763254" lon="6.3808639"><ele>0.0</ele><time>2026-04-30T21:00:29.069Z</time></trkpt><trkpt lat="42.8763729" lon="6.3809571"><ele>0.0</ele><time>2026-04-30T21:00:30.068Z</time></trkpt><trkpt lat="42.8764217" lon="6.3810503"><ele>0.0</ele><time>2026-04-30T21:00:31.068Z</time></trkpt><trkpt lat="42.8764703" lon="6.3811435"><ele>0.0</ele><time>2026-04-30T21:00:32.068Z</time></trkpt><trkpt lat="42.8765212" lon="6.3812396"><ele>0.0</ele><time>2026-04-30T21:00:33.068Z</time></trkpt><trkpt lat="42.8766297" lon="6.3814168"><ele>0.0</ele><time>2026-04-30T21:00:35.069Z</time></trkpt><trkpt lat="42.8766816" lon="6.3815067"><ele>0.0</ele><time>2026-04-30T21:00:36.068Z</time></trkpt><trkpt lat="42.8767344" lon="6.381597"><ele>0.0</ele><time>2026-04-30T21:00:37.069Z</time></trkpt><trkpt lat="42.8767835" lon="6.3816727"><ele>0.0</ele><time>2026-04-30T21:00:38.068Z</time></trkpt><trkpt lat="42.8768365" lon="6.3817544"><ele>0.0</ele><time>2026-04-30T21:00:39.069Z</time></trkpt><trkpt lat="42.8768869" lon="6.3818342"><ele>0.0</ele><time>2026-04-30T21:00:40.068Z</time></trkpt><trkpt lat="42.8769367" lon="6.3819229"><ele>0.0</ele><time>2026-04-30T21:00:41.068Z</time></trkpt><trkpt lat="42.8769872" lon="6.3820115"><ele>0.0</ele><time>2026-04-30T21:00:42.068Z</time></trkpt><trkpt lat="42.8770414" lon="6.3821043"><ele>0.0</ele><time>2026-04-30T21:00:43.068Z</time></trkpt><trkpt lat="42.8771487" lon="6.3822871"><ele>0.0</ele><time>2026-04-30T21:00:45.068Z</time></trkpt><trkpt lat="42.8771997" lon="6.3823785"><ele>0.0</ele><time>2026-04-30T21:00:46.068Z</time></trkpt><trkpt lat="42.87725" lon="6.3824715"><ele>0.0</ele><time>2026-04-30T21:00:47.068Z</time></trkpt><trkpt lat="42.8772999" lon="6.3825634"><ele>0.0</ele><time>2026-04-30T21:00:48.068Z</time></trkpt><trkpt lat="42.8773468" lon="6.3826556"><ele>0.0</ele><time>2026-04-30T21:00:49.069Z</time></trkpt><trkpt lat="42.8773993" lon="6.3827529"><ele>0.0</ele><time>2026-04-30T21:00:50.069Z</time></trkpt><trkpt lat="42.8774639" lon="6.3828284"><ele>0.0</ele><time>2026-04-30T21:00:51.068Z</time></trkpt><trkpt lat="42.8775166" lon="6.3829157"><ele>0.0</ele><time>2026-04-30T21:00:52.069Z</time></trkpt><trkpt lat="42.8775672" lon="6.3830282"><ele>0.0</ele><time>2026-04-30T21:00:53.068Z</time></trkpt><trkpt lat="42.8776161" lon="6.3831229"><ele>0.0</ele><time>2026-04-30T21:00:54.069Z</time></trkpt><trkpt lat="42.8777079" lon="6.3833182"><ele>0.0</ele><time>2026-04-30T21:00:56.068Z</time></trkpt><trkpt lat="42.8777521" lon="6.3834018"><ele>0.0</ele><time>2026-04-30T21:00:57.069Z</time></trkpt><trkpt lat="42.8777968" lon="6.3834906"><ele>0.0</ele><time>2026-04-30T21:00:58.068Z</time></trkpt><trkpt lat="42.8778422" lon="6.3835821"><ele>0.0</ele><time>2026-04-30T21:00:59.068Z</time></trkpt><trkpt lat="42.877887" lon="6.3836736"><ele>0.0</ele><time>2026-04-30T21:01:00.068Z</time></trkpt><trkpt lat="42.8779318" lon="6.3837585"><ele>0.0</ele><time>2026-04-30T21:01:01.068Z</time></trkpt><trkpt lat="42.8779825" lon="6.3838429"><ele>0.0</ele><time>2026-04-30T21:01:02.068Z</time></trkpt><trkpt lat="42.8780313" lon="6.3839362"><ele>0.0</ele><time>2026-04-30T21:01:03.069Z</time></trkpt><trkpt lat="42.8780815" lon="6.3840302"><ele>0.0</ele><time>2026-04-30T21:01:04.068Z</time></trkpt><trkpt lat="42.8781332" lon="6.3841262"><ele>0.0</ele><time>2026-04-30T21:01:05.068Z</time></trkpt><trkpt lat="42.8781889" lon="6.3842214"><ele>0.0</ele><time>2026-04-30T21:01:06.068Z</time></trkpt><trkpt lat="42.8782448" lon="6.3843181"><ele>0.0</ele><time>2026-04-30T21:01:07.068Z</time></trkpt><trkpt lat="42.8782984" lon="6.3844118"><ele>0.0</ele><time>2026-04-30T21:01:08.068Z</time></trkpt><trkpt lat="42.8783477" lon="6.3845031"><ele>0.0</ele><time>2026-04-30T21:01:09.068Z</time></trkpt><trkpt lat="42.8783985" lon="6.3845947"><ele>0.0</ele><time>2026-04-30T21:01:10.068Z</time></trkpt><trkpt lat="42.8784433" lon="6.3846832"><ele>0.0</ele><time>2026-04-30T21:01:11.069Z</time></trkpt><trkpt lat="42.8784874" lon="6.3847729"><ele>0.0</ele><time>2026-04-30T21:01:12.068Z</time></trkpt><trkpt lat="42.8785263" lon="6.3848707"><ele>0.0</ele><time>2026-04-30T21:01:13.068Z</time></trkpt><trkpt lat="42.8785703" lon="6.3849634"><ele>0.0</ele><time>2026-04-30T21:01:14.068Z</time></trkpt><trkpt lat="42.8786109" lon="6.3850637"><ele>0.0</ele><time>2026-04-30T21:01:15.069Z</time></trkpt><trkpt lat="42.87874" lon="6.3853499"><ele>0.0</ele><time>2026-04-30T21:01:18.068Z</time></trkpt><trkpt lat="42.8787819" lon="6.3854511"><ele>0.0</ele><time>2026-04-30T21:01:19.068Z</time></trkpt><trkpt lat="42.8788251" lon="6.3855467"><ele>0.0</ele><time>2026-04-30T21:01:20.068Z</time></trkpt><trkpt lat="42.87887" lon="6.3856449"><ele>0.0</ele><time>2026-04-30T21:01:21.069Z</time></trkpt><trkpt lat="42.8789151" lon="6.3857379"><ele>0.0</ele><time>2026-04-30T21:01:22.068Z</time></trkpt><trkpt lat="42.878963" lon="6.3858308"><ele>0.0</ele><time>2026-04-30T21:01:23.068Z</time></trkpt><trkpt lat="42.8790097" lon="6.3859227"><ele>0.0</ele><time>2026-04-30T21:01:24.069Z</time></trkpt><trkpt lat="42.8790597" lon="6.3860111"><ele>0.0</ele><time>2026-04-30T21:01:25.068Z</time></trkpt><trkpt lat="42.8791098" lon="6.3861024"><ele>0.0</ele><time>2026-04-30T21:01:26.068Z</time></trkpt><trkpt lat="42.8791664" lon="6.3861894"><ele>0.0</ele><time>2026-04-30T21:01:27.069Z</time></trkpt><trkpt lat="42.8792203" lon="6.3862776"><ele>0.0</ele><time>2026-04-30T21:01:28.069Z</time></trkpt><trkpt lat="42.8792753" lon="6.3863658"><ele>0.0</ele><time>2026-04-30T21:01:29.069Z</time></trkpt><trkpt lat="42.8793264" lon="6.3864584"><ele>0.0</ele><time>2026-04-30T21:01:30.069Z</time></trkpt><trkpt lat="42.8793795" lon="6.3865458"><ele>0.0</ele><time>2026-04-30T21:01:31.069Z</time></trkpt><trkpt lat="42.8794312" lon="6.3866311"><ele>0.0</ele><time>2026-04-30T21:01:32.068Z</time></trkpt><trkpt lat="42.8794852" lon="6.3867159"><ele>0.0</ele><time>2026-04-30T21:01:33.068Z</time></trkpt><trkpt lat="42.8795302" lon="6.3868169"><ele>0.0</ele><time>2026-04-30T21:01:34.068Z</time></trkpt><trkpt lat="42.8795754" lon="6.3869316"><ele>0.0</ele><time>2026-04-30T21:01:35.068Z</time></trkpt><trkpt lat="42.8796291" lon="6.3870196"><ele>0.0</ele><time>2026-04-30T21:01:36.069Z</time></trkpt><trkpt lat="42.8796764" lon="6.3871136"><ele>0.0</ele><time>2026-04-30T21:01:37.068Z</time></trkpt><trkpt lat="42.8797832" lon="6.3872769"><ele>0.0</ele><time>2026-04-30T21:01:39.068Z</time></trkpt><trkpt lat="42.8798305" lon="6.3873738"><ele>0.0</ele><time>2026-04-30T21:01:40.069Z</time></trkpt><trkpt lat="42.8798787" lon="6.3874792"><ele>0.0</ele><time>2026-04-30T21:01:41.069Z</time></trkpt><trkpt lat="42.8799227" lon="6.3875759"><ele>0.0</ele><time>2026-04-30T21:01:42.069Z</time></trkpt><trkpt lat="42.8799642" lon="6.3876714"><ele>0.0</ele><time>2026-04-30T21:01:43.069Z</time></trkpt><trkpt lat="42.8800099" lon="6.3877661"><ele>0.0</ele><time>2026-04-30T21:01:44.069Z</time></trkpt><trkpt lat="42.8800556" lon="6.3878583"><ele>0.0</ele><time>2026-04-30T21:01:45.069Z</time></trkpt><trkpt lat="42.8801132" lon="6.3879417"><ele>0.0</ele><time>2026-04-30T21:01:46.069Z</time></trkpt><trkpt lat="42.8801683" lon="6.388028"><ele>0.0</ele><time>2026-04-30T21:01:47.069Z</time></trkpt><trkpt lat="42.8802143" lon="6.3881215"><ele>0.0</ele><time>2026-04-30T21:01:48.069Z</time></trkpt><trkpt lat="42.8802635" lon="6.3882118"><ele>0.0</ele><time>2026-04-30T21:01:49.068Z</time></trkpt><trkpt lat="42.8803221" lon="6.3882943"><ele>0.0</ele><time>2026-04-30T21:01:50.068Z</time></trkpt><trkpt lat="42.8803737" lon="6.3883734"><ele>0.0</ele><time>2026-04-30T21:01:51.069Z</time></trkpt><trkpt lat="42.8804262" lon="6.3884563"><ele>0.0</ele><time>2026-04-30T21:01:52.069Z</time></trkpt><trkpt lat="42.8804737" lon="6.3885424"><ele>0.0</ele><time>2026-04-30T21:01:53.069Z</time></trkpt><trkpt lat="42.8805174" lon="6.3886345"><ele>0.0</ele><time>2026-04-30T21:01:54.068Z</time></trkpt><trkpt lat="42.8805609" lon="6.3887284"><ele>0.0</ele><time>2026-04-30T21:01:55.069Z</time></trkpt><trkpt lat="42.8806069" lon="6.388819"><ele>0.0</ele><time>2026-04-30T21:01:56.069Z</time></trkpt><trkpt lat="42.8806563" lon="6.3889163"><ele>0.0</ele><time>2026-04-30T21:01:57.068Z</time></trkpt><trkpt lat="42.8807035" lon="6.3890143"><ele>0.0</ele><time>2026-04-30T21:01:58.069Z</time></trkpt><trkpt lat="42.8807984" lon="6.389203"><ele>0.0</ele><time>2026-04-30T21:02:00.068Z</time></trkpt><trkpt lat="42.8808469" lon="6.389298"><ele>0.0</ele><time>2026-04-30T21:02:01.069Z</time></trkpt><trkpt lat="42.8808965" lon="6.3893942"><ele>0.0</ele><time>2026-04-30T21:02:02.068Z</time></trkpt><trkpt lat="42.8809477" lon="6.3894887"><ele>0.0</ele><time>2026-04-30T21:02:03.068Z</time></trkpt><trkpt lat="42.8809995" lon="6.3895807"><ele>0.0</ele><time>2026-04-30T21:02:04.068Z</time></trkpt><trkpt lat="42.8810543" lon="6.3896691"><ele>0.0</ele><time>2026-04-30T21:02:05.068Z</time></trkpt><trkpt lat="42.8811065" lon="6.3897617"><ele>0.0</ele><time>2026-04-30T21:02:06.068Z</time></trkpt><trkpt lat="42.8811609" lon="6.3898504"><ele>0.0</ele><time>2026-04-30T21:02:07.069Z</time></trkpt><trkpt lat="42.8812199" lon="6.38993"><ele>0.0</ele><time>2026-04-30T21:02:08.069Z</time></trkpt><trkpt lat="42.8812788" lon="6.3900141"><ele>0.0</ele><time>2026-04-30T21:02:09.069Z</time></trkpt><trkpt lat="42.8813317" lon="6.3901067"><ele>0.0</ele><time>2026-04-30T21:02:10.068Z</time></trkpt><trkpt lat="42.8813793" lon="6.3902052"><ele>0.0</ele><time>2026-04-30T21:02:11.069Z</time></trkpt><trkpt lat="42.8814301" lon="6.3902927"><ele>0.0</ele><time>2026-04-30T21:02:12.068Z</time></trkpt><trkpt lat="42.8814759" lon="6.3903877"><ele>0.0</ele><time>2026-04-30T21:02:13.069Z</time></trkpt><trkpt lat="42.8815251" lon="6.3904797"><ele>0.0</ele><time>2026-04-30T21:02:14.068Z</time></trkpt><trkpt lat="42.8815706" lon="6.3905744"><ele>0.0</ele><time>2026-04-30T21:02:15.069Z</time></trkpt><trkpt lat="42.8816168" lon="6.3906698"><ele>0.0</ele><time>2026-04-30T21:02:16.069Z</time></trkpt><trkpt lat="42.8816737" lon="6.3907351"><ele>0.0</ele><time>2026-04-30T21:02:17.069Z</time></trkpt><trkpt lat="42.8817272" lon="6.3908009"><ele>0.0</ele><time>2026-04-30T21:02:18.069Z</time></trkpt><trkpt lat="42.8817754" lon="6.3908866"><ele>0.0</ele><time>2026-04-30T21:02:19.068Z</time></trkpt><trkpt lat="42.8819096" lon="6.3911769"><ele>0.0</ele><time>2026-04-30T21:02:22.069Z</time></trkpt><trkpt lat="42.8819536" lon="6.3912741"><ele>0.0</ele><time>2026-04-30T21:02:23.068Z</time></trkpt><trkpt lat="42.8820004" lon="6.39137"><ele>0.0</ele><time>2026-04-30T21:02:24.069Z</time></trkpt><trkpt lat="42.8820482" lon="6.3914637"><ele>0.0</ele><time>2026-04-30T21:02:25.069Z</time></trkpt><trkpt lat="42.8820937" lon="6.3915599"><ele>0.0</ele><time>2026-04-30T21:02:26.068Z</time></trkpt><trkpt lat="42.8821359" lon="6.3916519"><ele>0.0</ele><time>2026-04-30T21:02:27.068Z</time></trkpt><trkpt lat="42.8821809" lon="6.3917437"><ele>0.0</ele><time>2026-04-30T21:02:28.069Z</time></trkpt><trkpt lat="42.8822312" lon="6.3918367"><ele>0.0</ele><time>2026-04-30T21:02:29.068Z</time></trkpt><trkpt lat="42.8822802" lon="6.3919366"><ele>0.0</ele><time>2026-04-30T21:02:30.068Z</time></trkpt><trkpt lat="42.8823285" lon="6.3920313"><ele>0.0</ele><time>2026-04-30T21:02:31.069Z</time></trkpt><trkpt lat="42.88238" lon="6.3921245"><ele>0.0</ele><time>2026-04-30T21:02:32.069Z</time></trkpt><trkpt lat="42.8824274" lon="6.3922178"><ele>0.0</ele><time>2026-04-30T21:02:33.069Z</time></trkpt><trkpt lat="42.8824705" lon="6.3923143"><ele>0.0</ele><time>2026-04-30T21:02:34.068Z</time></trkpt><trkpt lat="42.8825184" lon="6.3924097"><ele>0.0</ele><time>2026-04-30T21:02:35.068Z</time></trkpt><trkpt lat="42.8825639" lon="6.3925173"><ele>0.0</ele><time>2026-04-30T21:02:36.069Z</time></trkpt><trkpt lat="42.8826088" lon="6.3926133"><ele>0.0</ele><time>2026-04-30T21:02:37.068Z</time></trkpt><trkpt lat="42.8826506" lon="6.3927124"><ele>0.0</ele><time>2026-04-30T21:02:38.069Z</time></trkpt><trkpt lat="42.8826933" lon="6.3928079"><ele>0.0</ele><time>2026-04-30T21:02:39.068Z</time></trkpt><trkpt lat="42.8827456" lon="6.3929001"><ele>0.0</ele><time>2026-04-30T21:02:40.068Z</time></trkpt><trkpt lat="42.8828475" lon="6.3930869"><ele>0.0</ele><time>2026-04-30T21:02:42.069Z</time></trkpt><trkpt lat="42.8828965" lon="6.3931786"><ele>0.0</ele><time>2026-04-30T21:02:43.068Z</time></trkpt><trkpt lat="42.8829478" lon="6.3932671"><ele>0.0</ele><time>2026-04-30T21:02:44.068Z</time></trkpt><trkpt lat="42.8829968" lon="6.3933652"><ele>0.0</ele><time>2026-04-30T21:02:45.069Z</time></trkpt><trkpt lat="42.8830492" lon="6.3934518"><ele>0.0</ele><time>2026-04-30T21:02:46.068Z</time></trkpt><trkpt lat="42.8830956" lon="6.3935516"><ele>0.0</ele><time>2026-04-30T21:02:47.069Z</time></trkpt><trkpt lat="42.8831454" lon="6.3936461"><ele>0.0</ele><time>2026-04-30T21:02:48.069Z</time></trkpt><trkpt lat="42.8831923" lon="6.39374"><ele>0.0</ele><time>2026-04-30T21:02:49.068Z</time></trkpt><trkpt lat="42.8832374" lon="6.3938345"><ele>0.0</ele><time>2026-04-30T21:02:50.068Z</time></trkpt><trkpt lat="42.8832852" lon="6.3939251"><ele>0.0</ele><time>2026-04-30T21:02:51.069Z</time></trkpt><trkpt lat="42.8833831" lon="6.3941089"><ele>0.0</ele><time>2026-04-30T21:02:53.068Z</time></trkpt><trkpt lat="42.8834324" lon="6.3942068"><ele>0.0</ele><time>2026-04-30T21:02:54.069Z</time></trkpt><trkpt lat="42.8834861" lon="6.3942884"><ele>0.0</ele><time>2026-04-30T21:02:55.068Z</time></trkpt><trkpt lat="42.8835343" lon="6.3943745"><ele>0.0</ele><time>2026-04-30T21:02:56.068Z</time></trkpt><trkpt lat="42.8835851" lon="6.3944584"><ele>0.0</ele><time>2026-04-30T21:02:57.069Z</time></trkpt><trkpt lat="42.8836322" lon="6.394547"><ele>0.0</ele><time>2026-04-30T21:02:58.068Z</time></trkpt><trkpt lat="42.8836803" lon="6.3946381"><ele>0.0</ele><time>2026-04-30T21:02:59.069Z</time></trkpt><trkpt lat="42.8837302" lon="6.3947249"><ele>0.0</ele><time>2026-04-30T21:03:00.069Z</time></trkpt><trkpt lat="42.8837788" lon="6.3948113"><ele>0.0</ele><time>2026-04-30T21:03:01.069Z</time></trkpt><trkpt lat="42.8838802" lon="6.3949827"><ele>0.0</ele><time>2026-04-30T21:03:03.068Z</time></trkpt><trkpt lat="42.8839391" lon="6.3950545"><ele>0.0</ele><time>2026-04-30T21:03:04.068Z</time></trkpt><trkpt lat="42.8839849" lon="6.3951344"><ele>0.0</ele><time>2026-04-30T21:03:05.069Z</time></trkpt><trkpt lat="42.8840347" lon="6.3952102"><ele>0.0</ele><time>2026-04-30T21:03:06.069Z</time></trkpt><trkpt lat="42.8840905" lon="6.3952903"><ele>0.0</ele><time>2026-04-30T21:03:07.068Z</time></trkpt><trkpt lat="42.8841401" lon="6.395377"><ele>0.0</ele><time>2026-04-30T21:03:08.069Z</time></trkpt><trkpt lat="42.8841856" lon="6.3954697"><ele>0.0</ele><time>2026-04-30T21:03:09.069Z</time></trkpt><trkpt lat="42.884238" lon="6.3955556"><ele>0.0</ele><time>2026-04-30T21:03:10.069Z</time></trkpt><trkpt lat="42.8842781" lon="6.3956494"><ele>0.0</ele><time>2026-04-30T21:03:11.069Z</time></trkpt><trkpt lat="42.884323" lon="6.3957347"><ele>0.0</ele><time>2026-04-30T21:03:12.068Z</time></trkpt><trkpt lat="42.8843757" lon="6.3958258"><ele>0.0</ele><time>2026-04-30T21:03:13.069Z</time></trkpt><trkpt lat="42.8844291" lon="6.3959168"><ele>0.0</ele><time>2026-04-30T21:03:14.069Z</time></trkpt><trkpt lat="42.8844795" lon="6.3960095"><ele>0.0</ele><time>2026-04-30T21:03:15.069Z</time></trkpt><trkpt lat="42.8845207" lon="6.3961053"><ele>0.0</ele><time>2026-04-30T21:03:16.069Z</time></trkpt><trkpt lat="42.8845681" lon="6.3962008"><ele>0.0</ele><time>2026-04-30T21:03:17.069Z</time></trkpt><trkpt lat="42.8846142" lon="6.3962989"><ele>0.0</ele><time>2026-04-30T21:03:18.068Z</time></trkpt><trkpt lat="42.8846624" lon="6.39639"><ele>0.0</ele><time>2026-04-30T21:03:19.068Z</time></trkpt><trkpt lat="42.8847059" lon="6.3964857"><ele>0.0</ele><time>2026-04-30T21:03:20.068Z</time></trkpt><trkpt lat="42.8847535" lon="6.3965777"><ele>0.0</ele><time>2026-04-30T21:03:21.069Z</time></trkpt><trkpt lat="42.8847958" lon="6.3966755"><ele>0.0</ele><time>2026-04-30T21:03:22.068Z</time></trkpt><trkpt lat="42.8848929" lon="6.3968598"><ele>0.0</ele><time>2026-04-30T21:03:24.068Z</time></trkpt><trkpt lat="42.8849936" lon="6.3970418"><ele>0.0</ele><time>2026-04-30T21:03:26.069Z</time></trkpt><trkpt lat="42.8850476" lon="6.3971331"><ele>0.0</ele><time>2026-04-30T21:03:27.068Z</time></trkpt><trkpt lat="42.8850996" lon="6.3972205"><ele>0.0</ele><time>2026-04-30T21:03:28.068Z</time></trkpt><trkpt lat="42.8851527" lon="6.3973044"><ele>0.0</ele><time>2026-04-30T21:03:29.068Z</time></trkpt><trkpt lat="42.8852062" lon="6.3973904"><ele>0.0</ele><time>2026-04-30T21:03:30.068Z</time></trkpt><trkpt lat="42.8852639" lon="6.39748"><ele>0.0</ele><time>2026-04-30T21:03:31.069Z</time></trkpt><trkpt lat="42.8853209" lon="6.3975628"><ele>0.0</ele><time>2026-04-30T21:03:32.069Z</time></trkpt><trkpt lat="42.8853659" lon="6.3976562"><ele>0.0</ele><time>2026-04-30T21:03:33.068Z</time></trkpt><trkpt lat="42.8854133" lon="6.3977413"><ele>0.0</ele><time>2026-04-30T21:03:34.069Z</time></trkpt><trkpt lat="42.8854573" lon="6.3978311"><ele>0.0</ele><time>2026-04-30T21:03:35.069Z</time></trkpt><trkpt lat="42.8855136" lon="6.3979171"><ele>0.0</ele><time>2026-04-30T21:03:36.068Z</time></trkpt><trkpt lat="42.8855619" lon="6.3980132"><ele>0.0</ele><time>2026-04-30T21:03:37.068Z</time></trkpt><trkpt lat="42.8856129" lon="6.3981063"><ele>0.0</ele><time>2026-04-30T21:03:38.069Z</time></trkpt><trkpt lat="42.8856663" lon="6.3981966"><ele>0.0</ele><time>2026-04-30T21:03:39.069Z</time></trkpt><trkpt lat="42.8857181" lon="6.3982936"><ele>0.0</ele><time>2026-04-30T21:03:40.068Z</time></trkpt><trkpt lat="42.885775" lon="6.3983776"><ele>0.0</ele><time>2026-04-30T21:03:41.068Z</time></trkpt><trkpt lat="42.8858233" lon="6.3984707"><ele>0.0</ele><time>2026-04-30T21:03:42.068Z</time></trkpt><trkpt lat="42.8858718" lon="6.3985661"><ele>0.0</ele><time>2026-04-30T21:03:43.068Z</time></trkpt><trkpt lat="42.8859698" lon="6.3987533"><ele>0.0</ele><time>2026-04-30T21:03:45.069Z</time></trkpt><trkpt lat="42.8860215" lon="6.3988404"><ele>0.0</ele><time>2026-04-30T21:03:46.068Z</time></trkpt><trkpt lat="42.8860659" lon="6.3989369"><ele>0.0</ele><time>2026-04-30T21:03:47.068Z</time></trkpt><trkpt lat="42.8861103" lon="6.3990341"><ele>0.0</ele><time>2026-04-30T21:03:48.068Z</time></trkpt><trkpt lat="42.8861526" lon="6.399131"><ele>0.0</ele><time>2026-04-30T21:03:49.069Z</time></trkpt><trkpt lat="42.8861995" lon="6.3992204"><ele>0.0</ele><time>2026-04-30T21:03:50.068Z</time></trkpt><trkpt lat="42.8862453" lon="6.39931"><ele>0.0</ele><time>2026-04-30T21:03:51.069Z</time></trkpt><trkpt lat="42.8862944" lon="6.3993985"><ele>0.0</ele><time>2026-04-30T21:03:52.068Z</time></trkpt><trkpt lat="42.886343" lon="6.3994957"><ele>0.0</ele><time>2026-04-30T21:03:53.069Z</time></trkpt><trkpt lat="42.8863916" lon="6.3995968"><ele>0.0</ele><time>2026-04-30T21:03:54.069Z</time></trkpt><trkpt lat="42.8864456" lon="6.3996943"><ele>0.0</ele><time>2026-04-30T21:03:55.069Z</time></trkpt><trkpt lat="42.8864993" lon="6.3997878"><ele>0.0</ele><time>2026-04-30T21:03:56.069Z</time></trkpt><trkpt lat="42.8865497" lon="6.3998758"><ele>0.0</ele><time>2026-04-30T21:03:57.068Z</time></trkpt><trkpt lat="42.8865978" lon="6.3999667"><ele>0.0</ele><time>2026-04-30T21:03:58.069Z</time></trkpt><trkpt lat="42.8866465" lon="6.4000567"><ele>0.0</ele><time>2026-04-30T21:03:59.069Z</time></trkpt><trkpt lat="42.8866949" lon="6.4001481"><ele>0.0</ele><time>2026-04-30T21:04:00.068Z</time></trkpt><trkpt lat="42.8867532" lon="6.4002341"><ele>0.0</ele><time>2026-04-30T21:04:01.068Z</time></trkpt><trkpt lat="42.8868104" lon="6.4003169"><ele>0.0</ele><time>2026-04-30T21:04:02.068Z</time></trkpt><trkpt lat="42.8868612" lon="6.4004072"><ele>0.0</ele><time>2026-04-30T21:04:03.069Z</time></trkpt><trkpt lat="42.886952" lon="6.4005824"><ele>0.0</ele><time>2026-04-30T21:04:05.068Z</time></trkpt><trkpt lat="42.8870013" lon="6.4006707"><ele>0.0</ele><time>2026-04-30T21:04:06.069Z</time></trkpt><trkpt lat="42.887042" lon="6.4007589"><ele>0.0</ele><time>2026-04-30T21:04:07.069Z</time></trkpt><trkpt lat="42.8870843" lon="6.4008526"><ele>0.0</ele><time>2026-04-30T21:04:08.068Z</time></trkpt><trkpt lat="42.8871301" lon="6.4009448"><ele>0.0</ele><time>2026-04-30T21:04:09.068Z</time></trkpt><trkpt lat="42.8871754" lon="6.4010438"><ele>0.0</ele><time>2026-04-30T21:04:10.068Z</time></trkpt><trkpt lat="42.8872218" lon="6.4011398"><ele>0.0</ele><time>2026-04-30T21:04:11.068Z</time></trkpt><trkpt lat="42.8872656" lon="6.4012364"><ele>0.0</ele><time>2026-04-30T21:04:12.068Z</time></trkpt><trkpt lat="42.8873118" lon="6.4013302"><ele>0.0</ele><time>2026-04-30T21:04:13.069Z</time></trkpt><trkpt lat="42.8873541" lon="6.401425"><ele>0.0</ele><time>2026-04-30T21:04:14.068Z</time></trkpt><trkpt lat="42.8874027" lon="6.4015171"><ele>0.0</ele><time>2026-04-30T21:04:15.068Z</time></trkpt><trkpt lat="42.8874507" lon="6.4016083"><ele>0.0</ele><time>2026-04-30T21:04:16.069Z</time></trkpt><trkpt lat="42.8874972" lon="6.4017043"><ele>0.0</ele><time>2026-04-30T21:04:17.068Z</time></trkpt><trkpt lat="42.8875411" lon="6.4017993"><ele>0.0</ele><time>2026-04-30T21:04:18.068Z</time></trkpt><trkpt lat="42.8875857" lon="6.4018942"><ele>0.0</ele><time>2026-04-30T21:04:19.069Z</time></trkpt><trkpt lat="42.8876335" lon="6.4019865"><ele>0.0</ele><time>2026-04-30T21:04:20.068Z</time></trkpt><trkpt lat="42.887729" lon="6.4021759"><ele>0.0</ele><time>2026-04-30T21:04:22.068Z</time></trkpt><trkpt lat="42.8877766" lon="6.4022706"><ele>0.0</ele><time>2026-04-30T21:04:23.069Z</time></trkpt><trkpt lat="42.8878235" lon="6.4023629"><ele>0.0</ele><time>2026-04-30T21:04:24.069Z</time></trkpt><trkpt lat="42.8879121" lon="6.4025525"><ele>0.0</ele><time>2026-04-30T21:04:26.069Z</time></trkpt><trkpt lat="42.8879603" lon="6.4026466"><ele>0.0</ele><time>2026-04-30T21:04:27.068Z</time></trkpt><trkpt lat="42.8880071" lon="6.4027398"><ele>0.0</ele><time>2026-04-30T21:04:28.069Z</time></trkpt><trkpt lat="42.8880971" lon="6.4029274"><ele>0.0</ele><time>2026-04-30T21:04:30.068Z</time></trkpt><trkpt lat="42.8881436" lon="6.4030197"><ele>0.0</ele><time>2026-04-30T21:04:31.068Z</time></trkpt><trkpt lat="42.8881875" lon="6.4031129"><ele>0.0</ele><time>2026-04-30T21:04:32.069Z</time></trkpt><trkpt lat="42.8882338" lon="6.4032036"><ele>0.0</ele><time>2026-04-30T21:04:33.068Z</time></trkpt><trkpt lat="42.8882817" lon="6.4032953"><ele>0.0</ele><time>2026-04-30T21:04:34.068Z</time></trkpt><trkpt lat="42.8883301" lon="6.4033854"><ele>0.0</ele><time>2026-04-30T21:04:35.068Z</time></trkpt><trkpt lat="42.8883812" lon="6.4034742"><ele>0.0</ele><time>2026-04-30T21:04:36.068Z</time></trkpt><trkpt lat="42.8884297" lon="6.4035599"><ele>0.0</ele><time>2026-04-30T21:04:37.068Z</time></trkpt><trkpt lat="42.8884798" lon="6.4036461"><ele>0.0</ele><time>2026-04-30T21:04:38.069Z</time></trkpt><trkpt lat="42.8885267" lon="6.4037358"><ele>0.0</ele><time>2026-04-30T21:04:39.068Z</time></trkpt><trkpt lat="42.8885806" lon="6.4038195"><ele>0.0</ele><time>2026-04-30T21:04:40.068Z</time></trkpt><trkpt lat="42.8886304" lon="6.40391"><ele>0.0</ele><time>2026-04-30T21:04:41.068Z</time></trkpt><trkpt lat="42.8886761" lon="6.4039987"><ele>0.0</ele><time>2026-04-30T21:04:42.069Z</time></trkpt><trkpt lat="42.8887249" lon="6.4040842"><ele>0.0</ele><time>2026-04-30T21:04:43.068Z</time></trkpt><trkpt lat="42.8887706" lon="6.4041747"><ele>0.0</ele><time>2026-04-30T21:04:44.069Z</time></trkpt><trkpt lat="42.8888186" lon="6.404265"><ele>0.0</ele><time>2026-04-30T21:04:45.068Z</time></trkpt><trkpt lat="42.8889105" lon="6.4044516"><ele>0.0</ele><time>2026-04-30T21:04:47.068Z</time></trkpt><trkpt lat="42.888957" lon="6.4045417"><ele>0.0</ele><time>2026-04-30T21:04:48.069Z</time></trkpt><trkpt lat="42.8890032" lon="6.4046306"><ele>0.0</ele><time>2026-04-30T21:04:49.068Z</time></trkpt><trkpt lat="42.8890518" lon="6.4047233"><ele>0.0</ele><time>2026-04-30T21:04:50.068Z</time></trkpt><trkpt lat="42.8891014" lon="6.404811"><ele>0.0</ele><time>2026-04-30T21:04:51.068Z</time></trkpt><trkpt lat="42.889148" lon="6.4049045"><ele>0.0</ele><time>2026-04-30T21:04:52.069Z</time></trkpt><trkpt lat="42.8892058" lon="6.404984"><ele>0.0</ele><time>2026-04-30T21:04:53.069Z</time></trkpt><trkpt lat="42.8892647" lon="6.4050663"><ele>0.0</ele><time>2026-04-30T21:04:54.068Z</time></trkpt><trkpt lat="42.8893157" lon="6.4051635"><ele>0.0</ele><time>2026-04-30T21:04:55.068Z</time></trkpt><trkpt lat="42.8893746" lon="6.4052481"><ele>0.0</ele><time>2026-04-30T21:04:56.068Z</time></trkpt><trkpt lat="42.8894305" lon="6.4053344"><ele>0.0</ele><time>2026-04-30T21:04:57.069Z</time></trkpt><trkpt lat="42.8894784" lon="6.4054293"><ele>0.0</ele><time>2026-04-30T21:04:58.068Z</time></trkpt><trkpt lat="42.8895276" lon="6.4055229"><ele>0.0</ele><time>2026-04-30T21:04:59.068Z</time></trkpt><trkpt lat="42.8895719" lon="6.4056149"><ele>0.0</ele><time>2026-04-30T21:05:00.068Z</time></trkpt><trkpt lat="42.8896611" lon="6.4058015"><ele>0.0</ele><time>2026-04-30T21:05:02.068Z</time></trkpt><trkpt lat="42.889714" lon="6.4058921"><ele>0.0</ele><time>2026-04-30T21:05:03.069Z</time></trkpt><trkpt lat="42.8897728" lon="6.4059764"><ele>0.0</ele><time>2026-04-30T21:05:04.069Z</time></trkpt><trkpt lat="42.8898224" lon="6.4060691"><ele>0.0</ele><time>2026-04-30T21:05:05.068Z</time></trkpt><trkpt lat="42.8898698" lon="6.4061637"><ele>0.0</ele><time>2026-04-30T21:05:06.069Z</time></trkpt><trkpt lat="42.8899583" lon="6.4063594"><ele>0.0</ele><time>2026-04-30T21:05:08.069Z</time></trkpt><trkpt lat="42.8900064" lon="6.406451"><ele>0.0</ele><time>2026-04-30T21:05:09.069Z</time></trkpt><trkpt lat="42.890052" lon="6.406551"><ele>0.0</ele><time>2026-04-30T21:05:10.068Z</time></trkpt><trkpt lat="42.8900965" lon="6.4066464"><ele>0.0</ele><time>2026-04-30T21:05:11.068Z</time></trkpt><trkpt lat="42.8901417" lon="6.406743"><ele>0.0</ele><time>2026-04-30T21:05:12.068Z</time></trkpt><trkpt lat="42.8901909" lon="6.4068297"><ele>0.0</ele><time>2026-04-30T21:05:13.068Z</time></trkpt><trkpt lat="42.8902391" lon="6.406922"><ele>0.0</ele><time>2026-04-30T21:05:14.069Z</time></trkpt><trkpt lat="42.8902875" lon="6.4070153"><ele>0.0</ele><time>2026-04-30T21:05:15.069Z</time></trkpt><trkpt lat="42.8903376" lon="6.4071067"><ele>0.0</ele><time>2026-04-30T21:05:16.068Z</time></trkpt><trkpt lat="42.8903881" lon="6.4072"><ele>0.0</ele><time>2026-04-30T21:05:17.069Z</time></trkpt><trkpt lat="42.8904369" lon="6.4072929"><ele>0.0</ele><time>2026-04-30T21:05:18.069Z</time></trkpt><trkpt lat="42.8904856" lon="6.4073876"><ele>0.0</ele><time>2026-04-30T21:05:19.068Z</time></trkpt><trkpt lat="42.8905325" lon="6.4074797"><ele>0.0</ele><time>2026-04-30T21:05:20.069Z</time></trkpt><trkpt lat="42.8905786" lon="6.407567"><ele>0.0</ele><time>2026-04-30T21:05:21.069Z</time></trkpt><trkpt lat="42.8906294" lon="6.4076509"><ele>0.0</ele><time>2026-04-30T21:05:22.068Z</time></trkpt><trkpt lat="42.890679" lon="6.4077398"><ele>0.0</ele><time>2026-04-30T21:05:23.068Z</time></trkpt><trkpt lat="42.8907244" lon="6.40783"><ele>0.0</ele><time>2026-04-30T21:05:24.069Z</time></trkpt><trkpt lat="42.8907745" lon="6.4079169"><ele>0.0</ele><time>2026-04-30T21:05:25.069Z</time></trkpt><trkpt lat="42.8908235" lon="6.4080078"><ele>0.0</ele><time>2026-04-30T21:05:26.067Z</time></trkpt><trkpt lat="42.8908706" lon="6.4080979"><ele>0.0</ele><time>2026-04-30T21:05:27.067Z</time></trkpt><trkpt lat="42.8909575" lon="6.4082841"><ele>0.0</ele><time>2026-04-30T21:05:29.067Z</time></trkpt><trkpt lat="42.8909992" lon="6.408382"><ele>0.0</ele><time>2026-04-30T21:05:30.068Z</time></trkpt><trkpt lat="42.8910433" lon="6.4084807"><ele>0.0</ele><time>2026-04-30T21:05:31.067Z</time></trkpt><trkpt lat="42.8910892" lon="6.4085762"><ele>0.0</ele><time>2026-04-30T21:05:32.067Z</time></trkpt><trkpt lat="42.8911912" lon="6.4087598"><ele>0.0</ele><time>2026-04-30T21:05:34.067Z</time></trkpt><trkpt lat="42.891245" lon="6.4088505"><ele>0.0</ele><time>2026-04-30T21:05:35.067Z</time></trkpt><trkpt lat="42.8912956" lon="6.4089402"><ele>0.0</ele><time>2026-04-30T21:05:36.067Z</time></trkpt><trkpt lat="42.8913439" lon="6.4090314"><ele>0.0</ele><time>2026-04-30T21:05:37.067Z</time></trkpt><trkpt lat="42.891396" lon="6.4091259"><ele>0.0</ele><time>2026-04-30T21:05:38.067Z</time></trkpt><trkpt lat="42.8914471" lon="6.4092241"><ele>0.0</ele><time>2026-04-30T21:05:39.068Z</time></trkpt><trkpt lat="42.8914936" lon="6.409324"><ele>0.0</ele><time>2026-04-30T21:05:40.067Z</time></trkpt><trkpt lat="42.8915382" lon="6.4094234"><ele>0.0</ele><time>2026-04-30T21:05:41.068Z</time></trkpt><trkpt lat="42.8915817" lon="6.4095161"><ele>0.0</ele><time>2026-04-30T21:05:42.068Z</time></trkpt><trkpt lat="42.8916292" lon="6.4096091"><ele>0.0</ele><time>2026-04-30T21:05:43.067Z</time></trkpt><trkpt lat="42.8916808" lon="6.4096995"><ele>0.0</ele><time>2026-04-30T21:05:44.067Z</time></trkpt><trkpt lat="42.8917273" lon="6.4097905"><ele>0.0</ele><time>2026-04-30T21:05:45.067Z</time></trkpt><trkpt lat="42.8917747" lon="6.4098776"><ele>0.0</ele><time>2026-04-30T21:05:46.068Z</time></trkpt><trkpt lat="42.891822" lon="6.40997"><ele>0.0</ele><time>2026-04-30T21:05:47.068Z</time></trkpt><trkpt lat="42.8918727" lon="6.4100593"><ele>0.0</ele><time>2026-04-30T21:05:48.068Z</time></trkpt><trkpt lat="42.8919704" lon="6.4102453"><ele>0.0</ele><time>2026-04-30T21:05:50.067Z</time></trkpt><trkpt lat="42.8920186" lon="6.4103413"><ele>0.0</ele><time>2026-04-30T21:05:51.067Z</time></trkpt><trkpt lat="42.8920679" lon="6.410446"><ele>0.0</ele><time>2026-04-30T21:05:52.068Z</time></trkpt><trkpt lat="42.8921138" lon="6.4105444"><ele>0.0</ele><time>2026-04-30T21:05:53.067Z</time></trkpt><trkpt lat="42.8921669" lon="6.4106267"><ele>0.0</ele><time>2026-04-30T21:05:54.067Z</time></trkpt><trkpt lat="42.8922191" lon="6.41071"><ele>0.0</ele><time>2026-04-30T21:05:55.068Z</time></trkpt><trkpt lat="42.8922638" lon="6.4108037"><ele>0.0</ele><time>2026-04-30T21:05:56.068Z</time></trkpt><trkpt lat="42.8923074" lon="6.4108952"><ele>0.0</ele><time>2026-04-30T21:05:57.067Z</time></trkpt><trkpt lat="42.8923517" lon="6.4109924"><ele>0.0</ele><time>2026-04-30T21:05:58.068Z</time></trkpt><trkpt lat="42.8923983" lon="6.4110895"><ele>0.0</ele><time>2026-04-30T21:05:59.067Z</time></trkpt><trkpt lat="42.8924447" lon="6.4111862"><ele>0.0</ele><time>2026-04-30T21:06:00.067Z</time></trkpt><trkpt lat="42.8924916" lon="6.4112786"><ele>0.0</ele><time>2026-04-30T21:06:01.067Z</time></trkpt><trkpt lat="42.8925369" lon="6.4113719"><ele>0.0</ele><time>2026-04-30T21:06:02.068Z</time></trkpt><trkpt lat="42.8925817" lon="6.4114652"><ele>0.0</ele><time>2026-04-30T21:06:03.067Z</time></trkpt><trkpt lat="42.8926279" lon="6.411554"><ele>0.0</ele><time>2026-04-30T21:06:04.068Z</time></trkpt><trkpt lat="42.8926706" lon="6.4116467"><ele>0.0</ele><time>2026-04-30T21:06:05.067Z</time></trkpt><trkpt lat="42.892763" lon="6.4118232"><ele>0.0</ele><time>2026-04-30T21:06:07.068Z</time></trkpt><trkpt lat="42.892813" lon="6.4119049"><ele>0.0</ele><time>2026-04-30T21:06:08.068Z</time></trkpt><trkpt lat="42.8928632" lon="6.4119923"><ele>0.0</ele><time>2026-04-30T21:06:09.068Z</time></trkpt><trkpt lat="42.892966" lon="6.4121645"><ele>0.0</ele><time>2026-04-30T21:06:11.067Z</time></trkpt><trkpt lat="42.8930178" lon="6.4122538"><ele>0.0</ele><time>2026-04-30T21:06:12.068Z</time></trkpt><trkpt lat="42.8930684" lon="6.4123424"><ele>0.0</ele><time>2026-04-30T21:06:13.068Z</time></trkpt><trkpt lat="42.8931181" lon="6.4124305"><ele>0.0</ele><time>2026-04-30T21:06:14.067Z</time></trkpt><trkpt lat="42.8931666" lon="6.412522"><ele>0.0</ele><time>2026-04-30T21:06:15.067Z</time></trkpt><trkpt lat="42.8932163" lon="6.4126135"><ele>0.0</ele><time>2026-04-30T21:06:16.068Z</time></trkpt><trkpt lat="42.8932688" lon="6.4127009"><ele>0.0</ele><time>2026-04-30T21:06:17.068Z</time></trkpt><trkpt lat="42.8933142" lon="6.4127924"><ele>0.0</ele><time>2026-04-30T21:06:18.068Z</time></trkpt><trkpt lat="42.8933602" lon="6.4128806"><ele>0.0</ele><time>2026-04-30T21:06:19.068Z</time></trkpt><trkpt lat="42.8934166" lon="6.4129688"><ele>0.0</ele><time>2026-04-30T21:06:20.067Z</time></trkpt><trkpt lat="42.8934639" lon="6.4130569"><ele>0.0</ele><time>2026-04-30T21:06:21.067Z</time></trkpt><trkpt lat="42.8935106" lon="6.4131488"><ele>0.0</ele><time>2026-04-30T21:06:22.067Z</time></trkpt><trkpt lat="42.8935611" lon="6.41324"><ele>0.0</ele><time>2026-04-30T21:06:23.067Z</time></trkpt><trkpt lat="42.8936145" lon="6.4133255"><ele>0.0</ele><time>2026-04-30T21:06:24.067Z</time></trkpt><trkpt lat="42.8936683" lon="6.4134162"><ele>0.0</ele><time>2026-04-30T21:06:25.067Z</time></trkpt><trkpt lat="42.8937173" lon="6.4135092"><ele>0.0</ele><time>2026-04-30T21:06:26.067Z</time></trkpt><trkpt lat="42.8937711" lon="6.4136001"><ele>0.0</ele><time>2026-04-30T21:06:27.068Z</time></trkpt><trkpt lat="42.8938204" lon="6.4136904"><ele>0.0</ele><time>2026-04-30T21:06:28.067Z</time></trkpt><trkpt lat="42.8938727" lon="6.4137756"><ele>0.0</ele><time>2026-04-30T21:06:29.068Z</time></trkpt><trkpt lat="42.8939215" lon="6.4138665"><ele>0.0</ele><time>2026-04-30T21:06:30.067Z</time></trkpt><trkpt lat="42.8940148" lon="6.4140517"><ele>0.0</ele><time>2026-04-30T21:06:32.068Z</time></trkpt><trkpt lat="42.8940633" lon="6.4141434"><ele>0.0</ele><time>2026-04-30T21:06:33.068Z</time></trkpt><trkpt lat="42.8941141" lon="6.4142295"><ele>0.0</ele><time>2026-04-30T21:06:34.067Z</time></trkpt><trkpt lat="42.8941618" lon="6.4143201"><ele>0.0</ele><time>2026-04-30T21:06:35.067Z</time></trkpt><trkpt lat="42.8942169" lon="6.4144061"><ele>0.0</ele><time>2026-04-30T21:06:36.068Z</time></trkpt><trkpt lat="42.8942712" lon="6.4144953"><ele>0.0</ele><time>2026-04-30T21:06:37.067Z</time></trkpt><trkpt lat="42.8943801" lon="6.4146723"><ele>0.0</ele><time>2026-04-30T21:06:39.068Z</time></trkpt><trkpt lat="42.8944395" lon="6.414763"><ele>0.0</ele><time>2026-04-30T21:06:40.068Z</time></trkpt><trkpt lat="42.8944997" lon="6.414846"><ele>0.0</ele><time>2026-04-30T21:06:41.067Z</time></trkpt><trkpt lat="42.89456" lon="6.4149281"><ele>0.0</ele><time>2026-04-30T21:06:42.068Z</time></trkpt><trkpt lat="42.8946144" lon="6.4150144"><ele>0.0</ele><time>2026-04-30T21:06:43.067Z</time></trkpt><trkpt lat="42.8946681" lon="6.4151"><ele>0.0</ele><time>2026-04-30T21:06:44.068Z</time></trkpt><trkpt lat="42.894714" lon="6.4151891"><ele>0.0</ele><time>2026-04-30T21:06:45.067Z</time></trkpt><trkpt lat="42.8947588" lon="6.4152808"><ele>0.0</ele><time>2026-04-30T21:06:46.068Z</time></trkpt><trkpt lat="42.8948046" lon="6.4153731"><ele>0.0</ele><time>2026-04-30T21:06:47.067Z</time></trkpt><trkpt lat="42.8948515" lon="6.4154665"><ele>0.0</ele><time>2026-04-30T21:06:48.067Z</time></trkpt><trkpt lat="42.8949055" lon="6.4155613"><ele>0.0</ele><time>2026-04-30T21:06:49.067Z</time></trkpt><trkpt lat="42.8949491" lon="6.4156619"><ele>0.0</ele><time>2026-04-30T21:06:50.067Z</time></trkpt><trkpt lat="42.8949965" lon="6.4157488"><ele>0.0</ele><time>2026-04-30T21:06:51.068Z</time></trkpt><trkpt lat="42.8950921" lon="6.4159362"><ele>0.0</ele><time>2026-04-30T21:06:53.068Z</time></trkpt><trkpt lat="42.8951372" lon="6.4160295"><ele>0.0</ele><time>2026-04-30T21:06:54.068Z</time></trkpt><trkpt lat="42.8951838" lon="6.4161184"><ele>0.0</ele><time>2026-04-30T21:06:55.067Z</time></trkpt><trkpt lat="42.8952302" lon="6.4162106"><ele>0.0</ele><time>2026-04-30T21:06:56.067Z</time></trkpt><trkpt lat="42.8952772" lon="6.4163076"><ele>0.0</ele><time>2026-04-30T21:06:57.067Z</time></trkpt><trkpt lat="42.8953309" lon="6.4163931"><ele>0.0</ele><time>2026-04-30T21:06:58.067Z</time></trkpt><trkpt lat="42.8953756" lon="6.4164879"><ele>0.0</ele><time>2026-04-30T21:06:59.068Z</time></trkpt><trkpt lat="42.8954205" lon="6.4165829"><ele>0.0</ele><time>2026-04-30T21:07:00.067Z</time></trkpt><trkpt lat="42.8954682" lon="6.4166721"><ele>0.0</ele><time>2026-04-30T21:07:01.068Z</time></trkpt><trkpt lat="42.8955169" lon="6.4167647"><ele>0.0</ele><time>2026-04-30T21:07:02.068Z</time></trkpt><trkpt lat="42.8955595" lon="6.4168582"><ele>0.0</ele><time>2026-04-30T21:07:03.068Z</time></trkpt><trkpt lat="42.8956034" lon="6.4169483"><ele>0.0</ele><time>2026-04-30T21:07:04.068Z</time></trkpt><trkpt lat="42.895651" lon="6.4170342"><ele>0.0</ele><time>2026-04-30T21:07:05.068Z</time></trkpt><trkpt lat="42.8957025" lon="6.4171209"><ele>0.0</ele><time>2026-04-30T21:07:06.067Z</time></trkpt><trkpt lat="42.8957529" lon="6.417206"><ele>0.0</ele><time>2026-04-30T21:07:07.068Z</time></trkpt><trkpt lat="42.8957985" lon="6.4172948"><ele>0.0</ele><time>2026-04-30T21:07:08.067Z</time></trkpt><trkpt lat="42.8958424" lon="6.417386"><ele>0.0</ele><time>2026-04-30T21:07:09.067Z</time></trkpt><trkpt lat="42.8958854" lon="6.417479"><ele>0.0</ele><time>2026-04-30T21:07:10.068Z</time></trkpt><trkpt lat="42.8959888" lon="6.4176603"><ele>0.0</ele><time>2026-04-30T21:07:12.068Z</time></trkpt><trkpt lat="42.89609" lon="6.4178515"><ele>0.0</ele><time>2026-04-30T21:07:14.068Z</time></trkpt><trkpt lat="42.8961371" lon="6.4179478"><ele>0.0</ele><time>2026-04-30T21:07:15.067Z</time></trkpt><trkpt lat="42.8961825" lon="6.4180402"><ele>0.0</ele><time>2026-04-30T21:07:16.068Z</time></trkpt><trkpt lat="42.8962268" lon="6.4181348"><ele>0.0</ele><time>2026-04-30T21:07:17.068Z</time></trkpt><trkpt lat="42.8962733" lon="6.418227"><ele>0.0</ele><time>2026-04-30T21:07:18.068Z</time></trkpt><trkpt lat="42.8963188" lon="6.418324"><ele>0.0</ele><time>2026-04-30T21:07:19.067Z</time></trkpt><trkpt lat="42.8963665" lon="6.4184154"><ele>0.0</ele><time>2026-04-30T21:07:20.068Z</time></trkpt><trkpt lat="42.8964106" lon="6.4185098"><ele>0.0</ele><time>2026-04-30T21:07:21.067Z</time></trkpt><trkpt lat="42.8964619" lon="6.4186001"><ele>0.0</ele><time>2026-04-30T21:07:22.067Z</time></trkpt><trkpt lat="42.8965182" lon="6.4186916"><ele>0.0</ele><time>2026-04-30T21:07:23.068Z</time></trkpt><trkpt lat="42.8965804" lon="6.418769"><ele>0.0</ele><time>2026-04-30T21:07:24.067Z</time></trkpt><trkpt lat="42.8966316" lon="6.4188573"><ele>0.0</ele><time>2026-04-30T21:07:25.068Z</time></trkpt><trkpt lat="42.8966739" lon="6.4189481"><ele>0.0</ele><time>2026-04-30T21:07:26.067Z</time></trkpt><trkpt lat="42.8967223" lon="6.4190416"><ele>0.0</ele><time>2026-04-30T21:07:27.068Z</time></trkpt><trkpt lat="42.8967807" lon="6.4191348"><ele>0.0</ele><time>2026-04-30T21:07:28.067Z</time></trkpt><trkpt lat="42.8968283" lon="6.4192438"><ele>0.0</ele><time>2026-04-30T21:07:29.068Z</time></trkpt><trkpt lat="42.8968817" lon="6.4193283"><ele>0.0</ele><time>2026-04-30T21:07:30.067Z</time></trkpt><trkpt lat="42.8969268" lon="6.4194159"><ele>0.0</ele><time>2026-04-30T21:07:31.067Z</time></trkpt><trkpt lat="42.8969758" lon="6.4195027"><ele>0.0</ele><time>2026-04-30T21:07:32.068Z</time></trkpt><trkpt lat="42.8970207" lon="6.4195951"><ele>0.0</ele><time>2026-04-30T21:07:33.067Z</time></trkpt><trkpt lat="42.8971196" lon="6.4197722"><ele>0.0</ele><time>2026-04-30T21:07:35.068Z</time></trkpt><trkpt lat="42.8971695" lon="6.4198592"><ele>0.0</ele><time>2026-04-30T21:07:36.068Z</time></trkpt><trkpt lat="42.8972241" lon="6.4199457"><ele>0.0</ele><time>2026-04-30T21:07:37.067Z</time></trkpt><trkpt lat="42.897272" lon="6.4200342"><ele>0.0</ele><time>2026-04-30T21:07:38.068Z</time></trkpt><trkpt lat="42.8973198" lon="6.4201245"><ele>0.0</ele><time>2026-04-30T21:07:39.068Z</time></trkpt><trkpt lat="42.8973714" lon="6.4202173"><ele>0.0</ele><time>2026-04-30T21:07:40.068Z</time></trkpt><trkpt lat="42.8974208" lon="6.4203097"><ele>0.0</ele><time>2026-04-30T21:07:41.067Z</time></trkpt><trkpt lat="42.8974689" lon="6.4204042"><ele>0.0</ele><time>2026-04-30T21:07:42.068Z</time></trkpt><trkpt lat="42.897562" lon="6.4205891"><ele>0.0</ele><time>2026-04-30T21:07:44.068Z</time></trkpt><trkpt lat="42.8976084" lon="6.4206774"><ele>0.0</ele><time>2026-04-30T21:07:45.067Z</time></trkpt><trkpt lat="42.8976548" lon="6.4207637"><ele>0.0</ele><time>2026-04-30T21:07:46.068Z</time></trkpt><trkpt lat="42.8977055" lon="6.4208546"><ele>0.0</ele><time>2026-04-30T21:07:47.068Z</time></trkpt><trkpt lat="42.8977503" lon="6.4209494"><ele>0.0</ele><time>2026-04-30T21:07:48.068Z</time></trkpt><trkpt lat="42.8977995" lon="6.4210462"><ele>0.0</ele><time>2026-04-30T21:07:49.067Z</time></trkpt><trkpt lat="42.8978528" lon="6.421143"><ele>0.0</ele><time>2026-04-30T21:07:50.067Z</time></trkpt><trkpt lat="42.8979002" lon="6.4212383"><ele>0.0</ele><time>2026-04-30T21:07:51.068Z</time></trkpt><trkpt lat="42.897948" lon="6.4213363"><ele>0.0</ele><time>2026-04-30T21:07:52.067Z</time></trkpt><trkpt lat="42.8979985" lon="6.4214315"><ele>0.0</ele><time>2026-04-30T21:07:53.067Z</time></trkpt><trkpt lat="42.8980438" lon="6.421525"><ele>0.0</ele><time>2026-04-30T21:07:54.067Z</time></trkpt><trkpt lat="42.8981454" lon="6.421712"><ele>0.0</ele><time>2026-04-30T21:07:56.067Z</time></trkpt><trkpt lat="42.8981967" lon="6.4218103"><ele>0.0</ele><time>2026-04-30T21:07:57.067Z</time></trkpt><trkpt lat="42.898245" lon="6.4219059"><ele>0.0</ele><time>2026-04-30T21:07:58.067Z</time></trkpt><trkpt lat="42.8982949" lon="6.4220012"><ele>0.0</ele><time>2026-04-30T21:07:59.067Z</time></trkpt><trkpt lat="42.8983436" lon="6.4220965"><ele>0.0</ele><time>2026-04-30T21:08:00.067Z</time></trkpt><trkpt lat="42.898392" lon="6.4221944"><ele>0.0</ele><time>2026-04-30T21:08:01.067Z</time></trkpt><trkpt lat="42.8984358" lon="6.4222914"><ele>0.0</ele><time>2026-04-30T21:08:02.068Z</time></trkpt><trkpt lat="42.898497" lon="6.4223838"><ele>0.0</ele><time>2026-04-30T21:08:03.068Z</time></trkpt><trkpt lat="42.8985464" lon="6.4224697"><ele>0.0</ele><time>2026-04-30T21:08:04.067Z</time></trkpt><trkpt lat="42.8985889" lon="6.4225689"><ele>0.0</ele><time>2026-04-30T21:08:05.068Z</time></trkpt><trkpt lat="42.8986362" lon="6.4226588"><ele>0.0</ele><time>2026-04-30T21:08:06.068Z</time></trkpt><trkpt lat="42.8986843" lon="6.4227516"><ele>0.0</ele><time>2026-04-30T21:08:07.067Z</time></trkpt><trkpt lat="42.8987389" lon="6.4228489"><ele>0.0</ele><time>2026-04-30T21:08:08.067Z</time></trkpt><trkpt lat="42.8987928" lon="6.4229418"><ele>0.0</ele><time>2026-04-30T21:08:09.068Z</time></trkpt><trkpt lat="42.898849" lon="6.4230315"><ele>0.0</ele><time>2026-04-30T21:08:10.067Z</time></trkpt><trkpt lat="42.8989019" lon="6.4231246"><ele>0.0</ele><time>2026-04-30T21:08:11.067Z</time></trkpt><trkpt lat="42.8989521" lon="6.4232193"><ele>0.0</ele><time>2026-04-30T21:08:12.068Z</time></trkpt><trkpt lat="42.8990078" lon="6.4233113"><ele>0.0</ele><time>2026-04-30T21:08:13.067Z</time></trkpt><trkpt lat="42.8990544" lon="6.4234091"><ele>0.0</ele><time>2026-04-30T21:08:14.067Z</time></trkpt><trkpt lat="42.8991065" lon="6.423502"><ele>0.0</ele><time>2026-04-30T21:08:15.067Z</time></trkpt><trkpt lat="42.8992718" lon="6.4237782"><ele>0.0</ele><time>2026-04-30T21:08:18.068Z</time></trkpt><trkpt lat="42.8993224" lon="6.4238682"><ele>0.0</ele><time>2026-04-30T21:08:19.068Z</time></trkpt><trkpt lat="42.899372" lon="6.42396"><ele>0.0</ele><time>2026-04-30T21:08:20.068Z</time></trkpt><trkpt lat="42.8994164" lon="6.4240593"><ele>0.0</ele><time>2026-04-30T21:08:21.068Z</time></trkpt><trkpt lat="42.899456" lon="6.4241511"><ele>0.0</ele><time>2026-04-30T21:08:22.068Z</time></trkpt><trkpt lat="42.8995027" lon="6.424244"><ele>0.0</ele><time>2026-04-30T21:08:23.067Z</time></trkpt><trkpt lat="42.8995502" lon="6.4243384"><ele>0.0</ele><time>2026-04-30T21:08:24.067Z</time></trkpt><trkpt lat="42.8996002" lon="6.4244293"><ele>0.0</ele><time>2026-04-30T21:08:25.068Z</time></trkpt><trkpt lat="42.8996472" lon="6.4245209"><ele>0.0</ele><time>2026-04-30T21:08:26.067Z</time></trkpt><trkpt lat="42.8996866" lon="6.4246137"><ele>0.0</ele><time>2026-04-30T21:08:27.067Z</time></trkpt><trkpt lat="42.8997302" lon="6.4247039"><ele>0.0</ele><time>2026-04-30T21:08:28.068Z</time></trkpt><trkpt lat="42.8997781" lon="6.4247852"><ele>0.0</ele><time>2026-04-30T21:08:29.067Z</time></trkpt><trkpt lat="42.8998272" lon="6.4248736"><ele>0.0</ele><time>2026-04-30T21:08:30.068Z</time></trkpt><trkpt lat="42.899878" lon="6.4249653"><ele>0.0</ele><time>2026-04-30T21:08:31.067Z</time></trkpt><trkpt lat="42.8999323" lon="6.4250557"><ele>0.0</ele><time>2026-04-30T21:08:32.068Z</time></trkpt><trkpt lat="42.8999817" lon="6.425147"><ele>0.0</ele><time>2026-04-30T21:08:33.067Z</time></trkpt><trkpt lat="42.9000286" lon="6.4252398"><ele>0.0</ele><time>2026-04-30T21:08:34.068Z</time></trkpt><trkpt lat="42.9000754" lon="6.4253304"><ele>0.0</ele><time>2026-04-30T21:08:35.067Z</time></trkpt><trkpt lat="42.9001205" lon="6.4254205"><ele>0.0</ele><time>2026-04-30T21:08:36.067Z</time></trkpt><trkpt lat="42.9001694" lon="6.425509"><ele>0.0</ele><time>2026-04-30T21:08:37.068Z</time></trkpt><trkpt lat="42.9002906" lon="6.4256702"><ele>0.0</ele><time>2026-04-30T21:08:39.067Z</time></trkpt><trkpt lat="42.9003445" lon="6.4257539"><ele>0.0</ele><time>2026-04-30T21:08:40.068Z</time></trkpt><trkpt lat="42.9003966" lon="6.4258429"><ele>0.0</ele><time>2026-04-30T21:08:41.068Z</time></trkpt><trkpt lat="42.9004484" lon="6.4259269"><ele>0.0</ele><time>2026-04-30T21:08:42.067Z</time></trkpt><trkpt lat="42.9005017" lon="6.4260092"><ele>0.0</ele><time>2026-04-30T21:08:43.068Z</time></trkpt><trkpt lat="42.9005535" lon="6.4260919"><ele>0.0</ele><time>2026-04-30T21:08:44.067Z</time></trkpt><trkpt lat="42.9005977" lon="6.4261867"><ele>0.0</ele><time>2026-04-30T21:08:45.068Z</time></trkpt><trkpt lat="42.9006455" lon="6.4262822"><ele>0.0</ele><time>2026-04-30T21:08:46.067Z</time></trkpt><trkpt lat="42.9006881" lon="6.4263861"><ele>0.0</ele><time>2026-04-30T21:08:47.068Z</time></trkpt><trkpt lat="42.900777" lon="6.4265875"><ele>0.0</ele><time>2026-04-30T21:08:49.067Z</time></trkpt><trkpt lat="42.900825" lon="6.4266859"><ele>0.0</ele><time>2026-04-30T21:08:50.067Z</time></trkpt><trkpt lat="42.9008695" lon="6.4267846"><ele>0.0</ele><time>2026-04-30T21:08:51.068Z</time></trkpt><trkpt lat="42.9009152" lon="6.4268804"><ele>0.0</ele><time>2026-04-30T21:08:52.067Z</time></trkpt><trkpt lat="42.9009563" lon="6.4269742"><ele>0.0</ele><time>2026-04-30T21:08:53.067Z</time></trkpt><trkpt lat="42.9010085" lon="6.4270592"><ele>0.0</ele><time>2026-04-30T21:08:54.068Z</time></trkpt><trkpt lat="42.9010624" lon="6.4271507"><ele>0.0</ele><time>2026-04-30T21:08:55.067Z</time></trkpt><trkpt lat="42.9011192" lon="6.4272409"><ele>0.0</ele><time>2026-04-30T21:08:56.068Z</time></trkpt><trkpt lat="42.901169" lon="6.4273308"><ele>0.0</ele><time>2026-04-30T21:08:57.067Z</time></trkpt><trkpt lat="42.901213" lon="6.4274206"><ele>0.0</ele><time>2026-04-30T21:08:58.068Z</time></trkpt><trkpt lat="42.9013083" lon="6.4275957"><ele>0.0</ele><time>2026-04-30T21:09:00.068Z</time></trkpt><trkpt lat="42.9013617" lon="6.4276836"><ele>0.0</ele><time>2026-04-30T21:09:01.067Z</time></trkpt><trkpt lat="42.9014135" lon="6.4277733"><ele>0.0</ele><time>2026-04-30T21:09:02.068Z</time></trkpt><trkpt lat="42.9014579" lon="6.4278707"><ele>0.0</ele><time>2026-04-30T21:09:03.067Z</time></trkpt><trkpt lat="42.9015079" lon="6.427962"><ele>0.0</ele><time>2026-04-30T21:09:04.067Z</time></trkpt><trkpt lat="42.9015523" lon="6.4280607"><ele>0.0</ele><time>2026-04-30T21:09:05.067Z</time></trkpt><trkpt lat="42.9015998" lon="6.4281606"><ele>0.0</ele><time>2026-04-30T21:09:06.067Z</time></trkpt><trkpt lat="42.9016467" lon="6.4282564"><ele>0.0</ele><time>2026-04-30T21:09:07.068Z</time></trkpt><trkpt lat="42.9016923" lon="6.4283546"><ele>0.0</ele><time>2026-04-30T21:09:08.067Z</time></trkpt><trkpt lat="42.9017413" lon="6.4284485"><ele>0.0</ele><time>2026-04-30T21:09:09.067Z</time></trkpt><trkpt lat="42.9017902" lon="6.4285418"><ele>0.0</ele><time>2026-04-30T21:09:10.068Z</time></trkpt><trkpt lat="42.9018372" lon="6.4286347"><ele>0.0</ele><time>2026-04-30T21:09:11.067Z</time></trkpt><trkpt lat="42.9018792" lon="6.428728"><ele>0.0</ele><time>2026-04-30T21:09:12.068Z</time></trkpt><trkpt lat="42.9019232" lon="6.4288184"><ele>0.0</ele><time>2026-04-30T21:09:13.068Z</time></trkpt><trkpt lat="42.9019743" lon="6.42891"><ele>0.0</ele><time>2026-04-30T21:09:14.067Z</time></trkpt><trkpt lat="42.9020304" lon="6.4290003"><ele>0.0</ele><time>2026-04-30T21:09:15.068Z</time></trkpt><trkpt lat="42.9020857" lon="6.4290863"><ele>0.0</ele><time>2026-04-30T21:09:16.068Z</time></trkpt><trkpt lat="42.9021368" lon="6.4291753"><ele>0.0</ele><time>2026-04-30T21:09:17.067Z</time></trkpt><trkpt lat="42.9021883" lon="6.4292655"><ele>0.0</ele><time>2026-04-30T21:09:18.067Z</time></trkpt><trkpt lat="42.9022344" lon="6.4293554"><ele>0.0</ele><time>2026-04-30T21:09:19.067Z</time></trkpt><trkpt lat="42.9023785" lon="6.4296189"><ele>0.0</ele><time>2026-04-30T21:09:22.067Z</time></trkpt><trkpt lat="42.9024281" lon="6.4297072"><ele>0.0</ele><time>2026-04-30T21:09:23.067Z</time></trkpt><trkpt lat="42.9024738" lon="6.4298012"><ele>0.0</ele><time>2026-04-30T21:09:24.068Z</time></trkpt><trkpt lat="42.9025187" lon="6.429898"><ele>0.0</ele><time>2026-04-30T21:09:25.068Z</time></trkpt><trkpt lat="42.9025649" lon="6.4299949"><ele>0.0</ele><time>2026-04-30T21:09:26.068Z</time></trkpt><trkpt lat="42.902613" lon="6.4300918"><ele>0.0</ele><time>2026-04-30T21:09:27.067Z</time></trkpt><trkpt lat="42.902666" lon="6.4301911"><ele>0.0</ele><time>2026-04-30T21:09:28.068Z</time></trkpt><trkpt lat="42.9027164" lon="6.4302857"><ele>0.0</ele><time>2026-04-30T21:09:29.068Z</time></trkpt><trkpt lat="42.9027678" lon="6.4303774"><ele>0.0</ele><time>2026-04-30T21:09:30.068Z</time></trkpt><trkpt lat="42.9028177" lon="6.430467"><ele>0.0</ele><time>2026-04-30T21:09:31.067Z</time></trkpt><trkpt lat="42.9028691" lon="6.4305671"><ele>0.0</ele><time>2026-04-30T21:09:32.067Z</time></trkpt><trkpt lat="42.9029184" lon="6.430663"><ele>0.0</ele><time>2026-04-30T21:09:33.067Z</time></trkpt><trkpt lat="42.9029711" lon="6.4307597"><ele>0.0</ele><time>2026-04-30T21:09:34.067Z</time></trkpt><trkpt lat="42.9030272" lon="6.4308534"><ele>0.0</ele><time>2026-04-30T21:09:35.068Z</time></trkpt><trkpt lat="42.9030824" lon="6.4309397"><ele>0.0</ele><time>2026-04-30T21:09:36.068Z</time></trkpt><trkpt lat="42.9031349" lon="6.431026"><ele>0.0</ele><time>2026-04-30T21:09:37.067Z</time></trkpt><trkpt lat="42.9031852" lon="6.4311128"><ele>0.0</ele><time>2026-04-30T21:09:38.067Z</time></trkpt><trkpt lat="42.9032374" lon="6.4312007"><ele>0.0</ele><time>2026-04-30T21:09:39.067Z</time></trkpt><trkpt lat="42.9032895" lon="6.4312859"><ele>0.0</ele><time>2026-04-30T21:09:40.067Z</time></trkpt><trkpt lat="42.9033413" lon="6.4313724"><ele>0.0</ele><time>2026-04-30T21:09:41.068Z</time></trkpt><trkpt lat="42.9034483" lon="6.4315224"><ele>0.0</ele><time>2026-04-30T21:09:43.067Z</time></trkpt><trkpt lat="42.9035009" lon="6.4315973"><ele>0.0</ele><time>2026-04-30T21:09:44.067Z</time></trkpt><trkpt lat="42.9035568" lon="6.4316725"><ele>0.0</ele><time>2026-04-30T21:09:45.067Z</time></trkpt><trkpt lat="42.9036109" lon="6.4317515"><ele>0.0</ele><time>2026-04-30T21:09:46.067Z</time></trkpt><trkpt lat="42.9036647" lon="6.4318342"><ele>0.0</ele><time>2026-04-30T21:09:47.067Z</time></trkpt><trkpt lat="42.9037152" lon="6.4319161"><ele>0.0</ele><time>2026-04-30T21:09:48.068Z</time></trkpt><trkpt lat="42.9037621" lon="6.4320093"><ele>0.0</ele><time>2026-04-30T21:09:49.067Z</time></trkpt><trkpt lat="42.9038103" lon="6.4321028"><ele>0.0</ele><time>2026-04-30T21:09:50.068Z</time></trkpt><trkpt lat="42.9038575" lon="6.4321923"><ele>0.0</ele><time>2026-04-30T21:09:51.068Z</time></trkpt><trkpt lat="42.9039557" lon="6.4323806"><ele>0.0</ele><time>2026-04-30T21:09:53.067Z</time></trkpt><trkpt lat="42.9040026" lon="6.4324745"><ele>0.0</ele><time>2026-04-30T21:09:54.067Z</time></trkpt><trkpt lat="42.9040475" lon="6.4325676"><ele>0.0</ele><time>2026-04-30T21:09:55.068Z</time></trkpt><trkpt lat="42.9040894" lon="6.4326582"><ele>0.0</ele><time>2026-04-30T21:09:56.068Z</time></trkpt><trkpt lat="42.9041335" lon="6.43275"><ele>0.0</ele><time>2026-04-30T21:09:57.067Z</time></trkpt><trkpt lat="42.90418" lon="6.4328405"><ele>0.0</ele><time>2026-04-30T21:09:58.067Z</time></trkpt><trkpt lat="42.904228" lon="6.4329349"><ele>0.0</ele><time>2026-04-30T21:09:59.068Z</time></trkpt><trkpt lat="42.9042779" lon="6.4330287"><ele>0.0</ele><time>2026-04-30T21:10:00.067Z</time></trkpt><trkpt lat="42.9043252" lon="6.4331206"><ele>0.0</ele><time>2026-04-30T21:10:01.068Z</time></trkpt><trkpt lat="42.9043691" lon="6.433215"><ele>0.0</ele><time>2026-04-30T21:10:02.068Z</time></trkpt><trkpt lat="42.9044726" lon="6.4333986"><ele>0.0</ele><time>2026-04-30T21:10:04.067Z</time></trkpt><trkpt lat="42.9045219" lon="6.4334929"><ele>0.0</ele><time>2026-04-30T21:10:05.067Z</time></trkpt><trkpt lat="42.9045718" lon="6.4335863"><ele>0.0</ele><time>2026-04-30T21:10:06.067Z</time></trkpt><trkpt lat="42.9046201" lon="6.4336816"><ele>0.0</ele><time>2026-04-30T21:10:07.068Z</time></trkpt><trkpt lat="42.9046685" lon="6.4337702"><ele>0.0</ele><time>2026-04-30T21:10:08.068Z</time></trkpt><trkpt lat="42.9047182" lon="6.4338584"><ele>0.0</ele><time>2026-04-30T21:10:09.068Z</time></trkpt><trkpt lat="42.9047683" lon="6.433948"><ele>0.0</ele><time>2026-04-30T21:10:10.067Z</time></trkpt><trkpt lat="42.904817" lon="6.4340366"><ele>0.0</ele><time>2026-04-30T21:10:11.068Z</time></trkpt><trkpt lat="42.904865" lon="6.4341266"><ele>0.0</ele><time>2026-04-30T21:10:12.067Z</time></trkpt><trkpt lat="42.904915" lon="6.4342167"><ele>0.0</ele><time>2026-04-30T21:10:13.067Z</time></trkpt><trkpt lat="42.9049679" lon="6.4343094"><ele>0.0</ele><time>2026-04-30T21:10:14.067Z</time></trkpt><trkpt lat="42.9050177" lon="6.4343999"><ele>0.0</ele><time>2026-04-30T21:10:15.067Z</time></trkpt><trkpt lat="42.9050639" lon="6.4344985"><ele>0.0</ele><time>2026-04-30T21:10:16.067Z</time></trkpt><trkpt lat="42.9051094" lon="6.4346001"><ele>0.0</ele><time>2026-04-30T21:10:17.068Z</time></trkpt><trkpt lat="42.9051546" lon="6.4346973"><ele>0.0</ele><time>2026-04-30T21:10:18.068Z</time></trkpt><trkpt lat="42.9052035" lon="6.4347882"><ele>0.0</ele><time>2026-04-30T21:10:19.067Z</time></trkpt><trkpt lat="42.9052548" lon="6.4348774"><ele>0.0</ele><time>2026-04-30T21:10:20.067Z</time></trkpt><trkpt lat="42.9053138" lon="6.4349556"><ele>0.0</ele><time>2026-04-30T21:10:21.067Z</time></trkpt><trkpt lat="42.905367" lon="6.4350403"><ele>0.0</ele><time>2026-04-30T21:10:22.068Z</time></trkpt><trkpt lat="42.9054199" lon="6.4351209"><ele>0.0</ele><time>2026-04-30T21:10:23.067Z</time></trkpt><trkpt lat="42.9054676" lon="6.435208"><ele>0.0</ele><time>2026-04-30T21:10:24.068Z</time></trkpt><trkpt lat="42.9055685" lon="6.4353757"><ele>0.0</ele><time>2026-04-30T21:10:26.068Z</time></trkpt><trkpt lat="42.9056204" lon="6.4354671"><ele>0.0</ele><time>2026-04-30T21:10:27.068Z</time></trkpt><trkpt lat="42.9056707" lon="6.4355569"><ele>0.0</ele><time>2026-04-30T21:10:28.068Z</time></trkpt><trkpt lat="42.9057103" lon="6.4356494"><ele>0.0</ele><time>2026-04-30T21:10:29.068Z</time></trkpt><trkpt lat="42.9057607" lon="6.4357301"><ele>0.0</ele><time>2026-04-30T21:10:30.068Z</time></trkpt><trkpt lat="42.9058098" lon="6.4358219"><ele>0.0</ele><time>2026-04-30T21:10:31.067Z</time></trkpt><trkpt lat="42.9058629" lon="6.4359107"><ele>0.0</ele><time>2026-04-30T21:10:32.067Z</time></trkpt><trkpt lat="42.9059121" lon="6.4360029"><ele>0.0</ele><time>2026-04-30T21:10:33.067Z</time></trkpt><trkpt lat="42.9059645" lon="6.4360965"><ele>0.0</ele><time>2026-04-30T21:10:34.068Z</time></trkpt><trkpt lat="42.9060078" lon="6.4361984"><ele>0.0</ele><time>2026-04-30T21:10:35.067Z</time></trkpt><trkpt lat="42.9060551" lon="6.4362902"><ele>0.0</ele><time>2026-04-30T21:10:36.068Z</time></trkpt><trkpt lat="42.9061018" lon="6.4363888"><ele>0.0</ele><time>2026-04-30T21:10:37.067Z</time></trkpt><trkpt lat="42.9061442" lon="6.4364906"><ele>0.0</ele><time>2026-04-30T21:10:38.067Z</time></trkpt><trkpt lat="42.9061945" lon="6.4365819"><ele>0.0</ele><time>2026-04-30T21:10:39.068Z</time></trkpt><trkpt lat="42.9062432" lon="6.4366765"><ele>0.0</ele><time>2026-04-30T21:10:40.067Z</time></trkpt><trkpt lat="42.906297" lon="6.4367671"><ele>0.0</ele><time>2026-04-30T21:10:41.067Z</time></trkpt><trkpt lat="42.9063526" lon="6.4368612"><ele>0.0</ele><time>2026-04-30T21:10:42.068Z</time></trkpt><trkpt lat="42.9064021" lon="6.4369522"><ele>0.0</ele><time>2026-04-30T21:10:43.067Z</time></trkpt><trkpt lat="42.9064505" lon="6.4370435"><ele>0.0</ele><time>2026-04-30T21:10:44.068Z</time></trkpt><trkpt lat="42.9065358" lon="6.4372335"><ele>0.0</ele><time>2026-04-30T21:10:46.067Z</time></trkpt><trkpt lat="42.906576" lon="6.4373278"><ele>0.0</ele><time>2026-04-30T21:10:47.067Z</time></trkpt><trkpt lat="42.9066203" lon="6.4374244"><ele>0.0</ele><time>2026-04-30T21:10:48.068Z</time></trkpt><trkpt lat="42.9066684" lon="6.4375165"><ele>0.0</ele><time>2026-04-30T21:10:49.067Z</time></trkpt><trkpt lat="42.9067211" lon="6.4376098"><ele>0.0</ele><time>2026-04-30T21:10:50.067Z</time></trkpt><trkpt lat="42.9067718" lon="6.4377046"><ele>0.0</ele><time>2026-04-30T21:10:51.067Z</time></trkpt><trkpt lat="42.9068187" lon="6.4377981"><ele>0.0</ele><time>2026-04-30T21:10:52.067Z</time></trkpt><trkpt lat="42.9068679" lon="6.4378956"><ele>0.0</ele><time>2026-04-30T21:10:53.067Z</time></trkpt><trkpt lat="42.9069167" lon="6.4379939"><ele>0.0</ele><time>2026-04-30T21:10:54.068Z</time></trkpt><trkpt lat="42.9069696" lon="6.4380913"><ele>0.0</ele><time>2026-04-30T21:10:55.067Z</time></trkpt><trkpt lat="42.9070641" lon="6.4382872"><ele>0.0</ele><time>2026-04-30T21:10:57.068Z</time></trkpt><trkpt lat="42.9071102" lon="6.4383765"><ele>0.0</ele><time>2026-04-30T21:10:58.068Z</time></trkpt><trkpt lat="42.907157" lon="6.438465"><ele>0.0</ele><time>2026-04-30T21:10:59.068Z</time></trkpt><trkpt lat="42.9072091" lon="6.4385547"><ele>0.0</ele><time>2026-04-30T21:11:00.068Z</time></trkpt><trkpt lat="42.9072656" lon="6.438647"><ele>0.0</ele><time>2026-04-30T21:11:01.068Z</time></trkpt><trkpt lat="42.9073157" lon="6.4387416"><ele>0.0</ele><time>2026-04-30T21:11:02.068Z</time></trkpt><trkpt lat="42.9073622" lon="6.4388334"><ele>0.0</ele><time>2026-04-30T21:11:03.067Z</time></trkpt><trkpt lat="42.90741" lon="6.4389253"><ele>0.0</ele><time>2026-04-30T21:11:04.068Z</time></trkpt><trkpt lat="42.9074697" lon="6.4390044"><ele>0.0</ele><time>2026-04-30T21:11:05.068Z</time></trkpt><trkpt lat="42.9075682" lon="6.4391848"><ele>0.0</ele><time>2026-04-30T21:11:07.067Z</time></trkpt><trkpt lat="42.9076197" lon="6.4392782"><ele>0.0</ele><time>2026-04-30T21:11:08.068Z</time></trkpt><trkpt lat="42.9076746" lon="6.4393728"><ele>0.0</ele><time>2026-04-30T21:11:09.067Z</time></trkpt><trkpt lat="42.9077288" lon="6.4394709"><ele>0.0</ele><time>2026-04-30T21:11:10.067Z</time></trkpt><trkpt lat="42.9077803" lon="6.4395633"><ele>0.0</ele><time>2026-04-30T21:11:11.067Z</time></trkpt><trkpt lat="42.9078333" lon="6.4396533"><ele>0.0</ele><time>2026-04-30T21:11:12.068Z</time></trkpt><trkpt lat="42.907885" lon="6.4397447"><ele>0.0</ele><time>2026-04-30T21:11:13.067Z</time></trkpt><trkpt lat="42.9079382" lon="6.4398366"><ele>0.0</ele><time>2026-04-30T21:11:14.067Z</time></trkpt><trkpt lat="42.9079932" lon="6.4399294"><ele>0.0</ele><time>2026-04-30T21:11:15.067Z</time></trkpt><trkpt lat="42.9080454" lon="6.4400202"><ele>0.0</ele><time>2026-04-30T21:11:16.067Z</time></trkpt><trkpt lat="42.9080951" lon="6.4401116"><ele>0.0</ele><time>2026-04-30T21:11:17.067Z</time></trkpt><trkpt lat="42.9081469" lon="6.4402021"><ele>0.0</ele><time>2026-04-30T21:11:18.068Z</time></trkpt><trkpt lat="42.9081916" lon="6.440295"><ele>0.0</ele><time>2026-04-30T21:11:19.068Z</time></trkpt><trkpt lat="42.9082372" lon="6.4403833"><ele>0.0</ele><time>2026-04-30T21:11:20.067Z</time></trkpt><trkpt lat="42.9082833" lon="6.4404746"><ele>0.0</ele><time>2026-04-30T21:11:21.068Z</time></trkpt><trkpt lat="42.9083331" lon="6.4405665"><ele>0.0</ele><time>2026-04-30T21:11:22.067Z</time></trkpt><trkpt lat="42.908385" lon="6.4406596"><ele>0.0</ele><time>2026-04-30T21:11:23.068Z</time></trkpt><trkpt lat="42.9084401" lon="6.4407501"><ele>0.0</ele><time>2026-04-30T21:11:24.068Z</time></trkpt><trkpt lat="42.9084965" lon="6.4408414"><ele>0.0</ele><time>2026-04-30T21:11:25.067Z</time></trkpt><trkpt lat="42.9085536" lon="6.440932"><ele>0.0</ele><time>2026-04-30T21:11:26.067Z</time></trkpt><trkpt lat="42.9086074" lon="6.4410219"><ele>0.0</ele><time>2026-04-30T21:11:27.068Z</time></trkpt><trkpt lat="42.9087572" lon="6.4413021"><ele>0.0</ele><time>2026-04-30T21:11:30.067Z</time></trkpt><trkpt lat="42.9088052" lon="6.4413934"><ele>0.0</ele><time>2026-04-30T21:11:31.068Z</time></trkpt><trkpt lat="42.908852" lon="6.4414865"><ele>0.0</ele><time>2026-04-30T21:11:32.068Z</time></trkpt><trkpt lat="42.9088983" lon="6.4415844"><ele>0.0</ele><time>2026-04-30T21:11:33.067Z</time></trkpt><trkpt lat="42.908942" lon="6.4416832"><ele>0.0</ele><time>2026-04-30T21:11:34.067Z</time></trkpt><trkpt lat="42.9089868" lon="6.4417831"><ele>0.0</ele><time>2026-04-30T21:11:35.068Z</time></trkpt><trkpt lat="42.9090334" lon="6.4418842"><ele>0.0</ele><time>2026-04-30T21:11:36.067Z</time></trkpt><trkpt lat="42.9090788" lon="6.4419817"><ele>0.0</ele><time>2026-04-30T21:11:37.067Z</time></trkpt><trkpt lat="42.9091219" lon="6.4420782"><ele>0.0</ele><time>2026-04-30T21:11:38.068Z</time></trkpt><trkpt lat="42.9091667" lon="6.4421733"><ele>0.0</ele><time>2026-04-30T21:11:39.068Z</time></trkpt><trkpt lat="42.909212" lon="6.4422683"><ele>0.0</ele><time>2026-04-30T21:11:40.067Z</time></trkpt><trkpt lat="42.9092567" lon="6.4423631"><ele>0.0</ele><time>2026-04-30T21:11:41.067Z</time></trkpt><trkpt lat="42.9093007" lon="6.442458"><ele>0.0</ele><time>2026-04-30T21:11:42.068Z</time></trkpt><trkpt lat="42.9093666" lon="6.4425273"><ele>0.0</ele><time>2026-04-30T21:11:43.067Z</time></trkpt><trkpt lat="42.9094335" lon="6.4425959"><ele>0.0</ele><time>2026-04-30T21:11:44.068Z</time></trkpt><trkpt lat="42.9094992" lon="6.4426635"><ele>0.0</ele><time>2026-04-30T21:11:45.067Z</time></trkpt><trkpt lat="42.9095487" lon="6.4427529"><ele>0.0</ele><time>2026-04-30T21:11:46.067Z</time></trkpt><trkpt lat="42.9095971" lon="6.4428416"><ele>0.0</ele><time>2026-04-30T21:11:47.067Z</time></trkpt><trkpt lat="42.9096484" lon="6.4429313"><ele>0.0</ele><time>2026-04-30T21:11:48.068Z</time></trkpt><trkpt lat="42.9097383" lon="6.4431207"><ele>0.0</ele><time>2026-04-30T21:11:50.068Z</time></trkpt><trkpt lat="42.9097868" lon="6.4432147"><ele>0.0</ele><time>2026-04-30T21:11:51.067Z</time></trkpt><trkpt lat="42.909828" lon="6.4433226"><ele>0.0</ele><time>2026-04-30T21:11:52.068Z</time></trkpt><trkpt lat="42.9098738" lon="6.4434196"><ele>0.0</ele><time>2026-04-30T21:11:53.067Z</time></trkpt><trkpt lat="42.9099216" lon="6.443516"><ele>0.0</ele><time>2026-04-30T21:11:54.067Z</time></trkpt><trkpt lat="42.90997" lon="6.4436143"><ele>0.0</ele><time>2026-04-30T21:11:55.067Z</time></trkpt><trkpt lat="42.9100125" lon="6.4437155"><ele>0.0</ele><time>2026-04-30T21:11:56.067Z</time></trkpt><trkpt lat="42.9100586" lon="6.4438127"><ele>0.0</ele><time>2026-04-30T21:11:57.068Z</time></trkpt><trkpt lat="42.9101031" lon="6.4439124"><ele>0.0</ele><time>2026-04-30T21:11:58.068Z</time></trkpt><trkpt lat="42.9101496" lon="6.4440051"><ele>0.0</ele><time>2026-04-30T21:11:59.067Z</time></trkpt><trkpt lat="42.9102499" lon="6.4442031"><ele>0.0</ele><time>2026-04-30T21:12:01.068Z</time></trkpt><trkpt lat="42.9103" lon="6.444301"><ele>0.0</ele><time>2026-04-30T21:12:02.068Z</time></trkpt><trkpt lat="42.9103542" lon="6.4443921"><ele>0.0</ele><time>2026-04-30T21:12:03.068Z</time></trkpt><trkpt lat="42.9104051" lon="6.4444851"><ele>0.0</ele><time>2026-04-30T21:12:04.067Z</time></trkpt><trkpt lat="42.9104533" lon="6.4445771"><ele>0.0</ele><time>2026-04-30T21:12:05.067Z</time></trkpt><trkpt lat="42.9105043" lon="6.4446703"><ele>0.0</ele><time>2026-04-30T21:12:06.068Z</time></trkpt><trkpt lat="42.9105553" lon="6.4447624"><ele>0.0</ele><time>2026-04-30T21:12:07.068Z</time></trkpt><trkpt lat="42.9106054" lon="6.4448525"><ele>0.0</ele><time>2026-04-30T21:12:08.067Z</time></trkpt><trkpt lat="42.910658" lon="6.4449436"><ele>0.0</ele><time>2026-04-30T21:12:09.067Z</time></trkpt><trkpt lat="42.91076" lon="6.4451118"><ele>0.0</ele><time>2026-04-30T21:12:11.068Z</time></trkpt><trkpt lat="42.9108134" lon="6.4452042"><ele>0.0</ele><time>2026-04-30T21:12:12.067Z</time></trkpt><trkpt lat="42.9108669" lon="6.4452881"><ele>0.0</ele><time>2026-04-30T21:12:13.067Z</time></trkpt><trkpt lat="42.9109316" lon="6.4453647"><ele>0.0</ele><time>2026-04-30T21:12:14.067Z</time></trkpt><trkpt lat="42.9109823" lon="6.4454532"><ele>0.0</ele><time>2026-04-30T21:12:15.068Z</time></trkpt><trkpt lat="42.9110291" lon="6.4455404"><ele>0.0</ele><time>2026-04-30T21:12:16.067Z</time></trkpt><trkpt lat="42.9110752" lon="6.4456303"><ele>0.0</ele><time>2026-04-30T21:12:17.068Z</time></trkpt><trkpt lat="42.911122" lon="6.4457231"><ele>0.0</ele><time>2026-04-30T21:12:18.067Z</time></trkpt><trkpt lat="42.9111672" lon="6.4458152"><ele>0.0</ele><time>2026-04-30T21:12:19.067Z</time></trkpt><trkpt lat="42.9112136" lon="6.4458999"><ele>0.0</ele><time>2026-04-30T21:12:20.067Z</time></trkpt><trkpt lat="42.9112608" lon="6.4459788"><ele>0.0</ele><time>2026-04-30T21:12:21.067Z</time></trkpt><trkpt lat="42.9113089" lon="6.4460633"><ele>0.0</ele><time>2026-04-30T21:12:22.067Z</time></trkpt><trkpt lat="42.9113583" lon="6.4461524"><ele>0.0</ele><time>2026-04-30T21:12:23.068Z</time></trkpt><trkpt lat="42.9114098" lon="6.4462448"><ele>0.0</ele><time>2026-04-30T21:12:24.068Z</time></trkpt><trkpt lat="42.9114628" lon="6.446338"><ele>0.0</ele><time>2026-04-30T21:12:25.067Z</time></trkpt><trkpt lat="42.9115131" lon="6.4464244"><ele>0.0</ele><time>2026-04-30T21:12:26.068Z</time></trkpt><trkpt lat="42.9115676" lon="6.4465151"><ele>0.0</ele><time>2026-04-30T21:12:27.068Z</time></trkpt><trkpt lat="42.9116396" lon="6.4466068"><ele>0.0</ele><time>2026-04-30T21:12:28.067Z</time></trkpt><trkpt lat="42.9117103" lon="6.4466908"><ele>0.0</ele><time>2026-04-30T21:12:29.067Z</time></trkpt><trkpt lat="42.9117801" lon="6.4467717"><ele>0.0</ele><time>2026-04-30T21:12:30.068Z</time></trkpt><trkpt lat="42.9118303" lon="6.4468657"><ele>0.0</ele><time>2026-04-30T21:12:31.067Z</time></trkpt><trkpt lat="42.9119775" lon="6.4471448"><ele>0.0</ele><time>2026-04-30T21:12:34.068Z</time></trkpt><trkpt lat="42.9120267" lon="6.4472377"><ele>0.0</ele><time>2026-04-30T21:12:35.067Z</time></trkpt><trkpt lat="42.9120779" lon="6.4473272"><ele>0.0</ele><time>2026-04-30T21:12:36.067Z</time></trkpt><trkpt lat="42.912131" lon="6.4474163"><ele>0.0</ele><time>2026-04-30T21:12:37.067Z</time></trkpt><trkpt lat="42.9121867" lon="6.4475003"><ele>0.0</ele><time>2026-04-30T21:12:38.068Z</time></trkpt><trkpt lat="42.9122435" lon="6.4475791"><ele>0.0</ele><time>2026-04-30T21:12:39.068Z</time></trkpt><trkpt lat="42.9123014" lon="6.4476702"><ele>0.0</ele><time>2026-04-30T21:12:40.068Z</time></trkpt><trkpt lat="42.9123616" lon="6.447759"><ele>0.0</ele><time>2026-04-30T21:12:41.068Z</time></trkpt><trkpt lat="42.9124203" lon="6.447847"><ele>0.0</ele><time>2026-04-30T21:12:42.067Z</time></trkpt><trkpt lat="42.9124744" lon="6.4479412"><ele>0.0</ele><time>2026-04-30T21:12:43.068Z</time></trkpt><trkpt lat="42.9125282" lon="6.4480317"><ele>0.0</ele><time>2026-04-30T21:12:44.068Z</time></trkpt><trkpt lat="42.9125787" lon="6.4481276"><ele>0.0</ele><time>2026-04-30T21:12:45.068Z</time></trkpt><trkpt lat="42.9126311" lon="6.4482226"><ele>0.0</ele><time>2026-04-30T21:12:46.068Z</time></trkpt><trkpt lat="42.9126821" lon="6.4483208"><ele>0.0</ele><time>2026-04-30T21:12:47.067Z</time></trkpt><trkpt lat="42.9127266" lon="6.44842"><ele>0.0</ele><time>2026-04-30T21:12:48.068Z</time></trkpt><trkpt lat="42.9127754" lon="6.4485161"><ele>0.0</ele><time>2026-04-30T21:12:49.067Z</time></trkpt><trkpt lat="42.9128242" lon="6.4486099"><ele>0.0</ele><time>2026-04-30T21:12:50.067Z</time></trkpt><trkpt lat="42.9128679" lon="6.448703"><ele>0.0</ele><time>2026-04-30T21:12:51.068Z</time></trkpt><trkpt lat="42.9129168" lon="6.4487922"><ele>0.0</ele><time>2026-04-30T21:12:52.067Z</time></trkpt><trkpt lat="42.912971" lon="6.4488764"><ele>0.0</ele><time>2026-04-30T21:12:53.068Z</time></trkpt><trkpt lat="42.9130882" lon="6.4490412"><ele>0.0</ele><time>2026-04-30T21:12:55.067Z</time></trkpt><trkpt lat="42.9131446" lon="6.449099"><ele>0.0</ele><time>2026-04-30T21:12:56.068Z</time></trkpt><trkpt lat="42.9132007" lon="6.44918"><ele>0.0</ele><time>2026-04-30T21:12:57.067Z</time></trkpt><trkpt lat="42.9132589" lon="6.4492627"><ele>0.0</ele><time>2026-04-30T21:12:58.068Z</time></trkpt><trkpt lat="42.913319" lon="6.4493441"><ele>0.0</ele><time>2026-04-30T21:12:59.068Z</time></trkpt><trkpt lat="42.9133746" lon="6.4494301"><ele>0.0</ele><time>2026-04-30T21:13:00.068Z</time></trkpt><trkpt lat="42.9134281" lon="6.4495225"><ele>0.0</ele><time>2026-04-30T21:13:01.068Z</time></trkpt><trkpt lat="42.9134791" lon="6.4496143"><ele>0.0</ele><time>2026-04-30T21:13:02.068Z</time></trkpt><trkpt lat="42.9135402" lon="6.4496994"><ele>0.0</ele><time>2026-04-30T21:13:03.068Z</time></trkpt><trkpt lat="42.9135938" lon="6.4497911"><ele>0.0</ele><time>2026-04-30T21:13:04.068Z</time></trkpt><trkpt lat="42.9136488" lon="6.4498771"><ele>0.0</ele><time>2026-04-30T21:13:05.066Z</time></trkpt><trkpt lat="42.9136935" lon="6.4499619"><ele>0.0</ele><time>2026-04-30T21:13:06.066Z</time></trkpt><trkpt lat="42.9137452" lon="6.4500422"><ele>0.0</ele><time>2026-04-30T21:13:07.066Z</time></trkpt><trkpt lat="42.9137967" lon="6.4501308"><ele>0.0</ele><time>2026-04-30T21:13:08.066Z</time></trkpt><trkpt lat="42.9138468" lon="6.450218"><ele>0.0</ele><time>2026-04-30T21:13:09.066Z</time></trkpt><trkpt lat="42.9138929" lon="6.4503123"><ele>0.0</ele><time>2026-04-30T21:13:10.067Z</time></trkpt><trkpt lat="42.9139319" lon="6.4504136"><ele>0.0</ele><time>2026-04-30T21:13:11.066Z</time></trkpt><trkpt lat="42.9139753" lon="6.4505011"><ele>0.0</ele><time>2026-04-30T21:13:12.067Z</time></trkpt><trkpt lat="42.9140202" lon="6.4505922"><ele>0.0</ele><time>2026-04-30T21:13:13.066Z</time></trkpt><trkpt lat="42.9140622" lon="6.4506963"><ele>0.0</ele><time>2026-04-30T21:13:14.066Z</time></trkpt><trkpt lat="42.9141418" lon="6.4509046"><ele>0.0</ele><time>2026-04-30T21:13:16.066Z</time></trkpt><trkpt lat="42.9141868" lon="6.4510049"><ele>0.0</ele><time>2026-04-30T21:13:17.066Z</time></trkpt><trkpt lat="42.9142364" lon="6.4511003"><ele>0.0</ele><time>2026-04-30T21:13:18.066Z</time></trkpt><trkpt lat="42.9142865" lon="6.4511923"><ele>0.0</ele><time>2026-04-30T21:13:19.066Z</time></trkpt><trkpt lat="42.9143308" lon="6.4512835"><ele>0.0</ele><time>2026-04-30T21:13:20.066Z</time></trkpt><trkpt lat="42.9143736" lon="6.4513752"><ele>0.0</ele><time>2026-04-30T21:13:21.067Z</time></trkpt><trkpt lat="42.91442" lon="6.4514651"><ele>0.0</ele><time>2026-04-30T21:13:22.066Z</time></trkpt><trkpt lat="42.9144681" lon="6.4515506"><ele>0.0</ele><time>2026-04-30T21:13:23.066Z</time></trkpt><trkpt lat="42.9145211" lon="6.4516396"><ele>0.0</ele><time>2026-04-30T21:13:24.066Z</time></trkpt><trkpt lat="42.9145715" lon="6.4517361"><ele>0.0</ele><time>2026-04-30T21:13:25.066Z</time></trkpt><trkpt lat="42.9146275" lon="6.4518289"><ele>0.0</ele><time>2026-04-30T21:13:26.067Z</time></trkpt><trkpt lat="42.9146817" lon="6.4519215"><ele>0.0</ele><time>2026-04-30T21:13:27.066Z</time></trkpt><trkpt lat="42.914736" lon="6.4520194"><ele>0.0</ele><time>2026-04-30T21:13:28.067Z</time></trkpt><trkpt lat="42.9147908" lon="6.4521085"><ele>0.0</ele><time>2026-04-30T21:13:29.066Z</time></trkpt><trkpt lat="42.9148459" lon="6.4522028"><ele>0.0</ele><time>2026-04-30T21:13:30.066Z</time></trkpt><trkpt lat="42.9148969" lon="6.4522921"><ele>0.0</ele><time>2026-04-30T21:13:31.066Z</time></trkpt><trkpt lat="42.9149454" lon="6.4523848"><ele>0.0</ele><time>2026-04-30T21:13:32.066Z</time></trkpt><trkpt lat="42.9149937" lon="6.4524772"><ele>0.0</ele><time>2026-04-30T21:13:33.067Z</time></trkpt><trkpt lat="42.9150446" lon="6.4525655"><ele>0.0</ele><time>2026-04-30T21:13:34.067Z</time></trkpt><trkpt lat="42.9150939" lon="6.4526583"><ele>0.0</ele><time>2026-04-30T21:13:35.066Z</time></trkpt><trkpt lat="42.9152415" lon="6.4529461"><ele>0.0</ele><time>2026-04-30T21:13:38.067Z</time></trkpt><trkpt lat="42.9152974" lon="6.4530299"><ele>0.0</ele><time>2026-04-30T21:13:39.067Z</time></trkpt><trkpt lat="42.9153487" lon="6.4531101"><ele>0.0</ele><time>2026-04-30T21:13:40.067Z</time></trkpt><trkpt lat="42.9153852" lon="6.453214"><ele>0.0</ele><time>2026-04-30T21:13:41.066Z</time></trkpt><trkpt lat="42.9154316" lon="6.4533126"><ele>0.0</ele><time>2026-04-30T21:13:42.066Z</time></trkpt><trkpt lat="42.9154816" lon="6.4534036"><ele>0.0</ele><time>2026-04-30T21:13:43.066Z</time></trkpt><trkpt lat="42.9155276" lon="6.4534932"><ele>0.0</ele><time>2026-04-30T21:13:44.066Z</time></trkpt><trkpt lat="42.9155724" lon="6.453583"><ele>0.0</ele><time>2026-04-30T21:13:45.066Z</time></trkpt><trkpt lat="42.9156215" lon="6.4536765"><ele>0.0</ele><time>2026-04-30T21:13:46.067Z</time></trkpt><trkpt lat="42.9156702" lon="6.4537667"><ele>0.0</ele><time>2026-04-30T21:13:47.066Z</time></trkpt><trkpt lat="42.9157216" lon="6.453858"><ele>0.0</ele><time>2026-04-30T21:13:48.067Z</time></trkpt><trkpt lat="42.9157686" lon="6.4539456"><ele>0.0</ele><time>2026-04-30T21:13:49.067Z</time></trkpt><trkpt lat="42.9158196" lon="6.4540349"><ele>0.0</ele><time>2026-04-30T21:13:50.066Z</time></trkpt><trkpt lat="42.9158684" lon="6.4541264"><ele>0.0</ele><time>2026-04-30T21:13:51.067Z</time></trkpt><trkpt lat="42.9159164" lon="6.4542186"><ele>0.0</ele><time>2026-04-30T21:13:52.067Z</time></trkpt><trkpt lat="42.9159663" lon="6.4543061"><ele>0.0</ele><time>2026-04-30T21:13:53.067Z</time></trkpt><trkpt lat="42.9160134" lon="6.4543914"><ele>0.0</ele><time>2026-04-30T21:13:54.067Z</time></trkpt><trkpt lat="42.9160648" lon="6.4544775"><ele>0.0</ele><time>2026-04-30T21:13:55.067Z</time></trkpt><trkpt lat="42.916118" lon="6.4545653"><ele>0.0</ele><time>2026-04-30T21:13:56.066Z</time></trkpt><trkpt lat="42.9161874" lon="6.4546519"><ele>0.0</ele><time>2026-04-30T21:13:57.067Z</time></trkpt><trkpt lat="42.9162982" lon="6.4548329"><ele>0.0</ele><time>2026-04-30T21:13:59.066Z</time></trkpt><trkpt lat="42.9163528" lon="6.4549271"><ele>0.0</ele><time>2026-04-30T21:14:00.067Z</time></trkpt><trkpt lat="42.9164076" lon="6.4550208"><ele>0.0</ele><time>2026-04-30T21:14:01.067Z</time></trkpt><trkpt lat="42.9164531" lon="6.4551195"><ele>0.0</ele><time>2026-04-30T21:14:02.066Z</time></trkpt><trkpt lat="42.9165007" lon="6.4552155"><ele>0.0</ele><time>2026-04-30T21:14:03.066Z</time></trkpt><trkpt lat="42.9165514" lon="6.4553124"><ele>0.0</ele><time>2026-04-30T21:14:04.066Z</time></trkpt><trkpt lat="42.9166059" lon="6.4554075"><ele>0.0</ele><time>2026-04-30T21:14:05.066Z</time></trkpt><trkpt lat="42.9166583" lon="6.455498"><ele>0.0</ele><time>2026-04-30T21:14:06.067Z</time></trkpt><trkpt lat="42.9167098" lon="6.4555955"><ele>0.0</ele><time>2026-04-30T21:14:07.066Z</time></trkpt><trkpt lat="42.9168114" lon="6.4557865"><ele>0.0</ele><time>2026-04-30T21:14:09.067Z</time></trkpt><trkpt lat="42.9168562" lon="6.4558838"><ele>0.0</ele><time>2026-04-30T21:14:10.067Z</time></trkpt><trkpt lat="42.9169095" lon="6.4559774"><ele>0.0</ele><time>2026-04-30T21:14:11.066Z</time></trkpt><trkpt lat="42.916963" lon="6.4560692"><ele>0.0</ele><time>2026-04-30T21:14:12.067Z</time></trkpt><trkpt lat="42.9170164" lon="6.4561613"><ele>0.0</ele><time>2026-04-30T21:14:13.067Z</time></trkpt><trkpt lat="42.9170726" lon="6.4562562"><ele>0.0</ele><time>2026-04-30T21:14:14.066Z</time></trkpt><trkpt lat="42.917119" lon="6.456344"><ele>0.0</ele><time>2026-04-30T21:14:15.067Z</time></trkpt><trkpt lat="42.9171623" lon="6.4564263"><ele>0.0</ele><time>2026-04-30T21:14:16.066Z</time></trkpt><trkpt lat="42.9172212" lon="6.4565117"><ele>0.0</ele><time>2026-04-30T21:14:17.066Z</time></trkpt><trkpt lat="42.9172732" lon="6.4565983"><ele>0.0</ele><time>2026-04-30T21:14:18.067Z</time></trkpt><trkpt lat="42.9173663" lon="6.4567847"><ele>0.0</ele><time>2026-04-30T21:14:20.066Z</time></trkpt><trkpt lat="42.9174161" lon="6.4568698"><ele>0.0</ele><time>2026-04-30T21:14:21.066Z</time></trkpt><trkpt lat="42.9174634" lon="6.4569595"><ele>0.0</ele><time>2026-04-30T21:14:22.066Z</time></trkpt><trkpt lat="42.9175186" lon="6.4570493"><ele>0.0</ele><time>2026-04-30T21:14:23.066Z</time></trkpt><trkpt lat="42.9175734" lon="6.4571367"><ele>0.0</ele><time>2026-04-30T21:14:24.066Z</time></trkpt><trkpt lat="42.9176239" lon="6.4572211"><ele>0.0</ele><time>2026-04-30T21:14:25.066Z</time></trkpt><trkpt lat="42.9176653" lon="6.4573071"><ele>0.0</ele><time>2026-04-30T21:14:26.066Z</time></trkpt><trkpt lat="42.917717" lon="6.457403"><ele>0.0</ele><time>2026-04-30T21:14:27.066Z</time></trkpt><trkpt lat="42.9177659" lon="6.4574943"><ele>0.0</ele><time>2026-04-30T21:14:28.066Z</time></trkpt><trkpt lat="42.9178128" lon="6.4575831"><ele>0.0</ele><time>2026-04-30T21:14:29.067Z</time></trkpt><trkpt lat="42.9178678" lon="6.4576639"><ele>0.0</ele><time>2026-04-30T21:14:30.066Z</time></trkpt><trkpt lat="42.9179119" lon="6.4577443"><ele>0.0</ele><time>2026-04-30T21:14:31.067Z</time></trkpt><trkpt lat="42.9179581" lon="6.457837"><ele>0.0</ele><time>2026-04-30T21:14:32.066Z</time></trkpt><trkpt lat="42.9180074" lon="6.4579305"><ele>0.0</ele><time>2026-04-30T21:14:33.066Z</time></trkpt><trkpt lat="42.9180607" lon="6.4580191"><ele>0.0</ele><time>2026-04-30T21:14:34.066Z</time></trkpt><trkpt lat="42.9181081" lon="6.4581204"><ele>0.0</ele><time>2026-04-30T21:14:35.067Z</time></trkpt><trkpt lat="42.9181606" lon="6.4582206"><ele>0.0</ele><time>2026-04-30T21:14:36.066Z</time></trkpt><trkpt lat="42.9182097" lon="6.458318"><ele>0.0</ele><time>2026-04-30T21:14:37.066Z</time></trkpt><trkpt lat="42.9182468" lon="6.4584064"><ele>0.0</ele><time>2026-04-30T21:14:38.067Z</time></trkpt><trkpt lat="42.9182888" lon="6.4585062"><ele>0.0</ele><time>2026-04-30T21:14:39.066Z</time></trkpt><trkpt lat="42.9184338" lon="6.4587736"><ele>0.0</ele><time>2026-04-30T21:14:42.067Z</time></trkpt><trkpt lat="42.9184831" lon="6.4588668"><ele>0.0</ele><time>2026-04-30T21:14:43.066Z</time></trkpt><trkpt lat="42.9185447" lon="6.4589477"><ele>0.0</ele><time>2026-04-30T21:14:44.066Z</time></trkpt><trkpt lat="42.91859" lon="6.4590362"><ele>0.0</ele><time>2026-04-30T21:14:45.067Z</time></trkpt><trkpt lat="42.9186365" lon="6.459133"><ele>0.0</ele><time>2026-04-30T21:14:46.066Z</time></trkpt><trkpt lat="42.9186875" lon="6.4592258"><ele>0.0</ele><time>2026-04-30T21:14:47.066Z</time></trkpt><trkpt lat="42.9187362" lon="6.4593199"><ele>0.0</ele><time>2026-04-30T21:14:48.067Z</time></trkpt><trkpt lat="42.9187861" lon="6.4594144"><ele>0.0</ele><time>2026-04-30T21:14:49.066Z</time></trkpt><trkpt lat="42.9188369" lon="6.459514"><ele>0.0</ele><time>2026-04-30T21:14:50.067Z</time></trkpt><trkpt lat="42.9188868" lon="6.4596069"><ele>0.0</ele><time>2026-04-30T21:14:51.066Z</time></trkpt><trkpt lat="42.9189352" lon="6.4596881"><ele>0.0</ele><time>2026-04-30T21:14:52.066Z</time></trkpt><trkpt lat="42.9189912" lon="6.4597825"><ele>0.0</ele><time>2026-04-30T21:14:53.066Z</time></trkpt><trkpt lat="42.9190405" lon="6.4598734"><ele>0.0</ele><time>2026-04-30T21:14:54.066Z</time></trkpt><trkpt lat="42.9190889" lon="6.4599591"><ele>0.0</ele><time>2026-04-30T21:14:55.067Z</time></trkpt><trkpt lat="42.9191432" lon="6.4600513"><ele>0.0</ele><time>2026-04-30T21:14:56.066Z</time></trkpt><trkpt lat="42.9191968" lon="6.460147"><ele>0.0</ele><time>2026-04-30T21:14:57.067Z</time></trkpt><trkpt lat="42.9192445" lon="6.460245"><ele>0.0</ele><time>2026-04-30T21:14:58.066Z</time></trkpt><trkpt lat="42.9192859" lon="6.4603276"><ele>0.0</ele><time>2026-04-30T21:14:59.067Z</time></trkpt><trkpt lat="42.9193314" lon="6.4604182"><ele>0.0</ele><time>2026-04-30T21:15:00.066Z</time></trkpt><trkpt lat="42.9193681" lon="6.4605176"><ele>0.0</ele><time>2026-04-30T21:15:01.067Z</time></trkpt><trkpt lat="42.919459" lon="6.460701"><ele>0.0</ele><time>2026-04-30T21:15:03.066Z</time></trkpt><trkpt lat="42.9195018" lon="6.4607943"><ele>0.0</ele><time>2026-04-30T21:15:04.066Z</time></trkpt><trkpt lat="42.9195488" lon="6.4608876"><ele>0.0</ele><time>2026-04-30T21:15:05.066Z</time></trkpt><trkpt lat="42.9195932" lon="6.4609738"><ele>0.0</ele><time>2026-04-30T21:15:06.067Z</time></trkpt><trkpt lat="42.9196368" lon="6.4610677"><ele>0.0</ele><time>2026-04-30T21:15:07.066Z</time></trkpt><trkpt lat="42.9196814" lon="6.4611664"><ele>0.0</ele><time>2026-04-30T21:15:08.066Z</time></trkpt><trkpt lat="42.9197295" lon="6.4612618"><ele>0.0</ele><time>2026-04-30T21:15:09.066Z</time></trkpt><trkpt lat="42.9197846" lon="6.4613459"><ele>0.0</ele><time>2026-04-30T21:15:10.066Z</time></trkpt><trkpt lat="42.9198312" lon="6.4614379"><ele>0.0</ele><time>2026-04-30T21:15:11.066Z</time></trkpt><trkpt lat="42.9199339" lon="6.4616271"><ele>0.0</ele><time>2026-04-30T21:15:13.066Z</time></trkpt><trkpt lat="42.9199782" lon="6.4617293"><ele>0.0</ele><time>2026-04-30T21:15:14.066Z</time></trkpt><trkpt lat="42.9200328" lon="6.4618289"><ele>0.0</ele><time>2026-04-30T21:15:15.067Z</time></trkpt><trkpt lat="42.9200847" lon="6.4619271"><ele>0.0</ele><time>2026-04-30T21:15:16.067Z</time></trkpt><trkpt lat="42.9201322" lon="6.4620122"><ele>0.0</ele><time>2026-04-30T21:15:17.066Z</time></trkpt><trkpt lat="42.9201843" lon="6.4621046"><ele>0.0</ele><time>2026-04-30T21:15:18.066Z</time></trkpt><trkpt lat="42.9202365" lon="6.4621968"><ele>0.0</ele><time>2026-04-30T21:15:19.066Z</time></trkpt><trkpt lat="42.920288" lon="6.4622867"><ele>0.0</ele><time>2026-04-30T21:15:20.067Z</time></trkpt><trkpt lat="42.9203484" lon="6.4623767"><ele>0.0</ele><time>2026-04-30T21:15:21.066Z</time></trkpt><trkpt lat="42.9203997" lon="6.4624709"><ele>0.0</ele><time>2026-04-30T21:15:22.067Z</time></trkpt><trkpt lat="42.9204896" lon="6.4626623"><ele>0.0</ele><time>2026-04-30T21:15:24.067Z</time></trkpt><trkpt lat="42.9205415" lon="6.4627488"><ele>0.0</ele><time>2026-04-30T21:15:25.066Z</time></trkpt><trkpt lat="42.9205888" lon="6.4628409"><ele>0.0</ele><time>2026-04-30T21:15:26.067Z</time></trkpt><trkpt lat="42.9206327" lon="6.4629362"><ele>0.0</ele><time>2026-04-30T21:15:27.067Z</time></trkpt><trkpt lat="42.92068" lon="6.4630297"><ele>0.0</ele><time>2026-04-30T21:15:28.067Z</time></trkpt><trkpt lat="42.9207242" lon="6.4631256"><ele>0.0</ele><time>2026-04-30T21:15:29.066Z</time></trkpt><trkpt lat="42.9207792" lon="6.4632248"><ele>0.0</ele><time>2026-04-30T21:15:30.066Z</time></trkpt><trkpt lat="42.9208331" lon="6.4633266"><ele>0.0</ele><time>2026-04-30T21:15:31.066Z</time></trkpt><trkpt lat="42.9208835" lon="6.4634233"><ele>0.0</ele><time>2026-04-30T21:15:32.067Z</time></trkpt><trkpt lat="42.9209336" lon="6.4635173"><ele>0.0</ele><time>2026-04-30T21:15:33.067Z</time></trkpt><trkpt lat="42.9209868" lon="6.463613"><ele>0.0</ele><time>2026-04-30T21:15:34.066Z</time></trkpt><trkpt lat="42.921043" lon="6.4636976"><ele>0.0</ele><time>2026-04-30T21:15:35.066Z</time></trkpt><trkpt lat="42.9210951" lon="6.4637837"><ele>0.0</ele><time>2026-04-30T21:15:36.066Z</time></trkpt><trkpt lat="42.9211424" lon="6.463869"><ele>0.0</ele><time>2026-04-30T21:15:37.066Z</time></trkpt><trkpt lat="42.9211904" lon="6.4639567"><ele>0.0</ele><time>2026-04-30T21:15:38.066Z</time></trkpt><trkpt lat="42.9212385" lon="6.4640447"><ele>0.0</ele><time>2026-04-30T21:15:39.066Z</time></trkpt><trkpt lat="42.9212858" lon="6.4641406"><ele>0.0</ele><time>2026-04-30T21:15:40.066Z</time></trkpt><trkpt lat="42.9213339" lon="6.4642301"><ele>0.0</ele><time>2026-04-30T21:15:41.067Z</time></trkpt><trkpt lat="42.9213747" lon="6.4643344"><ele>0.0</ele><time>2026-04-30T21:15:42.067Z</time></trkpt><trkpt lat="42.9215308" lon="6.4646236"><ele>0.0</ele><time>2026-04-30T21:15:45.066Z</time></trkpt><trkpt lat="42.9215813" lon="6.4647119"><ele>0.0</ele><time>2026-04-30T21:15:46.066Z</time></trkpt><trkpt lat="42.9216307" lon="6.4648039"><ele>0.0</ele><time>2026-04-30T21:15:47.067Z</time></trkpt><trkpt lat="42.9216771" lon="6.464902"><ele>0.0</ele><time>2026-04-30T21:15:48.066Z</time></trkpt><trkpt lat="42.9217295" lon="6.4650019"><ele>0.0</ele><time>2026-04-30T21:15:49.066Z</time></trkpt><trkpt lat="42.9217802" lon="6.4650976"><ele>0.0</ele><time>2026-04-30T21:15:50.066Z</time></trkpt><trkpt lat="42.92183" lon="6.465193"><ele>0.0</ele><time>2026-04-30T21:15:51.066Z</time></trkpt><trkpt lat="42.9218773" lon="6.4652822"><ele>0.0</ele><time>2026-04-30T21:15:52.066Z</time></trkpt><trkpt lat="42.9219265" lon="6.4653704"><ele>0.0</ele><time>2026-04-30T21:15:53.067Z</time></trkpt><trkpt lat="42.9219768" lon="6.4654599"><ele>0.0</ele><time>2026-04-30T21:15:54.067Z</time></trkpt><trkpt lat="42.9220285" lon="6.4655494"><ele>0.0</ele><time>2026-04-30T21:15:55.067Z</time></trkpt><trkpt lat="42.9220832" lon="6.4656397"><ele>0.0</ele><time>2026-04-30T21:15:56.067Z</time></trkpt><trkpt lat="42.9221335" lon="6.4657285"><ele>0.0</ele><time>2026-04-30T21:15:57.067Z</time></trkpt><trkpt lat="42.922185" lon="6.465815"><ele>0.0</ele><time>2026-04-30T21:15:58.066Z</time></trkpt><trkpt lat="42.9222543" lon="6.4658953"><ele>0.0</ele><time>2026-04-30T21:15:59.067Z</time></trkpt><trkpt lat="42.9223036" lon="6.4659843"><ele>0.0</ele><time>2026-04-30T21:16:00.067Z</time></trkpt><trkpt lat="42.9223483" lon="6.466066"><ele>0.0</ele><time>2026-04-30T21:16:01.066Z</time></trkpt><trkpt lat="42.9223957" lon="6.4661532"><ele>0.0</ele><time>2026-04-30T21:16:02.066Z</time></trkpt><trkpt lat="42.9224393" lon="6.4662431"><ele>0.0</ele><time>2026-04-30T21:16:03.066Z</time></trkpt><trkpt lat="42.9224884" lon="6.4663324"><ele>0.0</ele><time>2026-04-30T21:16:04.066Z</time></trkpt><trkpt lat="42.9225972" lon="6.4665128"><ele>0.0</ele><time>2026-04-30T21:16:06.067Z</time></trkpt><trkpt lat="42.9226552" lon="6.4665989"><ele>0.0</ele><time>2026-04-30T21:16:07.066Z</time></trkpt><trkpt lat="42.9227022" lon="6.4666847"><ele>0.0</ele><time>2026-04-30T21:16:08.067Z</time></trkpt><trkpt lat="42.9227485" lon="6.466778"><ele>0.0</ele><time>2026-04-30T21:16:09.066Z</time></trkpt><trkpt lat="42.9228003" lon="6.4668721"><ele>0.0</ele><time>2026-04-30T21:16:10.066Z</time></trkpt><trkpt lat="42.9228443" lon="6.4669616"><ele>0.0</ele><time>2026-04-30T21:16:11.067Z</time></trkpt><trkpt lat="42.922889" lon="6.4670471"><ele>0.0</ele><time>2026-04-30T21:16:12.066Z</time></trkpt><trkpt lat="42.922931" lon="6.467139"><ele>0.0</ele><time>2026-04-30T21:16:13.067Z</time></trkpt><trkpt lat="42.9229795" lon="6.4672367"><ele>0.0</ele><time>2026-04-30T21:16:14.066Z</time></trkpt><trkpt lat="42.9230399" lon="6.4673227"><ele>0.0</ele><time>2026-04-30T21:16:15.066Z</time></trkpt><trkpt lat="42.9231506" lon="6.4675088"><ele>0.0</ele><time>2026-04-30T21:16:17.066Z</time></trkpt><trkpt lat="42.9232119" lon="6.4676041"><ele>0.0</ele><time>2026-04-30T21:16:18.067Z</time></trkpt><trkpt lat="42.9232669" lon="6.4676903"><ele>0.0</ele><time>2026-04-30T21:16:19.067Z</time></trkpt><trkpt lat="42.9233116" lon="6.4677782"><ele>0.0</ele><time>2026-04-30T21:16:20.067Z</time></trkpt><trkpt lat="42.9233584" lon="6.4678653"><ele>0.0</ele><time>2026-04-30T21:16:21.066Z</time></trkpt><trkpt lat="42.9234112" lon="6.4679609"><ele>0.0</ele><time>2026-04-30T21:16:22.066Z</time></trkpt><trkpt lat="42.9234646" lon="6.4680532"><ele>0.0</ele><time>2026-04-30T21:16:23.066Z</time></trkpt><trkpt lat="42.9235154" lon="6.468149"><ele>0.0</ele><time>2026-04-30T21:16:24.066Z</time></trkpt><trkpt lat="42.9236155" lon="6.4683345"><ele>0.0</ele><time>2026-04-30T21:16:26.066Z</time></trkpt><trkpt lat="42.9236654" lon="6.4684235"><ele>0.0</ele><time>2026-04-30T21:16:27.066Z</time></trkpt><trkpt lat="42.9237111" lon="6.4685103"><ele>0.0</ele><time>2026-04-30T21:16:28.066Z</time></trkpt><trkpt lat="42.9237531" lon="6.4686124"><ele>0.0</ele><time>2026-04-30T21:16:29.066Z</time></trkpt><trkpt lat="42.9238002" lon="6.4687117"><ele>0.0</ele><time>2026-04-30T21:16:30.067Z</time></trkpt><trkpt lat="42.9238428" lon="6.4688157"><ele>0.0</ele><time>2026-04-30T21:16:31.067Z</time></trkpt><trkpt lat="42.9238831" lon="6.468921"><ele>0.0</ele><time>2026-04-30T21:16:32.067Z</time></trkpt><trkpt lat="42.9239296" lon="6.4690265"><ele>0.0</ele><time>2026-04-30T21:16:33.067Z</time></trkpt><trkpt lat="42.923968" lon="6.4691371"><ele>0.0</ele><time>2026-04-30T21:16:34.067Z</time></trkpt><trkpt lat="42.924013" lon="6.4692245"><ele>0.0</ele><time>2026-04-30T21:16:35.066Z</time></trkpt><trkpt lat="42.9240597" lon="6.4693094"><ele>0.0</ele><time>2026-04-30T21:16:36.066Z</time></trkpt><trkpt lat="42.9241051" lon="6.4693928"><ele>0.0</ele><time>2026-04-30T21:16:37.066Z</time></trkpt><trkpt lat="42.9241486" lon="6.4694885"><ele>0.0</ele><time>2026-04-30T21:16:38.067Z</time></trkpt><trkpt lat="42.9241897" lon="6.4695839"><ele>0.0</ele><time>2026-04-30T21:16:39.067Z</time></trkpt><trkpt lat="42.9243135" lon="6.4698403"><ele>0.0</ele><time>2026-04-30T21:16:42.066Z</time></trkpt><trkpt lat="42.924367" lon="6.4699443"><ele>0.0</ele><time>2026-04-30T21:16:43.066Z</time></trkpt><trkpt lat="42.9244181" lon="6.4700365"><ele>0.0</ele><time>2026-04-30T21:16:44.066Z</time></trkpt><trkpt lat="42.9244748" lon="6.4701271"><ele>0.0</ele><time>2026-04-30T21:16:45.066Z</time></trkpt><trkpt lat="42.9245862" lon="6.4703132"><ele>0.0</ele><time>2026-04-30T21:16:47.067Z</time></trkpt><trkpt lat="42.9246369" lon="6.4704076"><ele>0.0</ele><time>2026-04-30T21:16:48.066Z</time></trkpt><trkpt lat="42.924735" lon="6.4705912"><ele>0.0</ele><time>2026-04-30T21:16:50.066Z</time></trkpt><trkpt lat="42.9247864" lon="6.4706855"><ele>0.0</ele><time>2026-04-30T21:16:51.066Z</time></trkpt><trkpt lat="42.924835" lon="6.4707794"><ele>0.0</ele><time>2026-04-30T21:16:52.066Z</time></trkpt><trkpt lat="42.9248832" lon="6.4708718"><ele>0.0</ele><time>2026-04-30T21:16:53.066Z</time></trkpt><trkpt lat="42.9249315" lon="6.4709673"><ele>0.0</ele><time>2026-04-30T21:16:54.066Z</time></trkpt><trkpt lat="42.9249854" lon="6.4710743"><ele>0.0</ele><time>2026-04-30T21:16:55.066Z</time></trkpt><trkpt lat="42.925036" lon="6.4711755"><ele>0.0</ele><time>2026-04-30T21:16:56.066Z</time></trkpt><trkpt lat="42.9250891" lon="6.4712728"><ele>0.0</ele><time>2026-04-30T21:16:57.066Z</time></trkpt><trkpt lat="42.9251385" lon="6.4713653"><ele>0.0</ele><time>2026-04-30T21:16:58.067Z</time></trkpt><trkpt lat="42.9251913" lon="6.4714581"><ele>0.0</ele><time>2026-04-30T21:16:59.067Z</time></trkpt><trkpt lat="42.9252449" lon="6.4715469"><ele>0.0</ele><time>2026-04-30T21:17:00.067Z</time></trkpt><trkpt lat="42.9252969" lon="6.4716338"><ele>0.0</ele><time>2026-04-30T21:17:01.066Z</time></trkpt><trkpt lat="42.9253501" lon="6.4717235"><ele>0.0</ele><time>2026-04-30T21:17:02.066Z</time></trkpt><trkpt lat="42.925414" lon="6.4718194"><ele>0.0</ele><time>2026-04-30T21:17:03.067Z</time></trkpt><trkpt lat="42.9254627" lon="6.4719106"><ele>0.0</ele><time>2026-04-30T21:17:04.066Z</time></trkpt><trkpt lat="42.9255038" lon="6.4719959"><ele>0.0</ele><time>2026-04-30T21:17:05.066Z</time></trkpt><trkpt lat="42.9255546" lon="6.4720773"><ele>0.0</ele><time>2026-04-30T21:17:06.067Z</time></trkpt><trkpt lat="42.9256516" lon="6.4722416"><ele>0.0</ele><time>2026-04-30T21:17:08.066Z</time></trkpt><trkpt lat="42.9257074" lon="6.4723234"><ele>0.0</ele><time>2026-04-30T21:17:09.066Z</time></trkpt><trkpt lat="42.9257598" lon="6.4724176"><ele>0.0</ele><time>2026-04-30T21:17:10.066Z</time></trkpt><trkpt lat="42.9258043" lon="6.4725088"><ele>0.0</ele><time>2026-04-30T21:17:11.066Z</time></trkpt><trkpt lat="42.925852" lon="6.4725876"><ele>0.0</ele><time>2026-04-30T21:17:12.066Z</time></trkpt><trkpt lat="42.9259001" lon="6.4726784"><ele>0.0</ele><time>2026-04-30T21:17:13.067Z</time></trkpt><trkpt lat="42.9259501" lon="6.4727714"><ele>0.0</ele><time>2026-04-30T21:17:14.067Z</time></trkpt><trkpt lat="42.9260041" lon="6.4728633"><ele>0.0</ele><time>2026-04-30T21:17:15.066Z</time></trkpt><trkpt lat="42.9260579" lon="6.4729562"><ele>0.0</ele><time>2026-04-30T21:17:16.066Z</time></trkpt><trkpt lat="42.9261115" lon="6.4730436"><ele>0.0</ele><time>2026-04-30T21:17:17.066Z</time></trkpt><trkpt lat="42.9261677" lon="6.4731446"><ele>0.0</ele><time>2026-04-30T21:17:18.066Z</time></trkpt><trkpt lat="42.926222" lon="6.4732366"><ele>0.0</ele><time>2026-04-30T21:17:19.066Z</time></trkpt><trkpt lat="42.9262724" lon="6.4733292"><ele>0.0</ele><time>2026-04-30T21:17:20.066Z</time></trkpt><trkpt lat="42.926393" lon="6.4734764"><ele>0.0</ele><time>2026-04-30T21:17:23.07Z</time></trkpt><trkpt lat="42.9264711" lon="6.4736515"><ele>0.0</ele><time>2026-04-30T21:17:24.176Z</time></trkpt><trkpt lat="42.9265221" lon="6.4737668"><ele>0.0</ele><time>2026-04-30T21:17:25.081Z</time></trkpt><trkpt lat="42.9265691" lon="6.4738786"><ele>0.0</ele><time>2026-04-30T21:17:26.086Z</time></trkpt><trkpt lat="42.9266102" lon="6.4739953"><ele>0.0</ele><time>2026-04-30T21:17:27.091Z</time></trkpt><trkpt lat="42.9267142" lon="6.4741936"><ele>0.0</ele><time>2026-04-30T21:17:29.102Z</time></trkpt><trkpt lat="42.926771" lon="6.4743233"><ele>0.0</ele><time>2026-04-30T21:17:31.113Z</time></trkpt><trkpt lat="42.9268396" lon="6.4744404"><ele>0.0</ele><time>2026-04-30T21:17:32.119Z</time></trkpt><trkpt lat="42.9269028" lon="6.4745403"><ele>0.0</ele><time>2026-04-30T21:17:33.124Z</time></trkpt><trkpt lat="42.9269564" lon="6.4746458"><ele>0.0</ele><time>2026-04-30T21:17:34.13Z</time></trkpt><trkpt lat="42.9270061" lon="6.4747533"><ele>0.0</ele><time>2026-04-30T21:17:35.134Z</time></trkpt><trkpt lat="42.9270577" lon="6.4748736"><ele>0.0</ele><time>2026-04-30T21:17:37.146Z</time></trkpt><trkpt lat="42.9271178" lon="6.4749897"><ele>0.0</ele><time>2026-04-30T21:17:38.151Z</time></trkpt><trkpt lat="42.927186" lon="6.4750807"><ele>0.0</ele><time>2026-04-30T21:17:39.156Z</time></trkpt><trkpt lat="42.927249" lon="6.4751724"><ele>0.0</ele><time>2026-04-30T21:17:40.162Z</time></trkpt><trkpt lat="42.9272843" lon="6.4752515"><ele>0.0</ele><time>2026-04-30T21:17:41.067Z</time></trkpt><trkpt lat="42.9273778" lon="6.4754439"><ele>0.0</ele><time>2026-04-30T21:17:43.077Z</time></trkpt><trkpt lat="42.9274413" lon="6.4755503"><ele>0.0</ele><time>2026-04-30T21:17:44.083Z</time></trkpt><trkpt lat="42.9274895" lon="6.4756608"><ele>0.0</ele><time>2026-04-30T21:17:45.088Z</time></trkpt><trkpt lat="42.927538" lon="6.47576"><ele>0.0</ele><time>2026-04-30T21:17:46.094Z</time></trkpt><trkpt lat="42.9275957" lon="6.4758529"><ele>0.0</ele><time>2026-04-30T21:17:47.099Z</time></trkpt><trkpt lat="42.9277221" lon="6.4761105"><ele>0.0</ele><time>2026-04-30T21:17:50.115Z</time></trkpt><trkpt lat="42.9277883" lon="6.4762104"><ele>0.0</ele><time>2026-04-30T21:17:51.121Z</time></trkpt><trkpt lat="42.9278369" lon="6.4763197"><ele>0.0</ele><time>2026-04-30T21:17:52.127Z</time></trkpt><trkpt lat="42.9278717" lon="6.4764277"><ele>0.0</ele><time>2026-04-30T21:17:53.131Z</time></trkpt><trkpt lat="42.9279494" lon="6.4765645"><ele>0.0</ele><time>2026-04-30T21:17:55.067Z</time></trkpt><trkpt lat="42.9280119" lon="6.4766736"><ele>0.0</ele><time>2026-04-30T21:17:56.067Z</time></trkpt><trkpt lat="42.9280694" lon="6.4767717"><ele>0.0</ele><time>2026-04-30T21:17:57.067Z</time></trkpt><trkpt lat="42.928121" lon="6.4768705"><ele>0.0</ele><time>2026-04-30T21:17:58.066Z</time></trkpt><trkpt lat="42.9281812" lon="6.4769546"><ele>0.0</ele><time>2026-04-30T21:17:59.066Z</time></trkpt><trkpt lat="42.9282388" lon="6.4770396"><ele>0.0</ele><time>2026-04-30T21:18:00.067Z</time></trkpt><trkpt lat="42.9282956" lon="6.4771143"><ele>0.0</ele><time>2026-04-30T21:18:01.066Z</time></trkpt><trkpt lat="42.9283564" lon="6.4771964"><ele>0.0</ele><time>2026-04-30T21:18:02.066Z</time></trkpt><trkpt lat="42.9284137" lon="6.4772853"><ele>0.0</ele><time>2026-04-30T21:18:03.066Z</time></trkpt><trkpt lat="42.9284763" lon="6.4773707"><ele>0.0</ele><time>2026-04-30T21:18:04.067Z</time></trkpt><trkpt lat="42.9285328" lon="6.4774569"><ele>0.0</ele><time>2026-04-30T21:18:05.066Z</time></trkpt><trkpt lat="42.9285892" lon="6.477545"><ele>0.0</ele><time>2026-04-30T21:18:06.066Z</time></trkpt><trkpt lat="42.9286429" lon="6.477635"><ele>0.0</ele><time>2026-04-30T21:18:07.067Z</time></trkpt><trkpt lat="42.9286962" lon="6.4777323"><ele>0.0</ele><time>2026-04-30T21:18:08.067Z</time></trkpt><trkpt lat="42.9288064" lon="6.4779247"><ele>0.0</ele><time>2026-04-30T21:18:10.066Z</time></trkpt><trkpt lat="42.9288552" lon="6.4780111"><ele>0.0</ele><time>2026-04-30T21:18:11.066Z</time></trkpt><trkpt lat="42.9289111" lon="6.4781015"><ele>0.0</ele><time>2026-04-30T21:18:12.066Z</time></trkpt><trkpt lat="42.9289679" lon="6.4781905"><ele>0.0</ele><time>2026-04-30T21:18:13.067Z</time></trkpt><trkpt lat="42.9290169" lon="6.4782787"><ele>0.0</ele><time>2026-04-30T21:18:14.067Z</time></trkpt><trkpt lat="42.9290622" lon="6.4783685"><ele>0.0</ele><time>2026-04-30T21:18:15.066Z</time></trkpt><trkpt lat="42.9291083" lon="6.4784586"><ele>0.0</ele><time>2026-04-30T21:18:16.066Z</time></trkpt><trkpt lat="42.9291613" lon="6.4785526"><ele>0.0</ele><time>2026-04-30T21:18:17.066Z</time></trkpt><trkpt lat="42.9292131" lon="6.4786468"><ele>0.0</ele><time>2026-04-30T21:18:18.066Z</time></trkpt><trkpt lat="42.9292658" lon="6.4787342"><ele>0.0</ele><time>2026-04-30T21:18:19.066Z</time></trkpt><trkpt lat="42.9293134" lon="6.4788265"><ele>0.0</ele><time>2026-04-30T21:18:20.067Z</time></trkpt><trkpt lat="42.9293622" lon="6.4789257"><ele>0.0</ele><time>2026-04-30T21:18:21.067Z</time></trkpt><trkpt lat="42.9294062" lon="6.4790313"><ele>0.0</ele><time>2026-04-30T21:18:22.067Z</time></trkpt><trkpt lat="42.9294509" lon="6.4791264"><ele>0.0</ele><time>2026-04-30T21:18:23.066Z</time></trkpt><trkpt lat="42.9294969" lon="6.4792168"><ele>0.0</ele><time>2026-04-30T21:18:24.067Z</time></trkpt><trkpt lat="42.9295435" lon="6.4793082"><ele>0.0</ele><time>2026-04-30T21:18:25.066Z</time></trkpt><trkpt lat="42.9296529" lon="6.479495"><ele>0.0</ele><time>2026-04-30T21:18:27.066Z</time></trkpt><trkpt lat="42.9296996" lon="6.4795943"><ele>0.0</ele><time>2026-04-30T21:18:28.066Z</time></trkpt><trkpt lat="42.9297369" lon="6.4796897"><ele>0.0</ele><time>2026-04-30T21:18:29.066Z</time></trkpt><trkpt lat="42.9298338" lon="6.4798788"><ele>0.0</ele><time>2026-04-30T21:18:31.067Z</time></trkpt><trkpt lat="42.92988" lon="6.4799732"><ele>0.0</ele><time>2026-04-30T21:18:32.067Z</time></trkpt><trkpt lat="42.9299182" lon="6.4800682"><ele>0.0</ele><time>2026-04-30T21:18:33.067Z</time></trkpt><trkpt lat="42.9299662" lon="6.4801586"><ele>0.0</ele><time>2026-04-30T21:18:34.067Z</time></trkpt><trkpt lat="42.930019" lon="6.4802501"><ele>0.0</ele><time>2026-04-30T21:18:35.066Z</time></trkpt><trkpt lat="42.9300712" lon="6.4803319"><ele>0.0</ele><time>2026-04-30T21:18:36.067Z</time></trkpt><trkpt lat="42.9301263" lon="6.4804099"><ele>0.0</ele><time>2026-04-30T21:18:37.066Z</time></trkpt><trkpt lat="42.930184" lon="6.4804939"><ele>0.0</ele><time>2026-04-30T21:18:38.066Z</time></trkpt><trkpt lat="42.9302323" lon="6.4805888"><ele>0.0</ele><time>2026-04-30T21:18:39.067Z</time></trkpt><trkpt lat="42.9302902" lon="6.4806797"><ele>0.0</ele><time>2026-04-30T21:18:40.067Z</time></trkpt><trkpt lat="42.9303388" lon="6.4807728"><ele>0.0</ele><time>2026-04-30T21:18:41.067Z</time></trkpt><trkpt lat="42.9303885" lon="6.4808559"><ele>0.0</ele><time>2026-04-30T21:18:42.067Z</time></trkpt><trkpt lat="42.9304384" lon="6.4809449"><ele>0.0</ele><time>2026-04-30T21:18:43.066Z</time></trkpt><trkpt lat="42.9304974" lon="6.4810275"><ele>0.0</ele><time>2026-04-30T21:18:44.067Z</time></trkpt><trkpt lat="42.9305519" lon="6.481108"><ele>0.0</ele><time>2026-04-30T21:18:45.066Z</time></trkpt><trkpt lat="42.9306025" lon="6.4811983"><ele>0.0</ele><time>2026-04-30T21:18:46.066Z</time></trkpt><trkpt lat="42.9306506" lon="6.4812873"><ele>0.0</ele><time>2026-04-30T21:18:47.067Z</time></trkpt><trkpt lat="42.9306989" lon="6.4813783"><ele>0.0</ele><time>2026-04-30T21:18:48.066Z</time></trkpt><trkpt lat="42.9307429" lon="6.4814728"><ele>0.0</ele><time>2026-04-30T21:18:49.066Z</time></trkpt><trkpt lat="42.9307847" lon="6.4815694"><ele>0.0</ele><time>2026-04-30T21:18:50.066Z</time></trkpt><trkpt lat="42.9308808" lon="6.4817578"><ele>0.0</ele><time>2026-04-30T21:18:52.066Z</time></trkpt><trkpt lat="42.9309275" lon="6.4818511"><ele>0.0</ele><time>2026-04-30T21:18:53.067Z</time></trkpt><trkpt lat="42.9309841" lon="6.4819377"><ele>0.0</ele><time>2026-04-30T21:18:54.066Z</time></trkpt><trkpt lat="42.9310326" lon="6.482035"><ele>0.0</ele><time>2026-04-30T21:18:55.066Z</time></trkpt><trkpt lat="42.9310808" lon="6.4821268"><ele>0.0</ele><time>2026-04-30T21:18:56.067Z</time></trkpt><trkpt lat="42.9311305" lon="6.4822212"><ele>0.0</ele><time>2026-04-30T21:18:57.066Z</time></trkpt><trkpt lat="42.9312352" lon="6.4824086"><ele>0.0</ele><time>2026-04-30T21:18:59.066Z</time></trkpt><trkpt lat="42.9312854" lon="6.4824972"><ele>0.0</ele><time>2026-04-30T21:19:00.067Z</time></trkpt><trkpt lat="42.9313339" lon="6.4825901"><ele>0.0</ele><time>2026-04-30T21:19:01.066Z</time></trkpt><trkpt lat="42.9313761" lon="6.4826845"><ele>0.0</ele><time>2026-04-30T21:19:02.066Z</time></trkpt><trkpt lat="42.9314219" lon="6.4827681"><ele>0.0</ele><time>2026-04-30T21:19:03.066Z</time></trkpt><trkpt lat="42.9314771" lon="6.4828429"><ele>0.0</ele><time>2026-04-30T21:19:04.066Z</time></trkpt><trkpt lat="42.9315151" lon="6.4829391"><ele>0.0</ele><time>2026-04-30T21:19:05.067Z</time></trkpt><trkpt lat="42.9315558" lon="6.4830262"><ele>0.0</ele><time>2026-04-30T21:19:06.067Z</time></trkpt><trkpt lat="42.931596" lon="6.4831227"><ele>0.0</ele><time>2026-04-30T21:19:07.066Z</time></trkpt><trkpt lat="42.9317757" lon="6.4833364"><ele>0.0</ele><time>2026-04-30T21:19:10.067Z</time></trkpt><trkpt lat="42.9318373" lon="6.4834348"><ele>0.0</ele><time>2026-04-30T21:19:11.066Z</time></trkpt><trkpt lat="42.931935" lon="6.4836289"><ele>0.0</ele><time>2026-04-30T21:19:13.066Z</time></trkpt><trkpt lat="42.9319793" lon="6.483726"><ele>0.0</ele><time>2026-04-30T21:19:14.066Z</time></trkpt><trkpt lat="42.9320174" lon="6.4838252"><ele>0.0</ele><time>2026-04-30T21:19:15.067Z</time></trkpt><trkpt lat="42.9320565" lon="6.4839377"><ele>0.0</ele><time>2026-04-30T21:19:16.067Z</time></trkpt><trkpt lat="42.9320977" lon="6.4840402"><ele>0.0</ele><time>2026-04-30T21:19:17.067Z</time></trkpt><trkpt lat="42.9321434" lon="6.4841397"><ele>0.0</ele><time>2026-04-30T21:19:18.066Z</time></trkpt><trkpt lat="42.9321958" lon="6.4842336"><ele>0.0</ele><time>2026-04-30T21:19:19.066Z</time></trkpt><trkpt lat="42.9322465" lon="6.484331"><ele>0.0</ele><time>2026-04-30T21:19:20.066Z</time></trkpt><trkpt lat="42.9322984" lon="6.4844305"><ele>0.0</ele><time>2026-04-30T21:19:21.067Z</time></trkpt><trkpt lat="42.932347" lon="6.4845277"><ele>0.0</ele><time>2026-04-30T21:19:22.066Z</time></trkpt><trkpt lat="42.9323966" lon="6.4846228"><ele>0.0</ele><time>2026-04-30T21:19:23.067Z</time></trkpt><trkpt lat="42.9324514" lon="6.4847122"><ele>0.0</ele><time>2026-04-30T21:19:24.067Z</time></trkpt><trkpt lat="42.932508" lon="6.4848003"><ele>0.0</ele><time>2026-04-30T21:19:25.067Z</time></trkpt><trkpt lat="42.9325616" lon="6.4848904"><ele>0.0</ele><time>2026-04-30T21:19:26.066Z</time></trkpt><trkpt lat="42.9326137" lon="6.4849856"><ele>0.0</ele><time>2026-04-30T21:19:27.066Z</time></trkpt><trkpt lat="42.9326654" lon="6.485078"><ele>0.0</ele><time>2026-04-30T21:19:28.066Z</time></trkpt><trkpt lat="42.9327138" lon="6.4851702"><ele>0.0</ele><time>2026-04-30T21:19:29.066Z</time></trkpt><trkpt lat="42.9327698" lon="6.48528"><ele>0.0</ele><time>2026-04-30T21:19:31.072Z</time></trkpt><trkpt lat="42.9329882" lon="6.4857251"><ele>0.0</ele><time>2026-04-30T21:19:35.067Z</time></trkpt><trkpt lat="42.9330394" lon="6.4858312"><ele>0.0</ele><time>2026-04-30T21:19:36.066Z</time></trkpt><trkpt lat="42.9330882" lon="6.4859207"><ele>0.0</ele><time>2026-04-30T21:19:37.067Z</time></trkpt><trkpt lat="42.9331411" lon="6.4860129"><ele>0.0</ele><time>2026-04-30T21:19:38.067Z</time></trkpt><trkpt lat="42.9331949" lon="6.4861136"><ele>0.0</ele><time>2026-04-30T21:19:39.067Z</time></trkpt><trkpt lat="42.9332454" lon="6.4862066"><ele>0.0</ele><time>2026-04-30T21:19:40.066Z</time></trkpt><trkpt lat="42.9332956" lon="6.4862996"><ele>0.0</ele><time>2026-04-30T21:19:41.066Z</time></trkpt><trkpt lat="42.933344" lon="6.4863958"><ele>0.0</ele><time>2026-04-30T21:19:42.066Z</time></trkpt><trkpt lat="42.9333964" lon="6.4864854"><ele>0.0</ele><time>2026-04-30T21:19:43.067Z</time></trkpt><trkpt lat="42.933441" lon="6.4865766"><ele>0.0</ele><time>2026-04-30T21:19:44.067Z</time></trkpt><trkpt lat="42.9334886" lon="6.4866652"><ele>0.0</ele><time>2026-04-30T21:19:45.066Z</time></trkpt><trkpt lat="42.9335339" lon="6.4867581"><ele>0.0</ele><time>2026-04-30T21:19:46.066Z</time></trkpt><trkpt lat="42.9335798" lon="6.4868559"><ele>0.0</ele><time>2026-04-30T21:19:47.067Z</time></trkpt><trkpt lat="42.9336249" lon="6.4869514"><ele>0.0</ele><time>2026-04-30T21:19:48.066Z</time></trkpt><trkpt lat="42.9336711" lon="6.4870526"><ele>0.0</ele><time>2026-04-30T21:19:49.066Z</time></trkpt><trkpt lat="42.9337462" lon="6.4871391"><ele>0.0</ele><time>2026-04-30T21:19:50.066Z</time></trkpt><trkpt lat="42.9338274" lon="6.4872183"><ele>0.0</ele><time>2026-04-30T21:19:51.066Z</time></trkpt><trkpt lat="42.9338814" lon="6.4873092"><ele>0.0</ele><time>2026-04-30T21:19:52.066Z</time></trkpt><trkpt lat="42.9339678" lon="6.4875002"><ele>0.0</ele><time>2026-04-30T21:19:54.066Z</time></trkpt><trkpt lat="42.9340176" lon="6.4875882"><ele>0.0</ele><time>2026-04-30T21:19:55.067Z</time></trkpt><trkpt lat="42.9340621" lon="6.4876852"><ele>0.0</ele><time>2026-04-30T21:19:56.067Z</time></trkpt><trkpt lat="42.9340968" lon="6.4877875"><ele>0.0</ele><time>2026-04-30T21:19:57.066Z</time></trkpt><trkpt lat="42.9341372" lon="6.4878808"><ele>0.0</ele><time>2026-04-30T21:19:58.066Z</time></trkpt><trkpt lat="42.934177" lon="6.487977"><ele>0.0</ele><time>2026-04-30T21:19:59.066Z</time></trkpt><trkpt lat="42.9342255" lon="6.4880694"><ele>0.0</ele><time>2026-04-30T21:20:00.066Z</time></trkpt><trkpt lat="42.9342755" lon="6.4881626"><ele>0.0</ele><time>2026-04-30T21:20:01.067Z</time></trkpt><trkpt lat="42.9343731" lon="6.4883438"><ele>0.0</ele><time>2026-04-30T21:20:03.066Z</time></trkpt><trkpt lat="42.9344227" lon="6.488433"><ele>0.0</ele><time>2026-04-30T21:20:04.066Z</time></trkpt><trkpt lat="42.9344672" lon="6.4885213"><ele>0.0</ele><time>2026-04-30T21:20:05.066Z</time></trkpt><trkpt lat="42.9345135" lon="6.488614"><ele>0.0</ele><time>2026-04-30T21:20:06.066Z</time></trkpt><trkpt lat="42.9345656" lon="6.4887001"><ele>0.0</ele><time>2026-04-30T21:20:07.066Z</time></trkpt><trkpt lat="42.9346132" lon="6.4887923"><ele>0.0</ele><time>2026-04-30T21:20:08.067Z</time></trkpt><trkpt lat="42.9346615" lon="6.4888854"><ele>0.0</ele><time>2026-04-30T21:20:09.066Z</time></trkpt><trkpt lat="42.9347124" lon="6.488976"><ele>0.0</ele><time>2026-04-30T21:20:10.066Z</time></trkpt><trkpt lat="42.9347586" lon="6.4890676"><ele>0.0</ele><time>2026-04-30T21:20:11.067Z</time></trkpt><trkpt lat="42.9348021" lon="6.4891605"><ele>0.0</ele><time>2026-04-30T21:20:12.067Z</time></trkpt><trkpt lat="42.9348485" lon="6.489251"><ele>0.0</ele><time>2026-04-30T21:20:13.066Z</time></trkpt><trkpt lat="42.9349468" lon="6.4894319"><ele>0.0</ele><time>2026-04-30T21:20:15.066Z</time></trkpt><trkpt lat="42.9349979" lon="6.4895235"><ele>0.0</ele><time>2026-04-30T21:20:16.066Z</time></trkpt><trkpt lat="42.9350537" lon="6.4896139"><ele>0.0</ele><time>2026-04-30T21:20:17.066Z</time></trkpt><trkpt lat="42.9351065" lon="6.4897055"><ele>0.0</ele><time>2026-04-30T21:20:18.066Z</time></trkpt><trkpt lat="42.9351526" lon="6.4897931"><ele>0.0</ele><time>2026-04-30T21:20:19.066Z</time></trkpt><trkpt lat="42.9352059" lon="6.4898769"><ele>0.0</ele><time>2026-04-30T21:20:20.066Z</time></trkpt><trkpt lat="42.9352606" lon="6.4899645"><ele>0.0</ele><time>2026-04-30T21:20:21.067Z</time></trkpt><trkpt lat="42.935317" lon="6.4900572"><ele>0.0</ele><time>2026-04-30T21:20:22.067Z</time></trkpt><trkpt lat="42.9353726" lon="6.4901501"><ele>0.0</ele><time>2026-04-30T21:20:23.066Z</time></trkpt><trkpt lat="42.9354232" lon="6.4902434"><ele>0.0</ele><time>2026-04-30T21:20:24.066Z</time></trkpt><trkpt lat="42.9354735" lon="6.490338"><ele>0.0</ele><time>2026-04-30T21:20:25.066Z</time></trkpt><trkpt lat="42.9355252" lon="6.4904277"><ele>0.0</ele><time>2026-04-30T21:20:26.067Z</time></trkpt><trkpt lat="42.9355668" lon="6.4905218"><ele>0.0</ele><time>2026-04-30T21:20:27.066Z</time></trkpt><trkpt lat="42.9356095" lon="6.4906155"><ele>0.0</ele><time>2026-04-30T21:20:28.066Z</time></trkpt><trkpt lat="42.9356526" lon="6.4907061"><ele>0.0</ele><time>2026-04-30T21:20:29.066Z</time></trkpt><trkpt lat="42.9357068" lon="6.4907971"><ele>0.0</ele><time>2026-04-30T21:20:30.067Z</time></trkpt><trkpt lat="42.9357621" lon="6.4908817"><ele>0.0</ele><time>2026-04-30T21:20:31.066Z</time></trkpt><trkpt lat="42.9358102" lon="6.4909807"><ele>0.0</ele><time>2026-04-30T21:20:32.065Z</time></trkpt><trkpt lat="42.9358684" lon="6.4910605"><ele>0.0</ele><time>2026-04-30T21:20:33.065Z</time></trkpt><trkpt lat="42.9360212" lon="6.4913548"><ele>0.0</ele><time>2026-04-30T21:20:36.065Z</time></trkpt><trkpt lat="42.9360718" lon="6.4914421"><ele>0.0</ele><time>2026-04-30T21:20:37.066Z</time></trkpt><trkpt lat="42.9361188" lon="6.491529"><ele>0.0</ele><time>2026-04-30T21:20:38.066Z</time></trkpt><trkpt lat="42.9362402" lon="6.4917602"><ele>0.0</ele><time>2026-04-30T21:20:41.15Z</time></trkpt><trkpt lat="42.9363098" lon="6.4918831"><ele>0.0</ele><time>2026-04-30T21:20:42.156Z</time></trkpt><trkpt lat="42.9363842" lon="6.4919849"><ele>0.0</ele><time>2026-04-30T21:20:43.162Z</time></trkpt><trkpt lat="42.9364446" lon="6.4920909"><ele>0.0</ele><time>2026-04-30T21:20:44.166Z</time></trkpt><trkpt lat="42.936497" lon="6.4921866"><ele>0.0</ele><time>2026-04-30T21:20:45.072Z</time></trkpt><trkpt lat="42.936557" lon="6.4922836"><ele>0.0</ele><time>2026-04-30T21:20:46.077Z</time></trkpt><trkpt lat="42.9366158" lon="6.4923732"><ele>0.0</ele><time>2026-04-30T21:20:47.083Z</time></trkpt><trkpt lat="42.9366792" lon="6.4923617"><ele>0.0</ele><time>2026-04-30T21:20:49.093Z</time></trkpt><trkpt lat="42.9367474" lon="6.4925774"><ele>0.0</ele><time>2026-04-30T21:20:50.098Z</time></trkpt><trkpt lat="42.9367857" lon="6.4927226"><ele>0.0</ele><time>2026-04-30T21:20:51.104Z</time></trkpt><trkpt lat="42.9368403" lon="6.4928353"><ele>0.0</ele><time>2026-04-30T21:20:52.109Z</time></trkpt><trkpt lat="42.9369084" lon="6.4929277"><ele>0.0</ele><time>2026-04-30T21:20:53.116Z</time></trkpt><trkpt lat="42.936964" lon="6.4930281"><ele>0.0</ele><time>2026-04-30T21:20:54.12Z</time></trkpt><trkpt lat="42.9370115" lon="6.4931696"><ele>0.0</ele><time>2026-04-30T21:20:56.132Z</time></trkpt><trkpt lat="42.9371555" lon="6.4933799"><ele>0.0</ele><time>2026-04-30T21:20:58.143Z</time></trkpt><trkpt lat="42.9372066" lon="6.4934885"><ele>0.0</ele><time>2026-04-30T21:20:59.147Z</time></trkpt><trkpt lat="42.9372151" lon="6.4936284"><ele>0.0</ele><time>2026-04-30T21:21:01.159Z</time></trkpt><trkpt lat="42.9373074" lon="6.493725"><ele>0.0</ele><time>2026-04-30T21:21:02.165Z</time></trkpt><trkpt lat="42.9373739" lon="6.4938319"><ele>0.0</ele><time>2026-04-30T21:21:03.17Z</time></trkpt><trkpt lat="42.9374218" lon="6.4939322"><ele>0.0</ele><time>2026-04-30T21:21:04.074Z</time></trkpt><trkpt lat="42.9374839" lon="6.4940194"><ele>0.0</ele><time>2026-04-30T21:21:05.079Z</time></trkpt><trkpt lat="42.9375447" lon="6.4941621"><ele>0.0</ele><time>2026-04-30T21:21:07.09Z</time></trkpt><trkpt lat="42.9376189" lon="6.4942682"><ele>0.0</ele><time>2026-04-30T21:21:08.097Z</time></trkpt><trkpt lat="42.9376814" lon="6.4943683"><ele>0.0</ele><time>2026-04-30T21:21:09.101Z</time></trkpt><trkpt lat="42.9377261" lon="6.4944295"><ele>0.0</ele><time>2026-04-30T21:21:10.066Z</time></trkpt><trkpt lat="42.9377806" lon="6.494514"><ele>0.0</ele><time>2026-04-30T21:21:11.065Z</time></trkpt><trkpt lat="42.9378312" lon="6.4946073"><ele>0.0</ele><time>2026-04-30T21:21:12.065Z</time></trkpt><trkpt lat="42.9378818" lon="6.494707"><ele>0.0</ele><time>2026-04-30T21:21:13.065Z</time></trkpt><trkpt lat="42.9379327" lon="6.4948055"><ele>0.0</ele><time>2026-04-30T21:21:14.066Z</time></trkpt><trkpt lat="42.9379825" lon="6.4949071"><ele>0.0</ele><time>2026-04-30T21:21:15.065Z</time></trkpt><trkpt lat="42.9380275" lon="6.4950108"><ele>0.0</ele><time>2026-04-30T21:21:16.065Z</time></trkpt><trkpt lat="42.9380785" lon="6.4951109"><ele>0.0</ele><time>2026-04-30T21:21:17.066Z</time></trkpt><trkpt lat="42.9381803" lon="6.4952945"><ele>0.0</ele><time>2026-04-30T21:21:19.065Z</time></trkpt><trkpt lat="42.9382327" lon="6.4953838"><ele>0.0</ele><time>2026-04-30T21:21:20.065Z</time></trkpt><trkpt lat="42.9382717" lon="6.4954794"><ele>0.0</ele><time>2026-04-30T21:21:21.065Z</time></trkpt><trkpt lat="42.9383171" lon="6.4955718"><ele>0.0</ele><time>2026-04-30T21:21:22.066Z</time></trkpt><trkpt lat="42.9383652" lon="6.4956592"><ele>0.0</ele><time>2026-04-30T21:21:23.065Z</time></trkpt><trkpt lat="42.938405" lon="6.4957488"><ele>0.0</ele><time>2026-04-30T21:21:24.065Z</time></trkpt><trkpt lat="42.9384507" lon="6.4958417"><ele>0.0</ele><time>2026-04-30T21:21:25.066Z</time></trkpt><trkpt lat="42.9384986" lon="6.4959237"><ele>0.0</ele><time>2026-04-30T21:21:26.065Z</time></trkpt><trkpt lat="42.9385471" lon="6.4960166"><ele>0.0</ele><time>2026-04-30T21:21:27.066Z</time></trkpt><trkpt lat="42.9385914" lon="6.4961092"><ele>0.0</ele><time>2026-04-30T21:21:28.065Z</time></trkpt><trkpt lat="42.9386466" lon="6.4962012"><ele>0.0</ele><time>2026-04-30T21:21:29.065Z</time></trkpt><trkpt lat="42.9386936" lon="6.4962898"><ele>0.0</ele><time>2026-04-30T21:21:30.065Z</time></trkpt><trkpt lat="42.9387242" lon="6.4963754"><ele>0.0</ele><time>2026-04-30T21:21:31.065Z</time></trkpt><trkpt lat="42.9387694" lon="6.4964579"><ele>0.0</ele><time>2026-04-30T21:21:32.065Z</time></trkpt><trkpt lat="42.938825" lon="6.496548"><ele>0.0</ele><time>2026-04-30T21:21:33.065Z</time></trkpt><trkpt lat="42.9388816" lon="6.4966409"><ele>0.0</ele><time>2026-04-30T21:21:34.065Z</time></trkpt><trkpt lat="42.9389411" lon="6.4967314"><ele>0.0</ele><time>2026-04-30T21:21:35.065Z</time></trkpt><trkpt lat="42.9389954" lon="6.4968271"><ele>0.0</ele><time>2026-04-30T21:21:36.066Z</time></trkpt><trkpt lat="42.9391191" lon="6.4970312"><ele>0.0</ele><time>2026-04-30T21:21:38.066Z</time></trkpt><trkpt lat="42.9392149" lon="6.4972147"><ele>0.0</ele><time>2026-04-30T21:21:40.065Z</time></trkpt><trkpt lat="42.9392648" lon="6.4973066"><ele>0.0</ele><time>2026-04-30T21:21:41.065Z</time></trkpt><trkpt lat="42.9393105" lon="6.4973846"><ele>0.0</ele><time>2026-04-30T21:21:42.065Z</time></trkpt><trkpt lat="42.9393552" lon="6.4974573"><ele>0.0</ele><time>2026-04-30T21:21:43.066Z</time></trkpt><trkpt lat="42.939394" lon="6.4975477"><ele>0.0</ele><time>2026-04-30T21:21:44.065Z</time></trkpt><trkpt lat="42.9394308" lon="6.4976346"><ele>0.0</ele><time>2026-04-30T21:21:45.065Z</time></trkpt><trkpt lat="42.9394801" lon="6.4977074"><ele>0.0</ele><time>2026-04-30T21:21:46.066Z</time></trkpt><trkpt lat="42.939546" lon="6.4977776"><ele>0.0</ele><time>2026-04-30T21:21:47.065Z</time></trkpt><trkpt lat="42.9396035" lon="6.4978648"><ele>0.0</ele><time>2026-04-30T21:21:48.065Z</time></trkpt><trkpt lat="42.9396591" lon="6.4979444"><ele>0.0</ele><time>2026-04-30T21:21:49.065Z</time></trkpt><trkpt lat="42.939713" lon="6.4980314"><ele>0.0</ele><time>2026-04-30T21:21:50.065Z</time></trkpt><trkpt lat="42.9398809" lon="6.4982027"><ele>0.0</ele><time>2026-04-30T21:21:53.178Z</time></trkpt><trkpt lat="42.9399185" lon="6.4983605"><ele>0.0</ele><time>2026-04-30T21:21:54.083Z</time></trkpt><trkpt lat="42.9399492" lon="6.4984854"><ele>0.0</ele><time>2026-04-30T21:21:55.066Z</time></trkpt><trkpt lat="42.9399891" lon="6.498567"><ele>0.0</ele><time>2026-04-30T21:21:56.066Z</time></trkpt><trkpt lat="42.9400324" lon="6.498661"><ele>0.0</ele><time>2026-04-30T21:21:57.066Z</time></trkpt><trkpt lat="42.940077" lon="6.498735"><ele>0.0</ele><time>2026-04-30T21:21:58.066Z</time></trkpt><trkpt lat="42.9401317" lon="6.4988325"><ele>0.0</ele><time>2026-04-30T21:21:59.065Z</time></trkpt><trkpt lat="42.9402386" lon="6.4990205"><ele>0.0</ele><time>2026-04-30T21:22:01.065Z</time></trkpt><trkpt lat="42.9402931" lon="6.4991033"><ele>0.0</ele><time>2026-04-30T21:22:02.065Z</time></trkpt><trkpt lat="42.9403381" lon="6.4991997"><ele>0.0</ele><time>2026-04-30T21:22:03.066Z</time></trkpt><trkpt lat="42.9403886" lon="6.4992989"><ele>0.0</ele><time>2026-04-30T21:22:04.065Z</time></trkpt><trkpt lat="42.94044" lon="6.4994003"><ele>0.0</ele><time>2026-04-30T21:22:05.065Z</time></trkpt><trkpt lat="42.9405065" lon="6.4994849"><ele>0.0</ele><time>2026-04-30T21:22:06.065Z</time></trkpt><trkpt lat="42.9405563" lon="6.4995739"><ele>0.0</ele><time>2026-04-30T21:22:07.065Z</time></trkpt><trkpt lat="42.9406094" lon="6.4996681"><ele>0.0</ele><time>2026-04-30T21:22:08.066Z</time></trkpt><trkpt lat="42.9406646" lon="6.4997612"><ele>0.0</ele><time>2026-04-30T21:22:09.066Z</time></trkpt><trkpt lat="42.9407728" lon="6.4999324"><ele>0.0</ele><time>2026-04-30T21:22:11.065Z</time></trkpt><trkpt lat="42.9408273" lon="6.5000211"><ele>0.0</ele><time>2026-04-30T21:22:12.066Z</time></trkpt><trkpt lat="42.9408833" lon="6.5001155"><ele>0.0</ele><time>2026-04-30T21:22:13.066Z</time></trkpt><trkpt lat="42.94093" lon="6.5001978"><ele>0.0</ele><time>2026-04-30T21:22:14.066Z</time></trkpt><trkpt lat="42.9409751" lon="6.5002968"><ele>0.0</ele><time>2026-04-30T21:22:15.065Z</time></trkpt><trkpt lat="42.9410101" lon="6.500384"><ele>0.0</ele><time>2026-04-30T21:22:17.166Z</time></trkpt><trkpt lat="42.9410471" lon="6.5004812"><ele>0.0</ele><time>2026-04-30T21:22:18.172Z</time></trkpt><trkpt lat="42.9411226" lon="6.5006142"><ele>0.0</ele><time>2026-04-30T21:22:19.076Z</time></trkpt><trkpt lat="42.9411776" lon="6.5007512"><ele>0.0</ele><time>2026-04-30T21:22:20.082Z</time></trkpt><trkpt lat="42.9412998" lon="6.5009716"><ele>0.0</ele><time>2026-04-30T21:22:22.094Z</time></trkpt><trkpt lat="42.9413525" lon="6.5010523"><ele>0.0</ele><time>2026-04-30T21:22:23.065Z</time></trkpt><trkpt lat="42.9414016" lon="6.5011369"><ele>0.0</ele><time>2026-04-30T21:22:24.065Z</time></trkpt><trkpt lat="42.9414472" lon="6.5012278"><ele>0.0</ele><time>2026-04-30T21:22:25.066Z</time></trkpt><trkpt lat="42.9414962" lon="6.5013174"><ele>0.0</ele><time>2026-04-30T21:22:26.065Z</time></trkpt><trkpt lat="42.9415421" lon="6.501407"><ele>0.0</ele><time>2026-04-30T21:22:27.065Z</time></trkpt><trkpt lat="42.9415871" lon="6.5014971"><ele>0.0</ele><time>2026-04-30T21:22:28.065Z</time></trkpt><trkpt lat="42.9416304" lon="6.5015898"><ele>0.0</ele><time>2026-04-30T21:22:29.065Z</time></trkpt><trkpt lat="42.9416782" lon="6.5016874"><ele>0.0</ele><time>2026-04-30T21:22:30.066Z</time></trkpt><trkpt lat="42.9417209" lon="6.501783"><ele>0.0</ele><time>2026-04-30T21:22:31.066Z</time></trkpt><trkpt lat="42.9417725" lon="6.5018792"><ele>0.0</ele><time>2026-04-30T21:22:32.065Z</time></trkpt><trkpt lat="42.9418287" lon="6.5019749"><ele>0.0</ele><time>2026-04-30T21:22:33.065Z</time></trkpt><trkpt lat="42.9418785" lon="6.5020687"><ele>0.0</ele><time>2026-04-30T21:22:34.065Z</time></trkpt><trkpt lat="42.9419267" lon="6.5021537"><ele>0.0</ele><time>2026-04-30T21:22:35.065Z</time></trkpt><trkpt lat="42.9419836" lon="6.5022413"><ele>0.0</ele><time>2026-04-30T21:22:36.065Z</time></trkpt><trkpt lat="42.9420378" lon="6.5023349"><ele>0.0</ele><time>2026-04-30T21:22:37.065Z</time></trkpt><trkpt lat="42.9420828" lon="6.5024351"><ele>0.0</ele><time>2026-04-30T21:22:38.066Z</time></trkpt><trkpt lat="42.9421359" lon="6.5025267"><ele>0.0</ele><time>2026-04-30T21:22:39.065Z</time></trkpt><trkpt lat="42.942189" lon="6.5026298"><ele>0.0</ele><time>2026-04-30T21:22:40.065Z</time></trkpt><trkpt lat="42.94225" lon="6.502705"><ele>0.0</ele><time>2026-04-30T21:22:41.065Z</time></trkpt><trkpt lat="42.9424227" lon="6.5029744"><ele>0.0</ele><time>2026-04-30T21:22:44.065Z</time></trkpt><trkpt lat="42.9424714" lon="6.5030564"><ele>0.0</ele><time>2026-04-30T21:22:45.066Z</time></trkpt><trkpt lat="42.942521" lon="6.5031515"><ele>0.0</ele><time>2026-04-30T21:22:46.065Z</time></trkpt><trkpt lat="42.9425672" lon="6.5032543"><ele>0.0</ele><time>2026-04-30T21:22:47.065Z</time></trkpt><trkpt lat="42.9426111" lon="6.5033489"><ele>0.0</ele><time>2026-04-30T21:22:48.065Z</time></trkpt><trkpt lat="42.9426573" lon="6.5034447"><ele>0.0</ele><time>2026-04-30T21:22:49.066Z</time></trkpt><trkpt lat="42.9427125" lon="6.503541"><ele>0.0</ele><time>2026-04-30T21:22:50.065Z</time></trkpt><trkpt lat="42.9427608" lon="6.5036364"><ele>0.0</ele><time>2026-04-30T21:22:51.066Z</time></trkpt><trkpt lat="42.9428044" lon="6.50373"><ele>0.0</ele><time>2026-04-30T21:22:52.065Z</time></trkpt><trkpt lat="42.9428523" lon="6.5038261"><ele>0.0</ele><time>2026-04-30T21:22:53.066Z</time></trkpt><trkpt lat="42.9428935" lon="6.5039171"><ele>0.0</ele><time>2026-04-30T21:22:54.065Z</time></trkpt><trkpt lat="42.9429404" lon="6.5040161"><ele>0.0</ele><time>2026-04-30T21:22:55.066Z</time></trkpt><trkpt lat="42.9429856" lon="6.5041128"><ele>0.0</ele><time>2026-04-30T21:22:56.065Z</time></trkpt><trkpt lat="42.9430351" lon="6.5042005"><ele>0.0</ele><time>2026-04-30T21:22:57.065Z</time></trkpt><trkpt lat="42.9430838" lon="6.5042901"><ele>0.0</ele><time>2026-04-30T21:22:58.065Z</time></trkpt><trkpt lat="42.9431352" lon="6.5043771"><ele>0.0</ele><time>2026-04-30T21:22:59.066Z</time></trkpt><trkpt lat="42.9431856" lon="6.5044635"><ele>0.0</ele><time>2026-04-30T21:23:00.065Z</time></trkpt><trkpt lat="42.9432301" lon="6.5045556"><ele>0.0</ele><time>2026-04-30T21:23:01.066Z</time></trkpt><trkpt lat="42.9432793" lon="6.5046472"><ele>0.0</ele><time>2026-04-30T21:23:02.066Z</time></trkpt><trkpt lat="42.9433183" lon="6.5047345"><ele>0.0</ele><time>2026-04-30T21:23:03.066Z</time></trkpt><trkpt lat="42.9434157" lon="6.5049172"><ele>0.0</ele><time>2026-04-30T21:23:05.065Z</time></trkpt><trkpt lat="42.9434697" lon="6.5050014"><ele>0.0</ele><time>2026-04-30T21:23:06.065Z</time></trkpt><trkpt lat="42.9435161" lon="6.5050957"><ele>0.0</ele><time>2026-04-30T21:23:07.065Z</time></trkpt><trkpt lat="42.9435571" lon="6.5051944"><ele>0.0</ele><time>2026-04-30T21:23:08.065Z</time></trkpt><trkpt lat="42.9436055" lon="6.50529"><ele>0.0</ele><time>2026-04-30T21:23:09.066Z</time></trkpt><trkpt lat="42.9436639" lon="6.5053636"><ele>0.0</ele><time>2026-04-30T21:23:10.065Z</time></trkpt><trkpt lat="42.9437141" lon="6.5054624"><ele>0.0</ele><time>2026-04-30T21:23:11.065Z</time></trkpt><trkpt lat="42.9437698" lon="6.5055601"><ele>0.0</ele><time>2026-04-30T21:23:12.065Z</time></trkpt><trkpt lat="42.9438234" lon="6.5056526"><ele>0.0</ele><time>2026-04-30T21:23:13.065Z</time></trkpt><trkpt lat="42.9439333" lon="6.5058427"><ele>0.0</ele><time>2026-04-30T21:23:15.065Z</time></trkpt><trkpt lat="42.9439869" lon="6.5059233"><ele>0.0</ele><time>2026-04-30T21:23:16.065Z</time></trkpt><trkpt lat="42.9440344" lon="6.5060116"><ele>0.0</ele><time>2026-04-30T21:23:17.066Z</time></trkpt><trkpt lat="42.9440834" lon="6.506104"><ele>0.0</ele><time>2026-04-30T21:23:18.065Z</time></trkpt><trkpt lat="42.9441362" lon="6.5062115"><ele>0.0</ele><time>2026-04-30T21:23:19.065Z</time></trkpt><trkpt lat="42.9441894" lon="6.5063088"><ele>0.0</ele><time>2026-04-30T21:23:20.065Z</time></trkpt><trkpt lat="42.9442431" lon="6.5063968"><ele>0.0</ele><time>2026-04-30T21:23:21.065Z</time></trkpt><trkpt lat="42.9442992" lon="6.5065033"><ele>0.0</ele><time>2026-04-30T21:23:22.066Z</time></trkpt><trkpt lat="42.944353" lon="6.5066006"><ele>0.0</ele><time>2026-04-30T21:23:23.065Z</time></trkpt><trkpt lat="42.9444037" lon="6.5067056"><ele>0.0</ele><time>2026-04-30T21:23:24.066Z</time></trkpt><trkpt lat="42.9444887" lon="6.5068928"><ele>0.0</ele><time>2026-04-30T21:23:26.065Z</time></trkpt><trkpt lat="42.9445299" lon="6.5069889"><ele>0.0</ele><time>2026-04-30T21:23:27.065Z</time></trkpt><trkpt lat="42.9445702" lon="6.5070909"><ele>0.0</ele><time>2026-04-30T21:23:28.066Z</time></trkpt><trkpt lat="42.9446076" lon="6.5071888"><ele>0.0</ele><time>2026-04-30T21:23:29.065Z</time></trkpt><trkpt lat="42.944641" lon="6.5073095"><ele>0.0</ele><time>2026-04-30T21:23:30.066Z</time></trkpt><trkpt lat="42.944684" lon="6.5074072"><ele>0.0</ele><time>2026-04-30T21:23:31.065Z</time></trkpt><trkpt lat="42.9447269" lon="6.5075152"><ele>0.0</ele><time>2026-04-30T21:23:32.065Z</time></trkpt><trkpt lat="42.9447683" lon="6.5076227"><ele>0.0</ele><time>2026-04-30T21:23:33.066Z</time></trkpt><trkpt lat="42.9448132" lon="6.5077165"><ele>0.0</ele><time>2026-04-30T21:23:34.065Z</time></trkpt><trkpt lat="42.9448667" lon="6.5078025"><ele>0.0</ele><time>2026-04-30T21:23:35.066Z</time></trkpt><trkpt lat="42.9449131" lon="6.5078934"><ele>0.0</ele><time>2026-04-30T21:23:36.065Z</time></trkpt><trkpt lat="42.9449567" lon="6.5079791"><ele>0.0</ele><time>2026-04-30T21:23:37.066Z</time></trkpt><trkpt lat="42.9450081" lon="6.5080572"><ele>0.0</ele><time>2026-04-30T21:23:38.065Z</time></trkpt><trkpt lat="42.9450582" lon="6.5081439"><ele>0.0</ele><time>2026-04-30T21:23:39.066Z</time></trkpt><trkpt lat="42.9451068" lon="6.5082432"><ele>0.0</ele><time>2026-04-30T21:23:40.066Z</time></trkpt><trkpt lat="42.9451454" lon="6.5083516"><ele>0.0</ele><time>2026-04-30T21:23:41.065Z</time></trkpt><trkpt lat="42.9451889" lon="6.5084517"><ele>0.0</ele><time>2026-04-30T21:23:42.066Z</time></trkpt><trkpt lat="42.945238" lon="6.5085421"><ele>0.0</ele><time>2026-04-30T21:23:43.066Z</time></trkpt><trkpt lat="42.9453195" lon="6.5086237"><ele>0.0</ele><time>2026-04-30T21:23:44.065Z</time></trkpt><trkpt lat="42.9453866" lon="6.5087021"><ele>0.0</ele><time>2026-04-30T21:23:45.066Z</time></trkpt><trkpt lat="42.9455502" lon="6.5089571"><ele>0.0</ele><time>2026-04-30T21:23:48.066Z</time></trkpt><trkpt lat="42.9456092" lon="6.5090518"><ele>0.0</ele><time>2026-04-30T21:23:49.066Z</time></trkpt><trkpt lat="42.9456605" lon="6.5091442"><ele>0.0</ele><time>2026-04-30T21:23:50.065Z</time></trkpt><trkpt lat="42.9457104" lon="6.5092323"><ele>0.0</ele><time>2026-04-30T21:23:51.066Z</time></trkpt><trkpt lat="42.9457604" lon="6.5094498"><ele>0.0</ele><time>2026-04-30T21:23:54.069Z</time></trkpt><trkpt lat="42.9458686" lon="6.5096049"><ele>0.0</ele><time>2026-04-30T21:23:55.066Z</time></trkpt><trkpt lat="42.9459228" lon="6.509704"><ele>0.0</ele><time>2026-04-30T21:23:56.065Z</time></trkpt><trkpt lat="42.9459701" lon="6.5098023"><ele>0.0</ele><time>2026-04-30T21:23:57.065Z</time></trkpt><trkpt lat="42.9460195" lon="6.5099093"><ele>0.0</ele><time>2026-04-30T21:23:58.065Z</time></trkpt><trkpt lat="42.9460699" lon="6.510017"><ele>0.0</ele><time>2026-04-30T21:23:59.065Z</time></trkpt><trkpt lat="42.9461184" lon="6.5101131"><ele>0.0</ele><time>2026-04-30T21:24:00.065Z</time></trkpt><trkpt lat="42.9461613" lon="6.5102182"><ele>0.0</ele><time>2026-04-30T21:24:01.066Z</time></trkpt><trkpt lat="42.9462012" lon="6.5103193"><ele>0.0</ele><time>2026-04-30T21:24:02.065Z</time></trkpt><trkpt lat="42.9462455" lon="6.510417"><ele>0.0</ele><time>2026-04-30T21:24:03.066Z</time></trkpt><trkpt lat="42.9462902" lon="6.5105083"><ele>0.0</ele><time>2026-04-30T21:24:04.065Z</time></trkpt><trkpt lat="42.9463367" lon="6.5105896"><ele>0.0</ele><time>2026-04-30T21:24:05.065Z</time></trkpt><trkpt lat="42.9463877" lon="6.5106814"><ele>0.0</ele><time>2026-04-30T21:24:06.066Z</time></trkpt><trkpt lat="42.9464353" lon="6.5107722"><ele>0.0</ele><time>2026-04-30T21:24:07.065Z</time></trkpt><trkpt lat="42.9465518" lon="6.5109471"><ele>0.0</ele><time>2026-04-30T21:24:09.066Z</time></trkpt><trkpt lat="42.9466059" lon="6.5110364"><ele>0.0</ele><time>2026-04-30T21:24:10.066Z</time></trkpt><trkpt lat="42.9466618" lon="6.5111248"><ele>0.0</ele><time>2026-04-30T21:24:11.066Z</time></trkpt><trkpt lat="42.9467195" lon="6.5112021"><ele>0.0</ele><time>2026-04-30T21:24:12.065Z</time></trkpt><trkpt lat="42.9467762" lon="6.5112843"><ele>0.0</ele><time>2026-04-30T21:24:13.066Z</time></trkpt><trkpt lat="42.9468322" lon="6.5113698"><ele>0.0</ele><time>2026-04-30T21:24:14.066Z</time></trkpt><trkpt lat="42.9468862" lon="6.5114582"><ele>0.0</ele><time>2026-04-30T21:24:15.066Z</time></trkpt><trkpt lat="42.9469468" lon="6.5115476"><ele>0.0</ele><time>2026-04-30T21:24:16.065Z</time></trkpt><trkpt lat="42.9470005" lon="6.5116278"><ele>0.0</ele><time>2026-04-30T21:24:17.065Z</time></trkpt><trkpt lat="42.947095" lon="6.5117962"><ele>0.0</ele><time>2026-04-30T21:24:19.065Z</time></trkpt><trkpt lat="42.9471366" lon="6.5118859"><ele>0.0</ele><time>2026-04-30T21:24:20.065Z</time></trkpt><trkpt lat="42.9471766" lon="6.5119816"><ele>0.0</ele><time>2026-04-30T21:24:21.066Z</time></trkpt><trkpt lat="42.9472192" lon="6.5120726"><ele>0.0</ele><time>2026-04-30T21:24:22.066Z</time></trkpt><trkpt lat="42.9472621" lon="6.5121674"><ele>0.0</ele><time>2026-04-30T21:24:23.065Z</time></trkpt><trkpt lat="42.9473196" lon="6.5122554"><ele>0.0</ele><time>2026-04-30T21:24:24.065Z</time></trkpt><trkpt lat="42.9473751" lon="6.5123463"><ele>0.0</ele><time>2026-04-30T21:24:25.065Z</time></trkpt><trkpt lat="42.9474372" lon="6.5124364"><ele>0.0</ele><time>2026-04-30T21:24:26.065Z</time></trkpt><trkpt lat="42.9474936" lon="6.5125326"><ele>0.0</ele><time>2026-04-30T21:24:27.065Z</time></trkpt><trkpt lat="42.9475477" lon="6.512627"><ele>0.0</ele><time>2026-04-30T21:24:28.065Z</time></trkpt><trkpt lat="42.9476501" lon="6.5128255"><ele>0.0</ele><time>2026-04-30T21:24:30.065Z</time></trkpt><trkpt lat="42.9477012" lon="6.512922"><ele>0.0</ele><time>2026-04-30T21:24:31.066Z</time></trkpt><trkpt lat="42.9477527" lon="6.5130189"><ele>0.0</ele><time>2026-04-30T21:24:32.065Z</time></trkpt><trkpt lat="42.9478018" lon="6.5131094"><ele>0.0</ele><time>2026-04-30T21:24:33.065Z</time></trkpt><trkpt lat="42.94785" lon="6.5131979"><ele>0.0</ele><time>2026-04-30T21:24:34.065Z</time></trkpt><trkpt lat="42.9478967" lon="6.513285"><ele>0.0</ele><time>2026-04-30T21:24:35.065Z</time></trkpt><trkpt lat="42.9479277" lon="6.513379"><ele>0.0</ele><time>2026-04-30T21:24:36.066Z</time></trkpt><trkpt lat="42.9479602" lon="6.5134711"><ele>0.0</ele><time>2026-04-30T21:24:37.065Z</time></trkpt><trkpt lat="42.9480005" lon="6.5135642"><ele>0.0</ele><time>2026-04-30T21:24:38.065Z</time></trkpt><trkpt lat="42.9480391" lon="6.5136604"><ele>0.0</ele><time>2026-04-30T21:24:39.066Z</time></trkpt><trkpt lat="42.9480776" lon="6.5137572"><ele>0.0</ele><time>2026-04-30T21:24:40.066Z</time></trkpt><trkpt lat="42.9481664" lon="6.513778"><ele>0.0</ele><time>2026-04-30T21:24:43.163Z</time></trkpt><trkpt lat="42.9482671" lon="6.5141074"><ele>0.0</ele><time>2026-04-30T21:24:44.168Z</time></trkpt><trkpt lat="42.94833" lon="6.5142345"><ele>0.0</ele><time>2026-04-30T21:24:45.074Z</time></trkpt><trkpt lat="42.9484021" lon="6.5143284"><ele>0.0</ele><time>2026-04-30T21:24:46.079Z</time></trkpt><trkpt lat="42.948441" lon="6.5144047"><ele>0.0</ele><time>2026-04-30T21:24:47.065Z</time></trkpt><trkpt lat="42.9484683" lon="6.5144911"><ele>0.0</ele><time>2026-04-30T21:24:48.091Z</time></trkpt><trkpt lat="42.9485417" lon="6.5146103"><ele>0.0</ele><time>2026-04-30T21:24:49.096Z</time></trkpt><trkpt lat="42.9486066" lon="6.5146775"><ele>0.0</ele><time>2026-04-30T21:24:50.066Z</time></trkpt><trkpt lat="42.9487195" lon="6.514862"><ele>0.0</ele><time>2026-04-30T21:24:52.065Z</time></trkpt><trkpt lat="42.9487771" lon="6.5149553"><ele>0.0</ele><time>2026-04-30T21:24:53.066Z</time></trkpt><trkpt lat="42.9488384" lon="6.5150515"><ele>0.0</ele><time>2026-04-30T21:24:54.066Z</time></trkpt><trkpt lat="42.9488972" lon="6.5151486"><ele>0.0</ele><time>2026-04-30T21:24:55.065Z</time></trkpt><trkpt lat="42.9489483" lon="6.5152431"><ele>0.0</ele><time>2026-04-30T21:24:56.065Z</time></trkpt><trkpt lat="42.9489997" lon="6.5153291"><ele>0.0</ele><time>2026-04-30T21:24:57.065Z</time></trkpt><trkpt lat="42.9490499" lon="6.515418"><ele>0.0</ele><time>2026-04-30T21:24:58.066Z</time></trkpt><trkpt lat="42.9491027" lon="6.5155063"><ele>0.0</ele><time>2026-04-30T21:24:59.065Z</time></trkpt><trkpt lat="42.9491519" lon="6.5155888"><ele>0.0</ele><time>2026-04-30T21:25:00.065Z</time></trkpt><trkpt lat="42.9491957" lon="6.5156714"><ele>0.0</ele><time>2026-04-30T21:25:01.066Z</time></trkpt><trkpt lat="42.9492405" lon="6.5157574"><ele>0.0</ele><time>2026-04-30T21:25:02.065Z</time></trkpt><trkpt lat="42.9492899" lon="6.5158437"><ele>0.0</ele><time>2026-04-30T21:25:03.065Z</time></trkpt><trkpt lat="42.9493386" lon="6.5159276"><ele>0.0</ele><time>2026-04-30T21:25:04.065Z</time></trkpt><trkpt lat="42.9493855" lon="6.5160126"><ele>0.0</ele><time>2026-04-30T21:25:05.065Z</time></trkpt><trkpt lat="42.9494292" lon="6.5160963"><ele>0.0</ele><time>2026-04-30T21:25:06.065Z</time></trkpt><trkpt lat="42.9494769" lon="6.5161807"><ele>0.0</ele><time>2026-04-30T21:25:07.065Z</time></trkpt><trkpt lat="42.9495295" lon="6.5162734"><ele>0.0</ele><time>2026-04-30T21:25:08.066Z</time></trkpt><trkpt lat="42.9495816" lon="6.5163668"><ele>0.0</ele><time>2026-04-30T21:25:09.065Z</time></trkpt><trkpt lat="42.9496304" lon="6.5164557"><ele>0.0</ele><time>2026-04-30T21:25:10.065Z</time></trkpt><trkpt lat="42.9497207" lon="6.516638"><ele>0.0</ele><time>2026-04-30T21:25:12.065Z</time></trkpt><trkpt lat="42.9497668" lon="6.5167281"><ele>0.0</ele><time>2026-04-30T21:25:13.065Z</time></trkpt><trkpt lat="42.9498131" lon="6.5168163"><ele>0.0</ele><time>2026-04-30T21:25:14.065Z</time></trkpt><trkpt lat="42.9498613" lon="6.5169057"><ele>0.0</ele><time>2026-04-30T21:25:15.065Z</time></trkpt><trkpt lat="42.9499114" lon="6.5169972"><ele>0.0</ele><time>2026-04-30T21:25:16.066Z</time></trkpt><trkpt lat="42.9499615" lon="6.5170872"><ele>0.0</ele><time>2026-04-30T21:25:17.066Z</time></trkpt><trkpt lat="42.950013" lon="6.5171796"><ele>0.0</ele><time>2026-04-30T21:25:18.065Z</time></trkpt><trkpt lat="42.950059" lon="6.517272"><ele>0.0</ele><time>2026-04-30T21:25:19.066Z</time></trkpt><trkpt lat="42.9501082" lon="6.5173647"><ele>0.0</ele><time>2026-04-30T21:25:20.065Z</time></trkpt><trkpt lat="42.9501567" lon="6.5174547"><ele>0.0</ele><time>2026-04-30T21:25:21.065Z</time></trkpt><trkpt lat="42.9502571" lon="6.5176378"><ele>0.0</ele><time>2026-04-30T21:25:23.066Z</time></trkpt><trkpt lat="42.9503069" lon="6.5177298"><ele>0.0</ele><time>2026-04-30T21:25:24.065Z</time></trkpt><trkpt lat="42.9503543" lon="6.5178239"><ele>0.0</ele><time>2026-04-30T21:25:25.065Z</time></trkpt><trkpt lat="42.9503993" lon="6.5179122"><ele>0.0</ele><time>2026-04-30T21:25:26.066Z</time></trkpt><trkpt lat="42.9504471" lon="6.5179991"><ele>0.0</ele><time>2026-04-30T21:25:27.065Z</time></trkpt><trkpt lat="42.9504935" lon="6.5180832"><ele>0.0</ele><time>2026-04-30T21:25:28.065Z</time></trkpt><trkpt lat="42.9505388" lon="6.5181682"><ele>0.0</ele><time>2026-04-30T21:25:29.066Z</time></trkpt><trkpt lat="42.9505895" lon="6.5182573"><ele>0.0</ele><time>2026-04-30T21:25:30.065Z</time></trkpt><trkpt lat="42.9506329" lon="6.5183456"><ele>0.0</ele><time>2026-04-30T21:25:31.066Z</time></trkpt><trkpt lat="42.9507145" lon="6.5185265"><ele>0.0</ele><time>2026-04-30T21:25:33.065Z</time></trkpt><trkpt lat="42.9507609" lon="6.5186106"><ele>0.0</ele><time>2026-04-30T21:25:34.065Z</time></trkpt><trkpt lat="42.9508077" lon="6.5186951"><ele>0.0</ele><time>2026-04-30T21:25:35.065Z</time></trkpt><trkpt lat="42.9508556" lon="6.5187825"><ele>0.0</ele><time>2026-04-30T21:25:36.066Z</time></trkpt><trkpt lat="42.9509027" lon="6.518869"><ele>0.0</ele><time>2026-04-30T21:25:37.065Z</time></trkpt><trkpt lat="42.9509508" lon="6.5189601"><ele>0.0</ele><time>2026-04-30T21:25:38.065Z</time></trkpt><trkpt lat="42.9509962" lon="6.5190517"><ele>0.0</ele><time>2026-04-30T21:25:39.065Z</time></trkpt><trkpt lat="42.9510457" lon="6.519146"><ele>0.0</ele><time>2026-04-30T21:25:40.066Z</time></trkpt><trkpt lat="42.9510903" lon="6.5192398"><ele>0.0</ele><time>2026-04-30T21:25:41.065Z</time></trkpt><trkpt lat="42.9511404" lon="6.5193293"><ele>0.0</ele><time>2026-04-30T21:25:42.065Z</time></trkpt><trkpt lat="42.9511959" lon="6.5194212"><ele>0.0</ele><time>2026-04-30T21:25:43.065Z</time></trkpt><trkpt lat="42.951251" lon="6.5195"><ele>0.0</ele><time>2026-04-30T21:25:44.066Z</time></trkpt><trkpt lat="42.9513077" lon="6.5195911"><ele>0.0</ele><time>2026-04-30T21:25:45.065Z</time></trkpt><trkpt lat="42.9513671" lon="6.5196857"><ele>0.0</ele><time>2026-04-30T21:25:46.065Z</time></trkpt><trkpt lat="42.9514213" lon="6.519778"><ele>0.0</ele><time>2026-04-30T21:25:47.065Z</time></trkpt><trkpt lat="42.9514734" lon="6.5198696"><ele>0.0</ele><time>2026-04-30T21:25:48.065Z</time></trkpt><trkpt lat="42.9515278" lon="6.5199628"><ele>0.0</ele><time>2026-04-30T21:25:49.066Z</time></trkpt><trkpt lat="42.9515772" lon="6.5200563"><ele>0.0</ele><time>2026-04-30T21:25:50.065Z</time></trkpt><trkpt lat="42.9516284" lon="6.520151"><ele>0.0</ele><time>2026-04-30T21:25:51.066Z</time></trkpt><trkpt lat="42.95168" lon="6.5202417"><ele>0.0</ele><time>2026-04-30T21:25:52.065Z</time></trkpt><trkpt lat="42.9517273" lon="6.5203333"><ele>0.0</ele><time>2026-04-30T21:25:53.066Z</time></trkpt><trkpt lat="42.9518752" lon="6.5206063"><ele>0.0</ele><time>2026-04-30T21:25:56.066Z</time></trkpt><trkpt lat="42.95193" lon="6.5206976"><ele>0.0</ele><time>2026-04-30T21:25:57.065Z</time></trkpt><trkpt lat="42.951986" lon="6.5207954"><ele>0.0</ele><time>2026-04-30T21:25:58.066Z</time></trkpt><trkpt lat="42.9520359" lon="6.5208894"><ele>0.0</ele><time>2026-04-30T21:25:59.065Z</time></trkpt><trkpt lat="42.9520839" lon="6.5209817"><ele>0.0</ele><time>2026-04-30T21:26:00.066Z</time></trkpt><trkpt lat="42.9521323" lon="6.521076"><ele>0.0</ele><time>2026-04-30T21:26:01.066Z</time></trkpt><trkpt lat="42.9521788" lon="6.5211698"><ele>0.0</ele><time>2026-04-30T21:26:02.065Z</time></trkpt><trkpt lat="42.9522257" lon="6.521257"><ele>0.0</ele><time>2026-04-30T21:26:03.066Z</time></trkpt><trkpt lat="42.9522721" lon="6.5213381"><ele>0.0</ele><time>2026-04-30T21:26:04.065Z</time></trkpt><trkpt lat="42.9523244" lon="6.5214281"><ele>0.0</ele><time>2026-04-30T21:26:05.065Z</time></trkpt><trkpt lat="42.9523781" lon="6.521518"><ele>0.0</ele><time>2026-04-30T21:26:06.066Z</time></trkpt><trkpt lat="42.9524331" lon="6.52161"><ele>0.0</ele><time>2026-04-30T21:26:07.065Z</time></trkpt><trkpt lat="42.9524899" lon="6.5217035"><ele>0.0</ele><time>2026-04-30T21:26:08.066Z</time></trkpt><trkpt lat="42.9525425" lon="6.5218028"><ele>0.0</ele><time>2026-04-30T21:26:09.065Z</time></trkpt><trkpt lat="42.9525898" lon="6.5218975"><ele>0.0</ele><time>2026-04-30T21:26:10.066Z</time></trkpt><trkpt lat="42.9526375" lon="6.521995"><ele>0.0</ele><time>2026-04-30T21:26:11.066Z</time></trkpt><trkpt lat="42.9526885" lon="6.5220918"><ele>0.0</ele><time>2026-04-30T21:26:12.066Z</time></trkpt><trkpt lat="42.9527427" lon="6.5221863"><ele>0.0</ele><time>2026-04-30T21:26:13.066Z</time></trkpt><trkpt lat="42.9527951" lon="6.5222798"><ele>0.0</ele><time>2026-04-30T21:26:14.065Z</time></trkpt><trkpt lat="42.9528466" lon="6.5223717"><ele>0.0</ele><time>2026-04-30T21:26:15.065Z</time></trkpt><trkpt lat="42.952941" lon="6.5225562"><ele>0.0</ele><time>2026-04-30T21:26:17.065Z</time></trkpt><trkpt lat="42.9529827" lon="6.5226526"><ele>0.0</ele><time>2026-04-30T21:26:18.066Z</time></trkpt><trkpt lat="42.9530257" lon="6.5227464"><ele>0.0</ele><time>2026-04-30T21:26:19.065Z</time></trkpt><trkpt lat="42.9530772" lon="6.5228367"><ele>0.0</ele><time>2026-04-30T21:26:20.065Z</time></trkpt><trkpt lat="42.9531269" lon="6.5229346"><ele>0.0</ele><time>2026-04-30T21:26:21.065Z</time></trkpt><trkpt lat="42.9531786" lon="6.523023"><ele>0.0</ele><time>2026-04-30T21:26:22.065Z</time></trkpt><trkpt lat="42.9532329" lon="6.5231096"><ele>0.0</ele><time>2026-04-30T21:26:23.065Z</time></trkpt><trkpt lat="42.9532868" lon="6.5232064"><ele>0.0</ele><time>2026-04-30T21:26:24.066Z</time></trkpt><trkpt lat="42.9533403" lon="6.5232976"><ele>0.0</ele><time>2026-04-30T21:26:25.066Z</time></trkpt><trkpt lat="42.9534426" lon="6.5234798"><ele>0.0</ele><time>2026-04-30T21:26:27.065Z</time></trkpt><trkpt lat="42.9534912" lon="6.5235701"><ele>0.0</ele><time>2026-04-30T21:26:28.065Z</time></trkpt><trkpt lat="42.9535379" lon="6.5236543"><ele>0.0</ele><time>2026-04-30T21:26:29.065Z</time></trkpt><trkpt lat="42.9535811" lon="6.5237396"><ele>0.0</ele><time>2026-04-30T21:26:30.065Z</time></trkpt><trkpt lat="42.9536266" lon="6.5238278"><ele>0.0</ele><time>2026-04-30T21:26:31.065Z</time></trkpt><trkpt lat="42.9536717" lon="6.5239189"><ele>0.0</ele><time>2026-04-30T21:26:32.066Z</time></trkpt><trkpt lat="42.9537224" lon="6.5240134"><ele>0.0</ele><time>2026-04-30T21:26:33.065Z</time></trkpt><trkpt lat="42.95377" lon="6.5241029"><ele>0.0</ele><time>2026-04-30T21:26:34.066Z</time></trkpt><trkpt lat="42.9538196" lon="6.5241954"><ele>0.0</ele><time>2026-04-30T21:26:35.066Z</time></trkpt><trkpt lat="42.9538699" lon="6.5242856"><ele>0.0</ele><time>2026-04-30T21:26:36.065Z</time></trkpt><trkpt lat="42.9539608" lon="6.5244617"><ele>0.0</ele><time>2026-04-30T21:26:38.066Z</time></trkpt><trkpt lat="42.9540116" lon="6.5245489"><ele>0.0</ele><time>2026-04-30T21:26:39.066Z</time></trkpt><trkpt lat="42.9540634" lon="6.5246381"><ele>0.0</ele><time>2026-04-30T21:26:40.066Z</time></trkpt><trkpt lat="42.9541113" lon="6.5247264"><ele>0.0</ele><time>2026-04-30T21:26:41.066Z</time></trkpt><trkpt lat="42.9541594" lon="6.5248121"><ele>0.0</ele><time>2026-04-30T21:26:42.065Z</time></trkpt><trkpt lat="42.9542062" lon="6.5248995"><ele>0.0</ele><time>2026-04-30T21:26:43.066Z</time></trkpt><trkpt lat="42.9542499" lon="6.5249917"><ele>0.0</ele><time>2026-04-30T21:26:44.065Z</time></trkpt><trkpt lat="42.9542976" lon="6.5250823"><ele>0.0</ele><time>2026-04-30T21:26:45.065Z</time></trkpt><trkpt lat="42.9543489" lon="6.5251749"><ele>0.0</ele><time>2026-04-30T21:26:46.066Z</time></trkpt><trkpt lat="42.9543977" lon="6.5252667"><ele>0.0</ele><time>2026-04-30T21:26:47.065Z</time></trkpt><trkpt lat="42.9544414" lon="6.5253582"><ele>0.0</ele><time>2026-04-30T21:26:48.065Z</time></trkpt><trkpt lat="42.954486" lon="6.5254573"><ele>0.0</ele><time>2026-04-30T21:26:49.066Z</time></trkpt><trkpt lat="42.9545296" lon="6.5255588"><ele>0.0</ele><time>2026-04-30T21:26:50.065Z</time></trkpt><trkpt lat="42.9545744" lon="6.5256548"><ele>0.0</ele><time>2026-04-30T21:26:51.066Z</time></trkpt><trkpt lat="42.954624" lon="6.525753"><ele>0.0</ele><time>2026-04-30T21:26:52.065Z</time></trkpt><trkpt lat="42.9546684" lon="6.5258458"><ele>0.0</ele><time>2026-04-30T21:26:53.066Z</time></trkpt><trkpt lat="42.9547158" lon="6.5259357"><ele>0.0</ele><time>2026-04-30T21:26:54.066Z</time></trkpt><trkpt lat="42.9547594" lon="6.5260304"><ele>0.0</ele><time>2026-04-30T21:26:55.065Z</time></trkpt><trkpt lat="42.9548022" lon="6.5261334"><ele>0.0</ele><time>2026-04-30T21:26:56.066Z</time></trkpt><trkpt lat="42.9548558" lon="6.5262282"><ele>0.0</ele><time>2026-04-30T21:26:57.066Z</time></trkpt><trkpt lat="42.955008" lon="6.526525"><ele>0.0</ele><time>2026-04-30T21:27:00.066Z</time></trkpt><trkpt lat="42.95506" lon="6.5266189"><ele>0.0</ele><time>2026-04-30T21:27:01.065Z</time></trkpt><trkpt lat="42.9551106" lon="6.5267124"><ele>0.0</ele><time>2026-04-30T21:27:02.066Z</time></trkpt><trkpt lat="42.9551562" lon="6.5268075"><ele>0.0</ele><time>2026-04-30T21:27:03.066Z</time></trkpt><trkpt lat="42.9552036" lon="6.5269042"><ele>0.0</ele><time>2026-04-30T21:27:04.066Z</time></trkpt><trkpt lat="42.9552378" lon="6.5270106"><ele>0.0</ele><time>2026-04-30T21:27:05.065Z</time></trkpt><trkpt lat="42.9552766" lon="6.5271044"><ele>0.0</ele><time>2026-04-30T21:27:06.065Z</time></trkpt><trkpt lat="42.9553232" lon="6.5271944"><ele>0.0</ele><time>2026-04-30T21:27:07.066Z</time></trkpt><trkpt lat="42.9553617" lon="6.5272959"><ele>0.0</ele><time>2026-04-30T21:27:08.065Z</time></trkpt><trkpt lat="42.9554069" lon="6.5273909"><ele>0.0</ele><time>2026-04-30T21:27:09.065Z</time></trkpt><trkpt lat="42.9554575" lon="6.5274886"><ele>0.0</ele><time>2026-04-30T21:27:10.065Z</time></trkpt><trkpt lat="42.9555068" lon="6.5275869"><ele>0.0</ele><time>2026-04-30T21:27:11.065Z</time></trkpt><trkpt lat="42.9555566" lon="6.5276784"><ele>0.0</ele><time>2026-04-30T21:27:12.065Z</time></trkpt><trkpt lat="42.9555954" lon="6.5277781"><ele>0.0</ele><time>2026-04-30T21:27:13.064Z</time></trkpt><trkpt lat="42.9556451" lon="6.5278671"><ele>0.0</ele><time>2026-04-30T21:27:14.064Z</time></trkpt><trkpt lat="42.9556938" lon="6.5279495"><ele>0.0</ele><time>2026-04-30T21:27:15.064Z</time></trkpt><trkpt lat="42.955745" lon="6.5280319"><ele>0.0</ele><time>2026-04-30T21:27:16.065Z</time></trkpt><trkpt lat="42.9557952" lon="6.5281179"><ele>0.0</ele><time>2026-04-30T21:27:17.065Z</time></trkpt><trkpt lat="42.9558422" lon="6.5282088"><ele>0.0</ele><time>2026-04-30T21:27:18.064Z</time></trkpt><trkpt lat="42.9558888" lon="6.528302"><ele>0.0</ele><time>2026-04-30T21:27:19.064Z</time></trkpt><trkpt lat="42.9559865" lon="6.5284875"><ele>0.0</ele><time>2026-04-30T21:27:21.064Z</time></trkpt><trkpt lat="42.9560366" lon="6.5285824"><ele>0.0</ele><time>2026-04-30T21:27:22.065Z</time></trkpt><trkpt lat="42.9560896" lon="6.5286806"><ele>0.0</ele><time>2026-04-30T21:27:23.064Z</time></trkpt><trkpt lat="42.956143" lon="6.5287801"><ele>0.0</ele><time>2026-04-30T21:27:24.064Z</time></trkpt><trkpt lat="42.9561966" lon="6.5288756"><ele>0.0</ele><time>2026-04-30T21:27:25.065Z</time></trkpt><trkpt lat="42.9562484" lon="6.528971"><ele>0.0</ele><time>2026-04-30T21:27:26.065Z</time></trkpt><trkpt lat="42.9563016" lon="6.5290641"><ele>0.0</ele><time>2026-04-30T21:27:27.064Z</time></trkpt><trkpt lat="42.9563525" lon="6.529162"><ele>0.0</ele><time>2026-04-30T21:27:28.064Z</time></trkpt><trkpt lat="42.9564012" lon="6.5292603"><ele>0.0</ele><time>2026-04-30T21:27:29.064Z</time></trkpt><trkpt lat="42.9564489" lon="6.5293561"><ele>0.0</ele><time>2026-04-30T21:27:30.065Z</time></trkpt><trkpt lat="42.9565" lon="6.5294493"><ele>0.0</ele><time>2026-04-30T21:27:31.065Z</time></trkpt><trkpt lat="42.9565475" lon="6.5295424"><ele>0.0</ele><time>2026-04-30T21:27:32.064Z</time></trkpt><trkpt lat="42.9565883" lon="6.5296347"><ele>0.0</ele><time>2026-04-30T21:27:33.064Z</time></trkpt><trkpt lat="42.9566337" lon="6.5297248"><ele>0.0</ele><time>2026-04-30T21:27:34.064Z</time></trkpt><trkpt lat="42.9566849" lon="6.5298191"><ele>0.0</ele><time>2026-04-30T21:27:35.064Z</time></trkpt><trkpt lat="42.9567366" lon="6.5299144"><ele>0.0</ele><time>2026-04-30T21:27:36.065Z</time></trkpt><trkpt lat="42.9567902" lon="6.530008"><ele>0.0</ele><time>2026-04-30T21:27:37.064Z</time></trkpt><trkpt lat="42.9568433" lon="6.5301072"><ele>0.0</ele><time>2026-04-30T21:27:38.065Z</time></trkpt><trkpt lat="42.9568953" lon="6.5302029"><ele>0.0</ele><time>2026-04-30T21:27:39.064Z</time></trkpt><trkpt lat="42.9569469" lon="6.5302979"><ele>0.0</ele><time>2026-04-30T21:27:40.065Z</time></trkpt><trkpt lat="42.9570421" lon="6.530482"><ele>0.0</ele><time>2026-04-30T21:27:42.064Z</time></trkpt><trkpt lat="42.9570887" lon="6.5305687"><ele>0.0</ele><time>2026-04-30T21:27:43.065Z</time></trkpt><trkpt lat="42.9571397" lon="6.5306526"><ele>0.0</ele><time>2026-04-30T21:27:44.064Z</time></trkpt><trkpt lat="42.9571885" lon="6.5307368"><ele>0.0</ele><time>2026-04-30T21:27:45.064Z</time></trkpt><trkpt lat="42.957237" lon="6.5308264"><ele>0.0</ele><time>2026-04-30T21:27:46.064Z</time></trkpt><trkpt lat="42.9572839" lon="6.5309163"><ele>0.0</ele><time>2026-04-30T21:27:47.064Z</time></trkpt><trkpt lat="42.9573361" lon="6.5310096"><ele>0.0</ele><time>2026-04-30T21:27:48.065Z</time></trkpt><trkpt lat="42.957388" lon="6.531101"><ele>0.0</ele><time>2026-04-30T21:27:49.064Z</time></trkpt><trkpt lat="42.9574383" lon="6.5311926"><ele>0.0</ele><time>2026-04-30T21:27:50.064Z</time></trkpt><trkpt lat="42.9574884" lon="6.5312859"><ele>0.0</ele><time>2026-04-30T21:27:51.064Z</time></trkpt><trkpt lat="42.9575299" lon="6.5313777"><ele>0.0</ele><time>2026-04-30T21:27:52.065Z</time></trkpt><trkpt lat="42.9575838" lon="6.5314719"><ele>0.0</ele><time>2026-04-30T21:27:53.064Z</time></trkpt><trkpt lat="42.9576348" lon="6.5315689"><ele>0.0</ele><time>2026-04-30T21:27:54.065Z</time></trkpt><trkpt lat="42.9576875" lon="6.5316627"><ele>0.0</ele><time>2026-04-30T21:27:55.065Z</time></trkpt><trkpt lat="42.9577425" lon="6.5317572"><ele>0.0</ele><time>2026-04-30T21:27:56.065Z</time></trkpt><trkpt lat="42.957797" lon="6.5318552"><ele>0.0</ele><time>2026-04-30T21:27:57.065Z</time></trkpt><trkpt lat="42.9578502" lon="6.5319499"><ele>0.0</ele><time>2026-04-30T21:27:58.064Z</time></trkpt><trkpt lat="42.9578978" lon="6.5320425"><ele>0.0</ele><time>2026-04-30T21:27:59.064Z</time></trkpt><trkpt lat="42.9579469" lon="6.5321362"><ele>0.0</ele><time>2026-04-30T21:28:00.065Z</time></trkpt><trkpt lat="42.9580968" lon="6.5324118"><ele>0.0</ele><time>2026-04-30T21:28:03.064Z</time></trkpt><trkpt lat="42.9581459" lon="6.5325025"><ele>0.0</ele><time>2026-04-30T21:28:04.065Z</time></trkpt><trkpt lat="42.9581897" lon="6.5325947"><ele>0.0</ele><time>2026-04-30T21:28:05.065Z</time></trkpt><trkpt lat="42.9582358" lon="6.5326894"><ele>0.0</ele><time>2026-04-30T21:28:06.064Z</time></trkpt><trkpt lat="42.9582791" lon="6.5327847"><ele>0.0</ele><time>2026-04-30T21:28:07.064Z</time></trkpt><trkpt lat="42.9583264" lon="6.5328814"><ele>0.0</ele><time>2026-04-30T21:28:08.064Z</time></trkpt><trkpt lat="42.9583747" lon="6.5329747"><ele>0.0</ele><time>2026-04-30T21:28:09.064Z</time></trkpt><trkpt lat="42.9584284" lon="6.5330697"><ele>0.0</ele><time>2026-04-30T21:28:10.064Z</time></trkpt><trkpt lat="42.9584795" lon="6.5331615"><ele>0.0</ele><time>2026-04-30T21:28:11.064Z</time></trkpt><trkpt lat="42.9585366" lon="6.53325"><ele>0.0</ele><time>2026-04-30T21:28:12.065Z</time></trkpt><trkpt lat="42.9585926" lon="6.5333356"><ele>0.0</ele><time>2026-04-30T21:28:13.064Z</time></trkpt><trkpt lat="42.958646" lon="6.5334166"><ele>0.0</ele><time>2026-04-30T21:28:14.065Z</time></trkpt><trkpt lat="42.9586978" lon="6.5335046"><ele>0.0</ele><time>2026-04-30T21:28:15.064Z</time></trkpt><trkpt lat="42.9587512" lon="6.533592"><ele>0.0</ele><time>2026-04-30T21:28:16.064Z</time></trkpt><trkpt lat="42.9588031" lon="6.5336773"><ele>0.0</ele><time>2026-04-30T21:28:17.064Z</time></trkpt><trkpt lat="42.9588548" lon="6.5337637"><ele>0.0</ele><time>2026-04-30T21:28:18.065Z</time></trkpt><trkpt lat="42.9588924" lon="6.533843"><ele>0.0</ele><time>2026-04-30T21:28:19.064Z</time></trkpt><trkpt lat="42.9589388" lon="6.5339295"><ele>0.0</ele><time>2026-04-30T21:28:20.065Z</time></trkpt><trkpt lat="42.9589912" lon="6.5340208"><ele>0.0</ele><time>2026-04-30T21:28:21.064Z</time></trkpt><trkpt lat="42.9590405" lon="6.5341152"><ele>0.0</ele><time>2026-04-30T21:28:22.064Z</time></trkpt><trkpt lat="42.9591245" lon="6.5342945"><ele>0.0</ele><time>2026-04-30T21:28:24.065Z</time></trkpt><trkpt lat="42.9591764" lon="6.5343878"><ele>0.0</ele><time>2026-04-30T21:28:25.065Z</time></trkpt><trkpt lat="42.9592227" lon="6.5344717"><ele>0.0</ele><time>2026-04-30T21:28:26.065Z</time></trkpt><trkpt lat="42.9592779" lon="6.5345617"><ele>0.0</ele><time>2026-04-30T21:28:27.064Z</time></trkpt><trkpt lat="42.95934" lon="6.5346532"><ele>0.0</ele><time>2026-04-30T21:28:28.064Z</time></trkpt><trkpt lat="42.9593952" lon="6.5347431"><ele>0.0</ele><time>2026-04-30T21:28:29.064Z</time></trkpt><trkpt lat="42.9594527" lon="6.5348274"><ele>0.0</ele><time>2026-04-30T21:28:30.064Z</time></trkpt><trkpt lat="42.9594983" lon="6.5349067"><ele>0.0</ele><time>2026-04-30T21:28:31.065Z</time></trkpt><trkpt lat="42.9595393" lon="6.5349895"><ele>0.0</ele><time>2026-04-30T21:28:32.064Z</time></trkpt><trkpt lat="42.9595807" lon="6.5350761"><ele>0.0</ele><time>2026-04-30T21:28:33.065Z</time></trkpt><trkpt lat="42.9596319" lon="6.5351688"><ele>0.0</ele><time>2026-04-30T21:28:34.065Z</time></trkpt><trkpt lat="42.9596862" lon="6.5352612"><ele>0.0</ele><time>2026-04-30T21:28:35.064Z</time></trkpt><trkpt lat="42.9597387" lon="6.5353521"><ele>0.0</ele><time>2026-04-30T21:28:36.064Z</time></trkpt><trkpt lat="42.9597917" lon="6.5354472"><ele>0.0</ele><time>2026-04-30T21:28:37.064Z</time></trkpt><trkpt lat="42.9598449" lon="6.5355441"><ele>0.0</ele><time>2026-04-30T21:28:38.064Z</time></trkpt><trkpt lat="42.9598968" lon="6.535638"><ele>0.0</ele><time>2026-04-30T21:28:39.064Z</time></trkpt><trkpt lat="42.9599465" lon="6.5357345"><ele>0.0</ele><time>2026-04-30T21:28:40.064Z</time></trkpt><trkpt lat="42.9599951" lon="6.5358301"><ele>0.0</ele><time>2026-04-30T21:28:41.064Z</time></trkpt><trkpt lat="42.960045" lon="6.5359249"><ele>0.0</ele><time>2026-04-30T21:28:42.064Z</time></trkpt><trkpt lat="42.960098" lon="6.5360169"><ele>0.0</ele><time>2026-04-30T21:28:43.064Z</time></trkpt><trkpt lat="42.960202" lon="6.5362042"><ele>0.0</ele><time>2026-04-30T21:28:45.064Z</time></trkpt><trkpt lat="42.9602522" lon="6.5362995"><ele>0.0</ele><time>2026-04-30T21:28:46.065Z</time></trkpt><trkpt lat="42.9602992" lon="6.536392"><ele>0.0</ele><time>2026-04-30T21:28:47.064Z</time></trkpt><trkpt lat="42.9603472" lon="6.5364864"><ele>0.0</ele><time>2026-04-30T21:28:48.065Z</time></trkpt><trkpt lat="42.9603996" lon="6.536581"><ele>0.0</ele><time>2026-04-30T21:28:49.064Z</time></trkpt><trkpt lat="42.9604516" lon="6.5366743"><ele>0.0</ele><time>2026-04-30T21:28:50.065Z</time></trkpt><trkpt lat="42.9605006" lon="6.5367647"><ele>0.0</ele><time>2026-04-30T21:28:51.065Z</time></trkpt><trkpt lat="42.9605517" lon="6.5368552"><ele>0.0</ele><time>2026-04-30T21:28:52.064Z</time></trkpt><trkpt lat="42.9606074" lon="6.5369463"><ele>0.0</ele><time>2026-04-30T21:28:53.064Z</time></trkpt><trkpt lat="42.9606572" lon="6.5370354"><ele>0.0</ele><time>2026-04-30T21:28:54.064Z</time></trkpt><trkpt lat="42.9607069" lon="6.5371221"><ele>0.0</ele><time>2026-04-30T21:28:55.064Z</time></trkpt><trkpt lat="42.9607609" lon="6.5372116"><ele>0.0</ele><time>2026-04-30T21:28:56.064Z</time></trkpt><trkpt lat="42.9608146" lon="6.537297"><ele>0.0</ele><time>2026-04-30T21:28:57.064Z</time></trkpt><trkpt lat="42.9608696" lon="6.5373876"><ele>0.0</ele><time>2026-04-30T21:28:58.064Z</time></trkpt><trkpt lat="42.960922" lon="6.537478"><ele>0.0</ele><time>2026-04-30T21:28:59.065Z</time></trkpt><trkpt lat="42.9609678" lon="6.5375708"><ele>0.0</ele><time>2026-04-30T21:29:00.064Z</time></trkpt><trkpt lat="42.9610154" lon="6.5376644"><ele>0.0</ele><time>2026-04-30T21:29:01.064Z</time></trkpt><trkpt lat="42.9610666" lon="6.5377575"><ele>0.0</ele><time>2026-04-30T21:29:02.064Z</time></trkpt><trkpt lat="42.9611127" lon="6.5378469"><ele>0.0</ele><time>2026-04-30T21:29:03.065Z</time></trkpt><trkpt lat="42.9611633" lon="6.5379379"><ele>0.0</ele><time>2026-04-30T21:29:04.064Z</time></trkpt><trkpt lat="42.9612065" lon="6.5380293"><ele>0.0</ele><time>2026-04-30T21:29:05.064Z</time></trkpt><trkpt lat="42.9613104" lon="6.5382097"><ele>0.0</ele><time>2026-04-30T21:29:07.065Z</time></trkpt><trkpt lat="42.9613604" lon="6.5382983"><ele>0.0</ele><time>2026-04-30T21:29:08.064Z</time></trkpt><trkpt lat="42.9614496" lon="6.5384664"><ele>0.0</ele><time>2026-04-30T21:29:10.064Z</time></trkpt><trkpt lat="42.9615046" lon="6.5385626"><ele>0.0</ele><time>2026-04-30T21:29:11.065Z</time></trkpt><trkpt lat="42.9615525" lon="6.5386563"><ele>0.0</ele><time>2026-04-30T21:29:12.064Z</time></trkpt><trkpt lat="42.961599" lon="6.5387498"><ele>0.0</ele><time>2026-04-30T21:29:13.064Z</time></trkpt><trkpt lat="42.9616437" lon="6.5388438"><ele>0.0</ele><time>2026-04-30T21:29:14.064Z</time></trkpt><trkpt lat="42.9616931" lon="6.5389335"><ele>0.0</ele><time>2026-04-30T21:29:15.064Z</time></trkpt><trkpt lat="42.9617464" lon="6.5390217"><ele>0.0</ele><time>2026-04-30T21:29:16.065Z</time></trkpt><trkpt lat="42.9617956" lon="6.539109"><ele>0.0</ele><time>2026-04-30T21:29:17.064Z</time></trkpt><trkpt lat="42.961845" lon="6.5391997"><ele>0.0</ele><time>2026-04-30T21:29:18.065Z</time></trkpt><trkpt lat="42.961895" lon="6.53929"><ele>0.0</ele><time>2026-04-30T21:29:19.065Z</time></trkpt><trkpt lat="42.9619423" lon="6.5393804"><ele>0.0</ele><time>2026-04-30T21:29:20.064Z</time></trkpt><trkpt lat="42.9619915" lon="6.5394672"><ele>0.0</ele><time>2026-04-30T21:29:21.064Z</time></trkpt><trkpt lat="42.9620431" lon="6.5395565"><ele>0.0</ele><time>2026-04-30T21:29:22.064Z</time></trkpt><trkpt lat="42.9620976" lon="6.5396478"><ele>0.0</ele><time>2026-04-30T21:29:23.064Z</time></trkpt><trkpt lat="42.962154" lon="6.5397363"><ele>0.0</ele><time>2026-04-30T21:29:24.065Z</time></trkpt><trkpt lat="42.9622068" lon="6.5398247"><ele>0.0</ele><time>2026-04-30T21:29:25.064Z</time></trkpt><trkpt lat="42.962264" lon="6.5399165"><ele>0.0</ele><time>2026-04-30T21:29:26.065Z</time></trkpt><trkpt lat="42.9623613" lon="6.5400991"><ele>0.0</ele><time>2026-04-30T21:29:28.065Z</time></trkpt><trkpt lat="42.9624072" lon="6.5401958"><ele>0.0</ele><time>2026-04-30T21:29:29.065Z</time></trkpt><trkpt lat="42.9624494" lon="6.5402894"><ele>0.0</ele><time>2026-04-30T21:29:30.065Z</time></trkpt><trkpt lat="42.9624812" lon="6.540374"><ele>0.0</ele><time>2026-04-30T21:29:31.064Z</time></trkpt><trkpt lat="42.9625296" lon="6.5404648"><ele>0.0</ele><time>2026-04-30T21:29:32.064Z</time></trkpt><trkpt lat="42.9625727" lon="6.5405547"><ele>0.0</ele><time>2026-04-30T21:29:33.064Z</time></trkpt><trkpt lat="42.9626277" lon="6.5406507"><ele>0.0</ele><time>2026-04-30T21:29:34.065Z</time></trkpt><trkpt lat="42.9626814" lon="6.5407459"><ele>0.0</ele><time>2026-04-30T21:29:35.065Z</time></trkpt><trkpt lat="42.9627374" lon="6.5408425"><ele>0.0</ele><time>2026-04-30T21:29:36.065Z</time></trkpt><trkpt lat="42.9627913" lon="6.5409362"><ele>0.0</ele><time>2026-04-30T21:29:37.065Z</time></trkpt><trkpt lat="42.9628306" lon="6.5410269"><ele>0.0</ele><time>2026-04-30T21:29:38.064Z</time></trkpt><trkpt lat="42.962883" lon="6.5411179"><ele>0.0</ele><time>2026-04-30T21:29:39.064Z</time></trkpt><trkpt lat="42.9629351" lon="6.5412095"><ele>0.0</ele><time>2026-04-30T21:29:40.064Z</time></trkpt><trkpt lat="42.9629897" lon="6.5413055"><ele>0.0</ele><time>2026-04-30T21:29:41.064Z</time></trkpt><trkpt lat="42.9630401" lon="6.5413997"><ele>0.0</ele><time>2026-04-30T21:29:42.065Z</time></trkpt><trkpt lat="42.9630916" lon="6.541496"><ele>0.0</ele><time>2026-04-30T21:29:43.064Z</time></trkpt><trkpt lat="42.9631359" lon="6.5415861"><ele>0.0</ele><time>2026-04-30T21:29:44.065Z</time></trkpt><trkpt lat="42.9631831" lon="6.5416774"><ele>0.0</ele><time>2026-04-30T21:29:45.064Z</time></trkpt><trkpt lat="42.9632332" lon="6.5417678"><ele>0.0</ele><time>2026-04-30T21:29:46.064Z</time></trkpt><trkpt lat="42.9632875" lon="6.5418564"><ele>0.0</ele><time>2026-04-30T21:29:47.064Z</time></trkpt><trkpt lat="42.9633906" lon="6.5420261"><ele>0.0</ele><time>2026-04-30T21:29:49.064Z</time></trkpt><trkpt lat="42.9634388" lon="6.542108"><ele>0.0</ele><time>2026-04-30T21:29:50.064Z</time></trkpt><trkpt lat="42.9634841" lon="6.5421908"><ele>0.0</ele><time>2026-04-30T21:29:51.064Z</time></trkpt><trkpt lat="42.9635319" lon="6.5422752"><ele>0.0</ele><time>2026-04-30T21:29:52.064Z</time></trkpt><trkpt lat="42.9635729" lon="6.5423588"><ele>0.0</ele><time>2026-04-30T21:29:53.064Z</time></trkpt><trkpt lat="42.9636201" lon="6.5424419"><ele>0.0</ele><time>2026-04-30T21:29:54.065Z</time></trkpt><trkpt lat="42.9636657" lon="6.5425278"><ele>0.0</ele><time>2026-04-30T21:29:55.064Z</time></trkpt><trkpt lat="42.9637121" lon="6.5426189"><ele>0.0</ele><time>2026-04-30T21:29:56.065Z</time></trkpt><trkpt lat="42.9637644" lon="6.5427153"><ele>0.0</ele><time>2026-04-30T21:29:57.064Z</time></trkpt><trkpt lat="42.9638146" lon="6.5428112"><ele>0.0</ele><time>2026-04-30T21:29:58.065Z</time></trkpt><trkpt lat="42.9638607" lon="6.5429061"><ele>0.0</ele><time>2026-04-30T21:29:59.065Z</time></trkpt><trkpt lat="42.96391" lon="6.5430051"><ele>0.0</ele><time>2026-04-30T21:30:00.065Z</time></trkpt><trkpt lat="42.9639627" lon="6.5430983"><ele>0.0</ele><time>2026-04-30T21:30:01.065Z</time></trkpt><trkpt lat="42.9640117" lon="6.54319"><ele>0.0</ele><time>2026-04-30T21:30:02.064Z</time></trkpt><trkpt lat="42.9640572" lon="6.5432816"><ele>0.0</ele><time>2026-04-30T21:30:03.065Z</time></trkpt><trkpt lat="42.9641119" lon="6.5433746"><ele>0.0</ele><time>2026-04-30T21:30:04.064Z</time></trkpt><trkpt lat="42.9641574" lon="6.5434692"><ele>0.0</ele><time>2026-04-30T21:30:05.064Z</time></trkpt><trkpt lat="42.9642059" lon="6.5435612"><ele>0.0</ele><time>2026-04-30T21:30:06.065Z</time></trkpt><trkpt lat="42.9642575" lon="6.5436562"><ele>0.0</ele><time>2026-04-30T21:30:07.065Z</time></trkpt><trkpt lat="42.9643079" lon="6.5437496"><ele>0.0</ele><time>2026-04-30T21:30:08.065Z</time></trkpt><trkpt lat="42.9644646" lon="6.544016"><ele>0.0</ele><time>2026-04-30T21:30:11.064Z</time></trkpt><trkpt lat="42.9645207" lon="6.5441078"><ele>0.0</ele><time>2026-04-30T21:30:12.064Z</time></trkpt><trkpt lat="42.964573" lon="6.5442009"><ele>0.0</ele><time>2026-04-30T21:30:13.065Z</time></trkpt><trkpt lat="42.9646246" lon="6.544299"><ele>0.0</ele><time>2026-04-30T21:30:14.064Z</time></trkpt><trkpt lat="42.9646794" lon="6.5443942"><ele>0.0</ele><time>2026-04-30T21:30:15.065Z</time></trkpt><trkpt lat="42.9647328" lon="6.5444908"><ele>0.0</ele><time>2026-04-30T21:30:16.065Z</time></trkpt><trkpt lat="42.9647866" lon="6.5445862"><ele>0.0</ele><time>2026-04-30T21:30:17.064Z</time></trkpt><trkpt lat="42.9648383" lon="6.5446781"><ele>0.0</ele><time>2026-04-30T21:30:18.064Z</time></trkpt><trkpt lat="42.9648841" lon="6.5447665"><ele>0.0</ele><time>2026-04-30T21:30:19.064Z</time></trkpt><trkpt lat="42.9649303" lon="6.5448533"><ele>0.0</ele><time>2026-04-30T21:30:20.065Z</time></trkpt><trkpt lat="42.9649843" lon="6.5449401"><ele>0.0</ele><time>2026-04-30T21:30:21.065Z</time></trkpt><trkpt lat="42.965035" lon="6.5450284"><ele>0.0</ele><time>2026-04-30T21:30:22.065Z</time></trkpt><trkpt lat="42.9650893" lon="6.5451152"><ele>0.0</ele><time>2026-04-30T21:30:23.065Z</time></trkpt><trkpt lat="42.9651433" lon="6.5452075"><ele>0.0</ele><time>2026-04-30T21:30:24.064Z</time></trkpt><trkpt lat="42.9651953" lon="6.5452998"><ele>0.0</ele><time>2026-04-30T21:30:25.064Z</time></trkpt><trkpt lat="42.9652439" lon="6.5453943"><ele>0.0</ele><time>2026-04-30T21:30:26.065Z</time></trkpt><trkpt lat="42.9653006" lon="6.5454875"><ele>0.0</ele><time>2026-04-30T21:30:27.064Z</time></trkpt><trkpt lat="42.9653567" lon="6.5455784"><ele>0.0</ele><time>2026-04-30T21:30:28.065Z</time></trkpt><trkpt lat="42.9654059" lon="6.5456668"><ele>0.0</ele><time>2026-04-30T21:30:29.065Z</time></trkpt><trkpt lat="42.9654581" lon="6.5457607"><ele>0.0</ele><time>2026-04-30T21:30:30.065Z</time></trkpt><trkpt lat="42.9655544" lon="6.5459466"><ele>0.0</ele><time>2026-04-30T21:30:32.064Z</time></trkpt><trkpt lat="42.9656034" lon="6.5460399"><ele>0.0</ele><time>2026-04-30T21:30:33.064Z</time></trkpt><trkpt lat="42.9656492" lon="6.546133"><ele>0.0</ele><time>2026-04-30T21:30:34.065Z</time></trkpt><trkpt lat="42.9656954" lon="6.546223"><ele>0.0</ele><time>2026-04-30T21:30:35.064Z</time></trkpt><trkpt lat="42.9657431" lon="6.5463144"><ele>0.0</ele><time>2026-04-30T21:30:36.064Z</time></trkpt><trkpt lat="42.9657929" lon="6.5464053"><ele>0.0</ele><time>2026-04-30T21:30:37.065Z</time></trkpt><trkpt lat="42.9658419" lon="6.5464951"><ele>0.0</ele><time>2026-04-30T21:30:38.065Z</time></trkpt><trkpt lat="42.9658917" lon="6.5465851"><ele>0.0</ele><time>2026-04-30T21:30:39.065Z</time></trkpt><trkpt lat="42.9659432" lon="6.5466748"><ele>0.0</ele><time>2026-04-30T21:30:40.065Z</time></trkpt><trkpt lat="42.9659949" lon="6.5467664"><ele>0.0</ele><time>2026-04-30T21:30:41.064Z</time></trkpt><trkpt lat="42.9660509" lon="6.5468599"><ele>0.0</ele><time>2026-04-30T21:30:42.064Z</time></trkpt><trkpt lat="42.9661036" lon="6.5469522"><ele>0.0</ele><time>2026-04-30T21:30:43.065Z</time></trkpt><trkpt lat="42.966158" lon="6.5470405"><ele>0.0</ele><time>2026-04-30T21:30:44.064Z</time></trkpt><trkpt lat="42.9662102" lon="6.5471297"><ele>0.0</ele><time>2026-04-30T21:30:45.065Z</time></trkpt><trkpt lat="42.9662645" lon="6.5472203"><ele>0.0</ele><time>2026-04-30T21:30:46.064Z</time></trkpt><trkpt lat="42.966318" lon="6.5473116"><ele>0.0</ele><time>2026-04-30T21:30:47.065Z</time></trkpt><trkpt lat="42.9663682" lon="6.5474013"><ele>0.0</ele><time>2026-04-30T21:30:48.064Z</time></trkpt><trkpt lat="42.9664253" lon="6.5474895"><ele>0.0</ele><time>2026-04-30T21:30:49.064Z</time></trkpt><trkpt lat="42.9664738" lon="6.5475763"><ele>0.0</ele><time>2026-04-30T21:30:50.064Z</time></trkpt><trkpt lat="42.9665246" lon="6.5476673"><ele>0.0</ele><time>2026-04-30T21:30:51.065Z</time></trkpt><trkpt lat="42.9666238" lon="6.5478451"><ele>0.0</ele><time>2026-04-30T21:30:53.065Z</time></trkpt><trkpt lat="42.9666635" lon="6.5479356"><ele>0.0</ele><time>2026-04-30T21:30:54.064Z</time></trkpt><trkpt lat="42.9667073" lon="6.5480272"><ele>0.0</ele><time>2026-04-30T21:30:55.065Z</time></trkpt><trkpt lat="42.9667521" lon="6.5481171"><ele>0.0</ele><time>2026-04-30T21:30:56.065Z</time></trkpt><trkpt lat="42.9668084" lon="6.5482081"><ele>0.0</ele><time>2026-04-30T21:30:57.064Z</time></trkpt><trkpt lat="42.9668569" lon="6.5482973"><ele>0.0</ele><time>2026-04-30T21:30:58.065Z</time></trkpt><trkpt lat="42.9669121" lon="6.5483884"><ele>0.0</ele><time>2026-04-30T21:30:59.064Z</time></trkpt><trkpt lat="42.9669628" lon="6.5484773"><ele>0.0</ele><time>2026-04-30T21:31:00.065Z</time></trkpt><trkpt lat="42.967009" lon="6.5485665"><ele>0.0</ele><time>2026-04-30T21:31:01.064Z</time></trkpt><trkpt lat="42.9670599" lon="6.5486563"><ele>0.0</ele><time>2026-04-30T21:31:02.064Z</time></trkpt><trkpt lat="42.9671154" lon="6.548748"><ele>0.0</ele><time>2026-04-30T21:31:03.064Z</time></trkpt><trkpt lat="42.96717" lon="6.5488415"><ele>0.0</ele><time>2026-04-30T21:31:04.064Z</time></trkpt><trkpt lat="42.967223" lon="6.5489307"><ele>0.0</ele><time>2026-04-30T21:31:05.064Z</time></trkpt><trkpt lat="42.9672792" lon="6.5490159"><ele>0.0</ele><time>2026-04-30T21:31:06.064Z</time></trkpt><trkpt lat="42.9673308" lon="6.5491007"><ele>0.0</ele><time>2026-04-30T21:31:07.064Z</time></trkpt><trkpt lat="42.9673808" lon="6.5491853"><ele>0.0</ele><time>2026-04-30T21:31:08.065Z</time></trkpt><trkpt lat="42.9674289" lon="6.5492735"><ele>0.0</ele><time>2026-04-30T21:31:09.064Z</time></trkpt><trkpt lat="42.9674755" lon="6.5493633"><ele>0.0</ele><time>2026-04-30T21:31:10.064Z</time></trkpt><trkpt lat="42.9675221" lon="6.5494563"><ele>0.0</ele><time>2026-04-30T21:31:11.064Z</time></trkpt><trkpt lat="42.9675716" lon="6.549545"><ele>0.0</ele><time>2026-04-30T21:31:12.064Z</time></trkpt><trkpt lat="42.9676188" lon="6.5496347"><ele>0.0</ele><time>2026-04-30T21:31:13.064Z</time></trkpt><trkpt lat="42.9677606" lon="6.5499144"><ele>0.0</ele><time>2026-04-30T21:31:16.065Z</time></trkpt><trkpt lat="42.9678089" lon="6.5500045"><ele>0.0</ele><time>2026-04-30T21:31:17.064Z</time></trkpt><trkpt lat="42.9678597" lon="6.5500963"><ele>0.0</ele><time>2026-04-30T21:31:18.064Z</time></trkpt><trkpt lat="42.9679158" lon="6.5501869"><ele>0.0</ele><time>2026-04-30T21:31:19.064Z</time></trkpt><trkpt lat="42.9679669" lon="6.5502751"><ele>0.0</ele><time>2026-04-30T21:31:20.064Z</time></trkpt><trkpt lat="42.968017" lon="6.5503636"><ele>0.0</ele><time>2026-04-30T21:31:21.064Z</time></trkpt><trkpt lat="42.9680668" lon="6.5504522"><ele>0.0</ele><time>2026-04-30T21:31:22.064Z</time></trkpt><trkpt lat="42.9681108" lon="6.5505405"><ele>0.0</ele><time>2026-04-30T21:31:23.064Z</time></trkpt><trkpt lat="42.9681639" lon="6.5506284"><ele>0.0</ele><time>2026-04-30T21:31:24.065Z</time></trkpt><trkpt lat="42.9682112" lon="6.5507157"><ele>0.0</ele><time>2026-04-30T21:31:25.064Z</time></trkpt><trkpt lat="42.9682606" lon="6.5508078"><ele>0.0</ele><time>2026-04-30T21:31:26.065Z</time></trkpt><trkpt lat="42.9683019" lon="6.550903"><ele>0.0</ele><time>2026-04-30T21:31:27.064Z</time></trkpt><trkpt lat="42.968342" lon="6.5509933"><ele>0.0</ele><time>2026-04-30T21:31:28.065Z</time></trkpt><trkpt lat="42.9683885" lon="6.5510819"><ele>0.0</ele><time>2026-04-30T21:31:29.065Z</time></trkpt><trkpt lat="42.9684351" lon="6.5511733"><ele>0.0</ele><time>2026-04-30T21:31:30.064Z</time></trkpt><trkpt lat="42.9684816" lon="6.5512633"><ele>0.0</ele><time>2026-04-30T21:31:31.065Z</time></trkpt><trkpt lat="42.9685369" lon="6.551356"><ele>0.0</ele><time>2026-04-30T21:31:32.064Z</time></trkpt><trkpt lat="42.968597" lon="6.5514521"><ele>0.0</ele><time>2026-04-30T21:31:33.065Z</time></trkpt><trkpt lat="42.9686541" lon="6.5515475"><ele>0.0</ele><time>2026-04-30T21:31:34.064Z</time></trkpt><trkpt lat="42.968704" lon="6.5516394"><ele>0.0</ele><time>2026-04-30T21:31:35.065Z</time></trkpt><trkpt lat="42.9688033" lon="6.5518242"><ele>0.0</ele><time>2026-04-30T21:31:37.065Z</time></trkpt><trkpt lat="42.9688532" lon="6.5519148"><ele>0.0</ele><time>2026-04-30T21:31:38.065Z</time></trkpt><trkpt lat="42.968905" lon="6.5520046"><ele>0.0</ele><time>2026-04-30T21:31:39.064Z</time></trkpt><trkpt lat="42.9689554" lon="6.5520962"><ele>0.0</ele><time>2026-04-30T21:31:40.065Z</time></trkpt><trkpt lat="42.9689994" lon="6.552191"><ele>0.0</ele><time>2026-04-30T21:31:41.065Z</time></trkpt><trkpt lat="42.9690472" lon="6.5522814"><ele>0.0</ele><time>2026-04-30T21:31:42.065Z</time></trkpt><trkpt lat="42.9690939" lon="6.5523727"><ele>0.0</ele><time>2026-04-30T21:31:43.064Z</time></trkpt><trkpt lat="42.9691392" lon="6.5524616"><ele>0.0</ele><time>2026-04-30T21:31:44.065Z</time></trkpt><trkpt lat="42.9691866" lon="6.5525556"><ele>0.0</ele><time>2026-04-30T21:31:45.064Z</time></trkpt><trkpt lat="42.9692378" lon="6.5526523"><ele>0.0</ele><time>2026-04-30T21:31:46.064Z</time></trkpt><trkpt lat="42.9692838" lon="6.5527448"><ele>0.0</ele><time>2026-04-30T21:31:47.064Z</time></trkpt><trkpt lat="42.9693341" lon="6.5528319"><ele>0.0</ele><time>2026-04-30T21:31:48.064Z</time></trkpt><trkpt lat="42.9693859" lon="6.5529169"><ele>0.0</ele><time>2026-04-30T21:31:49.065Z</time></trkpt><trkpt lat="42.969435" lon="6.5530019"><ele>0.0</ele><time>2026-04-30T21:31:50.065Z</time></trkpt><trkpt lat="42.9694864" lon="6.5530926"><ele>0.0</ele><time>2026-04-30T21:31:51.064Z</time></trkpt><trkpt lat="42.9695395" lon="6.5531832"><ele>0.0</ele><time>2026-04-30T21:31:52.064Z</time></trkpt><trkpt lat="42.9695929" lon="6.5532704"><ele>0.0</ele><time>2026-04-30T21:31:53.064Z</time></trkpt><trkpt lat="42.9696449" lon="6.55336"><ele>0.0</ele><time>2026-04-30T21:31:54.065Z</time></trkpt><trkpt lat="42.9696953" lon="6.5534483"><ele>0.0</ele><time>2026-04-30T21:31:55.065Z</time></trkpt><trkpt lat="42.969745" lon="6.5535416"><ele>0.0</ele><time>2026-04-30T21:31:56.064Z</time></trkpt><trkpt lat="42.9698481" lon="6.5537261"><ele>0.0</ele><time>2026-04-30T21:31:58.065Z</time></trkpt><trkpt lat="42.9698981" lon="6.553814"><ele>0.0</ele><time>2026-04-30T21:31:59.065Z</time></trkpt><trkpt lat="42.969951" lon="6.5539094"><ele>0.0</ele><time>2026-04-30T21:32:00.065Z</time></trkpt><trkpt lat="42.9700017" lon="6.5540001"><ele>0.0</ele><time>2026-04-30T21:32:01.064Z</time></trkpt><trkpt lat="42.9700531" lon="6.5540898"><ele>0.0</ele><time>2026-04-30T21:32:02.064Z</time></trkpt><trkpt lat="42.9701062" lon="6.5541811"><ele>0.0</ele><time>2026-04-30T21:32:03.065Z</time></trkpt><trkpt lat="42.9701612" lon="6.5542745"><ele>0.0</ele><time>2026-04-30T21:32:04.064Z</time></trkpt><trkpt lat="42.9702191" lon="6.5543667"><ele>0.0</ele><time>2026-04-30T21:32:05.064Z</time></trkpt><trkpt lat="42.9702704" lon="6.5544572"><ele>0.0</ele><time>2026-04-30T21:32:06.064Z</time></trkpt><trkpt lat="42.9703201" lon="6.5545468"><ele>0.0</ele><time>2026-04-30T21:32:07.064Z</time></trkpt><trkpt lat="42.9703702" lon="6.5546375"><ele>0.0</ele><time>2026-04-30T21:32:08.064Z</time></trkpt><trkpt lat="42.9704188" lon="6.5547324"><ele>0.0</ele><time>2026-04-30T21:32:09.064Z</time></trkpt><trkpt lat="42.970467" lon="6.554829"><ele>0.0</ele><time>2026-04-30T21:32:10.064Z</time></trkpt><trkpt lat="42.9705196" lon="6.5549214"><ele>0.0</ele><time>2026-04-30T21:32:11.065Z</time></trkpt><trkpt lat="42.9705701" lon="6.5550129"><ele>0.0</ele><time>2026-04-30T21:32:12.065Z</time></trkpt><trkpt lat="42.9706202" lon="6.5551018"><ele>0.0</ele><time>2026-04-30T21:32:13.064Z</time></trkpt><trkpt lat="42.9706687" lon="6.5551886"><ele>0.0</ele><time>2026-04-30T21:32:14.064Z</time></trkpt><trkpt lat="42.9707213" lon="6.5552763"><ele>0.0</ele><time>2026-04-30T21:32:15.064Z</time></trkpt><trkpt lat="42.9707704" lon="6.5553629"><ele>0.0</ele><time>2026-04-30T21:32:16.065Z</time></trkpt><trkpt lat="42.9708185" lon="6.5554527"><ele>0.0</ele><time>2026-04-30T21:32:17.065Z</time></trkpt><trkpt lat="42.9709498" lon="6.5557062"><ele>0.0</ele><time>2026-04-30T21:32:20.064Z</time></trkpt><trkpt lat="42.9709998" lon="6.5557926"><ele>0.0</ele><time>2026-04-30T21:32:21.065Z</time></trkpt><trkpt lat="42.9710566" lon="6.555884"><ele>0.0</ele><time>2026-04-30T21:32:22.065Z</time></trkpt><trkpt lat="42.971111" lon="6.5559779"><ele>0.0</ele><time>2026-04-30T21:32:23.064Z</time></trkpt><trkpt lat="42.971163" lon="6.5560731"><ele>0.0</ele><time>2026-04-30T21:32:24.064Z</time></trkpt><trkpt lat="42.9712103" lon="6.5561569"><ele>0.0</ele><time>2026-04-30T21:32:25.064Z</time></trkpt><trkpt lat="42.9712584" lon="6.5562437"><ele>0.0</ele><time>2026-04-30T21:32:26.064Z</time></trkpt><trkpt lat="42.9713096" lon="6.5563275"><ele>0.0</ele><time>2026-04-30T21:32:27.064Z</time></trkpt><trkpt lat="42.9713686" lon="6.5564149"><ele>0.0</ele><time>2026-04-30T21:32:28.064Z</time></trkpt><trkpt lat="42.9714204" lon="6.5565032"><ele>0.0</ele><time>2026-04-30T21:32:29.064Z</time></trkpt><trkpt lat="42.9714703" lon="6.5565976"><ele>0.0</ele><time>2026-04-30T21:32:30.065Z</time></trkpt><trkpt lat="42.9715158" lon="6.5566883"><ele>0.0</ele><time>2026-04-30T21:32:31.065Z</time></trkpt><trkpt lat="42.9715634" lon="6.5567808"><ele>0.0</ele><time>2026-04-30T21:32:32.065Z</time></trkpt><trkpt lat="42.9716088" lon="6.5568745"><ele>0.0</ele><time>2026-04-30T21:32:33.064Z</time></trkpt><trkpt lat="42.9716611" lon="6.5569723"><ele>0.0</ele><time>2026-04-30T21:32:34.065Z</time></trkpt><trkpt lat="42.971713" lon="6.5570633"><ele>0.0</ele><time>2026-04-30T21:32:35.064Z</time></trkpt><trkpt lat="42.9717634" lon="6.5571632"><ele>0.0</ele><time>2026-04-30T21:32:36.065Z</time></trkpt><trkpt lat="42.9718122" lon="6.5572589"><ele>0.0</ele><time>2026-04-30T21:32:37.064Z</time></trkpt><trkpt lat="42.9718677" lon="6.5573567"><ele>0.0</ele><time>2026-04-30T21:32:38.065Z</time></trkpt><trkpt lat="42.9719207" lon="6.557457"><ele>0.0</ele><time>2026-04-30T21:32:39.064Z</time></trkpt><trkpt lat="42.972025" lon="6.5576497"><ele>0.0</ele><time>2026-04-30T21:32:41.065Z</time></trkpt><trkpt lat="42.9720772" lon="6.5577399"><ele>0.0</ele><time>2026-04-30T21:32:42.064Z</time></trkpt><trkpt lat="42.9721256" lon="6.557831"><ele>0.0</ele><time>2026-04-30T21:32:43.065Z</time></trkpt><trkpt lat="42.9721756" lon="6.5579243"><ele>0.0</ele><time>2026-04-30T21:32:44.065Z</time></trkpt><trkpt lat="42.972227" lon="6.5580138"><ele>0.0</ele><time>2026-04-30T21:32:45.064Z</time></trkpt><trkpt lat="42.9722772" lon="6.5580998"><ele>0.0</ele><time>2026-04-30T21:32:46.065Z</time></trkpt><trkpt lat="42.9723154" lon="6.5581939"><ele>0.0</ele><time>2026-04-30T21:32:47.064Z</time></trkpt><trkpt lat="42.9723593" lon="6.5582932"><ele>0.0</ele><time>2026-04-30T21:32:48.064Z</time></trkpt><trkpt lat="42.9724041" lon="6.5583874"><ele>0.0</ele><time>2026-04-30T21:32:49.065Z</time></trkpt><trkpt lat="42.9724476" lon="6.5584779"><ele>0.0</ele><time>2026-04-30T21:32:50.065Z</time></trkpt><trkpt lat="42.9725014" lon="6.5585658"><ele>0.0</ele><time>2026-04-30T21:32:51.064Z</time></trkpt><trkpt lat="42.9725506" lon="6.5586563"><ele>0.0</ele><time>2026-04-30T21:32:52.065Z</time></trkpt><trkpt lat="42.9725975" lon="6.5587494"><ele>0.0</ele><time>2026-04-30T21:32:53.065Z</time></trkpt><trkpt lat="42.9726454" lon="6.5588438"><ele>0.0</ele><time>2026-04-30T21:32:54.064Z</time></trkpt><trkpt lat="42.9726964" lon="6.5589362"><ele>0.0</ele><time>2026-04-30T21:32:55.064Z</time></trkpt><trkpt lat="42.9727479" lon="6.5590251"><ele>0.0</ele><time>2026-04-30T21:32:56.064Z</time></trkpt><trkpt lat="42.9727981" lon="6.5591216"><ele>0.0</ele><time>2026-04-30T21:32:57.064Z</time></trkpt><trkpt lat="42.9728467" lon="6.5592194"><ele>0.0</ele><time>2026-04-30T21:32:58.065Z</time></trkpt><trkpt lat="42.972898" lon="6.5593143"><ele>0.0</ele><time>2026-04-30T21:32:59.064Z</time></trkpt><trkpt lat="42.9729527" lon="6.5594081"><ele>0.0</ele><time>2026-04-30T21:33:00.064Z</time></trkpt><trkpt lat="42.9730578" lon="6.5595862"><ele>0.0</ele><time>2026-04-30T21:33:02.065Z</time></trkpt><trkpt lat="42.9731083" lon="6.5596659"><ele>0.0</ele><time>2026-04-30T21:33:03.064Z</time></trkpt><trkpt lat="42.9731614" lon="6.5597508"><ele>0.0</ele><time>2026-04-30T21:33:04.064Z</time></trkpt><trkpt lat="42.9732152" lon="6.5598501"><ele>0.0</ele><time>2026-04-30T21:33:05.064Z</time></trkpt><trkpt lat="42.9732671" lon="6.559946"><ele>0.0</ele><time>2026-04-30T21:33:06.064Z</time></trkpt><trkpt lat="42.9733183" lon="6.5600397"><ele>0.0</ele><time>2026-04-30T21:33:07.064Z</time></trkpt><trkpt lat="42.9733741" lon="6.5601284"><ele>0.0</ele><time>2026-04-30T21:33:08.064Z</time></trkpt><trkpt lat="42.9734281" lon="6.5602211"><ele>0.0</ele><time>2026-04-30T21:33:09.065Z</time></trkpt><trkpt lat="42.9734758" lon="6.5603114"><ele>0.0</ele><time>2026-04-30T21:33:10.065Z</time></trkpt><trkpt lat="42.9735252" lon="6.5604102"><ele>0.0</ele><time>2026-04-30T21:33:11.065Z</time></trkpt><trkpt lat="42.9735766" lon="6.5605042"><ele>0.0</ele><time>2026-04-30T21:33:12.065Z</time></trkpt><trkpt lat="42.973628" lon="6.5605903"><ele>0.0</ele><time>2026-04-30T21:33:13.064Z</time></trkpt><trkpt lat="42.973674" lon="6.5606871"><ele>0.0</ele><time>2026-04-30T21:33:14.064Z</time></trkpt><trkpt lat="42.9737207" lon="6.5607741"><ele>0.0</ele><time>2026-04-30T21:33:15.065Z</time></trkpt><trkpt lat="42.9737658" lon="6.5608596"><ele>0.0</ele><time>2026-04-30T21:33:16.065Z</time></trkpt><trkpt lat="42.9738093" lon="6.5609513"><ele>0.0</ele><time>2026-04-30T21:33:17.065Z</time></trkpt><trkpt lat="42.9738568" lon="6.5610399"><ele>0.0</ele><time>2026-04-30T21:33:18.065Z</time></trkpt><trkpt lat="42.9739121" lon="6.5611329"><ele>0.0</ele><time>2026-04-30T21:33:19.065Z</time></trkpt><trkpt lat="42.9739647" lon="6.5612266"><ele>0.0</ele><time>2026-04-30T21:33:20.064Z</time></trkpt><trkpt lat="42.9740148" lon="6.5613141"><ele>0.0</ele><time>2026-04-30T21:33:21.064Z</time></trkpt><trkpt lat="42.9741716" lon="6.5615841"><ele>0.0</ele><time>2026-04-30T21:33:24.064Z</time></trkpt><trkpt lat="42.9742217" lon="6.561676"><ele>0.0</ele><time>2026-04-30T21:33:25.065Z</time></trkpt><trkpt lat="42.9742743" lon="6.5617694"><ele>0.0</ele><time>2026-04-30T21:33:26.064Z</time></trkpt><trkpt lat="42.9743311" lon="6.5618639"><ele>0.0</ele><time>2026-04-30T21:33:27.064Z</time></trkpt><trkpt lat="42.9743849" lon="6.5619595"><ele>0.0</ele><time>2026-04-30T21:33:28.065Z</time></trkpt><trkpt lat="42.9744343" lon="6.5620503"><ele>0.0</ele><time>2026-04-30T21:33:29.064Z</time></trkpt><trkpt lat="42.9744863" lon="6.5621358"><ele>0.0</ele><time>2026-04-30T21:33:30.065Z</time></trkpt><trkpt lat="42.9745368" lon="6.5622294"><ele>0.0</ele><time>2026-04-30T21:33:31.064Z</time></trkpt><trkpt lat="42.9745867" lon="6.5623199"><ele>0.0</ele><time>2026-04-30T21:33:32.065Z</time></trkpt><trkpt lat="42.9746354" lon="6.5624126"><ele>0.0</ele><time>2026-04-30T21:33:33.064Z</time></trkpt><trkpt lat="42.9746865" lon="6.5625033"><ele>0.0</ele><time>2026-04-30T21:33:34.064Z</time></trkpt><trkpt lat="42.9747382" lon="6.5625924"><ele>0.0</ele><time>2026-04-30T21:33:35.064Z</time></trkpt><trkpt lat="42.9747917" lon="6.5626843"><ele>0.0</ele><time>2026-04-30T21:33:36.065Z</time></trkpt><trkpt lat="42.9748419" lon="6.5627777"><ele>0.0</ele><time>2026-04-30T21:33:37.065Z</time></trkpt><trkpt lat="42.9748917" lon="6.5628696"><ele>0.0</ele><time>2026-04-30T21:33:38.064Z</time></trkpt><trkpt lat="42.974943" lon="6.5629632"><ele>0.0</ele><time>2026-04-30T21:33:39.065Z</time></trkpt><trkpt lat="42.9749949" lon="6.5630505"><ele>0.0</ele><time>2026-04-30T21:33:40.065Z</time></trkpt><trkpt lat="42.9750437" lon="6.5631399"><ele>0.0</ele><time>2026-04-30T21:33:41.064Z</time></trkpt><trkpt lat="42.9750936" lon="6.5632201"><ele>0.0</ele><time>2026-04-30T21:33:42.065Z</time></trkpt><trkpt lat="42.9751406" lon="6.5633084"><ele>0.0</ele><time>2026-04-30T21:33:43.064Z</time></trkpt><trkpt lat="42.9752447" lon="6.563484"><ele>0.0</ele><time>2026-04-30T21:33:45.065Z</time></trkpt><trkpt lat="42.9752953" lon="6.5635788"><ele>0.0</ele><time>2026-04-30T21:33:46.065Z</time></trkpt><trkpt lat="42.9753397" lon="6.5636738"><ele>0.0</ele><time>2026-04-30T21:33:47.064Z</time></trkpt><trkpt lat="42.9753844" lon="6.5637647"><ele>0.0</ele><time>2026-04-30T21:33:48.064Z</time></trkpt><trkpt lat="42.9754276" lon="6.5638545"><ele>0.0</ele><time>2026-04-30T21:33:49.064Z</time></trkpt><trkpt lat="42.9754736" lon="6.5639496"><ele>0.0</ele><time>2026-04-30T21:33:50.064Z</time></trkpt><trkpt lat="42.9755216" lon="6.5640497"><ele>0.0</ele><time>2026-04-30T21:33:51.065Z</time></trkpt><trkpt lat="42.9755759" lon="6.5641442"><ele>0.0</ele><time>2026-04-30T21:33:52.064Z</time></trkpt><trkpt lat="42.9756312" lon="6.5642409"><ele>0.0</ele><time>2026-04-30T21:33:53.065Z</time></trkpt><trkpt lat="42.9757335" lon="6.5644153"><ele>0.0</ele><time>2026-04-30T21:33:55.064Z</time></trkpt><trkpt lat="42.9757864" lon="6.5645064"><ele>0.0</ele><time>2026-04-30T21:33:56.064Z</time></trkpt><trkpt lat="42.9758409" lon="6.5646024"><ele>0.0</ele><time>2026-04-30T21:33:57.064Z</time></trkpt><trkpt lat="42.9758921" lon="6.564699"><ele>0.0</ele><time>2026-04-30T21:33:58.064Z</time></trkpt><trkpt lat="42.9759413" lon="6.5647948"><ele>0.0</ele><time>2026-04-30T21:33:59.065Z</time></trkpt><trkpt lat="42.9759971" lon="6.5648885"><ele>0.0</ele><time>2026-04-30T21:34:00.065Z</time></trkpt><trkpt lat="42.9760541" lon="6.5649801"><ele>0.0</ele><time>2026-04-30T21:34:01.064Z</time></trkpt><trkpt lat="42.9761081" lon="6.5650746"><ele>0.0</ele><time>2026-04-30T21:34:02.065Z</time></trkpt><trkpt lat="42.9761557" lon="6.5651636"><ele>0.0</ele><time>2026-04-30T21:34:03.064Z</time></trkpt><trkpt lat="42.9762042" lon="6.5652502"><ele>0.0</ele><time>2026-04-30T21:34:04.064Z</time></trkpt><trkpt lat="42.9763173" lon="6.5654309"><ele>0.0</ele><time>2026-04-30T21:34:06.064Z</time></trkpt><trkpt lat="42.9763729" lon="6.5655201"><ele>0.0</ele><time>2026-04-30T21:34:07.064Z</time></trkpt><trkpt lat="42.9764265" lon="6.5656126"><ele>0.0</ele><time>2026-04-30T21:34:08.065Z</time></trkpt><trkpt lat="42.9764755" lon="6.5657062"><ele>0.0</ele><time>2026-04-30T21:34:09.065Z</time></trkpt><trkpt lat="42.9765223" lon="6.5657986"><ele>0.0</ele><time>2026-04-30T21:34:10.065Z</time></trkpt><trkpt lat="42.9765646" lon="6.5658904"><ele>0.0</ele><time>2026-04-30T21:34:11.065Z</time></trkpt><trkpt lat="42.9766117" lon="6.5659835"><ele>0.0</ele><time>2026-04-30T21:34:12.065Z</time></trkpt><trkpt lat="42.9766605" lon="6.5660811"><ele>0.0</ele><time>2026-04-30T21:34:13.065Z</time></trkpt><trkpt lat="42.97671" lon="6.5661739"><ele>0.0</ele><time>2026-04-30T21:34:14.065Z</time></trkpt><trkpt lat="42.9767558" lon="6.5662637"><ele>0.0</ele><time>2026-04-30T21:34:15.064Z</time></trkpt><trkpt lat="42.9768077" lon="6.5663479"><ele>0.0</ele><time>2026-04-30T21:34:16.065Z</time></trkpt><trkpt lat="42.9768552" lon="6.5664366"><ele>0.0</ele><time>2026-04-30T21:34:17.064Z</time></trkpt><trkpt lat="42.9769062" lon="6.5665247"><ele>0.0</ele><time>2026-04-30T21:34:18.065Z</time></trkpt><trkpt lat="42.9769612" lon="6.5666175"><ele>0.0</ele><time>2026-04-30T21:34:19.063Z</time></trkpt><trkpt lat="42.9770162" lon="6.5667107"><ele>0.0</ele><time>2026-04-30T21:34:20.064Z</time></trkpt><trkpt lat="42.97707" lon="6.5668025"><ele>0.0</ele><time>2026-04-30T21:34:21.064Z</time></trkpt><trkpt lat="42.9771219" lon="6.5668945"><ele>0.0</ele><time>2026-04-30T21:34:22.063Z</time></trkpt><trkpt lat="42.9771707" lon="6.566979"><ele>0.0</ele><time>2026-04-30T21:34:23.064Z</time></trkpt><trkpt lat="42.9772188" lon="6.5670712"><ele>0.0</ele><time>2026-04-30T21:34:24.063Z</time></trkpt><trkpt lat="42.9772587" lon="6.5671641"><ele>0.0</ele><time>2026-04-30T21:34:25.064Z</time></trkpt><trkpt lat="42.9773045" lon="6.5672567"><ele>0.0</ele><time>2026-04-30T21:34:26.063Z</time></trkpt><trkpt lat="42.9774169" lon="6.5674371"><ele>0.0</ele><time>2026-04-30T21:34:28.063Z</time></trkpt><trkpt lat="42.9774688" lon="6.5675252"><ele>0.0</ele><time>2026-04-30T21:34:29.064Z</time></trkpt><trkpt lat="42.97752" lon="6.5676149"><ele>0.0</ele><time>2026-04-30T21:34:30.064Z</time></trkpt><trkpt lat="42.9775687" lon="6.5677021"><ele>0.0</ele><time>2026-04-30T21:34:31.063Z</time></trkpt><trkpt lat="42.9776169" lon="6.5677929"><ele>0.0</ele><time>2026-04-30T21:34:32.063Z</time></trkpt><trkpt lat="42.9776668" lon="6.5678891"><ele>0.0</ele><time>2026-04-30T21:34:33.063Z</time></trkpt><trkpt lat="42.9777139" lon="6.56798"><ele>0.0</ele><time>2026-04-30T21:34:34.063Z</time></trkpt><trkpt lat="42.9777634" lon="6.568071"><ele>0.0</ele><time>2026-04-30T21:34:35.063Z</time></trkpt><trkpt lat="42.9778178" lon="6.5681654"><ele>0.0</ele><time>2026-04-30T21:34:36.063Z</time></trkpt><trkpt lat="42.9778704" lon="6.5682582"><ele>0.0</ele><time>2026-04-30T21:34:37.063Z</time></trkpt><trkpt lat="42.9779219" lon="6.5683554"><ele>0.0</ele><time>2026-04-30T21:34:38.063Z</time></trkpt><trkpt lat="42.9779733" lon="6.568456"><ele>0.0</ele><time>2026-04-30T21:34:39.064Z</time></trkpt><trkpt lat="42.9780249" lon="6.5685522"><ele>0.0</ele><time>2026-04-30T21:34:40.064Z</time></trkpt><trkpt lat="42.9780683" lon="6.5686425"><ele>0.0</ele><time>2026-04-30T21:34:41.063Z</time></trkpt><trkpt lat="42.9781098" lon="6.5687338"><ele>0.0</ele><time>2026-04-30T21:34:42.063Z</time></trkpt><trkpt lat="42.9781544" lon="6.5688248"><ele>0.0</ele><time>2026-04-30T21:34:43.064Z</time></trkpt><trkpt lat="42.9782051" lon="6.5689138"><ele>0.0</ele><time>2026-04-30T21:34:44.063Z</time></trkpt><trkpt lat="42.9782598" lon="6.569003"><ele>0.0</ele><time>2026-04-30T21:34:45.063Z</time></trkpt><trkpt lat="42.9783124" lon="6.5690961"><ele>0.0</ele><time>2026-04-30T21:34:46.063Z</time></trkpt><trkpt lat="42.9783637" lon="6.5691771"><ele>0.0</ele><time>2026-04-30T21:34:47.063Z</time></trkpt><trkpt lat="42.9784783" lon="6.5693484"><ele>0.0</ele><time>2026-04-30T21:34:49.064Z</time></trkpt><trkpt lat="42.9785244" lon="6.5694386"><ele>0.0</ele><time>2026-04-30T21:34:50.063Z</time></trkpt><trkpt lat="42.9785749" lon="6.5695314"><ele>0.0</ele><time>2026-04-30T21:34:51.064Z</time></trkpt><trkpt lat="42.978622" lon="6.5696224"><ele>0.0</ele><time>2026-04-30T21:34:52.063Z</time></trkpt><trkpt lat="42.97867" lon="6.5697151"><ele>0.0</ele><time>2026-04-30T21:34:53.064Z</time></trkpt><trkpt lat="42.9787199" lon="6.5698041"><ele>0.0</ele><time>2026-04-30T21:34:54.063Z</time></trkpt><trkpt lat="42.9787807" lon="6.5698869"><ele>0.0</ele><time>2026-04-30T21:34:55.063Z</time></trkpt><trkpt lat="42.9788285" lon="6.5699728"><ele>0.0</ele><time>2026-04-30T21:34:56.064Z</time></trkpt><trkpt lat="42.9788781" lon="6.5700667"><ele>0.0</ele><time>2026-04-30T21:34:57.064Z</time></trkpt><trkpt lat="42.9789725" lon="6.570244"><ele>0.0</ele><time>2026-04-30T21:34:59.063Z</time></trkpt><trkpt lat="42.9790231" lon="6.5703287"><ele>0.0</ele><time>2026-04-30T21:35:00.063Z</time></trkpt><trkpt lat="42.979075" lon="6.570419"><ele>0.0</ele><time>2026-04-30T21:35:01.064Z</time></trkpt><trkpt lat="42.9791236" lon="6.57051"><ele>0.0</ele><time>2026-04-30T21:35:02.063Z</time></trkpt><trkpt lat="42.9791633" lon="6.570586"><ele>0.0</ele><time>2026-04-30T21:35:03.064Z</time></trkpt><trkpt lat="42.9792059" lon="6.5706669"><ele>0.0</ele><time>2026-04-30T21:35:04.063Z</time></trkpt><trkpt lat="42.9792511" lon="6.5707468"><ele>0.0</ele><time>2026-04-30T21:35:05.064Z</time></trkpt><trkpt lat="42.9793104" lon="6.5708431"><ele>0.0</ele><time>2026-04-30T21:35:06.064Z</time></trkpt><trkpt lat="42.979362" lon="6.5709329"><ele>0.0</ele><time>2026-04-30T21:35:07.064Z</time></trkpt><trkpt lat="42.9794144" lon="6.5710272"><ele>0.0</ele><time>2026-04-30T21:35:08.064Z</time></trkpt><trkpt lat="42.9795172" lon="6.5712231"><ele>0.0</ele><time>2026-04-30T21:35:10.064Z</time></trkpt><trkpt lat="42.9795713" lon="6.5713134"><ele>0.0</ele><time>2026-04-30T21:35:11.064Z</time></trkpt><trkpt lat="42.9796218" lon="6.5714089"><ele>0.0</ele><time>2026-04-30T21:35:12.063Z</time></trkpt><trkpt lat="42.9796712" lon="6.5715014"><ele>0.0</ele><time>2026-04-30T21:35:13.064Z</time></trkpt><trkpt lat="42.979723" lon="6.5715941"><ele>0.0</ele><time>2026-04-30T21:35:14.063Z</time></trkpt><trkpt lat="42.9797724" lon="6.5716905"><ele>0.0</ele><time>2026-04-30T21:35:15.063Z</time></trkpt><trkpt lat="42.9798203" lon="6.5717815"><ele>0.0</ele><time>2026-04-30T21:35:16.064Z</time></trkpt><trkpt lat="42.9798715" lon="6.571873"><ele>0.0</ele><time>2026-04-30T21:35:17.063Z</time></trkpt><trkpt lat="42.979925" lon="6.5719704"><ele>0.0</ele><time>2026-04-30T21:35:18.064Z</time></trkpt><trkpt lat="42.9799739" lon="6.572067"><ele>0.0</ele><time>2026-04-30T21:35:19.063Z</time></trkpt><trkpt lat="42.9800177" lon="6.5721538"><ele>0.0</ele><time>2026-04-30T21:35:20.064Z</time></trkpt><trkpt lat="42.9800675" lon="6.5722426"><ele>0.0</ele><time>2026-04-30T21:35:21.064Z</time></trkpt><trkpt lat="42.9801179" lon="6.5723427"><ele>0.0</ele><time>2026-04-30T21:35:22.063Z</time></trkpt><trkpt lat="42.9801667" lon="6.5724433"><ele>0.0</ele><time>2026-04-30T21:35:23.063Z</time></trkpt><trkpt lat="42.9802165" lon="6.5725419"><ele>0.0</ele><time>2026-04-30T21:35:24.063Z</time></trkpt><trkpt lat="42.9802681" lon="6.5726358"><ele>0.0</ele><time>2026-04-30T21:35:25.063Z</time></trkpt><trkpt lat="42.9803183" lon="6.5727338"><ele>0.0</ele><time>2026-04-30T21:35:26.064Z</time></trkpt><trkpt lat="42.9803699" lon="6.5728266"><ele>0.0</ele><time>2026-04-30T21:35:27.063Z</time></trkpt><trkpt lat="42.9804201" lon="6.5729141"><ele>0.0</ele><time>2026-04-30T21:35:28.063Z</time></trkpt><trkpt lat="42.98047" lon="6.5730035"><ele>0.0</ele><time>2026-04-30T21:35:29.063Z</time></trkpt><trkpt lat="42.9806282" lon="6.5732701"><ele>0.0</ele><time>2026-04-30T21:35:32.064Z</time></trkpt><trkpt lat="42.9806845" lon="6.5733554"><ele>0.0</ele><time>2026-04-30T21:35:33.063Z</time></trkpt><trkpt lat="42.98074" lon="6.5734419"><ele>0.0</ele><time>2026-04-30T21:35:34.063Z</time></trkpt><trkpt lat="42.9807931" lon="6.5735276"><ele>0.0</ele><time>2026-04-30T21:35:35.063Z</time></trkpt><trkpt lat="42.980841" lon="6.573615"><ele>0.0</ele><time>2026-04-30T21:35:36.064Z</time></trkpt><trkpt lat="42.9808914" lon="6.573702"><ele>0.0</ele><time>2026-04-30T21:35:37.063Z</time></trkpt><trkpt lat="42.9809417" lon="6.5737895"><ele>0.0</ele><time>2026-04-30T21:35:38.063Z</time></trkpt><trkpt lat="42.9809918" lon="6.5738796"><ele>0.0</ele><time>2026-04-30T21:35:39.064Z</time></trkpt><trkpt lat="42.981046" lon="6.5739712"><ele>0.0</ele><time>2026-04-30T21:35:40.063Z</time></trkpt><trkpt lat="42.9810954" lon="6.574063"><ele>0.0</ele><time>2026-04-30T21:35:41.064Z</time></trkpt><trkpt lat="42.9811454" lon="6.5741545"><ele>0.0</ele><time>2026-04-30T21:35:42.063Z</time></trkpt><trkpt lat="42.9811877" lon="6.5742548"><ele>0.0</ele><time>2026-04-30T21:35:43.063Z</time></trkpt><trkpt lat="42.9812351" lon="6.574345"><ele>0.0</ele><time>2026-04-30T21:35:44.063Z</time></trkpt><trkpt lat="42.9812817" lon="6.5744366"><ele>0.0</ele><time>2026-04-30T21:35:45.063Z</time></trkpt><trkpt lat="42.9813324" lon="6.5745326"><ele>0.0</ele><time>2026-04-30T21:35:46.063Z</time></trkpt><trkpt lat="42.9813889" lon="6.5746292"><ele>0.0</ele><time>2026-04-30T21:35:47.064Z</time></trkpt><trkpt lat="42.9814399" lon="6.574732"><ele>0.0</ele><time>2026-04-30T21:35:48.063Z</time></trkpt><trkpt lat="42.9814912" lon="6.5748294"><ele>0.0</ele><time>2026-04-30T21:35:49.064Z</time></trkpt><trkpt lat="42.9815457" lon="6.5749236"><ele>0.0</ele><time>2026-04-30T21:35:50.063Z</time></trkpt><trkpt lat="42.9815991" lon="6.575014"><ele>0.0</ele><time>2026-04-30T21:35:51.063Z</time></trkpt><trkpt lat="42.9817128" lon="6.5751965"><ele>0.0</ele><time>2026-04-30T21:35:53.063Z</time></trkpt><trkpt lat="42.981768" lon="6.5752885"><ele>0.0</ele><time>2026-04-30T21:35:54.063Z</time></trkpt><trkpt lat="42.9818229" lon="6.5753801"><ele>0.0</ele><time>2026-04-30T21:35:55.063Z</time></trkpt><trkpt lat="42.9818708" lon="6.5754713"><ele>0.0</ele><time>2026-04-30T21:35:56.064Z</time></trkpt><trkpt lat="42.9819173" lon="6.575556"><ele>0.0</ele><time>2026-04-30T21:35:57.063Z</time></trkpt><trkpt lat="42.9819695" lon="6.575645"><ele>0.0</ele><time>2026-04-30T21:35:58.064Z</time></trkpt><trkpt lat="42.9820188" lon="6.5757319"><ele>0.0</ele><time>2026-04-30T21:35:59.063Z</time></trkpt><trkpt lat="42.9820658" lon="6.5758181"><ele>0.0</ele><time>2026-04-30T21:36:00.063Z</time></trkpt><trkpt lat="42.9821153" lon="6.5759049"><ele>0.0</ele><time>2026-04-30T21:36:01.064Z</time></trkpt><trkpt lat="42.9822126" lon="6.5760828"><ele>0.0</ele><time>2026-04-30T21:36:03.063Z</time></trkpt><trkpt lat="42.9822604" lon="6.5761714"><ele>0.0</ele><time>2026-04-30T21:36:04.063Z</time></trkpt><trkpt lat="42.9823075" lon="6.5762612"><ele>0.0</ele><time>2026-04-30T21:36:05.063Z</time></trkpt><trkpt lat="42.9823609" lon="6.5763514"><ele>0.0</ele><time>2026-04-30T21:36:06.063Z</time></trkpt><trkpt lat="42.982415" lon="6.5764414"><ele>0.0</ele><time>2026-04-30T21:36:07.063Z</time></trkpt><trkpt lat="42.9824626" lon="6.5765301"><ele>0.0</ele><time>2026-04-30T21:36:08.063Z</time></trkpt><trkpt lat="42.9825103" lon="6.5766203"><ele>0.0</ele><time>2026-04-30T21:36:09.063Z</time></trkpt><trkpt lat="42.9825583" lon="6.5767105"><ele>0.0</ele><time>2026-04-30T21:36:10.064Z</time></trkpt><trkpt lat="42.9826041" lon="6.5767989"><ele>0.0</ele><time>2026-04-30T21:36:11.063Z</time></trkpt><trkpt lat="42.9826548" lon="6.5768925"><ele>0.0</ele><time>2026-04-30T21:36:12.063Z</time></trkpt><trkpt lat="42.982761" lon="6.5770768"><ele>0.0</ele><time>2026-04-30T21:36:14.063Z</time></trkpt><trkpt lat="42.9828173" lon="6.5771675"><ele>0.0</ele><time>2026-04-30T21:36:15.063Z</time></trkpt><trkpt lat="42.9828718" lon="6.5772554"><ele>0.0</ele><time>2026-04-30T21:36:16.064Z</time></trkpt><trkpt lat="42.9829277" lon="6.5773402"><ele>0.0</ele><time>2026-04-30T21:36:17.064Z</time></trkpt><trkpt lat="42.9829775" lon="6.5774265"><ele>0.0</ele><time>2026-04-30T21:36:18.064Z</time></trkpt><trkpt lat="42.9830284" lon="6.5775147"><ele>0.0</ele><time>2026-04-30T21:36:19.063Z</time></trkpt><trkpt lat="42.9830756" lon="6.5776034"><ele>0.0</ele><time>2026-04-30T21:36:20.064Z</time></trkpt><trkpt lat="42.9831269" lon="6.5777014"><ele>0.0</ele><time>2026-04-30T21:36:21.064Z</time></trkpt><trkpt lat="42.9831775" lon="6.577794"><ele>0.0</ele><time>2026-04-30T21:36:22.063Z</time></trkpt><trkpt lat="42.9832308" lon="6.5778818"><ele>0.0</ele><time>2026-04-30T21:36:23.064Z</time></trkpt><trkpt lat="42.9832814" lon="6.5779743"><ele>0.0</ele><time>2026-04-30T21:36:24.063Z</time></trkpt><trkpt lat="42.9833349" lon="6.5780649"><ele>0.0</ele><time>2026-04-30T21:36:25.063Z</time></trkpt><trkpt lat="42.9833883" lon="6.5781527"><ele>0.0</ele><time>2026-04-30T21:36:26.063Z</time></trkpt><trkpt lat="42.9834475" lon="6.5782413"><ele>0.0</ele><time>2026-04-30T21:36:27.063Z</time></trkpt><trkpt lat="42.9835096" lon="6.5783317"><ele>0.0</ele><time>2026-04-30T21:36:28.064Z</time></trkpt><trkpt lat="42.9835626" lon="6.5784236"><ele>0.0</ele><time>2026-04-30T21:36:29.063Z</time></trkpt><trkpt lat="42.9836076" lon="6.5785111"><ele>0.0</ele><time>2026-04-30T21:36:30.063Z</time></trkpt><trkpt lat="42.9836489" lon="6.5786021"><ele>0.0</ele><time>2026-04-30T21:36:31.063Z</time></trkpt><trkpt lat="42.9836959" lon="6.5786847"><ele>0.0</ele><time>2026-04-30T21:36:32.064Z</time></trkpt><trkpt lat="42.9837425" lon="6.5787687"><ele>0.0</ele><time>2026-04-30T21:36:33.064Z</time></trkpt><trkpt lat="42.9837875" lon="6.5788537"><ele>0.0</ele><time>2026-04-30T21:36:34.064Z</time></trkpt><trkpt lat="42.9839474" lon="6.5791203"><ele>0.0</ele><time>2026-04-30T21:36:37.064Z</time></trkpt><trkpt lat="42.9840004" lon="6.5792085"><ele>0.0</ele><time>2026-04-30T21:36:38.064Z</time></trkpt><trkpt lat="42.9840526" lon="6.5792998"><ele>0.0</ele><time>2026-04-30T21:36:39.064Z</time></trkpt><trkpt lat="42.9841038" lon="6.5793863"><ele>0.0</ele><time>2026-04-30T21:36:40.064Z</time></trkpt><trkpt lat="42.9841509" lon="6.579468"><ele>0.0</ele><time>2026-04-30T21:36:41.064Z</time></trkpt><trkpt lat="42.9842015" lon="6.5795564"><ele>0.0</ele><time>2026-04-30T21:36:42.064Z</time></trkpt><trkpt lat="42.9842504" lon="6.5796447"><ele>0.0</ele><time>2026-04-30T21:36:43.064Z</time></trkpt><trkpt lat="42.9843046" lon="6.579736"><ele>0.0</ele><time>2026-04-30T21:36:44.063Z</time></trkpt><trkpt lat="42.984361" lon="6.5798287"><ele>0.0</ele><time>2026-04-30T21:36:45.064Z</time></trkpt><trkpt lat="42.9844133" lon="6.579921"><ele>0.0</ele><time>2026-04-30T21:36:46.063Z</time></trkpt><trkpt lat="42.9844647" lon="6.5800125"><ele>0.0</ele><time>2026-04-30T21:36:47.063Z</time></trkpt><trkpt lat="42.9845107" lon="6.5801028"><ele>0.0</ele><time>2026-04-30T21:36:48.064Z</time></trkpt><trkpt lat="42.9845543" lon="6.5801928"><ele>0.0</ele><time>2026-04-30T21:36:49.063Z</time></trkpt><trkpt lat="42.9846025" lon="6.5802834"><ele>0.0</ele><time>2026-04-30T21:36:50.063Z</time></trkpt><trkpt lat="42.9846546" lon="6.5803702"><ele>0.0</ele><time>2026-04-30T21:36:51.064Z</time></trkpt><trkpt lat="42.9847007" lon="6.5804582"><ele>0.0</ele><time>2026-04-30T21:36:52.063Z</time></trkpt><trkpt lat="42.9847487" lon="6.5805476"><ele>0.0</ele><time>2026-04-30T21:36:53.063Z</time></trkpt><trkpt lat="42.9847971" lon="6.5806409"><ele>0.0</ele><time>2026-04-30T21:36:54.063Z</time></trkpt><trkpt lat="42.9848452" lon="6.5807304"><ele>0.0</ele><time>2026-04-30T21:36:55.063Z</time></trkpt><trkpt lat="42.9848935" lon="6.58082"><ele>0.0</ele><time>2026-04-30T21:36:56.063Z</time></trkpt><trkpt lat="42.9849887" lon="6.580999"><ele>0.0</ele><time>2026-04-30T21:36:58.064Z</time></trkpt><trkpt lat="42.9850383" lon="6.5810917"><ele>0.0</ele><time>2026-04-30T21:36:59.064Z</time></trkpt><trkpt lat="42.9850874" lon="6.581184"><ele>0.0</ele><time>2026-04-30T21:37:00.064Z</time></trkpt><trkpt lat="42.9851344" lon="6.581279"><ele>0.0</ele><time>2026-04-30T21:37:01.064Z</time></trkpt><trkpt lat="42.9851854" lon="6.5813755"><ele>0.0</ele><time>2026-04-30T21:37:02.064Z</time></trkpt><trkpt lat="42.9852327" lon="6.5814682"><ele>0.0</ele><time>2026-04-30T21:37:03.063Z</time></trkpt><trkpt lat="42.9852758" lon="6.5815597"><ele>0.0</ele><time>2026-04-30T21:37:04.063Z</time></trkpt><trkpt lat="42.9853275" lon="6.5816615"><ele>0.0</ele><time>2026-04-30T21:37:05.063Z</time></trkpt><trkpt lat="42.9853811" lon="6.5817646"><ele>0.0</ele><time>2026-04-30T21:37:06.063Z</time></trkpt><trkpt lat="42.9854317" lon="6.5818594"><ele>0.0</ele><time>2026-04-30T21:37:07.063Z</time></trkpt><trkpt lat="42.9855246" lon="6.582042"><ele>0.0</ele><time>2026-04-30T21:37:09.064Z</time></trkpt><trkpt lat="42.9855726" lon="6.58213"><ele>0.0</ele><time>2026-04-30T21:37:10.063Z</time></trkpt><trkpt lat="42.9856204" lon="6.5822208"><ele>0.0</ele><time>2026-04-30T21:37:11.064Z</time></trkpt><trkpt lat="42.9856672" lon="6.582309"><ele>0.0</ele><time>2026-04-30T21:37:12.064Z</time></trkpt><trkpt lat="42.9857138" lon="6.5823983"><ele>0.0</ele><time>2026-04-30T21:37:13.063Z</time></trkpt><trkpt lat="42.9857593" lon="6.5824883"><ele>0.0</ele><time>2026-04-30T21:37:14.063Z</time></trkpt><trkpt lat="42.9858082" lon="6.5825841"><ele>0.0</ele><time>2026-04-30T21:37:15.063Z</time></trkpt><trkpt lat="42.985861" lon="6.5826766"><ele>0.0</ele><time>2026-04-30T21:37:16.063Z</time></trkpt><trkpt lat="42.9859662" lon="6.5828623"><ele>0.0</ele><time>2026-04-30T21:37:18.064Z</time></trkpt><trkpt lat="42.9860194" lon="6.5829566"><ele>0.0</ele><time>2026-04-30T21:37:19.063Z</time></trkpt><trkpt lat="42.9860715" lon="6.5830487"><ele>0.0</ele><time>2026-04-30T21:37:20.063Z</time></trkpt><trkpt lat="42.9861207" lon="6.5831413"><ele>0.0</ele><time>2026-04-30T21:37:21.064Z</time></trkpt><trkpt lat="42.9861691" lon="6.5832316"><ele>0.0</ele><time>2026-04-30T21:37:22.063Z</time></trkpt><trkpt lat="42.9862131" lon="6.5833203"><ele>0.0</ele><time>2026-04-30T21:37:23.063Z</time></trkpt><trkpt lat="42.9862543" lon="6.5834045"><ele>0.0</ele><time>2026-04-30T21:37:24.063Z</time></trkpt><trkpt lat="42.9862973" lon="6.5834917"><ele>0.0</ele><time>2026-04-30T21:37:25.063Z</time></trkpt><trkpt lat="42.9863464" lon="6.5835768"><ele>0.0</ele><time>2026-04-30T21:37:26.064Z</time></trkpt><trkpt lat="42.9863934" lon="6.5836619"><ele>0.0</ele><time>2026-04-30T21:37:27.064Z</time></trkpt><trkpt lat="42.9864445" lon="6.5837467"><ele>0.0</ele><time>2026-04-30T21:37:28.063Z</time></trkpt><trkpt lat="42.9864963" lon="6.5838358"><ele>0.0</ele><time>2026-04-30T21:37:29.063Z</time></trkpt><trkpt lat="42.9865481" lon="6.5839249"><ele>0.0</ele><time>2026-04-30T21:37:30.063Z</time></trkpt><trkpt lat="42.9866013" lon="6.584013"><ele>0.0</ele><time>2026-04-30T21:37:31.064Z</time></trkpt><trkpt lat="42.9866577" lon="6.5841056"><ele>0.0</ele><time>2026-04-30T21:37:32.063Z</time></trkpt><trkpt lat="42.9867089" lon="6.5841996"><ele>0.0</ele><time>2026-04-30T21:37:33.063Z</time></trkpt><trkpt lat="42.9867688" lon="6.5842974"><ele>0.0</ele><time>2026-04-30T21:37:34.064Z</time></trkpt><trkpt lat="42.9868137" lon="6.5843901"><ele>0.0</ele><time>2026-04-30T21:37:35.063Z</time></trkpt><trkpt lat="42.9868562" lon="6.5844892"><ele>0.0</ele><time>2026-04-30T21:37:36.063Z</time></trkpt><trkpt lat="42.9869047" lon="6.5845901"><ele>0.0</ele><time>2026-04-30T21:37:37.063Z</time></trkpt><trkpt lat="42.9870158" lon="6.5847803"><ele>0.0</ele><time>2026-04-30T21:37:39.063Z</time></trkpt><trkpt lat="42.9870726" lon="6.5848728"><ele>0.0</ele><time>2026-04-30T21:37:40.064Z</time></trkpt><trkpt lat="42.987178" lon="6.5850517"><ele>0.0</ele><time>2026-04-30T21:37:42.064Z</time></trkpt><trkpt lat="42.9872307" lon="6.5851481"><ele>0.0</ele><time>2026-04-30T21:37:43.063Z</time></trkpt><trkpt lat="42.9872855" lon="6.5852426"><ele>0.0</ele><time>2026-04-30T21:37:44.064Z</time></trkpt><trkpt lat="42.9873393" lon="6.5853361"><ele>0.0</ele><time>2026-04-30T21:37:45.064Z</time></trkpt><trkpt lat="42.9873914" lon="6.5854258"><ele>0.0</ele><time>2026-04-30T21:37:46.063Z</time></trkpt><trkpt lat="42.987443" lon="6.5855172"><ele>0.0</ele><time>2026-04-30T21:37:47.063Z</time></trkpt><trkpt lat="42.9874943" lon="6.5856128"><ele>0.0</ele><time>2026-04-30T21:37:48.064Z</time></trkpt><trkpt lat="42.9875432" lon="6.5857069"><ele>0.0</ele><time>2026-04-30T21:37:49.063Z</time></trkpt><trkpt lat="42.9875911" lon="6.5857929"><ele>0.0</ele><time>2026-04-30T21:37:50.063Z</time></trkpt><trkpt lat="42.9876395" lon="6.5858718"><ele>0.0</ele><time>2026-04-30T21:37:51.063Z</time></trkpt><trkpt lat="42.9876824" lon="6.5859529"><ele>0.0</ele><time>2026-04-30T21:37:52.064Z</time></trkpt><trkpt lat="42.9877274" lon="6.586037"><ele>0.0</ele><time>2026-04-30T21:37:53.064Z</time></trkpt><trkpt lat="42.9877751" lon="6.5861249"><ele>0.0</ele><time>2026-04-30T21:37:54.064Z</time></trkpt><trkpt lat="42.9878248" lon="6.5862104"><ele>0.0</ele><time>2026-04-30T21:37:55.063Z</time></trkpt><trkpt lat="42.9878762" lon="6.5862947"><ele>0.0</ele><time>2026-04-30T21:37:56.064Z</time></trkpt><trkpt lat="42.9879297" lon="6.586388"><ele>0.0</ele><time>2026-04-30T21:37:57.064Z</time></trkpt><trkpt lat="42.987985" lon="6.5864741"><ele>0.0</ele><time>2026-04-30T21:37:58.063Z</time></trkpt><trkpt lat="42.9880805" lon="6.5866534"><ele>0.0</ele><time>2026-04-30T21:38:00.064Z</time></trkpt><trkpt lat="42.98813" lon="6.5867419"><ele>0.0</ele><time>2026-04-30T21:38:01.064Z</time></trkpt><trkpt lat="42.9881817" lon="6.5868228"><ele>0.0</ele><time>2026-04-30T21:38:02.063Z</time></trkpt><trkpt lat="42.9882319" lon="6.586928"><ele>0.0</ele><time>2026-04-30T21:38:03.063Z</time></trkpt><trkpt lat="42.9882805" lon="6.5870249"><ele>0.0</ele><time>2026-04-30T21:38:04.063Z</time></trkpt><trkpt lat="42.9883302" lon="6.5871187"><ele>0.0</ele><time>2026-04-30T21:38:05.063Z</time></trkpt><trkpt lat="42.9883803" lon="6.5872037"><ele>0.0</ele><time>2026-04-30T21:38:06.063Z</time></trkpt><trkpt lat="42.9884271" lon="6.5872937"><ele>0.0</ele><time>2026-04-30T21:38:07.064Z</time></trkpt><trkpt lat="42.9884783" lon="6.5873843"><ele>0.0</ele><time>2026-04-30T21:38:08.064Z</time></trkpt><trkpt lat="42.9885296" lon="6.5874742"><ele>0.0</ele><time>2026-04-30T21:38:09.064Z</time></trkpt><trkpt lat="42.9885845" lon="6.5875715"><ele>0.0</ele><time>2026-04-30T21:38:10.064Z</time></trkpt><trkpt lat="42.9886384" lon="6.5876761"><ele>0.0</ele><time>2026-04-30T21:38:11.063Z</time></trkpt><trkpt lat="42.9886889" lon="6.5877813"><ele>0.0</ele><time>2026-04-30T21:38:12.063Z</time></trkpt><trkpt lat="42.9887849" lon="6.58797"><ele>0.0</ele><time>2026-04-30T21:38:14.064Z</time></trkpt><trkpt lat="42.9888318" lon="6.5880584"><ele>0.0</ele><time>2026-04-30T21:38:15.064Z</time></trkpt><trkpt lat="42.9888817" lon="6.5881494"><ele>0.0</ele><time>2026-04-30T21:38:16.064Z</time></trkpt><trkpt lat="42.9889305" lon="6.5882484"><ele>0.0</ele><time>2026-04-30T21:38:17.063Z</time></trkpt><trkpt lat="42.9889816" lon="6.5883385"><ele>0.0</ele><time>2026-04-30T21:38:18.063Z</time></trkpt><trkpt lat="42.9890304" lon="6.5884287"><ele>0.0</ele><time>2026-04-30T21:38:19.064Z</time></trkpt><trkpt lat="42.9891332" lon="6.5886029"><ele>0.0</ele><time>2026-04-30T21:38:21.063Z</time></trkpt><trkpt lat="42.989182" lon="6.5886945"><ele>0.0</ele><time>2026-04-30T21:38:22.063Z</time></trkpt><trkpt lat="42.9892262" lon="6.5887848"><ele>0.0</ele><time>2026-04-30T21:38:23.064Z</time></trkpt><trkpt lat="42.9892711" lon="6.588867"><ele>0.0</ele><time>2026-04-30T21:38:24.063Z</time></trkpt><trkpt lat="42.9893216" lon="6.5889516"><ele>0.0</ele><time>2026-04-30T21:38:25.064Z</time></trkpt><trkpt lat="42.9893662" lon="6.5890398"><ele>0.0</ele><time>2026-04-30T21:38:26.063Z</time></trkpt><trkpt lat="42.9894243" lon="6.5891323"><ele>0.0</ele><time>2026-04-30T21:38:27.064Z</time></trkpt><trkpt lat="42.989485" lon="6.589226"><ele>0.0</ele><time>2026-04-30T21:38:28.064Z</time></trkpt><trkpt lat="42.989544" lon="6.5893162"><ele>0.0</ele><time>2026-04-30T21:38:29.063Z</time></trkpt><trkpt lat="42.9896067" lon="6.5894062"><ele>0.0</ele><time>2026-04-30T21:38:30.063Z</time></trkpt><trkpt lat="42.9896608" lon="6.5895027"><ele>0.0</ele><time>2026-04-30T21:38:31.064Z</time></trkpt><trkpt lat="42.9897103" lon="6.5895964"><ele>0.0</ele><time>2026-04-30T21:38:32.064Z</time></trkpt><trkpt lat="42.9897627" lon="6.5896827"><ele>0.0</ele><time>2026-04-30T21:38:33.063Z</time></trkpt><trkpt lat="42.9898122" lon="6.5897687"><ele>0.0</ele><time>2026-04-30T21:38:34.063Z</time></trkpt><trkpt lat="42.9898603" lon="6.5898503"><ele>0.0</ele><time>2026-04-30T21:38:35.064Z</time></trkpt><trkpt lat="42.9899132" lon="6.5899374"><ele>0.0</ele><time>2026-04-30T21:38:36.063Z</time></trkpt><trkpt lat="42.9899671" lon="6.5900194"><ele>0.0</ele><time>2026-04-30T21:38:37.063Z</time></trkpt><trkpt lat="42.9900233" lon="6.5901074"><ele>0.0</ele><time>2026-04-30T21:38:38.063Z</time></trkpt><trkpt lat="42.9900804" lon="6.5901986"><ele>0.0</ele><time>2026-04-30T21:38:39.064Z</time></trkpt><trkpt lat="42.9901283" lon="6.5902916"><ele>0.0</ele><time>2026-04-30T21:38:40.063Z</time></trkpt><trkpt lat="42.9902239" lon="6.5904794"><ele>0.0</ele><time>2026-04-30T21:38:42.063Z</time></trkpt><trkpt lat="42.9902765" lon="6.5905638"><ele>0.0</ele><time>2026-04-30T21:38:43.064Z</time></trkpt><trkpt lat="42.9903298" lon="6.5906541"><ele>0.0</ele><time>2026-04-30T21:38:44.064Z</time></trkpt><trkpt lat="42.9904203" lon="6.5908325"><ele>0.0</ele><time>2026-04-30T21:38:46.063Z</time></trkpt><trkpt lat="42.9904618" lon="6.5909161"><ele>0.0</ele><time>2026-04-30T21:38:47.063Z</time></trkpt><trkpt lat="42.990502" lon="6.5909994"><ele>0.0</ele><time>2026-04-30T21:38:48.063Z</time></trkpt><trkpt lat="42.99055" lon="6.5910871"><ele>0.0</ele><time>2026-04-30T21:38:49.063Z</time></trkpt><trkpt lat="42.9905989" lon="6.5911808"><ele>0.0</ele><time>2026-04-30T21:38:50.063Z</time></trkpt><trkpt lat="42.9906451" lon="6.5912681"><ele>0.0</ele><time>2026-04-30T21:38:51.063Z</time></trkpt><trkpt lat="42.9906929" lon="6.5913521"><ele>0.0</ele><time>2026-04-30T21:38:52.063Z</time></trkpt><trkpt lat="42.9907375" lon="6.5914441"><ele>0.0</ele><time>2026-04-30T21:38:53.064Z</time></trkpt><trkpt lat="42.9907864" lon="6.5915187"><ele>0.0</ele><time>2026-04-30T21:38:54.063Z</time></trkpt><trkpt lat="42.9908377" lon="6.5916057"><ele>0.0</ele><time>2026-04-30T21:38:55.064Z</time></trkpt><trkpt lat="42.9908852" lon="6.5916853"><ele>0.0</ele><time>2026-04-30T21:38:56.064Z</time></trkpt><trkpt lat="42.9909353" lon="6.5917667"><ele>0.0</ele><time>2026-04-30T21:38:57.063Z</time></trkpt><trkpt lat="42.9909826" lon="6.5918594"><ele>0.0</ele><time>2026-04-30T21:38:58.063Z</time></trkpt><trkpt lat="42.9910348" lon="6.5919558"><ele>0.0</ele><time>2026-04-30T21:38:59.064Z</time></trkpt><trkpt lat="42.9910881" lon="6.5920476"><ele>0.0</ele><time>2026-04-30T21:39:00.063Z</time></trkpt><trkpt lat="42.9911402" lon="6.5921438"><ele>0.0</ele><time>2026-04-30T21:39:01.063Z</time></trkpt><trkpt lat="42.9912379" lon="6.592327"><ele>0.0</ele><time>2026-04-30T21:39:03.064Z</time></trkpt><trkpt lat="42.9912923" lon="6.5924161"><ele>0.0</ele><time>2026-04-30T21:39:04.064Z</time></trkpt><trkpt lat="42.9913488" lon="6.5925008"><ele>0.0</ele><time>2026-04-30T21:39:05.063Z</time></trkpt><trkpt lat="42.991404" lon="6.5925912"><ele>0.0</ele><time>2026-04-30T21:39:06.064Z</time></trkpt><trkpt lat="42.9914619" lon="6.5926787"><ele>0.0</ele><time>2026-04-30T21:39:07.064Z</time></trkpt><trkpt lat="42.9915146" lon="6.5927739"><ele>0.0</ele><time>2026-04-30T21:39:08.063Z</time></trkpt><trkpt lat="42.9915669" lon="6.5928676"><ele>0.0</ele><time>2026-04-30T21:39:09.063Z</time></trkpt><trkpt lat="42.9916215" lon="6.5929624"><ele>0.0</ele><time>2026-04-30T21:39:10.063Z</time></trkpt><trkpt lat="42.991674" lon="6.5930492"><ele>0.0</ele><time>2026-04-30T21:39:11.063Z</time></trkpt><trkpt lat="42.9917238" lon="6.5931307"><ele>0.0</ele><time>2026-04-30T21:39:12.064Z</time></trkpt><trkpt lat="42.9917733" lon="6.5932187"><ele>0.0</ele><time>2026-04-30T21:39:13.064Z</time></trkpt><trkpt lat="42.9918251" lon="6.5933077"><ele>0.0</ele><time>2026-04-30T21:39:14.063Z</time></trkpt><trkpt lat="42.9918765" lon="6.5934"><ele>0.0</ele><time>2026-04-30T21:39:15.063Z</time></trkpt><trkpt lat="42.991927" lon="6.5934958"><ele>0.0</ele><time>2026-04-30T21:39:16.063Z</time></trkpt><trkpt lat="42.9919711" lon="6.5935922"><ele>0.0</ele><time>2026-04-30T21:39:17.063Z</time></trkpt><trkpt lat="42.9920172" lon="6.5936909"><ele>0.0</ele><time>2026-04-30T21:39:18.063Z</time></trkpt><trkpt lat="42.9920657" lon="6.5937926"><ele>0.0</ele><time>2026-04-30T21:39:19.063Z</time></trkpt><trkpt lat="42.9921168" lon="6.5938865"><ele>0.0</ele><time>2026-04-30T21:39:20.063Z</time></trkpt><trkpt lat="42.9921686" lon="6.5939739"><ele>0.0</ele><time>2026-04-30T21:39:21.064Z</time></trkpt><trkpt lat="42.9922228" lon="6.5940681"><ele>0.0</ele><time>2026-04-30T21:39:22.063Z</time></trkpt><trkpt lat="42.9923403" lon="6.5942503"><ele>0.0</ele><time>2026-04-30T21:39:24.064Z</time></trkpt><trkpt lat="42.9923951" lon="6.5943381"><ele>0.0</ele><time>2026-04-30T21:39:25.063Z</time></trkpt><trkpt lat="42.9924481" lon="6.5944256"><ele>0.0</ele><time>2026-04-30T21:39:26.063Z</time></trkpt><trkpt lat="42.9924959" lon="6.5945106"><ele>0.0</ele><time>2026-04-30T21:39:27.063Z</time></trkpt><trkpt lat="42.9925483" lon="6.594598"><ele>0.0</ele><time>2026-04-30T21:39:28.064Z</time></trkpt><trkpt lat="42.9926041" lon="6.5946876"><ele>0.0</ele><time>2026-04-30T21:39:29.064Z</time></trkpt><trkpt lat="42.9926594" lon="6.5947807"><ele>0.0</ele><time>2026-04-30T21:39:30.064Z</time></trkpt><trkpt lat="42.9927105" lon="6.5948741"><ele>0.0</ele><time>2026-04-30T21:39:31.063Z</time></trkpt><trkpt lat="42.9927606" lon="6.5949591"><ele>0.0</ele><time>2026-04-30T21:39:32.064Z</time></trkpt><trkpt lat="42.992806" lon="6.5950475"><ele>0.0</ele><time>2026-04-30T21:39:33.063Z</time></trkpt><trkpt lat="42.9928579" lon="6.5951391"><ele>0.0</ele><time>2026-04-30T21:39:34.063Z</time></trkpt><trkpt lat="42.9929048" lon="6.5952322"><ele>0.0</ele><time>2026-04-30T21:39:35.063Z</time></trkpt><trkpt lat="42.9929539" lon="6.5953216"><ele>0.0</ele><time>2026-04-30T21:39:36.063Z</time></trkpt><trkpt lat="42.9929997" lon="6.5953972"><ele>0.0</ele><time>2026-04-30T21:39:37.064Z</time></trkpt><trkpt lat="42.9930476" lon="6.5954837"><ele>0.0</ele><time>2026-04-30T21:39:38.063Z</time></trkpt><trkpt lat="42.9930944" lon="6.595572"><ele>0.0</ele><time>2026-04-30T21:39:39.063Z</time></trkpt><trkpt lat="42.9931424" lon="6.5956617"><ele>0.0</ele><time>2026-04-30T21:39:40.063Z</time></trkpt><trkpt lat="42.9931864" lon="6.5957386"><ele>0.0</ele><time>2026-04-30T21:39:41.063Z</time></trkpt><trkpt lat="42.9932293" lon="6.5958164"><ele>0.0</ele><time>2026-04-30T21:39:42.063Z</time></trkpt><trkpt lat="42.9932669" lon="6.5959019"><ele>0.0</ele><time>2026-04-30T21:39:43.064Z</time></trkpt><trkpt lat="42.9933659" lon="6.5960739"><ele>0.0</ele><time>2026-04-30T21:39:45.063Z</time></trkpt><trkpt lat="42.9934183" lon="6.5961543"><ele>0.0</ele><time>2026-04-30T21:39:46.064Z</time></trkpt><trkpt lat="42.9934689" lon="6.5962417"><ele>0.0</ele><time>2026-04-30T21:39:47.064Z</time></trkpt><trkpt lat="42.9935713" lon="6.596425"><ele>0.0</ele><time>2026-04-30T21:39:49.063Z</time></trkpt><trkpt lat="42.9936178" lon="6.5965082"><ele>0.0</ele><time>2026-04-30T21:39:50.064Z</time></trkpt><trkpt lat="42.9936657" lon="6.5966004"><ele>0.0</ele><time>2026-04-30T21:39:51.064Z</time></trkpt><trkpt lat="42.9937212" lon="6.5966931"><ele>0.0</ele><time>2026-04-30T21:39:52.063Z</time></trkpt><trkpt lat="42.9937757" lon="6.5967809"><ele>0.0</ele><time>2026-04-30T21:39:53.063Z</time></trkpt><trkpt lat="42.9938185" lon="6.596862"><ele>0.0</ele><time>2026-04-30T21:39:54.064Z</time></trkpt><trkpt lat="42.9938654" lon="6.5969463"><ele>0.0</ele><time>2026-04-30T21:39:55.064Z</time></trkpt><trkpt lat="42.9939155" lon="6.5970299"><ele>0.0</ele><time>2026-04-30T21:39:56.063Z</time></trkpt><trkpt lat="42.9939657" lon="6.5971132"><ele>0.0</ele><time>2026-04-30T21:39:57.064Z</time></trkpt><trkpt lat="42.9940182" lon="6.5972049"><ele>0.0</ele><time>2026-04-30T21:39:58.063Z</time></trkpt><trkpt lat="42.9940746" lon="6.5972963"><ele>0.0</ele><time>2026-04-30T21:39:59.063Z</time></trkpt><trkpt lat="42.9941294" lon="6.597388"><ele>0.0</ele><time>2026-04-30T21:40:00.064Z</time></trkpt><trkpt lat="42.9941859" lon="6.597478"><ele>0.0</ele><time>2026-04-30T21:40:01.063Z</time></trkpt><trkpt lat="42.9942352" lon="6.5975704"><ele>0.0</ele><time>2026-04-30T21:40:02.063Z</time></trkpt><trkpt lat="42.9942836" lon="6.5976611"><ele>0.0</ele><time>2026-04-30T21:40:03.063Z</time></trkpt><trkpt lat="42.9943402" lon="6.5977795"><ele>0.0</ele><time>2026-04-30T21:40:04.064Z</time></trkpt><trkpt lat="42.99445" lon="6.5979667"><ele>0.0</ele><time>2026-04-30T21:40:06.064Z</time></trkpt><trkpt lat="42.9945034" lon="6.5980569"><ele>0.0</ele><time>2026-04-30T21:40:07.063Z</time></trkpt><trkpt lat="42.9945553" lon="6.5981463"><ele>0.0</ele><time>2026-04-30T21:40:08.064Z</time></trkpt><trkpt lat="42.9946038" lon="6.5982379"><ele>0.0</ele><time>2026-04-30T21:40:09.064Z</time></trkpt><trkpt lat="42.9946511" lon="6.5983311"><ele>0.0</ele><time>2026-04-30T21:40:10.063Z</time></trkpt><trkpt lat="42.9946975" lon="6.5984162"><ele>0.0</ele><time>2026-04-30T21:40:11.063Z</time></trkpt><trkpt lat="42.994747" lon="6.598507"><ele>0.0</ele><time>2026-04-30T21:40:12.063Z</time></trkpt><trkpt lat="42.9947969" lon="6.598601"><ele>0.0</ele><time>2026-04-30T21:40:13.064Z</time></trkpt><trkpt lat="42.9948495" lon="6.5986906"><ele>0.0</ele><time>2026-04-30T21:40:14.064Z</time></trkpt><trkpt lat="42.9948999" lon="6.5987769"><ele>0.0</ele><time>2026-04-30T21:40:15.063Z</time></trkpt><trkpt lat="42.9949473" lon="6.5988671"><ele>0.0</ele><time>2026-04-30T21:40:16.063Z</time></trkpt><trkpt lat="42.9949955" lon="6.5989656"><ele>0.0</ele><time>2026-04-30T21:40:17.064Z</time></trkpt><trkpt lat="42.9950436" lon="6.5990598"><ele>0.0</ele><time>2026-04-30T21:40:18.064Z</time></trkpt><trkpt lat="42.9950917" lon="6.5991501"><ele>0.0</ele><time>2026-04-30T21:40:19.064Z</time></trkpt><trkpt lat="42.9951925" lon="6.599327"><ele>0.0</ele><time>2026-04-30T21:40:21.063Z</time></trkpt><trkpt lat="42.995248" lon="6.5994324"><ele>0.0</ele><time>2026-04-30T21:40:22.063Z</time></trkpt><trkpt lat="42.9953065" lon="6.5995275"><ele>0.0</ele><time>2026-04-30T21:40:23.064Z</time></trkpt><trkpt lat="42.9953628" lon="6.5996239"><ele>0.0</ele><time>2026-04-30T21:40:24.063Z</time></trkpt><trkpt lat="42.9954137" lon="6.5997168"><ele>0.0</ele><time>2026-04-30T21:40:25.063Z</time></trkpt><trkpt lat="42.9955205" lon="6.5999"><ele>0.0</ele><time>2026-04-30T21:40:27.064Z</time></trkpt><trkpt lat="42.9955737" lon="6.5999939"><ele>0.0</ele><time>2026-04-30T21:40:28.064Z</time></trkpt><trkpt lat="42.9956269" lon="6.6000855"><ele>0.0</ele><time>2026-04-30T21:40:29.063Z</time></trkpt><trkpt lat="42.9956787" lon="6.6001724"><ele>0.0</ele><time>2026-04-30T21:40:30.064Z</time></trkpt><trkpt lat="42.9957344" lon="6.6002531"><ele>0.0</ele><time>2026-04-30T21:40:31.064Z</time></trkpt><trkpt lat="42.9957813" lon="6.6003271"><ele>0.0</ele><time>2026-04-30T21:40:32.063Z</time></trkpt><trkpt lat="42.9958307" lon="6.6004148"><ele>0.0</ele><time>2026-04-30T21:40:33.063Z</time></trkpt><trkpt lat="42.9958833" lon="6.6005016"><ele>0.0</ele><time>2026-04-30T21:40:34.064Z</time></trkpt><trkpt lat="42.9959366" lon="6.6005885"><ele>0.0</ele><time>2026-04-30T21:40:35.064Z</time></trkpt><trkpt lat="42.9959902" lon="6.6006765"><ele>0.0</ele><time>2026-04-30T21:40:36.063Z</time></trkpt><trkpt lat="42.9960407" lon="6.6007551"><ele>0.0</ele><time>2026-04-30T21:40:37.064Z</time></trkpt><trkpt lat="42.9960894" lon="6.600842"><ele>0.0</ele><time>2026-04-30T21:40:38.063Z</time></trkpt><trkpt lat="42.9961361" lon="6.6009226"><ele>0.0</ele><time>2026-04-30T21:40:39.063Z</time></trkpt><trkpt lat="42.9961821" lon="6.6010011"><ele>0.0</ele><time>2026-04-30T21:40:40.063Z</time></trkpt><trkpt lat="42.9962256" lon="6.6010808"><ele>0.0</ele><time>2026-04-30T21:40:41.064Z</time></trkpt><trkpt lat="42.9962706" lon="6.6011665"><ele>0.0</ele><time>2026-04-30T21:40:42.064Z</time></trkpt><trkpt lat="42.9963157" lon="6.601245"><ele>0.0</ele><time>2026-04-30T21:40:43.064Z</time></trkpt><trkpt lat="42.9963607" lon="6.6013299"><ele>0.0</ele><time>2026-04-30T21:40:44.063Z</time></trkpt><trkpt lat="42.9964099" lon="6.6014216"><ele>0.0</ele><time>2026-04-30T21:40:45.064Z</time></trkpt><trkpt lat="42.9964616" lon="6.6015133"><ele>0.0</ele><time>2026-04-30T21:40:46.064Z</time></trkpt><trkpt lat="42.9965632" lon="6.6016975"><ele>0.0</ele><time>2026-04-30T21:40:48.063Z</time></trkpt><trkpt lat="42.9966144" lon="6.6017813"><ele>0.0</ele><time>2026-04-30T21:40:49.064Z</time></trkpt><trkpt lat="42.9966611" lon="6.6018737"><ele>0.0</ele><time>2026-04-30T21:40:50.063Z</time></trkpt><trkpt lat="42.9967063" lon="6.6019725"><ele>0.0</ele><time>2026-04-30T21:40:51.063Z</time></trkpt><trkpt lat="42.9968036" lon="6.602157"><ele>0.0</ele><time>2026-04-30T21:40:53.064Z</time></trkpt><trkpt lat="42.9968595" lon="6.6022475"><ele>0.0</ele><time>2026-04-30T21:40:54.063Z</time></trkpt><trkpt lat="42.9969094" lon="6.6023409"><ele>0.0</ele><time>2026-04-30T21:40:55.063Z</time></trkpt><trkpt lat="42.9969595" lon="6.6024288"><ele>0.0</ele><time>2026-04-30T21:40:56.064Z</time></trkpt><trkpt lat="42.9970085" lon="6.6025143"><ele>0.0</ele><time>2026-04-30T21:40:57.063Z</time></trkpt><trkpt lat="42.9970609" lon="6.6026105"><ele>0.0</ele><time>2026-04-30T21:40:58.064Z</time></trkpt><trkpt lat="42.9971228" lon="6.6026978"><ele>0.0</ele><time>2026-04-30T21:40:59.063Z</time></trkpt><trkpt lat="42.9971718" lon="6.6027912"><ele>0.0</ele><time>2026-04-30T21:41:00.063Z</time></trkpt><trkpt lat="42.9972188" lon="6.6028834"><ele>0.0</ele><time>2026-04-30T21:41:01.063Z</time></trkpt><trkpt lat="42.9972641" lon="6.6029692"><ele>0.0</ele><time>2026-04-30T21:41:02.064Z</time></trkpt><trkpt lat="42.9973164" lon="6.6030539"><ele>0.0</ele><time>2026-04-30T21:41:03.064Z</time></trkpt><trkpt lat="42.997362" lon="6.6031364"><ele>0.0</ele><time>2026-04-30T21:41:04.063Z</time></trkpt><trkpt lat="42.9974035" lon="6.6032218"><ele>0.0</ele><time>2026-04-30T21:41:05.064Z</time></trkpt><trkpt lat="42.9974448" lon="6.6033141"><ele>0.0</ele><time>2026-04-30T21:41:06.063Z</time></trkpt><trkpt lat="42.9974865" lon="6.6034045"><ele>0.0</ele><time>2026-04-30T21:41:07.063Z</time></trkpt><trkpt lat="42.9975772" lon="6.6035976"><ele>0.0</ele><time>2026-04-30T21:41:09.063Z</time></trkpt><trkpt lat="42.9976224" lon="6.6036913"><ele>0.0</ele><time>2026-04-30T21:41:10.064Z</time></trkpt><trkpt lat="42.9976744" lon="6.6037711"><ele>0.0</ele><time>2026-04-30T21:41:11.063Z</time></trkpt><trkpt lat="42.997732" lon="6.6038635"><ele>0.0</ele><time>2026-04-30T21:41:12.064Z</time></trkpt><trkpt lat="42.9977875" lon="6.6039535"><ele>0.0</ele><time>2026-04-30T21:41:13.063Z</time></trkpt><trkpt lat="42.9978438" lon="6.6040531"><ele>0.0</ele><time>2026-04-30T21:41:14.063Z</time></trkpt><trkpt lat="42.9978965" lon="6.6041533"><ele>0.0</ele><time>2026-04-30T21:41:15.063Z</time></trkpt><trkpt lat="42.9979479" lon="6.6042437"><ele>0.0</ele><time>2026-04-30T21:41:16.064Z</time></trkpt><trkpt lat="42.9979981" lon="6.6043304"><ele>0.0</ele><time>2026-04-30T21:41:17.064Z</time></trkpt><trkpt lat="42.9980469" lon="6.6044212"><ele>0.0</ele><time>2026-04-30T21:41:18.064Z</time></trkpt><trkpt lat="42.9980936" lon="6.6045059"><ele>0.0</ele><time>2026-04-30T21:41:19.063Z</time></trkpt><trkpt lat="42.9981405" lon="6.6045919"><ele>0.0</ele><time>2026-04-30T21:41:20.064Z</time></trkpt><trkpt lat="42.9981886" lon="6.6046925"><ele>0.0</ele><time>2026-04-30T21:41:21.063Z</time></trkpt><trkpt lat="42.9982396" lon="6.6047854"><ele>0.0</ele><time>2026-04-30T21:41:22.064Z</time></trkpt><trkpt lat="42.9982898" lon="6.6048772"><ele>0.0</ele><time>2026-04-30T21:41:23.064Z</time></trkpt><trkpt lat="42.9983405" lon="6.6049691"><ele>0.0</ele><time>2026-04-30T21:41:24.064Z</time></trkpt><trkpt lat="42.9984418" lon="6.6051418"><ele>0.0</ele><time>2026-04-30T21:41:26.063Z</time></trkpt><trkpt lat="42.9984949" lon="6.6052302"><ele>0.0</ele><time>2026-04-30T21:41:27.063Z</time></trkpt><trkpt lat="42.9985465" lon="6.6053165"><ele>0.0</ele><time>2026-04-30T21:41:28.064Z</time></trkpt><trkpt lat="42.9986565" lon="6.6054907"><ele>0.0</ele><time>2026-04-30T21:41:30.063Z</time></trkpt><trkpt lat="42.9987101" lon="6.6055795"><ele>0.0</ele><time>2026-04-30T21:41:31.063Z</time></trkpt><trkpt lat="42.9987605" lon="6.605667"><ele>0.0</ele><time>2026-04-30T21:41:32.063Z</time></trkpt><trkpt lat="42.9988117" lon="6.6057552"><ele>0.0</ele><time>2026-04-30T21:41:33.062Z</time></trkpt><trkpt lat="42.9988606" lon="6.6058505"><ele>0.0</ele><time>2026-04-30T21:41:34.062Z</time></trkpt><trkpt lat="42.9989087" lon="6.6059445"><ele>0.0</ele><time>2026-04-30T21:41:35.063Z</time></trkpt><trkpt lat="42.9989568" lon="6.606035"><ele>0.0</ele><time>2026-04-30T21:41:36.062Z</time></trkpt><trkpt lat="42.9990051" lon="6.6061276"><ele>0.0</ele><time>2026-04-30T21:41:37.063Z</time></trkpt><trkpt lat="42.9990523" lon="6.6062166"><ele>0.0</ele><time>2026-04-30T21:41:38.063Z</time></trkpt><trkpt lat="42.9991003" lon="6.6063066"><ele>0.0</ele><time>2026-04-30T21:41:39.062Z</time></trkpt><trkpt lat="42.9991475" lon="6.606399"><ele>0.0</ele><time>2026-04-30T21:41:40.063Z</time></trkpt><trkpt lat="42.999194" lon="6.6064896"><ele>0.0</ele><time>2026-04-30T21:41:41.062Z</time></trkpt><trkpt lat="42.9992389" lon="6.6065795"><ele>0.0</ele><time>2026-04-30T21:41:42.062Z</time></trkpt><trkpt lat="42.999288" lon="6.6066735"><ele>0.0</ele><time>2026-04-30T21:41:43.062Z</time></trkpt><trkpt lat="42.9993382" lon="6.6067675"><ele>0.0</ele><time>2026-04-30T21:41:44.062Z</time></trkpt><trkpt lat="42.9993901" lon="6.6068679"><ele>0.0</ele><time>2026-04-30T21:41:45.062Z</time></trkpt><trkpt lat="42.9994404" lon="6.6069613"><ele>0.0</ele><time>2026-04-30T21:41:46.062Z</time></trkpt><trkpt lat="42.9994936" lon="6.6070482"><ele>0.0</ele><time>2026-04-30T21:41:47.062Z</time></trkpt><trkpt lat="42.9995481" lon="6.6071368"><ele>0.0</ele><time>2026-04-30T21:41:48.063Z</time></trkpt><trkpt lat="42.9996005" lon="6.6072277"><ele>0.0</ele><time>2026-04-30T21:41:49.062Z</time></trkpt><trkpt lat="42.9996963" lon="6.6074151"><ele>0.0</ele><time>2026-04-30T21:41:51.063Z</time></trkpt><trkpt lat="42.9997408" lon="6.6075204"><ele>0.0</ele><time>2026-04-30T21:41:52.063Z</time></trkpt><trkpt lat="42.9997934" lon="6.6076157"><ele>0.0</ele><time>2026-04-30T21:41:53.063Z</time></trkpt><trkpt lat="42.9998481" lon="6.6077121"><ele>0.0</ele><time>2026-04-30T21:41:54.063Z</time></trkpt><trkpt lat="42.9999003" lon="6.6078109"><ele>0.0</ele><time>2026-04-30T21:41:55.063Z</time></trkpt><trkpt lat="42.9999476" lon="6.6079125"><ele>0.0</ele><time>2026-04-30T21:41:56.063Z</time></trkpt><trkpt lat="43.0000453" lon="6.6080885"><ele>0.0</ele><time>2026-04-30T21:41:58.062Z</time></trkpt><trkpt lat="43.0000952" lon="6.6081703"><ele>0.0</ele><time>2026-04-30T21:41:59.062Z</time></trkpt><trkpt lat="43.0001437" lon="6.6082523"><ele>0.0</ele><time>2026-04-30T21:42:00.063Z</time></trkpt><trkpt lat="43.0001933" lon="6.6083286"><ele>0.0</ele><time>2026-04-30T21:42:01.062Z</time></trkpt><trkpt lat="43.0002365" lon="6.6084034"><ele>0.0</ele><time>2026-04-30T21:42:02.063Z</time></trkpt><trkpt lat="43.0002822" lon="6.6084794"><ele>0.0</ele><time>2026-04-30T21:42:03.062Z</time></trkpt><trkpt lat="43.0003316" lon="6.6085574"><ele>0.0</ele><time>2026-04-30T21:42:04.062Z</time></trkpt><trkpt lat="43.0003746" lon="6.6086612"><ele>0.0</ele><time>2026-04-30T21:42:05.062Z</time></trkpt><trkpt lat="43.0004235" lon="6.608753"><ele>0.0</ele><time>2026-04-30T21:42:06.063Z</time></trkpt><trkpt lat="43.0004691" lon="6.6088646"><ele>0.0</ele><time>2026-04-30T21:42:07.063Z</time></trkpt><trkpt lat="43.0005151" lon="6.6089617"><ele>0.0</ele><time>2026-04-30T21:42:08.062Z</time></trkpt><trkpt lat="43.0005635" lon="6.6090494"><ele>0.0</ele><time>2026-04-30T21:42:09.063Z</time></trkpt><trkpt lat="43.0006104" lon="6.6091355"><ele>0.0</ele><time>2026-04-30T21:42:10.062Z</time></trkpt><trkpt lat="43.0007118" lon="6.6093134"><ele>0.0</ele><time>2026-04-30T21:42:12.062Z</time></trkpt><trkpt lat="43.000763" lon="6.609409"><ele>0.0</ele><time>2026-04-30T21:42:13.063Z</time></trkpt><trkpt lat="43.0008107" lon="6.6095023"><ele>0.0</ele><time>2026-04-30T21:42:14.063Z</time></trkpt><trkpt lat="43.0008658" lon="6.6095941"><ele>0.0</ele><time>2026-04-30T21:42:15.062Z</time></trkpt><trkpt lat="43.0009199" lon="6.6096874"><ele>0.0</ele><time>2026-04-30T21:42:16.063Z</time></trkpt><trkpt lat="43.0009744" lon="6.6097781"><ele>0.0</ele><time>2026-04-30T21:42:17.063Z</time></trkpt><trkpt lat="43.0010251" lon="6.6098589"><ele>0.0</ele><time>2026-04-30T21:42:18.062Z</time></trkpt><trkpt lat="43.0010748" lon="6.6099504"><ele>0.0</ele><time>2026-04-30T21:42:19.062Z</time></trkpt><trkpt lat="43.0011279" lon="6.6100352"><ele>0.0</ele><time>2026-04-30T21:42:20.063Z</time></trkpt><trkpt lat="43.0011785" lon="6.6101257"><ele>0.0</ele><time>2026-04-30T21:42:21.062Z</time></trkpt><trkpt lat="43.0012327" lon="6.6102187"><ele>0.0</ele><time>2026-04-30T21:42:22.063Z</time></trkpt><trkpt lat="43.0012836" lon="6.6103291"><ele>0.0</ele><time>2026-04-30T21:42:23.062Z</time></trkpt><trkpt lat="43.0013364" lon="6.6104273"><ele>0.0</ele><time>2026-04-30T21:42:24.062Z</time></trkpt><trkpt lat="43.001387" lon="6.6105199"><ele>0.0</ele><time>2026-04-30T21:42:25.063Z</time></trkpt><trkpt lat="43.0014343" lon="6.6106114"><ele>0.0</ele><time>2026-04-30T21:42:26.063Z</time></trkpt><trkpt lat="43.0014816" lon="6.610697"><ele>0.0</ele><time>2026-04-30T21:42:27.062Z</time></trkpt><trkpt lat="43.0015344" lon="6.6107895"><ele>0.0</ele><time>2026-04-30T21:42:28.063Z</time></trkpt><trkpt lat="43.0015868" lon="6.6108869"><ele>0.0</ele><time>2026-04-30T21:42:29.062Z</time></trkpt><trkpt lat="43.0016853" lon="6.6110721"><ele>0.0</ele><time>2026-04-30T21:42:31.063Z</time></trkpt><trkpt lat="43.0017848" lon="6.6112626"><ele>0.0</ele><time>2026-04-30T21:42:33.063Z</time></trkpt><trkpt lat="43.0018348" lon="6.6113572"><ele>0.0</ele><time>2026-04-30T21:42:34.063Z</time></trkpt><trkpt lat="43.0018894" lon="6.611451"><ele>0.0</ele><time>2026-04-30T21:42:35.062Z</time></trkpt><trkpt lat="43.0019435" lon="6.6115556"><ele>0.0</ele><time>2026-04-30T21:42:36.062Z</time></trkpt><trkpt lat="43.0019944" lon="6.6116462"><ele>0.0</ele><time>2026-04-30T21:42:37.062Z</time></trkpt><trkpt lat="43.0020464" lon="6.6117333"><ele>0.0</ele><time>2026-04-30T21:42:38.062Z</time></trkpt><trkpt lat="43.0020967" lon="6.6118259"><ele>0.0</ele><time>2026-04-30T21:42:39.063Z</time></trkpt><trkpt lat="43.0021468" lon="6.611929"><ele>0.0</ele><time>2026-04-30T21:42:40.063Z</time></trkpt><trkpt lat="43.002197" lon="6.6120284"><ele>0.0</ele><time>2026-04-30T21:42:41.062Z</time></trkpt><trkpt lat="43.0022471" lon="6.6121153"><ele>0.0</ele><time>2026-04-30T21:42:42.062Z</time></trkpt><trkpt lat="43.0022971" lon="6.61221"><ele>0.0</ele><time>2026-04-30T21:42:43.062Z</time></trkpt><trkpt lat="43.0023425" lon="6.6123053"><ele>0.0</ele><time>2026-04-30T21:42:44.063Z</time></trkpt><trkpt lat="43.0023913" lon="6.6124004"><ele>0.0</ele><time>2026-04-30T21:42:45.063Z</time></trkpt><trkpt lat="43.0024413" lon="6.6124914"><ele>0.0</ele><time>2026-04-30T21:42:46.063Z</time></trkpt><trkpt lat="43.0024898" lon="6.6125844"><ele>0.0</ele><time>2026-04-30T21:42:47.062Z</time></trkpt><trkpt lat="43.0025424" lon="6.6126801"><ele>0.0</ele><time>2026-04-30T21:42:48.063Z</time></trkpt><trkpt lat="43.0025975" lon="6.6127784"><ele>0.0</ele><time>2026-04-30T21:42:49.063Z</time></trkpt><trkpt lat="43.0026541" lon="6.6128769"><ele>0.0</ele><time>2026-04-30T21:42:50.062Z</time></trkpt><trkpt lat="43.0027067" lon="6.6129727"><ele>0.0</ele><time>2026-04-30T21:42:51.062Z</time></trkpt><trkpt lat="43.0027596" lon="6.6130706"><ele>0.0</ele><time>2026-04-30T21:42:52.062Z</time></trkpt><trkpt lat="43.0028551" lon="6.6132639"><ele>0.0</ele><time>2026-04-30T21:42:54.062Z</time></trkpt><trkpt lat="43.0029074" lon="6.6133453"><ele>0.0</ele><time>2026-04-30T21:42:55.063Z</time></trkpt><trkpt lat="43.0029607" lon="6.6134219"><ele>0.0</ele><time>2026-04-30T21:42:56.062Z</time></trkpt><trkpt lat="43.0030155" lon="6.6134995"><ele>0.0</ele><time>2026-04-30T21:42:57.062Z</time></trkpt><trkpt lat="43.0030665" lon="6.6135863"><ele>0.0</ele><time>2026-04-30T21:42:58.062Z</time></trkpt><trkpt lat="43.0031221" lon="6.6136805"><ele>0.0</ele><time>2026-04-30T21:42:59.063Z</time></trkpt><trkpt lat="43.0031769" lon="6.6137709"><ele>0.0</ele><time>2026-04-30T21:43:00.063Z</time></trkpt><trkpt lat="43.0032257" lon="6.6138669"><ele>0.0</ele><time>2026-04-30T21:43:01.063Z</time></trkpt><trkpt lat="43.0033318" lon="6.6140555"><ele>0.0</ele><time>2026-04-30T21:43:03.062Z</time></trkpt><trkpt lat="43.0033867" lon="6.6141519"><ele>0.0</ele><time>2026-04-30T21:43:04.063Z</time></trkpt><trkpt lat="43.0034391" lon="6.6142427"><ele>0.0</ele><time>2026-04-30T21:43:05.063Z</time></trkpt><trkpt lat="43.00349" lon="6.6143179"><ele>0.0</ele><time>2026-04-30T21:43:06.062Z</time></trkpt><trkpt lat="43.0035374" lon="6.6144182"><ele>0.0</ele><time>2026-04-30T21:43:07.062Z</time></trkpt><trkpt lat="43.0035883" lon="6.6145191"><ele>0.0</ele><time>2026-04-30T21:43:08.063Z</time></trkpt><trkpt lat="43.0036343" lon="6.6146124"><ele>0.0</ele><time>2026-04-30T21:43:09.062Z</time></trkpt><trkpt lat="43.0036823" lon="6.6147089"><ele>0.0</ele><time>2026-04-30T21:43:10.063Z</time></trkpt><trkpt lat="43.0037263" lon="6.6148148"><ele>0.0</ele><time>2026-04-30T21:43:11.063Z</time></trkpt><trkpt lat="43.0037716" lon="6.6149123"><ele>0.0</ele><time>2026-04-30T21:43:12.063Z</time></trkpt><trkpt lat="43.0038128" lon="6.6150133"><ele>0.0</ele><time>2026-04-30T21:43:13.063Z</time></trkpt><trkpt lat="43.0038982" lon="6.6152244"><ele>0.0</ele><time>2026-04-30T21:43:15.063Z</time></trkpt><trkpt lat="43.0039394" lon="6.6153307"><ele>0.0</ele><time>2026-04-30T21:43:16.063Z</time></trkpt><trkpt lat="43.0039895" lon="6.6154346"><ele>0.0</ele><time>2026-04-30T21:43:17.062Z</time></trkpt><trkpt lat="43.0040414" lon="6.6155397"><ele>0.0</ele><time>2026-04-30T21:43:18.062Z</time></trkpt><trkpt lat="43.0040844" lon="6.615667"><ele>0.0</ele><time>2026-04-30T21:43:19.062Z</time></trkpt><trkpt lat="43.0041288" lon="6.6157782"><ele>0.0</ele><time>2026-04-30T21:43:20.062Z</time></trkpt><trkpt lat="43.0041779" lon="6.6158859"><ele>0.0</ele><time>2026-04-30T21:43:21.063Z</time></trkpt><trkpt lat="43.0042255" lon="6.6159914"><ele>0.0</ele><time>2026-04-30T21:43:22.063Z</time></trkpt><trkpt lat="43.0042726" lon="6.6160994"><ele>0.0</ele><time>2026-04-30T21:43:23.063Z</time></trkpt><trkpt lat="43.004323" lon="6.6161992"><ele>0.0</ele><time>2026-04-30T21:43:24.063Z</time></trkpt><trkpt lat="43.0043719" lon="6.6162962"><ele>0.0</ele><time>2026-04-30T21:43:25.063Z</time></trkpt><trkpt lat="43.0044176" lon="6.6163896"><ele>0.0</ele><time>2026-04-30T21:43:26.063Z</time></trkpt><trkpt lat="43.0044655" lon="6.6164821"><ele>0.0</ele><time>2026-04-30T21:43:27.062Z</time></trkpt><trkpt lat="43.0045153" lon="6.6165892"><ele>0.0</ele><time>2026-04-30T21:43:28.062Z</time></trkpt><trkpt lat="43.0045667" lon="6.6166931"><ele>0.0</ele><time>2026-04-30T21:43:29.062Z</time></trkpt><trkpt lat="43.0046169" lon="6.6167895"><ele>0.0</ele><time>2026-04-30T21:43:30.063Z</time></trkpt><trkpt lat="43.0046652" lon="6.6168814"><ele>0.0</ele><time>2026-04-30T21:43:31.063Z</time></trkpt><trkpt lat="43.0047117" lon="6.6169722"><ele>0.0</ele><time>2026-04-30T21:43:32.062Z</time></trkpt><trkpt lat="43.004764" lon="6.6170618"><ele>0.0</ele><time>2026-04-30T21:43:33.062Z</time></trkpt><trkpt lat="43.0049145" lon="6.6173444"><ele>0.0</ele><time>2026-04-30T21:43:36.063Z</time></trkpt><trkpt lat="43.0049661" lon="6.6174354"><ele>0.0</ele><time>2026-04-30T21:43:37.062Z</time></trkpt><trkpt lat="43.0050167" lon="6.6175269"><ele>0.0</ele><time>2026-04-30T21:43:38.063Z</time></trkpt><trkpt lat="43.005072" lon="6.6176215"><ele>0.0</ele><time>2026-04-30T21:43:39.063Z</time></trkpt><trkpt lat="43.0051248" lon="6.6177165"><ele>0.0</ele><time>2026-04-30T21:43:40.062Z</time></trkpt><trkpt lat="43.0051723" lon="6.6178083"><ele>0.0</ele><time>2026-04-30T21:43:41.062Z</time></trkpt><trkpt lat="43.0052176" lon="6.6179027"><ele>0.0</ele><time>2026-04-30T21:43:42.062Z</time></trkpt><trkpt lat="43.0052637" lon="6.6179963"><ele>0.0</ele><time>2026-04-30T21:43:43.062Z</time></trkpt><trkpt lat="43.0053113" lon="6.6180912"><ele>0.0</ele><time>2026-04-30T21:43:44.063Z</time></trkpt><trkpt lat="43.0053626" lon="6.618182"><ele>0.0</ele><time>2026-04-30T21:43:45.062Z</time></trkpt><trkpt lat="43.0054118" lon="6.6182728"><ele>0.0</ele><time>2026-04-30T21:43:46.063Z</time></trkpt><trkpt lat="43.0054627" lon="6.6183666"><ele>0.0</ele><time>2026-04-30T21:43:47.062Z</time></trkpt><trkpt lat="43.0055187" lon="6.6184612"><ele>0.0</ele><time>2026-04-30T21:43:48.062Z</time></trkpt><trkpt lat="43.0055673" lon="6.6185518"><ele>0.0</ele><time>2026-04-30T21:43:49.062Z</time></trkpt><trkpt lat="43.0056163" lon="6.6186428"><ele>0.0</ele><time>2026-04-30T21:43:50.063Z</time></trkpt><trkpt lat="43.0056707" lon="6.6187345"><ele>0.0</ele><time>2026-04-30T21:43:51.063Z</time></trkpt><trkpt lat="43.0057232" lon="6.6188264"><ele>0.0</ele><time>2026-04-30T21:43:52.063Z</time></trkpt><trkpt lat="43.0057764" lon="6.618921"><ele>0.0</ele><time>2026-04-30T21:43:53.063Z</time></trkpt><trkpt lat="43.0058296" lon="6.6190148"><ele>0.0</ele><time>2026-04-30T21:43:54.063Z</time></trkpt><trkpt lat="43.0058843" lon="6.6191081"><ele>0.0</ele><time>2026-04-30T21:43:55.062Z</time></trkpt><trkpt lat="43.0059867" lon="6.6192961"><ele>0.0</ele><time>2026-04-30T21:43:57.063Z</time></trkpt><trkpt lat="43.0060383" lon="6.6193904"><ele>0.0</ele><time>2026-04-30T21:43:58.062Z</time></trkpt><trkpt lat="43.0060884" lon="6.619486"><ele>0.0</ele><time>2026-04-30T21:43:59.063Z</time></trkpt><trkpt lat="43.0061413" lon="6.6195782"><ele>0.0</ele><time>2026-04-30T21:44:00.062Z</time></trkpt><trkpt lat="43.0061919" lon="6.6196698"><ele>0.0</ele><time>2026-04-30T21:44:01.063Z</time></trkpt><trkpt lat="43.0062462" lon="6.61976"><ele>0.0</ele><time>2026-04-30T21:44:02.063Z</time></trkpt><trkpt lat="43.0063001" lon="6.6198526"><ele>0.0</ele><time>2026-04-30T21:44:03.062Z</time></trkpt><trkpt lat="43.0063537" lon="6.6199462"><ele>0.0</ele><time>2026-04-30T21:44:04.063Z</time></trkpt><trkpt lat="43.0064039" lon="6.6200409"><ele>0.0</ele><time>2026-04-30T21:44:05.062Z</time></trkpt><trkpt lat="43.0064523" lon="6.6201345"><ele>0.0</ele><time>2026-04-30T21:44:06.062Z</time></trkpt><trkpt lat="43.0065497" lon="6.620321"><ele>0.0</ele><time>2026-04-30T21:44:08.062Z</time></trkpt><trkpt lat="43.0065989" lon="6.6204114"><ele>0.0</ele><time>2026-04-30T21:44:09.063Z</time></trkpt><trkpt lat="43.0066456" lon="6.6204999"><ele>0.0</ele><time>2026-04-30T21:44:10.063Z</time></trkpt><trkpt lat="43.0066935" lon="6.6205921"><ele>0.0</ele><time>2026-04-30T21:44:11.062Z</time></trkpt><trkpt lat="43.0067423" lon="6.6206862"><ele>0.0</ele><time>2026-04-30T21:44:12.062Z</time></trkpt><trkpt lat="43.0067902" lon="6.6207817"><ele>0.0</ele><time>2026-04-30T21:44:13.063Z</time></trkpt><trkpt lat="43.0068387" lon="6.6208795"><ele>0.0</ele><time>2026-04-30T21:44:14.063Z</time></trkpt><trkpt lat="43.0068854" lon="6.620975"><ele>0.0</ele><time>2026-04-30T21:44:15.063Z</time></trkpt><trkpt lat="43.0069347" lon="6.621065"><ele>0.0</ele><time>2026-04-30T21:44:16.063Z</time></trkpt><trkpt lat="43.0070403" lon="6.6212481"><ele>0.0</ele><time>2026-04-30T21:44:18.062Z</time></trkpt><trkpt lat="43.007088" lon="6.6213411"><ele>0.0</ele><time>2026-04-30T21:44:19.062Z</time></trkpt><trkpt lat="43.0071324" lon="6.6214345"><ele>0.0</ele><time>2026-04-30T21:44:20.063Z</time></trkpt><trkpt lat="43.0071789" lon="6.6215282"><ele>0.0</ele><time>2026-04-30T21:44:21.062Z</time></trkpt><trkpt lat="43.0072271" lon="6.62162"><ele>0.0</ele><time>2026-04-30T21:44:22.063Z</time></trkpt><trkpt lat="43.0072753" lon="6.62171"><ele>0.0</ele><time>2026-04-30T21:44:23.062Z</time></trkpt><trkpt lat="43.0073235" lon="6.6217999"><ele>0.0</ele><time>2026-04-30T21:44:24.063Z</time></trkpt><trkpt lat="43.0073732" lon="6.6218926"><ele>0.0</ele><time>2026-04-30T21:44:25.063Z</time></trkpt><trkpt lat="43.0074274" lon="6.6219835"><ele>0.0</ele><time>2026-04-30T21:44:26.063Z</time></trkpt><trkpt lat="43.007484" lon="6.6220736"><ele>0.0</ele><time>2026-04-30T21:44:27.062Z</time></trkpt><trkpt lat="43.0075381" lon="6.6221647"><ele>0.0</ele><time>2026-04-30T21:44:28.063Z</time></trkpt><trkpt lat="43.0075886" lon="6.6222579"><ele>0.0</ele><time>2026-04-30T21:44:29.062Z</time></trkpt><trkpt lat="43.0076357" lon="6.62235"><ele>0.0</ele><time>2026-04-30T21:44:30.063Z</time></trkpt><trkpt lat="43.0076808" lon="6.62244"><ele>0.0</ele><time>2026-04-30T21:44:31.062Z</time></trkpt><trkpt lat="43.0077274" lon="6.6225302"><ele>0.0</ele><time>2026-04-30T21:44:32.063Z</time></trkpt><trkpt lat="43.0077738" lon="6.6226204"><ele>0.0</ele><time>2026-04-30T21:44:33.063Z</time></trkpt><trkpt lat="43.0078257" lon="6.6227102"><ele>0.0</ele><time>2026-04-30T21:44:34.063Z</time></trkpt><trkpt lat="43.0078754" lon="6.6228002"><ele>0.0</ele><time>2026-04-30T21:44:35.063Z</time></trkpt><trkpt lat="43.0079277" lon="6.6228918"><ele>0.0</ele><time>2026-04-30T21:44:36.063Z</time></trkpt><trkpt lat="43.0079813" lon="6.6229789"><ele>0.0</ele><time>2026-04-30T21:44:37.062Z</time></trkpt><trkpt lat="43.0080361" lon="6.6230666"><ele>0.0</ele><time>2026-04-30T21:44:38.062Z</time></trkpt><trkpt lat="43.0081917" lon="6.62333"><ele>0.0</ele><time>2026-04-30T21:44:41.062Z</time></trkpt><trkpt lat="43.0082452" lon="6.6234151"><ele>0.0</ele><time>2026-04-30T21:44:42.063Z</time></trkpt><trkpt lat="43.0082952" lon="6.6235045"><ele>0.0</ele><time>2026-04-30T21:44:43.062Z</time></trkpt><trkpt lat="43.0083464" lon="6.6235967"><ele>0.0</ele><time>2026-04-30T21:44:44.062Z</time></trkpt><trkpt lat="43.0083966" lon="6.6236901"><ele>0.0</ele><time>2026-04-30T21:44:45.063Z</time></trkpt><trkpt lat="43.0084496" lon="6.6237832"><ele>0.0</ele><time>2026-04-30T21:44:46.062Z</time></trkpt><trkpt lat="43.0085004" lon="6.6238751"><ele>0.0</ele><time>2026-04-30T21:44:47.062Z</time></trkpt><trkpt lat="43.0085518" lon="6.6239666"><ele>0.0</ele><time>2026-04-30T21:44:48.062Z</time></trkpt><trkpt lat="43.008602" lon="6.6240582"><ele>0.0</ele><time>2026-04-30T21:44:49.063Z</time></trkpt><trkpt lat="43.0086522" lon="6.6241511"><ele>0.0</ele><time>2026-04-30T21:44:50.063Z</time></trkpt><trkpt lat="43.0087032" lon="6.624246"><ele>0.0</ele><time>2026-04-30T21:44:51.063Z</time></trkpt><trkpt lat="43.0087508" lon="6.6243424"><ele>0.0</ele><time>2026-04-30T21:44:52.062Z</time></trkpt><trkpt lat="43.0087999" lon="6.6244382"><ele>0.0</ele><time>2026-04-30T21:44:53.063Z</time></trkpt><trkpt lat="43.0088528" lon="6.6245318"><ele>0.0</ele><time>2026-04-30T21:44:54.062Z</time></trkpt><trkpt lat="43.0089053" lon="6.6246263"><ele>0.0</ele><time>2026-04-30T21:44:55.062Z</time></trkpt><trkpt lat="43.0089538" lon="6.6247189"><ele>0.0</ele><time>2026-04-30T21:44:56.062Z</time></trkpt><trkpt lat="43.0090017" lon="6.6248098"><ele>0.0</ele><time>2026-04-30T21:44:57.063Z</time></trkpt><trkpt lat="43.0090517" lon="6.6249047"><ele>0.0</ele><time>2026-04-30T21:44:58.063Z</time></trkpt><trkpt lat="43.0091064" lon="6.6249964"><ele>0.0</ele><time>2026-04-30T21:44:59.062Z</time></trkpt><trkpt lat="43.0091585" lon="6.6250852"><ele>0.0</ele><time>2026-04-30T21:45:00.062Z</time></trkpt><trkpt lat="43.0092646" lon="6.6252643"><ele>0.0</ele><time>2026-04-30T21:45:02.062Z</time></trkpt><trkpt lat="43.0093168" lon="6.6253567"><ele>0.0</ele><time>2026-04-30T21:45:03.063Z</time></trkpt><trkpt lat="43.0093665" lon="6.6254497"><ele>0.0</ele><time>2026-04-30T21:45:04.063Z</time></trkpt><trkpt lat="43.0094179" lon="6.6255445"><ele>0.0</ele><time>2026-04-30T21:45:05.062Z</time></trkpt><trkpt lat="43.0094714" lon="6.6256379"><ele>0.0</ele><time>2026-04-30T21:45:06.062Z</time></trkpt><trkpt lat="43.0095263" lon="6.6257314"><ele>0.0</ele><time>2026-04-30T21:45:07.062Z</time></trkpt><trkpt lat="43.0095799" lon="6.6258201"><ele>0.0</ele><time>2026-04-30T21:45:08.062Z</time></trkpt><trkpt lat="43.0096332" lon="6.62591"><ele>0.0</ele><time>2026-04-30T21:45:09.062Z</time></trkpt><trkpt lat="43.0096806" lon="6.6260003"><ele>0.0</ele><time>2026-04-30T21:45:10.063Z</time></trkpt><trkpt lat="43.0097817" lon="6.6261851"><ele>0.0</ele><time>2026-04-30T21:45:12.063Z</time></trkpt><trkpt lat="43.0098304" lon="6.6262753"><ele>0.0</ele><time>2026-04-30T21:45:13.063Z</time></trkpt><trkpt lat="43.0098803" lon="6.6263623"><ele>0.0</ele><time>2026-04-30T21:45:14.062Z</time></trkpt><trkpt lat="43.0099256" lon="6.6264505"><ele>0.0</ele><time>2026-04-30T21:45:15.063Z</time></trkpt><trkpt lat="43.00997" lon="6.6265443"><ele>0.0</ele><time>2026-04-30T21:45:16.063Z</time></trkpt><trkpt lat="43.0100183" lon="6.6266412"><ele>0.0</ele><time>2026-04-30T21:45:17.062Z</time></trkpt><trkpt lat="43.0100683" lon="6.6267345"><ele>0.0</ele><time>2026-04-30T21:45:18.062Z</time></trkpt><trkpt lat="43.0101197" lon="6.6268324"><ele>0.0</ele><time>2026-04-30T21:45:19.062Z</time></trkpt><trkpt lat="43.0101717" lon="6.6269263"><ele>0.0</ele><time>2026-04-30T21:45:20.062Z</time></trkpt><trkpt lat="43.010222" lon="6.6270167"><ele>0.0</ele><time>2026-04-30T21:45:21.062Z</time></trkpt><trkpt lat="43.0103206" lon="6.6272046"><ele>0.0</ele><time>2026-04-30T21:45:23.062Z</time></trkpt><trkpt lat="43.0103717" lon="6.6272981"><ele>0.0</ele><time>2026-04-30T21:45:24.063Z</time></trkpt><trkpt lat="43.010422" lon="6.6273899"><ele>0.0</ele><time>2026-04-30T21:45:25.062Z</time></trkpt><trkpt lat="43.0104683" lon="6.6274819"><ele>0.0</ele><time>2026-04-30T21:45:26.062Z</time></trkpt><trkpt lat="43.0105136" lon="6.627572"><ele>0.0</ele><time>2026-04-30T21:45:27.063Z</time></trkpt><trkpt lat="43.0105596" lon="6.6276677"><ele>0.0</ele><time>2026-04-30T21:45:28.063Z</time></trkpt><trkpt lat="43.01061" lon="6.6277613"><ele>0.0</ele><time>2026-04-30T21:45:29.062Z</time></trkpt><trkpt lat="43.0106583" lon="6.6278518"><ele>0.0</ele><time>2026-04-30T21:45:30.063Z</time></trkpt><trkpt lat="43.0107082" lon="6.6279431"><ele>0.0</ele><time>2026-04-30T21:45:31.062Z</time></trkpt><trkpt lat="43.0107596" lon="6.6280379"><ele>0.0</ele><time>2026-04-30T21:45:32.063Z</time></trkpt><trkpt lat="43.0108106" lon="6.6281286"><ele>0.0</ele><time>2026-04-30T21:45:33.062Z</time></trkpt><trkpt lat="43.0108621" lon="6.6282188"><ele>0.0</ele><time>2026-04-30T21:45:34.062Z</time></trkpt><trkpt lat="43.0109133" lon="6.6283082"><ele>0.0</ele><time>2026-04-30T21:45:35.063Z</time></trkpt><trkpt lat="43.0109665" lon="6.6283979"><ele>0.0</ele><time>2026-04-30T21:45:36.063Z</time></trkpt><trkpt lat="43.01102" lon="6.6284912"><ele>0.0</ele><time>2026-04-30T21:45:37.062Z</time></trkpt><trkpt lat="43.0110737" lon="6.6285789"><ele>0.0</ele><time>2026-04-30T21:45:38.062Z</time></trkpt><trkpt lat="43.0111253" lon="6.6286669"><ele>0.0</ele><time>2026-04-30T21:45:39.062Z</time></trkpt><trkpt lat="43.0111769" lon="6.628758"><ele>0.0</ele><time>2026-04-30T21:45:40.062Z</time></trkpt><trkpt lat="43.0112286" lon="6.6288496"><ele>0.0</ele><time>2026-04-30T21:45:41.062Z</time></trkpt><trkpt lat="43.0112817" lon="6.6289384"><ele>0.0</ele><time>2026-04-30T21:45:42.063Z</time></trkpt><trkpt lat="43.0114339" lon="6.6292052"><ele>0.0</ele><time>2026-04-30T21:45:45.063Z</time></trkpt><trkpt lat="43.0114832" lon="6.6292976"><ele>0.0</ele><time>2026-04-30T21:45:46.063Z</time></trkpt><trkpt lat="43.0115351" lon="6.629388"><ele>0.0</ele><time>2026-04-30T21:45:47.062Z</time></trkpt><trkpt lat="43.0115896" lon="6.6294809"><ele>0.0</ele><time>2026-04-30T21:45:48.063Z</time></trkpt><trkpt lat="43.0116445" lon="6.6295759"><ele>0.0</ele><time>2026-04-30T21:45:49.062Z</time></trkpt><trkpt lat="43.0116956" lon="6.6296651"><ele>0.0</ele><time>2026-04-30T21:45:50.062Z</time></trkpt><trkpt lat="43.0117468" lon="6.6297598"><ele>0.0</ele><time>2026-04-30T21:45:51.063Z</time></trkpt><trkpt lat="43.0118001" lon="6.6298501"><ele>0.0</ele><time>2026-04-30T21:45:52.062Z</time></trkpt><trkpt lat="43.0118487" lon="6.629938"><ele>0.0</ele><time>2026-04-30T21:45:53.062Z</time></trkpt><trkpt lat="43.0118956" lon="6.6300266"><ele>0.0</ele><time>2026-04-30T21:45:54.062Z</time></trkpt><trkpt lat="43.0119423" lon="6.6301148"><ele>0.0</ele><time>2026-04-30T21:45:55.062Z</time></trkpt><trkpt lat="43.0119919" lon="6.6302062"><ele>0.0</ele><time>2026-04-30T21:45:56.062Z</time></trkpt><trkpt lat="43.0120448" lon="6.6302981"><ele>0.0</ele><time>2026-04-30T21:45:57.063Z</time></trkpt><trkpt lat="43.0120983" lon="6.6303884"><ele>0.0</ele><time>2026-04-30T21:45:58.062Z</time></trkpt><trkpt lat="43.01215" lon="6.6304769"><ele>0.0</ele><time>2026-04-30T21:45:59.063Z</time></trkpt><trkpt lat="43.0122032" lon="6.6305666"><ele>0.0</ele><time>2026-04-30T21:46:00.063Z</time></trkpt><trkpt lat="43.0122566" lon="6.6306579"><ele>0.0</ele><time>2026-04-30T21:46:01.062Z</time></trkpt><trkpt lat="43.0123118" lon="6.630747"><ele>0.0</ele><time>2026-04-30T21:46:02.062Z</time></trkpt><trkpt lat="43.0123626" lon="6.6308331"><ele>0.0</ele><time>2026-04-30T21:46:03.063Z</time></trkpt><trkpt lat="43.0124111" lon="6.6309222"><ele>0.0</ele><time>2026-04-30T21:46:04.062Z</time></trkpt><trkpt lat="43.0125121" lon="6.6311075"><ele>0.0</ele><time>2026-04-30T21:46:06.062Z</time></trkpt><trkpt lat="43.012562" lon="6.6311996"><ele>0.0</ele><time>2026-04-30T21:46:07.062Z</time></trkpt><trkpt lat="43.012612" lon="6.6312895"><ele>0.0</ele><time>2026-04-30T21:46:08.062Z</time></trkpt><trkpt lat="43.012662" lon="6.6313796"><ele>0.0</ele><time>2026-04-30T21:46:09.063Z</time></trkpt><trkpt lat="43.0127148" lon="6.6314696"><ele>0.0</ele><time>2026-04-30T21:46:10.063Z</time></trkpt><trkpt lat="43.0127654" lon="6.6315613"><ele>0.0</ele><time>2026-04-30T21:46:11.063Z</time></trkpt><trkpt lat="43.0128119" lon="6.6316575"><ele>0.0</ele><time>2026-04-30T21:46:12.062Z</time></trkpt><trkpt lat="43.0128601" lon="6.6317514"><ele>0.0</ele><time>2026-04-30T21:46:13.063Z</time></trkpt><trkpt lat="43.0129111" lon="6.6318487"><ele>0.0</ele><time>2026-04-30T21:46:14.062Z</time></trkpt><trkpt lat="43.0129607" lon="6.6319473"><ele>0.0</ele><time>2026-04-30T21:46:15.063Z</time></trkpt><trkpt lat="43.0130686" lon="6.6321271"><ele>0.0</ele><time>2026-04-30T21:46:17.063Z</time></trkpt><trkpt lat="43.013117" lon="6.6322168"><ele>0.0</ele><time>2026-04-30T21:46:18.063Z</time></trkpt><trkpt lat="43.0131654" lon="6.6323051"><ele>0.0</ele><time>2026-04-30T21:46:19.062Z</time></trkpt><trkpt lat="43.0132132" lon="6.6323935"><ele>0.0</ele><time>2026-04-30T21:46:20.062Z</time></trkpt><trkpt lat="43.0132573" lon="6.632485"><ele>0.0</ele><time>2026-04-30T21:46:21.062Z</time></trkpt><trkpt lat="43.0133038" lon="6.6325768"><ele>0.0</ele><time>2026-04-30T21:46:22.062Z</time></trkpt><trkpt lat="43.01335" lon="6.6326682"><ele>0.0</ele><time>2026-04-30T21:46:23.062Z</time></trkpt><trkpt lat="43.0133983" lon="6.6327598"><ele>0.0</ele><time>2026-04-30T21:46:24.062Z</time></trkpt><trkpt lat="43.013448" lon="6.6328515"><ele>0.0</ele><time>2026-04-30T21:46:25.063Z</time></trkpt><trkpt lat="43.0135548" lon="6.6330329"><ele>0.0</ele><time>2026-04-30T21:46:27.062Z</time></trkpt><trkpt lat="43.0136052" lon="6.633122"><ele>0.0</ele><time>2026-04-30T21:46:28.062Z</time></trkpt><trkpt lat="43.0136549" lon="6.6332144"><ele>0.0</ele><time>2026-04-30T21:46:29.062Z</time></trkpt><trkpt lat="43.0137034" lon="6.6333053"><ele>0.0</ele><time>2026-04-30T21:46:30.063Z</time></trkpt><trkpt lat="43.0137529" lon="6.6334009"><ele>0.0</ele><time>2026-04-30T21:46:31.062Z</time></trkpt><trkpt lat="43.0138108" lon="6.6334916"><ele>0.0</ele><time>2026-04-30T21:46:32.062Z</time></trkpt><trkpt lat="43.0138625" lon="6.6335832"><ele>0.0</ele><time>2026-04-30T21:46:33.062Z</time></trkpt><trkpt lat="43.0139132" lon="6.6336762"><ele>0.0</ele><time>2026-04-30T21:46:34.063Z</time></trkpt><trkpt lat="43.0139685" lon="6.633767"><ele>0.0</ele><time>2026-04-30T21:46:35.062Z</time></trkpt><trkpt lat="43.0140218" lon="6.6338596"><ele>0.0</ele><time>2026-04-30T21:46:36.063Z</time></trkpt><trkpt lat="43.0140736" lon="6.6339519"><ele>0.0</ele><time>2026-04-30T21:46:37.063Z</time></trkpt><trkpt lat="43.0141209" lon="6.6340476"><ele>0.0</ele><time>2026-04-30T21:46:38.062Z</time></trkpt><trkpt lat="43.0141688" lon="6.6341399"><ele>0.0</ele><time>2026-04-30T21:46:39.063Z</time></trkpt><trkpt lat="43.0142184" lon="6.6342282"><ele>0.0</ele><time>2026-04-30T21:46:40.062Z</time></trkpt><trkpt lat="43.0142682" lon="6.6343224"><ele>0.0</ele><time>2026-04-30T21:46:41.062Z</time></trkpt><trkpt lat="43.0143236" lon="6.63441"><ele>0.0</ele><time>2026-04-30T21:46:42.063Z</time></trkpt><trkpt lat="43.0143736" lon="6.6345"><ele>0.0</ele><time>2026-04-30T21:46:43.062Z</time></trkpt><trkpt lat="43.0144231" lon="6.6345944"><ele>0.0</ele><time>2026-04-30T21:46:44.063Z</time></trkpt><trkpt lat="43.0144714" lon="6.6346878"><ele>0.0</ele><time>2026-04-30T21:46:45.062Z</time></trkpt><trkpt lat="43.0145213" lon="6.6347839"><ele>0.0</ele><time>2026-04-30T21:46:46.063Z</time></trkpt><trkpt lat="43.014572" lon="6.6348765"><ele>0.0</ele><time>2026-04-30T21:46:47.063Z</time></trkpt><trkpt lat="43.0146223" lon="6.6349653"><ele>0.0</ele><time>2026-04-30T21:46:48.063Z</time></trkpt><trkpt lat="43.0147159" lon="6.6351481"><ele>0.0</ele><time>2026-04-30T21:46:50.062Z</time></trkpt><trkpt lat="43.0147645" lon="6.63524"><ele>0.0</ele><time>2026-04-30T21:46:51.062Z</time></trkpt><trkpt lat="43.0148167" lon="6.6353317"><ele>0.0</ele><time>2026-04-30T21:46:52.063Z</time></trkpt><trkpt lat="43.0148693" lon="6.635422"><ele>0.0</ele><time>2026-04-30T21:46:53.062Z</time></trkpt><trkpt lat="43.0149181" lon="6.6355151"><ele>0.0</ele><time>2026-04-30T21:46:54.063Z</time></trkpt><trkpt lat="43.0149697" lon="6.6356083"><ele>0.0</ele><time>2026-04-30T21:46:55.063Z</time></trkpt><trkpt lat="43.0150204" lon="6.6356969"><ele>0.0</ele><time>2026-04-30T21:46:56.062Z</time></trkpt><trkpt lat="43.01507" lon="6.6357899"><ele>0.0</ele><time>2026-04-30T21:46:57.063Z</time></trkpt><trkpt lat="43.0151216" lon="6.6358786"><ele>0.0</ele><time>2026-04-30T21:46:58.062Z</time></trkpt><trkpt lat="43.0151717" lon="6.6359685"><ele>0.0</ele><time>2026-04-30T21:46:59.062Z</time></trkpt><trkpt lat="43.0152215" lon="6.6360615"><ele>0.0</ele><time>2026-04-30T21:47:00.062Z</time></trkpt><trkpt lat="43.0152717" lon="6.6361546"><ele>0.0</ele><time>2026-04-30T21:47:01.062Z</time></trkpt><trkpt lat="43.0153217" lon="6.6362451"><ele>0.0</ele><time>2026-04-30T21:47:02.063Z</time></trkpt><trkpt lat="43.0153717" lon="6.6363366"><ele>0.0</ele><time>2026-04-30T21:47:03.062Z</time></trkpt><trkpt lat="43.0154232" lon="6.636428"><ele>0.0</ele><time>2026-04-30T21:47:04.063Z</time></trkpt><trkpt lat="43.0154762" lon="6.636524"><ele>0.0</ele><time>2026-04-30T21:47:05.062Z</time></trkpt><trkpt lat="43.0155284" lon="6.6366167"><ele>0.0</ele><time>2026-04-30T21:47:06.062Z</time></trkpt><trkpt lat="43.0155812" lon="6.6367073"><ele>0.0</ele><time>2026-04-30T21:47:07.062Z</time></trkpt><trkpt lat="43.0156364" lon="6.636795"><ele>0.0</ele><time>2026-04-30T21:47:08.063Z</time></trkpt><trkpt lat="43.01574" lon="6.6369831"><ele>0.0</ele><time>2026-04-30T21:47:10.063Z</time></trkpt><trkpt lat="43.0157886" lon="6.6370734"><ele>0.0</ele><time>2026-04-30T21:47:11.062Z</time></trkpt><trkpt lat="43.0158381" lon="6.6371691"><ele>0.0</ele><time>2026-04-30T21:47:12.062Z</time></trkpt><trkpt lat="43.01589" lon="6.6372628"><ele>0.0</ele><time>2026-04-30T21:47:13.063Z</time></trkpt><trkpt lat="43.0159338" lon="6.6373562"><ele>0.0</ele><time>2026-04-30T21:47:14.062Z</time></trkpt><trkpt lat="43.0159819" lon="6.6374512"><ele>0.0</ele><time>2026-04-30T21:47:15.063Z</time></trkpt><trkpt lat="43.0160302" lon="6.6375435"><ele>0.0</ele><time>2026-04-30T21:47:16.062Z</time></trkpt><trkpt lat="43.0160781" lon="6.6376378"><ele>0.0</ele><time>2026-04-30T21:47:17.063Z</time></trkpt><trkpt lat="43.0161238" lon="6.637727"><ele>0.0</ele><time>2026-04-30T21:47:18.063Z</time></trkpt><trkpt lat="43.0161686" lon="6.6378169"><ele>0.0</ele><time>2026-04-30T21:47:19.063Z</time></trkpt><trkpt lat="43.0162136" lon="6.6379083"><ele>0.0</ele><time>2026-04-30T21:47:20.062Z</time></trkpt><trkpt lat="43.0162634" lon="6.6380014"><ele>0.0</ele><time>2026-04-30T21:47:21.062Z</time></trkpt><trkpt lat="43.0163117" lon="6.638095"><ele>0.0</ele><time>2026-04-30T21:47:22.062Z</time></trkpt><trkpt lat="43.0163572" lon="6.6381871"><ele>0.0</ele><time>2026-04-30T21:47:23.062Z</time></trkpt><trkpt lat="43.0164037" lon="6.6382784"><ele>0.0</ele><time>2026-04-30T21:47:24.063Z</time></trkpt><trkpt lat="43.0164485" lon="6.6383702"><ele>0.0</ele><time>2026-04-30T21:47:25.063Z</time></trkpt><trkpt lat="43.016493" lon="6.638462"><ele>0.0</ele><time>2026-04-30T21:47:26.062Z</time></trkpt><trkpt lat="43.0165494" lon="6.6385516"><ele>0.0</ele><time>2026-04-30T21:47:27.062Z</time></trkpt><trkpt lat="43.0166014" lon="6.6386466"><ele>0.0</ele><time>2026-04-30T21:47:28.063Z</time></trkpt><trkpt lat="43.0166516" lon="6.6387381"><ele>0.0</ele><time>2026-04-30T21:47:29.063Z</time></trkpt><trkpt lat="43.0167545" lon="6.6389263"><ele>0.0</ele><time>2026-04-30T21:47:31.062Z</time></trkpt><trkpt lat="43.0168099" lon="6.6390194"><ele>0.0</ele><time>2026-04-30T21:47:32.062Z</time></trkpt><trkpt lat="43.0168663" lon="6.6391115"><ele>0.0</ele><time>2026-04-30T21:47:33.062Z</time></trkpt><trkpt lat="43.0169217" lon="6.6392065"><ele>0.0</ele><time>2026-04-30T21:47:34.063Z</time></trkpt><trkpt lat="43.0169767" lon="6.639298"><ele>0.0</ele><time>2026-04-30T21:47:35.063Z</time></trkpt><trkpt lat="43.0170301" lon="6.6393884"><ele>0.0</ele><time>2026-04-30T21:47:36.062Z</time></trkpt><trkpt lat="43.0170814" lon="6.6394771"><ele>0.0</ele><time>2026-04-30T21:47:37.062Z</time></trkpt><trkpt lat="43.0171313" lon="6.639568"><ele>0.0</ele><time>2026-04-30T21:47:38.062Z</time></trkpt><trkpt lat="43.0171819" lon="6.6396569"><ele>0.0</ele><time>2026-04-30T21:47:39.062Z</time></trkpt><trkpt lat="43.0172337" lon="6.6397407"><ele>0.0</ele><time>2026-04-30T21:47:40.062Z</time></trkpt><trkpt lat="43.0172937" lon="6.6398282"><ele>0.0</ele><time>2026-04-30T21:47:41.063Z</time></trkpt><trkpt lat="43.0173481" lon="6.6399198"><ele>0.0</ele><time>2026-04-30T21:47:42.062Z</time></trkpt><trkpt lat="43.0174001" lon="6.6400117"><ele>0.0</ele><time>2026-04-30T21:47:43.063Z</time></trkpt><trkpt lat="43.0174499" lon="6.6401034"><ele>0.0</ele><time>2026-04-30T21:47:44.062Z</time></trkpt><trkpt lat="43.0175065" lon="6.640194"><ele>0.0</ele><time>2026-04-30T21:47:45.062Z</time></trkpt><trkpt lat="43.0175587" lon="6.6402838"><ele>0.0</ele><time>2026-04-30T21:47:46.062Z</time></trkpt><trkpt lat="43.01761" lon="6.6403733"><ele>0.0</ele><time>2026-04-30T21:47:47.062Z</time></trkpt><trkpt lat="43.0176632" lon="6.6404618"><ele>0.0</ele><time>2026-04-30T21:47:48.063Z</time></trkpt><trkpt lat="43.0177121" lon="6.6405512"><ele>0.0</ele><time>2026-04-30T21:47:49.062Z</time></trkpt><trkpt lat="43.0177633" lon="6.6406411"><ele>0.0</ele><time>2026-04-30T21:47:50.062Z</time></trkpt><trkpt lat="43.0178154" lon="6.64073"><ele>0.0</ele><time>2026-04-30T21:47:51.062Z</time></trkpt><trkpt lat="43.0179764" lon="6.6409998"><ele>0.0</ele><time>2026-04-30T21:47:54.062Z</time></trkpt><trkpt lat="43.0180264" lon="6.6410976"><ele>0.0</ele><time>2026-04-30T21:47:55.063Z</time></trkpt><trkpt lat="43.0180747" lon="6.6411931"><ele>0.0</ele><time>2026-04-30T21:47:56.063Z</time></trkpt><trkpt lat="43.0181247" lon="6.6412864"><ele>0.0</ele><time>2026-04-30T21:47:57.062Z</time></trkpt><trkpt lat="43.0181729" lon="6.6413814"><ele>0.0</ele><time>2026-04-30T21:47:58.062Z</time></trkpt><trkpt lat="43.0182213" lon="6.641475"><ele>0.0</ele><time>2026-04-30T21:47:59.063Z</time></trkpt><trkpt lat="43.0182714" lon="6.641568"><ele>0.0</ele><time>2026-04-30T21:48:00.063Z</time></trkpt><trkpt lat="43.01832" lon="6.64166"><ele>0.0</ele><time>2026-04-30T21:48:01.062Z</time></trkpt><trkpt lat="43.0183655" lon="6.6417522"><ele>0.0</ele><time>2026-04-30T21:48:02.062Z</time></trkpt><trkpt lat="43.0184125" lon="6.6418483"><ele>0.0</ele><time>2026-04-30T21:48:03.062Z</time></trkpt><trkpt lat="43.0184615" lon="6.6419432"><ele>0.0</ele><time>2026-04-30T21:48:04.062Z</time></trkpt><trkpt lat="43.0185157" lon="6.6420322"><ele>0.0</ele><time>2026-04-30T21:48:05.062Z</time></trkpt><trkpt lat="43.0185652" lon="6.6421221"><ele>0.0</ele><time>2026-04-30T21:48:06.063Z</time></trkpt><trkpt lat="43.0186178" lon="6.6422175"><ele>0.0</ele><time>2026-04-30T21:48:07.062Z</time></trkpt><trkpt lat="43.0186698" lon="6.6423114"><ele>0.0</ele><time>2026-04-30T21:48:08.063Z</time></trkpt><trkpt lat="43.0187199" lon="6.6424064"><ele>0.0</ele><time>2026-04-30T21:48:09.062Z</time></trkpt><trkpt lat="43.0187698" lon="6.6424997"><ele>0.0</ele><time>2026-04-30T21:48:10.063Z</time></trkpt><trkpt lat="43.0188227" lon="6.6425915"><ele>0.0</ele><time>2026-04-30T21:48:11.063Z</time></trkpt><trkpt lat="43.0188716" lon="6.6426845"><ele>0.0</ele><time>2026-04-30T21:48:12.062Z</time></trkpt><trkpt lat="43.0189217" lon="6.6427779"><ele>0.0</ele><time>2026-04-30T21:48:13.062Z</time></trkpt><trkpt lat="43.0190213" lon="6.6429648"><ele>0.0</ele><time>2026-04-30T21:48:15.063Z</time></trkpt><trkpt lat="43.0190734" lon="6.6430568"><ele>0.0</ele><time>2026-04-30T21:48:16.062Z</time></trkpt><trkpt lat="43.0191183" lon="6.6431483"><ele>0.0</ele><time>2026-04-30T21:48:17.062Z</time></trkpt><trkpt lat="43.0191616" lon="6.6432429"><ele>0.0</ele><time>2026-04-30T21:48:18.062Z</time></trkpt><trkpt lat="43.0192129" lon="6.6433346"><ele>0.0</ele><time>2026-04-30T21:48:19.062Z</time></trkpt><trkpt lat="43.0192602" lon="6.6434279"><ele>0.0</ele><time>2026-04-30T21:48:20.063Z</time></trkpt><trkpt lat="43.0193084" lon="6.6435199"><ele>0.0</ele><time>2026-04-30T21:48:21.062Z</time></trkpt><trkpt lat="43.0193597" lon="6.6436082"><ele>0.0</ele><time>2026-04-30T21:48:22.063Z</time></trkpt><trkpt lat="43.01941" lon="6.6436937"><ele>0.0</ele><time>2026-04-30T21:48:23.063Z</time></trkpt><trkpt lat="43.0195052" lon="6.6438739"><ele>0.0</ele><time>2026-04-30T21:48:25.062Z</time></trkpt><trkpt lat="43.0195548" lon="6.6439654"><ele>0.0</ele><time>2026-04-30T21:48:26.063Z</time></trkpt><trkpt lat="43.0196065" lon="6.6440554"><ele>0.0</ele><time>2026-04-30T21:48:27.063Z</time></trkpt><trkpt lat="43.0196593" lon="6.6441473"><ele>0.0</ele><time>2026-04-30T21:48:28.063Z</time></trkpt><trkpt lat="43.0197132" lon="6.6442402"><ele>0.0</ele><time>2026-04-30T21:48:29.062Z</time></trkpt><trkpt lat="43.0197678" lon="6.6443312"><ele>0.0</ele><time>2026-04-30T21:48:30.062Z</time></trkpt><trkpt lat="43.0198272" lon="6.6444193"><ele>0.0</ele><time>2026-04-30T21:48:31.063Z</time></trkpt><trkpt lat="43.019881" lon="6.644509"><ele>0.0</ele><time>2026-04-30T21:48:32.062Z</time></trkpt><trkpt lat="43.0199349" lon="6.6445972"><ele>0.0</ele><time>2026-04-30T21:48:33.062Z</time></trkpt><trkpt lat="43.0199868" lon="6.6446852"><ele>0.0</ele><time>2026-04-30T21:48:34.063Z</time></trkpt><trkpt lat="43.0201028" lon="6.644856"><ele>0.0</ele><time>2026-04-30T21:48:36.062Z</time></trkpt><trkpt lat="43.0201581" lon="6.6449406"><ele>0.0</ele><time>2026-04-30T21:48:37.062Z</time></trkpt><trkpt lat="43.0202083" lon="6.6450283"><ele>0.0</ele><time>2026-04-30T21:48:38.063Z</time></trkpt><trkpt lat="43.0202571" lon="6.6451196"><ele>0.0</ele><time>2026-04-30T21:48:39.062Z</time></trkpt><trkpt lat="43.0203129" lon="6.6452128"><ele>0.0</ele><time>2026-04-30T21:48:40.063Z</time></trkpt><trkpt lat="43.0203594" lon="6.6453064"><ele>0.0</ele><time>2026-04-30T21:48:41.062Z</time></trkpt><trkpt lat="43.0204082" lon="6.6453996"><ele>0.0</ele><time>2026-04-30T21:48:42.062Z</time></trkpt><trkpt lat="43.0204554" lon="6.6454928"><ele>0.0</ele><time>2026-04-30T21:48:43.063Z</time></trkpt><trkpt lat="43.0205022" lon="6.6455832"><ele>0.0</ele><time>2026-04-30T21:48:44.062Z</time></trkpt><trkpt lat="43.0205504" lon="6.645673"><ele>0.0</ele><time>2026-04-30T21:48:45.062Z</time></trkpt><trkpt lat="43.0205985" lon="6.6457665"><ele>0.0</ele><time>2026-04-30T21:48:46.062Z</time></trkpt><trkpt lat="43.0206539" lon="6.6458542"><ele>0.0</ele><time>2026-04-30T21:48:47.063Z</time></trkpt><trkpt lat="43.0207083" lon="6.6459447"><ele>0.0</ele><time>2026-04-30T21:48:48.063Z</time></trkpt><trkpt lat="43.0207586" lon="6.6460366"><ele>0.0</ele><time>2026-04-30T21:48:49.062Z</time></trkpt><trkpt lat="43.0208152" lon="6.6461253"><ele>0.0</ele><time>2026-04-30T21:48:50.061Z</time></trkpt><trkpt lat="43.0208714" lon="6.646215"><ele>0.0</ele><time>2026-04-30T21:48:51.061Z</time></trkpt><trkpt lat="43.0209276" lon="6.6463067"><ele>0.0</ele><time>2026-04-30T21:48:52.062Z</time></trkpt><trkpt lat="43.0209762" lon="6.6463968"><ele>0.0</ele><time>2026-04-30T21:48:53.061Z</time></trkpt><trkpt lat="43.0210195" lon="6.6464899"><ele>0.0</ele><time>2026-04-30T21:48:54.061Z</time></trkpt><trkpt lat="43.0210598" lon="6.6465845"><ele>0.0</ele><time>2026-04-30T21:48:55.062Z</time></trkpt><trkpt lat="43.0212071" lon="6.6468665"><ele>0.0</ele><time>2026-04-30T21:48:58.062Z</time></trkpt><trkpt lat="43.0212568" lon="6.6469596"><ele>0.0</ele><time>2026-04-30T21:48:59.061Z</time></trkpt><trkpt lat="43.0213085" lon="6.6470532"><ele>0.0</ele><time>2026-04-30T21:49:00.062Z</time></trkpt><trkpt lat="43.0213571" lon="6.6471494"><ele>0.0</ele><time>2026-04-30T21:49:01.061Z</time></trkpt><trkpt lat="43.0214066" lon="6.6472477"><ele>0.0</ele><time>2026-04-30T21:49:02.061Z</time></trkpt><trkpt lat="43.0214552" lon="6.6473435"><ele>0.0</ele><time>2026-04-30T21:49:03.061Z</time></trkpt><trkpt lat="43.0215038" lon="6.6474395"><ele>0.0</ele><time>2026-04-30T21:49:04.061Z</time></trkpt><trkpt lat="43.0215514" lon="6.6475332"><ele>0.0</ele><time>2026-04-30T21:49:05.061Z</time></trkpt><trkpt lat="43.0216013" lon="6.6476251"><ele>0.0</ele><time>2026-04-30T21:49:06.062Z</time></trkpt><trkpt lat="43.0216515" lon="6.6477155"><ele>0.0</ele><time>2026-04-30T21:49:07.061Z</time></trkpt><trkpt lat="43.0217002" lon="6.647807"><ele>0.0</ele><time>2026-04-30T21:49:08.061Z</time></trkpt><trkpt lat="43.0217488" lon="6.6478987"><ele>0.0</ele><time>2026-04-30T21:49:09.062Z</time></trkpt><trkpt lat="43.0217982" lon="6.6479892"><ele>0.0</ele><time>2026-04-30T21:49:10.062Z</time></trkpt><trkpt lat="43.0218499" lon="6.6480798"><ele>0.0</ele><time>2026-04-30T21:49:11.061Z</time></trkpt><trkpt lat="43.0219044" lon="6.64817"><ele>0.0</ele><time>2026-04-30T21:49:12.062Z</time></trkpt><trkpt lat="43.0219566" lon="6.6482628"><ele>0.0</ele><time>2026-04-30T21:49:13.061Z</time></trkpt><trkpt lat="43.0220107" lon="6.6483534"><ele>0.0</ele><time>2026-04-30T21:49:14.062Z</time></trkpt><trkpt lat="43.022069" lon="6.6484423"><ele>0.0</ele><time>2026-04-30T21:49:15.061Z</time></trkpt><trkpt lat="43.0221207" lon="6.6485301"><ele>0.0</ele><time>2026-04-30T21:49:16.061Z</time></trkpt><trkpt lat="43.0221747" lon="6.6486216"><ele>0.0</ele><time>2026-04-30T21:49:17.062Z</time></trkpt><trkpt lat="43.0222831" lon="6.6488004"><ele>0.0</ele><time>2026-04-30T21:49:19.062Z</time></trkpt><trkpt lat="43.0223319" lon="6.6488873"><ele>0.0</ele><time>2026-04-30T21:49:20.062Z</time></trkpt><trkpt lat="43.0223832" lon="6.6489767"><ele>0.0</ele><time>2026-04-30T21:49:21.062Z</time></trkpt><trkpt lat="43.0224336" lon="6.649067"><ele>0.0</ele><time>2026-04-30T21:49:22.062Z</time></trkpt><trkpt lat="43.0224876" lon="6.649154"><ele>0.0</ele><time>2026-04-30T21:49:23.061Z</time></trkpt><trkpt lat="43.0225355" lon="6.6492451"><ele>0.0</ele><time>2026-04-30T21:49:24.061Z</time></trkpt><trkpt lat="43.0225851" lon="6.6493351"><ele>0.0</ele><time>2026-04-30T21:49:25.062Z</time></trkpt><trkpt lat="43.0226369" lon="6.6494251"><ele>0.0</ele><time>2026-04-30T21:49:26.062Z</time></trkpt><trkpt lat="43.0226851" lon="6.649518"><ele>0.0</ele><time>2026-04-30T21:49:27.062Z</time></trkpt><trkpt lat="43.0227867" lon="6.6497048"><ele>0.0</ele><time>2026-04-30T21:49:29.061Z</time></trkpt><trkpt lat="43.0228397" lon="6.649795"><ele>0.0</ele><time>2026-04-30T21:49:30.062Z</time></trkpt><trkpt lat="43.0228884" lon="6.6498868"><ele>0.0</ele><time>2026-04-30T21:49:31.062Z</time></trkpt><trkpt lat="43.0229396" lon="6.6499799"><ele>0.0</ele><time>2026-04-30T21:49:32.062Z</time></trkpt><trkpt lat="43.0229915" lon="6.6500732"><ele>0.0</ele><time>2026-04-30T21:49:33.062Z</time></trkpt><trkpt lat="43.0230459" lon="6.6501653"><ele>0.0</ele><time>2026-04-30T21:49:34.062Z</time></trkpt><trkpt lat="43.0230997" lon="6.6502572"><ele>0.0</ele><time>2026-04-30T21:49:35.061Z</time></trkpt><trkpt lat="43.023153" lon="6.6503483"><ele>0.0</ele><time>2026-04-30T21:49:36.061Z</time></trkpt><trkpt lat="43.0232113" lon="6.6504372"><ele>0.0</ele><time>2026-04-30T21:49:37.061Z</time></trkpt><trkpt lat="43.0232691" lon="6.6505253"><ele>0.0</ele><time>2026-04-30T21:49:38.062Z</time></trkpt><trkpt lat="43.023374" lon="6.65071"><ele>0.0</ele><time>2026-04-30T21:49:40.061Z</time></trkpt><trkpt lat="43.0234252" lon="6.6507998"><ele>0.0</ele><time>2026-04-30T21:49:41.061Z</time></trkpt><trkpt lat="43.0234794" lon="6.6508913"><ele>0.0</ele><time>2026-04-30T21:49:42.062Z</time></trkpt><trkpt lat="43.0235405" lon="6.6509833"><ele>0.0</ele><time>2026-04-30T21:49:43.061Z</time></trkpt><trkpt lat="43.0235959" lon="6.651075"><ele>0.0</ele><time>2026-04-30T21:49:44.062Z</time></trkpt><trkpt lat="43.023649" lon="6.651165"><ele>0.0</ele><time>2026-04-30T21:49:45.062Z</time></trkpt><trkpt lat="43.0237032" lon="6.6512551"><ele>0.0</ele><time>2026-04-30T21:49:46.062Z</time></trkpt><trkpt lat="43.023757" lon="6.6513451"><ele>0.0</ele><time>2026-04-30T21:49:47.062Z</time></trkpt><trkpt lat="43.0238119" lon="6.6514379"><ele>0.0</ele><time>2026-04-30T21:49:48.061Z</time></trkpt><trkpt lat="43.0238638" lon="6.65153"><ele>0.0</ele><time>2026-04-30T21:49:49.061Z</time></trkpt><trkpt lat="43.023914" lon="6.6516213"><ele>0.0</ele><time>2026-04-30T21:49:50.061Z</time></trkpt><trkpt lat="43.0239707" lon="6.6517115"><ele>0.0</ele><time>2026-04-30T21:49:51.061Z</time></trkpt><trkpt lat="43.02403" lon="6.6518017"><ele>0.0</ele><time>2026-04-30T21:49:52.061Z</time></trkpt><trkpt lat="43.0240854" lon="6.6518963"><ele>0.0</ele><time>2026-04-30T21:49:53.061Z</time></trkpt><trkpt lat="43.0241322" lon="6.6519914"><ele>0.0</ele><time>2026-04-30T21:49:54.062Z</time></trkpt><trkpt lat="43.0241736" lon="6.652086"><ele>0.0</ele><time>2026-04-30T21:49:55.062Z</time></trkpt><trkpt lat="43.0242131" lon="6.6521812"><ele>0.0</ele><time>2026-04-30T21:49:56.062Z</time></trkpt><trkpt lat="43.0242555" lon="6.652275"><ele>0.0</ele><time>2026-04-30T21:49:57.062Z</time></trkpt><trkpt lat="43.0242989" lon="6.6523681"><ele>0.0</ele><time>2026-04-30T21:49:58.062Z</time></trkpt><trkpt lat="43.0243456" lon="6.6524612"><ele>0.0</ele><time>2026-04-30T21:49:59.062Z</time></trkpt><trkpt lat="43.0244919" lon="6.6527427"><ele>0.0</ele><time>2026-04-30T21:50:02.061Z</time></trkpt><trkpt lat="43.0245385" lon="6.652835"><ele>0.0</ele><time>2026-04-30T21:50:03.061Z</time></trkpt><trkpt lat="43.0245896" lon="6.6529269"><ele>0.0</ele><time>2026-04-30T21:50:04.061Z</time></trkpt><trkpt lat="43.0246382" lon="6.6530202"><ele>0.0</ele><time>2026-04-30T21:50:05.062Z</time></trkpt><trkpt lat="43.0246877" lon="6.6531148"><ele>0.0</ele><time>2026-04-30T21:50:06.061Z</time></trkpt><trkpt lat="43.0247364" lon="6.6532086"><ele>0.0</ele><time>2026-04-30T21:50:07.062Z</time></trkpt><trkpt lat="43.0247844" lon="6.6533062"><ele>0.0</ele><time>2026-04-30T21:50:08.061Z</time></trkpt><trkpt lat="43.0248317" lon="6.6533983"><ele>0.0</ele><time>2026-04-30T21:50:09.062Z</time></trkpt><trkpt lat="43.0248829" lon="6.6534915"><ele>0.0</ele><time>2026-04-30T21:50:10.061Z</time></trkpt><trkpt lat="43.024932" lon="6.6535877"><ele>0.0</ele><time>2026-04-30T21:50:11.062Z</time></trkpt><trkpt lat="43.0249864" lon="6.6536819"><ele>0.0</ele><time>2026-04-30T21:50:12.061Z</time></trkpt><trkpt lat="43.0250369" lon="6.6537731"><ele>0.0</ele><time>2026-04-30T21:50:13.062Z</time></trkpt><trkpt lat="43.0250858" lon="6.6538666"><ele>0.0</ele><time>2026-04-30T21:50:14.062Z</time></trkpt><trkpt lat="43.025141" lon="6.6539599"><ele>0.0</ele><time>2026-04-30T21:50:15.062Z</time></trkpt><trkpt lat="43.0251971" lon="6.6540531"><ele>0.0</ele><time>2026-04-30T21:50:16.061Z</time></trkpt><trkpt lat="43.0252478" lon="6.6541431"><ele>0.0</ele><time>2026-04-30T21:50:17.061Z</time></trkpt><trkpt lat="43.0252969" lon="6.6542362"><ele>0.0</ele><time>2026-04-30T21:50:18.061Z</time></trkpt><trkpt lat="43.0253472" lon="6.654328"><ele>0.0</ele><time>2026-04-30T21:50:19.062Z</time></trkpt><trkpt lat="43.0253953" lon="6.6544182"><ele>0.0</ele><time>2026-04-30T21:50:20.061Z</time></trkpt><trkpt lat="43.0254466" lon="6.6545124"><ele>0.0</ele><time>2026-04-30T21:50:21.061Z</time></trkpt><trkpt lat="43.0255532" lon="6.6546966"><ele>0.0</ele><time>2026-04-30T21:50:23.062Z</time></trkpt><trkpt lat="43.0256084" lon="6.6547883"><ele>0.0</ele><time>2026-04-30T21:50:24.061Z</time></trkpt><trkpt lat="43.0256587" lon="6.6548828"><ele>0.0</ele><time>2026-04-30T21:50:25.062Z</time></trkpt><trkpt lat="43.0257091" lon="6.6549718"><ele>0.0</ele><time>2026-04-30T21:50:26.061Z</time></trkpt><trkpt lat="43.0257605" lon="6.6550615"><ele>0.0</ele><time>2026-04-30T21:50:27.062Z</time></trkpt><trkpt lat="43.0258122" lon="6.6551501"><ele>0.0</ele><time>2026-04-30T21:50:28.061Z</time></trkpt><trkpt lat="43.0258667" lon="6.6552413"><ele>0.0</ele><time>2026-04-30T21:50:29.061Z</time></trkpt><trkpt lat="43.0259247" lon="6.655332"><ele>0.0</ele><time>2026-04-30T21:50:30.061Z</time></trkpt><trkpt lat="43.0259789" lon="6.6554232"><ele>0.0</ele><time>2026-04-30T21:50:31.061Z</time></trkpt><trkpt lat="43.0260796" lon="6.6556009"><ele>0.0</ele><time>2026-04-30T21:50:33.062Z</time></trkpt><trkpt lat="43.0261365" lon="6.6556913"><ele>0.0</ele><time>2026-04-30T21:50:34.061Z</time></trkpt><trkpt lat="43.026186" lon="6.6557816"><ele>0.0</ele><time>2026-04-30T21:50:35.062Z</time></trkpt><trkpt lat="43.0262335" lon="6.6558714"><ele>0.0</ele><time>2026-04-30T21:50:36.061Z</time></trkpt><trkpt lat="43.0262865" lon="6.6559641"><ele>0.0</ele><time>2026-04-30T21:50:37.061Z</time></trkpt><trkpt lat="43.0263357" lon="6.6560595"><ele>0.0</ele><time>2026-04-30T21:50:38.061Z</time></trkpt><trkpt lat="43.0263876" lon="6.6561547"><ele>0.0</ele><time>2026-04-30T21:50:39.062Z</time></trkpt><trkpt lat="43.0264371" lon="6.6562479"><ele>0.0</ele><time>2026-04-30T21:50:40.062Z</time></trkpt><trkpt lat="43.0264883" lon="6.6563428"><ele>0.0</ele><time>2026-04-30T21:50:41.061Z</time></trkpt><trkpt lat="43.02654" lon="6.6564367"><ele>0.0</ele><time>2026-04-30T21:50:42.061Z</time></trkpt><trkpt lat="43.0266431" lon="6.6566156"><ele>0.0</ele><time>2026-04-30T21:50:44.061Z</time></trkpt><trkpt lat="43.026695" lon="6.6567066"><ele>0.0</ele><time>2026-04-30T21:50:45.061Z</time></trkpt><trkpt lat="43.0267465" lon="6.6567983"><ele>0.0</ele><time>2026-04-30T21:50:46.061Z</time></trkpt><trkpt lat="43.0267984" lon="6.6568909"><ele>0.0</ele><time>2026-04-30T21:50:47.061Z</time></trkpt><trkpt lat="43.0268526" lon="6.6569817"><ele>0.0</ele><time>2026-04-30T21:50:48.062Z</time></trkpt><trkpt lat="43.0269064" lon="6.6570734"><ele>0.0</ele><time>2026-04-30T21:50:49.062Z</time></trkpt><trkpt lat="43.0269583" lon="6.6571635"><ele>0.0</ele><time>2026-04-30T21:50:50.061Z</time></trkpt><trkpt lat="43.0270102" lon="6.6572551"><ele>0.0</ele><time>2026-04-30T21:50:51.062Z</time></trkpt><trkpt lat="43.027065" lon="6.6573464"><ele>0.0</ele><time>2026-04-30T21:50:52.062Z</time></trkpt><trkpt lat="43.0271139" lon="6.6574381"><ele>0.0</ele><time>2026-04-30T21:50:53.062Z</time></trkpt><trkpt lat="43.0271632" lon="6.6575327"><ele>0.0</ele><time>2026-04-30T21:50:54.061Z</time></trkpt><trkpt lat="43.0272122" lon="6.6576281"><ele>0.0</ele><time>2026-04-30T21:50:55.061Z</time></trkpt><trkpt lat="43.0272604" lon="6.6577199"><ele>0.0</ele><time>2026-04-30T21:50:56.062Z</time></trkpt><trkpt lat="43.0273102" lon="6.6578117"><ele>0.0</ele><time>2026-04-30T21:50:57.062Z</time></trkpt><trkpt lat="43.0273618" lon="6.6579019"><ele>0.0</ele><time>2026-04-30T21:50:58.061Z</time></trkpt><trkpt lat="43.0274109" lon="6.6579948"><ele>0.0</ele><time>2026-04-30T21:50:59.061Z</time></trkpt><trkpt lat="43.0274619" lon="6.6580852"><ele>0.0</ele><time>2026-04-30T21:51:00.061Z</time></trkpt><trkpt lat="43.0275136" lon="6.6581769"><ele>0.0</ele><time>2026-04-30T21:51:01.061Z</time></trkpt><trkpt lat="43.0275669" lon="6.6582671"><ele>0.0</ele><time>2026-04-30T21:51:02.061Z</time></trkpt><trkpt lat="43.0276217" lon="6.6583599"><ele>0.0</ele><time>2026-04-30T21:51:03.061Z</time></trkpt><trkpt lat="43.0276795" lon="6.6584546"><ele>0.0</ele><time>2026-04-30T21:51:04.061Z</time></trkpt><trkpt lat="43.0277819" lon="6.6586383"><ele>0.0</ele><time>2026-04-30T21:51:06.062Z</time></trkpt><trkpt lat="43.0278332" lon="6.6587357"><ele>0.0</ele><time>2026-04-30T21:51:07.062Z</time></trkpt><trkpt lat="43.0278827" lon="6.6588266"><ele>0.0</ele><time>2026-04-30T21:51:08.061Z</time></trkpt><trkpt lat="43.0279402" lon="6.6589298"><ele>0.0</ele><time>2026-04-30T21:51:09.061Z</time></trkpt><trkpt lat="43.0279986" lon="6.659032"><ele>0.0</ele><time>2026-04-30T21:51:10.062Z</time></trkpt><trkpt lat="43.0280569" lon="6.6591254"><ele>0.0</ele><time>2026-04-30T21:51:11.062Z</time></trkpt><trkpt lat="43.0281027" lon="6.6592198"><ele>0.0</ele><time>2026-04-30T21:51:12.061Z</time></trkpt><trkpt lat="43.0281612" lon="6.6593107"><ele>0.0</ele><time>2026-04-30T21:51:13.062Z</time></trkpt><trkpt lat="43.0282327" lon="6.6593937"><ele>0.0</ele><time>2026-04-30T21:51:14.062Z</time></trkpt><trkpt lat="43.028285" lon="6.6594823"><ele>0.0</ele><time>2026-04-30T21:51:15.062Z</time></trkpt><trkpt lat="43.0283453" lon="6.6595834"><ele>0.0</ele><time>2026-04-30T21:51:16.061Z</time></trkpt><trkpt lat="43.0283911" lon="6.6596697"><ele>0.0</ele><time>2026-04-30T21:51:17.062Z</time></trkpt><trkpt lat="43.0284359" lon="6.6597662"><ele>0.0</ele><time>2026-04-30T21:51:18.061Z</time></trkpt><trkpt lat="43.0284808" lon="6.6598556"><ele>0.0</ele><time>2026-04-30T21:51:19.062Z</time></trkpt><trkpt lat="43.0285312" lon="6.6599541"><ele>0.0</ele><time>2026-04-30T21:51:20.061Z</time></trkpt><trkpt lat="43.028574" lon="6.6600498"><ele>0.0</ele><time>2026-04-30T21:51:21.062Z</time></trkpt><trkpt lat="43.0286258" lon="6.660152"><ele>0.0</ele><time>2026-04-30T21:51:22.062Z</time></trkpt><trkpt lat="43.0286785" lon="6.6602419"><ele>0.0</ele><time>2026-04-30T21:51:23.061Z</time></trkpt><trkpt lat="43.0287287" lon="6.660332"><ele>0.0</ele><time>2026-04-30T21:51:24.061Z</time></trkpt><trkpt lat="43.0287755" lon="6.6604236"><ele>0.0</ele><time>2026-04-30T21:51:25.061Z</time></trkpt><trkpt lat="43.0288674" lon="6.6606054"><ele>0.0</ele><time>2026-04-30T21:51:27.061Z</time></trkpt><trkpt lat="43.0289167" lon="6.6606997"><ele>0.0</ele><time>2026-04-30T21:51:28.062Z</time></trkpt><trkpt lat="43.0289701" lon="6.660793"><ele>0.0</ele><time>2026-04-30T21:51:29.061Z</time></trkpt><trkpt lat="43.0290188" lon="6.6608852"><ele>0.0</ele><time>2026-04-30T21:51:30.061Z</time></trkpt><trkpt lat="43.0290683" lon="6.6609812"><ele>0.0</ele><time>2026-04-30T21:51:31.061Z</time></trkpt><trkpt lat="43.0291201" lon="6.6610747"><ele>0.0</ele><time>2026-04-30T21:51:32.062Z</time></trkpt><trkpt lat="43.02917" lon="6.6611697"><ele>0.0</ele><time>2026-04-30T21:51:33.062Z</time></trkpt><trkpt lat="43.0292214" lon="6.6612648"><ele>0.0</ele><time>2026-04-30T21:51:34.062Z</time></trkpt><trkpt lat="43.0292725" lon="6.6613541"><ele>0.0</ele><time>2026-04-30T21:51:35.061Z</time></trkpt><trkpt lat="43.0293204" lon="6.6614454"><ele>0.0</ele><time>2026-04-30T21:51:36.061Z</time></trkpt><trkpt lat="43.0293676" lon="6.6615339"><ele>0.0</ele><time>2026-04-30T21:51:37.061Z</time></trkpt><trkpt lat="43.029417" lon="6.6616252"><ele>0.0</ele><time>2026-04-30T21:51:38.062Z</time></trkpt><trkpt lat="43.0294684" lon="6.661718"><ele>0.0</ele><time>2026-04-30T21:51:39.062Z</time></trkpt><trkpt lat="43.0295169" lon="6.6618102"><ele>0.0</ele><time>2026-04-30T21:51:40.062Z</time></trkpt><trkpt lat="43.0295639" lon="6.6619031"><ele>0.0</ele><time>2026-04-30T21:51:41.061Z</time></trkpt><trkpt lat="43.0296145" lon="6.6619981"><ele>0.0</ele><time>2026-04-30T21:51:42.061Z</time></trkpt><trkpt lat="43.0296679" lon="6.662093"><ele>0.0</ele><time>2026-04-30T21:51:43.062Z</time></trkpt><trkpt lat="43.0297158" lon="6.6621883"><ele>0.0</ele><time>2026-04-30T21:51:44.062Z</time></trkpt><trkpt lat="43.0297654" lon="6.6622803"><ele>0.0</ele><time>2026-04-30T21:51:45.062Z</time></trkpt><trkpt lat="43.0298152" lon="6.6623719"><ele>0.0</ele><time>2026-04-30T21:51:46.062Z</time></trkpt><trkpt lat="43.0299105" lon="6.6625621"><ele>0.0</ele><time>2026-04-30T21:51:48.061Z</time></trkpt><trkpt lat="43.0299617" lon="6.6626536"><ele>0.0</ele><time>2026-04-30T21:51:49.061Z</time></trkpt><trkpt lat="43.0300127" lon="6.6627411"><ele>0.0</ele><time>2026-04-30T21:51:50.061Z</time></trkpt><trkpt lat="43.0300619" lon="6.6628318"><ele>0.0</ele><time>2026-04-30T21:51:51.061Z</time></trkpt><trkpt lat="43.0301159" lon="6.6629245"><ele>0.0</ele><time>2026-04-30T21:51:52.062Z</time></trkpt><trkpt lat="43.0301657" lon="6.6630165"><ele>0.0</ele><time>2026-04-30T21:51:53.061Z</time></trkpt><trkpt lat="43.030219" lon="6.6631086"><ele>0.0</ele><time>2026-04-30T21:51:54.062Z</time></trkpt><trkpt lat="43.0302744" lon="6.6632043"><ele>0.0</ele><time>2026-04-30T21:51:55.061Z</time></trkpt><trkpt lat="43.0303295" lon="6.6632951"><ele>0.0</ele><time>2026-04-30T21:51:56.061Z</time></trkpt><trkpt lat="43.0303786" lon="6.6633905"><ele>0.0</ele><time>2026-04-30T21:51:57.061Z</time></trkpt><trkpt lat="43.0304274" lon="6.6634818"><ele>0.0</ele><time>2026-04-30T21:51:58.061Z</time></trkpt><trkpt lat="43.0304797" lon="6.663572"><ele>0.0</ele><time>2026-04-30T21:51:59.061Z</time></trkpt><trkpt lat="43.0305346" lon="6.6636663"><ele>0.0</ele><time>2026-04-30T21:52:00.061Z</time></trkpt><trkpt lat="43.0305897" lon="6.6637585"><ele>0.0</ele><time>2026-04-30T21:52:01.062Z</time></trkpt><trkpt lat="43.0306469" lon="6.6638515"><ele>0.0</ele><time>2026-04-30T21:52:02.061Z</time></trkpt><trkpt lat="43.0307019" lon="6.6639461"><ele>0.0</ele><time>2026-04-30T21:52:03.062Z</time></trkpt><trkpt lat="43.0307526" lon="6.6640367"><ele>0.0</ele><time>2026-04-30T21:52:04.061Z</time></trkpt><trkpt lat="43.0308068" lon="6.6641279"><ele>0.0</ele><time>2026-04-30T21:52:05.061Z</time></trkpt><trkpt lat="43.0308587" lon="6.6642199"><ele>0.0</ele><time>2026-04-30T21:52:06.062Z</time></trkpt><trkpt lat="43.0309034" lon="6.6643129"><ele>0.0</ele><time>2026-04-30T21:52:07.061Z</time></trkpt><trkpt lat="43.0310536" lon="6.6645917"><ele>0.0</ele><time>2026-04-30T21:52:10.061Z</time></trkpt><trkpt lat="43.0311051" lon="6.6646862"><ele>0.0</ele><time>2026-04-30T21:52:11.061Z</time></trkpt><trkpt lat="43.0311522" lon="6.66478"><ele>0.0</ele><time>2026-04-30T21:52:12.062Z</time></trkpt><trkpt lat="43.0311987" lon="6.6648764"><ele>0.0</ele><time>2026-04-30T21:52:13.062Z</time></trkpt><trkpt lat="43.0312487" lon="6.6649702"><ele>0.0</ele><time>2026-04-30T21:52:14.061Z</time></trkpt><trkpt lat="43.0312971" lon="6.6650623"><ele>0.0</ele><time>2026-04-30T21:52:15.061Z</time></trkpt><trkpt lat="43.0313442" lon="6.6651506"><ele>0.0</ele><time>2026-04-30T21:52:16.061Z</time></trkpt><trkpt lat="43.0313902" lon="6.6652446"><ele>0.0</ele><time>2026-04-30T21:52:17.062Z</time></trkpt><trkpt lat="43.0314384" lon="6.6653367"><ele>0.0</ele><time>2026-04-30T21:52:18.061Z</time></trkpt><trkpt lat="43.0314898" lon="6.6654345"><ele>0.0</ele><time>2026-04-30T21:52:19.061Z</time></trkpt><trkpt lat="43.0315421" lon="6.66553"><ele>0.0</ele><time>2026-04-30T21:52:20.061Z</time></trkpt><trkpt lat="43.0315921" lon="6.6656221"><ele>0.0</ele><time>2026-04-30T21:52:21.062Z</time></trkpt><trkpt lat="43.0316387" lon="6.6657147"><ele>0.0</ele><time>2026-04-30T21:52:22.061Z</time></trkpt><trkpt lat="43.0316845" lon="6.6658025"><ele>0.0</ele><time>2026-04-30T21:52:23.061Z</time></trkpt><trkpt lat="43.031732" lon="6.665895"><ele>0.0</ele><time>2026-04-30T21:52:24.061Z</time></trkpt><trkpt lat="43.0317821" lon="6.6659863"><ele>0.0</ele><time>2026-04-30T21:52:25.061Z</time></trkpt><trkpt lat="43.0318345" lon="6.6660826"><ele>0.0</ele><time>2026-04-30T21:52:26.062Z</time></trkpt><trkpt lat="43.0318866" lon="6.6661794"><ele>0.0</ele><time>2026-04-30T21:52:27.061Z</time></trkpt><trkpt lat="43.0319414" lon="6.6662728"><ele>0.0</ele><time>2026-04-30T21:52:28.061Z</time></trkpt><trkpt lat="43.0319935" lon="6.6663666"><ele>0.0</ele><time>2026-04-30T21:52:29.062Z</time></trkpt><trkpt lat="43.0320953" lon="6.6665484"><ele>0.0</ele><time>2026-04-30T21:52:31.062Z</time></trkpt><trkpt lat="43.032144" lon="6.6666368"><ele>0.0</ele><time>2026-04-30T21:52:32.061Z</time></trkpt><trkpt lat="43.0321907" lon="6.6667284"><ele>0.0</ele><time>2026-04-30T21:52:33.062Z</time></trkpt><trkpt lat="43.0322399" lon="6.6668213"><ele>0.0</ele><time>2026-04-30T21:52:34.062Z</time></trkpt><trkpt lat="43.0322832" lon="6.6669102"><ele>0.0</ele><time>2026-04-30T21:52:35.061Z</time></trkpt><trkpt lat="43.0323266" lon="6.6670045"><ele>0.0</ele><time>2026-04-30T21:52:36.061Z</time></trkpt><trkpt lat="43.0323739" lon="6.6671009"><ele>0.0</ele><time>2026-04-30T21:52:37.061Z</time></trkpt><trkpt lat="43.0324265" lon="6.6671977"><ele>0.0</ele><time>2026-04-30T21:52:38.062Z</time></trkpt><trkpt lat="43.0324769" lon="6.6672929"><ele>0.0</ele><time>2026-04-30T21:52:39.061Z</time></trkpt><trkpt lat="43.0325803" lon="6.6674823"><ele>0.0</ele><time>2026-04-30T21:52:41.061Z</time></trkpt><trkpt lat="43.0326363" lon="6.667579"><ele>0.0</ele><time>2026-04-30T21:52:42.061Z</time></trkpt><trkpt lat="43.0326844" lon="6.6676743"><ele>0.0</ele><time>2026-04-30T21:52:43.061Z</time></trkpt><trkpt lat="43.032729" lon="6.6677694"><ele>0.0</ele><time>2026-04-30T21:52:44.062Z</time></trkpt><trkpt lat="43.0327734" lon="6.6678663"><ele>0.0</ele><time>2026-04-30T21:52:45.061Z</time></trkpt><trkpt lat="43.0328227" lon="6.6679646"><ele>0.0</ele><time>2026-04-30T21:52:46.061Z</time></trkpt><trkpt lat="43.0328721" lon="6.6680613"><ele>0.0</ele><time>2026-04-30T21:52:47.062Z</time></trkpt><trkpt lat="43.0329217" lon="6.6681534"><ele>0.0</ele><time>2026-04-30T21:52:48.062Z</time></trkpt><trkpt lat="43.0329716" lon="6.6682433"><ele>0.0</ele><time>2026-04-30T21:52:49.061Z</time></trkpt><trkpt lat="43.0330752" lon="6.6684316"><ele>0.0</ele><time>2026-04-30T21:52:51.062Z</time></trkpt><trkpt lat="43.0331225" lon="6.6685236"><ele>0.0</ele><time>2026-04-30T21:52:52.061Z</time></trkpt><trkpt lat="43.0331746" lon="6.6686164"><ele>0.0</ele><time>2026-04-30T21:52:53.061Z</time></trkpt><trkpt lat="43.0332226" lon="6.6687067"><ele>0.0</ele><time>2026-04-30T21:52:54.061Z</time></trkpt><trkpt lat="43.0332762" lon="6.6687956"><ele>0.0</ele><time>2026-04-30T21:52:55.062Z</time></trkpt><trkpt lat="43.0333215" lon="6.6688867"><ele>0.0</ele><time>2026-04-30T21:52:56.062Z</time></trkpt><trkpt lat="43.0333703" lon="6.6689769"><ele>0.0</ele><time>2026-04-30T21:52:57.061Z</time></trkpt><trkpt lat="43.0334201" lon="6.6690669"><ele>0.0</ele><time>2026-04-30T21:52:58.062Z</time></trkpt><trkpt lat="43.0334689" lon="6.6691583"><ele>0.0</ele><time>2026-04-30T21:52:59.062Z</time></trkpt><trkpt lat="43.0335162" lon="6.6692481"><ele>0.0</ele><time>2026-04-30T21:53:00.061Z</time></trkpt><trkpt lat="43.0335665" lon="6.6693386"><ele>0.0</ele><time>2026-04-30T21:53:01.061Z</time></trkpt><trkpt lat="43.0336194" lon="6.6694312"><ele>0.0</ele><time>2026-04-30T21:53:02.062Z</time></trkpt><trkpt lat="43.033673" lon="6.6695245"><ele>0.0</ele><time>2026-04-30T21:53:03.061Z</time></trkpt><trkpt lat="43.0337253" lon="6.6696151"><ele>0.0</ele><time>2026-04-30T21:53:04.062Z</time></trkpt><trkpt lat="43.0337782" lon="6.669708"><ele>0.0</ele><time>2026-04-30T21:53:05.061Z</time></trkpt><trkpt lat="43.0338345" lon="6.6698041"><ele>0.0</ele><time>2026-04-30T21:53:06.061Z</time></trkpt><trkpt lat="43.0338896" lon="6.6698981"><ele>0.0</ele><time>2026-04-30T21:53:07.061Z</time></trkpt><trkpt lat="43.0339402" lon="6.669993"><ele>0.0</ele><time>2026-04-30T21:53:08.061Z</time></trkpt><trkpt lat="43.0339888" lon="6.6700852"><ele>0.0</ele><time>2026-04-30T21:53:09.062Z</time></trkpt><trkpt lat="43.0340384" lon="6.6701798"><ele>0.0</ele><time>2026-04-30T21:53:10.061Z</time></trkpt><trkpt lat="43.034078" lon="6.6702801"><ele>0.0</ele><time>2026-04-30T21:53:11.062Z</time></trkpt><trkpt lat="43.0341234" lon="6.6703761"><ele>0.0</ele><time>2026-04-30T21:53:12.061Z</time></trkpt><trkpt lat="43.0342202" lon="6.6705648"><ele>0.0</ele><time>2026-04-30T21:53:14.062Z</time></trkpt><trkpt lat="43.0342666" lon="6.6706598"><ele>0.0</ele><time>2026-04-30T21:53:15.062Z</time></trkpt><trkpt lat="43.034311" lon="6.670752"><ele>0.0</ele><time>2026-04-30T21:53:16.061Z</time></trkpt><trkpt lat="43.0343599" lon="6.6708466"><ele>0.0</ele><time>2026-04-30T21:53:17.061Z</time></trkpt><trkpt lat="43.0344144" lon="6.6709404"><ele>0.0</ele><time>2026-04-30T21:53:18.062Z</time></trkpt><trkpt lat="43.0344652" lon="6.6710322"><ele>0.0</ele><time>2026-04-30T21:53:19.062Z</time></trkpt><trkpt lat="43.0345137" lon="6.6711254"><ele>0.0</ele><time>2026-04-30T21:53:20.062Z</time></trkpt><trkpt lat="43.0345663" lon="6.6712186"><ele>0.0</ele><time>2026-04-30T21:53:21.062Z</time></trkpt><trkpt lat="43.0346183" lon="6.6713124"><ele>0.0</ele><time>2026-04-30T21:53:22.061Z</time></trkpt><trkpt lat="43.0346635" lon="6.6714024"><ele>0.0</ele><time>2026-04-30T21:53:23.061Z</time></trkpt><trkpt lat="43.0347122" lon="6.6714955"><ele>0.0</ele><time>2026-04-30T21:53:24.062Z</time></trkpt><trkpt lat="43.0347648" lon="6.67159"><ele>0.0</ele><time>2026-04-30T21:53:25.061Z</time></trkpt><trkpt lat="43.0348195" lon="6.671682"><ele>0.0</ele><time>2026-04-30T21:53:26.061Z</time></trkpt><trkpt lat="43.034867" lon="6.671774"><ele>0.0</ele><time>2026-04-30T21:53:27.062Z</time></trkpt><trkpt lat="43.0349149" lon="6.6718699"><ele>0.0</ele><time>2026-04-30T21:53:28.062Z</time></trkpt><trkpt lat="43.0349635" lon="6.6719621"><ele>0.0</ele><time>2026-04-30T21:53:29.062Z</time></trkpt><trkpt lat="43.035014" lon="6.6720525"><ele>0.0</ele><time>2026-04-30T21:53:30.061Z</time></trkpt><trkpt lat="43.0350638" lon="6.6721435"><ele>0.0</ele><time>2026-04-30T21:53:31.062Z</time></trkpt><trkpt lat="43.0351275" lon="6.6722509"><ele>0.0</ele><time>2026-04-30T21:53:32.062Z</time></trkpt><trkpt lat="43.0351886" lon="6.6723501"><ele>0.0</ele><time>2026-04-30T21:53:33.062Z</time></trkpt><trkpt lat="43.0353024" lon="6.6725389"><ele>0.0</ele><time>2026-04-30T21:53:35.061Z</time></trkpt><trkpt lat="43.0353537" lon="6.6726285"><ele>0.0</ele><time>2026-04-30T21:53:36.062Z</time></trkpt><trkpt lat="43.0354121" lon="6.6727273"><ele>0.0</ele><time>2026-04-30T21:53:37.062Z</time></trkpt><trkpt lat="43.0354677" lon="6.6728194"><ele>0.0</ele><time>2026-04-30T21:53:38.061Z</time></trkpt><trkpt lat="43.0355171" lon="6.6729118"><ele>0.0</ele><time>2026-04-30T21:53:39.061Z</time></trkpt><trkpt lat="43.035567" lon="6.673005"><ele>0.0</ele><time>2026-04-30T21:53:40.061Z</time></trkpt><trkpt lat="43.0356183" lon="6.6730983"><ele>0.0</ele><time>2026-04-30T21:53:41.062Z</time></trkpt><trkpt lat="43.0356684" lon="6.6731915"><ele>0.0</ele><time>2026-04-30T21:53:42.062Z</time></trkpt><trkpt lat="43.0357799" lon="6.673383"><ele>0.0</ele><time>2026-04-30T21:53:44.061Z</time></trkpt><trkpt lat="43.0358329" lon="6.6734778"><ele>0.0</ele><time>2026-04-30T21:53:45.062Z</time></trkpt><trkpt lat="43.035889" lon="6.6735742"><ele>0.0</ele><time>2026-04-30T21:53:46.061Z</time></trkpt><trkpt lat="43.0359473" lon="6.6736695"><ele>0.0</ele><time>2026-04-30T21:53:47.061Z</time></trkpt><trkpt lat="43.0360028" lon="6.6737659"><ele>0.0</ele><time>2026-04-30T21:53:48.061Z</time></trkpt><trkpt lat="43.0360534" lon="6.6738536"><ele>0.0</ele><time>2026-04-30T21:53:49.061Z</time></trkpt><trkpt lat="43.0361019" lon="6.6739434"><ele>0.0</ele><time>2026-04-30T21:53:50.062Z</time></trkpt><trkpt lat="43.0361459" lon="6.6740281"><ele>0.0</ele><time>2026-04-30T21:53:51.061Z</time></trkpt><trkpt lat="43.0362031" lon="6.674116"><ele>0.0</ele><time>2026-04-30T21:53:52.061Z</time></trkpt><trkpt lat="43.0362537" lon="6.6742023"><ele>0.0</ele><time>2026-04-30T21:53:53.062Z</time></trkpt><trkpt lat="43.0362993" lon="6.6742879"><ele>0.0</ele><time>2026-04-30T21:53:54.061Z</time></trkpt><trkpt lat="43.0363885" lon="6.6744703"><ele>0.0</ele><time>2026-04-30T21:53:56.061Z</time></trkpt><trkpt lat="43.0364341" lon="6.6745587"><ele>0.0</ele><time>2026-04-30T21:53:57.061Z</time></trkpt><trkpt lat="43.0364778" lon="6.6746513"><ele>0.0</ele><time>2026-04-30T21:53:58.062Z</time></trkpt><trkpt lat="43.0365269" lon="6.6747418"><ele>0.0</ele><time>2026-04-30T21:53:59.062Z</time></trkpt><trkpt lat="43.036577" lon="6.6748336"><ele>0.0</ele><time>2026-04-30T21:54:00.061Z</time></trkpt><trkpt lat="43.0366287" lon="6.6749218"><ele>0.0</ele><time>2026-04-30T21:54:01.061Z</time></trkpt><trkpt lat="43.0366731" lon="6.6750062"><ele>0.0</ele><time>2026-04-30T21:54:02.062Z</time></trkpt><trkpt lat="43.0367157" lon="6.6750956"><ele>0.0</ele><time>2026-04-30T21:54:03.061Z</time></trkpt><trkpt lat="43.0367736" lon="6.6751948"><ele>0.0</ele><time>2026-04-30T21:54:04.061Z</time></trkpt><trkpt lat="43.0368194" lon="6.6752875"><ele>0.0</ele><time>2026-04-30T21:54:05.062Z</time></trkpt><trkpt lat="43.0368664" lon="6.6753827"><ele>0.0</ele><time>2026-04-30T21:54:06.061Z</time></trkpt><trkpt lat="43.0369169" lon="6.6754752"><ele>0.0</ele><time>2026-04-30T21:54:07.062Z</time></trkpt><trkpt lat="43.0369687" lon="6.675568"><ele>0.0</ele><time>2026-04-30T21:54:08.062Z</time></trkpt><trkpt lat="43.0370165" lon="6.6756615"><ele>0.0</ele><time>2026-04-30T21:54:09.062Z</time></trkpt><trkpt lat="43.037063" lon="6.6757545"><ele>0.0</ele><time>2026-04-30T21:54:10.062Z</time></trkpt><trkpt lat="43.0371166" lon="6.6758492"><ele>0.0</ele><time>2026-04-30T21:54:11.062Z</time></trkpt><trkpt lat="43.0371669" lon="6.6759446"><ele>0.0</ele><time>2026-04-30T21:54:12.061Z</time></trkpt><trkpt lat="43.037218" lon="6.6760425"><ele>0.0</ele><time>2026-04-30T21:54:13.062Z</time></trkpt><trkpt lat="43.0372701" lon="6.6761351"><ele>0.0</ele><time>2026-04-30T21:54:14.061Z</time></trkpt><trkpt lat="43.0373197" lon="6.6762325"><ele>0.0</ele><time>2026-04-30T21:54:15.062Z</time></trkpt><trkpt lat="43.0373717" lon="6.6763235"><ele>0.0</ele><time>2026-04-30T21:54:16.062Z</time></trkpt><trkpt lat="43.0374895" lon="6.6765006"><ele>0.0</ele><time>2026-04-30T21:54:18.061Z</time></trkpt><trkpt lat="43.0375437" lon="6.6765933"><ele>0.0</ele><time>2026-04-30T21:54:19.061Z</time></trkpt><trkpt lat="43.0375954" lon="6.6766839"><ele>0.0</ele><time>2026-04-30T21:54:20.061Z</time></trkpt><trkpt lat="43.0376423" lon="6.6767769"><ele>0.0</ele><time>2026-04-30T21:54:21.061Z</time></trkpt><trkpt lat="43.0377054" lon="6.676869"><ele>0.0</ele><time>2026-04-30T21:54:22.061Z</time></trkpt><trkpt lat="43.0377579" lon="6.6769606"><ele>0.0</ele><time>2026-04-30T21:54:23.061Z</time></trkpt><trkpt lat="43.0378091" lon="6.6770577"><ele>0.0</ele><time>2026-04-30T21:54:24.061Z</time></trkpt><trkpt lat="43.0378583" lon="6.67715"><ele>0.0</ele><time>2026-04-30T21:54:25.061Z</time></trkpt><trkpt lat="43.0379108" lon="6.6772461"><ele>0.0</ele><time>2026-04-30T21:54:26.061Z</time></trkpt><trkpt lat="43.0379617" lon="6.6773402"><ele>0.0</ele><time>2026-04-30T21:54:27.062Z</time></trkpt><trkpt lat="43.0380076" lon="6.6774318"><ele>0.0</ele><time>2026-04-30T21:54:28.062Z</time></trkpt><trkpt lat="43.0380555" lon="6.6775164"><ele>0.0</ele><time>2026-04-30T21:54:29.061Z</time></trkpt><trkpt lat="43.0381034" lon="6.6776074"><ele>0.0</ele><time>2026-04-30T21:54:30.061Z</time></trkpt><trkpt lat="43.0381526" lon="6.6776989"><ele>0.0</ele><time>2026-04-30T21:54:31.061Z</time></trkpt><trkpt lat="43.0382085" lon="6.677786"><ele>0.0</ele><time>2026-04-30T21:54:32.062Z</time></trkpt><trkpt lat="43.0382742" lon="6.6778895"><ele>0.0</ele><time>2026-04-30T21:54:33.061Z</time></trkpt><trkpt lat="43.0383381" lon="6.6779743"><ele>0.0</ele><time>2026-04-30T21:54:34.062Z</time></trkpt><trkpt lat="43.0383898" lon="6.6780619"><ele>0.0</ele><time>2026-04-30T21:54:35.062Z</time></trkpt><trkpt lat="43.0384458" lon="6.6781516"><ele>0.0</ele><time>2026-04-30T21:54:36.062Z</time></trkpt><trkpt lat="43.0384942" lon="6.6782375"><ele>0.0</ele><time>2026-04-30T21:54:37.062Z</time></trkpt><trkpt lat="43.038605" lon="6.6784198"><ele>0.0</ele><time>2026-04-30T21:54:39.062Z</time></trkpt><trkpt lat="43.0386631" lon="6.6785143"><ele>0.0</ele><time>2026-04-30T21:54:40.061Z</time></trkpt><trkpt lat="43.0387258" lon="6.6786106"><ele>0.0</ele><time>2026-04-30T21:54:41.061Z</time></trkpt><trkpt lat="43.0387791" lon="6.678696"><ele>0.0</ele><time>2026-04-30T21:54:42.061Z</time></trkpt><trkpt lat="43.0388304" lon="6.6787852"><ele>0.0</ele><time>2026-04-30T21:54:43.062Z</time></trkpt><trkpt lat="43.0388848" lon="6.6788793"><ele>0.0</ele><time>2026-04-30T21:54:44.062Z</time></trkpt><trkpt lat="43.0389365" lon="6.6789701"><ele>0.0</ele><time>2026-04-30T21:54:45.062Z</time></trkpt><trkpt lat="43.03898" lon="6.6790619"><ele>0.0</ele><time>2026-04-30T21:54:46.061Z</time></trkpt><trkpt lat="43.0390278" lon="6.6791533"><ele>0.0</ele><time>2026-04-30T21:54:47.062Z</time></trkpt><trkpt lat="43.0391212" lon="6.6793396"><ele>0.0</ele><time>2026-04-30T21:54:49.062Z</time></trkpt><trkpt lat="43.0391696" lon="6.6794314"><ele>0.0</ele><time>2026-04-30T21:54:50.062Z</time></trkpt><trkpt lat="43.0392167" lon="6.6795229"><ele>0.0</ele><time>2026-04-30T21:54:51.061Z</time></trkpt><trkpt lat="43.0392641" lon="6.679612"><ele>0.0</ele><time>2026-04-30T21:54:52.061Z</time></trkpt><trkpt lat="43.0393132" lon="6.6797065"><ele>0.0</ele><time>2026-04-30T21:54:53.061Z</time></trkpt><trkpt lat="43.0393708" lon="6.6798084"><ele>0.0</ele><time>2026-04-30T21:54:54.061Z</time></trkpt><trkpt lat="43.039423" lon="6.6799062"><ele>0.0</ele><time>2026-04-30T21:54:55.062Z</time></trkpt><trkpt lat="43.0394732" lon="6.6800019"><ele>0.0</ele><time>2026-04-30T21:54:56.061Z</time></trkpt><trkpt lat="43.0395292" lon="6.6800966"><ele>0.0</ele><time>2026-04-30T21:54:57.061Z</time></trkpt><trkpt lat="43.039573" lon="6.6801914"><ele>0.0</ele><time>2026-04-30T21:54:58.061Z</time></trkpt><trkpt lat="43.0396652" lon="6.6803701"><ele>0.0</ele><time>2026-04-30T21:55:00.062Z</time></trkpt><trkpt lat="43.0397136" lon="6.6804634"><ele>0.0</ele><time>2026-04-30T21:55:01.062Z</time></trkpt><trkpt lat="43.0397666" lon="6.6805551"><ele>0.0</ele><time>2026-04-30T21:55:02.061Z</time></trkpt><trkpt lat="43.0398224" lon="6.6806467"><ele>0.0</ele><time>2026-04-30T21:55:03.061Z</time></trkpt><trkpt lat="43.0398736" lon="6.6807385"><ele>0.0</ele><time>2026-04-30T21:55:04.061Z</time></trkpt><trkpt lat="43.0399339" lon="6.6808287"><ele>0.0</ele><time>2026-04-30T21:55:05.061Z</time></trkpt><trkpt lat="43.0399865" lon="6.6809171"><ele>0.0</ele><time>2026-04-30T21:55:06.061Z</time></trkpt><trkpt lat="43.0400399" lon="6.6810099"><ele>0.0</ele><time>2026-04-30T21:55:07.061Z</time></trkpt><trkpt lat="43.0400902" lon="6.6811019"><ele>0.0</ele><time>2026-04-30T21:55:08.061Z</time></trkpt><trkpt lat="43.0401459" lon="6.6812006"><ele>0.0</ele><time>2026-04-30T21:55:09.061Z</time></trkpt><trkpt lat="43.0401938" lon="6.6812947"><ele>0.0</ele><time>2026-04-30T21:55:10.062Z</time></trkpt><trkpt lat="43.0402547" lon="6.681387"><ele>0.0</ele><time>2026-04-30T21:55:11.061Z</time></trkpt><trkpt lat="43.0403138" lon="6.681484"><ele>0.0</ele><time>2026-04-30T21:55:12.061Z</time></trkpt><trkpt lat="43.0403724" lon="6.6815824"><ele>0.0</ele><time>2026-04-30T21:55:13.061Z</time></trkpt><trkpt lat="43.0404323" lon="6.6816792"><ele>0.0</ele><time>2026-04-30T21:55:14.062Z</time></trkpt><trkpt lat="43.0404939" lon="6.6817756"><ele>0.0</ele><time>2026-04-30T21:55:15.061Z</time></trkpt><trkpt lat="43.0405459" lon="6.6818608"><ele>0.0</ele><time>2026-04-30T21:55:16.062Z</time></trkpt><trkpt lat="43.0406041" lon="6.6819558"><ele>0.0</ele><time>2026-04-30T21:55:17.062Z</time></trkpt><trkpt lat="43.0406642" lon="6.6820509"><ele>0.0</ele><time>2026-04-30T21:55:18.062Z</time></trkpt><trkpt lat="43.0407241" lon="6.6821489"><ele>0.0</ele><time>2026-04-30T21:55:19.062Z</time></trkpt><trkpt lat="43.0408905" lon="6.6824212"><ele>0.0</ele><time>2026-04-30T21:55:22.062Z</time></trkpt><trkpt lat="43.0409361" lon="6.6825045"><ele>0.0</ele><time>2026-04-30T21:55:23.061Z</time></trkpt><trkpt lat="43.0409894" lon="6.6825979"><ele>0.0</ele><time>2026-04-30T21:55:24.061Z</time></trkpt><trkpt lat="43.0410416" lon="6.6826916"><ele>0.0</ele><time>2026-04-30T21:55:25.061Z</time></trkpt><trkpt lat="43.0410963" lon="6.6827862"><ele>0.0</ele><time>2026-04-30T21:55:26.061Z</time></trkpt><trkpt lat="43.0411529" lon="6.6828783"><ele>0.0</ele><time>2026-04-30T21:55:27.062Z</time></trkpt><trkpt lat="43.0412043" lon="6.6829613"><ele>0.0</ele><time>2026-04-30T21:55:28.061Z</time></trkpt><trkpt lat="43.0412541" lon="6.6830457"><ele>0.0</ele><time>2026-04-30T21:55:29.061Z</time></trkpt><trkpt lat="43.0412991" lon="6.6831354"><ele>0.0</ele><time>2026-04-30T21:55:30.061Z</time></trkpt><trkpt lat="43.0413499" lon="6.683228"><ele>0.0</ele><time>2026-04-30T21:55:31.062Z</time></trkpt><trkpt lat="43.0414019" lon="6.6833182"><ele>0.0</ele><time>2026-04-30T21:55:32.062Z</time></trkpt><trkpt lat="43.0414503" lon="6.6834071"><ele>0.0</ele><time>2026-04-30T21:55:33.061Z</time></trkpt><trkpt lat="43.0414987" lon="6.683497"><ele>0.0</ele><time>2026-04-30T21:55:34.062Z</time></trkpt><trkpt lat="43.0415548" lon="6.6835881"><ele>0.0</ele><time>2026-04-30T21:55:35.061Z</time></trkpt><trkpt lat="43.0416069" lon="6.6836782"><ele>0.0</ele><time>2026-04-30T21:55:36.062Z</time></trkpt><trkpt lat="43.0416533" lon="6.6837716"><ele>0.0</ele><time>2026-04-30T21:55:37.061Z</time></trkpt><trkpt lat="43.0417044" lon="6.6838672"><ele>0.0</ele><time>2026-04-30T21:55:38.061Z</time></trkpt><trkpt lat="43.0417581" lon="6.6839627"><ele>0.0</ele><time>2026-04-30T21:55:39.061Z</time></trkpt><trkpt lat="43.0418137" lon="6.6840526"><ele>0.0</ele><time>2026-04-30T21:55:40.062Z</time></trkpt><trkpt lat="43.0418657" lon="6.6841406"><ele>0.0</ele><time>2026-04-30T21:55:41.061Z</time></trkpt><trkpt lat="43.0419636" lon="6.6843282"><ele>0.0</ele><time>2026-04-30T21:55:43.061Z</time></trkpt><trkpt lat="43.0420122" lon="6.6844202"><ele>0.0</ele><time>2026-04-30T21:55:44.062Z</time></trkpt><trkpt lat="43.0420588" lon="6.6845118"><ele>0.0</ele><time>2026-04-30T21:55:45.062Z</time></trkpt><trkpt lat="43.0421111" lon="6.6846091"><ele>0.0</ele><time>2026-04-30T21:55:46.062Z</time></trkpt><trkpt lat="43.042162" lon="6.6847002"><ele>0.0</ele><time>2026-04-30T21:55:47.062Z</time></trkpt><trkpt lat="43.0422099" lon="6.6847898"><ele>0.0</ele><time>2026-04-30T21:55:48.061Z</time></trkpt><trkpt lat="43.0422632" lon="6.6848827"><ele>0.0</ele><time>2026-04-30T21:55:49.061Z</time></trkpt><trkpt lat="43.0423082" lon="6.6849794"><ele>0.0</ele><time>2026-04-30T21:55:50.061Z</time></trkpt><trkpt lat="43.0423565" lon="6.6850731"><ele>0.0</ele><time>2026-04-30T21:55:51.062Z</time></trkpt><trkpt lat="43.042459" lon="6.6852507"><ele>0.0</ele><time>2026-04-30T21:55:53.061Z</time></trkpt><trkpt lat="43.0425144" lon="6.6853444"><ele>0.0</ele><time>2026-04-30T21:55:54.062Z</time></trkpt><trkpt lat="43.0425612" lon="6.6854364"><ele>0.0</ele><time>2026-04-30T21:55:55.061Z</time></trkpt><trkpt lat="43.0426117" lon="6.6855283"><ele>0.0</ele><time>2026-04-30T21:55:56.062Z</time></trkpt><trkpt lat="43.0426619" lon="6.6856203"><ele>0.0</ele><time>2026-04-30T21:55:57.061Z</time></trkpt><trkpt lat="43.0427125" lon="6.6857195"><ele>0.0</ele><time>2026-04-30T21:55:58.061Z</time></trkpt><trkpt lat="43.0427665" lon="6.6858119"><ele>0.0</ele><time>2026-04-30T21:55:59.061Z</time></trkpt><trkpt lat="43.0428187" lon="6.685902"><ele>0.0</ele><time>2026-04-30T21:56:00.061Z</time></trkpt><trkpt lat="43.0428701" lon="6.685992"><ele>0.0</ele><time>2026-04-30T21:56:01.062Z</time></trkpt><trkpt lat="43.0429217" lon="6.6860818"><ele>0.0</ele><time>2026-04-30T21:56:02.062Z</time></trkpt><trkpt lat="43.0430201" lon="6.6862667"><ele>0.0</ele><time>2026-04-30T21:56:04.061Z</time></trkpt><trkpt lat="43.0430683" lon="6.6863601"><ele>0.0</ele><time>2026-04-30T21:56:05.061Z</time></trkpt><trkpt lat="43.043117" lon="6.6864521"><ele>0.0</ele><time>2026-04-30T21:56:06.06Z</time></trkpt><trkpt lat="43.0431668" lon="6.6865433"><ele>0.0</ele><time>2026-04-30T21:56:07.061Z</time></trkpt><trkpt lat="43.0432169" lon="6.6866348"><ele>0.0</ele><time>2026-04-30T21:56:08.06Z</time></trkpt><trkpt lat="43.0432711" lon="6.6867282"><ele>0.0</ele><time>2026-04-30T21:56:09.061Z</time></trkpt><trkpt lat="43.0433229" lon="6.6868184"><ele>0.0</ele><time>2026-04-30T21:56:10.06Z</time></trkpt><trkpt lat="43.0433799" lon="6.6869011"><ele>0.0</ele><time>2026-04-30T21:56:11.06Z</time></trkpt><trkpt lat="43.0434299" lon="6.6869869"><ele>0.0</ele><time>2026-04-30T21:56:12.06Z</time></trkpt><trkpt lat="43.0434801" lon="6.6870732"><ele>0.0</ele><time>2026-04-30T21:56:13.061Z</time></trkpt><trkpt lat="43.0435357" lon="6.6871732"><ele>0.0</ele><time>2026-04-30T21:56:14.061Z</time></trkpt><trkpt lat="43.04359" lon="6.687265"><ele>0.0</ele><time>2026-04-30T21:56:15.061Z</time></trkpt><trkpt lat="43.0436429" lon="6.6873596"><ele>0.0</ele><time>2026-04-30T21:56:16.06Z</time></trkpt><trkpt lat="43.0436936" lon="6.6874502"><ele>0.0</ele><time>2026-04-30T21:56:17.061Z</time></trkpt><trkpt lat="43.0437492" lon="6.6875456"><ele>0.0</ele><time>2026-04-30T21:56:18.06Z</time></trkpt><trkpt lat="43.0438062" lon="6.6876405"><ele>0.0</ele><time>2026-04-30T21:56:19.06Z</time></trkpt><trkpt lat="43.0438618" lon="6.6877317"><ele>0.0</ele><time>2026-04-30T21:56:20.061Z</time></trkpt><trkpt lat="43.0439152" lon="6.6878216"><ele>0.0</ele><time>2026-04-30T21:56:21.061Z</time></trkpt><trkpt lat="43.0439683" lon="6.6879144"><ele>0.0</ele><time>2026-04-30T21:56:22.061Z</time></trkpt><trkpt lat="43.0440249" lon="6.6880052"><ele>0.0</ele><time>2026-04-30T21:56:23.061Z</time></trkpt><trkpt lat="43.0440782" lon="6.6880996"><ele>0.0</ele><time>2026-04-30T21:56:24.061Z</time></trkpt><trkpt lat="43.0442351" lon="6.6883663"><ele>0.0</ele><time>2026-04-30T21:56:27.061Z</time></trkpt><trkpt lat="43.0442894" lon="6.6884622"><ele>0.0</ele><time>2026-04-30T21:56:28.06Z</time></trkpt><trkpt lat="43.0443414" lon="6.688558"><ele>0.0</ele><time>2026-04-30T21:56:29.061Z</time></trkpt><trkpt lat="43.0443916" lon="6.6886545"><ele>0.0</ele><time>2026-04-30T21:56:30.061Z</time></trkpt><trkpt lat="43.0444415" lon="6.6887467"><ele>0.0</ele><time>2026-04-30T21:56:31.06Z</time></trkpt><trkpt lat="43.0444869" lon="6.6888401"><ele>0.0</ele><time>2026-04-30T21:56:32.061Z</time></trkpt><trkpt lat="43.044535" lon="6.6889305"><ele>0.0</ele><time>2026-04-30T21:56:33.061Z</time></trkpt><trkpt lat="43.0445837" lon="6.6890214"><ele>0.0</ele><time>2026-04-30T21:56:34.06Z</time></trkpt><trkpt lat="43.0446366" lon="6.6891151"><ele>0.0</ele><time>2026-04-30T21:56:35.061Z</time></trkpt><trkpt lat="43.0446904" lon="6.6892067"><ele>0.0</ele><time>2026-04-30T21:56:36.061Z</time></trkpt><trkpt lat="43.0447406" lon="6.6892954"><ele>0.0</ele><time>2026-04-30T21:56:37.061Z</time></trkpt><trkpt lat="43.0447885" lon="6.6893896"><ele>0.0</ele><time>2026-04-30T21:56:38.061Z</time></trkpt><trkpt lat="43.0448382" lon="6.6894831"><ele>0.0</ele><time>2026-04-30T21:56:39.061Z</time></trkpt><trkpt lat="43.0448853" lon="6.6895737"><ele>0.0</ele><time>2026-04-30T21:56:40.061Z</time></trkpt><trkpt lat="43.0449317" lon="6.6896668"><ele>0.0</ele><time>2026-04-30T21:56:41.06Z</time></trkpt><trkpt lat="43.0449929" lon="6.6897572"><ele>0.0</ele><time>2026-04-30T21:56:42.06Z</time></trkpt><trkpt lat="43.0450422" lon="6.6898455"><ele>0.0</ele><time>2026-04-30T21:56:43.061Z</time></trkpt><trkpt lat="43.045092" lon="6.6899371"><ele>0.0</ele><time>2026-04-30T21:56:44.06Z</time></trkpt><trkpt lat="43.0451399" lon="6.6900299"><ele>0.0</ele><time>2026-04-30T21:56:45.061Z</time></trkpt><trkpt lat="43.045184" lon="6.6901163"><ele>0.0</ele><time>2026-04-30T21:56:46.06Z</time></trkpt><trkpt lat="43.0452829" lon="6.6903036"><ele>0.0</ele><time>2026-04-30T21:56:48.06Z</time></trkpt><trkpt lat="43.0453315" lon="6.6903933"><ele>0.0</ele><time>2026-04-30T21:56:49.06Z</time></trkpt><trkpt lat="43.0453803" lon="6.6904835"><ele>0.0</ele><time>2026-04-30T21:56:50.061Z</time></trkpt><trkpt lat="43.0454318" lon="6.6905736"><ele>0.0</ele><time>2026-04-30T21:56:51.06Z</time></trkpt><trkpt lat="43.0454808" lon="6.6906668"><ele>0.0</ele><time>2026-04-30T21:56:52.06Z</time></trkpt><trkpt lat="43.0455236" lon="6.6907572"><ele>0.0</ele><time>2026-04-30T21:56:53.061Z</time></trkpt><trkpt lat="43.0455687" lon="6.6908485"><ele>0.0</ele><time>2026-04-30T21:56:54.061Z</time></trkpt><trkpt lat="43.0456166" lon="6.6909386"><ele>0.0</ele><time>2026-04-30T21:56:55.061Z</time></trkpt><trkpt lat="43.0457344" lon="6.6911359"><ele>0.0</ele><time>2026-04-30T21:56:57.06Z</time></trkpt><trkpt lat="43.0457876" lon="6.6912226"><ele>0.0</ele><time>2026-04-30T21:56:58.06Z</time></trkpt><trkpt lat="43.0458399" lon="6.6913104"><ele>0.0</ele><time>2026-04-30T21:56:59.061Z</time></trkpt><trkpt lat="43.0458946" lon="6.6913999"><ele>0.0</ele><time>2026-04-30T21:57:00.061Z</time></trkpt><trkpt lat="43.045957" lon="6.6914957"><ele>0.0</ele><time>2026-04-30T21:57:01.06Z</time></trkpt><trkpt lat="43.0460103" lon="6.6915841"><ele>0.0</ele><time>2026-04-30T21:57:02.06Z</time></trkpt><trkpt lat="43.0460662" lon="6.6916777"><ele>0.0</ele><time>2026-04-30T21:57:03.061Z</time></trkpt><trkpt lat="43.0461231" lon="6.6917683"><ele>0.0</ele><time>2026-04-30T21:57:04.06Z</time></trkpt><trkpt lat="43.0461784" lon="6.6918584"><ele>0.0</ele><time>2026-04-30T21:57:05.061Z</time></trkpt><trkpt lat="43.0462313" lon="6.6919514"><ele>0.0</ele><time>2026-04-30T21:57:06.061Z</time></trkpt><trkpt lat="43.0462866" lon="6.6920429"><ele>0.0</ele><time>2026-04-30T21:57:07.06Z</time></trkpt><trkpt lat="43.0463885" lon="6.6922249"><ele>0.0</ele><time>2026-04-30T21:57:09.06Z</time></trkpt><trkpt lat="43.0464417" lon="6.692315"><ele>0.0</ele><time>2026-04-30T21:57:10.061Z</time></trkpt><trkpt lat="43.0464922" lon="6.6924065"><ele>0.0</ele><time>2026-04-30T21:57:11.06Z</time></trkpt><trkpt lat="43.0465388" lon="6.6924999"><ele>0.0</ele><time>2026-04-30T21:57:12.06Z</time></trkpt><trkpt lat="43.0465909" lon="6.6925928"><ele>0.0</ele><time>2026-04-30T21:57:13.061Z</time></trkpt><trkpt lat="43.0466509" lon="6.6926835"><ele>0.0</ele><time>2026-04-30T21:57:14.061Z</time></trkpt><trkpt lat="43.0467056" lon="6.6927735"><ele>0.0</ele><time>2026-04-30T21:57:15.06Z</time></trkpt><trkpt lat="43.0467513" lon="6.6928668"><ele>0.0</ele><time>2026-04-30T21:57:16.061Z</time></trkpt><trkpt lat="43.0467936" lon="6.6929613"><ele>0.0</ele><time>2026-04-30T21:57:17.06Z</time></trkpt><trkpt lat="43.0468382" lon="6.6930534"><ele>0.0</ele><time>2026-04-30T21:57:18.06Z</time></trkpt><trkpt lat="43.0468793" lon="6.6931449"><ele>0.0</ele><time>2026-04-30T21:57:19.061Z</time></trkpt><trkpt lat="43.0469256" lon="6.6932364"><ele>0.0</ele><time>2026-04-30T21:57:20.06Z</time></trkpt><trkpt lat="43.0469726" lon="6.6933296"><ele>0.0</ele><time>2026-04-30T21:57:21.06Z</time></trkpt><trkpt lat="43.0470218" lon="6.6934232"><ele>0.0</ele><time>2026-04-30T21:57:22.06Z</time></trkpt><trkpt lat="43.0470702" lon="6.6935195"><ele>0.0</ele><time>2026-04-30T21:57:23.06Z</time></trkpt><trkpt lat="43.0471242" lon="6.6936132"><ele>0.0</ele><time>2026-04-30T21:57:24.06Z</time></trkpt><trkpt lat="43.0471833" lon="6.6937038"><ele>0.0</ele><time>2026-04-30T21:57:25.06Z</time></trkpt><trkpt lat="43.0472333" lon="6.6937965"><ele>0.0</ele><time>2026-04-30T21:57:26.061Z</time></trkpt><trkpt lat="43.047289" lon="6.6938886"><ele>0.0</ele><time>2026-04-30T21:57:27.061Z</time></trkpt><trkpt lat="43.0473464" lon="6.6939786"><ele>0.0</ele><time>2026-04-30T21:57:28.06Z</time></trkpt><trkpt lat="43.0475016" lon="6.6942485"><ele>0.0</ele><time>2026-04-30T21:57:31.06Z</time></trkpt><trkpt lat="43.0475555" lon="6.6943382"><ele>0.0</ele><time>2026-04-30T21:57:32.06Z</time></trkpt><trkpt lat="43.0476055" lon="6.6944272"><ele>0.0</ele><time>2026-04-30T21:57:33.06Z</time></trkpt><trkpt lat="43.0476601" lon="6.6945168"><ele>0.0</ele><time>2026-04-30T21:57:34.06Z</time></trkpt><trkpt lat="43.047711" lon="6.6946098"><ele>0.0</ele><time>2026-04-30T21:57:35.061Z</time></trkpt><trkpt lat="43.0477563" lon="6.6947003"><ele>0.0</ele><time>2026-04-30T21:57:36.061Z</time></trkpt><trkpt lat="43.0478011" lon="6.6947918"><ele>0.0</ele><time>2026-04-30T21:57:37.06Z</time></trkpt><trkpt lat="43.0478415" lon="6.6948834"><ele>0.0</ele><time>2026-04-30T21:57:38.06Z</time></trkpt><trkpt lat="43.0478843" lon="6.694972"><ele>0.0</ele><time>2026-04-30T21:57:39.06Z</time></trkpt><trkpt lat="43.0479309" lon="6.6950618"><ele>0.0</ele><time>2026-04-30T21:57:40.061Z</time></trkpt><trkpt lat="43.0479777" lon="6.6951548"><ele>0.0</ele><time>2026-04-30T21:57:41.06Z</time></trkpt><trkpt lat="43.04803" lon="6.695248"><ele>0.0</ele><time>2026-04-30T21:57:42.061Z</time></trkpt><trkpt lat="43.0480738" lon="6.6953417"><ele>0.0</ele><time>2026-04-30T21:57:43.061Z</time></trkpt><trkpt lat="43.0481155" lon="6.6954347"><ele>0.0</ele><time>2026-04-30T21:57:44.061Z</time></trkpt><trkpt lat="43.0481601" lon="6.6955269"><ele>0.0</ele><time>2026-04-30T21:57:45.06Z</time></trkpt><trkpt lat="43.0482113" lon="6.6956184"><ele>0.0</ele><time>2026-04-30T21:57:46.06Z</time></trkpt><trkpt lat="43.0482601" lon="6.6957102"><ele>0.0</ele><time>2026-04-30T21:57:47.061Z</time></trkpt><trkpt lat="43.0483045" lon="6.6958019"><ele>0.0</ele><time>2026-04-30T21:57:48.061Z</time></trkpt><trkpt lat="43.048352" lon="6.695892"><ele>0.0</ele><time>2026-04-30T21:57:49.06Z</time></trkpt><trkpt lat="43.0484045" lon="6.6959837"><ele>0.0</ele><time>2026-04-30T21:57:50.06Z</time></trkpt><trkpt lat="43.0484522" lon="6.6960766"><ele>0.0</ele><time>2026-04-30T21:57:51.061Z</time></trkpt><trkpt lat="43.048551" lon="6.6962532"><ele>0.0</ele><time>2026-04-30T21:57:53.061Z</time></trkpt><trkpt lat="43.0485981" lon="6.696345"><ele>0.0</ele><time>2026-04-30T21:57:54.061Z</time></trkpt><trkpt lat="43.0486497" lon="6.6964365"><ele>0.0</ele><time>2026-04-30T21:57:55.06Z</time></trkpt><trkpt lat="43.0487087" lon="6.6965296"><ele>0.0</ele><time>2026-04-30T21:57:56.06Z</time></trkpt><trkpt lat="43.0487663" lon="6.6966214"><ele>0.0</ele><time>2026-04-30T21:57:57.061Z</time></trkpt><trkpt lat="43.0488144" lon="6.6967119"><ele>0.0</ele><time>2026-04-30T21:57:58.061Z</time></trkpt><trkpt lat="43.0488653" lon="6.6968016"><ele>0.0</ele><time>2026-04-30T21:57:59.06Z</time></trkpt><trkpt lat="43.0489153" lon="6.696896"><ele>0.0</ele><time>2026-04-30T21:58:00.061Z</time></trkpt><trkpt lat="43.0489598" lon="6.6969894"><ele>0.0</ele><time>2026-04-30T21:58:01.061Z</time></trkpt><trkpt lat="43.0490757" lon="6.6971752"><ele>0.0</ele><time>2026-04-30T21:58:03.06Z</time></trkpt><trkpt lat="43.0491233" lon="6.6972706"><ele>0.0</ele><time>2026-04-30T21:58:04.061Z</time></trkpt><trkpt lat="43.0491891" lon="6.6973648"><ele>0.0</ele><time>2026-04-30T21:58:05.06Z</time></trkpt><trkpt lat="43.0492677" lon="6.6974539"><ele>0.0</ele><time>2026-04-30T21:58:06.06Z</time></trkpt><trkpt lat="43.0493291" lon="6.6975438"><ele>0.0</ele><time>2026-04-30T21:58:07.06Z</time></trkpt><trkpt lat="43.0493847" lon="6.6976349"><ele>0.0</ele><time>2026-04-30T21:58:08.06Z</time></trkpt><trkpt lat="43.0494409" lon="6.6977279"><ele>0.0</ele><time>2026-04-30T21:58:09.061Z</time></trkpt><trkpt lat="43.0494888" lon="6.6978228"><ele>0.0</ele><time>2026-04-30T21:58:10.06Z</time></trkpt><trkpt lat="43.0495383" lon="6.6979151"><ele>0.0</ele><time>2026-04-30T21:58:11.06Z</time></trkpt><trkpt lat="43.0495931" lon="6.6980108"><ele>0.0</ele><time>2026-04-30T21:58:12.06Z</time></trkpt><trkpt lat="43.0497088" lon="6.6981981"><ele>0.0</ele><time>2026-04-30T21:58:14.06Z</time></trkpt><trkpt lat="43.0497631" lon="6.6982911"><ele>0.0</ele><time>2026-04-30T21:58:15.06Z</time></trkpt><trkpt lat="43.0498123" lon="6.6983832"><ele>0.0</ele><time>2026-04-30T21:58:16.06Z</time></trkpt><trkpt lat="43.0498565" lon="6.6984778"><ele>0.0</ele><time>2026-04-30T21:58:17.061Z</time></trkpt><trkpt lat="43.0499052" lon="6.6985712"><ele>0.0</ele><time>2026-04-30T21:58:18.06Z</time></trkpt><trkpt lat="43.0499399" lon="6.6986661"><ele>0.0</ele><time>2026-04-30T21:58:19.061Z</time></trkpt><trkpt lat="43.0499702" lon="6.6987593"><ele>0.0</ele><time>2026-04-30T21:58:20.061Z</time></trkpt><trkpt lat="43.0500137" lon="6.6988545"><ele>0.0</ele><time>2026-04-30T21:58:21.061Z</time></trkpt><trkpt lat="43.0500571" lon="6.6989496"><ele>0.0</ele><time>2026-04-30T21:58:22.06Z</time></trkpt><trkpt lat="43.0501048" lon="6.699043"><ele>0.0</ele><time>2026-04-30T21:58:23.06Z</time></trkpt><trkpt lat="43.050155" lon="6.6991326"><ele>0.0</ele><time>2026-04-30T21:58:24.06Z</time></trkpt><trkpt lat="43.0501984" lon="6.6992193"><ele>0.0</ele><time>2026-04-30T21:58:25.06Z</time></trkpt><trkpt lat="43.0502427" lon="6.6993057"><ele>0.0</ele><time>2026-04-30T21:58:26.06Z</time></trkpt><trkpt lat="43.0502906" lon="6.6993907"><ele>0.0</ele><time>2026-04-30T21:58:27.06Z</time></trkpt><trkpt lat="43.0503395" lon="6.6994798"><ele>0.0</ele><time>2026-04-30T21:58:28.06Z</time></trkpt><trkpt lat="43.0503862" lon="6.6995681"><ele>0.0</ele><time>2026-04-30T21:58:29.061Z</time></trkpt><trkpt lat="43.050434" lon="6.6996598"><ele>0.0</ele><time>2026-04-30T21:58:30.061Z</time></trkpt><trkpt lat="43.0504825" lon="6.6997518"><ele>0.0</ele><time>2026-04-30T21:58:31.06Z</time></trkpt><trkpt lat="43.050531" lon="6.6998405"><ele>0.0</ele><time>2026-04-30T21:58:32.06Z</time></trkpt><trkpt lat="43.0505774" lon="6.6999345"><ele>0.0</ele><time>2026-04-30T21:58:33.06Z</time></trkpt><trkpt lat="43.0506271" lon="6.7000292"><ele>0.0</ele><time>2026-04-30T21:58:34.06Z</time></trkpt><trkpt lat="43.0507267" lon="6.7002098"><ele>0.0</ele><time>2026-04-30T21:58:36.061Z</time></trkpt><trkpt lat="43.0507803" lon="6.7003"><ele>0.0</ele><time>2026-04-30T21:58:37.06Z</time></trkpt><trkpt lat="43.0508362" lon="6.7003857"><ele>0.0</ele><time>2026-04-30T21:58:38.061Z</time></trkpt><trkpt lat="43.0508828" lon="6.700468"><ele>0.0</ele><time>2026-04-30T21:58:39.06Z</time></trkpt><trkpt lat="43.0509209" lon="6.7005594"><ele>0.0</ele><time>2026-04-30T21:58:40.06Z</time></trkpt><trkpt lat="43.0509762" lon="6.700647"><ele>0.0</ele><time>2026-04-30T21:58:41.06Z</time></trkpt><trkpt lat="43.0510294" lon="6.7007354"><ele>0.0</ele><time>2026-04-30T21:58:42.06Z</time></trkpt><trkpt lat="43.0510813" lon="6.7008247"><ele>0.0</ele><time>2026-04-30T21:58:43.061Z</time></trkpt><trkpt lat="43.0511315" lon="6.7009163"><ele>0.0</ele><time>2026-04-30T21:58:44.061Z</time></trkpt><trkpt lat="43.0511846" lon="6.7010041"><ele>0.0</ele><time>2026-04-30T21:58:45.061Z</time></trkpt><trkpt lat="43.0512327" lon="6.7010935"><ele>0.0</ele><time>2026-04-30T21:58:46.061Z</time></trkpt><trkpt lat="43.0512825" lon="6.7011861"><ele>0.0</ele><time>2026-04-30T21:58:47.06Z</time></trkpt><trkpt lat="43.0513365" lon="6.7012783"><ele>0.0</ele><time>2026-04-30T21:58:48.06Z</time></trkpt><trkpt lat="43.0513855" lon="6.7013656"><ele>0.0</ele><time>2026-04-30T21:58:49.06Z</time></trkpt><trkpt lat="43.0514396" lon="6.7014563"><ele>0.0</ele><time>2026-04-30T21:58:50.06Z</time></trkpt><trkpt lat="43.0514845" lon="6.7015467"><ele>0.0</ele><time>2026-04-30T21:58:51.06Z</time></trkpt><trkpt lat="43.0515337" lon="6.7016281"><ele>0.0</ele><time>2026-04-30T21:58:52.06Z</time></trkpt><trkpt lat="43.0515825" lon="6.7017135"><ele>0.0</ele><time>2026-04-30T21:58:53.061Z</time></trkpt><trkpt lat="43.0516349" lon="6.7018005"><ele>0.0</ele><time>2026-04-30T21:58:54.06Z</time></trkpt><trkpt lat="43.0516883" lon="6.7018864"><ele>0.0</ele><time>2026-04-30T21:58:55.06Z</time></trkpt><trkpt lat="43.0517945" lon="6.7020634"><ele>0.0</ele><time>2026-04-30T21:58:57.061Z</time></trkpt><trkpt lat="43.0518472" lon="6.7021554"><ele>0.0</ele><time>2026-04-30T21:58:58.06Z</time></trkpt><trkpt lat="43.0518975" lon="6.7022464"><ele>0.0</ele><time>2026-04-30T21:58:59.06Z</time></trkpt><trkpt lat="43.0519446" lon="6.7023378"><ele>0.0</ele><time>2026-04-30T21:59:00.061Z</time></trkpt><trkpt lat="43.0519982" lon="6.7024296"><ele>0.0</ele><time>2026-04-30T21:59:01.061Z</time></trkpt><trkpt lat="43.0520518" lon="6.7025225"><ele>0.0</ele><time>2026-04-30T21:59:02.061Z</time></trkpt><trkpt lat="43.0521007" lon="6.7026174"><ele>0.0</ele><time>2026-04-30T21:59:03.06Z</time></trkpt><trkpt lat="43.0521518" lon="6.7027083"><ele>0.0</ele><time>2026-04-30T21:59:04.06Z</time></trkpt><trkpt lat="43.0522" lon="6.7028026"><ele>0.0</ele><time>2026-04-30T21:59:05.061Z</time></trkpt><trkpt lat="43.0522905" lon="6.7029896"><ele>0.0</ele><time>2026-04-30T21:59:07.061Z</time></trkpt><trkpt lat="43.0523408" lon="6.7030826"><ele>0.0</ele><time>2026-04-30T21:59:08.061Z</time></trkpt><trkpt lat="43.0523921" lon="6.7031761"><ele>0.0</ele><time>2026-04-30T21:59:09.06Z</time></trkpt><trkpt lat="43.0524416" lon="6.703274"><ele>0.0</ele><time>2026-04-30T21:59:10.061Z</time></trkpt><trkpt lat="43.0524914" lon="6.7033696"><ele>0.0</ele><time>2026-04-30T21:59:11.06Z</time></trkpt><trkpt lat="43.0525388" lon="6.7034634"><ele>0.0</ele><time>2026-04-30T21:59:12.06Z</time></trkpt><trkpt lat="43.0525902" lon="6.7035594"><ele>0.0</ele><time>2026-04-30T21:59:13.061Z</time></trkpt><trkpt lat="43.0526384" lon="6.7036559"><ele>0.0</ele><time>2026-04-30T21:59:14.061Z</time></trkpt><trkpt lat="43.0526836" lon="6.7037514"><ele>0.0</ele><time>2026-04-30T21:59:15.061Z</time></trkpt><trkpt lat="43.0527277" lon="6.7038445"><ele>0.0</ele><time>2026-04-30T21:59:16.061Z</time></trkpt><trkpt lat="43.0528231" lon="6.70403"><ele>0.0</ele><time>2026-04-30T21:59:18.06Z</time></trkpt><trkpt lat="43.0528782" lon="6.7041228"><ele>0.0</ele><time>2026-04-30T21:59:19.06Z</time></trkpt><trkpt lat="43.0529316" lon="6.7042149"><ele>0.0</ele><time>2026-04-30T21:59:20.061Z</time></trkpt><trkpt lat="43.0529864" lon="6.7043064"><ele>0.0</ele><time>2026-04-30T21:59:21.06Z</time></trkpt><trkpt lat="43.0530317" lon="6.7043993"><ele>0.0</ele><time>2026-04-30T21:59:22.061Z</time></trkpt><trkpt lat="43.0530873" lon="6.7044914"><ele>0.0</ele><time>2026-04-30T21:59:23.061Z</time></trkpt><trkpt lat="43.0531386" lon="6.704583"><ele>0.0</ele><time>2026-04-30T21:59:24.06Z</time></trkpt><trkpt lat="43.0531894" lon="6.7046778"><ele>0.0</ele><time>2026-04-30T21:59:25.06Z</time></trkpt><trkpt lat="43.0532386" lon="6.7047682"><ele>0.0</ele><time>2026-04-30T21:59:26.06Z</time></trkpt><trkpt lat="43.0532912" lon="6.7048612"><ele>0.0</ele><time>2026-04-30T21:59:27.06Z</time></trkpt><trkpt lat="43.0533438" lon="6.7049545"><ele>0.0</ele><time>2026-04-30T21:59:28.061Z</time></trkpt><trkpt lat="43.0534278" lon="6.705038"><ele>0.0</ele><time>2026-04-30T21:59:29.061Z</time></trkpt><trkpt lat="43.0534929" lon="6.705127"><ele>0.0</ele><time>2026-04-30T21:59:30.061Z</time></trkpt><trkpt lat="43.0535383" lon="6.7052169"><ele>0.0</ele><time>2026-04-30T21:59:31.06Z</time></trkpt><trkpt lat="43.053604" lon="6.7053052"><ele>0.0</ele><time>2026-04-30T21:59:32.061Z</time></trkpt><trkpt lat="43.0536525" lon="6.7053978"><ele>0.0</ele><time>2026-04-30T21:59:33.06Z</time></trkpt><trkpt lat="43.0537023" lon="6.7054915"><ele>0.0</ele><time>2026-04-30T21:59:34.061Z</time></trkpt><trkpt lat="43.0537478" lon="6.7055818"><ele>0.0</ele><time>2026-04-30T21:59:35.061Z</time></trkpt><trkpt lat="43.0537888" lon="6.705673"><ele>0.0</ele><time>2026-04-30T21:59:36.061Z</time></trkpt><trkpt lat="43.053837" lon="6.7057623"><ele>0.0</ele><time>2026-04-30T21:59:37.06Z</time></trkpt><trkpt lat="43.053884" lon="6.7058558"><ele>0.0</ele><time>2026-04-30T21:59:38.06Z</time></trkpt><trkpt lat="43.053972" lon="6.7060417"><ele>0.0</ele><time>2026-04-30T21:59:40.06Z</time></trkpt><trkpt lat="43.0540144" lon="6.7061361"><ele>0.0</ele><time>2026-04-30T21:59:41.06Z</time></trkpt><trkpt lat="43.0540589" lon="6.7062323"><ele>0.0</ele><time>2026-04-30T21:59:42.061Z</time></trkpt><trkpt lat="43.0540998" lon="6.7063296"><ele>0.0</ele><time>2026-04-30T21:59:43.06Z</time></trkpt><trkpt lat="43.0541409" lon="6.7064261"><ele>0.0</ele><time>2026-04-30T21:59:44.06Z</time></trkpt><trkpt lat="43.0541836" lon="6.7065219"><ele>0.0</ele><time>2026-04-30T21:59:45.06Z</time></trkpt><trkpt lat="43.0542282" lon="6.7066182"><ele>0.0</ele><time>2026-04-30T21:59:46.061Z</time></trkpt><trkpt lat="43.0542735" lon="6.7067146"><ele>0.0</ele><time>2026-04-30T21:59:47.061Z</time></trkpt><trkpt lat="43.0543228" lon="6.7068127"><ele>0.0</ele><time>2026-04-30T21:59:48.061Z</time></trkpt><trkpt lat="43.0543844" lon="6.7068984"><ele>0.0</ele><time>2026-04-30T21:59:49.06Z</time></trkpt><trkpt lat="43.0544348" lon="6.706993"><ele>0.0</ele><time>2026-04-30T21:59:50.06Z</time></trkpt><trkpt lat="43.0544777" lon="6.707091"><ele>0.0</ele><time>2026-04-30T21:59:51.06Z</time></trkpt><trkpt lat="43.0545348" lon="6.7071835"><ele>0.0</ele><time>2026-04-30T21:59:52.061Z</time></trkpt><trkpt lat="43.0545891" lon="6.7072726"><ele>0.0</ele><time>2026-04-30T21:59:53.061Z</time></trkpt><trkpt lat="43.054645" lon="6.707361"><ele>0.0</ele><time>2026-04-30T21:59:54.06Z</time></trkpt><trkpt lat="43.0547006" lon="6.7074502"><ele>0.0</ele><time>2026-04-30T21:59:55.061Z</time></trkpt><trkpt lat="43.0547486" lon="6.7075419"><ele>0.0</ele><time>2026-04-30T21:59:56.06Z</time></trkpt><trkpt lat="43.0547939" lon="6.7076321"><ele>0.0</ele><time>2026-04-30T21:59:57.061Z</time></trkpt><trkpt lat="43.0548419" lon="6.7077239"><ele>0.0</ele><time>2026-04-30T21:59:58.06Z</time></trkpt><trkpt lat="43.054889" lon="6.7078153"><ele>0.0</ele><time>2026-04-30T21:59:59.061Z</time></trkpt><trkpt lat="43.0549853" lon="6.7079965"><ele>0.0</ele><time>2026-04-30T22:00:01.061Z</time></trkpt><trkpt lat="43.0550292" lon="6.7080913"><ele>0.0</ele><time>2026-04-30T22:00:02.06Z</time></trkpt><trkpt lat="43.0550847" lon="6.7081822"><ele>0.0</ele><time>2026-04-30T22:00:03.06Z</time></trkpt><trkpt lat="43.0551478" lon="6.7082736"><ele>0.0</ele><time>2026-04-30T22:00:04.061Z</time></trkpt><trkpt lat="43.0551945" lon="6.7083667"><ele>0.0</ele><time>2026-04-30T22:00:05.061Z</time></trkpt><trkpt lat="43.0552393" lon="6.7084597"><ele>0.0</ele><time>2026-04-30T22:00:06.06Z</time></trkpt><trkpt lat="43.0552831" lon="6.7085519"><ele>0.0</ele><time>2026-04-30T22:00:07.061Z</time></trkpt><trkpt lat="43.0553389" lon="6.7086389"><ele>0.0</ele><time>2026-04-30T22:00:08.06Z</time></trkpt><trkpt lat="43.0553931" lon="6.7087289"><ele>0.0</ele><time>2026-04-30T22:00:09.06Z</time></trkpt><trkpt lat="43.0554876" lon="6.7089132"><ele>0.0</ele><time>2026-04-30T22:00:11.06Z</time></trkpt><trkpt lat="43.0555328" lon="6.7089962"><ele>0.0</ele><time>2026-04-30T22:00:12.06Z</time></trkpt><trkpt lat="43.0555788" lon="6.7090892"><ele>0.0</ele><time>2026-04-30T22:00:13.061Z</time></trkpt><trkpt lat="43.0556243" lon="6.7091813"><ele>0.0</ele><time>2026-04-30T22:00:14.06Z</time></trkpt><trkpt lat="43.0556724" lon="6.7092765"><ele>0.0</ele><time>2026-04-30T22:00:15.06Z</time></trkpt><trkpt lat="43.0557246" lon="6.7093658"><ele>0.0</ele><time>2026-04-30T22:00:16.061Z</time></trkpt><trkpt lat="43.055771" lon="6.7094596"><ele>0.0</ele><time>2026-04-30T22:00:17.06Z</time></trkpt><trkpt lat="43.0558144" lon="6.7095561"><ele>0.0</ele><time>2026-04-30T22:00:18.061Z</time></trkpt><trkpt lat="43.0558573" lon="6.7096514"><ele>0.0</ele><time>2026-04-30T22:00:19.06Z</time></trkpt><trkpt lat="43.0559055" lon="6.7097462"><ele>0.0</ele><time>2026-04-30T22:00:20.061Z</time></trkpt><trkpt lat="43.0560088" lon="6.7099215"><ele>0.0</ele><time>2026-04-30T22:00:22.06Z</time></trkpt><trkpt lat="43.0560741" lon="6.7100078"><ele>0.0</ele><time>2026-04-30T22:00:23.061Z</time></trkpt><trkpt lat="43.0561266" lon="6.710097"><ele>0.0</ele><time>2026-04-30T22:00:24.06Z</time></trkpt><trkpt lat="43.0561772" lon="6.7101891"><ele>0.0</ele><time>2026-04-30T22:00:25.061Z</time></trkpt><trkpt lat="43.0562271" lon="6.710279"><ele>0.0</ele><time>2026-04-30T22:00:26.061Z</time></trkpt><trkpt lat="43.056276" lon="6.7103635"><ele>0.0</ele><time>2026-04-30T22:00:27.06Z</time></trkpt><trkpt lat="43.0563229" lon="6.7104571"><ele>0.0</ele><time>2026-04-30T22:00:28.06Z</time></trkpt><trkpt lat="43.0563903" lon="6.7105438"><ele>0.0</ele><time>2026-04-30T22:00:29.06Z</time></trkpt><trkpt lat="43.0564434" lon="6.7106334"><ele>0.0</ele><time>2026-04-30T22:00:30.06Z</time></trkpt><trkpt lat="43.0564938" lon="6.7107243"><ele>0.0</ele><time>2026-04-30T22:00:31.061Z</time></trkpt><trkpt lat="43.0565422" lon="6.7108133"><ele>0.0</ele><time>2026-04-30T22:00:32.061Z</time></trkpt><trkpt lat="43.056592" lon="6.710907"><ele>0.0</ele><time>2026-04-30T22:00:33.061Z</time></trkpt><trkpt lat="43.056645" lon="6.7109967"><ele>0.0</ele><time>2026-04-30T22:00:34.06Z</time></trkpt><trkpt lat="43.0566968" lon="6.711085"><ele>0.0</ele><time>2026-04-30T22:00:35.06Z</time></trkpt><trkpt lat="43.0567427" lon="6.7111792"><ele>0.0</ele><time>2026-04-30T22:00:36.06Z</time></trkpt><trkpt lat="43.0567849" lon="6.7112756"><ele>0.0</ele><time>2026-04-30T22:00:37.061Z</time></trkpt><trkpt lat="43.0568231" lon="6.7113725"><ele>0.0</ele><time>2026-04-30T22:00:38.06Z</time></trkpt><trkpt lat="43.0568711" lon="6.7114676"><ele>0.0</ele><time>2026-04-30T22:00:39.061Z</time></trkpt><trkpt lat="43.056917" lon="6.7115643"><ele>0.0</ele><time>2026-04-30T22:00:40.06Z</time></trkpt><trkpt lat="43.0569663" lon="6.7116566"><ele>0.0</ele><time>2026-04-30T22:00:41.06Z</time></trkpt><trkpt lat="43.0571264" lon="6.7119414"><ele>0.0</ele><time>2026-04-30T22:00:44.061Z</time></trkpt><trkpt lat="43.0571823" lon="6.7120347"><ele>0.0</ele><time>2026-04-30T22:00:45.061Z</time></trkpt><trkpt lat="43.0572353" lon="6.7121282"><ele>0.0</ele><time>2026-04-30T22:00:46.061Z</time></trkpt><trkpt lat="43.0572836" lon="6.7122217"><ele>0.0</ele><time>2026-04-30T22:00:47.06Z</time></trkpt><trkpt lat="43.0573333" lon="6.7123166"><ele>0.0</ele><time>2026-04-30T22:00:48.061Z</time></trkpt><trkpt lat="43.0573802" lon="6.712409"><ele>0.0</ele><time>2026-04-30T22:00:49.061Z</time></trkpt><trkpt lat="43.0574272" lon="6.7124989"><ele>0.0</ele><time>2026-04-30T22:00:50.061Z</time></trkpt><trkpt lat="43.0574778" lon="6.7125905"><ele>0.0</ele><time>2026-04-30T22:00:51.06Z</time></trkpt><trkpt lat="43.0575265" lon="6.7126848"><ele>0.0</ele><time>2026-04-30T22:00:52.061Z</time></trkpt><trkpt lat="43.0575809" lon="6.712777"><ele>0.0</ele><time>2026-04-30T22:00:53.061Z</time></trkpt><trkpt lat="43.0576335" lon="6.7128654"><ele>0.0</ele><time>2026-04-30T22:00:54.06Z</time></trkpt><trkpt lat="43.0576853" lon="6.7129552"><ele>0.0</ele><time>2026-04-30T22:00:55.061Z</time></trkpt><trkpt lat="43.0577308" lon="6.7130451"><ele>0.0</ele><time>2026-04-30T22:00:56.061Z</time></trkpt><trkpt lat="43.05778" lon="6.713135"><ele>0.0</ele><time>2026-04-30T22:00:57.06Z</time></trkpt><trkpt lat="43.0578311" lon="6.7132338"><ele>0.0</ele><time>2026-04-30T22:00:58.06Z</time></trkpt><trkpt lat="43.0578875" lon="6.713325"><ele>0.0</ele><time>2026-04-30T22:00:59.061Z</time></trkpt><trkpt lat="43.0579381" lon="6.7134145"><ele>0.0</ele><time>2026-04-30T22:01:00.061Z</time></trkpt><trkpt lat="43.0579865" lon="6.7135066"><ele>0.0</ele><time>2026-04-30T22:01:01.061Z</time></trkpt><trkpt lat="43.0580356" lon="6.7135955"><ele>0.0</ele><time>2026-04-30T22:01:02.061Z</time></trkpt><trkpt lat="43.0580853" lon="6.7136836"><ele>0.0</ele><time>2026-04-30T22:01:03.06Z</time></trkpt><trkpt lat="43.058187" lon="6.7138586"><ele>0.0</ele><time>2026-04-30T22:01:05.06Z</time></trkpt><trkpt lat="43.0582367" lon="6.7139508"><ele>0.0</ele><time>2026-04-30T22:01:06.061Z</time></trkpt><trkpt lat="43.0582798" lon="6.7140463"><ele>0.0</ele><time>2026-04-30T22:01:07.06Z</time></trkpt><trkpt lat="43.0583225" lon="6.7141388"><ele>0.0</ele><time>2026-04-30T22:01:08.061Z</time></trkpt><trkpt lat="43.0583715" lon="6.7142298"><ele>0.0</ele><time>2026-04-30T22:01:09.06Z</time></trkpt><trkpt lat="43.0584175" lon="6.7143244"><ele>0.0</ele><time>2026-04-30T22:01:10.06Z</time></trkpt><trkpt lat="43.0584654" lon="6.7144194"><ele>0.0</ele><time>2026-04-30T22:01:11.061Z</time></trkpt><trkpt lat="43.0585162" lon="6.7145147"><ele>0.0</ele><time>2026-04-30T22:01:12.06Z</time></trkpt><trkpt lat="43.0585645" lon="6.7146059"><ele>0.0</ele><time>2026-04-30T22:01:13.06Z</time></trkpt><trkpt lat="43.0586122" lon="6.7146943"><ele>0.0</ele><time>2026-04-30T22:01:14.06Z</time></trkpt><trkpt lat="43.0586535" lon="6.7147868"><ele>0.0</ele><time>2026-04-30T22:01:15.06Z</time></trkpt><trkpt lat="43.0586949" lon="6.7148802"><ele>0.0</ele><time>2026-04-30T22:01:16.061Z</time></trkpt><trkpt lat="43.058738" lon="6.7149735"><ele>0.0</ele><time>2026-04-30T22:01:17.061Z</time></trkpt><trkpt lat="43.0587864" lon="6.7150669"><ele>0.0</ele><time>2026-04-30T22:01:18.061Z</time></trkpt><trkpt lat="43.0588309" lon="6.7151586"><ele>0.0</ele><time>2026-04-30T22:01:19.061Z</time></trkpt><trkpt lat="43.058878" lon="6.7152514"><ele>0.0</ele><time>2026-04-30T22:01:20.061Z</time></trkpt><trkpt lat="43.0589266" lon="6.7153452"><ele>0.0</ele><time>2026-04-30T22:01:21.06Z</time></trkpt><trkpt lat="43.0589685" lon="6.7154431"><ele>0.0</ele><time>2026-04-30T22:01:22.061Z</time></trkpt><trkpt lat="43.0590062" lon="6.7155428"><ele>0.0</ele><time>2026-04-30T22:01:23.061Z</time></trkpt><trkpt lat="43.0590438" lon="6.7156396"><ele>0.0</ele><time>2026-04-30T22:01:24.061Z</time></trkpt><trkpt lat="43.0591365" lon="6.7158299"><ele>0.0</ele><time>2026-04-30T22:01:26.06Z</time></trkpt><trkpt lat="43.0591859" lon="6.7159282"><ele>0.0</ele><time>2026-04-30T22:01:27.06Z</time></trkpt><trkpt lat="43.0592345" lon="6.7160265"><ele>0.0</ele><time>2026-04-30T22:01:28.061Z</time></trkpt><trkpt lat="43.0592826" lon="6.7161191"><ele>0.0</ele><time>2026-04-30T22:01:29.061Z</time></trkpt><trkpt lat="43.0593357" lon="6.7162061"><ele>0.0</ele><time>2026-04-30T22:01:30.06Z</time></trkpt><trkpt lat="43.0593881" lon="6.7162942"><ele>0.0</ele><time>2026-04-30T22:01:31.061Z</time></trkpt><trkpt lat="43.0594368" lon="6.7163834"><ele>0.0</ele><time>2026-04-30T22:01:32.06Z</time></trkpt><trkpt lat="43.0594866" lon="6.7164723"><ele>0.0</ele><time>2026-04-30T22:01:33.061Z</time></trkpt><trkpt lat="43.0595409" lon="6.7165647"><ele>0.0</ele><time>2026-04-30T22:01:34.061Z</time></trkpt><trkpt lat="43.0595923" lon="6.7166569"><ele>0.0</ele><time>2026-04-30T22:01:35.06Z</time></trkpt><trkpt lat="43.0596421" lon="6.7167469"><ele>0.0</ele><time>2026-04-30T22:01:36.06Z</time></trkpt><trkpt lat="43.0596944" lon="6.7168398"><ele>0.0</ele><time>2026-04-30T22:01:37.06Z</time></trkpt><trkpt lat="43.059748" lon="6.7169343"><ele>0.0</ele><time>2026-04-30T22:01:38.061Z</time></trkpt><trkpt lat="43.0598058" lon="6.7170252"><ele>0.0</ele><time>2026-04-30T22:01:39.06Z</time></trkpt><trkpt lat="43.0598597" lon="6.7171177"><ele>0.0</ele><time>2026-04-30T22:01:40.06Z</time></trkpt><trkpt lat="43.0599141" lon="6.7172115"><ele>0.0</ele><time>2026-04-30T22:01:41.06Z</time></trkpt><trkpt lat="43.0599696" lon="6.7173021"><ele>0.0</ele><time>2026-04-30T22:01:42.06Z</time></trkpt><trkpt lat="43.0600186" lon="6.7173915"><ele>0.0</ele><time>2026-04-30T22:01:43.06Z</time></trkpt><trkpt lat="43.0600715" lon="6.7174802"><ele>0.0</ele><time>2026-04-30T22:01:44.06Z</time></trkpt><trkpt lat="43.0601169" lon="6.7175697"><ele>0.0</ele><time>2026-04-30T22:01:45.06Z</time></trkpt><trkpt lat="43.0601628" lon="6.7176586"><ele>0.0</ele><time>2026-04-30T22:01:46.06Z</time></trkpt><trkpt lat="43.0602601" lon="6.7178365"><ele>0.0</ele><time>2026-04-30T22:01:48.06Z</time></trkpt><trkpt lat="43.0603143" lon="6.7179249"><ele>0.0</ele><time>2026-04-30T22:01:49.06Z</time></trkpt><trkpt lat="43.0603696" lon="6.7180164"><ele>0.0</ele><time>2026-04-30T22:01:50.061Z</time></trkpt><trkpt lat="43.0604329" lon="6.7180996"><ele>0.0</ele><time>2026-04-30T22:01:51.061Z</time></trkpt><trkpt lat="43.0604867" lon="6.7181897"><ele>0.0</ele><time>2026-04-30T22:01:52.06Z</time></trkpt><trkpt lat="43.0605344" lon="6.7182805"><ele>0.0</ele><time>2026-04-30T22:01:53.061Z</time></trkpt><trkpt lat="43.0605869" lon="6.7183687"><ele>0.0</ele><time>2026-04-30T22:01:54.061Z</time></trkpt><trkpt lat="43.0606402" lon="6.7184583"><ele>0.0</ele><time>2026-04-30T22:01:55.06Z</time></trkpt><trkpt lat="43.0606933" lon="6.7185483"><ele>0.0</ele><time>2026-04-30T22:01:56.061Z</time></trkpt><trkpt lat="43.0607437" lon="6.7186368"><ele>0.0</ele><time>2026-04-30T22:01:57.06Z</time></trkpt><trkpt lat="43.0607893" lon="6.7187322"><ele>0.0</ele><time>2026-04-30T22:01:58.06Z</time></trkpt><trkpt lat="43.0608415" lon="6.7188249"><ele>0.0</ele><time>2026-04-30T22:01:59.061Z</time></trkpt><trkpt lat="43.0608909" lon="6.7189181"><ele>0.0</ele><time>2026-04-30T22:02:00.06Z</time></trkpt><trkpt lat="43.0609363" lon="6.7190109"><ele>0.0</ele><time>2026-04-30T22:02:01.06Z</time></trkpt><trkpt lat="43.0609852" lon="6.719106"><ele>0.0</ele><time>2026-04-30T22:02:02.06Z</time></trkpt><trkpt lat="43.0610324" lon="6.7191983"><ele>0.0</ele><time>2026-04-30T22:02:03.061Z</time></trkpt><trkpt lat="43.0610757" lon="6.7192887"><ele>0.0</ele><time>2026-04-30T22:02:04.06Z</time></trkpt><trkpt lat="43.0611557" lon="6.7193622"><ele>0.0</ele><time>2026-04-30T22:02:05.061Z</time></trkpt><trkpt lat="43.0612068" lon="6.7194543"><ele>0.0</ele><time>2026-04-30T22:02:06.061Z</time></trkpt><trkpt lat="43.0612536" lon="6.7195493"><ele>0.0</ele><time>2026-04-30T22:02:07.06Z</time></trkpt><trkpt lat="43.0613437" lon="6.7197389"><ele>0.0</ele><time>2026-04-30T22:02:09.061Z</time></trkpt><trkpt lat="43.0613906" lon="6.7198333"><ele>0.0</ele><time>2026-04-30T22:02:10.061Z</time></trkpt><trkpt lat="43.0614354" lon="6.7199236"><ele>0.0</ele><time>2026-04-30T22:02:11.061Z</time></trkpt><trkpt lat="43.0614824" lon="6.7200146"><ele>0.0</ele><time>2026-04-30T22:02:12.061Z</time></trkpt><trkpt lat="43.0615365" lon="6.7201049"><ele>0.0</ele><time>2026-04-30T22:02:13.06Z</time></trkpt><trkpt lat="43.0615843" lon="6.720195"><ele>0.0</ele><time>2026-04-30T22:02:14.06Z</time></trkpt><trkpt lat="43.0616292" lon="6.7202865"><ele>0.0</ele><time>2026-04-30T22:02:15.06Z</time></trkpt><trkpt lat="43.0616771" lon="6.7203769"><ele>0.0</ele><time>2026-04-30T22:02:16.061Z</time></trkpt><trkpt lat="43.0617403" lon="6.7204625"><ele>0.0</ele><time>2026-04-30T22:02:17.061Z</time></trkpt><trkpt lat="43.0618501" lon="6.7206413"><ele>0.0</ele><time>2026-04-30T22:02:19.06Z</time></trkpt><trkpt lat="43.0619002" lon="6.7207316"><ele>0.0</ele><time>2026-04-30T22:02:20.061Z</time></trkpt><trkpt lat="43.0619504" lon="6.7208238"><ele>0.0</ele><time>2026-04-30T22:02:21.061Z</time></trkpt><trkpt lat="43.061998" lon="6.7209217"><ele>0.0</ele><time>2026-04-30T22:02:22.06Z</time></trkpt><trkpt lat="43.0620437" lon="6.7210188"><ele>0.0</ele><time>2026-04-30T22:02:23.06Z</time></trkpt><trkpt lat="43.0620888" lon="6.7211145"><ele>0.0</ele><time>2026-04-30T22:02:24.06Z</time></trkpt><trkpt lat="43.0621358" lon="6.7212091"><ele>0.0</ele><time>2026-04-30T22:02:25.06Z</time></trkpt><trkpt lat="43.0621825" lon="6.721303"><ele>0.0</ele><time>2026-04-30T22:02:26.06Z</time></trkpt><trkpt lat="43.062233" lon="6.721396"><ele>0.0</ele><time>2026-04-30T22:02:27.06Z</time></trkpt><trkpt lat="43.0623319" lon="6.7215862"><ele>0.0</ele><time>2026-04-30T22:02:29.06Z</time></trkpt><trkpt lat="43.0623805" lon="6.7216785"><ele>0.0</ele><time>2026-04-30T22:02:30.06Z</time></trkpt><trkpt lat="43.0624316" lon="6.7217667"><ele>0.0</ele><time>2026-04-30T22:02:31.061Z</time></trkpt><trkpt lat="43.062479" lon="6.721858"><ele>0.0</ele><time>2026-04-30T22:02:32.06Z</time></trkpt><trkpt lat="43.0625296" lon="6.7219451"><ele>0.0</ele><time>2026-04-30T22:02:33.061Z</time></trkpt><trkpt lat="43.0625817" lon="6.7220316"><ele>0.0</ele><time>2026-04-30T22:02:34.06Z</time></trkpt><trkpt lat="43.0626294" lon="6.722118"><ele>0.0</ele><time>2026-04-30T22:02:35.06Z</time></trkpt><trkpt lat="43.0626784" lon="6.7222049"><ele>0.0</ele><time>2026-04-30T22:02:36.061Z</time></trkpt><trkpt lat="43.0627415" lon="6.7222861"><ele>0.0</ele><time>2026-04-30T22:02:37.061Z</time></trkpt><trkpt lat="43.0627918" lon="6.7223784"><ele>0.0</ele><time>2026-04-30T22:02:38.06Z</time></trkpt><trkpt lat="43.0628417" lon="6.7224713"><ele>0.0</ele><time>2026-04-30T22:02:39.061Z</time></trkpt><trkpt lat="43.0628932" lon="6.7225606"><ele>0.0</ele><time>2026-04-30T22:02:40.061Z</time></trkpt><trkpt lat="43.0629478" lon="6.7226473"><ele>0.0</ele><time>2026-04-30T22:02:41.06Z</time></trkpt><trkpt lat="43.0629974" lon="6.7227392"><ele>0.0</ele><time>2026-04-30T22:02:42.06Z</time></trkpt><trkpt lat="43.0630414" lon="6.7228323"><ele>0.0</ele><time>2026-04-30T22:02:43.06Z</time></trkpt><trkpt lat="43.0630946" lon="6.7229244"><ele>0.0</ele><time>2026-04-30T22:02:44.061Z</time></trkpt><trkpt lat="43.0631458" lon="6.7230202"><ele>0.0</ele><time>2026-04-30T22:02:45.06Z</time></trkpt><trkpt lat="43.0631954" lon="6.7231143"><ele>0.0</ele><time>2026-04-30T22:02:46.06Z</time></trkpt><trkpt lat="43.0632439" lon="6.7232092"><ele>0.0</ele><time>2026-04-30T22:02:47.061Z</time></trkpt><trkpt lat="43.0632965" lon="6.7233"><ele>0.0</ele><time>2026-04-30T22:02:48.06Z</time></trkpt><trkpt lat="43.063341" lon="6.7233897"><ele>0.0</ele><time>2026-04-30T22:02:49.061Z</time></trkpt><trkpt lat="43.0634929" lon="6.7236609"><ele>0.0</ele><time>2026-04-30T22:02:52.061Z</time></trkpt><trkpt lat="43.0635451" lon="6.7237528"><ele>0.0</ele><time>2026-04-30T22:02:53.061Z</time></trkpt><trkpt lat="43.0635995" lon="6.7238447"><ele>0.0</ele><time>2026-04-30T22:02:54.06Z</time></trkpt><trkpt lat="43.0636505" lon="6.7239412"><ele>0.0</ele><time>2026-04-30T22:02:55.06Z</time></trkpt><trkpt lat="43.063699" lon="6.7240337"><ele>0.0</ele><time>2026-04-30T22:02:56.06Z</time></trkpt><trkpt lat="43.0637501" lon="6.7241225"><ele>0.0</ele><time>2026-04-30T22:02:57.061Z</time></trkpt><trkpt lat="43.0637919" lon="6.7242174"><ele>0.0</ele><time>2026-04-30T22:02:58.06Z</time></trkpt><trkpt lat="43.0638358" lon="6.7243102"><ele>0.0</ele><time>2026-04-30T22:02:59.06Z</time></trkpt><trkpt lat="43.0638821" lon="6.7244072"><ele>0.0</ele><time>2026-04-30T22:03:00.061Z</time></trkpt><trkpt lat="43.0639319" lon="6.7245014"><ele>0.0</ele><time>2026-04-30T22:03:01.06Z</time></trkpt><trkpt lat="43.0639716" lon="6.7246005"><ele>0.0</ele><time>2026-04-30T22:03:02.06Z</time></trkpt><trkpt lat="43.064014" lon="6.7246982"><ele>0.0</ele><time>2026-04-30T22:03:03.06Z</time></trkpt><trkpt lat="43.0640646" lon="6.7247905"><ele>0.0</ele><time>2026-04-30T22:03:04.06Z</time></trkpt><trkpt lat="43.0641177" lon="6.7248787"><ele>0.0</ele><time>2026-04-30T22:03:05.061Z</time></trkpt><trkpt lat="43.0641658" lon="6.7249726"><ele>0.0</ele><time>2026-04-30T22:03:06.061Z</time></trkpt><trkpt lat="43.0642221" lon="6.7250637"><ele>0.0</ele><time>2026-04-30T22:03:07.061Z</time></trkpt><trkpt lat="43.0642749" lon="6.7251523"><ele>0.0</ele><time>2026-04-30T22:03:08.06Z</time></trkpt><trkpt lat="43.0643309" lon="6.7252436"><ele>0.0</ele><time>2026-04-30T22:03:09.06Z</time></trkpt><trkpt lat="43.0643818" lon="6.7253325"><ele>0.0</ele><time>2026-04-30T22:03:10.061Z</time></trkpt><trkpt lat="43.064428" lon="6.7254246"><ele>0.0</ele><time>2026-04-30T22:03:11.06Z</time></trkpt><trkpt lat="43.064527" lon="6.7256002"><ele>0.0</ele><time>2026-04-30T22:03:13.06Z</time></trkpt><trkpt lat="43.0645927" lon="6.7256839"><ele>0.0</ele><time>2026-04-30T22:03:14.061Z</time></trkpt><trkpt lat="43.0646392" lon="6.7257737"><ele>0.0</ele><time>2026-04-30T22:03:15.06Z</time></trkpt><trkpt lat="43.0646884" lon="6.7258616"><ele>0.0</ele><time>2026-04-30T22:03:16.061Z</time></trkpt><trkpt lat="43.0647357" lon="6.7259513"><ele>0.0</ele><time>2026-04-30T22:03:17.06Z</time></trkpt><trkpt lat="43.0647878" lon="6.7260416"><ele>0.0</ele><time>2026-04-30T22:03:18.061Z</time></trkpt><trkpt lat="43.0648413" lon="6.726133"><ele>0.0</ele><time>2026-04-30T22:03:19.061Z</time></trkpt><trkpt lat="43.0648946" lon="6.7262232"><ele>0.0</ele><time>2026-04-30T22:03:20.06Z</time></trkpt><trkpt lat="43.0649438" lon="6.7263163"><ele>0.0</ele><time>2026-04-30T22:03:21.059Z</time></trkpt><trkpt lat="43.0649938" lon="6.7264022"><ele>0.0</ele><time>2026-04-30T22:03:22.06Z</time></trkpt><trkpt lat="43.0650421" lon="6.7264939"><ele>0.0</ele><time>2026-04-30T22:03:23.059Z</time></trkpt><trkpt lat="43.065093" lon="6.7265803"><ele>0.0</ele><time>2026-04-30T22:03:24.06Z</time></trkpt><trkpt lat="43.0651444" lon="6.7266693"><ele>0.0</ele><time>2026-04-30T22:03:25.059Z</time></trkpt><trkpt lat="43.0651941" lon="6.7267597"><ele>0.0</ele><time>2026-04-30T22:03:26.059Z</time></trkpt><trkpt lat="43.0652422" lon="6.7268503"><ele>0.0</ele><time>2026-04-30T22:03:27.06Z</time></trkpt><trkpt lat="43.0652833" lon="6.726943"><ele>0.0</ele><time>2026-04-30T22:03:28.06Z</time></trkpt><trkpt lat="43.0653261" lon="6.7270364"><ele>0.0</ele><time>2026-04-30T22:03:29.059Z</time></trkpt><trkpt lat="43.0653722" lon="6.7271279"><ele>0.0</ele><time>2026-04-30T22:03:30.059Z</time></trkpt><trkpt lat="43.0654199" lon="6.7272152"><ele>0.0</ele><time>2026-04-30T22:03:31.06Z</time></trkpt><trkpt lat="43.0654598" lon="6.7273043"><ele>0.0</ele><time>2026-04-30T22:03:32.06Z</time></trkpt><trkpt lat="43.0655543" lon="6.7274909"><ele>0.0</ele><time>2026-04-30T22:03:34.059Z</time></trkpt><trkpt lat="43.0656046" lon="6.7275892"><ele>0.0</ele><time>2026-04-30T22:03:35.059Z</time></trkpt><trkpt lat="43.0656548" lon="6.7276859"><ele>0.0</ele><time>2026-04-30T22:03:36.059Z</time></trkpt><trkpt lat="43.0657005" lon="6.727781"><ele>0.0</ele><time>2026-04-30T22:03:37.059Z</time></trkpt><trkpt lat="43.0657553" lon="6.7278762"><ele>0.0</ele><time>2026-04-30T22:03:38.06Z</time></trkpt><trkpt lat="43.0658123" lon="6.72797"><ele>0.0</ele><time>2026-04-30T22:03:39.06Z</time></trkpt><trkpt lat="43.065869" lon="6.728059"><ele>0.0</ele><time>2026-04-30T22:03:40.059Z</time></trkpt><trkpt lat="43.0659229" lon="6.7281541"><ele>0.0</ele><time>2026-04-30T22:03:41.06Z</time></trkpt><trkpt lat="43.0659799" lon="6.7282466"><ele>0.0</ele><time>2026-04-30T22:03:42.06Z</time></trkpt><trkpt lat="43.0660284" lon="6.7283425"><ele>0.0</ele><time>2026-04-30T22:03:43.06Z</time></trkpt><trkpt lat="43.0660739" lon="6.7284375"><ele>0.0</ele><time>2026-04-30T22:03:44.06Z</time></trkpt><trkpt lat="43.0661151" lon="6.7285352"><ele>0.0</ele><time>2026-04-30T22:03:45.06Z</time></trkpt><trkpt lat="43.0661609" lon="6.7286357"><ele>0.0</ele><time>2026-04-30T22:03:46.059Z</time></trkpt><trkpt lat="43.0662016" lon="6.7287314"><ele>0.0</ele><time>2026-04-30T22:03:47.059Z</time></trkpt><trkpt lat="43.0662442" lon="6.7288264"><ele>0.0</ele><time>2026-04-30T22:03:48.059Z</time></trkpt><trkpt lat="43.066287" lon="6.7289199"><ele>0.0</ele><time>2026-04-30T22:03:49.059Z</time></trkpt><trkpt lat="43.0663305" lon="6.7290129"><ele>0.0</ele><time>2026-04-30T22:03:50.06Z</time></trkpt><trkpt lat="43.0663795" lon="6.7291062"><ele>0.0</ele><time>2026-04-30T22:03:51.059Z</time></trkpt><trkpt lat="43.0664264" lon="6.7291969"><ele>0.0</ele><time>2026-04-30T22:03:52.06Z</time></trkpt><trkpt lat="43.0664742" lon="6.7292881"><ele>0.0</ele><time>2026-04-30T22:03:53.06Z</time></trkpt><trkpt lat="43.0666821" lon="6.7295528"><ele>0.0</ele><time>2026-04-30T22:03:56.059Z</time></trkpt><trkpt lat="43.0667408" lon="6.7296437"><ele>0.0</ele><time>2026-04-30T22:03:57.059Z</time></trkpt><trkpt lat="43.066798" lon="6.7297364"><ele>0.0</ele><time>2026-04-30T22:03:58.06Z</time></trkpt><trkpt lat="43.0668505" lon="6.7298273"><ele>0.0</ele><time>2026-04-30T22:03:59.059Z</time></trkpt><trkpt lat="43.0669032" lon="6.729923"><ele>0.0</ele><time>2026-04-30T22:04:00.059Z</time></trkpt><trkpt lat="43.0669496" lon="6.7300169"><ele>0.0</ele><time>2026-04-30T22:04:01.059Z</time></trkpt><trkpt lat="43.0669998" lon="6.730109"><ele>0.0</ele><time>2026-04-30T22:04:02.059Z</time></trkpt><trkpt lat="43.0670476" lon="6.7302008"><ele>0.0</ele><time>2026-04-30T22:04:03.06Z</time></trkpt><trkpt lat="43.067091" lon="6.7302961"><ele>0.0</ele><time>2026-04-30T22:04:04.06Z</time></trkpt><trkpt lat="43.0671367" lon="6.7303955"><ele>0.0</ele><time>2026-04-30T22:04:05.06Z</time></trkpt><trkpt lat="43.0671815" lon="6.7304901"><ele>0.0</ele><time>2026-04-30T22:04:06.059Z</time></trkpt><trkpt lat="43.0672296" lon="6.7305833"><ele>0.0</ele><time>2026-04-30T22:04:07.06Z</time></trkpt><trkpt lat="43.06728" lon="6.7306707"><ele>0.0</ele><time>2026-04-30T22:04:08.06Z</time></trkpt><trkpt lat="43.0673344" lon="6.7307615"><ele>0.0</ele><time>2026-04-30T22:04:09.06Z</time></trkpt><trkpt lat="43.0673851" lon="6.7308517"><ele>0.0</ele><time>2026-04-30T22:04:10.059Z</time></trkpt><trkpt lat="43.0674326" lon="6.7309444"><ele>0.0</ele><time>2026-04-30T22:04:11.059Z</time></trkpt><trkpt lat="43.0674745" lon="6.7310374"><ele>0.0</ele><time>2026-04-30T22:04:12.06Z</time></trkpt><trkpt lat="43.0675186" lon="6.731128"><ele>0.0</ele><time>2026-04-30T22:04:13.059Z</time></trkpt><trkpt lat="43.0675681" lon="6.7312237"><ele>0.0</ele><time>2026-04-30T22:04:14.06Z</time></trkpt><trkpt lat="43.0676161" lon="6.7313192"><ele>0.0</ele><time>2026-04-30T22:04:15.059Z</time></trkpt><trkpt lat="43.0677001" lon="6.7315011"><ele>0.0</ele><time>2026-04-30T22:04:17.059Z</time></trkpt><trkpt lat="43.0677457" lon="6.7315958"><ele>0.0</ele><time>2026-04-30T22:04:18.059Z</time></trkpt><trkpt lat="43.0677891" lon="6.7316908"><ele>0.0</ele><time>2026-04-30T22:04:19.06Z</time></trkpt><trkpt lat="43.0678354" lon="6.7317817"><ele>0.0</ele><time>2026-04-30T22:04:20.06Z</time></trkpt><trkpt lat="43.0678818" lon="6.7318691"><ele>0.0</ele><time>2026-04-30T22:04:21.059Z</time></trkpt><trkpt lat="43.067934" lon="6.7319572"><ele>0.0</ele><time>2026-04-30T22:04:22.059Z</time></trkpt><trkpt lat="43.0679867" lon="6.7320506"><ele>0.0</ele><time>2026-04-30T22:04:23.059Z</time></trkpt><trkpt lat="43.0680326" lon="6.7321457"><ele>0.0</ele><time>2026-04-30T22:04:24.059Z</time></trkpt><trkpt lat="43.0680815" lon="6.7322365"><ele>0.0</ele><time>2026-04-30T22:04:25.06Z</time></trkpt><trkpt lat="43.0681769" lon="6.7324162"><ele>0.0</ele><time>2026-04-30T22:04:27.059Z</time></trkpt><trkpt lat="43.0682262" lon="6.732509"><ele>0.0</ele><time>2026-04-30T22:04:28.059Z</time></trkpt><trkpt lat="43.0682736" lon="6.7325993"><ele>0.0</ele><time>2026-04-30T22:04:29.059Z</time></trkpt><trkpt lat="43.0683226" lon="6.7326924"><ele>0.0</ele><time>2026-04-30T22:04:30.06Z</time></trkpt><trkpt lat="43.0683733" lon="6.7327891"><ele>0.0</ele><time>2026-04-30T22:04:31.059Z</time></trkpt><trkpt lat="43.0684261" lon="6.7328818"><ele>0.0</ele><time>2026-04-30T22:04:32.059Z</time></trkpt><trkpt lat="43.0684739" lon="6.732975"><ele>0.0</ele><time>2026-04-30T22:04:33.06Z</time></trkpt><trkpt lat="43.0685228" lon="6.7330656"><ele>0.0</ele><time>2026-04-30T22:04:34.059Z</time></trkpt><trkpt lat="43.0685755" lon="6.7331555"><ele>0.0</ele><time>2026-04-30T22:04:35.059Z</time></trkpt><trkpt lat="43.0686269" lon="6.7332468"><ele>0.0</ele><time>2026-04-30T22:04:36.059Z</time></trkpt><trkpt lat="43.0687319" lon="6.7334284"><ele>0.0</ele><time>2026-04-30T22:04:38.059Z</time></trkpt><trkpt lat="43.0687858" lon="6.7335211"><ele>0.0</ele><time>2026-04-30T22:04:39.059Z</time></trkpt><trkpt lat="43.0688451" lon="6.7336183"><ele>0.0</ele><time>2026-04-30T22:04:40.06Z</time></trkpt><trkpt lat="43.068909" lon="6.7337102"><ele>0.0</ele><time>2026-04-30T22:04:41.059Z</time></trkpt><trkpt lat="43.068945" lon="6.7337917"><ele>0.0</ele><time>2026-04-30T22:04:42.06Z</time></trkpt><trkpt lat="43.0689815" lon="6.7338812"><ele>0.0</ele><time>2026-04-30T22:04:43.059Z</time></trkpt><trkpt lat="43.06902" lon="6.7339791"><ele>0.0</ele><time>2026-04-30T22:04:44.06Z</time></trkpt><trkpt lat="43.0690581" lon="6.7340788"><ele>0.0</ele><time>2026-04-30T22:04:45.06Z</time></trkpt><trkpt lat="43.0691234" lon="6.7341748"><ele>0.0</ele><time>2026-04-30T22:04:46.06Z</time></trkpt><trkpt lat="43.0691759" lon="6.7342675"><ele>0.0</ele><time>2026-04-30T22:04:47.059Z</time></trkpt><trkpt lat="43.0692265" lon="6.7343611"><ele>0.0</ele><time>2026-04-30T22:04:48.059Z</time></trkpt><trkpt lat="43.069278" lon="6.7344545"><ele>0.0</ele><time>2026-04-30T22:04:49.059Z</time></trkpt><trkpt lat="43.0693313" lon="6.734551"><ele>0.0</ele><time>2026-04-30T22:04:50.059Z</time></trkpt><trkpt lat="43.0693819" lon="6.7346418"><ele>0.0</ele><time>2026-04-30T22:04:51.059Z</time></trkpt><trkpt lat="43.0694315" lon="6.734736"><ele>0.0</ele><time>2026-04-30T22:04:52.059Z</time></trkpt><trkpt lat="43.0694917" lon="6.7348208"><ele>0.0</ele><time>2026-04-30T22:04:53.059Z</time></trkpt><trkpt lat="43.0695477" lon="6.734911"><ele>0.0</ele><time>2026-04-30T22:04:54.06Z</time></trkpt><trkpt lat="43.0696015" lon="6.7350028"><ele>0.0</ele><time>2026-04-30T22:04:55.06Z</time></trkpt><trkpt lat="43.0696566" lon="6.735095"><ele>0.0</ele><time>2026-04-30T22:04:56.06Z</time></trkpt><trkpt lat="43.0697095" lon="6.7351983"><ele>0.0</ele><time>2026-04-30T22:04:57.059Z</time></trkpt><trkpt lat="43.069854" lon="6.7354641"><ele>0.0</ele><time>2026-04-30T22:05:00.06Z</time></trkpt><trkpt lat="43.0698988" lon="6.7355524"><ele>0.0</ele><time>2026-04-30T22:05:01.059Z</time></trkpt><trkpt lat="43.0699481" lon="6.735642"><ele>0.0</ele><time>2026-04-30T22:05:02.059Z</time></trkpt><trkpt lat="43.070004" lon="6.735731"><ele>0.0</ele><time>2026-04-30T22:05:03.059Z</time></trkpt><trkpt lat="43.0700569" lon="6.7358247"><ele>0.0</ele><time>2026-04-30T22:05:04.059Z</time></trkpt><trkpt lat="43.0701053" lon="6.735915"><ele>0.0</ele><time>2026-04-30T22:05:05.059Z</time></trkpt><trkpt lat="43.0701635" lon="6.7359994"><ele>0.0</ele><time>2026-04-30T22:05:06.059Z</time></trkpt><trkpt lat="43.0702132" lon="6.7360841"><ele>0.0</ele><time>2026-04-30T22:05:07.059Z</time></trkpt><trkpt lat="43.0702662" lon="6.7361722"><ele>0.0</ele><time>2026-04-30T22:05:08.059Z</time></trkpt><trkpt lat="43.0703228" lon="6.736259"><ele>0.0</ele><time>2026-04-30T22:05:09.06Z</time></trkpt><trkpt lat="43.0703754" lon="6.7363456"><ele>0.0</ele><time>2026-04-30T22:05:10.059Z</time></trkpt><trkpt lat="43.0704321" lon="6.7364294"><ele>0.0</ele><time>2026-04-30T22:05:11.059Z</time></trkpt><trkpt lat="43.0704803" lon="6.7365164"><ele>0.0</ele><time>2026-04-30T22:05:12.059Z</time></trkpt><trkpt lat="43.0705383" lon="6.7366022"><ele>0.0</ele><time>2026-04-30T22:05:13.059Z</time></trkpt><trkpt lat="43.0705885" lon="6.7366945"><ele>0.0</ele><time>2026-04-30T22:05:14.059Z</time></trkpt><trkpt lat="43.0706386" lon="6.736785"><ele>0.0</ele><time>2026-04-30T22:05:15.059Z</time></trkpt><trkpt lat="43.0706877" lon="6.7368763"><ele>0.0</ele><time>2026-04-30T22:05:16.06Z</time></trkpt><trkpt lat="43.0707346" lon="6.7369639"><ele>0.0</ele><time>2026-04-30T22:05:17.059Z</time></trkpt><trkpt lat="43.0707833" lon="6.7370514"><ele>0.0</ele><time>2026-04-30T22:05:18.059Z</time></trkpt><trkpt lat="43.0708266" lon="6.7371428"><ele>0.0</ele><time>2026-04-30T22:05:19.059Z</time></trkpt><trkpt lat="43.0709276" lon="6.7373247"><ele>0.0</ele><time>2026-04-30T22:05:21.059Z</time></trkpt><trkpt lat="43.0709699" lon="6.7374177"><ele>0.0</ele><time>2026-04-30T22:05:22.06Z</time></trkpt><trkpt lat="43.0710098" lon="6.7375126"><ele>0.0</ele><time>2026-04-30T22:05:23.06Z</time></trkpt><trkpt lat="43.071057" lon="6.7376091"><ele>0.0</ele><time>2026-04-30T22:05:24.059Z</time></trkpt><trkpt lat="43.0711039" lon="6.7377"><ele>0.0</ele><time>2026-04-30T22:05:25.06Z</time></trkpt><trkpt lat="43.0711505" lon="6.7377914"><ele>0.0</ele><time>2026-04-30T22:05:26.06Z</time></trkpt><trkpt lat="43.0712212" lon="6.7378802"><ele>0.0</ele><time>2026-04-30T22:05:27.059Z</time></trkpt><trkpt lat="43.0712797" lon="6.737969"><ele>0.0</ele><time>2026-04-30T22:05:28.059Z</time></trkpt><trkpt lat="43.0713324" lon="6.7380583"><ele>0.0</ele><time>2026-04-30T22:05:29.059Z</time></trkpt><trkpt lat="43.0714437" lon="6.7382326"><ele>0.0</ele><time>2026-04-30T22:05:31.059Z</time></trkpt><trkpt lat="43.0714939" lon="6.7383228"><ele>0.0</ele><time>2026-04-30T22:05:32.059Z</time></trkpt><trkpt lat="43.071541" lon="6.7384131"><ele>0.0</ele><time>2026-04-30T22:05:33.06Z</time></trkpt><trkpt lat="43.071593" lon="6.7385059"><ele>0.0</ele><time>2026-04-30T22:05:34.059Z</time></trkpt><trkpt lat="43.0716381" lon="6.7386068"><ele>0.0</ele><time>2026-04-30T22:05:35.06Z</time></trkpt><trkpt lat="43.0716906" lon="6.7387085"><ele>0.0</ele><time>2026-04-30T22:05:36.06Z</time></trkpt><trkpt lat="43.0717401" lon="6.7387972"><ele>0.0</ele><time>2026-04-30T22:05:37.059Z</time></trkpt><trkpt lat="43.0717929" lon="6.7388879"><ele>0.0</ele><time>2026-04-30T22:05:38.059Z</time></trkpt><trkpt lat="43.0718438" lon="6.7389742"><ele>0.0</ele><time>2026-04-30T22:05:39.06Z</time></trkpt><trkpt lat="43.0718919" lon="6.7390634"><ele>0.0</ele><time>2026-04-30T22:05:40.059Z</time></trkpt><trkpt lat="43.0719982" lon="6.7392447"><ele>0.0</ele><time>2026-04-30T22:05:42.059Z</time></trkpt><trkpt lat="43.0720466" lon="6.7393335"><ele>0.0</ele><time>2026-04-30T22:05:43.06Z</time></trkpt><trkpt lat="43.0720955" lon="6.7394216"><ele>0.0</ele><time>2026-04-30T22:05:44.059Z</time></trkpt><trkpt lat="43.0721435" lon="6.7395115"><ele>0.0</ele><time>2026-04-30T22:05:45.059Z</time></trkpt><trkpt lat="43.0721919" lon="6.7396044"><ele>0.0</ele><time>2026-04-30T22:05:46.059Z</time></trkpt><trkpt lat="43.0722404" lon="6.7396967"><ele>0.0</ele><time>2026-04-30T22:05:47.059Z</time></trkpt><trkpt lat="43.0722842" lon="6.7397856"><ele>0.0</ele><time>2026-04-30T22:05:48.059Z</time></trkpt><trkpt lat="43.072333" lon="6.7398786"><ele>0.0</ele><time>2026-04-30T22:05:49.06Z</time></trkpt><trkpt lat="43.0723836" lon="6.7399701"><ele>0.0</ele><time>2026-04-30T22:05:50.059Z</time></trkpt><trkpt lat="43.0724324" lon="6.7400631"><ele>0.0</ele><time>2026-04-30T22:05:51.06Z</time></trkpt><trkpt lat="43.0724789" lon="6.7401553"><ele>0.0</ele><time>2026-04-30T22:05:52.06Z</time></trkpt><trkpt lat="43.0725255" lon="6.7402469"><ele>0.0</ele><time>2026-04-30T22:05:53.06Z</time></trkpt><trkpt lat="43.0725726" lon="6.7403341"><ele>0.0</ele><time>2026-04-30T22:05:54.06Z</time></trkpt><trkpt lat="43.0726111" lon="6.7404319"><ele>0.0</ele><time>2026-04-30T22:05:55.059Z</time></trkpt><trkpt lat="43.0726549" lon="6.7405323"><ele>0.0</ele><time>2026-04-30T22:05:56.059Z</time></trkpt><trkpt lat="43.0727032" lon="6.7406294"><ele>0.0</ele><time>2026-04-30T22:05:57.06Z</time></trkpt><trkpt lat="43.0727531" lon="6.7407273"><ele>0.0</ele><time>2026-04-30T22:05:58.059Z</time></trkpt><trkpt lat="43.0728044" lon="6.7408272"><ele>0.0</ele><time>2026-04-30T22:05:59.06Z</time></trkpt><trkpt lat="43.072856" lon="6.7409224"><ele>0.0</ele><time>2026-04-30T22:06:00.06Z</time></trkpt><trkpt lat="43.0729063" lon="6.7410146"><ele>0.0</ele><time>2026-04-30T22:06:01.06Z</time></trkpt><trkpt lat="43.0730666" lon="6.7412731"><ele>0.0</ele><time>2026-04-30T22:06:04.059Z</time></trkpt><trkpt lat="43.0731281" lon="6.7413546"><ele>0.0</ele><time>2026-04-30T22:06:05.06Z</time></trkpt><trkpt lat="43.0731858" lon="6.7414402"><ele>0.0</ele><time>2026-04-30T22:06:06.06Z</time></trkpt><trkpt lat="43.0732369" lon="6.7415303"><ele>0.0</ele><time>2026-04-30T22:06:07.06Z</time></trkpt><trkpt lat="43.0732892" lon="6.7416177"><ele>0.0</ele><time>2026-04-30T22:06:08.06Z</time></trkpt><trkpt lat="43.0733359" lon="6.7417084"><ele>0.0</ele><time>2026-04-30T22:06:09.06Z</time></trkpt><trkpt lat="43.0733805" lon="6.7417982"><ele>0.0</ele><time>2026-04-30T22:06:10.059Z</time></trkpt><trkpt lat="43.0734238" lon="6.741884"><ele>0.0</ele><time>2026-04-30T22:06:11.06Z</time></trkpt><trkpt lat="43.073462" lon="6.7419749"><ele>0.0</ele><time>2026-04-30T22:06:12.059Z</time></trkpt><trkpt lat="43.0735047" lon="6.7420652"><ele>0.0</ele><time>2026-04-30T22:06:13.059Z</time></trkpt><trkpt lat="43.0735492" lon="6.7421592"><ele>0.0</ele><time>2026-04-30T22:06:14.06Z</time></trkpt><trkpt lat="43.0735881" lon="6.742257"><ele>0.0</ele><time>2026-04-30T22:06:15.059Z</time></trkpt><trkpt lat="43.0736287" lon="6.742354"><ele>0.0</ele><time>2026-04-30T22:06:16.059Z</time></trkpt><trkpt lat="43.0736742" lon="6.7424455"><ele>0.0</ele><time>2026-04-30T22:06:17.06Z</time></trkpt><trkpt lat="43.0737174" lon="6.7425321"><ele>0.0</ele><time>2026-04-30T22:06:18.06Z</time></trkpt><trkpt lat="43.0737738" lon="6.7426185"><ele>0.0</ele><time>2026-04-30T22:06:19.059Z</time></trkpt><trkpt lat="43.0738294" lon="6.7427076"><ele>0.0</ele><time>2026-04-30T22:06:20.059Z</time></trkpt><trkpt lat="43.0738841" lon="6.7427944"><ele>0.0</ele><time>2026-04-30T22:06:21.059Z</time></trkpt><trkpt lat="43.0739266" lon="6.7428907"><ele>0.0</ele><time>2026-04-30T22:06:22.059Z</time></trkpt><trkpt lat="43.0739716" lon="6.7429897"><ele>0.0</ele><time>2026-04-30T22:06:23.06Z</time></trkpt><trkpt lat="43.0740796" lon="6.7431775"><ele>0.0</ele><time>2026-04-30T22:06:25.059Z</time></trkpt><trkpt lat="43.0741376" lon="6.7432798"><ele>0.0</ele><time>2026-04-30T22:06:26.06Z</time></trkpt><trkpt lat="43.0741898" lon="6.7433746"><ele>0.0</ele><time>2026-04-30T22:06:27.059Z</time></trkpt><trkpt lat="43.074236" lon="6.7434721"><ele>0.0</ele><time>2026-04-30T22:06:28.059Z</time></trkpt><trkpt lat="43.0742778" lon="6.7435593"><ele>0.0</ele><time>2026-04-30T22:06:29.06Z</time></trkpt><trkpt lat="43.0743266" lon="6.7436468"><ele>0.0</ele><time>2026-04-30T22:06:30.059Z</time></trkpt><trkpt lat="43.0743754" lon="6.7437394"><ele>0.0</ele><time>2026-04-30T22:06:31.06Z</time></trkpt><trkpt lat="43.0744281" lon="6.7438314"><ele>0.0</ele><time>2026-04-30T22:06:32.06Z</time></trkpt><trkpt lat="43.07448" lon="6.7439247"><ele>0.0</ele><time>2026-04-30T22:06:33.059Z</time></trkpt><trkpt lat="43.074533" lon="6.7440136"><ele>0.0</ele><time>2026-04-30T22:06:34.059Z</time></trkpt><trkpt lat="43.0745833" lon="6.744112"><ele>0.0</ele><time>2026-04-30T22:06:35.059Z</time></trkpt><trkpt lat="43.0746293" lon="6.7442074"><ele>0.0</ele><time>2026-04-30T22:06:36.059Z</time></trkpt><trkpt lat="43.0746767" lon="6.7442984"><ele>0.0</ele><time>2026-04-30T22:06:37.059Z</time></trkpt><trkpt lat="43.0747321" lon="6.7443873"><ele>0.0</ele><time>2026-04-30T22:06:38.059Z</time></trkpt><trkpt lat="43.0747799" lon="6.7444757"><ele>0.0</ele><time>2026-04-30T22:06:39.059Z</time></trkpt><trkpt lat="43.0748252" lon="6.7445681"><ele>0.0</ele><time>2026-04-30T22:06:40.059Z</time></trkpt><trkpt lat="43.0748775" lon="6.7446617"><ele>0.0</ele><time>2026-04-30T22:06:41.06Z</time></trkpt><trkpt lat="43.0749307" lon="6.7447541"><ele>0.0</ele><time>2026-04-30T22:06:42.06Z</time></trkpt><trkpt lat="43.0749767" lon="6.7448454"><ele>0.0</ele><time>2026-04-30T22:06:43.06Z</time></trkpt><trkpt lat="43.0750238" lon="6.7449395"><ele>0.0</ele><time>2026-04-30T22:06:44.059Z</time></trkpt><trkpt lat="43.0750904" lon="6.7451467"><ele>0.0</ele><time>2026-04-30T22:06:46.059Z</time></trkpt><trkpt lat="43.0751363" lon="6.7452426"><ele>0.0</ele><time>2026-04-30T22:06:47.06Z</time></trkpt><trkpt lat="43.075186" lon="6.7453389"><ele>0.0</ele><time>2026-04-30T22:06:48.06Z</time></trkpt><trkpt lat="43.0752303" lon="6.7454326"><ele>0.0</ele><time>2026-04-30T22:06:49.059Z</time></trkpt><trkpt lat="43.0752834" lon="6.7455241"><ele>0.0</ele><time>2026-04-30T22:06:50.059Z</time></trkpt><trkpt lat="43.07536" lon="6.7456145"><ele>0.0</ele><time>2026-04-30T22:06:51.059Z</time></trkpt><trkpt lat="43.0754235" lon="6.7457112"><ele>0.0</ele><time>2026-04-30T22:06:52.06Z</time></trkpt><trkpt lat="43.0754809" lon="6.7458079"><ele>0.0</ele><time>2026-04-30T22:06:53.059Z</time></trkpt><trkpt lat="43.0755319" lon="6.7459015"><ele>0.0</ele><time>2026-04-30T22:06:54.059Z</time></trkpt><trkpt lat="43.0755816" lon="6.7459849"><ele>0.0</ele><time>2026-04-30T22:06:55.06Z</time></trkpt><trkpt lat="43.0756287" lon="6.7460749"><ele>0.0</ele><time>2026-04-30T22:06:56.06Z</time></trkpt><trkpt lat="43.0756768" lon="6.7461638"><ele>0.0</ele><time>2026-04-30T22:06:57.059Z</time></trkpt><trkpt lat="43.075727" lon="6.7462535"><ele>0.0</ele><time>2026-04-30T22:06:58.06Z</time></trkpt><trkpt lat="43.0757614" lon="6.7463537"><ele>0.0</ele><time>2026-04-30T22:06:59.059Z</time></trkpt><trkpt lat="43.0758052" lon="6.7464461"><ele>0.0</ele><time>2026-04-30T22:07:00.059Z</time></trkpt><trkpt lat="43.0758499" lon="6.7465422"><ele>0.0</ele><time>2026-04-30T22:07:01.06Z</time></trkpt><trkpt lat="43.075919" lon="6.7466207"><ele>0.0</ele><time>2026-04-30T22:07:02.06Z</time></trkpt><trkpt lat="43.0759638" lon="6.7467146"><ele>0.0</ele><time>2026-04-30T22:07:03.059Z</time></trkpt><trkpt lat="43.0760096" lon="6.7468068"><ele>0.0</ele><time>2026-04-30T22:07:04.059Z</time></trkpt><trkpt lat="43.0760534" lon="6.7468996"><ele>0.0</ele><time>2026-04-30T22:07:05.059Z</time></trkpt><trkpt lat="43.0761958" lon="6.7471728"><ele>0.0</ele><time>2026-04-30T22:07:08.059Z</time></trkpt><trkpt lat="43.0762427" lon="6.7472677"><ele>0.0</ele><time>2026-04-30T22:07:09.06Z</time></trkpt><trkpt lat="43.0762837" lon="6.7473656"><ele>0.0</ele><time>2026-04-30T22:07:10.06Z</time></trkpt><trkpt lat="43.0763286" lon="6.7474623"><ele>0.0</ele><time>2026-04-30T22:07:11.059Z</time></trkpt><trkpt lat="43.0763922" lon="6.7475441"><ele>0.0</ele><time>2026-04-30T22:07:12.059Z</time></trkpt><trkpt lat="43.07644" lon="6.7476339"><ele>0.0</ele><time>2026-04-30T22:07:13.059Z</time></trkpt><trkpt lat="43.076502" lon="6.7477185"><ele>0.0</ele><time>2026-04-30T22:07:14.059Z</time></trkpt><trkpt lat="43.0765628" lon="6.7477969"><ele>0.0</ele><time>2026-04-30T22:07:15.059Z</time></trkpt><trkpt lat="43.0766314" lon="6.7478799"><ele>0.0</ele><time>2026-04-30T22:07:16.06Z</time></trkpt><trkpt lat="43.0766919" lon="6.7479657"><ele>0.0</ele><time>2026-04-30T22:07:17.059Z</time></trkpt><trkpt lat="43.0767469" lon="6.7480572"><ele>0.0</ele><time>2026-04-30T22:07:18.059Z</time></trkpt><trkpt lat="43.0768013" lon="6.7481518"><ele>0.0</ele><time>2026-04-30T22:07:19.059Z</time></trkpt><trkpt lat="43.076845" lon="6.7482448"><ele>0.0</ele><time>2026-04-30T22:07:20.06Z</time></trkpt><trkpt lat="43.0768837" lon="6.748343"><ele>0.0</ele><time>2026-04-30T22:07:21.059Z</time></trkpt><trkpt lat="43.0769234" lon="6.7484375"><ele>0.0</ele><time>2026-04-30T22:07:22.059Z</time></trkpt><trkpt lat="43.0769757" lon="6.7485311"><ele>0.0</ele><time>2026-04-30T22:07:23.059Z</time></trkpt><trkpt lat="43.0770169" lon="6.7486283"><ele>0.0</ele><time>2026-04-30T22:07:24.06Z</time></trkpt><trkpt lat="43.0770752" lon="6.7487209"><ele>0.0</ele><time>2026-04-30T22:07:25.059Z</time></trkpt><trkpt lat="43.0771232" lon="6.7488132"><ele>0.0</ele><time>2026-04-30T22:07:26.059Z</time></trkpt><trkpt lat="43.0771781" lon="6.7489091"><ele>0.0</ele><time>2026-04-30T22:07:27.06Z</time></trkpt><trkpt lat="43.0772832" lon="6.7490942"><ele>0.0</ele><time>2026-04-30T22:07:29.059Z</time></trkpt><trkpt lat="43.0773307" lon="6.7491876"><ele>0.0</ele><time>2026-04-30T22:07:30.06Z</time></trkpt><trkpt lat="43.0773749" lon="6.7492829"><ele>0.0</ele><time>2026-04-30T22:07:31.059Z</time></trkpt><trkpt lat="43.077418" lon="6.7493782"><ele>0.0</ele><time>2026-04-30T22:07:32.06Z</time></trkpt><trkpt lat="43.0774623" lon="6.7494758"><ele>0.0</ele><time>2026-04-30T22:07:33.059Z</time></trkpt><trkpt lat="43.077511" lon="6.7495706"><ele>0.0</ele><time>2026-04-30T22:07:34.059Z</time></trkpt><trkpt lat="43.0775641" lon="6.7496554"><ele>0.0</ele><time>2026-04-30T22:07:35.06Z</time></trkpt><trkpt lat="43.077609" lon="6.7497454"><ele>0.0</ele><time>2026-04-30T22:07:36.059Z</time></trkpt><trkpt lat="43.077661" lon="6.7498341"><ele>0.0</ele><time>2026-04-30T22:07:37.059Z</time></trkpt><trkpt lat="43.0777137" lon="6.7499206"><ele>0.0</ele><time>2026-04-30T22:07:38.059Z</time></trkpt><trkpt lat="43.0778186" lon="6.7501005"><ele>0.0</ele><time>2026-04-30T22:07:40.06Z</time></trkpt><trkpt lat="43.0778643" lon="6.7501958"><ele>0.0</ele><time>2026-04-30T22:07:41.059Z</time></trkpt><trkpt lat="43.0779034" lon="6.7502995"><ele>0.0</ele><time>2026-04-30T22:07:42.059Z</time></trkpt><trkpt lat="43.0779472" lon="6.7503901"><ele>0.0</ele><time>2026-04-30T22:07:43.059Z</time></trkpt><trkpt lat="43.0779875" lon="6.7504933"><ele>0.0</ele><time>2026-04-30T22:07:44.059Z</time></trkpt><trkpt lat="43.0780302" lon="6.750585"><ele>0.0</ele><time>2026-04-30T22:07:45.06Z</time></trkpt><trkpt lat="43.0780794" lon="6.7506727"><ele>0.0</ele><time>2026-04-30T22:07:46.06Z</time></trkpt><trkpt lat="43.0781267" lon="6.7507556"><ele>0.0</ele><time>2026-04-30T22:07:47.059Z</time></trkpt><trkpt lat="43.0781748" lon="6.7508453"><ele>0.0</ele><time>2026-04-30T22:07:48.059Z</time></trkpt><trkpt lat="43.0782693" lon="6.7510223"><ele>0.0</ele><time>2026-04-30T22:07:50.059Z</time></trkpt><trkpt lat="43.0783128" lon="6.7511132"><ele>0.0</ele><time>2026-04-30T22:07:51.06Z</time></trkpt><trkpt lat="43.0783554" lon="6.7512091"><ele>0.0</ele><time>2026-04-30T22:07:52.059Z</time></trkpt><trkpt lat="43.0784084" lon="6.7513017"><ele>0.0</ele><time>2026-04-30T22:07:53.059Z</time></trkpt><trkpt lat="43.0784533" lon="6.7513918"><ele>0.0</ele><time>2026-04-30T22:07:54.06Z</time></trkpt><trkpt lat="43.0785112" lon="6.751478"><ele>0.0</ele><time>2026-04-30T22:07:55.059Z</time></trkpt><trkpt lat="43.0785687" lon="6.7515667"><ele>0.0</ele><time>2026-04-30T22:07:56.059Z</time></trkpt><trkpt lat="43.0786222" lon="6.7516561"><ele>0.0</ele><time>2026-04-30T22:07:57.06Z</time></trkpt><trkpt lat="43.0786731" lon="6.7517466"><ele>0.0</ele><time>2026-04-30T22:07:58.059Z</time></trkpt><trkpt lat="43.0787203" lon="6.7518407"><ele>0.0</ele><time>2026-04-30T22:07:59.06Z</time></trkpt><trkpt lat="43.0787713" lon="6.7519313"><ele>0.0</ele><time>2026-04-30T22:08:00.059Z</time></trkpt><trkpt lat="43.0788315" lon="6.752021"><ele>0.0</ele><time>2026-04-30T22:08:01.059Z</time></trkpt><trkpt lat="43.0788846" lon="6.7521142"><ele>0.0</ele><time>2026-04-30T22:08:02.059Z</time></trkpt><trkpt lat="43.0789341" lon="6.7522062"><ele>0.0</ele><time>2026-04-30T22:08:03.06Z</time></trkpt><trkpt lat="43.0789866" lon="6.7522953"><ele>0.0</ele><time>2026-04-30T22:08:04.06Z</time></trkpt><trkpt lat="43.0790494" lon="6.7523861"><ele>0.0</ele><time>2026-04-30T22:08:05.06Z</time></trkpt><trkpt lat="43.0790931" lon="6.7524762"><ele>0.0</ele><time>2026-04-30T22:08:06.06Z</time></trkpt><trkpt lat="43.0791307" lon="6.7525674"><ele>0.0</ele><time>2026-04-30T22:08:07.06Z</time></trkpt><trkpt lat="43.0791768" lon="6.7526564"><ele>0.0</ele><time>2026-04-30T22:08:08.059Z</time></trkpt><trkpt lat="43.0792225" lon="6.7527576"><ele>0.0</ele><time>2026-04-30T22:08:09.059Z</time></trkpt><trkpt lat="43.0792765" lon="6.7528496"><ele>0.0</ele><time>2026-04-30T22:08:10.059Z</time></trkpt><trkpt lat="43.0793322" lon="6.752937"><ele>0.0</ele><time>2026-04-30T22:08:11.059Z</time></trkpt><trkpt lat="43.0794274" lon="6.7531255"><ele>0.0</ele><time>2026-04-30T22:08:13.06Z</time></trkpt><trkpt lat="43.0794712" lon="6.753212"><ele>0.0</ele><time>2026-04-30T22:08:14.059Z</time></trkpt><trkpt lat="43.0795131" lon="6.7533042"><ele>0.0</ele><time>2026-04-30T22:08:15.059Z</time></trkpt><trkpt lat="43.0795559" lon="6.7534019"><ele>0.0</ele><time>2026-04-30T22:08:16.06Z</time></trkpt><trkpt lat="43.0795964" lon="6.7534966"><ele>0.0</ele><time>2026-04-30T22:08:17.059Z</time></trkpt><trkpt lat="43.079649" lon="6.753601"><ele>0.0</ele><time>2026-04-30T22:08:18.06Z</time></trkpt><trkpt lat="43.0796943" lon="6.7537066"><ele>0.0</ele><time>2026-04-30T22:08:19.059Z</time></trkpt><trkpt lat="43.0797393" lon="6.7538022"><ele>0.0</ele><time>2026-04-30T22:08:20.059Z</time></trkpt><trkpt lat="43.07978" lon="6.7539065"><ele>0.0</ele><time>2026-04-30T22:08:21.059Z</time></trkpt><trkpt lat="43.0798382" lon="6.7539902"><ele>0.0</ele><time>2026-04-30T22:08:22.059Z</time></trkpt><trkpt lat="43.0798817" lon="6.754073"><ele>0.0</ele><time>2026-04-30T22:08:23.06Z</time></trkpt><trkpt lat="43.0799318" lon="6.7541646"><ele>0.0</ele><time>2026-04-30T22:08:24.059Z</time></trkpt><trkpt lat="43.0799997" lon="6.7542438"><ele>0.0</ele><time>2026-04-30T22:08:25.06Z</time></trkpt><trkpt lat="43.0800685" lon="6.7543201"><ele>0.0</ele><time>2026-04-30T22:08:26.059Z</time></trkpt><trkpt lat="43.0801286" lon="6.7543982"><ele>0.0</ele><time>2026-04-30T22:08:27.059Z</time></trkpt><trkpt lat="43.0801969" lon="6.7544822"><ele>0.0</ele><time>2026-04-30T22:08:28.059Z</time></trkpt><trkpt lat="43.0802414" lon="6.7545715"><ele>0.0</ele><time>2026-04-30T22:08:29.06Z</time></trkpt><trkpt lat="43.0802834" lon="6.7546645"><ele>0.0</ele><time>2026-04-30T22:08:30.06Z</time></trkpt><trkpt lat="43.0803219" lon="6.7547617"><ele>0.0</ele><time>2026-04-30T22:08:31.059Z</time></trkpt><trkpt lat="43.0804164" lon="6.7549556"><ele>0.0</ele><time>2026-04-30T22:08:33.06Z</time></trkpt><trkpt lat="43.0804672" lon="6.7550505"><ele>0.0</ele><time>2026-04-30T22:08:34.06Z</time></trkpt><trkpt lat="43.0805308" lon="6.7551405"><ele>0.0</ele><time>2026-04-30T22:08:35.06Z</time></trkpt><trkpt lat="43.0805834" lon="6.7552297"><ele>0.0</ele><time>2026-04-30T22:08:36.059Z</time></trkpt><trkpt lat="43.0806382" lon="6.7553235"><ele>0.0</ele><time>2026-04-30T22:08:37.06Z</time></trkpt><trkpt lat="43.0806802" lon="6.7554173"><ele>0.0</ele><time>2026-04-30T22:08:38.059Z</time></trkpt><trkpt lat="43.0807397" lon="6.7555063"><ele>0.0</ele><time>2026-04-30T22:08:39.06Z</time></trkpt><trkpt lat="43.0807862" lon="6.755599"><ele>0.0</ele><time>2026-04-30T22:08:40.06Z</time></trkpt><trkpt lat="43.0808509" lon="6.7556841"><ele>0.0</ele><time>2026-04-30T22:08:41.059Z</time></trkpt><trkpt lat="43.0809035" lon="6.7557774"><ele>0.0</ele><time>2026-04-30T22:08:42.059Z</time></trkpt><trkpt lat="43.0809511" lon="6.755872"><ele>0.0</ele><time>2026-04-30T22:08:43.06Z</time></trkpt><trkpt lat="43.0809959" lon="6.7559669"><ele>0.0</ele><time>2026-04-30T22:08:44.06Z</time></trkpt><trkpt lat="43.0810638" lon="6.7560474"><ele>0.0</ele><time>2026-04-30T22:08:45.059Z</time></trkpt><trkpt lat="43.0811175" lon="6.7561339"><ele>0.0</ele><time>2026-04-30T22:08:46.059Z</time></trkpt><trkpt lat="43.0811782" lon="6.7562227"><ele>0.0</ele><time>2026-04-30T22:08:47.059Z</time></trkpt><trkpt lat="43.0812274" lon="6.7563184"><ele>0.0</ele><time>2026-04-30T22:08:48.059Z</time></trkpt><trkpt lat="43.0812734" lon="6.7564156"><ele>0.0</ele><time>2026-04-30T22:08:49.059Z</time></trkpt><trkpt lat="43.0813256" lon="6.7565125"><ele>0.0</ele><time>2026-04-30T22:08:50.059Z</time></trkpt><trkpt lat="43.0813745" lon="6.7566076"><ele>0.0</ele><time>2026-04-30T22:08:51.06Z</time></trkpt><trkpt lat="43.0814123" lon="6.7567069"><ele>0.0</ele><time>2026-04-30T22:08:52.059Z</time></trkpt><trkpt lat="43.0814956" lon="6.7568889"><ele>0.0</ele><time>2026-04-30T22:08:54.059Z</time></trkpt><trkpt lat="43.081542" lon="6.7569842"><ele>0.0</ele><time>2026-04-30T22:08:55.059Z</time></trkpt><trkpt lat="43.0815934" lon="6.757078"><ele>0.0</ele><time>2026-04-30T22:08:56.059Z</time></trkpt><trkpt lat="43.0816421" lon="6.7571714"><ele>0.0</ele><time>2026-04-30T22:08:57.06Z</time></trkpt><trkpt lat="43.0816834" lon="6.7572744"><ele>0.0</ele><time>2026-04-30T22:08:58.06Z</time></trkpt><trkpt lat="43.0817289" lon="6.7573699"><ele>0.0</ele><time>2026-04-30T22:08:59.059Z</time></trkpt><trkpt lat="43.0817743" lon="6.757459"><ele>0.0</ele><time>2026-04-30T22:09:00.059Z</time></trkpt><trkpt lat="43.0818236" lon="6.7575454"><ele>0.0</ele><time>2026-04-30T22:09:01.059Z</time></trkpt><trkpt lat="43.0818706" lon="6.7576348"><ele>0.0</ele><time>2026-04-30T22:09:02.059Z</time></trkpt><trkpt lat="43.0819227" lon="6.7577093"><ele>0.0</ele><time>2026-04-30T22:09:03.059Z</time></trkpt><trkpt lat="43.0819804" lon="6.7577855"><ele>0.0</ele><time>2026-04-30T22:09:04.06Z</time></trkpt><trkpt lat="43.0820275" lon="6.7578714"><ele>0.0</ele><time>2026-04-30T22:09:05.059Z</time></trkpt><trkpt lat="43.082101" lon="6.7579498"><ele>0.0</ele><time>2026-04-30T22:09:06.059Z</time></trkpt><trkpt lat="43.0821546" lon="6.7580325"><ele>0.0</ele><time>2026-04-30T22:09:07.059Z</time></trkpt><trkpt lat="43.0822063" lon="6.7581222"><ele>0.0</ele><time>2026-04-30T22:09:08.06Z</time></trkpt><trkpt lat="43.0822604" lon="6.7582186"><ele>0.0</ele><time>2026-04-30T22:09:09.06Z</time></trkpt><trkpt lat="43.0823054" lon="6.7583163"><ele>0.0</ele><time>2026-04-30T22:09:10.059Z</time></trkpt><trkpt lat="43.0823527" lon="6.7584107"><ele>0.0</ele><time>2026-04-30T22:09:11.059Z</time></trkpt><trkpt lat="43.082394" lon="6.7585124"><ele>0.0</ele><time>2026-04-30T22:09:12.059Z</time></trkpt><trkpt lat="43.082451" lon="6.7586103"><ele>0.0</ele><time>2026-04-30T22:09:13.06Z</time></trkpt><trkpt lat="43.0825062" lon="6.758704"><ele>0.0</ele><time>2026-04-30T22:09:14.059Z</time></trkpt><trkpt lat="43.0826646" lon="6.7590038"><ele>0.0</ele><time>2026-04-30T22:09:17.06Z</time></trkpt><trkpt lat="43.0827193" lon="6.7590976"><ele>0.0</ele><time>2026-04-30T22:09:18.06Z</time></trkpt><trkpt lat="43.08277" lon="6.7591857"><ele>0.0</ele><time>2026-04-30T22:09:19.059Z</time></trkpt><trkpt lat="43.0828184" lon="6.7592749"><ele>0.0</ele><time>2026-04-30T22:09:20.059Z</time></trkpt><trkpt lat="43.0828641" lon="6.759361"><ele>0.0</ele><time>2026-04-30T22:09:21.06Z</time></trkpt><trkpt lat="43.08291" lon="6.7594533"><ele>0.0</ele><time>2026-04-30T22:09:22.059Z</time></trkpt><trkpt lat="43.0829642" lon="6.7595349"><ele>0.0</ele><time>2026-04-30T22:09:23.06Z</time></trkpt><trkpt lat="43.083014" lon="6.7596295"><ele>0.0</ele><time>2026-04-30T22:09:24.06Z</time></trkpt><trkpt lat="43.0830562" lon="6.759733"><ele>0.0</ele><time>2026-04-30T22:09:25.06Z</time></trkpt><trkpt lat="43.0831" lon="6.7598278"><ele>0.0</ele><time>2026-04-30T22:09:26.059Z</time></trkpt><trkpt lat="43.0831494" lon="6.7599239"><ele>0.0</ele><time>2026-04-30T22:09:27.059Z</time></trkpt><trkpt lat="43.0832064" lon="6.7600135"><ele>0.0</ele><time>2026-04-30T22:09:28.059Z</time></trkpt><trkpt lat="43.0832613" lon="6.7601019"><ele>0.0</ele><time>2026-04-30T22:09:29.06Z</time></trkpt><trkpt lat="43.083315" lon="6.7601899"><ele>0.0</ele><time>2026-04-30T22:09:30.06Z</time></trkpt><trkpt lat="43.0833614" lon="6.7602798"><ele>0.0</ele><time>2026-04-30T22:09:31.06Z</time></trkpt><trkpt lat="43.083406" lon="6.7603719"><ele>0.0</ele><time>2026-04-30T22:09:32.06Z</time></trkpt><trkpt lat="43.0834486" lon="6.7604668"><ele>0.0</ele><time>2026-04-30T22:09:33.059Z</time></trkpt><trkpt lat="43.0834842" lon="6.7605626"><ele>0.0</ele><time>2026-04-30T22:09:34.059Z</time></trkpt><trkpt lat="43.0835242" lon="6.7606533"><ele>0.0</ele><time>2026-04-30T22:09:35.06Z</time></trkpt><trkpt lat="43.08358" lon="6.7607359"><ele>0.0</ele><time>2026-04-30T22:09:36.059Z</time></trkpt><trkpt lat="43.0836791" lon="6.7609163"><ele>0.0</ele><time>2026-04-30T22:09:38.059Z</time></trkpt><trkpt lat="43.0837271" lon="6.7610153"><ele>0.0</ele><time>2026-04-30T22:09:39.059Z</time></trkpt><trkpt lat="43.083771" lon="6.7611181"><ele>0.0</ele><time>2026-04-30T22:09:40.059Z</time></trkpt><trkpt lat="43.0838102" lon="6.7612169"><ele>0.0</ele><time>2026-04-30T22:09:41.06Z</time></trkpt><trkpt lat="43.0838507" lon="6.7613165"><ele>0.0</ele><time>2026-04-30T22:09:42.06Z</time></trkpt><trkpt lat="43.0838951" lon="6.7614167"><ele>0.0</ele><time>2026-04-30T22:09:43.06Z</time></trkpt><trkpt lat="43.0839389" lon="6.7615183"><ele>0.0</ele><time>2026-04-30T22:09:44.059Z</time></trkpt><trkpt lat="43.083994" lon="6.7616172"><ele>0.0</ele><time>2026-04-30T22:09:45.059Z</time></trkpt><trkpt lat="43.0840498" lon="6.7617115"><ele>0.0</ele><time>2026-04-30T22:09:46.06Z</time></trkpt><trkpt lat="43.0840993" lon="6.7618049"><ele>0.0</ele><time>2026-04-30T22:09:47.059Z</time></trkpt><trkpt lat="43.08419" lon="6.7619922"><ele>0.0</ele><time>2026-04-30T22:09:49.059Z</time></trkpt><trkpt lat="43.08424" lon="6.7620847"><ele>0.0</ele><time>2026-04-30T22:09:50.06Z</time></trkpt><trkpt lat="43.0842915" lon="6.7621723"><ele>0.0</ele><time>2026-04-30T22:09:51.059Z</time></trkpt><trkpt lat="43.0843447" lon="6.76226"><ele>0.0</ele><time>2026-04-30T22:09:52.059Z</time></trkpt><trkpt lat="43.0843948" lon="6.7623517"><ele>0.0</ele><time>2026-04-30T22:09:53.059Z</time></trkpt><trkpt lat="43.0844434" lon="6.7624444"><ele>0.0</ele><time>2026-04-30T22:09:54.06Z</time></trkpt><trkpt lat="43.0844871" lon="6.7625424"><ele>0.0</ele><time>2026-04-30T22:09:55.06Z</time></trkpt><trkpt lat="43.0845389" lon="6.7626228"><ele>0.0</ele><time>2026-04-30T22:09:56.059Z</time></trkpt><trkpt lat="43.0845969" lon="6.7626965"><ele>0.0</ele><time>2026-04-30T22:09:57.059Z</time></trkpt><trkpt lat="43.0846941" lon="6.7628685"><ele>0.0</ele><time>2026-04-30T22:09:59.059Z</time></trkpt><trkpt lat="43.0847662" lon="6.7629413"><ele>0.0</ele><time>2026-04-30T22:10:00.059Z</time></trkpt><trkpt lat="43.084814" lon="6.7630347"><ele>0.0</ele><time>2026-04-30T22:10:01.06Z</time></trkpt><trkpt lat="43.0848594" lon="6.7631329"><ele>0.0</ele><time>2026-04-30T22:10:02.06Z</time></trkpt><trkpt lat="43.0849002" lon="6.7632359"><ele>0.0</ele><time>2026-04-30T22:10:03.059Z</time></trkpt><trkpt lat="43.0849431" lon="6.7633391"><ele>0.0</ele><time>2026-04-30T22:10:04.059Z</time></trkpt><trkpt lat="43.0849805" lon="6.7634389"><ele>0.0</ele><time>2026-04-30T22:10:05.06Z</time></trkpt><trkpt lat="43.0850235" lon="6.7635386"><ele>0.0</ele><time>2026-04-30T22:10:06.06Z</time></trkpt><trkpt lat="43.0850731" lon="6.7636328"><ele>0.0</ele><time>2026-04-30T22:10:07.059Z</time></trkpt><trkpt lat="43.0851274" lon="6.7637109"><ele>0.0</ele><time>2026-04-30T22:10:08.06Z</time></trkpt><trkpt lat="43.0851806" lon="6.7637901"><ele>0.0</ele><time>2026-04-30T22:10:09.059Z</time></trkpt><trkpt lat="43.0852339" lon="6.763877"><ele>0.0</ele><time>2026-04-30T22:10:10.059Z</time></trkpt><trkpt lat="43.0852822" lon="6.7639634"><ele>0.0</ele><time>2026-04-30T22:10:11.059Z</time></trkpt><trkpt lat="43.0853384" lon="6.764047"><ele>0.0</ele><time>2026-04-30T22:10:12.06Z</time></trkpt><trkpt lat="43.0853885" lon="6.7641409"><ele>0.0</ele><time>2026-04-30T22:10:13.059Z</time></trkpt><trkpt lat="43.0854466" lon="6.7642271"><ele>0.0</ele><time>2026-04-30T22:10:14.06Z</time></trkpt><trkpt lat="43.0854995" lon="6.7643221"><ele>0.0</ele><time>2026-04-30T22:10:15.059Z</time></trkpt><trkpt lat="43.0855516" lon="6.7644161"><ele>0.0</ele><time>2026-04-30T22:10:16.059Z</time></trkpt><trkpt lat="43.0856035" lon="6.7645051"><ele>0.0</ele><time>2026-04-30T22:10:17.059Z</time></trkpt><trkpt lat="43.0856552" lon="6.7646019"><ele>0.0</ele><time>2026-04-30T22:10:18.059Z</time></trkpt><trkpt lat="43.0857126" lon="6.7646938"><ele>0.0</ele><time>2026-04-30T22:10:19.059Z</time></trkpt><trkpt lat="43.0857947" lon="6.7648726"><ele>0.0</ele><time>2026-04-30T22:10:21.059Z</time></trkpt><trkpt lat="43.0858351" lon="6.7649715"><ele>0.0</ele><time>2026-04-30T22:10:22.059Z</time></trkpt><trkpt lat="43.0858779" lon="6.7650715"><ele>0.0</ele><time>2026-04-30T22:10:23.059Z</time></trkpt><trkpt lat="43.085928" lon="6.7651708"><ele>0.0</ele><time>2026-04-30T22:10:24.059Z</time></trkpt><trkpt lat="43.0859781" lon="6.765268"><ele>0.0</ele><time>2026-04-30T22:10:25.059Z</time></trkpt><trkpt lat="43.0860296" lon="6.7653649"><ele>0.0</ele><time>2026-04-30T22:10:26.059Z</time></trkpt><trkpt lat="43.086085" lon="6.7654528"><ele>0.0</ele><time>2026-04-30T22:10:27.06Z</time></trkpt><trkpt lat="43.0861399" lon="6.7655582"><ele>0.0</ele><time>2026-04-30T22:10:28.06Z</time></trkpt><trkpt lat="43.0862013" lon="6.7656524"><ele>0.0</ele><time>2026-04-30T22:10:29.06Z</time></trkpt><trkpt lat="43.0862434" lon="6.7657585"><ele>0.0</ele><time>2026-04-30T22:10:30.059Z</time></trkpt><trkpt lat="43.0862905" lon="6.7658572"><ele>0.0</ele><time>2026-04-30T22:10:31.059Z</time></trkpt><trkpt lat="43.0863326" lon="6.7659509"><ele>0.0</ele><time>2026-04-30T22:10:32.059Z</time></trkpt><trkpt lat="43.0863834" lon="6.7660325"><ele>0.0</ele><time>2026-04-30T22:10:33.059Z</time></trkpt><trkpt lat="43.0864194" lon="6.7661269"><ele>0.0</ele><time>2026-04-30T22:10:34.058Z</time></trkpt><trkpt lat="43.0864642" lon="6.7662175"><ele>0.0</ele><time>2026-04-30T22:10:35.059Z</time></trkpt><trkpt lat="43.0865108" lon="6.7663132"><ele>0.0</ele><time>2026-04-30T22:10:36.058Z</time></trkpt><trkpt lat="43.0865647" lon="6.7664115"><ele>0.0</ele><time>2026-04-30T22:10:37.059Z</time></trkpt><trkpt lat="43.0866136" lon="6.7665054"><ele>0.0</ele><time>2026-04-30T22:10:38.059Z</time></trkpt><trkpt lat="43.0866544" lon="6.7666024"><ele>0.0</ele><time>2026-04-30T22:10:39.058Z</time></trkpt><trkpt lat="43.0867071" lon="6.7666923"><ele>0.0</ele><time>2026-04-30T22:10:40.059Z</time></trkpt><trkpt lat="43.0867522" lon="6.766788"><ele>0.0</ele><time>2026-04-30T22:10:41.059Z</time></trkpt><trkpt lat="43.0868475" lon="6.7669734"><ele>0.0</ele><time>2026-04-30T22:10:43.059Z</time></trkpt><trkpt lat="43.0869288" lon="6.7670512"><ele>0.0</ele><time>2026-04-30T22:10:44.058Z</time></trkpt><trkpt lat="43.0869743" lon="6.7671408"><ele>0.0</ele><time>2026-04-30T22:10:45.058Z</time></trkpt><trkpt lat="43.0870202" lon="6.7672267"><ele>0.0</ele><time>2026-04-30T22:10:46.059Z</time></trkpt><trkpt lat="43.0870635" lon="6.767321"><ele>0.0</ele><time>2026-04-30T22:10:47.058Z</time></trkpt><trkpt lat="43.0871137" lon="6.7674114"><ele>0.0</ele><time>2026-04-30T22:10:48.059Z</time></trkpt><trkpt lat="43.0871685" lon="6.7675024"><ele>0.0</ele><time>2026-04-30T22:10:49.058Z</time></trkpt><trkpt lat="43.0872227" lon="6.7675936"><ele>0.0</ele><time>2026-04-30T22:10:50.058Z</time></trkpt><trkpt lat="43.0873314" lon="6.7677746"><ele>0.0</ele><time>2026-04-30T22:10:52.059Z</time></trkpt><trkpt lat="43.0873843" lon="6.7678625"><ele>0.0</ele><time>2026-04-30T22:10:53.058Z</time></trkpt><trkpt lat="43.0874351" lon="6.7679467"><ele>0.0</ele><time>2026-04-30T22:10:54.059Z</time></trkpt><trkpt lat="43.0874862" lon="6.7680359"><ele>0.0</ele><time>2026-04-30T22:10:55.058Z</time></trkpt><trkpt lat="43.0875367" lon="6.7681305"><ele>0.0</ele><time>2026-04-30T22:10:56.058Z</time></trkpt><trkpt lat="43.0875781" lon="6.76823"><ele>0.0</ele><time>2026-04-30T22:10:57.059Z</time></trkpt><trkpt lat="43.0876167" lon="6.7683286"><ele>0.0</ele><time>2026-04-30T22:10:58.059Z</time></trkpt><trkpt lat="43.0876545" lon="6.7684302"><ele>0.0</ele><time>2026-04-30T22:10:59.059Z</time></trkpt><trkpt lat="43.0876959" lon="6.7685313"><ele>0.0</ele><time>2026-04-30T22:11:00.058Z</time></trkpt><trkpt lat="43.0877409" lon="6.7686289"><ele>0.0</ele><time>2026-04-30T22:11:01.058Z</time></trkpt><trkpt lat="43.0877915" lon="6.7687171"><ele>0.0</ele><time>2026-04-30T22:11:02.059Z</time></trkpt><trkpt lat="43.0878979" lon="6.7688954"><ele>0.0</ele><time>2026-04-30T22:11:04.059Z</time></trkpt><trkpt lat="43.0879528" lon="6.7689853"><ele>0.0</ele><time>2026-04-30T22:11:05.058Z</time></trkpt><trkpt lat="43.0879951" lon="6.7690795"><ele>0.0</ele><time>2026-04-30T22:11:06.058Z</time></trkpt><trkpt lat="43.088044" lon="6.7691646"><ele>0.0</ele><time>2026-04-30T22:11:07.058Z</time></trkpt><trkpt lat="43.0880909" lon="6.7692444"><ele>0.0</ele><time>2026-04-30T22:11:08.059Z</time></trkpt><trkpt lat="43.0881395" lon="6.7693333"><ele>0.0</ele><time>2026-04-30T22:11:09.059Z</time></trkpt><trkpt lat="43.0881893" lon="6.7694205"><ele>0.0</ele><time>2026-04-30T22:11:10.058Z</time></trkpt><trkpt lat="43.0882441" lon="6.7695097"><ele>0.0</ele><time>2026-04-30T22:11:11.058Z</time></trkpt><trkpt lat="43.0883007" lon="6.7695956"><ele>0.0</ele><time>2026-04-30T22:11:12.058Z</time></trkpt><trkpt lat="43.0883617" lon="6.7696848"><ele>0.0</ele><time>2026-04-30T22:11:13.058Z</time></trkpt><trkpt lat="43.0884207" lon="6.7697689"><ele>0.0</ele><time>2026-04-30T22:11:14.058Z</time></trkpt><trkpt lat="43.0884678" lon="6.7698571"><ele>0.0</ele><time>2026-04-30T22:11:15.058Z</time></trkpt><trkpt lat="43.0885184" lon="6.7699532"><ele>0.0</ele><time>2026-04-30T22:11:16.058Z</time></trkpt><trkpt lat="43.0885689" lon="6.7700429"><ele>0.0</ele><time>2026-04-30T22:11:17.058Z</time></trkpt><trkpt lat="43.0886159" lon="6.7701287"><ele>0.0</ele><time>2026-04-30T22:11:18.059Z</time></trkpt><trkpt lat="43.0886583" lon="6.7702165"><ele>0.0</ele><time>2026-04-30T22:11:19.058Z</time></trkpt><trkpt lat="43.088704" lon="6.770307"><ele>0.0</ele><time>2026-04-30T22:11:20.059Z</time></trkpt><trkpt lat="43.0887498" lon="6.7704063"><ele>0.0</ele><time>2026-04-30T22:11:21.058Z</time></trkpt><trkpt lat="43.0888" lon="6.7704963"><ele>0.0</ele><time>2026-04-30T22:11:22.059Z</time></trkpt><trkpt lat="43.0889348" lon="6.7707934"><ele>0.0</ele><time>2026-04-30T22:11:25.058Z</time></trkpt><trkpt lat="43.0889751" lon="6.7708959"><ele>0.0</ele><time>2026-04-30T22:11:26.058Z</time></trkpt><trkpt lat="43.0890145" lon="6.7709998"><ele>0.0</ele><time>2026-04-30T22:11:27.058Z</time></trkpt><trkpt lat="43.0890656" lon="6.7710991"><ele>0.0</ele><time>2026-04-30T22:11:28.059Z</time></trkpt><trkpt lat="43.0891233" lon="6.7711934"><ele>0.0</ele><time>2026-04-30T22:11:29.059Z</time></trkpt><trkpt lat="43.0891893" lon="6.771281"><ele>0.0</ele><time>2026-04-30T22:11:30.059Z</time></trkpt><trkpt lat="43.0892389" lon="6.7713785"><ele>0.0</ele><time>2026-04-30T22:11:31.059Z</time></trkpt><trkpt lat="43.0892842" lon="6.7714756"><ele>0.0</ele><time>2026-04-30T22:11:32.058Z</time></trkpt><trkpt lat="43.0893267" lon="6.7715775"><ele>0.0</ele><time>2026-04-30T22:11:33.058Z</time></trkpt><trkpt lat="43.0893722" lon="6.7716731"><ele>0.0</ele><time>2026-04-30T22:11:34.058Z</time></trkpt><trkpt lat="43.0894171" lon="6.7717693"><ele>0.0</ele><time>2026-04-30T22:11:35.059Z</time></trkpt><trkpt lat="43.0894651" lon="6.771862"><ele>0.0</ele><time>2026-04-30T22:11:36.058Z</time></trkpt><trkpt lat="43.0895166" lon="6.7719536"><ele>0.0</ele><time>2026-04-30T22:11:37.059Z</time></trkpt><trkpt lat="43.0895672" lon="6.7720468"><ele>0.0</ele><time>2026-04-30T22:11:38.058Z</time></trkpt><trkpt lat="43.089617" lon="6.7721386"><ele>0.0</ele><time>2026-04-30T22:11:39.058Z</time></trkpt><trkpt lat="43.0896682" lon="6.7722315"><ele>0.0</ele><time>2026-04-30T22:11:40.058Z</time></trkpt><trkpt lat="43.0897116" lon="6.7723289"><ele>0.0</ele><time>2026-04-30T22:11:41.058Z</time></trkpt><trkpt lat="43.0897604" lon="6.7724245"><ele>0.0</ele><time>2026-04-30T22:11:42.058Z</time></trkpt><trkpt lat="43.0897999" lon="6.7725255"><ele>0.0</ele><time>2026-04-30T22:11:43.058Z</time></trkpt><trkpt lat="43.0898411" lon="6.7726235"><ele>0.0</ele><time>2026-04-30T22:11:44.058Z</time></trkpt><trkpt lat="43.0899322" lon="6.7728145"><ele>0.0</ele><time>2026-04-30T22:11:46.058Z</time></trkpt><trkpt lat="43.0899773" lon="6.7729113"><ele>0.0</ele><time>2026-04-30T22:11:47.059Z</time></trkpt><trkpt lat="43.090025" lon="6.7730092"><ele>0.0</ele><time>2026-04-30T22:11:48.059Z</time></trkpt><trkpt lat="43.0900735" lon="6.7731038"><ele>0.0</ele><time>2026-04-30T22:11:49.059Z</time></trkpt><trkpt lat="43.0901234" lon="6.7731951"><ele>0.0</ele><time>2026-04-30T22:11:50.058Z</time></trkpt><trkpt lat="43.0901675" lon="6.7732895"><ele>0.0</ele><time>2026-04-30T22:11:51.058Z</time></trkpt><trkpt lat="43.0902163" lon="6.7733806"><ele>0.0</ele><time>2026-04-30T22:11:52.059Z</time></trkpt><trkpt lat="43.0902605" lon="6.7734751"><ele>0.0</ele><time>2026-04-30T22:11:53.058Z</time></trkpt><trkpt lat="43.0903122" lon="6.7735701"><ele>0.0</ele><time>2026-04-30T22:11:54.059Z</time></trkpt><trkpt lat="43.0904157" lon="6.7737388"><ele>0.0</ele><time>2026-04-30T22:11:56.058Z</time></trkpt><trkpt lat="43.090458" lon="6.7738289"><ele>0.0</ele><time>2026-04-30T22:11:57.058Z</time></trkpt><trkpt lat="43.0904966" lon="6.7739245"><ele>0.0</ele><time>2026-04-30T22:11:58.058Z</time></trkpt><trkpt lat="43.0905352" lon="6.774023"><ele>0.0</ele><time>2026-04-30T22:11:59.058Z</time></trkpt><trkpt lat="43.0905773" lon="6.7741218"><ele>0.0</ele><time>2026-04-30T22:12:00.058Z</time></trkpt><trkpt lat="43.0906236" lon="6.774217"><ele>0.0</ele><time>2026-04-30T22:12:01.059Z</time></trkpt><trkpt lat="43.0906675" lon="6.7743137"><ele>0.0</ele><time>2026-04-30T22:12:02.058Z</time></trkpt><trkpt lat="43.0907103" lon="6.7744101"><ele>0.0</ele><time>2026-04-30T22:12:03.059Z</time></trkpt><trkpt lat="43.0907537" lon="6.7745071"><ele>0.0</ele><time>2026-04-30T22:12:04.058Z</time></trkpt><trkpt lat="43.0907999" lon="6.7746061"><ele>0.0</ele><time>2026-04-30T22:12:05.058Z</time></trkpt><trkpt lat="43.0908917" lon="6.7748067"><ele>0.0</ele><time>2026-04-30T22:12:07.058Z</time></trkpt><trkpt lat="43.0909384" lon="6.7749031"><ele>0.0</ele><time>2026-04-30T22:12:08.058Z</time></trkpt><trkpt lat="43.0909881" lon="6.7749979"><ele>0.0</ele><time>2026-04-30T22:12:09.059Z</time></trkpt><trkpt lat="43.0910396" lon="6.7750934"><ele>0.0</ele><time>2026-04-30T22:12:10.058Z</time></trkpt><trkpt lat="43.091094" lon="6.7751828"><ele>0.0</ele><time>2026-04-30T22:12:11.059Z</time></trkpt><trkpt lat="43.0911404" lon="6.7752806"><ele>0.0</ele><time>2026-04-30T22:12:12.059Z</time></trkpt><trkpt lat="43.0911851" lon="6.7753751"><ele>0.0</ele><time>2026-04-30T22:12:13.058Z</time></trkpt><trkpt lat="43.091234" lon="6.7754715"><ele>0.0</ele><time>2026-04-30T22:12:14.059Z</time></trkpt><trkpt lat="43.0912886" lon="6.7755633"><ele>0.0</ele><time>2026-04-30T22:12:15.058Z</time></trkpt><trkpt lat="43.0913434" lon="6.7756564"><ele>0.0</ele><time>2026-04-30T22:12:16.058Z</time></trkpt><trkpt lat="43.0913932" lon="6.775747"><ele>0.0</ele><time>2026-04-30T22:12:17.059Z</time></trkpt><trkpt lat="43.091443" lon="6.7758368"><ele>0.0</ele><time>2026-04-30T22:12:18.058Z</time></trkpt><trkpt lat="43.0914987" lon="6.7759241"><ele>0.0</ele><time>2026-04-30T22:12:19.059Z</time></trkpt><trkpt lat="43.0915526" lon="6.7760089"><ele>0.0</ele><time>2026-04-30T22:12:20.058Z</time></trkpt><trkpt lat="43.0916058" lon="6.7760967"><ele>0.0</ele><time>2026-04-30T22:12:21.058Z</time></trkpt><trkpt lat="43.0916533" lon="6.7761913"><ele>0.0</ele><time>2026-04-30T22:12:22.058Z</time></trkpt><trkpt lat="43.0917006" lon="6.7762827"><ele>0.0</ele><time>2026-04-30T22:12:23.058Z</time></trkpt><trkpt lat="43.0917487" lon="6.776373"><ele>0.0</ele><time>2026-04-30T22:12:24.059Z</time></trkpt><trkpt lat="43.0918" lon="6.7764632"><ele>0.0</ele><time>2026-04-30T22:12:25.058Z</time></trkpt><trkpt lat="43.0918503" lon="6.7765545"><ele>0.0</ele><time>2026-04-30T22:12:26.058Z</time></trkpt><trkpt lat="43.0919002" lon="6.7766363"><ele>0.0</ele><time>2026-04-30T22:12:27.058Z</time></trkpt><trkpt lat="43.0919966" lon="6.7768032"><ele>0.0</ele><time>2026-04-30T22:12:29.058Z</time></trkpt><trkpt lat="43.0920457" lon="6.7768857"><ele>0.0</ele><time>2026-04-30T22:12:30.059Z</time></trkpt><trkpt lat="43.0921005" lon="6.7769706"><ele>0.0</ele><time>2026-04-30T22:12:31.058Z</time></trkpt><trkpt lat="43.0921681" lon="6.7770591"><ele>0.0</ele><time>2026-04-30T22:12:32.059Z</time></trkpt><trkpt lat="43.0922192" lon="6.77715"><ele>0.0</ele><time>2026-04-30T22:12:33.058Z</time></trkpt><trkpt lat="43.0922673" lon="6.7772415"><ele>0.0</ele><time>2026-04-30T22:12:34.059Z</time></trkpt><trkpt lat="43.0923345" lon="6.7773139"><ele>0.0</ele><time>2026-04-30T22:12:35.058Z</time></trkpt><trkpt lat="43.0924074" lon="6.7773809"><ele>0.0</ele><time>2026-04-30T22:12:36.058Z</time></trkpt><trkpt lat="43.0924616" lon="6.7774581"><ele>0.0</ele><time>2026-04-30T22:12:37.058Z</time></trkpt><trkpt lat="43.0925103" lon="6.7775419"><ele>0.0</ele><time>2026-04-30T22:12:38.059Z</time></trkpt><trkpt lat="43.0925615" lon="6.7776295"><ele>0.0</ele><time>2026-04-30T22:12:39.059Z</time></trkpt><trkpt lat="43.0926157" lon="6.7777155"><ele>0.0</ele><time>2026-04-30T22:12:40.059Z</time></trkpt><trkpt lat="43.0926682" lon="6.7777991"><ele>0.0</ele><time>2026-04-30T22:12:41.059Z</time></trkpt><trkpt lat="43.0927255" lon="6.7778821"><ele>0.0</ele><time>2026-04-30T22:12:42.058Z</time></trkpt><trkpt lat="43.0927773" lon="6.7779714"><ele>0.0</ele><time>2026-04-30T22:12:43.059Z</time></trkpt><trkpt lat="43.0928255" lon="6.7780672"><ele>0.0</ele><time>2026-04-30T22:12:44.058Z</time></trkpt><trkpt lat="43.0928782" lon="6.7781597"><ele>0.0</ele><time>2026-04-30T22:12:45.059Z</time></trkpt><trkpt lat="43.0929302" lon="6.7782584"><ele>0.0</ele><time>2026-04-30T22:12:46.058Z</time></trkpt><trkpt lat="43.092982" lon="6.7783513"><ele>0.0</ele><time>2026-04-30T22:12:47.058Z</time></trkpt><trkpt lat="43.0930432" lon="6.7784391"><ele>0.0</ele><time>2026-04-30T22:12:48.058Z</time></trkpt><trkpt lat="43.0931331" lon="6.778643"><ele>0.0</ele><time>2026-04-30T22:12:50.058Z</time></trkpt><trkpt lat="43.0931944" lon="6.7787264"><ele>0.0</ele><time>2026-04-30T22:12:51.059Z</time></trkpt><trkpt lat="43.0932338" lon="6.7788166"><ele>0.0</ele><time>2026-04-30T22:12:52.058Z</time></trkpt><trkpt lat="43.0932832" lon="6.7789055"><ele>0.0</ele><time>2026-04-30T22:12:53.059Z</time></trkpt><trkpt lat="43.0933361" lon="6.7789946"><ele>0.0</ele><time>2026-04-30T22:12:54.058Z</time></trkpt><trkpt lat="43.0934121" lon="6.7790819"><ele>0.0</ele><time>2026-04-30T22:12:55.059Z</time></trkpt><trkpt lat="43.0934692" lon="6.7791725"><ele>0.0</ele><time>2026-04-30T22:12:56.059Z</time></trkpt><trkpt lat="43.0935232" lon="6.7792657"><ele>0.0</ele><time>2026-04-30T22:12:57.058Z</time></trkpt><trkpt lat="43.0935677" lon="6.779368"><ele>0.0</ele><time>2026-04-30T22:12:58.058Z</time></trkpt><trkpt lat="43.0936795" lon="6.779547"><ele>0.0</ele><time>2026-04-30T22:13:00.058Z</time></trkpt><trkpt lat="43.0937262" lon="6.7796401"><ele>0.0</ele><time>2026-04-30T22:13:01.058Z</time></trkpt><trkpt lat="43.0937704" lon="6.7797294"><ele>0.0</ele><time>2026-04-30T22:13:02.058Z</time></trkpt><trkpt lat="43.0938117" lon="6.7798253"><ele>0.0</ele><time>2026-04-30T22:13:03.059Z</time></trkpt><trkpt lat="43.0938512" lon="6.7799255"><ele>0.0</ele><time>2026-04-30T22:13:04.059Z</time></trkpt><trkpt lat="43.0938883" lon="6.7800255"><ele>0.0</ele><time>2026-04-30T22:13:05.059Z</time></trkpt><trkpt lat="43.0939297" lon="6.7801268"><ele>0.0</ele><time>2026-04-30T22:13:06.059Z</time></trkpt><trkpt lat="43.0939823" lon="6.7802259"><ele>0.0</ele><time>2026-04-30T22:13:07.059Z</time></trkpt><trkpt lat="43.0940305" lon="6.7803241"><ele>0.0</ele><time>2026-04-30T22:13:08.059Z</time></trkpt><trkpt lat="43.0940717" lon="6.7804209"><ele>0.0</ele><time>2026-04-30T22:13:09.058Z</time></trkpt><trkpt lat="43.0941613" lon="6.7806059"><ele>0.0</ele><time>2026-04-30T22:13:11.059Z</time></trkpt><trkpt lat="43.0942073" lon="6.780699"><ele>0.0</ele><time>2026-04-30T22:13:12.058Z</time></trkpt><trkpt lat="43.0942511" lon="6.7807927"><ele>0.0</ele><time>2026-04-30T22:13:13.059Z</time></trkpt><trkpt lat="43.0943026" lon="6.7808831"><ele>0.0</ele><time>2026-04-30T22:13:14.058Z</time></trkpt><trkpt lat="43.0943514" lon="6.7809679"><ele>0.0</ele><time>2026-04-30T22:13:15.059Z</time></trkpt><trkpt lat="43.0943973" lon="6.7810667"><ele>0.0</ele><time>2026-04-30T22:13:16.058Z</time></trkpt><trkpt lat="43.0944422" lon="6.7811688"><ele>0.0</ele><time>2026-04-30T22:13:17.058Z</time></trkpt><trkpt lat="43.0944985" lon="6.7812584"><ele>0.0</ele><time>2026-04-30T22:13:18.059Z</time></trkpt><trkpt lat="43.0945483" lon="6.7813513"><ele>0.0</ele><time>2026-04-30T22:13:19.059Z</time></trkpt><trkpt lat="43.0945908" lon="6.7814473"><ele>0.0</ele><time>2026-04-30T22:13:20.058Z</time></trkpt><trkpt lat="43.0946297" lon="6.7815477"><ele>0.0</ele><time>2026-04-30T22:13:21.059Z</time></trkpt><trkpt lat="43.094678" lon="6.7816412"><ele>0.0</ele><time>2026-04-30T22:13:22.059Z</time></trkpt><trkpt lat="43.0947335" lon="6.7817291"><ele>0.0</ele><time>2026-04-30T22:13:23.059Z</time></trkpt><trkpt lat="43.0947985" lon="6.7818131"><ele>0.0</ele><time>2026-04-30T22:13:24.058Z</time></trkpt><trkpt lat="43.0948525" lon="6.7818935"><ele>0.0</ele><time>2026-04-30T22:13:25.059Z</time></trkpt><trkpt lat="43.094899" lon="6.7819803"><ele>0.0</ele><time>2026-04-30T22:13:26.059Z</time></trkpt><trkpt lat="43.094947" lon="6.7820674"><ele>0.0</ele><time>2026-04-30T22:13:27.058Z</time></trkpt><trkpt lat="43.0949893" lon="6.7821654"><ele>0.0</ele><time>2026-04-30T22:13:28.058Z</time></trkpt><trkpt lat="43.0950431" lon="6.7822553"><ele>0.0</ele><time>2026-04-30T22:13:29.058Z</time></trkpt><trkpt lat="43.0950828" lon="6.7823507"><ele>0.0</ele><time>2026-04-30T22:13:30.059Z</time></trkpt><trkpt lat="43.0952403" lon="6.7826305"><ele>0.0</ele><time>2026-04-30T22:13:33.058Z</time></trkpt><trkpt lat="43.0952805" lon="6.7827283"><ele>0.0</ele><time>2026-04-30T22:13:34.058Z</time></trkpt><trkpt lat="43.0953191" lon="6.7828322"><ele>0.0</ele><time>2026-04-30T22:13:35.058Z</time></trkpt><trkpt lat="43.0953669" lon="6.7829319"><ele>0.0</ele><time>2026-04-30T22:13:36.058Z</time></trkpt><trkpt lat="43.095422" lon="6.7830294"><ele>0.0</ele><time>2026-04-30T22:13:37.058Z</time></trkpt><trkpt lat="43.0954798" lon="6.7831235"><ele>0.0</ele><time>2026-04-30T22:13:38.058Z</time></trkpt><trkpt lat="43.0955385" lon="6.7832178"><ele>0.0</ele><time>2026-04-30T22:13:39.058Z</time></trkpt><trkpt lat="43.0955926" lon="6.7833099"><ele>0.0</ele><time>2026-04-30T22:13:40.059Z</time></trkpt><trkpt lat="43.0956547" lon="6.7834013"><ele>0.0</ele><time>2026-04-30T22:13:41.059Z</time></trkpt><trkpt lat="43.0957011" lon="6.7834933"><ele>0.0</ele><time>2026-04-30T22:13:42.059Z</time></trkpt><trkpt lat="43.0957475" lon="6.7835866"><ele>0.0</ele><time>2026-04-30T22:13:43.059Z</time></trkpt><trkpt lat="43.095797" lon="6.7836695"><ele>0.0</ele><time>2026-04-30T22:13:44.059Z</time></trkpt><trkpt lat="43.0958525" lon="6.7837538"><ele>0.0</ele><time>2026-04-30T22:13:45.059Z</time></trkpt><trkpt lat="43.0958976" lon="6.7838435"><ele>0.0</ele><time>2026-04-30T22:13:46.059Z</time></trkpt><trkpt lat="43.0959483" lon="6.7839356"><ele>0.0</ele><time>2026-04-30T22:13:47.059Z</time></trkpt><trkpt lat="43.0960085" lon="6.7840196"><ele>0.0</ele><time>2026-04-30T22:13:48.058Z</time></trkpt><trkpt lat="43.0960683" lon="6.7841045"><ele>0.0</ele><time>2026-04-30T22:13:49.058Z</time></trkpt><trkpt lat="43.096127" lon="6.7841964"><ele>0.0</ele><time>2026-04-30T22:13:50.058Z</time></trkpt><trkpt lat="43.0961741" lon="6.7842914"><ele>0.0</ele><time>2026-04-30T22:13:51.059Z</time></trkpt><trkpt lat="43.0962124" lon="6.7843825"><ele>0.0</ele><time>2026-04-30T22:13:52.058Z</time></trkpt><trkpt lat="43.0963136" lon="6.7845565"><ele>0.0</ele><time>2026-04-30T22:13:54.058Z</time></trkpt><trkpt lat="43.0963542" lon="6.7846531"><ele>0.0</ele><time>2026-04-30T22:13:55.058Z</time></trkpt><trkpt lat="43.0964056" lon="6.7847469"><ele>0.0</ele><time>2026-04-30T22:13:56.058Z</time></trkpt><trkpt lat="43.0964528" lon="6.7848462"><ele>0.0</ele><time>2026-04-30T22:13:57.058Z</time></trkpt><trkpt lat="43.0965078" lon="6.7849395"><ele>0.0</ele><time>2026-04-30T22:13:58.058Z</time></trkpt><trkpt lat="43.0965579" lon="6.7850279"><ele>0.0</ele><time>2026-04-30T22:13:59.058Z</time></trkpt><trkpt lat="43.0966049" lon="6.7851232"><ele>0.0</ele><time>2026-04-30T22:14:00.059Z</time></trkpt><trkpt lat="43.0966654" lon="6.7852077"><ele>0.0</ele><time>2026-04-30T22:14:01.058Z</time></trkpt><trkpt lat="43.0967181" lon="6.7852979"><ele>0.0</ele><time>2026-04-30T22:14:02.059Z</time></trkpt><trkpt lat="43.0967759" lon="6.7853831"><ele>0.0</ele><time>2026-04-30T22:14:03.058Z</time></trkpt><trkpt lat="43.0968713" lon="6.7855593"><ele>0.0</ele><time>2026-04-30T22:14:05.058Z</time></trkpt><trkpt lat="43.0969293" lon="6.7856521"><ele>0.0</ele><time>2026-04-30T22:14:06.058Z</time></trkpt><trkpt lat="43.0969765" lon="6.7857427"><ele>0.0</ele><time>2026-04-30T22:14:07.058Z</time></trkpt><trkpt lat="43.0970253" lon="6.7858401"><ele>0.0</ele><time>2026-04-30T22:14:08.058Z</time></trkpt><trkpt lat="43.0970695" lon="6.7859387"><ele>0.0</ele><time>2026-04-30T22:14:09.059Z</time></trkpt><trkpt lat="43.0971184" lon="6.7860271"><ele>0.0</ele><time>2026-04-30T22:14:10.058Z</time></trkpt><trkpt lat="43.0971708" lon="6.7861142"><ele>0.0</ele><time>2026-04-30T22:14:11.059Z</time></trkpt><trkpt lat="43.0972247" lon="6.786207"><ele>0.0</ele><time>2026-04-30T22:14:12.058Z</time></trkpt><trkpt lat="43.0972708" lon="6.7863007"><ele>0.0</ele><time>2026-04-30T22:14:13.058Z</time></trkpt><trkpt lat="43.0973662" lon="6.7864839"><ele>0.0</ele><time>2026-04-30T22:14:15.059Z</time></trkpt><trkpt lat="43.0974244" lon="6.7865762"><ele>0.0</ele><time>2026-04-30T22:14:16.058Z</time></trkpt><trkpt lat="43.097467" lon="6.7866639"><ele>0.0</ele><time>2026-04-30T22:14:17.058Z</time></trkpt><trkpt lat="43.097508" lon="6.7867458"><ele>0.0</ele><time>2026-04-30T22:14:18.059Z</time></trkpt><trkpt lat="43.0975525" lon="6.7868345"><ele>0.0</ele><time>2026-04-30T22:14:19.058Z</time></trkpt><trkpt lat="43.0976052" lon="6.7869218"><ele>0.0</ele><time>2026-04-30T22:14:20.059Z</time></trkpt><trkpt lat="43.0976563" lon="6.7870125"><ele>0.0</ele><time>2026-04-30T22:14:21.058Z</time></trkpt><trkpt lat="43.0977085" lon="6.7871004"><ele>0.0</ele><time>2026-04-30T22:14:22.058Z</time></trkpt><trkpt lat="43.0977537" lon="6.7871974"><ele>0.0</ele><time>2026-04-30T22:14:23.059Z</time></trkpt><trkpt lat="43.0977968" lon="6.7872918"><ele>0.0</ele><time>2026-04-30T22:14:24.058Z</time></trkpt><trkpt lat="43.0978466" lon="6.7873845"><ele>0.0</ele><time>2026-04-30T22:14:25.058Z</time></trkpt><trkpt lat="43.0978868" lon="6.7874863"><ele>0.0</ele><time>2026-04-30T22:14:26.058Z</time></trkpt><trkpt lat="43.0979324" lon="6.7875869"><ele>0.0</ele><time>2026-04-30T22:14:27.058Z</time></trkpt><trkpt lat="43.0979744" lon="6.7876786"><ele>0.0</ele><time>2026-04-30T22:14:28.059Z</time></trkpt><trkpt lat="43.0980187" lon="6.7877684"><ele>0.0</ele><time>2026-04-30T22:14:29.058Z</time></trkpt><trkpt lat="43.0980582" lon="6.7878655"><ele>0.0</ele><time>2026-04-30T22:14:30.059Z</time></trkpt><trkpt lat="43.0980983" lon="6.7879638"><ele>0.0</ele><time>2026-04-30T22:14:31.059Z</time></trkpt><trkpt lat="43.0981482" lon="6.7880525"><ele>0.0</ele><time>2026-04-30T22:14:32.059Z</time></trkpt><trkpt lat="43.0981952" lon="6.7881462"><ele>0.0</ele><time>2026-04-30T22:14:33.058Z</time></trkpt><trkpt lat="43.0982477" lon="6.7882366"><ele>0.0</ele><time>2026-04-30T22:14:34.059Z</time></trkpt><trkpt lat="43.0983442" lon="6.7884323"><ele>0.0</ele><time>2026-04-30T22:14:36.058Z</time></trkpt><trkpt lat="43.0984467" lon="6.7886221"><ele>0.0</ele><time>2026-04-30T22:14:38.058Z</time></trkpt><trkpt lat="43.0985056" lon="6.7887117"><ele>0.0</ele><time>2026-04-30T22:14:39.058Z</time></trkpt><trkpt lat="43.0985565" lon="6.788804"><ele>0.0</ele><time>2026-04-30T22:14:40.059Z</time></trkpt><trkpt lat="43.0986027" lon="6.7889002"><ele>0.0</ele><time>2026-04-30T22:14:41.059Z</time></trkpt><trkpt lat="43.0986561" lon="6.7889934"><ele>0.0</ele><time>2026-04-30T22:14:42.059Z</time></trkpt><trkpt lat="43.0987009" lon="6.7890877"><ele>0.0</ele><time>2026-04-30T22:14:43.058Z</time></trkpt><trkpt lat="43.0987526" lon="6.7891774"><ele>0.0</ele><time>2026-04-30T22:14:44.059Z</time></trkpt><trkpt lat="43.0988049" lon="6.789264"><ele>0.0</ele><time>2026-04-30T22:14:45.059Z</time></trkpt><trkpt lat="43.0988536" lon="6.7893561"><ele>0.0</ele><time>2026-04-30T22:14:46.059Z</time></trkpt><trkpt lat="43.0989034" lon="6.7894467"><ele>0.0</ele><time>2026-04-30T22:14:47.059Z</time></trkpt><trkpt lat="43.0989547" lon="6.7895368"><ele>0.0</ele><time>2026-04-30T22:14:48.058Z</time></trkpt><trkpt lat="43.0990032" lon="6.7896282"><ele>0.0</ele><time>2026-04-30T22:14:49.059Z</time></trkpt><trkpt lat="43.0990517" lon="6.789713"><ele>0.0</ele><time>2026-04-30T22:14:50.058Z</time></trkpt><trkpt lat="43.0990956" lon="6.7898046"><ele>0.0</ele><time>2026-04-30T22:14:51.058Z</time></trkpt><trkpt lat="43.0991475" lon="6.789901"><ele>0.0</ele><time>2026-04-30T22:14:52.058Z</time></trkpt><trkpt lat="43.0991935" lon="6.7900004"><ele>0.0</ele><time>2026-04-30T22:14:53.059Z</time></trkpt><trkpt lat="43.0992359" lon="6.7901018"><ele>0.0</ele><time>2026-04-30T22:14:54.058Z</time></trkpt><trkpt lat="43.0992817" lon="6.7901996"><ele>0.0</ele><time>2026-04-30T22:14:55.059Z</time></trkpt><trkpt lat="43.0993772" lon="6.7903893"><ele>0.0</ele><time>2026-04-30T22:14:57.059Z</time></trkpt><trkpt lat="43.0994209" lon="6.7904829"><ele>0.0</ele><time>2026-04-30T22:14:58.059Z</time></trkpt><trkpt lat="43.0994656" lon="6.7905746"><ele>0.0</ele><time>2026-04-30T22:14:59.059Z</time></trkpt><trkpt lat="43.0995195" lon="6.790658"><ele>0.0</ele><time>2026-04-30T22:15:00.059Z</time></trkpt><trkpt lat="43.099565" lon="6.7907497"><ele>0.0</ele><time>2026-04-30T22:15:01.059Z</time></trkpt><trkpt lat="43.0996006" lon="6.7908414"><ele>0.0</ele><time>2026-04-30T22:15:02.059Z</time></trkpt><trkpt lat="43.0996482" lon="6.7909314"><ele>0.0</ele><time>2026-04-30T22:15:03.058Z</time></trkpt><trkpt lat="43.099698" lon="6.7910217"><ele>0.0</ele><time>2026-04-30T22:15:04.058Z</time></trkpt><trkpt lat="43.0997482" lon="6.7911161"><ele>0.0</ele><time>2026-04-30T22:15:05.058Z</time></trkpt><trkpt lat="43.0998097" lon="6.791204"><ele>0.0</ele><time>2026-04-30T22:15:06.059Z</time></trkpt><trkpt lat="43.0998684" lon="6.7912934"><ele>0.0</ele><time>2026-04-30T22:15:07.058Z</time></trkpt><trkpt lat="43.0999255" lon="6.7913784"><ele>0.0</ele><time>2026-04-30T22:15:08.058Z</time></trkpt><trkpt lat="43.1000144" lon="6.7915661"><ele>0.0</ele><time>2026-04-30T22:15:10.058Z</time></trkpt><trkpt lat="43.1000608" lon="6.7916626"><ele>0.0</ele><time>2026-04-30T22:15:11.059Z</time></trkpt><trkpt lat="43.1001158" lon="6.791752"><ele>0.0</ele><time>2026-04-30T22:15:12.058Z</time></trkpt><trkpt lat="43.1001708" lon="6.7918404"><ele>0.0</ele><time>2026-04-30T22:15:13.058Z</time></trkpt><trkpt lat="43.100224" lon="6.7919305"><ele>0.0</ele><time>2026-04-30T22:15:14.058Z</time></trkpt><trkpt lat="43.1002774" lon="6.7920235"><ele>0.0</ele><time>2026-04-30T22:15:15.058Z</time></trkpt><trkpt lat="43.1003325" lon="6.7921109"><ele>0.0</ele><time>2026-04-30T22:15:16.059Z</time></trkpt><trkpt lat="43.1004355" lon="6.7922878"><ele>0.0</ele><time>2026-04-30T22:15:18.058Z</time></trkpt><trkpt lat="43.1004923" lon="6.7923754"><ele>0.0</ele><time>2026-04-30T22:15:19.058Z</time></trkpt><trkpt lat="43.1005469" lon="6.7924709"><ele>0.0</ele><time>2026-04-30T22:15:20.058Z</time></trkpt><trkpt lat="43.1005984" lon="6.7925665"><ele>0.0</ele><time>2026-04-30T22:15:21.058Z</time></trkpt><trkpt lat="43.1006513" lon="6.792657"><ele>0.0</ele><time>2026-04-30T22:15:22.059Z</time></trkpt><trkpt lat="43.1007016" lon="6.7927507"><ele>0.0</ele><time>2026-04-30T22:15:23.059Z</time></trkpt><trkpt lat="43.1007601" lon="6.7928386"><ele>0.0</ele><time>2026-04-30T22:15:24.058Z</time></trkpt><trkpt lat="43.100818" lon="6.7929278"><ele>0.0</ele><time>2026-04-30T22:15:25.058Z</time></trkpt><trkpt lat="43.1008675" lon="6.7930133"><ele>0.0</ele><time>2026-04-30T22:15:26.058Z</time></trkpt><trkpt lat="43.1009098" lon="6.7931097"><ele>0.0</ele><time>2026-04-30T22:15:27.059Z</time></trkpt><trkpt lat="43.1009556" lon="6.7932012"><ele>0.0</ele><time>2026-04-30T22:15:28.059Z</time></trkpt><trkpt lat="43.1010017" lon="6.7932972"><ele>0.0</ele><time>2026-04-30T22:15:29.058Z</time></trkpt><trkpt lat="43.10105" lon="6.7933954"><ele>0.0</ele><time>2026-04-30T22:15:30.059Z</time></trkpt><trkpt lat="43.1011001" lon="6.7934896"><ele>0.0</ele><time>2026-04-30T22:15:31.059Z</time></trkpt><trkpt lat="43.1011442" lon="6.7935889"><ele>0.0</ele><time>2026-04-30T22:15:32.058Z</time></trkpt><trkpt lat="43.10119" lon="6.7936834"><ele>0.0</ele><time>2026-04-30T22:15:33.059Z</time></trkpt><trkpt lat="43.101237" lon="6.7937765"><ele>0.0</ele><time>2026-04-30T22:15:34.059Z</time></trkpt><trkpt lat="43.1012863" lon="6.7938655"><ele>0.0</ele><time>2026-04-30T22:15:35.059Z</time></trkpt><trkpt lat="43.1013394" lon="6.7939574"><ele>0.0</ele><time>2026-04-30T22:15:36.058Z</time></trkpt><trkpt lat="43.1013958" lon="6.7940496"><ele>0.0</ele><time>2026-04-30T22:15:37.058Z</time></trkpt><trkpt lat="43.1014931" lon="6.7942272"><ele>0.0</ele><time>2026-04-30T22:15:39.059Z</time></trkpt><trkpt lat="43.1015447" lon="6.794315"><ele>0.0</ele><time>2026-04-30T22:15:40.058Z</time></trkpt><trkpt lat="43.1016484" lon="6.7944953"><ele>0.0</ele><time>2026-04-30T22:15:42.058Z</time></trkpt><trkpt lat="43.1016968" lon="6.7945892"><ele>0.0</ele><time>2026-04-30T22:15:43.058Z</time></trkpt><trkpt lat="43.1017479" lon="6.794684"><ele>0.0</ele><time>2026-04-30T22:15:44.058Z</time></trkpt><trkpt lat="43.1018011" lon="6.7947779"><ele>0.0</ele><time>2026-04-30T22:15:45.059Z</time></trkpt><trkpt lat="43.1018541" lon="6.794873"><ele>0.0</ele><time>2026-04-30T22:15:46.058Z</time></trkpt><trkpt lat="43.1019127" lon="6.7949695"><ele>0.0</ele><time>2026-04-30T22:15:47.059Z</time></trkpt><trkpt lat="43.101966" lon="6.7950619"><ele>0.0</ele><time>2026-04-30T22:15:48.058Z</time></trkpt><trkpt lat="43.1020144" lon="6.7951552"><ele>0.0</ele><time>2026-04-30T22:15:49.058Z</time></trkpt><trkpt lat="43.1020636" lon="6.7952465"><ele>0.0</ele><time>2026-04-30T22:15:50.058Z</time></trkpt><trkpt lat="43.1021134" lon="6.7953339"><ele>0.0</ele><time>2026-04-30T22:15:51.058Z</time></trkpt><trkpt lat="43.1021638" lon="6.7954277"><ele>0.0</ele><time>2026-04-30T22:15:52.059Z</time></trkpt><trkpt lat="43.1022135" lon="6.7955172"><ele>0.0</ele><time>2026-04-30T22:15:53.059Z</time></trkpt><trkpt lat="43.1022619" lon="6.7956053"><ele>0.0</ele><time>2026-04-30T22:15:54.058Z</time></trkpt><trkpt lat="43.1023079" lon="6.7956893"><ele>0.0</ele><time>2026-04-30T22:15:55.059Z</time></trkpt><trkpt lat="43.1023533" lon="6.7957745"><ele>0.0</ele><time>2026-04-30T22:15:56.058Z</time></trkpt><trkpt lat="43.1024015" lon="6.7958681"><ele>0.0</ele><time>2026-04-30T22:15:57.058Z</time></trkpt><trkpt lat="43.1024547" lon="6.7959673"><ele>0.0</ele><time>2026-04-30T22:15:58.058Z</time></trkpt><trkpt lat="43.1025288" lon="6.7961735"><ele>0.0</ele><time>2026-04-30T22:16:00.058Z</time></trkpt><trkpt lat="43.1025815" lon="6.7962649"><ele>0.0</ele><time>2026-04-30T22:16:01.059Z</time></trkpt><trkpt lat="43.1026324" lon="6.7963568"><ele>0.0</ele><time>2026-04-30T22:16:02.058Z</time></trkpt><trkpt lat="43.1026808" lon="6.7964494"><ele>0.0</ele><time>2026-04-30T22:16:03.058Z</time></trkpt><trkpt lat="43.1027316" lon="6.7965401"><ele>0.0</ele><time>2026-04-30T22:16:04.059Z</time></trkpt><trkpt lat="43.1027803" lon="6.7966325"><ele>0.0</ele><time>2026-04-30T22:16:05.059Z</time></trkpt><trkpt lat="43.1028258" lon="6.7967247"><ele>0.0</ele><time>2026-04-30T22:16:06.058Z</time></trkpt><trkpt lat="43.1028751" lon="6.796815"><ele>0.0</ele><time>2026-04-30T22:16:07.059Z</time></trkpt><trkpt lat="43.1029253" lon="6.7969061"><ele>0.0</ele><time>2026-04-30T22:16:08.059Z</time></trkpt><trkpt lat="43.1029707" lon="6.7970035"><ele>0.0</ele><time>2026-04-30T22:16:09.059Z</time></trkpt><trkpt lat="43.1030188" lon="6.7970952"><ele>0.0</ele><time>2026-04-30T22:16:10.058Z</time></trkpt><trkpt lat="43.1030642" lon="6.7971866"><ele>0.0</ele><time>2026-04-30T22:16:11.059Z</time></trkpt><trkpt lat="43.103109" lon="6.7972798"><ele>0.0</ele><time>2026-04-30T22:16:12.059Z</time></trkpt><trkpt lat="43.1031598" lon="6.7973704"><ele>0.0</ele><time>2026-04-30T22:16:13.059Z</time></trkpt><trkpt lat="43.1032072" lon="6.797463"><ele>0.0</ele><time>2026-04-30T22:16:14.059Z</time></trkpt><trkpt lat="43.1032581" lon="6.7975548"><ele>0.0</ele><time>2026-04-30T22:16:15.059Z</time></trkpt><trkpt lat="43.103311" lon="6.7976468"><ele>0.0</ele><time>2026-04-30T22:16:16.059Z</time></trkpt><trkpt lat="43.1033701" lon="6.7977397"><ele>0.0</ele><time>2026-04-30T22:16:17.059Z</time></trkpt><trkpt lat="43.1034257" lon="6.7978302"><ele>0.0</ele><time>2026-04-30T22:16:18.058Z</time></trkpt><trkpt lat="43.1034736" lon="6.7979304"><ele>0.0</ele><time>2026-04-30T22:16:19.058Z</time></trkpt><trkpt lat="43.1035562" lon="6.7981299"><ele>0.0</ele><time>2026-04-30T22:16:21.059Z</time></trkpt><trkpt lat="43.1035973" lon="6.7982267"><ele>0.0</ele><time>2026-04-30T22:16:22.059Z</time></trkpt><trkpt lat="43.1036418" lon="6.7983217"><ele>0.0</ele><time>2026-04-30T22:16:23.058Z</time></trkpt><trkpt lat="43.103687" lon="6.7984194"><ele>0.0</ele><time>2026-04-30T22:16:24.058Z</time></trkpt><trkpt lat="43.1037377" lon="6.7985179"><ele>0.0</ele><time>2026-04-30T22:16:25.059Z</time></trkpt><trkpt lat="43.1037855" lon="6.7986119"><ele>0.0</ele><time>2026-04-30T22:16:26.059Z</time></trkpt><trkpt lat="43.1038286" lon="6.7987047"><ele>0.0</ele><time>2026-04-30T22:16:27.058Z</time></trkpt><trkpt lat="43.1038756" lon="6.7988018"><ele>0.0</ele><time>2026-04-30T22:16:28.058Z</time></trkpt><trkpt lat="43.1039281" lon="6.7988951"><ele>0.0</ele><time>2026-04-30T22:16:29.059Z</time></trkpt><trkpt lat="43.1039843" lon="6.7989839"><ele>0.0</ele><time>2026-04-30T22:16:30.059Z</time></trkpt><trkpt lat="43.1040338" lon="6.7990766"><ele>0.0</ele><time>2026-04-30T22:16:31.058Z</time></trkpt><trkpt lat="43.1040778" lon="6.7991716"><ele>0.0</ele><time>2026-04-30T22:16:32.058Z</time></trkpt><trkpt lat="43.1041237" lon="6.7992622"><ele>0.0</ele><time>2026-04-30T22:16:33.059Z</time></trkpt><trkpt lat="43.1041702" lon="6.7993537"><ele>0.0</ele><time>2026-04-30T22:16:34.058Z</time></trkpt><trkpt lat="43.1042213" lon="6.7994441"><ele>0.0</ele><time>2026-04-30T22:16:35.058Z</time></trkpt><trkpt lat="43.1042687" lon="6.7995334"><ele>0.0</ele><time>2026-04-30T22:16:36.059Z</time></trkpt><trkpt lat="43.104314" lon="6.7996276"><ele>0.0</ele><time>2026-04-30T22:16:37.059Z</time></trkpt><trkpt lat="43.1043621" lon="6.7997245"><ele>0.0</ele><time>2026-04-30T22:16:38.058Z</time></trkpt><trkpt lat="43.1044032" lon="6.7998238"><ele>0.0</ele><time>2026-04-30T22:16:39.059Z</time></trkpt><trkpt lat="43.1044527" lon="6.7999163"><ele>0.0</ele><time>2026-04-30T22:16:40.059Z</time></trkpt><trkpt lat="43.1045435" lon="6.8000988"><ele>0.0</ele><time>2026-04-30T22:16:42.059Z</time></trkpt><trkpt lat="43.1045904" lon="6.8001856"><ele>0.0</ele><time>2026-04-30T22:16:43.059Z</time></trkpt><trkpt lat="43.1046375" lon="6.8002835"><ele>0.0</ele><time>2026-04-30T22:16:44.059Z</time></trkpt><trkpt lat="43.1047253" lon="6.8004677"><ele>0.0</ele><time>2026-04-30T22:16:46.058Z</time></trkpt><trkpt lat="43.104772" lon="6.8005626"><ele>0.0</ele><time>2026-04-30T22:16:47.059Z</time></trkpt><trkpt lat="43.1048219" lon="6.8006578"><ele>0.0</ele><time>2026-04-30T22:16:48.059Z</time></trkpt><trkpt lat="43.1048716" lon="6.8007514"><ele>0.0</ele><time>2026-04-30T22:16:49.058Z</time></trkpt><trkpt lat="43.1049214" lon="6.8008451"><ele>0.0</ele><time>2026-04-30T22:16:50.059Z</time></trkpt><trkpt lat="43.1049698" lon="6.8009415"><ele>0.0</ele><time>2026-04-30T22:16:51.058Z</time></trkpt><trkpt lat="43.1050183" lon="6.8010333"><ele>0.0</ele><time>2026-04-30T22:16:52.059Z</time></trkpt><trkpt lat="43.1050679" lon="6.8011251"><ele>0.0</ele><time>2026-04-30T22:16:53.058Z</time></trkpt><trkpt lat="43.1051214" lon="6.8012151"><ele>0.0</ele><time>2026-04-30T22:16:54.058Z</time></trkpt><trkpt lat="43.1051691" lon="6.8013075"><ele>0.0</ele><time>2026-04-30T22:16:55.058Z</time></trkpt><trkpt lat="43.1052157" lon="6.8014041"><ele>0.0</ele><time>2026-04-30T22:16:56.059Z</time></trkpt><trkpt lat="43.1052651" lon="6.8014965"><ele>0.0</ele><time>2026-04-30T22:16:57.058Z</time></trkpt><trkpt lat="43.1053148" lon="6.8015911"><ele>0.0</ele><time>2026-04-30T22:16:58.058Z</time></trkpt><trkpt lat="43.1053639" lon="6.8016876"><ele>0.0</ele><time>2026-04-30T22:16:59.058Z</time></trkpt><trkpt lat="43.1054208" lon="6.8017803"><ele>0.0</ele><time>2026-04-30T22:17:00.058Z</time></trkpt><trkpt lat="43.1054765" lon="6.8018676"><ele>0.0</ele><time>2026-04-30T22:17:01.059Z</time></trkpt><trkpt lat="43.105582" lon="6.8020391"><ele>0.0</ele><time>2026-04-30T22:17:03.058Z</time></trkpt><trkpt lat="43.1056277" lon="6.8021313"><ele>0.0</ele><time>2026-04-30T22:17:04.059Z</time></trkpt><trkpt lat="43.1056739" lon="6.8022268"><ele>0.0</ele><time>2026-04-30T22:17:05.058Z</time></trkpt><trkpt lat="43.1057234" lon="6.8023187"><ele>0.0</ele><time>2026-04-30T22:17:06.059Z</time></trkpt><trkpt lat="43.1057715" lon="6.8024058"><ele>0.0</ele><time>2026-04-30T22:17:07.059Z</time></trkpt><trkpt lat="43.1058203" lon="6.8024948"><ele>0.0</ele><time>2026-04-30T22:17:08.059Z</time></trkpt><trkpt lat="43.1058706" lon="6.8025866"><ele>0.0</ele><time>2026-04-30T22:17:09.058Z</time></trkpt><trkpt lat="43.1059257" lon="6.8026785"><ele>0.0</ele><time>2026-04-30T22:17:10.058Z</time></trkpt><trkpt lat="43.1059744" lon="6.8027688"><ele>0.0</ele><time>2026-04-30T22:17:11.059Z</time></trkpt><trkpt lat="43.1060245" lon="6.8028555"><ele>0.0</ele><time>2026-04-30T22:17:12.058Z</time></trkpt><trkpt lat="43.1060804" lon="6.8029439"><ele>0.0</ele><time>2026-04-30T22:17:13.058Z</time></trkpt><trkpt lat="43.1061316" lon="6.8030362"><ele>0.0</ele><time>2026-04-30T22:17:14.058Z</time></trkpt><trkpt lat="43.1061815" lon="6.8031282"><ele>0.0</ele><time>2026-04-30T22:17:15.058Z</time></trkpt><trkpt lat="43.106227" lon="6.8032323"><ele>0.0</ele><time>2026-04-30T22:17:16.058Z</time></trkpt><trkpt lat="43.1062764" lon="6.8033307"><ele>0.0</ele><time>2026-04-30T22:17:17.058Z</time></trkpt><trkpt lat="43.1063293" lon="6.8034232"><ele>0.0</ele><time>2026-04-30T22:17:18.058Z</time></trkpt><trkpt lat="43.106383" lon="6.8035117"><ele>0.0</ele><time>2026-04-30T22:17:19.058Z</time></trkpt><trkpt lat="43.1064382" lon="6.8036002"><ele>0.0</ele><time>2026-04-30T22:17:20.058Z</time></trkpt><trkpt lat="43.1064899" lon="6.8036886"><ele>0.0</ele><time>2026-04-30T22:17:21.058Z</time></trkpt><trkpt lat="43.1065414" lon="6.8037771"><ele>0.0</ele><time>2026-04-30T22:17:22.059Z</time></trkpt><trkpt lat="43.1066338" lon="6.8039619"><ele>0.0</ele><time>2026-04-30T22:17:24.058Z</time></trkpt><trkpt lat="43.1066832" lon="6.8040568"><ele>0.0</ele><time>2026-04-30T22:17:25.058Z</time></trkpt><trkpt lat="43.1067298" lon="6.8041504"><ele>0.0</ele><time>2026-04-30T22:17:26.058Z</time></trkpt><trkpt lat="43.106778" lon="6.8042436"><ele>0.0</ele><time>2026-04-30T22:17:27.059Z</time></trkpt><trkpt lat="43.1068224" lon="6.8043381"><ele>0.0</ele><time>2026-04-30T22:17:28.058Z</time></trkpt><trkpt lat="43.1068731" lon="6.8044317"><ele>0.0</ele><time>2026-04-30T22:17:29.058Z</time></trkpt><trkpt lat="43.106926" lon="6.804525"><ele>0.0</ele><time>2026-04-30T22:17:30.058Z</time></trkpt><trkpt lat="43.1069734" lon="6.8046217"><ele>0.0</ele><time>2026-04-30T22:17:31.058Z</time></trkpt><trkpt lat="43.1070192" lon="6.8047135"><ele>0.0</ele><time>2026-04-30T22:17:32.057Z</time></trkpt><trkpt lat="43.1070641" lon="6.8048072"><ele>0.0</ele><time>2026-04-30T22:17:33.058Z</time></trkpt><trkpt lat="43.1071078" lon="6.8049017"><ele>0.0</ele><time>2026-04-30T22:17:34.057Z</time></trkpt><trkpt lat="43.107157" lon="6.8049949"><ele>0.0</ele><time>2026-04-30T22:17:35.057Z</time></trkpt><trkpt lat="43.1072011" lon="6.8050969"><ele>0.0</ele><time>2026-04-30T22:17:36.058Z</time></trkpt><trkpt lat="43.1072439" lon="6.805192"><ele>0.0</ele><time>2026-04-30T22:17:37.058Z</time></trkpt><trkpt lat="43.1072901" lon="6.8052805"><ele>0.0</ele><time>2026-04-30T22:17:38.057Z</time></trkpt><trkpt lat="43.1073383" lon="6.805376"><ele>0.0</ele><time>2026-04-30T22:17:39.057Z</time></trkpt><trkpt lat="43.1073854" lon="6.8054699"><ele>0.0</ele><time>2026-04-30T22:17:40.058Z</time></trkpt><trkpt lat="43.1074263" lon="6.8055733"><ele>0.0</ele><time>2026-04-30T22:17:41.058Z</time></trkpt><trkpt lat="43.1074722" lon="6.8056749"><ele>0.0</ele><time>2026-04-30T22:17:42.057Z</time></trkpt><trkpt lat="43.1075186" lon="6.8057712"><ele>0.0</ele><time>2026-04-30T22:17:43.057Z</time></trkpt><trkpt lat="43.1076171" lon="6.8059506"><ele>0.0</ele><time>2026-04-30T22:17:45.057Z</time></trkpt><trkpt lat="43.1076623" lon="6.8060417"><ele>0.0</ele><time>2026-04-30T22:17:46.057Z</time></trkpt><trkpt lat="43.1077144" lon="6.8061333"><ele>0.0</ele><time>2026-04-30T22:17:47.058Z</time></trkpt><trkpt lat="43.1077639" lon="6.8062219"><ele>0.0</ele><time>2026-04-30T22:17:48.058Z</time></trkpt><trkpt lat="43.1078589" lon="6.8064029"><ele>0.0</ele><time>2026-04-30T22:17:50.057Z</time></trkpt><trkpt lat="43.1079056" lon="6.8064928"><ele>0.0</ele><time>2026-04-30T22:17:51.058Z</time></trkpt><trkpt lat="43.1079566" lon="6.8065845"><ele>0.0</ele><time>2026-04-30T22:17:52.058Z</time></trkpt><trkpt lat="43.1080067" lon="6.8066765"><ele>0.0</ele><time>2026-04-30T22:17:53.058Z</time></trkpt><trkpt lat="43.108055" lon="6.8067738"><ele>0.0</ele><time>2026-04-30T22:17:54.058Z</time></trkpt><trkpt lat="43.1081075" lon="6.8068653"><ele>0.0</ele><time>2026-04-30T22:17:55.057Z</time></trkpt><trkpt lat="43.1081612" lon="6.8069579"><ele>0.0</ele><time>2026-04-30T22:17:56.058Z</time></trkpt><trkpt lat="43.1082104" lon="6.8070554"><ele>0.0</ele><time>2026-04-30T22:17:57.057Z</time></trkpt><trkpt lat="43.1082586" lon="6.8071527"><ele>0.0</ele><time>2026-04-30T22:17:58.058Z</time></trkpt><trkpt lat="43.1083028" lon="6.8072519"><ele>0.0</ele><time>2026-04-30T22:17:59.057Z</time></trkpt><trkpt lat="43.1083478" lon="6.8073498"><ele>0.0</ele><time>2026-04-30T22:18:00.057Z</time></trkpt><trkpt lat="43.108394" lon="6.8074434"><ele>0.0</ele><time>2026-04-30T22:18:01.057Z</time></trkpt><trkpt lat="43.1084405" lon="6.8075343"><ele>0.0</ele><time>2026-04-30T22:18:02.057Z</time></trkpt><trkpt lat="43.1084855" lon="6.8076296"><ele>0.0</ele><time>2026-04-30T22:18:03.057Z</time></trkpt><trkpt lat="43.1085801" lon="6.8078212"><ele>0.0</ele><time>2026-04-30T22:18:05.057Z</time></trkpt><trkpt lat="43.108626" lon="6.8079183"><ele>0.0</ele><time>2026-04-30T22:18:06.058Z</time></trkpt><trkpt lat="43.1086746" lon="6.8080095"><ele>0.0</ele><time>2026-04-30T22:18:07.057Z</time></trkpt><trkpt lat="43.108726" lon="6.8081032"><ele>0.0</ele><time>2026-04-30T22:18:08.058Z</time></trkpt><trkpt lat="43.1087755" lon="6.8081979"><ele>0.0</ele><time>2026-04-30T22:18:09.058Z</time></trkpt><trkpt lat="43.1088271" lon="6.8082874"><ele>0.0</ele><time>2026-04-30T22:18:10.057Z</time></trkpt><trkpt lat="43.1088821" lon="6.8083826"><ele>0.0</ele><time>2026-04-30T22:18:11.057Z</time></trkpt><trkpt lat="43.1089362" lon="6.8084762"><ele>0.0</ele><time>2026-04-30T22:18:12.057Z</time></trkpt><trkpt lat="43.1089899" lon="6.808574"><ele>0.0</ele><time>2026-04-30T22:18:13.057Z</time></trkpt><trkpt lat="43.109042" lon="6.8086665"><ele>0.0</ele><time>2026-04-30T22:18:14.057Z</time></trkpt><trkpt lat="43.109095" lon="6.8087509"><ele>0.0</ele><time>2026-04-30T22:18:15.057Z</time></trkpt><trkpt lat="43.1091498" lon="6.8088388"><ele>0.0</ele><time>2026-04-30T22:18:16.057Z</time></trkpt><trkpt lat="43.1092078" lon="6.8089285"><ele>0.0</ele><time>2026-04-30T22:18:17.057Z</time></trkpt><trkpt lat="43.1092564" lon="6.809022"><ele>0.0</ele><time>2026-04-30T22:18:18.058Z</time></trkpt><trkpt lat="43.1093024" lon="6.809116"><ele>0.0</ele><time>2026-04-30T22:18:19.057Z</time></trkpt><trkpt lat="43.109349" lon="6.809211"><ele>0.0</ele><time>2026-04-30T22:18:20.058Z</time></trkpt><trkpt lat="43.1094041" lon="6.8093002"><ele>0.0</ele><time>2026-04-30T22:18:21.057Z</time></trkpt><trkpt lat="43.1095051" lon="6.8094857"><ele>0.0</ele><time>2026-04-30T22:18:23.058Z</time></trkpt><trkpt lat="43.109553" lon="6.8095765"><ele>0.0</ele><time>2026-04-30T22:18:24.057Z</time></trkpt><trkpt lat="43.1096476" lon="6.8097645"><ele>0.0</ele><time>2026-04-30T22:18:26.058Z</time></trkpt><trkpt lat="43.1096971" lon="6.8098565"><ele>0.0</ele><time>2026-04-30T22:18:27.057Z</time></trkpt><trkpt lat="43.1097425" lon="6.8099501"><ele>0.0</ele><time>2026-04-30T22:18:28.058Z</time></trkpt><trkpt lat="43.1097932" lon="6.8100401"><ele>0.0</ele><time>2026-04-30T22:18:29.057Z</time></trkpt><trkpt lat="43.1098421" lon="6.8101329"><ele>0.0</ele><time>2026-04-30T22:18:30.058Z</time></trkpt><trkpt lat="43.109893" lon="6.8102266"><ele>0.0</ele><time>2026-04-30T22:18:31.057Z</time></trkpt><trkpt lat="43.109943" lon="6.8103173"><ele>0.0</ele><time>2026-04-30T22:18:32.057Z</time></trkpt><trkpt lat="43.1099916" lon="6.8104069"><ele>0.0</ele><time>2026-04-30T22:18:33.058Z</time></trkpt><trkpt lat="43.1100377" lon="6.8105011"><ele>0.0</ele><time>2026-04-30T22:18:34.058Z</time></trkpt><trkpt lat="43.1100824" lon="6.8105973"><ele>0.0</ele><time>2026-04-30T22:18:35.058Z</time></trkpt><trkpt lat="43.1101259" lon="6.810694"><ele>0.0</ele><time>2026-04-30T22:18:36.058Z</time></trkpt><trkpt lat="43.1101752" lon="6.8107912"><ele>0.0</ele><time>2026-04-30T22:18:37.058Z</time></trkpt><trkpt lat="43.1102207" lon="6.8108877"><ele>0.0</ele><time>2026-04-30T22:18:38.057Z</time></trkpt><trkpt lat="43.1102669" lon="6.8109833"><ele>0.0</ele><time>2026-04-30T22:18:39.057Z</time></trkpt><trkpt lat="43.1103165" lon="6.811075"><ele>0.0</ele><time>2026-04-30T22:18:40.058Z</time></trkpt><trkpt lat="43.1103597" lon="6.8111693"><ele>0.0</ele><time>2026-04-30T22:18:41.058Z</time></trkpt><trkpt lat="43.1104055" lon="6.8112601"><ele>0.0</ele><time>2026-04-30T22:18:42.057Z</time></trkpt><trkpt lat="43.1104552" lon="6.8113513"><ele>0.0</ele><time>2026-04-30T22:18:43.057Z</time></trkpt><trkpt lat="43.1105036" lon="6.8114432"><ele>0.0</ele><time>2026-04-30T22:18:44.057Z</time></trkpt><trkpt lat="43.1105575" lon="6.8115337"><ele>0.0</ele><time>2026-04-30T22:18:45.057Z</time></trkpt><trkpt lat="43.1106668" lon="6.8117058"><ele>0.0</ele><time>2026-04-30T22:18:47.058Z</time></trkpt><trkpt lat="43.1107225" lon="6.8117923"><ele>0.0</ele><time>2026-04-30T22:18:48.058Z</time></trkpt><trkpt lat="43.1107778" lon="6.8118788"><ele>0.0</ele><time>2026-04-30T22:18:49.058Z</time></trkpt><trkpt lat="43.1108304" lon="6.8119684"><ele>0.0</ele><time>2026-04-30T22:18:50.057Z</time></trkpt><trkpt lat="43.1108803" lon="6.8120584"><ele>0.0</ele><time>2026-04-30T22:18:51.057Z</time></trkpt><trkpt lat="43.1109317" lon="6.8121483"><ele>0.0</ele><time>2026-04-30T22:18:52.057Z</time></trkpt><trkpt lat="43.1109768" lon="6.8122393"><ele>0.0</ele><time>2026-04-30T22:18:53.058Z</time></trkpt><trkpt lat="43.111072" lon="6.8124275"><ele>0.0</ele><time>2026-04-30T22:18:55.058Z</time></trkpt><trkpt lat="43.1111217" lon="6.8125197"><ele>0.0</ele><time>2026-04-30T22:18:56.057Z</time></trkpt><trkpt lat="43.1111726" lon="6.8126144"><ele>0.0</ele><time>2026-04-30T22:18:57.058Z</time></trkpt><trkpt lat="43.1112247" lon="6.812708"><ele>0.0</ele><time>2026-04-30T22:18:58.058Z</time></trkpt><trkpt lat="43.1112762" lon="6.8128018"><ele>0.0</ele><time>2026-04-30T22:18:59.058Z</time></trkpt><trkpt lat="43.111328" lon="6.8128966"><ele>0.0</ele><time>2026-04-30T22:19:00.058Z</time></trkpt><trkpt lat="43.1113774" lon="6.8129925"><ele>0.0</ele><time>2026-04-30T22:19:01.057Z</time></trkpt><trkpt lat="43.111421" lon="6.8130925"><ele>0.0</ele><time>2026-04-30T22:19:02.057Z</time></trkpt><trkpt lat="43.111474" lon="6.8131851"><ele>0.0</ele><time>2026-04-30T22:19:03.058Z</time></trkpt><trkpt lat="43.1115264" lon="6.8132782"><ele>0.0</ele><time>2026-04-30T22:19:04.057Z</time></trkpt><trkpt lat="43.1115779" lon="6.8133702"><ele>0.0</ele><time>2026-04-30T22:19:05.057Z</time></trkpt><trkpt lat="43.1116309" lon="6.8134645"><ele>0.0</ele><time>2026-04-30T22:19:06.058Z</time></trkpt><trkpt lat="43.1117318" lon="6.8136546"><ele>0.0</ele><time>2026-04-30T22:19:08.057Z</time></trkpt><trkpt lat="43.1117859" lon="6.8137483"><ele>0.0</ele><time>2026-04-30T22:19:09.058Z</time></trkpt><trkpt lat="43.1118343" lon="6.8138461"><ele>0.0</ele><time>2026-04-30T22:19:10.057Z</time></trkpt><trkpt lat="43.1118835" lon="6.8139401"><ele>0.0</ele><time>2026-04-30T22:19:11.058Z</time></trkpt><trkpt lat="43.1119303" lon="6.8140321"><ele>0.0</ele><time>2026-04-30T22:19:12.057Z</time></trkpt><trkpt lat="43.1119784" lon="6.8141201"><ele>0.0</ele><time>2026-04-30T22:19:13.058Z</time></trkpt><trkpt lat="43.1120256" lon="6.8142112"><ele>0.0</ele><time>2026-04-30T22:19:14.057Z</time></trkpt><trkpt lat="43.1120721" lon="6.8143031"><ele>0.0</ele><time>2026-04-30T22:19:15.057Z</time></trkpt><trkpt lat="43.1121206" lon="6.814399"><ele>0.0</ele><time>2026-04-30T22:19:16.058Z</time></trkpt><trkpt lat="43.1121704" lon="6.8144961"><ele>0.0</ele><time>2026-04-30T22:19:17.058Z</time></trkpt><trkpt lat="43.1122159" lon="6.814593"><ele>0.0</ele><time>2026-04-30T22:19:18.057Z</time></trkpt><trkpt lat="43.1122634" lon="6.8146838"><ele>0.0</ele><time>2026-04-30T22:19:19.057Z</time></trkpt><trkpt lat="43.112313" lon="6.8147735"><ele>0.0</ele><time>2026-04-30T22:19:20.057Z</time></trkpt><trkpt lat="43.1123573" lon="6.8148647"><ele>0.0</ele><time>2026-04-30T22:19:21.058Z</time></trkpt><trkpt lat="43.1124037" lon="6.8149562"><ele>0.0</ele><time>2026-04-30T22:19:22.058Z</time></trkpt><trkpt lat="43.112452" lon="6.8150538"><ele>0.0</ele><time>2026-04-30T22:19:23.058Z</time></trkpt><trkpt lat="43.1124998" lon="6.8151526"><ele>0.0</ele><time>2026-04-30T22:19:24.058Z</time></trkpt><trkpt lat="43.1125437" lon="6.8152541"><ele>0.0</ele><time>2026-04-30T22:19:25.057Z</time></trkpt><trkpt lat="43.1125886" lon="6.8153582"><ele>0.0</ele><time>2026-04-30T22:19:26.057Z</time></trkpt><trkpt lat="43.1127242" lon="6.8156564"><ele>0.0</ele><time>2026-04-30T22:19:29.058Z</time></trkpt><trkpt lat="43.1127704" lon="6.8157515"><ele>0.0</ele><time>2026-04-30T22:19:30.058Z</time></trkpt><trkpt lat="43.1128157" lon="6.8158477"><ele>0.0</ele><time>2026-04-30T22:19:31.057Z</time></trkpt><trkpt lat="43.1128582" lon="6.8159447"><ele>0.0</ele><time>2026-04-30T22:19:32.057Z</time></trkpt><trkpt lat="43.1129036" lon="6.8160415"><ele>0.0</ele><time>2026-04-30T22:19:33.057Z</time></trkpt><trkpt lat="43.112949" lon="6.8161392"><ele>0.0</ele><time>2026-04-30T22:19:34.057Z</time></trkpt><trkpt lat="43.113" lon="6.8162331"><ele>0.0</ele><time>2026-04-30T22:19:35.057Z</time></trkpt><trkpt lat="43.1130431" lon="6.8163321"><ele>0.0</ele><time>2026-04-30T22:19:36.057Z</time></trkpt><trkpt lat="43.1130888" lon="6.8164268"><ele>0.0</ele><time>2026-04-30T22:19:37.058Z</time></trkpt><trkpt lat="43.1131395" lon="6.8165186"><ele>0.0</ele><time>2026-04-30T22:19:38.058Z</time></trkpt><trkpt lat="43.1131842" lon="6.8166118"><ele>0.0</ele><time>2026-04-30T22:19:39.058Z</time></trkpt><trkpt lat="43.1132331" lon="6.8167012"><ele>0.0</ele><time>2026-04-30T22:19:40.057Z</time></trkpt><trkpt lat="43.1132846" lon="6.8167878"><ele>0.0</ele><time>2026-04-30T22:19:41.058Z</time></trkpt><trkpt lat="43.1133368" lon="6.8168759"><ele>0.0</ele><time>2026-04-30T22:19:42.058Z</time></trkpt><trkpt lat="43.1133767" lon="6.8169731"><ele>0.0</ele><time>2026-04-30T22:19:43.057Z</time></trkpt><trkpt lat="43.1134177" lon="6.8170668"><ele>0.0</ele><time>2026-04-30T22:19:44.058Z</time></trkpt><trkpt lat="43.1134695" lon="6.8171575"><ele>0.0</ele><time>2026-04-30T22:19:45.057Z</time></trkpt><trkpt lat="43.113517" lon="6.8172487"><ele>0.0</ele><time>2026-04-30T22:19:46.058Z</time></trkpt><trkpt lat="43.113569" lon="6.8173404"><ele>0.0</ele><time>2026-04-30T22:19:47.058Z</time></trkpt><trkpt lat="43.113617" lon="6.817433"><ele>0.0</ele><time>2026-04-30T22:19:48.057Z</time></trkpt><trkpt lat="43.1137106" lon="6.8176249"><ele>0.0</ele><time>2026-04-30T22:19:50.057Z</time></trkpt><trkpt lat="43.1137554" lon="6.8177167"><ele>0.0</ele><time>2026-04-30T22:19:51.057Z</time></trkpt><trkpt lat="43.113807" lon="6.8178101"><ele>0.0</ele><time>2026-04-30T22:19:52.057Z</time></trkpt><trkpt lat="43.113862" lon="6.8178959"><ele>0.0</ele><time>2026-04-30T22:19:53.058Z</time></trkpt><trkpt lat="43.1139163" lon="6.8179892"><ele>0.0</ele><time>2026-04-30T22:19:54.058Z</time></trkpt><trkpt lat="43.1139649" lon="6.8180832"><ele>0.0</ele><time>2026-04-30T22:19:55.058Z</time></trkpt><trkpt lat="43.1140151" lon="6.8181774"><ele>0.0</ele><time>2026-04-30T22:19:56.057Z</time></trkpt><trkpt lat="43.1140652" lon="6.8182728"><ele>0.0</ele><time>2026-04-30T22:19:57.057Z</time></trkpt><trkpt lat="43.114115" lon="6.8183695"><ele>0.0</ele><time>2026-04-30T22:19:58.057Z</time></trkpt><trkpt lat="43.1142111" lon="6.8185706"><ele>0.0</ele><time>2026-04-30T22:20:00.057Z</time></trkpt><trkpt lat="43.1142586" lon="6.8186647"><ele>0.0</ele><time>2026-04-30T22:20:01.058Z</time></trkpt><trkpt lat="43.1143094" lon="6.8187625"><ele>0.0</ele><time>2026-04-30T22:20:02.058Z</time></trkpt><trkpt lat="43.114357" lon="6.8188612"><ele>0.0</ele><time>2026-04-30T22:20:03.058Z</time></trkpt><trkpt lat="43.1144039" lon="6.8189566"><ele>0.0</ele><time>2026-04-30T22:20:04.058Z</time></trkpt><trkpt lat="43.1144501" lon="6.8190487"><ele>0.0</ele><time>2026-04-30T22:20:05.058Z</time></trkpt><trkpt lat="43.1144951" lon="6.8191332"><ele>0.0</ele><time>2026-04-30T22:20:06.057Z</time></trkpt><trkpt lat="43.1145427" lon="6.8192216"><ele>0.0</ele><time>2026-04-30T22:20:07.058Z</time></trkpt><trkpt lat="43.1145914" lon="6.8193149"><ele>0.0</ele><time>2026-04-30T22:20:08.058Z</time></trkpt><trkpt lat="43.1146438" lon="6.8194038"><ele>0.0</ele><time>2026-04-30T22:20:09.057Z</time></trkpt><trkpt lat="43.1147514" lon="6.8195819"><ele>0.0</ele><time>2026-04-30T22:20:11.058Z</time></trkpt><trkpt lat="43.1148021" lon="6.8196745"><ele>0.0</ele><time>2026-04-30T22:20:12.057Z</time></trkpt><trkpt lat="43.1148503" lon="6.8197697"><ele>0.0</ele><time>2026-04-30T22:20:13.057Z</time></trkpt><trkpt lat="43.1148999" lon="6.8198645"><ele>0.0</ele><time>2026-04-30T22:20:14.057Z</time></trkpt><trkpt lat="43.1149488" lon="6.8199607"><ele>0.0</ele><time>2026-04-30T22:20:15.057Z</time></trkpt><trkpt lat="43.1149941" lon="6.8200591"><ele>0.0</ele><time>2026-04-30T22:20:16.057Z</time></trkpt><trkpt lat="43.1150432" lon="6.8201548"><ele>0.0</ele><time>2026-04-30T22:20:17.057Z</time></trkpt><trkpt lat="43.1150971" lon="6.8202486"><ele>0.0</ele><time>2026-04-30T22:20:18.057Z</time></trkpt><trkpt lat="43.1151422" lon="6.820346"><ele>0.0</ele><time>2026-04-30T22:20:19.057Z</time></trkpt><trkpt lat="43.115187" lon="6.8204443"><ele>0.0</ele><time>2026-04-30T22:20:20.058Z</time></trkpt><trkpt lat="43.1152289" lon="6.8205428"><ele>0.0</ele><time>2026-04-30T22:20:21.058Z</time></trkpt><trkpt lat="43.1152737" lon="6.8206413"><ele>0.0</ele><time>2026-04-30T22:20:22.058Z</time></trkpt><trkpt lat="43.1153214" lon="6.8207355"><ele>0.0</ele><time>2026-04-30T22:20:23.057Z</time></trkpt><trkpt lat="43.11536" lon="6.82083"><ele>0.0</ele><time>2026-04-30T22:20:24.057Z</time></trkpt><trkpt lat="43.115402" lon="6.8209221"><ele>0.0</ele><time>2026-04-30T22:20:25.058Z</time></trkpt><trkpt lat="43.1154485" lon="6.8210123"><ele>0.0</ele><time>2026-04-30T22:20:26.057Z</time></trkpt><trkpt lat="43.1154954" lon="6.8211064"><ele>0.0</ele><time>2026-04-30T22:20:27.057Z</time></trkpt><trkpt lat="43.1155437" lon="6.8211997"><ele>0.0</ele><time>2026-04-30T22:20:28.058Z</time></trkpt><trkpt lat="43.1155961" lon="6.8212931"><ele>0.0</ele><time>2026-04-30T22:20:29.057Z</time></trkpt><trkpt lat="43.1156494" lon="6.8213881"><ele>0.0</ele><time>2026-04-30T22:20:30.057Z</time></trkpt><trkpt lat="43.1157011" lon="6.8214819"><ele>0.0</ele><time>2026-04-30T22:20:31.057Z</time></trkpt><trkpt lat="43.1158468" lon="6.8217532"><ele>0.0</ele><time>2026-04-30T22:20:34.057Z</time></trkpt><trkpt lat="43.1158972" lon="6.8218465"><ele>0.0</ele><time>2026-04-30T22:20:35.057Z</time></trkpt><trkpt lat="43.1159525" lon="6.8219358"><ele>0.0</ele><time>2026-04-30T22:20:36.058Z</time></trkpt><trkpt lat="43.116" lon="6.822034"><ele>0.0</ele><time>2026-04-30T22:20:37.058Z</time></trkpt><trkpt lat="43.1160477" lon="6.8221301"><ele>0.0</ele><time>2026-04-30T22:20:38.058Z</time></trkpt><trkpt lat="43.1160981" lon="6.8222206"><ele>0.0</ele><time>2026-04-30T22:20:39.057Z</time></trkpt><trkpt lat="43.1161497" lon="6.8223106"><ele>0.0</ele><time>2026-04-30T22:20:40.058Z</time></trkpt><trkpt lat="43.1161972" lon="6.8223989"><ele>0.0</ele><time>2026-04-30T22:20:41.058Z</time></trkpt><trkpt lat="43.1162464" lon="6.8224874"><ele>0.0</ele><time>2026-04-30T22:20:42.058Z</time></trkpt><trkpt lat="43.116295" lon="6.8225742"><ele>0.0</ele><time>2026-04-30T22:20:43.057Z</time></trkpt><trkpt lat="43.1163474" lon="6.8226643"><ele>0.0</ele><time>2026-04-30T22:20:44.057Z</time></trkpt><trkpt lat="43.1164013" lon="6.8227551"><ele>0.0</ele><time>2026-04-30T22:20:45.057Z</time></trkpt><trkpt lat="43.116453" lon="6.8228465"><ele>0.0</ele><time>2026-04-30T22:20:46.058Z</time></trkpt><trkpt lat="43.1164991" lon="6.8229382"><ele>0.0</ele><time>2026-04-30T22:20:47.057Z</time></trkpt><trkpt lat="43.1165452" lon="6.8230272"><ele>0.0</ele><time>2026-04-30T22:20:48.057Z</time></trkpt><trkpt lat="43.1165949" lon="6.8231221"><ele>0.0</ele><time>2026-04-30T22:20:49.058Z</time></trkpt><trkpt lat="43.1166412" lon="6.8232173"><ele>0.0</ele><time>2026-04-30T22:20:50.058Z</time></trkpt><trkpt lat="43.116683" lon="6.8233156"><ele>0.0</ele><time>2026-04-30T22:20:51.057Z</time></trkpt><trkpt lat="43.1167283" lon="6.8234143"><ele>0.0</ele><time>2026-04-30T22:20:52.057Z</time></trkpt><trkpt lat="43.116776" lon="6.82351"><ele>0.0</ele><time>2026-04-30T22:20:53.057Z</time></trkpt><trkpt lat="43.1168723" lon="6.8237012"><ele>0.0</ele><time>2026-04-30T22:20:55.057Z</time></trkpt><trkpt lat="43.1169201" lon="6.8237951"><ele>0.0</ele><time>2026-04-30T22:20:56.057Z</time></trkpt><trkpt lat="43.1169741" lon="6.8238886"><ele>0.0</ele><time>2026-04-30T22:20:57.057Z</time></trkpt><trkpt lat="43.1170308" lon="6.823979"><ele>0.0</ele><time>2026-04-30T22:20:58.058Z</time></trkpt><trkpt lat="43.1170831" lon="6.8240684"><ele>0.0</ele><time>2026-04-30T22:20:59.057Z</time></trkpt><trkpt lat="43.1171322" lon="6.8241598"><ele>0.0</ele><time>2026-04-30T22:21:00.057Z</time></trkpt><trkpt lat="43.1171818" lon="6.8242521"><ele>0.0</ele><time>2026-04-30T22:21:01.058Z</time></trkpt><trkpt lat="43.1172359" lon="6.824339"><ele>0.0</ele><time>2026-04-30T22:21:02.057Z</time></trkpt><trkpt lat="43.1172896" lon="6.8244295"><ele>0.0</ele><time>2026-04-30T22:21:03.057Z</time></trkpt><trkpt lat="43.1173883" lon="6.8246221"><ele>0.0</ele><time>2026-04-30T22:21:05.057Z</time></trkpt><trkpt lat="43.1174322" lon="6.8247209"><ele>0.0</ele><time>2026-04-30T22:21:06.057Z</time></trkpt><trkpt lat="43.1174772" lon="6.8248191"><ele>0.0</ele><time>2026-04-30T22:21:07.057Z</time></trkpt><trkpt lat="43.1175265" lon="6.8249152"><ele>0.0</ele><time>2026-04-30T22:21:08.058Z</time></trkpt><trkpt lat="43.1175756" lon="6.825006"><ele>0.0</ele><time>2026-04-30T22:21:09.057Z</time></trkpt><trkpt lat="43.1176224" lon="6.8250982"><ele>0.0</ele><time>2026-04-30T22:21:10.057Z</time></trkpt><trkpt lat="43.1176704" lon="6.8251914"><ele>0.0</ele><time>2026-04-30T22:21:11.058Z</time></trkpt><trkpt lat="43.1177145" lon="6.8252876"><ele>0.0</ele><time>2026-04-30T22:21:12.057Z</time></trkpt><trkpt lat="43.1177633" lon="6.8253803"><ele>0.0</ele><time>2026-04-30T22:21:13.057Z</time></trkpt><trkpt lat="43.1178118" lon="6.8254715"><ele>0.0</ele><time>2026-04-30T22:21:14.057Z</time></trkpt><trkpt lat="43.1179205" lon="6.8256569"><ele>0.0</ele><time>2026-04-30T22:21:16.058Z</time></trkpt><trkpt lat="43.1179702" lon="6.8257526"><ele>0.0</ele><time>2026-04-30T22:21:17.057Z</time></trkpt><trkpt lat="43.1180171" lon="6.8258474"><ele>0.0</ele><time>2026-04-30T22:21:18.057Z</time></trkpt><trkpt lat="43.1180651" lon="6.8259412"><ele>0.0</ele><time>2026-04-30T22:21:19.058Z</time></trkpt><trkpt lat="43.1181131" lon="6.8260352"><ele>0.0</ele><time>2026-04-30T22:21:20.057Z</time></trkpt><trkpt lat="43.1181617" lon="6.8261268"><ele>0.0</ele><time>2026-04-30T22:21:21.058Z</time></trkpt><trkpt lat="43.1182062" lon="6.8262213"><ele>0.0</ele><time>2026-04-30T22:21:22.057Z</time></trkpt><trkpt lat="43.1182552" lon="6.8263131"><ele>0.0</ele><time>2026-04-30T22:21:23.058Z</time></trkpt><trkpt lat="43.1183034" lon="6.8264064"><ele>0.0</ele><time>2026-04-30T22:21:24.057Z</time></trkpt><trkpt lat="43.1183449" lon="6.8265055"><ele>0.0</ele><time>2026-04-30T22:21:25.057Z</time></trkpt><trkpt lat="43.1183891" lon="6.8266028"><ele>0.0</ele><time>2026-04-30T22:21:26.058Z</time></trkpt><trkpt lat="43.1184329" lon="6.8266965"><ele>0.0</ele><time>2026-04-30T22:21:27.057Z</time></trkpt><trkpt lat="43.1184773" lon="6.8267913"><ele>0.0</ele><time>2026-04-30T22:21:28.058Z</time></trkpt><trkpt lat="43.1185277" lon="6.8268863"><ele>0.0</ele><time>2026-04-30T22:21:29.057Z</time></trkpt><trkpt lat="43.118581" lon="6.8269813"><ele>0.0</ele><time>2026-04-30T22:21:30.057Z</time></trkpt><trkpt lat="43.1186373" lon="6.8270749"><ele>0.0</ele><time>2026-04-30T22:21:31.057Z</time></trkpt><trkpt lat="43.1186922" lon="6.8271653"><ele>0.0</ele><time>2026-04-30T22:21:32.058Z</time></trkpt><trkpt lat="43.1187459" lon="6.8272527"><ele>0.0</ele><time>2026-04-30T22:21:33.058Z</time></trkpt><trkpt lat="43.1188036" lon="6.8273377"><ele>0.0</ele><time>2026-04-30T22:21:34.057Z</time></trkpt><trkpt lat="43.118858" lon="6.8274269"><ele>0.0</ele><time>2026-04-30T22:21:35.058Z</time></trkpt><trkpt lat="43.118907" lon="6.8275225"><ele>0.0</ele><time>2026-04-30T22:21:36.057Z</time></trkpt><trkpt lat="43.1190613" lon="6.8278007"><ele>0.0</ele><time>2026-04-30T22:21:39.057Z</time></trkpt><trkpt lat="43.1191061" lon="6.8278975"><ele>0.0</ele><time>2026-04-30T22:21:40.057Z</time></trkpt><trkpt lat="43.1191578" lon="6.8279946"><ele>0.0</ele><time>2026-04-30T22:21:41.058Z</time></trkpt><trkpt lat="43.1192088" lon="6.8280913"><ele>0.0</ele><time>2026-04-30T22:21:42.057Z</time></trkpt><trkpt lat="43.1192558" lon="6.8281864"><ele>0.0</ele><time>2026-04-30T22:21:43.057Z</time></trkpt><trkpt lat="43.1193018" lon="6.8282844"><ele>0.0</ele><time>2026-04-30T22:21:44.057Z</time></trkpt><trkpt lat="43.1193487" lon="6.828383"><ele>0.0</ele><time>2026-04-30T22:21:45.058Z</time></trkpt><trkpt lat="43.1193968" lon="6.8284755"><ele>0.0</ele><time>2026-04-30T22:21:46.057Z</time></trkpt><trkpt lat="43.1194421" lon="6.8285683"><ele>0.0</ele><time>2026-04-30T22:21:47.057Z</time></trkpt><trkpt lat="43.1194882" lon="6.8286617"><ele>0.0</ele><time>2026-04-30T22:21:48.058Z</time></trkpt><trkpt lat="43.1195364" lon="6.8287509"><ele>0.0</ele><time>2026-04-30T22:21:49.058Z</time></trkpt><trkpt lat="43.1195877" lon="6.8288403"><ele>0.0</ele><time>2026-04-30T22:21:50.058Z</time></trkpt><trkpt lat="43.1196372" lon="6.8289289"><ele>0.0</ele><time>2026-04-30T22:21:51.057Z</time></trkpt><trkpt lat="43.1196839" lon="6.8290213"><ele>0.0</ele><time>2026-04-30T22:21:52.057Z</time></trkpt><trkpt lat="43.1197302" lon="6.8291163"><ele>0.0</ele><time>2026-04-30T22:21:53.057Z</time></trkpt><trkpt lat="43.1197743" lon="6.8292115"><ele>0.0</ele><time>2026-04-30T22:21:54.057Z</time></trkpt><trkpt lat="43.1198173" lon="6.8293092"><ele>0.0</ele><time>2026-04-30T22:21:55.057Z</time></trkpt><trkpt lat="43.1198648" lon="6.8294038"><ele>0.0</ele><time>2026-04-30T22:21:56.058Z</time></trkpt><trkpt lat="43.1199133" lon="6.829497"><ele>0.0</ele><time>2026-04-30T22:21:57.057Z</time></trkpt><trkpt lat="43.1199603" lon="6.8295912"><ele>0.0</ele><time>2026-04-30T22:21:58.057Z</time></trkpt><trkpt lat="43.1200542" lon="6.8297801"><ele>0.0</ele><time>2026-04-30T22:22:00.057Z</time></trkpt><trkpt lat="43.1201005" lon="6.829875"><ele>0.0</ele><time>2026-04-30T22:22:01.057Z</time></trkpt><trkpt lat="43.1201515" lon="6.8299657"><ele>0.0</ele><time>2026-04-30T22:22:02.057Z</time></trkpt><trkpt lat="43.1202056" lon="6.8300571"><ele>0.0</ele><time>2026-04-30T22:22:03.058Z</time></trkpt><trkpt lat="43.1202621" lon="6.8301486"><ele>0.0</ele><time>2026-04-30T22:22:04.058Z</time></trkpt><trkpt lat="43.1203107" lon="6.830243"><ele>0.0</ele><time>2026-04-30T22:22:05.057Z</time></trkpt><trkpt lat="43.1203573" lon="6.830341"><ele>0.0</ele><time>2026-04-30T22:22:06.057Z</time></trkpt><trkpt lat="43.1204065" lon="6.8304349"><ele>0.0</ele><time>2026-04-30T22:22:07.058Z</time></trkpt><trkpt lat="43.1204578" lon="6.830528"><ele>0.0</ele><time>2026-04-30T22:22:08.057Z</time></trkpt><trkpt lat="43.1205072" lon="6.8306214"><ele>0.0</ele><time>2026-04-30T22:22:09.057Z</time></trkpt><trkpt lat="43.1206004" lon="6.8308144"><ele>0.0</ele><time>2026-04-30T22:22:11.058Z</time></trkpt><trkpt lat="43.1206459" lon="6.8309081"><ele>0.0</ele><time>2026-04-30T22:22:12.058Z</time></trkpt><trkpt lat="43.1206951" lon="6.8310017"><ele>0.0</ele><time>2026-04-30T22:22:13.057Z</time></trkpt><trkpt lat="43.120744" lon="6.831095"><ele>0.0</ele><time>2026-04-30T22:22:14.058Z</time></trkpt><trkpt lat="43.1207867" lon="6.8311927"><ele>0.0</ele><time>2026-04-30T22:22:15.058Z</time></trkpt><trkpt lat="43.1208332" lon="6.8312898"><ele>0.0</ele><time>2026-04-30T22:22:16.057Z</time></trkpt><trkpt lat="43.120883" lon="6.8313849"><ele>0.0</ele><time>2026-04-30T22:22:17.057Z</time></trkpt><trkpt lat="43.1209305" lon="6.8314815"><ele>0.0</ele><time>2026-04-30T22:22:18.057Z</time></trkpt><trkpt lat="43.1210253" lon="6.8316761"><ele>0.0</ele><time>2026-04-30T22:22:20.057Z</time></trkpt><trkpt lat="43.1210775" lon="6.8317699"><ele>0.0</ele><time>2026-04-30T22:22:21.058Z</time></trkpt><trkpt lat="43.1211271" lon="6.8318668"><ele>0.0</ele><time>2026-04-30T22:22:22.057Z</time></trkpt><trkpt lat="43.1211741" lon="6.8319614"><ele>0.0</ele><time>2026-04-30T22:22:23.057Z</time></trkpt><trkpt lat="43.1212205" lon="6.8320533"><ele>0.0</ele><time>2026-04-30T22:22:24.057Z</time></trkpt><trkpt lat="43.1212671" lon="6.8321494"><ele>0.0</ele><time>2026-04-30T22:22:25.058Z</time></trkpt><trkpt lat="43.1213165" lon="6.8322448"><ele>0.0</ele><time>2026-04-30T22:22:26.058Z</time></trkpt><trkpt lat="43.1213725" lon="6.8323409"><ele>0.0</ele><time>2026-04-30T22:22:27.057Z</time></trkpt><trkpt lat="43.1214275" lon="6.8324375"><ele>0.0</ele><time>2026-04-30T22:22:28.057Z</time></trkpt><trkpt lat="43.1214768" lon="6.8325329"><ele>0.0</ele><time>2026-04-30T22:22:29.058Z</time></trkpt><trkpt lat="43.1215199" lon="6.8326281"><ele>0.0</ele><time>2026-04-30T22:22:30.057Z</time></trkpt><trkpt lat="43.1215669" lon="6.8327203"><ele>0.0</ele><time>2026-04-30T22:22:31.058Z</time></trkpt><trkpt lat="43.1216153" lon="6.8328075"><ele>0.0</ele><time>2026-04-30T22:22:32.058Z</time></trkpt><trkpt lat="43.1216619" lon="6.8328969"><ele>0.0</ele><time>2026-04-30T22:22:33.057Z</time></trkpt><trkpt lat="43.1217071" lon="6.83299"><ele>0.0</ele><time>2026-04-30T22:22:34.057Z</time></trkpt><trkpt lat="43.1217508" lon="6.8330839"><ele>0.0</ele><time>2026-04-30T22:22:35.057Z</time></trkpt><trkpt lat="43.1218051" lon="6.833177"><ele>0.0</ele><time>2026-04-30T22:22:36.057Z</time></trkpt><trkpt lat="43.1218592" lon="6.8332715"><ele>0.0</ele><time>2026-04-30T22:22:37.058Z</time></trkpt><trkpt lat="43.1219099" lon="6.8333695"><ele>0.0</ele><time>2026-04-30T22:22:38.058Z</time></trkpt><trkpt lat="43.1219602" lon="6.8334691"><ele>0.0</ele><time>2026-04-30T22:22:39.058Z</time></trkpt><trkpt lat="43.1220598" lon="6.8336549"><ele>0.0</ele><time>2026-04-30T22:22:41.057Z</time></trkpt><trkpt lat="43.1221648" lon="6.8338335"><ele>0.0</ele><time>2026-04-30T22:22:43.058Z</time></trkpt><trkpt lat="43.122214" lon="6.8339252"><ele>0.0</ele><time>2026-04-30T22:22:44.057Z</time></trkpt><trkpt lat="43.1222605" lon="6.8340155"><ele>0.0</ele><time>2026-04-30T22:22:45.057Z</time></trkpt><trkpt lat="43.1223069" lon="6.834107"><ele>0.0</ele><time>2026-04-30T22:22:46.058Z</time></trkpt><trkpt lat="43.1223577" lon="6.8342061"><ele>0.0</ele><time>2026-04-30T22:22:47.058Z</time></trkpt><trkpt lat="43.1224122" lon="6.8343002"><ele>0.0</ele><time>2026-04-30T22:22:48.057Z</time></trkpt><trkpt lat="43.1224633" lon="6.8343948"><ele>0.0</ele><time>2026-04-30T22:22:49.057Z</time></trkpt><trkpt lat="43.1225122" lon="6.8344883"><ele>0.0</ele><time>2026-04-30T22:22:50.058Z</time></trkpt><trkpt lat="43.1225581" lon="6.8345846"><ele>0.0</ele><time>2026-04-30T22:22:51.058Z</time></trkpt><trkpt lat="43.1226058" lon="6.8346794"><ele>0.0</ele><time>2026-04-30T22:22:52.057Z</time></trkpt><trkpt lat="43.1226535" lon="6.8347763"><ele>0.0</ele><time>2026-04-30T22:22:53.058Z</time></trkpt><trkpt lat="43.1227007" lon="6.8348741"><ele>0.0</ele><time>2026-04-30T22:22:54.057Z</time></trkpt><trkpt lat="43.1227456" lon="6.8349726"><ele>0.0</ele><time>2026-04-30T22:22:55.058Z</time></trkpt><trkpt lat="43.1227906" lon="6.835071"><ele>0.0</ele><time>2026-04-30T22:22:56.058Z</time></trkpt><trkpt lat="43.1228381" lon="6.835165"><ele>0.0</ele><time>2026-04-30T22:22:57.057Z</time></trkpt><trkpt lat="43.1228869" lon="6.8352599"><ele>0.0</ele><time>2026-04-30T22:22:58.057Z</time></trkpt><trkpt lat="43.1229327" lon="6.8353563"><ele>0.0</ele><time>2026-04-30T22:22:59.057Z</time></trkpt><trkpt lat="43.1229775" lon="6.8354532"><ele>0.0</ele><time>2026-04-30T22:23:00.057Z</time></trkpt><trkpt lat="43.1230777" lon="6.8356369"><ele>0.0</ele><time>2026-04-30T22:23:02.057Z</time></trkpt><trkpt lat="43.1231309" lon="6.8357232"><ele>0.0</ele><time>2026-04-30T22:23:03.057Z</time></trkpt><trkpt lat="43.1231785" lon="6.8358151"><ele>0.0</ele><time>2026-04-30T22:23:04.058Z</time></trkpt><trkpt lat="43.1232293" lon="6.83591"><ele>0.0</ele><time>2026-04-30T22:23:05.057Z</time></trkpt><trkpt lat="43.1232783" lon="6.8360023"><ele>0.0</ele><time>2026-04-30T22:23:06.057Z</time></trkpt><trkpt lat="43.1233256" lon="6.8360949"><ele>0.0</ele><time>2026-04-30T22:23:07.057Z</time></trkpt><trkpt lat="43.1233681" lon="6.8361895"><ele>0.0</ele><time>2026-04-30T22:23:08.057Z</time></trkpt><trkpt lat="43.1234156" lon="6.8362835"><ele>0.0</ele><time>2026-04-30T22:23:09.057Z</time></trkpt><trkpt lat="43.1234662" lon="6.8363797"><ele>0.0</ele><time>2026-04-30T22:23:10.058Z</time></trkpt><trkpt lat="43.1235136" lon="6.8364751"><ele>0.0</ele><time>2026-04-30T22:23:11.058Z</time></trkpt><trkpt lat="43.1235604" lon="6.8365682"><ele>0.0</ele><time>2026-04-30T22:23:12.058Z</time></trkpt><trkpt lat="43.1236081" lon="6.8366632"><ele>0.0</ele><time>2026-04-30T22:23:13.057Z</time></trkpt><trkpt lat="43.1236483" lon="6.8367608"><ele>0.0</ele><time>2026-04-30T22:23:14.057Z</time></trkpt><trkpt lat="43.1237429" lon="6.8369459"><ele>0.0</ele><time>2026-04-30T22:23:16.057Z</time></trkpt><trkpt lat="43.1237937" lon="6.837038"><ele>0.0</ele><time>2026-04-30T22:23:17.058Z</time></trkpt><trkpt lat="43.1238434" lon="6.8371332"><ele>0.0</ele><time>2026-04-30T22:23:18.057Z</time></trkpt><trkpt lat="43.1238931" lon="6.8372298"><ele>0.0</ele><time>2026-04-30T22:23:19.058Z</time></trkpt><trkpt lat="43.1239442" lon="6.837325"><ele>0.0</ele><time>2026-04-30T22:23:20.058Z</time></trkpt><trkpt lat="43.1239918" lon="6.8374185"><ele>0.0</ele><time>2026-04-30T22:23:21.058Z</time></trkpt><trkpt lat="43.1240852" lon="6.8376065"><ele>0.0</ele><time>2026-04-30T22:23:23.058Z</time></trkpt><trkpt lat="43.1241371" lon="6.8377064"><ele>0.0</ele><time>2026-04-30T22:23:24.057Z</time></trkpt><trkpt lat="43.1241862" lon="6.8378034"><ele>0.0</ele><time>2026-04-30T22:23:25.057Z</time></trkpt><trkpt lat="43.124236" lon="6.8378938"><ele>0.0</ele><time>2026-04-30T22:23:26.057Z</time></trkpt><trkpt lat="43.1242777" lon="6.8379866"><ele>0.0</ele><time>2026-04-30T22:23:27.057Z</time></trkpt><trkpt lat="43.1243232" lon="6.8380801"><ele>0.0</ele><time>2026-04-30T22:23:28.058Z</time></trkpt><trkpt lat="43.124377" lon="6.8381749"><ele>0.0</ele><time>2026-04-30T22:23:29.058Z</time></trkpt><trkpt lat="43.1244393" lon="6.8382584"><ele>0.0</ele><time>2026-04-30T22:23:30.057Z</time></trkpt><trkpt lat="43.1244885" lon="6.83835"><ele>0.0</ele><time>2026-04-30T22:23:31.058Z</time></trkpt><trkpt lat="43.1245413" lon="6.8384436"><ele>0.0</ele><time>2026-04-30T22:23:32.058Z</time></trkpt><trkpt lat="43.124589" lon="6.838541"><ele>0.0</ele><time>2026-04-30T22:23:33.058Z</time></trkpt><trkpt lat="43.1246326" lon="6.8386379"><ele>0.0</ele><time>2026-04-30T22:23:34.057Z</time></trkpt><trkpt lat="43.1246795" lon="6.8387334"><ele>0.0</ele><time>2026-04-30T22:23:35.058Z</time></trkpt><trkpt lat="43.1247272" lon="6.8388294"><ele>0.0</ele><time>2026-04-30T22:23:36.057Z</time></trkpt><trkpt lat="43.124778" lon="6.8389237"><ele>0.0</ele><time>2026-04-30T22:23:37.057Z</time></trkpt><trkpt lat="43.1248329" lon="6.8390152"><ele>0.0</ele><time>2026-04-30T22:23:38.057Z</time></trkpt><trkpt lat="43.1248881" lon="6.8391067"><ele>0.0</ele><time>2026-04-30T22:23:39.057Z</time></trkpt><trkpt lat="43.1249395" lon="6.8391983"><ele>0.0</ele><time>2026-04-30T22:23:40.057Z</time></trkpt><trkpt lat="43.1249901" lon="6.8392906"><ele>0.0</ele><time>2026-04-30T22:23:41.058Z</time></trkpt><trkpt lat="43.1250382" lon="6.8393814"><ele>0.0</ele><time>2026-04-30T22:23:42.057Z</time></trkpt><trkpt lat="43.1251288" lon="6.8395697"><ele>0.0</ele><time>2026-04-30T22:23:44.057Z</time></trkpt><trkpt lat="43.1251687" lon="6.8396626"><ele>0.0</ele><time>2026-04-30T22:23:45.057Z</time></trkpt><trkpt lat="43.1252097" lon="6.8397577"><ele>0.0</ele><time>2026-04-30T22:23:46.057Z</time></trkpt><trkpt lat="43.1253115" lon="6.8399458"><ele>0.0</ele><time>2026-04-30T22:23:48.057Z</time></trkpt><trkpt lat="43.1253648" lon="6.84004"><ele>0.0</ele><time>2026-04-30T22:23:49.057Z</time></trkpt><trkpt lat="43.1254239" lon="6.8401319"><ele>0.0</ele><time>2026-04-30T22:23:50.057Z</time></trkpt><trkpt lat="43.1254767" lon="6.8402235"><ele>0.0</ele><time>2026-04-30T22:23:51.057Z</time></trkpt><trkpt lat="43.1255312" lon="6.8403126"><ele>0.0</ele><time>2026-04-30T22:23:52.057Z</time></trkpt><trkpt lat="43.1255865" lon="6.8404011"><ele>0.0</ele><time>2026-04-30T22:23:53.058Z</time></trkpt><trkpt lat="43.1256325" lon="6.8404951"><ele>0.0</ele><time>2026-04-30T22:23:54.058Z</time></trkpt><trkpt lat="43.1256749" lon="6.8405925"><ele>0.0</ele><time>2026-04-30T22:23:55.058Z</time></trkpt><trkpt lat="43.1257179" lon="6.8406832"><ele>0.0</ele><time>2026-04-30T22:23:56.058Z</time></trkpt><trkpt lat="43.125765" lon="6.8407736"><ele>0.0</ele><time>2026-04-30T22:23:57.058Z</time></trkpt><trkpt lat="43.1258105" lon="6.8408664"><ele>0.0</ele><time>2026-04-30T22:23:58.057Z</time></trkpt><trkpt lat="43.1258574" lon="6.8409584"><ele>0.0</ele><time>2026-04-30T22:23:59.057Z</time></trkpt><trkpt lat="43.1259096" lon="6.8410546"><ele>0.0</ele><time>2026-04-30T22:24:00.057Z</time></trkpt><trkpt lat="43.1259612" lon="6.8411486"><ele>0.0</ele><time>2026-04-30T22:24:01.058Z</time></trkpt><trkpt lat="43.1260159" lon="6.8412433"><ele>0.0</ele><time>2026-04-30T22:24:02.057Z</time></trkpt><trkpt lat="43.126065" lon="6.841337"><ele>0.0</ele><time>2026-04-30T22:24:03.058Z</time></trkpt><trkpt lat="43.1261503" lon="6.8415234"><ele>0.0</ele><time>2026-04-30T22:24:05.058Z</time></trkpt><trkpt lat="43.1261956" lon="6.8416212"><ele>0.0</ele><time>2026-04-30T22:24:06.057Z</time></trkpt><trkpt lat="43.1262403" lon="6.8417197"><ele>0.0</ele><time>2026-04-30T22:24:07.057Z</time></trkpt><trkpt lat="43.1262854" lon="6.8418179"><ele>0.0</ele><time>2026-04-30T22:24:08.057Z</time></trkpt><trkpt lat="43.1263318" lon="6.8419148"><ele>0.0</ele><time>2026-04-30T22:24:09.057Z</time></trkpt><trkpt lat="43.1263819" lon="6.842014"><ele>0.0</ele><time>2026-04-30T22:24:10.057Z</time></trkpt><trkpt lat="43.1264373" lon="6.8421101"><ele>0.0</ele><time>2026-04-30T22:24:11.058Z</time></trkpt><trkpt lat="43.1264928" lon="6.8422076"><ele>0.0</ele><time>2026-04-30T22:24:12.058Z</time></trkpt><trkpt lat="43.1265435" lon="6.8423046"><ele>0.0</ele><time>2026-04-30T22:24:13.058Z</time></trkpt><trkpt lat="43.1265922" lon="6.8424013"><ele>0.0</ele><time>2026-04-30T22:24:14.057Z</time></trkpt><trkpt lat="43.1266374" lon="6.8424994"><ele>0.0</ele><time>2026-04-30T22:24:15.058Z</time></trkpt><trkpt lat="43.126685" lon="6.8425932"><ele>0.0</ele><time>2026-04-30T22:24:16.057Z</time></trkpt><trkpt lat="43.126735" lon="6.8426877"><ele>0.0</ele><time>2026-04-30T22:24:17.057Z</time></trkpt><trkpt lat="43.1267842" lon="6.8427869"><ele>0.0</ele><time>2026-04-30T22:24:18.057Z</time></trkpt><trkpt lat="43.1268399" lon="6.8428848"><ele>0.0</ele><time>2026-04-30T22:24:19.057Z</time></trkpt><trkpt lat="43.1268879" lon="6.8429829"><ele>0.0</ele><time>2026-04-30T22:24:20.058Z</time></trkpt><trkpt lat="43.1269374" lon="6.8430752"><ele>0.0</ele><time>2026-04-30T22:24:21.057Z</time></trkpt><trkpt lat="43.1269868" lon="6.8431699"><ele>0.0</ele><time>2026-04-30T22:24:22.057Z</time></trkpt><trkpt lat="43.1270334" lon="6.8432666"><ele>0.0</ele><time>2026-04-30T22:24:23.058Z</time></trkpt><trkpt lat="43.127084" lon="6.843365"><ele>0.0</ele><time>2026-04-30T22:24:24.056Z</time></trkpt><trkpt lat="43.1271797" lon="6.8435568"><ele>0.0</ele><time>2026-04-30T22:24:26.056Z</time></trkpt><trkpt lat="43.1272311" lon="6.8436507"><ele>0.0</ele><time>2026-04-30T22:24:27.057Z</time></trkpt><trkpt lat="43.1272801" lon="6.8437449"><ele>0.0</ele><time>2026-04-30T22:24:28.057Z</time></trkpt><trkpt lat="43.1273324" lon="6.8438354"><ele>0.0</ele><time>2026-04-30T22:24:29.057Z</time></trkpt><trkpt lat="43.127382" lon="6.8439255"><ele>0.0</ele><time>2026-04-30T22:24:30.057Z</time></trkpt><trkpt lat="43.1274292" lon="6.8440168"><ele>0.0</ele><time>2026-04-30T22:24:31.056Z</time></trkpt><trkpt lat="43.1274786" lon="6.8441056"><ele>0.0</ele><time>2026-04-30T22:24:32.057Z</time></trkpt><trkpt lat="43.1275286" lon="6.8441942"><ele>0.0</ele><time>2026-04-30T22:24:33.056Z</time></trkpt><trkpt lat="43.127577" lon="6.8442884"><ele>0.0</ele><time>2026-04-30T22:24:34.057Z</time></trkpt><trkpt lat="43.1276277" lon="6.8443787"><ele>0.0</ele><time>2026-04-30T22:24:35.056Z</time></trkpt><trkpt lat="43.1276771" lon="6.8444684"><ele>0.0</ele><time>2026-04-30T22:24:36.056Z</time></trkpt><trkpt lat="43.1277261" lon="6.8445625"><ele>0.0</ele><time>2026-04-30T22:24:37.057Z</time></trkpt><trkpt lat="43.1277702" lon="6.8446578"><ele>0.0</ele><time>2026-04-30T22:24:38.057Z</time></trkpt><trkpt lat="43.1278175" lon="6.8447516"><ele>0.0</ele><time>2026-04-30T22:24:39.056Z</time></trkpt><trkpt lat="43.1278611" lon="6.8448478"><ele>0.0</ele><time>2026-04-30T22:24:40.056Z</time></trkpt><trkpt lat="43.1279041" lon="6.8449429"><ele>0.0</ele><time>2026-04-30T22:24:41.056Z</time></trkpt><trkpt lat="43.1279446" lon="6.845038"><ele>0.0</ele><time>2026-04-30T22:24:42.057Z</time></trkpt><trkpt lat="43.1279847" lon="6.8451331"><ele>0.0</ele><time>2026-04-30T22:24:43.056Z</time></trkpt><trkpt lat="43.1280306" lon="6.8452209"><ele>0.0</ele><time>2026-04-30T22:24:44.056Z</time></trkpt><trkpt lat="43.1280931" lon="6.8453033"><ele>0.0</ele><time>2026-04-30T22:24:45.056Z</time></trkpt><trkpt lat="43.1281864" lon="6.8454938"><ele>0.0</ele><time>2026-04-30T22:24:47.056Z</time></trkpt><trkpt lat="43.128233" lon="6.8455864"><ele>0.0</ele><time>2026-04-30T22:24:48.057Z</time></trkpt><trkpt lat="43.1282806" lon="6.845678"><ele>0.0</ele><time>2026-04-30T22:24:49.057Z</time></trkpt><trkpt lat="43.1283302" lon="6.8457714"><ele>0.0</ele><time>2026-04-30T22:24:50.056Z</time></trkpt><trkpt lat="43.1284317" lon="6.8459625"><ele>0.0</ele><time>2026-04-30T22:24:52.056Z</time></trkpt><trkpt lat="43.1284872" lon="6.846055"><ele>0.0</ele><time>2026-04-30T22:24:53.056Z</time></trkpt><trkpt lat="43.12854" lon="6.846151"><ele>0.0</ele><time>2026-04-30T22:24:54.056Z</time></trkpt><trkpt lat="43.1285889" lon="6.8462447"><ele>0.0</ele><time>2026-04-30T22:24:55.057Z</time></trkpt><trkpt lat="43.1286352" lon="6.8463401"><ele>0.0</ele><time>2026-04-30T22:24:56.056Z</time></trkpt><trkpt lat="43.1286749" lon="6.846437"><ele>0.0</ele><time>2026-04-30T22:24:57.056Z</time></trkpt><trkpt lat="43.1287172" lon="6.8465308"><ele>0.0</ele><time>2026-04-30T22:24:58.056Z</time></trkpt><trkpt lat="43.1287583" lon="6.8466278"><ele>0.0</ele><time>2026-04-30T22:24:59.056Z</time></trkpt><trkpt lat="43.128802" lon="6.8467233"><ele>0.0</ele><time>2026-04-30T22:25:00.056Z</time></trkpt><trkpt lat="43.1288471" lon="6.846818"><ele>0.0</ele><time>2026-04-30T22:25:01.057Z</time></trkpt><trkpt lat="43.128895" lon="6.8469132"><ele>0.0</ele><time>2026-04-30T22:25:02.056Z</time></trkpt><trkpt lat="43.128946" lon="6.8470084"><ele>0.0</ele><time>2026-04-30T22:25:03.056Z</time></trkpt><trkpt lat="43.1289982" lon="6.8471032"><ele>0.0</ele><time>2026-04-30T22:25:04.056Z</time></trkpt><trkpt lat="43.1290426" lon="6.8471999"><ele>0.0</ele><time>2026-04-30T22:25:05.056Z</time></trkpt><trkpt lat="43.1290856" lon="6.8472963"><ele>0.0</ele><time>2026-04-30T22:25:06.057Z</time></trkpt><trkpt lat="43.1291754" lon="6.8474925"><ele>0.0</ele><time>2026-04-30T22:25:08.057Z</time></trkpt><trkpt lat="43.1292249" lon="6.8475855"><ele>0.0</ele><time>2026-04-30T22:25:09.057Z</time></trkpt><trkpt lat="43.1292823" lon="6.847673"><ele>0.0</ele><time>2026-04-30T22:25:10.056Z</time></trkpt><trkpt lat="43.129332" lon="6.8477637"><ele>0.0</ele><time>2026-04-30T22:25:11.056Z</time></trkpt><trkpt lat="43.1293776" lon="6.8478552"><ele>0.0</ele><time>2026-04-30T22:25:12.057Z</time></trkpt><trkpt lat="43.1294238" lon="6.8479487"><ele>0.0</ele><time>2026-04-30T22:25:13.056Z</time></trkpt><trkpt lat="43.1294769" lon="6.8480378"><ele>0.0</ele><time>2026-04-30T22:25:14.057Z</time></trkpt><trkpt lat="43.1295308" lon="6.8481263"><ele>0.0</ele><time>2026-04-30T22:25:15.056Z</time></trkpt><trkpt lat="43.1295831" lon="6.8482172"><ele>0.0</ele><time>2026-04-30T22:25:16.056Z</time></trkpt><trkpt lat="43.1296333" lon="6.8483117"><ele>0.0</ele><time>2026-04-30T22:25:17.056Z</time></trkpt><trkpt lat="43.1296836" lon="6.8484051"><ele>0.0</ele><time>2026-04-30T22:25:18.056Z</time></trkpt><trkpt lat="43.1297334" lon="6.8484968"><ele>0.0</ele><time>2026-04-30T22:25:19.057Z</time></trkpt><trkpt lat="43.1297832" lon="6.8485947"><ele>0.0</ele><time>2026-04-30T22:25:20.057Z</time></trkpt><trkpt lat="43.1298305" lon="6.8486899"><ele>0.0</ele><time>2026-04-30T22:25:21.056Z</time></trkpt><trkpt lat="43.1298825" lon="6.8487874"><ele>0.0</ele><time>2026-04-30T22:25:22.057Z</time></trkpt><trkpt lat="43.1299912" lon="6.8489945"><ele>0.0</ele><time>2026-04-30T22:25:24.056Z</time></trkpt><trkpt lat="43.1300422" lon="6.8490824"><ele>0.0</ele><time>2026-04-30T22:25:25.056Z</time></trkpt><trkpt lat="43.1300906" lon="6.8491766"><ele>0.0</ele><time>2026-04-30T22:25:26.056Z</time></trkpt><trkpt lat="43.1301463" lon="6.8492701"><ele>0.0</ele><time>2026-04-30T22:25:27.056Z</time></trkpt><trkpt lat="43.1302535" lon="6.8494547"><ele>0.0</ele><time>2026-04-30T22:25:29.057Z</time></trkpt><trkpt lat="43.1303105" lon="6.8495456"><ele>0.0</ele><time>2026-04-30T22:25:30.057Z</time></trkpt><trkpt lat="43.1303605" lon="6.8496356"><ele>0.0</ele><time>2026-04-30T22:25:31.056Z</time></trkpt><trkpt lat="43.1304103" lon="6.8497265"><ele>0.0</ele><time>2026-04-30T22:25:32.056Z</time></trkpt><trkpt lat="43.130462" lon="6.849819"><ele>0.0</ele><time>2026-04-30T22:25:33.056Z</time></trkpt><trkpt lat="43.1305125" lon="6.8499112"><ele>0.0</ele><time>2026-04-30T22:25:34.057Z</time></trkpt><trkpt lat="43.1305636" lon="6.8500061"><ele>0.0</ele><time>2026-04-30T22:25:35.056Z</time></trkpt><trkpt lat="43.130611" lon="6.8501041"><ele>0.0</ele><time>2026-04-30T22:25:36.057Z</time></trkpt><trkpt lat="43.1306592" lon="6.8501964"><ele>0.0</ele><time>2026-04-30T22:25:37.057Z</time></trkpt><trkpt lat="43.1307055" lon="6.8502945"><ele>0.0</ele><time>2026-04-30T22:25:38.056Z</time></trkpt><trkpt lat="43.1307492" lon="6.8503928"><ele>0.0</ele><time>2026-04-30T22:25:39.056Z</time></trkpt><trkpt lat="43.1307983" lon="6.8504883"><ele>0.0</ele><time>2026-04-30T22:25:40.057Z</time></trkpt><trkpt lat="43.1308469" lon="6.8505846"><ele>0.0</ele><time>2026-04-30T22:25:41.056Z</time></trkpt><trkpt lat="43.1308936" lon="6.8506798"><ele>0.0</ele><time>2026-04-30T22:25:42.057Z</time></trkpt><trkpt lat="43.1309378" lon="6.850776"><ele>0.0</ele><time>2026-04-30T22:25:43.057Z</time></trkpt><trkpt lat="43.1309806" lon="6.8508731"><ele>0.0</ele><time>2026-04-30T22:25:44.056Z</time></trkpt><trkpt lat="43.1310241" lon="6.8509724"><ele>0.0</ele><time>2026-04-30T22:25:45.057Z</time></trkpt><trkpt lat="43.1310678" lon="6.8510727"><ele>0.0</ele><time>2026-04-30T22:25:46.057Z</time></trkpt><trkpt lat="43.1311107" lon="6.8511668"><ele>0.0</ele><time>2026-04-30T22:25:47.057Z</time></trkpt><trkpt lat="43.1311527" lon="6.8512643"><ele>0.0</ele><time>2026-04-30T22:25:48.057Z</time></trkpt><trkpt lat="43.1312442" lon="6.8514546"><ele>0.0</ele><time>2026-04-30T22:25:50.056Z</time></trkpt><trkpt lat="43.1312863" lon="6.8515525"><ele>0.0</ele><time>2026-04-30T22:25:51.057Z</time></trkpt><trkpt lat="43.1313343" lon="6.8516497"><ele>0.0</ele><time>2026-04-30T22:25:52.057Z</time></trkpt><trkpt lat="43.1313834" lon="6.8517463"><ele>0.0</ele><time>2026-04-30T22:25:53.056Z</time></trkpt><trkpt lat="43.131426" lon="6.8518444"><ele>0.0</ele><time>2026-04-30T22:25:54.057Z</time></trkpt><trkpt lat="43.1314718" lon="6.851943"><ele>0.0</ele><time>2026-04-30T22:25:55.056Z</time></trkpt><trkpt lat="43.1315636" lon="6.8521385"><ele>0.0</ele><time>2026-04-30T22:25:57.056Z</time></trkpt><trkpt lat="43.1316116" lon="6.8522336"><ele>0.0</ele><time>2026-04-30T22:25:58.057Z</time></trkpt><trkpt lat="43.1316687" lon="6.8523197"><ele>0.0</ele><time>2026-04-30T22:25:59.057Z</time></trkpt><trkpt lat="43.1317187" lon="6.8524089"><ele>0.0</ele><time>2026-04-30T22:26:00.056Z</time></trkpt><trkpt lat="43.131778" lon="6.8525005"><ele>0.0</ele><time>2026-04-30T22:26:01.056Z</time></trkpt><trkpt lat="43.131832" lon="6.8525903"><ele>0.0</ele><time>2026-04-30T22:26:02.056Z</time></trkpt><trkpt lat="43.1318873" lon="6.8526876"><ele>0.0</ele><time>2026-04-30T22:26:03.056Z</time></trkpt><trkpt lat="43.1319383" lon="6.8527815"><ele>0.0</ele><time>2026-04-30T22:26:04.057Z</time></trkpt><trkpt lat="43.1319871" lon="6.8528749"><ele>0.0</ele><time>2026-04-30T22:26:05.057Z</time></trkpt><trkpt lat="43.1320367" lon="6.8529669"><ele>0.0</ele><time>2026-04-30T22:26:06.057Z</time></trkpt><trkpt lat="43.1320824" lon="6.8530615"><ele>0.0</ele><time>2026-04-30T22:26:07.057Z</time></trkpt><trkpt lat="43.1321302" lon="6.8531568"><ele>0.0</ele><time>2026-04-30T22:26:08.056Z</time></trkpt><trkpt lat="43.1321771" lon="6.8532531"><ele>0.0</ele><time>2026-04-30T22:26:09.057Z</time></trkpt><trkpt lat="43.1322768" lon="6.8534401"><ele>0.0</ele><time>2026-04-30T22:26:11.056Z</time></trkpt><trkpt lat="43.1323252" lon="6.8535348"><ele>0.0</ele><time>2026-04-30T22:26:12.056Z</time></trkpt><trkpt lat="43.1323762" lon="6.8536257"><ele>0.0</ele><time>2026-04-30T22:26:13.056Z</time></trkpt><trkpt lat="43.1324294" lon="6.8537184"><ele>0.0</ele><time>2026-04-30T22:26:14.056Z</time></trkpt><trkpt lat="43.1324831" lon="6.8538088"><ele>0.0</ele><time>2026-04-30T22:26:15.057Z</time></trkpt><trkpt lat="43.1325347" lon="6.8539004"><ele>0.0</ele><time>2026-04-30T22:26:16.056Z</time></trkpt><trkpt lat="43.1325821" lon="6.8539907"><ele>0.0</ele><time>2026-04-30T22:26:17.057Z</time></trkpt><trkpt lat="43.1326309" lon="6.854082"><ele>0.0</ele><time>2026-04-30T22:26:18.057Z</time></trkpt><trkpt lat="43.1326817" lon="6.8541706"><ele>0.0</ele><time>2026-04-30T22:26:19.056Z</time></trkpt><trkpt lat="43.1327333" lon="6.854263"><ele>0.0</ele><time>2026-04-30T22:26:20.056Z</time></trkpt><trkpt lat="43.1327827" lon="6.8543566"><ele>0.0</ele><time>2026-04-30T22:26:21.056Z</time></trkpt><trkpt lat="43.1328264" lon="6.8544519"><ele>0.0</ele><time>2026-04-30T22:26:22.057Z</time></trkpt><trkpt lat="43.1328778" lon="6.8545411"><ele>0.0</ele><time>2026-04-30T22:26:23.056Z</time></trkpt><trkpt lat="43.1329261" lon="6.8546315"><ele>0.0</ele><time>2026-04-30T22:26:24.056Z</time></trkpt><trkpt lat="43.1329716" lon="6.8547261"><ele>0.0</ele><time>2026-04-30T22:26:25.056Z</time></trkpt><trkpt lat="43.1330226" lon="6.8548224"><ele>0.0</ele><time>2026-04-30T22:26:26.056Z</time></trkpt><trkpt lat="43.1330741" lon="6.8549147"><ele>0.0</ele><time>2026-04-30T22:26:27.057Z</time></trkpt><trkpt lat="43.1331256" lon="6.8550124"><ele>0.0</ele><time>2026-04-30T22:26:28.057Z</time></trkpt><trkpt lat="43.133227" lon="6.8552027"><ele>0.0</ele><time>2026-04-30T22:26:30.057Z</time></trkpt><trkpt lat="43.133323" lon="6.8553895"><ele>0.0</ele><time>2026-04-30T22:26:32.057Z</time></trkpt><trkpt lat="43.1333658" lon="6.8554864"><ele>0.0</ele><time>2026-04-30T22:26:33.057Z</time></trkpt><trkpt lat="43.1334088" lon="6.8555833"><ele>0.0</ele><time>2026-04-30T22:26:34.057Z</time></trkpt><trkpt lat="43.1334593" lon="6.855674"><ele>0.0</ele><time>2026-04-30T22:26:35.056Z</time></trkpt><trkpt lat="43.1335256" lon="6.8557555"><ele>0.0</ele><time>2026-04-30T22:26:36.057Z</time></trkpt><trkpt lat="43.1335774" lon="6.8558438"><ele>0.0</ele><time>2026-04-30T22:26:37.057Z</time></trkpt><trkpt lat="43.1336298" lon="6.855931"><ele>0.0</ele><time>2026-04-30T22:26:38.056Z</time></trkpt><trkpt lat="43.1336775" lon="6.8560161"><ele>0.0</ele><time>2026-04-30T22:26:39.057Z</time></trkpt><trkpt lat="43.1337273" lon="6.8561009"><ele>0.0</ele><time>2026-04-30T22:26:40.056Z</time></trkpt><trkpt lat="43.1337757" lon="6.8561904"><ele>0.0</ele><time>2026-04-30T22:26:41.056Z</time></trkpt><trkpt lat="43.1338215" lon="6.8562836"><ele>0.0</ele><time>2026-04-30T22:26:42.056Z</time></trkpt><trkpt lat="43.1338642" lon="6.8563796"><ele>0.0</ele><time>2026-04-30T22:26:43.057Z</time></trkpt><trkpt lat="43.1339173" lon="6.8564676"><ele>0.0</ele><time>2026-04-30T22:26:44.056Z</time></trkpt><trkpt lat="43.1339596" lon="6.8565672"><ele>0.0</ele><time>2026-04-30T22:26:45.056Z</time></trkpt><trkpt lat="43.1339996" lon="6.8566704"><ele>0.0</ele><time>2026-04-30T22:26:46.056Z</time></trkpt><trkpt lat="43.134034" lon="6.8567751"><ele>0.0</ele><time>2026-04-30T22:26:47.056Z</time></trkpt><trkpt lat="43.1340741" lon="6.8568773"><ele>0.0</ele><time>2026-04-30T22:26:48.056Z</time></trkpt><trkpt lat="43.1341199" lon="6.8569818"><ele>0.0</ele><time>2026-04-30T22:26:49.056Z</time></trkpt><trkpt lat="43.1341653" lon="6.8570839"><ele>0.0</ele><time>2026-04-30T22:26:50.056Z</time></trkpt><trkpt lat="43.1342089" lon="6.8571799"><ele>0.0</ele><time>2026-04-30T22:26:51.056Z</time></trkpt><trkpt lat="43.1343074" lon="6.8573669"><ele>0.0</ele><time>2026-04-30T22:26:53.056Z</time></trkpt><trkpt lat="43.1343565" lon="6.8574601"><ele>0.0</ele><time>2026-04-30T22:26:54.056Z</time></trkpt><trkpt lat="43.1344096" lon="6.8575518"><ele>0.0</ele><time>2026-04-30T22:26:55.057Z</time></trkpt><trkpt lat="43.1344618" lon="6.8576445"><ele>0.0</ele><time>2026-04-30T22:26:56.056Z</time></trkpt><trkpt lat="43.1345176" lon="6.8577369"><ele>0.0</ele><time>2026-04-30T22:26:57.056Z</time></trkpt><trkpt lat="43.134568" lon="6.8578283"><ele>0.0</ele><time>2026-04-30T22:26:58.056Z</time></trkpt><trkpt lat="43.1346157" lon="6.8579217"><ele>0.0</ele><time>2026-04-30T22:26:59.056Z</time></trkpt><trkpt lat="43.1346651" lon="6.8580165"><ele>0.0</ele><time>2026-04-30T22:27:00.057Z</time></trkpt><trkpt lat="43.1347651" lon="6.8582066"><ele>0.0</ele><time>2026-04-30T22:27:02.057Z</time></trkpt><trkpt lat="43.134814" lon="6.8583028"><ele>0.0</ele><time>2026-04-30T22:27:03.056Z</time></trkpt><trkpt lat="43.1348632" lon="6.8583981"><ele>0.0</ele><time>2026-04-30T22:27:04.056Z</time></trkpt><trkpt lat="43.1349152" lon="6.8584944"><ele>0.0</ele><time>2026-04-30T22:27:05.056Z</time></trkpt><trkpt lat="43.1349666" lon="6.8585914"><ele>0.0</ele><time>2026-04-30T22:27:06.057Z</time></trkpt><trkpt lat="43.1350183" lon="6.8586866"><ele>0.0</ele><time>2026-04-30T22:27:07.056Z</time></trkpt><trkpt lat="43.1350641" lon="6.858783"><ele>0.0</ele><time>2026-04-30T22:27:08.056Z</time></trkpt><trkpt lat="43.1351135" lon="6.8588796"><ele>0.0</ele><time>2026-04-30T22:27:09.057Z</time></trkpt><trkpt lat="43.1351596" lon="6.858979"><ele>0.0</ele><time>2026-04-30T22:27:10.056Z</time></trkpt><trkpt lat="43.1351996" lon="6.8590806"><ele>0.0</ele><time>2026-04-30T22:27:11.056Z</time></trkpt><trkpt lat="43.1352425" lon="6.8591822"><ele>0.0</ele><time>2026-04-30T22:27:12.056Z</time></trkpt><trkpt lat="43.135329" lon="6.8593837"><ele>0.0</ele><time>2026-04-30T22:27:14.057Z</time></trkpt><trkpt lat="43.1353742" lon="6.8594855"><ele>0.0</ele><time>2026-04-30T22:27:15.057Z</time></trkpt><trkpt lat="43.1354188" lon="6.8595886"><ele>0.0</ele><time>2026-04-30T22:27:16.056Z</time></trkpt><trkpt lat="43.1354611" lon="6.8596909"><ele>0.0</ele><time>2026-04-30T22:27:17.057Z</time></trkpt><trkpt lat="43.135511" lon="6.8597892"><ele>0.0</ele><time>2026-04-30T22:27:18.056Z</time></trkpt><trkpt lat="43.135566" lon="6.8598831"><ele>0.0</ele><time>2026-04-30T22:27:19.056Z</time></trkpt><trkpt lat="43.1356166" lon="6.859975"><ele>0.0</ele><time>2026-04-30T22:27:20.056Z</time></trkpt><trkpt lat="43.1356623" lon="6.8600681"><ele>0.0</ele><time>2026-04-30T22:27:21.057Z</time></trkpt><trkpt lat="43.1357098" lon="6.8601673"><ele>0.0</ele><time>2026-04-30T22:27:22.057Z</time></trkpt><trkpt lat="43.1357539" lon="6.8602653"><ele>0.0</ele><time>2026-04-30T22:27:23.056Z</time></trkpt><trkpt lat="43.1357982" lon="6.8603644"><ele>0.0</ele><time>2026-04-30T22:27:24.056Z</time></trkpt><trkpt lat="43.1358468" lon="6.8604643"><ele>0.0</ele><time>2026-04-30T22:27:25.056Z</time></trkpt><trkpt lat="43.1359079" lon="6.8605497"><ele>0.0</ele><time>2026-04-30T22:27:26.057Z</time></trkpt><trkpt lat="43.1359571" lon="6.8606428"><ele>0.0</ele><time>2026-04-30T22:27:27.057Z</time></trkpt><trkpt lat="43.1360039" lon="6.8607367"><ele>0.0</ele><time>2026-04-30T22:27:28.056Z</time></trkpt><trkpt lat="43.1360533" lon="6.8608315"><ele>0.0</ele><time>2026-04-30T22:27:29.056Z</time></trkpt><trkpt lat="43.1360992" lon="6.8609263"><ele>0.0</ele><time>2026-04-30T22:27:30.056Z</time></trkpt><trkpt lat="43.1361441" lon="6.8610199"><ele>0.0</ele><time>2026-04-30T22:27:31.057Z</time></trkpt><trkpt lat="43.1361903" lon="6.861112"><ele>0.0</ele><time>2026-04-30T22:27:32.057Z</time></trkpt><trkpt lat="43.1363316" lon="6.8614048"><ele>0.0</ele><time>2026-04-30T22:27:35.056Z</time></trkpt><trkpt lat="43.1363804" lon="6.8615002"><ele>0.0</ele><time>2026-04-30T22:27:36.056Z</time></trkpt><trkpt lat="43.1364274" lon="6.8616008"><ele>0.0</ele><time>2026-04-30T22:27:37.057Z</time></trkpt><trkpt lat="43.1364708" lon="6.8616983"><ele>0.0</ele><time>2026-04-30T22:27:38.057Z</time></trkpt><trkpt lat="43.1365167" lon="6.8617936"><ele>0.0</ele><time>2026-04-30T22:27:39.057Z</time></trkpt><trkpt lat="43.1365661" lon="6.8618887"><ele>0.0</ele><time>2026-04-30T22:27:40.057Z</time></trkpt><trkpt lat="43.1366178" lon="6.8619806"><ele>0.0</ele><time>2026-04-30T22:27:41.057Z</time></trkpt><trkpt lat="43.1366669" lon="6.8620732"><ele>0.0</ele><time>2026-04-30T22:27:42.056Z</time></trkpt><trkpt lat="43.1367167" lon="6.8621668"><ele>0.0</ele><time>2026-04-30T22:27:43.056Z</time></trkpt><trkpt lat="43.136775" lon="6.8622571"><ele>0.0</ele><time>2026-04-30T22:27:44.056Z</time></trkpt><trkpt lat="43.1368214" lon="6.8623512"><ele>0.0</ele><time>2026-04-30T22:27:45.056Z</time></trkpt><trkpt lat="43.1368703" lon="6.8624494"><ele>0.0</ele><time>2026-04-30T22:27:46.056Z</time></trkpt><trkpt lat="43.1369131" lon="6.8625463"><ele>0.0</ele><time>2026-04-30T22:27:47.056Z</time></trkpt><trkpt lat="43.1369602" lon="6.8626345"><ele>0.0</ele><time>2026-04-30T22:27:48.056Z</time></trkpt><trkpt lat="43.1370085" lon="6.8627253"><ele>0.0</ele><time>2026-04-30T22:27:49.057Z</time></trkpt><trkpt lat="43.1370487" lon="6.8628184"><ele>0.0</ele><time>2026-04-30T22:27:50.056Z</time></trkpt><trkpt lat="43.1370973" lon="6.8629119"><ele>0.0</ele><time>2026-04-30T22:27:51.057Z</time></trkpt><trkpt lat="43.1371455" lon="6.8630034"><ele>0.0</ele><time>2026-04-30T22:27:52.057Z</time></trkpt><trkpt lat="43.137195" lon="6.8630981"><ele>0.0</ele><time>2026-04-30T22:27:53.056Z</time></trkpt><trkpt lat="43.1372466" lon="6.8631916"><ele>0.0</ele><time>2026-04-30T22:27:54.057Z</time></trkpt><trkpt lat="43.1373491" lon="6.8633785"><ele>0.0</ele><time>2026-04-30T22:27:56.057Z</time></trkpt><trkpt lat="43.1373952" lon="6.863472"><ele>0.0</ele><time>2026-04-30T22:27:57.056Z</time></trkpt><trkpt lat="43.1374537" lon="6.8635619"><ele>0.0</ele><time>2026-04-30T22:27:58.056Z</time></trkpt><trkpt lat="43.137507" lon="6.8636549"><ele>0.0</ele><time>2026-04-30T22:27:59.056Z</time></trkpt><trkpt lat="43.1375544" lon="6.8637484"><ele>0.0</ele><time>2026-04-30T22:28:00.056Z</time></trkpt><trkpt lat="43.1376023" lon="6.8638459"><ele>0.0</ele><time>2026-04-30T22:28:01.056Z</time></trkpt><trkpt lat="43.1376506" lon="6.8639404"><ele>0.0</ele><time>2026-04-30T22:28:02.056Z</time></trkpt><trkpt lat="43.1376956" lon="6.864033"><ele>0.0</ele><time>2026-04-30T22:28:03.056Z</time></trkpt><trkpt lat="43.1377363" lon="6.8641295"><ele>0.0</ele><time>2026-04-30T22:28:04.057Z</time></trkpt><trkpt lat="43.1377804" lon="6.8642247"><ele>0.0</ele><time>2026-04-30T22:28:05.056Z</time></trkpt><trkpt lat="43.1378702" lon="6.8644088"><ele>0.0</ele><time>2026-04-30T22:28:07.056Z</time></trkpt><trkpt lat="43.1379224" lon="6.8644969"><ele>0.0</ele><time>2026-04-30T22:28:08.057Z</time></trkpt><trkpt lat="43.1379706" lon="6.8645911"><ele>0.0</ele><time>2026-04-30T22:28:09.057Z</time></trkpt><trkpt lat="43.1380147" lon="6.8646879"><ele>0.0</ele><time>2026-04-30T22:28:10.057Z</time></trkpt><trkpt lat="43.1380575" lon="6.8647834"><ele>0.0</ele><time>2026-04-30T22:28:11.057Z</time></trkpt><trkpt lat="43.1381061" lon="6.8648784"><ele>0.0</ele><time>2026-04-30T22:28:12.056Z</time></trkpt><trkpt lat="43.1381617" lon="6.8649621"><ele>0.0</ele><time>2026-04-30T22:28:13.057Z</time></trkpt><trkpt lat="43.1382171" lon="6.865054"><ele>0.0</ele><time>2026-04-30T22:28:14.056Z</time></trkpt><trkpt lat="43.1382726" lon="6.8651468"><ele>0.0</ele><time>2026-04-30T22:28:15.057Z</time></trkpt><trkpt lat="43.1383796" lon="6.8653403"><ele>0.0</ele><time>2026-04-30T22:28:17.057Z</time></trkpt><trkpt lat="43.1384329" lon="6.8654319"><ele>0.0</ele><time>2026-04-30T22:28:18.056Z</time></trkpt><trkpt lat="43.138485" lon="6.865522"><ele>0.0</ele><time>2026-04-30T22:28:19.056Z</time></trkpt><trkpt lat="43.1385325" lon="6.8656179"><ele>0.0</ele><time>2026-04-30T22:28:20.056Z</time></trkpt><trkpt lat="43.1385759" lon="6.8657089"><ele>0.0</ele><time>2026-04-30T22:28:21.057Z</time></trkpt><trkpt lat="43.1386238" lon="6.8658017"><ele>0.0</ele><time>2026-04-30T22:28:22.057Z</time></trkpt><trkpt lat="43.1386725" lon="6.8658941"><ele>0.0</ele><time>2026-04-30T22:28:23.057Z</time></trkpt><trkpt lat="43.1387264" lon="6.8659923"><ele>0.0</ele><time>2026-04-30T22:28:24.056Z</time></trkpt><trkpt lat="43.138781" lon="6.8660869"><ele>0.0</ele><time>2026-04-30T22:28:25.057Z</time></trkpt><trkpt lat="43.1388355" lon="6.8661777"><ele>0.0</ele><time>2026-04-30T22:28:26.057Z</time></trkpt><trkpt lat="43.138892" lon="6.8662673"><ele>0.0</ele><time>2026-04-30T22:28:27.057Z</time></trkpt><trkpt lat="43.1389439" lon="6.8663597"><ele>0.0</ele><time>2026-04-30T22:28:28.056Z</time></trkpt><trkpt lat="43.1390015" lon="6.8664519"><ele>0.0</ele><time>2026-04-30T22:28:29.056Z</time></trkpt><trkpt lat="43.1390485" lon="6.866548"><ele>0.0</ele><time>2026-04-30T22:28:30.057Z</time></trkpt><trkpt lat="43.1390946" lon="6.8666463"><ele>0.0</ele><time>2026-04-30T22:28:31.057Z</time></trkpt><trkpt lat="43.1391423" lon="6.8667427"><ele>0.0</ele><time>2026-04-30T22:28:32.056Z</time></trkpt><trkpt lat="43.1391878" lon="6.8668409"><ele>0.0</ele><time>2026-04-30T22:28:33.057Z</time></trkpt><trkpt lat="43.1392348" lon="6.8669367"><ele>0.0</ele><time>2026-04-30T22:28:34.057Z</time></trkpt><trkpt lat="43.139281" lon="6.8670312"><ele>0.0</ele><time>2026-04-30T22:28:35.056Z</time></trkpt><trkpt lat="43.1393286" lon="6.8671221"><ele>0.0</ele><time>2026-04-30T22:28:36.056Z</time></trkpt><trkpt lat="43.1393778" lon="6.8672195"><ele>0.0</ele><time>2026-04-30T22:28:37.056Z</time></trkpt><trkpt lat="43.1395241" lon="6.8675118"><ele>0.0</ele><time>2026-04-30T22:28:40.057Z</time></trkpt><trkpt lat="43.1395736" lon="6.8676049"><ele>0.0</ele><time>2026-04-30T22:28:41.056Z</time></trkpt><trkpt lat="43.1396249" lon="6.8676958"><ele>0.0</ele><time>2026-04-30T22:28:42.057Z</time></trkpt><trkpt lat="43.1396809" lon="6.8677843"><ele>0.0</ele><time>2026-04-30T22:28:43.057Z</time></trkpt><trkpt lat="43.1397316" lon="6.86787"><ele>0.0</ele><time>2026-04-30T22:28:44.056Z</time></trkpt><trkpt lat="43.1397775" lon="6.8679622"><ele>0.0</ele><time>2026-04-30T22:28:45.057Z</time></trkpt><trkpt lat="43.1398197" lon="6.8680595"><ele>0.0</ele><time>2026-04-30T22:28:46.057Z</time></trkpt><trkpt lat="43.1398624" lon="6.8681596"><ele>0.0</ele><time>2026-04-30T22:28:47.057Z</time></trkpt><trkpt lat="43.1399086" lon="6.8682548"><ele>0.0</ele><time>2026-04-30T22:28:48.056Z</time></trkpt><trkpt lat="43.1399595" lon="6.8683513"><ele>0.0</ele><time>2026-04-30T22:28:49.057Z</time></trkpt><trkpt lat="43.140015" lon="6.8684478"><ele>0.0</ele><time>2026-04-30T22:28:50.056Z</time></trkpt><trkpt lat="43.1400665" lon="6.8685413"><ele>0.0</ele><time>2026-04-30T22:28:51.056Z</time></trkpt><trkpt lat="43.140113" lon="6.8686393"><ele>0.0</ele><time>2026-04-30T22:28:52.057Z</time></trkpt><trkpt lat="43.1401562" lon="6.8687412"><ele>0.0</ele><time>2026-04-30T22:28:53.057Z</time></trkpt><trkpt lat="43.1401969" lon="6.8688418"><ele>0.0</ele><time>2026-04-30T22:28:54.056Z</time></trkpt><trkpt lat="43.1402398" lon="6.8689448"><ele>0.0</ele><time>2026-04-30T22:28:55.056Z</time></trkpt><trkpt lat="43.140281" lon="6.8690479"><ele>0.0</ele><time>2026-04-30T22:28:56.056Z</time></trkpt><trkpt lat="43.1403317" lon="6.8691513"><ele>0.0</ele><time>2026-04-30T22:28:57.056Z</time></trkpt><trkpt lat="43.1403763" lon="6.8692465"><ele>0.0</ele><time>2026-04-30T22:28:58.057Z</time></trkpt><trkpt lat="43.1404255" lon="6.8693471"><ele>0.0</ele><time>2026-04-30T22:28:59.057Z</time></trkpt><trkpt lat="43.1405222" lon="6.8695378"><ele>0.0</ele><time>2026-04-30T22:29:01.057Z</time></trkpt><trkpt lat="43.1405717" lon="6.8696371"><ele>0.0</ele><time>2026-04-30T22:29:02.056Z</time></trkpt><trkpt lat="43.1406195" lon="6.8697384"><ele>0.0</ele><time>2026-04-30T22:29:03.056Z</time></trkpt><trkpt lat="43.1406763" lon="6.8698279"><ele>0.0</ele><time>2026-04-30T22:29:04.056Z</time></trkpt><trkpt lat="43.1407295" lon="6.8699177"><ele>0.0</ele><time>2026-04-30T22:29:05.056Z</time></trkpt><trkpt lat="43.1407778" lon="6.8700101"><ele>0.0</ele><time>2026-04-30T22:29:06.056Z</time></trkpt><trkpt lat="43.1408257" lon="6.8701025"><ele>0.0</ele><time>2026-04-30T22:29:07.057Z</time></trkpt><trkpt lat="43.1408753" lon="6.8701924"><ele>0.0</ele><time>2026-04-30T22:29:08.057Z</time></trkpt><trkpt lat="43.1409267" lon="6.8702893"><ele>0.0</ele><time>2026-04-30T22:29:09.057Z</time></trkpt><trkpt lat="43.1410168" lon="6.8704821"><ele>0.0</ele><time>2026-04-30T22:29:11.057Z</time></trkpt><trkpt lat="43.1410664" lon="6.8705752"><ele>0.0</ele><time>2026-04-30T22:29:12.057Z</time></trkpt><trkpt lat="43.1411099" lon="6.8706668"><ele>0.0</ele><time>2026-04-30T22:29:13.056Z</time></trkpt><trkpt lat="43.1411537" lon="6.8707704"><ele>0.0</ele><time>2026-04-30T22:29:14.057Z</time></trkpt><trkpt lat="43.1412041" lon="6.870854"><ele>0.0</ele><time>2026-04-30T22:29:15.056Z</time></trkpt><trkpt lat="43.141254" lon="6.870944"><ele>0.0</ele><time>2026-04-30T22:29:16.056Z</time></trkpt><trkpt lat="43.1413058" lon="6.8710337"><ele>0.0</ele><time>2026-04-30T22:29:17.057Z</time></trkpt><trkpt lat="43.1413618" lon="6.8711253"><ele>0.0</ele><time>2026-04-30T22:29:18.057Z</time></trkpt><trkpt lat="43.1414116" lon="6.871217"><ele>0.0</ele><time>2026-04-30T22:29:19.056Z</time></trkpt><trkpt lat="43.1414618" lon="6.8713086"><ele>0.0</ele><time>2026-04-30T22:29:20.057Z</time></trkpt><trkpt lat="43.1415503" lon="6.8715041"><ele>0.0</ele><time>2026-04-30T22:29:22.056Z</time></trkpt><trkpt lat="43.1416094" lon="6.8715898"><ele>0.0</ele><time>2026-04-30T22:29:23.056Z</time></trkpt><trkpt lat="43.1416643" lon="6.8716772"><ele>0.0</ele><time>2026-04-30T22:29:24.056Z</time></trkpt><trkpt lat="43.1417152" lon="6.8717683"><ele>0.0</ele><time>2026-04-30T22:29:25.056Z</time></trkpt><trkpt lat="43.1417708" lon="6.8718572"><ele>0.0</ele><time>2026-04-30T22:29:26.057Z</time></trkpt><trkpt lat="43.1418222" lon="6.8719527"><ele>0.0</ele><time>2026-04-30T22:29:27.057Z</time></trkpt><trkpt lat="43.1418691" lon="6.8720495"><ele>0.0</ele><time>2026-04-30T22:29:28.057Z</time></trkpt><trkpt lat="43.1419138" lon="6.8721465"><ele>0.0</ele><time>2026-04-30T22:29:29.057Z</time></trkpt><trkpt lat="43.1419574" lon="6.8722442"><ele>0.0</ele><time>2026-04-30T22:29:30.057Z</time></trkpt><trkpt lat="43.1420066" lon="6.8723426"><ele>0.0</ele><time>2026-04-30T22:29:31.057Z</time></trkpt><trkpt lat="43.1420554" lon="6.8724393"><ele>0.0</ele><time>2026-04-30T22:29:32.057Z</time></trkpt><trkpt lat="43.1421009" lon="6.8725359"><ele>0.0</ele><time>2026-04-30T22:29:33.056Z</time></trkpt><trkpt lat="43.1421442" lon="6.8726358"><ele>0.0</ele><time>2026-04-30T22:29:34.057Z</time></trkpt><trkpt lat="43.1421886" lon="6.8727404"><ele>0.0</ele><time>2026-04-30T22:29:35.056Z</time></trkpt><trkpt lat="43.1422298" lon="6.8728481"><ele>0.0</ele><time>2026-04-30T22:29:36.056Z</time></trkpt><trkpt lat="43.1422754" lon="6.8729465"><ele>0.0</ele><time>2026-04-30T22:29:37.057Z</time></trkpt><trkpt lat="43.1423176" lon="6.8730431"><ele>0.0</ele><time>2026-04-30T22:29:38.056Z</time></trkpt><trkpt lat="43.1423608" lon="6.8731414"><ele>0.0</ele><time>2026-04-30T22:29:39.056Z</time></trkpt><trkpt lat="43.1424054" lon="6.8732367"><ele>0.0</ele><time>2026-04-30T22:29:40.056Z</time></trkpt><trkpt lat="43.1424588" lon="6.8733261"><ele>0.0</ele><time>2026-04-30T22:29:41.057Z</time></trkpt><trkpt lat="43.1425128" lon="6.8734199"><ele>0.0</ele><time>2026-04-30T22:29:42.056Z</time></trkpt><trkpt lat="43.1426696" lon="6.8737026"><ele>0.0</ele><time>2026-04-30T22:29:45.057Z</time></trkpt><trkpt lat="43.1427245" lon="6.8737968"><ele>0.0</ele><time>2026-04-30T22:29:46.057Z</time></trkpt><trkpt lat="43.1427736" lon="6.8738932"><ele>0.0</ele><time>2026-04-30T22:29:47.056Z</time></trkpt><trkpt lat="43.1428217" lon="6.87399"><ele>0.0</ele><time>2026-04-30T22:29:48.057Z</time></trkpt><trkpt lat="43.1428718" lon="6.8740893"><ele>0.0</ele><time>2026-04-30T22:29:49.057Z</time></trkpt><trkpt lat="43.1429172" lon="6.8741838"><ele>0.0</ele><time>2026-04-30T22:29:50.056Z</time></trkpt><trkpt lat="43.1429636" lon="6.8742717"><ele>0.0</ele><time>2026-04-30T22:29:51.056Z</time></trkpt><trkpt lat="43.1430116" lon="6.8743611"><ele>0.0</ele><time>2026-04-30T22:29:52.057Z</time></trkpt><trkpt lat="43.1430573" lon="6.8744535"><ele>0.0</ele><time>2026-04-30T22:29:53.056Z</time></trkpt><trkpt lat="43.1431049" lon="6.8745513"><ele>0.0</ele><time>2026-04-30T22:29:54.057Z</time></trkpt><trkpt lat="43.1431589" lon="6.8746409"><ele>0.0</ele><time>2026-04-30T22:29:55.057Z</time></trkpt><trkpt lat="43.1432126" lon="6.8747321"><ele>0.0</ele><time>2026-04-30T22:29:56.057Z</time></trkpt><trkpt lat="43.1432649" lon="6.8748205"><ele>0.0</ele><time>2026-04-30T22:29:57.057Z</time></trkpt><trkpt lat="43.1433182" lon="6.8749156"><ele>0.0</ele><time>2026-04-30T22:29:58.056Z</time></trkpt><trkpt lat="43.1433704" lon="6.8750111"><ele>0.0</ele><time>2026-04-30T22:29:59.056Z</time></trkpt><trkpt lat="43.1434178" lon="6.8751031"><ele>0.0</ele><time>2026-04-30T22:30:00.057Z</time></trkpt><trkpt lat="43.1434629" lon="6.8751962"><ele>0.0</ele><time>2026-04-30T22:30:01.057Z</time></trkpt><trkpt lat="43.1435118" lon="6.875287"><ele>0.0</ele><time>2026-04-30T22:30:02.056Z</time></trkpt><trkpt lat="43.1435599" lon="6.875381"><ele>0.0</ele><time>2026-04-30T22:30:03.056Z</time></trkpt><trkpt lat="43.1436078" lon="6.8754854"><ele>0.0</ele><time>2026-04-30T22:30:04.056Z</time></trkpt><trkpt lat="43.1437104" lon="6.8756718"><ele>0.0</ele><time>2026-04-30T22:30:06.056Z</time></trkpt><trkpt lat="43.143759" lon="6.8757663"><ele>0.0</ele><time>2026-04-30T22:30:07.056Z</time></trkpt><trkpt lat="43.143806" lon="6.8758584"><ele>0.0</ele><time>2026-04-30T22:30:08.056Z</time></trkpt><trkpt lat="43.1438523" lon="6.8759498"><ele>0.0</ele><time>2026-04-30T22:30:09.057Z</time></trkpt><trkpt lat="43.1439006" lon="6.8760429"><ele>0.0</ele><time>2026-04-30T22:30:10.056Z</time></trkpt><trkpt lat="43.1439505" lon="6.8761365"><ele>0.0</ele><time>2026-04-30T22:30:11.056Z</time></trkpt><trkpt lat="43.144003" lon="6.8762369"><ele>0.0</ele><time>2026-04-30T22:30:12.057Z</time></trkpt><trkpt lat="43.1440595" lon="6.876327"><ele>0.0</ele><time>2026-04-30T22:30:13.057Z</time></trkpt><trkpt lat="43.1441085" lon="6.8764127"><ele>0.0</ele><time>2026-04-30T22:30:14.056Z</time></trkpt><trkpt lat="43.1442165" lon="6.8765856"><ele>0.0</ele><time>2026-04-30T22:30:16.057Z</time></trkpt><trkpt lat="43.1442599" lon="6.876681"><ele>0.0</ele><time>2026-04-30T22:30:17.057Z</time></trkpt><trkpt lat="43.1443085" lon="6.8767721"><ele>0.0</ele><time>2026-04-30T22:30:18.057Z</time></trkpt><trkpt lat="43.1443614" lon="6.8768594"><ele>0.0</ele><time>2026-04-30T22:30:19.057Z</time></trkpt><trkpt lat="43.1444072" lon="6.876953"><ele>0.0</ele><time>2026-04-30T22:30:20.057Z</time></trkpt><trkpt lat="43.1444534" lon="6.8770481"><ele>0.0</ele><time>2026-04-30T22:30:21.056Z</time></trkpt><trkpt lat="43.1445031" lon="6.8771457"><ele>0.0</ele><time>2026-04-30T22:30:22.057Z</time></trkpt><trkpt lat="43.1445517" lon="6.877243"><ele>0.0</ele><time>2026-04-30T22:30:23.057Z</time></trkpt><trkpt lat="43.1445985" lon="6.8773423"><ele>0.0</ele><time>2026-04-30T22:30:24.056Z</time></trkpt><trkpt lat="43.1446466" lon="6.8774451"><ele>0.0</ele><time>2026-04-30T22:30:25.056Z</time></trkpt><trkpt lat="43.1447472" lon="6.8776447"><ele>0.0</ele><time>2026-04-30T22:30:27.056Z</time></trkpt><trkpt lat="43.1447973" lon="6.8777412"><ele>0.0</ele><time>2026-04-30T22:30:28.057Z</time></trkpt><trkpt lat="43.1448468" lon="6.8778379"><ele>0.0</ele><time>2026-04-30T22:30:29.057Z</time></trkpt><trkpt lat="43.1448953" lon="6.8779347"><ele>0.0</ele><time>2026-04-30T22:30:30.056Z</time></trkpt><trkpt lat="43.1449364" lon="6.8780285"><ele>0.0</ele><time>2026-04-30T22:30:31.056Z</time></trkpt><trkpt lat="43.1449776" lon="6.8781274"><ele>0.0</ele><time>2026-04-30T22:30:32.056Z</time></trkpt><trkpt lat="43.1450219" lon="6.8782289"><ele>0.0</ele><time>2026-04-30T22:30:33.057Z</time></trkpt><trkpt lat="43.1450674" lon="6.8783237"><ele>0.0</ele><time>2026-04-30T22:30:34.057Z</time></trkpt><trkpt lat="43.1451149" lon="6.8784185"><ele>0.0</ele><time>2026-04-30T22:30:35.056Z</time></trkpt><trkpt lat="43.1451618" lon="6.8785122"><ele>0.0</ele><time>2026-04-30T22:30:36.056Z</time></trkpt><trkpt lat="43.1452113" lon="6.8786069"><ele>0.0</ele><time>2026-04-30T22:30:37.056Z</time></trkpt><trkpt lat="43.1452581" lon="6.8787034"><ele>0.0</ele><time>2026-04-30T22:30:38.056Z</time></trkpt><trkpt lat="43.145322" lon="6.8787928"><ele>0.0</ele><time>2026-04-30T22:30:39.056Z</time></trkpt><trkpt lat="43.1453793" lon="6.8788806"><ele>0.0</ele><time>2026-04-30T22:30:40.056Z</time></trkpt><trkpt lat="43.1454365" lon="6.878969"><ele>0.0</ele><time>2026-04-30T22:30:41.057Z</time></trkpt><trkpt lat="43.1454872" lon="6.8790589"><ele>0.0</ele><time>2026-04-30T22:30:42.056Z</time></trkpt><trkpt lat="43.1455378" lon="6.8791499"><ele>0.0</ele><time>2026-04-30T22:30:43.057Z</time></trkpt><trkpt lat="43.1455867" lon="6.8792489"><ele>0.0</ele><time>2026-04-30T22:30:44.057Z</time></trkpt><trkpt lat="43.1456433" lon="6.8793406"><ele>0.0</ele><time>2026-04-30T22:30:45.056Z</time></trkpt><trkpt lat="43.1456968" lon="6.8794332"><ele>0.0</ele><time>2026-04-30T22:30:46.056Z</time></trkpt><trkpt lat="43.1458523" lon="6.8797003"><ele>0.0</ele><time>2026-04-30T22:30:49.057Z</time></trkpt><trkpt lat="43.1458735" lon="6.8797835"><ele>0.0</ele><time>2026-04-30T22:30:50.056Z</time></trkpt><trkpt lat="43.145912" lon="6.8798791"><ele>0.0</ele><time>2026-04-30T22:30:51.056Z</time></trkpt><trkpt lat="43.145953" lon="6.8799786"><ele>0.0</ele><time>2026-04-30T22:30:52.057Z</time></trkpt><trkpt lat="43.1459981" lon="6.8800848"><ele>0.0</ele><time>2026-04-30T22:30:53.057Z</time></trkpt><trkpt lat="43.1460453" lon="6.880183"><ele>0.0</ele><time>2026-04-30T22:30:54.056Z</time></trkpt><trkpt lat="43.1460875" lon="6.8802854"><ele>0.0</ele><time>2026-04-30T22:30:55.056Z</time></trkpt><trkpt lat="43.1461348" lon="6.8803861"><ele>0.0</ele><time>2026-04-30T22:30:56.056Z</time></trkpt><trkpt lat="43.1461851" lon="6.8804832"><ele>0.0</ele><time>2026-04-30T22:30:57.056Z</time></trkpt><trkpt lat="43.1462323" lon="6.8805783"><ele>0.0</ele><time>2026-04-30T22:30:58.057Z</time></trkpt><trkpt lat="43.1462874" lon="6.8806728"><ele>0.0</ele><time>2026-04-30T22:30:59.056Z</time></trkpt><trkpt lat="43.1463371" lon="6.8807695"><ele>0.0</ele><time>2026-04-30T22:31:00.056Z</time></trkpt><trkpt lat="43.1463829" lon="6.8808631"><ele>0.0</ele><time>2026-04-30T22:31:01.056Z</time></trkpt><trkpt lat="43.1464274" lon="6.880961"><ele>0.0</ele><time>2026-04-30T22:31:02.056Z</time></trkpt><trkpt lat="43.1464775" lon="6.8810554"><ele>0.0</ele><time>2026-04-30T22:31:03.056Z</time></trkpt><trkpt lat="43.1465293" lon="6.8811498"><ele>0.0</ele><time>2026-04-30T22:31:04.056Z</time></trkpt><trkpt lat="43.1465801" lon="6.8812475"><ele>0.0</ele><time>2026-04-30T22:31:05.056Z</time></trkpt><trkpt lat="43.1466281" lon="6.8813441"><ele>0.0</ele><time>2026-04-30T22:31:06.057Z</time></trkpt><trkpt lat="43.1466686" lon="6.881445"><ele>0.0</ele><time>2026-04-30T22:31:07.057Z</time></trkpt><trkpt lat="43.1467125" lon="6.8815469"><ele>0.0</ele><time>2026-04-30T22:31:08.056Z</time></trkpt><trkpt lat="43.1467996" lon="6.881744"><ele>0.0</ele><time>2026-04-30T22:31:10.056Z</time></trkpt><trkpt lat="43.1468433" lon="6.8818422"><ele>0.0</ele><time>2026-04-30T22:31:11.056Z</time></trkpt><trkpt lat="43.1468905" lon="6.8819408"><ele>0.0</ele><time>2026-04-30T22:31:12.057Z</time></trkpt><trkpt lat="43.1469433" lon="6.8820305"><ele>0.0</ele><time>2026-04-30T22:31:13.057Z</time></trkpt><trkpt lat="43.1469938" lon="6.8821215"><ele>0.0</ele><time>2026-04-30T22:31:14.056Z</time></trkpt><trkpt lat="43.1470495" lon="6.8822121"><ele>0.0</ele><time>2026-04-30T22:31:15.057Z</time></trkpt><trkpt lat="43.1471018" lon="6.8823021"><ele>0.0</ele><time>2026-04-30T22:31:16.056Z</time></trkpt><trkpt lat="43.1471634" lon="6.8823846"><ele>0.0</ele><time>2026-04-30T22:31:17.055Z</time></trkpt><trkpt lat="43.1472132" lon="6.8824752"><ele>0.0</ele><time>2026-04-30T22:31:18.055Z</time></trkpt><trkpt lat="43.1472664" lon="6.8825685"><ele>0.0</ele><time>2026-04-30T22:31:19.055Z</time></trkpt><trkpt lat="43.1473673" lon="6.8827436"><ele>0.0</ele><time>2026-04-30T22:31:21.056Z</time></trkpt><trkpt lat="43.1474202" lon="6.8828308"><ele>0.0</ele><time>2026-04-30T22:31:22.055Z</time></trkpt><trkpt lat="43.1474724" lon="6.8829233"><ele>0.0</ele><time>2026-04-30T22:31:23.055Z</time></trkpt><trkpt lat="43.1475166" lon="6.8830227"><ele>0.0</ele><time>2026-04-30T22:31:24.055Z</time></trkpt><trkpt lat="43.1475596" lon="6.8831195"><ele>0.0</ele><time>2026-04-30T22:31:25.055Z</time></trkpt><trkpt lat="43.1476044" lon="6.8832131"><ele>0.0</ele><time>2026-04-30T22:31:26.056Z</time></trkpt><trkpt lat="43.147649" lon="6.8833083"><ele>0.0</ele><time>2026-04-30T22:31:27.055Z</time></trkpt><trkpt lat="43.1476982" lon="6.8834047"><ele>0.0</ele><time>2026-04-30T22:31:28.055Z</time></trkpt><trkpt lat="43.1477503" lon="6.8834966"><ele>0.0</ele><time>2026-04-30T22:31:29.055Z</time></trkpt><trkpt lat="43.1478525" lon="6.8836945"><ele>0.0</ele><time>2026-04-30T22:31:31.055Z</time></trkpt><trkpt lat="43.1479002" lon="6.8837856"><ele>0.0</ele><time>2026-04-30T22:31:32.055Z</time></trkpt><trkpt lat="43.1479517" lon="6.8838753"><ele>0.0</ele><time>2026-04-30T22:31:33.056Z</time></trkpt><trkpt lat="43.1480064" lon="6.883965"><ele>0.0</ele><time>2026-04-30T22:31:34.055Z</time></trkpt><trkpt lat="43.1480584" lon="6.8840554"><ele>0.0</ele><time>2026-04-30T22:31:35.056Z</time></trkpt><trkpt lat="43.1481054" lon="6.8841525"><ele>0.0</ele><time>2026-04-30T22:31:36.056Z</time></trkpt><trkpt lat="43.1481562" lon="6.8842526"><ele>0.0</ele><time>2026-04-30T22:31:37.055Z</time></trkpt><trkpt lat="43.1482073" lon="6.8843477"><ele>0.0</ele><time>2026-04-30T22:31:38.055Z</time></trkpt><trkpt lat="43.1482535" lon="6.8844467"><ele>0.0</ele><time>2026-04-30T22:31:39.055Z</time></trkpt><trkpt lat="43.1482991" lon="6.8845471"><ele>0.0</ele><time>2026-04-30T22:31:40.055Z</time></trkpt><trkpt lat="43.1483486" lon="6.884647"><ele>0.0</ele><time>2026-04-30T22:31:41.055Z</time></trkpt><trkpt lat="43.1483975" lon="6.8847486"><ele>0.0</ele><time>2026-04-30T22:31:42.056Z</time></trkpt><trkpt lat="43.1484445" lon="6.8848474"><ele>0.0</ele><time>2026-04-30T22:31:43.056Z</time></trkpt><trkpt lat="43.1484909" lon="6.8849401"><ele>0.0</ele><time>2026-04-30T22:31:44.056Z</time></trkpt><trkpt lat="43.1485375" lon="6.8850347"><ele>0.0</ele><time>2026-04-30T22:31:45.056Z</time></trkpt><trkpt lat="43.1485801" lon="6.885123"><ele>0.0</ele><time>2026-04-30T22:31:46.055Z</time></trkpt><trkpt lat="43.1486215" lon="6.8852138"><ele>0.0</ele><time>2026-04-30T22:31:47.055Z</time></trkpt><trkpt lat="43.1486618" lon="6.8853078"><ele>0.0</ele><time>2026-04-30T22:31:48.056Z</time></trkpt><trkpt lat="43.1487012" lon="6.8854071"><ele>0.0</ele><time>2026-04-30T22:31:49.055Z</time></trkpt><trkpt lat="43.1487457" lon="6.8855004"><ele>0.0</ele><time>2026-04-30T22:31:50.056Z</time></trkpt><trkpt lat="43.1488006" lon="6.8855937"><ele>0.0</ele><time>2026-04-30T22:31:51.055Z</time></trkpt><trkpt lat="43.1489683" lon="6.8858604"><ele>0.0</ele><time>2026-04-30T22:31:54.056Z</time></trkpt><trkpt lat="43.1490217" lon="6.8859492"><ele>0.0</ele><time>2026-04-30T22:31:55.056Z</time></trkpt><trkpt lat="43.1490745" lon="6.8860405"><ele>0.0</ele><time>2026-04-30T22:31:56.056Z</time></trkpt><trkpt lat="43.1491322" lon="6.886133"><ele>0.0</ele><time>2026-04-30T22:31:57.055Z</time></trkpt><trkpt lat="43.149188" lon="6.8862264"><ele>0.0</ele><time>2026-04-30T22:31:58.056Z</time></trkpt><trkpt lat="43.1492425" lon="6.8863187"><ele>0.0</ele><time>2026-04-30T22:31:59.055Z</time></trkpt><trkpt lat="43.1492907" lon="6.8864144"><ele>0.0</ele><time>2026-04-30T22:32:00.056Z</time></trkpt><trkpt lat="43.1493415" lon="6.8865111"><ele>0.0</ele><time>2026-04-30T22:32:01.056Z</time></trkpt><trkpt lat="43.1493903" lon="6.8866094"><ele>0.0</ele><time>2026-04-30T22:32:02.056Z</time></trkpt><trkpt lat="43.1494397" lon="6.8867078"><ele>0.0</ele><time>2026-04-30T22:32:03.055Z</time></trkpt><trkpt lat="43.1494844" lon="6.8868001"><ele>0.0</ele><time>2026-04-30T22:32:04.056Z</time></trkpt><trkpt lat="43.149531" lon="6.8868977"><ele>0.0</ele><time>2026-04-30T22:32:05.055Z</time></trkpt><trkpt lat="43.149579" lon="6.8869988"><ele>0.0</ele><time>2026-04-30T22:32:06.055Z</time></trkpt><trkpt lat="43.149632" lon="6.8870964"><ele>0.0</ele><time>2026-04-30T22:32:07.055Z</time></trkpt><trkpt lat="43.1496844" lon="6.8871888"><ele>0.0</ele><time>2026-04-30T22:32:08.055Z</time></trkpt><trkpt lat="43.1497334" lon="6.8872803"><ele>0.0</ele><time>2026-04-30T22:32:09.056Z</time></trkpt><trkpt lat="43.1497777" lon="6.8873716"><ele>0.0</ele><time>2026-04-30T22:32:10.055Z</time></trkpt><trkpt lat="43.1498295" lon="6.887462"><ele>0.0</ele><time>2026-04-30T22:32:11.056Z</time></trkpt><trkpt lat="43.1498873" lon="6.887552"><ele>0.0</ele><time>2026-04-30T22:32:12.056Z</time></trkpt><trkpt lat="43.1499454" lon="6.887645"><ele>0.0</ele><time>2026-04-30T22:32:13.055Z</time></trkpt><trkpt lat="43.1500342" lon="6.8878332"><ele>0.0</ele><time>2026-04-30T22:32:15.055Z</time></trkpt><trkpt lat="43.1500799" lon="6.8879283"><ele>0.0</ele><time>2026-04-30T22:32:16.055Z</time></trkpt><trkpt lat="43.1501311" lon="6.8880217"><ele>0.0</ele><time>2026-04-30T22:32:17.056Z</time></trkpt><trkpt lat="43.1501815" lon="6.888115"><ele>0.0</ele><time>2026-04-30T22:32:18.055Z</time></trkpt><trkpt lat="43.1502314" lon="6.888207"><ele>0.0</ele><time>2026-04-30T22:32:19.056Z</time></trkpt><trkpt lat="43.1502825" lon="6.8882984"><ele>0.0</ele><time>2026-04-30T22:32:20.056Z</time></trkpt><trkpt lat="43.1503349" lon="6.8883862"><ele>0.0</ele><time>2026-04-30T22:32:21.055Z</time></trkpt><trkpt lat="43.1503827" lon="6.8884795"><ele>0.0</ele><time>2026-04-30T22:32:22.055Z</time></trkpt><trkpt lat="43.1504288" lon="6.8885736"><ele>0.0</ele><time>2026-04-30T22:32:23.055Z</time></trkpt><trkpt lat="43.1505286" lon="6.8887603"><ele>0.0</ele><time>2026-04-30T22:32:25.055Z</time></trkpt><trkpt lat="43.1505818" lon="6.8888498"><ele>0.0</ele><time>2026-04-30T22:32:26.056Z</time></trkpt><trkpt lat="43.1506319" lon="6.8889484"><ele>0.0</ele><time>2026-04-30T22:32:27.056Z</time></trkpt><trkpt lat="43.1506819" lon="6.8890486"><ele>0.0</ele><time>2026-04-30T22:32:28.055Z</time></trkpt><trkpt lat="43.1507322" lon="6.8891444"><ele>0.0</ele><time>2026-04-30T22:32:29.055Z</time></trkpt><trkpt lat="43.1507868" lon="6.889235"><ele>0.0</ele><time>2026-04-30T22:32:30.056Z</time></trkpt><trkpt lat="43.1508359" lon="6.8893309"><ele>0.0</ele><time>2026-04-30T22:32:31.055Z</time></trkpt><trkpt lat="43.1508782" lon="6.8894251"><ele>0.0</ele><time>2026-04-30T22:32:32.056Z</time></trkpt><trkpt lat="43.1509266" lon="6.8895198"><ele>0.0</ele><time>2026-04-30T22:32:33.056Z</time></trkpt><trkpt lat="43.1509766" lon="6.8896162"><ele>0.0</ele><time>2026-04-30T22:32:34.055Z</time></trkpt><trkpt lat="43.1510646" lon="6.8898213"><ele>0.0</ele><time>2026-04-30T22:32:36.055Z</time></trkpt><trkpt lat="43.1511036" lon="6.8899264"><ele>0.0</ele><time>2026-04-30T22:32:37.055Z</time></trkpt><trkpt lat="43.1511438" lon="6.8900305"><ele>0.0</ele><time>2026-04-30T22:32:38.055Z</time></trkpt><trkpt lat="43.1511853" lon="6.8901269"><ele>0.0</ele><time>2026-04-30T22:32:39.055Z</time></trkpt><trkpt lat="43.1512314" lon="6.89022"><ele>0.0</ele><time>2026-04-30T22:32:40.055Z</time></trkpt><trkpt lat="43.1512804" lon="6.8903162"><ele>0.0</ele><time>2026-04-30T22:32:41.056Z</time></trkpt><trkpt lat="43.1513261" lon="6.8904073"><ele>0.0</ele><time>2026-04-30T22:32:42.056Z</time></trkpt><trkpt lat="43.1513651" lon="6.8905042"><ele>0.0</ele><time>2026-04-30T22:32:43.056Z</time></trkpt><trkpt lat="43.151409" lon="6.8906001"><ele>0.0</ele><time>2026-04-30T22:32:44.055Z</time></trkpt><trkpt lat="43.1514538" lon="6.8906967"><ele>0.0</ele><time>2026-04-30T22:32:45.055Z</time></trkpt><trkpt lat="43.1515001" lon="6.8907903"><ele>0.0</ele><time>2026-04-30T22:32:46.056Z</time></trkpt><trkpt lat="43.1515441" lon="6.8908837"><ele>0.0</ele><time>2026-04-30T22:32:47.056Z</time></trkpt><trkpt lat="43.1515876" lon="6.8909798"><ele>0.0</ele><time>2026-04-30T22:32:48.055Z</time></trkpt><trkpt lat="43.151635" lon="6.8910778"><ele>0.0</ele><time>2026-04-30T22:32:49.055Z</time></trkpt><trkpt lat="43.1516905" lon="6.8911687"><ele>0.0</ele><time>2026-04-30T22:32:50.055Z</time></trkpt><trkpt lat="43.1517359" lon="6.8912601"><ele>0.0</ele><time>2026-04-30T22:32:51.055Z</time></trkpt><trkpt lat="43.1517797" lon="6.8913534"><ele>0.0</ele><time>2026-04-30T22:32:52.055Z</time></trkpt><trkpt lat="43.1518284" lon="6.8914425"><ele>0.0</ele><time>2026-04-30T22:32:53.055Z</time></trkpt><trkpt lat="43.1518795" lon="6.8915344"><ele>0.0</ele><time>2026-04-30T22:32:54.056Z</time></trkpt><trkpt lat="43.1519345" lon="6.8916267"><ele>0.0</ele><time>2026-04-30T22:32:55.055Z</time></trkpt><trkpt lat="43.1520882" lon="6.8919113"><ele>0.0</ele><time>2026-04-30T22:32:58.056Z</time></trkpt><trkpt lat="43.1521382" lon="6.8920107"><ele>0.0</ele><time>2026-04-30T22:32:59.056Z</time></trkpt><trkpt lat="43.1521866" lon="6.8921139"><ele>0.0</ele><time>2026-04-30T22:33:00.056Z</time></trkpt><trkpt lat="43.1522363" lon="6.8922144"><ele>0.0</ele><time>2026-04-30T22:33:01.055Z</time></trkpt><trkpt lat="43.1522871" lon="6.892313"><ele>0.0</ele><time>2026-04-30T22:33:02.055Z</time></trkpt><trkpt lat="43.1523394" lon="6.8924084"><ele>0.0</ele><time>2026-04-30T22:33:03.056Z</time></trkpt><trkpt lat="43.152393" lon="6.8925068"><ele>0.0</ele><time>2026-04-30T22:33:04.056Z</time></trkpt><trkpt lat="43.1524439" lon="6.8926064"><ele>0.0</ele><time>2026-04-30T22:33:05.056Z</time></trkpt><trkpt lat="43.1524945" lon="6.892702"><ele>0.0</ele><time>2026-04-30T22:33:06.056Z</time></trkpt><trkpt lat="43.1525462" lon="6.892787"><ele>0.0</ele><time>2026-04-30T22:33:07.055Z</time></trkpt><trkpt lat="43.1525919" lon="6.8928802"><ele>0.0</ele><time>2026-04-30T22:33:08.055Z</time></trkpt><trkpt lat="43.1526382" lon="6.8929753"><ele>0.0</ele><time>2026-04-30T22:33:09.056Z</time></trkpt><trkpt lat="43.1526851" lon="6.8930687"><ele>0.0</ele><time>2026-04-30T22:33:10.055Z</time></trkpt><trkpt lat="43.1527333" lon="6.893159"><ele>0.0</ele><time>2026-04-30T22:33:11.056Z</time></trkpt><trkpt lat="43.1527847" lon="6.89325"><ele>0.0</ele><time>2026-04-30T22:33:12.055Z</time></trkpt><trkpt lat="43.1528309" lon="6.8933461"><ele>0.0</ele><time>2026-04-30T22:33:13.055Z</time></trkpt><trkpt lat="43.1528742" lon="6.8934429"><ele>0.0</ele><time>2026-04-30T22:33:14.055Z</time></trkpt><trkpt lat="43.1529191" lon="6.8935384"><ele>0.0</ele><time>2026-04-30T22:33:15.055Z</time></trkpt><trkpt lat="43.1529657" lon="6.8936344"><ele>0.0</ele><time>2026-04-30T22:33:16.055Z</time></trkpt><trkpt lat="43.1530107" lon="6.8937314"><ele>0.0</ele><time>2026-04-30T22:33:17.055Z</time></trkpt><trkpt lat="43.1531119" lon="6.8939134"><ele>0.0</ele><time>2026-04-30T22:33:19.056Z</time></trkpt><trkpt lat="43.1531574" lon="6.8940038"><ele>0.0</ele><time>2026-04-30T22:33:20.055Z</time></trkpt><trkpt lat="43.1532093" lon="6.8940939"><ele>0.0</ele><time>2026-04-30T22:33:21.055Z</time></trkpt><trkpt lat="43.1532605" lon="6.8941851"><ele>0.0</ele><time>2026-04-30T22:33:22.056Z</time></trkpt><trkpt lat="43.153308" lon="6.8942782"><ele>0.0</ele><time>2026-04-30T22:33:23.056Z</time></trkpt><trkpt lat="43.1533604" lon="6.894369"><ele>0.0</ele><time>2026-04-30T22:33:24.055Z</time></trkpt><trkpt lat="43.1534113" lon="6.894463"><ele>0.0</ele><time>2026-04-30T22:33:25.056Z</time></trkpt><trkpt lat="43.1534659" lon="6.8945549"><ele>0.0</ele><time>2026-04-30T22:33:26.056Z</time></trkpt><trkpt lat="43.1535213" lon="6.8946483"><ele>0.0</ele><time>2026-04-30T22:33:27.056Z</time></trkpt><trkpt lat="43.1536225" lon="6.8948354"><ele>0.0</ele><time>2026-04-30T22:33:29.055Z</time></trkpt><trkpt lat="43.1536751" lon="6.8949278"><ele>0.0</ele><time>2026-04-30T22:33:30.055Z</time></trkpt><trkpt lat="43.1537255" lon="6.8950182"><ele>0.0</ele><time>2026-04-30T22:33:31.055Z</time></trkpt><trkpt lat="43.1537739" lon="6.8951114"><ele>0.0</ele><time>2026-04-30T22:33:32.056Z</time></trkpt><trkpt lat="43.1538234" lon="6.8952036"><ele>0.0</ele><time>2026-04-30T22:33:33.056Z</time></trkpt><trkpt lat="43.153883" lon="6.8952899"><ele>0.0</ele><time>2026-04-30T22:33:34.056Z</time></trkpt><trkpt lat="43.1539365" lon="6.8953832"><ele>0.0</ele><time>2026-04-30T22:33:35.056Z</time></trkpt><trkpt lat="43.153985" lon="6.8954797"><ele>0.0</ele><time>2026-04-30T22:33:36.056Z</time></trkpt><trkpt lat="43.154029" lon="6.8955761"><ele>0.0</ele><time>2026-04-30T22:33:37.055Z</time></trkpt><trkpt lat="43.1540709" lon="6.8956729"><ele>0.0</ele><time>2026-04-30T22:33:38.056Z</time></trkpt><trkpt lat="43.1541647" lon="6.8958668"><ele>0.0</ele><time>2026-04-30T22:33:40.056Z</time></trkpt><trkpt lat="43.1542166" lon="6.8959601"><ele>0.0</ele><time>2026-04-30T22:33:41.055Z</time></trkpt><trkpt lat="43.1542655" lon="6.8960586"><ele>0.0</ele><time>2026-04-30T22:33:42.055Z</time></trkpt><trkpt lat="43.154316" lon="6.8961523"><ele>0.0</ele><time>2026-04-30T22:33:43.056Z</time></trkpt><trkpt lat="43.154368" lon="6.896249"><ele>0.0</ele><time>2026-04-30T22:33:44.056Z</time></trkpt><trkpt lat="43.1544198" lon="6.8963416"><ele>0.0</ele><time>2026-04-30T22:33:45.055Z</time></trkpt><trkpt lat="43.1544715" lon="6.8964334"><ele>0.0</ele><time>2026-04-30T22:33:46.056Z</time></trkpt><trkpt lat="43.1545216" lon="6.8965253"><ele>0.0</ele><time>2026-04-30T22:33:47.055Z</time></trkpt><trkpt lat="43.1545776" lon="6.8966159"><ele>0.0</ele><time>2026-04-30T22:33:48.055Z</time></trkpt><trkpt lat="43.1546242" lon="6.8967066"><ele>0.0</ele><time>2026-04-30T22:33:49.056Z</time></trkpt><trkpt lat="43.1546734" lon="6.8968056"><ele>0.0</ele><time>2026-04-30T22:33:50.056Z</time></trkpt><trkpt lat="43.1547264" lon="6.8968984"><ele>0.0</ele><time>2026-04-30T22:33:51.056Z</time></trkpt><trkpt lat="43.1547763" lon="6.8969945"><ele>0.0</ele><time>2026-04-30T22:33:52.055Z</time></trkpt><trkpt lat="43.1548266" lon="6.897087"><ele>0.0</ele><time>2026-04-30T22:33:53.056Z</time></trkpt><trkpt lat="43.1548768" lon="6.8971832"><ele>0.0</ele><time>2026-04-30T22:33:54.055Z</time></trkpt><trkpt lat="43.1549379" lon="6.8972715"><ele>0.0</ele><time>2026-04-30T22:33:55.055Z</time></trkpt><trkpt lat="43.1549953" lon="6.8973609"><ele>0.0</ele><time>2026-04-30T22:33:56.055Z</time></trkpt><trkpt lat="43.1550509" lon="6.8974539"><ele>0.0</ele><time>2026-04-30T22:33:57.055Z</time></trkpt><trkpt lat="43.1551019" lon="6.8975466"><ele>0.0</ele><time>2026-04-30T22:33:58.055Z</time></trkpt><trkpt lat="43.155148" lon="6.8976395"><ele>0.0</ele><time>2026-04-30T22:33:59.055Z</time></trkpt><trkpt lat="43.155278" lon="6.8979241"><ele>0.0</ele><time>2026-04-30T22:34:02.055Z</time></trkpt><trkpt lat="43.155324" lon="6.8980197"><ele>0.0</ele><time>2026-04-30T22:34:03.056Z</time></trkpt><trkpt lat="43.1553709" lon="6.8981144"><ele>0.0</ele><time>2026-04-30T22:34:04.055Z</time></trkpt><trkpt lat="43.1554229" lon="6.8982082"><ele>0.0</ele><time>2026-04-30T22:34:05.055Z</time></trkpt><trkpt lat="43.1554762" lon="6.8982973"><ele>0.0</ele><time>2026-04-30T22:34:06.055Z</time></trkpt><trkpt lat="43.1555325" lon="6.8983855"><ele>0.0</ele><time>2026-04-30T22:34:07.056Z</time></trkpt><trkpt lat="43.1555776" lon="6.8984791"><ele>0.0</ele><time>2026-04-30T22:34:08.056Z</time></trkpt><trkpt lat="43.1556178" lon="6.898581"><ele>0.0</ele><time>2026-04-30T22:34:09.055Z</time></trkpt><trkpt lat="43.1556621" lon="6.8986784"><ele>0.0</ele><time>2026-04-30T22:34:10.055Z</time></trkpt><trkpt lat="43.1557118" lon="6.8987704"><ele>0.0</ele><time>2026-04-30T22:34:11.056Z</time></trkpt><trkpt lat="43.1557588" lon="6.8988659"><ele>0.0</ele><time>2026-04-30T22:34:12.056Z</time></trkpt><trkpt lat="43.1558114" lon="6.8989588"><ele>0.0</ele><time>2026-04-30T22:34:13.056Z</time></trkpt><trkpt lat="43.1558606" lon="6.8990516"><ele>0.0</ele><time>2026-04-30T22:34:14.056Z</time></trkpt><trkpt lat="43.1559094" lon="6.8991459"><ele>0.0</ele><time>2026-04-30T22:34:15.056Z</time></trkpt><trkpt lat="43.1559535" lon="6.8992449"><ele>0.0</ele><time>2026-04-30T22:34:16.055Z</time></trkpt><trkpt lat="43.1559951" lon="6.8993426"><ele>0.0</ele><time>2026-04-30T22:34:17.055Z</time></trkpt><trkpt lat="43.1560415" lon="6.8994322"><ele>0.0</ele><time>2026-04-30T22:34:18.055Z</time></trkpt><trkpt lat="43.15609" lon="6.8995234"><ele>0.0</ele><time>2026-04-30T22:34:19.056Z</time></trkpt><trkpt lat="43.156146" lon="6.8996108"><ele>0.0</ele><time>2026-04-30T22:34:20.055Z</time></trkpt><trkpt lat="43.1561972" lon="6.8996961"><ele>0.0</ele><time>2026-04-30T22:34:21.055Z</time></trkpt><trkpt lat="43.156293" lon="6.8998825"><ele>0.0</ele><time>2026-04-30T22:34:23.055Z</time></trkpt><trkpt lat="43.156342" lon="6.8999749"><ele>0.0</ele><time>2026-04-30T22:34:24.055Z</time></trkpt><trkpt lat="43.1563853" lon="6.900069"><ele>0.0</ele><time>2026-04-30T22:34:25.055Z</time></trkpt><trkpt lat="43.156437" lon="6.9001632"><ele>0.0</ele><time>2026-04-30T22:34:26.056Z</time></trkpt><trkpt lat="43.1564923" lon="6.9002609"><ele>0.0</ele><time>2026-04-30T22:34:27.056Z</time></trkpt><trkpt lat="43.1565471" lon="6.9003579"><ele>0.0</ele><time>2026-04-30T22:34:28.055Z</time></trkpt><trkpt lat="43.1565957" lon="6.9004548"><ele>0.0</ele><time>2026-04-30T22:34:29.056Z</time></trkpt><trkpt lat="43.156647" lon="6.9005553"><ele>0.0</ele><time>2026-04-30T22:34:30.055Z</time></trkpt><trkpt lat="43.1566929" lon="6.9006511"><ele>0.0</ele><time>2026-04-30T22:34:31.055Z</time></trkpt><trkpt lat="43.1567788" lon="6.9008458"><ele>0.0</ele><time>2026-04-30T22:34:33.055Z</time></trkpt><trkpt lat="43.156834" lon="6.9009399"><ele>0.0</ele><time>2026-04-30T22:34:34.055Z</time></trkpt><trkpt lat="43.1568936" lon="6.9010306"><ele>0.0</ele><time>2026-04-30T22:34:35.055Z</time></trkpt><trkpt lat="43.1569539" lon="6.90112"><ele>0.0</ele><time>2026-04-30T22:34:36.056Z</time></trkpt><trkpt lat="43.1570114" lon="6.9012116"><ele>0.0</ele><time>2026-04-30T22:34:37.056Z</time></trkpt><trkpt lat="43.1570624" lon="6.9013049"><ele>0.0</ele><time>2026-04-30T22:34:38.056Z</time></trkpt><trkpt lat="43.1571169" lon="6.9013952"><ele>0.0</ele><time>2026-04-30T22:34:39.056Z</time></trkpt><trkpt lat="43.1571676" lon="6.9014866"><ele>0.0</ele><time>2026-04-30T22:34:40.055Z</time></trkpt><trkpt lat="43.1572186" lon="6.9015812"><ele>0.0</ele><time>2026-04-30T22:34:41.056Z</time></trkpt><trkpt lat="43.1572719" lon="6.9016696"><ele>0.0</ele><time>2026-04-30T22:34:42.055Z</time></trkpt><trkpt lat="43.1573826" lon="6.9018342"><ele>0.0</ele><time>2026-04-30T22:34:44.055Z</time></trkpt><trkpt lat="43.1574348" lon="6.9019234"><ele>0.0</ele><time>2026-04-30T22:34:45.056Z</time></trkpt><trkpt lat="43.1575055" lon="6.9020022"><ele>0.0</ele><time>2026-04-30T22:34:46.056Z</time></trkpt><trkpt lat="43.1575555" lon="6.9021015"><ele>0.0</ele><time>2026-04-30T22:34:47.056Z</time></trkpt><trkpt lat="43.157608" lon="6.9021976"><ele>0.0</ele><time>2026-04-30T22:34:48.055Z</time></trkpt><trkpt lat="43.1576572" lon="6.9022954"><ele>0.0</ele><time>2026-04-30T22:34:49.055Z</time></trkpt><trkpt lat="43.1577045" lon="6.9023923"><ele>0.0</ele><time>2026-04-30T22:34:50.056Z</time></trkpt><trkpt lat="43.1577527" lon="6.9024905"><ele>0.0</ele><time>2026-04-30T22:34:51.056Z</time></trkpt><trkpt lat="43.1577978" lon="6.9025861"><ele>0.0</ele><time>2026-04-30T22:34:52.056Z</time></trkpt><trkpt lat="43.1578441" lon="6.9026813"><ele>0.0</ele><time>2026-04-30T22:34:53.056Z</time></trkpt><trkpt lat="43.1578874" lon="6.902778"><ele>0.0</ele><time>2026-04-30T22:34:54.056Z</time></trkpt><trkpt lat="43.1579385" lon="6.9028714"><ele>0.0</ele><time>2026-04-30T22:34:55.055Z</time></trkpt><trkpt lat="43.1579845" lon="6.9029658"><ele>0.0</ele><time>2026-04-30T22:34:56.055Z</time></trkpt><trkpt lat="43.1580339" lon="6.9030597"><ele>0.0</ele><time>2026-04-30T22:34:57.055Z</time></trkpt><trkpt lat="43.1580849" lon="6.9031513"><ele>0.0</ele><time>2026-04-30T22:34:58.055Z</time></trkpt><trkpt lat="43.1581339" lon="6.9032446"><ele>0.0</ele><time>2026-04-30T22:34:59.056Z</time></trkpt><trkpt lat="43.1581798" lon="6.9033366"><ele>0.0</ele><time>2026-04-30T22:35:00.055Z</time></trkpt><trkpt lat="43.1582261" lon="6.9034349"><ele>0.0</ele><time>2026-04-30T22:35:01.056Z</time></trkpt><trkpt lat="43.1582741" lon="6.9035267"><ele>0.0</ele><time>2026-04-30T22:35:02.055Z</time></trkpt><trkpt lat="43.1583178" lon="6.9036214"><ele>0.0</ele><time>2026-04-30T22:35:03.055Z</time></trkpt><trkpt lat="43.1584536" lon="6.903913"><ele>0.0</ele><time>2026-04-30T22:35:06.055Z</time></trkpt><trkpt lat="43.1585005" lon="6.9040123"><ele>0.0</ele><time>2026-04-30T22:35:07.055Z</time></trkpt><trkpt lat="43.1585445" lon="6.9041096"><ele>0.0</ele><time>2026-04-30T22:35:08.055Z</time></trkpt><trkpt lat="43.1585901" lon="6.9042033"><ele>0.0</ele><time>2026-04-30T22:35:09.056Z</time></trkpt><trkpt lat="43.1586409" lon="6.9042911"><ele>0.0</ele><time>2026-04-30T22:35:10.056Z</time></trkpt><trkpt lat="43.1586883" lon="6.9043844"><ele>0.0</ele><time>2026-04-30T22:35:11.056Z</time></trkpt><trkpt lat="43.1587368" lon="6.904481"><ele>0.0</ele><time>2026-04-30T22:35:12.055Z</time></trkpt><trkpt lat="43.1587812" lon="6.9045824"><ele>0.0</ele><time>2026-04-30T22:35:13.056Z</time></trkpt><trkpt lat="43.1588283" lon="6.9046768"><ele>0.0</ele><time>2026-04-30T22:35:14.055Z</time></trkpt><trkpt lat="43.158877" lon="6.9047721"><ele>0.0</ele><time>2026-04-30T22:35:15.055Z</time></trkpt><trkpt lat="43.1589234" lon="6.9048695"><ele>0.0</ele><time>2026-04-30T22:35:16.056Z</time></trkpt><trkpt lat="43.158972" lon="6.904963"><ele>0.0</ele><time>2026-04-30T22:35:17.056Z</time></trkpt><trkpt lat="43.1590191" lon="6.905059"><ele>0.0</ele><time>2026-04-30T22:35:18.055Z</time></trkpt><trkpt lat="43.1590682" lon="6.9051543"><ele>0.0</ele><time>2026-04-30T22:35:19.055Z</time></trkpt><trkpt lat="43.1591195" lon="6.9052508"><ele>0.0</ele><time>2026-04-30T22:35:20.056Z</time></trkpt><trkpt lat="43.1591687" lon="6.9053477"><ele>0.0</ele><time>2026-04-30T22:35:21.055Z</time></trkpt><trkpt lat="43.1592214" lon="6.9054416"><ele>0.0</ele><time>2026-04-30T22:35:22.056Z</time></trkpt><trkpt lat="43.159275" lon="6.9055318"><ele>0.0</ele><time>2026-04-30T22:35:23.055Z</time></trkpt><trkpt lat="43.1593266" lon="6.9056217"><ele>0.0</ele><time>2026-04-30T22:35:24.055Z</time></trkpt><trkpt lat="43.1593781" lon="6.9057119"><ele>0.0</ele><time>2026-04-30T22:35:25.055Z</time></trkpt><trkpt lat="43.159474" lon="6.9058981"><ele>0.0</ele><time>2026-04-30T22:35:27.055Z</time></trkpt><trkpt lat="43.1595193" lon="6.9059886"><ele>0.0</ele><time>2026-04-30T22:35:28.056Z</time></trkpt><trkpt lat="43.1595686" lon="6.9060787"><ele>0.0</ele><time>2026-04-30T22:35:29.055Z</time></trkpt><trkpt lat="43.1596188" lon="6.906176"><ele>0.0</ele><time>2026-04-30T22:35:30.056Z</time></trkpt><trkpt lat="43.1596701" lon="6.9062658"><ele>0.0</ele><time>2026-04-30T22:35:31.056Z</time></trkpt><trkpt lat="43.1597244" lon="6.906356"><ele>0.0</ele><time>2026-04-30T22:35:32.056Z</time></trkpt><trkpt lat="43.1597771" lon="6.9064509"><ele>0.0</ele><time>2026-04-30T22:35:33.056Z</time></trkpt><trkpt lat="43.1598339" lon="6.9065432"><ele>0.0</ele><time>2026-04-30T22:35:34.056Z</time></trkpt><trkpt lat="43.1598839" lon="6.906639"><ele>0.0</ele><time>2026-04-30T22:35:35.056Z</time></trkpt><trkpt lat="43.1599318" lon="6.9067324"><ele>0.0</ele><time>2026-04-30T22:35:36.055Z</time></trkpt><trkpt lat="43.1600291" lon="6.9069148"><ele>0.0</ele><time>2026-04-30T22:35:38.055Z</time></trkpt><trkpt lat="43.1600763" lon="6.9070081"><ele>0.0</ele><time>2026-04-30T22:35:39.056Z</time></trkpt><trkpt lat="43.1601284" lon="6.9070991"><ele>0.0</ele><time>2026-04-30T22:35:40.055Z</time></trkpt><trkpt lat="43.1601769" lon="6.9071947"><ele>0.0</ele><time>2026-04-30T22:35:41.055Z</time></trkpt><trkpt lat="43.1602235" lon="6.9072845"><ele>0.0</ele><time>2026-04-30T22:35:42.055Z</time></trkpt><trkpt lat="43.1602746" lon="6.9073729"><ele>0.0</ele><time>2026-04-30T22:35:43.056Z</time></trkpt><trkpt lat="43.1603373" lon="6.9074553"><ele>0.0</ele><time>2026-04-30T22:35:44.056Z</time></trkpt><trkpt lat="43.160391" lon="6.9075452"><ele>0.0</ele><time>2026-04-30T22:35:45.056Z</time></trkpt><trkpt lat="43.1604391" lon="6.9076495"><ele>0.0</ele><time>2026-04-30T22:35:46.055Z</time></trkpt><trkpt lat="43.1605458" lon="6.9078398"><ele>0.0</ele><time>2026-04-30T22:35:48.056Z</time></trkpt><trkpt lat="43.1605988" lon="6.9079344"><ele>0.0</ele><time>2026-04-30T22:35:49.055Z</time></trkpt><trkpt lat="43.1606526" lon="6.9080292"><ele>0.0</ele><time>2026-04-30T22:35:50.055Z</time></trkpt><trkpt lat="43.1607021" lon="6.90812"><ele>0.0</ele><time>2026-04-30T22:35:51.056Z</time></trkpt><trkpt lat="43.1607563" lon="6.9082145"><ele>0.0</ele><time>2026-04-30T22:35:52.055Z</time></trkpt><trkpt lat="43.1608041" lon="6.9083141"><ele>0.0</ele><time>2026-04-30T22:35:53.056Z</time></trkpt><trkpt lat="43.1608522" lon="6.9084067"><ele>0.0</ele><time>2026-04-30T22:35:54.056Z</time></trkpt><trkpt lat="43.1608992" lon="6.9085012"><ele>0.0</ele><time>2026-04-30T22:35:55.055Z</time></trkpt><trkpt lat="43.1609429" lon="6.9085936"><ele>0.0</ele><time>2026-04-30T22:35:56.055Z</time></trkpt><trkpt lat="43.1609878" lon="6.9086871"><ele>0.0</ele><time>2026-04-30T22:35:57.056Z</time></trkpt><trkpt lat="43.1610384" lon="6.9087772"><ele>0.0</ele><time>2026-04-30T22:35:58.055Z</time></trkpt><trkpt lat="43.161092" lon="6.9088668"><ele>0.0</ele><time>2026-04-30T22:35:59.056Z</time></trkpt><trkpt lat="43.1611461" lon="6.9089551"><ele>0.0</ele><time>2026-04-30T22:36:00.056Z</time></trkpt><trkpt lat="43.1611933" lon="6.9090517"><ele>0.0</ele><time>2026-04-30T22:36:01.056Z</time></trkpt><trkpt lat="43.1612331" lon="6.9091486"><ele>0.0</ele><time>2026-04-30T22:36:02.055Z</time></trkpt><trkpt lat="43.1612751" lon="6.9092456"><ele>0.0</ele><time>2026-04-30T22:36:03.056Z</time></trkpt><trkpt lat="43.1613165" lon="6.909337"><ele>0.0</ele><time>2026-04-30T22:36:04.056Z</time></trkpt><trkpt lat="43.1613621" lon="6.9094358"><ele>0.0</ele><time>2026-04-30T22:36:05.056Z</time></trkpt><trkpt lat="43.1614056" lon="6.9095338"><ele>0.0</ele><time>2026-04-30T22:36:06.056Z</time></trkpt><trkpt lat="43.1614508" lon="6.909631"><ele>0.0</ele><time>2026-04-30T22:36:07.055Z</time></trkpt><trkpt lat="43.1615474" lon="6.9098283"><ele>0.0</ele><time>2026-04-30T22:36:09.055Z</time></trkpt><trkpt lat="43.1616515" lon="6.910006"><ele>0.0</ele><time>2026-04-30T22:36:11.055Z</time></trkpt><trkpt lat="43.1617048" lon="6.9100953"><ele>0.0</ele><time>2026-04-30T22:36:12.055Z</time></trkpt><trkpt lat="43.1617565" lon="6.910184"><ele>0.0</ele><time>2026-04-30T22:36:13.055Z</time></trkpt><trkpt lat="43.1618026" lon="6.9102791"><ele>0.0</ele><time>2026-04-30T22:36:14.055Z</time></trkpt><trkpt lat="43.1618488" lon="6.9103777"><ele>0.0</ele><time>2026-04-30T22:36:15.056Z</time></trkpt><trkpt lat="43.1619036" lon="6.9104691"><ele>0.0</ele><time>2026-04-30T22:36:16.055Z</time></trkpt><trkpt lat="43.1619551" lon="6.9105634"><ele>0.0</ele><time>2026-04-30T22:36:17.055Z</time></trkpt><trkpt lat="43.1620068" lon="6.9106569"><ele>0.0</ele><time>2026-04-30T22:36:18.056Z</time></trkpt><trkpt lat="43.1620552" lon="6.9107472"><ele>0.0</ele><time>2026-04-30T22:36:19.055Z</time></trkpt><trkpt lat="43.1620994" lon="6.9108418"><ele>0.0</ele><time>2026-04-30T22:36:20.056Z</time></trkpt><trkpt lat="43.1621498" lon="6.9109322"><ele>0.0</ele><time>2026-04-30T22:36:21.055Z</time></trkpt><trkpt lat="43.1621987" lon="6.9110246"><ele>0.0</ele><time>2026-04-30T22:36:22.055Z</time></trkpt><trkpt lat="43.1622531" lon="6.911114"><ele>0.0</ele><time>2026-04-30T22:36:23.055Z</time></trkpt><trkpt lat="43.1622997" lon="6.9112024"><ele>0.0</ele><time>2026-04-30T22:36:24.055Z</time></trkpt><trkpt lat="43.1623442" lon="6.9112951"><ele>0.0</ele><time>2026-04-30T22:36:25.056Z</time></trkpt><trkpt lat="43.162385" lon="6.9113872"><ele>0.0</ele><time>2026-04-30T22:36:26.056Z</time></trkpt><trkpt lat="43.1624352" lon="6.9114759"><ele>0.0</ele><time>2026-04-30T22:36:27.056Z</time></trkpt><trkpt lat="43.1624839" lon="6.9115744"><ele>0.0</ele><time>2026-04-30T22:36:28.055Z</time></trkpt><trkpt lat="43.1625829" lon="6.9117643"><ele>0.0</ele><time>2026-04-30T22:36:30.055Z</time></trkpt><trkpt lat="43.1626362" lon="6.9118571"><ele>0.0</ele><time>2026-04-30T22:36:31.055Z</time></trkpt><trkpt lat="43.1626782" lon="6.9119583"><ele>0.0</ele><time>2026-04-30T22:36:32.056Z</time></trkpt><trkpt lat="43.1627264" lon="6.9120589"><ele>0.0</ele><time>2026-04-30T22:36:33.055Z</time></trkpt><trkpt lat="43.1627794" lon="6.9121561"><ele>0.0</ele><time>2026-04-30T22:36:34.055Z</time></trkpt><trkpt lat="43.1628273" lon="6.9122536"><ele>0.0</ele><time>2026-04-30T22:36:35.056Z</time></trkpt><trkpt lat="43.1628718" lon="6.912355"><ele>0.0</ele><time>2026-04-30T22:36:36.056Z</time></trkpt><trkpt lat="43.1629219" lon="6.9124493"><ele>0.0</ele><time>2026-04-30T22:36:37.056Z</time></trkpt><trkpt lat="43.1629689" lon="6.9125448"><ele>0.0</ele><time>2026-04-30T22:36:38.056Z</time></trkpt><trkpt lat="43.1630194" lon="6.9126368"><ele>0.0</ele><time>2026-04-30T22:36:39.055Z</time></trkpt><trkpt lat="43.1630726" lon="6.9127328"><ele>0.0</ele><time>2026-04-30T22:36:40.055Z</time></trkpt><trkpt lat="43.1631215" lon="6.9128279"><ele>0.0</ele><time>2026-04-30T22:36:41.056Z</time></trkpt><trkpt lat="43.1632105" lon="6.9130078"><ele>0.0</ele><time>2026-04-30T22:36:43.055Z</time></trkpt><trkpt lat="43.1632559" lon="6.9130971"><ele>0.0</ele><time>2026-04-30T22:36:44.055Z</time></trkpt><trkpt lat="43.163302" lon="6.9131901"><ele>0.0</ele><time>2026-04-30T22:36:45.056Z</time></trkpt><trkpt lat="43.1633486" lon="6.913293"><ele>0.0</ele><time>2026-04-30T22:36:46.056Z</time></trkpt><trkpt lat="43.1633909" lon="6.9133932"><ele>0.0</ele><time>2026-04-30T22:36:47.056Z</time></trkpt><trkpt lat="43.163443" lon="6.9134897"><ele>0.0</ele><time>2026-04-30T22:36:48.056Z</time></trkpt><trkpt lat="43.1634887" lon="6.9135895"><ele>0.0</ele><time>2026-04-30T22:36:49.055Z</time></trkpt><trkpt lat="43.1635866" lon="6.9137804"><ele>0.0</ele><time>2026-04-30T22:36:51.056Z</time></trkpt><trkpt lat="43.1636438" lon="6.9138718"><ele>0.0</ele><time>2026-04-30T22:36:52.055Z</time></trkpt><trkpt lat="43.1636952" lon="6.9139664"><ele>0.0</ele><time>2026-04-30T22:36:53.055Z</time></trkpt><trkpt lat="43.1637435" lon="6.9140628"><ele>0.0</ele><time>2026-04-30T22:36:54.056Z</time></trkpt><trkpt lat="43.1637906" lon="6.914162"><ele>0.0</ele><time>2026-04-30T22:36:55.055Z</time></trkpt><trkpt lat="43.1638416" lon="6.9142563"><ele>0.0</ele><time>2026-04-30T22:36:56.056Z</time></trkpt><trkpt lat="43.1639019" lon="6.914347"><ele>0.0</ele><time>2026-04-30T22:36:57.055Z</time></trkpt><trkpt lat="43.1639554" lon="6.9144403"><ele>0.0</ele><time>2026-04-30T22:36:58.055Z</time></trkpt><trkpt lat="43.1640024" lon="6.9145323"><ele>0.0</ele><time>2026-04-30T22:36:59.056Z</time></trkpt><trkpt lat="43.1640526" lon="6.9146189"><ele>0.0</ele><time>2026-04-30T22:37:00.055Z</time></trkpt><trkpt lat="43.1640993" lon="6.914704"><ele>0.0</ele><time>2026-04-30T22:37:01.055Z</time></trkpt><trkpt lat="43.1641445" lon="6.9147949"><ele>0.0</ele><time>2026-04-30T22:37:02.056Z</time></trkpt><trkpt lat="43.1641883" lon="6.9148892"><ele>0.0</ele><time>2026-04-30T22:37:03.056Z</time></trkpt><trkpt lat="43.1642237" lon="6.9149889"><ele>0.0</ele><time>2026-04-30T22:37:04.055Z</time></trkpt><trkpt lat="43.1642663" lon="6.9150862"><ele>0.0</ele><time>2026-04-30T22:37:05.055Z</time></trkpt><trkpt lat="43.1643124" lon="6.9151843"><ele>0.0</ele><time>2026-04-30T22:37:06.056Z</time></trkpt><trkpt lat="43.1643601" lon="6.9152742"><ele>0.0</ele><time>2026-04-30T22:37:07.056Z</time></trkpt><trkpt lat="43.1644057" lon="6.9153669"><ele>0.0</ele><time>2026-04-30T22:37:08.055Z</time></trkpt><trkpt lat="43.1644507" lon="6.9154646"><ele>0.0</ele><time>2026-04-30T22:37:09.056Z</time></trkpt><trkpt lat="43.1644971" lon="6.9155595"><ele>0.0</ele><time>2026-04-30T22:37:10.056Z</time></trkpt><trkpt lat="43.1645966" lon="6.915761"><ele>0.0</ele><time>2026-04-30T22:37:12.055Z</time></trkpt><trkpt lat="43.1646466" lon="6.9158534"><ele>0.0</ele><time>2026-04-30T22:37:13.055Z</time></trkpt><trkpt lat="43.1647544" lon="6.9160463"><ele>0.0</ele><time>2026-04-30T22:37:15.056Z</time></trkpt><trkpt lat="43.1647966" lon="6.9161511"><ele>0.0</ele><time>2026-04-30T22:37:16.055Z</time></trkpt><trkpt lat="43.1648385" lon="6.9162549"><ele>0.0</ele><time>2026-04-30T22:37:17.055Z</time></trkpt><trkpt lat="43.1648879" lon="6.91635"><ele>0.0</ele><time>2026-04-30T22:37:18.055Z</time></trkpt><trkpt lat="43.1649399" lon="6.9164486"><ele>0.0</ele><time>2026-04-30T22:37:19.056Z</time></trkpt><trkpt lat="43.1649875" lon="6.9165488"><ele>0.0</ele><time>2026-04-30T22:37:20.055Z</time></trkpt><trkpt lat="43.1650366" lon="6.916649"><ele>0.0</ele><time>2026-04-30T22:37:21.055Z</time></trkpt><trkpt lat="43.1650871" lon="6.9167407"><ele>0.0</ele><time>2026-04-30T22:37:22.056Z</time></trkpt><trkpt lat="43.1651399" lon="6.9168347"><ele>0.0</ele><time>2026-04-30T22:37:23.055Z</time></trkpt><trkpt lat="43.1651931" lon="6.9169256"><ele>0.0</ele><time>2026-04-30T22:37:24.055Z</time></trkpt><trkpt lat="43.1652369" lon="6.9170182"><ele>0.0</ele><time>2026-04-30T22:37:25.056Z</time></trkpt><trkpt lat="43.1652834" lon="6.9171058"><ele>0.0</ele><time>2026-04-30T22:37:26.055Z</time></trkpt><trkpt lat="43.1653322" lon="6.9171952"><ele>0.0</ele><time>2026-04-30T22:37:27.056Z</time></trkpt><trkpt lat="43.1653774" lon="6.9172897"><ele>0.0</ele><time>2026-04-30T22:37:28.056Z</time></trkpt><trkpt lat="43.1654234" lon="6.9173834"><ele>0.0</ele><time>2026-04-30T22:37:29.056Z</time></trkpt><trkpt lat="43.1654674" lon="6.9174753"><ele>0.0</ele><time>2026-04-30T22:37:30.056Z</time></trkpt><trkpt lat="43.1655155" lon="6.9175682"><ele>0.0</ele><time>2026-04-30T22:37:31.055Z</time></trkpt><trkpt lat="43.1656058" lon="6.9177486"><ele>0.0</ele><time>2026-04-30T22:37:33.056Z</time></trkpt><trkpt lat="43.1656483" lon="6.9178384"><ele>0.0</ele><time>2026-04-30T22:37:34.055Z</time></trkpt><trkpt lat="43.1656899" lon="6.9179314"><ele>0.0</ele><time>2026-04-30T22:37:35.056Z</time></trkpt><trkpt lat="43.1657356" lon="6.9180319"><ele>0.0</ele><time>2026-04-30T22:37:36.055Z</time></trkpt><trkpt lat="43.1657796" lon="6.9181278"><ele>0.0</ele><time>2026-04-30T22:37:37.056Z</time></trkpt><trkpt lat="43.1658254" lon="6.9182244"><ele>0.0</ele><time>2026-04-30T22:37:38.055Z</time></trkpt><trkpt lat="43.1658815" lon="6.9183198"><ele>0.0</ele><time>2026-04-30T22:37:39.055Z</time></trkpt><trkpt lat="43.1659405" lon="6.9184182"><ele>0.0</ele><time>2026-04-30T22:37:40.056Z</time></trkpt><trkpt lat="43.1659936" lon="6.9185087"><ele>0.0</ele><time>2026-04-30T22:37:41.055Z</time></trkpt><trkpt lat="43.1660408" lon="6.9185999"><ele>0.0</ele><time>2026-04-30T22:37:42.055Z</time></trkpt><trkpt lat="43.1660959" lon="6.9186973"><ele>0.0</ele><time>2026-04-30T22:37:43.055Z</time></trkpt><trkpt lat="43.1661383" lon="6.9187957"><ele>0.0</ele><time>2026-04-30T22:37:44.056Z</time></trkpt><trkpt lat="43.1661884" lon="6.9188882"><ele>0.0</ele><time>2026-04-30T22:37:45.056Z</time></trkpt><trkpt lat="43.1662875" lon="6.9190765"><ele>0.0</ele><time>2026-04-30T22:37:47.055Z</time></trkpt><trkpt lat="43.1663369" lon="6.9191655"><ele>0.0</ele><time>2026-04-30T22:37:48.056Z</time></trkpt><trkpt lat="43.1663858" lon="6.9192557"><ele>0.0</ele><time>2026-04-30T22:37:49.055Z</time></trkpt><trkpt lat="43.1664337" lon="6.9193472"><ele>0.0</ele><time>2026-04-30T22:37:50.056Z</time></trkpt><trkpt lat="43.166482" lon="6.9194402"><ele>0.0</ele><time>2026-04-30T22:37:51.056Z</time></trkpt><trkpt lat="43.1665345" lon="6.9195349"><ele>0.0</ele><time>2026-04-30T22:37:52.056Z</time></trkpt><trkpt lat="43.1666275" lon="6.919727"><ele>0.0</ele><time>2026-04-30T22:37:54.055Z</time></trkpt><trkpt lat="43.1666754" lon="6.9198236"><ele>0.0</ele><time>2026-04-30T22:37:55.056Z</time></trkpt><trkpt lat="43.1667289" lon="6.9199172"><ele>0.0</ele><time>2026-04-30T22:37:56.056Z</time></trkpt><trkpt lat="43.1667782" lon="6.9200104"><ele>0.0</ele><time>2026-04-30T22:37:57.055Z</time></trkpt><trkpt lat="43.1668362" lon="6.9200979"><ele>0.0</ele><time>2026-04-30T22:37:58.055Z</time></trkpt><trkpt lat="43.1668927" lon="6.9201888"><ele>0.0</ele><time>2026-04-30T22:37:59.055Z</time></trkpt><trkpt lat="43.1669489" lon="6.9202777"><ele>0.0</ele><time>2026-04-30T22:38:00.056Z</time></trkpt><trkpt lat="43.1670024" lon="6.9203648"><ele>0.0</ele><time>2026-04-30T22:38:01.056Z</time></trkpt><trkpt lat="43.1670576" lon="6.920454"><ele>0.0</ele><time>2026-04-30T22:38:02.055Z</time></trkpt><trkpt lat="43.1671123" lon="6.9205453"><ele>0.0</ele><time>2026-04-30T22:38:03.056Z</time></trkpt><trkpt lat="43.1671651" lon="6.9206351"><ele>0.0</ele><time>2026-04-30T22:38:04.055Z</time></trkpt><trkpt lat="43.1672123" lon="6.9207294"><ele>0.0</ele><time>2026-04-30T22:38:05.055Z</time></trkpt><trkpt lat="43.1672603" lon="6.9208303"><ele>0.0</ele><time>2026-04-30T22:38:06.054Z</time></trkpt><trkpt lat="43.1673097" lon="6.9209254"><ele>0.0</ele><time>2026-04-30T22:38:07.054Z</time></trkpt><trkpt lat="43.1673556" lon="6.9210155"><ele>0.0</ele><time>2026-04-30T22:38:08.054Z</time></trkpt><trkpt lat="43.1674022" lon="6.9211121"><ele>0.0</ele><time>2026-04-30T22:38:09.054Z</time></trkpt><trkpt lat="43.167452" lon="6.9212065"><ele>0.0</ele><time>2026-04-30T22:38:10.055Z</time></trkpt><trkpt lat="43.1674948" lon="6.9213014"><ele>0.0</ele><time>2026-04-30T22:38:11.054Z</time></trkpt><trkpt lat="43.1675363" lon="6.9213957"><ele>0.0</ele><time>2026-04-30T22:38:12.055Z</time></trkpt><trkpt lat="43.1675796" lon="6.9214958"><ele>0.0</ele><time>2026-04-30T22:38:13.054Z</time></trkpt><trkpt lat="43.1676687" lon="6.921681"><ele>0.0</ele><time>2026-04-30T22:38:15.054Z</time></trkpt><trkpt lat="43.1677129" lon="6.9217809"><ele>0.0</ele><time>2026-04-30T22:38:16.054Z</time></trkpt><trkpt lat="43.1677564" lon="6.9218776"><ele>0.0</ele><time>2026-04-30T22:38:17.055Z</time></trkpt><trkpt lat="43.1678505" lon="6.9220697"><ele>0.0</ele><time>2026-04-30T22:38:19.054Z</time></trkpt><trkpt lat="43.167899" lon="6.9221674"><ele>0.0</ele><time>2026-04-30T22:38:20.054Z</time></trkpt><trkpt lat="43.1679395" lon="6.9222723"><ele>0.0</ele><time>2026-04-30T22:38:21.055Z</time></trkpt><trkpt lat="43.1679869" lon="6.9223686"><ele>0.0</ele><time>2026-04-30T22:38:22.055Z</time></trkpt><trkpt lat="43.1680319" lon="6.9224636"><ele>0.0</ele><time>2026-04-30T22:38:23.054Z</time></trkpt><trkpt lat="43.1680846" lon="6.9225543"><ele>0.0</ele><time>2026-04-30T22:38:24.055Z</time></trkpt><trkpt lat="43.168132" lon="6.9226521"><ele>0.0</ele><time>2026-04-30T22:38:25.054Z</time></trkpt><trkpt lat="43.1681725" lon="6.9227473"><ele>0.0</ele><time>2026-04-30T22:38:26.054Z</time></trkpt><trkpt lat="43.1682256" lon="6.9228362"><ele>0.0</ele><time>2026-04-30T22:38:27.055Z</time></trkpt><trkpt lat="43.1682725" lon="6.9229342"><ele>0.0</ele><time>2026-04-30T22:38:28.055Z</time></trkpt><trkpt lat="43.1683229" lon="6.9230278"><ele>0.0</ele><time>2026-04-30T22:38:29.054Z</time></trkpt><trkpt lat="43.1683761" lon="6.9231226"><ele>0.0</ele><time>2026-04-30T22:38:30.054Z</time></trkpt><trkpt lat="43.1684263" lon="6.92322"><ele>0.0</ele><time>2026-04-30T22:38:31.054Z</time></trkpt><trkpt lat="43.1684698" lon="6.9233134"><ele>0.0</ele><time>2026-04-30T22:38:32.055Z</time></trkpt><trkpt lat="43.16852" lon="6.9234056"><ele>0.0</ele><time>2026-04-30T22:38:33.054Z</time></trkpt><trkpt lat="43.1685713" lon="6.923497"><ele>0.0</ele><time>2026-04-30T22:38:34.054Z</time></trkpt><trkpt lat="43.1686728" lon="6.9236791"><ele>0.0</ele><time>2026-04-30T22:38:36.054Z</time></trkpt><trkpt lat="43.1687264" lon="6.9237724"><ele>0.0</ele><time>2026-04-30T22:38:37.055Z</time></trkpt><trkpt lat="43.1687772" lon="6.9238676"><ele>0.0</ele><time>2026-04-30T22:38:38.054Z</time></trkpt><trkpt lat="43.1688285" lon="6.9239599"><ele>0.0</ele><time>2026-04-30T22:38:39.054Z</time></trkpt><trkpt lat="43.1688786" lon="6.9240572"><ele>0.0</ele><time>2026-04-30T22:38:40.055Z</time></trkpt><trkpt lat="43.1689273" lon="6.9241559"><ele>0.0</ele><time>2026-04-30T22:38:41.054Z</time></trkpt><trkpt lat="43.1689798" lon="6.9242443"><ele>0.0</ele><time>2026-04-30T22:38:42.054Z</time></trkpt><trkpt lat="43.1690291" lon="6.9243383"><ele>0.0</ele><time>2026-04-30T22:38:43.055Z</time></trkpt><trkpt lat="43.1690771" lon="6.9244319"><ele>0.0</ele><time>2026-04-30T22:38:44.054Z</time></trkpt><trkpt lat="43.1691295" lon="6.924526"><ele>0.0</ele><time>2026-04-30T22:38:45.055Z</time></trkpt><trkpt lat="43.1691798" lon="6.9246213"><ele>0.0</ele><time>2026-04-30T22:38:46.054Z</time></trkpt><trkpt lat="43.1692246" lon="6.9247146"><ele>0.0</ele><time>2026-04-30T22:38:47.055Z</time></trkpt><trkpt lat="43.169272" lon="6.9248109"><ele>0.0</ele><time>2026-04-30T22:38:48.054Z</time></trkpt><trkpt lat="43.1693158" lon="6.9249065"><ele>0.0</ele><time>2026-04-30T22:38:49.055Z</time></trkpt><trkpt lat="43.1693665" lon="6.9249938"><ele>0.0</ele><time>2026-04-30T22:38:50.054Z</time></trkpt><trkpt lat="43.1694685" lon="6.925173"><ele>0.0</ele><time>2026-04-30T22:38:52.055Z</time></trkpt><trkpt lat="43.1695189" lon="6.9252657"><ele>0.0</ele><time>2026-04-30T22:38:53.054Z</time></trkpt><trkpt lat="43.1695736" lon="6.9253549"><ele>0.0</ele><time>2026-04-30T22:38:54.054Z</time></trkpt><trkpt lat="43.169627" lon="6.925445"><ele>0.0</ele><time>2026-04-30T22:38:55.055Z</time></trkpt><trkpt lat="43.1697216" lon="6.9256437"><ele>0.0</ele><time>2026-04-30T22:38:57.055Z</time></trkpt><trkpt lat="43.1697711" lon="6.9257387"><ele>0.0</ele><time>2026-04-30T22:38:58.054Z</time></trkpt><trkpt lat="43.1698152" lon="6.9258392"><ele>0.0</ele><time>2026-04-30T22:38:59.055Z</time></trkpt><trkpt lat="43.1698643" lon="6.9259355"><ele>0.0</ele><time>2026-04-30T22:39:00.055Z</time></trkpt><trkpt lat="43.1699115" lon="6.9260304"><ele>0.0</ele><time>2026-04-30T22:39:01.054Z</time></trkpt><trkpt lat="43.169957" lon="6.9261252"><ele>0.0</ele><time>2026-04-30T22:39:02.054Z</time></trkpt><trkpt lat="43.170002" lon="6.9262228"><ele>0.0</ele><time>2026-04-30T22:39:03.054Z</time></trkpt><trkpt lat="43.1700553" lon="6.9263141"><ele>0.0</ele><time>2026-04-30T22:39:04.055Z</time></trkpt><trkpt lat="43.1701077" lon="6.9264059"><ele>0.0</ele><time>2026-04-30T22:39:05.055Z</time></trkpt><trkpt lat="43.1701566" lon="6.9264997"><ele>0.0</ele><time>2026-04-30T22:39:06.054Z</time></trkpt><trkpt lat="43.1702046" lon="6.9265932"><ele>0.0</ele><time>2026-04-30T22:39:07.055Z</time></trkpt><trkpt lat="43.1702546" lon="6.926688"><ele>0.0</ele><time>2026-04-30T22:39:08.055Z</time></trkpt><trkpt lat="43.1703006" lon="6.9267871"><ele>0.0</ele><time>2026-04-30T22:39:09.054Z</time></trkpt><trkpt lat="43.1703441" lon="6.9268858"><ele>0.0</ele><time>2026-04-30T22:39:10.054Z</time></trkpt><trkpt lat="43.1703904" lon="6.9269801"><ele>0.0</ele><time>2026-04-30T22:39:11.055Z</time></trkpt><trkpt lat="43.17044" lon="6.9270725"><ele>0.0</ele><time>2026-04-30T22:39:12.055Z</time></trkpt><trkpt lat="43.1704895" lon="6.9271598"><ele>0.0</ele><time>2026-04-30T22:39:13.054Z</time></trkpt><trkpt lat="43.1705381" lon="6.9272527"><ele>0.0</ele><time>2026-04-30T22:39:14.055Z</time></trkpt><trkpt lat="43.170586" lon="6.9273533"><ele>0.0</ele><time>2026-04-30T22:39:15.055Z</time></trkpt><trkpt lat="43.1706329" lon="6.9274487"><ele>0.0</ele><time>2026-04-30T22:39:16.055Z</time></trkpt><trkpt lat="43.1707123" lon="6.9276468"><ele>0.0</ele><time>2026-04-30T22:39:18.054Z</time></trkpt><trkpt lat="43.1707606" lon="6.9277373"><ele>0.0</ele><time>2026-04-30T22:39:19.055Z</time></trkpt><trkpt lat="43.1708091" lon="6.9278287"><ele>0.0</ele><time>2026-04-30T22:39:20.055Z</time></trkpt><trkpt lat="43.1708515" lon="6.9279202"><ele>0.0</ele><time>2026-04-30T22:39:21.054Z</time></trkpt><trkpt lat="43.1708984" lon="6.9280128"><ele>0.0</ele><time>2026-04-30T22:39:22.054Z</time></trkpt><trkpt lat="43.1709809" lon="6.9282004"><ele>0.0</ele><time>2026-04-30T22:39:24.055Z</time></trkpt><trkpt lat="43.1710188" lon="6.9282972"><ele>0.0</ele><time>2026-04-30T22:39:25.055Z</time></trkpt><trkpt lat="43.1710696" lon="6.9283841"><ele>0.0</ele><time>2026-04-30T22:39:26.054Z</time></trkpt><trkpt lat="43.1711213" lon="6.9284739"><ele>0.0</ele><time>2026-04-30T22:39:27.055Z</time></trkpt><trkpt lat="43.1711761" lon="6.9285634"><ele>0.0</ele><time>2026-04-30T22:39:28.054Z</time></trkpt><trkpt lat="43.1712311" lon="6.9286606"><ele>0.0</ele><time>2026-04-30T22:39:29.054Z</time></trkpt><trkpt lat="43.1712786" lon="6.9287552"><ele>0.0</ele><time>2026-04-30T22:39:30.055Z</time></trkpt><trkpt lat="43.1713253" lon="6.9288537"><ele>0.0</ele><time>2026-04-30T22:39:31.055Z</time></trkpt><trkpt lat="43.1713692" lon="6.9289522"><ele>0.0</ele><time>2026-04-30T22:39:32.055Z</time></trkpt><trkpt lat="43.171414" lon="6.9290495"><ele>0.0</ele><time>2026-04-30T22:39:33.055Z</time></trkpt><trkpt lat="43.1714645" lon="6.9291474"><ele>0.0</ele><time>2026-04-30T22:39:34.054Z</time></trkpt><trkpt lat="43.1715204" lon="6.9292447"><ele>0.0</ele><time>2026-04-30T22:39:35.055Z</time></trkpt><trkpt lat="43.1715743" lon="6.9293385"><ele>0.0</ele><time>2026-04-30T22:39:36.055Z</time></trkpt><trkpt lat="43.1716349" lon="6.9294291"><ele>0.0</ele><time>2026-04-30T22:39:37.055Z</time></trkpt><trkpt lat="43.1717315" lon="6.9295989"><ele>0.0</ele><time>2026-04-30T22:39:39.055Z</time></trkpt><trkpt lat="43.1717875" lon="6.92968"><ele>0.0</ele><time>2026-04-30T22:39:40.054Z</time></trkpt><trkpt lat="43.1718366" lon="6.929775"><ele>0.0</ele><time>2026-04-30T22:39:41.054Z</time></trkpt><trkpt lat="43.1718891" lon="6.9298669"><ele>0.0</ele><time>2026-04-30T22:39:42.055Z</time></trkpt><trkpt lat="43.1719439" lon="6.9299576"><ele>0.0</ele><time>2026-04-30T22:39:43.054Z</time></trkpt><trkpt lat="43.171995" lon="6.9300487"><ele>0.0</ele><time>2026-04-30T22:39:44.054Z</time></trkpt><trkpt lat="43.1720448" lon="6.9301429"><ele>0.0</ele><time>2026-04-30T22:39:45.055Z</time></trkpt><trkpt lat="43.1720908" lon="6.9302349"><ele>0.0</ele><time>2026-04-30T22:39:46.054Z</time></trkpt><trkpt lat="43.1721457" lon="6.9303212"><ele>0.0</ele><time>2026-04-30T22:39:47.054Z</time></trkpt><trkpt lat="43.1721997" lon="6.9304089"><ele>0.0</ele><time>2026-04-30T22:39:48.055Z</time></trkpt><trkpt lat="43.1722524" lon="6.9305003"><ele>0.0</ele><time>2026-04-30T22:39:49.054Z</time></trkpt><trkpt lat="43.1722989" lon="6.9305977"><ele>0.0</ele><time>2026-04-30T22:39:50.055Z</time></trkpt><trkpt lat="43.1723466" lon="6.9306942"><ele>0.0</ele><time>2026-04-30T22:39:51.054Z</time></trkpt><trkpt lat="43.1724003" lon="6.930792"><ele>0.0</ele><time>2026-04-30T22:39:52.054Z</time></trkpt><trkpt lat="43.1724489" lon="6.9308894"><ele>0.0</ele><time>2026-04-30T22:39:53.054Z</time></trkpt><trkpt lat="43.1724974" lon="6.930983"><ele>0.0</ele><time>2026-04-30T22:39:54.054Z</time></trkpt><trkpt lat="43.172542" lon="6.9310809"><ele>0.0</ele><time>2026-04-30T22:39:55.054Z</time></trkpt><trkpt lat="43.1725954" lon="6.9311731"><ele>0.0</ele><time>2026-04-30T22:39:56.055Z</time></trkpt><trkpt lat="43.1726437" lon="6.9312679"><ele>0.0</ele><time>2026-04-30T22:39:57.054Z</time></trkpt><trkpt lat="43.1726925" lon="6.9313574"><ele>0.0</ele><time>2026-04-30T22:39:58.055Z</time></trkpt><trkpt lat="43.1727956" lon="6.9315478"><ele>0.0</ele><time>2026-04-30T22:40:00.054Z</time></trkpt><trkpt lat="43.1728424" lon="6.9316448"><ele>0.0</ele><time>2026-04-30T22:40:01.055Z</time></trkpt><trkpt lat="43.1728871" lon="6.9317428"><ele>0.0</ele><time>2026-04-30T22:40:02.054Z</time></trkpt><trkpt lat="43.1729336" lon="6.93184"><ele>0.0</ele><time>2026-04-30T22:40:03.055Z</time></trkpt><trkpt lat="43.1729792" lon="6.931935"><ele>0.0</ele><time>2026-04-30T22:40:04.055Z</time></trkpt><trkpt lat="43.1730257" lon="6.932031"><ele>0.0</ele><time>2026-04-30T22:40:05.054Z</time></trkpt><trkpt lat="43.1730747" lon="6.9321294"><ele>0.0</ele><time>2026-04-30T22:40:06.054Z</time></trkpt><trkpt lat="43.1731236" lon="6.9322188"><ele>0.0</ele><time>2026-04-30T22:40:07.054Z</time></trkpt><trkpt lat="43.1731646" lon="6.9323119"><ele>0.0</ele><time>2026-04-30T22:40:08.054Z</time></trkpt><trkpt lat="43.1732132" lon="6.9324022"><ele>0.0</ele><time>2026-04-30T22:40:09.055Z</time></trkpt><trkpt lat="43.1732618" lon="6.9324945"><ele>0.0</ele><time>2026-04-30T22:40:10.055Z</time></trkpt><trkpt lat="43.173305" lon="6.9325908"><ele>0.0</ele><time>2026-04-30T22:40:11.055Z</time></trkpt><trkpt lat="43.173351" lon="6.9326849"><ele>0.0</ele><time>2026-04-30T22:40:12.055Z</time></trkpt><trkpt lat="43.1734002" lon="6.932778"><ele>0.0</ele><time>2026-04-30T22:40:13.054Z</time></trkpt><trkpt lat="43.1734432" lon="6.9328712"><ele>0.0</ele><time>2026-04-30T22:40:14.055Z</time></trkpt><trkpt lat="43.1734933" lon="6.9329673"><ele>0.0</ele><time>2026-04-30T22:40:15.054Z</time></trkpt><trkpt lat="43.1735425" lon="6.9330597"><ele>0.0</ele><time>2026-04-30T22:40:16.055Z</time></trkpt><trkpt lat="43.1735964" lon="6.9331521"><ele>0.0</ele><time>2026-04-30T22:40:17.054Z</time></trkpt><trkpt lat="43.1736501" lon="6.9332444"><ele>0.0</ele><time>2026-04-30T22:40:18.054Z</time></trkpt><trkpt lat="43.1736977" lon="6.9333364"><ele>0.0</ele><time>2026-04-30T22:40:19.055Z</time></trkpt><trkpt lat="43.1737918" lon="6.9335235"><ele>0.0</ele><time>2026-04-30T22:40:21.054Z</time></trkpt><trkpt lat="43.1738433" lon="6.9336149"><ele>0.0</ele><time>2026-04-30T22:40:22.054Z</time></trkpt><trkpt lat="43.1738951" lon="6.933709"><ele>0.0</ele><time>2026-04-30T22:40:23.055Z</time></trkpt><trkpt lat="43.1739514" lon="6.9338025"><ele>0.0</ele><time>2026-04-30T22:40:24.055Z</time></trkpt><trkpt lat="43.1740011" lon="6.9338915"><ele>0.0</ele><time>2026-04-30T22:40:25.055Z</time></trkpt><trkpt lat="43.1740531" lon="6.9339858"><ele>0.0</ele><time>2026-04-30T22:40:26.054Z</time></trkpt><trkpt lat="43.1741008" lon="6.9340843"><ele>0.0</ele><time>2026-04-30T22:40:27.055Z</time></trkpt><trkpt lat="43.1741526" lon="6.9341812"><ele>0.0</ele><time>2026-04-30T22:40:28.054Z</time></trkpt><trkpt lat="43.1742062" lon="6.9342748"><ele>0.0</ele><time>2026-04-30T22:40:29.054Z</time></trkpt><trkpt lat="43.1742519" lon="6.9343723"><ele>0.0</ele><time>2026-04-30T22:40:30.054Z</time></trkpt><trkpt lat="43.1743031" lon="6.9344682"><ele>0.0</ele><time>2026-04-30T22:40:31.054Z</time></trkpt><trkpt lat="43.1743512" lon="6.9345649"><ele>0.0</ele><time>2026-04-30T22:40:32.055Z</time></trkpt><trkpt lat="43.1744168" lon="6.9346529"><ele>0.0</ele><time>2026-04-30T22:40:33.055Z</time></trkpt><trkpt lat="43.1744793" lon="6.9347438"><ele>0.0</ele><time>2026-04-30T22:40:34.054Z</time></trkpt><trkpt lat="43.1745239" lon="6.9348369"><ele>0.0</ele><time>2026-04-30T22:40:35.054Z</time></trkpt><trkpt lat="43.1745673" lon="6.9349443"><ele>0.0</ele><time>2026-04-30T22:40:36.054Z</time></trkpt><trkpt lat="43.1746097" lon="6.9350497"><ele>0.0</ele><time>2026-04-30T22:40:37.054Z</time></trkpt><trkpt lat="43.1746557" lon="6.9351519"><ele>0.0</ele><time>2026-04-30T22:40:38.055Z</time></trkpt><trkpt lat="43.1747025" lon="6.9352365"><ele>0.0</ele><time>2026-04-30T22:40:39.055Z</time></trkpt><trkpt lat="43.1747461" lon="6.9353225"><ele>0.0</ele><time>2026-04-30T22:40:40.054Z</time></trkpt><trkpt lat="43.1748407" lon="6.9355197"><ele>0.0</ele><time>2026-04-30T22:40:42.054Z</time></trkpt><trkpt lat="43.1748817" lon="6.9356176"><ele>0.0</ele><time>2026-04-30T22:40:43.054Z</time></trkpt><trkpt lat="43.174926" lon="6.9357159"><ele>0.0</ele><time>2026-04-30T22:40:44.054Z</time></trkpt><trkpt lat="43.1749734" lon="6.9358115"><ele>0.0</ele><time>2026-04-30T22:40:45.055Z</time></trkpt><trkpt lat="43.1750186" lon="6.9359033"><ele>0.0</ele><time>2026-04-30T22:40:46.055Z</time></trkpt><trkpt lat="43.1750623" lon="6.9359974"><ele>0.0</ele><time>2026-04-30T22:40:47.054Z</time></trkpt><trkpt lat="43.1751143" lon="6.9360883"><ele>0.0</ele><time>2026-04-30T22:40:48.055Z</time></trkpt><trkpt lat="43.1751655" lon="6.9361908"><ele>0.0</ele><time>2026-04-30T22:40:49.055Z</time></trkpt><trkpt lat="43.1752136" lon="6.9362877"><ele>0.0</ele><time>2026-04-30T22:40:50.054Z</time></trkpt><trkpt lat="43.1752575" lon="6.9363788"><ele>0.0</ele><time>2026-04-30T22:40:51.054Z</time></trkpt><trkpt lat="43.1753022" lon="6.9364693"><ele>0.0</ele><time>2026-04-30T22:40:52.055Z</time></trkpt><trkpt lat="43.1753414" lon="6.9365603"><ele>0.0</ele><time>2026-04-30T22:40:53.054Z</time></trkpt><trkpt lat="43.1753682" lon="6.936653"><ele>0.0</ele><time>2026-04-30T22:40:54.054Z</time></trkpt><trkpt lat="43.1754114" lon="6.9367481"><ele>0.0</ele><time>2026-04-30T22:40:55.054Z</time></trkpt><trkpt lat="43.1754594" lon="6.9368404"><ele>0.0</ele><time>2026-04-30T22:40:56.054Z</time></trkpt><trkpt lat="43.1755127" lon="6.9369346"><ele>0.0</ele><time>2026-04-30T22:40:57.055Z</time></trkpt><trkpt lat="43.1755689" lon="6.9370327"><ele>0.0</ele><time>2026-04-30T22:40:58.054Z</time></trkpt><trkpt lat="43.1756297" lon="6.9371097"><ele>0.0</ele><time>2026-04-30T22:40:59.054Z</time></trkpt><trkpt lat="43.1756824" lon="6.9372042"><ele>0.0</ele><time>2026-04-30T22:41:00.055Z</time></trkpt><trkpt lat="43.1757285" lon="6.9373035"><ele>0.0</ele><time>2026-04-30T22:41:01.055Z</time></trkpt><trkpt lat="43.1758233" lon="6.9374944"><ele>0.0</ele><time>2026-04-30T22:41:03.054Z</time></trkpt><trkpt lat="43.1758678" lon="6.9375937"><ele>0.0</ele><time>2026-04-30T22:41:04.055Z</time></trkpt><trkpt lat="43.1759166" lon="6.9376902"><ele>0.0</ele><time>2026-04-30T22:41:05.054Z</time></trkpt><trkpt lat="43.1759668" lon="6.9377879"><ele>0.0</ele><time>2026-04-30T22:41:06.055Z</time></trkpt><trkpt lat="43.1760093" lon="6.937883"><ele>0.0</ele><time>2026-04-30T22:41:07.055Z</time></trkpt><trkpt lat="43.1760558" lon="6.9379736"><ele>0.0</ele><time>2026-04-30T22:41:08.054Z</time></trkpt><trkpt lat="43.1761007" lon="6.9380665"><ele>0.0</ele><time>2026-04-30T22:41:09.054Z</time></trkpt><trkpt lat="43.1761475" lon="6.9381661"><ele>0.0</ele><time>2026-04-30T22:41:10.055Z</time></trkpt><trkpt lat="43.1761941" lon="6.9382576"><ele>0.0</ele><time>2026-04-30T22:41:11.054Z</time></trkpt><trkpt lat="43.1762445" lon="6.9383544"><ele>0.0</ele><time>2026-04-30T22:41:12.054Z</time></trkpt><trkpt lat="43.1762961" lon="6.9384483"><ele>0.0</ele><time>2026-04-30T22:41:13.054Z</time></trkpt><trkpt lat="43.176348" lon="6.9385429"><ele>0.0</ele><time>2026-04-30T22:41:14.054Z</time></trkpt><trkpt lat="43.1764027" lon="6.9386329"><ele>0.0</ele><time>2026-04-30T22:41:15.054Z</time></trkpt><trkpt lat="43.1764595" lon="6.9387264"><ele>0.0</ele><time>2026-04-30T22:41:16.054Z</time></trkpt><trkpt lat="43.176512" lon="6.9388192"><ele>0.0</ele><time>2026-04-30T22:41:17.054Z</time></trkpt><trkpt lat="43.1765608" lon="6.9389098"><ele>0.0</ele><time>2026-04-30T22:41:18.055Z</time></trkpt><trkpt lat="43.1766037" lon="6.9390025"><ele>0.0</ele><time>2026-04-30T22:41:19.055Z</time></trkpt><trkpt lat="43.1766491" lon="6.9391008"><ele>0.0</ele><time>2026-04-30T22:41:20.055Z</time></trkpt><trkpt lat="43.1766986" lon="6.9391964"><ele>0.0</ele><time>2026-04-30T22:41:21.054Z</time></trkpt><trkpt lat="43.1767435" lon="6.939297"><ele>0.0</ele><time>2026-04-30T22:41:22.054Z</time></trkpt><trkpt lat="43.1768425" lon="6.9394887"><ele>0.0</ele><time>2026-04-30T22:41:24.055Z</time></trkpt><trkpt lat="43.1768928" lon="6.9395792"><ele>0.0</ele><time>2026-04-30T22:41:25.055Z</time></trkpt><trkpt lat="43.176946" lon="6.9396689"><ele>0.0</ele><time>2026-04-30T22:41:26.054Z</time></trkpt><trkpt lat="43.1770024" lon="6.9397631"><ele>0.0</ele><time>2026-04-30T22:41:27.054Z</time></trkpt><trkpt lat="43.1770544" lon="6.939855"><ele>0.0</ele><time>2026-04-30T22:41:28.055Z</time></trkpt><trkpt lat="43.1771023" lon="6.9399549"><ele>0.0</ele><time>2026-04-30T22:41:29.055Z</time></trkpt><trkpt lat="43.1771535" lon="6.9400494"><ele>0.0</ele><time>2026-04-30T22:41:30.055Z</time></trkpt><trkpt lat="43.1772444" lon="6.9402457"><ele>0.0</ele><time>2026-04-30T22:41:32.055Z</time></trkpt><trkpt lat="43.1772907" lon="6.9403423"><ele>0.0</ele><time>2026-04-30T22:41:33.055Z</time></trkpt><trkpt lat="43.1773445" lon="6.9404346"><ele>0.0</ele><time>2026-04-30T22:41:34.055Z</time></trkpt><trkpt lat="43.1773922" lon="6.9405291"><ele>0.0</ele><time>2026-04-30T22:41:35.054Z</time></trkpt><trkpt lat="43.1774443" lon="6.9406233"><ele>0.0</ele><time>2026-04-30T22:41:36.054Z</time></trkpt><trkpt lat="43.1774974" lon="6.9407182"><ele>0.0</ele><time>2026-04-30T22:41:37.054Z</time></trkpt><trkpt lat="43.1775481" lon="6.9408089"><ele>0.0</ele><time>2026-04-30T22:41:38.054Z</time></trkpt><trkpt lat="43.177598" lon="6.9408972"><ele>0.0</ele><time>2026-04-30T22:41:39.054Z</time></trkpt><trkpt lat="43.1776514" lon="6.940985"><ele>0.0</ele><time>2026-04-30T22:41:40.055Z</time></trkpt><trkpt lat="43.1777032" lon="6.9410754"><ele>0.0</ele><time>2026-04-30T22:41:41.054Z</time></trkpt><trkpt lat="43.1777519" lon="6.9411657"><ele>0.0</ele><time>2026-04-30T22:41:42.055Z</time></trkpt><trkpt lat="43.1778071" lon="6.9412525"><ele>0.0</ele><time>2026-04-30T22:41:43.054Z</time></trkpt><trkpt lat="43.1779067" lon="6.9414394"><ele>0.0</ele><time>2026-04-30T22:41:45.055Z</time></trkpt><trkpt lat="43.177954" lon="6.9415388"><ele>0.0</ele><time>2026-04-30T22:41:46.054Z</time></trkpt><trkpt lat="43.1780022" lon="6.9416349"><ele>0.0</ele><time>2026-04-30T22:41:47.055Z</time></trkpt><trkpt lat="43.1780476" lon="6.9417328"><ele>0.0</ele><time>2026-04-30T22:41:48.054Z</time></trkpt><trkpt lat="43.1780925" lon="6.9418279"><ele>0.0</ele><time>2026-04-30T22:41:49.055Z</time></trkpt><trkpt lat="43.1781357" lon="6.9419214"><ele>0.0</ele><time>2026-04-30T22:41:50.054Z</time></trkpt><trkpt lat="43.1781818" lon="6.9420194"><ele>0.0</ele><time>2026-04-30T22:41:51.055Z</time></trkpt><trkpt lat="43.1782268" lon="6.9421165"><ele>0.0</ele><time>2026-04-30T22:41:52.055Z</time></trkpt><trkpt lat="43.1782674" lon="6.9422158"><ele>0.0</ele><time>2026-04-30T22:41:53.054Z</time></trkpt><trkpt lat="43.178309" lon="6.9423188"><ele>0.0</ele><time>2026-04-30T22:41:54.054Z</time></trkpt><trkpt lat="43.1783532" lon="6.9424197"><ele>0.0</ele><time>2026-04-30T22:41:55.055Z</time></trkpt><trkpt lat="43.178407" lon="6.9425156"><ele>0.0</ele><time>2026-04-30T22:41:56.055Z</time></trkpt><trkpt lat="43.1784567" lon="6.9426104"><ele>0.0</ele><time>2026-04-30T22:41:57.054Z</time></trkpt><trkpt lat="43.1785035" lon="6.9427062"><ele>0.0</ele><time>2026-04-30T22:41:58.054Z</time></trkpt><trkpt lat="43.1785534" lon="6.9428017"><ele>0.0</ele><time>2026-04-30T22:41:59.054Z</time></trkpt><trkpt lat="43.1785978" lon="6.9428948"><ele>0.0</ele><time>2026-04-30T22:42:00.054Z</time></trkpt><trkpt lat="43.1786478" lon="6.9429854"><ele>0.0</ele><time>2026-04-30T22:42:01.054Z</time></trkpt><trkpt lat="43.1787002" lon="6.9430766"><ele>0.0</ele><time>2026-04-30T22:42:02.054Z</time></trkpt><trkpt lat="43.1787432" lon="6.9431718"><ele>0.0</ele><time>2026-04-30T22:42:03.054Z</time></trkpt><trkpt lat="43.1788827" lon="6.9434687"><ele>0.0</ele><time>2026-04-30T22:42:06.054Z</time></trkpt><trkpt lat="43.178926" lon="6.9435677"><ele>0.0</ele><time>2026-04-30T22:42:07.055Z</time></trkpt><trkpt lat="43.1789688" lon="6.9436705"><ele>0.0</ele><time>2026-04-30T22:42:08.055Z</time></trkpt><trkpt lat="43.1790194" lon="6.943763"><ele>0.0</ele><time>2026-04-30T22:42:09.055Z</time></trkpt><trkpt lat="43.1790717" lon="6.9438551"><ele>0.0</ele><time>2026-04-30T22:42:10.055Z</time></trkpt><trkpt lat="43.1791247" lon="6.9439456"><ele>0.0</ele><time>2026-04-30T22:42:11.054Z</time></trkpt><trkpt lat="43.1791723" lon="6.9440412"><ele>0.0</ele><time>2026-04-30T22:42:12.054Z</time></trkpt><trkpt lat="43.1792205" lon="6.9441362"><ele>0.0</ele><time>2026-04-30T22:42:13.054Z</time></trkpt><trkpt lat="43.1792688" lon="6.9442271"><ele>0.0</ele><time>2026-04-30T22:42:14.055Z</time></trkpt><trkpt lat="43.1793139" lon="6.9443198"><ele>0.0</ele><time>2026-04-30T22:42:15.054Z</time></trkpt><trkpt lat="43.1793605" lon="6.9444119"><ele>0.0</ele><time>2026-04-30T22:42:16.054Z</time></trkpt><trkpt lat="43.1794086" lon="6.9445022"><ele>0.0</ele><time>2026-04-30T22:42:17.054Z</time></trkpt><trkpt lat="43.1794617" lon="6.9445931"><ele>0.0</ele><time>2026-04-30T22:42:18.055Z</time></trkpt><trkpt lat="43.1795131" lon="6.9446845"><ele>0.0</ele><time>2026-04-30T22:42:19.054Z</time></trkpt><trkpt lat="43.1795636" lon="6.9447737"><ele>0.0</ele><time>2026-04-30T22:42:20.055Z</time></trkpt><trkpt lat="43.1796159" lon="6.9448676"><ele>0.0</ele><time>2026-04-30T22:42:21.054Z</time></trkpt><trkpt lat="43.1796642" lon="6.9449624"><ele>0.0</ele><time>2026-04-30T22:42:22.054Z</time></trkpt><trkpt lat="43.1797122" lon="6.9450503"><ele>0.0</ele><time>2026-04-30T22:42:23.055Z</time></trkpt><trkpt lat="43.1797647" lon="6.945138"><ele>0.0</ele><time>2026-04-30T22:42:24.054Z</time></trkpt><trkpt lat="43.179811" lon="6.9452293"><ele>0.0</ele><time>2026-04-30T22:42:25.054Z</time></trkpt><trkpt lat="43.1799117" lon="6.9454179"><ele>0.0</ele><time>2026-04-30T22:42:27.054Z</time></trkpt><trkpt lat="43.1799708" lon="6.9455081"><ele>0.0</ele><time>2026-04-30T22:42:28.055Z</time></trkpt><trkpt lat="43.1800222" lon="6.9456041"><ele>0.0</ele><time>2026-04-30T22:42:29.054Z</time></trkpt><trkpt lat="43.1800747" lon="6.9456956"><ele>0.0</ele><time>2026-04-30T22:42:30.054Z</time></trkpt><trkpt lat="43.1801242" lon="6.9457837"><ele>0.0</ele><time>2026-04-30T22:42:31.055Z</time></trkpt><trkpt lat="43.1801709" lon="6.945881"><ele>0.0</ele><time>2026-04-30T22:42:32.055Z</time></trkpt><trkpt lat="43.1802175" lon="6.9459738"><ele>0.0</ele><time>2026-04-30T22:42:33.054Z</time></trkpt><trkpt lat="43.1802712" lon="6.9460625"><ele>0.0</ele><time>2026-04-30T22:42:34.054Z</time></trkpt><trkpt lat="43.1803261" lon="6.9461547"><ele>0.0</ele><time>2026-04-30T22:42:35.054Z</time></trkpt><trkpt lat="43.1804214" lon="6.9463439"><ele>0.0</ele><time>2026-04-30T22:42:37.055Z</time></trkpt><trkpt lat="43.1804644" lon="6.94644"><ele>0.0</ele><time>2026-04-30T22:42:38.054Z</time></trkpt><trkpt lat="43.1805103" lon="6.9465333"><ele>0.0</ele><time>2026-04-30T22:42:39.054Z</time></trkpt><trkpt lat="43.1805653" lon="6.9466167"><ele>0.0</ele><time>2026-04-30T22:42:40.054Z</time></trkpt><trkpt lat="43.180611" lon="6.9467095"><ele>0.0</ele><time>2026-04-30T22:42:41.054Z</time></trkpt><trkpt lat="43.1806559" lon="6.9468133"><ele>0.0</ele><time>2026-04-30T22:42:42.055Z</time></trkpt><trkpt lat="43.1807033" lon="6.9469184"><ele>0.0</ele><time>2026-04-30T22:42:43.055Z</time></trkpt><trkpt lat="43.1807503" lon="6.9470281"><ele>0.0</ele><time>2026-04-30T22:42:44.054Z</time></trkpt><trkpt lat="43.1807982" lon="6.9471323"><ele>0.0</ele><time>2026-04-30T22:42:45.055Z</time></trkpt><trkpt lat="43.1808479" lon="6.9472279"><ele>0.0</ele><time>2026-04-30T22:42:46.054Z</time></trkpt><trkpt lat="43.180949" lon="6.9474079"><ele>0.0</ele><time>2026-04-30T22:42:48.055Z</time></trkpt><trkpt lat="43.181004" lon="6.9475039"><ele>0.0</ele><time>2026-04-30T22:42:49.055Z</time></trkpt><trkpt lat="43.1810485" lon="6.947607"><ele>0.0</ele><time>2026-04-30T22:42:50.054Z</time></trkpt><trkpt lat="43.1810978" lon="6.9477006"><ele>0.0</ele><time>2026-04-30T22:42:51.054Z</time></trkpt><trkpt lat="43.1811483" lon="6.9477933"><ele>0.0</ele><time>2026-04-30T22:42:52.055Z</time></trkpt><trkpt lat="43.1811941" lon="6.9478863"><ele>0.0</ele><time>2026-04-30T22:42:53.054Z</time></trkpt><trkpt lat="43.1812407" lon="6.9479806"><ele>0.0</ele><time>2026-04-30T22:42:54.054Z</time></trkpt><trkpt lat="43.1812861" lon="6.94808"><ele>0.0</ele><time>2026-04-30T22:42:55.054Z</time></trkpt><trkpt lat="43.1813328" lon="6.9481817"><ele>0.0</ele><time>2026-04-30T22:42:56.055Z</time></trkpt><trkpt lat="43.1813777" lon="6.9482852"><ele>0.0</ele><time>2026-04-30T22:42:57.055Z</time></trkpt><trkpt lat="43.1814227" lon="6.9483857"><ele>0.0</ele><time>2026-04-30T22:42:58.054Z</time></trkpt><trkpt lat="43.1814746" lon="6.9484784"><ele>0.0</ele><time>2026-04-30T22:42:59.055Z</time></trkpt><trkpt lat="43.1815217" lon="6.9485763"><ele>0.0</ele><time>2026-04-30T22:43:00.055Z</time></trkpt><trkpt lat="43.1815692" lon="6.9486712"><ele>0.0</ele><time>2026-04-30T22:43:01.054Z</time></trkpt><trkpt lat="43.1816201" lon="6.9487645"><ele>0.0</ele><time>2026-04-30T22:43:02.054Z</time></trkpt><trkpt lat="43.1816705" lon="6.948862"><ele>0.0</ele><time>2026-04-30T22:43:03.054Z</time></trkpt><trkpt lat="43.1817191" lon="6.9489593"><ele>0.0</ele><time>2026-04-30T22:43:04.054Z</time></trkpt><trkpt lat="43.181769" lon="6.9490528"><ele>0.0</ele><time>2026-04-30T22:43:05.054Z</time></trkpt><trkpt lat="43.181816" lon="6.9491492"><ele>0.0</ele><time>2026-04-30T22:43:06.055Z</time></trkpt><trkpt lat="43.1818624" lon="6.9492471"><ele>0.0</ele><time>2026-04-30T22:43:07.055Z</time></trkpt><trkpt lat="43.1820221" lon="6.9495278"><ele>0.0</ele><time>2026-04-30T22:43:10.054Z</time></trkpt><trkpt lat="43.1820779" lon="6.949623"><ele>0.0</ele><time>2026-04-30T22:43:11.054Z</time></trkpt><trkpt lat="43.1821304" lon="6.9497179"><ele>0.0</ele><time>2026-04-30T22:43:12.055Z</time></trkpt><trkpt lat="43.1821862" lon="6.9498059"><ele>0.0</ele><time>2026-04-30T22:43:13.054Z</time></trkpt><trkpt lat="43.1822388" lon="6.9498952"><ele>0.0</ele><time>2026-04-30T22:43:14.055Z</time></trkpt><trkpt lat="43.1822858" lon="6.9499879"><ele>0.0</ele><time>2026-04-30T22:43:15.054Z</time></trkpt><trkpt lat="43.1823351" lon="6.9500789"><ele>0.0</ele><time>2026-04-30T22:43:16.055Z</time></trkpt><trkpt lat="43.1823864" lon="6.9501677"><ele>0.0</ele><time>2026-04-30T22:43:17.055Z</time></trkpt><trkpt lat="43.1824368" lon="6.9502544"><ele>0.0</ele><time>2026-04-30T22:43:18.055Z</time></trkpt><trkpt lat="43.1824913" lon="6.9503217"><ele>0.0</ele><time>2026-04-30T22:43:19.055Z</time></trkpt><trkpt lat="43.1825491" lon="6.9503923"><ele>0.0</ele><time>2026-04-30T22:43:20.054Z</time></trkpt><trkpt lat="43.1825945" lon="6.9504816"><ele>0.0</ele><time>2026-04-30T22:43:21.054Z</time></trkpt><trkpt lat="43.1826425" lon="6.9505686"><ele>0.0</ele><time>2026-04-30T22:43:22.055Z</time></trkpt><trkpt lat="43.1826919" lon="6.9506525"><ele>0.0</ele><time>2026-04-30T22:43:23.054Z</time></trkpt><trkpt lat="43.1827446" lon="6.9507387"><ele>0.0</ele><time>2026-04-30T22:43:24.055Z</time></trkpt><trkpt lat="43.1827954" lon="6.9508383"><ele>0.0</ele><time>2026-04-30T22:43:25.055Z</time></trkpt><trkpt lat="43.1828466" lon="6.9509286"><ele>0.0</ele><time>2026-04-30T22:43:26.055Z</time></trkpt><trkpt lat="43.182901" lon="6.95102"><ele>0.0</ele><time>2026-04-30T22:43:27.055Z</time></trkpt><trkpt lat="43.1829516" lon="6.9511097"><ele>0.0</ele><time>2026-04-30T22:43:28.055Z</time></trkpt><trkpt lat="43.1830076" lon="6.9511889"><ele>0.0</ele><time>2026-04-30T22:43:29.054Z</time></trkpt><trkpt lat="43.1831035" lon="6.951367"><ele>0.0</ele><time>2026-04-30T22:43:31.055Z</time></trkpt><trkpt lat="43.1831573" lon="6.9514513"><ele>0.0</ele><time>2026-04-30T22:43:32.055Z</time></trkpt><trkpt lat="43.1832083" lon="6.9515449"><ele>0.0</ele><time>2026-04-30T22:43:33.055Z</time></trkpt><trkpt lat="43.1832534" lon="6.951641"><ele>0.0</ele><time>2026-04-30T22:43:34.054Z</time></trkpt><trkpt lat="43.1832959" lon="6.9517419"><ele>0.0</ele><time>2026-04-30T22:43:35.054Z</time></trkpt><trkpt lat="43.1833451" lon="6.9518379"><ele>0.0</ele><time>2026-04-30T22:43:36.054Z</time></trkpt><trkpt lat="43.1833964" lon="6.9519302"><ele>0.0</ele><time>2026-04-30T22:43:37.054Z</time></trkpt><trkpt lat="43.1834509" lon="6.9520259"><ele>0.0</ele><time>2026-04-30T22:43:38.055Z</time></trkpt><trkpt lat="43.1835074" lon="6.9521172"><ele>0.0</ele><time>2026-04-30T22:43:39.055Z</time></trkpt><trkpt lat="43.1835622" lon="6.9522075"><ele>0.0</ele><time>2026-04-30T22:43:40.055Z</time></trkpt><trkpt lat="43.1836064" lon="6.9523019"><ele>0.0</ele><time>2026-04-30T22:43:41.054Z</time></trkpt><trkpt lat="43.1836464" lon="6.952395"><ele>0.0</ele><time>2026-04-30T22:43:42.054Z</time></trkpt><trkpt lat="43.1836892" lon="6.9524925"><ele>0.0</ele><time>2026-04-30T22:43:43.054Z</time></trkpt><trkpt lat="43.1837353" lon="6.9525851"><ele>0.0</ele><time>2026-04-30T22:43:44.055Z</time></trkpt><trkpt lat="43.1837788" lon="6.9526827"><ele>0.0</ele><time>2026-04-30T22:43:45.055Z</time></trkpt><trkpt lat="43.183835" lon="6.9527755"><ele>0.0</ele><time>2026-04-30T22:43:46.055Z</time></trkpt><trkpt lat="43.1838832" lon="6.952874"><ele>0.0</ele><time>2026-04-30T22:43:47.054Z</time></trkpt><trkpt lat="43.1839345" lon="6.9529722"><ele>0.0</ele><time>2026-04-30T22:43:48.054Z</time></trkpt><trkpt lat="43.1839876" lon="6.9530698"><ele>0.0</ele><time>2026-04-30T22:43:49.054Z</time></trkpt><trkpt lat="43.1840413" lon="6.9531632"><ele>0.0</ele><time>2026-04-30T22:43:50.054Z</time></trkpt><trkpt lat="43.1841493" lon="6.9533528"><ele>0.0</ele><time>2026-04-30T22:43:52.054Z</time></trkpt><trkpt lat="43.1841977" lon="6.9534477"><ele>0.0</ele><time>2026-04-30T22:43:53.054Z</time></trkpt><trkpt lat="43.1842439" lon="6.9535486"><ele>0.0</ele><time>2026-04-30T22:43:54.054Z</time></trkpt><trkpt lat="43.1842865" lon="6.9536459"><ele>0.0</ele><time>2026-04-30T22:43:55.054Z</time></trkpt><trkpt lat="43.1843292" lon="6.9537498"><ele>0.0</ele><time>2026-04-30T22:43:56.054Z</time></trkpt><trkpt lat="43.1843771" lon="6.9538492"><ele>0.0</ele><time>2026-04-30T22:43:57.054Z</time></trkpt><trkpt lat="43.1844238" lon="6.9539493"><ele>0.0</ele><time>2026-04-30T22:43:58.054Z</time></trkpt><trkpt lat="43.184465" lon="6.9540445"><ele>0.0</ele><time>2026-04-30T22:43:59.055Z</time></trkpt><trkpt lat="43.1845137" lon="6.9541353"><ele>0.0</ele><time>2026-04-30T22:44:00.054Z</time></trkpt><trkpt lat="43.1845618" lon="6.9542268"><ele>0.0</ele><time>2026-04-30T22:44:01.054Z</time></trkpt><trkpt lat="43.184606" lon="6.954321"><ele>0.0</ele><time>2026-04-30T22:44:02.054Z</time></trkpt><trkpt lat="43.1846522" lon="6.9544152"><ele>0.0</ele><time>2026-04-30T22:44:03.054Z</time></trkpt><trkpt lat="43.1846973" lon="6.9545072"><ele>0.0</ele><time>2026-04-30T22:44:04.055Z</time></trkpt><trkpt lat="43.1847537" lon="6.9545911"><ele>0.0</ele><time>2026-04-30T22:44:05.055Z</time></trkpt><trkpt lat="43.1848008" lon="6.954686"><ele>0.0</ele><time>2026-04-30T22:44:06.054Z</time></trkpt><trkpt lat="43.184857" lon="6.954769"><ele>0.0</ele><time>2026-04-30T22:44:07.055Z</time></trkpt><trkpt lat="43.1849112" lon="6.9548589"><ele>0.0</ele><time>2026-04-30T22:44:08.054Z</time></trkpt><trkpt lat="43.1849711" lon="6.9549447"><ele>0.0</ele><time>2026-04-30T22:44:09.054Z</time></trkpt><trkpt lat="43.1850242" lon="6.9550337"><ele>0.0</ele><time>2026-04-30T22:44:10.054Z</time></trkpt><trkpt lat="43.1850773" lon="6.9551262"><ele>0.0</ele><time>2026-04-30T22:44:11.055Z</time></trkpt><trkpt lat="43.1852123" lon="6.9554026"><ele>0.0</ele><time>2026-04-30T22:44:14.055Z</time></trkpt><trkpt lat="43.1852662" lon="6.9554903"><ele>0.0</ele><time>2026-04-30T22:44:15.054Z</time></trkpt><trkpt lat="43.1853179" lon="6.9555791"><ele>0.0</ele><time>2026-04-30T22:44:16.055Z</time></trkpt><trkpt lat="43.1853667" lon="6.9556744"><ele>0.0</ele><time>2026-04-30T22:44:17.055Z</time></trkpt><trkpt lat="43.185415" lon="6.9557656"><ele>0.0</ele><time>2026-04-30T22:44:18.055Z</time></trkpt><trkpt lat="43.1854646" lon="6.9558616"><ele>0.0</ele><time>2026-04-30T22:44:19.054Z</time></trkpt><trkpt lat="43.1855104" lon="6.9559566"><ele>0.0</ele><time>2026-04-30T22:44:20.055Z</time></trkpt><trkpt lat="43.1855581" lon="6.9560502"><ele>0.0</ele><time>2026-04-30T22:44:21.055Z</time></trkpt><trkpt lat="43.1856096" lon="6.9561406"><ele>0.0</ele><time>2026-04-30T22:44:22.055Z</time></trkpt><trkpt lat="43.1856638" lon="6.9562278"><ele>0.0</ele><time>2026-04-30T22:44:23.055Z</time></trkpt><trkpt lat="43.185711" lon="6.9563216"><ele>0.0</ele><time>2026-04-30T22:44:24.055Z</time></trkpt><trkpt lat="43.18575" lon="6.9564208"><ele>0.0</ele><time>2026-04-30T22:44:25.054Z</time></trkpt><trkpt lat="43.1857954" lon="6.9565148"><ele>0.0</ele><time>2026-04-30T22:44:26.055Z</time></trkpt><trkpt lat="43.1858468" lon="6.9566094"><ele>0.0</ele><time>2026-04-30T22:44:27.055Z</time></trkpt><trkpt lat="43.1858994" lon="6.9567084"><ele>0.0</ele><time>2026-04-30T22:44:28.055Z</time></trkpt><trkpt lat="43.1859499" lon="6.9568031"><ele>0.0</ele><time>2026-04-30T22:44:29.054Z</time></trkpt><trkpt lat="43.1859971" lon="6.9568981"><ele>0.0</ele><time>2026-04-30T22:44:30.054Z</time></trkpt><trkpt lat="43.186042" lon="6.9569973"><ele>0.0</ele><time>2026-04-30T22:44:31.054Z</time></trkpt><trkpt lat="43.1860917" lon="6.957094"><ele>0.0</ele><time>2026-04-30T22:44:32.055Z</time></trkpt><trkpt lat="43.1861474" lon="6.9571957"><ele>0.0</ele><time>2026-04-30T22:44:33.054Z</time></trkpt><trkpt lat="43.1862643" lon="6.9573815"><ele>0.0</ele><time>2026-04-30T22:44:35.054Z</time></trkpt><trkpt lat="43.1863128" lon="6.9574664"><ele>0.0</ele><time>2026-04-30T22:44:36.054Z</time></trkpt><trkpt lat="43.1863548" lon="6.9575541"><ele>0.0</ele><time>2026-04-30T22:44:37.054Z</time></trkpt><trkpt lat="43.1864004" lon="6.9576378"><ele>0.0</ele><time>2026-04-30T22:44:38.054Z</time></trkpt><trkpt lat="43.1864403" lon="6.9577338"><ele>0.0</ele><time>2026-04-30T22:44:39.055Z</time></trkpt><trkpt lat="43.186487" lon="6.9578339"><ele>0.0</ele><time>2026-04-30T22:44:40.054Z</time></trkpt><trkpt lat="43.1865339" lon="6.9579368"><ele>0.0</ele><time>2026-04-30T22:44:41.055Z</time></trkpt><trkpt lat="43.1865805" lon="6.9580351"><ele>0.0</ele><time>2026-04-30T22:44:42.054Z</time></trkpt><trkpt lat="43.1866342" lon="6.9581264"><ele>0.0</ele><time>2026-04-30T22:44:43.054Z</time></trkpt><trkpt lat="43.1866847" lon="6.9582177"><ele>0.0</ele><time>2026-04-30T22:44:44.054Z</time></trkpt><trkpt lat="43.1867913" lon="6.9584093"><ele>0.0</ele><time>2026-04-30T22:44:46.054Z</time></trkpt><trkpt lat="43.1868424" lon="6.9585069"><ele>0.0</ele><time>2026-04-30T22:44:47.054Z</time></trkpt><trkpt lat="43.1868938" lon="6.9586027"><ele>0.0</ele><time>2026-04-30T22:44:48.054Z</time></trkpt><trkpt lat="43.1869432" lon="6.9586884"><ele>0.0</ele><time>2026-04-30T22:44:49.055Z</time></trkpt><trkpt lat="43.1869917" lon="6.9587819"><ele>0.0</ele><time>2026-04-30T22:44:50.054Z</time></trkpt><trkpt lat="43.1870386" lon="6.9588775"><ele>0.0</ele><time>2026-04-30T22:44:51.054Z</time></trkpt><trkpt lat="43.1870878" lon="6.9589712"><ele>0.0</ele><time>2026-04-30T22:44:52.055Z</time></trkpt><trkpt lat="43.1871382" lon="6.9590661"><ele>0.0</ele><time>2026-04-30T22:44:53.053Z</time></trkpt><trkpt lat="43.1871869" lon="6.9591614"><ele>0.0</ele><time>2026-04-30T22:44:54.054Z</time></trkpt><trkpt lat="43.1872913" lon="6.9593495"><ele>0.0</ele><time>2026-04-30T22:44:56.054Z</time></trkpt><trkpt lat="43.1873374" lon="6.9594428"><ele>0.0</ele><time>2026-04-30T22:44:57.054Z</time></trkpt><trkpt lat="43.1873845" lon="6.9595306"><ele>0.0</ele><time>2026-04-30T22:44:58.053Z</time></trkpt><trkpt lat="43.1874369" lon="6.9596145"><ele>0.0</ele><time>2026-04-30T22:44:59.054Z</time></trkpt><trkpt lat="43.1874841" lon="6.9597064"><ele>0.0</ele><time>2026-04-30T22:45:00.054Z</time></trkpt><trkpt lat="43.1875354" lon="6.9597972"><ele>0.0</ele><time>2026-04-30T22:45:01.054Z</time></trkpt><trkpt lat="43.1875812" lon="6.9598913"><ele>0.0</ele><time>2026-04-30T22:45:02.054Z</time></trkpt><trkpt lat="43.1876243" lon="6.959986"><ele>0.0</ele><time>2026-04-30T22:45:03.054Z</time></trkpt><trkpt lat="43.1876708" lon="6.9600769"><ele>0.0</ele><time>2026-04-30T22:45:04.053Z</time></trkpt><trkpt lat="43.1877148" lon="6.9601707"><ele>0.0</ele><time>2026-04-30T22:45:05.054Z</time></trkpt><trkpt lat="43.1877613" lon="6.960266"><ele>0.0</ele><time>2026-04-30T22:45:06.054Z</time></trkpt><trkpt lat="43.1878059" lon="6.9603598"><ele>0.0</ele><time>2026-04-30T22:45:07.053Z</time></trkpt><trkpt lat="43.1878459" lon="6.9604573"><ele>0.0</ele><time>2026-04-30T22:45:08.054Z</time></trkpt><trkpt lat="43.1878932" lon="6.9605541"><ele>0.0</ele><time>2026-04-30T22:45:09.053Z</time></trkpt><trkpt lat="43.1879404" lon="6.9606511"><ele>0.0</ele><time>2026-04-30T22:45:10.054Z</time></trkpt><trkpt lat="43.18799" lon="6.9607464"><ele>0.0</ele><time>2026-04-30T22:45:11.054Z</time></trkpt><trkpt lat="43.188042" lon="6.9608424"><ele>0.0</ele><time>2026-04-30T22:45:12.053Z</time></trkpt><trkpt lat="43.1880933" lon="6.9609351"><ele>0.0</ele><time>2026-04-30T22:45:13.053Z</time></trkpt><trkpt lat="43.1881425" lon="6.9610336"><ele>0.0</ele><time>2026-04-30T22:45:14.054Z</time></trkpt><trkpt lat="43.1881932" lon="6.9611269"><ele>0.0</ele><time>2026-04-30T22:45:15.053Z</time></trkpt><trkpt lat="43.1882431" lon="6.9612198"><ele>0.0</ele><time>2026-04-30T22:45:16.053Z</time></trkpt><trkpt lat="43.1883985" lon="6.9614905"><ele>0.0</ele><time>2026-04-30T22:45:19.053Z</time></trkpt><trkpt lat="43.1884541" lon="6.9615761"><ele>0.0</ele><time>2026-04-30T22:45:20.054Z</time></trkpt><trkpt lat="43.1885098" lon="6.9616609"><ele>0.0</ele><time>2026-04-30T22:45:21.054Z</time></trkpt><trkpt lat="43.1885612" lon="6.9617545"><ele>0.0</ele><time>2026-04-30T22:45:22.053Z</time></trkpt><trkpt lat="43.1886117" lon="6.9618508"><ele>0.0</ele><time>2026-04-30T22:45:23.053Z</time></trkpt><trkpt lat="43.188666" lon="6.9619428"><ele>0.0</ele><time>2026-04-30T22:45:24.053Z</time></trkpt><trkpt lat="43.1887187" lon="6.962036"><ele>0.0</ele><time>2026-04-30T22:45:25.054Z</time></trkpt><trkpt lat="43.1887687" lon="6.9621297"><ele>0.0</ele><time>2026-04-30T22:45:26.054Z</time></trkpt><trkpt lat="43.1888134" lon="6.9622255"><ele>0.0</ele><time>2026-04-30T22:45:27.054Z</time></trkpt><trkpt lat="43.1888588" lon="6.9623214"><ele>0.0</ele><time>2026-04-30T22:45:28.054Z</time></trkpt><trkpt lat="43.1889029" lon="6.9624134"><ele>0.0</ele><time>2026-04-30T22:45:29.054Z</time></trkpt><trkpt lat="43.1889503" lon="6.9625047"><ele>0.0</ele><time>2026-04-30T22:45:30.053Z</time></trkpt><trkpt lat="43.1890015" lon="6.9626054"><ele>0.0</ele><time>2026-04-30T22:45:31.054Z</time></trkpt><trkpt lat="43.1890522" lon="6.9627032"><ele>0.0</ele><time>2026-04-30T22:45:32.053Z</time></trkpt><trkpt lat="43.1891021" lon="6.9627992"><ele>0.0</ele><time>2026-04-30T22:45:33.053Z</time></trkpt><trkpt lat="43.1891445" lon="6.9628902"><ele>0.0</ele><time>2026-04-30T22:45:34.053Z</time></trkpt><trkpt lat="43.1891942" lon="6.9629846"><ele>0.0</ele><time>2026-04-30T22:45:35.054Z</time></trkpt><trkpt lat="43.1892406" lon="6.9630798"><ele>0.0</ele><time>2026-04-30T22:45:36.053Z</time></trkpt><trkpt lat="43.1892885" lon="6.9631778"><ele>0.0</ele><time>2026-04-30T22:45:37.054Z</time></trkpt><trkpt lat="43.1893385" lon="6.9632707"><ele>0.0</ele><time>2026-04-30T22:45:38.054Z</time></trkpt><trkpt lat="43.1894346" lon="6.9634627"><ele>0.0</ele><time>2026-04-30T22:45:40.054Z</time></trkpt><trkpt lat="43.189479" lon="6.9635623"><ele>0.0</ele><time>2026-04-30T22:45:41.054Z</time></trkpt><trkpt lat="43.1895248" lon="6.9636538"><ele>0.0</ele><time>2026-04-30T22:45:42.053Z</time></trkpt><trkpt lat="43.1895719" lon="6.963746"><ele>0.0</ele><time>2026-04-30T22:45:43.053Z</time></trkpt><trkpt lat="43.189617" lon="6.9638386"><ele>0.0</ele><time>2026-04-30T22:45:44.053Z</time></trkpt><trkpt lat="43.1896633" lon="6.9639332"><ele>0.0</ele><time>2026-04-30T22:45:45.054Z</time></trkpt><trkpt lat="43.1897118" lon="6.9640284"><ele>0.0</ele><time>2026-04-30T22:45:46.054Z</time></trkpt><trkpt lat="43.1897601" lon="6.9641201"><ele>0.0</ele><time>2026-04-30T22:45:47.054Z</time></trkpt><trkpt lat="43.1898071" lon="6.9642161"><ele>0.0</ele><time>2026-04-30T22:45:48.053Z</time></trkpt><trkpt lat="43.1898637" lon="6.9643071"><ele>0.0</ele><time>2026-04-30T22:45:49.053Z</time></trkpt><trkpt lat="43.189968" lon="6.9644834"><ele>0.0</ele><time>2026-04-30T22:45:51.053Z</time></trkpt><trkpt lat="43.1900143" lon="6.9645689"><ele>0.0</ele><time>2026-04-30T22:45:52.053Z</time></trkpt><trkpt lat="43.190059" lon="6.9646628"><ele>0.0</ele><time>2026-04-30T22:45:53.053Z</time></trkpt><trkpt lat="43.1901071" lon="6.9647544"><ele>0.0</ele><time>2026-04-30T22:45:54.053Z</time></trkpt><trkpt lat="43.1901555" lon="6.9648492"><ele>0.0</ele><time>2026-04-30T22:45:55.054Z</time></trkpt><trkpt lat="43.1902064" lon="6.9649417"><ele>0.0</ele><time>2026-04-30T22:45:56.054Z</time></trkpt><trkpt lat="43.1902539" lon="6.9650419"><ele>0.0</ele><time>2026-04-30T22:45:57.053Z</time></trkpt><trkpt lat="43.1902965" lon="6.9651452"><ele>0.0</ele><time>2026-04-30T22:45:58.053Z</time></trkpt><trkpt lat="43.1903469" lon="6.9652427"><ele>0.0</ele><time>2026-04-30T22:45:59.054Z</time></trkpt><trkpt lat="43.1904431" lon="6.96544"><ele>0.0</ele><time>2026-04-30T22:46:01.053Z</time></trkpt><trkpt lat="43.1904897" lon="6.9655436"><ele>0.0</ele><time>2026-04-30T22:46:02.053Z</time></trkpt><trkpt lat="43.1905485" lon="6.9656244"><ele>0.0</ele><time>2026-04-30T22:46:03.053Z</time></trkpt><trkpt lat="43.1905995" lon="6.9657156"><ele>0.0</ele><time>2026-04-30T22:46:04.053Z</time></trkpt><trkpt lat="43.1906513" lon="6.9658113"><ele>0.0</ele><time>2026-04-30T22:46:05.054Z</time></trkpt><trkpt lat="43.1907037" lon="6.9659054"><ele>0.0</ele><time>2026-04-30T22:46:06.054Z</time></trkpt><trkpt lat="43.1907473" lon="6.9659968"><ele>0.0</ele><time>2026-04-30T22:46:07.053Z</time></trkpt><trkpt lat="43.1907957" lon="6.9660903"><ele>0.0</ele><time>2026-04-30T22:46:08.053Z</time></trkpt><trkpt lat="43.1908451" lon="6.9661801"><ele>0.0</ele><time>2026-04-30T22:46:09.053Z</time></trkpt><trkpt lat="43.1908979" lon="6.9662713"><ele>0.0</ele><time>2026-04-30T22:46:10.053Z</time></trkpt><trkpt lat="43.1909575" lon="6.966356"><ele>0.0</ele><time>2026-04-30T22:46:11.053Z</time></trkpt><trkpt lat="43.1910047" lon="6.9664508"><ele>0.0</ele><time>2026-04-30T22:46:12.054Z</time></trkpt><trkpt lat="43.191051" lon="6.9665417"><ele>0.0</ele><time>2026-04-30T22:46:13.054Z</time></trkpt><trkpt lat="43.1910984" lon="6.9666313"><ele>0.0</ele><time>2026-04-30T22:46:14.054Z</time></trkpt><trkpt lat="43.1911483" lon="6.966723"><ele>0.0</ele><time>2026-04-30T22:46:15.054Z</time></trkpt><trkpt lat="43.1911975" lon="6.9668176"><ele>0.0</ele><time>2026-04-30T22:46:16.053Z</time></trkpt><trkpt lat="43.1912523" lon="6.9669086"><ele>0.0</ele><time>2026-04-30T22:46:17.054Z</time></trkpt><trkpt lat="43.1913047" lon="6.9669974"><ele>0.0</ele><time>2026-04-30T22:46:18.053Z</time></trkpt><trkpt lat="43.1913642" lon="6.9670827"><ele>0.0</ele><time>2026-04-30T22:46:19.054Z</time></trkpt><trkpt lat="43.1914213" lon="6.9671689"><ele>0.0</ele><time>2026-04-30T22:46:20.054Z</time></trkpt><trkpt lat="43.191524" lon="6.9673454"><ele>0.0</ele><time>2026-04-30T22:46:22.053Z</time></trkpt><trkpt lat="43.1916178" lon="6.9675355"><ele>0.0</ele><time>2026-04-30T22:46:24.053Z</time></trkpt><trkpt lat="43.191667" lon="6.9676281"><ele>0.0</ele><time>2026-04-30T22:46:25.053Z</time></trkpt><trkpt lat="43.1917153" lon="6.9677209"><ele>0.0</ele><time>2026-04-30T22:46:26.054Z</time></trkpt><trkpt lat="43.1917622" lon="6.967813"><ele>0.0</ele><time>2026-04-30T22:46:27.053Z</time></trkpt><trkpt lat="43.1918169" lon="6.9679021"><ele>0.0</ele><time>2026-04-30T22:46:28.053Z</time></trkpt><trkpt lat="43.1918667" lon="6.9679966"><ele>0.0</ele><time>2026-04-30T22:46:29.054Z</time></trkpt><trkpt lat="43.1919204" lon="6.9680902"><ele>0.0</ele><time>2026-04-30T22:46:30.053Z</time></trkpt><trkpt lat="43.1919714" lon="6.9681894"><ele>0.0</ele><time>2026-04-30T22:46:31.054Z</time></trkpt><trkpt lat="43.1920176" lon="6.9682861"><ele>0.0</ele><time>2026-04-30T22:46:32.053Z</time></trkpt><trkpt lat="43.1920626" lon="6.9683828"><ele>0.0</ele><time>2026-04-30T22:46:33.054Z</time></trkpt><trkpt lat="43.1921101" lon="6.9684776"><ele>0.0</ele><time>2026-04-30T22:46:34.053Z</time></trkpt><trkpt lat="43.1921556" lon="6.9685672"><ele>0.0</ele><time>2026-04-30T22:46:35.053Z</time></trkpt><trkpt lat="43.1922149" lon="6.9686572"><ele>0.0</ele><time>2026-04-30T22:46:36.054Z</time></trkpt><trkpt lat="43.1922662" lon="6.9687532"><ele>0.0</ele><time>2026-04-30T22:46:37.054Z</time></trkpt><trkpt lat="43.1923208" lon="6.9688468"><ele>0.0</ele><time>2026-04-30T22:46:38.053Z</time></trkpt><trkpt lat="43.192367" lon="6.9689428"><ele>0.0</ele><time>2026-04-30T22:46:39.054Z</time></trkpt><trkpt lat="43.1924128" lon="6.9690376"><ele>0.0</ele><time>2026-04-30T22:46:40.054Z</time></trkpt><trkpt lat="43.1924588" lon="6.96913"><ele>0.0</ele><time>2026-04-30T22:46:41.054Z</time></trkpt><trkpt lat="43.1925631" lon="6.9693025"><ele>0.0</ele><time>2026-04-30T22:46:43.054Z</time></trkpt><trkpt lat="43.1926122" lon="6.9693962"><ele>0.0</ele><time>2026-04-30T22:46:44.054Z</time></trkpt><trkpt lat="43.1926563" lon="6.9694895"><ele>0.0</ele><time>2026-04-30T22:46:45.054Z</time></trkpt><trkpt lat="43.1927009" lon="6.969586"><ele>0.0</ele><time>2026-04-30T22:46:46.053Z</time></trkpt><trkpt lat="43.1927477" lon="6.9696812"><ele>0.0</ele><time>2026-04-30T22:46:47.054Z</time></trkpt><trkpt lat="43.1927911" lon="6.9697778"><ele>0.0</ele><time>2026-04-30T22:46:48.054Z</time></trkpt><trkpt lat="43.1928338" lon="6.9698732"><ele>0.0</ele><time>2026-04-30T22:46:49.053Z</time></trkpt><trkpt lat="43.1928821" lon="6.9699698"><ele>0.0</ele><time>2026-04-30T22:46:50.053Z</time></trkpt><trkpt lat="43.19293" lon="6.9700633"><ele>0.0</ele><time>2026-04-30T22:46:51.054Z</time></trkpt><trkpt lat="43.1929822" lon="6.9701576"><ele>0.0</ele><time>2026-04-30T22:46:52.053Z</time></trkpt><trkpt lat="43.193029" lon="6.9702472"><ele>0.0</ele><time>2026-04-30T22:46:53.053Z</time></trkpt><trkpt lat="43.1930728" lon="6.9703355"><ele>0.0</ele><time>2026-04-30T22:46:54.053Z</time></trkpt><trkpt lat="43.193133" lon="6.9704193"><ele>0.0</ele><time>2026-04-30T22:46:55.053Z</time></trkpt><trkpt lat="43.1932354" lon="6.970596"><ele>0.0</ele><time>2026-04-30T22:46:57.054Z</time></trkpt><trkpt lat="43.1932841" lon="6.9706875"><ele>0.0</ele><time>2026-04-30T22:46:58.053Z</time></trkpt><trkpt lat="43.1933365" lon="6.9707768"><ele>0.0</ele><time>2026-04-30T22:46:59.054Z</time></trkpt><trkpt lat="43.1933868" lon="6.970867"><ele>0.0</ele><time>2026-04-30T22:47:00.054Z</time></trkpt><trkpt lat="43.1934357" lon="6.970958"><ele>0.0</ele><time>2026-04-30T22:47:01.053Z</time></trkpt><trkpt lat="43.1934865" lon="6.9710482"><ele>0.0</ele><time>2026-04-30T22:47:02.054Z</time></trkpt><trkpt lat="43.1935839" lon="6.9712457"><ele>0.0</ele><time>2026-04-30T22:47:04.053Z</time></trkpt><trkpt lat="43.193634" lon="6.9713423"><ele>0.0</ele><time>2026-04-30T22:47:05.053Z</time></trkpt><trkpt lat="43.1936797" lon="6.9714305"><ele>0.0</ele><time>2026-04-30T22:47:06.054Z</time></trkpt><trkpt lat="43.1937259" lon="6.9715262"><ele>0.0</ele><time>2026-04-30T22:47:07.053Z</time></trkpt><trkpt lat="43.1937695" lon="6.9716271"><ele>0.0</ele><time>2026-04-30T22:47:08.053Z</time></trkpt><trkpt lat="43.1938138" lon="6.9717227"><ele>0.0</ele><time>2026-04-30T22:47:09.053Z</time></trkpt><trkpt lat="43.1938608" lon="6.971819"><ele>0.0</ele><time>2026-04-30T22:47:10.053Z</time></trkpt><trkpt lat="43.1939199" lon="6.9719103"><ele>0.0</ele><time>2026-04-30T22:47:11.053Z</time></trkpt><trkpt lat="43.1939673" lon="6.9720004"><ele>0.0</ele><time>2026-04-30T22:47:12.053Z</time></trkpt><trkpt lat="43.1940083" lon="6.9720897"><ele>0.0</ele><time>2026-04-30T22:47:13.053Z</time></trkpt><trkpt lat="43.1940515" lon="6.9721814"><ele>0.0</ele><time>2026-04-30T22:47:14.053Z</time></trkpt><trkpt lat="43.1940997" lon="6.972275"><ele>0.0</ele><time>2026-04-30T22:47:15.054Z</time></trkpt><trkpt lat="43.1941541" lon="6.9723645"><ele>0.0</ele><time>2026-04-30T22:47:16.053Z</time></trkpt><trkpt lat="43.1942134" lon="6.9724566"><ele>0.0</ele><time>2026-04-30T22:47:17.054Z</time></trkpt><trkpt lat="43.1942623" lon="6.9725512"><ele>0.0</ele><time>2026-04-30T22:47:18.054Z</time></trkpt><trkpt lat="43.1943148" lon="6.9726455"><ele>0.0</ele><time>2026-04-30T22:47:19.054Z</time></trkpt><trkpt lat="43.1943634" lon="6.9727406"><ele>0.0</ele><time>2026-04-30T22:47:20.054Z</time></trkpt><trkpt lat="43.1944111" lon="6.9728368"><ele>0.0</ele><time>2026-04-30T22:47:21.053Z</time></trkpt><trkpt lat="43.1944586" lon="6.9729285"><ele>0.0</ele><time>2026-04-30T22:47:22.053Z</time></trkpt><trkpt lat="43.194511" lon="6.9730223"><ele>0.0</ele><time>2026-04-30T22:47:23.053Z</time></trkpt><trkpt lat="43.1946081" lon="6.9732179"><ele>0.0</ele><time>2026-04-30T22:47:25.054Z</time></trkpt><trkpt lat="43.1946541" lon="6.9733129"><ele>0.0</ele><time>2026-04-30T22:47:26.053Z</time></trkpt><trkpt lat="43.194703" lon="6.9734083"><ele>0.0</ele><time>2026-04-30T22:47:27.054Z</time></trkpt><trkpt lat="43.1948002" lon="6.9736025"><ele>0.0</ele><time>2026-04-30T22:47:29.053Z</time></trkpt><trkpt lat="43.1948429" lon="6.9737022"><ele>0.0</ele><time>2026-04-30T22:47:30.054Z</time></trkpt><trkpt lat="43.194893" lon="6.9737925"><ele>0.0</ele><time>2026-04-30T22:47:31.054Z</time></trkpt><trkpt lat="43.1949419" lon="6.9738848"><ele>0.0</ele><time>2026-04-30T22:47:32.053Z</time></trkpt><trkpt lat="43.1949877" lon="6.973982"><ele>0.0</ele><time>2026-04-30T22:47:33.053Z</time></trkpt><trkpt lat="43.1950362" lon="6.9740792"><ele>0.0</ele><time>2026-04-30T22:47:34.053Z</time></trkpt><trkpt lat="43.1950879" lon="6.9741727"><ele>0.0</ele><time>2026-04-30T22:47:35.053Z</time></trkpt><trkpt lat="43.1951375" lon="6.9742673"><ele>0.0</ele><time>2026-04-30T22:47:36.053Z</time></trkpt><trkpt lat="43.1951828" lon="6.974361"><ele>0.0</ele><time>2026-04-30T22:47:37.053Z</time></trkpt><trkpt lat="43.1952316" lon="6.974453"><ele>0.0</ele><time>2026-04-30T22:47:38.053Z</time></trkpt><trkpt lat="43.1952818" lon="6.9745418"><ele>0.0</ele><time>2026-04-30T22:47:39.054Z</time></trkpt><trkpt lat="43.1953301" lon="6.974629"><ele>0.0</ele><time>2026-04-30T22:47:40.054Z</time></trkpt><trkpt lat="43.1953775" lon="6.9747233"><ele>0.0</ele><time>2026-04-30T22:47:41.054Z</time></trkpt><trkpt lat="43.1954293" lon="6.9748154"><ele>0.0</ele><time>2026-04-30T22:47:42.054Z</time></trkpt><trkpt lat="43.1954784" lon="6.9749113"><ele>0.0</ele><time>2026-04-30T22:47:43.053Z</time></trkpt><trkpt lat="43.195528" lon="6.9750035"><ele>0.0</ele><time>2026-04-30T22:47:44.054Z</time></trkpt><trkpt lat="43.1956237" lon="6.9751943"><ele>0.0</ele><time>2026-04-30T22:47:46.053Z</time></trkpt><trkpt lat="43.1956719" lon="6.975291"><ele>0.0</ele><time>2026-04-30T22:47:47.053Z</time></trkpt><trkpt lat="43.195723" lon="6.9753872"><ele>0.0</ele><time>2026-04-30T22:47:48.053Z</time></trkpt><trkpt lat="43.195772" lon="6.9754846"><ele>0.0</ele><time>2026-04-30T22:47:49.054Z</time></trkpt><trkpt lat="43.1958242" lon="6.9755798"><ele>0.0</ele><time>2026-04-30T22:47:50.054Z</time></trkpt><trkpt lat="43.1958764" lon="6.9756675"><ele>0.0</ele><time>2026-04-30T22:47:51.054Z</time></trkpt><trkpt lat="43.1959182" lon="6.9757688"><ele>0.0</ele><time>2026-04-30T22:47:52.053Z</time></trkpt><trkpt lat="43.195964" lon="6.9758636"><ele>0.0</ele><time>2026-04-30T22:47:53.053Z</time></trkpt><trkpt lat="43.1960146" lon="6.9759528"><ele>0.0</ele><time>2026-04-30T22:47:54.054Z</time></trkpt><trkpt lat="43.1960665" lon="6.9760408"><ele>0.0</ele><time>2026-04-30T22:47:55.053Z</time></trkpt><trkpt lat="43.1961136" lon="6.9761332"><ele>0.0</ele><time>2026-04-30T22:47:56.054Z</time></trkpt><trkpt lat="43.196162" lon="6.9762269"><ele>0.0</ele><time>2026-04-30T22:47:57.053Z</time></trkpt><trkpt lat="43.1962092" lon="6.9763212"><ele>0.0</ele><time>2026-04-30T22:47:58.054Z</time></trkpt><trkpt lat="43.1962539" lon="6.9764208"><ele>0.0</ele><time>2026-04-30T22:47:59.053Z</time></trkpt><trkpt lat="43.1963501" lon="6.9766052"><ele>0.0</ele><time>2026-04-30T22:48:01.053Z</time></trkpt><trkpt lat="43.1963929" lon="6.9767021"><ele>0.0</ele><time>2026-04-30T22:48:02.054Z</time></trkpt><trkpt lat="43.1964387" lon="6.9767979"><ele>0.0</ele><time>2026-04-30T22:48:03.053Z</time></trkpt><trkpt lat="43.1964889" lon="6.9768888"><ele>0.0</ele><time>2026-04-30T22:48:04.053Z</time></trkpt><trkpt lat="43.196545" lon="6.9769805"><ele>0.0</ele><time>2026-04-30T22:48:05.054Z</time></trkpt><trkpt lat="43.1966453" lon="6.9771686"><ele>0.0</ele><time>2026-04-30T22:48:07.053Z</time></trkpt><trkpt lat="43.1966947" lon="6.9772631"><ele>0.0</ele><time>2026-04-30T22:48:08.054Z</time></trkpt><trkpt lat="43.1967482" lon="6.977358"><ele>0.0</ele><time>2026-04-30T22:48:09.053Z</time></trkpt><trkpt lat="43.196801" lon="6.9774464"><ele>0.0</ele><time>2026-04-30T22:48:10.054Z</time></trkpt><trkpt lat="43.1968551" lon="6.9775341"><ele>0.0</ele><time>2026-04-30T22:48:11.054Z</time></trkpt><trkpt lat="43.1969077" lon="6.977624"><ele>0.0</ele><time>2026-04-30T22:48:12.053Z</time></trkpt><trkpt lat="43.1969537" lon="6.9777196"><ele>0.0</ele><time>2026-04-30T22:48:13.053Z</time></trkpt><trkpt lat="43.1970066" lon="6.9778102"><ele>0.0</ele><time>2026-04-30T22:48:14.053Z</time></trkpt><trkpt lat="43.1970599" lon="6.9778957"><ele>0.0</ele><time>2026-04-30T22:48:15.054Z</time></trkpt><trkpt lat="43.1971128" lon="6.9779833"><ele>0.0</ele><time>2026-04-30T22:48:16.054Z</time></trkpt><trkpt lat="43.1971714" lon="6.9780702"><ele>0.0</ele><time>2026-04-30T22:48:17.054Z</time></trkpt><trkpt lat="43.1972237" lon="6.9781584"><ele>0.0</ele><time>2026-04-30T22:48:18.053Z</time></trkpt><trkpt lat="43.1972705" lon="6.9782498"><ele>0.0</ele><time>2026-04-30T22:48:19.054Z</time></trkpt><trkpt lat="43.1973232" lon="6.9783382"><ele>0.0</ele><time>2026-04-30T22:48:20.053Z</time></trkpt><trkpt lat="43.197374" lon="6.9784296"><ele>0.0</ele><time>2026-04-30T22:48:21.053Z</time></trkpt><trkpt lat="43.1974235" lon="6.9785245"><ele>0.0</ele><time>2026-04-30T22:48:22.054Z</time></trkpt><trkpt lat="43.1974748" lon="6.9786165"><ele>0.0</ele><time>2026-04-30T22:48:23.054Z</time></trkpt><trkpt lat="43.1975294" lon="6.9787095"><ele>0.0</ele><time>2026-04-30T22:48:24.053Z</time></trkpt><trkpt lat="43.1975777" lon="6.9788071"><ele>0.0</ele><time>2026-04-30T22:48:25.053Z</time></trkpt><trkpt lat="43.19763" lon="6.9788979"><ele>0.0</ele><time>2026-04-30T22:48:26.054Z</time></trkpt><trkpt lat="43.1977331" lon="6.9790867"><ele>0.0</ele><time>2026-04-30T22:48:28.054Z</time></trkpt><trkpt lat="43.1977968" lon="6.9791702"><ele>0.0</ele><time>2026-04-30T22:48:29.054Z</time></trkpt><trkpt lat="43.1978516" lon="6.9792599"><ele>0.0</ele><time>2026-04-30T22:48:30.054Z</time></trkpt><trkpt lat="43.1979107" lon="6.9793515"><ele>0.0</ele><time>2026-04-30T22:48:31.054Z</time></trkpt><trkpt lat="43.1980197" lon="6.9795268"><ele>0.0</ele><time>2026-04-30T22:48:33.054Z</time></trkpt><trkpt lat="43.1980647" lon="6.9796217"><ele>0.0</ele><time>2026-04-30T22:48:34.053Z</time></trkpt><trkpt lat="43.1981078" lon="6.979719"><ele>0.0</ele><time>2026-04-30T22:48:35.053Z</time></trkpt><trkpt lat="43.1981538" lon="6.9798172"><ele>0.0</ele><time>2026-04-30T22:48:36.054Z</time></trkpt><trkpt lat="43.1981975" lon="6.9799129"><ele>0.0</ele><time>2026-04-30T22:48:37.053Z</time></trkpt><trkpt lat="43.1982418" lon="6.9800095"><ele>0.0</ele><time>2026-04-30T22:48:38.053Z</time></trkpt><trkpt lat="43.1982884" lon="6.9801064"><ele>0.0</ele><time>2026-04-30T22:48:39.053Z</time></trkpt><trkpt lat="43.198331" lon="6.9802038"><ele>0.0</ele><time>2026-04-30T22:48:40.054Z</time></trkpt><trkpt lat="43.1983759" lon="6.9803025"><ele>0.0</ele><time>2026-04-30T22:48:41.054Z</time></trkpt><trkpt lat="43.1984221" lon="6.9803981"><ele>0.0</ele><time>2026-04-30T22:48:42.054Z</time></trkpt><trkpt lat="43.1984674" lon="6.9804924"><ele>0.0</ele><time>2026-04-30T22:48:43.053Z</time></trkpt><trkpt lat="43.1985139" lon="6.9805889"><ele>0.0</ele><time>2026-04-30T22:48:44.053Z</time></trkpt><trkpt lat="43.1985593" lon="6.9806873"><ele>0.0</ele><time>2026-04-30T22:48:45.053Z</time></trkpt><trkpt lat="43.1986055" lon="6.9807828"><ele>0.0</ele><time>2026-04-30T22:48:46.054Z</time></trkpt><trkpt lat="43.1986524" lon="6.9808793"><ele>0.0</ele><time>2026-04-30T22:48:47.054Z</time></trkpt><trkpt lat="43.1987477" lon="6.9810652"><ele>0.0</ele><time>2026-04-30T22:48:49.054Z</time></trkpt><trkpt lat="43.1988024" lon="6.9811566"><ele>0.0</ele><time>2026-04-30T22:48:50.053Z</time></trkpt><trkpt lat="43.1988548" lon="6.9812485"><ele>0.0</ele><time>2026-04-30T22:48:51.053Z</time></trkpt><trkpt lat="43.1989088" lon="6.9813388"><ele>0.0</ele><time>2026-04-30T22:48:52.053Z</time></trkpt><trkpt lat="43.1989629" lon="6.9814314"><ele>0.0</ele><time>2026-04-30T22:48:53.054Z</time></trkpt><trkpt lat="43.1990151" lon="6.9815264"><ele>0.0</ele><time>2026-04-30T22:48:54.053Z</time></trkpt><trkpt lat="43.1990597" lon="6.981624"><ele>0.0</ele><time>2026-04-30T22:48:55.053Z</time></trkpt><trkpt lat="43.1990999" lon="6.9817208"><ele>0.0</ele><time>2026-04-30T22:48:56.053Z</time></trkpt><trkpt lat="43.1991474" lon="6.9818143"><ele>0.0</ele><time>2026-04-30T22:48:57.054Z</time></trkpt><trkpt lat="43.1991969" lon="6.981908"><ele>0.0</ele><time>2026-04-30T22:48:58.053Z</time></trkpt><trkpt lat="43.1992497" lon="6.9819987"><ele>0.0</ele><time>2026-04-30T22:48:59.054Z</time></trkpt><trkpt lat="43.1993005" lon="6.9820872"><ele>0.0</ele><time>2026-04-30T22:49:00.053Z</time></trkpt><trkpt lat="43.1993461" lon="6.9821797"><ele>0.0</ele><time>2026-04-30T22:49:01.053Z</time></trkpt><trkpt lat="43.1993923" lon="6.9822718"><ele>0.0</ele><time>2026-04-30T22:49:02.054Z</time></trkpt><trkpt lat="43.199441" lon="6.9823658"><ele>0.0</ele><time>2026-04-30T22:49:03.053Z</time></trkpt><trkpt lat="43.1995382" lon="6.9825533"><ele>0.0</ele><time>2026-04-30T22:49:05.053Z</time></trkpt><trkpt lat="43.1995899" lon="6.9826461"><ele>0.0</ele><time>2026-04-30T22:49:06.053Z</time></trkpt><trkpt lat="43.199639" lon="6.9827426"><ele>0.0</ele><time>2026-04-30T22:49:07.054Z</time></trkpt><trkpt lat="43.19969" lon="6.9828349"><ele>0.0</ele><time>2026-04-30T22:49:08.054Z</time></trkpt><trkpt lat="43.1997953" lon="6.9830135"><ele>0.0</ele><time>2026-04-30T22:49:10.054Z</time></trkpt><trkpt lat="43.1998462" lon="6.9831096"><ele>0.0</ele><time>2026-04-30T22:49:11.054Z</time></trkpt><trkpt lat="43.1998968" lon="6.9832032"><ele>0.0</ele><time>2026-04-30T22:49:12.054Z</time></trkpt><trkpt lat="43.1999423" lon="6.9832979"><ele>0.0</ele><time>2026-04-30T22:49:13.054Z</time></trkpt><trkpt lat="43.1999814" lon="6.9833988"><ele>0.0</ele><time>2026-04-30T22:49:14.054Z</time></trkpt><trkpt lat="43.200027" lon="6.9834951"><ele>0.0</ele><time>2026-04-30T22:49:15.054Z</time></trkpt><trkpt lat="43.2000803" lon="6.9835859"><ele>0.0</ele><time>2026-04-30T22:49:16.054Z</time></trkpt><trkpt lat="43.2001344" lon="6.9836755"><ele>0.0</ele><time>2026-04-30T22:49:17.054Z</time></trkpt><trkpt lat="43.2001838" lon="6.9837669"><ele>0.0</ele><time>2026-04-30T22:49:18.054Z</time></trkpt><trkpt lat="43.2002334" lon="6.9838583"><ele>0.0</ele><time>2026-04-30T22:49:19.053Z</time></trkpt><trkpt lat="43.200289" lon="6.9839503"><ele>0.0</ele><time>2026-04-30T22:49:20.054Z</time></trkpt><trkpt lat="43.2003429" lon="6.9840417"><ele>0.0</ele><time>2026-04-30T22:49:21.053Z</time></trkpt><trkpt lat="43.2003906" lon="6.9841349"><ele>0.0</ele><time>2026-04-30T22:49:22.054Z</time></trkpt><trkpt lat="43.20044" lon="6.9842255"><ele>0.0</ele><time>2026-04-30T22:49:23.053Z</time></trkpt><trkpt lat="43.2004887" lon="6.9843165"><ele>0.0</ele><time>2026-04-30T22:49:24.053Z</time></trkpt><trkpt lat="43.2005401" lon="6.9844069"><ele>0.0</ele><time>2026-04-30T22:49:25.054Z</time></trkpt><trkpt lat="43.200596" lon="6.9844927"><ele>0.0</ele><time>2026-04-30T22:49:26.054Z</time></trkpt><trkpt lat="43.2006467" lon="6.9845878"><ele>0.0</ele><time>2026-04-30T22:49:27.053Z</time></trkpt><trkpt lat="43.2007038" lon="6.984679"><ele>0.0</ele><time>2026-04-30T22:49:28.053Z</time></trkpt><trkpt lat="43.2007621" lon="6.9847705"><ele>0.0</ele><time>2026-04-30T22:49:29.053Z</time></trkpt><trkpt lat="43.200866" lon="6.9849514"><ele>0.0</ele><time>2026-04-30T22:49:31.054Z</time></trkpt><trkpt lat="43.2009158" lon="6.985041"><ele>0.0</ele><time>2026-04-30T22:49:32.054Z</time></trkpt><trkpt lat="43.2009647" lon="6.9851353"><ele>0.0</ele><time>2026-04-30T22:49:33.053Z</time></trkpt><trkpt lat="43.20101" lon="6.9852315"><ele>0.0</ele><time>2026-04-30T22:49:34.054Z</time></trkpt><trkpt lat="43.2010594" lon="6.9853237"><ele>0.0</ele><time>2026-04-30T22:49:35.054Z</time></trkpt><trkpt lat="43.2011494" lon="6.9855113"><ele>0.0</ele><time>2026-04-30T22:49:37.053Z</time></trkpt><trkpt lat="43.2011915" lon="6.9856019"><ele>0.0</ele><time>2026-04-30T22:49:38.054Z</time></trkpt><trkpt lat="43.2012381" lon="6.9856916"><ele>0.0</ele><time>2026-04-30T22:49:39.054Z</time></trkpt><trkpt lat="43.2012809" lon="6.9857902"><ele>0.0</ele><time>2026-04-30T22:49:40.053Z</time></trkpt><trkpt lat="43.2013256" lon="6.9858882"><ele>0.0</ele><time>2026-04-30T22:49:41.054Z</time></trkpt><trkpt lat="43.2013604" lon="6.9859873"><ele>0.0</ele><time>2026-04-30T22:49:42.053Z</time></trkpt><trkpt lat="43.2014081" lon="6.9860803"><ele>0.0</ele><time>2026-04-30T22:49:43.054Z</time></trkpt><trkpt lat="43.201459" lon="6.9861709"><ele>0.0</ele><time>2026-04-30T22:49:44.053Z</time></trkpt><trkpt lat="43.2015135" lon="6.9862628"><ele>0.0</ele><time>2026-04-30T22:49:45.053Z</time></trkpt><trkpt lat="43.2015722" lon="6.9863535"><ele>0.0</ele><time>2026-04-30T22:49:46.054Z</time></trkpt><trkpt lat="43.201622" lon="6.9864491"><ele>0.0</ele><time>2026-04-30T22:49:47.054Z</time></trkpt><trkpt lat="43.2016657" lon="6.9865474"><ele>0.0</ele><time>2026-04-30T22:49:48.053Z</time></trkpt><trkpt lat="43.201712" lon="6.9866472"><ele>0.0</ele><time>2026-04-30T22:49:49.053Z</time></trkpt><trkpt lat="43.2017587" lon="6.9867433"><ele>0.0</ele><time>2026-04-30T22:49:50.054Z</time></trkpt><trkpt lat="43.2018514" lon="6.9869359"><ele>0.0</ele><time>2026-04-30T22:49:52.054Z</time></trkpt><trkpt lat="43.2018959" lon="6.9870327"><ele>0.0</ele><time>2026-04-30T22:49:53.053Z</time></trkpt><trkpt lat="43.2019438" lon="6.9871339"><ele>0.0</ele><time>2026-04-30T22:49:54.054Z</time></trkpt><trkpt lat="43.2019918" lon="6.9872313"><ele>0.0</ele><time>2026-04-30T22:49:55.053Z</time></trkpt><trkpt lat="43.2020515" lon="6.9873207"><ele>0.0</ele><time>2026-04-30T22:49:56.054Z</time></trkpt><trkpt lat="43.2021048" lon="6.9874118"><ele>0.0</ele><time>2026-04-30T22:49:57.054Z</time></trkpt><trkpt lat="43.2021547" lon="6.9875056"><ele>0.0</ele><time>2026-04-30T22:49:58.054Z</time></trkpt><trkpt lat="43.2021966" lon="6.9876053"><ele>0.0</ele><time>2026-04-30T22:49:59.053Z</time></trkpt><trkpt lat="43.2022407" lon="6.9877017"><ele>0.0</ele><time>2026-04-30T22:50:00.054Z</time></trkpt><trkpt lat="43.2022873" lon="6.9877947"><ele>0.0</ele><time>2026-04-30T22:50:01.053Z</time></trkpt><trkpt lat="43.2023338" lon="6.9878822"><ele>0.0</ele><time>2026-04-30T22:50:02.054Z</time></trkpt><trkpt lat="43.2023775" lon="6.9879807"><ele>0.0</ele><time>2026-04-30T22:50:03.054Z</time></trkpt><trkpt lat="43.2024243" lon="6.9880747"><ele>0.0</ele><time>2026-04-30T22:50:04.053Z</time></trkpt><trkpt lat="43.2024763" lon="6.9881623"><ele>0.0</ele><time>2026-04-30T22:50:05.054Z</time></trkpt><trkpt lat="43.2025291" lon="6.9882522"><ele>0.0</ele><time>2026-04-30T22:50:06.053Z</time></trkpt><trkpt lat="43.2025825" lon="6.9883394"><ele>0.0</ele><time>2026-04-30T22:50:07.053Z</time></trkpt><trkpt lat="43.2026786" lon="6.9885205"><ele>0.0</ele><time>2026-04-30T22:50:09.053Z</time></trkpt><trkpt lat="43.2027288" lon="6.98861"><ele>0.0</ele><time>2026-04-30T22:50:10.054Z</time></trkpt><trkpt lat="43.2027845" lon="6.9886986"><ele>0.0</ele><time>2026-04-30T22:50:11.053Z</time></trkpt><trkpt lat="43.2028746" lon="6.9888926"><ele>0.0</ele><time>2026-04-30T22:50:13.054Z</time></trkpt><trkpt lat="43.202923" lon="6.9889854"><ele>0.0</ele><time>2026-04-30T22:50:14.053Z</time></trkpt><trkpt lat="43.2029717" lon="6.9890755"><ele>0.0</ele><time>2026-04-30T22:50:15.054Z</time></trkpt><trkpt lat="43.2030227" lon="6.9891698"><ele>0.0</ele><time>2026-04-30T22:50:16.054Z</time></trkpt><trkpt lat="43.2030689" lon="6.9892647"><ele>0.0</ele><time>2026-04-30T22:50:17.053Z</time></trkpt><trkpt lat="43.2031171" lon="6.9893567"><ele>0.0</ele><time>2026-04-30T22:50:18.053Z</time></trkpt><trkpt lat="43.2031613" lon="6.9894514"><ele>0.0</ele><time>2026-04-30T22:50:19.053Z</time></trkpt><trkpt lat="43.2032062" lon="6.9895446"><ele>0.0</ele><time>2026-04-30T22:50:20.053Z</time></trkpt><trkpt lat="43.2032514" lon="6.9896376"><ele>0.0</ele><time>2026-04-30T22:50:21.054Z</time></trkpt><trkpt lat="43.2032962" lon="6.9897326"><ele>0.0</ele><time>2026-04-30T22:50:22.053Z</time></trkpt><trkpt lat="43.2033424" lon="6.9898247"><ele>0.0</ele><time>2026-04-30T22:50:23.054Z</time></trkpt><trkpt lat="43.2033877" lon="6.9899211"><ele>0.0</ele><time>2026-04-30T22:50:24.054Z</time></trkpt><trkpt lat="43.2034312" lon="6.9900174"><ele>0.0</ele><time>2026-04-30T22:50:25.054Z</time></trkpt><trkpt lat="43.2034783" lon="6.990116"><ele>0.0</ele><time>2026-04-30T22:50:26.053Z</time></trkpt><trkpt lat="43.2035309" lon="6.9902116"><ele>0.0</ele><time>2026-04-30T22:50:27.054Z</time></trkpt><trkpt lat="43.20359" lon="6.9903009"><ele>0.0</ele><time>2026-04-30T22:50:28.053Z</time></trkpt><trkpt lat="43.2036461" lon="6.9903891"><ele>0.0</ele><time>2026-04-30T22:50:29.053Z</time></trkpt><trkpt lat="43.2037006" lon="6.9904787"><ele>0.0</ele><time>2026-04-30T22:50:30.054Z</time></trkpt><trkpt lat="43.2037516" lon="6.9905748"><ele>0.0</ele><time>2026-04-30T22:50:31.053Z</time></trkpt><trkpt lat="43.2038043" lon="6.9906668"><ele>0.0</ele><time>2026-04-30T22:50:32.054Z</time></trkpt><trkpt lat="43.2039082" lon="6.9908517"><ele>0.0</ele><time>2026-04-30T22:50:34.054Z</time></trkpt><trkpt lat="43.2039582" lon="6.9909393"><ele>0.0</ele><time>2026-04-30T22:50:35.053Z</time></trkpt><trkpt lat="43.2040125" lon="6.9910285"><ele>0.0</ele><time>2026-04-30T22:50:36.053Z</time></trkpt><trkpt lat="43.2040665" lon="6.991117"><ele>0.0</ele><time>2026-04-30T22:50:37.053Z</time></trkpt><trkpt lat="43.2041141" lon="6.9912083"><ele>0.0</ele><time>2026-04-30T22:50:38.053Z</time></trkpt><trkpt lat="43.2041619" lon="6.9913016"><ele>0.0</ele><time>2026-04-30T22:50:39.054Z</time></trkpt><trkpt lat="43.2042116" lon="6.9913934"><ele>0.0</ele><time>2026-04-30T22:50:40.053Z</time></trkpt><trkpt lat="43.2042632" lon="6.9914862"><ele>0.0</ele><time>2026-04-30T22:50:41.054Z</time></trkpt><trkpt lat="43.2043169" lon="6.9915765"><ele>0.0</ele><time>2026-04-30T22:50:42.054Z</time></trkpt><trkpt lat="43.2043686" lon="6.9916667"><ele>0.0</ele><time>2026-04-30T22:50:43.053Z</time></trkpt><trkpt lat="43.2044167" lon="6.9917597"><ele>0.0</ele><time>2026-04-30T22:50:44.053Z</time></trkpt><trkpt lat="43.2044601" lon="6.9918551"><ele>0.0</ele><time>2026-04-30T22:50:45.054Z</time></trkpt><trkpt lat="43.2045033" lon="6.99195"><ele>0.0</ele><time>2026-04-30T22:50:46.053Z</time></trkpt><trkpt lat="43.2045511" lon="6.9920421"><ele>0.0</ele><time>2026-04-30T22:50:47.054Z</time></trkpt><trkpt lat="43.2045981" lon="6.9921351"><ele>0.0</ele><time>2026-04-30T22:50:48.054Z</time></trkpt><trkpt lat="43.2046481" lon="6.9922253"><ele>0.0</ele><time>2026-04-30T22:50:49.054Z</time></trkpt><trkpt lat="43.2046969" lon="6.9923152"><ele>0.0</ele><time>2026-04-30T22:50:50.053Z</time></trkpt><trkpt lat="43.2047483" lon="6.9924079"><ele>0.0</ele><time>2026-04-30T22:50:51.053Z</time></trkpt><trkpt lat="43.204797" lon="6.9925"><ele>0.0</ele><time>2026-04-30T22:50:52.053Z</time></trkpt><trkpt lat="43.2048451" lon="6.9925917"><ele>0.0</ele><time>2026-04-30T22:50:53.054Z</time></trkpt><trkpt lat="43.2049453" lon="6.9927756"><ele>0.0</ele><time>2026-04-30T22:50:55.053Z</time></trkpt><trkpt lat="43.2049935" lon="6.9928697"><ele>0.0</ele><time>2026-04-30T22:50:56.054Z</time></trkpt><trkpt lat="43.2050438" lon="6.9929632"><ele>0.0</ele><time>2026-04-30T22:50:57.054Z</time></trkpt><trkpt lat="43.2050947" lon="6.9930566"><ele>0.0</ele><time>2026-04-30T22:50:58.053Z</time></trkpt><trkpt lat="43.2051439" lon="6.993147"><ele>0.0</ele><time>2026-04-30T22:50:59.053Z</time></trkpt><trkpt lat="43.2051918" lon="6.9932383"><ele>0.0</ele><time>2026-04-30T22:51:00.053Z</time></trkpt><trkpt lat="43.20524" lon="6.9933319"><ele>0.0</ele><time>2026-04-30T22:51:01.054Z</time></trkpt><trkpt lat="43.2052927" lon="6.9934292"><ele>0.0</ele><time>2026-04-30T22:51:02.054Z</time></trkpt><trkpt lat="43.205345" lon="6.993523"><ele>0.0</ele><time>2026-04-30T22:51:03.053Z</time></trkpt><trkpt lat="43.2053966" lon="6.9936178"><ele>0.0</ele><time>2026-04-30T22:51:04.053Z</time></trkpt><trkpt lat="43.2054531" lon="6.9937099"><ele>0.0</ele><time>2026-04-30T22:51:05.053Z</time></trkpt><trkpt lat="43.2055031" lon="6.9938059"><ele>0.0</ele><time>2026-04-30T22:51:06.054Z</time></trkpt><trkpt lat="43.2055566" lon="6.9939027"><ele>0.0</ele><time>2026-04-30T22:51:07.053Z</time></trkpt><trkpt lat="43.2056051" lon="6.9939997"><ele>0.0</ele><time>2026-04-30T22:51:08.053Z</time></trkpt><trkpt lat="43.2056523" lon="6.9940945"><ele>0.0</ele><time>2026-04-30T22:51:09.054Z</time></trkpt><trkpt lat="43.2057031" lon="6.9941911"><ele>0.0</ele><time>2026-04-30T22:51:10.053Z</time></trkpt><trkpt lat="43.2057548" lon="6.9942847"><ele>0.0</ele><time>2026-04-30T22:51:11.053Z</time></trkpt><trkpt lat="43.2058037" lon="6.994381"><ele>0.0</ele><time>2026-04-30T22:51:12.054Z</time></trkpt><trkpt lat="43.2058448" lon="6.9944786"><ele>0.0</ele><time>2026-04-30T22:51:13.053Z</time></trkpt><trkpt lat="43.2058975" lon="6.994569"><ele>0.0</ele><time>2026-04-30T22:51:14.054Z</time></trkpt><trkpt lat="43.2060099" lon="6.994742"><ele>0.0</ele><time>2026-04-30T22:51:16.054Z</time></trkpt><trkpt lat="43.2060567" lon="6.9948408"><ele>0.0</ele><time>2026-04-30T22:51:17.053Z</time></trkpt><trkpt lat="43.2061005" lon="6.9949323"><ele>0.0</ele><time>2026-04-30T22:51:18.054Z</time></trkpt><trkpt lat="43.2061422" lon="6.9950279"><ele>0.0</ele><time>2026-04-30T22:51:19.053Z</time></trkpt><trkpt lat="43.2061931" lon="6.9951192"><ele>0.0</ele><time>2026-04-30T22:51:20.053Z</time></trkpt><trkpt lat="43.2062379" lon="6.9952194"><ele>0.0</ele><time>2026-04-30T22:51:21.054Z</time></trkpt><trkpt lat="43.2062873" lon="6.9953199"><ele>0.0</ele><time>2026-04-30T22:51:22.054Z</time></trkpt><trkpt lat="43.2063331" lon="6.9954199"><ele>0.0</ele><time>2026-04-30T22:51:23.053Z</time></trkpt><trkpt lat="43.2063736" lon="6.9955158"><ele>0.0</ele><time>2026-04-30T22:51:24.053Z</time></trkpt><trkpt lat="43.2064148" lon="6.9956164"><ele>0.0</ele><time>2026-04-30T22:51:25.053Z</time></trkpt><trkpt lat="43.2064624" lon="6.9957119"><ele>0.0</ele><time>2026-04-30T22:51:26.053Z</time></trkpt><trkpt lat="43.2065081" lon="6.9958067"><ele>0.0</ele><time>2026-04-30T22:51:27.053Z</time></trkpt><trkpt lat="43.2065529" lon="6.995902"><ele>0.0</ele><time>2026-04-30T22:51:28.053Z</time></trkpt><trkpt lat="43.2066107" lon="6.9959799"><ele>0.0</ele><time>2026-04-30T22:51:29.054Z</time></trkpt><trkpt lat="43.2066636" lon="6.996066"><ele>0.0</ele><time>2026-04-30T22:51:30.054Z</time></trkpt><trkpt lat="43.2067101" lon="6.9961546"><ele>0.0</ele><time>2026-04-30T22:51:31.054Z</time></trkpt><trkpt lat="43.2067516" lon="6.9962516"><ele>0.0</ele><time>2026-04-30T22:51:32.054Z</time></trkpt><trkpt lat="43.2067981" lon="6.9963468"><ele>0.0</ele><time>2026-04-30T22:51:33.053Z</time></trkpt><trkpt lat="43.2068478" lon="6.9964432"><ele>0.0</ele><time>2026-04-30T22:51:34.053Z</time></trkpt><trkpt lat="43.206898" lon="6.9965397"><ele>0.0</ele><time>2026-04-30T22:51:35.053Z</time></trkpt><trkpt lat="43.2070032" lon="6.9967144"><ele>0.0</ele><time>2026-04-30T22:51:37.053Z</time></trkpt><trkpt lat="43.2070519" lon="6.9968036"><ele>0.0</ele><time>2026-04-30T22:51:38.053Z</time></trkpt><trkpt lat="43.2071" lon="6.9968983"><ele>0.0</ele><time>2026-04-30T22:51:39.052Z</time></trkpt><trkpt lat="43.207147" lon="6.9969906"><ele>0.0</ele><time>2026-04-30T22:51:40.052Z</time></trkpt><trkpt lat="43.2071935" lon="6.9970819"><ele>0.0</ele><time>2026-04-30T22:51:41.052Z</time></trkpt><trkpt lat="43.207242" lon="6.9971733"><ele>0.0</ele><time>2026-04-30T22:51:42.053Z</time></trkpt><trkpt lat="43.2073522" lon="6.9973469"><ele>0.0</ele><time>2026-04-30T22:51:44.052Z</time></trkpt><trkpt lat="43.2074015" lon="6.9974406"><ele>0.0</ele><time>2026-04-30T22:51:45.052Z</time></trkpt><trkpt lat="43.2074429" lon="6.9975382"><ele>0.0</ele><time>2026-04-30T22:51:46.052Z</time></trkpt><trkpt lat="43.2074886" lon="6.9976365"><ele>0.0</ele><time>2026-04-30T22:51:47.052Z</time></trkpt><trkpt lat="43.2075362" lon="6.9977307"><ele>0.0</ele><time>2026-04-30T22:51:48.052Z</time></trkpt><trkpt lat="43.2075859" lon="6.9978233"><ele>0.0</ele><time>2026-04-30T22:51:49.053Z</time></trkpt><trkpt lat="43.2076356" lon="6.9979152"><ele>0.0</ele><time>2026-04-30T22:51:50.053Z</time></trkpt><trkpt lat="43.2076805" lon="6.9980055"><ele>0.0</ele><time>2026-04-30T22:51:51.053Z</time></trkpt><trkpt lat="43.2077234" lon="6.9980968"><ele>0.0</ele><time>2026-04-30T22:51:52.052Z</time></trkpt><trkpt lat="43.2077647" lon="6.9981885"><ele>0.0</ele><time>2026-04-30T22:51:53.052Z</time></trkpt><trkpt lat="43.2078196" lon="6.9982769"><ele>0.0</ele><time>2026-04-30T22:51:54.053Z</time></trkpt><trkpt lat="43.2078674" lon="6.9983734"><ele>0.0</ele><time>2026-04-30T22:51:55.052Z</time></trkpt><trkpt lat="43.2078928" lon="6.99847"><ele>0.0</ele><time>2026-04-30T22:51:56.052Z</time></trkpt><trkpt lat="43.2080069" lon="6.9986538"><ele>0.0</ele><time>2026-04-30T22:51:58.052Z</time></trkpt><trkpt lat="43.2080588" lon="6.9987481"><ele>0.0</ele><time>2026-04-30T22:51:59.052Z</time></trkpt><trkpt lat="43.2081208" lon="6.9988389"><ele>0.0</ele><time>2026-04-30T22:52:00.053Z</time></trkpt><trkpt lat="43.2081827" lon="6.9989261"><ele>0.0</ele><time>2026-04-30T22:52:01.053Z</time></trkpt><trkpt lat="43.2082381" lon="6.999015"><ele>0.0</ele><time>2026-04-30T22:52:02.053Z</time></trkpt><trkpt lat="43.2082951" lon="6.9991032"><ele>0.0</ele><time>2026-04-30T22:52:03.053Z</time></trkpt><trkpt lat="43.2083502" lon="6.9991931"><ele>0.0</ele><time>2026-04-30T22:52:04.052Z</time></trkpt><trkpt lat="43.2084079" lon="6.9992829"><ele>0.0</ele><time>2026-04-30T22:52:05.052Z</time></trkpt><trkpt lat="43.2084667" lon="6.9993714"><ele>0.0</ele><time>2026-04-30T22:52:06.052Z</time></trkpt><trkpt lat="43.2085238" lon="6.9994598"><ele>0.0</ele><time>2026-04-30T22:52:07.053Z</time></trkpt><trkpt lat="43.2085835" lon="6.9995499"><ele>0.0</ele><time>2026-04-30T22:52:08.052Z</time></trkpt><trkpt lat="43.2086333" lon="6.9996441"><ele>0.0</ele><time>2026-04-30T22:52:09.053Z</time></trkpt><trkpt lat="43.2086873" lon="6.9997331"><ele>0.0</ele><time>2026-04-30T22:52:10.053Z</time></trkpt><trkpt lat="43.2087391" lon="6.9998217"><ele>0.0</ele><time>2026-04-30T22:52:11.052Z</time></trkpt><trkpt lat="43.2087907" lon="6.9999118"><ele>0.0</ele><time>2026-04-30T22:52:12.052Z</time></trkpt><trkpt lat="43.2088439" lon="7.0000016"><ele>0.0</ele><time>2026-04-30T22:52:13.053Z</time></trkpt><trkpt lat="43.2088967" lon="7.0000964"><ele>0.0</ele><time>2026-04-30T22:52:14.052Z</time></trkpt><trkpt lat="43.2089468" lon="7.0001897"><ele>0.0</ele><time>2026-04-30T22:52:15.053Z</time></trkpt><trkpt lat="43.2090436" lon="7.0003744"><ele>0.0</ele><time>2026-04-30T22:52:17.052Z</time></trkpt><trkpt lat="43.2091349" lon="7.0005679"><ele>0.0</ele><time>2026-04-30T22:52:19.052Z</time></trkpt><trkpt lat="43.2091807" lon="7.000663"><ele>0.0</ele><time>2026-04-30T22:52:20.053Z</time></trkpt><trkpt lat="43.2092286" lon="7.0007581"><ele>0.0</ele><time>2026-04-30T22:52:21.053Z</time></trkpt><trkpt lat="43.2092786" lon="7.0008484"><ele>0.0</ele><time>2026-04-30T22:52:22.053Z</time></trkpt><trkpt lat="43.2093268" lon="7.000941"><ele>0.0</ele><time>2026-04-30T22:52:23.052Z</time></trkpt><trkpt lat="43.2093766" lon="7.0010391"><ele>0.0</ele><time>2026-04-30T22:52:24.052Z</time></trkpt><trkpt lat="43.2094209" lon="7.0011374"><ele>0.0</ele><time>2026-04-30T22:52:25.052Z</time></trkpt><trkpt lat="43.2094617" lon="7.0012341"><ele>0.0</ele><time>2026-04-30T22:52:26.052Z</time></trkpt><trkpt lat="43.2095003" lon="7.0013281"><ele>0.0</ele><time>2026-04-30T22:52:27.052Z</time></trkpt><trkpt lat="43.2095477" lon="7.0014182"><ele>0.0</ele><time>2026-04-30T22:52:28.052Z</time></trkpt><trkpt lat="43.2095974" lon="7.0015084"><ele>0.0</ele><time>2026-04-30T22:52:29.053Z</time></trkpt><trkpt lat="43.2096436" lon="7.0016016"><ele>0.0</ele><time>2026-04-30T22:52:30.052Z</time></trkpt><trkpt lat="43.2096948" lon="7.0016989"><ele>0.0</ele><time>2026-04-30T22:52:31.052Z</time></trkpt><trkpt lat="43.2097468" lon="7.0017953"><ele>0.0</ele><time>2026-04-30T22:52:32.052Z</time></trkpt><trkpt lat="43.2097988" lon="7.0018921"><ele>0.0</ele><time>2026-04-30T22:52:33.052Z</time></trkpt><trkpt lat="43.2098474" lon="7.0019821"><ele>0.0</ele><time>2026-04-30T22:52:34.052Z</time></trkpt><trkpt lat="43.2098956" lon="7.0020689"><ele>0.0</ele><time>2026-04-30T22:52:35.053Z</time></trkpt><trkpt lat="43.2099423" lon="7.0021571"><ele>0.0</ele><time>2026-04-30T22:52:36.052Z</time></trkpt><trkpt lat="43.2099894" lon="7.0022506"><ele>0.0</ele><time>2026-04-30T22:52:37.052Z</time></trkpt><trkpt lat="43.2100434" lon="7.0023414"><ele>0.0</ele><time>2026-04-30T22:52:38.052Z</time></trkpt><trkpt lat="43.2101455" lon="7.0025215"><ele>0.0</ele><time>2026-04-30T22:52:40.053Z</time></trkpt><trkpt lat="43.2101969" lon="7.0026116"><ele>0.0</ele><time>2026-04-30T22:52:41.053Z</time></trkpt><trkpt lat="43.2102457" lon="7.0027044"><ele>0.0</ele><time>2026-04-30T22:52:42.053Z</time></trkpt><trkpt lat="43.2102902" lon="7.0028028"><ele>0.0</ele><time>2026-04-30T22:52:43.052Z</time></trkpt><trkpt lat="43.2103368" lon="7.0028993"><ele>0.0</ele><time>2026-04-30T22:52:44.052Z</time></trkpt><trkpt lat="43.2103869" lon="7.0029961"><ele>0.0</ele><time>2026-04-30T22:52:45.052Z</time></trkpt><trkpt lat="43.2104381" lon="7.0030915"><ele>0.0</ele><time>2026-04-30T22:52:46.052Z</time></trkpt><trkpt lat="43.2104914" lon="7.0031817"><ele>0.0</ele><time>2026-04-30T22:52:47.053Z</time></trkpt><trkpt lat="43.2105954" lon="7.0033646"><ele>0.0</ele><time>2026-04-30T22:52:49.053Z</time></trkpt><trkpt lat="43.2106439" lon="7.0034566"><ele>0.0</ele><time>2026-04-30T22:52:50.053Z</time></trkpt><trkpt lat="43.2106922" lon="7.0035485"><ele>0.0</ele><time>2026-04-30T22:52:51.052Z</time></trkpt><trkpt lat="43.2107431" lon="7.0036399"><ele>0.0</ele><time>2026-04-30T22:52:52.052Z</time></trkpt><trkpt lat="43.2107947" lon="7.0037301"><ele>0.0</ele><time>2026-04-30T22:52:53.053Z</time></trkpt><trkpt lat="43.2108393" lon="7.0038259"><ele>0.0</ele><time>2026-04-30T22:52:54.052Z</time></trkpt><trkpt lat="43.2108868" lon="7.0039199"><ele>0.0</ele><time>2026-04-30T22:52:55.053Z</time></trkpt><trkpt lat="43.2109423" lon="7.0040045"><ele>0.0</ele><time>2026-04-30T22:52:56.052Z</time></trkpt><trkpt lat="43.2109933" lon="7.0040963"><ele>0.0</ele><time>2026-04-30T22:52:57.053Z</time></trkpt><trkpt lat="43.2110452" lon="7.004188"><ele>0.0</ele><time>2026-04-30T22:52:58.052Z</time></trkpt><trkpt lat="43.2111016" lon="7.0042794"><ele>0.0</ele><time>2026-04-30T22:52:59.052Z</time></trkpt><trkpt lat="43.2111987" lon="7.0044617"><ele>0.0</ele><time>2026-04-30T22:53:01.052Z</time></trkpt><trkpt lat="43.2112461" lon="7.0045504"><ele>0.0</ele><time>2026-04-30T22:53:02.052Z</time></trkpt><trkpt lat="43.211291" lon="7.0046413"><ele>0.0</ele><time>2026-04-30T22:53:03.052Z</time></trkpt><trkpt lat="43.2113436" lon="7.0047347"><ele>0.0</ele><time>2026-04-30T22:53:04.052Z</time></trkpt><trkpt lat="43.2113935" lon="7.0048254"><ele>0.0</ele><time>2026-04-30T22:53:05.052Z</time></trkpt><trkpt lat="43.2114436" lon="7.0049184"><ele>0.0</ele><time>2026-04-30T22:53:06.052Z</time></trkpt><trkpt lat="43.211497" lon="7.005007"><ele>0.0</ele><time>2026-04-30T22:53:07.052Z</time></trkpt><trkpt lat="43.2115465" lon="7.005103"><ele>0.0</ele><time>2026-04-30T22:53:08.053Z</time></trkpt><trkpt lat="43.2115938" lon="7.0051992"><ele>0.0</ele><time>2026-04-30T22:53:09.052Z</time></trkpt><trkpt lat="43.2116464" lon="7.0052945"><ele>0.0</ele><time>2026-04-30T22:53:10.053Z</time></trkpt><trkpt lat="43.2116995" lon="7.0053893"><ele>0.0</ele><time>2026-04-30T22:53:11.053Z</time></trkpt><trkpt lat="43.2117559" lon="7.0054815"><ele>0.0</ele><time>2026-04-30T22:53:12.053Z</time></trkpt><trkpt lat="43.2118132" lon="7.0055703"><ele>0.0</ele><time>2026-04-30T22:53:13.052Z</time></trkpt><trkpt lat="43.211863" lon="7.0056629"><ele>0.0</ele><time>2026-04-30T22:53:14.053Z</time></trkpt><trkpt lat="43.2119167" lon="7.0057562"><ele>0.0</ele><time>2026-04-30T22:53:15.052Z</time></trkpt><trkpt lat="43.2119717" lon="7.0058466"><ele>0.0</ele><time>2026-04-30T22:53:16.052Z</time></trkpt><trkpt lat="43.2120152" lon="7.0059393"><ele>0.0</ele><time>2026-04-30T22:53:17.052Z</time></trkpt><trkpt lat="43.2120651" lon="7.0060316"><ele>0.0</ele><time>2026-04-30T22:53:18.052Z</time></trkpt><trkpt lat="43.2121137" lon="7.0061234"><ele>0.0</ele><time>2026-04-30T22:53:19.052Z</time></trkpt><trkpt lat="43.2122665" lon="7.0064046"><ele>0.0</ele><time>2026-04-30T22:53:22.053Z</time></trkpt><trkpt lat="43.2123153" lon="7.0064967"><ele>0.0</ele><time>2026-04-30T22:53:23.052Z</time></trkpt><trkpt lat="43.2123637" lon="7.0065903"><ele>0.0</ele><time>2026-04-30T22:53:24.053Z</time></trkpt><trkpt lat="43.2124136" lon="7.0066844"><ele>0.0</ele><time>2026-04-30T22:53:25.053Z</time></trkpt><trkpt lat="43.2124636" lon="7.0067783"><ele>0.0</ele><time>2026-04-30T22:53:26.053Z</time></trkpt><trkpt lat="43.2125135" lon="7.0068701"><ele>0.0</ele><time>2026-04-30T22:53:27.052Z</time></trkpt><trkpt lat="43.2125623" lon="7.0069602"><ele>0.0</ele><time>2026-04-30T22:53:28.053Z</time></trkpt><trkpt lat="43.212606" lon="7.0070547"><ele>0.0</ele><time>2026-04-30T22:53:29.052Z</time></trkpt><trkpt lat="43.2126509" lon="7.0071451"><ele>0.0</ele><time>2026-04-30T22:53:30.053Z</time></trkpt><trkpt lat="43.2126985" lon="7.0072381"><ele>0.0</ele><time>2026-04-30T22:53:31.053Z</time></trkpt><trkpt lat="43.2127426" lon="7.0073258"><ele>0.0</ele><time>2026-04-30T22:53:32.053Z</time></trkpt><trkpt lat="43.2127888" lon="7.007415"><ele>0.0</ele><time>2026-04-30T22:53:33.053Z</time></trkpt><trkpt lat="43.2128379" lon="7.0075019"><ele>0.0</ele><time>2026-04-30T22:53:34.053Z</time></trkpt><trkpt lat="43.2128823" lon="7.007595"><ele>0.0</ele><time>2026-04-30T22:53:35.052Z</time></trkpt><trkpt lat="43.2129233" lon="7.0076951"><ele>0.0</ele><time>2026-04-30T22:53:36.053Z</time></trkpt><trkpt lat="43.2129672" lon="7.0077927"><ele>0.0</ele><time>2026-04-30T22:53:37.053Z</time></trkpt><trkpt lat="43.2130127" lon="7.0078879"><ele>0.0</ele><time>2026-04-30T22:53:38.053Z</time></trkpt><trkpt lat="43.2130503" lon="7.0079833"><ele>0.0</ele><time>2026-04-30T22:53:39.052Z</time></trkpt><trkpt lat="43.2130924" lon="7.0080768"><ele>0.0</ele><time>2026-04-30T22:53:40.053Z</time></trkpt><trkpt lat="43.2131482" lon="7.0081659"><ele>0.0</ele><time>2026-04-30T22:53:41.052Z</time></trkpt><trkpt lat="43.2132716" lon="7.0083379"><ele>0.0</ele><time>2026-04-30T22:53:43.053Z</time></trkpt><trkpt lat="43.2133247" lon="7.0084298"><ele>0.0</ele><time>2026-04-30T22:53:44.052Z</time></trkpt><trkpt lat="43.213382" lon="7.0085202"><ele>0.0</ele><time>2026-04-30T22:53:45.053Z</time></trkpt><trkpt lat="43.2134276" lon="7.0086188"><ele>0.0</ele><time>2026-04-30T22:53:46.053Z</time></trkpt><trkpt lat="43.2134799" lon="7.0087127"><ele>0.0</ele><time>2026-04-30T22:53:47.052Z</time></trkpt><trkpt lat="43.2135346" lon="7.0088017"><ele>0.0</ele><time>2026-04-30T22:53:48.052Z</time></trkpt><trkpt lat="43.213588" lon="7.0088942"><ele>0.0</ele><time>2026-04-30T22:53:49.052Z</time></trkpt><trkpt lat="43.2136335" lon="7.0089892"><ele>0.0</ele><time>2026-04-30T22:53:50.053Z</time></trkpt><trkpt lat="43.2136835" lon="7.0090856"><ele>0.0</ele><time>2026-04-30T22:53:51.052Z</time></trkpt><trkpt lat="43.2137351" lon="7.0091811"><ele>0.0</ele><time>2026-04-30T22:53:52.052Z</time></trkpt><trkpt lat="43.2138356" lon="7.0093638"><ele>0.0</ele><time>2026-04-30T22:53:54.053Z</time></trkpt><trkpt lat="43.2138864" lon="7.0094552"><ele>0.0</ele><time>2026-04-30T22:53:55.052Z</time></trkpt><trkpt lat="43.2139284" lon="7.0095509"><ele>0.0</ele><time>2026-04-30T22:53:56.052Z</time></trkpt><trkpt lat="43.2139721" lon="7.0096449"><ele>0.0</ele><time>2026-04-30T22:53:57.052Z</time></trkpt><trkpt lat="43.2140211" lon="7.009744"><ele>0.0</ele><time>2026-04-30T22:53:58.052Z</time></trkpt><trkpt lat="43.2140679" lon="7.0098355"><ele>0.0</ele><time>2026-04-30T22:53:59.052Z</time></trkpt><trkpt lat="43.2141147" lon="7.0099288"><ele>0.0</ele><time>2026-04-30T22:54:00.053Z</time></trkpt><trkpt lat="43.21416" lon="7.0100234"><ele>0.0</ele><time>2026-04-30T22:54:01.053Z</time></trkpt><trkpt lat="43.21421" lon="7.0101177"><ele>0.0</ele><time>2026-04-30T22:54:02.052Z</time></trkpt><trkpt lat="43.2143053" lon="7.0103068"><ele>0.0</ele><time>2026-04-30T22:54:04.053Z</time></trkpt><trkpt lat="43.2143522" lon="7.0104001"><ele>0.0</ele><time>2026-04-30T22:54:05.053Z</time></trkpt><trkpt lat="43.2143981" lon="7.0104933"><ele>0.0</ele><time>2026-04-30T22:54:06.052Z</time></trkpt><trkpt lat="43.2144455" lon="7.0105817"><ele>0.0</ele><time>2026-04-30T22:54:07.052Z</time></trkpt><trkpt lat="43.2145004" lon="7.0106806"><ele>0.0</ele><time>2026-04-30T22:54:08.052Z</time></trkpt><trkpt lat="43.2145545" lon="7.0107703"><ele>0.0</ele><time>2026-04-30T22:54:09.052Z</time></trkpt><trkpt lat="43.2146064" lon="7.0108589"><ele>0.0</ele><time>2026-04-30T22:54:10.053Z</time></trkpt><trkpt lat="43.2146539" lon="7.0109516"><ele>0.0</ele><time>2026-04-30T22:54:11.053Z</time></trkpt><trkpt lat="43.214703" lon="7.0110448"><ele>0.0</ele><time>2026-04-30T22:54:12.052Z</time></trkpt><trkpt lat="43.2147577" lon="7.0111394"><ele>0.0</ele><time>2026-04-30T22:54:13.053Z</time></trkpt><trkpt lat="43.2148043" lon="7.0112329"><ele>0.0</ele><time>2026-04-30T22:54:14.052Z</time></trkpt><trkpt lat="43.2148604" lon="7.0113199"><ele>0.0</ele><time>2026-04-30T22:54:15.053Z</time></trkpt><trkpt lat="43.2149117" lon="7.0114087"><ele>0.0</ele><time>2026-04-30T22:54:16.053Z</time></trkpt><trkpt lat="43.2149587" lon="7.0114988"><ele>0.0</ele><time>2026-04-30T22:54:17.052Z</time></trkpt><trkpt lat="43.2150084" lon="7.0115914"><ele>0.0</ele><time>2026-04-30T22:54:18.053Z</time></trkpt><trkpt lat="43.2150631" lon="7.011686"><ele>0.0</ele><time>2026-04-30T22:54:19.053Z</time></trkpt><trkpt lat="43.2151136" lon="7.0117781"><ele>0.0</ele><time>2026-04-30T22:54:20.052Z</time></trkpt><trkpt lat="43.2151623" lon="7.0118699"><ele>0.0</ele><time>2026-04-30T22:54:21.053Z</time></trkpt><trkpt lat="43.2152116" lon="7.0119645"><ele>0.0</ele><time>2026-04-30T22:54:22.053Z</time></trkpt><trkpt lat="43.2152544" lon="7.0120595"><ele>0.0</ele><time>2026-04-30T22:54:23.053Z</time></trkpt><trkpt lat="43.215302" lon="7.0121499"><ele>0.0</ele><time>2026-04-30T22:54:24.052Z</time></trkpt><trkpt lat="43.2154533" lon="7.0124248"><ele>0.0</ele><time>2026-04-30T22:54:27.052Z</time></trkpt><trkpt lat="43.2154975" lon="7.0125209"><ele>0.0</ele><time>2026-04-30T22:54:28.052Z</time></trkpt><trkpt lat="43.2155453" lon="7.0126163"><ele>0.0</ele><time>2026-04-30T22:54:29.052Z</time></trkpt><trkpt lat="43.2155901" lon="7.0127102"><ele>0.0</ele><time>2026-04-30T22:54:30.052Z</time></trkpt><trkpt lat="43.2156387" lon="7.012802"><ele>0.0</ele><time>2026-04-30T22:54:31.053Z</time></trkpt><trkpt lat="43.2156857" lon="7.0128921"><ele>0.0</ele><time>2026-04-30T22:54:32.053Z</time></trkpt><trkpt lat="43.2157292" lon="7.0129863"><ele>0.0</ele><time>2026-04-30T22:54:33.053Z</time></trkpt><trkpt lat="43.2157755" lon="7.0130826"><ele>0.0</ele><time>2026-04-30T22:54:34.053Z</time></trkpt><trkpt lat="43.2158266" lon="7.0131824"><ele>0.0</ele><time>2026-04-30T22:54:35.053Z</time></trkpt><trkpt lat="43.2158796" lon="7.0132736"><ele>0.0</ele><time>2026-04-30T22:54:36.053Z</time></trkpt><trkpt lat="43.2159286" lon="7.0133675"><ele>0.0</ele><time>2026-04-30T22:54:37.053Z</time></trkpt><trkpt lat="43.2159771" lon="7.0134599"><ele>0.0</ele><time>2026-04-30T22:54:38.053Z</time></trkpt><trkpt lat="43.2160253" lon="7.0135558"><ele>0.0</ele><time>2026-04-30T22:54:39.053Z</time></trkpt><trkpt lat="43.2160734" lon="7.0136511"><ele>0.0</ele><time>2026-04-30T22:54:40.052Z</time></trkpt><trkpt lat="43.2161204" lon="7.0137434"><ele>0.0</ele><time>2026-04-30T22:54:41.052Z</time></trkpt><trkpt lat="43.2161685" lon="7.0138352"><ele>0.0</ele><time>2026-04-30T22:54:42.052Z</time></trkpt><trkpt lat="43.2162185" lon="7.013925"><ele>0.0</ele><time>2026-04-30T22:54:43.052Z</time></trkpt><trkpt lat="43.216267" lon="7.0140166"><ele>0.0</ele><time>2026-04-30T22:54:44.052Z</time></trkpt><trkpt lat="43.2163113" lon="7.0141111"><ele>0.0</ele><time>2026-04-30T22:54:45.052Z</time></trkpt><trkpt lat="43.2163587" lon="7.0142049"><ele>0.0</ele><time>2026-04-30T22:54:46.052Z</time></trkpt><trkpt lat="43.2164537" lon="7.0143934"><ele>0.0</ele><time>2026-04-30T22:54:48.052Z</time></trkpt><trkpt lat="43.2165047" lon="7.0144881"><ele>0.0</ele><time>2026-04-30T22:54:49.053Z</time></trkpt><trkpt lat="43.2165546" lon="7.0145845"><ele>0.0</ele><time>2026-04-30T22:54:50.052Z</time></trkpt><trkpt lat="43.2166021" lon="7.0146784"><ele>0.0</ele><time>2026-04-30T22:54:51.052Z</time></trkpt><trkpt lat="43.2166458" lon="7.0147745"><ele>0.0</ele><time>2026-04-30T22:54:52.052Z</time></trkpt><trkpt lat="43.2166923" lon="7.0148697"><ele>0.0</ele><time>2026-04-30T22:54:53.053Z</time></trkpt><trkpt lat="43.2167388" lon="7.0149632"><ele>0.0</ele><time>2026-04-30T22:54:54.052Z</time></trkpt><trkpt lat="43.2167869" lon="7.0150566"><ele>0.0</ele><time>2026-04-30T22:54:55.052Z</time></trkpt><trkpt lat="43.2168367" lon="7.0151497"><ele>0.0</ele><time>2026-04-30T22:54:56.052Z</time></trkpt><trkpt lat="43.2169283" lon="7.015338"><ele>0.0</ele><time>2026-04-30T22:54:58.053Z</time></trkpt><trkpt lat="43.2169782" lon="7.0154316"><ele>0.0</ele><time>2026-04-30T22:54:59.053Z</time></trkpt><trkpt lat="43.2170299" lon="7.0155218"><ele>0.0</ele><time>2026-04-30T22:55:00.052Z</time></trkpt><trkpt lat="43.2170915" lon="7.0156066"><ele>0.0</ele><time>2026-04-30T22:55:01.053Z</time></trkpt><trkpt lat="43.217143" lon="7.0156973"><ele>0.0</ele><time>2026-04-30T22:55:02.053Z</time></trkpt><trkpt lat="43.2171932" lon="7.0157929"><ele>0.0</ele><time>2026-04-30T22:55:03.052Z</time></trkpt><trkpt lat="43.2172392" lon="7.0158878"><ele>0.0</ele><time>2026-04-30T22:55:04.053Z</time></trkpt><trkpt lat="43.2172952" lon="7.0159754"><ele>0.0</ele><time>2026-04-30T22:55:05.052Z</time></trkpt><trkpt lat="43.2173462" lon="7.0160715"><ele>0.0</ele><time>2026-04-30T22:55:06.053Z</time></trkpt><trkpt lat="43.2174111" lon="7.0161606"><ele>0.0</ele><time>2026-04-30T22:55:07.052Z</time></trkpt><trkpt lat="43.2175168" lon="7.0163446"><ele>0.0</ele><time>2026-04-30T22:55:09.053Z</time></trkpt><trkpt lat="43.2175686" lon="7.0164336"><ele>0.0</ele><time>2026-04-30T22:55:10.052Z</time></trkpt><trkpt lat="43.2176131" lon="7.0165289"><ele>0.0</ele><time>2026-04-30T22:55:11.053Z</time></trkpt><trkpt lat="43.2176588" lon="7.016622"><ele>0.0</ele><time>2026-04-30T22:55:12.052Z</time></trkpt><trkpt lat="43.2176973" lon="7.016722"><ele>0.0</ele><time>2026-04-30T22:55:13.052Z</time></trkpt><trkpt lat="43.2177421" lon="7.0168121"><ele>0.0</ele><time>2026-04-30T22:55:14.053Z</time></trkpt><trkpt lat="43.2177873" lon="7.0169034"><ele>0.0</ele><time>2026-04-30T22:55:15.052Z</time></trkpt><trkpt lat="43.2178349" lon="7.0169951"><ele>0.0</ele><time>2026-04-30T22:55:16.053Z</time></trkpt><trkpt lat="43.2178849" lon="7.0170851"><ele>0.0</ele><time>2026-04-30T22:55:17.052Z</time></trkpt><trkpt lat="43.2179296" lon="7.0171747"><ele>0.0</ele><time>2026-04-30T22:55:18.053Z</time></trkpt><trkpt lat="43.2179759" lon="7.0172665"><ele>0.0</ele><time>2026-04-30T22:55:19.053Z</time></trkpt><trkpt lat="43.2180233" lon="7.0173599"><ele>0.0</ele><time>2026-04-30T22:55:20.053Z</time></trkpt><trkpt lat="43.2180688" lon="7.017453"><ele>0.0</ele><time>2026-04-30T22:55:21.053Z</time></trkpt><trkpt lat="43.218114" lon="7.0175423"><ele>0.0</ele><time>2026-04-30T22:55:22.053Z</time></trkpt><trkpt lat="43.2181619" lon="7.0176365"><ele>0.0</ele><time>2026-04-30T22:55:23.052Z</time></trkpt><trkpt lat="43.2182114" lon="7.0177314"><ele>0.0</ele><time>2026-04-30T22:55:24.052Z</time></trkpt><trkpt lat="43.2182645" lon="7.0178234"><ele>0.0</ele><time>2026-04-30T22:55:25.052Z</time></trkpt><trkpt lat="43.218322" lon="7.0179108"><ele>0.0</ele><time>2026-04-30T22:55:26.052Z</time></trkpt><trkpt lat="43.2183775" lon="7.0179974"><ele>0.0</ele><time>2026-04-30T22:55:27.053Z</time></trkpt><trkpt lat="43.2184294" lon="7.0180846"><ele>0.0</ele><time>2026-04-30T22:55:28.052Z</time></trkpt><trkpt lat="43.2185688" lon="7.0183503"><ele>0.0</ele><time>2026-04-30T22:55:31.052Z</time></trkpt><trkpt lat="43.2186166" lon="7.0184432"><ele>0.0</ele><time>2026-04-30T22:55:32.052Z</time></trkpt><trkpt lat="43.2186652" lon="7.0185348"><ele>0.0</ele><time>2026-04-30T22:55:33.052Z</time></trkpt><trkpt lat="43.2187134" lon="7.018631"><ele>0.0</ele><time>2026-04-30T22:55:34.053Z</time></trkpt><trkpt lat="43.2187614" lon="7.0187277"><ele>0.0</ele><time>2026-04-30T22:55:35.052Z</time></trkpt><trkpt lat="43.2188098" lon="7.0188229"><ele>0.0</ele><time>2026-04-30T22:55:36.052Z</time></trkpt><trkpt lat="43.2188569" lon="7.0189181"><ele>0.0</ele><time>2026-04-30T22:55:37.052Z</time></trkpt><trkpt lat="43.2189033" lon="7.0190132"><ele>0.0</ele><time>2026-04-30T22:55:38.052Z</time></trkpt><trkpt lat="43.2189498" lon="7.0191093"><ele>0.0</ele><time>2026-04-30T22:55:39.052Z</time></trkpt><trkpt lat="43.218997" lon="7.0192072"><ele>0.0</ele><time>2026-04-30T22:55:40.053Z</time></trkpt><trkpt lat="43.2190438" lon="7.0193025"><ele>0.0</ele><time>2026-04-30T22:55:41.052Z</time></trkpt><trkpt lat="43.2190904" lon="7.0193977"><ele>0.0</ele><time>2026-04-30T22:55:42.053Z</time></trkpt><trkpt lat="43.2191382" lon="7.0194932"><ele>0.0</ele><time>2026-04-30T22:55:43.053Z</time></trkpt><trkpt lat="43.2191856" lon="7.0195851"><ele>0.0</ele><time>2026-04-30T22:55:44.052Z</time></trkpt><trkpt lat="43.2192317" lon="7.0196798"><ele>0.0</ele><time>2026-04-30T22:55:45.053Z</time></trkpt><trkpt lat="43.2192784" lon="7.0197732"><ele>0.0</ele><time>2026-04-30T22:55:46.052Z</time></trkpt><trkpt lat="43.2193254" lon="7.0198637"><ele>0.0</ele><time>2026-04-30T22:55:47.052Z</time></trkpt><trkpt lat="43.2193791" lon="7.0199524"><ele>0.0</ele><time>2026-04-30T22:55:48.052Z</time></trkpt><trkpt lat="43.2194354" lon="7.0200409"><ele>0.0</ele><time>2026-04-30T22:55:49.053Z</time></trkpt><trkpt lat="43.2194906" lon="7.020132"><ele>0.0</ele><time>2026-04-30T22:55:50.053Z</time></trkpt><trkpt lat="43.219593" lon="7.020315"><ele>0.0</ele><time>2026-04-30T22:55:52.053Z</time></trkpt><trkpt lat="43.2196446" lon="7.0204069"><ele>0.0</ele><time>2026-04-30T22:55:53.052Z</time></trkpt><trkpt lat="43.2196922" lon="7.0204997"><ele>0.0</ele><time>2026-04-30T22:55:54.052Z</time></trkpt><trkpt lat="43.2197393" lon="7.0205941"><ele>0.0</ele><time>2026-04-30T22:55:55.052Z</time></trkpt><trkpt lat="43.2197854" lon="7.0206864"><ele>0.0</ele><time>2026-04-30T22:55:56.053Z</time></trkpt><trkpt lat="43.2198367" lon="7.0207781"><ele>0.0</ele><time>2026-04-30T22:55:57.053Z</time></trkpt><trkpt lat="43.2198868" lon="7.0208699"><ele>0.0</ele><time>2026-04-30T22:55:58.052Z</time></trkpt><trkpt lat="43.2199398" lon="7.0209616"><ele>0.0</ele><time>2026-04-30T22:55:59.052Z</time></trkpt><trkpt lat="43.2199905" lon="7.0210517"><ele>0.0</ele><time>2026-04-30T22:56:00.053Z</time></trkpt><trkpt lat="43.2200404" lon="7.0211447"><ele>0.0</ele><time>2026-04-30T22:56:01.052Z</time></trkpt><trkpt lat="43.2201464" lon="7.0213266"><ele>0.0</ele><time>2026-04-30T22:56:03.053Z</time></trkpt><trkpt lat="43.2201972" lon="7.0214197"><ele>0.0</ele><time>2026-04-30T22:56:04.052Z</time></trkpt><trkpt lat="43.2202498" lon="7.0215147"><ele>0.0</ele><time>2026-04-30T22:56:05.053Z</time></trkpt><trkpt lat="43.2202985" lon="7.0216083"><ele>0.0</ele><time>2026-04-30T22:56:06.052Z</time></trkpt><trkpt lat="43.2203472" lon="7.0216984"><ele>0.0</ele><time>2026-04-30T22:56:07.052Z</time></trkpt><trkpt lat="43.220397" lon="7.0217913"><ele>0.0</ele><time>2026-04-30T22:56:08.052Z</time></trkpt><trkpt lat="43.2204468" lon="7.0218833"><ele>0.0</ele><time>2026-04-30T22:56:09.052Z</time></trkpt><trkpt lat="43.2204966" lon="7.0219779"><ele>0.0</ele><time>2026-04-30T22:56:10.053Z</time></trkpt><trkpt lat="43.2205453" lon="7.0220699"><ele>0.0</ele><time>2026-04-30T22:56:11.052Z</time></trkpt><trkpt lat="43.2206432" lon="7.0222616"><ele>0.0</ele><time>2026-04-30T22:56:13.053Z</time></trkpt><trkpt lat="43.2206931" lon="7.0223533"><ele>0.0</ele><time>2026-04-30T22:56:14.053Z</time></trkpt><trkpt lat="43.2207462" lon="7.0224478"><ele>0.0</ele><time>2026-04-30T22:56:15.052Z</time></trkpt><trkpt lat="43.2207982" lon="7.0225355"><ele>0.0</ele><time>2026-04-30T22:56:16.053Z</time></trkpt><trkpt lat="43.2208473" lon="7.0226246"><ele>0.0</ele><time>2026-04-30T22:56:17.053Z</time></trkpt><trkpt lat="43.2208951" lon="7.0227166"><ele>0.0</ele><time>2026-04-30T22:56:18.053Z</time></trkpt><trkpt lat="43.2209421" lon="7.022807"><ele>0.0</ele><time>2026-04-30T22:56:19.053Z</time></trkpt><trkpt lat="43.2209934" lon="7.0228979"><ele>0.0</ele><time>2026-04-30T22:56:20.053Z</time></trkpt><trkpt lat="43.2210493" lon="7.0229927"><ele>0.0</ele><time>2026-04-30T22:56:21.052Z</time></trkpt><trkpt lat="43.2211017" lon="7.0230835"><ele>0.0</ele><time>2026-04-30T22:56:22.053Z</time></trkpt><trkpt lat="43.2211537" lon="7.0231718"><ele>0.0</ele><time>2026-04-30T22:56:23.052Z</time></trkpt><trkpt lat="43.2212027" lon="7.023256"><ele>0.0</ele><time>2026-04-30T22:56:24.052Z</time></trkpt><trkpt lat="43.2212491" lon="7.0233413"><ele>0.0</ele><time>2026-04-30T22:56:25.053Z</time></trkpt><trkpt lat="43.2213088" lon="7.0234321"><ele>0.0</ele><time>2026-04-30T22:56:26.052Z</time></trkpt><trkpt lat="43.221356" lon="7.023518"><ele>0.0</ele><time>2026-04-30T22:56:27.052Z</time></trkpt><trkpt lat="43.2214152" lon="7.0236115"><ele>0.0</ele><time>2026-04-30T22:56:28.052Z</time></trkpt><trkpt lat="43.2214643" lon="7.0237088"><ele>0.0</ele><time>2026-04-30T22:56:29.053Z</time></trkpt><trkpt lat="43.2215134" lon="7.023803"><ele>0.0</ele><time>2026-04-30T22:56:30.053Z</time></trkpt><trkpt lat="43.2215622" lon="7.0238948"><ele>0.0</ele><time>2026-04-30T22:56:31.053Z</time></trkpt><trkpt lat="43.2216072" lon="7.0239898"><ele>0.0</ele><time>2026-04-30T22:56:32.053Z</time></trkpt><trkpt lat="43.2217085" lon="7.0241783"><ele>0.0</ele><time>2026-04-30T22:56:34.052Z</time></trkpt><trkpt lat="43.2218101" lon="7.0243648"><ele>0.0</ele><time>2026-04-30T22:56:36.052Z</time></trkpt><trkpt lat="43.2218571" lon="7.0244569"><ele>0.0</ele><time>2026-04-30T22:56:37.053Z</time></trkpt><trkpt lat="43.2219008" lon="7.0245473"><ele>0.0</ele><time>2026-04-30T22:56:38.053Z</time></trkpt><trkpt lat="43.2219457" lon="7.0246352"><ele>0.0</ele><time>2026-04-30T22:56:39.053Z</time></trkpt><trkpt lat="43.2219888" lon="7.0247236"><ele>0.0</ele><time>2026-04-30T22:56:40.052Z</time></trkpt><trkpt lat="43.2220319" lon="7.0248133"><ele>0.0</ele><time>2026-04-30T22:56:41.053Z</time></trkpt><trkpt lat="43.2220799" lon="7.0249075"><ele>0.0</ele><time>2026-04-30T22:56:42.052Z</time></trkpt><trkpt lat="43.2221254" lon="7.0250029"><ele>0.0</ele><time>2026-04-30T22:56:43.053Z</time></trkpt><trkpt lat="43.2221732" lon="7.0250993"><ele>0.0</ele><time>2026-04-30T22:56:44.052Z</time></trkpt><trkpt lat="43.2222232" lon="7.0251945"><ele>0.0</ele><time>2026-04-30T22:56:45.052Z</time></trkpt><trkpt lat="43.2222691" lon="7.025289"><ele>0.0</ele><time>2026-04-30T22:56:46.053Z</time></trkpt><trkpt lat="43.2223137" lon="7.0253848"><ele>0.0</ele><time>2026-04-30T22:56:47.052Z</time></trkpt><trkpt lat="43.2223632" lon="7.0254764"><ele>0.0</ele><time>2026-04-30T22:56:48.053Z</time></trkpt><trkpt lat="43.2224119" lon="7.0255714"><ele>0.0</ele><time>2026-04-30T22:56:49.053Z</time></trkpt><trkpt lat="43.2224601" lon="7.0256653"><ele>0.0</ele><time>2026-04-30T22:56:50.052Z</time></trkpt><trkpt lat="43.2225102" lon="7.0257583"><ele>0.0</ele><time>2026-04-30T22:56:51.052Z</time></trkpt><trkpt lat="43.222562" lon="7.0258456"><ele>0.0</ele><time>2026-04-30T22:56:52.053Z</time></trkpt><trkpt lat="43.2226162" lon="7.0259355"><ele>0.0</ele><time>2026-04-30T22:56:53.052Z</time></trkpt><trkpt lat="43.2226703" lon="7.0260268"><ele>0.0</ele><time>2026-04-30T22:56:54.052Z</time></trkpt><trkpt lat="43.2227231" lon="7.0261212"><ele>0.0</ele><time>2026-04-30T22:56:55.053Z</time></trkpt><trkpt lat="43.2228185" lon="7.0262988"><ele>0.0</ele><time>2026-04-30T22:56:57.053Z</time></trkpt><trkpt lat="43.2228696" lon="7.0263917"><ele>0.0</ele><time>2026-04-30T22:56:58.052Z</time></trkpt><trkpt lat="43.2229184" lon="7.0264835"><ele>0.0</ele><time>2026-04-30T22:56:59.053Z</time></trkpt><trkpt lat="43.2229685" lon="7.0265753"><ele>0.0</ele><time>2026-04-30T22:57:00.052Z</time></trkpt><trkpt lat="43.2230166" lon="7.0266698"><ele>0.0</ele><time>2026-04-30T22:57:01.052Z</time></trkpt><trkpt lat="43.2230636" lon="7.026766"><ele>0.0</ele><time>2026-04-30T22:57:02.052Z</time></trkpt><trkpt lat="43.2231104" lon="7.0268583"><ele>0.0</ele><time>2026-04-30T22:57:03.052Z</time></trkpt><trkpt lat="43.2231551" lon="7.0269548"><ele>0.0</ele><time>2026-04-30T22:57:04.052Z</time></trkpt><trkpt lat="43.2232001" lon="7.0270515"><ele>0.0</ele><time>2026-04-30T22:57:05.052Z</time></trkpt><trkpt lat="43.2232518" lon="7.02714"><ele>0.0</ele><time>2026-04-30T22:57:06.052Z</time></trkpt><trkpt lat="43.2233619" lon="7.027311"><ele>0.0</ele><time>2026-04-30T22:57:08.053Z</time></trkpt><trkpt lat="43.223417" lon="7.0273973"><ele>0.0</ele><time>2026-04-30T22:57:09.052Z</time></trkpt><trkpt lat="43.2234761" lon="7.0274883"><ele>0.0</ele><time>2026-04-30T22:57:10.053Z</time></trkpt><trkpt lat="43.223527" lon="7.0275769"><ele>0.0</ele><time>2026-04-30T22:57:11.053Z</time></trkpt><trkpt lat="43.2235734" lon="7.0276697"><ele>0.0</ele><time>2026-04-30T22:57:12.052Z</time></trkpt><trkpt lat="43.2236152" lon="7.0277648"><ele>0.0</ele><time>2026-04-30T22:57:13.053Z</time></trkpt><trkpt lat="43.2236562" lon="7.0278571"><ele>0.0</ele><time>2026-04-30T22:57:14.053Z</time></trkpt><trkpt lat="43.2237049" lon="7.0279442"><ele>0.0</ele><time>2026-04-30T22:57:15.052Z</time></trkpt><trkpt lat="43.2237508" lon="7.028042"><ele>0.0</ele><time>2026-04-30T22:57:16.053Z</time></trkpt><trkpt lat="43.2238618" lon="7.0282236"><ele>0.0</ele><time>2026-04-30T22:57:18.053Z</time></trkpt><trkpt lat="43.2239101" lon="7.0283211"><ele>0.0</ele><time>2026-04-30T22:57:19.052Z</time></trkpt><trkpt lat="43.2239628" lon="7.0284121"><ele>0.0</ele><time>2026-04-30T22:57:20.052Z</time></trkpt><trkpt lat="43.2240049" lon="7.0285095"><ele>0.0</ele><time>2026-04-30T22:57:21.053Z</time></trkpt><trkpt lat="43.2240431" lon="7.0286064"><ele>0.0</ele><time>2026-04-30T22:57:22.052Z</time></trkpt><trkpt lat="43.224083" lon="7.0287029"><ele>0.0</ele><time>2026-04-30T22:57:23.052Z</time></trkpt><trkpt lat="43.2241259" lon="7.0287997"><ele>0.0</ele><time>2026-04-30T22:57:24.053Z</time></trkpt><trkpt lat="43.2241679" lon="7.0288964"><ele>0.0</ele><time>2026-04-30T22:57:25.053Z</time></trkpt><trkpt lat="43.2242126" lon="7.0289928"><ele>0.0</ele><time>2026-04-30T22:57:26.052Z</time></trkpt><trkpt lat="43.2242551" lon="7.0290782"><ele>0.0</ele><time>2026-04-30T22:57:27.052Z</time></trkpt><trkpt lat="43.2242999" lon="7.0291675"><ele>0.0</ele><time>2026-04-30T22:57:28.052Z</time></trkpt><trkpt lat="43.2243545" lon="7.0292475"><ele>0.0</ele><time>2026-04-30T22:57:29.052Z</time></trkpt><trkpt lat="43.2244097" lon="7.0293354"><ele>0.0</ele><time>2026-04-30T22:57:30.052Z</time></trkpt><trkpt lat="43.2244639" lon="7.0294327"><ele>0.0</ele><time>2026-04-30T22:57:31.053Z</time></trkpt><trkpt lat="43.2245233" lon="7.0295282"><ele>0.0</ele><time>2026-04-30T22:57:32.052Z</time></trkpt><trkpt lat="43.2245772" lon="7.0296202"><ele>0.0</ele><time>2026-04-30T22:57:33.052Z</time></trkpt><trkpt lat="43.2246283" lon="7.0297133"><ele>0.0</ele><time>2026-04-30T22:57:34.052Z</time></trkpt><trkpt lat="43.224678" lon="7.0298109"><ele>0.0</ele><time>2026-04-30T22:57:35.052Z</time></trkpt><trkpt lat="43.2247256" lon="7.029902"><ele>0.0</ele><time>2026-04-30T22:57:36.052Z</time></trkpt><trkpt lat="43.2248137" lon="7.0301009"><ele>0.0</ele><time>2026-04-30T22:57:38.052Z</time></trkpt><trkpt lat="43.2248616" lon="7.0301997"><ele>0.0</ele><time>2026-04-30T22:57:39.052Z</time></trkpt><trkpt lat="43.2249055" lon="7.0302964"><ele>0.0</ele><time>2026-04-30T22:57:40.052Z</time></trkpt><trkpt lat="43.2249549" lon="7.0303917"><ele>0.0</ele><time>2026-04-30T22:57:41.052Z</time></trkpt><trkpt lat="43.2250079" lon="7.030485"><ele>0.0</ele><time>2026-04-30T22:57:42.052Z</time></trkpt><trkpt lat="43.2250613" lon="7.0305769"><ele>0.0</ele><time>2026-04-30T22:57:43.053Z</time></trkpt><trkpt lat="43.2251102" lon="7.0306702"><ele>0.0</ele><time>2026-04-30T22:57:44.053Z</time></trkpt><trkpt lat="43.2251553" lon="7.0307635"><ele>0.0</ele><time>2026-04-30T22:57:45.053Z</time></trkpt><trkpt lat="43.2252033" lon="7.0308504"><ele>0.0</ele><time>2026-04-30T22:57:46.052Z</time></trkpt><trkpt lat="43.2252483" lon="7.0309418"><ele>0.0</ele><time>2026-04-30T22:57:47.053Z</time></trkpt><trkpt lat="43.2252919" lon="7.0310324"><ele>0.0</ele><time>2026-04-30T22:57:48.052Z</time></trkpt><trkpt lat="43.2253354" lon="7.0311203"><ele>0.0</ele><time>2026-04-30T22:57:49.053Z</time></trkpt><trkpt lat="43.2253782" lon="7.0312147"><ele>0.0</ele><time>2026-04-30T22:57:50.053Z</time></trkpt><trkpt lat="43.2254249" lon="7.0313094"><ele>0.0</ele><time>2026-04-30T22:57:51.052Z</time></trkpt><trkpt lat="43.2254604" lon="7.0314021"><ele>0.0</ele><time>2026-04-30T22:57:52.053Z</time></trkpt><trkpt lat="43.2255173" lon="7.0314885"><ele>0.0</ele><time>2026-04-30T22:57:53.053Z</time></trkpt><trkpt lat="43.2255675" lon="7.0315784"><ele>0.0</ele><time>2026-04-30T22:57:54.052Z</time></trkpt><trkpt lat="43.2256138" lon="7.0316669"><ele>0.0</ele><time>2026-04-30T22:57:55.052Z</time></trkpt><trkpt lat="43.2256587" lon="7.0317528"><ele>0.0</ele><time>2026-04-30T22:57:56.053Z</time></trkpt><trkpt lat="43.2257033" lon="7.0318447"><ele>0.0</ele><time>2026-04-30T22:57:57.053Z</time></trkpt><trkpt lat="43.2257973" lon="7.0320405"><ele>0.0</ele><time>2026-04-30T22:57:59.053Z</time></trkpt><trkpt lat="43.2258448" lon="7.0321376"><ele>0.0</ele><time>2026-04-30T22:58:00.052Z</time></trkpt><trkpt lat="43.2258932" lon="7.0322326"><ele>0.0</ele><time>2026-04-30T22:58:01.052Z</time></trkpt><trkpt lat="43.2259357" lon="7.0323318"><ele>0.0</ele><time>2026-04-30T22:58:02.052Z</time></trkpt><trkpt lat="43.2259829" lon="7.0324303"><ele>0.0</ele><time>2026-04-30T22:58:03.052Z</time></trkpt><trkpt lat="43.2260353" lon="7.0325235"><ele>0.0</ele><time>2026-04-30T22:58:04.052Z</time></trkpt><trkpt lat="43.2260816" lon="7.0326195"><ele>0.0</ele><time>2026-04-30T22:58:05.051Z</time></trkpt><trkpt lat="43.2261311" lon="7.0327174"><ele>0.0</ele><time>2026-04-30T22:58:06.051Z</time></trkpt><trkpt lat="43.2261801" lon="7.0328098"><ele>0.0</ele><time>2026-04-30T22:58:07.051Z</time></trkpt><trkpt lat="43.2262266" lon="7.0329027"><ele>0.0</ele><time>2026-04-30T22:58:08.052Z</time></trkpt><trkpt lat="43.2262748" lon="7.0329977"><ele>0.0</ele><time>2026-04-30T22:58:09.052Z</time></trkpt><trkpt lat="43.2263245" lon="7.0330914"><ele>0.0</ele><time>2026-04-30T22:58:10.052Z</time></trkpt><trkpt lat="43.2264413" lon="7.0332668"><ele>0.0</ele><time>2026-04-30T22:58:12.051Z</time></trkpt><trkpt lat="43.2264994" lon="7.0333595"><ele>0.0</ele><time>2026-04-30T22:58:13.052Z</time></trkpt><trkpt lat="43.226549" lon="7.0334443"><ele>0.0</ele><time>2026-04-30T22:58:14.051Z</time></trkpt><trkpt lat="43.2265969" lon="7.0335294"><ele>0.0</ele><time>2026-04-30T22:58:15.051Z</time></trkpt><trkpt lat="43.2266439" lon="7.0336184"><ele>0.0</ele><time>2026-04-30T22:58:16.051Z</time></trkpt><trkpt lat="43.2266946" lon="7.0337086"><ele>0.0</ele><time>2026-04-30T22:58:17.051Z</time></trkpt><trkpt lat="43.2267478" lon="7.0338057"><ele>0.0</ele><time>2026-04-30T22:58:18.051Z</time></trkpt><trkpt lat="43.2268451" lon="7.033987"><ele>0.0</ele><time>2026-04-30T22:58:20.052Z</time></trkpt><trkpt lat="43.2268964" lon="7.0340783"><ele>0.0</ele><time>2026-04-30T22:58:21.051Z</time></trkpt><trkpt lat="43.2269434" lon="7.0341702"><ele>0.0</ele><time>2026-04-30T22:58:22.052Z</time></trkpt><trkpt lat="43.2269918" lon="7.0342572"><ele>0.0</ele><time>2026-04-30T22:58:23.051Z</time></trkpt><trkpt lat="43.2270383" lon="7.0343503"><ele>0.0</ele><time>2026-04-30T22:58:24.051Z</time></trkpt><trkpt lat="43.227083" lon="7.0344449"><ele>0.0</ele><time>2026-04-30T22:58:25.051Z</time></trkpt><trkpt lat="43.2271295" lon="7.0345396"><ele>0.0</ele><time>2026-04-30T22:58:26.051Z</time></trkpt><trkpt lat="43.2271791" lon="7.0346343"><ele>0.0</ele><time>2026-04-30T22:58:27.052Z</time></trkpt><trkpt lat="43.2272326" lon="7.0347293"><ele>0.0</ele><time>2026-04-30T22:58:28.051Z</time></trkpt><trkpt lat="43.2272861" lon="7.0348244"><ele>0.0</ele><time>2026-04-30T22:58:29.051Z</time></trkpt><trkpt lat="43.2273397" lon="7.0349212"><ele>0.0</ele><time>2026-04-30T22:58:30.051Z</time></trkpt><trkpt lat="43.227396" lon="7.0350175"><ele>0.0</ele><time>2026-04-30T22:58:31.052Z</time></trkpt><trkpt lat="43.2274517" lon="7.035108"><ele>0.0</ele><time>2026-04-30T22:58:32.052Z</time></trkpt><trkpt lat="43.2275035" lon="7.0352029"><ele>0.0</ele><time>2026-04-30T22:58:33.051Z</time></trkpt><trkpt lat="43.2275563" lon="7.0352964"><ele>0.0</ele><time>2026-04-30T22:58:34.051Z</time></trkpt><trkpt lat="43.2276066" lon="7.0353882"><ele>0.0</ele><time>2026-04-30T22:58:35.052Z</time></trkpt><trkpt lat="43.2276537" lon="7.0354758"><ele>0.0</ele><time>2026-04-30T22:58:36.052Z</time></trkpt><trkpt lat="43.2276946" lon="7.035554"><ele>0.0</ele><time>2026-04-30T22:58:37.051Z</time></trkpt><trkpt lat="43.2277372" lon="7.0356424"><ele>0.0</ele><time>2026-04-30T22:58:38.052Z</time></trkpt><trkpt lat="43.2277805" lon="7.0357323"><ele>0.0</ele><time>2026-04-30T22:58:39.051Z</time></trkpt><trkpt lat="43.2278712" lon="7.0359083"><ele>0.0</ele><time>2026-04-30T22:58:41.052Z</time></trkpt><trkpt lat="43.2279138" lon="7.036"><ele>0.0</ele><time>2026-04-30T22:58:42.052Z</time></trkpt><trkpt lat="43.2280066" lon="7.036188"><ele>0.0</ele><time>2026-04-30T22:58:44.051Z</time></trkpt><trkpt lat="43.2280567" lon="7.0362814"><ele>0.0</ele><time>2026-04-30T22:58:45.051Z</time></trkpt><trkpt lat="43.2281067" lon="7.0363761"><ele>0.0</ele><time>2026-04-30T22:58:46.052Z</time></trkpt><trkpt lat="43.2281567" lon="7.036471"><ele>0.0</ele><time>2026-04-30T22:58:47.051Z</time></trkpt><trkpt lat="43.2282093" lon="7.0365618"><ele>0.0</ele><time>2026-04-30T22:58:48.052Z</time></trkpt><trkpt lat="43.2282614" lon="7.0366491"><ele>0.0</ele><time>2026-04-30T22:58:49.051Z</time></trkpt><trkpt lat="43.2283115" lon="7.0367401"><ele>0.0</ele><time>2026-04-30T22:58:50.051Z</time></trkpt><trkpt lat="43.2283633" lon="7.0368298"><ele>0.0</ele><time>2026-04-30T22:58:51.051Z</time></trkpt><trkpt lat="43.2284118" lon="7.036917"><ele>0.0</ele><time>2026-04-30T22:58:52.051Z</time></trkpt><trkpt lat="43.2284599" lon="7.037011"><ele>0.0</ele><time>2026-04-30T22:58:53.051Z</time></trkpt><trkpt lat="43.2285096" lon="7.0371091"><ele>0.0</ele><time>2026-04-30T22:58:54.051Z</time></trkpt><trkpt lat="43.2285598" lon="7.037206"><ele>0.0</ele><time>2026-04-30T22:58:55.051Z</time></trkpt><trkpt lat="43.2286113" lon="7.0372984"><ele>0.0</ele><time>2026-04-30T22:58:56.052Z</time></trkpt><trkpt lat="43.2286646" lon="7.0373897"><ele>0.0</ele><time>2026-04-30T22:58:57.051Z</time></trkpt><trkpt lat="43.2287149" lon="7.0374815"><ele>0.0</ele><time>2026-04-30T22:58:58.051Z</time></trkpt><trkpt lat="43.2287651" lon="7.0375716"><ele>0.0</ele><time>2026-04-30T22:58:59.051Z</time></trkpt><trkpt lat="43.2288148" lon="7.0376633"><ele>0.0</ele><time>2026-04-30T22:59:00.051Z</time></trkpt><trkpt lat="43.2289084" lon="7.0378465"><ele>0.0</ele><time>2026-04-30T22:59:02.051Z</time></trkpt><trkpt lat="43.2289593" lon="7.0379355"><ele>0.0</ele><time>2026-04-30T22:59:03.051Z</time></trkpt><trkpt lat="43.2290079" lon="7.0380281"><ele>0.0</ele><time>2026-04-30T22:59:04.051Z</time></trkpt><trkpt lat="43.2290549" lon="7.0381246"><ele>0.0</ele><time>2026-04-30T22:59:05.052Z</time></trkpt><trkpt lat="43.229103" lon="7.0382199"><ele>0.0</ele><time>2026-04-30T22:59:06.052Z</time></trkpt><trkpt lat="43.2291474" lon="7.0383135"><ele>0.0</ele><time>2026-04-30T22:59:07.051Z</time></trkpt><trkpt lat="43.2291934" lon="7.0384049"><ele>0.0</ele><time>2026-04-30T22:59:08.052Z</time></trkpt><trkpt lat="43.2292343" lon="7.0384928"><ele>0.0</ele><time>2026-04-30T22:59:09.052Z</time></trkpt><trkpt lat="43.2292785" lon="7.0385836"><ele>0.0</ele><time>2026-04-30T22:59:10.051Z</time></trkpt><trkpt lat="43.2293277" lon="7.0386752"><ele>0.0</ele><time>2026-04-30T22:59:11.052Z</time></trkpt><trkpt lat="43.2293779" lon="7.0387695"><ele>0.0</ele><time>2026-04-30T22:59:12.052Z</time></trkpt><trkpt lat="43.2294335" lon="7.038863"><ele>0.0</ele><time>2026-04-30T22:59:13.051Z</time></trkpt><trkpt lat="43.2294863" lon="7.0389592"><ele>0.0</ele><time>2026-04-30T22:59:14.051Z</time></trkpt><trkpt lat="43.2295381" lon="7.039053"><ele>0.0</ele><time>2026-04-30T22:59:15.052Z</time></trkpt><trkpt lat="43.2295903" lon="7.0391434"><ele>0.0</ele><time>2026-04-30T22:59:16.051Z</time></trkpt><trkpt lat="43.2296393" lon="7.0392374"><ele>0.0</ele><time>2026-04-30T22:59:17.051Z</time></trkpt><trkpt lat="43.2296946" lon="7.0393311"><ele>0.0</ele><time>2026-04-30T22:59:18.051Z</time></trkpt><trkpt lat="43.2297467" lon="7.0394231"><ele>0.0</ele><time>2026-04-30T22:59:19.051Z</time></trkpt><trkpt lat="43.2297983" lon="7.0395135"><ele>0.0</ele><time>2026-04-30T22:59:20.051Z</time></trkpt><trkpt lat="43.2298454" lon="7.0396052"><ele>0.0</ele><time>2026-04-30T22:59:21.052Z</time></trkpt><trkpt lat="43.2299332" lon="7.0397839"><ele>0.0</ele><time>2026-04-30T22:59:23.052Z</time></trkpt><trkpt lat="43.2299783" lon="7.0398736"><ele>0.0</ele><time>2026-04-30T22:59:24.052Z</time></trkpt><trkpt lat="43.230033" lon="7.0399523"><ele>0.0</ele><time>2026-04-30T22:59:25.051Z</time></trkpt><trkpt lat="43.2300839" lon="7.0400463"><ele>0.0</ele><time>2026-04-30T22:59:26.051Z</time></trkpt><trkpt lat="43.2301325" lon="7.0401427"><ele>0.0</ele><time>2026-04-30T22:59:27.051Z</time></trkpt><trkpt lat="43.2301885" lon="7.0402295"><ele>0.0</ele><time>2026-04-30T22:59:28.052Z</time></trkpt><trkpt lat="43.2302411" lon="7.0403228"><ele>0.0</ele><time>2026-04-30T22:59:29.052Z</time></trkpt><trkpt lat="43.2302997" lon="7.040408"><ele>0.0</ele><time>2026-04-30T22:59:30.052Z</time></trkpt><trkpt lat="43.2303573" lon="7.0404901"><ele>0.0</ele><time>2026-04-30T22:59:31.051Z</time></trkpt><trkpt lat="43.2304055" lon="7.0405763"><ele>0.0</ele><time>2026-04-30T22:59:32.051Z</time></trkpt><trkpt lat="43.2304504" lon="7.0406698"><ele>0.0</ele><time>2026-04-30T22:59:33.051Z</time></trkpt><trkpt lat="43.2304999" lon="7.0407646"><ele>0.0</ele><time>2026-04-30T22:59:34.052Z</time></trkpt><trkpt lat="43.2305412" lon="7.0408625"><ele>0.0</ele><time>2026-04-30T22:59:35.051Z</time></trkpt><trkpt lat="43.2305876" lon="7.0409551"><ele>0.0</ele><time>2026-04-30T22:59:36.051Z</time></trkpt><trkpt lat="43.2306351" lon="7.0410466"><ele>0.0</ele><time>2026-04-30T22:59:37.051Z</time></trkpt><trkpt lat="43.2306865" lon="7.0411382"><ele>0.0</ele><time>2026-04-30T22:59:38.051Z</time></trkpt><trkpt lat="43.2307403" lon="7.0412252"><ele>0.0</ele><time>2026-04-30T22:59:39.052Z</time></trkpt><trkpt lat="43.2307878" lon="7.0413176"><ele>0.0</ele><time>2026-04-30T22:59:40.051Z</time></trkpt><trkpt lat="43.2308341" lon="7.0414071"><ele>0.0</ele><time>2026-04-30T22:59:41.052Z</time></trkpt><trkpt lat="43.2308803" lon="7.0414982"><ele>0.0</ele><time>2026-04-30T22:59:42.052Z</time></trkpt><trkpt lat="43.230976" lon="7.0416827"><ele>0.0</ele><time>2026-04-30T22:59:44.052Z</time></trkpt><trkpt lat="43.2310295" lon="7.041775"><ele>0.0</ele><time>2026-04-30T22:59:45.052Z</time></trkpt><trkpt lat="43.2310818" lon="7.0418663"><ele>0.0</ele><time>2026-04-30T22:59:46.052Z</time></trkpt><trkpt lat="43.2311368" lon="7.0419564"><ele>0.0</ele><time>2026-04-30T22:59:47.051Z</time></trkpt><trkpt lat="43.2311921" lon="7.0420435"><ele>0.0</ele><time>2026-04-30T22:59:48.052Z</time></trkpt><trkpt lat="43.2312456" lon="7.0421287"><ele>0.0</ele><time>2026-04-30T22:59:49.052Z</time></trkpt><trkpt lat="43.2312901" lon="7.0422238"><ele>0.0</ele><time>2026-04-30T22:59:50.051Z</time></trkpt><trkpt lat="43.2313436" lon="7.0423191"><ele>0.0</ele><time>2026-04-30T22:59:51.051Z</time></trkpt><trkpt lat="43.2313959" lon="7.0424085"><ele>0.0</ele><time>2026-04-30T22:59:52.051Z</time></trkpt><trkpt lat="43.2314518" lon="7.0424969"><ele>0.0</ele><time>2026-04-30T22:59:53.052Z</time></trkpt><trkpt lat="43.2315066" lon="7.0425897"><ele>0.0</ele><time>2026-04-30T22:59:54.051Z</time></trkpt><trkpt lat="43.2315574" lon="7.0426813"><ele>0.0</ele><time>2026-04-30T22:59:55.052Z</time></trkpt><trkpt lat="43.231606" lon="7.0427715"><ele>0.0</ele><time>2026-04-30T22:59:56.051Z</time></trkpt><trkpt lat="43.2316524" lon="7.0428631"><ele>0.0</ele><time>2026-04-30T22:59:57.051Z</time></trkpt><trkpt lat="43.2317003" lon="7.0429533"><ele>0.0</ele><time>2026-04-30T22:59:58.051Z</time></trkpt><trkpt lat="43.2317501" lon="7.0430435"><ele>0.0</ele><time>2026-04-30T22:59:59.051Z</time></trkpt><trkpt lat="43.2317988" lon="7.0431334"><ele>0.0</ele><time>2026-04-30T23:00:00.051Z</time></trkpt><trkpt lat="43.23185" lon="7.0432247"><ele>0.0</ele><time>2026-04-30T23:00:01.051Z</time></trkpt><trkpt lat="43.2319022" lon="7.0433164"><ele>0.0</ele><time>2026-04-30T23:00:02.052Z</time></trkpt><trkpt lat="43.2319478" lon="7.0434054"><ele>0.0</ele><time>2026-04-30T23:00:03.051Z</time></trkpt><trkpt lat="43.2320353" lon="7.0435942"><ele>0.0</ele><time>2026-04-30T23:00:05.051Z</time></trkpt><trkpt lat="43.2320755" lon="7.0436912"><ele>0.0</ele><time>2026-04-30T23:00:06.052Z</time></trkpt><trkpt lat="43.2321197" lon="7.0437854"><ele>0.0</ele><time>2026-04-30T23:00:07.051Z</time></trkpt><trkpt lat="43.2321618" lon="7.0438785"><ele>0.0</ele><time>2026-04-30T23:00:08.052Z</time></trkpt><trkpt lat="43.2322034" lon="7.043973"><ele>0.0</ele><time>2026-04-30T23:00:09.052Z</time></trkpt><trkpt lat="43.2322402" lon="7.0440667"><ele>0.0</ele><time>2026-04-30T23:00:10.052Z</time></trkpt><trkpt lat="43.2322856" lon="7.0441585"><ele>0.0</ele><time>2026-04-30T23:00:11.051Z</time></trkpt><trkpt lat="43.2323298" lon="7.0442515"><ele>0.0</ele><time>2026-04-30T23:00:12.051Z</time></trkpt><trkpt lat="43.2323794" lon="7.0443478"><ele>0.0</ele><time>2026-04-30T23:00:13.052Z</time></trkpt><trkpt lat="43.2324314" lon="7.0444447"><ele>0.0</ele><time>2026-04-30T23:00:14.052Z</time></trkpt><trkpt lat="43.232482" lon="7.0445367"><ele>0.0</ele><time>2026-04-30T23:00:15.052Z</time></trkpt><trkpt lat="43.2325303" lon="7.0446282"><ele>0.0</ele><time>2026-04-30T23:00:16.051Z</time></trkpt><trkpt lat="43.2325799" lon="7.0447228"><ele>0.0</ele><time>2026-04-30T23:00:17.052Z</time></trkpt><trkpt lat="43.2326348" lon="7.0448163"><ele>0.0</ele><time>2026-04-30T23:00:18.052Z</time></trkpt><trkpt lat="43.232689" lon="7.0449093"><ele>0.0</ele><time>2026-04-30T23:00:19.051Z</time></trkpt><trkpt lat="43.2327999" lon="7.0450919"><ele>0.0</ele><time>2026-04-30T23:00:21.052Z</time></trkpt><trkpt lat="43.2328614" lon="7.04518"><ele>0.0</ele><time>2026-04-30T23:00:22.051Z</time></trkpt><trkpt lat="43.2329141" lon="7.0452639"><ele>0.0</ele><time>2026-04-30T23:00:23.051Z</time></trkpt><trkpt lat="43.2329575" lon="7.0453573"><ele>0.0</ele><time>2026-04-30T23:00:24.052Z</time></trkpt><trkpt lat="43.2330605" lon="7.045532"><ele>0.0</ele><time>2026-04-30T23:00:26.052Z</time></trkpt><trkpt lat="43.2331094" lon="7.0456213"><ele>0.0</ele><time>2026-04-30T23:00:27.051Z</time></trkpt><trkpt lat="43.2331564" lon="7.0457112"><ele>0.0</ele><time>2026-04-30T23:00:28.051Z</time></trkpt><trkpt lat="43.2331989" lon="7.0458057"><ele>0.0</ele><time>2026-04-30T23:00:29.052Z</time></trkpt><trkpt lat="43.2332433" lon="7.0459009"><ele>0.0</ele><time>2026-04-30T23:00:30.052Z</time></trkpt><trkpt lat="43.233295" lon="7.0459944"><ele>0.0</ele><time>2026-04-30T23:00:31.051Z</time></trkpt><trkpt lat="43.2333484" lon="7.0460865"><ele>0.0</ele><time>2026-04-30T23:00:32.052Z</time></trkpt><trkpt lat="43.2334023" lon="7.0461777"><ele>0.0</ele><time>2026-04-30T23:00:33.051Z</time></trkpt><trkpt lat="43.2334528" lon="7.0462696"><ele>0.0</ele><time>2026-04-30T23:00:34.052Z</time></trkpt><trkpt lat="43.2335003" lon="7.0463626"><ele>0.0</ele><time>2026-04-30T23:00:35.051Z</time></trkpt><trkpt lat="43.2335499" lon="7.0464545"><ele>0.0</ele><time>2026-04-30T23:00:36.051Z</time></trkpt><trkpt lat="43.2336027" lon="7.0465459"><ele>0.0</ele><time>2026-04-30T23:00:37.051Z</time></trkpt><trkpt lat="43.2336456" lon="7.0466376"><ele>0.0</ele><time>2026-04-30T23:00:38.051Z</time></trkpt><trkpt lat="43.2336818" lon="7.0467321"><ele>0.0</ele><time>2026-04-30T23:00:39.052Z</time></trkpt><trkpt lat="43.2337279" lon="7.0468202"><ele>0.0</ele><time>2026-04-30T23:00:40.052Z</time></trkpt><trkpt lat="43.2337739" lon="7.0469132"><ele>0.0</ele><time>2026-04-30T23:00:41.052Z</time></trkpt><trkpt lat="43.2338209" lon="7.0470064"><ele>0.0</ele><time>2026-04-30T23:00:42.051Z</time></trkpt><trkpt lat="43.2338731" lon="7.0470966"><ele>0.0</ele><time>2026-04-30T23:00:43.051Z</time></trkpt><trkpt lat="43.2339252" lon="7.0471881"><ele>0.0</ele><time>2026-04-30T23:00:44.051Z</time></trkpt><trkpt lat="43.2339741" lon="7.0472799"><ele>0.0</ele><time>2026-04-30T23:00:45.051Z</time></trkpt><trkpt lat="43.2340675" lon="7.0474679"><ele>0.0</ele><time>2026-04-30T23:00:47.052Z</time></trkpt><trkpt lat="43.2341171" lon="7.0475599"><ele>0.0</ele><time>2026-04-30T23:00:48.051Z</time></trkpt><trkpt lat="43.2341674" lon="7.0476513"><ele>0.0</ele><time>2026-04-30T23:00:49.051Z</time></trkpt><trkpt lat="43.2342129" lon="7.0477446"><ele>0.0</ele><time>2026-04-30T23:00:50.051Z</time></trkpt><trkpt lat="43.2342577" lon="7.0478394"><ele>0.0</ele><time>2026-04-30T23:00:51.052Z</time></trkpt><trkpt lat="43.2343052" lon="7.0479296"><ele>0.0</ele><time>2026-04-30T23:00:52.051Z</time></trkpt><trkpt lat="43.2343567" lon="7.0480224"><ele>0.0</ele><time>2026-04-30T23:00:53.051Z</time></trkpt><trkpt lat="43.23441" lon="7.0481162"><ele>0.0</ele><time>2026-04-30T23:00:54.052Z</time></trkpt><trkpt lat="43.2344575" lon="7.0482082"><ele>0.0</ele><time>2026-04-30T23:00:55.051Z</time></trkpt><trkpt lat="43.2345039" lon="7.0482998"><ele>0.0</ele><time>2026-04-30T23:00:56.052Z</time></trkpt><trkpt lat="43.2345504" lon="7.0483898"><ele>0.0</ele><time>2026-04-30T23:00:57.051Z</time></trkpt><trkpt lat="43.234603" lon="7.0484818"><ele>0.0</ele><time>2026-04-30T23:00:58.051Z</time></trkpt><trkpt lat="43.2346676" lon="7.0485678"><ele>0.0</ele><time>2026-04-30T23:00:59.052Z</time></trkpt><trkpt lat="43.2347185" lon="7.0486541"><ele>0.0</ele><time>2026-04-30T23:01:00.051Z</time></trkpt><trkpt lat="43.2347627" lon="7.0487461"><ele>0.0</ele><time>2026-04-30T23:01:01.051Z</time></trkpt><trkpt lat="43.2347963" lon="7.0488454"><ele>0.0</ele><time>2026-04-30T23:01:02.052Z</time></trkpt><trkpt lat="43.2348433" lon="7.0489354"><ele>0.0</ele><time>2026-04-30T23:01:03.051Z</time></trkpt><trkpt lat="43.2348932" lon="7.0490236"><ele>0.0</ele><time>2026-04-30T23:01:04.051Z</time></trkpt><trkpt lat="43.2349417" lon="7.0491121"><ele>0.0</ele><time>2026-04-30T23:01:05.052Z</time></trkpt><trkpt lat="43.2349915" lon="7.0491959"><ele>0.0</ele><time>2026-04-30T23:01:06.051Z</time></trkpt><trkpt lat="43.2350925" lon="7.0493729"><ele>0.0</ele><time>2026-04-30T23:01:08.051Z</time></trkpt><trkpt lat="43.2351422" lon="7.0494661"><ele>0.0</ele><time>2026-04-30T23:01:09.051Z</time></trkpt><trkpt lat="43.2351876" lon="7.0495597"><ele>0.0</ele><time>2026-04-30T23:01:10.051Z</time></trkpt><trkpt lat="43.2352407" lon="7.0496517"><ele>0.0</ele><time>2026-04-30T23:01:11.051Z</time></trkpt><trkpt lat="43.2352931" lon="7.049743"><ele>0.0</ele><time>2026-04-30T23:01:12.052Z</time></trkpt><trkpt lat="43.2353479" lon="7.0498317"><ele>0.0</ele><time>2026-04-30T23:01:13.052Z</time></trkpt><trkpt lat="43.2354077" lon="7.0499198"><ele>0.0</ele><time>2026-04-30T23:01:14.051Z</time></trkpt><trkpt lat="43.2354589" lon="7.0500141"><ele>0.0</ele><time>2026-04-30T23:01:15.052Z</time></trkpt><trkpt lat="43.2355063" lon="7.0501079"><ele>0.0</ele><time>2026-04-30T23:01:16.051Z</time></trkpt><trkpt lat="43.2355559" lon="7.0501954"><ele>0.0</ele><time>2026-04-30T23:01:17.051Z</time></trkpt><trkpt lat="43.2356045" lon="7.0502847"><ele>0.0</ele><time>2026-04-30T23:01:18.052Z</time></trkpt><trkpt lat="43.2356556" lon="7.0503719"><ele>0.0</ele><time>2026-04-30T23:01:19.051Z</time></trkpt><trkpt lat="43.2356959" lon="7.0504711"><ele>0.0</ele><time>2026-04-30T23:01:20.051Z</time></trkpt><trkpt lat="43.2357414" lon="7.0505672"><ele>0.0</ele><time>2026-04-30T23:01:21.051Z</time></trkpt><trkpt lat="43.2357877" lon="7.0506554"><ele>0.0</ele><time>2026-04-30T23:01:22.052Z</time></trkpt><trkpt lat="43.2358821" lon="7.0508398"><ele>0.0</ele><time>2026-04-30T23:01:24.051Z</time></trkpt><trkpt lat="43.2359274" lon="7.0509375"><ele>0.0</ele><time>2026-04-30T23:01:25.051Z</time></trkpt><trkpt lat="43.2359754" lon="7.0510316"><ele>0.0</ele><time>2026-04-30T23:01:26.052Z</time></trkpt><trkpt lat="43.2360285" lon="7.0511216"><ele>0.0</ele><time>2026-04-30T23:01:27.051Z</time></trkpt><trkpt lat="43.2361257" lon="7.0513031"><ele>0.0</ele><time>2026-04-30T23:01:29.052Z</time></trkpt><trkpt lat="43.2361735" lon="7.0513918"><ele>0.0</ele><time>2026-04-30T23:01:30.051Z</time></trkpt><trkpt lat="43.2362172" lon="7.0514818"><ele>0.0</ele><time>2026-04-30T23:01:31.052Z</time></trkpt><trkpt lat="43.2362648" lon="7.0515762"><ele>0.0</ele><time>2026-04-30T23:01:32.052Z</time></trkpt><trkpt lat="43.2363119" lon="7.0516744"><ele>0.0</ele><time>2026-04-30T23:01:33.052Z</time></trkpt><trkpt lat="43.2363642" lon="7.0517655"><ele>0.0</ele><time>2026-04-30T23:01:34.051Z</time></trkpt><trkpt lat="43.2364135" lon="7.0518582"><ele>0.0</ele><time>2026-04-30T23:01:35.051Z</time></trkpt><trkpt lat="43.2364638" lon="7.051953"><ele>0.0</ele><time>2026-04-30T23:01:36.051Z</time></trkpt><trkpt lat="43.2365109" lon="7.0520435"><ele>0.0</ele><time>2026-04-30T23:01:37.052Z</time></trkpt><trkpt lat="43.2365588" lon="7.0521304"><ele>0.0</ele><time>2026-04-30T23:01:38.051Z</time></trkpt><trkpt lat="43.2366147" lon="7.0522171"><ele>0.0</ele><time>2026-04-30T23:01:39.052Z</time></trkpt><trkpt lat="43.2366598" lon="7.0523078"><ele>0.0</ele><time>2026-04-30T23:01:40.052Z</time></trkpt><trkpt lat="43.2367002" lon="7.0524038"><ele>0.0</ele><time>2026-04-30T23:01:41.051Z</time></trkpt><trkpt lat="43.2367427" lon="7.0524935"><ele>0.0</ele><time>2026-04-30T23:01:42.051Z</time></trkpt><trkpt lat="43.2367914" lon="7.0525821"><ele>0.0</ele><time>2026-04-30T23:01:43.051Z</time></trkpt><trkpt lat="43.2368447" lon="7.0526686"><ele>0.0</ele><time>2026-04-30T23:01:44.051Z</time></trkpt><trkpt lat="43.2368967" lon="7.0527595"><ele>0.0</ele><time>2026-04-30T23:01:45.051Z</time></trkpt><trkpt lat="43.2369638" lon="7.0528441"><ele>0.0</ele><time>2026-04-30T23:01:46.051Z</time></trkpt><trkpt lat="43.2370172" lon="7.0529297"><ele>0.0</ele><time>2026-04-30T23:01:47.051Z</time></trkpt><trkpt lat="43.237067" lon="7.0530213"><ele>0.0</ele><time>2026-04-30T23:01:48.051Z</time></trkpt><trkpt lat="43.2371679" lon="7.0532058"><ele>0.0</ele><time>2026-04-30T23:01:50.052Z</time></trkpt><trkpt lat="43.2372195" lon="7.0532938"><ele>0.0</ele><time>2026-04-30T23:01:51.051Z</time></trkpt><trkpt lat="43.2372717" lon="7.0533833"><ele>0.0</ele><time>2026-04-30T23:01:52.051Z</time></trkpt><trkpt lat="43.237319" lon="7.0534733"><ele>0.0</ele><time>2026-04-30T23:01:53.051Z</time></trkpt><trkpt lat="43.2373682" lon="7.0535631"><ele>0.0</ele><time>2026-04-30T23:01:54.051Z</time></trkpt><trkpt lat="43.2374184" lon="7.0536546"><ele>0.0</ele><time>2026-04-30T23:01:55.051Z</time></trkpt><trkpt lat="43.2374669" lon="7.053745"><ele>0.0</ele><time>2026-04-30T23:01:56.051Z</time></trkpt><trkpt lat="43.2375674" lon="7.0539216"><ele>0.0</ele><time>2026-04-30T23:01:58.052Z</time></trkpt><trkpt lat="43.2376112" lon="7.0540142"><ele>0.0</ele><time>2026-04-30T23:01:59.051Z</time></trkpt><trkpt lat="43.2376517" lon="7.0541093"><ele>0.0</ele><time>2026-04-30T23:02:00.051Z</time></trkpt><trkpt lat="43.2377014" lon="7.0542015"><ele>0.0</ele><time>2026-04-30T23:02:01.052Z</time></trkpt><trkpt lat="43.2377485" lon="7.0542918"><ele>0.0</ele><time>2026-04-30T23:02:02.051Z</time></trkpt><trkpt lat="43.2377963" lon="7.0543859"><ele>0.0</ele><time>2026-04-30T23:02:03.051Z</time></trkpt><trkpt lat="43.2378432" lon="7.05448"><ele>0.0</ele><time>2026-04-30T23:02:04.051Z</time></trkpt><trkpt lat="43.2378901" lon="7.0545719"><ele>0.0</ele><time>2026-04-30T23:02:05.052Z</time></trkpt><trkpt lat="43.2379379" lon="7.054665"><ele>0.0</ele><time>2026-04-30T23:02:06.052Z</time></trkpt><trkpt lat="43.2379832" lon="7.0547556"><ele>0.0</ele><time>2026-04-30T23:02:07.051Z</time></trkpt><trkpt lat="43.2380539" lon="7.0548424"><ele>0.0</ele><time>2026-04-30T23:02:08.051Z</time></trkpt><trkpt lat="43.2381051" lon="7.0549349"><ele>0.0</ele><time>2026-04-30T23:02:09.052Z</time></trkpt><trkpt lat="43.2381943" lon="7.0551212"><ele>0.0</ele><time>2026-04-30T23:02:11.051Z</time></trkpt><trkpt lat="43.2382421" lon="7.0552136"><ele>0.0</ele><time>2026-04-30T23:02:12.051Z</time></trkpt><trkpt lat="43.2382873" lon="7.0553051"><ele>0.0</ele><time>2026-04-30T23:02:13.052Z</time></trkpt><trkpt lat="43.2383377" lon="7.0553966"><ele>0.0</ele><time>2026-04-30T23:02:14.051Z</time></trkpt><trkpt lat="43.2383916" lon="7.055485"><ele>0.0</ele><time>2026-04-30T23:02:15.051Z</time></trkpt><trkpt lat="43.2384423" lon="7.0555775"><ele>0.0</ele><time>2026-04-30T23:02:16.051Z</time></trkpt><trkpt lat="43.2384881" lon="7.0556713"><ele>0.0</ele><time>2026-04-30T23:02:17.052Z</time></trkpt><trkpt lat="43.2385365" lon="7.055762"><ele>0.0</ele><time>2026-04-30T23:02:18.051Z</time></trkpt><trkpt lat="43.2385837" lon="7.0558549"><ele>0.0</ele><time>2026-04-30T23:02:19.052Z</time></trkpt><trkpt lat="43.2386334" lon="7.0559466"><ele>0.0</ele><time>2026-04-30T23:02:20.052Z</time></trkpt><trkpt lat="43.2386835" lon="7.0560367"><ele>0.0</ele><time>2026-04-30T23:02:21.051Z</time></trkpt><trkpt lat="43.2387365" lon="7.0561264"><ele>0.0</ele><time>2026-04-30T23:02:22.052Z</time></trkpt><trkpt lat="43.2387885" lon="7.0562181"><ele>0.0</ele><time>2026-04-30T23:02:23.051Z</time></trkpt><trkpt lat="43.2388391" lon="7.0563112"><ele>0.0</ele><time>2026-04-30T23:02:24.052Z</time></trkpt><trkpt lat="43.2388888" lon="7.0563986"><ele>0.0</ele><time>2026-04-30T23:02:25.051Z</time></trkpt><trkpt lat="43.2389268" lon="7.0564912"><ele>0.0</ele><time>2026-04-30T23:02:26.052Z</time></trkpt><trkpt lat="43.2389645" lon="7.0565859"><ele>0.0</ele><time>2026-04-30T23:02:27.051Z</time></trkpt><trkpt lat="43.2390059" lon="7.05668"><ele>0.0</ele><time>2026-04-30T23:02:28.051Z</time></trkpt><trkpt lat="43.2390462" lon="7.0567788"><ele>0.0</ele><time>2026-04-30T23:02:29.051Z</time></trkpt><trkpt lat="43.2392025" lon="7.0570551"><ele>0.0</ele><time>2026-04-30T23:02:32.052Z</time></trkpt><trkpt lat="43.239254" lon="7.057148"><ele>0.0</ele><time>2026-04-30T23:02:33.051Z</time></trkpt><trkpt lat="43.2393027" lon="7.0572401"><ele>0.0</ele><time>2026-04-30T23:02:34.052Z</time></trkpt><trkpt lat="43.2393489" lon="7.0573329"><ele>0.0</ele><time>2026-04-30T23:02:35.051Z</time></trkpt><trkpt lat="43.2393968" lon="7.0574231"><ele>0.0</ele><time>2026-04-30T23:02:36.051Z</time></trkpt><trkpt lat="43.2394433" lon="7.0575148"><ele>0.0</ele><time>2026-04-30T23:02:37.051Z</time></trkpt><trkpt lat="43.2394918" lon="7.0576053"><ele>0.0</ele><time>2026-04-30T23:02:38.052Z</time></trkpt><trkpt lat="43.2395429" lon="7.0576934"><ele>0.0</ele><time>2026-04-30T23:02:39.051Z</time></trkpt><trkpt lat="43.2395936" lon="7.0577847"><ele>0.0</ele><time>2026-04-30T23:02:40.051Z</time></trkpt><trkpt lat="43.239645" lon="7.0578708"><ele>0.0</ele><time>2026-04-30T23:02:41.051Z</time></trkpt><trkpt lat="43.2396906" lon="7.0579558"><ele>0.0</ele><time>2026-04-30T23:02:42.052Z</time></trkpt><trkpt lat="43.2397414" lon="7.0580437"><ele>0.0</ele><time>2026-04-30T23:02:43.051Z</time></trkpt><trkpt lat="43.2397901" lon="7.058132"><ele>0.0</ele><time>2026-04-30T23:02:44.052Z</time></trkpt><trkpt lat="43.2398468" lon="7.0582204"><ele>0.0</ele><time>2026-04-30T23:02:45.052Z</time></trkpt><trkpt lat="43.2399025" lon="7.0583073"><ele>0.0</ele><time>2026-04-30T23:02:46.052Z</time></trkpt><trkpt lat="43.2399582" lon="7.0583968"><ele>0.0</ele><time>2026-04-30T23:02:47.051Z</time></trkpt><trkpt lat="43.2400102" lon="7.058491"><ele>0.0</ele><time>2026-04-30T23:02:48.051Z</time></trkpt><trkpt lat="43.2400674" lon="7.0585747"><ele>0.0</ele><time>2026-04-30T23:02:49.051Z</time></trkpt><trkpt lat="43.2401188" lon="7.0586649"><ele>0.0</ele><time>2026-04-30T23:02:50.052Z</time></trkpt><trkpt lat="43.2401701" lon="7.0587609"><ele>0.0</ele><time>2026-04-30T23:02:51.052Z</time></trkpt><trkpt lat="43.2402741" lon="7.0589495"><ele>0.0</ele><time>2026-04-30T23:02:53.052Z</time></trkpt><trkpt lat="43.2403252" lon="7.0590429"><ele>0.0</ele><time>2026-04-30T23:02:54.051Z</time></trkpt><trkpt lat="43.2403771" lon="7.0591332"><ele>0.0</ele><time>2026-04-30T23:02:55.052Z</time></trkpt><trkpt lat="43.2404313" lon="7.0592221"><ele>0.0</ele><time>2026-04-30T23:02:56.052Z</time></trkpt><trkpt lat="43.2404929" lon="7.0593119"><ele>0.0</ele><time>2026-04-30T23:02:57.052Z</time></trkpt><trkpt lat="43.240548" lon="7.0594032"><ele>0.0</ele><time>2026-04-30T23:02:58.051Z</time></trkpt><trkpt lat="43.2405977" lon="7.0594962"><ele>0.0</ele><time>2026-04-30T23:02:59.051Z</time></trkpt><trkpt lat="43.2406301" lon="7.0595895"><ele>0.0</ele><time>2026-04-30T23:03:00.051Z</time></trkpt><trkpt lat="43.2406785" lon="7.0596814"><ele>0.0</ele><time>2026-04-30T23:03:01.051Z</time></trkpt><trkpt lat="43.2407727" lon="7.0598708"><ele>0.0</ele><time>2026-04-30T23:03:03.051Z</time></trkpt><trkpt lat="43.2408204" lon="7.0599673"><ele>0.0</ele><time>2026-04-30T23:03:04.051Z</time></trkpt><trkpt lat="43.2408658" lon="7.0600645"><ele>0.0</ele><time>2026-04-30T23:03:05.051Z</time></trkpt><trkpt lat="43.2409076" lon="7.0601627"><ele>0.0</ele><time>2026-04-30T23:03:06.052Z</time></trkpt><trkpt lat="43.2409463" lon="7.0602594"><ele>0.0</ele><time>2026-04-30T23:03:07.051Z</time></trkpt><trkpt lat="43.24099" lon="7.0603564"><ele>0.0</ele><time>2026-04-30T23:03:08.051Z</time></trkpt><trkpt lat="43.2410321" lon="7.0604501"><ele>0.0</ele><time>2026-04-30T23:03:09.051Z</time></trkpt><trkpt lat="43.2410707" lon="7.0605446"><ele>0.0</ele><time>2026-04-30T23:03:10.051Z</time></trkpt><trkpt lat="43.2411106" lon="7.0606395"><ele>0.0</ele><time>2026-04-30T23:03:11.052Z</time></trkpt><trkpt lat="43.241149" lon="7.0607346"><ele>0.0</ele><time>2026-04-30T23:03:12.051Z</time></trkpt><trkpt lat="43.2412467" lon="7.0609165"><ele>0.0</ele><time>2026-04-30T23:03:14.052Z</time></trkpt><trkpt lat="43.2412901" lon="7.0610099"><ele>0.0</ele><time>2026-04-30T23:03:15.052Z</time></trkpt><trkpt lat="43.241335" lon="7.0611031"><ele>0.0</ele><time>2026-04-30T23:03:16.052Z</time></trkpt><trkpt lat="43.2413813" lon="7.0611951"><ele>0.0</ele><time>2026-04-30T23:03:17.052Z</time></trkpt><trkpt lat="43.2414311" lon="7.0612852"><ele>0.0</ele><time>2026-04-30T23:03:18.052Z</time></trkpt><trkpt lat="43.2414815" lon="7.0613751"><ele>0.0</ele><time>2026-04-30T23:03:19.051Z</time></trkpt><trkpt lat="43.2415318" lon="7.0614635"><ele>0.0</ele><time>2026-04-30T23:03:20.052Z</time></trkpt><trkpt lat="43.2415818" lon="7.0615573"><ele>0.0</ele><time>2026-04-30T23:03:21.051Z</time></trkpt><trkpt lat="43.2416346" lon="7.0616498"><ele>0.0</ele><time>2026-04-30T23:03:22.052Z</time></trkpt><trkpt lat="43.2416885" lon="7.0617438"><ele>0.0</ele><time>2026-04-30T23:03:23.051Z</time></trkpt><trkpt lat="43.2417485" lon="7.0618382"><ele>0.0</ele><time>2026-04-30T23:03:24.051Z</time></trkpt><trkpt lat="43.2418016" lon="7.0619329"><ele>0.0</ele><time>2026-04-30T23:03:25.051Z</time></trkpt><trkpt lat="43.2418535" lon="7.0620261"><ele>0.0</ele><time>2026-04-30T23:03:26.051Z</time></trkpt><trkpt lat="43.2419093" lon="7.06212"><ele>0.0</ele><time>2026-04-30T23:03:27.052Z</time></trkpt><trkpt lat="43.2419616" lon="7.0622105"><ele>0.0</ele><time>2026-04-30T23:03:28.051Z</time></trkpt><trkpt lat="43.2420107" lon="7.0623016"><ele>0.0</ele><time>2026-04-30T23:03:29.051Z</time></trkpt><trkpt lat="43.2420607" lon="7.0623904"><ele>0.0</ele><time>2026-04-30T23:03:30.052Z</time></trkpt><trkpt lat="43.242112" lon="7.0624753"><ele>0.0</ele><time>2026-04-30T23:03:31.051Z</time></trkpt><trkpt lat="43.2421592" lon="7.0625687"><ele>0.0</ele><time>2026-04-30T23:03:32.051Z</time></trkpt><trkpt lat="43.2422032" lon="7.0626643"><ele>0.0</ele><time>2026-04-30T23:03:33.051Z</time></trkpt><trkpt lat="43.2423526" lon="7.0629382"><ele>0.0</ele><time>2026-04-30T23:03:36.051Z</time></trkpt><trkpt lat="43.2424035" lon="7.063028"><ele>0.0</ele><time>2026-04-30T23:03:37.052Z</time></trkpt><trkpt lat="43.2424541" lon="7.0631182"><ele>0.0</ele><time>2026-04-30T23:03:38.052Z</time></trkpt><trkpt lat="43.2424997" lon="7.0632098"><ele>0.0</ele><time>2026-04-30T23:03:39.052Z</time></trkpt><trkpt lat="43.2425444" lon="7.0633013"><ele>0.0</ele><time>2026-04-30T23:03:40.052Z</time></trkpt><trkpt lat="43.2425922" lon="7.0633904"><ele>0.0</ele><time>2026-04-30T23:03:41.052Z</time></trkpt><trkpt lat="43.2426368" lon="7.0634765"><ele>0.0</ele><time>2026-04-30T23:03:42.051Z</time></trkpt><trkpt lat="43.2426855" lon="7.0635629"><ele>0.0</ele><time>2026-04-30T23:03:43.051Z</time></trkpt><trkpt lat="43.2427349" lon="7.0636518"><ele>0.0</ele><time>2026-04-30T23:03:44.052Z</time></trkpt><trkpt lat="43.2427808" lon="7.0637432"><ele>0.0</ele><time>2026-04-30T23:03:45.052Z</time></trkpt><trkpt lat="43.2428275" lon="7.0638362"><ele>0.0</ele><time>2026-04-30T23:03:46.052Z</time></trkpt><trkpt lat="43.2428757" lon="7.0639282"><ele>0.0</ele><time>2026-04-30T23:03:47.051Z</time></trkpt><trkpt lat="43.242925" lon="7.0640215"><ele>0.0</ele><time>2026-04-30T23:03:48.052Z</time></trkpt><trkpt lat="43.2429777" lon="7.0641117"><ele>0.0</ele><time>2026-04-30T23:03:49.052Z</time></trkpt><trkpt lat="43.2430299" lon="7.0642032"><ele>0.0</ele><time>2026-04-30T23:03:50.051Z</time></trkpt><trkpt lat="43.2430802" lon="7.064292"><ele>0.0</ele><time>2026-04-30T23:03:51.051Z</time></trkpt><trkpt lat="43.2431291" lon="7.0643788"><ele>0.0</ele><time>2026-04-30T23:03:52.052Z</time></trkpt><trkpt lat="43.2431735" lon="7.0644675"><ele>0.0</ele><time>2026-04-30T23:03:53.051Z</time></trkpt><trkpt lat="43.2432167" lon="7.064558"><ele>0.0</ele><time>2026-04-30T23:03:54.051Z</time></trkpt><trkpt lat="43.2432583" lon="7.0646496"><ele>0.0</ele><time>2026-04-30T23:03:55.051Z</time></trkpt><trkpt lat="43.24334" lon="7.0648365"><ele>0.0</ele><time>2026-04-30T23:03:57.052Z</time></trkpt><trkpt lat="43.2433813" lon="7.0649279"><ele>0.0</ele><time>2026-04-30T23:03:58.052Z</time></trkpt><trkpt lat="43.243434" lon="7.0650167"><ele>0.0</ele><time>2026-04-30T23:03:59.051Z</time></trkpt><trkpt lat="43.2434933" lon="7.0651024"><ele>0.0</ele><time>2026-04-30T23:04:00.052Z</time></trkpt><trkpt lat="43.2435539" lon="7.0651884"><ele>0.0</ele><time>2026-04-30T23:04:01.051Z</time></trkpt><trkpt lat="43.2436112" lon="7.0652739"><ele>0.0</ele><time>2026-04-30T23:04:02.052Z</time></trkpt><trkpt lat="43.2436637" lon="7.0653601"><ele>0.0</ele><time>2026-04-30T23:04:03.052Z</time></trkpt><trkpt lat="43.2437111" lon="7.0654497"><ele>0.0</ele><time>2026-04-30T23:04:04.051Z</time></trkpt><trkpt lat="43.2437645" lon="7.0655368"><ele>0.0</ele><time>2026-04-30T23:04:05.051Z</time></trkpt><trkpt lat="43.2438166" lon="7.0656264"><ele>0.0</ele><time>2026-04-30T23:04:06.05Z</time></trkpt><trkpt lat="43.2438571" lon="7.0657207"><ele>0.0</ele><time>2026-04-30T23:04:07.05Z</time></trkpt><trkpt lat="43.2439053" lon="7.0658143"><ele>0.0</ele><time>2026-04-30T23:04:08.051Z</time></trkpt><trkpt lat="43.243958" lon="7.0659049"><ele>0.0</ele><time>2026-04-30T23:04:09.051Z</time></trkpt><trkpt lat="43.2440057" lon="7.0659975"><ele>0.0</ele><time>2026-04-30T23:04:10.05Z</time></trkpt><trkpt lat="43.2440578" lon="7.0660897"><ele>0.0</ele><time>2026-04-30T23:04:11.051Z</time></trkpt><trkpt lat="43.2441024" lon="7.0661817"><ele>0.0</ele><time>2026-04-30T23:04:12.051Z</time></trkpt><trkpt lat="43.2441481" lon="7.0662693"><ele>0.0</ele><time>2026-04-30T23:04:13.051Z</time></trkpt><trkpt lat="43.2441933" lon="7.0663584"><ele>0.0</ele><time>2026-04-30T23:04:14.05Z</time></trkpt><trkpt lat="43.2442444" lon="7.0664474"><ele>0.0</ele><time>2026-04-30T23:04:15.051Z</time></trkpt><trkpt lat="43.2443034" lon="7.066534"><ele>0.0</ele><time>2026-04-30T23:04:16.05Z</time></trkpt><trkpt lat="43.2444165" lon="7.0667021"><ele>0.0</ele><time>2026-04-30T23:04:18.05Z</time></trkpt><trkpt lat="43.244459" lon="7.066791"><ele>0.0</ele><time>2026-04-30T23:04:19.051Z</time></trkpt><trkpt lat="43.244503" lon="7.0668811"><ele>0.0</ele><time>2026-04-30T23:04:20.051Z</time></trkpt><trkpt lat="43.2445323" lon="7.0669741"><ele>0.0</ele><time>2026-04-30T23:04:21.05Z</time></trkpt><trkpt lat="43.2445729" lon="7.0670708"><ele>0.0</ele><time>2026-04-30T23:04:22.05Z</time></trkpt><trkpt lat="43.2446187" lon="7.067163"><ele>0.0</ele><time>2026-04-30T23:04:23.051Z</time></trkpt><trkpt lat="43.2446697" lon="7.0672533"><ele>0.0</ele><time>2026-04-30T23:04:24.05Z</time></trkpt><trkpt lat="43.2447199" lon="7.0673462"><ele>0.0</ele><time>2026-04-30T23:04:25.051Z</time></trkpt><trkpt lat="43.244773" lon="7.0674377"><ele>0.0</ele><time>2026-04-30T23:04:26.051Z</time></trkpt><trkpt lat="43.2448221" lon="7.0675297"><ele>0.0</ele><time>2026-04-30T23:04:27.051Z</time></trkpt><trkpt lat="43.2448857" lon="7.067614"><ele>0.0</ele><time>2026-04-30T23:04:28.051Z</time></trkpt><trkpt lat="43.24494" lon="7.0677068"><ele>0.0</ele><time>2026-04-30T23:04:29.051Z</time></trkpt><trkpt lat="43.2449891" lon="7.0678052"><ele>0.0</ele><time>2026-04-30T23:04:30.05Z</time></trkpt><trkpt lat="43.2450375" lon="7.0679011"><ele>0.0</ele><time>2026-04-30T23:04:31.05Z</time></trkpt><trkpt lat="43.2450829" lon="7.0679975"><ele>0.0</ele><time>2026-04-30T23:04:32.05Z</time></trkpt><trkpt lat="43.2451249" lon="7.0680929"><ele>0.0</ele><time>2026-04-30T23:04:33.051Z</time></trkpt><trkpt lat="43.2451748" lon="7.068185"><ele>0.0</ele><time>2026-04-30T23:04:34.05Z</time></trkpt><trkpt lat="43.2452169" lon="7.0682783"><ele>0.0</ele><time>2026-04-30T23:04:35.05Z</time></trkpt><trkpt lat="43.245251" lon="7.0683726"><ele>0.0</ele><time>2026-04-30T23:04:36.05Z</time></trkpt><trkpt lat="43.2452921" lon="7.0684662"><ele>0.0</ele><time>2026-04-30T23:04:37.051Z</time></trkpt><trkpt lat="43.2454386" lon="7.0687342"><ele>0.0</ele><time>2026-04-30T23:04:40.051Z</time></trkpt><trkpt lat="43.2454854" lon="7.0688291"><ele>0.0</ele><time>2026-04-30T23:04:41.051Z</time></trkpt><trkpt lat="43.2455293" lon="7.0689261"><ele>0.0</ele><time>2026-04-30T23:04:42.05Z</time></trkpt><trkpt lat="43.2456666" lon="7.0691492"><ele>0.0</ele><time>2026-04-30T23:04:46.088Z</time></trkpt><trkpt lat="43.2457592" lon="7.0693676"><ele>0.0</ele><time>2026-04-30T23:04:47.051Z</time></trkpt><trkpt lat="43.2458048" lon="7.0694757"><ele>0.0</ele><time>2026-04-30T23:04:48.05Z</time></trkpt><trkpt lat="43.2458497" lon="7.0695715"><ele>0.0</ele><time>2026-04-30T23:04:49.05Z</time></trkpt><trkpt lat="43.2458962" lon="7.0696649"><ele>0.0</ele><time>2026-04-30T23:04:50.051Z</time></trkpt><trkpt lat="43.2459418" lon="7.0697598"><ele>0.0</ele><time>2026-04-30T23:04:51.051Z</time></trkpt><trkpt lat="43.2459852" lon="7.0698544"><ele>0.0</ele><time>2026-04-30T23:04:52.051Z</time></trkpt><trkpt lat="43.2460342" lon="7.0699469"><ele>0.0</ele><time>2026-04-30T23:04:53.051Z</time></trkpt><trkpt lat="43.2460751" lon="7.0700369"><ele>0.0</ele><time>2026-04-30T23:04:54.05Z</time></trkpt><trkpt lat="43.2461363" lon="7.0701227"><ele>0.0</ele><time>2026-04-30T23:04:55.05Z</time></trkpt><trkpt lat="43.2461923" lon="7.0702105"><ele>0.0</ele><time>2026-04-30T23:04:56.05Z</time></trkpt><trkpt lat="43.2462372" lon="7.0703032"><ele>0.0</ele><time>2026-04-30T23:04:57.05Z</time></trkpt><trkpt lat="43.2462848" lon="7.0703922"><ele>0.0</ele><time>2026-04-30T23:04:58.05Z</time></trkpt><trkpt lat="43.2463331" lon="7.0704823"><ele>0.0</ele><time>2026-04-30T23:04:59.05Z</time></trkpt><trkpt lat="43.2464573" lon="7.0706573"><ele>0.0</ele><time>2026-04-30T23:05:01.051Z</time></trkpt><trkpt lat="43.2465099" lon="7.0707458"><ele>0.0</ele><time>2026-04-30T23:05:02.05Z</time></trkpt><trkpt lat="43.2465664" lon="7.070831"><ele>0.0</ele><time>2026-04-30T23:05:03.051Z</time></trkpt><trkpt lat="43.2466134" lon="7.070923"><ele>0.0</ele><time>2026-04-30T23:05:04.05Z</time></trkpt><trkpt lat="43.2466608" lon="7.0710062"><ele>0.0</ele><time>2026-04-30T23:05:05.05Z</time></trkpt><trkpt lat="43.2467047" lon="7.0710881"><ele>0.0</ele><time>2026-04-30T23:05:06.051Z</time></trkpt><trkpt lat="43.2467505" lon="7.0711607"><ele>0.0</ele><time>2026-04-30T23:05:07.051Z</time></trkpt><trkpt lat="43.2467999" lon="7.0712398"><ele>0.0</ele><time>2026-04-30T23:05:08.05Z</time></trkpt><trkpt lat="43.2468529" lon="7.0713206"><ele>0.0</ele><time>2026-04-30T23:05:09.051Z</time></trkpt><trkpt lat="43.2469034" lon="7.0713995"><ele>0.0</ele><time>2026-04-30T23:05:10.051Z</time></trkpt><trkpt lat="43.2470049" lon="7.0715726"><ele>0.0</ele><time>2026-04-30T23:05:12.051Z</time></trkpt><trkpt lat="43.2470638" lon="7.0716468"><ele>0.0</ele><time>2026-04-30T23:05:13.051Z</time></trkpt><trkpt lat="43.2471196" lon="7.0717358"><ele>0.0</ele><time>2026-04-30T23:05:14.05Z</time></trkpt><trkpt lat="43.2471546" lon="7.0718228"><ele>0.0</ele><time>2026-04-30T23:05:15.051Z</time></trkpt><trkpt lat="43.2472004" lon="7.0719197"><ele>0.0</ele><time>2026-04-30T23:05:16.051Z</time></trkpt><trkpt lat="43.2472441" lon="7.0720167"><ele>0.0</ele><time>2026-04-30T23:05:17.051Z</time></trkpt><trkpt lat="43.2472966" lon="7.0721063"><ele>0.0</ele><time>2026-04-30T23:05:18.05Z</time></trkpt><trkpt lat="43.2473405" lon="7.0721932"><ele>0.0</ele><time>2026-04-30T23:05:19.051Z</time></trkpt><trkpt lat="43.2473895" lon="7.0722811"><ele>0.0</ele><time>2026-04-30T23:05:20.05Z</time></trkpt><trkpt lat="43.2474849" lon="7.0724845"><ele>0.0</ele><time>2026-04-30T23:05:22.05Z</time></trkpt><trkpt lat="43.2475391" lon="7.0725797"><ele>0.0</ele><time>2026-04-30T23:05:23.051Z</time></trkpt><trkpt lat="43.2475782" lon="7.0726774"><ele>0.0</ele><time>2026-04-30T23:05:24.051Z</time></trkpt><trkpt lat="43.2476195" lon="7.0727688"><ele>0.0</ele><time>2026-04-30T23:05:25.051Z</time></trkpt><trkpt lat="43.2476613" lon="7.0728632"><ele>0.0</ele><time>2026-04-30T23:05:26.05Z</time></trkpt><trkpt lat="43.2477046" lon="7.0729563"><ele>0.0</ele><time>2026-04-30T23:05:27.05Z</time></trkpt><trkpt lat="43.2477468" lon="7.073048"><ele>0.0</ele><time>2026-04-30T23:05:28.05Z</time></trkpt><trkpt lat="43.2477935" lon="7.0731374"><ele>0.0</ele><time>2026-04-30T23:05:29.05Z</time></trkpt><trkpt lat="43.2478521" lon="7.0732327"><ele>0.0</ele><time>2026-04-30T23:05:30.05Z</time></trkpt><trkpt lat="43.2479024" lon="7.073324"><ele>0.0</ele><time>2026-04-30T23:05:31.05Z</time></trkpt><trkpt lat="43.2479542" lon="7.0734083"><ele>0.0</ele><time>2026-04-30T23:05:32.05Z</time></trkpt><trkpt lat="43.2480062" lon="7.0735087"><ele>0.0</ele><time>2026-04-30T23:05:33.051Z</time></trkpt><trkpt lat="43.2480484" lon="7.0736051"><ele>0.0</ele><time>2026-04-30T23:05:35.097Z</time></trkpt><trkpt lat="43.2481028" lon="7.0736952"><ele>0.0</ele><time>2026-04-30T23:05:36.103Z</time></trkpt><trkpt lat="43.2481959" lon="7.0738077"><ele>0.0</ele><time>2026-04-30T23:05:37.108Z</time></trkpt><trkpt lat="43.2482671" lon="7.0739066"><ele>0.0</ele><time>2026-04-30T23:05:38.114Z</time></trkpt><trkpt lat="43.2483234" lon="7.0740196"><ele>0.0</ele><time>2026-04-30T23:05:39.119Z</time></trkpt><trkpt lat="43.2483693" lon="7.0741333"><ele>0.0</ele><time>2026-04-30T23:05:40.125Z</time></trkpt><trkpt lat="43.2484285" lon="7.0742364"><ele>0.0</ele><time>2026-04-30T23:05:41.13Z</time></trkpt><trkpt lat="43.2484899" lon="7.0743262"><ele>0.0</ele><time>2026-04-30T23:05:42.137Z</time></trkpt><trkpt lat="43.2486606" lon="7.0746792"><ele>0.0</ele><time>2026-04-30T23:05:46.051Z</time></trkpt><trkpt lat="43.2487175" lon="7.074768"><ele>0.0</ele><time>2026-04-30T23:05:47.05Z</time></trkpt><trkpt lat="43.2487734" lon="7.0748487"><ele>0.0</ele><time>2026-04-30T23:05:48.05Z</time></trkpt><trkpt lat="43.2488287" lon="7.07494"><ele>0.0</ele><time>2026-04-30T23:05:49.05Z</time></trkpt><trkpt lat="43.2488683" lon="7.0750407"><ele>0.0</ele><time>2026-04-30T23:05:50.051Z</time></trkpt><trkpt lat="43.2489193" lon="7.0751276"><ele>0.0</ele><time>2026-04-30T23:05:51.05Z</time></trkpt><trkpt lat="43.2489793" lon="7.0752127"><ele>0.0</ele><time>2026-04-30T23:05:52.05Z</time></trkpt><trkpt lat="43.2490371" lon="7.075298"><ele>0.0</ele><time>2026-04-30T23:05:53.051Z</time></trkpt><trkpt lat="43.2490951" lon="7.0753811"><ele>0.0</ele><time>2026-04-30T23:05:54.05Z</time></trkpt><trkpt lat="43.2491483" lon="7.0754656"><ele>0.0</ele><time>2026-04-30T23:05:55.051Z</time></trkpt><trkpt lat="43.2492012" lon="7.0755576"><ele>0.0</ele><time>2026-04-30T23:05:56.05Z</time></trkpt><trkpt lat="43.2492446" lon="7.0756599"><ele>0.0</ele><time>2026-04-30T23:05:57.05Z</time></trkpt><trkpt lat="43.249293" lon="7.0757568"><ele>0.0</ele><time>2026-04-30T23:05:58.051Z</time></trkpt><trkpt lat="43.249343" lon="7.0758498"><ele>0.0</ele><time>2026-04-30T23:05:59.051Z</time></trkpt><trkpt lat="43.2493887" lon="7.0759486"><ele>0.0</ele><time>2026-04-30T23:06:00.05Z</time></trkpt><trkpt lat="43.2494347" lon="7.0760436"><ele>0.0</ele><time>2026-04-30T23:06:01.05Z</time></trkpt><trkpt lat="43.249487" lon="7.076135"><ele>0.0</ele><time>2026-04-30T23:06:02.05Z</time></trkpt><trkpt lat="43.2495396" lon="7.0762281"><ele>0.0</ele><time>2026-04-30T23:06:03.05Z</time></trkpt><trkpt lat="43.2495886" lon="7.0763173"><ele>0.0</ele><time>2026-04-30T23:06:04.051Z</time></trkpt><trkpt lat="43.2496936" lon="7.076487"><ele>0.0</ele><time>2026-04-30T23:06:06.051Z</time></trkpt><trkpt lat="43.2497265" lon="7.0765822"><ele>0.0</ele><time>2026-04-30T23:06:07.05Z</time></trkpt><trkpt lat="43.2497734" lon="7.0766735"><ele>0.0</ele><time>2026-04-30T23:06:08.051Z</time></trkpt><trkpt lat="43.2498206" lon="7.0767604"><ele>0.0</ele><time>2026-04-30T23:06:09.051Z</time></trkpt><trkpt lat="43.2498531" lon="7.0768541"><ele>0.0</ele><time>2026-04-30T23:06:10.05Z</time></trkpt><trkpt lat="43.2499032" lon="7.0769391"><ele>0.0</ele><time>2026-04-30T23:06:11.05Z</time></trkpt><trkpt lat="43.2499481" lon="7.0770389"><ele>0.0</ele><time>2026-04-30T23:06:12.051Z</time></trkpt><trkpt lat="43.2499984" lon="7.0771288"><ele>0.0</ele><time>2026-04-30T23:06:13.05Z</time></trkpt><trkpt lat="43.2500543" lon="7.0772172"><ele>0.0</ele><time>2026-04-30T23:06:14.051Z</time></trkpt><trkpt lat="43.2501568" lon="7.0774112"><ele>0.0</ele><time>2026-04-30T23:06:16.051Z</time></trkpt><trkpt lat="43.2501943" lon="7.0775146"><ele>0.0</ele><time>2026-04-30T23:06:17.05Z</time></trkpt><trkpt lat="43.2502463" lon="7.0776136"><ele>0.0</ele><time>2026-04-30T23:06:18.05Z</time></trkpt><trkpt lat="43.2502824" lon="7.0777177"><ele>0.0</ele><time>2026-04-30T23:06:19.051Z</time></trkpt><trkpt lat="43.2503066" lon="7.0778157"><ele>0.0</ele><time>2026-04-30T23:06:20.05Z</time></trkpt><trkpt lat="43.2503454" lon="7.0779099"><ele>0.0</ele><time>2026-04-30T23:06:21.05Z</time></trkpt><trkpt lat="43.2503907" lon="7.0779977"><ele>0.0</ele><time>2026-04-30T23:06:22.051Z</time></trkpt><trkpt lat="43.2504456" lon="7.0780883"><ele>0.0</ele><time>2026-04-30T23:06:23.05Z</time></trkpt><trkpt lat="43.2504929" lon="7.078182"><ele>0.0</ele><time>2026-04-30T23:06:24.051Z</time></trkpt><trkpt lat="43.250541" lon="7.0782722"><ele>0.0</ele><time>2026-04-30T23:06:25.051Z</time></trkpt><trkpt lat="43.2506618" lon="7.0784478"><ele>0.0</ele><time>2026-04-30T23:06:27.05Z</time></trkpt><trkpt lat="43.2507182" lon="7.078537"><ele>0.0</ele><time>2026-04-30T23:06:28.05Z</time></trkpt><trkpt lat="43.2507874" lon="7.078619"><ele>0.0</ele><time>2026-04-30T23:06:29.05Z</time></trkpt><trkpt lat="43.2508411" lon="7.0787125"><ele>0.0</ele><time>2026-04-30T23:06:30.05Z</time></trkpt><trkpt lat="43.2508896" lon="7.0788001"><ele>0.0</ele><time>2026-04-30T23:06:31.05Z</time></trkpt><trkpt lat="43.2509345" lon="7.0788992"><ele>0.0</ele><time>2026-04-30T23:06:32.05Z</time></trkpt><trkpt lat="43.2509794" lon="7.0789993"><ele>0.0</ele><time>2026-04-30T23:06:33.05Z</time></trkpt><trkpt lat="43.2510286" lon="7.0790883"><ele>0.0</ele><time>2026-04-30T23:06:34.05Z</time></trkpt><trkpt lat="43.2510795" lon="7.079178"><ele>0.0</ele><time>2026-04-30T23:06:35.05Z</time></trkpt><trkpt lat="43.251125" lon="7.0792638"><ele>0.0</ele><time>2026-04-30T23:06:36.05Z</time></trkpt><trkpt lat="43.2511704" lon="7.0793533"><ele>0.0</ele><time>2026-04-30T23:06:37.05Z</time></trkpt><trkpt lat="43.2512171" lon="7.0794298"><ele>0.0</ele><time>2026-04-30T23:06:39.16Z</time></trkpt><trkpt lat="43.2512375" lon="7.0795266"><ele>0.0</ele><time>2026-04-30T23:06:40.167Z</time></trkpt><trkpt lat="43.2513427" lon="7.0796623"><ele>0.0</ele><time>2026-04-30T23:06:41.172Z</time></trkpt><trkpt lat="43.2514598" lon="7.079893"><ele>0.0</ele><time>2026-04-30T23:06:43.05Z</time></trkpt><trkpt lat="43.2515117" lon="7.079982"><ele>0.0</ele><time>2026-04-30T23:06:44.051Z</time></trkpt><trkpt lat="43.251561" lon="7.0800671"><ele>0.0</ele><time>2026-04-30T23:06:45.05Z</time></trkpt><trkpt lat="43.2516043" lon="7.0801547"><ele>0.0</ele><time>2026-04-30T23:06:46.05Z</time></trkpt><trkpt lat="43.2517539" lon="7.0804439"><ele>0.0</ele><time>2026-04-30T23:06:49.051Z</time></trkpt><trkpt lat="43.2518031" lon="7.0805336"><ele>0.0</ele><time>2026-04-30T23:06:50.05Z</time></trkpt><trkpt lat="43.2518503" lon="7.0806236"><ele>0.0</ele><time>2026-04-30T23:06:51.05Z</time></trkpt><trkpt lat="43.2518954" lon="7.0807167"><ele>0.0</ele><time>2026-04-30T23:06:52.05Z</time></trkpt><trkpt lat="43.251949" lon="7.0808072"><ele>0.0</ele><time>2026-04-30T23:06:53.051Z</time></trkpt><trkpt lat="43.2520014" lon="7.0808915"><ele>0.0</ele><time>2026-04-30T23:06:54.05Z</time></trkpt><trkpt lat="43.2520502" lon="7.0809761"><ele>0.0</ele><time>2026-04-30T23:06:55.05Z</time></trkpt><trkpt lat="43.2521058" lon="7.081056"><ele>0.0</ele><time>2026-04-30T23:06:56.05Z</time></trkpt><trkpt lat="43.2521308" lon="7.0811452"><ele>0.0</ele><time>2026-04-30T23:06:57.051Z</time></trkpt><trkpt lat="43.2521879" lon="7.0812338"><ele>0.0</ele><time>2026-04-30T23:06:58.051Z</time></trkpt><trkpt lat="43.2522367" lon="7.0813205"><ele>0.0</ele><time>2026-04-30T23:06:59.05Z</time></trkpt><trkpt lat="43.2522832" lon="7.0814068"><ele>0.0</ele><time>2026-04-30T23:07:00.05Z</time></trkpt><trkpt lat="43.2523231" lon="7.0814954"><ele>0.0</ele><time>2026-04-30T23:07:01.05Z</time></trkpt><trkpt lat="43.2523548" lon="7.0815864"><ele>0.0</ele><time>2026-04-30T23:07:02.051Z</time></trkpt><trkpt lat="43.2524042" lon="7.0816738"><ele>0.0</ele><time>2026-04-30T23:07:03.05Z</time></trkpt><trkpt lat="43.2524497" lon="7.0817586"><ele>0.0</ele><time>2026-04-30T23:07:04.051Z</time></trkpt><trkpt lat="43.2525261" lon="7.0818481"><ele>0.0</ele><time>2026-04-30T23:07:05.051Z</time></trkpt><trkpt lat="43.2525782" lon="7.0819399"><ele>0.0</ele><time>2026-04-30T23:07:06.05Z</time></trkpt><trkpt lat="43.2526564" lon="7.0820325"><ele>0.0</ele><time>2026-04-30T23:07:07.05Z</time></trkpt><trkpt lat="43.2527281" lon="7.0821247"><ele>0.0</ele><time>2026-04-30T23:07:08.051Z</time></trkpt><trkpt lat="43.2528172" lon="7.0823123"><ele>0.0</ele><time>2026-04-30T23:07:10.05Z</time></trkpt><trkpt lat="43.2528566" lon="7.0824063"><ele>0.0</ele><time>2026-04-30T23:07:11.05Z</time></trkpt><trkpt lat="43.2528943" lon="7.0824981"><ele>0.0</ele><time>2026-04-30T23:07:12.05Z</time></trkpt><trkpt lat="43.2529396" lon="7.082588"><ele>0.0</ele><time>2026-04-30T23:07:13.051Z</time></trkpt><trkpt lat="43.2529782" lon="7.0826825"><ele>0.0</ele><time>2026-04-30T23:07:14.051Z</time></trkpt><trkpt lat="43.2530272" lon="7.0827722"><ele>0.0</ele><time>2026-04-30T23:07:15.051Z</time></trkpt><trkpt lat="43.2530718" lon="7.0828663"><ele>0.0</ele><time>2026-04-30T23:07:16.051Z</time></trkpt><trkpt lat="43.2531126" lon="7.0829596"><ele>0.0</ele><time>2026-04-30T23:07:17.05Z</time></trkpt><trkpt lat="43.2531651" lon="7.0830529"><ele>0.0</ele><time>2026-04-30T23:07:18.05Z</time></trkpt><trkpt lat="43.2532118" lon="7.0831479"><ele>0.0</ele><time>2026-04-30T23:07:19.05Z</time></trkpt><trkpt lat="43.2533095" lon="7.0833375"><ele>0.0</ele><time>2026-04-30T23:07:21.05Z</time></trkpt><trkpt lat="43.2533597" lon="7.0834309"><ele>0.0</ele><time>2026-04-30T23:07:22.051Z</time></trkpt><trkpt lat="43.2534053" lon="7.0835201"><ele>0.0</ele><time>2026-04-30T23:07:23.051Z</time></trkpt><trkpt lat="43.2534498" lon="7.083607"><ele>0.0</ele><time>2026-04-30T23:07:24.05Z</time></trkpt><trkpt lat="43.2534978" lon="7.0836969"><ele>0.0</ele><time>2026-04-30T23:07:25.05Z</time></trkpt><trkpt lat="43.2535519" lon="7.0837854"><ele>0.0</ele><time>2026-04-30T23:07:26.05Z</time></trkpt><trkpt lat="43.2536074" lon="7.0838711"><ele>0.0</ele><time>2026-04-30T23:07:27.05Z</time></trkpt><trkpt lat="43.2536582" lon="7.0839632"><ele>0.0</ele><time>2026-04-30T23:07:28.05Z</time></trkpt><trkpt lat="43.2537111" lon="7.0840652"><ele>0.0</ele><time>2026-04-30T23:07:29.051Z</time></trkpt><trkpt lat="43.2538241" lon="7.0842478"><ele>0.0</ele><time>2026-04-30T23:07:31.051Z</time></trkpt><trkpt lat="43.2538767" lon="7.0843443"><ele>0.0</ele><time>2026-04-30T23:07:32.05Z</time></trkpt><trkpt lat="43.2539229" lon="7.0844365"><ele>0.0</ele><time>2026-04-30T23:07:33.051Z</time></trkpt><trkpt lat="43.2539661" lon="7.0845299"><ele>0.0</ele><time>2026-04-30T23:07:34.051Z</time></trkpt><trkpt lat="43.2540103" lon="7.0846204"><ele>0.0</ele><time>2026-04-30T23:07:35.05Z</time></trkpt><trkpt lat="43.2540454" lon="7.0847062"><ele>0.0</ele><time>2026-04-30T23:07:36.05Z</time></trkpt><trkpt lat="43.2540884" lon="7.0847949"><ele>0.0</ele><time>2026-04-30T23:07:37.051Z</time></trkpt><trkpt lat="43.2541349" lon="7.0848837"><ele>0.0</ele><time>2026-04-30T23:07:38.051Z</time></trkpt><trkpt lat="43.254183" lon="7.0849781"><ele>0.0</ele><time>2026-04-30T23:07:39.05Z</time></trkpt><trkpt lat="43.2542359" lon="7.0850657"><ele>0.0</ele><time>2026-04-30T23:07:40.05Z</time></trkpt><trkpt lat="43.254282" lon="7.0851552"><ele>0.0</ele><time>2026-04-30T23:07:41.051Z</time></trkpt><trkpt lat="43.2543298" lon="7.0852424"><ele>0.0</ele><time>2026-04-30T23:07:42.05Z</time></trkpt><trkpt lat="43.254381" lon="7.085326"><ele>0.0</ele><time>2026-04-30T23:07:43.051Z</time></trkpt><trkpt lat="43.2545764" lon="7.0856917"><ele>0.0</ele><time>2026-04-30T23:07:47.051Z</time></trkpt><trkpt lat="43.2546205" lon="7.0857819"><ele>0.0</ele><time>2026-04-30T23:07:48.05Z</time></trkpt><trkpt lat="43.2546709" lon="7.0858704"><ele>0.0</ele><time>2026-04-30T23:07:49.051Z</time></trkpt><trkpt lat="43.254721" lon="7.0859663"><ele>0.0</ele><time>2026-04-30T23:07:50.05Z</time></trkpt><trkpt lat="43.2547698" lon="7.0860591"><ele>0.0</ele><time>2026-04-30T23:07:51.05Z</time></trkpt><trkpt lat="43.2548128" lon="7.0861504"><ele>0.0</ele><time>2026-04-30T23:07:52.05Z</time></trkpt><trkpt lat="43.2549002" lon="7.0863318"><ele>0.0</ele><time>2026-04-30T23:07:54.05Z</time></trkpt><trkpt lat="43.2549457" lon="7.0864175"><ele>0.0</ele><time>2026-04-30T23:07:55.05Z</time></trkpt><trkpt lat="43.254998" lon="7.0865025"><ele>0.0</ele><time>2026-04-30T23:07:56.051Z</time></trkpt><trkpt lat="43.2550259" lon="7.086592"><ele>0.0</ele><time>2026-04-30T23:07:57.05Z</time></trkpt><trkpt lat="43.2550691" lon="7.0866761"><ele>0.0</ele><time>2026-04-30T23:07:58.05Z</time></trkpt><trkpt lat="43.2551053" lon="7.0867737"><ele>0.0</ele><time>2026-04-30T23:07:59.05Z</time></trkpt><trkpt lat="43.255157" lon="7.0868539"><ele>0.0</ele><time>2026-04-30T23:08:00.05Z</time></trkpt><trkpt lat="43.2552079" lon="7.0869451"><ele>0.0</ele><time>2026-04-30T23:08:01.05Z</time></trkpt><trkpt lat="43.2552528" lon="7.0870397"><ele>0.0</ele><time>2026-04-30T23:08:02.05Z</time></trkpt><trkpt lat="43.2553001" lon="7.0871329"><ele>0.0</ele><time>2026-04-30T23:08:03.051Z</time></trkpt><trkpt lat="43.2553484" lon="7.087223"><ele>0.0</ele><time>2026-04-30T23:08:04.05Z</time></trkpt><trkpt lat="43.255398" lon="7.0873161"><ele>0.0</ele><time>2026-04-30T23:08:05.051Z</time></trkpt><trkpt lat="43.2554387" lon="7.087415"><ele>0.0</ele><time>2026-04-30T23:08:06.05Z</time></trkpt><trkpt lat="43.2554771" lon="7.0875109"><ele>0.0</ele><time>2026-04-30T23:08:07.051Z</time></trkpt><trkpt lat="43.2555199" lon="7.0876066"><ele>0.0</ele><time>2026-04-30T23:08:08.051Z</time></trkpt><trkpt lat="43.2555671" lon="7.087705"><ele>0.0</ele><time>2026-04-30T23:08:09.051Z</time></trkpt><trkpt lat="43.2556476" lon="7.0879031"><ele>0.0</ele><time>2026-04-30T23:08:12.085Z</time></trkpt><trkpt lat="43.2557353" lon="7.088048"><ele>0.0</ele><time>2026-04-30T23:08:13.09Z</time></trkpt><trkpt lat="43.2558533" lon="7.0882665"><ele>0.0</ele><time>2026-04-30T23:08:15.1Z</time></trkpt><trkpt lat="43.2559152" lon="7.0883652"><ele>0.0</ele><time>2026-04-30T23:08:16.106Z</time></trkpt><trkpt lat="43.2559776" lon="7.0884691"><ele>0.0</ele><time>2026-04-30T23:08:17.113Z</time></trkpt><trkpt lat="43.2560392" lon="7.0885896"><ele>0.0</ele><time>2026-04-30T23:08:19.05Z</time></trkpt><trkpt lat="43.2560778" lon="7.0886787"><ele>0.0</ele><time>2026-04-30T23:08:20.051Z</time></trkpt><trkpt lat="43.2561259" lon="7.0887653"><ele>0.0</ele><time>2026-04-30T23:08:21.05Z</time></trkpt><trkpt lat="43.2561748" lon="7.0888551"><ele>0.0</ele><time>2026-04-30T23:08:22.05Z</time></trkpt><trkpt lat="43.2562239" lon="7.0889432"><ele>0.0</ele><time>2026-04-30T23:08:23.051Z</time></trkpt><trkpt lat="43.2563329" lon="7.0891134"><ele>0.0</ele><time>2026-04-30T23:08:25.051Z</time></trkpt><trkpt lat="43.2563869" lon="7.089201"><ele>0.0</ele><time>2026-04-30T23:08:26.05Z</time></trkpt><trkpt lat="43.2564438" lon="7.089303"><ele>0.0</ele><time>2026-04-30T23:08:27.05Z</time></trkpt><trkpt lat="43.2564952" lon="7.089399"><ele>0.0</ele><time>2026-04-30T23:08:28.05Z</time></trkpt><trkpt lat="43.2565451" lon="7.0894933"><ele>0.0</ele><time>2026-04-30T23:08:29.05Z</time></trkpt><trkpt lat="43.2565931" lon="7.0895861"><ele>0.0</ele><time>2026-04-30T23:08:30.051Z</time></trkpt><trkpt lat="43.2566381" lon="7.0896751"><ele>0.0</ele><time>2026-04-30T23:08:31.051Z</time></trkpt><trkpt lat="43.2566871" lon="7.0897659"><ele>0.0</ele><time>2026-04-30T23:08:32.051Z</time></trkpt><trkpt lat="43.2567357" lon="7.089859"><ele>0.0</ele><time>2026-04-30T23:08:33.05Z</time></trkpt><trkpt lat="43.2567832" lon="7.0899555"><ele>0.0</ele><time>2026-04-30T23:08:34.051Z</time></trkpt><trkpt lat="43.256872" lon="7.0901364"><ele>0.0</ele><time>2026-04-30T23:08:36.051Z</time></trkpt><trkpt lat="43.2569196" lon="7.0902274"><ele>0.0</ele><time>2026-04-30T23:08:37.051Z</time></trkpt><trkpt lat="43.2569666" lon="7.0903179"><ele>0.0</ele><time>2026-04-30T23:08:38.05Z</time></trkpt><trkpt lat="43.2570103" lon="7.0904109"><ele>0.0</ele><time>2026-04-30T23:08:39.05Z</time></trkpt><trkpt lat="43.2570683" lon="7.0904999"><ele>0.0</ele><time>2026-04-30T23:08:40.05Z</time></trkpt><trkpt lat="43.2571226" lon="7.0905994"><ele>0.0</ele><time>2026-04-30T23:08:41.051Z</time></trkpt><trkpt lat="43.257173" lon="7.0906896"><ele>0.0</ele><time>2026-04-30T23:08:42.05Z</time></trkpt><trkpt lat="43.2572286" lon="7.090781"><ele>0.0</ele><time>2026-04-30T23:08:43.051Z</time></trkpt><trkpt lat="43.2572795" lon="7.0908669"><ele>0.0</ele><time>2026-04-30T23:08:44.051Z</time></trkpt><trkpt lat="43.2573188" lon="7.0909548"><ele>0.0</ele><time>2026-04-30T23:08:45.05Z</time></trkpt><trkpt lat="43.257371" lon="7.0910318"><ele>0.0</ele><time>2026-04-30T23:08:46.051Z</time></trkpt><trkpt lat="43.2574188" lon="7.0911298"><ele>0.0</ele><time>2026-04-30T23:08:47.05Z</time></trkpt><trkpt lat="43.2574504" lon="7.091235"><ele>0.0</ele><time>2026-04-30T23:08:48.05Z</time></trkpt><trkpt lat="43.2574907" lon="7.0913368"><ele>0.0</ele><time>2026-04-30T23:08:49.05Z</time></trkpt><trkpt lat="43.2575435" lon="7.0914264"><ele>0.0</ele><time>2026-04-30T23:08:50.051Z</time></trkpt><trkpt lat="43.2575943" lon="7.0915156"><ele>0.0</ele><time>2026-04-30T23:08:51.051Z</time></trkpt><trkpt lat="43.257649" lon="7.0916082"><ele>0.0</ele><time>2026-04-30T23:08:52.05Z</time></trkpt><trkpt lat="43.2576924" lon="7.0917053"><ele>0.0</ele><time>2026-04-30T23:08:53.05Z</time></trkpt><trkpt lat="43.2577398" lon="7.0918022"><ele>0.0</ele><time>2026-04-30T23:08:54.05Z</time></trkpt><trkpt lat="43.2577913" lon="7.091898"><ele>0.0</ele><time>2026-04-30T23:08:55.051Z</time></trkpt><trkpt lat="43.2578315" lon="7.0919942"><ele>0.0</ele><time>2026-04-30T23:08:56.051Z</time></trkpt><trkpt lat="43.257979" lon="7.0922742"><ele>0.0</ele><time>2026-04-30T23:08:59.05Z</time></trkpt><trkpt lat="43.2580091" lon="7.0923524"><ele>0.0</ele><time>2026-04-30T23:09:01.166Z</time></trkpt><trkpt lat="43.2580789" lon="7.0925146"><ele>0.0</ele><time>2026-04-30T23:09:02.071Z</time></trkpt><trkpt lat="43.2581402" lon="7.0926305"><ele>0.0</ele><time>2026-04-30T23:09:03.076Z</time></trkpt><trkpt lat="43.2582074" lon="7.0927311"><ele>0.0</ele><time>2026-04-30T23:09:04.082Z</time></trkpt><trkpt lat="43.2582829" lon="7.0928247"><ele>0.0</ele><time>2026-04-30T23:09:05.088Z</time></trkpt><trkpt lat="43.2583495" lon="7.0929259"><ele>0.0</ele><time>2026-04-30T23:09:06.093Z</time></trkpt><trkpt lat="43.2584218" lon="7.0930172"><ele>0.0</ele><time>2026-04-30T23:09:07.098Z</time></trkpt><trkpt lat="43.258496" lon="7.0931028"><ele>0.0</ele><time>2026-04-30T23:09:08.103Z</time></trkpt><trkpt lat="43.2585622" lon="7.0932188"><ele>0.0</ele><time>2026-04-30T23:09:10.114Z</time></trkpt><trkpt lat="43.2586618" lon="7.0932974"><ele>0.0</ele><time>2026-04-30T23:09:11.12Z</time></trkpt><trkpt lat="43.2587247" lon="7.0933996"><ele>0.0</ele><time>2026-04-30T23:09:12.127Z</time></trkpt><trkpt lat="43.2587322" lon="7.0934872"><ele>0.0</ele><time>2026-04-30T23:09:13.05Z</time></trkpt><trkpt lat="43.2587589" lon="7.0935775"><ele>0.0</ele><time>2026-04-30T23:09:14.137Z</time></trkpt><trkpt lat="43.25881" lon="7.0937045"><ele>0.0</ele><time>2026-04-30T23:09:15.143Z</time></trkpt><trkpt lat="43.2588582" lon="7.0938097"><ele>0.0</ele><time>2026-04-30T23:09:16.148Z</time></trkpt><trkpt lat="43.2588961" lon="7.0939012"><ele>0.0</ele><time>2026-04-30T23:09:17.153Z</time></trkpt><trkpt lat="43.2589472" lon="7.0939879"><ele>0.0</ele><time>2026-04-30T23:09:18.16Z</time></trkpt><trkpt lat="43.2590876" lon="7.0943165"><ele>0.0</ele><time>2026-04-30T23:09:22.082Z</time></trkpt><trkpt lat="43.2591413" lon="7.0944241"><ele>0.0</ele><time>2026-04-30T23:09:23.087Z</time></trkpt><trkpt lat="43.2591906" lon="7.0945317"><ele>0.0</ele><time>2026-04-30T23:09:24.093Z</time></trkpt><trkpt lat="43.2592306" lon="7.0946395"><ele>0.0</ele><time>2026-04-30T23:09:25.097Z</time></trkpt><trkpt lat="43.2592812" lon="7.0947378"><ele>0.0</ele><time>2026-04-30T23:09:26.104Z</time></trkpt><trkpt lat="43.2593292" lon="7.0948374"><ele>0.0</ele><time>2026-04-30T23:09:27.108Z</time></trkpt><trkpt lat="43.2593866" lon="7.0949421"><ele>0.0</ele><time>2026-04-30T23:09:28.114Z</time></trkpt><trkpt lat="43.2595161" lon="7.0951184"><ele>0.0</ele><time>2026-04-30T23:09:30.125Z</time></trkpt><trkpt lat="43.2595647" lon="7.0952183"><ele>0.0</ele><time>2026-04-30T23:09:31.132Z</time></trkpt><trkpt lat="43.2596192" lon="7.0953247"><ele>0.0</ele><time>2026-04-30T23:09:32.136Z</time></trkpt><trkpt lat="43.2596685" lon="7.0954625"><ele>0.0</ele><time>2026-04-30T23:09:34.148Z</time></trkpt><trkpt lat="43.2597282" lon="7.0955773"><ele>0.0</ele><time>2026-04-30T23:09:35.153Z</time></trkpt><trkpt lat="43.2597873" lon="7.0956844"><ele>0.0</ele><time>2026-04-30T23:09:36.159Z</time></trkpt><trkpt lat="43.2598475" lon="7.0957757"><ele>0.0</ele><time>2026-04-30T23:09:37.164Z</time></trkpt><trkpt lat="43.2598858" lon="7.0958682"><ele>0.0</ele><time>2026-04-30T23:09:38.069Z</time></trkpt><trkpt lat="43.2599188" lon="7.0959858"><ele>0.0</ele><time>2026-04-30T23:09:39.175Z</time></trkpt><trkpt lat="43.2600395" lon="7.0961603"><ele>0.0</ele><time>2026-04-30T23:09:41.086Z</time></trkpt><trkpt lat="43.2601077" lon="7.0962839"><ele>0.0</ele><time>2026-04-30T23:09:43.097Z</time></trkpt><trkpt lat="43.2601873" lon="7.0963902"><ele>0.0</ele><time>2026-04-30T23:09:44.104Z</time></trkpt><trkpt lat="43.2602802" lon="7.0964609"><ele>0.0</ele><time>2026-04-30T23:09:45.108Z</time></trkpt><trkpt lat="43.2603601" lon="7.0965436"><ele>0.0</ele><time>2026-04-30T23:09:46.114Z</time></trkpt><trkpt lat="43.2604207" lon="7.0967043"><ele>0.0</ele><time>2026-04-30T23:09:48.126Z</time></trkpt><trkpt lat="43.2604847" lon="7.0968139"><ele>0.0</ele><time>2026-04-30T23:09:49.13Z</time></trkpt><trkpt lat="43.2605501" lon="7.0968874"><ele>0.0</ele><time>2026-04-30T23:09:50.137Z</time></trkpt><trkpt lat="43.2606062" lon="7.096973"><ele>0.0</ele><time>2026-04-30T23:09:51.143Z</time></trkpt><trkpt lat="43.2606597" lon="7.0970741"><ele>0.0</ele><time>2026-04-30T23:09:52.147Z</time></trkpt><trkpt lat="43.26071" lon="7.0971752"><ele>0.0</ele><time>2026-04-30T23:09:54.159Z</time></trkpt><trkpt lat="43.2608106" lon="7.0973829"><ele>0.0</ele><time>2026-04-30T23:09:56.049Z</time></trkpt><trkpt lat="43.2608486" lon="7.0974764"><ele>0.0</ele><time>2026-04-30T23:09:57.049Z</time></trkpt><trkpt lat="43.2608923" lon="7.0975687"><ele>0.0</ele><time>2026-04-30T23:09:58.05Z</time></trkpt><trkpt lat="43.2609416" lon="7.0976737"><ele>0.0</ele><time>2026-04-30T23:09:59.05Z</time></trkpt><trkpt lat="43.2609951" lon="7.0977704"><ele>0.0</ele><time>2026-04-30T23:10:00.05Z</time></trkpt><trkpt lat="43.2610484" lon="7.0978625"><ele>0.0</ele><time>2026-04-30T23:10:01.049Z</time></trkpt><trkpt lat="43.2611971" lon="7.0981502"><ele>0.0</ele><time>2026-04-30T23:10:04.05Z</time></trkpt><trkpt lat="43.2612548" lon="7.0982419"><ele>0.0</ele><time>2026-04-30T23:10:05.05Z</time></trkpt><trkpt lat="43.2613017" lon="7.0983364"><ele>0.0</ele><time>2026-04-30T23:10:06.05Z</time></trkpt><trkpt lat="43.2613378" lon="7.0984296"><ele>0.0</ele><time>2026-04-30T23:10:07.049Z</time></trkpt><trkpt lat="43.2613809" lon="7.0985224"><ele>0.0</ele><time>2026-04-30T23:10:08.049Z</time></trkpt><trkpt lat="43.2614242" lon="7.0986175"><ele>0.0</ele><time>2026-04-30T23:10:09.05Z</time></trkpt><trkpt lat="43.261469" lon="7.0987106"><ele>0.0</ele><time>2026-04-30T23:10:10.049Z</time></trkpt><trkpt lat="43.2615202" lon="7.0987989"><ele>0.0</ele><time>2026-04-30T23:10:11.049Z</time></trkpt><trkpt lat="43.2615719" lon="7.0988852"><ele>0.0</ele><time>2026-04-30T23:10:12.05Z</time></trkpt><trkpt lat="43.2616207" lon="7.0989735"><ele>0.0</ele><time>2026-04-30T23:10:13.049Z</time></trkpt><trkpt lat="43.2616705" lon="7.0990615"><ele>0.0</ele><time>2026-04-30T23:10:14.049Z</time></trkpt><trkpt lat="43.2617151" lon="7.0991488"><ele>0.0</ele><time>2026-04-30T23:10:15.05Z</time></trkpt><trkpt lat="43.2617649" lon="7.0992152"><ele>0.0</ele><time>2026-04-30T23:10:17.072Z</time></trkpt><trkpt lat="43.2618276" lon="7.0992955"><ele>0.0</ele><time>2026-04-30T23:10:18.078Z</time></trkpt><trkpt lat="43.2618879" lon="7.0994582"><ele>0.0</ele><time>2026-04-30T23:10:19.082Z</time></trkpt><trkpt lat="43.261945" lon="7.0995751"><ele>0.0</ele><time>2026-04-30T23:10:20.088Z</time></trkpt><trkpt lat="43.2620049" lon="7.0996741"><ele>0.0</ele><time>2026-04-30T23:10:21.093Z</time></trkpt><trkpt lat="43.2620596" lon="7.0997725"><ele>0.0</ele><time>2026-04-30T23:10:22.1Z</time></trkpt><trkpt lat="43.2621165" lon="7.0998681"><ele>0.0</ele><time>2026-04-30T23:10:23.105Z</time></trkpt><trkpt lat="43.2622189" lon="7.1000598"><ele>0.0</ele><time>2026-04-30T23:10:25.116Z</time></trkpt><trkpt lat="43.2622736" lon="7.1001576"><ele>0.0</ele><time>2026-04-30T23:10:26.121Z</time></trkpt><trkpt lat="43.2623651" lon="7.1003793"><ele>0.0</ele><time>2026-04-30T23:10:29.139Z</time></trkpt><trkpt lat="43.2624255" lon="7.1004995"><ele>0.0</ele><time>2026-04-30T23:10:30.144Z</time></trkpt><trkpt lat="43.2624862" lon="7.1006008"><ele>0.0</ele><time>2026-04-30T23:10:31.149Z</time></trkpt><trkpt lat="43.2625504" lon="7.1006922"><ele>0.0</ele><time>2026-04-30T23:10:32.155Z</time></trkpt><trkpt lat="43.2626092" lon="7.1007827"><ele>0.0</ele><time>2026-04-30T23:10:33.16Z</time></trkpt><trkpt lat="43.2626859" lon="7.1009009"><ele>0.0</ele><time>2026-04-30T23:10:35.171Z</time></trkpt><trkpt lat="43.2627369" lon="7.1010288"><ele>0.0</ele><time>2026-04-30T23:10:36.077Z</time></trkpt><trkpt lat="43.2627936" lon="7.1011383"><ele>0.0</ele><time>2026-04-30T23:10:37.083Z</time></trkpt><trkpt lat="43.2628393" lon="7.1012432"><ele>0.0</ele><time>2026-04-30T23:10:38.088Z</time></trkpt><trkpt lat="43.2628851" lon="7.1013419"><ele>0.0</ele><time>2026-04-30T23:10:39.093Z</time></trkpt><trkpt lat="43.2629447" lon="7.1014314"><ele>0.0</ele><time>2026-04-30T23:10:40.098Z</time></trkpt><trkpt lat="43.2630112" lon="7.1015173"><ele>0.0</ele><time>2026-04-30T23:10:41.105Z</time></trkpt><trkpt lat="43.2630914" lon="7.1016502"><ele>0.0</ele><time>2026-04-30T23:10:43.05Z</time></trkpt><trkpt lat="43.2631533" lon="7.1017329"><ele>0.0</ele><time>2026-04-30T23:10:44.05Z</time></trkpt><trkpt lat="43.2632456" lon="7.1019211"><ele>0.0</ele><time>2026-04-30T23:10:46.05Z</time></trkpt><trkpt lat="43.2632874" lon="7.1020159"><ele>0.0</ele><time>2026-04-30T23:10:47.049Z</time></trkpt><trkpt lat="43.2633359" lon="7.1021051"><ele>0.0</ele><time>2026-04-30T23:10:48.05Z</time></trkpt><trkpt lat="43.2633834" lon="7.1021966"><ele>0.0</ele><time>2026-04-30T23:10:49.049Z</time></trkpt><trkpt lat="43.2634341" lon="7.1022767"><ele>0.0</ele><time>2026-04-30T23:10:50.05Z</time></trkpt><trkpt lat="43.2634668" lon="7.102369"><ele>0.0</ele><time>2026-04-30T23:10:51.05Z</time></trkpt><trkpt lat="43.2635029" lon="7.1024627"><ele>0.0</ele><time>2026-04-30T23:10:52.05Z</time></trkpt><trkpt lat="43.2635549" lon="7.1025515"><ele>0.0</ele><time>2026-04-30T23:10:53.05Z</time></trkpt><trkpt lat="43.2636047" lon="7.1026504"><ele>0.0</ele><time>2026-04-30T23:10:54.049Z</time></trkpt><trkpt lat="43.2636449" lon="7.1027496"><ele>0.0</ele><time>2026-04-30T23:10:55.05Z</time></trkpt><trkpt lat="43.2636813" lon="7.102843"><ele>0.0</ele><time>2026-04-30T23:10:56.05Z</time></trkpt><trkpt lat="43.2637261" lon="7.1029287"><ele>0.0</ele><time>2026-04-30T23:10:57.049Z</time></trkpt><trkpt lat="43.2637827" lon="7.103014"><ele>0.0</ele><time>2026-04-30T23:10:58.049Z</time></trkpt><trkpt lat="43.2638343" lon="7.1031006"><ele>0.0</ele><time>2026-04-30T23:10:59.049Z</time></trkpt><trkpt lat="43.2638845" lon="7.1031925"><ele>0.0</ele><time>2026-04-30T23:11:00.049Z</time></trkpt><trkpt lat="43.2639347" lon="7.1032834"><ele>0.0</ele><time>2026-04-30T23:11:01.049Z</time></trkpt><trkpt lat="43.263982" lon="7.1033758"><ele>0.0</ele><time>2026-04-30T23:11:02.05Z</time></trkpt><trkpt lat="43.2640387" lon="7.1034612"><ele>0.0</ele><time>2026-04-30T23:11:03.05Z</time></trkpt><trkpt lat="43.264087" lon="7.1035557"><ele>0.0</ele><time>2026-04-30T23:11:04.05Z</time></trkpt><trkpt lat="43.2641237" lon="7.1036552"><ele>0.0</ele><time>2026-04-30T23:11:05.049Z</time></trkpt><trkpt lat="43.2642573" lon="7.1040142"><ele>0.0</ele><time>2026-04-30T23:11:10.164Z</time></trkpt><trkpt lat="43.2643469" lon="7.1041751"><ele>0.0</ele><time>2026-04-30T23:11:11.17Z</time></trkpt><trkpt lat="43.2644017" lon="7.1042873"><ele>0.0</ele><time>2026-04-30T23:11:12.075Z</time></trkpt><trkpt lat="43.2644609" lon="7.104391"><ele>0.0</ele><time>2026-04-30T23:11:13.182Z</time></trkpt><trkpt lat="43.2645261" lon="7.1044664"><ele>0.0</ele><time>2026-04-30T23:11:14.087Z</time></trkpt><trkpt lat="43.2645784" lon="7.1045633"><ele>0.0</ele><time>2026-04-30T23:11:15.092Z</time></trkpt><trkpt lat="43.2646397" lon="7.1046513"><ele>0.0</ele><time>2026-04-30T23:11:16.05Z</time></trkpt><trkpt lat="43.2646991" lon="7.1047285"><ele>0.0</ele><time>2026-04-30T23:11:17.049Z</time></trkpt><trkpt lat="43.2647409" lon="7.1048206"><ele>0.0</ele><time>2026-04-30T23:11:18.049Z</time></trkpt><trkpt lat="43.2648021" lon="7.1049168"><ele>0.0</ele><time>2026-04-30T23:11:19.049Z</time></trkpt><trkpt lat="43.2648439" lon="7.1050152"><ele>0.0</ele><time>2026-04-30T23:11:20.05Z</time></trkpt><trkpt lat="43.2648741" lon="7.1051091"><ele>0.0</ele><time>2026-04-30T23:11:21.049Z</time></trkpt><trkpt lat="43.2649139" lon="7.1052033"><ele>0.0</ele><time>2026-04-30T23:11:22.049Z</time></trkpt><trkpt lat="43.264964" lon="7.105284"><ele>0.0</ele><time>2026-04-30T23:11:23.05Z</time></trkpt><trkpt lat="43.2650159" lon="7.1053715"><ele>0.0</ele><time>2026-04-30T23:11:24.049Z</time></trkpt><trkpt lat="43.2650726" lon="7.1054561"><ele>0.0</ele><time>2026-04-30T23:11:25.049Z</time></trkpt><trkpt lat="43.2651114" lon="7.1055449"><ele>0.0</ele><time>2026-04-30T23:11:26.05Z</time></trkpt><trkpt lat="43.2651583" lon="7.1056329"><ele>0.0</ele><time>2026-04-30T23:11:27.049Z</time></trkpt><trkpt lat="43.2652437" lon="7.1058241"><ele>0.0</ele><time>2026-04-30T23:11:29.05Z</time></trkpt><trkpt lat="43.2652873" lon="7.1059214"><ele>0.0</ele><time>2026-04-30T23:11:30.049Z</time></trkpt><trkpt lat="43.2653439" lon="7.1060204"><ele>0.0</ele><time>2026-04-30T23:11:31.049Z</time></trkpt><trkpt lat="43.2654088" lon="7.1061104"><ele>0.0</ele><time>2026-04-30T23:11:32.05Z</time></trkpt><trkpt lat="43.2654871" lon="7.1061998"><ele>0.0</ele><time>2026-04-30T23:11:33.049Z</time></trkpt><trkpt lat="43.2655405" lon="7.1062924"><ele>0.0</ele><time>2026-04-30T23:11:34.049Z</time></trkpt><trkpt lat="43.2656077" lon="7.1063842"><ele>0.0</ele><time>2026-04-30T23:11:35.05Z</time></trkpt><trkpt lat="43.2656766" lon="7.1064745"><ele>0.0</ele><time>2026-04-30T23:11:36.049Z</time></trkpt><trkpt lat="43.2657519" lon="7.1065725"><ele>0.0</ele><time>2026-04-30T23:11:37.05Z</time></trkpt><trkpt lat="43.2658722" lon="7.1067709"><ele>0.0</ele><time>2026-04-30T23:11:39.05Z</time></trkpt><trkpt lat="43.2659262" lon="7.1068629"><ele>0.0</ele><time>2026-04-30T23:11:40.05Z</time></trkpt><trkpt lat="43.2659813" lon="7.1069551"><ele>0.0</ele><time>2026-04-30T23:11:41.049Z</time></trkpt><trkpt lat="43.2660302" lon="7.1070585"><ele>0.0</ele><time>2026-04-30T23:11:42.049Z</time></trkpt><trkpt lat="43.2660793" lon="7.1071524"><ele>0.0</ele><time>2026-04-30T23:11:43.049Z</time></trkpt><trkpt lat="43.266125" lon="7.1072385"><ele>0.0</ele><time>2026-04-30T23:11:44.049Z</time></trkpt><trkpt lat="43.2661723" lon="7.1073315"><ele>0.0</ele><time>2026-04-30T23:11:45.05Z</time></trkpt><trkpt lat="43.2662136" lon="7.1074236"><ele>0.0</ele><time>2026-04-30T23:11:46.05Z</time></trkpt><trkpt lat="43.2663403" lon="7.1076763"><ele>0.0</ele><time>2026-04-30T23:11:49.05Z</time></trkpt><trkpt lat="43.2664146" lon="7.107836"><ele>0.0</ele><time>2026-04-30T23:11:51.05Z</time></trkpt><trkpt lat="43.2664461" lon="7.1079252"><ele>0.0</ele><time>2026-04-30T23:11:52.05Z</time></trkpt><trkpt lat="43.2664773" lon="7.1080181"><ele>0.0</ele><time>2026-04-30T23:11:53.049Z</time></trkpt><trkpt lat="43.2665188" lon="7.1081088"><ele>0.0</ele><time>2026-04-30T23:11:54.049Z</time></trkpt><trkpt lat="43.266564" lon="7.1081995"><ele>0.0</ele><time>2026-04-30T23:11:55.049Z</time></trkpt><trkpt lat="43.2666115" lon="7.1082822"><ele>0.0</ele><time>2026-04-30T23:11:56.05Z</time></trkpt><trkpt lat="43.2666584" lon="7.108367"><ele>0.0</ele><time>2026-04-30T23:11:57.049Z</time></trkpt><trkpt lat="43.2667112" lon="7.1084549"><ele>0.0</ele><time>2026-04-30T23:11:58.05Z</time></trkpt><trkpt lat="43.266769" lon="7.1085386"><ele>0.0</ele><time>2026-04-30T23:11:59.049Z</time></trkpt><trkpt lat="43.2668292" lon="7.1086247"><ele>0.0</ele><time>2026-04-30T23:12:00.05Z</time></trkpt><trkpt lat="43.2668885" lon="7.1087102"><ele>0.0</ele><time>2026-04-30T23:12:01.049Z</time></trkpt><trkpt lat="43.2669451" lon="7.1087977"><ele>0.0</ele><time>2026-04-30T23:12:02.05Z</time></trkpt><trkpt lat="43.2669948" lon="7.10889"><ele>0.0</ele><time>2026-04-30T23:12:03.05Z</time></trkpt><trkpt lat="43.267043" lon="7.1089823"><ele>0.0</ele><time>2026-04-30T23:12:04.049Z</time></trkpt><trkpt lat="43.2670855" lon="7.1090752"><ele>0.0</ele><time>2026-04-30T23:12:05.049Z</time></trkpt><trkpt lat="43.2671351" lon="7.1091669"><ele>0.0</ele><time>2026-04-30T23:12:06.05Z</time></trkpt><trkpt lat="43.2671941" lon="7.1092592"><ele>0.0</ele><time>2026-04-30T23:12:07.05Z</time></trkpt><trkpt lat="43.2672473" lon="7.1093514"><ele>0.0</ele><time>2026-04-30T23:12:08.05Z</time></trkpt><trkpt lat="43.2673047" lon="7.109417"><ele>0.0</ele><time>2026-04-30T23:12:10.132Z</time></trkpt><trkpt lat="43.2673853" lon="7.1095583"><ele>0.0</ele><time>2026-04-30T23:12:11.138Z</time></trkpt><trkpt lat="43.2674457" lon="7.1097942"><ele>0.0</ele><time>2026-04-30T23:12:13.049Z</time></trkpt><trkpt lat="43.2674907" lon="7.1098854"><ele>0.0</ele><time>2026-04-30T23:12:14.049Z</time></trkpt><trkpt lat="43.2675431" lon="7.1099631"><ele>0.0</ele><time>2026-04-30T23:12:15.049Z</time></trkpt><trkpt lat="43.2676024" lon="7.110046"><ele>0.0</ele><time>2026-04-30T23:12:16.049Z</time></trkpt><trkpt lat="43.2676499" lon="7.1101436"><ele>0.0</ele><time>2026-04-30T23:12:17.05Z</time></trkpt><trkpt lat="43.2676722" lon="7.1102343"><ele>0.0</ele><time>2026-04-30T23:12:18.05Z</time></trkpt><trkpt lat="43.2677179" lon="7.1103327"><ele>0.0</ele><time>2026-04-30T23:12:19.05Z</time></trkpt><trkpt lat="43.267765" lon="7.1104292"><ele>0.0</ele><time>2026-04-30T23:12:20.049Z</time></trkpt><trkpt lat="43.2678127" lon="7.1105219"><ele>0.0</ele><time>2026-04-30T23:12:21.05Z</time></trkpt><trkpt lat="43.2678658" lon="7.1106126"><ele>0.0</ele><time>2026-04-30T23:12:22.05Z</time></trkpt><trkpt lat="43.2679181" lon="7.1107056"><ele>0.0</ele><time>2026-04-30T23:12:23.049Z</time></trkpt><trkpt lat="43.2679685" lon="7.1107974"><ele>0.0</ele><time>2026-04-30T23:12:24.049Z</time></trkpt><trkpt lat="43.2680225" lon="7.1108873"><ele>0.0</ele><time>2026-04-30T23:12:25.049Z</time></trkpt><trkpt lat="43.2680719" lon="7.1109804"><ele>0.0</ele><time>2026-04-30T23:12:26.05Z</time></trkpt><trkpt lat="43.2681283" lon="7.1110771"><ele>0.0</ele><time>2026-04-30T23:12:27.049Z</time></trkpt><trkpt lat="43.2681847" lon="7.1111739"><ele>0.0</ele><time>2026-04-30T23:12:28.049Z</time></trkpt><trkpt lat="43.2682357" lon="7.1112663"><ele>0.0</ele><time>2026-04-30T23:12:29.049Z</time></trkpt><trkpt lat="43.2682878" lon="7.1113532"><ele>0.0</ele><time>2026-04-30T23:12:30.05Z</time></trkpt><trkpt lat="43.2683425" lon="7.1114416"><ele>0.0</ele><time>2026-04-30T23:12:31.049Z</time></trkpt><trkpt lat="43.2683891" lon="7.1115312"><ele>0.0</ele><time>2026-04-30T23:12:32.049Z</time></trkpt><trkpt lat="43.268473" lon="7.1116933"><ele>0.0</ele><time>2026-04-30T23:12:35.167Z</time></trkpt><trkpt lat="43.2685304" lon="7.1118776"><ele>0.0</ele><time>2026-04-30T23:12:36.072Z</time></trkpt><trkpt lat="43.2685922" lon="7.1119794"><ele>0.0</ele><time>2026-04-30T23:12:37.078Z</time></trkpt><trkpt lat="43.2686625" lon="7.1120661"><ele>0.0</ele><time>2026-04-30T23:12:38.082Z</time></trkpt><trkpt lat="43.2687258" lon="7.112159"><ele>0.0</ele><time>2026-04-30T23:12:39.089Z</time></trkpt><trkpt lat="43.2687942" lon="7.112242"><ele>0.0</ele><time>2026-04-30T23:12:40.093Z</time></trkpt><trkpt lat="43.2689103" lon="7.1125731"><ele>0.0</ele><time>2026-04-30T23:12:44.116Z</time></trkpt><trkpt lat="43.2689715" lon="7.1126752"><ele>0.0</ele><time>2026-04-30T23:12:45.121Z</time></trkpt><trkpt lat="43.2690441" lon="7.1127567"><ele>0.0</ele><time>2026-04-30T23:12:46.127Z</time></trkpt><trkpt lat="43.2691078" lon="7.1128428"><ele>0.0</ele><time>2026-04-30T23:12:47.132Z</time></trkpt><trkpt lat="43.2691449" lon="7.1129892"><ele>0.0</ele><time>2026-04-30T23:12:49.144Z</time></trkpt><trkpt lat="43.2692379" lon="7.1130702"><ele>0.0</ele><time>2026-04-30T23:12:50.149Z</time></trkpt><trkpt lat="43.2692931" lon="7.1131522"><ele>0.0</ele><time>2026-04-30T23:12:51.155Z</time></trkpt><trkpt lat="43.269313" lon="7.1132717"><ele>0.0</ele><time>2026-04-30T23:12:52.16Z</time></trkpt><trkpt lat="43.2693467" lon="7.1133886"><ele>0.0</ele><time>2026-04-30T23:12:53.166Z</time></trkpt><trkpt lat="43.2695028" lon="7.1136243"><ele>0.0</ele><time>2026-04-30T23:12:56.049Z</time></trkpt><trkpt lat="43.2695472" lon="7.1137152"><ele>0.0</ele><time>2026-04-30T23:12:57.049Z</time></trkpt><trkpt lat="43.2696003" lon="7.1138063"><ele>0.0</ele><time>2026-04-30T23:12:58.05Z</time></trkpt><trkpt lat="43.2696435" lon="7.1139003"><ele>0.0</ele><time>2026-04-30T23:12:59.049Z</time></trkpt><trkpt lat="43.2696832" lon="7.1139987"><ele>0.0</ele><time>2026-04-30T23:13:00.05Z</time></trkpt><trkpt lat="43.2697403" lon="7.1140968"><ele>0.0</ele><time>2026-04-30T23:13:01.049Z</time></trkpt><trkpt lat="43.269793" lon="7.1141825"><ele>0.0</ele><time>2026-04-30T23:13:02.05Z</time></trkpt><trkpt lat="43.2698476" lon="7.1142631"><ele>0.0</ele><time>2026-04-30T23:13:03.05Z</time></trkpt><trkpt lat="43.2698883" lon="7.1143642"><ele>0.0</ele><time>2026-04-30T23:13:04.05Z</time></trkpt><trkpt lat="43.2699307" lon="7.1144602"><ele>0.0</ele><time>2026-04-30T23:13:05.049Z</time></trkpt><trkpt lat="43.2699741" lon="7.1145501"><ele>0.0</ele><time>2026-04-30T23:13:06.049Z</time></trkpt><trkpt lat="43.2700158" lon="7.1146434"><ele>0.0</ele><time>2026-04-30T23:13:07.05Z</time></trkpt><trkpt lat="43.2700603" lon="7.1147443"><ele>0.0</ele><time>2026-04-30T23:13:08.049Z</time></trkpt><trkpt lat="43.2701257" lon="7.1148452"><ele>0.0</ele><time>2026-04-30T23:13:09.049Z</time></trkpt><trkpt lat="43.2701736" lon="7.1149408"><ele>0.0</ele><time>2026-04-30T23:13:10.05Z</time></trkpt><trkpt lat="43.2702034" lon="7.1150517"><ele>0.0</ele><time>2026-04-30T23:13:11.049Z</time></trkpt><trkpt lat="43.2702517" lon="7.1151494"><ele>0.0</ele><time>2026-04-30T23:13:12.049Z</time></trkpt><trkpt lat="43.2702896" lon="7.1152393"><ele>0.0</ele><time>2026-04-30T23:13:13.049Z</time></trkpt><trkpt lat="43.2703386" lon="7.1153321"><ele>0.0</ele><time>2026-04-30T23:13:14.05Z</time></trkpt><trkpt lat="43.2704877" lon="7.1155957"><ele>0.0</ele><time>2026-04-30T23:13:17.05Z</time></trkpt><trkpt lat="43.2705386" lon="7.1156922"><ele>0.0</ele><time>2026-04-30T23:13:18.05Z</time></trkpt><trkpt lat="43.2705901" lon="7.1157852"><ele>0.0</ele><time>2026-04-30T23:13:19.05Z</time></trkpt><trkpt lat="43.2706484" lon="7.1158627"><ele>0.0</ele><time>2026-04-30T23:13:20.049Z</time></trkpt><trkpt lat="43.2706993" lon="7.1159432"><ele>0.0</ele><time>2026-04-30T23:13:21.049Z</time></trkpt><trkpt lat="43.2707517" lon="7.1160217"><ele>0.0</ele><time>2026-04-30T23:13:22.049Z</time></trkpt><trkpt lat="43.2708024" lon="7.1161026"><ele>0.0</ele><time>2026-04-30T23:13:23.05Z</time></trkpt><trkpt lat="43.27084" lon="7.1162041"><ele>0.0</ele><time>2026-04-30T23:13:24.05Z</time></trkpt><trkpt lat="43.2708822" lon="7.1163021"><ele>0.0</ele><time>2026-04-30T23:13:25.049Z</time></trkpt><trkpt lat="43.2709206" lon="7.1164013"><ele>0.0</ele><time>2026-04-30T23:13:26.049Z</time></trkpt><trkpt lat="43.2709539" lon="7.1165073"><ele>0.0</ele><time>2026-04-30T23:13:27.049Z</time></trkpt><trkpt lat="43.2709804" lon="7.1166113"><ele>0.0</ele><time>2026-04-30T23:13:28.049Z</time></trkpt><trkpt lat="43.2710255" lon="7.1167116"><ele>0.0</ele><time>2026-04-30T23:13:29.05Z</time></trkpt><trkpt lat="43.2710697" lon="7.1168075"><ele>0.0</ele><time>2026-04-30T23:13:30.049Z</time></trkpt><trkpt lat="43.2711216" lon="7.1169063"><ele>0.0</ele><time>2026-04-30T23:13:31.05Z</time></trkpt><trkpt lat="43.2711682" lon="7.117008"><ele>0.0</ele><time>2026-04-30T23:13:32.049Z</time></trkpt><trkpt lat="43.2712153" lon="7.1171023"><ele>0.0</ele><time>2026-04-30T23:13:33.049Z</time></trkpt><trkpt lat="43.2712662" lon="7.1171915"><ele>0.0</ele><time>2026-04-30T23:13:34.05Z</time></trkpt><trkpt lat="43.2713031" lon="7.1172748"><ele>0.0</ele><time>2026-04-30T23:13:36.158Z</time></trkpt><trkpt lat="43.2714927" lon="7.1175105"><ele>0.0</ele><time>2026-04-30T23:13:38.17Z</time></trkpt><trkpt lat="43.2715563" lon="7.1176182"><ele>0.0</ele><time>2026-04-30T23:13:39.176Z</time></trkpt><trkpt lat="43.2716015" lon="7.1177244"><ele>0.0</ele><time>2026-04-30T23:13:40.081Z</time></trkpt><trkpt lat="43.2716573" lon="7.1178302"><ele>0.0</ele><time>2026-04-30T23:13:41.086Z</time></trkpt><trkpt lat="43.2717386" lon="7.1179547"><ele>0.0</ele><time>2026-04-30T23:13:43.096Z</time></trkpt><trkpt lat="43.27181" lon="7.1180645"><ele>0.0</ele><time>2026-04-30T23:13:44.103Z</time></trkpt><trkpt lat="43.2718628" lon="7.1181304"><ele>0.0</ele><time>2026-04-30T23:13:45.05Z</time></trkpt><trkpt lat="43.2719104" lon="7.1182161"><ele>0.0</ele><time>2026-04-30T23:13:46.05Z</time></trkpt><trkpt lat="43.271951" lon="7.1183001"><ele>0.0</ele><time>2026-04-30T23:13:47.049Z</time></trkpt><trkpt lat="43.2720196" lon="7.1184898"><ele>0.0</ele><time>2026-04-30T23:13:49.049Z</time></trkpt><trkpt lat="43.2720655" lon="7.1185835"><ele>0.0</ele><time>2026-04-30T23:13:50.05Z</time></trkpt><trkpt lat="43.272107" lon="7.1186789"><ele>0.0</ele><time>2026-04-30T23:13:51.049Z</time></trkpt><trkpt lat="43.27215" lon="7.1187757"><ele>0.0</ele><time>2026-04-30T23:13:52.049Z</time></trkpt><trkpt lat="43.272199" lon="7.1188696"><ele>0.0</ele><time>2026-04-30T23:13:53.049Z</time></trkpt><trkpt lat="43.2722449" lon="7.1189669"><ele>0.0</ele><time>2026-04-30T23:13:54.049Z</time></trkpt><trkpt lat="43.2722932" lon="7.1190685"><ele>0.0</ele><time>2026-04-30T23:13:55.049Z</time></trkpt><trkpt lat="43.2723489" lon="7.119164"><ele>0.0</ele><time>2026-04-30T23:13:56.05Z</time></trkpt><trkpt lat="43.2724018" lon="7.119256"><ele>0.0</ele><time>2026-04-30T23:13:57.05Z</time></trkpt><trkpt lat="43.2725105" lon="7.119444"><ele>0.0</ele><time>2026-04-30T23:13:59.05Z</time></trkpt><trkpt lat="43.2725666" lon="7.1195412"><ele>0.0</ele><time>2026-04-30T23:14:00.05Z</time></trkpt><trkpt lat="43.2726203" lon="7.1196401"><ele>0.0</ele><time>2026-04-30T23:14:01.049Z</time></trkpt><trkpt lat="43.2726764" lon="7.1197327"><ele>0.0</ele><time>2026-04-30T23:14:02.049Z</time></trkpt><trkpt lat="43.2727314" lon="7.1198242"><ele>0.0</ele><time>2026-04-30T23:14:03.049Z</time></trkpt><trkpt lat="43.2727921" lon="7.1199099"><ele>0.0</ele><time>2026-04-30T23:14:04.049Z</time></trkpt><trkpt lat="43.2728484" lon="7.1199968"><ele>0.0</ele><time>2026-04-30T23:14:05.05Z</time></trkpt><trkpt lat="43.2729028" lon="7.1200848"><ele>0.0</ele><time>2026-04-30T23:14:06.05Z</time></trkpt><trkpt lat="43.2729519" lon="7.1201762"><ele>0.0</ele><time>2026-04-30T23:14:07.049Z</time></trkpt><trkpt lat="43.2730013" lon="7.1202641"><ele>0.0</ele><time>2026-04-30T23:14:08.05Z</time></trkpt><trkpt lat="43.273048" lon="7.1203574"><ele>0.0</ele><time>2026-04-30T23:14:09.049Z</time></trkpt><trkpt lat="43.2730992" lon="7.1204461"><ele>0.0</ele><time>2026-04-30T23:14:10.049Z</time></trkpt><trkpt lat="43.2731521" lon="7.120533"><ele>0.0</ele><time>2026-04-30T23:14:11.05Z</time></trkpt><trkpt lat="43.2732012" lon="7.120622"><ele>0.0</ele><time>2026-04-30T23:14:12.049Z</time></trkpt><trkpt lat="43.2732493" lon="7.1207102"><ele>0.0</ele><time>2026-04-30T23:14:13.049Z</time></trkpt><trkpt lat="43.2732951" lon="7.1208041"><ele>0.0</ele><time>2026-04-30T23:14:14.049Z</time></trkpt><trkpt lat="43.2733428" lon="7.1209035"><ele>0.0</ele><time>2026-04-30T23:14:15.049Z</time></trkpt><trkpt lat="43.2733908" lon="7.1210103"><ele>0.0</ele><time>2026-04-30T23:14:16.049Z</time></trkpt><trkpt lat="43.273436" lon="7.1211174"><ele>0.0</ele><time>2026-04-30T23:14:17.049Z</time></trkpt><trkpt lat="43.2734853" lon="7.121217"><ele>0.0</ele><time>2026-04-30T23:14:18.049Z</time></trkpt><trkpt lat="43.2735959" lon="7.121413"><ele>0.0</ele><time>2026-04-30T23:14:20.05Z</time></trkpt><trkpt lat="43.2737136" lon="7.1215872"><ele>0.0</ele><time>2026-04-30T23:14:22.05Z</time></trkpt><trkpt lat="43.2737722" lon="7.1216718"><ele>0.0</ele><time>2026-04-30T23:14:23.05Z</time></trkpt><trkpt lat="43.2738259" lon="7.121757"><ele>0.0</ele><time>2026-04-30T23:14:24.049Z</time></trkpt><trkpt lat="43.2738816" lon="7.1218417"><ele>0.0</ele><time>2026-04-30T23:14:25.05Z</time></trkpt><trkpt lat="43.2739352" lon="7.121927"><ele>0.0</ele><time>2026-04-30T23:14:26.049Z</time></trkpt><trkpt lat="43.2739842" lon="7.1220122"><ele>0.0</ele><time>2026-04-30T23:14:27.05Z</time></trkpt><trkpt lat="43.2740296" lon="7.1220988"><ele>0.0</ele><time>2026-04-30T23:14:28.05Z</time></trkpt><trkpt lat="43.2740716" lon="7.1221827"><ele>0.0</ele><time>2026-04-30T23:14:29.049Z</time></trkpt><trkpt lat="43.274107" lon="7.1222691"><ele>0.0</ele><time>2026-04-30T23:14:30.05Z</time></trkpt><trkpt lat="43.2741418" lon="7.1223558"><ele>0.0</ele><time>2026-04-30T23:14:31.05Z</time></trkpt><trkpt lat="43.274179" lon="7.1224352"><ele>0.0</ele><time>2026-04-30T23:14:32.05Z</time></trkpt><trkpt lat="43.2742171" lon="7.1225159"><ele>0.0</ele><time>2026-04-30T23:14:33.05Z</time></trkpt><trkpt lat="43.2742778" lon="7.1226901"><ele>0.0</ele><time>2026-04-30T23:14:35.049Z</time></trkpt><trkpt lat="43.2743289" lon="7.1227812"><ele>0.0</ele><time>2026-04-30T23:14:36.049Z</time></trkpt><trkpt lat="43.2743738" lon="7.1228703"><ele>0.0</ele><time>2026-04-30T23:14:37.05Z</time></trkpt><trkpt lat="43.2744154" lon="7.1229643"><ele>0.0</ele><time>2026-04-30T23:14:38.05Z</time></trkpt><trkpt lat="43.2744597" lon="7.1230612"><ele>0.0</ele><time>2026-04-30T23:14:39.05Z</time></trkpt><trkpt lat="43.2745422" lon="7.1232423"><ele>0.0</ele><time>2026-04-30T23:14:41.049Z</time></trkpt><trkpt lat="43.2745871" lon="7.1233221"><ele>0.0</ele><time>2026-04-30T23:14:42.05Z</time></trkpt><trkpt lat="43.2746463" lon="7.1234046"><ele>0.0</ele><time>2026-04-30T23:14:43.049Z</time></trkpt><trkpt lat="43.2746954" lon="7.1234918"><ele>0.0</ele><time>2026-04-30T23:14:44.05Z</time></trkpt><trkpt lat="43.2747404" lon="7.123582"><ele>0.0</ele><time>2026-04-30T23:14:45.05Z</time></trkpt><trkpt lat="43.2747969" lon="7.12367"><ele>0.0</ele><time>2026-04-30T23:14:46.049Z</time></trkpt><trkpt lat="43.2748583" lon="7.1237569"><ele>0.0</ele><time>2026-04-30T23:14:47.049Z</time></trkpt><trkpt lat="43.274916" lon="7.123845"><ele>0.0</ele><time>2026-04-30T23:14:48.049Z</time></trkpt><trkpt lat="43.2749767" lon="7.1239322"><ele>0.0</ele><time>2026-04-30T23:14:49.049Z</time></trkpt><trkpt lat="43.2750405" lon="7.1240218"><ele>0.0</ele><time>2026-04-30T23:14:50.049Z</time></trkpt><trkpt lat="43.2750988" lon="7.1241156"><ele>0.0</ele><time>2026-04-30T23:14:51.049Z</time></trkpt><trkpt lat="43.2751518" lon="7.1242108"><ele>0.0</ele><time>2026-04-30T23:14:52.05Z</time></trkpt><trkpt lat="43.2752489" lon="7.124398"><ele>0.0</ele><time>2026-04-30T23:14:54.05Z</time></trkpt><trkpt lat="43.2752988" lon="7.1244877"><ele>0.0</ele><time>2026-04-30T23:14:55.049Z</time></trkpt><trkpt lat="43.2753458" lon="7.1245811"><ele>0.0</ele><time>2026-04-30T23:14:56.05Z</time></trkpt><trkpt lat="43.2753937" lon="7.1246714"><ele>0.0</ele><time>2026-04-30T23:14:57.05Z</time></trkpt><trkpt lat="43.2754463" lon="7.1247614"><ele>0.0</ele><time>2026-04-30T23:14:58.05Z</time></trkpt><trkpt lat="43.2754913" lon="7.1248548"><ele>0.0</ele><time>2026-04-30T23:14:59.05Z</time></trkpt><trkpt lat="43.2755299" lon="7.124945"><ele>0.0</ele><time>2026-04-30T23:15:00.05Z</time></trkpt><trkpt lat="43.2756326" lon="7.1251289"><ele>0.0</ele><time>2026-04-30T23:15:02.049Z</time></trkpt><trkpt lat="43.275682" lon="7.1252199"><ele>0.0</ele><time>2026-04-30T23:15:03.05Z</time></trkpt><trkpt lat="43.2757275" lon="7.1253172"><ele>0.0</ele><time>2026-04-30T23:15:04.05Z</time></trkpt><trkpt lat="43.2757814" lon="7.1254132"><ele>0.0</ele><time>2026-04-30T23:15:05.05Z</time></trkpt><trkpt lat="43.2758294" lon="7.125508"><ele>0.0</ele><time>2026-04-30T23:15:06.049Z</time></trkpt><trkpt lat="43.2758697" lon="7.1256045"><ele>0.0</ele><time>2026-04-30T23:15:07.049Z</time></trkpt><trkpt lat="43.2759165" lon="7.1256952"><ele>0.0</ele><time>2026-04-30T23:15:08.049Z</time></trkpt><trkpt lat="43.2759621" lon="7.1257857"><ele>0.0</ele><time>2026-04-30T23:15:09.049Z</time></trkpt><trkpt lat="43.2760037" lon="7.1258777"><ele>0.0</ele><time>2026-04-30T23:15:10.05Z</time></trkpt><trkpt lat="43.2760484" lon="7.12597"><ele>0.0</ele><time>2026-04-30T23:15:11.05Z</time></trkpt><trkpt lat="43.2760936" lon="7.1260602"><ele>0.0</ele><time>2026-04-30T23:15:12.049Z</time></trkpt><trkpt lat="43.2761387" lon="7.1261467"><ele>0.0</ele><time>2026-04-30T23:15:13.049Z</time></trkpt><trkpt lat="43.2761835" lon="7.1262287"><ele>0.0</ele><time>2026-04-30T23:15:14.05Z</time></trkpt><trkpt lat="43.2762338" lon="7.1263105"><ele>0.0</ele><time>2026-04-30T23:15:15.05Z</time></trkpt><trkpt lat="43.2762846" lon="7.1263932"><ele>0.0</ele><time>2026-04-30T23:15:16.049Z</time></trkpt><trkpt lat="43.2763324" lon="7.1264835"><ele>0.0</ele><time>2026-04-30T23:15:17.049Z</time></trkpt><trkpt lat="43.2763794" lon="7.1265744"><ele>0.0</ele><time>2026-04-30T23:15:18.05Z</time></trkpt><trkpt lat="43.2764849" lon="7.1265862"><ele>0.0</ele><time>2026-04-30T23:15:21.074Z</time></trkpt><trkpt lat="43.2766439" lon="7.1269821"><ele>0.0</ele><time>2026-04-30T23:15:23.085Z</time></trkpt><trkpt lat="43.2767064" lon="7.127093"><ele>0.0</ele><time>2026-04-30T23:15:24.09Z</time></trkpt><trkpt lat="43.2767464" lon="7.1272139"><ele>0.0</ele><time>2026-04-30T23:15:25.097Z</time></trkpt><trkpt lat="43.2767382" lon="7.1273657"><ele>0.0</ele><time>2026-04-30T23:15:27.107Z</time></trkpt><trkpt lat="43.2768161" lon="7.1274685"><ele>0.0</ele><time>2026-04-30T23:15:28.113Z</time></trkpt><trkpt lat="43.2768754" lon="7.1275692"><ele>0.0</ele><time>2026-04-30T23:15:29.118Z</time></trkpt><trkpt lat="43.2769181" lon="7.1276746"><ele>0.0</ele><time>2026-04-30T23:15:30.124Z</time></trkpt><trkpt lat="43.2769604" lon="7.1277785"><ele>0.0</ele><time>2026-04-30T23:15:31.129Z</time></trkpt><trkpt lat="43.2770051" lon="7.1278802"><ele>0.0</ele><time>2026-04-30T23:15:32.135Z</time></trkpt><trkpt lat="43.2770644" lon="7.1279666"><ele>0.0</ele><time>2026-04-30T23:15:33.141Z</time></trkpt><trkpt lat="43.2771308" lon="7.1280416"><ele>0.0</ele><time>2026-04-30T23:15:34.146Z</time></trkpt><trkpt lat="43.2772011" lon="7.1281075"><ele>0.0</ele><time>2026-04-30T23:15:35.152Z</time></trkpt><trkpt lat="43.277252" lon="7.128188"><ele>0.0</ele><time>2026-04-30T23:15:36.158Z</time></trkpt><trkpt lat="43.2772697" lon="7.1282954"><ele>0.0</ele><time>2026-04-30T23:15:37.163Z</time></trkpt><trkpt lat="43.2773454" lon="7.1283989"><ele>0.0</ele><time>2026-04-30T23:15:39.073Z</time></trkpt><trkpt lat="43.2774217" lon="7.1285027"><ele>0.0</ele><time>2026-04-30T23:15:40.08Z</time></trkpt><trkpt lat="43.2774847" lon="7.1285992"><ele>0.0</ele><time>2026-04-30T23:15:41.085Z</time></trkpt><trkpt lat="43.2776061" lon="7.1287485"><ele>0.0</ele><time>2026-04-30T23:15:43.096Z</time></trkpt><trkpt lat="43.2776623" lon="7.1288334"><ele>0.0</ele><time>2026-04-30T23:15:44.101Z</time></trkpt><trkpt lat="43.2777082" lon="7.1289383"><ele>0.0</ele><time>2026-04-30T23:15:45.106Z</time></trkpt><trkpt lat="43.2777497" lon="7.1290437"><ele>0.0</ele><time>2026-04-30T23:15:46.112Z</time></trkpt><trkpt lat="43.2777929" lon="7.12915"><ele>0.0</ele><time>2026-04-30T23:15:47.119Z</time></trkpt><trkpt lat="43.2778422" lon="7.1292544"><ele>0.0</ele><time>2026-04-30T23:15:48.123Z</time></trkpt><trkpt lat="43.2779046" lon="7.1293423"><ele>0.0</ele><time>2026-04-30T23:15:49.13Z</time></trkpt><trkpt lat="43.277977" lon="7.1294065"><ele>0.0</ele><time>2026-04-30T23:15:50.134Z</time></trkpt><trkpt lat="43.2779843" lon="7.1295313"><ele>0.0</ele><time>2026-04-30T23:15:52.145Z</time></trkpt><trkpt lat="43.2780594" lon="7.1296342"><ele>0.0</ele><time>2026-04-30T23:15:53.152Z</time></trkpt><trkpt lat="43.2781147" lon="7.1297218"><ele>0.0</ele><time>2026-04-30T23:15:54.157Z</time></trkpt><trkpt lat="43.2781651" lon="7.1298119"><ele>0.0</ele><time>2026-04-30T23:15:55.063Z</time></trkpt><trkpt lat="43.278222" lon="7.1299279"><ele>0.0</ele><time>2026-04-30T23:15:56.169Z</time></trkpt><trkpt lat="43.2782756" lon="7.1300283"><ele>0.0</ele><time>2026-04-30T23:15:57.074Z</time></trkpt><trkpt lat="43.2783676" lon="7.130271"><ele>0.0</ele><time>2026-04-30T23:15:59.085Z</time></trkpt><trkpt lat="43.2784097" lon="7.1303393"><ele>0.0</ele><time>2026-04-30T23:16:00.049Z</time></trkpt><trkpt lat="43.2784364" lon="7.1304278"><ele>0.0</ele><time>2026-04-30T23:16:01.095Z</time></trkpt><trkpt lat="43.278515" lon="7.1305419"><ele>0.0</ele><time>2026-04-30T23:16:02.1Z</time></trkpt><trkpt lat="43.2786054" lon="7.1307778"><ele>0.0</ele><time>2026-04-30T23:16:04.113Z</time></trkpt><trkpt lat="43.2786529" lon="7.130882"><ele>0.0</ele><time>2026-04-30T23:16:05.117Z</time></trkpt><trkpt lat="43.2787149" lon="7.1310245"><ele>0.0</ele><time>2026-04-30T23:16:07.128Z</time></trkpt><trkpt lat="43.2787958" lon="7.1311288"><ele>0.0</ele><time>2026-04-30T23:16:08.134Z</time></trkpt><trkpt lat="43.2788553" lon="7.1312167"><ele>0.0</ele><time>2026-04-30T23:16:09.14Z</time></trkpt><trkpt lat="43.2789119" lon="7.1313043"><ele>0.0</ele><time>2026-04-30T23:16:10.145Z</time></trkpt><trkpt lat="43.2789639" lon="7.1314087"><ele>0.0</ele><time>2026-04-30T23:16:11.15Z</time></trkpt><trkpt lat="43.2790105" lon="7.1315086"><ele>0.0</ele><time>2026-04-30T23:16:12.157Z</time></trkpt><trkpt lat="43.2790663" lon="7.1316208"><ele>0.0</ele><time>2026-04-30T23:16:14.048Z</time></trkpt><trkpt lat="43.2791198" lon="7.1316979"><ele>0.0</ele><time>2026-04-30T23:16:15.049Z</time></trkpt><trkpt lat="43.2791727" lon="7.1317884"><ele>0.0</ele><time>2026-04-30T23:16:16.049Z</time></trkpt><trkpt lat="43.2792317" lon="7.1318757"><ele>0.0</ele><time>2026-04-30T23:16:17.048Z</time></trkpt><trkpt lat="43.279293" lon="7.1319648"><ele>0.0</ele><time>2026-04-30T23:16:18.049Z</time></trkpt><trkpt lat="43.2793497" lon="7.1320545"><ele>0.0</ele><time>2026-04-30T23:16:19.048Z</time></trkpt><trkpt lat="43.279403" lon="7.1321442"><ele>0.0</ele><time>2026-04-30T23:16:20.049Z</time></trkpt><trkpt lat="43.2794512" lon="7.1322397"><ele>0.0</ele><time>2026-04-30T23:16:21.049Z</time></trkpt><trkpt lat="43.279498" lon="7.1323324"><ele>0.0</ele><time>2026-04-30T23:16:22.048Z</time></trkpt><trkpt lat="43.2795446" lon="7.1324239"><ele>0.0</ele><time>2026-04-30T23:16:23.048Z</time></trkpt><trkpt lat="43.2796371" lon="7.1326123"><ele>0.0</ele><time>2026-04-30T23:16:25.048Z</time></trkpt><trkpt lat="43.2796889" lon="7.1327046"><ele>0.0</ele><time>2026-04-30T23:16:26.049Z</time></trkpt><trkpt lat="43.2797533" lon="7.1327778"><ele>0.0</ele><time>2026-04-30T23:16:27.048Z</time></trkpt><trkpt lat="43.2798002" lon="7.1328671"><ele>0.0</ele><time>2026-04-30T23:16:28.048Z</time></trkpt><trkpt lat="43.279848" lon="7.1329573"><ele>0.0</ele><time>2026-04-30T23:16:29.048Z</time></trkpt><trkpt lat="43.2799194" lon="7.1331507"><ele>0.0</ele><time>2026-04-30T23:16:31.048Z</time></trkpt><trkpt lat="43.2799632" lon="7.1332436"><ele>0.0</ele><time>2026-04-30T23:16:32.048Z</time></trkpt><trkpt lat="43.2800078" lon="7.1333328"><ele>0.0</ele><time>2026-04-30T23:16:33.049Z</time></trkpt><trkpt lat="43.2800565" lon="7.1334212"><ele>0.0</ele><time>2026-04-30T23:16:34.048Z</time></trkpt><trkpt lat="43.280089" lon="7.1335027"><ele>0.0</ele><time>2026-04-30T23:16:36.07Z</time></trkpt><trkpt lat="43.2801494" lon="7.1336437"><ele>0.0</ele><time>2026-04-30T23:16:37.177Z</time></trkpt><trkpt lat="43.280195" lon="7.1337541"><ele>0.0</ele><time>2026-04-30T23:16:38.082Z</time></trkpt><trkpt lat="43.2802431" lon="7.133861"><ele>0.0</ele><time>2026-04-30T23:16:39.088Z</time></trkpt><trkpt lat="43.2803005" lon="7.1339659"><ele>0.0</ele><time>2026-04-30T23:16:40.092Z</time></trkpt><trkpt lat="43.2803577" lon="7.1340704"><ele>0.0</ele><time>2026-04-30T23:16:41.099Z</time></trkpt><trkpt lat="43.2804061" lon="7.1341765"><ele>0.0</ele><time>2026-04-30T23:16:42.103Z</time></trkpt><trkpt lat="43.2804572" lon="7.1342808"><ele>0.0</ele><time>2026-04-30T23:16:43.11Z</time></trkpt><trkpt lat="43.2805135" lon="7.1343845"><ele>0.0</ele><time>2026-04-30T23:16:44.115Z</time></trkpt><trkpt lat="43.2806418" lon="7.1345737"><ele>0.0</ele><time>2026-04-30T23:16:46.126Z</time></trkpt><trkpt lat="43.2806997" lon="7.1346673"><ele>0.0</ele><time>2026-04-30T23:16:47.132Z</time></trkpt><trkpt lat="43.280746" lon="7.1347644"><ele>0.0</ele><time>2026-04-30T23:16:48.137Z</time></trkpt><trkpt lat="43.2807881" lon="7.1348643"><ele>0.0</ele><time>2026-04-30T23:16:49.142Z</time></trkpt><trkpt lat="43.2808521" lon="7.1350069"><ele>0.0</ele><time>2026-04-30T23:16:51.153Z</time></trkpt><trkpt lat="43.2809332" lon="7.1351187"><ele>0.0</ele><time>2026-04-30T23:16:52.16Z</time></trkpt><trkpt lat="43.2809943" lon="7.1352198"><ele>0.0</ele><time>2026-04-30T23:16:53.165Z</time></trkpt><trkpt lat="43.281045" lon="7.13532"><ele>0.0</ele><time>2026-04-30T23:16:54.17Z</time></trkpt><trkpt lat="43.2811025" lon="7.1354164"><ele>0.0</ele><time>2026-04-30T23:16:55.176Z</time></trkpt><trkpt lat="43.2811483" lon="7.1355044"><ele>0.0</ele><time>2026-04-30T23:16:56.081Z</time></trkpt><trkpt lat="43.2811947" lon="7.1355985"><ele>0.0</ele><time>2026-04-30T23:16:57.086Z</time></trkpt><trkpt lat="43.2812416" lon="7.1356925"><ele>0.0</ele><time>2026-04-30T23:16:58.092Z</time></trkpt><trkpt lat="43.2812951" lon="7.135787"><ele>0.0</ele><time>2026-04-30T23:16:59.097Z</time></trkpt><trkpt lat="43.2813422" lon="7.1358904"><ele>0.0</ele><time>2026-04-30T23:17:00.104Z</time></trkpt><trkpt lat="43.281436" lon="7.1361557"><ele>0.0</ele><time>2026-04-30T23:17:03.12Z</time></trkpt><trkpt lat="43.2814953" lon="7.1362549"><ele>0.0</ele><time>2026-04-30T23:17:04.125Z</time></trkpt><trkpt lat="43.2815286" lon="7.1363579"><ele>0.0</ele><time>2026-04-30T23:17:05.131Z</time></trkpt><trkpt lat="43.2816049" lon="7.1365673"><ele>0.0</ele><time>2026-04-30T23:17:07.142Z</time></trkpt><trkpt lat="43.2816536" lon="7.1366576"><ele>0.0</ele><time>2026-04-30T23:17:08.149Z</time></trkpt><trkpt lat="43.2817019" lon="7.1367432"><ele>0.0</ele><time>2026-04-30T23:17:09.154Z</time></trkpt><trkpt lat="43.2817212" lon="7.1368611"><ele>0.0</ele><time>2026-04-30T23:17:11.165Z</time></trkpt><trkpt lat="43.2817409" lon="7.1369888"><ele>0.0</ele><time>2026-04-30T23:17:12.07Z</time></trkpt><trkpt lat="43.2818024" lon="7.1370859"><ele>0.0</ele><time>2026-04-30T23:17:13.175Z</time></trkpt><trkpt lat="43.2818736" lon="7.137141"><ele>0.0</ele><time>2026-04-30T23:17:14.08Z</time></trkpt><trkpt lat="43.2819125" lon="7.1372571"><ele>0.0</ele><time>2026-04-30T23:17:16.093Z</time></trkpt><trkpt lat="43.2819727" lon="7.1373583"><ele>0.0</ele><time>2026-04-30T23:17:17.098Z</time></trkpt><trkpt lat="43.2820352" lon="7.1374466"><ele>0.0</ele><time>2026-04-30T23:17:18.104Z</time></trkpt><trkpt lat="43.2821192" lon="7.1375184"><ele>0.0</ele><time>2026-04-30T23:17:19.109Z</time></trkpt><trkpt lat="43.2822027" lon="7.137606"><ele>0.0</ele><time>2026-04-30T23:17:20.115Z</time></trkpt><trkpt lat="43.2822685" lon="7.1377094"><ele>0.0</ele><time>2026-04-30T23:17:21.119Z</time></trkpt><trkpt lat="43.282301" lon="7.13782"><ele>0.0</ele><time>2026-04-30T23:17:22.126Z</time></trkpt><trkpt lat="43.282331" lon="7.1379176"><ele>0.0</ele><time>2026-04-30T23:17:23.131Z</time></trkpt><trkpt lat="43.2823634" lon="7.1380158"><ele>0.0</ele><time>2026-04-30T23:17:24.137Z</time></trkpt><trkpt lat="43.2824166" lon="7.138097"><ele>0.0</ele><time>2026-04-30T23:17:25.143Z</time></trkpt><trkpt lat="43.2824886" lon="7.1381638"><ele>0.0</ele><time>2026-04-30T23:17:26.147Z</time></trkpt><trkpt lat="43.2825745" lon="7.1383877"><ele>0.0</ele><time>2026-04-30T23:17:29.164Z</time></trkpt><trkpt lat="43.2826319" lon="7.1384852"><ele>0.0</ele><time>2026-04-30T23:17:30.069Z</time></trkpt><trkpt lat="43.2826766" lon="7.1385906"><ele>0.0</ele><time>2026-04-30T23:17:31.075Z</time></trkpt><trkpt lat="43.2827055" lon="7.1387008"><ele>0.0</ele><time>2026-04-30T23:17:32.081Z</time></trkpt><trkpt lat="43.2827499" lon="7.1388051"><ele>0.0</ele><time>2026-04-30T23:17:33.087Z</time></trkpt><trkpt lat="43.2828679" lon="7.1389947"><ele>0.0</ele><time>2026-04-30T23:17:35.097Z</time></trkpt><trkpt lat="43.2829218" lon="7.1390859"><ele>0.0</ele><time>2026-04-30T23:17:36.102Z</time></trkpt><trkpt lat="43.2829821" lon="7.1391742"><ele>0.0</ele><time>2026-04-30T23:17:37.108Z</time></trkpt><trkpt lat="43.2830339" lon="7.1392634"><ele>0.0</ele><time>2026-04-30T23:17:38.115Z</time></trkpt><trkpt lat="43.2830907" lon="7.1393578"><ele>0.0</ele><time>2026-04-30T23:17:39.119Z</time></trkpt><trkpt lat="43.283187" lon="7.1394137"><ele>0.0</ele><time>2026-04-30T23:17:40.126Z</time></trkpt><trkpt lat="43.2832616" lon="7.1395011"><ele>0.0</ele><time>2026-04-30T23:17:41.131Z</time></trkpt><trkpt lat="43.2833393" lon="7.1395839"><ele>0.0</ele><time>2026-04-30T23:17:42.136Z</time></trkpt><trkpt lat="43.2834027" lon="7.1396746"><ele>0.0</ele><time>2026-04-30T23:17:43.141Z</time></trkpt><trkpt lat="43.2834477" lon="7.1397898"><ele>0.0</ele><time>2026-04-30T23:17:44.148Z</time></trkpt><trkpt lat="43.2834802" lon="7.1399063"><ele>0.0</ele><time>2026-04-30T23:17:45.154Z</time></trkpt><trkpt lat="43.283526" lon="7.1400068"><ele>0.0</ele><time>2026-04-30T23:17:46.159Z</time></trkpt><trkpt lat="43.2835751" lon="7.140097"><ele>0.0</ele><time>2026-04-30T23:17:47.165Z</time></trkpt><trkpt lat="43.2836546" lon="7.1402808"><ele>0.0</ele><time>2026-04-30T23:17:49.075Z</time></trkpt><trkpt lat="43.2836908" lon="7.1403704"><ele>0.0</ele><time>2026-04-30T23:17:50.081Z</time></trkpt><trkpt lat="43.2837319" lon="7.1404585"><ele>0.0</ele><time>2026-04-30T23:17:51.086Z</time></trkpt><trkpt lat="43.2837832" lon="7.1405483"><ele>0.0</ele><time>2026-04-30T23:17:52.091Z</time></trkpt><trkpt lat="43.2838077" lon="7.1406671"><ele>0.0</ele><time>2026-04-30T23:17:54.103Z</time></trkpt><trkpt lat="43.2838688" lon="7.1407769"><ele>0.0</ele><time>2026-04-30T23:17:55.108Z</time></trkpt><trkpt lat="43.2839415" lon="7.1408666"><ele>0.0</ele><time>2026-04-30T23:17:56.114Z</time></trkpt><trkpt lat="43.2840047" lon="7.1409575"><ele>0.0</ele><time>2026-04-30T23:17:57.119Z</time></trkpt><trkpt lat="43.2840451" lon="7.1410619"><ele>0.0</ele><time>2026-04-30T23:17:58.049Z</time></trkpt><trkpt lat="43.2840935" lon="7.1411579"><ele>0.0</ele><time>2026-04-30T23:17:59.048Z</time></trkpt><trkpt lat="43.2841448" lon="7.1412531"><ele>0.0</ele><time>2026-04-30T23:18:00.048Z</time></trkpt><trkpt lat="43.2841967" lon="7.1413469"><ele>0.0</ele><time>2026-04-30T23:18:01.049Z</time></trkpt><trkpt lat="43.2842524" lon="7.1414374"><ele>0.0</ele><time>2026-04-30T23:18:02.049Z</time></trkpt><trkpt lat="43.2843002" lon="7.1415282"><ele>0.0</ele><time>2026-04-30T23:18:03.049Z</time></trkpt><trkpt lat="43.2843481" lon="7.1416181"><ele>0.0</ele><time>2026-04-30T23:18:04.049Z</time></trkpt><trkpt lat="43.2843951" lon="7.1417112"><ele>0.0</ele><time>2026-04-30T23:18:05.048Z</time></trkpt><trkpt lat="43.2844931" lon="7.1418963"><ele>0.0</ele><time>2026-04-30T23:18:07.048Z</time></trkpt><trkpt lat="43.284546" lon="7.1419874"><ele>0.0</ele><time>2026-04-30T23:18:08.049Z</time></trkpt><trkpt lat="43.2846854" lon="7.1421648"><ele>0.0</ele><time>2026-04-30T23:18:10.049Z</time></trkpt><trkpt lat="43.2847402" lon="7.1422477"><ele>0.0</ele><time>2026-04-30T23:18:11.049Z</time></trkpt><trkpt lat="43.2847903" lon="7.1423303"><ele>0.0</ele><time>2026-04-30T23:18:12.049Z</time></trkpt><trkpt lat="43.2848382" lon="7.1424181"><ele>0.0</ele><time>2026-04-30T23:18:13.049Z</time></trkpt><trkpt lat="43.2848821" lon="7.1425054"><ele>0.0</ele><time>2026-04-30T23:18:14.049Z</time></trkpt><trkpt lat="43.2849268" lon="7.142592"><ele>0.0</ele><time>2026-04-30T23:18:15.048Z</time></trkpt><trkpt lat="43.2849776" lon="7.142673"><ele>0.0</ele><time>2026-04-30T23:18:16.049Z</time></trkpt><trkpt lat="43.2850192" lon="7.1427488"><ele>0.0</ele><time>2026-04-30T23:18:17.048Z</time></trkpt><trkpt lat="43.2850504" lon="7.1428273"><ele>0.0</ele><time>2026-04-30T23:18:18.048Z</time></trkpt><trkpt lat="43.2851614" lon="7.1430209"><ele>0.0</ele><time>2026-04-30T23:18:21.148Z</time></trkpt><trkpt lat="43.2852295" lon="7.1431208"><ele>0.0</ele><time>2026-04-30T23:18:22.154Z</time></trkpt><trkpt lat="43.2852751" lon="7.1432421"><ele>0.0</ele><time>2026-04-30T23:18:23.159Z</time></trkpt><trkpt lat="43.2853358" lon="7.143353"><ele>0.0</ele><time>2026-04-30T23:18:24.165Z</time></trkpt><trkpt lat="43.2853989" lon="7.1434447"><ele>0.0</ele><time>2026-04-30T23:18:25.069Z</time></trkpt><trkpt lat="43.2854534" lon="7.1435454"><ele>0.0</ele><time>2026-04-30T23:18:26.076Z</time></trkpt><trkpt lat="43.2854972" lon="7.143653"><ele>0.0</ele><time>2026-04-30T23:18:27.082Z</time></trkpt><trkpt lat="43.2855424" lon="7.1437512"><ele>0.0</ele><time>2026-04-30T23:18:28.086Z</time></trkpt><trkpt lat="43.2856023" lon="7.143835"><ele>0.0</ele><time>2026-04-30T23:18:29.092Z</time></trkpt><trkpt lat="43.2857022" lon="7.1440805"><ele>0.0</ele><time>2026-04-30T23:18:32.108Z</time></trkpt><trkpt lat="43.2857323" lon="7.1442084"><ele>0.0</ele><time>2026-04-30T23:18:33.114Z</time></trkpt><trkpt lat="43.2857896" lon="7.1443138"><ele>0.0</ele><time>2026-04-30T23:18:34.12Z</time></trkpt><trkpt lat="43.2858567" lon="7.1443971"><ele>0.0</ele><time>2026-04-30T23:18:35.126Z</time></trkpt><trkpt lat="43.2859282" lon="7.1444814"><ele>0.0</ele><time>2026-04-30T23:18:36.131Z</time></trkpt><trkpt lat="43.2859625" lon="7.1445585"><ele>0.0</ele><time>2026-04-30T23:18:37.049Z</time></trkpt><trkpt lat="43.2859924" lon="7.1446481"><ele>0.0</ele><time>2026-04-30T23:18:38.143Z</time></trkpt><trkpt lat="43.2861482" lon="7.1448197"><ele>0.0</ele><time>2026-04-30T23:18:40.048Z</time></trkpt><trkpt lat="43.2862057" lon="7.1449057"><ele>0.0</ele><time>2026-04-30T23:18:41.049Z</time></trkpt><trkpt lat="43.2862607" lon="7.144989"><ele>0.0</ele><time>2026-04-30T23:18:42.048Z</time></trkpt><trkpt lat="43.2863164" lon="7.145072"><ele>0.0</ele><time>2026-04-30T23:18:43.049Z</time></trkpt><trkpt lat="43.2863657" lon="7.1451556"><ele>0.0</ele><time>2026-04-30T23:18:44.048Z</time></trkpt><trkpt lat="43.2864106" lon="7.1452357"><ele>0.0</ele><time>2026-04-30T23:18:45.049Z</time></trkpt><trkpt lat="43.2864539" lon="7.1453097"><ele>0.0</ele><time>2026-04-30T23:18:46.049Z</time></trkpt><trkpt lat="43.2865017" lon="7.1453827"><ele>0.0</ele><time>2026-04-30T23:18:47.049Z</time></trkpt><trkpt lat="43.2865527" lon="7.1454658"><ele>0.0</ele><time>2026-04-30T23:18:48.048Z</time></trkpt><trkpt lat="43.2866067" lon="7.1455525"><ele>0.0</ele><time>2026-04-30T23:18:49.048Z</time></trkpt><trkpt lat="43.2866595" lon="7.1456442"><ele>0.0</ele><time>2026-04-30T23:18:50.049Z</time></trkpt><trkpt lat="43.2867591" lon="7.1458238"><ele>0.0</ele><time>2026-04-30T23:18:52.048Z</time></trkpt><trkpt lat="43.2868126" lon="7.1459125"><ele>0.0</ele><time>2026-04-30T23:18:53.049Z</time></trkpt><trkpt lat="43.2868634" lon="7.1459997"><ele>0.0</ele><time>2026-04-30T23:18:54.049Z</time></trkpt><trkpt lat="43.2869161" lon="7.1460862"><ele>0.0</ele><time>2026-04-30T23:18:55.048Z</time></trkpt><trkpt lat="43.2869652" lon="7.1461695"><ele>0.0</ele><time>2026-04-30T23:18:56.048Z</time></trkpt><trkpt lat="43.2870235" lon="7.1462543"><ele>0.0</ele><time>2026-04-30T23:18:57.049Z</time></trkpt><trkpt lat="43.2870819" lon="7.1463375"><ele>0.0</ele><time>2026-04-30T23:18:58.049Z</time></trkpt><trkpt lat="43.2871305" lon="7.1464241"><ele>0.0</ele><time>2026-04-30T23:18:59.048Z</time></trkpt><trkpt lat="43.2871814" lon="7.1465053"><ele>0.0</ele><time>2026-04-30T23:19:00.048Z</time></trkpt><trkpt lat="43.2872218" lon="7.1465982"><ele>0.0</ele><time>2026-04-30T23:19:01.048Z</time></trkpt><trkpt lat="43.2872612" lon="7.1466909"><ele>0.0</ele><time>2026-04-30T23:19:02.048Z</time></trkpt><trkpt lat="43.2872991" lon="7.1467853"><ele>0.0</ele><time>2026-04-30T23:19:03.048Z</time></trkpt><trkpt lat="43.2873141" lon="7.1468947"><ele>0.0</ele><time>2026-04-30T23:19:04.048Z</time></trkpt><trkpt lat="43.2873394" lon="7.1469892"><ele>0.0</ele><time>2026-04-30T23:19:05.048Z</time></trkpt><trkpt lat="43.2873813" lon="7.1470818"><ele>0.0</ele><time>2026-04-30T23:19:06.049Z</time></trkpt><trkpt lat="43.2874277" lon="7.1471734"><ele>0.0</ele><time>2026-04-30T23:19:07.049Z</time></trkpt><trkpt lat="43.2874751" lon="7.147262"><ele>0.0</ele><time>2026-04-30T23:19:08.049Z</time></trkpt><trkpt lat="43.2875259" lon="7.1473484"><ele>0.0</ele><time>2026-04-30T23:19:09.048Z</time></trkpt><trkpt lat="43.287578" lon="7.147435"><ele>0.0</ele><time>2026-04-30T23:19:10.049Z</time></trkpt><trkpt lat="43.287747" lon="7.1477135"><ele>0.0</ele><time>2026-04-30T23:19:13.048Z</time></trkpt><trkpt lat="43.2878068" lon="7.1478094"><ele>0.0</ele><time>2026-04-30T23:19:14.048Z</time></trkpt><trkpt lat="43.2878668" lon="7.1479021"><ele>0.0</ele><time>2026-04-30T23:19:15.049Z</time></trkpt><trkpt lat="43.2879197" lon="7.1479917"><ele>0.0</ele><time>2026-04-30T23:19:16.049Z</time></trkpt><trkpt lat="43.2879684" lon="7.1480801"><ele>0.0</ele><time>2026-04-30T23:19:17.049Z</time></trkpt><trkpt lat="43.2880235" lon="7.1481698"><ele>0.0</ele><time>2026-04-30T23:19:18.048Z</time></trkpt><trkpt lat="43.2880763" lon="7.1482626"><ele>0.0</ele><time>2026-04-30T23:19:19.049Z</time></trkpt><trkpt lat="43.2881271" lon="7.1484353"><ele>0.0</ele><time>2026-04-30T23:19:21.049Z</time></trkpt><trkpt lat="43.2881951" lon="7.1485294"><ele>0.0</ele><time>2026-04-30T23:19:22.048Z</time></trkpt><trkpt lat="43.2882511" lon="7.1486223"><ele>0.0</ele><time>2026-04-30T23:19:23.049Z</time></trkpt><trkpt lat="43.2883076" lon="7.1487085"><ele>0.0</ele><time>2026-04-30T23:19:24.049Z</time></trkpt><trkpt lat="43.2883543" lon="7.14879"><ele>0.0</ele><time>2026-04-30T23:19:25.048Z</time></trkpt><trkpt lat="43.2883948" lon="7.1488781"><ele>0.0</ele><time>2026-04-30T23:19:26.049Z</time></trkpt><trkpt lat="43.2884259" lon="7.1489715"><ele>0.0</ele><time>2026-04-30T23:19:27.048Z</time></trkpt><trkpt lat="43.288464" lon="7.1490614"><ele>0.0</ele><time>2026-04-30T23:19:28.048Z</time></trkpt><trkpt lat="43.2885081" lon="7.1491446"><ele>0.0</ele><time>2026-04-30T23:19:29.049Z</time></trkpt><trkpt lat="43.2885289" lon="7.1492264"><ele>0.0</ele><time>2026-04-30T23:19:30.048Z</time></trkpt><trkpt lat="43.2885674" lon="7.1493077"><ele>0.0</ele><time>2026-04-30T23:19:31.049Z</time></trkpt><trkpt lat="43.2886196" lon="7.1493937"><ele>0.0</ele><time>2026-04-30T23:19:32.048Z</time></trkpt><trkpt lat="43.2887275" lon="7.1495674"><ele>0.0</ele><time>2026-04-30T23:19:34.049Z</time></trkpt><trkpt lat="43.2887807" lon="7.1496521"><ele>0.0</ele><time>2026-04-30T23:19:35.049Z</time></trkpt><trkpt lat="43.2888384" lon="7.1497392"><ele>0.0</ele><time>2026-04-30T23:19:36.049Z</time></trkpt><trkpt lat="43.28889" lon="7.1498286"><ele>0.0</ele><time>2026-04-30T23:19:37.049Z</time></trkpt><trkpt lat="43.2889355" lon="7.1499222"><ele>0.0</ele><time>2026-04-30T23:19:38.048Z</time></trkpt><trkpt lat="43.2889888" lon="7.1500062"><ele>0.0</ele><time>2026-04-30T23:19:39.048Z</time></trkpt><trkpt lat="43.2890421" lon="7.1500874"><ele>0.0</ele><time>2026-04-30T23:19:40.049Z</time></trkpt><trkpt lat="43.2890901" lon="7.1501733"><ele>0.0</ele><time>2026-04-30T23:19:41.048Z</time></trkpt><trkpt lat="43.2891624" lon="7.1502591"><ele>0.0</ele><time>2026-04-30T23:19:42.049Z</time></trkpt><trkpt lat="43.2892236" lon="7.1503472"><ele>0.0</ele><time>2026-04-30T23:19:43.049Z</time></trkpt><trkpt lat="43.2892844" lon="7.1504325"><ele>0.0</ele><time>2026-04-30T23:19:44.048Z</time></trkpt><trkpt lat="43.289348" lon="7.1505211"><ele>0.0</ele><time>2026-04-30T23:19:45.048Z</time></trkpt><trkpt lat="43.2894018" lon="7.1506099"><ele>0.0</ele><time>2026-04-30T23:19:46.049Z</time></trkpt><trkpt lat="43.2894514" lon="7.1506981"><ele>0.0</ele><time>2026-04-30T23:19:47.049Z</time></trkpt><trkpt lat="43.289494" lon="7.150788"><ele>0.0</ele><time>2026-04-30T23:19:48.048Z</time></trkpt><trkpt lat="43.289537" lon="7.1508809"><ele>0.0</ele><time>2026-04-30T23:19:49.048Z</time></trkpt><trkpt lat="43.2895842" lon="7.1509742"><ele>0.0</ele><time>2026-04-30T23:19:50.049Z</time></trkpt><trkpt lat="43.2896324" lon="7.1510686"><ele>0.0</ele><time>2026-04-30T23:19:51.048Z</time></trkpt><trkpt lat="43.2896832" lon="7.1511638"><ele>0.0</ele><time>2026-04-30T23:19:52.048Z</time></trkpt><trkpt lat="43.2897209" lon="7.1512632"><ele>0.0</ele><time>2026-04-30T23:19:53.048Z</time></trkpt><trkpt lat="43.2898239" lon="7.1514322"><ele>0.0</ele><time>2026-04-30T23:19:55.048Z</time></trkpt><trkpt lat="43.289885" lon="7.1515238"><ele>0.0</ele><time>2026-04-30T23:19:56.048Z</time></trkpt><trkpt lat="43.2899453" lon="7.1516175"><ele>0.0</ele><time>2026-04-30T23:19:57.048Z</time></trkpt><trkpt lat="43.2900026" lon="7.1517121"><ele>0.0</ele><time>2026-04-30T23:19:58.048Z</time></trkpt><trkpt lat="43.2900555" lon="7.1518076"><ele>0.0</ele><time>2026-04-30T23:19:59.049Z</time></trkpt><trkpt lat="43.2900605" lon="7.1519154"><ele>0.0</ele><time>2026-04-30T23:20:00.048Z</time></trkpt><trkpt lat="43.2900784" lon="7.1520269"><ele>0.0</ele><time>2026-04-30T23:20:01.048Z</time></trkpt><trkpt lat="43.290122" lon="7.1521208"><ele>0.0</ele><time>2026-04-30T23:20:02.048Z</time></trkpt><trkpt lat="43.2901687" lon="7.1522082"><ele>0.0</ele><time>2026-04-30T23:20:03.049Z</time></trkpt><trkpt lat="43.2901981" lon="7.1523001"><ele>0.0</ele><time>2026-04-30T23:20:04.049Z</time></trkpt><trkpt lat="43.2902327" lon="7.1523887"><ele>0.0</ele><time>2026-04-30T23:20:05.049Z</time></trkpt><trkpt lat="43.2902667" lon="7.1524803"><ele>0.0</ele><time>2026-04-30T23:20:06.048Z</time></trkpt><trkpt lat="43.2903098" lon="7.1525762"><ele>0.0</ele><time>2026-04-30T23:20:07.049Z</time></trkpt><trkpt lat="43.2903452" lon="7.1526753"><ele>0.0</ele><time>2026-04-30T23:20:08.048Z</time></trkpt><trkpt lat="43.2903816" lon="7.1527643"><ele>0.0</ele><time>2026-04-30T23:20:09.048Z</time></trkpt><trkpt lat="43.2904192" lon="7.1528624"><ele>0.0</ele><time>2026-04-30T23:20:10.048Z</time></trkpt><trkpt lat="43.290465" lon="7.1529569"><ele>0.0</ele><time>2026-04-30T23:20:11.048Z</time></trkpt><trkpt lat="43.2905447" lon="7.1530425"><ele>0.0</ele><time>2026-04-30T23:20:12.048Z</time></trkpt><trkpt lat="43.2905942" lon="7.1531366"><ele>0.0</ele><time>2026-04-30T23:20:13.049Z</time></trkpt><trkpt lat="43.2906441" lon="7.153234"><ele>0.0</ele><time>2026-04-30T23:20:14.048Z</time></trkpt><trkpt lat="43.2906927" lon="7.1533233"><ele>0.0</ele><time>2026-04-30T23:20:15.049Z</time></trkpt><trkpt lat="43.2908052" lon="7.1534904"><ele>0.0</ele><time>2026-04-30T23:20:17.048Z</time></trkpt><trkpt lat="43.2908595" lon="7.1535745"><ele>0.0</ele><time>2026-04-30T23:20:18.049Z</time></trkpt><trkpt lat="43.2909075" lon="7.1536628"><ele>0.0</ele><time>2026-04-30T23:20:19.048Z</time></trkpt><trkpt lat="43.2909539" lon="7.1537516"><ele>0.0</ele><time>2026-04-30T23:20:20.049Z</time></trkpt><trkpt lat="43.291006" lon="7.1538314"><ele>0.0</ele><time>2026-04-30T23:20:21.048Z</time></trkpt><trkpt lat="43.2910595" lon="7.153911"><ele>0.0</ele><time>2026-04-30T23:20:22.048Z</time></trkpt><trkpt lat="43.2911117" lon="7.1539992"><ele>0.0</ele><time>2026-04-30T23:20:23.049Z</time></trkpt><trkpt lat="43.2911421" lon="7.1540981"><ele>0.0</ele><time>2026-04-30T23:20:24.049Z</time></trkpt><trkpt lat="43.2911875" lon="7.1541851"><ele>0.0</ele><time>2026-04-30T23:20:25.049Z</time></trkpt><trkpt lat="43.2912111" lon="7.1542847"><ele>0.0</ele><time>2026-04-30T23:20:26.048Z</time></trkpt><trkpt lat="43.2912559" lon="7.1543746"><ele>0.0</ele><time>2026-04-30T23:20:27.048Z</time></trkpt><trkpt lat="43.2913009" lon="7.154461"><ele>0.0</ele><time>2026-04-30T23:20:28.048Z</time></trkpt><trkpt lat="43.2913809" lon="7.1546817"><ele>0.0</ele><time>2026-04-30T23:20:31.158Z</time></trkpt><trkpt lat="43.2914625" lon="7.1547993"><ele>0.0</ele><time>2026-04-30T23:20:32.063Z</time></trkpt><trkpt lat="43.2915203" lon="7.1549124"><ele>0.0</ele><time>2026-04-30T23:20:33.169Z</time></trkpt><trkpt lat="43.2915506" lon="7.1550206"><ele>0.0</ele><time>2026-04-30T23:20:34.073Z</time></trkpt><trkpt lat="43.2915985" lon="7.155127"><ele>0.0</ele><time>2026-04-30T23:20:35.18Z</time></trkpt><trkpt lat="43.2916509" lon="7.1552226"><ele>0.0</ele><time>2026-04-30T23:20:36.084Z</time></trkpt><trkpt lat="43.2917791" lon="7.1554128"><ele>0.0</ele><time>2026-04-30T23:20:38.097Z</time></trkpt><trkpt lat="43.2918208" lon="7.1555203"><ele>0.0</ele><time>2026-04-30T23:20:39.101Z</time></trkpt><trkpt lat="43.2918571" lon="7.1556195"><ele>0.0</ele><time>2026-04-30T23:20:40.107Z</time></trkpt><trkpt lat="43.2919275" lon="7.1556666"><ele>0.0</ele><time>2026-04-30T23:20:41.048Z</time></trkpt><trkpt lat="43.2919965" lon="7.1557492"><ele>0.0</ele><time>2026-04-30T23:20:42.049Z</time></trkpt><trkpt lat="43.2920495" lon="7.1558387"><ele>0.0</ele><time>2026-04-30T23:20:43.049Z</time></trkpt><trkpt lat="43.2921044" lon="7.1559298"><ele>0.0</ele><time>2026-04-30T23:20:44.048Z</time></trkpt><trkpt lat="43.2921495" lon="7.1560216"><ele>0.0</ele><time>2026-04-30T23:20:45.048Z</time></trkpt><trkpt lat="43.2921938" lon="7.1561116"><ele>0.0</ele><time>2026-04-30T23:20:46.049Z</time></trkpt><trkpt lat="43.2922888" lon="7.1562922"><ele>0.0</ele><time>2026-04-30T23:20:48.049Z</time></trkpt><trkpt lat="43.2923371" lon="7.1563803"><ele>0.0</ele><time>2026-04-30T23:20:49.049Z</time></trkpt><trkpt lat="43.2923891" lon="7.1564684"><ele>0.0</ele><time>2026-04-30T23:20:50.049Z</time></trkpt><trkpt lat="43.2924425" lon="7.1565558"><ele>0.0</ele><time>2026-04-30T23:20:51.048Z</time></trkpt><trkpt lat="43.2925003" lon="7.1566392"><ele>0.0</ele><time>2026-04-30T23:20:52.049Z</time></trkpt><trkpt lat="43.2925544" lon="7.1567251"><ele>0.0</ele><time>2026-04-30T23:20:53.048Z</time></trkpt><trkpt lat="43.2926029" lon="7.1568146"><ele>0.0</ele><time>2026-04-30T23:20:54.049Z</time></trkpt><trkpt lat="43.2926529" lon="7.1568988"><ele>0.0</ele><time>2026-04-30T23:20:55.048Z</time></trkpt><trkpt lat="43.292717" lon="7.1569808"><ele>0.0</ele><time>2026-04-30T23:20:56.047Z</time></trkpt><trkpt lat="43.2928189" lon="7.1571566"><ele>0.0</ele><time>2026-04-30T23:20:58.048Z</time></trkpt><trkpt lat="43.2928663" lon="7.157246"><ele>0.0</ele><time>2026-04-30T23:20:59.047Z</time></trkpt><trkpt lat="43.2929106" lon="7.1573333"><ele>0.0</ele><time>2026-04-30T23:21:00.047Z</time></trkpt><trkpt lat="43.2929536" lon="7.157423"><ele>0.0</ele><time>2026-04-30T23:21:01.047Z</time></trkpt><trkpt lat="43.2929982" lon="7.1575223"><ele>0.0</ele><time>2026-04-30T23:21:02.047Z</time></trkpt><trkpt lat="43.2930389" lon="7.1576184"><ele>0.0</ele><time>2026-04-30T23:21:03.047Z</time></trkpt><trkpt lat="43.2931042" lon="7.1577128"><ele>0.0</ele><time>2026-04-30T23:21:04.048Z</time></trkpt><trkpt lat="43.2931502" lon="7.157807"><ele>0.0</ele><time>2026-04-30T23:21:05.047Z</time></trkpt><trkpt lat="43.2931939" lon="7.1579013"><ele>0.0</ele><time>2026-04-30T23:21:06.047Z</time></trkpt><trkpt lat="43.2932343" lon="7.1579959"><ele>0.0</ele><time>2026-04-30T23:21:07.047Z</time></trkpt><trkpt lat="43.2932772" lon="7.1580894"><ele>0.0</ele><time>2026-04-30T23:21:08.048Z</time></trkpt><trkpt lat="43.2933221" lon="7.158184"><ele>0.0</ele><time>2026-04-30T23:21:09.048Z</time></trkpt><trkpt lat="43.2933615" lon="7.1582826"><ele>0.0</ele><time>2026-04-30T23:21:10.048Z</time></trkpt><trkpt lat="43.2934054" lon="7.1583816"><ele>0.0</ele><time>2026-04-30T23:21:11.047Z</time></trkpt><trkpt lat="43.2934633" lon="7.1584827"><ele>0.0</ele><time>2026-04-30T23:21:12.047Z</time></trkpt><trkpt lat="43.2935153" lon="7.1585687"><ele>0.0</ele><time>2026-04-30T23:21:13.048Z</time></trkpt><trkpt lat="43.2935496" lon="7.1586663"><ele>0.0</ele><time>2026-04-30T23:21:14.047Z</time></trkpt><trkpt lat="43.2935996" lon="7.1587515"><ele>0.0</ele><time>2026-04-30T23:21:15.047Z</time></trkpt><trkpt lat="43.2936512" lon="7.1588373"><ele>0.0</ele><time>2026-04-30T23:21:16.048Z</time></trkpt><trkpt lat="43.2936901" lon="7.1589357"><ele>0.0</ele><time>2026-04-30T23:21:17.048Z</time></trkpt><trkpt lat="43.2937417" lon="7.1590293"><ele>0.0</ele><time>2026-04-30T23:21:18.047Z</time></trkpt><trkpt lat="43.2938974" lon="7.159319"><ele>0.0</ele><time>2026-04-30T23:21:21.047Z</time></trkpt><trkpt lat="43.2939542" lon="7.1594308"><ele>0.0</ele><time>2026-04-30T23:21:22.048Z</time></trkpt><trkpt lat="43.294001" lon="7.1595368"><ele>0.0</ele><time>2026-04-30T23:21:23.047Z</time></trkpt><trkpt lat="43.2940437" lon="7.1596251"><ele>0.0</ele><time>2026-04-30T23:21:24.047Z</time></trkpt><trkpt lat="43.2940919" lon="7.1597121"><ele>0.0</ele><time>2026-04-30T23:21:25.048Z</time></trkpt><trkpt lat="43.2941331" lon="7.1597975"><ele>0.0</ele><time>2026-04-30T23:21:26.047Z</time></trkpt><trkpt lat="43.2941844" lon="7.1598921"><ele>0.0</ele><time>2026-04-30T23:21:27.047Z</time></trkpt><trkpt lat="43.2942841" lon="7.1600417"><ele>0.0</ele><time>2026-04-30T23:21:30.15Z</time></trkpt><trkpt lat="43.2943385" lon="7.1602181"><ele>0.0</ele><time>2026-04-30T23:21:31.156Z</time></trkpt><trkpt lat="43.2944002" lon="7.1603194"><ele>0.0</ele><time>2026-04-30T23:21:32.161Z</time></trkpt><trkpt lat="43.2944534" lon="7.1604142"><ele>0.0</ele><time>2026-04-30T23:21:33.067Z</time></trkpt><trkpt lat="43.2945132" lon="7.1605169"><ele>0.0</ele><time>2026-04-30T23:21:34.172Z</time></trkpt><trkpt lat="43.2945704" lon="7.1606047"><ele>0.0</ele><time>2026-04-30T23:21:35.077Z</time></trkpt><trkpt lat="43.2946191" lon="7.1607014"><ele>0.0</ele><time>2026-04-30T23:21:36.083Z</time></trkpt><trkpt lat="43.2946647" lon="7.1607963"><ele>0.0</ele><time>2026-04-30T23:21:37.089Z</time></trkpt><trkpt lat="43.2947098" lon="7.1608858"><ele>0.0</ele><time>2026-04-30T23:21:38.095Z</time></trkpt><trkpt lat="43.294756" lon="7.1610106"><ele>0.0</ele><time>2026-04-30T23:21:40.106Z</time></trkpt><trkpt lat="43.2949107" lon="7.161206"><ele>0.0</ele><time>2026-04-30T23:21:42.116Z</time></trkpt><trkpt lat="43.2949846" lon="7.1612775"><ele>0.0</ele><time>2026-04-30T23:21:43.122Z</time></trkpt><trkpt lat="43.2950504" lon="7.1613528"><ele>0.0</ele><time>2026-04-30T23:21:44.127Z</time></trkpt><trkpt lat="43.2951093" lon="7.1614419"><ele>0.0</ele><time>2026-04-30T23:21:45.133Z</time></trkpt><trkpt lat="43.2951495" lon="7.1615488"><ele>0.0</ele><time>2026-04-30T23:21:46.139Z</time></trkpt><trkpt lat="43.2951965" lon="7.1616491"><ele>0.0</ele><time>2026-04-30T23:21:47.144Z</time></trkpt><trkpt lat="43.2952712" lon="7.1617777"><ele>0.0</ele><time>2026-04-30T23:21:49.156Z</time></trkpt><trkpt lat="43.2953135" lon="7.1619064"><ele>0.0</ele><time>2026-04-30T23:21:50.16Z</time></trkpt><trkpt lat="43.2953989" lon="7.1621028"><ele>0.0</ele><time>2026-04-30T23:21:52.172Z</time></trkpt><trkpt lat="43.2954495" lon="7.1621898"><ele>0.0</ele><time>2026-04-30T23:21:53.076Z</time></trkpt><trkpt lat="43.2955059" lon="7.1622851"><ele>0.0</ele><time>2026-04-30T23:21:54.082Z</time></trkpt><trkpt lat="43.2955785" lon="7.1623666"><ele>0.0</ele><time>2026-04-30T23:21:55.087Z</time></trkpt><trkpt lat="43.2956405" lon="7.1624523"><ele>0.0</ele><time>2026-04-30T23:21:56.048Z</time></trkpt><trkpt lat="43.295688" lon="7.1625458"><ele>0.0</ele><time>2026-04-30T23:21:57.047Z</time></trkpt><trkpt lat="43.2957362" lon="7.162641"><ele>0.0</ele><time>2026-04-30T23:21:58.048Z</time></trkpt><trkpt lat="43.2957837" lon="7.1627318"><ele>0.0</ele><time>2026-04-30T23:21:59.047Z</time></trkpt><trkpt lat="43.2958258" lon="7.1628172"><ele>0.0</ele><time>2026-04-30T23:22:00.047Z</time></trkpt><trkpt lat="43.295866" lon="7.162911"><ele>0.0</ele><time>2026-04-30T23:22:01.047Z</time></trkpt><trkpt lat="43.2959564" lon="7.1631004"><ele>0.0</ele><time>2026-04-30T23:22:03.048Z</time></trkpt><trkpt lat="43.2959979" lon="7.1631989"><ele>0.0</ele><time>2026-04-30T23:22:04.048Z</time></trkpt><trkpt lat="43.296041" lon="7.1632949"><ele>0.0</ele><time>2026-04-30T23:22:05.048Z</time></trkpt><trkpt lat="43.2960832" lon="7.1633826"><ele>0.0</ele><time>2026-04-30T23:22:06.048Z</time></trkpt><trkpt lat="43.2961212" lon="7.1634738"><ele>0.0</ele><time>2026-04-30T23:22:07.047Z</time></trkpt><trkpt lat="43.2961657" lon="7.1635608"><ele>0.0</ele><time>2026-04-30T23:22:08.047Z</time></trkpt><trkpt lat="43.2962065" lon="7.1636487"><ele>0.0</ele><time>2026-04-30T23:22:09.047Z</time></trkpt><trkpt lat="43.296255" lon="7.1637414"><ele>0.0</ele><time>2026-04-30T23:22:10.047Z</time></trkpt><trkpt lat="43.2963042" lon="7.1638278"><ele>0.0</ele><time>2026-04-30T23:22:11.048Z</time></trkpt><trkpt lat="43.2963494" lon="7.1639098"><ele>0.0</ele><time>2026-04-30T23:22:12.047Z</time></trkpt><trkpt lat="43.2963928" lon="7.1639864"><ele>0.0</ele><time>2026-04-30T23:22:13.047Z</time></trkpt><trkpt lat="43.2964411" lon="7.1640639"><ele>0.0</ele><time>2026-04-30T23:22:14.047Z</time></trkpt><trkpt lat="43.2964913" lon="7.1641494"><ele>0.0</ele><time>2026-04-30T23:22:15.048Z</time></trkpt><trkpt lat="43.2965418" lon="7.1642351"><ele>0.0</ele><time>2026-04-30T23:22:16.047Z</time></trkpt><trkpt lat="43.2965907" lon="7.1643138"><ele>0.0</ele><time>2026-04-30T23:22:17.048Z</time></trkpt><trkpt lat="43.2966442" lon="7.1644061"><ele>0.0</ele><time>2026-04-30T23:22:18.047Z</time></trkpt><trkpt lat="43.296695" lon="7.1645003"><ele>0.0</ele><time>2026-04-30T23:22:19.048Z</time></trkpt><trkpt lat="43.2967405" lon="7.1645992"><ele>0.0</ele><time>2026-04-30T23:22:20.048Z</time></trkpt><trkpt lat="43.2967868" lon="7.1646944"><ele>0.0</ele><time>2026-04-30T23:22:21.047Z</time></trkpt><trkpt lat="43.296836" lon="7.1647933"><ele>0.0</ele><time>2026-04-30T23:22:22.047Z</time></trkpt><trkpt lat="43.2968879" lon="7.1648876"><ele>0.0</ele><time>2026-04-30T23:22:23.048Z</time></trkpt><trkpt lat="43.2970491" lon="7.1651448"><ele>0.0</ele><time>2026-04-30T23:22:26.048Z</time></trkpt><trkpt lat="43.2970986" lon="7.1652274"><ele>0.0</ele><time>2026-04-30T23:22:27.048Z</time></trkpt><trkpt lat="43.2971496" lon="7.1653175"><ele>0.0</ele><time>2026-04-30T23:22:28.047Z</time></trkpt><trkpt lat="43.2972015" lon="7.1654048"><ele>0.0</ele><time>2026-04-30T23:22:29.048Z</time></trkpt><trkpt lat="43.2972549" lon="7.1654906"><ele>0.0</ele><time>2026-04-30T23:22:30.048Z</time></trkpt><trkpt lat="43.2973041" lon="7.1655741"><ele>0.0</ele><time>2026-04-30T23:22:31.047Z</time></trkpt><trkpt lat="43.2973535" lon="7.1656558"><ele>0.0</ele><time>2026-04-30T23:22:32.047Z</time></trkpt><trkpt lat="43.2974006" lon="7.1657406"><ele>0.0</ele><time>2026-04-30T23:22:33.048Z</time></trkpt><trkpt lat="43.2974487" lon="7.165827"><ele>0.0</ele><time>2026-04-30T23:22:34.047Z</time></trkpt><trkpt lat="43.2975014" lon="7.1659194"><ele>0.0</ele><time>2026-04-30T23:22:35.048Z</time></trkpt><trkpt lat="43.2975569" lon="7.1660084"><ele>0.0</ele><time>2026-04-30T23:22:36.048Z</time></trkpt><trkpt lat="43.2975976" lon="7.1660979"><ele>0.0</ele><time>2026-04-30T23:22:37.047Z</time></trkpt><trkpt lat="43.2976483" lon="7.1661848"><ele>0.0</ele><time>2026-04-30T23:22:38.047Z</time></trkpt><trkpt lat="43.2977013" lon="7.1662683"><ele>0.0</ele><time>2026-04-30T23:22:39.047Z</time></trkpt><trkpt lat="43.2977697" lon="7.1663713"><ele>0.0</ele><time>2026-04-30T23:22:40.048Z</time></trkpt><trkpt lat="43.2978187" lon="7.1664636"><ele>0.0</ele><time>2026-04-30T23:22:41.047Z</time></trkpt><trkpt lat="43.2979297" lon="7.1666455"><ele>0.0</ele><time>2026-04-30T23:22:44.148Z</time></trkpt><trkpt lat="43.2979945" lon="7.1667985"><ele>0.0</ele><time>2026-04-30T23:22:45.154Z</time></trkpt><trkpt lat="43.2981027" lon="7.1670203"><ele>0.0</ele><time>2026-04-30T23:22:47.166Z</time></trkpt><trkpt lat="43.2981536" lon="7.1671202"><ele>0.0</ele><time>2026-04-30T23:22:48.17Z</time></trkpt><trkpt lat="43.2981902" lon="7.1672132"><ele>0.0</ele><time>2026-04-30T23:22:49.075Z</time></trkpt><trkpt lat="43.2982339" lon="7.1673064"><ele>0.0</ele><time>2026-04-30T23:22:50.082Z</time></trkpt><trkpt lat="43.298277" lon="7.1674133"><ele>0.0</ele><time>2026-04-30T23:22:51.087Z</time></trkpt><trkpt lat="43.2983276" lon="7.167514"><ele>0.0</ele><time>2026-04-30T23:22:52.092Z</time></trkpt><trkpt lat="43.2983638" lon="7.1676217"><ele>0.0</ele><time>2026-04-30T23:22:54.103Z</time></trkpt><trkpt lat="43.2984081" lon="7.1677415"><ele>0.0</ele><time>2026-04-30T23:22:55.109Z</time></trkpt><trkpt lat="43.2984627" lon="7.1678379"><ele>0.0</ele><time>2026-04-30T23:22:56.114Z</time></trkpt><trkpt lat="43.2985245" lon="7.167911"><ele>0.0</ele><time>2026-04-30T23:22:57.12Z</time></trkpt><trkpt lat="43.2985756" lon="7.1679948"><ele>0.0</ele><time>2026-04-30T23:22:58.125Z</time></trkpt><trkpt lat="43.2986341" lon="7.1680956"><ele>0.0</ele><time>2026-04-30T23:22:59.13Z</time></trkpt><trkpt lat="43.2986932" lon="7.1681924"><ele>0.0</ele><time>2026-04-30T23:23:00.137Z</time></trkpt><trkpt lat="43.2987896" lon="7.1682463"><ele>0.0</ele><time>2026-04-30T23:23:01.142Z</time></trkpt><trkpt lat="43.2988435" lon="7.1683392"><ele>0.0</ele><time>2026-04-30T23:23:02.047Z</time></trkpt><trkpt lat="43.2988952" lon="7.1684047"><ele>0.0</ele><time>2026-04-30T23:23:03.048Z</time></trkpt><trkpt lat="43.2989852" lon="7.168547"><ele>0.0</ele><time>2026-04-30T23:23:05.047Z</time></trkpt><trkpt lat="43.2990288" lon="7.1686387"><ele>0.0</ele><time>2026-04-30T23:23:06.047Z</time></trkpt><trkpt lat="43.299112" lon="7.168821"><ele>0.0</ele><time>2026-04-30T23:23:08.048Z</time></trkpt><trkpt lat="43.2991519" lon="7.1689144"><ele>0.0</ele><time>2026-04-30T23:23:09.047Z</time></trkpt><trkpt lat="43.2991965" lon="7.169008"><ele>0.0</ele><time>2026-04-30T23:23:10.047Z</time></trkpt><trkpt lat="43.2992446" lon="7.1691054"><ele>0.0</ele><time>2026-04-30T23:23:11.047Z</time></trkpt><trkpt lat="43.2992899" lon="7.1691967"><ele>0.0</ele><time>2026-04-30T23:23:12.048Z</time></trkpt><trkpt lat="43.2993348" lon="7.1692898"><ele>0.0</ele><time>2026-04-30T23:23:13.047Z</time></trkpt><trkpt lat="43.2993847" lon="7.169383"><ele>0.0</ele><time>2026-04-30T23:23:14.047Z</time></trkpt><trkpt lat="43.299435" lon="7.1694685"><ele>0.0</ele><time>2026-04-30T23:23:15.047Z</time></trkpt><trkpt lat="43.2994834" lon="7.1695564"><ele>0.0</ele><time>2026-04-30T23:23:16.048Z</time></trkpt><trkpt lat="43.2995288" lon="7.1696518"><ele>0.0</ele><time>2026-04-30T23:23:17.048Z</time></trkpt><trkpt lat="43.2995714" lon="7.1697358"><ele>0.0</ele><time>2026-04-30T23:23:18.048Z</time></trkpt><trkpt lat="43.2996172" lon="7.1698231"><ele>0.0</ele><time>2026-04-30T23:23:19.048Z</time></trkpt><trkpt lat="43.2996552" lon="7.169913"><ele>0.0</ele><time>2026-04-30T23:23:20.048Z</time></trkpt><trkpt lat="43.2996953" lon="7.1700054"><ele>0.0</ele><time>2026-04-30T23:23:21.047Z</time></trkpt><trkpt lat="43.2997414" lon="7.1701022"><ele>0.0</ele><time>2026-04-30T23:23:22.048Z</time></trkpt><trkpt lat="43.2997863" lon="7.1701903"><ele>0.0</ele><time>2026-04-30T23:23:23.048Z</time></trkpt><trkpt lat="43.2998302" lon="7.1702783"><ele>0.0</ele><time>2026-04-30T23:23:24.047Z</time></trkpt><trkpt lat="43.2998767" lon="7.1703664"><ele>0.0</ele><time>2026-04-30T23:23:25.047Z</time></trkpt><trkpt lat="43.29992" lon="7.170458"><ele>0.0</ele><time>2026-04-30T23:23:26.047Z</time></trkpt><trkpt lat="43.299972" lon="7.1705637"><ele>0.0</ele><time>2026-04-30T23:23:27.047Z</time></trkpt><trkpt lat="43.3001085" lon="7.1708349"><ele>0.0</ele><time>2026-04-30T23:23:30.047Z</time></trkpt><trkpt lat="43.3001508" lon="7.1709253"><ele>0.0</ele><time>2026-04-30T23:23:31.047Z</time></trkpt><trkpt lat="43.3001896" lon="7.1710166"><ele>0.0</ele><time>2026-04-30T23:23:32.047Z</time></trkpt><trkpt lat="43.3002277" lon="7.1710991"><ele>0.0</ele><time>2026-04-30T23:23:33.047Z</time></trkpt><trkpt lat="43.3002676" lon="7.1711849"><ele>0.0</ele><time>2026-04-30T23:23:34.048Z</time></trkpt><trkpt lat="43.3003096" lon="7.1712761"><ele>0.0</ele><time>2026-04-30T23:23:35.047Z</time></trkpt><trkpt lat="43.3003504" lon="7.1713686"><ele>0.0</ele><time>2026-04-30T23:23:36.047Z</time></trkpt><trkpt lat="43.3003928" lon="7.1714613"><ele>0.0</ele><time>2026-04-30T23:23:37.048Z</time></trkpt><trkpt lat="43.3004493" lon="7.1715654"><ele>0.0</ele><time>2026-04-30T23:23:38.048Z</time></trkpt><trkpt lat="43.3005019" lon="7.1716473"><ele>0.0</ele><time>2026-04-30T23:23:39.047Z</time></trkpt><trkpt lat="43.3005499" lon="7.1717301"><ele>0.0</ele><time>2026-04-30T23:23:40.048Z</time></trkpt><trkpt lat="43.3005982" lon="7.1718181"><ele>0.0</ele><time>2026-04-30T23:23:41.048Z</time></trkpt><trkpt lat="43.3006509" lon="7.1719024"><ele>0.0</ele><time>2026-04-30T23:23:42.047Z</time></trkpt><trkpt lat="43.3006941" lon="7.1719858"><ele>0.0</ele><time>2026-04-30T23:23:43.047Z</time></trkpt><trkpt lat="43.3007349" lon="7.1720682"><ele>0.0</ele><time>2026-04-30T23:23:44.047Z</time></trkpt><trkpt lat="43.3007815" lon="7.1721559"><ele>0.0</ele><time>2026-04-30T23:23:45.048Z</time></trkpt><trkpt lat="43.300829" lon="7.172252"><ele>0.0</ele><time>2026-04-30T23:23:46.047Z</time></trkpt><trkpt lat="43.3008792" lon="7.1723473"><ele>0.0</ele><time>2026-04-30T23:23:47.047Z</time></trkpt><trkpt lat="43.300928" lon="7.1724423"><ele>0.0</ele><time>2026-04-30T23:23:48.047Z</time></trkpt><trkpt lat="43.3009752" lon="7.1725334"><ele>0.0</ele><time>2026-04-30T23:23:49.047Z</time></trkpt><trkpt lat="43.3010692" lon="7.1727185"><ele>0.0</ele><time>2026-04-30T23:23:51.048Z</time></trkpt><trkpt lat="43.3011292" lon="7.1728241"><ele>0.0</ele><time>2026-04-30T23:23:52.047Z</time></trkpt><trkpt lat="43.3011748" lon="7.172913"><ele>0.0</ele><time>2026-04-30T23:23:53.048Z</time></trkpt><trkpt lat="43.3012144" lon="7.1730109"><ele>0.0</ele><time>2026-04-30T23:23:54.047Z</time></trkpt><trkpt lat="43.301266" lon="7.1730982"><ele>0.0</ele><time>2026-04-30T23:23:55.048Z</time></trkpt><trkpt lat="43.3013152" lon="7.173182"><ele>0.0</ele><time>2026-04-30T23:23:56.048Z</time></trkpt><trkpt lat="43.301359" lon="7.1732708"><ele>0.0</ele><time>2026-04-30T23:23:57.047Z</time></trkpt><trkpt lat="43.3014053" lon="7.1733593"><ele>0.0</ele><time>2026-04-30T23:23:58.047Z</time></trkpt><trkpt lat="43.3014487" lon="7.1734513"><ele>0.0</ele><time>2026-04-30T23:23:59.047Z</time></trkpt><trkpt lat="43.3015381" lon="7.17365"><ele>0.0</ele><time>2026-04-30T23:24:01.047Z</time></trkpt><trkpt lat="43.3015889" lon="7.173746"><ele>0.0</ele><time>2026-04-30T23:24:02.048Z</time></trkpt><trkpt lat="43.3016432" lon="7.1738381"><ele>0.0</ele><time>2026-04-30T23:24:03.047Z</time></trkpt><trkpt lat="43.3016895" lon="7.1739298"><ele>0.0</ele><time>2026-04-30T23:24:04.048Z</time></trkpt><trkpt lat="43.301731" lon="7.1740221"><ele>0.0</ele><time>2026-04-30T23:24:05.048Z</time></trkpt><trkpt lat="43.3017739" lon="7.1741114"><ele>0.0</ele><time>2026-04-30T23:24:06.048Z</time></trkpt><trkpt lat="43.3018172" lon="7.1742056"><ele>0.0</ele><time>2026-04-30T23:24:07.047Z</time></trkpt><trkpt lat="43.3018619" lon="7.1742998"><ele>0.0</ele><time>2026-04-30T23:24:08.048Z</time></trkpt><trkpt lat="43.3019054" lon="7.1743858"><ele>0.0</ele><time>2026-04-30T23:24:09.047Z</time></trkpt><trkpt lat="43.3019517" lon="7.1744719"><ele>0.0</ele><time>2026-04-30T23:24:10.047Z</time></trkpt><trkpt lat="43.3020372" lon="7.1746502"><ele>0.0</ele><time>2026-04-30T23:24:12.047Z</time></trkpt><trkpt lat="43.3020801" lon="7.1747412"><ele>0.0</ele><time>2026-04-30T23:24:13.047Z</time></trkpt><trkpt lat="43.302125" lon="7.1748319"><ele>0.0</ele><time>2026-04-30T23:24:14.048Z</time></trkpt><trkpt lat="43.302173" lon="7.1749199"><ele>0.0</ele><time>2026-04-30T23:24:15.047Z</time></trkpt><trkpt lat="43.3022261" lon="7.1750083"><ele>0.0</ele><time>2026-04-30T23:24:16.047Z</time></trkpt><trkpt lat="43.3022797" lon="7.1751014"><ele>0.0</ele><time>2026-04-30T23:24:17.047Z</time></trkpt><trkpt lat="43.3023284" lon="7.1751935"><ele>0.0</ele><time>2026-04-30T23:24:18.048Z</time></trkpt><trkpt lat="43.3023754" lon="7.1752819"><ele>0.0</ele><time>2026-04-30T23:24:19.048Z</time></trkpt><trkpt lat="43.3024263" lon="7.1753683"><ele>0.0</ele><time>2026-04-30T23:24:20.047Z</time></trkpt><trkpt lat="43.3024777" lon="7.1754636"><ele>0.0</ele><time>2026-04-30T23:24:21.047Z</time></trkpt><trkpt lat="43.3025274" lon="7.1755611"><ele>0.0</ele><time>2026-04-30T23:24:22.048Z</time></trkpt><trkpt lat="43.3025836" lon="7.1756461"><ele>0.0</ele><time>2026-04-30T23:24:23.048Z</time></trkpt><trkpt lat="43.3026376" lon="7.1757288"><ele>0.0</ele><time>2026-04-30T23:24:24.047Z</time></trkpt><trkpt lat="43.3026909" lon="7.1758192"><ele>0.0</ele><time>2026-04-30T23:24:25.047Z</time></trkpt><trkpt lat="43.3027814" lon="7.1759049"><ele>0.0</ele><time>2026-04-30T23:24:26.047Z</time></trkpt><trkpt lat="43.3028435" lon="7.1760013"><ele>0.0</ele><time>2026-04-30T23:24:27.047Z</time></trkpt><trkpt lat="43.3028935" lon="7.1760945"><ele>0.0</ele><time>2026-04-30T23:24:28.047Z</time></trkpt><trkpt lat="43.3029414" lon="7.1761845"><ele>0.0</ele><time>2026-04-30T23:24:29.047Z</time></trkpt><trkpt lat="43.3029952" lon="7.1762715"><ele>0.0</ele><time>2026-04-30T23:24:30.048Z</time></trkpt><trkpt lat="43.3030507" lon="7.1763628"><ele>0.0</ele><time>2026-04-30T23:24:31.048Z</time></trkpt><trkpt lat="43.3031572" lon="7.1765333"><ele>0.0</ele><time>2026-04-30T23:24:33.047Z</time></trkpt><trkpt lat="43.3032825" lon="7.1767149"><ele>0.0</ele><time>2026-04-30T23:24:35.048Z</time></trkpt><trkpt lat="43.3033281" lon="7.1767987"><ele>0.0</ele><time>2026-04-30T23:24:36.047Z</time></trkpt><trkpt lat="43.3033704" lon="7.1768806"><ele>0.0</ele><time>2026-04-30T23:24:37.047Z</time></trkpt><trkpt lat="43.3034044" lon="7.1769604"><ele>0.0</ele><time>2026-04-30T23:24:38.047Z</time></trkpt><trkpt lat="43.3034445" lon="7.1770417"><ele>0.0</ele><time>2026-04-30T23:24:39.048Z</time></trkpt><trkpt lat="43.3034842" lon="7.1771278"><ele>0.0</ele><time>2026-04-30T23:24:40.047Z</time></trkpt><trkpt lat="43.3035298" lon="7.1772147"><ele>0.0</ele><time>2026-04-30T23:24:41.047Z</time></trkpt><trkpt lat="43.3035713" lon="7.1773059"><ele>0.0</ele><time>2026-04-30T23:24:42.047Z</time></trkpt><trkpt lat="43.3036171" lon="7.1773998"><ele>0.0</ele><time>2026-04-30T23:24:43.047Z</time></trkpt><trkpt lat="43.303673" lon="7.1774877"><ele>0.0</ele><time>2026-04-30T23:24:44.048Z</time></trkpt><trkpt lat="43.3037318" lon="7.1775758"><ele>0.0</ele><time>2026-04-30T23:24:45.048Z</time></trkpt><trkpt lat="43.3038058" lon="7.1776729"><ele>0.0</ele><time>2026-04-30T23:24:46.048Z</time></trkpt><trkpt lat="43.3038712" lon="7.1777715"><ele>0.0</ele><time>2026-04-30T23:24:47.047Z</time></trkpt><trkpt lat="43.3039333" lon="7.1778742"><ele>0.0</ele><time>2026-04-30T23:24:48.047Z</time></trkpt><trkpt lat="43.3039873" lon="7.1779635"><ele>0.0</ele><time>2026-04-30T23:24:49.047Z</time></trkpt><trkpt lat="43.3040378" lon="7.1780495"><ele>0.0</ele><time>2026-04-30T23:24:50.047Z</time></trkpt><trkpt lat="43.3040846" lon="7.1781397"><ele>0.0</ele><time>2026-04-30T23:24:51.048Z</time></trkpt><trkpt lat="43.3041296" lon="7.1782297"><ele>0.0</ele><time>2026-04-30T23:24:52.048Z</time></trkpt><trkpt lat="43.3041753" lon="7.1783152"><ele>0.0</ele><time>2026-04-30T23:24:53.047Z</time></trkpt><trkpt lat="43.3042231" lon="7.1784028"><ele>0.0</ele><time>2026-04-30T23:24:54.047Z</time></trkpt><trkpt lat="43.3043156" lon="7.1785807"><ele>0.0</ele><time>2026-04-30T23:24:56.047Z</time></trkpt><trkpt lat="43.3043629" lon="7.178668"><ele>0.0</ele><time>2026-04-30T23:24:57.048Z</time></trkpt><trkpt lat="43.3044143" lon="7.1787563"><ele>0.0</ele><time>2026-04-30T23:24:58.047Z</time></trkpt><trkpt lat="43.3044534" lon="7.1788447"><ele>0.0</ele><time>2026-04-30T23:24:59.048Z</time></trkpt><trkpt lat="43.3044969" lon="7.1789345"><ele>0.0</ele><time>2026-04-30T23:25:00.047Z</time></trkpt><trkpt lat="43.3045422" lon="7.1790217"><ele>0.0</ele><time>2026-04-30T23:25:01.048Z</time></trkpt><trkpt lat="43.3045918" lon="7.1791097"><ele>0.0</ele><time>2026-04-30T23:25:02.048Z</time></trkpt><trkpt lat="43.3046418" lon="7.1792016"><ele>0.0</ele><time>2026-04-30T23:25:03.047Z</time></trkpt><trkpt lat="43.304695" lon="7.1792931"><ele>0.0</ele><time>2026-04-30T23:25:04.047Z</time></trkpt><trkpt lat="43.3047499" lon="7.1793831"><ele>0.0</ele><time>2026-04-30T23:25:05.048Z</time></trkpt><trkpt lat="43.3048549" lon="7.1795582"><ele>0.0</ele><time>2026-04-30T23:25:07.047Z</time></trkpt><trkpt lat="43.304914" lon="7.1796518"><ele>0.0</ele><time>2026-04-30T23:25:08.048Z</time></trkpt><trkpt lat="43.3049824" lon="7.1797537"><ele>0.0</ele><time>2026-04-30T23:25:09.047Z</time></trkpt><trkpt lat="43.305056" lon="7.1798431"><ele>0.0</ele><time>2026-04-30T23:25:10.048Z</time></trkpt><trkpt lat="43.3051156" lon="7.1799333"><ele>0.0</ele><time>2026-04-30T23:25:11.047Z</time></trkpt><trkpt lat="43.305169" lon="7.1800183"><ele>0.0</ele><time>2026-04-30T23:25:12.048Z</time></trkpt><trkpt lat="43.3052189" lon="7.1801022"><ele>0.0</ele><time>2026-04-30T23:25:13.047Z</time></trkpt><trkpt lat="43.3052741" lon="7.1801872"><ele>0.0</ele><time>2026-04-30T23:25:14.047Z</time></trkpt><trkpt lat="43.3053261" lon="7.1802765"><ele>0.0</ele><time>2026-04-30T23:25:15.048Z</time></trkpt><trkpt lat="43.3054501" lon="7.1804508"><ele>0.0</ele><time>2026-04-30T23:25:17.048Z</time></trkpt><trkpt lat="43.3054984" lon="7.1805427"><ele>0.0</ele><time>2026-04-30T23:25:18.047Z</time></trkpt><trkpt lat="43.3055472" lon="7.1806329"><ele>0.0</ele><time>2026-04-30T23:25:19.047Z</time></trkpt><trkpt lat="43.3055948" lon="7.1807244"><ele>0.0</ele><time>2026-04-30T23:25:20.048Z</time></trkpt><trkpt lat="43.3056477" lon="7.1808207"><ele>0.0</ele><time>2026-04-30T23:25:21.047Z</time></trkpt><trkpt lat="43.3057" lon="7.1809166"><ele>0.0</ele><time>2026-04-30T23:25:22.047Z</time></trkpt><trkpt lat="43.3057485" lon="7.1810072"><ele>0.0</ele><time>2026-04-30T23:25:23.047Z</time></trkpt><trkpt lat="43.3057836" lon="7.1810967"><ele>0.0</ele><time>2026-04-30T23:25:24.047Z</time></trkpt><trkpt lat="43.3058254" lon="7.1811791"><ele>0.0</ele><time>2026-04-30T23:25:25.048Z</time></trkpt><trkpt lat="43.3058667" lon="7.1812679"><ele>0.0</ele><time>2026-04-30T23:25:26.047Z</time></trkpt><trkpt lat="43.3059113" lon="7.1813563"><ele>0.0</ele><time>2026-04-30T23:25:27.047Z</time></trkpt><trkpt lat="43.3059566" lon="7.1814445"><ele>0.0</ele><time>2026-04-30T23:25:28.047Z</time></trkpt><trkpt lat="43.3060092" lon="7.1815343"><ele>0.0</ele><time>2026-04-30T23:25:29.047Z</time></trkpt><trkpt lat="43.306061" lon="7.1816235"><ele>0.0</ele><time>2026-04-30T23:25:30.048Z</time></trkpt><trkpt lat="43.3061115" lon="7.1817149"><ele>0.0</ele><time>2026-04-30T23:25:31.047Z</time></trkpt><trkpt lat="43.306163" lon="7.1818193"><ele>0.0</ele><time>2026-04-30T23:25:32.047Z</time></trkpt><trkpt lat="43.3062178" lon="7.1819233"><ele>0.0</ele><time>2026-04-30T23:25:33.047Z</time></trkpt><trkpt lat="43.3062712" lon="7.1820156"><ele>0.0</ele><time>2026-04-30T23:25:34.048Z</time></trkpt><trkpt lat="43.3063188" lon="7.1821054"><ele>0.0</ele><time>2026-04-30T23:25:35.047Z</time></trkpt><trkpt lat="43.3063599" lon="7.1821907"><ele>0.0</ele><time>2026-04-30T23:25:36.047Z</time></trkpt><trkpt lat="43.3064553" lon="7.1823625"><ele>0.0</ele><time>2026-04-30T23:25:38.048Z</time></trkpt><trkpt lat="43.3065457" lon="7.1825413"><ele>0.0</ele><time>2026-04-30T23:25:40.047Z</time></trkpt><trkpt lat="43.3065919" lon="7.1826296"><ele>0.0</ele><time>2026-04-30T23:25:41.048Z</time></trkpt><trkpt lat="43.3066328" lon="7.1827198"><ele>0.0</ele><time>2026-04-30T23:25:42.048Z</time></trkpt><trkpt lat="43.3066769" lon="7.1828056"><ele>0.0</ele><time>2026-04-30T23:25:43.047Z</time></trkpt><trkpt lat="43.3067264" lon="7.1828904"><ele>0.0</ele><time>2026-04-30T23:25:44.047Z</time></trkpt><trkpt lat="43.3067766" lon="7.182976"><ele>0.0</ele><time>2026-04-30T23:25:45.047Z</time></trkpt><trkpt lat="43.3068291" lon="7.1830646"><ele>0.0</ele><time>2026-04-30T23:25:46.047Z</time></trkpt><trkpt lat="43.306881" lon="7.183156"><ele>0.0</ele><time>2026-04-30T23:25:47.048Z</time></trkpt><trkpt lat="43.3069345" lon="7.1832478"><ele>0.0</ele><time>2026-04-30T23:25:48.047Z</time></trkpt><trkpt lat="43.3069869" lon="7.1833398"><ele>0.0</ele><time>2026-04-30T23:25:49.048Z</time></trkpt><trkpt lat="43.3070343" lon="7.1834281"><ele>0.0</ele><time>2026-04-30T23:25:50.048Z</time></trkpt><trkpt lat="43.3070835" lon="7.1835179"><ele>0.0</ele><time>2026-04-30T23:25:51.048Z</time></trkpt><trkpt lat="43.3071277" lon="7.1835994"><ele>0.0</ele><time>2026-04-30T23:25:52.048Z</time></trkpt><trkpt lat="43.3071734" lon="7.1836848"><ele>0.0</ele><time>2026-04-30T23:25:53.048Z</time></trkpt><trkpt lat="43.307219" lon="7.1837717"><ele>0.0</ele><time>2026-04-30T23:25:54.047Z</time></trkpt><trkpt lat="43.3072624" lon="7.183856"><ele>0.0</ele><time>2026-04-30T23:25:55.047Z</time></trkpt><trkpt lat="43.3073113" lon="7.1839406"><ele>0.0</ele><time>2026-04-30T23:25:56.047Z</time></trkpt><trkpt lat="43.3073581" lon="7.1840234"><ele>0.0</ele><time>2026-04-30T23:25:57.047Z</time></trkpt><trkpt lat="43.3074063" lon="7.1841129"><ele>0.0</ele><time>2026-04-30T23:25:58.047Z</time></trkpt><trkpt lat="43.3074554" lon="7.1842028"><ele>0.0</ele><time>2026-04-30T23:25:59.047Z</time></trkpt><trkpt lat="43.3075401" lon="7.1843775"><ele>0.0</ele><time>2026-04-30T23:26:01.047Z</time></trkpt><trkpt lat="43.3075775" lon="7.1844674"><ele>0.0</ele><time>2026-04-30T23:26:02.048Z</time></trkpt><trkpt lat="43.3076174" lon="7.1845552"><ele>0.0</ele><time>2026-04-30T23:26:03.048Z</time></trkpt><trkpt lat="43.3076586" lon="7.1846433"><ele>0.0</ele><time>2026-04-30T23:26:04.047Z</time></trkpt><trkpt lat="43.3077032" lon="7.1847332"><ele>0.0</ele><time>2026-04-30T23:26:05.047Z</time></trkpt><trkpt lat="43.3077472" lon="7.1848227"><ele>0.0</ele><time>2026-04-30T23:26:06.047Z</time></trkpt><trkpt lat="43.3077862" lon="7.1849157"><ele>0.0</ele><time>2026-04-30T23:26:07.048Z</time></trkpt><trkpt lat="43.3078333" lon="7.1850096"><ele>0.0</ele><time>2026-04-30T23:26:08.048Z</time></trkpt><trkpt lat="43.3078774" lon="7.1851015"><ele>0.0</ele><time>2026-04-30T23:26:09.047Z</time></trkpt><trkpt lat="43.3079652" lon="7.1852934"><ele>0.0</ele><time>2026-04-30T23:26:11.048Z</time></trkpt><trkpt lat="43.3080101" lon="7.1853862"><ele>0.0</ele><time>2026-04-30T23:26:12.048Z</time></trkpt><trkpt lat="43.3080553" lon="7.1854735"><ele>0.0</ele><time>2026-04-30T23:26:13.047Z</time></trkpt><trkpt lat="43.3080986" lon="7.1855613"><ele>0.0</ele><time>2026-04-30T23:26:14.047Z</time></trkpt><trkpt lat="43.3081431" lon="7.1856504"><ele>0.0</ele><time>2026-04-30T23:26:15.047Z</time></trkpt><trkpt lat="43.3081892" lon="7.1857492"><ele>0.0</ele><time>2026-04-30T23:26:16.047Z</time></trkpt><trkpt lat="43.308236" lon="7.1858513"><ele>0.0</ele><time>2026-04-30T23:26:17.047Z</time></trkpt><trkpt lat="43.3082783" lon="7.1859458"><ele>0.0</ele><time>2026-04-30T23:26:18.047Z</time></trkpt><trkpt lat="43.3083174" lon="7.186045"><ele>0.0</ele><time>2026-04-30T23:26:19.047Z</time></trkpt><trkpt lat="43.3083665" lon="7.1861465"><ele>0.0</ele><time>2026-04-30T23:26:20.048Z</time></trkpt><trkpt lat="43.3084818" lon="7.1863191"><ele>0.0</ele><time>2026-04-30T23:26:22.047Z</time></trkpt><trkpt lat="43.308565" lon="7.1863997"><ele>0.0</ele><time>2026-04-30T23:26:23.048Z</time></trkpt><trkpt lat="43.3086259" lon="7.1864943"><ele>0.0</ele><time>2026-04-30T23:26:24.048Z</time></trkpt><trkpt lat="43.308711" lon="7.1865817"><ele>0.0</ele><time>2026-04-30T23:26:25.048Z</time></trkpt><trkpt lat="43.3087836" lon="7.1866691"><ele>0.0</ele><time>2026-04-30T23:26:26.047Z</time></trkpt><trkpt lat="43.308834" lon="7.1867644"><ele>0.0</ele><time>2026-04-30T23:26:27.048Z</time></trkpt><trkpt lat="43.3088796" lon="7.1868553"><ele>0.0</ele><time>2026-04-30T23:26:28.048Z</time></trkpt><trkpt lat="43.3089116" lon="7.1869421"><ele>0.0</ele><time>2026-04-30T23:26:29.047Z</time></trkpt><trkpt lat="43.308948" lon="7.1870305"><ele>0.0</ele><time>2026-04-30T23:26:30.047Z</time></trkpt><trkpt lat="43.3089933" lon="7.18712"><ele>0.0</ele><time>2026-04-30T23:26:31.048Z</time></trkpt><trkpt lat="43.3090404" lon="7.1872077"><ele>0.0</ele><time>2026-04-30T23:26:32.047Z</time></trkpt><trkpt lat="43.3090897" lon="7.1872897"><ele>0.0</ele><time>2026-04-30T23:26:33.048Z</time></trkpt><trkpt lat="43.3091384" lon="7.1873738"><ele>0.0</ele><time>2026-04-30T23:26:34.047Z</time></trkpt><trkpt lat="43.3091809" lon="7.1874621"><ele>0.0</ele><time>2026-04-30T23:26:35.047Z</time></trkpt><trkpt lat="43.3092238" lon="7.187545"><ele>0.0</ele><time>2026-04-30T23:26:36.048Z</time></trkpt><trkpt lat="43.3092687" lon="7.1876325"><ele>0.0</ele><time>2026-04-30T23:26:37.047Z</time></trkpt><trkpt lat="43.3093196" lon="7.187726"><ele>0.0</ele><time>2026-04-30T23:26:38.048Z</time></trkpt><trkpt lat="43.3093709" lon="7.1878176"><ele>0.0</ele><time>2026-04-30T23:26:39.048Z</time></trkpt><trkpt lat="43.3094202" lon="7.1879151"><ele>0.0</ele><time>2026-04-30T23:26:40.047Z</time></trkpt><trkpt lat="43.3094669" lon="7.1880061"><ele>0.0</ele><time>2026-04-30T23:26:41.047Z</time></trkpt><trkpt lat="43.3095904" lon="7.1882736"><ele>0.0</ele><time>2026-04-30T23:26:44.048Z</time></trkpt><trkpt lat="43.30963" lon="7.1883634"><ele>0.0</ele><time>2026-04-30T23:26:45.047Z</time></trkpt><trkpt lat="43.3096734" lon="7.1884504"><ele>0.0</ele><time>2026-04-30T23:26:46.047Z</time></trkpt><trkpt lat="43.3097226" lon="7.1885371"><ele>0.0</ele><time>2026-04-30T23:26:47.046Z</time></trkpt><trkpt lat="43.3097729" lon="7.1886294"><ele>0.0</ele><time>2026-04-30T23:26:48.046Z</time></trkpt><trkpt lat="43.3098217" lon="7.1887159"><ele>0.0</ele><time>2026-04-30T23:26:49.047Z</time></trkpt><trkpt lat="43.3098683" lon="7.1888001"><ele>0.0</ele><time>2026-04-30T23:26:50.046Z</time></trkpt><trkpt lat="43.3099178" lon="7.1888907"><ele>0.0</ele><time>2026-04-30T23:26:51.046Z</time></trkpt><trkpt lat="43.3099739" lon="7.1889775"><ele>0.0</ele><time>2026-04-30T23:26:52.046Z</time></trkpt><trkpt lat="43.3100298" lon="7.1890644"><ele>0.0</ele><time>2026-04-30T23:26:53.046Z</time></trkpt><trkpt lat="43.3100833" lon="7.1891466"><ele>0.0</ele><time>2026-04-30T23:26:54.046Z</time></trkpt><trkpt lat="43.3101275" lon="7.1892393"><ele>0.0</ele><time>2026-04-30T23:26:55.047Z</time></trkpt><trkpt lat="43.3101763" lon="7.1893278"><ele>0.0</ele><time>2026-04-30T23:26:56.047Z</time></trkpt><trkpt lat="43.3102273" lon="7.1894138"><ele>0.0</ele><time>2026-04-30T23:26:57.047Z</time></trkpt><trkpt lat="43.3102782" lon="7.1894972"><ele>0.0</ele><time>2026-04-30T23:26:58.046Z</time></trkpt><trkpt lat="43.3103268" lon="7.189582"><ele>0.0</ele><time>2026-04-30T23:26:59.047Z</time></trkpt><trkpt lat="43.3103738" lon="7.1896684"><ele>0.0</ele><time>2026-04-30T23:27:00.047Z</time></trkpt><trkpt lat="43.3104237" lon="7.1897708"><ele>0.0</ele><time>2026-04-30T23:27:01.046Z</time></trkpt><trkpt lat="43.3104699" lon="7.1898634"><ele>0.0</ele><time>2026-04-30T23:27:02.047Z</time></trkpt><trkpt lat="43.3105148" lon="7.1899506"><ele>0.0</ele><time>2026-04-30T23:27:03.047Z</time></trkpt><trkpt lat="43.3106064" lon="7.1901312"><ele>0.0</ele><time>2026-04-30T23:27:05.046Z</time></trkpt><trkpt lat="43.3106443" lon="7.1902286"><ele>0.0</ele><time>2026-04-30T23:27:06.046Z</time></trkpt><trkpt lat="43.3106831" lon="7.1903137"><ele>0.0</ele><time>2026-04-30T23:27:07.047Z</time></trkpt><trkpt lat="43.3107227" lon="7.1904037"><ele>0.0</ele><time>2026-04-30T23:27:08.046Z</time></trkpt><trkpt lat="43.3107752" lon="7.1905009"><ele>0.0</ele><time>2026-04-30T23:27:09.047Z</time></trkpt><trkpt lat="43.3108146" lon="7.1905936"><ele>0.0</ele><time>2026-04-30T23:27:10.047Z</time></trkpt><trkpt lat="43.3108573" lon="7.1906896"><ele>0.0</ele><time>2026-04-30T23:27:11.047Z</time></trkpt><trkpt lat="43.3108937" lon="7.1907818"><ele>0.0</ele><time>2026-04-30T23:27:12.046Z</time></trkpt><trkpt lat="43.3109353" lon="7.1908682"><ele>0.0</ele><time>2026-04-30T23:27:13.047Z</time></trkpt><trkpt lat="43.3109802" lon="7.1909578"><ele>0.0</ele><time>2026-04-30T23:27:14.047Z</time></trkpt><trkpt lat="43.3110631" lon="7.1911342"><ele>0.0</ele><time>2026-04-30T23:27:16.047Z</time></trkpt><trkpt lat="43.3111151" lon="7.1912274"><ele>0.0</ele><time>2026-04-30T23:27:17.046Z</time></trkpt><trkpt lat="43.3111646" lon="7.1913229"><ele>0.0</ele><time>2026-04-30T23:27:18.046Z</time></trkpt><trkpt lat="43.3112205" lon="7.1914152"><ele>0.0</ele><time>2026-04-30T23:27:19.046Z</time></trkpt><trkpt lat="43.3112956" lon="7.191503"><ele>0.0</ele><time>2026-04-30T23:27:20.046Z</time></trkpt><trkpt lat="43.3113382" lon="7.1915905"><ele>0.0</ele><time>2026-04-30T23:27:21.047Z</time></trkpt><trkpt lat="43.3113779" lon="7.1916816"><ele>0.0</ele><time>2026-04-30T23:27:22.046Z</time></trkpt><trkpt lat="43.3114179" lon="7.1917709"><ele>0.0</ele><time>2026-04-30T23:27:23.047Z</time></trkpt><trkpt lat="43.3114632" lon="7.1918571"><ele>0.0</ele><time>2026-04-30T23:27:24.047Z</time></trkpt><trkpt lat="43.3115522" lon="7.1920308"><ele>0.0</ele><time>2026-04-30T23:27:26.047Z</time></trkpt><trkpt lat="43.3116041" lon="7.1921167"><ele>0.0</ele><time>2026-04-30T23:27:27.047Z</time></trkpt><trkpt lat="43.311649" lon="7.1922024"><ele>0.0</ele><time>2026-04-30T23:27:28.047Z</time></trkpt><trkpt lat="43.311698" lon="7.1923034"><ele>0.0</ele><time>2026-04-30T23:27:29.046Z</time></trkpt><trkpt lat="43.3117497" lon="7.1924067"><ele>0.0</ele><time>2026-04-30T23:27:30.047Z</time></trkpt><trkpt lat="43.3118013" lon="7.1925114"><ele>0.0</ele><time>2026-04-30T23:27:31.046Z</time></trkpt><trkpt lat="43.3118413" lon="7.1926076"><ele>0.0</ele><time>2026-04-30T23:27:32.046Z</time></trkpt><trkpt lat="43.3118823" lon="7.1926983"><ele>0.0</ele><time>2026-04-30T23:27:33.046Z</time></trkpt><trkpt lat="43.3119352" lon="7.1927982"><ele>0.0</ele><time>2026-04-30T23:27:34.046Z</time></trkpt><trkpt lat="43.3119861" lon="7.1928894"><ele>0.0</ele><time>2026-04-30T23:27:35.047Z</time></trkpt><trkpt lat="43.3120333" lon="7.1929817"><ele>0.0</ele><time>2026-04-30T23:27:36.047Z</time></trkpt><trkpt lat="43.3120887" lon="7.1930789"><ele>0.0</ele><time>2026-04-30T23:27:37.046Z</time></trkpt><trkpt lat="43.3121505" lon="7.1931685"><ele>0.0</ele><time>2026-04-30T23:27:38.047Z</time></trkpt><trkpt lat="43.3122029" lon="7.1932628"><ele>0.0</ele><time>2026-04-30T23:27:39.046Z</time></trkpt><trkpt lat="43.3122533" lon="7.1933553"><ele>0.0</ele><time>2026-04-30T23:27:40.046Z</time></trkpt><trkpt lat="43.3123052" lon="7.1934452"><ele>0.0</ele><time>2026-04-30T23:27:41.047Z</time></trkpt><trkpt lat="43.3123665" lon="7.1935335"><ele>0.0</ele><time>2026-04-30T23:27:42.046Z</time></trkpt><trkpt lat="43.312426" lon="7.193615"><ele>0.0</ele><time>2026-04-30T23:27:43.046Z</time></trkpt><trkpt lat="43.3124873" lon="7.1937047"><ele>0.0</ele><time>2026-04-30T23:27:44.047Z</time></trkpt><trkpt lat="43.3125922" lon="7.1938807"><ele>0.0</ele><time>2026-04-30T23:27:46.046Z</time></trkpt><trkpt lat="43.3126393" lon="7.1939681"><ele>0.0</ele><time>2026-04-30T23:27:47.046Z</time></trkpt><trkpt lat="43.3127351" lon="7.1941486"><ele>0.0</ele><time>2026-04-30T23:27:49.047Z</time></trkpt><trkpt lat="43.3127821" lon="7.194234"><ele>0.0</ele><time>2026-04-30T23:27:50.046Z</time></trkpt><trkpt lat="43.3128398" lon="7.1943295"><ele>0.0</ele><time>2026-04-30T23:27:51.047Z</time></trkpt><trkpt lat="43.3128883" lon="7.1944183"><ele>0.0</ele><time>2026-04-30T23:27:52.046Z</time></trkpt><trkpt lat="43.312935" lon="7.19451"><ele>0.0</ele><time>2026-04-30T23:27:53.046Z</time></trkpt><trkpt lat="43.3129786" lon="7.1945976"><ele>0.0</ele><time>2026-04-30T23:27:54.046Z</time></trkpt><trkpt lat="43.3130202" lon="7.1946854"><ele>0.0</ele><time>2026-04-30T23:27:55.047Z</time></trkpt><trkpt lat="43.3130634" lon="7.1947706"><ele>0.0</ele><time>2026-04-30T23:27:56.046Z</time></trkpt><trkpt lat="43.3131076" lon="7.1948619"><ele>0.0</ele><time>2026-04-30T23:27:57.046Z</time></trkpt><trkpt lat="43.3131512" lon="7.1949602"><ele>0.0</ele><time>2026-04-30T23:27:58.047Z</time></trkpt><trkpt lat="43.3131965" lon="7.195049"><ele>0.0</ele><time>2026-04-30T23:27:59.047Z</time></trkpt><trkpt lat="43.3132398" lon="7.1951351"><ele>0.0</ele><time>2026-04-30T23:28:00.046Z</time></trkpt><trkpt lat="43.3132848" lon="7.195225"><ele>0.0</ele><time>2026-04-30T23:28:01.047Z</time></trkpt><trkpt lat="43.31333" lon="7.195312"><ele>0.0</ele><time>2026-04-30T23:28:02.047Z</time></trkpt><trkpt lat="43.3133768" lon="7.195397"><ele>0.0</ele><time>2026-04-30T23:28:03.046Z</time></trkpt><trkpt lat="43.3134266" lon="7.1954817"><ele>0.0</ele><time>2026-04-30T23:28:04.046Z</time></trkpt><trkpt lat="43.3134718" lon="7.1955669"><ele>0.0</ele><time>2026-04-30T23:28:05.047Z</time></trkpt><trkpt lat="43.3135599" lon="7.1957418"><ele>0.0</ele><time>2026-04-30T23:28:07.046Z</time></trkpt><trkpt lat="43.3136065" lon="7.1958311"><ele>0.0</ele><time>2026-04-30T23:28:08.047Z</time></trkpt><trkpt lat="43.3136559" lon="7.1959214"><ele>0.0</ele><time>2026-04-30T23:28:09.046Z</time></trkpt><trkpt lat="43.3137049" lon="7.1960099"><ele>0.0</ele><time>2026-04-30T23:28:10.047Z</time></trkpt><trkpt lat="43.3137545" lon="7.196097"><ele>0.0</ele><time>2026-04-30T23:28:11.046Z</time></trkpt><trkpt lat="43.3138073" lon="7.1961824"><ele>0.0</ele><time>2026-04-30T23:28:12.046Z</time></trkpt><trkpt lat="43.3138581" lon="7.1962732"><ele>0.0</ele><time>2026-04-30T23:28:13.047Z</time></trkpt><trkpt lat="43.3139085" lon="7.1963592"><ele>0.0</ele><time>2026-04-30T23:28:14.047Z</time></trkpt><trkpt lat="43.3139558" lon="7.196442"><ele>0.0</ele><time>2026-04-30T23:28:15.046Z</time></trkpt><trkpt lat="43.3139967" lon="7.196524"><ele>0.0</ele><time>2026-04-30T23:28:16.047Z</time></trkpt><trkpt lat="43.3140307" lon="7.1966152"><ele>0.0</ele><time>2026-04-30T23:28:17.046Z</time></trkpt><trkpt lat="43.3140697" lon="7.1966993"><ele>0.0</ele><time>2026-04-30T23:28:18.047Z</time></trkpt><trkpt lat="43.3141078" lon="7.1967879"><ele>0.0</ele><time>2026-04-30T23:28:19.046Z</time></trkpt><trkpt lat="43.3141803" lon="7.1969681"><ele>0.0</ele><time>2026-04-30T23:28:21.047Z</time></trkpt><trkpt lat="43.3142274" lon="7.1970591"><ele>0.0</ele><time>2026-04-30T23:28:22.047Z</time></trkpt><trkpt lat="43.3142734" lon="7.197143"><ele>0.0</ele><time>2026-04-30T23:28:23.046Z</time></trkpt><trkpt lat="43.3143222" lon="7.19723"><ele>0.0</ele><time>2026-04-30T23:28:24.046Z</time></trkpt><trkpt lat="43.3143665" lon="7.197323"><ele>0.0</ele><time>2026-04-30T23:28:25.046Z</time></trkpt><trkpt lat="43.3144128" lon="7.1974207"><ele>0.0</ele><time>2026-04-30T23:28:26.047Z</time></trkpt><trkpt lat="43.314503" lon="7.1976061"><ele>0.0</ele><time>2026-04-30T23:28:28.047Z</time></trkpt><trkpt lat="43.3145568" lon="7.1976993"><ele>0.0</ele><time>2026-04-30T23:28:29.046Z</time></trkpt><trkpt lat="43.3146048" lon="7.197793"><ele>0.0</ele><time>2026-04-30T23:28:30.046Z</time></trkpt><trkpt lat="43.3146516" lon="7.1978849"><ele>0.0</ele><time>2026-04-30T23:28:31.046Z</time></trkpt><trkpt lat="43.3146998" lon="7.1979749"><ele>0.0</ele><time>2026-04-30T23:28:32.047Z</time></trkpt><trkpt lat="43.3147464" lon="7.198068"><ele>0.0</ele><time>2026-04-30T23:28:33.046Z</time></trkpt><trkpt lat="43.3147945" lon="7.1981624"><ele>0.0</ele><time>2026-04-30T23:28:34.046Z</time></trkpt><trkpt lat="43.3148432" lon="7.1982532"><ele>0.0</ele><time>2026-04-30T23:28:35.046Z</time></trkpt><trkpt lat="43.3148901" lon="7.1983432"><ele>0.0</ele><time>2026-04-30T23:28:36.046Z</time></trkpt><trkpt lat="43.3149378" lon="7.1984373"><ele>0.0</ele><time>2026-04-30T23:28:37.047Z</time></trkpt><trkpt lat="43.3149866" lon="7.1985311"><ele>0.0</ele><time>2026-04-30T23:28:38.046Z</time></trkpt><trkpt lat="43.3150366" lon="7.198623"><ele>0.0</ele><time>2026-04-30T23:28:39.047Z</time></trkpt><trkpt lat="43.3150851" lon="7.1987105"><ele>0.0</ele><time>2026-04-30T23:28:40.046Z</time></trkpt><trkpt lat="43.3151291" lon="7.1987975"><ele>0.0</ele><time>2026-04-30T23:28:41.047Z</time></trkpt><trkpt lat="43.3151661" lon="7.1988828"><ele>0.0</ele><time>2026-04-30T23:28:42.046Z</time></trkpt><trkpt lat="43.3152069" lon="7.1989764"><ele>0.0</ele><time>2026-04-30T23:28:43.047Z</time></trkpt><trkpt lat="43.3152464" lon="7.1990698"><ele>0.0</ele><time>2026-04-30T23:28:44.047Z</time></trkpt><trkpt lat="43.3152922" lon="7.1991558"><ele>0.0</ele><time>2026-04-30T23:28:45.046Z</time></trkpt><trkpt lat="43.3153362" lon="7.1992425"><ele>0.0</ele><time>2026-04-30T23:28:46.047Z</time></trkpt><trkpt lat="43.3153778" lon="7.1993302"><ele>0.0</ele><time>2026-04-30T23:28:47.047Z</time></trkpt><trkpt lat="43.3154688" lon="7.199508"><ele>0.0</ele><time>2026-04-30T23:28:49.047Z</time></trkpt><trkpt lat="43.3155215" lon="7.1995998"><ele>0.0</ele><time>2026-04-30T23:28:50.047Z</time></trkpt><trkpt lat="43.3156273" lon="7.1997878"><ele>0.0</ele><time>2026-04-30T23:28:52.046Z</time></trkpt><trkpt lat="43.3156819" lon="7.1998809"><ele>0.0</ele><time>2026-04-30T23:28:53.046Z</time></trkpt><trkpt lat="43.3157349" lon="7.19997"><ele>0.0</ele><time>2026-04-30T23:28:54.046Z</time></trkpt><trkpt lat="43.3157898" lon="7.2000582"><ele>0.0</ele><time>2026-04-30T23:28:55.046Z</time></trkpt><trkpt lat="43.3158533" lon="7.2001434"><ele>0.0</ele><time>2026-04-30T23:28:56.047Z</time></trkpt><trkpt lat="43.3159131" lon="7.2002333"><ele>0.0</ele><time>2026-04-30T23:28:57.046Z</time></trkpt><trkpt lat="43.3159643" lon="7.2003308"><ele>0.0</ele><time>2026-04-30T23:28:58.047Z</time></trkpt><trkpt lat="43.3160136" lon="7.200422"><ele>0.0</ele><time>2026-04-30T23:28:59.047Z</time></trkpt><trkpt lat="43.3160603" lon="7.2005147"><ele>0.0</ele><time>2026-04-30T23:29:00.047Z</time></trkpt><trkpt lat="43.3161055" lon="7.2006061"><ele>0.0</ele><time>2026-04-30T23:29:01.046Z</time></trkpt><trkpt lat="43.3161561" lon="7.2006978"><ele>0.0</ele><time>2026-04-30T23:29:02.046Z</time></trkpt><trkpt lat="43.3162056" lon="7.2007878"><ele>0.0</ele><time>2026-04-30T23:29:03.046Z</time></trkpt><trkpt lat="43.3162535" lon="7.2008796"><ele>0.0</ele><time>2026-04-30T23:29:04.046Z</time></trkpt><trkpt lat="43.3163056" lon="7.2009762"><ele>0.0</ele><time>2026-04-30T23:29:05.047Z</time></trkpt><trkpt lat="43.3163619" lon="7.2010659"><ele>0.0</ele><time>2026-04-30T23:29:06.046Z</time></trkpt><trkpt lat="43.3164258" lon="7.2011478"><ele>0.0</ele><time>2026-04-30T23:29:07.046Z</time></trkpt><trkpt lat="43.3164827" lon="7.2012352"><ele>0.0</ele><time>2026-04-30T23:29:08.047Z</time></trkpt><trkpt lat="43.3165879" lon="7.2014052"><ele>0.0</ele><time>2026-04-30T23:29:10.047Z</time></trkpt><trkpt lat="43.3166371" lon="7.2014914"><ele>0.0</ele><time>2026-04-30T23:29:11.047Z</time></trkpt><trkpt lat="43.3166834" lon="7.2015794"><ele>0.0</ele><time>2026-04-30T23:29:12.046Z</time></trkpt><trkpt lat="43.3167327" lon="7.2016709"><ele>0.0</ele><time>2026-04-30T23:29:13.047Z</time></trkpt><trkpt lat="43.3167813" lon="7.2017627"><ele>0.0</ele><time>2026-04-30T23:29:14.046Z</time></trkpt><trkpt lat="43.3168185" lon="7.2018527"><ele>0.0</ele><time>2026-04-30T23:29:15.046Z</time></trkpt><trkpt lat="43.3168561" lon="7.2019384"><ele>0.0</ele><time>2026-04-30T23:29:16.046Z</time></trkpt><trkpt lat="43.3168901" lon="7.2020264"><ele>0.0</ele><time>2026-04-30T23:29:17.046Z</time></trkpt><trkpt lat="43.3169364" lon="7.2021201"><ele>0.0</ele><time>2026-04-30T23:29:18.046Z</time></trkpt><trkpt lat="43.3169943" lon="7.2022111"><ele>0.0</ele><time>2026-04-30T23:29:19.046Z</time></trkpt><trkpt lat="43.3170492" lon="7.2023029"><ele>0.0</ele><time>2026-04-30T23:29:20.046Z</time></trkpt><trkpt lat="43.3171043" lon="7.2023971"><ele>0.0</ele><time>2026-04-30T23:29:21.046Z</time></trkpt><trkpt lat="43.3171594" lon="7.2024912"><ele>0.0</ele><time>2026-04-30T23:29:22.046Z</time></trkpt><trkpt lat="43.3172256" lon="7.2025706"><ele>0.0</ele><time>2026-04-30T23:29:23.047Z</time></trkpt><trkpt lat="43.317278" lon="7.2026642"><ele>0.0</ele><time>2026-04-30T23:29:24.047Z</time></trkpt><trkpt lat="43.3173635" lon="7.202863"><ele>0.0</ele><time>2026-04-30T23:29:26.047Z</time></trkpt><trkpt lat="43.3174134" lon="7.2029507"><ele>0.0</ele><time>2026-04-30T23:29:27.047Z</time></trkpt><trkpt lat="43.3174563" lon="7.2030328"><ele>0.0</ele><time>2026-04-30T23:29:28.047Z</time></trkpt><trkpt lat="43.3174949" lon="7.2031204"><ele>0.0</ele><time>2026-04-30T23:29:29.047Z</time></trkpt><trkpt lat="43.3175751" lon="7.2033076"><ele>0.0</ele><time>2026-04-30T23:29:31.046Z</time></trkpt><trkpt lat="43.3176241" lon="7.2033984"><ele>0.0</ele><time>2026-04-30T23:29:32.046Z</time></trkpt><trkpt lat="43.3176758" lon="7.2034811"><ele>0.0</ele><time>2026-04-30T23:29:33.047Z</time></trkpt><trkpt lat="43.3177276" lon="7.2035608"><ele>0.0</ele><time>2026-04-30T23:29:34.047Z</time></trkpt><trkpt lat="43.3177767" lon="7.2036418"><ele>0.0</ele><time>2026-04-30T23:29:35.046Z</time></trkpt><trkpt lat="43.3178234" lon="7.2037263"><ele>0.0</ele><time>2026-04-30T23:29:36.046Z</time></trkpt><trkpt lat="43.31787" lon="7.2038129"><ele>0.0</ele><time>2026-04-30T23:29:37.046Z</time></trkpt><trkpt lat="43.3179197" lon="7.2039039"><ele>0.0</ele><time>2026-04-30T23:29:38.047Z</time></trkpt><trkpt lat="43.3179713" lon="7.2039944"><ele>0.0</ele><time>2026-04-30T23:29:39.047Z</time></trkpt><trkpt lat="43.31802" lon="7.2040843"><ele>0.0</ele><time>2026-04-30T23:29:40.047Z</time></trkpt><trkpt lat="43.3180697" lon="7.2041773"><ele>0.0</ele><time>2026-04-30T23:29:41.046Z</time></trkpt><trkpt lat="43.3181224" lon="7.2042692"><ele>0.0</ele><time>2026-04-30T23:29:42.047Z</time></trkpt><trkpt lat="43.3181701" lon="7.2043595"><ele>0.0</ele><time>2026-04-30T23:29:43.047Z</time></trkpt><trkpt lat="43.3182209" lon="7.2044509"><ele>0.0</ele><time>2026-04-30T23:29:44.046Z</time></trkpt><trkpt lat="43.3182742" lon="7.2045443"><ele>0.0</ele><time>2026-04-30T23:29:45.047Z</time></trkpt><trkpt lat="43.3183261" lon="7.2046362"><ele>0.0</ele><time>2026-04-30T23:29:46.047Z</time></trkpt><trkpt lat="43.3183738" lon="7.2047265"><ele>0.0</ele><time>2026-04-30T23:29:47.046Z</time></trkpt><trkpt lat="43.3184246" lon="7.204815"><ele>0.0</ele><time>2026-04-30T23:29:48.047Z</time></trkpt><trkpt lat="43.3184778" lon="7.2049067"><ele>0.0</ele><time>2026-04-30T23:29:49.047Z</time></trkpt><trkpt lat="43.3185286" lon="7.2049971"><ele>0.0</ele><time>2026-04-30T23:29:50.046Z</time></trkpt><trkpt lat="43.3186184" lon="7.2051731"><ele>0.0</ele><time>2026-04-30T23:29:52.046Z</time></trkpt><trkpt lat="43.318663" lon="7.2052585"><ele>0.0</ele><time>2026-04-30T23:29:53.047Z</time></trkpt><trkpt lat="43.3187097" lon="7.2053467"><ele>0.0</ele><time>2026-04-30T23:29:54.046Z</time></trkpt><trkpt lat="43.3187566" lon="7.2054368"><ele>0.0</ele><time>2026-04-30T23:29:55.046Z</time></trkpt><trkpt lat="43.318809" lon="7.2055278"><ele>0.0</ele><time>2026-04-30T23:29:56.047Z</time></trkpt><trkpt lat="43.318912" lon="7.2057145"><ele>0.0</ele><time>2026-04-30T23:29:58.046Z</time></trkpt><trkpt lat="43.318959" lon="7.2058077"><ele>0.0</ele><time>2026-04-30T23:29:59.046Z</time></trkpt><trkpt lat="43.3189941" lon="7.2058979"><ele>0.0</ele><time>2026-04-30T23:30:00.046Z</time></trkpt><trkpt lat="43.3190316" lon="7.2059898"><ele>0.0</ele><time>2026-04-30T23:30:01.046Z</time></trkpt><trkpt lat="43.3190693" lon="7.2060817"><ele>0.0</ele><time>2026-04-30T23:30:02.046Z</time></trkpt><trkpt lat="43.3191035" lon="7.2061722"><ele>0.0</ele><time>2026-04-30T23:30:03.046Z</time></trkpt><trkpt lat="43.3191424" lon="7.2062609"><ele>0.0</ele><time>2026-04-30T23:30:04.046Z</time></trkpt><trkpt lat="43.3191834" lon="7.2063532"><ele>0.0</ele><time>2026-04-30T23:30:05.047Z</time></trkpt><trkpt lat="43.3192264" lon="7.2064424"><ele>0.0</ele><time>2026-04-30T23:30:06.047Z</time></trkpt><trkpt lat="43.3192743" lon="7.2065318"><ele>0.0</ele><time>2026-04-30T23:30:07.046Z</time></trkpt><trkpt lat="43.3193186" lon="7.2066203"><ele>0.0</ele><time>2026-04-30T23:30:08.047Z</time></trkpt><trkpt lat="43.3193618" lon="7.2067098"><ele>0.0</ele><time>2026-04-30T23:30:09.047Z</time></trkpt><trkpt lat="43.3193995" lon="7.2068024"><ele>0.0</ele><time>2026-04-30T23:30:10.046Z</time></trkpt><trkpt lat="43.3194419" lon="7.2068905"><ele>0.0</ele><time>2026-04-30T23:30:11.046Z</time></trkpt><trkpt lat="43.3195345" lon="7.2070781"><ele>0.0</ele><time>2026-04-30T23:30:13.046Z</time></trkpt><trkpt lat="43.3195816" lon="7.2071704"><ele>0.0</ele><time>2026-04-30T23:30:14.046Z</time></trkpt><trkpt lat="43.3196253" lon="7.207259"><ele>0.0</ele><time>2026-04-30T23:30:15.047Z</time></trkpt><trkpt lat="43.3196755" lon="7.2073445"><ele>0.0</ele><time>2026-04-30T23:30:16.047Z</time></trkpt><trkpt lat="43.3197205" lon="7.2074337"><ele>0.0</ele><time>2026-04-30T23:30:17.046Z</time></trkpt><trkpt lat="43.3197625" lon="7.2075222"><ele>0.0</ele><time>2026-04-30T23:30:18.046Z</time></trkpt><trkpt lat="43.3198135" lon="7.2076054"><ele>0.0</ele><time>2026-04-30T23:30:19.046Z</time></trkpt><trkpt lat="43.3198545" lon="7.2076911"><ele>0.0</ele><time>2026-04-30T23:30:20.047Z</time></trkpt><trkpt lat="43.3198943" lon="7.2077819"><ele>0.0</ele><time>2026-04-30T23:30:21.046Z</time></trkpt><trkpt lat="43.3199271" lon="7.2078815"><ele>0.0</ele><time>2026-04-30T23:30:22.047Z</time></trkpt><trkpt lat="43.3199804" lon="7.2079759"><ele>0.0</ele><time>2026-04-30T23:30:23.046Z</time></trkpt><trkpt lat="43.3200356" lon="7.2080593"><ele>0.0</ele><time>2026-04-30T23:30:24.046Z</time></trkpt><trkpt lat="43.3200838" lon="7.2081391"><ele>0.0</ele><time>2026-04-30T23:30:25.047Z</time></trkpt><trkpt lat="43.3201332" lon="7.2082278"><ele>0.0</ele><time>2026-04-30T23:30:26.046Z</time></trkpt><trkpt lat="43.3201834" lon="7.2083208"><ele>0.0</ele><time>2026-04-30T23:30:27.047Z</time></trkpt><trkpt lat="43.3202296" lon="7.2084117"><ele>0.0</ele><time>2026-04-30T23:30:28.047Z</time></trkpt><trkpt lat="43.3203104" lon="7.208603"><ele>0.0</ele><time>2026-04-30T23:30:30.047Z</time></trkpt><trkpt lat="43.3203622" lon="7.2086904"><ele>0.0</ele><time>2026-04-30T23:30:31.047Z</time></trkpt><trkpt lat="43.3204131" lon="7.2087799"><ele>0.0</ele><time>2026-04-30T23:30:32.047Z</time></trkpt><trkpt lat="43.3204928" lon="7.2089841"><ele>0.0</ele><time>2026-04-30T23:30:34.047Z</time></trkpt><trkpt lat="43.3205312" lon="7.2090949"><ele>0.0</ele><time>2026-04-30T23:30:35.046Z</time></trkpt><trkpt lat="43.3205809" lon="7.2091923"><ele>0.0</ele><time>2026-04-30T23:30:36.046Z</time></trkpt><trkpt lat="43.3206297" lon="7.2092893"><ele>0.0</ele><time>2026-04-30T23:30:37.046Z</time></trkpt><trkpt lat="43.3206795" lon="7.2093864"><ele>0.0</ele><time>2026-04-30T23:30:38.047Z</time></trkpt><trkpt lat="43.3207258" lon="7.2094746"><ele>0.0</ele><time>2026-04-30T23:30:39.047Z</time></trkpt><trkpt lat="43.3207697" lon="7.2095666"><ele>0.0</ele><time>2026-04-30T23:30:40.047Z</time></trkpt><trkpt lat="43.3208213" lon="7.2096538"><ele>0.0</ele><time>2026-04-30T23:30:41.046Z</time></trkpt><trkpt lat="43.3208702" lon="7.2097417"><ele>0.0</ele><time>2026-04-30T23:30:42.047Z</time></trkpt><trkpt lat="43.3209197" lon="7.2098214"><ele>0.0</ele><time>2026-04-30T23:30:43.046Z</time></trkpt><trkpt lat="43.3209653" lon="7.2099072"><ele>0.0</ele><time>2026-04-30T23:30:44.046Z</time></trkpt><trkpt lat="43.3210132" lon="7.2099933"><ele>0.0</ele><time>2026-04-30T23:30:45.046Z</time></trkpt><trkpt lat="43.3210586" lon="7.2100954"><ele>0.0</ele><time>2026-04-30T23:30:46.046Z</time></trkpt><trkpt lat="43.3211121" lon="7.2101918"><ele>0.0</ele><time>2026-04-30T23:30:47.047Z</time></trkpt><trkpt lat="43.3211643" lon="7.2102818"><ele>0.0</ele><time>2026-04-30T23:30:48.047Z</time></trkpt><trkpt lat="43.3212148" lon="7.2103642"><ele>0.0</ele><time>2026-04-30T23:30:49.047Z</time></trkpt><trkpt lat="43.3212564" lon="7.2104529"><ele>0.0</ele><time>2026-04-30T23:30:50.047Z</time></trkpt><trkpt lat="43.3213023" lon="7.2105305"><ele>0.0</ele><time>2026-04-30T23:30:51.046Z</time></trkpt><trkpt lat="43.3213518" lon="7.2106081"><ele>0.0</ele><time>2026-04-30T23:30:52.046Z</time></trkpt><trkpt lat="43.3214018" lon="7.2106916"><ele>0.0</ele><time>2026-04-30T23:30:53.047Z</time></trkpt><trkpt lat="43.3214931" lon="7.2108577"><ele>0.0</ele><time>2026-04-30T23:30:55.046Z</time></trkpt><trkpt lat="43.3215445" lon="7.2109377"><ele>0.0</ele><time>2026-04-30T23:30:56.046Z</time></trkpt><trkpt lat="43.3216049" lon="7.2110189"><ele>0.0</ele><time>2026-04-30T23:30:57.046Z</time></trkpt><trkpt lat="43.321668" lon="7.2111039"><ele>0.0</ele><time>2026-04-30T23:30:58.047Z</time></trkpt><trkpt lat="43.3217201" lon="7.2111891"><ele>0.0</ele><time>2026-04-30T23:30:59.046Z</time></trkpt><trkpt lat="43.3217364" lon="7.2112897"><ele>0.0</ele><time>2026-04-30T23:31:00.047Z</time></trkpt><trkpt lat="43.3217806" lon="7.2113804"><ele>0.0</ele><time>2026-04-30T23:31:01.047Z</time></trkpt><trkpt lat="43.3218825" lon="7.2115541"><ele>0.0</ele><time>2026-04-30T23:31:03.047Z</time></trkpt><trkpt lat="43.3219342" lon="7.2116462"><ele>0.0</ele><time>2026-04-30T23:31:04.046Z</time></trkpt><trkpt lat="43.3219877" lon="7.2117373"><ele>0.0</ele><time>2026-04-30T23:31:05.047Z</time></trkpt><trkpt lat="43.3220425" lon="7.21182"><ele>0.0</ele><time>2026-04-30T23:31:06.047Z</time></trkpt><trkpt lat="43.3220928" lon="7.2119044"><ele>0.0</ele><time>2026-04-30T23:31:07.046Z</time></trkpt><trkpt lat="43.3221357" lon="7.211989"><ele>0.0</ele><time>2026-04-30T23:31:08.047Z</time></trkpt><trkpt lat="43.3221827" lon="7.2120815"><ele>0.0</ele><time>2026-04-30T23:31:09.046Z</time></trkpt><trkpt lat="43.3222381" lon="7.2121733"><ele>0.0</ele><time>2026-04-30T23:31:10.047Z</time></trkpt><trkpt lat="43.3222934" lon="7.2122634"><ele>0.0</ele><time>2026-04-30T23:31:11.047Z</time></trkpt><trkpt lat="43.3223514" lon="7.212358"><ele>0.0</ele><time>2026-04-30T23:31:12.046Z</time></trkpt><trkpt lat="43.3224073" lon="7.2124499"><ele>0.0</ele><time>2026-04-30T23:31:13.047Z</time></trkpt><trkpt lat="43.322467" lon="7.2125546"><ele>0.0</ele><time>2026-04-30T23:31:14.047Z</time></trkpt><trkpt lat="43.3225628" lon="7.2127272"><ele>0.0</ele><time>2026-04-30T23:31:16.046Z</time></trkpt><trkpt lat="43.3226182" lon="7.2128118"><ele>0.0</ele><time>2026-04-30T23:31:17.047Z</time></trkpt><trkpt lat="43.3226712" lon="7.2128939"><ele>0.0</ele><time>2026-04-30T23:31:18.046Z</time></trkpt><trkpt lat="43.3227214" lon="7.2129756"><ele>0.0</ele><time>2026-04-30T23:31:19.046Z</time></trkpt><trkpt lat="43.3227704" lon="7.2130572"><ele>0.0</ele><time>2026-04-30T23:31:20.046Z</time></trkpt><trkpt lat="43.3228215" lon="7.2131507"><ele>0.0</ele><time>2026-04-30T23:31:21.046Z</time></trkpt><trkpt lat="43.3228762" lon="7.213236"><ele>0.0</ele><time>2026-04-30T23:31:22.047Z</time></trkpt><trkpt lat="43.3229294" lon="7.2133267"><ele>0.0</ele><time>2026-04-30T23:31:23.047Z</time></trkpt><trkpt lat="43.3229857" lon="7.2134109"><ele>0.0</ele><time>2026-04-30T23:31:24.047Z</time></trkpt><trkpt lat="43.323034" lon="7.2135056"><ele>0.0</ele><time>2026-04-30T23:31:25.047Z</time></trkpt><trkpt lat="43.3230868" lon="7.213592"><ele>0.0</ele><time>2026-04-30T23:31:26.046Z</time></trkpt><trkpt lat="43.3231381" lon="7.2136715"><ele>0.0</ele><time>2026-04-30T23:31:27.047Z</time></trkpt><trkpt lat="43.3231851" lon="7.2137493"><ele>0.0</ele><time>2026-04-30T23:31:28.046Z</time></trkpt><trkpt lat="43.3232371" lon="7.2138307"><ele>0.0</ele><time>2026-04-30T23:31:29.046Z</time></trkpt><trkpt lat="43.3232893" lon="7.2139184"><ele>0.0</ele><time>2026-04-30T23:31:30.047Z</time></trkpt><trkpt lat="43.3233427" lon="7.2140124"><ele>0.0</ele><time>2026-04-30T23:31:31.047Z</time></trkpt><trkpt lat="43.3233959" lon="7.2141064"><ele>0.0</ele><time>2026-04-30T23:31:32.047Z</time></trkpt><trkpt lat="43.323445" lon="7.2141994"><ele>0.0</ele><time>2026-04-30T23:31:33.047Z</time></trkpt><trkpt lat="43.3235596" lon="7.2143728"><ele>0.0</ele><time>2026-04-30T23:31:35.046Z</time></trkpt><trkpt lat="43.3236596" lon="7.2145519"><ele>0.0</ele><time>2026-04-30T23:31:37.046Z</time></trkpt><trkpt lat="43.3237085" lon="7.2146385"><ele>0.0</ele><time>2026-04-30T23:31:38.047Z</time></trkpt><trkpt lat="43.3237624" lon="7.2147211"><ele>0.0</ele><time>2026-04-30T23:31:39.046Z</time></trkpt><trkpt lat="43.3238118" lon="7.2148127"><ele>0.0</ele><time>2026-04-30T23:31:40.046Z</time></trkpt><trkpt lat="43.3238601" lon="7.2149017"><ele>0.0</ele><time>2026-04-30T23:31:41.046Z</time></trkpt><trkpt lat="43.3239109" lon="7.2149925"><ele>0.0</ele><time>2026-04-30T23:31:42.047Z</time></trkpt><trkpt lat="43.3239617" lon="7.2150785"><ele>0.0</ele><time>2026-04-30T23:31:43.046Z</time></trkpt><trkpt lat="43.3240116" lon="7.2151608"><ele>0.0</ele><time>2026-04-30T23:31:44.047Z</time></trkpt><trkpt lat="43.3240601" lon="7.215241"><ele>0.0</ele><time>2026-04-30T23:31:45.046Z</time></trkpt><trkpt lat="43.3241171" lon="7.2153225"><ele>0.0</ele><time>2026-04-30T23:31:46.046Z</time></trkpt><trkpt lat="43.324165" lon="7.2154043"><ele>0.0</ele><time>2026-04-30T23:31:47.046Z</time></trkpt><trkpt lat="43.3242134" lon="7.2154802"><ele>0.0</ele><time>2026-04-30T23:31:48.047Z</time></trkpt><trkpt lat="43.3242632" lon="7.2155673"><ele>0.0</ele><time>2026-04-30T23:31:49.047Z</time></trkpt><trkpt lat="43.3243161" lon="7.2156578"><ele>0.0</ele><time>2026-04-30T23:31:50.047Z</time></trkpt><trkpt lat="43.3243676" lon="7.2157525"><ele>0.0</ele><time>2026-04-30T23:31:51.046Z</time></trkpt><trkpt lat="43.3244194" lon="7.2158476"><ele>0.0</ele><time>2026-04-30T23:31:52.047Z</time></trkpt><trkpt lat="43.3244714" lon="7.2159408"><ele>0.0</ele><time>2026-04-30T23:31:53.046Z</time></trkpt><trkpt lat="43.3245284" lon="7.216026"><ele>0.0</ele><time>2026-04-30T23:31:54.046Z</time></trkpt><trkpt lat="43.3245772" lon="7.2161092"><ele>0.0</ele><time>2026-04-30T23:31:55.046Z</time></trkpt><trkpt lat="43.324626" lon="7.2161943"><ele>0.0</ele><time>2026-04-30T23:31:56.047Z</time></trkpt><trkpt lat="43.3247397" lon="7.2163608"><ele>0.0</ele><time>2026-04-30T23:31:58.046Z</time></trkpt><trkpt lat="43.3247926" lon="7.2164467"><ele>0.0</ele><time>2026-04-30T23:31:59.046Z</time></trkpt><trkpt lat="43.3248457" lon="7.2165306"><ele>0.0</ele><time>2026-04-30T23:32:00.047Z</time></trkpt><trkpt lat="43.3248949" lon="7.2166209"><ele>0.0</ele><time>2026-04-30T23:32:01.047Z</time></trkpt><trkpt lat="43.3249446" lon="7.2167097"><ele>0.0</ele><time>2026-04-30T23:32:02.047Z</time></trkpt><trkpt lat="43.3249918" lon="7.2167896"><ele>0.0</ele><time>2026-04-30T23:32:03.046Z</time></trkpt><trkpt lat="43.3250375" lon="7.216874"><ele>0.0</ele><time>2026-04-30T23:32:04.046Z</time></trkpt><trkpt lat="43.3250823" lon="7.2169602"><ele>0.0</ele><time>2026-04-30T23:32:05.047Z</time></trkpt><trkpt lat="43.3251746" lon="7.2171291"><ele>0.0</ele><time>2026-04-30T23:32:07.046Z</time></trkpt><trkpt lat="43.3252215" lon="7.2172179"><ele>0.0</ele><time>2026-04-30T23:32:08.046Z</time></trkpt><trkpt lat="43.3252653" lon="7.2173035"><ele>0.0</ele><time>2026-04-30T23:32:09.046Z</time></trkpt><trkpt lat="43.3253127" lon="7.2173988"><ele>0.0</ele><time>2026-04-30T23:32:10.046Z</time></trkpt><trkpt lat="43.3253627" lon="7.2174954"><ele>0.0</ele><time>2026-04-30T23:32:11.046Z</time></trkpt><trkpt lat="43.3254157" lon="7.2175835"><ele>0.0</ele><time>2026-04-30T23:32:12.046Z</time></trkpt><trkpt lat="43.3254695" lon="7.2176758"><ele>0.0</ele><time>2026-04-30T23:32:13.047Z</time></trkpt><trkpt lat="43.3255231" lon="7.2177669"><ele>0.0</ele><time>2026-04-30T23:32:14.046Z</time></trkpt><trkpt lat="43.3255762" lon="7.2178655"><ele>0.0</ele><time>2026-04-30T23:32:15.046Z</time></trkpt><trkpt lat="43.3256325" lon="7.2179539"><ele>0.0</ele><time>2026-04-30T23:32:16.047Z</time></trkpt><trkpt lat="43.3256922" lon="7.2180407"><ele>0.0</ele><time>2026-04-30T23:32:17.047Z</time></trkpt><trkpt lat="43.3258022" lon="7.2181987"><ele>0.0</ele><time>2026-04-30T23:32:19.046Z</time></trkpt><trkpt lat="43.3258631" lon="7.2182767"><ele>0.0</ele><time>2026-04-30T23:32:20.047Z</time></trkpt><trkpt lat="43.3259174" lon="7.2183671"><ele>0.0</ele><time>2026-04-30T23:32:21.046Z</time></trkpt><trkpt lat="43.3259709" lon="7.2184487"><ele>0.0</ele><time>2026-04-30T23:32:22.047Z</time></trkpt><trkpt lat="43.3260216" lon="7.2185334"><ele>0.0</ele><time>2026-04-30T23:32:23.046Z</time></trkpt><trkpt lat="43.3260719" lon="7.2186197"><ele>0.0</ele><time>2026-04-30T23:32:24.047Z</time></trkpt><trkpt lat="43.3261199" lon="7.218714"><ele>0.0</ele><time>2026-04-30T23:32:25.046Z</time></trkpt><trkpt lat="43.3261745" lon="7.2188103"><ele>0.0</ele><time>2026-04-30T23:32:26.046Z</time></trkpt><trkpt lat="43.3262265" lon="7.2189028"><ele>0.0</ele><time>2026-04-30T23:32:27.046Z</time></trkpt><trkpt lat="43.3262766" lon="7.2189905"><ele>0.0</ele><time>2026-04-30T23:32:28.046Z</time></trkpt><trkpt lat="43.3263223" lon="7.2190785"><ele>0.0</ele><time>2026-04-30T23:32:29.046Z</time></trkpt><trkpt lat="43.3263702" lon="7.2191678"><ele>0.0</ele><time>2026-04-30T23:32:30.047Z</time></trkpt><trkpt lat="43.3264185" lon="7.219255"><ele>0.0</ele><time>2026-04-30T23:32:31.046Z</time></trkpt><trkpt lat="43.3264635" lon="7.219345"><ele>0.0</ele><time>2026-04-30T23:32:32.046Z</time></trkpt><trkpt lat="43.3265011" lon="7.2194419"><ele>0.0</ele><time>2026-04-30T23:32:33.047Z</time></trkpt><trkpt lat="43.3265447" lon="7.2195372"><ele>0.0</ele><time>2026-04-30T23:32:34.046Z</time></trkpt><trkpt lat="43.3265956" lon="7.2196311"><ele>0.0</ele><time>2026-04-30T23:32:35.045Z</time></trkpt><trkpt lat="43.3266491" lon="7.2197219"><ele>0.0</ele><time>2026-04-30T23:32:36.046Z</time></trkpt><trkpt lat="43.3267012" lon="7.2198075"><ele>0.0</ele><time>2026-04-30T23:32:37.046Z</time></trkpt><trkpt lat="43.3268485" lon="7.2200898"><ele>0.0</ele><time>2026-04-30T23:32:40.046Z</time></trkpt><trkpt lat="43.3268979" lon="7.2201785"><ele>0.0</ele><time>2026-04-30T23:32:41.045Z</time></trkpt><trkpt lat="43.3269478" lon="7.2202669"><ele>0.0</ele><time>2026-04-30T23:32:42.045Z</time></trkpt><trkpt lat="43.326995" lon="7.220358"><ele>0.0</ele><time>2026-04-30T23:32:43.045Z</time></trkpt><trkpt lat="43.3270429" lon="7.2204453"><ele>0.0</ele><time>2026-04-30T23:32:44.046Z</time></trkpt><trkpt lat="43.3270958" lon="7.2205285"><ele>0.0</ele><time>2026-04-30T23:32:45.045Z</time></trkpt><trkpt lat="43.3271468" lon="7.2206151"><ele>0.0</ele><time>2026-04-30T23:32:46.046Z</time></trkpt><trkpt lat="43.327197" lon="7.2206986"><ele>0.0</ele><time>2026-04-30T23:32:47.046Z</time></trkpt><trkpt lat="43.3272453" lon="7.2207834"><ele>0.0</ele><time>2026-04-30T23:32:48.045Z</time></trkpt><trkpt lat="43.327292" lon="7.2208697"><ele>0.0</ele><time>2026-04-30T23:32:49.045Z</time></trkpt><trkpt lat="43.3273404" lon="7.2209565"><ele>0.0</ele><time>2026-04-30T23:32:50.046Z</time></trkpt><trkpt lat="43.3273887" lon="7.2210431"><ele>0.0</ele><time>2026-04-30T23:32:51.046Z</time></trkpt><trkpt lat="43.3274411" lon="7.2211366"><ele>0.0</ele><time>2026-04-30T23:32:52.045Z</time></trkpt><trkpt lat="43.327487" lon="7.2212308"><ele>0.0</ele><time>2026-04-30T23:32:53.046Z</time></trkpt><trkpt lat="43.3275294" lon="7.2213184"><ele>0.0</ele><time>2026-04-30T23:32:54.046Z</time></trkpt><trkpt lat="43.3275765" lon="7.2214061"><ele>0.0</ele><time>2026-04-30T23:32:55.045Z</time></trkpt><trkpt lat="43.3276265" lon="7.221496"><ele>0.0</ele><time>2026-04-30T23:32:56.045Z</time></trkpt><trkpt lat="43.3276747" lon="7.2215844"><ele>0.0</ele><time>2026-04-30T23:32:57.045Z</time></trkpt><trkpt lat="43.3277257" lon="7.2216799"><ele>0.0</ele><time>2026-04-30T23:32:58.046Z</time></trkpt><trkpt lat="43.3277833" lon="7.2217754"><ele>0.0</ele><time>2026-04-30T23:32:59.045Z</time></trkpt><trkpt lat="43.3278852" lon="7.2219503"><ele>0.0</ele><time>2026-04-30T23:33:01.045Z</time></trkpt><trkpt lat="43.3279354" lon="7.2220352"><ele>0.0</ele><time>2026-04-30T23:33:02.045Z</time></trkpt><trkpt lat="43.3279866" lon="7.2221213"><ele>0.0</ele><time>2026-04-30T23:33:03.046Z</time></trkpt><trkpt lat="43.3280354" lon="7.222204"><ele>0.0</ele><time>2026-04-30T23:33:04.046Z</time></trkpt><trkpt lat="43.3280834" lon="7.2222913"><ele>0.0</ele><time>2026-04-30T23:33:05.046Z</time></trkpt><trkpt lat="43.3281358" lon="7.2223853"><ele>0.0</ele><time>2026-04-30T23:33:06.045Z</time></trkpt><trkpt lat="43.3281895" lon="7.2224745"><ele>0.0</ele><time>2026-04-30T23:33:07.045Z</time></trkpt><trkpt lat="43.328243" lon="7.2225643"><ele>0.0</ele><time>2026-04-30T23:33:08.045Z</time></trkpt><trkpt lat="43.3282963" lon="7.2226576"><ele>0.0</ele><time>2026-04-30T23:33:09.045Z</time></trkpt><trkpt lat="43.328347" lon="7.2227448"><ele>0.0</ele><time>2026-04-30T23:33:10.045Z</time></trkpt><trkpt lat="43.328395" lon="7.222836"><ele>0.0</ele><time>2026-04-30T23:33:11.045Z</time></trkpt><trkpt lat="43.3284447" lon="7.2229294"><ele>0.0</ele><time>2026-04-30T23:33:12.045Z</time></trkpt><trkpt lat="43.3284951" lon="7.223017"><ele>0.0</ele><time>2026-04-30T23:33:13.045Z</time></trkpt><trkpt lat="43.3285467" lon="7.2231003"><ele>0.0</ele><time>2026-04-30T23:33:14.045Z</time></trkpt><trkpt lat="43.3285969" lon="7.2231835"><ele>0.0</ele><time>2026-04-30T23:33:15.046Z</time></trkpt><trkpt lat="43.3286439" lon="7.2232689"><ele>0.0</ele><time>2026-04-30T23:33:16.045Z</time></trkpt><trkpt lat="43.3287002" lon="7.2233525"><ele>0.0</ele><time>2026-04-30T23:33:17.045Z</time></trkpt><trkpt lat="43.3287501" lon="7.2234359"><ele>0.0</ele><time>2026-04-30T23:33:18.046Z</time></trkpt><trkpt lat="43.3288001" lon="7.2235221"><ele>0.0</ele><time>2026-04-30T23:33:19.045Z</time></trkpt><trkpt lat="43.3288502" lon="7.2236071"><ele>0.0</ele><time>2026-04-30T23:33:20.045Z</time></trkpt><trkpt lat="43.3289547" lon="7.2237813"><ele>0.0</ele><time>2026-04-30T23:33:22.046Z</time></trkpt><trkpt lat="43.3290066" lon="7.2238679"><ele>0.0</ele><time>2026-04-30T23:33:23.045Z</time></trkpt><trkpt lat="43.3290563" lon="7.2239577"><ele>0.0</ele><time>2026-04-30T23:33:24.046Z</time></trkpt><trkpt lat="43.3291075" lon="7.2240531"><ele>0.0</ele><time>2026-04-30T23:33:25.046Z</time></trkpt><trkpt lat="43.3291622" lon="7.2241545"><ele>0.0</ele><time>2026-04-30T23:33:26.045Z</time></trkpt><trkpt lat="43.3292145" lon="7.2242493"><ele>0.0</ele><time>2026-04-30T23:33:27.046Z</time></trkpt><trkpt lat="43.3292634" lon="7.2243371"><ele>0.0</ele><time>2026-04-30T23:33:28.046Z</time></trkpt><trkpt lat="43.3293132" lon="7.2244281"><ele>0.0</ele><time>2026-04-30T23:33:29.046Z</time></trkpt><trkpt lat="43.3293617" lon="7.224518"><ele>0.0</ele><time>2026-04-30T23:33:30.046Z</time></trkpt><trkpt lat="43.3294131" lon="7.2246094"><ele>0.0</ele><time>2026-04-30T23:33:31.045Z</time></trkpt><trkpt lat="43.3294621" lon="7.2246971"><ele>0.0</ele><time>2026-04-30T23:33:32.045Z</time></trkpt><trkpt lat="43.3295085" lon="7.2247853"><ele>0.0</ele><time>2026-04-30T23:33:33.046Z</time></trkpt><trkpt lat="43.329554" lon="7.2248647"><ele>0.0</ele><time>2026-04-30T23:33:34.046Z</time></trkpt><trkpt lat="43.3295987" lon="7.224949"><ele>0.0</ele><time>2026-04-30T23:33:35.046Z</time></trkpt><trkpt lat="43.3296507" lon="7.2250334"><ele>0.0</ele><time>2026-04-30T23:33:36.046Z</time></trkpt><trkpt lat="43.3297014" lon="7.2251239"><ele>0.0</ele><time>2026-04-30T23:33:37.045Z</time></trkpt><trkpt lat="43.3297514" lon="7.2252131"><ele>0.0</ele><time>2026-04-30T23:33:38.046Z</time></trkpt><trkpt lat="43.3298017" lon="7.2253013"><ele>0.0</ele><time>2026-04-30T23:33:39.046Z</time></trkpt><trkpt lat="43.3298533" lon="7.2253841"><ele>0.0</ele><time>2026-04-30T23:33:40.045Z</time></trkpt><trkpt lat="43.3299064" lon="7.225467"><ele>0.0</ele><time>2026-04-30T23:33:41.046Z</time></trkpt><trkpt lat="43.3300584" lon="7.2257294"><ele>0.0</ele><time>2026-04-30T23:33:44.045Z</time></trkpt><trkpt lat="43.3301146" lon="7.2258192"><ele>0.0</ele><time>2026-04-30T23:33:45.045Z</time></trkpt><trkpt lat="43.3301711" lon="7.2259108"><ele>0.0</ele><time>2026-04-30T23:33:46.046Z</time></trkpt><trkpt lat="43.3302278" lon="7.2260022"><ele>0.0</ele><time>2026-04-30T23:33:47.045Z</time></trkpt><trkpt lat="43.3302801" lon="7.2260926"><ele>0.0</ele><time>2026-04-30T23:33:48.045Z</time></trkpt><trkpt lat="43.3303299" lon="7.2261827"><ele>0.0</ele><time>2026-04-30T23:33:49.045Z</time></trkpt><trkpt lat="43.3303812" lon="7.226274"><ele>0.0</ele><time>2026-04-30T23:33:50.045Z</time></trkpt><trkpt lat="43.3304331" lon="7.2263756"><ele>0.0</ele><time>2026-04-30T23:33:51.046Z</time></trkpt><trkpt lat="43.3304677" lon="7.2264949"><ele>0.0</ele><time>2026-04-30T23:33:52.045Z</time></trkpt><trkpt lat="43.3305122" lon="7.2265924"><ele>0.0</ele><time>2026-04-30T23:33:53.046Z</time></trkpt><trkpt lat="43.3305616" lon="7.2266792"><ele>0.0</ele><time>2026-04-30T23:33:54.045Z</time></trkpt><trkpt lat="43.3306102" lon="7.2267639"><ele>0.0</ele><time>2026-04-30T23:33:55.045Z</time></trkpt><trkpt lat="43.3306585" lon="7.2268472"><ele>0.0</ele><time>2026-04-30T23:33:56.045Z</time></trkpt><trkpt lat="43.3307053" lon="7.2269318"><ele>0.0</ele><time>2026-04-30T23:33:57.045Z</time></trkpt><trkpt lat="43.3307531" lon="7.2270168"><ele>0.0</ele><time>2026-04-30T23:33:58.045Z</time></trkpt><trkpt lat="43.3308002" lon="7.2271001"><ele>0.0</ele><time>2026-04-30T23:33:59.045Z</time></trkpt><trkpt lat="43.3308527" lon="7.2271864"><ele>0.0</ele><time>2026-04-30T23:34:00.046Z</time></trkpt><trkpt lat="43.3309046" lon="7.2272719"><ele>0.0</ele><time>2026-04-30T23:34:01.045Z</time></trkpt><trkpt lat="43.3309564" lon="7.2273611"><ele>0.0</ele><time>2026-04-30T23:34:02.045Z</time></trkpt><trkpt lat="43.3310065" lon="7.2274495"><ele>0.0</ele><time>2026-04-30T23:34:03.045Z</time></trkpt><trkpt lat="43.3311063" lon="7.227617"><ele>0.0</ele><time>2026-04-30T23:34:05.045Z</time></trkpt><trkpt lat="43.331158" lon="7.2277018"><ele>0.0</ele><time>2026-04-30T23:34:06.045Z</time></trkpt><trkpt lat="43.3312083" lon="7.2277821"><ele>0.0</ele><time>2026-04-30T23:34:07.045Z</time></trkpt><trkpt lat="43.3312628" lon="7.227862"><ele>0.0</ele><time>2026-04-30T23:34:08.045Z</time></trkpt><trkpt lat="43.331318" lon="7.2279448"><ele>0.0</ele><time>2026-04-30T23:34:09.045Z</time></trkpt><trkpt lat="43.3313715" lon="7.2280297"><ele>0.0</ele><time>2026-04-30T23:34:10.045Z</time></trkpt><trkpt lat="43.3314246" lon="7.2281193"><ele>0.0</ele><time>2026-04-30T23:34:11.046Z</time></trkpt><trkpt lat="43.3314763" lon="7.2282109"><ele>0.0</ele><time>2026-04-30T23:34:12.046Z</time></trkpt><trkpt lat="43.331525" lon="7.228307"><ele>0.0</ele><time>2026-04-30T23:34:13.046Z</time></trkpt><trkpt lat="43.3316253" lon="7.2284887"><ele>0.0</ele><time>2026-04-30T23:34:15.045Z</time></trkpt><trkpt lat="43.3316735" lon="7.2285736"><ele>0.0</ele><time>2026-04-30T23:34:16.045Z</time></trkpt><trkpt lat="43.3317273" lon="7.2286579"><ele>0.0</ele><time>2026-04-30T23:34:17.046Z</time></trkpt><trkpt lat="43.3317814" lon="7.2287416"><ele>0.0</ele><time>2026-04-30T23:34:18.045Z</time></trkpt><trkpt lat="43.3318348" lon="7.2288297"><ele>0.0</ele><time>2026-04-30T23:34:19.045Z</time></trkpt><trkpt lat="43.3318878" lon="7.2289183"><ele>0.0</ele><time>2026-04-30T23:34:20.046Z</time></trkpt><trkpt lat="43.3319439" lon="7.2290108"><ele>0.0</ele><time>2026-04-30T23:34:21.046Z</time></trkpt><trkpt lat="43.3319963" lon="7.2291098"><ele>0.0</ele><time>2026-04-30T23:34:22.045Z</time></trkpt><trkpt lat="43.3320508" lon="7.2292024"><ele>0.0</ele><time>2026-04-30T23:34:23.046Z</time></trkpt><trkpt lat="43.33216" lon="7.2293879"><ele>0.0</ele><time>2026-04-30T23:34:25.046Z</time></trkpt><trkpt lat="43.3322111" lon="7.2294765"><ele>0.0</ele><time>2026-04-30T23:34:26.045Z</time></trkpt><trkpt lat="43.3322586" lon="7.2295666"><ele>0.0</ele><time>2026-04-30T23:34:27.046Z</time></trkpt><trkpt lat="43.3323037" lon="7.2296594"><ele>0.0</ele><time>2026-04-30T23:34:28.045Z</time></trkpt><trkpt lat="43.3323474" lon="7.2297513"><ele>0.0</ele><time>2026-04-30T23:34:29.046Z</time></trkpt><trkpt lat="43.3323951" lon="7.22984"><ele>0.0</ele><time>2026-04-30T23:34:30.045Z</time></trkpt><trkpt lat="43.332439" lon="7.2299211"><ele>0.0</ele><time>2026-04-30T23:34:31.045Z</time></trkpt><trkpt lat="43.3324893" lon="7.2300109"><ele>0.0</ele><time>2026-04-30T23:34:32.045Z</time></trkpt><trkpt lat="43.3325382" lon="7.2301014"><ele>0.0</ele><time>2026-04-30T23:34:33.046Z</time></trkpt><trkpt lat="43.332588" lon="7.2301884"><ele>0.0</ele><time>2026-04-30T23:34:34.045Z</time></trkpt><trkpt lat="43.3326385" lon="7.2302696"><ele>0.0</ele><time>2026-04-30T23:34:35.046Z</time></trkpt><trkpt lat="43.332693" lon="7.2303534"><ele>0.0</ele><time>2026-04-30T23:34:36.045Z</time></trkpt><trkpt lat="43.332749" lon="7.2304342"><ele>0.0</ele><time>2026-04-30T23:34:37.045Z</time></trkpt><trkpt lat="43.3328012" lon="7.2305197"><ele>0.0</ele><time>2026-04-30T23:34:38.045Z</time></trkpt><trkpt lat="43.3328545" lon="7.2306078"><ele>0.0</ele><time>2026-04-30T23:34:39.045Z</time></trkpt><trkpt lat="43.3329084" lon="7.230693"><ele>0.0</ele><time>2026-04-30T23:34:40.045Z</time></trkpt><trkpt lat="43.3329616" lon="7.2307795"><ele>0.0</ele><time>2026-04-30T23:34:41.045Z</time></trkpt><trkpt lat="43.3330162" lon="7.230871"><ele>0.0</ele><time>2026-04-30T23:34:42.045Z</time></trkpt><trkpt lat="43.3330684" lon="7.2309614"><ele>0.0</ele><time>2026-04-30T23:34:43.045Z</time></trkpt><trkpt lat="43.3331188" lon="7.2310541"><ele>0.0</ele><time>2026-04-30T23:34:44.045Z</time></trkpt><trkpt lat="43.3332164" lon="7.2312456"><ele>0.0</ele><time>2026-04-30T23:34:46.045Z</time></trkpt><trkpt lat="43.3333138" lon="7.2314225"><ele>0.0</ele><time>2026-04-30T23:34:48.045Z</time></trkpt><trkpt lat="43.3333648" lon="7.2315114"><ele>0.0</ele><time>2026-04-30T23:34:49.046Z</time></trkpt><trkpt lat="43.3334165" lon="7.2315982"><ele>0.0</ele><time>2026-04-30T23:34:50.045Z</time></trkpt><trkpt lat="43.3334681" lon="7.2316824"><ele>0.0</ele><time>2026-04-30T23:34:51.046Z</time></trkpt><trkpt lat="43.3335216" lon="7.23177"><ele>0.0</ele><time>2026-04-30T23:34:52.046Z</time></trkpt><trkpt lat="43.3335717" lon="7.2318601"><ele>0.0</ele><time>2026-04-30T23:34:53.045Z</time></trkpt><trkpt lat="43.3336229" lon="7.2319526"><ele>0.0</ele><time>2026-04-30T23:34:54.045Z</time></trkpt><trkpt lat="43.3336666" lon="7.2320426"><ele>0.0</ele><time>2026-04-30T23:34:55.045Z</time></trkpt><trkpt lat="43.3337101" lon="7.2321313"><ele>0.0</ele><time>2026-04-30T23:34:56.046Z</time></trkpt><trkpt lat="43.3337665" lon="7.2322114"><ele>0.0</ele><time>2026-04-30T23:34:57.045Z</time></trkpt><trkpt lat="43.3338189" lon="7.2322914"><ele>0.0</ele><time>2026-04-30T23:34:58.046Z</time></trkpt><trkpt lat="43.3338711" lon="7.2323726"><ele>0.0</ele><time>2026-04-30T23:34:59.045Z</time></trkpt><trkpt lat="43.3339156" lon="7.2324543"><ele>0.0</ele><time>2026-04-30T23:35:00.046Z</time></trkpt><trkpt lat="43.3339622" lon="7.2325401"><ele>0.0</ele><time>2026-04-30T23:35:01.045Z</time></trkpt><trkpt lat="43.3339934" lon="7.2326255"><ele>0.0</ele><time>2026-04-30T23:35:02.046Z</time></trkpt><trkpt lat="43.3340431" lon="7.232712"><ele>0.0</ele><time>2026-04-30T23:35:03.046Z</time></trkpt><trkpt lat="43.3340946" lon="7.2328031"><ele>0.0</ele><time>2026-04-30T23:35:04.046Z</time></trkpt><trkpt lat="43.3341454" lon="7.2328962"><ele>0.0</ele><time>2026-04-30T23:35:05.045Z</time></trkpt><trkpt lat="43.3342404" lon="7.2330783"><ele>0.0</ele><time>2026-04-30T23:35:07.046Z</time></trkpt><trkpt lat="43.3342881" lon="7.2331652"><ele>0.0</ele><time>2026-04-30T23:35:08.046Z</time></trkpt><trkpt lat="43.3343365" lon="7.2332541"><ele>0.0</ele><time>2026-04-30T23:35:09.045Z</time></trkpt><trkpt lat="43.3343878" lon="7.2333427"><ele>0.0</ele><time>2026-04-30T23:35:10.046Z</time></trkpt><trkpt lat="43.3344342" lon="7.2334282"><ele>0.0</ele><time>2026-04-30T23:35:11.046Z</time></trkpt><trkpt lat="43.3344846" lon="7.2335178"><ele>0.0</ele><time>2026-04-30T23:35:12.045Z</time></trkpt><trkpt lat="43.334535" lon="7.2336066"><ele>0.0</ele><time>2026-04-30T23:35:13.045Z</time></trkpt><trkpt lat="43.3345836" lon="7.2336918"><ele>0.0</ele><time>2026-04-30T23:35:14.046Z</time></trkpt><trkpt lat="43.3346361" lon="7.2337812"><ele>0.0</ele><time>2026-04-30T23:35:15.045Z</time></trkpt><trkpt lat="43.334688" lon="7.2338684"><ele>0.0</ele><time>2026-04-30T23:35:16.046Z</time></trkpt><trkpt lat="43.3347387" lon="7.2339593"><ele>0.0</ele><time>2026-04-30T23:35:17.046Z</time></trkpt><trkpt lat="43.3347956" lon="7.2340441"><ele>0.0</ele><time>2026-04-30T23:35:18.045Z</time></trkpt><trkpt lat="43.3348877" lon="7.2342353"><ele>0.0</ele><time>2026-04-30T23:35:20.045Z</time></trkpt><trkpt lat="43.3349486" lon="7.2343203"><ele>0.0</ele><time>2026-04-30T23:35:21.046Z</time></trkpt><trkpt lat="43.3350123" lon="7.2343992"><ele>0.0</ele><time>2026-04-30T23:35:22.046Z</time></trkpt><trkpt lat="43.3350756" lon="7.2344922"><ele>0.0</ele><time>2026-04-30T23:35:23.046Z</time></trkpt><trkpt lat="43.3351337" lon="7.234577"><ele>0.0</ele><time>2026-04-30T23:35:24.046Z</time></trkpt><trkpt lat="43.3351822" lon="7.234662"><ele>0.0</ele><time>2026-04-30T23:35:25.045Z</time></trkpt><trkpt lat="43.3352753" lon="7.23483"><ele>0.0</ele><time>2026-04-30T23:35:27.046Z</time></trkpt><trkpt lat="43.3353218" lon="7.234918"><ele>0.0</ele><time>2026-04-30T23:35:28.045Z</time></trkpt><trkpt lat="43.3353715" lon="7.2350094"><ele>0.0</ele><time>2026-04-30T23:35:29.046Z</time></trkpt><trkpt lat="43.3354204" lon="7.2350953"><ele>0.0</ele><time>2026-04-30T23:35:30.045Z</time></trkpt><trkpt lat="43.3354668" lon="7.2351862"><ele>0.0</ele><time>2026-04-30T23:35:31.046Z</time></trkpt><trkpt lat="43.3355162" lon="7.2352777"><ele>0.0</ele><time>2026-04-30T23:35:32.045Z</time></trkpt><trkpt lat="43.3355707" lon="7.235378"><ele>0.0</ele><time>2026-04-30T23:35:33.045Z</time></trkpt><trkpt lat="43.3356231" lon="7.2354745"><ele>0.0</ele><time>2026-04-30T23:35:34.046Z</time></trkpt><trkpt lat="43.3356719" lon="7.2355671"><ele>0.0</ele><time>2026-04-30T23:35:35.046Z</time></trkpt><trkpt lat="43.3357216" lon="7.2356549"><ele>0.0</ele><time>2026-04-30T23:35:36.046Z</time></trkpt><trkpt lat="43.3357716" lon="7.2357434"><ele>0.0</ele><time>2026-04-30T23:35:37.046Z</time></trkpt><trkpt lat="43.3358244" lon="7.2358259"><ele>0.0</ele><time>2026-04-30T23:35:38.045Z</time></trkpt><trkpt lat="43.3358747" lon="7.2359103"><ele>0.0</ele><time>2026-04-30T23:35:39.045Z</time></trkpt><trkpt lat="43.3359249" lon="7.2359938"><ele>0.0</ele><time>2026-04-30T23:35:40.045Z</time></trkpt><trkpt lat="43.3359764" lon="7.2360808"><ele>0.0</ele><time>2026-04-30T23:35:41.045Z</time></trkpt><trkpt lat="43.3360311" lon="7.2361721"><ele>0.0</ele><time>2026-04-30T23:35:42.046Z</time></trkpt><trkpt lat="43.3360831" lon="7.236264"><ele>0.0</ele><time>2026-04-30T23:35:43.045Z</time></trkpt><trkpt lat="43.3361363" lon="7.2363544"><ele>0.0</ele><time>2026-04-30T23:35:44.045Z</time></trkpt><trkpt lat="43.336188" lon="7.2364455"><ele>0.0</ele><time>2026-04-30T23:35:45.046Z</time></trkpt><trkpt lat="43.3362388" lon="7.2365316"><ele>0.0</ele><time>2026-04-30T23:35:46.045Z</time></trkpt><trkpt lat="43.3363354" lon="7.2366971"><ele>0.0</ele><time>2026-04-30T23:35:48.046Z</time></trkpt><trkpt lat="43.3363897" lon="7.236784"><ele>0.0</ele><time>2026-04-30T23:35:49.046Z</time></trkpt><trkpt lat="43.336446" lon="7.2368756"><ele>0.0</ele><time>2026-04-30T23:35:50.045Z</time></trkpt><trkpt lat="43.3365502" lon="7.2370627"><ele>0.0</ele><time>2026-04-30T23:35:52.045Z</time></trkpt><trkpt lat="43.3366004" lon="7.2371531"><ele>0.0</ele><time>2026-04-30T23:35:53.045Z</time></trkpt><trkpt lat="43.3366484" lon="7.2372413"><ele>0.0</ele><time>2026-04-30T23:35:54.046Z</time></trkpt><trkpt lat="43.3366922" lon="7.2373342"><ele>0.0</ele><time>2026-04-30T23:35:55.046Z</time></trkpt><trkpt lat="43.3367383" lon="7.2374278"><ele>0.0</ele><time>2026-04-30T23:35:56.046Z</time></trkpt><trkpt lat="43.3367894" lon="7.2375159"><ele>0.0</ele><time>2026-04-30T23:35:57.046Z</time></trkpt><trkpt lat="43.3368372" lon="7.2376083"><ele>0.0</ele><time>2026-04-30T23:35:58.046Z</time></trkpt><trkpt lat="43.3368936" lon="7.2376971"><ele>0.0</ele><time>2026-04-30T23:35:59.046Z</time></trkpt><trkpt lat="43.3369436" lon="7.2377883"><ele>0.0</ele><time>2026-04-30T23:36:00.046Z</time></trkpt><trkpt lat="43.3369922" lon="7.237877"><ele>0.0</ele><time>2026-04-30T23:36:01.045Z</time></trkpt><trkpt lat="43.3370441" lon="7.2379647"><ele>0.0</ele><time>2026-04-30T23:36:02.045Z</time></trkpt><trkpt lat="43.3370949" lon="7.2380547"><ele>0.0</ele><time>2026-04-30T23:36:03.045Z</time></trkpt><trkpt lat="43.3371479" lon="7.2381415"><ele>0.0</ele><time>2026-04-30T23:36:04.046Z</time></trkpt><trkpt lat="43.3372014" lon="7.2382294"><ele>0.0</ele><time>2026-04-30T23:36:05.045Z</time></trkpt><trkpt lat="43.337258" lon="7.2383191"><ele>0.0</ele><time>2026-04-30T23:36:06.046Z</time></trkpt><trkpt lat="43.3372931" lon="7.2384163"><ele>0.0</ele><time>2026-04-30T23:36:07.045Z</time></trkpt><trkpt lat="43.3373984" lon="7.238597"><ele>0.0</ele><time>2026-04-30T23:36:09.046Z</time></trkpt><trkpt lat="43.3374543" lon="7.2386788"><ele>0.0</ele><time>2026-04-30T23:36:10.046Z</time></trkpt><trkpt lat="43.337504" lon="7.238762"><ele>0.0</ele><time>2026-04-30T23:36:11.045Z</time></trkpt><trkpt lat="43.3375497" lon="7.2388496"><ele>0.0</ele><time>2026-04-30T23:36:12.045Z</time></trkpt><trkpt lat="43.3375988" lon="7.2389419"><ele>0.0</ele><time>2026-04-30T23:36:13.046Z</time></trkpt><trkpt lat="43.3376455" lon="7.2390388"><ele>0.0</ele><time>2026-04-30T23:36:14.045Z</time></trkpt><trkpt lat="43.3376936" lon="7.2391271"><ele>0.0</ele><time>2026-04-30T23:36:15.045Z</time></trkpt><trkpt lat="43.3377493" lon="7.2392024"><ele>0.0</ele><time>2026-04-30T23:36:16.045Z</time></trkpt><trkpt lat="43.3378015" lon="7.2392841"><ele>0.0</ele><time>2026-04-30T23:36:17.045Z</time></trkpt><trkpt lat="43.3378504" lon="7.2393674"><ele>0.0</ele><time>2026-04-30T23:36:18.045Z</time></trkpt><trkpt lat="43.3378971" lon="7.2394448"><ele>0.0</ele><time>2026-04-30T23:36:19.045Z</time></trkpt><trkpt lat="43.337951" lon="7.239529"><ele>0.0</ele><time>2026-04-30T23:36:20.046Z</time></trkpt><trkpt lat="43.338006" lon="7.2396209"><ele>0.0</ele><time>2026-04-30T23:36:21.045Z</time></trkpt><trkpt lat="43.3380581" lon="7.2397114"><ele>0.0</ele><time>2026-04-30T23:36:22.045Z</time></trkpt><trkpt lat="43.3381625" lon="7.2398911"><ele>0.0</ele><time>2026-04-30T23:36:24.045Z</time></trkpt><trkpt lat="43.3382323" lon="7.2399966"><ele>0.0</ele><time>2026-04-30T23:36:25.045Z</time></trkpt><trkpt lat="43.3382985" lon="7.2400945"><ele>0.0</ele><time>2026-04-30T23:36:26.046Z</time></trkpt><trkpt lat="43.3383478" lon="7.2401761"><ele>0.0</ele><time>2026-04-30T23:36:27.046Z</time></trkpt><trkpt lat="43.3383984" lon="7.2402646"><ele>0.0</ele><time>2026-04-30T23:36:28.045Z</time></trkpt><trkpt lat="43.3384995" lon="7.2404433"><ele>0.0</ele><time>2026-04-30T23:36:30.045Z</time></trkpt><trkpt lat="43.3385532" lon="7.2405286"><ele>0.0</ele><time>2026-04-30T23:36:31.045Z</time></trkpt><trkpt lat="43.3386021" lon="7.2406109"><ele>0.0</ele><time>2026-04-30T23:36:32.045Z</time></trkpt><trkpt lat="43.3386572" lon="7.240693"><ele>0.0</ele><time>2026-04-30T23:36:33.046Z</time></trkpt><trkpt lat="43.3387112" lon="7.2407735"><ele>0.0</ele><time>2026-04-30T23:36:34.045Z</time></trkpt><trkpt lat="43.3387662" lon="7.2408603"><ele>0.0</ele><time>2026-04-30T23:36:35.045Z</time></trkpt><trkpt lat="43.3388201" lon="7.2409467"><ele>0.0</ele><time>2026-04-30T23:36:36.045Z</time></trkpt><trkpt lat="43.3388707" lon="7.2410348"><ele>0.0</ele><time>2026-04-30T23:36:37.045Z</time></trkpt><trkpt lat="43.3389248" lon="7.2411213"><ele>0.0</ele><time>2026-04-30T23:36:38.045Z</time></trkpt><trkpt lat="43.3389796" lon="7.2412166"><ele>0.0</ele><time>2026-04-30T23:36:39.046Z</time></trkpt><trkpt lat="43.3390301" lon="7.241309"><ele>0.0</ele><time>2026-04-30T23:36:40.046Z</time></trkpt><trkpt lat="43.3390829" lon="7.2414035"><ele>0.0</ele><time>2026-04-30T23:36:41.046Z</time></trkpt><trkpt lat="43.3391348" lon="7.2414942"><ele>0.0</ele><time>2026-04-30T23:36:42.045Z</time></trkpt><trkpt lat="43.3391882" lon="7.2415862"><ele>0.0</ele><time>2026-04-30T23:36:43.045Z</time></trkpt><trkpt lat="43.3392389" lon="7.2416722"><ele>0.0</ele><time>2026-04-30T23:36:44.046Z</time></trkpt><trkpt lat="43.3392906" lon="7.2417571"><ele>0.0</ele><time>2026-04-30T23:36:45.046Z</time></trkpt><trkpt lat="43.3393407" lon="7.2418418"><ele>0.0</ele><time>2026-04-30T23:36:46.045Z</time></trkpt><trkpt lat="43.3393904" lon="7.2419281"><ele>0.0</ele><time>2026-04-30T23:36:47.046Z</time></trkpt><trkpt lat="43.339446" lon="7.2420162"><ele>0.0</ele><time>2026-04-30T23:36:48.045Z</time></trkpt><trkpt lat="43.3395016" lon="7.242109"><ele>0.0</ele><time>2026-04-30T23:36:49.045Z</time></trkpt><trkpt lat="43.3395975" lon="7.2422882"><ele>0.0</ele><time>2026-04-30T23:36:51.045Z</time></trkpt><trkpt lat="43.339637" lon="7.2423792"><ele>0.0</ele><time>2026-04-30T23:36:52.046Z</time></trkpt><trkpt lat="43.3396765" lon="7.2424652"><ele>0.0</ele><time>2026-04-30T23:36:53.045Z</time></trkpt><trkpt lat="43.3397264" lon="7.2425477"><ele>0.0</ele><time>2026-04-30T23:36:54.045Z</time></trkpt><trkpt lat="43.3398325" lon="7.2427205"><ele>0.0</ele><time>2026-04-30T23:36:56.045Z</time></trkpt><trkpt lat="43.3398864" lon="7.2428024"><ele>0.0</ele><time>2026-04-30T23:36:57.045Z</time></trkpt><trkpt lat="43.3399383" lon="7.2428883"><ele>0.0</ele><time>2026-04-30T23:36:58.045Z</time></trkpt><trkpt lat="43.3399912" lon="7.2429766"><ele>0.0</ele><time>2026-04-30T23:36:59.046Z</time></trkpt><trkpt lat="43.340043" lon="7.2430664"><ele>0.0</ele><time>2026-04-30T23:37:00.045Z</time></trkpt><trkpt lat="43.3400972" lon="7.2431563"><ele>0.0</ele><time>2026-04-30T23:37:01.045Z</time></trkpt><trkpt lat="43.3401482" lon="7.243247"><ele>0.0</ele><time>2026-04-30T23:37:02.046Z</time></trkpt><trkpt lat="43.3402005" lon="7.243336"><ele>0.0</ele><time>2026-04-30T23:37:03.046Z</time></trkpt><trkpt lat="43.3402498" lon="7.2434314"><ele>0.0</ele><time>2026-04-30T23:37:04.046Z</time></trkpt><trkpt lat="43.3402985" lon="7.2435171"><ele>0.0</ele><time>2026-04-30T23:37:05.045Z</time></trkpt><trkpt lat="43.3403471" lon="7.2436063"><ele>0.0</ele><time>2026-04-30T23:37:06.045Z</time></trkpt><trkpt lat="43.3403968" lon="7.2436921"><ele>0.0</ele><time>2026-04-30T23:37:07.045Z</time></trkpt><trkpt lat="43.3404426" lon="7.2437745"><ele>0.0</ele><time>2026-04-30T23:37:08.045Z</time></trkpt><trkpt lat="43.3404887" lon="7.2438557"><ele>0.0</ele><time>2026-04-30T23:37:09.046Z</time></trkpt><trkpt lat="43.3405342" lon="7.2439399"><ele>0.0</ele><time>2026-04-30T23:37:10.046Z</time></trkpt><trkpt lat="43.3406481" lon="7.2441148"><ele>0.0</ele><time>2026-04-30T23:37:12.045Z</time></trkpt><trkpt lat="43.3407091" lon="7.244209"><ele>0.0</ele><time>2026-04-30T23:37:13.046Z</time></trkpt><trkpt lat="43.3407706" lon="7.2443009"><ele>0.0</ele><time>2026-04-30T23:37:14.045Z</time></trkpt><trkpt lat="43.3408235" lon="7.244388"><ele>0.0</ele><time>2026-04-30T23:37:15.046Z</time></trkpt><trkpt lat="43.3408577" lon="7.2444736"><ele>0.0</ele><time>2026-04-30T23:37:16.046Z</time></trkpt><trkpt lat="43.3408965" lon="7.2445687"><ele>0.0</ele><time>2026-04-30T23:37:17.045Z</time></trkpt><trkpt lat="43.3409482" lon="7.2446621"><ele>0.0</ele><time>2026-04-30T23:37:18.045Z</time></trkpt><trkpt lat="43.3410041" lon="7.244756"><ele>0.0</ele><time>2026-04-30T23:37:19.045Z</time></trkpt><trkpt lat="43.3410553" lon="7.2448522"><ele>0.0</ele><time>2026-04-30T23:37:20.045Z</time></trkpt><trkpt lat="43.3411093" lon="7.2449406"><ele>0.0</ele><time>2026-04-30T23:37:21.045Z</time></trkpt><trkpt lat="43.34116" lon="7.2450328"><ele>0.0</ele><time>2026-04-30T23:37:22.046Z</time></trkpt><trkpt lat="43.3412128" lon="7.2451221"><ele>0.0</ele><time>2026-04-30T23:37:23.045Z</time></trkpt><trkpt lat="43.3412662" lon="7.2452088"><ele>0.0</ele><time>2026-04-30T23:37:24.046Z</time></trkpt><trkpt lat="43.3413266" lon="7.2452969"><ele>0.0</ele><time>2026-04-30T23:37:25.046Z</time></trkpt><trkpt lat="43.3413878" lon="7.2453795"><ele>0.0</ele><time>2026-04-30T23:37:26.046Z</time></trkpt><trkpt lat="43.3414428" lon="7.2454637"><ele>0.0</ele><time>2026-04-30T23:37:27.046Z</time></trkpt><trkpt lat="43.3415468" lon="7.2456294"><ele>0.0</ele><time>2026-04-30T23:37:29.045Z</time></trkpt><trkpt lat="43.3415967" lon="7.2457134"><ele>0.0</ele><time>2026-04-30T23:37:30.045Z</time></trkpt><trkpt lat="43.3416548" lon="7.2458015"><ele>0.0</ele><time>2026-04-30T23:37:31.046Z</time></trkpt><trkpt lat="43.3417634" lon="7.2459816"><ele>0.0</ele><time>2026-04-30T23:37:33.045Z</time></trkpt><trkpt lat="43.3418177" lon="7.2460698"><ele>0.0</ele><time>2026-04-30T23:37:34.046Z</time></trkpt><trkpt lat="43.3418756" lon="7.2461611"><ele>0.0</ele><time>2026-04-30T23:37:35.046Z</time></trkpt><trkpt lat="43.3419323" lon="7.2462398"><ele>0.0</ele><time>2026-04-30T23:37:36.045Z</time></trkpt><trkpt lat="43.3419922" lon="7.246324"><ele>0.0</ele><time>2026-04-30T23:37:37.046Z</time></trkpt><trkpt lat="43.3420465" lon="7.2464135"><ele>0.0</ele><time>2026-04-30T23:37:38.045Z</time></trkpt><trkpt lat="43.3420928" lon="7.2465018"><ele>0.0</ele><time>2026-04-30T23:37:39.046Z</time></trkpt><trkpt lat="43.3421419" lon="7.2465844"><ele>0.0</ele><time>2026-04-30T23:37:40.045Z</time></trkpt><trkpt lat="43.3421949" lon="7.2466715"><ele>0.0</ele><time>2026-04-30T23:37:41.045Z</time></trkpt><trkpt lat="43.3422412" lon="7.2467645"><ele>0.0</ele><time>2026-04-30T23:37:42.045Z</time></trkpt><trkpt lat="43.3422831" lon="7.2468648"><ele>0.0</ele><time>2026-04-30T23:37:43.045Z</time></trkpt><trkpt lat="43.3423232" lon="7.2469636"><ele>0.0</ele><time>2026-04-30T23:37:44.045Z</time></trkpt><trkpt lat="43.3423772" lon="7.2470614"><ele>0.0</ele><time>2026-04-30T23:37:45.045Z</time></trkpt><trkpt lat="43.3424279" lon="7.2471566"><ele>0.0</ele><time>2026-04-30T23:37:46.045Z</time></trkpt><trkpt lat="43.3424753" lon="7.2472537"><ele>0.0</ele><time>2026-04-30T23:37:47.045Z</time></trkpt><trkpt lat="43.3425192" lon="7.2473394"><ele>0.0</ele><time>2026-04-30T23:37:48.045Z</time></trkpt><trkpt lat="43.3425627" lon="7.2474271"><ele>0.0</ele><time>2026-04-30T23:37:49.045Z</time></trkpt><trkpt lat="43.3426089" lon="7.2475154"><ele>0.0</ele><time>2026-04-30T23:37:50.045Z</time></trkpt><trkpt lat="43.3426572" lon="7.2476036"><ele>0.0</ele><time>2026-04-30T23:37:51.045Z</time></trkpt><trkpt lat="43.3427627" lon="7.2477803"><ele>0.0</ele><time>2026-04-30T23:37:53.046Z</time></trkpt><trkpt lat="43.342821" lon="7.2478727"><ele>0.0</ele><time>2026-04-30T23:37:54.046Z</time></trkpt><trkpt lat="43.3428729" lon="7.2479703"><ele>0.0</ele><time>2026-04-30T23:37:55.045Z</time></trkpt><trkpt lat="43.3429269" lon="7.2480601"><ele>0.0</ele><time>2026-04-30T23:37:56.045Z</time></trkpt><trkpt lat="43.3429819" lon="7.248147"><ele>0.0</ele><time>2026-04-30T23:37:57.045Z</time></trkpt><trkpt lat="43.3430338" lon="7.2482394"><ele>0.0</ele><time>2026-04-30T23:37:58.045Z</time></trkpt><trkpt lat="43.3430842" lon="7.2483272"><ele>0.0</ele><time>2026-04-30T23:37:59.046Z</time></trkpt><trkpt lat="43.3431325" lon="7.2484163"><ele>0.0</ele><time>2026-04-30T23:38:00.045Z</time></trkpt><trkpt lat="43.3432298" lon="7.2485973"><ele>0.0</ele><time>2026-04-30T23:38:02.045Z</time></trkpt><trkpt lat="43.3432863" lon="7.248688"><ele>0.0</ele><time>2026-04-30T23:38:03.046Z</time></trkpt><trkpt lat="43.3433486" lon="7.2487781"><ele>0.0</ele><time>2026-04-30T23:38:04.046Z</time></trkpt><trkpt lat="43.3434063" lon="7.2488685"><ele>0.0</ele><time>2026-04-30T23:38:05.045Z</time></trkpt><trkpt lat="43.3434544" lon="7.2489582"><ele>0.0</ele><time>2026-04-30T23:38:06.045Z</time></trkpt><trkpt lat="43.3435027" lon="7.2490467"><ele>0.0</ele><time>2026-04-30T23:38:07.046Z</time></trkpt><trkpt lat="43.3435463" lon="7.2491309"><ele>0.0</ele><time>2026-04-30T23:38:08.046Z</time></trkpt><trkpt lat="43.3435924" lon="7.2492156"><ele>0.0</ele><time>2026-04-30T23:38:09.045Z</time></trkpt><trkpt lat="43.3436276" lon="7.2493006"><ele>0.0</ele><time>2026-04-30T23:38:10.046Z</time></trkpt><trkpt lat="43.3436751" lon="7.2493845"><ele>0.0</ele><time>2026-04-30T23:38:11.046Z</time></trkpt><trkpt lat="43.3437207" lon="7.2494689"><ele>0.0</ele><time>2026-04-30T23:38:12.046Z</time></trkpt><trkpt lat="43.3438263" lon="7.2496557"><ele>0.0</ele><time>2026-04-30T23:38:14.044Z</time></trkpt><trkpt lat="43.3438753" lon="7.2497521"><ele>0.0</ele><time>2026-04-30T23:38:15.044Z</time></trkpt><trkpt lat="43.3439266" lon="7.2498459"><ele>0.0</ele><time>2026-04-30T23:38:16.045Z</time></trkpt><trkpt lat="43.3439856" lon="7.2499336"><ele>0.0</ele><time>2026-04-30T23:38:17.044Z</time></trkpt><trkpt lat="43.3440342" lon="7.250026"><ele>0.0</ele><time>2026-04-30T23:38:18.044Z</time></trkpt><trkpt lat="43.3440878" lon="7.2501178"><ele>0.0</ele><time>2026-04-30T23:38:19.044Z</time></trkpt><trkpt lat="43.3441344" lon="7.2502054"><ele>0.0</ele><time>2026-04-30T23:38:20.044Z</time></trkpt><trkpt lat="43.3441775" lon="7.2503007"><ele>0.0</ele><time>2026-04-30T23:38:21.044Z</time></trkpt><trkpt lat="43.3442205" lon="7.2503947"><ele>0.0</ele><time>2026-04-30T23:38:22.045Z</time></trkpt><trkpt lat="43.3442639" lon="7.2504937"><ele>0.0</ele><time>2026-04-30T23:38:23.045Z</time></trkpt><trkpt lat="43.3443173" lon="7.2505878"><ele>0.0</ele><time>2026-04-30T23:38:24.045Z</time></trkpt><trkpt lat="43.3443697" lon="7.2506814"><ele>0.0</ele><time>2026-04-30T23:38:25.045Z</time></trkpt><trkpt lat="43.3444188" lon="7.2507742"><ele>0.0</ele><time>2026-04-30T23:38:26.045Z</time></trkpt><trkpt lat="43.3444685" lon="7.2508634"><ele>0.0</ele><time>2026-04-30T23:38:27.044Z</time></trkpt><trkpt lat="43.344514" lon="7.250959"><ele>0.0</ele><time>2026-04-30T23:38:28.045Z</time></trkpt><trkpt lat="43.344565" lon="7.2510485"><ele>0.0</ele><time>2026-04-30T23:38:29.045Z</time></trkpt><trkpt lat="43.3446109" lon="7.2511439"><ele>0.0</ele><time>2026-04-30T23:38:30.045Z</time></trkpt><trkpt lat="43.3446672" lon="7.2512308"><ele>0.0</ele><time>2026-04-30T23:38:31.044Z</time></trkpt><trkpt lat="43.3447185" lon="7.2513158"><ele>0.0</ele><time>2026-04-30T23:38:32.044Z</time></trkpt><trkpt lat="43.3447686" lon="7.2513897"><ele>0.0</ele><time>2026-04-30T23:38:33.044Z</time></trkpt><trkpt lat="43.3449193" lon="7.251634"><ele>0.0</ele><time>2026-04-30T23:38:36.045Z</time></trkpt><trkpt lat="43.3449689" lon="7.2517231"><ele>0.0</ele><time>2026-04-30T23:38:37.044Z</time></trkpt><trkpt lat="43.3450254" lon="7.2518217"><ele>0.0</ele><time>2026-04-30T23:38:38.045Z</time></trkpt><trkpt lat="43.3450838" lon="7.2519119"><ele>0.0</ele><time>2026-04-30T23:38:39.044Z</time></trkpt><trkpt lat="43.3451478" lon="7.2519947"><ele>0.0</ele><time>2026-04-30T23:38:40.044Z</time></trkpt><trkpt lat="43.345202" lon="7.2520717"><ele>0.0</ele><time>2026-04-30T23:38:41.045Z</time></trkpt><trkpt lat="43.3452531" lon="7.2521529"><ele>0.0</ele><time>2026-04-30T23:38:42.044Z</time></trkpt><trkpt lat="43.345309" lon="7.2522359"><ele>0.0</ele><time>2026-04-30T23:38:43.044Z</time></trkpt><trkpt lat="43.3453672" lon="7.2523206"><ele>0.0</ele><time>2026-04-30T23:38:44.044Z</time></trkpt><trkpt lat="43.3454199" lon="7.2523943"><ele>0.0</ele><time>2026-04-30T23:38:45.044Z</time></trkpt><trkpt lat="43.3454772" lon="7.2524773"><ele>0.0</ele><time>2026-04-30T23:38:46.045Z</time></trkpt><trkpt lat="43.3455328" lon="7.2525731"><ele>0.0</ele><time>2026-04-30T23:38:47.044Z</time></trkpt><trkpt lat="43.3455919" lon="7.2526704"><ele>0.0</ele><time>2026-04-30T23:38:48.044Z</time></trkpt><trkpt lat="43.345645" lon="7.2527668"><ele>0.0</ele><time>2026-04-30T23:38:49.045Z</time></trkpt><trkpt lat="43.3456938" lon="7.2528577"><ele>0.0</ele><time>2026-04-30T23:38:50.044Z</time></trkpt><trkpt lat="43.3457447" lon="7.2529496"><ele>0.0</ele><time>2026-04-30T23:38:51.044Z</time></trkpt><trkpt lat="43.345795" lon="7.253044"><ele>0.0</ele><time>2026-04-30T23:38:52.044Z</time></trkpt><trkpt lat="43.3458464" lon="7.2531334"><ele>0.0</ele><time>2026-04-30T23:38:53.044Z</time></trkpt><trkpt lat="43.3458952" lon="7.2532145"><ele>0.0</ele><time>2026-04-30T23:38:54.044Z</time></trkpt><trkpt lat="43.3459398" lon="7.2533017"><ele>0.0</ele><time>2026-04-30T23:38:55.044Z</time></trkpt><trkpt lat="43.3460409" lon="7.2534771"><ele>0.0</ele><time>2026-04-30T23:38:57.045Z</time></trkpt><trkpt lat="43.3460947" lon="7.2535642"><ele>0.0</ele><time>2026-04-30T23:38:58.045Z</time></trkpt><trkpt lat="43.3461494" lon="7.2536588"><ele>0.0</ele><time>2026-04-30T23:38:59.044Z</time></trkpt><trkpt lat="43.3462042" lon="7.2537584"><ele>0.0</ele><time>2026-04-30T23:39:00.045Z</time></trkpt><trkpt lat="43.3462496" lon="7.2538637"><ele>0.0</ele><time>2026-04-30T23:39:01.044Z</time></trkpt><trkpt lat="43.3463062" lon="7.2539615"><ele>0.0</ele><time>2026-04-30T23:39:02.044Z</time></trkpt><trkpt lat="43.3463598" lon="7.2540515"><ele>0.0</ele><time>2026-04-30T23:39:03.045Z</time></trkpt><trkpt lat="43.3464131" lon="7.2541385"><ele>0.0</ele><time>2026-04-30T23:39:04.044Z</time></trkpt><trkpt lat="43.3464612" lon="7.2542223"><ele>0.0</ele><time>2026-04-30T23:39:05.045Z</time></trkpt><trkpt lat="43.3465144" lon="7.2543104"><ele>0.0</ele><time>2026-04-30T23:39:06.044Z</time></trkpt><trkpt lat="43.3466155" lon="7.2544815"><ele>0.0</ele><time>2026-04-30T23:39:08.045Z</time></trkpt><trkpt lat="43.3466663" lon="7.2545672"><ele>0.0</ele><time>2026-04-30T23:39:09.044Z</time></trkpt><trkpt lat="43.3467177" lon="7.2546578"><ele>0.0</ele><time>2026-04-30T23:39:10.045Z</time></trkpt><trkpt lat="43.346772" lon="7.2547424"><ele>0.0</ele><time>2026-04-30T23:39:11.044Z</time></trkpt><trkpt lat="43.3468315" lon="7.2548328"><ele>0.0</ele><time>2026-04-30T23:39:12.045Z</time></trkpt><trkpt lat="43.3468862" lon="7.2549258"><ele>0.0</ele><time>2026-04-30T23:39:13.044Z</time></trkpt><trkpt lat="43.3469398" lon="7.2550193"><ele>0.0</ele><time>2026-04-30T23:39:14.044Z</time></trkpt><trkpt lat="43.346993" lon="7.2551086"><ele>0.0</ele><time>2026-04-30T23:39:15.044Z</time></trkpt><trkpt lat="43.3470489" lon="7.2552013"><ele>0.0</ele><time>2026-04-30T23:39:16.044Z</time></trkpt><trkpt lat="43.3471596" lon="7.2553841"><ele>0.0</ele><time>2026-04-30T23:39:18.045Z</time></trkpt><trkpt lat="43.3472116" lon="7.255473"><ele>0.0</ele><time>2026-04-30T23:39:19.045Z</time></trkpt><trkpt lat="43.3472704" lon="7.2555577"><ele>0.0</ele><time>2026-04-30T23:39:20.044Z</time></trkpt><trkpt lat="43.3473233" lon="7.2556544"><ele>0.0</ele><time>2026-04-30T23:39:21.044Z</time></trkpt><trkpt lat="43.3473791" lon="7.2557424"><ele>0.0</ele><time>2026-04-30T23:39:22.044Z</time></trkpt><trkpt lat="43.3474367" lon="7.2558288"><ele>0.0</ele><time>2026-04-30T23:39:23.045Z</time></trkpt><trkpt lat="43.3474941" lon="7.2559151"><ele>0.0</ele><time>2026-04-30T23:39:24.045Z</time></trkpt><trkpt lat="43.3475521" lon="7.2560065"><ele>0.0</ele><time>2026-04-30T23:39:25.044Z</time></trkpt><trkpt lat="43.3475935" lon="7.2560996"><ele>0.0</ele><time>2026-04-30T23:39:26.045Z</time></trkpt><trkpt lat="43.3476447" lon="7.2561927"><ele>0.0</ele><time>2026-04-30T23:39:27.045Z</time></trkpt><trkpt lat="43.3476926" lon="7.2562856"><ele>0.0</ele><time>2026-04-30T23:39:28.044Z</time></trkpt><trkpt lat="43.3477421" lon="7.2563776"><ele>0.0</ele><time>2026-04-30T23:39:29.044Z</time></trkpt><trkpt lat="43.3477919" lon="7.256471"><ele>0.0</ele><time>2026-04-30T23:39:30.045Z</time></trkpt><trkpt lat="43.3478429" lon="7.2565604"><ele>0.0</ele><time>2026-04-30T23:39:31.045Z</time></trkpt><trkpt lat="43.3478931" lon="7.2566529"><ele>0.0</ele><time>2026-04-30T23:39:32.044Z</time></trkpt><trkpt lat="43.3479389" lon="7.2567437"><ele>0.0</ele><time>2026-04-30T23:39:33.044Z</time></trkpt><trkpt lat="43.347988" lon="7.2568324"><ele>0.0</ele><time>2026-04-30T23:39:34.044Z</time></trkpt><trkpt lat="43.3480437" lon="7.2569136"><ele>0.0</ele><time>2026-04-30T23:39:35.045Z</time></trkpt><trkpt lat="43.3480947" lon="7.257002"><ele>0.0</ele><time>2026-04-30T23:39:36.044Z</time></trkpt><trkpt lat="43.3481406" lon="7.2570918"><ele>0.0</ele><time>2026-04-30T23:39:37.044Z</time></trkpt><trkpt lat="43.3481884" lon="7.2571777"><ele>0.0</ele><time>2026-04-30T23:39:38.044Z</time></trkpt><trkpt lat="43.348341" lon="7.2574619"><ele>0.0</ele><time>2026-04-30T23:39:41.045Z</time></trkpt><trkpt lat="43.3483875" lon="7.2575531"><ele>0.0</ele><time>2026-04-30T23:39:42.045Z</time></trkpt><trkpt lat="43.3484297" lon="7.2576434"><ele>0.0</ele><time>2026-04-30T23:39:43.045Z</time></trkpt><trkpt lat="43.3484753" lon="7.2577266"><ele>0.0</ele><time>2026-04-30T23:39:44.045Z</time></trkpt><trkpt lat="43.3485161" lon="7.257808"><ele>0.0</ele><time>2026-04-30T23:39:45.045Z</time></trkpt><trkpt lat="43.3485604" lon="7.2578937"><ele>0.0</ele><time>2026-04-30T23:39:46.044Z</time></trkpt><trkpt lat="43.3486067" lon="7.2579806"><ele>0.0</ele><time>2026-04-30T23:39:47.044Z</time></trkpt><trkpt lat="43.3486589" lon="7.2580655"><ele>0.0</ele><time>2026-04-30T23:39:48.044Z</time></trkpt><trkpt lat="43.348711" lon="7.2581528"><ele>0.0</ele><time>2026-04-30T23:39:49.044Z</time></trkpt><trkpt lat="43.3487627" lon="7.2582497"><ele>0.0</ele><time>2026-04-30T23:39:50.045Z</time></trkpt><trkpt lat="43.3488203" lon="7.258341"><ele>0.0</ele><time>2026-04-30T23:39:51.044Z</time></trkpt><trkpt lat="43.3488746" lon="7.2584309"><ele>0.0</ele><time>2026-04-30T23:39:52.044Z</time></trkpt><trkpt lat="43.3489223" lon="7.2585224"><ele>0.0</ele><time>2026-04-30T23:39:53.044Z</time></trkpt><trkpt lat="43.3489828" lon="7.2586072"><ele>0.0</ele><time>2026-04-30T23:39:54.044Z</time></trkpt><trkpt lat="43.3490406" lon="7.2586978"><ele>0.0</ele><time>2026-04-30T23:39:55.044Z</time></trkpt><trkpt lat="43.3490929" lon="7.2587865"><ele>0.0</ele><time>2026-04-30T23:39:56.045Z</time></trkpt><trkpt lat="43.3491506" lon="7.2588749"><ele>0.0</ele><time>2026-04-30T23:39:57.045Z</time></trkpt><trkpt lat="43.3492149" lon="7.2589676"><ele>0.0</ele><time>2026-04-30T23:39:58.045Z</time></trkpt><trkpt lat="43.3492757" lon="7.2590578"><ele>0.0</ele><time>2026-04-30T23:39:59.045Z</time></trkpt><trkpt lat="43.3493302" lon="7.2591493"><ele>0.0</ele><time>2026-04-30T23:40:00.045Z</time></trkpt><trkpt lat="43.3494397" lon="7.2593401"><ele>0.0</ele><time>2026-04-30T23:40:02.044Z</time></trkpt><trkpt lat="43.3494903" lon="7.2594322"><ele>0.0</ele><time>2026-04-30T23:40:03.045Z</time></trkpt><trkpt lat="43.3495434" lon="7.2595243"><ele>0.0</ele><time>2026-04-30T23:40:04.044Z</time></trkpt><trkpt lat="43.3495907" lon="7.2596125"><ele>0.0</ele><time>2026-04-30T23:40:05.045Z</time></trkpt><trkpt lat="43.349633" lon="7.2597028"><ele>0.0</ele><time>2026-04-30T23:40:06.044Z</time></trkpt><trkpt lat="43.3496802" lon="7.2597863"><ele>0.0</ele><time>2026-04-30T23:40:07.045Z</time></trkpt><trkpt lat="43.3497286" lon="7.2598693"><ele>0.0</ele><time>2026-04-30T23:40:08.044Z</time></trkpt><trkpt lat="43.3497786" lon="7.2599567"><ele>0.0</ele><time>2026-04-30T23:40:09.045Z</time></trkpt><trkpt lat="43.349837" lon="7.2600307"><ele>0.0</ele><time>2026-04-30T23:40:10.044Z</time></trkpt><trkpt lat="43.3499406" lon="7.2602002"><ele>0.0</ele><time>2026-04-30T23:40:12.044Z</time></trkpt><trkpt lat="43.3499963" lon="7.2602879"><ele>0.0</ele><time>2026-04-30T23:40:13.045Z</time></trkpt><trkpt lat="43.350053" lon="7.2603722"><ele>0.0</ele><time>2026-04-30T23:40:14.045Z</time></trkpt><trkpt lat="43.3501138" lon="7.2604596"><ele>0.0</ele><time>2026-04-30T23:40:15.045Z</time></trkpt><trkpt lat="43.3501683" lon="7.2605526"><ele>0.0</ele><time>2026-04-30T23:40:16.044Z</time></trkpt><trkpt lat="43.3502189" lon="7.2606477"><ele>0.0</ele><time>2026-04-30T23:40:17.045Z</time></trkpt><trkpt lat="43.3502772" lon="7.2607299"><ele>0.0</ele><time>2026-04-30T23:40:18.044Z</time></trkpt><trkpt lat="43.3503298" lon="7.2608126"><ele>0.0</ele><time>2026-04-30T23:40:19.045Z</time></trkpt><trkpt lat="43.3503818" lon="7.2608984"><ele>0.0</ele><time>2026-04-30T23:40:20.044Z</time></trkpt><trkpt lat="43.3504322" lon="7.2609809"><ele>0.0</ele><time>2026-04-30T23:40:21.044Z</time></trkpt><trkpt lat="43.3505379" lon="7.2611579"><ele>0.0</ele><time>2026-04-30T23:40:23.044Z</time></trkpt><trkpt lat="43.3505913" lon="7.2612439"><ele>0.0</ele><time>2026-04-30T23:40:24.045Z</time></trkpt><trkpt lat="43.3506392" lon="7.2613287"><ele>0.0</ele><time>2026-04-30T23:40:25.044Z</time></trkpt><trkpt lat="43.3506842" lon="7.2614237"><ele>0.0</ele><time>2026-04-30T23:40:26.045Z</time></trkpt><trkpt lat="43.350735" lon="7.261512"><ele>0.0</ele><time>2026-04-30T23:40:27.044Z</time></trkpt><trkpt lat="43.3507808" lon="7.261603"><ele>0.0</ele><time>2026-04-30T23:40:28.044Z</time></trkpt><trkpt lat="43.3508257" lon="7.2616935"><ele>0.0</ele><time>2026-04-30T23:40:29.044Z</time></trkpt><trkpt lat="43.3508765" lon="7.2617934"><ele>0.0</ele><time>2026-04-30T23:40:30.044Z</time></trkpt><trkpt lat="43.350931" lon="7.2618831"><ele>0.0</ele><time>2026-04-30T23:40:31.044Z</time></trkpt><trkpt lat="43.3509847" lon="7.2619773"><ele>0.0</ele><time>2026-04-30T23:40:32.044Z</time></trkpt><trkpt lat="43.3510484" lon="7.2620672"><ele>0.0</ele><time>2026-04-30T23:40:33.045Z</time></trkpt><trkpt lat="43.3511024" lon="7.2621537"><ele>0.0</ele><time>2026-04-30T23:40:34.045Z</time></trkpt><trkpt lat="43.3511509" lon="7.2622402"><ele>0.0</ele><time>2026-04-30T23:40:35.045Z</time></trkpt><trkpt lat="43.3512005" lon="7.2623313"><ele>0.0</ele><time>2026-04-30T23:40:36.045Z</time></trkpt><trkpt lat="43.3512528" lon="7.2624201"><ele>0.0</ele><time>2026-04-30T23:40:37.044Z</time></trkpt><trkpt lat="43.3513061" lon="7.2625144"><ele>0.0</ele><time>2026-04-30T23:40:38.044Z</time></trkpt><trkpt lat="43.3513623" lon="7.2626109"><ele>0.0</ele><time>2026-04-30T23:40:39.044Z</time></trkpt><trkpt lat="43.3514146" lon="7.2627041"><ele>0.0</ele><time>2026-04-30T23:40:40.044Z</time></trkpt><trkpt lat="43.3514695" lon="7.2627989"><ele>0.0</ele><time>2026-04-30T23:40:41.045Z</time></trkpt><trkpt lat="43.3515262" lon="7.2628873"><ele>0.0</ele><time>2026-04-30T23:40:42.045Z</time></trkpt><trkpt lat="43.3516242" lon="7.2630613"><ele>0.0</ele><time>2026-04-30T23:40:44.045Z</time></trkpt><trkpt lat="43.3517247" lon="7.2632415"><ele>0.0</ele><time>2026-04-30T23:40:46.044Z</time></trkpt><trkpt lat="43.3517797" lon="7.2633252"><ele>0.0</ele><time>2026-04-30T23:40:47.044Z</time></trkpt><trkpt lat="43.351839" lon="7.2634147"><ele>0.0</ele><time>2026-04-30T23:40:48.044Z</time></trkpt><trkpt lat="43.3518918" lon="7.2635046"><ele>0.0</ele><time>2026-04-30T23:40:49.044Z</time></trkpt><trkpt lat="43.3519437" lon="7.2635961"><ele>0.0</ele><time>2026-04-30T23:40:50.044Z</time></trkpt><trkpt lat="43.3519969" lon="7.2636892"><ele>0.0</ele><time>2026-04-30T23:40:51.044Z</time></trkpt><trkpt lat="43.3520459" lon="7.263781"><ele>0.0</ele><time>2026-04-30T23:40:52.045Z</time></trkpt><trkpt lat="43.3520929" lon="7.2638737"><ele>0.0</ele><time>2026-04-30T23:40:53.045Z</time></trkpt><trkpt lat="43.3521393" lon="7.2639664"><ele>0.0</ele><time>2026-04-30T23:40:54.045Z</time></trkpt><trkpt lat="43.3521914" lon="7.2640611"><ele>0.0</ele><time>2026-04-30T23:40:55.045Z</time></trkpt><trkpt lat="43.3522449" lon="7.2641454"><ele>0.0</ele><time>2026-04-30T23:40:56.045Z</time></trkpt><trkpt lat="43.3522941" lon="7.2642386"><ele>0.0</ele><time>2026-04-30T23:40:57.045Z</time></trkpt><trkpt lat="43.3523411" lon="7.2643265"><ele>0.0</ele><time>2026-04-30T23:40:58.044Z</time></trkpt><trkpt lat="43.3523846" lon="7.2644179"><ele>0.0</ele><time>2026-04-30T23:40:59.044Z</time></trkpt><trkpt lat="43.3524295" lon="7.2644896"><ele>0.0</ele><time>2026-04-30T23:41:00.045Z</time></trkpt><trkpt lat="43.3524814" lon="7.2645764"><ele>0.0</ele><time>2026-04-30T23:41:01.044Z</time></trkpt><trkpt lat="43.3525301" lon="7.2646661"><ele>0.0</ele><time>2026-04-30T23:41:02.044Z</time></trkpt><trkpt lat="43.3525814" lon="7.2647591"><ele>0.0</ele><time>2026-04-30T23:41:03.045Z</time></trkpt><trkpt lat="43.3526385" lon="7.264846"><ele>0.0</ele><time>2026-04-30T23:41:04.044Z</time></trkpt><trkpt lat="43.3526937" lon="7.2649427"><ele>0.0</ele><time>2026-04-30T23:41:05.045Z</time></trkpt><trkpt lat="43.3527953" lon="7.2651399"><ele>0.0</ele><time>2026-04-30T23:41:07.045Z</time></trkpt><trkpt lat="43.3528418" lon="7.2652319"><ele>0.0</ele><time>2026-04-30T23:41:08.044Z</time></trkpt><trkpt lat="43.3528909" lon="7.2653219"><ele>0.0</ele><time>2026-04-30T23:41:09.045Z</time></trkpt><trkpt lat="43.3529371" lon="7.2654078"><ele>0.0</ele><time>2026-04-30T23:41:10.044Z</time></trkpt><trkpt lat="43.3529867" lon="7.2654941"><ele>0.0</ele><time>2026-04-30T23:41:11.044Z</time></trkpt><trkpt lat="43.3530368" lon="7.265582"><ele>0.0</ele><time>2026-04-30T23:41:12.044Z</time></trkpt><trkpt lat="43.3530897" lon="7.2656699"><ele>0.0</ele><time>2026-04-30T23:41:13.045Z</time></trkpt><trkpt lat="43.3531433" lon="7.2657583"><ele>0.0</ele><time>2026-04-30T23:41:14.045Z</time></trkpt><trkpt lat="43.3531966" lon="7.2658482"><ele>0.0</ele><time>2026-04-30T23:41:15.045Z</time></trkpt><trkpt lat="43.3533087" lon="7.2660376"><ele>0.0</ele><time>2026-04-30T23:41:17.044Z</time></trkpt><trkpt lat="43.3533587" lon="7.2661266"><ele>0.0</ele><time>2026-04-30T23:41:18.044Z</time></trkpt><trkpt lat="43.3534086" lon="7.2662111"><ele>0.0</ele><time>2026-04-30T23:41:19.044Z</time></trkpt><trkpt lat="43.353458" lon="7.2662974"><ele>0.0</ele><time>2026-04-30T23:41:20.044Z</time></trkpt><trkpt lat="43.3535052" lon="7.2663861"><ele>0.0</ele><time>2026-04-30T23:41:21.045Z</time></trkpt><trkpt lat="43.3535538" lon="7.2664721"><ele>0.0</ele><time>2026-04-30T23:41:22.044Z</time></trkpt><trkpt lat="43.3535989" lon="7.2665643"><ele>0.0</ele><time>2026-04-30T23:41:23.044Z</time></trkpt><trkpt lat="43.3536512" lon="7.2666591"><ele>0.0</ele><time>2026-04-30T23:41:24.045Z</time></trkpt><trkpt lat="43.3537049" lon="7.2667496"><ele>0.0</ele><time>2026-04-30T23:41:25.044Z</time></trkpt><trkpt lat="43.3537578" lon="7.2668472"><ele>0.0</ele><time>2026-04-30T23:41:26.045Z</time></trkpt><trkpt lat="43.3538578" lon="7.2670386"><ele>0.0</ele><time>2026-04-30T23:41:28.044Z</time></trkpt><trkpt lat="43.3539069" lon="7.2671267"><ele>0.0</ele><time>2026-04-30T23:41:29.044Z</time></trkpt><trkpt lat="43.35396" lon="7.2672036"><ele>0.0</ele><time>2026-04-30T23:41:30.044Z</time></trkpt><trkpt lat="43.3540133" lon="7.2672873"><ele>0.0</ele><time>2026-04-30T23:41:31.045Z</time></trkpt><trkpt lat="43.3540642" lon="7.2673709"><ele>0.0</ele><time>2026-04-30T23:41:32.045Z</time></trkpt><trkpt lat="43.3541143" lon="7.2674567"><ele>0.0</ele><time>2026-04-30T23:41:33.044Z</time></trkpt><trkpt lat="43.3541657" lon="7.2675471"><ele>0.0</ele><time>2026-04-30T23:41:34.044Z</time></trkpt><trkpt lat="43.354219" lon="7.2676402"><ele>0.0</ele><time>2026-04-30T23:41:35.045Z</time></trkpt><trkpt lat="43.3542735" lon="7.2677282"><ele>0.0</ele><time>2026-04-30T23:41:36.045Z</time></trkpt><trkpt lat="43.3543242" lon="7.2678191"><ele>0.0</ele><time>2026-04-30T23:41:37.045Z</time></trkpt><trkpt lat="43.3543803" lon="7.2679081"><ele>0.0</ele><time>2026-04-30T23:41:38.045Z</time></trkpt><trkpt lat="43.3544368" lon="7.2679964"><ele>0.0</ele><time>2026-04-30T23:41:39.044Z</time></trkpt><trkpt lat="43.3544935" lon="7.2680863"><ele>0.0</ele><time>2026-04-30T23:41:40.044Z</time></trkpt><trkpt lat="43.3545475" lon="7.2681733"><ele>0.0</ele><time>2026-04-30T23:41:41.044Z</time></trkpt><trkpt lat="43.3546006" lon="7.2682589"><ele>0.0</ele><time>2026-04-30T23:41:42.044Z</time></trkpt><trkpt lat="43.3546537" lon="7.2683437"><ele>0.0</ele><time>2026-04-30T23:41:43.044Z</time></trkpt><trkpt lat="43.3547084" lon="7.2684302"><ele>0.0</ele><time>2026-04-30T23:41:44.045Z</time></trkpt><trkpt lat="43.3547576" lon="7.2685136"><ele>0.0</ele><time>2026-04-30T23:41:45.045Z</time></trkpt><trkpt lat="43.3548101" lon="7.2686029"><ele>0.0</ele><time>2026-04-30T23:41:46.044Z</time></trkpt><trkpt lat="43.3548649" lon="7.268696"><ele>0.0</ele><time>2026-04-30T23:41:47.044Z</time></trkpt><trkpt lat="43.3550202" lon="7.2689527"><ele>0.0</ele><time>2026-04-30T23:41:50.045Z</time></trkpt><trkpt lat="43.3550721" lon="7.2690426"><ele>0.0</ele><time>2026-04-30T23:41:51.044Z</time></trkpt><trkpt lat="43.3551247" lon="7.2691345"><ele>0.0</ele><time>2026-04-30T23:41:52.044Z</time></trkpt><trkpt lat="43.3551798" lon="7.2692262"><ele>0.0</ele><time>2026-04-30T23:41:53.045Z</time></trkpt><trkpt lat="43.3552349" lon="7.2693166"><ele>0.0</ele><time>2026-04-30T23:41:54.044Z</time></trkpt><trkpt lat="43.3552883" lon="7.2694048"><ele>0.0</ele><time>2026-04-30T23:41:55.045Z</time></trkpt><trkpt lat="43.3553387" lon="7.2694921"><ele>0.0</ele><time>2026-04-30T23:41:56.044Z</time></trkpt><trkpt lat="43.3553934" lon="7.2695799"><ele>0.0</ele><time>2026-04-30T23:41:57.045Z</time></trkpt><trkpt lat="43.3554455" lon="7.2696656"><ele>0.0</ele><time>2026-04-30T23:41:58.045Z</time></trkpt><trkpt lat="43.3554985" lon="7.2697488"><ele>0.0</ele><time>2026-04-30T23:41:59.045Z</time></trkpt><trkpt lat="43.3555521" lon="7.2698306"><ele>0.0</ele><time>2026-04-30T23:42:00.044Z</time></trkpt><trkpt lat="43.3556054" lon="7.2699137"><ele>0.0</ele><time>2026-04-30T23:42:01.044Z</time></trkpt><trkpt lat="43.3556587" lon="7.2699956"><ele>0.0</ele><time>2026-04-30T23:42:02.045Z</time></trkpt><trkpt lat="43.355712" lon="7.2700788"><ele>0.0</ele><time>2026-04-30T23:42:03.044Z</time></trkpt><trkpt lat="43.3557702" lon="7.2701553"><ele>0.0</ele><time>2026-04-30T23:42:04.045Z</time></trkpt><trkpt lat="43.3558251" lon="7.2702381"><ele>0.0</ele><time>2026-04-30T23:42:05.044Z</time></trkpt><trkpt lat="43.3558798" lon="7.2703257"><ele>0.0</ele><time>2026-04-30T23:42:06.045Z</time></trkpt><trkpt lat="43.3559265" lon="7.2704231"><ele>0.0</ele><time>2026-04-30T23:42:07.044Z</time></trkpt><trkpt lat="43.3559784" lon="7.2705173"><ele>0.0</ele><time>2026-04-30T23:42:08.044Z</time></trkpt><trkpt lat="43.3560333" lon="7.2706091"><ele>0.0</ele><time>2026-04-30T23:42:09.044Z</time></trkpt><trkpt lat="43.3561417" lon="7.2707911"><ele>0.0</ele><time>2026-04-30T23:42:11.044Z</time></trkpt><trkpt lat="43.3561971" lon="7.270878"><ele>0.0</ele><time>2026-04-30T23:42:12.044Z</time></trkpt><trkpt lat="43.3562446" lon="7.2709734"><ele>0.0</ele><time>2026-04-30T23:42:13.045Z</time></trkpt><trkpt lat="43.3562945" lon="7.2710689"><ele>0.0</ele><time>2026-04-30T23:42:14.044Z</time></trkpt><trkpt lat="43.3563516" lon="7.2711575"><ele>0.0</ele><time>2026-04-30T23:42:15.044Z</time></trkpt><trkpt lat="43.3564052" lon="7.2712463"><ele>0.0</ele><time>2026-04-30T23:42:16.044Z</time></trkpt><trkpt lat="43.3564572" lon="7.2713248"><ele>0.0</ele><time>2026-04-30T23:42:17.044Z</time></trkpt><trkpt lat="43.356513" lon="7.2714112"><ele>0.0</ele><time>2026-04-30T23:42:18.045Z</time></trkpt><trkpt lat="43.3565694" lon="7.2715039"><ele>0.0</ele><time>2026-04-30T23:42:19.044Z</time></trkpt><trkpt lat="43.3566251" lon="7.2715928"><ele>0.0</ele><time>2026-04-30T23:42:20.045Z</time></trkpt><trkpt lat="43.3566772" lon="7.2716803"><ele>0.0</ele><time>2026-04-30T23:42:21.045Z</time></trkpt><trkpt lat="43.3567216" lon="7.2717712"><ele>0.0</ele><time>2026-04-30T23:42:22.044Z</time></trkpt><trkpt lat="43.3567722" lon="7.2718598"><ele>0.0</ele><time>2026-04-30T23:42:23.044Z</time></trkpt><trkpt lat="43.3568251" lon="7.271945"><ele>0.0</ele><time>2026-04-30T23:42:24.045Z</time></trkpt><trkpt lat="43.3568795" lon="7.2720357"><ele>0.0</ele><time>2026-04-30T23:42:25.045Z</time></trkpt><trkpt lat="43.356927" lon="7.272123"><ele>0.0</ele><time>2026-04-30T23:42:26.044Z</time></trkpt><trkpt lat="43.3569735" lon="7.2722146"><ele>0.0</ele><time>2026-04-30T23:42:27.044Z</time></trkpt><trkpt lat="43.3570217" lon="7.2723065"><ele>0.0</ele><time>2026-04-30T23:42:28.045Z</time></trkpt><trkpt lat="43.3570747" lon="7.2723963"><ele>0.0</ele><time>2026-04-30T23:42:29.044Z</time></trkpt><trkpt lat="43.3571266" lon="7.272488"><ele>0.0</ele><time>2026-04-30T23:42:30.044Z</time></trkpt><trkpt lat="43.3572392" lon="7.2726724"><ele>0.0</ele><time>2026-04-30T23:42:32.044Z</time></trkpt><trkpt lat="43.3572921" lon="7.2727547"><ele>0.0</ele><time>2026-04-30T23:42:33.044Z</time></trkpt><trkpt lat="43.3573481" lon="7.2728418"><ele>0.0</ele><time>2026-04-30T23:42:34.044Z</time></trkpt><trkpt lat="43.3574012" lon="7.2729327"><ele>0.0</ele><time>2026-04-30T23:42:35.045Z</time></trkpt><trkpt lat="43.3574545" lon="7.2730246"><ele>0.0</ele><time>2026-04-30T23:42:36.045Z</time></trkpt><trkpt lat="43.3575023" lon="7.2731134"><ele>0.0</ele><time>2026-04-30T23:42:37.044Z</time></trkpt><trkpt lat="43.3575534" lon="7.2732016"><ele>0.0</ele><time>2026-04-30T23:42:38.045Z</time></trkpt><trkpt lat="43.3576038" lon="7.27329"><ele>0.0</ele><time>2026-04-30T23:42:39.045Z</time></trkpt><trkpt lat="43.3576521" lon="7.2733802"><ele>0.0</ele><time>2026-04-30T23:42:40.044Z</time></trkpt><trkpt lat="43.3577003" lon="7.2734729"><ele>0.0</ele><time>2026-04-30T23:42:41.044Z</time></trkpt><trkpt lat="43.3577484" lon="7.2735551"><ele>0.0</ele><time>2026-04-30T23:42:42.044Z</time></trkpt><trkpt lat="43.3578031" lon="7.2736462"><ele>0.0</ele><time>2026-04-30T23:42:43.045Z</time></trkpt><trkpt lat="43.3578566" lon="7.2737413"><ele>0.0</ele><time>2026-04-30T23:42:44.045Z</time></trkpt><trkpt lat="43.3579056" lon="7.2738315"><ele>0.0</ele><time>2026-04-30T23:42:45.045Z</time></trkpt><trkpt lat="43.3579572" lon="7.2739225"><ele>0.0</ele><time>2026-04-30T23:42:46.045Z</time></trkpt><trkpt lat="43.3580059" lon="7.2740058"><ele>0.0</ele><time>2026-04-30T23:42:47.044Z</time></trkpt><trkpt lat="43.3580643" lon="7.2740908"><ele>0.0</ele><time>2026-04-30T23:42:48.045Z</time></trkpt><trkpt lat="43.3581161" lon="7.2741747"><ele>0.0</ele><time>2026-04-30T23:42:49.044Z</time></trkpt><trkpt lat="43.3581717" lon="7.2742661"><ele>0.0</ele><time>2026-04-30T23:42:50.044Z</time></trkpt><trkpt lat="43.3582277" lon="7.2743649"><ele>0.0</ele><time>2026-04-30T23:42:51.044Z</time></trkpt><trkpt lat="43.35839" lon="7.2746394"><ele>0.0</ele><time>2026-04-30T23:42:54.045Z</time></trkpt><trkpt lat="43.3584492" lon="7.2747252"><ele>0.0</ele><time>2026-04-30T23:42:55.044Z</time></trkpt><trkpt lat="43.3585066" lon="7.2748061"><ele>0.0</ele><time>2026-04-30T23:42:56.045Z</time></trkpt><trkpt lat="43.3585644" lon="7.2748931"><ele>0.0</ele><time>2026-04-30T23:42:57.045Z</time></trkpt><trkpt lat="43.3586183" lon="7.2749803"><ele>0.0</ele><time>2026-04-30T23:42:58.045Z</time></trkpt><trkpt lat="43.3586687" lon="7.2750652"><ele>0.0</ele><time>2026-04-30T23:42:59.045Z</time></trkpt><trkpt lat="43.3587172" lon="7.2751504"><ele>0.0</ele><time>2026-04-30T23:43:00.044Z</time></trkpt><trkpt lat="43.3587668" lon="7.2752384"><ele>0.0</ele><time>2026-04-30T23:43:01.044Z</time></trkpt><trkpt lat="43.358818" lon="7.2753298"><ele>0.0</ele><time>2026-04-30T23:43:02.044Z</time></trkpt><trkpt lat="43.3588684" lon="7.2754199"><ele>0.0</ele><time>2026-04-30T23:43:03.044Z</time></trkpt><trkpt lat="43.3589139" lon="7.2755056"><ele>0.0</ele><time>2026-04-30T23:43:04.044Z</time></trkpt><trkpt lat="43.3589602" lon="7.2755965"><ele>0.0</ele><time>2026-04-30T23:43:05.044Z</time></trkpt><trkpt lat="43.3590085" lon="7.2756894"><ele>0.0</ele><time>2026-04-30T23:43:06.045Z</time></trkpt><trkpt lat="43.3590555" lon="7.2757801"><ele>0.0</ele><time>2026-04-30T23:43:07.045Z</time></trkpt><trkpt lat="43.3591078" lon="7.2758673"><ele>0.0</ele><time>2026-04-30T23:43:08.045Z</time></trkpt><trkpt lat="43.3591572" lon="7.2759609"><ele>0.0</ele><time>2026-04-30T23:43:09.045Z</time></trkpt><trkpt lat="43.3592122" lon="7.2760405"><ele>0.0</ele><time>2026-04-30T23:43:10.044Z</time></trkpt><trkpt lat="43.3592649" lon="7.2761209"><ele>0.0</ele><time>2026-04-30T23:43:11.045Z</time></trkpt><trkpt lat="43.3593141" lon="7.2762113"><ele>0.0</ele><time>2026-04-30T23:43:12.044Z</time></trkpt><trkpt lat="43.3593651" lon="7.2762988"><ele>0.0</ele><time>2026-04-30T23:43:13.044Z</time></trkpt><trkpt lat="43.359466" lon="7.2764712"><ele>0.0</ele><time>2026-04-30T23:43:15.044Z</time></trkpt><trkpt lat="43.3595196" lon="7.2765664"><ele>0.0</ele><time>2026-04-30T23:43:16.044Z</time></trkpt><trkpt lat="43.3595729" lon="7.2766637"><ele>0.0</ele><time>2026-04-30T23:43:17.044Z</time></trkpt><trkpt lat="43.3596285" lon="7.2767575"><ele>0.0</ele><time>2026-04-30T23:43:18.044Z</time></trkpt><trkpt lat="43.3596841" lon="7.2768452"><ele>0.0</ele><time>2026-04-30T23:43:19.045Z</time></trkpt><trkpt lat="43.3597423" lon="7.2769317"><ele>0.0</ele><time>2026-04-30T23:43:20.045Z</time></trkpt><trkpt lat="43.3598006" lon="7.2770266"><ele>0.0</ele><time>2026-04-30T23:43:21.044Z</time></trkpt><trkpt lat="43.359865" lon="7.2771195"><ele>0.0</ele><time>2026-04-30T23:43:22.044Z</time></trkpt><trkpt lat="43.3599157" lon="7.2772136"><ele>0.0</ele><time>2026-04-30T23:43:23.045Z</time></trkpt><trkpt lat="43.3599682" lon="7.2773088"><ele>0.0</ele><time>2026-04-30T23:43:24.044Z</time></trkpt><trkpt lat="43.360062" lon="7.2774958"><ele>0.0</ele><time>2026-04-30T23:43:26.044Z</time></trkpt><trkpt lat="43.3601208" lon="7.2775678"><ele>0.0</ele><time>2026-04-30T23:43:27.044Z</time></trkpt><trkpt lat="43.3601692" lon="7.2776561"><ele>0.0</ele><time>2026-04-30T23:43:28.044Z</time></trkpt><trkpt lat="43.3602301" lon="7.2777306"><ele>0.0</ele><time>2026-04-30T23:43:29.045Z</time></trkpt><trkpt lat="43.3602791" lon="7.2778179"><ele>0.0</ele><time>2026-04-30T23:43:30.044Z</time></trkpt><trkpt lat="43.3603286" lon="7.2778978"><ele>0.0</ele><time>2026-04-30T23:43:31.045Z</time></trkpt><trkpt lat="43.3603776" lon="7.2779922"><ele>0.0</ele><time>2026-04-30T23:43:32.045Z</time></trkpt><trkpt lat="43.3604269" lon="7.2780745"><ele>0.0</ele><time>2026-04-30T23:43:33.045Z</time></trkpt><trkpt lat="43.3604812" lon="7.2781703"><ele>0.0</ele><time>2026-04-30T23:43:34.044Z</time></trkpt><trkpt lat="43.3605824" lon="7.2783346"><ele>0.0</ele><time>2026-04-30T23:43:36.044Z</time></trkpt><trkpt lat="43.3606321" lon="7.2784261"><ele>0.0</ele><time>2026-04-30T23:43:37.044Z</time></trkpt><trkpt lat="43.3606851" lon="7.2785195"><ele>0.0</ele><time>2026-04-30T23:43:38.044Z</time></trkpt><trkpt lat="43.3607371" lon="7.2786108"><ele>0.0</ele><time>2026-04-30T23:43:39.045Z</time></trkpt><trkpt lat="43.3607943" lon="7.2786913"><ele>0.0</ele><time>2026-04-30T23:43:40.044Z</time></trkpt><trkpt lat="43.3608482" lon="7.2787855"><ele>0.0</ele><time>2026-04-30T23:43:41.045Z</time></trkpt><trkpt lat="43.3608999" lon="7.278876"><ele>0.0</ele><time>2026-04-30T23:43:42.044Z</time></trkpt><trkpt lat="43.360946" lon="7.2789789"><ele>0.0</ele><time>2026-04-30T23:43:43.044Z</time></trkpt><trkpt lat="43.3609893" lon="7.279074"><ele>0.0</ele><time>2026-04-30T23:43:44.044Z</time></trkpt><trkpt lat="43.361034" lon="7.2791692"><ele>0.0</ele><time>2026-04-30T23:43:45.044Z</time></trkpt><trkpt lat="43.3610823" lon="7.2792484"><ele>0.0</ele><time>2026-04-30T23:43:46.045Z</time></trkpt><trkpt lat="43.3611306" lon="7.2793399"><ele>0.0</ele><time>2026-04-30T23:43:47.045Z</time></trkpt><trkpt lat="43.3611815" lon="7.2794268"><ele>0.0</ele><time>2026-04-30T23:43:48.044Z</time></trkpt><trkpt lat="43.3612301" lon="7.2795218"><ele>0.0</ele><time>2026-04-30T23:43:49.044Z</time></trkpt><trkpt lat="43.361284" lon="7.27961"><ele>0.0</ele><time>2026-04-30T23:43:50.044Z</time></trkpt><trkpt lat="43.3613347" lon="7.2796925"><ele>0.0</ele><time>2026-04-30T23:43:51.044Z</time></trkpt><trkpt lat="43.3613832" lon="7.2797899"><ele>0.0</ele><time>2026-04-30T23:43:52.045Z</time></trkpt><trkpt lat="43.3614329" lon="7.2798913"><ele>0.0</ele><time>2026-04-30T23:43:53.043Z</time></trkpt><trkpt lat="43.3614891" lon="7.2799865"><ele>0.0</ele><time>2026-04-30T23:43:54.043Z</time></trkpt><trkpt lat="43.3615418" lon="7.2800848"><ele>0.0</ele><time>2026-04-30T23:43:55.043Z</time></trkpt><trkpt lat="43.361638" lon="7.2802775"><ele>0.0</ele><time>2026-04-30T23:43:57.044Z</time></trkpt><trkpt lat="43.3617305" lon="7.280474"><ele>0.0</ele><time>2026-04-30T23:43:59.044Z</time></trkpt><trkpt lat="43.3617822" lon="7.2805651"><ele>0.0</ele><time>2026-04-30T23:44:00.044Z</time></trkpt><trkpt lat="43.3618274" lon="7.2806616"><ele>0.0</ele><time>2026-04-30T23:44:01.044Z</time></trkpt><trkpt lat="43.3618792" lon="7.2807544"><ele>0.0</ele><time>2026-04-30T23:44:02.043Z</time></trkpt><trkpt lat="43.3619291" lon="7.2808438"><ele>0.0</ele><time>2026-04-30T23:44:03.043Z</time></trkpt><trkpt lat="43.36199" lon="7.2809051"><ele>0.0</ele><time>2026-04-30T23:44:04.043Z</time></trkpt><trkpt lat="43.3620453" lon="7.280991"><ele>0.0</ele><time>2026-04-30T23:44:05.044Z</time></trkpt><trkpt lat="43.3620968" lon="7.2810841"><ele>0.0</ele><time>2026-04-30T23:44:06.044Z</time></trkpt><trkpt lat="43.3621456" lon="7.2811788"><ele>0.0</ele><time>2026-04-30T23:44:07.043Z</time></trkpt><trkpt lat="43.3621996" lon="7.2812541"><ele>0.0</ele><time>2026-04-30T23:44:08.043Z</time></trkpt><trkpt lat="43.3622503" lon="7.2813404"><ele>0.0</ele><time>2026-04-30T23:44:09.043Z</time></trkpt><trkpt lat="43.3623006" lon="7.2814326"><ele>0.0</ele><time>2026-04-30T23:44:10.043Z</time></trkpt><trkpt lat="43.3623517" lon="7.2815245"><ele>0.0</ele><time>2026-04-30T23:44:11.044Z</time></trkpt><trkpt lat="43.3624074" lon="7.2816176"><ele>0.0</ele><time>2026-04-30T23:44:12.044Z</time></trkpt><trkpt lat="43.3624486" lon="7.2817055"><ele>0.0</ele><time>2026-04-30T23:44:13.044Z</time></trkpt><trkpt lat="43.362487" lon="7.2817947"><ele>0.0</ele><time>2026-04-30T23:44:14.043Z</time></trkpt><trkpt lat="43.3625339" lon="7.281889"><ele>0.0</ele><time>2026-04-30T23:44:15.044Z</time></trkpt><trkpt lat="43.3625809" lon="7.2819844"><ele>0.0</ele><time>2026-04-30T23:44:16.044Z</time></trkpt><trkpt lat="43.3626768" lon="7.2821744"><ele>0.0</ele><time>2026-04-30T23:44:18.043Z</time></trkpt><trkpt lat="43.3627283" lon="7.2822651"><ele>0.0</ele><time>2026-04-30T23:44:19.043Z</time></trkpt><trkpt lat="43.3627741" lon="7.2823576"><ele>0.0</ele><time>2026-04-30T23:44:20.044Z</time></trkpt><trkpt lat="43.3628242" lon="7.2824453"><ele>0.0</ele><time>2026-04-30T23:44:21.044Z</time></trkpt><trkpt lat="43.3628747" lon="7.2825363"><ele>0.0</ele><time>2026-04-30T23:44:22.044Z</time></trkpt><trkpt lat="43.3629289" lon="7.282631"><ele>0.0</ele><time>2026-04-30T23:44:23.044Z</time></trkpt><trkpt lat="43.3629872" lon="7.2827219"><ele>0.0</ele><time>2026-04-30T23:44:24.044Z</time></trkpt><trkpt lat="43.3630572" lon="7.2827986"><ele>0.0</ele><time>2026-04-30T23:44:25.044Z</time></trkpt><trkpt lat="43.3631188" lon="7.2828883"><ele>0.0</ele><time>2026-04-30T23:44:26.043Z</time></trkpt><trkpt lat="43.3631749" lon="7.2829752"><ele>0.0</ele><time>2026-04-30T23:44:27.043Z</time></trkpt><trkpt lat="43.3632297" lon="7.2830593"><ele>0.0</ele><time>2026-04-30T23:44:28.043Z</time></trkpt><trkpt lat="43.3632823" lon="7.2831508"><ele>0.0</ele><time>2026-04-30T23:44:29.044Z</time></trkpt><trkpt lat="43.3633325" lon="7.2832442"><ele>0.0</ele><time>2026-04-30T23:44:30.043Z</time></trkpt><trkpt lat="43.3634491" lon="7.2834183"><ele>0.0</ele><time>2026-04-30T23:44:32.044Z</time></trkpt><trkpt lat="43.3635065" lon="7.2835077"><ele>0.0</ele><time>2026-04-30T23:44:33.044Z</time></trkpt><trkpt lat="43.3635576" lon="7.2835949"><ele>0.0</ele><time>2026-04-30T23:44:34.043Z</time></trkpt><trkpt lat="43.3636057" lon="7.2836874"><ele>0.0</ele><time>2026-04-30T23:44:35.043Z</time></trkpt><trkpt lat="43.3636583" lon="7.2837768"><ele>0.0</ele><time>2026-04-30T23:44:36.044Z</time></trkpt><trkpt lat="43.3637092" lon="7.2838679"><ele>0.0</ele><time>2026-04-30T23:44:37.044Z</time></trkpt><trkpt lat="43.3638155" lon="7.2840452"><ele>0.0</ele><time>2026-04-30T23:44:39.044Z</time></trkpt><trkpt lat="43.3638706" lon="7.2841339"><ele>0.0</ele><time>2026-04-30T23:44:40.044Z</time></trkpt><trkpt lat="43.3639247" lon="7.2842223"><ele>0.0</ele><time>2026-04-30T23:44:41.043Z</time></trkpt><trkpt lat="43.3639781" lon="7.2843117"><ele>0.0</ele><time>2026-04-30T23:44:42.043Z</time></trkpt><trkpt lat="43.3640302" lon="7.2844013"><ele>0.0</ele><time>2026-04-30T23:44:43.044Z</time></trkpt><trkpt lat="43.3640805" lon="7.2844996"><ele>0.0</ele><time>2026-04-30T23:44:44.044Z</time></trkpt><trkpt lat="43.3641333" lon="7.2845898"><ele>0.0</ele><time>2026-04-30T23:44:45.043Z</time></trkpt><trkpt lat="43.3641872" lon="7.2846823"><ele>0.0</ele><time>2026-04-30T23:44:46.044Z</time></trkpt><trkpt lat="43.36424" lon="7.2847717"><ele>0.0</ele><time>2026-04-30T23:44:47.044Z</time></trkpt><trkpt lat="43.364292" lon="7.2848596"><ele>0.0</ele><time>2026-04-30T23:44:48.043Z</time></trkpt><trkpt lat="43.3643424" lon="7.2849483"><ele>0.0</ele><time>2026-04-30T23:44:49.044Z</time></trkpt><trkpt lat="43.3643906" lon="7.2850352"><ele>0.0</ele><time>2026-04-30T23:44:50.044Z</time></trkpt><trkpt lat="43.3644402" lon="7.2851192"><ele>0.0</ele><time>2026-04-30T23:44:51.043Z</time></trkpt><trkpt lat="43.3644944" lon="7.2852024"><ele>0.0</ele><time>2026-04-30T23:44:52.043Z</time></trkpt><trkpt lat="43.3645411" lon="7.2852898"><ele>0.0</ele><time>2026-04-30T23:44:53.044Z</time></trkpt><trkpt lat="43.3645897" lon="7.2853797"><ele>0.0</ele><time>2026-04-30T23:44:54.044Z</time></trkpt><trkpt lat="43.3646387" lon="7.2854743"><ele>0.0</ele><time>2026-04-30T23:44:55.043Z</time></trkpt><trkpt lat="43.3646844" lon="7.2855717"><ele>0.0</ele><time>2026-04-30T23:44:56.043Z</time></trkpt><trkpt lat="43.3647321" lon="7.2856703"><ele>0.0</ele><time>2026-04-30T23:44:57.044Z</time></trkpt><trkpt lat="43.3647806" lon="7.2857649"><ele>0.0</ele><time>2026-04-30T23:44:58.043Z</time></trkpt><trkpt lat="43.3648879" lon="7.2859388"><ele>0.0</ele><time>2026-04-30T23:45:00.044Z</time></trkpt><trkpt lat="43.3649444" lon="7.2860295"><ele>0.0</ele><time>2026-04-30T23:45:01.044Z</time></trkpt><trkpt lat="43.3649998" lon="7.2861226"><ele>0.0</ele><time>2026-04-30T23:45:02.043Z</time></trkpt><trkpt lat="43.3651117" lon="7.2862974"><ele>0.0</ele><time>2026-04-30T23:45:04.043Z</time></trkpt><trkpt lat="43.3651637" lon="7.2863887"><ele>0.0</ele><time>2026-04-30T23:45:05.044Z</time></trkpt><trkpt lat="43.365211" lon="7.2864811"><ele>0.0</ele><time>2026-04-30T23:45:06.043Z</time></trkpt><trkpt lat="43.3652576" lon="7.2865741"><ele>0.0</ele><time>2026-04-30T23:45:07.043Z</time></trkpt><trkpt lat="43.3653071" lon="7.2866645"><ele>0.0</ele><time>2026-04-30T23:45:08.043Z</time></trkpt><trkpt lat="43.3653614" lon="7.286752"><ele>0.0</ele><time>2026-04-30T23:45:09.043Z</time></trkpt><trkpt lat="43.3654141" lon="7.2868385"><ele>0.0</ele><time>2026-04-30T23:45:10.043Z</time></trkpt><trkpt lat="43.3654597" lon="7.286928"><ele>0.0</ele><time>2026-04-30T23:45:11.044Z</time></trkpt><trkpt lat="43.3655044" lon="7.287022"><ele>0.0</ele><time>2026-04-30T23:45:12.043Z</time></trkpt><trkpt lat="43.3655579" lon="7.2871145"><ele>0.0</ele><time>2026-04-30T23:45:13.043Z</time></trkpt><trkpt lat="43.3656115" lon="7.2872077"><ele>0.0</ele><time>2026-04-30T23:45:14.043Z</time></trkpt><trkpt lat="43.3656651" lon="7.2872966"><ele>0.0</ele><time>2026-04-30T23:45:15.044Z</time></trkpt><trkpt lat="43.3657214" lon="7.2873819"><ele>0.0</ele><time>2026-04-30T23:45:16.043Z</time></trkpt><trkpt lat="43.3657723" lon="7.2874682"><ele>0.0</ele><time>2026-04-30T23:45:17.043Z</time></trkpt><trkpt lat="43.3658252" lon="7.2875577"><ele>0.0</ele><time>2026-04-30T23:45:18.044Z</time></trkpt><trkpt lat="43.3658798" lon="7.2876506"><ele>0.0</ele><time>2026-04-30T23:45:19.044Z</time></trkpt><trkpt lat="43.3659717" lon="7.2878395"><ele>0.0</ele><time>2026-04-30T23:45:21.044Z</time></trkpt><trkpt lat="43.3660307" lon="7.2879338"><ele>0.0</ele><time>2026-04-30T23:45:22.043Z</time></trkpt><trkpt lat="43.3660809" lon="7.2880273"><ele>0.0</ele><time>2026-04-30T23:45:23.043Z</time></trkpt><trkpt lat="43.3661289" lon="7.2881239"><ele>0.0</ele><time>2026-04-30T23:45:24.043Z</time></trkpt><trkpt lat="43.3661828" lon="7.2882133"><ele>0.0</ele><time>2026-04-30T23:45:25.043Z</time></trkpt><trkpt lat="43.3662362" lon="7.2883023"><ele>0.0</ele><time>2026-04-30T23:45:26.043Z</time></trkpt><trkpt lat="43.3662869" lon="7.288392"><ele>0.0</ele><time>2026-04-30T23:45:27.043Z</time></trkpt><trkpt lat="43.3663374" lon="7.2884816"><ele>0.0</ele><time>2026-04-30T23:45:28.043Z</time></trkpt><trkpt lat="43.3663871" lon="7.2885704"><ele>0.0</ele><time>2026-04-30T23:45:29.043Z</time></trkpt><trkpt lat="43.3664386" lon="7.2886583"><ele>0.0</ele><time>2026-04-30T23:45:30.043Z</time></trkpt><trkpt lat="43.3664862" lon="7.2887549"><ele>0.0</ele><time>2026-04-30T23:45:31.043Z</time></trkpt><trkpt lat="43.3665354" lon="7.2888521"><ele>0.0</ele><time>2026-04-30T23:45:32.044Z</time></trkpt><trkpt lat="43.3665882" lon="7.2889472"><ele>0.0</ele><time>2026-04-30T23:45:33.044Z</time></trkpt><trkpt lat="43.3666414" lon="7.2890339"><ele>0.0</ele><time>2026-04-30T23:45:34.043Z</time></trkpt><trkpt lat="43.3667557" lon="7.2892134"><ele>0.0</ele><time>2026-04-30T23:45:36.043Z</time></trkpt><trkpt lat="43.3668255" lon="7.289279"><ele>0.0</ele><time>2026-04-30T23:45:37.044Z</time></trkpt><trkpt lat="43.3668803" lon="7.2893675"><ele>0.0</ele><time>2026-04-30T23:45:38.044Z</time></trkpt><trkpt lat="43.3669353" lon="7.2894534"><ele>0.0</ele><time>2026-04-30T23:45:39.043Z</time></trkpt><trkpt lat="43.3669886" lon="7.2895416"><ele>0.0</ele><time>2026-04-30T23:45:40.043Z</time></trkpt><trkpt lat="43.3671086" lon="7.2896937"><ele>0.0</ele><time>2026-04-30T23:45:42.044Z</time></trkpt><trkpt lat="43.3671592" lon="7.2897813"><ele>0.0</ele><time>2026-04-30T23:45:43.043Z</time></trkpt><trkpt lat="43.3672052" lon="7.2898692"><ele>0.0</ele><time>2026-04-30T23:45:44.044Z</time></trkpt><trkpt lat="43.3672526" lon="7.2899621"><ele>0.0</ele><time>2026-04-30T23:45:45.043Z</time></trkpt><trkpt lat="43.3673038" lon="7.2900486"><ele>0.0</ele><time>2026-04-30T23:45:46.044Z</time></trkpt><trkpt lat="43.367358" lon="7.2901242"><ele>0.0</ele><time>2026-04-30T23:45:47.044Z</time></trkpt><trkpt lat="43.3674159" lon="7.2901914"><ele>0.0</ele><time>2026-04-30T23:45:48.043Z</time></trkpt><trkpt lat="43.3674799" lon="7.290263"><ele>0.0</ele><time>2026-04-30T23:45:49.043Z</time></trkpt><trkpt lat="43.3675451" lon="7.290332"><ele>0.0</ele><time>2026-04-30T23:45:50.043Z</time></trkpt><trkpt lat="43.367593" lon="7.2904269"><ele>0.0</ele><time>2026-04-30T23:45:51.044Z</time></trkpt><trkpt lat="43.3676522" lon="7.2905054"><ele>0.0</ele><time>2026-04-30T23:45:52.044Z</time></trkpt><trkpt lat="43.3677024" lon="7.2905958"><ele>0.0</ele><time>2026-04-30T23:45:53.043Z</time></trkpt><trkpt lat="43.3677454" lon="7.2906959"><ele>0.0</ele><time>2026-04-30T23:45:54.043Z</time></trkpt><trkpt lat="43.3677882" lon="7.2907949"><ele>0.0</ele><time>2026-04-30T23:45:55.043Z</time></trkpt><trkpt lat="43.3678343" lon="7.2908923"><ele>0.0</ele><time>2026-04-30T23:45:56.044Z</time></trkpt><trkpt lat="43.3678739" lon="7.2909702"><ele>0.0</ele><time>2026-04-30T23:45:57.043Z</time></trkpt><trkpt lat="43.3679235" lon="7.2910557"><ele>0.0</ele><time>2026-04-30T23:45:58.044Z</time></trkpt><trkpt lat="43.3679679" lon="7.2911376"><ele>0.0</ele><time>2026-04-30T23:45:59.044Z</time></trkpt><trkpt lat="43.3680153" lon="7.2912407"><ele>0.0</ele><time>2026-04-30T23:46:00.043Z</time></trkpt><trkpt lat="43.3680725" lon="7.291316"><ele>0.0</ele><time>2026-04-30T23:46:01.044Z</time></trkpt><trkpt lat="43.368187" lon="7.2914751"><ele>0.0</ele><time>2026-04-30T23:46:03.043Z</time></trkpt><trkpt lat="43.368248" lon="7.2915515"><ele>0.0</ele><time>2026-04-30T23:46:04.044Z</time></trkpt><trkpt lat="43.3683086" lon="7.2916434"><ele>0.0</ele><time>2026-04-30T23:46:05.043Z</time></trkpt><trkpt lat="43.3683638" lon="7.291735"><ele>0.0</ele><time>2026-04-30T23:46:06.043Z</time></trkpt><trkpt lat="43.368476" lon="7.2919036"><ele>0.0</ele><time>2026-04-30T23:46:08.044Z</time></trkpt><trkpt lat="43.3685376" lon="7.2919752"><ele>0.0</ele><time>2026-04-30T23:46:09.044Z</time></trkpt><trkpt lat="43.368599" lon="7.2920469"><ele>0.0</ele><time>2026-04-30T23:46:10.044Z</time></trkpt><trkpt lat="43.3686578" lon="7.2921243"><ele>0.0</ele><time>2026-04-30T23:46:11.044Z</time></trkpt><trkpt lat="43.3687149" lon="7.2922069"><ele>0.0</ele><time>2026-04-30T23:46:12.043Z</time></trkpt><trkpt lat="43.3687687" lon="7.2923004"><ele>0.0</ele><time>2026-04-30T23:46:13.044Z</time></trkpt><trkpt lat="43.3688233" lon="7.292404"><ele>0.0</ele><time>2026-04-30T23:46:14.043Z</time></trkpt><trkpt lat="43.3688712" lon="7.2925061"><ele>0.0</ele><time>2026-04-30T23:46:15.043Z</time></trkpt><trkpt lat="43.3689208" lon="7.2926024"><ele>0.0</ele><time>2026-04-30T23:46:16.044Z</time></trkpt><trkpt lat="43.3689666" lon="7.2927007"><ele>0.0</ele><time>2026-04-30T23:46:17.043Z</time></trkpt><trkpt lat="43.3690129" lon="7.2927985"><ele>0.0</ele><time>2026-04-30T23:46:18.044Z</time></trkpt><trkpt lat="43.3690611" lon="7.2928953"><ele>0.0</ele><time>2026-04-30T23:46:19.044Z</time></trkpt><trkpt lat="43.3691093" lon="7.2929917"><ele>0.0</ele><time>2026-04-30T23:46:20.044Z</time></trkpt><trkpt lat="43.3691605" lon="7.2930885"><ele>0.0</ele><time>2026-04-30T23:46:21.043Z</time></trkpt><trkpt lat="43.3692107" lon="7.2931828"><ele>0.0</ele><time>2026-04-30T23:46:22.043Z</time></trkpt><trkpt lat="43.3693061" lon="7.2933786"><ele>0.0</ele><time>2026-04-30T23:46:24.044Z</time></trkpt><trkpt lat="43.3693514" lon="7.2934799"><ele>0.0</ele><time>2026-04-30T23:46:25.043Z</time></trkpt><trkpt lat="43.3693923" lon="7.29358"><ele>0.0</ele><time>2026-04-30T23:46:26.044Z</time></trkpt><trkpt lat="43.3694352" lon="7.2936771"><ele>0.0</ele><time>2026-04-30T23:46:27.044Z</time></trkpt><trkpt lat="43.3694811" lon="7.2937708"><ele>0.0</ele><time>2026-04-30T23:46:28.043Z</time></trkpt><trkpt lat="43.3695263" lon="7.2938656"><ele>0.0</ele><time>2026-04-30T23:46:29.043Z</time></trkpt><trkpt lat="43.369571" lon="7.2939592"><ele>0.0</ele><time>2026-04-30T23:46:30.044Z</time></trkpt><trkpt lat="43.3696218" lon="7.2940542"><ele>0.0</ele><time>2026-04-30T23:46:31.044Z</time></trkpt><trkpt lat="43.3696689" lon="7.2941503"><ele>0.0</ele><time>2026-04-30T23:46:32.044Z</time></trkpt><trkpt lat="43.3697227" lon="7.2942417"><ele>0.0</ele><time>2026-04-30T23:46:33.044Z</time></trkpt><trkpt lat="43.3697764" lon="7.2943305"><ele>0.0</ele><time>2026-04-30T23:46:34.043Z</time></trkpt><trkpt lat="43.3698228" lon="7.2944153"><ele>0.0</ele><time>2026-04-30T23:46:35.044Z</time></trkpt><trkpt lat="43.3698749" lon="7.2945046"><ele>0.0</ele><time>2026-04-30T23:46:36.044Z</time></trkpt><trkpt lat="43.3699269" lon="7.2945964"><ele>0.0</ele><time>2026-04-30T23:46:37.043Z</time></trkpt><trkpt lat="43.36998" lon="7.2946923"><ele>0.0</ele><time>2026-04-30T23:46:38.043Z</time></trkpt><trkpt lat="43.37003" lon="7.2947875"><ele>0.0</ele><time>2026-04-30T23:46:39.044Z</time></trkpt><trkpt lat="43.3701383" lon="7.2949823"><ele>0.0</ele><time>2026-04-30T23:46:41.043Z</time></trkpt><trkpt lat="43.370192" lon="7.2950771"><ele>0.0</ele><time>2026-04-30T23:46:42.044Z</time></trkpt><trkpt lat="43.3702454" lon="7.2951707"><ele>0.0</ele><time>2026-04-30T23:46:43.043Z</time></trkpt><trkpt lat="43.3703457" lon="7.2953513"><ele>0.0</ele><time>2026-04-30T23:46:45.043Z</time></trkpt><trkpt lat="43.3703981" lon="7.2954431"><ele>0.0</ele><time>2026-04-30T23:46:46.043Z</time></trkpt><trkpt lat="43.3704469" lon="7.2955363"><ele>0.0</ele><time>2026-04-30T23:46:47.044Z</time></trkpt><trkpt lat="43.3704939" lon="7.2956339"><ele>0.0</ele><time>2026-04-30T23:46:48.043Z</time></trkpt><trkpt lat="43.3705464" lon="7.2957352"><ele>0.0</ele><time>2026-04-30T23:46:49.044Z</time></trkpt><trkpt lat="43.3706081" lon="7.2958354"><ele>0.0</ele><time>2026-04-30T23:46:50.043Z</time></trkpt><trkpt lat="43.3706838" lon="7.2959102"><ele>0.0</ele><time>2026-04-30T23:46:51.043Z</time></trkpt><trkpt lat="43.3707423" lon="7.2960029"><ele>0.0</ele><time>2026-04-30T23:46:52.043Z</time></trkpt><trkpt lat="43.370798" lon="7.2961002"><ele>0.0</ele><time>2026-04-30T23:46:53.044Z</time></trkpt><trkpt lat="43.3708518" lon="7.2961914"><ele>0.0</ele><time>2026-04-30T23:46:54.044Z</time></trkpt><trkpt lat="43.3708979" lon="7.296283"><ele>0.0</ele><time>2026-04-30T23:46:55.044Z</time></trkpt><trkpt lat="43.370947" lon="7.2963764"><ele>0.0</ele><time>2026-04-30T23:46:56.044Z</time></trkpt><trkpt lat="43.3710026" lon="7.2964695"><ele>0.0</ele><time>2026-04-30T23:46:57.043Z</time></trkpt><trkpt lat="43.3710595" lon="7.2965641"><ele>0.0</ele><time>2026-04-30T23:46:58.043Z</time></trkpt><trkpt lat="43.3711132" lon="7.2966606"><ele>0.0</ele><time>2026-04-30T23:46:59.043Z</time></trkpt><trkpt lat="43.3711667" lon="7.2967516"><ele>0.0</ele><time>2026-04-30T23:47:00.043Z</time></trkpt><trkpt lat="43.37122" lon="7.2968417"><ele>0.0</ele><time>2026-04-30T23:47:01.044Z</time></trkpt><trkpt lat="43.3712765" lon="7.2969327"><ele>0.0</ele><time>2026-04-30T23:47:02.044Z</time></trkpt><trkpt lat="43.3713303" lon="7.2970271"><ele>0.0</ele><time>2026-04-30T23:47:03.044Z</time></trkpt><trkpt lat="43.3713823" lon="7.297115"><ele>0.0</ele><time>2026-04-30T23:47:04.044Z</time></trkpt><trkpt lat="43.3714922" lon="7.2972831"><ele>0.0</ele><time>2026-04-30T23:47:06.044Z</time></trkpt><trkpt lat="43.3715429" lon="7.2973702"><ele>0.0</ele><time>2026-04-30T23:47:07.044Z</time></trkpt><trkpt lat="43.3715939" lon="7.2974599"><ele>0.0</ele><time>2026-04-30T23:47:08.044Z</time></trkpt><trkpt lat="43.3716426" lon="7.2975497"><ele>0.0</ele><time>2026-04-30T23:47:09.044Z</time></trkpt><trkpt lat="43.3716906" lon="7.2976399"><ele>0.0</ele><time>2026-04-30T23:47:10.043Z</time></trkpt><trkpt lat="43.3717345" lon="7.2977303"><ele>0.0</ele><time>2026-04-30T23:47:11.043Z</time></trkpt><trkpt lat="43.3717864" lon="7.297816"><ele>0.0</ele><time>2026-04-30T23:47:12.044Z</time></trkpt><trkpt lat="43.3718374" lon="7.2979001"><ele>0.0</ele><time>2026-04-30T23:47:13.043Z</time></trkpt><trkpt lat="43.371886" lon="7.297989"><ele>0.0</ele><time>2026-04-30T23:47:14.044Z</time></trkpt><trkpt lat="43.3719359" lon="7.2980765"><ele>0.0</ele><time>2026-04-30T23:47:15.044Z</time></trkpt><trkpt lat="43.3719859" lon="7.2981619"><ele>0.0</ele><time>2026-04-30T23:47:16.043Z</time></trkpt><trkpt lat="43.3720386" lon="7.2982451"><ele>0.0</ele><time>2026-04-30T23:47:17.044Z</time></trkpt><trkpt lat="43.3720863" lon="7.2983317"><ele>0.0</ele><time>2026-04-30T23:47:18.043Z</time></trkpt><trkpt lat="43.3721329" lon="7.2984185"><ele>0.0</ele><time>2026-04-30T23:47:19.044Z</time></trkpt><trkpt lat="43.3721838" lon="7.2984982"><ele>0.0</ele><time>2026-04-30T23:47:20.043Z</time></trkpt><trkpt lat="43.3722294" lon="7.2985894"><ele>0.0</ele><time>2026-04-30T23:47:21.044Z</time></trkpt><trkpt lat="43.3722857" lon="7.2986798"><ele>0.0</ele><time>2026-04-30T23:47:22.043Z</time></trkpt><trkpt lat="43.3723458" lon="7.2987711"><ele>0.0</ele><time>2026-04-30T23:47:23.044Z</time></trkpt><trkpt lat="43.3724031" lon="7.2988642"><ele>0.0</ele><time>2026-04-30T23:47:24.043Z</time></trkpt><trkpt lat="43.3724611" lon="7.2989502"><ele>0.0</ele><time>2026-04-30T23:47:25.044Z</time></trkpt><trkpt lat="43.3725708" lon="7.2991248"><ele>0.0</ele><time>2026-04-30T23:47:27.043Z</time></trkpt><trkpt lat="43.3726166" lon="7.2992127"><ele>0.0</ele><time>2026-04-30T23:47:28.044Z</time></trkpt><trkpt lat="43.372664" lon="7.2993027"><ele>0.0</ele><time>2026-04-30T23:47:29.044Z</time></trkpt><trkpt lat="43.372715" lon="7.29939"><ele>0.0</ele><time>2026-04-30T23:47:30.043Z</time></trkpt><trkpt lat="43.3727682" lon="7.2994781"><ele>0.0</ele><time>2026-04-30T23:47:31.043Z</time></trkpt><trkpt lat="43.372823" lon="7.2995707"><ele>0.0</ele><time>2026-04-30T23:47:32.044Z</time></trkpt><trkpt lat="43.3728784" lon="7.2996613"><ele>0.0</ele><time>2026-04-30T23:47:33.044Z</time></trkpt><trkpt lat="43.3729289" lon="7.2997489"><ele>0.0</ele><time>2026-04-30T23:47:34.044Z</time></trkpt><trkpt lat="43.37298" lon="7.2998413"><ele>0.0</ele><time>2026-04-30T23:47:35.044Z</time></trkpt><trkpt lat="43.3730332" lon="7.2999329"><ele>0.0</ele><time>2026-04-30T23:47:36.043Z</time></trkpt><trkpt lat="43.3730881" lon="7.3000263"><ele>0.0</ele><time>2026-04-30T23:47:37.043Z</time></trkpt><trkpt lat="43.3731428" lon="7.3001192"><ele>0.0</ele><time>2026-04-30T23:47:38.044Z</time></trkpt><trkpt lat="43.373198" lon="7.3002096"><ele>0.0</ele><time>2026-04-30T23:47:39.043Z</time></trkpt><trkpt lat="43.3732548" lon="7.3002996"><ele>0.0</ele><time>2026-04-30T23:47:40.043Z</time></trkpt><trkpt lat="43.3733185" lon="7.3003642"><ele>0.0</ele><time>2026-04-30T23:47:41.043Z</time></trkpt><trkpt lat="43.3733902" lon="7.3004236"><ele>0.0</ele><time>2026-04-30T23:47:42.043Z</time></trkpt><trkpt lat="43.3735039" lon="7.3005755"><ele>0.0</ele><time>2026-04-30T23:47:44.044Z</time></trkpt><trkpt lat="43.3735541" lon="7.3006669"><ele>0.0</ele><time>2026-04-30T23:47:45.043Z</time></trkpt><trkpt lat="43.3736056" lon="7.30076"><ele>0.0</ele><time>2026-04-30T23:47:46.044Z</time></trkpt><trkpt lat="43.373709" lon="7.3009249"><ele>0.0</ele><time>2026-04-30T23:47:48.043Z</time></trkpt><trkpt lat="43.373756" lon="7.3010205"><ele>0.0</ele><time>2026-04-30T23:47:49.044Z</time></trkpt><trkpt lat="43.3738039" lon="7.3011144"><ele>0.0</ele><time>2026-04-30T23:47:50.043Z</time></trkpt><trkpt lat="43.3738523" lon="7.3012078"><ele>0.0</ele><time>2026-04-30T23:47:51.043Z</time></trkpt><trkpt lat="43.3738977" lon="7.3013052"><ele>0.0</ele><time>2026-04-30T23:47:52.043Z</time></trkpt><trkpt lat="43.3739472" lon="7.3013925"><ele>0.0</ele><time>2026-04-30T23:47:53.043Z</time></trkpt><trkpt lat="43.3740015" lon="7.3014862"><ele>0.0</ele><time>2026-04-30T23:47:54.044Z</time></trkpt><trkpt lat="43.3740522" lon="7.3015714"><ele>0.0</ele><time>2026-04-30T23:47:55.044Z</time></trkpt><trkpt lat="43.3741095" lon="7.3016682"><ele>0.0</ele><time>2026-04-30T23:47:56.043Z</time></trkpt><trkpt lat="43.3741584" lon="7.301763"><ele>0.0</ele><time>2026-04-30T23:47:57.044Z</time></trkpt><trkpt lat="43.3742116" lon="7.3018532"><ele>0.0</ele><time>2026-04-30T23:47:58.044Z</time></trkpt><trkpt lat="43.3742638" lon="7.3019331"><ele>0.0</ele><time>2026-04-30T23:47:59.043Z</time></trkpt><trkpt lat="43.3743172" lon="7.3020213"><ele>0.0</ele><time>2026-04-30T23:48:00.043Z</time></trkpt><trkpt lat="43.3743721" lon="7.3021112"><ele>0.0</ele><time>2026-04-30T23:48:01.043Z</time></trkpt><trkpt lat="43.3744224" lon="7.3022"><ele>0.0</ele><time>2026-04-30T23:48:02.043Z</time></trkpt><trkpt lat="43.3744707" lon="7.3022912"><ele>0.0</ele><time>2026-04-30T23:48:03.044Z</time></trkpt><trkpt lat="43.3745173" lon="7.3023855"><ele>0.0</ele><time>2026-04-30T23:48:04.043Z</time></trkpt><trkpt lat="43.3745625" lon="7.3024793"><ele>0.0</ele><time>2026-04-30T23:48:05.044Z</time></trkpt><trkpt lat="43.3746144" lon="7.3025683"><ele>0.0</ele><time>2026-04-30T23:48:06.044Z</time></trkpt><trkpt lat="43.3746651" lon="7.3026612"><ele>0.0</ele><time>2026-04-30T23:48:07.043Z</time></trkpt><trkpt lat="43.3747606" lon="7.3028459"><ele>0.0</ele><time>2026-04-30T23:48:09.044Z</time></trkpt><trkpt lat="43.3748133" lon="7.3029365"><ele>0.0</ele><time>2026-04-30T23:48:10.043Z</time></trkpt><trkpt lat="43.3748598" lon="7.3030263"><ele>0.0</ele><time>2026-04-30T23:48:11.043Z</time></trkpt><trkpt lat="43.3749161" lon="7.3031136"><ele>0.0</ele><time>2026-04-30T23:48:12.044Z</time></trkpt><trkpt lat="43.374975" lon="7.3031997"><ele>0.0</ele><time>2026-04-30T23:48:13.043Z</time></trkpt><trkpt lat="43.375028" lon="7.3032922"><ele>0.0</ele><time>2026-04-30T23:48:14.043Z</time></trkpt><trkpt lat="43.3750794" lon="7.3033815"><ele>0.0</ele><time>2026-04-30T23:48:15.044Z</time></trkpt><trkpt lat="43.375185" lon="7.3035608"><ele>0.0</ele><time>2026-04-30T23:48:17.044Z</time></trkpt><trkpt lat="43.3752367" lon="7.3036556"><ele>0.0</ele><time>2026-04-30T23:48:18.043Z</time></trkpt><trkpt lat="43.3752866" lon="7.3037423"><ele>0.0</ele><time>2026-04-30T23:48:19.044Z</time></trkpt><trkpt lat="43.3753365" lon="7.3038406"><ele>0.0</ele><time>2026-04-30T23:48:20.043Z</time></trkpt><trkpt lat="43.3753865" lon="7.3039375"><ele>0.0</ele><time>2026-04-30T23:48:21.044Z</time></trkpt><trkpt lat="43.375438" lon="7.3040326"><ele>0.0</ele><time>2026-04-30T23:48:22.043Z</time></trkpt><trkpt lat="43.3754938" lon="7.3041062"><ele>0.0</ele><time>2026-04-30T23:48:23.044Z</time></trkpt><trkpt lat="43.3755422" lon="7.3041991"><ele>0.0</ele><time>2026-04-30T23:48:24.044Z</time></trkpt><trkpt lat="43.3755931" lon="7.3042969"><ele>0.0</ele><time>2026-04-30T23:48:25.043Z</time></trkpt><trkpt lat="43.3756464" lon="7.3044002"><ele>0.0</ele><time>2026-04-30T23:48:26.044Z</time></trkpt><trkpt lat="43.3756937" lon="7.3045011"><ele>0.0</ele><time>2026-04-30T23:48:27.044Z</time></trkpt><trkpt lat="43.3757432" lon="7.3045953"><ele>0.0</ele><time>2026-04-30T23:48:28.044Z</time></trkpt><trkpt lat="43.3758468" lon="7.3047836"><ele>0.0</ele><time>2026-04-30T23:48:30.043Z</time></trkpt><trkpt lat="43.3758981" lon="7.3048727"><ele>0.0</ele><time>2026-04-30T23:48:31.043Z</time></trkpt><trkpt lat="43.3759469" lon="7.3049574"><ele>0.0</ele><time>2026-04-30T23:48:32.044Z</time></trkpt><trkpt lat="43.3759924" lon="7.3050468"><ele>0.0</ele><time>2026-04-30T23:48:33.043Z</time></trkpt><trkpt lat="43.3760444" lon="7.3051326"><ele>0.0</ele><time>2026-04-30T23:48:34.043Z</time></trkpt><trkpt lat="43.3760999" lon="7.3052228"><ele>0.0</ele><time>2026-04-30T23:48:35.043Z</time></trkpt><trkpt lat="43.3761519" lon="7.3053131"><ele>0.0</ele><time>2026-04-30T23:48:36.044Z</time></trkpt><trkpt lat="43.3762022" lon="7.3054"><ele>0.0</ele><time>2026-04-30T23:48:37.044Z</time></trkpt><trkpt lat="43.3762519" lon="7.3054856"><ele>0.0</ele><time>2026-04-30T23:48:38.043Z</time></trkpt><trkpt lat="43.3763257" lon="7.3055435"><ele>0.0</ele><time>2026-04-30T23:48:39.043Z</time></trkpt><trkpt lat="43.3763887" lon="7.3056288"><ele>0.0</ele><time>2026-04-30T23:48:40.044Z</time></trkpt><trkpt lat="43.3764535" lon="7.3056967"><ele>0.0</ele><time>2026-04-30T23:48:41.044Z</time></trkpt><trkpt lat="43.3765173" lon="7.3057663"><ele>0.0</ele><time>2026-04-30T23:48:42.044Z</time></trkpt><trkpt lat="43.376562" lon="7.3058613"><ele>0.0</ele><time>2026-04-30T23:48:43.044Z</time></trkpt><trkpt lat="43.3766092" lon="7.3059584"><ele>0.0</ele><time>2026-04-30T23:48:44.044Z</time></trkpt><trkpt lat="43.37666" lon="7.3060581"><ele>0.0</ele><time>2026-04-30T23:48:45.043Z</time></trkpt><trkpt lat="43.3767086" lon="7.3061537"><ele>0.0</ele><time>2026-04-30T23:48:46.043Z</time></trkpt><trkpt lat="43.3767602" lon="7.306249"><ele>0.0</ele><time>2026-04-30T23:48:47.044Z</time></trkpt><trkpt lat="43.3768247" lon="7.3063201"><ele>0.0</ele><time>2026-04-30T23:48:48.043Z</time></trkpt><trkpt lat="43.376986" lon="7.3065528"><ele>0.0</ele><time>2026-04-30T23:48:51.043Z</time></trkpt><trkpt lat="43.3770414" lon="7.3066343"><ele>0.0</ele><time>2026-04-30T23:48:52.044Z</time></trkpt><trkpt lat="43.3771008" lon="7.3067356"><ele>0.0</ele><time>2026-04-30T23:48:53.044Z</time></trkpt><trkpt lat="43.3771523" lon="7.3068293"><ele>0.0</ele><time>2026-04-30T23:48:54.043Z</time></trkpt><trkpt lat="43.3772093" lon="7.3069213"><ele>0.0</ele><time>2026-04-30T23:48:55.043Z</time></trkpt><trkpt lat="43.3772548" lon="7.3070099"><ele>0.0</ele><time>2026-04-30T23:48:56.044Z</time></trkpt><trkpt lat="43.3773098" lon="7.3070883"><ele>0.0</ele><time>2026-04-30T23:48:57.043Z</time></trkpt><trkpt lat="43.3773611" lon="7.3071787"><ele>0.0</ele><time>2026-04-30T23:48:58.043Z</time></trkpt><trkpt lat="43.3774068" lon="7.3072705"><ele>0.0</ele><time>2026-04-30T23:48:59.043Z</time></trkpt><trkpt lat="43.3774546" lon="7.3073606"><ele>0.0</ele><time>2026-04-30T23:49:00.043Z</time></trkpt><trkpt lat="43.3775013" lon="7.3074512"><ele>0.0</ele><time>2026-04-30T23:49:01.044Z</time></trkpt><trkpt lat="43.3775506" lon="7.307544"><ele>0.0</ele><time>2026-04-30T23:49:02.043Z</time></trkpt><trkpt lat="43.3776021" lon="7.3076322"><ele>0.0</ele><time>2026-04-30T23:49:03.044Z</time></trkpt><trkpt lat="43.3776551" lon="7.3077243"><ele>0.0</ele><time>2026-04-30T23:49:04.043Z</time></trkpt><trkpt lat="43.3777041" lon="7.3078098"><ele>0.0</ele><time>2026-04-30T23:49:05.043Z</time></trkpt><trkpt lat="43.3777551" lon="7.3078982"><ele>0.0</ele><time>2026-04-30T23:49:06.044Z</time></trkpt><trkpt lat="43.3778079" lon="7.3079726"><ele>0.0</ele><time>2026-04-30T23:49:07.044Z</time></trkpt><trkpt lat="43.3778611" lon="7.3080558"><ele>0.0</ele><time>2026-04-30T23:49:08.043Z</time></trkpt><trkpt lat="43.3779239" lon="7.3081423"><ele>0.0</ele><time>2026-04-30T23:49:09.044Z</time></trkpt><trkpt lat="43.3779917" lon="7.3082309"><ele>0.0</ele><time>2026-04-30T23:49:10.043Z</time></trkpt><trkpt lat="43.3781034" lon="7.3084189"><ele>0.0</ele><time>2026-04-30T23:49:12.043Z</time></trkpt><trkpt lat="43.3781585" lon="7.3084994"><ele>0.0</ele><time>2026-04-30T23:49:13.043Z</time></trkpt><trkpt lat="43.3782075" lon="7.308597"><ele>0.0</ele><time>2026-04-30T23:49:14.043Z</time></trkpt><trkpt lat="43.3782535" lon="7.3086862"><ele>0.0</ele><time>2026-04-30T23:49:15.043Z</time></trkpt><trkpt lat="43.3783006" lon="7.3087793"><ele>0.0</ele><time>2026-04-30T23:49:16.044Z</time></trkpt><trkpt lat="43.3783557" lon="7.3088761"><ele>0.0</ele><time>2026-04-30T23:49:17.043Z</time></trkpt><trkpt lat="43.3784166" lon="7.3089571"><ele>0.0</ele><time>2026-04-30T23:49:18.043Z</time></trkpt><trkpt lat="43.3784726" lon="7.3090505"><ele>0.0</ele><time>2026-04-30T23:49:19.043Z</time></trkpt><trkpt lat="43.3785177" lon="7.3091542"><ele>0.0</ele><time>2026-04-30T23:49:20.044Z</time></trkpt><trkpt lat="43.3786158" lon="7.3093412"><ele>0.0</ele><time>2026-04-30T23:49:22.043Z</time></trkpt><trkpt lat="43.3786609" lon="7.3094314"><ele>0.0</ele><time>2026-04-30T23:49:23.043Z</time></trkpt><trkpt lat="43.3787104" lon="7.3095215"><ele>0.0</ele><time>2026-04-30T23:49:24.043Z</time></trkpt><trkpt lat="43.3787559" lon="7.3096217"><ele>0.0</ele><time>2026-04-30T23:49:25.043Z</time></trkpt><trkpt lat="43.3788028" lon="7.3097193"><ele>0.0</ele><time>2026-04-30T23:49:26.043Z</time></trkpt><trkpt lat="43.378849" lon="7.3098003"><ele>0.0</ele><time>2026-04-30T23:49:27.043Z</time></trkpt><trkpt lat="43.3788971" lon="7.3098922"><ele>0.0</ele><time>2026-04-30T23:49:28.043Z</time></trkpt><trkpt lat="43.3789579" lon="7.3099836"><ele>0.0</ele><time>2026-04-30T23:49:29.043Z</time></trkpt><trkpt lat="43.3790128" lon="7.3100779"><ele>0.0</ele><time>2026-04-30T23:49:30.042Z</time></trkpt><trkpt lat="43.3790652" lon="7.3101774"><ele>0.0</ele><time>2026-04-30T23:49:31.043Z</time></trkpt><trkpt lat="43.3791648" lon="7.3103671"><ele>0.0</ele><time>2026-04-30T23:49:33.043Z</time></trkpt><trkpt lat="43.379212" lon="7.3104656"><ele>0.0</ele><time>2026-04-30T23:49:34.042Z</time></trkpt><trkpt lat="43.3792643" lon="7.3105506"><ele>0.0</ele><time>2026-04-30T23:49:35.042Z</time></trkpt><trkpt lat="43.3793149" lon="7.3106393"><ele>0.0</ele><time>2026-04-30T23:49:36.043Z</time></trkpt><trkpt lat="43.3793822" lon="7.3107089"><ele>0.0</ele><time>2026-04-30T23:49:37.043Z</time></trkpt><trkpt lat="43.3794394" lon="7.3107954"><ele>0.0</ele><time>2026-04-30T23:49:38.043Z</time></trkpt><trkpt lat="43.3794935" lon="7.3108879"><ele>0.0</ele><time>2026-04-30T23:49:39.042Z</time></trkpt><trkpt lat="43.3795456" lon="7.3109827"><ele>0.0</ele><time>2026-04-30T23:49:40.042Z</time></trkpt><trkpt lat="43.3796012" lon="7.3110462"><ele>0.0</ele><time>2026-04-30T23:49:41.043Z</time></trkpt><trkpt lat="43.3796525" lon="7.3111346"><ele>0.0</ele><time>2026-04-30T23:49:42.042Z</time></trkpt><trkpt lat="43.3797168" lon="7.3112031"><ele>0.0</ele><time>2026-04-30T23:49:43.042Z</time></trkpt><trkpt lat="43.3797733" lon="7.3112914"><ele>0.0</ele><time>2026-04-30T23:49:44.042Z</time></trkpt><trkpt lat="43.37983" lon="7.3113821"><ele>0.0</ele><time>2026-04-30T23:49:45.043Z</time></trkpt><trkpt lat="43.379891" lon="7.3114699"><ele>0.0</ele><time>2026-04-30T23:49:46.042Z</time></trkpt><trkpt lat="43.3799568" lon="7.3115394"><ele>0.0</ele><time>2026-04-30T23:49:47.042Z</time></trkpt><trkpt lat="43.380015" lon="7.3116285"><ele>0.0</ele><time>2026-04-30T23:49:48.042Z</time></trkpt><trkpt lat="43.3800644" lon="7.3117231"><ele>0.0</ele><time>2026-04-30T23:49:49.043Z</time></trkpt><trkpt lat="43.3801172" lon="7.3118094"><ele>0.0</ele><time>2026-04-30T23:49:50.043Z</time></trkpt><trkpt lat="43.3801644" lon="7.311892"><ele>0.0</ele><time>2026-04-30T23:49:51.042Z</time></trkpt><trkpt lat="43.3802152" lon="7.3119827"><ele>0.0</ele><time>2026-04-30T23:49:52.042Z</time></trkpt><trkpt lat="43.3802713" lon="7.3120849"><ele>0.0</ele><time>2026-04-30T23:49:53.043Z</time></trkpt><trkpt lat="43.3803866" lon="7.312267"><ele>0.0</ele><time>2026-04-30T23:49:55.042Z</time></trkpt><trkpt lat="43.3804362" lon="7.3123593"><ele>0.0</ele><time>2026-04-30T23:49:56.043Z</time></trkpt><trkpt lat="43.3804847" lon="7.3124619"><ele>0.0</ele><time>2026-04-30T23:49:57.042Z</time></trkpt><trkpt lat="43.3805415" lon="7.3125599"><ele>0.0</ele><time>2026-04-30T23:49:58.042Z</time></trkpt><trkpt lat="43.3805927" lon="7.3126556"><ele>0.0</ele><time>2026-04-30T23:49:59.042Z</time></trkpt><trkpt lat="43.3806468" lon="7.3127477"><ele>0.0</ele><time>2026-04-30T23:50:00.043Z</time></trkpt><trkpt lat="43.3807063" lon="7.3128347"><ele>0.0</ele><time>2026-04-30T23:50:01.042Z</time></trkpt><trkpt lat="43.380756" lon="7.312926"><ele>0.0</ele><time>2026-04-30T23:50:02.042Z</time></trkpt><trkpt lat="43.3808146" lon="7.3130146"><ele>0.0</ele><time>2026-04-30T23:50:03.042Z</time></trkpt><trkpt lat="43.3808717" lon="7.3131018"><ele>0.0</ele><time>2026-04-30T23:50:04.043Z</time></trkpt><trkpt lat="43.380923" lon="7.3131944"><ele>0.0</ele><time>2026-04-30T23:50:05.043Z</time></trkpt><trkpt lat="43.3809914" lon="7.3132717"><ele>0.0</ele><time>2026-04-30T23:50:06.043Z</time></trkpt><trkpt lat="43.3810446" lon="7.3133651"><ele>0.0</ele><time>2026-04-30T23:50:07.042Z</time></trkpt><trkpt lat="43.3810905" lon="7.3134572"><ele>0.0</ele><time>2026-04-30T23:50:08.043Z</time></trkpt><trkpt lat="43.3811384" lon="7.3135422"><ele>0.0</ele><time>2026-04-30T23:50:09.043Z</time></trkpt><trkpt lat="43.3811879" lon="7.3136341"><ele>0.0</ele><time>2026-04-30T23:50:10.043Z</time></trkpt><trkpt lat="43.3812404" lon="7.3137275"><ele>0.0</ele><time>2026-04-30T23:50:11.043Z</time></trkpt><trkpt lat="43.3812924" lon="7.3138109"><ele>0.0</ele><time>2026-04-30T23:50:12.042Z</time></trkpt><trkpt lat="43.3813409" lon="7.3138994"><ele>0.0</ele><time>2026-04-30T23:50:13.042Z</time></trkpt><trkpt lat="43.3813891" lon="7.3139823"><ele>0.0</ele><time>2026-04-30T23:50:14.042Z</time></trkpt><trkpt lat="43.3814922" lon="7.3141545"><ele>0.0</ele><time>2026-04-30T23:50:16.043Z</time></trkpt><trkpt lat="43.3815429" lon="7.3142286"><ele>0.0</ele><time>2026-04-30T23:50:17.043Z</time></trkpt><trkpt lat="43.3815927" lon="7.3143133"><ele>0.0</ele><time>2026-04-30T23:50:18.042Z</time></trkpt><trkpt lat="43.3816456" lon="7.3144037"><ele>0.0</ele><time>2026-04-30T23:50:19.042Z</time></trkpt><trkpt lat="43.3816975" lon="7.3145045"><ele>0.0</ele><time>2026-04-30T23:50:20.043Z</time></trkpt><trkpt lat="43.3817548" lon="7.3145976"><ele>0.0</ele><time>2026-04-30T23:50:21.042Z</time></trkpt><trkpt lat="43.381813" lon="7.314692"><ele>0.0</ele><time>2026-04-30T23:50:22.043Z</time></trkpt><trkpt lat="43.3818714" lon="7.314784"><ele>0.0</ele><time>2026-04-30T23:50:23.042Z</time></trkpt><trkpt lat="43.3819253" lon="7.3148755"><ele>0.0</ele><time>2026-04-30T23:50:24.042Z</time></trkpt><trkpt lat="43.3820422" lon="7.3150564"><ele>0.0</ele><time>2026-04-30T23:50:26.043Z</time></trkpt><trkpt lat="43.382093" lon="7.3151418"><ele>0.0</ele><time>2026-04-30T23:50:27.043Z</time></trkpt><trkpt lat="43.3821425" lon="7.315231"><ele>0.0</ele><time>2026-04-30T23:50:28.043Z</time></trkpt><trkpt lat="43.3821954" lon="7.3153189"><ele>0.0</ele><time>2026-04-30T23:50:29.042Z</time></trkpt><trkpt lat="43.3822486" lon="7.315405"><ele>0.0</ele><time>2026-04-30T23:50:30.042Z</time></trkpt><trkpt lat="43.3823092" lon="7.3154971"><ele>0.0</ele><time>2026-04-30T23:50:31.042Z</time></trkpt><trkpt lat="43.3823652" lon="7.3155793"><ele>0.0</ele><time>2026-04-30T23:50:32.042Z</time></trkpt><trkpt lat="43.3824177" lon="7.3156751"><ele>0.0</ele><time>2026-04-30T23:50:33.042Z</time></trkpt><trkpt lat="43.3824608" lon="7.3157661"><ele>0.0</ele><time>2026-04-30T23:50:34.043Z</time></trkpt><trkpt lat="43.3825106" lon="7.3158536"><ele>0.0</ele><time>2026-04-30T23:50:35.043Z</time></trkpt><trkpt lat="43.3826006" lon="7.3160439"><ele>0.0</ele><time>2026-04-30T23:50:37.042Z</time></trkpt><trkpt lat="43.382652" lon="7.3161429"><ele>0.0</ele><time>2026-04-30T23:50:38.043Z</time></trkpt><trkpt lat="43.3827022" lon="7.3162451"><ele>0.0</ele><time>2026-04-30T23:50:39.042Z</time></trkpt><trkpt lat="43.3827478" lon="7.3163337"><ele>0.0</ele><time>2026-04-30T23:50:40.043Z</time></trkpt><trkpt lat="43.3827928" lon="7.3164234"><ele>0.0</ele><time>2026-04-30T23:50:41.042Z</time></trkpt><trkpt lat="43.3828364" lon="7.3165106"><ele>0.0</ele><time>2026-04-30T23:50:42.043Z</time></trkpt><trkpt lat="43.3828839" lon="7.3165972"><ele>0.0</ele><time>2026-04-30T23:50:43.043Z</time></trkpt><trkpt lat="43.3829334" lon="7.3166897"><ele>0.0</ele><time>2026-04-30T23:50:44.042Z</time></trkpt><trkpt lat="43.3829833" lon="7.3167815"><ele>0.0</ele><time>2026-04-30T23:50:45.042Z</time></trkpt><trkpt lat="43.3830335" lon="7.3168684"><ele>0.0</ele><time>2026-04-30T23:50:46.042Z</time></trkpt><trkpt lat="43.3830862" lon="7.3169613"><ele>0.0</ele><time>2026-04-30T23:50:47.042Z</time></trkpt><trkpt lat="43.3831428" lon="7.3170558"><ele>0.0</ele><time>2026-04-30T23:50:48.043Z</time></trkpt><trkpt lat="43.3831935" lon="7.3171466"><ele>0.0</ele><time>2026-04-30T23:50:49.042Z</time></trkpt><trkpt lat="43.3832633" lon="7.3172323"><ele>0.0</ele><time>2026-04-30T23:50:50.042Z</time></trkpt><trkpt lat="43.3833224" lon="7.317323"><ele>0.0</ele><time>2026-04-30T23:50:51.042Z</time></trkpt><trkpt lat="43.3833769" lon="7.3174134"><ele>0.0</ele><time>2026-04-30T23:50:52.042Z</time></trkpt><trkpt lat="43.3834319" lon="7.3175075"><ele>0.0</ele><time>2026-04-30T23:50:53.043Z</time></trkpt><trkpt lat="43.3834851" lon="7.3175978"><ele>0.0</ele><time>2026-04-30T23:50:54.042Z</time></trkpt><trkpt lat="43.3835382" lon="7.3176866"><ele>0.0</ele><time>2026-04-30T23:50:55.042Z</time></trkpt><trkpt lat="43.3835919" lon="7.3177809"><ele>0.0</ele><time>2026-04-30T23:50:56.042Z</time></trkpt><trkpt lat="43.3837572" lon="7.3180294"><ele>0.0</ele><time>2026-04-30T23:50:59.042Z</time></trkpt><trkpt lat="43.3838123" lon="7.3181124"><ele>0.0</ele><time>2026-04-30T23:51:00.042Z</time></trkpt><trkpt lat="43.3838612" lon="7.3181986"><ele>0.0</ele><time>2026-04-30T23:51:01.042Z</time></trkpt><trkpt lat="43.3839067" lon="7.3182781"><ele>0.0</ele><time>2026-04-30T23:51:02.042Z</time></trkpt><trkpt lat="43.3839558" lon="7.3183641"><ele>0.0</ele><time>2026-04-30T23:51:03.042Z</time></trkpt><trkpt lat="43.3839955" lon="7.3184561"><ele>0.0</ele><time>2026-04-30T23:51:04.042Z</time></trkpt><trkpt lat="43.3840423" lon="7.318551"><ele>0.0</ele><time>2026-04-30T23:51:05.042Z</time></trkpt><trkpt lat="43.3840889" lon="7.318646"><ele>0.0</ele><time>2026-04-30T23:51:06.042Z</time></trkpt><trkpt lat="43.3841365" lon="7.3187394"><ele>0.0</ele><time>2026-04-30T23:51:07.042Z</time></trkpt><trkpt lat="43.3841965" lon="7.3188282"><ele>0.0</ele><time>2026-04-30T23:51:08.043Z</time></trkpt><trkpt lat="43.3842512" lon="7.3189163"><ele>0.0</ele><time>2026-04-30T23:51:09.043Z</time></trkpt><trkpt lat="43.3843105" lon="7.3190032"><ele>0.0</ele><time>2026-04-30T23:51:10.043Z</time></trkpt><trkpt lat="43.3843622" lon="7.3190904"><ele>0.0</ele><time>2026-04-30T23:51:11.042Z</time></trkpt><trkpt lat="43.3844107" lon="7.3191846"><ele>0.0</ele><time>2026-04-30T23:51:12.042Z</time></trkpt><trkpt lat="43.3844636" lon="7.3192731"><ele>0.0</ele><time>2026-04-30T23:51:13.043Z</time></trkpt><trkpt lat="43.3845153" lon="7.3193662"><ele>0.0</ele><time>2026-04-30T23:51:14.042Z</time></trkpt><trkpt lat="43.3845642" lon="7.3194508"><ele>0.0</ele><time>2026-04-30T23:51:15.042Z</time></trkpt><trkpt lat="43.3846226" lon="7.3195401"><ele>0.0</ele><time>2026-04-30T23:51:16.042Z</time></trkpt><trkpt lat="43.3846785" lon="7.31963"><ele>0.0</ele><time>2026-04-30T23:51:17.042Z</time></trkpt><trkpt lat="43.3847419" lon="7.3197102"><ele>0.0</ele><time>2026-04-30T23:51:18.043Z</time></trkpt><trkpt lat="43.3848531" lon="7.3198798"><ele>0.0</ele><time>2026-04-30T23:51:20.043Z</time></trkpt><trkpt lat="43.3849072" lon="7.3199709"><ele>0.0</ele><time>2026-04-30T23:51:21.042Z</time></trkpt><trkpt lat="43.3849599" lon="7.3200683"><ele>0.0</ele><time>2026-04-30T23:51:22.042Z</time></trkpt><trkpt lat="43.3850174" lon="7.3201615"><ele>0.0</ele><time>2026-04-30T23:51:23.042Z</time></trkpt><trkpt lat="43.3850775" lon="7.3202532"><ele>0.0</ele><time>2026-04-30T23:51:24.042Z</time></trkpt><trkpt lat="43.3851263" lon="7.3203474"><ele>0.0</ele><time>2026-04-30T23:51:25.042Z</time></trkpt><trkpt lat="43.3851787" lon="7.3204396"><ele>0.0</ele><time>2026-04-30T23:51:26.042Z</time></trkpt><trkpt lat="43.3852332" lon="7.3205297"><ele>0.0</ele><time>2026-04-30T23:51:27.043Z</time></trkpt><trkpt lat="43.3852879" lon="7.3206156"><ele>0.0</ele><time>2026-04-30T23:51:28.043Z</time></trkpt><trkpt lat="43.3853372" lon="7.3206987"><ele>0.0</ele><time>2026-04-30T23:51:29.042Z</time></trkpt><trkpt lat="43.3854389" lon="7.3208806"><ele>0.0</ele><time>2026-04-30T23:51:31.043Z</time></trkpt><trkpt lat="43.3854889" lon="7.3209698"><ele>0.0</ele><time>2026-04-30T23:51:32.043Z</time></trkpt><trkpt lat="43.3855373" lon="7.3210568"><ele>0.0</ele><time>2026-04-30T23:51:33.042Z</time></trkpt><trkpt lat="43.3855886" lon="7.3211466"><ele>0.0</ele><time>2026-04-30T23:51:34.043Z</time></trkpt><trkpt lat="43.3856331" lon="7.3212365"><ele>0.0</ele><time>2026-04-30T23:51:35.042Z</time></trkpt><trkpt lat="43.3856808" lon="7.3213293"><ele>0.0</ele><time>2026-04-30T23:51:36.042Z</time></trkpt><trkpt lat="43.3857331" lon="7.3214171"><ele>0.0</ele><time>2026-04-30T23:51:37.042Z</time></trkpt><trkpt lat="43.3857949" lon="7.3215148"><ele>0.0</ele><time>2026-04-30T23:51:38.042Z</time></trkpt><trkpt lat="43.385853" lon="7.3216049"><ele>0.0</ele><time>2026-04-30T23:51:39.043Z</time></trkpt><trkpt lat="43.3859662" lon="7.3217894"><ele>0.0</ele><time>2026-04-30T23:51:41.042Z</time></trkpt><trkpt lat="43.38602" lon="7.3218796"><ele>0.0</ele><time>2026-04-30T23:51:42.042Z</time></trkpt><trkpt lat="43.3860776" lon="7.3219712"><ele>0.0</ele><time>2026-04-30T23:51:43.042Z</time></trkpt><trkpt lat="43.3861341" lon="7.3220541"><ele>0.0</ele><time>2026-04-30T23:51:44.043Z</time></trkpt><trkpt lat="43.3861856" lon="7.3221417"><ele>0.0</ele><time>2026-04-30T23:51:45.043Z</time></trkpt><trkpt lat="43.3862416" lon="7.3222313"><ele>0.0</ele><time>2026-04-30T23:51:46.042Z</time></trkpt><trkpt lat="43.386297" lon="7.3223198"><ele>0.0</ele><time>2026-04-30T23:51:47.042Z</time></trkpt><trkpt lat="43.3863528" lon="7.3224095"><ele>0.0</ele><time>2026-04-30T23:51:48.042Z</time></trkpt><trkpt lat="43.3864163" lon="7.3224937"><ele>0.0</ele><time>2026-04-30T23:51:49.042Z</time></trkpt><trkpt lat="43.3864717" lon="7.3225797"><ele>0.0</ele><time>2026-04-30T23:51:50.042Z</time></trkpt><trkpt lat="43.3865228" lon="7.3226673"><ele>0.0</ele><time>2026-04-30T23:51:51.042Z</time></trkpt><trkpt lat="43.3865627" lon="7.3227552"><ele>0.0</ele><time>2026-04-30T23:51:52.043Z</time></trkpt><trkpt lat="43.386614" lon="7.3228432"><ele>0.0</ele><time>2026-04-30T23:51:53.042Z</time></trkpt><trkpt lat="43.3866602" lon="7.3229332"><ele>0.0</ele><time>2026-04-30T23:51:54.042Z</time></trkpt><trkpt lat="43.3867081" lon="7.3230221"><ele>0.0</ele><time>2026-04-30T23:51:55.042Z</time></trkpt><trkpt lat="43.3867573" lon="7.323113"><ele>0.0</ele><time>2026-04-30T23:51:56.042Z</time></trkpt><trkpt lat="43.3868005" lon="7.3232102"><ele>0.0</ele><time>2026-04-30T23:51:57.042Z</time></trkpt><trkpt lat="43.3868445" lon="7.3233045"><ele>0.0</ele><time>2026-04-30T23:51:58.043Z</time></trkpt><trkpt lat="43.3868899" lon="7.3233976"><ele>0.0</ele><time>2026-04-30T23:51:59.042Z</time></trkpt><trkpt lat="43.386942" lon="7.3234866"><ele>0.0</ele><time>2026-04-30T23:52:00.043Z</time></trkpt><trkpt lat="43.3869979" lon="7.3235763"><ele>0.0</ele><time>2026-04-30T23:52:01.042Z</time></trkpt><trkpt lat="43.3871635" lon="7.3238397"><ele>0.0</ele><time>2026-04-30T23:52:04.042Z</time></trkpt><trkpt lat="43.3872164" lon="7.3239293"><ele>0.0</ele><time>2026-04-30T23:52:05.042Z</time></trkpt><trkpt lat="43.3872679" lon="7.3240235"><ele>0.0</ele><time>2026-04-30T23:52:06.042Z</time></trkpt><trkpt lat="43.3873205" lon="7.3241172"><ele>0.0</ele><time>2026-04-30T23:52:07.042Z</time></trkpt><trkpt lat="43.3873659" lon="7.3242098"><ele>0.0</ele><time>2026-04-30T23:52:08.043Z</time></trkpt><trkpt lat="43.387417" lon="7.3242999"><ele>0.0</ele><time>2026-04-30T23:52:09.043Z</time></trkpt><trkpt lat="43.3874701" lon="7.3243882"><ele>0.0</ele><time>2026-04-30T23:52:10.043Z</time></trkpt><trkpt lat="43.3875192" lon="7.3244795"><ele>0.0</ele><time>2026-04-30T23:52:11.042Z</time></trkpt><trkpt lat="43.387573" lon="7.324574"><ele>0.0</ele><time>2026-04-30T23:52:12.042Z</time></trkpt><trkpt lat="43.3876207" lon="7.3246688"><ele>0.0</ele><time>2026-04-30T23:52:13.042Z</time></trkpt><trkpt lat="43.3876747" lon="7.3247658"><ele>0.0</ele><time>2026-04-30T23:52:14.043Z</time></trkpt><trkpt lat="43.3877299" lon="7.3248524"><ele>0.0</ele><time>2026-04-30T23:52:15.042Z</time></trkpt><trkpt lat="43.3877862" lon="7.3249333"><ele>0.0</ele><time>2026-04-30T23:52:16.042Z</time></trkpt><trkpt lat="43.3878402" lon="7.3250116"><ele>0.0</ele><time>2026-04-30T23:52:17.042Z</time></trkpt><trkpt lat="43.3878921" lon="7.3250954"><ele>0.0</ele><time>2026-04-30T23:52:18.042Z</time></trkpt><trkpt lat="43.3879454" lon="7.3251805"><ele>0.0</ele><time>2026-04-30T23:52:19.042Z</time></trkpt><trkpt lat="43.3879941" lon="7.325264"><ele>0.0</ele><time>2026-04-30T23:52:20.043Z</time></trkpt><trkpt lat="43.3880433" lon="7.3253547"><ele>0.0</ele><time>2026-04-30T23:52:21.042Z</time></trkpt><trkpt lat="43.3880979" lon="7.3254491"><ele>0.0</ele><time>2026-04-30T23:52:22.043Z</time></trkpt><trkpt lat="43.3881501" lon="7.325544"><ele>0.0</ele><time>2026-04-30T23:52:23.043Z</time></trkpt><trkpt lat="43.3882476" lon="7.3257295"><ele>0.0</ele><time>2026-04-30T23:52:25.042Z</time></trkpt><trkpt lat="43.3882943" lon="7.3258104"><ele>0.0</ele><time>2026-04-30T23:52:26.043Z</time></trkpt><trkpt lat="43.3883482" lon="7.3258897"><ele>0.0</ele><time>2026-04-30T23:52:27.042Z</time></trkpt><trkpt lat="43.3884009" lon="7.3259719"><ele>0.0</ele><time>2026-04-30T23:52:28.043Z</time></trkpt><trkpt lat="43.3884513" lon="7.326058"><ele>0.0</ele><time>2026-04-30T23:52:29.043Z</time></trkpt><trkpt lat="43.388507" lon="7.3261446"><ele>0.0</ele><time>2026-04-30T23:52:30.043Z</time></trkpt><trkpt lat="43.3885673" lon="7.3262382"><ele>0.0</ele><time>2026-04-30T23:52:31.042Z</time></trkpt><trkpt lat="43.3886289" lon="7.3263266"><ele>0.0</ele><time>2026-04-30T23:52:32.042Z</time></trkpt><trkpt lat="43.3886939" lon="7.3264137"><ele>0.0</ele><time>2026-04-30T23:52:33.043Z</time></trkpt><trkpt lat="43.3887937" lon="7.3265818"><ele>0.0</ele><time>2026-04-30T23:52:35.042Z</time></trkpt><trkpt lat="43.3888484" lon="7.3266679"><ele>0.0</ele><time>2026-04-30T23:52:36.043Z</time></trkpt><trkpt lat="43.3889051" lon="7.3267515"><ele>0.0</ele><time>2026-04-30T23:52:37.042Z</time></trkpt><trkpt lat="43.3889646" lon="7.3268337"><ele>0.0</ele><time>2026-04-30T23:52:38.042Z</time></trkpt><trkpt lat="43.3890264" lon="7.3269167"><ele>0.0</ele><time>2026-04-30T23:52:39.042Z</time></trkpt><trkpt lat="43.3890964" lon="7.3269965"><ele>0.0</ele><time>2026-04-30T23:52:40.043Z</time></trkpt><trkpt lat="43.3891566" lon="7.3270779"><ele>0.0</ele><time>2026-04-30T23:52:41.043Z</time></trkpt><trkpt lat="43.3892223" lon="7.3271574"><ele>0.0</ele><time>2026-04-30T23:52:42.043Z</time></trkpt><trkpt lat="43.3892807" lon="7.3272411"><ele>0.0</ele><time>2026-04-30T23:52:43.042Z</time></trkpt><trkpt lat="43.3893295" lon="7.3273297"><ele>0.0</ele><time>2026-04-30T23:52:44.042Z</time></trkpt><trkpt lat="43.3894258" lon="7.3274976"><ele>0.0</ele><time>2026-04-30T23:52:46.042Z</time></trkpt><trkpt lat="43.3894739" lon="7.3275836"><ele>0.0</ele><time>2026-04-30T23:52:47.042Z</time></trkpt><trkpt lat="43.3895277" lon="7.3276784"><ele>0.0</ele><time>2026-04-30T23:52:48.042Z</time></trkpt><trkpt lat="43.3895869" lon="7.3277655"><ele>0.0</ele><time>2026-04-30T23:52:49.042Z</time></trkpt><trkpt lat="43.3896399" lon="7.3278534"><ele>0.0</ele><time>2026-04-30T23:52:50.042Z</time></trkpt><trkpt lat="43.3896931" lon="7.3279399"><ele>0.0</ele><time>2026-04-30T23:52:51.042Z</time></trkpt><trkpt lat="43.3897454" lon="7.3280294"><ele>0.0</ele><time>2026-04-30T23:52:52.043Z</time></trkpt><trkpt lat="43.3897903" lon="7.3281267"><ele>0.0</ele><time>2026-04-30T23:52:53.042Z</time></trkpt><trkpt lat="43.3898393" lon="7.3282124"><ele>0.0</ele><time>2026-04-30T23:52:54.042Z</time></trkpt><trkpt lat="43.3898905" lon="7.3282987"><ele>0.0</ele><time>2026-04-30T23:52:55.042Z</time></trkpt><trkpt lat="43.3899411" lon="7.3283813"><ele>0.0</ele><time>2026-04-30T23:52:56.042Z</time></trkpt><trkpt lat="43.3899858" lon="7.3284712"><ele>0.0</ele><time>2026-04-30T23:52:57.042Z</time></trkpt><trkpt lat="43.3900341" lon="7.3285587"><ele>0.0</ele><time>2026-04-30T23:52:58.043Z</time></trkpt><trkpt lat="43.3900851" lon="7.3286499"><ele>0.0</ele><time>2026-04-30T23:52:59.042Z</time></trkpt><trkpt lat="43.3901397" lon="7.3287458"><ele>0.0</ele><time>2026-04-30T23:53:00.043Z</time></trkpt><trkpt lat="43.3901831" lon="7.3288394"><ele>0.0</ele><time>2026-04-30T23:53:01.043Z</time></trkpt><trkpt lat="43.3902303" lon="7.3289284"><ele>0.0</ele><time>2026-04-30T23:53:02.043Z</time></trkpt><trkpt lat="43.3902787" lon="7.3290228"><ele>0.0</ele><time>2026-04-30T23:53:03.042Z</time></trkpt><trkpt lat="43.3903317" lon="7.3291162"><ele>0.0</ele><time>2026-04-30T23:53:04.042Z</time></trkpt><trkpt lat="43.3903908" lon="7.3292025"><ele>0.0</ele><time>2026-04-30T23:53:05.042Z</time></trkpt><trkpt lat="43.3905361" lon="7.3294892"><ele>0.0</ele><time>2026-04-30T23:53:08.043Z</time></trkpt><trkpt lat="43.3905866" lon="7.3295815"><ele>0.0</ele><time>2026-04-30T23:53:09.043Z</time></trkpt><trkpt lat="43.3906451" lon="7.3296759"><ele>0.0</ele><time>2026-04-30T23:53:10.043Z</time></trkpt><trkpt lat="43.3906981" lon="7.3297669"><ele>0.0</ele><time>2026-04-30T23:53:11.043Z</time></trkpt><trkpt lat="43.3907514" lon="7.3298592"><ele>0.0</ele><time>2026-04-30T23:53:12.043Z</time></trkpt><trkpt lat="43.3908073" lon="7.3299525"><ele>0.0</ele><time>2026-04-30T23:53:13.043Z</time></trkpt><trkpt lat="43.3908598" lon="7.3300433"><ele>0.0</ele><time>2026-04-30T23:53:14.042Z</time></trkpt><trkpt lat="43.3909185" lon="7.330126"><ele>0.0</ele><time>2026-04-30T23:53:15.042Z</time></trkpt><trkpt lat="43.3909743" lon="7.3302176"><ele>0.0</ele><time>2026-04-30T23:53:16.042Z</time></trkpt><trkpt lat="43.3910314" lon="7.3303093"><ele>0.0</ele><time>2026-04-30T23:53:17.043Z</time></trkpt><trkpt lat="43.3910853" lon="7.3303982"><ele>0.0</ele><time>2026-04-30T23:53:18.043Z</time></trkpt><trkpt lat="43.3911401" lon="7.3304852"><ele>0.0</ele><time>2026-04-30T23:53:19.043Z</time></trkpt><trkpt lat="43.3911765" lon="7.3305745"><ele>0.0</ele><time>2026-04-30T23:53:20.042Z</time></trkpt><trkpt lat="43.3912279" lon="7.3306572"><ele>0.0</ele><time>2026-04-30T23:53:21.043Z</time></trkpt><trkpt lat="43.3912829" lon="7.3307374"><ele>0.0</ele><time>2026-04-30T23:53:22.042Z</time></trkpt><trkpt lat="43.391314" lon="7.3308302"><ele>0.0</ele><time>2026-04-30T23:53:23.042Z</time></trkpt><trkpt lat="43.3913682" lon="7.3309192"><ele>0.0</ele><time>2026-04-30T23:53:24.043Z</time></trkpt><trkpt lat="43.3914245" lon="7.331009"><ele>0.0</ele><time>2026-04-30T23:53:25.042Z</time></trkpt><trkpt lat="43.3914795" lon="7.331095"><ele>0.0</ele><time>2026-04-30T23:53:26.043Z</time></trkpt><trkpt lat="43.3915327" lon="7.3311857"><ele>0.0</ele><time>2026-04-30T23:53:27.042Z</time></trkpt><trkpt lat="43.3916441" lon="7.3313567"><ele>0.0</ele><time>2026-04-30T23:53:29.043Z</time></trkpt><trkpt lat="43.3917036" lon="7.3314422"><ele>0.0</ele><time>2026-04-30T23:53:30.042Z</time></trkpt><trkpt lat="43.3917549" lon="7.3315274"><ele>0.0</ele><time>2026-04-30T23:53:31.042Z</time></trkpt><trkpt lat="43.3918111" lon="7.3316149"><ele>0.0</ele><time>2026-04-30T23:53:32.042Z</time></trkpt><trkpt lat="43.3918806" lon="7.3316977"><ele>0.0</ele><time>2026-04-30T23:53:33.042Z</time></trkpt><trkpt lat="43.3919454" lon="7.3317819"><ele>0.0</ele><time>2026-04-30T23:53:34.043Z</time></trkpt><trkpt lat="43.3920044" lon="7.3318681"><ele>0.0</ele><time>2026-04-30T23:53:35.043Z</time></trkpt><trkpt lat="43.3920597" lon="7.3319501"><ele>0.0</ele><time>2026-04-30T23:53:36.042Z</time></trkpt><trkpt lat="43.3921131" lon="7.3320408"><ele>0.0</ele><time>2026-04-30T23:53:37.042Z</time></trkpt><trkpt lat="43.3921651" lon="7.3321267"><ele>0.0</ele><time>2026-04-30T23:53:38.042Z</time></trkpt><trkpt lat="43.3922202" lon="7.3322146"><ele>0.0</ele><time>2026-04-30T23:53:39.042Z</time></trkpt><trkpt lat="43.3922641" lon="7.3323027"><ele>0.0</ele><time>2026-04-30T23:53:40.043Z</time></trkpt><trkpt lat="43.3923115" lon="7.3323968"><ele>0.0</ele><time>2026-04-30T23:53:41.043Z</time></trkpt><trkpt lat="43.3923606" lon="7.3324892"><ele>0.0</ele><time>2026-04-30T23:53:42.043Z</time></trkpt><trkpt lat="43.3924176" lon="7.332578"><ele>0.0</ele><time>2026-04-30T23:53:43.042Z</time></trkpt><trkpt lat="43.3924761" lon="7.3326661"><ele>0.0</ele><time>2026-04-30T23:53:44.042Z</time></trkpt><trkpt lat="43.392537" lon="7.3327519"><ele>0.0</ele><time>2026-04-30T23:53:45.043Z</time></trkpt><trkpt lat="43.3925909" lon="7.3328352"><ele>0.0</ele><time>2026-04-30T23:53:46.043Z</time></trkpt><trkpt lat="43.3926317" lon="7.3329219"><ele>0.0</ele><time>2026-04-30T23:53:47.042Z</time></trkpt><trkpt lat="43.3926751" lon="7.3330114"><ele>0.0</ele><time>2026-04-30T23:53:48.042Z</time></trkpt><trkpt lat="43.3927755" lon="7.3331978"><ele>0.0</ele><time>2026-04-30T23:53:50.042Z</time></trkpt><trkpt lat="43.3928269" lon="7.3332896"><ele>0.0</ele><time>2026-04-30T23:53:51.042Z</time></trkpt><trkpt lat="43.3928759" lon="7.3333813"><ele>0.0</ele><time>2026-04-30T23:53:52.042Z</time></trkpt><trkpt lat="43.3929167" lon="7.3334742"><ele>0.0</ele><time>2026-04-30T23:53:53.042Z</time></trkpt><trkpt lat="43.3929661" lon="7.3335649"><ele>0.0</ele><time>2026-04-30T23:53:54.042Z</time></trkpt><trkpt lat="43.3930207" lon="7.333656"><ele>0.0</ele><time>2026-04-30T23:53:55.042Z</time></trkpt><trkpt lat="43.3930846" lon="7.333745"><ele>0.0</ele><time>2026-04-30T23:53:56.042Z</time></trkpt><trkpt lat="43.3931386" lon="7.3338348"><ele>0.0</ele><time>2026-04-30T23:53:57.043Z</time></trkpt><trkpt lat="43.3931857" lon="7.333932"><ele>0.0</ele><time>2026-04-30T23:53:58.042Z</time></trkpt><trkpt lat="43.3932407" lon="7.3340218"><ele>0.0</ele><time>2026-04-30T23:53:59.043Z</time></trkpt><trkpt lat="43.3932957" lon="7.3341145"><ele>0.0</ele><time>2026-04-30T23:54:00.043Z</time></trkpt><trkpt lat="43.3933438" lon="7.3342017"><ele>0.0</ele><time>2026-04-30T23:54:01.042Z</time></trkpt><trkpt lat="43.3933978" lon="7.3342827"><ele>0.0</ele><time>2026-04-30T23:54:02.043Z</time></trkpt><trkpt lat="43.393461" lon="7.3343583"><ele>0.0</ele><time>2026-04-30T23:54:03.043Z</time></trkpt><trkpt lat="43.3935148" lon="7.3344398"><ele>0.0</ele><time>2026-04-30T23:54:04.042Z</time></trkpt><trkpt lat="43.3935751" lon="7.3345275"><ele>0.0</ele><time>2026-04-30T23:54:05.042Z</time></trkpt><trkpt lat="43.3936388" lon="7.3346099"><ele>0.0</ele><time>2026-04-30T23:54:06.043Z</time></trkpt><trkpt lat="43.3936968" lon="7.3346975"><ele>0.0</ele><time>2026-04-30T23:54:07.043Z</time></trkpt><trkpt lat="43.3937538" lon="7.3347889"><ele>0.0</ele><time>2026-04-30T23:54:08.043Z</time></trkpt><trkpt lat="43.3938018" lon="7.3348777"><ele>0.0</ele><time>2026-04-30T23:54:09.043Z</time></trkpt><trkpt lat="43.3939542" lon="7.335138"><ele>0.0</ele><time>2026-04-30T23:54:12.043Z</time></trkpt><trkpt lat="43.3939905" lon="7.33523"><ele>0.0</ele><time>2026-04-30T23:54:13.042Z</time></trkpt><trkpt lat="43.3940369" lon="7.3353223"><ele>0.0</ele><time>2026-04-30T23:54:14.043Z</time></trkpt><trkpt lat="43.3940832" lon="7.3354109"><ele>0.0</ele><time>2026-04-30T23:54:15.042Z</time></trkpt><trkpt lat="43.3941394" lon="7.3354996"><ele>0.0</ele><time>2026-04-30T23:54:16.042Z</time></trkpt><trkpt lat="43.3942006" lon="7.3355877"><ele>0.0</ele><time>2026-04-30T23:54:17.042Z</time></trkpt><trkpt lat="43.3942533" lon="7.3356725"><ele>0.0</ele><time>2026-04-30T23:54:18.043Z</time></trkpt><trkpt lat="43.3943095" lon="7.3357559"><ele>0.0</ele><time>2026-04-30T23:54:19.042Z</time></trkpt><trkpt lat="43.3943618" lon="7.3358403"><ele>0.0</ele><time>2026-04-30T23:54:20.042Z</time></trkpt><trkpt lat="43.394407" lon="7.3359318"><ele>0.0</ele><time>2026-04-30T23:54:21.043Z</time></trkpt><trkpt lat="43.3944588" lon="7.3360296"><ele>0.0</ele><time>2026-04-30T23:54:22.042Z</time></trkpt><trkpt lat="43.3945111" lon="7.3361151"><ele>0.0</ele><time>2026-04-30T23:54:23.043Z</time></trkpt><trkpt lat="43.3945628" lon="7.3361996"><ele>0.0</ele><time>2026-04-30T23:54:24.042Z</time></trkpt><trkpt lat="43.3946135" lon="7.3362889"><ele>0.0</ele><time>2026-04-30T23:54:25.042Z</time></trkpt><trkpt lat="43.3946566" lon="7.3363818"><ele>0.0</ele><time>2026-04-30T23:54:26.042Z</time></trkpt><trkpt lat="43.3947061" lon="7.3364776"><ele>0.0</ele><time>2026-04-30T23:54:27.043Z</time></trkpt><trkpt lat="43.3947663" lon="7.336569"><ele>0.0</ele><time>2026-04-30T23:54:28.043Z</time></trkpt><trkpt lat="43.3948175" lon="7.3366651"><ele>0.0</ele><time>2026-04-30T23:54:29.043Z</time></trkpt><trkpt lat="43.3948704" lon="7.336759"><ele>0.0</ele><time>2026-04-30T23:54:30.042Z</time></trkpt><trkpt lat="43.3949244" lon="7.3368483"><ele>0.0</ele><time>2026-04-30T23:54:31.043Z</time></trkpt><trkpt lat="43.3950231" lon="7.3370167"><ele>0.0</ele><time>2026-04-30T23:54:33.042Z</time></trkpt><trkpt lat="43.3950818" lon="7.3371063"><ele>0.0</ele><time>2026-04-30T23:54:34.043Z</time></trkpt><trkpt lat="43.3951409" lon="7.3371916"><ele>0.0</ele><time>2026-04-30T23:54:35.043Z</time></trkpt><trkpt lat="43.3952079" lon="7.3372709"><ele>0.0</ele><time>2026-04-30T23:54:36.043Z</time></trkpt><trkpt lat="43.3952586" lon="7.3373632"><ele>0.0</ele><time>2026-04-30T23:54:37.043Z</time></trkpt><trkpt lat="43.3953199" lon="7.3374484"><ele>0.0</ele><time>2026-04-30T23:54:38.043Z</time></trkpt><trkpt lat="43.3953745" lon="7.3375375"><ele>0.0</ele><time>2026-04-30T23:54:39.043Z</time></trkpt><trkpt lat="43.3954178" lon="7.3376249"><ele>0.0</ele><time>2026-04-30T23:54:40.042Z</time></trkpt><trkpt lat="43.3954644" lon="7.3377111"><ele>0.0</ele><time>2026-04-30T23:54:41.042Z</time></trkpt><trkpt lat="43.3955127" lon="7.3377994"><ele>0.0</ele><time>2026-04-30T23:54:42.042Z</time></trkpt><trkpt lat="43.3956014" lon="7.3379689"><ele>0.0</ele><time>2026-04-30T23:54:44.042Z</time></trkpt><trkpt lat="43.3956547" lon="7.3380538"><ele>0.0</ele><time>2026-04-30T23:54:45.042Z</time></trkpt><trkpt lat="43.3957008" lon="7.3381427"><ele>0.0</ele><time>2026-04-30T23:54:46.042Z</time></trkpt><trkpt lat="43.3957489" lon="7.3382362"><ele>0.0</ele><time>2026-04-30T23:54:47.043Z</time></trkpt><trkpt lat="43.3958041" lon="7.3383255"><ele>0.0</ele><time>2026-04-30T23:54:48.042Z</time></trkpt><trkpt lat="43.3958577" lon="7.3384135"><ele>0.0</ele><time>2026-04-30T23:54:49.042Z</time></trkpt><trkpt lat="43.3958972" lon="7.3385074"><ele>0.0</ele><time>2026-04-30T23:54:50.042Z</time></trkpt><trkpt lat="43.3959524" lon="7.3385955"><ele>0.0</ele><time>2026-04-30T23:54:51.042Z</time></trkpt><trkpt lat="43.3960137" lon="7.3386835"><ele>0.0</ele><time>2026-04-30T23:54:52.042Z</time></trkpt><trkpt lat="43.3961276" lon="7.3388695"><ele>0.0</ele><time>2026-04-30T23:54:54.042Z</time></trkpt><trkpt lat="43.3961791" lon="7.3389579"><ele>0.0</ele><time>2026-04-30T23:54:55.043Z</time></trkpt><trkpt lat="43.396214" lon="7.3390524"><ele>0.0</ele><time>2026-04-30T23:54:56.043Z</time></trkpt><trkpt lat="43.3962688" lon="7.3391404"><ele>0.0</ele><time>2026-04-30T23:54:57.042Z</time></trkpt><trkpt lat="43.396323" lon="7.3392265"><ele>0.0</ele><time>2026-04-30T23:54:58.043Z</time></trkpt><trkpt lat="43.3963815" lon="7.3393055"><ele>0.0</ele><time>2026-04-30T23:54:59.043Z</time></trkpt><trkpt lat="43.3964369" lon="7.339388"><ele>0.0</ele><time>2026-04-30T23:55:00.043Z</time></trkpt><trkpt lat="43.3964751" lon="7.3394858"><ele>0.0</ele><time>2026-04-30T23:55:01.043Z</time></trkpt><trkpt lat="43.3965247" lon="7.3395743"><ele>0.0</ele><time>2026-04-30T23:55:02.041Z</time></trkpt><trkpt lat="43.3965833" lon="7.3396601"><ele>0.0</ele><time>2026-04-30T23:55:03.042Z</time></trkpt><trkpt lat="43.3966408" lon="7.3397493"><ele>0.0</ele><time>2026-04-30T23:55:04.041Z</time></trkpt><trkpt lat="43.3966973" lon="7.3398387"><ele>0.0</ele><time>2026-04-30T23:55:05.042Z</time></trkpt><trkpt lat="43.396758" lon="7.3399233"><ele>0.0</ele><time>2026-04-30T23:55:06.042Z</time></trkpt><trkpt lat="43.3968027" lon="7.3400168"><ele>0.0</ele><time>2026-04-30T23:55:07.042Z</time></trkpt><trkpt lat="43.396849" lon="7.3401048"><ele>0.0</ele><time>2026-04-30T23:55:08.041Z</time></trkpt><trkpt lat="43.3969107" lon="7.3401815"><ele>0.0</ele><time>2026-04-30T23:55:09.041Z</time></trkpt><trkpt lat="43.3969647" lon="7.3402634"><ele>0.0</ele><time>2026-04-30T23:55:10.041Z</time></trkpt><trkpt lat="43.3970309" lon="7.3403469"><ele>0.0</ele><time>2026-04-30T23:55:11.042Z</time></trkpt><trkpt lat="43.3970923" lon="7.3404281"><ele>0.0</ele><time>2026-04-30T23:55:12.041Z</time></trkpt><trkpt lat="43.3971455" lon="7.3405085"><ele>0.0</ele><time>2026-04-30T23:55:13.041Z</time></trkpt><trkpt lat="43.3972044" lon="7.340593"><ele>0.0</ele><time>2026-04-30T23:55:14.041Z</time></trkpt><trkpt lat="43.3973741" lon="7.3408287"><ele>0.0</ele><time>2026-04-30T23:55:17.041Z</time></trkpt><trkpt lat="43.3974323" lon="7.3409139"><ele>0.0</ele><time>2026-04-30T23:55:18.041Z</time></trkpt><trkpt lat="43.3974965" lon="7.3409935"><ele>0.0</ele><time>2026-04-30T23:55:19.042Z</time></trkpt><trkpt lat="43.3975523" lon="7.3410792"><ele>0.0</ele><time>2026-04-30T23:55:20.041Z</time></trkpt><trkpt lat="43.3976079" lon="7.3411669"><ele>0.0</ele><time>2026-04-30T23:55:21.041Z</time></trkpt><trkpt lat="43.3976729" lon="7.3412492"><ele>0.0</ele><time>2026-04-30T23:55:22.041Z</time></trkpt><trkpt lat="43.3977452" lon="7.3413285"><ele>0.0</ele><time>2026-04-30T23:55:23.042Z</time></trkpt><trkpt lat="43.3978043" lon="7.341415"><ele>0.0</ele><time>2026-04-30T23:55:24.041Z</time></trkpt><trkpt lat="43.3978601" lon="7.3415053"><ele>0.0</ele><time>2026-04-30T23:55:25.042Z</time></trkpt><trkpt lat="43.3979082" lon="7.3415964"><ele>0.0</ele><time>2026-04-30T23:55:26.041Z</time></trkpt><trkpt lat="43.3979673" lon="7.3416828"><ele>0.0</ele><time>2026-04-30T23:55:27.042Z</time></trkpt><trkpt lat="43.398032" lon="7.3417667"><ele>0.0</ele><time>2026-04-30T23:55:28.041Z</time></trkpt><trkpt lat="43.3980789" lon="7.3418511"><ele>0.0</ele><time>2026-04-30T23:55:29.042Z</time></trkpt><trkpt lat="43.3981397" lon="7.3419335"><ele>0.0</ele><time>2026-04-30T23:55:30.041Z</time></trkpt><trkpt lat="43.3982027" lon="7.3420189"><ele>0.0</ele><time>2026-04-30T23:55:31.042Z</time></trkpt><trkpt lat="43.3982412" lon="7.3421071"><ele>0.0</ele><time>2026-04-30T23:55:32.041Z</time></trkpt><trkpt lat="43.3982919" lon="7.3421946"><ele>0.0</ele><time>2026-04-30T23:55:33.042Z</time></trkpt><trkpt lat="43.3983595" lon="7.3422744"><ele>0.0</ele><time>2026-04-30T23:55:34.042Z</time></trkpt><trkpt lat="43.3984144" lon="7.34236"><ele>0.0</ele><time>2026-04-30T23:55:35.042Z</time></trkpt><trkpt lat="43.398469" lon="7.3424507"><ele>0.0</ele><time>2026-04-30T23:55:36.042Z</time></trkpt><trkpt lat="43.3985965" lon="7.3426166"><ele>0.0</ele><time>2026-04-30T23:55:38.042Z</time></trkpt><trkpt lat="43.3986479" lon="7.3427116"><ele>0.0</ele><time>2026-04-30T23:55:39.041Z</time></trkpt><trkpt lat="43.3987051" lon="7.342792"><ele>0.0</ele><time>2026-04-30T23:55:40.041Z</time></trkpt><trkpt lat="43.3987648" lon="7.342874"><ele>0.0</ele><time>2026-04-30T23:55:41.042Z</time></trkpt><trkpt lat="43.3988165" lon="7.3429608"><ele>0.0</ele><time>2026-04-30T23:55:42.042Z</time></trkpt><trkpt lat="43.3988508" lon="7.3430531"><ele>0.0</ele><time>2026-04-30T23:55:43.042Z</time></trkpt><trkpt lat="43.3988941" lon="7.3431462"><ele>0.0</ele><time>2026-04-30T23:55:44.042Z</time></trkpt><trkpt lat="43.3989402" lon="7.3432402"><ele>0.0</ele><time>2026-04-30T23:55:45.041Z</time></trkpt><trkpt lat="43.3989929" lon="7.3433297"><ele>0.0</ele><time>2026-04-30T23:55:46.041Z</time></trkpt><trkpt lat="43.3990394" lon="7.3434218"><ele>0.0</ele><time>2026-04-30T23:55:47.042Z</time></trkpt><trkpt lat="43.3991408" lon="7.3436041"><ele>0.0</ele><time>2026-04-30T23:55:49.041Z</time></trkpt><trkpt lat="43.399197" lon="7.3436853"><ele>0.0</ele><time>2026-04-30T23:55:50.042Z</time></trkpt><trkpt lat="43.3992513" lon="7.3437642"><ele>0.0</ele><time>2026-04-30T23:55:51.042Z</time></trkpt><trkpt lat="43.3993092" lon="7.3438522"><ele>0.0</ele><time>2026-04-30T23:55:52.041Z</time></trkpt><trkpt lat="43.3993706" lon="7.3439351"><ele>0.0</ele><time>2026-04-30T23:55:53.041Z</time></trkpt><trkpt lat="43.3994239" lon="7.3440275"><ele>0.0</ele><time>2026-04-30T23:55:54.041Z</time></trkpt><trkpt lat="43.3994867" lon="7.3441114"><ele>0.0</ele><time>2026-04-30T23:55:55.041Z</time></trkpt><trkpt lat="43.3995288" lon="7.3442046"><ele>0.0</ele><time>2026-04-30T23:55:56.041Z</time></trkpt><trkpt lat="43.3995811" lon="7.344291"><ele>0.0</ele><time>2026-04-30T23:55:57.042Z</time></trkpt><trkpt lat="43.3996601" lon="7.3444779"><ele>0.0</ele><time>2026-04-30T23:55:59.042Z</time></trkpt><trkpt lat="43.3997252" lon="7.3445575"><ele>0.0</ele><time>2026-04-30T23:56:00.041Z</time></trkpt><trkpt lat="43.3997896" lon="7.3446384"><ele>0.0</ele><time>2026-04-30T23:56:01.042Z</time></trkpt><trkpt lat="43.399832" lon="7.3447228"><ele>0.0</ele><time>2026-04-30T23:56:02.042Z</time></trkpt><trkpt lat="43.3998819" lon="7.3448134"><ele>0.0</ele><time>2026-04-30T23:56:03.042Z</time></trkpt><trkpt lat="43.399934" lon="7.3449006"><ele>0.0</ele><time>2026-04-30T23:56:04.041Z</time></trkpt><trkpt lat="43.3999911" lon="7.3449832"><ele>0.0</ele><time>2026-04-30T23:56:05.042Z</time></trkpt><trkpt lat="43.4000446" lon="7.3450646"><ele>0.0</ele><time>2026-04-30T23:56:06.042Z</time></trkpt><trkpt lat="43.400088" lon="7.3451641"><ele>0.0</ele><time>2026-04-30T23:56:07.041Z</time></trkpt><trkpt lat="43.4001346" lon="7.3452606"><ele>0.0</ele><time>2026-04-30T23:56:08.042Z</time></trkpt><trkpt lat="43.4001754" lon="7.3453584"><ele>0.0</ele><time>2026-04-30T23:56:09.041Z</time></trkpt><trkpt lat="43.4002376" lon="7.3454402"><ele>0.0</ele><time>2026-04-30T23:56:10.041Z</time></trkpt><trkpt lat="43.4002939" lon="7.3455259"><ele>0.0</ele><time>2026-04-30T23:56:11.042Z</time></trkpt><trkpt lat="43.4003364" lon="7.3456185"><ele>0.0</ele><time>2026-04-30T23:56:12.041Z</time></trkpt><trkpt lat="43.4003798" lon="7.3457076"><ele>0.0</ele><time>2026-04-30T23:56:13.041Z</time></trkpt><trkpt lat="43.4004445" lon="7.3457888"><ele>0.0</ele><time>2026-04-30T23:56:14.041Z</time></trkpt><trkpt lat="43.4004968" lon="7.3458802"><ele>0.0</ele><time>2026-04-30T23:56:15.042Z</time></trkpt><trkpt lat="43.4005625" lon="7.3459605"><ele>0.0</ele><time>2026-04-30T23:56:16.042Z</time></trkpt><trkpt lat="43.400625" lon="7.3460389"><ele>0.0</ele><time>2026-04-30T23:56:17.041Z</time></trkpt><trkpt lat="43.4006754" lon="7.3461271"><ele>0.0</ele><time>2026-04-30T23:56:18.042Z</time></trkpt><trkpt lat="43.4007279" lon="7.346215"><ele>0.0</ele><time>2026-04-30T23:56:19.041Z</time></trkpt><trkpt lat="43.4008789" lon="7.3464776"><ele>0.0</ele><time>2026-04-30T23:56:22.041Z</time></trkpt><trkpt lat="43.4009281" lon="7.3465623"><ele>0.0</ele><time>2026-04-30T23:56:23.042Z</time></trkpt><trkpt lat="43.4009824" lon="7.3466493"><ele>0.0</ele><time>2026-04-30T23:56:24.042Z</time></trkpt><trkpt lat="43.4010293" lon="7.3467378"><ele>0.0</ele><time>2026-04-30T23:56:25.041Z</time></trkpt><trkpt lat="43.4010825" lon="7.3468303"><ele>0.0</ele><time>2026-04-30T23:56:26.041Z</time></trkpt><trkpt lat="43.4011338" lon="7.3469232"><ele>0.0</ele><time>2026-04-30T23:56:27.041Z</time></trkpt><trkpt lat="43.4011758" lon="7.3470152"><ele>0.0</ele><time>2026-04-30T23:56:28.041Z</time></trkpt><trkpt lat="43.4012218" lon="7.3471121"><ele>0.0</ele><time>2026-04-30T23:56:29.041Z</time></trkpt><trkpt lat="43.4012803" lon="7.347196"><ele>0.0</ele><time>2026-04-30T23:56:30.041Z</time></trkpt><trkpt lat="43.4013415" lon="7.347284"><ele>0.0</ele><time>2026-04-30T23:56:31.041Z</time></trkpt><trkpt lat="43.4013962" lon="7.347375"><ele>0.0</ele><time>2026-04-30T23:56:32.042Z</time></trkpt><trkpt lat="43.4014545" lon="7.3474636"><ele>0.0</ele><time>2026-04-30T23:56:33.042Z</time></trkpt><trkpt lat="43.4014931" lon="7.3475664"><ele>0.0</ele><time>2026-04-30T23:56:34.041Z</time></trkpt><trkpt lat="43.4015424" lon="7.3476673"><ele>0.0</ele><time>2026-04-30T23:56:35.041Z</time></trkpt><trkpt lat="43.4015923" lon="7.3477591"><ele>0.0</ele><time>2026-04-30T23:56:36.042Z</time></trkpt><trkpt lat="43.401643" lon="7.3478533"><ele>0.0</ele><time>2026-04-30T23:56:37.041Z</time></trkpt><trkpt lat="43.4016816" lon="7.3479495"><ele>0.0</ele><time>2026-04-30T23:56:38.042Z</time></trkpt><trkpt lat="43.4017215" lon="7.3480416"><ele>0.0</ele><time>2026-04-30T23:56:39.041Z</time></trkpt><trkpt lat="43.4017649" lon="7.3481332"><ele>0.0</ele><time>2026-04-30T23:56:40.042Z</time></trkpt><trkpt lat="43.4018181" lon="7.3482206"><ele>0.0</ele><time>2026-04-30T23:56:41.042Z</time></trkpt><trkpt lat="43.4019226" lon="7.3484036"><ele>0.0</ele><time>2026-04-30T23:56:43.041Z</time></trkpt><trkpt lat="43.4019731" lon="7.3484942"><ele>0.0</ele><time>2026-04-30T23:56:44.041Z</time></trkpt><trkpt lat="43.4020156" lon="7.3485807"><ele>0.0</ele><time>2026-04-30T23:56:45.041Z</time></trkpt><trkpt lat="43.4020527" lon="7.348674"><ele>0.0</ele><time>2026-04-30T23:56:46.041Z</time></trkpt><trkpt lat="43.4020969" lon="7.3487621"><ele>0.0</ele><time>2026-04-30T23:56:47.041Z</time></trkpt><trkpt lat="43.4021528" lon="7.3488499"><ele>0.0</ele><time>2026-04-30T23:56:48.041Z</time></trkpt><trkpt lat="43.4022201" lon="7.3489367"><ele>0.0</ele><time>2026-04-30T23:56:49.041Z</time></trkpt><trkpt lat="43.4022815" lon="7.3490188"><ele>0.0</ele><time>2026-04-30T23:56:50.041Z</time></trkpt><trkpt lat="43.402348" lon="7.3491"><ele>0.0</ele><time>2026-04-30T23:56:51.042Z</time></trkpt><trkpt lat="43.4024716" lon="7.3492707"><ele>0.0</ele><time>2026-04-30T23:56:53.041Z</time></trkpt><trkpt lat="43.4025396" lon="7.3493499"><ele>0.0</ele><time>2026-04-30T23:56:54.041Z</time></trkpt><trkpt lat="43.4025985" lon="7.3494325"><ele>0.0</ele><time>2026-04-30T23:56:55.041Z</time></trkpt><trkpt lat="43.4026441" lon="7.3495229"><ele>0.0</ele><time>2026-04-30T23:56:56.042Z</time></trkpt><trkpt lat="43.4026909" lon="7.3496091"><ele>0.0</ele><time>2026-04-30T23:56:57.041Z</time></trkpt><trkpt lat="43.4027383" lon="7.3496931"><ele>0.0</ele><time>2026-04-30T23:56:58.041Z</time></trkpt><trkpt lat="43.4027805" lon="7.3497808"><ele>0.0</ele><time>2026-04-30T23:56:59.042Z</time></trkpt><trkpt lat="43.4028265" lon="7.3498732"><ele>0.0</ele><time>2026-04-30T23:57:00.042Z</time></trkpt><trkpt lat="43.4028831" lon="7.3499641"><ele>0.0</ele><time>2026-04-30T23:57:01.041Z</time></trkpt><trkpt lat="43.402942" lon="7.3500488"><ele>0.0</ele><time>2026-04-30T23:57:02.042Z</time></trkpt><trkpt lat="43.4030448" lon="7.3502175"><ele>0.0</ele><time>2026-04-30T23:57:04.042Z</time></trkpt><trkpt lat="43.4030981" lon="7.3503061"><ele>0.0</ele><time>2026-04-30T23:57:05.041Z</time></trkpt><trkpt lat="43.4031674" lon="7.3503851"><ele>0.0</ele><time>2026-04-30T23:57:06.041Z</time></trkpt><trkpt lat="43.4032163" lon="7.3504789"><ele>0.0</ele><time>2026-04-30T23:57:07.042Z</time></trkpt><trkpt lat="43.4032724" lon="7.3505622"><ele>0.0</ele><time>2026-04-30T23:57:08.041Z</time></trkpt><trkpt lat="43.4033329" lon="7.3506499"><ele>0.0</ele><time>2026-04-30T23:57:09.041Z</time></trkpt><trkpt lat="43.4033976" lon="7.3507367"><ele>0.0</ele><time>2026-04-30T23:57:10.042Z</time></trkpt><trkpt lat="43.403448" lon="7.3508303"><ele>0.0</ele><time>2026-04-30T23:57:11.041Z</time></trkpt><trkpt lat="43.4034994" lon="7.3509165"><ele>0.0</ele><time>2026-04-30T23:57:12.041Z</time></trkpt><trkpt lat="43.403551" lon="7.350999"><ele>0.0</ele><time>2026-04-30T23:57:13.041Z</time></trkpt><trkpt lat="43.4036053" lon="7.3510824"><ele>0.0</ele><time>2026-04-30T23:57:14.042Z</time></trkpt><trkpt lat="43.4036529" lon="7.3511701"><ele>0.0</ele><time>2026-04-30T23:57:15.041Z</time></trkpt><trkpt lat="43.4037125" lon="7.3512485"><ele>0.0</ele><time>2026-04-30T23:57:16.041Z</time></trkpt><trkpt lat="43.4037637" lon="7.3513397"><ele>0.0</ele><time>2026-04-30T23:57:17.041Z</time></trkpt><trkpt lat="43.4038131" lon="7.3514306"><ele>0.0</ele><time>2026-04-30T23:57:18.042Z</time></trkpt><trkpt lat="43.4038821" lon="7.3515144"><ele>0.0</ele><time>2026-04-30T23:57:19.042Z</time></trkpt><trkpt lat="43.4039563" lon="7.3515974"><ele>0.0</ele><time>2026-04-30T23:57:20.042Z</time></trkpt><trkpt lat="43.4040121" lon="7.3516899"><ele>0.0</ele><time>2026-04-30T23:57:21.041Z</time></trkpt><trkpt lat="43.404064" lon="7.3517757"><ele>0.0</ele><time>2026-04-30T23:57:22.041Z</time></trkpt><trkpt lat="43.4041204" lon="7.3518633"><ele>0.0</ele><time>2026-04-30T23:57:23.041Z</time></trkpt><trkpt lat="43.4042679" lon="7.3521208"><ele>0.0</ele><time>2026-04-30T23:57:26.041Z</time></trkpt><trkpt lat="43.4043156" lon="7.3522155"><ele>0.0</ele><time>2026-04-30T23:57:27.041Z</time></trkpt><trkpt lat="43.4043628" lon="7.3523109"><ele>0.0</ele><time>2026-04-30T23:57:28.041Z</time></trkpt><trkpt lat="43.4044229" lon="7.3523969"><ele>0.0</ele><time>2026-04-30T23:57:29.041Z</time></trkpt><trkpt lat="43.4044685" lon="7.352495"><ele>0.0</ele><time>2026-04-30T23:57:30.042Z</time></trkpt><trkpt lat="43.4045204" lon="7.352582"><ele>0.0</ele><time>2026-04-30T23:57:31.041Z</time></trkpt><trkpt lat="43.4045751" lon="7.3526613"><ele>0.0</ele><time>2026-04-30T23:57:32.042Z</time></trkpt><trkpt lat="43.404625" lon="7.3527442"><ele>0.0</ele><time>2026-04-30T23:57:33.041Z</time></trkpt><trkpt lat="43.4046734" lon="7.3528352"><ele>0.0</ele><time>2026-04-30T23:57:34.041Z</time></trkpt><trkpt lat="43.4047198" lon="7.3529244"><ele>0.0</ele><time>2026-04-30T23:57:35.042Z</time></trkpt><trkpt lat="43.4047782" lon="7.3530123"><ele>0.0</ele><time>2026-04-30T23:57:36.041Z</time></trkpt><trkpt lat="43.4048338" lon="7.3530994"><ele>0.0</ele><time>2026-04-30T23:57:37.042Z</time></trkpt><trkpt lat="43.4048863" lon="7.3531853"><ele>0.0</ele><time>2026-04-30T23:57:38.041Z</time></trkpt><trkpt lat="43.4049406" lon="7.3532734"><ele>0.0</ele><time>2026-04-30T23:57:39.042Z</time></trkpt><trkpt lat="43.4049868" lon="7.3533645"><ele>0.0</ele><time>2026-04-30T23:57:40.041Z</time></trkpt><trkpt lat="43.4050328" lon="7.3534533"><ele>0.0</ele><time>2026-04-30T23:57:41.042Z</time></trkpt><trkpt lat="43.4050833" lon="7.3535403"><ele>0.0</ele><time>2026-04-30T23:57:42.041Z</time></trkpt><trkpt lat="43.4051331" lon="7.3536284"><ele>0.0</ele><time>2026-04-30T23:57:43.041Z</time></trkpt><trkpt lat="43.4051848" lon="7.3537122"><ele>0.0</ele><time>2026-04-30T23:57:44.041Z</time></trkpt><trkpt lat="43.405238" lon="7.3537957"><ele>0.0</ele><time>2026-04-30T23:57:45.041Z</time></trkpt><trkpt lat="43.4053364" lon="7.3539669"><ele>0.0</ele><time>2026-04-30T23:57:47.042Z</time></trkpt><trkpt lat="43.4053811" lon="7.3540532"><ele>0.0</ele><time>2026-04-30T23:57:48.042Z</time></trkpt><trkpt lat="43.405426" lon="7.3541355"><ele>0.0</ele><time>2026-04-30T23:57:49.041Z</time></trkpt><trkpt lat="43.4054857" lon="7.3542212"><ele>0.0</ele><time>2026-04-30T23:57:50.041Z</time></trkpt><trkpt lat="43.4055447" lon="7.3543015"><ele>0.0</ele><time>2026-04-30T23:57:51.041Z</time></trkpt><trkpt lat="43.4055946" lon="7.3543854"><ele>0.0</ele><time>2026-04-30T23:57:52.041Z</time></trkpt><trkpt lat="43.4056531" lon="7.3544804"><ele>0.0</ele><time>2026-04-30T23:57:53.041Z</time></trkpt><trkpt lat="43.4057089" lon="7.35458"><ele>0.0</ele><time>2026-04-30T23:57:54.041Z</time></trkpt><trkpt lat="43.4057598" lon="7.3546686"><ele>0.0</ele><time>2026-04-30T23:57:55.042Z</time></trkpt><trkpt lat="43.4058088" lon="7.3547579"><ele>0.0</ele><time>2026-04-30T23:57:56.041Z</time></trkpt><trkpt lat="43.4059278" lon="7.3549342"><ele>0.0</ele><time>2026-04-30T23:57:58.041Z</time></trkpt><trkpt lat="43.405987" lon="7.3550207"><ele>0.0</ele><time>2026-04-30T23:57:59.041Z</time></trkpt><trkpt lat="43.4060429" lon="7.3551076"><ele>0.0</ele><time>2026-04-30T23:58:00.041Z</time></trkpt><trkpt lat="43.4060905" lon="7.3551956"><ele>0.0</ele><time>2026-04-30T23:58:01.042Z</time></trkpt><trkpt lat="43.4061426" lon="7.3552846"><ele>0.0</ele><time>2026-04-30T23:58:02.041Z</time></trkpt><trkpt lat="43.4061978" lon="7.3553691"><ele>0.0</ele><time>2026-04-30T23:58:03.042Z</time></trkpt><trkpt lat="43.4062497" lon="7.3554569"><ele>0.0</ele><time>2026-04-30T23:58:04.041Z</time></trkpt><trkpt lat="43.4062999" lon="7.3555407"><ele>0.0</ele><time>2026-04-30T23:58:05.042Z</time></trkpt><trkpt lat="43.40636" lon="7.3556342"><ele>0.0</ele><time>2026-04-30T23:58:06.041Z</time></trkpt><trkpt lat="43.4064629" lon="7.3558153"><ele>0.0</ele><time>2026-04-30T23:58:08.041Z</time></trkpt><trkpt lat="43.4065149" lon="7.355902"><ele>0.0</ele><time>2026-04-30T23:58:09.042Z</time></trkpt><trkpt lat="43.4065687" lon="7.3559877"><ele>0.0</ele><time>2026-04-30T23:58:10.041Z</time></trkpt><trkpt lat="43.4066272" lon="7.3560693"><ele>0.0</ele><time>2026-04-30T23:58:11.041Z</time></trkpt><trkpt lat="43.4066857" lon="7.3561571"><ele>0.0</ele><time>2026-04-30T23:58:12.042Z</time></trkpt><trkpt lat="43.4067389" lon="7.3562458"><ele>0.0</ele><time>2026-04-30T23:58:13.042Z</time></trkpt><trkpt lat="43.4067888" lon="7.3563346"><ele>0.0</ele><time>2026-04-30T23:58:14.042Z</time></trkpt><trkpt lat="43.4068392" lon="7.3564282"><ele>0.0</ele><time>2026-04-30T23:58:15.041Z</time></trkpt><trkpt lat="43.4068853" lon="7.3565202"><ele>0.0</ele><time>2026-04-30T23:58:16.042Z</time></trkpt><trkpt lat="43.4069372" lon="7.356608"><ele>0.0</ele><time>2026-04-30T23:58:17.041Z</time></trkpt><trkpt lat="43.4069886" lon="7.3566946"><ele>0.0</ele><time>2026-04-30T23:58:18.042Z</time></trkpt><trkpt lat="43.407036" lon="7.3567844"><ele>0.0</ele><time>2026-04-30T23:58:19.041Z</time></trkpt><trkpt lat="43.4070844" lon="7.3568725"><ele>0.0</ele><time>2026-04-30T23:58:20.041Z</time></trkpt><trkpt lat="43.4071384" lon="7.356964"><ele>0.0</ele><time>2026-04-30T23:58:21.042Z</time></trkpt><trkpt lat="43.4072007" lon="7.3570516"><ele>0.0</ele><time>2026-04-30T23:58:22.041Z</time></trkpt><trkpt lat="43.4072515" lon="7.3571408"><ele>0.0</ele><time>2026-04-30T23:58:23.042Z</time></trkpt><trkpt lat="43.4073052" lon="7.3572253"><ele>0.0</ele><time>2026-04-30T23:58:24.041Z</time></trkpt><trkpt lat="43.4073501" lon="7.3573099"><ele>0.0</ele><time>2026-04-30T23:58:25.042Z</time></trkpt><trkpt lat="43.4073978" lon="7.3573978"><ele>0.0</ele><time>2026-04-30T23:58:26.041Z</time></trkpt><trkpt lat="43.4074458" lon="7.3574825"><ele>0.0</ele><time>2026-04-30T23:58:27.042Z</time></trkpt><trkpt lat="43.407498" lon="7.3575581"><ele>0.0</ele><time>2026-04-30T23:58:28.041Z</time></trkpt><trkpt lat="43.4076529" lon="7.3578179"><ele>0.0</ele><time>2026-04-30T23:58:31.041Z</time></trkpt><trkpt lat="43.4077025" lon="7.3579115"><ele>0.0</ele><time>2026-04-30T23:58:32.042Z</time></trkpt><trkpt lat="43.4077531" lon="7.3580036"><ele>0.0</ele><time>2026-04-30T23:58:33.041Z</time></trkpt><trkpt lat="43.4078001" lon="7.3580948"><ele>0.0</ele><time>2026-04-30T23:58:34.042Z</time></trkpt><trkpt lat="43.4078525" lon="7.3581883"><ele>0.0</ele><time>2026-04-30T23:58:35.042Z</time></trkpt><trkpt lat="43.4079047" lon="7.3582773"><ele>0.0</ele><time>2026-04-30T23:58:36.042Z</time></trkpt><trkpt lat="43.4079596" lon="7.3583616"><ele>0.0</ele><time>2026-04-30T23:58:37.041Z</time></trkpt><trkpt lat="43.4080164" lon="7.3584466"><ele>0.0</ele><time>2026-04-30T23:58:38.041Z</time></trkpt><trkpt lat="43.4080744" lon="7.3585329"><ele>0.0</ele><time>2026-04-30T23:58:39.042Z</time></trkpt><trkpt lat="43.4081333" lon="7.3586213"><ele>0.0</ele><time>2026-04-30T23:58:40.042Z</time></trkpt><trkpt lat="43.4081901" lon="7.3587108"><ele>0.0</ele><time>2026-04-30T23:58:41.041Z</time></trkpt><trkpt lat="43.4082441" lon="7.3587921"><ele>0.0</ele><time>2026-04-30T23:58:42.042Z</time></trkpt><trkpt lat="43.4082942" lon="7.3588751"><ele>0.0</ele><time>2026-04-30T23:58:43.042Z</time></trkpt><trkpt lat="43.408351" lon="7.3589555"><ele>0.0</ele><time>2026-04-30T23:58:44.041Z</time></trkpt><trkpt lat="43.4084023" lon="7.3590409"><ele>0.0</ele><time>2026-04-30T23:58:45.042Z</time></trkpt><trkpt lat="43.4084486" lon="7.359132"><ele>0.0</ele><time>2026-04-30T23:58:46.042Z</time></trkpt><trkpt lat="43.4085015" lon="7.3592171"><ele>0.0</ele><time>2026-04-30T23:58:47.041Z</time></trkpt><trkpt lat="43.4085533" lon="7.3593016"><ele>0.0</ele><time>2026-04-30T23:58:48.042Z</time></trkpt><trkpt lat="43.4086048" lon="7.3593881"><ele>0.0</ele><time>2026-04-30T23:58:49.041Z</time></trkpt><trkpt lat="43.4086633" lon="7.3594702"><ele>0.0</ele><time>2026-04-30T23:58:50.041Z</time></trkpt><trkpt lat="43.4087752" lon="7.3596431"><ele>0.0</ele><time>2026-04-30T23:58:52.042Z</time></trkpt><trkpt lat="43.4088269" lon="7.3597286"><ele>0.0</ele><time>2026-04-30T23:58:53.042Z</time></trkpt><trkpt lat="43.4088793" lon="7.3598167"><ele>0.0</ele><time>2026-04-30T23:58:54.042Z</time></trkpt><trkpt lat="43.4089242" lon="7.3599065"><ele>0.0</ele><time>2026-04-30T23:58:55.042Z</time></trkpt><trkpt lat="43.4089773" lon="7.3599867"><ele>0.0</ele><time>2026-04-30T23:58:56.041Z</time></trkpt><trkpt lat="43.4090253" lon="7.360066"><ele>0.0</ele><time>2026-04-30T23:58:57.042Z</time></trkpt><trkpt lat="43.4090721" lon="7.3601494"><ele>0.0</ele><time>2026-04-30T23:58:58.042Z</time></trkpt><trkpt lat="43.4091218" lon="7.360234"><ele>0.0</ele><time>2026-04-30T23:58:59.041Z</time></trkpt><trkpt lat="43.4091761" lon="7.3603258"><ele>0.0</ele><time>2026-04-30T23:59:00.042Z</time></trkpt><trkpt lat="43.4092345" lon="7.3604163"><ele>0.0</ele><time>2026-04-30T23:59:01.042Z</time></trkpt><trkpt lat="43.4092949" lon="7.3605073"><ele>0.0</ele><time>2026-04-30T23:59:02.042Z</time></trkpt><trkpt lat="43.4093577" lon="7.3605975"><ele>0.0</ele><time>2026-04-30T23:59:03.041Z</time></trkpt><trkpt lat="43.4094256" lon="7.3606807"><ele>0.0</ele><time>2026-04-30T23:59:04.042Z</time></trkpt><trkpt lat="43.4094781" lon="7.3607693"><ele>0.0</ele><time>2026-04-30T23:59:05.041Z</time></trkpt><trkpt lat="43.4095299" lon="7.3608524"><ele>0.0</ele><time>2026-04-30T23:59:06.042Z</time></trkpt><trkpt lat="43.4095819" lon="7.3609399"><ele>0.0</ele><time>2026-04-30T23:59:07.041Z</time></trkpt><trkpt lat="43.4096367" lon="7.3610304"><ele>0.0</ele><time>2026-04-30T23:59:08.042Z</time></trkpt><trkpt lat="43.4096884" lon="7.3611256"><ele>0.0</ele><time>2026-04-30T23:59:09.041Z</time></trkpt><trkpt lat="43.4097429" lon="7.36122"><ele>0.0</ele><time>2026-04-30T23:59:10.042Z</time></trkpt><trkpt lat="43.4097948" lon="7.3613085"><ele>0.0</ele><time>2026-04-30T23:59:11.041Z</time></trkpt><trkpt lat="43.4098882" lon="7.3614805"><ele>0.0</ele><time>2026-04-30T23:59:13.041Z</time></trkpt><trkpt lat="43.4099379" lon="7.3615653"><ele>0.0</ele><time>2026-04-30T23:59:14.042Z</time></trkpt><trkpt lat="43.4099873" lon="7.3616531"><ele>0.0</ele><time>2026-04-30T23:59:15.042Z</time></trkpt><trkpt lat="43.4100345" lon="7.3617473"><ele>0.0</ele><time>2026-04-30T23:59:16.042Z</time></trkpt><trkpt lat="43.410085" lon="7.3618399"><ele>0.0</ele><time>2026-04-30T23:59:17.041Z</time></trkpt><trkpt lat="43.4101352" lon="7.3619362"><ele>0.0</ele><time>2026-04-30T23:59:18.042Z</time></trkpt><trkpt lat="43.4101866" lon="7.3620266"><ele>0.0</ele><time>2026-04-30T23:59:19.042Z</time></trkpt><trkpt lat="43.4102338" lon="7.3621164"><ele>0.0</ele><time>2026-04-30T23:59:20.041Z</time></trkpt><trkpt lat="43.4102819" lon="7.362202"><ele>0.0</ele><time>2026-04-30T23:59:21.041Z</time></trkpt><trkpt lat="43.4103344" lon="7.3622967"><ele>0.0</ele><time>2026-04-30T23:59:22.042Z</time></trkpt><trkpt lat="43.4103895" lon="7.362382"><ele>0.0</ele><time>2026-04-30T23:59:23.042Z</time></trkpt><trkpt lat="43.4104433" lon="7.3624658"><ele>0.0</ele><time>2026-04-30T23:59:24.042Z</time></trkpt><trkpt lat="43.4104973" lon="7.3625463"><ele>0.0</ele><time>2026-04-30T23:59:25.041Z</time></trkpt><trkpt lat="43.4105459" lon="7.3626288"><ele>0.0</ele><time>2026-04-30T23:59:26.042Z</time></trkpt><trkpt lat="43.410599" lon="7.3627147"><ele>0.0</ele><time>2026-04-30T23:59:27.041Z</time></trkpt><trkpt lat="43.4106537" lon="7.3628045"><ele>0.0</ele><time>2026-04-30T23:59:28.042Z</time></trkpt><trkpt lat="43.4107014" lon="7.3628904"><ele>0.0</ele><time>2026-04-30T23:59:29.042Z</time></trkpt><trkpt lat="43.4107546" lon="7.3629795"><ele>0.0</ele><time>2026-04-30T23:59:30.041Z</time></trkpt><trkpt lat="43.4108082" lon="7.3630709"><ele>0.0</ele><time>2026-04-30T23:59:31.042Z</time></trkpt><trkpt lat="43.4108603" lon="7.3631556"><ele>0.0</ele><time>2026-04-30T23:59:32.041Z</time></trkpt><trkpt lat="43.4110305" lon="7.3634036"><ele>0.0</ele><time>2026-04-30T23:59:35.041Z</time></trkpt><trkpt lat="43.4110835" lon="7.3634931"><ele>0.0</ele><time>2026-04-30T23:59:36.041Z</time></trkpt><trkpt lat="43.4111349" lon="7.36358"><ele>0.0</ele><time>2026-04-30T23:59:37.041Z</time></trkpt><trkpt lat="43.4112049" lon="7.3636691"><ele>0.0</ele><time>2026-04-30T23:59:38.041Z</time></trkpt><trkpt lat="43.4112629" lon="7.3637595"><ele>0.0</ele><time>2026-04-30T23:59:39.041Z</time></trkpt><trkpt lat="43.4113199" lon="7.3638437"><ele>0.0</ele><time>2026-04-30T23:59:40.041Z</time></trkpt><trkpt lat="43.4113748" lon="7.3639299"><ele>0.0</ele><time>2026-04-30T23:59:41.041Z</time></trkpt><trkpt lat="43.4114302" lon="7.364021"><ele>0.0</ele><time>2026-04-30T23:59:42.041Z</time></trkpt><trkpt lat="43.4114823" lon="7.3641126"><ele>0.0</ele><time>2026-04-30T23:59:43.041Z</time></trkpt><trkpt lat="43.4115299" lon="7.3642013"><ele>0.0</ele><time>2026-04-30T23:59:44.042Z</time></trkpt><trkpt lat="43.4115761" lon="7.3642942"><ele>0.0</ele><time>2026-04-30T23:59:45.041Z</time></trkpt><trkpt lat="43.4116253" lon="7.3643758"><ele>0.0</ele><time>2026-04-30T23:59:46.042Z</time></trkpt><trkpt lat="43.4116738" lon="7.3644619"><ele>0.0</ele><time>2026-04-30T23:59:47.042Z</time></trkpt><trkpt lat="43.4117179" lon="7.3645511"><ele>0.0</ele><time>2026-04-30T23:59:48.042Z</time></trkpt><trkpt lat="43.4117683" lon="7.3646367"><ele>0.0</ele><time>2026-04-30T23:59:49.042Z</time></trkpt><trkpt lat="43.4118142" lon="7.3647271"><ele>0.0</ele><time>2026-04-30T23:59:50.041Z</time></trkpt><trkpt lat="43.4118596" lon="7.3648161"><ele>0.0</ele><time>2026-04-30T23:59:51.041Z</time></trkpt><trkpt lat="43.4119076" lon="7.3649056"><ele>0.0</ele><time>2026-04-30T23:59:52.041Z</time></trkpt><trkpt lat="43.4119617" lon="7.3649917"><ele>0.0</ele><time>2026-04-30T23:59:53.042Z</time></trkpt><trkpt lat="43.4120148" lon="7.3650773"><ele>0.0</ele><time>2026-04-30T23:59:54.041Z</time></trkpt><trkpt lat="43.4121298" lon="7.3652506"><ele>0.0</ele><time>2026-04-30T23:59:56.041Z</time></trkpt><trkpt lat="43.4121821" lon="7.3653376"><ele>0.0</ele><time>2026-04-30T23:59:57.041Z</time></trkpt><trkpt lat="43.4122365" lon="7.3654203"><ele>0.0</ele><time>2026-04-30T23:59:58.041Z</time></trkpt><trkpt lat="43.4122846" lon="7.3655092"><ele>0.0</ele><time>2026-04-30T23:59:59.042Z</time></trkpt><trkpt lat="43.4123398" lon="7.3655993"><ele>0.0</ele><time>2026-05-01T00:00:00.041Z</time></trkpt><trkpt lat="43.4123933" lon="7.3656914"><ele>0.0</ele><time>2026-05-01T00:00:01.041Z</time></trkpt><trkpt lat="43.4124477" lon="7.3657773"><ele>0.0</ele><time>2026-05-01T00:00:02.042Z</time></trkpt><trkpt lat="43.4125086" lon="7.3658618"><ele>0.0</ele><time>2026-05-01T00:00:03.042Z</time></trkpt><trkpt lat="43.412568" lon="7.3659422"><ele>0.0</ele><time>2026-05-01T00:00:04.042Z</time></trkpt><trkpt lat="43.4126234" lon="7.3660239"><ele>0.0</ele><time>2026-05-01T00:00:05.041Z</time></trkpt><trkpt lat="43.4126717" lon="7.3661034"><ele>0.0</ele><time>2026-05-01T00:00:06.041Z</time></trkpt><trkpt lat="43.4127207" lon="7.3661868"><ele>0.0</ele><time>2026-05-01T00:00:07.041Z</time></trkpt><trkpt lat="43.4127749" lon="7.3662748"><ele>0.0</ele><time>2026-05-01T00:00:08.042Z</time></trkpt><trkpt lat="43.4128302" lon="7.3663617"><ele>0.0</ele><time>2026-05-01T00:00:09.042Z</time></trkpt><trkpt lat="43.4128873" lon="7.3664471"><ele>0.0</ele><time>2026-05-01T00:00:10.041Z</time></trkpt><trkpt lat="43.4129397" lon="7.3665337"><ele>0.0</ele><time>2026-05-01T00:00:11.041Z</time></trkpt><trkpt lat="43.4129959" lon="7.366616"><ele>0.0</ele><time>2026-05-01T00:00:12.042Z</time></trkpt><trkpt lat="43.413057" lon="7.3667087"><ele>0.0</ele><time>2026-05-01T00:00:13.042Z</time></trkpt><trkpt lat="43.4131104" lon="7.3667967"><ele>0.0</ele><time>2026-05-01T00:00:14.042Z</time></trkpt><trkpt lat="43.4131636" lon="7.3668806"><ele>0.0</ele><time>2026-05-01T00:00:15.041Z</time></trkpt><trkpt lat="43.4132583" lon="7.3670518"><ele>0.0</ele><time>2026-05-01T00:00:17.041Z</time></trkpt><trkpt lat="43.4133074" lon="7.367137"><ele>0.0</ele><time>2026-05-01T00:00:18.041Z</time></trkpt><trkpt lat="43.413354" lon="7.3672218"><ele>0.0</ele><time>2026-05-01T00:00:19.041Z</time></trkpt><trkpt lat="43.4134109" lon="7.3673064"><ele>0.0</ele><time>2026-05-01T00:00:20.041Z</time></trkpt><trkpt lat="43.4134735" lon="7.3673961"><ele>0.0</ele><time>2026-05-01T00:00:21.041Z</time></trkpt><trkpt lat="43.4135315" lon="7.3674862"><ele>0.0</ele><time>2026-05-01T00:00:22.04Z</time></trkpt><trkpt lat="43.4135922" lon="7.3675704"><ele>0.0</ele><time>2026-05-01T00:00:23.04Z</time></trkpt><trkpt lat="43.4136336" lon="7.3676654"><ele>0.0</ele><time>2026-05-01T00:00:24.04Z</time></trkpt><trkpt lat="43.4136863" lon="7.3677615"><ele>0.0</ele><time>2026-05-01T00:00:25.041Z</time></trkpt><trkpt lat="43.4137396" lon="7.3678483"><ele>0.0</ele><time>2026-05-01T00:00:26.04Z</time></trkpt><trkpt lat="43.4137977" lon="7.3679308"><ele>0.0</ele><time>2026-05-01T00:00:27.041Z</time></trkpt><trkpt lat="43.4138504" lon="7.3680182"><ele>0.0</ele><time>2026-05-01T00:00:28.041Z</time></trkpt><trkpt lat="43.4139018" lon="7.3681034"><ele>0.0</ele><time>2026-05-01T00:00:29.041Z</time></trkpt><trkpt lat="43.413955" lon="7.3681872"><ele>0.0</ele><time>2026-05-01T00:00:30.041Z</time></trkpt><trkpt lat="43.4140197" lon="7.3682605"><ele>0.0</ele><time>2026-05-01T00:00:31.041Z</time></trkpt><trkpt lat="43.4140733" lon="7.3683441"><ele>0.0</ele><time>2026-05-01T00:00:32.04Z</time></trkpt><trkpt lat="43.4141277" lon="7.36843"><ele>0.0</ele><time>2026-05-01T00:00:33.04Z</time></trkpt><trkpt lat="43.4141838" lon="7.3685192"><ele>0.0</ele><time>2026-05-01T00:00:34.04Z</time></trkpt><trkpt lat="43.4142356" lon="7.3686062"><ele>0.0</ele><time>2026-05-01T00:00:35.04Z</time></trkpt><trkpt lat="43.4142859" lon="7.3687005"><ele>0.0</ele><time>2026-05-01T00:00:36.041Z</time></trkpt><trkpt lat="43.4144501" lon="7.3689746"><ele>0.0</ele><time>2026-05-01T00:00:39.041Z</time></trkpt><trkpt lat="43.4145049" lon="7.3690621"><ele>0.0</ele><time>2026-05-01T00:00:40.041Z</time></trkpt><trkpt lat="43.4145555" lon="7.3691499"><ele>0.0</ele><time>2026-05-01T00:00:41.04Z</time></trkpt><trkpt lat="43.4146042" lon="7.3692355"><ele>0.0</ele><time>2026-05-01T00:00:42.04Z</time></trkpt><trkpt lat="43.4146579" lon="7.3693135"><ele>0.0</ele><time>2026-05-01T00:00:43.041Z</time></trkpt><trkpt lat="43.4147075" lon="7.3693947"><ele>0.0</ele><time>2026-05-01T00:00:44.04Z</time></trkpt><trkpt lat="43.4147616" lon="7.3694803"><ele>0.0</ele><time>2026-05-01T00:00:45.04Z</time></trkpt><trkpt lat="43.4148106" lon="7.3695694"><ele>0.0</ele><time>2026-05-01T00:00:46.041Z</time></trkpt><trkpt lat="43.4148621" lon="7.3696592"><ele>0.0</ele><time>2026-05-01T00:00:47.04Z</time></trkpt><trkpt lat="43.4149112" lon="7.3697496"><ele>0.0</ele><time>2026-05-01T00:00:48.04Z</time></trkpt><trkpt lat="43.4149666" lon="7.3698395"><ele>0.0</ele><time>2026-05-01T00:00:49.04Z</time></trkpt><trkpt lat="43.4150246" lon="7.3699212"><ele>0.0</ele><time>2026-05-01T00:00:50.04Z</time></trkpt><trkpt lat="43.4150786" lon="7.3700028"><ele>0.0</ele><time>2026-05-01T00:00:51.04Z</time></trkpt><trkpt lat="43.4151303" lon="7.3700901"><ele>0.0</ele><time>2026-05-01T00:00:52.04Z</time></trkpt><trkpt lat="43.4151848" lon="7.3701726"><ele>0.0</ele><time>2026-05-01T00:00:53.041Z</time></trkpt><trkpt lat="43.4152298" lon="7.3702606"><ele>0.0</ele><time>2026-05-01T00:00:54.041Z</time></trkpt><trkpt lat="43.4152732" lon="7.3703492"><ele>0.0</ele><time>2026-05-01T00:00:55.04Z</time></trkpt><trkpt lat="43.4153245" lon="7.370435"><ele>0.0</ele><time>2026-05-01T00:00:56.041Z</time></trkpt><trkpt lat="43.4153819" lon="7.3705232"><ele>0.0</ele><time>2026-05-01T00:00:57.041Z</time></trkpt><trkpt lat="43.4154391" lon="7.3706102"><ele>0.0</ele><time>2026-05-01T00:00:58.04Z</time></trkpt><trkpt lat="43.4155491" lon="7.3707906"><ele>0.0</ele><time>2026-05-01T00:01:00.041Z</time></trkpt><trkpt lat="43.4156039" lon="7.3708814"><ele>0.0</ele><time>2026-05-01T00:01:01.04Z</time></trkpt><trkpt lat="43.4156576" lon="7.3709699"><ele>0.0</ele><time>2026-05-01T00:01:02.041Z</time></trkpt><trkpt lat="43.4157065" lon="7.3710568"><ele>0.0</ele><time>2026-05-01T00:01:03.04Z</time></trkpt><trkpt lat="43.4157565" lon="7.3711447"><ele>0.0</ele><time>2026-05-01T00:01:04.041Z</time></trkpt><trkpt lat="43.4158072" lon="7.3712272"><ele>0.0</ele><time>2026-05-01T00:01:05.04Z</time></trkpt><trkpt lat="43.4158616" lon="7.3713103"><ele>0.0</ele><time>2026-05-01T00:01:06.04Z</time></trkpt><trkpt lat="43.4159168" lon="7.3713974"><ele>0.0</ele><time>2026-05-01T00:01:07.041Z</time></trkpt><trkpt lat="43.4159819" lon="7.3714884"><ele>0.0</ele><time>2026-05-01T00:01:08.04Z</time></trkpt><trkpt lat="43.4160402" lon="7.3715771"><ele>0.0</ele><time>2026-05-01T00:01:09.041Z</time></trkpt><trkpt lat="43.4161459" lon="7.3717536"><ele>0.0</ele><time>2026-05-01T00:01:11.041Z</time></trkpt><trkpt lat="43.4161956" lon="7.3718433"><ele>0.0</ele><time>2026-05-01T00:01:12.04Z</time></trkpt><trkpt lat="43.4162493" lon="7.3719277"><ele>0.0</ele><time>2026-05-01T00:01:13.04Z</time></trkpt><trkpt lat="43.4163026" lon="7.3720125"><ele>0.0</ele><time>2026-05-01T00:01:14.04Z</time></trkpt><trkpt lat="43.4163641" lon="7.3721045"><ele>0.0</ele><time>2026-05-01T00:01:15.04Z</time></trkpt><trkpt lat="43.4164194" lon="7.3721951"><ele>0.0</ele><time>2026-05-01T00:01:16.041Z</time></trkpt><trkpt lat="43.4164758" lon="7.3722794"><ele>0.0</ele><time>2026-05-01T00:01:17.04Z</time></trkpt><trkpt lat="43.4165268" lon="7.3723675"><ele>0.0</ele><time>2026-05-01T00:01:18.04Z</time></trkpt><trkpt lat="43.4165775" lon="7.372453"><ele>0.0</ele><time>2026-05-01T00:01:19.041Z</time></trkpt><trkpt lat="43.4166744" lon="7.3726251"><ele>0.0</ele><time>2026-05-01T00:01:21.041Z</time></trkpt><trkpt lat="43.4167212" lon="7.3727151"><ele>0.0</ele><time>2026-05-01T00:01:22.04Z</time></trkpt><trkpt lat="43.4167669" lon="7.3728025"><ele>0.0</ele><time>2026-05-01T00:01:23.04Z</time></trkpt><trkpt lat="43.4168176" lon="7.3728868"><ele>0.0</ele><time>2026-05-01T00:01:24.04Z</time></trkpt><trkpt lat="43.416875" lon="7.3729717"><ele>0.0</ele><time>2026-05-01T00:01:25.041Z</time></trkpt><trkpt lat="43.4169314" lon="7.3730578"><ele>0.0</ele><time>2026-05-01T00:01:26.041Z</time></trkpt><trkpt lat="43.4169886" lon="7.3731446"><ele>0.0</ele><time>2026-05-01T00:01:27.04Z</time></trkpt><trkpt lat="43.4170391" lon="7.373234"><ele>0.0</ele><time>2026-05-01T00:01:28.041Z</time></trkpt><trkpt lat="43.4170883" lon="7.3733213"><ele>0.0</ele><time>2026-05-01T00:01:29.041Z</time></trkpt><trkpt lat="43.4171395" lon="7.3734048"><ele>0.0</ele><time>2026-05-01T00:01:30.041Z</time></trkpt><trkpt lat="43.4171936" lon="7.3734895"><ele>0.0</ele><time>2026-05-01T00:01:31.04Z</time></trkpt><trkpt lat="43.4172475" lon="7.3735761"><ele>0.0</ele><time>2026-05-01T00:01:32.04Z</time></trkpt><trkpt lat="43.4172979" lon="7.3736643"><ele>0.0</ele><time>2026-05-01T00:01:33.041Z</time></trkpt><trkpt lat="43.4173561" lon="7.3737483"><ele>0.0</ele><time>2026-05-01T00:01:34.041Z</time></trkpt><trkpt lat="43.4174115" lon="7.3738348"><ele>0.0</ele><time>2026-05-01T00:01:35.04Z</time></trkpt><trkpt lat="43.4174639" lon="7.3739139"><ele>0.0</ele><time>2026-05-01T00:01:36.041Z</time></trkpt><trkpt lat="43.4175185" lon="7.3739952"><ele>0.0</ele><time>2026-05-01T00:01:37.041Z</time></trkpt><trkpt lat="43.4175665" lon="7.374077"><ele>0.0</ele><time>2026-05-01T00:01:38.041Z</time></trkpt><trkpt lat="43.4175922" lon="7.3741704"><ele>0.0</ele><time>2026-05-01T00:01:39.041Z</time></trkpt><trkpt lat="43.4176238" lon="7.3742651"><ele>0.0</ele><time>2026-05-01T00:01:40.041Z</time></trkpt><trkpt lat="43.4176585" lon="7.3743558"><ele>0.0</ele><time>2026-05-01T00:01:41.041Z</time></trkpt><trkpt lat="43.4178271" lon="7.3746161"><ele>0.0</ele><time>2026-05-01T00:01:44.04Z</time></trkpt><trkpt lat="43.4178891" lon="7.3747043"><ele>0.0</ele><time>2026-05-01T00:01:45.041Z</time></trkpt><trkpt lat="43.4179496" lon="7.3747886"><ele>0.0</ele><time>2026-05-01T00:01:46.04Z</time></trkpt><trkpt lat="43.4180096" lon="7.3748692"><ele>0.0</ele><time>2026-05-01T00:01:47.04Z</time></trkpt><trkpt lat="43.4180636" lon="7.3749563"><ele>0.0</ele><time>2026-05-01T00:01:48.04Z</time></trkpt><trkpt lat="43.4181198" lon="7.3750401"><ele>0.0</ele><time>2026-05-01T00:01:49.04Z</time></trkpt><trkpt lat="43.4181789" lon="7.3751238"><ele>0.0</ele><time>2026-05-01T00:01:50.04Z</time></trkpt><trkpt lat="43.4182423" lon="7.3752081"><ele>0.0</ele><time>2026-05-01T00:01:51.04Z</time></trkpt><trkpt lat="43.4182986" lon="7.3752929"><ele>0.0</ele><time>2026-05-01T00:01:52.041Z</time></trkpt><trkpt lat="43.4183487" lon="7.3753776"><ele>0.0</ele><time>2026-05-01T00:01:53.04Z</time></trkpt><trkpt lat="43.4183969" lon="7.3754612"><ele>0.0</ele><time>2026-05-01T00:01:54.041Z</time></trkpt><trkpt lat="43.4184406" lon="7.3755472"><ele>0.0</ele><time>2026-05-01T00:01:55.041Z</time></trkpt><trkpt lat="43.4184865" lon="7.3756324"><ele>0.0</ele><time>2026-05-01T00:01:56.041Z</time></trkpt><trkpt lat="43.4185431" lon="7.3757177"><ele>0.0</ele><time>2026-05-01T00:01:57.04Z</time></trkpt><trkpt lat="43.4185988" lon="7.3758002"><ele>0.0</ele><time>2026-05-01T00:01:58.041Z</time></trkpt><trkpt lat="43.4186489" lon="7.3758845"><ele>0.0</ele><time>2026-05-01T00:01:59.041Z</time></trkpt><trkpt lat="43.4187022" lon="7.3759757"><ele>0.0</ele><time>2026-05-01T00:02:00.04Z</time></trkpt><trkpt lat="43.4187568" lon="7.3760675"><ele>0.0</ele><time>2026-05-01T00:02:01.041Z</time></trkpt><trkpt lat="43.4188127" lon="7.3761516"><ele>0.0</ele><time>2026-05-01T00:02:02.04Z</time></trkpt><trkpt lat="43.418865" lon="7.3762378"><ele>0.0</ele><time>2026-05-01T00:02:03.041Z</time></trkpt><trkpt lat="43.4189658" lon="7.3764114"><ele>0.0</ele><time>2026-05-01T00:02:05.041Z</time></trkpt><trkpt lat="43.4190197" lon="7.3764982"><ele>0.0</ele><time>2026-05-01T00:02:06.04Z</time></trkpt><trkpt lat="43.4190759" lon="7.3765861"><ele>0.0</ele><time>2026-05-01T00:02:07.04Z</time></trkpt><trkpt lat="43.4191284" lon="7.3766748"><ele>0.0</ele><time>2026-05-01T00:02:08.041Z</time></trkpt><trkpt lat="43.4191861" lon="7.3767644"><ele>0.0</ele><time>2026-05-01T00:02:09.04Z</time></trkpt><trkpt lat="43.4192473" lon="7.3768547"><ele>0.0</ele><time>2026-05-01T00:02:10.041Z</time></trkpt><trkpt lat="43.4193025" lon="7.3769457"><ele>0.0</ele><time>2026-05-01T00:02:11.04Z</time></trkpt><trkpt lat="43.4193496" lon="7.377033"><ele>0.0</ele><time>2026-05-01T00:02:12.04Z</time></trkpt><trkpt lat="43.4194006" lon="7.3771226"><ele>0.0</ele><time>2026-05-01T00:02:13.041Z</time></trkpt><trkpt lat="43.4194884" lon="7.3773028"><ele>0.0</ele><time>2026-05-01T00:02:15.04Z</time></trkpt><trkpt lat="43.4195342" lon="7.3773912"><ele>0.0</ele><time>2026-05-01T00:02:16.04Z</time></trkpt><trkpt lat="43.4195865" lon="7.3774783"><ele>0.0</ele><time>2026-05-01T00:02:17.04Z</time></trkpt><trkpt lat="43.4196412" lon="7.3775638"><ele>0.0</ele><time>2026-05-01T00:02:18.04Z</time></trkpt><trkpt lat="43.4196926" lon="7.3776514"><ele>0.0</ele><time>2026-05-01T00:02:19.041Z</time></trkpt><trkpt lat="43.4197496" lon="7.3777383"><ele>0.0</ele><time>2026-05-01T00:02:20.04Z</time></trkpt><trkpt lat="43.4198064" lon="7.3778274"><ele>0.0</ele><time>2026-05-01T00:02:21.04Z</time></trkpt><trkpt lat="43.4198671" lon="7.3779152"><ele>0.0</ele><time>2026-05-01T00:02:22.041Z</time></trkpt><trkpt lat="43.4199032" lon="7.3780146"><ele>0.0</ele><time>2026-05-01T00:02:23.041Z</time></trkpt><trkpt lat="43.4199603" lon="7.3781008"><ele>0.0</ele><time>2026-05-01T00:02:24.041Z</time></trkpt><trkpt lat="43.420066" lon="7.3782688"><ele>0.0</ele><time>2026-05-01T00:02:26.041Z</time></trkpt><trkpt lat="43.4201207" lon="7.3783551"><ele>0.0</ele><time>2026-05-01T00:02:27.04Z</time></trkpt><trkpt lat="43.4201788" lon="7.3784385"><ele>0.0</ele><time>2026-05-01T00:02:28.04Z</time></trkpt><trkpt lat="43.4202375" lon="7.3785203"><ele>0.0</ele><time>2026-05-01T00:02:29.04Z</time></trkpt><trkpt lat="43.4202817" lon="7.378612"><ele>0.0</ele><time>2026-05-01T00:02:30.041Z</time></trkpt><trkpt lat="43.420331" lon="7.3787008"><ele>0.0</ele><time>2026-05-01T00:02:31.04Z</time></trkpt><trkpt lat="43.4203823" lon="7.3787839"><ele>0.0</ele><time>2026-05-01T00:02:32.041Z</time></trkpt><trkpt lat="43.4204294" lon="7.3788767"><ele>0.0</ele><time>2026-05-01T00:02:33.041Z</time></trkpt><trkpt lat="43.4204816" lon="7.3789644"><ele>0.0</ele><time>2026-05-01T00:02:34.041Z</time></trkpt><trkpt lat="43.4205405" lon="7.3790516"><ele>0.0</ele><time>2026-05-01T00:02:35.04Z</time></trkpt><trkpt lat="43.4206053" lon="7.3791351"><ele>0.0</ele><time>2026-05-01T00:02:36.04Z</time></trkpt><trkpt lat="43.4206632" lon="7.3792196"><ele>0.0</ele><time>2026-05-01T00:02:37.04Z</time></trkpt><trkpt lat="43.4207166" lon="7.3793062"><ele>0.0</ele><time>2026-05-01T00:02:38.041Z</time></trkpt><trkpt lat="43.4207617" lon="7.3793942"><ele>0.0</ele><time>2026-05-01T00:02:39.041Z</time></trkpt><trkpt lat="43.4208092" lon="7.3794799"><ele>0.0</ele><time>2026-05-01T00:02:40.04Z</time></trkpt><trkpt lat="43.4208594" lon="7.3795676"><ele>0.0</ele><time>2026-05-01T00:02:41.04Z</time></trkpt><trkpt lat="43.4209149" lon="7.3796548"><ele>0.0</ele><time>2026-05-01T00:02:42.041Z</time></trkpt><trkpt lat="43.4209701" lon="7.37974"><ele>0.0</ele><time>2026-05-01T00:02:43.041Z</time></trkpt><trkpt lat="43.4210266" lon="7.379825"><ele>0.0</ele><time>2026-05-01T00:02:44.04Z</time></trkpt><trkpt lat="43.4210663" lon="7.3799168"><ele>0.0</ele><time>2026-05-01T00:02:45.041Z</time></trkpt><trkpt lat="43.4212179" lon="7.38017"><ele>0.0</ele><time>2026-05-01T00:02:48.041Z</time></trkpt><trkpt lat="43.4212867" lon="7.380249"><ele>0.0</ele><time>2026-05-01T00:02:49.04Z</time></trkpt><trkpt lat="43.421349" lon="7.380332"><ele>0.0</ele><time>2026-05-01T00:02:50.04Z</time></trkpt><trkpt lat="43.4214092" lon="7.3804181"><ele>0.0</ele><time>2026-05-01T00:02:51.041Z</time></trkpt><trkpt lat="43.4214668" lon="7.3805048"><ele>0.0</ele><time>2026-05-01T00:02:52.041Z</time></trkpt><trkpt lat="43.4215249" lon="7.3805896"><ele>0.0</ele><time>2026-05-01T00:02:53.041Z</time></trkpt><trkpt lat="43.421583" lon="7.3806746"><ele>0.0</ele><time>2026-05-01T00:02:54.041Z</time></trkpt><trkpt lat="43.4216356" lon="7.3807681"><ele>0.0</ele><time>2026-05-01T00:02:55.04Z</time></trkpt><trkpt lat="43.4216886" lon="7.3808633"><ele>0.0</ele><time>2026-05-01T00:02:56.04Z</time></trkpt><trkpt lat="43.4217417" lon="7.3809543"><ele>0.0</ele><time>2026-05-01T00:02:57.041Z</time></trkpt><trkpt lat="43.4217739" lon="7.3810441"><ele>0.0</ele><time>2026-05-01T00:02:58.04Z</time></trkpt><trkpt lat="43.4218168" lon="7.3811301"><ele>0.0</ele><time>2026-05-01T00:02:59.04Z</time></trkpt><trkpt lat="43.4218642" lon="7.3812165"><ele>0.0</ele><time>2026-05-01T00:03:00.04Z</time></trkpt><trkpt lat="43.4219099" lon="7.3813033"><ele>0.0</ele><time>2026-05-01T00:03:01.041Z</time></trkpt><trkpt lat="43.421963" lon="7.3813844"><ele>0.0</ele><time>2026-05-01T00:03:02.04Z</time></trkpt><trkpt lat="43.4220167" lon="7.3814662"><ele>0.0</ele><time>2026-05-01T00:03:03.04Z</time></trkpt><trkpt lat="43.4220825" lon="7.3815465"><ele>0.0</ele><time>2026-05-01T00:03:04.041Z</time></trkpt><trkpt lat="43.4221337" lon="7.3816321"><ele>0.0</ele><time>2026-05-01T00:03:05.04Z</time></trkpt><trkpt lat="43.4221836" lon="7.3817185"><ele>0.0</ele><time>2026-05-01T00:03:06.04Z</time></trkpt><trkpt lat="43.4222307" lon="7.3818022"><ele>0.0</ele><time>2026-05-01T00:03:07.041Z</time></trkpt><trkpt lat="43.4223424" lon="7.3819686"><ele>0.0</ele><time>2026-05-01T00:03:09.04Z</time></trkpt><trkpt lat="43.4224022" lon="7.3820506"><ele>0.0</ele><time>2026-05-01T00:03:10.04Z</time></trkpt><trkpt lat="43.4224621" lon="7.3821321"><ele>0.0</ele><time>2026-05-01T00:03:11.041Z</time></trkpt><trkpt lat="43.42252" lon="7.3822182"><ele>0.0</ele><time>2026-05-01T00:03:12.041Z</time></trkpt><trkpt lat="43.4225762" lon="7.3823065"><ele>0.0</ele><time>2026-05-01T00:03:13.04Z</time></trkpt><trkpt lat="43.4226316" lon="7.3823877"><ele>0.0</ele><time>2026-05-01T00:03:14.04Z</time></trkpt><trkpt lat="43.4226876" lon="7.3824706"><ele>0.0</ele><time>2026-05-01T00:03:15.04Z</time></trkpt><trkpt lat="43.4227386" lon="7.3825553"><ele>0.0</ele><time>2026-05-01T00:03:16.04Z</time></trkpt><trkpt lat="43.422797" lon="7.3826376"><ele>0.0</ele><time>2026-05-01T00:03:17.041Z</time></trkpt><trkpt lat="43.422905" lon="7.3828067"><ele>0.0</ele><time>2026-05-01T00:03:19.041Z</time></trkpt><trkpt lat="43.4229585" lon="7.382892"><ele>0.0</ele><time>2026-05-01T00:03:20.04Z</time></trkpt><trkpt lat="43.4230166" lon="7.38298"><ele>0.0</ele><time>2026-05-01T00:03:21.041Z</time></trkpt><trkpt lat="43.4230703" lon="7.3830673"><ele>0.0</ele><time>2026-05-01T00:03:22.04Z</time></trkpt><trkpt lat="43.4231205" lon="7.3831553"><ele>0.0</ele><time>2026-05-01T00:03:23.041Z</time></trkpt><trkpt lat="43.4231763" lon="7.3832415"><ele>0.0</ele><time>2026-05-01T00:03:24.04Z</time></trkpt><trkpt lat="43.4232316" lon="7.3833316"><ele>0.0</ele><time>2026-05-01T00:03:25.041Z</time></trkpt><trkpt lat="43.4232835" lon="7.3834198"><ele>0.0</ele><time>2026-05-01T00:03:26.04Z</time></trkpt><trkpt lat="43.4233294" lon="7.3835097"><ele>0.0</ele><time>2026-05-01T00:03:27.041Z</time></trkpt><trkpt lat="43.4233802" lon="7.3836003"><ele>0.0</ele><time>2026-05-01T00:03:28.041Z</time></trkpt><trkpt lat="43.4234881" lon="7.383778"><ele>0.0</ele><time>2026-05-01T00:03:30.041Z</time></trkpt><trkpt lat="43.4235455" lon="7.3838635"><ele>0.0</ele><time>2026-05-01T00:03:31.04Z</time></trkpt><trkpt lat="43.4236017" lon="7.3839526"><ele>0.0</ele><time>2026-05-01T00:03:32.041Z</time></trkpt><trkpt lat="43.4236555" lon="7.3840422"><ele>0.0</ele><time>2026-05-01T00:03:33.041Z</time></trkpt><trkpt lat="43.423707" lon="7.3841337"><ele>0.0</ele><time>2026-05-01T00:03:34.04Z</time></trkpt><trkpt lat="43.4237543" lon="7.3842242"><ele>0.0</ele><time>2026-05-01T00:03:35.041Z</time></trkpt><trkpt lat="43.4237983" lon="7.3843087"><ele>0.0</ele><time>2026-05-01T00:03:36.04Z</time></trkpt><trkpt lat="43.4238461" lon="7.3843921"><ele>0.0</ele><time>2026-05-01T00:03:37.041Z</time></trkpt><trkpt lat="43.4238896" lon="7.3844741"><ele>0.0</ele><time>2026-05-01T00:03:38.04Z</time></trkpt><trkpt lat="43.4239214" lon="7.3845568"><ele>0.0</ele><time>2026-05-01T00:03:39.04Z</time></trkpt><trkpt lat="43.4239517" lon="7.3846448"><ele>0.0</ele><time>2026-05-01T00:03:40.04Z</time></trkpt><trkpt lat="43.4239944" lon="7.3847306"><ele>0.0</ele><time>2026-05-01T00:03:41.041Z</time></trkpt><trkpt lat="43.4240376" lon="7.3848155"><ele>0.0</ele><time>2026-05-01T00:03:42.04Z</time></trkpt><trkpt lat="43.424091" lon="7.384899"><ele>0.0</ele><time>2026-05-01T00:03:43.041Z</time></trkpt><trkpt lat="43.4241446" lon="7.3849853"><ele>0.0</ele><time>2026-05-01T00:03:44.04Z</time></trkpt><trkpt lat="43.4242014" lon="7.3850732"><ele>0.0</ele><time>2026-05-01T00:03:45.04Z</time></trkpt><trkpt lat="43.4242606" lon="7.3851601"><ele>0.0</ele><time>2026-05-01T00:03:46.04Z</time></trkpt><trkpt lat="43.4243195" lon="7.3852452"><ele>0.0</ele><time>2026-05-01T00:03:47.04Z</time></trkpt><trkpt lat="43.4243742" lon="7.3853348"><ele>0.0</ele><time>2026-05-01T00:03:48.04Z</time></trkpt><trkpt lat="43.4244304" lon="7.3854245"><ele>0.0</ele><time>2026-05-01T00:03:49.041Z</time></trkpt><trkpt lat="43.4246017" lon="7.3856964"><ele>0.0</ele><time>2026-05-01T00:03:52.04Z</time></trkpt><trkpt lat="43.4246617" lon="7.3857842"><ele>0.0</ele><time>2026-05-01T00:03:53.04Z</time></trkpt><trkpt lat="43.4247182" lon="7.3858728"><ele>0.0</ele><time>2026-05-01T00:03:54.04Z</time></trkpt><trkpt lat="43.4247715" lon="7.3859625"><ele>0.0</ele><time>2026-05-01T00:03:55.041Z</time></trkpt><trkpt lat="43.4248253" lon="7.3860439"><ele>0.0</ele><time>2026-05-01T00:03:56.04Z</time></trkpt><trkpt lat="43.4248829" lon="7.3861283"><ele>0.0</ele><time>2026-05-01T00:03:57.041Z</time></trkpt><trkpt lat="43.4249375" lon="7.3862131"><ele>0.0</ele><time>2026-05-01T00:03:58.04Z</time></trkpt><trkpt lat="43.4249902" lon="7.3862982"><ele>0.0</ele><time>2026-05-01T00:03:59.04Z</time></trkpt><trkpt lat="43.4250467" lon="7.386393"><ele>0.0</ele><time>2026-05-01T00:04:00.04Z</time></trkpt><trkpt lat="43.4251052" lon="7.3864728"><ele>0.0</ele><time>2026-05-01T00:04:01.041Z</time></trkpt><trkpt lat="43.4251613" lon="7.3865569"><ele>0.0</ele><time>2026-05-01T00:04:02.04Z</time></trkpt><trkpt lat="43.425225" lon="7.386632"><ele>0.0</ele><time>2026-05-01T00:04:03.04Z</time></trkpt><trkpt lat="43.4252812" lon="7.3867095"><ele>0.0</ele><time>2026-05-01T00:04:04.04Z</time></trkpt><trkpt lat="43.4253306" lon="7.3867877"><ele>0.0</ele><time>2026-05-01T00:04:05.04Z</time></trkpt><trkpt lat="43.4253851" lon="7.3868749"><ele>0.0</ele><time>2026-05-01T00:04:06.04Z</time></trkpt><trkpt lat="43.4254389" lon="7.3869571"><ele>0.0</ele><time>2026-05-01T00:04:07.04Z</time></trkpt><trkpt lat="43.4254934" lon="7.3870413"><ele>0.0</ele><time>2026-05-01T00:04:08.04Z</time></trkpt><trkpt lat="43.4255467" lon="7.3871265"><ele>0.0</ele><time>2026-05-01T00:04:09.04Z</time></trkpt><trkpt lat="43.4255926" lon="7.3872089"><ele>0.0</ele><time>2026-05-01T00:04:10.04Z</time></trkpt><trkpt lat="43.4256419" lon="7.3872935"><ele>0.0</ele><time>2026-05-01T00:04:11.04Z</time></trkpt><trkpt lat="43.4257608" lon="7.3874696"><ele>0.0</ele><time>2026-05-01T00:04:13.041Z</time></trkpt><trkpt lat="43.4258184" lon="7.3875504"><ele>0.0</ele><time>2026-05-01T00:04:14.04Z</time></trkpt><trkpt lat="43.4258819" lon="7.387628"><ele>0.0</ele><time>2026-05-01T00:04:15.041Z</time></trkpt><trkpt lat="43.4259454" lon="7.3877129"><ele>0.0</ele><time>2026-05-01T00:04:16.041Z</time></trkpt><trkpt lat="43.4260059" lon="7.3878013"><ele>0.0</ele><time>2026-05-01T00:04:17.041Z</time></trkpt><trkpt lat="43.4260601" lon="7.3878836"><ele>0.0</ele><time>2026-05-01T00:04:18.04Z</time></trkpt><trkpt lat="43.4261135" lon="7.3879668"><ele>0.0</ele><time>2026-05-01T00:04:19.041Z</time></trkpt><trkpt lat="43.4261625" lon="7.3880488"><ele>0.0</ele><time>2026-05-01T00:04:20.04Z</time></trkpt><trkpt lat="43.4262097" lon="7.388129"><ele>0.0</ele><time>2026-05-01T00:04:21.04Z</time></trkpt><trkpt lat="43.4262631" lon="7.3882191"><ele>0.0</ele><time>2026-05-01T00:04:22.041Z</time></trkpt><trkpt lat="43.4263731" lon="7.3883977"><ele>0.0</ele><time>2026-05-01T00:04:24.04Z</time></trkpt><trkpt lat="43.4264241" lon="7.3884836"><ele>0.0</ele><time>2026-05-01T00:04:25.041Z</time></trkpt><trkpt lat="43.4264721" lon="7.3885713"><ele>0.0</ele><time>2026-05-01T00:04:26.041Z</time></trkpt><trkpt lat="43.4265203" lon="7.3886609"><ele>0.0</ele><time>2026-05-01T00:04:27.041Z</time></trkpt><trkpt lat="43.4265685" lon="7.3887483"><ele>0.0</ele><time>2026-05-01T00:04:28.041Z</time></trkpt><trkpt lat="43.426617" lon="7.3888333"><ele>0.0</ele><time>2026-05-01T00:04:29.04Z</time></trkpt><trkpt lat="43.4266475" lon="7.3889282"><ele>0.0</ele><time>2026-05-01T00:04:30.041Z</time></trkpt><trkpt lat="43.4266799" lon="7.3890236"><ele>0.0</ele><time>2026-05-01T00:04:31.04Z</time></trkpt><trkpt lat="43.4267357" lon="7.3891174"><ele>0.0</ele><time>2026-05-01T00:04:32.04Z</time></trkpt><trkpt lat="43.4268424" lon="7.3892859"><ele>0.0</ele><time>2026-05-01T00:04:34.041Z</time></trkpt><trkpt lat="43.4268967" lon="7.3893718"><ele>0.0</ele><time>2026-05-01T00:04:35.04Z</time></trkpt><trkpt lat="43.4269483" lon="7.3894571"><ele>0.0</ele><time>2026-05-01T00:04:36.04Z</time></trkpt><trkpt lat="43.4270083" lon="7.3895419"><ele>0.0</ele><time>2026-05-01T00:04:37.04Z</time></trkpt><trkpt lat="43.4270627" lon="7.3896298"><ele>0.0</ele><time>2026-05-01T00:04:38.04Z</time></trkpt><trkpt lat="43.4271147" lon="7.3897151"><ele>0.0</ele><time>2026-05-01T00:04:39.04Z</time></trkpt><trkpt lat="43.4271653" lon="7.3897944"><ele>0.0</ele><time>2026-05-01T00:04:40.04Z</time></trkpt><trkpt lat="43.4272187" lon="7.3898757"><ele>0.0</ele><time>2026-05-01T00:04:41.041Z</time></trkpt><trkpt lat="43.4272721" lon="7.3899558"><ele>0.0</ele><time>2026-05-01T00:04:42.04Z</time></trkpt><trkpt lat="43.427327" lon="7.3900371"><ele>0.0</ele><time>2026-05-01T00:04:43.04Z</time></trkpt><trkpt lat="43.4273819" lon="7.3901186"><ele>0.0</ele><time>2026-05-01T00:04:44.041Z</time></trkpt><trkpt lat="43.4274367" lon="7.3902022"><ele>0.0</ele><time>2026-05-01T00:04:45.041Z</time></trkpt><trkpt lat="43.4274874" lon="7.3902824"><ele>0.0</ele><time>2026-05-01T00:04:46.04Z</time></trkpt><trkpt lat="43.4275373" lon="7.3903684"><ele>0.0</ele><time>2026-05-01T00:04:47.04Z</time></trkpt><trkpt lat="43.4275901" lon="7.3904547"><ele>0.0</ele><time>2026-05-01T00:04:48.041Z</time></trkpt><trkpt lat="43.4276445" lon="7.39054"><ele>0.0</ele><time>2026-05-01T00:04:49.04Z</time></trkpt><trkpt lat="43.4276984" lon="7.3906237"><ele>0.0</ele><time>2026-05-01T00:04:50.04Z</time></trkpt><trkpt lat="43.4277465" lon="7.3907067"><ele>0.0</ele><time>2026-05-01T00:04:51.04Z</time></trkpt><trkpt lat="43.4278016" lon="7.39079"><ele>0.0</ele><time>2026-05-01T00:04:52.04Z</time></trkpt><trkpt lat="43.4278582" lon="7.3908747"><ele>0.0</ele><time>2026-05-01T00:04:53.04Z</time></trkpt><trkpt lat="43.4279117" lon="7.3909585"><ele>0.0</ele><time>2026-05-01T00:04:54.041Z</time></trkpt><trkpt lat="43.42808" lon="7.3912163"><ele>0.0</ele><time>2026-05-01T00:04:57.04Z</time></trkpt><trkpt lat="43.4281376" lon="7.3913045"><ele>0.0</ele><time>2026-05-01T00:04:58.04Z</time></trkpt><trkpt lat="43.4281905" lon="7.3913857"><ele>0.0</ele><time>2026-05-01T00:04:59.041Z</time></trkpt><trkpt lat="43.4282574" lon="7.3914642"><ele>0.0</ele><time>2026-05-01T00:05:00.04Z</time></trkpt><trkpt lat="43.428316" lon="7.3915483"><ele>0.0</ele><time>2026-05-01T00:05:01.04Z</time></trkpt><trkpt lat="43.4283715" lon="7.3916363"><ele>0.0</ele><time>2026-05-01T00:05:02.04Z</time></trkpt><trkpt lat="43.4284251" lon="7.391723"><ele>0.0</ele><time>2026-05-01T00:05:03.041Z</time></trkpt><trkpt lat="43.4284812" lon="7.3918065"><ele>0.0</ele><time>2026-05-01T00:05:04.041Z</time></trkpt><trkpt lat="43.4285348" lon="7.3918942"><ele>0.0</ele><time>2026-05-01T00:05:05.041Z</time></trkpt><trkpt lat="43.4285898" lon="7.3919827"><ele>0.0</ele><time>2026-05-01T00:05:06.041Z</time></trkpt><trkpt lat="43.4286435" lon="7.3920709"><ele>0.0</ele><time>2026-05-01T00:05:07.04Z</time></trkpt><trkpt lat="43.4286937" lon="7.3921581"><ele>0.0</ele><time>2026-05-01T00:05:08.041Z</time></trkpt><trkpt lat="43.4287478" lon="7.392246"><ele>0.0</ele><time>2026-05-01T00:05:09.04Z</time></trkpt><trkpt lat="43.4287998" lon="7.3923331"><ele>0.0</ele><time>2026-05-01T00:05:10.041Z</time></trkpt><trkpt lat="43.4288542" lon="7.3924225"><ele>0.0</ele><time>2026-05-01T00:05:11.04Z</time></trkpt><trkpt lat="43.4289065" lon="7.3925099"><ele>0.0</ele><time>2026-05-01T00:05:12.04Z</time></trkpt><trkpt lat="43.4289539" lon="7.3925976"><ele>0.0</ele><time>2026-05-01T00:05:13.04Z</time></trkpt><trkpt lat="43.4290122" lon="7.3926918"><ele>0.0</ele><time>2026-05-01T00:05:14.04Z</time></trkpt><trkpt lat="43.429063" lon="7.3927782"><ele>0.0</ele><time>2026-05-01T00:05:15.04Z</time></trkpt><trkpt lat="43.4291111" lon="7.3928667"><ele>0.0</ele><time>2026-05-01T00:05:16.041Z</time></trkpt><trkpt lat="43.4292167" lon="7.3930434"><ele>0.0</ele><time>2026-05-01T00:05:18.041Z</time></trkpt><trkpt lat="43.429265" lon="7.3931279"><ele>0.0</ele><time>2026-05-01T00:05:19.041Z</time></trkpt><trkpt lat="43.4293101" lon="7.3932144"><ele>0.0</ele><time>2026-05-01T00:05:20.04Z</time></trkpt><trkpt lat="43.4293579" lon="7.3933011"><ele>0.0</ele><time>2026-05-01T00:05:21.041Z</time></trkpt><trkpt lat="43.4294034" lon="7.3933921"><ele>0.0</ele><time>2026-05-01T00:05:22.04Z</time></trkpt><trkpt lat="43.4294568" lon="7.3934796"><ele>0.0</ele><time>2026-05-01T00:05:23.04Z</time></trkpt><trkpt lat="43.4295074" lon="7.3935693"><ele>0.0</ele><time>2026-05-01T00:05:24.041Z</time></trkpt><trkpt lat="43.4295597" lon="7.3936565"><ele>0.0</ele><time>2026-05-01T00:05:25.04Z</time></trkpt><trkpt lat="43.4296103" lon="7.3937428"><ele>0.0</ele><time>2026-05-01T00:05:26.04Z</time></trkpt><trkpt lat="43.4296614" lon="7.39383"><ele>0.0</ele><time>2026-05-01T00:05:27.04Z</time></trkpt><trkpt lat="43.4297147" lon="7.3939112"><ele>0.0</ele><time>2026-05-01T00:05:28.041Z</time></trkpt><trkpt lat="43.4297681" lon="7.3939953"><ele>0.0</ele><time>2026-05-01T00:05:29.041Z</time></trkpt><trkpt lat="43.429831" lon="7.3940759"><ele>0.0</ele><time>2026-05-01T00:05:30.04Z</time></trkpt><trkpt lat="43.4298866" lon="7.3941601"><ele>0.0</ele><time>2026-05-01T00:05:31.04Z</time></trkpt><trkpt lat="43.4299356" lon="7.3942409"><ele>0.0</ele><time>2026-05-01T00:05:32.041Z</time></trkpt><trkpt lat="43.4299825" lon="7.3943207"><ele>0.0</ele><time>2026-05-01T00:05:33.041Z</time></trkpt><trkpt lat="43.4300306" lon="7.3944022"><ele>0.0</ele><time>2026-05-01T00:05:34.039Z</time></trkpt><trkpt lat="43.4300748" lon="7.3944883"><ele>0.0</ele><time>2026-05-01T00:05:35.04Z</time></trkpt><trkpt lat="43.4301223" lon="7.3945735"><ele>0.0</ele><time>2026-05-01T00:05:36.04Z</time></trkpt><trkpt lat="43.4301781" lon="7.3946585"><ele>0.0</ele><time>2026-05-01T00:05:37.04Z</time></trkpt><trkpt lat="43.4302963" lon="7.3948385"><ele>0.0</ele><time>2026-05-01T00:05:39.039Z</time></trkpt><trkpt lat="43.4303558" lon="7.3949259"><ele>0.0</ele><time>2026-05-01T00:05:40.04Z</time></trkpt><trkpt lat="43.4304075" lon="7.3950142"><ele>0.0</ele><time>2026-05-01T00:05:41.039Z</time></trkpt><trkpt lat="43.4304632" lon="7.3951068"><ele>0.0</ele><time>2026-05-01T00:05:42.04Z</time></trkpt><trkpt lat="43.4305042" lon="7.3951985"><ele>0.0</ele><time>2026-05-01T00:05:43.039Z</time></trkpt><trkpt lat="43.4305553" lon="7.3952874"><ele>0.0</ele><time>2026-05-01T00:05:44.04Z</time></trkpt><trkpt lat="43.4306127" lon="7.3953799"><ele>0.0</ele><time>2026-05-01T00:05:45.039Z</time></trkpt><trkpt lat="43.4306743" lon="7.3954665"><ele>0.0</ele><time>2026-05-01T00:05:46.04Z</time></trkpt><trkpt lat="43.4307245" lon="7.3955486"><ele>0.0</ele><time>2026-05-01T00:05:47.04Z</time></trkpt><trkpt lat="43.4307713" lon="7.3956334"><ele>0.0</ele><time>2026-05-01T00:05:48.04Z</time></trkpt><trkpt lat="43.4308193" lon="7.3957183"><ele>0.0</ele><time>2026-05-01T00:05:49.04Z</time></trkpt><trkpt lat="43.4308707" lon="7.3958075"><ele>0.0</ele><time>2026-05-01T00:05:50.039Z</time></trkpt><trkpt lat="43.4309237" lon="7.3958931"><ele>0.0</ele><time>2026-05-01T00:05:51.04Z</time></trkpt><trkpt lat="43.4309782" lon="7.395977"><ele>0.0</ele><time>2026-05-01T00:05:52.039Z</time></trkpt><trkpt lat="43.4310331" lon="7.3960588"><ele>0.0</ele><time>2026-05-01T00:05:53.039Z</time></trkpt><trkpt lat="43.4310755" lon="7.3961446"><ele>0.0</ele><time>2026-05-01T00:05:54.04Z</time></trkpt><trkpt lat="43.431127" lon="7.3962288"><ele>0.0</ele><time>2026-05-01T00:05:55.04Z</time></trkpt><trkpt lat="43.4311804" lon="7.3963107"><ele>0.0</ele><time>2026-05-01T00:05:56.04Z</time></trkpt><trkpt lat="43.4312282" lon="7.396398"><ele>0.0</ele><time>2026-05-01T00:05:57.039Z</time></trkpt><trkpt lat="43.4312833" lon="7.3964804"><ele>0.0</ele><time>2026-05-01T00:05:58.04Z</time></trkpt><trkpt lat="43.4314507" lon="7.3967427"><ele>0.0</ele><time>2026-05-01T00:06:01.039Z</time></trkpt><trkpt lat="43.431508" lon="7.3968268"><ele>0.0</ele><time>2026-05-01T00:06:02.039Z</time></trkpt><trkpt lat="43.4315642" lon="7.3969083"><ele>0.0</ele><time>2026-05-01T00:06:03.039Z</time></trkpt><trkpt lat="43.4316202" lon="7.3969903"><ele>0.0</ele><time>2026-05-01T00:06:04.04Z</time></trkpt><trkpt lat="43.4316737" lon="7.3970736"><ele>0.0</ele><time>2026-05-01T00:06:05.04Z</time></trkpt><trkpt lat="43.4317229" lon="7.397157"><ele>0.0</ele><time>2026-05-01T00:06:06.039Z</time></trkpt><trkpt lat="43.4317728" lon="7.3972471"><ele>0.0</ele><time>2026-05-01T00:06:07.039Z</time></trkpt><trkpt lat="43.4318249" lon="7.3973457"><ele>0.0</ele><time>2026-05-01T00:06:08.039Z</time></trkpt><trkpt lat="43.4318782" lon="7.3974369"><ele>0.0</ele><time>2026-05-01T00:06:09.04Z</time></trkpt><trkpt lat="43.4319361" lon="7.3975323"><ele>0.0</ele><time>2026-05-01T00:06:10.04Z</time></trkpt><trkpt lat="43.4319901" lon="7.3976245"><ele>0.0</ele><time>2026-05-01T00:06:11.039Z</time></trkpt><trkpt lat="43.4320454" lon="7.3977087"><ele>0.0</ele><time>2026-05-01T00:06:12.04Z</time></trkpt><trkpt lat="43.4320995" lon="7.3977928"><ele>0.0</ele><time>2026-05-01T00:06:13.039Z</time></trkpt><trkpt lat="43.4321522" lon="7.3978777"><ele>0.0</ele><time>2026-05-01T00:06:14.039Z</time></trkpt><trkpt lat="43.4322063" lon="7.3979591"><ele>0.0</ele><time>2026-05-01T00:06:15.04Z</time></trkpt><trkpt lat="43.4322652" lon="7.3980445"><ele>0.0</ele><time>2026-05-01T00:06:16.04Z</time></trkpt><trkpt lat="43.4323285" lon="7.3981233"><ele>0.0</ele><time>2026-05-01T00:06:17.039Z</time></trkpt><trkpt lat="43.4323893" lon="7.3982012"><ele>0.0</ele><time>2026-05-01T00:06:18.039Z</time></trkpt><trkpt lat="43.4324396" lon="7.3982837"><ele>0.0</ele><time>2026-05-01T00:06:19.04Z</time></trkpt><trkpt lat="43.4324883" lon="7.3983656"><ele>0.0</ele><time>2026-05-01T00:06:20.039Z</time></trkpt><trkpt lat="43.4326027" lon="7.3985217"><ele>0.0</ele><time>2026-05-01T00:06:22.04Z</time></trkpt><trkpt lat="43.4326608" lon="7.3986014"><ele>0.0</ele><time>2026-05-01T00:06:23.04Z</time></trkpt><trkpt lat="43.4327217" lon="7.3986829"><ele>0.0</ele><time>2026-05-01T00:06:24.039Z</time></trkpt><trkpt lat="43.4327746" lon="7.3987662"><ele>0.0</ele><time>2026-05-01T00:06:25.039Z</time></trkpt><trkpt lat="43.4328268" lon="7.3988438"><ele>0.0</ele><time>2026-05-01T00:06:26.04Z</time></trkpt><trkpt lat="43.4328826" lon="7.3989319"><ele>0.0</ele><time>2026-05-01T00:06:27.04Z</time></trkpt><trkpt lat="43.4329318" lon="7.3990219"><ele>0.0</ele><time>2026-05-01T00:06:28.039Z</time></trkpt><trkpt lat="43.4329803" lon="7.3991142"><ele>0.0</ele><time>2026-05-01T00:06:29.04Z</time></trkpt><trkpt lat="43.4330287" lon="7.3991991"><ele>0.0</ele><time>2026-05-01T00:06:30.04Z</time></trkpt><trkpt lat="43.4331376" lon="7.3993706"><ele>0.0</ele><time>2026-05-01T00:06:32.039Z</time></trkpt><trkpt lat="43.4331954" lon="7.3994626"><ele>0.0</ele><time>2026-05-01T00:06:33.039Z</time></trkpt><trkpt lat="43.4332441" lon="7.3995567"><ele>0.0</ele><time>2026-05-01T00:06:34.04Z</time></trkpt><trkpt lat="43.4332952" lon="7.3996447"><ele>0.0</ele><time>2026-05-01T00:06:35.04Z</time></trkpt><trkpt lat="43.4333465" lon="7.3997277"><ele>0.0</ele><time>2026-05-01T00:06:36.04Z</time></trkpt><trkpt lat="43.4334052" lon="7.3998152"><ele>0.0</ele><time>2026-05-01T00:06:37.04Z</time></trkpt><trkpt lat="43.4334583" lon="7.3998966"><ele>0.0</ele><time>2026-05-01T00:06:38.04Z</time></trkpt><trkpt lat="43.4335146" lon="7.3999823"><ele>0.0</ele><time>2026-05-01T00:06:39.04Z</time></trkpt><trkpt lat="43.4335777" lon="7.4000745"><ele>0.0</ele><time>2026-05-01T00:06:40.04Z</time></trkpt><trkpt lat="43.4336306" lon="7.4001643"><ele>0.0</ele><time>2026-05-01T00:06:41.039Z</time></trkpt><trkpt lat="43.4337296" lon="7.4003413"><ele>0.0</ele><time>2026-05-01T00:06:43.04Z</time></trkpt><trkpt lat="43.4337791" lon="7.4004238"><ele>0.0</ele><time>2026-05-01T00:06:44.039Z</time></trkpt><trkpt lat="43.4338305" lon="7.4005057"><ele>0.0</ele><time>2026-05-01T00:06:45.04Z</time></trkpt><trkpt lat="43.4338847" lon="7.4005876"><ele>0.0</ele><time>2026-05-01T00:06:46.039Z</time></trkpt><trkpt lat="43.4339412" lon="7.4006736"><ele>0.0</ele><time>2026-05-01T00:06:47.039Z</time></trkpt><trkpt lat="43.4339904" lon="7.4007612"><ele>0.0</ele><time>2026-05-01T00:06:48.039Z</time></trkpt><trkpt lat="43.4340473" lon="7.4008484"><ele>0.0</ele><time>2026-05-01T00:06:49.04Z</time></trkpt><trkpt lat="43.4341045" lon="7.4009339"><ele>0.0</ele><time>2026-05-01T00:06:50.04Z</time></trkpt><trkpt lat="43.4341667" lon="7.4010142"><ele>0.0</ele><time>2026-05-01T00:06:51.04Z</time></trkpt><trkpt lat="43.4342231" lon="7.4011041"><ele>0.0</ele><time>2026-05-01T00:06:52.039Z</time></trkpt><trkpt lat="43.4342779" lon="7.4011872"><ele>0.0</ele><time>2026-05-01T00:06:53.039Z</time></trkpt><trkpt lat="43.4343358" lon="7.4012701"><ele>0.0</ele><time>2026-05-01T00:06:54.04Z</time></trkpt><trkpt lat="43.4343857" lon="7.4013537"><ele>0.0</ele><time>2026-05-01T00:06:55.039Z</time></trkpt><trkpt lat="43.4344342" lon="7.4014374"><ele>0.0</ele><time>2026-05-01T00:06:56.039Z</time></trkpt><trkpt lat="43.434482" lon="7.4015291"><ele>0.0</ele><time>2026-05-01T00:06:57.039Z</time></trkpt><trkpt lat="43.4345332" lon="7.4016221"><ele>0.0</ele><time>2026-05-01T00:06:58.039Z</time></trkpt><trkpt lat="43.4345861" lon="7.4017142"><ele>0.0</ele><time>2026-05-01T00:06:59.04Z</time></trkpt><trkpt lat="43.4346368" lon="7.401803"><ele>0.0</ele><time>2026-05-01T00:07:00.039Z</time></trkpt><trkpt lat="43.4346912" lon="7.4018882"><ele>0.0</ele><time>2026-05-01T00:07:01.039Z</time></trkpt><trkpt lat="43.4347408" lon="7.4019748"><ele>0.0</ele><time>2026-05-01T00:07:02.04Z</time></trkpt><trkpt lat="43.4348841" lon="7.4022341"><ele>0.0</ele><time>2026-05-01T00:07:05.04Z</time></trkpt><trkpt lat="43.4349354" lon="7.402317"><ele>0.0</ele><time>2026-05-01T00:07:06.04Z</time></trkpt><trkpt lat="43.4349828" lon="7.4024031"><ele>0.0</ele><time>2026-05-01T00:07:07.04Z</time></trkpt><trkpt lat="43.4350294" lon="7.4024914"><ele>0.0</ele><time>2026-05-01T00:07:08.04Z</time></trkpt><trkpt lat="43.4350769" lon="7.4025852"><ele>0.0</ele><time>2026-05-01T00:07:09.04Z</time></trkpt><trkpt lat="43.4351242" lon="7.4026772"><ele>0.0</ele><time>2026-05-01T00:07:10.039Z</time></trkpt><trkpt lat="43.4351696" lon="7.4027675"><ele>0.0</ele><time>2026-05-01T00:07:11.039Z</time></trkpt><trkpt lat="43.4352217" lon="7.4028485"><ele>0.0</ele><time>2026-05-01T00:07:12.039Z</time></trkpt><trkpt lat="43.4352751" lon="7.4029302"><ele>0.0</ele><time>2026-05-01T00:07:13.04Z</time></trkpt><trkpt lat="43.4353275" lon="7.4030096"><ele>0.0</ele><time>2026-05-01T00:07:14.039Z</time></trkpt><trkpt lat="43.4353846" lon="7.4030906"><ele>0.0</ele><time>2026-05-01T00:07:15.04Z</time></trkpt><trkpt lat="43.4354433" lon="7.4031683"><ele>0.0</ele><time>2026-05-01T00:07:16.04Z</time></trkpt><trkpt lat="43.4355027" lon="7.4032464"><ele>0.0</ele><time>2026-05-01T00:07:17.039Z</time></trkpt><trkpt lat="43.4355676" lon="7.4033292"><ele>0.0</ele><time>2026-05-01T00:07:18.04Z</time></trkpt><trkpt lat="43.4356281" lon="7.4034134"><ele>0.0</ele><time>2026-05-01T00:07:19.039Z</time></trkpt><trkpt lat="43.4356836" lon="7.4035011"><ele>0.0</ele><time>2026-05-01T00:07:20.039Z</time></trkpt><trkpt lat="43.4357372" lon="7.4035881"><ele>0.0</ele><time>2026-05-01T00:07:21.04Z</time></trkpt><trkpt lat="43.4357916" lon="7.4036733"><ele>0.0</ele><time>2026-05-01T00:07:22.04Z</time></trkpt><trkpt lat="43.4358452" lon="7.4037642"><ele>0.0</ele><time>2026-05-01T00:07:23.04Z</time></trkpt><trkpt lat="43.4358973" lon="7.4038498"><ele>0.0</ele><time>2026-05-01T00:07:24.039Z</time></trkpt><trkpt lat="43.4360016" lon="7.4040189"><ele>0.0</ele><time>2026-05-01T00:07:26.039Z</time></trkpt><trkpt lat="43.4360564" lon="7.4041048"><ele>0.0</ele><time>2026-05-01T00:07:27.039Z</time></trkpt><trkpt lat="43.4361118" lon="7.4041868"><ele>0.0</ele><time>2026-05-01T00:07:28.039Z</time></trkpt><trkpt lat="43.436168" lon="7.4042719"><ele>0.0</ele><time>2026-05-01T00:07:29.04Z</time></trkpt><trkpt lat="43.4362236" lon="7.4043571"><ele>0.0</ele><time>2026-05-01T00:07:30.039Z</time></trkpt><trkpt lat="43.4362852" lon="7.4044389"><ele>0.0</ele><time>2026-05-01T00:07:31.04Z</time></trkpt><trkpt lat="43.4363445" lon="7.4045194"><ele>0.0</ele><time>2026-05-01T00:07:32.039Z</time></trkpt><trkpt lat="43.4364016" lon="7.4045966"><ele>0.0</ele><time>2026-05-01T00:07:33.039Z</time></trkpt><trkpt lat="43.4364551" lon="7.40467"><ele>0.0</ele><time>2026-05-01T00:07:34.04Z</time></trkpt><trkpt lat="43.4365082" lon="7.404752"><ele>0.0</ele><time>2026-05-01T00:07:35.04Z</time></trkpt><trkpt lat="43.4365684" lon="7.4048342"><ele>0.0</ele><time>2026-05-01T00:07:36.039Z</time></trkpt><trkpt lat="43.4366289" lon="7.4049169"><ele>0.0</ele><time>2026-05-01T00:07:37.039Z</time></trkpt><trkpt lat="43.436683" lon="7.4049986"><ele>0.0</ele><time>2026-05-01T00:07:38.04Z</time></trkpt><trkpt lat="43.4367346" lon="7.4050894"><ele>0.0</ele><time>2026-05-01T00:07:39.04Z</time></trkpt><trkpt lat="43.4367919" lon="7.4051866"><ele>0.0</ele><time>2026-05-01T00:07:40.039Z</time></trkpt><trkpt lat="43.4368477" lon="7.4052705"><ele>0.0</ele><time>2026-05-01T00:07:41.04Z</time></trkpt><trkpt lat="43.4368989" lon="7.4053566"><ele>0.0</ele><time>2026-05-01T00:07:42.039Z</time></trkpt><trkpt lat="43.4369521" lon="7.4054417"><ele>0.0</ele><time>2026-05-01T00:07:43.039Z</time></trkpt><trkpt lat="43.437008" lon="7.4055283"><ele>0.0</ele><time>2026-05-01T00:07:44.04Z</time></trkpt><trkpt lat="43.4370585" lon="7.4056213"><ele>0.0</ele><time>2026-05-01T00:07:45.04Z</time></trkpt><trkpt lat="43.4371521" lon="7.4058057"><ele>0.0</ele><time>2026-05-01T00:07:47.039Z</time></trkpt><trkpt lat="43.4372006" lon="7.4058858"><ele>0.0</ele><time>2026-05-01T00:07:48.039Z</time></trkpt><trkpt lat="43.4372559" lon="7.4059685"><ele>0.0</ele><time>2026-05-01T00:07:49.039Z</time></trkpt><trkpt lat="43.4373114" lon="7.406052"><ele>0.0</ele><time>2026-05-01T00:07:50.04Z</time></trkpt><trkpt lat="43.437365" lon="7.4061358"><ele>0.0</ele><time>2026-05-01T00:07:51.04Z</time></trkpt><trkpt lat="43.4374109" lon="7.4062237"><ele>0.0</ele><time>2026-05-01T00:07:52.039Z</time></trkpt><trkpt lat="43.4374559" lon="7.4063121"><ele>0.0</ele><time>2026-05-01T00:07:53.039Z</time></trkpt><trkpt lat="43.437504" lon="7.4063973"><ele>0.0</ele><time>2026-05-01T00:07:54.04Z</time></trkpt><trkpt lat="43.4375595" lon="7.4064848"><ele>0.0</ele><time>2026-05-01T00:07:55.039Z</time></trkpt><trkpt lat="43.4376107" lon="7.4065717"><ele>0.0</ele><time>2026-05-01T00:07:56.039Z</time></trkpt><trkpt lat="43.437665" lon="7.4066565"><ele>0.0</ele><time>2026-05-01T00:07:57.039Z</time></trkpt><trkpt lat="43.4377229" lon="7.4067412"><ele>0.0</ele><time>2026-05-01T00:07:58.04Z</time></trkpt><trkpt lat="43.4377703" lon="7.4068324"><ele>0.0</ele><time>2026-05-01T00:07:59.039Z</time></trkpt><trkpt lat="43.4378157" lon="7.4069197"><ele>0.0</ele><time>2026-05-01T00:08:00.04Z</time></trkpt><trkpt lat="43.4378696" lon="7.4070064"><ele>0.0</ele><time>2026-05-01T00:08:01.039Z</time></trkpt><trkpt lat="43.4379275" lon="7.4070917"><ele>0.0</ele><time>2026-05-01T00:08:02.04Z</time></trkpt><trkpt lat="43.4379871" lon="7.4071792"><ele>0.0</ele><time>2026-05-01T00:08:03.039Z</time></trkpt><trkpt lat="43.4380444" lon="7.407263"><ele>0.0</ele><time>2026-05-01T00:08:04.039Z</time></trkpt><trkpt lat="43.4381016" lon="7.4073421"><ele>0.0</ele><time>2026-05-01T00:08:05.04Z</time></trkpt><trkpt lat="43.4381572" lon="7.4074246"><ele>0.0</ele><time>2026-05-01T00:08:06.039Z</time></trkpt><trkpt lat="43.4382024" lon="7.4075111"><ele>0.0</ele><time>2026-05-01T00:08:07.04Z</time></trkpt><trkpt lat="43.4383017" lon="7.4076905"><ele>0.0</ele><time>2026-05-01T00:08:09.04Z</time></trkpt><trkpt lat="43.4383563" lon="7.4077808"><ele>0.0</ele><time>2026-05-01T00:08:10.04Z</time></trkpt><trkpt lat="43.4384144" lon="7.4078777"><ele>0.0</ele><time>2026-05-01T00:08:11.04Z</time></trkpt><trkpt lat="43.4384729" lon="7.4079648"><ele>0.0</ele><time>2026-05-01T00:08:12.039Z</time></trkpt><trkpt lat="43.4385366" lon="7.4080385"><ele>0.0</ele><time>2026-05-01T00:08:13.039Z</time></trkpt><trkpt lat="43.4385912" lon="7.4081234"><ele>0.0</ele><time>2026-05-01T00:08:14.039Z</time></trkpt><trkpt lat="43.438648" lon="7.4082059"><ele>0.0</ele><time>2026-05-01T00:08:15.04Z</time></trkpt><trkpt lat="43.438709" lon="7.4082887"><ele>0.0</ele><time>2026-05-01T00:08:16.039Z</time></trkpt><trkpt lat="43.438768" lon="7.4083772"><ele>0.0</ele><time>2026-05-01T00:08:17.039Z</time></trkpt><trkpt lat="43.4388265" lon="7.4084684"><ele>0.0</ele><time>2026-05-01T00:08:18.04Z</time></trkpt><trkpt lat="43.4388789" lon="7.4085435"><ele>0.0</ele><time>2026-05-01T00:08:19.039Z</time></trkpt><trkpt lat="43.4389305" lon="7.4086196"><ele>0.0</ele><time>2026-05-01T00:08:20.039Z</time></trkpt><trkpt lat="43.4389875" lon="7.4087071"><ele>0.0</ele><time>2026-05-01T00:08:21.039Z</time></trkpt><trkpt lat="43.439043" lon="7.408789"><ele>0.0</ele><time>2026-05-01T00:08:22.04Z</time></trkpt><trkpt lat="43.4390984" lon="7.4088745"><ele>0.0</ele><time>2026-05-01T00:08:23.039Z</time></trkpt><trkpt lat="43.4391519" lon="7.4089662"><ele>0.0</ele><time>2026-05-01T00:08:24.04Z</time></trkpt><trkpt lat="43.4392024" lon="7.4090484"><ele>0.0</ele><time>2026-05-01T00:08:25.039Z</time></trkpt><trkpt lat="43.4392543" lon="7.4091333"><ele>0.0</ele><time>2026-05-01T00:08:26.04Z</time></trkpt><trkpt lat="43.4393043" lon="7.4092267"><ele>0.0</ele><time>2026-05-01T00:08:27.039Z</time></trkpt><trkpt lat="43.4394136" lon="7.409399"><ele>0.0</ele><time>2026-05-01T00:08:29.039Z</time></trkpt><trkpt lat="43.4394626" lon="7.4094764"><ele>0.0</ele><time>2026-05-01T00:08:30.039Z</time></trkpt><trkpt lat="43.4395155" lon="7.4095588"><ele>0.0</ele><time>2026-05-01T00:08:31.04Z</time></trkpt><trkpt lat="43.439563" lon="7.409646"><ele>0.0</ele><time>2026-05-01T00:08:32.039Z</time></trkpt><trkpt lat="43.4396143" lon="7.4097297"><ele>0.0</ele><time>2026-05-01T00:08:33.039Z</time></trkpt><trkpt lat="43.4396712" lon="7.4098117"><ele>0.0</ele><time>2026-05-01T00:08:34.039Z</time></trkpt><trkpt lat="43.4397299" lon="7.4098945"><ele>0.0</ele><time>2026-05-01T00:08:35.04Z</time></trkpt><trkpt lat="43.4397838" lon="7.409982"><ele>0.0</ele><time>2026-05-01T00:08:36.04Z</time></trkpt><trkpt lat="43.4398342" lon="7.4100676"><ele>0.0</ele><time>2026-05-01T00:08:37.039Z</time></trkpt><trkpt lat="43.4398868" lon="7.4101525"><ele>0.0</ele><time>2026-05-01T00:08:38.039Z</time></trkpt><trkpt lat="43.4399955" lon="7.4103224"><ele>0.0</ele><time>2026-05-01T00:08:40.04Z</time></trkpt><trkpt lat="43.4400493" lon="7.410413"><ele>0.0</ele><time>2026-05-01T00:08:41.04Z</time></trkpt><trkpt lat="43.4400949" lon="7.4105004"><ele>0.0</ele><time>2026-05-01T00:08:42.04Z</time></trkpt><trkpt lat="43.4401458" lon="7.4105835"><ele>0.0</ele><time>2026-05-01T00:08:43.039Z</time></trkpt><trkpt lat="43.4402002" lon="7.4106707"><ele>0.0</ele><time>2026-05-01T00:08:44.04Z</time></trkpt><trkpt lat="43.4402523" lon="7.4107561"><ele>0.0</ele><time>2026-05-01T00:08:45.04Z</time></trkpt><trkpt lat="43.440308" lon="7.4108455"><ele>0.0</ele><time>2026-05-01T00:08:46.039Z</time></trkpt><trkpt lat="43.440367" lon="7.4109329"><ele>0.0</ele><time>2026-05-01T00:08:47.04Z</time></trkpt><trkpt lat="43.4404228" lon="7.4110219"><ele>0.0</ele><time>2026-05-01T00:08:48.04Z</time></trkpt><trkpt lat="43.4405343" lon="7.4112036"><ele>0.0</ele><time>2026-05-01T00:08:50.039Z</time></trkpt><trkpt lat="43.4405912" lon="7.4112913"><ele>0.0</ele><time>2026-05-01T00:08:51.04Z</time></trkpt><trkpt lat="43.4406464" lon="7.4113766"><ele>0.0</ele><time>2026-05-01T00:08:52.039Z</time></trkpt><trkpt lat="43.4407004" lon="7.41146"><ele>0.0</ele><time>2026-05-01T00:08:53.039Z</time></trkpt><trkpt lat="43.4407565" lon="7.4115463"><ele>0.0</ele><time>2026-05-01T00:08:54.04Z</time></trkpt><trkpt lat="43.4408088" lon="7.4116344"><ele>0.0</ele><time>2026-05-01T00:08:55.039Z</time></trkpt><trkpt lat="43.440855" lon="7.4117213"><ele>0.0</ele><time>2026-05-01T00:08:56.039Z</time></trkpt><trkpt lat="43.44089" lon="7.4118108"><ele>0.0</ele><time>2026-05-01T00:08:57.039Z</time></trkpt><trkpt lat="43.4409361" lon="7.4118976"><ele>0.0</ele><time>2026-05-01T00:08:58.039Z</time></trkpt><trkpt lat="43.4409879" lon="7.4119944"><ele>0.0</ele><time>2026-05-01T00:08:59.04Z</time></trkpt><trkpt lat="43.4410406" lon="7.4120834"><ele>0.0</ele><time>2026-05-01T00:09:00.039Z</time></trkpt><trkpt lat="43.4410893" lon="7.4121693"><ele>0.0</ele><time>2026-05-01T00:09:01.04Z</time></trkpt><trkpt lat="43.4411404" lon="7.4122571"><ele>0.0</ele><time>2026-05-01T00:09:02.039Z</time></trkpt><trkpt lat="43.4411932" lon="7.4123382"><ele>0.0</ele><time>2026-05-01T00:09:03.039Z</time></trkpt><trkpt lat="43.441249" lon="7.4124205"><ele>0.0</ele><time>2026-05-01T00:09:04.039Z</time></trkpt><trkpt lat="43.4413047" lon="7.4125048"><ele>0.0</ele><time>2026-05-01T00:09:05.04Z</time></trkpt><trkpt lat="43.4413625" lon="7.4125927"><ele>0.0</ele><time>2026-05-01T00:09:06.039Z</time></trkpt><trkpt lat="43.4414155" lon="7.4126796"><ele>0.0</ele><time>2026-05-01T00:09:07.039Z</time></trkpt><trkpt lat="43.4414731" lon="7.4127689"><ele>0.0</ele><time>2026-05-01T00:09:08.039Z</time></trkpt><trkpt lat="43.4415272" lon="7.4128603"><ele>0.0</ele><time>2026-05-01T00:09:09.039Z</time></trkpt><trkpt lat="43.4416286" lon="7.413036"><ele>0.0</ele><time>2026-05-01T00:09:11.039Z</time></trkpt><trkpt lat="43.4417321" lon="7.413208"><ele>0.0</ele><time>2026-05-01T00:09:13.039Z</time></trkpt><trkpt lat="43.4417892" lon="7.4132945"><ele>0.0</ele><time>2026-05-01T00:09:14.039Z</time></trkpt><trkpt lat="43.4418424" lon="7.4133827"><ele>0.0</ele><time>2026-05-01T00:09:15.04Z</time></trkpt><trkpt lat="43.4418938" lon="7.4134683"><ele>0.0</ele><time>2026-05-01T00:09:16.04Z</time></trkpt><trkpt lat="43.4419455" lon="7.4135549"><ele>0.0</ele><time>2026-05-01T00:09:17.04Z</time></trkpt><trkpt lat="43.441993" lon="7.4136412"><ele>0.0</ele><time>2026-05-01T00:09:18.039Z</time></trkpt><trkpt lat="43.442042" lon="7.4137352"><ele>0.0</ele><time>2026-05-01T00:09:19.04Z</time></trkpt><trkpt lat="43.442093" lon="7.413817"><ele>0.0</ele><time>2026-05-01T00:09:20.039Z</time></trkpt><trkpt lat="43.442141" lon="7.4138975"><ele>0.0</ele><time>2026-05-01T00:09:21.039Z</time></trkpt><trkpt lat="43.4421936" lon="7.4139862"><ele>0.0</ele><time>2026-05-01T00:09:22.039Z</time></trkpt><trkpt lat="43.4422443" lon="7.4140719"><ele>0.0</ele><time>2026-05-01T00:09:23.04Z</time></trkpt><trkpt lat="43.4422966" lon="7.4141572"><ele>0.0</ele><time>2026-05-01T00:09:24.04Z</time></trkpt><trkpt lat="43.4423512" lon="7.4142418"><ele>0.0</ele><time>2026-05-01T00:09:25.039Z</time></trkpt><trkpt lat="43.4424064" lon="7.4143397"><ele>0.0</ele><time>2026-05-01T00:09:26.039Z</time></trkpt><trkpt lat="43.442465" lon="7.4144305"><ele>0.0</ele><time>2026-05-01T00:09:27.04Z</time></trkpt><trkpt lat="43.4425207" lon="7.4145123"><ele>0.0</ele><time>2026-05-01T00:09:28.039Z</time></trkpt><trkpt lat="43.442572" lon="7.4145938"><ele>0.0</ele><time>2026-05-01T00:09:29.04Z</time></trkpt><trkpt lat="43.4426269" lon="7.4146798"><ele>0.0</ele><time>2026-05-01T00:09:30.039Z</time></trkpt><trkpt lat="43.4427334" lon="7.4148413"><ele>0.0</ele><time>2026-05-01T00:09:32.04Z</time></trkpt><trkpt lat="43.4427843" lon="7.414932"><ele>0.0</ele><time>2026-05-01T00:09:33.04Z</time></trkpt><trkpt lat="43.4428329" lon="7.4150222"><ele>0.0</ele><time>2026-05-01T00:09:34.039Z</time></trkpt><trkpt lat="43.4428881" lon="7.415112"><ele>0.0</ele><time>2026-05-01T00:09:35.04Z</time></trkpt><trkpt lat="43.4429424" lon="7.4152006"><ele>0.0</ele><time>2026-05-01T00:09:36.04Z</time></trkpt><trkpt lat="43.4429898" lon="7.4152908"><ele>0.0</ele><time>2026-05-01T00:09:37.039Z</time></trkpt><trkpt lat="43.443041" lon="7.4153764"><ele>0.0</ele><time>2026-05-01T00:09:38.039Z</time></trkpt><trkpt lat="43.443094" lon="7.4154628"><ele>0.0</ele><time>2026-05-01T00:09:39.039Z</time></trkpt><trkpt lat="43.4431423" lon="7.4155519"><ele>0.0</ele><time>2026-05-01T00:09:40.04Z</time></trkpt><trkpt lat="43.4431949" lon="7.4156325"><ele>0.0</ele><time>2026-05-01T00:09:41.039Z</time></trkpt><trkpt lat="43.4432446" lon="7.4157134"><ele>0.0</ele><time>2026-05-01T00:09:42.039Z</time></trkpt><trkpt lat="43.4432936" lon="7.4157995"><ele>0.0</ele><time>2026-05-01T00:09:43.039Z</time></trkpt><trkpt lat="43.4434031" lon="7.4159681"><ele>0.0</ele><time>2026-05-01T00:09:45.04Z</time></trkpt><trkpt lat="43.4434587" lon="7.4160487"><ele>0.0</ele><time>2026-05-01T00:09:46.039Z</time></trkpt><trkpt lat="43.4435125" lon="7.4161285"><ele>0.0</ele><time>2026-05-01T00:09:47.04Z</time></trkpt><trkpt lat="43.4435638" lon="7.416213"><ele>0.0</ele><time>2026-05-01T00:09:48.039Z</time></trkpt><trkpt lat="43.4436197" lon="7.4162979"><ele>0.0</ele><time>2026-05-01T00:09:49.039Z</time></trkpt><trkpt lat="43.4436792" lon="7.4163841"><ele>0.0</ele><time>2026-05-01T00:09:50.04Z</time></trkpt><trkpt lat="43.4437351" lon="7.4164758"><ele>0.0</ele><time>2026-05-01T00:09:51.04Z</time></trkpt><trkpt lat="43.4438447" lon="7.4166584"><ele>0.0</ele><time>2026-05-01T00:09:53.04Z</time></trkpt><trkpt lat="43.4439024" lon="7.4167407"><ele>0.0</ele><time>2026-05-01T00:09:54.039Z</time></trkpt><trkpt lat="43.4439525" lon="7.4168212"><ele>0.0</ele><time>2026-05-01T00:09:55.039Z</time></trkpt><trkpt lat="43.444002" lon="7.4169007"><ele>0.0</ele><time>2026-05-01T00:09:56.04Z</time></trkpt><trkpt lat="43.4440521" lon="7.4169871"><ele>0.0</ele><time>2026-05-01T00:09:57.04Z</time></trkpt><trkpt lat="43.4441035" lon="7.4170728"><ele>0.0</ele><time>2026-05-01T00:09:58.039Z</time></trkpt><trkpt lat="43.4441528" lon="7.4171581"><ele>0.0</ele><time>2026-05-01T00:09:59.039Z</time></trkpt><trkpt lat="43.4442047" lon="7.4172434"><ele>0.0</ele><time>2026-05-01T00:10:00.039Z</time></trkpt><trkpt lat="43.444258" lon="7.4173283"><ele>0.0</ele><time>2026-05-01T00:10:01.039Z</time></trkpt><trkpt lat="43.4443141" lon="7.4174118"><ele>0.0</ele><time>2026-05-01T00:10:02.039Z</time></trkpt><trkpt lat="43.4443769" lon="7.4174924"><ele>0.0</ele><time>2026-05-01T00:10:03.039Z</time></trkpt><trkpt lat="43.4444427" lon="7.4175766"><ele>0.0</ele><time>2026-05-01T00:10:04.04Z</time></trkpt><trkpt lat="43.4445032" lon="7.4176631"><ele>0.0</ele><time>2026-05-01T00:10:05.039Z</time></trkpt><trkpt lat="43.4445568" lon="7.417747"><ele>0.0</ele><time>2026-05-01T00:10:06.04Z</time></trkpt><trkpt lat="43.4446189" lon="7.4178332"><ele>0.0</ele><time>2026-05-01T00:10:07.039Z</time></trkpt><trkpt lat="43.4446791" lon="7.4179165"><ele>0.0</ele><time>2026-05-01T00:10:08.039Z</time></trkpt><trkpt lat="43.4447333" lon="7.4180028"><ele>0.0</ele><time>2026-05-01T00:10:09.039Z</time></trkpt><trkpt lat="43.4447838" lon="7.4180896"><ele>0.0</ele><time>2026-05-01T00:10:10.04Z</time></trkpt><trkpt lat="43.444834" lon="7.4181737"><ele>0.0</ele><time>2026-05-01T00:10:11.04Z</time></trkpt><trkpt lat="43.4448968" lon="7.4182543"><ele>0.0</ele><time>2026-05-01T00:10:12.04Z</time></trkpt><trkpt lat="43.4450175" lon="7.4184113"><ele>0.0</ele><time>2026-05-01T00:10:14.039Z</time></trkpt><trkpt lat="43.4450717" lon="7.4184906"><ele>0.0</ele><time>2026-05-01T00:10:15.04Z</time></trkpt><trkpt lat="43.445129" lon="7.4185732"><ele>0.0</ele><time>2026-05-01T00:10:16.039Z</time></trkpt><trkpt lat="43.4451753" lon="7.418661"><ele>0.0</ele><time>2026-05-01T00:10:17.04Z</time></trkpt><trkpt lat="43.4452705" lon="7.4188369"><ele>0.0</ele><time>2026-05-01T00:10:19.04Z</time></trkpt><trkpt lat="43.4453118" lon="7.4189229"><ele>0.0</ele><time>2026-05-01T00:10:20.039Z</time></trkpt><trkpt lat="43.445362" lon="7.4190149"><ele>0.0</ele><time>2026-05-01T00:10:21.04Z</time></trkpt><trkpt lat="43.4454165" lon="7.4191041"><ele>0.0</ele><time>2026-05-01T00:10:22.039Z</time></trkpt><trkpt lat="43.4454647" lon="7.4191998"><ele>0.0</ele><time>2026-05-01T00:10:23.04Z</time></trkpt><trkpt lat="43.4455113" lon="7.419292"><ele>0.0</ele><time>2026-05-01T00:10:24.039Z</time></trkpt><trkpt lat="43.4455624" lon="7.4193809"><ele>0.0</ele><time>2026-05-01T00:10:25.039Z</time></trkpt><trkpt lat="43.4456114" lon="7.4194681"><ele>0.0</ele><time>2026-05-01T00:10:26.04Z</time></trkpt><trkpt lat="43.4456623" lon="7.419553"><ele>0.0</ele><time>2026-05-01T00:10:27.039Z</time></trkpt><trkpt lat="43.4457167" lon="7.4196352"><ele>0.0</ele><time>2026-05-01T00:10:28.04Z</time></trkpt><trkpt lat="43.4457699" lon="7.4197213"><ele>0.0</ele><time>2026-05-01T00:10:29.039Z</time></trkpt><trkpt lat="43.4458166" lon="7.4198093"><ele>0.0</ele><time>2026-05-01T00:10:30.04Z</time></trkpt><trkpt lat="43.4458657" lon="7.4198958"><ele>0.0</ele><time>2026-05-01T00:10:31.039Z</time></trkpt><trkpt lat="43.4459201" lon="7.4199804"><ele>0.0</ele><time>2026-05-01T00:10:32.04Z</time></trkpt><trkpt lat="43.4459795" lon="7.4200663"><ele>0.0</ele><time>2026-05-01T00:10:33.04Z</time></trkpt><trkpt lat="43.4460851" lon="7.4202464"><ele>0.0</ele><time>2026-05-01T00:10:35.038Z</time></trkpt><trkpt lat="43.4461443" lon="7.4203415"><ele>0.0</ele><time>2026-05-01T00:10:36.038Z</time></trkpt><trkpt lat="43.4462015" lon="7.4204291"><ele>0.0</ele><time>2026-05-01T00:10:37.039Z</time></trkpt><trkpt lat="43.4462611" lon="7.4205121"><ele>0.0</ele><time>2026-05-01T00:10:38.039Z</time></trkpt><trkpt lat="43.44632" lon="7.4205942"><ele>0.0</ele><time>2026-05-01T00:10:39.038Z</time></trkpt><trkpt lat="43.4463737" lon="7.4206711"><ele>0.0</ele><time>2026-05-01T00:10:40.038Z</time></trkpt><trkpt lat="43.4464251" lon="7.4207547"><ele>0.0</ele><time>2026-05-01T00:10:41.039Z</time></trkpt><trkpt lat="43.4464784" lon="7.4208396"><ele>0.0</ele><time>2026-05-01T00:10:42.038Z</time></trkpt><trkpt lat="43.4465329" lon="7.4209255"><ele>0.0</ele><time>2026-05-01T00:10:43.038Z</time></trkpt><trkpt lat="43.4465869" lon="7.4210073"><ele>0.0</ele><time>2026-05-01T00:10:44.038Z</time></trkpt><trkpt lat="43.4466402" lon="7.4210947"><ele>0.0</ele><time>2026-05-01T00:10:45.039Z</time></trkpt><trkpt lat="43.4466963" lon="7.4211829"><ele>0.0</ele><time>2026-05-01T00:10:46.038Z</time></trkpt><trkpt lat="43.4467545" lon="7.4212696"><ele>0.0</ele><time>2026-05-01T00:10:47.039Z</time></trkpt><trkpt lat="43.4468114" lon="7.4213577"><ele>0.0</ele><time>2026-05-01T00:10:48.038Z</time></trkpt><trkpt lat="43.4468683" lon="7.4214379"><ele>0.0</ele><time>2026-05-01T00:10:49.039Z</time></trkpt><trkpt lat="43.4469233" lon="7.4215288"><ele>0.0</ele><time>2026-05-01T00:10:50.038Z</time></trkpt><trkpt lat="43.4469769" lon="7.4216161"><ele>0.0</ele><time>2026-05-01T00:10:51.039Z</time></trkpt><trkpt lat="43.4470344" lon="7.4217072"><ele>0.0</ele><time>2026-05-01T00:10:52.038Z</time></trkpt><trkpt lat="43.4470927" lon="7.4217902"><ele>0.0</ele><time>2026-05-01T00:10:53.039Z</time></trkpt><trkpt lat="43.4471469" lon="7.4218707"><ele>0.0</ele><time>2026-05-01T00:10:54.039Z</time></trkpt><trkpt lat="43.4472551" lon="7.4220325"><ele>0.0</ele><time>2026-05-01T00:10:56.038Z</time></trkpt><trkpt lat="43.44731" lon="7.4221227"><ele>0.0</ele><time>2026-05-01T00:10:57.038Z</time></trkpt><trkpt lat="43.4473595" lon="7.4222145"><ele>0.0</ele><time>2026-05-01T00:10:58.039Z</time></trkpt><trkpt lat="43.4474147" lon="7.4223036"><ele>0.0</ele><time>2026-05-01T00:10:59.039Z</time></trkpt><trkpt lat="43.4474672" lon="7.4223917"><ele>0.0</ele><time>2026-05-01T00:11:00.038Z</time></trkpt><trkpt lat="43.4475187" lon="7.4224757"><ele>0.0</ele><time>2026-05-01T00:11:01.039Z</time></trkpt><trkpt lat="43.4475747" lon="7.4225525"><ele>0.0</ele><time>2026-05-01T00:11:02.039Z</time></trkpt><trkpt lat="43.4476257" lon="7.422631"><ele>0.0</ele><time>2026-05-01T00:11:03.038Z</time></trkpt><trkpt lat="43.4476782" lon="7.4227147"><ele>0.0</ele><time>2026-05-01T00:11:04.039Z</time></trkpt><trkpt lat="43.4477293" lon="7.4227927"><ele>0.0</ele><time>2026-05-01T00:11:05.038Z</time></trkpt><trkpt lat="43.4477862" lon="7.4228811"><ele>0.0</ele><time>2026-05-01T00:11:06.038Z</time></trkpt><trkpt lat="43.4478468" lon="7.4229707"><ele>0.0</ele><time>2026-05-01T00:11:07.039Z</time></trkpt><trkpt lat="43.4479028" lon="7.4230589"><ele>0.0</ele><time>2026-05-01T00:11:08.039Z</time></trkpt><trkpt lat="43.4479595" lon="7.4231421"><ele>0.0</ele><time>2026-05-01T00:11:09.039Z</time></trkpt><trkpt lat="43.4480149" lon="7.4232262"><ele>0.0</ele><time>2026-05-01T00:11:10.038Z</time></trkpt><trkpt lat="43.4480726" lon="7.4233116"><ele>0.0</ele><time>2026-05-01T00:11:11.038Z</time></trkpt><trkpt lat="43.4481279" lon="7.4233952"><ele>0.0</ele><time>2026-05-01T00:11:12.039Z</time></trkpt><trkpt lat="43.4481758" lon="7.4234764"><ele>0.0</ele><time>2026-05-01T00:11:13.038Z</time></trkpt><trkpt lat="43.4482277" lon="7.4235656"><ele>0.0</ele><time>2026-05-01T00:11:14.039Z</time></trkpt><trkpt lat="43.448284" lon="7.423654"><ele>0.0</ele><time>2026-05-01T00:11:15.038Z</time></trkpt><trkpt lat="43.4484031" lon="7.4238315"><ele>0.0</ele><time>2026-05-01T00:11:17.038Z</time></trkpt><trkpt lat="43.4484585" lon="7.4239122"><ele>0.0</ele><time>2026-05-01T00:11:18.038Z</time></trkpt><trkpt lat="43.4485133" lon="7.4239951"><ele>0.0</ele><time>2026-05-01T00:11:19.038Z</time></trkpt><trkpt lat="43.4485697" lon="7.4240826"><ele>0.0</ele><time>2026-05-01T00:11:20.038Z</time></trkpt><trkpt lat="43.4486249" lon="7.424167"><ele>0.0</ele><time>2026-05-01T00:11:21.038Z</time></trkpt><trkpt lat="43.4487308" lon="7.4243543"><ele>0.0</ele><time>2026-05-01T00:11:23.038Z</time></trkpt><trkpt lat="43.4487856" lon="7.4244395"><ele>0.0</ele><time>2026-05-01T00:11:24.038Z</time></trkpt><trkpt lat="43.4488395" lon="7.4245262"><ele>0.0</ele><time>2026-05-01T00:11:25.038Z</time></trkpt><trkpt lat="43.4488881" lon="7.4246173"><ele>0.0</ele><time>2026-05-01T00:11:26.038Z</time></trkpt><trkpt lat="43.4489357" lon="7.4247101"><ele>0.0</ele><time>2026-05-01T00:11:27.038Z</time></trkpt><trkpt lat="43.4489838" lon="7.4247957"><ele>0.0</ele><time>2026-05-01T00:11:28.038Z</time></trkpt><trkpt lat="43.4490352" lon="7.4248761"><ele>0.0</ele><time>2026-05-01T00:11:29.038Z</time></trkpt><trkpt lat="43.449081" lon="7.4249586"><ele>0.0</ele><time>2026-05-01T00:11:30.038Z</time></trkpt><trkpt lat="43.4491276" lon="7.4250489"><ele>0.0</ele><time>2026-05-01T00:11:31.039Z</time></trkpt><trkpt lat="43.4491769" lon="7.4251425"><ele>0.0</ele><time>2026-05-01T00:11:32.039Z</time></trkpt><trkpt lat="43.4492314" lon="7.4252288"><ele>0.0</ele><time>2026-05-01T00:11:33.039Z</time></trkpt><trkpt lat="43.4492806" lon="7.4253151"><ele>0.0</ele><time>2026-05-01T00:11:34.039Z</time></trkpt><trkpt lat="43.4493323" lon="7.4254017"><ele>0.0</ele><time>2026-05-01T00:11:35.038Z</time></trkpt><trkpt lat="43.4493838" lon="7.4254865"><ele>0.0</ele><time>2026-05-01T00:11:36.038Z</time></trkpt><trkpt lat="43.4494839" lon="7.425661"><ele>0.0</ele><time>2026-05-01T00:11:38.038Z</time></trkpt><trkpt lat="43.4495308" lon="7.4257511"><ele>0.0</ele><time>2026-05-01T00:11:39.038Z</time></trkpt><trkpt lat="43.4495831" lon="7.4258355"><ele>0.0</ele><time>2026-05-01T00:11:40.038Z</time></trkpt><trkpt lat="43.4496353" lon="7.4259229"><ele>0.0</ele><time>2026-05-01T00:11:41.039Z</time></trkpt><trkpt lat="43.4496913" lon="7.4260093"><ele>0.0</ele><time>2026-05-01T00:11:42.039Z</time></trkpt><trkpt lat="43.4497426" lon="7.4260989"><ele>0.0</ele><time>2026-05-01T00:11:43.038Z</time></trkpt><trkpt lat="43.4497924" lon="7.426189"><ele>0.0</ele><time>2026-05-01T00:11:44.038Z</time></trkpt><trkpt lat="43.4498422" lon="7.4262778"><ele>0.0</ele><time>2026-05-01T00:11:45.039Z</time></trkpt><trkpt lat="43.4498952" lon="7.426369"><ele>0.0</ele><time>2026-05-01T00:11:46.038Z</time></trkpt><trkpt lat="43.449954" lon="7.4264509"><ele>0.0</ele><time>2026-05-01T00:11:47.038Z</time></trkpt><trkpt lat="43.4500069" lon="7.4265353"><ele>0.0</ele><time>2026-05-01T00:11:48.039Z</time></trkpt><trkpt lat="43.4500559" lon="7.4266174"><ele>0.0</ele><time>2026-05-01T00:11:49.039Z</time></trkpt><trkpt lat="43.4501127" lon="7.4266992"><ele>0.0</ele><time>2026-05-01T00:11:50.039Z</time></trkpt><trkpt lat="43.4501669" lon="7.4267834"><ele>0.0</ele><time>2026-05-01T00:11:51.039Z</time></trkpt><trkpt lat="43.4502231" lon="7.4268658"><ele>0.0</ele><time>2026-05-01T00:11:52.038Z</time></trkpt><trkpt lat="43.4502768" lon="7.4269485"><ele>0.0</ele><time>2026-05-01T00:11:53.039Z</time></trkpt><trkpt lat="43.4503727" lon="7.4271169"><ele>0.0</ele><time>2026-05-01T00:11:55.039Z</time></trkpt><trkpt lat="43.4504207" lon="7.4272087"><ele>0.0</ele><time>2026-05-01T00:11:56.039Z</time></trkpt><trkpt lat="43.4504704" lon="7.4272877"><ele>0.0</ele><time>2026-05-01T00:11:57.039Z</time></trkpt><trkpt lat="43.4505716" lon="7.4274544"><ele>0.0</ele><time>2026-05-01T00:11:59.039Z</time></trkpt><trkpt lat="43.4506241" lon="7.427544"><ele>0.0</ele><time>2026-05-01T00:12:00.039Z</time></trkpt><trkpt lat="43.4506785" lon="7.4276285"><ele>0.0</ele><time>2026-05-01T00:12:01.038Z</time></trkpt><trkpt lat="43.4507331" lon="7.42772"><ele>0.0</ele><time>2026-05-01T00:12:02.038Z</time></trkpt><trkpt lat="43.4507884" lon="7.427805"><ele>0.0</ele><time>2026-05-01T00:12:03.039Z</time></trkpt><trkpt lat="43.4508431" lon="7.4278943"><ele>0.0</ele><time>2026-05-01T00:12:04.038Z</time></trkpt><trkpt lat="43.4508952" lon="7.4279844"><ele>0.0</ele><time>2026-05-01T00:12:05.039Z</time></trkpt><trkpt lat="43.450951" lon="7.4280639"><ele>0.0</ele><time>2026-05-01T00:12:06.039Z</time></trkpt><trkpt lat="43.4510023" lon="7.4281415"><ele>0.0</ele><time>2026-05-01T00:12:07.038Z</time></trkpt><trkpt lat="43.4510581" lon="7.4282307"><ele>0.0</ele><time>2026-05-01T00:12:08.038Z</time></trkpt><trkpt lat="43.451112" lon="7.4283165"><ele>0.0</ele><time>2026-05-01T00:12:09.039Z</time></trkpt><trkpt lat="43.4511655" lon="7.4284057"><ele>0.0</ele><time>2026-05-01T00:12:10.039Z</time></trkpt><trkpt lat="43.451219" lon="7.428489"><ele>0.0</ele><time>2026-05-01T00:12:11.038Z</time></trkpt><trkpt lat="43.4512723" lon="7.428569"><ele>0.0</ele><time>2026-05-01T00:12:12.039Z</time></trkpt><trkpt lat="43.4513237" lon="7.4286487"><ele>0.0</ele><time>2026-05-01T00:12:13.039Z</time></trkpt><trkpt lat="43.4513754" lon="7.4287274"><ele>0.0</ele><time>2026-05-01T00:12:14.039Z</time></trkpt><trkpt lat="43.4514285" lon="7.4288058"><ele>0.0</ele><time>2026-05-01T00:12:15.038Z</time></trkpt><trkpt lat="43.4514817" lon="7.4288886"><ele>0.0</ele><time>2026-05-01T00:12:16.039Z</time></trkpt><trkpt lat="43.4515352" lon="7.4289761"><ele>0.0</ele><time>2026-05-01T00:12:17.039Z</time></trkpt><trkpt lat="43.4515898" lon="7.4290616"><ele>0.0</ele><time>2026-05-01T00:12:18.038Z</time></trkpt><trkpt lat="43.4516949" lon="7.4292281"><ele>0.0</ele><time>2026-05-01T00:12:20.038Z</time></trkpt><trkpt lat="43.4517428" lon="7.4293162"><ele>0.0</ele><time>2026-05-01T00:12:21.039Z</time></trkpt><trkpt lat="43.4517939" lon="7.4294061"><ele>0.0</ele><time>2026-05-01T00:12:22.038Z</time></trkpt><trkpt lat="43.4518451" lon="7.4294944"><ele>0.0</ele><time>2026-05-01T00:12:23.038Z</time></trkpt><trkpt lat="43.4518981" lon="7.4295827"><ele>0.0</ele><time>2026-05-01T00:12:24.038Z</time></trkpt><trkpt lat="43.4519458" lon="7.4296754"><ele>0.0</ele><time>2026-05-01T00:12:25.038Z</time></trkpt><trkpt lat="43.4519871" lon="7.4297684"><ele>0.0</ele><time>2026-05-01T00:12:26.038Z</time></trkpt><trkpt lat="43.4520798" lon="7.4299337"><ele>0.0</ele><time>2026-05-01T00:12:28.039Z</time></trkpt><trkpt lat="43.4521301" lon="7.4300143"><ele>0.0</ele><time>2026-05-01T00:12:29.038Z</time></trkpt><trkpt lat="43.4521803" lon="7.4300985"><ele>0.0</ele><time>2026-05-01T00:12:30.038Z</time></trkpt><trkpt lat="43.4522384" lon="7.4301818"><ele>0.0</ele><time>2026-05-01T00:12:31.038Z</time></trkpt><trkpt lat="43.4522957" lon="7.4302695"><ele>0.0</ele><time>2026-05-01T00:12:32.038Z</time></trkpt><trkpt lat="43.4523524" lon="7.4303569"><ele>0.0</ele><time>2026-05-01T00:12:33.039Z</time></trkpt><trkpt lat="43.4524106" lon="7.430447"><ele>0.0</ele><time>2026-05-01T00:12:34.038Z</time></trkpt><trkpt lat="43.4524675" lon="7.4305276"><ele>0.0</ele><time>2026-05-01T00:12:35.038Z</time></trkpt><trkpt lat="43.4525175" lon="7.4306017"><ele>0.0</ele><time>2026-05-01T00:12:36.039Z</time></trkpt><trkpt lat="43.452566" lon="7.4306811"><ele>0.0</ele><time>2026-05-01T00:12:37.038Z</time></trkpt><trkpt lat="43.4526185" lon="7.4307624"><ele>0.0</ele><time>2026-05-01T00:12:38.039Z</time></trkpt><trkpt lat="43.4526786" lon="7.4308441"><ele>0.0</ele><time>2026-05-01T00:12:39.038Z</time></trkpt><trkpt lat="43.4527962" lon="7.4310007"><ele>0.0</ele><time>2026-05-01T00:12:41.038Z</time></trkpt><trkpt lat="43.4528541" lon="7.4310779"><ele>0.0</ele><time>2026-05-01T00:12:42.038Z</time></trkpt><trkpt lat="43.4529056" lon="7.4311636"><ele>0.0</ele><time>2026-05-01T00:12:43.039Z</time></trkpt><trkpt lat="43.4529545" lon="7.4312488"><ele>0.0</ele><time>2026-05-01T00:12:44.039Z</time></trkpt><trkpt lat="43.4530047" lon="7.431333"><ele>0.0</ele><time>2026-05-01T00:12:45.038Z</time></trkpt><trkpt lat="43.4530597" lon="7.4314155"><ele>0.0</ele><time>2026-05-01T00:12:46.039Z</time></trkpt><trkpt lat="43.4531149" lon="7.4314999"><ele>0.0</ele><time>2026-05-01T00:12:47.039Z</time></trkpt><trkpt lat="43.4531717" lon="7.4315774"><ele>0.0</ele><time>2026-05-01T00:12:48.039Z</time></trkpt><trkpt lat="43.4532253" lon="7.4316584"><ele>0.0</ele><time>2026-05-01T00:12:49.039Z</time></trkpt><trkpt lat="43.4532819" lon="7.4317355"><ele>0.0</ele><time>2026-05-01T00:12:50.038Z</time></trkpt><trkpt lat="43.4533357" lon="7.4318197"><ele>0.0</ele><time>2026-05-01T00:12:51.039Z</time></trkpt><trkpt lat="43.4533902" lon="7.4319102"><ele>0.0</ele><time>2026-05-01T00:12:52.038Z</time></trkpt><trkpt lat="43.4534415" lon="7.4320006"><ele>0.0</ele><time>2026-05-01T00:12:53.038Z</time></trkpt><trkpt lat="43.4534882" lon="7.4320887"><ele>0.0</ele><time>2026-05-01T00:12:54.039Z</time></trkpt><trkpt lat="43.4535349" lon="7.4321772"><ele>0.0</ele><time>2026-05-01T00:12:55.038Z</time></trkpt><trkpt lat="43.4535831" lon="7.4322755"><ele>0.0</ele><time>2026-05-01T00:12:56.038Z</time></trkpt><trkpt lat="43.4536269" lon="7.4323786"><ele>0.0</ele><time>2026-05-01T00:12:57.038Z</time></trkpt><trkpt lat="43.4536708" lon="7.4324794"><ele>0.0</ele><time>2026-05-01T00:12:58.039Z</time></trkpt><trkpt lat="43.4537193" lon="7.4325682"><ele>0.0</ele><time>2026-05-01T00:12:59.039Z</time></trkpt><trkpt lat="43.4538797" lon="7.4328246"><ele>0.0</ele><time>2026-05-01T00:13:02.039Z</time></trkpt><trkpt lat="43.453928" lon="7.4329085"><ele>0.0</ele><time>2026-05-01T00:13:03.038Z</time></trkpt><trkpt lat="43.4539802" lon="7.4329914"><ele>0.0</ele><time>2026-05-01T00:13:04.039Z</time></trkpt><trkpt lat="43.4540378" lon="7.4330789"><ele>0.0</ele><time>2026-05-01T00:13:05.038Z</time></trkpt><trkpt lat="43.454096" lon="7.433167"><ele>0.0</ele><time>2026-05-01T00:13:06.038Z</time></trkpt><trkpt lat="43.4541514" lon="7.4332527"><ele>0.0</ele><time>2026-05-01T00:13:07.038Z</time></trkpt><trkpt lat="43.4542046" lon="7.4333399"><ele>0.0</ele><time>2026-05-01T00:13:08.038Z</time></trkpt><trkpt lat="43.4542613" lon="7.4334191"><ele>0.0</ele><time>2026-05-01T00:13:09.039Z</time></trkpt><trkpt lat="43.4543162" lon="7.4335013"><ele>0.0</ele><time>2026-05-01T00:13:10.038Z</time></trkpt><trkpt lat="43.4543696" lon="7.4335845"><ele>0.0</ele><time>2026-05-01T00:13:11.039Z</time></trkpt><trkpt lat="43.4544184" lon="7.4336675"><ele>0.0</ele><time>2026-05-01T00:13:12.038Z</time></trkpt><trkpt lat="43.4544612" lon="7.433745"><ele>0.0</ele><time>2026-05-01T00:13:13.038Z</time></trkpt><trkpt lat="43.454506" lon="7.4338258"><ele>0.0</ele><time>2026-05-01T00:13:14.038Z</time></trkpt><trkpt lat="43.4545569" lon="7.4339075"><ele>0.0</ele><time>2026-05-01T00:13:15.038Z</time></trkpt><trkpt lat="43.4546052" lon="7.4339892"><ele>0.0</ele><time>2026-05-01T00:13:16.039Z</time></trkpt><trkpt lat="43.4546551" lon="7.4340807"><ele>0.0</ele><time>2026-05-01T00:13:17.038Z</time></trkpt><trkpt lat="43.4547096" lon="7.4341639"><ele>0.0</ele><time>2026-05-01T00:13:18.038Z</time></trkpt><trkpt lat="43.4547648" lon="7.4342509"><ele>0.0</ele><time>2026-05-01T00:13:19.039Z</time></trkpt><trkpt lat="43.4548172" lon="7.4343373"><ele>0.0</ele><time>2026-05-01T00:13:20.038Z</time></trkpt><trkpt lat="43.4548658" lon="7.434424"><ele>0.0</ele><time>2026-05-01T00:13:21.039Z</time></trkpt><trkpt lat="43.4549683" lon="7.4346015"><ele>0.0</ele><time>2026-05-01T00:13:23.039Z</time></trkpt><trkpt lat="43.45502" lon="7.434688"><ele>0.0</ele><time>2026-05-01T00:13:24.039Z</time></trkpt><trkpt lat="43.455076" lon="7.4347733"><ele>0.0</ele><time>2026-05-01T00:13:25.038Z</time></trkpt><trkpt lat="43.4551282" lon="7.4348569"><ele>0.0</ele><time>2026-05-01T00:13:26.038Z</time></trkpt><trkpt lat="43.455181" lon="7.4349424"><ele>0.0</ele><time>2026-05-01T00:13:27.038Z</time></trkpt><trkpt lat="43.4552346" lon="7.4350268"><ele>0.0</ele><time>2026-05-01T00:13:28.039Z</time></trkpt><trkpt lat="43.4552866" lon="7.4351078"><ele>0.0</ele><time>2026-05-01T00:13:29.038Z</time></trkpt><trkpt lat="43.4553346" lon="7.4351965"><ele>0.0</ele><time>2026-05-01T00:13:30.039Z</time></trkpt><trkpt lat="43.4553851" lon="7.4352898"><ele>0.0</ele><time>2026-05-01T00:13:31.039Z</time></trkpt><trkpt lat="43.4554865" lon="7.435455"><ele>0.0</ele><time>2026-05-01T00:13:33.039Z</time></trkpt><trkpt lat="43.455541" lon="7.4355379"><ele>0.0</ele><time>2026-05-01T00:13:34.038Z</time></trkpt><trkpt lat="43.4555969" lon="7.4356211"><ele>0.0</ele><time>2026-05-01T00:13:35.039Z</time></trkpt><trkpt lat="43.4556532" lon="7.4357108"><ele>0.0</ele><time>2026-05-01T00:13:36.039Z</time></trkpt><trkpt lat="43.4557045" lon="7.4358027"><ele>0.0</ele><time>2026-05-01T00:13:37.038Z</time></trkpt><trkpt lat="43.4557534" lon="7.4358937"><ele>0.0</ele><time>2026-05-01T00:13:38.038Z</time></trkpt><trkpt lat="43.4558093" lon="7.4359861"><ele>0.0</ele><time>2026-05-01T00:13:39.039Z</time></trkpt><trkpt lat="43.4558672" lon="7.4360776"><ele>0.0</ele><time>2026-05-01T00:13:40.039Z</time></trkpt><trkpt lat="43.4559201" lon="7.4361627"><ele>0.0</ele><time>2026-05-01T00:13:41.038Z</time></trkpt><trkpt lat="43.4559715" lon="7.4362461"><ele>0.0</ele><time>2026-05-01T00:13:42.038Z</time></trkpt><trkpt lat="43.4560796" lon="7.4364157"><ele>0.0</ele><time>2026-05-01T00:13:44.038Z</time></trkpt><trkpt lat="43.4561332" lon="7.4365074"><ele>0.0</ele><time>2026-05-01T00:13:45.039Z</time></trkpt><trkpt lat="43.4561883" lon="7.436593"><ele>0.0</ele><time>2026-05-01T00:13:46.039Z</time></trkpt><trkpt lat="43.4562407" lon="7.4366799"><ele>0.0</ele><time>2026-05-01T00:13:47.039Z</time></trkpt><trkpt lat="43.4562906" lon="7.436768"><ele>0.0</ele><time>2026-05-01T00:13:48.038Z</time></trkpt><trkpt lat="43.4563391" lon="7.4368492"><ele>0.0</ele><time>2026-05-01T00:13:49.038Z</time></trkpt><trkpt lat="43.4563934" lon="7.4369248"><ele>0.0</ele><time>2026-05-01T00:13:50.039Z</time></trkpt><trkpt lat="43.4564448" lon="7.4370023"><ele>0.0</ele><time>2026-05-01T00:13:51.038Z</time></trkpt><trkpt lat="43.4564966" lon="7.4370785"><ele>0.0</ele><time>2026-05-01T00:13:52.038Z</time></trkpt><trkpt lat="43.4565499" lon="7.4371576"><ele>0.0</ele><time>2026-05-01T00:13:53.039Z</time></trkpt><trkpt lat="43.4566005" lon="7.4372394"><ele>0.0</ele><time>2026-05-01T00:13:54.038Z</time></trkpt><trkpt lat="43.4566534" lon="7.4373239"><ele>0.0</ele><time>2026-05-01T00:13:55.038Z</time></trkpt><trkpt lat="43.456715" lon="7.4373978"><ele>0.0</ele><time>2026-05-01T00:13:56.038Z</time></trkpt><trkpt lat="43.4567737" lon="7.4374809"><ele>0.0</ele><time>2026-05-01T00:13:57.039Z</time></trkpt><trkpt lat="43.4568266" lon="7.4375634"><ele>0.0</ele><time>2026-05-01T00:13:58.039Z</time></trkpt><trkpt lat="43.4568785" lon="7.4376436"><ele>0.0</ele><time>2026-05-01T00:13:59.039Z</time></trkpt><trkpt lat="43.4569287" lon="7.4377205"><ele>0.0</ele><time>2026-05-01T00:14:00.038Z</time></trkpt><trkpt lat="43.4569858" lon="7.4378033"><ele>0.0</ele><time>2026-05-01T00:14:01.038Z</time></trkpt><trkpt lat="43.4570412" lon="7.4378825"><ele>0.0</ele><time>2026-05-01T00:14:02.038Z</time></trkpt><trkpt lat="43.457089" lon="7.4379606"><ele>0.0</ele><time>2026-05-01T00:14:03.038Z</time></trkpt><trkpt lat="43.4572322" lon="7.438202"><ele>0.0</ele><time>2026-05-01T00:14:06.038Z</time></trkpt><trkpt lat="43.4572852" lon="7.4382816"><ele>0.0</ele><time>2026-05-01T00:14:07.038Z</time></trkpt><trkpt lat="43.4573338" lon="7.4383656"><ele>0.0</ele><time>2026-05-01T00:14:08.039Z</time></trkpt><trkpt lat="43.4573876" lon="7.4384576"><ele>0.0</ele><time>2026-05-01T00:14:09.038Z</time></trkpt><trkpt lat="43.4574453" lon="7.4385478"><ele>0.0</ele><time>2026-05-01T00:14:10.038Z</time></trkpt><trkpt lat="43.4574981" lon="7.4386352"><ele>0.0</ele><time>2026-05-01T00:14:11.038Z</time></trkpt><trkpt lat="43.4575467" lon="7.4387135"><ele>0.0</ele><time>2026-05-01T00:14:12.038Z</time></trkpt><trkpt lat="43.4575997" lon="7.4387931"><ele>0.0</ele><time>2026-05-01T00:14:13.039Z</time></trkpt><trkpt lat="43.45765" lon="7.438877"><ele>0.0</ele><time>2026-05-01T00:14:14.039Z</time></trkpt><trkpt lat="43.4577015" lon="7.4389614"><ele>0.0</ele><time>2026-05-01T00:14:15.039Z</time></trkpt><trkpt lat="43.4577519" lon="7.439048"><ele>0.0</ele><time>2026-05-01T00:14:16.038Z</time></trkpt><trkpt lat="43.4578061" lon="7.4391377"><ele>0.0</ele><time>2026-05-01T00:14:17.039Z</time></trkpt><trkpt lat="43.4578642" lon="7.4392289"><ele>0.0</ele><time>2026-05-01T00:14:18.038Z</time></trkpt><trkpt lat="43.4579142" lon="7.4393237"><ele>0.0</ele><time>2026-05-01T00:14:19.039Z</time></trkpt><trkpt lat="43.457965" lon="7.4394147"><ele>0.0</ele><time>2026-05-01T00:14:20.038Z</time></trkpt><trkpt lat="43.4580192" lon="7.4394994"><ele>0.0</ele><time>2026-05-01T00:14:21.038Z</time></trkpt><trkpt lat="43.4580759" lon="7.4395865"><ele>0.0</ele><time>2026-05-01T00:14:22.039Z</time></trkpt><trkpt lat="43.4581293" lon="7.4396701"><ele>0.0</ele><time>2026-05-01T00:14:23.038Z</time></trkpt><trkpt lat="43.4581841" lon="7.4397535"><ele>0.0</ele><time>2026-05-01T00:14:24.039Z</time></trkpt><trkpt lat="43.4582419" lon="7.4398413"><ele>0.0</ele><time>2026-05-01T00:14:25.038Z</time></trkpt><trkpt lat="43.4583573" lon="7.4400133"><ele>0.0</ele><time>2026-05-01T00:14:27.038Z</time></trkpt><trkpt lat="43.45841" lon="7.4400899"><ele>0.0</ele><time>2026-05-01T00:14:28.039Z</time></trkpt><trkpt lat="43.4584689" lon="7.4401716"><ele>0.0</ele><time>2026-05-01T00:14:29.039Z</time></trkpt><trkpt lat="43.4585259" lon="7.440255"><ele>0.0</ele><time>2026-05-01T00:14:30.038Z</time></trkpt><trkpt lat="43.4585813" lon="7.4403399"><ele>0.0</ele><time>2026-05-01T00:14:31.038Z</time></trkpt><trkpt lat="43.4586306" lon="7.4404209"><ele>0.0</ele><time>2026-05-01T00:14:32.039Z</time></trkpt><trkpt lat="43.4586836" lon="7.4405008"><ele>0.0</ele><time>2026-05-01T00:14:33.038Z</time></trkpt><trkpt lat="43.4587328" lon="7.4405813"><ele>0.0</ele><time>2026-05-01T00:14:34.038Z</time></trkpt><trkpt lat="43.4587811" lon="7.4406545"><ele>0.0</ele><time>2026-05-01T00:14:35.039Z</time></trkpt><trkpt lat="43.4588823" lon="7.440801"><ele>0.0</ele><time>2026-05-01T00:14:37.038Z</time></trkpt><trkpt lat="43.4589336" lon="7.4408756"><ele>0.0</ele><time>2026-05-01T00:14:38.039Z</time></trkpt><trkpt lat="43.4589882" lon="7.4409566"><ele>0.0</ele><time>2026-05-01T00:14:39.039Z</time></trkpt><trkpt lat="43.4590483" lon="7.4410386"><ele>0.0</ele><time>2026-05-01T00:14:40.039Z</time></trkpt><trkpt lat="43.459103" lon="7.441121"><ele>0.0</ele><time>2026-05-01T00:14:41.038Z</time></trkpt><trkpt lat="43.4591579" lon="7.4412203"><ele>0.0</ele><time>2026-05-01T00:14:42.038Z</time></trkpt><trkpt lat="43.4592159" lon="7.4413116"><ele>0.0</ele><time>2026-05-01T00:14:43.038Z</time></trkpt><trkpt lat="43.4592757" lon="7.4414011"><ele>0.0</ele><time>2026-05-01T00:14:44.038Z</time></trkpt><trkpt lat="43.4593344" lon="7.4414851"><ele>0.0</ele><time>2026-05-01T00:14:45.039Z</time></trkpt><trkpt lat="43.4593898" lon="7.4415683"><ele>0.0</ele><time>2026-05-01T00:14:46.039Z</time></trkpt><trkpt lat="43.4594928" lon="7.4417465"><ele>0.0</ele><time>2026-05-01T00:14:48.038Z</time></trkpt><trkpt lat="43.4595409" lon="7.4418293"><ele>0.0</ele><time>2026-05-01T00:14:49.039Z</time></trkpt><trkpt lat="43.4595863" lon="7.4419259"><ele>0.0</ele><time>2026-05-01T00:14:50.039Z</time></trkpt><trkpt lat="43.4596398" lon="7.4420141"><ele>0.0</ele><time>2026-05-01T00:14:51.039Z</time></trkpt><trkpt lat="43.4596915" lon="7.4421065"><ele>0.0</ele><time>2026-05-01T00:14:52.038Z</time></trkpt><trkpt lat="43.4597503" lon="7.4421939"><ele>0.0</ele><time>2026-05-01T00:14:53.039Z</time></trkpt><trkpt lat="43.4598057" lon="7.4422808"><ele>0.0</ele><time>2026-05-01T00:14:54.039Z</time></trkpt><trkpt lat="43.4598507" lon="7.4423737"><ele>0.0</ele><time>2026-05-01T00:14:55.039Z</time></trkpt><trkpt lat="43.4598982" lon="7.4424599"><ele>0.0</ele><time>2026-05-01T00:14:56.039Z</time></trkpt><trkpt lat="43.4599472" lon="7.4425496"><ele>0.0</ele><time>2026-05-01T00:14:57.038Z</time></trkpt><trkpt lat="43.459999" lon="7.4426368"><ele>0.0</ele><time>2026-05-01T00:14:58.039Z</time></trkpt><trkpt lat="43.460056" lon="7.442722"><ele>0.0</ele><time>2026-05-01T00:14:59.038Z</time></trkpt><trkpt lat="43.4601114" lon="7.4428069"><ele>0.0</ele><time>2026-05-01T00:15:00.038Z</time></trkpt><trkpt lat="43.460169" lon="7.4428922"><ele>0.0</ele><time>2026-05-01T00:15:01.038Z</time></trkpt><trkpt lat="43.4602259" lon="7.4429779"><ele>0.0</ele><time>2026-05-01T00:15:02.038Z</time></trkpt><trkpt lat="43.4602772" lon="7.4430559"><ele>0.0</ele><time>2026-05-01T00:15:03.039Z</time></trkpt><trkpt lat="43.4603271" lon="7.4431408"><ele>0.0</ele><time>2026-05-01T00:15:04.039Z</time></trkpt><trkpt lat="43.4603804" lon="7.4432245"><ele>0.0</ele><time>2026-05-01T00:15:05.038Z</time></trkpt><trkpt lat="43.4604332" lon="7.4433073"><ele>0.0</ele><time>2026-05-01T00:15:06.039Z</time></trkpt><trkpt lat="43.4604919" lon="7.443393"><ele>0.0</ele><time>2026-05-01T00:15:07.038Z</time></trkpt><trkpt lat="43.4605984" lon="7.4435731"><ele>0.0</ele><time>2026-05-01T00:15:09.039Z</time></trkpt><trkpt lat="43.4606965" lon="7.4437475"><ele>0.0</ele><time>2026-05-01T00:15:11.039Z</time></trkpt><trkpt lat="43.4607441" lon="7.4438369"><ele>0.0</ele><time>2026-05-01T00:15:12.038Z</time></trkpt><trkpt lat="43.4607966" lon="7.4439181"><ele>0.0</ele><time>2026-05-01T00:15:13.039Z</time></trkpt><trkpt lat="43.4608474" lon="7.4440031"><ele>0.0</ele><time>2026-05-01T00:15:14.039Z</time></trkpt><trkpt lat="43.4608962" lon="7.444084"><ele>0.0</ele><time>2026-05-01T00:15:15.038Z</time></trkpt><trkpt lat="43.4609527" lon="7.4441637"><ele>0.0</ele><time>2026-05-01T00:15:16.038Z</time></trkpt><trkpt lat="43.4610022" lon="7.4442467"><ele>0.0</ele><time>2026-05-01T00:15:17.038Z</time></trkpt><trkpt lat="43.4610522" lon="7.4443271"><ele>0.0</ele><time>2026-05-01T00:15:18.039Z</time></trkpt><trkpt lat="43.4611069" lon="7.4444072"><ele>0.0</ele><time>2026-05-01T00:15:19.038Z</time></trkpt><trkpt lat="43.4611659" lon="7.4444873"><ele>0.0</ele><time>2026-05-01T00:15:20.039Z</time></trkpt><trkpt lat="43.4612216" lon="7.4445741"><ele>0.0</ele><time>2026-05-01T00:15:21.039Z</time></trkpt><trkpt lat="43.4612753" lon="7.4446547"><ele>0.0</ele><time>2026-05-01T00:15:22.038Z</time></trkpt><trkpt lat="43.4613284" lon="7.4447499"><ele>0.0</ele><time>2026-05-01T00:15:23.039Z</time></trkpt><trkpt lat="43.4613771" lon="7.4448384"><ele>0.0</ele><time>2026-05-01T00:15:24.039Z</time></trkpt><trkpt lat="43.46143" lon="7.4449289"><ele>0.0</ele><time>2026-05-01T00:15:25.038Z</time></trkpt><trkpt lat="43.461481" lon="7.4450193"><ele>0.0</ele><time>2026-05-01T00:15:26.039Z</time></trkpt><trkpt lat="43.4615247" lon="7.4451052"><ele>0.0</ele><time>2026-05-01T00:15:27.038Z</time></trkpt><trkpt lat="43.4615737" lon="7.4451867"><ele>0.0</ele><time>2026-05-01T00:15:28.038Z</time></trkpt><trkpt lat="43.461678" lon="7.4453557"><ele>0.0</ele><time>2026-05-01T00:15:30.038Z</time></trkpt><trkpt lat="43.4617318" lon="7.4454436"><ele>0.0</ele><time>2026-05-01T00:15:31.038Z</time></trkpt><trkpt lat="43.4617879" lon="7.4455313"><ele>0.0</ele><time>2026-05-01T00:15:32.039Z</time></trkpt><trkpt lat="43.4618463" lon="7.4456211"><ele>0.0</ele><time>2026-05-01T00:15:33.039Z</time></trkpt><trkpt lat="43.4619002" lon="7.4457126"><ele>0.0</ele><time>2026-05-01T00:15:34.038Z</time></trkpt><trkpt lat="43.4619523" lon="7.4458019"><ele>0.0</ele><time>2026-05-01T00:15:35.039Z</time></trkpt><trkpt lat="43.4620054" lon="7.4458904"><ele>0.0</ele><time>2026-05-01T00:15:36.038Z</time></trkpt><trkpt lat="43.4620595" lon="7.4459787"><ele>0.0</ele><time>2026-05-01T00:15:37.038Z</time></trkpt><trkpt lat="43.4621108" lon="7.4460685"><ele>0.0</ele><time>2026-05-01T00:15:38.037Z</time></trkpt><trkpt lat="43.4621637" lon="7.4461595"><ele>0.0</ele><time>2026-05-01T00:15:39.038Z</time></trkpt><trkpt lat="43.4622123" lon="7.4462479"><ele>0.0</ele><time>2026-05-01T00:15:40.038Z</time></trkpt><trkpt lat="43.4622649" lon="7.4463338"><ele>0.0</ele><time>2026-05-01T00:15:41.038Z</time></trkpt><trkpt lat="43.4623268" lon="7.4464176"><ele>0.0</ele><time>2026-05-01T00:15:42.037Z</time></trkpt><trkpt lat="43.4624397" lon="7.4465765"><ele>0.0</ele><time>2026-05-01T00:15:44.038Z</time></trkpt><trkpt lat="43.4624951" lon="7.446653"><ele>0.0</ele><time>2026-05-01T00:15:45.037Z</time></trkpt><trkpt lat="43.4625485" lon="7.4467357"><ele>0.0</ele><time>2026-05-01T00:15:46.037Z</time></trkpt><trkpt lat="43.4626077" lon="7.4468161"><ele>0.0</ele><time>2026-05-01T00:15:47.037Z</time></trkpt><trkpt lat="43.4626601" lon="7.4468953"><ele>0.0</ele><time>2026-05-01T00:15:48.038Z</time></trkpt><trkpt lat="43.4627146" lon="7.4469708"><ele>0.0</ele><time>2026-05-01T00:15:49.038Z</time></trkpt><trkpt lat="43.4628247" lon="7.4471274"><ele>0.0</ele><time>2026-05-01T00:15:51.037Z</time></trkpt><trkpt lat="43.46288" lon="7.447201"><ele>0.0</ele><time>2026-05-01T00:15:52.037Z</time></trkpt><trkpt lat="43.4629306" lon="7.4472769"><ele>0.0</ele><time>2026-05-01T00:15:53.038Z</time></trkpt><trkpt lat="43.4629846" lon="7.4473575"><ele>0.0</ele><time>2026-05-01T00:15:54.037Z</time></trkpt><trkpt lat="43.4630384" lon="7.4474421"><ele>0.0</ele><time>2026-05-01T00:15:55.037Z</time></trkpt><trkpt lat="43.463093" lon="7.447526"><ele>0.0</ele><time>2026-05-01T00:15:56.038Z</time></trkpt><trkpt lat="43.4631468" lon="7.4476105"><ele>0.0</ele><time>2026-05-01T00:15:57.038Z</time></trkpt><trkpt lat="43.4632056" lon="7.4476983"><ele>0.0</ele><time>2026-05-01T00:15:58.037Z</time></trkpt><trkpt lat="43.4632631" lon="7.447784"><ele>0.0</ele><time>2026-05-01T00:15:59.037Z</time></trkpt><trkpt lat="43.4633207" lon="7.4478676"><ele>0.0</ele><time>2026-05-01T00:16:00.038Z</time></trkpt><trkpt lat="43.4633782" lon="7.447955"><ele>0.0</ele><time>2026-05-01T00:16:01.037Z</time></trkpt><trkpt lat="43.4634347" lon="7.4480366"><ele>0.0</ele><time>2026-05-01T00:16:02.037Z</time></trkpt><trkpt lat="43.4634913" lon="7.4481195"><ele>0.0</ele><time>2026-05-01T00:16:03.037Z</time></trkpt><trkpt lat="43.4635495" lon="7.4482082"><ele>0.0</ele><time>2026-05-01T00:16:04.037Z</time></trkpt><trkpt lat="43.4636042" lon="7.4482915"><ele>0.0</ele><time>2026-05-01T00:16:05.037Z</time></trkpt><trkpt lat="43.4636546" lon="7.4483701"><ele>0.0</ele><time>2026-05-01T00:16:06.037Z</time></trkpt><trkpt lat="43.4637055" lon="7.4484499"><ele>0.0</ele><time>2026-05-01T00:16:07.037Z</time></trkpt><trkpt lat="43.463757" lon="7.4485274"><ele>0.0</ele><time>2026-05-01T00:16:08.038Z</time></trkpt><trkpt lat="43.4638074" lon="7.4486004"><ele>0.0</ele><time>2026-05-01T00:16:09.037Z</time></trkpt><trkpt lat="43.463856" lon="7.4486781"><ele>0.0</ele><time>2026-05-01T00:16:10.037Z</time></trkpt><trkpt lat="43.4639612" lon="7.4488432"><ele>0.0</ele><time>2026-05-01T00:16:12.037Z</time></trkpt><trkpt lat="43.4640194" lon="7.4489306"><ele>0.0</ele><time>2026-05-01T00:16:13.038Z</time></trkpt><trkpt lat="43.4640751" lon="7.4490214"><ele>0.0</ele><time>2026-05-01T00:16:14.037Z</time></trkpt><trkpt lat="43.4641703" lon="7.4491969"><ele>0.0</ele><time>2026-05-01T00:16:16.038Z</time></trkpt><trkpt lat="43.4642211" lon="7.4492762"><ele>0.0</ele><time>2026-05-01T00:16:17.037Z</time></trkpt><trkpt lat="43.4642684" lon="7.4493581"><ele>0.0</ele><time>2026-05-01T00:16:18.037Z</time></trkpt><trkpt lat="43.4643215" lon="7.4494428"><ele>0.0</ele><time>2026-05-01T00:16:19.037Z</time></trkpt><trkpt lat="43.4643737" lon="7.4495308"><ele>0.0</ele><time>2026-05-01T00:16:20.037Z</time></trkpt><trkpt lat="43.4644258" lon="7.4496233"><ele>0.0</ele><time>2026-05-01T00:16:21.038Z</time></trkpt><trkpt lat="43.4644774" lon="7.4497078"><ele>0.0</ele><time>2026-05-01T00:16:22.038Z</time></trkpt><trkpt lat="43.4645319" lon="7.4497923"><ele>0.0</ele><time>2026-05-01T00:16:23.037Z</time></trkpt><trkpt lat="43.4645841" lon="7.449877"><ele>0.0</ele><time>2026-05-01T00:16:24.037Z</time></trkpt><trkpt lat="43.4646374" lon="7.449965"><ele>0.0</ele><time>2026-05-01T00:16:25.038Z</time></trkpt><trkpt lat="43.4646902" lon="7.4500478"><ele>0.0</ele><time>2026-05-01T00:16:26.037Z</time></trkpt><trkpt lat="43.4647464" lon="7.4501298"><ele>0.0</ele><time>2026-05-01T00:16:27.037Z</time></trkpt><trkpt lat="43.4648048" lon="7.4502131"><ele>0.0</ele><time>2026-05-01T00:16:28.037Z</time></trkpt><trkpt lat="43.4648637" lon="7.450295"><ele>0.0</ele><time>2026-05-01T00:16:29.037Z</time></trkpt><trkpt lat="43.4649216" lon="7.4503766"><ele>0.0</ele><time>2026-05-01T00:16:30.037Z</time></trkpt><trkpt lat="43.4649781" lon="7.45046"><ele>0.0</ele><time>2026-05-01T00:16:31.037Z</time></trkpt><trkpt lat="43.4650814" lon="7.4506231"><ele>0.0</ele><time>2026-05-01T00:16:33.038Z</time></trkpt><trkpt lat="43.4651328" lon="7.4507018"><ele>0.0</ele><time>2026-05-01T00:16:34.038Z</time></trkpt><trkpt lat="43.4651841" lon="7.4507816"><ele>0.0</ele><time>2026-05-01T00:16:35.038Z</time></trkpt><trkpt lat="43.4652406" lon="7.4508606"><ele>0.0</ele><time>2026-05-01T00:16:36.038Z</time></trkpt><trkpt lat="43.4653009" lon="7.4509405"><ele>0.0</ele><time>2026-05-01T00:16:37.038Z</time></trkpt><trkpt lat="43.4653611" lon="7.4510217"><ele>0.0</ele><time>2026-05-01T00:16:38.037Z</time></trkpt><trkpt lat="43.46542" lon="7.4511"><ele>0.0</ele><time>2026-05-01T00:16:39.038Z</time></trkpt><trkpt lat="43.4654756" lon="7.4511755"><ele>0.0</ele><time>2026-05-01T00:16:40.037Z</time></trkpt><trkpt lat="43.4655345" lon="7.4512687"><ele>0.0</ele><time>2026-05-01T00:16:41.037Z</time></trkpt><trkpt lat="43.4655872" lon="7.4513415"><ele>0.0</ele><time>2026-05-01T00:16:42.038Z</time></trkpt><trkpt lat="43.4656443" lon="7.4514173"><ele>0.0</ele><time>2026-05-01T00:16:43.037Z</time></trkpt><trkpt lat="43.4656999" lon="7.4514961"><ele>0.0</ele><time>2026-05-01T00:16:44.037Z</time></trkpt><trkpt lat="43.4657552" lon="7.4515748"><ele>0.0</ele><time>2026-05-01T00:16:45.038Z</time></trkpt><trkpt lat="43.4658115" lon="7.4516562"><ele>0.0</ele><time>2026-05-01T00:16:46.037Z</time></trkpt><trkpt lat="43.4658681" lon="7.4517407"><ele>0.0</ele><time>2026-05-01T00:16:47.038Z</time></trkpt><trkpt lat="43.4659275" lon="7.4518282"><ele>0.0</ele><time>2026-05-01T00:16:48.037Z</time></trkpt><trkpt lat="43.4659841" lon="7.4519138"><ele>0.0</ele><time>2026-05-01T00:16:49.038Z</time></trkpt><trkpt lat="43.4660306" lon="7.4519979"><ele>0.0</ele><time>2026-05-01T00:16:50.038Z</time></trkpt><trkpt lat="43.4660737" lon="7.452074"><ele>0.0</ele><time>2026-05-01T00:16:51.037Z</time></trkpt><trkpt lat="43.4661235" lon="7.4521536"><ele>0.0</ele><time>2026-05-01T00:16:52.037Z</time></trkpt><trkpt lat="43.466221" lon="7.4523187"><ele>0.0</ele><time>2026-05-01T00:16:54.037Z</time></trkpt><trkpt lat="43.4662694" lon="7.4524004"><ele>0.0</ele><time>2026-05-01T00:16:55.038Z</time></trkpt><trkpt lat="43.4663176" lon="7.4524817"><ele>0.0</ele><time>2026-05-01T00:16:56.037Z</time></trkpt><trkpt lat="43.4663717" lon="7.4525645"><ele>0.0</ele><time>2026-05-01T00:16:57.038Z</time></trkpt><trkpt lat="43.4664294" lon="7.4526516"><ele>0.0</ele><time>2026-05-01T00:16:58.037Z</time></trkpt><trkpt lat="43.4664906" lon="7.4527432"><ele>0.0</ele><time>2026-05-01T00:16:59.038Z</time></trkpt><trkpt lat="43.4665497" lon="7.4528325"><ele>0.0</ele><time>2026-05-01T00:17:00.038Z</time></trkpt><trkpt lat="43.4666036" lon="7.4529178"><ele>0.0</ele><time>2026-05-01T00:17:01.037Z</time></trkpt><trkpt lat="43.4666524" lon="7.453002"><ele>0.0</ele><time>2026-05-01T00:17:02.037Z</time></trkpt><trkpt lat="43.4667008" lon="7.4530836"><ele>0.0</ele><time>2026-05-01T00:17:03.038Z</time></trkpt><trkpt lat="43.4667528" lon="7.4531626"><ele>0.0</ele><time>2026-05-01T00:17:04.037Z</time></trkpt><trkpt lat="43.466811" lon="7.4532432"><ele>0.0</ele><time>2026-05-01T00:17:05.038Z</time></trkpt><trkpt lat="43.4668638" lon="7.4533363"><ele>0.0</ele><time>2026-05-01T00:17:06.037Z</time></trkpt><trkpt lat="43.466911" lon="7.4534252"><ele>0.0</ele><time>2026-05-01T00:17:07.037Z</time></trkpt><trkpt lat="43.4669605" lon="7.4535061"><ele>0.0</ele><time>2026-05-01T00:17:08.037Z</time></trkpt><trkpt lat="43.4670103" lon="7.4535948"><ele>0.0</ele><time>2026-05-01T00:17:09.037Z</time></trkpt><trkpt lat="43.4670645" lon="7.4536795"><ele>0.0</ele><time>2026-05-01T00:17:10.037Z</time></trkpt><trkpt lat="43.4671196" lon="7.4537601"><ele>0.0</ele><time>2026-05-01T00:17:11.038Z</time></trkpt><trkpt lat="43.467176" lon="7.4538471"><ele>0.0</ele><time>2026-05-01T00:17:12.037Z</time></trkpt><trkpt lat="43.46723" lon="7.4539422"><ele>0.0</ele><time>2026-05-01T00:17:13.038Z</time></trkpt><trkpt lat="43.4673401" lon="7.454115"><ele>0.0</ele><time>2026-05-01T00:17:15.037Z</time></trkpt><trkpt lat="43.4673965" lon="7.4541985"><ele>0.0</ele><time>2026-05-01T00:17:16.037Z</time></trkpt><trkpt lat="43.4674501" lon="7.454275"><ele>0.0</ele><time>2026-05-01T00:17:17.037Z</time></trkpt><trkpt lat="43.4675414" lon="7.4544216"><ele>0.0</ele><time>2026-05-01T00:17:19.038Z</time></trkpt><trkpt lat="43.4675927" lon="7.4544983"><ele>0.0</ele><time>2026-05-01T00:17:20.037Z</time></trkpt><trkpt lat="43.4676468" lon="7.4545816"><ele>0.0</ele><time>2026-05-01T00:17:21.038Z</time></trkpt><trkpt lat="43.4677014" lon="7.4546703"><ele>0.0</ele><time>2026-05-01T00:17:22.038Z</time></trkpt><trkpt lat="43.4677536" lon="7.4547561"><ele>0.0</ele><time>2026-05-01T00:17:23.037Z</time></trkpt><trkpt lat="43.4678067" lon="7.4548503"><ele>0.0</ele><time>2026-05-01T00:17:24.037Z</time></trkpt><trkpt lat="43.4678579" lon="7.4549408"><ele>0.0</ele><time>2026-05-01T00:17:25.037Z</time></trkpt><trkpt lat="43.467915" lon="7.4550284"><ele>0.0</ele><time>2026-05-01T00:17:26.037Z</time></trkpt><trkpt lat="43.46797" lon="7.4551156"><ele>0.0</ele><time>2026-05-01T00:17:27.038Z</time></trkpt><trkpt lat="43.4680189" lon="7.4552098"><ele>0.0</ele><time>2026-05-01T00:17:28.038Z</time></trkpt><trkpt lat="43.4680662" lon="7.4553051"><ele>0.0</ele><time>2026-05-01T00:17:29.037Z</time></trkpt><trkpt lat="43.4681127" lon="7.4554012"><ele>0.0</ele><time>2026-05-01T00:17:30.038Z</time></trkpt><trkpt lat="43.4681667" lon="7.4554961"><ele>0.0</ele><time>2026-05-01T00:17:31.038Z</time></trkpt><trkpt lat="43.4682174" lon="7.4555839"><ele>0.0</ele><time>2026-05-01T00:17:32.037Z</time></trkpt><trkpt lat="43.4682696" lon="7.4556725"><ele>0.0</ele><time>2026-05-01T00:17:33.037Z</time></trkpt><trkpt lat="43.4683221" lon="7.4557609"><ele>0.0</ele><time>2026-05-01T00:17:34.038Z</time></trkpt><trkpt lat="43.4684256" lon="7.4559326"><ele>0.0</ele><time>2026-05-01T00:17:36.037Z</time></trkpt><trkpt lat="43.468477" lon="7.4560167"><ele>0.0</ele><time>2026-05-01T00:17:37.038Z</time></trkpt><trkpt lat="43.468529" lon="7.4561"><ele>0.0</ele><time>2026-05-01T00:17:38.038Z</time></trkpt><trkpt lat="43.4685763" lon="7.4561805"><ele>0.0</ele><time>2026-05-01T00:17:39.037Z</time></trkpt><trkpt lat="43.4686255" lon="7.456264"><ele>0.0</ele><time>2026-05-01T00:17:40.037Z</time></trkpt><trkpt lat="43.4686736" lon="7.4563494"><ele>0.0</ele><time>2026-05-01T00:17:41.037Z</time></trkpt><trkpt lat="43.4687248" lon="7.4564349"><ele>0.0</ele><time>2026-05-01T00:17:42.037Z</time></trkpt><trkpt lat="43.4687767" lon="7.4565244"><ele>0.0</ele><time>2026-05-01T00:17:43.038Z</time></trkpt><trkpt lat="43.4688311" lon="7.4566164"><ele>0.0</ele><time>2026-05-01T00:17:44.038Z</time></trkpt><trkpt lat="43.4688891" lon="7.4567058"><ele>0.0</ele><time>2026-05-01T00:17:45.037Z</time></trkpt><trkpt lat="43.4689462" lon="7.4567931"><ele>0.0</ele><time>2026-05-01T00:17:46.038Z</time></trkpt><trkpt lat="43.4690016" lon="7.4568739"><ele>0.0</ele><time>2026-05-01T00:17:47.038Z</time></trkpt><trkpt lat="43.4690548" lon="7.4569557"><ele>0.0</ele><time>2026-05-01T00:17:48.038Z</time></trkpt><trkpt lat="43.4691078" lon="7.4570359"><ele>0.0</ele><time>2026-05-01T00:17:49.037Z</time></trkpt><trkpt lat="43.4692245" lon="7.4572022"><ele>0.0</ele><time>2026-05-01T00:17:51.037Z</time></trkpt><trkpt lat="43.4692782" lon="7.4572913"><ele>0.0</ele><time>2026-05-01T00:17:52.038Z</time></trkpt><trkpt lat="43.4693302" lon="7.457377"><ele>0.0</ele><time>2026-05-01T00:17:53.038Z</time></trkpt><trkpt lat="43.4693823" lon="7.4574626"><ele>0.0</ele><time>2026-05-01T00:17:54.038Z</time></trkpt><trkpt lat="43.4694274" lon="7.4575466"><ele>0.0</ele><time>2026-05-01T00:17:55.037Z</time></trkpt><trkpt lat="43.4695462" lon="7.4577064"><ele>0.0</ele><time>2026-05-01T00:17:57.037Z</time></trkpt><trkpt lat="43.4695958" lon="7.4577937"><ele>0.0</ele><time>2026-05-01T00:17:58.038Z</time></trkpt><trkpt lat="43.4696441" lon="7.4578781"><ele>0.0</ele><time>2026-05-01T00:17:59.037Z</time></trkpt><trkpt lat="43.4696927" lon="7.4579634"><ele>0.0</ele><time>2026-05-01T00:18:00.038Z</time></trkpt><trkpt lat="43.4697391" lon="7.4580468"><ele>0.0</ele><time>2026-05-01T00:18:01.037Z</time></trkpt><trkpt lat="43.4697856" lon="7.4581317"><ele>0.0</ele><time>2026-05-01T00:18:02.037Z</time></trkpt><trkpt lat="43.4698372" lon="7.4582135"><ele>0.0</ele><time>2026-05-01T00:18:03.037Z</time></trkpt><trkpt lat="43.4698956" lon="7.4582972"><ele>0.0</ele><time>2026-05-01T00:18:04.037Z</time></trkpt><trkpt lat="43.4699575" lon="7.458381"><ele>0.0</ele><time>2026-05-01T00:18:05.037Z</time></trkpt><trkpt lat="43.470013" lon="7.4584624"><ele>0.0</ele><time>2026-05-01T00:18:06.038Z</time></trkpt><trkpt lat="43.4700709" lon="7.4585439"><ele>0.0</ele><time>2026-05-01T00:18:07.038Z</time></trkpt><trkpt lat="43.4701251" lon="7.4586268"><ele>0.0</ele><time>2026-05-01T00:18:08.037Z</time></trkpt><trkpt lat="43.4701773" lon="7.4587033"><ele>0.0</ele><time>2026-05-01T00:18:09.037Z</time></trkpt><trkpt lat="43.4702261" lon="7.4587843"><ele>0.0</ele><time>2026-05-01T00:18:10.038Z</time></trkpt><trkpt lat="43.4702775" lon="7.4588643"><ele>0.0</ele><time>2026-05-01T00:18:11.038Z</time></trkpt><trkpt lat="43.4703276" lon="7.4589461"><ele>0.0</ele><time>2026-05-01T00:18:12.037Z</time></trkpt><trkpt lat="43.4703774" lon="7.4590277"><ele>0.0</ele><time>2026-05-01T00:18:13.037Z</time></trkpt><trkpt lat="43.4704232" lon="7.4591016"><ele>0.0</ele><time>2026-05-01T00:18:14.037Z</time></trkpt><trkpt lat="43.4704729" lon="7.4591767"><ele>0.0</ele><time>2026-05-01T00:18:15.037Z</time></trkpt><trkpt lat="43.4705211" lon="7.4592521"><ele>0.0</ele><time>2026-05-01T00:18:16.037Z</time></trkpt><trkpt lat="43.4706172" lon="7.4594055"><ele>0.0</ele><time>2026-05-01T00:18:18.037Z</time></trkpt><trkpt lat="43.4706709" lon="7.4594894"><ele>0.0</ele><time>2026-05-01T00:18:19.037Z</time></trkpt><trkpt lat="43.4707248" lon="7.4595796"><ele>0.0</ele><time>2026-05-01T00:18:20.038Z</time></trkpt><trkpt lat="43.4707796" lon="7.4596667"><ele>0.0</ele><time>2026-05-01T00:18:21.038Z</time></trkpt><trkpt lat="43.4708327" lon="7.4597559"><ele>0.0</ele><time>2026-05-01T00:18:22.038Z</time></trkpt><trkpt lat="43.4709374" lon="7.4599391"><ele>0.0</ele><time>2026-05-01T00:18:24.037Z</time></trkpt><trkpt lat="43.4709946" lon="7.4600303"><ele>0.0</ele><time>2026-05-01T00:18:25.037Z</time></trkpt><trkpt lat="43.471057" lon="7.4601216"><ele>0.0</ele><time>2026-05-01T00:18:26.038Z</time></trkpt><trkpt lat="43.4711203" lon="7.4602076"><ele>0.0</ele><time>2026-05-01T00:18:27.038Z</time></trkpt><trkpt lat="43.4711755" lon="7.4602901"><ele>0.0</ele><time>2026-05-01T00:18:28.037Z</time></trkpt><trkpt lat="43.4712313" lon="7.460377"><ele>0.0</ele><time>2026-05-01T00:18:29.038Z</time></trkpt><trkpt lat="43.4712894" lon="7.4604629"><ele>0.0</ele><time>2026-05-01T00:18:30.038Z</time></trkpt><trkpt lat="43.4713489" lon="7.4605498"><ele>0.0</ele><time>2026-05-01T00:18:31.038Z</time></trkpt><trkpt lat="43.4713994" lon="7.4606339"><ele>0.0</ele><time>2026-05-01T00:18:32.037Z</time></trkpt><trkpt lat="43.4714535" lon="7.4607245"><ele>0.0</ele><time>2026-05-01T00:18:33.038Z</time></trkpt><trkpt lat="43.4715068" lon="7.4608142"><ele>0.0</ele><time>2026-05-01T00:18:34.038Z</time></trkpt><trkpt lat="43.4715624" lon="7.4609014"><ele>0.0</ele><time>2026-05-01T00:18:35.037Z</time></trkpt><trkpt lat="43.4716179" lon="7.4609918"><ele>0.0</ele><time>2026-05-01T00:18:36.037Z</time></trkpt><trkpt lat="43.4716719" lon="7.4610771"><ele>0.0</ele><time>2026-05-01T00:18:37.038Z</time></trkpt><trkpt lat="43.4717844" lon="7.4612468"><ele>0.0</ele><time>2026-05-01T00:18:39.038Z</time></trkpt><trkpt lat="43.4718414" lon="7.4613279"><ele>0.0</ele><time>2026-05-01T00:18:40.037Z</time></trkpt><trkpt lat="43.4718996" lon="7.4614148"><ele>0.0</ele><time>2026-05-01T00:18:41.037Z</time></trkpt><trkpt lat="43.4719509" lon="7.4615002"><ele>0.0</ele><time>2026-05-01T00:18:42.037Z</time></trkpt><trkpt lat="43.4720018" lon="7.461581"><ele>0.0</ele><time>2026-05-01T00:18:43.038Z</time></trkpt><trkpt lat="43.4720495" lon="7.4616592"><ele>0.0</ele><time>2026-05-01T00:18:44.038Z</time></trkpt><trkpt lat="43.4721005" lon="7.461743"><ele>0.0</ele><time>2026-05-01T00:18:45.038Z</time></trkpt><trkpt lat="43.4721477" lon="7.4618238"><ele>0.0</ele><time>2026-05-01T00:18:46.037Z</time></trkpt><trkpt lat="43.4721959" lon="7.4619068"><ele>0.0</ele><time>2026-05-01T00:18:47.038Z</time></trkpt><trkpt lat="43.472247" lon="7.462001"><ele>0.0</ele><time>2026-05-01T00:18:48.038Z</time></trkpt><trkpt lat="43.4723012" lon="7.4620808"><ele>0.0</ele><time>2026-05-01T00:18:49.037Z</time></trkpt><trkpt lat="43.4723565" lon="7.4621554"><ele>0.0</ele><time>2026-05-01T00:18:50.038Z</time></trkpt><trkpt lat="43.472413" lon="7.4622328"><ele>0.0</ele><time>2026-05-01T00:18:51.037Z</time></trkpt><trkpt lat="43.4724623" lon="7.4623109"><ele>0.0</ele><time>2026-05-01T00:18:52.037Z</time></trkpt><trkpt lat="43.4725192" lon="7.4623939"><ele>0.0</ele><time>2026-05-01T00:18:53.037Z</time></trkpt><trkpt lat="43.4725761" lon="7.4624759"><ele>0.0</ele><time>2026-05-01T00:18:54.037Z</time></trkpt><trkpt lat="43.472628" lon="7.4625621"><ele>0.0</ele><time>2026-05-01T00:18:55.037Z</time></trkpt><trkpt lat="43.4727394" lon="7.4627355"><ele>0.0</ele><time>2026-05-01T00:18:57.037Z</time></trkpt><trkpt lat="43.4727921" lon="7.4628242"><ele>0.0</ele><time>2026-05-01T00:18:58.038Z</time></trkpt><trkpt lat="43.4728979" lon="7.462982"><ele>0.0</ele><time>2026-05-01T00:19:00.037Z</time></trkpt><trkpt lat="43.4729515" lon="7.4630588"><ele>0.0</ele><time>2026-05-01T00:19:01.038Z</time></trkpt><trkpt lat="43.4730111" lon="7.4631469"><ele>0.0</ele><time>2026-05-01T00:19:02.038Z</time></trkpt><trkpt lat="43.4730668" lon="7.4632328"><ele>0.0</ele><time>2026-05-01T00:19:03.037Z</time></trkpt><trkpt lat="43.4731206" lon="7.4633196"><ele>0.0</ele><time>2026-05-01T00:19:04.037Z</time></trkpt><trkpt lat="43.4731692" lon="7.4633945"><ele>0.0</ele><time>2026-05-01T00:19:05.037Z</time></trkpt><trkpt lat="43.4732172" lon="7.4634721"><ele>0.0</ele><time>2026-05-01T00:19:06.037Z</time></trkpt><trkpt lat="43.4732697" lon="7.4635533"><ele>0.0</ele><time>2026-05-01T00:19:07.037Z</time></trkpt><trkpt lat="43.4733228" lon="7.4636308"><ele>0.0</ele><time>2026-05-01T00:19:08.037Z</time></trkpt><trkpt lat="43.4733777" lon="7.4637124"><ele>0.0</ele><time>2026-05-01T00:19:09.038Z</time></trkpt><trkpt lat="43.4734763" lon="7.4638342"><ele>0.0</ele><time>2026-05-01T00:19:11.038Z</time></trkpt><trkpt lat="43.4735268" lon="7.4639066"><ele>0.0</ele><time>2026-05-01T00:19:12.037Z</time></trkpt><trkpt lat="43.4735815" lon="7.4640006"><ele>0.0</ele><time>2026-05-01T00:19:13.037Z</time></trkpt><trkpt lat="43.4736299" lon="7.4640973"><ele>0.0</ele><time>2026-05-01T00:19:14.038Z</time></trkpt><trkpt lat="43.4736852" lon="7.4641928"><ele>0.0</ele><time>2026-05-01T00:19:15.037Z</time></trkpt><trkpt lat="43.4737402" lon="7.464279"><ele>0.0</ele><time>2026-05-01T00:19:16.037Z</time></trkpt><trkpt lat="43.4737978" lon="7.464369"><ele>0.0</ele><time>2026-05-01T00:19:17.038Z</time></trkpt><trkpt lat="43.4738604" lon="7.464459"><ele>0.0</ele><time>2026-05-01T00:19:18.038Z</time></trkpt><trkpt lat="43.4739208" lon="7.4645534"><ele>0.0</ele><time>2026-05-01T00:19:19.038Z</time></trkpt><trkpt lat="43.4740242" lon="7.4647328"><ele>0.0</ele><time>2026-05-01T00:19:21.037Z</time></trkpt><trkpt lat="43.4740752" lon="7.4648154"><ele>0.0</ele><time>2026-05-01T00:19:22.037Z</time></trkpt><trkpt lat="43.4741283" lon="7.4649076"><ele>0.0</ele><time>2026-05-01T00:19:23.037Z</time></trkpt><trkpt lat="43.4741804" lon="7.4649898"><ele>0.0</ele><time>2026-05-01T00:19:24.038Z</time></trkpt><trkpt lat="43.4742306" lon="7.4650776"><ele>0.0</ele><time>2026-05-01T00:19:25.037Z</time></trkpt><trkpt lat="43.4742908" lon="7.4651717"><ele>0.0</ele><time>2026-05-01T00:19:26.038Z</time></trkpt><trkpt lat="43.4743479" lon="7.465257"><ele>0.0</ele><time>2026-05-01T00:19:27.038Z</time></trkpt><trkpt lat="43.4744041" lon="7.4653411"><ele>0.0</ele><time>2026-05-01T00:19:28.037Z</time></trkpt><trkpt lat="43.4745162" lon="7.4655067"><ele>0.0</ele><time>2026-05-01T00:19:30.037Z</time></trkpt><trkpt lat="43.474567" lon="7.4655906"><ele>0.0</ele><time>2026-05-01T00:19:31.038Z</time></trkpt><trkpt lat="43.474617" lon="7.4656756"><ele>0.0</ele><time>2026-05-01T00:19:32.037Z</time></trkpt><trkpt lat="43.4746656" lon="7.4657569"><ele>0.0</ele><time>2026-05-01T00:19:33.038Z</time></trkpt><trkpt lat="43.474722" lon="7.4658461"><ele>0.0</ele><time>2026-05-01T00:19:34.037Z</time></trkpt><trkpt lat="43.4747763" lon="7.465936"><ele>0.0</ele><time>2026-05-01T00:19:35.037Z</time></trkpt><trkpt lat="43.4748317" lon="7.4660258"><ele>0.0</ele><time>2026-05-01T00:19:36.038Z</time></trkpt><trkpt lat="43.4748824" lon="7.4661178"><ele>0.0</ele><time>2026-05-01T00:19:37.038Z</time></trkpt><trkpt lat="43.4749338" lon="7.4662038"><ele>0.0</ele><time>2026-05-01T00:19:38.038Z</time></trkpt><trkpt lat="43.4749822" lon="7.466285"><ele>0.0</ele><time>2026-05-01T00:19:39.037Z</time></trkpt><trkpt lat="43.4750321" lon="7.4663833"><ele>0.0</ele><time>2026-05-01T00:19:40.038Z</time></trkpt><trkpt lat="43.4751331" lon="7.4665574"><ele>0.0</ele><time>2026-05-01T00:19:42.038Z</time></trkpt><trkpt lat="43.4751904" lon="7.4666389"><ele>0.0</ele><time>2026-05-01T00:19:43.038Z</time></trkpt><trkpt lat="43.4752429" lon="7.466732"><ele>0.0</ele><time>2026-05-01T00:19:44.038Z</time></trkpt><trkpt lat="43.4752934" lon="7.4668231"><ele>0.0</ele><time>2026-05-01T00:19:45.038Z</time></trkpt><trkpt lat="43.4753436" lon="7.4669044"><ele>0.0</ele><time>2026-05-01T00:19:46.038Z</time></trkpt><trkpt lat="43.4753968" lon="7.4669867"><ele>0.0</ele><time>2026-05-01T00:19:47.038Z</time></trkpt><trkpt lat="43.4754489" lon="7.4670713"><ele>0.0</ele><time>2026-05-01T00:19:48.037Z</time></trkpt><trkpt lat="43.4755002" lon="7.4671563"><ele>0.0</ele><time>2026-05-01T00:19:49.038Z</time></trkpt><trkpt lat="43.4755529" lon="7.4672384"><ele>0.0</ele><time>2026-05-01T00:19:50.037Z</time></trkpt><trkpt lat="43.4756036" lon="7.467318"><ele>0.0</ele><time>2026-05-01T00:19:51.037Z</time></trkpt><trkpt lat="43.4756564" lon="7.4673993"><ele>0.0</ele><time>2026-05-01T00:19:52.038Z</time></trkpt><trkpt lat="43.4757109" lon="7.4674879"><ele>0.0</ele><time>2026-05-01T00:19:53.037Z</time></trkpt><trkpt lat="43.4757702" lon="7.4675769"><ele>0.0</ele><time>2026-05-01T00:19:54.037Z</time></trkpt><trkpt lat="43.4758251" lon="7.4676692"><ele>0.0</ele><time>2026-05-01T00:19:55.037Z</time></trkpt><trkpt lat="43.4758821" lon="7.4677564"><ele>0.0</ele><time>2026-05-01T00:19:56.038Z</time></trkpt><trkpt lat="43.4759369" lon="7.4678403"><ele>0.0</ele><time>2026-05-01T00:19:57.037Z</time></trkpt><trkpt lat="43.4759917" lon="7.4679202"><ele>0.0</ele><time>2026-05-01T00:19:58.037Z</time></trkpt><trkpt lat="43.4760437" lon="7.4679986"><ele>0.0</ele><time>2026-05-01T00:19:59.037Z</time></trkpt><trkpt lat="43.4760966" lon="7.4680754"><ele>0.0</ele><time>2026-05-01T00:20:00.037Z</time></trkpt><trkpt lat="43.4761459" lon="7.4681502"><ele>0.0</ele><time>2026-05-01T00:20:01.037Z</time></trkpt><trkpt lat="43.476302" lon="7.468392"><ele>0.0</ele><time>2026-05-01T00:20:04.037Z</time></trkpt><trkpt lat="43.4763593" lon="7.4684759"><ele>0.0</ele><time>2026-05-01T00:20:05.037Z</time></trkpt><trkpt lat="43.4764148" lon="7.468564"><ele>0.0</ele><time>2026-05-01T00:20:06.038Z</time></trkpt><trkpt lat="43.4764769" lon="7.468651"><ele>0.0</ele><time>2026-05-01T00:20:07.038Z</time></trkpt><trkpt lat="43.4765362" lon="7.4687382"><ele>0.0</ele><time>2026-05-01T00:20:08.038Z</time></trkpt><trkpt lat="43.4765944" lon="7.4688613"><ele>0.0</ele><time>2026-05-01T00:20:09.038Z</time></trkpt><trkpt lat="43.4766482" lon="7.4689554"><ele>0.0</ele><time>2026-05-01T00:20:10.038Z</time></trkpt><trkpt lat="43.4767004" lon="7.4690487"><ele>0.0</ele><time>2026-05-01T00:20:11.038Z</time></trkpt><trkpt lat="43.4767504" lon="7.4691387"><ele>0.0</ele><time>2026-05-01T00:20:12.037Z</time></trkpt><trkpt lat="43.4768002" lon="7.4692231"><ele>0.0</ele><time>2026-05-01T00:20:13.038Z</time></trkpt><trkpt lat="43.47685" lon="7.4693117"><ele>0.0</ele><time>2026-05-01T00:20:14.038Z</time></trkpt><trkpt lat="43.4769014" lon="7.4694092"><ele>0.0</ele><time>2026-05-01T00:20:15.037Z</time></trkpt><trkpt lat="43.4769507" lon="7.4694976"><ele>0.0</ele><time>2026-05-01T00:20:16.038Z</time></trkpt><trkpt lat="43.477006" lon="7.4695877"><ele>0.0</ele><time>2026-05-01T00:20:17.037Z</time></trkpt><trkpt lat="43.4770584" lon="7.4696806"><ele>0.0</ele><time>2026-05-01T00:20:18.038Z</time></trkpt><trkpt lat="43.4771115" lon="7.4697722"><ele>0.0</ele><time>2026-05-01T00:20:19.038Z</time></trkpt><trkpt lat="43.4771613" lon="7.4698636"><ele>0.0</ele><time>2026-05-01T00:20:20.037Z</time></trkpt><trkpt lat="43.4772113" lon="7.4699578"><ele>0.0</ele><time>2026-05-01T00:20:21.037Z</time></trkpt><trkpt lat="43.4772645" lon="7.4700489"><ele>0.0</ele><time>2026-05-01T00:20:22.038Z</time></trkpt><trkpt lat="43.4773178" lon="7.4701416"><ele>0.0</ele><time>2026-05-01T00:20:23.037Z</time></trkpt><trkpt lat="43.4774316" lon="7.4703449"><ele>0.0</ele><time>2026-05-01T00:20:25.037Z</time></trkpt><trkpt lat="43.4774835" lon="7.4704407"><ele>0.0</ele><time>2026-05-01T00:20:26.038Z</time></trkpt><trkpt lat="43.4775367" lon="7.4705287"><ele>0.0</ele><time>2026-05-01T00:20:27.037Z</time></trkpt><trkpt lat="43.477587" lon="7.470621"><ele>0.0</ele><time>2026-05-01T00:20:28.038Z</time></trkpt><trkpt lat="43.4776384" lon="7.4707029"><ele>0.0</ele><time>2026-05-01T00:20:29.038Z</time></trkpt><trkpt lat="43.4776876" lon="7.4707871"><ele>0.0</ele><time>2026-05-01T00:20:30.038Z</time></trkpt><trkpt lat="43.477737" lon="7.470872"><ele>0.0</ele><time>2026-05-01T00:20:31.038Z</time></trkpt><trkpt lat="43.4777885" lon="7.4709593"><ele>0.0</ele><time>2026-05-01T00:20:32.038Z</time></trkpt><trkpt lat="43.4778403" lon="7.4710439"><ele>0.0</ele><time>2026-05-01T00:20:33.038Z</time></trkpt><trkpt lat="43.4779384" lon="7.4712196"><ele>0.0</ele><time>2026-05-01T00:20:35.038Z</time></trkpt><trkpt lat="43.47799" lon="7.4713107"><ele>0.0</ele><time>2026-05-01T00:20:36.037Z</time></trkpt><trkpt lat="43.4780373" lon="7.4713986"><ele>0.0</ele><time>2026-05-01T00:20:37.037Z</time></trkpt><trkpt lat="43.4780852" lon="7.4714839"><ele>0.0</ele><time>2026-05-01T00:20:38.037Z</time></trkpt><trkpt lat="43.478131" lon="7.4715688"><ele>0.0</ele><time>2026-05-01T00:20:39.037Z</time></trkpt><trkpt lat="43.4781802" lon="7.4716564"><ele>0.0</ele><time>2026-05-01T00:20:40.037Z</time></trkpt><trkpt lat="43.4782287" lon="7.4717461"><ele>0.0</ele><time>2026-05-01T00:20:41.037Z</time></trkpt><trkpt lat="43.4782778" lon="7.471839"><ele>0.0</ele><time>2026-05-01T00:20:42.037Z</time></trkpt><trkpt lat="43.4783294" lon="7.4719307"><ele>0.0</ele><time>2026-05-01T00:20:43.036Z</time></trkpt><trkpt lat="43.4783812" lon="7.472019"><ele>0.0</ele><time>2026-05-01T00:20:44.036Z</time></trkpt><trkpt lat="43.4784873" lon="7.4721905"><ele>0.0</ele><time>2026-05-01T00:20:46.037Z</time></trkpt><trkpt lat="43.478534" lon="7.4722756"><ele>0.0</ele><time>2026-05-01T00:20:47.037Z</time></trkpt><trkpt lat="43.478585" lon="7.4723632"><ele>0.0</ele><time>2026-05-01T00:20:48.036Z</time></trkpt><trkpt lat="43.4786337" lon="7.4724528"><ele>0.0</ele><time>2026-05-01T00:20:49.037Z</time></trkpt><trkpt lat="43.4786848" lon="7.4725359"><ele>0.0</ele><time>2026-05-01T00:20:50.036Z</time></trkpt><trkpt lat="43.4787365" lon="7.4726204"><ele>0.0</ele><time>2026-05-01T00:20:51.036Z</time></trkpt><trkpt lat="43.4787851" lon="7.4727053"><ele>0.0</ele><time>2026-05-01T00:20:52.036Z</time></trkpt><trkpt lat="43.4788321" lon="7.4727898"><ele>0.0</ele><time>2026-05-01T00:20:53.036Z</time></trkpt><trkpt lat="43.4788758" lon="7.4728796"><ele>0.0</ele><time>2026-05-01T00:20:54.037Z</time></trkpt><trkpt lat="43.4789205" lon="7.4729629"><ele>0.0</ele><time>2026-05-01T00:20:55.037Z</time></trkpt><trkpt lat="43.4789642" lon="7.4730483"><ele>0.0</ele><time>2026-05-01T00:20:56.037Z</time></trkpt><trkpt lat="43.479009" lon="7.4731349"><ele>0.0</ele><time>2026-05-01T00:20:57.036Z</time></trkpt><trkpt lat="43.4790569" lon="7.4732226"><ele>0.0</ele><time>2026-05-01T00:20:58.036Z</time></trkpt><trkpt lat="43.479108" lon="7.4733057"><ele>0.0</ele><time>2026-05-01T00:20:59.037Z</time></trkpt><trkpt lat="43.4791656" lon="7.4733872"><ele>0.0</ele><time>2026-05-01T00:21:00.036Z</time></trkpt><trkpt lat="43.479221" lon="7.4734675"><ele>0.0</ele><time>2026-05-01T00:21:01.037Z</time></trkpt><trkpt lat="43.479276" lon="7.473553"><ele>0.0</ele><time>2026-05-01T00:21:02.036Z</time></trkpt><trkpt lat="43.4793309" lon="7.4736408"><ele>0.0</ele><time>2026-05-01T00:21:03.037Z</time></trkpt><trkpt lat="43.4793843" lon="7.473725"><ele>0.0</ele><time>2026-05-01T00:21:04.036Z</time></trkpt><trkpt lat="43.4794375" lon="7.4738112"><ele>0.0</ele><time>2026-05-01T00:21:05.036Z</time></trkpt><trkpt lat="43.4795934" lon="7.4740858"><ele>0.0</ele><time>2026-05-01T00:21:08.037Z</time></trkpt><trkpt lat="43.4796449" lon="7.4741831"><ele>0.0</ele><time>2026-05-01T00:21:09.037Z</time></trkpt><trkpt lat="43.4796964" lon="7.4742775"><ele>0.0</ele><time>2026-05-01T00:21:10.036Z</time></trkpt><trkpt lat="43.479747" lon="7.4743753"><ele>0.0</ele><time>2026-05-01T00:21:11.036Z</time></trkpt><trkpt lat="43.4797968" lon="7.4744737"><ele>0.0</ele><time>2026-05-01T00:21:12.036Z</time></trkpt><trkpt lat="43.4798467" lon="7.4745678"><ele>0.0</ele><time>2026-05-01T00:21:13.036Z</time></trkpt><trkpt lat="43.4798994" lon="7.4746626"><ele>0.0</ele><time>2026-05-01T00:21:14.037Z</time></trkpt><trkpt lat="43.4799516" lon="7.4747566"><ele>0.0</ele><time>2026-05-01T00:21:15.037Z</time></trkpt><trkpt lat="43.4800002" lon="7.4748455"><ele>0.0</ele><time>2026-05-01T00:21:16.037Z</time></trkpt><trkpt lat="43.4800514" lon="7.4749337"><ele>0.0</ele><time>2026-05-01T00:21:17.037Z</time></trkpt><trkpt lat="43.480106" lon="7.4750243"><ele>0.0</ele><time>2026-05-01T00:21:18.036Z</time></trkpt><trkpt lat="43.4801603" lon="7.4751133"><ele>0.0</ele><time>2026-05-01T00:21:19.037Z</time></trkpt><trkpt lat="43.4802117" lon="7.4752044"><ele>0.0</ele><time>2026-05-01T00:21:20.036Z</time></trkpt><trkpt lat="43.4802618" lon="7.4752901"><ele>0.0</ele><time>2026-05-01T00:21:21.036Z</time></trkpt><trkpt lat="43.4803161" lon="7.4753768"><ele>0.0</ele><time>2026-05-01T00:21:22.036Z</time></trkpt><trkpt lat="43.480367" lon="7.4754623"><ele>0.0</ele><time>2026-05-01T00:21:23.036Z</time></trkpt><trkpt lat="43.4804171" lon="7.4755484"><ele>0.0</ele><time>2026-05-01T00:21:24.036Z</time></trkpt><trkpt lat="43.4804657" lon="7.4756368"><ele>0.0</ele><time>2026-05-01T00:21:25.036Z</time></trkpt><trkpt lat="43.4805154" lon="7.4757235"><ele>0.0</ele><time>2026-05-01T00:21:26.037Z</time></trkpt><trkpt lat="43.4805626" lon="7.4758118"><ele>0.0</ele><time>2026-05-01T00:21:27.037Z</time></trkpt><trkpt lat="43.4806651" lon="7.4759867"><ele>0.0</ele><time>2026-05-01T00:21:29.036Z</time></trkpt><trkpt lat="43.4807153" lon="7.4760676"><ele>0.0</ele><time>2026-05-01T00:21:30.037Z</time></trkpt><trkpt lat="43.4807637" lon="7.4761544"><ele>0.0</ele><time>2026-05-01T00:21:31.036Z</time></trkpt><trkpt lat="43.4808135" lon="7.4762411"><ele>0.0</ele><time>2026-05-01T00:21:32.036Z</time></trkpt><trkpt lat="43.4808635" lon="7.4763292"><ele>0.0</ele><time>2026-05-01T00:21:33.037Z</time></trkpt><trkpt lat="43.4809107" lon="7.4764136"><ele>0.0</ele><time>2026-05-01T00:21:34.037Z</time></trkpt><trkpt lat="43.4809588" lon="7.4764972"><ele>0.0</ele><time>2026-05-01T00:21:35.037Z</time></trkpt><trkpt lat="43.4810128" lon="7.4765831"><ele>0.0</ele><time>2026-05-01T00:21:36.036Z</time></trkpt><trkpt lat="43.4810661" lon="7.4766702"><ele>0.0</ele><time>2026-05-01T00:21:37.037Z</time></trkpt><trkpt lat="43.4811736" lon="7.4768228"><ele>0.0</ele><time>2026-05-01T00:21:39.036Z</time></trkpt><trkpt lat="43.4812281" lon="7.4769049"><ele>0.0</ele><time>2026-05-01T00:21:40.036Z</time></trkpt><trkpt lat="43.4812771" lon="7.4769881"><ele>0.0</ele><time>2026-05-01T00:21:41.037Z</time></trkpt><trkpt lat="43.4813237" lon="7.4770775"><ele>0.0</ele><time>2026-05-01T00:21:42.037Z</time></trkpt><trkpt lat="43.4813731" lon="7.4771633"><ele>0.0</ele><time>2026-05-01T00:21:43.036Z</time></trkpt><trkpt lat="43.4814262" lon="7.4772419"><ele>0.0</ele><time>2026-05-01T00:21:44.036Z</time></trkpt><trkpt lat="43.4814783" lon="7.4773287"><ele>0.0</ele><time>2026-05-01T00:21:45.037Z</time></trkpt><trkpt lat="43.48153" lon="7.4774134"><ele>0.0</ele><time>2026-05-01T00:21:46.036Z</time></trkpt><trkpt lat="43.4815786" lon="7.4774965"><ele>0.0</ele><time>2026-05-01T00:21:47.036Z</time></trkpt><trkpt lat="43.4816285" lon="7.4775811"><ele>0.0</ele><time>2026-05-01T00:21:48.037Z</time></trkpt><trkpt lat="43.4817387" lon="7.4777678"><ele>0.0</ele><time>2026-05-01T00:21:50.037Z</time></trkpt><trkpt lat="43.4817905" lon="7.4778582"><ele>0.0</ele><time>2026-05-01T00:21:51.036Z</time></trkpt><trkpt lat="43.4818385" lon="7.4779506"><ele>0.0</ele><time>2026-05-01T00:21:52.037Z</time></trkpt><trkpt lat="43.4818881" lon="7.478044"><ele>0.0</ele><time>2026-05-01T00:21:53.036Z</time></trkpt><trkpt lat="43.4819428" lon="7.4781346"><ele>0.0</ele><time>2026-05-01T00:21:54.036Z</time></trkpt><trkpt lat="43.4819983" lon="7.4782215"><ele>0.0</ele><time>2026-05-01T00:21:55.037Z</time></trkpt><trkpt lat="43.4820563" lon="7.4783152"><ele>0.0</ele><time>2026-05-01T00:21:56.036Z</time></trkpt><trkpt lat="43.4821087" lon="7.4784017"><ele>0.0</ele><time>2026-05-01T00:21:57.037Z</time></trkpt><trkpt lat="43.4821572" lon="7.4784883"><ele>0.0</ele><time>2026-05-01T00:21:58.037Z</time></trkpt><trkpt lat="43.482204" lon="7.478576"><ele>0.0</ele><time>2026-05-01T00:21:59.037Z</time></trkpt><trkpt lat="43.4822507" lon="7.478673"><ele>0.0</ele><time>2026-05-01T00:22:00.037Z</time></trkpt><trkpt lat="43.4823018" lon="7.4787672"><ele>0.0</ele><time>2026-05-01T00:22:01.036Z</time></trkpt><trkpt lat="43.4823536" lon="7.4788612"><ele>0.0</ele><time>2026-05-01T00:22:02.036Z</time></trkpt><trkpt lat="43.482404" lon="7.4789519"><ele>0.0</ele><time>2026-05-01T00:22:03.037Z</time></trkpt><trkpt lat="43.4824565" lon="7.4790404"><ele>0.0</ele><time>2026-05-01T00:22:04.037Z</time></trkpt><trkpt lat="43.4825054" lon="7.4791226"><ele>0.0</ele><time>2026-05-01T00:22:05.037Z</time></trkpt><trkpt lat="43.4825534" lon="7.4792135"><ele>0.0</ele><time>2026-05-01T00:22:06.036Z</time></trkpt><trkpt lat="43.4826003" lon="7.4793014"><ele>0.0</ele><time>2026-05-01T00:22:07.037Z</time></trkpt><trkpt lat="43.4826485" lon="7.4793822"><ele>0.0</ele><time>2026-05-01T00:22:08.036Z</time></trkpt><trkpt lat="43.4826983" lon="7.4794664"><ele>0.0</ele><time>2026-05-01T00:22:09.037Z</time></trkpt><trkpt lat="43.4828559" lon="7.4797105"><ele>0.0</ele><time>2026-05-01T00:22:12.036Z</time></trkpt><trkpt lat="43.4829081" lon="7.4797938"><ele>0.0</ele><time>2026-05-01T00:22:13.037Z</time></trkpt><trkpt lat="43.4829604" lon="7.4798744"><ele>0.0</ele><time>2026-05-01T00:22:14.036Z</time></trkpt><trkpt lat="43.4830104" lon="7.4799544"><ele>0.0</ele><time>2026-05-01T00:22:15.036Z</time></trkpt><trkpt lat="43.483059" lon="7.4800359"><ele>0.0</ele><time>2026-05-01T00:22:16.037Z</time></trkpt><trkpt lat="43.48311" lon="7.4801185"><ele>0.0</ele><time>2026-05-01T00:22:17.036Z</time></trkpt><trkpt lat="43.4831605" lon="7.4802061"><ele>0.0</ele><time>2026-05-01T00:22:18.036Z</time></trkpt><trkpt lat="43.4832076" lon="7.4802945"><ele>0.0</ele><time>2026-05-01T00:22:19.036Z</time></trkpt><trkpt lat="43.4832554" lon="7.4803827"><ele>0.0</ele><time>2026-05-01T00:22:20.037Z</time></trkpt><trkpt lat="43.4833028" lon="7.4804681"><ele>0.0</ele><time>2026-05-01T00:22:21.037Z</time></trkpt><trkpt lat="43.4833506" lon="7.480556"><ele>0.0</ele><time>2026-05-01T00:22:22.037Z</time></trkpt><trkpt lat="43.4834003" lon="7.4806448"><ele>0.0</ele><time>2026-05-01T00:22:23.036Z</time></trkpt><trkpt lat="43.4834506" lon="7.4807328"><ele>0.0</ele><time>2026-05-01T00:22:24.036Z</time></trkpt><trkpt lat="43.483502" lon="7.4808199"><ele>0.0</ele><time>2026-05-01T00:22:25.036Z</time></trkpt><trkpt lat="43.4835522" lon="7.4809077"><ele>0.0</ele><time>2026-05-01T00:22:26.036Z</time></trkpt><trkpt lat="43.4836034" lon="7.480995"><ele>0.0</ele><time>2026-05-01T00:22:27.037Z</time></trkpt><trkpt lat="43.483654" lon="7.4810728"><ele>0.0</ele><time>2026-05-01T00:22:28.037Z</time></trkpt><trkpt lat="43.4837038" lon="7.481158"><ele>0.0</ele><time>2026-05-01T00:22:29.036Z</time></trkpt><trkpt lat="43.4837536" lon="7.4812451"><ele>0.0</ele><time>2026-05-01T00:22:30.036Z</time></trkpt><trkpt lat="43.4838035" lon="7.4813378"><ele>0.0</ele><time>2026-05-01T00:22:31.036Z</time></trkpt><trkpt lat="43.4839052" lon="7.4815193"><ele>0.0</ele><time>2026-05-01T00:22:33.036Z</time></trkpt><trkpt lat="43.4839536" lon="7.4816044"><ele>0.0</ele><time>2026-05-01T00:22:34.036Z</time></trkpt><trkpt lat="43.4840034" lon="7.4816957"><ele>0.0</ele><time>2026-05-01T00:22:35.037Z</time></trkpt><trkpt lat="43.4840533" lon="7.4817829"><ele>0.0</ele><time>2026-05-01T00:22:36.036Z</time></trkpt><trkpt lat="43.4841019" lon="7.481864"><ele>0.0</ele><time>2026-05-01T00:22:37.036Z</time></trkpt><trkpt lat="43.4841562" lon="7.4819479"><ele>0.0</ele><time>2026-05-01T00:22:38.036Z</time></trkpt><trkpt lat="43.484207" lon="7.4820355"><ele>0.0</ele><time>2026-05-01T00:22:39.036Z</time></trkpt><trkpt lat="43.4842607" lon="7.4821412"><ele>0.0</ele><time>2026-05-01T00:22:40.037Z</time></trkpt><trkpt lat="43.4843117" lon="7.4822324"><ele>0.0</ele><time>2026-05-01T00:22:41.036Z</time></trkpt><trkpt lat="43.4844134" lon="7.4824069"><ele>0.0</ele><time>2026-05-01T00:22:43.037Z</time></trkpt><trkpt lat="43.4844622" lon="7.4825002"><ele>0.0</ele><time>2026-05-01T00:22:44.036Z</time></trkpt><trkpt lat="43.4845148" lon="7.4825921"><ele>0.0</ele><time>2026-05-01T00:22:45.037Z</time></trkpt><trkpt lat="43.4845652" lon="7.4826813"><ele>0.0</ele><time>2026-05-01T00:22:46.037Z</time></trkpt><trkpt lat="43.4846154" lon="7.4827668"><ele>0.0</ele><time>2026-05-01T00:22:47.037Z</time></trkpt><trkpt lat="43.4846665" lon="7.4828517"><ele>0.0</ele><time>2026-05-01T00:22:48.036Z</time></trkpt><trkpt lat="43.4847125" lon="7.4829392"><ele>0.0</ele><time>2026-05-01T00:22:49.037Z</time></trkpt><trkpt lat="43.4847615" lon="7.4830223"><ele>0.0</ele><time>2026-05-01T00:22:50.036Z</time></trkpt><trkpt lat="43.4848082" lon="7.4831124"><ele>0.0</ele><time>2026-05-01T00:22:51.036Z</time></trkpt><trkpt lat="43.4848542" lon="7.4832032"><ele>0.0</ele><time>2026-05-01T00:22:52.037Z</time></trkpt><trkpt lat="43.4849565" lon="7.4833868"><ele>0.0</ele><time>2026-05-01T00:22:54.037Z</time></trkpt><trkpt lat="43.4850097" lon="7.4834819"><ele>0.0</ele><time>2026-05-01T00:22:55.037Z</time></trkpt><trkpt lat="43.4850617" lon="7.4835668"><ele>0.0</ele><time>2026-05-01T00:22:56.037Z</time></trkpt><trkpt lat="43.4851134" lon="7.4836482"><ele>0.0</ele><time>2026-05-01T00:22:57.036Z</time></trkpt><trkpt lat="43.4851636" lon="7.4837371"><ele>0.0</ele><time>2026-05-01T00:22:58.036Z</time></trkpt><trkpt lat="43.4852135" lon="7.4838295"><ele>0.0</ele><time>2026-05-01T00:22:59.036Z</time></trkpt><trkpt lat="43.4852606" lon="7.4839123"><ele>0.0</ele><time>2026-05-01T00:23:00.036Z</time></trkpt><trkpt lat="43.4853099" lon="7.4839935"><ele>0.0</ele><time>2026-05-01T00:23:01.036Z</time></trkpt><trkpt lat="43.4853628" lon="7.4840783"><ele>0.0</ele><time>2026-05-01T00:23:02.037Z</time></trkpt><trkpt lat="43.4854169" lon="7.4841605"><ele>0.0</ele><time>2026-05-01T00:23:03.036Z</time></trkpt><trkpt lat="43.4854685" lon="7.4842448"><ele>0.0</ele><time>2026-05-01T00:23:04.036Z</time></trkpt><trkpt lat="43.4855188" lon="7.4843326"><ele>0.0</ele><time>2026-05-01T00:23:05.036Z</time></trkpt><trkpt lat="43.485567" lon="7.4844215"><ele>0.0</ele><time>2026-05-01T00:23:06.036Z</time></trkpt><trkpt lat="43.4856171" lon="7.4845125"><ele>0.0</ele><time>2026-05-01T00:23:07.036Z</time></trkpt><trkpt lat="43.4856624" lon="7.4845997"><ele>0.0</ele><time>2026-05-01T00:23:08.036Z</time></trkpt><trkpt lat="43.4857107" lon="7.4846833"><ele>0.0</ele><time>2026-05-01T00:23:09.036Z</time></trkpt><trkpt lat="43.4857558" lon="7.4847723"><ele>0.0</ele><time>2026-05-01T00:23:10.036Z</time></trkpt><trkpt lat="43.4858021" lon="7.4848598"><ele>0.0</ele><time>2026-05-01T00:23:11.036Z</time></trkpt><trkpt lat="43.4858501" lon="7.4849479"><ele>0.0</ele><time>2026-05-01T00:23:12.036Z</time></trkpt><trkpt lat="43.4859002" lon="7.4850392"><ele>0.0</ele><time>2026-05-01T00:23:13.037Z</time></trkpt><trkpt lat="43.48595" lon="7.4851268"><ele>0.0</ele><time>2026-05-01T00:23:14.037Z</time></trkpt><trkpt lat="43.4860905" lon="7.4853906"><ele>0.0</ele><time>2026-05-01T00:23:17.037Z</time></trkpt><trkpt lat="43.4861359" lon="7.4854846"><ele>0.0</ele><time>2026-05-01T00:23:18.036Z</time></trkpt><trkpt lat="43.4861789" lon="7.4855784"><ele>0.0</ele><time>2026-05-01T00:23:19.036Z</time></trkpt><trkpt lat="43.4862266" lon="7.4856697"><ele>0.0</ele><time>2026-05-01T00:23:20.037Z</time></trkpt><trkpt lat="43.4862777" lon="7.4857587"><ele>0.0</ele><time>2026-05-01T00:23:21.037Z</time></trkpt><trkpt lat="43.4863281" lon="7.4858498"><ele>0.0</ele><time>2026-05-01T00:23:22.036Z</time></trkpt><trkpt lat="43.4863797" lon="7.4859425"><ele>0.0</ele><time>2026-05-01T00:23:23.036Z</time></trkpt><trkpt lat="43.4864301" lon="7.4860294"><ele>0.0</ele><time>2026-05-01T00:23:24.037Z</time></trkpt><trkpt lat="43.4864831" lon="7.4861131"><ele>0.0</ele><time>2026-05-01T00:23:25.036Z</time></trkpt><trkpt lat="43.4865378" lon="7.4861951"><ele>0.0</ele><time>2026-05-01T00:23:26.037Z</time></trkpt><trkpt lat="43.4865907" lon="7.4862784"><ele>0.0</ele><time>2026-05-01T00:23:27.037Z</time></trkpt><trkpt lat="43.4866419" lon="7.486363"><ele>0.0</ele><time>2026-05-01T00:23:28.037Z</time></trkpt><trkpt lat="43.4866932" lon="7.4864485"><ele>0.0</ele><time>2026-05-01T00:23:29.036Z</time></trkpt><trkpt lat="43.4867436" lon="7.486539"><ele>0.0</ele><time>2026-05-01T00:23:30.037Z</time></trkpt><trkpt lat="43.4867965" lon="7.4866235"><ele>0.0</ele><time>2026-05-01T00:23:31.037Z</time></trkpt><trkpt lat="43.4868471" lon="7.4867115"><ele>0.0</ele><time>2026-05-01T00:23:32.036Z</time></trkpt><trkpt lat="43.4868941" lon="7.4867942"><ele>0.0</ele><time>2026-05-01T00:23:33.037Z</time></trkpt><trkpt lat="43.4869432" lon="7.4868772"><ele>0.0</ele><time>2026-05-01T00:23:34.037Z</time></trkpt><trkpt lat="43.4869949" lon="7.4869631"><ele>0.0</ele><time>2026-05-01T00:23:35.037Z</time></trkpt><trkpt lat="43.4870452" lon="7.4870482"><ele>0.0</ele><time>2026-05-01T00:23:36.037Z</time></trkpt><trkpt lat="43.4871514" lon="7.4872223"><ele>0.0</ele><time>2026-05-01T00:23:38.037Z</time></trkpt><trkpt lat="43.4872074" lon="7.4873193"><ele>0.0</ele><time>2026-05-01T00:23:39.037Z</time></trkpt><trkpt lat="43.4872598" lon="7.4874091"><ele>0.0</ele><time>2026-05-01T00:23:40.037Z</time></trkpt><trkpt lat="43.487313" lon="7.487492"><ele>0.0</ele><time>2026-05-01T00:23:41.037Z</time></trkpt><trkpt lat="43.4873636" lon="7.4875708"><ele>0.0</ele><time>2026-05-01T00:23:42.037Z</time></trkpt><trkpt lat="43.487415" lon="7.4876489"><ele>0.0</ele><time>2026-05-01T00:23:43.036Z</time></trkpt><trkpt lat="43.4874637" lon="7.4877315"><ele>0.0</ele><time>2026-05-01T00:23:44.036Z</time></trkpt><trkpt lat="43.487516" lon="7.4878114"><ele>0.0</ele><time>2026-05-01T00:23:45.037Z</time></trkpt><trkpt lat="43.4875694" lon="7.4878897"><ele>0.0</ele><time>2026-05-01T00:23:46.037Z</time></trkpt><trkpt lat="43.4876704" lon="7.4880553"><ele>0.0</ele><time>2026-05-01T00:23:48.037Z</time></trkpt><trkpt lat="43.4877214" lon="7.4881395"><ele>0.0</ele><time>2026-05-01T00:23:49.037Z</time></trkpt><trkpt lat="43.4877701" lon="7.488229"><ele>0.0</ele><time>2026-05-01T00:23:50.037Z</time></trkpt><trkpt lat="43.4878202" lon="7.4883167"><ele>0.0</ele><time>2026-05-01T00:23:51.036Z</time></trkpt><trkpt lat="43.48787" lon="7.4884077"><ele>0.0</ele><time>2026-05-01T00:23:52.036Z</time></trkpt><trkpt lat="43.4879242" lon="7.4884936"><ele>0.0</ele><time>2026-05-01T00:23:53.036Z</time></trkpt><trkpt lat="43.4879766" lon="7.4885794"><ele>0.0</ele><time>2026-05-01T00:23:54.036Z</time></trkpt><trkpt lat="43.4880269" lon="7.4886709"><ele>0.0</ele><time>2026-05-01T00:23:55.036Z</time></trkpt><trkpt lat="43.488075" lon="7.4887597"><ele>0.0</ele><time>2026-05-01T00:23:56.037Z</time></trkpt><trkpt lat="43.4881264" lon="7.4888426"><ele>0.0</ele><time>2026-05-01T00:23:57.037Z</time></trkpt><trkpt lat="43.4882294" lon="7.4890144"><ele>0.0</ele><time>2026-05-01T00:23:59.036Z</time></trkpt><trkpt lat="43.4882805" lon="7.4891028"><ele>0.0</ele><time>2026-05-01T00:24:00.037Z</time></trkpt><trkpt lat="43.4883287" lon="7.4891897"><ele>0.0</ele><time>2026-05-01T00:24:01.037Z</time></trkpt><trkpt lat="43.4883772" lon="7.4892763"><ele>0.0</ele><time>2026-05-01T00:24:02.037Z</time></trkpt><trkpt lat="43.4884254" lon="7.4893617"><ele>0.0</ele><time>2026-05-01T00:24:03.036Z</time></trkpt><trkpt lat="43.4884766" lon="7.4894512"><ele>0.0</ele><time>2026-05-01T00:24:04.036Z</time></trkpt><trkpt lat="43.4885284" lon="7.4895423"><ele>0.0</ele><time>2026-05-01T00:24:05.036Z</time></trkpt><trkpt lat="43.4885798" lon="7.4896287"><ele>0.0</ele><time>2026-05-01T00:24:06.036Z</time></trkpt><trkpt lat="43.4886315" lon="7.4897102"><ele>0.0</ele><time>2026-05-01T00:24:07.037Z</time></trkpt><trkpt lat="43.4886829" lon="7.4897972"><ele>0.0</ele><time>2026-05-01T00:24:08.037Z</time></trkpt><trkpt lat="43.488729" lon="7.4898837"><ele>0.0</ele><time>2026-05-01T00:24:09.036Z</time></trkpt><trkpt lat="43.488779" lon="7.4899776"><ele>0.0</ele><time>2026-05-01T00:24:10.037Z</time></trkpt><trkpt lat="43.4888316" lon="7.4900582"><ele>0.0</ele><time>2026-05-01T00:24:11.037Z</time></trkpt><trkpt lat="43.4888848" lon="7.4901404"><ele>0.0</ele><time>2026-05-01T00:24:12.037Z</time></trkpt><trkpt lat="43.4889386" lon="7.4902246"><ele>0.0</ele><time>2026-05-01T00:24:13.036Z</time></trkpt><trkpt lat="43.4889918" lon="7.4903137"><ele>0.0</ele><time>2026-05-01T00:24:14.036Z</time></trkpt><trkpt lat="43.4890435" lon="7.4904039"><ele>0.0</ele><time>2026-05-01T00:24:15.037Z</time></trkpt><trkpt lat="43.4890977" lon="7.4904999"><ele>0.0</ele><time>2026-05-01T00:24:16.036Z</time></trkpt><trkpt lat="43.4891545" lon="7.4905964"><ele>0.0</ele><time>2026-05-01T00:24:17.036Z</time></trkpt><trkpt lat="43.4892085" lon="7.4906843"><ele>0.0</ele><time>2026-05-01T00:24:18.036Z</time></trkpt><trkpt lat="43.4893606" lon="7.4909434"><ele>0.0</ele><time>2026-05-01T00:24:21.037Z</time></trkpt><trkpt lat="43.4894086" lon="7.4910231"><ele>0.0</ele><time>2026-05-01T00:24:22.036Z</time></trkpt><trkpt lat="43.4894599" lon="7.4911062"><ele>0.0</ele><time>2026-05-01T00:24:23.037Z</time></trkpt><trkpt lat="43.4895117" lon="7.4911869"><ele>0.0</ele><time>2026-05-01T00:24:24.036Z</time></trkpt><trkpt lat="43.4895631" lon="7.491277"><ele>0.0</ele><time>2026-05-01T00:24:25.036Z</time></trkpt><trkpt lat="43.4896177" lon="7.4913672"><ele>0.0</ele><time>2026-05-01T00:24:26.036Z</time></trkpt><trkpt lat="43.4896704" lon="7.4914609"><ele>0.0</ele><time>2026-05-01T00:24:27.036Z</time></trkpt><trkpt lat="43.4897207" lon="7.4915458"><ele>0.0</ele><time>2026-05-01T00:24:28.037Z</time></trkpt><trkpt lat="43.4897689" lon="7.4916311"><ele>0.0</ele><time>2026-05-01T00:24:29.037Z</time></trkpt><trkpt lat="43.4898184" lon="7.4917105"><ele>0.0</ele><time>2026-05-01T00:24:30.037Z</time></trkpt><trkpt lat="43.4898672" lon="7.4918039"><ele>0.0</ele><time>2026-05-01T00:24:31.036Z</time></trkpt><trkpt lat="43.489917" lon="7.4918887"><ele>0.0</ele><time>2026-05-01T00:24:32.037Z</time></trkpt><trkpt lat="43.4899676" lon="7.4919716"><ele>0.0</ele><time>2026-05-01T00:24:33.036Z</time></trkpt><trkpt lat="43.4900158" lon="7.4920507"><ele>0.0</ele><time>2026-05-01T00:24:34.037Z</time></trkpt><trkpt lat="43.4900623" lon="7.4921332"><ele>0.0</ele><time>2026-05-01T00:24:35.037Z</time></trkpt><trkpt lat="43.4901119" lon="7.4922194"><ele>0.0</ele><time>2026-05-01T00:24:36.037Z</time></trkpt><trkpt lat="43.4901589" lon="7.4923064"><ele>0.0</ele><time>2026-05-01T00:24:37.036Z</time></trkpt><trkpt lat="43.4902082" lon="7.492393"><ele>0.0</ele><time>2026-05-01T00:24:38.036Z</time></trkpt><trkpt lat="43.4902586" lon="7.4924738"><ele>0.0</ele><time>2026-05-01T00:24:39.036Z</time></trkpt><trkpt lat="43.4903043" lon="7.4925565"><ele>0.0</ele><time>2026-05-01T00:24:40.036Z</time></trkpt><trkpt lat="43.4904052" lon="7.4927244"><ele>0.0</ele><time>2026-05-01T00:24:42.037Z</time></trkpt><trkpt lat="43.4904526" lon="7.4928069"><ele>0.0</ele><time>2026-05-01T00:24:43.036Z</time></trkpt><trkpt lat="43.4905045" lon="7.4929085"><ele>0.0</ele><time>2026-05-01T00:24:44.036Z</time></trkpt><trkpt lat="43.4905522" lon="7.4929949"><ele>0.0</ele><time>2026-05-01T00:24:45.036Z</time></trkpt><trkpt lat="43.4906004" lon="7.4930801"><ele>0.0</ele><time>2026-05-01T00:24:46.037Z</time></trkpt><trkpt lat="43.4906488" lon="7.4931669"><ele>0.0</ele><time>2026-05-01T00:24:47.037Z</time></trkpt><trkpt lat="43.4906997" lon="7.4932521"><ele>0.0</ele><time>2026-05-01T00:24:48.036Z</time></trkpt><trkpt lat="43.4907525" lon="7.4933368"><ele>0.0</ele><time>2026-05-01T00:24:49.036Z</time></trkpt><trkpt lat="43.4908062" lon="7.4934233"><ele>0.0</ele><time>2026-05-01T00:24:50.037Z</time></trkpt><trkpt lat="43.4908566" lon="7.4935116"><ele>0.0</ele><time>2026-05-01T00:24:51.036Z</time></trkpt><trkpt lat="43.4909095" lon="7.4935972"><ele>0.0</ele><time>2026-05-01T00:24:52.036Z</time></trkpt><trkpt lat="43.4909643" lon="7.4936825"><ele>0.0</ele><time>2026-05-01T00:24:53.036Z</time></trkpt><trkpt lat="43.4910209" lon="7.4937679"><ele>0.0</ele><time>2026-05-01T00:24:54.036Z</time></trkpt><trkpt lat="43.4910705" lon="7.4938554"><ele>0.0</ele><time>2026-05-01T00:24:55.037Z</time></trkpt><trkpt lat="43.4911173" lon="7.4939525"><ele>0.0</ele><time>2026-05-01T00:24:56.036Z</time></trkpt><trkpt lat="43.4911652" lon="7.4940417"><ele>0.0</ele><time>2026-05-01T00:24:57.037Z</time></trkpt><trkpt lat="43.4912165" lon="7.4941267"><ele>0.0</ele><time>2026-05-01T00:24:58.037Z</time></trkpt><trkpt lat="43.4912669" lon="7.4942141"><ele>0.0</ele><time>2026-05-01T00:24:59.037Z</time></trkpt><trkpt lat="43.4913137" lon="7.4943028"><ele>0.0</ele><time>2026-05-01T00:25:00.037Z</time></trkpt><trkpt lat="43.4913589" lon="7.4943902"><ele>0.0</ele><time>2026-05-01T00:25:01.037Z</time></trkpt><trkpt lat="43.4914534" lon="7.494573"><ele>0.0</ele><time>2026-05-01T00:25:03.037Z</time></trkpt><trkpt lat="43.4915021" lon="7.4946619"><ele>0.0</ele><time>2026-05-01T00:25:04.037Z</time></trkpt><trkpt lat="43.4915503" lon="7.4947449"><ele>0.0</ele><time>2026-05-01T00:25:05.037Z</time></trkpt><trkpt lat="43.4916001" lon="7.4948269"><ele>0.0</ele><time>2026-05-01T00:25:06.037Z</time></trkpt><trkpt lat="43.4916515" lon="7.4949084"><ele>0.0</ele><time>2026-05-01T00:25:07.036Z</time></trkpt><trkpt lat="43.4917033" lon="7.4949916"><ele>0.0</ele><time>2026-05-01T00:25:08.036Z</time></trkpt><trkpt lat="43.4917545" lon="7.4950725"><ele>0.0</ele><time>2026-05-01T00:25:09.036Z</time></trkpt><trkpt lat="43.4918049" lon="7.4951549"><ele>0.0</ele><time>2026-05-01T00:25:10.036Z</time></trkpt><trkpt lat="43.4918509" lon="7.4952417"><ele>0.0</ele><time>2026-05-01T00:25:11.037Z</time></trkpt><trkpt lat="43.4918983" lon="7.4953222"><ele>0.0</ele><time>2026-05-01T00:25:12.037Z</time></trkpt><trkpt lat="43.4919441" lon="7.4954092"><ele>0.0</ele><time>2026-05-01T00:25:13.036Z</time></trkpt><trkpt lat="43.4920006" lon="7.495495"><ele>0.0</ele><time>2026-05-01T00:25:14.037Z</time></trkpt><trkpt lat="43.492053" lon="7.4955829"><ele>0.0</ele><time>2026-05-01T00:25:15.036Z</time></trkpt><trkpt lat="43.4921047" lon="7.4956697"><ele>0.0</ele><time>2026-05-01T00:25:16.036Z</time></trkpt><trkpt lat="43.4921564" lon="7.4957534"><ele>0.0</ele><time>2026-05-01T00:25:17.037Z</time></trkpt><trkpt lat="43.4922125" lon="7.4958436"><ele>0.0</ele><time>2026-05-01T00:25:18.036Z</time></trkpt><trkpt lat="43.4922649" lon="7.4959355"><ele>0.0</ele><time>2026-05-01T00:25:19.036Z</time></trkpt><trkpt lat="43.4923193" lon="7.4960193"><ele>0.0</ele><time>2026-05-01T00:25:20.037Z</time></trkpt><trkpt lat="43.4923714" lon="7.4961055"><ele>0.0</ele><time>2026-05-01T00:25:21.037Z</time></trkpt><trkpt lat="43.4924234" lon="7.4961921"><ele>0.0</ele><time>2026-05-01T00:25:22.036Z</time></trkpt><trkpt lat="43.4925752" lon="7.4964522"><ele>0.0</ele><time>2026-05-01T00:25:25.037Z</time></trkpt><trkpt lat="43.4926278" lon="7.4965385"><ele>0.0</ele><time>2026-05-01T00:25:26.036Z</time></trkpt><trkpt lat="43.4926814" lon="7.4966263"><ele>0.0</ele><time>2026-05-01T00:25:27.037Z</time></trkpt><trkpt lat="43.492732" lon="7.4967123"><ele>0.0</ele><time>2026-05-01T00:25:28.037Z</time></trkpt><trkpt lat="43.4927819" lon="7.4968022"><ele>0.0</ele><time>2026-05-01T00:25:29.036Z</time></trkpt><trkpt lat="43.4928293" lon="7.4968899"><ele>0.0</ele><time>2026-05-01T00:25:30.036Z</time></trkpt><trkpt lat="43.4928786" lon="7.4969823"><ele>0.0</ele><time>2026-05-01T00:25:31.036Z</time></trkpt><trkpt lat="43.4929283" lon="7.4970671"><ele>0.0</ele><time>2026-05-01T00:25:32.036Z</time></trkpt><trkpt lat="43.4929785" lon="7.4971484"><ele>0.0</ele><time>2026-05-01T00:25:33.036Z</time></trkpt><trkpt lat="43.4930272" lon="7.4972346"><ele>0.0</ele><time>2026-05-01T00:25:34.036Z</time></trkpt><trkpt lat="43.4930773" lon="7.4973222"><ele>0.0</ele><time>2026-05-01T00:25:35.037Z</time></trkpt><trkpt lat="43.493126" lon="7.4974153"><ele>0.0</ele><time>2026-05-01T00:25:36.036Z</time></trkpt><trkpt lat="43.4931708" lon="7.4975092"><ele>0.0</ele><time>2026-05-01T00:25:37.036Z</time></trkpt><trkpt lat="43.4932186" lon="7.4976026"><ele>0.0</ele><time>2026-05-01T00:25:38.036Z</time></trkpt><trkpt lat="43.4932672" lon="7.4976915"><ele>0.0</ele><time>2026-05-01T00:25:39.037Z</time></trkpt><trkpt lat="43.4933168" lon="7.4977781"><ele>0.0</ele><time>2026-05-01T00:25:40.037Z</time></trkpt><trkpt lat="43.4933669" lon="7.4978636"><ele>0.0</ele><time>2026-05-01T00:25:41.037Z</time></trkpt><trkpt lat="43.493417" lon="7.4979461"><ele>0.0</ele><time>2026-05-01T00:25:42.036Z</time></trkpt><trkpt lat="43.4934682" lon="7.4980275"><ele>0.0</ele><time>2026-05-01T00:25:43.037Z</time></trkpt><trkpt lat="43.4935243" lon="7.4981078"><ele>0.0</ele><time>2026-05-01T00:25:44.037Z</time></trkpt><trkpt lat="43.4936268" lon="7.4982808"><ele>0.0</ele><time>2026-05-01T00:25:46.036Z</time></trkpt><trkpt lat="43.493677" lon="7.4983691"><ele>0.0</ele><time>2026-05-01T00:25:47.035Z</time></trkpt><trkpt lat="43.4937241" lon="7.4984585"><ele>0.0</ele><time>2026-05-01T00:25:48.035Z</time></trkpt><trkpt lat="43.4937737" lon="7.4985425"><ele>0.0</ele><time>2026-05-01T00:25:49.036Z</time></trkpt><trkpt lat="43.4938236" lon="7.4986295"><ele>0.0</ele><time>2026-05-01T00:25:50.035Z</time></trkpt><trkpt lat="43.4938753" lon="7.4987153"><ele>0.0</ele><time>2026-05-01T00:25:51.036Z</time></trkpt><trkpt lat="43.4939238" lon="7.4987985"><ele>0.0</ele><time>2026-05-01T00:25:52.036Z</time></trkpt><trkpt lat="43.4939776" lon="7.4988717"><ele>0.0</ele><time>2026-05-01T00:25:53.036Z</time></trkpt><trkpt lat="43.4940299" lon="7.4989534"><ele>0.0</ele><time>2026-05-01T00:25:54.035Z</time></trkpt><trkpt lat="43.4940828" lon="7.4990394"><ele>0.0</ele><time>2026-05-01T00:25:55.035Z</time></trkpt><trkpt lat="43.4941868" lon="7.4992091"><ele>0.0</ele><time>2026-05-01T00:25:57.036Z</time></trkpt><trkpt lat="43.4942383" lon="7.499299"><ele>0.0</ele><time>2026-05-01T00:25:58.035Z</time></trkpt><trkpt lat="43.4942902" lon="7.4993908"><ele>0.0</ele><time>2026-05-01T00:25:59.035Z</time></trkpt><trkpt lat="43.4943419" lon="7.4994782"><ele>0.0</ele><time>2026-05-01T00:26:00.036Z</time></trkpt><trkpt lat="43.494392" lon="7.4995632"><ele>0.0</ele><time>2026-05-01T00:26:01.036Z</time></trkpt><trkpt lat="43.4944405" lon="7.4996511"><ele>0.0</ele><time>2026-05-01T00:26:02.035Z</time></trkpt><trkpt lat="43.4944875" lon="7.4997378"><ele>0.0</ele><time>2026-05-01T00:26:03.035Z</time></trkpt><trkpt lat="43.4945355" lon="7.4998221"><ele>0.0</ele><time>2026-05-01T00:26:04.036Z</time></trkpt><trkpt lat="43.4946335" lon="7.4999889"><ele>0.0</ele><time>2026-05-01T00:26:06.036Z</time></trkpt><trkpt lat="43.4946816" lon="7.5000686"><ele>0.0</ele><time>2026-05-01T00:26:07.035Z</time></trkpt><trkpt lat="43.4947299" lon="7.5001531"><ele>0.0</ele><time>2026-05-01T00:26:08.035Z</time></trkpt><trkpt lat="43.4947784" lon="7.5002367"><ele>0.0</ele><time>2026-05-01T00:26:09.036Z</time></trkpt><trkpt lat="43.4948315" lon="7.5003199"><ele>0.0</ele><time>2026-05-01T00:26:10.035Z</time></trkpt><trkpt lat="43.4948849" lon="7.500409"><ele>0.0</ele><time>2026-05-01T00:26:11.035Z</time></trkpt><trkpt lat="43.4949369" lon="7.5004979"><ele>0.0</ele><time>2026-05-01T00:26:12.035Z</time></trkpt><trkpt lat="43.4949854" lon="7.5005849"><ele>0.0</ele><time>2026-05-01T00:26:13.035Z</time></trkpt><trkpt lat="43.4950323" lon="7.5006733"><ele>0.0</ele><time>2026-05-01T00:26:14.036Z</time></trkpt><trkpt lat="43.4950805" lon="7.500761"><ele>0.0</ele><time>2026-05-01T00:26:15.036Z</time></trkpt><trkpt lat="43.4951259" lon="7.500851"><ele>0.0</ele><time>2026-05-01T00:26:16.035Z</time></trkpt><trkpt lat="43.4951765" lon="7.5009336"><ele>0.0</ele><time>2026-05-01T00:26:17.035Z</time></trkpt><trkpt lat="43.4952279" lon="7.5010196"><ele>0.0</ele><time>2026-05-01T00:26:18.036Z</time></trkpt><trkpt lat="43.4952682" lon="7.5011035"><ele>0.0</ele><time>2026-05-01T00:26:19.035Z</time></trkpt><trkpt lat="43.4953194" lon="7.5011888"><ele>0.0</ele><time>2026-05-01T00:26:20.036Z</time></trkpt><trkpt lat="43.4953639" lon="7.5012756"><ele>0.0</ele><time>2026-05-01T00:26:21.036Z</time></trkpt><trkpt lat="43.4954092" lon="7.5013622"><ele>0.0</ele><time>2026-05-01T00:26:22.036Z</time></trkpt><trkpt lat="43.4954554" lon="7.5014552"><ele>0.0</ele><time>2026-05-01T00:26:23.035Z</time></trkpt><trkpt lat="43.4955133" lon="7.5015513"><ele>0.0</ele><time>2026-05-01T00:26:24.036Z</time></trkpt><trkpt lat="43.4955651" lon="7.501647"><ele>0.0</ele><time>2026-05-01T00:26:25.036Z</time></trkpt><trkpt lat="43.4956665" lon="7.5018335"><ele>0.0</ele><time>2026-05-01T00:26:27.035Z</time></trkpt><trkpt lat="43.4957141" lon="7.5019297"><ele>0.0</ele><time>2026-05-01T00:26:28.035Z</time></trkpt><trkpt lat="43.4958117" lon="7.5021029"><ele>0.0</ele><time>2026-05-01T00:26:30.035Z</time></trkpt><trkpt lat="43.4958616" lon="7.5021783"><ele>0.0</ele><time>2026-05-01T00:26:31.035Z</time></trkpt><trkpt lat="43.495916" lon="7.5022508"><ele>0.0</ele><time>2026-05-01T00:26:32.036Z</time></trkpt><trkpt lat="43.4959667" lon="7.5023283"><ele>0.0</ele><time>2026-05-01T00:26:33.035Z</time></trkpt><trkpt lat="43.4960176" lon="7.5024068"><ele>0.0</ele><time>2026-05-01T00:26:34.035Z</time></trkpt><trkpt lat="43.4960714" lon="7.5024876"><ele>0.0</ele><time>2026-05-01T00:26:35.036Z</time></trkpt><trkpt lat="43.4961237" lon="7.5025697"><ele>0.0</ele><time>2026-05-01T00:26:36.036Z</time></trkpt><trkpt lat="43.4961753" lon="7.5026517"><ele>0.0</ele><time>2026-05-01T00:26:37.036Z</time></trkpt><trkpt lat="43.4962284" lon="7.5027363"><ele>0.0</ele><time>2026-05-01T00:26:38.035Z</time></trkpt><trkpt lat="43.4962802" lon="7.5028214"><ele>0.0</ele><time>2026-05-01T00:26:39.035Z</time></trkpt><trkpt lat="43.4963301" lon="7.5029082"><ele>0.0</ele><time>2026-05-01T00:26:40.035Z</time></trkpt><trkpt lat="43.4963802" lon="7.5029931"><ele>0.0</ele><time>2026-05-01T00:26:41.036Z</time></trkpt><trkpt lat="43.4964318" lon="7.5030751"><ele>0.0</ele><time>2026-05-01T00:26:42.036Z</time></trkpt><trkpt lat="43.4964848" lon="7.5031611"><ele>0.0</ele><time>2026-05-01T00:26:43.036Z</time></trkpt><trkpt lat="43.4965369" lon="7.5032497"><ele>0.0</ele><time>2026-05-01T00:26:44.036Z</time></trkpt><trkpt lat="43.4965869" lon="7.5033368"><ele>0.0</ele><time>2026-05-01T00:26:45.035Z</time></trkpt><trkpt lat="43.4966339" lon="7.5034273"><ele>0.0</ele><time>2026-05-01T00:26:46.035Z</time></trkpt><trkpt lat="43.4967287" lon="7.5036097"><ele>0.0</ele><time>2026-05-01T00:26:48.035Z</time></trkpt><trkpt lat="43.4967783" lon="7.5036976"><ele>0.0</ele><time>2026-05-01T00:26:49.036Z</time></trkpt><trkpt lat="43.4968256" lon="7.5037891"><ele>0.0</ele><time>2026-05-01T00:26:50.035Z</time></trkpt><trkpt lat="43.4968734" lon="7.5038791"><ele>0.0</ele><time>2026-05-01T00:26:51.036Z</time></trkpt><trkpt lat="43.4969219" lon="7.5039722"><ele>0.0</ele><time>2026-05-01T00:26:52.036Z</time></trkpt><trkpt lat="43.4969733" lon="7.5040656"><ele>0.0</ele><time>2026-05-01T00:26:53.035Z</time></trkpt><trkpt lat="43.497023" lon="7.5041548"><ele>0.0</ele><time>2026-05-01T00:26:54.035Z</time></trkpt><trkpt lat="43.4970777" lon="7.5042422"><ele>0.0</ele><time>2026-05-01T00:26:55.035Z</time></trkpt><trkpt lat="43.4971345" lon="7.5043321"><ele>0.0</ele><time>2026-05-01T00:26:56.036Z</time></trkpt><trkpt lat="43.4971888" lon="7.5044209"><ele>0.0</ele><time>2026-05-01T00:26:57.035Z</time></trkpt><trkpt lat="43.497239" lon="7.5045052"><ele>0.0</ele><time>2026-05-01T00:26:58.035Z</time></trkpt><trkpt lat="43.4972884" lon="7.5045886"><ele>0.0</ele><time>2026-05-01T00:26:59.036Z</time></trkpt><trkpt lat="43.4973386" lon="7.5046763"><ele>0.0</ele><time>2026-05-01T00:27:00.035Z</time></trkpt><trkpt lat="43.4973873" lon="7.5047621"><ele>0.0</ele><time>2026-05-01T00:27:01.036Z</time></trkpt><trkpt lat="43.4974872" lon="7.504934"><ele>0.0</ele><time>2026-05-01T00:27:03.036Z</time></trkpt><trkpt lat="43.4975374" lon="7.5050181"><ele>0.0</ele><time>2026-05-01T00:27:04.035Z</time></trkpt><trkpt lat="43.497583" lon="7.5050933"><ele>0.0</ele><time>2026-05-01T00:27:05.036Z</time></trkpt><trkpt lat="43.4976308" lon="7.5051666"><ele>0.0</ele><time>2026-05-01T00:27:06.036Z</time></trkpt><trkpt lat="43.4977337" lon="7.5053328"><ele>0.0</ele><time>2026-05-01T00:27:08.035Z</time></trkpt><trkpt lat="43.4977823" lon="7.5054147"><ele>0.0</ele><time>2026-05-01T00:27:09.036Z</time></trkpt><trkpt lat="43.4978287" lon="7.5054981"><ele>0.0</ele><time>2026-05-01T00:27:10.036Z</time></trkpt><trkpt lat="43.4978699" lon="7.5055847"><ele>0.0</ele><time>2026-05-01T00:27:11.035Z</time></trkpt><trkpt lat="43.4979113" lon="7.5056742"><ele>0.0</ele><time>2026-05-01T00:27:12.036Z</time></trkpt><trkpt lat="43.4979604" lon="7.5057639"><ele>0.0</ele><time>2026-05-01T00:27:13.035Z</time></trkpt><trkpt lat="43.4980106" lon="7.5058525"><ele>0.0</ele><time>2026-05-01T00:27:14.035Z</time></trkpt><trkpt lat="43.4980607" lon="7.5059408"><ele>0.0</ele><time>2026-05-01T00:27:15.035Z</time></trkpt><trkpt lat="43.4981106" lon="7.5060321"><ele>0.0</ele><time>2026-05-01T00:27:16.036Z</time></trkpt><trkpt lat="43.49817" lon="7.5061227"><ele>0.0</ele><time>2026-05-01T00:27:17.035Z</time></trkpt><trkpt lat="43.4982266" lon="7.5062076"><ele>0.0</ele><time>2026-05-01T00:27:18.035Z</time></trkpt><trkpt lat="43.4982801" lon="7.5062915"><ele>0.0</ele><time>2026-05-01T00:27:19.035Z</time></trkpt><trkpt lat="43.498332" lon="7.506373"><ele>0.0</ele><time>2026-05-01T00:27:20.035Z</time></trkpt><trkpt lat="43.4983831" lon="7.5064606"><ele>0.0</ele><time>2026-05-01T00:27:21.035Z</time></trkpt><trkpt lat="43.4984337" lon="7.5065477"><ele>0.0</ele><time>2026-05-01T00:27:22.036Z</time></trkpt><trkpt lat="43.4984849" lon="7.5066376"><ele>0.0</ele><time>2026-05-01T00:27:23.035Z</time></trkpt><trkpt lat="43.4985382" lon="7.5067225"><ele>0.0</ele><time>2026-05-01T00:27:24.035Z</time></trkpt><trkpt lat="43.4985915" lon="7.506807"><ele>0.0</ele><time>2026-05-01T00:27:25.036Z</time></trkpt><trkpt lat="43.4986463" lon="7.5068916"><ele>0.0</ele><time>2026-05-01T00:27:26.035Z</time></trkpt><trkpt lat="43.4986955" lon="7.5069752"><ele>0.0</ele><time>2026-05-01T00:27:27.036Z</time></trkpt><trkpt lat="43.4987972" lon="7.5071444"><ele>0.0</ele><time>2026-05-01T00:27:29.036Z</time></trkpt><trkpt lat="43.4988454" lon="7.507231"><ele>0.0</ele><time>2026-05-01T00:27:30.036Z</time></trkpt><trkpt lat="43.4988979" lon="7.5073222"><ele>0.0</ele><time>2026-05-01T00:27:31.035Z</time></trkpt><trkpt lat="43.4989474" lon="7.5074147"><ele>0.0</ele><time>2026-05-01T00:27:32.035Z</time></trkpt><trkpt lat="43.4989928" lon="7.5075032"><ele>0.0</ele><time>2026-05-01T00:27:33.036Z</time></trkpt><trkpt lat="43.4990409" lon="7.5075915"><ele>0.0</ele><time>2026-05-01T00:27:34.036Z</time></trkpt><trkpt lat="43.4991244" lon="7.5077546"><ele>0.0</ele><time>2026-05-01T00:27:36.036Z</time></trkpt><trkpt lat="43.4991735" lon="7.5078401"><ele>0.0</ele><time>2026-05-01T00:27:37.035Z</time></trkpt><trkpt lat="43.4992208" lon="7.5079298"><ele>0.0</ele><time>2026-05-01T00:27:38.035Z</time></trkpt><trkpt lat="43.4992731" lon="7.5080157"><ele>0.0</ele><time>2026-05-01T00:27:39.036Z</time></trkpt><trkpt lat="43.4993276" lon="7.5080989"><ele>0.0</ele><time>2026-05-01T00:27:40.036Z</time></trkpt><trkpt lat="43.4993802" lon="7.5081821"><ele>0.0</ele><time>2026-05-01T00:27:41.035Z</time></trkpt><trkpt lat="43.4994315" lon="7.5082681"><ele>0.0</ele><time>2026-05-01T00:27:42.036Z</time></trkpt><trkpt lat="43.4994786" lon="7.5083549"><ele>0.0</ele><time>2026-05-01T00:27:43.036Z</time></trkpt><trkpt lat="43.4995283" lon="7.5084384"><ele>0.0</ele><time>2026-05-01T00:27:44.035Z</time></trkpt><trkpt lat="43.4995759" lon="7.5085226"><ele>0.0</ele><time>2026-05-01T00:27:45.036Z</time></trkpt><trkpt lat="43.4996194" lon="7.5086095"><ele>0.0</ele><time>2026-05-01T00:27:46.035Z</time></trkpt><trkpt lat="43.4996667" lon="7.5086989"><ele>0.0</ele><time>2026-05-01T00:27:47.035Z</time></trkpt><trkpt lat="43.4997194" lon="7.5087809"><ele>0.0</ele><time>2026-05-01T00:27:48.036Z</time></trkpt><trkpt lat="43.4998218" lon="7.5089578"><ele>0.0</ele><time>2026-05-01T00:27:50.035Z</time></trkpt><trkpt lat="43.4998706" lon="7.5090462"><ele>0.0</ele><time>2026-05-01T00:27:51.035Z</time></trkpt><trkpt lat="43.4999187" lon="7.5091327"><ele>0.0</ele><time>2026-05-01T00:27:52.036Z</time></trkpt><trkpt lat="43.4999669" lon="7.5092185"><ele>0.0</ele><time>2026-05-01T00:27:53.036Z</time></trkpt><trkpt lat="43.5000168" lon="7.5093016"><ele>0.0</ele><time>2026-05-01T00:27:54.035Z</time></trkpt><trkpt lat="43.5000667" lon="7.5093881"><ele>0.0</ele><time>2026-05-01T00:27:55.035Z</time></trkpt><trkpt lat="43.5001171" lon="7.5094721"><ele>0.0</ele><time>2026-05-01T00:27:56.035Z</time></trkpt><trkpt lat="43.5001672" lon="7.509552"><ele>0.0</ele><time>2026-05-01T00:27:57.036Z</time></trkpt><trkpt lat="43.5002187" lon="7.5096363"><ele>0.0</ele><time>2026-05-01T00:27:58.035Z</time></trkpt><trkpt lat="43.5002688" lon="7.5097275"><ele>0.0</ele><time>2026-05-01T00:27:59.035Z</time></trkpt><trkpt lat="43.5003198" lon="7.509817"><ele>0.0</ele><time>2026-05-01T00:28:00.035Z</time></trkpt><trkpt lat="43.50037" lon="7.5099051"><ele>0.0</ele><time>2026-05-01T00:28:01.035Z</time></trkpt><trkpt lat="43.5004219" lon="7.5099903"><ele>0.0</ele><time>2026-05-01T00:28:02.035Z</time></trkpt><trkpt lat="43.5004755" lon="7.5100749"><ele>0.0</ele><time>2026-05-01T00:28:03.035Z</time></trkpt><trkpt lat="43.5005254" lon="7.5101572"><ele>0.0</ele><time>2026-05-01T00:28:04.035Z</time></trkpt><trkpt lat="43.5005737" lon="7.5102419"><ele>0.0</ele><time>2026-05-01T00:28:05.035Z</time></trkpt><trkpt lat="43.5006194" lon="7.5103249"><ele>0.0</ele><time>2026-05-01T00:28:06.035Z</time></trkpt><trkpt lat="43.5006685" lon="7.5104"><ele>0.0</ele><time>2026-05-01T00:28:07.035Z</time></trkpt><trkpt lat="43.5007666" lon="7.510578"><ele>0.0</ele><time>2026-05-01T00:28:09.035Z</time></trkpt><trkpt lat="43.5008633" lon="7.5107445"><ele>0.0</ele><time>2026-05-01T00:28:11.036Z</time></trkpt><trkpt lat="43.5009161" lon="7.5108287"><ele>0.0</ele><time>2026-05-01T00:28:12.036Z</time></trkpt><trkpt lat="43.5009655" lon="7.5109164"><ele>0.0</ele><time>2026-05-01T00:28:13.036Z</time></trkpt><trkpt lat="43.5010168" lon="7.5109975"><ele>0.0</ele><time>2026-05-01T00:28:14.035Z</time></trkpt><trkpt lat="43.5010695" lon="7.5110861"><ele>0.0</ele><time>2026-05-01T00:28:15.035Z</time></trkpt><trkpt lat="43.5011184" lon="7.5111804"><ele>0.0</ele><time>2026-05-01T00:28:16.035Z</time></trkpt><trkpt lat="43.5011691" lon="7.5112762"><ele>0.0</ele><time>2026-05-01T00:28:17.036Z</time></trkpt><trkpt lat="43.5012238" lon="7.511363"><ele>0.0</ele><time>2026-05-01T00:28:18.036Z</time></trkpt><trkpt lat="43.5012763" lon="7.5114512"><ele>0.0</ele><time>2026-05-01T00:28:19.035Z</time></trkpt><trkpt lat="43.5013284" lon="7.5115397"><ele>0.0</ele><time>2026-05-01T00:28:20.035Z</time></trkpt><trkpt lat="43.5013797" lon="7.5116252"><ele>0.0</ele><time>2026-05-01T00:28:21.036Z</time></trkpt><trkpt lat="43.5014328" lon="7.5117051"><ele>0.0</ele><time>2026-05-01T00:28:22.036Z</time></trkpt><trkpt lat="43.5014849" lon="7.5117882"><ele>0.0</ele><time>2026-05-01T00:28:23.035Z</time></trkpt><trkpt lat="43.5015361" lon="7.5118759"><ele>0.0</ele><time>2026-05-01T00:28:24.035Z</time></trkpt><trkpt lat="43.5015898" lon="7.5119628"><ele>0.0</ele><time>2026-05-01T00:28:25.035Z</time></trkpt><trkpt lat="43.5016375" lon="7.5120484"><ele>0.0</ele><time>2026-05-01T00:28:26.036Z</time></trkpt><trkpt lat="43.5016866" lon="7.5121349"><ele>0.0</ele><time>2026-05-01T00:28:27.036Z</time></trkpt><trkpt lat="43.5017367" lon="7.5122162"><ele>0.0</ele><time>2026-05-01T00:28:28.035Z</time></trkpt><trkpt lat="43.5017884" lon="7.5122984"><ele>0.0</ele><time>2026-05-01T00:28:29.036Z</time></trkpt><trkpt lat="43.5018386" lon="7.512382"><ele>0.0</ele><time>2026-05-01T00:28:30.036Z</time></trkpt><trkpt lat="43.5019402" lon="7.5125514"><ele>0.0</ele><time>2026-05-01T00:28:32.035Z</time></trkpt><trkpt lat="43.5019913" lon="7.5126391"><ele>0.0</ele><time>2026-05-01T00:28:33.035Z</time></trkpt><trkpt lat="43.5020385" lon="7.5127306"><ele>0.0</ele><time>2026-05-01T00:28:34.035Z</time></trkpt><trkpt lat="43.5020856" lon="7.5128184"><ele>0.0</ele><time>2026-05-01T00:28:35.036Z</time></trkpt><trkpt lat="43.5021333" lon="7.5129071"><ele>0.0</ele><time>2026-05-01T00:28:36.036Z</time></trkpt><trkpt lat="43.5021774" lon="7.512996"><ele>0.0</ele><time>2026-05-01T00:28:37.035Z</time></trkpt><trkpt lat="43.5022249" lon="7.513086"><ele>0.0</ele><time>2026-05-01T00:28:38.036Z</time></trkpt><trkpt lat="43.5022735" lon="7.5131691"><ele>0.0</ele><time>2026-05-01T00:28:39.035Z</time></trkpt><trkpt lat="43.5023688" lon="7.5133368"><ele>0.0</ele><time>2026-05-01T00:28:41.036Z</time></trkpt><trkpt lat="43.5024116" lon="7.5134155"><ele>0.0</ele><time>2026-05-01T00:28:42.035Z</time></trkpt><trkpt lat="43.5024586" lon="7.5134998"><ele>0.0</ele><time>2026-05-01T00:28:43.036Z</time></trkpt><trkpt lat="43.5025083" lon="7.5135831"><ele>0.0</ele><time>2026-05-01T00:28:44.036Z</time></trkpt><trkpt lat="43.5025565" lon="7.5136709"><ele>0.0</ele><time>2026-05-01T00:28:45.035Z</time></trkpt><trkpt lat="43.5026048" lon="7.5137572"><ele>0.0</ele><time>2026-05-01T00:28:46.035Z</time></trkpt><trkpt lat="43.5026505" lon="7.5138389"><ele>0.0</ele><time>2026-05-01T00:28:47.036Z</time></trkpt><trkpt lat="43.5026992" lon="7.5139278"><ele>0.0</ele><time>2026-05-01T00:28:48.036Z</time></trkpt><trkpt lat="43.5027487" lon="7.5140145"><ele>0.0</ele><time>2026-05-01T00:28:49.035Z</time></trkpt><trkpt lat="43.5028014" lon="7.5140994"><ele>0.0</ele><time>2026-05-01T00:28:50.036Z</time></trkpt><trkpt lat="43.5028559" lon="7.5141854"><ele>0.0</ele><time>2026-05-01T00:28:51.036Z</time></trkpt><trkpt lat="43.5029522" lon="7.514344"><ele>0.0</ele><time>2026-05-01T00:28:53.035Z</time></trkpt><trkpt lat="43.5029997" lon="7.5144292"><ele>0.0</ele><time>2026-05-01T00:28:54.035Z</time></trkpt><trkpt lat="43.50305" lon="7.5145164"><ele>0.0</ele><time>2026-05-01T00:28:55.035Z</time></trkpt><trkpt lat="43.5030957" lon="7.514603"><ele>0.0</ele><time>2026-05-01T00:28:56.035Z</time></trkpt><trkpt lat="43.5031463" lon="7.5146887"><ele>0.0</ele><time>2026-05-01T00:28:57.036Z</time></trkpt><trkpt lat="43.5031968" lon="7.5147746"><ele>0.0</ele><time>2026-05-01T00:28:58.035Z</time></trkpt><trkpt lat="43.5032469" lon="7.5148625"><ele>0.0</ele><time>2026-05-01T00:28:59.036Z</time></trkpt><trkpt lat="43.5032971" lon="7.5149509"><ele>0.0</ele><time>2026-05-01T00:29:00.035Z</time></trkpt><trkpt lat="43.5033453" lon="7.5150397"><ele>0.0</ele><time>2026-05-01T00:29:01.036Z</time></trkpt><trkpt lat="43.5033952" lon="7.5151247"><ele>0.0</ele><time>2026-05-01T00:29:02.035Z</time></trkpt><trkpt lat="43.5034451" lon="7.5152102"><ele>0.0</ele><time>2026-05-01T00:29:03.036Z</time></trkpt><trkpt lat="43.5034948" lon="7.5152919"><ele>0.0</ele><time>2026-05-01T00:29:04.035Z</time></trkpt><trkpt lat="43.5035463" lon="7.5153762"><ele>0.0</ele><time>2026-05-01T00:29:05.035Z</time></trkpt><trkpt lat="43.5035996" lon="7.515467"><ele>0.0</ele><time>2026-05-01T00:29:06.035Z</time></trkpt><trkpt lat="43.5036528" lon="7.5155533"><ele>0.0</ele><time>2026-05-01T00:29:07.035Z</time></trkpt><trkpt lat="43.5037062" lon="7.5156395"><ele>0.0</ele><time>2026-05-01T00:29:08.036Z</time></trkpt><trkpt lat="43.5037596" lon="7.5157244"><ele>0.0</ele><time>2026-05-01T00:29:09.035Z</time></trkpt><trkpt lat="43.5038112" lon="7.5158144"><ele>0.0</ele><time>2026-05-01T00:29:10.035Z</time></trkpt><trkpt lat="43.5038629" lon="7.5158998"><ele>0.0</ele><time>2026-05-01T00:29:11.035Z</time></trkpt><trkpt lat="43.5039145" lon="7.5159866"><ele>0.0</ele><time>2026-05-01T00:29:12.035Z</time></trkpt><trkpt lat="43.5040672" lon="7.5162255"><ele>0.0</ele><time>2026-05-01T00:29:15.036Z</time></trkpt><trkpt lat="43.5041183" lon="7.5163141"><ele>0.0</ele><time>2026-05-01T00:29:16.035Z</time></trkpt><trkpt lat="43.5041695" lon="7.516407"><ele>0.0</ele><time>2026-05-01T00:29:17.035Z</time></trkpt><trkpt lat="43.5042154" lon="7.5164997"><ele>0.0</ele><time>2026-05-01T00:29:18.036Z</time></trkpt><trkpt lat="43.5042645" lon="7.5165886"><ele>0.0</ele><time>2026-05-01T00:29:19.035Z</time></trkpt><trkpt lat="43.5043161" lon="7.5166697"><ele>0.0</ele><time>2026-05-01T00:29:20.035Z</time></trkpt><trkpt lat="43.5043667" lon="7.5167562"><ele>0.0</ele><time>2026-05-01T00:29:21.035Z</time></trkpt><trkpt lat="43.5044182" lon="7.5168423"><ele>0.0</ele><time>2026-05-01T00:29:22.035Z</time></trkpt><trkpt lat="43.5044698" lon="7.5169298"><ele>0.0</ele><time>2026-05-01T00:29:23.035Z</time></trkpt><trkpt lat="43.5045174" lon="7.5170154"><ele>0.0</ele><time>2026-05-01T00:29:24.035Z</time></trkpt><trkpt lat="43.5045667" lon="7.5171032"><ele>0.0</ele><time>2026-05-01T00:29:25.035Z</time></trkpt><trkpt lat="43.5046183" lon="7.5171887"><ele>0.0</ele><time>2026-05-01T00:29:26.035Z</time></trkpt><trkpt lat="43.5046671" lon="7.5172736"><ele>0.0</ele><time>2026-05-01T00:29:27.036Z</time></trkpt><trkpt lat="43.5047169" lon="7.5173568"><ele>0.0</ele><time>2026-05-01T00:29:28.036Z</time></trkpt><trkpt lat="43.5047667" lon="7.5174427"><ele>0.0</ele><time>2026-05-01T00:29:29.036Z</time></trkpt><trkpt lat="43.5048197" lon="7.5175267"><ele>0.0</ele><time>2026-05-01T00:29:30.035Z</time></trkpt><trkpt lat="43.5048756" lon="7.517613"><ele>0.0</ele><time>2026-05-01T00:29:31.036Z</time></trkpt><trkpt lat="43.5049341" lon="7.5177015"><ele>0.0</ele><time>2026-05-01T00:29:32.035Z</time></trkpt><trkpt lat="43.5049899" lon="7.5177881"><ele>0.0</ele><time>2026-05-01T00:29:33.035Z</time></trkpt><trkpt lat="43.5050404" lon="7.5178707"><ele>0.0</ele><time>2026-05-01T00:29:34.035Z</time></trkpt><trkpt lat="43.5051391" lon="7.5180424"><ele>0.0</ele><time>2026-05-01T00:29:36.035Z</time></trkpt><trkpt lat="43.5051858" lon="7.5181338"><ele>0.0</ele><time>2026-05-01T00:29:37.035Z</time></trkpt><trkpt lat="43.5052337" lon="7.5182246"><ele>0.0</ele><time>2026-05-01T00:29:38.035Z</time></trkpt><trkpt lat="43.5052823" lon="7.5183132"><ele>0.0</ele><time>2026-05-01T00:29:39.035Z</time></trkpt><trkpt lat="43.5053283" lon="7.518385"><ele>0.0</ele><time>2026-05-01T00:29:40.036Z</time></trkpt><trkpt lat="43.5053788" lon="7.5184659"><ele>0.0</ele><time>2026-05-01T00:29:41.035Z</time></trkpt><trkpt lat="43.5054301" lon="7.5185625"><ele>0.0</ele><time>2026-05-01T00:29:42.035Z</time></trkpt><trkpt lat="43.50548" lon="7.5186472"><ele>0.0</ele><time>2026-05-01T00:29:43.035Z</time></trkpt><trkpt lat="43.5055299" lon="7.5187245"><ele>0.0</ele><time>2026-05-01T00:29:44.035Z</time></trkpt><trkpt lat="43.5056339" lon="7.5188976"><ele>0.0</ele><time>2026-05-01T00:29:46.036Z</time></trkpt><trkpt lat="43.5056851" lon="7.518979"><ele>0.0</ele><time>2026-05-01T00:29:47.035Z</time></trkpt><trkpt lat="43.5057392" lon="7.5190572"><ele>0.0</ele><time>2026-05-01T00:29:48.036Z</time></trkpt><trkpt lat="43.5057917" lon="7.5191312"><ele>0.0</ele><time>2026-05-01T00:29:49.036Z</time></trkpt><trkpt lat="43.5058431" lon="7.5192143"><ele>0.0</ele><time>2026-05-01T00:29:50.035Z</time></trkpt><trkpt lat="43.5058973" lon="7.5193076"><ele>0.0</ele><time>2026-05-01T00:29:51.036Z</time></trkpt><trkpt lat="43.5059501" lon="7.5193965"><ele>0.0</ele><time>2026-05-01T00:29:52.036Z</time></trkpt><trkpt lat="43.5059988" lon="7.5194835"><ele>0.0</ele><time>2026-05-01T00:29:53.035Z</time></trkpt><trkpt lat="43.5060501" lon="7.5195747"><ele>0.0</ele><time>2026-05-01T00:29:54.036Z</time></trkpt><trkpt lat="43.5061078" lon="7.5196592"><ele>0.0</ele><time>2026-05-01T00:29:55.035Z</time></trkpt><trkpt lat="43.5062163" lon="7.5198301"><ele>0.0</ele><time>2026-05-01T00:29:57.036Z</time></trkpt><trkpt lat="43.5062707" lon="7.519911"><ele>0.0</ele><time>2026-05-01T00:29:58.035Z</time></trkpt><trkpt lat="43.5063242" lon="7.5199982"><ele>0.0</ele><time>2026-05-01T00:29:59.035Z</time></trkpt><trkpt lat="43.5063738" lon="7.5200797"><ele>0.0</ele><time>2026-05-01T00:30:00.036Z</time></trkpt><trkpt lat="43.5064189" lon="7.5201622"><ele>0.0</ele><time>2026-05-01T00:30:01.036Z</time></trkpt><trkpt lat="43.5064681" lon="7.5202496"><ele>0.0</ele><time>2026-05-01T00:30:02.035Z</time></trkpt><trkpt lat="43.5065186" lon="7.5203355"><ele>0.0</ele><time>2026-05-01T00:30:03.036Z</time></trkpt><trkpt lat="43.5065686" lon="7.5204178"><ele>0.0</ele><time>2026-05-01T00:30:04.036Z</time></trkpt><trkpt lat="43.5066155" lon="7.5204962"><ele>0.0</ele><time>2026-05-01T00:30:05.035Z</time></trkpt><trkpt lat="43.5066647" lon="7.52058"><ele>0.0</ele><time>2026-05-01T00:30:06.036Z</time></trkpt><trkpt lat="43.5067137" lon="7.5206646"><ele>0.0</ele><time>2026-05-01T00:30:07.036Z</time></trkpt><trkpt lat="43.5067614" lon="7.5207544"><ele>0.0</ele><time>2026-05-01T00:30:08.036Z</time></trkpt><trkpt lat="43.5068132" lon="7.5208402"><ele>0.0</ele><time>2026-05-01T00:30:09.035Z</time></trkpt><trkpt lat="43.5068667" lon="7.5209261"><ele>0.0</ele><time>2026-05-01T00:30:10.035Z</time></trkpt><trkpt lat="43.5069161" lon="7.5210126"><ele>0.0</ele><time>2026-05-01T00:30:11.036Z</time></trkpt><trkpt lat="43.5069656" lon="7.5211026"><ele>0.0</ele><time>2026-05-01T00:30:12.036Z</time></trkpt><trkpt lat="43.5070122" lon="7.5211922"><ele>0.0</ele><time>2026-05-01T00:30:13.035Z</time></trkpt><trkpt lat="43.5070605" lon="7.5212822"><ele>0.0</ele><time>2026-05-01T00:30:14.035Z</time></trkpt><trkpt lat="43.5071061" lon="7.521371"><ele>0.0</ele><time>2026-05-01T00:30:15.036Z</time></trkpt><trkpt lat="43.5071533" lon="7.5214615"><ele>0.0</ele><time>2026-05-01T00:30:16.035Z</time></trkpt><trkpt lat="43.5072986" lon="7.5217136"><ele>0.0</ele><time>2026-05-01T00:30:19.036Z</time></trkpt><trkpt lat="43.5073545" lon="7.5217992"><ele>0.0</ele><time>2026-05-01T00:30:20.036Z</time></trkpt><trkpt lat="43.5074072" lon="7.5218863"><ele>0.0</ele><time>2026-05-01T00:30:21.035Z</time></trkpt><trkpt lat="43.5074585" lon="7.5219727"><ele>0.0</ele><time>2026-05-01T00:30:22.036Z</time></trkpt><trkpt lat="43.5075141" lon="7.5220651"><ele>0.0</ele><time>2026-05-01T00:30:23.035Z</time></trkpt><trkpt lat="43.5075668" lon="7.5221532"><ele>0.0</ele><time>2026-05-01T00:30:24.036Z</time></trkpt><trkpt lat="43.5076168" lon="7.5222395"><ele>0.0</ele><time>2026-05-01T00:30:25.036Z</time></trkpt><trkpt lat="43.5076586" lon="7.522325"><ele>0.0</ele><time>2026-05-01T00:30:26.036Z</time></trkpt><trkpt lat="43.5077052" lon="7.5224032"><ele>0.0</ele><time>2026-05-01T00:30:27.036Z</time></trkpt><trkpt lat="43.5077438" lon="7.5224867"><ele>0.0</ele><time>2026-05-01T00:30:28.035Z</time></trkpt><trkpt lat="43.5077887" lon="7.5225765"><ele>0.0</ele><time>2026-05-01T00:30:29.035Z</time></trkpt><trkpt lat="43.5078369" lon="7.5226615"><ele>0.0</ele><time>2026-05-01T00:30:30.036Z</time></trkpt><trkpt lat="43.507887" lon="7.5227478"><ele>0.0</ele><time>2026-05-01T00:30:31.036Z</time></trkpt><trkpt lat="43.5079325" lon="7.5228378"><ele>0.0</ele><time>2026-05-01T00:30:32.036Z</time></trkpt><trkpt lat="43.5079807" lon="7.5229309"><ele>0.0</ele><time>2026-05-01T00:30:33.035Z</time></trkpt><trkpt lat="43.5080213" lon="7.5230179"><ele>0.0</ele><time>2026-05-01T00:30:34.035Z</time></trkpt><trkpt lat="43.5080743" lon="7.523105"><ele>0.0</ele><time>2026-05-01T00:30:35.035Z</time></trkpt><trkpt lat="43.5081222" lon="7.5231898"><ele>0.0</ele><time>2026-05-01T00:30:36.035Z</time></trkpt><trkpt lat="43.508169" lon="7.5232747"><ele>0.0</ele><time>2026-05-01T00:30:37.035Z</time></trkpt><trkpt lat="43.5082125" lon="7.5233627"><ele>0.0</ele><time>2026-05-01T00:30:38.036Z</time></trkpt><trkpt lat="43.5083081" lon="7.5235382"><ele>0.0</ele><time>2026-05-01T00:30:40.035Z</time></trkpt><trkpt lat="43.508362" lon="7.5236262"><ele>0.0</ele><time>2026-05-01T00:30:41.035Z</time></trkpt><trkpt lat="43.5084174" lon="7.523716"><ele>0.0</ele><time>2026-05-01T00:30:42.035Z</time></trkpt><trkpt lat="43.5084722" lon="7.5238096"><ele>0.0</ele><time>2026-05-01T00:30:43.036Z</time></trkpt><trkpt lat="43.5085221" lon="7.5238966"><ele>0.0</ele><time>2026-05-01T00:30:44.036Z</time></trkpt><trkpt lat="43.5085755" lon="7.5239827"><ele>0.0</ele><time>2026-05-01T00:30:45.036Z</time></trkpt><trkpt lat="43.5086291" lon="7.5240722"><ele>0.0</ele><time>2026-05-01T00:30:46.036Z</time></trkpt><trkpt lat="43.5086798" lon="7.5241614"><ele>0.0</ele><time>2026-05-01T00:30:47.036Z</time></trkpt><trkpt lat="43.5087293" lon="7.5242452"><ele>0.0</ele><time>2026-05-01T00:30:48.035Z</time></trkpt><trkpt lat="43.5087801" lon="7.5243294"><ele>0.0</ele><time>2026-05-01T00:30:49.036Z</time></trkpt><trkpt lat="43.5088824" lon="7.5245007"><ele>0.0</ele><time>2026-05-01T00:30:51.035Z</time></trkpt><trkpt lat="43.5089398" lon="7.5245809"><ele>0.0</ele><time>2026-05-01T00:30:52.035Z</time></trkpt><trkpt lat="43.5089955" lon="7.5246639"><ele>0.0</ele><time>2026-05-01T00:30:53.035Z</time></trkpt><trkpt lat="43.5090405" lon="7.5247522"><ele>0.0</ele><time>2026-05-01T00:30:54.035Z</time></trkpt><trkpt lat="43.509087" lon="7.5248354"><ele>0.0</ele><time>2026-05-01T00:30:55.034Z</time></trkpt><trkpt lat="43.5091333" lon="7.5249227"><ele>0.0</ele><time>2026-05-01T00:30:56.034Z</time></trkpt><trkpt lat="43.5091874" lon="7.5250122"><ele>0.0</ele><time>2026-05-01T00:30:57.034Z</time></trkpt><trkpt lat="43.5092384" lon="7.5251038"><ele>0.0</ele><time>2026-05-01T00:30:58.034Z</time></trkpt><trkpt lat="43.5092924" lon="7.5251933"><ele>0.0</ele><time>2026-05-01T00:30:59.035Z</time></trkpt><trkpt lat="43.5093911" lon="7.5253641"><ele>0.0</ele><time>2026-05-01T00:31:01.034Z</time></trkpt><trkpt lat="43.5094411" lon="7.5254448"><ele>0.0</ele><time>2026-05-01T00:31:02.034Z</time></trkpt><trkpt lat="43.5094912" lon="7.5255213"><ele>0.0</ele><time>2026-05-01T00:31:03.034Z</time></trkpt><trkpt lat="43.5095381" lon="7.5256051"><ele>0.0</ele><time>2026-05-01T00:31:04.034Z</time></trkpt><trkpt lat="43.5095861" lon="7.5256871"><ele>0.0</ele><time>2026-05-01T00:31:05.035Z</time></trkpt><trkpt lat="43.5096391" lon="7.5257698"><ele>0.0</ele><time>2026-05-01T00:31:06.035Z</time></trkpt><trkpt lat="43.5096882" lon="7.525856"><ele>0.0</ele><time>2026-05-01T00:31:07.035Z</time></trkpt><trkpt lat="43.5097382" lon="7.5259415"><ele>0.0</ele><time>2026-05-01T00:31:08.035Z</time></trkpt><trkpt lat="43.5097913" lon="7.5260169"><ele>0.0</ele><time>2026-05-01T00:31:09.034Z</time></trkpt><trkpt lat="43.5098428" lon="7.5260982"><ele>0.0</ele><time>2026-05-01T00:31:10.034Z</time></trkpt><trkpt lat="43.509893" lon="7.5261858"><ele>0.0</ele><time>2026-05-01T00:31:11.035Z</time></trkpt><trkpt lat="43.5099445" lon="7.5262745"><ele>0.0</ele><time>2026-05-01T00:31:12.034Z</time></trkpt><trkpt lat="43.5099978" lon="7.5263601"><ele>0.0</ele><time>2026-05-01T00:31:13.035Z</time></trkpt><trkpt lat="43.510047" lon="7.5264444"><ele>0.0</ele><time>2026-05-01T00:31:14.034Z</time></trkpt><trkpt lat="43.5100949" lon="7.5265324"><ele>0.0</ele><time>2026-05-01T00:31:15.034Z</time></trkpt><trkpt lat="43.510142" lon="7.526624"><ele>0.0</ele><time>2026-05-01T00:31:16.034Z</time></trkpt><trkpt lat="43.5101888" lon="7.5267098"><ele>0.0</ele><time>2026-05-01T00:31:17.034Z</time></trkpt><trkpt lat="43.5102353" lon="7.5267926"><ele>0.0</ele><time>2026-05-01T00:31:18.035Z</time></trkpt><trkpt lat="43.5102869" lon="7.5268813"><ele>0.0</ele><time>2026-05-01T00:31:19.034Z</time></trkpt><trkpt lat="43.5103359" lon="7.5269676"><ele>0.0</ele><time>2026-05-01T00:31:20.035Z</time></trkpt><trkpt lat="43.5103867" lon="7.5270497"><ele>0.0</ele><time>2026-05-01T00:31:21.034Z</time></trkpt><trkpt lat="43.5105527" lon="7.5273293"><ele>0.0</ele><time>2026-05-01T00:31:24.034Z</time></trkpt><trkpt lat="43.5106039" lon="7.5274236"><ele>0.0</ele><time>2026-05-01T00:31:25.034Z</time></trkpt><trkpt lat="43.5106509" lon="7.5275117"><ele>0.0</ele><time>2026-05-01T00:31:26.035Z</time></trkpt><trkpt lat="43.5106989" lon="7.5275965"><ele>0.0</ele><time>2026-05-01T00:31:27.034Z</time></trkpt><trkpt lat="43.5107457" lon="7.5276823"><ele>0.0</ele><time>2026-05-01T00:31:28.034Z</time></trkpt><trkpt lat="43.5107964" lon="7.5277664"><ele>0.0</ele><time>2026-05-01T00:31:29.035Z</time></trkpt><trkpt lat="43.5108458" lon="7.527857"><ele>0.0</ele><time>2026-05-01T00:31:30.034Z</time></trkpt><trkpt lat="43.5108966" lon="7.5279441"><ele>0.0</ele><time>2026-05-01T00:31:31.034Z</time></trkpt><trkpt lat="43.5109455" lon="7.5280319"><ele>0.0</ele><time>2026-05-01T00:31:32.035Z</time></trkpt><trkpt lat="43.5109961" lon="7.5281253"><ele>0.0</ele><time>2026-05-01T00:31:33.035Z</time></trkpt><trkpt lat="43.5110451" lon="7.5282189"><ele>0.0</ele><time>2026-05-01T00:31:34.034Z</time></trkpt><trkpt lat="43.5110923" lon="7.5283078"><ele>0.0</ele><time>2026-05-01T00:31:35.035Z</time></trkpt><trkpt lat="43.5111401" lon="7.5283932"><ele>0.0</ele><time>2026-05-01T00:31:36.035Z</time></trkpt><trkpt lat="43.5111904" lon="7.5284776"><ele>0.0</ele><time>2026-05-01T00:31:37.035Z</time></trkpt><trkpt lat="43.5112372" lon="7.5285672"><ele>0.0</ele><time>2026-05-01T00:31:38.034Z</time></trkpt><trkpt lat="43.5112854" lon="7.5286562"><ele>0.0</ele><time>2026-05-01T00:31:39.034Z</time></trkpt><trkpt lat="43.5113353" lon="7.5287481"><ele>0.0</ele><time>2026-05-01T00:31:40.034Z</time></trkpt><trkpt lat="43.5113823" lon="7.5288385"><ele>0.0</ele><time>2026-05-01T00:31:41.034Z</time></trkpt><trkpt lat="43.5114331" lon="7.5289267"><ele>0.0</ele><time>2026-05-01T00:31:42.035Z</time></trkpt><trkpt lat="43.5114803" lon="7.5290104"><ele>0.0</ele><time>2026-05-01T00:31:43.035Z</time></trkpt><trkpt lat="43.5115807" lon="7.5291903"><ele>0.0</ele><time>2026-05-01T00:31:45.035Z</time></trkpt><trkpt lat="43.5116347" lon="7.5292767"><ele>0.0</ele><time>2026-05-01T00:31:46.034Z</time></trkpt><trkpt lat="43.5116893" lon="7.5293628"><ele>0.0</ele><time>2026-05-01T00:31:47.034Z</time></trkpt><trkpt lat="43.5117404" lon="7.5294481"><ele>0.0</ele><time>2026-05-01T00:31:48.034Z</time></trkpt><trkpt lat="43.5117887" lon="7.5295316"><ele>0.0</ele><time>2026-05-01T00:31:49.035Z</time></trkpt><trkpt lat="43.5118381" lon="7.5296157"><ele>0.0</ele><time>2026-05-01T00:31:50.035Z</time></trkpt><trkpt lat="43.5118842" lon="7.5297028"><ele>0.0</ele><time>2026-05-01T00:31:51.035Z</time></trkpt><trkpt lat="43.5119284" lon="7.5297895"><ele>0.0</ele><time>2026-05-01T00:31:52.035Z</time></trkpt><trkpt lat="43.5119779" lon="7.5298733"><ele>0.0</ele><time>2026-05-01T00:31:53.035Z</time></trkpt><trkpt lat="43.5120265" lon="7.5299606"><ele>0.0</ele><time>2026-05-01T00:31:54.035Z</time></trkpt><trkpt lat="43.5120809" lon="7.5300497"><ele>0.0</ele><time>2026-05-01T00:31:55.034Z</time></trkpt><trkpt lat="43.512132" lon="7.5301368"><ele>0.0</ele><time>2026-05-01T00:31:56.034Z</time></trkpt><trkpt lat="43.5121761" lon="7.5302222"><ele>0.0</ele><time>2026-05-01T00:31:57.035Z</time></trkpt><trkpt lat="43.5122231" lon="7.5303048"><ele>0.0</ele><time>2026-05-01T00:31:58.034Z</time></trkpt><trkpt lat="43.51227" lon="7.5303853"><ele>0.0</ele><time>2026-05-01T00:31:59.035Z</time></trkpt><trkpt lat="43.5123222" lon="7.5304651"><ele>0.0</ele><time>2026-05-01T00:32:00.034Z</time></trkpt><trkpt lat="43.512372" lon="7.5305481"><ele>0.0</ele><time>2026-05-01T00:32:01.035Z</time></trkpt><trkpt lat="43.512419" lon="7.5306326"><ele>0.0</ele><time>2026-05-01T00:32:02.035Z</time></trkpt><trkpt lat="43.512463" lon="7.5307177"><ele>0.0</ele><time>2026-05-01T00:32:03.035Z</time></trkpt><trkpt lat="43.5125059" lon="7.5308056"><ele>0.0</ele><time>2026-05-01T00:32:04.034Z</time></trkpt><trkpt lat="43.5125982" lon="7.5309764"><ele>0.0</ele><time>2026-05-01T00:32:06.034Z</time></trkpt><trkpt lat="43.5126479" lon="7.5310658"><ele>0.0</ele><time>2026-05-01T00:32:07.035Z</time></trkpt><trkpt lat="43.5126983" lon="7.5311545"><ele>0.0</ele><time>2026-05-01T00:32:08.035Z</time></trkpt><trkpt lat="43.5127485" lon="7.5312445"><ele>0.0</ele><time>2026-05-01T00:32:09.034Z</time></trkpt><trkpt lat="43.5127994" lon="7.5313331"><ele>0.0</ele><time>2026-05-01T00:32:10.035Z</time></trkpt><trkpt lat="43.5128542" lon="7.5314203"><ele>0.0</ele><time>2026-05-01T00:32:11.034Z</time></trkpt><trkpt lat="43.5129068" lon="7.5315022"><ele>0.0</ele><time>2026-05-01T00:32:12.034Z</time></trkpt><trkpt lat="43.5129595" lon="7.5315835"><ele>0.0</ele><time>2026-05-01T00:32:13.035Z</time></trkpt><trkpt lat="43.5130112" lon="7.5316695"><ele>0.0</ele><time>2026-05-01T00:32:14.034Z</time></trkpt><trkpt lat="43.5130617" lon="7.5317594"><ele>0.0</ele><time>2026-05-01T00:32:15.035Z</time></trkpt><trkpt lat="43.5131129" lon="7.5318454"><ele>0.0</ele><time>2026-05-01T00:32:16.035Z</time></trkpt><trkpt lat="43.5131676" lon="7.5319294"><ele>0.0</ele><time>2026-05-01T00:32:17.035Z</time></trkpt><trkpt lat="43.5132248" lon="7.5320117"><ele>0.0</ele><time>2026-05-01T00:32:18.034Z</time></trkpt><trkpt lat="43.5132804" lon="7.5320959"><ele>0.0</ele><time>2026-05-01T00:32:19.035Z</time></trkpt><trkpt lat="43.5133339" lon="7.5321799"><ele>0.0</ele><time>2026-05-01T00:32:20.035Z</time></trkpt><trkpt lat="43.5133838" lon="7.5322615"><ele>0.0</ele><time>2026-05-01T00:32:21.035Z</time></trkpt><trkpt lat="43.5134334" lon="7.5323515"><ele>0.0</ele><time>2026-05-01T00:32:22.035Z</time></trkpt><trkpt lat="43.5134822" lon="7.5324394"><ele>0.0</ele><time>2026-05-01T00:32:23.035Z</time></trkpt><trkpt lat="43.5135232" lon="7.5325318"><ele>0.0</ele><time>2026-05-01T00:32:24.034Z</time></trkpt><trkpt lat="43.5135647" lon="7.5326221"><ele>0.0</ele><time>2026-05-01T00:32:25.035Z</time></trkpt><trkpt lat="43.5137252" lon="7.5328757"><ele>0.0</ele><time>2026-05-01T00:32:28.035Z</time></trkpt><trkpt lat="43.5137742" lon="7.5329617"><ele>0.0</ele><time>2026-05-01T00:32:29.034Z</time></trkpt><trkpt lat="43.5138257" lon="7.5330467"><ele>0.0</ele><time>2026-05-01T00:32:30.034Z</time></trkpt><trkpt lat="43.5138758" lon="7.53313"><ele>0.0</ele><time>2026-05-01T00:32:31.035Z</time></trkpt><trkpt lat="43.513924" lon="7.5332103"><ele>0.0</ele><time>2026-05-01T00:32:32.035Z</time></trkpt><trkpt lat="43.5139754" lon="7.5332888"><ele>0.0</ele><time>2026-05-01T00:32:33.034Z</time></trkpt><trkpt lat="43.5140244" lon="7.5333678"><ele>0.0</ele><time>2026-05-01T00:32:34.034Z</time></trkpt><trkpt lat="43.5140705" lon="7.5334524"><ele>0.0</ele><time>2026-05-01T00:32:35.035Z</time></trkpt><trkpt lat="43.5141189" lon="7.5335406"><ele>0.0</ele><time>2026-05-01T00:32:36.034Z</time></trkpt><trkpt lat="43.5141628" lon="7.5336237"><ele>0.0</ele><time>2026-05-01T00:32:37.034Z</time></trkpt><trkpt lat="43.5142071" lon="7.5337079"><ele>0.0</ele><time>2026-05-01T00:32:38.034Z</time></trkpt><trkpt lat="43.5142537" lon="7.5337944"><ele>0.0</ele><time>2026-05-01T00:32:39.035Z</time></trkpt><trkpt lat="43.5143006" lon="7.5338814"><ele>0.0</ele><time>2026-05-01T00:32:40.034Z</time></trkpt><trkpt lat="43.5143462" lon="7.5339649"><ele>0.0</ele><time>2026-05-01T00:32:41.034Z</time></trkpt><trkpt lat="43.5143956" lon="7.5340526"><ele>0.0</ele><time>2026-05-01T00:32:42.034Z</time></trkpt><trkpt lat="43.5144484" lon="7.5341381"><ele>0.0</ele><time>2026-05-01T00:32:43.034Z</time></trkpt><trkpt lat="43.5144951" lon="7.5342261"><ele>0.0</ele><time>2026-05-01T00:32:44.035Z</time></trkpt><trkpt lat="43.5145366" lon="7.5343117"><ele>0.0</ele><time>2026-05-01T00:32:45.035Z</time></trkpt><trkpt lat="43.5145808" lon="7.5343904"><ele>0.0</ele><time>2026-05-01T00:32:46.034Z</time></trkpt><trkpt lat="43.5146157" lon="7.5344736"><ele>0.0</ele><time>2026-05-01T00:32:47.034Z</time></trkpt><trkpt lat="43.5147104" lon="7.5346476"><ele>0.0</ele><time>2026-05-01T00:32:49.034Z</time></trkpt><trkpt lat="43.5147617" lon="7.5347321"><ele>0.0</ele><time>2026-05-01T00:32:50.034Z</time></trkpt><trkpt lat="43.5148114" lon="7.5348145"><ele>0.0</ele><time>2026-05-01T00:32:51.035Z</time></trkpt><trkpt lat="43.5148632" lon="7.5348998"><ele>0.0</ele><time>2026-05-01T00:32:52.034Z</time></trkpt><trkpt lat="43.514913" lon="7.5349849"><ele>0.0</ele><time>2026-05-01T00:32:53.034Z</time></trkpt><trkpt lat="43.5149573" lon="7.5350751"><ele>0.0</ele><time>2026-05-01T00:32:54.034Z</time></trkpt><trkpt lat="43.5150098" lon="7.5351573"><ele>0.0</ele><time>2026-05-01T00:32:55.034Z</time></trkpt><trkpt lat="43.5150543" lon="7.5352418"><ele>0.0</ele><time>2026-05-01T00:32:56.035Z</time></trkpt><trkpt lat="43.515099" lon="7.5353179"><ele>0.0</ele><time>2026-05-01T00:32:57.035Z</time></trkpt><trkpt lat="43.5151926" lon="7.5354868"><ele>0.0</ele><time>2026-05-01T00:32:59.034Z</time></trkpt><trkpt lat="43.5152416" lon="7.535568"><ele>0.0</ele><time>2026-05-01T00:33:00.035Z</time></trkpt><trkpt lat="43.5152919" lon="7.5356518"><ele>0.0</ele><time>2026-05-01T00:33:01.035Z</time></trkpt><trkpt lat="43.5153422" lon="7.5357355"><ele>0.0</ele><time>2026-05-01T00:33:02.035Z</time></trkpt><trkpt lat="43.5153922" lon="7.5358172"><ele>0.0</ele><time>2026-05-01T00:33:03.035Z</time></trkpt><trkpt lat="43.515439" lon="7.5359005"><ele>0.0</ele><time>2026-05-01T00:33:04.035Z</time></trkpt><trkpt lat="43.5154838" lon="7.5359817"><ele>0.0</ele><time>2026-05-01T00:33:05.034Z</time></trkpt><trkpt lat="43.5155314" lon="7.5360674"><ele>0.0</ele><time>2026-05-01T00:33:06.034Z</time></trkpt><trkpt lat="43.5155819" lon="7.5361527"><ele>0.0</ele><time>2026-05-01T00:33:07.035Z</time></trkpt><trkpt lat="43.5156322" lon="7.536238"><ele>0.0</ele><time>2026-05-01T00:33:08.034Z</time></trkpt><trkpt lat="43.5157299" lon="7.5364089"><ele>0.0</ele><time>2026-05-01T00:33:10.034Z</time></trkpt><trkpt lat="43.5157769" lon="7.536493"><ele>0.0</ele><time>2026-05-01T00:33:11.034Z</time></trkpt><trkpt lat="43.5158277" lon="7.5365737"><ele>0.0</ele><time>2026-05-01T00:33:12.035Z</time></trkpt><trkpt lat="43.5158749" lon="7.5366501"><ele>0.0</ele><time>2026-05-01T00:33:13.034Z</time></trkpt><trkpt lat="43.5159184" lon="7.5367357"><ele>0.0</ele><time>2026-05-01T00:33:14.034Z</time></trkpt><trkpt lat="43.5159605" lon="7.536831"><ele>0.0</ele><time>2026-05-01T00:33:15.034Z</time></trkpt><trkpt lat="43.5160065" lon="7.5369184"><ele>0.0</ele><time>2026-05-01T00:33:16.034Z</time></trkpt><trkpt lat="43.5160509" lon="7.5370108"><ele>0.0</ele><time>2026-05-01T00:33:17.034Z</time></trkpt><trkpt lat="43.5160957" lon="7.5370999"><ele>0.0</ele><time>2026-05-01T00:33:18.034Z</time></trkpt><trkpt lat="43.5161403" lon="7.5371907"><ele>0.0</ele><time>2026-05-01T00:33:19.035Z</time></trkpt><trkpt lat="43.5161855" lon="7.5372741"><ele>0.0</ele><time>2026-05-01T00:33:20.035Z</time></trkpt><trkpt lat="43.5162264" lon="7.5373654"><ele>0.0</ele><time>2026-05-01T00:33:21.034Z</time></trkpt><trkpt lat="43.5162701" lon="7.5374521"><ele>0.0</ele><time>2026-05-01T00:33:22.034Z</time></trkpt><trkpt lat="43.5163166" lon="7.5375333"><ele>0.0</ele><time>2026-05-01T00:33:23.034Z</time></trkpt><trkpt lat="43.5163692" lon="7.5376217"><ele>0.0</ele><time>2026-05-01T00:33:24.034Z</time></trkpt><trkpt lat="43.5164222" lon="7.537711"><ele>0.0</ele><time>2026-05-01T00:33:25.034Z</time></trkpt><trkpt lat="43.516473" lon="7.5378006"><ele>0.0</ele><time>2026-05-01T00:33:26.034Z</time></trkpt><trkpt lat="43.5165263" lon="7.5378811"><ele>0.0</ele><time>2026-05-01T00:33:27.034Z</time></trkpt><trkpt lat="43.5165796" lon="7.5379604"><ele>0.0</ele><time>2026-05-01T00:33:28.034Z</time></trkpt><trkpt lat="43.5166299" lon="7.5380437"><ele>0.0</ele><time>2026-05-01T00:33:29.034Z</time></trkpt><trkpt lat="43.5166814" lon="7.538129"><ele>0.0</ele><time>2026-05-01T00:33:30.034Z</time></trkpt><trkpt lat="43.5168415" lon="7.5383846"><ele>0.0</ele><time>2026-05-01T00:33:33.034Z</time></trkpt><trkpt lat="43.5168914" lon="7.5384717"><ele>0.0</ele><time>2026-05-01T00:33:34.034Z</time></trkpt><trkpt lat="43.5169411" lon="7.5385553"><ele>0.0</ele><time>2026-05-01T00:33:35.034Z</time></trkpt><trkpt lat="43.5169882" lon="7.5386411"><ele>0.0</ele><time>2026-05-01T00:33:36.035Z</time></trkpt><trkpt lat="43.5170365" lon="7.5387278"><ele>0.0</ele><time>2026-05-01T00:33:37.035Z</time></trkpt><trkpt lat="43.5170848" lon="7.5388148"><ele>0.0</ele><time>2026-05-01T00:33:38.034Z</time></trkpt><trkpt lat="43.51714" lon="7.5389013"><ele>0.0</ele><time>2026-05-01T00:33:39.034Z</time></trkpt><trkpt lat="43.5171913" lon="7.5389916"><ele>0.0</ele><time>2026-05-01T00:33:40.034Z</time></trkpt><trkpt lat="43.5172398" lon="7.5390769"><ele>0.0</ele><time>2026-05-01T00:33:41.035Z</time></trkpt><trkpt lat="43.5172923" lon="7.5391596"><ele>0.0</ele><time>2026-05-01T00:33:42.035Z</time></trkpt><trkpt lat="43.5173444" lon="7.5392417"><ele>0.0</ele><time>2026-05-01T00:33:43.034Z</time></trkpt><trkpt lat="43.5174017" lon="7.5393245"><ele>0.0</ele><time>2026-05-01T00:33:44.034Z</time></trkpt><trkpt lat="43.5174517" lon="7.5394085"><ele>0.0</ele><time>2026-05-01T00:33:45.034Z</time></trkpt><trkpt lat="43.517504" lon="7.5394933"><ele>0.0</ele><time>2026-05-01T00:33:46.035Z</time></trkpt><trkpt lat="43.5175546" lon="7.539577"><ele>0.0</ele><time>2026-05-01T00:33:47.035Z</time></trkpt><trkpt lat="43.5176047" lon="7.5396599"><ele>0.0</ele><time>2026-05-01T00:33:48.035Z</time></trkpt><trkpt lat="43.5176492" lon="7.5397445"><ele>0.0</ele><time>2026-05-01T00:33:49.034Z</time></trkpt><trkpt lat="43.5176937" lon="7.5398299"><ele>0.0</ele><time>2026-05-01T00:33:50.035Z</time></trkpt><trkpt lat="43.5177413" lon="7.5399166"><ele>0.0</ele><time>2026-05-01T00:33:51.034Z</time></trkpt><trkpt lat="43.5177905" lon="7.540005"><ele>0.0</ele><time>2026-05-01T00:33:52.035Z</time></trkpt><trkpt lat="43.5178888" lon="7.540172"><ele>0.0</ele><time>2026-05-01T00:33:54.035Z</time></trkpt><trkpt lat="43.5179415" lon="7.5402557"><ele>0.0</ele><time>2026-05-01T00:33:55.035Z</time></trkpt><trkpt lat="43.5179889" lon="7.5403399"><ele>0.0</ele><time>2026-05-01T00:33:56.035Z</time></trkpt><trkpt lat="43.5180381" lon="7.5404306"><ele>0.0</ele><time>2026-05-01T00:33:57.035Z</time></trkpt><trkpt lat="43.5180897" lon="7.5405184"><ele>0.0</ele><time>2026-05-01T00:33:58.035Z</time></trkpt><trkpt lat="43.5181416" lon="7.5406055"><ele>0.0</ele><time>2026-05-01T00:33:59.035Z</time></trkpt><trkpt lat="43.5181845" lon="7.5406919"><ele>0.0</ele><time>2026-05-01T00:34:00.034Z</time></trkpt><trkpt lat="43.5182318" lon="7.5407785"><ele>0.0</ele><time>2026-05-01T00:34:01.034Z</time></trkpt><trkpt lat="43.5182844" lon="7.5408631"><ele>0.0</ele><time>2026-05-01T00:34:02.034Z</time></trkpt><trkpt lat="43.518385" lon="7.5410301"><ele>0.0</ele><time>2026-05-01T00:34:04.035Z</time></trkpt><trkpt lat="43.5184333" lon="7.5411146"><ele>0.0</ele><time>2026-05-01T00:34:05.035Z</time></trkpt><trkpt lat="43.5184789" lon="7.5411996"><ele>0.0</ele><time>2026-05-01T00:34:06.034Z</time></trkpt><trkpt lat="43.5185237" lon="7.5412832"><ele>0.0</ele><time>2026-05-01T00:34:07.034Z</time></trkpt><trkpt lat="43.5185703" lon="7.5413661"><ele>0.0</ele><time>2026-05-01T00:34:08.035Z</time></trkpt><trkpt lat="43.5186214" lon="7.5414507"><ele>0.0</ele><time>2026-05-01T00:34:09.035Z</time></trkpt><trkpt lat="43.5186732" lon="7.541535"><ele>0.0</ele><time>2026-05-01T00:34:10.034Z</time></trkpt><trkpt lat="43.5187243" lon="7.5416193"><ele>0.0</ele><time>2026-05-01T00:34:11.035Z</time></trkpt><trkpt lat="43.5187757" lon="7.5417058"><ele>0.0</ele><time>2026-05-01T00:34:12.034Z</time></trkpt><trkpt lat="43.518828" lon="7.5417918"><ele>0.0</ele><time>2026-05-01T00:34:13.034Z</time></trkpt><trkpt lat="43.5189249" lon="7.5419654"><ele>0.0</ele><time>2026-05-01T00:34:15.034Z</time></trkpt><trkpt lat="43.518975" lon="7.5420543"><ele>0.0</ele><time>2026-05-01T00:34:16.034Z</time></trkpt><trkpt lat="43.5190263" lon="7.5421382"><ele>0.0</ele><time>2026-05-01T00:34:17.034Z</time></trkpt><trkpt lat="43.5190726" lon="7.5422246"><ele>0.0</ele><time>2026-05-01T00:34:18.035Z</time></trkpt><trkpt lat="43.5191174" lon="7.5423123"><ele>0.0</ele><time>2026-05-01T00:34:19.034Z</time></trkpt><trkpt lat="43.5191648" lon="7.542402"><ele>0.0</ele><time>2026-05-01T00:34:20.035Z</time></trkpt><trkpt lat="43.519215" lon="7.5424915"><ele>0.0</ele><time>2026-05-01T00:34:21.035Z</time></trkpt><trkpt lat="43.5192622" lon="7.54258"><ele>0.0</ele><time>2026-05-01T00:34:22.035Z</time></trkpt><trkpt lat="43.5193099" lon="7.5426667"><ele>0.0</ele><time>2026-05-01T00:34:23.034Z</time></trkpt><trkpt lat="43.5193564" lon="7.5427517"><ele>0.0</ele><time>2026-05-01T00:34:24.035Z</time></trkpt><trkpt lat="43.5194052" lon="7.542838"><ele>0.0</ele><time>2026-05-01T00:34:25.034Z</time></trkpt><trkpt lat="43.5194536" lon="7.5429219"><ele>0.0</ele><time>2026-05-01T00:34:26.035Z</time></trkpt><trkpt lat="43.5195062" lon="7.5430033"><ele>0.0</ele><time>2026-05-01T00:34:27.035Z</time></trkpt><trkpt lat="43.5195569" lon="7.5430908"><ele>0.0</ele><time>2026-05-01T00:34:28.035Z</time></trkpt><trkpt lat="43.5196079" lon="7.5431777"><ele>0.0</ele><time>2026-05-01T00:34:29.035Z</time></trkpt><trkpt lat="43.5196583" lon="7.5432648"><ele>0.0</ele><time>2026-05-01T00:34:30.034Z</time></trkpt><trkpt lat="43.51971" lon="7.5433538"><ele>0.0</ele><time>2026-05-01T00:34:31.035Z</time></trkpt><trkpt lat="43.5197572" lon="7.5434374"><ele>0.0</ele><time>2026-05-01T00:34:32.035Z</time></trkpt><trkpt lat="43.5198052" lon="7.5435263"><ele>0.0</ele><time>2026-05-01T00:34:33.035Z</time></trkpt><trkpt lat="43.5198521" lon="7.5436066"><ele>0.0</ele><time>2026-05-01T00:34:34.034Z</time></trkpt><trkpt lat="43.5198987" lon="7.5436914"><ele>0.0</ele><time>2026-05-01T00:34:35.034Z</time></trkpt><trkpt lat="43.5200472" lon="7.5439417"><ele>0.0</ele><time>2026-05-01T00:34:38.034Z</time></trkpt><trkpt lat="43.5200982" lon="7.5440222"><ele>0.0</ele><time>2026-05-01T00:34:39.035Z</time></trkpt><trkpt lat="43.520148" lon="7.544102"><ele>0.0</ele><time>2026-05-01T00:34:40.034Z</time></trkpt><trkpt lat="43.5201951" lon="7.5441862"><ele>0.0</ele><time>2026-05-01T00:34:41.035Z</time></trkpt><trkpt lat="43.5202432" lon="7.5442774"><ele>0.0</ele><time>2026-05-01T00:34:42.035Z</time></trkpt><trkpt lat="43.5202918" lon="7.5443649"><ele>0.0</ele><time>2026-05-01T00:34:43.035Z</time></trkpt><trkpt lat="43.520343" lon="7.544453"><ele>0.0</ele><time>2026-05-01T00:34:44.034Z</time></trkpt><trkpt lat="43.5203953" lon="7.5445399"><ele>0.0</ele><time>2026-05-01T00:34:45.034Z</time></trkpt><trkpt lat="43.5204512" lon="7.5446248"><ele>0.0</ele><time>2026-05-01T00:34:46.035Z</time></trkpt><trkpt lat="43.5205013" lon="7.5447092"><ele>0.0</ele><time>2026-05-01T00:34:47.034Z</time></trkpt><trkpt lat="43.5205475" lon="7.5447927"><ele>0.0</ele><time>2026-05-01T00:34:48.035Z</time></trkpt><trkpt lat="43.5205938" lon="7.5448794"><ele>0.0</ele><time>2026-05-01T00:34:49.034Z</time></trkpt><trkpt lat="43.5206387" lon="7.544966"><ele>0.0</ele><time>2026-05-01T00:34:50.034Z</time></trkpt><trkpt lat="43.5206865" lon="7.5450484"><ele>0.0</ele><time>2026-05-01T00:34:51.034Z</time></trkpt><trkpt lat="43.5207377" lon="7.5451314"><ele>0.0</ele><time>2026-05-01T00:34:52.034Z</time></trkpt><trkpt lat="43.5207909" lon="7.5452153"><ele>0.0</ele><time>2026-05-01T00:34:53.034Z</time></trkpt><trkpt lat="43.5208416" lon="7.545304"><ele>0.0</ele><time>2026-05-01T00:34:54.034Z</time></trkpt><trkpt lat="43.520893" lon="7.5453941"><ele>0.0</ele><time>2026-05-01T00:34:55.034Z</time></trkpt><trkpt lat="43.520946" lon="7.5454801"><ele>0.0</ele><time>2026-05-01T00:34:56.035Z</time></trkpt><trkpt lat="43.5209995" lon="7.545562"><ele>0.0</ele><time>2026-05-01T00:34:57.035Z</time></trkpt><trkpt lat="43.5211055" lon="7.5457363"><ele>0.0</ele><time>2026-05-01T00:34:59.034Z</time></trkpt><trkpt lat="43.5211552" lon="7.5458232"><ele>0.0</ele><time>2026-05-01T00:35:00.035Z</time></trkpt><trkpt lat="43.5212065" lon="7.5459084"><ele>0.0</ele><time>2026-05-01T00:35:01.035Z</time></trkpt><trkpt lat="43.521257" lon="7.5459948"><ele>0.0</ele><time>2026-05-01T00:35:02.034Z</time></trkpt><trkpt lat="43.521307" lon="7.5460831"><ele>0.0</ele><time>2026-05-01T00:35:03.035Z</time></trkpt><trkpt lat="43.5213553" lon="7.5461698"><ele>0.0</ele><time>2026-05-01T00:35:04.034Z</time></trkpt><trkpt lat="43.5213993" lon="7.5462595"><ele>0.0</ele><time>2026-05-01T00:35:05.035Z</time></trkpt><trkpt lat="43.5214438" lon="7.5463512"><ele>0.0</ele><time>2026-05-01T00:35:06.034Z</time></trkpt><trkpt lat="43.5214889" lon="7.5464409"><ele>0.0</ele><time>2026-05-01T00:35:07.035Z</time></trkpt><trkpt lat="43.5215899" lon="7.5466123"><ele>0.0</ele><time>2026-05-01T00:35:09.035Z</time></trkpt><trkpt lat="43.5216384" lon="7.5466956"><ele>0.0</ele><time>2026-05-01T00:35:10.035Z</time></trkpt><trkpt lat="43.5216858" lon="7.5467798"><ele>0.0</ele><time>2026-05-01T00:35:11.034Z</time></trkpt><trkpt lat="43.5217349" lon="7.5468651"><ele>0.0</ele><time>2026-05-01T00:35:12.034Z</time></trkpt><trkpt lat="43.5217833" lon="7.5469529"><ele>0.0</ele><time>2026-05-01T00:35:13.035Z</time></trkpt><trkpt lat="43.5218344" lon="7.5470385"><ele>0.0</ele><time>2026-05-01T00:35:14.035Z</time></trkpt><trkpt lat="43.5218849" lon="7.5471239"><ele>0.0</ele><time>2026-05-01T00:35:15.034Z</time></trkpt><trkpt lat="43.5219348" lon="7.5472058"><ele>0.0</ele><time>2026-05-01T00:35:16.034Z</time></trkpt><trkpt lat="43.5219847" lon="7.5472886"><ele>0.0</ele><time>2026-05-01T00:35:17.035Z</time></trkpt><trkpt lat="43.5220318" lon="7.5473676"><ele>0.0</ele><time>2026-05-01T00:35:18.034Z</time></trkpt><trkpt lat="43.5221292" lon="7.5475401"><ele>0.0</ele><time>2026-05-01T00:35:20.035Z</time></trkpt><trkpt lat="43.5221726" lon="7.5476283"><ele>0.0</ele><time>2026-05-01T00:35:21.034Z</time></trkpt><trkpt lat="43.5222216" lon="7.5477091"><ele>0.0</ele><time>2026-05-01T00:35:22.035Z</time></trkpt><trkpt lat="43.5222715" lon="7.5477888"><ele>0.0</ele><time>2026-05-01T00:35:23.034Z</time></trkpt><trkpt lat="43.5223173" lon="7.5478743"><ele>0.0</ele><time>2026-05-01T00:35:24.034Z</time></trkpt><trkpt lat="43.5223664" lon="7.5479639"><ele>0.0</ele><time>2026-05-01T00:35:25.035Z</time></trkpt><trkpt lat="43.522418" lon="7.5480484"><ele>0.0</ele><time>2026-05-01T00:35:26.034Z</time></trkpt><trkpt lat="43.5224654" lon="7.5481362"><ele>0.0</ele><time>2026-05-01T00:35:27.035Z</time></trkpt><trkpt lat="43.5225146" lon="7.5482274"><ele>0.0</ele><time>2026-05-01T00:35:28.034Z</time></trkpt><trkpt lat="43.5225601" lon="7.5483164"><ele>0.0</ele><time>2026-05-01T00:35:29.035Z</time></trkpt><trkpt lat="43.5226081" lon="7.5484057"><ele>0.0</ele><time>2026-05-01T00:35:30.035Z</time></trkpt><trkpt lat="43.5226564" lon="7.5484906"><ele>0.0</ele><time>2026-05-01T00:35:31.035Z</time></trkpt><trkpt lat="43.5227109" lon="7.5485673"><ele>0.0</ele><time>2026-05-01T00:35:32.034Z</time></trkpt><trkpt lat="43.5227631" lon="7.5486479"><ele>0.0</ele><time>2026-05-01T00:35:33.034Z</time></trkpt><trkpt lat="43.5228167" lon="7.5487338"><ele>0.0</ele><time>2026-05-01T00:35:34.034Z</time></trkpt><trkpt lat="43.5228727" lon="7.5488164"><ele>0.0</ele><time>2026-05-01T00:35:35.035Z</time></trkpt><trkpt lat="43.5229267" lon="7.548898"><ele>0.0</ele><time>2026-05-01T00:35:36.034Z</time></trkpt><trkpt lat="43.5229737" lon="7.5489845"><ele>0.0</ele><time>2026-05-01T00:35:37.035Z</time></trkpt><trkpt lat="43.5230217" lon="7.5490684"><ele>0.0</ele><time>2026-05-01T00:35:38.034Z</time></trkpt><trkpt lat="43.5230671" lon="7.5491468"><ele>0.0</ele><time>2026-05-01T00:35:39.034Z</time></trkpt><trkpt lat="43.5232224" lon="7.5493944"><ele>0.0</ele><time>2026-05-01T00:35:42.034Z</time></trkpt><trkpt lat="43.5232747" lon="7.5494777"><ele>0.0</ele><time>2026-05-01T00:35:43.035Z</time></trkpt><trkpt lat="43.5233266" lon="7.54956"><ele>0.0</ele><time>2026-05-01T00:35:44.034Z</time></trkpt><trkpt lat="43.523375" lon="7.5496422"><ele>0.0</ele><time>2026-05-01T00:35:45.034Z</time></trkpt><trkpt lat="43.523419" lon="7.5497201"><ele>0.0</ele><time>2026-05-01T00:35:46.035Z</time></trkpt><trkpt lat="43.5234648" lon="7.5498068"><ele>0.0</ele><time>2026-05-01T00:35:47.035Z</time></trkpt><trkpt lat="43.5235164" lon="7.5498935"><ele>0.0</ele><time>2026-05-01T00:35:48.034Z</time></trkpt><trkpt lat="43.5235693" lon="7.549981"><ele>0.0</ele><time>2026-05-01T00:35:49.035Z</time></trkpt><trkpt lat="43.5236189" lon="7.5500666"><ele>0.0</ele><time>2026-05-01T00:35:50.034Z</time></trkpt><trkpt lat="43.5236671" lon="7.5501456"><ele>0.0</ele><time>2026-05-01T00:35:51.033Z</time></trkpt><trkpt lat="43.5237195" lon="7.5502278"><ele>0.0</ele><time>2026-05-01T00:35:52.033Z</time></trkpt><trkpt lat="43.5237705" lon="7.5503132"><ele>0.0</ele><time>2026-05-01T00:35:53.034Z</time></trkpt><trkpt lat="43.5238205" lon="7.5503953"><ele>0.0</ele><time>2026-05-01T00:35:54.033Z</time></trkpt><trkpt lat="43.5238715" lon="7.5504781"><ele>0.0</ele><time>2026-05-01T00:35:55.033Z</time></trkpt><trkpt lat="43.5239221" lon="7.5505602"><ele>0.0</ele><time>2026-05-01T00:35:56.033Z</time></trkpt><trkpt lat="43.5239707" lon="7.5506416"><ele>0.0</ele><time>2026-05-01T00:35:57.033Z</time></trkpt><trkpt lat="43.5240186" lon="7.5507246"><ele>0.0</ele><time>2026-05-01T00:35:58.033Z</time></trkpt><trkpt lat="43.5240641" lon="7.5508138"><ele>0.0</ele><time>2026-05-01T00:35:59.033Z</time></trkpt><trkpt lat="43.5241116" lon="7.5509056"><ele>0.0</ele><time>2026-05-01T00:36:00.034Z</time></trkpt><trkpt lat="43.5241554" lon="7.5509974"><ele>0.0</ele><time>2026-05-01T00:36:01.034Z</time></trkpt><trkpt lat="43.5242432" lon="7.5511701"><ele>0.0</ele><time>2026-05-01T00:36:03.033Z</time></trkpt><trkpt lat="43.5242919" lon="7.5512523"><ele>0.0</ele><time>2026-05-01T00:36:04.034Z</time></trkpt><trkpt lat="43.5243414" lon="7.5513352"><ele>0.0</ele><time>2026-05-01T00:36:05.034Z</time></trkpt><trkpt lat="43.5243928" lon="7.5514183"><ele>0.0</ele><time>2026-05-01T00:36:06.034Z</time></trkpt><trkpt lat="43.524446" lon="7.5515031"><ele>0.0</ele><time>2026-05-01T00:36:07.034Z</time></trkpt><trkpt lat="43.5244966" lon="7.5515866"><ele>0.0</ele><time>2026-05-01T00:36:08.033Z</time></trkpt><trkpt lat="43.5245492" lon="7.5516683"><ele>0.0</ele><time>2026-05-01T00:36:09.033Z</time></trkpt><trkpt lat="43.5245997" lon="7.5517541"><ele>0.0</ele><time>2026-05-01T00:36:10.034Z</time></trkpt><trkpt lat="43.5246513" lon="7.5518416"><ele>0.0</ele><time>2026-05-01T00:36:11.034Z</time></trkpt><trkpt lat="43.5247014" lon="7.5519268"><ele>0.0</ele><time>2026-05-01T00:36:12.033Z</time></trkpt><trkpt lat="43.5247938" lon="7.5521054"><ele>0.0</ele><time>2026-05-01T00:36:14.034Z</time></trkpt><trkpt lat="43.5248361" lon="7.5521958"><ele>0.0</ele><time>2026-05-01T00:36:15.034Z</time></trkpt><trkpt lat="43.5248807" lon="7.5522844"><ele>0.0</ele><time>2026-05-01T00:36:16.034Z</time></trkpt><trkpt lat="43.5249267" lon="7.5523693"><ele>0.0</ele><time>2026-05-01T00:36:17.033Z</time></trkpt><trkpt lat="43.5249751" lon="7.5524546"><ele>0.0</ele><time>2026-05-01T00:36:18.034Z</time></trkpt><trkpt lat="43.5250217" lon="7.5525414"><ele>0.0</ele><time>2026-05-01T00:36:19.033Z</time></trkpt><trkpt lat="43.5250617" lon="7.5526298"><ele>0.0</ele><time>2026-05-01T00:36:20.034Z</time></trkpt><trkpt lat="43.5251051" lon="7.5527161"><ele>0.0</ele><time>2026-05-01T00:36:21.034Z</time></trkpt><trkpt lat="43.5251501" lon="7.5528031"><ele>0.0</ele><time>2026-05-01T00:36:22.033Z</time></trkpt><trkpt lat="43.5252422" lon="7.552979"><ele>0.0</ele><time>2026-05-01T00:36:24.034Z</time></trkpt><trkpt lat="43.5252847" lon="7.5530684"><ele>0.0</ele><time>2026-05-01T00:36:25.034Z</time></trkpt><trkpt lat="43.5253291" lon="7.5531576"><ele>0.0</ele><time>2026-05-01T00:36:26.033Z</time></trkpt><trkpt lat="43.5253782" lon="7.5532444"><ele>0.0</ele><time>2026-05-01T00:36:27.033Z</time></trkpt><trkpt lat="43.5254258" lon="7.5533268"><ele>0.0</ele><time>2026-05-01T00:36:28.033Z</time></trkpt><trkpt lat="43.5254719" lon="7.5534127"><ele>0.0</ele><time>2026-05-01T00:36:29.033Z</time></trkpt><trkpt lat="43.5255214" lon="7.5535038"><ele>0.0</ele><time>2026-05-01T00:36:30.033Z</time></trkpt><trkpt lat="43.5255688" lon="7.5535918"><ele>0.0</ele><time>2026-05-01T00:36:31.033Z</time></trkpt><trkpt lat="43.5256259" lon="7.5536726"><ele>0.0</ele><time>2026-05-01T00:36:32.034Z</time></trkpt><trkpt lat="43.5256794" lon="7.5537547"><ele>0.0</ele><time>2026-05-01T00:36:33.033Z</time></trkpt><trkpt lat="43.5257301" lon="7.5538384"><ele>0.0</ele><time>2026-05-01T00:36:34.034Z</time></trkpt><trkpt lat="43.5257797" lon="7.5539205"><ele>0.0</ele><time>2026-05-01T00:36:35.034Z</time></trkpt><trkpt lat="43.525831" lon="7.5540063"><ele>0.0</ele><time>2026-05-01T00:36:36.033Z</time></trkpt><trkpt lat="43.5258829" lon="7.5540902"><ele>0.0</ele><time>2026-05-01T00:36:37.034Z</time></trkpt><trkpt lat="43.5259288" lon="7.554177"><ele>0.0</ele><time>2026-05-01T00:36:38.033Z</time></trkpt><trkpt lat="43.5259811" lon="7.5542648"><ele>0.0</ele><time>2026-05-01T00:36:39.034Z</time></trkpt><trkpt lat="43.5260329" lon="7.5543461"><ele>0.0</ele><time>2026-05-01T00:36:40.033Z</time></trkpt><trkpt lat="43.5260872" lon="7.5544254"><ele>0.0</ele><time>2026-05-01T00:36:41.034Z</time></trkpt><trkpt lat="43.5261426" lon="7.5545083"><ele>0.0</ele><time>2026-05-01T00:36:42.033Z</time></trkpt><trkpt lat="43.5261978" lon="7.5545905"><ele>0.0</ele><time>2026-05-01T00:36:43.034Z</time></trkpt><trkpt lat="43.526304" lon="7.5547567"><ele>0.0</ele><time>2026-05-01T00:36:45.033Z</time></trkpt><trkpt lat="43.5263955" lon="7.5549258"><ele>0.0</ele><time>2026-05-01T00:36:47.033Z</time></trkpt><trkpt lat="43.5264405" lon="7.5550011"><ele>0.0</ele><time>2026-05-01T00:36:48.034Z</time></trkpt><trkpt lat="43.5264852" lon="7.5550831"><ele>0.0</ele><time>2026-05-01T00:36:49.033Z</time></trkpt><trkpt lat="43.5265304" lon="7.5551652"><ele>0.0</ele><time>2026-05-01T00:36:50.034Z</time></trkpt><trkpt lat="43.5265784" lon="7.5552539"><ele>0.0</ele><time>2026-05-01T00:36:51.033Z</time></trkpt><trkpt lat="43.5266283" lon="7.5553395"><ele>0.0</ele><time>2026-05-01T00:36:52.033Z</time></trkpt><trkpt lat="43.5266768" lon="7.5554293"><ele>0.0</ele><time>2026-05-01T00:36:53.033Z</time></trkpt><trkpt lat="43.5267281" lon="7.5555118"><ele>0.0</ele><time>2026-05-01T00:36:54.033Z</time></trkpt><trkpt lat="43.5267813" lon="7.555599"><ele>0.0</ele><time>2026-05-01T00:36:55.033Z</time></trkpt><trkpt lat="43.5268347" lon="7.5556849"><ele>0.0</ele><time>2026-05-01T00:36:56.034Z</time></trkpt><trkpt lat="43.5268853" lon="7.5557716"><ele>0.0</ele><time>2026-05-01T00:36:57.033Z</time></trkpt><trkpt lat="43.5269267" lon="7.5558626"><ele>0.0</ele><time>2026-05-01T00:36:58.034Z</time></trkpt><trkpt lat="43.5269702" lon="7.5559489"><ele>0.0</ele><time>2026-05-01T00:36:59.033Z</time></trkpt><trkpt lat="43.5270168" lon="7.5560304"><ele>0.0</ele><time>2026-05-01T00:37:00.033Z</time></trkpt><trkpt lat="43.5270581" lon="7.5561174"><ele>0.0</ele><time>2026-05-01T00:37:01.033Z</time></trkpt><trkpt lat="43.5270946" lon="7.5562047"><ele>0.0</ele><time>2026-05-01T00:37:02.033Z</time></trkpt><trkpt lat="43.5271378" lon="7.556291"><ele>0.0</ele><time>2026-05-01T00:37:03.034Z</time></trkpt><trkpt lat="43.5272328" lon="7.5564633"><ele>0.0</ele><time>2026-05-01T00:37:05.033Z</time></trkpt><trkpt lat="43.5272901" lon="7.5565541"><ele>0.0</ele><time>2026-05-01T00:37:06.033Z</time></trkpt><trkpt lat="43.5273442" lon="7.5566456"><ele>0.0</ele><time>2026-05-01T00:37:07.033Z</time></trkpt><trkpt lat="43.5273965" lon="7.5567361"><ele>0.0</ele><time>2026-05-01T00:37:08.033Z</time></trkpt><trkpt lat="43.5274455" lon="7.5568216"><ele>0.0</ele><time>2026-05-01T00:37:09.033Z</time></trkpt><trkpt lat="43.5274924" lon="7.5569036"><ele>0.0</ele><time>2026-05-01T00:37:10.033Z</time></trkpt><trkpt lat="43.5275358" lon="7.5569877"><ele>0.0</ele><time>2026-05-01T00:37:11.034Z</time></trkpt><trkpt lat="43.527585" lon="7.5570698"><ele>0.0</ele><time>2026-05-01T00:37:12.033Z</time></trkpt><trkpt lat="43.5276363" lon="7.5571558"><ele>0.0</ele><time>2026-05-01T00:37:13.034Z</time></trkpt><trkpt lat="43.5276909" lon="7.557242"><ele>0.0</ele><time>2026-05-01T00:37:14.034Z</time></trkpt><trkpt lat="43.5277459" lon="7.5573283"><ele>0.0</ele><time>2026-05-01T00:37:15.034Z</time></trkpt><trkpt lat="43.527795" lon="7.557414"><ele>0.0</ele><time>2026-05-01T00:37:16.033Z</time></trkpt><trkpt lat="43.5278489" lon="7.557497"><ele>0.0</ele><time>2026-05-01T00:37:17.034Z</time></trkpt><trkpt lat="43.5279443" lon="7.5576766"><ele>0.0</ele><time>2026-05-01T00:37:19.034Z</time></trkpt><trkpt lat="43.5279976" lon="7.5577602"><ele>0.0</ele><time>2026-05-01T00:37:20.033Z</time></trkpt><trkpt lat="43.528048" lon="7.5578414"><ele>0.0</ele><time>2026-05-01T00:37:21.033Z</time></trkpt><trkpt lat="43.5280961" lon="7.5579238"><ele>0.0</ele><time>2026-05-01T00:37:22.034Z</time></trkpt><trkpt lat="43.5281458" lon="7.5580083"><ele>0.0</ele><time>2026-05-01T00:37:23.033Z</time></trkpt><trkpt lat="43.5281902" lon="7.5580946"><ele>0.0</ele><time>2026-05-01T00:37:24.034Z</time></trkpt><trkpt lat="43.5282865" lon="7.5582687"><ele>0.0</ele><time>2026-05-01T00:37:26.033Z</time></trkpt><trkpt lat="43.5283333" lon="7.5583525"><ele>0.0</ele><time>2026-05-01T00:37:27.033Z</time></trkpt><trkpt lat="43.5284122" lon="7.5585317"><ele>0.0</ele><time>2026-05-01T00:37:30.154Z</time></trkpt><trkpt lat="43.5284889" lon="7.5586692"><ele>0.0</ele><time>2026-05-01T00:37:31.16Z</time></trkpt><trkpt lat="43.5285441" lon="7.5587657"><ele>0.0</ele><time>2026-05-01T00:37:32.066Z</time></trkpt><trkpt lat="43.5286003" lon="7.5588633"><ele>0.0</ele><time>2026-05-01T00:37:33.071Z</time></trkpt><trkpt lat="43.5286629" lon="7.5589614"><ele>0.0</ele><time>2026-05-01T00:37:34.033Z</time></trkpt><trkpt lat="43.5287124" lon="7.5590467"><ele>0.0</ele><time>2026-05-01T00:37:35.034Z</time></trkpt><trkpt lat="43.5287564" lon="7.5591341"><ele>0.0</ele><time>2026-05-01T00:37:36.033Z</time></trkpt><trkpt lat="43.5288093" lon="7.5592186"><ele>0.0</ele><time>2026-05-01T00:37:37.033Z</time></trkpt><trkpt lat="43.5288646" lon="7.5593037"><ele>0.0</ele><time>2026-05-01T00:37:38.034Z</time></trkpt><trkpt lat="43.5289179" lon="7.5593887"><ele>0.0</ele><time>2026-05-01T00:37:39.033Z</time></trkpt><trkpt lat="43.5289697" lon="7.5594734"><ele>0.0</ele><time>2026-05-01T00:37:40.034Z</time></trkpt><trkpt lat="43.5290203" lon="7.5595595"><ele>0.0</ele><time>2026-05-01T00:37:41.034Z</time></trkpt><trkpt lat="43.5290716" lon="7.5596443"><ele>0.0</ele><time>2026-05-01T00:37:42.033Z</time></trkpt><trkpt lat="43.529125" lon="7.5597326"><ele>0.0</ele><time>2026-05-01T00:37:43.033Z</time></trkpt><trkpt lat="43.5291757" lon="7.5598208"><ele>0.0</ele><time>2026-05-01T00:37:44.033Z</time></trkpt><trkpt lat="43.5292259" lon="7.5599075"><ele>0.0</ele><time>2026-05-01T00:37:45.034Z</time></trkpt><trkpt lat="43.5293195" lon="7.5600816"><ele>0.0</ele><time>2026-05-01T00:37:47.033Z</time></trkpt><trkpt lat="43.5293667" lon="7.5601707"><ele>0.0</ele><time>2026-05-01T00:37:48.033Z</time></trkpt><trkpt lat="43.5294137" lon="7.5602643"><ele>0.0</ele><time>2026-05-01T00:37:49.034Z</time></trkpt><trkpt lat="43.5294588" lon="7.5603569"><ele>0.0</ele><time>2026-05-01T00:37:50.033Z</time></trkpt><trkpt lat="43.5295468" lon="7.5605277"><ele>0.0</ele><time>2026-05-01T00:37:52.034Z</time></trkpt><trkpt lat="43.5295922" lon="7.5606096"><ele>0.0</ele><time>2026-05-01T00:37:53.034Z</time></trkpt><trkpt lat="43.5296415" lon="7.5606941"><ele>0.0</ele><time>2026-05-01T00:37:54.034Z</time></trkpt><trkpt lat="43.5296925" lon="7.5607826"><ele>0.0</ele><time>2026-05-01T00:37:55.034Z</time></trkpt><trkpt lat="43.5297402" lon="7.5608699"><ele>0.0</ele><time>2026-05-01T00:37:56.033Z</time></trkpt><trkpt lat="43.5297869" lon="7.5609554"><ele>0.0</ele><time>2026-05-01T00:37:57.034Z</time></trkpt><trkpt lat="43.5298347" lon="7.5610442"><ele>0.0</ele><time>2026-05-01T00:37:58.033Z</time></trkpt><trkpt lat="43.5298834" lon="7.5611331"><ele>0.0</ele><time>2026-05-01T00:37:59.033Z</time></trkpt><trkpt lat="43.5299319" lon="7.5612187"><ele>0.0</ele><time>2026-05-01T00:38:00.033Z</time></trkpt><trkpt lat="43.5299798" lon="7.561305"><ele>0.0</ele><time>2026-05-01T00:38:01.034Z</time></trkpt><trkpt lat="43.5300297" lon="7.5613948"><ele>0.0</ele><time>2026-05-01T00:38:02.033Z</time></trkpt><trkpt lat="43.5300811" lon="7.5614836"><ele>0.0</ele><time>2026-05-01T00:38:03.033Z</time></trkpt><trkpt lat="43.5301257" lon="7.5615703"><ele>0.0</ele><time>2026-05-01T00:38:04.033Z</time></trkpt><trkpt lat="43.5301764" lon="7.5616549"><ele>0.0</ele><time>2026-05-01T00:38:05.033Z</time></trkpt><trkpt lat="43.5302266" lon="7.5617399"><ele>0.0</ele><time>2026-05-01T00:38:06.033Z</time></trkpt><trkpt lat="43.5303147" lon="7.5619116"><ele>0.0</ele><time>2026-05-01T00:38:08.033Z</time></trkpt><trkpt lat="43.5303562" lon="7.5619996"><ele>0.0</ele><time>2026-05-01T00:38:09.034Z</time></trkpt><trkpt lat="43.5303992" lon="7.5620892"><ele>0.0</ele><time>2026-05-01T00:38:10.034Z</time></trkpt><trkpt lat="43.5304453" lon="7.562179"><ele>0.0</ele><time>2026-05-01T00:38:11.033Z</time></trkpt><trkpt lat="43.530495" lon="7.5622691"><ele>0.0</ele><time>2026-05-01T00:38:12.034Z</time></trkpt><trkpt lat="43.5305475" lon="7.5623553"><ele>0.0</ele><time>2026-05-01T00:38:13.034Z</time></trkpt><trkpt lat="43.5305921" lon="7.5624417"><ele>0.0</ele><time>2026-05-01T00:38:14.034Z</time></trkpt><trkpt lat="43.5306367" lon="7.562527"><ele>0.0</ele><time>2026-05-01T00:38:15.033Z</time></trkpt><trkpt lat="43.5306803" lon="7.5626105"><ele>0.0</ele><time>2026-05-01T00:38:16.034Z</time></trkpt><trkpt lat="43.5307266" lon="7.5626967"><ele>0.0</ele><time>2026-05-01T00:38:17.034Z</time></trkpt><trkpt lat="43.5307763" lon="7.5627805"><ele>0.0</ele><time>2026-05-01T00:38:18.034Z</time></trkpt><trkpt lat="43.5308295" lon="7.5628592"><ele>0.0</ele><time>2026-05-01T00:38:19.034Z</time></trkpt><trkpt lat="43.530877" lon="7.5629404"><ele>0.0</ele><time>2026-05-01T00:38:20.033Z</time></trkpt><trkpt lat="43.5309294" lon="7.5630192"><ele>0.0</ele><time>2026-05-01T00:38:21.034Z</time></trkpt><trkpt lat="43.5309784" lon="7.5631019"><ele>0.0</ele><time>2026-05-01T00:38:22.034Z</time></trkpt><trkpt lat="43.5310284" lon="7.5631807"><ele>0.0</ele><time>2026-05-01T00:38:23.033Z</time></trkpt><trkpt lat="43.5310742" lon="7.5632617"><ele>0.0</ele><time>2026-05-01T00:38:24.033Z</time></trkpt><trkpt lat="43.5311264" lon="7.5633446"><ele>0.0</ele><time>2026-05-01T00:38:25.033Z</time></trkpt><trkpt lat="43.5311783" lon="7.5634295"><ele>0.0</ele><time>2026-05-01T00:38:26.034Z</time></trkpt><trkpt lat="43.5312287" lon="7.5635152"><ele>0.0</ele><time>2026-05-01T00:38:27.033Z</time></trkpt><trkpt lat="43.5313245" lon="7.5636875"><ele>0.0</ele><time>2026-05-01T00:38:29.033Z</time></trkpt><trkpt lat="43.5313663" lon="7.5637786"><ele>0.0</ele><time>2026-05-01T00:38:30.033Z</time></trkpt><trkpt lat="43.5314121" lon="7.5638679"><ele>0.0</ele><time>2026-05-01T00:38:31.033Z</time></trkpt><trkpt lat="43.5314618" lon="7.5639573"><ele>0.0</ele><time>2026-05-01T00:38:32.034Z</time></trkpt><trkpt lat="43.531509" lon="7.5640453"><ele>0.0</ele><time>2026-05-01T00:38:33.034Z</time></trkpt><trkpt lat="43.5315535" lon="7.5641298"><ele>0.0</ele><time>2026-05-01T00:38:34.034Z</time></trkpt><trkpt lat="43.5316028" lon="7.5642189"><ele>0.0</ele><time>2026-05-01T00:38:35.034Z</time></trkpt><trkpt lat="43.5316531" lon="7.5643125"><ele>0.0</ele><time>2026-05-01T00:38:36.033Z</time></trkpt><trkpt lat="43.531702" lon="7.5644014"><ele>0.0</ele><time>2026-05-01T00:38:37.034Z</time></trkpt><trkpt lat="43.5317461" lon="7.5644899"><ele>0.0</ele><time>2026-05-01T00:38:38.033Z</time></trkpt><trkpt lat="43.5317936" lon="7.5645734"><ele>0.0</ele><time>2026-05-01T00:38:39.033Z</time></trkpt><trkpt lat="43.5318418" lon="7.5646609"><ele>0.0</ele><time>2026-05-01T00:38:40.034Z</time></trkpt><trkpt lat="43.5318933" lon="7.564745"><ele>0.0</ele><time>2026-05-01T00:38:41.034Z</time></trkpt><trkpt lat="43.5319437" lon="7.5648312"><ele>0.0</ele><time>2026-05-01T00:38:42.033Z</time></trkpt><trkpt lat="43.5319936" lon="7.5649179"><ele>0.0</ele><time>2026-05-01T00:38:43.033Z</time></trkpt><trkpt lat="43.532045" lon="7.5650046"><ele>0.0</ele><time>2026-05-01T00:38:44.034Z</time></trkpt><trkpt lat="43.532094" lon="7.5650931"><ele>0.0</ele><time>2026-05-01T00:38:45.034Z</time></trkpt><trkpt lat="43.5321377" lon="7.56518"><ele>0.0</ele><time>2026-05-01T00:38:46.034Z</time></trkpt><trkpt lat="43.5321851" lon="7.5652621"><ele>0.0</ele><time>2026-05-01T00:38:47.033Z</time></trkpt><trkpt lat="43.5322347" lon="7.5653452"><ele>0.0</ele><time>2026-05-01T00:38:48.033Z</time></trkpt><trkpt lat="43.5323313" lon="7.56551"><ele>0.0</ele><time>2026-05-01T00:38:50.033Z</time></trkpt><trkpt lat="43.5323824" lon="7.5655977"><ele>0.0</ele><time>2026-05-01T00:38:51.033Z</time></trkpt><trkpt lat="43.532433" lon="7.5656834"><ele>0.0</ele><time>2026-05-01T00:38:52.034Z</time></trkpt><trkpt lat="43.5324816" lon="7.5657682"><ele>0.0</ele><time>2026-05-01T00:38:53.034Z</time></trkpt><trkpt lat="43.5325257" lon="7.5658532"><ele>0.0</ele><time>2026-05-01T00:38:54.033Z</time></trkpt><trkpt lat="43.5326295" lon="7.5660246"><ele>0.0</ele><time>2026-05-01T00:38:56.033Z</time></trkpt><trkpt lat="43.5326803" lon="7.566113"><ele>0.0</ele><time>2026-05-01T00:38:57.033Z</time></trkpt><trkpt lat="43.5327316" lon="7.5662046"><ele>0.0</ele><time>2026-05-01T00:38:58.034Z</time></trkpt><trkpt lat="43.5327833" lon="7.5662933"><ele>0.0</ele><time>2026-05-01T00:38:59.033Z</time></trkpt><trkpt lat="43.5328332" lon="7.5663786"><ele>0.0</ele><time>2026-05-01T00:39:00.034Z</time></trkpt><trkpt lat="43.5328843" lon="7.566466"><ele>0.0</ele><time>2026-05-01T00:39:01.034Z</time></trkpt><trkpt lat="43.5329393" lon="7.5665486"><ele>0.0</ele><time>2026-05-01T00:39:02.033Z</time></trkpt><trkpt lat="43.5329902" lon="7.5666344"><ele>0.0</ele><time>2026-05-01T00:39:03.033Z</time></trkpt><trkpt lat="43.5330403" lon="7.5667185"><ele>0.0</ele><time>2026-05-01T00:39:04.033Z</time></trkpt><trkpt lat="43.5330901" lon="7.5668031"><ele>0.0</ele><time>2026-05-01T00:39:05.033Z</time></trkpt><trkpt lat="43.5331356" lon="7.5668898"><ele>0.0</ele><time>2026-05-01T00:39:06.033Z</time></trkpt><trkpt lat="43.5331793" lon="7.5669763"><ele>0.0</ele><time>2026-05-01T00:39:07.033Z</time></trkpt><trkpt lat="43.5332241" lon="7.5670629"><ele>0.0</ele><time>2026-05-01T00:39:08.034Z</time></trkpt><trkpt lat="43.5332689" lon="7.5671511"><ele>0.0</ele><time>2026-05-01T00:39:09.034Z</time></trkpt><trkpt lat="43.5333614" lon="7.5673199"><ele>0.0</ele><time>2026-05-01T00:39:11.033Z</time></trkpt><trkpt lat="43.5334112" lon="7.5674065"><ele>0.0</ele><time>2026-05-01T00:39:12.033Z</time></trkpt><trkpt lat="43.5334613" lon="7.5674913"><ele>0.0</ele><time>2026-05-01T00:39:13.033Z</time></trkpt><trkpt lat="43.53351" lon="7.5675781"><ele>0.0</ele><time>2026-05-01T00:39:14.034Z</time></trkpt><trkpt lat="43.53356" lon="7.5676647"><ele>0.0</ele><time>2026-05-01T00:39:15.034Z</time></trkpt><trkpt lat="43.5336112" lon="7.5677544"><ele>0.0</ele><time>2026-05-01T00:39:16.034Z</time></trkpt><trkpt lat="43.5336627" lon="7.5678436"><ele>0.0</ele><time>2026-05-01T00:39:17.034Z</time></trkpt><trkpt lat="43.5337131" lon="7.5679305"><ele>0.0</ele><time>2026-05-01T00:39:18.033Z</time></trkpt><trkpt lat="43.533766" lon="7.5680167"><ele>0.0</ele><time>2026-05-01T00:39:19.033Z</time></trkpt><trkpt lat="43.5338209" lon="7.5681061"><ele>0.0</ele><time>2026-05-01T00:39:20.033Z</time></trkpt><trkpt lat="43.5338776" lon="7.5681937"><ele>0.0</ele><time>2026-05-01T00:39:21.033Z</time></trkpt><trkpt lat="43.5339283" lon="7.5682815"><ele>0.0</ele><time>2026-05-01T00:39:22.033Z</time></trkpt><trkpt lat="43.5339799" lon="7.5683637"><ele>0.0</ele><time>2026-05-01T00:39:23.033Z</time></trkpt><trkpt lat="43.5340255" lon="7.5684466"><ele>0.0</ele><time>2026-05-01T00:39:24.034Z</time></trkpt><trkpt lat="43.5340717" lon="7.5685321"><ele>0.0</ele><time>2026-05-01T00:39:25.033Z</time></trkpt><trkpt lat="43.5341212" lon="7.5686173"><ele>0.0</ele><time>2026-05-01T00:39:26.033Z</time></trkpt><trkpt lat="43.5341699" lon="7.5687008"><ele>0.0</ele><time>2026-05-01T00:39:27.033Z</time></trkpt><trkpt lat="43.5342644" lon="7.568864"><ele>0.0</ele><time>2026-05-01T00:39:29.034Z</time></trkpt><trkpt lat="43.5343105" lon="7.5689473"><ele>0.0</ele><time>2026-05-01T00:39:30.033Z</time></trkpt><trkpt lat="43.5343989" lon="7.5691201"><ele>0.0</ele><time>2026-05-01T00:39:32.033Z</time></trkpt><trkpt lat="43.5344433" lon="7.5692111"><ele>0.0</ele><time>2026-05-01T00:39:33.034Z</time></trkpt><trkpt lat="43.5344874" lon="7.5692998"><ele>0.0</ele><time>2026-05-01T00:39:34.034Z</time></trkpt><trkpt lat="43.5345352" lon="7.5693852"><ele>0.0</ele><time>2026-05-01T00:39:35.034Z</time></trkpt><trkpt lat="43.5345833" lon="7.5694732"><ele>0.0</ele><time>2026-05-01T00:39:36.033Z</time></trkpt><trkpt lat="43.5346361" lon="7.5695596"><ele>0.0</ele><time>2026-05-01T00:39:37.033Z</time></trkpt><trkpt lat="43.5346879" lon="7.5696476"><ele>0.0</ele><time>2026-05-01T00:39:38.033Z</time></trkpt><trkpt lat="43.5347339" lon="7.5697374"><ele>0.0</ele><time>2026-05-01T00:39:39.034Z</time></trkpt><trkpt lat="43.5347832" lon="7.5698237"><ele>0.0</ele><time>2026-05-01T00:39:40.033Z</time></trkpt><trkpt lat="43.5348352" lon="7.5699106"><ele>0.0</ele><time>2026-05-01T00:39:41.034Z</time></trkpt><trkpt lat="43.5348854" lon="7.5699953"><ele>0.0</ele><time>2026-05-01T00:39:42.033Z</time></trkpt><trkpt lat="43.5349419" lon="7.5700816"><ele>0.0</ele><time>2026-05-01T00:39:43.034Z</time></trkpt><trkpt lat="43.5349868" lon="7.5701684"><ele>0.0</ele><time>2026-05-01T00:39:44.034Z</time></trkpt><trkpt lat="43.535037" lon="7.5702486"><ele>0.0</ele><time>2026-05-01T00:39:45.034Z</time></trkpt><trkpt lat="43.5350887" lon="7.5703327"><ele>0.0</ele><time>2026-05-01T00:39:46.033Z</time></trkpt><trkpt lat="43.53514" lon="7.570421"><ele>0.0</ele><time>2026-05-01T00:39:47.034Z</time></trkpt><trkpt lat="43.5351956" lon="7.5705082"><ele>0.0</ele><time>2026-05-01T00:39:48.033Z</time></trkpt><trkpt lat="43.5352507" lon="7.5705966"><ele>0.0</ele><time>2026-05-01T00:39:49.033Z</time></trkpt><trkpt lat="43.535317" lon="7.5707008"><ele>0.0</ele><time>2026-05-01T00:39:50.033Z</time></trkpt><trkpt lat="43.5353699" lon="7.5707943"><ele>0.0</ele><time>2026-05-01T00:39:51.033Z</time></trkpt><trkpt lat="43.5354775" lon="7.5709583"><ele>0.0</ele><time>2026-05-01T00:39:53.034Z</time></trkpt><trkpt lat="43.5355286" lon="7.5710399"><ele>0.0</ele><time>2026-05-01T00:39:54.034Z</time></trkpt><trkpt lat="43.5355756" lon="7.5711278"><ele>0.0</ele><time>2026-05-01T00:39:55.033Z</time></trkpt><trkpt lat="43.5356237" lon="7.5712119"><ele>0.0</ele><time>2026-05-01T00:39:56.033Z</time></trkpt><trkpt lat="43.5356747" lon="7.5712938"><ele>0.0</ele><time>2026-05-01T00:39:57.034Z</time></trkpt><trkpt lat="43.5357262" lon="7.5713799"><ele>0.0</ele><time>2026-05-01T00:39:58.034Z</time></trkpt><trkpt lat="43.5357791" lon="7.5714625"><ele>0.0</ele><time>2026-05-01T00:39:59.033Z</time></trkpt><trkpt lat="43.535831" lon="7.5715511"><ele>0.0</ele><time>2026-05-01T00:40:00.034Z</time></trkpt><trkpt lat="43.5359421" lon="7.571719"><ele>0.0</ele><time>2026-05-01T00:40:02.034Z</time></trkpt><trkpt lat="43.5359964" lon="7.5718005"><ele>0.0</ele><time>2026-05-01T00:40:03.033Z</time></trkpt><trkpt lat="43.5360529" lon="7.5718805"><ele>0.0</ele><time>2026-05-01T00:40:04.034Z</time></trkpt><trkpt lat="43.5361077" lon="7.5719593"><ele>0.0</ele><time>2026-05-01T00:40:05.034Z</time></trkpt><trkpt lat="43.5361616" lon="7.5720434"><ele>0.0</ele><time>2026-05-01T00:40:06.033Z</time></trkpt><trkpt lat="43.536209" lon="7.5721254"><ele>0.0</ele><time>2026-05-01T00:40:07.033Z</time></trkpt><trkpt lat="43.5362626" lon="7.5722072"><ele>0.0</ele><time>2026-05-01T00:40:08.034Z</time></trkpt><trkpt lat="43.5363146" lon="7.5722846"><ele>0.0</ele><time>2026-05-01T00:40:09.034Z</time></trkpt><trkpt lat="43.536359" lon="7.5723654"><ele>0.0</ele><time>2026-05-01T00:40:10.034Z</time></trkpt><trkpt lat="43.5364089" lon="7.5724501"><ele>0.0</ele><time>2026-05-01T00:40:11.033Z</time></trkpt><trkpt lat="43.5364653" lon="7.572532"><ele>0.0</ele><time>2026-05-01T00:40:12.034Z</time></trkpt><trkpt lat="43.5365719" lon="7.5726994"><ele>0.0</ele><time>2026-05-01T00:40:14.033Z</time></trkpt><trkpt lat="43.5366209" lon="7.5727838"><ele>0.0</ele><time>2026-05-01T00:40:15.033Z</time></trkpt><trkpt lat="43.5366757" lon="7.5728668"><ele>0.0</ele><time>2026-05-01T00:40:16.033Z</time></trkpt><trkpt lat="43.5367295" lon="7.5729486"><ele>0.0</ele><time>2026-05-01T00:40:17.034Z</time></trkpt><trkpt lat="43.5367828" lon="7.5730335"><ele>0.0</ele><time>2026-05-01T00:40:18.034Z</time></trkpt><trkpt lat="43.5368362" lon="7.5731204"><ele>0.0</ele><time>2026-05-01T00:40:19.033Z</time></trkpt><trkpt lat="43.5368875" lon="7.5732076"><ele>0.0</ele><time>2026-05-01T00:40:20.033Z</time></trkpt><trkpt lat="43.5369406" lon="7.5732895"><ele>0.0</ele><time>2026-05-01T00:40:21.034Z</time></trkpt><trkpt lat="43.5369894" lon="7.5733751"><ele>0.0</ele><time>2026-05-01T00:40:22.033Z</time></trkpt><trkpt lat="43.537041" lon="7.5734589"><ele>0.0</ele><time>2026-05-01T00:40:23.034Z</time></trkpt><trkpt lat="43.5370943" lon="7.5735433"><ele>0.0</ele><time>2026-05-01T00:40:24.034Z</time></trkpt><trkpt lat="43.5371478" lon="7.573628"><ele>0.0</ele><time>2026-05-01T00:40:25.034Z</time></trkpt><trkpt lat="43.5371956" lon="7.5737174"><ele>0.0</ele><time>2026-05-01T00:40:26.034Z</time></trkpt><trkpt lat="43.5372407" lon="7.5738118"><ele>0.0</ele><time>2026-05-01T00:40:27.033Z</time></trkpt><trkpt lat="43.5372943" lon="7.5739017"><ele>0.0</ele><time>2026-05-01T00:40:28.034Z</time></trkpt><trkpt lat="43.5373425" lon="7.5739879"><ele>0.0</ele><time>2026-05-01T00:40:29.033Z</time></trkpt><trkpt lat="43.5373893" lon="7.5740744"><ele>0.0</ele><time>2026-05-01T00:40:30.034Z</time></trkpt><trkpt lat="43.5374382" lon="7.5741627"><ele>0.0</ele><time>2026-05-01T00:40:31.033Z</time></trkpt><trkpt lat="43.5374897" lon="7.5742524"><ele>0.0</ele><time>2026-05-01T00:40:32.033Z</time></trkpt><trkpt lat="43.5375362" lon="7.5743335"><ele>0.0</ele><time>2026-05-01T00:40:33.034Z</time></trkpt><trkpt lat="43.5376786" lon="7.5745949"><ele>0.0</ele><time>2026-05-01T00:40:36.034Z</time></trkpt><trkpt lat="43.5377213" lon="7.5746782"><ele>0.0</ele><time>2026-05-01T00:40:37.033Z</time></trkpt><trkpt lat="43.5377674" lon="7.57476"><ele>0.0</ele><time>2026-05-01T00:40:38.033Z</time></trkpt><trkpt lat="43.5378167" lon="7.5748473"><ele>0.0</ele><time>2026-05-01T00:40:39.033Z</time></trkpt><trkpt lat="43.5378596" lon="7.5749365"><ele>0.0</ele><time>2026-05-01T00:40:40.033Z</time></trkpt><trkpt lat="43.5379069" lon="7.5750278"><ele>0.0</ele><time>2026-05-01T00:40:41.033Z</time></trkpt><trkpt lat="43.5379536" lon="7.5751147"><ele>0.0</ele><time>2026-05-01T00:40:42.033Z</time></trkpt><trkpt lat="43.5380007" lon="7.5751998"><ele>0.0</ele><time>2026-05-01T00:40:43.033Z</time></trkpt><trkpt lat="43.5380442" lon="7.5752835"><ele>0.0</ele><time>2026-05-01T00:40:44.034Z</time></trkpt><trkpt lat="43.5381033" lon="7.5753665"><ele>0.0</ele><time>2026-05-01T00:40:45.033Z</time></trkpt><trkpt lat="43.5381582" lon="7.575459"><ele>0.0</ele><time>2026-05-01T00:40:46.033Z</time></trkpt><trkpt lat="43.5382118" lon="7.5755453"><ele>0.0</ele><time>2026-05-01T00:40:47.033Z</time></trkpt><trkpt lat="43.538262" lon="7.5756298"><ele>0.0</ele><time>2026-05-01T00:40:48.032Z</time></trkpt><trkpt lat="43.5383146" lon="7.5757164"><ele>0.0</ele><time>2026-05-01T00:40:49.033Z</time></trkpt><trkpt lat="43.5383663" lon="7.5758001"><ele>0.0</ele><time>2026-05-01T00:40:50.032Z</time></trkpt><trkpt lat="43.5384168" lon="7.5758792"><ele>0.0</ele><time>2026-05-01T00:40:51.032Z</time></trkpt><trkpt lat="43.5384709" lon="7.5759586"><ele>0.0</ele><time>2026-05-01T00:40:52.033Z</time></trkpt><trkpt lat="43.5385264" lon="7.5760374"><ele>0.0</ele><time>2026-05-01T00:40:53.033Z</time></trkpt><trkpt lat="43.5385789" lon="7.5761154"><ele>0.0</ele><time>2026-05-01T00:40:54.033Z</time></trkpt><trkpt lat="43.5386345" lon="7.5761934"><ele>0.0</ele><time>2026-05-01T00:40:55.032Z</time></trkpt><trkpt lat="43.5387462" lon="7.5763561"><ele>0.0</ele><time>2026-05-01T00:40:57.032Z</time></trkpt><trkpt lat="43.5388058" lon="7.5764353"><ele>0.0</ele><time>2026-05-01T00:40:58.033Z</time></trkpt><trkpt lat="43.5388617" lon="7.5765123"><ele>0.0</ele><time>2026-05-01T00:40:59.032Z</time></trkpt><trkpt lat="43.5389093" lon="7.5765991"><ele>0.0</ele><time>2026-05-01T00:41:00.033Z</time></trkpt><trkpt lat="43.5389574" lon="7.5766867"><ele>0.0</ele><time>2026-05-01T00:41:01.032Z</time></trkpt><trkpt lat="43.5390084" lon="7.5767688"><ele>0.0</ele><time>2026-05-01T00:41:02.033Z</time></trkpt><trkpt lat="43.5390588" lon="7.576852"><ele>0.0</ele><time>2026-05-01T00:41:03.032Z</time></trkpt><trkpt lat="43.5391055" lon="7.576931"><ele>0.0</ele><time>2026-05-01T00:41:04.032Z</time></trkpt><trkpt lat="43.5391549" lon="7.5770209"><ele>0.0</ele><time>2026-05-01T00:41:05.032Z</time></trkpt><trkpt lat="43.5392077" lon="7.5771079"><ele>0.0</ele><time>2026-05-01T00:41:06.032Z</time></trkpt><trkpt lat="43.5393148" lon="7.5772832"><ele>0.0</ele><time>2026-05-01T00:41:08.032Z</time></trkpt><trkpt lat="43.5393667" lon="7.577368"><ele>0.0</ele><time>2026-05-01T00:41:09.033Z</time></trkpt><trkpt lat="43.5394181" lon="7.5774572"><ele>0.0</ele><time>2026-05-01T00:41:10.033Z</time></trkpt><trkpt lat="43.5394715" lon="7.5775472"><ele>0.0</ele><time>2026-05-01T00:41:11.033Z</time></trkpt><trkpt lat="43.5395234" lon="7.5776375"><ele>0.0</ele><time>2026-05-01T00:41:12.033Z</time></trkpt><trkpt lat="43.5395722" lon="7.5777277"><ele>0.0</ele><time>2026-05-01T00:41:13.032Z</time></trkpt><trkpt lat="43.5396265" lon="7.5778132"><ele>0.0</ele><time>2026-05-01T00:41:14.032Z</time></trkpt><trkpt lat="43.5396783" lon="7.5779021"><ele>0.0</ele><time>2026-05-01T00:41:15.032Z</time></trkpt><trkpt lat="43.5397303" lon="7.5779967"><ele>0.0</ele><time>2026-05-01T00:41:16.032Z</time></trkpt><trkpt lat="43.5398324" lon="7.5781748"><ele>0.0</ele><time>2026-05-01T00:41:18.033Z</time></trkpt><trkpt lat="43.539879" lon="7.5782601"><ele>0.0</ele><time>2026-05-01T00:41:19.032Z</time></trkpt><trkpt lat="43.5399259" lon="7.5783446"><ele>0.0</ele><time>2026-05-01T00:41:20.032Z</time></trkpt><trkpt lat="43.5399712" lon="7.5784321"><ele>0.0</ele><time>2026-05-01T00:41:21.033Z</time></trkpt><trkpt lat="43.5400217" lon="7.5785165"><ele>0.0</ele><time>2026-05-01T00:41:22.032Z</time></trkpt><trkpt lat="43.5400718" lon="7.5786057"><ele>0.0</ele><time>2026-05-01T00:41:23.033Z</time></trkpt><trkpt lat="43.5401247" lon="7.5786936"><ele>0.0</ele><time>2026-05-01T00:41:24.032Z</time></trkpt><trkpt lat="43.5401793" lon="7.5787772"><ele>0.0</ele><time>2026-05-01T00:41:25.032Z</time></trkpt><trkpt lat="43.5402361" lon="7.5788603"><ele>0.0</ele><time>2026-05-01T00:41:26.033Z</time></trkpt><trkpt lat="43.5402891" lon="7.5789451"><ele>0.0</ele><time>2026-05-01T00:41:27.033Z</time></trkpt><trkpt lat="43.540336" lon="7.5790298"><ele>0.0</ele><time>2026-05-01T00:41:28.032Z</time></trkpt><trkpt lat="43.5403766" lon="7.5791205"><ele>0.0</ele><time>2026-05-01T00:41:29.033Z</time></trkpt><trkpt lat="43.5404224" lon="7.5792121"><ele>0.0</ele><time>2026-05-01T00:41:30.032Z</time></trkpt><trkpt lat="43.5404703" lon="7.5793042"><ele>0.0</ele><time>2026-05-01T00:41:31.032Z</time></trkpt><trkpt lat="43.5405174" lon="7.5793959"><ele>0.0</ele><time>2026-05-01T00:41:32.033Z</time></trkpt><trkpt lat="43.5405682" lon="7.5794859"><ele>0.0</ele><time>2026-05-01T00:41:33.032Z</time></trkpt><trkpt lat="43.5406168" lon="7.5795746"><ele>0.0</ele><time>2026-05-01T00:41:34.032Z</time></trkpt><trkpt lat="43.5406668" lon="7.5796626"><ele>0.0</ele><time>2026-05-01T00:41:35.032Z</time></trkpt><trkpt lat="43.5407124" lon="7.5797481"><ele>0.0</ele><time>2026-05-01T00:41:36.032Z</time></trkpt><trkpt lat="43.5407647" lon="7.5798345"><ele>0.0</ele><time>2026-05-01T00:41:37.032Z</time></trkpt><trkpt lat="43.5408205" lon="7.5799206"><ele>0.0</ele><time>2026-05-01T00:41:38.033Z</time></trkpt><trkpt lat="43.540972" lon="7.5801774"><ele>0.0</ele><time>2026-05-01T00:41:41.033Z</time></trkpt><trkpt lat="43.5410276" lon="7.5802618"><ele>0.0</ele><time>2026-05-01T00:41:42.032Z</time></trkpt><trkpt lat="43.541076" lon="7.5803492"><ele>0.0</ele><time>2026-05-01T00:41:43.033Z</time></trkpt><trkpt lat="43.541121" lon="7.5804336"><ele>0.0</ele><time>2026-05-01T00:41:44.033Z</time></trkpt><trkpt lat="43.5411683" lon="7.5805185"><ele>0.0</ele><time>2026-05-01T00:41:45.033Z</time></trkpt><trkpt lat="43.5412265" lon="7.580601"><ele>0.0</ele><time>2026-05-01T00:41:46.032Z</time></trkpt><trkpt lat="43.5412874" lon="7.5806858"><ele>0.0</ele><time>2026-05-01T00:41:47.033Z</time></trkpt><trkpt lat="43.5413406" lon="7.5807676"><ele>0.0</ele><time>2026-05-01T00:41:48.032Z</time></trkpt><trkpt lat="43.5413891" lon="7.5808545"><ele>0.0</ele><time>2026-05-01T00:41:49.032Z</time></trkpt><trkpt lat="43.54144" lon="7.5809373"><ele>0.0</ele><time>2026-05-01T00:41:50.032Z</time></trkpt><trkpt lat="43.5414903" lon="7.5810227"><ele>0.0</ele><time>2026-05-01T00:41:51.032Z</time></trkpt><trkpt lat="43.5415389" lon="7.581107"><ele>0.0</ele><time>2026-05-01T00:41:52.033Z</time></trkpt><trkpt lat="43.5415898" lon="7.5811976"><ele>0.0</ele><time>2026-05-01T00:41:53.033Z</time></trkpt><trkpt lat="43.5416462" lon="7.5812848"><ele>0.0</ele><time>2026-05-01T00:41:54.032Z</time></trkpt><trkpt lat="43.5416996" lon="7.5813816"><ele>0.0</ele><time>2026-05-01T00:41:55.032Z</time></trkpt><trkpt lat="43.5417515" lon="7.5814786"><ele>0.0</ele><time>2026-05-01T00:41:56.033Z</time></trkpt><trkpt lat="43.5418046" lon="7.581564"><ele>0.0</ele><time>2026-05-01T00:41:57.033Z</time></trkpt><trkpt lat="43.541848" lon="7.581643"><ele>0.0</ele><time>2026-05-01T00:41:58.033Z</time></trkpt><trkpt lat="43.541893" lon="7.5817214"><ele>0.0</ele><time>2026-05-01T00:41:59.032Z</time></trkpt><trkpt lat="43.5419362" lon="7.5818067"><ele>0.0</ele><time>2026-05-01T00:42:00.032Z</time></trkpt><trkpt lat="43.5420277" lon="7.5819835"><ele>0.0</ele><time>2026-05-01T00:42:02.033Z</time></trkpt><trkpt lat="43.5420711" lon="7.5820744"><ele>0.0</ele><time>2026-05-01T00:42:03.033Z</time></trkpt><trkpt lat="43.5421115" lon="7.582164"><ele>0.0</ele><time>2026-05-01T00:42:04.033Z</time></trkpt><trkpt lat="43.5421597" lon="7.582255"><ele>0.0</ele><time>2026-05-01T00:42:05.032Z</time></trkpt><trkpt lat="43.5422097" lon="7.582348"><ele>0.0</ele><time>2026-05-01T00:42:06.032Z</time></trkpt><trkpt lat="43.5422614" lon="7.5824414"><ele>0.0</ele><time>2026-05-01T00:42:07.033Z</time></trkpt><trkpt lat="43.5423071" lon="7.5825318"><ele>0.0</ele><time>2026-05-01T00:42:08.032Z</time></trkpt><trkpt lat="43.5423551" lon="7.5826174"><ele>0.0</ele><time>2026-05-01T00:42:09.032Z</time></trkpt><trkpt lat="43.5424022" lon="7.5827037"><ele>0.0</ele><time>2026-05-01T00:42:10.033Z</time></trkpt><trkpt lat="43.54245" lon="7.5827859"><ele>0.0</ele><time>2026-05-01T00:42:11.032Z</time></trkpt><trkpt lat="43.5424956" lon="7.5828717"><ele>0.0</ele><time>2026-05-01T00:42:12.032Z</time></trkpt><trkpt lat="43.5425435" lon="7.5829562"><ele>0.0</ele><time>2026-05-01T00:42:13.033Z</time></trkpt><trkpt lat="43.5425945" lon="7.5830403"><ele>0.0</ele><time>2026-05-01T00:42:14.032Z</time></trkpt><trkpt lat="43.542646" lon="7.5831281"><ele>0.0</ele><time>2026-05-01T00:42:15.032Z</time></trkpt><trkpt lat="43.5426933" lon="7.5832103"><ele>0.0</ele><time>2026-05-01T00:42:16.033Z</time></trkpt><trkpt lat="43.5427406" lon="7.5832896"><ele>0.0</ele><time>2026-05-01T00:42:17.033Z</time></trkpt><trkpt lat="43.5427889" lon="7.5833721"><ele>0.0</ele><time>2026-05-01T00:42:18.033Z</time></trkpt><trkpt lat="43.542829" lon="7.5834665"><ele>0.0</ele><time>2026-05-01T00:42:19.033Z</time></trkpt><trkpt lat="43.5428712" lon="7.583565"><ele>0.0</ele><time>2026-05-01T00:42:20.033Z</time></trkpt><trkpt lat="43.5429225" lon="7.5836533"><ele>0.0</ele><time>2026-05-01T00:42:21.032Z</time></trkpt><trkpt lat="43.5430168" lon="7.5838342"><ele>0.0</ele><time>2026-05-01T00:42:23.032Z</time></trkpt><trkpt lat="43.5430704" lon="7.583927"><ele>0.0</ele><time>2026-05-01T00:42:24.033Z</time></trkpt><trkpt lat="43.5431266" lon="7.5840151"><ele>0.0</ele><time>2026-05-01T00:42:25.032Z</time></trkpt><trkpt lat="43.5431811" lon="7.5841019"><ele>0.0</ele><time>2026-05-01T00:42:26.033Z</time></trkpt><trkpt lat="43.5432245" lon="7.5841885"><ele>0.0</ele><time>2026-05-01T00:42:27.032Z</time></trkpt><trkpt lat="43.5432675" lon="7.5842698"><ele>0.0</ele><time>2026-05-01T00:42:28.032Z</time></trkpt><trkpt lat="43.5433095" lon="7.5843584"><ele>0.0</ele><time>2026-05-01T00:42:29.033Z</time></trkpt><trkpt lat="43.5433613" lon="7.5844352"><ele>0.0</ele><time>2026-05-01T00:42:30.032Z</time></trkpt><trkpt lat="43.5434016" lon="7.5845226"><ele>0.0</ele><time>2026-05-01T00:42:31.032Z</time></trkpt><trkpt lat="43.5434526" lon="7.584608"><ele>0.0</ele><time>2026-05-01T00:42:32.033Z</time></trkpt><trkpt lat="43.5435032" lon="7.5846933"><ele>0.0</ele><time>2026-05-01T00:42:33.032Z</time></trkpt><trkpt lat="43.5435577" lon="7.5847782"><ele>0.0</ele><time>2026-05-01T00:42:34.033Z</time></trkpt><trkpt lat="43.5436082" lon="7.5848647"><ele>0.0</ele><time>2026-05-01T00:42:35.033Z</time></trkpt><trkpt lat="43.543658" lon="7.5849542"><ele>0.0</ele><time>2026-05-01T00:42:36.033Z</time></trkpt><trkpt lat="43.5437081" lon="7.5850444"><ele>0.0</ele><time>2026-05-01T00:42:37.033Z</time></trkpt><trkpt lat="43.5437583" lon="7.5851314"><ele>0.0</ele><time>2026-05-01T00:42:38.032Z</time></trkpt><trkpt lat="43.5437984" lon="7.5852191"><ele>0.0</ele><time>2026-05-01T00:42:39.032Z</time></trkpt><trkpt lat="43.5438495" lon="7.5853058"><ele>0.0</ele><time>2026-05-01T00:42:40.032Z</time></trkpt><trkpt lat="43.5439042" lon="7.5853873"><ele>0.0</ele><time>2026-05-01T00:42:41.033Z</time></trkpt><trkpt lat="43.5439522" lon="7.585473"><ele>0.0</ele><time>2026-05-01T00:42:42.032Z</time></trkpt><trkpt lat="43.5440991" lon="7.5857341"><ele>0.0</ele><time>2026-05-01T00:42:45.033Z</time></trkpt><trkpt lat="43.5441569" lon="7.5858222"><ele>0.0</ele><time>2026-05-01T00:42:46.032Z</time></trkpt><trkpt lat="43.5442139" lon="7.5859084"><ele>0.0</ele><time>2026-05-01T00:42:47.032Z</time></trkpt><trkpt lat="43.544265" lon="7.5859937"><ele>0.0</ele><time>2026-05-01T00:42:48.033Z</time></trkpt><trkpt lat="43.5443189" lon="7.5860805"><ele>0.0</ele><time>2026-05-01T00:42:49.032Z</time></trkpt><trkpt lat="43.5443698" lon="7.5861712"><ele>0.0</ele><time>2026-05-01T00:42:50.032Z</time></trkpt><trkpt lat="43.5444217" lon="7.58626"><ele>0.0</ele><time>2026-05-01T00:42:51.033Z</time></trkpt><trkpt lat="43.5444722" lon="7.5863483"><ele>0.0</ele><time>2026-05-01T00:42:52.032Z</time></trkpt><trkpt lat="43.5445249" lon="7.5864278"><ele>0.0</ele><time>2026-05-01T00:42:53.032Z</time></trkpt><trkpt lat="43.5445767" lon="7.5865096"><ele>0.0</ele><time>2026-05-01T00:42:54.033Z</time></trkpt><trkpt lat="43.5446269" lon="7.5865963"><ele>0.0</ele><time>2026-05-01T00:42:55.032Z</time></trkpt><trkpt lat="43.544674" lon="7.5866872"><ele>0.0</ele><time>2026-05-01T00:42:56.033Z</time></trkpt><trkpt lat="43.5447215" lon="7.5867796"><ele>0.0</ele><time>2026-05-01T00:42:57.033Z</time></trkpt><trkpt lat="43.5447615" lon="7.5868682"><ele>0.0</ele><time>2026-05-01T00:42:58.033Z</time></trkpt><trkpt lat="43.5448036" lon="7.586962"><ele>0.0</ele><time>2026-05-01T00:42:59.033Z</time></trkpt><trkpt lat="43.5448571" lon="7.58705"><ele>0.0</ele><time>2026-05-01T00:43:00.032Z</time></trkpt><trkpt lat="43.5449108" lon="7.5871362"><ele>0.0</ele><time>2026-05-01T00:43:01.033Z</time></trkpt><trkpt lat="43.5449656" lon="7.58722"><ele>0.0</ele><time>2026-05-01T00:43:02.033Z</time></trkpt><trkpt lat="43.5450191" lon="7.5873097"><ele>0.0</ele><time>2026-05-01T00:43:03.032Z</time></trkpt><trkpt lat="43.5450699" lon="7.5873923"><ele>0.0</ele><time>2026-05-01T00:43:04.032Z</time></trkpt><trkpt lat="43.54521" lon="7.5875458"><ele>0.0</ele><time>2026-05-01T00:43:06.033Z</time></trkpt><trkpt lat="43.5452635" lon="7.5876314"><ele>0.0</ele><time>2026-05-01T00:43:07.032Z</time></trkpt><trkpt lat="43.5453095" lon="7.5877192"><ele>0.0</ele><time>2026-05-01T00:43:08.033Z</time></trkpt><trkpt lat="43.5453646" lon="7.5878032"><ele>0.0</ele><time>2026-05-01T00:43:09.032Z</time></trkpt><trkpt lat="43.5454141" lon="7.5878895"><ele>0.0</ele><time>2026-05-01T00:43:10.032Z</time></trkpt><trkpt lat="43.5454637" lon="7.5879749"><ele>0.0</ele><time>2026-05-01T00:43:11.033Z</time></trkpt><trkpt lat="43.5455123" lon="7.5880629"><ele>0.0</ele><time>2026-05-01T00:43:12.032Z</time></trkpt><trkpt lat="43.5455561" lon="7.5881525"><ele>0.0</ele><time>2026-05-01T00:43:13.032Z</time></trkpt><trkpt lat="43.5456005" lon="7.5882426"><ele>0.0</ele><time>2026-05-01T00:43:14.032Z</time></trkpt><trkpt lat="43.5456454" lon="7.5883327"><ele>0.0</ele><time>2026-05-01T00:43:15.032Z</time></trkpt><trkpt lat="43.5457418" lon="7.5885127"><ele>0.0</ele><time>2026-05-01T00:43:17.033Z</time></trkpt><trkpt lat="43.5457861" lon="7.588604"><ele>0.0</ele><time>2026-05-01T00:43:18.032Z</time></trkpt><trkpt lat="43.5458323" lon="7.5886987"><ele>0.0</ele><time>2026-05-01T00:43:19.032Z</time></trkpt><trkpt lat="43.5458759" lon="7.5887935"><ele>0.0</ele><time>2026-05-01T00:43:20.032Z</time></trkpt><trkpt lat="43.5459207" lon="7.5888885"><ele>0.0</ele><time>2026-05-01T00:43:21.033Z</time></trkpt><trkpt lat="43.5459641" lon="7.588978"><ele>0.0</ele><time>2026-05-01T00:43:22.032Z</time></trkpt><trkpt lat="43.5460074" lon="7.5890663"><ele>0.0</ele><time>2026-05-01T00:43:23.033Z</time></trkpt><trkpt lat="43.5460536" lon="7.5891576"><ele>0.0</ele><time>2026-05-01T00:43:24.033Z</time></trkpt><trkpt lat="43.5461033" lon="7.5892447"><ele>0.0</ele><time>2026-05-01T00:43:25.032Z</time></trkpt><trkpt lat="43.5461982" lon="7.5894203"><ele>0.0</ele><time>2026-05-01T00:43:27.032Z</time></trkpt><trkpt lat="43.5462541" lon="7.5895038"><ele>0.0</ele><time>2026-05-01T00:43:28.032Z</time></trkpt><trkpt lat="43.5463067" lon="7.58959"><ele>0.0</ele><time>2026-05-01T00:43:29.033Z</time></trkpt><trkpt lat="43.5463568" lon="7.5896809"><ele>0.0</ele><time>2026-05-01T00:43:30.033Z</time></trkpt><trkpt lat="43.5464041" lon="7.5897709"><ele>0.0</ele><time>2026-05-01T00:43:31.032Z</time></trkpt><trkpt lat="43.546452" lon="7.589864"><ele>0.0</ele><time>2026-05-01T00:43:32.032Z</time></trkpt><trkpt lat="43.5465121" lon="7.5899382"><ele>0.0</ele><time>2026-05-01T00:43:33.033Z</time></trkpt><trkpt lat="43.5465692" lon="7.5900199"><ele>0.0</ele><time>2026-05-01T00:43:34.033Z</time></trkpt><trkpt lat="43.5466243" lon="7.5901067"><ele>0.0</ele><time>2026-05-01T00:43:35.032Z</time></trkpt><trkpt lat="43.5466739" lon="7.5901929"><ele>0.0</ele><time>2026-05-01T00:43:36.032Z</time></trkpt><trkpt lat="43.5467236" lon="7.5902782"><ele>0.0</ele><time>2026-05-01T00:43:37.033Z</time></trkpt><trkpt lat="43.5467707" lon="7.5903692"><ele>0.0</ele><time>2026-05-01T00:43:38.033Z</time></trkpt><trkpt lat="43.5468218" lon="7.5904492"><ele>0.0</ele><time>2026-05-01T00:43:39.032Z</time></trkpt><trkpt lat="43.5468696" lon="7.5905291"><ele>0.0</ele><time>2026-05-01T00:43:40.033Z</time></trkpt><trkpt lat="43.5469177" lon="7.5906092"><ele>0.0</ele><time>2026-05-01T00:43:41.032Z</time></trkpt><trkpt lat="43.5469695" lon="7.5906932"><ele>0.0</ele><time>2026-05-01T00:43:42.032Z</time></trkpt><trkpt lat="43.5470213" lon="7.5907797"><ele>0.0</ele><time>2026-05-01T00:43:43.032Z</time></trkpt><trkpt lat="43.5470725" lon="7.5908679"><ele>0.0</ele><time>2026-05-01T00:43:44.033Z</time></trkpt><trkpt lat="43.547123" lon="7.5909548"><ele>0.0</ele><time>2026-05-01T00:43:45.032Z</time></trkpt><trkpt lat="43.5471747" lon="7.5910513"><ele>0.0</ele><time>2026-05-01T00:43:46.032Z</time></trkpt><trkpt lat="43.5472265" lon="7.5911395"><ele>0.0</ele><time>2026-05-01T00:43:47.033Z</time></trkpt><trkpt lat="43.5473893" lon="7.5913825"><ele>0.0</ele><time>2026-05-01T00:43:50.032Z</time></trkpt><trkpt lat="43.5474434" lon="7.5914698"><ele>0.0</ele><time>2026-05-01T00:43:51.033Z</time></trkpt><trkpt lat="43.5474982" lon="7.5915637"><ele>0.0</ele><time>2026-05-01T00:43:52.032Z</time></trkpt><trkpt lat="43.5475496" lon="7.5916528"><ele>0.0</ele><time>2026-05-01T00:43:53.032Z</time></trkpt><trkpt lat="43.5476009" lon="7.5917374"><ele>0.0</ele><time>2026-05-01T00:43:54.032Z</time></trkpt><trkpt lat="43.5476545" lon="7.5918207"><ele>0.0</ele><time>2026-05-01T00:43:55.032Z</time></trkpt><trkpt lat="43.5477075" lon="7.5919095"><ele>0.0</ele><time>2026-05-01T00:43:56.033Z</time></trkpt><trkpt lat="43.5477594" lon="7.5920011"><ele>0.0</ele><time>2026-05-01T00:43:57.032Z</time></trkpt><trkpt lat="43.5478126" lon="7.5920902"><ele>0.0</ele><time>2026-05-01T00:43:58.032Z</time></trkpt><trkpt lat="43.5478645" lon="7.5921815"><ele>0.0</ele><time>2026-05-01T00:43:59.032Z</time></trkpt><trkpt lat="43.5479138" lon="7.5922696"><ele>0.0</ele><time>2026-05-01T00:44:00.032Z</time></trkpt><trkpt lat="43.5479652" lon="7.5923561"><ele>0.0</ele><time>2026-05-01T00:44:01.033Z</time></trkpt><trkpt lat="43.5480111" lon="7.5924483"><ele>0.0</ele><time>2026-05-01T00:44:02.033Z</time></trkpt><trkpt lat="43.548059" lon="7.5925408"><ele>0.0</ele><time>2026-05-01T00:44:03.032Z</time></trkpt><trkpt lat="43.5481081" lon="7.5926308"><ele>0.0</ele><time>2026-05-01T00:44:04.032Z</time></trkpt><trkpt lat="43.5481596" lon="7.5927169"><ele>0.0</ele><time>2026-05-01T00:44:05.032Z</time></trkpt><trkpt lat="43.5482111" lon="7.5928036"><ele>0.0</ele><time>2026-05-01T00:44:06.033Z</time></trkpt><trkpt lat="43.5482561" lon="7.5928901"><ele>0.0</ele><time>2026-05-01T00:44:07.033Z</time></trkpt><trkpt lat="43.5483066" lon="7.5929713"><ele>0.0</ele><time>2026-05-01T00:44:08.032Z</time></trkpt><trkpt lat="43.5483512" lon="7.5930555"><ele>0.0</ele><time>2026-05-01T00:44:09.033Z</time></trkpt><trkpt lat="43.5484482" lon="7.5932239"><ele>0.0</ele><time>2026-05-01T00:44:11.033Z</time></trkpt><trkpt lat="43.5484943" lon="7.5933075"><ele>0.0</ele><time>2026-05-01T00:44:12.032Z</time></trkpt><trkpt lat="43.5485391" lon="7.5933879"><ele>0.0</ele><time>2026-05-01T00:44:13.032Z</time></trkpt><trkpt lat="43.5485871" lon="7.5934721"><ele>0.0</ele><time>2026-05-01T00:44:14.033Z</time></trkpt><trkpt lat="43.5486267" lon="7.5935659"><ele>0.0</ele><time>2026-05-01T00:44:15.032Z</time></trkpt><trkpt lat="43.5486763" lon="7.593658"><ele>0.0</ele><time>2026-05-01T00:44:16.032Z</time></trkpt><trkpt lat="43.5487193" lon="7.5937476"><ele>0.0</ele><time>2026-05-01T00:44:17.032Z</time></trkpt><trkpt lat="43.5487669" lon="7.5938418"><ele>0.0</ele><time>2026-05-01T00:44:18.032Z</time></trkpt><trkpt lat="43.5488153" lon="7.5939324"><ele>0.0</ele><time>2026-05-01T00:44:19.033Z</time></trkpt><trkpt lat="43.5489067" lon="7.594105"><ele>0.0</ele><time>2026-05-01T00:44:21.033Z</time></trkpt><trkpt lat="43.5489566" lon="7.5941899"><ele>0.0</ele><time>2026-05-01T00:44:22.033Z</time></trkpt><trkpt lat="43.5490095" lon="7.5942798"><ele>0.0</ele><time>2026-05-01T00:44:23.033Z</time></trkpt><trkpt lat="43.5490656" lon="7.594367"><ele>0.0</ele><time>2026-05-01T00:44:24.033Z</time></trkpt><trkpt lat="43.5491165" lon="7.5944549"><ele>0.0</ele><time>2026-05-01T00:44:25.032Z</time></trkpt><trkpt lat="43.5491663" lon="7.5945389"><ele>0.0</ele><time>2026-05-01T00:44:26.033Z</time></trkpt><trkpt lat="43.549218" lon="7.594625"><ele>0.0</ele><time>2026-05-01T00:44:27.033Z</time></trkpt><trkpt lat="43.5492721" lon="7.5947191"><ele>0.0</ele><time>2026-05-01T00:44:28.032Z</time></trkpt><trkpt lat="43.5493187" lon="7.5948125"><ele>0.0</ele><time>2026-05-01T00:44:29.033Z</time></trkpt><trkpt lat="43.5493607" lon="7.594898"><ele>0.0</ele><time>2026-05-01T00:44:30.032Z</time></trkpt><trkpt lat="43.5494532" lon="7.5950801"><ele>0.0</ele><time>2026-05-01T00:44:32.032Z</time></trkpt><trkpt lat="43.5494974" lon="7.5951768"><ele>0.0</ele><time>2026-05-01T00:44:33.032Z</time></trkpt><trkpt lat="43.5495466" lon="7.5952619"><ele>0.0</ele><time>2026-05-01T00:44:34.032Z</time></trkpt><trkpt lat="43.5495977" lon="7.5953457"><ele>0.0</ele><time>2026-05-01T00:44:35.032Z</time></trkpt><trkpt lat="43.5496541" lon="7.5954235"><ele>0.0</ele><time>2026-05-01T00:44:36.032Z</time></trkpt><trkpt lat="43.5497104" lon="7.5954944"><ele>0.0</ele><time>2026-05-01T00:44:37.033Z</time></trkpt><trkpt lat="43.5497662" lon="7.5955752"><ele>0.0</ele><time>2026-05-01T00:44:38.032Z</time></trkpt><trkpt lat="43.5498226" lon="7.5956559"><ele>0.0</ele><time>2026-05-01T00:44:39.033Z</time></trkpt><trkpt lat="43.5498778" lon="7.5957399"><ele>0.0</ele><time>2026-05-01T00:44:40.032Z</time></trkpt><trkpt lat="43.5499357" lon="7.5958304"><ele>0.0</ele><time>2026-05-01T00:44:41.033Z</time></trkpt><trkpt lat="43.549985" lon="7.5959224"><ele>0.0</ele><time>2026-05-01T00:44:42.032Z</time></trkpt><trkpt lat="43.5500278" lon="7.5960131"><ele>0.0</ele><time>2026-05-01T00:44:43.032Z</time></trkpt><trkpt lat="43.5500746" lon="7.5961118"><ele>0.0</ele><time>2026-05-01T00:44:44.033Z</time></trkpt><trkpt lat="43.5501275" lon="7.5962058"><ele>0.0</ele><time>2026-05-01T00:44:45.033Z</time></trkpt><trkpt lat="43.550174" lon="7.5962927"><ele>0.0</ele><time>2026-05-01T00:44:46.033Z</time></trkpt><trkpt lat="43.5502208" lon="7.5963814"><ele>0.0</ele><time>2026-05-01T00:44:47.033Z</time></trkpt><trkpt lat="43.5502646" lon="7.5964754"><ele>0.0</ele><time>2026-05-01T00:44:48.033Z</time></trkpt><trkpt lat="43.5503026" lon="7.5965672"><ele>0.0</ele><time>2026-05-01T00:44:49.033Z</time></trkpt><trkpt lat="43.550338" lon="7.5966604"><ele>0.0</ele><time>2026-05-01T00:44:50.032Z</time></trkpt><trkpt lat="43.5503797" lon="7.596751"><ele>0.0</ele><time>2026-05-01T00:44:51.032Z</time></trkpt><trkpt lat="43.5504242" lon="7.596834"><ele>0.0</ele><time>2026-05-01T00:44:52.033Z</time></trkpt><trkpt lat="43.5505719" lon="7.5970853"><ele>0.0</ele><time>2026-05-01T00:44:55.032Z</time></trkpt><trkpt lat="43.5506233" lon="7.5971718"><ele>0.0</ele><time>2026-05-01T00:44:56.033Z</time></trkpt><trkpt lat="43.5506735" lon="7.5972571"><ele>0.0</ele><time>2026-05-01T00:44:57.033Z</time></trkpt><trkpt lat="43.5507264" lon="7.5973393"><ele>0.0</ele><time>2026-05-01T00:44:58.032Z</time></trkpt><trkpt lat="43.5507754" lon="7.5974252"><ele>0.0</ele><time>2026-05-01T00:44:59.032Z</time></trkpt><trkpt lat="43.550825" lon="7.5975088"><ele>0.0</ele><time>2026-05-01T00:45:00.032Z</time></trkpt><trkpt lat="43.5508703" lon="7.5975947"><ele>0.0</ele><time>2026-05-01T00:45:01.032Z</time></trkpt><trkpt lat="43.5509132" lon="7.5976817"><ele>0.0</ele><time>2026-05-01T00:45:02.032Z</time></trkpt><trkpt lat="43.5509574" lon="7.5977685"><ele>0.0</ele><time>2026-05-01T00:45:03.033Z</time></trkpt><trkpt lat="43.5510049" lon="7.5978484"><ele>0.0</ele><time>2026-05-01T00:45:04.033Z</time></trkpt><trkpt lat="43.5510527" lon="7.5979281"><ele>0.0</ele><time>2026-05-01T00:45:05.032Z</time></trkpt><trkpt lat="43.551104" lon="7.5980135"><ele>0.0</ele><time>2026-05-01T00:45:06.032Z</time></trkpt><trkpt lat="43.5511535" lon="7.5981032"><ele>0.0</ele><time>2026-05-01T00:45:07.033Z</time></trkpt><trkpt lat="43.5512008" lon="7.598193"><ele>0.0</ele><time>2026-05-01T00:45:08.032Z</time></trkpt><trkpt lat="43.551253" lon="7.5982803"><ele>0.0</ele><time>2026-05-01T00:45:09.032Z</time></trkpt><trkpt lat="43.551303" lon="7.5983698"><ele>0.0</ele><time>2026-05-01T00:45:10.033Z</time></trkpt><trkpt lat="43.5513549" lon="7.5984578"><ele>0.0</ele><time>2026-05-01T00:45:11.033Z</time></trkpt><trkpt lat="43.5514037" lon="7.5985446"><ele>0.0</ele><time>2026-05-01T00:45:12.033Z</time></trkpt><trkpt lat="43.5514579" lon="7.598632"><ele>0.0</ele><time>2026-05-01T00:45:13.032Z</time></trkpt><trkpt lat="43.5515126" lon="7.5987212"><ele>0.0</ele><time>2026-05-01T00:45:14.032Z</time></trkpt><trkpt lat="43.5516224" lon="7.5989054"><ele>0.0</ele><time>2026-05-01T00:45:16.033Z</time></trkpt><trkpt lat="43.551678" lon="7.5989958"><ele>0.0</ele><time>2026-05-01T00:45:17.033Z</time></trkpt><trkpt lat="43.5517248" lon="7.599079"><ele>0.0</ele><time>2026-05-01T00:45:18.032Z</time></trkpt><trkpt lat="43.551771" lon="7.5991591"><ele>0.0</ele><time>2026-05-01T00:45:19.032Z</time></trkpt><trkpt lat="43.5518153" lon="7.5992472"><ele>0.0</ele><time>2026-05-01T00:45:20.032Z</time></trkpt><trkpt lat="43.5518613" lon="7.5993302"><ele>0.0</ele><time>2026-05-01T00:45:21.032Z</time></trkpt><trkpt lat="43.5519092" lon="7.5994167"><ele>0.0</ele><time>2026-05-01T00:45:22.032Z</time></trkpt><trkpt lat="43.5519578" lon="7.5995058"><ele>0.0</ele><time>2026-05-01T00:45:23.032Z</time></trkpt><trkpt lat="43.5520087" lon="7.599597"><ele>0.0</ele><time>2026-05-01T00:45:24.033Z</time></trkpt><trkpt lat="43.5520531" lon="7.5996857"><ele>0.0</ele><time>2026-05-01T00:45:25.032Z</time></trkpt><trkpt lat="43.5520991" lon="7.5997772"><ele>0.0</ele><time>2026-05-01T00:45:26.032Z</time></trkpt><trkpt lat="43.5521461" lon="7.5998745"><ele>0.0</ele><time>2026-05-01T00:45:27.033Z</time></trkpt><trkpt lat="43.5521954" lon="7.5999745"><ele>0.0</ele><time>2026-05-01T00:45:28.033Z</time></trkpt><trkpt lat="43.5522438" lon="7.600072"><ele>0.0</ele><time>2026-05-01T00:45:29.033Z</time></trkpt><trkpt lat="43.552293" lon="7.600157"><ele>0.0</ele><time>2026-05-01T00:45:30.033Z</time></trkpt><trkpt lat="43.5523416" lon="7.6002403"><ele>0.0</ele><time>2026-05-01T00:45:31.032Z</time></trkpt><trkpt lat="43.5523859" lon="7.6003211"><ele>0.0</ele><time>2026-05-01T00:45:32.032Z</time></trkpt><trkpt lat="43.552431" lon="7.6003984"><ele>0.0</ele><time>2026-05-01T00:45:33.033Z</time></trkpt><trkpt lat="43.5524784" lon="7.600481"><ele>0.0</ele><time>2026-05-01T00:45:34.032Z</time></trkpt><trkpt lat="43.5525208" lon="7.6005644"><ele>0.0</ele><time>2026-05-01T00:45:35.032Z</time></trkpt><trkpt lat="43.5526115" lon="7.6007389"><ele>0.0</ele><time>2026-05-01T00:45:37.033Z</time></trkpt><trkpt lat="43.5526608" lon="7.6008256"><ele>0.0</ele><time>2026-05-01T00:45:38.032Z</time></trkpt><trkpt lat="43.5527126" lon="7.6009106"><ele>0.0</ele><time>2026-05-01T00:45:39.033Z</time></trkpt><trkpt lat="43.5527663" lon="7.600997"><ele>0.0</ele><time>2026-05-01T00:45:40.033Z</time></trkpt><trkpt lat="43.552821" lon="7.601082"><ele>0.0</ele><time>2026-05-01T00:45:41.032Z</time></trkpt><trkpt lat="43.552873" lon="7.6011688"><ele>0.0</ele><time>2026-05-01T00:45:42.032Z</time></trkpt><trkpt lat="43.5529204" lon="7.6012576"><ele>0.0</ele><time>2026-05-01T00:45:43.032Z</time></trkpt><trkpt lat="43.5529709" lon="7.6013482"><ele>0.0</ele><time>2026-05-01T00:45:44.031Z</time></trkpt><trkpt lat="43.5530226" lon="7.6014427"><ele>0.0</ele><time>2026-05-01T00:45:45.031Z</time></trkpt><trkpt lat="43.5530718" lon="7.6015363"><ele>0.0</ele><time>2026-05-01T00:45:46.032Z</time></trkpt><trkpt lat="43.5531184" lon="7.6016251"><ele>0.0</ele><time>2026-05-01T00:45:47.031Z</time></trkpt><trkpt lat="43.5531652" lon="7.6017161"><ele>0.0</ele><time>2026-05-01T00:45:48.032Z</time></trkpt><trkpt lat="43.5532121" lon="7.6018047"><ele>0.0</ele><time>2026-05-01T00:45:49.031Z</time></trkpt><trkpt lat="43.5532618" lon="7.6018915"><ele>0.0</ele><time>2026-05-01T00:45:50.032Z</time></trkpt><trkpt lat="43.5533114" lon="7.6019812"><ele>0.0</ele><time>2026-05-01T00:45:51.031Z</time></trkpt><trkpt lat="43.5533631" lon="7.6020697"><ele>0.0</ele><time>2026-05-01T00:45:52.031Z</time></trkpt><trkpt lat="43.553413" lon="7.6021596"><ele>0.0</ele><time>2026-05-01T00:45:53.031Z</time></trkpt><trkpt lat="43.5534628" lon="7.6022499"><ele>0.0</ele><time>2026-05-01T00:45:54.031Z</time></trkpt><trkpt lat="43.5535128" lon="7.6023385"><ele>0.0</ele><time>2026-05-01T00:45:55.032Z</time></trkpt><trkpt lat="43.55356" lon="7.6024283"><ele>0.0</ele><time>2026-05-01T00:45:56.031Z</time></trkpt><trkpt lat="43.5537067" lon="7.6026881"><ele>0.0</ele><time>2026-05-01T00:45:59.031Z</time></trkpt><trkpt lat="43.5537598" lon="7.6027664"><ele>0.0</ele><time>2026-05-01T00:46:00.032Z</time></trkpt><trkpt lat="43.5538141" lon="7.6028533"><ele>0.0</ele><time>2026-05-01T00:46:01.031Z</time></trkpt><trkpt lat="43.5538653" lon="7.6029401"><ele>0.0</ele><time>2026-05-01T00:46:02.032Z</time></trkpt><trkpt lat="43.5539127" lon="7.6030238"><ele>0.0</ele><time>2026-05-01T00:46:03.031Z</time></trkpt><trkpt lat="43.5539549" lon="7.6031182"><ele>0.0</ele><time>2026-05-01T00:46:04.031Z</time></trkpt><trkpt lat="43.5540007" lon="7.6032136"><ele>0.0</ele><time>2026-05-01T00:46:05.031Z</time></trkpt><trkpt lat="43.5540501" lon="7.603303"><ele>0.0</ele><time>2026-05-01T00:46:06.031Z</time></trkpt><trkpt lat="43.5540959" lon="7.6033843"><ele>0.0</ele><time>2026-05-01T00:46:07.032Z</time></trkpt><trkpt lat="43.554142" lon="7.6034688"><ele>0.0</ele><time>2026-05-01T00:46:08.031Z</time></trkpt><trkpt lat="43.5541943" lon="7.6035521"><ele>0.0</ele><time>2026-05-01T00:46:09.032Z</time></trkpt><trkpt lat="43.5542481" lon="7.6036383"><ele>0.0</ele><time>2026-05-01T00:46:10.031Z</time></trkpt><trkpt lat="43.5542999" lon="7.6037279"><ele>0.0</ele><time>2026-05-01T00:46:11.031Z</time></trkpt><trkpt lat="43.5543498" lon="7.6038154"><ele>0.0</ele><time>2026-05-01T00:46:12.031Z</time></trkpt><trkpt lat="43.5543971" lon="7.6039032"><ele>0.0</ele><time>2026-05-01T00:46:13.031Z</time></trkpt><trkpt lat="43.5544447" lon="7.6039933"><ele>0.0</ele><time>2026-05-01T00:46:14.032Z</time></trkpt><trkpt lat="43.5544934" lon="7.6040801"><ele>0.0</ele><time>2026-05-01T00:46:15.032Z</time></trkpt><trkpt lat="43.5545418" lon="7.6041667"><ele>0.0</ele><time>2026-05-01T00:46:16.032Z</time></trkpt><trkpt lat="43.5545862" lon="7.6042548"><ele>0.0</ele><time>2026-05-01T00:46:17.032Z</time></trkpt><trkpt lat="43.5546364" lon="7.6043404"><ele>0.0</ele><time>2026-05-01T00:46:18.031Z</time></trkpt><trkpt lat="43.5547495" lon="7.6045102"><ele>0.0</ele><time>2026-05-01T00:46:20.031Z</time></trkpt><trkpt lat="43.5548034" lon="7.604598"><ele>0.0</ele><time>2026-05-01T00:46:21.032Z</time></trkpt><trkpt lat="43.554857" lon="7.6046833"><ele>0.0</ele><time>2026-05-01T00:46:22.031Z</time></trkpt><trkpt lat="43.5549043" lon="7.6047757"><ele>0.0</ele><time>2026-05-01T00:46:23.031Z</time></trkpt><trkpt lat="43.5549472" lon="7.6048628"><ele>0.0</ele><time>2026-05-01T00:46:24.032Z</time></trkpt><trkpt lat="43.5549886" lon="7.6049516"><ele>0.0</ele><time>2026-05-01T00:46:25.031Z</time></trkpt><trkpt lat="43.5550332" lon="7.6050341"><ele>0.0</ele><time>2026-05-01T00:46:26.031Z</time></trkpt><trkpt lat="43.5550764" lon="7.6051187"><ele>0.0</ele><time>2026-05-01T00:46:27.032Z</time></trkpt><trkpt lat="43.5551239" lon="7.6052031"><ele>0.0</ele><time>2026-05-01T00:46:28.031Z</time></trkpt><trkpt lat="43.5552264" lon="7.6053711"><ele>0.0</ele><time>2026-05-01T00:46:30.032Z</time></trkpt><trkpt lat="43.555274" lon="7.6054551"><ele>0.0</ele><time>2026-05-01T00:46:31.031Z</time></trkpt><trkpt lat="43.555318" lon="7.6055432"><ele>0.0</ele><time>2026-05-01T00:46:32.031Z</time></trkpt><trkpt lat="43.5553654" lon="7.6056375"><ele>0.0</ele><time>2026-05-01T00:46:33.031Z</time></trkpt><trkpt lat="43.5554108" lon="7.6057318"><ele>0.0</ele><time>2026-05-01T00:46:34.032Z</time></trkpt><trkpt lat="43.555457" lon="7.6058245"><ele>0.0</ele><time>2026-05-01T00:46:35.032Z</time></trkpt><trkpt lat="43.5555093" lon="7.6059147"><ele>0.0</ele><time>2026-05-01T00:46:36.032Z</time></trkpt><trkpt lat="43.5555582" lon="7.6060094"><ele>0.0</ele><time>2026-05-01T00:46:37.032Z</time></trkpt><trkpt lat="43.5556109" lon="7.6061001"><ele>0.0</ele><time>2026-05-01T00:46:38.032Z</time></trkpt><trkpt lat="43.555657" lon="7.6061858"><ele>0.0</ele><time>2026-05-01T00:46:39.031Z</time></trkpt><trkpt lat="43.5557579" lon="7.6063585"><ele>0.0</ele><time>2026-05-01T00:46:41.032Z</time></trkpt><trkpt lat="43.5558078" lon="7.6064469"><ele>0.0</ele><time>2026-05-01T00:46:42.032Z</time></trkpt><trkpt lat="43.555857" lon="7.6065334"><ele>0.0</ele><time>2026-05-01T00:46:43.031Z</time></trkpt><trkpt lat="43.5559078" lon="7.6066259"><ele>0.0</ele><time>2026-05-01T00:46:44.031Z</time></trkpt><trkpt lat="43.5559605" lon="7.6067175"><ele>0.0</ele><time>2026-05-01T00:46:45.032Z</time></trkpt><trkpt lat="43.5560094" lon="7.6068081"><ele>0.0</ele><time>2026-05-01T00:46:46.031Z</time></trkpt><trkpt lat="43.5560566" lon="7.6068952"><ele>0.0</ele><time>2026-05-01T00:46:47.031Z</time></trkpt><trkpt lat="43.5560973" lon="7.6069879"><ele>0.0</ele><time>2026-05-01T00:46:48.032Z</time></trkpt><trkpt lat="43.5561434" lon="7.6070869"><ele>0.0</ele><time>2026-05-01T00:46:49.031Z</time></trkpt><trkpt lat="43.5561842" lon="7.6071824"><ele>0.0</ele><time>2026-05-01T00:46:50.032Z</time></trkpt><trkpt lat="43.5562329" lon="7.6072729"><ele>0.0</ele><time>2026-05-01T00:46:51.031Z</time></trkpt><trkpt lat="43.5562816" lon="7.6073654"><ele>0.0</ele><time>2026-05-01T00:46:52.032Z</time></trkpt><trkpt lat="43.5563289" lon="7.6074517"><ele>0.0</ele><time>2026-05-01T00:46:53.031Z</time></trkpt><trkpt lat="43.5563767" lon="7.6075413"><ele>0.0</ele><time>2026-05-01T00:46:54.031Z</time></trkpt><trkpt lat="43.5564265" lon="7.6076343"><ele>0.0</ele><time>2026-05-01T00:46:55.032Z</time></trkpt><trkpt lat="43.5564798" lon="7.6077239"><ele>0.0</ele><time>2026-05-01T00:46:56.031Z</time></trkpt><trkpt lat="43.5565291" lon="7.6078197"><ele>0.0</ele><time>2026-05-01T00:46:57.031Z</time></trkpt><trkpt lat="43.5565782" lon="7.6079135"><ele>0.0</ele><time>2026-05-01T00:46:58.031Z</time></trkpt><trkpt lat="43.5566273" lon="7.6080028"><ele>0.0</ele><time>2026-05-01T00:46:59.032Z</time></trkpt><trkpt lat="43.5566779" lon="7.6080887"><ele>0.0</ele><time>2026-05-01T00:47:00.031Z</time></trkpt><trkpt lat="43.5567307" lon="7.6081765"><ele>0.0</ele><time>2026-05-01T00:47:01.031Z</time></trkpt><trkpt lat="43.5568891" lon="7.6084337"><ele>0.0</ele><time>2026-05-01T00:47:04.031Z</time></trkpt><trkpt lat="43.5569404" lon="7.6085141"><ele>0.0</ele><time>2026-05-01T00:47:05.032Z</time></trkpt><trkpt lat="43.5569916" lon="7.6086047"><ele>0.0</ele><time>2026-05-01T00:47:06.032Z</time></trkpt><trkpt lat="43.557039" lon="7.6086861"><ele>0.0</ele><time>2026-05-01T00:47:07.032Z</time></trkpt><trkpt lat="43.5570846" lon="7.6087718"><ele>0.0</ele><time>2026-05-01T00:47:08.031Z</time></trkpt><trkpt lat="43.5571292" lon="7.6088584"><ele>0.0</ele><time>2026-05-01T00:47:09.031Z</time></trkpt><trkpt lat="43.5571843" lon="7.6089479"><ele>0.0</ele><time>2026-05-01T00:47:10.032Z</time></trkpt><trkpt lat="43.5572354" lon="7.6090389"><ele>0.0</ele><time>2026-05-01T00:47:11.032Z</time></trkpt><trkpt lat="43.5572822" lon="7.6091322"><ele>0.0</ele><time>2026-05-01T00:47:12.032Z</time></trkpt><trkpt lat="43.5573291" lon="7.6092158"><ele>0.0</ele><time>2026-05-01T00:47:13.032Z</time></trkpt><trkpt lat="43.5573726" lon="7.6093021"><ele>0.0</ele><time>2026-05-01T00:47:14.031Z</time></trkpt><trkpt lat="43.5574174" lon="7.6093982"><ele>0.0</ele><time>2026-05-01T00:47:15.032Z</time></trkpt><trkpt lat="43.5574605" lon="7.6094855"><ele>0.0</ele><time>2026-05-01T00:47:16.031Z</time></trkpt><trkpt lat="43.5575011" lon="7.6095721"><ele>0.0</ele><time>2026-05-01T00:47:17.031Z</time></trkpt><trkpt lat="43.5575497" lon="7.6096532"><ele>0.0</ele><time>2026-05-01T00:47:18.031Z</time></trkpt><trkpt lat="43.5575999" lon="7.6097358"><ele>0.0</ele><time>2026-05-01T00:47:19.031Z</time></trkpt><trkpt lat="43.5576493" lon="7.6098148"><ele>0.0</ele><time>2026-05-01T00:47:20.032Z</time></trkpt><trkpt lat="43.5576975" lon="7.6098989"><ele>0.0</ele><time>2026-05-01T00:47:21.032Z</time></trkpt><trkpt lat="43.5577423" lon="7.6099927"><ele>0.0</ele><time>2026-05-01T00:47:22.031Z</time></trkpt><trkpt lat="43.5577903" lon="7.6100844"><ele>0.0</ele><time>2026-05-01T00:47:23.031Z</time></trkpt><trkpt lat="43.5578882" lon="7.6102513"><ele>0.0</ele><time>2026-05-01T00:47:25.031Z</time></trkpt><trkpt lat="43.5579327" lon="7.6103315"><ele>0.0</ele><time>2026-05-01T00:47:26.032Z</time></trkpt><trkpt lat="43.5579759" lon="7.6104143"><ele>0.0</ele><time>2026-05-01T00:47:27.032Z</time></trkpt><trkpt lat="43.5580248" lon="7.6104988"><ele>0.0</ele><time>2026-05-01T00:47:28.032Z</time></trkpt><trkpt lat="43.5580731" lon="7.6105935"><ele>0.0</ele><time>2026-05-01T00:47:29.031Z</time></trkpt><trkpt lat="43.5581232" lon="7.6106872"><ele>0.0</ele><time>2026-05-01T00:47:30.031Z</time></trkpt><trkpt lat="43.558172" lon="7.6107795"><ele>0.0</ele><time>2026-05-01T00:47:31.031Z</time></trkpt><trkpt lat="43.5582184" lon="7.6108725"><ele>0.0</ele><time>2026-05-01T00:47:32.032Z</time></trkpt><trkpt lat="43.558265" lon="7.6109616"><ele>0.0</ele><time>2026-05-01T00:47:33.032Z</time></trkpt><trkpt lat="43.5583681" lon="7.6111336"><ele>0.0</ele><time>2026-05-01T00:47:35.032Z</time></trkpt><trkpt lat="43.558414" lon="7.6112217"><ele>0.0</ele><time>2026-05-01T00:47:36.031Z</time></trkpt><trkpt lat="43.5584593" lon="7.611314"><ele>0.0</ele><time>2026-05-01T00:47:37.031Z</time></trkpt><trkpt lat="43.5585009" lon="7.6114046"><ele>0.0</ele><time>2026-05-01T00:47:38.032Z</time></trkpt><trkpt lat="43.5585397" lon="7.6114905"><ele>0.0</ele><time>2026-05-01T00:47:39.032Z</time></trkpt><trkpt lat="43.5585911" lon="7.6115695"><ele>0.0</ele><time>2026-05-01T00:47:40.031Z</time></trkpt><trkpt lat="43.5586399" lon="7.6116498"><ele>0.0</ele><time>2026-05-01T00:47:41.031Z</time></trkpt><trkpt lat="43.5586855" lon="7.6117327"><ele>0.0</ele><time>2026-05-01T00:47:42.031Z</time></trkpt><trkpt lat="43.5587305" lon="7.6118176"><ele>0.0</ele><time>2026-05-01T00:47:43.032Z</time></trkpt><trkpt lat="43.5587756" lon="7.6119037"><ele>0.0</ele><time>2026-05-01T00:47:44.032Z</time></trkpt><trkpt lat="43.5588672" lon="7.6120979"><ele>0.0</ele><time>2026-05-01T00:47:46.031Z</time></trkpt><trkpt lat="43.558911" lon="7.6121978"><ele>0.0</ele><time>2026-05-01T00:47:47.031Z</time></trkpt><trkpt lat="43.5589573" lon="7.6122921"><ele>0.0</ele><time>2026-05-01T00:47:48.031Z</time></trkpt><trkpt lat="43.5590084" lon="7.6123811"><ele>0.0</ele><time>2026-05-01T00:47:49.031Z</time></trkpt><trkpt lat="43.5590571" lon="7.6124696"><ele>0.0</ele><time>2026-05-01T00:47:50.032Z</time></trkpt><trkpt lat="43.5591067" lon="7.6125522"><ele>0.0</ele><time>2026-05-01T00:47:51.031Z</time></trkpt><trkpt lat="43.5591579" lon="7.6126412"><ele>0.0</ele><time>2026-05-01T00:47:52.031Z</time></trkpt><trkpt lat="43.5592123" lon="7.612731"><ele>0.0</ele><time>2026-05-01T00:47:53.031Z</time></trkpt><trkpt lat="43.559266" lon="7.6128251"><ele>0.0</ele><time>2026-05-01T00:47:54.031Z</time></trkpt><trkpt lat="43.5593123" lon="7.612917"><ele>0.0</ele><time>2026-05-01T00:47:55.032Z</time></trkpt><trkpt lat="43.5593578" lon="7.6130131"><ele>0.0</ele><time>2026-05-01T00:47:56.031Z</time></trkpt><trkpt lat="43.5593969" lon="7.6131015"><ele>0.0</ele><time>2026-05-01T00:47:57.031Z</time></trkpt><trkpt lat="43.5594451" lon="7.6131844"><ele>0.0</ele><time>2026-05-01T00:47:58.031Z</time></trkpt><trkpt lat="43.5594895" lon="7.6132718"><ele>0.0</ele><time>2026-05-01T00:47:59.031Z</time></trkpt><trkpt lat="43.5595325" lon="7.6133559"><ele>0.0</ele><time>2026-05-01T00:48:00.031Z</time></trkpt><trkpt lat="43.5595818" lon="7.6134388"><ele>0.0</ele><time>2026-05-01T00:48:01.031Z</time></trkpt><trkpt lat="43.5596275" lon="7.6135278"><ele>0.0</ele><time>2026-05-01T00:48:02.031Z</time></trkpt><trkpt lat="43.5596766" lon="7.6136137"><ele>0.0</ele><time>2026-05-01T00:48:03.032Z</time></trkpt><trkpt lat="43.5597273" lon="7.6136996"><ele>0.0</ele><time>2026-05-01T00:48:04.031Z</time></trkpt><trkpt lat="43.5597696" lon="7.6137829"><ele>0.0</ele><time>2026-05-01T00:48:05.032Z</time></trkpt><trkpt lat="43.5599262" lon="7.614022"><ele>0.0</ele><time>2026-05-01T00:48:08.032Z</time></trkpt><trkpt lat="43.5599753" lon="7.6141027"><ele>0.0</ele><time>2026-05-01T00:48:09.031Z</time></trkpt><trkpt lat="43.5600196" lon="7.6141886"><ele>0.0</ele><time>2026-05-01T00:48:10.031Z</time></trkpt><trkpt lat="43.5600654" lon="7.6142808"><ele>0.0</ele><time>2026-05-01T00:48:11.032Z</time></trkpt><trkpt lat="43.5601092" lon="7.6143742"><ele>0.0</ele><time>2026-05-01T00:48:12.031Z</time></trkpt><trkpt lat="43.5601613" lon="7.6144631"><ele>0.0</ele><time>2026-05-01T00:48:13.032Z</time></trkpt><trkpt lat="43.5602142" lon="7.6145532"><ele>0.0</ele><time>2026-05-01T00:48:14.031Z</time></trkpt><trkpt lat="43.5602742" lon="7.6146406"><ele>0.0</ele><time>2026-05-01T00:48:15.031Z</time></trkpt><trkpt lat="43.560329" lon="7.6147254"><ele>0.0</ele><time>2026-05-01T00:48:16.031Z</time></trkpt><trkpt lat="43.5603839" lon="7.6148149"><ele>0.0</ele><time>2026-05-01T00:48:17.032Z</time></trkpt><trkpt lat="43.5604365" lon="7.61491"><ele>0.0</ele><time>2026-05-01T00:48:18.032Z</time></trkpt><trkpt lat="43.5604838" lon="7.6150039"><ele>0.0</ele><time>2026-05-01T00:48:19.031Z</time></trkpt><trkpt lat="43.5605305" lon="7.6150988"><ele>0.0</ele><time>2026-05-01T00:48:20.031Z</time></trkpt><trkpt lat="43.5605766" lon="7.6151968"><ele>0.0</ele><time>2026-05-01T00:48:21.031Z</time></trkpt><trkpt lat="43.5606233" lon="7.6152908"><ele>0.0</ele><time>2026-05-01T00:48:22.031Z</time></trkpt><trkpt lat="43.5606716" lon="7.6153826"><ele>0.0</ele><time>2026-05-01T00:48:23.031Z</time></trkpt><trkpt lat="43.5607174" lon="7.6154716"><ele>0.0</ele><time>2026-05-01T00:48:24.031Z</time></trkpt><trkpt lat="43.5607724" lon="7.615557"><ele>0.0</ele><time>2026-05-01T00:48:25.032Z</time></trkpt><trkpt lat="43.5608249" lon="7.6156462"><ele>0.0</ele><time>2026-05-01T00:48:26.031Z</time></trkpt><trkpt lat="43.5608712" lon="7.6157404"><ele>0.0</ele><time>2026-05-01T00:48:27.031Z</time></trkpt><trkpt lat="43.5609653" lon="7.6159135"><ele>0.0</ele><time>2026-05-01T00:48:29.032Z</time></trkpt><trkpt lat="43.5610141" lon="7.6160039"><ele>0.0</ele><time>2026-05-01T00:48:30.031Z</time></trkpt><trkpt lat="43.5610664" lon="7.6160844"><ele>0.0</ele><time>2026-05-01T00:48:31.032Z</time></trkpt><trkpt lat="43.5611111" lon="7.6161701"><ele>0.0</ele><time>2026-05-01T00:48:32.031Z</time></trkpt><trkpt lat="43.5611544" lon="7.6162582"><ele>0.0</ele><time>2026-05-01T00:48:33.031Z</time></trkpt><trkpt lat="43.5612066" lon="7.6163462"><ele>0.0</ele><time>2026-05-01T00:48:34.032Z</time></trkpt><trkpt lat="43.5612574" lon="7.6164361"><ele>0.0</ele><time>2026-05-01T00:48:35.032Z</time></trkpt><trkpt lat="43.5613015" lon="7.6165201"><ele>0.0</ele><time>2026-05-01T00:48:36.031Z</time></trkpt><trkpt lat="43.5613488" lon="7.6166124"><ele>0.0</ele><time>2026-05-01T00:48:37.032Z</time></trkpt><trkpt lat="43.5613986" lon="7.6167071"><ele>0.0</ele><time>2026-05-01T00:48:38.031Z</time></trkpt><trkpt lat="43.5614851" lon="7.6168962"><ele>0.0</ele><time>2026-05-01T00:48:40.031Z</time></trkpt><trkpt lat="43.561525" lon="7.6169786"><ele>0.0</ele><time>2026-05-01T00:48:41.032Z</time></trkpt><trkpt lat="43.5615767" lon="7.6170579"><ele>0.0</ele><time>2026-05-01T00:48:42.031Z</time></trkpt><trkpt lat="43.561621" lon="7.6171451"><ele>0.0</ele><time>2026-05-01T00:48:43.031Z</time></trkpt><trkpt lat="43.5616646" lon="7.6172349"><ele>0.0</ele><time>2026-05-01T00:48:44.032Z</time></trkpt><trkpt lat="43.5617095" lon="7.6173232"><ele>0.0</ele><time>2026-05-01T00:48:45.032Z</time></trkpt><trkpt lat="43.5617601" lon="7.6174128"><ele>0.0</ele><time>2026-05-01T00:48:46.031Z</time></trkpt><trkpt lat="43.5618117" lon="7.6175039"><ele>0.0</ele><time>2026-05-01T00:48:47.031Z</time></trkpt><trkpt lat="43.561863" lon="7.6175945"><ele>0.0</ele><time>2026-05-01T00:48:48.032Z</time></trkpt><trkpt lat="43.5619654" lon="7.6177778"><ele>0.0</ele><time>2026-05-01T00:48:50.031Z</time></trkpt><trkpt lat="43.5620149" lon="7.6178734"><ele>0.0</ele><time>2026-05-01T00:48:51.031Z</time></trkpt><trkpt lat="43.5620662" lon="7.6179674"><ele>0.0</ele><time>2026-05-01T00:48:52.031Z</time></trkpt><trkpt lat="43.5621208" lon="7.6180574"><ele>0.0</ele><time>2026-05-01T00:48:53.032Z</time></trkpt><trkpt lat="43.5621703" lon="7.618144"><ele>0.0</ele><time>2026-05-01T00:48:54.031Z</time></trkpt><trkpt lat="43.5622229" lon="7.6182258"><ele>0.0</ele><time>2026-05-01T00:48:55.031Z</time></trkpt><trkpt lat="43.5622771" lon="7.6183122"><ele>0.0</ele><time>2026-05-01T00:48:56.032Z</time></trkpt><trkpt lat="43.562331" lon="7.6183973"><ele>0.0</ele><time>2026-05-01T00:48:57.032Z</time></trkpt><trkpt lat="43.5623844" lon="7.6184837"><ele>0.0</ele><time>2026-05-01T00:48:58.032Z</time></trkpt><trkpt lat="43.5624377" lon="7.6185731"><ele>0.0</ele><time>2026-05-01T00:48:59.032Z</time></trkpt><trkpt lat="43.5624857" lon="7.6186688"><ele>0.0</ele><time>2026-05-01T00:49:00.032Z</time></trkpt><trkpt lat="43.5625323" lon="7.618761"><ele>0.0</ele><time>2026-05-01T00:49:01.031Z</time></trkpt><trkpt lat="43.5625805" lon="7.6188525"><ele>0.0</ele><time>2026-05-01T00:49:02.032Z</time></trkpt><trkpt lat="43.5626273" lon="7.6189457"><ele>0.0</ele><time>2026-05-01T00:49:03.031Z</time></trkpt><trkpt lat="43.5626751" lon="7.6190377"><ele>0.0</ele><time>2026-05-01T00:49:04.031Z</time></trkpt><trkpt lat="43.5627291" lon="7.6191253"><ele>0.0</ele><time>2026-05-01T00:49:05.031Z</time></trkpt><trkpt lat="43.5627756" lon="7.6192192"><ele>0.0</ele><time>2026-05-01T00:49:06.032Z</time></trkpt><trkpt lat="43.5628227" lon="7.6193129"><ele>0.0</ele><time>2026-05-01T00:49:07.032Z</time></trkpt><trkpt lat="43.562871" lon="7.6194049"><ele>0.0</ele><time>2026-05-01T00:49:08.031Z</time></trkpt><trkpt lat="43.5629169" lon="7.6194963"><ele>0.0</ele><time>2026-05-01T00:49:09.031Z</time></trkpt><trkpt lat="43.5630578" lon="7.6197555"><ele>0.0</ele><time>2026-05-01T00:49:12.032Z</time></trkpt><trkpt lat="43.5631136" lon="7.6198419"><ele>0.0</ele><time>2026-05-01T00:49:13.031Z</time></trkpt><trkpt lat="43.563165" lon="7.6199284"><ele>0.0</ele><time>2026-05-01T00:49:14.032Z</time></trkpt><trkpt lat="43.5632197" lon="7.620012"><ele>0.0</ele><time>2026-05-01T00:49:15.032Z</time></trkpt><trkpt lat="43.5632674" lon="7.6200967"><ele>0.0</ele><time>2026-05-01T00:49:16.031Z</time></trkpt><trkpt lat="43.5633169" lon="7.6201846"><ele>0.0</ele><time>2026-05-01T00:49:17.031Z</time></trkpt><trkpt lat="43.5633642" lon="7.6202786"><ele>0.0</ele><time>2026-05-01T00:49:18.031Z</time></trkpt><trkpt lat="43.563416" lon="7.620367"><ele>0.0</ele><time>2026-05-01T00:49:19.032Z</time></trkpt><trkpt lat="43.5634663" lon="7.6204451"><ele>0.0</ele><time>2026-05-01T00:49:20.031Z</time></trkpt><trkpt lat="43.5635179" lon="7.620535"><ele>0.0</ele><time>2026-05-01T00:49:21.031Z</time></trkpt><trkpt lat="43.5635637" lon="7.6206275"><ele>0.0</ele><time>2026-05-01T00:49:22.031Z</time></trkpt><trkpt lat="43.5636135" lon="7.620719"><ele>0.0</ele><time>2026-05-01T00:49:23.031Z</time></trkpt><trkpt lat="43.5636639" lon="7.6208049"><ele>0.0</ele><time>2026-05-01T00:49:24.031Z</time></trkpt><trkpt lat="43.563717" lon="7.6208913"><ele>0.0</ele><time>2026-05-01T00:49:25.031Z</time></trkpt><trkpt lat="43.5637688" lon="7.6209769"><ele>0.0</ele><time>2026-05-01T00:49:26.032Z</time></trkpt><trkpt lat="43.5638176" lon="7.6210631"><ele>0.0</ele><time>2026-05-01T00:49:27.031Z</time></trkpt><trkpt lat="43.5638716" lon="7.621144"><ele>0.0</ele><time>2026-05-01T00:49:28.032Z</time></trkpt><trkpt lat="43.5639208" lon="7.6212313"><ele>0.0</ele><time>2026-05-01T00:49:29.032Z</time></trkpt><trkpt lat="43.5639675" lon="7.6213227"><ele>0.0</ele><time>2026-05-01T00:49:30.031Z</time></trkpt><trkpt lat="43.5640541" lon="7.6214922"><ele>0.0</ele><time>2026-05-01T00:49:32.031Z</time></trkpt><trkpt lat="43.5640972" lon="7.6215732"><ele>0.0</ele><time>2026-05-01T00:49:33.031Z</time></trkpt><trkpt lat="43.5641395" lon="7.6216572"><ele>0.0</ele><time>2026-05-01T00:49:34.032Z</time></trkpt><trkpt lat="43.5641865" lon="7.6217364"><ele>0.0</ele><time>2026-05-01T00:49:35.032Z</time></trkpt><trkpt lat="43.5642364" lon="7.6218204"><ele>0.0</ele><time>2026-05-01T00:49:36.031Z</time></trkpt><trkpt lat="43.5642804" lon="7.6219116"><ele>0.0</ele><time>2026-05-01T00:49:37.031Z</time></trkpt><trkpt lat="43.5643292" lon="7.6220102"><ele>0.0</ele><time>2026-05-01T00:49:38.031Z</time></trkpt><trkpt lat="43.5643754" lon="7.6221055"><ele>0.0</ele><time>2026-05-01T00:49:39.031Z</time></trkpt><trkpt lat="43.5644173" lon="7.6221977"><ele>0.0</ele><time>2026-05-01T00:49:40.032Z</time></trkpt><trkpt lat="43.5644628" lon="7.622287"><ele>0.0</ele><time>2026-05-01T00:49:41.031Z</time></trkpt><trkpt lat="43.5645127" lon="7.6223813"><ele>0.0</ele><time>2026-05-01T00:49:42.032Z</time></trkpt><trkpt lat="43.5645657" lon="7.6224717"><ele>0.0</ele><time>2026-05-01T00:49:43.032Z</time></trkpt><trkpt lat="43.5646575" lon="7.622649"><ele>0.0</ele><time>2026-05-01T00:49:45.031Z</time></trkpt><trkpt lat="43.5647063" lon="7.6227326"><ele>0.0</ele><time>2026-05-01T00:49:46.031Z</time></trkpt><trkpt lat="43.5647577" lon="7.6228187"><ele>0.0</ele><time>2026-05-01T00:49:47.031Z</time></trkpt><trkpt lat="43.5648066" lon="7.6229025"><ele>0.0</ele><time>2026-05-01T00:49:48.031Z</time></trkpt><trkpt lat="43.5648535" lon="7.6229844"><ele>0.0</ele><time>2026-05-01T00:49:49.032Z</time></trkpt><trkpt lat="43.5649004" lon="7.6230632"><ele>0.0</ele><time>2026-05-01T00:49:50.031Z</time></trkpt><trkpt lat="43.5649499" lon="7.6231472"><ele>0.0</ele><time>2026-05-01T00:49:51.031Z</time></trkpt><trkpt lat="43.5650485" lon="7.6233239"><ele>0.0</ele><time>2026-05-01T00:49:53.031Z</time></trkpt><trkpt lat="43.5650954" lon="7.6234134"><ele>0.0</ele><time>2026-05-01T00:49:54.032Z</time></trkpt><trkpt lat="43.56514" lon="7.6235002"><ele>0.0</ele><time>2026-05-01T00:49:55.032Z</time></trkpt><trkpt lat="43.5651907" lon="7.623586"><ele>0.0</ele><time>2026-05-01T00:49:56.031Z</time></trkpt><trkpt lat="43.5652369" lon="7.6236795"><ele>0.0</ele><time>2026-05-01T00:49:57.032Z</time></trkpt><trkpt lat="43.5652835" lon="7.6237718"><ele>0.0</ele><time>2026-05-01T00:49:58.032Z</time></trkpt><trkpt lat="43.565328" lon="7.6238586"><ele>0.0</ele><time>2026-05-01T00:49:59.032Z</time></trkpt><trkpt lat="43.5653696" lon="7.6239525"><ele>0.0</ele><time>2026-05-01T00:50:00.031Z</time></trkpt><trkpt lat="43.5654123" lon="7.6240419"><ele>0.0</ele><time>2026-05-01T00:50:01.032Z</time></trkpt><trkpt lat="43.565451" lon="7.6241345"><ele>0.0</ele><time>2026-05-01T00:50:02.031Z</time></trkpt><trkpt lat="43.5654871" lon="7.6242174"><ele>0.0</ele><time>2026-05-01T00:50:03.031Z</time></trkpt><trkpt lat="43.5655257" lon="7.6243019"><ele>0.0</ele><time>2026-05-01T00:50:04.031Z</time></trkpt><trkpt lat="43.5655718" lon="7.6243956"><ele>0.0</ele><time>2026-05-01T00:50:05.032Z</time></trkpt><trkpt lat="43.565613" lon="7.6244962"><ele>0.0</ele><time>2026-05-01T00:50:06.031Z</time></trkpt><trkpt lat="43.5656584" lon="7.6245965"><ele>0.0</ele><time>2026-05-01T00:50:07.031Z</time></trkpt><trkpt lat="43.5657069" lon="7.6246961"><ele>0.0</ele><time>2026-05-01T00:50:08.032Z</time></trkpt><trkpt lat="43.5657562" lon="7.6247934"><ele>0.0</ele><time>2026-05-01T00:50:09.031Z</time></trkpt><trkpt lat="43.5658105" lon="7.624889"><ele>0.0</ele><time>2026-05-01T00:50:10.032Z</time></trkpt><trkpt lat="43.5658594" lon="7.6249771"><ele>0.0</ele><time>2026-05-01T00:50:11.031Z</time></trkpt><trkpt lat="43.5659073" lon="7.6250658"><ele>0.0</ele><time>2026-05-01T00:50:12.032Z</time></trkpt><trkpt lat="43.5660154" lon="7.6252438"><ele>0.0</ele><time>2026-05-01T00:50:14.031Z</time></trkpt><trkpt lat="43.5660618" lon="7.6253306"><ele>0.0</ele><time>2026-05-01T00:50:15.031Z</time></trkpt><trkpt lat="43.5661611" lon="7.625506"><ele>0.0</ele><time>2026-05-01T00:50:17.031Z</time></trkpt><trkpt lat="43.5662069" lon="7.625596"><ele>0.0</ele><time>2026-05-01T00:50:18.032Z</time></trkpt><trkpt lat="43.5662552" lon="7.6256848"><ele>0.0</ele><time>2026-05-01T00:50:19.032Z</time></trkpt><trkpt lat="43.566305" lon="7.6257718"><ele>0.0</ele><time>2026-05-01T00:50:20.031Z</time></trkpt><trkpt lat="43.5663564" lon="7.6258627"><ele>0.0</ele><time>2026-05-01T00:50:21.032Z</time></trkpt><trkpt lat="43.5664053" lon="7.6259471"><ele>0.0</ele><time>2026-05-01T00:50:22.031Z</time></trkpt><trkpt lat="43.5664494" lon="7.6260332"><ele>0.0</ele><time>2026-05-01T00:50:23.032Z</time></trkpt><trkpt lat="43.5664929" lon="7.6261171"><ele>0.0</ele><time>2026-05-01T00:50:24.031Z</time></trkpt><trkpt lat="43.5665352" lon="7.6262069"><ele>0.0</ele><time>2026-05-01T00:50:25.031Z</time></trkpt><trkpt lat="43.5665833" lon="7.6262907"><ele>0.0</ele><time>2026-05-01T00:50:26.032Z</time></trkpt><trkpt lat="43.5666332" lon="7.6263765"><ele>0.0</ele><time>2026-05-01T00:50:27.031Z</time></trkpt><trkpt lat="43.5666835" lon="7.6264677"><ele>0.0</ele><time>2026-05-01T00:50:28.032Z</time></trkpt><trkpt lat="43.5667305" lon="7.6265578"><ele>0.0</ele><time>2026-05-01T00:50:29.031Z</time></trkpt><trkpt lat="43.5667801" lon="7.6266463"><ele>0.0</ele><time>2026-05-01T00:50:30.031Z</time></trkpt><trkpt lat="43.566834" lon="7.6267391"><ele>0.0</ele><time>2026-05-01T00:50:31.032Z</time></trkpt><trkpt lat="43.5668875" lon="7.6268252"><ele>0.0</ele><time>2026-05-01T00:50:32.032Z</time></trkpt><trkpt lat="43.5669426" lon="7.6269147"><ele>0.0</ele><time>2026-05-01T00:50:33.031Z</time></trkpt><trkpt lat="43.5670341" lon="7.6270978"><ele>0.0</ele><time>2026-05-01T00:50:35.03Z</time></trkpt><trkpt lat="43.5670794" lon="7.6271899"><ele>0.0</ele><time>2026-05-01T00:50:36.031Z</time></trkpt><trkpt lat="43.5671289" lon="7.6272874"><ele>0.0</ele><time>2026-05-01T00:50:37.03Z</time></trkpt><trkpt lat="43.5671797" lon="7.627374"><ele>0.0</ele><time>2026-05-01T00:50:38.03Z</time></trkpt><trkpt lat="43.5672228" lon="7.6274607"><ele>0.0</ele><time>2026-05-01T00:50:39.031Z</time></trkpt><trkpt lat="43.5672758" lon="7.6275503"><ele>0.0</ele><time>2026-05-01T00:50:40.03Z</time></trkpt><trkpt lat="43.5673263" lon="7.6276403"><ele>0.0</ele><time>2026-05-01T00:50:41.031Z</time></trkpt><trkpt lat="43.5673761" lon="7.6277275"><ele>0.0</ele><time>2026-05-01T00:50:42.03Z</time></trkpt><trkpt lat="43.5674245" lon="7.6278112"><ele>0.0</ele><time>2026-05-01T00:50:43.03Z</time></trkpt><trkpt lat="43.5674784" lon="7.6278947"><ele>0.0</ele><time>2026-05-01T00:50:44.031Z</time></trkpt><trkpt lat="43.5675269" lon="7.6279777"><ele>0.0</ele><time>2026-05-01T00:50:45.03Z</time></trkpt><trkpt lat="43.5675776" lon="7.6280577"><ele>0.0</ele><time>2026-05-01T00:50:46.03Z</time></trkpt><trkpt lat="43.5676279" lon="7.6281456"><ele>0.0</ele><time>2026-05-01T00:50:47.03Z</time></trkpt><trkpt lat="43.5676735" lon="7.628235"><ele>0.0</ele><time>2026-05-01T00:50:48.03Z</time></trkpt><trkpt lat="43.5677597" lon="7.628418"><ele>0.0</ele><time>2026-05-01T00:50:50.031Z</time></trkpt><trkpt lat="43.5678112" lon="7.6285111"><ele>0.0</ele><time>2026-05-01T00:50:51.031Z</time></trkpt><trkpt lat="43.5678624" lon="7.6286069"><ele>0.0</ele><time>2026-05-01T00:50:52.03Z</time></trkpt><trkpt lat="43.5679112" lon="7.6286954"><ele>0.0</ele><time>2026-05-01T00:50:53.03Z</time></trkpt><trkpt lat="43.5679532" lon="7.6287825"><ele>0.0</ele><time>2026-05-01T00:50:54.031Z</time></trkpt><trkpt lat="43.5680366" lon="7.6289698"><ele>0.0</ele><time>2026-05-01T00:50:56.03Z</time></trkpt><trkpt lat="43.5680885" lon="7.6290514"><ele>0.0</ele><time>2026-05-01T00:50:57.03Z</time></trkpt><trkpt lat="43.5681447" lon="7.6291301"><ele>0.0</ele><time>2026-05-01T00:50:58.031Z</time></trkpt><trkpt lat="43.5681947" lon="7.6292166"><ele>0.0</ele><time>2026-05-01T00:50:59.031Z</time></trkpt><trkpt lat="43.5682441" lon="7.6293052"><ele>0.0</ele><time>2026-05-01T00:51:00.03Z</time></trkpt><trkpt lat="43.5682961" lon="7.6293946"><ele>0.0</ele><time>2026-05-01T00:51:01.03Z</time></trkpt><trkpt lat="43.5683491" lon="7.6294851"><ele>0.0</ele><time>2026-05-01T00:51:02.031Z</time></trkpt><trkpt lat="43.568404" lon="7.6295722"><ele>0.0</ele><time>2026-05-01T00:51:03.031Z</time></trkpt><trkpt lat="43.5684604" lon="7.6296599"><ele>0.0</ele><time>2026-05-01T00:51:04.03Z</time></trkpt><trkpt lat="43.5685102" lon="7.629748"><ele>0.0</ele><time>2026-05-01T00:51:05.031Z</time></trkpt><trkpt lat="43.5685532" lon="7.6298394"><ele>0.0</ele><time>2026-05-01T00:51:06.031Z</time></trkpt><trkpt lat="43.5685952" lon="7.6299327"><ele>0.0</ele><time>2026-05-01T00:51:07.031Z</time></trkpt><trkpt lat="43.5686376" lon="7.6300227"><ele>0.0</ele><time>2026-05-01T00:51:08.03Z</time></trkpt><trkpt lat="43.5686799" lon="7.6301175"><ele>0.0</ele><time>2026-05-01T00:51:09.031Z</time></trkpt><trkpt lat="43.568721" lon="7.6302064"><ele>0.0</ele><time>2026-05-01T00:51:10.031Z</time></trkpt><trkpt lat="43.5687634" lon="7.6302964"><ele>0.0</ele><time>2026-05-01T00:51:11.031Z</time></trkpt><trkpt lat="43.5688062" lon="7.6303918"><ele>0.0</ele><time>2026-05-01T00:51:12.031Z</time></trkpt><trkpt lat="43.5688508" lon="7.6304844"><ele>0.0</ele><time>2026-05-01T00:51:13.03Z</time></trkpt><trkpt lat="43.5688973" lon="7.6305718"><ele>0.0</ele><time>2026-05-01T00:51:14.03Z</time></trkpt><trkpt lat="43.5689422" lon="7.6306504"><ele>0.0</ele><time>2026-05-01T00:51:15.03Z</time></trkpt><trkpt lat="43.5690415" lon="7.6308165"><ele>0.0</ele><time>2026-05-01T00:51:17.031Z</time></trkpt><trkpt lat="43.5690883" lon="7.6309007"><ele>0.0</ele><time>2026-05-01T00:51:18.03Z</time></trkpt><trkpt lat="43.5691391" lon="7.6309886"><ele>0.0</ele><time>2026-05-01T00:51:19.031Z</time></trkpt><trkpt lat="43.5691903" lon="7.6310755"><ele>0.0</ele><time>2026-05-01T00:51:20.031Z</time></trkpt><trkpt lat="43.5692425" lon="7.6311609"><ele>0.0</ele><time>2026-05-01T00:51:21.03Z</time></trkpt><trkpt lat="43.569336" lon="7.631328"><ele>0.0</ele><time>2026-05-01T00:51:23.031Z</time></trkpt><trkpt lat="43.5693826" lon="7.6314166"><ele>0.0</ele><time>2026-05-01T00:51:24.031Z</time></trkpt><trkpt lat="43.5694286" lon="7.6314967"><ele>0.0</ele><time>2026-05-01T00:51:25.031Z</time></trkpt><trkpt lat="43.5694778" lon="7.6315821"><ele>0.0</ele><time>2026-05-01T00:51:26.031Z</time></trkpt><trkpt lat="43.5695318" lon="7.6316741"><ele>0.0</ele><time>2026-05-01T00:51:27.03Z</time></trkpt><trkpt lat="43.569584" lon="7.6317657"><ele>0.0</ele><time>2026-05-01T00:51:28.031Z</time></trkpt><trkpt lat="43.5696325" lon="7.631862"><ele>0.0</ele><time>2026-05-01T00:51:29.031Z</time></trkpt><trkpt lat="43.5696839" lon="7.6319588"><ele>0.0</ele><time>2026-05-01T00:51:30.03Z</time></trkpt><trkpt lat="43.5697317" lon="7.6320495"><ele>0.0</ele><time>2026-05-01T00:51:31.031Z</time></trkpt><trkpt lat="43.5697842" lon="7.6321452"><ele>0.0</ele><time>2026-05-01T00:51:32.03Z</time></trkpt><trkpt lat="43.5698363" lon="7.632239"><ele>0.0</ele><time>2026-05-01T00:51:33.03Z</time></trkpt><trkpt lat="43.5698895" lon="7.6323326"><ele>0.0</ele><time>2026-05-01T00:51:34.031Z</time></trkpt><trkpt lat="43.5699442" lon="7.6324314"><ele>0.0</ele><time>2026-05-01T00:51:35.03Z</time></trkpt><trkpt lat="43.5699993" lon="7.6325212"><ele>0.0</ele><time>2026-05-01T00:51:36.031Z</time></trkpt><trkpt lat="43.5700904" lon="7.6327067"><ele>0.0</ele><time>2026-05-01T00:51:38.031Z</time></trkpt><trkpt lat="43.5701381" lon="7.6327993"><ele>0.0</ele><time>2026-05-01T00:51:39.031Z</time></trkpt><trkpt lat="43.5701848" lon="7.6328926"><ele>0.0</ele><time>2026-05-01T00:51:40.03Z</time></trkpt><trkpt lat="43.5702332" lon="7.6329876"><ele>0.0</ele><time>2026-05-01T00:51:41.031Z</time></trkpt><trkpt lat="43.570281" lon="7.6330829"><ele>0.0</ele><time>2026-05-01T00:51:42.03Z</time></trkpt><trkpt lat="43.570328" lon="7.6331736"><ele>0.0</ele><time>2026-05-01T00:51:43.03Z</time></trkpt><trkpt lat="43.5703721" lon="7.6332692"><ele>0.0</ele><time>2026-05-01T00:51:44.03Z</time></trkpt><trkpt lat="43.5704183" lon="7.6333601"><ele>0.0</ele><time>2026-05-01T00:51:45.03Z</time></trkpt><trkpt lat="43.5704606" lon="7.6334528"><ele>0.0</ele><time>2026-05-01T00:51:46.03Z</time></trkpt><trkpt lat="43.5705117" lon="7.6335451"><ele>0.0</ele><time>2026-05-01T00:51:47.031Z</time></trkpt><trkpt lat="43.5705574" lon="7.6336348"><ele>0.0</ele><time>2026-05-01T00:51:48.03Z</time></trkpt><trkpt lat="43.5706006" lon="7.6337219"><ele>0.0</ele><time>2026-05-01T00:51:49.031Z</time></trkpt><trkpt lat="43.5706479" lon="7.6338101"><ele>0.0</ele><time>2026-05-01T00:51:50.03Z</time></trkpt><trkpt lat="43.570695" lon="7.6339014"><ele>0.0</ele><time>2026-05-01T00:51:51.031Z</time></trkpt><trkpt lat="43.5707416" lon="7.6339903"><ele>0.0</ele><time>2026-05-01T00:51:52.031Z</time></trkpt><trkpt lat="43.5707969" lon="7.6340787"><ele>0.0</ele><time>2026-05-01T00:51:53.031Z</time></trkpt><trkpt lat="43.5708973" lon="7.6342482"><ele>0.0</ele><time>2026-05-01T00:51:55.03Z</time></trkpt><trkpt lat="43.5709466" lon="7.6343278"><ele>0.0</ele><time>2026-05-01T00:51:56.03Z</time></trkpt><trkpt lat="43.5709979" lon="7.6344136"><ele>0.0</ele><time>2026-05-01T00:51:57.031Z</time></trkpt><trkpt lat="43.571081" lon="7.6345825"><ele>0.0</ele><time>2026-05-01T00:51:59.03Z</time></trkpt><trkpt lat="43.5711329" lon="7.6346728"><ele>0.0</ele><time>2026-05-01T00:52:00.03Z</time></trkpt><trkpt lat="43.5711859" lon="7.6347687"><ele>0.0</ele><time>2026-05-01T00:52:01.031Z</time></trkpt><trkpt lat="43.5712365" lon="7.6348613"><ele>0.0</ele><time>2026-05-01T00:52:02.031Z</time></trkpt><trkpt lat="43.5712895" lon="7.6349501"><ele>0.0</ele><time>2026-05-01T00:52:03.031Z</time></trkpt><trkpt lat="43.5713412" lon="7.6350329"><ele>0.0</ele><time>2026-05-01T00:52:04.03Z</time></trkpt><trkpt lat="43.5713904" lon="7.6351201"><ele>0.0</ele><time>2026-05-01T00:52:05.031Z</time></trkpt><trkpt lat="43.5714442" lon="7.6352128"><ele>0.0</ele><time>2026-05-01T00:52:06.03Z</time></trkpt><trkpt lat="43.5714923" lon="7.6353058"><ele>0.0</ele><time>2026-05-01T00:52:07.03Z</time></trkpt><trkpt lat="43.5715443" lon="7.6353976"><ele>0.0</ele><time>2026-05-01T00:52:08.031Z</time></trkpt><trkpt lat="43.5715992" lon="7.6354914"><ele>0.0</ele><time>2026-05-01T00:52:09.03Z</time></trkpt><trkpt lat="43.571649" lon="7.6355871"><ele>0.0</ele><time>2026-05-01T00:52:10.031Z</time></trkpt><trkpt lat="43.5716957" lon="7.6356861"><ele>0.0</ele><time>2026-05-01T00:52:11.03Z</time></trkpt><trkpt lat="43.5717405" lon="7.6357809"><ele>0.0</ele><time>2026-05-01T00:52:12.03Z</time></trkpt><trkpt lat="43.5717825" lon="7.6358745"><ele>0.0</ele><time>2026-05-01T00:52:13.03Z</time></trkpt><trkpt lat="43.5718285" lon="7.6359602"><ele>0.0</ele><time>2026-05-01T00:52:14.03Z</time></trkpt><trkpt lat="43.5718751" lon="7.6360471"><ele>0.0</ele><time>2026-05-01T00:52:15.031Z</time></trkpt><trkpt lat="43.5719205" lon="7.6361393"><ele>0.0</ele><time>2026-05-01T00:52:16.03Z</time></trkpt><trkpt lat="43.5719671" lon="7.6362312"><ele>0.0</ele><time>2026-05-01T00:52:17.03Z</time></trkpt><trkpt lat="43.5720109" lon="7.6363201"><ele>0.0</ele><time>2026-05-01T00:52:18.031Z</time></trkpt><trkpt lat="43.5720985" lon="7.6364896"><ele>0.0</ele><time>2026-05-01T00:52:20.03Z</time></trkpt><trkpt lat="43.5721434" lon="7.636577"><ele>0.0</ele><time>2026-05-01T00:52:21.03Z</time></trkpt><trkpt lat="43.572191" lon="7.6366629"><ele>0.0</ele><time>2026-05-01T00:52:22.03Z</time></trkpt><trkpt lat="43.572238" lon="7.6367489"><ele>0.0</ele><time>2026-05-01T00:52:23.03Z</time></trkpt><trkpt lat="43.5722874" lon="7.6368399"><ele>0.0</ele><time>2026-05-01T00:52:24.031Z</time></trkpt><trkpt lat="43.5723363" lon="7.6369257"><ele>0.0</ele><time>2026-05-01T00:52:25.03Z</time></trkpt><trkpt lat="43.572438" lon="7.6370988"><ele>0.0</ele><time>2026-05-01T00:52:27.03Z</time></trkpt><trkpt lat="43.5724897" lon="7.6371939"><ele>0.0</ele><time>2026-05-01T00:52:28.031Z</time></trkpt><trkpt lat="43.572547" lon="7.6372917"><ele>0.0</ele><time>2026-05-01T00:52:29.031Z</time></trkpt><trkpt lat="43.5725922" lon="7.6373916"><ele>0.0</ele><time>2026-05-01T00:52:30.031Z</time></trkpt><trkpt lat="43.5726316" lon="7.6374899"><ele>0.0</ele><time>2026-05-01T00:52:31.03Z</time></trkpt><trkpt lat="43.5726727" lon="7.6375886"><ele>0.0</ele><time>2026-05-01T00:52:32.031Z</time></trkpt><trkpt lat="43.5727086" lon="7.637687"><ele>0.0</ele><time>2026-05-01T00:52:33.031Z</time></trkpt><trkpt lat="43.5727504" lon="7.6377837"><ele>0.0</ele><time>2026-05-01T00:52:34.031Z</time></trkpt><trkpt lat="43.572795" lon="7.6378834"><ele>0.0</ele><time>2026-05-01T00:52:35.03Z</time></trkpt><trkpt lat="43.572836" lon="7.6379718"><ele>0.0</ele><time>2026-05-01T00:52:36.03Z</time></trkpt><trkpt lat="43.5728775" lon="7.6380645"><ele>0.0</ele><time>2026-05-01T00:52:37.031Z</time></trkpt><trkpt lat="43.5729205" lon="7.6381541"><ele>0.0</ele><time>2026-05-01T00:52:38.031Z</time></trkpt><trkpt lat="43.5729556" lon="7.6382503"><ele>0.0</ele><time>2026-05-01T00:52:39.031Z</time></trkpt><trkpt lat="43.5730319" lon="7.6384473"><ele>0.0</ele><time>2026-05-01T00:52:41.031Z</time></trkpt><trkpt lat="43.5730782" lon="7.6385411"><ele>0.0</ele><time>2026-05-01T00:52:42.03Z</time></trkpt><trkpt lat="43.5731262" lon="7.6386334"><ele>0.0</ele><time>2026-05-01T00:52:43.03Z</time></trkpt><trkpt lat="43.5731734" lon="7.6387221"><ele>0.0</ele><time>2026-05-01T00:52:44.03Z</time></trkpt><trkpt lat="43.5732173" lon="7.6388103"><ele>0.0</ele><time>2026-05-01T00:52:45.03Z</time></trkpt><trkpt lat="43.5732635" lon="7.638902"><ele>0.0</ele><time>2026-05-01T00:52:46.03Z</time></trkpt><trkpt lat="43.5733112" lon="7.6389906"><ele>0.0</ele><time>2026-05-01T00:52:47.03Z</time></trkpt><trkpt lat="43.5733566" lon="7.6390757"><ele>0.0</ele><time>2026-05-01T00:52:48.031Z</time></trkpt><trkpt lat="43.5734058" lon="7.6391566"><ele>0.0</ele><time>2026-05-01T00:52:49.03Z</time></trkpt><trkpt lat="43.5734574" lon="7.6392418"><ele>0.0</ele><time>2026-05-01T00:52:50.03Z</time></trkpt><trkpt lat="43.5734992" lon="7.6393269"><ele>0.0</ele><time>2026-05-01T00:52:51.031Z</time></trkpt><trkpt lat="43.5735379" lon="7.6394251"><ele>0.0</ele><time>2026-05-01T00:52:52.03Z</time></trkpt><trkpt lat="43.573582" lon="7.6395207"><ele>0.0</ele><time>2026-05-01T00:52:53.031Z</time></trkpt><trkpt lat="43.57363" lon="7.6396184"><ele>0.0</ele><time>2026-05-01T00:52:54.03Z</time></trkpt><trkpt lat="43.5736783" lon="7.6397109"><ele>0.0</ele><time>2026-05-01T00:52:55.03Z</time></trkpt><trkpt lat="43.5737339" lon="7.6397927"><ele>0.0</ele><time>2026-05-01T00:52:56.031Z</time></trkpt><trkpt lat="43.5737819" lon="7.6398813"><ele>0.0</ele><time>2026-05-01T00:52:57.031Z</time></trkpt><trkpt lat="43.5738303" lon="7.6399742"><ele>0.0</ele><time>2026-05-01T00:52:58.031Z</time></trkpt><trkpt lat="43.5739188" lon="7.6401447"><ele>0.0</ele><time>2026-05-01T00:53:00.031Z</time></trkpt><trkpt lat="43.5740146" lon="7.6403149"><ele>0.0</ele><time>2026-05-01T00:53:02.031Z</time></trkpt><trkpt lat="43.574076" lon="7.6403997"><ele>0.0</ele><time>2026-05-01T00:53:03.03Z</time></trkpt><trkpt lat="43.5741209" lon="7.6404855"><ele>0.0</ele><time>2026-05-01T00:53:04.031Z</time></trkpt><trkpt lat="43.5741625" lon="7.6405732"><ele>0.0</ele><time>2026-05-01T00:53:05.031Z</time></trkpt><trkpt lat="43.5742099" lon="7.6406599"><ele>0.0</ele><time>2026-05-01T00:53:06.03Z</time></trkpt><trkpt lat="43.5742601" lon="7.6407523"><ele>0.0</ele><time>2026-05-01T00:53:07.031Z</time></trkpt><trkpt lat="43.5743069" lon="7.6408415"><ele>0.0</ele><time>2026-05-01T00:53:08.03Z</time></trkpt><trkpt lat="43.5743591" lon="7.6409301"><ele>0.0</ele><time>2026-05-01T00:53:09.031Z</time></trkpt><trkpt lat="43.5744097" lon="7.6410173"><ele>0.0</ele><time>2026-05-01T00:53:10.03Z</time></trkpt><trkpt lat="43.5744619" lon="7.6411045"><ele>0.0</ele><time>2026-05-01T00:53:11.03Z</time></trkpt><trkpt lat="43.5745087" lon="7.6411922"><ele>0.0</ele><time>2026-05-01T00:53:12.03Z</time></trkpt><trkpt lat="43.5745579" lon="7.6412834"><ele>0.0</ele><time>2026-05-01T00:53:13.031Z</time></trkpt><trkpt lat="43.5746063" lon="7.6413721"><ele>0.0</ele><time>2026-05-01T00:53:14.03Z</time></trkpt><trkpt lat="43.5746589" lon="7.6414658"><ele>0.0</ele><time>2026-05-01T00:53:15.031Z</time></trkpt><trkpt lat="43.5747139" lon="7.641556"><ele>0.0</ele><time>2026-05-01T00:53:16.03Z</time></trkpt><trkpt lat="43.5747685" lon="7.6416496"><ele>0.0</ele><time>2026-05-01T00:53:17.03Z</time></trkpt><trkpt lat="43.5748167" lon="7.6417402"><ele>0.0</ele><time>2026-05-01T00:53:18.031Z</time></trkpt><trkpt lat="43.5748652" lon="7.6418259"><ele>0.0</ele><time>2026-05-01T00:53:19.031Z</time></trkpt><trkpt lat="43.5749125" lon="7.6419196"><ele>0.0</ele><time>2026-05-01T00:53:20.03Z</time></trkpt><trkpt lat="43.5749614" lon="7.6420108"><ele>0.0</ele><time>2026-05-01T00:53:21.031Z</time></trkpt><trkpt lat="43.5750562" lon="7.6421969"><ele>0.0</ele><time>2026-05-01T00:53:23.031Z</time></trkpt><trkpt lat="43.5750999" lon="7.6422859"><ele>0.0</ele><time>2026-05-01T00:53:24.03Z</time></trkpt><trkpt lat="43.5751479" lon="7.6423752"><ele>0.0</ele><time>2026-05-01T00:53:25.03Z</time></trkpt><trkpt lat="43.5752012" lon="7.642464"><ele>0.0</ele><time>2026-05-01T00:53:26.03Z</time></trkpt><trkpt lat="43.5752517" lon="7.6425561"><ele>0.0</ele><time>2026-05-01T00:53:27.03Z</time></trkpt><trkpt lat="43.5753001" lon="7.642648"><ele>0.0</ele><time>2026-05-01T00:53:28.031Z</time></trkpt><trkpt lat="43.5753472" lon="7.6427399"><ele>0.0</ele><time>2026-05-01T00:53:29.03Z</time></trkpt><trkpt lat="43.5753934" lon="7.642836"><ele>0.0</ele><time>2026-05-01T00:53:30.03Z</time></trkpt><trkpt lat="43.5754483" lon="7.6429308"><ele>0.0</ele><time>2026-05-01T00:53:31.03Z</time></trkpt><trkpt lat="43.5755051" lon="7.6430232"><ele>0.0</ele><time>2026-05-01T00:53:32.031Z</time></trkpt><trkpt lat="43.5755574" lon="7.6431133"><ele>0.0</ele><time>2026-05-01T00:53:33.03Z</time></trkpt><trkpt lat="43.5756048" lon="7.6432006"><ele>0.0</ele><time>2026-05-01T00:53:34.031Z</time></trkpt><trkpt lat="43.5756535" lon="7.643287"><ele>0.0</ele><time>2026-05-01T00:53:35.031Z</time></trkpt><trkpt lat="43.5756975" lon="7.6433798"><ele>0.0</ele><time>2026-05-01T00:53:36.031Z</time></trkpt><trkpt lat="43.5757409" lon="7.643467"><ele>0.0</ele><time>2026-05-01T00:53:37.03Z</time></trkpt><trkpt lat="43.5757884" lon="7.6435539"><ele>0.0</ele><time>2026-05-01T00:53:38.031Z</time></trkpt><trkpt lat="43.5758343" lon="7.6436421"><ele>0.0</ele><time>2026-05-01T00:53:39.031Z</time></trkpt><trkpt lat="43.5758737" lon="7.6437372"><ele>0.0</ele><time>2026-05-01T00:53:40.031Z</time></trkpt><trkpt lat="43.5759103" lon="7.643834"><ele>0.0</ele><time>2026-05-01T00:53:41.031Z</time></trkpt><trkpt lat="43.5759565" lon="7.6439321"><ele>0.0</ele><time>2026-05-01T00:53:42.03Z</time></trkpt><trkpt lat="43.5760498" lon="7.644124"><ele>0.0</ele><time>2026-05-01T00:53:44.031Z</time></trkpt><trkpt lat="43.5761012" lon="7.6442242"><ele>0.0</ele><time>2026-05-01T00:53:45.031Z</time></trkpt><trkpt lat="43.5761526" lon="7.6443202"><ele>0.0</ele><time>2026-05-01T00:53:46.031Z</time></trkpt><trkpt lat="43.5762056" lon="7.6444088"><ele>0.0</ele><time>2026-05-01T00:53:47.03Z</time></trkpt><trkpt lat="43.5762547" lon="7.6444895"><ele>0.0</ele><time>2026-05-01T00:53:48.03Z</time></trkpt><trkpt lat="43.576307" lon="7.6445772"><ele>0.0</ele><time>2026-05-01T00:53:49.03Z</time></trkpt><trkpt lat="43.5763568" lon="7.6446578"><ele>0.0</ele><time>2026-05-01T00:53:50.03Z</time></trkpt><trkpt lat="43.5764025" lon="7.6447442"><ele>0.0</ele><time>2026-05-01T00:53:51.03Z</time></trkpt><trkpt lat="43.5764528" lon="7.6448292"><ele>0.0</ele><time>2026-05-01T00:53:52.031Z</time></trkpt><trkpt lat="43.5765035" lon="7.6449198"><ele>0.0</ele><time>2026-05-01T00:53:53.03Z</time></trkpt><trkpt lat="43.5765531" lon="7.6450168"><ele>0.0</ele><time>2026-05-01T00:53:54.03Z</time></trkpt><trkpt lat="43.5766002" lon="7.645115"><ele>0.0</ele><time>2026-05-01T00:53:55.03Z</time></trkpt><trkpt lat="43.5766524" lon="7.6452138"><ele>0.0</ele><time>2026-05-01T00:53:56.031Z</time></trkpt><trkpt lat="43.576703" lon="7.6453091"><ele>0.0</ele><time>2026-05-01T00:53:57.03Z</time></trkpt><trkpt lat="43.5767539" lon="7.6454014"><ele>0.0</ele><time>2026-05-01T00:53:58.031Z</time></trkpt><trkpt lat="43.576803" lon="7.6454918"><ele>0.0</ele><time>2026-05-01T00:53:59.031Z</time></trkpt><trkpt lat="43.5768357" lon="7.6455846"><ele>0.0</ele><time>2026-05-01T00:54:00.031Z</time></trkpt><trkpt lat="43.5768834" lon="7.6456739"><ele>0.0</ele><time>2026-05-01T00:54:01.03Z</time></trkpt><trkpt lat="43.5769299" lon="7.645757"><ele>0.0</ele><time>2026-05-01T00:54:02.031Z</time></trkpt><trkpt lat="43.5769737" lon="7.6458502"><ele>0.0</ele><time>2026-05-01T00:54:03.03Z</time></trkpt><trkpt lat="43.5771131" lon="7.6461361"><ele>0.0</ele><time>2026-05-01T00:54:06.031Z</time></trkpt><trkpt lat="43.5771655" lon="7.6462223"><ele>0.0</ele><time>2026-05-01T00:54:07.03Z</time></trkpt><trkpt lat="43.577216" lon="7.6463065"><ele>0.0</ele><time>2026-05-01T00:54:08.031Z</time></trkpt><trkpt lat="43.5772646" lon="7.6464011"><ele>0.0</ele><time>2026-05-01T00:54:09.03Z</time></trkpt><trkpt lat="43.5773171" lon="7.6464959"><ele>0.0</ele><time>2026-05-01T00:54:10.03Z</time></trkpt><trkpt lat="43.5773606" lon="7.6465883"><ele>0.0</ele><time>2026-05-01T00:54:11.03Z</time></trkpt><trkpt lat="43.5774064" lon="7.646677"><ele>0.0</ele><time>2026-05-01T00:54:12.03Z</time></trkpt><trkpt lat="43.5774605" lon="7.6467657"><ele>0.0</ele><time>2026-05-01T00:54:13.03Z</time></trkpt><trkpt lat="43.5775172" lon="7.6468636"><ele>0.0</ele><time>2026-05-01T00:54:14.03Z</time></trkpt><trkpt lat="43.5775713" lon="7.6469611"><ele>0.0</ele><time>2026-05-01T00:54:15.03Z</time></trkpt><trkpt lat="43.5776231" lon="7.6470534"><ele>0.0</ele><time>2026-05-01T00:54:16.03Z</time></trkpt><trkpt lat="43.5776746" lon="7.6471449"><ele>0.0</ele><time>2026-05-01T00:54:17.031Z</time></trkpt><trkpt lat="43.577725" lon="7.6472353"><ele>0.0</ele><time>2026-05-01T00:54:18.03Z</time></trkpt><trkpt lat="43.5777562" lon="7.6473208"><ele>0.0</ele><time>2026-05-01T00:54:19.03Z</time></trkpt><trkpt lat="43.5777878" lon="7.6474073"><ele>0.0</ele><time>2026-05-01T00:54:20.03Z</time></trkpt><trkpt lat="43.5778393" lon="7.6474995"><ele>0.0</ele><time>2026-05-01T00:54:21.03Z</time></trkpt><trkpt lat="43.5778971" lon="7.6475854"><ele>0.0</ele><time>2026-05-01T00:54:22.03Z</time></trkpt><trkpt lat="43.5779454" lon="7.6476707"><ele>0.0</ele><time>2026-05-01T00:54:23.03Z</time></trkpt><trkpt lat="43.5779907" lon="7.6477601"><ele>0.0</ele><time>2026-05-01T00:54:24.03Z</time></trkpt><trkpt lat="43.5780412" lon="7.6478472"><ele>0.0</ele><time>2026-05-01T00:54:25.031Z</time></trkpt><trkpt lat="43.5781288" lon="7.6480327"><ele>0.0</ele><time>2026-05-01T00:54:27.03Z</time></trkpt><trkpt lat="43.5781754" lon="7.648123"><ele>0.0</ele><time>2026-05-01T00:54:28.031Z</time></trkpt><trkpt lat="43.5782223" lon="7.6482188"><ele>0.0</ele><time>2026-05-01T00:54:29.031Z</time></trkpt><trkpt lat="43.5782589" lon="7.6483102"><ele>0.0</ele><time>2026-05-01T00:54:30.03Z</time></trkpt><trkpt lat="43.5782926" lon="7.6483978"><ele>0.0</ele><time>2026-05-01T00:54:31.03Z</time></trkpt><trkpt lat="43.5783357" lon="7.6484882"><ele>0.0</ele><time>2026-05-01T00:54:32.031Z</time></trkpt><trkpt lat="43.578382" lon="7.6485771"><ele>0.0</ele><time>2026-05-01T00:54:33.031Z</time></trkpt><trkpt lat="43.5784287" lon="7.6486666"><ele>0.0</ele><time>2026-05-01T00:54:34.03Z</time></trkpt><trkpt lat="43.5784783" lon="7.6487611"><ele>0.0</ele><time>2026-05-01T00:54:35.03Z</time></trkpt><trkpt lat="43.5785239" lon="7.6488458"><ele>0.0</ele><time>2026-05-01T00:54:36.03Z</time></trkpt><trkpt lat="43.5786152" lon="7.6490264"><ele>0.0</ele><time>2026-05-01T00:54:38.03Z</time></trkpt><trkpt lat="43.5786604" lon="7.6491163"><ele>0.0</ele><time>2026-05-01T00:54:39.03Z</time></trkpt><trkpt lat="43.578711" lon="7.6492041"><ele>0.0</ele><time>2026-05-01T00:54:40.03Z</time></trkpt><trkpt lat="43.578754" lon="7.6492967"><ele>0.0</ele><time>2026-05-01T00:54:41.031Z</time></trkpt><trkpt lat="43.578803" lon="7.6493904"><ele>0.0</ele><time>2026-05-01T00:54:42.031Z</time></trkpt><trkpt lat="43.5788531" lon="7.6494815"><ele>0.0</ele><time>2026-05-01T00:54:43.031Z</time></trkpt><trkpt lat="43.5789002" lon="7.6495738"><ele>0.0</ele><time>2026-05-01T00:54:44.03Z</time></trkpt><trkpt lat="43.5789509" lon="7.6496605"><ele>0.0</ele><time>2026-05-01T00:54:45.03Z</time></trkpt><trkpt lat="43.5789943" lon="7.6497472"><ele>0.0</ele><time>2026-05-01T00:54:46.031Z</time></trkpt><trkpt lat="43.5790775" lon="7.6499359"><ele>0.0</ele><time>2026-05-01T00:54:48.03Z</time></trkpt><trkpt lat="43.5791175" lon="7.6500253"><ele>0.0</ele><time>2026-05-01T00:54:49.03Z</time></trkpt><trkpt lat="43.5791599" lon="7.6501219"><ele>0.0</ele><time>2026-05-01T00:54:50.03Z</time></trkpt><trkpt lat="43.5792067" lon="7.6502205"><ele>0.0</ele><time>2026-05-01T00:54:51.031Z</time></trkpt><trkpt lat="43.5792548" lon="7.65031"><ele>0.0</ele><time>2026-05-01T00:54:52.031Z</time></trkpt><trkpt lat="43.5793047" lon="7.6503987"><ele>0.0</ele><time>2026-05-01T00:54:53.031Z</time></trkpt><trkpt lat="43.5793534" lon="7.6504827"><ele>0.0</ele><time>2026-05-01T00:54:54.03Z</time></trkpt><trkpt lat="43.5794088" lon="7.6505727"><ele>0.0</ele><time>2026-05-01T00:54:55.031Z</time></trkpt><trkpt lat="43.5794618" lon="7.6506676"><ele>0.0</ele><time>2026-05-01T00:54:56.03Z</time></trkpt><trkpt lat="43.5795104" lon="7.6507653"><ele>0.0</ele><time>2026-05-01T00:54:57.03Z</time></trkpt><trkpt lat="43.5795586" lon="7.6508589"><ele>0.0</ele><time>2026-05-01T00:54:58.03Z</time></trkpt><trkpt lat="43.5796056" lon="7.6509567"><ele>0.0</ele><time>2026-05-01T00:54:59.031Z</time></trkpt><trkpt lat="43.5796539" lon="7.651045"><ele>0.0</ele><time>2026-05-01T00:55:00.03Z</time></trkpt><trkpt lat="43.5797031" lon="7.6511348"><ele>0.0</ele><time>2026-05-01T00:55:01.031Z</time></trkpt><trkpt lat="43.5797487" lon="7.6512264"><ele>0.0</ele><time>2026-05-01T00:55:02.03Z</time></trkpt><trkpt lat="43.5797951" lon="7.6513184"><ele>0.0</ele><time>2026-05-01T00:55:03.031Z</time></trkpt><trkpt lat="43.5798415" lon="7.6514086"><ele>0.0</ele><time>2026-05-01T00:55:04.03Z</time></trkpt><trkpt lat="43.5798909" lon="7.6514945"><ele>0.0</ele><time>2026-05-01T00:55:05.031Z</time></trkpt><trkpt lat="43.5799345" lon="7.6515783"><ele>0.0</ele><time>2026-05-01T00:55:06.03Z</time></trkpt><trkpt lat="43.5799757" lon="7.6516648"><ele>0.0</ele><time>2026-05-01T00:55:07.03Z</time></trkpt><trkpt lat="43.5800747" lon="7.6518554"><ele>0.0</ele><time>2026-05-01T00:55:09.03Z</time></trkpt><trkpt lat="43.5801747" lon="7.652038"><ele>0.0</ele><time>2026-05-01T00:55:11.03Z</time></trkpt><trkpt lat="43.5802216" lon="7.6521271"><ele>0.0</ele><time>2026-05-01T00:55:12.031Z</time></trkpt><trkpt lat="43.5802666" lon="7.6522126"><ele>0.0</ele><time>2026-05-01T00:55:13.03Z</time></trkpt><trkpt lat="43.5803144" lon="7.6523053"><ele>0.0</ele><time>2026-05-01T00:55:14.03Z</time></trkpt><trkpt lat="43.5803631" lon="7.6523956"><ele>0.0</ele><time>2026-05-01T00:55:15.031Z</time></trkpt><trkpt lat="43.5804117" lon="7.6524878"><ele>0.0</ele><time>2026-05-01T00:55:16.03Z</time></trkpt><trkpt lat="43.5804586" lon="7.6525823"><ele>0.0</ele><time>2026-05-01T00:55:17.031Z</time></trkpt><trkpt lat="43.580505" lon="7.6526748"><ele>0.0</ele><time>2026-05-01T00:55:18.031Z</time></trkpt><trkpt lat="43.5805513" lon="7.6527682"><ele>0.0</ele><time>2026-05-01T00:55:19.03Z</time></trkpt><trkpt lat="43.5806038" lon="7.6528626"><ele>0.0</ele><time>2026-05-01T00:55:20.031Z</time></trkpt><trkpt lat="43.5806572" lon="7.6529541"><ele>0.0</ele><time>2026-05-01T00:55:21.031Z</time></trkpt><trkpt lat="43.5807054" lon="7.6530468"><ele>0.0</ele><time>2026-05-01T00:55:22.03Z</time></trkpt><trkpt lat="43.5807521" lon="7.65314"><ele>0.0</ele><time>2026-05-01T00:55:23.03Z</time></trkpt><trkpt lat="43.5808002" lon="7.6532343"><ele>0.0</ele><time>2026-05-01T00:55:24.03Z</time></trkpt><trkpt lat="43.5808498" lon="7.6533276"><ele>0.0</ele><time>2026-05-01T00:55:25.029Z</time></trkpt><trkpt lat="43.5808996" lon="7.6534268"><ele>0.0</ele><time>2026-05-01T00:55:26.03Z</time></trkpt><trkpt lat="43.5809511" lon="7.6535272"><ele>0.0</ele><time>2026-05-01T00:55:27.029Z</time></trkpt><trkpt lat="43.581" lon="7.6536131"><ele>0.0</ele><time>2026-05-01T00:55:28.029Z</time></trkpt><trkpt lat="43.5810888" lon="7.6537875"><ele>0.0</ele><time>2026-05-01T00:55:30.029Z</time></trkpt><trkpt lat="43.5811409" lon="7.6538811"><ele>0.0</ele><time>2026-05-01T00:55:31.029Z</time></trkpt><trkpt lat="43.5811898" lon="7.6539712"><ele>0.0</ele><time>2026-05-01T00:55:32.03Z</time></trkpt><trkpt lat="43.5812369" lon="7.6540647"><ele>0.0</ele><time>2026-05-01T00:55:33.029Z</time></trkpt><trkpt lat="43.5812835" lon="7.6541597"><ele>0.0</ele><time>2026-05-01T00:55:34.029Z</time></trkpt><trkpt lat="43.5813331" lon="7.6542531"><ele>0.0</ele><time>2026-05-01T00:55:35.03Z</time></trkpt><trkpt lat="43.5813877" lon="7.6543387"><ele>0.0</ele><time>2026-05-01T00:55:36.03Z</time></trkpt><trkpt lat="43.5814398" lon="7.6544317"><ele>0.0</ele><time>2026-05-01T00:55:37.03Z</time></trkpt><trkpt lat="43.5814899" lon="7.6545303"><ele>0.0</ele><time>2026-05-01T00:55:38.029Z</time></trkpt><trkpt lat="43.5815371" lon="7.6546258"><ele>0.0</ele><time>2026-05-01T00:55:39.03Z</time></trkpt><trkpt lat="43.5815861" lon="7.6547221"><ele>0.0</ele><time>2026-05-01T00:55:40.03Z</time></trkpt><trkpt lat="43.581636" lon="7.6548198"><ele>0.0</ele><time>2026-05-01T00:55:41.03Z</time></trkpt><trkpt lat="43.5816849" lon="7.6549173"><ele>0.0</ele><time>2026-05-01T00:55:42.029Z</time></trkpt><trkpt lat="43.5817827" lon="7.6550944"><ele>0.0</ele><time>2026-05-01T00:55:44.03Z</time></trkpt><trkpt lat="43.5818254" lon="7.6551793"><ele>0.0</ele><time>2026-05-01T00:55:45.03Z</time></trkpt><trkpt lat="43.5818733" lon="7.6552667"><ele>0.0</ele><time>2026-05-01T00:55:46.029Z</time></trkpt><trkpt lat="43.5819252" lon="7.6553576"><ele>0.0</ele><time>2026-05-01T00:55:47.029Z</time></trkpt><trkpt lat="43.5819783" lon="7.6554535"><ele>0.0</ele><time>2026-05-01T00:55:48.029Z</time></trkpt><trkpt lat="43.5820318" lon="7.6555461"><ele>0.0</ele><time>2026-05-01T00:55:49.029Z</time></trkpt><trkpt lat="43.5821304" lon="7.6557632"><ele>0.0</ele><time>2026-05-01T00:55:51.029Z</time></trkpt><trkpt lat="43.5821752" lon="7.6558586"><ele>0.0</ele><time>2026-05-01T00:55:52.029Z</time></trkpt><trkpt lat="43.582223" lon="7.6559557"><ele>0.0</ele><time>2026-05-01T00:55:53.03Z</time></trkpt><trkpt lat="43.5822715" lon="7.6560498"><ele>0.0</ele><time>2026-05-01T00:55:54.029Z</time></trkpt><trkpt lat="43.5823186" lon="7.6561381"><ele>0.0</ele><time>2026-05-01T00:55:55.03Z</time></trkpt><trkpt lat="43.5823624" lon="7.6562125"><ele>0.0</ele><time>2026-05-01T00:55:56.03Z</time></trkpt><trkpt lat="43.5824026" lon="7.6562874"><ele>0.0</ele><time>2026-05-01T00:55:57.029Z</time></trkpt><trkpt lat="43.5824459" lon="7.6563741"><ele>0.0</ele><time>2026-05-01T00:55:58.029Z</time></trkpt><trkpt lat="43.5824892" lon="7.6564636"><ele>0.0</ele><time>2026-05-01T00:55:59.03Z</time></trkpt><trkpt lat="43.5825369" lon="7.6565491"><ele>0.0</ele><time>2026-05-01T00:56:00.029Z</time></trkpt><trkpt lat="43.5825808" lon="7.6566364"><ele>0.0</ele><time>2026-05-01T00:56:01.03Z</time></trkpt><trkpt lat="43.582624" lon="7.6567229"><ele>0.0</ele><time>2026-05-01T00:56:02.03Z</time></trkpt><trkpt lat="43.5826661" lon="7.6568079"><ele>0.0</ele><time>2026-05-01T00:56:03.03Z</time></trkpt><trkpt lat="43.5827092" lon="7.6568971"><ele>0.0</ele><time>2026-05-01T00:56:04.03Z</time></trkpt><trkpt lat="43.5827508" lon="7.6569886"><ele>0.0</ele><time>2026-05-01T00:56:05.03Z</time></trkpt><trkpt lat="43.582798" lon="7.6570803"><ele>0.0</ele><time>2026-05-01T00:56:06.03Z</time></trkpt><trkpt lat="43.5828448" lon="7.657171"><ele>0.0</ele><time>2026-05-01T00:56:07.03Z</time></trkpt><trkpt lat="43.5828956" lon="7.657262"><ele>0.0</ele><time>2026-05-01T00:56:08.03Z</time></trkpt><trkpt lat="43.5829457" lon="7.6573594"><ele>0.0</ele><time>2026-05-01T00:56:09.029Z</time></trkpt><trkpt lat="43.5829946" lon="7.6574482"><ele>0.0</ele><time>2026-05-01T00:56:10.029Z</time></trkpt><trkpt lat="43.5830953" lon="7.6576251"><ele>0.0</ele><time>2026-05-01T00:56:12.029Z</time></trkpt><trkpt lat="43.5831405" lon="7.6577184"><ele>0.0</ele><time>2026-05-01T00:56:13.03Z</time></trkpt><trkpt lat="43.5831856" lon="7.6578087"><ele>0.0</ele><time>2026-05-01T00:56:14.029Z</time></trkpt><trkpt lat="43.5832307" lon="7.6579012"><ele>0.0</ele><time>2026-05-01T00:56:15.03Z</time></trkpt><trkpt lat="43.5833331" lon="7.6580824"><ele>0.0</ele><time>2026-05-01T00:56:17.029Z</time></trkpt><trkpt lat="43.5833877" lon="7.6581773"><ele>0.0</ele><time>2026-05-01T00:56:18.029Z</time></trkpt><trkpt lat="43.58344" lon="7.6582738"><ele>0.0</ele><time>2026-05-01T00:56:19.029Z</time></trkpt><trkpt lat="43.5834872" lon="7.6583646"><ele>0.0</ele><time>2026-05-01T00:56:20.03Z</time></trkpt><trkpt lat="43.5835348" lon="7.6584618"><ele>0.0</ele><time>2026-05-01T00:56:21.029Z</time></trkpt><trkpt lat="43.583587" lon="7.6585562"><ele>0.0</ele><time>2026-05-01T00:56:22.03Z</time></trkpt><trkpt lat="43.5836363" lon="7.6586498"><ele>0.0</ele><time>2026-05-01T00:56:23.029Z</time></trkpt><trkpt lat="43.5836852" lon="7.6587398"><ele>0.0</ele><time>2026-05-01T00:56:24.029Z</time></trkpt><trkpt lat="43.5837347" lon="7.6588267"><ele>0.0</ele><time>2026-05-01T00:56:25.029Z</time></trkpt><trkpt lat="43.583782" lon="7.6589177"><ele>0.0</ele><time>2026-05-01T00:56:26.029Z</time></trkpt><trkpt lat="43.5838367" lon="7.6590068"><ele>0.0</ele><time>2026-05-01T00:56:27.029Z</time></trkpt><trkpt lat="43.5838937" lon="7.6590984"><ele>0.0</ele><time>2026-05-01T00:56:28.03Z</time></trkpt><trkpt lat="43.5839476" lon="7.6591877"><ele>0.0</ele><time>2026-05-01T00:56:29.03Z</time></trkpt><trkpt lat="43.5839982" lon="7.6592828"><ele>0.0</ele><time>2026-05-01T00:56:30.029Z</time></trkpt><trkpt lat="43.5840478" lon="7.6593782"><ele>0.0</ele><time>2026-05-01T00:56:31.029Z</time></trkpt><trkpt lat="43.5841452" lon="7.6595554"><ele>0.0</ele><time>2026-05-01T00:56:33.029Z</time></trkpt><trkpt lat="43.5841922" lon="7.6596406"><ele>0.0</ele><time>2026-05-01T00:56:34.029Z</time></trkpt><trkpt lat="43.5842355" lon="7.6597237"><ele>0.0</ele><time>2026-05-01T00:56:35.029Z</time></trkpt><trkpt lat="43.5842813" lon="7.6598089"><ele>0.0</ele><time>2026-05-01T00:56:36.029Z</time></trkpt><trkpt lat="43.5843241" lon="7.6598933"><ele>0.0</ele><time>2026-05-01T00:56:37.029Z</time></trkpt><trkpt lat="43.5843702" lon="7.6599826"><ele>0.0</ele><time>2026-05-01T00:56:38.029Z</time></trkpt><trkpt lat="43.5844187" lon="7.6600728"><ele>0.0</ele><time>2026-05-01T00:56:39.029Z</time></trkpt><trkpt lat="43.5844671" lon="7.6601665"><ele>0.0</ele><time>2026-05-01T00:56:40.029Z</time></trkpt><trkpt lat="43.5845163" lon="7.6602495"><ele>0.0</ele><time>2026-05-01T00:56:41.029Z</time></trkpt><trkpt lat="43.5845608" lon="7.6603342"><ele>0.0</ele><time>2026-05-01T00:56:42.029Z</time></trkpt><trkpt lat="43.5846083" lon="7.6604283"><ele>0.0</ele><time>2026-05-01T00:56:43.029Z</time></trkpt><trkpt lat="43.5846607" lon="7.6605262"><ele>0.0</ele><time>2026-05-01T00:56:44.03Z</time></trkpt><trkpt lat="43.5847086" lon="7.6606116"><ele>0.0</ele><time>2026-05-01T00:56:45.03Z</time></trkpt><trkpt lat="43.5847543" lon="7.6606961"><ele>0.0</ele><time>2026-05-01T00:56:46.03Z</time></trkpt><trkpt lat="43.5848035" lon="7.6607878"><ele>0.0</ele><time>2026-05-01T00:56:47.029Z</time></trkpt><trkpt lat="43.5848969" lon="7.6609883"><ele>0.0</ele><time>2026-05-01T00:56:49.029Z</time></trkpt><trkpt lat="43.5849435" lon="7.6610926"><ele>0.0</ele><time>2026-05-01T00:56:50.029Z</time></trkpt><trkpt lat="43.584996" lon="7.6611921"><ele>0.0</ele><time>2026-05-01T00:56:51.029Z</time></trkpt><trkpt lat="43.5850517" lon="7.6612864"><ele>0.0</ele><time>2026-05-01T00:56:52.03Z</time></trkpt><trkpt lat="43.5851446" lon="7.6614577"><ele>0.0</ele><time>2026-05-01T00:56:54.03Z</time></trkpt><trkpt lat="43.5851917" lon="7.6615469"><ele>0.0</ele><time>2026-05-01T00:56:55.03Z</time></trkpt><trkpt lat="43.5852288" lon="7.6616372"><ele>0.0</ele><time>2026-05-01T00:56:56.03Z</time></trkpt><trkpt lat="43.5852779" lon="7.6617256"><ele>0.0</ele><time>2026-05-01T00:56:57.029Z</time></trkpt><trkpt lat="43.5853239" lon="7.6618134"><ele>0.0</ele><time>2026-05-01T00:56:58.029Z</time></trkpt><trkpt lat="43.585376" lon="7.6619048"><ele>0.0</ele><time>2026-05-01T00:56:59.03Z</time></trkpt><trkpt lat="43.5854294" lon="7.6619981"><ele>0.0</ele><time>2026-05-01T00:57:00.03Z</time></trkpt><trkpt lat="43.5854813" lon="7.6620919"><ele>0.0</ele><time>2026-05-01T00:57:01.029Z</time></trkpt><trkpt lat="43.5855285" lon="7.6621839"><ele>0.0</ele><time>2026-05-01T00:57:02.03Z</time></trkpt><trkpt lat="43.5855652" lon="7.662271"><ele>0.0</ele><time>2026-05-01T00:57:03.03Z</time></trkpt><trkpt lat="43.5856144" lon="7.6623545"><ele>0.0</ele><time>2026-05-01T00:57:04.03Z</time></trkpt><trkpt lat="43.5856618" lon="7.6624405"><ele>0.0</ele><time>2026-05-01T00:57:05.029Z</time></trkpt><trkpt lat="43.5857125" lon="7.6625311"><ele>0.0</ele><time>2026-05-01T00:57:06.03Z</time></trkpt><trkpt lat="43.585742" lon="7.6626205"><ele>0.0</ele><time>2026-05-01T00:57:07.03Z</time></trkpt><trkpt lat="43.5857757" lon="7.6627853"><ele>0.0</ele><time>2026-05-01T00:57:09.029Z</time></trkpt><trkpt lat="43.5858191" lon="7.6628743"><ele>0.0</ele><time>2026-05-01T00:57:10.03Z</time></trkpt><trkpt lat="43.5858599" lon="7.662966"><ele>0.0</ele><time>2026-05-01T00:57:11.029Z</time></trkpt><trkpt lat="43.5859043" lon="7.6630629"><ele>0.0</ele><time>2026-05-01T00:57:12.029Z</time></trkpt><trkpt lat="43.5859481" lon="7.663154"><ele>0.0</ele><time>2026-05-01T00:57:13.029Z</time></trkpt><trkpt lat="43.5860359" lon="7.6633236"><ele>0.0</ele><time>2026-05-01T00:57:15.029Z</time></trkpt><trkpt lat="43.5860781" lon="7.6634093"><ele>0.0</ele><time>2026-05-01T00:57:16.029Z</time></trkpt><trkpt lat="43.586124" lon="7.6635053"><ele>0.0</ele><time>2026-05-01T00:57:17.029Z</time></trkpt><trkpt lat="43.5861661" lon="7.663598"><ele>0.0</ele><time>2026-05-01T00:57:18.03Z</time></trkpt><trkpt lat="43.5862091" lon="7.6636883"><ele>0.0</ele><time>2026-05-01T00:57:19.029Z</time></trkpt><trkpt lat="43.5862539" lon="7.66378"><ele>0.0</ele><time>2026-05-01T00:57:20.029Z</time></trkpt><trkpt lat="43.5863531" lon="7.6639689"><ele>0.0</ele><time>2026-05-01T00:57:22.03Z</time></trkpt><trkpt lat="43.5864033" lon="7.6640643"><ele>0.0</ele><time>2026-05-01T00:57:23.03Z</time></trkpt><trkpt lat="43.5864532" lon="7.6641577"><ele>0.0</ele><time>2026-05-01T00:57:24.03Z</time></trkpt><trkpt lat="43.5864991" lon="7.664248"><ele>0.0</ele><time>2026-05-01T00:57:25.03Z</time></trkpt><trkpt lat="43.5865438" lon="7.6643397"><ele>0.0</ele><time>2026-05-01T00:57:26.029Z</time></trkpt><trkpt lat="43.5865884" lon="7.6644288"><ele>0.0</ele><time>2026-05-01T00:57:27.03Z</time></trkpt><trkpt lat="43.5866295" lon="7.6645173"><ele>0.0</ele><time>2026-05-01T00:57:28.029Z</time></trkpt><trkpt lat="43.5866693" lon="7.6646119"><ele>0.0</ele><time>2026-05-01T00:57:29.03Z</time></trkpt><trkpt lat="43.5867153" lon="7.6647051"><ele>0.0</ele><time>2026-05-01T00:57:30.03Z</time></trkpt><trkpt lat="43.5867644" lon="7.6647965"><ele>0.0</ele><time>2026-05-01T00:57:31.03Z</time></trkpt><trkpt lat="43.5868063" lon="7.6648857"><ele>0.0</ele><time>2026-05-01T00:57:32.03Z</time></trkpt><trkpt lat="43.586859" lon="7.6649727"><ele>0.0</ele><time>2026-05-01T00:57:33.03Z</time></trkpt><trkpt lat="43.5869097" lon="7.6650566"><ele>0.0</ele><time>2026-05-01T00:57:34.029Z</time></trkpt><trkpt lat="43.5870123" lon="7.6652348"><ele>0.0</ele><time>2026-05-01T00:57:36.029Z</time></trkpt><trkpt lat="43.5870663" lon="7.6653263"><ele>0.0</ele><time>2026-05-01T00:57:37.03Z</time></trkpt><trkpt lat="43.5871163" lon="7.6654161"><ele>0.0</ele><time>2026-05-01T00:57:38.03Z</time></trkpt><trkpt lat="43.5871693" lon="7.6655047"><ele>0.0</ele><time>2026-05-01T00:57:39.03Z</time></trkpt><trkpt lat="43.5872212" lon="7.665596"><ele>0.0</ele><time>2026-05-01T00:57:40.029Z</time></trkpt><trkpt lat="43.5872602" lon="7.6656975"><ele>0.0</ele><time>2026-05-01T00:57:41.029Z</time></trkpt><trkpt lat="43.5873085" lon="7.6657996"><ele>0.0</ele><time>2026-05-01T00:57:42.03Z</time></trkpt><trkpt lat="43.5873553" lon="7.6658973"><ele>0.0</ele><time>2026-05-01T00:57:43.029Z</time></trkpt><trkpt lat="43.5873974" lon="7.6659958"><ele>0.0</ele><time>2026-05-01T00:57:44.029Z</time></trkpt><trkpt lat="43.5874432" lon="7.6660883"><ele>0.0</ele><time>2026-05-01T00:57:45.03Z</time></trkpt><trkpt lat="43.5874858" lon="7.6661811"><ele>0.0</ele><time>2026-05-01T00:57:46.029Z</time></trkpt><trkpt lat="43.5875261" lon="7.6662746"><ele>0.0</ele><time>2026-05-01T00:57:47.03Z</time></trkpt><trkpt lat="43.5875702" lon="7.6663653"><ele>0.0</ele><time>2026-05-01T00:57:48.029Z</time></trkpt><trkpt lat="43.5876138" lon="7.6664558"><ele>0.0</ele><time>2026-05-01T00:57:49.03Z</time></trkpt><trkpt lat="43.5876615" lon="7.6665427"><ele>0.0</ele><time>2026-05-01T00:57:50.029Z</time></trkpt><trkpt lat="43.5877128" lon="7.6666349"><ele>0.0</ele><time>2026-05-01T00:57:51.03Z</time></trkpt><trkpt lat="43.587766" lon="7.6667209"><ele>0.0</ele><time>2026-05-01T00:57:52.029Z</time></trkpt><trkpt lat="43.5878649" lon="7.6668977"><ele>0.0</ele><time>2026-05-01T00:57:54.03Z</time></trkpt><trkpt lat="43.5879133" lon="7.6669866"><ele>0.0</ele><time>2026-05-01T00:57:55.03Z</time></trkpt><trkpt lat="43.5880079" lon="7.6671743"><ele>0.0</ele><time>2026-05-01T00:57:57.029Z</time></trkpt><trkpt lat="43.5880468" lon="7.667271"><ele>0.0</ele><time>2026-05-01T00:57:58.03Z</time></trkpt><trkpt lat="43.5880891" lon="7.6673625"><ele>0.0</ele><time>2026-05-01T00:57:59.03Z</time></trkpt><trkpt lat="43.5881295" lon="7.6674579"><ele>0.0</ele><time>2026-05-01T00:58:00.03Z</time></trkpt><trkpt lat="43.588181" lon="7.6675531"><ele>0.0</ele><time>2026-05-01T00:58:01.03Z</time></trkpt><trkpt lat="43.5882296" lon="7.6676482"><ele>0.0</ele><time>2026-05-01T00:58:02.029Z</time></trkpt><trkpt lat="43.5882779" lon="7.667746"><ele>0.0</ele><time>2026-05-01T00:58:03.03Z</time></trkpt><trkpt lat="43.5883218" lon="7.6678448"><ele>0.0</ele><time>2026-05-01T00:58:04.029Z</time></trkpt><trkpt lat="43.5883724" lon="7.6679445"><ele>0.0</ele><time>2026-05-01T00:58:05.03Z</time></trkpt><trkpt lat="43.5884243" lon="7.6680399"><ele>0.0</ele><time>2026-05-01T00:58:06.029Z</time></trkpt><trkpt lat="43.5884802" lon="7.6681334"><ele>0.0</ele><time>2026-05-01T00:58:07.03Z</time></trkpt><trkpt lat="43.5885368" lon="7.6682293"><ele>0.0</ele><time>2026-05-01T00:58:08.029Z</time></trkpt><trkpt lat="43.5885862" lon="7.6683287"><ele>0.0</ele><time>2026-05-01T00:58:09.029Z</time></trkpt><trkpt lat="43.5886306" lon="7.6684214"><ele>0.0</ele><time>2026-05-01T00:58:10.029Z</time></trkpt><trkpt lat="43.5886782" lon="7.6685133"><ele>0.0</ele><time>2026-05-01T00:58:11.03Z</time></trkpt><trkpt lat="43.5887336" lon="7.6686049"><ele>0.0</ele><time>2026-05-01T00:58:12.03Z</time></trkpt><trkpt lat="43.5887829" lon="7.6686893"><ele>0.0</ele><time>2026-05-01T00:58:13.029Z</time></trkpt><trkpt lat="43.5888359" lon="7.6687825"><ele>0.0</ele><time>2026-05-01T00:58:14.029Z</time></trkpt><trkpt lat="43.588872" lon="7.6688676"><ele>0.0</ele><time>2026-05-01T00:58:15.029Z</time></trkpt><trkpt lat="43.5889155" lon="7.6689582"><ele>0.0</ele><time>2026-05-01T00:58:16.029Z</time></trkpt><trkpt lat="43.5890109" lon="7.6691385"><ele>0.0</ele><time>2026-05-01T00:58:18.029Z</time></trkpt><trkpt lat="43.5890543" lon="7.6692228"><ele>0.0</ele><time>2026-05-01T00:58:19.03Z</time></trkpt><trkpt lat="43.5891031" lon="7.6693161"><ele>0.0</ele><time>2026-05-01T00:58:20.029Z</time></trkpt><trkpt lat="43.5891532" lon="7.6694096"><ele>0.0</ele><time>2026-05-01T00:58:21.03Z</time></trkpt><trkpt lat="43.589202" lon="7.6695073"><ele>0.0</ele><time>2026-05-01T00:58:22.029Z</time></trkpt><trkpt lat="43.5892418" lon="7.6696025"><ele>0.0</ele><time>2026-05-01T00:58:23.03Z</time></trkpt><trkpt lat="43.5892887" lon="7.6696966"><ele>0.0</ele><time>2026-05-01T00:58:24.029Z</time></trkpt><trkpt lat="43.5893807" lon="7.6698828"><ele>0.0</ele><time>2026-05-01T00:58:26.03Z</time></trkpt><trkpt lat="43.5894312" lon="7.6699796"><ele>0.0</ele><time>2026-05-01T00:58:27.029Z</time></trkpt><trkpt lat="43.5894832" lon="7.6700733"><ele>0.0</ele><time>2026-05-01T00:58:28.03Z</time></trkpt><trkpt lat="43.5895344" lon="7.6701606"><ele>0.0</ele><time>2026-05-01T00:58:29.03Z</time></trkpt><trkpt lat="43.5895833" lon="7.6702455"><ele>0.0</ele><time>2026-05-01T00:58:30.03Z</time></trkpt><trkpt lat="43.5896318" lon="7.6703327"><ele>0.0</ele><time>2026-05-01T00:58:31.03Z</time></trkpt><trkpt lat="43.5896797" lon="7.6704211"><ele>0.0</ele><time>2026-05-01T00:58:32.029Z</time></trkpt><trkpt lat="43.5897236" lon="7.6705135"><ele>0.0</ele><time>2026-05-01T00:58:33.03Z</time></trkpt><trkpt lat="43.5897757" lon="7.6706051"><ele>0.0</ele><time>2026-05-01T00:58:34.029Z</time></trkpt><trkpt lat="43.589829" lon="7.6706909"><ele>0.0</ele><time>2026-05-01T00:58:35.029Z</time></trkpt><trkpt lat="43.5898778" lon="7.6707774"><ele>0.0</ele><time>2026-05-01T00:58:36.029Z</time></trkpt><trkpt lat="43.5899251" lon="7.670876"><ele>0.0</ele><time>2026-05-01T00:58:37.03Z</time></trkpt><trkpt lat="43.5900128" lon="7.6710803"><ele>0.0</ele><time>2026-05-01T00:58:39.03Z</time></trkpt><trkpt lat="43.5900617" lon="7.6711719"><ele>0.0</ele><time>2026-05-01T00:58:40.03Z</time></trkpt><trkpt lat="43.5901086" lon="7.6712606"><ele>0.0</ele><time>2026-05-01T00:58:41.03Z</time></trkpt><trkpt lat="43.5901523" lon="7.671342"><ele>0.0</ele><time>2026-05-01T00:58:42.029Z</time></trkpt><trkpt lat="43.5902001" lon="7.6714221"><ele>0.0</ele><time>2026-05-01T00:58:43.03Z</time></trkpt><trkpt lat="43.5902498" lon="7.6715101"><ele>0.0</ele><time>2026-05-01T00:58:44.029Z</time></trkpt><trkpt lat="43.5903015" lon="7.6716023"><ele>0.0</ele><time>2026-05-01T00:58:45.029Z</time></trkpt><trkpt lat="43.5903517" lon="7.6716986"><ele>0.0</ele><time>2026-05-01T00:58:46.03Z</time></trkpt><trkpt lat="43.5903969" lon="7.6717885"><ele>0.0</ele><time>2026-05-01T00:58:47.029Z</time></trkpt><trkpt lat="43.5904422" lon="7.6718753"><ele>0.0</ele><time>2026-05-01T00:58:48.03Z</time></trkpt><trkpt lat="43.5904914" lon="7.6719603"><ele>0.0</ele><time>2026-05-01T00:58:49.029Z</time></trkpt><trkpt lat="43.590546" lon="7.6720496"><ele>0.0</ele><time>2026-05-01T00:58:50.029Z</time></trkpt><trkpt lat="43.5906006" lon="7.672144"><ele>0.0</ele><time>2026-05-01T00:58:51.029Z</time></trkpt><trkpt lat="43.590653" lon="7.6722338"><ele>0.0</ele><time>2026-05-01T00:58:52.029Z</time></trkpt><trkpt lat="43.5907003" lon="7.6723178"><ele>0.0</ele><time>2026-05-01T00:58:53.03Z</time></trkpt><trkpt lat="43.5907483" lon="7.6723986"><ele>0.0</ele><time>2026-05-01T00:58:54.029Z</time></trkpt><trkpt lat="43.590795" lon="7.6724845"><ele>0.0</ele><time>2026-05-01T00:58:55.029Z</time></trkpt><trkpt lat="43.5908404" lon="7.6725698"><ele>0.0</ele><time>2026-05-01T00:58:56.03Z</time></trkpt><trkpt lat="43.5908827" lon="7.6726549"><ele>0.0</ele><time>2026-05-01T00:58:57.029Z</time></trkpt><trkpt lat="43.5910219" lon="7.6729169"><ele>0.0</ele><time>2026-05-01T00:59:00.029Z</time></trkpt><trkpt lat="43.5910697" lon="7.6730097"><ele>0.0</ele><time>2026-05-01T00:59:01.029Z</time></trkpt><trkpt lat="43.5911168" lon="7.6730992"><ele>0.0</ele><time>2026-05-01T00:59:02.03Z</time></trkpt><trkpt lat="43.5911663" lon="7.6731952"><ele>0.0</ele><time>2026-05-01T00:59:03.029Z</time></trkpt><trkpt lat="43.591219" lon="7.673296"><ele>0.0</ele><time>2026-05-01T00:59:04.03Z</time></trkpt><trkpt lat="43.5912709" lon="7.6733872"><ele>0.0</ele><time>2026-05-01T00:59:05.029Z</time></trkpt><trkpt lat="43.5913258" lon="7.6734812"><ele>0.0</ele><time>2026-05-01T00:59:06.029Z</time></trkpt><trkpt lat="43.5913725" lon="7.6735755"><ele>0.0</ele><time>2026-05-01T00:59:07.03Z</time></trkpt><trkpt lat="43.5914146" lon="7.6736726"><ele>0.0</ele><time>2026-05-01T00:59:08.03Z</time></trkpt><trkpt lat="43.5914631" lon="7.6737694"><ele>0.0</ele><time>2026-05-01T00:59:09.029Z</time></trkpt><trkpt lat="43.591513" lon="7.673863"><ele>0.0</ele><time>2026-05-01T00:59:10.029Z</time></trkpt><trkpt lat="43.5915588" lon="7.6739579"><ele>0.0</ele><time>2026-05-01T00:59:11.029Z</time></trkpt><trkpt lat="43.5916052" lon="7.6740517"><ele>0.0</ele><time>2026-05-01T00:59:12.03Z</time></trkpt><trkpt lat="43.5916513" lon="7.6741492"><ele>0.0</ele><time>2026-05-01T00:59:13.029Z</time></trkpt><trkpt lat="43.5916997" lon="7.6742492"><ele>0.0</ele><time>2026-05-01T00:59:14.029Z</time></trkpt><trkpt lat="43.5917453" lon="7.674346"><ele>0.0</ele><time>2026-05-01T00:59:15.03Z</time></trkpt><trkpt lat="43.5917877" lon="7.6744369"><ele>0.0</ele><time>2026-05-01T00:59:16.029Z</time></trkpt><trkpt lat="43.5918335" lon="7.6745314"><ele>0.0</ele><time>2026-05-01T00:59:17.03Z</time></trkpt><trkpt lat="43.5918747" lon="7.6746277"><ele>0.0</ele><time>2026-05-01T00:59:18.029Z</time></trkpt><trkpt lat="43.5919148" lon="7.67472"><ele>0.0</ele><time>2026-05-01T00:59:19.03Z</time></trkpt><trkpt lat="43.5919983" lon="7.6749032"><ele>0.0</ele><time>2026-05-01T00:59:21.029Z</time></trkpt><trkpt lat="43.5920451" lon="7.6749952"><ele>0.0</ele><time>2026-05-01T00:59:22.029Z</time></trkpt><trkpt lat="43.5920952" lon="7.6750871"><ele>0.0</ele><time>2026-05-01T00:59:23.029Z</time></trkpt><trkpt lat="43.5921424" lon="7.6751773"><ele>0.0</ele><time>2026-05-01T00:59:24.029Z</time></trkpt><trkpt lat="43.5921831" lon="7.6752642"><ele>0.0</ele><time>2026-05-01T00:59:25.03Z</time></trkpt><trkpt lat="43.5922373" lon="7.6753519"><ele>0.0</ele><time>2026-05-01T00:59:26.03Z</time></trkpt><trkpt lat="43.5922925" lon="7.6754399"><ele>0.0</ele><time>2026-05-01T00:59:27.03Z</time></trkpt><trkpt lat="43.5923431" lon="7.6755328"><ele>0.0</ele><time>2026-05-01T00:59:28.03Z</time></trkpt><trkpt lat="43.5923933" lon="7.6756306"><ele>0.0</ele><time>2026-05-01T00:59:29.03Z</time></trkpt><trkpt lat="43.5924401" lon="7.6757276"><ele>0.0</ele><time>2026-05-01T00:59:30.03Z</time></trkpt><trkpt lat="43.5925396" lon="7.6759231"><ele>0.0</ele><time>2026-05-01T00:59:32.03Z</time></trkpt><trkpt lat="43.5925882" lon="7.6760212"><ele>0.0</ele><time>2026-05-01T00:59:33.03Z</time></trkpt><trkpt lat="43.5926253" lon="7.6761203"><ele>0.0</ele><time>2026-05-01T00:59:34.029Z</time></trkpt><trkpt lat="43.5926693" lon="7.6762083"><ele>0.0</ele><time>2026-05-01T00:59:35.03Z</time></trkpt><trkpt lat="43.5927127" lon="7.6763001"><ele>0.0</ele><time>2026-05-01T00:59:36.029Z</time></trkpt><trkpt lat="43.5927597" lon="7.6763903"><ele>0.0</ele><time>2026-05-01T00:59:37.03Z</time></trkpt><trkpt lat="43.5927898" lon="7.6764834"><ele>0.0</ele><time>2026-05-01T00:59:38.029Z</time></trkpt><trkpt lat="43.5928352" lon="7.6765779"><ele>0.0</ele><time>2026-05-01T00:59:39.029Z</time></trkpt><trkpt lat="43.592882" lon="7.6766706"><ele>0.0</ele><time>2026-05-01T00:59:40.03Z</time></trkpt><trkpt lat="43.5929768" lon="7.6768595"><ele>0.0</ele><time>2026-05-01T00:59:42.029Z</time></trkpt><trkpt lat="43.5930265" lon="7.6769497"><ele>0.0</ele><time>2026-05-01T00:59:43.03Z</time></trkpt><trkpt lat="43.5930751" lon="7.6770381"><ele>0.0</ele><time>2026-05-01T00:59:44.03Z</time></trkpt><trkpt lat="43.5931178" lon="7.6771281"><ele>0.0</ele><time>2026-05-01T00:59:45.029Z</time></trkpt><trkpt lat="43.5931622" lon="7.6772187"><ele>0.0</ele><time>2026-05-01T00:59:46.03Z</time></trkpt><trkpt lat="43.593213" lon="7.6773169"><ele>0.0</ele><time>2026-05-01T00:59:47.03Z</time></trkpt><trkpt lat="43.5932574" lon="7.6774036"><ele>0.0</ele><time>2026-05-01T00:59:48.03Z</time></trkpt><trkpt lat="43.593306" lon="7.6774913"><ele>0.0</ele><time>2026-05-01T00:59:49.03Z</time></trkpt><trkpt lat="43.593352" lon="7.6775915"><ele>0.0</ele><time>2026-05-01T00:59:50.029Z</time></trkpt><trkpt lat="43.5933974" lon="7.6776908"><ele>0.0</ele><time>2026-05-01T00:59:51.029Z</time></trkpt><trkpt lat="43.5934421" lon="7.6777805"><ele>0.0</ele><time>2026-05-01T00:59:52.029Z</time></trkpt><trkpt lat="43.5934884" lon="7.6778775"><ele>0.0</ele><time>2026-05-01T00:59:53.029Z</time></trkpt><trkpt lat="43.5935372" lon="7.6779665"><ele>0.0</ele><time>2026-05-01T00:59:54.029Z</time></trkpt><trkpt lat="43.5935839" lon="7.6780535"><ele>0.0</ele><time>2026-05-01T00:59:55.029Z</time></trkpt><trkpt lat="43.5936265" lon="7.6781358"><ele>0.0</ele><time>2026-05-01T00:59:56.029Z</time></trkpt><trkpt lat="43.5936653" lon="7.678229"><ele>0.0</ele><time>2026-05-01T00:59:57.029Z</time></trkpt><trkpt lat="43.5937045" lon="7.6783274"><ele>0.0</ele><time>2026-05-01T00:59:58.029Z</time></trkpt><trkpt lat="43.5937531" lon="7.6784263"><ele>0.0</ele><time>2026-05-01T00:59:59.029Z</time></trkpt><trkpt lat="43.5938012" lon="7.6785161"><ele>0.0</ele><time>2026-05-01T01:00:00.029Z</time></trkpt><trkpt lat="43.5938491" lon="7.6786082"><ele>0.0</ele><time>2026-05-01T01:00:01.029Z</time></trkpt><trkpt lat="43.5938996" lon="7.6786986"><ele>0.0</ele><time>2026-05-01T01:00:02.029Z</time></trkpt><trkpt lat="43.5940579" lon="7.6789564"><ele>0.0</ele><time>2026-05-01T01:00:05.03Z</time></trkpt><trkpt lat="43.5941111" lon="7.6790477"><ele>0.0</ele><time>2026-05-01T01:00:06.03Z</time></trkpt><trkpt lat="43.5941616" lon="7.6791371"><ele>0.0</ele><time>2026-05-01T01:00:07.029Z</time></trkpt><trkpt lat="43.5942103" lon="7.6792213"><ele>0.0</ele><time>2026-05-01T01:00:08.029Z</time></trkpt><trkpt lat="43.5942587" lon="7.6793027"><ele>0.0</ele><time>2026-05-01T01:00:09.029Z</time></trkpt><trkpt lat="43.5943057" lon="7.679389"><ele>0.0</ele><time>2026-05-01T01:00:10.029Z</time></trkpt><trkpt lat="43.594349" lon="7.6794698"><ele>0.0</ele><time>2026-05-01T01:00:11.029Z</time></trkpt><trkpt lat="43.5943952" lon="7.6795599"><ele>0.0</ele><time>2026-05-01T01:00:12.028Z</time></trkpt><trkpt lat="43.5944386" lon="7.6796565"><ele>0.0</ele><time>2026-05-01T01:00:13.028Z</time></trkpt><trkpt lat="43.5944906" lon="7.6797459"><ele>0.0</ele><time>2026-05-01T01:00:14.028Z</time></trkpt><trkpt lat="43.5945427" lon="7.6798389"><ele>0.0</ele><time>2026-05-01T01:00:15.028Z</time></trkpt><trkpt lat="43.5945919" lon="7.6799344"><ele>0.0</ele><time>2026-05-01T01:00:16.029Z</time></trkpt><trkpt lat="43.5946371" lon="7.6800349"><ele>0.0</ele><time>2026-05-01T01:00:17.028Z</time></trkpt><trkpt lat="43.5946823" lon="7.6801311"><ele>0.0</ele><time>2026-05-01T01:00:18.029Z</time></trkpt><trkpt lat="43.5947272" lon="7.6802203"><ele>0.0</ele><time>2026-05-01T01:00:19.029Z</time></trkpt><trkpt lat="43.5947748" lon="7.6803126"><ele>0.0</ele><time>2026-05-01T01:00:20.028Z</time></trkpt><trkpt lat="43.5948258" lon="7.6804072"><ele>0.0</ele><time>2026-05-01T01:00:21.028Z</time></trkpt><trkpt lat="43.5948733" lon="7.6805101"><ele>0.0</ele><time>2026-05-01T01:00:22.028Z</time></trkpt><trkpt lat="43.5949245" lon="7.6806051"><ele>0.0</ele><time>2026-05-01T01:00:23.029Z</time></trkpt><trkpt lat="43.5949743" lon="7.6806956"><ele>0.0</ele><time>2026-05-01T01:00:24.029Z</time></trkpt><trkpt lat="43.5950747" lon="7.6808735"><ele>0.0</ele><time>2026-05-01T01:00:26.028Z</time></trkpt><trkpt lat="43.5951245" lon="7.6809605"><ele>0.0</ele><time>2026-05-01T01:00:27.029Z</time></trkpt><trkpt lat="43.5951763" lon="7.6810525"><ele>0.0</ele><time>2026-05-01T01:00:28.028Z</time></trkpt><trkpt lat="43.5952226" lon="7.6811377"><ele>0.0</ele><time>2026-05-01T01:00:29.028Z</time></trkpt><trkpt lat="43.5952673" lon="7.6812171"><ele>0.0</ele><time>2026-05-01T01:00:30.028Z</time></trkpt><trkpt lat="43.5953106" lon="7.6812999"><ele>0.0</ele><time>2026-05-01T01:00:31.028Z</time></trkpt><trkpt lat="43.5953543" lon="7.6813873"><ele>0.0</ele><time>2026-05-01T01:00:32.029Z</time></trkpt><trkpt lat="43.5953986" lon="7.6814732"><ele>0.0</ele><time>2026-05-01T01:00:33.028Z</time></trkpt><trkpt lat="43.5954493" lon="7.6815609"><ele>0.0</ele><time>2026-05-01T01:00:34.029Z</time></trkpt><trkpt lat="43.5954983" lon="7.6816478"><ele>0.0</ele><time>2026-05-01T01:00:35.028Z</time></trkpt><trkpt lat="43.5955969" lon="7.6818355"><ele>0.0</ele><time>2026-05-01T01:00:37.028Z</time></trkpt><trkpt lat="43.5956479" lon="7.681938"><ele>0.0</ele><time>2026-05-01T01:00:38.028Z</time></trkpt><trkpt lat="43.5956983" lon="7.6820311"><ele>0.0</ele><time>2026-05-01T01:00:39.028Z</time></trkpt><trkpt lat="43.5957467" lon="7.6821289"><ele>0.0</ele><time>2026-05-01T01:00:40.028Z</time></trkpt><trkpt lat="43.5957893" lon="7.6822262"><ele>0.0</ele><time>2026-05-01T01:00:41.028Z</time></trkpt><trkpt lat="43.5958366" lon="7.6823188"><ele>0.0</ele><time>2026-05-01T01:00:42.029Z</time></trkpt><trkpt lat="43.5958861" lon="7.682412"><ele>0.0</ele><time>2026-05-01T01:00:43.028Z</time></trkpt><trkpt lat="43.5959365" lon="7.6825065"><ele>0.0</ele><time>2026-05-01T01:00:44.028Z</time></trkpt><trkpt lat="43.595982" lon="7.6825984"><ele>0.0</ele><time>2026-05-01T01:00:45.028Z</time></trkpt><trkpt lat="43.5960704" lon="7.6827929"><ele>0.0</ele><time>2026-05-01T01:00:47.028Z</time></trkpt><trkpt lat="43.5961183" lon="7.6828905"><ele>0.0</ele><time>2026-05-01T01:00:48.029Z</time></trkpt><trkpt lat="43.5961691" lon="7.6829859"><ele>0.0</ele><time>2026-05-01T01:00:49.029Z</time></trkpt><trkpt lat="43.5962226" lon="7.6830795"><ele>0.0</ele><time>2026-05-01T01:00:50.028Z</time></trkpt><trkpt lat="43.5962777" lon="7.6831771"><ele>0.0</ele><time>2026-05-01T01:00:51.029Z</time></trkpt><trkpt lat="43.5963274" lon="7.6832683"><ele>0.0</ele><time>2026-05-01T01:00:52.029Z</time></trkpt><trkpt lat="43.59638" lon="7.6833608"><ele>0.0</ele><time>2026-05-01T01:00:53.029Z</time></trkpt><trkpt lat="43.5964285" lon="7.6834567"><ele>0.0</ele><time>2026-05-01T01:00:54.028Z</time></trkpt><trkpt lat="43.5964752" lon="7.6835482"><ele>0.0</ele><time>2026-05-01T01:00:55.028Z</time></trkpt><trkpt lat="43.5965204" lon="7.6836375"><ele>0.0</ele><time>2026-05-01T01:00:56.029Z</time></trkpt><trkpt lat="43.5965637" lon="7.6837221"><ele>0.0</ele><time>2026-05-01T01:00:57.028Z</time></trkpt><trkpt lat="43.5966087" lon="7.6838056"><ele>0.0</ele><time>2026-05-01T01:00:58.029Z</time></trkpt><trkpt lat="43.596655" lon="7.6838859"><ele>0.0</ele><time>2026-05-01T01:00:59.028Z</time></trkpt><trkpt lat="43.5966935" lon="7.6839812"><ele>0.0</ele><time>2026-05-01T01:01:00.028Z</time></trkpt><trkpt lat="43.5967374" lon="7.6840732"><ele>0.0</ele><time>2026-05-01T01:01:01.029Z</time></trkpt><trkpt lat="43.5967822" lon="7.6841662"><ele>0.0</ele><time>2026-05-01T01:01:02.028Z</time></trkpt><trkpt lat="43.5968268" lon="7.6842612"><ele>0.0</ele><time>2026-05-01T01:01:03.028Z</time></trkpt><trkpt lat="43.5968676" lon="7.684355"><ele>0.0</ele><time>2026-05-01T01:01:04.029Z</time></trkpt><trkpt lat="43.5969122" lon="7.6844511"><ele>0.0</ele><time>2026-05-01T01:01:05.029Z</time></trkpt><trkpt lat="43.5969972" lon="7.6846249"><ele>0.0</ele><time>2026-05-01T01:01:07.029Z</time></trkpt><trkpt lat="43.5970381" lon="7.6847182"><ele>0.0</ele><time>2026-05-01T01:01:08.028Z</time></trkpt><trkpt lat="43.5971272" lon="7.6849049"><ele>0.0</ele><time>2026-05-01T01:01:10.029Z</time></trkpt><trkpt lat="43.5971767" lon="7.6849951"><ele>0.0</ele><time>2026-05-01T01:01:11.028Z</time></trkpt><trkpt lat="43.5972335" lon="7.6850868"><ele>0.0</ele><time>2026-05-01T01:01:12.028Z</time></trkpt><trkpt lat="43.5972861" lon="7.6851753"><ele>0.0</ele><time>2026-05-01T01:01:13.028Z</time></trkpt><trkpt lat="43.5973391" lon="7.685261"><ele>0.0</ele><time>2026-05-01T01:01:14.028Z</time></trkpt><trkpt lat="43.5973956" lon="7.6853515"><ele>0.0</ele><time>2026-05-01T01:01:15.029Z</time></trkpt><trkpt lat="43.5974397" lon="7.6854476"><ele>0.0</ele><time>2026-05-01T01:01:16.029Z</time></trkpt><trkpt lat="43.5974812" lon="7.6855427"><ele>0.0</ele><time>2026-05-01T01:01:17.029Z</time></trkpt><trkpt lat="43.5975255" lon="7.6856369"><ele>0.0</ele><time>2026-05-01T01:01:18.028Z</time></trkpt><trkpt lat="43.5975761" lon="7.6857287"><ele>0.0</ele><time>2026-05-01T01:01:19.028Z</time></trkpt><trkpt lat="43.5976263" lon="7.6858214"><ele>0.0</ele><time>2026-05-01T01:01:20.028Z</time></trkpt><trkpt lat="43.597675" lon="7.6859153"><ele>0.0</ele><time>2026-05-01T01:01:21.029Z</time></trkpt><trkpt lat="43.597722" lon="7.6860153"><ele>0.0</ele><time>2026-05-01T01:01:22.028Z</time></trkpt><trkpt lat="43.5977685" lon="7.6861155"><ele>0.0</ele><time>2026-05-01T01:01:23.028Z</time></trkpt><trkpt lat="43.5978211" lon="7.686214"><ele>0.0</ele><time>2026-05-01T01:01:24.028Z</time></trkpt><trkpt lat="43.5978654" lon="7.6863121"><ele>0.0</ele><time>2026-05-01T01:01:25.028Z</time></trkpt><trkpt lat="43.5979116" lon="7.6864066"><ele>0.0</ele><time>2026-05-01T01:01:26.028Z</time></trkpt><trkpt lat="43.5980045" lon="7.6865992"><ele>0.0</ele><time>2026-05-01T01:01:28.028Z</time></trkpt><trkpt lat="43.5980506" lon="7.6866938"><ele>0.0</ele><time>2026-05-01T01:01:29.029Z</time></trkpt><trkpt lat="43.5980926" lon="7.6867857"><ele>0.0</ele><time>2026-05-01T01:01:30.029Z</time></trkpt><trkpt lat="43.5981359" lon="7.6868735"><ele>0.0</ele><time>2026-05-01T01:01:31.029Z</time></trkpt><trkpt lat="43.5981847" lon="7.6869648"><ele>0.0</ele><time>2026-05-01T01:01:32.028Z</time></trkpt><trkpt lat="43.5982319" lon="7.6870495"><ele>0.0</ele><time>2026-05-01T01:01:33.028Z</time></trkpt><trkpt lat="43.59828" lon="7.6871317"><ele>0.0</ele><time>2026-05-01T01:01:34.029Z</time></trkpt><trkpt lat="43.5983256" lon="7.6872118"><ele>0.0</ele><time>2026-05-01T01:01:35.028Z</time></trkpt><trkpt lat="43.5983688" lon="7.6872947"><ele>0.0</ele><time>2026-05-01T01:01:36.028Z</time></trkpt><trkpt lat="43.5984167" lon="7.6873809"><ele>0.0</ele><time>2026-05-01T01:01:37.029Z</time></trkpt><trkpt lat="43.5984607" lon="7.6874703"><ele>0.0</ele><time>2026-05-01T01:01:38.029Z</time></trkpt><trkpt lat="43.598507" lon="7.687556"><ele>0.0</ele><time>2026-05-01T01:01:39.029Z</time></trkpt><trkpt lat="43.5985537" lon="7.6876451"><ele>0.0</ele><time>2026-05-01T01:01:40.028Z</time></trkpt><trkpt lat="43.5985986" lon="7.6877334"><ele>0.0</ele><time>2026-05-01T01:01:41.029Z</time></trkpt><trkpt lat="43.5986963" lon="7.6879248"><ele>0.0</ele><time>2026-05-01T01:01:43.028Z</time></trkpt><trkpt lat="43.5987435" lon="7.6880238"><ele>0.0</ele><time>2026-05-01T01:01:44.029Z</time></trkpt><trkpt lat="43.5987902" lon="7.6881212"><ele>0.0</ele><time>2026-05-01T01:01:45.028Z</time></trkpt><trkpt lat="43.5988329" lon="7.688208"><ele>0.0</ele><time>2026-05-01T01:01:46.028Z</time></trkpt><trkpt lat="43.5988759" lon="7.6882919"><ele>0.0</ele><time>2026-05-01T01:01:47.029Z</time></trkpt><trkpt lat="43.5989779" lon="7.6884784"><ele>0.0</ele><time>2026-05-01T01:01:49.028Z</time></trkpt><trkpt lat="43.5990297" lon="7.6885678"><ele>0.0</ele><time>2026-05-01T01:01:50.029Z</time></trkpt><trkpt lat="43.5990783" lon="7.68866"><ele>0.0</ele><time>2026-05-01T01:01:51.028Z</time></trkpt><trkpt lat="43.5991284" lon="7.6887528"><ele>0.0</ele><time>2026-05-01T01:01:52.028Z</time></trkpt><trkpt lat="43.5991753" lon="7.6888477"><ele>0.0</ele><time>2026-05-01T01:01:53.029Z</time></trkpt><trkpt lat="43.5992276" lon="7.6889353"><ele>0.0</ele><time>2026-05-01T01:01:54.028Z</time></trkpt><trkpt lat="43.5992781" lon="7.6890247"><ele>0.0</ele><time>2026-05-01T01:01:55.029Z</time></trkpt><trkpt lat="43.5993295" lon="7.6891158"><ele>0.0</ele><time>2026-05-01T01:01:56.029Z</time></trkpt><trkpt lat="43.5993743" lon="7.6892148"><ele>0.0</ele><time>2026-05-01T01:01:57.029Z</time></trkpt><trkpt lat="43.5994249" lon="7.689308"><ele>0.0</ele><time>2026-05-01T01:01:58.029Z</time></trkpt><trkpt lat="43.5994718" lon="7.6894063"><ele>0.0</ele><time>2026-05-01T01:01:59.029Z</time></trkpt><trkpt lat="43.5995155" lon="7.6895086"><ele>0.0</ele><time>2026-05-01T01:02:00.028Z</time></trkpt><trkpt lat="43.5995647" lon="7.6896051"><ele>0.0</ele><time>2026-05-01T01:02:01.028Z</time></trkpt><trkpt lat="43.5996147" lon="7.6896987"><ele>0.0</ele><time>2026-05-01T01:02:02.029Z</time></trkpt><trkpt lat="43.5996662" lon="7.6897859"><ele>0.0</ele><time>2026-05-01T01:02:03.028Z</time></trkpt><trkpt lat="43.5997155" lon="7.6898769"><ele>0.0</ele><time>2026-05-01T01:02:04.028Z</time></trkpt><trkpt lat="43.5997589" lon="7.6899726"><ele>0.0</ele><time>2026-05-01T01:02:05.029Z</time></trkpt><trkpt lat="43.5998035" lon="7.6900605"><ele>0.0</ele><time>2026-05-01T01:02:06.028Z</time></trkpt><trkpt lat="43.5998531" lon="7.6901588"><ele>0.0</ele><time>2026-05-01T01:02:07.029Z</time></trkpt><trkpt lat="43.599906" lon="7.6902456"><ele>0.0</ele><time>2026-05-01T01:02:08.028Z</time></trkpt><trkpt lat="43.6000021" lon="7.6904347"><ele>0.0</ele><time>2026-05-01T01:02:10.029Z</time></trkpt><trkpt lat="43.6000475" lon="7.6905274"><ele>0.0</ele><time>2026-05-01T01:02:11.029Z</time></trkpt><trkpt lat="43.6000935" lon="7.690621"><ele>0.0</ele><time>2026-05-01T01:02:12.028Z</time></trkpt><trkpt lat="43.6001431" lon="7.690709"><ele>0.0</ele><time>2026-05-01T01:02:13.028Z</time></trkpt><trkpt lat="43.6001904" lon="7.6908013"><ele>0.0</ele><time>2026-05-01T01:02:14.029Z</time></trkpt><trkpt lat="43.6002881" lon="7.690978"><ele>0.0</ele><time>2026-05-01T01:02:16.028Z</time></trkpt><trkpt lat="43.6003412" lon="7.6910706"><ele>0.0</ele><time>2026-05-01T01:02:17.028Z</time></trkpt><trkpt lat="43.6003911" lon="7.6911674"><ele>0.0</ele><time>2026-05-01T01:02:18.028Z</time></trkpt><trkpt lat="43.6004382" lon="7.6912585"><ele>0.0</ele><time>2026-05-01T01:02:19.029Z</time></trkpt><trkpt lat="43.6004879" lon="7.6913484"><ele>0.0</ele><time>2026-05-01T01:02:20.028Z</time></trkpt><trkpt lat="43.6005367" lon="7.6914382"><ele>0.0</ele><time>2026-05-01T01:02:21.029Z</time></trkpt><trkpt lat="43.6005867" lon="7.6915248"><ele>0.0</ele><time>2026-05-01T01:02:22.028Z</time></trkpt><trkpt lat="43.6006375" lon="7.6916133"><ele>0.0</ele><time>2026-05-01T01:02:23.029Z</time></trkpt><trkpt lat="43.6006909" lon="7.6917062"><ele>0.0</ele><time>2026-05-01T01:02:24.028Z</time></trkpt><trkpt lat="43.6007412" lon="7.6917967"><ele>0.0</ele><time>2026-05-01T01:02:25.029Z</time></trkpt><trkpt lat="43.6007898" lon="7.6918811"><ele>0.0</ele><time>2026-05-01T01:02:26.028Z</time></trkpt><trkpt lat="43.6008356" lon="7.6919659"><ele>0.0</ele><time>2026-05-01T01:02:27.028Z</time></trkpt><trkpt lat="43.6008808" lon="7.6920539"><ele>0.0</ele><time>2026-05-01T01:02:28.028Z</time></trkpt><trkpt lat="43.6009314" lon="7.6921364"><ele>0.0</ele><time>2026-05-01T01:02:29.028Z</time></trkpt><trkpt lat="43.601033" lon="7.6923093"><ele>0.0</ele><time>2026-05-01T01:02:31.029Z</time></trkpt><trkpt lat="43.6010736" lon="7.6923984"><ele>0.0</ele><time>2026-05-01T01:02:32.029Z</time></trkpt><trkpt lat="43.6011218" lon="7.6924887"><ele>0.0</ele><time>2026-05-01T01:02:33.028Z</time></trkpt><trkpt lat="43.601166" lon="7.6925841"><ele>0.0</ele><time>2026-05-01T01:02:34.028Z</time></trkpt><trkpt lat="43.6012189" lon="7.6926823"><ele>0.0</ele><time>2026-05-01T01:02:35.028Z</time></trkpt><trkpt lat="43.6012708" lon="7.6927821"><ele>0.0</ele><time>2026-05-01T01:02:36.028Z</time></trkpt><trkpt lat="43.601321" lon="7.6928824"><ele>0.0</ele><time>2026-05-01T01:02:37.029Z</time></trkpt><trkpt lat="43.6013668" lon="7.6929816"><ele>0.0</ele><time>2026-05-01T01:02:38.029Z</time></trkpt><trkpt lat="43.6014096" lon="7.6930752"><ele>0.0</ele><time>2026-05-01T01:02:39.028Z</time></trkpt><trkpt lat="43.60145" lon="7.693168"><ele>0.0</ele><time>2026-05-01T01:02:40.029Z</time></trkpt><trkpt lat="43.601487" lon="7.6932599"><ele>0.0</ele><time>2026-05-01T01:02:41.028Z</time></trkpt><trkpt lat="43.601528" lon="7.6933516"><ele>0.0</ele><time>2026-05-01T01:02:42.029Z</time></trkpt><trkpt lat="43.6015708" lon="7.6934464"><ele>0.0</ele><time>2026-05-01T01:02:43.029Z</time></trkpt><trkpt lat="43.6016169" lon="7.6935372"><ele>0.0</ele><time>2026-05-01T01:02:44.029Z</time></trkpt><trkpt lat="43.6016665" lon="7.6936271"><ele>0.0</ele><time>2026-05-01T01:02:45.029Z</time></trkpt><trkpt lat="43.6017177" lon="7.6937174"><ele>0.0</ele><time>2026-05-01T01:02:46.029Z</time></trkpt><trkpt lat="43.6017635" lon="7.6938043"><ele>0.0</ele><time>2026-05-01T01:02:47.029Z</time></trkpt><trkpt lat="43.6018584" lon="7.6939864"><ele>0.0</ele><time>2026-05-01T01:02:49.028Z</time></trkpt><trkpt lat="43.6019039" lon="7.6940718"><ele>0.0</ele><time>2026-05-01T01:02:50.029Z</time></trkpt><trkpt lat="43.6020049" lon="7.6942513"><ele>0.0</ele><time>2026-05-01T01:02:52.028Z</time></trkpt><trkpt lat="43.602053" lon="7.6943452"><ele>0.0</ele><time>2026-05-01T01:02:53.029Z</time></trkpt><trkpt lat="43.6021061" lon="7.6944409"><ele>0.0</ele><time>2026-05-01T01:02:54.028Z</time></trkpt><trkpt lat="43.6021579" lon="7.6945378"><ele>0.0</ele><time>2026-05-01T01:02:55.028Z</time></trkpt><trkpt lat="43.6022095" lon="7.6946343"><ele>0.0</ele><time>2026-05-01T01:02:56.028Z</time></trkpt><trkpt lat="43.6022551" lon="7.694727"><ele>0.0</ele><time>2026-05-01T01:02:57.028Z</time></trkpt><trkpt lat="43.6023006" lon="7.6948247"><ele>0.0</ele><time>2026-05-01T01:02:58.028Z</time></trkpt><trkpt lat="43.6023428" lon="7.6949157"><ele>0.0</ele><time>2026-05-01T01:02:59.028Z</time></trkpt><trkpt lat="43.6023886" lon="7.6950165"><ele>0.0</ele><time>2026-05-01T01:03:00.029Z</time></trkpt><trkpt lat="43.6024407" lon="7.6951183"><ele>0.0</ele><time>2026-05-01T01:03:01.029Z</time></trkpt><trkpt lat="43.6024871" lon="7.6952143"><ele>0.0</ele><time>2026-05-01T01:03:02.028Z</time></trkpt><trkpt lat="43.6025281" lon="7.6953091"><ele>0.0</ele><time>2026-05-01T01:03:03.029Z</time></trkpt><trkpt lat="43.6025624" lon="7.6954061"><ele>0.0</ele><time>2026-05-01T01:03:04.029Z</time></trkpt><trkpt lat="43.6026075" lon="7.6955015"><ele>0.0</ele><time>2026-05-01T01:03:05.029Z</time></trkpt><trkpt lat="43.6026522" lon="7.6955998"><ele>0.0</ele><time>2026-05-01T01:03:06.028Z</time></trkpt><trkpt lat="43.6027013" lon="7.6956959"><ele>0.0</ele><time>2026-05-01T01:03:07.028Z</time></trkpt><trkpt lat="43.6027541" lon="7.6957919"><ele>0.0</ele><time>2026-05-01T01:03:08.028Z</time></trkpt><trkpt lat="43.6028019" lon="7.6958891"><ele>0.0</ele><time>2026-05-01T01:03:09.028Z</time></trkpt><trkpt lat="43.6028476" lon="7.6959813"><ele>0.0</ele><time>2026-05-01T01:03:10.028Z</time></trkpt><trkpt lat="43.6028895" lon="7.6960762"><ele>0.0</ele><time>2026-05-01T01:03:11.028Z</time></trkpt><trkpt lat="43.6029772" lon="7.6962624"><ele>0.0</ele><time>2026-05-01T01:03:13.028Z</time></trkpt><trkpt lat="43.6030277" lon="7.6963536"><ele>0.0</ele><time>2026-05-01T01:03:14.028Z</time></trkpt><trkpt lat="43.6030792" lon="7.696442"><ele>0.0</ele><time>2026-05-01T01:03:15.029Z</time></trkpt><trkpt lat="43.6031312" lon="7.696535"><ele>0.0</ele><time>2026-05-01T01:03:16.029Z</time></trkpt><trkpt lat="43.603172" lon="7.6966299"><ele>0.0</ele><time>2026-05-01T01:03:17.028Z</time></trkpt><trkpt lat="43.6032245" lon="7.6967216"><ele>0.0</ele><time>2026-05-01T01:03:18.028Z</time></trkpt><trkpt lat="43.6032778" lon="7.6968135"><ele>0.0</ele><time>2026-05-01T01:03:19.029Z</time></trkpt><trkpt lat="43.6033242" lon="7.6969034"><ele>0.0</ele><time>2026-05-01T01:03:20.029Z</time></trkpt><trkpt lat="43.6034214" lon="7.6970831"><ele>0.0</ele><time>2026-05-01T01:03:22.029Z</time></trkpt><trkpt lat="43.6034718" lon="7.697177"><ele>0.0</ele><time>2026-05-01T01:03:23.029Z</time></trkpt><trkpt lat="43.6035272" lon="7.6972686"><ele>0.0</ele><time>2026-05-01T01:03:24.028Z</time></trkpt><trkpt lat="43.6035769" lon="7.6973598"><ele>0.0</ele><time>2026-05-01T01:03:25.029Z</time></trkpt><trkpt lat="43.6036293" lon="7.6974531"><ele>0.0</ele><time>2026-05-01T01:03:26.029Z</time></trkpt><trkpt lat="43.6036798" lon="7.6975421"><ele>0.0</ele><time>2026-05-01T01:03:27.029Z</time></trkpt><trkpt lat="43.6037299" lon="7.697639"><ele>0.0</ele><time>2026-05-01T01:03:28.029Z</time></trkpt><trkpt lat="43.6037813" lon="7.6977346"><ele>0.0</ele><time>2026-05-01T01:03:29.028Z</time></trkpt><trkpt lat="43.6038361" lon="7.6978228"><ele>0.0</ele><time>2026-05-01T01:03:30.028Z</time></trkpt><trkpt lat="43.6038865" lon="7.69791"><ele>0.0</ele><time>2026-05-01T01:03:31.028Z</time></trkpt><trkpt lat="43.6039365" lon="7.698007"><ele>0.0</ele><time>2026-05-01T01:03:32.028Z</time></trkpt><trkpt lat="43.6040291" lon="7.6981933"><ele>0.0</ele><time>2026-05-01T01:03:34.028Z</time></trkpt><trkpt lat="43.6040781" lon="7.6982807"><ele>0.0</ele><time>2026-05-01T01:03:35.028Z</time></trkpt><trkpt lat="43.6041296" lon="7.6983716"><ele>0.0</ele><time>2026-05-01T01:03:36.028Z</time></trkpt><trkpt lat="43.6041785" lon="7.6984662"><ele>0.0</ele><time>2026-05-01T01:03:37.028Z</time></trkpt><trkpt lat="43.604227" lon="7.6985588"><ele>0.0</ele><time>2026-05-01T01:03:38.028Z</time></trkpt><trkpt lat="43.6042766" lon="7.6986433"><ele>0.0</ele><time>2026-05-01T01:03:39.028Z</time></trkpt><trkpt lat="43.6043284" lon="7.698729"><ele>0.0</ele><time>2026-05-01T01:03:40.029Z</time></trkpt><trkpt lat="43.6043782" lon="7.6988157"><ele>0.0</ele><time>2026-05-01T01:03:41.029Z</time></trkpt><trkpt lat="43.6044231" lon="7.6989051"><ele>0.0</ele><time>2026-05-01T01:03:42.029Z</time></trkpt><trkpt lat="43.604466" lon="7.6989939"><ele>0.0</ele><time>2026-05-01T01:03:43.028Z</time></trkpt><trkpt lat="43.6045104" lon="7.6990841"><ele>0.0</ele><time>2026-05-01T01:03:44.029Z</time></trkpt><trkpt lat="43.6045559" lon="7.699171"><ele>0.0</ele><time>2026-05-01T01:03:45.029Z</time></trkpt><trkpt lat="43.6046063" lon="7.6992605"><ele>0.0</ele><time>2026-05-01T01:03:46.028Z</time></trkpt><trkpt lat="43.6046597" lon="7.6993513"><ele>0.0</ele><time>2026-05-01T01:03:47.029Z</time></trkpt><trkpt lat="43.6047159" lon="7.6994499"><ele>0.0</ele><time>2026-05-01T01:03:48.028Z</time></trkpt><trkpt lat="43.6047666" lon="7.6995449"><ele>0.0</ele><time>2026-05-01T01:03:49.028Z</time></trkpt><trkpt lat="43.6048207" lon="7.6996339"><ele>0.0</ele><time>2026-05-01T01:03:50.029Z</time></trkpt><trkpt lat="43.6048813" lon="7.6997264"><ele>0.0</ele><time>2026-05-01T01:03:51.029Z</time></trkpt><trkpt lat="43.604937" lon="7.6998179"><ele>0.0</ele><time>2026-05-01T01:03:52.028Z</time></trkpt><trkpt lat="43.6049824" lon="7.699904"><ele>0.0</ele><time>2026-05-01T01:03:53.029Z</time></trkpt><trkpt lat="43.6051249" lon="7.70018"><ele>0.0</ele><time>2026-05-01T01:03:56.029Z</time></trkpt><trkpt lat="43.6051693" lon="7.7002745"><ele>0.0</ele><time>2026-05-01T01:03:57.029Z</time></trkpt><trkpt lat="43.605216" lon="7.7003666"><ele>0.0</ele><time>2026-05-01T01:03:58.028Z</time></trkpt><trkpt lat="43.6052596" lon="7.7004613"><ele>0.0</ele><time>2026-05-01T01:03:59.029Z</time></trkpt><trkpt lat="43.6053041" lon="7.7005516"><ele>0.0</ele><time>2026-05-01T01:04:00.028Z</time></trkpt><trkpt lat="43.6053547" lon="7.7006444"><ele>0.0</ele><time>2026-05-01T01:04:01.029Z</time></trkpt><trkpt lat="43.6054035" lon="7.7007402"><ele>0.0</ele><time>2026-05-01T01:04:02.029Z</time></trkpt><trkpt lat="43.6054548" lon="7.7008331"><ele>0.0</ele><time>2026-05-01T01:04:03.029Z</time></trkpt><trkpt lat="43.6055076" lon="7.7009251"><ele>0.0</ele><time>2026-05-01T01:04:04.028Z</time></trkpt><trkpt lat="43.6055597" lon="7.701023"><ele>0.0</ele><time>2026-05-01T01:04:05.029Z</time></trkpt><trkpt lat="43.6056031" lon="7.701119"><ele>0.0</ele><time>2026-05-01T01:04:06.029Z</time></trkpt><trkpt lat="43.6056502" lon="7.7012101"><ele>0.0</ele><time>2026-05-01T01:04:07.028Z</time></trkpt><trkpt lat="43.6056984" lon="7.7012995"><ele>0.0</ele><time>2026-05-01T01:04:08.029Z</time></trkpt><trkpt lat="43.6057468" lon="7.7013912"><ele>0.0</ele><time>2026-05-01T01:04:09.029Z</time></trkpt><trkpt lat="43.6057953" lon="7.701479"><ele>0.0</ele><time>2026-05-01T01:04:10.029Z</time></trkpt><trkpt lat="43.6058463" lon="7.701564"><ele>0.0</ele><time>2026-05-01T01:04:11.029Z</time></trkpt><trkpt lat="43.605888" lon="7.7016605"><ele>0.0</ele><time>2026-05-01T01:04:12.029Z</time></trkpt><trkpt lat="43.6059325" lon="7.7017575"><ele>0.0</ele><time>2026-05-01T01:04:13.028Z</time></trkpt><trkpt lat="43.605979" lon="7.7018541"><ele>0.0</ele><time>2026-05-01T01:04:14.029Z</time></trkpt><trkpt lat="43.6060312" lon="7.7019497"><ele>0.0</ele><time>2026-05-01T01:04:15.028Z</time></trkpt><trkpt lat="43.606128" lon="7.7021357"><ele>0.0</ele><time>2026-05-01T01:04:17.028Z</time></trkpt><trkpt lat="43.6061782" lon="7.7022239"><ele>0.0</ele><time>2026-05-01T01:04:18.028Z</time></trkpt><trkpt lat="43.6062296" lon="7.7023139"><ele>0.0</ele><time>2026-05-01T01:04:19.028Z</time></trkpt><trkpt lat="43.6062742" lon="7.7023993"><ele>0.0</ele><time>2026-05-01T01:04:20.028Z</time></trkpt><trkpt lat="43.6063229" lon="7.7024873"><ele>0.0</ele><time>2026-05-01T01:04:21.028Z</time></trkpt><trkpt lat="43.6063761" lon="7.702577"><ele>0.0</ele><time>2026-05-01T01:04:22.028Z</time></trkpt><trkpt lat="43.6064251" lon="7.7026654"><ele>0.0</ele><time>2026-05-01T01:04:23.028Z</time></trkpt><trkpt lat="43.6064808" lon="7.7027541"><ele>0.0</ele><time>2026-05-01T01:04:24.029Z</time></trkpt><trkpt lat="43.6065301" lon="7.7028422"><ele>0.0</ele><time>2026-05-01T01:04:25.028Z</time></trkpt><trkpt lat="43.6065803" lon="7.7029286"><ele>0.0</ele><time>2026-05-01T01:04:26.028Z</time></trkpt><trkpt lat="43.6066771" lon="7.703108"><ele>0.0</ele><time>2026-05-01T01:04:28.028Z</time></trkpt><trkpt lat="43.6067225" lon="7.7032013"><ele>0.0</ele><time>2026-05-01T01:04:29.028Z</time></trkpt><trkpt lat="43.6067675" lon="7.7032969"><ele>0.0</ele><time>2026-05-01T01:04:30.029Z</time></trkpt><trkpt lat="43.6068126" lon="7.7033955"><ele>0.0</ele><time>2026-05-01T01:04:31.028Z</time></trkpt><trkpt lat="43.6068586" lon="7.7034897"><ele>0.0</ele><time>2026-05-01T01:04:32.028Z</time></trkpt><trkpt lat="43.6069029" lon="7.7035838"><ele>0.0</ele><time>2026-05-01T01:04:33.028Z</time></trkpt><trkpt lat="43.6069488" lon="7.7036733"><ele>0.0</ele><time>2026-05-01T01:04:34.029Z</time></trkpt><trkpt lat="43.6069956" lon="7.7037655"><ele>0.0</ele><time>2026-05-01T01:04:35.029Z</time></trkpt><trkpt lat="43.6070392" lon="7.7038662"><ele>0.0</ele><time>2026-05-01T01:04:36.029Z</time></trkpt><trkpt lat="43.6071383" lon="7.7040582"><ele>0.0</ele><time>2026-05-01T01:04:38.028Z</time></trkpt><trkpt lat="43.6071867" lon="7.7041557"><ele>0.0</ele><time>2026-05-01T01:04:39.029Z</time></trkpt><trkpt lat="43.6072336" lon="7.7042581"><ele>0.0</ele><time>2026-05-01T01:04:40.028Z</time></trkpt><trkpt lat="43.6072846" lon="7.7043543"><ele>0.0</ele><time>2026-05-01T01:04:41.029Z</time></trkpt><trkpt lat="43.6073336" lon="7.7044453"><ele>0.0</ele><time>2026-05-01T01:04:42.028Z</time></trkpt><trkpt lat="43.6073791" lon="7.7045333"><ele>0.0</ele><time>2026-05-01T01:04:43.028Z</time></trkpt><trkpt lat="43.6074281" lon="7.7046248"><ele>0.0</ele><time>2026-05-01T01:04:44.029Z</time></trkpt><trkpt lat="43.6074713" lon="7.7047223"><ele>0.0</ele><time>2026-05-01T01:04:45.029Z</time></trkpt><trkpt lat="43.6075184" lon="7.7048195"><ele>0.0</ele><time>2026-05-01T01:04:46.029Z</time></trkpt><trkpt lat="43.6075693" lon="7.7049104"><ele>0.0</ele><time>2026-05-01T01:04:47.029Z</time></trkpt><trkpt lat="43.6076265" lon="7.7049964"><ele>0.0</ele><time>2026-05-01T01:04:48.028Z</time></trkpt><trkpt lat="43.6076776" lon="7.7050801"><ele>0.0</ele><time>2026-05-01T01:04:49.028Z</time></trkpt><trkpt lat="43.6077265" lon="7.7051707"><ele>0.0</ele><time>2026-05-01T01:04:50.028Z</time></trkpt><trkpt lat="43.6077819" lon="7.7052575"><ele>0.0</ele><time>2026-05-01T01:04:51.028Z</time></trkpt><trkpt lat="43.6078372" lon="7.7053482"><ele>0.0</ele><time>2026-05-01T01:04:52.028Z</time></trkpt><trkpt lat="43.6078898" lon="7.7054414"><ele>0.0</ele><time>2026-05-01T01:04:53.029Z</time></trkpt><trkpt lat="43.6079398" lon="7.7055376"><ele>0.0</ele><time>2026-05-01T01:04:54.028Z</time></trkpt><trkpt lat="43.6079885" lon="7.7056326"><ele>0.0</ele><time>2026-05-01T01:04:55.029Z</time></trkpt><trkpt lat="43.6080204" lon="7.7057319"><ele>0.0</ele><time>2026-05-01T01:04:56.028Z</time></trkpt><trkpt lat="43.6080459" lon="7.7058234"><ele>0.0</ele><time>2026-05-01T01:04:57.028Z</time></trkpt><trkpt lat="43.6081283" lon="7.7060093"><ele>0.0</ele><time>2026-05-01T01:04:59.027Z</time></trkpt><trkpt lat="43.6082329" lon="7.7062027"><ele>0.0</ele><time>2026-05-01T01:05:01.028Z</time></trkpt><trkpt lat="43.6082819" lon="7.7062944"><ele>0.0</ele><time>2026-05-01T01:05:02.028Z</time></trkpt><trkpt lat="43.6083345" lon="7.7063832"><ele>0.0</ele><time>2026-05-01T01:05:03.027Z</time></trkpt><trkpt lat="43.6083835" lon="7.706473"><ele>0.0</ele><time>2026-05-01T01:05:04.028Z</time></trkpt><trkpt lat="43.6084332" lon="7.7065666"><ele>0.0</ele><time>2026-05-01T01:05:05.027Z</time></trkpt><trkpt lat="43.6084804" lon="7.7066581"><ele>0.0</ele><time>2026-05-01T01:05:06.027Z</time></trkpt><trkpt lat="43.6085313" lon="7.7067528"><ele>0.0</ele><time>2026-05-01T01:05:07.027Z</time></trkpt><trkpt lat="43.6085817" lon="7.7068469"><ele>0.0</ele><time>2026-05-01T01:05:08.027Z</time></trkpt><trkpt lat="43.6086332" lon="7.7069367"><ele>0.0</ele><time>2026-05-01T01:05:09.027Z</time></trkpt><trkpt lat="43.6086876" lon="7.7070308"><ele>0.0</ele><time>2026-05-01T01:05:10.027Z</time></trkpt><trkpt lat="43.608744" lon="7.7071254"><ele>0.0</ele><time>2026-05-01T01:05:11.027Z</time></trkpt><trkpt lat="43.6088006" lon="7.7072135"><ele>0.0</ele><time>2026-05-01T01:05:12.027Z</time></trkpt><trkpt lat="43.608856" lon="7.7073031"><ele>0.0</ele><time>2026-05-01T01:05:13.027Z</time></trkpt><trkpt lat="43.6089067" lon="7.7073946"><ele>0.0</ele><time>2026-05-01T01:05:14.027Z</time></trkpt><trkpt lat="43.6089537" lon="7.7074779"><ele>0.0</ele><time>2026-05-01T01:05:15.028Z</time></trkpt><trkpt lat="43.6090019" lon="7.707557"><ele>0.0</ele><time>2026-05-01T01:05:16.027Z</time></trkpt><trkpt lat="43.6090525" lon="7.7076385"><ele>0.0</ele><time>2026-05-01T01:05:17.027Z</time></trkpt><trkpt lat="43.6091031" lon="7.7077299"><ele>0.0</ele><time>2026-05-01T01:05:18.028Z</time></trkpt><trkpt lat="43.6092031" lon="7.7079084"><ele>0.0</ele><time>2026-05-01T01:05:20.028Z</time></trkpt><trkpt lat="43.6092491" lon="7.7079996"><ele>0.0</ele><time>2026-05-01T01:05:21.028Z</time></trkpt><trkpt lat="43.6092944" lon="7.7080924"><ele>0.0</ele><time>2026-05-01T01:05:22.028Z</time></trkpt><trkpt lat="43.6093437" lon="7.7081852"><ele>0.0</ele><time>2026-05-01T01:05:23.027Z</time></trkpt><trkpt lat="43.6093921" lon="7.7082793"><ele>0.0</ele><time>2026-05-01T01:05:24.027Z</time></trkpt><trkpt lat="43.6094404" lon="7.7083711"><ele>0.0</ele><time>2026-05-01T01:05:25.027Z</time></trkpt><trkpt lat="43.6094857" lon="7.7084602"><ele>0.0</ele><time>2026-05-01T01:05:26.027Z</time></trkpt><trkpt lat="43.6095351" lon="7.7085483"><ele>0.0</ele><time>2026-05-01T01:05:27.028Z</time></trkpt><trkpt lat="43.6095876" lon="7.7086467"><ele>0.0</ele><time>2026-05-01T01:05:28.027Z</time></trkpt><trkpt lat="43.6096368" lon="7.7087424"><ele>0.0</ele><time>2026-05-01T01:05:29.027Z</time></trkpt><trkpt lat="43.6096853" lon="7.7088321"><ele>0.0</ele><time>2026-05-01T01:05:30.028Z</time></trkpt><trkpt lat="43.6097238" lon="7.7089286"><ele>0.0</ele><time>2026-05-01T01:05:31.027Z</time></trkpt><trkpt lat="43.6098047" lon="7.7091073"><ele>0.0</ele><time>2026-05-01T01:05:33.027Z</time></trkpt><trkpt lat="43.6098525" lon="7.709191"><ele>0.0</ele><time>2026-05-01T01:05:34.028Z</time></trkpt><trkpt lat="43.6099004" lon="7.7092785"><ele>0.0</ele><time>2026-05-01T01:05:35.027Z</time></trkpt><trkpt lat="43.6099499" lon="7.7093697"><ele>0.0</ele><time>2026-05-01T01:05:36.027Z</time></trkpt><trkpt lat="43.6100002" lon="7.7094567"><ele>0.0</ele><time>2026-05-01T01:05:37.027Z</time></trkpt><trkpt lat="43.6100502" lon="7.7095481"><ele>0.0</ele><time>2026-05-01T01:05:38.027Z</time></trkpt><trkpt lat="43.6100987" lon="7.7096424"><ele>0.0</ele><time>2026-05-01T01:05:39.028Z</time></trkpt><trkpt lat="43.6101885" lon="7.7098246"><ele>0.0</ele><time>2026-05-01T01:05:41.027Z</time></trkpt><trkpt lat="43.6102356" lon="7.7099247"><ele>0.0</ele><time>2026-05-01T01:05:42.027Z</time></trkpt><trkpt lat="43.6102866" lon="7.7100211"><ele>0.0</ele><time>2026-05-01T01:05:43.028Z</time></trkpt><trkpt lat="43.6103364" lon="7.7101175"><ele>0.0</ele><time>2026-05-01T01:05:44.028Z</time></trkpt><trkpt lat="43.6103768" lon="7.7102114"><ele>0.0</ele><time>2026-05-01T01:05:45.027Z</time></trkpt><trkpt lat="43.6104168" lon="7.7103103"><ele>0.0</ele><time>2026-05-01T01:05:46.028Z</time></trkpt><trkpt lat="43.6104626" lon="7.7104028"><ele>0.0</ele><time>2026-05-01T01:05:47.028Z</time></trkpt><trkpt lat="43.6104989" lon="7.7104982"><ele>0.0</ele><time>2026-05-01T01:05:48.027Z</time></trkpt><trkpt lat="43.6105398" lon="7.7105897"><ele>0.0</ele><time>2026-05-01T01:05:49.028Z</time></trkpt><trkpt lat="43.6105884" lon="7.7106799"><ele>0.0</ele><time>2026-05-01T01:05:50.028Z</time></trkpt><trkpt lat="43.6106368" lon="7.7107714"><ele>0.0</ele><time>2026-05-01T01:05:51.027Z</time></trkpt><trkpt lat="43.6106921" lon="7.7108634"><ele>0.0</ele><time>2026-05-01T01:05:52.028Z</time></trkpt><trkpt lat="43.6107455" lon="7.7109585"><ele>0.0</ele><time>2026-05-01T01:05:53.027Z</time></trkpt><trkpt lat="43.6107946" lon="7.7110446"><ele>0.0</ele><time>2026-05-01T01:05:54.028Z</time></trkpt><trkpt lat="43.6108433" lon="7.7111249"><ele>0.0</ele><time>2026-05-01T01:05:55.027Z</time></trkpt><trkpt lat="43.6108945" lon="7.7112106"><ele>0.0</ele><time>2026-05-01T01:05:56.028Z</time></trkpt><trkpt lat="43.610945" lon="7.7112986"><ele>0.0</ele><time>2026-05-01T01:05:57.027Z</time></trkpt><trkpt lat="43.6109991" lon="7.7113851"><ele>0.0</ele><time>2026-05-01T01:05:58.028Z</time></trkpt><trkpt lat="43.6110586" lon="7.7114733"><ele>0.0</ele><time>2026-05-01T01:05:59.027Z</time></trkpt><trkpt lat="43.6111158" lon="7.7115562"><ele>0.0</ele><time>2026-05-01T01:06:00.028Z</time></trkpt><trkpt lat="43.6112063" lon="7.7117313"><ele>0.0</ele><time>2026-05-01T01:06:02.027Z</time></trkpt><trkpt lat="43.6112505" lon="7.7118243"><ele>0.0</ele><time>2026-05-01T01:06:03.027Z</time></trkpt><trkpt lat="43.6112954" lon="7.7119223"><ele>0.0</ele><time>2026-05-01T01:06:04.027Z</time></trkpt><trkpt lat="43.6113976" lon="7.7121162"><ele>0.0</ele><time>2026-05-01T01:06:06.028Z</time></trkpt><trkpt lat="43.6114549" lon="7.7122086"><ele>0.0</ele><time>2026-05-01T01:06:07.028Z</time></trkpt><trkpt lat="43.611516" lon="7.7122988"><ele>0.0</ele><time>2026-05-01T01:06:08.028Z</time></trkpt><trkpt lat="43.6115719" lon="7.7123915"><ele>0.0</ele><time>2026-05-01T01:06:09.027Z</time></trkpt><trkpt lat="43.61162" lon="7.7124848"><ele>0.0</ele><time>2026-05-01T01:06:10.028Z</time></trkpt><trkpt lat="43.6116698" lon="7.7125707"><ele>0.0</ele><time>2026-05-01T01:06:11.027Z</time></trkpt><trkpt lat="43.6117158" lon="7.7126524"><ele>0.0</ele><time>2026-05-01T01:06:12.027Z</time></trkpt><trkpt lat="43.6117668" lon="7.7127372"><ele>0.0</ele><time>2026-05-01T01:06:13.027Z</time></trkpt><trkpt lat="43.6118183" lon="7.7128339"><ele>0.0</ele><time>2026-05-01T01:06:14.027Z</time></trkpt><trkpt lat="43.6118657" lon="7.7129244"><ele>0.0</ele><time>2026-05-01T01:06:15.028Z</time></trkpt><trkpt lat="43.6119149" lon="7.713019"><ele>0.0</ele><time>2026-05-01T01:06:16.028Z</time></trkpt><trkpt lat="43.6119663" lon="7.7131184"><ele>0.0</ele><time>2026-05-01T01:06:17.028Z</time></trkpt><trkpt lat="43.6120165" lon="7.7132117"><ele>0.0</ele><time>2026-05-01T01:06:18.027Z</time></trkpt><trkpt lat="43.612068" lon="7.7133047"><ele>0.0</ele><time>2026-05-01T01:06:19.027Z</time></trkpt><trkpt lat="43.6121208" lon="7.7133975"><ele>0.0</ele><time>2026-05-01T01:06:20.027Z</time></trkpt><trkpt lat="43.6122155" lon="7.7135881"><ele>0.0</ele><time>2026-05-01T01:06:22.027Z</time></trkpt><trkpt lat="43.6122607" lon="7.7136811"><ele>0.0</ele><time>2026-05-01T01:06:23.027Z</time></trkpt><trkpt lat="43.6123086" lon="7.713773"><ele>0.0</ele><time>2026-05-01T01:06:24.027Z</time></trkpt><trkpt lat="43.6123598" lon="7.7138664"><ele>0.0</ele><time>2026-05-01T01:06:25.027Z</time></trkpt><trkpt lat="43.6124101" lon="7.7139551"><ele>0.0</ele><time>2026-05-01T01:06:26.027Z</time></trkpt><trkpt lat="43.6124546" lon="7.7140425"><ele>0.0</ele><time>2026-05-01T01:06:27.028Z</time></trkpt><trkpt lat="43.6125035" lon="7.7141277"><ele>0.0</ele><time>2026-05-01T01:06:28.027Z</time></trkpt><trkpt lat="43.6125494" lon="7.7142152"><ele>0.0</ele><time>2026-05-01T01:06:29.027Z</time></trkpt><trkpt lat="43.6125984" lon="7.7143065"><ele>0.0</ele><time>2026-05-01T01:06:30.028Z</time></trkpt><trkpt lat="43.612647" lon="7.7143955"><ele>0.0</ele><time>2026-05-01T01:06:31.027Z</time></trkpt><trkpt lat="43.6126968" lon="7.7144807"><ele>0.0</ele><time>2026-05-01T01:06:32.027Z</time></trkpt><trkpt lat="43.6127479" lon="7.7145663"><ele>0.0</ele><time>2026-05-01T01:06:33.028Z</time></trkpt><trkpt lat="43.6127998" lon="7.7146533"><ele>0.0</ele><time>2026-05-01T01:06:34.028Z</time></trkpt><trkpt lat="43.6128485" lon="7.7147406"><ele>0.0</ele><time>2026-05-01T01:06:35.028Z</time></trkpt><trkpt lat="43.6128984" lon="7.7148305"><ele>0.0</ele><time>2026-05-01T01:06:36.027Z</time></trkpt><trkpt lat="43.6129989" lon="7.715013"><ele>0.0</ele><time>2026-05-01T01:06:38.028Z</time></trkpt><trkpt lat="43.6130486" lon="7.7151062"><ele>0.0</ele><time>2026-05-01T01:06:39.027Z</time></trkpt><trkpt lat="43.6130996" lon="7.715197"><ele>0.0</ele><time>2026-05-01T01:06:40.027Z</time></trkpt><trkpt lat="43.6131457" lon="7.7152879"><ele>0.0</ele><time>2026-05-01T01:06:41.027Z</time></trkpt><trkpt lat="43.6132379" lon="7.7154655"><ele>0.0</ele><time>2026-05-01T01:06:43.028Z</time></trkpt><trkpt lat="43.6132838" lon="7.7155522"><ele>0.0</ele><time>2026-05-01T01:06:44.027Z</time></trkpt><trkpt lat="43.6133305" lon="7.715639"><ele>0.0</ele><time>2026-05-01T01:06:45.028Z</time></trkpt><trkpt lat="43.6133756" lon="7.7157301"><ele>0.0</ele><time>2026-05-01T01:06:46.028Z</time></trkpt><trkpt lat="43.6134223" lon="7.7158202"><ele>0.0</ele><time>2026-05-01T01:06:47.028Z</time></trkpt><trkpt lat="43.6134694" lon="7.7159082"><ele>0.0</ele><time>2026-05-01T01:06:48.028Z</time></trkpt><trkpt lat="43.6135142" lon="7.7160013"><ele>0.0</ele><time>2026-05-01T01:06:49.027Z</time></trkpt><trkpt lat="43.6135621" lon="7.7160961"><ele>0.0</ele><time>2026-05-01T01:06:50.027Z</time></trkpt><trkpt lat="43.6136128" lon="7.7161882"><ele>0.0</ele><time>2026-05-01T01:06:51.028Z</time></trkpt><trkpt lat="43.6136674" lon="7.7162785"><ele>0.0</ele><time>2026-05-01T01:06:52.028Z</time></trkpt><trkpt lat="43.6137256" lon="7.7163696"><ele>0.0</ele><time>2026-05-01T01:06:53.028Z</time></trkpt><trkpt lat="43.6137768" lon="7.7164625"><ele>0.0</ele><time>2026-05-01T01:06:54.027Z</time></trkpt><trkpt lat="43.6138225" lon="7.7165544"><ele>0.0</ele><time>2026-05-01T01:06:55.027Z</time></trkpt><trkpt lat="43.613869" lon="7.7166495"><ele>0.0</ele><time>2026-05-01T01:06:56.028Z</time></trkpt><trkpt lat="43.6139153" lon="7.7167359"><ele>0.0</ele><time>2026-05-01T01:06:57.027Z</time></trkpt><trkpt lat="43.613963" lon="7.7168196"><ele>0.0</ele><time>2026-05-01T01:06:58.027Z</time></trkpt><trkpt lat="43.6140188" lon="7.7169076"><ele>0.0</ele><time>2026-05-01T01:06:59.028Z</time></trkpt><trkpt lat="43.6140682" lon="7.7170023"><ele>0.0</ele><time>2026-05-01T01:07:00.027Z</time></trkpt><trkpt lat="43.6141166" lon="7.7170942"><ele>0.0</ele><time>2026-05-01T01:07:01.028Z</time></trkpt><trkpt lat="43.6141764" lon="7.717183"><ele>0.0</ele><time>2026-05-01T01:07:02.027Z</time></trkpt><trkpt lat="43.614274" lon="7.7173694"><ele>0.0</ele><time>2026-05-01T01:07:04.028Z</time></trkpt><trkpt lat="43.6143172" lon="7.717459"><ele>0.0</ele><time>2026-05-01T01:07:05.027Z</time></trkpt><trkpt lat="43.6143606" lon="7.7175488"><ele>0.0</ele><time>2026-05-01T01:07:06.027Z</time></trkpt><trkpt lat="43.6144056" lon="7.7176372"><ele>0.0</ele><time>2026-05-01T01:07:07.028Z</time></trkpt><trkpt lat="43.6144447" lon="7.7177242"><ele>0.0</ele><time>2026-05-01T01:07:08.027Z</time></trkpt><trkpt lat="43.6145422" lon="7.7179045"><ele>0.0</ele><time>2026-05-01T01:07:10.028Z</time></trkpt><trkpt lat="43.6145916" lon="7.7179864"><ele>0.0</ele><time>2026-05-01T01:07:11.028Z</time></trkpt><trkpt lat="43.6146446" lon="7.7180682"><ele>0.0</ele><time>2026-05-01T01:07:12.028Z</time></trkpt><trkpt lat="43.6146933" lon="7.7181615"><ele>0.0</ele><time>2026-05-01T01:07:13.028Z</time></trkpt><trkpt lat="43.6147402" lon="7.7182489"><ele>0.0</ele><time>2026-05-01T01:07:14.028Z</time></trkpt><trkpt lat="43.6147924" lon="7.7183408"><ele>0.0</ele><time>2026-05-01T01:07:15.028Z</time></trkpt><trkpt lat="43.6148273" lon="7.7184406"><ele>0.0</ele><time>2026-05-01T01:07:16.027Z</time></trkpt><trkpt lat="43.6148732" lon="7.7185375"><ele>0.0</ele><time>2026-05-01T01:07:17.028Z</time></trkpt><trkpt lat="43.6149231" lon="7.7186268"><ele>0.0</ele><time>2026-05-01T01:07:18.027Z</time></trkpt><trkpt lat="43.6149717" lon="7.718718"><ele>0.0</ele><time>2026-05-01T01:07:19.028Z</time></trkpt><trkpt lat="43.6150214" lon="7.7188183"><ele>0.0</ele><time>2026-05-01T01:07:20.027Z</time></trkpt><trkpt lat="43.6150714" lon="7.7189143"><ele>0.0</ele><time>2026-05-01T01:07:21.027Z</time></trkpt><trkpt lat="43.6151258" lon="7.7190051"><ele>0.0</ele><time>2026-05-01T01:07:22.027Z</time></trkpt><trkpt lat="43.6151764" lon="7.7190965"><ele>0.0</ele><time>2026-05-01T01:07:23.027Z</time></trkpt><trkpt lat="43.6152604" lon="7.7192718"><ele>0.0</ele><time>2026-05-01T01:07:25.027Z</time></trkpt><trkpt lat="43.6152974" lon="7.7193685"><ele>0.0</ele><time>2026-05-01T01:07:26.028Z</time></trkpt><trkpt lat="43.6153382" lon="7.719464"><ele>0.0</ele><time>2026-05-01T01:07:27.028Z</time></trkpt><trkpt lat="43.6153839" lon="7.7195622"><ele>0.0</ele><time>2026-05-01T01:07:28.028Z</time></trkpt><trkpt lat="43.6154332" lon="7.7196577"><ele>0.0</ele><time>2026-05-01T01:07:29.027Z</time></trkpt><trkpt lat="43.615479" lon="7.7197471"><ele>0.0</ele><time>2026-05-01T01:07:30.028Z</time></trkpt><trkpt lat="43.6155313" lon="7.7198371"><ele>0.0</ele><time>2026-05-01T01:07:31.027Z</time></trkpt><trkpt lat="43.615583" lon="7.7199257"><ele>0.0</ele><time>2026-05-01T01:07:32.027Z</time></trkpt><trkpt lat="43.6156305" lon="7.7200107"><ele>0.0</ele><time>2026-05-01T01:07:33.028Z</time></trkpt><trkpt lat="43.6156713" lon="7.720096"><ele>0.0</ele><time>2026-05-01T01:07:34.027Z</time></trkpt><trkpt lat="43.6157177" lon="7.7201855"><ele>0.0</ele><time>2026-05-01T01:07:35.028Z</time></trkpt><trkpt lat="43.6157596" lon="7.7202735"><ele>0.0</ele><time>2026-05-01T01:07:36.028Z</time></trkpt><trkpt lat="43.6157972" lon="7.72037"><ele>0.0</ele><time>2026-05-01T01:07:37.028Z</time></trkpt><trkpt lat="43.6158451" lon="7.7204575"><ele>0.0</ele><time>2026-05-01T01:07:38.028Z</time></trkpt><trkpt lat="43.6158919" lon="7.7205451"><ele>0.0</ele><time>2026-05-01T01:07:39.028Z</time></trkpt><trkpt lat="43.6159375" lon="7.7206362"><ele>0.0</ele><time>2026-05-01T01:07:40.028Z</time></trkpt><trkpt lat="43.6159893" lon="7.7207291"><ele>0.0</ele><time>2026-05-01T01:07:41.028Z</time></trkpt><trkpt lat="43.6160974" lon="7.7209285"><ele>0.0</ele><time>2026-05-01T01:07:43.027Z</time></trkpt><trkpt lat="43.616158" lon="7.7210199"><ele>0.0</ele><time>2026-05-01T01:07:44.027Z</time></trkpt><trkpt lat="43.6162722" lon="7.721184"><ele>0.0</ele><time>2026-05-01T01:07:46.028Z</time></trkpt><trkpt lat="43.6163291" lon="7.7212728"><ele>0.0</ele><time>2026-05-01T01:07:47.027Z</time></trkpt><trkpt lat="43.6163841" lon="7.7213658"><ele>0.0</ele><time>2026-05-01T01:07:48.027Z</time></trkpt><trkpt lat="43.6164417" lon="7.7214636"><ele>0.0</ele><time>2026-05-01T01:07:49.027Z</time></trkpt><trkpt lat="43.6164956" lon="7.7215596"><ele>0.0</ele><time>2026-05-01T01:07:50.027Z</time></trkpt><trkpt lat="43.6165392" lon="7.7216559"><ele>0.0</ele><time>2026-05-01T01:07:51.027Z</time></trkpt><trkpt lat="43.6165851" lon="7.7217469"><ele>0.0</ele><time>2026-05-01T01:07:52.027Z</time></trkpt><trkpt lat="43.6166376" lon="7.7218395"><ele>0.0</ele><time>2026-05-01T01:07:53.028Z</time></trkpt><trkpt lat="43.6166825" lon="7.7219342"><ele>0.0</ele><time>2026-05-01T01:07:54.028Z</time></trkpt><trkpt lat="43.6167343" lon="7.7220252"><ele>0.0</ele><time>2026-05-01T01:07:55.028Z</time></trkpt><trkpt lat="43.6167871" lon="7.7221063"><ele>0.0</ele><time>2026-05-01T01:07:56.028Z</time></trkpt><trkpt lat="43.6168406" lon="7.7221883"><ele>0.0</ele><time>2026-05-01T01:07:57.028Z</time></trkpt><trkpt lat="43.6168929" lon="7.7222701"><ele>0.0</ele><time>2026-05-01T01:07:58.028Z</time></trkpt><trkpt lat="43.6169444" lon="7.7223467"><ele>0.0</ele><time>2026-05-01T01:07:59.028Z</time></trkpt><trkpt lat="43.616989" lon="7.7224251"><ele>0.0</ele><time>2026-05-01T01:08:00.027Z</time></trkpt><trkpt lat="43.6170355" lon="7.7225052"><ele>0.0</ele><time>2026-05-01T01:08:01.028Z</time></trkpt><trkpt lat="43.6170746" lon="7.722598"><ele>0.0</ele><time>2026-05-01T01:08:02.028Z</time></trkpt><trkpt lat="43.6171185" lon="7.7226886"><ele>0.0</ele><time>2026-05-01T01:08:03.028Z</time></trkpt><trkpt lat="43.6171694" lon="7.7227785"><ele>0.0</ele><time>2026-05-01T01:08:04.027Z</time></trkpt><trkpt lat="43.6172183" lon="7.722864"><ele>0.0</ele><time>2026-05-01T01:08:05.028Z</time></trkpt><trkpt lat="43.6173081" lon="7.7230521"><ele>0.0</ele><time>2026-05-01T01:08:07.028Z</time></trkpt><trkpt lat="43.6173452" lon="7.7231526"><ele>0.0</ele><time>2026-05-01T01:08:08.028Z</time></trkpt><trkpt lat="43.6173876" lon="7.723255"><ele>0.0</ele><time>2026-05-01T01:08:09.027Z</time></trkpt><trkpt lat="43.6174323" lon="7.7233556"><ele>0.0</ele><time>2026-05-01T01:08:10.027Z</time></trkpt><trkpt lat="43.6174758" lon="7.7234556"><ele>0.0</ele><time>2026-05-01T01:08:11.027Z</time></trkpt><trkpt lat="43.6175181" lon="7.723551"><ele>0.0</ele><time>2026-05-01T01:08:12.028Z</time></trkpt><trkpt lat="43.6175665" lon="7.7236477"><ele>0.0</ele><time>2026-05-01T01:08:13.027Z</time></trkpt><trkpt lat="43.6176758" lon="7.7238217"><ele>0.0</ele><time>2026-05-01T01:08:15.028Z</time></trkpt><trkpt lat="43.6177233" lon="7.7239089"><ele>0.0</ele><time>2026-05-01T01:08:16.027Z</time></trkpt><trkpt lat="43.6177707" lon="7.7239966"><ele>0.0</ele><time>2026-05-01T01:08:17.027Z</time></trkpt><trkpt lat="43.6178188" lon="7.7240875"><ele>0.0</ele><time>2026-05-01T01:08:18.028Z</time></trkpt><trkpt lat="43.6178655" lon="7.7241769"><ele>0.0</ele><time>2026-05-01T01:08:19.027Z</time></trkpt><trkpt lat="43.617918" lon="7.7242696"><ele>0.0</ele><time>2026-05-01T01:08:20.028Z</time></trkpt><trkpt lat="43.6179666" lon="7.7243643"><ele>0.0</ele><time>2026-05-01T01:08:21.027Z</time></trkpt><trkpt lat="43.6180221" lon="7.7244512"><ele>0.0</ele><time>2026-05-01T01:08:22.028Z</time></trkpt><trkpt lat="43.6180746" lon="7.7245457"><ele>0.0</ele><time>2026-05-01T01:08:23.027Z</time></trkpt><trkpt lat="43.6181239" lon="7.7246365"><ele>0.0</ele><time>2026-05-01T01:08:24.028Z</time></trkpt><trkpt lat="43.6181719" lon="7.7247237"><ele>0.0</ele><time>2026-05-01T01:08:25.027Z</time></trkpt><trkpt lat="43.6182132" lon="7.7248176"><ele>0.0</ele><time>2026-05-01T01:08:26.027Z</time></trkpt><trkpt lat="43.6183037" lon="7.7250015"><ele>0.0</ele><time>2026-05-01T01:08:28.027Z</time></trkpt><trkpt lat="43.6183477" lon="7.7250982"><ele>0.0</ele><time>2026-05-01T01:08:29.028Z</time></trkpt><trkpt lat="43.6183926" lon="7.7251913"><ele>0.0</ele><time>2026-05-01T01:08:30.028Z</time></trkpt><trkpt lat="43.6184349" lon="7.7252841"><ele>0.0</ele><time>2026-05-01T01:08:31.028Z</time></trkpt><trkpt lat="43.6184805" lon="7.7253745"><ele>0.0</ele><time>2026-05-01T01:08:32.027Z</time></trkpt><trkpt lat="43.6185327" lon="7.725463"><ele>0.0</ele><time>2026-05-01T01:08:33.028Z</time></trkpt><trkpt lat="43.6185859" lon="7.725556"><ele>0.0</ele><time>2026-05-01T01:08:34.027Z</time></trkpt><trkpt lat="43.6186379" lon="7.7256402"><ele>0.0</ele><time>2026-05-01T01:08:35.027Z</time></trkpt><trkpt lat="43.6186881" lon="7.7257282"><ele>0.0</ele><time>2026-05-01T01:08:36.028Z</time></trkpt><trkpt lat="43.6187366" lon="7.7258185"><ele>0.0</ele><time>2026-05-01T01:08:37.028Z</time></trkpt><trkpt lat="43.6187895" lon="7.7259102"><ele>0.0</ele><time>2026-05-01T01:08:38.027Z</time></trkpt><trkpt lat="43.6188384" lon="7.7259992"><ele>0.0</ele><time>2026-05-01T01:08:39.028Z</time></trkpt><trkpt lat="43.6188894" lon="7.7260878"><ele>0.0</ele><time>2026-05-01T01:08:40.027Z</time></trkpt><trkpt lat="43.6189441" lon="7.7261739"><ele>0.0</ele><time>2026-05-01T01:08:41.027Z</time></trkpt><trkpt lat="43.6189943" lon="7.7262634"><ele>0.0</ele><time>2026-05-01T01:08:42.027Z</time></trkpt><trkpt lat="43.6190389" lon="7.7263513"><ele>0.0</ele><time>2026-05-01T01:08:43.028Z</time></trkpt><trkpt lat="43.6190854" lon="7.7264392"><ele>0.0</ele><time>2026-05-01T01:08:44.027Z</time></trkpt><trkpt lat="43.6191396" lon="7.7265236"><ele>0.0</ele><time>2026-05-01T01:08:45.027Z</time></trkpt><trkpt lat="43.6192368" lon="7.7266952"><ele>0.0</ele><time>2026-05-01T01:08:47.028Z</time></trkpt><trkpt lat="43.6193242" lon="7.7268764"><ele>0.0</ele><time>2026-05-01T01:08:49.028Z</time></trkpt><trkpt lat="43.6193633" lon="7.7269668"><ele>0.0</ele><time>2026-05-01T01:08:50.028Z</time></trkpt><trkpt lat="43.6194133" lon="7.7270509"><ele>0.0</ele><time>2026-05-01T01:08:51.028Z</time></trkpt><trkpt lat="43.619466" lon="7.7271344"><ele>0.0</ele><time>2026-05-01T01:08:52.028Z</time></trkpt><trkpt lat="43.6195206" lon="7.7272281"><ele>0.0</ele><time>2026-05-01T01:08:53.027Z</time></trkpt><trkpt lat="43.6195714" lon="7.7273198"><ele>0.0</ele><time>2026-05-01T01:08:54.028Z</time></trkpt><trkpt lat="43.6196185" lon="7.7274116"><ele>0.0</ele><time>2026-05-01T01:08:55.028Z</time></trkpt><trkpt lat="43.619668" lon="7.7275019"><ele>0.0</ele><time>2026-05-01T01:08:56.027Z</time></trkpt><trkpt lat="43.6197151" lon="7.7275946"><ele>0.0</ele><time>2026-05-01T01:08:57.027Z</time></trkpt><trkpt lat="43.6197633" lon="7.7276894"><ele>0.0</ele><time>2026-05-01T01:08:58.027Z</time></trkpt><trkpt lat="43.6198105" lon="7.7277866"><ele>0.0</ele><time>2026-05-01T01:08:59.027Z</time></trkpt><trkpt lat="43.619854" lon="7.7278884"><ele>0.0</ele><time>2026-05-01T01:09:00.028Z</time></trkpt><trkpt lat="43.619903" lon="7.7279812"><ele>0.0</ele><time>2026-05-01T01:09:01.027Z</time></trkpt><trkpt lat="43.6199487" lon="7.7280746"><ele>0.0</ele><time>2026-05-01T01:09:02.027Z</time></trkpt><trkpt lat="43.619997" lon="7.7281693"><ele>0.0</ele><time>2026-05-01T01:09:03.028Z</time></trkpt><trkpt lat="43.6200422" lon="7.7282638"><ele>0.0</ele><time>2026-05-01T01:09:04.027Z</time></trkpt><trkpt lat="43.6200916" lon="7.7283571"><ele>0.0</ele><time>2026-05-01T01:09:05.028Z</time></trkpt><trkpt lat="43.6201444" lon="7.7284507"><ele>0.0</ele><time>2026-05-01T01:09:06.027Z</time></trkpt><trkpt lat="43.6201948" lon="7.7285401"><ele>0.0</ele><time>2026-05-01T01:09:07.028Z</time></trkpt><trkpt lat="43.620245" lon="7.7286255"><ele>0.0</ele><time>2026-05-01T01:09:08.027Z</time></trkpt><trkpt lat="43.6203511" lon="7.7287963"><ele>0.0</ele><time>2026-05-01T01:09:10.028Z</time></trkpt><trkpt lat="43.6204017" lon="7.7288819"><ele>0.0</ele><time>2026-05-01T01:09:11.027Z</time></trkpt><trkpt lat="43.6204486" lon="7.7289742"><ele>0.0</ele><time>2026-05-01T01:09:12.027Z</time></trkpt><trkpt lat="43.6204997" lon="7.7290673"><ele>0.0</ele><time>2026-05-01T01:09:13.028Z</time></trkpt><trkpt lat="43.6205455" lon="7.7291579"><ele>0.0</ele><time>2026-05-01T01:09:14.027Z</time></trkpt><trkpt lat="43.6205865" lon="7.729255"><ele>0.0</ele><time>2026-05-01T01:09:15.027Z</time></trkpt><trkpt lat="43.6206352" lon="7.7293446"><ele>0.0</ele><time>2026-05-01T01:09:16.027Z</time></trkpt><trkpt lat="43.6206937" lon="7.7294342"><ele>0.0</ele><time>2026-05-01T01:09:17.027Z</time></trkpt><trkpt lat="43.6207886" lon="7.7296261"><ele>0.0</ele><time>2026-05-01T01:09:19.027Z</time></trkpt><trkpt lat="43.6208371" lon="7.7297152"><ele>0.0</ele><time>2026-05-01T01:09:20.027Z</time></trkpt><trkpt lat="43.6208809" lon="7.7298055"><ele>0.0</ele><time>2026-05-01T01:09:21.027Z</time></trkpt><trkpt lat="43.6209258" lon="7.7298955"><ele>0.0</ele><time>2026-05-01T01:09:22.027Z</time></trkpt><trkpt lat="43.6209707" lon="7.729987"><ele>0.0</ele><time>2026-05-01T01:09:23.027Z</time></trkpt><trkpt lat="43.6210258" lon="7.7300704"><ele>0.0</ele><time>2026-05-01T01:09:24.028Z</time></trkpt><trkpt lat="43.6210755" lon="7.7301539"><ele>0.0</ele><time>2026-05-01T01:09:25.027Z</time></trkpt><trkpt lat="43.6211239" lon="7.7302341"><ele>0.0</ele><time>2026-05-01T01:09:26.027Z</time></trkpt><trkpt lat="43.6211751" lon="7.7303204"><ele>0.0</ele><time>2026-05-01T01:09:27.028Z</time></trkpt><trkpt lat="43.621221" lon="7.7304111"><ele>0.0</ele><time>2026-05-01T01:09:28.028Z</time></trkpt><trkpt lat="43.6212656" lon="7.7305002"><ele>0.0</ele><time>2026-05-01T01:09:29.027Z</time></trkpt><trkpt lat="43.6213721" lon="7.7306745"><ele>0.0</ele><time>2026-05-01T01:09:31.028Z</time></trkpt><trkpt lat="43.6214262" lon="7.7307548"><ele>0.0</ele><time>2026-05-01T01:09:32.027Z</time></trkpt><trkpt lat="43.6214809" lon="7.7308406"><ele>0.0</ele><time>2026-05-01T01:09:33.027Z</time></trkpt><trkpt lat="43.6215358" lon="7.7309303"><ele>0.0</ele><time>2026-05-01T01:09:34.027Z</time></trkpt><trkpt lat="43.6215837" lon="7.7310221"><ele>0.0</ele><time>2026-05-01T01:09:35.028Z</time></trkpt><trkpt lat="43.6216346" lon="7.7311116"><ele>0.0</ele><time>2026-05-01T01:09:36.028Z</time></trkpt><trkpt lat="43.6216891" lon="7.7311971"><ele>0.0</ele><time>2026-05-01T01:09:37.028Z</time></trkpt><trkpt lat="43.6217414" lon="7.7312881"><ele>0.0</ele><time>2026-05-01T01:09:38.028Z</time></trkpt><trkpt lat="43.6217931" lon="7.731381"><ele>0.0</ele><time>2026-05-01T01:09:39.027Z</time></trkpt><trkpt lat="43.6218446" lon="7.7314712"><ele>0.0</ele><time>2026-05-01T01:09:40.027Z</time></trkpt><trkpt lat="43.6218948" lon="7.7315644"><ele>0.0</ele><time>2026-05-01T01:09:41.027Z</time></trkpt><trkpt lat="43.6219477" lon="7.7316532"><ele>0.0</ele><time>2026-05-01T01:09:42.027Z</time></trkpt><trkpt lat="43.6220025" lon="7.7317376"><ele>0.0</ele><time>2026-05-01T01:09:43.027Z</time></trkpt><trkpt lat="43.6220488" lon="7.7318286"><ele>0.0</ele><time>2026-05-01T01:09:44.027Z</time></trkpt><trkpt lat="43.6220995" lon="7.7319172"><ele>0.0</ele><time>2026-05-01T01:09:45.027Z</time></trkpt><trkpt lat="43.6221413" lon="7.7320123"><ele>0.0</ele><time>2026-05-01T01:09:46.026Z</time></trkpt><trkpt lat="43.6221861" lon="7.732105"><ele>0.0</ele><time>2026-05-01T01:09:47.026Z</time></trkpt><trkpt lat="43.6222279" lon="7.7322022"><ele>0.0</ele><time>2026-05-01T01:09:48.026Z</time></trkpt><trkpt lat="43.6222737" lon="7.7322933"><ele>0.0</ele><time>2026-05-01T01:09:49.027Z</time></trkpt><trkpt lat="43.6223203" lon="7.7323794"><ele>0.0</ele><time>2026-05-01T01:09:50.027Z</time></trkpt><trkpt lat="43.6224731" lon="7.7326426"><ele>0.0</ele><time>2026-05-01T01:09:53.026Z</time></trkpt><trkpt lat="43.622527" lon="7.7327392"><ele>0.0</ele><time>2026-05-01T01:09:54.027Z</time></trkpt><trkpt lat="43.6225819" lon="7.7328313"><ele>0.0</ele><time>2026-05-01T01:09:55.026Z</time></trkpt><trkpt lat="43.6226314" lon="7.7329246"><ele>0.0</ele><time>2026-05-01T01:09:56.026Z</time></trkpt><trkpt lat="43.6226676" lon="7.7330148"><ele>0.0</ele><time>2026-05-01T01:09:57.027Z</time></trkpt><trkpt lat="43.6227127" lon="7.7331006"><ele>0.0</ele><time>2026-05-01T01:09:58.027Z</time></trkpt><trkpt lat="43.6227576" lon="7.7331871"><ele>0.0</ele><time>2026-05-01T01:09:59.026Z</time></trkpt><trkpt lat="43.6228009" lon="7.7332896"><ele>0.0</ele><time>2026-05-01T01:10:00.027Z</time></trkpt><trkpt lat="43.6228483" lon="7.7333861"><ele>0.0</ele><time>2026-05-01T01:10:01.026Z</time></trkpt><trkpt lat="43.6229011" lon="7.733481"><ele>0.0</ele><time>2026-05-01T01:10:02.026Z</time></trkpt><trkpt lat="43.6229473" lon="7.7335679"><ele>0.0</ele><time>2026-05-01T01:10:03.027Z</time></trkpt><trkpt lat="43.6229941" lon="7.7336598"><ele>0.0</ele><time>2026-05-01T01:10:04.026Z</time></trkpt><trkpt lat="43.6230419" lon="7.7337532"><ele>0.0</ele><time>2026-05-01T01:10:05.026Z</time></trkpt><trkpt lat="43.6230891" lon="7.7338364"><ele>0.0</ele><time>2026-05-01T01:10:06.026Z</time></trkpt><trkpt lat="43.6231356" lon="7.7339222"><ele>0.0</ele><time>2026-05-01T01:10:07.026Z</time></trkpt><trkpt lat="43.6231791" lon="7.7340119"><ele>0.0</ele><time>2026-05-01T01:10:08.027Z</time></trkpt><trkpt lat="43.6232226" lon="7.7340977"><ele>0.0</ele><time>2026-05-01T01:10:09.027Z</time></trkpt><trkpt lat="43.6232659" lon="7.7341842"><ele>0.0</ele><time>2026-05-01T01:10:10.026Z</time></trkpt><trkpt lat="43.6233148" lon="7.7342723"><ele>0.0</ele><time>2026-05-01T01:10:11.026Z</time></trkpt><trkpt lat="43.6233621" lon="7.7343638"><ele>0.0</ele><time>2026-05-01T01:10:12.027Z</time></trkpt><trkpt lat="43.623463" lon="7.7345461"><ele>0.0</ele><time>2026-05-01T01:10:14.026Z</time></trkpt><trkpt lat="43.6235145" lon="7.7346407"><ele>0.0</ele><time>2026-05-01T01:10:15.026Z</time></trkpt><trkpt lat="43.6235692" lon="7.7347285"><ele>0.0</ele><time>2026-05-01T01:10:16.026Z</time></trkpt><trkpt lat="43.6236182" lon="7.7348168"><ele>0.0</ele><time>2026-05-01T01:10:17.027Z</time></trkpt><trkpt lat="43.6236711" lon="7.7349119"><ele>0.0</ele><time>2026-05-01T01:10:18.026Z</time></trkpt><trkpt lat="43.6237261" lon="7.7350071"><ele>0.0</ele><time>2026-05-01T01:10:19.026Z</time></trkpt><trkpt lat="43.6237808" lon="7.7351054"><ele>0.0</ele><time>2026-05-01T01:10:20.026Z</time></trkpt><trkpt lat="43.6238274" lon="7.7351963"><ele>0.0</ele><time>2026-05-01T01:10:21.027Z</time></trkpt><trkpt lat="43.6238696" lon="7.7352866"><ele>0.0</ele><time>2026-05-01T01:10:22.026Z</time></trkpt><trkpt lat="43.6239141" lon="7.7353762"><ele>0.0</ele><time>2026-05-01T01:10:23.026Z</time></trkpt><trkpt lat="43.6240028" lon="7.7355552"><ele>0.0</ele><time>2026-05-01T01:10:25.027Z</time></trkpt><trkpt lat="43.6240521" lon="7.7356423"><ele>0.0</ele><time>2026-05-01T01:10:26.027Z</time></trkpt><trkpt lat="43.6241101" lon="7.7357346"><ele>0.0</ele><time>2026-05-01T01:10:27.027Z</time></trkpt><trkpt lat="43.6241656" lon="7.7358265"><ele>0.0</ele><time>2026-05-01T01:10:28.026Z</time></trkpt><trkpt lat="43.6242249" lon="7.7359154"><ele>0.0</ele><time>2026-05-01T01:10:29.027Z</time></trkpt><trkpt lat="43.6242794" lon="7.7360109"><ele>0.0</ele><time>2026-05-01T01:10:30.027Z</time></trkpt><trkpt lat="43.6243298" lon="7.736096"><ele>0.0</ele><time>2026-05-01T01:10:31.027Z</time></trkpt><trkpt lat="43.6243758" lon="7.7361822"><ele>0.0</ele><time>2026-05-01T01:10:32.026Z</time></trkpt><trkpt lat="43.6244222" lon="7.736275"><ele>0.0</ele><time>2026-05-01T01:10:33.026Z</time></trkpt><trkpt lat="43.6245154" lon="7.7364479"><ele>0.0</ele><time>2026-05-01T01:10:35.026Z</time></trkpt><trkpt lat="43.6245653" lon="7.7365352"><ele>0.0</ele><time>2026-05-01T01:10:36.027Z</time></trkpt><trkpt lat="43.6246108" lon="7.7366233"><ele>0.0</ele><time>2026-05-01T01:10:37.026Z</time></trkpt><trkpt lat="43.6246614" lon="7.736709"><ele>0.0</ele><time>2026-05-01T01:10:38.026Z</time></trkpt><trkpt lat="43.6247101" lon="7.736797"><ele>0.0</ele><time>2026-05-01T01:10:39.027Z</time></trkpt><trkpt lat="43.6247598" lon="7.73689"><ele>0.0</ele><time>2026-05-01T01:10:40.027Z</time></trkpt><trkpt lat="43.6248114" lon="7.7369802"><ele>0.0</ele><time>2026-05-01T01:10:41.026Z</time></trkpt><trkpt lat="43.6248586" lon="7.7370732"><ele>0.0</ele><time>2026-05-01T01:10:42.026Z</time></trkpt><trkpt lat="43.6249069" lon="7.7371577"><ele>0.0</ele><time>2026-05-01T01:10:43.027Z</time></trkpt><trkpt lat="43.6249553" lon="7.7372467"><ele>0.0</ele><time>2026-05-01T01:10:44.027Z</time></trkpt><trkpt lat="43.6250034" lon="7.7373413"><ele>0.0</ele><time>2026-05-01T01:10:45.026Z</time></trkpt><trkpt lat="43.6250486" lon="7.7374291"><ele>0.0</ele><time>2026-05-01T01:10:46.027Z</time></trkpt><trkpt lat="43.6250984" lon="7.737523"><ele>0.0</ele><time>2026-05-01T01:10:47.027Z</time></trkpt><trkpt lat="43.625154" lon="7.7376136"><ele>0.0</ele><time>2026-05-01T01:10:48.026Z</time></trkpt><trkpt lat="43.6252047" lon="7.7377076"><ele>0.0</ele><time>2026-05-01T01:10:49.026Z</time></trkpt><trkpt lat="43.6252518" lon="7.7378082"><ele>0.0</ele><time>2026-05-01T01:10:50.027Z</time></trkpt><trkpt lat="43.6253026" lon="7.7379"><ele>0.0</ele><time>2026-05-01T01:10:51.026Z</time></trkpt><trkpt lat="43.6253488" lon="7.7379928"><ele>0.0</ele><time>2026-05-01T01:10:52.027Z</time></trkpt><trkpt lat="43.6253912" lon="7.7380847"><ele>0.0</ele><time>2026-05-01T01:10:53.026Z</time></trkpt><trkpt lat="43.6254374" lon="7.7381775"><ele>0.0</ele><time>2026-05-01T01:10:54.027Z</time></trkpt><trkpt lat="43.6255334" lon="7.7383481"><ele>0.0</ele><time>2026-05-01T01:10:56.027Z</time></trkpt><trkpt lat="43.6256287" lon="7.7385297"><ele>0.0</ele><time>2026-05-01T01:10:58.026Z</time></trkpt><trkpt lat="43.6256782" lon="7.7386172"><ele>0.0</ele><time>2026-05-01T01:10:59.026Z</time></trkpt><trkpt lat="43.6257295" lon="7.7387066"><ele>0.0</ele><time>2026-05-01T01:11:00.027Z</time></trkpt><trkpt lat="43.6257767" lon="7.7387938"><ele>0.0</ele><time>2026-05-01T01:11:01.027Z</time></trkpt><trkpt lat="43.6258293" lon="7.7388875"><ele>0.0</ele><time>2026-05-01T01:11:02.026Z</time></trkpt><trkpt lat="43.6258787" lon="7.7389778"><ele>0.0</ele><time>2026-05-01T01:11:03.026Z</time></trkpt><trkpt lat="43.6259285" lon="7.739065"><ele>0.0</ele><time>2026-05-01T01:11:04.026Z</time></trkpt><trkpt lat="43.6259782" lon="7.7391559"><ele>0.0</ele><time>2026-05-01T01:11:05.027Z</time></trkpt><trkpt lat="43.6260268" lon="7.7392508"><ele>0.0</ele><time>2026-05-01T01:11:06.026Z</time></trkpt><trkpt lat="43.6260695" lon="7.7393401"><ele>0.0</ele><time>2026-05-01T01:11:07.027Z</time></trkpt><trkpt lat="43.6261146" lon="7.7394256"><ele>0.0</ele><time>2026-05-01T01:11:08.026Z</time></trkpt><trkpt lat="43.6261653" lon="7.7395141"><ele>0.0</ele><time>2026-05-01T01:11:09.027Z</time></trkpt><trkpt lat="43.6262134" lon="7.739608"><ele>0.0</ele><time>2026-05-01T01:11:10.027Z</time></trkpt><trkpt lat="43.6262673" lon="7.7396981"><ele>0.0</ele><time>2026-05-01T01:11:11.027Z</time></trkpt><trkpt lat="43.6263182" lon="7.7397881"><ele>0.0</ele><time>2026-05-01T01:11:12.027Z</time></trkpt><trkpt lat="43.626367" lon="7.7398824"><ele>0.0</ele><time>2026-05-01T01:11:13.026Z</time></trkpt><trkpt lat="43.6264082" lon="7.7399761"><ele>0.0</ele><time>2026-05-01T01:11:14.026Z</time></trkpt><trkpt lat="43.6264509" lon="7.7400637"><ele>0.0</ele><time>2026-05-01T01:11:15.026Z</time></trkpt><trkpt lat="43.6265448" lon="7.7402501"><ele>0.0</ele><time>2026-05-01T01:11:17.026Z</time></trkpt><trkpt lat="43.6265977" lon="7.7403448"><ele>0.0</ele><time>2026-05-01T01:11:18.026Z</time></trkpt><trkpt lat="43.6266497" lon="7.7404391"><ele>0.0</ele><time>2026-05-01T01:11:19.026Z</time></trkpt><trkpt lat="43.6267002" lon="7.7405281"><ele>0.0</ele><time>2026-05-01T01:11:20.026Z</time></trkpt><trkpt lat="43.6267476" lon="7.7406169"><ele>0.0</ele><time>2026-05-01T01:11:21.026Z</time></trkpt><trkpt lat="43.6267967" lon="7.7407038"><ele>0.0</ele><time>2026-05-01T01:11:22.026Z</time></trkpt><trkpt lat="43.6268465" lon="7.7407934"><ele>0.0</ele><time>2026-05-01T01:11:23.026Z</time></trkpt><trkpt lat="43.6268966" lon="7.7408853"><ele>0.0</ele><time>2026-05-01T01:11:24.027Z</time></trkpt><trkpt lat="43.6269436" lon="7.7409768"><ele>0.0</ele><time>2026-05-01T01:11:25.026Z</time></trkpt><trkpt lat="43.6269847" lon="7.7410698"><ele>0.0</ele><time>2026-05-01T01:11:26.026Z</time></trkpt><trkpt lat="43.6270346" lon="7.7411531"><ele>0.0</ele><time>2026-05-01T01:11:27.026Z</time></trkpt><trkpt lat="43.6270877" lon="7.7412388"><ele>0.0</ele><time>2026-05-01T01:11:28.026Z</time></trkpt><trkpt lat="43.6271368" lon="7.7413304"><ele>0.0</ele><time>2026-05-01T01:11:29.027Z</time></trkpt><trkpt lat="43.6272283" lon="7.7415091"><ele>0.0</ele><time>2026-05-01T01:11:31.026Z</time></trkpt><trkpt lat="43.6272712" lon="7.7415942"><ele>0.0</ele><time>2026-05-01T01:11:32.026Z</time></trkpt><trkpt lat="43.6273188" lon="7.7416832"><ele>0.0</ele><time>2026-05-01T01:11:33.026Z</time></trkpt><trkpt lat="43.627364" lon="7.7417748"><ele>0.0</ele><time>2026-05-01T01:11:34.027Z</time></trkpt><trkpt lat="43.6274161" lon="7.7418681"><ele>0.0</ele><time>2026-05-01T01:11:35.027Z</time></trkpt><trkpt lat="43.6274706" lon="7.7419657"><ele>0.0</ele><time>2026-05-01T01:11:36.026Z</time></trkpt><trkpt lat="43.6275774" lon="7.7421657"><ele>0.0</ele><time>2026-05-01T01:11:38.026Z</time></trkpt><trkpt lat="43.6276294" lon="7.7422598"><ele>0.0</ele><time>2026-05-01T01:11:39.027Z</time></trkpt><trkpt lat="43.6276799" lon="7.7423488"><ele>0.0</ele><time>2026-05-01T01:11:40.026Z</time></trkpt><trkpt lat="43.6277296" lon="7.7424418"><ele>0.0</ele><time>2026-05-01T01:11:41.026Z</time></trkpt><trkpt lat="43.6277783" lon="7.742534"><ele>0.0</ele><time>2026-05-01T01:11:42.027Z</time></trkpt><trkpt lat="43.6278239" lon="7.7426276"><ele>0.0</ele><time>2026-05-01T01:11:43.027Z</time></trkpt><trkpt lat="43.6278687" lon="7.7427215"><ele>0.0</ele><time>2026-05-01T01:11:44.026Z</time></trkpt><trkpt lat="43.6279168" lon="7.7428149"><ele>0.0</ele><time>2026-05-01T01:11:45.027Z</time></trkpt><trkpt lat="43.6279679" lon="7.7429055"><ele>0.0</ele><time>2026-05-01T01:11:46.027Z</time></trkpt><trkpt lat="43.6280167" lon="7.7429908"><ele>0.0</ele><time>2026-05-01T01:11:47.027Z</time></trkpt><trkpt lat="43.6280652" lon="7.743084"><ele>0.0</ele><time>2026-05-01T01:11:48.026Z</time></trkpt><trkpt lat="43.6281164" lon="7.7431741"><ele>0.0</ele><time>2026-05-01T01:11:49.026Z</time></trkpt><trkpt lat="43.6281635" lon="7.7432645"><ele>0.0</ele><time>2026-05-01T01:11:50.026Z</time></trkpt><trkpt lat="43.6282132" lon="7.743353"><ele>0.0</ele><time>2026-05-01T01:11:51.027Z</time></trkpt><trkpt lat="43.6282676" lon="7.7434445"><ele>0.0</ele><time>2026-05-01T01:11:52.026Z</time></trkpt><trkpt lat="43.6283187" lon="7.743536"><ele>0.0</ele><time>2026-05-01T01:11:53.027Z</time></trkpt><trkpt lat="43.6283584" lon="7.7436321"><ele>0.0</ele><time>2026-05-01T01:11:54.027Z</time></trkpt><trkpt lat="43.6284039" lon="7.7437273"><ele>0.0</ele><time>2026-05-01T01:11:55.026Z</time></trkpt><trkpt lat="43.6284505" lon="7.7438216"><ele>0.0</ele><time>2026-05-01T01:11:56.027Z</time></trkpt><trkpt lat="43.6285016" lon="7.7439121"><ele>0.0</ele><time>2026-05-01T01:11:57.026Z</time></trkpt><trkpt lat="43.6285924" lon="7.7440919"><ele>0.0</ele><time>2026-05-01T01:11:59.026Z</time></trkpt><trkpt lat="43.6286318" lon="7.7441803"><ele>0.0</ele><time>2026-05-01T01:12:00.026Z</time></trkpt><trkpt lat="43.6286775" lon="7.7442642"><ele>0.0</ele><time>2026-05-01T01:12:01.026Z</time></trkpt><trkpt lat="43.6287267" lon="7.7443507"><ele>0.0</ele><time>2026-05-01T01:12:02.027Z</time></trkpt><trkpt lat="43.6288218" lon="7.7445282"><ele>0.0</ele><time>2026-05-01T01:12:04.027Z</time></trkpt><trkpt lat="43.6288703" lon="7.7446126"><ele>0.0</ele><time>2026-05-01T01:12:05.027Z</time></trkpt><trkpt lat="43.6289201" lon="7.7447002"><ele>0.0</ele><time>2026-05-01T01:12:06.026Z</time></trkpt><trkpt lat="43.6289672" lon="7.744786"><ele>0.0</ele><time>2026-05-01T01:12:07.026Z</time></trkpt><trkpt lat="43.6290167" lon="7.7448706"><ele>0.0</ele><time>2026-05-01T01:12:08.027Z</time></trkpt><trkpt lat="43.6290651" lon="7.7449573"><ele>0.0</ele><time>2026-05-01T01:12:09.026Z</time></trkpt><trkpt lat="43.6291121" lon="7.7450473"><ele>0.0</ele><time>2026-05-01T01:12:10.026Z</time></trkpt><trkpt lat="43.6291599" lon="7.745134"><ele>0.0</ele><time>2026-05-01T01:12:11.026Z</time></trkpt><trkpt lat="43.6292099" lon="7.7452245"><ele>0.0</ele><time>2026-05-01T01:12:12.026Z</time></trkpt><trkpt lat="43.629256" lon="7.7453156"><ele>0.0</ele><time>2026-05-01T01:12:13.026Z</time></trkpt><trkpt lat="43.6292982" lon="7.7454083"><ele>0.0</ele><time>2026-05-01T01:12:14.026Z</time></trkpt><trkpt lat="43.6293441" lon="7.7454991"><ele>0.0</ele><time>2026-05-01T01:12:15.026Z</time></trkpt><trkpt lat="43.6294019" lon="7.7455896"><ele>0.0</ele><time>2026-05-01T01:12:16.026Z</time></trkpt><trkpt lat="43.629449" lon="7.7456842"><ele>0.0</ele><time>2026-05-01T01:12:17.026Z</time></trkpt><trkpt lat="43.6294933" lon="7.7457708"><ele>0.0</ele><time>2026-05-01T01:12:18.027Z</time></trkpt><trkpt lat="43.629596" lon="7.7459538"><ele>0.0</ele><time>2026-05-01T01:12:20.026Z</time></trkpt><trkpt lat="43.6296492" lon="7.746039"><ele>0.0</ele><time>2026-05-01T01:12:21.027Z</time></trkpt><trkpt lat="43.6296999" lon="7.7461254"><ele>0.0</ele><time>2026-05-01T01:12:22.027Z</time></trkpt><trkpt lat="43.6297571" lon="7.7462094"><ele>0.0</ele><time>2026-05-01T01:12:23.026Z</time></trkpt><trkpt lat="43.6298093" lon="7.7463072"><ele>0.0</ele><time>2026-05-01T01:12:24.026Z</time></trkpt><trkpt lat="43.629864" lon="7.7463969"><ele>0.0</ele><time>2026-05-01T01:12:25.026Z</time></trkpt><trkpt lat="43.629919" lon="7.7464896"><ele>0.0</ele><time>2026-05-01T01:12:26.026Z</time></trkpt><trkpt lat="43.6299681" lon="7.7465839"><ele>0.0</ele><time>2026-05-01T01:12:27.027Z</time></trkpt><trkpt lat="43.6300222" lon="7.7466661"><ele>0.0</ele><time>2026-05-01T01:12:28.027Z</time></trkpt><trkpt lat="43.6300703" lon="7.746752"><ele>0.0</ele><time>2026-05-01T01:12:29.026Z</time></trkpt><trkpt lat="43.6301174" lon="7.7468375"><ele>0.0</ele><time>2026-05-01T01:12:30.026Z</time></trkpt><trkpt lat="43.6301652" lon="7.7469286"><ele>0.0</ele><time>2026-05-01T01:12:31.027Z</time></trkpt><trkpt lat="43.6302145" lon="7.7470234"><ele>0.0</ele><time>2026-05-01T01:12:32.027Z</time></trkpt><trkpt lat="43.6302645" lon="7.7471111"><ele>0.0</ele><time>2026-05-01T01:12:33.026Z</time></trkpt><trkpt lat="43.6303173" lon="7.7471974"><ele>0.0</ele><time>2026-05-01T01:12:34.026Z</time></trkpt><trkpt lat="43.630368" lon="7.7472882"><ele>0.0</ele><time>2026-05-01T01:12:35.026Z</time></trkpt><trkpt lat="43.6304605" lon="7.7474778"><ele>0.0</ele><time>2026-05-01T01:12:37.027Z</time></trkpt><trkpt lat="43.630503" lon="7.747566"><ele>0.0</ele><time>2026-05-01T01:12:38.027Z</time></trkpt><trkpt lat="43.6305482" lon="7.7476485"><ele>0.0</ele><time>2026-05-01T01:12:39.027Z</time></trkpt><trkpt lat="43.630652" lon="7.7478247"><ele>0.0</ele><time>2026-05-01T01:12:41.027Z</time></trkpt><trkpt lat="43.6307059" lon="7.7479081"><ele>0.0</ele><time>2026-05-01T01:12:42.026Z</time></trkpt><trkpt lat="43.6307561" lon="7.7479986"><ele>0.0</ele><time>2026-05-01T01:12:43.027Z</time></trkpt><trkpt lat="43.6308025" lon="7.7480898"><ele>0.0</ele><time>2026-05-01T01:12:44.027Z</time></trkpt><trkpt lat="43.6308475" lon="7.748181"><ele>0.0</ele><time>2026-05-01T01:12:45.026Z</time></trkpt><trkpt lat="43.6308964" lon="7.7482721"><ele>0.0</ele><time>2026-05-01T01:12:46.027Z</time></trkpt><trkpt lat="43.6309391" lon="7.7483673"><ele>0.0</ele><time>2026-05-01T01:12:47.026Z</time></trkpt><trkpt lat="43.6309853" lon="7.7484583"><ele>0.0</ele><time>2026-05-01T01:12:48.027Z</time></trkpt><trkpt lat="43.6310336" lon="7.7485522"><ele>0.0</ele><time>2026-05-01T01:12:49.026Z</time></trkpt><trkpt lat="43.6310739" lon="7.7486439"><ele>0.0</ele><time>2026-05-01T01:12:50.026Z</time></trkpt><trkpt lat="43.6311106" lon="7.7487363"><ele>0.0</ele><time>2026-05-01T01:12:51.027Z</time></trkpt><trkpt lat="43.6311586" lon="7.7488239"><ele>0.0</ele><time>2026-05-01T01:12:52.026Z</time></trkpt><trkpt lat="43.6312073" lon="7.7489132"><ele>0.0</ele><time>2026-05-01T01:12:53.027Z</time></trkpt><trkpt lat="43.6312565" lon="7.749004"><ele>0.0</ele><time>2026-05-01T01:12:54.027Z</time></trkpt><trkpt lat="43.6313036" lon="7.7490921"><ele>0.0</ele><time>2026-05-01T01:12:55.026Z</time></trkpt><trkpt lat="43.631349" lon="7.7491831"><ele>0.0</ele><time>2026-05-01T01:12:56.027Z</time></trkpt><trkpt lat="43.631387" lon="7.7492695"><ele>0.0</ele><time>2026-05-01T01:12:57.027Z</time></trkpt><trkpt lat="43.6314253" lon="7.7493576"><ele>0.0</ele><time>2026-05-01T01:12:58.027Z</time></trkpt><trkpt lat="43.6314676" lon="7.7494556"><ele>0.0</ele><time>2026-05-01T01:12:59.026Z</time></trkpt><trkpt lat="43.6315249" lon="7.7495448"><ele>0.0</ele><time>2026-05-01T01:13:00.027Z</time></trkpt><trkpt lat="43.6316318" lon="7.7497315"><ele>0.0</ele><time>2026-05-01T01:13:02.027Z</time></trkpt><trkpt lat="43.6316775" lon="7.7498252"><ele>0.0</ele><time>2026-05-01T01:13:03.026Z</time></trkpt><trkpt lat="43.6317295" lon="7.7499118"><ele>0.0</ele><time>2026-05-01T01:13:04.027Z</time></trkpt><trkpt lat="43.6317813" lon="7.7500019"><ele>0.0</ele><time>2026-05-01T01:13:05.026Z</time></trkpt><trkpt lat="43.6318316" lon="7.7500904"><ele>0.0</ele><time>2026-05-01T01:13:06.027Z</time></trkpt><trkpt lat="43.6318845" lon="7.7501827"><ele>0.0</ele><time>2026-05-01T01:13:07.026Z</time></trkpt><trkpt lat="43.6319337" lon="7.7502742"><ele>0.0</ele><time>2026-05-01T01:13:08.026Z</time></trkpt><trkpt lat="43.6320177" lon="7.7504588"><ele>0.0</ele><time>2026-05-01T01:13:10.027Z</time></trkpt><trkpt lat="43.6320625" lon="7.7505513"><ele>0.0</ele><time>2026-05-01T01:13:11.027Z</time></trkpt><trkpt lat="43.6321087" lon="7.7506499"><ele>0.0</ele><time>2026-05-01T01:13:12.027Z</time></trkpt><trkpt lat="43.6321542" lon="7.7507385"><ele>0.0</ele><time>2026-05-01T01:13:13.026Z</time></trkpt><trkpt lat="43.6321992" lon="7.7508299"><ele>0.0</ele><time>2026-05-01T01:13:14.027Z</time></trkpt><trkpt lat="43.6322438" lon="7.7509177"><ele>0.0</ele><time>2026-05-01T01:13:15.026Z</time></trkpt><trkpt lat="43.6322962" lon="7.7510056"><ele>0.0</ele><time>2026-05-01T01:13:16.027Z</time></trkpt><trkpt lat="43.6323449" lon="7.7510954"><ele>0.0</ele><time>2026-05-01T01:13:17.026Z</time></trkpt><trkpt lat="43.6323948" lon="7.7511807"><ele>0.0</ele><time>2026-05-01T01:13:18.026Z</time></trkpt><trkpt lat="43.6324446" lon="7.7512702"><ele>0.0</ele><time>2026-05-01T01:13:19.027Z</time></trkpt><trkpt lat="43.6324921" lon="7.7513597"><ele>0.0</ele><time>2026-05-01T01:13:20.026Z</time></trkpt><trkpt lat="43.6325442" lon="7.7514528"><ele>0.0</ele><time>2026-05-01T01:13:21.027Z</time></trkpt><trkpt lat="43.6326593" lon="7.751639"><ele>0.0</ele><time>2026-05-01T01:13:23.027Z</time></trkpt><trkpt lat="43.6327116" lon="7.7517239"><ele>0.0</ele><time>2026-05-01T01:13:24.026Z</time></trkpt><trkpt lat="43.6327674" lon="7.7518143"><ele>0.0</ele><time>2026-05-01T01:13:25.027Z</time></trkpt><trkpt lat="43.6328222" lon="7.7519062"><ele>0.0</ele><time>2026-05-01T01:13:26.026Z</time></trkpt><trkpt lat="43.6328731" lon="7.7519982"><ele>0.0</ele><time>2026-05-01T01:13:27.026Z</time></trkpt><trkpt lat="43.6329228" lon="7.7520888"><ele>0.0</ele><time>2026-05-01T01:13:28.027Z</time></trkpt><trkpt lat="43.6329787" lon="7.752186"><ele>0.0</ele><time>2026-05-01T01:13:29.027Z</time></trkpt><trkpt lat="43.6330323" lon="7.7522786"><ele>0.0</ele><time>2026-05-01T01:13:30.027Z</time></trkpt><trkpt lat="43.6330899" lon="7.7523691"><ele>0.0</ele><time>2026-05-01T01:13:31.027Z</time></trkpt><trkpt lat="43.6331354" lon="7.7524624"><ele>0.0</ele><time>2026-05-01T01:13:32.027Z</time></trkpt><trkpt lat="43.6331861" lon="7.7525529"><ele>0.0</ele><time>2026-05-01T01:13:33.027Z</time></trkpt><trkpt lat="43.6332349" lon="7.7526441"><ele>0.0</ele><time>2026-05-01T01:13:34.026Z</time></trkpt><trkpt lat="43.6332806" lon="7.7527284"><ele>0.0</ele><time>2026-05-01T01:13:35.027Z</time></trkpt><trkpt lat="43.6333213" lon="7.7528143"><ele>0.0</ele><time>2026-05-01T01:13:36.026Z</time></trkpt><trkpt lat="43.6333687" lon="7.7529097"><ele>0.0</ele><time>2026-05-01T01:13:37.026Z</time></trkpt><trkpt lat="43.633414" lon="7.7530015"><ele>0.0</ele><time>2026-05-01T01:13:38.026Z</time></trkpt><trkpt lat="43.6334648" lon="7.7530966"><ele>0.0</ele><time>2026-05-01T01:13:39.026Z</time></trkpt><trkpt lat="43.6335146" lon="7.753183"><ele>0.0</ele><time>2026-05-01T01:13:40.027Z</time></trkpt><trkpt lat="43.6335692" lon="7.7532717"><ele>0.0</ele><time>2026-05-01T01:13:41.026Z</time></trkpt><trkpt lat="43.6337129" lon="7.753534"><ele>0.0</ele><time>2026-05-01T01:13:44.026Z</time></trkpt><trkpt lat="43.6337618" lon="7.7536217"><ele>0.0</ele><time>2026-05-01T01:13:45.027Z</time></trkpt><trkpt lat="43.6338103" lon="7.753709"><ele>0.0</ele><time>2026-05-01T01:13:46.027Z</time></trkpt><trkpt lat="43.6338589" lon="7.7538002"><ele>0.0</ele><time>2026-05-01T01:13:47.026Z</time></trkpt><trkpt lat="43.6339056" lon="7.7538888"><ele>0.0</ele><time>2026-05-01T01:13:48.027Z</time></trkpt><trkpt lat="43.6339567" lon="7.7539795"><ele>0.0</ele><time>2026-05-01T01:13:49.027Z</time></trkpt><trkpt lat="43.6340069" lon="7.754071"><ele>0.0</ele><time>2026-05-01T01:13:50.026Z</time></trkpt><trkpt lat="43.6340512" lon="7.7541644"><ele>0.0</ele><time>2026-05-01T01:13:51.026Z</time></trkpt><trkpt lat="43.6341028" lon="7.7542549"><ele>0.0</ele><time>2026-05-01T01:13:52.026Z</time></trkpt><trkpt lat="43.6341557" lon="7.7543436"><ele>0.0</ele><time>2026-05-01T01:13:53.026Z</time></trkpt><trkpt lat="43.6342135" lon="7.7544336"><ele>0.0</ele><time>2026-05-01T01:13:54.027Z</time></trkpt><trkpt lat="43.6342673" lon="7.7545235"><ele>0.0</ele><time>2026-05-01T01:13:55.027Z</time></trkpt><trkpt lat="43.6343141" lon="7.7546097"><ele>0.0</ele><time>2026-05-01T01:13:56.027Z</time></trkpt><trkpt lat="43.6343677" lon="7.7546978"><ele>0.0</ele><time>2026-05-01T01:13:57.026Z</time></trkpt><trkpt lat="43.6344166" lon="7.7547884"><ele>0.0</ele><time>2026-05-01T01:13:58.027Z</time></trkpt><trkpt lat="43.6344678" lon="7.7548758"><ele>0.0</ele><time>2026-05-01T01:13:59.027Z</time></trkpt><trkpt lat="43.6345182" lon="7.7549634"><ele>0.0</ele><time>2026-05-01T01:14:00.027Z</time></trkpt><trkpt lat="43.6345685" lon="7.7550408"><ele>0.0</ele><time>2026-05-01T01:14:01.026Z</time></trkpt><trkpt lat="43.6346166" lon="7.7551202"><ele>0.0</ele><time>2026-05-01T01:14:02.026Z</time></trkpt><trkpt lat="43.634664" lon="7.7552054"><ele>0.0</ele><time>2026-05-01T01:14:03.026Z</time></trkpt><trkpt lat="43.6347527" lon="7.7553817"><ele>0.0</ele><time>2026-05-01T01:14:05.026Z</time></trkpt><trkpt lat="43.634806" lon="7.755469"><ele>0.0</ele><time>2026-05-01T01:14:06.027Z</time></trkpt><trkpt lat="43.6348552" lon="7.7555517"><ele>0.0</ele><time>2026-05-01T01:14:07.026Z</time></trkpt><trkpt lat="43.6349008" lon="7.7556406"><ele>0.0</ele><time>2026-05-01T01:14:08.027Z</time></trkpt><trkpt lat="43.6349471" lon="7.7557284"><ele>0.0</ele><time>2026-05-01T01:14:09.027Z</time></trkpt><trkpt lat="43.6349991" lon="7.7558183"><ele>0.0</ele><time>2026-05-01T01:14:10.026Z</time></trkpt><trkpt lat="43.6350467" lon="7.7559178"><ele>0.0</ele><time>2026-05-01T01:14:11.026Z</time></trkpt><trkpt lat="43.6350996" lon="7.7560185"><ele>0.0</ele><time>2026-05-01T01:14:12.026Z</time></trkpt><trkpt lat="43.6351473" lon="7.7561094"><ele>0.0</ele><time>2026-05-01T01:14:13.027Z</time></trkpt><trkpt lat="43.6351924" lon="7.7561941"><ele>0.0</ele><time>2026-05-01T01:14:14.026Z</time></trkpt><trkpt lat="43.6352895" lon="7.7563912"><ele>0.0</ele><time>2026-05-01T01:14:16.027Z</time></trkpt><trkpt lat="43.6353371" lon="7.7564898"><ele>0.0</ele><time>2026-05-01T01:14:17.026Z</time></trkpt><trkpt lat="43.6353854" lon="7.7565809"><ele>0.0</ele><time>2026-05-01T01:14:18.026Z</time></trkpt><trkpt lat="43.6354294" lon="7.756674"><ele>0.0</ele><time>2026-05-01T01:14:19.026Z</time></trkpt><trkpt lat="43.6354772" lon="7.7567662"><ele>0.0</ele><time>2026-05-01T01:14:20.027Z</time></trkpt><trkpt lat="43.6355224" lon="7.756865"><ele>0.0</ele><time>2026-05-01T01:14:21.026Z</time></trkpt><trkpt lat="43.6355691" lon="7.7569537"><ele>0.0</ele><time>2026-05-01T01:14:22.026Z</time></trkpt><trkpt lat="43.6356083" lon="7.7570422"><ele>0.0</ele><time>2026-05-01T01:14:23.026Z</time></trkpt><trkpt lat="43.635651" lon="7.7571263"><ele>0.0</ele><time>2026-05-01T01:14:24.026Z</time></trkpt><trkpt lat="43.635748" lon="7.7573034"><ele>0.0</ele><time>2026-05-01T01:14:26.026Z</time></trkpt><trkpt lat="43.635798" lon="7.757395"><ele>0.0</ele><time>2026-05-01T01:14:27.027Z</time></trkpt><trkpt lat="43.6358467" lon="7.7574892"><ele>0.0</ele><time>2026-05-01T01:14:28.025Z</time></trkpt><trkpt lat="43.6358922" lon="7.7575829"><ele>0.0</ele><time>2026-05-01T01:14:29.025Z</time></trkpt><trkpt lat="43.6359471" lon="7.7576746"><ele>0.0</ele><time>2026-05-01T01:14:30.025Z</time></trkpt><trkpt lat="43.6359968" lon="7.7577648"><ele>0.0</ele><time>2026-05-01T01:14:31.026Z</time></trkpt><trkpt lat="43.6360495" lon="7.7578548"><ele>0.0</ele><time>2026-05-01T01:14:32.025Z</time></trkpt><trkpt lat="43.6360999" lon="7.7579437"><ele>0.0</ele><time>2026-05-01T01:14:33.026Z</time></trkpt><trkpt lat="43.6361525" lon="7.7580383"><ele>0.0</ele><time>2026-05-01T01:14:34.026Z</time></trkpt><trkpt lat="43.636209" lon="7.7581279"><ele>0.0</ele><time>2026-05-01T01:14:35.026Z</time></trkpt><trkpt lat="43.6362627" lon="7.7582149"><ele>0.0</ele><time>2026-05-01T01:14:36.026Z</time></trkpt><trkpt lat="43.6363131" lon="7.7583027"><ele>0.0</ele><time>2026-05-01T01:14:37.025Z</time></trkpt><trkpt lat="43.6363661" lon="7.758391"><ele>0.0</ele><time>2026-05-01T01:14:38.025Z</time></trkpt><trkpt lat="43.6364211" lon="7.7584752"><ele>0.0</ele><time>2026-05-01T01:14:39.026Z</time></trkpt><trkpt lat="43.6364732" lon="7.7585652"><ele>0.0</ele><time>2026-05-01T01:14:40.025Z</time></trkpt><trkpt lat="43.636519" lon="7.7586472"><ele>0.0</ele><time>2026-05-01T01:14:41.026Z</time></trkpt><trkpt lat="43.6365643" lon="7.7587363"><ele>0.0</ele><time>2026-05-01T01:14:42.025Z</time></trkpt><trkpt lat="43.6366165" lon="7.7588299"><ele>0.0</ele><time>2026-05-01T01:14:43.026Z</time></trkpt><trkpt lat="43.6366652" lon="7.758929"><ele>0.0</ele><time>2026-05-01T01:14:44.025Z</time></trkpt><trkpt lat="43.6367125" lon="7.7590149"><ele>0.0</ele><time>2026-05-01T01:14:45.025Z</time></trkpt><trkpt lat="43.6368123" lon="7.7591954"><ele>0.0</ele><time>2026-05-01T01:14:47.026Z</time></trkpt><trkpt lat="43.6369244" lon="7.7593737"><ele>0.0</ele><time>2026-05-01T01:14:49.026Z</time></trkpt><trkpt lat="43.6369765" lon="7.7594611"><ele>0.0</ele><time>2026-05-01T01:14:50.025Z</time></trkpt><trkpt lat="43.6370211" lon="7.7595515"><ele>0.0</ele><time>2026-05-01T01:14:51.025Z</time></trkpt><trkpt lat="43.6370704" lon="7.7596357"><ele>0.0</ele><time>2026-05-01T01:14:52.025Z</time></trkpt><trkpt lat="43.6371156" lon="7.7597221"><ele>0.0</ele><time>2026-05-01T01:14:53.026Z</time></trkpt><trkpt lat="43.6371625" lon="7.7598127"><ele>0.0</ele><time>2026-05-01T01:14:54.026Z</time></trkpt><trkpt lat="43.6372092" lon="7.7598968"><ele>0.0</ele><time>2026-05-01T01:14:55.025Z</time></trkpt><trkpt lat="43.6372544" lon="7.7599859"><ele>0.0</ele><time>2026-05-01T01:14:56.026Z</time></trkpt><trkpt lat="43.6373004" lon="7.7600805"><ele>0.0</ele><time>2026-05-01T01:14:57.026Z</time></trkpt><trkpt lat="43.6373498" lon="7.7601764"><ele>0.0</ele><time>2026-05-01T01:14:58.025Z</time></trkpt><trkpt lat="43.6373999" lon="7.7602677"><ele>0.0</ele><time>2026-05-01T01:14:59.026Z</time></trkpt><trkpt lat="43.6374499" lon="7.760356"><ele>0.0</ele><time>2026-05-01T01:15:00.026Z</time></trkpt><trkpt lat="43.6374987" lon="7.7604457"><ele>0.0</ele><time>2026-05-01T01:15:01.025Z</time></trkpt><trkpt lat="43.6375471" lon="7.7605415"><ele>0.0</ele><time>2026-05-01T01:15:02.026Z</time></trkpt><trkpt lat="43.6375941" lon="7.7606355"><ele>0.0</ele><time>2026-05-01T01:15:03.025Z</time></trkpt><trkpt lat="43.6376434" lon="7.76073"><ele>0.0</ele><time>2026-05-01T01:15:04.025Z</time></trkpt><trkpt lat="43.6376923" lon="7.7608193"><ele>0.0</ele><time>2026-05-01T01:15:05.026Z</time></trkpt><trkpt lat="43.6377389" lon="7.760912"><ele>0.0</ele><time>2026-05-01T01:15:06.026Z</time></trkpt><trkpt lat="43.637837" lon="7.7610913"><ele>0.0</ele><time>2026-05-01T01:15:08.026Z</time></trkpt><trkpt lat="43.6378841" lon="7.7611741"><ele>0.0</ele><time>2026-05-01T01:15:09.026Z</time></trkpt><trkpt lat="43.6379266" lon="7.7612602"><ele>0.0</ele><time>2026-05-01T01:15:10.025Z</time></trkpt><trkpt lat="43.6379741" lon="7.7613525"><ele>0.0</ele><time>2026-05-01T01:15:11.026Z</time></trkpt><trkpt lat="43.6380218" lon="7.7614424"><ele>0.0</ele><time>2026-05-01T01:15:12.026Z</time></trkpt><trkpt lat="43.6380672" lon="7.7615273"><ele>0.0</ele><time>2026-05-01T01:15:13.025Z</time></trkpt><trkpt lat="43.6381168" lon="7.7616132"><ele>0.0</ele><time>2026-05-01T01:15:14.025Z</time></trkpt><trkpt lat="43.638167" lon="7.7617025"><ele>0.0</ele><time>2026-05-01T01:15:15.026Z</time></trkpt><trkpt lat="43.6382171" lon="7.761793"><ele>0.0</ele><time>2026-05-01T01:15:16.025Z</time></trkpt><trkpt lat="43.6382685" lon="7.7618831"><ele>0.0</ele><time>2026-05-01T01:15:17.026Z</time></trkpt><trkpt lat="43.6383214" lon="7.7619762"><ele>0.0</ele><time>2026-05-01T01:15:18.025Z</time></trkpt><trkpt lat="43.6383746" lon="7.7620553"><ele>0.0</ele><time>2026-05-01T01:15:19.026Z</time></trkpt><trkpt lat="43.6384763" lon="7.762238"><ele>0.0</ele><time>2026-05-01T01:15:21.025Z</time></trkpt><trkpt lat="43.6385238" lon="7.7623281"><ele>0.0</ele><time>2026-05-01T01:15:22.026Z</time></trkpt><trkpt lat="43.6385736" lon="7.7624124"><ele>0.0</ele><time>2026-05-01T01:15:23.026Z</time></trkpt><trkpt lat="43.6386193" lon="7.7624958"><ele>0.0</ele><time>2026-05-01T01:15:24.025Z</time></trkpt><trkpt lat="43.6386744" lon="7.7625788"><ele>0.0</ele><time>2026-05-01T01:15:25.025Z</time></trkpt><trkpt lat="43.6387279" lon="7.7626723"><ele>0.0</ele><time>2026-05-01T01:15:26.025Z</time></trkpt><trkpt lat="43.6387801" lon="7.7627716"><ele>0.0</ele><time>2026-05-01T01:15:27.026Z</time></trkpt><trkpt lat="43.638868" lon="7.7629489"><ele>0.0</ele><time>2026-05-01T01:15:29.026Z</time></trkpt><trkpt lat="43.6389155" lon="7.7630349"><ele>0.0</ele><time>2026-05-01T01:15:30.026Z</time></trkpt><trkpt lat="43.6389686" lon="7.7631283"><ele>0.0</ele><time>2026-05-01T01:15:31.025Z</time></trkpt><trkpt lat="43.6390215" lon="7.7632205"><ele>0.0</ele><time>2026-05-01T01:15:32.025Z</time></trkpt><trkpt lat="43.6390677" lon="7.7633126"><ele>0.0</ele><time>2026-05-01T01:15:33.026Z</time></trkpt><trkpt lat="43.6391183" lon="7.7634103"><ele>0.0</ele><time>2026-05-01T01:15:34.026Z</time></trkpt><trkpt lat="43.6391644" lon="7.7635069"><ele>0.0</ele><time>2026-05-01T01:15:35.026Z</time></trkpt><trkpt lat="43.6392189" lon="7.7636013"><ele>0.0</ele><time>2026-05-01T01:15:36.025Z</time></trkpt><trkpt lat="43.6392738" lon="7.7636976"><ele>0.0</ele><time>2026-05-01T01:15:37.026Z</time></trkpt><trkpt lat="43.6393262" lon="7.7637898"><ele>0.0</ele><time>2026-05-01T01:15:38.025Z</time></trkpt><trkpt lat="43.6393749" lon="7.7638802"><ele>0.0</ele><time>2026-05-01T01:15:39.025Z</time></trkpt><trkpt lat="43.639422" lon="7.7639732"><ele>0.0</ele><time>2026-05-01T01:15:40.026Z</time></trkpt><trkpt lat="43.6394729" lon="7.7640595"><ele>0.0</ele><time>2026-05-01T01:15:41.026Z</time></trkpt><trkpt lat="43.6395233" lon="7.7641498"><ele>0.0</ele><time>2026-05-01T01:15:42.025Z</time></trkpt><trkpt lat="43.6395676" lon="7.764239"><ele>0.0</ele><time>2026-05-01T01:15:43.025Z</time></trkpt><trkpt lat="43.6396138" lon="7.7643185"><ele>0.0</ele><time>2026-05-01T01:15:44.025Z</time></trkpt><trkpt lat="43.639662" lon="7.7644034"><ele>0.0</ele><time>2026-05-01T01:15:45.025Z</time></trkpt><trkpt lat="43.6397099" lon="7.7644924"><ele>0.0</ele><time>2026-05-01T01:15:46.025Z</time></trkpt><trkpt lat="43.6397558" lon="7.7645838"><ele>0.0</ele><time>2026-05-01T01:15:47.026Z</time></trkpt><trkpt lat="43.6398051" lon="7.7646825"><ele>0.0</ele><time>2026-05-01T01:15:48.025Z</time></trkpt><trkpt lat="43.6399003" lon="7.7648714"><ele>0.0</ele><time>2026-05-01T01:15:50.026Z</time></trkpt><trkpt lat="43.6399444" lon="7.7649675"><ele>0.0</ele><time>2026-05-01T01:15:51.025Z</time></trkpt><trkpt lat="43.6399931" lon="7.7650578"><ele>0.0</ele><time>2026-05-01T01:15:52.025Z</time></trkpt><trkpt lat="43.6400877" lon="7.7652198"><ele>0.0</ele><time>2026-05-01T01:15:54.026Z</time></trkpt><trkpt lat="43.6401355" lon="7.7653094"><ele>0.0</ele><time>2026-05-01T01:15:55.025Z</time></trkpt><trkpt lat="43.640178" lon="7.7654065"><ele>0.0</ele><time>2026-05-01T01:15:56.026Z</time></trkpt><trkpt lat="43.6402239" lon="7.7655023"><ele>0.0</ele><time>2026-05-01T01:15:57.025Z</time></trkpt><trkpt lat="43.6402759" lon="7.765598"><ele>0.0</ele><time>2026-05-01T01:15:58.025Z</time></trkpt><trkpt lat="43.6403292" lon="7.765677"><ele>0.0</ele><time>2026-05-01T01:15:59.025Z</time></trkpt><trkpt lat="43.6403826" lon="7.765765"><ele>0.0</ele><time>2026-05-01T01:16:00.025Z</time></trkpt><trkpt lat="43.6404333" lon="7.7658507"><ele>0.0</ele><time>2026-05-01T01:16:01.025Z</time></trkpt><trkpt lat="43.6404806" lon="7.7659429"><ele>0.0</ele><time>2026-05-01T01:16:02.026Z</time></trkpt><trkpt lat="43.6405258" lon="7.7660306"><ele>0.0</ele><time>2026-05-01T01:16:03.026Z</time></trkpt><trkpt lat="43.640575" lon="7.7661154"><ele>0.0</ele><time>2026-05-01T01:16:04.026Z</time></trkpt><trkpt lat="43.6406251" lon="7.7662077"><ele>0.0</ele><time>2026-05-01T01:16:05.025Z</time></trkpt><trkpt lat="43.6406751" lon="7.7662922"><ele>0.0</ele><time>2026-05-01T01:16:06.025Z</time></trkpt><trkpt lat="43.6407237" lon="7.7663746"><ele>0.0</ele><time>2026-05-01T01:16:07.026Z</time></trkpt><trkpt lat="43.640769" lon="7.7664584"><ele>0.0</ele><time>2026-05-01T01:16:08.025Z</time></trkpt><trkpt lat="43.6408173" lon="7.7665513"><ele>0.0</ele><time>2026-05-01T01:16:09.026Z</time></trkpt><trkpt lat="43.6409152" lon="7.766747"><ele>0.0</ele><time>2026-05-01T01:16:11.026Z</time></trkpt><trkpt lat="43.6409677" lon="7.7668338"><ele>0.0</ele><time>2026-05-01T01:16:12.025Z</time></trkpt><trkpt lat="43.6410141" lon="7.7669215"><ele>0.0</ele><time>2026-05-01T01:16:13.026Z</time></trkpt><trkpt lat="43.6410607" lon="7.7670144"><ele>0.0</ele><time>2026-05-01T01:16:14.026Z</time></trkpt><trkpt lat="43.6411089" lon="7.7671065"><ele>0.0</ele><time>2026-05-01T01:16:15.025Z</time></trkpt><trkpt lat="43.6411532" lon="7.7671941"><ele>0.0</ele><time>2026-05-01T01:16:16.025Z</time></trkpt><trkpt lat="43.641199" lon="7.7672845"><ele>0.0</ele><time>2026-05-01T01:16:17.025Z</time></trkpt><trkpt lat="43.641248" lon="7.7673721"><ele>0.0</ele><time>2026-05-01T01:16:18.025Z</time></trkpt><trkpt lat="43.6412939" lon="7.767466"><ele>0.0</ele><time>2026-05-01T01:16:19.026Z</time></trkpt><trkpt lat="43.6413408" lon="7.767559"><ele>0.0</ele><time>2026-05-01T01:16:20.026Z</time></trkpt><trkpt lat="43.6413872" lon="7.7676508"><ele>0.0</ele><time>2026-05-01T01:16:21.025Z</time></trkpt><trkpt lat="43.6414411" lon="7.7677453"><ele>0.0</ele><time>2026-05-01T01:16:22.026Z</time></trkpt><trkpt lat="43.6414956" lon="7.7678382"><ele>0.0</ele><time>2026-05-01T01:16:23.026Z</time></trkpt><trkpt lat="43.6415546" lon="7.7679223"><ele>0.0</ele><time>2026-05-01T01:16:24.026Z</time></trkpt><trkpt lat="43.6416121" lon="7.7680089"><ele>0.0</ele><time>2026-05-01T01:16:25.026Z</time></trkpt><trkpt lat="43.6417169" lon="7.768184"><ele>0.0</ele><time>2026-05-01T01:16:27.025Z</time></trkpt><trkpt lat="43.6417626" lon="7.7682686"><ele>0.0</ele><time>2026-05-01T01:16:28.025Z</time></trkpt><trkpt lat="43.6418105" lon="7.7683611"><ele>0.0</ele><time>2026-05-01T01:16:29.026Z</time></trkpt><trkpt lat="43.6418561" lon="7.7684498"><ele>0.0</ele><time>2026-05-01T01:16:30.025Z</time></trkpt><trkpt lat="43.6419484" lon="7.7686317"><ele>0.0</ele><time>2026-05-01T01:16:32.025Z</time></trkpt><trkpt lat="43.6420013" lon="7.7687217"><ele>0.0</ele><time>2026-05-01T01:16:33.025Z</time></trkpt><trkpt lat="43.6420474" lon="7.768817"><ele>0.0</ele><time>2026-05-01T01:16:34.025Z</time></trkpt><trkpt lat="43.642098" lon="7.7689128"><ele>0.0</ele><time>2026-05-01T01:16:35.025Z</time></trkpt><trkpt lat="43.6421455" lon="7.7690072"><ele>0.0</ele><time>2026-05-01T01:16:36.025Z</time></trkpt><trkpt lat="43.6421935" lon="7.7691009"><ele>0.0</ele><time>2026-05-01T01:16:37.026Z</time></trkpt><trkpt lat="43.642239" lon="7.7691883"><ele>0.0</ele><time>2026-05-01T01:16:38.025Z</time></trkpt><trkpt lat="43.6422842" lon="7.7692767"><ele>0.0</ele><time>2026-05-01T01:16:39.026Z</time></trkpt><trkpt lat="43.6423333" lon="7.7693723"><ele>0.0</ele><time>2026-05-01T01:16:40.025Z</time></trkpt><trkpt lat="43.6423791" lon="7.7694601"><ele>0.0</ele><time>2026-05-01T01:16:41.026Z</time></trkpt><trkpt lat="43.6424239" lon="7.7695526"><ele>0.0</ele><time>2026-05-01T01:16:42.025Z</time></trkpt><trkpt lat="43.6424746" lon="7.7696459"><ele>0.0</ele><time>2026-05-01T01:16:43.026Z</time></trkpt><trkpt lat="43.6425277" lon="7.769732"><ele>0.0</ele><time>2026-05-01T01:16:44.026Z</time></trkpt><trkpt lat="43.6425799" lon="7.7698285"><ele>0.0</ele><time>2026-05-01T01:16:45.025Z</time></trkpt><trkpt lat="43.6426328" lon="7.7699223"><ele>0.0</ele><time>2026-05-01T01:16:46.025Z</time></trkpt><trkpt lat="43.6426804" lon="7.7700111"><ele>0.0</ele><time>2026-05-01T01:16:47.025Z</time></trkpt><trkpt lat="43.6427289" lon="7.7700976"><ele>0.0</ele><time>2026-05-01T01:16:48.025Z</time></trkpt><trkpt lat="43.6427784" lon="7.7701815"><ele>0.0</ele><time>2026-05-01T01:16:49.026Z</time></trkpt><trkpt lat="43.6428297" lon="7.7702714"><ele>0.0</ele><time>2026-05-01T01:16:50.025Z</time></trkpt><trkpt lat="43.6428854" lon="7.7703643"><ele>0.0</ele><time>2026-05-01T01:16:51.026Z</time></trkpt><trkpt lat="43.6429853" lon="7.7705508"><ele>0.0</ele><time>2026-05-01T01:16:53.025Z</time></trkpt><trkpt lat="43.6430295" lon="7.7706485"><ele>0.0</ele><time>2026-05-01T01:16:54.026Z</time></trkpt><trkpt lat="43.6430769" lon="7.7707386"><ele>0.0</ele><time>2026-05-01T01:16:55.026Z</time></trkpt><trkpt lat="43.6431266" lon="7.770834"><ele>0.0</ele><time>2026-05-01T01:16:56.025Z</time></trkpt><trkpt lat="43.6431782" lon="7.7709235"><ele>0.0</ele><time>2026-05-01T01:16:57.025Z</time></trkpt><trkpt lat="43.64323" lon="7.7710113"><ele>0.0</ele><time>2026-05-01T01:16:58.025Z</time></trkpt><trkpt lat="43.6433209" lon="7.7712075"><ele>0.0</ele><time>2026-05-01T01:17:00.025Z</time></trkpt><trkpt lat="43.6433676" lon="7.7713018"><ele>0.0</ele><time>2026-05-01T01:17:01.025Z</time></trkpt><trkpt lat="43.643407" lon="7.7713873"><ele>0.0</ele><time>2026-05-01T01:17:02.025Z</time></trkpt><trkpt lat="43.6434568" lon="7.7714738"><ele>0.0</ele><time>2026-05-01T01:17:03.026Z</time></trkpt><trkpt lat="43.6435068" lon="7.7715632"><ele>0.0</ele><time>2026-05-01T01:17:04.026Z</time></trkpt><trkpt lat="43.6435557" lon="7.7716543"><ele>0.0</ele><time>2026-05-01T01:17:05.025Z</time></trkpt><trkpt lat="43.6435979" lon="7.7717405"><ele>0.0</ele><time>2026-05-01T01:17:06.025Z</time></trkpt><trkpt lat="43.6436398" lon="7.7718373"><ele>0.0</ele><time>2026-05-01T01:17:07.025Z</time></trkpt><trkpt lat="43.6436797" lon="7.7719296"><ele>0.0</ele><time>2026-05-01T01:17:08.026Z</time></trkpt><trkpt lat="43.643732" lon="7.7720185"><ele>0.0</ele><time>2026-05-01T01:17:09.026Z</time></trkpt><trkpt lat="43.6437845" lon="7.7721114"><ele>0.0</ele><time>2026-05-01T01:17:10.025Z</time></trkpt><trkpt lat="43.6438402" lon="7.7722059"><ele>0.0</ele><time>2026-05-01T01:17:11.026Z</time></trkpt><trkpt lat="43.6438987" lon="7.7722981"><ele>0.0</ele><time>2026-05-01T01:17:12.025Z</time></trkpt><trkpt lat="43.6440064" lon="7.772479"><ele>0.0</ele><time>2026-05-01T01:17:14.026Z</time></trkpt><trkpt lat="43.6440609" lon="7.772573"><ele>0.0</ele><time>2026-05-01T01:17:15.025Z</time></trkpt><trkpt lat="43.6441085" lon="7.772666"><ele>0.0</ele><time>2026-05-01T01:17:16.026Z</time></trkpt><trkpt lat="43.6441611" lon="7.7727567"><ele>0.0</ele><time>2026-05-01T01:17:17.025Z</time></trkpt><trkpt lat="43.6442115" lon="7.7728485"><ele>0.0</ele><time>2026-05-01T01:17:18.026Z</time></trkpt><trkpt lat="43.6442589" lon="7.772934"><ele>0.0</ele><time>2026-05-01T01:17:19.025Z</time></trkpt><trkpt lat="43.6443013" lon="7.7730193"><ele>0.0</ele><time>2026-05-01T01:17:20.025Z</time></trkpt><trkpt lat="43.6443531" lon="7.7731024"><ele>0.0</ele><time>2026-05-01T01:17:21.026Z</time></trkpt><trkpt lat="43.6443961" lon="7.7731945"><ele>0.0</ele><time>2026-05-01T01:17:22.026Z</time></trkpt><trkpt lat="43.6444448" lon="7.7732898"><ele>0.0</ele><time>2026-05-01T01:17:23.025Z</time></trkpt><trkpt lat="43.6444932" lon="7.7733792"><ele>0.0</ele><time>2026-05-01T01:17:24.026Z</time></trkpt><trkpt lat="43.6445488" lon="7.7734703"><ele>0.0</ele><time>2026-05-01T01:17:25.025Z</time></trkpt><trkpt lat="43.6446024" lon="7.773566"><ele>0.0</ele><time>2026-05-01T01:17:26.025Z</time></trkpt><trkpt lat="43.6446491" lon="7.7736637"><ele>0.0</ele><time>2026-05-01T01:17:27.025Z</time></trkpt><trkpt lat="43.6446969" lon="7.7737552"><ele>0.0</ele><time>2026-05-01T01:17:28.025Z</time></trkpt><trkpt lat="43.6447455" lon="7.7738467"><ele>0.0</ele><time>2026-05-01T01:17:29.025Z</time></trkpt><trkpt lat="43.6447905" lon="7.7739349"><ele>0.0</ele><time>2026-05-01T01:17:30.025Z</time></trkpt><trkpt lat="43.6448402" lon="7.7740249"><ele>0.0</ele><time>2026-05-01T01:17:31.026Z</time></trkpt><trkpt lat="43.6449371" lon="7.7742027"><ele>0.0</ele><time>2026-05-01T01:17:33.025Z</time></trkpt><trkpt lat="43.6450323" lon="7.7743848"><ele>0.0</ele><time>2026-05-01T01:17:35.026Z</time></trkpt><trkpt lat="43.6450786" lon="7.7744757"><ele>0.0</ele><time>2026-05-01T01:17:36.025Z</time></trkpt><trkpt lat="43.6451286" lon="7.774563"><ele>0.0</ele><time>2026-05-01T01:17:37.026Z</time></trkpt><trkpt lat="43.6451749" lon="7.7746567"><ele>0.0</ele><time>2026-05-01T01:17:38.026Z</time></trkpt><trkpt lat="43.6452236" lon="7.7747456"><ele>0.0</ele><time>2026-05-01T01:17:39.025Z</time></trkpt><trkpt lat="43.6452717" lon="7.7748363"><ele>0.0</ele><time>2026-05-01T01:17:40.025Z</time></trkpt><trkpt lat="43.6453245" lon="7.7749254"><ele>0.0</ele><time>2026-05-01T01:17:41.025Z</time></trkpt><trkpt lat="43.6453734" lon="7.7750241"><ele>0.0</ele><time>2026-05-01T01:17:42.026Z</time></trkpt><trkpt lat="43.6454235" lon="7.7751191"><ele>0.0</ele><time>2026-05-01T01:17:43.025Z</time></trkpt><trkpt lat="43.6454677" lon="7.775209"><ele>0.0</ele><time>2026-05-01T01:17:44.026Z</time></trkpt><trkpt lat="43.6455154" lon="7.7752938"><ele>0.0</ele><time>2026-05-01T01:17:45.025Z</time></trkpt><trkpt lat="43.6455622" lon="7.7753817"><ele>0.0</ele><time>2026-05-01T01:17:46.026Z</time></trkpt><trkpt lat="43.6456089" lon="7.7754657"><ele>0.0</ele><time>2026-05-01T01:17:47.026Z</time></trkpt><trkpt lat="43.6456582" lon="7.7755508"><ele>0.0</ele><time>2026-05-01T01:17:48.025Z</time></trkpt><trkpt lat="43.6457096" lon="7.7756359"><ele>0.0</ele><time>2026-05-01T01:17:49.025Z</time></trkpt><trkpt lat="43.645763" lon="7.7757221"><ele>0.0</ele><time>2026-05-01T01:17:50.025Z</time></trkpt><trkpt lat="43.6458134" lon="7.7758099"><ele>0.0</ele><time>2026-05-01T01:17:51.025Z</time></trkpt><trkpt lat="43.6458609" lon="7.7758979"><ele>0.0</ele><time>2026-05-01T01:17:52.026Z</time></trkpt><trkpt lat="43.645909" lon="7.775988"><ele>0.0</ele><time>2026-05-01T01:17:53.026Z</time></trkpt><trkpt lat="43.6460018" lon="7.7761722"><ele>0.0</ele><time>2026-05-01T01:17:55.026Z</time></trkpt><trkpt lat="43.6460532" lon="7.7762645"><ele>0.0</ele><time>2026-05-01T01:17:56.025Z</time></trkpt><trkpt lat="43.6461051" lon="7.7763596"><ele>0.0</ele><time>2026-05-01T01:17:57.026Z</time></trkpt><trkpt lat="43.6461592" lon="7.7764496"><ele>0.0</ele><time>2026-05-01T01:17:58.025Z</time></trkpt><trkpt lat="43.6462072" lon="7.7765422"><ele>0.0</ele><time>2026-05-01T01:17:59.026Z</time></trkpt><trkpt lat="43.6462582" lon="7.7766355"><ele>0.0</ele><time>2026-05-01T01:18:00.025Z</time></trkpt><trkpt lat="43.6463099" lon="7.7767238"><ele>0.0</ele><time>2026-05-01T01:18:01.025Z</time></trkpt><trkpt lat="43.6463614" lon="7.7768136"><ele>0.0</ele><time>2026-05-01T01:18:02.026Z</time></trkpt><trkpt lat="43.6464133" lon="7.7769047"><ele>0.0</ele><time>2026-05-01T01:18:03.025Z</time></trkpt><trkpt lat="43.6465134" lon="7.7770862"><ele>0.0</ele><time>2026-05-01T01:18:05.025Z</time></trkpt><trkpt lat="43.6465622" lon="7.7771791"><ele>0.0</ele><time>2026-05-01T01:18:06.026Z</time></trkpt><trkpt lat="43.6466089" lon="7.7772711"><ele>0.0</ele><time>2026-05-01T01:18:07.025Z</time></trkpt><trkpt lat="43.6466571" lon="7.7773628"><ele>0.0</ele><time>2026-05-01T01:18:08.025Z</time></trkpt><trkpt lat="43.6467099" lon="7.7774527"><ele>0.0</ele><time>2026-05-01T01:18:09.026Z</time></trkpt><trkpt lat="43.646763" lon="7.7775433"><ele>0.0</ele><time>2026-05-01T01:18:10.026Z</time></trkpt><trkpt lat="43.6468106" lon="7.7776352"><ele>0.0</ele><time>2026-05-01T01:18:11.026Z</time></trkpt><trkpt lat="43.6468598" lon="7.7777267"><ele>0.0</ele><time>2026-05-01T01:18:12.025Z</time></trkpt><trkpt lat="43.6469128" lon="7.7778213"><ele>0.0</ele><time>2026-05-01T01:18:13.026Z</time></trkpt><trkpt lat="43.6469679" lon="7.7779122"><ele>0.0</ele><time>2026-05-01T01:18:14.025Z</time></trkpt><trkpt lat="43.6470579" lon="7.778084"><ele>0.0</ele><time>2026-05-01T01:18:16.025Z</time></trkpt><trkpt lat="43.6471051" lon="7.7781708"><ele>0.0</ele><time>2026-05-01T01:18:17.025Z</time></trkpt><trkpt lat="43.6471537" lon="7.7782587"><ele>0.0</ele><time>2026-05-01T01:18:18.025Z</time></trkpt><trkpt lat="43.6471963" lon="7.7783514"><ele>0.0</ele><time>2026-05-01T01:18:19.026Z</time></trkpt><trkpt lat="43.6472394" lon="7.778444"><ele>0.0</ele><time>2026-05-01T01:18:20.026Z</time></trkpt><trkpt lat="43.647284" lon="7.7785367"><ele>0.0</ele><time>2026-05-01T01:18:21.025Z</time></trkpt><trkpt lat="43.6473329" lon="7.7786297"><ele>0.0</ele><time>2026-05-01T01:18:22.025Z</time></trkpt><trkpt lat="43.6473846" lon="7.7787215"><ele>0.0</ele><time>2026-05-01T01:18:23.025Z</time></trkpt><trkpt lat="43.6474376" lon="7.7788178"><ele>0.0</ele><time>2026-05-01T01:18:24.025Z</time></trkpt><trkpt lat="43.6474826" lon="7.7789126"><ele>0.0</ele><time>2026-05-01T01:18:25.025Z</time></trkpt><trkpt lat="43.6475271" lon="7.7789992"><ele>0.0</ele><time>2026-05-01T01:18:26.026Z</time></trkpt><trkpt lat="43.6475764" lon="7.7790871"><ele>0.0</ele><time>2026-05-01T01:18:27.025Z</time></trkpt><trkpt lat="43.6476236" lon="7.7791726"><ele>0.0</ele><time>2026-05-01T01:18:28.025Z</time></trkpt><trkpt lat="43.6476674" lon="7.7792619"><ele>0.0</ele><time>2026-05-01T01:18:29.025Z</time></trkpt><trkpt lat="43.647715" lon="7.7793503"><ele>0.0</ele><time>2026-05-01T01:18:30.026Z</time></trkpt><trkpt lat="43.6477659" lon="7.7794413"><ele>0.0</ele><time>2026-05-01T01:18:31.026Z</time></trkpt><trkpt lat="43.6478168" lon="7.7795318"><ele>0.0</ele><time>2026-05-01T01:18:32.025Z</time></trkpt><trkpt lat="43.6478664" lon="7.7796205"><ele>0.0</ele><time>2026-05-01T01:18:33.026Z</time></trkpt><trkpt lat="43.6479264" lon="7.7797075"><ele>0.0</ele><time>2026-05-01T01:18:34.025Z</time></trkpt><trkpt lat="43.6479782" lon="7.7797956"><ele>0.0</ele><time>2026-05-01T01:18:35.025Z</time></trkpt><trkpt lat="43.6480321" lon="7.7798841"><ele>0.0</ele><time>2026-05-01T01:18:36.026Z</time></trkpt><trkpt lat="43.6481767" lon="7.7801629"><ele>0.0</ele><time>2026-05-01T01:18:39.026Z</time></trkpt><trkpt lat="43.6482237" lon="7.7802532"><ele>0.0</ele><time>2026-05-01T01:18:40.026Z</time></trkpt><trkpt lat="43.6482691" lon="7.7803435"><ele>0.0</ele><time>2026-05-01T01:18:41.026Z</time></trkpt><trkpt lat="43.6483167" lon="7.7804302"><ele>0.0</ele><time>2026-05-01T01:18:42.026Z</time></trkpt><trkpt lat="43.6483653" lon="7.7805269"><ele>0.0</ele><time>2026-05-01T01:18:43.026Z</time></trkpt><trkpt lat="43.6484182" lon="7.7806199"><ele>0.0</ele><time>2026-05-01T01:18:44.025Z</time></trkpt><trkpt lat="43.6484714" lon="7.7807117"><ele>0.0</ele><time>2026-05-01T01:18:45.026Z</time></trkpt><trkpt lat="43.6485216" lon="7.7808051"><ele>0.0</ele><time>2026-05-01T01:18:46.026Z</time></trkpt><trkpt lat="43.6485645" lon="7.7809008"><ele>0.0</ele><time>2026-05-01T01:18:47.025Z</time></trkpt><trkpt lat="43.6486122" lon="7.7809905"><ele>0.0</ele><time>2026-05-01T01:18:48.026Z</time></trkpt><trkpt lat="43.6486586" lon="7.7810817"><ele>0.0</ele><time>2026-05-01T01:18:49.025Z</time></trkpt><trkpt lat="43.6487054" lon="7.7811773"><ele>0.0</ele><time>2026-05-01T01:18:50.025Z</time></trkpt><trkpt lat="43.6487562" lon="7.7812712"><ele>0.0</ele><time>2026-05-01T01:18:51.025Z</time></trkpt><trkpt lat="43.6488065" lon="7.781363"><ele>0.0</ele><time>2026-05-01T01:18:52.026Z</time></trkpt><trkpt lat="43.6488581" lon="7.7814546"><ele>0.0</ele><time>2026-05-01T01:18:53.026Z</time></trkpt><trkpt lat="43.6489155" lon="7.7815449"><ele>0.0</ele><time>2026-05-01T01:18:54.025Z</time></trkpt><trkpt lat="43.6489681" lon="7.7816347"><ele>0.0</ele><time>2026-05-01T01:18:55.026Z</time></trkpt><trkpt lat="43.6490216" lon="7.7817223"><ele>0.0</ele><time>2026-05-01T01:18:56.026Z</time></trkpt><trkpt lat="43.6490706" lon="7.7818106"><ele>0.0</ele><time>2026-05-01T01:18:57.026Z</time></trkpt><trkpt lat="43.6491192" lon="7.7818956"><ele>0.0</ele><time>2026-05-01T01:18:58.026Z</time></trkpt><trkpt lat="43.6492223" lon="7.7820831"><ele>0.0</ele><time>2026-05-01T01:19:00.025Z</time></trkpt><trkpt lat="43.6492636" lon="7.7821802"><ele>0.0</ele><time>2026-05-01T01:19:01.026Z</time></trkpt><trkpt lat="43.6493118" lon="7.7822746"><ele>0.0</ele><time>2026-05-01T01:19:02.026Z</time></trkpt><trkpt lat="43.6493603" lon="7.7823695"><ele>0.0</ele><time>2026-05-01T01:19:03.026Z</time></trkpt><trkpt lat="43.6494101" lon="7.782456"><ele>0.0</ele><time>2026-05-01T01:19:04.025Z</time></trkpt><trkpt lat="43.6494576" lon="7.7825436"><ele>0.0</ele><time>2026-05-01T01:19:05.025Z</time></trkpt><trkpt lat="43.6495013" lon="7.7826376"><ele>0.0</ele><time>2026-05-01T01:19:06.025Z</time></trkpt><trkpt lat="43.6495476" lon="7.7827283"><ele>0.0</ele><time>2026-05-01T01:19:07.025Z</time></trkpt><trkpt lat="43.6495937" lon="7.7828157"><ele>0.0</ele><time>2026-05-01T01:19:08.025Z</time></trkpt><trkpt lat="43.6496392" lon="7.7829021"><ele>0.0</ele><time>2026-05-01T01:19:09.025Z</time></trkpt><trkpt lat="43.6497382" lon="7.7830874"><ele>0.0</ele><time>2026-05-01T01:19:11.025Z</time></trkpt><trkpt lat="43.6497909" lon="7.7831841"><ele>0.0</ele><time>2026-05-01T01:19:12.024Z</time></trkpt><trkpt lat="43.6498483" lon="7.7832751"><ele>0.0</ele><time>2026-05-01T01:19:13.024Z</time></trkpt><trkpt lat="43.6499035" lon="7.7833664"><ele>0.0</ele><time>2026-05-01T01:19:14.025Z</time></trkpt><trkpt lat="43.6499532" lon="7.7834567"><ele>0.0</ele><time>2026-05-01T01:19:15.025Z</time></trkpt><trkpt lat="43.6500031" lon="7.7835485"><ele>0.0</ele><time>2026-05-01T01:19:16.024Z</time></trkpt><trkpt lat="43.650052" lon="7.7836375"><ele>0.0</ele><time>2026-05-01T01:19:17.025Z</time></trkpt><trkpt lat="43.6500889" lon="7.7837253"><ele>0.0</ele><time>2026-05-01T01:19:18.024Z</time></trkpt><trkpt lat="43.6501287" lon="7.7838164"><ele>0.0</ele><time>2026-05-01T01:19:19.024Z</time></trkpt><trkpt lat="43.6502249" lon="7.7839949"><ele>0.0</ele><time>2026-05-01T01:19:21.025Z</time></trkpt><trkpt lat="43.6502666" lon="7.7840821"><ele>0.0</ele><time>2026-05-01T01:19:22.025Z</time></trkpt><trkpt lat="43.6503164" lon="7.784172"><ele>0.0</ele><time>2026-05-01T01:19:23.025Z</time></trkpt><trkpt lat="43.6503681" lon="7.7842607"><ele>0.0</ele><time>2026-05-01T01:19:24.024Z</time></trkpt><trkpt lat="43.6504087" lon="7.7843531"><ele>0.0</ele><time>2026-05-01T01:19:25.024Z</time></trkpt><trkpt lat="43.6504538" lon="7.7844448"><ele>0.0</ele><time>2026-05-01T01:19:26.025Z</time></trkpt><trkpt lat="43.6505048" lon="7.7845436"><ele>0.0</ele><time>2026-05-01T01:19:27.025Z</time></trkpt><trkpt lat="43.6505636" lon="7.7846307"><ele>0.0</ele><time>2026-05-01T01:19:28.025Z</time></trkpt><trkpt lat="43.6506152" lon="7.7847155"><ele>0.0</ele><time>2026-05-01T01:19:29.024Z</time></trkpt><trkpt lat="43.6506668" lon="7.784803"><ele>0.0</ele><time>2026-05-01T01:19:30.025Z</time></trkpt><trkpt lat="43.6507175" lon="7.7849019"><ele>0.0</ele><time>2026-05-01T01:19:31.024Z</time></trkpt><trkpt lat="43.6507694" lon="7.7849973"><ele>0.0</ele><time>2026-05-01T01:19:32.025Z</time></trkpt><trkpt lat="43.6508142" lon="7.785087"><ele>0.0</ele><time>2026-05-01T01:19:33.025Z</time></trkpt><trkpt lat="43.6508604" lon="7.7851766"><ele>0.0</ele><time>2026-05-01T01:19:34.025Z</time></trkpt><trkpt lat="43.6509212" lon="7.7852639"><ele>0.0</ele><time>2026-05-01T01:19:35.024Z</time></trkpt><trkpt lat="43.6509773" lon="7.7853505"><ele>0.0</ele><time>2026-05-01T01:19:36.024Z</time></trkpt><trkpt lat="43.651028" lon="7.7854429"><ele>0.0</ele><time>2026-05-01T01:19:37.025Z</time></trkpt><trkpt lat="43.6510812" lon="7.7855233"><ele>0.0</ele><time>2026-05-01T01:19:38.024Z</time></trkpt><trkpt lat="43.6511303" lon="7.7856133"><ele>0.0</ele><time>2026-05-01T01:19:39.024Z</time></trkpt><trkpt lat="43.6511871" lon="7.7857031"><ele>0.0</ele><time>2026-05-01T01:19:40.025Z</time></trkpt><trkpt lat="43.6512949" lon="7.7858955"><ele>0.0</ele><time>2026-05-01T01:19:42.024Z</time></trkpt><trkpt lat="43.6513451" lon="7.785987"><ele>0.0</ele><time>2026-05-01T01:19:43.025Z</time></trkpt><trkpt lat="43.6513893" lon="7.786075"><ele>0.0</ele><time>2026-05-01T01:19:44.025Z</time></trkpt><trkpt lat="43.6514286" lon="7.7861671"><ele>0.0</ele><time>2026-05-01T01:19:45.024Z</time></trkpt><trkpt lat="43.6514767" lon="7.7862645"><ele>0.0</ele><time>2026-05-01T01:19:46.025Z</time></trkpt><trkpt lat="43.6515308" lon="7.786354"><ele>0.0</ele><time>2026-05-01T01:19:47.024Z</time></trkpt><trkpt lat="43.6515788" lon="7.7864434"><ele>0.0</ele><time>2026-05-01T01:19:48.025Z</time></trkpt><trkpt lat="43.6516255" lon="7.7865349"><ele>0.0</ele><time>2026-05-01T01:19:49.024Z</time></trkpt><trkpt lat="43.6516749" lon="7.7866259"><ele>0.0</ele><time>2026-05-01T01:19:50.024Z</time></trkpt><trkpt lat="43.6517194" lon="7.7867155"><ele>0.0</ele><time>2026-05-01T01:19:51.024Z</time></trkpt><trkpt lat="43.6517672" lon="7.7868054"><ele>0.0</ele><time>2026-05-01T01:19:52.024Z</time></trkpt><trkpt lat="43.6518154" lon="7.7868969"><ele>0.0</ele><time>2026-05-01T01:19:53.025Z</time></trkpt><trkpt lat="43.6518612" lon="7.7869829"><ele>0.0</ele><time>2026-05-01T01:19:54.025Z</time></trkpt><trkpt lat="43.6519075" lon="7.7870719"><ele>0.0</ele><time>2026-05-01T01:19:55.024Z</time></trkpt><trkpt lat="43.6519513" lon="7.7871635"><ele>0.0</ele><time>2026-05-01T01:19:56.024Z</time></trkpt><trkpt lat="43.6520009" lon="7.787251"><ele>0.0</ele><time>2026-05-01T01:19:57.024Z</time></trkpt><trkpt lat="43.6520444" lon="7.7873436"><ele>0.0</ele><time>2026-05-01T01:19:58.024Z</time></trkpt><trkpt lat="43.6520811" lon="7.7874341"><ele>0.0</ele><time>2026-05-01T01:19:59.024Z</time></trkpt><trkpt lat="43.6521303" lon="7.7875282"><ele>0.0</ele><time>2026-05-01T01:20:00.024Z</time></trkpt><trkpt lat="43.652177" lon="7.7876289"><ele>0.0</ele><time>2026-05-01T01:20:01.025Z</time></trkpt><trkpt lat="43.6522763" lon="7.7878134"><ele>0.0</ele><time>2026-05-01T01:20:03.025Z</time></trkpt><trkpt lat="43.6523292" lon="7.7879037"><ele>0.0</ele><time>2026-05-01T01:20:04.025Z</time></trkpt><trkpt lat="43.6523841" lon="7.7879927"><ele>0.0</ele><time>2026-05-01T01:20:05.024Z</time></trkpt><trkpt lat="43.6524317" lon="7.7880875"><ele>0.0</ele><time>2026-05-01T01:20:06.024Z</time></trkpt><trkpt lat="43.6524871" lon="7.7881738"><ele>0.0</ele><time>2026-05-01T01:20:07.025Z</time></trkpt><trkpt lat="43.6525366" lon="7.788269"><ele>0.0</ele><time>2026-05-01T01:20:08.024Z</time></trkpt><trkpt lat="43.652581" lon="7.7883616"><ele>0.0</ele><time>2026-05-01T01:20:09.024Z</time></trkpt><trkpt lat="43.6526214" lon="7.7884593"><ele>0.0</ele><time>2026-05-01T01:20:10.025Z</time></trkpt><trkpt lat="43.6526618" lon="7.7885529"><ele>0.0</ele><time>2026-05-01T01:20:11.025Z</time></trkpt><trkpt lat="43.6527116" lon="7.7886461"><ele>0.0</ele><time>2026-05-01T01:20:12.025Z</time></trkpt><trkpt lat="43.6527631" lon="7.7887398"><ele>0.0</ele><time>2026-05-01T01:20:13.024Z</time></trkpt><trkpt lat="43.652813" lon="7.7888317"><ele>0.0</ele><time>2026-05-01T01:20:14.025Z</time></trkpt><trkpt lat="43.6529101" lon="7.7890105"><ele>0.0</ele><time>2026-05-01T01:20:16.024Z</time></trkpt><trkpt lat="43.6529584" lon="7.7891006"><ele>0.0</ele><time>2026-05-01T01:20:17.024Z</time></trkpt><trkpt lat="43.6530026" lon="7.7891901"><ele>0.0</ele><time>2026-05-01T01:20:18.024Z</time></trkpt><trkpt lat="43.6530469" lon="7.7892833"><ele>0.0</ele><time>2026-05-01T01:20:19.025Z</time></trkpt><trkpt lat="43.6530992" lon="7.7893706"><ele>0.0</ele><time>2026-05-01T01:20:20.024Z</time></trkpt><trkpt lat="43.6531471" lon="7.7894585"><ele>0.0</ele><time>2026-05-01T01:20:21.025Z</time></trkpt><trkpt lat="43.6531994" lon="7.7895512"><ele>0.0</ele><time>2026-05-01T01:20:22.024Z</time></trkpt><trkpt lat="43.6533017" lon="7.7897288"><ele>0.0</ele><time>2026-05-01T01:20:24.024Z</time></trkpt><trkpt lat="43.6533503" lon="7.7898164"><ele>0.0</ele><time>2026-05-01T01:20:25.024Z</time></trkpt><trkpt lat="43.6534017" lon="7.7899137"><ele>0.0</ele><time>2026-05-01T01:20:26.025Z</time></trkpt><trkpt lat="43.6534474" lon="7.7900092"><ele>0.0</ele><time>2026-05-01T01:20:27.024Z</time></trkpt><trkpt lat="43.6534878" lon="7.7901062"><ele>0.0</ele><time>2026-05-01T01:20:28.025Z</time></trkpt><trkpt lat="43.6535295" lon="7.790202"><ele>0.0</ele><time>2026-05-01T01:20:29.024Z</time></trkpt><trkpt lat="43.6535711" lon="7.7902973"><ele>0.0</ele><time>2026-05-01T01:20:30.024Z</time></trkpt><trkpt lat="43.6536133" lon="7.7903972"><ele>0.0</ele><time>2026-05-01T01:20:31.025Z</time></trkpt><trkpt lat="43.6536632" lon="7.7904813"><ele>0.0</ele><time>2026-05-01T01:20:32.025Z</time></trkpt><trkpt lat="43.6537145" lon="7.7905677"><ele>0.0</ele><time>2026-05-01T01:20:33.024Z</time></trkpt><trkpt lat="43.6537647" lon="7.7906515"><ele>0.0</ele><time>2026-05-01T01:20:34.025Z</time></trkpt><trkpt lat="43.6538256" lon="7.7907324"><ele>0.0</ele><time>2026-05-01T01:20:35.024Z</time></trkpt><trkpt lat="43.653886" lon="7.7908168"><ele>0.0</ele><time>2026-05-01T01:20:36.024Z</time></trkpt><trkpt lat="43.6539449" lon="7.7909057"><ele>0.0</ele><time>2026-05-01T01:20:37.025Z</time></trkpt><trkpt lat="43.6539948" lon="7.790997"><ele>0.0</ele><time>2026-05-01T01:20:38.024Z</time></trkpt><trkpt lat="43.6540421" lon="7.7910897"><ele>0.0</ele><time>2026-05-01T01:20:39.024Z</time></trkpt><trkpt lat="43.6540934" lon="7.7911845"><ele>0.0</ele><time>2026-05-01T01:20:40.024Z</time></trkpt><trkpt lat="43.654141" lon="7.7912764"><ele>0.0</ele><time>2026-05-01T01:20:41.025Z</time></trkpt><trkpt lat="43.6541837" lon="7.7913691"><ele>0.0</ele><time>2026-05-01T01:20:42.025Z</time></trkpt><trkpt lat="43.6542288" lon="7.7914558"><ele>0.0</ele><time>2026-05-01T01:20:43.025Z</time></trkpt><trkpt lat="43.6543298" lon="7.7916364"><ele>0.0</ele><time>2026-05-01T01:20:45.025Z</time></trkpt><trkpt lat="43.6543803" lon="7.7917321"><ele>0.0</ele><time>2026-05-01T01:20:46.024Z</time></trkpt><trkpt lat="43.654433" lon="7.7918199"><ele>0.0</ele><time>2026-05-01T01:20:47.024Z</time></trkpt><trkpt lat="43.6545271" lon="7.7919959"><ele>0.0</ele><time>2026-05-01T01:20:49.024Z</time></trkpt><trkpt lat="43.6545728" lon="7.7920919"><ele>0.0</ele><time>2026-05-01T01:20:50.024Z</time></trkpt><trkpt lat="43.6546251" lon="7.7921859"><ele>0.0</ele><time>2026-05-01T01:20:51.024Z</time></trkpt><trkpt lat="43.6546724" lon="7.7922813"><ele>0.0</ele><time>2026-05-01T01:20:52.025Z</time></trkpt><trkpt lat="43.6547265" lon="7.7923703"><ele>0.0</ele><time>2026-05-01T01:20:53.025Z</time></trkpt><trkpt lat="43.6547794" lon="7.7924588"><ele>0.0</ele><time>2026-05-01T01:20:54.024Z</time></trkpt><trkpt lat="43.6548312" lon="7.7925513"><ele>0.0</ele><time>2026-05-01T01:20:55.024Z</time></trkpt><trkpt lat="43.6548833" lon="7.7926433"><ele>0.0</ele><time>2026-05-01T01:20:56.025Z</time></trkpt><trkpt lat="43.6549393" lon="7.7927361"><ele>0.0</ele><time>2026-05-01T01:20:57.024Z</time></trkpt><trkpt lat="43.6549898" lon="7.7928337"><ele>0.0</ele><time>2026-05-01T01:20:58.025Z</time></trkpt><trkpt lat="43.6550313" lon="7.7929265"><ele>0.0</ele><time>2026-05-01T01:20:59.024Z</time></trkpt><trkpt lat="43.6550782" lon="7.7930155"><ele>0.0</ele><time>2026-05-01T01:21:00.024Z</time></trkpt><trkpt lat="43.6551293" lon="7.793107"><ele>0.0</ele><time>2026-05-01T01:21:01.025Z</time></trkpt><trkpt lat="43.6551736" lon="7.7931983"><ele>0.0</ele><time>2026-05-01T01:21:02.025Z</time></trkpt><trkpt lat="43.6552187" lon="7.7932965"><ele>0.0</ele><time>2026-05-01T01:21:03.025Z</time></trkpt><trkpt lat="43.6552704" lon="7.7933934"><ele>0.0</ele><time>2026-05-01T01:21:04.024Z</time></trkpt><trkpt lat="43.6553638" lon="7.7935726"><ele>0.0</ele><time>2026-05-01T01:21:06.025Z</time></trkpt><trkpt lat="43.6554102" lon="7.7936609"><ele>0.0</ele><time>2026-05-01T01:21:07.025Z</time></trkpt><trkpt lat="43.6554607" lon="7.7937496"><ele>0.0</ele><time>2026-05-01T01:21:08.025Z</time></trkpt><trkpt lat="43.6555069" lon="7.7938395"><ele>0.0</ele><time>2026-05-01T01:21:09.025Z</time></trkpt><trkpt lat="43.6555536" lon="7.7939303"><ele>0.0</ele><time>2026-05-01T01:21:10.024Z</time></trkpt><trkpt lat="43.6556035" lon="7.7940159"><ele>0.0</ele><time>2026-05-01T01:21:11.025Z</time></trkpt><trkpt lat="43.6556445" lon="7.7941127"><ele>0.0</ele><time>2026-05-01T01:21:12.025Z</time></trkpt><trkpt lat="43.6556942" lon="7.794207"><ele>0.0</ele><time>2026-05-01T01:21:13.024Z</time></trkpt><trkpt lat="43.655736" lon="7.7943001"><ele>0.0</ele><time>2026-05-01T01:21:14.025Z</time></trkpt><trkpt lat="43.6557787" lon="7.7943909"><ele>0.0</ele><time>2026-05-01T01:21:15.024Z</time></trkpt><trkpt lat="43.6558204" lon="7.7944792"><ele>0.0</ele><time>2026-05-01T01:21:16.024Z</time></trkpt><trkpt lat="43.6558692" lon="7.7945691"><ele>0.0</ele><time>2026-05-01T01:21:17.024Z</time></trkpt><trkpt lat="43.6559251" lon="7.7946626"><ele>0.0</ele><time>2026-05-01T01:21:18.024Z</time></trkpt><trkpt lat="43.6559749" lon="7.794752"><ele>0.0</ele><time>2026-05-01T01:21:19.024Z</time></trkpt><trkpt lat="43.6560243" lon="7.7948388"><ele>0.0</ele><time>2026-05-01T01:21:20.025Z</time></trkpt><trkpt lat="43.6561237" lon="7.7950124"><ele>0.0</ele><time>2026-05-01T01:21:22.025Z</time></trkpt><trkpt lat="43.6561716" lon="7.7951042"><ele>0.0</ele><time>2026-05-01T01:21:23.024Z</time></trkpt><trkpt lat="43.6562243" lon="7.7951995"><ele>0.0</ele><time>2026-05-01T01:21:24.024Z</time></trkpt><trkpt lat="43.6562802" lon="7.7952914"><ele>0.0</ele><time>2026-05-01T01:21:25.025Z</time></trkpt><trkpt lat="43.6563833" lon="7.7954781"><ele>0.0</ele><time>2026-05-01T01:21:27.025Z</time></trkpt><trkpt lat="43.6564291" lon="7.7955672"><ele>0.0</ele><time>2026-05-01T01:21:28.024Z</time></trkpt><trkpt lat="43.6564754" lon="7.7956586"><ele>0.0</ele><time>2026-05-01T01:21:29.025Z</time></trkpt><trkpt lat="43.656522" lon="7.7957505"><ele>0.0</ele><time>2026-05-01T01:21:30.024Z</time></trkpt><trkpt lat="43.6565697" lon="7.7958422"><ele>0.0</ele><time>2026-05-01T01:21:31.025Z</time></trkpt><trkpt lat="43.6566155" lon="7.7959321"><ele>0.0</ele><time>2026-05-01T01:21:32.024Z</time></trkpt><trkpt lat="43.6566634" lon="7.7960235"><ele>0.0</ele><time>2026-05-01T01:21:33.024Z</time></trkpt><trkpt lat="43.6567061" lon="7.7961109"><ele>0.0</ele><time>2026-05-01T01:21:34.025Z</time></trkpt><trkpt lat="43.6567532" lon="7.7961943"><ele>0.0</ele><time>2026-05-01T01:21:35.024Z</time></trkpt><trkpt lat="43.6567985" lon="7.7962824"><ele>0.0</ele><time>2026-05-01T01:21:36.025Z</time></trkpt><trkpt lat="43.6568495" lon="7.7963706"><ele>0.0</ele><time>2026-05-01T01:21:37.024Z</time></trkpt><trkpt lat="43.6569042" lon="7.7964553"><ele>0.0</ele><time>2026-05-01T01:21:38.024Z</time></trkpt><trkpt lat="43.6569552" lon="7.7965429"><ele>0.0</ele><time>2026-05-01T01:21:39.025Z</time></trkpt><trkpt lat="43.6570083" lon="7.796631"><ele>0.0</ele><time>2026-05-01T01:21:40.025Z</time></trkpt><trkpt lat="43.6570615" lon="7.7967233"><ele>0.0</ele><time>2026-05-01T01:21:41.025Z</time></trkpt><trkpt lat="43.6571154" lon="7.796809"><ele>0.0</ele><time>2026-05-01T01:21:42.025Z</time></trkpt><trkpt lat="43.6571685" lon="7.7968987"><ele>0.0</ele><time>2026-05-01T01:21:43.025Z</time></trkpt><trkpt lat="43.657222" lon="7.7969896"><ele>0.0</ele><time>2026-05-01T01:21:44.024Z</time></trkpt><trkpt lat="43.6572719" lon="7.7970828"><ele>0.0</ele><time>2026-05-01T01:21:45.024Z</time></trkpt><trkpt lat="43.6573232" lon="7.7971764"><ele>0.0</ele><time>2026-05-01T01:21:46.025Z</time></trkpt><trkpt lat="43.6574303" lon="7.797359"><ele>0.0</ele><time>2026-05-01T01:21:48.024Z</time></trkpt><trkpt lat="43.657479" lon="7.7974503"><ele>0.0</ele><time>2026-05-01T01:21:49.025Z</time></trkpt><trkpt lat="43.6575246" lon="7.7975438"><ele>0.0</ele><time>2026-05-01T01:21:50.024Z</time></trkpt><trkpt lat="43.6575695" lon="7.7976411"><ele>0.0</ele><time>2026-05-01T01:21:51.024Z</time></trkpt><trkpt lat="43.6576133" lon="7.7977363"><ele>0.0</ele><time>2026-05-01T01:21:52.024Z</time></trkpt><trkpt lat="43.6576534" lon="7.7978267"><ele>0.0</ele><time>2026-05-01T01:21:53.025Z</time></trkpt><trkpt lat="43.6577385" lon="7.7980049"><ele>0.0</ele><time>2026-05-01T01:21:55.025Z</time></trkpt><trkpt lat="43.6577867" lon="7.7980952"><ele>0.0</ele><time>2026-05-01T01:21:56.024Z</time></trkpt><trkpt lat="43.6578364" lon="7.7981839"><ele>0.0</ele><time>2026-05-01T01:21:57.024Z</time></trkpt><trkpt lat="43.6578874" lon="7.7982756"><ele>0.0</ele><time>2026-05-01T01:21:58.024Z</time></trkpt><trkpt lat="43.6579404" lon="7.7983685"><ele>0.0</ele><time>2026-05-01T01:21:59.024Z</time></trkpt><trkpt lat="43.6579897" lon="7.7984619"><ele>0.0</ele><time>2026-05-01T01:22:00.025Z</time></trkpt><trkpt lat="43.658038" lon="7.7985596"><ele>0.0</ele><time>2026-05-01T01:22:01.025Z</time></trkpt><trkpt lat="43.6580867" lon="7.7986561"><ele>0.0</ele><time>2026-05-01T01:22:02.025Z</time></trkpt><trkpt lat="43.6581281" lon="7.7987546"><ele>0.0</ele><time>2026-05-01T01:22:03.025Z</time></trkpt><trkpt lat="43.6581764" lon="7.7988485"><ele>0.0</ele><time>2026-05-01T01:22:04.025Z</time></trkpt><trkpt lat="43.6582203" lon="7.7989418"><ele>0.0</ele><time>2026-05-01T01:22:05.024Z</time></trkpt><trkpt lat="43.6582665" lon="7.7990339"><ele>0.0</ele><time>2026-05-01T01:22:06.024Z</time></trkpt><trkpt lat="43.658312" lon="7.799131"><ele>0.0</ele><time>2026-05-01T01:22:07.025Z</time></trkpt><trkpt lat="43.6584123" lon="7.799318"><ele>0.0</ele><time>2026-05-01T01:22:09.024Z</time></trkpt><trkpt lat="43.6584655" lon="7.7994034"><ele>0.0</ele><time>2026-05-01T01:22:10.025Z</time></trkpt><trkpt lat="43.6585159" lon="7.7994921"><ele>0.0</ele><time>2026-05-01T01:22:11.024Z</time></trkpt><trkpt lat="43.6585649" lon="7.7995779"><ele>0.0</ele><time>2026-05-01T01:22:12.024Z</time></trkpt><trkpt lat="43.6586144" lon="7.7996756"><ele>0.0</ele><time>2026-05-01T01:22:13.024Z</time></trkpt><trkpt lat="43.6586643" lon="7.7997673"><ele>0.0</ele><time>2026-05-01T01:22:14.024Z</time></trkpt><trkpt lat="43.6587158" lon="7.7998585"><ele>0.0</ele><time>2026-05-01T01:22:15.024Z</time></trkpt><trkpt lat="43.6587747" lon="7.7999504"><ele>0.0</ele><time>2026-05-01T01:22:16.025Z</time></trkpt><trkpt lat="43.6588292" lon="7.8000437"><ele>0.0</ele><time>2026-05-01T01:22:17.024Z</time></trkpt><trkpt lat="43.6588798" lon="7.8001284"><ele>0.0</ele><time>2026-05-01T01:22:18.024Z</time></trkpt><trkpt lat="43.6589309" lon="7.8002174"><ele>0.0</ele><time>2026-05-01T01:22:19.024Z</time></trkpt><trkpt lat="43.6589798" lon="7.8003026"><ele>0.0</ele><time>2026-05-01T01:22:20.024Z</time></trkpt><trkpt lat="43.6590256" lon="7.800391"><ele>0.0</ele><time>2026-05-01T01:22:21.025Z</time></trkpt><trkpt lat="43.6590719" lon="7.8004835"><ele>0.0</ele><time>2026-05-01T01:22:22.025Z</time></trkpt><trkpt lat="43.6591144" lon="7.800568"><ele>0.0</ele><time>2026-05-01T01:22:23.025Z</time></trkpt><trkpt lat="43.6591646" lon="7.8006537"><ele>0.0</ele><time>2026-05-01T01:22:24.024Z</time></trkpt><trkpt lat="43.6592149" lon="7.8007473"><ele>0.0</ele><time>2026-05-01T01:22:25.024Z</time></trkpt><trkpt lat="43.6592625" lon="7.8008408"><ele>0.0</ele><time>2026-05-01T01:22:26.024Z</time></trkpt><trkpt lat="43.6593594" lon="7.8010218"><ele>0.0</ele><time>2026-05-01T01:22:28.025Z</time></trkpt><trkpt lat="43.6594524" lon="7.8012016"><ele>0.0</ele><time>2026-05-01T01:22:30.024Z</time></trkpt><trkpt lat="43.6595049" lon="7.801285"><ele>0.0</ele><time>2026-05-01T01:22:31.024Z</time></trkpt><trkpt lat="43.6595555" lon="7.8013752"><ele>0.0</ele><time>2026-05-01T01:22:32.024Z</time></trkpt><trkpt lat="43.6596041" lon="7.8014683"><ele>0.0</ele><time>2026-05-01T01:22:33.025Z</time></trkpt><trkpt lat="43.6596528" lon="7.8015587"><ele>0.0</ele><time>2026-05-01T01:22:34.024Z</time></trkpt><trkpt lat="43.6597015" lon="7.8016509"><ele>0.0</ele><time>2026-05-01T01:22:35.025Z</time></trkpt><trkpt lat="43.6597435" lon="7.8017404"><ele>0.0</ele><time>2026-05-01T01:22:36.024Z</time></trkpt><trkpt lat="43.6597869" lon="7.8018303"><ele>0.0</ele><time>2026-05-01T01:22:37.025Z</time></trkpt><trkpt lat="43.6598326" lon="7.8019222"><ele>0.0</ele><time>2026-05-01T01:22:38.024Z</time></trkpt><trkpt lat="43.6598809" lon="7.8020198"><ele>0.0</ele><time>2026-05-01T01:22:39.024Z</time></trkpt><trkpt lat="43.6599322" lon="7.802115"><ele>0.0</ele><time>2026-05-01T01:22:40.024Z</time></trkpt><trkpt lat="43.659988" lon="7.8022086"><ele>0.0</ele><time>2026-05-01T01:22:41.025Z</time></trkpt><trkpt lat="43.660039" lon="7.8023004"><ele>0.0</ele><time>2026-05-01T01:22:42.025Z</time></trkpt><trkpt lat="43.6600833" lon="7.802391"><ele>0.0</ele><time>2026-05-01T01:22:43.024Z</time></trkpt><trkpt lat="43.6601291" lon="7.8024837"><ele>0.0</ele><time>2026-05-01T01:22:44.024Z</time></trkpt><trkpt lat="43.6601769" lon="7.8025714"><ele>0.0</ele><time>2026-05-01T01:22:45.025Z</time></trkpt><trkpt lat="43.6602281" lon="7.8026628"><ele>0.0</ele><time>2026-05-01T01:22:46.024Z</time></trkpt><trkpt lat="43.6602809" lon="7.8027568"><ele>0.0</ele><time>2026-05-01T01:22:47.025Z</time></trkpt><trkpt lat="43.6603246" lon="7.8028519"><ele>0.0</ele><time>2026-05-01T01:22:48.025Z</time></trkpt><trkpt lat="43.6604126" lon="7.8030405"><ele>0.0</ele><time>2026-05-01T01:22:50.025Z</time></trkpt><trkpt lat="43.6604582" lon="7.8031367"><ele>0.0</ele><time>2026-05-01T01:22:51.025Z</time></trkpt><trkpt lat="43.6605088" lon="7.8032316"><ele>0.0</ele><time>2026-05-01T01:22:52.025Z</time></trkpt><trkpt lat="43.6605608" lon="7.8033241"><ele>0.0</ele><time>2026-05-01T01:22:53.025Z</time></trkpt><trkpt lat="43.6606124" lon="7.8034143"><ele>0.0</ele><time>2026-05-01T01:22:54.024Z</time></trkpt><trkpt lat="43.6606625" lon="7.8035088"><ele>0.0</ele><time>2026-05-01T01:22:55.024Z</time></trkpt><trkpt lat="43.6607082" lon="7.8036022"><ele>0.0</ele><time>2026-05-01T01:22:56.024Z</time></trkpt><trkpt lat="43.6607565" lon="7.8036924"><ele>0.0</ele><time>2026-05-01T01:22:57.025Z</time></trkpt><trkpt lat="43.6608063" lon="7.8037823"><ele>0.0</ele><time>2026-05-01T01:22:58.024Z</time></trkpt><trkpt lat="43.6609116" lon="7.8039746"><ele>0.0</ele><time>2026-05-01T01:23:00.024Z</time></trkpt><trkpt lat="43.6609585" lon="7.8040721"><ele>0.0</ele><time>2026-05-01T01:23:01.024Z</time></trkpt><trkpt lat="43.6610151" lon="7.8041675"><ele>0.0</ele><time>2026-05-01T01:23:02.024Z</time></trkpt><trkpt lat="43.6610659" lon="7.8042556"><ele>0.0</ele><time>2026-05-01T01:23:03.025Z</time></trkpt><trkpt lat="43.6611174" lon="7.8043488"><ele>0.0</ele><time>2026-05-01T01:23:04.024Z</time></trkpt><trkpt lat="43.661172" lon="7.8044451"><ele>0.0</ele><time>2026-05-01T01:23:05.025Z</time></trkpt><trkpt lat="43.661224" lon="7.8045387"><ele>0.0</ele><time>2026-05-01T01:23:06.025Z</time></trkpt><trkpt lat="43.6612761" lon="7.8046312"><ele>0.0</ele><time>2026-05-01T01:23:07.024Z</time></trkpt><trkpt lat="43.6613264" lon="7.8047187"><ele>0.0</ele><time>2026-05-01T01:23:08.024Z</time></trkpt><trkpt lat="43.6613793" lon="7.8048013"><ele>0.0</ele><time>2026-05-01T01:23:09.024Z</time></trkpt><trkpt lat="43.661477" lon="7.8049691"><ele>0.0</ele><time>2026-05-01T01:23:11.024Z</time></trkpt><trkpt lat="43.6615195" lon="7.8050528"><ele>0.0</ele><time>2026-05-01T01:23:12.025Z</time></trkpt><trkpt lat="43.6615642" lon="7.8051481"><ele>0.0</ele><time>2026-05-01T01:23:13.024Z</time></trkpt><trkpt lat="43.6616128" lon="7.8052388"><ele>0.0</ele><time>2026-05-01T01:23:14.025Z</time></trkpt><trkpt lat="43.661659" lon="7.8053235"><ele>0.0</ele><time>2026-05-01T01:23:15.025Z</time></trkpt><trkpt lat="43.6617015" lon="7.8054095"><ele>0.0</ele><time>2026-05-01T01:23:16.024Z</time></trkpt><trkpt lat="43.661749" lon="7.8055053"><ele>0.0</ele><time>2026-05-01T01:23:17.025Z</time></trkpt><trkpt lat="43.6617933" lon="7.8055999"><ele>0.0</ele><time>2026-05-01T01:23:18.025Z</time></trkpt><trkpt lat="43.661839" lon="7.8056938"><ele>0.0</ele><time>2026-05-01T01:23:19.024Z</time></trkpt><trkpt lat="43.6618833" lon="7.8057811"><ele>0.0</ele><time>2026-05-01T01:23:20.025Z</time></trkpt><trkpt lat="43.6619267" lon="7.8058763"><ele>0.0</ele><time>2026-05-01T01:23:21.024Z</time></trkpt><trkpt lat="43.6619655" lon="7.8059756"><ele>0.0</ele><time>2026-05-01T01:23:22.025Z</time></trkpt><trkpt lat="43.6620137" lon="7.8060757"><ele>0.0</ele><time>2026-05-01T01:23:23.024Z</time></trkpt><trkpt lat="43.6620609" lon="7.8061674"><ele>0.0</ele><time>2026-05-01T01:23:24.025Z</time></trkpt><trkpt lat="43.6621087" lon="7.8062602"><ele>0.0</ele><time>2026-05-01T01:23:25.024Z</time></trkpt><trkpt lat="43.6621589" lon="7.8063531"><ele>0.0</ele><time>2026-05-01T01:23:26.025Z</time></trkpt><trkpt lat="43.6622074" lon="7.8064484"><ele>0.0</ele><time>2026-05-01T01:23:27.024Z</time></trkpt><trkpt lat="43.6622498" lon="7.8065424"><ele>0.0</ele><time>2026-05-01T01:23:28.024Z</time></trkpt><trkpt lat="43.6622926" lon="7.8066342"><ele>0.0</ele><time>2026-05-01T01:23:29.024Z</time></trkpt><trkpt lat="43.6623421" lon="7.8067246"><ele>0.0</ele><time>2026-05-01T01:23:30.025Z</time></trkpt><trkpt lat="43.6623891" lon="7.8068104"><ele>0.0</ele><time>2026-05-01T01:23:31.024Z</time></trkpt><trkpt lat="43.662528" lon="7.8070857"><ele>0.0</ele><time>2026-05-01T01:23:34.025Z</time></trkpt><trkpt lat="43.6625771" lon="7.8071827"><ele>0.0</ele><time>2026-05-01T01:23:35.024Z</time></trkpt><trkpt lat="43.6626247" lon="7.8072799"><ele>0.0</ele><time>2026-05-01T01:23:36.024Z</time></trkpt><trkpt lat="43.6626741" lon="7.8073755"><ele>0.0</ele><time>2026-05-01T01:23:37.025Z</time></trkpt><trkpt lat="43.6627241" lon="7.8074703"><ele>0.0</ele><time>2026-05-01T01:23:38.024Z</time></trkpt><trkpt lat="43.6627739" lon="7.8075639"><ele>0.0</ele><time>2026-05-01T01:23:39.024Z</time></trkpt><trkpt lat="43.6628256" lon="7.8076502"><ele>0.0</ele><time>2026-05-01T01:23:40.024Z</time></trkpt><trkpt lat="43.6628772" lon="7.8077331"><ele>0.0</ele><time>2026-05-01T01:23:41.025Z</time></trkpt><trkpt lat="43.6629319" lon="7.8078189"><ele>0.0</ele><time>2026-05-01T01:23:42.024Z</time></trkpt><trkpt lat="43.6629883" lon="7.8079033"><ele>0.0</ele><time>2026-05-01T01:23:43.024Z</time></trkpt><trkpt lat="43.6630421" lon="7.8079864"><ele>0.0</ele><time>2026-05-01T01:23:44.025Z</time></trkpt><trkpt lat="43.6630943" lon="7.808074"><ele>0.0</ele><time>2026-05-01T01:23:45.024Z</time></trkpt><trkpt lat="43.6631505" lon="7.8081622"><ele>0.0</ele><time>2026-05-01T01:23:46.023Z</time></trkpt><trkpt lat="43.6632014" lon="7.8082551"><ele>0.0</ele><time>2026-05-01T01:23:47.024Z</time></trkpt><trkpt lat="43.6632527" lon="7.8083457"><ele>0.0</ele><time>2026-05-01T01:23:48.023Z</time></trkpt><trkpt lat="43.6633001" lon="7.8084401"><ele>0.0</ele><time>2026-05-01T01:23:49.023Z</time></trkpt><trkpt lat="43.6633452" lon="7.8085365"><ele>0.0</ele><time>2026-05-01T01:23:50.024Z</time></trkpt><trkpt lat="43.6633958" lon="7.8086277"><ele>0.0</ele><time>2026-05-01T01:23:51.024Z</time></trkpt><trkpt lat="43.663442" lon="7.8087119"><ele>0.0</ele><time>2026-05-01T01:23:52.024Z</time></trkpt><trkpt lat="43.6634858" lon="7.8087948"><ele>0.0</ele><time>2026-05-01T01:23:53.023Z</time></trkpt><trkpt lat="43.6635836" lon="7.8089751"><ele>0.0</ele><time>2026-05-01T01:23:55.023Z</time></trkpt><trkpt lat="43.6636277" lon="7.8090672"><ele>0.0</ele><time>2026-05-01T01:23:56.024Z</time></trkpt><trkpt lat="43.6636754" lon="7.809157"><ele>0.0</ele><time>2026-05-01T01:23:57.024Z</time></trkpt><trkpt lat="43.6637237" lon="7.8092453"><ele>0.0</ele><time>2026-05-01T01:23:58.024Z</time></trkpt><trkpt lat="43.6637761" lon="7.8093365"><ele>0.0</ele><time>2026-05-01T01:23:59.023Z</time></trkpt><trkpt lat="43.6638292" lon="7.8094247"><ele>0.0</ele><time>2026-05-01T01:24:00.023Z</time></trkpt><trkpt lat="43.6638831" lon="7.8095159"><ele>0.0</ele><time>2026-05-01T01:24:01.023Z</time></trkpt><trkpt lat="43.6639365" lon="7.8096037"><ele>0.0</ele><time>2026-05-01T01:24:02.023Z</time></trkpt><trkpt lat="43.6639839" lon="7.8096937"><ele>0.0</ele><time>2026-05-01T01:24:03.024Z</time></trkpt><trkpt lat="43.6640392" lon="7.8097787"><ele>0.0</ele><time>2026-05-01T01:24:04.023Z</time></trkpt><trkpt lat="43.6641414" lon="7.8099584"><ele>0.0</ele><time>2026-05-01T01:24:06.024Z</time></trkpt><trkpt lat="43.664192" lon="7.8100517"><ele>0.0</ele><time>2026-05-01T01:24:07.024Z</time></trkpt><trkpt lat="43.6642345" lon="7.8101336"><ele>0.0</ele><time>2026-05-01T01:24:08.023Z</time></trkpt><trkpt lat="43.664276" lon="7.8102148"><ele>0.0</ele><time>2026-05-01T01:24:09.024Z</time></trkpt><trkpt lat="43.6643177" lon="7.8102951"><ele>0.0</ele><time>2026-05-01T01:24:10.023Z</time></trkpt><trkpt lat="43.6643608" lon="7.8103781"><ele>0.0</ele><time>2026-05-01T01:24:11.024Z</time></trkpt><trkpt lat="43.6644061" lon="7.8104698"><ele>0.0</ele><time>2026-05-01T01:24:12.024Z</time></trkpt><trkpt lat="43.6644579" lon="7.8105596"><ele>0.0</ele><time>2026-05-01T01:24:13.023Z</time></trkpt><trkpt lat="43.6645034" lon="7.8106548"><ele>0.0</ele><time>2026-05-01T01:24:14.024Z</time></trkpt><trkpt lat="43.6645947" lon="7.8108433"><ele>0.0</ele><time>2026-05-01T01:24:16.024Z</time></trkpt><trkpt lat="43.664639" lon="7.8109325"><ele>0.0</ele><time>2026-05-01T01:24:17.023Z</time></trkpt><trkpt lat="43.6646925" lon="7.8110233"><ele>0.0</ele><time>2026-05-01T01:24:18.023Z</time></trkpt><trkpt lat="43.6647479" lon="7.8111135"><ele>0.0</ele><time>2026-05-01T01:24:19.023Z</time></trkpt><trkpt lat="43.664797" lon="7.8112105"><ele>0.0</ele><time>2026-05-01T01:24:20.023Z</time></trkpt><trkpt lat="43.6648426" lon="7.811309"><ele>0.0</ele><time>2026-05-01T01:24:21.024Z</time></trkpt><trkpt lat="43.6648875" lon="7.811399"><ele>0.0</ele><time>2026-05-01T01:24:22.023Z</time></trkpt><trkpt lat="43.6649353" lon="7.8114918"><ele>0.0</ele><time>2026-05-01T01:24:23.024Z</time></trkpt><trkpt lat="43.6649778" lon="7.8115887"><ele>0.0</ele><time>2026-05-01T01:24:24.023Z</time></trkpt><trkpt lat="43.6650236" lon="7.8116831"><ele>0.0</ele><time>2026-05-01T01:24:25.024Z</time></trkpt><trkpt lat="43.6650759" lon="7.8117693"><ele>0.0</ele><time>2026-05-01T01:24:26.023Z</time></trkpt><trkpt lat="43.665128" lon="7.8118555"><ele>0.0</ele><time>2026-05-01T01:24:27.023Z</time></trkpt><trkpt lat="43.6651766" lon="7.8119434"><ele>0.0</ele><time>2026-05-01T01:24:28.023Z</time></trkpt><trkpt lat="43.6652252" lon="7.8120391"><ele>0.0</ele><time>2026-05-01T01:24:29.023Z</time></trkpt><trkpt lat="43.6652735" lon="7.812129"><ele>0.0</ele><time>2026-05-01T01:24:30.023Z</time></trkpt><trkpt lat="43.6653234" lon="7.812216"><ele>0.0</ele><time>2026-05-01T01:24:31.023Z</time></trkpt><trkpt lat="43.665371" lon="7.8123072"><ele>0.0</ele><time>2026-05-01T01:24:32.023Z</time></trkpt><trkpt lat="43.6654155" lon="7.8123925"><ele>0.0</ele><time>2026-05-01T01:24:33.023Z</time></trkpt><trkpt lat="43.6654621" lon="7.8124752"><ele>0.0</ele><time>2026-05-01T01:24:34.023Z</time></trkpt><trkpt lat="43.6655118" lon="7.8125596"><ele>0.0</ele><time>2026-05-01T01:24:35.023Z</time></trkpt><trkpt lat="43.6656087" lon="7.8127444"><ele>0.0</ele><time>2026-05-01T01:24:37.023Z</time></trkpt><trkpt lat="43.6657097" lon="7.8129149"><ele>0.0</ele><time>2026-05-01T01:24:39.024Z</time></trkpt><trkpt lat="43.6657627" lon="7.8130018"><ele>0.0</ele><time>2026-05-01T01:24:40.023Z</time></trkpt><trkpt lat="43.6658131" lon="7.8130914"><ele>0.0</ele><time>2026-05-01T01:24:41.024Z</time></trkpt><trkpt lat="43.6658677" lon="7.8131798"><ele>0.0</ele><time>2026-05-01T01:24:42.023Z</time></trkpt><trkpt lat="43.6659213" lon="7.8132686"><ele>0.0</ele><time>2026-05-01T01:24:43.023Z</time></trkpt><trkpt lat="43.665977" lon="7.8133611"><ele>0.0</ele><time>2026-05-01T01:24:44.023Z</time></trkpt><trkpt lat="43.6660257" lon="7.8134582"><ele>0.0</ele><time>2026-05-01T01:24:45.023Z</time></trkpt><trkpt lat="43.666074" lon="7.8135481"><ele>0.0</ele><time>2026-05-01T01:24:46.024Z</time></trkpt><trkpt lat="43.6661277" lon="7.8136396"><ele>0.0</ele><time>2026-05-01T01:24:47.024Z</time></trkpt><trkpt lat="43.6661782" lon="7.8137251"><ele>0.0</ele><time>2026-05-01T01:24:48.023Z</time></trkpt><trkpt lat="43.6662291" lon="7.8138132"><ele>0.0</ele><time>2026-05-01T01:24:49.023Z</time></trkpt><trkpt lat="43.6662814" lon="7.813906"><ele>0.0</ele><time>2026-05-01T01:24:50.023Z</time></trkpt><trkpt lat="43.6663313" lon="7.8140005"><ele>0.0</ele><time>2026-05-01T01:24:51.024Z</time></trkpt><trkpt lat="43.6663777" lon="7.8140961"><ele>0.0</ele><time>2026-05-01T01:24:52.023Z</time></trkpt><trkpt lat="43.6664272" lon="7.8141925"><ele>0.0</ele><time>2026-05-01T01:24:53.024Z</time></trkpt><trkpt lat="43.6664756" lon="7.8142914"><ele>0.0</ele><time>2026-05-01T01:24:54.024Z</time></trkpt><trkpt lat="43.666525" lon="7.8143844"><ele>0.0</ele><time>2026-05-01T01:24:55.024Z</time></trkpt><trkpt lat="43.666574" lon="7.8144777"><ele>0.0</ele><time>2026-05-01T01:24:56.023Z</time></trkpt><trkpt lat="43.666671" lon="7.8146602"><ele>0.0</ele><time>2026-05-01T01:24:58.024Z</time></trkpt><trkpt lat="43.666719" lon="7.8147437"><ele>0.0</ele><time>2026-05-01T01:24:59.023Z</time></trkpt><trkpt lat="43.6667671" lon="7.8148328"><ele>0.0</ele><time>2026-05-01T01:25:00.024Z</time></trkpt><trkpt lat="43.6668112" lon="7.8149259"><ele>0.0</ele><time>2026-05-01T01:25:01.023Z</time></trkpt><trkpt lat="43.6668577" lon="7.8150178"><ele>0.0</ele><time>2026-05-01T01:25:02.024Z</time></trkpt><trkpt lat="43.6669143" lon="7.8151111"><ele>0.0</ele><time>2026-05-01T01:25:03.023Z</time></trkpt><trkpt lat="43.666967" lon="7.8152001"><ele>0.0</ele><time>2026-05-01T01:25:04.023Z</time></trkpt><trkpt lat="43.6670129" lon="7.8152927"><ele>0.0</ele><time>2026-05-01T01:25:05.023Z</time></trkpt><trkpt lat="43.6670577" lon="7.8153854"><ele>0.0</ele><time>2026-05-01T01:25:06.024Z</time></trkpt><trkpt lat="43.6671055" lon="7.8154792"><ele>0.0</ele><time>2026-05-01T01:25:07.024Z</time></trkpt><trkpt lat="43.6671538" lon="7.8155713"><ele>0.0</ele><time>2026-05-01T01:25:08.024Z</time></trkpt><trkpt lat="43.6672077" lon="7.815663"><ele>0.0</ele><time>2026-05-01T01:25:09.024Z</time></trkpt><trkpt lat="43.6672642" lon="7.8157615"><ele>0.0</ele><time>2026-05-01T01:25:10.024Z</time></trkpt><trkpt lat="43.6673681" lon="7.8159494"><ele>0.0</ele><time>2026-05-01T01:25:12.023Z</time></trkpt><trkpt lat="43.6674154" lon="7.8160406"><ele>0.0</ele><time>2026-05-01T01:25:13.024Z</time></trkpt><trkpt lat="43.6674652" lon="7.8161314"><ele>0.0</ele><time>2026-05-01T01:25:14.023Z</time></trkpt><trkpt lat="43.6675121" lon="7.8162222"><ele>0.0</ele><time>2026-05-01T01:25:15.024Z</time></trkpt><trkpt lat="43.6675577" lon="7.8163128"><ele>0.0</ele><time>2026-05-01T01:25:16.023Z</time></trkpt><trkpt lat="43.6676023" lon="7.8164075"><ele>0.0</ele><time>2026-05-01T01:25:17.023Z</time></trkpt><trkpt lat="43.6676864" lon="7.8165945"><ele>0.0</ele><time>2026-05-01T01:25:19.024Z</time></trkpt><trkpt lat="43.667733" lon="7.8166881"><ele>0.0</ele><time>2026-05-01T01:25:20.024Z</time></trkpt><trkpt lat="43.6677815" lon="7.8167829"><ele>0.0</ele><time>2026-05-01T01:25:21.024Z</time></trkpt><trkpt lat="43.6678272" lon="7.8168793"><ele>0.0</ele><time>2026-05-01T01:25:22.024Z</time></trkpt><trkpt lat="43.6678749" lon="7.8169792"><ele>0.0</ele><time>2026-05-01T01:25:23.023Z</time></trkpt><trkpt lat="43.6679236" lon="7.817066"><ele>0.0</ele><time>2026-05-01T01:25:24.023Z</time></trkpt><trkpt lat="43.667972" lon="7.8171507"><ele>0.0</ele><time>2026-05-01T01:25:25.023Z</time></trkpt><trkpt lat="43.66802" lon="7.8172384"><ele>0.0</ele><time>2026-05-01T01:25:26.024Z</time></trkpt><trkpt lat="43.6680767" lon="7.8173252"><ele>0.0</ele><time>2026-05-01T01:25:27.023Z</time></trkpt><trkpt lat="43.6681266" lon="7.817417"><ele>0.0</ele><time>2026-05-01T01:25:28.023Z</time></trkpt><trkpt lat="43.6681836" lon="7.8175125"><ele>0.0</ele><time>2026-05-01T01:25:29.024Z</time></trkpt><trkpt lat="43.6682289" lon="7.8176054"><ele>0.0</ele><time>2026-05-01T01:25:30.023Z</time></trkpt><trkpt lat="43.6682752" lon="7.8176983"><ele>0.0</ele><time>2026-05-01T01:25:31.024Z</time></trkpt><trkpt lat="43.6683231" lon="7.81779"><ele>0.0</ele><time>2026-05-01T01:25:32.024Z</time></trkpt><trkpt lat="43.6683714" lon="7.8178873"><ele>0.0</ele><time>2026-05-01T01:25:33.023Z</time></trkpt><trkpt lat="43.668414" lon="7.817985"><ele>0.0</ele><time>2026-05-01T01:25:34.023Z</time></trkpt><trkpt lat="43.6684632" lon="7.818081"><ele>0.0</ele><time>2026-05-01T01:25:35.023Z</time></trkpt><trkpt lat="43.6685073" lon="7.818166"><ele>0.0</ele><time>2026-05-01T01:25:36.024Z</time></trkpt><trkpt lat="43.6685533" lon="7.8182615"><ele>0.0</ele><time>2026-05-01T01:25:37.024Z</time></trkpt><trkpt lat="43.6685985" lon="7.8183514"><ele>0.0</ele><time>2026-05-01T01:25:38.023Z</time></trkpt><trkpt lat="43.6686887" lon="7.8185319"><ele>0.0</ele><time>2026-05-01T01:25:40.024Z</time></trkpt><trkpt lat="43.6687345" lon="7.818612"><ele>0.0</ele><time>2026-05-01T01:25:41.024Z</time></trkpt><trkpt lat="43.6687829" lon="7.8186963"><ele>0.0</ele><time>2026-05-01T01:25:42.023Z</time></trkpt><trkpt lat="43.6688886" lon="7.8188784"><ele>0.0</ele><time>2026-05-01T01:25:44.023Z</time></trkpt><trkpt lat="43.6689422" lon="7.8189759"><ele>0.0</ele><time>2026-05-01T01:25:45.024Z</time></trkpt><trkpt lat="43.6689929" lon="7.8190665"><ele>0.0</ele><time>2026-05-01T01:25:46.023Z</time></trkpt><trkpt lat="43.6690418" lon="7.8191658"><ele>0.0</ele><time>2026-05-01T01:25:47.023Z</time></trkpt><trkpt lat="43.6690841" lon="7.8192527"><ele>0.0</ele><time>2026-05-01T01:25:48.023Z</time></trkpt><trkpt lat="43.6691314" lon="7.8193381"><ele>0.0</ele><time>2026-05-01T01:25:49.024Z</time></trkpt><trkpt lat="43.6691767" lon="7.8194296"><ele>0.0</ele><time>2026-05-01T01:25:50.024Z</time></trkpt><trkpt lat="43.6692218" lon="7.8195133"><ele>0.0</ele><time>2026-05-01T01:25:51.023Z</time></trkpt><trkpt lat="43.6692657" lon="7.8196002"><ele>0.0</ele><time>2026-05-01T01:25:52.023Z</time></trkpt><trkpt lat="43.6693132" lon="7.8196933"><ele>0.0</ele><time>2026-05-01T01:25:53.024Z</time></trkpt><trkpt lat="43.6693602" lon="7.8197836"><ele>0.0</ele><time>2026-05-01T01:25:54.023Z</time></trkpt><trkpt lat="43.6694055" lon="7.8198712"><ele>0.0</ele><time>2026-05-01T01:25:55.023Z</time></trkpt><trkpt lat="43.6694504" lon="7.8199606"><ele>0.0</ele><time>2026-05-01T01:25:56.023Z</time></trkpt><trkpt lat="43.6694971" lon="7.8200529"><ele>0.0</ele><time>2026-05-01T01:25:57.023Z</time></trkpt><trkpt lat="43.6695467" lon="7.8201519"><ele>0.0</ele><time>2026-05-01T01:25:58.024Z</time></trkpt><trkpt lat="43.6695951" lon="7.8202487"><ele>0.0</ele><time>2026-05-01T01:25:59.024Z</time></trkpt><trkpt lat="43.6696934" lon="7.8204333"><ele>0.0</ele><time>2026-05-01T01:26:01.024Z</time></trkpt><trkpt lat="43.669743" lon="7.8205264"><ele>0.0</ele><time>2026-05-01T01:26:02.024Z</time></trkpt><trkpt lat="43.6697935" lon="7.8206196"><ele>0.0</ele><time>2026-05-01T01:26:03.023Z</time></trkpt><trkpt lat="43.6698446" lon="7.820716"><ele>0.0</ele><time>2026-05-01T01:26:04.023Z</time></trkpt><trkpt lat="43.6698967" lon="7.8208098"><ele>0.0</ele><time>2026-05-01T01:26:05.023Z</time></trkpt><trkpt lat="43.6699493" lon="7.8208976"><ele>0.0</ele><time>2026-05-01T01:26:06.023Z</time></trkpt><trkpt lat="43.6699996" lon="7.8209883"><ele>0.0</ele><time>2026-05-01T01:26:07.023Z</time></trkpt><trkpt lat="43.6700483" lon="7.8210858"><ele>0.0</ele><time>2026-05-01T01:26:08.023Z</time></trkpt><trkpt lat="43.6700996" lon="7.8211799"><ele>0.0</ele><time>2026-05-01T01:26:09.023Z</time></trkpt><trkpt lat="43.6701497" lon="7.8212717"><ele>0.0</ele><time>2026-05-01T01:26:10.023Z</time></trkpt><trkpt lat="43.6701957" lon="7.8213586"><ele>0.0</ele><time>2026-05-01T01:26:11.024Z</time></trkpt><trkpt lat="43.670242" lon="7.8214485"><ele>0.0</ele><time>2026-05-01T01:26:12.024Z</time></trkpt><trkpt lat="43.6702973" lon="7.8215353"><ele>0.0</ele><time>2026-05-01T01:26:13.024Z</time></trkpt><trkpt lat="43.6703513" lon="7.8216254"><ele>0.0</ele><time>2026-05-01T01:26:14.024Z</time></trkpt><trkpt lat="43.6703988" lon="7.8217097"><ele>0.0</ele><time>2026-05-01T01:26:15.023Z</time></trkpt><trkpt lat="43.6705058" lon="7.8218703"><ele>0.0</ele><time>2026-05-01T01:26:17.023Z</time></trkpt><trkpt lat="43.6705539" lon="7.8219545"><ele>0.0</ele><time>2026-05-01T01:26:18.023Z</time></trkpt><trkpt lat="43.6705934" lon="7.8220449"><ele>0.0</ele><time>2026-05-01T01:26:19.023Z</time></trkpt><trkpt lat="43.6706458" lon="7.8221463"><ele>0.0</ele><time>2026-05-01T01:26:20.024Z</time></trkpt><trkpt lat="43.6707434" lon="7.8223274"><ele>0.0</ele><time>2026-05-01T01:26:22.023Z</time></trkpt><trkpt lat="43.6707917" lon="7.8224156"><ele>0.0</ele><time>2026-05-01T01:26:23.024Z</time></trkpt><trkpt lat="43.6708404" lon="7.8225042"><ele>0.0</ele><time>2026-05-01T01:26:24.024Z</time></trkpt><trkpt lat="43.6708943" lon="7.8225928"><ele>0.0</ele><time>2026-05-01T01:26:25.024Z</time></trkpt><trkpt lat="43.6709478" lon="7.8226805"><ele>0.0</ele><time>2026-05-01T01:26:26.023Z</time></trkpt><trkpt lat="43.6709997" lon="7.8227718"><ele>0.0</ele><time>2026-05-01T01:26:27.024Z</time></trkpt><trkpt lat="43.6710414" lon="7.8228692"><ele>0.0</ele><time>2026-05-01T01:26:28.024Z</time></trkpt><trkpt lat="43.671083" lon="7.822959"><ele>0.0</ele><time>2026-05-01T01:26:29.023Z</time></trkpt><trkpt lat="43.6711228" lon="7.8230574"><ele>0.0</ele><time>2026-05-01T01:26:30.024Z</time></trkpt><trkpt lat="43.6711695" lon="7.8231515"><ele>0.0</ele><time>2026-05-01T01:26:31.023Z</time></trkpt><trkpt lat="43.6712149" lon="7.8232491"><ele>0.0</ele><time>2026-05-01T01:26:32.023Z</time></trkpt><trkpt lat="43.6712598" lon="7.8233461"><ele>0.0</ele><time>2026-05-01T01:26:33.024Z</time></trkpt><trkpt lat="43.6713094" lon="7.8234339"><ele>0.0</ele><time>2026-05-01T01:26:34.023Z</time></trkpt><trkpt lat="43.6713523" lon="7.8235223"><ele>0.0</ele><time>2026-05-01T01:26:35.024Z</time></trkpt><trkpt lat="43.6714028" lon="7.8236166"><ele>0.0</ele><time>2026-05-01T01:26:36.024Z</time></trkpt><trkpt lat="43.6714556" lon="7.8237112"><ele>0.0</ele><time>2026-05-01T01:26:37.023Z</time></trkpt><trkpt lat="43.6715032" lon="7.8238077"><ele>0.0</ele><time>2026-05-01T01:26:38.023Z</time></trkpt><trkpt lat="43.6715529" lon="7.8238903"><ele>0.0</ele><time>2026-05-01T01:26:39.023Z</time></trkpt><trkpt lat="43.6716072" lon="7.823963"><ele>0.0</ele><time>2026-05-01T01:26:40.024Z</time></trkpt><trkpt lat="43.6716596" lon="7.8240504"><ele>0.0</ele><time>2026-05-01T01:26:41.023Z</time></trkpt><trkpt lat="43.6717625" lon="7.8242357"><ele>0.0</ele><time>2026-05-01T01:26:43.024Z</time></trkpt><trkpt lat="43.6718102" lon="7.8243297"><ele>0.0</ele><time>2026-05-01T01:26:44.023Z</time></trkpt><trkpt lat="43.6718636" lon="7.8244187"><ele>0.0</ele><time>2026-05-01T01:26:45.024Z</time></trkpt><trkpt lat="43.6719127" lon="7.8245103"><ele>0.0</ele><time>2026-05-01T01:26:46.024Z</time></trkpt><trkpt lat="43.6719582" lon="7.8246032"><ele>0.0</ele><time>2026-05-01T01:26:47.024Z</time></trkpt><trkpt lat="43.6720062" lon="7.8246885"><ele>0.0</ele><time>2026-05-01T01:26:48.023Z</time></trkpt><trkpt lat="43.6720965" lon="7.8248753"><ele>0.0</ele><time>2026-05-01T01:26:50.024Z</time></trkpt><trkpt lat="43.6721441" lon="7.824978"><ele>0.0</ele><time>2026-05-01T01:26:51.024Z</time></trkpt><trkpt lat="43.6721906" lon="7.8250785"><ele>0.0</ele><time>2026-05-01T01:26:52.024Z</time></trkpt><trkpt lat="43.6722382" lon="7.8251743"><ele>0.0</ele><time>2026-05-01T01:26:53.023Z</time></trkpt><trkpt lat="43.6722877" lon="7.8252698"><ele>0.0</ele><time>2026-05-01T01:26:54.024Z</time></trkpt><trkpt lat="43.6723351" lon="7.8253677"><ele>0.0</ele><time>2026-05-01T01:26:55.024Z</time></trkpt><trkpt lat="43.6723809" lon="7.8254597"><ele>0.0</ele><time>2026-05-01T01:26:56.024Z</time></trkpt><trkpt lat="43.6724284" lon="7.8255577"><ele>0.0</ele><time>2026-05-01T01:26:57.024Z</time></trkpt><trkpt lat="43.6724776" lon="7.8256527"><ele>0.0</ele><time>2026-05-01T01:26:58.023Z</time></trkpt><trkpt lat="43.6725292" lon="7.8257503"><ele>0.0</ele><time>2026-05-01T01:26:59.023Z</time></trkpt><trkpt lat="43.6725773" lon="7.825851"><ele>0.0</ele><time>2026-05-01T01:27:00.023Z</time></trkpt><trkpt lat="43.6726269" lon="7.8259429"><ele>0.0</ele><time>2026-05-01T01:27:01.024Z</time></trkpt><trkpt lat="43.6726742" lon="7.8260392"><ele>0.0</ele><time>2026-05-01T01:27:02.023Z</time></trkpt><trkpt lat="43.6727783" lon="7.8262183"><ele>0.0</ele><time>2026-05-01T01:27:04.023Z</time></trkpt><trkpt lat="43.672826" lon="7.8263079"><ele>0.0</ele><time>2026-05-01T01:27:05.024Z</time></trkpt><trkpt lat="43.672874" lon="7.8263967"><ele>0.0</ele><time>2026-05-01T01:27:06.023Z</time></trkpt><trkpt lat="43.6729222" lon="7.8264863"><ele>0.0</ele><time>2026-05-01T01:27:07.024Z</time></trkpt><trkpt lat="43.6729761" lon="7.8265778"><ele>0.0</ele><time>2026-05-01T01:27:08.024Z</time></trkpt><trkpt lat="43.6730266" lon="7.8266637"><ele>0.0</ele><time>2026-05-01T01:27:09.024Z</time></trkpt><trkpt lat="43.6730742" lon="7.8267605"><ele>0.0</ele><time>2026-05-01T01:27:10.024Z</time></trkpt><trkpt lat="43.6731233" lon="7.8268548"><ele>0.0</ele><time>2026-05-01T01:27:11.024Z</time></trkpt><trkpt lat="43.6731703" lon="7.8269486"><ele>0.0</ele><time>2026-05-01T01:27:12.024Z</time></trkpt><trkpt lat="43.6732139" lon="7.8270459"><ele>0.0</ele><time>2026-05-01T01:27:13.023Z</time></trkpt><trkpt lat="43.6732559" lon="7.8271403"><ele>0.0</ele><time>2026-05-01T01:27:14.023Z</time></trkpt><trkpt lat="43.6732973" lon="7.8272345"><ele>0.0</ele><time>2026-05-01T01:27:15.023Z</time></trkpt><trkpt lat="43.6733423" lon="7.8273238"><ele>0.0</ele><time>2026-05-01T01:27:16.024Z</time></trkpt><trkpt lat="43.6733842" lon="7.8274166"><ele>0.0</ele><time>2026-05-01T01:27:17.024Z</time></trkpt><trkpt lat="43.6734329" lon="7.8275126"><ele>0.0</ele><time>2026-05-01T01:27:18.024Z</time></trkpt><trkpt lat="43.6734789" lon="7.8276066"><ele>0.0</ele><time>2026-05-01T01:27:19.024Z</time></trkpt><trkpt lat="43.6735214" lon="7.8277068"><ele>0.0</ele><time>2026-05-01T01:27:20.023Z</time></trkpt><trkpt lat="43.6735713" lon="7.8278058"><ele>0.0</ele><time>2026-05-01T01:27:21.024Z</time></trkpt><trkpt lat="43.6736741" lon="7.8279811"><ele>0.0</ele><time>2026-05-01T01:27:23.023Z</time></trkpt><trkpt lat="43.6737652" lon="7.8281616"><ele>0.0</ele><time>2026-05-01T01:27:25.024Z</time></trkpt><trkpt lat="43.6738103" lon="7.828253"><ele>0.0</ele><time>2026-05-01T01:27:26.023Z</time></trkpt><trkpt lat="43.6738541" lon="7.8283492"><ele>0.0</ele><time>2026-05-01T01:27:27.023Z</time></trkpt><trkpt lat="43.673903" lon="7.8284403"><ele>0.0</ele><time>2026-05-01T01:27:28.024Z</time></trkpt><trkpt lat="43.6739533" lon="7.8285244"><ele>0.0</ele><time>2026-05-01T01:27:29.023Z</time></trkpt><trkpt lat="43.6740031" lon="7.828611"><ele>0.0</ele><time>2026-05-01T01:27:30.024Z</time></trkpt><trkpt lat="43.6740488" lon="7.8286985"><ele>0.0</ele><time>2026-05-01T01:27:31.024Z</time></trkpt><trkpt lat="43.6740937" lon="7.8287916"><ele>0.0</ele><time>2026-05-01T01:27:32.023Z</time></trkpt><trkpt lat="43.6741402" lon="7.8288907"><ele>0.0</ele><time>2026-05-01T01:27:33.023Z</time></trkpt><trkpt lat="43.674187" lon="7.8289889"><ele>0.0</ele><time>2026-05-01T01:27:34.024Z</time></trkpt><trkpt lat="43.6742393" lon="7.8290859"><ele>0.0</ele><time>2026-05-01T01:27:35.023Z</time></trkpt><trkpt lat="43.6742923" lon="7.8291713"><ele>0.0</ele><time>2026-05-01T01:27:36.024Z</time></trkpt><trkpt lat="43.6743444" lon="7.8292625"><ele>0.0</ele><time>2026-05-01T01:27:37.023Z</time></trkpt><trkpt lat="43.6743977" lon="7.8293506"><ele>0.0</ele><time>2026-05-01T01:27:38.023Z</time></trkpt><trkpt lat="43.6744424" lon="7.829439"><ele>0.0</ele><time>2026-05-01T01:27:39.024Z</time></trkpt><trkpt lat="43.6744913" lon="7.8295287"><ele>0.0</ele><time>2026-05-01T01:27:40.023Z</time></trkpt><trkpt lat="43.6745441" lon="7.8296157"><ele>0.0</ele><time>2026-05-01T01:27:41.023Z</time></trkpt><trkpt lat="43.6745936" lon="7.8297075"><ele>0.0</ele><time>2026-05-01T01:27:42.023Z</time></trkpt><trkpt lat="43.6746408" lon="7.8297999"><ele>0.0</ele><time>2026-05-01T01:27:43.023Z</time></trkpt><trkpt lat="43.6746925" lon="7.8298862"><ele>0.0</ele><time>2026-05-01T01:27:44.024Z</time></trkpt><trkpt lat="43.6747947" lon="7.8300622"><ele>0.0</ele><time>2026-05-01T01:27:46.024Z</time></trkpt><trkpt lat="43.6748449" lon="7.8301505"><ele>0.0</ele><time>2026-05-01T01:27:47.023Z</time></trkpt><trkpt lat="43.6748962" lon="7.8302399"><ele>0.0</ele><time>2026-05-01T01:27:48.023Z</time></trkpt><trkpt lat="43.6749507" lon="7.8303343"><ele>0.0</ele><time>2026-05-01T01:27:49.024Z</time></trkpt><trkpt lat="43.6750005" lon="7.8304323"><ele>0.0</ele><time>2026-05-01T01:27:50.024Z</time></trkpt><trkpt lat="43.6750561" lon="7.8305184"><ele>0.0</ele><time>2026-05-01T01:27:51.024Z</time></trkpt><trkpt lat="43.6751073" lon="7.8306069"><ele>0.0</ele><time>2026-05-01T01:27:52.024Z</time></trkpt><trkpt lat="43.6751557" lon="7.8306989"><ele>0.0</ele><time>2026-05-01T01:27:53.023Z</time></trkpt><trkpt lat="43.6751987" lon="7.830792"><ele>0.0</ele><time>2026-05-01T01:27:54.023Z</time></trkpt><trkpt lat="43.6752433" lon="7.8308871"><ele>0.0</ele><time>2026-05-01T01:27:55.023Z</time></trkpt><trkpt lat="43.6752922" lon="7.8309793"><ele>0.0</ele><time>2026-05-01T01:27:56.023Z</time></trkpt><trkpt lat="43.6753381" lon="7.8310682"><ele>0.0</ele><time>2026-05-01T01:27:57.023Z</time></trkpt><trkpt lat="43.6753846" lon="7.8311576"><ele>0.0</ele><time>2026-05-01T01:27:58.024Z</time></trkpt><trkpt lat="43.6754313" lon="7.831249"><ele>0.0</ele><time>2026-05-01T01:27:59.023Z</time></trkpt><trkpt lat="43.675474" lon="7.8313381"><ele>0.0</ele><time>2026-05-01T01:28:00.024Z</time></trkpt><trkpt lat="43.6755213" lon="7.8314283"><ele>0.0</ele><time>2026-05-01T01:28:01.023Z</time></trkpt><trkpt lat="43.6755661" lon="7.8315164"><ele>0.0</ele><time>2026-05-01T01:28:02.024Z</time></trkpt><trkpt lat="43.675614" lon="7.8316135"><ele>0.0</ele><time>2026-05-01T01:28:03.024Z</time></trkpt><trkpt lat="43.6756665" lon="7.8317106"><ele>0.0</ele><time>2026-05-01T01:28:04.024Z</time></trkpt><trkpt lat="43.6757165" lon="7.8318043"><ele>0.0</ele><time>2026-05-01T01:28:05.023Z</time></trkpt><trkpt lat="43.675821" lon="7.8319902"><ele>0.0</ele><time>2026-05-01T01:28:07.023Z</time></trkpt><trkpt lat="43.6758713" lon="7.8320817"><ele>0.0</ele><time>2026-05-01T01:28:08.023Z</time></trkpt><trkpt lat="43.6759197" lon="7.8321739"><ele>0.0</ele><time>2026-05-01T01:28:09.023Z</time></trkpt><trkpt lat="43.6759734" lon="7.8322599"><ele>0.0</ele><time>2026-05-01T01:28:10.024Z</time></trkpt><trkpt lat="43.6760227" lon="7.8323563"><ele>0.0</ele><time>2026-05-01T01:28:11.024Z</time></trkpt><trkpt lat="43.6760655" lon="7.8324515"><ele>0.0</ele><time>2026-05-01T01:28:12.023Z</time></trkpt><trkpt lat="43.6761075" lon="7.8325499"><ele>0.0</ele><time>2026-05-01T01:28:13.024Z</time></trkpt><trkpt lat="43.6761418" lon="7.8326439"><ele>0.0</ele><time>2026-05-01T01:28:14.023Z</time></trkpt><trkpt lat="43.6761904" lon="7.8327372"><ele>0.0</ele><time>2026-05-01T01:28:15.022Z</time></trkpt><trkpt lat="43.6762309" lon="7.8328307"><ele>0.0</ele><time>2026-05-01T01:28:16.022Z</time></trkpt><trkpt lat="43.6762761" lon="7.8329209"><ele>0.0</ele><time>2026-05-01T01:28:17.022Z</time></trkpt><trkpt lat="43.6763159" lon="7.8330077"><ele>0.0</ele><time>2026-05-01T01:28:18.022Z</time></trkpt><trkpt lat="43.6763559" lon="7.8331028"><ele>0.0</ele><time>2026-05-01T01:28:19.022Z</time></trkpt><trkpt lat="43.6763989" lon="7.8331991"><ele>0.0</ele><time>2026-05-01T01:28:20.022Z</time></trkpt><trkpt lat="43.6764436" lon="7.8332933"><ele>0.0</ele><time>2026-05-01T01:28:21.022Z</time></trkpt><trkpt lat="43.6764886" lon="7.8333818"><ele>0.0</ele><time>2026-05-01T01:28:22.022Z</time></trkpt><trkpt lat="43.6765337" lon="7.8334688"><ele>0.0</ele><time>2026-05-01T01:28:23.022Z</time></trkpt><trkpt lat="43.6765835" lon="7.833557"><ele>0.0</ele><time>2026-05-01T01:28:24.022Z</time></trkpt><trkpt lat="43.6766337" lon="7.8336453"><ele>0.0</ele><time>2026-05-01T01:28:25.022Z</time></trkpt><trkpt lat="43.6767765" lon="7.8339253"><ele>0.0</ele><time>2026-05-01T01:28:28.023Z</time></trkpt><trkpt lat="43.6768279" lon="7.8340255"><ele>0.0</ele><time>2026-05-01T01:28:29.023Z</time></trkpt><trkpt lat="43.6768738" lon="7.8341187"><ele>0.0</ele><time>2026-05-01T01:28:30.023Z</time></trkpt><trkpt lat="43.6769184" lon="7.8342087"><ele>0.0</ele><time>2026-05-01T01:28:31.023Z</time></trkpt><trkpt lat="43.6769631" lon="7.834313"><ele>0.0</ele><time>2026-05-01T01:28:32.022Z</time></trkpt><trkpt lat="43.67701" lon="7.8344099"><ele>0.0</ele><time>2026-05-01T01:28:33.022Z</time></trkpt><trkpt lat="43.6770623" lon="7.8345009"><ele>0.0</ele><time>2026-05-01T01:28:34.022Z</time></trkpt><trkpt lat="43.6771128" lon="7.8345937"><ele>0.0</ele><time>2026-05-01T01:28:35.022Z</time></trkpt><trkpt lat="43.6771686" lon="7.8346835"><ele>0.0</ele><time>2026-05-01T01:28:36.023Z</time></trkpt><trkpt lat="43.6772244" lon="7.8347714"><ele>0.0</ele><time>2026-05-01T01:28:37.023Z</time></trkpt><trkpt lat="43.6772741" lon="7.8348596"><ele>0.0</ele><time>2026-05-01T01:28:38.023Z</time></trkpt><trkpt lat="43.6773272" lon="7.8349474"><ele>0.0</ele><time>2026-05-01T01:28:39.023Z</time></trkpt><trkpt lat="43.6773838" lon="7.8350369"><ele>0.0</ele><time>2026-05-01T01:28:40.023Z</time></trkpt><trkpt lat="43.6774434" lon="7.835127"><ele>0.0</ele><time>2026-05-01T01:28:41.023Z</time></trkpt><trkpt lat="43.6774987" lon="7.835217"><ele>0.0</ele><time>2026-05-01T01:28:42.022Z</time></trkpt><trkpt lat="43.6775512" lon="7.8353092"><ele>0.0</ele><time>2026-05-01T01:28:43.023Z</time></trkpt><trkpt lat="43.6775998" lon="7.8354009"><ele>0.0</ele><time>2026-05-01T01:28:44.022Z</time></trkpt><trkpt lat="43.6776521" lon="7.8354915"><ele>0.0</ele><time>2026-05-01T01:28:45.023Z</time></trkpt><trkpt lat="43.6776996" lon="7.8355798"><ele>0.0</ele><time>2026-05-01T01:28:46.022Z</time></trkpt><trkpt lat="43.6777488" lon="7.8356693"><ele>0.0</ele><time>2026-05-01T01:28:47.022Z</time></trkpt><trkpt lat="43.67785" lon="7.8358527"><ele>0.0</ele><time>2026-05-01T01:28:49.022Z</time></trkpt><trkpt lat="43.6778996" lon="7.8359386"><ele>0.0</ele><time>2026-05-01T01:28:50.023Z</time></trkpt><trkpt lat="43.6779464" lon="7.8360288"><ele>0.0</ele><time>2026-05-01T01:28:51.023Z</time></trkpt><trkpt lat="43.6779966" lon="7.83612"><ele>0.0</ele><time>2026-05-01T01:28:52.022Z</time></trkpt><trkpt lat="43.6780437" lon="7.836206"><ele>0.0</ele><time>2026-05-01T01:28:53.023Z</time></trkpt><trkpt lat="43.6780843" lon="7.8363014"><ele>0.0</ele><time>2026-05-01T01:28:54.023Z</time></trkpt><trkpt lat="43.6781324" lon="7.8364022"><ele>0.0</ele><time>2026-05-01T01:28:55.022Z</time></trkpt><trkpt lat="43.6781766" lon="7.836497"><ele>0.0</ele><time>2026-05-01T01:28:56.023Z</time></trkpt><trkpt lat="43.6782174" lon="7.8365904"><ele>0.0</ele><time>2026-05-01T01:28:57.023Z</time></trkpt><trkpt lat="43.6782628" lon="7.8366806"><ele>0.0</ele><time>2026-05-01T01:28:58.023Z</time></trkpt><trkpt lat="43.6783109" lon="7.836772"><ele>0.0</ele><time>2026-05-01T01:28:59.023Z</time></trkpt><trkpt lat="43.678361" lon="7.8368662"><ele>0.0</ele><time>2026-05-01T01:29:00.023Z</time></trkpt><trkpt lat="43.6784108" lon="7.8369527"><ele>0.0</ele><time>2026-05-01T01:29:01.023Z</time></trkpt><trkpt lat="43.6784582" lon="7.8370445"><ele>0.0</ele><time>2026-05-01T01:29:02.023Z</time></trkpt><trkpt lat="43.6785093" lon="7.8371438"><ele>0.0</ele><time>2026-05-01T01:29:03.022Z</time></trkpt><trkpt lat="43.6785621" lon="7.8372355"><ele>0.0</ele><time>2026-05-01T01:29:04.023Z</time></trkpt><trkpt lat="43.6786126" lon="7.837333"><ele>0.0</ele><time>2026-05-01T01:29:05.022Z</time></trkpt><trkpt lat="43.6786619" lon="7.8374228"><ele>0.0</ele><time>2026-05-01T01:29:06.023Z</time></trkpt><trkpt lat="43.6787057" lon="7.8375124"><ele>0.0</ele><time>2026-05-01T01:29:07.022Z</time></trkpt><trkpt lat="43.6787463" lon="7.837601"><ele>0.0</ele><time>2026-05-01T01:29:08.022Z</time></trkpt><trkpt lat="43.6788327" lon="7.8377836"><ele>0.0</ele><time>2026-05-01T01:29:10.023Z</time></trkpt><trkpt lat="43.6788788" lon="7.8378767"><ele>0.0</ele><time>2026-05-01T01:29:11.023Z</time></trkpt><trkpt lat="43.678925" lon="7.8379717"><ele>0.0</ele><time>2026-05-01T01:29:12.023Z</time></trkpt><trkpt lat="43.6789767" lon="7.8380637"><ele>0.0</ele><time>2026-05-01T01:29:13.022Z</time></trkpt><trkpt lat="43.6790297" lon="7.8381538"><ele>0.0</ele><time>2026-05-01T01:29:14.022Z</time></trkpt><trkpt lat="43.6790838" lon="7.8382454"><ele>0.0</ele><time>2026-05-01T01:29:15.023Z</time></trkpt><trkpt lat="43.6791401" lon="7.8383324"><ele>0.0</ele><time>2026-05-01T01:29:16.022Z</time></trkpt><trkpt lat="43.679197" lon="7.8384202"><ele>0.0</ele><time>2026-05-01T01:29:17.022Z</time></trkpt><trkpt lat="43.6792454" lon="7.8385118"><ele>0.0</ele><time>2026-05-01T01:29:18.023Z</time></trkpt><trkpt lat="43.6792922" lon="7.8386061"><ele>0.0</ele><time>2026-05-01T01:29:19.023Z</time></trkpt><trkpt lat="43.6793386" lon="7.8386996"><ele>0.0</ele><time>2026-05-01T01:29:20.022Z</time></trkpt><trkpt lat="43.6793855" lon="7.8387928"><ele>0.0</ele><time>2026-05-01T01:29:21.022Z</time></trkpt><trkpt lat="43.679437" lon="7.8388918"><ele>0.0</ele><time>2026-05-01T01:29:22.023Z</time></trkpt><trkpt lat="43.6794884" lon="7.8389834"><ele>0.0</ele><time>2026-05-01T01:29:23.022Z</time></trkpt><trkpt lat="43.679551" lon="7.839066"><ele>0.0</ele><time>2026-05-01T01:29:24.023Z</time></trkpt><trkpt lat="43.6796021" lon="7.8391558"><ele>0.0</ele><time>2026-05-01T01:29:25.022Z</time></trkpt><trkpt lat="43.6796476" lon="7.8392506"><ele>0.0</ele><time>2026-05-01T01:29:26.022Z</time></trkpt><trkpt lat="43.6796943" lon="7.8393432"><ele>0.0</ele><time>2026-05-01T01:29:27.023Z</time></trkpt><trkpt lat="43.6797491" lon="7.8394275"><ele>0.0</ele><time>2026-05-01T01:29:28.022Z</time></trkpt><trkpt lat="43.6797986" lon="7.8395183"><ele>0.0</ele><time>2026-05-01T01:29:29.023Z</time></trkpt><trkpt lat="43.6799337" lon="7.8398045"><ele>0.0</ele><time>2026-05-01T01:29:32.023Z</time></trkpt><trkpt lat="43.6799749" lon="7.8398947"><ele>0.0</ele><time>2026-05-01T01:29:33.022Z</time></trkpt><trkpt lat="43.6800178" lon="7.8399876"><ele>0.0</ele><time>2026-05-01T01:29:34.022Z</time></trkpt><trkpt lat="43.6800581" lon="7.84008"><ele>0.0</ele><time>2026-05-01T01:29:35.022Z</time></trkpt><trkpt lat="43.6801021" lon="7.8401706"><ele>0.0</ele><time>2026-05-01T01:29:36.022Z</time></trkpt><trkpt lat="43.6801442" lon="7.8402628"><ele>0.0</ele><time>2026-05-01T01:29:37.022Z</time></trkpt><trkpt lat="43.680183" lon="7.8403601"><ele>0.0</ele><time>2026-05-01T01:29:38.023Z</time></trkpt><trkpt lat="43.680227" lon="7.8404604"><ele>0.0</ele><time>2026-05-01T01:29:39.022Z</time></trkpt><trkpt lat="43.6802758" lon="7.8405553"><ele>0.0</ele><time>2026-05-01T01:29:40.023Z</time></trkpt><trkpt lat="43.680322" lon="7.8406481"><ele>0.0</ele><time>2026-05-01T01:29:41.022Z</time></trkpt><trkpt lat="43.6803688" lon="7.8407412"><ele>0.0</ele><time>2026-05-01T01:29:42.023Z</time></trkpt><trkpt lat="43.6804213" lon="7.8408287"><ele>0.0</ele><time>2026-05-01T01:29:43.022Z</time></trkpt><trkpt lat="43.6804762" lon="7.8409172"><ele>0.0</ele><time>2026-05-01T01:29:44.022Z</time></trkpt><trkpt lat="43.6805217" lon="7.8410093"><ele>0.0</ele><time>2026-05-01T01:29:45.022Z</time></trkpt><trkpt lat="43.6805689" lon="7.8411031"><ele>0.0</ele><time>2026-05-01T01:29:46.022Z</time></trkpt><trkpt lat="43.6806209" lon="7.841192"><ele>0.0</ele><time>2026-05-01T01:29:47.023Z</time></trkpt><trkpt lat="43.6806699" lon="7.8412802"><ele>0.0</ele><time>2026-05-01T01:29:48.022Z</time></trkpt><trkpt lat="43.6807239" lon="7.8413682"><ele>0.0</ele><time>2026-05-01T01:29:49.023Z</time></trkpt><trkpt lat="43.6807764" lon="7.8414611"><ele>0.0</ele><time>2026-05-01T01:29:50.023Z</time></trkpt><trkpt lat="43.6808215" lon="7.8415602"><ele>0.0</ele><time>2026-05-01T01:29:51.022Z</time></trkpt><trkpt lat="43.6808718" lon="7.841652"><ele>0.0</ele><time>2026-05-01T01:29:52.023Z</time></trkpt><trkpt lat="43.680958" lon="7.8418361"><ele>0.0</ele><time>2026-05-01T01:29:54.022Z</time></trkpt><trkpt lat="43.6810036" lon="7.8419313"><ele>0.0</ele><time>2026-05-01T01:29:55.022Z</time></trkpt><trkpt lat="43.6810492" lon="7.8420222"><ele>0.0</ele><time>2026-05-01T01:29:56.022Z</time></trkpt><trkpt lat="43.6810949" lon="7.8421149"><ele>0.0</ele><time>2026-05-01T01:29:57.023Z</time></trkpt><trkpt lat="43.681142" lon="7.842211"><ele>0.0</ele><time>2026-05-01T01:29:58.022Z</time></trkpt><trkpt lat="43.6811932" lon="7.8423062"><ele>0.0</ele><time>2026-05-01T01:29:59.023Z</time></trkpt><trkpt lat="43.6812435" lon="7.8423953"><ele>0.0</ele><time>2026-05-01T01:30:00.022Z</time></trkpt><trkpt lat="43.6812935" lon="7.8424848"><ele>0.0</ele><time>2026-05-01T01:30:01.023Z</time></trkpt><trkpt lat="43.6813375" lon="7.8425738"><ele>0.0</ele><time>2026-05-01T01:30:02.022Z</time></trkpt><trkpt lat="43.6814355" lon="7.8427531"><ele>0.0</ele><time>2026-05-01T01:30:04.022Z</time></trkpt><trkpt lat="43.6814775" lon="7.8428492"><ele>0.0</ele><time>2026-05-01T01:30:05.023Z</time></trkpt><trkpt lat="43.6815194" lon="7.8429448"><ele>0.0</ele><time>2026-05-01T01:30:06.023Z</time></trkpt><trkpt lat="43.6815652" lon="7.843038"><ele>0.0</ele><time>2026-05-01T01:30:07.022Z</time></trkpt><trkpt lat="43.6816093" lon="7.8431295"><ele>0.0</ele><time>2026-05-01T01:30:08.022Z</time></trkpt><trkpt lat="43.6816583" lon="7.8432156"><ele>0.0</ele><time>2026-05-01T01:30:09.022Z</time></trkpt><trkpt lat="43.6817081" lon="7.843306"><ele>0.0</ele><time>2026-05-01T01:30:10.023Z</time></trkpt><trkpt lat="43.6817598" lon="7.8433966"><ele>0.0</ele><time>2026-05-01T01:30:11.023Z</time></trkpt><trkpt lat="43.6818025" lon="7.8434908"><ele>0.0</ele><time>2026-05-01T01:30:12.022Z</time></trkpt><trkpt lat="43.6818501" lon="7.8435819"><ele>0.0</ele><time>2026-05-01T01:30:13.023Z</time></trkpt><trkpt lat="43.6819482" lon="7.8437658"><ele>0.0</ele><time>2026-05-01T01:30:15.023Z</time></trkpt><trkpt lat="43.6820057" lon="7.8438553"><ele>0.0</ele><time>2026-05-01T01:30:16.023Z</time></trkpt><trkpt lat="43.6820557" lon="7.843944"><ele>0.0</ele><time>2026-05-01T01:30:17.022Z</time></trkpt><trkpt lat="43.6821073" lon="7.8440298"><ele>0.0</ele><time>2026-05-01T01:30:18.022Z</time></trkpt><trkpt lat="43.6821614" lon="7.8441179"><ele>0.0</ele><time>2026-05-01T01:30:19.023Z</time></trkpt><trkpt lat="43.6822091" lon="7.8442091"><ele>0.0</ele><time>2026-05-01T01:30:20.022Z</time></trkpt><trkpt lat="43.6822589" lon="7.8443037"><ele>0.0</ele><time>2026-05-01T01:30:21.022Z</time></trkpt><trkpt lat="43.6823119" lon="7.8443958"><ele>0.0</ele><time>2026-05-01T01:30:22.022Z</time></trkpt><trkpt lat="43.6823635" lon="7.8444856"><ele>0.0</ele><time>2026-05-01T01:30:23.022Z</time></trkpt><trkpt lat="43.6824177" lon="7.8445719"><ele>0.0</ele><time>2026-05-01T01:30:24.022Z</time></trkpt><trkpt lat="43.6824711" lon="7.8446633"><ele>0.0</ele><time>2026-05-01T01:30:25.023Z</time></trkpt><trkpt lat="43.6825214" lon="7.8447566"><ele>0.0</ele><time>2026-05-01T01:30:26.022Z</time></trkpt><trkpt lat="43.6825723" lon="7.8448498"><ele>0.0</ele><time>2026-05-01T01:30:27.022Z</time></trkpt><trkpt lat="43.6826183" lon="7.8449459"><ele>0.0</ele><time>2026-05-01T01:30:28.023Z</time></trkpt><trkpt lat="43.6826633" lon="7.8450429"><ele>0.0</ele><time>2026-05-01T01:30:29.023Z</time></trkpt><trkpt lat="43.6827155" lon="7.8451367"><ele>0.0</ele><time>2026-05-01T01:30:30.023Z</time></trkpt><trkpt lat="43.6827649" lon="7.8452357"><ele>0.0</ele><time>2026-05-01T01:30:31.022Z</time></trkpt><trkpt lat="43.6828106" lon="7.8453313"><ele>0.0</ele><time>2026-05-01T01:30:32.022Z</time></trkpt><trkpt lat="43.6828614" lon="7.845425"><ele>0.0</ele><time>2026-05-01T01:30:33.023Z</time></trkpt><trkpt lat="43.682913" lon="7.8455195"><ele>0.0</ele><time>2026-05-01T01:30:34.022Z</time></trkpt><trkpt lat="43.6829587" lon="7.8456187"><ele>0.0</ele><time>2026-05-01T01:30:35.023Z</time></trkpt><trkpt lat="43.6830977" lon="7.8458969"><ele>0.0</ele><time>2026-05-01T01:30:38.022Z</time></trkpt><trkpt lat="43.6831409" lon="7.8459884"><ele>0.0</ele><time>2026-05-01T01:30:39.022Z</time></trkpt><trkpt lat="43.6831851" lon="7.8460805"><ele>0.0</ele><time>2026-05-01T01:30:40.023Z</time></trkpt><trkpt lat="43.6832313" lon="7.8461748"><ele>0.0</ele><time>2026-05-01T01:30:41.023Z</time></trkpt><trkpt lat="43.6832824" lon="7.8462656"><ele>0.0</ele><time>2026-05-01T01:30:42.022Z</time></trkpt><trkpt lat="43.6833342" lon="7.8463538"><ele>0.0</ele><time>2026-05-01T01:30:43.023Z</time></trkpt><trkpt lat="43.68338" lon="7.8464459"><ele>0.0</ele><time>2026-05-01T01:30:44.023Z</time></trkpt><trkpt lat="43.6834308" lon="7.8465371"><ele>0.0</ele><time>2026-05-01T01:30:45.023Z</time></trkpt><trkpt lat="43.6834779" lon="7.8466283"><ele>0.0</ele><time>2026-05-01T01:30:46.023Z</time></trkpt><trkpt lat="43.6835291" lon="7.8467214"><ele>0.0</ele><time>2026-05-01T01:30:47.022Z</time></trkpt><trkpt lat="43.6835753" lon="7.8468147"><ele>0.0</ele><time>2026-05-01T01:30:48.022Z</time></trkpt><trkpt lat="43.6836266" lon="7.8469065"><ele>0.0</ele><time>2026-05-01T01:30:49.022Z</time></trkpt><trkpt lat="43.6836749" lon="7.8470001"><ele>0.0</ele><time>2026-05-01T01:30:50.023Z</time></trkpt><trkpt lat="43.6837202" lon="7.847093"><ele>0.0</ele><time>2026-05-01T01:30:51.023Z</time></trkpt><trkpt lat="43.6837651" lon="7.8471865"><ele>0.0</ele><time>2026-05-01T01:30:52.022Z</time></trkpt><trkpt lat="43.6838119" lon="7.8472783"><ele>0.0</ele><time>2026-05-01T01:30:53.022Z</time></trkpt><trkpt lat="43.6838599" lon="7.8473698"><ele>0.0</ele><time>2026-05-01T01:30:54.023Z</time></trkpt><trkpt lat="43.6839069" lon="7.8474618"><ele>0.0</ele><time>2026-05-01T01:30:55.022Z</time></trkpt><trkpt lat="43.6839546" lon="7.8475521"><ele>0.0</ele><time>2026-05-01T01:30:56.023Z</time></trkpt><trkpt lat="43.6840028" lon="7.8476416"><ele>0.0</ele><time>2026-05-01T01:30:57.022Z</time></trkpt><trkpt lat="43.6841" lon="7.8478233"><ele>0.0</ele><time>2026-05-01T01:30:59.023Z</time></trkpt><trkpt lat="43.6841471" lon="7.8479129"><ele>0.0</ele><time>2026-05-01T01:31:00.023Z</time></trkpt><trkpt lat="43.684198" lon="7.8480032"><ele>0.0</ele><time>2026-05-01T01:31:01.022Z</time></trkpt><trkpt lat="43.6842442" lon="7.8480944"><ele>0.0</ele><time>2026-05-01T01:31:02.023Z</time></trkpt><trkpt lat="43.6842909" lon="7.8481832"><ele>0.0</ele><time>2026-05-01T01:31:03.023Z</time></trkpt><trkpt lat="43.6843417" lon="7.8482723"><ele>0.0</ele><time>2026-05-01T01:31:04.022Z</time></trkpt><trkpt lat="43.6843908" lon="7.8483686"><ele>0.0</ele><time>2026-05-01T01:31:05.022Z</time></trkpt><trkpt lat="43.6844364" lon="7.8484628"><ele>0.0</ele><time>2026-05-01T01:31:06.023Z</time></trkpt><trkpt lat="43.6844839" lon="7.8485532"><ele>0.0</ele><time>2026-05-01T01:31:07.022Z</time></trkpt><trkpt lat="43.6845308" lon="7.8486425"><ele>0.0</ele><time>2026-05-01T01:31:08.023Z</time></trkpt><trkpt lat="43.6846277" lon="7.848827"><ele>0.0</ele><time>2026-05-01T01:31:10.023Z</time></trkpt><trkpt lat="43.6846758" lon="7.848919"><ele>0.0</ele><time>2026-05-01T01:31:11.023Z</time></trkpt><trkpt lat="43.6847264" lon="7.8490113"><ele>0.0</ele><time>2026-05-01T01:31:12.022Z</time></trkpt><trkpt lat="43.6847778" lon="7.8491034"><ele>0.0</ele><time>2026-05-01T01:31:13.022Z</time></trkpt><trkpt lat="43.684831" lon="7.8491949"><ele>0.0</ele><time>2026-05-01T01:31:14.023Z</time></trkpt><trkpt lat="43.6848814" lon="7.8492881"><ele>0.0</ele><time>2026-05-01T01:31:15.023Z</time></trkpt><trkpt lat="43.684934" lon="7.8493835"><ele>0.0</ele><time>2026-05-01T01:31:16.022Z</time></trkpt><trkpt lat="43.6849816" lon="7.8494814"><ele>0.0</ele><time>2026-05-01T01:31:17.023Z</time></trkpt><trkpt lat="43.6850242" lon="7.8495779"><ele>0.0</ele><time>2026-05-01T01:31:18.023Z</time></trkpt><trkpt lat="43.6851164" lon="7.849767"><ele>0.0</ele><time>2026-05-01T01:31:20.023Z</time></trkpt><trkpt lat="43.6851662" lon="7.8498585"><ele>0.0</ele><time>2026-05-01T01:31:21.022Z</time></trkpt><trkpt lat="43.6852207" lon="7.8499456"><ele>0.0</ele><time>2026-05-01T01:31:22.023Z</time></trkpt><trkpt lat="43.6852772" lon="7.8500392"><ele>0.0</ele><time>2026-05-01T01:31:23.023Z</time></trkpt><trkpt lat="43.685331" lon="7.8501316"><ele>0.0</ele><time>2026-05-01T01:31:24.022Z</time></trkpt><trkpt lat="43.6853829" lon="7.8502267"><ele>0.0</ele><time>2026-05-01T01:31:25.023Z</time></trkpt><trkpt lat="43.6854387" lon="7.8503189"><ele>0.0</ele><time>2026-05-01T01:31:26.022Z</time></trkpt><trkpt lat="43.6854941" lon="7.8504074"><ele>0.0</ele><time>2026-05-01T01:31:27.022Z</time></trkpt><trkpt lat="43.6855449" lon="7.8504999"><ele>0.0</ele><time>2026-05-01T01:31:28.023Z</time></trkpt><trkpt lat="43.6855961" lon="7.8505886"><ele>0.0</ele><time>2026-05-01T01:31:29.023Z</time></trkpt><trkpt lat="43.6856462" lon="7.8506794"><ele>0.0</ele><time>2026-05-01T01:31:30.023Z</time></trkpt><trkpt lat="43.6856976" lon="7.8507714"><ele>0.0</ele><time>2026-05-01T01:31:31.023Z</time></trkpt><trkpt lat="43.6857493" lon="7.8508618"><ele>0.0</ele><time>2026-05-01T01:31:32.022Z</time></trkpt><trkpt lat="43.6857998" lon="7.8509518"><ele>0.0</ele><time>2026-05-01T01:31:33.022Z</time></trkpt><trkpt lat="43.6858484" lon="7.8510417"><ele>0.0</ele><time>2026-05-01T01:31:34.023Z</time></trkpt><trkpt lat="43.6859" lon="7.8511319"><ele>0.0</ele><time>2026-05-01T01:31:35.022Z</time></trkpt><trkpt lat="43.685943" lon="7.8512216"><ele>0.0</ele><time>2026-05-01T01:31:36.022Z</time></trkpt><trkpt lat="43.6859902" lon="7.8513115"><ele>0.0</ele><time>2026-05-01T01:31:37.023Z</time></trkpt><trkpt lat="43.6860382" lon="7.851403"><ele>0.0</ele><time>2026-05-01T01:31:38.022Z</time></trkpt><trkpt lat="43.6860826" lon="7.8514963"><ele>0.0</ele><time>2026-05-01T01:31:39.022Z</time></trkpt><trkpt lat="43.686172" lon="7.8516844"><ele>0.0</ele><time>2026-05-01T01:31:41.022Z</time></trkpt><trkpt lat="43.6862547" lon="7.8518746"><ele>0.0</ele><time>2026-05-01T01:31:43.022Z</time></trkpt><trkpt lat="43.6863028" lon="7.8519669"><ele>0.0</ele><time>2026-05-01T01:31:44.023Z</time></trkpt><trkpt lat="43.6863527" lon="7.8520584"><ele>0.0</ele><time>2026-05-01T01:31:45.022Z</time></trkpt><trkpt lat="43.6864028" lon="7.8521517"><ele>0.0</ele><time>2026-05-01T01:31:46.022Z</time></trkpt><trkpt lat="43.686453" lon="7.8522406"><ele>0.0</ele><time>2026-05-01T01:31:47.022Z</time></trkpt><trkpt lat="43.6865045" lon="7.8523301"><ele>0.0</ele><time>2026-05-01T01:31:48.023Z</time></trkpt><trkpt lat="43.6865524" lon="7.8524198"><ele>0.0</ele><time>2026-05-01T01:31:49.023Z</time></trkpt><trkpt lat="43.6866023" lon="7.8525096"><ele>0.0</ele><time>2026-05-01T01:31:50.022Z</time></trkpt><trkpt lat="43.6866536" lon="7.8525981"><ele>0.0</ele><time>2026-05-01T01:31:51.022Z</time></trkpt><trkpt lat="43.6867054" lon="7.8526863"><ele>0.0</ele><time>2026-05-01T01:31:52.023Z</time></trkpt><trkpt lat="43.6867602" lon="7.8527714"><ele>0.0</ele><time>2026-05-01T01:31:53.022Z</time></trkpt><trkpt lat="43.686815" lon="7.8528551"><ele>0.0</ele><time>2026-05-01T01:31:54.022Z</time></trkpt><trkpt lat="43.6868656" lon="7.8529435"><ele>0.0</ele><time>2026-05-01T01:31:55.023Z</time></trkpt><trkpt lat="43.6869139" lon="7.8530363"><ele>0.0</ele><time>2026-05-01T01:31:56.022Z</time></trkpt><trkpt lat="43.6869664" lon="7.8531247"><ele>0.0</ele><time>2026-05-01T01:31:57.022Z</time></trkpt><trkpt lat="43.6870142" lon="7.8532156"><ele>0.0</ele><time>2026-05-01T01:31:58.023Z</time></trkpt><trkpt lat="43.6870626" lon="7.8533085"><ele>0.0</ele><time>2026-05-01T01:31:59.022Z</time></trkpt><trkpt lat="43.6871164" lon="7.8534029"><ele>0.0</ele><time>2026-05-01T01:32:00.023Z</time></trkpt><trkpt lat="43.6872224" lon="7.8535916"><ele>0.0</ele><time>2026-05-01T01:32:02.022Z</time></trkpt><trkpt lat="43.6872758" lon="7.8536839"><ele>0.0</ele><time>2026-05-01T01:32:03.022Z</time></trkpt><trkpt lat="43.687329" lon="7.8537754"><ele>0.0</ele><time>2026-05-01T01:32:04.022Z</time></trkpt><trkpt lat="43.6873754" lon="7.8538697"><ele>0.0</ele><time>2026-05-01T01:32:05.023Z</time></trkpt><trkpt lat="43.6874235" lon="7.853962"><ele>0.0</ele><time>2026-05-01T01:32:06.022Z</time></trkpt><trkpt lat="43.6874687" lon="7.854055"><ele>0.0</ele><time>2026-05-01T01:32:07.022Z</time></trkpt><trkpt lat="43.6875153" lon="7.854151"><ele>0.0</ele><time>2026-05-01T01:32:08.022Z</time></trkpt><trkpt lat="43.6875624" lon="7.8542492"><ele>0.0</ele><time>2026-05-01T01:32:09.023Z</time></trkpt><trkpt lat="43.6876071" lon="7.8543464"><ele>0.0</ele><time>2026-05-01T01:32:10.022Z</time></trkpt><trkpt lat="43.687649" lon="7.8544428"><ele>0.0</ele><time>2026-05-01T01:32:11.022Z</time></trkpt><trkpt lat="43.6876938" lon="7.8545368"><ele>0.0</ele><time>2026-05-01T01:32:12.022Z</time></trkpt><trkpt lat="43.6877415" lon="7.8546285"><ele>0.0</ele><time>2026-05-01T01:32:13.023Z</time></trkpt><trkpt lat="43.6877881" lon="7.8547203"><ele>0.0</ele><time>2026-05-01T01:32:14.023Z</time></trkpt><trkpt lat="43.6878879" lon="7.8549049"><ele>0.0</ele><time>2026-05-01T01:32:16.023Z</time></trkpt><trkpt lat="43.6879351" lon="7.854998"><ele>0.0</ele><time>2026-05-01T01:32:17.023Z</time></trkpt><trkpt lat="43.687979" lon="7.8550931"><ele>0.0</ele><time>2026-05-01T01:32:18.022Z</time></trkpt><trkpt lat="43.6880251" lon="7.8551893"><ele>0.0</ele><time>2026-05-01T01:32:19.022Z</time></trkpt><trkpt lat="43.6880705" lon="7.8552859"><ele>0.0</ele><time>2026-05-01T01:32:20.023Z</time></trkpt><trkpt lat="43.6881139" lon="7.8553802"><ele>0.0</ele><time>2026-05-01T01:32:21.022Z</time></trkpt><trkpt lat="43.6882083" lon="7.8555602"><ele>0.0</ele><time>2026-05-01T01:32:23.022Z</time></trkpt><trkpt lat="43.6882538" lon="7.8556531"><ele>0.0</ele><time>2026-05-01T01:32:24.022Z</time></trkpt><trkpt lat="43.6882988" lon="7.8557453"><ele>0.0</ele><time>2026-05-01T01:32:25.022Z</time></trkpt><trkpt lat="43.6883435" lon="7.855845"><ele>0.0</ele><time>2026-05-01T01:32:26.022Z</time></trkpt><trkpt lat="43.6883932" lon="7.8559399"><ele>0.0</ele><time>2026-05-01T01:32:27.022Z</time></trkpt><trkpt lat="43.6884458" lon="7.856029"><ele>0.0</ele><time>2026-05-01T01:32:28.022Z</time></trkpt><trkpt lat="43.688499" lon="7.8561153"><ele>0.0</ele><time>2026-05-01T01:32:29.022Z</time></trkpt><trkpt lat="43.6885484" lon="7.8562038"><ele>0.0</ele><time>2026-05-01T01:32:30.023Z</time></trkpt><trkpt lat="43.6885923" lon="7.8562919"><ele>0.0</ele><time>2026-05-01T01:32:31.023Z</time></trkpt><trkpt lat="43.688637" lon="7.8563815"><ele>0.0</ele><time>2026-05-01T01:32:32.023Z</time></trkpt><trkpt lat="43.688686" lon="7.8564748"><ele>0.0</ele><time>2026-05-01T01:32:33.022Z</time></trkpt><trkpt lat="43.6887322" lon="7.856565"><ele>0.0</ele><time>2026-05-01T01:32:34.023Z</time></trkpt><trkpt lat="43.6887791" lon="7.8566561"><ele>0.0</ele><time>2026-05-01T01:32:35.022Z</time></trkpt><trkpt lat="43.6888288" lon="7.8567461"><ele>0.0</ele><time>2026-05-01T01:32:36.023Z</time></trkpt><trkpt lat="43.6888778" lon="7.8568405"><ele>0.0</ele><time>2026-05-01T01:32:37.023Z</time></trkpt><trkpt lat="43.6889316" lon="7.8569345"><ele>0.0</ele><time>2026-05-01T01:32:38.022Z</time></trkpt><trkpt lat="43.6889863" lon="7.8570234"><ele>0.0</ele><time>2026-05-01T01:32:39.022Z</time></trkpt><trkpt lat="43.6890386" lon="7.8571123"><ele>0.0</ele><time>2026-05-01T01:32:40.023Z</time></trkpt><trkpt lat="43.6890922" lon="7.857204"><ele>0.0</ele><time>2026-05-01T01:32:41.021Z</time></trkpt><trkpt lat="43.6891397" lon="7.8572955"><ele>0.0</ele><time>2026-05-01T01:32:42.022Z</time></trkpt><trkpt lat="43.6892345" lon="7.8574807"><ele>0.0</ele><time>2026-05-01T01:32:44.021Z</time></trkpt><trkpt lat="43.6892843" lon="7.8575721"><ele>0.0</ele><time>2026-05-01T01:32:45.022Z</time></trkpt><trkpt lat="43.6893358" lon="7.8576608"><ele>0.0</ele><time>2026-05-01T01:32:46.021Z</time></trkpt><trkpt lat="43.6893883" lon="7.8577509"><ele>0.0</ele><time>2026-05-01T01:32:47.021Z</time></trkpt><trkpt lat="43.6894978" lon="7.8579312"><ele>0.0</ele><time>2026-05-01T01:32:49.021Z</time></trkpt><trkpt lat="43.6895498" lon="7.8580221"><ele>0.0</ele><time>2026-05-01T01:32:50.022Z</time></trkpt><trkpt lat="43.6895985" lon="7.8581116"><ele>0.0</ele><time>2026-05-01T01:32:51.022Z</time></trkpt><trkpt lat="43.6896478" lon="7.8582019"><ele>0.0</ele><time>2026-05-01T01:32:52.021Z</time></trkpt><trkpt lat="43.6896937" lon="7.8582934"><ele>0.0</ele><time>2026-05-01T01:32:53.021Z</time></trkpt><trkpt lat="43.6897429" lon="7.858388"><ele>0.0</ele><time>2026-05-01T01:32:54.022Z</time></trkpt><trkpt lat="43.6897886" lon="7.8584878"><ele>0.0</ele><time>2026-05-01T01:32:55.021Z</time></trkpt><trkpt lat="43.6898353" lon="7.8585834"><ele>0.0</ele><time>2026-05-01T01:32:56.022Z</time></trkpt><trkpt lat="43.6898857" lon="7.8586783"><ele>0.0</ele><time>2026-05-01T01:32:57.021Z</time></trkpt><trkpt lat="43.6899333" lon="7.8587809"><ele>0.0</ele><time>2026-05-01T01:32:58.022Z</time></trkpt><trkpt lat="43.6899783" lon="7.8588786"><ele>0.0</ele><time>2026-05-01T01:32:59.021Z</time></trkpt><trkpt lat="43.6900203" lon="7.8589749"><ele>0.0</ele><time>2026-05-01T01:33:00.021Z</time></trkpt><trkpt lat="43.690065" lon="7.8590728"><ele>0.0</ele><time>2026-05-01T01:33:01.022Z</time></trkpt><trkpt lat="43.6900947" lon="7.8591613"><ele>0.0</ele><time>2026-05-01T01:33:02.022Z</time></trkpt><trkpt lat="43.6901321" lon="7.8592522"><ele>0.0</ele><time>2026-05-01T01:33:03.022Z</time></trkpt><trkpt lat="43.6902091" lon="7.8594415"><ele>0.0</ele><time>2026-05-01T01:33:05.021Z</time></trkpt><trkpt lat="43.6902504" lon="7.8595241"><ele>0.0</ele><time>2026-05-01T01:33:06.021Z</time></trkpt><trkpt lat="43.6903019" lon="7.8596111"><ele>0.0</ele><time>2026-05-01T01:33:07.021Z</time></trkpt><trkpt lat="43.6903554" lon="7.8596961"><ele>0.0</ele><time>2026-05-01T01:33:08.021Z</time></trkpt><trkpt lat="43.6904093" lon="7.8597854"><ele>0.0</ele><time>2026-05-01T01:33:09.021Z</time></trkpt><trkpt lat="43.6904616" lon="7.8598735"><ele>0.0</ele><time>2026-05-01T01:33:10.021Z</time></trkpt><trkpt lat="43.6905119" lon="7.8599664"><ele>0.0</ele><time>2026-05-01T01:33:11.022Z</time></trkpt><trkpt lat="43.6905502" lon="7.8600538"><ele>0.0</ele><time>2026-05-01T01:33:12.022Z</time></trkpt><trkpt lat="43.6905981" lon="7.8601466"><ele>0.0</ele><time>2026-05-01T01:33:13.021Z</time></trkpt><trkpt lat="43.6906494" lon="7.8602349"><ele>0.0</ele><time>2026-05-01T01:33:14.022Z</time></trkpt><trkpt lat="43.6906954" lon="7.8603282"><ele>0.0</ele><time>2026-05-01T01:33:15.022Z</time></trkpt><trkpt lat="43.6907362" lon="7.8604231"><ele>0.0</ele><time>2026-05-01T01:33:16.022Z</time></trkpt><trkpt lat="43.6907728" lon="7.8605169"><ele>0.0</ele><time>2026-05-01T01:33:17.022Z</time></trkpt><trkpt lat="43.6908092" lon="7.860613"><ele>0.0</ele><time>2026-05-01T01:33:18.022Z</time></trkpt><trkpt lat="43.6908486" lon="7.8607082"><ele>0.0</ele><time>2026-05-01T01:33:19.021Z</time></trkpt><trkpt lat="43.6908923" lon="7.860803"><ele>0.0</ele><time>2026-05-01T01:33:20.021Z</time></trkpt><trkpt lat="43.6909827" lon="7.8609892"><ele>0.0</ele><time>2026-05-01T01:33:22.021Z</time></trkpt><trkpt lat="43.6910313" lon="7.8610849"><ele>0.0</ele><time>2026-05-01T01:33:23.022Z</time></trkpt><trkpt lat="43.6910798" lon="7.8611745"><ele>0.0</ele><time>2026-05-01T01:33:24.022Z</time></trkpt><trkpt lat="43.6911796" lon="7.8613485"><ele>0.0</ele><time>2026-05-01T01:33:26.022Z</time></trkpt><trkpt lat="43.6912315" lon="7.8614383"><ele>0.0</ele><time>2026-05-01T01:33:27.021Z</time></trkpt><trkpt lat="43.6912892" lon="7.8615234"><ele>0.0</ele><time>2026-05-01T01:33:28.021Z</time></trkpt><trkpt lat="43.6913404" lon="7.861613"><ele>0.0</ele><time>2026-05-01T01:33:29.021Z</time></trkpt><trkpt lat="43.6913903" lon="7.8617015"><ele>0.0</ele><time>2026-05-01T01:33:30.022Z</time></trkpt><trkpt lat="43.691436" lon="7.8617927"><ele>0.0</ele><time>2026-05-01T01:33:31.022Z</time></trkpt><trkpt lat="43.6914792" lon="7.8618886"><ele>0.0</ele><time>2026-05-01T01:33:32.021Z</time></trkpt><trkpt lat="43.6915245" lon="7.8619824"><ele>0.0</ele><time>2026-05-01T01:33:33.021Z</time></trkpt><trkpt lat="43.6915648" lon="7.8620764"><ele>0.0</ele><time>2026-05-01T01:33:34.021Z</time></trkpt><trkpt lat="43.6916088" lon="7.8621711"><ele>0.0</ele><time>2026-05-01T01:33:35.022Z</time></trkpt><trkpt lat="43.6916568" lon="7.8622633"><ele>0.0</ele><time>2026-05-01T01:33:36.022Z</time></trkpt><trkpt lat="43.691707" lon="7.8623564"><ele>0.0</ele><time>2026-05-01T01:33:37.021Z</time></trkpt><trkpt lat="43.6917524" lon="7.8624494"><ele>0.0</ele><time>2026-05-01T01:33:38.022Z</time></trkpt><trkpt lat="43.691802" lon="7.8625423"><ele>0.0</ele><time>2026-05-01T01:33:39.022Z</time></trkpt><trkpt lat="43.6918493" lon="7.8626342"><ele>0.0</ele><time>2026-05-01T01:33:40.021Z</time></trkpt><trkpt lat="43.6918986" lon="7.8627259"><ele>0.0</ele><time>2026-05-01T01:33:41.021Z</time></trkpt><trkpt lat="43.6919488" lon="7.8628203"><ele>0.0</ele><time>2026-05-01T01:33:42.021Z</time></trkpt><trkpt lat="43.6920001" lon="7.8629112"><ele>0.0</ele><time>2026-05-01T01:33:43.022Z</time></trkpt><trkpt lat="43.6920546" lon="7.8629991"><ele>0.0</ele><time>2026-05-01T01:33:44.021Z</time></trkpt><trkpt lat="43.6921042" lon="7.8630928"><ele>0.0</ele><time>2026-05-01T01:33:45.022Z</time></trkpt><trkpt lat="43.6921975" lon="7.8632782"><ele>0.0</ele><time>2026-05-01T01:33:47.021Z</time></trkpt><trkpt lat="43.6922457" lon="7.8633719"><ele>0.0</ele><time>2026-05-01T01:33:48.022Z</time></trkpt><trkpt lat="43.6922984" lon="7.8634623"><ele>0.0</ele><time>2026-05-01T01:33:49.022Z</time></trkpt><trkpt lat="43.6923531" lon="7.8635496"><ele>0.0</ele><time>2026-05-01T01:33:50.021Z</time></trkpt><trkpt lat="43.6924097" lon="7.8636387"><ele>0.0</ele><time>2026-05-01T01:33:51.022Z</time></trkpt><trkpt lat="43.6924679" lon="7.8637273"><ele>0.0</ele><time>2026-05-01T01:33:52.021Z</time></trkpt><trkpt lat="43.6925724" lon="7.8639119"><ele>0.0</ele><time>2026-05-01T01:33:54.021Z</time></trkpt><trkpt lat="43.6926293" lon="7.8640021"><ele>0.0</ele><time>2026-05-01T01:33:55.021Z</time></trkpt><trkpt lat="43.6926793" lon="7.864095"><ele>0.0</ele><time>2026-05-01T01:33:56.021Z</time></trkpt><trkpt lat="43.6927262" lon="7.864187"><ele>0.0</ele><time>2026-05-01T01:33:57.022Z</time></trkpt><trkpt lat="43.6927742" lon="7.8642802"><ele>0.0</ele><time>2026-05-01T01:33:58.022Z</time></trkpt><trkpt lat="43.6928224" lon="7.8643751"><ele>0.0</ele><time>2026-05-01T01:33:59.021Z</time></trkpt><trkpt lat="43.6928695" lon="7.8644733"><ele>0.0</ele><time>2026-05-01T01:34:00.021Z</time></trkpt><trkpt lat="43.6929131" lon="7.8645719"><ele>0.0</ele><time>2026-05-01T01:34:01.022Z</time></trkpt><trkpt lat="43.6929589" lon="7.8646688"><ele>0.0</ele><time>2026-05-01T01:34:02.022Z</time></trkpt><trkpt lat="43.6930099" lon="7.8647667"><ele>0.0</ele><time>2026-05-01T01:34:03.021Z</time></trkpt><trkpt lat="43.6930621" lon="7.8648652"><ele>0.0</ele><time>2026-05-01T01:34:04.022Z</time></trkpt><trkpt lat="43.6931123" lon="7.8649638"><ele>0.0</ele><time>2026-05-01T01:34:05.022Z</time></trkpt><trkpt lat="43.6931608" lon="7.8650581"><ele>0.0</ele><time>2026-05-01T01:34:06.021Z</time></trkpt><trkpt lat="43.6932541" lon="7.8652425"><ele>0.0</ele><time>2026-05-01T01:34:08.022Z</time></trkpt><trkpt lat="43.693295" lon="7.8653384"><ele>0.0</ele><time>2026-05-01T01:34:09.022Z</time></trkpt><trkpt lat="43.6933363" lon="7.8654342"><ele>0.0</ele><time>2026-05-01T01:34:10.022Z</time></trkpt><trkpt lat="43.6933806" lon="7.8655292"><ele>0.0</ele><time>2026-05-01T01:34:11.022Z</time></trkpt><trkpt lat="43.6934328" lon="7.8656229"><ele>0.0</ele><time>2026-05-01T01:34:12.021Z</time></trkpt><trkpt lat="43.6934819" lon="7.8657164"><ele>0.0</ele><time>2026-05-01T01:34:13.021Z</time></trkpt><trkpt lat="43.6935304" lon="7.8658081"><ele>0.0</ele><time>2026-05-01T01:34:14.021Z</time></trkpt><trkpt lat="43.6935801" lon="7.8658985"><ele>0.0</ele><time>2026-05-01T01:34:15.022Z</time></trkpt><trkpt lat="43.6936299" lon="7.8659883"><ele>0.0</ele><time>2026-05-01T01:34:16.022Z</time></trkpt><trkpt lat="43.6936786" lon="7.8660811"><ele>0.0</ele><time>2026-05-01T01:34:17.022Z</time></trkpt><trkpt lat="43.6937273" lon="7.8661728"><ele>0.0</ele><time>2026-05-01T01:34:18.022Z</time></trkpt><trkpt lat="43.6937769" lon="7.8662674"><ele>0.0</ele><time>2026-05-01T01:34:19.021Z</time></trkpt><trkpt lat="43.6938314" lon="7.8663621"><ele>0.0</ele><time>2026-05-01T01:34:20.021Z</time></trkpt><trkpt lat="43.6938876" lon="7.8664548"><ele>0.0</ele><time>2026-05-01T01:34:21.021Z</time></trkpt><trkpt lat="43.6939416" lon="7.8665433"><ele>0.0</ele><time>2026-05-01T01:34:22.021Z</time></trkpt><trkpt lat="43.6939918" lon="7.8666347"><ele>0.0</ele><time>2026-05-01T01:34:23.022Z</time></trkpt><trkpt lat="43.6940405" lon="7.8667288"><ele>0.0</ele><time>2026-05-01T01:34:24.022Z</time></trkpt><trkpt lat="43.6940915" lon="7.8668209"><ele>0.0</ele><time>2026-05-01T01:34:25.021Z</time></trkpt><trkpt lat="43.6942052" lon="7.8669995"><ele>0.0</ele><time>2026-05-01T01:34:27.022Z</time></trkpt><trkpt lat="43.6943204" lon="7.8671792"><ele>0.0</ele><time>2026-05-01T01:34:29.022Z</time></trkpt><trkpt lat="43.6943736" lon="7.8672709"><ele>0.0</ele><time>2026-05-01T01:34:30.022Z</time></trkpt><trkpt lat="43.694427" lon="7.8673635"><ele>0.0</ele><time>2026-05-01T01:34:31.022Z</time></trkpt><trkpt lat="43.6944814" lon="7.8674518"><ele>0.0</ele><time>2026-05-01T01:34:32.022Z</time></trkpt><trkpt lat="43.6945325" lon="7.8675382"><ele>0.0</ele><time>2026-05-01T01:34:33.021Z</time></trkpt><trkpt lat="43.6945881" lon="7.8676292"><ele>0.0</ele><time>2026-05-01T01:34:34.021Z</time></trkpt><trkpt lat="43.6946306" lon="7.8677223"><ele>0.0</ele><time>2026-05-01T01:34:35.021Z</time></trkpt><trkpt lat="43.6946705" lon="7.8678173"><ele>0.0</ele><time>2026-05-01T01:34:36.022Z</time></trkpt><trkpt lat="43.6947189" lon="7.8679098"><ele>0.0</ele><time>2026-05-01T01:34:37.021Z</time></trkpt><trkpt lat="43.6947674" lon="7.8680046"><ele>0.0</ele><time>2026-05-01T01:34:38.022Z</time></trkpt><trkpt lat="43.6948083" lon="7.8681068"><ele>0.0</ele><time>2026-05-01T01:34:39.021Z</time></trkpt><trkpt lat="43.6948571" lon="7.8682001"><ele>0.0</ele><time>2026-05-01T01:34:40.021Z</time></trkpt><trkpt lat="43.6949035" lon="7.8682891"><ele>0.0</ele><time>2026-05-01T01:34:41.021Z</time></trkpt><trkpt lat="43.6949462" lon="7.8683809"><ele>0.0</ele><time>2026-05-01T01:34:42.022Z</time></trkpt><trkpt lat="43.6949965" lon="7.8684744"><ele>0.0</ele><time>2026-05-01T01:34:43.021Z</time></trkpt><trkpt lat="43.6950482" lon="7.8685655"><ele>0.0</ele><time>2026-05-01T01:34:44.021Z</time></trkpt><trkpt lat="43.6951043" lon="7.8686521"><ele>0.0</ele><time>2026-05-01T01:34:45.022Z</time></trkpt><trkpt lat="43.695158" lon="7.8687401"><ele>0.0</ele><time>2026-05-01T01:34:46.022Z</time></trkpt><trkpt lat="43.6952085" lon="7.868827"><ele>0.0</ele><time>2026-05-01T01:34:47.022Z</time></trkpt><trkpt lat="43.6952572" lon="7.8689131"><ele>0.0</ele><time>2026-05-01T01:34:48.021Z</time></trkpt><trkpt lat="43.6953493" lon="7.8690931"><ele>0.0</ele><time>2026-05-01T01:34:50.021Z</time></trkpt><trkpt lat="43.6953999" lon="7.8691873"><ele>0.0</ele><time>2026-05-01T01:34:51.021Z</time></trkpt><trkpt lat="43.6954476" lon="7.8692811"><ele>0.0</ele><time>2026-05-01T01:34:52.021Z</time></trkpt><trkpt lat="43.6954982" lon="7.8693708"><ele>0.0</ele><time>2026-05-01T01:34:53.021Z</time></trkpt><trkpt lat="43.6955456" lon="7.8694615"><ele>0.0</ele><time>2026-05-01T01:34:54.021Z</time></trkpt><trkpt lat="43.6955951" lon="7.8695515"><ele>0.0</ele><time>2026-05-01T01:34:55.022Z</time></trkpt><trkpt lat="43.6956465" lon="7.8696458"><ele>0.0</ele><time>2026-05-01T01:34:56.021Z</time></trkpt><trkpt lat="43.6956982" lon="7.8697394"><ele>0.0</ele><time>2026-05-01T01:34:57.021Z</time></trkpt><trkpt lat="43.6957918" lon="7.8699201"><ele>0.0</ele><time>2026-05-01T01:34:59.022Z</time></trkpt><trkpt lat="43.6958345" lon="7.8700125"><ele>0.0</ele><time>2026-05-01T01:35:00.021Z</time></trkpt><trkpt lat="43.6958789" lon="7.8701104"><ele>0.0</ele><time>2026-05-01T01:35:01.021Z</time></trkpt><trkpt lat="43.6959212" lon="7.8702052"><ele>0.0</ele><time>2026-05-01T01:35:02.021Z</time></trkpt><trkpt lat="43.6959653" lon="7.8702941"><ele>0.0</ele><time>2026-05-01T01:35:03.021Z</time></trkpt><trkpt lat="43.6960127" lon="7.8703792"><ele>0.0</ele><time>2026-05-01T01:35:04.021Z</time></trkpt><trkpt lat="43.6960579" lon="7.8704701"><ele>0.0</ele><time>2026-05-01T01:35:05.021Z</time></trkpt><trkpt lat="43.6961063" lon="7.8705622"><ele>0.0</ele><time>2026-05-01T01:35:06.021Z</time></trkpt><trkpt lat="43.6961562" lon="7.8706556"><ele>0.0</ele><time>2026-05-01T01:35:07.022Z</time></trkpt><trkpt lat="43.6962005" lon="7.8707546"><ele>0.0</ele><time>2026-05-01T01:35:08.021Z</time></trkpt><trkpt lat="43.6962441" lon="7.8708532"><ele>0.0</ele><time>2026-05-01T01:35:09.022Z</time></trkpt><trkpt lat="43.6963446" lon="7.8710312"><ele>0.0</ele><time>2026-05-01T01:35:11.022Z</time></trkpt><trkpt lat="43.6963935" lon="7.8711256"><ele>0.0</ele><time>2026-05-01T01:35:12.022Z</time></trkpt><trkpt lat="43.6964446" lon="7.8712164"><ele>0.0</ele><time>2026-05-01T01:35:13.021Z</time></trkpt><trkpt lat="43.6964975" lon="7.8713061"><ele>0.0</ele><time>2026-05-01T01:35:14.022Z</time></trkpt><trkpt lat="43.6965482" lon="7.871402"><ele>0.0</ele><time>2026-05-01T01:35:15.021Z</time></trkpt><trkpt lat="43.6965915" lon="7.8715003"><ele>0.0</ele><time>2026-05-01T01:35:16.022Z</time></trkpt><trkpt lat="43.696636" lon="7.8715942"><ele>0.0</ele><time>2026-05-01T01:35:17.022Z</time></trkpt><trkpt lat="43.6966851" lon="7.8716864"><ele>0.0</ele><time>2026-05-01T01:35:18.021Z</time></trkpt><trkpt lat="43.6967337" lon="7.8717823"><ele>0.0</ele><time>2026-05-01T01:35:19.021Z</time></trkpt><trkpt lat="43.6967835" lon="7.8718732"><ele>0.0</ele><time>2026-05-01T01:35:20.021Z</time></trkpt><trkpt lat="43.6968348" lon="7.8719674"><ele>0.0</ele><time>2026-05-01T01:35:21.022Z</time></trkpt><trkpt lat="43.6968868" lon="7.8720585"><ele>0.0</ele><time>2026-05-01T01:35:22.022Z</time></trkpt><trkpt lat="43.6969382" lon="7.8721508"><ele>0.0</ele><time>2026-05-01T01:35:23.022Z</time></trkpt><trkpt lat="43.696994" lon="7.8722371"><ele>0.0</ele><time>2026-05-01T01:35:24.022Z</time></trkpt><trkpt lat="43.6970451" lon="7.8723278"><ele>0.0</ele><time>2026-05-01T01:35:25.022Z</time></trkpt><trkpt lat="43.697091" lon="7.8724213"><ele>0.0</ele><time>2026-05-01T01:35:26.021Z</time></trkpt><trkpt lat="43.6971404" lon="7.8725157"><ele>0.0</ele><time>2026-05-01T01:35:27.022Z</time></trkpt><trkpt lat="43.6971915" lon="7.8726087"><ele>0.0</ele><time>2026-05-01T01:35:28.021Z</time></trkpt><trkpt lat="43.6972429" lon="7.8727013"><ele>0.0</ele><time>2026-05-01T01:35:29.022Z</time></trkpt><trkpt lat="43.6972944" lon="7.8727937"><ele>0.0</ele><time>2026-05-01T01:35:30.021Z</time></trkpt><trkpt lat="43.6974396" lon="7.8730717"><ele>0.0</ele><time>2026-05-01T01:35:33.021Z</time></trkpt><trkpt lat="43.6974866" lon="7.8731649"><ele>0.0</ele><time>2026-05-01T01:35:34.021Z</time></trkpt><trkpt lat="43.697536" lon="7.8732568"><ele>0.0</ele><time>2026-05-01T01:35:35.022Z</time></trkpt><trkpt lat="43.6975831" lon="7.8733468"><ele>0.0</ele><time>2026-05-01T01:35:36.022Z</time></trkpt><trkpt lat="43.6976272" lon="7.8734409"><ele>0.0</ele><time>2026-05-01T01:35:37.022Z</time></trkpt><trkpt lat="43.6976749" lon="7.8735349"><ele>0.0</ele><time>2026-05-01T01:35:38.021Z</time></trkpt><trkpt lat="43.6977263" lon="7.8736251"><ele>0.0</ele><time>2026-05-01T01:35:39.022Z</time></trkpt><trkpt lat="43.6977778" lon="7.8737168"><ele>0.0</ele><time>2026-05-01T01:35:40.022Z</time></trkpt><trkpt lat="43.6978253" lon="7.873804"><ele>0.0</ele><time>2026-05-01T01:35:41.021Z</time></trkpt><trkpt lat="43.6978689" lon="7.8738951"><ele>0.0</ele><time>2026-05-01T01:35:42.022Z</time></trkpt><trkpt lat="43.697914" lon="7.8739841"><ele>0.0</ele><time>2026-05-01T01:35:43.022Z</time></trkpt><trkpt lat="43.6979543" lon="7.8740782"><ele>0.0</ele><time>2026-05-01T01:35:44.021Z</time></trkpt><trkpt lat="43.6979974" lon="7.8741692"><ele>0.0</ele><time>2026-05-01T01:35:45.021Z</time></trkpt><trkpt lat="43.6980396" lon="7.8742586"><ele>0.0</ele><time>2026-05-01T01:35:46.021Z</time></trkpt><trkpt lat="43.6980872" lon="7.8743488"><ele>0.0</ele><time>2026-05-01T01:35:47.022Z</time></trkpt><trkpt lat="43.6981325" lon="7.8744371"><ele>0.0</ele><time>2026-05-01T01:35:48.021Z</time></trkpt><trkpt lat="43.6981719" lon="7.8745279"><ele>0.0</ele><time>2026-05-01T01:35:49.021Z</time></trkpt><trkpt lat="43.6982228" lon="7.8746166"><ele>0.0</ele><time>2026-05-01T01:35:50.021Z</time></trkpt><trkpt lat="43.6982746" lon="7.8747053"><ele>0.0</ele><time>2026-05-01T01:35:51.022Z</time></trkpt><trkpt lat="43.6983151" lon="7.8748003"><ele>0.0</ele><time>2026-05-01T01:35:52.021Z</time></trkpt><trkpt lat="43.6983978" lon="7.8749939"><ele>0.0</ele><time>2026-05-01T01:35:54.021Z</time></trkpt><trkpt lat="43.6984424" lon="7.8750898"><ele>0.0</ele><time>2026-05-01T01:35:55.021Z</time></trkpt><trkpt lat="43.6984942" lon="7.8751773"><ele>0.0</ele><time>2026-05-01T01:35:56.021Z</time></trkpt><trkpt lat="43.6985434" lon="7.8752664"><ele>0.0</ele><time>2026-05-01T01:35:57.021Z</time></trkpt><trkpt lat="43.6985923" lon="7.875358"><ele>0.0</ele><time>2026-05-01T01:35:58.021Z</time></trkpt><trkpt lat="43.6986446" lon="7.875448"><ele>0.0</ele><time>2026-05-01T01:35:59.021Z</time></trkpt><trkpt lat="43.6986951" lon="7.8755402"><ele>0.0</ele><time>2026-05-01T01:36:00.022Z</time></trkpt><trkpt lat="43.698738" lon="7.8756319"><ele>0.0</ele><time>2026-05-01T01:36:01.022Z</time></trkpt><trkpt lat="43.6987822" lon="7.8757202"><ele>0.0</ele><time>2026-05-01T01:36:02.022Z</time></trkpt><trkpt lat="43.698824" lon="7.87581"><ele>0.0</ele><time>2026-05-01T01:36:03.022Z</time></trkpt><trkpt lat="43.6989132" lon="7.8759914"><ele>0.0</ele><time>2026-05-01T01:36:05.021Z</time></trkpt><trkpt lat="43.6989599" lon="7.8760823"><ele>0.0</ele><time>2026-05-01T01:36:06.022Z</time></trkpt><trkpt lat="43.6990021" lon="7.8761719"><ele>0.0</ele><time>2026-05-01T01:36:07.021Z</time></trkpt><trkpt lat="43.6990496" lon="7.8762644"><ele>0.0</ele><time>2026-05-01T01:36:08.022Z</time></trkpt><trkpt lat="43.6991008" lon="7.8763575"><ele>0.0</ele><time>2026-05-01T01:36:09.022Z</time></trkpt><trkpt lat="43.6991469" lon="7.8764507"><ele>0.0</ele><time>2026-05-01T01:36:10.021Z</time></trkpt><trkpt lat="43.6992036" lon="7.8765415"><ele>0.0</ele><time>2026-05-01T01:36:11.021Z</time></trkpt><trkpt lat="43.6992531" lon="7.8766363"><ele>0.0</ele><time>2026-05-01T01:36:12.021Z</time></trkpt><trkpt lat="43.6993031" lon="7.87673"><ele>0.0</ele><time>2026-05-01T01:36:13.021Z</time></trkpt><trkpt lat="43.6994003" lon="7.8769221"><ele>0.0</ele><time>2026-05-01T01:36:15.021Z</time></trkpt><trkpt lat="43.6994486" lon="7.8770206"><ele>0.0</ele><time>2026-05-01T01:36:16.021Z</time></trkpt><trkpt lat="43.699497" lon="7.8771132"><ele>0.0</ele><time>2026-05-01T01:36:17.022Z</time></trkpt><trkpt lat="43.6995366" lon="7.8772102"><ele>0.0</ele><time>2026-05-01T01:36:18.022Z</time></trkpt><trkpt lat="43.6995809" lon="7.8773072"><ele>0.0</ele><time>2026-05-01T01:36:19.021Z</time></trkpt><trkpt lat="43.6996302" lon="7.8773999"><ele>0.0</ele><time>2026-05-01T01:36:20.022Z</time></trkpt><trkpt lat="43.6996829" lon="7.8774927"><ele>0.0</ele><time>2026-05-01T01:36:21.021Z</time></trkpt><trkpt lat="43.6997347" lon="7.8775877"><ele>0.0</ele><time>2026-05-01T01:36:22.022Z</time></trkpt><trkpt lat="43.6997835" lon="7.8776813"><ele>0.0</ele><time>2026-05-01T01:36:23.022Z</time></trkpt><trkpt lat="43.6998242" lon="7.8777793"><ele>0.0</ele><time>2026-05-01T01:36:24.022Z</time></trkpt><trkpt lat="43.6998656" lon="7.8778763"><ele>0.0</ele><time>2026-05-01T01:36:25.021Z</time></trkpt><trkpt lat="43.6999073" lon="7.8779713"><ele>0.0</ele><time>2026-05-01T01:36:26.021Z</time></trkpt><trkpt lat="43.6999546" lon="7.878062"><ele>0.0</ele><time>2026-05-01T01:36:27.021Z</time></trkpt><trkpt lat="43.7000019" lon="7.8781557"><ele>0.0</ele><time>2026-05-01T01:36:28.021Z</time></trkpt><trkpt lat="43.7000536" lon="7.878251"><ele>0.0</ele><time>2026-05-01T01:36:29.021Z</time></trkpt><trkpt lat="43.7001088" lon="7.8783433"><ele>0.0</ele><time>2026-05-01T01:36:30.022Z</time></trkpt><trkpt lat="43.7001541" lon="7.8784388"><ele>0.0</ele><time>2026-05-01T01:36:31.021Z</time></trkpt><trkpt lat="43.7002034" lon="7.8785343"><ele>0.0</ele><time>2026-05-01T01:36:32.022Z</time></trkpt><trkpt lat="43.7002502" lon="7.8786312"><ele>0.0</ele><time>2026-05-01T01:36:33.022Z</time></trkpt><trkpt lat="43.7002968" lon="7.8787264"><ele>0.0</ele><time>2026-05-01T01:36:34.021Z</time></trkpt><trkpt lat="43.7003899" lon="7.8789157"><ele>0.0</ele><time>2026-05-01T01:36:36.022Z</time></trkpt><trkpt lat="43.70048" lon="7.8790983"><ele>0.0</ele><time>2026-05-01T01:36:38.022Z</time></trkpt><trkpt lat="43.7005243" lon="7.8791942"><ele>0.0</ele><time>2026-05-01T01:36:39.022Z</time></trkpt><trkpt lat="43.7005719" lon="7.8792881"><ele>0.0</ele><time>2026-05-01T01:36:40.021Z</time></trkpt><trkpt lat="43.7006199" lon="7.8793816"><ele>0.0</ele><time>2026-05-01T01:36:41.021Z</time></trkpt><trkpt lat="43.7006683" lon="7.8794745"><ele>0.0</ele><time>2026-05-01T01:36:42.021Z</time></trkpt><trkpt lat="43.7007166" lon="7.8795682"><ele>0.0</ele><time>2026-05-01T01:36:43.022Z</time></trkpt><trkpt lat="43.7007652" lon="7.8796596"><ele>0.0</ele><time>2026-05-01T01:36:44.021Z</time></trkpt><trkpt lat="43.7008105" lon="7.879753"><ele>0.0</ele><time>2026-05-01T01:36:45.021Z</time></trkpt><trkpt lat="43.7008636" lon="7.8798423"><ele>0.0</ele><time>2026-05-01T01:36:46.022Z</time></trkpt><trkpt lat="43.7009176" lon="7.8799322"><ele>0.0</ele><time>2026-05-01T01:36:47.021Z</time></trkpt><trkpt lat="43.7009681" lon="7.8800228"><ele>0.0</ele><time>2026-05-01T01:36:48.021Z</time></trkpt><trkpt lat="43.7010197" lon="7.8801149"><ele>0.0</ele><time>2026-05-01T01:36:49.021Z</time></trkpt><trkpt lat="43.7010627" lon="7.8802081"><ele>0.0</ele><time>2026-05-01T01:36:50.022Z</time></trkpt><trkpt lat="43.7011084" lon="7.8803026"><ele>0.0</ele><time>2026-05-01T01:36:51.021Z</time></trkpt><trkpt lat="43.7011568" lon="7.8803946"><ele>0.0</ele><time>2026-05-01T01:36:52.021Z</time></trkpt><trkpt lat="43.7012067" lon="7.880488"><ele>0.0</ele><time>2026-05-01T01:36:53.022Z</time></trkpt><trkpt lat="43.701258" lon="7.8805757"><ele>0.0</ele><time>2026-05-01T01:36:54.022Z</time></trkpt><trkpt lat="43.7013008" lon="7.880665"><ele>0.0</ele><time>2026-05-01T01:36:55.022Z</time></trkpt><trkpt lat="43.7013909" lon="7.8808497"><ele>0.0</ele><time>2026-05-01T01:36:57.022Z</time></trkpt><trkpt lat="43.7014414" lon="7.8809389"><ele>0.0</ele><time>2026-05-01T01:36:58.021Z</time></trkpt><trkpt lat="43.7014928" lon="7.8810274"><ele>0.0</ele><time>2026-05-01T01:36:59.022Z</time></trkpt><trkpt lat="43.701547" lon="7.8811129"><ele>0.0</ele><time>2026-05-01T01:37:00.022Z</time></trkpt><trkpt lat="43.7016037" lon="7.8811958"><ele>0.0</ele><time>2026-05-01T01:37:01.021Z</time></trkpt><trkpt lat="43.7016508" lon="7.8812802"><ele>0.0</ele><time>2026-05-01T01:37:02.021Z</time></trkpt><trkpt lat="43.7016971" lon="7.881368"><ele>0.0</ele><time>2026-05-01T01:37:03.022Z</time></trkpt><trkpt lat="43.701744" lon="7.8814578"><ele>0.0</ele><time>2026-05-01T01:37:04.022Z</time></trkpt><trkpt lat="43.7017852" lon="7.8815414"><ele>0.0</ele><time>2026-05-01T01:37:05.022Z</time></trkpt><trkpt lat="43.7018322" lon="7.8816286"><ele>0.0</ele><time>2026-05-01T01:37:06.022Z</time></trkpt><trkpt lat="43.7018832" lon="7.8817169"><ele>0.0</ele><time>2026-05-01T01:37:07.021Z</time></trkpt><trkpt lat="43.7019334" lon="7.8818066"><ele>0.0</ele><time>2026-05-01T01:37:08.021Z</time></trkpt><trkpt lat="43.7019778" lon="7.8818979"><ele>0.0</ele><time>2026-05-01T01:37:09.021Z</time></trkpt><trkpt lat="43.7020613" lon="7.8820827"><ele>0.0</ele><time>2026-05-01T01:37:11.02Z</time></trkpt><trkpt lat="43.7021056" lon="7.8821705"><ele>0.0</ele><time>2026-05-01T01:37:12.02Z</time></trkpt><trkpt lat="43.702146" lon="7.8822592"><ele>0.0</ele><time>2026-05-01T01:37:13.021Z</time></trkpt><trkpt lat="43.7021904" lon="7.8823525"><ele>0.0</ele><time>2026-05-01T01:37:14.021Z</time></trkpt><trkpt lat="43.7022357" lon="7.8824448"><ele>0.0</ele><time>2026-05-01T01:37:15.021Z</time></trkpt><trkpt lat="43.7022776" lon="7.8825397"><ele>0.0</ele><time>2026-05-01T01:37:16.021Z</time></trkpt><trkpt lat="43.7023739" lon="7.882727"><ele>0.0</ele><time>2026-05-01T01:37:18.02Z</time></trkpt><trkpt lat="43.7024272" lon="7.88282"><ele>0.0</ele><time>2026-05-01T01:37:19.021Z</time></trkpt><trkpt lat="43.7024813" lon="7.8829113"><ele>0.0</ele><time>2026-05-01T01:37:20.02Z</time></trkpt><trkpt lat="43.7025358" lon="7.8829984"><ele>0.0</ele><time>2026-05-01T01:37:21.02Z</time></trkpt><trkpt lat="43.7025892" lon="7.8830954"><ele>0.0</ele><time>2026-05-01T01:37:22.021Z</time></trkpt><trkpt lat="43.7026413" lon="7.883191"><ele>0.0</ele><time>2026-05-01T01:37:23.02Z</time></trkpt><trkpt lat="43.7026944" lon="7.8832874"><ele>0.0</ele><time>2026-05-01T01:37:24.021Z</time></trkpt><trkpt lat="43.7027506" lon="7.883377"><ele>0.0</ele><time>2026-05-01T01:37:25.02Z</time></trkpt><trkpt lat="43.7028061" lon="7.8834652"><ele>0.0</ele><time>2026-05-01T01:37:26.02Z</time></trkpt><trkpt lat="43.7028511" lon="7.8835578"><ele>0.0</ele><time>2026-05-01T01:37:27.02Z</time></trkpt><trkpt lat="43.7028984" lon="7.8836479"><ele>0.0</ele><time>2026-05-01T01:37:28.021Z</time></trkpt><trkpt lat="43.7029469" lon="7.8837413"><ele>0.0</ele><time>2026-05-01T01:37:29.021Z</time></trkpt><trkpt lat="43.702995" lon="7.8838315"><ele>0.0</ele><time>2026-05-01T01:37:30.021Z</time></trkpt><trkpt lat="43.7030332" lon="7.8839304"><ele>0.0</ele><time>2026-05-01T01:37:31.02Z</time></trkpt><trkpt lat="43.703074" lon="7.8840231"><ele>0.0</ele><time>2026-05-01T01:37:32.02Z</time></trkpt><trkpt lat="43.703117" lon="7.8841173"><ele>0.0</ele><time>2026-05-01T01:37:33.02Z</time></trkpt><trkpt lat="43.7031634" lon="7.8842142"><ele>0.0</ele><time>2026-05-01T01:37:34.02Z</time></trkpt><trkpt lat="43.7031857" lon="7.8843226"><ele>0.0</ele><time>2026-05-01T01:37:35.02Z</time></trkpt><trkpt lat="43.7032265" lon="7.8844216"><ele>0.0</ele><time>2026-05-01T01:37:36.021Z</time></trkpt><trkpt lat="43.7032714" lon="7.8845197"><ele>0.0</ele><time>2026-05-01T01:37:37.02Z</time></trkpt><trkpt lat="43.7033641" lon="7.8847064"><ele>0.0</ele><time>2026-05-01T01:37:39.02Z</time></trkpt><trkpt lat="43.7034131" lon="7.8847978"><ele>0.0</ele><time>2026-05-01T01:37:40.02Z</time></trkpt><trkpt lat="43.7034632" lon="7.8848913"><ele>0.0</ele><time>2026-05-01T01:37:41.02Z</time></trkpt><trkpt lat="43.7035116" lon="7.8849818"><ele>0.0</ele><time>2026-05-01T01:37:42.02Z</time></trkpt><trkpt lat="43.703613" lon="7.8851612"><ele>0.0</ele><time>2026-05-01T01:37:44.021Z</time></trkpt><trkpt lat="43.7036606" lon="7.885255"><ele>0.0</ele><time>2026-05-01T01:37:45.021Z</time></trkpt><trkpt lat="43.7037113" lon="7.8853468"><ele>0.0</ele><time>2026-05-01T01:37:46.021Z</time></trkpt><trkpt lat="43.7037586" lon="7.8854414"><ele>0.0</ele><time>2026-05-01T01:37:47.021Z</time></trkpt><trkpt lat="43.703811" lon="7.8855349"><ele>0.0</ele><time>2026-05-01T01:37:48.021Z</time></trkpt><trkpt lat="43.7038571" lon="7.8856343"><ele>0.0</ele><time>2026-05-01T01:37:49.02Z</time></trkpt><trkpt lat="43.7038936" lon="7.885731"><ele>0.0</ele><time>2026-05-01T01:37:50.02Z</time></trkpt><trkpt lat="43.7039331" lon="7.8858272"><ele>0.0</ele><time>2026-05-01T01:37:51.02Z</time></trkpt><trkpt lat="43.7039742" lon="7.8859203"><ele>0.0</ele><time>2026-05-01T01:37:52.021Z</time></trkpt><trkpt lat="43.7040185" lon="7.88601"><ele>0.0</ele><time>2026-05-01T01:37:53.02Z</time></trkpt><trkpt lat="43.7040664" lon="7.8860988"><ele>0.0</ele><time>2026-05-01T01:37:54.021Z</time></trkpt><trkpt lat="43.7041157" lon="7.8861887"><ele>0.0</ele><time>2026-05-01T01:37:55.02Z</time></trkpt><trkpt lat="43.7041678" lon="7.8862785"><ele>0.0</ele><time>2026-05-01T01:37:56.021Z</time></trkpt><trkpt lat="43.7042223" lon="7.8863703"><ele>0.0</ele><time>2026-05-01T01:37:57.021Z</time></trkpt><trkpt lat="43.7042736" lon="7.8864587"><ele>0.0</ele><time>2026-05-01T01:37:58.02Z</time></trkpt><trkpt lat="43.7043607" lon="7.886643"><ele>0.0</ele><time>2026-05-01T01:38:00.021Z</time></trkpt><trkpt lat="43.7044053" lon="7.8867391"><ele>0.0</ele><time>2026-05-01T01:38:01.02Z</time></trkpt><trkpt lat="43.7044518" lon="7.8868317"><ele>0.0</ele><time>2026-05-01T01:38:02.02Z</time></trkpt><trkpt lat="43.7044962" lon="7.886926"><ele>0.0</ele><time>2026-05-01T01:38:03.021Z</time></trkpt><trkpt lat="43.7045389" lon="7.8870209"><ele>0.0</ele><time>2026-05-01T01:38:04.02Z</time></trkpt><trkpt lat="43.7045863" lon="7.8871146"><ele>0.0</ele><time>2026-05-01T01:38:05.02Z</time></trkpt><trkpt lat="43.7046404" lon="7.8872034"><ele>0.0</ele><time>2026-05-01T01:38:06.02Z</time></trkpt><trkpt lat="43.7046843" lon="7.8873002"><ele>0.0</ele><time>2026-05-01T01:38:07.02Z</time></trkpt><trkpt lat="43.7047286" lon="7.8873963"><ele>0.0</ele><time>2026-05-01T01:38:08.02Z</time></trkpt><trkpt lat="43.7047767" lon="7.8874869"><ele>0.0</ele><time>2026-05-01T01:38:09.02Z</time></trkpt><trkpt lat="43.7048251" lon="7.887578"><ele>0.0</ele><time>2026-05-01T01:38:10.021Z</time></trkpt><trkpt lat="43.7048776" lon="7.8876682"><ele>0.0</ele><time>2026-05-01T01:38:11.021Z</time></trkpt><trkpt lat="43.7049284" lon="7.8877581"><ele>0.0</ele><time>2026-05-01T01:38:12.021Z</time></trkpt><trkpt lat="43.7049796" lon="7.887844"><ele>0.0</ele><time>2026-05-01T01:38:13.021Z</time></trkpt><trkpt lat="43.7050301" lon="7.8879317"><ele>0.0</ele><time>2026-05-01T01:38:14.021Z</time></trkpt><trkpt lat="43.7051333" lon="7.8881061"><ele>0.0</ele><time>2026-05-01T01:38:16.02Z</time></trkpt><trkpt lat="43.7051795" lon="7.8881989"><ele>0.0</ele><time>2026-05-01T01:38:17.021Z</time></trkpt><trkpt lat="43.7052306" lon="7.8882925"><ele>0.0</ele><time>2026-05-01T01:38:18.021Z</time></trkpt><trkpt lat="43.7052765" lon="7.8883874"><ele>0.0</ele><time>2026-05-01T01:38:19.021Z</time></trkpt><trkpt lat="43.7053542" lon="7.8885884"><ele>0.0</ele><time>2026-05-01T01:38:21.02Z</time></trkpt><trkpt lat="43.7053947" lon="7.888689"><ele>0.0</ele><time>2026-05-01T01:38:22.02Z</time></trkpt><trkpt lat="43.7054413" lon="7.8887854"><ele>0.0</ele><time>2026-05-01T01:38:23.021Z</time></trkpt><trkpt lat="43.7054891" lon="7.8888772"><ele>0.0</ele><time>2026-05-01T01:38:24.021Z</time></trkpt><trkpt lat="43.7055376" lon="7.8889675"><ele>0.0</ele><time>2026-05-01T01:38:25.021Z</time></trkpt><trkpt lat="43.7055877" lon="7.8890572"><ele>0.0</ele><time>2026-05-01T01:38:26.02Z</time></trkpt><trkpt lat="43.7056335" lon="7.8891515"><ele>0.0</ele><time>2026-05-01T01:38:27.02Z</time></trkpt><trkpt lat="43.7056802" lon="7.8892446"><ele>0.0</ele><time>2026-05-01T01:38:28.02Z</time></trkpt><trkpt lat="43.7057298" lon="7.8893339"><ele>0.0</ele><time>2026-05-01T01:38:29.02Z</time></trkpt><trkpt lat="43.70578" lon="7.8894219"><ele>0.0</ele><time>2026-05-01T01:38:30.02Z</time></trkpt><trkpt lat="43.7058247" lon="7.8895117"><ele>0.0</ele><time>2026-05-01T01:38:31.021Z</time></trkpt><trkpt lat="43.7058704" lon="7.8896018"><ele>0.0</ele><time>2026-05-01T01:38:32.021Z</time></trkpt><trkpt lat="43.7059182" lon="7.889696"><ele>0.0</ele><time>2026-05-01T01:38:33.02Z</time></trkpt><trkpt lat="43.7059637" lon="7.8897928"><ele>0.0</ele><time>2026-05-01T01:38:34.02Z</time></trkpt><trkpt lat="43.7060126" lon="7.889887"><ele>0.0</ele><time>2026-05-01T01:38:35.021Z</time></trkpt><trkpt lat="43.7060614" lon="7.8899814"><ele>0.0</ele><time>2026-05-01T01:38:36.021Z</time></trkpt><trkpt lat="43.7061044" lon="7.8900755"><ele>0.0</ele><time>2026-05-01T01:38:37.021Z</time></trkpt><trkpt lat="43.7061477" lon="7.890168"><ele>0.0</ele><time>2026-05-01T01:38:38.02Z</time></trkpt><trkpt lat="43.7061922" lon="7.8902573"><ele>0.0</ele><time>2026-05-01T01:38:39.021Z</time></trkpt><trkpt lat="43.7062356" lon="7.8903466"><ele>0.0</ele><time>2026-05-01T01:38:40.02Z</time></trkpt><trkpt lat="43.706329" lon="7.890535"><ele>0.0</ele><time>2026-05-01T01:38:42.021Z</time></trkpt><trkpt lat="43.7063781" lon="7.89063"><ele>0.0</ele><time>2026-05-01T01:38:43.02Z</time></trkpt><trkpt lat="43.7064252" lon="7.8907207"><ele>0.0</ele><time>2026-05-01T01:38:44.021Z</time></trkpt><trkpt lat="43.7064731" lon="7.89081"><ele>0.0</ele><time>2026-05-01T01:38:45.02Z</time></trkpt><trkpt lat="43.7065185" lon="7.8909045"><ele>0.0</ele><time>2026-05-01T01:38:46.02Z</time></trkpt><trkpt lat="43.7065637" lon="7.8909982"><ele>0.0</ele><time>2026-05-01T01:38:47.02Z</time></trkpt><trkpt lat="43.7066099" lon="7.8910918"><ele>0.0</ele><time>2026-05-01T01:38:48.02Z</time></trkpt><trkpt lat="43.7066539" lon="7.8911835"><ele>0.0</ele><time>2026-05-01T01:38:49.021Z</time></trkpt><trkpt lat="43.7066974" lon="7.8912778"><ele>0.0</ele><time>2026-05-01T01:38:50.021Z</time></trkpt><trkpt lat="43.7067421" lon="7.8913747"><ele>0.0</ele><time>2026-05-01T01:38:51.02Z</time></trkpt><trkpt lat="43.7067815" lon="7.8914703"><ele>0.0</ele><time>2026-05-01T01:38:52.021Z</time></trkpt><trkpt lat="43.7068209" lon="7.891563"><ele>0.0</ele><time>2026-05-01T01:38:53.02Z</time></trkpt><trkpt lat="43.7068641" lon="7.8916592"><ele>0.0</ele><time>2026-05-01T01:38:54.02Z</time></trkpt><trkpt lat="43.7069162" lon="7.8917524"><ele>0.0</ele><time>2026-05-01T01:38:55.02Z</time></trkpt><trkpt lat="43.7069649" lon="7.8918412"><ele>0.0</ele><time>2026-05-01T01:38:56.021Z</time></trkpt><trkpt lat="43.7070128" lon="7.8919302"><ele>0.0</ele><time>2026-05-01T01:38:57.021Z</time></trkpt><trkpt lat="43.7070609" lon="7.892022"><ele>0.0</ele><time>2026-05-01T01:38:58.021Z</time></trkpt><trkpt lat="43.7071092" lon="7.8921156"><ele>0.0</ele><time>2026-05-01T01:38:59.021Z</time></trkpt><trkpt lat="43.7071581" lon="7.8922045"><ele>0.0</ele><time>2026-05-01T01:39:00.02Z</time></trkpt><trkpt lat="43.7072045" lon="7.892291"><ele>0.0</ele><time>2026-05-01T01:39:01.021Z</time></trkpt><trkpt lat="43.7073111" lon="7.8924735"><ele>0.0</ele><time>2026-05-01T01:39:03.02Z</time></trkpt><trkpt lat="43.7073669" lon="7.8925622"><ele>0.0</ele><time>2026-05-01T01:39:04.02Z</time></trkpt><trkpt lat="43.7074253" lon="7.8926508"><ele>0.0</ele><time>2026-05-01T01:39:05.021Z</time></trkpt><trkpt lat="43.7074753" lon="7.8927446"><ele>0.0</ele><time>2026-05-01T01:39:06.021Z</time></trkpt><trkpt lat="43.7075235" lon="7.8928365"><ele>0.0</ele><time>2026-05-01T01:39:07.02Z</time></trkpt><trkpt lat="43.7075675" lon="7.8929326"><ele>0.0</ele><time>2026-05-01T01:39:08.021Z</time></trkpt><trkpt lat="43.7076137" lon="7.8930278"><ele>0.0</ele><time>2026-05-01T01:39:09.021Z</time></trkpt><trkpt lat="43.7076659" lon="7.8931217"><ele>0.0</ele><time>2026-05-01T01:39:10.021Z</time></trkpt><trkpt lat="43.7077163" lon="7.8932133"><ele>0.0</ele><time>2026-05-01T01:39:11.02Z</time></trkpt><trkpt lat="43.7077632" lon="7.8933092"><ele>0.0</ele><time>2026-05-01T01:39:12.021Z</time></trkpt><trkpt lat="43.7078181" lon="7.8933976"><ele>0.0</ele><time>2026-05-01T01:39:13.02Z</time></trkpt><trkpt lat="43.7078667" lon="7.8934868"><ele>0.0</ele><time>2026-05-01T01:39:14.02Z</time></trkpt><trkpt lat="43.7079161" lon="7.8935767"><ele>0.0</ele><time>2026-05-01T01:39:15.021Z</time></trkpt><trkpt lat="43.7079674" lon="7.8936698"><ele>0.0</ele><time>2026-05-01T01:39:16.02Z</time></trkpt><trkpt lat="43.7080135" lon="7.8937633"><ele>0.0</ele><time>2026-05-01T01:39:17.02Z</time></trkpt><trkpt lat="43.7080616" lon="7.8938577"><ele>0.0</ele><time>2026-05-01T01:39:18.021Z</time></trkpt><trkpt lat="43.708111" lon="7.893952"><ele>0.0</ele><time>2026-05-01T01:39:19.02Z</time></trkpt><trkpt lat="43.7082081" lon="7.8941351"><ele>0.0</ele><time>2026-05-01T01:39:21.02Z</time></trkpt><trkpt lat="43.7082566" lon="7.8942285"><ele>0.0</ele><time>2026-05-01T01:39:22.02Z</time></trkpt><trkpt lat="43.7083501" lon="7.8944134"><ele>0.0</ele><time>2026-05-01T01:39:24.021Z</time></trkpt><trkpt lat="43.7083893" lon="7.8945078"><ele>0.0</ele><time>2026-05-01T01:39:25.021Z</time></trkpt><trkpt lat="43.7084347" lon="7.8945981"><ele>0.0</ele><time>2026-05-01T01:39:26.021Z</time></trkpt><trkpt lat="43.7084843" lon="7.8946912"><ele>0.0</ele><time>2026-05-01T01:39:27.02Z</time></trkpt><trkpt lat="43.7085369" lon="7.8947837"><ele>0.0</ele><time>2026-05-01T01:39:28.021Z</time></trkpt><trkpt lat="43.7085863" lon="7.8948753"><ele>0.0</ele><time>2026-05-01T01:39:29.021Z</time></trkpt><trkpt lat="43.7086304" lon="7.8949666"><ele>0.0</ele><time>2026-05-01T01:39:30.02Z</time></trkpt><trkpt lat="43.7086766" lon="7.8950568"><ele>0.0</ele><time>2026-05-01T01:39:31.021Z</time></trkpt><trkpt lat="43.708723" lon="7.8951483"><ele>0.0</ele><time>2026-05-01T01:39:32.021Z</time></trkpt><trkpt lat="43.7087741" lon="7.8952413"><ele>0.0</ele><time>2026-05-01T01:39:33.021Z</time></trkpt><trkpt lat="43.7088275" lon="7.8953335"><ele>0.0</ele><time>2026-05-01T01:39:34.021Z</time></trkpt><trkpt lat="43.7088724" lon="7.8954275"><ele>0.0</ele><time>2026-05-01T01:39:35.02Z</time></trkpt><trkpt lat="43.7089228" lon="7.8955169"><ele>0.0</ele><time>2026-05-01T01:39:36.02Z</time></trkpt><trkpt lat="43.7089759" lon="7.8956047"><ele>0.0</ele><time>2026-05-01T01:39:37.02Z</time></trkpt><trkpt lat="43.7090325" lon="7.8956929"><ele>0.0</ele><time>2026-05-01T01:39:38.02Z</time></trkpt><trkpt lat="43.7090878" lon="7.8957846"><ele>0.0</ele><time>2026-05-01T01:39:39.021Z</time></trkpt><trkpt lat="43.7091453" lon="7.8958746"><ele>0.0</ele><time>2026-05-01T01:39:40.021Z</time></trkpt><trkpt lat="43.7092012" lon="7.8959623"><ele>0.0</ele><time>2026-05-01T01:39:41.021Z</time></trkpt><trkpt lat="43.7092529" lon="7.8960515"><ele>0.0</ele><time>2026-05-01T01:39:42.021Z</time></trkpt><trkpt lat="43.7093042" lon="7.8961377"><ele>0.0</ele><time>2026-05-01T01:39:43.021Z</time></trkpt><trkpt lat="43.7094151" lon="7.896319"><ele>0.0</ele><time>2026-05-01T01:39:45.02Z</time></trkpt><trkpt lat="43.7094646" lon="7.896418"><ele>0.0</ele><time>2026-05-01T01:39:46.02Z</time></trkpt><trkpt lat="43.7095128" lon="7.8965101"><ele>0.0</ele><time>2026-05-01T01:39:47.021Z</time></trkpt><trkpt lat="43.7095589" lon="7.896603"><ele>0.0</ele><time>2026-05-01T01:39:48.02Z</time></trkpt><trkpt lat="43.7096014" lon="7.8966974"><ele>0.0</ele><time>2026-05-01T01:39:49.02Z</time></trkpt><trkpt lat="43.7096423" lon="7.8967856"><ele>0.0</ele><time>2026-05-01T01:39:50.021Z</time></trkpt><trkpt lat="43.7096877" lon="7.8968726"><ele>0.0</ele><time>2026-05-01T01:39:51.021Z</time></trkpt><trkpt lat="43.7097822" lon="7.8970502"><ele>0.0</ele><time>2026-05-01T01:39:53.021Z</time></trkpt><trkpt lat="43.7098273" lon="7.897137"><ele>0.0</ele><time>2026-05-01T01:39:54.02Z</time></trkpt><trkpt lat="43.7098739" lon="7.8972279"><ele>0.0</ele><time>2026-05-01T01:39:55.02Z</time></trkpt><trkpt lat="43.7099292" lon="7.8973173"><ele>0.0</ele><time>2026-05-01T01:39:56.021Z</time></trkpt><trkpt lat="43.7099791" lon="7.8974081"><ele>0.0</ele><time>2026-05-01T01:39:57.02Z</time></trkpt><trkpt lat="43.7100316" lon="7.8974981"><ele>0.0</ele><time>2026-05-01T01:39:58.02Z</time></trkpt><trkpt lat="43.7100804" lon="7.8975906"><ele>0.0</ele><time>2026-05-01T01:39:59.02Z</time></trkpt><trkpt lat="43.7101329" lon="7.8976808"><ele>0.0</ele><time>2026-05-01T01:40:00.021Z</time></trkpt><trkpt lat="43.7101849" lon="7.8977765"><ele>0.0</ele><time>2026-05-01T01:40:01.021Z</time></trkpt><trkpt lat="43.7102336" lon="7.8978712"><ele>0.0</ele><time>2026-05-01T01:40:02.02Z</time></trkpt><trkpt lat="43.7102777" lon="7.8979685"><ele>0.0</ele><time>2026-05-01T01:40:03.02Z</time></trkpt><trkpt lat="43.7103234" lon="7.8980626"><ele>0.0</ele><time>2026-05-01T01:40:04.02Z</time></trkpt><trkpt lat="43.7104072" lon="7.8982481"><ele>0.0</ele><time>2026-05-01T01:40:06.02Z</time></trkpt><trkpt lat="43.7104514" lon="7.8983397"><ele>0.0</ele><time>2026-05-01T01:40:07.02Z</time></trkpt><trkpt lat="43.7104937" lon="7.8984364"><ele>0.0</ele><time>2026-05-01T01:40:08.02Z</time></trkpt><trkpt lat="43.7105383" lon="7.898533"><ele>0.0</ele><time>2026-05-01T01:40:09.021Z</time></trkpt><trkpt lat="43.7105907" lon="7.8986237"><ele>0.0</ele><time>2026-05-01T01:40:10.021Z</time></trkpt><trkpt lat="43.7106428" lon="7.8987135"><ele>0.0</ele><time>2026-05-01T01:40:11.02Z</time></trkpt><trkpt lat="43.7106905" lon="7.898799"><ele>0.0</ele><time>2026-05-01T01:40:12.02Z</time></trkpt><trkpt lat="43.7107417" lon="7.898891"><ele>0.0</ele><time>2026-05-01T01:40:13.021Z</time></trkpt><trkpt lat="43.7107947" lon="7.8989845"><ele>0.0</ele><time>2026-05-01T01:40:14.021Z</time></trkpt><trkpt lat="43.7108445" lon="7.8990781"><ele>0.0</ele><time>2026-05-01T01:40:15.021Z</time></trkpt><trkpt lat="43.7108916" lon="7.8991715"><ele>0.0</ele><time>2026-05-01T01:40:16.021Z</time></trkpt><trkpt lat="43.7109116" lon="7.8992634"><ele>0.0</ele><time>2026-05-01T01:40:17.021Z</time></trkpt><trkpt lat="43.7109553" lon="7.8993581"><ele>0.0</ele><time>2026-05-01T01:40:18.021Z</time></trkpt><trkpt lat="43.7110014" lon="7.8994505"><ele>0.0</ele><time>2026-05-01T01:40:19.021Z</time></trkpt><trkpt lat="43.7110537" lon="7.899539"><ele>0.0</ele><time>2026-05-01T01:40:20.02Z</time></trkpt><trkpt lat="43.7111047" lon="7.8996315"><ele>0.0</ele><time>2026-05-01T01:40:21.02Z</time></trkpt><trkpt lat="43.7111592" lon="7.8997263"><ele>0.0</ele><time>2026-05-01T01:40:22.021Z</time></trkpt><trkpt lat="43.7112037" lon="7.8998232"><ele>0.0</ele><time>2026-05-01T01:40:23.02Z</time></trkpt><trkpt lat="43.711245" lon="7.8999187"><ele>0.0</ele><time>2026-05-01T01:40:24.02Z</time></trkpt><trkpt lat="43.7113989" lon="7.9001869"><ele>0.0</ele><time>2026-05-01T01:40:27.021Z</time></trkpt><trkpt lat="43.7114449" lon="7.9002789"><ele>0.0</ele><time>2026-05-01T01:40:28.02Z</time></trkpt><trkpt lat="43.7114894" lon="7.9003752"><ele>0.0</ele><time>2026-05-01T01:40:29.02Z</time></trkpt><trkpt lat="43.7115362" lon="7.9004708"><ele>0.0</ele><time>2026-05-01T01:40:30.02Z</time></trkpt><trkpt lat="43.7115802" lon="7.9005647"><ele>0.0</ele><time>2026-05-01T01:40:31.021Z</time></trkpt><trkpt lat="43.7116277" lon="7.9006584"><ele>0.0</ele><time>2026-05-01T01:40:32.021Z</time></trkpt><trkpt lat="43.7116761" lon="7.9007455"><ele>0.0</ele><time>2026-05-01T01:40:33.021Z</time></trkpt><trkpt lat="43.7117187" lon="7.9008305"><ele>0.0</ele><time>2026-05-01T01:40:34.02Z</time></trkpt><trkpt lat="43.7117635" lon="7.9009277"><ele>0.0</ele><time>2026-05-01T01:40:35.02Z</time></trkpt><trkpt lat="43.7118042" lon="7.9010231"><ele>0.0</ele><time>2026-05-01T01:40:36.021Z</time></trkpt><trkpt lat="43.7118514" lon="7.9011171"><ele>0.0</ele><time>2026-05-01T01:40:37.021Z</time></trkpt><trkpt lat="43.7119011" lon="7.9012046"><ele>0.0</ele><time>2026-05-01T01:40:38.021Z</time></trkpt><trkpt lat="43.7119484" lon="7.9012948"><ele>0.0</ele><time>2026-05-01T01:40:39.02Z</time></trkpt><trkpt lat="43.7119996" lon="7.9013792"><ele>0.0</ele><time>2026-05-01T01:40:40.02Z</time></trkpt><trkpt lat="43.7120571" lon="7.9014636"><ele>0.0</ele><time>2026-05-01T01:40:41.02Z</time></trkpt><trkpt lat="43.7121133" lon="7.9015478"><ele>0.0</ele><time>2026-05-01T01:40:42.021Z</time></trkpt><trkpt lat="43.7121731" lon="7.9016354"><ele>0.0</ele><time>2026-05-01T01:40:43.02Z</time></trkpt><trkpt lat="43.7122191" lon="7.9017234"><ele>0.0</ele><time>2026-05-01T01:40:44.02Z</time></trkpt><trkpt lat="43.7122602" lon="7.9018129"><ele>0.0</ele><time>2026-05-01T01:40:45.02Z</time></trkpt><trkpt lat="43.7122946" lon="7.9019115"><ele>0.0</ele><time>2026-05-01T01:40:46.02Z</time></trkpt><trkpt lat="43.7123804" lon="7.9021058"><ele>0.0</ele><time>2026-05-01T01:40:48.021Z</time></trkpt><trkpt lat="43.7124268" lon="7.9022012"><ele>0.0</ele><time>2026-05-01T01:40:49.02Z</time></trkpt><trkpt lat="43.7124701" lon="7.9022948"><ele>0.0</ele><time>2026-05-01T01:40:50.02Z</time></trkpt><trkpt lat="43.7125122" lon="7.9023853"><ele>0.0</ele><time>2026-05-01T01:40:51.021Z</time></trkpt><trkpt lat="43.7125594" lon="7.9024684"><ele>0.0</ele><time>2026-05-01T01:40:52.021Z</time></trkpt><trkpt lat="43.7126053" lon="7.9025524"><ele>0.0</ele><time>2026-05-01T01:40:53.02Z</time></trkpt><trkpt lat="43.7126578" lon="7.9026519"><ele>0.0</ele><time>2026-05-01T01:40:54.02Z</time></trkpt><trkpt lat="43.7127027" lon="7.9027458"><ele>0.0</ele><time>2026-05-01T01:40:55.02Z</time></trkpt><trkpt lat="43.7127486" lon="7.902845"><ele>0.0</ele><time>2026-05-01T01:40:56.021Z</time></trkpt><trkpt lat="43.7127967" lon="7.9029489"><ele>0.0</ele><time>2026-05-01T01:40:57.021Z</time></trkpt><trkpt lat="43.7128932" lon="7.9031331"><ele>0.0</ele><time>2026-05-01T01:40:59.02Z</time></trkpt><trkpt lat="43.712943" lon="7.9032291"><ele>0.0</ele><time>2026-05-01T01:41:00.021Z</time></trkpt><trkpt lat="43.712996" lon="7.9033214"><ele>0.0</ele><time>2026-05-01T01:41:01.02Z</time></trkpt><trkpt lat="43.7130451" lon="7.9034221"><ele>0.0</ele><time>2026-05-01T01:41:02.02Z</time></trkpt><trkpt lat="43.7130973" lon="7.9035121"><ele>0.0</ele><time>2026-05-01T01:41:03.021Z</time></trkpt><trkpt lat="43.7131479" lon="7.9036016"><ele>0.0</ele><time>2026-05-01T01:41:04.021Z</time></trkpt><trkpt lat="43.7131967" lon="7.9036929"><ele>0.0</ele><time>2026-05-01T01:41:05.02Z</time></trkpt><trkpt lat="43.7132408" lon="7.9037874"><ele>0.0</ele><time>2026-05-01T01:41:06.021Z</time></trkpt><trkpt lat="43.7132853" lon="7.9038796"><ele>0.0</ele><time>2026-05-01T01:41:07.02Z</time></trkpt><trkpt lat="43.713382" lon="7.9040642"><ele>0.0</ele><time>2026-05-01T01:41:09.021Z</time></trkpt><trkpt lat="43.7134331" lon="7.9041562"><ele>0.0</ele><time>2026-05-01T01:41:10.02Z</time></trkpt><trkpt lat="43.7134862" lon="7.9042525"><ele>0.0</ele><time>2026-05-01T01:41:11.02Z</time></trkpt><trkpt lat="43.7135395" lon="7.9043451"><ele>0.0</ele><time>2026-05-01T01:41:12.02Z</time></trkpt><trkpt lat="43.7135815" lon="7.9044391"><ele>0.0</ele><time>2026-05-01T01:41:13.021Z</time></trkpt><trkpt lat="43.7136317" lon="7.904542"><ele>0.0</ele><time>2026-05-01T01:41:14.02Z</time></trkpt><trkpt lat="43.7136818" lon="7.9046378"><ele>0.0</ele><time>2026-05-01T01:41:15.02Z</time></trkpt><trkpt lat="43.7137328" lon="7.9047328"><ele>0.0</ele><time>2026-05-01T01:41:16.021Z</time></trkpt><trkpt lat="43.7137845" lon="7.9048266"><ele>0.0</ele><time>2026-05-01T01:41:17.02Z</time></trkpt><trkpt lat="43.7138228" lon="7.9049126"><ele>0.0</ele><time>2026-05-01T01:41:18.02Z</time></trkpt><trkpt lat="43.7138672" lon="7.9050045"><ele>0.0</ele><time>2026-05-01T01:41:19.021Z</time></trkpt><trkpt lat="43.713911" lon="7.9050992"><ele>0.0</ele><time>2026-05-01T01:41:20.021Z</time></trkpt><trkpt lat="43.7139543" lon="7.9051927"><ele>0.0</ele><time>2026-05-01T01:41:21.021Z</time></trkpt><trkpt lat="43.7139977" lon="7.9052894"><ele>0.0</ele><time>2026-05-01T01:41:22.02Z</time></trkpt><trkpt lat="43.7140408" lon="7.9053834"><ele>0.0</ele><time>2026-05-01T01:41:23.02Z</time></trkpt><trkpt lat="43.714085" lon="7.9054767"><ele>0.0</ele><time>2026-05-01T01:41:24.021Z</time></trkpt><trkpt lat="43.7141303" lon="7.9055681"><ele>0.0</ele><time>2026-05-01T01:41:25.02Z</time></trkpt><trkpt lat="43.7141764" lon="7.9056622"><ele>0.0</ele><time>2026-05-01T01:41:26.021Z</time></trkpt><trkpt lat="43.71423" lon="7.9057538"><ele>0.0</ele><time>2026-05-01T01:41:27.021Z</time></trkpt><trkpt lat="43.7142826" lon="7.9058392"><ele>0.0</ele><time>2026-05-01T01:41:28.02Z</time></trkpt><trkpt lat="43.7143821" lon="7.9060239"><ele>0.0</ele><time>2026-05-01T01:41:30.021Z</time></trkpt><trkpt lat="43.7144777" lon="7.9062229"><ele>0.0</ele><time>2026-05-01T01:41:32.02Z</time></trkpt><trkpt lat="43.7145406" lon="7.9063116"><ele>0.0</ele><time>2026-05-01T01:41:33.02Z</time></trkpt><trkpt lat="43.7145902" lon="7.9064035"><ele>0.0</ele><time>2026-05-01T01:41:34.02Z</time></trkpt><trkpt lat="43.7146392" lon="7.9064907"><ele>0.0</ele><time>2026-05-01T01:41:35.02Z</time></trkpt><trkpt lat="43.7146866" lon="7.9065843"><ele>0.0</ele><time>2026-05-01T01:41:36.021Z</time></trkpt><trkpt lat="43.7147348" lon="7.9066735"><ele>0.0</ele><time>2026-05-01T01:41:37.02Z</time></trkpt><trkpt lat="43.7147801" lon="7.9067601"><ele>0.0</ele><time>2026-05-01T01:41:38.021Z</time></trkpt><trkpt lat="43.7148284" lon="7.9068523"><ele>0.0</ele><time>2026-05-01T01:41:39.021Z</time></trkpt><trkpt lat="43.7148777" lon="7.9069588"><ele>0.0</ele><time>2026-05-01T01:41:40.02Z</time></trkpt><trkpt lat="43.714928" lon="7.9070543"><ele>0.0</ele><time>2026-05-01T01:41:41.02Z</time></trkpt><trkpt lat="43.7149778" lon="7.9071411"><ele>0.0</ele><time>2026-05-01T01:41:42.02Z</time></trkpt><trkpt lat="43.7150281" lon="7.9072354"><ele>0.0</ele><time>2026-05-01T01:41:43.021Z</time></trkpt><trkpt lat="43.7150715" lon="7.9073338"><ele>0.0</ele><time>2026-05-01T01:41:44.021Z</time></trkpt><trkpt lat="43.7151155" lon="7.9074279"><ele>0.0</ele><time>2026-05-01T01:41:45.02Z</time></trkpt><trkpt lat="43.7151589" lon="7.9075252"><ele>0.0</ele><time>2026-05-01T01:41:46.02Z</time></trkpt><trkpt lat="43.7152093" lon="7.9076143"><ele>0.0</ele><time>2026-05-01T01:41:47.02Z</time></trkpt><trkpt lat="43.7152582" lon="7.9077138"><ele>0.0</ele><time>2026-05-01T01:41:48.02Z</time></trkpt><trkpt lat="43.7153094" lon="7.907807"><ele>0.0</ele><time>2026-05-01T01:41:49.019Z</time></trkpt><trkpt lat="43.7154035" lon="7.9079931"><ele>0.0</ele><time>2026-05-01T01:41:51.02Z</time></trkpt><trkpt lat="43.7154511" lon="7.9080834"><ele>0.0</ele><time>2026-05-01T01:41:52.019Z</time></trkpt><trkpt lat="43.7154985" lon="7.9081731"><ele>0.0</ele><time>2026-05-01T01:41:53.019Z</time></trkpt><trkpt lat="43.7155428" lon="7.9082703"><ele>0.0</ele><time>2026-05-01T01:41:54.019Z</time></trkpt><trkpt lat="43.7155858" lon="7.9083647"><ele>0.0</ele><time>2026-05-01T01:41:55.019Z</time></trkpt><trkpt lat="43.7156261" lon="7.9084581"><ele>0.0</ele><time>2026-05-01T01:41:56.019Z</time></trkpt><trkpt lat="43.7156676" lon="7.9085472"><ele>0.0</ele><time>2026-05-01T01:41:57.02Z</time></trkpt><trkpt lat="43.7157088" lon="7.9086397"><ele>0.0</ele><time>2026-05-01T01:41:58.019Z</time></trkpt><trkpt lat="43.7157505" lon="7.9087287"><ele>0.0</ele><time>2026-05-01T01:41:59.019Z</time></trkpt><trkpt lat="43.7157933" lon="7.9088186"><ele>0.0</ele><time>2026-05-01T01:42:00.02Z</time></trkpt><trkpt lat="43.7158341" lon="7.9089134"><ele>0.0</ele><time>2026-05-01T01:42:01.02Z</time></trkpt><trkpt lat="43.7158813" lon="7.9090079"><ele>0.0</ele><time>2026-05-01T01:42:02.019Z</time></trkpt><trkpt lat="43.7159297" lon="7.9091028"><ele>0.0</ele><time>2026-05-01T01:42:03.019Z</time></trkpt><trkpt lat="43.7160326" lon="7.9092882"><ele>0.0</ele><time>2026-05-01T01:42:05.019Z</time></trkpt><trkpt lat="43.7160831" lon="7.9093798"><ele>0.0</ele><time>2026-05-01T01:42:06.019Z</time></trkpt><trkpt lat="43.7161319" lon="7.9094703"><ele>0.0</ele><time>2026-05-01T01:42:07.02Z</time></trkpt><trkpt lat="43.7161784" lon="7.9095591"><ele>0.0</ele><time>2026-05-01T01:42:08.019Z</time></trkpt><trkpt lat="43.7162237" lon="7.9096477"><ele>0.0</ele><time>2026-05-01T01:42:09.02Z</time></trkpt><trkpt lat="43.7162717" lon="7.909745"><ele>0.0</ele><time>2026-05-01T01:42:10.019Z</time></trkpt><trkpt lat="43.7163697" lon="7.9099429"><ele>0.0</ele><time>2026-05-01T01:42:12.019Z</time></trkpt><trkpt lat="43.716406" lon="7.9100326"><ele>0.0</ele><time>2026-05-01T01:42:13.019Z</time></trkpt><trkpt lat="43.7164527" lon="7.9101223"><ele>0.0</ele><time>2026-05-01T01:42:14.019Z</time></trkpt><trkpt lat="43.7165" lon="7.9102165"><ele>0.0</ele><time>2026-05-01T01:42:15.019Z</time></trkpt><trkpt lat="43.716547" lon="7.9103127"><ele>0.0</ele><time>2026-05-01T01:42:16.019Z</time></trkpt><trkpt lat="43.7165891" lon="7.9104007"><ele>0.0</ele><time>2026-05-01T01:42:17.019Z</time></trkpt><trkpt lat="43.7166353" lon="7.9104827"><ele>0.0</ele><time>2026-05-01T01:42:18.019Z</time></trkpt><trkpt lat="43.7166875" lon="7.9105681"><ele>0.0</ele><time>2026-05-01T01:42:19.019Z</time></trkpt><trkpt lat="43.7167446" lon="7.9106655"><ele>0.0</ele><time>2026-05-01T01:42:20.019Z</time></trkpt><trkpt lat="43.7167928" lon="7.9107535"><ele>0.0</ele><time>2026-05-01T01:42:21.02Z</time></trkpt><trkpt lat="43.7168423" lon="7.9108458"><ele>0.0</ele><time>2026-05-01T01:42:22.02Z</time></trkpt><trkpt lat="43.7168874" lon="7.9109413"><ele>0.0</ele><time>2026-05-01T01:42:23.02Z</time></trkpt><trkpt lat="43.7169335" lon="7.9110415"><ele>0.0</ele><time>2026-05-01T01:42:24.02Z</time></trkpt><trkpt lat="43.7169762" lon="7.9111364"><ele>0.0</ele><time>2026-05-01T01:42:25.02Z</time></trkpt><trkpt lat="43.7170193" lon="7.9112255"><ele>0.0</ele><time>2026-05-01T01:42:26.019Z</time></trkpt><trkpt lat="43.7170715" lon="7.9113227"><ele>0.0</ele><time>2026-05-01T01:42:27.019Z</time></trkpt><trkpt lat="43.7171189" lon="7.9114119"><ele>0.0</ele><time>2026-05-01T01:42:28.019Z</time></trkpt><trkpt lat="43.7171693" lon="7.9115001"><ele>0.0</ele><time>2026-05-01T01:42:29.02Z</time></trkpt><trkpt lat="43.7172143" lon="7.9115923"><ele>0.0</ele><time>2026-05-01T01:42:30.02Z</time></trkpt><trkpt lat="43.717262" lon="7.9116843"><ele>0.0</ele><time>2026-05-01T01:42:31.019Z</time></trkpt><trkpt lat="43.7173536" lon="7.9118636"><ele>0.0</ele><time>2026-05-01T01:42:33.02Z</time></trkpt><trkpt lat="43.7174082" lon="7.9119503"><ele>0.0</ele><time>2026-05-01T01:42:34.019Z</time></trkpt><trkpt lat="43.7174524" lon="7.9120362"><ele>0.0</ele><time>2026-05-01T01:42:35.019Z</time></trkpt><trkpt lat="43.7174952" lon="7.9121262"><ele>0.0</ele><time>2026-05-01T01:42:36.019Z</time></trkpt><trkpt lat="43.7175805" lon="7.9123227"><ele>0.0</ele><time>2026-05-01T01:42:38.019Z</time></trkpt><trkpt lat="43.7176254" lon="7.912425"><ele>0.0</ele><time>2026-05-01T01:42:39.019Z</time></trkpt><trkpt lat="43.7176716" lon="7.9125302"><ele>0.0</ele><time>2026-05-01T01:42:40.019Z</time></trkpt><trkpt lat="43.7177148" lon="7.9126267"><ele>0.0</ele><time>2026-05-01T01:42:41.019Z</time></trkpt><trkpt lat="43.7177601" lon="7.9127202"><ele>0.0</ele><time>2026-05-01T01:42:42.019Z</time></trkpt><trkpt lat="43.7178035" lon="7.9128121"><ele>0.0</ele><time>2026-05-01T01:42:43.02Z</time></trkpt><trkpt lat="43.7178518" lon="7.9129065"><ele>0.0</ele><time>2026-05-01T01:42:44.02Z</time></trkpt><trkpt lat="43.7179015" lon="7.9129947"><ele>0.0</ele><time>2026-05-01T01:42:45.019Z</time></trkpt><trkpt lat="43.7179527" lon="7.9130782"><ele>0.0</ele><time>2026-05-01T01:42:46.02Z</time></trkpt><trkpt lat="43.7180011" lon="7.9131625"><ele>0.0</ele><time>2026-05-01T01:42:47.019Z</time></trkpt><trkpt lat="43.7180555" lon="7.9132454"><ele>0.0</ele><time>2026-05-01T01:42:48.02Z</time></trkpt><trkpt lat="43.7181104" lon="7.913329"><ele>0.0</ele><time>2026-05-01T01:42:49.02Z</time></trkpt><trkpt lat="43.7181654" lon="7.9134241"><ele>0.0</ele><time>2026-05-01T01:42:50.02Z</time></trkpt><trkpt lat="43.7182164" lon="7.9135178"><ele>0.0</ele><time>2026-05-01T01:42:51.02Z</time></trkpt><trkpt lat="43.7182625" lon="7.9136115"><ele>0.0</ele><time>2026-05-01T01:42:52.019Z</time></trkpt><trkpt lat="43.7183672" lon="7.9138019"><ele>0.0</ele><time>2026-05-01T01:42:54.019Z</time></trkpt><trkpt lat="43.7184166" lon="7.9138965"><ele>0.0</ele><time>2026-05-01T01:42:55.02Z</time></trkpt><trkpt lat="43.7184651" lon="7.9139891"><ele>0.0</ele><time>2026-05-01T01:42:56.02Z</time></trkpt><trkpt lat="43.7185103" lon="7.9140789"><ele>0.0</ele><time>2026-05-01T01:42:57.019Z</time></trkpt><trkpt lat="43.7185577" lon="7.9141759"><ele>0.0</ele><time>2026-05-01T01:42:58.02Z</time></trkpt><trkpt lat="43.7186135" lon="7.9142642"><ele>0.0</ele><time>2026-05-01T01:42:59.02Z</time></trkpt><trkpt lat="43.7186603" lon="7.9143505"><ele>0.0</ele><time>2026-05-01T01:43:00.02Z</time></trkpt><trkpt lat="43.7187122" lon="7.914442"><ele>0.0</ele><time>2026-05-01T01:43:01.02Z</time></trkpt><trkpt lat="43.7187602" lon="7.9145298"><ele>0.0</ele><time>2026-05-01T01:43:02.02Z</time></trkpt><trkpt lat="43.7188127" lon="7.91462"><ele>0.0</ele><time>2026-05-01T01:43:03.019Z</time></trkpt><trkpt lat="43.7188664" lon="7.9147146"><ele>0.0</ele><time>2026-05-01T01:43:04.019Z</time></trkpt><trkpt lat="43.7189137" lon="7.9148098"><ele>0.0</ele><time>2026-05-01T01:43:05.019Z</time></trkpt><trkpt lat="43.7189632" lon="7.9149033"><ele>0.0</ele><time>2026-05-01T01:43:06.02Z</time></trkpt><trkpt lat="43.7190076" lon="7.914992"><ele>0.0</ele><time>2026-05-01T01:43:07.019Z</time></trkpt><trkpt lat="43.7190567" lon="7.9150822"><ele>0.0</ele><time>2026-05-01T01:43:08.019Z</time></trkpt><trkpt lat="43.7191038" lon="7.9151706"><ele>0.0</ele><time>2026-05-01T01:43:09.019Z</time></trkpt><trkpt lat="43.719199" lon="7.9153591"><ele>0.0</ele><time>2026-05-01T01:43:11.019Z</time></trkpt><trkpt lat="43.7192398" lon="7.9154559"><ele>0.0</ele><time>2026-05-01T01:43:12.019Z</time></trkpt><trkpt lat="43.7192844" lon="7.9155551"><ele>0.0</ele><time>2026-05-01T01:43:13.019Z</time></trkpt><trkpt lat="43.7193739" lon="7.9157469"><ele>0.0</ele><time>2026-05-01T01:43:15.02Z</time></trkpt><trkpt lat="43.7194186" lon="7.9158481"><ele>0.0</ele><time>2026-05-01T01:43:16.019Z</time></trkpt><trkpt lat="43.7194653" lon="7.9159411"><ele>0.0</ele><time>2026-05-01T01:43:17.019Z</time></trkpt><trkpt lat="43.7195116" lon="7.9160405"><ele>0.0</ele><time>2026-05-01T01:43:18.019Z</time></trkpt><trkpt lat="43.7195573" lon="7.9161363"><ele>0.0</ele><time>2026-05-01T01:43:19.019Z</time></trkpt><trkpt lat="43.7195978" lon="7.9162325"><ele>0.0</ele><time>2026-05-01T01:43:20.019Z</time></trkpt><trkpt lat="43.7196418" lon="7.9163294"><ele>0.0</ele><time>2026-05-01T01:43:21.02Z</time></trkpt><trkpt lat="43.7196954" lon="7.9164159"><ele>0.0</ele><time>2026-05-01T01:43:22.019Z</time></trkpt><trkpt lat="43.7197449" lon="7.9165038"><ele>0.0</ele><time>2026-05-01T01:43:23.019Z</time></trkpt><trkpt lat="43.719789" lon="7.9165894"><ele>0.0</ele><time>2026-05-01T01:43:24.019Z</time></trkpt><trkpt lat="43.7198339" lon="7.9166787"><ele>0.0</ele><time>2026-05-01T01:43:25.019Z</time></trkpt><trkpt lat="43.7198812" lon="7.916777"><ele>0.0</ele><time>2026-05-01T01:43:26.02Z</time></trkpt><trkpt lat="43.7199327" lon="7.9168708"><ele>0.0</ele><time>2026-05-01T01:43:27.019Z</time></trkpt><trkpt lat="43.7199803" lon="7.9169587"><ele>0.0</ele><time>2026-05-01T01:43:28.02Z</time></trkpt><trkpt lat="43.7200311" lon="7.9170485"><ele>0.0</ele><time>2026-05-01T01:43:29.02Z</time></trkpt><trkpt lat="43.7200824" lon="7.9171398"><ele>0.0</ele><time>2026-05-01T01:43:30.019Z</time></trkpt><trkpt lat="43.7201335" lon="7.9172299"><ele>0.0</ele><time>2026-05-01T01:43:31.019Z</time></trkpt><trkpt lat="43.7201818" lon="7.9173153"><ele>0.0</ele><time>2026-05-01T01:43:32.02Z</time></trkpt><trkpt lat="43.7202282" lon="7.9174089"><ele>0.0</ele><time>2026-05-01T01:43:33.019Z</time></trkpt><trkpt lat="43.7202743" lon="7.9175072"><ele>0.0</ele><time>2026-05-01T01:43:34.019Z</time></trkpt><trkpt lat="43.7203757" lon="7.9176986"><ele>0.0</ele><time>2026-05-01T01:43:36.02Z</time></trkpt><trkpt lat="43.720428" lon="7.9177919"><ele>0.0</ele><time>2026-05-01T01:43:37.019Z</time></trkpt><trkpt lat="43.7204759" lon="7.9178924"><ele>0.0</ele><time>2026-05-01T01:43:38.02Z</time></trkpt><trkpt lat="43.7205289" lon="7.917985"><ele>0.0</ele><time>2026-05-01T01:43:39.019Z</time></trkpt><trkpt lat="43.7205786" lon="7.9180757"><ele>0.0</ele><time>2026-05-01T01:43:40.02Z</time></trkpt><trkpt lat="43.7206291" lon="7.91816"><ele>0.0</ele><time>2026-05-01T01:43:41.02Z</time></trkpt><trkpt lat="43.72068" lon="7.9182482"><ele>0.0</ele><time>2026-05-01T01:43:42.02Z</time></trkpt><trkpt lat="43.7207674" lon="7.918425"><ele>0.0</ele><time>2026-05-01T01:43:44.02Z</time></trkpt><trkpt lat="43.720812" lon="7.9185147"><ele>0.0</ele><time>2026-05-01T01:43:45.019Z</time></trkpt><trkpt lat="43.7208576" lon="7.9186086"><ele>0.0</ele><time>2026-05-01T01:43:46.019Z</time></trkpt><trkpt lat="43.7209025" lon="7.9187037"><ele>0.0</ele><time>2026-05-01T01:43:47.019Z</time></trkpt><trkpt lat="43.7209484" lon="7.9188011"><ele>0.0</ele><time>2026-05-01T01:43:48.02Z</time></trkpt><trkpt lat="43.720997" lon="7.9188928"><ele>0.0</ele><time>2026-05-01T01:43:49.019Z</time></trkpt><trkpt lat="43.7210407" lon="7.9189843"><ele>0.0</ele><time>2026-05-01T01:43:50.02Z</time></trkpt><trkpt lat="43.721087" lon="7.919075"><ele>0.0</ele><time>2026-05-01T01:43:51.019Z</time></trkpt><trkpt lat="43.721139" lon="7.9191648"><ele>0.0</ele><time>2026-05-01T01:43:52.019Z</time></trkpt><trkpt lat="43.7211938" lon="7.9192604"><ele>0.0</ele><time>2026-05-01T01:43:53.019Z</time></trkpt><trkpt lat="43.7212387" lon="7.9193584"><ele>0.0</ele><time>2026-05-01T01:43:54.02Z</time></trkpt><trkpt lat="43.721278" lon="7.9194511"><ele>0.0</ele><time>2026-05-01T01:43:55.02Z</time></trkpt><trkpt lat="43.7213756" lon="7.9196371"><ele>0.0</ele><time>2026-05-01T01:43:57.02Z</time></trkpt><trkpt lat="43.7214251" lon="7.9197293"><ele>0.0</ele><time>2026-05-01T01:43:58.019Z</time></trkpt><trkpt lat="43.7214723" lon="7.9198231"><ele>0.0</ele><time>2026-05-01T01:43:59.019Z</time></trkpt><trkpt lat="43.7215129" lon="7.9199085"><ele>0.0</ele><time>2026-05-01T01:44:00.02Z</time></trkpt><trkpt lat="43.7215541" lon="7.9200008"><ele>0.0</ele><time>2026-05-01T01:44:01.019Z</time></trkpt><trkpt lat="43.7216011" lon="7.920099"><ele>0.0</ele><time>2026-05-01T01:44:02.02Z</time></trkpt><trkpt lat="43.7216478" lon="7.9201947"><ele>0.0</ele><time>2026-05-01T01:44:03.019Z</time></trkpt><trkpt lat="43.721699" lon="7.9202916"><ele>0.0</ele><time>2026-05-01T01:44:04.02Z</time></trkpt><trkpt lat="43.7217495" lon="7.9203852"><ele>0.0</ele><time>2026-05-01T01:44:05.02Z</time></trkpt><trkpt lat="43.721798" lon="7.9204773"><ele>0.0</ele><time>2026-05-01T01:44:06.019Z</time></trkpt><trkpt lat="43.7218459" lon="7.9205728"><ele>0.0</ele><time>2026-05-01T01:44:07.02Z</time></trkpt><trkpt lat="43.7218989" lon="7.9206698"><ele>0.0</ele><time>2026-05-01T01:44:08.019Z</time></trkpt><trkpt lat="43.7219522" lon="7.9207577"><ele>0.0</ele><time>2026-05-01T01:44:09.019Z</time></trkpt><trkpt lat="43.7220032" lon="7.9208472"><ele>0.0</ele><time>2026-05-01T01:44:10.019Z</time></trkpt><trkpt lat="43.7220488" lon="7.9209343"><ele>0.0</ele><time>2026-05-01T01:44:11.019Z</time></trkpt><trkpt lat="43.7220976" lon="7.9210309"><ele>0.0</ele><time>2026-05-01T01:44:12.019Z</time></trkpt><trkpt lat="43.7221478" lon="7.9211276"><ele>0.0</ele><time>2026-05-01T01:44:13.019Z</time></trkpt><trkpt lat="43.7221978" lon="7.9212291"><ele>0.0</ele><time>2026-05-01T01:44:14.02Z</time></trkpt><trkpt lat="43.7222859" lon="7.9214233"><ele>0.0</ele><time>2026-05-01T01:44:16.019Z</time></trkpt><trkpt lat="43.7223774" lon="7.9216124"><ele>0.0</ele><time>2026-05-01T01:44:18.019Z</time></trkpt><trkpt lat="43.7224264" lon="7.921707"><ele>0.0</ele><time>2026-05-01T01:44:19.019Z</time></trkpt><trkpt lat="43.7224761" lon="7.9218026"><ele>0.0</ele><time>2026-05-01T01:44:20.019Z</time></trkpt><trkpt lat="43.7225264" lon="7.9218937"><ele>0.0</ele><time>2026-05-01T01:44:21.02Z</time></trkpt><trkpt lat="43.7225732" lon="7.9219924"><ele>0.0</ele><time>2026-05-01T01:44:22.02Z</time></trkpt><trkpt lat="43.7226233" lon="7.9220906"><ele>0.0</ele><time>2026-05-01T01:44:23.019Z</time></trkpt><trkpt lat="43.7226737" lon="7.9221783"><ele>0.0</ele><time>2026-05-01T01:44:24.019Z</time></trkpt><trkpt lat="43.7227232" lon="7.9222669"><ele>0.0</ele><time>2026-05-01T01:44:25.02Z</time></trkpt><trkpt lat="43.7227766" lon="7.9223502"><ele>0.0</ele><time>2026-05-01T01:44:26.019Z</time></trkpt><trkpt lat="43.722831" lon="7.9224325"><ele>0.0</ele><time>2026-05-01T01:44:27.019Z</time></trkpt><trkpt lat="43.7228848" lon="7.9225161"><ele>0.0</ele><time>2026-05-01T01:44:28.02Z</time></trkpt><trkpt lat="43.7229382" lon="7.9226005"><ele>0.0</ele><time>2026-05-01T01:44:29.019Z</time></trkpt><trkpt lat="43.7229914" lon="7.9226871"><ele>0.0</ele><time>2026-05-01T01:44:30.02Z</time></trkpt><trkpt lat="43.7230444" lon="7.922774"><ele>0.0</ele><time>2026-05-01T01:44:31.02Z</time></trkpt><trkpt lat="43.7230947" lon="7.9228704"><ele>0.0</ele><time>2026-05-01T01:44:32.019Z</time></trkpt><trkpt lat="43.7231432" lon="7.922964"><ele>0.0</ele><time>2026-05-01T01:44:33.019Z</time></trkpt><trkpt lat="43.723192" lon="7.9230515"><ele>0.0</ele><time>2026-05-01T01:44:34.02Z</time></trkpt><trkpt lat="43.723243" lon="7.9231384"><ele>0.0</ele><time>2026-05-01T01:44:35.019Z</time></trkpt><trkpt lat="43.7232822" lon="7.9232347"><ele>0.0</ele><time>2026-05-01T01:44:36.02Z</time></trkpt><trkpt lat="43.7233204" lon="7.9233312"><ele>0.0</ele><time>2026-05-01T01:44:37.02Z</time></trkpt><trkpt lat="43.7234154" lon="7.9235134"><ele>0.0</ele><time>2026-05-01T01:44:39.02Z</time></trkpt><trkpt lat="43.7234566" lon="7.9236093"><ele>0.0</ele><time>2026-05-01T01:44:40.019Z</time></trkpt><trkpt lat="43.7234991" lon="7.923703"><ele>0.0</ele><time>2026-05-01T01:44:41.019Z</time></trkpt><trkpt lat="43.7235438" lon="7.923798"><ele>0.0</ele><time>2026-05-01T01:44:42.02Z</time></trkpt><trkpt lat="43.7235907" lon="7.9238902"><ele>0.0</ele><time>2026-05-01T01:44:43.019Z</time></trkpt><trkpt lat="43.7236356" lon="7.9239776"><ele>0.0</ele><time>2026-05-01T01:44:44.019Z</time></trkpt><trkpt lat="43.7236802" lon="7.9240711"><ele>0.0</ele><time>2026-05-01T01:44:45.02Z</time></trkpt><trkpt lat="43.7237267" lon="7.9241665"><ele>0.0</ele><time>2026-05-01T01:44:46.02Z</time></trkpt><trkpt lat="43.7237768" lon="7.9242553"><ele>0.0</ele><time>2026-05-01T01:44:47.02Z</time></trkpt><trkpt lat="43.7238667" lon="7.9244296"><ele>0.0</ele><time>2026-05-01T01:44:49.02Z</time></trkpt><trkpt lat="43.7239093" lon="7.9245173"><ele>0.0</ele><time>2026-05-01T01:44:50.02Z</time></trkpt><trkpt lat="43.7239524" lon="7.9246072"><ele>0.0</ele><time>2026-05-01T01:44:51.019Z</time></trkpt><trkpt lat="43.7239955" lon="7.924711"><ele>0.0</ele><time>2026-05-01T01:44:52.019Z</time></trkpt><trkpt lat="43.7240415" lon="7.9248165"><ele>0.0</ele><time>2026-05-01T01:44:53.019Z</time></trkpt><trkpt lat="43.7240856" lon="7.9249171"><ele>0.0</ele><time>2026-05-01T01:44:54.019Z</time></trkpt><trkpt lat="43.7241333" lon="7.9250134"><ele>0.0</ele><time>2026-05-01T01:44:55.02Z</time></trkpt><trkpt lat="43.7241843" lon="7.9251094"><ele>0.0</ele><time>2026-05-01T01:44:56.019Z</time></trkpt><trkpt lat="43.7242332" lon="7.9252026"><ele>0.0</ele><time>2026-05-01T01:44:57.02Z</time></trkpt><trkpt lat="43.7242759" lon="7.9253047"><ele>0.0</ele><time>2026-05-01T01:44:58.019Z</time></trkpt><trkpt lat="43.7243702" lon="7.9254915"><ele>0.0</ele><time>2026-05-01T01:45:00.019Z</time></trkpt><trkpt lat="43.7244153" lon="7.9255867"><ele>0.0</ele><time>2026-05-01T01:45:01.019Z</time></trkpt><trkpt lat="43.7244601" lon="7.9256805"><ele>0.0</ele><time>2026-05-01T01:45:02.019Z</time></trkpt><trkpt lat="43.7245137" lon="7.9257679"><ele>0.0</ele><time>2026-05-01T01:45:03.02Z</time></trkpt><trkpt lat="43.7245702" lon="7.9258487"><ele>0.0</ele><time>2026-05-01T01:45:04.02Z</time></trkpt><trkpt lat="43.7246233" lon="7.9259349"><ele>0.0</ele><time>2026-05-01T01:45:05.019Z</time></trkpt><trkpt lat="43.7246717" lon="7.9260191"><ele>0.0</ele><time>2026-05-01T01:45:06.019Z</time></trkpt><trkpt lat="43.7247207" lon="7.9261097"><ele>0.0</ele><time>2026-05-01T01:45:07.019Z</time></trkpt><trkpt lat="43.7247683" lon="7.9261987"><ele>0.0</ele><time>2026-05-01T01:45:08.019Z</time></trkpt><trkpt lat="43.7248189" lon="7.9262933"><ele>0.0</ele><time>2026-05-01T01:45:09.019Z</time></trkpt><trkpt lat="43.7248735" lon="7.9263913"><ele>0.0</ele><time>2026-05-01T01:45:10.019Z</time></trkpt><trkpt lat="43.724923" lon="7.9264851"><ele>0.0</ele><time>2026-05-01T01:45:11.02Z</time></trkpt><trkpt lat="43.7249783" lon="7.9265785"><ele>0.0</ele><time>2026-05-01T01:45:12.019Z</time></trkpt><trkpt lat="43.7250382" lon="7.9266719"><ele>0.0</ele><time>2026-05-01T01:45:13.019Z</time></trkpt><trkpt lat="43.725097" lon="7.9267653"><ele>0.0</ele><time>2026-05-01T01:45:14.02Z</time></trkpt><trkpt lat="43.7251509" lon="7.9268585"><ele>0.0</ele><time>2026-05-01T01:45:15.019Z</time></trkpt><trkpt lat="43.7252046" lon="7.9269514"><ele>0.0</ele><time>2026-05-01T01:45:16.019Z</time></trkpt><trkpt lat="43.7252562" lon="7.9270449"><ele>0.0</ele><time>2026-05-01T01:45:17.019Z</time></trkpt><trkpt lat="43.7253063" lon="7.9271394"><ele>0.0</ele><time>2026-05-01T01:45:18.019Z</time></trkpt><trkpt lat="43.7253568" lon="7.9272276"><ele>0.0</ele><time>2026-05-01T01:45:19.019Z</time></trkpt><trkpt lat="43.7254041" lon="7.9273124"><ele>0.0</ele><time>2026-05-01T01:45:20.019Z</time></trkpt><trkpt lat="43.7255327" lon="7.9275602"><ele>0.0</ele><time>2026-05-01T01:45:23.019Z</time></trkpt><trkpt lat="43.7255781" lon="7.9276503"><ele>0.0</ele><time>2026-05-01T01:45:24.019Z</time></trkpt><trkpt lat="43.725625" lon="7.927747"><ele>0.0</ele><time>2026-05-01T01:45:25.02Z</time></trkpt><trkpt lat="43.7256721" lon="7.9278383"><ele>0.0</ele><time>2026-05-01T01:45:26.02Z</time></trkpt><trkpt lat="43.7257199" lon="7.9279349"><ele>0.0</ele><time>2026-05-01T01:45:27.02Z</time></trkpt><trkpt lat="43.7257723" lon="7.9280259"><ele>0.0</ele><time>2026-05-01T01:45:28.02Z</time></trkpt><trkpt lat="43.7258238" lon="7.9281196"><ele>0.0</ele><time>2026-05-01T01:45:29.02Z</time></trkpt><trkpt lat="43.7258717" lon="7.9282106"><ele>0.0</ele><time>2026-05-01T01:45:30.02Z</time></trkpt><trkpt lat="43.725916" lon="7.9283009"><ele>0.0</ele><time>2026-05-01T01:45:31.02Z</time></trkpt><trkpt lat="43.7259621" lon="7.9283923"><ele>0.0</ele><time>2026-05-01T01:45:32.02Z</time></trkpt><trkpt lat="43.7260046" lon="7.9284863"><ele>0.0</ele><time>2026-05-01T01:45:33.02Z</time></trkpt><trkpt lat="43.7260505" lon="7.928584"><ele>0.0</ele><time>2026-05-01T01:45:34.019Z</time></trkpt><trkpt lat="43.7260954" lon="7.9286806"><ele>0.0</ele><time>2026-05-01T01:45:35.019Z</time></trkpt><trkpt lat="43.7261419" lon="7.9287777"><ele>0.0</ele><time>2026-05-01T01:45:36.02Z</time></trkpt><trkpt lat="43.7261804" lon="7.9288729"><ele>0.0</ele><time>2026-05-01T01:45:37.019Z</time></trkpt><trkpt lat="43.7262226" lon="7.9289813"><ele>0.0</ele><time>2026-05-01T01:45:38.02Z</time></trkpt><trkpt lat="43.726267" lon="7.9290912"><ele>0.0</ele><time>2026-05-01T01:45:39.02Z</time></trkpt><trkpt lat="43.7263142" lon="7.9291909"><ele>0.0</ele><time>2026-05-01T01:45:40.019Z</time></trkpt><trkpt lat="43.7263615" lon="7.9292856"><ele>0.0</ele><time>2026-05-01T01:45:41.019Z</time></trkpt><trkpt lat="43.7264082" lon="7.9293801"><ele>0.0</ele><time>2026-05-01T01:45:42.019Z</time></trkpt><trkpt lat="43.7265002" lon="7.9295535"><ele>0.0</ele><time>2026-05-01T01:45:44.019Z</time></trkpt><trkpt lat="43.7265424" lon="7.9296421"><ele>0.0</ele><time>2026-05-01T01:45:45.019Z</time></trkpt><trkpt lat="43.7265912" lon="7.9297271"><ele>0.0</ele><time>2026-05-01T01:45:46.019Z</time></trkpt><trkpt lat="43.7266396" lon="7.9298163"><ele>0.0</ele><time>2026-05-01T01:45:47.02Z</time></trkpt><trkpt lat="43.7266911" lon="7.9299073"><ele>0.0</ele><time>2026-05-01T01:45:48.019Z</time></trkpt><trkpt lat="43.7267387" lon="7.9300022"><ele>0.0</ele><time>2026-05-01T01:45:49.019Z</time></trkpt><trkpt lat="43.7267854" lon="7.9301017"><ele>0.0</ele><time>2026-05-01T01:45:50.02Z</time></trkpt><trkpt lat="43.72683" lon="7.9301995"><ele>0.0</ele><time>2026-05-01T01:45:51.019Z</time></trkpt><trkpt lat="43.7268695" lon="7.9302925"><ele>0.0</ele><time>2026-05-01T01:45:52.019Z</time></trkpt><trkpt lat="43.7269233" lon="7.9303853"><ele>0.0</ele><time>2026-05-01T01:45:53.02Z</time></trkpt><trkpt lat="43.7270196" lon="7.9305741"><ele>0.0</ele><time>2026-05-01T01:45:55.02Z</time></trkpt><trkpt lat="43.727069" lon="7.9306633"><ele>0.0</ele><time>2026-05-01T01:45:56.019Z</time></trkpt><trkpt lat="43.727112" lon="7.9307569"><ele>0.0</ele><time>2026-05-01T01:45:57.02Z</time></trkpt><trkpt lat="43.7271596" lon="7.9308509"><ele>0.0</ele><time>2026-05-01T01:45:58.02Z</time></trkpt><trkpt lat="43.727211" lon="7.9309429"><ele>0.0</ele><time>2026-05-01T01:45:59.02Z</time></trkpt><trkpt lat="43.7272575" lon="7.931033"><ele>0.0</ele><time>2026-05-01T01:46:00.019Z</time></trkpt><trkpt lat="43.7273095" lon="7.9311209"><ele>0.0</ele><time>2026-05-01T01:46:01.02Z</time></trkpt><trkpt lat="43.7273623" lon="7.9312078"><ele>0.0</ele><time>2026-05-01T01:46:02.019Z</time></trkpt><trkpt lat="43.7274099" lon="7.931296"><ele>0.0</ele><time>2026-05-01T01:46:03.02Z</time></trkpt><trkpt lat="43.7275051" lon="7.9314957"><ele>0.0</ele><time>2026-05-01T01:46:05.019Z</time></trkpt><trkpt lat="43.7275523" lon="7.931596"><ele>0.0</ele><time>2026-05-01T01:46:06.02Z</time></trkpt><trkpt lat="43.7276037" lon="7.9317082"><ele>0.0</ele><time>2026-05-01T01:46:07.019Z</time></trkpt><trkpt lat="43.7276543" lon="7.9318102"><ele>0.0</ele><time>2026-05-01T01:46:08.019Z</time></trkpt><trkpt lat="43.7277058" lon="7.9318951"><ele>0.0</ele><time>2026-05-01T01:46:09.02Z</time></trkpt><trkpt lat="43.7277523" lon="7.9319835"><ele>0.0</ele><time>2026-05-01T01:46:10.02Z</time></trkpt><trkpt lat="43.7277959" lon="7.9320817"><ele>0.0</ele><time>2026-05-01T01:46:11.02Z</time></trkpt><trkpt lat="43.7278361" lon="7.9321728"><ele>0.0</ele><time>2026-05-01T01:46:12.02Z</time></trkpt><trkpt lat="43.7278831" lon="7.9322614"><ele>0.0</ele><time>2026-05-01T01:46:13.02Z</time></trkpt><trkpt lat="43.7279301" lon="7.9323503"><ele>0.0</ele><time>2026-05-01T01:46:14.02Z</time></trkpt><trkpt lat="43.7279739" lon="7.9324429"><ele>0.0</ele><time>2026-05-01T01:46:15.019Z</time></trkpt><trkpt lat="43.7280227" lon="7.932529"><ele>0.0</ele><time>2026-05-01T01:46:16.019Z</time></trkpt><trkpt lat="43.7280684" lon="7.93262"><ele>0.0</ele><time>2026-05-01T01:46:17.019Z</time></trkpt><trkpt lat="43.7281131" lon="7.9327057"><ele>0.0</ele><time>2026-05-01T01:46:18.019Z</time></trkpt><trkpt lat="43.7281592" lon="7.9327902"><ele>0.0</ele><time>2026-05-01T01:46:19.019Z</time></trkpt><trkpt lat="43.7282108" lon="7.9328804"><ele>0.0</ele><time>2026-05-01T01:46:20.019Z</time></trkpt><trkpt lat="43.7282682" lon="7.9329716"><ele>0.0</ele><time>2026-05-01T01:46:21.019Z</time></trkpt><trkpt lat="43.7283196" lon="7.9330665"><ele>0.0</ele><time>2026-05-01T01:46:22.019Z</time></trkpt><trkpt lat="43.72837" lon="7.933167"><ele>0.0</ele><time>2026-05-01T01:46:23.019Z</time></trkpt><trkpt lat="43.7284129" lon="7.9332576"><ele>0.0</ele><time>2026-05-01T01:46:24.018Z</time></trkpt><trkpt lat="43.7285126" lon="7.9334347"><ele>0.0</ele><time>2026-05-01T01:46:26.018Z</time></trkpt><trkpt lat="43.7286163" lon="7.9336133"><ele>0.0</ele><time>2026-05-01T01:46:28.018Z</time></trkpt><trkpt lat="43.7286711" lon="7.9337101"><ele>0.0</ele><time>2026-05-01T01:46:29.019Z</time></trkpt><trkpt lat="43.7287232" lon="7.9338059"><ele>0.0</ele><time>2026-05-01T01:46:30.018Z</time></trkpt><trkpt lat="43.7287732" lon="7.9339071"><ele>0.0</ele><time>2026-05-01T01:46:31.018Z</time></trkpt><trkpt lat="43.728821" lon="7.9340043"><ele>0.0</ele><time>2026-05-01T01:46:32.018Z</time></trkpt><trkpt lat="43.7288655" lon="7.9341029"><ele>0.0</ele><time>2026-05-01T01:46:33.018Z</time></trkpt><trkpt lat="43.7289116" lon="7.9342016"><ele>0.0</ele><time>2026-05-01T01:46:34.018Z</time></trkpt><trkpt lat="43.7289607" lon="7.9342936"><ele>0.0</ele><time>2026-05-01T01:46:35.018Z</time></trkpt><trkpt lat="43.7290077" lon="7.9343858"><ele>0.0</ele><time>2026-05-01T01:46:36.019Z</time></trkpt><trkpt lat="43.7290485" lon="7.9344741"><ele>0.0</ele><time>2026-05-01T01:46:37.018Z</time></trkpt><trkpt lat="43.7290887" lon="7.9345621"><ele>0.0</ele><time>2026-05-01T01:46:38.019Z</time></trkpt><trkpt lat="43.7291337" lon="7.93465"><ele>0.0</ele><time>2026-05-01T01:46:39.019Z</time></trkpt><trkpt lat="43.7291757" lon="7.9347405"><ele>0.0</ele><time>2026-05-01T01:46:40.018Z</time></trkpt><trkpt lat="43.7292187" lon="7.9348278"><ele>0.0</ele><time>2026-05-01T01:46:41.019Z</time></trkpt><trkpt lat="43.7292618" lon="7.9349177"><ele>0.0</ele><time>2026-05-01T01:46:42.018Z</time></trkpt><trkpt lat="43.7293099" lon="7.9350117"><ele>0.0</ele><time>2026-05-01T01:46:43.018Z</time></trkpt><trkpt lat="43.7293595" lon="7.9351007"><ele>0.0</ele><time>2026-05-01T01:46:44.018Z</time></trkpt><trkpt lat="43.7294035" lon="7.9351962"><ele>0.0</ele><time>2026-05-01T01:46:45.018Z</time></trkpt><trkpt lat="43.7294981" lon="7.9353752"><ele>0.0</ele><time>2026-05-01T01:46:47.019Z</time></trkpt><trkpt lat="43.729542" lon="7.9354782"><ele>0.0</ele><time>2026-05-01T01:46:48.018Z</time></trkpt><trkpt lat="43.7295887" lon="7.9355682"><ele>0.0</ele><time>2026-05-01T01:46:49.018Z</time></trkpt><trkpt lat="43.7296309" lon="7.9356586"><ele>0.0</ele><time>2026-05-01T01:46:50.018Z</time></trkpt><trkpt lat="43.729678" lon="7.9357567"><ele>0.0</ele><time>2026-05-01T01:46:51.019Z</time></trkpt><trkpt lat="43.729725" lon="7.9358571"><ele>0.0</ele><time>2026-05-01T01:46:52.019Z</time></trkpt><trkpt lat="43.7297718" lon="7.935959"><ele>0.0</ele><time>2026-05-01T01:46:53.019Z</time></trkpt><trkpt lat="43.7298198" lon="7.9360578"><ele>0.0</ele><time>2026-05-01T01:46:54.018Z</time></trkpt><trkpt lat="43.7298654" lon="7.9361609"><ele>0.0</ele><time>2026-05-01T01:46:55.019Z</time></trkpt><trkpt lat="43.7299077" lon="7.9362547"><ele>0.0</ele><time>2026-05-01T01:46:56.019Z</time></trkpt><trkpt lat="43.7299554" lon="7.9363412"><ele>0.0</ele><time>2026-05-01T01:46:57.019Z</time></trkpt><trkpt lat="43.730004" lon="7.9364322"><ele>0.0</ele><time>2026-05-01T01:46:58.019Z</time></trkpt><trkpt lat="43.7300586" lon="7.9365208"><ele>0.0</ele><time>2026-05-01T01:46:59.019Z</time></trkpt><trkpt lat="43.730168" lon="7.9366908"><ele>0.0</ele><time>2026-05-01T01:47:01.018Z</time></trkpt><trkpt lat="43.7302191" lon="7.9367732"><ele>0.0</ele><time>2026-05-01T01:47:02.019Z</time></trkpt><trkpt lat="43.7302694" lon="7.9368647"><ele>0.0</ele><time>2026-05-01T01:47:03.018Z</time></trkpt><trkpt lat="43.7303085" lon="7.9369599"><ele>0.0</ele><time>2026-05-01T01:47:04.018Z</time></trkpt><trkpt lat="43.7303501" lon="7.9370495"><ele>0.0</ele><time>2026-05-01T01:47:05.018Z</time></trkpt><trkpt lat="43.7303935" lon="7.9371359"><ele>0.0</ele><time>2026-05-01T01:47:06.018Z</time></trkpt><trkpt lat="43.7304815" lon="7.9373156"><ele>0.0</ele><time>2026-05-01T01:47:08.018Z</time></trkpt><trkpt lat="43.7305296" lon="7.9374071"><ele>0.0</ele><time>2026-05-01T01:47:09.019Z</time></trkpt><trkpt lat="43.7305765" lon="7.9374954"><ele>0.0</ele><time>2026-05-01T01:47:10.019Z</time></trkpt><trkpt lat="43.7306272" lon="7.9375857"><ele>0.0</ele><time>2026-05-01T01:47:11.019Z</time></trkpt><trkpt lat="43.7306752" lon="7.9376814"><ele>0.0</ele><time>2026-05-01T01:47:12.018Z</time></trkpt><trkpt lat="43.7307233" lon="7.9377714"><ele>0.0</ele><time>2026-05-01T01:47:13.019Z</time></trkpt><trkpt lat="43.7307728" lon="7.9378647"><ele>0.0</ele><time>2026-05-01T01:47:14.018Z</time></trkpt><trkpt lat="43.7308213" lon="7.937959"><ele>0.0</ele><time>2026-05-01T01:47:15.018Z</time></trkpt><trkpt lat="43.7308725" lon="7.938055"><ele>0.0</ele><time>2026-05-01T01:47:16.018Z</time></trkpt><trkpt lat="43.7309229" lon="7.9381557"><ele>0.0</ele><time>2026-05-01T01:47:17.018Z</time></trkpt><trkpt lat="43.7309684" lon="7.9382515"><ele>0.0</ele><time>2026-05-01T01:47:18.019Z</time></trkpt><trkpt lat="43.7310161" lon="7.9383479"><ele>0.0</ele><time>2026-05-01T01:47:19.018Z</time></trkpt><trkpt lat="43.7310655" lon="7.9384436"><ele>0.0</ele><time>2026-05-01T01:47:20.019Z</time></trkpt><trkpt lat="43.73112" lon="7.9385409"><ele>0.0</ele><time>2026-05-01T01:47:21.018Z</time></trkpt><trkpt lat="43.7311741" lon="7.9386391"><ele>0.0</ele><time>2026-05-01T01:47:22.019Z</time></trkpt><trkpt lat="43.7312265" lon="7.9387339"><ele>0.0</ele><time>2026-05-01T01:47:23.019Z</time></trkpt><trkpt lat="43.7312752" lon="7.938825"><ele>0.0</ele><time>2026-05-01T01:47:24.019Z</time></trkpt><trkpt lat="43.7313121" lon="7.9389249"><ele>0.0</ele><time>2026-05-01T01:47:25.019Z</time></trkpt><trkpt lat="43.7313497" lon="7.9390182"><ele>0.0</ele><time>2026-05-01T01:47:26.018Z</time></trkpt><trkpt lat="43.731385" lon="7.93911"><ele>0.0</ele><time>2026-05-01T01:47:27.018Z</time></trkpt><trkpt lat="43.73147" lon="7.9393032"><ele>0.0</ele><time>2026-05-01T01:47:29.018Z</time></trkpt><trkpt lat="43.7315151" lon="7.9393925"><ele>0.0</ele><time>2026-05-01T01:47:30.019Z</time></trkpt><trkpt lat="43.7315643" lon="7.9394878"><ele>0.0</ele><time>2026-05-01T01:47:31.018Z</time></trkpt><trkpt lat="43.7316147" lon="7.9395801"><ele>0.0</ele><time>2026-05-01T01:47:32.019Z</time></trkpt><trkpt lat="43.7316617" lon="7.939669"><ele>0.0</ele><time>2026-05-01T01:47:33.019Z</time></trkpt><trkpt lat="43.731708" lon="7.9397601"><ele>0.0</ele><time>2026-05-01T01:47:34.019Z</time></trkpt><trkpt lat="43.7317616" lon="7.9398442"><ele>0.0</ele><time>2026-05-01T01:47:35.019Z</time></trkpt><trkpt lat="43.7318157" lon="7.9399259"><ele>0.0</ele><time>2026-05-01T01:47:36.018Z</time></trkpt><trkpt lat="43.7318705" lon="7.9400106"><ele>0.0</ele><time>2026-05-01T01:47:37.018Z</time></trkpt><trkpt lat="43.7319242" lon="7.9401001"><ele>0.0</ele><time>2026-05-01T01:47:38.019Z</time></trkpt><trkpt lat="43.7319747" lon="7.9401877"><ele>0.0</ele><time>2026-05-01T01:47:39.018Z</time></trkpt><trkpt lat="43.7320261" lon="7.9402771"><ele>0.0</ele><time>2026-05-01T01:47:40.019Z</time></trkpt><trkpt lat="43.7320722" lon="7.9403743"><ele>0.0</ele><time>2026-05-01T01:47:41.018Z</time></trkpt><trkpt lat="43.7321213" lon="7.9404701"><ele>0.0</ele><time>2026-05-01T01:47:42.018Z</time></trkpt><trkpt lat="43.7321696" lon="7.9405664"><ele>0.0</ele><time>2026-05-01T01:47:43.019Z</time></trkpt><trkpt lat="43.7322164" lon="7.9406613"><ele>0.0</ele><time>2026-05-01T01:47:44.019Z</time></trkpt><trkpt lat="43.7322619" lon="7.9407532"><ele>0.0</ele><time>2026-05-01T01:47:45.018Z</time></trkpt><trkpt lat="43.7323102" lon="7.9408415"><ele>0.0</ele><time>2026-05-01T01:47:46.019Z</time></trkpt><trkpt lat="43.7323586" lon="7.9409329"><ele>0.0</ele><time>2026-05-01T01:47:47.019Z</time></trkpt><trkpt lat="43.7324028" lon="7.941025"><ele>0.0</ele><time>2026-05-01T01:47:48.018Z</time></trkpt><trkpt lat="43.7324932" lon="7.9412091"><ele>0.0</ele><time>2026-05-01T01:47:50.019Z</time></trkpt><trkpt lat="43.7325415" lon="7.941305"><ele>0.0</ele><time>2026-05-01T01:47:51.019Z</time></trkpt><trkpt lat="43.7325911" lon="7.941399"><ele>0.0</ele><time>2026-05-01T01:47:52.019Z</time></trkpt><trkpt lat="43.7326414" lon="7.9414949"><ele>0.0</ele><time>2026-05-01T01:47:53.019Z</time></trkpt><trkpt lat="43.7326889" lon="7.9415898"><ele>0.0</ele><time>2026-05-01T01:47:54.019Z</time></trkpt><trkpt lat="43.7327338" lon="7.9416815"><ele>0.0</ele><time>2026-05-01T01:47:55.018Z</time></trkpt><trkpt lat="43.7327799" lon="7.9417687"><ele>0.0</ele><time>2026-05-01T01:47:56.018Z</time></trkpt><trkpt lat="43.7328284" lon="7.9418566"><ele>0.0</ele><time>2026-05-01T01:47:57.018Z</time></trkpt><trkpt lat="43.7328754" lon="7.9419435"><ele>0.0</ele><time>2026-05-01T01:47:58.019Z</time></trkpt><trkpt lat="43.7329246" lon="7.9420332"><ele>0.0</ele><time>2026-05-01T01:47:59.018Z</time></trkpt><trkpt lat="43.7329731" lon="7.9421263"><ele>0.0</ele><time>2026-05-01T01:48:00.018Z</time></trkpt><trkpt lat="43.7330198" lon="7.9422214"><ele>0.0</ele><time>2026-05-01T01:48:01.018Z</time></trkpt><trkpt lat="43.7330581" lon="7.9423208"><ele>0.0</ele><time>2026-05-01T01:48:02.018Z</time></trkpt><trkpt lat="43.7331018" lon="7.9424183"><ele>0.0</ele><time>2026-05-01T01:48:03.019Z</time></trkpt><trkpt lat="43.7331485" lon="7.9425148"><ele>0.0</ele><time>2026-05-01T01:48:04.018Z</time></trkpt><trkpt lat="43.7332443" lon="7.9427166"><ele>0.0</ele><time>2026-05-01T01:48:06.019Z</time></trkpt><trkpt lat="43.7332934" lon="7.9428116"><ele>0.0</ele><time>2026-05-01T01:48:07.018Z</time></trkpt><trkpt lat="43.7333378" lon="7.9429059"><ele>0.0</ele><time>2026-05-01T01:48:08.018Z</time></trkpt><trkpt lat="43.7333815" lon="7.9429952"><ele>0.0</ele><time>2026-05-01T01:48:09.019Z</time></trkpt><trkpt lat="43.7334896" lon="7.9431682"><ele>0.0</ele><time>2026-05-01T01:48:11.019Z</time></trkpt><trkpt lat="43.7335498" lon="7.9432576"><ele>0.0</ele><time>2026-05-01T01:48:12.019Z</time></trkpt><trkpt lat="43.7336015" lon="7.9433496"><ele>0.0</ele><time>2026-05-01T01:48:13.019Z</time></trkpt><trkpt lat="43.7336529" lon="7.9434447"><ele>0.0</ele><time>2026-05-01T01:48:14.019Z</time></trkpt><trkpt lat="43.7337004" lon="7.9435447"><ele>0.0</ele><time>2026-05-01T01:48:15.019Z</time></trkpt><trkpt lat="43.7337383" lon="7.9436429"><ele>0.0</ele><time>2026-05-01T01:48:16.019Z</time></trkpt><trkpt lat="43.7337805" lon="7.9437397"><ele>0.0</ele><time>2026-05-01T01:48:17.018Z</time></trkpt><trkpt lat="43.7338227" lon="7.943842"><ele>0.0</ele><time>2026-05-01T01:48:18.018Z</time></trkpt><trkpt lat="43.7338685" lon="7.9439391"><ele>0.0</ele><time>2026-05-01T01:48:19.018Z</time></trkpt><trkpt lat="43.7339153" lon="7.944034"><ele>0.0</ele><time>2026-05-01T01:48:20.019Z</time></trkpt><trkpt lat="43.7339635" lon="7.9441302"><ele>0.0</ele><time>2026-05-01T01:48:21.019Z</time></trkpt><trkpt lat="43.7340079" lon="7.9442254"><ele>0.0</ele><time>2026-05-01T01:48:22.018Z</time></trkpt><trkpt lat="43.7340494" lon="7.9443242"><ele>0.0</ele><time>2026-05-01T01:48:23.018Z</time></trkpt><trkpt lat="43.7340911" lon="7.9444203"><ele>0.0</ele><time>2026-05-01T01:48:24.019Z</time></trkpt><trkpt lat="43.7341364" lon="7.9445125"><ele>0.0</ele><time>2026-05-01T01:48:25.019Z</time></trkpt><trkpt lat="43.7341844" lon="7.9446063"><ele>0.0</ele><time>2026-05-01T01:48:26.019Z</time></trkpt><trkpt lat="43.7342331" lon="7.944702"><ele>0.0</ele><time>2026-05-01T01:48:27.019Z</time></trkpt><trkpt lat="43.7342858" lon="7.9447984"><ele>0.0</ele><time>2026-05-01T01:48:28.019Z</time></trkpt><trkpt lat="43.7343379" lon="7.9449006"><ele>0.0</ele><time>2026-05-01T01:48:29.019Z</time></trkpt><trkpt lat="43.7344297" lon="7.9451048"><ele>0.0</ele><time>2026-05-01T01:48:31.018Z</time></trkpt><trkpt lat="43.7344783" lon="7.9451988"><ele>0.0</ele><time>2026-05-01T01:48:32.019Z</time></trkpt><trkpt lat="43.7345196" lon="7.9452945"><ele>0.0</ele><time>2026-05-01T01:48:33.018Z</time></trkpt><trkpt lat="43.7345624" lon="7.945391"><ele>0.0</ele><time>2026-05-01T01:48:34.018Z</time></trkpt><trkpt lat="43.734607" lon="7.9454874"><ele>0.0</ele><time>2026-05-01T01:48:35.018Z</time></trkpt><trkpt lat="43.7346461" lon="7.9455863"><ele>0.0</ele><time>2026-05-01T01:48:36.018Z</time></trkpt><trkpt lat="43.7346915" lon="7.9456835"><ele>0.0</ele><time>2026-05-01T01:48:37.019Z</time></trkpt><trkpt lat="43.7347812" lon="7.9458785"><ele>0.0</ele><time>2026-05-01T01:48:39.018Z</time></trkpt><trkpt lat="43.7348211" lon="7.9459767"><ele>0.0</ele><time>2026-05-01T01:48:40.018Z</time></trkpt><trkpt lat="43.7348691" lon="7.9460714"><ele>0.0</ele><time>2026-05-01T01:48:41.019Z</time></trkpt><trkpt lat="43.7349179" lon="7.9461658"><ele>0.0</ele><time>2026-05-01T01:48:42.018Z</time></trkpt><trkpt lat="43.7349664" lon="7.9462582"><ele>0.0</ele><time>2026-05-01T01:48:43.018Z</time></trkpt><trkpt lat="43.735015" lon="7.9463507"><ele>0.0</ele><time>2026-05-01T01:48:44.019Z</time></trkpt><trkpt lat="43.7350631" lon="7.9464363"><ele>0.0</ele><time>2026-05-01T01:48:45.018Z</time></trkpt><trkpt lat="43.7351114" lon="7.9465312"><ele>0.0</ele><time>2026-05-01T01:48:46.019Z</time></trkpt><trkpt lat="43.7351567" lon="7.9466311"><ele>0.0</ele><time>2026-05-01T01:48:47.018Z</time></trkpt><trkpt lat="43.7352014" lon="7.9467238"><ele>0.0</ele><time>2026-05-01T01:48:48.019Z</time></trkpt><trkpt lat="43.7352465" lon="7.9468155"><ele>0.0</ele><time>2026-05-01T01:48:49.018Z</time></trkpt><trkpt lat="43.7352912" lon="7.9469076"><ele>0.0</ele><time>2026-05-01T01:48:50.018Z</time></trkpt><trkpt lat="43.7353826" lon="7.9470899"><ele>0.0</ele><time>2026-05-01T01:48:52.018Z</time></trkpt><trkpt lat="43.7354262" lon="7.9471825"><ele>0.0</ele><time>2026-05-01T01:48:53.019Z</time></trkpt><trkpt lat="43.7354688" lon="7.9472814"><ele>0.0</ele><time>2026-05-01T01:48:54.019Z</time></trkpt><trkpt lat="43.7355124" lon="7.9473756"><ele>0.0</ele><time>2026-05-01T01:48:55.019Z</time></trkpt><trkpt lat="43.7355582" lon="7.9474689"><ele>0.0</ele><time>2026-05-01T01:48:56.019Z</time></trkpt><trkpt lat="43.7355971" lon="7.9475582"><ele>0.0</ele><time>2026-05-01T01:48:57.018Z</time></trkpt><trkpt lat="43.7356402" lon="7.9476504"><ele>0.0</ele><time>2026-05-01T01:48:58.018Z</time></trkpt><trkpt lat="43.7356818" lon="7.9477411"><ele>0.0</ele><time>2026-05-01T01:48:59.019Z</time></trkpt><trkpt lat="43.7357222" lon="7.9478335"><ele>0.0</ele><time>2026-05-01T01:49:00.018Z</time></trkpt><trkpt lat="43.7357706" lon="7.9479292"><ele>0.0</ele><time>2026-05-01T01:49:01.018Z</time></trkpt><trkpt lat="43.7358168" lon="7.9480263"><ele>0.0</ele><time>2026-05-01T01:49:02.018Z</time></trkpt><trkpt lat="43.7358702" lon="7.9481111"><ele>0.0</ele><time>2026-05-01T01:49:03.019Z</time></trkpt><trkpt lat="43.7359119" lon="7.9482009"><ele>0.0</ele><time>2026-05-01T01:49:04.019Z</time></trkpt><trkpt lat="43.73595" lon="7.9482922"><ele>0.0</ele><time>2026-05-01T01:49:05.019Z</time></trkpt><trkpt lat="43.7359987" lon="7.9483806"><ele>0.0</ele><time>2026-05-01T01:49:06.019Z</time></trkpt><trkpt lat="43.7360464" lon="7.9484689"><ele>0.0</ele><time>2026-05-01T01:49:07.019Z</time></trkpt><trkpt lat="43.7360946" lon="7.9485632"><ele>0.0</ele><time>2026-05-01T01:49:08.018Z</time></trkpt><trkpt lat="43.7361445" lon="7.948658"><ele>0.0</ele><time>2026-05-01T01:49:09.018Z</time></trkpt><trkpt lat="43.7361942" lon="7.9487522"><ele>0.0</ele><time>2026-05-01T01:49:10.018Z</time></trkpt><trkpt lat="43.7363521" lon="7.9490356"><ele>0.0</ele><time>2026-05-01T01:49:13.018Z</time></trkpt><trkpt lat="43.7364028" lon="7.9491316"><ele>0.0</ele><time>2026-05-01T01:49:14.018Z</time></trkpt><trkpt lat="43.7364588" lon="7.9492227"><ele>0.0</ele><time>2026-05-01T01:49:15.019Z</time></trkpt><trkpt lat="43.7365084" lon="7.9493112"><ele>0.0</ele><time>2026-05-01T01:49:16.019Z</time></trkpt><trkpt lat="43.7365625" lon="7.949393"><ele>0.0</ele><time>2026-05-01T01:49:17.019Z</time></trkpt><trkpt lat="43.7366205" lon="7.9494806"><ele>0.0</ele><time>2026-05-01T01:49:18.019Z</time></trkpt><trkpt lat="43.7366699" lon="7.9495686"><ele>0.0</ele><time>2026-05-01T01:49:19.018Z</time></trkpt><trkpt lat="43.7367167" lon="7.9496568"><ele>0.0</ele><time>2026-05-01T01:49:20.019Z</time></trkpt><trkpt lat="43.7367674" lon="7.9497387"><ele>0.0</ele><time>2026-05-01T01:49:21.018Z</time></trkpt><trkpt lat="43.7368193" lon="7.9498273"><ele>0.0</ele><time>2026-05-01T01:49:22.019Z</time></trkpt><trkpt lat="43.7368683" lon="7.9499163"><ele>0.0</ele><time>2026-05-01T01:49:23.018Z</time></trkpt><trkpt lat="43.7369447" lon="7.9499942"><ele>0.0</ele><time>2026-05-01T01:49:24.018Z</time></trkpt><trkpt lat="43.7369953" lon="7.9500829"><ele>0.0</ele><time>2026-05-01T01:49:25.018Z</time></trkpt><trkpt lat="43.7370305" lon="7.9501807"><ele>0.0</ele><time>2026-05-01T01:49:26.018Z</time></trkpt><trkpt lat="43.7370841" lon="7.9502716"><ele>0.0</ele><time>2026-05-01T01:49:27.018Z</time></trkpt><trkpt lat="43.7371452" lon="7.9503636"><ele>0.0</ele><time>2026-05-01T01:49:28.018Z</time></trkpt><trkpt lat="43.7371962" lon="7.9504557"><ele>0.0</ele><time>2026-05-01T01:49:29.018Z</time></trkpt><trkpt lat="43.7372433" lon="7.950546"><ele>0.0</ele><time>2026-05-01T01:49:30.019Z</time></trkpt><trkpt lat="43.7372927" lon="7.9506357"><ele>0.0</ele><time>2026-05-01T01:49:31.019Z</time></trkpt><trkpt lat="43.7373428" lon="7.9507341"><ele>0.0</ele><time>2026-05-01T01:49:32.018Z</time></trkpt><trkpt lat="43.7374464" lon="7.9509189"><ele>0.0</ele><time>2026-05-01T01:49:34.018Z</time></trkpt><trkpt lat="43.7375011" lon="7.951011"><ele>0.0</ele><time>2026-05-01T01:49:35.018Z</time></trkpt><trkpt lat="43.7375544" lon="7.9511"><ele>0.0</ele><time>2026-05-01T01:49:36.019Z</time></trkpt><trkpt lat="43.737599" lon="7.9512008"><ele>0.0</ele><time>2026-05-01T01:49:37.019Z</time></trkpt><trkpt lat="43.7376522" lon="7.9512995"><ele>0.0</ele><time>2026-05-01T01:49:38.018Z</time></trkpt><trkpt lat="43.7377051" lon="7.9513917"><ele>0.0</ele><time>2026-05-01T01:49:39.019Z</time></trkpt><trkpt lat="43.7377485" lon="7.9514857"><ele>0.0</ele><time>2026-05-01T01:49:40.019Z</time></trkpt><trkpt lat="43.7377932" lon="7.9515788"><ele>0.0</ele><time>2026-05-01T01:49:41.019Z</time></trkpt><trkpt lat="43.7378409" lon="7.9516675"><ele>0.0</ele><time>2026-05-01T01:49:42.019Z</time></trkpt><trkpt lat="43.7379414" lon="7.9518487"><ele>0.0</ele><time>2026-05-01T01:49:44.018Z</time></trkpt><trkpt lat="43.7379892" lon="7.9519385"><ele>0.0</ele><time>2026-05-01T01:49:45.019Z</time></trkpt><trkpt lat="43.7380402" lon="7.9520213"><ele>0.0</ele><time>2026-05-01T01:49:46.018Z</time></trkpt><trkpt lat="43.7380889" lon="7.9521081"><ele>0.0</ele><time>2026-05-01T01:49:47.018Z</time></trkpt><trkpt lat="43.7381337" lon="7.9521996"><ele>0.0</ele><time>2026-05-01T01:49:48.019Z</time></trkpt><trkpt lat="43.7381784" lon="7.9522932"><ele>0.0</ele><time>2026-05-01T01:49:49.018Z</time></trkpt><trkpt lat="43.7382176" lon="7.9523881"><ele>0.0</ele><time>2026-05-01T01:49:50.018Z</time></trkpt><trkpt lat="43.7382576" lon="7.952484"><ele>0.0</ele><time>2026-05-01T01:49:51.019Z</time></trkpt><trkpt lat="43.7382972" lon="7.9525823"><ele>0.0</ele><time>2026-05-01T01:49:52.018Z</time></trkpt><trkpt lat="43.7383432" lon="7.9526808"><ele>0.0</ele><time>2026-05-01T01:49:53.018Z</time></trkpt><trkpt lat="43.7384295" lon="7.9528758"><ele>0.0</ele><time>2026-05-01T01:49:55.019Z</time></trkpt><trkpt lat="43.7384713" lon="7.9529728"><ele>0.0</ele><time>2026-05-01T01:49:56.019Z</time></trkpt><trkpt lat="43.7385152" lon="7.9530668"><ele>0.0</ele><time>2026-05-01T01:49:57.018Z</time></trkpt><trkpt lat="43.7385634" lon="7.9531558"><ele>0.0</ele><time>2026-05-01T01:49:58.019Z</time></trkpt><trkpt lat="43.7386076" lon="7.9532495"><ele>0.0</ele><time>2026-05-01T01:49:59.018Z</time></trkpt><trkpt lat="43.7386537" lon="7.9533431"><ele>0.0</ele><time>2026-05-01T01:50:00.018Z</time></trkpt><trkpt lat="43.7386986" lon="7.953437"><ele>0.0</ele><time>2026-05-01T01:50:01.018Z</time></trkpt><trkpt lat="43.7387421" lon="7.9535329"><ele>0.0</ele><time>2026-05-01T01:50:02.019Z</time></trkpt><trkpt lat="43.738788" lon="7.9536267"><ele>0.0</ele><time>2026-05-01T01:50:03.018Z</time></trkpt><trkpt lat="43.7388335" lon="7.9537203"><ele>0.0</ele><time>2026-05-01T01:50:04.019Z</time></trkpt><trkpt lat="43.7388811" lon="7.9538122"><ele>0.0</ele><time>2026-05-01T01:50:05.019Z</time></trkpt><trkpt lat="43.7389279" lon="7.9539005"><ele>0.0</ele><time>2026-05-01T01:50:06.018Z</time></trkpt><trkpt lat="43.7389846" lon="7.9539878"><ele>0.0</ele><time>2026-05-01T01:50:07.018Z</time></trkpt><trkpt lat="43.7390297" lon="7.954079"><ele>0.0</ele><time>2026-05-01T01:50:08.018Z</time></trkpt><trkpt lat="43.7390707" lon="7.954173"><ele>0.0</ele><time>2026-05-01T01:50:09.019Z</time></trkpt><trkpt lat="43.7391107" lon="7.9542666"><ele>0.0</ele><time>2026-05-01T01:50:10.018Z</time></trkpt><trkpt lat="43.739159" lon="7.9543615"><ele>0.0</ele><time>2026-05-01T01:50:11.019Z</time></trkpt><trkpt lat="43.7392112" lon="7.9544561"><ele>0.0</ele><time>2026-05-01T01:50:12.019Z</time></trkpt><trkpt lat="43.7392617" lon="7.9545483"><ele>0.0</ele><time>2026-05-01T01:50:13.018Z</time></trkpt><trkpt lat="43.7393342" lon="7.9546288"><ele>0.0</ele><time>2026-05-01T01:50:14.018Z</time></trkpt><trkpt lat="43.7393865" lon="7.9547157"><ele>0.0</ele><time>2026-05-01T01:50:15.018Z</time></trkpt><trkpt lat="43.7395368" lon="7.9549875"><ele>0.0</ele><time>2026-05-01T01:50:18.018Z</time></trkpt><trkpt lat="43.7395833" lon="7.9550813"><ele>0.0</ele><time>2026-05-01T01:50:19.018Z</time></trkpt><trkpt lat="43.7396285" lon="7.9551747"><ele>0.0</ele><time>2026-05-01T01:50:20.018Z</time></trkpt><trkpt lat="43.7396709" lon="7.9552721"><ele>0.0</ele><time>2026-05-01T01:50:21.018Z</time></trkpt><trkpt lat="43.7397165" lon="7.9553704"><ele>0.0</ele><time>2026-05-01T01:50:22.018Z</time></trkpt><trkpt lat="43.7397631" lon="7.9554691"><ele>0.0</ele><time>2026-05-01T01:50:23.019Z</time></trkpt><trkpt lat="43.7398073" lon="7.9555656"><ele>0.0</ele><time>2026-05-01T01:50:24.019Z</time></trkpt><trkpt lat="43.7398533" lon="7.9556581"><ele>0.0</ele><time>2026-05-01T01:50:25.019Z</time></trkpt><trkpt lat="43.7399015" lon="7.9557516"><ele>0.0</ele><time>2026-05-01T01:50:26.019Z</time></trkpt><trkpt lat="43.7399454" lon="7.9558381"><ele>0.0</ele><time>2026-05-01T01:50:27.018Z</time></trkpt><trkpt lat="43.7399958" lon="7.9559325"><ele>0.0</ele><time>2026-05-01T01:50:28.019Z</time></trkpt><trkpt lat="43.740043" lon="7.9560225"><ele>0.0</ele><time>2026-05-01T01:50:29.018Z</time></trkpt><trkpt lat="43.740088" lon="7.9561198"><ele>0.0</ele><time>2026-05-01T01:50:30.019Z</time></trkpt><trkpt lat="43.7401345" lon="7.9562137"><ele>0.0</ele><time>2026-05-01T01:50:31.018Z</time></trkpt><trkpt lat="43.740186" lon="7.9563012"><ele>0.0</ele><time>2026-05-01T01:50:32.019Z</time></trkpt><trkpt lat="43.7402327" lon="7.9563869"><ele>0.0</ele><time>2026-05-01T01:50:33.019Z</time></trkpt><trkpt lat="43.7402814" lon="7.9564749"><ele>0.0</ele><time>2026-05-01T01:50:34.018Z</time></trkpt><trkpt lat="43.7403225" lon="7.9565741"><ele>0.0</ele><time>2026-05-01T01:50:35.019Z</time></trkpt><trkpt lat="43.7403652" lon="7.9566658"><ele>0.0</ele><time>2026-05-01T01:50:36.019Z</time></trkpt><trkpt lat="43.7404056" lon="7.9567613"><ele>0.0</ele><time>2026-05-01T01:50:37.018Z</time></trkpt><trkpt lat="43.7404929" lon="7.9569452"><ele>0.0</ele><time>2026-05-01T01:50:39.018Z</time></trkpt><trkpt lat="43.7405536" lon="7.95702"><ele>0.0</ele><time>2026-05-01T01:50:40.019Z</time></trkpt><trkpt lat="43.7406068" lon="7.9571075"><ele>0.0</ele><time>2026-05-01T01:50:41.018Z</time></trkpt><trkpt lat="43.740652" lon="7.9572005"><ele>0.0</ele><time>2026-05-01T01:50:42.019Z</time></trkpt><trkpt lat="43.7406952" lon="7.9572892"><ele>0.0</ele><time>2026-05-01T01:50:43.019Z</time></trkpt><trkpt lat="43.7407348" lon="7.9573788"><ele>0.0</ele><time>2026-05-01T01:50:44.018Z</time></trkpt><trkpt lat="43.7407956" lon="7.9574694"><ele>0.0</ele><time>2026-05-01T01:50:45.019Z</time></trkpt><trkpt lat="43.7408384" lon="7.9575694"><ele>0.0</ele><time>2026-05-01T01:50:46.018Z</time></trkpt><trkpt lat="43.7408869" lon="7.9576639"><ele>0.0</ele><time>2026-05-01T01:50:47.018Z</time></trkpt><trkpt lat="43.7409621" lon="7.9578618"><ele>0.0</ele><time>2026-05-01T01:50:49.017Z</time></trkpt><trkpt lat="43.7410062" lon="7.9579567"><ele>0.0</ele><time>2026-05-01T01:50:50.018Z</time></trkpt><trkpt lat="43.7410487" lon="7.958053"><ele>0.0</ele><time>2026-05-01T01:50:51.018Z</time></trkpt><trkpt lat="43.7410992" lon="7.958151"><ele>0.0</ele><time>2026-05-01T01:50:52.018Z</time></trkpt><trkpt lat="43.741165" lon="7.9582352"><ele>0.0</ele><time>2026-05-01T01:50:53.017Z</time></trkpt><trkpt lat="43.7412187" lon="7.9583244"><ele>0.0</ele><time>2026-05-01T01:50:54.017Z</time></trkpt><trkpt lat="43.7412767" lon="7.9584139"><ele>0.0</ele><time>2026-05-01T01:50:55.017Z</time></trkpt><trkpt lat="43.7413336" lon="7.9585059"><ele>0.0</ele><time>2026-05-01T01:50:56.018Z</time></trkpt><trkpt lat="43.7413891" lon="7.9585923"><ele>0.0</ele><time>2026-05-01T01:50:57.017Z</time></trkpt><trkpt lat="43.7414357" lon="7.9586831"><ele>0.0</ele><time>2026-05-01T01:50:58.017Z</time></trkpt><trkpt lat="43.7415258" lon="7.958862"><ele>0.0</ele><time>2026-05-01T01:51:00.018Z</time></trkpt><trkpt lat="43.7415718" lon="7.9589563"><ele>0.0</ele><time>2026-05-01T01:51:01.018Z</time></trkpt><trkpt lat="43.7416141" lon="7.9590512"><ele>0.0</ele><time>2026-05-01T01:51:02.017Z</time></trkpt><trkpt lat="43.741657" lon="7.9591461"><ele>0.0</ele><time>2026-05-01T01:51:03.018Z</time></trkpt><trkpt lat="43.7417049" lon="7.9592381"><ele>0.0</ele><time>2026-05-01T01:51:04.018Z</time></trkpt><trkpt lat="43.7417561" lon="7.9593266"><ele>0.0</ele><time>2026-05-01T01:51:05.017Z</time></trkpt><trkpt lat="43.7418025" lon="7.9594172"><ele>0.0</ele><time>2026-05-01T01:51:06.017Z</time></trkpt><trkpt lat="43.7418479" lon="7.9595086"><ele>0.0</ele><time>2026-05-01T01:51:07.017Z</time></trkpt><trkpt lat="43.7418927" lon="7.959602"><ele>0.0</ele><time>2026-05-01T01:51:08.018Z</time></trkpt><trkpt lat="43.7419403" lon="7.959697"><ele>0.0</ele><time>2026-05-01T01:51:09.018Z</time></trkpt><trkpt lat="43.7419882" lon="7.9597937"><ele>0.0</ele><time>2026-05-01T01:51:10.017Z</time></trkpt><trkpt lat="43.7420369" lon="7.9598845"><ele>0.0</ele><time>2026-05-01T01:51:11.017Z</time></trkpt><trkpt lat="43.7420867" lon="7.9599746"><ele>0.0</ele><time>2026-05-01T01:51:12.018Z</time></trkpt><trkpt lat="43.7421338" lon="7.9600647"><ele>0.0</ele><time>2026-05-01T01:51:13.017Z</time></trkpt><trkpt lat="43.7421857" lon="7.9601538"><ele>0.0</ele><time>2026-05-01T01:51:14.018Z</time></trkpt><trkpt lat="43.7422338" lon="7.9602492"><ele>0.0</ele><time>2026-05-01T01:51:15.017Z</time></trkpt><trkpt lat="43.7422787" lon="7.960343"><ele>0.0</ele><time>2026-05-01T01:51:16.017Z</time></trkpt><trkpt lat="43.7423533" lon="7.9604189"><ele>0.0</ele><time>2026-05-01T01:51:17.018Z</time></trkpt><trkpt lat="43.7424194" lon="7.9605026"><ele>0.0</ele><time>2026-05-01T01:51:18.017Z</time></trkpt><trkpt lat="43.7424691" lon="7.9605973"><ele>0.0</ele><time>2026-05-01T01:51:19.017Z</time></trkpt><trkpt lat="43.7425147" lon="7.9606941"><ele>0.0</ele><time>2026-05-01T01:51:20.017Z</time></trkpt><trkpt lat="43.7426683" lon="7.9609573"><ele>0.0</ele><time>2026-05-01T01:51:23.018Z</time></trkpt><trkpt lat="43.7427111" lon="7.9610462"><ele>0.0</ele><time>2026-05-01T01:51:24.017Z</time></trkpt><trkpt lat="43.7427555" lon="7.9611357"><ele>0.0</ele><time>2026-05-01T01:51:25.018Z</time></trkpt><trkpt lat="43.742802" lon="7.9612272"><ele>0.0</ele><time>2026-05-01T01:51:26.017Z</time></trkpt><trkpt lat="43.7428441" lon="7.9613236"><ele>0.0</ele><time>2026-05-01T01:51:27.018Z</time></trkpt><trkpt lat="43.742885" lon="7.9614217"><ele>0.0</ele><time>2026-05-01T01:51:28.017Z</time></trkpt><trkpt lat="43.742926" lon="7.9615205"><ele>0.0</ele><time>2026-05-01T01:51:29.017Z</time></trkpt><trkpt lat="43.7429706" lon="7.961616"><ele>0.0</ele><time>2026-05-01T01:51:30.018Z</time></trkpt><trkpt lat="43.7430143" lon="7.9617137"><ele>0.0</ele><time>2026-05-01T01:51:31.017Z</time></trkpt><trkpt lat="43.743062" lon="7.9618063"><ele>0.0</ele><time>2026-05-01T01:51:32.018Z</time></trkpt><trkpt lat="43.7431059" lon="7.9619023"><ele>0.0</ele><time>2026-05-01T01:51:33.018Z</time></trkpt><trkpt lat="43.7431475" lon="7.9619994"><ele>0.0</ele><time>2026-05-01T01:51:34.017Z</time></trkpt><trkpt lat="43.743193" lon="7.9620924"><ele>0.0</ele><time>2026-05-01T01:51:35.018Z</time></trkpt><trkpt lat="43.7432409" lon="7.9621865"><ele>0.0</ele><time>2026-05-01T01:51:36.017Z</time></trkpt><trkpt lat="43.7432865" lon="7.9622816"><ele>0.0</ele><time>2026-05-01T01:51:37.017Z</time></trkpt><trkpt lat="43.7433317" lon="7.9623782"><ele>0.0</ele><time>2026-05-01T01:51:38.018Z</time></trkpt><trkpt lat="43.7433708" lon="7.9624765"><ele>0.0</ele><time>2026-05-01T01:51:39.017Z</time></trkpt><trkpt lat="43.7434118" lon="7.9625751"><ele>0.0</ele><time>2026-05-01T01:51:40.017Z</time></trkpt><trkpt lat="43.7434551" lon="7.9626718"><ele>0.0</ele><time>2026-05-01T01:51:41.017Z</time></trkpt><trkpt lat="43.7434984" lon="7.9627685"><ele>0.0</ele><time>2026-05-01T01:51:42.017Z</time></trkpt><trkpt lat="43.7435943" lon="7.9629537"><ele>0.0</ele><time>2026-05-01T01:51:44.018Z</time></trkpt><trkpt lat="43.743646" lon="7.9630474"><ele>0.0</ele><time>2026-05-01T01:51:45.018Z</time></trkpt><trkpt lat="43.7436976" lon="7.9631388"><ele>0.0</ele><time>2026-05-01T01:51:46.017Z</time></trkpt><trkpt lat="43.7437679" lon="7.9632191"><ele>0.0</ele><time>2026-05-01T01:51:47.018Z</time></trkpt><trkpt lat="43.7438197" lon="7.9633084"><ele>0.0</ele><time>2026-05-01T01:51:48.017Z</time></trkpt><trkpt lat="43.743881" lon="7.9633877"><ele>0.0</ele><time>2026-05-01T01:51:49.018Z</time></trkpt><trkpt lat="43.7439318" lon="7.9634756"><ele>0.0</ele><time>2026-05-01T01:51:50.018Z</time></trkpt><trkpt lat="43.7439857" lon="7.9635611"><ele>0.0</ele><time>2026-05-01T01:51:51.018Z</time></trkpt><trkpt lat="43.7440249" lon="7.963656"><ele>0.0</ele><time>2026-05-01T01:51:52.017Z</time></trkpt><trkpt lat="43.7441186" lon="7.963837"><ele>0.0</ele><time>2026-05-01T01:51:54.017Z</time></trkpt><trkpt lat="43.7441738" lon="7.9639211"><ele>0.0</ele><time>2026-05-01T01:51:55.018Z</time></trkpt><trkpt lat="43.7442205" lon="7.9640131"><ele>0.0</ele><time>2026-05-01T01:51:56.017Z</time></trkpt><trkpt lat="43.7442684" lon="7.9641035"><ele>0.0</ele><time>2026-05-01T01:51:57.017Z</time></trkpt><trkpt lat="43.7443339" lon="7.9641804"><ele>0.0</ele><time>2026-05-01T01:51:58.017Z</time></trkpt><trkpt lat="43.7443824" lon="7.9642672"><ele>0.0</ele><time>2026-05-01T01:51:59.017Z</time></trkpt><trkpt lat="43.7444334" lon="7.9643561"><ele>0.0</ele><time>2026-05-01T01:52:00.018Z</time></trkpt><trkpt lat="43.7444822" lon="7.9644425"><ele>0.0</ele><time>2026-05-01T01:52:01.018Z</time></trkpt><trkpt lat="43.7445301" lon="7.9645302"><ele>0.0</ele><time>2026-05-01T01:52:02.017Z</time></trkpt><trkpt lat="43.7445801" lon="7.9646185"><ele>0.0</ele><time>2026-05-01T01:52:03.017Z</time></trkpt><trkpt lat="43.7446995" lon="7.9647874"><ele>0.0</ele><time>2026-05-01T01:52:05.018Z</time></trkpt><trkpt lat="43.7447474" lon="7.9648775"><ele>0.0</ele><time>2026-05-01T01:52:06.018Z</time></trkpt><trkpt lat="43.744791" lon="7.964972"><ele>0.0</ele><time>2026-05-01T01:52:07.018Z</time></trkpt><trkpt lat="43.7448368" lon="7.9650646"><ele>0.0</ele><time>2026-05-01T01:52:08.018Z</time></trkpt><trkpt lat="43.7448806" lon="7.9651593"><ele>0.0</ele><time>2026-05-01T01:52:09.017Z</time></trkpt><trkpt lat="43.7449196" lon="7.9652615"><ele>0.0</ele><time>2026-05-01T01:52:10.017Z</time></trkpt><trkpt lat="43.7449547" lon="7.965362"><ele>0.0</ele><time>2026-05-01T01:52:11.018Z</time></trkpt><trkpt lat="43.7449924" lon="7.9654606"><ele>0.0</ele><time>2026-05-01T01:52:12.018Z</time></trkpt><trkpt lat="43.7450339" lon="7.9655593"><ele>0.0</ele><time>2026-05-01T01:52:13.017Z</time></trkpt><trkpt lat="43.7450754" lon="7.9656565"><ele>0.0</ele><time>2026-05-01T01:52:14.018Z</time></trkpt><trkpt lat="43.7451186" lon="7.9657512"><ele>0.0</ele><time>2026-05-01T01:52:15.017Z</time></trkpt><trkpt lat="43.7451858" lon="7.965835"><ele>0.0</ele><time>2026-05-01T01:52:16.017Z</time></trkpt><trkpt lat="43.7452422" lon="7.9659254"><ele>0.0</ele><time>2026-05-01T01:52:17.018Z</time></trkpt><trkpt lat="43.7452925" lon="7.9660171"><ele>0.0</ele><time>2026-05-01T01:52:18.017Z</time></trkpt><trkpt lat="43.7453516" lon="7.9661037"><ele>0.0</ele><time>2026-05-01T01:52:19.017Z</time></trkpt><trkpt lat="43.7454037" lon="7.9662019"><ele>0.0</ele><time>2026-05-01T01:52:20.018Z</time></trkpt><trkpt lat="43.7454416" lon="7.9663075"><ele>0.0</ele><time>2026-05-01T01:52:21.018Z</time></trkpt><trkpt lat="43.7454839" lon="7.9664044"><ele>0.0</ele><time>2026-05-01T01:52:22.017Z</time></trkpt><trkpt lat="43.7455314" lon="7.9664983"><ele>0.0</ele><time>2026-05-01T01:52:23.017Z</time></trkpt><trkpt lat="43.7455722" lon="7.9665959"><ele>0.0</ele><time>2026-05-01T01:52:24.018Z</time></trkpt><trkpt lat="43.7457158" lon="7.9668782"><ele>0.0</ele><time>2026-05-01T01:52:27.018Z</time></trkpt><trkpt lat="43.7457626" lon="7.9669729"><ele>0.0</ele><time>2026-05-01T01:52:28.017Z</time></trkpt><trkpt lat="43.7457982" lon="7.9670722"><ele>0.0</ele><time>2026-05-01T01:52:29.018Z</time></trkpt><trkpt lat="43.7458416" lon="7.9671666"><ele>0.0</ele><time>2026-05-01T01:52:30.018Z</time></trkpt><trkpt lat="43.7458879" lon="7.9672601"><ele>0.0</ele><time>2026-05-01T01:52:31.018Z</time></trkpt><trkpt lat="43.7459266" lon="7.9673564"><ele>0.0</ele><time>2026-05-01T01:52:32.017Z</time></trkpt><trkpt lat="43.7459698" lon="7.9674531"><ele>0.0</ele><time>2026-05-01T01:52:33.017Z</time></trkpt><trkpt lat="43.746009" lon="7.9675498"><ele>0.0</ele><time>2026-05-01T01:52:34.017Z</time></trkpt><trkpt lat="43.7460592" lon="7.9676433"><ele>0.0</ele><time>2026-05-01T01:52:35.017Z</time></trkpt><trkpt lat="43.7461008" lon="7.9677383"><ele>0.0</ele><time>2026-05-01T01:52:36.018Z</time></trkpt><trkpt lat="43.7461521" lon="7.9678285"><ele>0.0</ele><time>2026-05-01T01:52:37.017Z</time></trkpt><trkpt lat="43.7462012" lon="7.967921"><ele>0.0</ele><time>2026-05-01T01:52:38.017Z</time></trkpt><trkpt lat="43.746247" lon="7.9680154"><ele>0.0</ele><time>2026-05-01T01:52:39.017Z</time></trkpt><trkpt lat="43.7462921" lon="7.9681074"><ele>0.0</ele><time>2026-05-01T01:52:40.018Z</time></trkpt><trkpt lat="43.7463427" lon="7.9682005"><ele>0.0</ele><time>2026-05-01T01:52:41.017Z</time></trkpt><trkpt lat="43.7463847" lon="7.9682936"><ele>0.0</ele><time>2026-05-01T01:52:42.018Z</time></trkpt><trkpt lat="43.7464277" lon="7.9683841"><ele>0.0</ele><time>2026-05-01T01:52:43.018Z</time></trkpt><trkpt lat="43.7464864" lon="7.9684652"><ele>0.0</ele><time>2026-05-01T01:52:44.018Z</time></trkpt><trkpt lat="43.7465396" lon="7.9685541"><ele>0.0</ele><time>2026-05-01T01:52:45.018Z</time></trkpt><trkpt lat="43.7465915" lon="7.968642"><ele>0.0</ele><time>2026-05-01T01:52:46.018Z</time></trkpt><trkpt lat="43.7467036" lon="7.9688189"><ele>0.0</ele><time>2026-05-01T01:52:48.017Z</time></trkpt><trkpt lat="43.7467565" lon="7.9689133"><ele>0.0</ele><time>2026-05-01T01:52:49.017Z</time></trkpt><trkpt lat="43.7468113" lon="7.9690062"><ele>0.0</ele><time>2026-05-01T01:52:50.018Z</time></trkpt><trkpt lat="43.7468636" lon="7.969095"><ele>0.0</ele><time>2026-05-01T01:52:51.017Z</time></trkpt><trkpt lat="43.746912" lon="7.9691833"><ele>0.0</ele><time>2026-05-01T01:52:52.018Z</time></trkpt><trkpt lat="43.746963" lon="7.9692729"><ele>0.0</ele><time>2026-05-01T01:52:53.018Z</time></trkpt><trkpt lat="43.7470106" lon="7.9693647"><ele>0.0</ele><time>2026-05-01T01:52:54.017Z</time></trkpt><trkpt lat="43.7470544" lon="7.9694589"><ele>0.0</ele><time>2026-05-01T01:52:55.017Z</time></trkpt><trkpt lat="43.7470976" lon="7.9695539"><ele>0.0</ele><time>2026-05-01T01:52:56.017Z</time></trkpt><trkpt lat="43.747141" lon="7.9696505"><ele>0.0</ele><time>2026-05-01T01:52:57.017Z</time></trkpt><trkpt lat="43.7472288" lon="7.9698383"><ele>0.0</ele><time>2026-05-01T01:52:59.018Z</time></trkpt><trkpt lat="43.7472701" lon="7.9699272"><ele>0.0</ele><time>2026-05-01T01:53:00.018Z</time></trkpt><trkpt lat="43.7473179" lon="7.9700153"><ele>0.0</ele><time>2026-05-01T01:53:01.017Z</time></trkpt><trkpt lat="43.7473777" lon="7.9700995"><ele>0.0</ele><time>2026-05-01T01:53:02.017Z</time></trkpt><trkpt lat="43.7474224" lon="7.9701908"><ele>0.0</ele><time>2026-05-01T01:53:03.018Z</time></trkpt><trkpt lat="43.7474686" lon="7.9702825"><ele>0.0</ele><time>2026-05-01T01:53:04.017Z</time></trkpt><trkpt lat="43.7475323" lon="7.9703656"><ele>0.0</ele><time>2026-05-01T01:53:05.018Z</time></trkpt><trkpt lat="43.7475896" lon="7.9704512"><ele>0.0</ele><time>2026-05-01T01:53:06.018Z</time></trkpt><trkpt lat="43.7476456" lon="7.9705413"><ele>0.0</ele><time>2026-05-01T01:53:07.018Z</time></trkpt><trkpt lat="43.7477414" lon="7.9707193"><ele>0.0</ele><time>2026-05-01T01:53:09.017Z</time></trkpt><trkpt lat="43.7477923" lon="7.9708108"><ele>0.0</ele><time>2026-05-01T01:53:10.017Z</time></trkpt><trkpt lat="43.7478464" lon="7.9709011"><ele>0.0</ele><time>2026-05-01T01:53:11.017Z</time></trkpt><trkpt lat="43.7478966" lon="7.970988"><ele>0.0</ele><time>2026-05-01T01:53:12.017Z</time></trkpt><trkpt lat="43.7479454" lon="7.971075"><ele>0.0</ele><time>2026-05-01T01:53:13.018Z</time></trkpt><trkpt lat="43.7479936" lon="7.9711646"><ele>0.0</ele><time>2026-05-01T01:53:14.018Z</time></trkpt><trkpt lat="43.748042" lon="7.9712533"><ele>0.0</ele><time>2026-05-01T01:53:15.018Z</time></trkpt><trkpt lat="43.748086" lon="7.9713471"><ele>0.0</ele><time>2026-05-01T01:53:16.018Z</time></trkpt><trkpt lat="43.748135" lon="7.9714349"><ele>0.0</ele><time>2026-05-01T01:53:17.017Z</time></trkpt><trkpt lat="43.748182" lon="7.9715249"><ele>0.0</ele><time>2026-05-01T01:53:18.017Z</time></trkpt><trkpt lat="43.7482286" lon="7.9716148"><ele>0.0</ele><time>2026-05-01T01:53:19.017Z</time></trkpt><trkpt lat="43.7482739" lon="7.9717086"><ele>0.0</ele><time>2026-05-01T01:53:20.017Z</time></trkpt><trkpt lat="43.748319" lon="7.9718027"><ele>0.0</ele><time>2026-05-01T01:53:21.018Z</time></trkpt><trkpt lat="43.748365" lon="7.9718975"><ele>0.0</ele><time>2026-05-01T01:53:22.018Z</time></trkpt><trkpt lat="43.7484131" lon="7.9719957"><ele>0.0</ele><time>2026-05-01T01:53:23.017Z</time></trkpt><trkpt lat="43.7484575" lon="7.9720964"><ele>0.0</ele><time>2026-05-01T01:53:24.017Z</time></trkpt><trkpt lat="43.748505" lon="7.9721957"><ele>0.0</ele><time>2026-05-01T01:53:25.017Z</time></trkpt><trkpt lat="43.748552" lon="7.9722884"><ele>0.0</ele><time>2026-05-01T01:53:26.018Z</time></trkpt><trkpt lat="43.7485985" lon="7.9723812"><ele>0.0</ele><time>2026-05-01T01:53:27.017Z</time></trkpt><trkpt lat="43.7486451" lon="7.9724734"><ele>0.0</ele><time>2026-05-01T01:53:28.017Z</time></trkpt><trkpt lat="43.7487363" lon="7.9726575"><ele>0.0</ele><time>2026-05-01T01:53:30.018Z</time></trkpt><trkpt lat="43.7488353" lon="7.9728332"><ele>0.0</ele><time>2026-05-01T01:53:32.017Z</time></trkpt><trkpt lat="43.7488835" lon="7.9729248"><ele>0.0</ele><time>2026-05-01T01:53:33.018Z</time></trkpt><trkpt lat="43.748936" lon="7.9730195"><ele>0.0</ele><time>2026-05-01T01:53:34.018Z</time></trkpt><trkpt lat="43.7489868" lon="7.9731144"><ele>0.0</ele><time>2026-05-01T01:53:35.018Z</time></trkpt><trkpt lat="43.7490294" lon="7.9732105"><ele>0.0</ele><time>2026-05-01T01:53:36.017Z</time></trkpt><trkpt lat="43.749076" lon="7.9733036"><ele>0.0</ele><time>2026-05-01T01:53:37.018Z</time></trkpt><trkpt lat="43.7491216" lon="7.9733962"><ele>0.0</ele><time>2026-05-01T01:53:38.018Z</time></trkpt><trkpt lat="43.749172" lon="7.973486"><ele>0.0</ele><time>2026-05-01T01:53:39.018Z</time></trkpt><trkpt lat="43.749218" lon="7.9735795"><ele>0.0</ele><time>2026-05-01T01:53:40.018Z</time></trkpt><trkpt lat="43.7492681" lon="7.9736714"><ele>0.0</ele><time>2026-05-01T01:53:41.017Z</time></trkpt><trkpt lat="43.7493167" lon="7.9737629"><ele>0.0</ele><time>2026-05-01T01:53:42.017Z</time></trkpt><trkpt lat="43.749365" lon="7.9738588"><ele>0.0</ele><time>2026-05-01T01:53:43.018Z</time></trkpt><trkpt lat="43.7494091" lon="7.9739529"><ele>0.0</ele><time>2026-05-01T01:53:44.017Z</time></trkpt><trkpt lat="43.7494507" lon="7.9740475"><ele>0.0</ele><time>2026-05-01T01:53:45.017Z</time></trkpt><trkpt lat="43.7494981" lon="7.974134"><ele>0.0</ele><time>2026-05-01T01:53:46.018Z</time></trkpt><trkpt lat="43.7495452" lon="7.974226"><ele>0.0</ele><time>2026-05-01T01:53:47.018Z</time></trkpt><trkpt lat="43.7495906" lon="7.9743208"><ele>0.0</ele><time>2026-05-01T01:53:48.017Z</time></trkpt><trkpt lat="43.7496358" lon="7.9744146"><ele>0.0</ele><time>2026-05-01T01:53:49.018Z</time></trkpt><trkpt lat="43.749727" lon="7.974612"><ele>0.0</ele><time>2026-05-01T01:53:51.018Z</time></trkpt><trkpt lat="43.7497765" lon="7.9747038"><ele>0.0</ele><time>2026-05-01T01:53:52.018Z</time></trkpt><trkpt lat="43.7498264" lon="7.9747989"><ele>0.0</ele><time>2026-05-01T01:53:53.017Z</time></trkpt><trkpt lat="43.7498733" lon="7.9748912"><ele>0.0</ele><time>2026-05-01T01:53:54.017Z</time></trkpt><trkpt lat="43.7499216" lon="7.9749826"><ele>0.0</ele><time>2026-05-01T01:53:55.017Z</time></trkpt><trkpt lat="43.7499714" lon="7.9750772"><ele>0.0</ele><time>2026-05-01T01:53:56.018Z</time></trkpt><trkpt lat="43.7500175" lon="7.9751757"><ele>0.0</ele><time>2026-05-01T01:53:57.017Z</time></trkpt><trkpt lat="43.7500607" lon="7.9752684"><ele>0.0</ele><time>2026-05-01T01:53:58.017Z</time></trkpt><trkpt lat="43.7501068" lon="7.9753586"><ele>0.0</ele><time>2026-05-01T01:53:59.017Z</time></trkpt><trkpt lat="43.750152" lon="7.9754573"><ele>0.0</ele><time>2026-05-01T01:54:00.017Z</time></trkpt><trkpt lat="43.7501969" lon="7.9755502"><ele>0.0</ele><time>2026-05-01T01:54:01.018Z</time></trkpt><trkpt lat="43.7502403" lon="7.9756433"><ele>0.0</ele><time>2026-05-01T01:54:02.018Z</time></trkpt><trkpt lat="43.750295" lon="7.9757367"><ele>0.0</ele><time>2026-05-01T01:54:03.017Z</time></trkpt><trkpt lat="43.7503407" lon="7.9758316"><ele>0.0</ele><time>2026-05-01T01:54:04.018Z</time></trkpt><trkpt lat="43.7503897" lon="7.9759236"><ele>0.0</ele><time>2026-05-01T01:54:05.017Z</time></trkpt><trkpt lat="43.7504351" lon="7.9760182"><ele>0.0</ele><time>2026-05-01T01:54:06.017Z</time></trkpt><trkpt lat="43.7504877" lon="7.9761042"><ele>0.0</ele><time>2026-05-01T01:54:07.017Z</time></trkpt><trkpt lat="43.7505405" lon="7.9761881"><ele>0.0</ele><time>2026-05-01T01:54:08.017Z</time></trkpt><trkpt lat="43.7505923" lon="7.9762742"><ele>0.0</ele><time>2026-05-01T01:54:09.017Z</time></trkpt><trkpt lat="43.7506471" lon="7.9763625"><ele>0.0</ele><time>2026-05-01T01:54:10.017Z</time></trkpt><trkpt lat="43.7507389" lon="7.9765401"><ele>0.0</ele><time>2026-05-01T01:54:12.017Z</time></trkpt><trkpt lat="43.7507866" lon="7.9766346"><ele>0.0</ele><time>2026-05-01T01:54:13.018Z</time></trkpt><trkpt lat="43.7508347" lon="7.9767324"><ele>0.0</ele><time>2026-05-01T01:54:14.017Z</time></trkpt><trkpt lat="43.750882" lon="7.9768269"><ele>0.0</ele><time>2026-05-01T01:54:15.018Z</time></trkpt><trkpt lat="43.7509343" lon="7.9769152"><ele>0.0</ele><time>2026-05-01T01:54:16.017Z</time></trkpt><trkpt lat="43.7509875" lon="7.9770035"><ele>0.0</ele><time>2026-05-01T01:54:17.017Z</time></trkpt><trkpt lat="43.7510338" lon="7.9770962"><ele>0.0</ele><time>2026-05-01T01:54:18.017Z</time></trkpt><trkpt lat="43.7510812" lon="7.9771864"><ele>0.0</ele><time>2026-05-01T01:54:19.017Z</time></trkpt><trkpt lat="43.7511341" lon="7.9772768"><ele>0.0</ele><time>2026-05-01T01:54:20.017Z</time></trkpt><trkpt lat="43.7511801" lon="7.9773697"><ele>0.0</ele><time>2026-05-01T01:54:21.017Z</time></trkpt><trkpt lat="43.7512226" lon="7.9774643"><ele>0.0</ele><time>2026-05-01T01:54:22.018Z</time></trkpt><trkpt lat="43.7512617" lon="7.9775622"><ele>0.0</ele><time>2026-05-01T01:54:23.017Z</time></trkpt><trkpt lat="43.7513012" lon="7.9776581"><ele>0.0</ele><time>2026-05-01T01:54:24.018Z</time></trkpt><trkpt lat="43.7513412" lon="7.9777515"><ele>0.0</ele><time>2026-05-01T01:54:25.018Z</time></trkpt><trkpt lat="43.751387" lon="7.9778403"><ele>0.0</ele><time>2026-05-01T01:54:26.017Z</time></trkpt><trkpt lat="43.7514389" lon="7.9779287"><ele>0.0</ele><time>2026-05-01T01:54:27.017Z</time></trkpt><trkpt lat="43.7514885" lon="7.9780156"><ele>0.0</ele><time>2026-05-01T01:54:28.017Z</time></trkpt><trkpt lat="43.7515379" lon="7.9781065"><ele>0.0</ele><time>2026-05-01T01:54:29.017Z</time></trkpt><trkpt lat="43.7515884" lon="7.9781968"><ele>0.0</ele><time>2026-05-01T01:54:30.018Z</time></trkpt><trkpt lat="43.7516335" lon="7.9782897"><ele>0.0</ele><time>2026-05-01T01:54:31.018Z</time></trkpt><trkpt lat="43.7517202" lon="7.9784819"><ele>0.0</ele><time>2026-05-01T01:54:33.017Z</time></trkpt><trkpt lat="43.7517619" lon="7.9785752"><ele>0.0</ele><time>2026-05-01T01:54:34.017Z</time></trkpt><trkpt lat="43.7518551" lon="7.9787536"><ele>0.0</ele><time>2026-05-01T01:54:36.017Z</time></trkpt><trkpt lat="43.7519035" lon="7.9788464"><ele>0.0</ele><time>2026-05-01T01:54:37.017Z</time></trkpt><trkpt lat="43.7519518" lon="7.9789399"><ele>0.0</ele><time>2026-05-01T01:54:38.018Z</time></trkpt><trkpt lat="43.7519987" lon="7.9790319"><ele>0.0</ele><time>2026-05-01T01:54:39.018Z</time></trkpt><trkpt lat="43.7520433" lon="7.9791252"><ele>0.0</ele><time>2026-05-01T01:54:40.018Z</time></trkpt><trkpt lat="43.7520884" lon="7.9792184"><ele>0.0</ele><time>2026-05-01T01:54:41.017Z</time></trkpt><trkpt lat="43.7521334" lon="7.9793132"><ele>0.0</ele><time>2026-05-01T01:54:42.018Z</time></trkpt><trkpt lat="43.7521765" lon="7.9794085"><ele>0.0</ele><time>2026-05-01T01:54:43.017Z</time></trkpt><trkpt lat="43.7522201" lon="7.9795032"><ele>0.0</ele><time>2026-05-01T01:54:44.017Z</time></trkpt><trkpt lat="43.7522696" lon="7.9795939"><ele>0.0</ele><time>2026-05-01T01:54:45.018Z</time></trkpt><trkpt lat="43.7523168" lon="7.9796869"><ele>0.0</ele><time>2026-05-01T01:54:46.018Z</time></trkpt><trkpt lat="43.7523649" lon="7.9797802"><ele>0.0</ele><time>2026-05-01T01:54:47.018Z</time></trkpt><trkpt lat="43.7524105" lon="7.9798737"><ele>0.0</ele><time>2026-05-01T01:54:48.018Z</time></trkpt><trkpt lat="43.7524552" lon="7.9799654"><ele>0.0</ele><time>2026-05-01T01:54:49.018Z</time></trkpt><trkpt lat="43.7525001" lon="7.9800542"><ele>0.0</ele><time>2026-05-01T01:54:50.017Z</time></trkpt><trkpt lat="43.7525436" lon="7.980141"><ele>0.0</ele><time>2026-05-01T01:54:51.017Z</time></trkpt><trkpt lat="43.7525919" lon="7.9802289"><ele>0.0</ele><time>2026-05-01T01:54:52.017Z</time></trkpt><trkpt lat="43.7526944" lon="7.9804091"><ele>0.0</ele><time>2026-05-01T01:54:54.017Z</time></trkpt><trkpt lat="43.7527418" lon="7.9804986"><ele>0.0</ele><time>2026-05-01T01:54:55.017Z</time></trkpt><trkpt lat="43.75279" lon="7.9805887"><ele>0.0</ele><time>2026-05-01T01:54:56.017Z</time></trkpt><trkpt lat="43.75284" lon="7.9806772"><ele>0.0</ele><time>2026-05-01T01:54:57.017Z</time></trkpt><trkpt lat="43.7528869" lon="7.9807697"><ele>0.0</ele><time>2026-05-01T01:54:58.018Z</time></trkpt><trkpt lat="43.7529339" lon="7.9808558"><ele>0.0</ele><time>2026-05-01T01:54:59.017Z</time></trkpt><trkpt lat="43.7529829" lon="7.9809496"><ele>0.0</ele><time>2026-05-01T01:55:00.018Z</time></trkpt><trkpt lat="43.7530345" lon="7.9810414"><ele>0.0</ele><time>2026-05-01T01:55:01.017Z</time></trkpt><trkpt lat="43.7530835" lon="7.9811347"><ele>0.0</ele><time>2026-05-01T01:55:02.018Z</time></trkpt><trkpt lat="43.7531331" lon="7.9812267"><ele>0.0</ele><time>2026-05-01T01:55:03.018Z</time></trkpt><trkpt lat="43.7531817" lon="7.9813181"><ele>0.0</ele><time>2026-05-01T01:55:04.018Z</time></trkpt><trkpt lat="43.75323" lon="7.9814148"><ele>0.0</ele><time>2026-05-01T01:55:05.018Z</time></trkpt><trkpt lat="43.7532782" lon="7.9815083"><ele>0.0</ele><time>2026-05-01T01:55:06.017Z</time></trkpt><trkpt lat="43.7533719" lon="7.9816919"><ele>0.0</ele><time>2026-05-01T01:55:08.017Z</time></trkpt><trkpt lat="43.7534169" lon="7.9817865"><ele>0.0</ele><time>2026-05-01T01:55:09.018Z</time></trkpt><trkpt lat="43.7534648" lon="7.98188"><ele>0.0</ele><time>2026-05-01T01:55:10.017Z</time></trkpt><trkpt lat="43.7535117" lon="7.9819703"><ele>0.0</ele><time>2026-05-01T01:55:11.017Z</time></trkpt><trkpt lat="43.7535598" lon="7.9820614"><ele>0.0</ele><time>2026-05-01T01:55:12.017Z</time></trkpt><trkpt lat="43.7536125" lon="7.9821514"><ele>0.0</ele><time>2026-05-01T01:55:13.018Z</time></trkpt><trkpt lat="43.7537218" lon="7.9823283"><ele>0.0</ele><time>2026-05-01T01:55:15.017Z</time></trkpt><trkpt lat="43.7537719" lon="7.9824184"><ele>0.0</ele><time>2026-05-01T01:55:16.016Z</time></trkpt><trkpt lat="43.7538217" lon="7.9825128"><ele>0.0</ele><time>2026-05-01T01:55:17.017Z</time></trkpt><trkpt lat="43.7538654" lon="7.9826039"><ele>0.0</ele><time>2026-05-01T01:55:18.016Z</time></trkpt><trkpt lat="43.7539101" lon="7.9826981"><ele>0.0</ele><time>2026-05-01T01:55:19.016Z</time></trkpt><trkpt lat="43.7539571" lon="7.982787"><ele>0.0</ele><time>2026-05-01T01:55:20.017Z</time></trkpt><trkpt lat="43.7540035" lon="7.98288"><ele>0.0</ele><time>2026-05-01T01:55:21.016Z</time></trkpt><trkpt lat="43.7540518" lon="7.9829758"><ele>0.0</ele><time>2026-05-01T01:55:22.017Z</time></trkpt><trkpt lat="43.7540955" lon="7.9830653"><ele>0.0</ele><time>2026-05-01T01:55:23.016Z</time></trkpt><trkpt lat="43.7541465" lon="7.9831535"><ele>0.0</ele><time>2026-05-01T01:55:24.017Z</time></trkpt><trkpt lat="43.7541937" lon="7.9832435"><ele>0.0</ele><time>2026-05-01T01:55:25.017Z</time></trkpt><trkpt lat="43.7542374" lon="7.9833338"><ele>0.0</ele><time>2026-05-01T01:55:26.016Z</time></trkpt><trkpt lat="43.7542804" lon="7.9834252"><ele>0.0</ele><time>2026-05-01T01:55:27.017Z</time></trkpt><trkpt lat="43.7543263" lon="7.9835183"><ele>0.0</ele><time>2026-05-01T01:55:28.017Z</time></trkpt><trkpt lat="43.7543721" lon="7.9836068"><ele>0.0</ele><time>2026-05-01T01:55:29.017Z</time></trkpt><trkpt lat="43.7544215" lon="7.9836978"><ele>0.0</ele><time>2026-05-01T01:55:30.017Z</time></trkpt><trkpt lat="43.75447" lon="7.9837914"><ele>0.0</ele><time>2026-05-01T01:55:31.016Z</time></trkpt><trkpt lat="43.7545181" lon="7.9838892"><ele>0.0</ele><time>2026-05-01T01:55:32.017Z</time></trkpt><trkpt lat="43.7545649" lon="7.9839843"><ele>0.0</ele><time>2026-05-01T01:55:33.017Z</time></trkpt><trkpt lat="43.7546118" lon="7.9840797"><ele>0.0</ele><time>2026-05-01T01:55:34.016Z</time></trkpt><trkpt lat="43.7547102" lon="7.9842662"><ele>0.0</ele><time>2026-05-01T01:55:36.016Z</time></trkpt><trkpt lat="43.7547585" lon="7.9843568"><ele>0.0</ele><time>2026-05-01T01:55:37.016Z</time></trkpt><trkpt lat="43.7548094" lon="7.9844463"><ele>0.0</ele><time>2026-05-01T01:55:38.017Z</time></trkpt><trkpt lat="43.7548604" lon="7.9845334"><ele>0.0</ele><time>2026-05-01T01:55:39.016Z</time></trkpt><trkpt lat="43.7549538" lon="7.9847104"><ele>0.0</ele><time>2026-05-01T01:55:41.017Z</time></trkpt><trkpt lat="43.7549971" lon="7.9848033"><ele>0.0</ele><time>2026-05-01T01:55:42.017Z</time></trkpt><trkpt lat="43.7550449" lon="7.9848994"><ele>0.0</ele><time>2026-05-01T01:55:43.017Z</time></trkpt><trkpt lat="43.7550935" lon="7.9849917"><ele>0.0</ele><time>2026-05-01T01:55:44.016Z</time></trkpt><trkpt lat="43.7551358" lon="7.9850838"><ele>0.0</ele><time>2026-05-01T01:55:45.016Z</time></trkpt><trkpt lat="43.7551802" lon="7.9851781"><ele>0.0</ele><time>2026-05-01T01:55:46.017Z</time></trkpt><trkpt lat="43.7552281" lon="7.9852715"><ele>0.0</ele><time>2026-05-01T01:55:47.016Z</time></trkpt><trkpt lat="43.7552721" lon="7.9853667"><ele>0.0</ele><time>2026-05-01T01:55:48.017Z</time></trkpt><trkpt lat="43.7553169" lon="7.9854616"><ele>0.0</ele><time>2026-05-01T01:55:49.017Z</time></trkpt><trkpt lat="43.7553601" lon="7.9855582"><ele>0.0</ele><time>2026-05-01T01:55:50.016Z</time></trkpt><trkpt lat="43.7554053" lon="7.9856516"><ele>0.0</ele><time>2026-05-01T01:55:51.017Z</time></trkpt><trkpt lat="43.7554454" lon="7.9857434"><ele>0.0</ele><time>2026-05-01T01:55:52.017Z</time></trkpt><trkpt lat="43.7554902" lon="7.9858348"><ele>0.0</ele><time>2026-05-01T01:55:53.016Z</time></trkpt><trkpt lat="43.7555372" lon="7.9859252"><ele>0.0</ele><time>2026-05-01T01:55:54.016Z</time></trkpt><trkpt lat="43.7555849" lon="7.9860213"><ele>0.0</ele><time>2026-05-01T01:55:55.017Z</time></trkpt><trkpt lat="43.7556699" lon="7.9862184"><ele>0.0</ele><time>2026-05-01T01:55:57.017Z</time></trkpt><trkpt lat="43.7557133" lon="7.986315"><ele>0.0</ele><time>2026-05-01T01:55:58.017Z</time></trkpt><trkpt lat="43.7557581" lon="7.9864055"><ele>0.0</ele><time>2026-05-01T01:55:59.016Z</time></trkpt><trkpt lat="43.7558128" lon="7.9864897"><ele>0.0</ele><time>2026-05-01T01:56:00.017Z</time></trkpt><trkpt lat="43.7558659" lon="7.9865847"><ele>0.0</ele><time>2026-05-01T01:56:01.017Z</time></trkpt><trkpt lat="43.7559177" lon="7.9866768"><ele>0.0</ele><time>2026-05-01T01:56:02.016Z</time></trkpt><trkpt lat="43.7559664" lon="7.9867671"><ele>0.0</ele><time>2026-05-01T01:56:03.017Z</time></trkpt><trkpt lat="43.7560163" lon="7.9868551"><ele>0.0</ele><time>2026-05-01T01:56:04.016Z</time></trkpt><trkpt lat="43.7560665" lon="7.9869464"><ele>0.0</ele><time>2026-05-01T01:56:05.016Z</time></trkpt><trkpt lat="43.7561165" lon="7.9870367"><ele>0.0</ele><time>2026-05-01T01:56:06.016Z</time></trkpt><trkpt lat="43.7561691" lon="7.9871231"><ele>0.0</ele><time>2026-05-01T01:56:07.017Z</time></trkpt><trkpt lat="43.7562262" lon="7.9872081"><ele>0.0</ele><time>2026-05-01T01:56:08.017Z</time></trkpt><trkpt lat="43.7562766" lon="7.9872957"><ele>0.0</ele><time>2026-05-01T01:56:09.017Z</time></trkpt><trkpt lat="43.7563234" lon="7.9873852"><ele>0.0</ele><time>2026-05-01T01:56:10.017Z</time></trkpt><trkpt lat="43.7563712" lon="7.9874781"><ele>0.0</ele><time>2026-05-01T01:56:11.016Z</time></trkpt><trkpt lat="43.75647" lon="7.9876599"><ele>0.0</ele><time>2026-05-01T01:56:13.016Z</time></trkpt><trkpt lat="43.7565198" lon="7.9877514"><ele>0.0</ele><time>2026-05-01T01:56:14.016Z</time></trkpt><trkpt lat="43.75657" lon="7.9878416"><ele>0.0</ele><time>2026-05-01T01:56:15.016Z</time></trkpt><trkpt lat="43.7566201" lon="7.9879316"><ele>0.0</ele><time>2026-05-01T01:56:16.017Z</time></trkpt><trkpt lat="43.7567155" lon="7.9881115"><ele>0.0</ele><time>2026-05-01T01:56:18.016Z</time></trkpt><trkpt lat="43.7567584" lon="7.9882053"><ele>0.0</ele><time>2026-05-01T01:56:19.017Z</time></trkpt><trkpt lat="43.7568031" lon="7.9883004"><ele>0.0</ele><time>2026-05-01T01:56:20.016Z</time></trkpt><trkpt lat="43.7568482" lon="7.9883936"><ele>0.0</ele><time>2026-05-01T01:56:21.016Z</time></trkpt><trkpt lat="43.7568949" lon="7.9884897"><ele>0.0</ele><time>2026-05-01T01:56:22.017Z</time></trkpt><trkpt lat="43.7569418" lon="7.9885861"><ele>0.0</ele><time>2026-05-01T01:56:23.017Z</time></trkpt><trkpt lat="43.7569901" lon="7.9886799"><ele>0.0</ele><time>2026-05-01T01:56:24.016Z</time></trkpt><trkpt lat="43.7570384" lon="7.9887728"><ele>0.0</ele><time>2026-05-01T01:56:25.016Z</time></trkpt><trkpt lat="43.7570869" lon="7.9888634"><ele>0.0</ele><time>2026-05-01T01:56:26.017Z</time></trkpt><trkpt lat="43.7571287" lon="7.9889537"><ele>0.0</ele><time>2026-05-01T01:56:27.017Z</time></trkpt><trkpt lat="43.7571736" lon="7.9890437"><ele>0.0</ele><time>2026-05-01T01:56:28.016Z</time></trkpt><trkpt lat="43.7572223" lon="7.9891319"><ele>0.0</ele><time>2026-05-01T01:56:29.017Z</time></trkpt><trkpt lat="43.7572639" lon="7.9892239"><ele>0.0</ele><time>2026-05-01T01:56:30.017Z</time></trkpt><trkpt lat="43.7573149" lon="7.9893134"><ele>0.0</ele><time>2026-05-01T01:56:31.017Z</time></trkpt><trkpt lat="43.7573587" lon="7.9894068"><ele>0.0</ele><time>2026-05-01T01:56:32.016Z</time></trkpt><trkpt lat="43.7574019" lon="7.9895034"><ele>0.0</ele><time>2026-05-01T01:56:33.016Z</time></trkpt><trkpt lat="43.757442" lon="7.9896"><ele>0.0</ele><time>2026-05-01T01:56:34.017Z</time></trkpt><trkpt lat="43.7574786" lon="7.9896969"><ele>0.0</ele><time>2026-05-01T01:56:35.017Z</time></trkpt><trkpt lat="43.7575201" lon="7.9897948"><ele>0.0</ele><time>2026-05-01T01:56:36.017Z</time></trkpt><trkpt lat="43.7575665" lon="7.9898897"><ele>0.0</ele><time>2026-05-01T01:56:37.016Z</time></trkpt><trkpt lat="43.7576567" lon="7.990075"><ele>0.0</ele><time>2026-05-01T01:56:39.016Z</time></trkpt><trkpt lat="43.7577054" lon="7.9901652"><ele>0.0</ele><time>2026-05-01T01:56:40.017Z</time></trkpt><trkpt lat="43.7577489" lon="7.9902581"><ele>0.0</ele><time>2026-05-01T01:56:41.017Z</time></trkpt><trkpt lat="43.7577902" lon="7.9903517"><ele>0.0</ele><time>2026-05-01T01:56:42.017Z</time></trkpt><trkpt lat="43.7578369" lon="7.9904415"><ele>0.0</ele><time>2026-05-01T01:56:43.017Z</time></trkpt><trkpt lat="43.7578834" lon="7.9905287"><ele>0.0</ele><time>2026-05-01T01:56:44.017Z</time></trkpt><trkpt lat="43.7579814" lon="7.9907113"><ele>0.0</ele><time>2026-05-01T01:56:46.017Z</time></trkpt><trkpt lat="43.7580266" lon="7.9908095"><ele>0.0</ele><time>2026-05-01T01:56:47.016Z</time></trkpt><trkpt lat="43.7580685" lon="7.9909041"><ele>0.0</ele><time>2026-05-01T01:56:48.016Z</time></trkpt><trkpt lat="43.7581133" lon="7.9909972"><ele>0.0</ele><time>2026-05-01T01:56:49.016Z</time></trkpt><trkpt lat="43.7581567" lon="7.9910952"><ele>0.0</ele><time>2026-05-01T01:56:50.017Z</time></trkpt><trkpt lat="43.7582029" lon="7.9911905"><ele>0.0</ele><time>2026-05-01T01:56:51.016Z</time></trkpt><trkpt lat="43.758248" lon="7.9912873"><ele>0.0</ele><time>2026-05-01T01:56:52.016Z</time></trkpt><trkpt lat="43.758296" lon="7.9913803"><ele>0.0</ele><time>2026-05-01T01:56:53.016Z</time></trkpt><trkpt lat="43.7583446" lon="7.9914707"><ele>0.0</ele><time>2026-05-01T01:56:54.017Z</time></trkpt><trkpt lat="43.7583962" lon="7.9915649"><ele>0.0</ele><time>2026-05-01T01:56:55.016Z</time></trkpt><trkpt lat="43.7584404" lon="7.9916539"><ele>0.0</ele><time>2026-05-01T01:56:56.016Z</time></trkpt><trkpt lat="43.7584863" lon="7.9917452"><ele>0.0</ele><time>2026-05-01T01:56:57.017Z</time></trkpt><trkpt lat="43.7585358" lon="7.9918485"><ele>0.0</ele><time>2026-05-01T01:56:58.016Z</time></trkpt><trkpt lat="43.7586316" lon="7.992032"><ele>0.0</ele><time>2026-05-01T01:57:00.016Z</time></trkpt><trkpt lat="43.7586816" lon="7.9921204"><ele>0.0</ele><time>2026-05-01T01:57:01.016Z</time></trkpt><trkpt lat="43.7587345" lon="7.99221"><ele>0.0</ele><time>2026-05-01T01:57:02.016Z</time></trkpt><trkpt lat="43.7587849" lon="7.9922997"><ele>0.0</ele><time>2026-05-01T01:57:03.016Z</time></trkpt><trkpt lat="43.7588349" lon="7.9923929"><ele>0.0</ele><time>2026-05-01T01:57:04.016Z</time></trkpt><trkpt lat="43.758882" lon="7.9924851"><ele>0.0</ele><time>2026-05-01T01:57:05.016Z</time></trkpt><trkpt lat="43.7589271" lon="7.9925771"><ele>0.0</ele><time>2026-05-01T01:57:06.017Z</time></trkpt><trkpt lat="43.7589732" lon="7.99267"><ele>0.0</ele><time>2026-05-01T01:57:07.016Z</time></trkpt><trkpt lat="43.7590202" lon="7.9927622"><ele>0.0</ele><time>2026-05-01T01:57:08.017Z</time></trkpt><trkpt lat="43.7590648" lon="7.9928578"><ele>0.0</ele><time>2026-05-01T01:57:09.017Z</time></trkpt><trkpt lat="43.7591112" lon="7.9929516"><ele>0.0</ele><time>2026-05-01T01:57:10.017Z</time></trkpt><trkpt lat="43.7591608" lon="7.9930454"><ele>0.0</ele><time>2026-05-01T01:57:11.017Z</time></trkpt><trkpt lat="43.7592097" lon="7.9931356"><ele>0.0</ele><time>2026-05-01T01:57:12.017Z</time></trkpt><trkpt lat="43.7592612" lon="7.9932246"><ele>0.0</ele><time>2026-05-01T01:57:13.016Z</time></trkpt><trkpt lat="43.759312" lon="7.9933134"><ele>0.0</ele><time>2026-05-01T01:57:14.016Z</time></trkpt><trkpt lat="43.7593616" lon="7.9934032"><ele>0.0</ele><time>2026-05-01T01:57:15.016Z</time></trkpt><trkpt lat="43.759412" lon="7.9934905"><ele>0.0</ele><time>2026-05-01T01:57:16.016Z</time></trkpt><trkpt lat="43.7594569" lon="7.9935787"><ele>0.0</ele><time>2026-05-01T01:57:17.016Z</time></trkpt><trkpt lat="43.7595485" lon="7.9937614"><ele>0.0</ele><time>2026-05-01T01:57:19.016Z</time></trkpt><trkpt lat="43.7596483" lon="7.9939431"><ele>0.0</ele><time>2026-05-01T01:57:21.016Z</time></trkpt><trkpt lat="43.7596983" lon="7.9940335"><ele>0.0</ele><time>2026-05-01T01:57:22.017Z</time></trkpt><trkpt lat="43.7597451" lon="7.9941281"><ele>0.0</ele><time>2026-05-01T01:57:23.016Z</time></trkpt><trkpt lat="43.7597917" lon="7.9942201"><ele>0.0</ele><time>2026-05-01T01:57:24.017Z</time></trkpt><trkpt lat="43.7598399" lon="7.9943148"><ele>0.0</ele><time>2026-05-01T01:57:25.016Z</time></trkpt><trkpt lat="43.7598853" lon="7.9944086"><ele>0.0</ele><time>2026-05-01T01:57:26.017Z</time></trkpt><trkpt lat="43.7599319" lon="7.9944985"><ele>0.0</ele><time>2026-05-01T01:57:27.016Z</time></trkpt><trkpt lat="43.7599785" lon="7.9945885"><ele>0.0</ele><time>2026-05-01T01:57:28.016Z</time></trkpt><trkpt lat="43.7600239" lon="7.9946787"><ele>0.0</ele><time>2026-05-01T01:57:29.017Z</time></trkpt><trkpt lat="43.7600685" lon="7.9947731"><ele>0.0</ele><time>2026-05-01T01:57:30.017Z</time></trkpt><trkpt lat="43.7601147" lon="7.9948698"><ele>0.0</ele><time>2026-05-01T01:57:31.016Z</time></trkpt><trkpt lat="43.7601725" lon="7.9949535"><ele>0.0</ele><time>2026-05-01T01:57:32.016Z</time></trkpt><trkpt lat="43.7602227" lon="7.9950466"><ele>0.0</ele><time>2026-05-01T01:57:33.016Z</time></trkpt><trkpt lat="43.76028" lon="7.9951317"><ele>0.0</ele><time>2026-05-01T01:57:34.017Z</time></trkpt><trkpt lat="43.7603257" lon="7.9952176"><ele>0.0</ele><time>2026-05-01T01:57:35.017Z</time></trkpt><trkpt lat="43.7603708" lon="7.9953051"><ele>0.0</ele><time>2026-05-01T01:57:36.016Z</time></trkpt><trkpt lat="43.7604133" lon="7.9953975"><ele>0.0</ele><time>2026-05-01T01:57:37.017Z</time></trkpt><trkpt lat="43.7604603" lon="7.9954868"><ele>0.0</ele><time>2026-05-01T01:57:38.016Z</time></trkpt><trkpt lat="43.7605039" lon="7.9955766"><ele>0.0</ele><time>2026-05-01T01:57:39.016Z</time></trkpt><trkpt lat="43.7605869" lon="7.9957731"><ele>0.0</ele><time>2026-05-01T01:57:41.017Z</time></trkpt><trkpt lat="43.7606302" lon="7.9958683"><ele>0.0</ele><time>2026-05-01T01:57:42.016Z</time></trkpt><trkpt lat="43.7606752" lon="7.995962"><ele>0.0</ele><time>2026-05-01T01:57:43.016Z</time></trkpt><trkpt lat="43.760726" lon="7.9960597"><ele>0.0</ele><time>2026-05-01T01:57:44.016Z</time></trkpt><trkpt lat="43.7607717" lon="7.9961504"><ele>0.0</ele><time>2026-05-01T01:57:45.016Z</time></trkpt><trkpt lat="43.7608201" lon="7.9962428"><ele>0.0</ele><time>2026-05-01T01:57:46.017Z</time></trkpt><trkpt lat="43.7608684" lon="7.9963394"><ele>0.0</ele><time>2026-05-01T01:57:47.017Z</time></trkpt><trkpt lat="43.7609148" lon="7.9964378"><ele>0.0</ele><time>2026-05-01T01:57:48.017Z</time></trkpt><trkpt lat="43.7609587" lon="7.9965332"><ele>0.0</ele><time>2026-05-01T01:57:49.016Z</time></trkpt><trkpt lat="43.7609984" lon="7.9966313"><ele>0.0</ele><time>2026-05-01T01:57:50.016Z</time></trkpt><trkpt lat="43.7610405" lon="7.996722"><ele>0.0</ele><time>2026-05-01T01:57:51.016Z</time></trkpt><trkpt lat="43.7610863" lon="7.9968165"><ele>0.0</ele><time>2026-05-01T01:57:52.016Z</time></trkpt><trkpt lat="43.7611332" lon="7.9969125"><ele>0.0</ele><time>2026-05-01T01:57:53.016Z</time></trkpt><trkpt lat="43.7611754" lon="7.9970096"><ele>0.0</ele><time>2026-05-01T01:57:54.017Z</time></trkpt><trkpt lat="43.7612171" lon="7.9971024"><ele>0.0</ele><time>2026-05-01T01:57:55.016Z</time></trkpt><trkpt lat="43.7612605" lon="7.9971926"><ele>0.0</ele><time>2026-05-01T01:57:56.017Z</time></trkpt><trkpt lat="43.7613036" lon="7.9972869"><ele>0.0</ele><time>2026-05-01T01:57:57.016Z</time></trkpt><trkpt lat="43.7613485" lon="7.9973803"><ele>0.0</ele><time>2026-05-01T01:57:58.017Z</time></trkpt><trkpt lat="43.7613933" lon="7.9974751"><ele>0.0</ele><time>2026-05-01T01:57:59.017Z</time></trkpt><trkpt lat="43.7614412" lon="7.9975693"><ele>0.0</ele><time>2026-05-01T01:58:00.016Z</time></trkpt><trkpt lat="43.7615255" lon="7.9977523"><ele>0.0</ele><time>2026-05-01T01:58:02.016Z</time></trkpt><trkpt lat="43.7615698" lon="7.9978378"><ele>0.0</ele><time>2026-05-01T01:58:03.016Z</time></trkpt><trkpt lat="43.7616161" lon="7.9979313"><ele>0.0</ele><time>2026-05-01T01:58:04.016Z</time></trkpt><trkpt lat="43.7616646" lon="7.9980248"><ele>0.0</ele><time>2026-05-01T01:58:05.016Z</time></trkpt><trkpt lat="43.7617117" lon="7.9981149"><ele>0.0</ele><time>2026-05-01T01:58:06.016Z</time></trkpt><trkpt lat="43.76176" lon="7.9982067"><ele>0.0</ele><time>2026-05-01T01:58:07.016Z</time></trkpt><trkpt lat="43.7618097" lon="7.9982998"><ele>0.0</ele><time>2026-05-01T01:58:08.017Z</time></trkpt><trkpt lat="43.7618552" lon="7.9983936"><ele>0.0</ele><time>2026-05-01T01:58:09.016Z</time></trkpt><trkpt lat="43.7619" lon="7.9984898"><ele>0.0</ele><time>2026-05-01T01:58:10.017Z</time></trkpt><trkpt lat="43.761951" lon="7.9985905"><ele>0.0</ele><time>2026-05-01T01:58:11.016Z</time></trkpt><trkpt lat="43.7620001" lon="7.9986831"><ele>0.0</ele><time>2026-05-01T01:58:12.016Z</time></trkpt><trkpt lat="43.7620435" lon="7.9987763"><ele>0.0</ele><time>2026-05-01T01:58:13.016Z</time></trkpt><trkpt lat="43.7620927" lon="7.9988681"><ele>0.0</ele><time>2026-05-01T01:58:14.016Z</time></trkpt><trkpt lat="43.7621432" lon="7.9989586"><ele>0.0</ele><time>2026-05-01T01:58:15.016Z</time></trkpt><trkpt lat="43.7621944" lon="7.9990444"><ele>0.0</ele><time>2026-05-01T01:58:16.017Z</time></trkpt><trkpt lat="43.7622434" lon="7.999135"><ele>0.0</ele><time>2026-05-01T01:58:17.016Z</time></trkpt><trkpt lat="43.7622961" lon="7.9992322"><ele>0.0</ele><time>2026-05-01T01:58:18.016Z</time></trkpt><trkpt lat="43.762349" lon="7.9993146"><ele>0.0</ele><time>2026-05-01T01:58:19.016Z</time></trkpt><trkpt lat="43.7623968" lon="7.9994038"><ele>0.0</ele><time>2026-05-01T01:58:20.017Z</time></trkpt><trkpt lat="43.7624437" lon="7.9994907"><ele>0.0</ele><time>2026-05-01T01:58:21.017Z</time></trkpt><trkpt lat="43.7624862" lon="7.9995863"><ele>0.0</ele><time>2026-05-01T01:58:22.016Z</time></trkpt><trkpt lat="43.762621" lon="7.9998588"><ele>0.0</ele><time>2026-05-01T01:58:25.016Z</time></trkpt><trkpt lat="43.7626642" lon="7.9999491"><ele>0.0</ele><time>2026-05-01T01:58:26.016Z</time></trkpt><trkpt lat="43.7627124" lon="8.0000391"><ele>0.0</ele><time>2026-05-01T01:58:27.017Z</time></trkpt><trkpt lat="43.7627585" lon="8.0001303"><ele>0.0</ele><time>2026-05-01T01:58:28.017Z</time></trkpt><trkpt lat="43.7628111" lon="8.0002183"><ele>0.0</ele><time>2026-05-01T01:58:29.017Z</time></trkpt><trkpt lat="43.7628624" lon="8.0003014"><ele>0.0</ele><time>2026-05-01T01:58:30.017Z</time></trkpt><trkpt lat="43.7629055" lon="8.0003931"><ele>0.0</ele><time>2026-05-01T01:58:31.016Z</time></trkpt><trkpt lat="43.7629568" lon="8.0004779"><ele>0.0</ele><time>2026-05-01T01:58:32.017Z</time></trkpt><trkpt lat="43.7630069" lon="8.0005697"><ele>0.0</ele><time>2026-05-01T01:58:33.016Z</time></trkpt><trkpt lat="43.7630538" lon="8.0006658"><ele>0.0</ele><time>2026-05-01T01:58:34.017Z</time></trkpt><trkpt lat="43.763103" lon="8.0007655"><ele>0.0</ele><time>2026-05-01T01:58:35.017Z</time></trkpt><trkpt lat="43.7631548" lon="8.000862"><ele>0.0</ele><time>2026-05-01T01:58:36.016Z</time></trkpt><trkpt lat="43.7632067" lon="8.00095"><ele>0.0</ele><time>2026-05-01T01:58:37.017Z</time></trkpt><trkpt lat="43.7632544" lon="8.001039"><ele>0.0</ele><time>2026-05-01T01:58:38.017Z</time></trkpt><trkpt lat="43.763304" lon="8.0011249"><ele>0.0</ele><time>2026-05-01T01:58:39.017Z</time></trkpt><trkpt lat="43.7633536" lon="8.0012126"><ele>0.0</ele><time>2026-05-01T01:58:40.017Z</time></trkpt><trkpt lat="43.7634053" lon="8.0013011"><ele>0.0</ele><time>2026-05-01T01:58:41.016Z</time></trkpt><trkpt lat="43.7634584" lon="8.0013913"><ele>0.0</ele><time>2026-05-01T01:58:42.016Z</time></trkpt><trkpt lat="43.763507" lon="8.0014801"><ele>0.0</ele><time>2026-05-01T01:58:43.016Z</time></trkpt><trkpt lat="43.7635565" lon="8.0015727"><ele>0.0</ele><time>2026-05-01T01:58:44.017Z</time></trkpt><trkpt lat="43.7637037" lon="8.0018432"><ele>0.0</ele><time>2026-05-01T01:58:47.016Z</time></trkpt><trkpt lat="43.7637458" lon="8.001935"><ele>0.0</ele><time>2026-05-01T01:58:48.016Z</time></trkpt><trkpt lat="43.7637889" lon="8.0020294"><ele>0.0</ele><time>2026-05-01T01:58:49.017Z</time></trkpt><trkpt lat="43.7638383" lon="8.0021195"><ele>0.0</ele><time>2026-05-01T01:58:50.016Z</time></trkpt><trkpt lat="43.7638857" lon="8.0022054"><ele>0.0</ele><time>2026-05-01T01:58:51.016Z</time></trkpt><trkpt lat="43.7639371" lon="8.0022915"><ele>0.0</ele><time>2026-05-01T01:58:52.016Z</time></trkpt><trkpt lat="43.763989" lon="8.0023834"><ele>0.0</ele><time>2026-05-01T01:58:53.016Z</time></trkpt><trkpt lat="43.7640456" lon="8.0024685"><ele>0.0</ele><time>2026-05-01T01:58:54.017Z</time></trkpt><trkpt lat="43.7640984" lon="8.002559"><ele>0.0</ele><time>2026-05-01T01:58:55.017Z</time></trkpt><trkpt lat="43.7641923" lon="8.0027381"><ele>0.0</ele><time>2026-05-01T01:58:57.016Z</time></trkpt><trkpt lat="43.7642797" lon="8.0029261"><ele>0.0</ele><time>2026-05-01T01:58:59.016Z</time></trkpt><trkpt lat="43.7643222" lon="8.0030199"><ele>0.0</ele><time>2026-05-01T01:59:00.016Z</time></trkpt><trkpt lat="43.7643664" lon="8.0031148"><ele>0.0</ele><time>2026-05-01T01:59:01.016Z</time></trkpt><trkpt lat="43.7644117" lon="8.0032065"><ele>0.0</ele><time>2026-05-01T01:59:02.016Z</time></trkpt><trkpt lat="43.76446" lon="8.0033026"><ele>0.0</ele><time>2026-05-01T01:59:03.016Z</time></trkpt><trkpt lat="43.7645068" lon="8.0033937"><ele>0.0</ele><time>2026-05-01T01:59:04.017Z</time></trkpt><trkpt lat="43.764552" lon="8.0034846"><ele>0.0</ele><time>2026-05-01T01:59:05.016Z</time></trkpt><trkpt lat="43.7646425" lon="8.0036624"><ele>0.0</ele><time>2026-05-01T01:59:07.016Z</time></trkpt><trkpt lat="43.7646977" lon="8.0037558"><ele>0.0</ele><time>2026-05-01T01:59:08.017Z</time></trkpt><trkpt lat="43.7647484" lon="8.0038415"><ele>0.0</ele><time>2026-05-01T01:59:09.016Z</time></trkpt><trkpt lat="43.7647969" lon="8.0039326"><ele>0.0</ele><time>2026-05-01T01:59:10.017Z</time></trkpt><trkpt lat="43.7648496" lon="8.0040226"><ele>0.0</ele><time>2026-05-01T01:59:11.016Z</time></trkpt><trkpt lat="43.7649004" lon="8.0041115"><ele>0.0</ele><time>2026-05-01T01:59:12.016Z</time></trkpt><trkpt lat="43.7649456" lon="8.0042016"><ele>0.0</ele><time>2026-05-01T01:59:13.017Z</time></trkpt><trkpt lat="43.7649885" lon="8.0042944"><ele>0.0</ele><time>2026-05-01T01:59:14.016Z</time></trkpt><trkpt lat="43.765035" lon="8.0043889"><ele>0.0</ele><time>2026-05-01T01:59:15.016Z</time></trkpt><trkpt lat="43.7650771" lon="8.0044829"><ele>0.0</ele><time>2026-05-01T01:59:16.017Z</time></trkpt><trkpt lat="43.7651199" lon="8.0045809"><ele>0.0</ele><time>2026-05-01T01:59:17.016Z</time></trkpt><trkpt lat="43.7651665" lon="8.0046792"><ele>0.0</ele><time>2026-05-01T01:59:18.017Z</time></trkpt><trkpt lat="43.7652132" lon="8.0047761"><ele>0.0</ele><time>2026-05-01T01:59:19.017Z</time></trkpt><trkpt lat="43.7652633" lon="8.0048669"><ele>0.0</ele><time>2026-05-01T01:59:20.016Z</time></trkpt><trkpt lat="43.765309" lon="8.0049593"><ele>0.0</ele><time>2026-05-01T01:59:21.017Z</time></trkpt><trkpt lat="43.7653571" lon="8.0050517"><ele>0.0</ele><time>2026-05-01T01:59:22.016Z</time></trkpt><trkpt lat="43.7654035" lon="8.0051404"><ele>0.0</ele><time>2026-05-01T01:59:23.016Z</time></trkpt><trkpt lat="43.7654456" lon="8.0052299"><ele>0.0</ele><time>2026-05-01T01:59:24.017Z</time></trkpt><trkpt lat="43.7654916" lon="8.0053257"><ele>0.0</ele><time>2026-05-01T01:59:25.016Z</time></trkpt><trkpt lat="43.7655834" lon="8.0055094"><ele>0.0</ele><time>2026-05-01T01:59:27.017Z</time></trkpt><trkpt lat="43.7656273" lon="8.0056019"><ele>0.0</ele><time>2026-05-01T01:59:28.017Z</time></trkpt><trkpt lat="43.7657169" lon="8.005778"><ele>0.0</ele><time>2026-05-01T01:59:30.016Z</time></trkpt><trkpt lat="43.7657668" lon="8.0058683"><ele>0.0</ele><time>2026-05-01T01:59:31.017Z</time></trkpt><trkpt lat="43.7658135" lon="8.0059584"><ele>0.0</ele><time>2026-05-01T01:59:32.017Z</time></trkpt><trkpt lat="43.7658629" lon="8.0060497"><ele>0.0</ele><time>2026-05-01T01:59:33.016Z</time></trkpt><trkpt lat="43.7659173" lon="8.0061409"><ele>0.0</ele><time>2026-05-01T01:59:34.017Z</time></trkpt><trkpt lat="43.765974" lon="8.0062275"><ele>0.0</ele><time>2026-05-01T01:59:35.016Z</time></trkpt><trkpt lat="43.7660289" lon="8.0063196"><ele>0.0</ele><time>2026-05-01T01:59:36.017Z</time></trkpt><trkpt lat="43.7660827" lon="8.0064131"><ele>0.0</ele><time>2026-05-01T01:59:37.016Z</time></trkpt><trkpt lat="43.7661329" lon="8.0065059"><ele>0.0</ele><time>2026-05-01T01:59:38.017Z</time></trkpt><trkpt lat="43.7661801" lon="8.0066024"><ele>0.0</ele><time>2026-05-01T01:59:39.016Z</time></trkpt><trkpt lat="43.7662254" lon="8.0066967"><ele>0.0</ele><time>2026-05-01T01:59:40.017Z</time></trkpt><trkpt lat="43.7662669" lon="8.0067902"><ele>0.0</ele><time>2026-05-01T01:59:41.017Z</time></trkpt><trkpt lat="43.7663083" lon="8.0068893"><ele>0.0</ele><time>2026-05-01T01:59:42.017Z</time></trkpt><trkpt lat="43.7663521" lon="8.0069829"><ele>0.0</ele><time>2026-05-01T01:59:43.016Z</time></trkpt><trkpt lat="43.766394" lon="8.0070823"><ele>0.0</ele><time>2026-05-01T01:59:44.016Z</time></trkpt><trkpt lat="43.7664342" lon="8.0071765"><ele>0.0</ele><time>2026-05-01T01:59:45.015Z</time></trkpt><trkpt lat="43.7664744" lon="8.0072712"><ele>0.0</ele><time>2026-05-01T01:59:46.016Z</time></trkpt><trkpt lat="43.7665616" lon="8.0074562"><ele>0.0</ele><time>2026-05-01T01:59:48.015Z</time></trkpt><trkpt lat="43.7666153" lon="8.0075373"><ele>0.0</ele><time>2026-05-01T01:59:49.015Z</time></trkpt><trkpt lat="43.7666675" lon="8.00762"><ele>0.0</ele><time>2026-05-01T01:59:50.016Z</time></trkpt><trkpt lat="43.7667177" lon="8.007708"><ele>0.0</ele><time>2026-05-01T01:59:51.015Z</time></trkpt><trkpt lat="43.7667692" lon="8.0077912"><ele>0.0</ele><time>2026-05-01T01:59:52.016Z</time></trkpt><trkpt lat="43.7668215" lon="8.0078756"><ele>0.0</ele><time>2026-05-01T01:59:53.016Z</time></trkpt><trkpt lat="43.7668685" lon="8.0079652"><ele>0.0</ele><time>2026-05-01T01:59:54.016Z</time></trkpt><trkpt lat="43.7669164" lon="8.0080575"><ele>0.0</ele><time>2026-05-01T01:59:55.015Z</time></trkpt><trkpt lat="43.7669713" lon="8.008145"><ele>0.0</ele><time>2026-05-01T01:59:56.016Z</time></trkpt><trkpt lat="43.7670232" lon="8.0082374"><ele>0.0</ele><time>2026-05-01T01:59:57.015Z</time></trkpt><trkpt lat="43.7670748" lon="8.0083315"><ele>0.0</ele><time>2026-05-01T01:59:58.015Z</time></trkpt><trkpt lat="43.7671232" lon="8.0084246"><ele>0.0</ele><time>2026-05-01T01:59:59.015Z</time></trkpt><trkpt lat="43.7671689" lon="8.0085169"><ele>0.0</ele><time>2026-05-01T02:00:00.015Z</time></trkpt><trkpt lat="43.7672167" lon="8.0086083"><ele>0.0</ele><time>2026-05-01T02:00:01.015Z</time></trkpt><trkpt lat="43.767307" lon="8.0087881"><ele>0.0</ele><time>2026-05-01T02:00:03.016Z</time></trkpt><trkpt lat="43.7673463" lon="8.0088771"><ele>0.0</ele><time>2026-05-01T02:00:04.015Z</time></trkpt><trkpt lat="43.7673877" lon="8.0089668"><ele>0.0</ele><time>2026-05-01T02:00:05.016Z</time></trkpt><trkpt lat="43.7674303" lon="8.0090582"><ele>0.0</ele><time>2026-05-01T02:00:06.015Z</time></trkpt><trkpt lat="43.7674708" lon="8.0091528"><ele>0.0</ele><time>2026-05-01T02:00:07.016Z</time></trkpt><trkpt lat="43.7675573" lon="8.009344"><ele>0.0</ele><time>2026-05-01T02:00:09.015Z</time></trkpt><trkpt lat="43.7676022" lon="8.0094426"><ele>0.0</ele><time>2026-05-01T02:00:10.015Z</time></trkpt><trkpt lat="43.7676473" lon="8.0095382"><ele>0.0</ele><time>2026-05-01T02:00:11.015Z</time></trkpt><trkpt lat="43.7676909" lon="8.0096311"><ele>0.0</ele><time>2026-05-01T02:00:12.015Z</time></trkpt><trkpt lat="43.7677312" lon="8.0097272"><ele>0.0</ele><time>2026-05-01T02:00:13.015Z</time></trkpt><trkpt lat="43.7677757" lon="8.0098198"><ele>0.0</ele><time>2026-05-01T02:00:14.016Z</time></trkpt><trkpt lat="43.7678233" lon="8.0099171"><ele>0.0</ele><time>2026-05-01T02:00:15.016Z</time></trkpt><trkpt lat="43.7678605" lon="8.01002"><ele>0.0</ele><time>2026-05-01T02:00:16.015Z</time></trkpt><trkpt lat="43.7678963" lon="8.0101163"><ele>0.0</ele><time>2026-05-01T02:00:17.015Z</time></trkpt><trkpt lat="43.7679323" lon="8.0102101"><ele>0.0</ele><time>2026-05-01T02:00:18.016Z</time></trkpt><trkpt lat="43.7679766" lon="8.0103061"><ele>0.0</ele><time>2026-05-01T02:00:19.015Z</time></trkpt><trkpt lat="43.7680199" lon="8.0104076"><ele>0.0</ele><time>2026-05-01T02:00:20.015Z</time></trkpt><trkpt lat="43.7680682" lon="8.0105032"><ele>0.0</ele><time>2026-05-01T02:00:21.016Z</time></trkpt><trkpt lat="43.768117" lon="8.0105937"><ele>0.0</ele><time>2026-05-01T02:00:22.016Z</time></trkpt><trkpt lat="43.7681635" lon="8.0106881"><ele>0.0</ele><time>2026-05-01T02:00:23.016Z</time></trkpt><trkpt lat="43.7682087" lon="8.0107774"><ele>0.0</ele><time>2026-05-01T02:00:24.015Z</time></trkpt><trkpt lat="43.7682564" lon="8.0108679"><ele>0.0</ele><time>2026-05-01T02:00:25.016Z</time></trkpt><trkpt lat="43.7683074" lon="8.0109583"><ele>0.0</ele><time>2026-05-01T02:00:26.015Z</time></trkpt><trkpt lat="43.7683525" lon="8.011057"><ele>0.0</ele><time>2026-05-01T02:00:27.016Z</time></trkpt><trkpt lat="43.7683967" lon="8.0111474"><ele>0.0</ele><time>2026-05-01T02:00:28.016Z</time></trkpt><trkpt lat="43.7684917" lon="8.0113269"><ele>0.0</ele><time>2026-05-01T02:00:30.016Z</time></trkpt><trkpt lat="43.7685397" lon="8.011415"><ele>0.0</ele><time>2026-05-01T02:00:31.015Z</time></trkpt><trkpt lat="43.7685853" lon="8.0115036"><ele>0.0</ele><time>2026-05-01T02:00:32.015Z</time></trkpt><trkpt lat="43.7686342" lon="8.0115921"><ele>0.0</ele><time>2026-05-01T02:00:33.016Z</time></trkpt><trkpt lat="43.768686" lon="8.011682"><ele>0.0</ele><time>2026-05-01T02:00:34.015Z</time></trkpt><trkpt lat="43.7687792" lon="8.0118681"><ele>0.0</ele><time>2026-05-01T02:00:36.016Z</time></trkpt><trkpt lat="43.7688295" lon="8.0119566"><ele>0.0</ele><time>2026-05-01T02:00:37.015Z</time></trkpt><trkpt lat="43.7688793" lon="8.0120434"><ele>0.0</ele><time>2026-05-01T02:00:38.015Z</time></trkpt><trkpt lat="43.7689298" lon="8.0121316"><ele>0.0</ele><time>2026-05-01T02:00:39.015Z</time></trkpt><trkpt lat="43.7689756" lon="8.0122245"><ele>0.0</ele><time>2026-05-01T02:00:40.016Z</time></trkpt><trkpt lat="43.7690176" lon="8.0123182"><ele>0.0</ele><time>2026-05-01T02:00:41.016Z</time></trkpt><trkpt lat="43.7690589" lon="8.0124105"><ele>0.0</ele><time>2026-05-01T02:00:42.015Z</time></trkpt><trkpt lat="43.7691061" lon="8.0124974"><ele>0.0</ele><time>2026-05-01T02:00:43.015Z</time></trkpt><trkpt lat="43.769159" lon="8.0125831"><ele>0.0</ele><time>2026-05-01T02:00:44.015Z</time></trkpt><trkpt lat="43.7692064" lon="8.0126748"><ele>0.0</ele><time>2026-05-01T02:00:45.015Z</time></trkpt><trkpt lat="43.7692619" lon="8.0127595"><ele>0.0</ele><time>2026-05-01T02:00:46.015Z</time></trkpt><trkpt lat="43.7693099" lon="8.0128515"><ele>0.0</ele><time>2026-05-01T02:00:47.015Z</time></trkpt><trkpt lat="43.7693537" lon="8.0129447"><ele>0.0</ele><time>2026-05-01T02:00:48.016Z</time></trkpt><trkpt lat="43.7694024" lon="8.0130381"><ele>0.0</ele><time>2026-05-01T02:00:49.016Z</time></trkpt><trkpt lat="43.7694985" lon="8.0132359"><ele>0.0</ele><time>2026-05-01T02:00:51.016Z</time></trkpt><trkpt lat="43.7695434" lon="8.0133298"><ele>0.0</ele><time>2026-05-01T02:00:52.016Z</time></trkpt><trkpt lat="43.7695871" lon="8.0134216"><ele>0.0</ele><time>2026-05-01T02:00:53.015Z</time></trkpt><trkpt lat="43.7696303" lon="8.01352"><ele>0.0</ele><time>2026-05-01T02:00:54.016Z</time></trkpt><trkpt lat="43.7696866" lon="8.0136043"><ele>0.0</ele><time>2026-05-01T02:00:55.016Z</time></trkpt><trkpt lat="43.7697378" lon="8.0136921"><ele>0.0</ele><time>2026-05-01T02:00:56.015Z</time></trkpt><trkpt lat="43.7697835" lon="8.0137891"><ele>0.0</ele><time>2026-05-01T02:00:57.016Z</time></trkpt><trkpt lat="43.7698302" lon="8.0138829"><ele>0.0</ele><time>2026-05-01T02:00:58.015Z</time></trkpt><trkpt lat="43.7698783" lon="8.0139782"><ele>0.0</ele><time>2026-05-01T02:00:59.016Z</time></trkpt><trkpt lat="43.7699233" lon="8.0140716"><ele>0.0</ele><time>2026-05-01T02:01:00.016Z</time></trkpt><trkpt lat="43.769971" lon="8.0141673"><ele>0.0</ele><time>2026-05-01T02:01:01.016Z</time></trkpt><trkpt lat="43.7700169" lon="8.0142572"><ele>0.0</ele><time>2026-05-01T02:01:02.015Z</time></trkpt><trkpt lat="43.770065" lon="8.0143483"><ele>0.0</ele><time>2026-05-01T02:01:03.015Z</time></trkpt><trkpt lat="43.770112" lon="8.0144402"><ele>0.0</ele><time>2026-05-01T02:01:04.016Z</time></trkpt><trkpt lat="43.7701557" lon="8.0145321"><ele>0.0</ele><time>2026-05-01T02:01:05.016Z</time></trkpt><trkpt lat="43.770202" lon="8.0146234"><ele>0.0</ele><time>2026-05-01T02:01:06.015Z</time></trkpt><trkpt lat="43.7702429" lon="8.0147176"><ele>0.0</ele><time>2026-05-01T02:01:07.015Z</time></trkpt><trkpt lat="43.7703291" lon="8.0149014"><ele>0.0</ele><time>2026-05-01T02:01:09.016Z</time></trkpt><trkpt lat="43.7703693" lon="8.0149988"><ele>0.0</ele><time>2026-05-01T02:01:10.015Z</time></trkpt><trkpt lat="43.7704585" lon="8.0151818"><ele>0.0</ele><time>2026-05-01T02:01:12.016Z</time></trkpt><trkpt lat="43.7704994" lon="8.0152703"><ele>0.0</ele><time>2026-05-01T02:01:13.015Z</time></trkpt><trkpt lat="43.7705421" lon="8.0153576"><ele>0.0</ele><time>2026-05-01T02:01:14.016Z</time></trkpt><trkpt lat="43.7705842" lon="8.0154482"><ele>0.0</ele><time>2026-05-01T02:01:15.016Z</time></trkpt><trkpt lat="43.7706299" lon="8.0155428"><ele>0.0</ele><time>2026-05-01T02:01:16.016Z</time></trkpt><trkpt lat="43.7706793" lon="8.0156352"><ele>0.0</ele><time>2026-05-01T02:01:17.015Z</time></trkpt><trkpt lat="43.770728" lon="8.0157227"><ele>0.0</ele><time>2026-05-01T02:01:18.015Z</time></trkpt><trkpt lat="43.7707767" lon="8.0158103"><ele>0.0</ele><time>2026-05-01T02:01:19.016Z</time></trkpt><trkpt lat="43.7708234" lon="8.0158997"><ele>0.0</ele><time>2026-05-01T02:01:20.015Z</time></trkpt><trkpt lat="43.7708701" lon="8.0159918"><ele>0.0</ele><time>2026-05-01T02:01:21.016Z</time></trkpt><trkpt lat="43.770917" lon="8.0160834"><ele>0.0</ele><time>2026-05-01T02:01:22.016Z</time></trkpt><trkpt lat="43.7709638" lon="8.0161721"><ele>0.0</ele><time>2026-05-01T02:01:23.015Z</time></trkpt><trkpt lat="43.7710101" lon="8.016263"><ele>0.0</ele><time>2026-05-01T02:01:24.016Z</time></trkpt><trkpt lat="43.7710568" lon="8.0163547"><ele>0.0</ele><time>2026-05-01T02:01:25.015Z</time></trkpt><trkpt lat="43.7711032" lon="8.0164493"><ele>0.0</ele><time>2026-05-01T02:01:26.015Z</time></trkpt><trkpt lat="43.7711515" lon="8.0165414"><ele>0.0</ele><time>2026-05-01T02:01:27.016Z</time></trkpt><trkpt lat="43.7711997" lon="8.0166358"><ele>0.0</ele><time>2026-05-01T02:01:28.015Z</time></trkpt><trkpt lat="43.7712469" lon="8.0167296"><ele>0.0</ele><time>2026-05-01T02:01:29.015Z</time></trkpt><trkpt lat="43.7712907" lon="8.0168234"><ele>0.0</ele><time>2026-05-01T02:01:30.015Z</time></trkpt><trkpt lat="43.7713335" lon="8.0169153"><ele>0.0</ele><time>2026-05-01T02:01:31.015Z</time></trkpt><trkpt lat="43.7714218" lon="8.0170977"><ele>0.0</ele><time>2026-05-01T02:01:33.015Z</time></trkpt><trkpt lat="43.7714724" lon="8.0171865"><ele>0.0</ele><time>2026-05-01T02:01:34.015Z</time></trkpt><trkpt lat="43.7715228" lon="8.0172759"><ele>0.0</ele><time>2026-05-01T02:01:35.016Z</time></trkpt><trkpt lat="43.7715751" lon="8.0173647"><ele>0.0</ele><time>2026-05-01T02:01:36.015Z</time></trkpt><trkpt lat="43.7716268" lon="8.0174545"><ele>0.0</ele><time>2026-05-01T02:01:37.015Z</time></trkpt><trkpt lat="43.7716767" lon="8.0175418"><ele>0.0</ele><time>2026-05-01T02:01:38.015Z</time></trkpt><trkpt lat="43.7717253" lon="8.0176316"><ele>0.0</ele><time>2026-05-01T02:01:39.016Z</time></trkpt><trkpt lat="43.7717716" lon="8.0177254"><ele>0.0</ele><time>2026-05-01T02:01:40.016Z</time></trkpt><trkpt lat="43.7718652" lon="8.0179162"><ele>0.0</ele><time>2026-05-01T02:01:42.015Z</time></trkpt><trkpt lat="43.7719101" lon="8.0180141"><ele>0.0</ele><time>2026-05-01T02:01:43.016Z</time></trkpt><trkpt lat="43.7719534" lon="8.018111"><ele>0.0</ele><time>2026-05-01T02:01:44.015Z</time></trkpt><trkpt lat="43.771997" lon="8.0182048"><ele>0.0</ele><time>2026-05-01T02:01:45.015Z</time></trkpt><trkpt lat="43.7720433" lon="8.0183009"><ele>0.0</ele><time>2026-05-01T02:01:46.016Z</time></trkpt><trkpt lat="43.77209" lon="8.0183966"><ele>0.0</ele><time>2026-05-01T02:01:47.015Z</time></trkpt><trkpt lat="43.7721355" lon="8.0184871"><ele>0.0</ele><time>2026-05-01T02:01:48.015Z</time></trkpt><trkpt lat="43.7721817" lon="8.0185798"><ele>0.0</ele><time>2026-05-01T02:01:49.016Z</time></trkpt><trkpt lat="43.7722296" lon="8.0186729"><ele>0.0</ele><time>2026-05-01T02:01:50.015Z</time></trkpt><trkpt lat="43.7722767" lon="8.0187693"><ele>0.0</ele><time>2026-05-01T02:01:51.016Z</time></trkpt><trkpt lat="43.7723264" lon="8.0188616"><ele>0.0</ele><time>2026-05-01T02:01:52.016Z</time></trkpt><trkpt lat="43.7724268" lon="8.0190434"><ele>0.0</ele><time>2026-05-01T02:01:54.016Z</time></trkpt><trkpt lat="43.7724751" lon="8.0191338"><ele>0.0</ele><time>2026-05-01T02:01:55.016Z</time></trkpt><trkpt lat="43.7725202" lon="8.0192264"><ele>0.0</ele><time>2026-05-01T02:01:56.015Z</time></trkpt><trkpt lat="43.7725636" lon="8.0193226"><ele>0.0</ele><time>2026-05-01T02:01:57.016Z</time></trkpt><trkpt lat="43.7726143" lon="8.0194178"><ele>0.0</ele><time>2026-05-01T02:01:58.015Z</time></trkpt><trkpt lat="43.7726616" lon="8.0195148"><ele>0.0</ele><time>2026-05-01T02:01:59.015Z</time></trkpt><trkpt lat="43.7727085" lon="8.0196039"><ele>0.0</ele><time>2026-05-01T02:02:00.016Z</time></trkpt><trkpt lat="43.7727534" lon="8.0196919"><ele>0.0</ele><time>2026-05-01T02:02:01.016Z</time></trkpt><trkpt lat="43.7727972" lon="8.0197877"><ele>0.0</ele><time>2026-05-01T02:02:02.015Z</time></trkpt><trkpt lat="43.7728393" lon="8.0198808"><ele>0.0</ele><time>2026-05-01T02:02:03.016Z</time></trkpt><trkpt lat="43.7728866" lon="8.0199732"><ele>0.0</ele><time>2026-05-01T02:02:04.016Z</time></trkpt><trkpt lat="43.7729367" lon="8.0200651"><ele>0.0</ele><time>2026-05-01T02:02:05.016Z</time></trkpt><trkpt lat="43.7729808" lon="8.0201597"><ele>0.0</ele><time>2026-05-01T02:02:06.015Z</time></trkpt><trkpt lat="43.7730249" lon="8.0202545"><ele>0.0</ele><time>2026-05-01T02:02:07.015Z</time></trkpt><trkpt lat="43.7730685" lon="8.0203515"><ele>0.0</ele><time>2026-05-01T02:02:08.015Z</time></trkpt><trkpt lat="43.7731132" lon="8.0204526"><ele>0.0</ele><time>2026-05-01T02:02:09.015Z</time></trkpt><trkpt lat="43.7731585" lon="8.0205482"><ele>0.0</ele><time>2026-05-01T02:02:10.015Z</time></trkpt><trkpt lat="43.7732078" lon="8.0206405"><ele>0.0</ele><time>2026-05-01T02:02:11.015Z</time></trkpt><trkpt lat="43.7732549" lon="8.0207337"><ele>0.0</ele><time>2026-05-01T02:02:12.015Z</time></trkpt><trkpt lat="43.7734438" lon="8.0210983"><ele>0.0</ele><time>2026-05-01T02:02:16.015Z</time></trkpt><trkpt lat="43.7734856" lon="8.0211886"><ele>0.0</ele><time>2026-05-01T02:02:17.015Z</time></trkpt><trkpt lat="43.7735285" lon="8.0212813"><ele>0.0</ele><time>2026-05-01T02:02:18.016Z</time></trkpt><trkpt lat="43.7735703" lon="8.0213749"><ele>0.0</ele><time>2026-05-01T02:02:19.016Z</time></trkpt><trkpt lat="43.7736119" lon="8.0214698"><ele>0.0</ele><time>2026-05-01T02:02:20.015Z</time></trkpt><trkpt lat="43.7736552" lon="8.0215629"><ele>0.0</ele><time>2026-05-01T02:02:21.016Z</time></trkpt><trkpt lat="43.7737001" lon="8.0216552"><ele>0.0</ele><time>2026-05-01T02:02:22.015Z</time></trkpt><trkpt lat="43.773741" lon="8.0217495"><ele>0.0</ele><time>2026-05-01T02:02:23.016Z</time></trkpt><trkpt lat="43.773782" lon="8.0218406"><ele>0.0</ele><time>2026-05-01T02:02:24.016Z</time></trkpt><trkpt lat="43.7738261" lon="8.0219287"><ele>0.0</ele><time>2026-05-01T02:02:25.015Z</time></trkpt><trkpt lat="43.7738699" lon="8.0220229"><ele>0.0</ele><time>2026-05-01T02:02:26.016Z</time></trkpt><trkpt lat="43.7739149" lon="8.0221181"><ele>0.0</ele><time>2026-05-01T02:02:27.015Z</time></trkpt><trkpt lat="43.7739601" lon="8.022207"><ele>0.0</ele><time>2026-05-01T02:02:28.015Z</time></trkpt><trkpt lat="43.7740053" lon="8.0222938"><ele>0.0</ele><time>2026-05-01T02:02:29.015Z</time></trkpt><trkpt lat="43.7740517" lon="8.0223897"><ele>0.0</ele><time>2026-05-01T02:02:30.015Z</time></trkpt><trkpt lat="43.7741014" lon="8.0224816"><ele>0.0</ele><time>2026-05-01T02:02:31.015Z</time></trkpt><trkpt lat="43.7741501" lon="8.0225732"><ele>0.0</ele><time>2026-05-01T02:02:32.015Z</time></trkpt><trkpt lat="43.7742022" lon="8.0226662"><ele>0.0</ele><time>2026-05-01T02:02:33.015Z</time></trkpt><trkpt lat="43.77425" lon="8.0227587"><ele>0.0</ele><time>2026-05-01T02:02:34.016Z</time></trkpt><trkpt lat="43.7742922" lon="8.0228469"><ele>0.0</ele><time>2026-05-01T02:02:35.016Z</time></trkpt><trkpt lat="43.7744109" lon="8.0229926"><ele>0.0</ele><time>2026-05-01T02:02:37.015Z</time></trkpt><trkpt lat="43.7744642" lon="8.0230742"><ele>0.0</ele><time>2026-05-01T02:02:38.015Z</time></trkpt><trkpt lat="43.7745175" lon="8.0231625"><ele>0.0</ele><time>2026-05-01T02:02:39.016Z</time></trkpt><trkpt lat="43.7745735" lon="8.0232501"><ele>0.0</ele><time>2026-05-01T02:02:40.016Z</time></trkpt><trkpt lat="43.7746234" lon="8.023338"><ele>0.0</ele><time>2026-05-01T02:02:41.015Z</time></trkpt><trkpt lat="43.774672" lon="8.0234296"><ele>0.0</ele><time>2026-05-01T02:02:42.016Z</time></trkpt><trkpt lat="43.7747167" lon="8.0235221"><ele>0.0</ele><time>2026-05-01T02:02:43.016Z</time></trkpt><trkpt lat="43.7747661" lon="8.0236114"><ele>0.0</ele><time>2026-05-01T02:02:44.016Z</time></trkpt><trkpt lat="43.7748161" lon="8.0236987"><ele>0.0</ele><time>2026-05-01T02:02:45.015Z</time></trkpt><trkpt lat="43.7749132" lon="8.023875"><ele>0.0</ele><time>2026-05-01T02:02:47.016Z</time></trkpt><trkpt lat="43.7749584" lon="8.0239631"><ele>0.0</ele><time>2026-05-01T02:02:48.015Z</time></trkpt><trkpt lat="43.7750051" lon="8.0240532"><ele>0.0</ele><time>2026-05-01T02:02:49.015Z</time></trkpt><trkpt lat="43.775049" lon="8.0241444"><ele>0.0</ele><time>2026-05-01T02:02:50.016Z</time></trkpt><trkpt lat="43.775095" lon="8.0242365"><ele>0.0</ele><time>2026-05-01T02:02:51.016Z</time></trkpt><trkpt lat="43.7751418" lon="8.0243272"><ele>0.0</ele><time>2026-05-01T02:02:52.015Z</time></trkpt><trkpt lat="43.7751887" lon="8.0244183"><ele>0.0</ele><time>2026-05-01T02:02:53.016Z</time></trkpt><trkpt lat="43.7752365" lon="8.0245129"><ele>0.0</ele><time>2026-05-01T02:02:54.015Z</time></trkpt><trkpt lat="43.7752851" lon="8.0246068"><ele>0.0</ele><time>2026-05-01T02:02:55.016Z</time></trkpt><trkpt lat="43.7753316" lon="8.024702"><ele>0.0</ele><time>2026-05-01T02:02:56.016Z</time></trkpt><trkpt lat="43.7754234" lon="8.0248886"><ele>0.0</ele><time>2026-05-01T02:02:58.016Z</time></trkpt><trkpt lat="43.7754716" lon="8.0249819"><ele>0.0</ele><time>2026-05-01T02:02:59.015Z</time></trkpt><trkpt lat="43.7755185" lon="8.0250767"><ele>0.0</ele><time>2026-05-01T02:03:00.015Z</time></trkpt><trkpt lat="43.7755625" lon="8.0251662"><ele>0.0</ele><time>2026-05-01T02:03:01.015Z</time></trkpt><trkpt lat="43.775607" lon="8.0252581"><ele>0.0</ele><time>2026-05-01T02:03:02.015Z</time></trkpt><trkpt lat="43.7756501" lon="8.0253502"><ele>0.0</ele><time>2026-05-01T02:03:03.016Z</time></trkpt><trkpt lat="43.7756983" lon="8.0254414"><ele>0.0</ele><time>2026-05-01T02:03:04.016Z</time></trkpt><trkpt lat="43.7757421" lon="8.0255351"><ele>0.0</ele><time>2026-05-01T02:03:05.016Z</time></trkpt><trkpt lat="43.7757839" lon="8.0256339"><ele>0.0</ele><time>2026-05-01T02:03:06.015Z</time></trkpt><trkpt lat="43.7758303" lon="8.0257256"><ele>0.0</ele><time>2026-05-01T02:03:07.016Z</time></trkpt><trkpt lat="43.7758736" lon="8.025821"><ele>0.0</ele><time>2026-05-01T02:03:08.015Z</time></trkpt><trkpt lat="43.7759243" lon="8.0259102"><ele>0.0</ele><time>2026-05-01T02:03:09.015Z</time></trkpt><trkpt lat="43.7759644" lon="8.0260101"><ele>0.0</ele><time>2026-05-01T02:03:10.016Z</time></trkpt><trkpt lat="43.7760074" lon="8.0261061"><ele>0.0</ele><time>2026-05-01T02:03:11.015Z</time></trkpt><trkpt lat="43.7760506" lon="8.0261992"><ele>0.0</ele><time>2026-05-01T02:03:12.015Z</time></trkpt><trkpt lat="43.776097" lon="8.0262929"><ele>0.0</ele><time>2026-05-01T02:03:13.015Z</time></trkpt><trkpt lat="43.7761423" lon="8.0263879"><ele>0.0</ele><time>2026-05-01T02:03:14.015Z</time></trkpt><trkpt lat="43.7761842" lon="8.0264843"><ele>0.0</ele><time>2026-05-01T02:03:15.016Z</time></trkpt><trkpt lat="43.7762214" lon="8.0265837"><ele>0.0</ele><time>2026-05-01T02:03:16.015Z</time></trkpt><trkpt lat="43.7762607" lon="8.0266813"><ele>0.0</ele><time>2026-05-01T02:03:17.015Z</time></trkpt><trkpt lat="43.7764535" lon="8.027044"><ele>0.0</ele><time>2026-05-01T02:03:21.016Z</time></trkpt><trkpt lat="43.776503" lon="8.0271327"><ele>0.0</ele><time>2026-05-01T02:03:22.015Z</time></trkpt><trkpt lat="43.7765455" lon="8.0272261"><ele>0.0</ele><time>2026-05-01T02:03:23.015Z</time></trkpt><trkpt lat="43.7766027" lon="8.0273082"><ele>0.0</ele><time>2026-05-01T02:03:24.015Z</time></trkpt><trkpt lat="43.7766515" lon="8.0273937"><ele>0.0</ele><time>2026-05-01T02:03:25.015Z</time></trkpt><trkpt lat="43.7767001" lon="8.0274834"><ele>0.0</ele><time>2026-05-01T02:03:26.016Z</time></trkpt><trkpt lat="43.77675" lon="8.027575"><ele>0.0</ele><time>2026-05-01T02:03:27.016Z</time></trkpt><trkpt lat="43.7767984" lon="8.0276622"><ele>0.0</ele><time>2026-05-01T02:03:28.015Z</time></trkpt><trkpt lat="43.7768419" lon="8.0277519"><ele>0.0</ele><time>2026-05-01T02:03:29.015Z</time></trkpt><trkpt lat="43.7768916" lon="8.0278447"><ele>0.0</ele><time>2026-05-01T02:03:30.016Z</time></trkpt><trkpt lat="43.7769369" lon="8.02794"><ele>0.0</ele><time>2026-05-01T02:03:31.015Z</time></trkpt><trkpt lat="43.7769787" lon="8.0280337"><ele>0.0</ele><time>2026-05-01T02:03:32.015Z</time></trkpt><trkpt lat="43.7770281" lon="8.0281294"><ele>0.0</ele><time>2026-05-01T02:03:33.015Z</time></trkpt><trkpt lat="43.7770739" lon="8.028219"><ele>0.0</ele><time>2026-05-01T02:03:34.015Z</time></trkpt><trkpt lat="43.777123" lon="8.0283128"><ele>0.0</ele><time>2026-05-01T02:03:35.015Z</time></trkpt><trkpt lat="43.7771747" lon="8.0284017"><ele>0.0</ele><time>2026-05-01T02:03:36.016Z</time></trkpt><trkpt lat="43.777225" lon="8.0284901"><ele>0.0</ele><time>2026-05-01T02:03:37.016Z</time></trkpt><trkpt lat="43.7772736" lon="8.0285799"><ele>0.0</ele><time>2026-05-01T02:03:38.016Z</time></trkpt><trkpt lat="43.7773215" lon="8.0286731"><ele>0.0</ele><time>2026-05-01T02:03:39.016Z</time></trkpt><trkpt lat="43.7773717" lon="8.0287679"><ele>0.0</ele><time>2026-05-01T02:03:40.016Z</time></trkpt><trkpt lat="43.7774664" lon="8.0289494"><ele>0.0</ele><time>2026-05-01T02:03:42.016Z</time></trkpt><trkpt lat="43.7775168" lon="8.0290399"><ele>0.0</ele><time>2026-05-01T02:03:43.016Z</time></trkpt><trkpt lat="43.7775661" lon="8.0291342"><ele>0.0</ele><time>2026-05-01T02:03:44.015Z</time></trkpt><trkpt lat="43.7776164" lon="8.0292309"><ele>0.0</ele><time>2026-05-01T02:03:45.015Z</time></trkpt><trkpt lat="43.7776678" lon="8.0293258"><ele>0.0</ele><time>2026-05-01T02:03:46.015Z</time></trkpt><trkpt lat="43.7777154" lon="8.0294164"><ele>0.0</ele><time>2026-05-01T02:03:47.016Z</time></trkpt><trkpt lat="43.7777651" lon="8.0295065"><ele>0.0</ele><time>2026-05-01T02:03:48.016Z</time></trkpt><trkpt lat="43.7778136" lon="8.0295997"><ele>0.0</ele><time>2026-05-01T02:03:49.015Z</time></trkpt><trkpt lat="43.7778619" lon="8.0296933"><ele>0.0</ele><time>2026-05-01T02:03:50.015Z</time></trkpt><trkpt lat="43.7779506" lon="8.0298748"><ele>0.0</ele><time>2026-05-01T02:03:52.015Z</time></trkpt><trkpt lat="43.7779943" lon="8.0299716"><ele>0.0</ele><time>2026-05-01T02:03:53.016Z</time></trkpt><trkpt lat="43.7780371" lon="8.030068"><ele>0.0</ele><time>2026-05-01T02:03:54.016Z</time></trkpt><trkpt lat="43.7780849" lon="8.0301611"><ele>0.0</ele><time>2026-05-01T02:03:55.016Z</time></trkpt><trkpt lat="43.778135" lon="8.0302528"><ele>0.0</ele><time>2026-05-01T02:03:56.016Z</time></trkpt><trkpt lat="43.7781839" lon="8.0303385"><ele>0.0</ele><time>2026-05-01T02:03:57.015Z</time></trkpt><trkpt lat="43.7782319" lon="8.0304279"><ele>0.0</ele><time>2026-05-01T02:03:58.016Z</time></trkpt><trkpt lat="43.7782788" lon="8.0305184"><ele>0.0</ele><time>2026-05-01T02:03:59.015Z</time></trkpt><trkpt lat="43.7783207" lon="8.0306065"><ele>0.0</ele><time>2026-05-01T02:04:00.016Z</time></trkpt><trkpt lat="43.7783624" lon="8.0306985"><ele>0.0</ele><time>2026-05-01T02:04:01.015Z</time></trkpt><trkpt lat="43.7784533" lon="8.0308912"><ele>0.0</ele><time>2026-05-01T02:04:03.016Z</time></trkpt><trkpt lat="43.7784957" lon="8.0309838"><ele>0.0</ele><time>2026-05-01T02:04:04.015Z</time></trkpt><trkpt lat="43.7785357" lon="8.0310758"><ele>0.0</ele><time>2026-05-01T02:04:05.015Z</time></trkpt><trkpt lat="43.7785788" lon="8.0311706"><ele>0.0</ele><time>2026-05-01T02:04:06.016Z</time></trkpt><trkpt lat="43.7786206" lon="8.0312624"><ele>0.0</ele><time>2026-05-01T02:04:07.016Z</time></trkpt><trkpt lat="43.7786669" lon="8.0313579"><ele>0.0</ele><time>2026-05-01T02:04:08.015Z</time></trkpt><trkpt lat="43.7787123" lon="8.0314488"><ele>0.0</ele><time>2026-05-01T02:04:09.015Z</time></trkpt><trkpt lat="43.7787556" lon="8.0315434"><ele>0.0</ele><time>2026-05-01T02:04:10.015Z</time></trkpt><trkpt lat="43.7787973" lon="8.0316384"><ele>0.0</ele><time>2026-05-01T02:04:11.016Z</time></trkpt><trkpt lat="43.77884" lon="8.0317332"><ele>0.0</ele><time>2026-05-01T02:04:12.015Z</time></trkpt><trkpt lat="43.7788823" lon="8.0318262"><ele>0.0</ele><time>2026-05-01T02:04:13.015Z</time></trkpt><trkpt lat="43.7789271" lon="8.0319214"><ele>0.0</ele><time>2026-05-01T02:04:14.015Z</time></trkpt><trkpt lat="43.7789705" lon="8.0320108"><ele>0.0</ele><time>2026-05-01T02:04:15.015Z</time></trkpt><trkpt lat="43.7790152" lon="8.0321002"><ele>0.0</ele><time>2026-05-01T02:04:16.015Z</time></trkpt><trkpt lat="43.7790633" lon="8.0321883"><ele>0.0</ele><time>2026-05-01T02:04:17.014Z</time></trkpt><trkpt lat="43.7791175" lon="8.0322814"><ele>0.0</ele><time>2026-05-01T02:04:18.015Z</time></trkpt><trkpt lat="43.7791665" lon="8.0323704"><ele>0.0</ele><time>2026-05-01T02:04:19.014Z</time></trkpt><trkpt lat="43.779208" lon="8.0324633"><ele>0.0</ele><time>2026-05-01T02:04:20.015Z</time></trkpt><trkpt lat="43.7792614" lon="8.032555"><ele>0.0</ele><time>2026-05-01T02:04:21.015Z</time></trkpt><trkpt lat="43.7793089" lon="8.032645"><ele>0.0</ele><time>2026-05-01T02:04:22.015Z</time></trkpt><trkpt lat="43.779356" lon="8.0327406"><ele>0.0</ele><time>2026-05-01T02:04:23.014Z</time></trkpt><trkpt lat="43.7794996" lon="8.0330143"><ele>0.0</ele><time>2026-05-01T02:04:26.015Z</time></trkpt><trkpt lat="43.7795412" lon="8.0331061"><ele>0.0</ele><time>2026-05-01T02:04:27.014Z</time></trkpt><trkpt lat="43.7795881" lon="8.0332036"><ele>0.0</ele><time>2026-05-01T02:04:28.015Z</time></trkpt><trkpt lat="43.7796399" lon="8.0332979"><ele>0.0</ele><time>2026-05-01T02:04:29.015Z</time></trkpt><trkpt lat="43.7796811" lon="8.0333892"><ele>0.0</ele><time>2026-05-01T02:04:30.014Z</time></trkpt><trkpt lat="43.7797223" lon="8.0334821"><ele>0.0</ele><time>2026-05-01T02:04:31.014Z</time></trkpt><trkpt lat="43.7797635" lon="8.0335717"><ele>0.0</ele><time>2026-05-01T02:04:32.014Z</time></trkpt><trkpt lat="43.7798084" lon="8.0336645"><ele>0.0</ele><time>2026-05-01T02:04:33.014Z</time></trkpt><trkpt lat="43.7798534" lon="8.0337554"><ele>0.0</ele><time>2026-05-01T02:04:34.014Z</time></trkpt><trkpt lat="43.7799001" lon="8.0338467"><ele>0.0</ele><time>2026-05-01T02:04:35.015Z</time></trkpt><trkpt lat="43.7799405" lon="8.0339388"><ele>0.0</ele><time>2026-05-01T02:04:36.015Z</time></trkpt><trkpt lat="43.779982" lon="8.0340291"><ele>0.0</ele><time>2026-05-01T02:04:37.014Z</time></trkpt><trkpt lat="43.7800236" lon="8.0341174"><ele>0.0</ele><time>2026-05-01T02:04:38.015Z</time></trkpt><trkpt lat="43.7800731" lon="8.0342042"><ele>0.0</ele><time>2026-05-01T02:04:39.015Z</time></trkpt><trkpt lat="43.7801259" lon="8.0342952"><ele>0.0</ele><time>2026-05-01T02:04:40.015Z</time></trkpt><trkpt lat="43.7801807" lon="8.0343922"><ele>0.0</ele><time>2026-05-01T02:04:41.015Z</time></trkpt><trkpt lat="43.7802307" lon="8.0344919"><ele>0.0</ele><time>2026-05-01T02:04:42.014Z</time></trkpt><trkpt lat="43.7802737" lon="8.0345869"><ele>0.0</ele><time>2026-05-01T02:04:43.014Z</time></trkpt><trkpt lat="43.7803139" lon="8.0346729"><ele>0.0</ele><time>2026-05-01T02:04:44.015Z</time></trkpt><trkpt lat="43.7803553" lon="8.0347665"><ele>0.0</ele><time>2026-05-01T02:04:45.014Z</time></trkpt><trkpt lat="43.7804443" lon="8.034941"><ele>0.0</ele><time>2026-05-01T02:04:47.015Z</time></trkpt><trkpt lat="43.7804867" lon="8.0350359"><ele>0.0</ele><time>2026-05-01T02:04:48.015Z</time></trkpt><trkpt lat="43.7805302" lon="8.0351371"><ele>0.0</ele><time>2026-05-01T02:04:49.015Z</time></trkpt><trkpt lat="43.7805811" lon="8.0352312"><ele>0.0</ele><time>2026-05-01T02:04:50.015Z</time></trkpt><trkpt lat="43.7806285" lon="8.0353249"><ele>0.0</ele><time>2026-05-01T02:04:51.015Z</time></trkpt><trkpt lat="43.7806819" lon="8.035417"><ele>0.0</ele><time>2026-05-01T02:04:52.014Z</time></trkpt><trkpt lat="43.7807365" lon="8.0355103"><ele>0.0</ele><time>2026-05-01T02:04:53.014Z</time></trkpt><trkpt lat="43.7807858" lon="8.0356023"><ele>0.0</ele><time>2026-05-01T02:04:54.014Z</time></trkpt><trkpt lat="43.7808913" lon="8.0357842"><ele>0.0</ele><time>2026-05-01T02:04:56.014Z</time></trkpt><trkpt lat="43.780943" lon="8.0358781"><ele>0.0</ele><time>2026-05-01T02:04:57.015Z</time></trkpt><trkpt lat="43.7809854" lon="8.0359775"><ele>0.0</ele><time>2026-05-01T02:04:58.014Z</time></trkpt><trkpt lat="43.7810267" lon="8.0360774"><ele>0.0</ele><time>2026-05-01T02:04:59.015Z</time></trkpt><trkpt lat="43.7810669" lon="8.0361671"><ele>0.0</ele><time>2026-05-01T02:05:00.014Z</time></trkpt><trkpt lat="43.7811105" lon="8.0362528"><ele>0.0</ele><time>2026-05-01T02:05:01.014Z</time></trkpt><trkpt lat="43.781158" lon="8.0363432"><ele>0.0</ele><time>2026-05-01T02:05:02.014Z</time></trkpt><trkpt lat="43.7812053" lon="8.0364333"><ele>0.0</ele><time>2026-05-01T02:05:03.014Z</time></trkpt><trkpt lat="43.7812473" lon="8.0365237"><ele>0.0</ele><time>2026-05-01T02:05:04.015Z</time></trkpt><trkpt lat="43.781284" lon="8.0366159"><ele>0.0</ele><time>2026-05-01T02:05:05.014Z</time></trkpt><trkpt lat="43.7813266" lon="8.0367142"><ele>0.0</ele><time>2026-05-01T02:05:06.014Z</time></trkpt><trkpt lat="43.7814188" lon="8.0368986"><ele>0.0</ele><time>2026-05-01T02:05:08.014Z</time></trkpt><trkpt lat="43.7814618" lon="8.0369868"><ele>0.0</ele><time>2026-05-01T02:05:09.015Z</time></trkpt><trkpt lat="43.7815083" lon="8.0370761"><ele>0.0</ele><time>2026-05-01T02:05:10.015Z</time></trkpt><trkpt lat="43.7815549" lon="8.0371715"><ele>0.0</ele><time>2026-05-01T02:05:11.015Z</time></trkpt><trkpt lat="43.7816005" lon="8.0372616"><ele>0.0</ele><time>2026-05-01T02:05:12.015Z</time></trkpt><trkpt lat="43.7816448" lon="8.037359"><ele>0.0</ele><time>2026-05-01T02:05:13.014Z</time></trkpt><trkpt lat="43.7816899" lon="8.0374558"><ele>0.0</ele><time>2026-05-01T02:05:14.014Z</time></trkpt><trkpt lat="43.7817382" lon="8.0375542"><ele>0.0</ele><time>2026-05-01T02:05:15.014Z</time></trkpt><trkpt lat="43.7817865" lon="8.0376539"><ele>0.0</ele><time>2026-05-01T02:05:16.014Z</time></trkpt><trkpt lat="43.7818288" lon="8.0377458"><ele>0.0</ele><time>2026-05-01T02:05:17.015Z</time></trkpt><trkpt lat="43.7818734" lon="8.0378384"><ele>0.0</ele><time>2026-05-01T02:05:18.014Z</time></trkpt><trkpt lat="43.781914" lon="8.0379304"><ele>0.0</ele><time>2026-05-01T02:05:19.015Z</time></trkpt><trkpt lat="43.7819556" lon="8.0380163"><ele>0.0</ele><time>2026-05-01T02:05:20.014Z</time></trkpt><trkpt lat="43.7819987" lon="8.0381041"><ele>0.0</ele><time>2026-05-01T02:05:21.014Z</time></trkpt><trkpt lat="43.7820439" lon="8.0381921"><ele>0.0</ele><time>2026-05-01T02:05:22.014Z</time></trkpt><trkpt lat="43.782093" lon="8.0382861"><ele>0.0</ele><time>2026-05-01T02:05:23.014Z</time></trkpt><trkpt lat="43.7821371" lon="8.0383754"><ele>0.0</ele><time>2026-05-01T02:05:24.014Z</time></trkpt><trkpt lat="43.7821821" lon="8.0384655"><ele>0.0</ele><time>2026-05-01T02:05:25.014Z</time></trkpt><trkpt lat="43.782227" lon="8.0385521"><ele>0.0</ele><time>2026-05-01T02:05:26.015Z</time></trkpt><trkpt lat="43.7822731" lon="8.0386449"><ele>0.0</ele><time>2026-05-01T02:05:27.014Z</time></trkpt><trkpt lat="43.7823719" lon="8.0388283"><ele>0.0</ele><time>2026-05-01T02:05:29.015Z</time></trkpt><trkpt lat="43.7824196" lon="8.0389258"><ele>0.0</ele><time>2026-05-01T02:05:30.014Z</time></trkpt><trkpt lat="43.7824744" lon="8.0390149"><ele>0.0</ele><time>2026-05-01T02:05:31.015Z</time></trkpt><trkpt lat="43.7825205" lon="8.0391006"><ele>0.0</ele><time>2026-05-01T02:05:32.015Z</time></trkpt><trkpt lat="43.7825681" lon="8.0391931"><ele>0.0</ele><time>2026-05-01T02:05:33.015Z</time></trkpt><trkpt lat="43.7826192" lon="8.0392951"><ele>0.0</ele><time>2026-05-01T02:05:34.015Z</time></trkpt><trkpt lat="43.7826664" lon="8.0393898"><ele>0.0</ele><time>2026-05-01T02:05:35.015Z</time></trkpt><trkpt lat="43.7827147" lon="8.0394783"><ele>0.0</ele><time>2026-05-01T02:05:36.015Z</time></trkpt><trkpt lat="43.7827647" lon="8.0395696"><ele>0.0</ele><time>2026-05-01T02:05:37.015Z</time></trkpt><trkpt lat="43.7828131" lon="8.0396632"><ele>0.0</ele><time>2026-05-01T02:05:38.015Z</time></trkpt><trkpt lat="43.7828829" lon="8.039742"><ele>0.0</ele><time>2026-05-01T02:05:39.014Z</time></trkpt><trkpt lat="43.7829361" lon="8.0398287"><ele>0.0</ele><time>2026-05-01T02:05:40.014Z</time></trkpt><trkpt lat="43.7829874" lon="8.0399216"><ele>0.0</ele><time>2026-05-01T02:05:41.014Z</time></trkpt><trkpt lat="43.7830376" lon="8.0400148"><ele>0.0</ele><time>2026-05-01T02:05:42.014Z</time></trkpt><trkpt lat="43.7830995" lon="8.0400911"><ele>0.0</ele><time>2026-05-01T02:05:43.015Z</time></trkpt><trkpt lat="43.7831483" lon="8.0401754"><ele>0.0</ele><time>2026-05-01T02:05:44.014Z</time></trkpt><trkpt lat="43.7832039" lon="8.040262"><ele>0.0</ele><time>2026-05-01T02:05:45.014Z</time></trkpt><trkpt lat="43.7832536" lon="8.0403495"><ele>0.0</ele><time>2026-05-01T02:05:46.015Z</time></trkpt><trkpt lat="43.7833011" lon="8.0404435"><ele>0.0</ele><time>2026-05-01T02:05:47.015Z</time></trkpt><trkpt lat="43.7833459" lon="8.0405429"><ele>0.0</ele><time>2026-05-01T02:05:48.014Z</time></trkpt><trkpt lat="43.7834272" lon="8.0407398"><ele>0.0</ele><time>2026-05-01T02:05:50.015Z</time></trkpt><trkpt lat="43.7834672" lon="8.0408273"><ele>0.0</ele><time>2026-05-01T02:05:51.014Z</time></trkpt><trkpt lat="43.7835133" lon="8.0409198"><ele>0.0</ele><time>2026-05-01T02:05:52.014Z</time></trkpt><trkpt lat="43.7835576" lon="8.0410123"><ele>0.0</ele><time>2026-05-01T02:05:53.014Z</time></trkpt><trkpt lat="43.7835976" lon="8.0411081"><ele>0.0</ele><time>2026-05-01T02:05:54.014Z</time></trkpt><trkpt lat="43.7836373" lon="8.0411989"><ele>0.0</ele><time>2026-05-01T02:05:55.014Z</time></trkpt><trkpt lat="43.7836823" lon="8.0412865"><ele>0.0</ele><time>2026-05-01T02:05:56.014Z</time></trkpt><trkpt lat="43.7837256" lon="8.041378"><ele>0.0</ele><time>2026-05-01T02:05:57.014Z</time></trkpt><trkpt lat="43.783763" lon="8.0414698"><ele>0.0</ele><time>2026-05-01T02:05:58.014Z</time></trkpt><trkpt lat="43.7838135" lon="8.0415669"><ele>0.0</ele><time>2026-05-01T02:05:59.015Z</time></trkpt><trkpt lat="43.7838648" lon="8.041658"><ele>0.0</ele><time>2026-05-01T02:06:00.015Z</time></trkpt><trkpt lat="43.7839175" lon="8.0417527"><ele>0.0</ele><time>2026-05-01T02:06:01.014Z</time></trkpt><trkpt lat="43.7839637" lon="8.0418478"><ele>0.0</ele><time>2026-05-01T02:06:02.014Z</time></trkpt><trkpt lat="43.7840114" lon="8.041946"><ele>0.0</ele><time>2026-05-01T02:06:03.014Z</time></trkpt><trkpt lat="43.78406" lon="8.0420352"><ele>0.0</ele><time>2026-05-01T02:06:04.014Z</time></trkpt><trkpt lat="43.7841152" lon="8.0421221"><ele>0.0</ele><time>2026-05-01T02:06:05.015Z</time></trkpt><trkpt lat="43.7841588" lon="8.0422186"><ele>0.0</ele><time>2026-05-01T02:06:06.014Z</time></trkpt><trkpt lat="43.7842078" lon="8.0423142"><ele>0.0</ele><time>2026-05-01T02:06:07.014Z</time></trkpt><trkpt lat="43.7842607" lon="8.0424012"><ele>0.0</ele><time>2026-05-01T02:06:08.014Z</time></trkpt><trkpt lat="43.7843114" lon="8.0424845"><ele>0.0</ele><time>2026-05-01T02:06:09.015Z</time></trkpt><trkpt lat="43.7844059" lon="8.0426664"><ele>0.0</ele><time>2026-05-01T02:06:11.015Z</time></trkpt><trkpt lat="43.7844489" lon="8.0427611"><ele>0.0</ele><time>2026-05-01T02:06:12.014Z</time></trkpt><trkpt lat="43.7844951" lon="8.0428529"><ele>0.0</ele><time>2026-05-01T02:06:13.014Z</time></trkpt><trkpt lat="43.7845431" lon="8.0429474"><ele>0.0</ele><time>2026-05-01T02:06:14.014Z</time></trkpt><trkpt lat="43.7845903" lon="8.04304"><ele>0.0</ele><time>2026-05-01T02:06:15.014Z</time></trkpt><trkpt lat="43.784631" lon="8.043133"><ele>0.0</ele><time>2026-05-01T02:06:16.014Z</time></trkpt><trkpt lat="43.7846688" lon="8.0432309"><ele>0.0</ele><time>2026-05-01T02:06:17.014Z</time></trkpt><trkpt lat="43.7847122" lon="8.0433283"><ele>0.0</ele><time>2026-05-01T02:06:18.014Z</time></trkpt><trkpt lat="43.7847595" lon="8.0434228"><ele>0.0</ele><time>2026-05-01T02:06:19.014Z</time></trkpt><trkpt lat="43.7848064" lon="8.0435193"><ele>0.0</ele><time>2026-05-01T02:06:20.014Z</time></trkpt><trkpt lat="43.7848514" lon="8.0436088"><ele>0.0</ele><time>2026-05-01T02:06:21.014Z</time></trkpt><trkpt lat="43.7848982" lon="8.0436968"><ele>0.0</ele><time>2026-05-01T02:06:22.014Z</time></trkpt><trkpt lat="43.7849423" lon="8.0437881"><ele>0.0</ele><time>2026-05-01T02:06:23.014Z</time></trkpt><trkpt lat="43.7849886" lon="8.0438742"><ele>0.0</ele><time>2026-05-01T02:06:24.014Z</time></trkpt><trkpt lat="43.7850331" lon="8.0439652"><ele>0.0</ele><time>2026-05-01T02:06:25.014Z</time></trkpt><trkpt lat="43.7850737" lon="8.0440543"><ele>0.0</ele><time>2026-05-01T02:06:26.015Z</time></trkpt><trkpt lat="43.7851183" lon="8.0441499"><ele>0.0</ele><time>2026-05-01T02:06:27.014Z</time></trkpt><trkpt lat="43.7851659" lon="8.044246"><ele>0.0</ele><time>2026-05-01T02:06:28.014Z</time></trkpt><trkpt lat="43.7852136" lon="8.0443352"><ele>0.0</ele><time>2026-05-01T02:06:29.014Z</time></trkpt><trkpt lat="43.7852618" lon="8.0444325"><ele>0.0</ele><time>2026-05-01T02:06:30.014Z</time></trkpt><trkpt lat="43.7853934" lon="8.0447004"><ele>0.0</ele><time>2026-05-01T02:06:33.015Z</time></trkpt><trkpt lat="43.785446" lon="8.0447877"><ele>0.0</ele><time>2026-05-01T02:06:34.014Z</time></trkpt><trkpt lat="43.7854979" lon="8.0448793"><ele>0.0</ele><time>2026-05-01T02:06:35.014Z</time></trkpt><trkpt lat="43.7855512" lon="8.0449756"><ele>0.0</ele><time>2026-05-01T02:06:36.014Z</time></trkpt><trkpt lat="43.785603" lon="8.0450649"><ele>0.0</ele><time>2026-05-01T02:06:37.015Z</time></trkpt><trkpt lat="43.7856506" lon="8.0451476"><ele>0.0</ele><time>2026-05-01T02:06:38.014Z</time></trkpt><trkpt lat="43.7856998" lon="8.0452412"><ele>0.0</ele><time>2026-05-01T02:06:39.015Z</time></trkpt><trkpt lat="43.7857515" lon="8.0453364"><ele>0.0</ele><time>2026-05-01T02:06:40.015Z</time></trkpt><trkpt lat="43.7858003" lon="8.0454224"><ele>0.0</ele><time>2026-05-01T02:06:41.015Z</time></trkpt><trkpt lat="43.7858487" lon="8.0455103"><ele>0.0</ele><time>2026-05-01T02:06:42.014Z</time></trkpt><trkpt lat="43.7858971" lon="8.0456027"><ele>0.0</ele><time>2026-05-01T02:06:43.015Z</time></trkpt><trkpt lat="43.785947" lon="8.0456933"><ele>0.0</ele><time>2026-05-01T02:06:44.015Z</time></trkpt><trkpt lat="43.7859925" lon="8.0457788"><ele>0.0</ele><time>2026-05-01T02:06:45.015Z</time></trkpt><trkpt lat="43.7860325" lon="8.0458671"><ele>0.0</ele><time>2026-05-01T02:06:46.014Z</time></trkpt><trkpt lat="43.7860776" lon="8.0459593"><ele>0.0</ele><time>2026-05-01T02:06:47.014Z</time></trkpt><trkpt lat="43.7861241" lon="8.0460475"><ele>0.0</ele><time>2026-05-01T02:06:48.014Z</time></trkpt><trkpt lat="43.7861707" lon="8.0461424"><ele>0.0</ele><time>2026-05-01T02:06:49.015Z</time></trkpt><trkpt lat="43.7862185" lon="8.046235"><ele>0.0</ele><time>2026-05-01T02:06:50.014Z</time></trkpt><trkpt lat="43.786266" lon="8.0463247"><ele>0.0</ele><time>2026-05-01T02:06:51.014Z</time></trkpt><trkpt lat="43.786318" lon="8.0464247"><ele>0.0</ele><time>2026-05-01T02:06:52.014Z</time></trkpt><trkpt lat="43.7864152" lon="8.0466173"><ele>0.0</ele><time>2026-05-01T02:06:54.015Z</time></trkpt><trkpt lat="43.786465" lon="8.046707"><ele>0.0</ele><time>2026-05-01T02:06:55.015Z</time></trkpt><trkpt lat="43.7865146" lon="8.0467992"><ele>0.0</ele><time>2026-05-01T02:06:56.015Z</time></trkpt><trkpt lat="43.786563" lon="8.0468953"><ele>0.0</ele><time>2026-05-01T02:06:57.014Z</time></trkpt><trkpt lat="43.786612" lon="8.046988"><ele>0.0</ele><time>2026-05-01T02:06:58.014Z</time></trkpt><trkpt lat="43.7866597" lon="8.0470873"><ele>0.0</ele><time>2026-05-01T02:06:59.015Z</time></trkpt><trkpt lat="43.7867065" lon="8.0471871"><ele>0.0</ele><time>2026-05-01T02:07:00.014Z</time></trkpt><trkpt lat="43.7867546" lon="8.0472755"><ele>0.0</ele><time>2026-05-01T02:07:01.014Z</time></trkpt><trkpt lat="43.7868016" lon="8.0473648"><ele>0.0</ele><time>2026-05-01T02:07:02.014Z</time></trkpt><trkpt lat="43.7869406" lon="8.047624"><ele>0.0</ele><time>2026-05-01T02:07:05.014Z</time></trkpt><trkpt lat="43.7869854" lon="8.0477068"><ele>0.0</ele><time>2026-05-01T02:07:06.014Z</time></trkpt><trkpt lat="43.7870302" lon="8.0478025"><ele>0.0</ele><time>2026-05-01T02:07:07.014Z</time></trkpt><trkpt lat="43.7870763" lon="8.0479007"><ele>0.0</ele><time>2026-05-01T02:07:08.014Z</time></trkpt><trkpt lat="43.787119" lon="8.0479915"><ele>0.0</ele><time>2026-05-01T02:07:09.015Z</time></trkpt><trkpt lat="43.7871591" lon="8.0480798"><ele>0.0</ele><time>2026-05-01T02:07:10.014Z</time></trkpt><trkpt lat="43.7872065" lon="8.048174"><ele>0.0</ele><time>2026-05-01T02:07:11.014Z</time></trkpt><trkpt lat="43.7872535" lon="8.0482661"><ele>0.0</ele><time>2026-05-01T02:07:12.014Z</time></trkpt><trkpt lat="43.7873059" lon="8.0483563"><ele>0.0</ele><time>2026-05-01T02:07:13.015Z</time></trkpt><trkpt lat="43.7874068" lon="8.0485439"><ele>0.0</ele><time>2026-05-01T02:07:15.014Z</time></trkpt><trkpt lat="43.7874536" lon="8.0486409"><ele>0.0</ele><time>2026-05-01T02:07:16.014Z</time></trkpt><trkpt lat="43.7875016" lon="8.0487387"><ele>0.0</ele><time>2026-05-01T02:07:17.015Z</time></trkpt><trkpt lat="43.7875471" lon="8.0488342"><ele>0.0</ele><time>2026-05-01T02:07:18.014Z</time></trkpt><trkpt lat="43.7875903" lon="8.0489268"><ele>0.0</ele><time>2026-05-01T02:07:19.014Z</time></trkpt><trkpt lat="43.7876285" lon="8.0490243"><ele>0.0</ele><time>2026-05-01T02:07:20.014Z</time></trkpt><trkpt lat="43.7876702" lon="8.0491228"><ele>0.0</ele><time>2026-05-01T02:07:21.014Z</time></trkpt><trkpt lat="43.7877131" lon="8.0492221"><ele>0.0</ele><time>2026-05-01T02:07:22.014Z</time></trkpt><trkpt lat="43.7877597" lon="8.0493139"><ele>0.0</ele><time>2026-05-01T02:07:23.015Z</time></trkpt><trkpt lat="43.7878049" lon="8.0494023"><ele>0.0</ele><time>2026-05-01T02:07:24.014Z</time></trkpt><trkpt lat="43.7878542" lon="8.0494916"><ele>0.0</ele><time>2026-05-01T02:07:25.015Z</time></trkpt><trkpt lat="43.7879" lon="8.0495842"><ele>0.0</ele><time>2026-05-01T02:07:26.015Z</time></trkpt><trkpt lat="43.7879511" lon="8.0496749"><ele>0.0</ele><time>2026-05-01T02:07:27.015Z</time></trkpt><trkpt lat="43.7880001" lon="8.0497675"><ele>0.0</ele><time>2026-05-01T02:07:28.015Z</time></trkpt><trkpt lat="43.7880457" lon="8.0498532"><ele>0.0</ele><time>2026-05-01T02:07:29.015Z</time></trkpt><trkpt lat="43.7880903" lon="8.0499417"><ele>0.0</ele><time>2026-05-01T02:07:30.014Z</time></trkpt><trkpt lat="43.7881385" lon="8.0500252"><ele>0.0</ele><time>2026-05-01T02:07:31.014Z</time></trkpt><trkpt lat="43.7881786" lon="8.0501188"><ele>0.0</ele><time>2026-05-01T02:07:32.014Z</time></trkpt><trkpt lat="43.7882183" lon="8.0502129"><ele>0.0</ele><time>2026-05-01T02:07:33.014Z</time></trkpt><trkpt lat="43.788259" lon="8.0503077"><ele>0.0</ele><time>2026-05-01T02:07:34.015Z</time></trkpt><trkpt lat="43.7883046" lon="8.0504104"><ele>0.0</ele><time>2026-05-01T02:07:35.014Z</time></trkpt><trkpt lat="43.7883912" lon="8.0505879"><ele>0.0</ele><time>2026-05-01T02:07:37.014Z</time></trkpt><trkpt lat="43.7885355" lon="8.0508517"><ele>0.0</ele><time>2026-05-01T02:07:40.015Z</time></trkpt><trkpt lat="43.7885822" lon="8.0509456"><ele>0.0</ele><time>2026-05-01T02:07:41.014Z</time></trkpt><trkpt lat="43.7886305" lon="8.0510366"><ele>0.0</ele><time>2026-05-01T02:07:42.015Z</time></trkpt><trkpt lat="43.7886844" lon="8.0511219"><ele>0.0</ele><time>2026-05-01T02:07:43.015Z</time></trkpt><trkpt lat="43.7887365" lon="8.0512109"><ele>0.0</ele><time>2026-05-01T02:07:44.015Z</time></trkpt><trkpt lat="43.7887867" lon="8.0513009"><ele>0.0</ele><time>2026-05-01T02:07:45.014Z</time></trkpt><trkpt lat="43.7888383" lon="8.0513875"><ele>0.0</ele><time>2026-05-01T02:07:46.015Z</time></trkpt><trkpt lat="43.7888884" lon="8.0514772"><ele>0.0</ele><time>2026-05-01T02:07:47.014Z</time></trkpt><trkpt lat="43.7889324" lon="8.0515725"><ele>0.0</ele><time>2026-05-01T02:07:48.014Z</time></trkpt><trkpt lat="43.78898" lon="8.0516662"><ele>0.0</ele><time>2026-05-01T02:07:49.014Z</time></trkpt><trkpt lat="43.7890296" lon="8.0517576"><ele>0.0</ele><time>2026-05-01T02:07:50.015Z</time></trkpt><trkpt lat="43.7890801" lon="8.0518477"><ele>0.0</ele><time>2026-05-01T02:07:51.015Z</time></trkpt><trkpt lat="43.7891302" lon="8.0519379"><ele>0.0</ele><time>2026-05-01T02:07:52.015Z</time></trkpt><trkpt lat="43.7891732" lon="8.0520337"><ele>0.0</ele><time>2026-05-01T02:07:53.014Z</time></trkpt><trkpt lat="43.7892174" lon="8.0521293"><ele>0.0</ele><time>2026-05-01T02:07:54.015Z</time></trkpt><trkpt lat="43.7892633" lon="8.0522204"><ele>0.0</ele><time>2026-05-01T02:07:55.015Z</time></trkpt><trkpt lat="43.7893116" lon="8.0523107"><ele>0.0</ele><time>2026-05-01T02:07:56.014Z</time></trkpt><trkpt lat="43.7893585" lon="8.0524061"><ele>0.0</ele><time>2026-05-01T02:07:57.015Z</time></trkpt><trkpt lat="43.7894133" lon="8.0524871"><ele>0.0</ele><time>2026-05-01T02:07:58.015Z</time></trkpt><trkpt lat="43.78946" lon="8.0525767"><ele>0.0</ele><time>2026-05-01T02:07:59.015Z</time></trkpt><trkpt lat="43.7895551" lon="8.0527589"><ele>0.0</ele><time>2026-05-01T02:08:01.015Z</time></trkpt><trkpt lat="43.7896004" lon="8.0528471"><ele>0.0</ele><time>2026-05-01T02:08:02.014Z</time></trkpt><trkpt lat="43.7896465" lon="8.0529314"><ele>0.0</ele><time>2026-05-01T02:08:03.015Z</time></trkpt><trkpt lat="43.7896951" lon="8.0530188"><ele>0.0</ele><time>2026-05-01T02:08:04.014Z</time></trkpt><trkpt lat="43.7897403" lon="8.0531117"><ele>0.0</ele><time>2026-05-01T02:08:05.015Z</time></trkpt><trkpt lat="43.7897866" lon="8.0532061"><ele>0.0</ele><time>2026-05-01T02:08:06.015Z</time></trkpt><trkpt lat="43.7898333" lon="8.0532994"><ele>0.0</ele><time>2026-05-01T02:08:07.014Z</time></trkpt><trkpt lat="43.7898749" lon="8.0533991"><ele>0.0</ele><time>2026-05-01T02:08:08.015Z</time></trkpt><trkpt lat="43.7899168" lon="8.0534934"><ele>0.0</ele><time>2026-05-01T02:08:09.015Z</time></trkpt><trkpt lat="43.7899629" lon="8.0535889"><ele>0.0</ele><time>2026-05-01T02:08:10.014Z</time></trkpt><trkpt lat="43.7900105" lon="8.053677"><ele>0.0</ele><time>2026-05-01T02:08:11.014Z</time></trkpt><trkpt lat="43.7900567" lon="8.0537707"><ele>0.0</ele><time>2026-05-01T02:08:12.015Z</time></trkpt><trkpt lat="43.7901034" lon="8.0538644"><ele>0.0</ele><time>2026-05-01T02:08:13.014Z</time></trkpt><trkpt lat="43.7901498" lon="8.0539596"><ele>0.0</ele><time>2026-05-01T02:08:14.015Z</time></trkpt><trkpt lat="43.7901978" lon="8.0540579"><ele>0.0</ele><time>2026-05-01T02:08:15.014Z</time></trkpt><trkpt lat="43.7902448" lon="8.0541512"><ele>0.0</ele><time>2026-05-01T02:08:16.014Z</time></trkpt><trkpt lat="43.7902961" lon="8.054247"><ele>0.0</ele><time>2026-05-01T02:08:17.015Z</time></trkpt><trkpt lat="43.7903481" lon="8.054341"><ele>0.0</ele><time>2026-05-01T02:08:18.014Z</time></trkpt><trkpt lat="43.7903966" lon="8.0544373"><ele>0.0</ele><time>2026-05-01T02:08:19.014Z</time></trkpt><trkpt lat="43.7904435" lon="8.0545298"><ele>0.0</ele><time>2026-05-01T02:08:20.014Z</time></trkpt><trkpt lat="43.7905335" lon="8.0547191"><ele>0.0</ele><time>2026-05-01T02:08:22.014Z</time></trkpt><trkpt lat="43.7905784" lon="8.0548098"><ele>0.0</ele><time>2026-05-01T02:08:23.014Z</time></trkpt><trkpt lat="43.7906251" lon="8.0549015"><ele>0.0</ele><time>2026-05-01T02:08:24.015Z</time></trkpt><trkpt lat="43.7906702" lon="8.0549899"><ele>0.0</ele><time>2026-05-01T02:08:25.015Z</time></trkpt><trkpt lat="43.7907119" lon="8.0550798"><ele>0.0</ele><time>2026-05-01T02:08:26.015Z</time></trkpt><trkpt lat="43.7907514" lon="8.0551727"><ele>0.0</ele><time>2026-05-01T02:08:27.015Z</time></trkpt><trkpt lat="43.7907957" lon="8.0552601"><ele>0.0</ele><time>2026-05-01T02:08:28.015Z</time></trkpt><trkpt lat="43.7908425" lon="8.0553427"><ele>0.0</ele><time>2026-05-01T02:08:29.014Z</time></trkpt><trkpt lat="43.7908935" lon="8.0554298"><ele>0.0</ele><time>2026-05-01T02:08:30.015Z</time></trkpt><trkpt lat="43.7909409" lon="8.0555209"><ele>0.0</ele><time>2026-05-01T02:08:31.015Z</time></trkpt><trkpt lat="43.7909875" lon="8.0556126"><ele>0.0</ele><time>2026-05-01T02:08:32.015Z</time></trkpt><trkpt lat="43.7910322" lon="8.055707"><ele>0.0</ele><time>2026-05-01T02:08:33.014Z</time></trkpt><trkpt lat="43.7910786" lon="8.0558004"><ele>0.0</ele><time>2026-05-01T02:08:34.015Z</time></trkpt><trkpt lat="43.7911274" lon="8.0558948"><ele>0.0</ele><time>2026-05-01T02:08:35.014Z</time></trkpt><trkpt lat="43.7911764" lon="8.055987"><ele>0.0</ele><time>2026-05-01T02:08:36.014Z</time></trkpt><trkpt lat="43.7912219" lon="8.0560798"><ele>0.0</ele><time>2026-05-01T02:08:37.015Z</time></trkpt><trkpt lat="43.7912698" lon="8.0561695"><ele>0.0</ele><time>2026-05-01T02:08:38.014Z</time></trkpt><trkpt lat="43.7913203" lon="8.0562613"><ele>0.0</ele><time>2026-05-01T02:08:39.015Z</time></trkpt><trkpt lat="43.7913744" lon="8.0563488"><ele>0.0</ele><time>2026-05-01T02:08:40.014Z</time></trkpt><trkpt lat="43.7914784" lon="8.0565202"><ele>0.0</ele><time>2026-05-01T02:08:42.015Z</time></trkpt><trkpt lat="43.7916252" lon="8.0567893"><ele>0.0</ele><time>2026-05-01T02:08:45.015Z</time></trkpt><trkpt lat="43.7916681" lon="8.0568898"><ele>0.0</ele><time>2026-05-01T02:08:46.014Z</time></trkpt><trkpt lat="43.7917128" lon="8.0569809"><ele>0.0</ele><time>2026-05-01T02:08:47.015Z</time></trkpt><trkpt lat="43.791762" lon="8.0570739"><ele>0.0</ele><time>2026-05-01T02:08:48.014Z</time></trkpt><trkpt lat="43.7918085" lon="8.0571691"><ele>0.0</ele><time>2026-05-01T02:08:49.014Z</time></trkpt><trkpt lat="43.7918568" lon="8.057264"><ele>0.0</ele><time>2026-05-01T02:08:50.014Z</time></trkpt><trkpt lat="43.7919047" lon="8.0573594"><ele>0.0</ele><time>2026-05-01T02:08:51.015Z</time></trkpt><trkpt lat="43.7919502" lon="8.0574559"><ele>0.0</ele><time>2026-05-01T02:08:52.013Z</time></trkpt><trkpt lat="43.7919918" lon="8.0575484"><ele>0.0</ele><time>2026-05-01T02:08:53.013Z</time></trkpt><trkpt lat="43.7920368" lon="8.0576431"><ele>0.0</ele><time>2026-05-01T02:08:54.014Z</time></trkpt><trkpt lat="43.7920833" lon="8.0577337"><ele>0.0</ele><time>2026-05-01T02:08:55.013Z</time></trkpt><trkpt lat="43.7921316" lon="8.0578264"><ele>0.0</ele><time>2026-05-01T02:08:56.013Z</time></trkpt><trkpt lat="43.7921812" lon="8.0579208"><ele>0.0</ele><time>2026-05-01T02:08:57.013Z</time></trkpt><trkpt lat="43.7922341" lon="8.0580056"><ele>0.0</ele><time>2026-05-01T02:08:58.013Z</time></trkpt><trkpt lat="43.7922874" lon="8.0580987"><ele>0.0</ele><time>2026-05-01T02:08:59.014Z</time></trkpt><trkpt lat="43.7923408" lon="8.058184"><ele>0.0</ele><time>2026-05-01T02:09:00.013Z</time></trkpt><trkpt lat="43.7923898" lon="8.0582722"><ele>0.0</ele><time>2026-05-01T02:09:01.014Z</time></trkpt><trkpt lat="43.7924427" lon="8.0583573"><ele>0.0</ele><time>2026-05-01T02:09:02.013Z</time></trkpt><trkpt lat="43.7924961" lon="8.0584442"><ele>0.0</ele><time>2026-05-01T02:09:03.013Z</time></trkpt><trkpt lat="43.792544" lon="8.0585324"><ele>0.0</ele><time>2026-05-01T02:09:04.013Z</time></trkpt><trkpt lat="43.7926354" lon="8.0586992"><ele>0.0</ele><time>2026-05-01T02:09:06.014Z</time></trkpt><trkpt lat="43.7926803" lon="8.0587859"><ele>0.0</ele><time>2026-05-01T02:09:07.013Z</time></trkpt><trkpt lat="43.7927223" lon="8.0588798"><ele>0.0</ele><time>2026-05-01T02:09:08.013Z</time></trkpt><trkpt lat="43.7927651" lon="8.058976"><ele>0.0</ele><time>2026-05-01T02:09:09.014Z</time></trkpt><trkpt lat="43.7928041" lon="8.0590698"><ele>0.0</ele><time>2026-05-01T02:09:10.013Z</time></trkpt><trkpt lat="43.7928477" lon="8.0591636"><ele>0.0</ele><time>2026-05-01T02:09:11.013Z</time></trkpt><trkpt lat="43.7928918" lon="8.0592589"><ele>0.0</ele><time>2026-05-01T02:09:12.013Z</time></trkpt><trkpt lat="43.7929811" lon="8.0594434"><ele>0.0</ele><time>2026-05-01T02:09:14.013Z</time></trkpt><trkpt lat="43.7930267" lon="8.0595319"><ele>0.0</ele><time>2026-05-01T02:09:15.013Z</time></trkpt><trkpt lat="43.7930734" lon="8.0596261"><ele>0.0</ele><time>2026-05-01T02:09:16.013Z</time></trkpt><trkpt lat="43.7931157" lon="8.0597215"><ele>0.0</ele><time>2026-05-01T02:09:17.013Z</time></trkpt><trkpt lat="43.7931586" lon="8.059818"><ele>0.0</ele><time>2026-05-01T02:09:18.014Z</time></trkpt><trkpt lat="43.7932064" lon="8.0599119"><ele>0.0</ele><time>2026-05-01T02:09:19.013Z</time></trkpt><trkpt lat="43.7932518" lon="8.0600094"><ele>0.0</ele><time>2026-05-01T02:09:20.014Z</time></trkpt><trkpt lat="43.7933028" lon="8.060113"><ele>0.0</ele><time>2026-05-01T02:09:21.013Z</time></trkpt><trkpt lat="43.7933497" lon="8.0602136"><ele>0.0</ele><time>2026-05-01T02:09:22.013Z</time></trkpt><trkpt lat="43.7933962" lon="8.0603137"><ele>0.0</ele><time>2026-05-01T02:09:23.013Z</time></trkpt><trkpt lat="43.7934388" lon="8.0604119"><ele>0.0</ele><time>2026-05-01T02:09:24.013Z</time></trkpt><trkpt lat="43.7934847" lon="8.0605079"><ele>0.0</ele><time>2026-05-01T02:09:25.014Z</time></trkpt><trkpt lat="43.7935827" lon="8.0606988"><ele>0.0</ele><time>2026-05-01T02:09:27.014Z</time></trkpt><trkpt lat="43.7936299" lon="8.0607963"><ele>0.0</ele><time>2026-05-01T02:09:28.013Z</time></trkpt><trkpt lat="43.7936753" lon="8.0608895"><ele>0.0</ele><time>2026-05-01T02:09:29.013Z</time></trkpt><trkpt lat="43.7937218" lon="8.0609817"><ele>0.0</ele><time>2026-05-01T02:09:30.013Z</time></trkpt><trkpt lat="43.7937714" lon="8.0610705"><ele>0.0</ele><time>2026-05-01T02:09:31.013Z</time></trkpt><trkpt lat="43.7938228" lon="8.0611515"><ele>0.0</ele><time>2026-05-01T02:09:32.013Z</time></trkpt><trkpt lat="43.7938762" lon="8.0612351"><ele>0.0</ele><time>2026-05-01T02:09:33.013Z</time></trkpt><trkpt lat="43.7939277" lon="8.0613153"><ele>0.0</ele><time>2026-05-01T02:09:34.014Z</time></trkpt><trkpt lat="43.7939779" lon="8.0613948"><ele>0.0</ele><time>2026-05-01T02:09:35.014Z</time></trkpt><trkpt lat="43.7940265" lon="8.0614761"><ele>0.0</ele><time>2026-05-01T02:09:36.014Z</time></trkpt><trkpt lat="43.7940809" lon="8.0615621"><ele>0.0</ele><time>2026-05-01T02:09:37.014Z</time></trkpt><trkpt lat="43.7941314" lon="8.0616514"><ele>0.0</ele><time>2026-05-01T02:09:38.013Z</time></trkpt><trkpt lat="43.7941829" lon="8.0617403"><ele>0.0</ele><time>2026-05-01T02:09:39.013Z</time></trkpt><trkpt lat="43.794233" lon="8.0618345"><ele>0.0</ele><time>2026-05-01T02:09:40.013Z</time></trkpt><trkpt lat="43.7942808" lon="8.0619217"><ele>0.0</ele><time>2026-05-01T02:09:41.014Z</time></trkpt><trkpt lat="43.7943269" lon="8.0620159"><ele>0.0</ele><time>2026-05-01T02:09:42.013Z</time></trkpt><trkpt lat="43.7943732" lon="8.0621108"><ele>0.0</ele><time>2026-05-01T02:09:43.013Z</time></trkpt><trkpt lat="43.7944214" lon="8.0622057"><ele>0.0</ele><time>2026-05-01T02:09:44.014Z</time></trkpt><trkpt lat="43.7944685" lon="8.0622997"><ele>0.0</ele><time>2026-05-01T02:09:45.014Z</time></trkpt><trkpt lat="43.7945602" lon="8.0624827"><ele>0.0</ele><time>2026-05-01T02:09:47.013Z</time></trkpt><trkpt lat="43.7946473" lon="8.0626584"><ele>0.0</ele><time>2026-05-01T02:09:49.013Z</time></trkpt><trkpt lat="43.7946934" lon="8.0627501"><ele>0.0</ele><time>2026-05-01T02:09:50.014Z</time></trkpt><trkpt lat="43.794743" lon="8.0628445"><ele>0.0</ele><time>2026-05-01T02:09:51.013Z</time></trkpt><trkpt lat="43.7947902" lon="8.0629367"><ele>0.0</ele><time>2026-05-01T02:09:52.014Z</time></trkpt><trkpt lat="43.794835" lon="8.0630325"><ele>0.0</ele><time>2026-05-01T02:09:53.013Z</time></trkpt><trkpt lat="43.7948799" lon="8.0631281"><ele>0.0</ele><time>2026-05-01T02:09:54.013Z</time></trkpt><trkpt lat="43.7949239" lon="8.0632199"><ele>0.0</ele><time>2026-05-01T02:09:55.014Z</time></trkpt><trkpt lat="43.794967" lon="8.0633106"><ele>0.0</ele><time>2026-05-01T02:09:56.013Z</time></trkpt><trkpt lat="43.795008" lon="8.0634062"><ele>0.0</ele><time>2026-05-01T02:09:57.013Z</time></trkpt><trkpt lat="43.7950522" lon="8.0634957"><ele>0.0</ele><time>2026-05-01T02:09:58.013Z</time></trkpt><trkpt lat="43.7950971" lon="8.0635798"><ele>0.0</ele><time>2026-05-01T02:09:59.014Z</time></trkpt><trkpt lat="43.7951448" lon="8.0636726"><ele>0.0</ele><time>2026-05-01T02:10:00.014Z</time></trkpt><trkpt lat="43.7951976" lon="8.0637669"><ele>0.0</ele><time>2026-05-01T02:10:01.013Z</time></trkpt><trkpt lat="43.795248" lon="8.0638605"><ele>0.0</ele><time>2026-05-01T02:10:02.013Z</time></trkpt><trkpt lat="43.7952983" lon="8.0639513"><ele>0.0</ele><time>2026-05-01T02:10:03.014Z</time></trkpt><trkpt lat="43.7953396" lon="8.0640415"><ele>0.0</ele><time>2026-05-01T02:10:04.013Z</time></trkpt><trkpt lat="43.7953883" lon="8.0641286"><ele>0.0</ele><time>2026-05-01T02:10:05.013Z</time></trkpt><trkpt lat="43.7954398" lon="8.0642211"><ele>0.0</ele><time>2026-05-01T02:10:06.013Z</time></trkpt><trkpt lat="43.7954886" lon="8.0643115"><ele>0.0</ele><time>2026-05-01T02:10:07.014Z</time></trkpt><trkpt lat="43.7955353" lon="8.0643985"><ele>0.0</ele><time>2026-05-01T02:10:08.013Z</time></trkpt><trkpt lat="43.7956306" lon="8.0645726"><ele>0.0</ele><time>2026-05-01T02:10:10.013Z</time></trkpt><trkpt lat="43.79567" lon="8.0646652"><ele>0.0</ele><time>2026-05-01T02:10:11.013Z</time></trkpt><trkpt lat="43.7957137" lon="8.0647603"><ele>0.0</ele><time>2026-05-01T02:10:12.014Z</time></trkpt><trkpt lat="43.7957598" lon="8.0648555"><ele>0.0</ele><time>2026-05-01T02:10:13.013Z</time></trkpt><trkpt lat="43.7958038" lon="8.0649502"><ele>0.0</ele><time>2026-05-01T02:10:14.013Z</time></trkpt><trkpt lat="43.7958469" lon="8.0650401"><ele>0.0</ele><time>2026-05-01T02:10:15.013Z</time></trkpt><trkpt lat="43.7958887" lon="8.0651269"><ele>0.0</ele><time>2026-05-01T02:10:16.013Z</time></trkpt><trkpt lat="43.7959331" lon="8.0652166"><ele>0.0</ele><time>2026-05-01T02:10:17.013Z</time></trkpt><trkpt lat="43.7959797" lon="8.0653141"><ele>0.0</ele><time>2026-05-01T02:10:18.013Z</time></trkpt><trkpt lat="43.7960737" lon="8.0655072"><ele>0.0</ele><time>2026-05-01T02:10:20.013Z</time></trkpt><trkpt lat="43.7961212" lon="8.0655988"><ele>0.0</ele><time>2026-05-01T02:10:21.013Z</time></trkpt><trkpt lat="43.7961669" lon="8.0656902"><ele>0.0</ele><time>2026-05-01T02:10:22.014Z</time></trkpt><trkpt lat="43.7962566" lon="8.0658724"><ele>0.0</ele><time>2026-05-01T02:10:24.013Z</time></trkpt><trkpt lat="43.7963033" lon="8.0659623"><ele>0.0</ele><time>2026-05-01T02:10:25.014Z</time></trkpt><trkpt lat="43.7963486" lon="8.0660527"><ele>0.0</ele><time>2026-05-01T02:10:26.013Z</time></trkpt><trkpt lat="43.7963968" lon="8.066146"><ele>0.0</ele><time>2026-05-01T02:10:27.013Z</time></trkpt><trkpt lat="43.7964452" lon="8.0662334"><ele>0.0</ele><time>2026-05-01T02:10:28.013Z</time></trkpt><trkpt lat="43.7965382" lon="8.0664115"><ele>0.0</ele><time>2026-05-01T02:10:30.014Z</time></trkpt><trkpt lat="43.7966321" lon="8.0666002"><ele>0.0</ele><time>2026-05-01T02:10:32.013Z</time></trkpt><trkpt lat="43.7966818" lon="8.0666926"><ele>0.0</ele><time>2026-05-01T02:10:33.014Z</time></trkpt><trkpt lat="43.7967278" lon="8.066784"><ele>0.0</ele><time>2026-05-01T02:10:34.014Z</time></trkpt><trkpt lat="43.7967781" lon="8.0668768"><ele>0.0</ele><time>2026-05-01T02:10:35.014Z</time></trkpt><trkpt lat="43.7968325" lon="8.066973"><ele>0.0</ele><time>2026-05-01T02:10:36.014Z</time></trkpt><trkpt lat="43.7968864" lon="8.0670683"><ele>0.0</ele><time>2026-05-01T02:10:37.013Z</time></trkpt><trkpt lat="43.7969399" lon="8.0671636"><ele>0.0</ele><time>2026-05-01T02:10:38.013Z</time></trkpt><trkpt lat="43.7969832" lon="8.0672569"><ele>0.0</ele><time>2026-05-01T02:10:39.013Z</time></trkpt><trkpt lat="43.7970295" lon="8.0673472"><ele>0.0</ele><time>2026-05-01T02:10:40.014Z</time></trkpt><trkpt lat="43.7970747" lon="8.0674387"><ele>0.0</ele><time>2026-05-01T02:10:41.014Z</time></trkpt><trkpt lat="43.7971226" lon="8.0675275"><ele>0.0</ele><time>2026-05-01T02:10:42.014Z</time></trkpt><trkpt lat="43.7971693" lon="8.0676218"><ele>0.0</ele><time>2026-05-01T02:10:43.013Z</time></trkpt><trkpt lat="43.797213" lon="8.0677197"><ele>0.0</ele><time>2026-05-01T02:10:44.013Z</time></trkpt><trkpt lat="43.7972593" lon="8.0678097"><ele>0.0</ele><time>2026-05-01T02:10:45.014Z</time></trkpt><trkpt lat="43.7973043" lon="8.0678984"><ele>0.0</ele><time>2026-05-01T02:10:46.013Z</time></trkpt><trkpt lat="43.7973548" lon="8.0679837"><ele>0.0</ele><time>2026-05-01T02:10:47.013Z</time></trkpt><trkpt lat="43.7974007" lon="8.0680723"><ele>0.0</ele><time>2026-05-01T02:10:48.014Z</time></trkpt><trkpt lat="43.7974454" lon="8.0681644"><ele>0.0</ele><time>2026-05-01T02:10:49.014Z</time></trkpt><trkpt lat="43.7974979" lon="8.0682576"><ele>0.0</ele><time>2026-05-01T02:10:50.013Z</time></trkpt><trkpt lat="43.7975454" lon="8.0683527"><ele>0.0</ele><time>2026-05-01T02:10:51.014Z</time></trkpt><trkpt lat="43.7976914" lon="8.0686257"><ele>0.0</ele><time>2026-05-01T02:10:54.014Z</time></trkpt><trkpt lat="43.7977337" lon="8.0687186"><ele>0.0</ele><time>2026-05-01T02:10:55.014Z</time></trkpt><trkpt lat="43.7977827" lon="8.0688004"><ele>0.0</ele><time>2026-05-01T02:10:56.013Z</time></trkpt><trkpt lat="43.7978331" lon="8.0688799"><ele>0.0</ele><time>2026-05-01T02:10:57.013Z</time></trkpt><trkpt lat="43.7978757" lon="8.0689711"><ele>0.0</ele><time>2026-05-01T02:10:58.013Z</time></trkpt><trkpt lat="43.7979231" lon="8.0690704"><ele>0.0</ele><time>2026-05-01T02:10:59.013Z</time></trkpt><trkpt lat="43.7979715" lon="8.0691706"><ele>0.0</ele><time>2026-05-01T02:11:00.014Z</time></trkpt><trkpt lat="43.7980124" lon="8.069273"><ele>0.0</ele><time>2026-05-01T02:11:01.013Z</time></trkpt><trkpt lat="43.7980549" lon="8.0693755"><ele>0.0</ele><time>2026-05-01T02:11:02.013Z</time></trkpt><trkpt lat="43.7980987" lon="8.0694654"><ele>0.0</ele><time>2026-05-01T02:11:03.013Z</time></trkpt><trkpt lat="43.7981474" lon="8.0695527"><ele>0.0</ele><time>2026-05-01T02:11:04.013Z</time></trkpt><trkpt lat="43.7981879" lon="8.0696451"><ele>0.0</ele><time>2026-05-01T02:11:05.013Z</time></trkpt><trkpt lat="43.7982307" lon="8.0697363"><ele>0.0</ele><time>2026-05-01T02:11:06.013Z</time></trkpt><trkpt lat="43.7982778" lon="8.0698169"><ele>0.0</ele><time>2026-05-01T02:11:07.014Z</time></trkpt><trkpt lat="43.7983219" lon="8.0699014"><ele>0.0</ele><time>2026-05-01T02:11:08.014Z</time></trkpt><trkpt lat="43.7983685" lon="8.0699931"><ele>0.0</ele><time>2026-05-01T02:11:09.014Z</time></trkpt><trkpt lat="43.7984143" lon="8.0700803"><ele>0.0</ele><time>2026-05-01T02:11:10.014Z</time></trkpt><trkpt lat="43.7984557" lon="8.0701676"><ele>0.0</ele><time>2026-05-01T02:11:11.013Z</time></trkpt><trkpt lat="43.7985024" lon="8.0702558"><ele>0.0</ele><time>2026-05-01T02:11:12.014Z</time></trkpt><trkpt lat="43.7985531" lon="8.0703449"><ele>0.0</ele><time>2026-05-01T02:11:13.014Z</time></trkpt><trkpt lat="43.7986085" lon="8.0704306"><ele>0.0</ele><time>2026-05-01T02:11:14.013Z</time></trkpt><trkpt lat="43.7987148" lon="8.0706112"><ele>0.0</ele><time>2026-05-01T02:11:16.013Z</time></trkpt><trkpt lat="43.7987648" lon="8.0706973"><ele>0.0</ele><time>2026-05-01T02:11:17.013Z</time></trkpt><trkpt lat="43.7988166" lon="8.0707849"><ele>0.0</ele><time>2026-05-01T02:11:18.013Z</time></trkpt><trkpt lat="43.7988644" lon="8.0708784"><ele>0.0</ele><time>2026-05-01T02:11:19.014Z</time></trkpt><trkpt lat="43.7989094" lon="8.0709736"><ele>0.0</ele><time>2026-05-01T02:11:20.014Z</time></trkpt><trkpt lat="43.7989539" lon="8.0710677"><ele>0.0</ele><time>2026-05-01T02:11:21.014Z</time></trkpt><trkpt lat="43.7989958" lon="8.0711684"><ele>0.0</ele><time>2026-05-01T02:11:22.013Z</time></trkpt><trkpt lat="43.7990419" lon="8.0712669"><ele>0.0</ele><time>2026-05-01T02:11:23.014Z</time></trkpt><trkpt lat="43.7990866" lon="8.0713643"><ele>0.0</ele><time>2026-05-01T02:11:24.014Z</time></trkpt><trkpt lat="43.799185" lon="8.0715505"><ele>0.0</ele><time>2026-05-01T02:11:26.013Z</time></trkpt><trkpt lat="43.799236" lon="8.0716414"><ele>0.0</ele><time>2026-05-01T02:11:27.014Z</time></trkpt><trkpt lat="43.7992835" lon="8.0717386"><ele>0.0</ele><time>2026-05-01T02:11:28.014Z</time></trkpt><trkpt lat="43.7993245" lon="8.0718294"><ele>0.0</ele><time>2026-05-01T02:11:29.014Z</time></trkpt><trkpt lat="43.7993674" lon="8.0719197"><ele>0.0</ele><time>2026-05-01T02:11:30.014Z</time></trkpt><trkpt lat="43.7994164" lon="8.0720184"><ele>0.0</ele><time>2026-05-01T02:11:31.014Z</time></trkpt><trkpt lat="43.7994662" lon="8.0721154"><ele>0.0</ele><time>2026-05-01T02:11:32.013Z</time></trkpt><trkpt lat="43.7995105" lon="8.0722051"><ele>0.0</ele><time>2026-05-01T02:11:33.014Z</time></trkpt><trkpt lat="43.799559" lon="8.0723065"><ele>0.0</ele><time>2026-05-01T02:11:34.014Z</time></trkpt><trkpt lat="43.7996098" lon="8.0724025"><ele>0.0</ele><time>2026-05-01T02:11:35.013Z</time></trkpt><trkpt lat="43.799699" lon="8.0725723"><ele>0.0</ele><time>2026-05-01T02:11:37.014Z</time></trkpt><trkpt lat="43.7997507" lon="8.0726516"><ele>0.0</ele><time>2026-05-01T02:11:38.013Z</time></trkpt><trkpt lat="43.7997984" lon="8.0727382"><ele>0.0</ele><time>2026-05-01T02:11:39.014Z</time></trkpt><trkpt lat="43.7998412" lon="8.0728266"><ele>0.0</ele><time>2026-05-01T02:11:40.014Z</time></trkpt><trkpt lat="43.7998809" lon="8.0729201"><ele>0.0</ele><time>2026-05-01T02:11:41.013Z</time></trkpt><trkpt lat="43.7999234" lon="8.0730151"><ele>0.0</ele><time>2026-05-01T02:11:42.013Z</time></trkpt><trkpt lat="43.7999686" lon="8.0731098"><ele>0.0</ele><time>2026-05-01T02:11:43.014Z</time></trkpt><trkpt lat="43.8000153" lon="8.0731975"><ele>0.0</ele><time>2026-05-01T02:11:44.013Z</time></trkpt><trkpt lat="43.8000629" lon="8.0732937"><ele>0.0</ele><time>2026-05-01T02:11:45.013Z</time></trkpt><trkpt lat="43.8001147" lon="8.0733862"><ele>0.0</ele><time>2026-05-01T02:11:46.014Z</time></trkpt><trkpt lat="43.8001633" lon="8.0734761"><ele>0.0</ele><time>2026-05-01T02:11:47.014Z</time></trkpt><trkpt lat="43.8002145" lon="8.0735687"><ele>0.0</ele><time>2026-05-01T02:11:48.014Z</time></trkpt><trkpt lat="43.8002651" lon="8.0736576"><ele>0.0</ele><time>2026-05-01T02:11:49.013Z</time></trkpt><trkpt lat="43.8003151" lon="8.0737477"><ele>0.0</ele><time>2026-05-01T02:11:50.014Z</time></trkpt><trkpt lat="43.800365" lon="8.0738365"><ele>0.0</ele><time>2026-05-01T02:11:51.013Z</time></trkpt><trkpt lat="43.8004168" lon="8.0739276"><ele>0.0</ele><time>2026-05-01T02:11:52.014Z</time></trkpt><trkpt lat="43.8004699" lon="8.074022"><ele>0.0</ele><time>2026-05-01T02:11:53.013Z</time></trkpt><trkpt lat="43.8005186" lon="8.0741149"><ele>0.0</ele><time>2026-05-01T02:11:54.014Z</time></trkpt><trkpt lat="43.8005683" lon="8.0742122"><ele>0.0</ele><time>2026-05-01T02:11:55.013Z</time></trkpt><trkpt lat="43.8006151" lon="8.0743074"><ele>0.0</ele><time>2026-05-01T02:11:56.013Z</time></trkpt><trkpt lat="43.800659" lon="8.0743997"><ele>0.0</ele><time>2026-05-01T02:11:57.014Z</time></trkpt><trkpt lat="43.8007918" lon="8.0746841"><ele>0.0</ele><time>2026-05-01T02:12:00.013Z</time></trkpt><trkpt lat="43.8008368" lon="8.0747762"><ele>0.0</ele><time>2026-05-01T02:12:01.013Z</time></trkpt><trkpt lat="43.8008835" lon="8.0748635"><ele>0.0</ele><time>2026-05-01T02:12:02.013Z</time></trkpt><trkpt lat="43.8009261" lon="8.0749558"><ele>0.0</ele><time>2026-05-01T02:12:03.013Z</time></trkpt><trkpt lat="43.8009688" lon="8.0750426"><ele>0.0</ele><time>2026-05-01T02:12:04.013Z</time></trkpt><trkpt lat="43.8010111" lon="8.0751369"><ele>0.0</ele><time>2026-05-01T02:12:05.013Z</time></trkpt><trkpt lat="43.8010581" lon="8.0752206"><ele>0.0</ele><time>2026-05-01T02:12:06.013Z</time></trkpt><trkpt lat="43.8011053" lon="8.0753035"><ele>0.0</ele><time>2026-05-01T02:12:07.014Z</time></trkpt><trkpt lat="43.8011488" lon="8.0753916"><ele>0.0</ele><time>2026-05-01T02:12:08.013Z</time></trkpt><trkpt lat="43.801198" lon="8.0754761"><ele>0.0</ele><time>2026-05-01T02:12:09.013Z</time></trkpt><trkpt lat="43.8012395" lon="8.0755674"><ele>0.0</ele><time>2026-05-01T02:12:10.014Z</time></trkpt><trkpt lat="43.8012822" lon="8.0756628"><ele>0.0</ele><time>2026-05-01T02:12:11.013Z</time></trkpt><trkpt lat="43.8013239" lon="8.0757536"><ele>0.0</ele><time>2026-05-01T02:12:12.014Z</time></trkpt><trkpt lat="43.8013668" lon="8.0758404"><ele>0.0</ele><time>2026-05-01T02:12:13.014Z</time></trkpt><trkpt lat="43.80142" lon="8.0759257"><ele>0.0</ele><time>2026-05-01T02:12:14.014Z</time></trkpt><trkpt lat="43.8014723" lon="8.0760131"><ele>0.0</ele><time>2026-05-01T02:12:15.014Z</time></trkpt><trkpt lat="43.8015174" lon="8.07611"><ele>0.0</ele><time>2026-05-01T02:12:16.014Z</time></trkpt><trkpt lat="43.8015667" lon="8.0762015"><ele>0.0</ele><time>2026-05-01T02:12:17.014Z</time></trkpt><trkpt lat="43.8016192" lon="8.0762875"><ele>0.0</ele><time>2026-05-01T02:12:18.013Z</time></trkpt><trkpt lat="43.8016672" lon="8.0763736"><ele>0.0</ele><time>2026-05-01T02:12:19.013Z</time></trkpt><trkpt lat="43.8017645" lon="8.0765438"><ele>0.0</ele><time>2026-05-01T02:12:21.014Z</time></trkpt><trkpt lat="43.8018103" lon="8.0766279"><ele>0.0</ele><time>2026-05-01T02:12:22.014Z</time></trkpt><trkpt lat="43.8018577" lon="8.0767128"><ele>0.0</ele><time>2026-05-01T02:12:23.013Z</time></trkpt><trkpt lat="43.801905" lon="8.0767977"><ele>0.0</ele><time>2026-05-01T02:12:24.013Z</time></trkpt><trkpt lat="43.8019504" lon="8.0768798"><ele>0.0</ele><time>2026-05-01T02:12:25.013Z</time></trkpt><trkpt lat="43.801997" lon="8.076965"><ele>0.0</ele><time>2026-05-01T02:12:26.014Z</time></trkpt><trkpt lat="43.8020438" lon="8.0770542"><ele>0.0</ele><time>2026-05-01T02:12:27.014Z</time></trkpt><trkpt lat="43.8020921" lon="8.0771556"><ele>0.0</ele><time>2026-05-01T02:12:28.013Z</time></trkpt><trkpt lat="43.8021403" lon="8.0772557"><ele>0.0</ele><time>2026-05-01T02:12:29.014Z</time></trkpt><trkpt lat="43.8021928" lon="8.0773547"><ele>0.0</ele><time>2026-05-01T02:12:30.014Z</time></trkpt><trkpt lat="43.8022432" lon="8.0774489"><ele>0.0</ele><time>2026-05-01T02:12:31.013Z</time></trkpt><trkpt lat="43.8022932" lon="8.0775406"><ele>0.0</ele><time>2026-05-01T02:12:32.013Z</time></trkpt><trkpt lat="43.8023434" lon="8.0776282"><ele>0.0</ele><time>2026-05-01T02:12:33.014Z</time></trkpt><trkpt lat="43.8023889" lon="8.0777163"><ele>0.0</ele><time>2026-05-01T02:12:34.014Z</time></trkpt><trkpt lat="43.8024395" lon="8.0778134"><ele>0.0</ele><time>2026-05-01T02:12:35.013Z</time></trkpt><trkpt lat="43.8024902" lon="8.0779046"><ele>0.0</ele><time>2026-05-01T02:12:36.014Z</time></trkpt><trkpt lat="43.802538" lon="8.0779978"><ele>0.0</ele><time>2026-05-01T02:12:37.013Z</time></trkpt><trkpt lat="43.8025822" lon="8.0781028"><ele>0.0</ele><time>2026-05-01T02:12:38.013Z</time></trkpt><trkpt lat="43.8026281" lon="8.078201"><ele>0.0</ele><time>2026-05-01T02:12:39.014Z</time></trkpt><trkpt lat="43.8026731" lon="8.0782931"><ele>0.0</ele><time>2026-05-01T02:12:40.013Z</time></trkpt><trkpt lat="43.8027708" lon="8.0784848"><ele>0.0</ele><time>2026-05-01T02:12:42.014Z</time></trkpt><trkpt lat="43.8028157" lon="8.0785792"><ele>0.0</ele><time>2026-05-01T02:12:43.013Z</time></trkpt><trkpt lat="43.8028606" lon="8.0786773"><ele>0.0</ele><time>2026-05-01T02:12:44.013Z</time></trkpt><trkpt lat="43.8029065" lon="8.0787703"><ele>0.0</ele><time>2026-05-01T02:12:45.014Z</time></trkpt><trkpt lat="43.8029519" lon="8.0788572"><ele>0.0</ele><time>2026-05-01T02:12:46.014Z</time></trkpt><trkpt lat="43.8030036" lon="8.0789389"><ele>0.0</ele><time>2026-05-01T02:12:47.014Z</time></trkpt><trkpt lat="43.8030542" lon="8.0790273"><ele>0.0</ele><time>2026-05-01T02:12:48.014Z</time></trkpt><trkpt lat="43.8030977" lon="8.0791139"><ele>0.0</ele><time>2026-05-01T02:12:49.013Z</time></trkpt><trkpt lat="43.8031449" lon="8.0792057"><ele>0.0</ele><time>2026-05-01T02:12:50.014Z</time></trkpt><trkpt lat="43.8031946" lon="8.0793036"><ele>0.0</ele><time>2026-05-01T02:12:51.014Z</time></trkpt><trkpt lat="43.803243" lon="8.0794004"><ele>0.0</ele><time>2026-05-01T02:12:52.014Z</time></trkpt><trkpt lat="43.8032918" lon="8.0794902"><ele>0.0</ele><time>2026-05-01T02:12:53.013Z</time></trkpt><trkpt lat="43.8033386" lon="8.0795814"><ele>0.0</ele><time>2026-05-01T02:12:54.013Z</time></trkpt><trkpt lat="43.8033828" lon="8.079673"><ele>0.0</ele><time>2026-05-01T02:12:55.013Z</time></trkpt><trkpt lat="43.8034269" lon="8.0797665"><ele>0.0</ele><time>2026-05-01T02:12:56.014Z</time></trkpt><trkpt lat="43.8034705" lon="8.0798602"><ele>0.0</ele><time>2026-05-01T02:12:57.013Z</time></trkpt><trkpt lat="43.8035135" lon="8.0799478"><ele>0.0</ele><time>2026-05-01T02:12:58.014Z</time></trkpt><trkpt lat="43.8035612" lon="8.0800415"><ele>0.0</ele><time>2026-05-01T02:12:59.014Z</time></trkpt><trkpt lat="43.8036123" lon="8.0801279"><ele>0.0</ele><time>2026-05-01T02:13:00.013Z</time></trkpt><trkpt lat="43.803663" lon="8.0802155"><ele>0.0</ele><time>2026-05-01T02:13:01.014Z</time></trkpt><trkpt lat="43.8037187" lon="8.0803022"><ele>0.0</ele><time>2026-05-01T02:13:02.013Z</time></trkpt><trkpt lat="43.8037668" lon="8.0803988"><ele>0.0</ele><time>2026-05-01T02:13:03.013Z</time></trkpt><trkpt lat="43.8038585" lon="8.080587"><ele>0.0</ele><time>2026-05-01T02:13:05.013Z</time></trkpt><trkpt lat="43.8039067" lon="8.0806709"><ele>0.0</ele><time>2026-05-01T02:13:06.013Z</time></trkpt><trkpt lat="43.8039563" lon="8.0807582"><ele>0.0</ele><time>2026-05-01T02:13:07.013Z</time></trkpt><trkpt lat="43.8040054" lon="8.0808452"><ele>0.0</ele><time>2026-05-01T02:13:08.014Z</time></trkpt><trkpt lat="43.8040537" lon="8.0809336"><ele>0.0</ele><time>2026-05-01T02:13:09.013Z</time></trkpt><trkpt lat="43.8041046" lon="8.0810238"><ele>0.0</ele><time>2026-05-01T02:13:10.014Z</time></trkpt><trkpt lat="43.8041507" lon="8.0811179"><ele>0.0</ele><time>2026-05-01T02:13:11.013Z</time></trkpt><trkpt lat="43.8041994" lon="8.0812054"><ele>0.0</ele><time>2026-05-01T02:13:12.014Z</time></trkpt><trkpt lat="43.8042478" lon="8.0812951"><ele>0.0</ele><time>2026-05-01T02:13:13.013Z</time></trkpt><trkpt lat="43.8042977" lon="8.0813839"><ele>0.0</ele><time>2026-05-01T02:13:14.014Z</time></trkpt><trkpt lat="43.8043479" lon="8.0814665"><ele>0.0</ele><time>2026-05-01T02:13:15.013Z</time></trkpt><trkpt lat="43.8043969" lon="8.0815504"><ele>0.0</ele><time>2026-05-01T02:13:16.013Z</time></trkpt><trkpt lat="43.8044408" lon="8.0816423"><ele>0.0</ele><time>2026-05-01T02:13:17.013Z</time></trkpt><trkpt lat="43.8044852" lon="8.0817378"><ele>0.0</ele><time>2026-05-01T02:13:18.013Z</time></trkpt><trkpt lat="43.8045303" lon="8.0818239"><ele>0.0</ele><time>2026-05-01T02:13:19.014Z</time></trkpt><trkpt lat="43.8045757" lon="8.0819172"><ele>0.0</ele><time>2026-05-01T02:13:20.013Z</time></trkpt><trkpt lat="43.8046188" lon="8.0820116"><ele>0.0</ele><time>2026-05-01T02:13:21.013Z</time></trkpt><trkpt lat="43.804661" lon="8.0821019"><ele>0.0</ele><time>2026-05-01T02:13:22.014Z</time></trkpt><trkpt lat="43.8047084" lon="8.0821971"><ele>0.0</ele><time>2026-05-01T02:13:23.014Z</time></trkpt><trkpt lat="43.8047565" lon="8.0822853"><ele>0.0</ele><time>2026-05-01T02:13:24.013Z</time></trkpt><trkpt lat="43.8048547" lon="8.0824571"><ele>0.0</ele><time>2026-05-01T02:13:26.013Z</time></trkpt><trkpt lat="43.8049034" lon="8.0825464"><ele>0.0</ele><time>2026-05-01T02:13:27.012Z</time></trkpt><trkpt lat="43.8049536" lon="8.0826346"><ele>0.0</ele><time>2026-05-01T02:13:28.012Z</time></trkpt><trkpt lat="43.8049993" lon="8.0827317"><ele>0.0</ele><time>2026-05-01T02:13:29.012Z</time></trkpt><trkpt lat="43.805044" lon="8.0828258"><ele>0.0</ele><time>2026-05-01T02:13:30.013Z</time></trkpt><trkpt lat="43.8050888" lon="8.0829236"><ele>0.0</ele><time>2026-05-01T02:13:31.013Z</time></trkpt><trkpt lat="43.8051378" lon="8.0830165"><ele>0.0</ele><time>2026-05-01T02:13:32.013Z</time></trkpt><trkpt lat="43.8051865" lon="8.0831081"><ele>0.0</ele><time>2026-05-01T02:13:33.012Z</time></trkpt><trkpt lat="43.8052381" lon="8.0831965"><ele>0.0</ele><time>2026-05-01T02:13:34.012Z</time></trkpt><trkpt lat="43.8053377" lon="8.0833651"><ele>0.0</ele><time>2026-05-01T02:13:36.012Z</time></trkpt><trkpt lat="43.8053825" lon="8.0834489"><ele>0.0</ele><time>2026-05-01T02:13:37.013Z</time></trkpt><trkpt lat="43.8054274" lon="8.0835379"><ele>0.0</ele><time>2026-05-01T02:13:38.012Z</time></trkpt><trkpt lat="43.8054736" lon="8.083627"><ele>0.0</ele><time>2026-05-01T02:13:39.013Z</time></trkpt><trkpt lat="43.8055176" lon="8.0837252"><ele>0.0</ele><time>2026-05-01T02:13:40.013Z</time></trkpt><trkpt lat="43.8055591" lon="8.0838221"><ele>0.0</ele><time>2026-05-01T02:13:41.013Z</time></trkpt><trkpt lat="43.8056012" lon="8.0839169"><ele>0.0</ele><time>2026-05-01T02:13:42.013Z</time></trkpt><trkpt lat="43.8056467" lon="8.0840124"><ele>0.0</ele><time>2026-05-01T02:13:43.013Z</time></trkpt><trkpt lat="43.8056945" lon="8.0841102"><ele>0.0</ele><time>2026-05-01T02:13:44.013Z</time></trkpt><trkpt lat="43.8057399" lon="8.0842074"><ele>0.0</ele><time>2026-05-01T02:13:45.012Z</time></trkpt><trkpt lat="43.805843" lon="8.0844016"><ele>0.0</ele><time>2026-05-01T02:13:47.013Z</time></trkpt><trkpt lat="43.805893" lon="8.0844999"><ele>0.0</ele><time>2026-05-01T02:13:48.013Z</time></trkpt><trkpt lat="43.8059421" lon="8.0845882"><ele>0.0</ele><time>2026-05-01T02:13:49.012Z</time></trkpt><trkpt lat="43.8059865" lon="8.0846761"><ele>0.0</ele><time>2026-05-01T02:13:50.012Z</time></trkpt><trkpt lat="43.8060342" lon="8.0847619"><ele>0.0</ele><time>2026-05-01T02:13:51.012Z</time></trkpt><trkpt lat="43.8060869" lon="8.0848507"><ele>0.0</ele><time>2026-05-01T02:13:52.013Z</time></trkpt><trkpt lat="43.8061414" lon="8.0849382"><ele>0.0</ele><time>2026-05-01T02:13:53.012Z</time></trkpt><trkpt lat="43.8061908" lon="8.0850263"><ele>0.0</ele><time>2026-05-01T02:13:54.012Z</time></trkpt><trkpt lat="43.8062336" lon="8.0851116"><ele>0.0</ele><time>2026-05-01T02:13:55.013Z</time></trkpt><trkpt lat="43.8062802" lon="8.0851984"><ele>0.0</ele><time>2026-05-01T02:13:56.012Z</time></trkpt><trkpt lat="43.8063254" lon="8.0852893"><ele>0.0</ele><time>2026-05-01T02:13:57.012Z</time></trkpt><trkpt lat="43.8063705" lon="8.0853749"><ele>0.0</ele><time>2026-05-01T02:13:58.012Z</time></trkpt><trkpt lat="43.8064252" lon="8.0854577"><ele>0.0</ele><time>2026-05-01T02:13:59.013Z</time></trkpt><trkpt lat="43.8064677" lon="8.0855467"><ele>0.0</ele><time>2026-05-01T02:14:00.012Z</time></trkpt><trkpt lat="43.806512" lon="8.0856382"><ele>0.0</ele><time>2026-05-01T02:14:01.012Z</time></trkpt><trkpt lat="43.8065581" lon="8.0857258"><ele>0.0</ele><time>2026-05-01T02:14:02.012Z</time></trkpt><trkpt lat="43.806609" lon="8.0858147"><ele>0.0</ele><time>2026-05-01T02:14:03.013Z</time></trkpt><trkpt lat="43.8066564" lon="8.0859107"><ele>0.0</ele><time>2026-05-01T02:14:04.013Z</time></trkpt><trkpt lat="43.8066971" lon="8.0860004"><ele>0.0</ele><time>2026-05-01T02:14:05.012Z</time></trkpt><trkpt lat="43.806744" lon="8.0860902"><ele>0.0</ele><time>2026-05-01T02:14:06.013Z</time></trkpt><trkpt lat="43.8068344" lon="8.0862739"><ele>0.0</ele><time>2026-05-01T02:14:08.013Z</time></trkpt><trkpt lat="43.8069222" lon="8.0864664"><ele>0.0</ele><time>2026-05-01T02:14:10.013Z</time></trkpt><trkpt lat="43.8069731" lon="8.0865564"><ele>0.0</ele><time>2026-05-01T02:14:11.012Z</time></trkpt><trkpt lat="43.8070217" lon="8.0866471"><ele>0.0</ele><time>2026-05-01T02:14:12.012Z</time></trkpt><trkpt lat="43.8070699" lon="8.0867396"><ele>0.0</ele><time>2026-05-01T02:14:13.013Z</time></trkpt><trkpt lat="43.8071199" lon="8.0868338"><ele>0.0</ele><time>2026-05-01T02:14:14.013Z</time></trkpt><trkpt lat="43.8071743" lon="8.0869186"><ele>0.0</ele><time>2026-05-01T02:14:15.013Z</time></trkpt><trkpt lat="43.8072319" lon="8.0870045"><ele>0.0</ele><time>2026-05-01T02:14:16.012Z</time></trkpt><trkpt lat="43.8072873" lon="8.0870871"><ele>0.0</ele><time>2026-05-01T02:14:17.012Z</time></trkpt><trkpt lat="43.8073413" lon="8.0871742"><ele>0.0</ele><time>2026-05-01T02:14:18.012Z</time></trkpt><trkpt lat="43.8073921" lon="8.087265"><ele>0.0</ele><time>2026-05-01T02:14:19.012Z</time></trkpt><trkpt lat="43.8074447" lon="8.0873541"><ele>0.0</ele><time>2026-05-01T02:14:20.013Z</time></trkpt><trkpt lat="43.8074925" lon="8.0874462"><ele>0.0</ele><time>2026-05-01T02:14:21.012Z</time></trkpt><trkpt lat="43.807542" lon="8.0875353"><ele>0.0</ele><time>2026-05-01T02:14:22.012Z</time></trkpt><trkpt lat="43.8075892" lon="8.0876212"><ele>0.0</ele><time>2026-05-01T02:14:23.013Z</time></trkpt><trkpt lat="43.8076358" lon="8.0877154"><ele>0.0</ele><time>2026-05-01T02:14:24.013Z</time></trkpt><trkpt lat="43.8076737" lon="8.0878092"><ele>0.0</ele><time>2026-05-01T02:14:25.013Z</time></trkpt><trkpt lat="43.80771" lon="8.0879069"><ele>0.0</ele><time>2026-05-01T02:14:26.012Z</time></trkpt><trkpt lat="43.8077553" lon="8.0880056"><ele>0.0</ele><time>2026-05-01T02:14:27.012Z</time></trkpt><trkpt lat="43.8078016" lon="8.0880943"><ele>0.0</ele><time>2026-05-01T02:14:28.013Z</time></trkpt><trkpt lat="43.8078514" lon="8.0881852"><ele>0.0</ele><time>2026-05-01T02:14:29.012Z</time></trkpt><trkpt lat="43.8079474" lon="8.088368"><ele>0.0</ele><time>2026-05-01T02:14:31.013Z</time></trkpt><trkpt lat="43.8079945" lon="8.0884617"><ele>0.0</ele><time>2026-05-01T02:14:32.012Z</time></trkpt><trkpt lat="43.8080444" lon="8.0885558"><ele>0.0</ele><time>2026-05-01T02:14:33.013Z</time></trkpt><trkpt lat="43.8080918" lon="8.0886537"><ele>0.0</ele><time>2026-05-01T02:14:34.012Z</time></trkpt><trkpt lat="43.8081429" lon="8.0887416"><ele>0.0</ele><time>2026-05-01T02:14:35.012Z</time></trkpt><trkpt lat="43.8081933" lon="8.0888254"><ele>0.0</ele><time>2026-05-01T02:14:36.013Z</time></trkpt><trkpt lat="43.8082415" lon="8.0889136"><ele>0.0</ele><time>2026-05-01T02:14:37.012Z</time></trkpt><trkpt lat="43.8082926" lon="8.0889982"><ele>0.0</ele><time>2026-05-01T02:14:38.013Z</time></trkpt><trkpt lat="43.8083461" lon="8.0890812"><ele>0.0</ele><time>2026-05-01T02:14:39.012Z</time></trkpt><trkpt lat="43.8084397" lon="8.089253"><ele>0.0</ele><time>2026-05-01T02:14:41.013Z</time></trkpt><trkpt lat="43.8084851" lon="8.0893405"><ele>0.0</ele><time>2026-05-01T02:14:42.013Z</time></trkpt><trkpt lat="43.8085304" lon="8.0894275"><ele>0.0</ele><time>2026-05-01T02:14:43.013Z</time></trkpt><trkpt lat="43.8085812" lon="8.0895141"><ele>0.0</ele><time>2026-05-01T02:14:44.012Z</time></trkpt><trkpt lat="43.8086274" lon="8.0896018"><ele>0.0</ele><time>2026-05-01T02:14:45.013Z</time></trkpt><trkpt lat="43.8086708" lon="8.089697"><ele>0.0</ele><time>2026-05-01T02:14:46.013Z</time></trkpt><trkpt lat="43.8087125" lon="8.0897898"><ele>0.0</ele><time>2026-05-01T02:14:47.012Z</time></trkpt><trkpt lat="43.8087542" lon="8.0898831"><ele>0.0</ele><time>2026-05-01T02:14:48.012Z</time></trkpt><trkpt lat="43.8087999" lon="8.0899737"><ele>0.0</ele><time>2026-05-01T02:14:49.012Z</time></trkpt><trkpt lat="43.8088409" lon="8.0900635"><ele>0.0</ele><time>2026-05-01T02:14:50.012Z</time></trkpt><trkpt lat="43.8089337" lon="8.0902407"><ele>0.0</ele><time>2026-05-01T02:14:52.012Z</time></trkpt><trkpt lat="43.8089791" lon="8.0903272"><ele>0.0</ele><time>2026-05-01T02:14:53.013Z</time></trkpt><trkpt lat="43.8090689" lon="8.0905149"><ele>0.0</ele><time>2026-05-01T02:14:55.013Z</time></trkpt><trkpt lat="43.8091166" lon="8.0906068"><ele>0.0</ele><time>2026-05-01T02:14:56.012Z</time></trkpt><trkpt lat="43.809168" lon="8.0907036"><ele>0.0</ele><time>2026-05-01T02:14:57.013Z</time></trkpt><trkpt lat="43.8092152" lon="8.0908017"><ele>0.0</ele><time>2026-05-01T02:14:58.012Z</time></trkpt><trkpt lat="43.8092564" lon="8.0909065"><ele>0.0</ele><time>2026-05-01T02:14:59.012Z</time></trkpt><trkpt lat="43.8092985" lon="8.0910031"><ele>0.0</ele><time>2026-05-01T02:15:00.012Z</time></trkpt><trkpt lat="43.8093449" lon="8.0910962"><ele>0.0</ele><time>2026-05-01T02:15:01.013Z</time></trkpt><trkpt lat="43.8093943" lon="8.0911923"><ele>0.0</ele><time>2026-05-01T02:15:02.013Z</time></trkpt><trkpt lat="43.8094446" lon="8.0912843"><ele>0.0</ele><time>2026-05-01T02:15:03.012Z</time></trkpt><trkpt lat="43.8094966" lon="8.0913741"><ele>0.0</ele><time>2026-05-01T02:15:04.012Z</time></trkpt><trkpt lat="43.8095501" lon="8.0914611"><ele>0.0</ele><time>2026-05-01T02:15:05.012Z</time></trkpt><trkpt lat="43.8096017" lon="8.091549"><ele>0.0</ele><time>2026-05-01T02:15:06.012Z</time></trkpt><trkpt lat="43.8096519" lon="8.0916362"><ele>0.0</ele><time>2026-05-01T02:15:07.013Z</time></trkpt><trkpt lat="43.8097033" lon="8.0917272"><ele>0.0</ele><time>2026-05-01T02:15:08.012Z</time></trkpt><trkpt lat="43.8097535" lon="8.0918178"><ele>0.0</ele><time>2026-05-01T02:15:09.013Z</time></trkpt><trkpt lat="43.8098052" lon="8.0919061"><ele>0.0</ele><time>2026-05-01T02:15:10.012Z</time></trkpt><trkpt lat="43.8099036" lon="8.092085"><ele>0.0</ele><time>2026-05-01T02:15:12.012Z</time></trkpt><trkpt lat="43.8099459" lon="8.0921732"><ele>0.0</ele><time>2026-05-01T02:15:13.012Z</time></trkpt><trkpt lat="43.8100638" lon="8.0924582"><ele>0.0</ele><time>2026-05-01T02:15:16.012Z</time></trkpt><trkpt lat="43.8101492" lon="8.092645"><ele>0.0</ele><time>2026-05-01T02:15:18.013Z</time></trkpt><trkpt lat="43.8102403" lon="8.0928231"><ele>0.0</ele><time>2026-05-01T02:15:20.013Z</time></trkpt><trkpt lat="43.8102779" lon="8.0929217"><ele>0.0</ele><time>2026-05-01T02:15:21.013Z</time></trkpt><trkpt lat="43.8103249" lon="8.093019"><ele>0.0</ele><time>2026-05-01T02:15:22.013Z</time></trkpt><trkpt lat="43.8103703" lon="8.0931103"><ele>0.0</ele><time>2026-05-01T02:15:23.012Z</time></trkpt><trkpt lat="43.8104189" lon="8.0931924"><ele>0.0</ele><time>2026-05-01T02:15:24.012Z</time></trkpt><trkpt lat="43.8104686" lon="8.093275"><ele>0.0</ele><time>2026-05-01T02:15:25.012Z</time></trkpt><trkpt lat="43.8105182" lon="8.0933631"><ele>0.0</ele><time>2026-05-01T02:15:26.013Z</time></trkpt><trkpt lat="43.8105728" lon="8.093453"><ele>0.0</ele><time>2026-05-01T02:15:27.012Z</time></trkpt><trkpt lat="43.8106295" lon="8.0935484"><ele>0.0</ele><time>2026-05-01T02:15:28.013Z</time></trkpt><trkpt lat="43.8106832" lon="8.093638"><ele>0.0</ele><time>2026-05-01T02:15:29.012Z</time></trkpt><trkpt lat="43.8107321" lon="8.0937237"><ele>0.0</ele><time>2026-05-01T02:15:30.012Z</time></trkpt><trkpt lat="43.8107744" lon="8.0938146"><ele>0.0</ele><time>2026-05-01T02:15:31.013Z</time></trkpt><trkpt lat="43.8108218" lon="8.0939036"><ele>0.0</ele><time>2026-05-01T02:15:32.012Z</time></trkpt><trkpt lat="43.8108648" lon="8.0939918"><ele>0.0</ele><time>2026-05-01T02:15:33.013Z</time></trkpt><trkpt lat="43.8109106" lon="8.0940827"><ele>0.0</ele><time>2026-05-01T02:15:34.012Z</time></trkpt><trkpt lat="43.810957" lon="8.094173"><ele>0.0</ele><time>2026-05-01T02:15:35.013Z</time></trkpt><trkpt lat="43.8110018" lon="8.0942689"><ele>0.0</ele><time>2026-05-01T02:15:36.012Z</time></trkpt><trkpt lat="43.8110933" lon="8.0944547"><ele>0.0</ele><time>2026-05-01T02:15:38.012Z</time></trkpt><trkpt lat="43.8111396" lon="8.0945507"><ele>0.0</ele><time>2026-05-01T02:15:39.012Z</time></trkpt><trkpt lat="43.8111899" lon="8.0946398"><ele>0.0</ele><time>2026-05-01T02:15:40.013Z</time></trkpt><trkpt lat="43.8112883" lon="8.0948165"><ele>0.0</ele><time>2026-05-01T02:15:42.012Z</time></trkpt><trkpt lat="43.8113382" lon="8.0949034"><ele>0.0</ele><time>2026-05-01T02:15:43.013Z</time></trkpt><trkpt lat="43.8113803" lon="8.094994"><ele>0.0</ele><time>2026-05-01T02:15:44.013Z</time></trkpt><trkpt lat="43.8114286" lon="8.0950826"><ele>0.0</ele><time>2026-05-01T02:15:45.013Z</time></trkpt><trkpt lat="43.8114784" lon="8.0951727"><ele>0.0</ele><time>2026-05-01T02:15:46.012Z</time></trkpt><trkpt lat="43.8115737" lon="8.0953474"><ele>0.0</ele><time>2026-05-01T02:15:48.012Z</time></trkpt><trkpt lat="43.811622" lon="8.0954337"><ele>0.0</ele><time>2026-05-01T02:15:49.013Z</time></trkpt><trkpt lat="43.811666" lon="8.0955302"><ele>0.0</ele><time>2026-05-01T02:15:50.013Z</time></trkpt><trkpt lat="43.8117116" lon="8.095626"><ele>0.0</ele><time>2026-05-01T02:15:51.013Z</time></trkpt><trkpt lat="43.8117569" lon="8.0957215"><ele>0.0</ele><time>2026-05-01T02:15:52.012Z</time></trkpt><trkpt lat="43.8118006" lon="8.0958088"><ele>0.0</ele><time>2026-05-01T02:15:53.012Z</time></trkpt><trkpt lat="43.8118466" lon="8.0959012"><ele>0.0</ele><time>2026-05-01T02:15:54.012Z</time></trkpt><trkpt lat="43.8118935" lon="8.0959913"><ele>0.0</ele><time>2026-05-01T02:15:55.013Z</time></trkpt><trkpt lat="43.8119386" lon="8.0960801"><ele>0.0</ele><time>2026-05-01T02:15:56.012Z</time></trkpt><trkpt lat="43.8119835" lon="8.096173"><ele>0.0</ele><time>2026-05-01T02:15:57.013Z</time></trkpt><trkpt lat="43.8120807" lon="8.0963458"><ele>0.0</ele><time>2026-05-01T02:15:59.013Z</time></trkpt><trkpt lat="43.8121255" lon="8.0964338"><ele>0.0</ele><time>2026-05-01T02:16:00.012Z</time></trkpt><trkpt lat="43.8121677" lon="8.0965259"><ele>0.0</ele><time>2026-05-01T02:16:01.012Z</time></trkpt><trkpt lat="43.8122136" lon="8.0966195"><ele>0.0</ele><time>2026-05-01T02:16:02.013Z</time></trkpt><trkpt lat="43.8122528" lon="8.0967156"><ele>0.0</ele><time>2026-05-01T02:16:03.012Z</time></trkpt><trkpt lat="43.812295" lon="8.0968113"><ele>0.0</ele><time>2026-05-01T02:16:04.013Z</time></trkpt><trkpt lat="43.8123415" lon="8.0969049"><ele>0.0</ele><time>2026-05-01T02:16:05.013Z</time></trkpt><trkpt lat="43.812395" lon="8.0969938"><ele>0.0</ele><time>2026-05-01T02:16:06.013Z</time></trkpt><trkpt lat="43.8124501" lon="8.09708"><ele>0.0</ele><time>2026-05-01T02:16:07.012Z</time></trkpt><trkpt lat="43.8124991" lon="8.0971684"><ele>0.0</ele><time>2026-05-01T02:16:08.013Z</time></trkpt><trkpt lat="43.8125421" lon="8.0972586"><ele>0.0</ele><time>2026-05-01T02:16:09.013Z</time></trkpt><trkpt lat="43.8125872" lon="8.0973453"><ele>0.0</ele><time>2026-05-01T02:16:10.012Z</time></trkpt><trkpt lat="43.8126287" lon="8.0974383"><ele>0.0</ele><time>2026-05-01T02:16:11.012Z</time></trkpt><trkpt lat="43.812668" lon="8.09753"><ele>0.0</ele><time>2026-05-01T02:16:12.013Z</time></trkpt><trkpt lat="43.8127079" lon="8.0976217"><ele>0.0</ele><time>2026-05-01T02:16:13.012Z</time></trkpt><trkpt lat="43.8127549" lon="8.0977087"><ele>0.0</ele><time>2026-05-01T02:16:14.013Z</time></trkpt><trkpt lat="43.8127991" lon="8.0978021"><ele>0.0</ele><time>2026-05-01T02:16:15.012Z</time></trkpt><trkpt lat="43.8128495" lon="8.0978975"><ele>0.0</ele><time>2026-05-01T02:16:16.012Z</time></trkpt><trkpt lat="43.8128952" lon="8.0979899"><ele>0.0</ele><time>2026-05-01T02:16:17.012Z</time></trkpt><trkpt lat="43.8129388" lon="8.098077"><ele>0.0</ele><time>2026-05-01T02:16:18.012Z</time></trkpt><trkpt lat="43.8130412" lon="8.0982698"><ele>0.0</ele><time>2026-05-01T02:16:20.012Z</time></trkpt><trkpt lat="43.8131483" lon="8.0984539"><ele>0.0</ele><time>2026-05-01T02:16:22.012Z</time></trkpt><trkpt lat="43.813195" lon="8.0985475"><ele>0.0</ele><time>2026-05-01T02:16:23.012Z</time></trkpt><trkpt lat="43.8132386" lon="8.0986381"><ele>0.0</ele><time>2026-05-01T02:16:24.013Z</time></trkpt><trkpt lat="43.8132875" lon="8.0987284"><ele>0.0</ele><time>2026-05-01T02:16:25.012Z</time></trkpt><trkpt lat="43.8133355" lon="8.0988136"><ele>0.0</ele><time>2026-05-01T02:16:26.012Z</time></trkpt><trkpt lat="43.8133839" lon="8.0988998"><ele>0.0</ele><time>2026-05-01T02:16:27.012Z</time></trkpt><trkpt lat="43.8134331" lon="8.0989925"><ele>0.0</ele><time>2026-05-01T02:16:28.012Z</time></trkpt><trkpt lat="43.8134806" lon="8.0990798"><ele>0.0</ele><time>2026-05-01T02:16:29.012Z</time></trkpt><trkpt lat="43.8135326" lon="8.0991618"><ele>0.0</ele><time>2026-05-01T02:16:30.013Z</time></trkpt><trkpt lat="43.8135806" lon="8.0992466"><ele>0.0</ele><time>2026-05-01T02:16:31.013Z</time></trkpt><trkpt lat="43.8136298" lon="8.0993392"><ele>0.0</ele><time>2026-05-01T02:16:32.013Z</time></trkpt><trkpt lat="43.8136697" lon="8.0994385"><ele>0.0</ele><time>2026-05-01T02:16:33.012Z</time></trkpt><trkpt lat="43.8137123" lon="8.0995285"><ele>0.0</ele><time>2026-05-01T02:16:34.013Z</time></trkpt><trkpt lat="43.8137571" lon="8.0996198"><ele>0.0</ele><time>2026-05-01T02:16:35.012Z</time></trkpt><trkpt lat="43.8138017" lon="8.0997129"><ele>0.0</ele><time>2026-05-01T02:16:36.012Z</time></trkpt><trkpt lat="43.8138413" lon="8.0998066"><ele>0.0</ele><time>2026-05-01T02:16:37.013Z</time></trkpt><trkpt lat="43.8138874" lon="8.099897"><ele>0.0</ele><time>2026-05-01T02:16:38.012Z</time></trkpt><trkpt lat="43.8139323" lon="8.0999823"><ele>0.0</ele><time>2026-05-01T02:16:39.013Z</time></trkpt><trkpt lat="43.8139802" lon="8.1000717"><ele>0.0</ele><time>2026-05-01T02:16:40.012Z</time></trkpt><trkpt lat="43.8140851" lon="8.10025"><ele>0.0</ele><time>2026-05-01T02:16:42.013Z</time></trkpt><trkpt lat="43.8141289" lon="8.1003414"><ele>0.0</ele><time>2026-05-01T02:16:43.012Z</time></trkpt><trkpt lat="43.8141718" lon="8.1004349"><ele>0.0</ele><time>2026-05-01T02:16:44.012Z</time></trkpt><trkpt lat="43.8142123" lon="8.1005367"><ele>0.0</ele><time>2026-05-01T02:16:45.012Z</time></trkpt><trkpt lat="43.814258" lon="8.1006386"><ele>0.0</ele><time>2026-05-01T02:16:46.013Z</time></trkpt><trkpt lat="43.8143004" lon="8.1007278"><ele>0.0</ele><time>2026-05-01T02:16:47.013Z</time></trkpt><trkpt lat="43.8143423" lon="8.1008144"><ele>0.0</ele><time>2026-05-01T02:16:48.012Z</time></trkpt><trkpt lat="43.8143821" lon="8.1009039"><ele>0.0</ele><time>2026-05-01T02:16:49.012Z</time></trkpt><trkpt lat="43.8144267" lon="8.1009935"><ele>0.0</ele><time>2026-05-01T02:16:50.012Z</time></trkpt><trkpt lat="43.8144765" lon="8.1010875"><ele>0.0</ele><time>2026-05-01T02:16:51.012Z</time></trkpt><trkpt lat="43.8145711" lon="8.101271"><ele>0.0</ele><time>2026-05-01T02:16:53.013Z</time></trkpt><trkpt lat="43.8146174" lon="8.1013613"><ele>0.0</ele><time>2026-05-01T02:16:54.013Z</time></trkpt><trkpt lat="43.8146653" lon="8.1014514"><ele>0.0</ele><time>2026-05-01T02:16:55.012Z</time></trkpt><trkpt lat="43.8147105" lon="8.1015432"><ele>0.0</ele><time>2026-05-01T02:16:56.012Z</time></trkpt><trkpt lat="43.8147553" lon="8.1016321"><ele>0.0</ele><time>2026-05-01T02:16:57.012Z</time></trkpt><trkpt lat="43.8148051" lon="8.1017203"><ele>0.0</ele><time>2026-05-01T02:16:58.013Z</time></trkpt><trkpt lat="43.8148535" lon="8.1018069"><ele>0.0</ele><time>2026-05-01T02:16:59.013Z</time></trkpt><trkpt lat="43.8149003" lon="8.1018993"><ele>0.0</ele><time>2026-05-01T02:17:00.013Z</time></trkpt><trkpt lat="43.814951" lon="8.1019874"><ele>0.0</ele><time>2026-05-01T02:17:01.012Z</time></trkpt><trkpt lat="43.8150397" lon="8.1021738"><ele>0.0</ele><time>2026-05-01T02:17:03.012Z</time></trkpt><trkpt lat="43.815082" lon="8.1022709"><ele>0.0</ele><time>2026-05-01T02:17:04.013Z</time></trkpt><trkpt lat="43.8151271" lon="8.1023659"><ele>0.0</ele><time>2026-05-01T02:17:05.012Z</time></trkpt><trkpt lat="43.8151735" lon="8.102461"><ele>0.0</ele><time>2026-05-01T02:17:06.012Z</time></trkpt><trkpt lat="43.8152144" lon="8.102552"><ele>0.0</ele><time>2026-05-01T02:17:07.012Z</time></trkpt><trkpt lat="43.8152655" lon="8.1026336"><ele>0.0</ele><time>2026-05-01T02:17:08.013Z</time></trkpt><trkpt lat="43.8153079" lon="8.1027272"><ele>0.0</ele><time>2026-05-01T02:17:09.013Z</time></trkpt><trkpt lat="43.8153517" lon="8.1028158"><ele>0.0</ele><time>2026-05-01T02:17:10.013Z</time></trkpt><trkpt lat="43.8153958" lon="8.1029049"><ele>0.0</ele><time>2026-05-01T02:17:11.013Z</time></trkpt><trkpt lat="43.8154405" lon="8.1029931"><ele>0.0</ele><time>2026-05-01T02:17:12.012Z</time></trkpt><trkpt lat="43.8154809" lon="8.1030874"><ele>0.0</ele><time>2026-05-01T02:17:13.013Z</time></trkpt><trkpt lat="43.8155279" lon="8.1031772"><ele>0.0</ele><time>2026-05-01T02:17:14.012Z</time></trkpt><trkpt lat="43.8155748" lon="8.1032724"><ele>0.0</ele><time>2026-05-01T02:17:15.013Z</time></trkpt><trkpt lat="43.8156229" lon="8.103369"><ele>0.0</ele><time>2026-05-01T02:17:16.013Z</time></trkpt><trkpt lat="43.8156728" lon="8.1034599"><ele>0.0</ele><time>2026-05-01T02:17:17.013Z</time></trkpt><trkpt lat="43.8157261" lon="8.1035457"><ele>0.0</ele><time>2026-05-01T02:17:18.013Z</time></trkpt><trkpt lat="43.8157724" lon="8.1036322"><ele>0.0</ele><time>2026-05-01T02:17:19.013Z</time></trkpt><trkpt lat="43.8158198" lon="8.1037191"><ele>0.0</ele><time>2026-05-01T02:17:20.012Z</time></trkpt><trkpt lat="43.8158679" lon="8.1038084"><ele>0.0</ele><time>2026-05-01T02:17:21.012Z</time></trkpt><trkpt lat="43.815921" lon="8.1038979"><ele>0.0</ele><time>2026-05-01T02:17:22.013Z</time></trkpt><trkpt lat="43.8159705" lon="8.1039848"><ele>0.0</ele><time>2026-05-01T02:17:23.013Z</time></trkpt><trkpt lat="43.8161235" lon="8.1042445"><ele>0.0</ele><time>2026-05-01T02:17:26.012Z</time></trkpt><trkpt lat="43.8161748" lon="8.1043332"><ele>0.0</ele><time>2026-05-01T02:17:27.013Z</time></trkpt><trkpt lat="43.816234" lon="8.1044157"><ele>0.0</ele><time>2026-05-01T02:17:28.013Z</time></trkpt><trkpt lat="43.8162793" lon="8.104506"><ele>0.0</ele><time>2026-05-01T02:17:29.012Z</time></trkpt><trkpt lat="43.816324" lon="8.1045951"><ele>0.0</ele><time>2026-05-01T02:17:30.012Z</time></trkpt><trkpt lat="43.8163686" lon="8.1046863"><ele>0.0</ele><time>2026-05-01T02:17:31.013Z</time></trkpt><trkpt lat="43.816415" lon="8.1047712"><ele>0.0</ele><time>2026-05-01T02:17:32.012Z</time></trkpt><trkpt lat="43.8164632" lon="8.1048557"><ele>0.0</ele><time>2026-05-01T02:17:33.013Z</time></trkpt><trkpt lat="43.8165062" lon="8.104949"><ele>0.0</ele><time>2026-05-01T02:17:34.013Z</time></trkpt><trkpt lat="43.8165522" lon="8.1050397"><ele>0.0</ele><time>2026-05-01T02:17:35.012Z</time></trkpt><trkpt lat="43.8165904" lon="8.1051311"><ele>0.0</ele><time>2026-05-01T02:17:36.013Z</time></trkpt><trkpt lat="43.8166281" lon="8.1052268"><ele>0.0</ele><time>2026-05-01T02:17:37.012Z</time></trkpt><trkpt lat="43.8166736" lon="8.1053137"><ele>0.0</ele><time>2026-05-01T02:17:38.013Z</time></trkpt><trkpt lat="43.8167312" lon="8.1054001"><ele>0.0</ele><time>2026-05-01T02:17:39.012Z</time></trkpt><trkpt lat="43.8167788" lon="8.1054906"><ele>0.0</ele><time>2026-05-01T02:17:40.012Z</time></trkpt><trkpt lat="43.8168192" lon="8.1055815"><ele>0.0</ele><time>2026-05-01T02:17:41.013Z</time></trkpt><trkpt lat="43.8168691" lon="8.1056705"><ele>0.0</ele><time>2026-05-01T02:17:42.012Z</time></trkpt><trkpt lat="43.8169152" lon="8.10576"><ele>0.0</ele><time>2026-05-01T02:17:43.012Z</time></trkpt><trkpt lat="43.8169632" lon="8.1058515"><ele>0.0</ele><time>2026-05-01T02:17:44.012Z</time></trkpt><trkpt lat="43.8170114" lon="8.1059462"><ele>0.0</ele><time>2026-05-01T02:17:45.012Z</time></trkpt><trkpt lat="43.8171115" lon="8.1061237"><ele>0.0</ele><time>2026-05-01T02:17:47.013Z</time></trkpt><trkpt lat="43.8171545" lon="8.106215"><ele>0.0</ele><time>2026-05-01T02:17:48.012Z</time></trkpt><trkpt lat="43.8172018" lon="8.1063066"><ele>0.0</ele><time>2026-05-01T02:17:49.013Z</time></trkpt><trkpt lat="43.8172524" lon="8.1063953"><ele>0.0</ele><time>2026-05-01T02:17:50.013Z</time></trkpt><trkpt lat="43.8173014" lon="8.1064879"><ele>0.0</ele><time>2026-05-01T02:17:51.012Z</time></trkpt><trkpt lat="43.8173531" lon="8.1065763"><ele>0.0</ele><time>2026-05-01T02:17:52.012Z</time></trkpt><trkpt lat="43.8174033" lon="8.1066632"><ele>0.0</ele><time>2026-05-01T02:17:53.013Z</time></trkpt><trkpt lat="43.8174438" lon="8.1067584"><ele>0.0</ele><time>2026-05-01T02:17:54.013Z</time></trkpt><trkpt lat="43.8174862" lon="8.1068525"><ele>0.0</ele><time>2026-05-01T02:17:55.013Z</time></trkpt><trkpt lat="43.8176226" lon="8.1071245"><ele>0.0</ele><time>2026-05-01T02:17:58.013Z</time></trkpt><trkpt lat="43.817677" lon="8.1072107"><ele>0.0</ele><time>2026-05-01T02:17:59.012Z</time></trkpt><trkpt lat="43.8177225" lon="8.1073014"><ele>0.0</ele><time>2026-05-01T02:18:00.012Z</time></trkpt><trkpt lat="43.8177651" lon="8.1073931"><ele>0.0</ele><time>2026-05-01T02:18:01.012Z</time></trkpt><trkpt lat="43.8178148" lon="8.1074819"><ele>0.0</ele><time>2026-05-01T02:18:02.012Z</time></trkpt><trkpt lat="43.8178651" lon="8.1075742"><ele>0.0</ele><time>2026-05-01T02:18:03.013Z</time></trkpt><trkpt lat="43.8179235" lon="8.1076547"><ele>0.0</ele><time>2026-05-01T02:18:04.012Z</time></trkpt><trkpt lat="43.8179747" lon="8.1077389"><ele>0.0</ele><time>2026-05-01T02:18:05.011Z</time></trkpt><trkpt lat="43.818023" lon="8.1078282"><ele>0.0</ele><time>2026-05-01T02:18:06.011Z</time></trkpt><trkpt lat="43.8181071" lon="8.1080196"><ele>0.0</ele><time>2026-05-01T02:18:08.012Z</time></trkpt><trkpt lat="43.8181502" lon="8.1081116"><ele>0.0</ele><time>2026-05-01T02:18:09.012Z</time></trkpt><trkpt lat="43.8181969" lon="8.1082117"><ele>0.0</ele><time>2026-05-01T02:18:10.012Z</time></trkpt><trkpt lat="43.8182435" lon="8.108299"><ele>0.0</ele><time>2026-05-01T02:18:11.012Z</time></trkpt><trkpt lat="43.8182859" lon="8.1083885"><ele>0.0</ele><time>2026-05-01T02:18:12.011Z</time></trkpt><trkpt lat="43.8183293" lon="8.1084827"><ele>0.0</ele><time>2026-05-01T02:18:13.012Z</time></trkpt><trkpt lat="43.8183721" lon="8.1085834"><ele>0.0</ele><time>2026-05-01T02:18:14.011Z</time></trkpt><trkpt lat="43.8184237" lon="8.1086679"><ele>0.0</ele><time>2026-05-01T02:18:15.012Z</time></trkpt><trkpt lat="43.8184757" lon="8.1087496"><ele>0.0</ele><time>2026-05-01T02:18:16.012Z</time></trkpt><trkpt lat="43.8185321" lon="8.1088322"><ele>0.0</ele><time>2026-05-01T02:18:17.011Z</time></trkpt><trkpt lat="43.81858" lon="8.1089227"><ele>0.0</ele><time>2026-05-01T02:18:18.011Z</time></trkpt><trkpt lat="43.8186343" lon="8.1090156"><ele>0.0</ele><time>2026-05-01T02:18:19.011Z</time></trkpt><trkpt lat="43.8186878" lon="8.1091004"><ele>0.0</ele><time>2026-05-01T02:18:20.011Z</time></trkpt><trkpt lat="43.8187416" lon="8.1091892"><ele>0.0</ele><time>2026-05-01T02:18:21.012Z</time></trkpt><trkpt lat="43.8187878" lon="8.1092821"><ele>0.0</ele><time>2026-05-01T02:18:22.011Z</time></trkpt><trkpt lat="43.8188359" lon="8.1093756"><ele>0.0</ele><time>2026-05-01T02:18:23.011Z</time></trkpt><trkpt lat="43.818881" lon="8.1094646"><ele>0.0</ele><time>2026-05-01T02:18:24.011Z</time></trkpt><trkpt lat="43.8189187" lon="8.1095592"><ele>0.0</ele><time>2026-05-01T02:18:25.012Z</time></trkpt><trkpt lat="43.818962" lon="8.1096502"><ele>0.0</ele><time>2026-05-01T02:18:26.011Z</time></trkpt><trkpt lat="43.8190098" lon="8.1097461"><ele>0.0</ele><time>2026-05-01T02:18:27.012Z</time></trkpt><trkpt lat="43.8190557" lon="8.1098382"><ele>0.0</ele><time>2026-05-01T02:18:28.011Z</time></trkpt><trkpt lat="43.819196" lon="8.1101048"><ele>0.0</ele><time>2026-05-01T02:18:31.012Z</time></trkpt><trkpt lat="43.8192409" lon="8.1101957"><ele>0.0</ele><time>2026-05-01T02:18:32.012Z</time></trkpt><trkpt lat="43.8192946" lon="8.110283"><ele>0.0</ele><time>2026-05-01T02:18:33.012Z</time></trkpt><trkpt lat="43.8193392" lon="8.1103771"><ele>0.0</ele><time>2026-05-01T02:18:34.012Z</time></trkpt><trkpt lat="43.8193795" lon="8.1104738"><ele>0.0</ele><time>2026-05-01T02:18:35.012Z</time></trkpt><trkpt lat="43.8194247" lon="8.1105722"><ele>0.0</ele><time>2026-05-01T02:18:36.011Z</time></trkpt><trkpt lat="43.8194685" lon="8.1106672"><ele>0.0</ele><time>2026-05-01T02:18:37.011Z</time></trkpt><trkpt lat="43.8195133" lon="8.110764"><ele>0.0</ele><time>2026-05-01T02:18:38.012Z</time></trkpt><trkpt lat="43.8195653" lon="8.1108507"><ele>0.0</ele><time>2026-05-01T02:18:39.011Z</time></trkpt><trkpt lat="43.8196049" lon="8.1109443"><ele>0.0</ele><time>2026-05-01T02:18:40.011Z</time></trkpt><trkpt lat="43.8196488" lon="8.1110323"><ele>0.0</ele><time>2026-05-01T02:18:41.011Z</time></trkpt><trkpt lat="43.8196939" lon="8.1111231"><ele>0.0</ele><time>2026-05-01T02:18:42.011Z</time></trkpt><trkpt lat="43.8197401" lon="8.1112145"><ele>0.0</ele><time>2026-05-01T02:18:43.011Z</time></trkpt><trkpt lat="43.8197899" lon="8.1113103"><ele>0.0</ele><time>2026-05-01T02:18:44.012Z</time></trkpt><trkpt lat="43.8198414" lon="8.1114044"><ele>0.0</ele><time>2026-05-01T02:18:45.012Z</time></trkpt><trkpt lat="43.819893" lon="8.1114962"><ele>0.0</ele><time>2026-05-01T02:18:46.012Z</time></trkpt><trkpt lat="43.8199603" lon="8.1115748"><ele>0.0</ele><time>2026-05-01T02:18:47.011Z</time></trkpt><trkpt lat="43.8200089" lon="8.1116629"><ele>0.0</ele><time>2026-05-01T02:18:48.012Z</time></trkpt><trkpt lat="43.8200639" lon="8.1117533"><ele>0.0</ele><time>2026-05-01T02:18:49.012Z</time></trkpt><trkpt lat="43.8201091" lon="8.1118459"><ele>0.0</ele><time>2026-05-01T02:18:50.012Z</time></trkpt><trkpt lat="43.8201585" lon="8.1119323"><ele>0.0</ele><time>2026-05-01T02:18:51.011Z</time></trkpt><trkpt lat="43.8202573" lon="8.1121127"><ele>0.0</ele><time>2026-05-01T02:18:53.012Z</time></trkpt><trkpt lat="43.8203081" lon="8.1122016"><ele>0.0</ele><time>2026-05-01T02:18:54.011Z</time></trkpt><trkpt lat="43.8203571" lon="8.1122914"><ele>0.0</ele><time>2026-05-01T02:18:55.012Z</time></trkpt><trkpt lat="43.820401" lon="8.1123827"><ele>0.0</ele><time>2026-05-01T02:18:56.011Z</time></trkpt><trkpt lat="43.8204457" lon="8.1124745"><ele>0.0</ele><time>2026-05-01T02:18:57.012Z</time></trkpt><trkpt lat="43.8204907" lon="8.1125649"><ele>0.0</ele><time>2026-05-01T02:18:58.011Z</time></trkpt><trkpt lat="43.8205298" lon="8.1126579"><ele>0.0</ele><time>2026-05-01T02:18:59.011Z</time></trkpt><trkpt lat="43.8205679" lon="8.1127556"><ele>0.0</ele><time>2026-05-01T02:19:00.012Z</time></trkpt><trkpt lat="43.8206177" lon="8.1128453"><ele>0.0</ele><time>2026-05-01T02:19:01.011Z</time></trkpt><trkpt lat="43.8207046" lon="8.113028"><ele>0.0</ele><time>2026-05-01T02:19:03.011Z</time></trkpt><trkpt lat="43.8207436" lon="8.1131222"><ele>0.0</ele><time>2026-05-01T02:19:04.011Z</time></trkpt><trkpt lat="43.82079" lon="8.1132119"><ele>0.0</ele><time>2026-05-01T02:19:05.011Z</time></trkpt><trkpt lat="43.8208381" lon="8.1133046"><ele>0.0</ele><time>2026-05-01T02:19:06.012Z</time></trkpt><trkpt lat="43.8208848" lon="8.113394"><ele>0.0</ele><time>2026-05-01T02:19:07.011Z</time></trkpt><trkpt lat="43.8209316" lon="8.1134827"><ele>0.0</ele><time>2026-05-01T02:19:08.012Z</time></trkpt><trkpt lat="43.8209816" lon="8.1135706"><ele>0.0</ele><time>2026-05-01T02:19:09.011Z</time></trkpt><trkpt lat="43.8210329" lon="8.1136569"><ele>0.0</ele><time>2026-05-01T02:19:10.012Z</time></trkpt><trkpt lat="43.8210947" lon="8.113742"><ele>0.0</ele><time>2026-05-01T02:19:11.012Z</time></trkpt><trkpt lat="43.8211466" lon="8.1138385"><ele>0.0</ele><time>2026-05-01T02:19:12.011Z</time></trkpt><trkpt lat="43.8212475" lon="8.1140129"><ele>0.0</ele><time>2026-05-01T02:19:14.012Z</time></trkpt><trkpt lat="43.8212908" lon="8.1141029"><ele>0.0</ele><time>2026-05-01T02:19:15.012Z</time></trkpt><trkpt lat="43.8213365" lon="8.1141906"><ele>0.0</ele><time>2026-05-01T02:19:16.012Z</time></trkpt><trkpt lat="43.8213848" lon="8.1142759"><ele>0.0</ele><time>2026-05-01T02:19:17.011Z</time></trkpt><trkpt lat="43.8214301" lon="8.1143611"><ele>0.0</ele><time>2026-05-01T02:19:18.011Z</time></trkpt><trkpt lat="43.8214884" lon="8.1144442"><ele>0.0</ele><time>2026-05-01T02:19:19.012Z</time></trkpt><trkpt lat="43.8215358" lon="8.1145314"><ele>0.0</ele><time>2026-05-01T02:19:20.011Z</time></trkpt><trkpt lat="43.8215806" lon="8.1146147"><ele>0.0</ele><time>2026-05-01T02:19:21.011Z</time></trkpt><trkpt lat="43.8216295" lon="8.1146977"><ele>0.0</ele><time>2026-05-01T02:19:22.011Z</time></trkpt><trkpt lat="43.8216767" lon="8.1147897"><ele>0.0</ele><time>2026-05-01T02:19:23.011Z</time></trkpt><trkpt lat="43.8217238" lon="8.1148813"><ele>0.0</ele><time>2026-05-01T02:19:24.011Z</time></trkpt><trkpt lat="43.8217662" lon="8.1149745"><ele>0.0</ele><time>2026-05-01T02:19:25.011Z</time></trkpt><trkpt lat="43.821815" lon="8.1150672"><ele>0.0</ele><time>2026-05-01T02:19:26.012Z</time></trkpt><trkpt lat="43.8218577" lon="8.1151622"><ele>0.0</ele><time>2026-05-01T02:19:27.011Z</time></trkpt><trkpt lat="43.8219039" lon="8.1152562"><ele>0.0</ele><time>2026-05-01T02:19:28.012Z</time></trkpt><trkpt lat="43.8219476" lon="8.1153555"><ele>0.0</ele><time>2026-05-01T02:19:29.012Z</time></trkpt><trkpt lat="43.8219895" lon="8.1154493"><ele>0.0</ele><time>2026-05-01T02:19:30.012Z</time></trkpt><trkpt lat="43.8220297" lon="8.1155428"><ele>0.0</ele><time>2026-05-01T02:19:31.011Z</time></trkpt><trkpt lat="43.8220726" lon="8.1156386"><ele>0.0</ele><time>2026-05-01T02:19:32.012Z</time></trkpt><trkpt lat="43.8221502" lon="8.1158286"><ele>0.0</ele><time>2026-05-01T02:19:34.012Z</time></trkpt><trkpt lat="43.8221941" lon="8.1159169"><ele>0.0</ele><time>2026-05-01T02:19:35.012Z</time></trkpt><trkpt lat="43.8222407" lon="8.1160066"><ele>0.0</ele><time>2026-05-01T02:19:36.011Z</time></trkpt><trkpt lat="43.8222856" lon="8.1160961"><ele>0.0</ele><time>2026-05-01T02:19:37.011Z</time></trkpt><trkpt lat="43.8223364" lon="8.1161833"><ele>0.0</ele><time>2026-05-01T02:19:38.011Z</time></trkpt><trkpt lat="43.8223796" lon="8.1162756"><ele>0.0</ele><time>2026-05-01T02:19:39.011Z</time></trkpt><trkpt lat="43.8224339" lon="8.1163649"><ele>0.0</ele><time>2026-05-01T02:19:40.011Z</time></trkpt><trkpt lat="43.8224804" lon="8.1164592"><ele>0.0</ele><time>2026-05-01T02:19:41.012Z</time></trkpt><trkpt lat="43.8225289" lon="8.1165549"><ele>0.0</ele><time>2026-05-01T02:19:42.011Z</time></trkpt><trkpt lat="43.8225772" lon="8.1166474"><ele>0.0</ele><time>2026-05-01T02:19:43.011Z</time></trkpt><trkpt lat="43.8226333" lon="8.1167281"><ele>0.0</ele><time>2026-05-01T02:19:44.011Z</time></trkpt><trkpt lat="43.8226747" lon="8.1168212"><ele>0.0</ele><time>2026-05-01T02:19:45.011Z</time></trkpt><trkpt lat="43.822718" lon="8.1169096"><ele>0.0</ele><time>2026-05-01T02:19:46.011Z</time></trkpt><trkpt lat="43.82276" lon="8.1170025"><ele>0.0</ele><time>2026-05-01T02:19:47.011Z</time></trkpt><trkpt lat="43.8228024" lon="8.1170873"><ele>0.0</ele><time>2026-05-01T02:19:48.012Z</time></trkpt><trkpt lat="43.8228485" lon="8.1171792"><ele>0.0</ele><time>2026-05-01T02:19:49.011Z</time></trkpt><trkpt lat="43.8228968" lon="8.1172712"><ele>0.0</ele><time>2026-05-01T02:19:50.012Z</time></trkpt><trkpt lat="43.8229508" lon="8.1173597"><ele>0.0</ele><time>2026-05-01T02:19:51.011Z</time></trkpt><trkpt lat="43.822997" lon="8.1174529"><ele>0.0</ele><time>2026-05-01T02:19:52.011Z</time></trkpt><trkpt lat="43.8230391" lon="8.1175477"><ele>0.0</ele><time>2026-05-01T02:19:53.012Z</time></trkpt><trkpt lat="43.8231323" lon="8.117729"><ele>0.0</ele><time>2026-05-01T02:19:55.012Z</time></trkpt><trkpt lat="43.8231882" lon="8.1178157"><ele>0.0</ele><time>2026-05-01T02:19:56.012Z</time></trkpt><trkpt lat="43.8232365" lon="8.1179066"><ele>0.0</ele><time>2026-05-01T02:19:57.011Z</time></trkpt><trkpt lat="43.8232861" lon="8.1179983"><ele>0.0</ele><time>2026-05-01T02:19:58.011Z</time></trkpt><trkpt lat="43.8233328" lon="8.118093"><ele>0.0</ele><time>2026-05-01T02:19:59.012Z</time></trkpt><trkpt lat="43.8233812" lon="8.1181806"><ele>0.0</ele><time>2026-05-01T02:20:00.011Z</time></trkpt><trkpt lat="43.8234269" lon="8.118269"><ele>0.0</ele><time>2026-05-01T02:20:01.012Z</time></trkpt><trkpt lat="43.8234702" lon="8.1183585"><ele>0.0</ele><time>2026-05-01T02:20:02.011Z</time></trkpt><trkpt lat="43.8235279" lon="8.1184373"><ele>0.0</ele><time>2026-05-01T02:20:03.011Z</time></trkpt><trkpt lat="43.8235684" lon="8.1185293"><ele>0.0</ele><time>2026-05-01T02:20:04.011Z</time></trkpt><trkpt lat="43.8236091" lon="8.118624"><ele>0.0</ele><time>2026-05-01T02:20:05.012Z</time></trkpt><trkpt lat="43.8236524" lon="8.1187167"><ele>0.0</ele><time>2026-05-01T02:20:06.012Z</time></trkpt><trkpt lat="43.8237512" lon="8.1188918"><ele>0.0</ele><time>2026-05-01T02:20:08.012Z</time></trkpt><trkpt lat="43.8238078" lon="8.1189797"><ele>0.0</ele><time>2026-05-01T02:20:09.012Z</time></trkpt><trkpt lat="43.8238517" lon="8.1190753"><ele>0.0</ele><time>2026-05-01T02:20:10.012Z</time></trkpt><trkpt lat="43.8238982" lon="8.1191679"><ele>0.0</ele><time>2026-05-01T02:20:11.012Z</time></trkpt><trkpt lat="43.8239405" lon="8.1192658"><ele>0.0</ele><time>2026-05-01T02:20:12.011Z</time></trkpt><trkpt lat="43.8239837" lon="8.1193613"><ele>0.0</ele><time>2026-05-01T02:20:13.011Z</time></trkpt><trkpt lat="43.8240258" lon="8.1194504"><ele>0.0</ele><time>2026-05-01T02:20:14.011Z</time></trkpt><trkpt lat="43.8241124" lon="8.1196346"><ele>0.0</ele><time>2026-05-01T02:20:16.011Z</time></trkpt><trkpt lat="43.824153" lon="8.1197247"><ele>0.0</ele><time>2026-05-01T02:20:17.012Z</time></trkpt><trkpt lat="43.8241984" lon="8.1198178"><ele>0.0</ele><time>2026-05-01T02:20:18.011Z</time></trkpt><trkpt lat="43.8242469" lon="8.119908"><ele>0.0</ele><time>2026-05-01T02:20:19.012Z</time></trkpt><trkpt lat="43.8242979" lon="8.120001"><ele>0.0</ele><time>2026-05-01T02:20:20.011Z</time></trkpt><trkpt lat="43.8243424" lon="8.1200942"><ele>0.0</ele><time>2026-05-01T02:20:21.011Z</time></trkpt><trkpt lat="43.8243972" lon="8.1201802"><ele>0.0</ele><time>2026-05-01T02:20:22.011Z</time></trkpt><trkpt lat="43.8244481" lon="8.1202697"><ele>0.0</ele><time>2026-05-01T02:20:23.011Z</time></trkpt><trkpt lat="43.824497" lon="8.120358"><ele>0.0</ele><time>2026-05-01T02:20:24.011Z</time></trkpt><trkpt lat="43.8245537" lon="8.1204424"><ele>0.0</ele><time>2026-05-01T02:20:25.011Z</time></trkpt><trkpt lat="43.8246037" lon="8.120534"><ele>0.0</ele><time>2026-05-01T02:20:26.011Z</time></trkpt><trkpt lat="43.8246505" lon="8.120623"><ele>0.0</ele><time>2026-05-01T02:20:27.011Z</time></trkpt><trkpt lat="43.8246955" lon="8.1207102"><ele>0.0</ele><time>2026-05-01T02:20:28.012Z</time></trkpt><trkpt lat="43.8247317" lon="8.1208134"><ele>0.0</ele><time>2026-05-01T02:20:29.011Z</time></trkpt><trkpt lat="43.8247664" lon="8.1209123"><ele>0.0</ele><time>2026-05-01T02:20:30.012Z</time></trkpt><trkpt lat="43.8248156" lon="8.1210035"><ele>0.0</ele><time>2026-05-01T02:20:31.012Z</time></trkpt><trkpt lat="43.8248661" lon="8.1210906"><ele>0.0</ele><time>2026-05-01T02:20:32.012Z</time></trkpt><trkpt lat="43.8249146" lon="8.1211813"><ele>0.0</ele><time>2026-05-01T02:20:33.012Z</time></trkpt><trkpt lat="43.8249643" lon="8.1212731"><ele>0.0</ele><time>2026-05-01T02:20:34.011Z</time></trkpt><trkpt lat="43.8250197" lon="8.1213591"><ele>0.0</ele><time>2026-05-01T02:20:35.011Z</time></trkpt><trkpt lat="43.8251212" lon="8.1215352"><ele>0.0</ele><time>2026-05-01T02:20:37.011Z</time></trkpt><trkpt lat="43.8251755" lon="8.1216209"><ele>0.0</ele><time>2026-05-01T02:20:38.011Z</time></trkpt><trkpt lat="43.8252232" lon="8.121706"><ele>0.0</ele><time>2026-05-01T02:20:39.011Z</time></trkpt><trkpt lat="43.8253031" lon="8.1218877"><ele>0.0</ele><time>2026-05-01T02:20:41.012Z</time></trkpt><trkpt lat="43.8253443" lon="8.1219771"><ele>0.0</ele><time>2026-05-01T02:20:42.012Z</time></trkpt><trkpt lat="43.8253929" lon="8.1220684"><ele>0.0</ele><time>2026-05-01T02:20:43.012Z</time></trkpt><trkpt lat="43.8254355" lon="8.1221629"><ele>0.0</ele><time>2026-05-01T02:20:44.012Z</time></trkpt><trkpt lat="43.8254786" lon="8.1222551"><ele>0.0</ele><time>2026-05-01T02:20:45.011Z</time></trkpt><trkpt lat="43.825526" lon="8.1223431"><ele>0.0</ele><time>2026-05-01T02:20:46.011Z</time></trkpt><trkpt lat="43.8255701" lon="8.1224335"><ele>0.0</ele><time>2026-05-01T02:20:47.011Z</time></trkpt><trkpt lat="43.8256184" lon="8.1225272"><ele>0.0</ele><time>2026-05-01T02:20:48.012Z</time></trkpt><trkpt lat="43.8256628" lon="8.122619"><ele>0.0</ele><time>2026-05-01T02:20:49.011Z</time></trkpt><trkpt lat="43.8257064" lon="8.1227119"><ele>0.0</ele><time>2026-05-01T02:20:50.012Z</time></trkpt><trkpt lat="43.8257508" lon="8.1228029"><ele>0.0</ele><time>2026-05-01T02:20:51.012Z</time></trkpt><trkpt lat="43.8258001" lon="8.1228929"><ele>0.0</ele><time>2026-05-01T02:20:52.011Z</time></trkpt><trkpt lat="43.8258446" lon="8.122984"><ele>0.0</ele><time>2026-05-01T02:20:53.011Z</time></trkpt><trkpt lat="43.8258923" lon="8.1230701"><ele>0.0</ele><time>2026-05-01T02:20:54.011Z</time></trkpt><trkpt lat="43.8259408" lon="8.1231606"><ele>0.0</ele><time>2026-05-01T02:20:55.012Z</time></trkpt><trkpt lat="43.82599" lon="8.1232511"><ele>0.0</ele><time>2026-05-01T02:20:56.011Z</time></trkpt><trkpt lat="43.8260688" lon="8.1234438"><ele>0.0</ele><time>2026-05-01T02:20:58.012Z</time></trkpt><trkpt lat="43.8261137" lon="8.1235376"><ele>0.0</ele><time>2026-05-01T02:20:59.011Z</time></trkpt><trkpt lat="43.8261573" lon="8.1236311"><ele>0.0</ele><time>2026-05-01T02:21:00.011Z</time></trkpt><trkpt lat="43.8262147" lon="8.1237133"><ele>0.0</ele><time>2026-05-01T02:21:01.011Z</time></trkpt><trkpt lat="43.8262649" lon="8.1238045"><ele>0.0</ele><time>2026-05-01T02:21:02.011Z</time></trkpt><trkpt lat="43.826312" lon="8.1238962"><ele>0.0</ele><time>2026-05-01T02:21:03.012Z</time></trkpt><trkpt lat="43.826359" lon="8.1239862"><ele>0.0</ele><time>2026-05-01T02:21:04.012Z</time></trkpt><trkpt lat="43.8264141" lon="8.1240722"><ele>0.0</ele><time>2026-05-01T02:21:05.012Z</time></trkpt><trkpt lat="43.8264607" lon="8.1241613"><ele>0.0</ele><time>2026-05-01T02:21:06.011Z</time></trkpt><trkpt lat="43.8265129" lon="8.1242511"><ele>0.0</ele><time>2026-05-01T02:21:07.012Z</time></trkpt><trkpt lat="43.8265648" lon="8.1243386"><ele>0.0</ele><time>2026-05-01T02:21:08.011Z</time></trkpt><trkpt lat="43.8266173" lon="8.1244274"><ele>0.0</ele><time>2026-05-01T02:21:09.012Z</time></trkpt><trkpt lat="43.8266676" lon="8.1245146"><ele>0.0</ele><time>2026-05-01T02:21:10.012Z</time></trkpt><trkpt lat="43.8267187" lon="8.1246042"><ele>0.0</ele><time>2026-05-01T02:21:11.012Z</time></trkpt><trkpt lat="43.8267617" lon="8.1246929"><ele>0.0</ele><time>2026-05-01T02:21:12.012Z</time></trkpt><trkpt lat="43.8268992" lon="8.1249643"><ele>0.0</ele><time>2026-05-01T02:21:15.012Z</time></trkpt><trkpt lat="43.8269463" lon="8.1250526"><ele>0.0</ele><time>2026-05-01T02:21:16.011Z</time></trkpt><trkpt lat="43.826991" lon="8.1251443"><ele>0.0</ele><time>2026-05-01T02:21:17.011Z</time></trkpt><trkpt lat="43.8270874" lon="8.1253301"><ele>0.0</ele><time>2026-05-01T02:21:19.011Z</time></trkpt><trkpt lat="43.8271355" lon="8.1254211"><ele>0.0</ele><time>2026-05-01T02:21:20.011Z</time></trkpt><trkpt lat="43.8271808" lon="8.1255156"><ele>0.0</ele><time>2026-05-01T02:21:21.012Z</time></trkpt><trkpt lat="43.8272355" lon="8.1256073"><ele>0.0</ele><time>2026-05-01T02:21:22.012Z</time></trkpt><trkpt lat="43.8272831" lon="8.1256978"><ele>0.0</ele><time>2026-05-01T02:21:23.011Z</time></trkpt><trkpt lat="43.8273446" lon="8.1257838"><ele>0.0</ele><time>2026-05-01T02:21:24.012Z</time></trkpt><trkpt lat="43.8273923" lon="8.1258786"><ele>0.0</ele><time>2026-05-01T02:21:25.012Z</time></trkpt><trkpt lat="43.8274361" lon="8.1259695"><ele>0.0</ele><time>2026-05-01T02:21:26.012Z</time></trkpt><trkpt lat="43.8274752" lon="8.1260709"><ele>0.0</ele><time>2026-05-01T02:21:27.011Z</time></trkpt><trkpt lat="43.8275175" lon="8.1261631"><ele>0.0</ele><time>2026-05-01T02:21:28.011Z</time></trkpt><trkpt lat="43.8275613" lon="8.1262528"><ele>0.0</ele><time>2026-05-01T02:21:29.011Z</time></trkpt><trkpt lat="43.8276094" lon="8.1263442"><ele>0.0</ele><time>2026-05-01T02:21:30.011Z</time></trkpt><trkpt lat="43.8276582" lon="8.1264388"><ele>0.0</ele><time>2026-05-01T02:21:31.011Z</time></trkpt><trkpt lat="43.8277137" lon="8.1265268"><ele>0.0</ele><time>2026-05-01T02:21:32.011Z</time></trkpt><trkpt lat="43.8277635" lon="8.1266163"><ele>0.0</ele><time>2026-05-01T02:21:33.012Z</time></trkpt><trkpt lat="43.8278106" lon="8.1267121"><ele>0.0</ele><time>2026-05-01T02:21:34.012Z</time></trkpt><trkpt lat="43.8278601" lon="8.1268016"><ele>0.0</ele><time>2026-05-01T02:21:35.011Z</time></trkpt><trkpt lat="43.8279085" lon="8.1268885"><ele>0.0</ele><time>2026-05-01T02:21:36.012Z</time></trkpt><trkpt lat="43.8279497" lon="8.1269807"><ele>0.0</ele><time>2026-05-01T02:21:37.011Z</time></trkpt><trkpt lat="43.8279868" lon="8.1270804"><ele>0.0</ele><time>2026-05-01T02:21:38.012Z</time></trkpt><trkpt lat="43.8280812" lon="8.1272583"><ele>0.0</ele><time>2026-05-01T02:21:40.011Z</time></trkpt><trkpt lat="43.8281286" lon="8.1273437"><ele>0.0</ele><time>2026-05-01T02:21:41.011Z</time></trkpt><trkpt lat="43.828175" lon="8.127436"><ele>0.0</ele><time>2026-05-01T02:21:42.012Z</time></trkpt><trkpt lat="43.8282285" lon="8.1275226"><ele>0.0</ele><time>2026-05-01T02:21:43.012Z</time></trkpt><trkpt lat="43.8282787" lon="8.1276114"><ele>0.0</ele><time>2026-05-01T02:21:44.011Z</time></trkpt><trkpt lat="43.8283317" lon="8.1277026"><ele>0.0</ele><time>2026-05-01T02:21:45.011Z</time></trkpt><trkpt lat="43.8284776" lon="8.1279723"><ele>0.0</ele><time>2026-05-01T02:21:48.011Z</time></trkpt><trkpt lat="43.8285267" lon="8.1280557"><ele>0.0</ele><time>2026-05-01T02:21:49.011Z</time></trkpt><trkpt lat="43.8285736" lon="8.128146"><ele>0.0</ele><time>2026-05-01T02:21:50.012Z</time></trkpt><trkpt lat="43.828618" lon="8.1282416"><ele>0.0</ele><time>2026-05-01T02:21:51.011Z</time></trkpt><trkpt lat="43.8286554" lon="8.1283373"><ele>0.0</ele><time>2026-05-01T02:21:52.011Z</time></trkpt><trkpt lat="43.8287036" lon="8.1284266"><ele>0.0</ele><time>2026-05-01T02:21:53.012Z</time></trkpt><trkpt lat="43.8287563" lon="8.1285137"><ele>0.0</ele><time>2026-05-01T02:21:54.012Z</time></trkpt><trkpt lat="43.8288039" lon="8.1286016"><ele>0.0</ele><time>2026-05-01T02:21:55.012Z</time></trkpt><trkpt lat="43.828851" lon="8.1286898"><ele>0.0</ele><time>2026-05-01T02:21:56.011Z</time></trkpt><trkpt lat="43.8289032" lon="8.1287755"><ele>0.0</ele><time>2026-05-01T02:21:57.011Z</time></trkpt><trkpt lat="43.8289562" lon="8.1288606"><ele>0.0</ele><time>2026-05-01T02:21:58.012Z</time></trkpt><trkpt lat="43.8290054" lon="8.1289527"><ele>0.0</ele><time>2026-05-01T02:21:59.012Z</time></trkpt><trkpt lat="43.8291069" lon="8.1291296"><ele>0.0</ele><time>2026-05-01T02:22:01.011Z</time></trkpt><trkpt lat="43.829149" lon="8.1292248"><ele>0.0</ele><time>2026-05-01T02:22:02.011Z</time></trkpt><trkpt lat="43.8291924" lon="8.1293154"><ele>0.0</ele><time>2026-05-01T02:22:03.011Z</time></trkpt><trkpt lat="43.8292326" lon="8.129407"><ele>0.0</ele><time>2026-05-01T02:22:04.012Z</time></trkpt><trkpt lat="43.8292811" lon="8.1294986"><ele>0.0</ele><time>2026-05-01T02:22:05.011Z</time></trkpt><trkpt lat="43.8293328" lon="8.1295869"><ele>0.0</ele><time>2026-05-01T02:22:06.012Z</time></trkpt><trkpt lat="43.8293806" lon="8.1296734"><ele>0.0</ele><time>2026-05-01T02:22:07.012Z</time></trkpt><trkpt lat="43.8294288" lon="8.1297573"><ele>0.0</ele><time>2026-05-01T02:22:08.012Z</time></trkpt><trkpt lat="43.8294756" lon="8.1298461"><ele>0.0</ele><time>2026-05-01T02:22:09.011Z</time></trkpt><trkpt lat="43.8295221" lon="8.1299392"><ele>0.0</ele><time>2026-05-01T02:22:10.011Z</time></trkpt><trkpt lat="43.8295774" lon="8.1300283"><ele>0.0</ele><time>2026-05-01T02:22:11.012Z</time></trkpt><trkpt lat="43.829631" lon="8.1301228"><ele>0.0</ele><time>2026-05-01T02:22:12.012Z</time></trkpt><trkpt lat="43.8296743" lon="8.1302147"><ele>0.0</ele><time>2026-05-01T02:22:13.011Z</time></trkpt><trkpt lat="43.8297206" lon="8.1303089"><ele>0.0</ele><time>2026-05-01T02:22:14.011Z</time></trkpt><trkpt lat="43.8297703" lon="8.1303992"><ele>0.0</ele><time>2026-05-01T02:22:15.012Z</time></trkpt><trkpt lat="43.8298184" lon="8.1304883"><ele>0.0</ele><time>2026-05-01T02:22:16.011Z</time></trkpt><trkpt lat="43.8298568" lon="8.1305825"><ele>0.0</ele><time>2026-05-01T02:22:17.012Z</time></trkpt><trkpt lat="43.8299018" lon="8.1306722"><ele>0.0</ele><time>2026-05-01T02:22:18.011Z</time></trkpt><trkpt lat="43.8299941" lon="8.1308537"><ele>0.0</ele><time>2026-05-01T02:22:20.012Z</time></trkpt><trkpt lat="43.8300457" lon="8.1309365"><ele>0.0</ele><time>2026-05-01T02:22:21.011Z</time></trkpt><trkpt lat="43.8301273" lon="8.1311225"><ele>0.0</ele><time>2026-05-01T02:22:23.012Z</time></trkpt><trkpt lat="43.8301777" lon="8.1312204"><ele>0.0</ele><time>2026-05-01T02:22:24.011Z</time></trkpt><trkpt lat="43.830222" lon="8.1313192"><ele>0.0</ele><time>2026-05-01T02:22:25.011Z</time></trkpt><trkpt lat="43.8302671" lon="8.1314142"><ele>0.0</ele><time>2026-05-01T02:22:26.012Z</time></trkpt><trkpt lat="43.8303164" lon="8.1315077"><ele>0.0</ele><time>2026-05-01T02:22:27.012Z</time></trkpt><trkpt lat="43.8303815" lon="8.1315905"><ele>0.0</ele><time>2026-05-01T02:22:28.012Z</time></trkpt><trkpt lat="43.8304309" lon="8.1316781"><ele>0.0</ele><time>2026-05-01T02:22:29.011Z</time></trkpt><trkpt lat="43.8304733" lon="8.1317693"><ele>0.0</ele><time>2026-05-01T02:22:30.012Z</time></trkpt><trkpt lat="43.8305285" lon="8.1318514"><ele>0.0</ele><time>2026-05-01T02:22:31.012Z</time></trkpt><trkpt lat="43.8305753" lon="8.1319386"><ele>0.0</ele><time>2026-05-01T02:22:32.012Z</time></trkpt><trkpt lat="43.8306192" lon="8.1320297"><ele>0.0</ele><time>2026-05-01T02:22:33.011Z</time></trkpt><trkpt lat="43.8306622" lon="8.1321185"><ele>0.0</ele><time>2026-05-01T02:22:34.012Z</time></trkpt><trkpt lat="43.8307025" lon="8.1322138"><ele>0.0</ele><time>2026-05-01T02:22:35.012Z</time></trkpt><trkpt lat="43.8307542" lon="8.1323033"><ele>0.0</ele><time>2026-05-01T02:22:36.012Z</time></trkpt><trkpt lat="43.8308077" lon="8.1323931"><ele>0.0</ele><time>2026-05-01T02:22:37.012Z</time></trkpt><trkpt lat="43.8308643" lon="8.1324782"><ele>0.0</ele><time>2026-05-01T02:22:38.012Z</time></trkpt><trkpt lat="43.8309168" lon="8.1325662"><ele>0.0</ele><time>2026-05-01T02:22:39.011Z</time></trkpt><trkpt lat="43.8309727" lon="8.1326561"><ele>0.0</ele><time>2026-05-01T02:22:40.012Z</time></trkpt><trkpt lat="43.8310178" lon="8.1327444"><ele>0.0</ele><time>2026-05-01T02:22:41.011Z</time></trkpt><trkpt lat="43.8310639" lon="8.1328373"><ele>0.0</ele><time>2026-05-01T02:22:42.012Z</time></trkpt><trkpt lat="43.8311714" lon="8.1330125"><ele>0.0</ele><time>2026-05-01T02:22:44.01Z</time></trkpt><trkpt lat="43.8312221" lon="8.1331042"><ele>0.0</ele><time>2026-05-01T02:22:45.01Z</time></trkpt><trkpt lat="43.8312704" lon="8.1331932"><ele>0.0</ele><time>2026-05-01T02:22:46.01Z</time></trkpt><trkpt lat="43.8313149" lon="8.1332827"><ele>0.0</ele><time>2026-05-01T02:22:47.01Z</time></trkpt><trkpt lat="43.8313552" lon="8.1333715"><ele>0.0</ele><time>2026-05-01T02:22:48.011Z</time></trkpt><trkpt lat="43.8314021" lon="8.133463"><ele>0.0</ele><time>2026-05-01T02:22:49.01Z</time></trkpt><trkpt lat="43.8314417" lon="8.1335533"><ele>0.0</ele><time>2026-05-01T02:22:50.011Z</time></trkpt><trkpt lat="43.8315199" lon="8.1337382"><ele>0.0</ele><time>2026-05-01T02:22:52.011Z</time></trkpt><trkpt lat="43.8315676" lon="8.1338274"><ele>0.0</ele><time>2026-05-01T02:22:53.01Z</time></trkpt><trkpt lat="43.831608" lon="8.1339213"><ele>0.0</ele><time>2026-05-01T02:22:54.011Z</time></trkpt><trkpt lat="43.83165" lon="8.1340135"><ele>0.0</ele><time>2026-05-01T02:22:55.01Z</time></trkpt><trkpt lat="43.8316946" lon="8.1341082"><ele>0.0</ele><time>2026-05-01T02:22:56.011Z</time></trkpt><trkpt lat="43.8317525" lon="8.1341932"><ele>0.0</ele><time>2026-05-01T02:22:57.011Z</time></trkpt><trkpt lat="43.8318102" lon="8.1342774"><ele>0.0</ele><time>2026-05-01T02:22:58.01Z</time></trkpt><trkpt lat="43.8318644" lon="8.1343593"><ele>0.0</ele><time>2026-05-01T02:22:59.011Z</time></trkpt><trkpt lat="43.8319032" lon="8.134454"><ele>0.0</ele><time>2026-05-01T02:23:00.011Z</time></trkpt><trkpt lat="43.8319537" lon="8.1345452"><ele>0.0</ele><time>2026-05-01T02:23:01.011Z</time></trkpt><trkpt lat="43.8320038" lon="8.1346369"><ele>0.0</ele><time>2026-05-01T02:23:02.01Z</time></trkpt><trkpt lat="43.8320566" lon="8.1347244"><ele>0.0</ele><time>2026-05-01T02:23:03.01Z</time></trkpt><trkpt lat="43.8321446" lon="8.1349083"><ele>0.0</ele><time>2026-05-01T02:23:05.01Z</time></trkpt><trkpt lat="43.8321873" lon="8.1349985"><ele>0.0</ele><time>2026-05-01T02:23:06.01Z</time></trkpt><trkpt lat="43.8322404" lon="8.1350871"><ele>0.0</ele><time>2026-05-01T02:23:07.011Z</time></trkpt><trkpt lat="43.8322909" lon="8.1351797"><ele>0.0</ele><time>2026-05-01T02:23:08.011Z</time></trkpt><trkpt lat="43.8323389" lon="8.1352697"><ele>0.0</ele><time>2026-05-01T02:23:09.01Z</time></trkpt><trkpt lat="43.8323822" lon="8.1353559"><ele>0.0</ele><time>2026-05-01T02:23:10.01Z</time></trkpt><trkpt lat="43.8324266" lon="8.1354469"><ele>0.0</ele><time>2026-05-01T02:23:11.011Z</time></trkpt><trkpt lat="43.8324693" lon="8.1355379"><ele>0.0</ele><time>2026-05-01T02:23:12.011Z</time></trkpt><trkpt lat="43.8325153" lon="8.1356355"><ele>0.0</ele><time>2026-05-01T02:23:13.01Z</time></trkpt><trkpt lat="43.8325616" lon="8.1357228"><ele>0.0</ele><time>2026-05-01T02:23:14.011Z</time></trkpt><trkpt lat="43.8326042" lon="8.1358129"><ele>0.0</ele><time>2026-05-01T02:23:15.01Z</time></trkpt><trkpt lat="43.8326517" lon="8.135909"><ele>0.0</ele><time>2026-05-01T02:23:16.011Z</time></trkpt><trkpt lat="43.8327012" lon="8.1359998"><ele>0.0</ele><time>2026-05-01T02:23:17.011Z</time></trkpt><trkpt lat="43.8327512" lon="8.1360858"><ele>0.0</ele><time>2026-05-01T02:23:18.011Z</time></trkpt><trkpt lat="43.8327997" lon="8.136175"><ele>0.0</ele><time>2026-05-01T02:23:19.01Z</time></trkpt><trkpt lat="43.8328509" lon="8.1362635"><ele>0.0</ele><time>2026-05-01T02:23:20.01Z</time></trkpt><trkpt lat="43.832894" lon="8.1363618"><ele>0.0</ele><time>2026-05-01T02:23:21.011Z</time></trkpt><trkpt lat="43.8329299" lon="8.136459"><ele>0.0</ele><time>2026-05-01T02:23:22.011Z</time></trkpt><trkpt lat="43.8329726" lon="8.1365542"><ele>0.0</ele><time>2026-05-01T02:23:23.01Z</time></trkpt><trkpt lat="43.8330668" lon="8.1367279"><ele>0.0</ele><time>2026-05-01T02:23:25.011Z</time></trkpt><trkpt lat="43.8331457" lon="8.1369176"><ele>0.0</ele><time>2026-05-01T02:23:27.011Z</time></trkpt><trkpt lat="43.8331999" lon="8.1370041"><ele>0.0</ele><time>2026-05-01T02:23:28.011Z</time></trkpt><trkpt lat="43.8332454" lon="8.1370973"><ele>0.0</ele><time>2026-05-01T02:23:29.01Z</time></trkpt><trkpt lat="43.8332834" lon="8.1371938"><ele>0.0</ele><time>2026-05-01T02:23:30.011Z</time></trkpt><trkpt lat="43.8333813" lon="8.1373717"><ele>0.0</ele><time>2026-05-01T02:23:32.01Z</time></trkpt><trkpt lat="43.8334321" lon="8.1374618"><ele>0.0</ele><time>2026-05-01T02:23:33.011Z</time></trkpt><trkpt lat="43.8334915" lon="8.1375458"><ele>0.0</ele><time>2026-05-01T02:23:34.01Z</time></trkpt><trkpt lat="43.8335498" lon="8.1376334"><ele>0.0</ele><time>2026-05-01T02:23:35.011Z</time></trkpt><trkpt lat="43.8335985" lon="8.1377231"><ele>0.0</ele><time>2026-05-01T02:23:36.011Z</time></trkpt><trkpt lat="43.8336429" lon="8.1378142"><ele>0.0</ele><time>2026-05-01T02:23:37.011Z</time></trkpt><trkpt lat="43.8336846" lon="8.1379044"><ele>0.0</ele><time>2026-05-01T02:23:38.011Z</time></trkpt><trkpt lat="43.8337304" lon="8.1379932"><ele>0.0</ele><time>2026-05-01T02:23:39.011Z</time></trkpt><trkpt lat="43.8337769" lon="8.1380844"><ele>0.0</ele><time>2026-05-01T02:23:40.01Z</time></trkpt><trkpt lat="43.8338448" lon="8.1381673"><ele>0.0</ele><time>2026-05-01T02:23:41.01Z</time></trkpt><trkpt lat="43.8338923" lon="8.1382549"><ele>0.0</ele><time>2026-05-01T02:23:42.011Z</time></trkpt><trkpt lat="43.8339394" lon="8.1383449"><ele>0.0</ele><time>2026-05-01T02:23:43.01Z</time></trkpt><trkpt lat="43.8339894" lon="8.1384334"><ele>0.0</ele><time>2026-05-01T02:23:44.01Z</time></trkpt><trkpt lat="43.8340383" lon="8.1385201"><ele>0.0</ele><time>2026-05-01T02:23:45.011Z</time></trkpt><trkpt lat="43.8340856" lon="8.138608"><ele>0.0</ele><time>2026-05-01T02:23:46.011Z</time></trkpt><trkpt lat="43.83417" lon="8.1387896"><ele>0.0</ele><time>2026-05-01T02:23:48.01Z</time></trkpt><trkpt lat="43.8342294" lon="8.1388727"><ele>0.0</ele><time>2026-05-01T02:23:49.011Z</time></trkpt><trkpt lat="43.8342733" lon="8.1389625"><ele>0.0</ele><time>2026-05-01T02:23:50.011Z</time></trkpt><trkpt lat="43.834319" lon="8.13905"><ele>0.0</ele><time>2026-05-01T02:23:51.011Z</time></trkpt><trkpt lat="43.8343679" lon="8.1391366"><ele>0.0</ele><time>2026-05-01T02:23:52.01Z</time></trkpt><trkpt lat="43.8344136" lon="8.1392263"><ele>0.0</ele><time>2026-05-01T02:23:53.011Z</time></trkpt><trkpt lat="43.8344601" lon="8.1393162"><ele>0.0</ele><time>2026-05-01T02:23:54.011Z</time></trkpt><trkpt lat="43.8345094" lon="8.139408"><ele>0.0</ele><time>2026-05-01T02:23:55.01Z</time></trkpt><trkpt lat="43.8345682" lon="8.1394893"><ele>0.0</ele><time>2026-05-01T02:23:56.01Z</time></trkpt><trkpt lat="43.8346685" lon="8.1396641"><ele>0.0</ele><time>2026-05-01T02:23:58.011Z</time></trkpt><trkpt lat="43.8347187" lon="8.139767"><ele>0.0</ele><time>2026-05-01T02:23:59.011Z</time></trkpt><trkpt lat="43.8347673" lon="8.1398603"><ele>0.0</ele><time>2026-05-01T02:24:00.011Z</time></trkpt><trkpt lat="43.8348084" lon="8.1399552"><ele>0.0</ele><time>2026-05-01T02:24:01.01Z</time></trkpt><trkpt lat="43.8348682" lon="8.1400405"><ele>0.0</ele><time>2026-05-01T02:24:02.011Z</time></trkpt><trkpt lat="43.834917" lon="8.14013"><ele>0.0</ele><time>2026-05-01T02:24:03.011Z</time></trkpt><trkpt lat="43.8349639" lon="8.1402254"><ele>0.0</ele><time>2026-05-01T02:24:04.01Z</time></trkpt><trkpt lat="43.8350583" lon="8.1404019"><ele>0.0</ele><time>2026-05-01T02:24:06.011Z</time></trkpt><trkpt lat="43.8351008" lon="8.1404944"><ele>0.0</ele><time>2026-05-01T02:24:07.01Z</time></trkpt><trkpt lat="43.8352128" lon="8.1406703"><ele>0.0</ele><time>2026-05-01T02:24:09.01Z</time></trkpt><trkpt lat="43.8352519" lon="8.1407649"><ele>0.0</ele><time>2026-05-01T02:24:10.01Z</time></trkpt><trkpt lat="43.8353046" lon="8.1408474"><ele>0.0</ele><time>2026-05-01T02:24:11.01Z</time></trkpt><trkpt lat="43.8353579" lon="8.1409308"><ele>0.0</ele><time>2026-05-01T02:24:12.011Z</time></trkpt><trkpt lat="43.8354103" lon="8.1410136"><ele>0.0</ele><time>2026-05-01T02:24:13.011Z</time></trkpt><trkpt lat="43.8354542" lon="8.1411017"><ele>0.0</ele><time>2026-05-01T02:24:14.011Z</time></trkpt><trkpt lat="43.8355022" lon="8.1411884"><ele>0.0</ele><time>2026-05-01T02:24:15.011Z</time></trkpt><trkpt lat="43.8355535" lon="8.1412765"><ele>0.0</ele><time>2026-05-01T02:24:16.01Z</time></trkpt><trkpt lat="43.8356059" lon="8.1413621"><ele>0.0</ele><time>2026-05-01T02:24:17.01Z</time></trkpt><trkpt lat="43.8356611" lon="8.1414412"><ele>0.0</ele><time>2026-05-01T02:24:18.01Z</time></trkpt><trkpt lat="43.8357052" lon="8.1415279"><ele>0.0</ele><time>2026-05-01T02:24:19.011Z</time></trkpt><trkpt lat="43.8357524" lon="8.1416221"><ele>0.0</ele><time>2026-05-01T02:24:20.011Z</time></trkpt><trkpt lat="43.8357916" lon="8.1417171"><ele>0.0</ele><time>2026-05-01T02:24:21.01Z</time></trkpt><trkpt lat="43.8358397" lon="8.1418064"><ele>0.0</ele><time>2026-05-01T02:24:22.011Z</time></trkpt><trkpt lat="43.8358886" lon="8.1418919"><ele>0.0</ele><time>2026-05-01T02:24:23.011Z</time></trkpt><trkpt lat="43.8359384" lon="8.1419811"><ele>0.0</ele><time>2026-05-01T02:24:24.011Z</time></trkpt><trkpt lat="43.8359908" lon="8.1420683"><ele>0.0</ele><time>2026-05-01T02:24:25.011Z</time></trkpt><trkpt lat="43.8360396" lon="8.1421596"><ele>0.0</ele><time>2026-05-01T02:24:26.01Z</time></trkpt><trkpt lat="43.8360657" lon="8.1422555"><ele>0.0</ele><time>2026-05-01T02:24:27.01Z</time></trkpt><trkpt lat="43.8360867" lon="8.1423519"><ele>0.0</ele><time>2026-05-01T02:24:28.01Z</time></trkpt><trkpt lat="43.8361951" lon="8.1425298"><ele>0.0</ele><time>2026-05-01T02:24:30.011Z</time></trkpt><trkpt lat="43.8362968" lon="8.1427047"><ele>0.0</ele><time>2026-05-01T02:24:32.011Z</time></trkpt><trkpt lat="43.8363562" lon="8.142791"><ele>0.0</ele><time>2026-05-01T02:24:33.011Z</time></trkpt><trkpt lat="43.8364058" lon="8.1428818"><ele>0.0</ele><time>2026-05-01T02:24:34.01Z</time></trkpt><trkpt lat="43.8364533" lon="8.14297"><ele>0.0</ele><time>2026-05-01T02:24:35.01Z</time></trkpt><trkpt lat="43.8365015" lon="8.1430552"><ele>0.0</ele><time>2026-05-01T02:24:36.01Z</time></trkpt><trkpt lat="43.8365449" lon="8.1431459"><ele>0.0</ele><time>2026-05-01T02:24:37.01Z</time></trkpt><trkpt lat="43.8366049" lon="8.1432364"><ele>0.0</ele><time>2026-05-01T02:24:38.01Z</time></trkpt><trkpt lat="43.8366478" lon="8.143331"><ele>0.0</ele><time>2026-05-01T02:24:39.01Z</time></trkpt><trkpt lat="43.8367014" lon="8.1434189"><ele>0.0</ele><time>2026-05-01T02:24:40.011Z</time></trkpt><trkpt lat="43.8367427" lon="8.1435144"><ele>0.0</ele><time>2026-05-01T02:24:41.01Z</time></trkpt><trkpt lat="43.8367839" lon="8.1436005"><ele>0.0</ele><time>2026-05-01T02:24:42.011Z</time></trkpt><trkpt lat="43.8368273" lon="8.1436899"><ele>0.0</ele><time>2026-05-01T02:24:43.01Z</time></trkpt><trkpt lat="43.8368753" lon="8.1437793"><ele>0.0</ele><time>2026-05-01T02:24:44.011Z</time></trkpt><trkpt lat="43.8369221" lon="8.1438693"><ele>0.0</ele><time>2026-05-01T02:24:45.011Z</time></trkpt><trkpt lat="43.8369719" lon="8.1439594"><ele>0.0</ele><time>2026-05-01T02:24:46.011Z</time></trkpt><trkpt lat="43.8370261" lon="8.1440452"><ele>0.0</ele><time>2026-05-01T02:24:47.01Z</time></trkpt><trkpt lat="43.8370725" lon="8.1441346"><ele>0.0</ele><time>2026-05-01T02:24:48.01Z</time></trkpt><trkpt lat="43.8371186" lon="8.1442245"><ele>0.0</ele><time>2026-05-01T02:24:49.011Z</time></trkpt><trkpt lat="43.8371681" lon="8.1443116"><ele>0.0</ele><time>2026-05-01T02:24:50.011Z</time></trkpt><trkpt lat="43.8372737" lon="8.1444816"><ele>0.0</ele><time>2026-05-01T02:24:52.011Z</time></trkpt><trkpt lat="43.8373218" lon="8.1445687"><ele>0.0</ele><time>2026-05-01T02:24:53.01Z</time></trkpt><trkpt lat="43.8373615" lon="8.1446669"><ele>0.0</ele><time>2026-05-01T02:24:54.01Z</time></trkpt><trkpt lat="43.8374141" lon="8.1447569"><ele>0.0</ele><time>2026-05-01T02:24:55.011Z</time></trkpt><trkpt lat="43.8374619" lon="8.1448434"><ele>0.0</ele><time>2026-05-01T02:24:56.01Z</time></trkpt><trkpt lat="43.8375101" lon="8.1449332"><ele>0.0</ele><time>2026-05-01T02:24:57.011Z</time></trkpt><trkpt lat="43.8375556" lon="8.1450228"><ele>0.0</ele><time>2026-05-01T02:24:58.011Z</time></trkpt><trkpt lat="43.8376013" lon="8.1451116"><ele>0.0</ele><time>2026-05-01T02:24:59.011Z</time></trkpt><trkpt lat="43.8376404" lon="8.1452069"><ele>0.0</ele><time>2026-05-01T02:25:00.01Z</time></trkpt><trkpt lat="43.8376811" lon="8.1452978"><ele>0.0</ele><time>2026-05-01T02:25:01.011Z</time></trkpt><trkpt lat="43.8377816" lon="8.1454824"><ele>0.0</ele><time>2026-05-01T02:25:03.01Z</time></trkpt><trkpt lat="43.8378281" lon="8.1455726"><ele>0.0</ele><time>2026-05-01T02:25:04.01Z</time></trkpt><trkpt lat="43.8378693" lon="8.1456649"><ele>0.0</ele><time>2026-05-01T02:25:05.01Z</time></trkpt><trkpt lat="43.8379114" lon="8.1457628"><ele>0.0</ele><time>2026-05-01T02:25:06.01Z</time></trkpt><trkpt lat="43.8379583" lon="8.1458578"><ele>0.0</ele><time>2026-05-01T02:25:07.011Z</time></trkpt><trkpt lat="43.8379997" lon="8.1459568"><ele>0.0</ele><time>2026-05-01T02:25:08.011Z</time></trkpt><trkpt lat="43.8380478" lon="8.146048"><ele>0.0</ele><time>2026-05-01T02:25:09.01Z</time></trkpt><trkpt lat="43.8380983" lon="8.1461336"><ele>0.0</ele><time>2026-05-01T02:25:10.011Z</time></trkpt><trkpt lat="43.8382598" lon="8.1463931"><ele>0.0</ele><time>2026-05-01T02:25:13.011Z</time></trkpt><trkpt lat="43.8383156" lon="8.1464787"><ele>0.0</ele><time>2026-05-01T02:25:14.011Z</time></trkpt><trkpt lat="43.838398" lon="8.1466595"><ele>0.0</ele><time>2026-05-01T02:25:16.01Z</time></trkpt><trkpt lat="43.8384427" lon="8.1467479"><ele>0.0</ele><time>2026-05-01T02:25:17.01Z</time></trkpt><trkpt lat="43.8384888" lon="8.146832"><ele>0.0</ele><time>2026-05-01T02:25:18.01Z</time></trkpt><trkpt lat="43.8385377" lon="8.1469209"><ele>0.0</ele><time>2026-05-01T02:25:19.01Z</time></trkpt><trkpt lat="43.8385874" lon="8.1470048"><ele>0.0</ele><time>2026-05-01T02:25:20.01Z</time></trkpt><trkpt lat="43.8386301" lon="8.1470917"><ele>0.0</ele><time>2026-05-01T02:25:21.011Z</time></trkpt><trkpt lat="43.8386788" lon="8.1471806"><ele>0.0</ele><time>2026-05-01T02:25:22.01Z</time></trkpt><trkpt lat="43.8387272" lon="8.147264"><ele>0.0</ele><time>2026-05-01T02:25:23.01Z</time></trkpt><trkpt lat="43.8387706" lon="8.1473547"><ele>0.0</ele><time>2026-05-01T02:25:24.01Z</time></trkpt><trkpt lat="43.8388194" lon="8.1474422"><ele>0.0</ele><time>2026-05-01T02:25:25.01Z</time></trkpt><trkpt lat="43.8388696" lon="8.1475333"><ele>0.0</ele><time>2026-05-01T02:25:26.01Z</time></trkpt><trkpt lat="43.8389129" lon="8.1476217"><ele>0.0</ele><time>2026-05-01T02:25:27.011Z</time></trkpt><trkpt lat="43.8389631" lon="8.147707"><ele>0.0</ele><time>2026-05-01T02:25:28.01Z</time></trkpt><trkpt lat="43.8390095" lon="8.1477977"><ele>0.0</ele><time>2026-05-01T02:25:29.01Z</time></trkpt><trkpt lat="43.8390521" lon="8.1478848"><ele>0.0</ele><time>2026-05-01T02:25:30.01Z</time></trkpt><trkpt lat="43.839095" lon="8.1479768"><ele>0.0</ele><time>2026-05-01T02:25:31.01Z</time></trkpt><trkpt lat="43.8391522" lon="8.1480588"><ele>0.0</ele><time>2026-05-01T02:25:32.011Z</time></trkpt><trkpt lat="43.8392495" lon="8.1482339"><ele>0.0</ele><time>2026-05-01T02:25:34.01Z</time></trkpt><trkpt lat="43.8393356" lon="8.1484177"><ele>0.0</ele><time>2026-05-01T02:25:36.011Z</time></trkpt><trkpt lat="43.8393821" lon="8.1485077"><ele>0.0</ele><time>2026-05-01T02:25:37.011Z</time></trkpt><trkpt lat="43.8394215" lon="8.1486008"><ele>0.0</ele><time>2026-05-01T02:25:38.011Z</time></trkpt><trkpt lat="43.8394637" lon="8.1486946"><ele>0.0</ele><time>2026-05-01T02:25:39.01Z</time></trkpt><trkpt lat="43.8395199" lon="8.1487866"><ele>0.0</ele><time>2026-05-01T02:25:40.01Z</time></trkpt><trkpt lat="43.8395583" lon="8.148878"><ele>0.0</ele><time>2026-05-01T02:25:41.011Z</time></trkpt><trkpt lat="43.8396038" lon="8.1489666"><ele>0.0</ele><time>2026-05-01T02:25:42.01Z</time></trkpt><trkpt lat="43.8396584" lon="8.1490493"><ele>0.0</ele><time>2026-05-01T02:25:43.011Z</time></trkpt><trkpt lat="43.8397094" lon="8.1491368"><ele>0.0</ele><time>2026-05-01T02:25:44.01Z</time></trkpt><trkpt lat="43.8397652" lon="8.1492154"><ele>0.0</ele><time>2026-05-01T02:25:45.01Z</time></trkpt><trkpt lat="43.8398137" lon="8.1492985"><ele>0.0</ele><time>2026-05-01T02:25:46.01Z</time></trkpt><trkpt lat="43.8398631" lon="8.1493862"><ele>0.0</ele><time>2026-05-01T02:25:47.01Z</time></trkpt><trkpt lat="43.8399071" lon="8.1494796"><ele>0.0</ele><time>2026-05-01T02:25:48.01Z</time></trkpt><trkpt lat="43.8399537" lon="8.1495671"><ele>0.0</ele><time>2026-05-01T02:25:49.011Z</time></trkpt><trkpt lat="43.8400005" lon="8.1496607"><ele>0.0</ele><time>2026-05-01T02:25:50.01Z</time></trkpt><trkpt lat="43.8400563" lon="8.1497491"><ele>0.0</ele><time>2026-05-01T02:25:51.01Z</time></trkpt><trkpt lat="43.8400998" lon="8.1498377"><ele>0.0</ele><time>2026-05-01T02:25:52.011Z</time></trkpt><trkpt lat="43.8401414" lon="8.1499306"><ele>0.0</ele><time>2026-05-01T02:25:53.011Z</time></trkpt><trkpt lat="43.8402317" lon="8.1501168"><ele>0.0</ele><time>2026-05-01T02:25:55.011Z</time></trkpt><trkpt lat="43.8402726" lon="8.1502111"><ele>0.0</ele><time>2026-05-01T02:25:56.011Z</time></trkpt><trkpt lat="43.8403152" lon="8.1503062"><ele>0.0</ele><time>2026-05-01T02:25:57.01Z</time></trkpt><trkpt lat="43.8403797" lon="8.1503851"><ele>0.0</ele><time>2026-05-01T02:25:58.011Z</time></trkpt><trkpt lat="43.8404409" lon="8.1504648"><ele>0.0</ele><time>2026-05-01T02:25:59.01Z</time></trkpt><trkpt lat="43.8404903" lon="8.1505514"><ele>0.0</ele><time>2026-05-01T02:26:00.011Z</time></trkpt><trkpt lat="43.840534" lon="8.150637"><ele>0.0</ele><time>2026-05-01T02:26:01.01Z</time></trkpt><trkpt lat="43.8405832" lon="8.1507195"><ele>0.0</ele><time>2026-05-01T02:26:02.01Z</time></trkpt><trkpt lat="43.8406304" lon="8.1508006"><ele>0.0</ele><time>2026-05-01T02:26:03.01Z</time></trkpt><trkpt lat="43.8406731" lon="8.1508937"><ele>0.0</ele><time>2026-05-01T02:26:04.01Z</time></trkpt><trkpt lat="43.8407101" lon="8.15099"><ele>0.0</ele><time>2026-05-01T02:26:05.01Z</time></trkpt><trkpt lat="43.8407535" lon="8.1510758"><ele>0.0</ele><time>2026-05-01T02:26:06.01Z</time></trkpt><trkpt lat="43.8408074" lon="8.1511675"><ele>0.0</ele><time>2026-05-01T02:26:07.011Z</time></trkpt><trkpt lat="43.8408634" lon="8.1512539"><ele>0.0</ele><time>2026-05-01T02:26:08.01Z</time></trkpt><trkpt lat="43.8409088" lon="8.1513461"><ele>0.0</ele><time>2026-05-01T02:26:09.01Z</time></trkpt><trkpt lat="43.8409493" lon="8.1514452"><ele>0.0</ele><time>2026-05-01T02:26:10.011Z</time></trkpt><trkpt lat="43.8410048" lon="8.1515264"><ele>0.0</ele><time>2026-05-01T02:26:11.01Z</time></trkpt><trkpt lat="43.8410474" lon="8.1516206"><ele>0.0</ele><time>2026-05-01T02:26:12.011Z</time></trkpt><trkpt lat="43.8410865" lon="8.1517144"><ele>0.0</ele><time>2026-05-01T02:26:13.011Z</time></trkpt><trkpt lat="43.8411369" lon="8.151805"><ele>0.0</ele><time>2026-05-01T02:26:14.01Z</time></trkpt><trkpt lat="43.8412158" lon="8.1519779"><ele>0.0</ele><time>2026-05-01T02:26:16.011Z</time></trkpt><trkpt lat="43.8412588" lon="8.1520711"><ele>0.0</ele><time>2026-05-01T02:26:17.011Z</time></trkpt><trkpt lat="43.8413137" lon="8.1521538"><ele>0.0</ele><time>2026-05-01T02:26:18.01Z</time></trkpt><trkpt lat="43.8413562" lon="8.1522412"><ele>0.0</ele><time>2026-05-01T02:26:19.011Z</time></trkpt><trkpt lat="43.8414046" lon="8.1523341"><ele>0.0</ele><time>2026-05-01T02:26:20.01Z</time></trkpt><trkpt lat="43.8414457" lon="8.1524332"><ele>0.0</ele><time>2026-05-01T02:26:21.01Z</time></trkpt><trkpt lat="43.8414914" lon="8.1525263"><ele>0.0</ele><time>2026-05-01T02:26:22.011Z</time></trkpt><trkpt lat="43.8415334" lon="8.1526215"><ele>0.0</ele><time>2026-05-01T02:26:23.01Z</time></trkpt><trkpt lat="43.8415757" lon="8.1527104"><ele>0.0</ele><time>2026-05-01T02:26:24.01Z</time></trkpt><trkpt lat="43.8416233" lon="8.1527983"><ele>0.0</ele><time>2026-05-01T02:26:25.011Z</time></trkpt><trkpt lat="43.8416631" lon="8.1528866"><ele>0.0</ele><time>2026-05-01T02:26:26.011Z</time></trkpt><trkpt lat="43.8417042" lon="8.1529777"><ele>0.0</ele><time>2026-05-01T02:26:27.01Z</time></trkpt><trkpt lat="43.8417572" lon="8.1530663"><ele>0.0</ele><time>2026-05-01T02:26:28.01Z</time></trkpt><trkpt lat="43.8418028" lon="8.153156"><ele>0.0</ele><time>2026-05-01T02:26:29.01Z</time></trkpt><trkpt lat="43.841846" lon="8.1532407"><ele>0.0</ele><time>2026-05-01T02:26:30.011Z</time></trkpt><trkpt lat="43.8418883" lon="8.1533349"><ele>0.0</ele><time>2026-05-01T02:26:31.01Z</time></trkpt><trkpt lat="43.8419279" lon="8.1534288"><ele>0.0</ele><time>2026-05-01T02:26:32.011Z</time></trkpt><trkpt lat="43.8419762" lon="8.1535155"><ele>0.0</ele><time>2026-05-01T02:26:33.01Z</time></trkpt><trkpt lat="43.842053" lon="8.1535893"><ele>0.0</ele><time>2026-05-01T02:26:34.011Z</time></trkpt><trkpt lat="43.8421302" lon="8.1536663"><ele>0.0</ele><time>2026-05-01T02:26:35.011Z</time></trkpt><trkpt lat="43.8422383" lon="8.1538364"><ele>0.0</ele><time>2026-05-01T02:26:37.01Z</time></trkpt><trkpt lat="43.8422823" lon="8.1539337"><ele>0.0</ele><time>2026-05-01T02:26:38.01Z</time></trkpt><trkpt lat="43.8423682" lon="8.1541228"><ele>0.0</ele><time>2026-05-01T02:26:40.01Z</time></trkpt><trkpt lat="43.8424118" lon="8.1542147"><ele>0.0</ele><time>2026-05-01T02:26:41.01Z</time></trkpt><trkpt lat="43.8424572" lon="8.1543061"><ele>0.0</ele><time>2026-05-01T02:26:42.011Z</time></trkpt><trkpt lat="43.8425111" lon="8.1543919"><ele>0.0</ele><time>2026-05-01T02:26:43.011Z</time></trkpt><trkpt lat="43.8425724" lon="8.1544732"><ele>0.0</ele><time>2026-05-01T02:26:44.01Z</time></trkpt><trkpt lat="43.8426336" lon="8.1545583"><ele>0.0</ele><time>2026-05-01T02:26:45.011Z</time></trkpt><trkpt lat="43.8426904" lon="8.1546443"><ele>0.0</ele><time>2026-05-01T02:26:46.01Z</time></trkpt><trkpt lat="43.842745" lon="8.1547312"><ele>0.0</ele><time>2026-05-01T02:26:47.01Z</time></trkpt><trkpt lat="43.8427969" lon="8.1548151"><ele>0.0</ele><time>2026-05-01T02:26:48.011Z</time></trkpt><trkpt lat="43.8428475" lon="8.1549027"><ele>0.0</ele><time>2026-05-01T02:26:49.01Z</time></trkpt><trkpt lat="43.8428903" lon="8.1549926"><ele>0.0</ele><time>2026-05-01T02:26:50.011Z</time></trkpt><trkpt lat="43.8429448" lon="8.1550782"><ele>0.0</ele><time>2026-05-01T02:26:51.011Z</time></trkpt><trkpt lat="43.842981" lon="8.1551707"><ele>0.0</ele><time>2026-05-01T02:26:52.01Z</time></trkpt><trkpt lat="43.8430185" lon="8.1552596"><ele>0.0</ele><time>2026-05-01T02:26:53.01Z</time></trkpt><trkpt lat="43.8430541" lon="8.1553551"><ele>0.0</ele><time>2026-05-01T02:26:54.01Z</time></trkpt><trkpt lat="43.8430914" lon="8.155449"><ele>0.0</ele><time>2026-05-01T02:26:55.01Z</time></trkpt><trkpt lat="43.8431331" lon="8.1555367"><ele>0.0</ele><time>2026-05-01T02:26:56.01Z</time></trkpt><trkpt lat="43.8432151" lon="8.1557255"><ele>0.0</ele><time>2026-05-01T02:26:58.01Z</time></trkpt><trkpt lat="43.8432561" lon="8.1558207"><ele>0.0</ele><time>2026-05-01T02:26:59.01Z</time></trkpt><trkpt lat="43.8433129" lon="8.15591"><ele>0.0</ele><time>2026-05-01T02:27:00.01Z</time></trkpt><trkpt lat="43.8433547" lon="8.1560054"><ele>0.0</ele><time>2026-05-01T02:27:01.011Z</time></trkpt><trkpt lat="43.8433947" lon="8.1560962"><ele>0.0</ele><time>2026-05-01T02:27:02.011Z</time></trkpt><trkpt lat="43.8434341" lon="8.1561922"><ele>0.0</ele><time>2026-05-01T02:27:03.011Z</time></trkpt><trkpt lat="43.8434727" lon="8.1562873"><ele>0.0</ele><time>2026-05-01T02:27:04.01Z</time></trkpt><trkpt lat="43.8435197" lon="8.156381"><ele>0.0</ele><time>2026-05-01T02:27:05.011Z</time></trkpt><trkpt lat="43.8435699" lon="8.1564698"><ele>0.0</ele><time>2026-05-01T02:27:06.01Z</time></trkpt><trkpt lat="43.8436209" lon="8.1565586"><ele>0.0</ele><time>2026-05-01T02:27:07.01Z</time></trkpt><trkpt lat="43.8436691" lon="8.1566513"><ele>0.0</ele><time>2026-05-01T02:27:08.01Z</time></trkpt><trkpt lat="43.8437144" lon="8.1567427"><ele>0.0</ele><time>2026-05-01T02:27:09.01Z</time></trkpt><trkpt lat="43.8437604" lon="8.1568326"><ele>0.0</ele><time>2026-05-01T02:27:10.011Z</time></trkpt><trkpt lat="43.8438059" lon="8.1569185"><ele>0.0</ele><time>2026-05-01T02:27:11.011Z</time></trkpt><trkpt lat="43.8439177" lon="8.1570986"><ele>0.0</ele><time>2026-05-01T02:27:13.01Z</time></trkpt><trkpt lat="43.8439648" lon="8.1571825"><ele>0.0</ele><time>2026-05-01T02:27:14.01Z</time></trkpt><trkpt lat="43.844006" lon="8.1572731"><ele>0.0</ele><time>2026-05-01T02:27:15.01Z</time></trkpt><trkpt lat="43.8440509" lon="8.1573616"><ele>0.0</ele><time>2026-05-01T02:27:16.01Z</time></trkpt><trkpt lat="43.8440858" lon="8.1574515"><ele>0.0</ele><time>2026-05-01T02:27:17.011Z</time></trkpt><trkpt lat="43.8441737" lon="8.1576364"><ele>0.0</ele><time>2026-05-01T02:27:19.01Z</time></trkpt><trkpt lat="43.8442299" lon="8.1577208"><ele>0.0</ele><time>2026-05-01T02:27:20.01Z</time></trkpt><trkpt lat="43.8442854" lon="8.1578072"><ele>0.0</ele><time>2026-05-01T02:27:21.01Z</time></trkpt><trkpt lat="43.844339" lon="8.1578909"><ele>0.0</ele><time>2026-05-01T02:27:22.01Z</time></trkpt><trkpt lat="43.8443979" lon="8.1579811"><ele>0.0</ele><time>2026-05-01T02:27:23.01Z</time></trkpt><trkpt lat="43.8444438" lon="8.1580715"><ele>0.0</ele><time>2026-05-01T02:27:24.011Z</time></trkpt><trkpt lat="43.8444875" lon="8.1581627"><ele>0.0</ele><time>2026-05-01T02:27:25.01Z</time></trkpt><trkpt lat="43.8445424" lon="8.1582484"><ele>0.0</ele><time>2026-05-01T02:27:26.01Z</time></trkpt><trkpt lat="43.8446003" lon="8.1583279"><ele>0.0</ele><time>2026-05-01T02:27:27.009Z</time></trkpt><trkpt lat="43.8446444" lon="8.1584219"><ele>0.0</ele><time>2026-05-01T02:27:28.009Z</time></trkpt><trkpt lat="43.8446891" lon="8.1585127"><ele>0.0</ele><time>2026-05-01T02:27:29.01Z</time></trkpt><trkpt lat="43.8447337" lon="8.1586073"><ele>0.0</ele><time>2026-05-01T02:27:30.009Z</time></trkpt><trkpt lat="43.8447791" lon="8.1587021"><ele>0.0</ele><time>2026-05-01T02:27:31.01Z</time></trkpt><trkpt lat="43.8448241" lon="8.1587957"><ele>0.0</ele><time>2026-05-01T02:27:32.009Z</time></trkpt><trkpt lat="43.8448664" lon="8.1588873"><ele>0.0</ele><time>2026-05-01T02:27:33.009Z</time></trkpt><trkpt lat="43.8449049" lon="8.1589767"><ele>0.0</ele><time>2026-05-01T02:27:34.009Z</time></trkpt><trkpt lat="43.8449487" lon="8.1590653"><ele>0.0</ele><time>2026-05-01T02:27:35.009Z</time></trkpt><trkpt lat="43.8449907" lon="8.1591551"><ele>0.0</ele><time>2026-05-01T02:27:36.009Z</time></trkpt><trkpt lat="43.845044" lon="8.1592348"><ele>0.0</ele><time>2026-05-01T02:27:37.01Z</time></trkpt><trkpt lat="43.8451005" lon="8.1593134"><ele>0.0</ele><time>2026-05-01T02:27:38.009Z</time></trkpt><trkpt lat="43.845189" lon="8.1594898"><ele>0.0</ele><time>2026-05-01T02:27:40.01Z</time></trkpt><trkpt lat="43.8452338" lon="8.1595795"><ele>0.0</ele><time>2026-05-01T02:27:41.009Z</time></trkpt><trkpt lat="43.8452778" lon="8.1596679"><ele>0.0</ele><time>2026-05-01T02:27:42.009Z</time></trkpt><trkpt lat="43.8453264" lon="8.1597563"><ele>0.0</ele><time>2026-05-01T02:27:43.009Z</time></trkpt><trkpt lat="43.8454554" lon="8.1600266"><ele>0.0</ele><time>2026-05-01T02:27:46.01Z</time></trkpt><trkpt lat="43.845498" lon="8.1601205"><ele>0.0</ele><time>2026-05-01T02:27:47.009Z</time></trkpt><trkpt lat="43.8455471" lon="8.1602108"><ele>0.0</ele><time>2026-05-01T02:27:48.009Z</time></trkpt><trkpt lat="43.8455868" lon="8.1603068"><ele>0.0</ele><time>2026-05-01T02:27:49.009Z</time></trkpt><trkpt lat="43.8456266" lon="8.1604008"><ele>0.0</ele><time>2026-05-01T02:27:50.01Z</time></trkpt><trkpt lat="43.8456709" lon="8.1604883"><ele>0.0</ele><time>2026-05-01T02:27:51.009Z</time></trkpt><trkpt lat="43.8457248" lon="8.1605775"><ele>0.0</ele><time>2026-05-01T02:27:52.01Z</time></trkpt><trkpt lat="43.8457622" lon="8.1606721"><ele>0.0</ele><time>2026-05-01T02:27:53.01Z</time></trkpt><trkpt lat="43.8458017" lon="8.1607655"><ele>0.0</ele><time>2026-05-01T02:27:54.009Z</time></trkpt><trkpt lat="43.8458435" lon="8.1608633"><ele>0.0</ele><time>2026-05-01T02:27:55.01Z</time></trkpt><trkpt lat="43.8458845" lon="8.160959"><ele>0.0</ele><time>2026-05-01T02:27:56.009Z</time></trkpt><trkpt lat="43.8459251" lon="8.1610479"><ele>0.0</ele><time>2026-05-01T02:27:57.009Z</time></trkpt><trkpt lat="43.8459677" lon="8.1611437"><ele>0.0</ele><time>2026-05-01T02:27:58.01Z</time></trkpt><trkpt lat="43.8460135" lon="8.1612346"><ele>0.0</ele><time>2026-05-01T02:27:59.009Z</time></trkpt><trkpt lat="43.8461638" lon="8.1614981"><ele>0.0</ele><time>2026-05-01T02:28:02.01Z</time></trkpt><trkpt lat="43.8462123" lon="8.1615805"><ele>0.0</ele><time>2026-05-01T02:28:03.01Z</time></trkpt><trkpt lat="43.8462594" lon="8.1616623"><ele>0.0</ele><time>2026-05-01T02:28:04.009Z</time></trkpt><trkpt lat="43.8463026" lon="8.1617571"><ele>0.0</ele><time>2026-05-01T02:28:05.009Z</time></trkpt><trkpt lat="43.8463484" lon="8.1618511"><ele>0.0</ele><time>2026-05-01T02:28:06.009Z</time></trkpt><trkpt lat="43.8463971" lon="8.1619367"><ele>0.0</ele><time>2026-05-01T02:28:07.009Z</time></trkpt><trkpt lat="43.8464436" lon="8.162025"><ele>0.0</ele><time>2026-05-01T02:28:08.009Z</time></trkpt><trkpt lat="43.8464931" lon="8.1621116"><ele>0.0</ele><time>2026-05-01T02:28:09.01Z</time></trkpt><trkpt lat="43.8465388" lon="8.1621969"><ele>0.0</ele><time>2026-05-01T02:28:10.009Z</time></trkpt><trkpt lat="43.8465868" lon="8.1622833"><ele>0.0</ele><time>2026-05-01T02:28:11.009Z</time></trkpt><trkpt lat="43.8466956" lon="8.1624588"><ele>0.0</ele><time>2026-05-01T02:28:13.009Z</time></trkpt><trkpt lat="43.8467395" lon="8.162552"><ele>0.0</ele><time>2026-05-01T02:28:14.01Z</time></trkpt><trkpt lat="43.8467871" lon="8.1626509"><ele>0.0</ele><time>2026-05-01T02:28:15.009Z</time></trkpt><trkpt lat="43.8468309" lon="8.162747"><ele>0.0</ele><time>2026-05-01T02:28:16.009Z</time></trkpt><trkpt lat="43.846946" lon="8.1630303"><ele>0.0</ele><time>2026-05-01T02:28:19.009Z</time></trkpt><trkpt lat="43.8469894" lon="8.1631197"><ele>0.0</ele><time>2026-05-01T02:28:20.01Z</time></trkpt><trkpt lat="43.847077" lon="8.1633138"><ele>0.0</ele><time>2026-05-01T02:28:22.01Z</time></trkpt><trkpt lat="43.8471207" lon="8.1634064"><ele>0.0</ele><time>2026-05-01T02:28:23.01Z</time></trkpt><trkpt lat="43.8471542" lon="8.1634995"><ele>0.0</ele><time>2026-05-01T02:28:24.009Z</time></trkpt><trkpt lat="43.8471962" lon="8.1635926"><ele>0.0</ele><time>2026-05-01T02:28:25.009Z</time></trkpt><trkpt lat="43.8472451" lon="8.1636815"><ele>0.0</ele><time>2026-05-01T02:28:26.009Z</time></trkpt><trkpt lat="43.8472936" lon="8.1637682"><ele>0.0</ele><time>2026-05-01T02:28:27.01Z</time></trkpt><trkpt lat="43.8473466" lon="8.1638504"><ele>0.0</ele><time>2026-05-01T02:28:28.009Z</time></trkpt><trkpt lat="43.8473922" lon="8.163938"><ele>0.0</ele><time>2026-05-01T02:28:29.009Z</time></trkpt><trkpt lat="43.847433" lon="8.1640337"><ele>0.0</ele><time>2026-05-01T02:28:30.01Z</time></trkpt><trkpt lat="43.8474813" lon="8.1641235"><ele>0.0</ele><time>2026-05-01T02:28:31.01Z</time></trkpt><trkpt lat="43.8475294" lon="8.1642094"><ele>0.0</ele><time>2026-05-01T02:28:32.01Z</time></trkpt><trkpt lat="43.8475782" lon="8.1642983"><ele>0.0</ele><time>2026-05-01T02:28:33.01Z</time></trkpt><trkpt lat="43.8476234" lon="8.1643927"><ele>0.0</ele><time>2026-05-01T02:28:34.009Z</time></trkpt><trkpt lat="43.8476715" lon="8.1644776"><ele>0.0</ele><time>2026-05-01T02:28:35.01Z</time></trkpt><trkpt lat="43.8477281" lon="8.1645642"><ele>0.0</ele><time>2026-05-01T02:28:36.01Z</time></trkpt><trkpt lat="43.8477733" lon="8.1646511"><ele>0.0</ele><time>2026-05-01T02:28:37.009Z</time></trkpt><trkpt lat="43.8478196" lon="8.1647449"><ele>0.0</ele><time>2026-05-01T02:28:38.01Z</time></trkpt><trkpt lat="43.8478677" lon="8.1648326"><ele>0.0</ele><time>2026-05-01T02:28:39.009Z</time></trkpt><trkpt lat="43.8479135" lon="8.1649189"><ele>0.0</ele><time>2026-05-01T02:28:40.01Z</time></trkpt><trkpt lat="43.84796" lon="8.1650115"><ele>0.0</ele><time>2026-05-01T02:28:41.01Z</time></trkpt><trkpt lat="43.8480529" lon="8.1651891"><ele>0.0</ele><time>2026-05-01T02:28:43.009Z</time></trkpt><trkpt lat="43.8480969" lon="8.1652774"><ele>0.0</ele><time>2026-05-01T02:28:44.01Z</time></trkpt><trkpt lat="43.8481425" lon="8.1653662"><ele>0.0</ele><time>2026-05-01T02:28:45.01Z</time></trkpt><trkpt lat="43.8481787" lon="8.1654566"><ele>0.0</ele><time>2026-05-01T02:28:46.009Z</time></trkpt><trkpt lat="43.848222" lon="8.1655479"><ele>0.0</ele><time>2026-05-01T02:28:47.01Z</time></trkpt><trkpt lat="43.8482697" lon="8.1656356"><ele>0.0</ele><time>2026-05-01T02:28:48.009Z</time></trkpt><trkpt lat="43.8483194" lon="8.1657183"><ele>0.0</ele><time>2026-05-01T02:28:49.009Z</time></trkpt><trkpt lat="43.8484374" lon="8.1658843"><ele>0.0</ele><time>2026-05-01T02:28:51.01Z</time></trkpt><trkpt lat="43.8484921" lon="8.1659687"><ele>0.0</ele><time>2026-05-01T02:28:52.009Z</time></trkpt><trkpt lat="43.8485411" lon="8.1660598"><ele>0.0</ele><time>2026-05-01T02:28:53.009Z</time></trkpt><trkpt lat="43.8485908" lon="8.1661488"><ele>0.0</ele><time>2026-05-01T02:28:54.01Z</time></trkpt><trkpt lat="43.8486324" lon="8.1662427"><ele>0.0</ele><time>2026-05-01T02:28:55.009Z</time></trkpt><trkpt lat="43.8486796" lon="8.1663279"><ele>0.0</ele><time>2026-05-01T02:28:56.009Z</time></trkpt><trkpt lat="43.8487393" lon="8.1664096"><ele>0.0</ele><time>2026-05-01T02:28:57.009Z</time></trkpt><trkpt lat="43.8487836" lon="8.1665"><ele>0.0</ele><time>2026-05-01T02:28:58.01Z</time></trkpt><trkpt lat="43.8488185" lon="8.1665889"><ele>0.0</ele><time>2026-05-01T02:28:59.009Z</time></trkpt><trkpt lat="43.84885" lon="8.1666873"><ele>0.0</ele><time>2026-05-01T02:29:00.01Z</time></trkpt><trkpt lat="43.848888" lon="8.1667767"><ele>0.0</ele><time>2026-05-01T02:29:01.009Z</time></trkpt><trkpt lat="43.8489256" lon="8.1668729"><ele>0.0</ele><time>2026-05-01T02:29:02.009Z</time></trkpt><trkpt lat="43.8490329" lon="8.1670479"><ele>0.0</ele><time>2026-05-01T02:29:04.009Z</time></trkpt><trkpt lat="43.8490799" lon="8.1671367"><ele>0.0</ele><time>2026-05-01T02:29:05.009Z</time></trkpt><trkpt lat="43.8491267" lon="8.167227"><ele>0.0</ele><time>2026-05-01T02:29:06.01Z</time></trkpt><trkpt lat="43.8491779" lon="8.1673149"><ele>0.0</ele><time>2026-05-01T02:29:07.01Z</time></trkpt><trkpt lat="43.8492196" lon="8.1674103"><ele>0.0</ele><time>2026-05-01T02:29:08.01Z</time></trkpt><trkpt lat="43.8492623" lon="8.1675029"><ele>0.0</ele><time>2026-05-01T02:29:09.01Z</time></trkpt><trkpt lat="43.8493099" lon="8.1675946"><ele>0.0</ele><time>2026-05-01T02:29:10.009Z</time></trkpt><trkpt lat="43.8493584" lon="8.1676831"><ele>0.0</ele><time>2026-05-01T02:29:11.009Z</time></trkpt><trkpt lat="43.8494027" lon="8.1677711"><ele>0.0</ele><time>2026-05-01T02:29:12.009Z</time></trkpt><trkpt lat="43.8494634" lon="8.167855"><ele>0.0</ele><time>2026-05-01T02:29:13.009Z</time></trkpt><trkpt lat="43.8495101" lon="8.1679519"><ele>0.0</ele><time>2026-05-01T02:29:14.009Z</time></trkpt><trkpt lat="43.8495495" lon="8.16804"><ele>0.0</ele><time>2026-05-01T02:29:15.01Z</time></trkpt><trkpt lat="43.8495901" lon="8.1681258"><ele>0.0</ele><time>2026-05-01T02:29:16.01Z</time></trkpt><trkpt lat="43.8496322" lon="8.1682206"><ele>0.0</ele><time>2026-05-01T02:29:17.009Z</time></trkpt><trkpt lat="43.8496761" lon="8.1683122"><ele>0.0</ele><time>2026-05-01T02:29:18.01Z</time></trkpt><trkpt lat="43.8497204" lon="8.1684058"><ele>0.0</ele><time>2026-05-01T02:29:19.009Z</time></trkpt><trkpt lat="43.8497702" lon="8.1684904"><ele>0.0</ele><time>2026-05-01T02:29:20.009Z</time></trkpt><trkpt lat="43.8498132" lon="8.1685835"><ele>0.0</ele><time>2026-05-01T02:29:21.009Z</time></trkpt><trkpt lat="43.8499801" lon="8.1689521"><ele>0.0</ele><time>2026-05-01T02:29:25.009Z</time></trkpt><trkpt lat="43.850022" lon="8.1690477"><ele>0.0</ele><time>2026-05-01T02:29:26.01Z</time></trkpt><trkpt lat="43.8500726" lon="8.1691296"><ele>0.0</ele><time>2026-05-01T02:29:27.01Z</time></trkpt><trkpt lat="43.8501217" lon="8.1692125"><ele>0.0</ele><time>2026-05-01T02:29:28.009Z</time></trkpt><trkpt lat="43.85018" lon="8.1692971"><ele>0.0</ele><time>2026-05-01T02:29:29.009Z</time></trkpt><trkpt lat="43.8502313" lon="8.1693817"><ele>0.0</ele><time>2026-05-01T02:29:30.009Z</time></trkpt><trkpt lat="43.8502818" lon="8.1694681"><ele>0.0</ele><time>2026-05-01T02:29:31.01Z</time></trkpt><trkpt lat="43.8503295" lon="8.169561"><ele>0.0</ele><time>2026-05-01T02:29:32.01Z</time></trkpt><trkpt lat="43.8503754" lon="8.1696556"><ele>0.0</ele><time>2026-05-01T02:29:33.01Z</time></trkpt><trkpt lat="43.850422" lon="8.1697463"><ele>0.0</ele><time>2026-05-01T02:29:34.01Z</time></trkpt><trkpt lat="43.8504686" lon="8.1698318"><ele>0.0</ele><time>2026-05-01T02:29:35.01Z</time></trkpt><trkpt lat="43.8505352" lon="8.1699186"><ele>0.0</ele><time>2026-05-01T02:29:36.009Z</time></trkpt><trkpt lat="43.8505834" lon="8.1700139"><ele>0.0</ele><time>2026-05-01T02:29:37.009Z</time></trkpt><trkpt lat="43.8506129" lon="8.1701147"><ele>0.0</ele><time>2026-05-01T02:29:38.009Z</time></trkpt><trkpt lat="43.8506611" lon="8.170202"><ele>0.0</ele><time>2026-05-01T02:29:39.009Z</time></trkpt><trkpt lat="43.8507185" lon="8.1702861"><ele>0.0</ele><time>2026-05-01T02:29:40.009Z</time></trkpt><trkpt lat="43.8507657" lon="8.1703687"><ele>0.0</ele><time>2026-05-01T02:29:41.01Z</time></trkpt><trkpt lat="43.8508081" lon="8.1704605"><ele>0.0</ele><time>2026-05-01T02:29:42.009Z</time></trkpt><trkpt lat="43.850854" lon="8.1705471"><ele>0.0</ele><time>2026-05-01T02:29:43.01Z</time></trkpt><trkpt lat="43.8508975" lon="8.1706397"><ele>0.0</ele><time>2026-05-01T02:29:44.01Z</time></trkpt><trkpt lat="43.8509807" lon="8.1708245"><ele>0.0</ele><time>2026-05-01T02:29:46.01Z</time></trkpt><trkpt lat="43.8510261" lon="8.1709143"><ele>0.0</ele><time>2026-05-01T02:29:47.009Z</time></trkpt><trkpt lat="43.8510835" lon="8.1710044"><ele>0.0</ele><time>2026-05-01T02:29:48.009Z</time></trkpt><trkpt lat="43.851126" lon="8.1710961"><ele>0.0</ele><time>2026-05-01T02:29:49.009Z</time></trkpt><trkpt lat="43.8511636" lon="8.1711962"><ele>0.0</ele><time>2026-05-01T02:29:50.009Z</time></trkpt><trkpt lat="43.8512055" lon="8.1712967"><ele>0.0</ele><time>2026-05-01T02:29:51.01Z</time></trkpt><trkpt lat="43.8512489" lon="8.1713927"><ele>0.0</ele><time>2026-05-01T02:29:52.01Z</time></trkpt><trkpt lat="43.8512928" lon="8.1714839"><ele>0.0</ele><time>2026-05-01T02:29:53.009Z</time></trkpt><trkpt lat="43.8513355" lon="8.1715735"><ele>0.0</ele><time>2026-05-01T02:29:54.01Z</time></trkpt><trkpt lat="43.851383" lon="8.1716579"><ele>0.0</ele><time>2026-05-01T02:29:55.009Z</time></trkpt><trkpt lat="43.8514299" lon="8.1717485"><ele>0.0</ele><time>2026-05-01T02:29:56.009Z</time></trkpt><trkpt lat="43.8514786" lon="8.1718436"><ele>0.0</ele><time>2026-05-01T02:29:57.009Z</time></trkpt><trkpt lat="43.851525" lon="8.1719335"><ele>0.0</ele><time>2026-05-01T02:29:58.009Z</time></trkpt><trkpt lat="43.8515732" lon="8.1720202"><ele>0.0</ele><time>2026-05-01T02:29:59.01Z</time></trkpt><trkpt lat="43.8516182" lon="8.1721144"><ele>0.0</ele><time>2026-05-01T02:30:00.009Z</time></trkpt><trkpt lat="43.8516588" lon="8.1722037"><ele>0.0</ele><time>2026-05-01T02:30:01.01Z</time></trkpt><trkpt lat="43.8517089" lon="8.1722935"><ele>0.0</ele><time>2026-05-01T02:30:02.01Z</time></trkpt><trkpt lat="43.8517561" lon="8.1723797"><ele>0.0</ele><time>2026-05-01T02:30:03.009Z</time></trkpt><trkpt lat="43.8517993" lon="8.1724609"><ele>0.0</ele><time>2026-05-01T02:30:04.009Z</time></trkpt><trkpt lat="43.8518408" lon="8.1725572"><ele>0.0</ele><time>2026-05-01T02:30:05.01Z</time></trkpt><trkpt lat="43.8519379" lon="8.1727427"><ele>0.0</ele><time>2026-05-01T02:30:07.009Z</time></trkpt><trkpt lat="43.8519809" lon="8.1728358"><ele>0.0</ele><time>2026-05-01T02:30:08.01Z</time></trkpt><trkpt lat="43.852035" lon="8.1729222"><ele>0.0</ele><time>2026-05-01T02:30:09.009Z</time></trkpt><trkpt lat="43.852082" lon="8.1730145"><ele>0.0</ele><time>2026-05-01T02:30:10.009Z</time></trkpt><trkpt lat="43.8521269" lon="8.1731022"><ele>0.0</ele><time>2026-05-01T02:30:11.01Z</time></trkpt><trkpt lat="43.8521829" lon="8.1731887"><ele>0.0</ele><time>2026-05-01T02:30:12.01Z</time></trkpt><trkpt lat="43.8522312" lon="8.173284"><ele>0.0</ele><time>2026-05-01T02:30:13.009Z</time></trkpt><trkpt lat="43.8522765" lon="8.1733765"><ele>0.0</ele><time>2026-05-01T02:30:14.009Z</time></trkpt><trkpt lat="43.8523228" lon="8.1734699"><ele>0.0</ele><time>2026-05-01T02:30:15.009Z</time></trkpt><trkpt lat="43.8523677" lon="8.1735589"><ele>0.0</ele><time>2026-05-01T02:30:16.009Z</time></trkpt><trkpt lat="43.8524119" lon="8.1736484"><ele>0.0</ele><time>2026-05-01T02:30:17.009Z</time></trkpt><trkpt lat="43.8524608" lon="8.1737345"><ele>0.0</ele><time>2026-05-01T02:30:18.01Z</time></trkpt><trkpt lat="43.8524972" lon="8.1738235"><ele>0.0</ele><time>2026-05-01T02:30:19.009Z</time></trkpt><trkpt lat="43.8525367" lon="8.1739133"><ele>0.0</ele><time>2026-05-01T02:30:20.009Z</time></trkpt><trkpt lat="43.8525746" lon="8.1740061"><ele>0.0</ele><time>2026-05-01T02:30:21.01Z</time></trkpt><trkpt lat="43.8526154" lon="8.1740997"><ele>0.0</ele><time>2026-05-01T02:30:22.01Z</time></trkpt><trkpt lat="43.8526615" lon="8.1741903"><ele>0.0</ele><time>2026-05-01T02:30:23.01Z</time></trkpt><trkpt lat="43.8527079" lon="8.1742803"><ele>0.0</ele><time>2026-05-01T02:30:24.009Z</time></trkpt><trkpt lat="43.8527478" lon="8.1743701"><ele>0.0</ele><time>2026-05-01T02:30:25.009Z</time></trkpt><trkpt lat="43.8527891" lon="8.1744616"><ele>0.0</ele><time>2026-05-01T02:30:26.009Z</time></trkpt><trkpt lat="43.8528717" lon="8.1746494"><ele>0.0</ele><time>2026-05-01T02:30:28.009Z</time></trkpt><trkpt lat="43.8529702" lon="8.1748293"><ele>0.0</ele><time>2026-05-01T02:30:30.009Z</time></trkpt><trkpt lat="43.853014" lon="8.1749214"><ele>0.0</ele><time>2026-05-01T02:30:31.01Z</time></trkpt><trkpt lat="43.8530572" lon="8.1750188"><ele>0.0</ele><time>2026-05-01T02:30:32.01Z</time></trkpt><trkpt lat="43.8531033" lon="8.17511"><ele>0.0</ele><time>2026-05-01T02:30:33.01Z</time></trkpt><trkpt lat="43.8531512" lon="8.1751989"><ele>0.0</ele><time>2026-05-01T02:30:34.009Z</time></trkpt><trkpt lat="43.8531914" lon="8.1752896"><ele>0.0</ele><time>2026-05-01T02:30:35.009Z</time></trkpt><trkpt lat="43.8532447" lon="8.1753763"><ele>0.0</ele><time>2026-05-01T02:30:36.01Z</time></trkpt><trkpt lat="43.8532996" lon="8.1754553"><ele>0.0</ele><time>2026-05-01T02:30:37.009Z</time></trkpt><trkpt lat="43.8533524" lon="8.1755419"><ele>0.0</ele><time>2026-05-01T02:30:38.009Z</time></trkpt><trkpt lat="43.8533959" lon="8.1756326"><ele>0.0</ele><time>2026-05-01T02:30:39.01Z</time></trkpt><trkpt lat="43.8534404" lon="8.1757259"><ele>0.0</ele><time>2026-05-01T02:30:40.009Z</time></trkpt><trkpt lat="43.8534826" lon="8.1758193"><ele>0.0</ele><time>2026-05-01T02:30:41.009Z</time></trkpt><trkpt lat="43.8535273" lon="8.1759125"><ele>0.0</ele><time>2026-05-01T02:30:42.01Z</time></trkpt><trkpt lat="43.8535853" lon="8.1759956"><ele>0.0</ele><time>2026-05-01T02:30:43.009Z</time></trkpt><trkpt lat="43.8536383" lon="8.1760827"><ele>0.0</ele><time>2026-05-01T02:30:44.01Z</time></trkpt><trkpt lat="43.8536879" lon="8.1761676"><ele>0.0</ele><time>2026-05-01T02:30:45.01Z</time></trkpt><trkpt lat="43.8537309" lon="8.1762578"><ele>0.0</ele><time>2026-05-01T02:30:46.01Z</time></trkpt><trkpt lat="43.8537757" lon="8.1763453"><ele>0.0</ele><time>2026-05-01T02:30:47.01Z</time></trkpt><trkpt lat="43.8538219" lon="8.1764351"><ele>0.0</ele><time>2026-05-01T02:30:48.01Z</time></trkpt><trkpt lat="43.8538713" lon="8.1765223"><ele>0.0</ele><time>2026-05-01T02:30:49.009Z</time></trkpt><trkpt lat="43.8539633" lon="8.1766939"><ele>0.0</ele><time>2026-05-01T02:30:51.009Z</time></trkpt><trkpt lat="43.8540216" lon="8.176776"><ele>0.0</ele><time>2026-05-01T02:30:52.009Z</time></trkpt><trkpt lat="43.8540629" lon="8.1768649"><ele>0.0</ele><time>2026-05-01T02:30:53.009Z</time></trkpt><trkpt lat="43.8541082" lon="8.176951"><ele>0.0</ele><time>2026-05-01T02:30:54.01Z</time></trkpt><trkpt lat="43.8541534" lon="8.1770413"><ele>0.0</ele><time>2026-05-01T02:30:55.009Z</time></trkpt><trkpt lat="43.8541968" lon="8.1771359"><ele>0.0</ele><time>2026-05-01T02:30:56.01Z</time></trkpt><trkpt lat="43.8542376" lon="8.1772323"><ele>0.0</ele><time>2026-05-01T02:30:57.009Z</time></trkpt><trkpt lat="43.8542806" lon="8.1773244"><ele>0.0</ele><time>2026-05-01T02:30:58.01Z</time></trkpt><trkpt lat="43.8543251" lon="8.1774148"><ele>0.0</ele><time>2026-05-01T02:30:59.01Z</time></trkpt><trkpt lat="43.8544856" lon="8.1776807"><ele>0.0</ele><time>2026-05-01T02:31:02.01Z</time></trkpt><trkpt lat="43.8545318" lon="8.1777713"><ele>0.0</ele><time>2026-05-01T02:31:03.01Z</time></trkpt><trkpt lat="43.8545798" lon="8.17786"><ele>0.0</ele><time>2026-05-01T02:31:04.01Z</time></trkpt><trkpt lat="43.8546259" lon="8.177945"><ele>0.0</ele><time>2026-05-01T02:31:05.01Z</time></trkpt><trkpt lat="43.854674" lon="8.1780344"><ele>0.0</ele><time>2026-05-01T02:31:06.01Z</time></trkpt><trkpt lat="43.8547134" lon="8.1781259"><ele>0.0</ele><time>2026-05-01T02:31:07.009Z</time></trkpt><trkpt lat="43.8547766" lon="8.1782079"><ele>0.0</ele><time>2026-05-01T02:31:08.009Z</time></trkpt><trkpt lat="43.8548277" lon="8.1782967"><ele>0.0</ele><time>2026-05-01T02:31:09.009Z</time></trkpt><trkpt lat="43.8548748" lon="8.1783868"><ele>0.0</ele><time>2026-05-01T02:31:10.01Z</time></trkpt><trkpt lat="43.8549639" lon="8.178564"><ele>0.0</ele><time>2026-05-01T02:31:12.01Z</time></trkpt><trkpt lat="43.8550124" lon="8.1786455"><ele>0.0</ele><time>2026-05-01T02:31:13.009Z</time></trkpt><trkpt lat="43.8550559" lon="8.1787302"><ele>0.0</ele><time>2026-05-01T02:31:14.009Z</time></trkpt><trkpt lat="43.8551022" lon="8.1788238"><ele>0.0</ele><time>2026-05-01T02:31:15.009Z</time></trkpt><trkpt lat="43.8551443" lon="8.1789135"><ele>0.0</ele><time>2026-05-01T02:31:16.009Z</time></trkpt><trkpt lat="43.8551926" lon="8.1790007"><ele>0.0</ele><time>2026-05-01T02:31:17.01Z</time></trkpt><trkpt lat="43.8552311" lon="8.1791016"><ele>0.0</ele><time>2026-05-01T02:31:18.01Z</time></trkpt><trkpt lat="43.8552625" lon="8.1792006"><ele>0.0</ele><time>2026-05-01T02:31:19.01Z</time></trkpt><trkpt lat="43.8552866" lon="8.1793014"><ele>0.0</ele><time>2026-05-01T02:31:20.009Z</time></trkpt><trkpt lat="43.8553255" lon="8.179392"><ele>0.0</ele><time>2026-05-01T02:31:21.01Z</time></trkpt><trkpt lat="43.8553729" lon="8.179483"><ele>0.0</ele><time>2026-05-01T02:31:22.009Z</time></trkpt><trkpt lat="43.8554139" lon="8.1795804"><ele>0.0</ele><time>2026-05-01T02:31:23.01Z</time></trkpt><trkpt lat="43.8554631" lon="8.1796755"><ele>0.0</ele><time>2026-05-01T02:31:24.01Z</time></trkpt><trkpt lat="43.8555059" lon="8.1797676"><ele>0.0</ele><time>2026-05-01T02:31:25.01Z</time></trkpt><trkpt lat="43.8555529" lon="8.179858"><ele>0.0</ele><time>2026-05-01T02:31:26.009Z</time></trkpt><trkpt lat="43.8555999" lon="8.1799499"><ele>0.0</ele><time>2026-05-01T02:31:27.01Z</time></trkpt><trkpt lat="43.8556435" lon="8.1800384"><ele>0.0</ele><time>2026-05-01T02:31:28.01Z</time></trkpt><trkpt lat="43.8556902" lon="8.180128"><ele>0.0</ele><time>2026-05-01T02:31:29.009Z</time></trkpt><trkpt lat="43.8557309" lon="8.1802254"><ele>0.0</ele><time>2026-05-01T02:31:30.01Z</time></trkpt><trkpt lat="43.8557707" lon="8.1803182"><ele>0.0</ele><time>2026-05-01T02:31:31.009Z</time></trkpt><trkpt lat="43.8558195" lon="8.1804057"><ele>0.0</ele><time>2026-05-01T02:31:32.009Z</time></trkpt><trkpt lat="43.8559379" lon="8.1806843"><ele>0.0</ele><time>2026-05-01T02:31:35.009Z</time></trkpt><trkpt lat="43.855975" lon="8.1807775"><ele>0.0</ele><time>2026-05-01T02:31:36.009Z</time></trkpt><trkpt lat="43.8560141" lon="8.1808741"><ele>0.0</ele><time>2026-05-01T02:31:37.01Z</time></trkpt><trkpt lat="43.8560613" lon="8.1809639"><ele>0.0</ele><time>2026-05-01T02:31:38.01Z</time></trkpt><trkpt lat="43.8561046" lon="8.1810522"><ele>0.0</ele><time>2026-05-01T02:31:39.01Z</time></trkpt><trkpt lat="43.8561501" lon="8.18114"><ele>0.0</ele><time>2026-05-01T02:31:40.01Z</time></trkpt><trkpt lat="43.8561984" lon="8.1812281"><ele>0.0</ele><time>2026-05-01T02:31:41.009Z</time></trkpt><trkpt lat="43.8562442" lon="8.1813164"><ele>0.0</ele><time>2026-05-01T02:31:42.009Z</time></trkpt><trkpt lat="43.8562902" lon="8.1814095"><ele>0.0</ele><time>2026-05-01T02:31:43.009Z</time></trkpt><trkpt lat="43.8563351" lon="8.1815014"><ele>0.0</ele><time>2026-05-01T02:31:44.01Z</time></trkpt><trkpt lat="43.8563801" lon="8.1815917"><ele>0.0</ele><time>2026-05-01T02:31:45.009Z</time></trkpt><trkpt lat="43.8564249" lon="8.1816819"><ele>0.0</ele><time>2026-05-01T02:31:46.009Z</time></trkpt><trkpt lat="43.8564743" lon="8.1817717"><ele>0.0</ele><time>2026-05-01T02:31:47.009Z</time></trkpt><trkpt lat="43.8565177" lon="8.1818612"><ele>0.0</ele><time>2026-05-01T02:31:48.01Z</time></trkpt><trkpt lat="43.8565634" lon="8.1819514"><ele>0.0</ele><time>2026-05-01T02:31:49.009Z</time></trkpt><trkpt lat="43.8566117" lon="8.1820387"><ele>0.0</ele><time>2026-05-01T02:31:50.01Z</time></trkpt><trkpt lat="43.8566571" lon="8.1821326"><ele>0.0</ele><time>2026-05-01T02:31:51.01Z</time></trkpt><trkpt lat="43.8567104" lon="8.182223"><ele>0.0</ele><time>2026-05-01T02:31:52.009Z</time></trkpt><trkpt lat="43.8567783" lon="8.1823002"><ele>0.0</ele><time>2026-05-01T02:31:53.009Z</time></trkpt><trkpt lat="43.8568294" lon="8.1823841"><ele>0.0</ele><time>2026-05-01T02:31:54.009Z</time></trkpt><trkpt lat="43.8569456" lon="8.1825521"><ele>0.0</ele><time>2026-05-01T02:31:56.009Z</time></trkpt><trkpt lat="43.8569974" lon="8.1826389"><ele>0.0</ele><time>2026-05-01T02:31:57.009Z</time></trkpt><trkpt lat="43.8570591" lon="8.1827182"><ele>0.0</ele><time>2026-05-01T02:31:58.01Z</time></trkpt><trkpt lat="43.8571001" lon="8.1828107"><ele>0.0</ele><time>2026-05-01T02:31:59.009Z</time></trkpt><trkpt lat="43.8571385" lon="8.1829084"><ele>0.0</ele><time>2026-05-01T02:32:00.009Z</time></trkpt><trkpt lat="43.8571732" lon="8.1830061"><ele>0.0</ele><time>2026-05-01T02:32:01.01Z</time></trkpt><trkpt lat="43.8572066" lon="8.1830957"><ele>0.0</ele><time>2026-05-01T02:32:02.01Z</time></trkpt><trkpt lat="43.8572485" lon="8.1831895"><ele>0.0</ele><time>2026-05-01T02:32:03.009Z</time></trkpt><trkpt lat="43.8573175" lon="8.1832688"><ele>0.0</ele><time>2026-05-01T02:32:04.01Z</time></trkpt><trkpt lat="43.8573806" lon="8.1833483"><ele>0.0</ele><time>2026-05-01T02:32:05.009Z</time></trkpt><trkpt lat="43.8574768" lon="8.1835228"><ele>0.0</ele><time>2026-05-01T02:32:07.01Z</time></trkpt><trkpt lat="43.8575222" lon="8.1836112"><ele>0.0</ele><time>2026-05-01T02:32:08.009Z</time></trkpt><trkpt lat="43.8575434" lon="8.1837109"><ele>0.0</ele><time>2026-05-01T02:32:09.008Z</time></trkpt><trkpt lat="43.8575884" lon="8.1838071"><ele>0.0</ele><time>2026-05-01T02:32:10.009Z</time></trkpt><trkpt lat="43.8576265" lon="8.1838994"><ele>0.0</ele><time>2026-05-01T02:32:11.009Z</time></trkpt><trkpt lat="43.8576702" lon="8.1839916"><ele>0.0</ele><time>2026-05-01T02:32:12.008Z</time></trkpt><trkpt lat="43.8577177" lon="8.1840775"><ele>0.0</ele><time>2026-05-01T02:32:13.008Z</time></trkpt><trkpt lat="43.857761" lon="8.184172"><ele>0.0</ele><time>2026-05-01T02:32:14.008Z</time></trkpt><trkpt lat="43.8578023" lon="8.1842632"><ele>0.0</ele><time>2026-05-01T02:32:15.009Z</time></trkpt><trkpt lat="43.8579112" lon="8.1844207"><ele>0.0</ele><time>2026-05-01T02:32:17.009Z</time></trkpt><trkpt lat="43.8579571" lon="8.1845109"><ele>0.0</ele><time>2026-05-01T02:32:18.009Z</time></trkpt><trkpt lat="43.8580021" lon="8.1846025"><ele>0.0</ele><time>2026-05-01T02:32:19.009Z</time></trkpt><trkpt lat="43.8580429" lon="8.1847027"><ele>0.0</ele><time>2026-05-01T02:32:20.009Z</time></trkpt><trkpt lat="43.8580802" lon="8.184797"><ele>0.0</ele><time>2026-05-01T02:32:21.008Z</time></trkpt><trkpt lat="43.8581338" lon="8.1848838"><ele>0.0</ele><time>2026-05-01T02:32:22.009Z</time></trkpt><trkpt lat="43.8581843" lon="8.184969"><ele>0.0</ele><time>2026-05-01T02:32:23.009Z</time></trkpt><trkpt lat="43.8582436" lon="8.1850493"><ele>0.0</ele><time>2026-05-01T02:32:24.008Z</time></trkpt><trkpt lat="43.8582895" lon="8.1851389"><ele>0.0</ele><time>2026-05-01T02:32:25.008Z</time></trkpt><trkpt lat="43.8583442" lon="8.185225"><ele>0.0</ele><time>2026-05-01T02:32:26.008Z</time></trkpt><trkpt lat="43.8583992" lon="8.1853103"><ele>0.0</ele><time>2026-05-01T02:32:27.009Z</time></trkpt><trkpt lat="43.858447" lon="8.1854067"><ele>0.0</ele><time>2026-05-01T02:32:28.009Z</time></trkpt><trkpt lat="43.858488" lon="8.1854979"><ele>0.0</ele><time>2026-05-01T02:32:29.009Z</time></trkpt><trkpt lat="43.8585325" lon="8.1855851"><ele>0.0</ele><time>2026-05-01T02:32:30.008Z</time></trkpt><trkpt lat="43.8585742" lon="8.1856748"><ele>0.0</ele><time>2026-05-01T02:32:31.009Z</time></trkpt><trkpt lat="43.8586183" lon="8.1857721"><ele>0.0</ele><time>2026-05-01T02:32:32.009Z</time></trkpt><trkpt lat="43.8586721" lon="8.1858558"><ele>0.0</ele><time>2026-05-01T02:32:33.009Z</time></trkpt><trkpt lat="43.858717" lon="8.1859421"><ele>0.0</ele><time>2026-05-01T02:32:34.009Z</time></trkpt><trkpt lat="43.8587638" lon="8.1860328"><ele>0.0</ele><time>2026-05-01T02:32:35.008Z</time></trkpt><trkpt lat="43.8588647" lon="8.186202"><ele>0.0</ele><time>2026-05-01T02:32:37.009Z</time></trkpt><trkpt lat="43.8589104" lon="8.1862882"><ele>0.0</ele><time>2026-05-01T02:32:38.008Z</time></trkpt><trkpt lat="43.8590015" lon="8.1864698"><ele>0.0</ele><time>2026-05-01T02:32:40.009Z</time></trkpt><trkpt lat="43.8590499" lon="8.1865612"><ele>0.0</ele><time>2026-05-01T02:32:41.008Z</time></trkpt><trkpt lat="43.8590954" lon="8.1866503"><ele>0.0</ele><time>2026-05-01T02:32:42.008Z</time></trkpt><trkpt lat="43.8591408" lon="8.1867352"><ele>0.0</ele><time>2026-05-01T02:32:43.008Z</time></trkpt><trkpt lat="43.8591868" lon="8.186822"><ele>0.0</ele><time>2026-05-01T02:32:44.009Z</time></trkpt><trkpt lat="43.8592535" lon="8.1868987"><ele>0.0</ele><time>2026-05-01T02:32:45.009Z</time></trkpt><trkpt lat="43.8593047" lon="8.1869867"><ele>0.0</ele><time>2026-05-01T02:32:46.008Z</time></trkpt><trkpt lat="43.8593741" lon="8.1870568"><ele>0.0</ele><time>2026-05-01T02:32:47.008Z</time></trkpt><trkpt lat="43.8594316" lon="8.1871367"><ele>0.0</ele><time>2026-05-01T02:32:48.008Z</time></trkpt><trkpt lat="43.8594812" lon="8.1872223"><ele>0.0</ele><time>2026-05-01T02:32:49.009Z</time></trkpt><trkpt lat="43.8595286" lon="8.1873085"><ele>0.0</ele><time>2026-05-01T02:32:50.009Z</time></trkpt><trkpt lat="43.8595711" lon="8.1873968"><ele>0.0</ele><time>2026-05-01T02:32:51.009Z</time></trkpt><trkpt lat="43.8596189" lon="8.1874858"><ele>0.0</ele><time>2026-05-01T02:32:52.008Z</time></trkpt><trkpt lat="43.8596645" lon="8.1875699"><ele>0.0</ele><time>2026-05-01T02:32:53.009Z</time></trkpt><trkpt lat="43.859723" lon="8.1876572"><ele>0.0</ele><time>2026-05-01T02:32:54.008Z</time></trkpt><trkpt lat="43.8597718" lon="8.187745"><ele>0.0</ele><time>2026-05-01T02:32:55.008Z</time></trkpt><trkpt lat="43.8598199" lon="8.1878388"><ele>0.0</ele><time>2026-05-01T02:32:56.008Z</time></trkpt><trkpt lat="43.8599123" lon="8.1880132"><ele>0.0</ele><time>2026-05-01T02:32:58.009Z</time></trkpt><trkpt lat="43.859959" lon="8.1880981"><ele>0.0</ele><time>2026-05-01T02:32:59.008Z</time></trkpt><trkpt lat="43.8600102" lon="8.1881892"><ele>0.0</ele><time>2026-05-01T02:33:00.009Z</time></trkpt><trkpt lat="43.8600558" lon="8.1882783"><ele>0.0</ele><time>2026-05-01T02:33:01.009Z</time></trkpt><trkpt lat="43.8601038" lon="8.1883645"><ele>0.0</ele><time>2026-05-01T02:33:02.008Z</time></trkpt><trkpt lat="43.8601451" lon="8.188463"><ele>0.0</ele><time>2026-05-01T02:33:03.009Z</time></trkpt><trkpt lat="43.8602353" lon="8.1886478"><ele>0.0</ele><time>2026-05-01T02:33:05.008Z</time></trkpt><trkpt lat="43.8602819" lon="8.1887421"><ele>0.0</ele><time>2026-05-01T02:33:06.008Z</time></trkpt><trkpt lat="43.8603286" lon="8.1888312"><ele>0.0</ele><time>2026-05-01T02:33:07.008Z</time></trkpt><trkpt lat="43.8603642" lon="8.1889292"><ele>0.0</ele><time>2026-05-01T02:33:08.008Z</time></trkpt><trkpt lat="43.8603965" lon="8.1890346"><ele>0.0</ele><time>2026-05-01T02:33:09.009Z</time></trkpt><trkpt lat="43.8604408" lon="8.1891305"><ele>0.0</ele><time>2026-05-01T02:33:10.009Z</time></trkpt><trkpt lat="43.860483" lon="8.1892207"><ele>0.0</ele><time>2026-05-01T02:33:11.009Z</time></trkpt><trkpt lat="43.8605248" lon="8.1893104"><ele>0.0</ele><time>2026-05-01T02:33:12.008Z</time></trkpt><trkpt lat="43.8605695" lon="8.1894007"><ele>0.0</ele><time>2026-05-01T02:33:13.008Z</time></trkpt><trkpt lat="43.8606206" lon="8.1894887"><ele>0.0</ele><time>2026-05-01T02:33:14.009Z</time></trkpt><trkpt lat="43.8606704" lon="8.1895746"><ele>0.0</ele><time>2026-05-01T02:33:15.009Z</time></trkpt><trkpt lat="43.8607203" lon="8.1896615"><ele>0.0</ele><time>2026-05-01T02:33:16.009Z</time></trkpt><trkpt lat="43.860778" lon="8.1897459"><ele>0.0</ele><time>2026-05-01T02:33:17.009Z</time></trkpt><trkpt lat="43.8608862" lon="8.1899158"><ele>0.0</ele><time>2026-05-01T02:33:19.008Z</time></trkpt><trkpt lat="43.860938" lon="8.1900017"><ele>0.0</ele><time>2026-05-01T02:33:20.009Z</time></trkpt><trkpt lat="43.8609841" lon="8.1900971"><ele>0.0</ele><time>2026-05-01T02:33:21.008Z</time></trkpt><trkpt lat="43.8610335" lon="8.1901876"><ele>0.0</ele><time>2026-05-01T02:33:22.008Z</time></trkpt><trkpt lat="43.8610803" lon="8.1902753"><ele>0.0</ele><time>2026-05-01T02:33:23.008Z</time></trkpt><trkpt lat="43.861121" lon="8.190368"><ele>0.0</ele><time>2026-05-01T02:33:24.009Z</time></trkpt><trkpt lat="43.8611689" lon="8.1904565"><ele>0.0</ele><time>2026-05-01T02:33:25.008Z</time></trkpt><trkpt lat="43.8612139" lon="8.1905465"><ele>0.0</ele><time>2026-05-01T02:33:26.009Z</time></trkpt><trkpt lat="43.861241" lon="8.190647"><ele>0.0</ele><time>2026-05-01T02:33:27.008Z</time></trkpt><trkpt lat="43.861283" lon="8.1907377"><ele>0.0</ele><time>2026-05-01T02:33:28.009Z</time></trkpt><trkpt lat="43.8613343" lon="8.1908296"><ele>0.0</ele><time>2026-05-01T02:33:29.008Z</time></trkpt><trkpt lat="43.8613761" lon="8.1909238"><ele>0.0</ele><time>2026-05-01T02:33:30.008Z</time></trkpt><trkpt lat="43.8614207" lon="8.1910132"><ele>0.0</ele><time>2026-05-01T02:33:31.008Z</time></trkpt><trkpt lat="43.86147" lon="8.1911047"><ele>0.0</ele><time>2026-05-01T02:33:32.009Z</time></trkpt><trkpt lat="43.8615199" lon="8.1911947"><ele>0.0</ele><time>2026-05-01T02:33:33.009Z</time></trkpt><trkpt lat="43.8615701" lon="8.1912817"><ele>0.0</ele><time>2026-05-01T02:33:34.009Z</time></trkpt><trkpt lat="43.8616385" lon="8.1913525"><ele>0.0</ele><time>2026-05-01T02:33:35.008Z</time></trkpt><trkpt lat="43.861693" lon="8.1914325"><ele>0.0</ele><time>2026-05-01T02:33:36.008Z</time></trkpt><trkpt lat="43.861745" lon="8.191517"><ele>0.0</ele><time>2026-05-01T02:33:37.009Z</time></trkpt><trkpt lat="43.8617967" lon="8.1916018"><ele>0.0</ele><time>2026-05-01T02:33:38.008Z</time></trkpt><trkpt lat="43.861895" lon="8.1917766"><ele>0.0</ele><time>2026-05-01T02:33:40.009Z</time></trkpt><trkpt lat="43.8619447" lon="8.1918664"><ele>0.0</ele><time>2026-05-01T02:33:41.008Z</time></trkpt><trkpt lat="43.8619952" lon="8.1919564"><ele>0.0</ele><time>2026-05-01T02:33:42.009Z</time></trkpt><trkpt lat="43.862042" lon="8.192045"><ele>0.0</ele><time>2026-05-01T02:33:43.008Z</time></trkpt><trkpt lat="43.8621797" lon="8.1923121"><ele>0.0</ele><time>2026-05-01T02:33:46.009Z</time></trkpt><trkpt lat="43.8622254" lon="8.1924047"><ele>0.0</ele><time>2026-05-01T02:33:47.008Z</time></trkpt><trkpt lat="43.8622692" lon="8.1924945"><ele>0.0</ele><time>2026-05-01T02:33:48.009Z</time></trkpt><trkpt lat="43.8623123" lon="8.1925851"><ele>0.0</ele><time>2026-05-01T02:33:49.008Z</time></trkpt><trkpt lat="43.8623569" lon="8.1926751"><ele>0.0</ele><time>2026-05-01T02:33:50.008Z</time></trkpt><trkpt lat="43.8624048" lon="8.1927664"><ele>0.0</ele><time>2026-05-01T02:33:51.008Z</time></trkpt><trkpt lat="43.8624522" lon="8.192855"><ele>0.0</ele><time>2026-05-01T02:33:52.008Z</time></trkpt><trkpt lat="43.8625003" lon="8.1929448"><ele>0.0</ele><time>2026-05-01T02:33:53.009Z</time></trkpt><trkpt lat="43.8625502" lon="8.1930332"><ele>0.0</ele><time>2026-05-01T02:33:54.008Z</time></trkpt><trkpt lat="43.8626033" lon="8.1931198"><ele>0.0</ele><time>2026-05-01T02:33:55.008Z</time></trkpt><trkpt lat="43.8626489" lon="8.1932127"><ele>0.0</ele><time>2026-05-01T02:33:56.008Z</time></trkpt><trkpt lat="43.862697" lon="8.1933016"><ele>0.0</ele><time>2026-05-01T02:33:57.008Z</time></trkpt><trkpt lat="43.8627426" lon="8.193387"><ele>0.0</ele><time>2026-05-01T02:33:58.009Z</time></trkpt><trkpt lat="43.8627843" lon="8.193478"><ele>0.0</ele><time>2026-05-01T02:33:59.009Z</time></trkpt><trkpt lat="43.8628674" lon="8.1936645"><ele>0.0</ele><time>2026-05-01T02:34:01.008Z</time></trkpt><trkpt lat="43.8629075" lon="8.1937589"><ele>0.0</ele><time>2026-05-01T02:34:02.009Z</time></trkpt><trkpt lat="43.862952" lon="8.1938514"><ele>0.0</ele><time>2026-05-01T02:34:03.009Z</time></trkpt><trkpt lat="43.8629987" lon="8.1939416"><ele>0.0</ele><time>2026-05-01T02:34:04.008Z</time></trkpt><trkpt lat="43.8630392" lon="8.1940349"><ele>0.0</ele><time>2026-05-01T02:34:05.008Z</time></trkpt><trkpt lat="43.8630791" lon="8.1941252"><ele>0.0</ele><time>2026-05-01T02:34:06.008Z</time></trkpt><trkpt lat="43.8631217" lon="8.1942171"><ele>0.0</ele><time>2026-05-01T02:34:07.008Z</time></trkpt><trkpt lat="43.8631652" lon="8.1943099"><ele>0.0</ele><time>2026-05-01T02:34:08.009Z</time></trkpt><trkpt lat="43.8632072" lon="8.1944017"><ele>0.0</ele><time>2026-05-01T02:34:09.009Z</time></trkpt><trkpt lat="43.8632501" lon="8.194495"><ele>0.0</ele><time>2026-05-01T02:34:10.009Z</time></trkpt><trkpt lat="43.8632967" lon="8.1945876"><ele>0.0</ele><time>2026-05-01T02:34:11.009Z</time></trkpt><trkpt lat="43.8633432" lon="8.1946826"><ele>0.0</ele><time>2026-05-01T02:34:12.009Z</time></trkpt><trkpt lat="43.8633902" lon="8.1947717"><ele>0.0</ele><time>2026-05-01T02:34:13.008Z</time></trkpt><trkpt lat="43.863435" lon="8.1948643"><ele>0.0</ele><time>2026-05-01T02:34:14.009Z</time></trkpt><trkpt lat="43.8634845" lon="8.1949548"><ele>0.0</ele><time>2026-05-01T02:34:15.009Z</time></trkpt><trkpt lat="43.86353" lon="8.1950478"><ele>0.0</ele><time>2026-05-01T02:34:16.009Z</time></trkpt><trkpt lat="43.8636282" lon="8.1952296"><ele>0.0</ele><time>2026-05-01T02:34:18.008Z</time></trkpt><trkpt lat="43.8636799" lon="8.195321"><ele>0.0</ele><time>2026-05-01T02:34:19.008Z</time></trkpt><trkpt lat="43.8637256" lon="8.1954087"><ele>0.0</ele><time>2026-05-01T02:34:20.008Z</time></trkpt><trkpt lat="43.8638182" lon="8.1955812"><ele>0.0</ele><time>2026-05-01T02:34:22.008Z</time></trkpt><trkpt lat="43.8638599" lon="8.1956744"><ele>0.0</ele><time>2026-05-01T02:34:23.009Z</time></trkpt><trkpt lat="43.8639005" lon="8.1957679"><ele>0.0</ele><time>2026-05-01T02:34:24.008Z</time></trkpt><trkpt lat="43.863947" lon="8.1958596"><ele>0.0</ele><time>2026-05-01T02:34:25.008Z</time></trkpt><trkpt lat="43.8639935" lon="8.1959486"><ele>0.0</ele><time>2026-05-01T02:34:26.008Z</time></trkpt><trkpt lat="43.8640283" lon="8.1960398"><ele>0.0</ele><time>2026-05-01T02:34:27.009Z</time></trkpt><trkpt lat="43.8640674" lon="8.1961349"><ele>0.0</ele><time>2026-05-01T02:34:28.009Z</time></trkpt><trkpt lat="43.8641116" lon="8.1962246"><ele>0.0</ele><time>2026-05-01T02:34:29.008Z</time></trkpt><trkpt lat="43.8641522" lon="8.1963202"><ele>0.0</ele><time>2026-05-01T02:34:30.008Z</time></trkpt><trkpt lat="43.8641904" lon="8.1964145"><ele>0.0</ele><time>2026-05-01T02:34:31.008Z</time></trkpt><trkpt lat="43.8642317" lon="8.1965114"><ele>0.0</ele><time>2026-05-01T02:34:32.008Z</time></trkpt><trkpt lat="43.8642779" lon="8.1966098"><ele>0.0</ele><time>2026-05-01T02:34:33.009Z</time></trkpt><trkpt lat="43.8643263" lon="8.1967049"><ele>0.0</ele><time>2026-05-01T02:34:34.009Z</time></trkpt><trkpt lat="43.864379" lon="8.1967898"><ele>0.0</ele><time>2026-05-01T02:34:35.008Z</time></trkpt><trkpt lat="43.8644313" lon="8.1968708"><ele>0.0</ele><time>2026-05-01T02:34:36.008Z</time></trkpt><trkpt lat="43.8644801" lon="8.1969566"><ele>0.0</ele><time>2026-05-01T02:34:37.009Z</time></trkpt><trkpt lat="43.8645282" lon="8.1970449"><ele>0.0</ele><time>2026-05-01T02:34:38.008Z</time></trkpt><trkpt lat="43.8645765" lon="8.1971346"><ele>0.0</ele><time>2026-05-01T02:34:39.008Z</time></trkpt><trkpt lat="43.8646248" lon="8.1972245"><ele>0.0</ele><time>2026-05-01T02:34:40.009Z</time></trkpt><trkpt lat="43.8646732" lon="8.1973161"><ele>0.0</ele><time>2026-05-01T02:34:41.009Z</time></trkpt><trkpt lat="43.8647669" lon="8.1974966"><ele>0.0</ele><time>2026-05-01T02:34:43.008Z</time></trkpt><trkpt lat="43.864812" lon="8.1975892"><ele>0.0</ele><time>2026-05-01T02:34:44.008Z</time></trkpt><trkpt lat="43.8648562" lon="8.1976879"><ele>0.0</ele><time>2026-05-01T02:34:45.008Z</time></trkpt><trkpt lat="43.8649033" lon="8.1977814"><ele>0.0</ele><time>2026-05-01T02:34:46.009Z</time></trkpt><trkpt lat="43.864948" lon="8.1978786"><ele>0.0</ele><time>2026-05-01T02:34:47.008Z</time></trkpt><trkpt lat="43.8649896" lon="8.1979771"><ele>0.0</ele><time>2026-05-01T02:34:48.009Z</time></trkpt><trkpt lat="43.8650282" lon="8.1980785"><ele>0.0</ele><time>2026-05-01T02:34:49.009Z</time></trkpt><trkpt lat="43.8650688" lon="8.198172"><ele>0.0</ele><time>2026-05-01T02:34:50.009Z</time></trkpt><trkpt lat="43.8651093" lon="8.1982676"><ele>0.0</ele><time>2026-05-01T02:34:51.009Z</time></trkpt><trkpt lat="43.8651532" lon="8.1983601"><ele>0.0</ele><time>2026-05-01T02:34:52.008Z</time></trkpt><trkpt lat="43.8651982" lon="8.1984544"><ele>0.0</ele><time>2026-05-01T02:34:53.008Z</time></trkpt><trkpt lat="43.8652474" lon="8.1985413"><ele>0.0</ele><time>2026-05-01T02:34:54.008Z</time></trkpt><trkpt lat="43.8652954" lon="8.1986316"><ele>0.0</ele><time>2026-05-01T02:34:55.008Z</time></trkpt><trkpt lat="43.8653435" lon="8.1987203"><ele>0.0</ele><time>2026-05-01T02:34:56.009Z</time></trkpt><trkpt lat="43.8653901" lon="8.1988101"><ele>0.0</ele><time>2026-05-01T02:34:57.009Z</time></trkpt><trkpt lat="43.8654366" lon="8.1988944"><ele>0.0</ele><time>2026-05-01T02:34:58.008Z</time></trkpt><trkpt lat="43.8654931" lon="8.1989752"><ele>0.0</ele><time>2026-05-01T02:34:59.008Z</time></trkpt><trkpt lat="43.8655405" lon="8.199056"><ele>0.0</ele><time>2026-05-01T02:35:00.008Z</time></trkpt><trkpt lat="43.8655885" lon="8.1991433"><ele>0.0</ele><time>2026-05-01T02:35:01.008Z</time></trkpt><trkpt lat="43.8656368" lon="8.1992314"><ele>0.0</ele><time>2026-05-01T02:35:02.008Z</time></trkpt><trkpt lat="43.8657336" lon="8.1994"><ele>0.0</ele><time>2026-05-01T02:35:04.009Z</time></trkpt><trkpt lat="43.8657822" lon="8.1994835"><ele>0.0</ele><time>2026-05-01T02:35:05.009Z</time></trkpt><trkpt lat="43.865832" lon="8.1995683"><ele>0.0</ele><time>2026-05-01T02:35:06.008Z</time></trkpt><trkpt lat="43.8658817" lon="8.1996563"><ele>0.0</ele><time>2026-05-01T02:35:07.008Z</time></trkpt><trkpt lat="43.8659285" lon="8.1997435"><ele>0.0</ele><time>2026-05-01T02:35:08.009Z</time></trkpt><trkpt lat="43.8659751" lon="8.1998347"><ele>0.0</ele><time>2026-05-01T02:35:09.008Z</time></trkpt><trkpt lat="43.8660205" lon="8.1999233"><ele>0.0</ele><time>2026-05-01T02:35:10.008Z</time></trkpt><trkpt lat="43.8660654" lon="8.2000119"><ele>0.0</ele><time>2026-05-01T02:35:11.008Z</time></trkpt><trkpt lat="43.8661102" lon="8.2001004"><ele>0.0</ele><time>2026-05-01T02:35:12.008Z</time></trkpt><trkpt lat="43.8661522" lon="8.2001918"><ele>0.0</ele><time>2026-05-01T02:35:13.008Z</time></trkpt><trkpt lat="43.8661896" lon="8.2002862"><ele>0.0</ele><time>2026-05-01T02:35:14.008Z</time></trkpt><trkpt lat="43.8662309" lon="8.2003769"><ele>0.0</ele><time>2026-05-01T02:35:15.008Z</time></trkpt><trkpt lat="43.8662753" lon="8.2004679"><ele>0.0</ele><time>2026-05-01T02:35:16.009Z</time></trkpt><trkpt lat="43.8663189" lon="8.2005567"><ele>0.0</ele><time>2026-05-01T02:35:17.008Z</time></trkpt><trkpt lat="43.8663652" lon="8.2006496"><ele>0.0</ele><time>2026-05-01T02:35:18.008Z</time></trkpt><trkpt lat="43.8664088" lon="8.2007388"><ele>0.0</ele><time>2026-05-01T02:35:19.008Z</time></trkpt><trkpt lat="43.8664596" lon="8.2008283"><ele>0.0</ele><time>2026-05-01T02:35:20.008Z</time></trkpt><trkpt lat="43.8665071" lon="8.200921"><ele>0.0</ele><time>2026-05-01T02:35:21.009Z</time></trkpt><trkpt lat="43.8666083" lon="8.2010927"><ele>0.0</ele><time>2026-05-01T02:35:23.008Z</time></trkpt><trkpt lat="43.8667278" lon="8.2012593"><ele>0.0</ele><time>2026-05-01T02:35:25.008Z</time></trkpt><trkpt lat="43.8667739" lon="8.201351"><ele>0.0</ele><time>2026-05-01T02:35:26.009Z</time></trkpt><trkpt lat="43.8668172" lon="8.2014446"><ele>0.0</ele><time>2026-05-01T02:35:27.008Z</time></trkpt><trkpt lat="43.8668591" lon="8.201538"><ele>0.0</ele><time>2026-05-01T02:35:28.008Z</time></trkpt><trkpt lat="43.8669107" lon="8.20163"><ele>0.0</ele><time>2026-05-01T02:35:29.009Z</time></trkpt><trkpt lat="43.8669629" lon="8.2017199"><ele>0.0</ele><time>2026-05-01T02:35:30.009Z</time></trkpt><trkpt lat="43.8670091" lon="8.2018193"><ele>0.0</ele><time>2026-05-01T02:35:31.008Z</time></trkpt><trkpt lat="43.8670497" lon="8.2019116"><ele>0.0</ele><time>2026-05-01T02:35:32.009Z</time></trkpt><trkpt lat="43.8670924" lon="8.2019958"><ele>0.0</ele><time>2026-05-01T02:35:33.008Z</time></trkpt><trkpt lat="43.8671403" lon="8.2020875"><ele>0.0</ele><time>2026-05-01T02:35:34.008Z</time></trkpt><trkpt lat="43.8671813" lon="8.2021805"><ele>0.0</ele><time>2026-05-01T02:35:35.008Z</time></trkpt><trkpt lat="43.8672241" lon="8.2022742"><ele>0.0</ele><time>2026-05-01T02:35:36.008Z</time></trkpt><trkpt lat="43.8672691" lon="8.2023588"><ele>0.0</ele><time>2026-05-01T02:35:37.009Z</time></trkpt><trkpt lat="43.8673182" lon="8.202444"><ele>0.0</ele><time>2026-05-01T02:35:38.008Z</time></trkpt><trkpt lat="43.8673723" lon="8.2025333"><ele>0.0</ele><time>2026-05-01T02:35:39.008Z</time></trkpt><trkpt lat="43.8674228" lon="8.2026245"><ele>0.0</ele><time>2026-05-01T02:35:40.008Z</time></trkpt><trkpt lat="43.8674699" lon="8.2027166"><ele>0.0</ele><time>2026-05-01T02:35:41.008Z</time></trkpt><trkpt lat="43.8675166" lon="8.2028097"><ele>0.0</ele><time>2026-05-01T02:35:42.008Z</time></trkpt><trkpt lat="43.8675622" lon="8.2028999"><ele>0.0</ele><time>2026-05-01T02:35:43.008Z</time></trkpt><trkpt lat="43.8676077" lon="8.2029881"><ele>0.0</ele><time>2026-05-01T02:35:44.009Z</time></trkpt><trkpt lat="43.8677032" lon="8.203165"><ele>0.0</ele><time>2026-05-01T02:35:46.008Z</time></trkpt><trkpt lat="43.8677499" lon="8.2032524"><ele>0.0</ele><time>2026-05-01T02:35:47.008Z</time></trkpt><trkpt lat="43.8678023" lon="8.2033362"><ele>0.0</ele><time>2026-05-01T02:35:48.009Z</time></trkpt><trkpt lat="43.8678484" lon="8.2034222"><ele>0.0</ele><time>2026-05-01T02:35:49.009Z</time></trkpt><trkpt lat="43.8678927" lon="8.2035101"><ele>0.0</ele><time>2026-05-01T02:35:50.009Z</time></trkpt><trkpt lat="43.8679433" lon="8.2035938"><ele>0.0</ele><time>2026-05-01T02:35:51.008Z</time></trkpt><trkpt lat="43.8679908" lon="8.2036785"><ele>0.0</ele><time>2026-05-01T02:35:52.008Z</time></trkpt><trkpt lat="43.868039" lon="8.2037705"><ele>0.0</ele><time>2026-05-01T02:35:53.009Z</time></trkpt><trkpt lat="43.8681315" lon="8.2039536"><ele>0.0</ele><time>2026-05-01T02:35:55.008Z</time></trkpt><trkpt lat="43.8681804" lon="8.2040443"><ele>0.0</ele><time>2026-05-01T02:35:56.008Z</time></trkpt><trkpt lat="43.8682303" lon="8.20413"><ele>0.0</ele><time>2026-05-01T02:35:57.008Z</time></trkpt><trkpt lat="43.8682758" lon="8.2042169"><ele>0.0</ele><time>2026-05-01T02:35:58.008Z</time></trkpt><trkpt lat="43.8683205" lon="8.2043068"><ele>0.0</ele><time>2026-05-01T02:35:59.009Z</time></trkpt><trkpt lat="43.8683656" lon="8.2043984"><ele>0.0</ele><time>2026-05-01T02:36:00.009Z</time></trkpt><trkpt lat="43.8684086" lon="8.2044915"><ele>0.0</ele><time>2026-05-01T02:36:01.008Z</time></trkpt><trkpt lat="43.8684535" lon="8.2045851"><ele>0.0</ele><time>2026-05-01T02:36:02.008Z</time></trkpt><trkpt lat="43.8685" lon="8.2046782"><ele>0.0</ele><time>2026-05-01T02:36:03.008Z</time></trkpt><trkpt lat="43.8685466" lon="8.2047714"><ele>0.0</ele><time>2026-05-01T02:36:04.008Z</time></trkpt><trkpt lat="43.8685936" lon="8.2048633"><ele>0.0</ele><time>2026-05-01T02:36:05.008Z</time></trkpt><trkpt lat="43.8686885" lon="8.2050373"><ele>0.0</ele><time>2026-05-01T02:36:07.008Z</time></trkpt><trkpt lat="43.868735" lon="8.2051242"><ele>0.0</ele><time>2026-05-01T02:36:08.009Z</time></trkpt><trkpt lat="43.8687788" lon="8.2052166"><ele>0.0</ele><time>2026-05-01T02:36:09.008Z</time></trkpt><trkpt lat="43.8688231" lon="8.205314"><ele>0.0</ele><time>2026-05-01T02:36:10.008Z</time></trkpt><trkpt lat="43.8688726" lon="8.2054092"><ele>0.0</ele><time>2026-05-01T02:36:11.009Z</time></trkpt><trkpt lat="43.8689204" lon="8.2054969"><ele>0.0</ele><time>2026-05-01T02:36:12.009Z</time></trkpt><trkpt lat="43.8689669" lon="8.2055854"><ele>0.0</ele><time>2026-05-01T02:36:13.008Z</time></trkpt><trkpt lat="43.8690162" lon="8.2056748"><ele>0.0</ele><time>2026-05-01T02:36:14.008Z</time></trkpt><trkpt lat="43.8690652" lon="8.2057648"><ele>0.0</ele><time>2026-05-01T02:36:15.008Z</time></trkpt><trkpt lat="43.8691077" lon="8.2058519"><ele>0.0</ele><time>2026-05-01T02:36:16.008Z</time></trkpt><trkpt lat="43.8691463" lon="8.2059431"><ele>0.0</ele><time>2026-05-01T02:36:17.009Z</time></trkpt><trkpt lat="43.8691986" lon="8.2060252"><ele>0.0</ele><time>2026-05-01T02:36:18.008Z</time></trkpt><trkpt lat="43.8692446" lon="8.206114"><ele>0.0</ele><time>2026-05-01T02:36:19.008Z</time></trkpt><trkpt lat="43.8692954" lon="8.2062025"><ele>0.0</ele><time>2026-05-01T02:36:20.008Z</time></trkpt><trkpt lat="43.8693389" lon="8.2062918"><ele>0.0</ele><time>2026-05-01T02:36:21.008Z</time></trkpt><trkpt lat="43.8693852" lon="8.2063846"><ele>0.0</ele><time>2026-05-01T02:36:22.008Z</time></trkpt><trkpt lat="43.8694319" lon="8.2064746"><ele>0.0</ele><time>2026-05-01T02:36:23.009Z</time></trkpt><trkpt lat="43.8694828" lon="8.2065652"><ele>0.0</ele><time>2026-05-01T02:36:24.008Z</time></trkpt><trkpt lat="43.869526" lon="8.2066588"><ele>0.0</ele><time>2026-05-01T02:36:25.009Z</time></trkpt><trkpt lat="43.8696127" lon="8.2068404"><ele>0.0</ele><time>2026-05-01T02:36:27.008Z</time></trkpt><trkpt lat="43.8697036" lon="8.2070184"><ele>0.0</ele><time>2026-05-01T02:36:29.009Z</time></trkpt><trkpt lat="43.869747" lon="8.2071096"><ele>0.0</ele><time>2026-05-01T02:36:30.009Z</time></trkpt><trkpt lat="43.8697903" lon="8.207197"><ele>0.0</ele><time>2026-05-01T02:36:31.008Z</time></trkpt><trkpt lat="43.8698397" lon="8.2072865"><ele>0.0</ele><time>2026-05-01T02:36:32.008Z</time></trkpt><trkpt lat="43.8698941" lon="8.2073777"><ele>0.0</ele><time>2026-05-01T02:36:33.008Z</time></trkpt><trkpt lat="43.8699516" lon="8.2074611"><ele>0.0</ele><time>2026-05-01T02:36:34.009Z</time></trkpt><trkpt lat="43.8700028" lon="8.2075486"><ele>0.0</ele><time>2026-05-01T02:36:35.009Z</time></trkpt><trkpt lat="43.870053" lon="8.2076382"><ele>0.0</ele><time>2026-05-01T02:36:36.008Z</time></trkpt><trkpt lat="43.8700986" lon="8.2077256"><ele>0.0</ele><time>2026-05-01T02:36:37.009Z</time></trkpt><trkpt lat="43.8701466" lon="8.2078184"><ele>0.0</ele><time>2026-05-01T02:36:38.009Z</time></trkpt><trkpt lat="43.8701993" lon="8.2079028"><ele>0.0</ele><time>2026-05-01T02:36:39.009Z</time></trkpt><trkpt lat="43.8702527" lon="8.2079841"><ele>0.0</ele><time>2026-05-01T02:36:40.009Z</time></trkpt><trkpt lat="43.8703007" lon="8.20807"><ele>0.0</ele><time>2026-05-01T02:36:41.008Z</time></trkpt><trkpt lat="43.8703517" lon="8.2081548"><ele>0.0</ele><time>2026-05-01T02:36:42.008Z</time></trkpt><trkpt lat="43.8704032" lon="8.2082441"><ele>0.0</ele><time>2026-05-01T02:36:43.008Z</time></trkpt><trkpt lat="43.8704536" lon="8.2083386"><ele>0.0</ele><time>2026-05-01T02:36:44.008Z</time></trkpt><trkpt lat="43.870502" lon="8.2084291"><ele>0.0</ele><time>2026-05-01T02:36:45.008Z</time></trkpt><trkpt lat="43.870557" lon="8.2085111"><ele>0.0</ele><time>2026-05-01T02:36:46.009Z</time></trkpt><trkpt lat="43.8706039" lon="8.2085991"><ele>0.0</ele><time>2026-05-01T02:36:47.009Z</time></trkpt><trkpt lat="43.8706521" lon="8.2086916"><ele>0.0</ele><time>2026-05-01T02:36:48.008Z</time></trkpt><trkpt lat="43.8707453" lon="8.2088557"><ele>0.0</ele><time>2026-05-01T02:36:50.009Z</time></trkpt><trkpt lat="43.8707939" lon="8.2089473"><ele>0.0</ele><time>2026-05-01T02:36:51.007Z</time></trkpt><trkpt lat="43.8708408" lon="8.2090406"><ele>0.0</ele><time>2026-05-01T02:36:52.007Z</time></trkpt><trkpt lat="43.87089" lon="8.2091255"><ele>0.0</ele><time>2026-05-01T02:36:53.007Z</time></trkpt><trkpt lat="43.8709394" lon="8.2092175"><ele>0.0</ele><time>2026-05-01T02:36:54.008Z</time></trkpt><trkpt lat="43.8709884" lon="8.2093075"><ele>0.0</ele><time>2026-05-01T02:36:55.007Z</time></trkpt><trkpt lat="43.8710326" lon="8.2093968"><ele>0.0</ele><time>2026-05-01T02:36:56.007Z</time></trkpt><trkpt lat="43.871074" lon="8.2094926"><ele>0.0</ele><time>2026-05-01T02:36:57.007Z</time></trkpt><trkpt lat="43.8711173" lon="8.2095804"><ele>0.0</ele><time>2026-05-01T02:36:58.008Z</time></trkpt><trkpt lat="43.8712073" lon="8.2097601"><ele>0.0</ele><time>2026-05-01T02:37:00.007Z</time></trkpt><trkpt lat="43.8712571" lon="8.2098452"><ele>0.0</ele><time>2026-05-01T02:37:01.007Z</time></trkpt><trkpt lat="43.8713054" lon="8.2099274"><ele>0.0</ele><time>2026-05-01T02:37:02.008Z</time></trkpt><trkpt lat="43.871352" lon="8.2100151"><ele>0.0</ele><time>2026-05-01T02:37:03.007Z</time></trkpt><trkpt lat="43.8714002" lon="8.2101004"><ele>0.0</ele><time>2026-05-01T02:37:04.007Z</time></trkpt><trkpt lat="43.8714907" lon="8.210278"><ele>0.0</ele><time>2026-05-01T02:37:06.007Z</time></trkpt><trkpt lat="43.8715298" lon="8.2103809"><ele>0.0</ele><time>2026-05-01T02:37:07.008Z</time></trkpt><trkpt lat="43.8715734" lon="8.2104815"><ele>0.0</ele><time>2026-05-01T02:37:08.007Z</time></trkpt><trkpt lat="43.8716259" lon="8.2105743"><ele>0.0</ele><time>2026-05-01T02:37:09.008Z</time></trkpt><trkpt lat="43.8717283" lon="8.2107594"><ele>0.0</ele><time>2026-05-01T02:37:11.008Z</time></trkpt><trkpt lat="43.8717782" lon="8.2108496"><ele>0.0</ele><time>2026-05-01T02:37:12.007Z</time></trkpt><trkpt lat="43.8718254" lon="8.2109381"><ele>0.0</ele><time>2026-05-01T02:37:13.008Z</time></trkpt><trkpt lat="43.8718742" lon="8.2110249"><ele>0.0</ele><time>2026-05-01T02:37:14.008Z</time></trkpt><trkpt lat="43.8719158" lon="8.2111142"><ele>0.0</ele><time>2026-05-01T02:37:15.008Z</time></trkpt><trkpt lat="43.871955" lon="8.2112095"><ele>0.0</ele><time>2026-05-01T02:37:16.007Z</time></trkpt><trkpt lat="43.8719985" lon="8.2113008"><ele>0.0</ele><time>2026-05-01T02:37:17.008Z</time></trkpt><trkpt lat="43.8720473" lon="8.2113926"><ele>0.0</ele><time>2026-05-01T02:37:18.008Z</time></trkpt><trkpt lat="43.8720932" lon="8.2114851"><ele>0.0</ele><time>2026-05-01T02:37:19.007Z</time></trkpt><trkpt lat="43.872141" lon="8.2115729"><ele>0.0</ele><time>2026-05-01T02:37:20.008Z</time></trkpt><trkpt lat="43.8721909" lon="8.2116595"><ele>0.0</ele><time>2026-05-01T02:37:21.007Z</time></trkpt><trkpt lat="43.8722341" lon="8.2117529"><ele>0.0</ele><time>2026-05-01T02:37:22.008Z</time></trkpt><trkpt lat="43.8722834" lon="8.2118417"><ele>0.0</ele><time>2026-05-01T02:37:23.008Z</time></trkpt><trkpt lat="43.8723349" lon="8.2119256"><ele>0.0</ele><time>2026-05-01T02:37:24.007Z</time></trkpt><trkpt lat="43.8723919" lon="8.2120034"><ele>0.0</ele><time>2026-05-01T02:37:25.007Z</time></trkpt><trkpt lat="43.8724387" lon="8.2120929"><ele>0.0</ele><time>2026-05-01T02:37:26.007Z</time></trkpt><trkpt lat="43.8724937" lon="8.2121786"><ele>0.0</ele><time>2026-05-01T02:37:27.007Z</time></trkpt><trkpt lat="43.8725447" lon="8.2122662"><ele>0.0</ele><time>2026-05-01T02:37:28.008Z</time></trkpt><trkpt lat="43.8725922" lon="8.2123574"><ele>0.0</ele><time>2026-05-01T02:37:29.008Z</time></trkpt><trkpt lat="43.8726404" lon="8.2124495"><ele>0.0</ele><time>2026-05-01T02:37:30.008Z</time></trkpt><trkpt lat="43.8726929" lon="8.2125356"><ele>0.0</ele><time>2026-05-01T02:37:31.007Z</time></trkpt><trkpt lat="43.8728226" lon="8.2128013"><ele>0.0</ele><time>2026-05-01T02:37:34.007Z</time></trkpt><trkpt lat="43.8728727" lon="8.21289"><ele>0.0</ele><time>2026-05-01T02:37:35.007Z</time></trkpt><trkpt lat="43.8729227" lon="8.2129728"><ele>0.0</ele><time>2026-05-01T02:37:36.007Z</time></trkpt><trkpt lat="43.8729732" lon="8.2130583"><ele>0.0</ele><time>2026-05-01T02:37:37.008Z</time></trkpt><trkpt lat="43.8730233" lon="8.2131435"><ele>0.0</ele><time>2026-05-01T02:37:38.008Z</time></trkpt><trkpt lat="43.8730745" lon="8.2132346"><ele>0.0</ele><time>2026-05-01T02:37:39.008Z</time></trkpt><trkpt lat="43.8731278" lon="8.2133192"><ele>0.0</ele><time>2026-05-01T02:37:40.008Z</time></trkpt><trkpt lat="43.8731769" lon="8.213404"><ele>0.0</ele><time>2026-05-01T02:37:41.007Z</time></trkpt><trkpt lat="43.8732236" lon="8.2134985"><ele>0.0</ele><time>2026-05-01T02:37:42.007Z</time></trkpt><trkpt lat="43.8732773" lon="8.2135911"><ele>0.0</ele><time>2026-05-01T02:37:43.007Z</time></trkpt><trkpt lat="43.8733283" lon="8.2136784"><ele>0.0</ele><time>2026-05-01T02:37:44.007Z</time></trkpt><trkpt lat="43.8733796" lon="8.2137641"><ele>0.0</ele><time>2026-05-01T02:37:45.008Z</time></trkpt><trkpt lat="43.87343" lon="8.2138491"><ele>0.0</ele><time>2026-05-01T02:37:46.007Z</time></trkpt><trkpt lat="43.8734815" lon="8.2139369"><ele>0.0</ele><time>2026-05-01T02:37:47.007Z</time></trkpt><trkpt lat="43.8735332" lon="8.2140231"><ele>0.0</ele><time>2026-05-01T02:37:48.007Z</time></trkpt><trkpt lat="43.8735791" lon="8.2141169"><ele>0.0</ele><time>2026-05-01T02:37:49.007Z</time></trkpt><trkpt lat="43.8736239" lon="8.2142126"><ele>0.0</ele><time>2026-05-01T02:37:50.007Z</time></trkpt><trkpt lat="43.8736736" lon="8.2143044"><ele>0.0</ele><time>2026-05-01T02:37:51.007Z</time></trkpt><trkpt lat="43.8737203" lon="8.2143933"><ele>0.0</ele><time>2026-05-01T02:37:52.008Z</time></trkpt><trkpt lat="43.8737631" lon="8.2144785"><ele>0.0</ele><time>2026-05-01T02:37:53.008Z</time></trkpt><trkpt lat="43.8738609" lon="8.2146549"><ele>0.0</ele><time>2026-05-01T02:37:55.008Z</time></trkpt><trkpt lat="43.8739133" lon="8.2147469"><ele>0.0</ele><time>2026-05-01T02:37:56.008Z</time></trkpt><trkpt lat="43.8739647" lon="8.2148335"><ele>0.0</ele><time>2026-05-01T02:37:57.008Z</time></trkpt><trkpt lat="43.8740122" lon="8.21492"><ele>0.0</ele><time>2026-05-01T02:37:58.008Z</time></trkpt><trkpt lat="43.8740631" lon="8.2150082"><ele>0.0</ele><time>2026-05-01T02:37:59.007Z</time></trkpt><trkpt lat="43.8741104" lon="8.2150961"><ele>0.0</ele><time>2026-05-01T02:38:00.008Z</time></trkpt><trkpt lat="43.8741552" lon="8.2151862"><ele>0.0</ele><time>2026-05-01T02:38:01.008Z</time></trkpt><trkpt lat="43.8742021" lon="8.215279"><ele>0.0</ele><time>2026-05-01T02:38:02.007Z</time></trkpt><trkpt lat="43.8742514" lon="8.2153681"><ele>0.0</ele><time>2026-05-01T02:38:03.007Z</time></trkpt><trkpt lat="43.8743016" lon="8.2154561"><ele>0.0</ele><time>2026-05-01T02:38:04.007Z</time></trkpt><trkpt lat="43.8744018" lon="8.2156388"><ele>0.0</ele><time>2026-05-01T02:38:06.007Z</time></trkpt><trkpt lat="43.8744507" lon="8.2157307"><ele>0.0</ele><time>2026-05-01T02:38:07.008Z</time></trkpt><trkpt lat="43.8744944" lon="8.2158208"><ele>0.0</ele><time>2026-05-01T02:38:08.008Z</time></trkpt><trkpt lat="43.8745377" lon="8.2159111"><ele>0.0</ele><time>2026-05-01T02:38:09.007Z</time></trkpt><trkpt lat="43.8745808" lon="8.2160029"><ele>0.0</ele><time>2026-05-01T02:38:10.007Z</time></trkpt><trkpt lat="43.8746303" lon="8.2160874"><ele>0.0</ele><time>2026-05-01T02:38:11.008Z</time></trkpt><trkpt lat="43.8746772" lon="8.2161751"><ele>0.0</ele><time>2026-05-01T02:38:12.007Z</time></trkpt><trkpt lat="43.8747266" lon="8.2162621"><ele>0.0</ele><time>2026-05-01T02:38:13.008Z</time></trkpt><trkpt lat="43.8747752" lon="8.2163543"><ele>0.0</ele><time>2026-05-01T02:38:14.007Z</time></trkpt><trkpt lat="43.8748677" lon="8.2165451"><ele>0.0</ele><time>2026-05-01T02:38:16.007Z</time></trkpt><trkpt lat="43.8749113" lon="8.2166387"><ele>0.0</ele><time>2026-05-01T02:38:17.008Z</time></trkpt><trkpt lat="43.8749576" lon="8.2167318"><ele>0.0</ele><time>2026-05-01T02:38:18.007Z</time></trkpt><trkpt lat="43.8750026" lon="8.2168289"><ele>0.0</ele><time>2026-05-01T02:38:19.008Z</time></trkpt><trkpt lat="43.8750444" lon="8.2169215"><ele>0.0</ele><time>2026-05-01T02:38:20.008Z</time></trkpt><trkpt lat="43.8750919" lon="8.2170115"><ele>0.0</ele><time>2026-05-01T02:38:21.008Z</time></trkpt><trkpt lat="43.8751475" lon="8.2171052"><ele>0.0</ele><time>2026-05-01T02:38:22.007Z</time></trkpt><trkpt lat="43.8751984" lon="8.2171989"><ele>0.0</ele><time>2026-05-01T02:38:23.007Z</time></trkpt><trkpt lat="43.8752482" lon="8.2172851"><ele>0.0</ele><time>2026-05-01T02:38:24.008Z</time></trkpt><trkpt lat="43.8752982" lon="8.2173761"><ele>0.0</ele><time>2026-05-01T02:38:25.008Z</time></trkpt><trkpt lat="43.8753498" lon="8.2174622"><ele>0.0</ele><time>2026-05-01T02:38:26.007Z</time></trkpt><trkpt lat="43.8754017" lon="8.2175442"><ele>0.0</ele><time>2026-05-01T02:38:27.007Z</time></trkpt><trkpt lat="43.8754488" lon="8.2176305"><ele>0.0</ele><time>2026-05-01T02:38:28.007Z</time></trkpt><trkpt lat="43.8754968" lon="8.2177153"><ele>0.0</ele><time>2026-05-01T02:38:29.008Z</time></trkpt><trkpt lat="43.8755427" lon="8.2178043"><ele>0.0</ele><time>2026-05-01T02:38:30.007Z</time></trkpt><trkpt lat="43.8755859" lon="8.2178961"><ele>0.0</ele><time>2026-05-01T02:38:31.008Z</time></trkpt><trkpt lat="43.8756301" lon="8.2179889"><ele>0.0</ele><time>2026-05-01T02:38:32.007Z</time></trkpt><trkpt lat="43.875678" lon="8.2180772"><ele>0.0</ele><time>2026-05-01T02:38:33.007Z</time></trkpt><trkpt lat="43.8757237" lon="8.2181595"><ele>0.0</ele><time>2026-05-01T02:38:34.008Z</time></trkpt><trkpt lat="43.8758202" lon="8.2183341"><ele>0.0</ele><time>2026-05-01T02:38:36.007Z</time></trkpt><trkpt lat="43.8759196" lon="8.2185214"><ele>0.0</ele><time>2026-05-01T02:38:38.007Z</time></trkpt><trkpt lat="43.8759683" lon="8.2186154"><ele>0.0</ele><time>2026-05-01T02:38:39.008Z</time></trkpt><trkpt lat="43.8760152" lon="8.2187109"><ele>0.0</ele><time>2026-05-01T02:38:40.008Z</time></trkpt><trkpt lat="43.8760674" lon="8.2188045"><ele>0.0</ele><time>2026-05-01T02:38:41.007Z</time></trkpt><trkpt lat="43.8761166" lon="8.2188977"><ele>0.0</ele><time>2026-05-01T02:38:42.007Z</time></trkpt><trkpt lat="43.8761596" lon="8.2189909"><ele>0.0</ele><time>2026-05-01T02:38:43.008Z</time></trkpt><trkpt lat="43.8762039" lon="8.2190863"><ele>0.0</ele><time>2026-05-01T02:38:44.007Z</time></trkpt><trkpt lat="43.8762474" lon="8.2191767"><ele>0.0</ele><time>2026-05-01T02:38:45.007Z</time></trkpt><trkpt lat="43.8762952" lon="8.2192667"><ele>0.0</ele><time>2026-05-01T02:38:46.008Z</time></trkpt><trkpt lat="43.876342" lon="8.2193524"><ele>0.0</ele><time>2026-05-01T02:38:47.007Z</time></trkpt><trkpt lat="43.8763932" lon="8.2194342"><ele>0.0</ele><time>2026-05-01T02:38:48.007Z</time></trkpt><trkpt lat="43.8764407" lon="8.2195213"><ele>0.0</ele><time>2026-05-01T02:38:49.007Z</time></trkpt><trkpt lat="43.8764877" lon="8.2196097"><ele>0.0</ele><time>2026-05-01T02:38:50.007Z</time></trkpt><trkpt lat="43.876538" lon="8.21969"><ele>0.0</ele><time>2026-05-01T02:38:51.007Z</time></trkpt><trkpt lat="43.876591" lon="8.2197825"><ele>0.0</ele><time>2026-05-01T02:38:52.007Z</time></trkpt><trkpt lat="43.876636" lon="8.2198718"><ele>0.0</ele><time>2026-05-01T02:38:53.008Z</time></trkpt><trkpt lat="43.8766796" lon="8.2199659"><ele>0.0</ele><time>2026-05-01T02:38:54.007Z</time></trkpt><trkpt lat="43.876728" lon="8.2200503"><ele>0.0</ele><time>2026-05-01T02:38:55.007Z</time></trkpt><trkpt lat="43.876829" lon="8.2202275"><ele>0.0</ele><time>2026-05-01T02:38:57.008Z</time></trkpt><trkpt lat="43.8768778" lon="8.2203197"><ele>0.0</ele><time>2026-05-01T02:38:58.007Z</time></trkpt><trkpt lat="43.8769268" lon="8.2204101"><ele>0.0</ele><time>2026-05-01T02:38:59.007Z</time></trkpt><trkpt lat="43.8769768" lon="8.2205033"><ele>0.0</ele><time>2026-05-01T02:39:00.008Z</time></trkpt><trkpt lat="43.8770264" lon="8.2205922"><ele>0.0</ele><time>2026-05-01T02:39:01.007Z</time></trkpt><trkpt lat="43.8770736" lon="8.2206832"><ele>0.0</ele><time>2026-05-01T02:39:02.008Z</time></trkpt><trkpt lat="43.8771203" lon="8.2207731"><ele>0.0</ele><time>2026-05-01T02:39:03.007Z</time></trkpt><trkpt lat="43.8771672" lon="8.2208587"><ele>0.0</ele><time>2026-05-01T02:39:04.007Z</time></trkpt><trkpt lat="43.8772179" lon="8.2209469"><ele>0.0</ele><time>2026-05-01T02:39:05.008Z</time></trkpt><trkpt lat="43.8772658" lon="8.2210348"><ele>0.0</ele><time>2026-05-01T02:39:06.007Z</time></trkpt><trkpt lat="43.8773181" lon="8.2211199"><ele>0.0</ele><time>2026-05-01T02:39:07.008Z</time></trkpt><trkpt lat="43.8774225" lon="8.2212871"><ele>0.0</ele><time>2026-05-01T02:39:09.008Z</time></trkpt><trkpt lat="43.8774721" lon="8.2213699"><ele>0.0</ele><time>2026-05-01T02:39:10.008Z</time></trkpt><trkpt lat="43.8775149" lon="8.2214621"><ele>0.0</ele><time>2026-05-01T02:39:11.008Z</time></trkpt><trkpt lat="43.8775608" lon="8.2215507"><ele>0.0</ele><time>2026-05-01T02:39:12.008Z</time></trkpt><trkpt lat="43.8776087" lon="8.2216427"><ele>0.0</ele><time>2026-05-01T02:39:13.008Z</time></trkpt><trkpt lat="43.8776601" lon="8.2217317"><ele>0.0</ele><time>2026-05-01T02:39:14.007Z</time></trkpt><trkpt lat="43.8777084" lon="8.2218217"><ele>0.0</ele><time>2026-05-01T02:39:15.007Z</time></trkpt><trkpt lat="43.8777597" lon="8.2219086"><ele>0.0</ele><time>2026-05-01T02:39:16.007Z</time></trkpt><trkpt lat="43.8778602" lon="8.2220849"><ele>0.0</ele><time>2026-05-01T02:39:18.007Z</time></trkpt><trkpt lat="43.8779101" lon="8.2221758"><ele>0.0</ele><time>2026-05-01T02:39:19.007Z</time></trkpt><trkpt lat="43.8779616" lon="8.222268"><ele>0.0</ele><time>2026-05-01T02:39:20.008Z</time></trkpt><trkpt lat="43.8780085" lon="8.222361"><ele>0.0</ele><time>2026-05-01T02:39:21.008Z</time></trkpt><trkpt lat="43.8780598" lon="8.2224505"><ele>0.0</ele><time>2026-05-01T02:39:22.007Z</time></trkpt><trkpt lat="43.87811" lon="8.2225386"><ele>0.0</ele><time>2026-05-01T02:39:23.007Z</time></trkpt><trkpt lat="43.8781669" lon="8.222628"><ele>0.0</ele><time>2026-05-01T02:39:24.007Z</time></trkpt><trkpt lat="43.878218" lon="8.2227194"><ele>0.0</ele><time>2026-05-01T02:39:25.008Z</time></trkpt><trkpt lat="43.8782653" lon="8.2228056"><ele>0.0</ele><time>2026-05-01T02:39:26.007Z</time></trkpt><trkpt lat="43.8783181" lon="8.2228902"><ele>0.0</ele><time>2026-05-01T02:39:27.007Z</time></trkpt><trkpt lat="43.8783697" lon="8.2229757"><ele>0.0</ele><time>2026-05-01T02:39:28.008Z</time></trkpt><trkpt lat="43.87842" lon="8.223065"><ele>0.0</ele><time>2026-05-01T02:39:29.007Z</time></trkpt><trkpt lat="43.8784669" lon="8.2231506"><ele>0.0</ele><time>2026-05-01T02:39:30.007Z</time></trkpt><trkpt lat="43.8785091" lon="8.2232432"><ele>0.0</ele><time>2026-05-01T02:39:31.007Z</time></trkpt><trkpt lat="43.8785537" lon="8.2233365"><ele>0.0</ele><time>2026-05-01T02:39:32.007Z</time></trkpt><trkpt lat="43.8785989" lon="8.223427"><ele>0.0</ele><time>2026-05-01T02:39:33.008Z</time></trkpt><trkpt lat="43.8786511" lon="8.2235107"><ele>0.0</ele><time>2026-05-01T02:39:34.008Z</time></trkpt><trkpt lat="43.8786942" lon="8.2236017"><ele>0.0</ele><time>2026-05-01T02:39:35.008Z</time></trkpt><trkpt lat="43.8787432" lon="8.223694"><ele>0.0</ele><time>2026-05-01T02:39:36.008Z</time></trkpt><trkpt lat="43.8787875" lon="8.2237834"><ele>0.0</ele><time>2026-05-01T02:39:37.008Z</time></trkpt><trkpt lat="43.8788818" lon="8.2239629"><ele>0.0</ele><time>2026-05-01T02:39:39.007Z</time></trkpt><trkpt lat="43.8789285" lon="8.2240544"><ele>0.0</ele><time>2026-05-01T02:39:40.007Z</time></trkpt><trkpt lat="43.8790255" lon="8.224228"><ele>0.0</ele><time>2026-05-01T02:39:42.007Z</time></trkpt><trkpt lat="43.8790734" lon="8.2243153"><ele>0.0</ele><time>2026-05-01T02:39:43.007Z</time></trkpt><trkpt lat="43.8791188" lon="8.2244029"><ele>0.0</ele><time>2026-05-01T02:39:44.007Z</time></trkpt><trkpt lat="43.8791611" lon="8.2244916"><ele>0.0</ele><time>2026-05-01T02:39:45.008Z</time></trkpt><trkpt lat="43.8792116" lon="8.2245782"><ele>0.0</ele><time>2026-05-01T02:39:46.007Z</time></trkpt><trkpt lat="43.87926" lon="8.2246653"><ele>0.0</ele><time>2026-05-01T02:39:47.008Z</time></trkpt><trkpt lat="43.8793097" lon="8.2247521"><ele>0.0</ele><time>2026-05-01T02:39:48.007Z</time></trkpt><trkpt lat="43.8793569" lon="8.2248416"><ele>0.0</ele><time>2026-05-01T02:39:49.007Z</time></trkpt><trkpt lat="43.8794053" lon="8.2249268"><ele>0.0</ele><time>2026-05-01T02:39:50.007Z</time></trkpt><trkpt lat="43.8794534" lon="8.2250191"><ele>0.0</ele><time>2026-05-01T02:39:51.008Z</time></trkpt><trkpt lat="43.8794929" lon="8.2251128"><ele>0.0</ele><time>2026-05-01T02:39:52.008Z</time></trkpt><trkpt lat="43.8795425" lon="8.2252052"><ele>0.0</ele><time>2026-05-01T02:39:53.007Z</time></trkpt><trkpt lat="43.8795913" lon="8.2252968"><ele>0.0</ele><time>2026-05-01T02:39:54.007Z</time></trkpt><trkpt lat="43.8796384" lon="8.2253897"><ele>0.0</ele><time>2026-05-01T02:39:55.007Z</time></trkpt><trkpt lat="43.8796866" lon="8.2254829"><ele>0.0</ele><time>2026-05-01T02:39:56.008Z</time></trkpt><trkpt lat="43.8797337" lon="8.2255762"><ele>0.0</ele><time>2026-05-01T02:39:57.007Z</time></trkpt></trkseg><trkseg><trkpt lat="44.4076957" lon="8.9117067"><ele>12.0</ele><time>2026-05-01T05:58:40.118Z</time></trkpt><trkpt lat="44.4076222" lon="8.9116227"><ele>12.0</ele><time>2026-05-01T05:58:43.133Z</time></trkpt><trkpt lat="44.4080152" lon="8.9112033"><ele>12.0</ele><time>2026-05-01T06:16:34.186Z</time></trkpt><trkpt lat="44.4080694" lon="8.9111294"><ele>12.0</ele><time>2026-05-01T06:16:48.156Z</time></trkpt><trkpt lat="44.4080209" lon="8.9111869"><ele>12.0</ele><time>2026-05-01T06:17:02.129Z</time></trkpt><trkpt lat="44.4079321" lon="8.911177"><ele>12.0</ele><time>2026-05-01T06:20:47.14Z</time></trkpt><trkpt lat="44.4094565" lon="8.9108753"><ele>6.0</ele><time>2026-05-01T06:44:56.105Z</time></trkpt><trkpt lat="44.4092949" lon="8.9108919"><ele>0.0</ele><time>2026-05-01T06:44:57.105Z</time></trkpt><trkpt lat="44.4089929" lon="8.9108988"><ele>0.0</ele><time>2026-05-01T06:44:58.105Z</time></trkpt><trkpt lat="44.4089086" lon="8.9108999"><ele>0.0</ele><time>2026-05-01T06:44:59.152Z</time></trkpt><trkpt lat="44.4088337" lon="8.9108955"><ele>0.0</ele><time>2026-05-01T06:45:01.162Z</time></trkpt><trkpt lat="44.4085404" lon="8.9108521"><ele>1.0</ele><time>2026-05-01T06:45:06.185Z</time></trkpt><trkpt lat="44.4083532" lon="8.91086"><ele>2.0</ele><time>2026-05-01T06:45:12.178Z</time></trkpt><trkpt lat="44.4082424" lon="8.9108744"><ele>3.0</ele><time>2026-05-01T06:45:13.085Z</time></trkpt><trkpt lat="44.4081492" lon="8.910898"><ele>4.0</ele><time>2026-05-01T06:45:14.124Z</time></trkpt><trkpt lat="44.4078213" lon="8.9108864"><ele>4.0</ele><time>2026-05-01T06:45:23.168Z</time></trkpt><trkpt lat="44.4077326" lon="8.9108871"><ele>4.0</ele><time>2026-05-01T06:45:24.174Z</time></trkpt><trkpt lat="44.4076613" lon="8.9108746"><ele>4.0</ele><time>2026-05-01T06:45:27.187Z</time></trkpt><trkpt lat="44.4081705" lon="8.910773"><ele>4.0</ele><time>2026-05-01T06:46:40.105Z</time></trkpt><trkpt lat="44.4079132" lon="8.9108339"><ele>12.0</ele><time>2026-05-01T06:46:43.104Z</time></trkpt><trkpt lat="44.4078409" lon="8.9108337"><ele>12.0</ele><time>2026-05-01T06:46:49.148Z</time></trkpt><trkpt lat="44.4077885" lon="8.9107804"><ele>12.0</ele><time>2026-05-01T06:47:00.659Z</time></trkpt></trkseg><trkseg><trkpt lat="44.407575" lon="8.9099267"><ele>3.0</ele><time>2026-05-01T07:05:47.102Z</time></trkpt><trkpt lat="44.4075383" lon="8.90984"><ele>3.0</ele><time>2026-05-01T07:05:54.101Z</time></trkpt><trkpt lat="44.4075483" lon="8.90972"><ele>3.0</ele><time>2026-05-01T07:05:59.101Z</time></trkpt><trkpt lat="44.4075783" lon="8.90962"><ele>3.0</ele><time>2026-05-01T07:06:01.101Z</time></trkpt><trkpt lat="44.4076117" lon="8.9095183"><ele>3.0</ele><time>2026-05-01T07:06:03.102Z</time></trkpt><trkpt lat="44.4076417" lon="8.9094233"><ele>3.0</ele><time>2026-05-01T07:06:05.101Z</time></trkpt><trkpt lat="44.4076667" lon="8.909305"><ele>3.0</ele><time>2026-05-01T07:06:08.102Z</time></trkpt><trkpt lat="44.40767" lon="8.9092017"><ele>3.0</ele><time>2026-05-01T07:06:25.101Z</time></trkpt><trkpt lat="44.4077117" lon="8.9091083"><ele>3.0</ele><time>2026-05-01T07:11:19.103Z</time></trkpt><trkpt lat="44.4077017" lon="8.9089567"><ele>3.0</ele><time>2026-05-01T07:15:28.102Z</time></trkpt><trkpt lat="44.4077383" lon="8.9088083"><ele>3.0</ele><time>2026-05-01T07:19:23.102Z</time></trkpt><trkpt lat="44.4077441" lon="8.9086831"><ele>3.0</ele><time>2026-05-01T07:20:54.309Z</time></trkpt><trkpt lat="44.4078033" lon="8.9085217"><ele>3.0</ele><time>2026-05-01T07:23:59.099Z</time></trkpt><trkpt lat="44.4078233" lon="8.9084267"><ele>3.0</ele><time>2026-05-01T07:25:48.099Z</time></trkpt><trkpt lat="44.4078283" lon="8.9083333"><ele>3.0</ele><time>2026-05-01T07:26:50.099Z</time></trkpt><trkpt lat="44.4078783" lon="8.9082467"><ele>3.0</ele><time>2026-05-01T07:28:14.1Z</time></trkpt><trkpt lat="44.4078917" lon="8.90814"><ele>3.0</ele><time>2026-05-01T07:28:16.099Z</time></trkpt><trkpt lat="44.4079167" lon="8.9080583"><ele>3.0</ele><time>2026-05-01T07:28:18.099Z</time></trkpt><trkpt lat="44.40799" lon="8.907995"><ele>3.0</ele><time>2026-05-01T07:28:21.1Z</time></trkpt><trkpt lat="44.4080817" lon="8.9079867"><ele>3.0</ele><time>2026-05-01T07:28:24.099Z</time></trkpt><trkpt lat="44.4081583" lon="8.9080217"><ele>3.0</ele><time>2026-05-01T07:28:27.1Z</time></trkpt><trkpt lat="44.408215" lon="8.908075"><ele>3.0</ele><time>2026-05-01T07:28:30.1Z</time></trkpt><trkpt lat="44.40825" lon="8.90815"><ele>3.0</ele><time>2026-05-01T07:28:34.099Z</time></trkpt><trkpt lat="44.4082867" lon="8.9082217"><ele>2.8571428571428568</ele><time>2026-05-01T07:28:38.1Z</time></trkpt><trkpt lat="44.4083117" lon="8.9083067"><ele>2.7142857142857144</ele><time>2026-05-01T07:28:42.099Z</time></trkpt><trkpt lat="44.408335" lon="8.9084033"><ele>2.571428571428571</ele><time>2026-05-01T07:28:45.099Z</time></trkpt><trkpt lat="44.4083217" lon="8.908505"><ele>2.4285714285714284</ele><time>2026-05-01T07:28:48.1Z</time></trkpt><trkpt lat="44.4083167" lon="8.9086033"><ele>2.2857142857142856</ele><time>2026-05-01T07:28:51.1Z</time></trkpt><trkpt lat="44.4083167" lon="8.9087033"><ele>2.142857142857143</ele><time>2026-05-01T07:28:55.1Z</time></trkpt><trkpt lat="44.4082967" lon="8.9087967"><ele>2.0</ele><time>2026-05-01T07:29:00.1Z</time></trkpt><trkpt lat="44.4082833" lon="8.9089"><ele>1.9999999999999998</ele><time>2026-05-01T07:29:06.099Z</time></trkpt><trkpt lat="44.4082633" lon="8.9090067"><ele>2.0</ele><time>2026-05-01T07:29:09.099Z</time></trkpt><trkpt lat="44.4082567" lon="8.9091133"><ele>2.0</ele><time>2026-05-01T07:29:11.1Z</time></trkpt><trkpt lat="44.4082383" lon="8.9092517"><ele>2.0</ele><time>2026-05-01T07:29:13.099Z</time></trkpt><trkpt lat="44.40821" lon="8.909385"><ele>1.9999999999999998</ele><time>2026-05-01T07:29:15.1Z</time></trkpt><trkpt lat="44.40819" lon="8.9095133"><ele>2.0</ele><time>2026-05-01T07:29:17.099Z</time></trkpt><trkpt lat="44.4081683" lon="8.9096233"><ele>1.8333333333333333</ele><time>2026-05-01T07:29:19.099Z</time></trkpt><trkpt lat="44.4081583" lon="8.9097217"><ele>1.6666666666666665</ele><time>2026-05-01T07:29:21.099Z</time></trkpt><trkpt lat="44.4081417" lon="8.9098383"><ele>1.5</ele><time>2026-05-01T07:29:24.1Z</time></trkpt><trkpt lat="44.4081367" lon="8.9099467"><ele>1.3333333333333333</ele><time>2026-05-01T07:29:27.1Z</time></trkpt><trkpt lat="44.4081683" lon="8.910035"><ele>1.1666666666666665</ele><time>2026-05-01T07:29:30.099Z</time></trkpt><trkpt lat="44.4082333" lon="8.91007"><ele>1.0</ele><time>2026-05-01T07:29:33.099Z</time></trkpt><trkpt lat="44.4083217" lon="8.9101267"><ele>0.9999999999999999</ele><time>2026-05-01T07:29:36.1Z</time></trkpt><trkpt lat="44.4084017" lon="8.910165"><ele>1.0</ele><time>2026-05-01T07:29:38.099Z</time></trkpt><trkpt lat="44.4084667" lon="8.9101967"><ele>1.0</ele><time>2026-05-01T07:29:40.1Z</time></trkpt><trkpt lat="44.408535" lon="8.9102567"><ele>1.0</ele><time>2026-05-01T07:29:44.1Z</time></trkpt><trkpt lat="44.40861" lon="8.910265"><ele>0.9999999999999999</ele><time>2026-05-01T07:29:47.1Z</time></trkpt><trkpt lat="44.4086683" lon="8.9102117"><ele>1.0</ele><time>2026-05-01T07:29:50.099Z</time></trkpt><trkpt lat="44.4087" lon="8.9100617"><ele>1.0</ele><time>2026-05-01T07:34:00.099Z</time></trkpt><trkpt lat="44.4087183" lon="8.9099383"><ele>1.0</ele><time>2026-05-01T07:34:02.099Z</time></trkpt><trkpt lat="44.4087367" lon="8.9098117"><ele>1.0</ele><time>2026-05-01T07:34:04.099Z</time></trkpt><trkpt lat="44.408755" lon="8.909695"><ele>1.0</ele><time>2026-05-01T07:34:06.1Z</time></trkpt><trkpt lat="44.408785" lon="8.90955"><ele>1.0</ele><time>2026-05-01T07:34:08.099Z</time></trkpt><trkpt lat="44.4088183" lon="8.90939"><ele>1.3333333333333333</ele><time>2026-05-01T07:34:10.1Z</time></trkpt><trkpt lat="44.408855" lon="8.90924"><ele>1.6666666666666665</ele><time>2026-05-01T07:34:12.1Z</time></trkpt><trkpt lat="44.4089067" lon="8.90909"><ele>2.0</ele><time>2026-05-01T07:34:14.1Z</time></trkpt><trkpt lat="44.4089417" lon="8.909015"><ele>2.3333333333333335</ele><time>2026-05-01T07:34:15.099Z</time></trkpt><trkpt lat="44.4089917" lon="8.9089417"><ele>2.6666666666666665</ele><time>2026-05-01T07:34:16.1Z</time></trkpt><trkpt lat="44.4090433" lon="8.908875"><ele>3.0</ele><time>2026-05-01T07:34:17.099Z</time></trkpt><trkpt lat="44.4091033" lon="8.9088183"><ele>2.9999999999999996</ele><time>2026-05-01T07:34:18.099Z</time></trkpt><trkpt lat="44.4091733" lon="8.9087733"><ele>3.0</ele><time>2026-05-01T07:34:19.099Z</time></trkpt><trkpt lat="44.4092433" lon="8.9087517"><ele>3.0</ele><time>2026-05-01T07:34:20.099Z</time></trkpt><trkpt lat="44.4093183" lon="8.908755"><ele>3.0</ele><time>2026-05-01T07:34:21.099Z</time></trkpt><trkpt lat="44.409385" lon="8.9087817"><ele>3.0</ele><time>2026-05-01T07:34:22.1Z</time></trkpt><trkpt lat="44.4094417" lon="8.9088217"><ele>2.9999999999999996</ele><time>2026-05-01T07:34:23.1Z</time></trkpt><trkpt lat="44.4095067" lon="8.90887"><ele>3.0</ele><time>2026-05-01T07:34:24.099Z</time></trkpt><trkpt lat="44.4095767" lon="8.908925"><ele>3.0</ele><time>2026-05-01T07:34:25.099Z</time></trkpt><trkpt lat="44.4096483" lon="8.9089867"><ele>3.0</ele><time>2026-05-01T07:34:26.099Z</time></trkpt><trkpt lat="44.40972" lon="8.9090483"><ele>3.0</ele><time>2026-05-01T07:34:27.099Z</time></trkpt><trkpt lat="44.4097917" lon="8.90911"><ele>3.0</ele><time>2026-05-01T07:34:28.099Z</time></trkpt><trkpt lat="44.4098533" lon="8.9091667"><ele>3.0</ele><time>2026-05-01T07:34:29.099Z</time></trkpt><trkpt lat="44.4099117" lon="8.9092133"><ele>3.0</ele><time>2026-05-01T07:34:30.098Z</time></trkpt><trkpt lat="44.4099683" lon="8.9092533"><ele>3.5</ele><time>2026-05-01T07:34:31.099Z</time></trkpt><trkpt lat="44.4100283" lon="8.9093017"><ele>4.0</ele><time>2026-05-01T07:34:32.099Z</time></trkpt><trkpt lat="44.410095" lon="8.9093533"><ele>4.5</ele><time>2026-05-01T07:34:33.098Z</time></trkpt><trkpt lat="44.4101617" lon="8.9094133"><ele>5.0</ele><time>2026-05-01T07:34:34.099Z</time></trkpt><trkpt lat="44.4102317" lon="8.9094733"><ele>5.5</ele><time>2026-05-01T07:34:35.099Z</time></trkpt><trkpt lat="44.4103083" lon="8.9095367"><ele>6.0</ele><time>2026-05-01T07:34:36.099Z</time></trkpt><trkpt lat="44.4103883" lon="8.909595"><ele>6.0</ele><time>2026-05-01T07:34:37.098Z</time></trkpt><trkpt lat="44.4104717" lon="8.9096667"><ele>6.0</ele><time>2026-05-01T07:34:38.098Z</time></trkpt><trkpt lat="44.4105633" lon="8.909745"><ele>6.0</ele><time>2026-05-01T07:34:39.099Z</time></trkpt><trkpt lat="44.4106583" lon="8.9098267"><ele>6.0</ele><time>2026-05-01T07:34:40.098Z</time></trkpt><trkpt lat="44.4107517" lon="8.909905"><ele>6.0</ele><time>2026-05-01T07:34:41.099Z</time></trkpt><trkpt lat="44.4108417" lon="8.9099833"><ele>5.6</ele><time>2026-05-01T07:34:42.099Z</time></trkpt><trkpt lat="44.4109233" lon="8.9100517"><ele>5.199999999999999</ele><time>2026-05-01T07:34:43.099Z</time></trkpt><trkpt lat="44.4110017" lon="8.91012"><ele>4.800000000000001</ele><time>2026-05-01T07:34:44.098Z</time></trkpt><trkpt lat="44.411075" lon="8.9101883"><ele>4.4</ele><time>2026-05-01T07:34:45.099Z</time></trkpt><trkpt lat="44.4111533" lon="8.910255"><ele>4.0</ele><time>2026-05-01T07:34:46.098Z</time></trkpt><trkpt lat="44.41123" lon="8.9103067"><ele>3.833333333333333</ele><time>2026-05-01T07:34:47.098Z</time></trkpt><trkpt lat="44.4113033" lon="8.9103583"><ele>3.6666666666666665</ele><time>2026-05-01T07:34:48.098Z</time></trkpt><trkpt lat="44.4113717" lon="8.9104067"><ele>3.5</ele><time>2026-05-01T07:34:49.098Z</time></trkpt><trkpt lat="44.411435" lon="8.9104617"><ele>3.333333333333333</ele><time>2026-05-01T07:34:50.099Z</time></trkpt><trkpt lat="44.4114983" lon="8.9105117"><ele>3.1666666666666665</ele><time>2026-05-01T07:34:51.098Z</time></trkpt><trkpt lat="44.411555" lon="8.9105533"><ele>3.0</ele><time>2026-05-01T07:34:52.099Z</time></trkpt><trkpt lat="44.4116617" lon="8.910565"><ele>3.0</ele><time>2026-05-01T07:34:54.099Z</time></trkpt><trkpt lat="44.4117667" lon="8.9105217"><ele>3.0</ele><time>2026-05-01T07:34:56.099Z</time></trkpt><trkpt lat="44.4118617" lon="8.9104483"><ele>3.0</ele><time>2026-05-01T07:34:58.098Z</time></trkpt><trkpt lat="44.4119167" lon="8.9103917"><ele>3.0</ele><time>2026-05-01T07:35:00.098Z</time></trkpt><trkpt lat="44.4119767" lon="8.9103233"><ele>3.0</ele><time>2026-05-01T07:35:03.098Z</time></trkpt><trkpt lat="44.4120283" lon="8.91026"><ele>3.0</ele><time>2026-05-01T07:35:06.099Z</time></trkpt><trkpt lat="44.4121067" lon="8.91017"><ele>3.0</ele><time>2026-05-01T07:35:21.098Z</time></trkpt><trkpt lat="44.4121483" lon="8.9101033"><ele>3.0</ele><time>2026-05-01T07:35:31.098Z</time></trkpt><trkpt lat="44.4121483" lon="8.9100067"><ele>3.0</ele><time>2026-05-01T07:35:33.098Z</time></trkpt><trkpt lat="44.412085" lon="8.90987"><ele>3.0</ele><time>2026-05-01T07:35:35.098Z</time></trkpt><trkpt lat="44.41204" lon="8.9098017"><ele>3.0</ele><time>2026-05-01T07:35:36.099Z</time></trkpt><trkpt lat="44.41195" lon="8.9096867"><ele>3.0</ele><time>2026-05-01T07:35:38.099Z</time></trkpt><trkpt lat="44.4118967" lon="8.909635"><ele>3.0</ele><time>2026-05-01T07:35:39.098Z</time></trkpt><trkpt lat="44.411845" lon="8.90958"><ele>3.0</ele><time>2026-05-01T07:35:40.099Z</time></trkpt><trkpt lat="44.4117917" lon="8.909525"><ele>3.0</ele><time>2026-05-01T07:35:41.098Z</time></trkpt><trkpt lat="44.411695" lon="8.9094133"><ele>3.0</ele><time>2026-05-01T07:35:43.098Z</time></trkpt><trkpt lat="44.41165" lon="8.90934"><ele>3.0</ele><time>2026-05-01T07:35:44.098Z</time></trkpt><trkpt lat="44.4116" lon="8.9092783"><ele>3.0</ele><time>2026-05-01T07:35:45.099Z</time></trkpt><trkpt lat="44.41155" lon="8.90921"><ele>3.714285714285714</ele><time>2026-05-01T07:35:46.098Z</time></trkpt><trkpt lat="44.411495" lon="8.909145"><ele>4.428571428571429</ele><time>2026-05-01T07:35:47.098Z</time></trkpt><trkpt lat="44.4114383" lon="8.9090783"><ele>5.142857142857142</ele><time>2026-05-01T07:35:48.098Z</time></trkpt><trkpt lat="44.4113783" lon="8.9090167"><ele>5.857142857142857</ele><time>2026-05-01T07:35:49.098Z</time></trkpt><trkpt lat="44.4113183" lon="8.9089633"><ele>6.57142857142857</ele><time>2026-05-01T07:35:50.099Z</time></trkpt><trkpt lat="44.411255" lon="8.9089133"><ele>7.285714285714286</ele><time>2026-05-01T07:35:51.098Z</time></trkpt><trkpt lat="44.411195" lon="8.9088717"><ele>8.0</ele><time>2026-05-01T07:35:52.098Z</time></trkpt><trkpt lat="44.4110917" lon="8.9087967"><ele>8.285714285714285</ele><time>2026-05-01T07:35:54.099Z</time></trkpt><trkpt lat="44.41103" lon="8.9087517"><ele>8.571428571428571</ele><time>2026-05-01T07:35:55.098Z</time></trkpt><trkpt lat="44.41097" lon="8.9087167"><ele>8.857142857142858</ele><time>2026-05-01T07:35:56.099Z</time></trkpt><trkpt lat="44.4109133" lon="8.9086783"><ele>9.142857142857142</ele><time>2026-05-01T07:35:57.098Z</time></trkpt><trkpt lat="44.410855" lon="8.9086417"><ele>9.428571428571429</ele><time>2026-05-01T07:35:58.098Z</time></trkpt><trkpt lat="44.4108017" lon="8.9085933"><ele>9.714285714285714</ele><time>2026-05-01T07:35:59.099Z</time></trkpt><trkpt lat="44.4107383" lon="8.908555"><ele>10.0</ele><time>2026-05-01T07:36:00.098Z</time></trkpt><trkpt lat="44.4106783" lon="8.9085133"><ele>10.0</ele><time>2026-05-01T07:36:01.098Z</time></trkpt><trkpt lat="44.4106183" lon="8.9084717"><ele>10.0</ele><time>2026-05-01T07:36:02.099Z</time></trkpt><trkpt lat="44.4105567" lon="8.9084267"><ele>10.0</ele><time>2026-05-01T07:36:03.099Z</time></trkpt><trkpt lat="44.4104033" lon="8.9083417"><ele>10.0</ele><time>2026-05-01T07:36:05.103Z</time></trkpt><trkpt lat="44.4102267" lon="8.90814"><ele>10.2</ele><time>2026-05-01T07:36:06.102Z</time></trkpt><trkpt lat="44.410115" lon="8.9079833"><ele>10.4</ele><time>2026-05-01T07:36:07.102Z</time></trkpt><trkpt lat="44.4100283" lon="8.907915"><ele>10.600000000000001</ele><time>2026-05-01T07:36:08.102Z</time></trkpt><trkpt lat="44.4099467" lon="8.907845"><ele>10.8</ele><time>2026-05-01T07:36:09.103Z</time></trkpt><trkpt lat="44.4098733" lon="8.9077767"><ele>11.0</ele><time>2026-05-01T07:36:10.102Z</time></trkpt><trkpt lat="44.4098067" lon="8.9077017"><ele>11.0</ele><time>2026-05-01T07:36:11.102Z</time></trkpt><trkpt lat="44.40975" lon="8.9076333"><ele>11.0</ele><time>2026-05-01T07:36:12.103Z</time></trkpt><trkpt lat="44.4096867" lon="8.9075733"><ele>11.0</ele><time>2026-05-01T07:36:13.103Z</time></trkpt><trkpt lat="44.4096317" lon="8.9075083"><ele>11.0</ele><time>2026-05-01T07:36:14.103Z</time></trkpt><trkpt lat="44.4095567" lon="8.90746"><ele>11.0</ele><time>2026-05-01T07:36:15.102Z</time></trkpt><trkpt lat="44.4094983" lon="8.907425"><ele>11.0</ele><time>2026-05-01T07:36:16.102Z</time></trkpt><trkpt lat="44.4094367" lon="8.90739"><ele>11.0</ele><time>2026-05-01T07:36:17.102Z</time></trkpt><trkpt lat="44.4093167" lon="8.9073333"><ele>10.666666666666666</ele><time>2026-05-01T07:36:19.103Z</time></trkpt><trkpt lat="44.409255" lon="8.9073017"><ele>10.333333333333334</ele><time>2026-05-01T07:36:20.102Z</time></trkpt><trkpt lat="44.4091833" lon="8.9070133"><ele>10.0</ele><time>2026-05-01T07:36:25.104Z</time></trkpt><trkpt lat="44.4093183" lon="8.9066517"><ele>10.0</ele><time>2026-05-01T07:36:26.104Z</time></trkpt><trkpt lat="44.40937" lon="8.906475"><ele>10.0</ele><time>2026-05-01T07:36:27.104Z</time></trkpt><trkpt lat="44.4094017" lon="8.90633"><ele>10.0</ele><time>2026-05-01T07:36:28.104Z</time></trkpt><trkpt lat="44.4094083" lon="8.90618"><ele>10.0</ele><time>2026-05-01T07:36:29.105Z</time></trkpt><trkpt lat="44.4094" lon="8.9060217"><ele>10.6</ele><time>2026-05-01T07:36:30.104Z</time></trkpt><trkpt lat="44.4093983" lon="8.9058617"><ele>11.2</ele><time>2026-05-01T07:36:31.105Z</time></trkpt><trkpt lat="44.40938" lon="8.9057317"><ele>11.8</ele><time>2026-05-01T07:36:32.104Z</time></trkpt><trkpt lat="44.409395" lon="8.9055833"><ele>12.4</ele><time>2026-05-01T07:36:33.104Z</time></trkpt><trkpt lat="44.4094067" lon="8.9054467"><ele>13.0</ele><time>2026-05-01T07:36:34.105Z</time></trkpt><trkpt lat="44.4094233" lon="8.90532"><ele>12.999999999999998</ele><time>2026-05-01T07:36:35.104Z</time></trkpt><trkpt lat="44.4094367" lon="8.9052033"><ele>13.0</ele><time>2026-05-01T07:36:36.105Z</time></trkpt><trkpt lat="44.4094433" lon="8.905085"><ele>13.0</ele><time>2026-05-01T07:36:37.105Z</time></trkpt><trkpt lat="44.409455" lon="8.9049667"><ele>13.0</ele><time>2026-05-01T07:36:38.104Z</time></trkpt><trkpt lat="44.4094567" lon="8.904855"><ele>12.999999999999998</ele><time>2026-05-01T07:36:39.105Z</time></trkpt><trkpt lat="44.409455" lon="8.90474"><ele>13.0</ele><time>2026-05-01T07:36:40.105Z</time></trkpt><trkpt lat="44.4094533" lon="8.9046333"><ele>13.499999999999998</ele><time>2026-05-01T07:36:41.105Z</time></trkpt><trkpt lat="44.4094533" lon="8.9045317"><ele>14.0</ele><time>2026-05-01T07:36:42.104Z</time></trkpt><trkpt lat="44.40945" lon="8.9044367"><ele>14.5</ele><time>2026-05-01T07:36:43.105Z</time></trkpt><trkpt lat="44.4094417" lon="8.9043467"><ele>15.0</ele><time>2026-05-01T07:36:44.104Z</time></trkpt><trkpt lat="44.409415" lon="8.9042067"><ele>15.499999999999998</ele><time>2026-05-01T07:36:46.104Z</time></trkpt><trkpt lat="44.4093983" lon="8.9040783"><ele>16.0</ele><time>2026-05-01T07:36:48.104Z</time></trkpt><trkpt lat="44.4094" lon="8.903985"><ele>16.5</ele><time>2026-05-01T07:36:50.104Z</time></trkpt><trkpt lat="44.4094067" lon="8.9038883"><ele>17.0</ele><time>2026-05-01T07:36:53.105Z</time></trkpt><trkpt lat="44.4094067" lon="8.9037767"><ele>17.5</ele><time>2026-05-01T07:37:33.104Z</time></trkpt><trkpt lat="44.40941" lon="8.9036767"><ele>18.0</ele><time>2026-05-01T07:37:35.104Z</time></trkpt><trkpt lat="44.4094467" lon="8.9035867"><ele>18.5</ele><time>2026-05-01T07:37:37.105Z</time></trkpt><trkpt lat="44.409525" lon="8.9035117"><ele>19.0</ele><time>2026-05-01T07:37:39.104Z</time></trkpt><trkpt lat="44.4096017" lon="8.9035017"><ele>18.599999999999998</ele><time>2026-05-01T07:37:41.104Z</time></trkpt><trkpt lat="44.4096967" lon="8.9035967"><ele>18.2</ele><time>2026-05-01T07:37:43.105Z</time></trkpt><trkpt lat="44.4097383" lon="8.9036883"><ele>17.799999999999997</ele><time>2026-05-01T07:37:44.104Z</time></trkpt><trkpt lat="44.4097767" lon="8.9037717"><ele>17.4</ele><time>2026-05-01T07:37:45.104Z</time></trkpt><trkpt lat="44.4098383" lon="8.9039083"><ele>17.0</ele><time>2026-05-01T07:37:47.105Z</time></trkpt><trkpt lat="44.4099033" lon="8.9040467"><ele>17.0</ele><time>2026-05-01T07:37:49.104Z</time></trkpt><trkpt lat="44.409945" lon="8.9042033"><ele>17.0</ele><time>2026-05-01T07:37:51.105Z</time></trkpt><trkpt lat="44.4099867" lon="8.9043133"><ele>17.0</ele><time>2026-05-01T07:37:52.105Z</time></trkpt><trkpt lat="44.4100067" lon="8.9044483"><ele>17.0</ele><time>2026-05-01T07:37:53.104Z</time></trkpt><trkpt lat="44.4100333" lon="8.9045833"><ele>17.0</ele><time>2026-05-01T07:37:54.104Z</time></trkpt><trkpt lat="44.4100683" lon="8.904745"><ele>16.4</ele><time>2026-05-01T07:37:55.104Z</time></trkpt><trkpt lat="44.4101" lon="8.9048733"><ele>15.799999999999999</ele><time>2026-05-01T07:37:56.105Z</time></trkpt><trkpt lat="44.4101533" lon="8.90507"><ele>15.2</ele><time>2026-05-01T07:37:57.104Z</time></trkpt><trkpt lat="44.4101817" lon="8.90518"><ele>14.6</ele><time>2026-05-01T07:37:58.104Z</time></trkpt><trkpt lat="44.4102033" lon="8.9052767"><ele>14.0</ele><time>2026-05-01T07:37:59.104Z</time></trkpt><trkpt lat="44.410205" lon="8.9053683"><ele>13.2</ele><time>2026-05-01T07:38:00.104Z</time></trkpt><trkpt lat="44.4102133" lon="8.9055317"><ele>12.399999999999999</ele><time>2026-05-01T07:38:02.105Z</time></trkpt><trkpt lat="44.4101017" lon="8.905635"><ele>11.6</ele><time>2026-05-01T07:38:18.105Z</time></trkpt><trkpt lat="44.410165" lon="8.9057483"><ele>10.8</ele><time>2026-05-01T07:38:26.104Z</time></trkpt><trkpt lat="44.4102067" lon="8.9058283"><ele>10.0</ele><time>2026-05-01T07:38:27.104Z</time></trkpt><trkpt lat="44.4102533" lon="8.9059183"><ele>10.0</ele><time>2026-05-01T07:38:28.104Z</time></trkpt><trkpt lat="44.4102967" lon="8.9060083"><ele>10.0</ele><time>2026-05-01T07:38:29.104Z</time></trkpt><trkpt lat="44.410325" lon="8.9061133"><ele>10.0</ele><time>2026-05-01T07:38:30.104Z</time></trkpt><trkpt lat="44.4103467" lon="8.9062183"><ele>10.0</ele><time>2026-05-01T07:38:31.105Z</time></trkpt><trkpt lat="44.4103717" lon="8.90632"><ele>10.0</ele><time>2026-05-01T07:38:32.105Z</time></trkpt><trkpt lat="44.4103917" lon="8.9064217"><ele>10.0</ele><time>2026-05-01T07:38:33.105Z</time></trkpt><trkpt lat="44.4104167" lon="8.906515"><ele>10.0</ele><time>2026-05-01T07:38:34.104Z</time></trkpt><trkpt lat="44.410445" lon="8.9066017"><ele>10.0</ele><time>2026-05-01T07:38:35.105Z</time></trkpt><trkpt lat="44.410485" lon="8.906745"><ele>10.0</ele><time>2026-05-01T07:38:37.105Z</time></trkpt><trkpt lat="44.4105167" lon="8.90684"><ele>10.0</ele><time>2026-05-01T07:38:39.104Z</time></trkpt><trkpt lat="44.4105533" lon="8.9069167"><ele>10.0</ele><time>2026-05-01T07:38:42.104Z</time></trkpt><trkpt lat="44.41059" lon="8.9070083"><ele>10.0</ele><time>2026-05-01T07:38:46.105Z</time></trkpt><trkpt lat="44.4106283" lon="8.907145"><ele>10.0</ele><time>2026-05-01T07:38:49.104Z</time></trkpt><trkpt lat="44.410665" lon="8.9072833"><ele>10.0</ele><time>2026-05-01T07:38:51.105Z</time></trkpt><trkpt lat="44.410715" lon="8.9074483"><ele>10.0</ele><time>2026-05-01T07:38:53.105Z</time></trkpt><trkpt lat="44.4107467" lon="8.90753"><ele>10.0</ele><time>2026-05-01T07:38:54.104Z</time></trkpt><trkpt lat="44.4107833" lon="8.9076083"><ele>10.0</ele><time>2026-05-01T07:38:55.105Z</time></trkpt><trkpt lat="44.4108233" lon="8.90768"><ele>10.0</ele><time>2026-05-01T07:38:57.105Z</time></trkpt><trkpt lat="44.4107867" lon="8.90782"><ele>10.0</ele><time>2026-05-01T07:39:47.105Z</time></trkpt><trkpt lat="44.4108567" lon="8.9079"><ele>10.0</ele><time>2026-05-01T07:45:05.104Z</time></trkpt><trkpt lat="44.4109083" lon="8.9080067"><ele>10.0</ele><time>2026-05-01T07:45:07.104Z</time></trkpt><trkpt lat="44.4109367" lon="8.9080883"><ele>10.0</ele><time>2026-05-01T07:45:08.103Z</time></trkpt><trkpt lat="44.41096" lon="8.908175"><ele>10.0</ele><time>2026-05-01T07:45:09.104Z</time></trkpt><trkpt lat="44.4109767" lon="8.9082617"><ele>10.0</ele><time>2026-05-01T07:45:10.104Z</time></trkpt><trkpt lat="44.4110017" lon="8.9083467"><ele>10.0</ele><time>2026-05-01T07:45:11.103Z</time></trkpt><trkpt lat="44.4110683" lon="8.9084733"><ele>10.0</ele><time>2026-05-01T07:45:13.104Z</time></trkpt><trkpt lat="44.411165" lon="8.9085433"><ele>10.0</ele><time>2026-05-01T07:45:15.104Z</time></trkpt><trkpt lat="44.4112617" lon="8.9085867"><ele>10.0</ele><time>2026-05-01T07:45:17.103Z</time></trkpt><trkpt lat="44.411365" lon="8.908645"><ele>10.0</ele><time>2026-05-01T07:45:19.104Z</time></trkpt><trkpt lat="44.4114567" lon="8.908715"><ele>10.0</ele><time>2026-05-01T07:45:20.104Z</time></trkpt><trkpt lat="44.4115333" lon="8.9087833"><ele>9.6</ele><time>2026-05-01T07:45:21.103Z</time></trkpt><trkpt lat="44.4116217" lon="8.9088433"><ele>9.2</ele><time>2026-05-01T07:45:22.103Z</time></trkpt><trkpt lat="44.4117183" lon="8.90891"><ele>8.8</ele><time>2026-05-01T07:45:23.103Z</time></trkpt><trkpt lat="44.4118167" lon="8.9089717"><ele>8.4</ele><time>2026-05-01T07:45:24.104Z</time></trkpt><trkpt lat="44.4118967" lon="8.9090283"><ele>8.0</ele><time>2026-05-01T07:45:25.104Z</time></trkpt><trkpt lat="44.4119683" lon="8.9090867"><ele>7.999999999999999</ele><time>2026-05-01T07:45:26.104Z</time></trkpt><trkpt lat="44.412035" lon="8.909135"><ele>8.0</ele><time>2026-05-01T07:45:27.103Z</time></trkpt><trkpt lat="44.412095" lon="8.9091933"><ele>8.0</ele><time>2026-05-01T07:45:28.104Z</time></trkpt><trkpt lat="44.4121917" lon="8.9092683"><ele>8.0</ele><time>2026-05-01T07:45:30.104Z</time></trkpt><trkpt lat="44.4122533" lon="8.9093183"><ele>7.999999999999999</ele><time>2026-05-01T07:45:32.103Z</time></trkpt><trkpt lat="44.4123033" lon="8.90939"><ele>8.0</ele><time>2026-05-01T07:45:35.104Z</time></trkpt><trkpt lat="44.412405" lon="8.9095"><ele>8.166666666666666</ele><time>2026-05-01T07:45:44.103Z</time></trkpt><trkpt lat="44.4124667" lon="8.9095567"><ele>8.333333333333332</ele><time>2026-05-01T07:45:46.104Z</time></trkpt><trkpt lat="44.4125467" lon="8.90962"><ele>8.5</ele><time>2026-05-01T07:45:49.103Z</time></trkpt><trkpt lat="44.41261" lon="8.9096717"><ele>8.666666666666666</ele><time>2026-05-01T07:45:52.103Z</time></trkpt><trkpt lat="44.4126667" lon="8.90973"><ele>8.833333333333334</ele><time>2026-05-01T07:45:56.103Z</time></trkpt><trkpt lat="44.4127267" lon="8.9098017"><ele>9.0</ele><time>2026-05-01T07:46:09.104Z</time></trkpt><trkpt lat="44.412785" lon="8.9098883"><ele>9.0</ele><time>2026-05-01T07:46:11.103Z</time></trkpt><trkpt lat="44.4128517" lon="8.9099783"><ele>9.0</ele><time>2026-05-01T07:46:13.104Z</time></trkpt><trkpt lat="44.4128983" lon="8.91006"><ele>9.0</ele><time>2026-05-01T07:46:15.103Z</time></trkpt><trkpt lat="44.4129567" lon="8.9101467"><ele>9.0</ele><time>2026-05-01T07:46:18.104Z</time></trkpt><trkpt lat="44.4130333" lon="8.9101717"><ele>9.0</ele><time>2026-05-01T07:47:06.104Z</time></trkpt><trkpt lat="44.4130983" lon="8.9101767"><ele>9.0</ele><time>2026-05-01T07:47:08.104Z</time></trkpt><trkpt lat="44.4131717" lon="8.9101567"><ele>8.666666666666666</ele><time>2026-05-01T07:47:10.103Z</time></trkpt><trkpt lat="44.4132333" lon="8.9101083"><ele>8.333333333333334</ele><time>2026-05-01T07:47:12.103Z</time></trkpt><trkpt lat="44.4132817" lon="8.910015"><ele>8.0</ele><time>2026-05-01T07:47:16.103Z</time></trkpt><trkpt lat="44.4133433" lon="8.90994"><ele>7.666666666666667</ele><time>2026-05-01T07:47:20.103Z</time></trkpt><trkpt lat="44.4134317" lon="8.9098933"><ele>7.333333333333334</ele><time>2026-05-01T07:47:37.103Z</time></trkpt><trkpt lat="44.4134967" lon="8.9098217"><ele>7.0</ele><time>2026-05-01T07:47:40.103Z</time></trkpt><trkpt lat="44.4135517" lon="8.9097283"><ele>8.2</ele><time>2026-05-01T07:47:43.103Z</time></trkpt><trkpt lat="44.41358" lon="8.9095683"><ele>9.399999999999999</ele><time>2026-05-01T07:48:05.103Z</time></trkpt><trkpt lat="44.4135267" lon="8.9095067"><ele>10.600000000000001</ele><time>2026-05-01T07:48:08.104Z</time></trkpt><trkpt lat="44.4134533" lon="8.9094867"><ele>11.8</ele><time>2026-05-01T07:48:10.103Z</time></trkpt><trkpt lat="44.413375" lon="8.9094683"><ele>13.0</ele><time>2026-05-01T07:48:13.103Z</time></trkpt><trkpt lat="44.4132483" lon="8.90955"><ele>13.0</ele><time>2026-05-01T07:48:25.104Z</time></trkpt><trkpt lat="44.413175" lon="8.9095417"><ele>13.0</ele><time>2026-05-01T07:48:28.104Z</time></trkpt><trkpt lat="44.4130917" lon="8.9095767"><ele>13.0</ele><time>2026-05-01T07:48:31.103Z</time></trkpt><trkpt lat="44.4130083" lon="8.9095917"><ele>13.0</ele><time>2026-05-01T07:48:41.104Z</time></trkpt><trkpt lat="44.41299" lon="8.9094717"><ele>13.0</ele><time>2026-05-01T07:52:36.103Z</time></trkpt><trkpt lat="44.4118817" lon="8.9066267"><ele>14.75</ele><time>2026-05-01T08:03:50.102Z</time></trkpt><trkpt lat="44.411835" lon="8.90652"><ele>16.5</ele><time>2026-05-01T08:03:52.101Z</time></trkpt><trkpt lat="44.41179" lon="8.9064083"><ele>18.25</ele><time>2026-05-01T08:04:36.1Z</time></trkpt><trkpt lat="44.4117083" lon="8.9061967"><ele>20.0</ele><time>2026-05-01T08:04:38.1Z</time></trkpt><trkpt lat="44.4116467" lon="8.906065"><ele>20.0</ele><time>2026-05-01T08:04:39.1Z</time></trkpt><trkpt lat="44.4115867" lon="8.9059383"><ele>20.0</ele><time>2026-05-01T08:04:40.1Z</time></trkpt><trkpt lat="44.41154" lon="8.905825"><ele>20.0</ele><time>2026-05-01T08:04:41.1Z</time></trkpt><trkpt lat="44.4114983" lon="8.9057317"><ele>20.0</ele><time>2026-05-01T08:04:42.101Z</time></trkpt><trkpt lat="44.41146" lon="8.905645"><ele>20.0</ele><time>2026-05-01T08:04:43.1Z</time></trkpt><trkpt lat="44.4114233" lon="8.9055633"><ele>20.0</ele><time>2026-05-01T08:04:44.101Z</time></trkpt><trkpt lat="44.4113583" lon="8.90542"><ele>20.2</ele><time>2026-05-01T08:04:46.101Z</time></trkpt><trkpt lat="44.4112983" lon="8.9052717"><ele>20.4</ele><time>2026-05-01T08:04:48.1Z</time></trkpt><trkpt lat="44.4112683" lon="8.9051917"><ele>20.6</ele><time>2026-05-01T08:04:49.101Z</time></trkpt><trkpt lat="44.4112267" lon="8.9050483"><ele>20.8</ele><time>2026-05-01T08:04:51.101Z</time></trkpt><trkpt lat="44.4112017" lon="8.9049367"><ele>21.0</ele><time>2026-05-01T08:04:53.1Z</time></trkpt><trkpt lat="44.4111667" lon="8.90482"><ele>21.0</ele><time>2026-05-01T08:04:55.1Z</time></trkpt><trkpt lat="44.4111317" lon="8.9047067"><ele>21.0</ele><time>2026-05-01T08:04:57.1Z</time></trkpt><trkpt lat="44.4110483" lon="8.9044833"><ele>21.0</ele><time>2026-05-01T08:05:01.101Z</time></trkpt><trkpt lat="44.4110033" lon="8.9043267"><ele>21.0</ele><time>2026-05-01T08:05:03.1Z</time></trkpt><trkpt lat="44.4109817" lon="8.9042433"><ele>21.142857142857142</ele><time>2026-05-01T08:05:04.101Z</time></trkpt><trkpt lat="44.4109567" lon="8.90416"><ele>21.285714285714285</ele><time>2026-05-01T08:05:05.1Z</time></trkpt><trkpt lat="44.4109333" lon="8.9040733"><ele>21.42857142857143</ele><time>2026-05-01T08:05:06.1Z</time></trkpt><trkpt lat="44.4109133" lon="8.903985"><ele>21.57142857142857</ele><time>2026-05-01T08:05:07.101Z</time></trkpt><trkpt lat="44.4108933" lon="8.9038983"><ele>21.714285714285715</ele><time>2026-05-01T08:05:08.101Z</time></trkpt><trkpt lat="44.4108733" lon="8.9038067"><ele>21.857142857142858</ele><time>2026-05-01T08:05:09.1Z</time></trkpt><trkpt lat="44.4108483" lon="8.9037183"><ele>22.0</ele><time>2026-05-01T08:05:10.1Z</time></trkpt><trkpt lat="44.410825" lon="8.9035533"><ele>22.5</ele><time>2026-05-01T08:05:12.1Z</time></trkpt><trkpt lat="44.4107967" lon="8.903375"><ele>23.0</ele><time>2026-05-01T08:05:14.1Z</time></trkpt><trkpt lat="44.410785" lon="8.9032767"><ele>23.5</ele><time>2026-05-01T08:05:15.1Z</time></trkpt><trkpt lat="44.4107667" lon="8.9031783"><ele>24.0</ele><time>2026-05-01T08:05:16.1Z</time></trkpt><trkpt lat="44.410755" lon="8.9030833"><ele>24.500000000000004</ele><time>2026-05-01T08:05:17.1Z</time></trkpt><trkpt lat="44.410735" lon="8.9029483"><ele>25.0</ele><time>2026-05-01T08:05:19.1Z</time></trkpt><trkpt lat="44.4107767" lon="8.902725"><ele>25.000000000000004</ele><time>2026-05-01T08:05:23.1Z</time></trkpt><trkpt lat="44.4108667" lon="8.9025833"><ele>25.0</ele><time>2026-05-01T08:05:25.1Z</time></trkpt><trkpt lat="44.4109217" lon="8.9025083"><ele>25.0</ele><time>2026-05-01T08:05:26.101Z</time></trkpt><trkpt lat="44.4109733" lon="8.902435"><ele>25.0</ele><time>2026-05-01T08:05:27.101Z</time></trkpt><trkpt lat="44.41103" lon="8.9023717"><ele>25.000000000000004</ele><time>2026-05-01T08:05:28.1Z</time></trkpt><trkpt lat="44.41108" lon="8.9023083"><ele>25.0</ele><time>2026-05-01T08:05:29.1Z</time></trkpt><trkpt lat="44.4111283" lon="8.90225"><ele>26.0</ele><time>2026-05-01T08:05:30.101Z</time></trkpt><trkpt lat="44.41121" lon="8.9021267"><ele>27.0</ele><time>2026-05-01T08:05:32.1Z</time></trkpt><trkpt lat="44.41129" lon="8.9020167"><ele>28.0</ele><time>2026-05-01T08:05:34.1Z</time></trkpt><trkpt lat="44.4113633" lon="8.9018983"><ele>29.0</ele><time>2026-05-01T08:05:36.1Z</time></trkpt><trkpt lat="44.4114" lon="8.90182"><ele>30.0</ele><time>2026-05-01T08:05:37.1Z</time></trkpt><trkpt lat="44.41143" lon="8.90173"><ele>30.666666666666668</ele><time>2026-05-01T08:05:38.101Z</time></trkpt><trkpt lat="44.411445" lon="8.9016317"><ele>31.333333333333336</ele><time>2026-05-01T08:05:39.101Z</time></trkpt><trkpt lat="44.4114583" lon="8.9015217"><ele>32.0</ele><time>2026-05-01T08:05:40.101Z</time></trkpt><trkpt lat="44.4114667" lon="8.9013117"><ele>32.66666666666667</ele><time>2026-05-01T08:05:42.101Z</time></trkpt><trkpt lat="44.411465" lon="8.9012133"><ele>33.333333333333336</ele><time>2026-05-01T08:05:43.101Z</time></trkpt><trkpt lat="44.4114583" lon="8.9011217"><ele>34.0</ele><time>2026-05-01T08:05:44.1Z</time></trkpt><trkpt lat="44.4114533" lon="8.9010267"><ele>34.25</ele><time>2026-05-01T08:05:45.101Z</time></trkpt><trkpt lat="44.4114317" lon="8.90089"><ele>34.5</ele><time>2026-05-01T08:05:47.1Z</time></trkpt><trkpt lat="44.411445" lon="8.90077"><ele>34.75</ele><time>2026-05-01T08:14:31.099Z</time></trkpt><trkpt lat="44.4115933" lon="8.9005483"><ele>35.0</ele><time>2026-05-01T08:14:34.098Z</time></trkpt><trkpt lat="44.4116583" lon="8.900485"><ele>35.0</ele><time>2026-05-01T08:14:35.099Z</time></trkpt><trkpt lat="44.4117367" lon="8.900435"><ele>35.0</ele><time>2026-05-01T08:14:36.098Z</time></trkpt><trkpt lat="44.4118183" lon="8.9003867"><ele>35.0</ele><time>2026-05-01T08:14:37.098Z</time></trkpt><trkpt lat="44.4119033" lon="8.9003433"><ele>35.0</ele><time>2026-05-01T08:14:38.099Z</time></trkpt><trkpt lat="44.4119967" lon="8.9003"><ele>35.0</ele><time>2026-05-01T08:14:39.098Z</time></trkpt><trkpt lat="44.412095" lon="8.9002583"><ele>36.5</ele><time>2026-05-01T08:14:40.098Z</time></trkpt><trkpt lat="44.4121983" lon="8.9002167"><ele>38.0</ele><time>2026-05-01T08:14:41.098Z</time></trkpt><trkpt lat="44.4123083" lon="8.9001817"><ele>39.5</ele><time>2026-05-01T08:14:42.099Z</time></trkpt><trkpt lat="44.412425" lon="8.9001533"><ele>41.0</ele><time>2026-05-01T08:14:43.098Z</time></trkpt><trkpt lat="44.4125567" lon="8.9001167"><ele>41.0</ele><time>2026-05-01T08:14:44.098Z</time></trkpt><trkpt lat="44.4126933" lon="8.9001017"><ele>41.0</ele><time>2026-05-01T08:14:45.099Z</time></trkpt><trkpt lat="44.41284" lon="8.9001067"><ele>41.0</ele><time>2026-05-01T08:14:46.098Z</time></trkpt><trkpt lat="44.41299" lon="8.900145"><ele>41.0</ele><time>2026-05-01T08:14:47.098Z</time></trkpt><trkpt lat="44.41315" lon="8.9002083"><ele>40.666666666666664</ele><time>2026-05-01T08:14:48.099Z</time></trkpt><trkpt lat="44.4133233" lon="8.9002967"><ele>40.333333333333336</ele><time>2026-05-01T08:14:49.098Z</time></trkpt><trkpt lat="44.4135067" lon="8.9004017"><ele>40.0</ele><time>2026-05-01T08:14:50.099Z</time></trkpt><trkpt lat="44.4136967" lon="8.9005267"><ele>41.5</ele><time>2026-05-01T08:14:51.099Z</time></trkpt><trkpt lat="44.41389" lon="8.9006483"><ele>43.0</ele><time>2026-05-01T08:14:52.099Z</time></trkpt><trkpt lat="44.41424" lon="8.9009067"><ele>42.333333333333336</ele><time>2026-05-01T08:14:54.099Z</time></trkpt><trkpt lat="44.4143967" lon="8.9010433"><ele>41.666666666666664</ele><time>2026-05-01T08:14:55.098Z</time></trkpt><trkpt lat="44.41455" lon="8.9011967"><ele>41.0</ele><time>2026-05-01T08:14:56.098Z</time></trkpt><trkpt lat="44.41471" lon="8.9013633"><ele>40.0</ele><time>2026-05-01T08:14:57.099Z</time></trkpt><trkpt lat="44.414875" lon="8.9015633"><ele>39.0</ele><time>2026-05-01T08:14:58.098Z</time></trkpt><trkpt lat="44.4150333" lon="8.9017267"><ele>38.0</ele><time>2026-05-01T08:14:59.098Z</time></trkpt><trkpt lat="44.415205" lon="8.90185"><ele>38.0</ele><time>2026-05-01T08:15:00.098Z</time></trkpt><trkpt lat="44.4153767" lon="8.901955"><ele>38.0</ele><time>2026-05-01T08:15:01.099Z</time></trkpt><trkpt lat="44.415535" lon="8.9020433"><ele>38.0</ele><time>2026-05-01T08:15:02.099Z</time></trkpt><trkpt lat="44.4156717" lon="8.90213"><ele>40.25</ele><time>2026-05-01T08:15:03.098Z</time></trkpt><trkpt lat="44.4157883" lon="8.90222"><ele>42.5</ele><time>2026-05-01T08:15:04.099Z</time></trkpt><trkpt lat="44.415905" lon="8.9022767"><ele>44.75</ele><time>2026-05-01T08:15:05.099Z</time></trkpt><trkpt lat="44.4160067" lon="8.90234"><ele>47.0</ele><time>2026-05-01T08:15:06.098Z</time></trkpt><trkpt lat="44.4161533" lon="8.9024417"><ele>47.0</ele><time>2026-05-01T08:15:07.099Z</time></trkpt><trkpt lat="44.4162683" lon="8.90253"><ele>47.0</ele><time>2026-05-01T08:15:08.099Z</time></trkpt><trkpt lat="44.41637" lon="8.9026"><ele>47.0</ele><time>2026-05-01T08:15:09.098Z</time></trkpt><trkpt lat="44.4164683" lon="8.9026583"><ele>47.0</ele><time>2026-05-01T08:15:10.099Z</time></trkpt><trkpt lat="44.4165667" lon="8.9027033"><ele>52.25</ele><time>2026-05-01T08:15:11.098Z</time></trkpt><trkpt lat="44.4166633" lon="8.9027367"><ele>57.5</ele><time>2026-05-01T08:15:12.099Z</time></trkpt><trkpt lat="44.4167567" lon="8.9027617"><ele>62.75</ele><time>2026-05-01T08:15:13.098Z</time></trkpt><trkpt lat="44.416955" lon="8.9028033"><ele>68.0</ele><time>2026-05-01T08:15:15.099Z</time></trkpt><trkpt lat="44.4170483" lon="8.9028233"><ele>68.0</ele><time>2026-05-01T08:15:16.099Z</time></trkpt><trkpt lat="44.4171417" lon="8.9028417"><ele>68.0</ele><time>2026-05-01T08:15:17.098Z</time></trkpt><trkpt lat="44.417225" lon="8.9028617"><ele>68.0</ele><time>2026-05-01T08:15:18.099Z</time></trkpt><trkpt lat="44.417305" lon="8.902875"><ele>68.0</ele><time>2026-05-01T08:15:19.098Z</time></trkpt><trkpt lat="44.4173833" lon="8.9028817"><ele>68.0</ele><time>2026-05-01T08:15:20.098Z</time></trkpt><trkpt lat="44.4174467" lon="8.9028883"><ele>68.0</ele><time>2026-05-01T08:15:21.098Z</time></trkpt><trkpt lat="44.4175617" lon="8.9029017"><ele>69.6</ele><time>2026-05-01T08:15:23.099Z</time></trkpt><trkpt lat="44.4176717" lon="8.9028917"><ele>71.19999999999999</ele><time>2026-05-01T08:15:25.098Z</time></trkpt><trkpt lat="44.4177367" lon="8.9028733"><ele>72.8</ele><time>2026-05-01T08:15:26.098Z</time></trkpt><trkpt lat="44.4178417" lon="8.9028283"><ele>74.39999999999999</ele><time>2026-05-01T08:15:28.099Z</time></trkpt><trkpt lat="44.41792" lon="8.90278"><ele>76.0</ele><time>2026-05-01T08:15:31.098Z</time></trkpt><trkpt lat="44.4180133" lon="8.9027183"><ele>74.8</ele><time>2026-05-01T08:15:33.099Z</time></trkpt><trkpt lat="44.41808" lon="8.9026817"><ele>73.6</ele><time>2026-05-01T08:15:34.099Z</time></trkpt><trkpt lat="44.418215" lon="8.9025417"><ele>72.4</ele><time>2026-05-01T08:15:36.099Z</time></trkpt><trkpt lat="44.418285" lon="8.9024433"><ele>71.2</ele><time>2026-05-01T08:15:37.099Z</time></trkpt><trkpt lat="44.41835" lon="8.9023517"><ele>70.0</ele><time>2026-05-01T08:15:38.098Z</time></trkpt><trkpt lat="44.41841" lon="8.9022583"><ele>70.0</ele><time>2026-05-01T08:15:39.098Z</time></trkpt><trkpt lat="44.4184783" lon="8.9021733"><ele>70.0</ele><time>2026-05-01T08:15:40.099Z</time></trkpt><trkpt lat="44.4185433" lon="8.9020833"><ele>70.0</ele><time>2026-05-01T08:15:41.098Z</time></trkpt><trkpt lat="44.4186133" lon="8.9019917"><ele>70.0</ele><time>2026-05-01T08:15:42.099Z</time></trkpt><trkpt lat="44.41869" lon="8.901895"><ele>70.0</ele><time>2026-05-01T08:15:43.098Z</time></trkpt><trkpt lat="44.4187833" lon="8.90181"><ele>70.75</ele><time>2026-05-01T08:15:44.099Z</time></trkpt><trkpt lat="44.418895" lon="8.901725"><ele>71.5</ele><time>2026-05-01T08:15:45.099Z</time></trkpt><trkpt lat="44.41902" lon="8.90163"><ele>72.25</ele><time>2026-05-01T08:15:46.098Z</time></trkpt><trkpt lat="44.41914" lon="8.90153"><ele>73.0</ele><time>2026-05-01T08:15:47.098Z</time></trkpt><trkpt lat="44.41925" lon="8.901425"><ele>73.0</ele><time>2026-05-01T08:15:48.098Z</time></trkpt><trkpt lat="44.41935" lon="8.9012967"><ele>73.0</ele><time>2026-05-01T08:15:49.098Z</time></trkpt><trkpt lat="44.41945" lon="8.90115"><ele>73.0</ele><time>2026-05-01T08:15:50.098Z</time></trkpt><trkpt lat="44.4195567" lon="8.9010067"><ele>73.0</ele><time>2026-05-01T08:15:51.098Z</time></trkpt><trkpt lat="44.4196583" lon="8.9008517"><ele>76.66666666666666</ele><time>2026-05-01T08:15:52.099Z</time></trkpt><trkpt lat="44.419765" lon="8.900695"><ele>80.33333333333333</ele><time>2026-05-01T08:15:53.099Z</time></trkpt><trkpt lat="44.41988" lon="8.9005383"><ele>84.0</ele><time>2026-05-01T08:15:54.098Z</time></trkpt><trkpt lat="44.4199967" lon="8.9003917"><ele>84.0</ele><time>2026-05-01T08:15:55.098Z</time></trkpt><trkpt lat="44.42023" lon="8.9000983"><ele>84.0</ele><time>2026-05-01T08:15:57.099Z</time></trkpt><trkpt lat="44.420345" lon="8.8999467"><ele>73.0</ele><time>2026-05-01T08:15:58.098Z</time></trkpt><trkpt lat="44.4222917" lon="8.8948433"><ele>73.0</ele><time>2026-05-01T08:16:22.102Z</time></trkpt><trkpt lat="44.422535" lon="8.89458"><ele>73.0</ele><time>2026-05-01T08:16:24.103Z</time></trkpt><trkpt lat="44.4226617" lon="8.89447"><ele>73.0</ele><time>2026-05-01T08:16:25.102Z</time></trkpt><trkpt lat="44.422795" lon="8.8943767"><ele>73.0</ele><time>2026-05-01T08:16:26.102Z</time></trkpt><trkpt lat="44.4229367" lon="8.8942967"><ele>73.0</ele><time>2026-05-01T08:16:27.103Z</time></trkpt><trkpt lat="44.4230767" lon="8.894225"><ele>71.75</ele><time>2026-05-01T08:16:28.103Z</time></trkpt><trkpt lat="44.4232117" lon="8.8941783"><ele>70.5</ele><time>2026-05-01T08:16:29.102Z</time></trkpt><trkpt lat="44.42334" lon="8.894125"><ele>69.25</ele><time>2026-05-01T08:16:30.102Z</time></trkpt><trkpt lat="44.4234767" lon="8.8940817"><ele>68.0</ele><time>2026-05-01T08:16:31.103Z</time></trkpt><trkpt lat="44.4236233" lon="8.8940583"><ele>68.0</ele><time>2026-05-01T08:16:32.103Z</time></trkpt><trkpt lat="44.4237567" lon="8.894055"><ele>68.0</ele><time>2026-05-01T08:16:33.102Z</time></trkpt><trkpt lat="44.4239067" lon="8.8940367"><ele>68.0</ele><time>2026-05-01T08:16:34.103Z</time></trkpt><trkpt lat="44.4240533" lon="8.894055"><ele>68.0</ele><time>2026-05-01T08:16:35.102Z</time></trkpt><trkpt lat="44.4242017" lon="8.89408"><ele>69.0</ele><time>2026-05-01T08:16:36.102Z</time></trkpt><trkpt lat="44.4243467" lon="8.894115"><ele>70.0</ele><time>2026-05-01T08:16:37.103Z</time></trkpt><trkpt lat="44.424485" lon="8.8941683"><ele>71.0</ele><time>2026-05-01T08:16:38.103Z</time></trkpt><trkpt lat="44.4246267" lon="8.89423"><ele>72.0</ele><time>2026-05-01T08:16:39.103Z</time></trkpt><trkpt lat="44.4247667" lon="8.89431"><ele>78.33333333333333</ele><time>2026-05-01T08:16:40.103Z</time></trkpt><trkpt lat="44.4249067" lon="8.894405"><ele>84.66666666666666</ele><time>2026-05-01T08:16:41.102Z</time></trkpt><trkpt lat="44.4250367" lon="8.8945117"><ele>91.0</ele><time>2026-05-01T08:16:42.102Z</time></trkpt><trkpt lat="44.4252633" lon="8.894705"><ele>91.0</ele><time>2026-05-01T08:16:44.102Z</time></trkpt><trkpt lat="44.425365" lon="8.8948033"><ele>91.0</ele><time>2026-05-01T08:16:45.102Z</time></trkpt><trkpt lat="44.42546" lon="8.8948917"><ele>91.0</ele><time>2026-05-01T08:16:46.102Z</time></trkpt><trkpt lat="44.4255583" lon="8.8949683"><ele>91.0</ele><time>2026-05-01T08:16:47.102Z</time></trkpt><trkpt lat="44.42566" lon="8.8950533"><ele>89.5</ele><time>2026-05-01T08:16:48.102Z</time></trkpt><trkpt lat="44.425755" lon="8.895155"><ele>88.0</ele><time>2026-05-01T08:16:49.102Z</time></trkpt><trkpt lat="44.425865" lon="8.8952467"><ele>86.5</ele><time>2026-05-01T08:16:50.102Z</time></trkpt><trkpt lat="44.4259867" lon="8.895355"><ele>85.0</ele><time>2026-05-01T08:16:51.103Z</time></trkpt><trkpt lat="44.4261167" lon="8.8954783"><ele>85.0</ele><time>2026-05-01T08:16:52.102Z</time></trkpt><trkpt lat="44.4262417" lon="8.8956283"><ele>85.0</ele><time>2026-05-01T08:16:53.103Z</time></trkpt><trkpt lat="44.426365" lon="8.8958117"><ele>85.0</ele><time>2026-05-01T08:16:54.103Z</time></trkpt><trkpt lat="44.4264733" lon="8.89599"><ele>83.0</ele><time>2026-05-01T08:16:55.103Z</time></trkpt><trkpt lat="44.4265717" lon="8.8961817"><ele>81.0</ele><time>2026-05-01T08:16:56.102Z</time></trkpt><trkpt lat="44.4266517" lon="8.8963917"><ele>79.0</ele><time>2026-05-01T08:16:57.102Z</time></trkpt><trkpt lat="44.426725" lon="8.8966183"><ele>80.33333333333333</ele><time>2026-05-01T08:16:58.103Z</time></trkpt><trkpt lat="44.42679" lon="8.89688"><ele>81.66666666666667</ele><time>2026-05-01T08:16:59.102Z</time></trkpt><trkpt lat="44.42685" lon="8.8971617"><ele>83.0</ele><time>2026-05-01T08:17:00.103Z</time></trkpt><trkpt lat="44.4269167" lon="8.8974317"><ele>86.33333333333334</ele><time>2026-05-01T08:17:01.102Z</time></trkpt><trkpt lat="44.4269883" lon="8.8977033"><ele>89.66666666666667</ele><time>2026-05-01T08:17:02.103Z</time></trkpt><trkpt lat="44.4270567" lon="8.8979617"><ele>93.0</ele><time>2026-05-01T08:17:03.102Z</time></trkpt><trkpt lat="44.4272183" lon="8.8984467"><ele>96.66666666666666</ele><time>2026-05-01T08:17:05.102Z</time></trkpt><trkpt lat="44.4273217" lon="8.8986467"><ele>100.33333333333333</ele><time>2026-05-01T08:17:06.102Z</time></trkpt><trkpt lat="44.4274417" lon="8.89881"><ele>104.0</ele><time>2026-05-01T08:17:07.102Z</time></trkpt><trkpt lat="44.42756" lon="8.8989933"><ele>104.0</ele><time>2026-05-01T08:17:08.102Z</time></trkpt><trkpt lat="44.4276783" lon="8.8991717"><ele>104.0</ele><time>2026-05-01T08:17:09.102Z</time></trkpt><trkpt lat="44.4278067" lon="8.89934"><ele>104.0</ele><time>2026-05-01T08:17:10.102Z</time></trkpt><trkpt lat="44.427925" lon="8.8995133"><ele>62.0</ele><time>2026-05-01T08:17:11.102Z</time></trkpt><trkpt lat="44.4328583" lon="8.9001433"><ele>65.0</ele><time>2026-05-01T08:17:30.102Z</time></trkpt><trkpt lat="44.4333917" lon="8.9001967"><ele>65.0</ele><time>2026-05-01T08:17:32.103Z</time></trkpt><trkpt lat="44.4336617" lon="8.9002183"><ele>65.0</ele><time>2026-05-01T08:17:33.102Z</time></trkpt><trkpt lat="44.43393" lon="8.9002433"><ele>74.5</ele><time>2026-05-01T08:17:34.103Z</time></trkpt><trkpt lat="44.4341917" lon="8.9002783"><ele>84.0</ele><time>2026-05-01T08:17:35.102Z</time></trkpt><trkpt lat="44.43445" lon="8.900315"><ele>91.0</ele><time>2026-05-01T08:17:36.103Z</time></trkpt><trkpt lat="44.434705" lon="8.9003517"><ele>98.0</ele><time>2026-05-01T08:17:37.102Z</time></trkpt><trkpt lat="44.4349583" lon="8.9003817"><ele>98.0</ele><time>2026-05-01T08:17:38.103Z</time></trkpt><trkpt lat="44.435205" lon="8.9003867"><ele>98.0</ele><time>2026-05-01T08:17:39.103Z</time></trkpt><trkpt lat="44.4354483" lon="8.90038"><ele>99.0</ele><time>2026-05-01T08:17:40.102Z</time></trkpt><trkpt lat="44.4356867" lon="8.9003767"><ele>100.0</ele><time>2026-05-01T08:17:41.102Z</time></trkpt><trkpt lat="44.4359283" lon="8.9003717"><ele>100.0</ele><time>2026-05-01T08:17:42.103Z</time></trkpt><trkpt lat="44.43617" lon="8.9003667"><ele>100.0</ele><time>2026-05-01T08:17:43.102Z</time></trkpt><trkpt lat="44.4369933" lon="8.9008117"><ele>81.0</ele><time>2026-05-01T08:17:46.104Z</time></trkpt><trkpt lat="44.4372783" lon="8.9010267"><ele>62.0</ele><time>2026-05-01T08:17:47.104Z</time></trkpt><trkpt lat="44.437545" lon="8.9011983"><ele>62.0</ele><time>2026-05-01T08:17:48.104Z</time></trkpt><trkpt lat="44.4378217" lon="8.90134"><ele>62.0</ele><time>2026-05-01T08:17:49.104Z</time></trkpt><trkpt lat="44.4380933" lon="8.90151"><ele>67.0</ele><time>2026-05-01T08:17:50.104Z</time></trkpt><trkpt lat="44.438355" lon="8.901695"><ele>72.0</ele><time>2026-05-01T08:17:51.104Z</time></trkpt><trkpt lat="44.4388633" lon="8.90208"><ele>76.5</ele><time>2026-05-01T08:17:53.104Z</time></trkpt><trkpt lat="44.43912" lon="8.902295"><ele>81.0</ele><time>2026-05-01T08:17:54.105Z</time></trkpt><trkpt lat="44.4393667" lon="8.90253"><ele>81.5</ele><time>2026-05-01T08:17:55.104Z</time></trkpt><trkpt lat="44.43962" lon="8.9027517"><ele>82.0</ele><time>2026-05-01T08:17:56.105Z</time></trkpt><trkpt lat="44.4398633" lon="8.9029733"><ele>82.0</ele><time>2026-05-01T08:17:57.104Z</time></trkpt><trkpt lat="44.440105" lon="8.9031817"><ele>82.0</ele><time>2026-05-01T08:17:58.104Z</time></trkpt><trkpt lat="44.4403467" lon="8.9033567"><ele>70.5</ele><time>2026-05-01T08:17:59.104Z</time></trkpt><trkpt lat="44.440585" lon="8.9035083"><ele>59.0</ele><time>2026-05-01T08:18:00.104Z</time></trkpt><trkpt lat="44.4408383" lon="8.90363"><ele>59.0</ele><time>2026-05-01T08:18:01.103Z</time></trkpt><trkpt lat="44.4410917" lon="8.90373"><ele>59.0</ele><time>2026-05-01T08:18:02.104Z</time></trkpt><trkpt lat="44.4413433" lon="8.9038117"><ele>53.0</ele><time>2026-05-01T08:18:03.103Z</time></trkpt><trkpt lat="44.4416033" lon="8.9038733"><ele>47.0</ele><time>2026-05-01T08:18:04.104Z</time></trkpt><trkpt lat="44.4418767" lon="8.90392"><ele>44.5</ele><time>2026-05-01T08:18:05.104Z</time></trkpt><trkpt lat="44.4421417" lon="8.90395"><ele>42.0</ele><time>2026-05-01T08:18:06.104Z</time></trkpt><trkpt lat="44.4424017" lon="8.9039483"><ele>42.0</ele><time>2026-05-01T08:18:07.104Z</time></trkpt><trkpt lat="44.4426583" lon="8.903945"><ele>42.0</ele><time>2026-05-01T08:18:08.104Z</time></trkpt><trkpt lat="44.44292" lon="8.90394"><ele>42.5</ele><time>2026-05-01T08:18:09.104Z</time></trkpt><trkpt lat="44.4431883" lon="8.9039333"><ele>43.0</ele><time>2026-05-01T08:18:10.104Z</time></trkpt><trkpt lat="44.4434517" lon="8.9039367"><ele>43.0</ele><time>2026-05-01T08:18:11.103Z</time></trkpt><trkpt lat="44.4437117" lon="8.903925"><ele>43.0</ele><time>2026-05-01T08:18:12.104Z</time></trkpt><trkpt lat="44.4442417" lon="8.9039133"><ele>55.5</ele><time>2026-05-01T08:18:14.104Z</time></trkpt><trkpt lat="44.444505" lon="8.903915"><ele>68.0</ele><time>2026-05-01T08:18:15.104Z</time></trkpt><trkpt lat="44.44478" lon="8.90391"><ele>73.0</ele><time>2026-05-01T08:18:16.103Z</time></trkpt><trkpt lat="44.445045" lon="8.9039"><ele>78.0</ele><time>2026-05-01T08:18:17.104Z</time></trkpt><trkpt lat="44.445315" lon="8.903895"><ele>83.0</ele><time>2026-05-01T08:18:18.104Z</time></trkpt><trkpt lat="44.44559" lon="8.9038867"><ele>88.0</ele><time>2026-05-01T08:18:19.104Z</time></trkpt><trkpt lat="44.44587" lon="8.9038817"><ele>88.0</ele><time>2026-05-01T08:18:20.103Z</time></trkpt><trkpt lat="44.4461417" lon="8.9038733"><ele>88.0</ele><time>2026-05-01T08:18:21.104Z</time></trkpt><trkpt lat="44.4464133" lon="8.90386"><ele>90.5</ele><time>2026-05-01T08:18:22.104Z</time></trkpt><trkpt lat="44.4466867" lon="8.9038433"><ele>93.0</ele><time>2026-05-01T08:18:23.103Z</time></trkpt><trkpt lat="44.4469583" lon="8.9038433"><ele>100.0</ele><time>2026-05-01T08:18:24.103Z</time></trkpt><trkpt lat="44.44723" lon="8.903845"><ele>107.0</ele><time>2026-05-01T08:18:25.104Z</time></trkpt><trkpt lat="44.4474933" lon="8.9038433"><ele>107.0</ele><time>2026-05-01T08:18:26.104Z</time></trkpt><trkpt lat="44.44776" lon="8.9038417"><ele>107.0</ele><time>2026-05-01T08:18:27.104Z</time></trkpt><trkpt lat="44.455785" lon="8.903945"><ele>54.0</ele><time>2026-05-01T08:18:57.102Z</time></trkpt><trkpt lat="44.4563167" lon="8.9040817"><ele>54.0</ele><time>2026-05-01T08:18:59.102Z</time></trkpt><trkpt lat="44.4565767" lon="8.9041467"><ele>54.0</ele><time>2026-05-01T08:19:00.103Z</time></trkpt><trkpt lat="44.4568283" lon="8.904205"><ele>58.5</ele><time>2026-05-01T08:19:01.103Z</time></trkpt><trkpt lat="44.4570833" lon="8.904265"><ele>63.0</ele><time>2026-05-01T08:19:02.102Z</time></trkpt><trkpt lat="44.4573433" lon="8.9043283"><ele>72.5</ele><time>2026-05-01T08:19:03.103Z</time></trkpt><trkpt lat="44.4576067" lon="8.9044"><ele>82.0</ele><time>2026-05-01T08:19:04.102Z</time></trkpt><trkpt lat="44.4578667" lon="8.9044583"><ele>87.5</ele><time>2026-05-01T08:19:05.102Z</time></trkpt><trkpt lat="44.4581317" lon="8.9045233"><ele>93.0</ele><time>2026-05-01T08:19:06.103Z</time></trkpt><trkpt lat="44.4584017" lon="8.90458"><ele>93.0</ele><time>2026-05-01T08:19:07.102Z</time></trkpt><trkpt lat="44.4586767" lon="8.9046567"><ele>93.0</ele><time>2026-05-01T08:19:08.103Z</time></trkpt><trkpt lat="44.4589433" lon="8.9047217"><ele>104.0</ele><time>2026-05-01T08:19:09.102Z</time></trkpt><trkpt lat="44.4592067" lon="8.9047933"><ele>115.0</ele><time>2026-05-01T08:19:10.103Z</time></trkpt><trkpt lat="44.4594717" lon="8.9048617"><ele>92.0</ele><time>2026-05-01T08:19:11.103Z</time></trkpt><trkpt lat="44.4654183" lon="8.9063917"><ele>79.0</ele><time>2026-05-01T08:19:32.103Z</time></trkpt><trkpt lat="44.4659283" lon="8.9066533"><ele>87.5</ele><time>2026-05-01T08:19:34.104Z</time></trkpt><trkpt lat="44.4661933" lon="8.9067733"><ele>96.0</ele><time>2026-05-01T08:19:35.104Z</time></trkpt><trkpt lat="44.46646" lon="8.9069"><ele>96.0</ele><time>2026-05-01T08:19:36.103Z</time></trkpt><trkpt lat="44.466735" lon="8.9070133"><ele>96.0</ele><time>2026-05-01T08:19:37.104Z</time></trkpt><trkpt lat="44.4670083" lon="8.9071267"><ele>85.0</ele><time>2026-05-01T08:19:38.104Z</time></trkpt><trkpt lat="44.4672817" lon="8.9072533"><ele>74.0</ele><time>2026-05-01T08:19:39.103Z</time></trkpt><trkpt lat="44.467555" lon="8.9073833"><ele>74.0</ele><time>2026-05-01T08:19:40.103Z</time></trkpt><trkpt lat="44.4678167" lon="8.9075033"><ele>74.0</ele><time>2026-05-01T08:19:41.103Z</time></trkpt><trkpt lat="44.4680683" lon="8.9076367"><ele>89.0</ele><time>2026-05-01T08:19:42.104Z</time></trkpt><trkpt lat="44.4683217" lon="8.9077583"><ele>104.0</ele><time>2026-05-01T08:19:43.104Z</time></trkpt><trkpt lat="44.4685517" lon="8.9078717"><ele>104.0</ele><time>2026-05-01T08:19:44.104Z</time></trkpt><trkpt lat="44.4687733" lon="8.9079967"><ele>104.0</ele><time>2026-05-01T08:19:45.103Z</time></trkpt><trkpt lat="44.4689767" lon="8.9081683"><ele>101.0</ele><time>2026-05-01T08:19:46.103Z</time></trkpt><trkpt lat="44.4691683" lon="8.9083783"><ele>98.0</ele><time>2026-05-01T08:19:47.104Z</time></trkpt><trkpt lat="44.46935" lon="8.9086267"><ele>98.0</ele><time>2026-05-01T08:19:48.103Z</time></trkpt><trkpt lat="44.4695317" lon="8.9088917"><ele>98.0</ele><time>2026-05-01T08:19:49.104Z</time></trkpt><trkpt lat="44.4697067" lon="8.90916"><ele>87.0</ele><time>2026-05-01T08:19:50.104Z</time></trkpt><trkpt lat="44.4698983" lon="8.9094"><ele>76.0</ele><time>2026-05-01T08:19:51.103Z</time></trkpt><trkpt lat="44.47008" lon="8.909635"><ele>76.0</ele><time>2026-05-01T08:19:52.103Z</time></trkpt><trkpt lat="44.4702467" lon="8.9098767"><ele>76.0</ele><time>2026-05-01T08:19:53.103Z</time></trkpt><trkpt lat="44.4706033" lon="8.910325"><ele>75.5</ele><time>2026-05-01T08:19:55.103Z</time></trkpt><trkpt lat="44.4708033" lon="8.9105133"><ele>75.0</ele><time>2026-05-01T08:19:56.103Z</time></trkpt><trkpt lat="44.4710117" lon="8.9106733"><ele>75.0</ele><time>2026-05-01T08:19:57.104Z</time></trkpt><trkpt lat="44.4712383" lon="8.9108017"><ele>75.0</ele><time>2026-05-01T08:19:58.104Z</time></trkpt><trkpt lat="44.4714717" lon="8.91091"><ele>68.5</ele><time>2026-05-01T08:19:59.104Z</time></trkpt><trkpt lat="44.471715" lon="8.9109833"><ele>62.0</ele><time>2026-05-01T08:20:00.104Z</time></trkpt><trkpt lat="44.4719667" lon="8.9110283"><ele>61.0</ele><time>2026-05-01T08:20:01.103Z</time></trkpt><trkpt lat="44.4722233" lon="8.9110383"><ele>60.0</ele><time>2026-05-01T08:20:02.104Z</time></trkpt><trkpt lat="44.4724867" lon="8.9110267"><ele>60.0</ele><time>2026-05-01T08:20:03.104Z</time></trkpt><trkpt lat="44.4727517" lon="8.9109883"><ele>60.0</ele><time>2026-05-01T08:20:04.104Z</time></trkpt><trkpt lat="44.4730133" lon="8.9109333"><ele>59.5</ele><time>2026-05-01T08:20:05.103Z</time></trkpt><trkpt lat="44.47328" lon="8.910875"><ele>59.0</ele><time>2026-05-01T08:20:06.103Z</time></trkpt><trkpt lat="44.4735467" lon="8.910825"><ele>62.5</ele><time>2026-05-01T08:20:07.104Z</time></trkpt><trkpt lat="44.473815" lon="8.9107767"><ele>66.0</ele><time>2026-05-01T08:20:08.103Z</time></trkpt><trkpt lat="44.4740883" lon="8.9107317"><ele>66.0</ele><time>2026-05-01T08:20:09.103Z</time></trkpt><trkpt lat="44.4743533" lon="8.9106833"><ele>66.0</ele><time>2026-05-01T08:20:10.104Z</time></trkpt><trkpt lat="44.4746233" lon="8.91063"><ele>72.5</ele><time>2026-05-01T08:20:11.104Z</time></trkpt><trkpt lat="44.47489" lon="8.9105733"><ele>79.0</ele><time>2026-05-01T08:20:12.104Z</time></trkpt><trkpt lat="44.475155" lon="8.9105217"><ele>79.0</ele><time>2026-05-01T08:20:13.104Z</time></trkpt><trkpt lat="44.4754083" lon="8.9104667"><ele>79.0</ele><time>2026-05-01T08:20:14.104Z</time></trkpt><trkpt lat="44.4759067" lon="8.910385"><ele>82.5</ele><time>2026-05-01T08:20:16.103Z</time></trkpt><trkpt lat="44.4761533" lon="8.9103433"><ele>86.0</ele><time>2026-05-01T08:20:17.103Z</time></trkpt><trkpt lat="44.47641" lon="8.9103217"><ele>89.5</ele><time>2026-05-01T08:20:18.104Z</time></trkpt><trkpt lat="44.4766683" lon="8.9103333"><ele>93.0</ele><time>2026-05-01T08:20:19.103Z</time></trkpt><trkpt lat="44.4769183" lon="8.9103917"><ele>97.0</ele><time>2026-05-01T08:20:20.104Z</time></trkpt><trkpt lat="44.4771583" lon="8.9104883"><ele>101.0</ele><time>2026-05-01T08:20:21.104Z</time></trkpt><trkpt lat="44.47739" lon="8.91061"><ele>101.0</ele><time>2026-05-01T08:20:22.104Z</time></trkpt><trkpt lat="44.477615" lon="8.910755"><ele>101.0</ele><time>2026-05-01T08:20:23.103Z</time></trkpt><trkpt lat="44.4778217" lon="8.9109317"><ele>102.0</ele><time>2026-05-01T08:20:24.103Z</time></trkpt><trkpt lat="44.4780167" lon="8.9111333"><ele>103.0</ele><time>2026-05-01T08:20:25.104Z</time></trkpt><trkpt lat="44.4781783" lon="8.9114"><ele>103.0</ele><time>2026-05-01T08:20:26.104Z</time></trkpt><trkpt lat="44.4783233" lon="8.9116883"><ele>103.0</ele><time>2026-05-01T08:20:27.103Z</time></trkpt><trkpt lat="44.4784567" lon="8.9119817"><ele>102.5</ele><time>2026-05-01T08:20:28.104Z</time></trkpt><trkpt lat="44.478565" lon="8.91229"><ele>102.0</ele><time>2026-05-01T08:20:29.103Z</time></trkpt><trkpt lat="44.4786483" lon="8.9126167"><ele>102.5</ele><time>2026-05-01T08:20:30.104Z</time></trkpt><trkpt lat="44.4787183" lon="8.912955"><ele>103.0</ele><time>2026-05-01T08:20:31.103Z</time></trkpt><trkpt lat="44.47879" lon="8.9133"><ele>106.5</ele><time>2026-05-01T08:20:32.104Z</time></trkpt><trkpt lat="44.47887" lon="8.913635"><ele>110.0</ele><time>2026-05-01T08:20:33.104Z</time></trkpt><trkpt lat="44.4789567" lon="8.9139717"><ele>111.0</ele><time>2026-05-01T08:20:34.104Z</time></trkpt><trkpt lat="44.47905" lon="8.9143067"><ele>112.0</ele><time>2026-05-01T08:20:35.104Z</time></trkpt><trkpt lat="44.4792533" lon="8.91493"><ele>104.5</ele><time>2026-05-01T08:20:37.103Z</time></trkpt><trkpt lat="44.479385" lon="8.915225"><ele>97.0</ele><time>2026-05-01T08:20:38.104Z</time></trkpt><trkpt lat="44.47954" lon="8.9155017"><ele>103.5</ele><time>2026-05-01T08:20:39.103Z</time></trkpt><trkpt lat="44.4797083" lon="8.9157783"><ele>110.0</ele><time>2026-05-01T08:20:40.103Z</time></trkpt><trkpt lat="44.47989" lon="8.9160533"><ele>110.0</ele><time>2026-05-01T08:20:41.103Z</time></trkpt><trkpt lat="44.4800817" lon="8.9163317"><ele>110.0</ele><time>2026-05-01T08:20:42.104Z</time></trkpt><trkpt lat="44.48027" lon="8.9166067"><ele>115.0</ele><time>2026-05-01T08:20:43.103Z</time></trkpt><trkpt lat="44.4804567" lon="8.9168633"><ele>120.0</ele><time>2026-05-01T08:20:44.103Z</time></trkpt><trkpt lat="44.4806417" lon="8.9171083"><ele>120.0</ele><time>2026-05-01T08:20:45.104Z</time></trkpt><trkpt lat="44.4808367" lon="8.91733"><ele>120.0</ele><time>2026-05-01T08:20:46.103Z</time></trkpt><trkpt lat="44.4810383" lon="8.91754"><ele>115.5</ele><time>2026-05-01T08:20:47.104Z</time></trkpt><trkpt lat="44.4812533" lon="8.9177"><ele>111.0</ele><time>2026-05-01T08:20:48.104Z</time></trkpt><trkpt lat="44.481485" lon="8.9178417"><ele>111.0</ele><time>2026-05-01T08:20:49.104Z</time></trkpt><trkpt lat="44.4817267" lon="8.91795"><ele>111.0</ele><time>2026-05-01T08:20:50.104Z</time></trkpt><trkpt lat="44.4819667" lon="8.9180417"><ele>117.5</ele><time>2026-05-01T08:20:51.103Z</time></trkpt><trkpt lat="44.482215" lon="8.91813"><ele>124.0</ele><time>2026-05-01T08:20:52.103Z</time></trkpt><trkpt lat="44.4824633" lon="8.91822"><ele>124.0</ele><time>2026-05-01T08:20:53.103Z</time></trkpt><trkpt lat="44.48272" lon="8.918305"><ele>124.0</ele><time>2026-05-01T08:20:54.103Z</time></trkpt><trkpt lat="44.4829783" lon="8.9183933"><ele>119.5</ele><time>2026-05-01T08:20:55.103Z</time></trkpt><trkpt lat="44.48322" lon="8.9184933"><ele>115.0</ele><time>2026-05-01T08:20:56.103Z</time></trkpt><trkpt lat="44.483725" lon="8.9186433"><ele>117.0</ele><time>2026-05-01T08:20:58.104Z</time></trkpt><trkpt lat="44.4839833" lon="8.9186667"><ele>119.0</ele><time>2026-05-01T08:20:59.103Z</time></trkpt><trkpt lat="44.4842417" lon="8.9186467"><ele>119.0</ele><time>2026-05-01T08:21:00.104Z</time></trkpt><trkpt lat="44.4845" lon="8.918575"><ele>119.0</ele><time>2026-05-01T08:21:01.103Z</time></trkpt><trkpt lat="44.4847483" lon="8.9184517"><ele>125.0</ele><time>2026-05-01T08:21:02.104Z</time></trkpt><trkpt lat="44.4849817" lon="8.9182967"><ele>131.0</ele><time>2026-05-01T08:21:03.103Z</time></trkpt><trkpt lat="44.4851967" lon="8.9181133"><ele>131.0</ele><time>2026-05-01T08:21:04.103Z</time></trkpt><trkpt lat="44.4854" lon="8.9178967"><ele>131.0</ele><time>2026-05-01T08:21:05.103Z</time></trkpt><trkpt lat="44.4855983" lon="8.9176633"><ele>135.0</ele><time>2026-05-01T08:21:06.103Z</time></trkpt><trkpt lat="44.48579" lon="8.9174217"><ele>139.0</ele><time>2026-05-01T08:21:07.103Z</time></trkpt><trkpt lat="44.48598" lon="8.917185"><ele>139.0</ele><time>2026-05-01T08:21:08.103Z</time></trkpt><trkpt lat="44.4861767" lon="8.9169533"><ele>139.0</ele><time>2026-05-01T08:21:09.104Z</time></trkpt><trkpt lat="44.486385" lon="8.916745"><ele>140.0</ele><time>2026-05-01T08:21:10.104Z</time></trkpt><trkpt lat="44.48661" lon="8.9165667"><ele>141.0</ele><time>2026-05-01T08:21:11.103Z</time></trkpt><trkpt lat="44.4868567" lon="8.9164083"><ele>145.0</ele><time>2026-05-01T08:21:12.103Z</time></trkpt><trkpt lat="44.4871233" lon="8.91628"><ele>149.0</ele><time>2026-05-01T08:21:13.103Z</time></trkpt><trkpt lat="44.4873917" lon="8.9161833"><ele>149.0</ele><time>2026-05-01T08:21:14.103Z</time></trkpt><trkpt lat="44.48767" lon="8.9161367"><ele>149.0</ele><time>2026-05-01T08:21:15.104Z</time></trkpt><trkpt lat="44.4879433" lon="8.91613"><ele>149.0</ele><time>2026-05-01T08:21:16.103Z</time></trkpt><trkpt lat="44.4885167" lon="8.91623"><ele>148.5</ele><time>2026-05-01T08:21:18.103Z</time></trkpt><trkpt lat="44.4888033" lon="8.9163517"><ele>148.0</ele><time>2026-05-01T08:21:19.104Z</time></trkpt><trkpt lat="44.4890783" lon="8.916475"><ele>148.0</ele><time>2026-05-01T08:21:20.103Z</time></trkpt><trkpt lat="44.489325" lon="8.9166017"><ele>148.0</ele><time>2026-05-01T08:21:21.103Z</time></trkpt><trkpt lat="44.4895783" lon="8.9167267"><ele>150.5</ele><time>2026-05-01T08:21:22.104Z</time></trkpt><trkpt lat="44.4898267" lon="8.9168383"><ele>153.0</ele><time>2026-05-01T08:21:23.103Z</time></trkpt><trkpt lat="44.4900783" lon="8.9169467"><ele>153.0</ele><time>2026-05-01T08:21:24.104Z</time></trkpt><trkpt lat="44.490335" lon="8.9170467"><ele>153.0</ele><time>2026-05-01T08:21:25.104Z</time></trkpt><trkpt lat="44.490595" lon="8.917165"><ele>152.0</ele><time>2026-05-01T08:21:26.102Z</time></trkpt><trkpt lat="44.4908217" lon="8.9172833"><ele>151.0</ele><time>2026-05-01T08:21:27.103Z</time></trkpt><trkpt lat="44.4910733" lon="8.9173833"><ele>155.5</ele><time>2026-05-01T08:21:28.104Z</time></trkpt><trkpt lat="44.4913133" lon="8.9174883"><ele>160.0</ele><time>2026-05-01T08:21:29.103Z</time></trkpt><trkpt lat="44.4915533" lon="8.9175817"><ele>151.0</ele><time>2026-05-01T08:21:30.103Z</time></trkpt><trkpt lat="44.4917883" lon="8.91768"><ele>142.0</ele><time>2026-05-01T08:21:31.104Z</time></trkpt><trkpt lat="44.492035" lon="8.9177767"><ele>151.0</ele><time>2026-05-01T08:21:32.104Z</time></trkpt><trkpt lat="44.492285" lon="8.9178533"><ele>160.0</ele><time>2026-05-01T08:21:33.104Z</time></trkpt><trkpt lat="44.49253" lon="8.917905"><ele>160.0</ele><time>2026-05-01T08:21:34.103Z</time></trkpt><trkpt lat="44.4927817" lon="8.917915"><ele>160.0</ele><time>2026-05-01T08:21:35.103Z</time></trkpt><trkpt lat="44.4930383" lon="8.9178883"><ele>163.5</ele><time>2026-05-01T08:21:36.103Z</time></trkpt><trkpt lat="44.49329" lon="8.9178333"><ele>167.0</ele><time>2026-05-01T08:21:37.103Z</time></trkpt><trkpt lat="44.4937817" lon="8.9176167"><ele>168.0</ele><time>2026-05-01T08:21:39.104Z</time></trkpt><trkpt lat="44.4940183" lon="8.9174617"><ele>169.0</ele><time>2026-05-01T08:21:40.104Z</time></trkpt><trkpt lat="44.4942467" lon="8.91729"><ele>169.0</ele><time>2026-05-01T08:21:41.103Z</time></trkpt><trkpt lat="44.49448" lon="8.9171133"><ele>169.0</ele><time>2026-05-01T08:21:42.104Z</time></trkpt><trkpt lat="44.494715" lon="8.9169367"><ele>172.5</ele><time>2026-05-01T08:21:43.104Z</time></trkpt><trkpt lat="44.4949483" lon="8.9167667"><ele>176.0</ele><time>2026-05-01T08:21:44.103Z</time></trkpt><trkpt lat="44.4951733" lon="8.9166067"><ele>176.0</ele><time>2026-05-01T08:21:45.103Z</time></trkpt><trkpt lat="44.4954083" lon="8.9164633"><ele>176.0</ele><time>2026-05-01T08:21:46.104Z</time></trkpt><trkpt lat="44.4956433" lon="8.9163417"><ele>167.0</ele><time>2026-05-01T08:21:47.103Z</time></trkpt><trkpt lat="44.4958783" lon="8.9162533"><ele>158.0</ele><time>2026-05-01T08:21:48.104Z</time></trkpt><trkpt lat="44.4961217" lon="8.91619"><ele>161.0</ele><time>2026-05-01T08:21:49.104Z</time></trkpt><trkpt lat="44.4963733" lon="8.9161483"><ele>164.0</ele><time>2026-05-01T08:21:50.104Z</time></trkpt><trkpt lat="44.4966233" lon="8.91615"><ele>164.0</ele><time>2026-05-01T08:21:51.103Z</time></trkpt><trkpt lat="44.4968667" lon="8.91618"><ele>164.0</ele><time>2026-05-01T08:21:52.104Z</time></trkpt><trkpt lat="44.4971167" lon="8.91623"><ele>169.5</ele><time>2026-05-01T08:21:53.103Z</time></trkpt><trkpt lat="44.4973583" lon="8.91632"><ele>175.0</ele><time>2026-05-01T08:21:54.103Z</time></trkpt><trkpt lat="44.4976" lon="8.9164383"><ele>175.0</ele><time>2026-05-01T08:21:55.104Z</time></trkpt><trkpt lat="44.4978383" lon="8.91657"><ele>175.0</ele><time>2026-05-01T08:21:56.103Z</time></trkpt><trkpt lat="44.4980583" lon="8.9166817"><ele>175.5</ele><time>2026-05-01T08:21:57.104Z</time></trkpt><trkpt lat="44.4982717" lon="8.9167783"><ele>176.0</ele><time>2026-05-01T08:21:58.103Z</time></trkpt><trkpt lat="44.498735" lon="8.916915"><ele>176.5</ele><time>2026-05-01T08:22:00.103Z</time></trkpt><trkpt lat="44.4989767" lon="8.91695"><ele>177.0</ele><time>2026-05-01T08:22:01.104Z</time></trkpt><trkpt lat="44.4992267" lon="8.9169617"><ele>177.0</ele><time>2026-05-01T08:22:02.104Z</time></trkpt><trkpt lat="44.49948" lon="8.9169567"><ele>177.0</ele><time>2026-05-01T08:22:03.103Z</time></trkpt><trkpt lat="44.4997383" lon="8.916955"><ele>178.0</ele><time>2026-05-01T08:22:04.103Z</time></trkpt><trkpt lat="44.4999917" lon="8.9169683"><ele>179.0</ele><time>2026-05-01T08:22:05.104Z</time></trkpt><trkpt lat="44.5002333" lon="8.91701"><ele>185.0</ele><time>2026-05-01T08:22:06.104Z</time></trkpt><trkpt lat="44.5004783" lon="8.9170767"><ele>191.0</ele><time>2026-05-01T08:22:07.103Z</time></trkpt><trkpt lat="44.5007117" lon="8.9171667"><ele>191.0</ele><time>2026-05-01T08:22:08.104Z</time></trkpt><trkpt lat="44.5009417" lon="8.917295"><ele>191.0</ele><time>2026-05-01T08:22:09.103Z</time></trkpt><trkpt lat="44.5011683" lon="8.917445"><ele>193.5</ele><time>2026-05-01T08:22:10.104Z</time></trkpt><trkpt lat="44.5013933" lon="8.9176133"><ele>196.0</ele><time>2026-05-01T08:22:11.103Z</time></trkpt><trkpt lat="44.5016067" lon="8.9178"><ele>196.0</ele><time>2026-05-01T08:22:12.103Z</time></trkpt><trkpt lat="44.5018117" lon="8.9179867"><ele>196.0</ele><time>2026-05-01T08:22:13.103Z</time></trkpt><trkpt lat="44.5020083" lon="8.918165"><ele>201.5</ele><time>2026-05-01T08:22:14.104Z</time></trkpt><trkpt lat="44.50221" lon="8.9183417"><ele>207.0</ele><time>2026-05-01T08:22:15.103Z</time></trkpt><trkpt lat="44.50241" lon="8.91853"><ele>207.0</ele><time>2026-05-01T08:22:16.104Z</time></trkpt><trkpt lat="44.50262" lon="8.9186967"><ele>207.0</ele><time>2026-05-01T08:22:17.104Z</time></trkpt><trkpt lat="44.50283" lon="8.9188567"><ele>210.5</ele><time>2026-05-01T08:22:18.103Z</time></trkpt><trkpt lat="44.5030467" lon="8.91899"><ele>214.0</ele><time>2026-05-01T08:22:19.104Z</time></trkpt><trkpt lat="44.5035033" lon="8.9192"><ele>207.5</ele><time>2026-05-01T08:22:21.104Z</time></trkpt><trkpt lat="44.50374" lon="8.919285"><ele>201.0</ele><time>2026-05-01T08:22:22.103Z</time></trkpt><trkpt lat="44.5039767" lon="8.91938"><ele>201.0</ele><time>2026-05-01T08:22:23.104Z</time></trkpt><trkpt lat="44.5042117" lon="8.9194883"><ele>201.0</ele><time>2026-05-01T08:22:24.103Z</time></trkpt><trkpt lat="44.5044267" lon="8.91964"><ele>206.0</ele><time>2026-05-01T08:22:25.104Z</time></trkpt><trkpt lat="44.5046333" lon="8.9198233"><ele>211.0</ele><time>2026-05-01T08:22:26.104Z</time></trkpt><trkpt lat="44.5048233" lon="8.9200467"><ele>205.0</ele><time>2026-05-01T08:22:27.103Z</time></trkpt><trkpt lat="44.5049933" lon="8.9202867"><ele>199.0</ele><time>2026-05-01T08:22:28.104Z</time></trkpt><trkpt lat="44.5051467" lon="8.92056"><ele>199.0</ele><time>2026-05-01T08:22:29.104Z</time></trkpt><trkpt lat="44.5052817" lon="8.92086"><ele>199.0</ele><time>2026-05-01T08:22:30.103Z</time></trkpt><trkpt lat="44.50539" lon="8.9211717"><ele>214.5</ele><time>2026-05-01T08:22:31.104Z</time></trkpt><trkpt lat="44.505485" lon="8.9214883"><ele>230.0</ele><time>2026-05-01T08:22:32.103Z</time></trkpt><trkpt lat="44.5055767" lon="8.921815"><ele>230.5</ele><time>2026-05-01T08:22:33.103Z</time></trkpt><trkpt lat="44.5056617" lon="8.922155"><ele>231.0</ele><time>2026-05-01T08:22:34.103Z</time></trkpt><trkpt lat="44.5057467" lon="8.92249"><ele>223.0</ele><time>2026-05-01T08:22:35.104Z</time></trkpt><trkpt lat="44.5058417" lon="8.922825"><ele>215.0</ele><time>2026-05-01T08:22:36.103Z</time></trkpt><trkpt lat="44.50594" lon="8.9231583"><ele>208.0</ele><time>2026-05-01T08:22:37.103Z</time></trkpt><trkpt lat="44.5060467" lon="8.923495"><ele>201.0</ele><time>2026-05-01T08:22:38.104Z</time></trkpt><trkpt lat="44.5061717" lon="8.9238083"><ele>207.5</ele><time>2026-05-01T08:22:39.104Z</time></trkpt><trkpt lat="44.5063067" lon="8.92409"><ele>214.0</ele><time>2026-05-01T08:22:40.104Z</time></trkpt><trkpt lat="44.5066267" lon="8.9245433"><ele>214.0</ele><time>2026-05-01T08:22:42.104Z</time></trkpt><trkpt lat="44.506805" lon="8.9247317"><ele>214.0</ele><time>2026-05-01T08:22:43.103Z</time></trkpt><trkpt lat="44.5069917" lon="8.9248967"><ele>214.0</ele><time>2026-05-01T08:22:44.103Z</time></trkpt><trkpt lat="44.5071867" lon="8.9250233"><ele>210.0</ele><time>2026-05-01T08:22:45.103Z</time></trkpt><trkpt lat="44.50738" lon="8.925135"><ele>206.0</ele><time>2026-05-01T08:22:46.103Z</time></trkpt><trkpt lat="44.5075833" lon="8.9252133"><ele>202.0</ele><time>2026-05-01T08:22:47.103Z</time></trkpt><trkpt lat="44.5077933" lon="8.92528"><ele>209.66666666666666</ele><time>2026-05-01T08:22:48.103Z</time></trkpt><trkpt lat="44.508005" lon="8.9253433"><ele>217.33333333333331</ele><time>2026-05-01T08:22:49.103Z</time></trkpt><trkpt lat="44.508225" lon="8.9254017"><ele>225.0</ele><time>2026-05-01T08:22:50.104Z</time></trkpt><trkpt lat="44.5084483" lon="8.925465"><ele>225.0</ele><time>2026-05-01T08:22:51.104Z</time></trkpt><trkpt lat="44.5086717" lon="8.9255317"><ele>225.0</ele><time>2026-05-01T08:22:52.104Z</time></trkpt><trkpt lat="44.5088983" lon="8.9256067"><ele>226.0</ele><time>2026-05-01T08:22:53.103Z</time></trkpt><trkpt lat="44.5091283" lon="8.9256733"><ele>227.0</ele><time>2026-05-01T08:22:54.104Z</time></trkpt><trkpt lat="44.5093567" lon="8.9257417"><ele>231.0</ele><time>2026-05-01T08:22:55.103Z</time></trkpt><trkpt lat="44.509595" lon="8.9258083"><ele>235.0</ele><time>2026-05-01T08:22:56.104Z</time></trkpt><trkpt lat="44.5098333" lon="8.9258767"><ele>228.5</ele><time>2026-05-01T08:22:57.103Z</time></trkpt><trkpt lat="44.51007" lon="8.9259483"><ele>222.0</ele><time>2026-05-01T08:22:58.103Z</time></trkpt><trkpt lat="44.5103117" lon="8.92601"><ele>230.5</ele><time>2026-05-01T08:22:59.104Z</time></trkpt><trkpt lat="44.5105467" lon="8.9260733"><ele>239.0</ele><time>2026-05-01T08:23:00.104Z</time></trkpt><trkpt lat="44.5107883" lon="8.9261383"><ele>247.0</ele><time>2026-05-01T08:23:01.103Z</time></trkpt><trkpt lat="44.51128" lon="8.926265"><ele>247.0</ele><time>2026-05-01T08:23:03.103Z</time></trkpt><trkpt lat="44.5115267" lon="8.9263317"><ele>247.0</ele><time>2026-05-01T08:23:04.104Z</time></trkpt><trkpt lat="44.5117683" lon="8.926415"><ele>247.0</ele><time>2026-05-01T08:23:05.103Z</time></trkpt><trkpt lat="44.5119917" lon="8.9265433"><ele>247.0</ele><time>2026-05-01T08:23:06.104Z</time></trkpt><trkpt lat="44.5122083" lon="8.9266983"><ele>243.0</ele><time>2026-05-01T08:23:07.103Z</time></trkpt><trkpt lat="44.5124" lon="8.9268817"><ele>239.0</ele><time>2026-05-01T08:23:08.104Z</time></trkpt><trkpt lat="44.5125733" lon="8.927085"><ele>239.0</ele><time>2026-05-01T08:23:09.104Z</time></trkpt><trkpt lat="44.5127283" lon="8.9273217"><ele>239.0</ele><time>2026-05-01T08:23:10.104Z</time></trkpt><trkpt lat="44.5128717" lon="8.927575"><ele>249.0</ele><time>2026-05-01T08:23:11.103Z</time></trkpt><trkpt lat="44.513" lon="8.9278467"><ele>259.0</ele><time>2026-05-01T08:23:12.104Z</time></trkpt><trkpt lat="44.5131133" lon="8.9281367"><ele>260.0</ele><time>2026-05-01T08:23:13.104Z</time></trkpt><trkpt lat="44.5132067" lon="8.92843"><ele>261.0</ele><time>2026-05-01T08:23:14.104Z</time></trkpt><trkpt lat="44.513275" lon="8.9287367"><ele>261.0</ele><time>2026-05-01T08:23:15.104Z</time></trkpt><trkpt lat="44.51332" lon="8.9290517"><ele>261.0</ele><time>2026-05-01T08:23:16.103Z</time></trkpt><trkpt lat="44.5133467" lon="8.92937"><ele>268.0</ele><time>2026-05-01T08:23:17.103Z</time></trkpt><trkpt lat="44.5133583" lon="8.9296917"><ele>275.0</ele><time>2026-05-01T08:23:18.103Z</time></trkpt><trkpt lat="44.51338" lon="8.930015"><ele>274.5</ele><time>2026-05-01T08:23:19.104Z</time></trkpt><trkpt lat="44.5133983" lon="8.93033"><ele>274.0</ele><time>2026-05-01T08:23:20.103Z</time></trkpt><trkpt lat="44.5134233" lon="8.9306433"><ele>268.0</ele><time>2026-05-01T08:23:21.104Z</time></trkpt><trkpt lat="44.5134" lon="8.9309767"><ele>262.0</ele><time>2026-05-01T08:23:22.104Z</time></trkpt><trkpt lat="44.51326" lon="8.93163"><ele>257.0</ele><time>2026-05-01T08:23:24.103Z</time></trkpt><trkpt lat="44.5132083" lon="8.9319483"><ele>252.0</ele><time>2026-05-01T08:23:25.104Z</time></trkpt><trkpt lat="44.5131933" lon="8.932255"><ele>252.0</ele><time>2026-05-01T08:23:26.103Z</time></trkpt><trkpt lat="44.5132083" lon="8.9325533"><ele>252.0</ele><time>2026-05-01T08:23:27.103Z</time></trkpt><trkpt lat="44.5132533" lon="8.9328467"><ele>252.0</ele><time>2026-05-01T08:23:28.104Z</time></trkpt><trkpt lat="44.5133167" lon="8.9331367"><ele>259.5</ele><time>2026-05-01T08:23:29.103Z</time></trkpt><trkpt lat="44.51341" lon="8.93342"><ele>267.0</ele><time>2026-05-01T08:23:30.103Z</time></trkpt><trkpt lat="44.5135217" lon="8.9336983"><ele>267.0</ele><time>2026-05-01T08:23:31.103Z</time></trkpt><trkpt lat="44.5136483" lon="8.9339583"><ele>267.0</ele><time>2026-05-01T08:23:32.103Z</time></trkpt><trkpt lat="44.513795" lon="8.9342033"><ele>269.0</ele><time>2026-05-01T08:23:33.103Z</time></trkpt><trkpt lat="44.5139617" lon="8.93442"><ele>271.0</ele><time>2026-05-01T08:23:34.103Z</time></trkpt><trkpt lat="44.5141483" lon="8.93461"><ele>271.0</ele><time>2026-05-01T08:23:35.104Z</time></trkpt><trkpt lat="44.514345" lon="8.9347683"><ele>271.0</ele><time>2026-05-01T08:23:36.103Z</time></trkpt><trkpt lat="44.5145533" lon="8.9348933"><ele>274.0</ele><time>2026-05-01T08:23:37.103Z</time></trkpt><trkpt lat="44.514755" lon="8.934995"><ele>277.0</ele><time>2026-05-01T08:23:38.103Z</time></trkpt><trkpt lat="44.5149567" lon="8.9350633"><ele>280.0</ele><time>2026-05-01T08:23:39.104Z</time></trkpt><trkpt lat="44.515165" lon="8.9351067"><ele>272.0</ele><time>2026-05-01T08:23:40.104Z</time></trkpt><trkpt lat="44.515375" lon="8.935125"><ele>264.0</ele><time>2026-05-01T08:23:41.104Z</time></trkpt><trkpt lat="44.515585" lon="8.935125"><ele>256.0</ele><time>2026-05-01T08:23:42.104Z</time></trkpt><trkpt lat="44.5158033" lon="8.9350917"><ele>256.0</ele><time>2026-05-01T08:23:43.103Z</time></trkpt><trkpt lat="44.5162283" lon="8.9350233"><ele>256.0</ele><time>2026-05-01T08:23:45.104Z</time></trkpt><trkpt lat="44.5164233" lon="8.9349883"><ele>256.0</ele><time>2026-05-01T08:23:46.103Z</time></trkpt><trkpt lat="44.516615" lon="8.9349483"><ele>256.0</ele><time>2026-05-01T08:23:47.103Z</time></trkpt><trkpt lat="44.5168133" lon="8.93491"><ele>256.0</ele><time>2026-05-01T08:23:48.102Z</time></trkpt><trkpt lat="44.5170183" lon="8.9348917"><ele>259.3333333333333</ele><time>2026-05-01T08:23:49.103Z</time></trkpt><trkpt lat="44.5172333" lon="8.9348983"><ele>262.6666666666667</ele><time>2026-05-01T08:23:50.103Z</time></trkpt><trkpt lat="44.5174483" lon="8.9349383"><ele>266.0</ele><time>2026-05-01T08:23:51.102Z</time></trkpt><trkpt lat="44.5176617" lon="8.935005"><ele>262.6666666666667</ele><time>2026-05-01T08:23:52.103Z</time></trkpt><trkpt lat="44.5178667" lon="8.9351017"><ele>259.3333333333333</ele><time>2026-05-01T08:23:53.102Z</time></trkpt><trkpt lat="44.51806" lon="8.935225"><ele>256.0</ele><time>2026-05-01T08:23:54.103Z</time></trkpt><trkpt lat="44.5182517" lon="8.93536"><ele>254.33333333333331</ele><time>2026-05-01T08:23:55.102Z</time></trkpt><trkpt lat="44.518435" lon="8.9355083"><ele>252.66666666666669</ele><time>2026-05-01T08:23:56.102Z</time></trkpt><trkpt lat="44.5186233" lon="8.93564"><ele>251.0</ele><time>2026-05-01T08:23:57.102Z</time></trkpt><trkpt lat="44.51881" lon="8.9357733"><ele>256.6666666666667</ele><time>2026-05-01T08:23:58.102Z</time></trkpt><trkpt lat="44.5190067" lon="8.935905"><ele>262.3333333333333</ele><time>2026-05-01T08:23:59.103Z</time></trkpt><trkpt lat="44.5192067" lon="8.9360367"><ele>268.0</ele><time>2026-05-01T08:24:00.102Z</time></trkpt><trkpt lat="44.519405" lon="8.9361683"><ele>275.3333333333333</ele><time>2026-05-01T08:24:01.103Z</time></trkpt><trkpt lat="44.519605" lon="8.9363033"><ele>282.6666666666667</ele><time>2026-05-01T08:24:02.102Z</time></trkpt><trkpt lat="44.5198117" lon="8.93642"><ele>290.0</ele><time>2026-05-01T08:24:03.103Z</time></trkpt><trkpt lat="44.520025" lon="8.936515"><ele>294.5</ele><time>2026-05-01T08:24:04.102Z</time></trkpt><trkpt lat="44.5204483" lon="8.9366433"><ele>299.0</ele><time>2026-05-01T08:24:06.103Z</time></trkpt><trkpt lat="44.5206717" lon="8.9366517"><ele>299.0</ele><time>2026-05-01T08:24:07.103Z</time></trkpt><trkpt lat="44.5209033" lon="8.936615"><ele>299.0</ele><time>2026-05-01T08:24:08.103Z</time></trkpt><trkpt lat="44.521135" lon="8.9365467"><ele>296.5</ele><time>2026-05-01T08:24:09.103Z</time></trkpt><trkpt lat="44.521365" lon="8.9364717"><ele>294.0</ele><time>2026-05-01T08:24:10.102Z</time></trkpt><trkpt lat="44.5216033" lon="8.936405"><ele>294.0</ele><time>2026-05-01T08:24:11.103Z</time></trkpt><trkpt lat="44.5218533" lon="8.9363317"><ele>294.0</ele><time>2026-05-01T08:24:12.102Z</time></trkpt><trkpt lat="44.522105" lon="8.936255"><ele>294.0</ele><time>2026-05-01T08:24:13.102Z</time></trkpt><trkpt lat="44.5223583" lon="8.9361917"><ele>294.0</ele><time>2026-05-01T08:24:14.103Z</time></trkpt><trkpt lat="44.5226083" lon="8.936155"><ele>294.0</ele><time>2026-05-01T08:24:15.103Z</time></trkpt><trkpt lat="44.5228467" lon="8.936145"><ele>294.0</ele><time>2026-05-01T08:24:16.102Z</time></trkpt><trkpt lat="44.5230867" lon="8.9361517"><ele>308.5</ele><time>2026-05-01T08:24:17.102Z</time></trkpt><trkpt lat="44.52333" lon="8.9361567"><ele>323.0</ele><time>2026-05-01T08:24:18.102Z</time></trkpt><trkpt lat="44.5235817" lon="8.936155"><ele>324.0</ele><time>2026-05-01T08:24:19.103Z</time></trkpt><trkpt lat="44.5238333" lon="8.936145"><ele>325.0</ele><time>2026-05-01T08:24:20.103Z</time></trkpt><trkpt lat="44.5243367" lon="8.93619"><ele>325.0</ele><time>2026-05-01T08:24:22.101Z</time></trkpt><trkpt lat="44.5245733" lon="8.93656"><ele>325.0</ele><time>2026-05-01T08:24:23.1Z</time></trkpt><trkpt lat="44.5247833" lon="8.9370033"><ele>308.0</ele><time>2026-05-01T08:24:24.101Z</time></trkpt><trkpt lat="44.525135" lon="8.9374733"><ele>307.0</ele><time>2026-05-01T08:24:26.101Z</time></trkpt><trkpt lat="44.5253283" lon="8.937615"><ele>306.0</ele><time>2026-05-01T08:24:27.1Z</time></trkpt><trkpt lat="44.5255233" lon="8.9377583"><ele>305.0</ele><time>2026-05-01T08:24:28.1Z</time></trkpt><trkpt lat="44.5257117" lon="8.9378917"><ele>305.0</ele><time>2026-05-01T08:24:29.1Z</time></trkpt><trkpt lat="44.5259017" lon="8.93802"><ele>305.0</ele><time>2026-05-01T08:24:30.101Z</time></trkpt><trkpt lat="44.526095" lon="8.9381283"><ele>305.0</ele><time>2026-05-01T08:24:31.101Z</time></trkpt><trkpt lat="44.5262833" lon="8.9382417"><ele>307.0</ele><time>2026-05-01T08:24:32.101Z</time></trkpt><trkpt lat="44.5264767" lon="8.93836"><ele>309.0</ele><time>2026-05-01T08:24:33.101Z</time></trkpt><trkpt lat="44.5266683" lon="8.938475"><ele>311.0</ele><time>2026-05-01T08:24:34.101Z</time></trkpt><trkpt lat="44.52686" lon="8.9385817"><ele>305.33333333333337</ele><time>2026-05-01T08:24:35.101Z</time></trkpt><trkpt lat="44.5270567" lon="8.9386833"><ele>299.6666666666667</ele><time>2026-05-01T08:24:36.1Z</time></trkpt><trkpt lat="44.5272483" lon="8.938785"><ele>294.0</ele><time>2026-05-01T08:24:37.1Z</time></trkpt><trkpt lat="44.5274417" lon="8.9388833"><ele>293.6666666666667</ele><time>2026-05-01T08:24:38.1Z</time></trkpt><trkpt lat="44.5276367" lon="8.938985"><ele>293.33333333333337</ele><time>2026-05-01T08:24:39.101Z</time></trkpt><trkpt lat="44.52783" lon="8.9390767"><ele>293.0</ele><time>2026-05-01T08:24:40.1Z</time></trkpt><trkpt lat="44.52802" lon="8.93918"><ele>294.6666666666667</ele><time>2026-05-01T08:24:41.1Z</time></trkpt><trkpt lat="44.5282167" lon="8.9392883"><ele>296.3333333333333</ele><time>2026-05-01T08:24:42.101Z</time></trkpt><trkpt lat="44.528415" lon="8.9393883"><ele>298.0</ele><time>2026-05-01T08:24:43.1Z</time></trkpt><trkpt lat="44.5286133" lon="8.9394967"><ele>310.5</ele><time>2026-05-01T08:24:44.101Z</time></trkpt><trkpt lat="44.52881" lon="8.9396033"><ele>323.0</ele><time>2026-05-01T08:24:45.101Z</time></trkpt><trkpt lat="44.529215" lon="8.9398033"><ele>323.0</ele><time>2026-05-01T08:24:47.101Z</time></trkpt><trkpt lat="44.5294183" lon="8.939905"><ele>323.0</ele><time>2026-05-01T08:24:48.1Z</time></trkpt><trkpt lat="44.5296283" lon="8.9400133"><ele>323.0</ele><time>2026-05-01T08:24:49.101Z</time></trkpt><trkpt lat="44.52984" lon="8.9401133"><ele>330.5</ele><time>2026-05-01T08:24:50.1Z</time></trkpt><trkpt lat="44.5300583" lon="8.9402033"><ele>338.0</ele><time>2026-05-01T08:24:51.101Z</time></trkpt><trkpt lat="44.53028" lon="8.940295"><ele>342.5</ele><time>2026-05-01T08:24:52.101Z</time></trkpt><trkpt lat="44.5305067" lon="8.9403683"><ele>347.0</ele><time>2026-05-01T08:24:53.101Z</time></trkpt><trkpt lat="44.5307383" lon="8.9404417"><ele>347.0</ele><time>2026-05-01T08:24:54.101Z</time></trkpt><trkpt lat="44.5309733" lon="8.9405183"><ele>347.0</ele><time>2026-05-01T08:24:55.101Z</time></trkpt><trkpt lat="44.5312167" lon="8.9405867"><ele>359.5</ele><time>2026-05-01T08:24:56.1Z</time></trkpt><trkpt lat="44.5314633" lon="8.940665"><ele>372.0</ele><time>2026-05-01T08:24:57.1Z</time></trkpt><trkpt lat="44.53171" lon="8.9407433"><ele>372.0</ele><time>2026-05-01T08:24:58.101Z</time></trkpt><trkpt lat="44.531965" lon="8.94083"><ele>372.0</ele><time>2026-05-01T08:24:59.1Z</time></trkpt><trkpt lat="44.532215" lon="8.94091"><ele>384.0</ele><time>2026-05-01T08:25:00.1Z</time></trkpt><trkpt lat="44.532465" lon="8.9409917"><ele>396.0</ele><time>2026-05-01T08:25:01.1Z</time></trkpt><trkpt lat="44.5327017" lon="8.9410833"><ele>395.5</ele><time>2026-05-01T08:25:02.1Z</time></trkpt><trkpt lat="44.532935" lon="8.94118"><ele>395.0</ele><time>2026-05-01T08:25:03.101Z</time></trkpt><trkpt lat="44.5349267" lon="8.9419"><ele>385.5</ele><time>2026-05-01T08:25:12.102Z</time></trkpt><trkpt lat="44.5353217" lon="8.9420433"><ele>376.0</ele><time>2026-05-01T08:25:14.103Z</time></trkpt><trkpt lat="44.5355317" lon="8.9421233"><ele>371.0</ele><time>2026-05-01T08:25:15.102Z</time></trkpt><trkpt lat="44.5357617" lon="8.9422267"><ele>366.0</ele><time>2026-05-01T08:25:16.102Z</time></trkpt><trkpt lat="44.535965" lon="8.94235"><ele>366.0</ele><time>2026-05-01T08:25:17.103Z</time></trkpt><trkpt lat="44.5361517" lon="8.9424983"><ele>366.0</ele><time>2026-05-01T08:25:18.103Z</time></trkpt><trkpt lat="44.5363567" lon="8.94264"><ele>366.0</ele><time>2026-05-01T08:25:19.102Z</time></trkpt><trkpt lat="44.5365633" lon="8.9427833"><ele>372.0</ele><time>2026-05-01T08:25:20.103Z</time></trkpt><trkpt lat="44.5367833" lon="8.942905"><ele>378.0</ele><time>2026-05-01T08:25:21.102Z</time></trkpt><trkpt lat="44.5369967" lon="8.943005"><ele>367.0</ele><time>2026-05-01T08:25:22.102Z</time></trkpt><trkpt lat="44.5372167" lon="8.9430667"><ele>356.0</ele><time>2026-05-01T08:25:23.102Z</time></trkpt><trkpt lat="44.5374517" lon="8.9430933"><ele>356.0</ele><time>2026-05-01T08:25:24.103Z</time></trkpt><trkpt lat="44.53769" lon="8.943085"><ele>356.0</ele><time>2026-05-01T08:25:25.102Z</time></trkpt><trkpt lat="44.5379383" lon="8.9430767"><ele>346.6666666666667</ele><time>2026-05-01T08:25:26.102Z</time></trkpt><trkpt lat="44.53816" lon="8.943015"><ele>337.3333333333333</ele><time>2026-05-01T08:25:27.103Z</time></trkpt><trkpt lat="44.5383667" lon="8.94292"><ele>328.0</ele><time>2026-05-01T08:25:28.102Z</time></trkpt><trkpt lat="44.538555" lon="8.9428117"><ele>316.66666666666663</ele><time>2026-05-01T08:25:29.103Z</time></trkpt><trkpt lat="44.5387383" lon="8.9426817"><ele>305.3333333333333</ele><time>2026-05-01T08:25:30.102Z</time></trkpt><trkpt lat="44.53891" lon="8.9425317"><ele>294.0</ele><time>2026-05-01T08:25:31.103Z</time></trkpt><trkpt lat="44.5390783" lon="8.942375"><ele>294.0</ele><time>2026-05-01T08:25:32.102Z</time></trkpt><trkpt lat="44.5392433" lon="8.9422067"><ele>294.0</ele><time>2026-05-01T08:25:33.103Z</time></trkpt><trkpt lat="44.5395767" lon="8.941885"><ele>301.0</ele><time>2026-05-01T08:25:35.102Z</time></trkpt><trkpt lat="44.53974" lon="8.9417233"><ele>308.0</ele><time>2026-05-01T08:25:36.102Z</time></trkpt><trkpt lat="44.5399133" lon="8.9415583"><ele>315.0</ele><time>2026-05-01T08:25:37.102Z</time></trkpt><trkpt lat="44.5400917" lon="8.9413883"><ele>318.0</ele><time>2026-05-01T08:25:38.102Z</time></trkpt><trkpt lat="44.5402783" lon="8.9412083"><ele>321.0</ele><time>2026-05-01T08:25:39.103Z</time></trkpt><trkpt lat="44.540485" lon="8.94104"><ele>335.5</ele><time>2026-05-01T08:25:40.102Z</time></trkpt><trkpt lat="44.5406983" lon="8.940895"><ele>350.0</ele><time>2026-05-01T08:25:41.102Z</time></trkpt><trkpt lat="44.540915" lon="8.9407983"><ele>350.0</ele><time>2026-05-01T08:25:42.102Z</time></trkpt><trkpt lat="44.5411517" lon="8.940705"><ele>350.0</ele><time>2026-05-01T08:25:43.103Z</time></trkpt><trkpt lat="44.5413933" lon="8.940665"><ele>360.0</ele><time>2026-05-01T08:25:44.103Z</time></trkpt><trkpt lat="44.5416417" lon="8.9406733"><ele>370.0</ele><time>2026-05-01T08:25:45.102Z</time></trkpt><trkpt lat="44.5418883" lon="8.9407"><ele>363.5</ele><time>2026-05-01T08:25:46.103Z</time></trkpt><trkpt lat="44.5421233" lon="8.940765"><ele>357.0</ele><time>2026-05-01T08:25:47.102Z</time></trkpt><trkpt lat="44.5423483" lon="8.9408683"><ele>373.5</ele><time>2026-05-01T08:25:48.102Z</time></trkpt><trkpt lat="44.5425683" lon="8.9409983"><ele>390.0</ele><time>2026-05-01T08:25:49.103Z</time></trkpt><trkpt lat="44.5427933" lon="8.9411617"><ele>380.0</ele><time>2026-05-01T08:25:50.102Z</time></trkpt><trkpt lat="44.543015" lon="8.9413333"><ele>370.0</ele><time>2026-05-01T08:25:51.103Z</time></trkpt><trkpt lat="44.5432383" lon="8.94151"><ele>370.0</ele><time>2026-05-01T08:25:52.102Z</time></trkpt><trkpt lat="44.54346" lon="8.9416767"><ele>370.0</ele><time>2026-05-01T08:25:53.103Z</time></trkpt><trkpt lat="44.54368" lon="8.9418567"><ele>384.0</ele><time>2026-05-01T08:25:54.102Z</time></trkpt><trkpt lat="44.544125" lon="8.942195"><ele>384.0</ele><time>2026-05-01T08:25:56.102Z</time></trkpt><trkpt lat="44.5443433" lon="8.9423533"><ele>384.0</ele><time>2026-05-01T08:25:57.102Z</time></trkpt><trkpt lat="44.54456" lon="8.9425133"><ele>391.5</ele><time>2026-05-01T08:25:58.102Z</time></trkpt><trkpt lat="44.5447683" lon="8.9426817"><ele>399.0</ele><time>2026-05-01T08:25:59.103Z</time></trkpt><trkpt lat="44.5449767" lon="8.9428533"><ele>399.0</ele><time>2026-05-01T08:26:00.103Z</time></trkpt><trkpt lat="44.5451917" lon="8.943005"><ele>399.0</ele><time>2026-05-01T08:26:01.103Z</time></trkpt><trkpt lat="44.5454183" lon="8.943175"><ele>400.5</ele><time>2026-05-01T08:26:02.102Z</time></trkpt><trkpt lat="44.5456317" lon="8.9433467"><ele>402.0</ele><time>2026-05-01T08:26:03.103Z</time></trkpt><trkpt lat="44.54584" lon="8.9435117"><ele>402.0</ele><time>2026-05-01T08:26:04.103Z</time></trkpt><trkpt lat="44.54604" lon="8.9436617"><ele>402.0</ele><time>2026-05-01T08:26:05.102Z</time></trkpt><trkpt lat="44.54623" lon="8.9438017"><ele>402.0</ele><time>2026-05-01T08:26:06.102Z</time></trkpt><trkpt lat="44.54641" lon="8.943935"><ele>407.0</ele><time>2026-05-01T08:26:07.102Z</time></trkpt><trkpt lat="44.5465883" lon="8.9440733"><ele>412.0</ele><time>2026-05-01T08:26:08.102Z</time></trkpt><trkpt lat="44.5467617" lon="8.94421"><ele>417.0</ele><time>2026-05-01T08:26:09.102Z</time></trkpt><trkpt lat="44.5469417" lon="8.9443467"><ele>410.0</ele><time>2026-05-01T08:26:10.102Z</time></trkpt><trkpt lat="44.5471133" lon="8.944485"><ele>403.0</ele><time>2026-05-01T08:26:11.102Z</time></trkpt><trkpt lat="44.54728" lon="8.9446183"><ele>396.0</ele><time>2026-05-01T08:26:12.102Z</time></trkpt><trkpt lat="44.5474517" lon="8.9447333"><ele>396.0</ele><time>2026-05-01T08:26:13.103Z</time></trkpt><trkpt lat="44.5476267" lon="8.9448383"><ele>396.0</ele><time>2026-05-01T08:26:14.102Z</time></trkpt><trkpt lat="44.5478033" lon="8.9449133"><ele>396.0</ele><time>2026-05-01T08:26:15.103Z</time></trkpt><trkpt lat="44.5481833" lon="8.9449983"><ele>391.0</ele><time>2026-05-01T08:26:17.103Z</time></trkpt><trkpt lat="44.5483683" lon="8.9450083"><ele>386.0</ele><time>2026-05-01T08:26:18.102Z</time></trkpt><trkpt lat="44.5485367" lon="8.9450017"><ele>381.0</ele><time>2026-05-01T08:26:19.102Z</time></trkpt><trkpt lat="44.548705" lon="8.94498"><ele>384.33333333333337</ele><time>2026-05-01T08:26:20.103Z</time></trkpt><trkpt lat="44.54886" lon="8.9449467"><ele>387.6666666666667</ele><time>2026-05-01T08:26:21.103Z</time></trkpt><trkpt lat="44.5490117" lon="8.9449183"><ele>391.0</ele><time>2026-05-01T08:26:22.103Z</time></trkpt><trkpt lat="44.54915" lon="8.9448833"><ele>391.0</ele><time>2026-05-01T08:26:23.102Z</time></trkpt><trkpt lat="44.54928" lon="8.9448583"><ele>391.0</ele><time>2026-05-01T08:26:24.103Z</time></trkpt><trkpt lat="44.5494033" lon="8.9448317"><ele>391.0</ele><time>2026-05-01T08:26:25.102Z</time></trkpt><trkpt lat="44.5495083" lon="8.9448067"><ele>391.0</ele><time>2026-05-01T08:26:26.102Z</time></trkpt><trkpt lat="44.5496117" lon="8.94479"><ele>393.0</ele><time>2026-05-01T08:26:27.103Z</time></trkpt><trkpt lat="44.5497067" lon="8.9447767"><ele>395.0</ele><time>2026-05-01T08:26:28.103Z</time></trkpt><trkpt lat="44.5497967" lon="8.944765"><ele>397.0</ele><time>2026-05-01T08:26:29.103Z</time></trkpt><trkpt lat="44.54989" lon="8.9447617"><ele>399.0</ele><time>2026-05-01T08:26:30.102Z</time></trkpt><trkpt lat="44.549985" lon="8.94476"><ele>401.0</ele><time>2026-05-01T08:26:31.102Z</time></trkpt><trkpt lat="44.5500833" lon="8.9447483"><ele>401.0</ele><time>2026-05-01T08:26:32.103Z</time></trkpt><trkpt lat="44.5501917" lon="8.9447317"><ele>401.0</ele><time>2026-05-01T08:26:33.103Z</time></trkpt><trkpt lat="44.5503017" lon="8.9447133"><ele>401.0</ele><time>2026-05-01T08:26:34.102Z</time></trkpt><trkpt lat="44.5504067" lon="8.9446983"><ele>401.0</ele><time>2026-05-01T08:26:35.102Z</time></trkpt><trkpt lat="44.550515" lon="8.94467"><ele>401.0</ele><time>2026-05-01T08:26:36.102Z</time></trkpt><trkpt lat="44.55074" lon="8.9446417"><ele>402.0</ele><time>2026-05-01T08:26:38.103Z</time></trkpt><trkpt lat="44.5508517" lon="8.94466"><ele>403.0</ele><time>2026-05-01T08:26:39.103Z</time></trkpt><trkpt lat="44.5509683" lon="8.94469"><ele>404.0</ele><time>2026-05-01T08:26:40.102Z</time></trkpt><trkpt lat="44.5510817" lon="8.944715"><ele>405.0</ele><time>2026-05-01T08:26:41.103Z</time></trkpt><trkpt lat="44.5511783" lon="8.944735"><ele>406.0</ele><time>2026-05-01T08:26:42.103Z</time></trkpt><trkpt lat="44.551275" lon="8.9447567"><ele>411.20000000000005</ele><time>2026-05-01T08:26:43.103Z</time></trkpt><trkpt lat="44.55136" lon="8.9447817"><ele>416.40000000000003</ele><time>2026-05-01T08:26:44.102Z</time></trkpt><trkpt lat="44.5514517" lon="8.9448117"><ele>421.6</ele><time>2026-05-01T08:26:45.103Z</time></trkpt><trkpt lat="44.5515467" lon="8.9448567"><ele>426.8</ele><time>2026-05-01T08:26:46.102Z</time></trkpt><trkpt lat="44.55165" lon="8.94489"><ele>432.0</ele><time>2026-05-01T08:26:47.102Z</time></trkpt><trkpt lat="44.551755" lon="8.9449383"><ele>432.0</ele><time>2026-05-01T08:26:48.102Z</time></trkpt><trkpt lat="44.5518567" lon="8.94498"><ele>432.0</ele><time>2026-05-01T08:26:49.102Z</time></trkpt><trkpt lat="44.5519583" lon="8.94502"><ele>432.0</ele><time>2026-05-01T08:26:50.102Z</time></trkpt><trkpt lat="44.559955" lon="8.94686"><ele>429.0</ele><time>2026-05-01T08:27:45.103Z</time></trkpt><trkpt lat="44.5602817" lon="8.946945"><ele>426.0</ele><time>2026-05-01T08:27:47.103Z</time></trkpt><trkpt lat="44.56044" lon="8.9470017"><ele>422.33333333333337</ele><time>2026-05-01T08:27:48.102Z</time></trkpt><trkpt lat="44.5605933" lon="8.9470817"><ele>418.6666666666667</ele><time>2026-05-01T08:27:49.102Z</time></trkpt><trkpt lat="44.5607417" lon="8.9471667"><ele>415.0</ele><time>2026-05-01T08:27:50.103Z</time></trkpt><trkpt lat="44.5608783" lon="8.9472517"><ele>415.0</ele><time>2026-05-01T08:27:51.102Z</time></trkpt><trkpt lat="44.5610167" lon="8.94733"><ele>415.0</ele><time>2026-05-01T08:27:52.102Z</time></trkpt><trkpt lat="44.5611567" lon="8.9473867"><ele>415.0</ele><time>2026-05-01T08:27:53.103Z</time></trkpt><trkpt lat="44.5613" lon="8.94741"><ele>415.0</ele><time>2026-05-01T08:27:54.103Z</time></trkpt><trkpt lat="44.561455" lon="8.9474033"><ele>415.0</ele><time>2026-05-01T08:27:55.102Z</time></trkpt><trkpt lat="44.5616183" lon="8.9473617"><ele>415.0</ele><time>2026-05-01T08:27:56.102Z</time></trkpt><trkpt lat="44.5617817" lon="8.9472883"><ele>415.0</ele><time>2026-05-01T08:27:57.103Z</time></trkpt><trkpt lat="44.5619333" lon="8.947195"><ele>419.0</ele><time>2026-05-01T08:27:58.102Z</time></trkpt><trkpt lat="44.5620783" lon="8.9470967"><ele>423.0</ele><time>2026-05-01T08:27:59.102Z</time></trkpt><trkpt lat="44.5622133" lon="8.9469967"><ele>427.0</ele><time>2026-05-01T08:28:00.102Z</time></trkpt><trkpt lat="44.5623533" lon="8.9469117"><ele>427.0</ele><time>2026-05-01T08:28:01.102Z</time></trkpt><trkpt lat="44.562505" lon="8.946835"><ele>427.0</ele><time>2026-05-01T08:28:02.102Z</time></trkpt><trkpt lat="44.5626683" lon="8.9467633"><ele>427.0</ele><time>2026-05-01T08:28:03.102Z</time></trkpt><trkpt lat="44.5628417" lon="8.9466883"><ele>422.5</ele><time>2026-05-01T08:28:04.103Z</time></trkpt><trkpt lat="44.563025" lon="8.9466117"><ele>418.0</ele><time>2026-05-01T08:28:05.102Z</time></trkpt><trkpt lat="44.5633467" lon="8.9464067"><ele>418.0</ele><time>2026-05-01T08:28:07.103Z</time></trkpt><trkpt lat="44.5634783" lon="8.9462867"><ele>418.0</ele><time>2026-05-01T08:28:08.103Z</time></trkpt><trkpt lat="44.563615" lon="8.94615"><ele>418.0</ele><time>2026-05-01T08:28:09.102Z</time></trkpt><trkpt lat="44.56373" lon="8.9460083"><ele>417.5</ele><time>2026-05-01T08:28:10.102Z</time></trkpt><trkpt lat="44.563835" lon="8.9458483"><ele>417.0</ele><time>2026-05-01T08:28:11.102Z</time></trkpt><trkpt lat="44.56394" lon="8.9457117"><ele>416.5</ele><time>2026-05-01T08:28:12.102Z</time></trkpt><trkpt lat="44.564045" lon="8.9455717"><ele>416.0</ele><time>2026-05-01T08:28:13.102Z</time></trkpt><trkpt lat="44.56414" lon="8.9454417"><ele>416.0</ele><time>2026-05-01T08:28:14.102Z</time></trkpt><trkpt lat="44.56423" lon="8.9453083"><ele>416.0</ele><time>2026-05-01T08:28:15.102Z</time></trkpt><trkpt lat="44.564315" lon="8.945185"><ele>416.0</ele><time>2026-05-01T08:28:16.102Z</time></trkpt><trkpt lat="44.564415" lon="8.9450833"><ele>416.0</ele><time>2026-05-01T08:28:17.103Z</time></trkpt><trkpt lat="44.56454" lon="8.9450017"><ele>419.0</ele><time>2026-05-01T08:28:18.102Z</time></trkpt><trkpt lat="44.5646783" lon="8.9449617"><ele>422.0</ele><time>2026-05-01T08:28:19.102Z</time></trkpt><trkpt lat="44.564815" lon="8.9449617"><ele>425.0</ele><time>2026-05-01T08:28:20.103Z</time></trkpt><trkpt lat="44.5649517" lon="8.9450017"><ele>428.0</ele><time>2026-05-01T08:28:21.102Z</time></trkpt><trkpt lat="44.5650917" lon="8.945075"><ele>428.0</ele><time>2026-05-01T08:28:22.102Z</time></trkpt><trkpt lat="44.565225" lon="8.94518"><ele>428.0</ele><time>2026-05-01T08:28:23.103Z</time></trkpt><trkpt lat="44.56535" lon="8.9452933"><ele>428.0</ele><time>2026-05-01T08:28:24.102Z</time></trkpt><trkpt lat="44.56548" lon="8.9454233"><ele>410.0</ele><time>2026-05-01T08:28:25.102Z</time></trkpt><trkpt lat="44.5656117" lon="8.9455767"><ele>392.0</ele><time>2026-05-01T08:28:26.102Z</time></trkpt><trkpt lat="44.56585" lon="8.9458583"><ele>391.0</ele><time>2026-05-01T08:28:28.102Z</time></trkpt><trkpt lat="44.56597" lon="8.9459883"><ele>390.0</ele><time>2026-05-01T08:28:29.103Z</time></trkpt><trkpt lat="44.5660917" lon="8.9461283"><ele>389.0</ele><time>2026-05-01T08:28:30.102Z</time></trkpt><trkpt lat="44.56621" lon="8.946245"><ele>389.0</ele><time>2026-05-01T08:28:31.103Z</time></trkpt><trkpt lat="44.5663267" lon="8.9463467"><ele>389.0</ele><time>2026-05-01T08:28:32.102Z</time></trkpt><trkpt lat="44.5664367" lon="8.94644"><ele>389.0</ele><time>2026-05-01T08:28:33.102Z</time></trkpt><trkpt lat="44.5665533" lon="8.9465267"><ele>389.0</ele><time>2026-05-01T08:28:34.103Z</time></trkpt><trkpt lat="44.566675" lon="8.9466017"><ele>389.0</ele><time>2026-05-01T08:28:35.102Z</time></trkpt><trkpt lat="44.5667933" lon="8.9466717"><ele>389.0</ele><time>2026-05-01T08:28:36.102Z</time></trkpt><trkpt lat="44.5669" lon="8.9467617"><ele>389.0</ele><time>2026-05-01T08:28:37.102Z</time></trkpt><trkpt lat="44.5669967" lon="8.94685"><ele>389.0</ele><time>2026-05-01T08:28:38.102Z</time></trkpt><trkpt lat="44.5670833" lon="8.946945"><ele>386.75</ele><time>2026-05-01T08:28:39.103Z</time></trkpt><trkpt lat="44.5671583" lon="8.9470633"><ele>384.5</ele><time>2026-05-01T08:28:40.102Z</time></trkpt><trkpt lat="44.5672217" lon="8.9472183"><ele>382.25</ele><time>2026-05-01T08:28:41.102Z</time></trkpt><trkpt lat="44.5672617" lon="8.9473967"><ele>380.0</ele><time>2026-05-01T08:28:42.102Z</time></trkpt><trkpt lat="44.5672833" lon="8.9475783"><ele>379.0</ele><time>2026-05-01T08:28:43.103Z</time></trkpt><trkpt lat="44.5672717" lon="8.9477667"><ele>378.0</ele><time>2026-05-01T08:28:44.102Z</time></trkpt><trkpt lat="44.5672233" lon="8.9479617"><ele>377.0</ele><time>2026-05-01T08:28:45.103Z</time></trkpt><trkpt lat="44.5671683" lon="8.94815"><ele>376.0</ele><time>2026-05-01T08:28:46.103Z</time></trkpt><trkpt lat="44.567115" lon="8.94833"><ele>374.3333333333333</ele><time>2026-05-01T08:28:47.102Z</time></trkpt><trkpt lat="44.5670483" lon="8.948665"><ele>372.6666666666667</ele><time>2026-05-01T08:28:49.103Z</time></trkpt><trkpt lat="44.5670383" lon="8.948825"><ele>371.0</ele><time>2026-05-01T08:28:50.102Z</time></trkpt><trkpt lat="44.56704" lon="8.9489817"><ele>371.0</ele><time>2026-05-01T08:28:51.103Z</time></trkpt><trkpt lat="44.5670533" lon="8.9491267"><ele>371.0</ele><time>2026-05-01T08:28:52.102Z</time></trkpt><trkpt lat="44.5670733" lon="8.9492583"><ele>371.0</ele><time>2026-05-01T08:28:53.103Z</time></trkpt><trkpt lat="44.5670983" lon="8.9493633"><ele>371.0</ele><time>2026-05-01T08:28:54.103Z</time></trkpt><trkpt lat="44.56713" lon="8.94946"><ele>371.0</ele><time>2026-05-01T08:28:55.102Z</time></trkpt><trkpt lat="44.5671633" lon="8.94954"><ele>371.0</ele><time>2026-05-01T08:28:56.103Z</time></trkpt><trkpt lat="44.5672033" lon="8.9496217"><ele>371.1666666666667</ele><time>2026-05-01T08:28:57.103Z</time></trkpt><trkpt lat="44.5672333" lon="8.9497"><ele>371.33333333333337</ele><time>2026-05-01T08:28:58.102Z</time></trkpt><trkpt lat="44.5672983" lon="8.9498433"><ele>371.5</ele><time>2026-05-01T08:29:00.103Z</time></trkpt><trkpt lat="44.5673317" lon="8.94992"><ele>371.6666666666667</ele><time>2026-05-01T08:29:01.102Z</time></trkpt><trkpt lat="44.567375" lon="8.9499917"><ele>371.8333333333333</ele><time>2026-05-01T08:29:02.103Z</time></trkpt><trkpt lat="44.56743" lon="8.9500533"><ele>372.0</ele><time>2026-05-01T08:29:03.102Z</time></trkpt><trkpt lat="44.5674917" lon="8.9501133"><ele>372.0</ele><time>2026-05-01T08:29:04.102Z</time></trkpt><trkpt lat="44.56756" lon="8.95016"><ele>372.0</ele><time>2026-05-01T08:29:05.103Z</time></trkpt><trkpt lat="44.5676317" lon="8.9502117"><ele>372.0</ele><time>2026-05-01T08:29:06.103Z</time></trkpt><trkpt lat="44.5676917" lon="8.95025"><ele>372.0</ele><time>2026-05-01T08:29:07.103Z</time></trkpt><trkpt lat="44.5677667" lon="8.95032"><ele>372.0</ele><time>2026-05-01T08:29:09.103Z</time></trkpt><trkpt lat="44.5679067" lon="8.950425"><ele>370.5</ele><time>2026-05-01T08:29:13.103Z</time></trkpt><trkpt lat="44.567985" lon="8.9504933"><ele>369.0</ele><time>2026-05-01T08:29:15.103Z</time></trkpt><trkpt lat="44.568085" lon="8.9505633"><ele>367.5</ele><time>2026-05-01T08:29:17.103Z</time></trkpt><trkpt lat="44.5681417" lon="8.95061"><ele>366.0</ele><time>2026-05-01T08:29:18.102Z</time></trkpt><trkpt lat="44.5682067" lon="8.9506617"><ele>364.5</ele><time>2026-05-01T08:29:19.102Z</time></trkpt><trkpt lat="44.5682767" lon="8.9507167"><ele>363.0</ele><time>2026-05-01T08:29:20.102Z</time></trkpt><trkpt lat="44.5683467" lon="8.9507717"><ele>363.0</ele><time>2026-05-01T08:29:21.102Z</time></trkpt><trkpt lat="44.5684133" lon="8.9508267"><ele>363.0</ele><time>2026-05-01T08:29:22.102Z</time></trkpt><trkpt lat="44.5684867" lon="8.9508867"><ele>363.0</ele><time>2026-05-01T08:29:23.102Z</time></trkpt><trkpt lat="44.5685633" lon="8.95095"><ele>363.0</ele><time>2026-05-01T08:29:24.102Z</time></trkpt><trkpt lat="44.5686467" lon="8.95102"><ele>363.0</ele><time>2026-05-01T08:29:25.102Z</time></trkpt><trkpt lat="44.568735" lon="8.9511017"><ele>361.0</ele><time>2026-05-01T08:29:26.103Z</time></trkpt><trkpt lat="44.5688317" lon="8.9511783"><ele>359.0</ele><time>2026-05-01T08:29:27.102Z</time></trkpt><trkpt lat="44.5689333" lon="8.9512583"><ele>357.0</ele><time>2026-05-01T08:29:28.102Z</time></trkpt><trkpt lat="44.5690317" lon="8.9513433"><ele>355.0</ele><time>2026-05-01T08:29:29.103Z</time></trkpt><trkpt lat="44.5691233" lon="8.95142"><ele>355.0</ele><time>2026-05-01T08:29:30.103Z</time></trkpt><trkpt lat="44.5693117" lon="8.9515733"><ele>355.0</ele><time>2026-05-01T08:29:32.102Z</time></trkpt><trkpt lat="44.56941" lon="8.951645"><ele>355.0</ele><time>2026-05-01T08:29:33.102Z</time></trkpt><trkpt lat="44.5695083" lon="8.9517183"><ele>355.0</ele><time>2026-05-01T08:29:34.102Z</time></trkpt><trkpt lat="44.5696133" lon="8.9517883"><ele>356.5</ele><time>2026-05-01T08:29:35.102Z</time></trkpt><trkpt lat="44.56972" lon="8.9518517"><ele>358.0</ele><time>2026-05-01T08:29:36.102Z</time></trkpt><trkpt lat="44.5698383" lon="8.951905"><ele>359.5</ele><time>2026-05-01T08:29:37.103Z</time></trkpt><trkpt lat="44.5699633" lon="8.9519467"><ele>361.0</ele><time>2026-05-01T08:29:38.102Z</time></trkpt><trkpt lat="44.5700917" lon="8.95198"><ele>361.0</ele><time>2026-05-01T08:29:39.102Z</time></trkpt><trkpt lat="44.5702267" lon="8.9520017"><ele>361.0</ele><time>2026-05-01T08:29:40.102Z</time></trkpt><trkpt lat="44.5703633" lon="8.9520167"><ele>361.0</ele><time>2026-05-01T08:29:41.102Z</time></trkpt><trkpt lat="44.5705017" lon="8.95202"><ele>361.0</ele><time>2026-05-01T08:29:42.102Z</time></trkpt><trkpt lat="44.57064" lon="8.9520117"><ele>361.0</ele><time>2026-05-01T08:29:43.102Z</time></trkpt><trkpt lat="44.57078" lon="8.9519867"><ele>361.0</ele><time>2026-05-01T08:29:44.103Z</time></trkpt><trkpt lat="44.5709183" lon="8.95195"><ele>361.0</ele><time>2026-05-01T08:29:45.102Z</time></trkpt><trkpt lat="44.571065" lon="8.9518867"><ele>361.0</ele><time>2026-05-01T08:29:46.103Z</time></trkpt><trkpt lat="44.5712133" lon="8.9518083"><ele>361.0</ele><time>2026-05-01T08:29:47.102Z</time></trkpt><trkpt lat="44.5713583" lon="8.9517117"><ele>361.0</ele><time>2026-05-01T08:29:48.102Z</time></trkpt><trkpt lat="44.5714983" lon="8.9516067"><ele>361.0</ele><time>2026-05-01T08:29:49.102Z</time></trkpt><trkpt lat="44.5716383" lon="8.9514933"><ele>361.0</ele><time>2026-05-01T08:29:50.103Z</time></trkpt><trkpt lat="44.5717733" lon="8.9513783"><ele>361.0</ele><time>2026-05-01T08:29:51.102Z</time></trkpt><trkpt lat="44.5720617" lon="8.9511433"><ele>360.66666666666663</ele><time>2026-05-01T08:29:53.102Z</time></trkpt><trkpt lat="44.5722083" lon="8.9510217"><ele>360.3333333333333</ele><time>2026-05-01T08:29:54.103Z</time></trkpt><trkpt lat="44.57236" lon="8.9509"><ele>360.0</ele><time>2026-05-01T08:29:55.103Z</time></trkpt><trkpt lat="44.5725067" lon="8.9507767"><ele>359.6666666666667</ele><time>2026-05-01T08:29:56.102Z</time></trkpt><trkpt lat="44.57266" lon="8.9506483"><ele>359.33333333333337</ele><time>2026-05-01T08:29:57.103Z</time></trkpt><trkpt lat="44.572825" lon="8.9505167"><ele>359.0</ele><time>2026-05-01T08:29:58.102Z</time></trkpt><trkpt lat="44.5729883" lon="8.950385"><ele>358.6666666666667</ele><time>2026-05-01T08:29:59.102Z</time></trkpt><trkpt lat="44.5731583" lon="8.9502533"><ele>358.3333333333333</ele><time>2026-05-01T08:30:00.102Z</time></trkpt><trkpt lat="44.5733317" lon="8.950115"><ele>358.0</ele><time>2026-05-01T08:30:01.103Z</time></trkpt><trkpt lat="44.5735033" lon="8.9499717"><ele>358.66666666666663</ele><time>2026-05-01T08:30:02.103Z</time></trkpt><trkpt lat="44.573685" lon="8.949825"><ele>359.3333333333333</ele><time>2026-05-01T08:30:03.103Z</time></trkpt><trkpt lat="44.5738633" lon="8.9496683"><ele>360.0</ele><time>2026-05-01T08:30:04.102Z</time></trkpt><trkpt lat="44.5740567" lon="8.9495183"><ele>360.5</ele><time>2026-05-01T08:30:05.102Z</time></trkpt><trkpt lat="44.57425" lon="8.9493633"><ele>361.0</ele><time>2026-05-01T08:30:06.103Z</time></trkpt><trkpt lat="44.5744483" lon="8.949205"><ele>363.0</ele><time>2026-05-01T08:30:07.102Z</time></trkpt><trkpt lat="44.574645" lon="8.9490433"><ele>365.0</ele><time>2026-05-01T08:30:08.102Z</time></trkpt><trkpt lat="44.5748483" lon="8.9488833"><ele>365.0</ele><time>2026-05-01T08:30:09.102Z</time></trkpt><trkpt lat="44.575045" lon="8.9487233"><ele>365.0</ele><time>2026-05-01T08:30:10.102Z</time></trkpt><trkpt lat="44.5752417" lon="8.9485633"><ele>371.0</ele><time>2026-05-01T08:30:11.102Z</time></trkpt><trkpt lat="44.5756533" lon="8.948235"><ele>371.0</ele><time>2026-05-01T08:30:13.103Z</time></trkpt><trkpt lat="44.57585" lon="8.9480433"><ele>371.0</ele><time>2026-05-01T08:30:14.102Z</time></trkpt><trkpt lat="44.57602" lon="8.9478233"><ele>371.0</ele><time>2026-05-01T08:30:15.103Z</time></trkpt><trkpt lat="44.57618" lon="8.94759"><ele>371.0</ele><time>2026-05-01T08:30:16.103Z</time></trkpt><trkpt lat="44.576325" lon="8.9473333"><ele>368.0</ele><time>2026-05-01T08:30:17.102Z</time></trkpt><trkpt lat="44.5764617" lon="8.94707"><ele>365.0</ele><time>2026-05-01T08:30:18.102Z</time></trkpt><trkpt lat="44.576585" lon="8.946795"><ele>363.5</ele><time>2026-05-01T08:30:19.103Z</time></trkpt><trkpt lat="44.5766917" lon="8.9465067"><ele>362.0</ele><time>2026-05-01T08:30:20.102Z</time></trkpt><trkpt lat="44.5767833" lon="8.94621"><ele>362.0</ele><time>2026-05-01T08:30:21.103Z</time></trkpt><trkpt lat="44.576855" lon="8.9459133"><ele>362.0</ele><time>2026-05-01T08:30:22.102Z</time></trkpt><trkpt lat="44.5769233" lon="8.9456083"><ele>360.33333333333337</ele><time>2026-05-01T08:30:23.102Z</time></trkpt><trkpt lat="44.5769933" lon="8.9453233"><ele>358.6666666666667</ele><time>2026-05-01T08:30:24.103Z</time></trkpt><trkpt lat="44.5770817" lon="8.945045"><ele>357.0</ele><time>2026-05-01T08:30:25.103Z</time></trkpt><trkpt lat="44.5771967" lon="8.9447833"><ele>358.0</ele><time>2026-05-01T08:30:26.103Z</time></trkpt><trkpt lat="44.5773217" lon="8.9445367"><ele>359.0</ele><time>2026-05-01T08:30:27.102Z</time></trkpt><trkpt lat="44.577465" lon="8.9443083"><ele>360.0</ele><time>2026-05-01T08:30:28.103Z</time></trkpt><trkpt lat="44.5776083" lon="8.944085"><ele>360.0</ele><time>2026-05-01T08:30:29.103Z</time></trkpt><trkpt lat="44.577765" lon="8.943865"><ele>360.0</ele><time>2026-05-01T08:30:30.102Z</time></trkpt><trkpt lat="44.57793" lon="8.9436583"><ele>360.0</ele><time>2026-05-01T08:30:31.103Z</time></trkpt><trkpt lat="44.5781083" lon="8.9434683"><ele>361.0</ele><time>2026-05-01T08:30:32.103Z</time></trkpt><trkpt lat="44.5785083" lon="8.9431367"><ele>363.5</ele><time>2026-05-01T08:30:34.103Z</time></trkpt><trkpt lat="44.578715" lon="8.9430017"><ele>366.0</ele><time>2026-05-01T08:30:35.103Z</time></trkpt><trkpt lat="44.5789267" lon="8.9428833"><ele>366.0</ele><time>2026-05-01T08:30:36.103Z</time></trkpt><trkpt lat="44.5791417" lon="8.9427883"><ele>366.0</ele><time>2026-05-01T08:30:37.102Z</time></trkpt><trkpt lat="44.5793517" lon="8.9427083"><ele>366.0</ele><time>2026-05-01T08:30:38.102Z</time></trkpt><trkpt lat="44.579565" lon="8.9426433"><ele>367.6666666666667</ele><time>2026-05-01T08:30:39.103Z</time></trkpt><trkpt lat="44.5797817" lon="8.9425967"><ele>369.33333333333337</ele><time>2026-05-01T08:30:40.102Z</time></trkpt><trkpt lat="44.580005" lon="8.942565"><ele>371.0</ele><time>2026-05-01T08:30:41.102Z</time></trkpt><trkpt lat="44.580235" lon="8.9425333"><ele>366.5</ele><time>2026-05-01T08:30:42.103Z</time></trkpt><trkpt lat="44.5804567" lon="8.9424983"><ele>362.0</ele><time>2026-05-01T08:30:43.103Z</time></trkpt><trkpt lat="44.580695" lon="8.9424683"><ele>362.0</ele><time>2026-05-01T08:30:44.102Z</time></trkpt><trkpt lat="44.5809367" lon="8.9424367"><ele>362.0</ele><time>2026-05-01T08:30:45.102Z</time></trkpt><trkpt lat="44.5811767" lon="8.9424067"><ele>361.0</ele><time>2026-05-01T08:30:46.103Z</time></trkpt><trkpt lat="44.58143" lon="8.9423767"><ele>360.0</ele><time>2026-05-01T08:30:47.102Z</time></trkpt><trkpt lat="44.5816767" lon="8.9423433"><ele>360.0</ele><time>2026-05-01T08:30:48.103Z</time></trkpt><trkpt lat="44.5819133" lon="8.94231"><ele>360.0</ele><time>2026-05-01T08:30:49.103Z</time></trkpt><trkpt lat="44.582145" lon="8.942285"><ele>361.6666666666667</ele><time>2026-05-01T08:30:50.102Z</time></trkpt><trkpt lat="44.58236" lon="8.9422583"><ele>363.33333333333337</ele><time>2026-05-01T08:30:51.103Z</time></trkpt><trkpt lat="44.5825717" lon="8.9422333"><ele>365.0</ele><time>2026-05-01T08:30:52.103Z</time></trkpt><trkpt lat="44.582775" lon="8.9422067"><ele>367.5</ele><time>2026-05-01T08:30:53.102Z</time></trkpt><trkpt lat="44.5831783" lon="8.9421467"><ele>370.0</ele><time>2026-05-01T08:30:55.102Z</time></trkpt><trkpt lat="44.583385" lon="8.9421167"><ele>370.0</ele><time>2026-05-01T08:30:56.103Z</time></trkpt><trkpt lat="44.58359" lon="8.94209"><ele>370.0</ele><time>2026-05-01T08:30:57.102Z</time></trkpt><trkpt lat="44.58379" lon="8.942065"><ele>370.0</ele><time>2026-05-01T08:30:58.102Z</time></trkpt><trkpt lat="44.58398" lon="8.9420433"><ele>373.0</ele><time>2026-05-01T08:30:59.102Z</time></trkpt><trkpt lat="44.584165" lon="8.9420217"><ele>376.0</ele><time>2026-05-01T08:31:00.102Z</time></trkpt><trkpt lat="44.58436" lon="8.9419983"><ele>379.0</ele><time>2026-05-01T08:31:01.103Z</time></trkpt><trkpt lat="44.5845617" lon="8.941985"><ele>383.3333333333333</ele><time>2026-05-01T08:31:02.103Z</time></trkpt><trkpt lat="44.5847733" lon="8.9419717"><ele>387.66666666666663</ele><time>2026-05-01T08:31:03.102Z</time></trkpt><trkpt lat="44.58499" lon="8.9419717"><ele>392.0</ele><time>2026-05-01T08:31:04.102Z</time></trkpt><trkpt lat="44.5852067" lon="8.94199"><ele>396.3333333333333</ele><time>2026-05-01T08:31:05.102Z</time></trkpt><trkpt lat="44.5854267" lon="8.942015"><ele>400.66666666666663</ele><time>2026-05-01T08:31:06.102Z</time></trkpt><trkpt lat="44.585645" lon="8.942045"><ele>405.0</ele><time>2026-05-01T08:31:07.103Z</time></trkpt><trkpt lat="44.585865" lon="8.9420683"><ele>405.0</ele><time>2026-05-01T08:31:08.102Z</time></trkpt><trkpt lat="44.5860883" lon="8.9420867"><ele>405.0</ele><time>2026-05-01T08:31:09.102Z</time></trkpt><trkpt lat="44.58631" lon="8.9421067"><ele>405.0</ele><time>2026-05-01T08:31:10.102Z</time></trkpt><trkpt lat="44.5865317" lon="8.9421267"><ele>359.0</ele><time>2026-05-01T08:31:11.103Z</time></trkpt><trkpt lat="44.5933583" lon="8.9492733"><ele>359.0</ele><time>2026-05-01T08:31:47.102Z</time></trkpt><trkpt lat="44.5935533" lon="8.94984"><ele>359.0</ele><time>2026-05-01T08:31:49.101Z</time></trkpt><trkpt lat="44.5936317" lon="8.9501467"><ele>349.0</ele><time>2026-05-01T08:31:50.102Z</time></trkpt><trkpt lat="44.593685" lon="8.9504817"><ele>339.0</ele><time>2026-05-01T08:31:51.101Z</time></trkpt><trkpt lat="44.5937267" lon="8.950825"><ele>339.0</ele><time>2026-05-01T08:31:52.101Z</time></trkpt><trkpt lat="44.5937667" lon="8.95118"><ele>339.0</ele><time>2026-05-01T08:31:53.102Z</time></trkpt><trkpt lat="44.59381" lon="8.95154"><ele>340.5</ele><time>2026-05-01T08:31:54.102Z</time></trkpt><trkpt lat="44.5938617" lon="8.951895"><ele>342.0</ele><time>2026-05-01T08:31:55.101Z</time></trkpt><trkpt lat="44.59393" lon="8.9522317"><ele>342.0</ele><time>2026-05-01T08:31:56.102Z</time></trkpt><trkpt lat="44.5940083" lon="8.9525367"><ele>342.0</ele><time>2026-05-01T08:31:57.101Z</time></trkpt><trkpt lat="44.594115" lon="8.95282"><ele>341.5</ele><time>2026-05-01T08:31:58.101Z</time></trkpt><trkpt lat="44.5942383" lon="8.9530833"><ele>341.0</ele><time>2026-05-01T08:31:59.102Z</time></trkpt><trkpt lat="44.5943833" lon="8.9533267"><ele>339.0</ele><time>2026-05-01T08:32:00.102Z</time></trkpt><trkpt lat="44.5945517" lon="8.953565"><ele>337.0</ele><time>2026-05-01T08:32:01.101Z</time></trkpt><trkpt lat="44.594735" lon="8.9537733"><ele>337.0</ele><time>2026-05-01T08:32:02.102Z</time></trkpt><trkpt lat="44.59493" lon="8.9539617"><ele>337.0</ele><time>2026-05-01T08:32:03.102Z</time></trkpt><trkpt lat="44.5951467" lon="8.9541183"><ele>336.5</ele><time>2026-05-01T08:32:04.101Z</time></trkpt><trkpt lat="44.59538" lon="8.9542483"><ele>336.0</ele><time>2026-05-01T08:32:05.102Z</time></trkpt><trkpt lat="44.5956167" lon="8.9543467"><ele>336.0</ele><time>2026-05-01T08:32:06.101Z</time></trkpt><trkpt lat="44.5958583" lon="8.9544333"><ele>336.0</ele><time>2026-05-01T08:32:07.101Z</time></trkpt><trkpt lat="44.5961017" lon="8.9545083"><ele>336.0</ele><time>2026-05-01T08:32:08.101Z</time></trkpt><trkpt lat="44.5965967" lon="8.95461"><ele>336.0</ele><time>2026-05-01T08:32:10.102Z</time></trkpt><trkpt lat="44.5968567" lon="8.9546183"><ele>336.0</ele><time>2026-05-01T08:32:11.102Z</time></trkpt><trkpt lat="44.5971117" lon="8.9545983"><ele>337.0</ele><time>2026-05-01T08:32:12.102Z</time></trkpt><trkpt lat="44.5973517" lon="8.95453"><ele>338.0</ele><time>2026-05-01T08:32:13.101Z</time></trkpt><trkpt lat="44.59759" lon="8.954415"><ele>338.0</ele><time>2026-05-01T08:32:14.102Z</time></trkpt><trkpt lat="44.597815" lon="8.9542683"><ele>338.0</ele><time>2026-05-01T08:32:15.101Z</time></trkpt><trkpt lat="44.59805" lon="8.9540933"><ele>339.0</ele><time>2026-05-01T08:32:16.102Z</time></trkpt><trkpt lat="44.598275" lon="8.9539017"><ele>340.0</ele><time>2026-05-01T08:32:17.102Z</time></trkpt><trkpt lat="44.5985" lon="8.9537083"><ele>340.0</ele><time>2026-05-01T08:32:18.101Z</time></trkpt><trkpt lat="44.598725" lon="8.9535167"><ele>340.0</ele><time>2026-05-01T08:32:19.102Z</time></trkpt><trkpt lat="44.598955" lon="8.9533217"><ele>340.0</ele><time>2026-05-01T08:32:20.101Z</time></trkpt><trkpt lat="44.5991917" lon="8.9531283"><ele>340.0</ele><time>2026-05-01T08:32:21.102Z</time></trkpt><trkpt lat="44.5994217" lon="8.9529383"><ele>338.0</ele><time>2026-05-01T08:32:22.102Z</time></trkpt><trkpt lat="44.5996383" lon="8.9527667"><ele>336.0</ele><time>2026-05-01T08:32:23.102Z</time></trkpt><trkpt lat="44.5998367" lon="8.9525933"><ele>338.0</ele><time>2026-05-01T08:32:24.102Z</time></trkpt><trkpt lat="44.6000283" lon="8.9524133"><ele>340.0</ele><time>2026-05-01T08:32:25.101Z</time></trkpt><trkpt lat="44.600205" lon="8.95221"><ele>336.5</ele><time>2026-05-01T08:32:26.101Z</time></trkpt><trkpt lat="44.6003867" lon="8.9519983"><ele>333.0</ele><time>2026-05-01T08:32:27.102Z</time></trkpt><trkpt lat="44.6005817" lon="8.9517933"><ele>333.0</ele><time>2026-05-01T08:32:28.102Z</time></trkpt><trkpt lat="44.6007917" lon="8.9516117"><ele>333.0</ele><time>2026-05-01T08:32:29.101Z</time></trkpt><trkpt lat="44.60121" lon="8.95136"><ele>333.0</ele><time>2026-05-01T08:32:31.101Z</time></trkpt><trkpt lat="44.6014267" lon="8.951285"><ele>333.0</ele><time>2026-05-01T08:32:32.102Z</time></trkpt><trkpt lat="44.60165" lon="8.95123"><ele>333.0</ele><time>2026-05-01T08:32:33.102Z</time></trkpt><trkpt lat="44.6018717" lon="8.9512133"><ele>333.0</ele><time>2026-05-01T08:32:34.102Z</time></trkpt><trkpt lat="44.6020917" lon="8.9512333"><ele>333.0</ele><time>2026-05-01T08:32:35.101Z</time></trkpt><trkpt lat="44.6023167" lon="8.9512867"><ele>333.5</ele><time>2026-05-01T08:32:36.102Z</time></trkpt><trkpt lat="44.6025417" lon="8.95137"><ele>334.0</ele><time>2026-05-01T08:32:37.102Z</time></trkpt><trkpt lat="44.602755" lon="8.9514717"><ele>334.3333333333333</ele><time>2026-05-01T08:32:38.102Z</time></trkpt><trkpt lat="44.60295" lon="8.951605"><ele>334.6666666666667</ele><time>2026-05-01T08:32:39.101Z</time></trkpt><trkpt lat="44.6031283" lon="8.9517733"><ele>335.0</ele><time>2026-05-01T08:32:40.101Z</time></trkpt><trkpt lat="44.6032967" lon="8.951965"><ele>336.0</ele><time>2026-05-01T08:32:41.101Z</time></trkpt><trkpt lat="44.6034467" lon="8.9521683"><ele>337.0</ele><time>2026-05-01T08:32:42.102Z</time></trkpt><trkpt lat="44.6035683" lon="8.9523633"><ele>338.0</ele><time>2026-05-01T08:32:43.101Z</time></trkpt><trkpt lat="44.6036683" lon="8.9525433"><ele>338.0</ele><time>2026-05-01T08:32:44.102Z</time></trkpt><trkpt lat="44.6037467" lon="8.9527083"><ele>338.0</ele><time>2026-05-01T08:32:45.101Z</time></trkpt><trkpt lat="44.6038117" lon="8.9528533"><ele>338.0</ele><time>2026-05-01T08:32:46.102Z</time></trkpt><trkpt lat="44.6038583" lon="8.952975"><ele>338.0</ele><time>2026-05-01T08:32:47.101Z</time></trkpt><trkpt lat="44.6039033" lon="8.9530717"><ele>338.0</ele><time>2026-05-01T08:32:48.101Z</time></trkpt><trkpt lat="44.6039717" lon="8.9532017"><ele>338.0</ele><time>2026-05-01T08:32:50.101Z</time></trkpt><trkpt lat="44.6040433" lon="8.95336"><ele>338.0</ele><time>2026-05-01T08:32:54.101Z</time></trkpt><trkpt lat="44.60408" lon="8.9534783"><ele>338.0</ele><time>2026-05-01T08:32:56.102Z</time></trkpt><trkpt lat="44.60412" lon="8.9535833"><ele>338.0</ele><time>2026-05-01T08:32:58.101Z</time></trkpt><trkpt lat="44.6041683" lon="8.953695"><ele>338.0</ele><time>2026-05-01T08:33:00.102Z</time></trkpt><trkpt lat="44.6042117" lon="8.9538083"><ele>337.59999999999997</ele><time>2026-05-01T08:33:02.102Z</time></trkpt><trkpt lat="44.604255" lon="8.953915"><ele>337.2</ele><time>2026-05-01T08:33:04.101Z</time></trkpt><trkpt lat="44.6042983" lon="8.9539833"><ele>336.8</ele><time>2026-05-01T08:33:53.101Z</time></trkpt><trkpt lat="44.6043483" lon="8.9541567"><ele>336.4</ele><time>2026-05-01T08:34:00.102Z</time></trkpt><trkpt lat="44.604385" lon="8.9542483"><ele>336.0</ele><time>2026-05-01T08:34:25.102Z</time></trkpt><trkpt lat="44.604475" lon="8.9544333"><ele>335.6</ele><time>2026-05-01T08:35:08.1Z</time></trkpt><trkpt lat="44.6045883" lon="8.9547067"><ele>335.20000000000005</ele><time>2026-05-01T08:35:20.1Z</time></trkpt><trkpt lat="44.6046267" lon="8.9547833"><ele>334.79999999999995</ele><time>2026-05-01T08:35:21.1Z</time></trkpt><trkpt lat="44.60467" lon="8.954865"><ele>334.4</ele><time>2026-05-01T08:35:22.1Z</time></trkpt><trkpt lat="44.6047067" lon="8.95496"><ele>334.0</ele><time>2026-05-01T08:35:23.101Z</time></trkpt><trkpt lat="44.6047433" lon="8.9550417"><ele>335.0</ele><time>2026-05-01T08:35:24.101Z</time></trkpt><trkpt lat="44.6047783" lon="8.955125"><ele>336.0</ele><time>2026-05-01T08:35:25.1Z</time></trkpt><trkpt lat="44.6048183" lon="8.955205"><ele>337.0</ele><time>2026-05-01T08:35:26.101Z</time></trkpt><trkpt lat="44.604855" lon="8.9553017"><ele>338.0</ele><time>2026-05-01T08:35:27.1Z</time></trkpt><trkpt lat="44.604895" lon="8.9554017"><ele>339.0</ele><time>2026-05-01T08:35:28.101Z</time></trkpt><trkpt lat="44.6049833" lon="8.95561"><ele>339.0</ele><time>2026-05-01T08:35:30.1Z</time></trkpt><trkpt lat="44.6050283" lon="8.955715"><ele>339.0</ele><time>2026-05-01T08:35:31.101Z</time></trkpt><trkpt lat="44.6050817" lon="8.9558183"><ele>339.0</ele><time>2026-05-01T08:35:32.101Z</time></trkpt><trkpt lat="44.6051383" lon="8.95592"><ele>339.0</ele><time>2026-05-01T08:35:33.101Z</time></trkpt><trkpt lat="44.6052" lon="8.9560233"><ele>339.0</ele><time>2026-05-01T08:35:34.1Z</time></trkpt><trkpt lat="44.6052583" lon="8.9561317"><ele>339.79999999999995</ele><time>2026-05-01T08:35:35.1Z</time></trkpt><trkpt lat="44.6053233" lon="8.9562333"><ele>340.59999999999997</ele><time>2026-05-01T08:35:36.1Z</time></trkpt><trkpt lat="44.6053883" lon="8.9563283"><ele>341.4</ele><time>2026-05-01T08:35:37.1Z</time></trkpt><trkpt lat="44.6054583" lon="8.9564183"><ele>342.2</ele><time>2026-05-01T08:35:38.1Z</time></trkpt><trkpt lat="44.605535" lon="8.9564983"><ele>343.0</ele><time>2026-05-01T08:35:39.1Z</time></trkpt><trkpt lat="44.605615" lon="8.9565733"><ele>342.4</ele><time>2026-05-01T08:35:40.1Z</time></trkpt><trkpt lat="44.6057" lon="8.956645"><ele>341.79999999999995</ele><time>2026-05-01T08:35:41.1Z</time></trkpt><trkpt lat="44.6057883" lon="8.9567083"><ele>341.2</ele><time>2026-05-01T08:35:42.101Z</time></trkpt><trkpt lat="44.60588" lon="8.9567683"><ele>340.6</ele><time>2026-05-01T08:35:43.1Z</time></trkpt><trkpt lat="44.60598" lon="8.95682"><ele>340.0</ele><time>2026-05-01T08:35:44.1Z</time></trkpt><trkpt lat="44.60608" lon="8.95687"><ele>338.6</ele><time>2026-05-01T08:35:45.101Z</time></trkpt><trkpt lat="44.6061717" lon="8.9569183"><ele>337.2</ele><time>2026-05-01T08:35:46.101Z</time></trkpt><trkpt lat="44.606265" lon="8.95696"><ele>335.79999999999995</ele><time>2026-05-01T08:35:47.1Z</time></trkpt><trkpt lat="44.6063567" lon="8.957"><ele>334.4</ele><time>2026-05-01T08:35:48.101Z</time></trkpt><trkpt lat="44.606445" lon="8.957035"><ele>333.0</ele><time>2026-05-01T08:35:49.1Z</time></trkpt><trkpt lat="44.6066083" lon="8.95707"><ele>333.0</ele><time>2026-05-01T08:35:51.1Z</time></trkpt><trkpt lat="44.6066933" lon="8.9570833"><ele>333.0</ele><time>2026-05-01T08:35:52.1Z</time></trkpt><trkpt lat="44.6067717" lon="8.95709"><ele>333.0</ele><time>2026-05-01T08:35:53.1Z</time></trkpt><trkpt lat="44.6068517" lon="8.9570933"><ele>333.0</ele><time>2026-05-01T08:35:54.1Z</time></trkpt><trkpt lat="44.6069283" lon="8.9570867"><ele>333.0</ele><time>2026-05-01T08:35:55.1Z</time></trkpt><trkpt lat="44.6070083" lon="8.9570883"><ele>333.0</ele><time>2026-05-01T08:35:56.1Z</time></trkpt><trkpt lat="44.60709" lon="8.9570833"><ele>332.0</ele><time>2026-05-01T08:35:57.101Z</time></trkpt><trkpt lat="44.607165" lon="8.957075"><ele>331.0</ele><time>2026-05-01T08:35:58.1Z</time></trkpt><trkpt lat="44.6072383" lon="8.9570633"><ele>330.0</ele><time>2026-05-01T08:35:59.1Z</time></trkpt><trkpt lat="44.6073133" lon="8.95705"><ele>329.0</ele><time>2026-05-01T08:36:00.101Z</time></trkpt><trkpt lat="44.6073967" lon="8.9570383"><ele>328.0</ele><time>2026-05-01T08:36:01.1Z</time></trkpt><trkpt lat="44.6074733" lon="8.957025"><ele>327.0</ele><time>2026-05-01T08:36:02.101Z</time></trkpt><trkpt lat="44.6075583" lon="8.957015"><ele>327.0</ele><time>2026-05-01T08:36:03.101Z</time></trkpt><trkpt lat="44.6076433" lon="8.9570067"><ele>327.0</ele><time>2026-05-01T08:36:04.1Z</time></trkpt><trkpt lat="44.6077333" lon="8.9569967"><ele>327.0</ele><time>2026-05-01T08:36:05.101Z</time></trkpt><trkpt lat="44.6078233" lon="8.956985"><ele>327.0</ele><time>2026-05-01T08:36:06.1Z</time></trkpt><trkpt lat="44.6079133" lon="8.9569683"><ele>327.0</ele><time>2026-05-01T08:36:07.101Z</time></trkpt><trkpt lat="44.6080067" lon="8.956945"><ele>327.75</ele><time>2026-05-01T08:36:08.1Z</time></trkpt><trkpt lat="44.6081033" lon="8.9569217"><ele>328.5</ele><time>2026-05-01T08:36:09.101Z</time></trkpt><trkpt lat="44.6081983" lon="8.956905"><ele>329.25</ele><time>2026-05-01T08:36:10.101Z</time></trkpt><trkpt lat="44.6084083" lon="8.9568767"><ele>330.0</ele><time>2026-05-01T08:36:12.101Z</time></trkpt><trkpt lat="44.608515" lon="8.9568633"><ele>330.0</ele><time>2026-05-01T08:36:13.1Z</time></trkpt><trkpt lat="44.6086283" lon="8.9568583"><ele>330.0</ele><time>2026-05-01T08:36:14.101Z</time></trkpt><trkpt lat="44.6087483" lon="8.9568467"><ele>330.0</ele><time>2026-05-01T08:36:15.1Z</time></trkpt><trkpt lat="44.60887" lon="8.9568417"><ele>330.0</ele><time>2026-05-01T08:36:16.1Z</time></trkpt><trkpt lat="44.6089933" lon="8.9568433"><ele>330.0</ele><time>2026-05-01T08:36:17.1Z</time></trkpt><trkpt lat="44.60912" lon="8.9568283"><ele>330.0</ele><time>2026-05-01T08:36:18.1Z</time></trkpt><trkpt lat="44.6092467" lon="8.9568183"><ele>330.0</ele><time>2026-05-01T08:36:19.101Z</time></trkpt><trkpt lat="44.60938" lon="8.9568067"><ele>330.0</ele><time>2026-05-01T08:36:20.101Z</time></trkpt><trkpt lat="44.6095133" lon="8.9567917"><ele>329.5</ele><time>2026-05-01T08:36:21.1Z</time></trkpt><trkpt lat="44.6096433" lon="8.9567767"><ele>329.0</ele><time>2026-05-01T08:36:22.101Z</time></trkpt><trkpt lat="44.6097817" lon="8.95677"><ele>328.5</ele><time>2026-05-01T08:36:23.101Z</time></trkpt><trkpt lat="44.609915" lon="8.956765"><ele>328.0</ele><time>2026-05-01T08:36:24.1Z</time></trkpt><trkpt lat="44.6100483" lon="8.9567533"><ele>328.0</ele><time>2026-05-01T08:36:25.1Z</time></trkpt><trkpt lat="44.6101833" lon="8.9567483"><ele>328.0</ele><time>2026-05-01T08:36:26.1Z</time></trkpt><trkpt lat="44.6103233" lon="8.9567367"><ele>328.0</ele><time>2026-05-01T08:36:27.1Z</time></trkpt><trkpt lat="44.61046" lon="8.9567267"><ele>328.0</ele><time>2026-05-01T08:36:28.1Z</time></trkpt><trkpt lat="44.610595" lon="8.956705"><ele>327.66666666666663</ele><time>2026-05-01T08:36:29.101Z</time></trkpt><trkpt lat="44.61073" lon="8.9566883"><ele>327.3333333333333</ele><time>2026-05-01T08:36:30.101Z</time></trkpt><trkpt lat="44.6108667" lon="8.9566683"><ele>327.0</ele><time>2026-05-01T08:36:31.101Z</time></trkpt><trkpt lat="44.6111417" lon="8.9566233"><ele>327.25</ele><time>2026-05-01T08:36:33.101Z</time></trkpt><trkpt lat="44.61128" lon="8.9565817"><ele>327.5</ele><time>2026-05-01T08:36:34.1Z</time></trkpt><trkpt lat="44.6114233" lon="8.9565333"><ele>327.75</ele><time>2026-05-01T08:36:35.101Z</time></trkpt><trkpt lat="44.6115633" lon="8.9564667"><ele>328.0</ele><time>2026-05-01T08:36:36.1Z</time></trkpt><trkpt lat="44.611695" lon="8.956385"><ele>328.0</ele><time>2026-05-01T08:36:37.101Z</time></trkpt><trkpt lat="44.6118367" lon="8.9563067"><ele>328.0</ele><time>2026-05-01T08:36:38.101Z</time></trkpt><trkpt lat="44.6119683" lon="8.9562167"><ele>328.0</ele><time>2026-05-01T08:36:39.1Z</time></trkpt><trkpt lat="44.6120933" lon="8.9561283"><ele>328.0</ele><time>2026-05-01T08:36:40.1Z</time></trkpt><trkpt lat="44.61221" lon="8.9560383"><ele>328.0</ele><time>2026-05-01T08:36:41.1Z</time></trkpt><trkpt lat="44.6123267" lon="8.95595"><ele>328.0</ele><time>2026-05-01T08:36:42.1Z</time></trkpt><trkpt lat="44.612435" lon="8.95587"><ele>328.0</ele><time>2026-05-01T08:36:43.101Z</time></trkpt><trkpt lat="44.6125433" lon="8.9557817"><ele>328.0</ele><time>2026-05-01T08:36:44.1Z</time></trkpt><trkpt lat="44.6126517" lon="8.9556917"><ele>328.0</ele><time>2026-05-01T08:36:45.1Z</time></trkpt><trkpt lat="44.61276" lon="8.9556017"><ele>328.0</ele><time>2026-05-01T08:36:46.1Z</time></trkpt><trkpt lat="44.6128717" lon="8.95551"><ele>328.0</ele><time>2026-05-01T08:36:47.101Z</time></trkpt><trkpt lat="44.6129733" lon="8.9554117"><ele>328.0</ele><time>2026-05-01T08:36:48.101Z</time></trkpt><trkpt lat="44.61307" lon="8.955315"><ele>327.5</ele><time>2026-05-01T08:36:49.1Z</time></trkpt><trkpt lat="44.6131617" lon="8.9552167"><ele>327.0</ele><time>2026-05-01T08:36:50.101Z</time></trkpt><trkpt lat="44.6132517" lon="8.95513"><ele>326.5</ele><time>2026-05-01T08:36:51.1Z</time></trkpt><trkpt lat="44.6133417" lon="8.9550467"><ele>326.0</ele><time>2026-05-01T08:36:52.101Z</time></trkpt><trkpt lat="44.61351" lon="8.9548683"><ele>326.0</ele><time>2026-05-01T08:36:54.1Z</time></trkpt><trkpt lat="44.613595" lon="8.9547783"><ele>326.0</ele><time>2026-05-01T08:36:55.1Z</time></trkpt><trkpt lat="44.61368" lon="8.9546883"><ele>326.0</ele><time>2026-05-01T08:36:56.1Z</time></trkpt><trkpt lat="44.6137683" lon="8.9546"><ele>326.0</ele><time>2026-05-01T08:36:57.101Z</time></trkpt><trkpt lat="44.6138517" lon="8.95451"><ele>326.0</ele><time>2026-05-01T08:36:58.1Z</time></trkpt><trkpt lat="44.6139317" lon="8.954415"><ele>326.4</ele><time>2026-05-01T08:36:59.1Z</time></trkpt><trkpt lat="44.6140083" lon="8.95431"><ele>326.8</ele><time>2026-05-01T08:37:00.101Z</time></trkpt><trkpt lat="44.61409" lon="8.954205"><ele>327.2</ele><time>2026-05-01T08:37:01.1Z</time></trkpt><trkpt lat="44.6141667" lon="8.9540983"><ele>327.59999999999997</ele><time>2026-05-01T08:37:02.101Z</time></trkpt><trkpt lat="44.6142317" lon="8.9539833"><ele>328.0</ele><time>2026-05-01T08:37:03.1Z</time></trkpt><trkpt lat="44.6142967" lon="8.95386"><ele>328.0</ele><time>2026-05-01T08:37:04.1Z</time></trkpt><trkpt lat="44.6143633" lon="8.9537367"><ele>328.0</ele><time>2026-05-01T08:37:05.1Z</time></trkpt><trkpt lat="44.6144317" lon="8.9536167"><ele>328.0</ele><time>2026-05-01T08:37:06.101Z</time></trkpt><trkpt lat="44.6144967" lon="8.9535"><ele>328.0</ele><time>2026-05-01T08:37:07.101Z</time></trkpt><trkpt lat="44.61457" lon="8.9533783"><ele>328.0</ele><time>2026-05-01T08:37:08.101Z</time></trkpt><trkpt lat="44.6146317" lon="8.95325"><ele>329.4</ele><time>2026-05-01T08:37:09.1Z</time></trkpt><trkpt lat="44.6146967" lon="8.9531217"><ele>330.79999999999995</ele><time>2026-05-01T08:37:10.1Z</time></trkpt><trkpt lat="44.6147567" lon="8.9529967"><ele>332.2</ele><time>2026-05-01T08:37:11.101Z</time></trkpt><trkpt lat="44.614805" lon="8.9528633"><ele>333.6</ele><time>2026-05-01T08:37:12.1Z</time></trkpt><trkpt lat="44.6148567" lon="8.9527317"><ele>335.0</ele><time>2026-05-01T08:37:13.101Z</time></trkpt><trkpt lat="44.6149517" lon="8.9524683"><ele>335.0</ele><time>2026-05-01T08:37:15.1Z</time></trkpt><trkpt lat="44.61499" lon="8.95234"><ele>335.0</ele><time>2026-05-01T08:37:16.101Z</time></trkpt><trkpt lat="44.6150317" lon="8.9522133"><ele>335.0</ele><time>2026-05-01T08:37:17.1Z</time></trkpt><trkpt lat="44.6150717" lon="8.9520833"><ele>335.0</ele><time>2026-05-01T08:37:18.101Z</time></trkpt><trkpt lat="44.615105" lon="8.9519517"><ele>335.0</ele><time>2026-05-01T08:37:19.1Z</time></trkpt><trkpt lat="44.6151417" lon="8.9518267"><ele>333.4</ele><time>2026-05-01T08:37:20.101Z</time></trkpt><trkpt lat="44.6151767" lon="8.9516933"><ele>331.8</ele><time>2026-05-01T08:37:21.1Z</time></trkpt><trkpt lat="44.6152117" lon="8.9515567"><ele>330.20000000000005</ele><time>2026-05-01T08:37:22.101Z</time></trkpt><trkpt lat="44.6152517" lon="8.951415"><ele>328.6</ele><time>2026-05-01T08:37:23.101Z</time></trkpt><trkpt lat="44.61529" lon="8.9512733"><ele>327.0</ele><time>2026-05-01T08:37:24.101Z</time></trkpt><trkpt lat="44.6153267" lon="8.9511383"><ele>329.0</ele><time>2026-05-01T08:37:25.1Z</time></trkpt><trkpt lat="44.6153617" lon="8.9509933"><ele>331.0</ele><time>2026-05-01T08:37:26.1Z</time></trkpt><trkpt lat="44.6153983" lon="8.9508483"><ele>333.0</ele><time>2026-05-01T08:37:27.1Z</time></trkpt><trkpt lat="44.6154433" lon="8.9507017"><ele>335.0</ele><time>2026-05-01T08:37:28.1Z</time></trkpt><trkpt lat="44.6154817" lon="8.9505567"><ele>337.0</ele><time>2026-05-01T08:37:29.101Z</time></trkpt><trkpt lat="44.6155217" lon="8.9504033"><ele>337.0</ele><time>2026-05-01T08:37:30.101Z</time></trkpt><trkpt lat="44.6155683" lon="8.9502583"><ele>337.0</ele><time>2026-05-01T08:37:31.1Z</time></trkpt><trkpt lat="44.6156117" lon="8.9501067"><ele>337.0</ele><time>2026-05-01T08:37:32.1Z</time></trkpt><trkpt lat="44.61566" lon="8.9499533"><ele>337.0</ele><time>2026-05-01T08:37:33.101Z</time></trkpt><trkpt lat="44.6157083" lon="8.9498017"><ele>335.25</ele><time>2026-05-01T08:37:34.101Z</time></trkpt><trkpt lat="44.61582" lon="8.9495067"><ele>333.5</ele><time>2026-05-01T08:37:36.1Z</time></trkpt><trkpt lat="44.6158733" lon="8.949375"><ele>331.75</ele><time>2026-05-01T08:37:37.101Z</time></trkpt><trkpt lat="44.615925" lon="8.9492533"><ele>330.0</ele><time>2026-05-01T08:37:38.101Z</time></trkpt><trkpt lat="44.6159817" lon="8.949145"><ele>329.0</ele><time>2026-05-01T08:37:39.1Z</time></trkpt><trkpt lat="44.6160383" lon="8.9490433"><ele>328.0</ele><time>2026-05-01T08:37:40.1Z</time></trkpt><trkpt lat="44.616095" lon="8.9489467"><ele>327.0</ele><time>2026-05-01T08:37:41.1Z</time></trkpt><trkpt lat="44.6161633" lon="8.94886"><ele>326.0</ele><time>2026-05-01T08:37:42.101Z</time></trkpt><trkpt lat="44.6162283" lon="8.94877"><ele>325.0</ele><time>2026-05-01T08:37:43.101Z</time></trkpt><trkpt lat="44.6162983" lon="8.9486867"><ele>325.6</ele><time>2026-05-01T08:37:44.101Z</time></trkpt><trkpt lat="44.6163683" lon="8.9486083"><ele>326.2</ele><time>2026-05-01T08:37:45.101Z</time></trkpt><trkpt lat="44.6164467" lon="8.94852"><ele>326.79999999999995</ele><time>2026-05-01T08:37:46.101Z</time></trkpt><trkpt lat="44.616525" lon="8.9484283"><ele>327.4</ele><time>2026-05-01T08:37:47.101Z</time></trkpt><trkpt lat="44.61661" lon="8.9483517"><ele>328.0</ele><time>2026-05-01T08:37:48.101Z</time></trkpt><trkpt lat="44.6166983" lon="8.94828"><ele>328.0</ele><time>2026-05-01T08:37:49.1Z</time></trkpt><trkpt lat="44.6167867" lon="8.9482017"><ele>328.0</ele><time>2026-05-01T08:37:50.101Z</time></trkpt><trkpt lat="44.6168917" lon="8.9481383"><ele>328.0</ele><time>2026-05-01T08:37:51.1Z</time></trkpt><trkpt lat="44.617005" lon="8.9480783"><ele>328.0</ele><time>2026-05-01T08:37:52.101Z</time></trkpt><trkpt lat="44.6171033" lon="8.94801"><ele>330.0</ele><time>2026-05-01T08:37:53.1Z</time></trkpt><trkpt lat="44.6171983" lon="8.9479517"><ele>332.0</ele><time>2026-05-01T08:37:54.101Z</time></trkpt><trkpt lat="44.617285" lon="8.9478967"><ele>334.0</ele><time>2026-05-01T08:37:55.1Z</time></trkpt><trkpt lat="44.6174383" lon="8.9477933"><ele>336.0</ele><time>2026-05-01T08:37:57.1Z</time></trkpt><trkpt lat="44.6175" lon="8.9477417"><ele>338.0</ele><time>2026-05-01T08:37:58.101Z</time></trkpt><trkpt lat="44.6175633" lon="8.9476933"><ele>338.0</ele><time>2026-05-01T08:37:59.1Z</time></trkpt><trkpt lat="44.61764" lon="8.9476317"><ele>338.0</ele><time>2026-05-01T08:38:00.1Z</time></trkpt><trkpt lat="44.6177183" lon="8.9475733"><ele>338.0</ele><time>2026-05-01T08:38:01.1Z</time></trkpt><trkpt lat="44.6177917" lon="8.9475117"><ele>338.0</ele><time>2026-05-01T08:38:02.1Z</time></trkpt><trkpt lat="44.6178633" lon="8.94745"><ele>338.0</ele><time>2026-05-01T08:38:03.1Z</time></trkpt><trkpt lat="44.61794" lon="8.9473883"><ele>338.0</ele><time>2026-05-01T08:38:04.1Z</time></trkpt><trkpt lat="44.6180133" lon="8.9473233"><ele>337.4</ele><time>2026-05-01T08:38:05.101Z</time></trkpt><trkpt lat="44.6181" lon="8.9472617"><ele>336.79999999999995</ele><time>2026-05-01T08:38:06.101Z</time></trkpt><trkpt lat="44.61819" lon="8.9472033"><ele>336.2</ele><time>2026-05-01T08:38:07.101Z</time></trkpt><trkpt lat="44.6182867" lon="8.9471317"><ele>335.6</ele><time>2026-05-01T08:38:08.101Z</time></trkpt><trkpt lat="44.6183833" lon="8.9470683"><ele>335.0</ele><time>2026-05-01T08:38:09.1Z</time></trkpt><trkpt lat="44.618475" lon="8.947"><ele>335.0</ele><time>2026-05-01T08:38:10.101Z</time></trkpt><trkpt lat="44.6185667" lon="8.9469517"><ele>335.0</ele><time>2026-05-01T08:38:11.101Z</time></trkpt><trkpt lat="44.6186667" lon="8.9469083"><ele>335.0</ele><time>2026-05-01T08:38:12.1Z</time></trkpt><trkpt lat="44.6187683" lon="8.9468917"><ele>335.0</ele><time>2026-05-01T08:38:13.1Z</time></trkpt><trkpt lat="44.6188783" lon="8.9468933"><ele>335.0</ele><time>2026-05-01T08:38:14.1Z</time></trkpt><trkpt lat="44.618985" lon="8.9469117"><ele>336.25</ele><time>2026-05-01T08:38:15.1Z</time></trkpt><trkpt lat="44.6190983" lon="8.9469467"><ele>337.5</ele><time>2026-05-01T08:38:16.1Z</time></trkpt><trkpt lat="44.6192917" lon="8.9470683"><ele>338.75</ele><time>2026-05-01T08:38:18.101Z</time></trkpt><trkpt lat="44.61938" lon="8.9471533"><ele>340.0</ele><time>2026-05-01T08:38:19.1Z</time></trkpt><trkpt lat="44.6194517" lon="8.9472533"><ele>338.25</ele><time>2026-05-01T08:38:20.1Z</time></trkpt><trkpt lat="44.619515" lon="8.9473683"><ele>336.5</ele><time>2026-05-01T08:38:21.101Z</time></trkpt><trkpt lat="44.619575" lon="8.9475"><ele>334.75</ele><time>2026-05-01T08:38:22.101Z</time></trkpt><trkpt lat="44.6196333" lon="8.9476467"><ele>333.0</ele><time>2026-05-01T08:38:23.101Z</time></trkpt><trkpt lat="44.6196867" lon="8.947795"><ele>333.0</ele><time>2026-05-01T08:38:24.101Z</time></trkpt><trkpt lat="44.6197417" lon="8.9479533"><ele>333.0</ele><time>2026-05-01T08:38:25.1Z</time></trkpt><trkpt lat="44.6197983" lon="8.94812"><ele>333.0</ele><time>2026-05-01T08:38:26.1Z</time></trkpt><trkpt lat="44.6198567" lon="8.9482883"><ele>333.0</ele><time>2026-05-01T08:38:27.1Z</time></trkpt><trkpt lat="44.6199133" lon="8.9484367"><ele>339.25</ele><time>2026-05-01T08:38:28.1Z</time></trkpt><trkpt lat="44.61997" lon="8.9485933"><ele>345.5</ele><time>2026-05-01T08:38:29.101Z</time></trkpt><trkpt lat="44.6200283" lon="8.948745"><ele>351.75</ele><time>2026-05-01T08:38:30.1Z</time></trkpt><trkpt lat="44.620085" lon="8.9488917"><ele>358.0</ele><time>2026-05-01T08:38:31.1Z</time></trkpt><trkpt lat="44.6201583" lon="8.9490417"><ele>358.0</ele><time>2026-05-01T08:38:32.1Z</time></trkpt><trkpt lat="44.620235" lon="8.9491833"><ele>358.0</ele><time>2026-05-01T08:38:33.101Z</time></trkpt><trkpt lat="44.62032" lon="8.9493167"><ele>358.0</ele><time>2026-05-01T08:38:34.1Z</time></trkpt><trkpt lat="44.6203983" lon="8.9494383"><ele>358.0</ele><time>2026-05-01T08:38:35.101Z</time></trkpt><trkpt lat="44.6204733" lon="8.9495583"><ele>358.5</ele><time>2026-05-01T08:38:36.1Z</time></trkpt><trkpt lat="44.6205567" lon="8.9496667"><ele>359.0</ele><time>2026-05-01T08:38:37.101Z</time></trkpt><trkpt lat="44.620715" lon="8.9498733"><ele>359.5</ele><time>2026-05-01T08:38:39.1Z</time></trkpt><trkpt lat="44.6207933" lon="8.949985"><ele>360.0</ele><time>2026-05-01T08:38:40.101Z</time></trkpt><trkpt lat="44.6208683" lon="8.9501"><ele>360.0</ele><time>2026-05-01T08:38:41.101Z</time></trkpt><trkpt lat="44.6209517" lon="8.9502183"><ele>360.0</ele><time>2026-05-01T08:38:42.101Z</time></trkpt><trkpt lat="44.6210383" lon="8.950335"><ele>360.0</ele><time>2026-05-01T08:38:43.101Z</time></trkpt><trkpt lat="44.6211167" lon="8.9504483"><ele>360.0</ele><time>2026-05-01T08:38:44.101Z</time></trkpt><trkpt lat="44.6211917" lon="8.9505517"><ele>358.6</ele><time>2026-05-01T08:38:45.101Z</time></trkpt><trkpt lat="44.621265" lon="8.9506467"><ele>357.2</ele><time>2026-05-01T08:38:46.1Z</time></trkpt><trkpt lat="44.6213333" lon="8.950745"><ele>355.79999999999995</ele><time>2026-05-01T08:38:47.101Z</time></trkpt><trkpt lat="44.6214033" lon="8.950835"><ele>354.4</ele><time>2026-05-01T08:38:48.1Z</time></trkpt><trkpt lat="44.621465" lon="8.950925"><ele>353.0</ele><time>2026-05-01T08:38:49.101Z</time></trkpt><trkpt lat="44.62153" lon="8.9510067"><ele>353.0</ele><time>2026-05-01T08:38:50.1Z</time></trkpt><trkpt lat="44.6216" lon="8.9510917"><ele>353.0</ele><time>2026-05-01T08:38:51.1Z</time></trkpt><trkpt lat="44.6216683" lon="8.951185"><ele>353.0</ele><time>2026-05-01T08:38:52.101Z</time></trkpt><trkpt lat="44.6217333" lon="8.9512767"><ele>353.0</ele><time>2026-05-01T08:38:53.1Z</time></trkpt><trkpt lat="44.6218033" lon="8.9513667"><ele>353.0</ele><time>2026-05-01T08:38:54.1Z</time></trkpt><trkpt lat="44.6218783" lon="8.9514583"><ele>353.0</ele><time>2026-05-01T08:38:55.1Z</time></trkpt><trkpt lat="44.6219617" lon="8.9515433"><ele>353.0</ele><time>2026-05-01T08:38:56.101Z</time></trkpt><trkpt lat="44.6220533" lon="8.951615"><ele>353.0</ele><time>2026-05-01T08:38:57.101Z</time></trkpt><trkpt lat="44.6221567" lon="8.9516833"><ele>353.0</ele><time>2026-05-01T08:38:58.1Z</time></trkpt><trkpt lat="44.6223633" lon="8.9517783"><ele>353.75</ele><time>2026-05-01T08:39:00.1Z</time></trkpt><trkpt lat="44.6224767" lon="8.951805"><ele>354.5</ele><time>2026-05-01T08:39:01.1Z</time></trkpt><trkpt lat="44.6225983" lon="8.9518167"><ele>355.25</ele><time>2026-05-01T08:39:02.1Z</time></trkpt><trkpt lat="44.6227217" lon="8.9518167"><ele>356.0</ele><time>2026-05-01T08:39:03.101Z</time></trkpt><trkpt lat="44.622845" lon="8.9518067"><ele>356.0</ele><time>2026-05-01T08:39:04.1Z</time></trkpt><trkpt lat="44.6229733" lon="8.9517683"><ele>356.0</ele><time>2026-05-01T08:39:05.1Z</time></trkpt><trkpt lat="44.6231033" lon="8.9517117"><ele>356.0</ele><time>2026-05-01T08:39:06.1Z</time></trkpt><trkpt lat="44.6232317" lon="8.9516467"><ele>356.0</ele><time>2026-05-01T08:39:07.101Z</time></trkpt><trkpt lat="44.623355" lon="8.9515867"><ele>357.0</ele><time>2026-05-01T08:39:08.1Z</time></trkpt><trkpt lat="44.623475" lon="8.9515183"><ele>358.0</ele><time>2026-05-01T08:39:09.101Z</time></trkpt><trkpt lat="44.6235933" lon="8.9514317"><ele>359.0</ele><time>2026-05-01T08:39:10.101Z</time></trkpt><trkpt lat="44.6237117" lon="8.9513267"><ele>360.0</ele><time>2026-05-01T08:39:11.101Z</time></trkpt><trkpt lat="44.623835" lon="8.9512183"><ele>360.0</ele><time>2026-05-01T08:39:12.1Z</time></trkpt><trkpt lat="44.623955" lon="8.9511033"><ele>360.0</ele><time>2026-05-01T08:39:13.1Z</time></trkpt><trkpt lat="44.6240767" lon="8.950995"><ele>360.0</ele><time>2026-05-01T08:39:14.101Z</time></trkpt><trkpt lat="44.6241833" lon="8.9508683"><ele>360.0</ele><time>2026-05-01T08:39:15.101Z</time></trkpt><trkpt lat="44.624295" lon="8.95073"><ele>362.0</ele><time>2026-05-01T08:39:16.101Z</time></trkpt><trkpt lat="44.624415" lon="8.95059"><ele>364.0</ele><time>2026-05-01T08:39:17.1Z</time></trkpt><trkpt lat="44.62455" lon="8.950455"><ele>366.0</ele><time>2026-05-01T08:39:18.101Z</time></trkpt><trkpt lat="44.6246933" lon="8.9503083"><ele>351.5</ele><time>2026-05-01T08:39:19.1Z</time></trkpt><trkpt lat="44.6249933" lon="8.9499467"><ele>337.0</ele><time>2026-05-01T08:39:21.101Z</time></trkpt><trkpt lat="44.62516" lon="8.9497283"><ele>345.5</ele><time>2026-05-01T08:39:22.101Z</time></trkpt><trkpt lat="44.6253467" lon="8.9494667"><ele>354.0</ele><time>2026-05-01T08:39:23.101Z</time></trkpt><trkpt lat="44.62554" lon="8.949155"><ele>354.0</ele><time>2026-05-01T08:39:24.1Z</time></trkpt><trkpt lat="44.625745" lon="8.948805"><ele>354.0</ele><time>2026-05-01T08:39:25.1Z</time></trkpt><trkpt lat="44.6259533" lon="8.948485"><ele>363.5</ele><time>2026-05-01T08:39:26.1Z</time></trkpt><trkpt lat="44.6261433" lon="8.9481867"><ele>373.0</ele><time>2026-05-01T08:39:27.1Z</time></trkpt><trkpt lat="44.626325" lon="8.9478983"><ele>373.0</ele><time>2026-05-01T08:39:28.101Z</time></trkpt><trkpt lat="44.6265083" lon="8.947585"><ele>373.0</ele><time>2026-05-01T08:39:29.101Z</time></trkpt><trkpt lat="44.6266867" lon="8.9472567"><ele>372.0</ele><time>2026-05-01T08:39:30.101Z</time></trkpt><trkpt lat="44.6268617" lon="8.9469433"><ele>371.0</ele><time>2026-05-01T08:39:31.1Z</time></trkpt><trkpt lat="44.62703" lon="8.946655"><ele>371.0</ele><time>2026-05-01T08:39:32.101Z</time></trkpt><trkpt lat="44.6271867" lon="8.9463783"><ele>371.0</ele><time>2026-05-01T08:39:33.1Z</time></trkpt><trkpt lat="44.6273367" lon="8.94611"><ele>353.5</ele><time>2026-05-01T08:39:34.1Z</time></trkpt><trkpt lat="44.627465" lon="8.945825"><ele>336.0</ele><time>2026-05-01T08:39:35.1Z</time></trkpt><trkpt lat="44.62757" lon="8.94551"><ele>336.0</ele><time>2026-05-01T08:39:36.101Z</time></trkpt><trkpt lat="44.6276933" lon="8.94519"><ele>336.0</ele><time>2026-05-01T08:39:37.101Z</time></trkpt><trkpt lat="44.62781" lon="8.9448517"><ele>338.0</ele><time>2026-05-01T08:39:38.101Z</time></trkpt><trkpt lat="44.6279283" lon="8.9445067"><ele>340.0</ele><time>2026-05-01T08:39:39.1Z</time></trkpt><trkpt lat="44.6280583" lon="8.9441783"><ele>340.0</ele><time>2026-05-01T08:39:40.1Z</time></trkpt><trkpt lat="44.6283733" lon="8.943645"><ele>340.0</ele><time>2026-05-01T08:39:42.1Z</time></trkpt><trkpt lat="44.6285617" lon="8.9434433"><ele>340.0</ele><time>2026-05-01T08:39:43.101Z</time></trkpt><trkpt lat="44.6287867" lon="8.9432833"><ele>336.5</ele><time>2026-05-01T08:39:44.101Z</time></trkpt><trkpt lat="44.6290283" lon="8.94314"><ele>333.0</ele><time>2026-05-01T08:39:45.1Z</time></trkpt><trkpt lat="44.6292717" lon="8.9430333"><ele>336.5</ele><time>2026-05-01T08:39:46.101Z</time></trkpt><trkpt lat="44.6295017" lon="8.942965"><ele>340.0</ele><time>2026-05-01T08:39:47.101Z</time></trkpt><trkpt lat="44.6297417" lon="8.9429233"><ele>340.0</ele><time>2026-05-01T08:39:48.1Z</time></trkpt><trkpt lat="44.6299767" lon="8.942865"><ele>340.0</ele><time>2026-05-01T08:39:49.1Z</time></trkpt><trkpt lat="44.6302317" lon="8.94286"><ele>334.5</ele><time>2026-05-01T08:39:50.101Z</time></trkpt><trkpt lat="44.6305067" lon="8.9429"><ele>329.0</ele><time>2026-05-01T08:39:51.101Z</time></trkpt><trkpt lat="44.630765" lon="8.9429533"><ele>329.0</ele><time>2026-05-01T08:39:52.1Z</time></trkpt><trkpt lat="44.6310133" lon="8.9430033"><ele>329.0</ele><time>2026-05-01T08:39:53.1Z</time></trkpt><trkpt lat="44.631225" lon="8.9430733"><ele>333.0</ele><time>2026-05-01T08:39:54.101Z</time></trkpt><trkpt lat="44.6314067" lon="8.9431683"><ele>337.0</ele><time>2026-05-01T08:39:55.1Z</time></trkpt><trkpt lat="44.6315767" lon="8.9432933"><ele>341.0</ele><time>2026-05-01T08:39:56.101Z</time></trkpt><trkpt lat="44.6317467" lon="8.9434617"><ele>341.0</ele><time>2026-05-01T08:39:57.1Z</time></trkpt><trkpt lat="44.6319133" lon="8.9436483"><ele>341.0</ele><time>2026-05-01T08:39:58.101Z</time></trkpt><trkpt lat="44.6320817" lon="8.9438567"><ele>341.0</ele><time>2026-05-01T08:39:59.1Z</time></trkpt><trkpt lat="44.63225" lon="8.9440867"><ele>334.0</ele><time>2026-05-01T08:40:00.1Z</time></trkpt><trkpt lat="44.6324167" lon="8.9443567"><ele>327.0</ele><time>2026-05-01T08:40:01.101Z</time></trkpt><trkpt lat="44.6327683" lon="8.9449317"><ele>322.5</ele><time>2026-05-01T08:40:03.101Z</time></trkpt><trkpt lat="44.6329517" lon="8.945225"><ele>318.0</ele><time>2026-05-01T08:40:04.101Z</time></trkpt><trkpt lat="44.633135" lon="8.9455033"><ele>318.0</ele><time>2026-05-01T08:40:05.1Z</time></trkpt><trkpt lat="44.6333117" lon="8.9457817"><ele>318.0</ele><time>2026-05-01T08:40:06.1Z</time></trkpt><trkpt lat="44.6334717" lon="8.94606"><ele>310.5</ele><time>2026-05-01T08:40:07.101Z</time></trkpt><trkpt lat="44.63363" lon="8.9463533"><ele>303.0</ele><time>2026-05-01T08:40:08.101Z</time></trkpt><trkpt lat="44.63378" lon="8.94665"><ele>303.5</ele><time>2026-05-01T08:40:09.1Z</time></trkpt><trkpt lat="44.6339033" lon="8.946955"><ele>304.0</ele><time>2026-05-01T08:40:10.1Z</time></trkpt><trkpt lat="44.6339983" lon="8.9472933"><ele>306.0</ele><time>2026-05-01T08:40:11.101Z</time></trkpt><trkpt lat="44.6340617" lon="8.9476383"><ele>308.0</ele><time>2026-05-01T08:40:12.1Z</time></trkpt><trkpt lat="44.63412" lon="8.9479733"><ele>308.0</ele><time>2026-05-01T08:40:13.1Z</time></trkpt><trkpt lat="44.634165" lon="8.9482933"><ele>308.0</ele><time>2026-05-01T08:40:14.101Z</time></trkpt><trkpt lat="44.6341817" lon="8.9486117"><ele>310.0</ele><time>2026-05-01T08:40:15.101Z</time></trkpt><trkpt lat="44.6342117" lon="8.9489367"><ele>312.0</ele><time>2026-05-01T08:40:16.101Z</time></trkpt><trkpt lat="44.6342433" lon="8.949265"><ele>318.0</ele><time>2026-05-01T08:40:17.1Z</time></trkpt><trkpt lat="44.6342917" lon="8.949575"><ele>324.0</ele><time>2026-05-01T08:40:18.1Z</time></trkpt><trkpt lat="44.63437" lon="8.9498717"><ele>316.0</ele><time>2026-05-01T08:40:19.1Z</time></trkpt><trkpt lat="44.63448" lon="8.95014"><ele>308.0</ele><time>2026-05-01T08:40:20.1Z</time></trkpt><trkpt lat="44.634615" lon="8.95038"><ele>300.0</ele><time>2026-05-01T08:40:21.101Z</time></trkpt><trkpt lat="44.6347917" lon="8.9505983"><ele>328.0</ele><time>2026-05-01T08:40:22.1Z</time></trkpt><trkpt lat="44.63518" lon="8.951035"><ele>315.0</ele><time>2026-05-01T08:40:24.101Z</time></trkpt><trkpt lat="44.6353617" lon="8.9512467"><ele>302.0</ele><time>2026-05-01T08:40:25.101Z</time></trkpt><trkpt lat="44.6355433" lon="8.9514583"><ele>302.0</ele><time>2026-05-01T08:40:26.1Z</time></trkpt><trkpt lat="44.6357233" lon="8.9516767"><ele>302.0</ele><time>2026-05-01T08:40:27.1Z</time></trkpt><trkpt lat="44.6359067" lon="8.9518817"><ele>306.5</ele><time>2026-05-01T08:40:28.1Z</time></trkpt><trkpt lat="44.636085" lon="8.952085"><ele>311.0</ele><time>2026-05-01T08:40:29.1Z</time></trkpt><trkpt lat="44.6362683" lon="8.9522817"><ele>311.0</ele><time>2026-05-01T08:40:30.101Z</time></trkpt><trkpt lat="44.63647" lon="8.952465"><ele>311.0</ele><time>2026-05-01T08:40:31.101Z</time></trkpt><trkpt lat="44.6367" lon="8.9526117"><ele>314.5</ele><time>2026-05-01T08:40:32.101Z</time></trkpt><trkpt lat="44.6369417" lon="8.952755"><ele>318.0</ele><time>2026-05-01T08:40:33.101Z</time></trkpt><trkpt lat="44.6371817" lon="8.952885"><ele>318.0</ele><time>2026-05-01T08:40:34.101Z</time></trkpt><trkpt lat="44.6374283" lon="8.9530217"><ele>318.0</ele><time>2026-05-01T08:40:35.101Z</time></trkpt><trkpt lat="44.637675" lon="8.9531717"><ele>320.0</ele><time>2026-05-01T08:40:36.1Z</time></trkpt><trkpt lat="44.6379433" lon="8.9533167"><ele>322.0</ele><time>2026-05-01T08:40:37.101Z</time></trkpt><trkpt lat="44.6382" lon="8.9534617"><ele>322.0</ele><time>2026-05-01T08:40:38.1Z</time></trkpt><trkpt lat="44.63844" lon="8.953605"><ele>322.0</ele><time>2026-05-01T08:40:39.1Z</time></trkpt><trkpt lat="44.638675" lon="8.9537333"><ele>313.0</ele><time>2026-05-01T08:40:40.101Z</time></trkpt><trkpt lat="44.6388983" lon="8.9538483"><ele>304.0</ele><time>2026-05-01T08:40:41.1Z</time></trkpt><trkpt lat="44.639105" lon="8.95398"><ele>304.0</ele><time>2026-05-01T08:40:42.101Z</time></trkpt><trkpt lat="44.6393033" lon="8.9541267"><ele>304.0</ele><time>2026-05-01T08:40:43.101Z</time></trkpt><trkpt lat="44.6396783" lon="8.9544833"><ele>305.0</ele><time>2026-05-01T08:40:45.101Z</time></trkpt><trkpt lat="44.6398467" lon="8.9546883"><ele>306.0</ele><time>2026-05-01T08:40:46.1Z</time></trkpt><trkpt lat="44.6400033" lon="8.9549117"><ele>307.0</ele><time>2026-05-01T08:40:47.1Z</time></trkpt><trkpt lat="44.6401567" lon="8.95517"><ele>305.0</ele><time>2026-05-01T08:40:48.1Z</time></trkpt><trkpt lat="44.6403133" lon="8.9554367"><ele>303.0</ele><time>2026-05-01T08:40:49.101Z</time></trkpt><trkpt lat="44.6404767" lon="8.9557"><ele>306.5</ele><time>2026-05-01T08:40:50.101Z</time></trkpt><trkpt lat="44.6406383" lon="8.9559733"><ele>310.0</ele><time>2026-05-01T08:40:51.1Z</time></trkpt><trkpt lat="44.6408067" lon="8.9562533"><ele>310.0</ele><time>2026-05-01T08:40:52.1Z</time></trkpt><trkpt lat="44.6409767" lon="8.9565233"><ele>310.0</ele><time>2026-05-01T08:40:53.101Z</time></trkpt><trkpt lat="44.6411367" lon="8.956785"><ele>314.5</ele><time>2026-05-01T08:40:54.101Z</time></trkpt><trkpt lat="44.6413033" lon="8.9570183"><ele>319.0</ele><time>2026-05-01T08:40:55.101Z</time></trkpt><trkpt lat="44.6414783" lon="8.9572667"><ele>319.0</ele><time>2026-05-01T08:40:56.101Z</time></trkpt><trkpt lat="44.6416717" lon="8.9574867"><ele>319.0</ele><time>2026-05-01T08:40:57.1Z</time></trkpt><trkpt lat="44.6418833" lon="8.957675"><ele>324.0</ele><time>2026-05-01T08:40:58.1Z</time></trkpt><trkpt lat="44.64212" lon="8.9578317"><ele>329.0</ele><time>2026-05-01T08:40:59.1Z</time></trkpt><trkpt lat="44.6423817" lon="8.9579783"><ele>329.0</ele><time>2026-05-01T08:41:00.1Z</time></trkpt><trkpt lat="44.6426567" lon="8.958135"><ele>329.0</ele><time>2026-05-01T08:41:01.1Z</time></trkpt><trkpt lat="44.6429283" lon="8.9582967"><ele>327.0</ele><time>2026-05-01T08:41:02.1Z</time></trkpt><trkpt lat="44.643175" lon="8.95847"><ele>325.0</ele><time>2026-05-01T08:41:03.101Z</time></trkpt><trkpt lat="44.6436667" lon="8.9587717"><ele>310.0</ele><time>2026-05-01T08:41:05.1Z</time></trkpt><trkpt lat="44.6439267" lon="8.9588933"><ele>295.0</ele><time>2026-05-01T08:41:06.101Z</time></trkpt><trkpt lat="44.644195" lon="8.9589983"><ele>293.0</ele><time>2026-05-01T08:41:07.1Z</time></trkpt><trkpt lat="44.64447" lon="8.9591033"><ele>291.0</ele><time>2026-05-01T08:41:08.101Z</time></trkpt><trkpt lat="44.6447467" lon="8.9592033"><ele>295.0</ele><time>2026-05-01T08:41:09.1Z</time></trkpt><trkpt lat="44.6450267" lon="8.9592933"><ele>299.0</ele><time>2026-05-01T08:41:10.1Z</time></trkpt><trkpt lat="44.6452867" lon="8.959375"><ele>301.0</ele><time>2026-05-01T08:41:11.101Z</time></trkpt><trkpt lat="44.64554" lon="8.95945"><ele>303.0</ele><time>2026-05-01T08:41:12.1Z</time></trkpt><trkpt lat="44.645795" lon="8.959515"><ele>303.0</ele><time>2026-05-01T08:41:13.1Z</time></trkpt><trkpt lat="44.646055" lon="8.9595467"><ele>303.0</ele><time>2026-05-01T08:41:14.1Z</time></trkpt><trkpt lat="44.64632" lon="8.95954"><ele>306.0</ele><time>2026-05-01T08:41:15.1Z</time></trkpt><trkpt lat="44.6465833" lon="8.9595017"><ele>309.0</ele><time>2026-05-01T08:41:16.1Z</time></trkpt><trkpt lat="44.64686" lon="8.9594517"><ele>311.0</ele><time>2026-05-01T08:41:17.101Z</time></trkpt><trkpt lat="44.6471433" lon="8.9594033"><ele>313.0</ele><time>2026-05-01T08:41:18.1Z</time></trkpt><trkpt lat="44.6474183" lon="8.9593617"><ele>313.0</ele><time>2026-05-01T08:41:19.101Z</time></trkpt><trkpt lat="44.6476783" lon="8.9593317"><ele>313.0</ele><time>2026-05-01T08:41:20.101Z</time></trkpt><trkpt lat="44.6479267" lon="8.95931"><ele>318.5</ele><time>2026-05-01T08:41:21.101Z</time></trkpt><trkpt lat="44.6481617" lon="8.9592817"><ele>324.0</ele><time>2026-05-01T08:41:22.1Z</time></trkpt><trkpt lat="44.6483983" lon="8.9592483"><ele>317.5</ele><time>2026-05-01T08:41:23.1Z</time></trkpt><trkpt lat="44.6486367" lon="8.9592167"><ele>311.0</ele><time>2026-05-01T08:41:24.1Z</time></trkpt><trkpt lat="44.6491017" lon="8.95916"><ele>311.0</ele><time>2026-05-01T08:41:26.101Z</time></trkpt><trkpt lat="44.6493267" lon="8.9591233"><ele>311.0</ele><time>2026-05-01T08:41:27.101Z</time></trkpt><trkpt lat="44.649535" lon="8.9590817"><ele>311.0</ele><time>2026-05-01T08:41:28.101Z</time></trkpt><trkpt lat="44.64973" lon="8.95903"><ele>310.6666666666667</ele><time>2026-05-01T08:41:29.1Z</time></trkpt><trkpt lat="44.64992" lon="8.9589583"><ele>310.3333333333333</ele><time>2026-05-01T08:41:30.1Z</time></trkpt><trkpt lat="44.6501033" lon="8.958855"><ele>310.0</ele><time>2026-05-01T08:41:31.101Z</time></trkpt><trkpt lat="44.6502917" lon="8.958715"><ele>310.0</ele><time>2026-05-01T08:41:32.101Z</time></trkpt><trkpt lat="44.6504767" lon="8.9585433"><ele>310.0</ele><time>2026-05-01T08:41:33.1Z</time></trkpt><trkpt lat="44.6506567" lon="8.9583317"><ele>307.5</ele><time>2026-05-01T08:41:34.1Z</time></trkpt><trkpt lat="44.6508267" lon="8.9580783"><ele>305.0</ele><time>2026-05-01T08:41:35.1Z</time></trkpt><trkpt lat="44.6509817" lon="8.9577933"><ele>301.0</ele><time>2026-05-01T08:41:36.1Z</time></trkpt><trkpt lat="44.65112" lon="8.957505"><ele>297.0</ele><time>2026-05-01T08:41:37.1Z</time></trkpt><trkpt lat="44.65125" lon="8.9572233"><ele>305.0</ele><time>2026-05-01T08:41:38.101Z</time></trkpt><trkpt lat="44.6513817" lon="8.95695"><ele>313.0</ele><time>2026-05-01T08:41:39.1Z</time></trkpt><trkpt lat="44.6515283" lon="8.956685"><ele>313.0</ele><time>2026-05-01T08:41:40.101Z</time></trkpt><trkpt lat="44.65168" lon="8.9564317"><ele>313.0</ele><time>2026-05-01T08:41:41.101Z</time></trkpt><trkpt lat="44.6518567" lon="8.9562017"><ele>329.5</ele><time>2026-05-01T08:41:42.101Z</time></trkpt><trkpt lat="44.6520267" lon="8.95596"><ele>346.0</ele><time>2026-05-01T08:41:43.101Z</time></trkpt><trkpt lat="44.65221" lon="8.95573"><ele>346.0</ele><time>2026-05-01T08:41:44.1Z</time></trkpt><trkpt lat="44.6525783" lon="8.9552567"><ele>343.5</ele><time>2026-05-01T08:41:46.101Z</time></trkpt><trkpt lat="44.6527617" lon="8.95501"><ele>341.0</ele><time>2026-05-01T08:41:47.101Z</time></trkpt><trkpt lat="44.6529533" lon="8.9547567"><ele>364.5</ele><time>2026-05-01T08:41:48.1Z</time></trkpt><trkpt lat="44.6531533" lon="8.9544917"><ele>388.0</ele><time>2026-05-01T08:41:49.1Z</time></trkpt><trkpt lat="44.6533617" lon="8.9542133"><ele>396.5</ele><time>2026-05-01T08:41:50.101Z</time></trkpt><trkpt lat="44.6535583" lon="8.9539533"><ele>405.0</ele><time>2026-05-01T08:41:51.1Z</time></trkpt><trkpt lat="44.6537567" lon="8.9536917"><ele>411.0</ele><time>2026-05-01T08:41:52.101Z</time></trkpt><trkpt lat="44.6539583" lon="8.95344"><ele>417.0</ele><time>2026-05-01T08:41:53.1Z</time></trkpt><trkpt lat="44.6541617" lon="8.9531967"><ele>423.0</ele><time>2026-05-01T08:41:54.1Z</time></trkpt><trkpt lat="44.6543683" lon="8.95296"><ele>429.0</ele><time>2026-05-01T08:41:55.1Z</time></trkpt><trkpt lat="44.65855" lon="8.950165"><ele>291.0</ele><time>2026-05-01T08:42:10.103Z</time></trkpt><trkpt lat="44.6590333" lon="8.9501433"><ele>291.0</ele><time>2026-05-01T08:42:12.102Z</time></trkpt><trkpt lat="44.659275" lon="8.9501817"><ele>291.0</ele><time>2026-05-01T08:42:13.103Z</time></trkpt><trkpt lat="44.6595183" lon="8.9502583"><ele>292.5</ele><time>2026-05-01T08:42:14.103Z</time></trkpt><trkpt lat="44.6597567" lon="8.9503583"><ele>294.0</ele><time>2026-05-01T08:42:15.102Z</time></trkpt><trkpt lat="44.6599833" lon="8.9504933"><ele>294.0</ele><time>2026-05-01T08:42:16.102Z</time></trkpt><trkpt lat="44.6602033" lon="8.9506583"><ele>294.0</ele><time>2026-05-01T08:42:17.102Z</time></trkpt><trkpt lat="44.6604183" lon="8.9508217"><ele>296.0</ele><time>2026-05-01T08:42:18.102Z</time></trkpt><trkpt lat="44.6606333" lon="8.9509567"><ele>298.0</ele><time>2026-05-01T08:42:19.103Z</time></trkpt><trkpt lat="44.66086" lon="8.9510667"><ele>298.0</ele><time>2026-05-01T08:42:20.102Z</time></trkpt><trkpt lat="44.6610917" lon="8.9511367"><ele>298.0</ele><time>2026-05-01T08:42:21.102Z</time></trkpt><trkpt lat="44.6613317" lon="8.9511683"><ele>296.0</ele><time>2026-05-01T08:42:22.103Z</time></trkpt><trkpt lat="44.6615767" lon="8.9511667"><ele>294.0</ele><time>2026-05-01T08:42:23.103Z</time></trkpt><trkpt lat="44.6618217" lon="8.9511367"><ele>299.0</ele><time>2026-05-01T08:42:24.102Z</time></trkpt><trkpt lat="44.6620683" lon="8.9510717"><ele>304.0</ele><time>2026-05-01T08:42:25.102Z</time></trkpt><trkpt lat="44.6623083" lon="8.9509733"><ele>295.5</ele><time>2026-05-01T08:42:26.103Z</time></trkpt><trkpt lat="44.6625433" lon="8.950835"><ele>287.0</ele><time>2026-05-01T08:42:27.103Z</time></trkpt><trkpt lat="44.6627667" lon="8.95067"><ele>289.5</ele><time>2026-05-01T08:42:28.103Z</time></trkpt><trkpt lat="44.662975" lon="8.9504667"><ele>292.0</ele><time>2026-05-01T08:42:29.103Z</time></trkpt><trkpt lat="44.6631767" lon="8.95023"><ele>288.5</ele><time>2026-05-01T08:42:30.103Z</time></trkpt><trkpt lat="44.6633567" lon="8.949965"><ele>285.0</ele><time>2026-05-01T08:42:31.103Z</time></trkpt><trkpt lat="44.6636917" lon="8.9494033"><ele>292.5</ele><time>2026-05-01T08:42:33.102Z</time></trkpt><trkpt lat="44.6638583" lon="8.9491183"><ele>300.0</ele><time>2026-05-01T08:42:34.102Z</time></trkpt><trkpt lat="44.66402" lon="8.948825"><ele>300.0</ele><time>2026-05-01T08:42:35.103Z</time></trkpt><trkpt lat="44.664165" lon="8.9485217"><ele>300.0</ele><time>2026-05-01T08:42:36.103Z</time></trkpt><trkpt lat="44.664305" lon="8.9482017"><ele>293.5</ele><time>2026-05-01T08:42:37.103Z</time></trkpt><trkpt lat="44.6644233" lon="8.947885"><ele>287.0</ele><time>2026-05-01T08:42:38.103Z</time></trkpt><trkpt lat="44.6645133" lon="8.94756"><ele>301.5</ele><time>2026-05-01T08:42:39.103Z</time></trkpt><trkpt lat="44.6645717" lon="8.9472117"><ele>316.0</ele><time>2026-05-01T08:42:40.103Z</time></trkpt><trkpt lat="44.6646017" lon="8.9468483"><ele>319.0</ele><time>2026-05-01T08:42:41.102Z</time></trkpt><trkpt lat="44.66459" lon="8.9464817"><ele>322.0</ele><time>2026-05-01T08:42:42.103Z</time></trkpt><trkpt lat="44.6645633" lon="8.9461133"><ele>321.5</ele><time>2026-05-01T08:42:43.102Z</time></trkpt><trkpt lat="44.6645067" lon="8.9457467"><ele>321.0</ele><time>2026-05-01T08:42:44.102Z</time></trkpt><trkpt lat="44.6644567" lon="8.9453717"><ele>300.5</ele><time>2026-05-01T08:42:45.102Z</time></trkpt><trkpt lat="44.664405" lon="8.9450083"><ele>280.0</ele><time>2026-05-01T08:42:46.103Z</time></trkpt><trkpt lat="44.664365" lon="8.94467"><ele>280.0</ele><time>2026-05-01T08:42:47.102Z</time></trkpt><trkpt lat="44.664325" lon="8.9443383"><ele>280.0</ele><time>2026-05-01T08:42:48.102Z</time></trkpt><trkpt lat="44.6643017" lon="8.943995"><ele>283.0</ele><time>2026-05-01T08:42:49.103Z</time></trkpt><trkpt lat="44.6642967" lon="8.9436383"><ele>286.0</ele><time>2026-05-01T08:42:50.103Z</time></trkpt><trkpt lat="44.66432" lon="8.9432717"><ele>287.0</ele><time>2026-05-01T08:42:51.102Z</time></trkpt><trkpt lat="44.6643767" lon="8.942905"><ele>288.0</ele><time>2026-05-01T08:42:52.103Z</time></trkpt><trkpt lat="44.66456" lon="8.9421933"><ele>289.5</ele><time>2026-05-01T08:42:54.103Z</time></trkpt><trkpt lat="44.6646733" lon="8.9418233"><ele>291.0</ele><time>2026-05-01T08:42:55.102Z</time></trkpt><trkpt lat="44.6647717" lon="8.9414583"><ele>291.0</ele><time>2026-05-01T08:42:56.103Z</time></trkpt><trkpt lat="44.6648683" lon="8.941105"><ele>291.0</ele><time>2026-05-01T08:42:57.102Z</time></trkpt><trkpt lat="44.664955" lon="8.9407483"><ele>289.0</ele><time>2026-05-01T08:42:58.102Z</time></trkpt><trkpt lat="44.6650483" lon="8.940395"><ele>287.0</ele><time>2026-05-01T08:42:59.102Z</time></trkpt><trkpt lat="44.665145" lon="8.9400383"><ele>286.0</ele><time>2026-05-01T08:43:00.103Z</time></trkpt><trkpt lat="44.6652467" lon="8.9396783"><ele>285.0</ele><time>2026-05-01T08:43:01.103Z</time></trkpt><trkpt lat="44.6653467" lon="8.939305"><ele>287.5</ele><time>2026-05-01T08:43:02.102Z</time></trkpt><trkpt lat="44.6654433" lon="8.9389333"><ele>290.0</ele><time>2026-05-01T08:43:03.102Z</time></trkpt><trkpt lat="44.6655183" lon="8.938565"><ele>288.5</ele><time>2026-05-01T08:43:04.102Z</time></trkpt><trkpt lat="44.66557" lon="8.9381967"><ele>287.0</ele><time>2026-05-01T08:43:05.103Z</time></trkpt><trkpt lat="44.6656183" lon="8.937815"><ele>285.0</ele><time>2026-05-01T08:43:06.103Z</time></trkpt><trkpt lat="44.6656533" lon="8.9374283"><ele>283.0</ele><time>2026-05-01T08:43:07.102Z</time></trkpt><trkpt lat="44.6656883" lon="8.9370383"><ele>283.0</ele><time>2026-05-01T08:43:08.102Z</time></trkpt><trkpt lat="44.6657183" lon="8.9366383"><ele>283.0</ele><time>2026-05-01T08:43:09.103Z</time></trkpt><trkpt lat="44.6657517" lon="8.9362383"><ele>285.0</ele><time>2026-05-01T08:43:10.102Z</time></trkpt><trkpt lat="44.66578" lon="8.9358467"><ele>287.0</ele><time>2026-05-01T08:43:11.103Z</time></trkpt><trkpt lat="44.6658067" lon="8.9354717"><ele>288.0</ele><time>2026-05-01T08:43:12.102Z</time></trkpt><trkpt lat="44.665855" lon="8.9347617"><ele>288.0</ele><time>2026-05-01T08:43:14.103Z</time></trkpt><trkpt lat="44.6658817" lon="8.934395"><ele>288.0</ele><time>2026-05-01T08:43:15.102Z</time></trkpt><trkpt lat="44.665905" lon="8.9340333"><ele>288.5</ele><time>2026-05-01T08:43:16.102Z</time></trkpt><trkpt lat="44.66593" lon="8.93367"><ele>289.0</ele><time>2026-05-01T08:43:17.102Z</time></trkpt><trkpt lat="44.6659567" lon="8.93329"><ele>289.0</ele><time>2026-05-01T08:43:18.103Z</time></trkpt><trkpt lat="44.66597" lon="8.932905"><ele>289.0</ele><time>2026-05-01T08:43:19.102Z</time></trkpt><trkpt lat="44.66597" lon="8.9325217"><ele>289.0</ele><time>2026-05-01T08:43:20.103Z</time></trkpt><trkpt lat="44.6659533" lon="8.9321333"><ele>289.0</ele><time>2026-05-01T08:43:21.102Z</time></trkpt><trkpt lat="44.6659233" lon="8.931745"><ele>288.5</ele><time>2026-05-01T08:43:22.102Z</time></trkpt><trkpt lat="44.6658667" lon="8.9313683"><ele>288.0</ele><time>2026-05-01T08:43:23.102Z</time></trkpt><trkpt lat="44.6657967" lon="8.931005"><ele>287.5</ele><time>2026-05-01T08:43:24.103Z</time></trkpt><trkpt lat="44.6657067" lon="8.9306417"><ele>287.0</ele><time>2026-05-01T08:43:25.103Z</time></trkpt><trkpt lat="44.6656083" lon="8.9302783"><ele>286.0</ele><time>2026-05-01T08:43:26.102Z</time></trkpt><trkpt lat="44.6655183" lon="8.9299267"><ele>285.0</ele><time>2026-05-01T08:43:27.102Z</time></trkpt><trkpt lat="44.66543" lon="8.9295783"><ele>285.0</ele><time>2026-05-01T08:43:28.102Z</time></trkpt><trkpt lat="44.66535" lon="8.9292417"><ele>285.0</ele><time>2026-05-01T08:43:29.103Z</time></trkpt><trkpt lat="44.6652783" lon="8.9288883"><ele>281.0</ele><time>2026-05-01T08:43:30.102Z</time></trkpt><trkpt lat="44.6652167" lon="8.92853"><ele>277.0</ele><time>2026-05-01T08:43:31.102Z</time></trkpt><trkpt lat="44.665165" lon="8.9281683"><ele>291.0</ele><time>2026-05-01T08:43:32.102Z</time></trkpt><trkpt lat="44.6651183" lon="8.92781"><ele>305.0</ele><time>2026-05-01T08:43:33.102Z</time></trkpt><trkpt lat="44.66504" lon="8.9270783"><ele>346.5</ele><time>2026-05-01T08:43:35.102Z</time></trkpt><trkpt lat="44.6649983" lon="8.926715"><ele>388.0</ele><time>2026-05-01T08:43:36.103Z</time></trkpt><trkpt lat="44.664975" lon="8.9263333"><ele>388.0</ele><time>2026-05-01T08:43:37.103Z</time></trkpt><trkpt lat="44.66496" lon="8.9259367"><ele>388.0</ele><time>2026-05-01T08:43:38.103Z</time></trkpt><trkpt lat="44.6649567" lon="8.9255233"><ele>411.0</ele><time>2026-05-01T08:43:39.103Z</time></trkpt><trkpt lat="44.6649217" lon="8.9251267"><ele>434.0</ele><time>2026-05-01T08:43:40.102Z</time></trkpt><trkpt lat="44.6648817" lon="8.9247217"><ele>454.0</ele><time>2026-05-01T08:43:41.102Z</time></trkpt><trkpt lat="44.6648683" lon="8.9242717"><ele>474.0</ele><time>2026-05-01T08:43:42.102Z</time></trkpt><trkpt lat="44.6648517" lon="8.9237967"><ele>282.0</ele><time>2026-05-01T08:43:43.102Z</time></trkpt><trkpt lat="44.664445" lon="8.912845"><ele>282.0</ele><time>2026-05-01T08:44:10.102Z</time></trkpt><trkpt lat="44.6644383" lon="8.9122583"><ele>282.0</ele><time>2026-05-01T08:44:12.102Z</time></trkpt><trkpt lat="44.6645117" lon="8.9119517"><ele>275.5</ele><time>2026-05-01T08:44:13.102Z</time></trkpt><trkpt lat="44.6646233" lon="8.9116383"><ele>269.0</ele><time>2026-05-01T08:44:14.102Z</time></trkpt><trkpt lat="44.6647483" lon="8.91133"><ele>269.0</ele><time>2026-05-01T08:44:15.103Z</time></trkpt><trkpt lat="44.6649017" lon="8.9110533"><ele>269.0</ele><time>2026-05-01T08:44:16.103Z</time></trkpt><trkpt lat="44.66508" lon="8.9107983"><ele>267.0</ele><time>2026-05-01T08:44:17.103Z</time></trkpt><trkpt lat="44.6652783" lon="8.9105617"><ele>265.0</ele><time>2026-05-01T08:44:18.103Z</time></trkpt><trkpt lat="44.665495" lon="8.9103383"><ele>265.0</ele><time>2026-05-01T08:44:19.103Z</time></trkpt><trkpt lat="44.66571" lon="8.9101383"><ele>265.0</ele><time>2026-05-01T08:44:20.102Z</time></trkpt><trkpt lat="44.665925" lon="8.90994"><ele>265.0</ele><time>2026-05-01T08:44:21.102Z</time></trkpt><trkpt lat="44.6661433" lon="8.9097367"><ele>265.0</ele><time>2026-05-01T08:44:22.102Z</time></trkpt><trkpt lat="44.6663667" lon="8.9095317"><ele>265.0</ele><time>2026-05-01T08:44:23.103Z</time></trkpt><trkpt lat="44.6665817" lon="8.9093317"><ele>265.0</ele><time>2026-05-01T08:44:24.102Z</time></trkpt><trkpt lat="44.6667967" lon="8.9091283"><ele>267.0</ele><time>2026-05-01T08:44:25.103Z</time></trkpt><trkpt lat="44.6670117" lon="8.9089217"><ele>269.0</ele><time>2026-05-01T08:44:26.103Z</time></trkpt><trkpt lat="44.6672317" lon="8.90871"><ele>269.0</ele><time>2026-05-01T08:44:27.103Z</time></trkpt><trkpt lat="44.6674533" lon="8.9085017"><ele>269.0</ele><time>2026-05-01T08:44:28.102Z</time></trkpt><trkpt lat="44.6676733" lon="8.908295"><ele>267.5</ele><time>2026-05-01T08:44:29.103Z</time></trkpt><trkpt lat="44.6678833" lon="8.9080883"><ele>266.0</ele><time>2026-05-01T08:44:30.103Z</time></trkpt><trkpt lat="44.66833" lon="8.9076933"><ele>266.0</ele><time>2026-05-01T08:44:32.102Z</time></trkpt><trkpt lat="44.668565" lon="8.9075133"><ele>266.0</ele><time>2026-05-01T08:44:33.103Z</time></trkpt><trkpt lat="44.6688167" lon="8.9073467"><ele>266.0</ele><time>2026-05-01T08:44:34.103Z</time></trkpt><trkpt lat="44.6690683" lon="8.9072033"><ele>266.0</ele><time>2026-05-01T08:44:35.102Z</time></trkpt><trkpt lat="44.6693167" lon="8.9070633"><ele>268.5</ele><time>2026-05-01T08:44:36.103Z</time></trkpt><trkpt lat="44.669565" lon="8.9069333"><ele>271.0</ele><time>2026-05-01T08:44:37.102Z</time></trkpt><trkpt lat="44.6698" lon="8.9068017"><ele>268.5</ele><time>2026-05-01T08:44:38.102Z</time></trkpt><trkpt lat="44.6700383" lon="8.906665"><ele>266.0</ele><time>2026-05-01T08:44:39.102Z</time></trkpt><trkpt lat="44.6702783" lon="8.9065283"><ele>266.0</ele><time>2026-05-01T08:44:40.102Z</time></trkpt><trkpt lat="44.67052" lon="8.906395"><ele>266.0</ele><time>2026-05-01T08:44:41.103Z</time></trkpt><trkpt lat="44.67076" lon="8.9062683"><ele>266.0</ele><time>2026-05-01T08:44:42.102Z</time></trkpt><trkpt lat="44.6710083" lon="8.90615"><ele>266.0</ele><time>2026-05-01T08:44:43.102Z</time></trkpt><trkpt lat="44.6712567" lon="8.90604"><ele>267.0</ele><time>2026-05-01T08:44:44.102Z</time></trkpt><trkpt lat="44.6715067" lon="8.9059433"><ele>268.0</ele><time>2026-05-01T08:44:45.102Z</time></trkpt><trkpt lat="44.6717583" lon="8.90586"><ele>265.5</ele><time>2026-05-01T08:44:46.103Z</time></trkpt><trkpt lat="44.6720117" lon="8.90578"><ele>263.0</ele><time>2026-05-01T08:44:47.103Z</time></trkpt><trkpt lat="44.672265" lon="8.9057017"><ele>263.0</ele><time>2026-05-01T08:44:48.103Z</time></trkpt><trkpt lat="44.6725167" lon="8.905625"><ele>263.0</ele><time>2026-05-01T08:44:49.102Z</time></trkpt><trkpt lat="44.6727733" lon="8.9055567"><ele>263.0</ele><time>2026-05-01T08:44:50.103Z</time></trkpt><trkpt lat="44.6730267" lon="8.90549"><ele>263.0</ele><time>2026-05-01T08:44:51.102Z</time></trkpt><trkpt lat="44.6735433" lon="8.9053417"><ele>263.5</ele><time>2026-05-01T08:44:53.102Z</time></trkpt><trkpt lat="44.6738033" lon="8.9052683"><ele>264.0</ele><time>2026-05-01T08:44:54.102Z</time></trkpt><trkpt lat="44.674065" lon="8.9052083"><ele>264.0</ele><time>2026-05-01T08:44:55.102Z</time></trkpt><trkpt lat="44.6743283" lon="8.905165"><ele>264.0</ele><time>2026-05-01T08:44:56.102Z</time></trkpt><trkpt lat="44.6745883" lon="8.905145"><ele>264.0</ele><time>2026-05-01T08:44:57.102Z</time></trkpt><trkpt lat="44.67484" lon="8.9051533"><ele>264.0</ele><time>2026-05-01T08:44:58.102Z</time></trkpt><trkpt lat="44.67508" lon="8.9051883"><ele>267.0</ele><time>2026-05-01T08:44:59.102Z</time></trkpt><trkpt lat="44.6753167" lon="8.9052233"><ele>270.0</ele><time>2026-05-01T08:45:00.103Z</time></trkpt><trkpt lat="44.6755483" lon="8.9052583"><ele>270.0</ele><time>2026-05-01T08:45:01.103Z</time></trkpt><trkpt lat="44.67579" lon="8.9052833"><ele>270.0</ele><time>2026-05-01T08:45:02.103Z</time></trkpt><trkpt lat="44.6760417" lon="8.9052883"><ele>268.5</ele><time>2026-05-01T08:45:03.102Z</time></trkpt><trkpt lat="44.6763" lon="8.905265"><ele>267.0</ele><time>2026-05-01T08:45:04.103Z</time></trkpt><trkpt lat="44.67656" lon="8.90521"><ele>267.0</ele><time>2026-05-01T08:45:05.102Z</time></trkpt><trkpt lat="44.67682" lon="8.9051383"><ele>267.0</ele><time>2026-05-01T08:45:06.103Z</time></trkpt><trkpt lat="44.677085" lon="8.9050533"><ele>261.5</ele><time>2026-05-01T08:45:07.102Z</time></trkpt><trkpt lat="44.67735" lon="8.90497"><ele>256.0</ele><time>2026-05-01T08:45:08.102Z</time></trkpt><trkpt lat="44.67761" lon="8.9048817"><ele>259.0</ele><time>2026-05-01T08:45:09.102Z</time></trkpt><trkpt lat="44.6778767" lon="8.9047933"><ele>262.0</ele><time>2026-05-01T08:45:10.102Z</time></trkpt><trkpt lat="44.6781317" lon="8.9047083"><ele>262.0</ele><time>2026-05-01T08:45:11.103Z</time></trkpt><trkpt lat="44.6783883" lon="8.904625"><ele>262.0</ele><time>2026-05-01T08:45:12.102Z</time></trkpt><trkpt lat="44.6789033" lon="8.9044533"><ele>266.5</ele><time>2026-05-01T08:45:14.102Z</time></trkpt><trkpt lat="44.6791583" lon="8.9043667"><ele>271.0</ele><time>2026-05-01T08:45:15.102Z</time></trkpt><trkpt lat="44.6794183" lon="8.9042917"><ele>265.5</ele><time>2026-05-01T08:45:16.103Z</time></trkpt><trkpt lat="44.6796717" lon="8.9042083"><ele>260.0</ele><time>2026-05-01T08:45:17.103Z</time></trkpt><trkpt lat="44.67994" lon="8.9041383"><ele>260.0</ele><time>2026-05-01T08:45:18.102Z</time></trkpt><trkpt lat="44.6802" lon="8.90407"><ele>260.0</ele><time>2026-05-01T08:45:19.102Z</time></trkpt><trkpt lat="44.680455" lon="8.9040333"><ele>259.0</ele><time>2026-05-01T08:45:20.102Z</time></trkpt><trkpt lat="44.68071" lon="8.9040283"><ele>258.0</ele><time>2026-05-01T08:45:21.103Z</time></trkpt><trkpt lat="44.68096" lon="8.9040467"><ele>252.0</ele><time>2026-05-01T08:45:22.102Z</time></trkpt><trkpt lat="44.6812117" lon="8.9040933"><ele>246.0</ele><time>2026-05-01T08:45:23.102Z</time></trkpt><trkpt lat="44.6814583" lon="8.9041683"><ele>251.5</ele><time>2026-05-01T08:45:24.102Z</time></trkpt><trkpt lat="44.6817083" lon="8.904255"><ele>257.0</ele><time>2026-05-01T08:45:25.102Z</time></trkpt><trkpt lat="44.6819583" lon="8.90434"><ele>261.5</ele><time>2026-05-01T08:45:26.103Z</time></trkpt><trkpt lat="44.6822133" lon="8.9043883"><ele>266.0</ele><time>2026-05-01T08:45:27.102Z</time></trkpt><trkpt lat="44.68247" lon="8.9044033"><ele>266.0</ele><time>2026-05-01T08:45:28.102Z</time></trkpt><trkpt lat="44.6827283" lon="8.9043867"><ele>266.0</ele><time>2026-05-01T08:45:29.102Z</time></trkpt><trkpt lat="44.6829867" lon="8.904325"><ele>258.0</ele><time>2026-05-01T08:45:30.102Z</time></trkpt><trkpt lat="44.683235" lon="8.90423"><ele>250.0</ele><time>2026-05-01T08:45:31.102Z</time></trkpt><trkpt lat="44.6834833" lon="8.9041233"><ele>256.5</ele><time>2026-05-01T08:45:32.102Z</time></trkpt><trkpt lat="44.68373" lon="8.9039933"><ele>263.0</ele><time>2026-05-01T08:45:33.103Z</time></trkpt><trkpt lat="44.684215" lon="8.9036467"><ele>259.5</ele><time>2026-05-01T08:45:35.103Z</time></trkpt><trkpt lat="44.6844633" lon="8.9034717"><ele>256.0</ele><time>2026-05-01T08:45:36.103Z</time></trkpt><trkpt lat="44.6847117" lon="8.9032917"><ele>256.0</ele><time>2026-05-01T08:45:37.102Z</time></trkpt><trkpt lat="44.6849583" lon="8.9031117"><ele>256.0</ele><time>2026-05-01T08:45:38.102Z</time></trkpt><trkpt lat="44.6852067" lon="8.9029367"><ele>251.5</ele><time>2026-05-01T08:45:39.102Z</time></trkpt><trkpt lat="44.6854483" lon="8.9027467"><ele>247.0</ele><time>2026-05-01T08:45:40.102Z</time></trkpt><trkpt lat="44.6856917" lon="8.9025567"><ele>247.0</ele><time>2026-05-01T08:45:41.103Z</time></trkpt><trkpt lat="44.6859367" lon="8.9023683"><ele>247.0</ele><time>2026-05-01T08:45:42.103Z</time></trkpt><trkpt lat="44.6861767" lon="8.9021933"><ele>254.0</ele><time>2026-05-01T08:45:43.102Z</time></trkpt><trkpt lat="44.6864017" lon="8.9020233"><ele>261.0</ele><time>2026-05-01T08:45:44.103Z</time></trkpt><trkpt lat="44.6866383" lon="8.9018633"><ele>255.0</ele><time>2026-05-01T08:45:45.102Z</time></trkpt><trkpt lat="44.6868767" lon="8.9017267"><ele>249.0</ele><time>2026-05-01T08:45:46.103Z</time></trkpt><trkpt lat="44.68714" lon="8.9016333"><ele>249.0</ele><time>2026-05-01T08:45:47.103Z</time></trkpt><trkpt lat="44.687405" lon="8.9015517"><ele>249.0</ele><time>2026-05-01T08:45:48.102Z</time></trkpt><trkpt lat="44.6876783" lon="8.9014767"><ele>247.0</ele><time>2026-05-01T08:45:49.103Z</time></trkpt><trkpt lat="44.687955" lon="8.9013917"><ele>245.0</ele><time>2026-05-01T08:45:50.103Z</time></trkpt><trkpt lat="44.6882233" lon="8.9012817"><ele>245.0</ele><time>2026-05-01T08:45:51.102Z</time></trkpt><trkpt lat="44.6884867" lon="8.901175"><ele>245.0</ele><time>2026-05-01T08:45:52.103Z</time></trkpt><trkpt lat="44.68874" lon="8.9010833"><ele>243.5</ele><time>2026-05-01T08:45:53.103Z</time></trkpt><trkpt lat="44.6889983" lon="8.900995"><ele>242.0</ele><time>2026-05-01T08:45:54.102Z</time></trkpt><trkpt lat="44.6895267" lon="8.9008233"><ele>238.5</ele><time>2026-05-01T08:45:56.102Z</time></trkpt><trkpt lat="44.689785" lon="8.90073"><ele>235.0</ele><time>2026-05-01T08:45:57.103Z</time></trkpt><trkpt lat="44.6900433" lon="8.90062"><ele>236.0</ele><time>2026-05-01T08:45:58.103Z</time></trkpt><trkpt lat="44.6903" lon="8.9004833"><ele>237.0</ele><time>2026-05-01T08:45:59.103Z</time></trkpt><trkpt lat="44.690555" lon="8.90032"><ele>237.0</ele><time>2026-05-01T08:46:00.103Z</time></trkpt><trkpt lat="44.6908" lon="8.9001433"><ele>237.0</ele><time>2026-05-01T08:46:01.102Z</time></trkpt><trkpt lat="44.6910367" lon="8.899945"><ele>231.0</ele><time>2026-05-01T08:46:02.102Z</time></trkpt><trkpt lat="44.69127" lon="8.899745"><ele>225.0</ele><time>2026-05-01T08:46:03.103Z</time></trkpt><trkpt lat="44.691495" lon="8.8995417"><ele>225.0</ele><time>2026-05-01T08:46:04.102Z</time></trkpt><trkpt lat="44.69172" lon="8.89934"><ele>225.0</ele><time>2026-05-01T08:46:05.103Z</time></trkpt><trkpt lat="44.691945" lon="8.8991367"><ele>223.0</ele><time>2026-05-01T08:46:06.102Z</time></trkpt><trkpt lat="44.6921683" lon="8.8989433"><ele>221.0</ele><time>2026-05-01T08:46:07.103Z</time></trkpt><trkpt lat="44.692395" lon="8.8987467"><ele>221.0</ele><time>2026-05-01T08:46:08.102Z</time></trkpt><trkpt lat="44.69262" lon="8.8985517"><ele>221.0</ele><time>2026-05-01T08:46:09.103Z</time></trkpt><trkpt lat="44.692845" lon="8.8983567"><ele>222.5</ele><time>2026-05-01T08:46:10.103Z</time></trkpt><trkpt lat="44.6930667" lon="8.8981633"><ele>224.0</ele><time>2026-05-01T08:46:11.102Z</time></trkpt><trkpt lat="44.693295" lon="8.8979667"><ele>224.0</ele><time>2026-05-01T08:46:12.102Z</time></trkpt><trkpt lat="44.69352" lon="8.89777"><ele>224.0</ele><time>2026-05-01T08:46:13.102Z</time></trkpt><trkpt lat="44.6937433" lon="8.8975833"><ele>231.5</ele><time>2026-05-01T08:46:14.103Z</time></trkpt><trkpt lat="44.6939683" lon="8.8973933"><ele>239.0</ele><time>2026-05-01T08:46:15.102Z</time></trkpt><trkpt lat="44.6944017" lon="8.8970067"><ele>236.0</ele><time>2026-05-01T08:46:17.103Z</time></trkpt><trkpt lat="44.6946117" lon="8.8968167"><ele>233.0</ele><time>2026-05-01T08:46:18.102Z</time></trkpt><trkpt lat="44.6948267" lon="8.896625"><ele>233.0</ele><time>2026-05-01T08:46:19.102Z</time></trkpt><trkpt lat="44.6950383" lon="8.896435"><ele>233.0</ele><time>2026-05-01T08:46:20.103Z</time></trkpt><trkpt lat="44.695255" lon="8.8962467"><ele>233.0</ele><time>2026-05-01T08:46:21.103Z</time></trkpt><trkpt lat="44.6954683" lon="8.8960617"><ele>233.0</ele><time>2026-05-01T08:46:22.102Z</time></trkpt><trkpt lat="44.69569" lon="8.8958667"><ele>233.0</ele><time>2026-05-01T08:46:23.103Z</time></trkpt><trkpt lat="44.6959033" lon="8.8956883"><ele>233.0</ele><time>2026-05-01T08:46:24.103Z</time></trkpt><trkpt lat="44.6961117" lon="8.8955033"><ele>236.0</ele><time>2026-05-01T08:46:25.103Z</time></trkpt><trkpt lat="44.6963267" lon="8.8953183"><ele>239.0</ele><time>2026-05-01T08:46:26.103Z</time></trkpt><trkpt lat="44.6965433" lon="8.8951367"><ele>236.0</ele><time>2026-05-01T08:46:27.102Z</time></trkpt><trkpt lat="44.6967683" lon="8.894965"><ele>233.0</ele><time>2026-05-01T08:46:28.103Z</time></trkpt><trkpt lat="44.6969933" lon="8.8948033"><ele>233.0</ele><time>2026-05-01T08:46:29.102Z</time></trkpt><trkpt lat="44.697225" lon="8.8946817"><ele>233.0</ele><time>2026-05-01T08:46:30.103Z</time></trkpt><trkpt lat="44.6974617" lon="8.8945933"><ele>233.0</ele><time>2026-05-01T08:46:31.103Z</time></trkpt><trkpt lat="44.6977083" lon="8.89451"><ele>233.0</ele><time>2026-05-01T08:46:32.103Z</time></trkpt><trkpt lat="44.697955" lon="8.89442"><ele>231.0</ele><time>2026-05-01T08:46:33.103Z</time></trkpt><trkpt lat="44.6982" lon="8.8943033"><ele>229.0</ele><time>2026-05-01T08:46:34.103Z</time></trkpt><trkpt lat="44.6984367" lon="8.8941733"><ele>232.0</ele><time>2026-05-01T08:46:35.103Z</time></trkpt><trkpt lat="44.6986517" lon="8.8940133"><ele>235.0</ele><time>2026-05-01T08:46:36.103Z</time></trkpt><trkpt lat="44.6990567" lon="8.8936167"><ele>235.5</ele><time>2026-05-01T08:46:38.103Z</time></trkpt><trkpt lat="44.699255" lon="8.8934"><ele>236.0</ele><time>2026-05-01T08:46:39.102Z</time></trkpt><trkpt lat="44.6994467" lon="8.8931833"><ele>236.0</ele><time>2026-05-01T08:46:40.102Z</time></trkpt><trkpt lat="44.69965" lon="8.892965"><ele>236.0</ele><time>2026-05-01T08:46:41.103Z</time></trkpt><trkpt lat="44.6998467" lon="8.892745"><ele>231.5</ele><time>2026-05-01T08:46:42.103Z</time></trkpt><trkpt lat="44.7000417" lon="8.8925417"><ele>227.0</ele><time>2026-05-01T08:46:43.102Z</time></trkpt><trkpt lat="44.7002217" lon="8.8923317"><ele>229.0</ele><time>2026-05-01T08:46:44.102Z</time></trkpt><trkpt lat="44.7003983" lon="8.892135"><ele>231.0</ele><time>2026-05-01T08:46:45.102Z</time></trkpt><trkpt lat="44.7005717" lon="8.89194"><ele>233.0</ele><time>2026-05-01T08:46:46.102Z</time></trkpt><trkpt lat="44.70075" lon="8.8917367"><ele>233.0</ele><time>2026-05-01T08:46:47.102Z</time></trkpt><trkpt lat="44.70093" lon="8.8915333"><ele>233.0</ele><time>2026-05-01T08:46:48.102Z</time></trkpt><trkpt lat="44.701105" lon="8.8913383"><ele>233.0</ele><time>2026-05-01T08:46:49.103Z</time></trkpt><trkpt lat="44.7012567" lon="8.89113"><ele>233.0</ele><time>2026-05-01T08:46:50.102Z</time></trkpt><trkpt lat="44.7013917" lon="8.890905"><ele>233.0</ele><time>2026-05-01T08:46:51.102Z</time></trkpt><trkpt lat="44.70152" lon="8.8906583"><ele>233.0</ele><time>2026-05-01T08:46:52.103Z</time></trkpt><trkpt lat="44.7016467" lon="8.8903883"><ele>233.0</ele><time>2026-05-01T08:46:53.103Z</time></trkpt><trkpt lat="44.7017717" lon="8.8900983"><ele>235.5</ele><time>2026-05-01T08:46:54.102Z</time></trkpt><trkpt lat="44.7019" lon="8.8898017"><ele>238.0</ele><time>2026-05-01T08:46:55.103Z</time></trkpt><trkpt lat="44.7020283" lon="8.8894967"><ele>238.0</ele><time>2026-05-01T08:46:56.102Z</time></trkpt><trkpt lat="44.7021633" lon="8.8891883"><ele>238.0</ele><time>2026-05-01T08:46:57.102Z</time></trkpt><trkpt lat="44.7024333" lon="8.8885383"><ele>235.0</ele><time>2026-05-01T08:46:59.103Z</time></trkpt><trkpt lat="44.70256" lon="8.888205"><ele>232.0</ele><time>2026-05-01T08:47:00.102Z</time></trkpt><trkpt lat="44.7026867" lon="8.8878617"><ele>233.5</ele><time>2026-05-01T08:47:01.102Z</time></trkpt><trkpt lat="44.7028017" lon="8.8875217"><ele>235.0</ele><time>2026-05-01T08:47:02.103Z</time></trkpt><trkpt lat="44.7028883" lon="8.8871783"><ele>235.0</ele><time>2026-05-01T08:47:03.102Z</time></trkpt><trkpt lat="44.7029633" lon="8.886825"><ele>235.0</ele><time>2026-05-01T08:47:04.103Z</time></trkpt><trkpt lat="44.7030417" lon="8.8864617"><ele>236.5</ele><time>2026-05-01T08:47:05.102Z</time></trkpt><trkpt lat="44.7031183" lon="8.8861083"><ele>238.0</ele><time>2026-05-01T08:47:06.102Z</time></trkpt><trkpt lat="44.703195" lon="8.8857683"><ele>234.5</ele><time>2026-05-01T08:47:07.103Z</time></trkpt><trkpt lat="44.7032683" lon="8.8854383"><ele>231.0</ele><time>2026-05-01T08:47:08.102Z</time></trkpt><trkpt lat="44.7033433" lon="8.8851117"><ele>229.5</ele><time>2026-05-01T08:47:09.102Z</time></trkpt><trkpt lat="44.70343" lon="8.88479"><ele>228.0</ele><time>2026-05-01T08:47:10.102Z</time></trkpt><trkpt lat="44.7035367" lon="8.884465"><ele>231.5</ele><time>2026-05-01T08:47:11.103Z</time></trkpt><trkpt lat="44.703655" lon="8.8841333"><ele>235.0</ele><time>2026-05-01T08:47:12.103Z</time></trkpt><trkpt lat="44.7037933" lon="8.88381"><ele>235.0</ele><time>2026-05-01T08:47:13.102Z</time></trkpt><trkpt lat="44.70394" lon="8.8834817"><ele>235.0</ele><time>2026-05-01T08:47:14.103Z</time></trkpt><trkpt lat="44.7040917" lon="8.8831633"><ele>233.5</ele><time>2026-05-01T08:47:15.102Z</time></trkpt><trkpt lat="44.7042533" lon="8.88284"><ele>232.0</ele><time>2026-05-01T08:47:16.102Z</time></trkpt><trkpt lat="44.7044183" lon="8.88253"><ele>232.0</ele><time>2026-05-01T08:47:17.102Z</time></trkpt><trkpt lat="44.7045767" lon="8.88225"><ele>232.0</ele><time>2026-05-01T08:47:18.102Z</time></trkpt><trkpt lat="44.704925" lon="8.8817683"><ele>230.0</ele><time>2026-05-01T08:47:20.102Z</time></trkpt><trkpt lat="44.7051267" lon="8.8815683"><ele>228.0</ele><time>2026-05-01T08:47:21.102Z</time></trkpt><trkpt lat="44.7053383" lon="8.8813717"><ele>228.0</ele><time>2026-05-01T08:47:22.102Z</time></trkpt><trkpt lat="44.7055533" lon="8.8811833"><ele>228.0</ele><time>2026-05-01T08:47:23.102Z</time></trkpt><trkpt lat="44.705765" lon="8.8809667"><ele>222.5</ele><time>2026-05-01T08:47:24.103Z</time></trkpt><trkpt lat="44.705975" lon="8.8807333"><ele>217.0</ele><time>2026-05-01T08:47:25.102Z</time></trkpt><trkpt lat="44.7061883" lon="8.8804817"><ele>214.5</ele><time>2026-05-01T08:47:26.103Z</time></trkpt><trkpt lat="44.7064033" lon="8.88021"><ele>212.0</ele><time>2026-05-01T08:47:27.102Z</time></trkpt><trkpt lat="44.706615" lon="8.8799317"><ele>212.0</ele><time>2026-05-01T08:47:28.103Z</time></trkpt><trkpt lat="44.70681" lon="8.87966"><ele>212.0</ele><time>2026-05-01T08:47:29.102Z</time></trkpt><trkpt lat="44.7069967" lon="8.8794033"><ele>211.5</ele><time>2026-05-01T08:47:30.103Z</time></trkpt><trkpt lat="44.707185" lon="8.8791433"><ele>211.0</ele><time>2026-05-01T08:47:31.103Z</time></trkpt><trkpt lat="44.7073717" lon="8.8788783"><ele>211.0</ele><time>2026-05-01T08:47:32.102Z</time></trkpt><trkpt lat="44.707565" lon="8.878615"><ele>211.0</ele><time>2026-05-01T08:47:33.102Z</time></trkpt><trkpt lat="44.707755" lon="8.8783517"><ele>211.5</ele><time>2026-05-01T08:47:34.102Z</time></trkpt><trkpt lat="44.7079483" lon="8.878085"><ele>212.0</ele><time>2026-05-01T08:47:35.102Z</time></trkpt><trkpt lat="44.7081467" lon="8.8778167"><ele>213.0</ele><time>2026-05-01T08:47:36.102Z</time></trkpt><trkpt lat="44.7083417" lon="8.8775467"><ele>214.0</ele><time>2026-05-01T08:47:37.102Z</time></trkpt><trkpt lat="44.7085283" lon="8.8772933"><ele>213.5</ele><time>2026-05-01T08:47:38.102Z</time></trkpt><trkpt lat="44.70871" lon="8.8770533"><ele>213.0</ele><time>2026-05-01T08:47:39.102Z</time></trkpt><trkpt lat="44.7090583" lon="8.8765417"><ele>213.0</ele><time>2026-05-01T08:47:41.103Z</time></trkpt><trkpt lat="44.70923" lon="8.8762717"><ele>213.0</ele><time>2026-05-01T08:47:42.103Z</time></trkpt><trkpt lat="44.7094017" lon="8.875995"><ele>212.0</ele><time>2026-05-01T08:47:43.102Z</time></trkpt><trkpt lat="44.7095783" lon="8.8757067"><ele>211.0</ele><time>2026-05-01T08:47:44.103Z</time></trkpt><trkpt lat="44.7097517" lon="8.8754217"><ele>211.0</ele><time>2026-05-01T08:47:45.103Z</time></trkpt><trkpt lat="44.7099333" lon="8.87514"><ele>211.0</ele><time>2026-05-01T08:47:46.102Z</time></trkpt><trkpt lat="44.7101067" lon="8.874875"><ele>212.5</ele><time>2026-05-01T08:47:47.102Z</time></trkpt><trkpt lat="44.7102667" lon="8.874625"><ele>214.0</ele><time>2026-05-01T08:47:48.102Z</time></trkpt><trkpt lat="44.7104217" lon="8.874385"><ele>214.5</ele><time>2026-05-01T08:47:49.102Z</time></trkpt><trkpt lat="44.7105767" lon="8.8741383"><ele>215.0</ele><time>2026-05-01T08:47:50.103Z</time></trkpt><trkpt lat="44.71071" lon="8.8738883"><ele>215.0</ele><time>2026-05-01T08:47:51.102Z</time></trkpt><trkpt lat="44.7108133" lon="8.8736383"><ele>215.0</ele><time>2026-05-01T08:47:52.102Z</time></trkpt><trkpt lat="44.7108867" lon="8.8733667"><ele>215.0</ele><time>2026-05-01T08:47:53.102Z</time></trkpt><trkpt lat="44.7109117" lon="8.87309"><ele>216.0</ele><time>2026-05-01T08:47:54.103Z</time></trkpt><trkpt lat="44.710905" lon="8.87278"><ele>217.0</ele><time>2026-05-01T08:47:55.102Z</time></trkpt><trkpt lat="44.7108867" lon="8.8724483"><ele>219.5</ele><time>2026-05-01T08:47:56.102Z</time></trkpt><trkpt lat="44.7108667" lon="8.8721283"><ele>222.0</ele><time>2026-05-01T08:47:57.103Z</time></trkpt><trkpt lat="44.71086" lon="8.8718117"><ele>221.5</ele><time>2026-05-01T08:47:58.103Z</time></trkpt><trkpt lat="44.71088" lon="8.8714917"><ele>221.0</ele><time>2026-05-01T08:47:59.102Z</time></trkpt><trkpt lat="44.710915" lon="8.8711633"><ele>217.0</ele><time>2026-05-01T08:48:00.103Z</time></trkpt><trkpt lat="44.7110583" lon="8.8705167"><ele>217.5</ele><time>2026-05-01T08:48:02.103Z</time></trkpt><trkpt lat="44.7111667" lon="8.8701933"><ele>218.0</ele><time>2026-05-01T08:48:03.102Z</time></trkpt><trkpt lat="44.7113083" lon="8.869885"><ele>218.0</ele><time>2026-05-01T08:48:04.102Z</time></trkpt><trkpt lat="44.7114633" lon="8.8696017"><ele>218.0</ele><time>2026-05-01T08:48:05.102Z</time></trkpt><trkpt lat="44.7116" lon="8.86933"><ele>215.5</ele><time>2026-05-01T08:48:06.102Z</time></trkpt><trkpt lat="44.7117433" lon="8.869075"><ele>213.0</ele><time>2026-05-01T08:48:07.102Z</time></trkpt><trkpt lat="44.711875" lon="8.8688183"><ele>215.0</ele><time>2026-05-01T08:48:08.102Z</time></trkpt><trkpt lat="44.7119933" lon="8.8685467"><ele>217.0</ele><time>2026-05-01T08:48:09.103Z</time></trkpt><trkpt lat="44.7121033" lon="8.868255"><ele>217.0</ele><time>2026-05-01T08:48:10.103Z</time></trkpt><trkpt lat="44.712195" lon="8.8679417"><ele>217.0</ele><time>2026-05-01T08:48:11.103Z</time></trkpt><trkpt lat="44.7122867" lon="8.8676033"><ele>215.0</ele><time>2026-05-01T08:48:12.102Z</time></trkpt><trkpt lat="44.7123533" lon="8.86728"><ele>213.0</ele><time>2026-05-01T08:48:13.103Z</time></trkpt><trkpt lat="44.7124233" lon="8.8669517"><ele>212.5</ele><time>2026-05-01T08:48:14.102Z</time></trkpt><trkpt lat="44.7124983" lon="8.86663"><ele>212.0</ele><time>2026-05-01T08:48:15.103Z</time></trkpt><trkpt lat="44.712575" lon="8.86632"><ele>212.0</ele><time>2026-05-01T08:48:16.103Z</time></trkpt><trkpt lat="44.712665" lon="8.8660167"><ele>212.0</ele><time>2026-05-01T08:48:17.102Z</time></trkpt><trkpt lat="44.71278" lon="8.8657183"><ele>214.0</ele><time>2026-05-01T08:48:18.102Z</time></trkpt><trkpt lat="44.7129183" lon="8.86541"><ele>216.0</ele><time>2026-05-01T08:48:19.103Z</time></trkpt><trkpt lat="44.7130633" lon="8.8651033"><ele>216.0</ele><time>2026-05-01T08:48:20.102Z</time></trkpt><trkpt lat="44.7132067" lon="8.8648083"><ele>216.0</ele><time>2026-05-01T08:48:21.102Z</time></trkpt><trkpt lat="44.7135267" lon="8.86433"><ele>215.5</ele><time>2026-05-01T08:48:23.102Z</time></trkpt><trkpt lat="44.7137117" lon="8.86415"><ele>215.0</ele><time>2026-05-01T08:48:24.103Z</time></trkpt><trkpt lat="44.7139167" lon="8.8639983"><ele>215.0</ele><time>2026-05-01T08:48:25.102Z</time></trkpt><trkpt lat="44.7141417" lon="8.8638883"><ele>215.0</ele><time>2026-05-01T08:48:26.103Z</time></trkpt><trkpt lat="44.7143767" lon="8.863825"><ele>215.0</ele><time>2026-05-01T08:48:27.102Z</time></trkpt><trkpt lat="44.7146117" lon="8.8638133"><ele>215.0</ele><time>2026-05-01T08:48:28.103Z</time></trkpt><trkpt lat="44.7148567" lon="8.86386"><ele>215.0</ele><time>2026-05-01T08:48:29.103Z</time></trkpt><trkpt lat="44.7151067" lon="8.8639167"><ele>215.0</ele><time>2026-05-01T08:48:30.103Z</time></trkpt><trkpt lat="44.7153633" lon="8.8639733"><ele>213.0</ele><time>2026-05-01T08:48:31.102Z</time></trkpt><trkpt lat="44.7156333" lon="8.8640383"><ele>211.0</ele><time>2026-05-01T08:48:32.103Z</time></trkpt><trkpt lat="44.7158933" lon="8.8641067"><ele>211.0</ele><time>2026-05-01T08:48:33.103Z</time></trkpt><trkpt lat="44.7161383" lon="8.8641633"><ele>211.0</ele><time>2026-05-01T08:48:34.102Z</time></trkpt><trkpt lat="44.7163717" lon="8.8642133"><ele>211.0</ele><time>2026-05-01T08:48:35.102Z</time></trkpt><trkpt lat="44.7166183" lon="8.8642333"><ele>211.0</ele><time>2026-05-01T08:48:36.103Z</time></trkpt><trkpt lat="44.7168683" lon="8.8642233"><ele>213.5</ele><time>2026-05-01T08:48:37.102Z</time></trkpt><trkpt lat="44.717115" lon="8.8641767"><ele>216.0</ele><time>2026-05-01T08:48:38.102Z</time></trkpt><trkpt lat="44.7173667" lon="8.864115"><ele>216.0</ele><time>2026-05-01T08:48:39.102Z</time></trkpt><trkpt lat="44.7176233" lon="8.8640533"><ele>216.0</ele><time>2026-05-01T08:48:40.103Z</time></trkpt><trkpt lat="44.71788" lon="8.8639933"><ele>216.0</ele><time>2026-05-01T08:48:41.103Z</time></trkpt><trkpt lat="44.7181333" lon="8.863935"><ele>216.0</ele><time>2026-05-01T08:48:42.102Z</time></trkpt><trkpt lat="44.718615" lon="8.8638267"><ele>216.5</ele><time>2026-05-01T08:48:44.102Z</time></trkpt><trkpt lat="44.71885" lon="8.8637717"><ele>217.0</ele><time>2026-05-01T08:48:45.103Z</time></trkpt><trkpt lat="44.719085" lon="8.863715"><ele>217.0</ele><time>2026-05-01T08:48:46.102Z</time></trkpt><trkpt lat="44.7193133" lon="8.86366"><ele>217.0</ele><time>2026-05-01T08:48:47.103Z</time></trkpt><trkpt lat="44.7195267" lon="8.8636083"><ele>217.0</ele><time>2026-05-01T08:48:48.102Z</time></trkpt><trkpt lat="44.7197233" lon="8.8635583"><ele>216.66666666666666</ele><time>2026-05-01T08:48:49.103Z</time></trkpt><trkpt lat="44.7199067" lon="8.8635117"><ele>216.33333333333331</ele><time>2026-05-01T08:48:50.103Z</time></trkpt><trkpt lat="44.7200883" lon="8.86347"><ele>216.0</ele><time>2026-05-01T08:48:51.102Z</time></trkpt><trkpt lat="44.7202583" lon="8.863425"><ele>216.0</ele><time>2026-05-01T08:48:52.103Z</time></trkpt><trkpt lat="44.7204117" lon="8.8633817"><ele>216.0</ele><time>2026-05-01T08:48:53.103Z</time></trkpt><trkpt lat="44.72056" lon="8.8633383"><ele>216.0</ele><time>2026-05-01T08:48:54.103Z</time></trkpt><trkpt lat="44.7207017" lon="8.8633"><ele>216.0</ele><time>2026-05-01T08:48:55.102Z</time></trkpt><trkpt lat="44.720835" lon="8.8632683"><ele>216.0</ele><time>2026-05-01T08:48:56.103Z</time></trkpt><trkpt lat="44.7209667" lon="8.8632367"><ele>216.0</ele><time>2026-05-01T08:48:57.103Z</time></trkpt><trkpt lat="44.721105" lon="8.8632017"><ele>216.0</ele><time>2026-05-01T08:48:58.103Z</time></trkpt><trkpt lat="44.7212467" lon="8.8631667"><ele>216.25</ele><time>2026-05-01T08:48:59.103Z</time></trkpt><trkpt lat="44.721395" lon="8.8631333"><ele>216.5</ele><time>2026-05-01T08:49:00.103Z</time></trkpt><trkpt lat="44.72154" lon="8.8630967"><ele>216.75</ele><time>2026-05-01T08:49:01.102Z</time></trkpt><trkpt lat="44.7216833" lon="8.8630667"><ele>217.0</ele><time>2026-05-01T08:49:02.102Z</time></trkpt><trkpt lat="44.7218283" lon="8.86303"><ele>217.0</ele><time>2026-05-01T08:49:03.102Z</time></trkpt><trkpt lat="44.7221167" lon="8.8629217"><ele>217.0</ele><time>2026-05-01T08:49:05.102Z</time></trkpt><trkpt lat="44.7222633" lon="8.8628633"><ele>217.0</ele><time>2026-05-01T08:49:06.102Z</time></trkpt><trkpt lat="44.7224133" lon="8.862805"><ele>217.0</ele><time>2026-05-01T08:49:07.103Z</time></trkpt><trkpt lat="44.72257" lon="8.862735"><ele>217.0</ele><time>2026-05-01T08:49:08.103Z</time></trkpt><trkpt lat="44.7227333" lon="8.8626683"><ele>217.0</ele><time>2026-05-01T08:49:09.102Z</time></trkpt><trkpt lat="44.7229" lon="8.8625967"><ele>217.0</ele><time>2026-05-01T08:49:10.103Z</time></trkpt><trkpt lat="44.7230717" lon="8.862525"><ele>217.0</ele><time>2026-05-01T08:49:11.102Z</time></trkpt><trkpt lat="44.7232433" lon="8.8624533"><ele>217.0</ele><time>2026-05-01T08:49:12.102Z</time></trkpt><trkpt lat="44.7234133" lon="8.8623733"><ele>217.0</ele><time>2026-05-01T08:49:13.103Z</time></trkpt><trkpt lat="44.7235883" lon="8.8623033"><ele>217.0</ele><time>2026-05-01T08:49:14.102Z</time></trkpt><trkpt lat="44.7237433" lon="8.86223"><ele>217.0</ele><time>2026-05-01T08:49:15.102Z</time></trkpt><trkpt lat="44.7238817" lon="8.862155"><ele>217.0</ele><time>2026-05-01T08:49:16.102Z</time></trkpt><trkpt lat="44.7240183" lon="8.862075"><ele>217.0</ele><time>2026-05-01T08:49:17.103Z</time></trkpt><trkpt lat="44.7241383" lon="8.8619667"><ele>217.0</ele><time>2026-05-01T08:49:18.103Z</time></trkpt><trkpt lat="44.7242367" lon="8.8618367"><ele>214.5</ele><time>2026-05-01T08:49:19.102Z</time></trkpt><trkpt lat="44.7243167" lon="8.8616967"><ele>212.0</ele><time>2026-05-01T08:49:20.103Z</time></trkpt><trkpt lat="44.7243867" lon="8.8615383"><ele>209.5</ele><time>2026-05-01T08:49:21.103Z</time></trkpt><trkpt lat="44.7244483" lon="8.86137"><ele>207.0</ele><time>2026-05-01T08:49:22.103Z</time></trkpt><trkpt lat="44.7244933" lon="8.8611967"><ele>207.0</ele><time>2026-05-01T08:49:23.102Z</time></trkpt><trkpt lat="44.72455" lon="8.8610133"><ele>207.0</ele><time>2026-05-01T08:49:24.102Z</time></trkpt><trkpt lat="44.7246717" lon="8.860655"><ele>207.0</ele><time>2026-05-01T08:49:26.102Z</time></trkpt><trkpt lat="44.72474" lon="8.8604767"><ele>206.0</ele><time>2026-05-01T08:49:27.102Z</time></trkpt><trkpt lat="44.724825" lon="8.8602883"><ele>205.0</ele><time>2026-05-01T08:49:28.103Z</time></trkpt><trkpt lat="44.7249283" lon="8.8601133"><ele>204.0</ele><time>2026-05-01T08:49:29.102Z</time></trkpt><trkpt lat="44.725045" lon="8.8599267"><ele>204.0</ele><time>2026-05-01T08:49:30.102Z</time></trkpt><trkpt lat="44.7251633" lon="8.85973"><ele>204.0</ele><time>2026-05-01T08:49:31.102Z</time></trkpt><trkpt lat="44.7252783" lon="8.8595367"><ele>204.0</ele><time>2026-05-01T08:49:32.102Z</time></trkpt><trkpt lat="44.7253983" lon="8.8593517"><ele>203.66666666666669</ele><time>2026-05-01T08:49:33.103Z</time></trkpt><trkpt lat="44.7255" lon="8.8591733"><ele>203.33333333333334</ele><time>2026-05-01T08:49:34.102Z</time></trkpt><trkpt lat="44.7256117" lon="8.8589967"><ele>203.0</ele><time>2026-05-01T08:49:35.103Z</time></trkpt><trkpt lat="44.7257267" lon="8.8588133"><ele>203.0</ele><time>2026-05-01T08:49:36.102Z</time></trkpt><trkpt lat="44.7258517" lon="8.8586283"><ele>203.0</ele><time>2026-05-01T08:49:37.102Z</time></trkpt><trkpt lat="44.7259867" lon="8.8584283"><ele>203.0</ele><time>2026-05-01T08:49:38.102Z</time></trkpt><trkpt lat="44.7261267" lon="8.8582133"><ele>203.0</ele><time>2026-05-01T08:49:39.102Z</time></trkpt><trkpt lat="44.7262733" lon="8.85799"><ele>203.0</ele><time>2026-05-01T08:49:40.102Z</time></trkpt><trkpt lat="44.7264367" lon="8.8577567"><ele>203.0</ele><time>2026-05-01T08:49:41.102Z</time></trkpt><trkpt lat="44.7266167" lon="8.8575283"><ele>204.5</ele><time>2026-05-01T08:49:42.103Z</time></trkpt><trkpt lat="44.72681" lon="8.8573217"><ele>206.0</ele><time>2026-05-01T08:49:43.102Z</time></trkpt><trkpt lat="44.7270267" lon="8.857145"><ele>206.0</ele><time>2026-05-01T08:49:44.102Z</time></trkpt><trkpt lat="44.7272633" lon="8.8569817"><ele>206.0</ele><time>2026-05-01T08:49:45.103Z</time></trkpt><trkpt lat="44.7277183" lon="8.8566933"><ele>206.5</ele><time>2026-05-01T08:49:47.102Z</time></trkpt><trkpt lat="44.7279517" lon="8.8565767"><ele>207.0</ele><time>2026-05-01T08:49:48.102Z</time></trkpt><trkpt lat="44.7281933" lon="8.85649"><ele>207.0</ele><time>2026-05-01T08:49:49.102Z</time></trkpt><trkpt lat="44.7284517" lon="8.8564333"><ele>207.0</ele><time>2026-05-01T08:49:50.102Z</time></trkpt><trkpt lat="44.7287117" lon="8.856415"><ele>204.5</ele><time>2026-05-01T08:49:51.102Z</time></trkpt><trkpt lat="44.728985" lon="8.85641"><ele>202.0</ele><time>2026-05-01T08:49:52.102Z</time></trkpt><trkpt lat="44.7292583" lon="8.8564233"><ele>199.5</ele><time>2026-05-01T08:49:53.103Z</time></trkpt><trkpt lat="44.72953" lon="8.8564267"><ele>197.0</ele><time>2026-05-01T08:49:54.102Z</time></trkpt><trkpt lat="44.7297917" lon="8.85643"><ele>197.0</ele><time>2026-05-01T08:49:55.102Z</time></trkpt><trkpt lat="44.7300533" lon="8.8564133"><ele>197.0</ele><time>2026-05-01T08:49:56.102Z</time></trkpt><trkpt lat="44.73031" lon="8.8563733"><ele>195.0</ele><time>2026-05-01T08:49:57.103Z</time></trkpt><trkpt lat="44.7305783" lon="8.8562983"><ele>193.0</ele><time>2026-05-01T08:49:58.102Z</time></trkpt><trkpt lat="44.73085" lon="8.85619"><ele>192.0</ele><time>2026-05-01T08:49:59.103Z</time></trkpt><trkpt lat="44.7311167" lon="8.856055"><ele>191.0</ele><time>2026-05-01T08:50:00.102Z</time></trkpt><trkpt lat="44.73138" lon="8.8558883"><ele>194.0</ele><time>2026-05-01T08:50:01.102Z</time></trkpt><trkpt lat="44.731635" lon="8.8557033"><ele>197.0</ele><time>2026-05-01T08:50:02.102Z</time></trkpt><trkpt lat="44.731875" lon="8.8555133"><ele>196.0</ele><time>2026-05-01T08:50:03.102Z</time></trkpt><trkpt lat="44.732115" lon="8.8553217"><ele>195.0</ele><time>2026-05-01T08:50:04.102Z</time></trkpt><trkpt lat="44.73236" lon="8.8551283"><ele>195.5</ele><time>2026-05-01T08:50:05.103Z</time></trkpt><trkpt lat="44.7326083" lon="8.85494"><ele>196.0</ele><time>2026-05-01T08:50:06.103Z</time></trkpt><trkpt lat="44.733115" lon="8.8545483"><ele>194.5</ele><time>2026-05-01T08:50:08.102Z</time></trkpt><trkpt lat="44.733365" lon="8.85435"><ele>193.0</ele><time>2026-05-01T08:50:09.102Z</time></trkpt><trkpt lat="44.7336217" lon="8.854155"><ele>193.0</ele><time>2026-05-01T08:50:10.103Z</time></trkpt><trkpt lat="44.7338833" lon="8.8539583"><ele>193.0</ele><time>2026-05-01T08:50:11.103Z</time></trkpt><trkpt lat="44.73414" lon="8.8537583"><ele>192.5</ele><time>2026-05-01T08:50:12.103Z</time></trkpt><trkpt lat="44.7343983" lon="8.8535617"><ele>192.0</ele><time>2026-05-01T08:50:13.103Z</time></trkpt><trkpt lat="44.734655" lon="8.8533717"><ele>192.0</ele><time>2026-05-01T08:50:14.102Z</time></trkpt><trkpt lat="44.7349017" lon="8.85318"><ele>192.0</ele><time>2026-05-01T08:50:15.102Z</time></trkpt><trkpt lat="44.73515" lon="8.852995"><ele>192.0</ele><time>2026-05-01T08:50:16.102Z</time></trkpt><trkpt lat="44.73538" lon="8.8528233"><ele>192.0</ele><time>2026-05-01T08:50:17.103Z</time></trkpt><trkpt lat="44.7356083" lon="8.8526483"><ele>192.0</ele><time>2026-05-01T08:50:18.102Z</time></trkpt><trkpt lat="44.735835" lon="8.8524717"><ele>192.0</ele><time>2026-05-01T08:50:19.102Z</time></trkpt><trkpt lat="44.7360667" lon="8.8522883"><ele>192.0</ele><time>2026-05-01T08:50:20.103Z</time></trkpt><trkpt lat="44.736295" lon="8.8521133"><ele>192.0</ele><time>2026-05-01T08:50:21.103Z</time></trkpt><trkpt lat="44.736515" lon="8.8519417"><ele>192.0</ele><time>2026-05-01T08:50:22.102Z</time></trkpt><trkpt lat="44.7367283" lon="8.851775"><ele>192.0</ele><time>2026-05-01T08:50:23.103Z</time></trkpt><trkpt lat="44.7369367" lon="8.8516083"><ele>192.0</ele><time>2026-05-01T08:50:24.102Z</time></trkpt><trkpt lat="44.73715" lon="8.8514383"><ele>192.0</ele><time>2026-05-01T08:50:25.102Z</time></trkpt><trkpt lat="44.7373633" lon="8.8512567"><ele>192.0</ele><time>2026-05-01T08:50:26.102Z</time></trkpt><trkpt lat="44.737575" lon="8.8510633"><ele>192.0</ele><time>2026-05-01T08:50:27.103Z</time></trkpt><trkpt lat="44.73798" lon="8.85066"><ele>192.5</ele><time>2026-05-01T08:50:29.102Z</time></trkpt><trkpt lat="44.738175" lon="8.8504417"><ele>193.0</ele><time>2026-05-01T08:50:30.102Z</time></trkpt><trkpt lat="44.73837" lon="8.8502167"><ele>197.0</ele><time>2026-05-01T08:50:31.102Z</time></trkpt><trkpt lat="44.73857" lon="8.8499783"><ele>201.0</ele><time>2026-05-01T08:50:32.102Z</time></trkpt><trkpt lat="44.7387583" lon="8.8497383"><ele>201.0</ele><time>2026-05-01T08:50:33.102Z</time></trkpt><trkpt lat="44.738935" lon="8.8495017"><ele>201.0</ele><time>2026-05-01T08:50:34.103Z</time></trkpt><trkpt lat="44.7390983" lon="8.849275"><ele>202.0</ele><time>2026-05-01T08:50:35.102Z</time></trkpt><trkpt lat="44.7392633" lon="8.849045"><ele>203.0</ele><time>2026-05-01T08:50:36.102Z</time></trkpt><trkpt lat="44.7394233" lon="8.84881"><ele>204.0</ele><time>2026-05-01T08:50:37.102Z</time></trkpt><trkpt lat="44.7395883" lon="8.8485667"><ele>205.0</ele><time>2026-05-01T08:50:38.102Z</time></trkpt><trkpt lat="44.7397617" lon="8.8483083"><ele>205.0</ele><time>2026-05-01T08:50:39.102Z</time></trkpt><trkpt lat="44.7399417" lon="8.8480333"><ele>205.0</ele><time>2026-05-01T08:50:40.102Z</time></trkpt><trkpt lat="44.7401367" lon="8.8477467"><ele>204.5</ele><time>2026-05-01T08:50:41.102Z</time></trkpt><trkpt lat="44.7403417" lon="8.8474583"><ele>204.0</ele><time>2026-05-01T08:50:42.102Z</time></trkpt><trkpt lat="44.7405383" lon="8.8471717"><ele>204.0</ele><time>2026-05-01T08:50:43.103Z</time></trkpt><trkpt lat="44.7407317" lon="8.8468967"><ele>204.0</ele><time>2026-05-01T08:50:44.102Z</time></trkpt><trkpt lat="44.7409217" lon="8.8466383"><ele>205.5</ele><time>2026-05-01T08:50:45.102Z</time></trkpt><trkpt lat="44.7411183" lon="8.84639"><ele>207.0</ele><time>2026-05-01T08:50:46.102Z</time></trkpt><trkpt lat="44.741315" lon="8.8461583"><ele>207.0</ele><time>2026-05-01T08:50:47.102Z</time></trkpt><trkpt lat="44.7415233" lon="8.845935"><ele>207.0</ele><time>2026-05-01T08:50:48.102Z</time></trkpt><trkpt lat="44.7419317" lon="8.8455183"><ele>207.0</ele><time>2026-05-01T08:50:50.102Z</time></trkpt><trkpt lat="44.74215" lon="8.8453233"><ele>207.0</ele><time>2026-05-01T08:50:51.103Z</time></trkpt><trkpt lat="44.7423667" lon="8.8451467"><ele>206.0</ele><time>2026-05-01T08:50:52.103Z</time></trkpt><trkpt lat="44.7425883" lon="8.84498"><ele>205.0</ele><time>2026-05-01T08:50:53.103Z</time></trkpt><trkpt lat="44.742805" lon="8.8448167"><ele>205.0</ele><time>2026-05-01T08:50:54.103Z</time></trkpt><trkpt lat="44.7430267" lon="8.8446617"><ele>205.0</ele><time>2026-05-01T08:50:55.102Z</time></trkpt><trkpt lat="44.7432533" lon="8.8445083"><ele>205.0</ele><time>2026-05-01T08:50:56.103Z</time></trkpt><trkpt lat="44.7434867" lon="8.8443583"><ele>205.0</ele><time>2026-05-01T08:50:57.102Z</time></trkpt><trkpt lat="44.743725" lon="8.8442183"><ele>204.5</ele><time>2026-05-01T08:50:58.102Z</time></trkpt><trkpt lat="44.7439667" lon="8.844095"><ele>204.0</ele><time>2026-05-01T08:50:59.103Z</time></trkpt><trkpt lat="44.7442067" lon="8.8439767"><ele>204.0</ele><time>2026-05-01T08:51:00.102Z</time></trkpt><trkpt lat="44.7444483" lon="8.84386"><ele>204.0</ele><time>2026-05-01T08:51:01.103Z</time></trkpt><trkpt lat="44.7446867" lon="8.843745"><ele>204.0</ele><time>2026-05-01T08:51:02.102Z</time></trkpt><trkpt lat="44.74492" lon="8.8436367"><ele>204.0</ele><time>2026-05-01T08:51:03.103Z</time></trkpt><trkpt lat="44.7451567" lon="8.8435217"><ele>203.5</ele><time>2026-05-01T08:51:04.102Z</time></trkpt><trkpt lat="44.745395" lon="8.8433967"><ele>203.0</ele><time>2026-05-01T08:51:05.102Z</time></trkpt><trkpt lat="44.7456383" lon="8.843275"><ele>203.0</ele><time>2026-05-01T08:51:06.102Z</time></trkpt><trkpt lat="44.7458767" lon="8.843155"><ele>203.0</ele><time>2026-05-01T08:51:07.102Z</time></trkpt><trkpt lat="44.7461233" lon="8.843035"><ele>202.5</ele><time>2026-05-01T08:51:08.103Z</time></trkpt><trkpt lat="44.7463733" lon="8.8429133"><ele>202.0</ele><time>2026-05-01T08:51:09.102Z</time></trkpt><trkpt lat="44.746865" lon="8.842665"><ele>202.5</ele><time>2026-05-01T08:51:11.102Z</time></trkpt><trkpt lat="44.747105" lon="8.8425433"><ele>203.0</ele><time>2026-05-01T08:51:12.102Z</time></trkpt><trkpt lat="44.7473467" lon="8.8424217"><ele>203.0</ele><time>2026-05-01T08:51:13.102Z</time></trkpt><trkpt lat="44.7475933" lon="8.8422983"><ele>203.0</ele><time>2026-05-01T08:51:14.103Z</time></trkpt><trkpt lat="44.7478467" lon="8.8421783"><ele>202.5</ele><time>2026-05-01T08:51:15.103Z</time></trkpt><trkpt lat="44.7480983" lon="8.8420483"><ele>202.0</ele><time>2026-05-01T08:51:16.102Z</time></trkpt><trkpt lat="44.748345" lon="8.8419317"><ele>202.0</ele><time>2026-05-01T08:51:17.103Z</time></trkpt><trkpt lat="44.7485933" lon="8.8418117"><ele>202.0</ele><time>2026-05-01T08:51:18.102Z</time></trkpt><trkpt lat="44.748845" lon="8.8416917"><ele>202.5</ele><time>2026-05-01T08:51:19.102Z</time></trkpt><trkpt lat="44.7490933" lon="8.8415683"><ele>203.0</ele><time>2026-05-01T08:51:20.103Z</time></trkpt><trkpt lat="44.7493433" lon="8.84145"><ele>201.5</ele><time>2026-05-01T08:51:21.103Z</time></trkpt><trkpt lat="44.74959" lon="8.841325"><ele>200.0</ele><time>2026-05-01T08:51:22.102Z</time></trkpt><trkpt lat="44.7498417" lon="8.8412017"><ele>200.0</ele><time>2026-05-01T08:51:23.103Z</time></trkpt><trkpt lat="44.7500867" lon="8.8410783"><ele>200.0</ele><time>2026-05-01T08:51:24.102Z</time></trkpt><trkpt lat="44.7503333" lon="8.8409667"><ele>200.0</ele><time>2026-05-01T08:51:25.102Z</time></trkpt><trkpt lat="44.7505783" lon="8.8408633"><ele>200.0</ele><time>2026-05-01T08:51:26.102Z</time></trkpt><trkpt lat="44.7508233" lon="8.8407633"><ele>200.0</ele><time>2026-05-01T08:51:27.102Z</time></trkpt><trkpt lat="44.75107" lon="8.8406667"><ele>200.0</ele><time>2026-05-01T08:51:28.102Z</time></trkpt><trkpt lat="44.7513233" lon="8.8405717"><ele>200.0</ele><time>2026-05-01T08:51:29.102Z</time></trkpt><trkpt lat="44.7515783" lon="8.84047"><ele>200.0</ele><time>2026-05-01T08:51:30.102Z</time></trkpt><trkpt lat="44.7521017" lon="8.8402867"><ele>199.5</ele><time>2026-05-01T08:51:32.102Z</time></trkpt><trkpt lat="44.7523617" lon="8.8402017"><ele>199.0</ele><time>2026-05-01T08:51:33.103Z</time></trkpt><trkpt lat="44.752625" lon="8.840115"><ele>198.5</ele><time>2026-05-01T08:51:34.102Z</time></trkpt><trkpt lat="44.7528917" lon="8.8400267"><ele>198.0</ele><time>2026-05-01T08:51:35.102Z</time></trkpt><trkpt lat="44.753155" lon="8.839945"><ele>198.0</ele><time>2026-05-01T08:51:36.103Z</time></trkpt><trkpt lat="44.7534233" lon="8.8398683"><ele>198.0</ele><time>2026-05-01T08:51:37.102Z</time></trkpt><trkpt lat="44.7536817" lon="8.8397933"><ele>198.0</ele><time>2026-05-01T08:51:38.102Z</time></trkpt><trkpt lat="44.75393" lon="8.8397183"><ele>198.0</ele><time>2026-05-01T08:51:39.103Z</time></trkpt><trkpt lat="44.7541817" lon="8.8396433"><ele>197.5</ele><time>2026-05-01T08:51:40.102Z</time></trkpt><trkpt lat="44.75444" lon="8.8395667"><ele>197.0</ele><time>2026-05-01T08:51:41.102Z</time></trkpt><trkpt lat="44.7546983" lon="8.83949"><ele>197.0</ele><time>2026-05-01T08:51:42.102Z</time></trkpt><trkpt lat="44.75496" lon="8.8394117"><ele>197.0</ele><time>2026-05-01T08:51:43.103Z</time></trkpt><trkpt lat="44.7552183" lon="8.83933"><ele>196.5</ele><time>2026-05-01T08:51:44.103Z</time></trkpt><trkpt lat="44.7554733" lon="8.8392533"><ele>196.0</ele><time>2026-05-01T08:51:45.102Z</time></trkpt><trkpt lat="44.7557233" lon="8.8391733"><ele>196.0</ele><time>2026-05-01T08:51:46.102Z</time></trkpt><trkpt lat="44.75597" lon="8.8391"><ele>196.0</ele><time>2026-05-01T08:51:47.102Z</time></trkpt><trkpt lat="44.7562183" lon="8.8390283"><ele>195.5</ele><time>2026-05-01T08:51:48.103Z</time></trkpt><trkpt lat="44.7564533" lon="8.8389567"><ele>195.0</ele><time>2026-05-01T08:51:49.103Z</time></trkpt><trkpt lat="44.7566833" lon="8.8388933"><ele>194.5</ele><time>2026-05-01T08:51:50.102Z</time></trkpt><trkpt lat="44.7569083" lon="8.8388383"><ele>194.0</ele><time>2026-05-01T08:51:51.102Z</time></trkpt><trkpt lat="44.7573383" lon="8.838715"><ele>194.0</ele><time>2026-05-01T08:51:53.102Z</time></trkpt><trkpt lat="44.7575333" lon="8.83865"><ele>194.0</ele><time>2026-05-01T08:51:54.102Z</time></trkpt><trkpt lat="44.7577267" lon="8.8385933"><ele>194.0</ele><time>2026-05-01T08:51:55.103Z</time></trkpt><trkpt lat="44.7579067" lon="8.8385483"><ele>193.66666666666669</ele><time>2026-05-01T08:51:56.102Z</time></trkpt><trkpt lat="44.7580767" lon="8.838515"><ele>193.33333333333331</ele><time>2026-05-01T08:51:57.102Z</time></trkpt><trkpt lat="44.75824" lon="8.8384917"><ele>193.0</ele><time>2026-05-01T08:51:58.102Z</time></trkpt><trkpt lat="44.7583983" lon="8.8384783"><ele>193.25</ele><time>2026-05-01T08:51:59.103Z</time></trkpt><trkpt lat="44.7585467" lon="8.8384567"><ele>193.5</ele><time>2026-05-01T08:52:00.103Z</time></trkpt><trkpt lat="44.7586917" lon="8.83843"><ele>193.75</ele><time>2026-05-01T08:52:01.102Z</time></trkpt><trkpt lat="44.75883" lon="8.838405"><ele>194.0</ele><time>2026-05-01T08:52:02.102Z</time></trkpt><trkpt lat="44.7589633" lon="8.8383817"><ele>194.0</ele><time>2026-05-01T08:52:03.103Z</time></trkpt><trkpt lat="44.7590883" lon="8.8383617"><ele>194.0</ele><time>2026-05-01T08:52:04.103Z</time></trkpt><trkpt lat="44.7592133" lon="8.8383383"><ele>194.0</ele><time>2026-05-01T08:52:05.102Z</time></trkpt><trkpt lat="44.7593383" lon="8.8383167"><ele>194.0</ele><time>2026-05-01T08:52:06.103Z</time></trkpt><trkpt lat="44.7594517" lon="8.8382967"><ele>194.2</ele><time>2026-05-01T08:52:07.102Z</time></trkpt><trkpt lat="44.7595633" lon="8.83828"><ele>194.39999999999998</ele><time>2026-05-01T08:52:08.102Z</time></trkpt><trkpt lat="44.75967" lon="8.83827"><ele>194.6</ele><time>2026-05-01T08:52:09.102Z</time></trkpt><trkpt lat="44.7597783" lon="8.8382617"><ele>194.8</ele><time>2026-05-01T08:52:10.103Z</time></trkpt><trkpt lat="44.7598783" lon="8.8382533"><ele>195.0</ele><time>2026-05-01T08:52:11.103Z</time></trkpt><trkpt lat="44.759965" lon="8.83824"><ele>195.0</ele><time>2026-05-01T08:52:12.103Z</time></trkpt><trkpt lat="44.7601133" lon="8.838225"><ele>195.0</ele><time>2026-05-01T08:52:14.103Z</time></trkpt><trkpt lat="44.7601767" lon="8.8382217"><ele>195.0</ele><time>2026-05-01T08:52:15.103Z</time></trkpt><trkpt lat="44.76029" lon="8.83821"><ele>195.0</ele><time>2026-05-01T08:52:17.103Z</time></trkpt><trkpt lat="44.7603883" lon="8.8381933"><ele>195.0</ele><time>2026-05-01T08:52:19.103Z</time></trkpt><trkpt lat="44.7604767" lon="8.8381767"><ele>194.8</ele><time>2026-05-01T08:52:21.103Z</time></trkpt><trkpt lat="44.7605583" lon="8.8381533"><ele>194.6</ele><time>2026-05-01T08:52:23.102Z</time></trkpt><trkpt lat="44.7606417" lon="8.8381267"><ele>194.39999999999998</ele><time>2026-05-01T08:52:25.102Z</time></trkpt><trkpt lat="44.7607083" lon="8.83811"><ele>194.2</ele><time>2026-05-01T08:52:27.102Z</time></trkpt><trkpt lat="44.760805" lon="8.8380767"><ele>194.0</ele><time>2026-05-01T09:06:16.1Z</time></trkpt><trkpt lat="44.7607" lon="8.8381517"><ele>194.00000000000003</ele><time>2026-05-01T09:06:24.1Z</time></trkpt><trkpt lat="44.7606633" lon="8.8382283"><ele>194.0</ele><time>2026-05-01T09:06:27.1Z</time></trkpt><trkpt lat="44.7607067" lon="8.8382983"><ele>194.0</ele><time>2026-05-01T09:06:30.1Z</time></trkpt><trkpt lat="44.7607767" lon="8.8382867"><ele>194.0</ele><time>2026-05-01T09:06:33.1Z</time></trkpt><trkpt lat="44.76083" lon="8.8382283"><ele>194.00000000000003</ele><time>2026-05-01T09:06:36.101Z</time></trkpt><trkpt lat="44.7608517" lon="8.8381267"><ele>194.0</ele><time>2026-05-01T09:06:40.1Z</time></trkpt><trkpt lat="44.761" lon="8.838015"><ele>193.75</ele><time>2026-05-01T09:08:27.1Z</time></trkpt><trkpt lat="44.7611883" lon="8.8379683"><ele>193.5</ele><time>2026-05-01T09:08:31.1Z</time></trkpt><trkpt lat="44.761265" lon="8.83795"><ele>193.25</ele><time>2026-05-01T09:08:34.1Z</time></trkpt><trkpt lat="44.761365" lon="8.8379667"><ele>193.0</ele><time>2026-05-01T09:09:20.101Z</time></trkpt><trkpt lat="44.7615367" lon="8.8379217"><ele>193.0</ele><time>2026-05-01T09:09:23.101Z</time></trkpt><trkpt lat="44.7616133" lon="8.8379017"><ele>193.0</ele><time>2026-05-01T09:09:24.1Z</time></trkpt><trkpt lat="44.7617017" lon="8.8378767"><ele>193.0</ele><time>2026-05-01T09:09:25.101Z</time></trkpt><trkpt lat="44.7618" lon="8.8378583"><ele>193.0</ele><time>2026-05-01T09:09:26.101Z</time></trkpt><trkpt lat="44.761915" lon="8.83784"><ele>193.0</ele><time>2026-05-01T09:09:27.1Z</time></trkpt><trkpt lat="44.762045" lon="8.8378167"><ele>193.0</ele><time>2026-05-01T09:09:28.1Z</time></trkpt><trkpt lat="44.762195" lon="8.837795"><ele>193.0</ele><time>2026-05-01T09:09:29.1Z</time></trkpt><trkpt lat="44.7623567" lon="8.83777"><ele>193.0</ele><time>2026-05-01T09:09:30.101Z</time></trkpt><trkpt lat="44.7625333" lon="8.8377467"><ele>192.66666666666666</ele><time>2026-05-01T09:09:31.101Z</time></trkpt><trkpt lat="44.7627167" lon="8.8377233"><ele>192.33333333333331</ele><time>2026-05-01T09:09:32.101Z</time></trkpt><trkpt lat="44.7629067" lon="8.837695"><ele>192.0</ele><time>2026-05-01T09:09:33.101Z</time></trkpt><trkpt lat="44.7631" lon="8.837675"><ele>192.0</ele><time>2026-05-01T09:09:34.1Z</time></trkpt><trkpt lat="44.7633017" lon="8.83765"><ele>192.0</ele><time>2026-05-01T09:09:35.1Z</time></trkpt><trkpt lat="44.7635" lon="8.8376283"><ele>192.0</ele><time>2026-05-01T09:09:36.1Z</time></trkpt><trkpt lat="44.7637033" lon="8.8376033"><ele>191.66666666666666</ele><time>2026-05-01T09:09:37.101Z</time></trkpt><trkpt lat="44.763915" lon="8.8375883"><ele>191.33333333333331</ele><time>2026-05-01T09:09:38.1Z</time></trkpt><trkpt lat="44.7641267" lon="8.8375683"><ele>191.0</ele><time>2026-05-01T09:09:39.1Z</time></trkpt><trkpt lat="44.764345" lon="8.8375517"><ele>190.5</ele><time>2026-05-01T09:09:40.1Z</time></trkpt><trkpt lat="44.7645667" lon="8.8375333"><ele>190.0</ele><time>2026-05-01T09:09:41.101Z</time></trkpt><trkpt lat="44.7650217" lon="8.837495"><ele>190.0</ele><time>2026-05-01T09:09:43.101Z</time></trkpt><trkpt lat="44.7652517" lon="8.8374767"><ele>190.0</ele><time>2026-05-01T09:09:44.1Z</time></trkpt><trkpt lat="44.7654867" lon="8.8374533"><ele>190.0</ele><time>2026-05-01T09:09:45.1Z</time></trkpt><trkpt lat="44.7657167" lon="8.8374317"><ele>190.0</ele><time>2026-05-01T09:09:46.1Z</time></trkpt><trkpt lat="44.7659533" lon="8.8374117"><ele>190.5</ele><time>2026-05-01T09:09:47.101Z</time></trkpt><trkpt lat="44.7661933" lon="8.8373917"><ele>191.0</ele><time>2026-05-01T09:09:48.1Z</time></trkpt><trkpt lat="44.76643" lon="8.8373733"><ele>191.0</ele><time>2026-05-01T09:09:49.1Z</time></trkpt><trkpt lat="44.7666683" lon="8.8373517"><ele>191.0</ele><time>2026-05-01T09:09:50.1Z</time></trkpt><trkpt lat="44.7669183" lon="8.8373317"><ele>190.5</ele><time>2026-05-01T09:09:51.1Z</time></trkpt><trkpt lat="44.7671667" lon="8.837305"><ele>190.0</ele><time>2026-05-01T09:09:52.1Z</time></trkpt><trkpt lat="44.7674217" lon="8.8372733"><ele>190.0</ele><time>2026-05-01T09:09:53.101Z</time></trkpt><trkpt lat="44.7676767" lon="8.83725"><ele>190.0</ele><time>2026-05-01T09:09:54.1Z</time></trkpt><trkpt lat="44.7679383" lon="8.8372267"><ele>188.0</ele><time>2026-05-01T09:09:55.1Z</time></trkpt><trkpt lat="44.7682067" lon="8.8372083"><ele>186.0</ele><time>2026-05-01T09:09:56.101Z</time></trkpt><trkpt lat="44.7684717" lon="8.8371867"><ele>187.0</ele><time>2026-05-01T09:09:57.101Z</time></trkpt><trkpt lat="44.7687417" lon="8.83716"><ele>188.0</ele><time>2026-05-01T09:09:58.1Z</time></trkpt><trkpt lat="44.7690133" lon="8.8371417"><ele>188.0</ele><time>2026-05-01T09:09:59.101Z</time></trkpt><trkpt lat="44.7692717" lon="8.8371133"><ele>188.0</ele><time>2026-05-01T09:10:00.101Z</time></trkpt><trkpt lat="44.7695367" lon="8.8370833"><ele>188.0</ele><time>2026-05-01T09:10:01.101Z</time></trkpt><trkpt lat="44.7698" lon="8.8370633"><ele>188.0</ele><time>2026-05-01T09:10:02.101Z</time></trkpt><trkpt lat="44.77034" lon="8.8370083"><ele>189.0</ele><time>2026-05-01T09:10:04.1Z</time></trkpt><trkpt lat="44.7706167" lon="8.8369783"><ele>190.0</ele><time>2026-05-01T09:10:05.1Z</time></trkpt><trkpt lat="44.77089" lon="8.8369583"><ele>190.0</ele><time>2026-05-01T09:10:06.101Z</time></trkpt><trkpt lat="44.7711633" lon="8.8369333"><ele>190.0</ele><time>2026-05-01T09:10:07.101Z</time></trkpt><trkpt lat="44.7714383" lon="8.8369067"><ele>190.0</ele><time>2026-05-01T09:10:08.1Z</time></trkpt><trkpt lat="44.7717133" lon="8.83688"><ele>190.0</ele><time>2026-05-01T09:10:09.1Z</time></trkpt><trkpt lat="44.7719883" lon="8.8368533"><ele>188.5</ele><time>2026-05-01T09:10:10.101Z</time></trkpt><trkpt lat="44.77226" lon="8.83683"><ele>187.0</ele><time>2026-05-01T09:10:11.1Z</time></trkpt><trkpt lat="44.77253" lon="8.8368067"><ele>186.5</ele><time>2026-05-01T09:10:12.1Z</time></trkpt><trkpt lat="44.7728" lon="8.83678"><ele>186.0</ele><time>2026-05-01T09:10:13.1Z</time></trkpt><trkpt lat="44.773075" lon="8.8367433"><ele>186.0</ele><time>2026-05-01T09:10:14.101Z</time></trkpt><trkpt lat="44.7733433" lon="8.8367217"><ele>186.0</ele><time>2026-05-01T09:10:15.1Z</time></trkpt><trkpt lat="44.773615" lon="8.8367"><ele>185.0</ele><time>2026-05-01T09:10:16.101Z</time></trkpt><trkpt lat="44.7738833" lon="8.8366817"><ele>184.0</ele><time>2026-05-01T09:10:17.1Z</time></trkpt><trkpt lat="44.7741467" lon="8.8366567"><ele>183.5</ele><time>2026-05-01T09:10:18.1Z</time></trkpt><trkpt lat="44.7744133" lon="8.836625"><ele>183.0</ele><time>2026-05-01T09:10:19.1Z</time></trkpt><trkpt lat="44.7746783" lon="8.8366017"><ele>183.0</ele><time>2026-05-01T09:10:20.1Z</time></trkpt><trkpt lat="44.77494" lon="8.836585"><ele>183.0</ele><time>2026-05-01T09:10:21.101Z</time></trkpt><trkpt lat="44.775205" lon="8.8365617"><ele>183.0</ele><time>2026-05-01T09:10:22.101Z</time></trkpt><trkpt lat="44.7754717" lon="8.836535"><ele>183.0</ele><time>2026-05-01T09:10:23.1Z</time></trkpt><trkpt lat="44.7760017" lon="8.836485"><ele>182.5</ele><time>2026-05-01T09:10:25.101Z</time></trkpt><trkpt lat="44.7762617" lon="8.83646"><ele>182.0</ele><time>2026-05-01T09:10:26.101Z</time></trkpt><trkpt lat="44.7765233" lon="8.8364383"><ele>182.0</ele><time>2026-05-01T09:10:27.1Z</time></trkpt><trkpt lat="44.776785" lon="8.8364167"><ele>182.0</ele><time>2026-05-01T09:10:28.101Z</time></trkpt><trkpt lat="44.777045" lon="8.8363967"><ele>183.0</ele><time>2026-05-01T09:10:29.1Z</time></trkpt><trkpt lat="44.7773067" lon="8.836375"><ele>184.0</ele><time>2026-05-01T09:10:30.1Z</time></trkpt><trkpt lat="44.7775633" lon="8.8363533"><ele>183.5</ele><time>2026-05-01T09:10:31.101Z</time></trkpt><trkpt lat="44.7778233" lon="8.8363317"><ele>183.0</ele><time>2026-05-01T09:10:32.101Z</time></trkpt><trkpt lat="44.77808" lon="8.8363033"><ele>183.0</ele><time>2026-05-01T09:10:33.1Z</time></trkpt><trkpt lat="44.7783367" lon="8.83628"><ele>183.0</ele><time>2026-05-01T09:10:34.1Z</time></trkpt><trkpt lat="44.7786" lon="8.8362517"><ele>182.0</ele><time>2026-05-01T09:10:35.101Z</time></trkpt><trkpt lat="44.7788583" lon="8.8362267"><ele>181.0</ele><time>2026-05-01T09:10:36.101Z</time></trkpt><trkpt lat="44.7791183" lon="8.836205"><ele>182.0</ele><time>2026-05-01T09:10:37.101Z</time></trkpt><trkpt lat="44.7793783" lon="8.836175"><ele>183.0</ele><time>2026-05-01T09:10:38.1Z</time></trkpt><trkpt lat="44.77964" lon="8.8361417"><ele>183.0</ele><time>2026-05-01T09:10:39.1Z</time></trkpt><trkpt lat="44.7799033" lon="8.8361033"><ele>183.0</ele><time>2026-05-01T09:10:40.1Z</time></trkpt><trkpt lat="44.78017" lon="8.836065"><ele>182.5</ele><time>2026-05-01T09:10:41.1Z</time></trkpt><trkpt lat="44.78044" lon="8.8360167"><ele>182.0</ele><time>2026-05-01T09:10:42.101Z</time></trkpt><trkpt lat="44.7807183" lon="8.8359717"><ele>181.5</ele><time>2026-05-01T09:10:43.101Z</time></trkpt><trkpt lat="44.7809933" lon="8.83592"><ele>181.0</ele><time>2026-05-01T09:10:44.101Z</time></trkpt><trkpt lat="44.78156" lon="8.8357983"><ele>181.0</ele><time>2026-05-01T09:10:46.101Z</time></trkpt><trkpt lat="44.7818383" lon="8.8357467"><ele>181.0</ele><time>2026-05-01T09:10:47.1Z</time></trkpt><trkpt lat="44.7821283" lon="8.8356917"><ele>181.0</ele><time>2026-05-01T09:10:48.1Z</time></trkpt><trkpt lat="44.782415" lon="8.8356383"><ele>181.0</ele><time>2026-05-01T09:10:49.1Z</time></trkpt><trkpt lat="44.7827083" lon="8.8355867"><ele>181.0</ele><time>2026-05-01T09:10:50.1Z</time></trkpt><trkpt lat="44.7830017" lon="8.83554"><ele>181.0</ele><time>2026-05-01T09:10:51.1Z</time></trkpt><trkpt lat="44.7832817" lon="8.8355"><ele>180.0</ele><time>2026-05-01T09:10:52.1Z</time></trkpt><trkpt lat="44.783545" lon="8.8354617"><ele>179.0</ele><time>2026-05-01T09:10:53.1Z</time></trkpt><trkpt lat="44.783805" lon="8.8354217"><ele>179.0</ele><time>2026-05-01T09:10:54.101Z</time></trkpt><trkpt lat="44.7840633" lon="8.8353783"><ele>179.0</ele><time>2026-05-01T09:10:55.1Z</time></trkpt><trkpt lat="44.7843233" lon="8.8353333"><ele>179.0</ele><time>2026-05-01T09:10:56.1Z</time></trkpt><trkpt lat="44.7845817" lon="8.8352867"><ele>179.0</ele><time>2026-05-01T09:10:57.1Z</time></trkpt><trkpt lat="44.7848433" lon="8.8352367"><ele>179.0</ele><time>2026-05-01T09:10:58.1Z</time></trkpt><trkpt lat="44.7851083" lon="8.8351867"><ele>179.0</ele><time>2026-05-01T09:10:59.1Z</time></trkpt><trkpt lat="44.7853717" lon="8.83514"><ele>178.5</ele><time>2026-05-01T09:11:00.101Z</time></trkpt><trkpt lat="44.7856333" lon="8.8350933"><ele>178.0</ele><time>2026-05-01T09:11:01.1Z</time></trkpt><trkpt lat="44.785895" lon="8.8350533"><ele>178.5</ele><time>2026-05-01T09:11:02.101Z</time></trkpt><trkpt lat="44.7861533" lon="8.83501"><ele>179.0</ele><time>2026-05-01T09:11:03.1Z</time></trkpt><trkpt lat="44.7864067" lon="8.8349667"><ele>179.0</ele><time>2026-05-01T09:11:04.1Z</time></trkpt><trkpt lat="44.786665" lon="8.8349183"><ele>179.0</ele><time>2026-05-01T09:11:05.1Z</time></trkpt><trkpt lat="44.787185" lon="8.834815"><ele>179.0</ele><time>2026-05-01T09:11:07.101Z</time></trkpt><trkpt lat="44.7874383" lon="8.8347667"><ele>179.0</ele><time>2026-05-01T09:11:08.101Z</time></trkpt><trkpt lat="44.7876983" lon="8.8347167"><ele>178.5</ele><time>2026-05-01T09:11:09.1Z</time></trkpt><trkpt lat="44.7879517" lon="8.8346717"><ele>178.0</ele><time>2026-05-01T09:11:10.101Z</time></trkpt><trkpt lat="44.78821" lon="8.8346267"><ele>178.0</ele><time>2026-05-01T09:11:11.101Z</time></trkpt><trkpt lat="44.7884717" lon="8.83458"><ele>178.0</ele><time>2026-05-01T09:11:12.101Z</time></trkpt><trkpt lat="44.7887333" lon="8.8345333"><ele>177.5</ele><time>2026-05-01T09:11:13.1Z</time></trkpt><trkpt lat="44.7889967" lon="8.8344933"><ele>177.0</ele><time>2026-05-01T09:11:14.101Z</time></trkpt><trkpt lat="44.789255" lon="8.834445"><ele>176.5</ele><time>2026-05-01T09:11:15.101Z</time></trkpt><trkpt lat="44.789515" lon="8.8343983"><ele>176.0</ele><time>2026-05-01T09:11:16.101Z</time></trkpt><trkpt lat="44.7897733" lon="8.8343533"><ele>175.5</ele><time>2026-05-01T09:11:17.1Z</time></trkpt><trkpt lat="44.7900317" lon="8.8343033"><ele>175.0</ele><time>2026-05-01T09:11:18.101Z</time></trkpt><trkpt lat="44.7902917" lon="8.8342517"><ele>175.0</ele><time>2026-05-01T09:11:19.101Z</time></trkpt><trkpt lat="44.7905467" lon="8.8342083"><ele>175.0</ele><time>2026-05-01T09:11:20.101Z</time></trkpt><trkpt lat="44.7908017" lon="8.8341683"><ele>174.5</ele><time>2026-05-01T09:11:21.1Z</time></trkpt><trkpt lat="44.7910567" lon="8.8341217"><ele>174.0</ele><time>2026-05-01T09:11:22.101Z</time></trkpt><trkpt lat="44.791315" lon="8.83408"><ele>174.0</ele><time>2026-05-01T09:11:23.101Z</time></trkpt><trkpt lat="44.7915717" lon="8.8340367"><ele>174.0</ele><time>2026-05-01T09:11:24.101Z</time></trkpt><trkpt lat="44.79183" lon="8.833995"><ele>175.0</ele><time>2026-05-01T09:11:25.1Z</time></trkpt><trkpt lat="44.7920883" lon="8.8339467"><ele>176.0</ele><time>2026-05-01T09:11:26.101Z</time></trkpt><trkpt lat="44.7926067" lon="8.833855"><ele>175.0</ele><time>2026-05-01T09:11:28.1Z</time></trkpt><trkpt lat="44.7928683" lon="8.8338083"><ele>174.0</ele><time>2026-05-01T09:11:29.101Z</time></trkpt><trkpt lat="44.7931283" lon="8.83376"><ele>174.0</ele><time>2026-05-01T09:11:30.1Z</time></trkpt><trkpt lat="44.793385" lon="8.8337133"><ele>174.0</ele><time>2026-05-01T09:11:31.1Z</time></trkpt><trkpt lat="44.7936483" lon="8.833665"><ele>174.0</ele><time>2026-05-01T09:11:32.101Z</time></trkpt><trkpt lat="44.7939067" lon="8.83362"><ele>174.0</ele><time>2026-05-01T09:11:33.1Z</time></trkpt><trkpt lat="44.7941667" lon="8.8335733"><ele>173.5</ele><time>2026-05-01T09:11:34.1Z</time></trkpt><trkpt lat="44.7944267" lon="8.8335283"><ele>173.0</ele><time>2026-05-01T09:11:35.101Z</time></trkpt><trkpt lat="44.7946833" lon="8.8334833"><ele>173.0</ele><time>2026-05-01T09:11:36.1Z</time></trkpt><trkpt lat="44.794945" lon="8.8334333"><ele>173.0</ele><time>2026-05-01T09:11:37.1Z</time></trkpt><trkpt lat="44.7951967" lon="8.8333883"><ele>172.5</ele><time>2026-05-01T09:11:38.1Z</time></trkpt><trkpt lat="44.7954483" lon="8.8333483"><ele>172.0</ele><time>2026-05-01T09:11:39.1Z</time></trkpt><trkpt lat="44.7956983" lon="8.833305"><ele>172.0</ele><time>2026-05-01T09:11:40.1Z</time></trkpt><trkpt lat="44.7959533" lon="8.8332583"><ele>172.0</ele><time>2026-05-01T09:11:41.101Z</time></trkpt><trkpt lat="44.796205" lon="8.8332167"><ele>171.0</ele><time>2026-05-01T09:11:42.101Z</time></trkpt><trkpt lat="44.7964567" lon="8.833175"><ele>170.0</ele><time>2026-05-01T09:11:43.1Z</time></trkpt><trkpt lat="44.7967083" lon="8.8331317"><ele>171.0</ele><time>2026-05-01T09:11:44.101Z</time></trkpt><trkpt lat="44.7969583" lon="8.83309"><ele>172.0</ele><time>2026-05-01T09:11:45.101Z</time></trkpt><trkpt lat="44.797215" lon="8.8330383"><ele>172.0</ele><time>2026-05-01T09:11:46.1Z</time></trkpt><trkpt lat="44.7974733" lon="8.8329883"><ele>172.0</ele><time>2026-05-01T09:11:47.101Z</time></trkpt><trkpt lat="44.797995" lon="8.8328917"><ele>171.5</ele><time>2026-05-01T09:11:49.101Z</time></trkpt><trkpt lat="44.7982533" lon="8.8328483"><ele>171.0</ele><time>2026-05-01T09:11:50.1Z</time></trkpt><trkpt lat="44.798505" lon="8.832805"><ele>170.5</ele><time>2026-05-01T09:11:51.101Z</time></trkpt><trkpt lat="44.7987633" lon="8.8327567"><ele>170.0</ele><time>2026-05-01T09:11:52.1Z</time></trkpt><trkpt lat="44.79902" lon="8.832715"><ele>170.0</ele><time>2026-05-01T09:11:53.101Z</time></trkpt><trkpt lat="44.7992767" lon="8.8326667"><ele>170.0</ele><time>2026-05-01T09:11:54.101Z</time></trkpt><trkpt lat="44.7995317" lon="8.8326117"><ele>169.0</ele><time>2026-05-01T09:11:55.1Z</time></trkpt><trkpt lat="44.7997867" lon="8.832555"><ele>168.0</ele><time>2026-05-01T09:11:56.101Z</time></trkpt><trkpt lat="44.800045" lon="8.83249"><ele>169.0</ele><time>2026-05-01T09:11:57.1Z</time></trkpt><trkpt lat="44.800305" lon="8.8324167"><ele>170.0</ele><time>2026-05-01T09:11:58.101Z</time></trkpt><trkpt lat="44.8005683" lon="8.8323433"><ele>170.0</ele><time>2026-05-01T09:11:59.1Z</time></trkpt><trkpt lat="44.80083" lon="8.8322733"><ele>170.0</ele><time>2026-05-01T09:12:00.1Z</time></trkpt><trkpt lat="44.8010833" lon="8.8322"><ele>169.0</ele><time>2026-05-01T09:12:01.1Z</time></trkpt><trkpt lat="44.80134" lon="8.832135"><ele>168.0</ele><time>2026-05-01T09:12:02.1Z</time></trkpt><trkpt lat="44.8015967" lon="8.832065"><ele>167.5</ele><time>2026-05-01T09:12:03.1Z</time></trkpt><trkpt lat="44.8018567" lon="8.831985"><ele>167.0</ele><time>2026-05-01T09:12:04.1Z</time></trkpt><trkpt lat="44.8021183" lon="8.8319067"><ele>167.0</ele><time>2026-05-01T09:12:05.101Z</time></trkpt><trkpt lat="44.802375" lon="8.8318233"><ele>167.0</ele><time>2026-05-01T09:12:06.1Z</time></trkpt><trkpt lat="44.80263" lon="8.83174"><ele>168.0</ele><time>2026-05-01T09:12:07.101Z</time></trkpt><trkpt lat="44.8028767" lon="8.831655"><ele>169.0</ele><time>2026-05-01T09:12:08.101Z</time></trkpt><trkpt lat="44.8033883" lon="8.8314833"><ele>168.0</ele><time>2026-05-01T09:12:10.1Z</time></trkpt><trkpt lat="44.8036433" lon="8.8313983"><ele>167.0</ele><time>2026-05-01T09:12:11.1Z</time></trkpt><trkpt lat="44.803895" lon="8.8313117"><ele>167.0</ele><time>2026-05-01T09:12:12.101Z</time></trkpt><trkpt lat="44.8041533" lon="8.8312317"><ele>167.0</ele><time>2026-05-01T09:12:13.1Z</time></trkpt><trkpt lat="44.804415" lon="8.8311517"><ele>167.0</ele><time>2026-05-01T09:12:14.1Z</time></trkpt><trkpt lat="44.8046783" lon="8.831065"><ele>167.0</ele><time>2026-05-01T09:12:15.1Z</time></trkpt><trkpt lat="44.8049467" lon="8.8309717"><ele>166.0</ele><time>2026-05-01T09:12:16.1Z</time></trkpt><trkpt lat="44.8052167" lon="8.8308783"><ele>165.0</ele><time>2026-05-01T09:12:17.1Z</time></trkpt><trkpt lat="44.80549" lon="8.8307867"><ele>165.0</ele><time>2026-05-01T09:12:18.101Z</time></trkpt><trkpt lat="44.8057617" lon="8.8306967"><ele>165.0</ele><time>2026-05-01T09:12:19.101Z</time></trkpt><trkpt lat="44.806035" lon="8.83061"><ele>165.0</ele><time>2026-05-01T09:12:20.1Z</time></trkpt><trkpt lat="44.80631" lon="8.830525"><ele>165.0</ele><time>2026-05-01T09:12:21.1Z</time></trkpt><trkpt lat="44.8065767" lon="8.8304517"><ele>165.0</ele><time>2026-05-01T09:12:22.101Z</time></trkpt><trkpt lat="44.806845" lon="8.8303767"><ele>165.0</ele><time>2026-05-01T09:12:23.1Z</time></trkpt><trkpt lat="44.8071083" lon="8.830315"><ele>165.0</ele><time>2026-05-01T09:12:24.101Z</time></trkpt><trkpt lat="44.8073733" lon="8.8302517"><ele>165.0</ele><time>2026-05-01T09:12:25.1Z</time></trkpt><trkpt lat="44.807645" lon="8.8301917"><ele>164.0</ele><time>2026-05-01T09:12:26.101Z</time></trkpt><trkpt lat="44.807915" lon="8.830135"><ele>163.0</ele><time>2026-05-01T09:12:27.1Z</time></trkpt><trkpt lat="44.808185" lon="8.8300817"><ele>163.0</ele><time>2026-05-01T09:12:28.1Z</time></trkpt><trkpt lat="44.8084533" lon="8.830035"><ele>163.0</ele><time>2026-05-01T09:12:29.099Z</time></trkpt><trkpt lat="44.8089983" lon="8.82996"><ele>162.5</ele><time>2026-05-01T09:12:31.1Z</time></trkpt><trkpt lat="44.80927" lon="8.82992"><ele>162.0</ele><time>2026-05-01T09:12:32.099Z</time></trkpt><trkpt lat="44.8095433" lon="8.8298883"><ele>162.0</ele><time>2026-05-01T09:12:33.1Z</time></trkpt><trkpt lat="44.809815" lon="8.8298583"><ele>162.0</ele><time>2026-05-01T09:12:34.099Z</time></trkpt><trkpt lat="44.8100867" lon="8.8298283"><ele>162.0</ele><time>2026-05-01T09:12:35.1Z</time></trkpt><trkpt lat="44.8103633" lon="8.8298033"><ele>162.0</ele><time>2026-05-01T09:12:36.099Z</time></trkpt><trkpt lat="44.8106367" lon="8.8297767"><ele>162.0</ele><time>2026-05-01T09:12:37.1Z</time></trkpt><trkpt lat="44.81091" lon="8.82975"><ele>162.0</ele><time>2026-05-01T09:12:38.1Z</time></trkpt><trkpt lat="44.8111833" lon="8.82973"><ele>162.0</ele><time>2026-05-01T09:12:39.099Z</time></trkpt><trkpt lat="44.8114583" lon="8.8297117"><ele>162.0</ele><time>2026-05-01T09:12:40.099Z</time></trkpt><trkpt lat="44.8117333" lon="8.82968"><ele>161.5</ele><time>2026-05-01T09:12:41.1Z</time></trkpt><trkpt lat="44.8120083" lon="8.82966"><ele>161.0</ele><time>2026-05-01T09:12:42.099Z</time></trkpt><trkpt lat="44.812285" lon="8.8296367"><ele>161.0</ele><time>2026-05-01T09:12:43.099Z</time></trkpt><trkpt lat="44.8125567" lon="8.8296117"><ele>161.0</ele><time>2026-05-01T09:12:44.099Z</time></trkpt><trkpt lat="44.812825" lon="8.8295917"><ele>161.0</ele><time>2026-05-01T09:12:45.099Z</time></trkpt><trkpt lat="44.8131" lon="8.8295683"><ele>161.0</ele><time>2026-05-01T09:12:46.1Z</time></trkpt><trkpt lat="44.81337" lon="8.8295417"><ele>161.0</ele><time>2026-05-01T09:12:47.099Z</time></trkpt><trkpt lat="44.8136417" lon="8.829515"><ele>161.0</ele><time>2026-05-01T09:12:48.099Z</time></trkpt><trkpt lat="44.8139133" lon="8.8294917"><ele>161.0</ele><time>2026-05-01T09:12:49.1Z</time></trkpt><trkpt lat="44.81418" lon="8.8294617"><ele>161.0</ele><time>2026-05-01T09:12:50.099Z</time></trkpt><trkpt lat="44.8147183" lon="8.82941"><ele>160.0</ele><time>2026-05-01T09:12:52.099Z</time></trkpt><trkpt lat="44.8149883" lon="8.829385"><ele>159.0</ele><time>2026-05-01T09:12:53.099Z</time></trkpt><trkpt lat="44.8152583" lon="8.8293633"><ele>159.0</ele><time>2026-05-01T09:12:54.099Z</time></trkpt><trkpt lat="44.8155317" lon="8.8293383"><ele>159.0</ele><time>2026-05-01T09:12:55.099Z</time></trkpt><trkpt lat="44.815805" lon="8.829305"><ele>159.0</ele><time>2026-05-01T09:12:56.1Z</time></trkpt><trkpt lat="44.8160667" lon="8.8292767"><ele>159.0</ele><time>2026-05-01T09:12:57.099Z</time></trkpt><trkpt lat="44.8163233" lon="8.82924"><ele>159.0</ele><time>2026-05-01T09:12:58.1Z</time></trkpt><trkpt lat="44.81658" lon="8.8292167"><ele>159.0</ele><time>2026-05-01T09:12:59.099Z</time></trkpt><trkpt lat="44.816845" lon="8.829185"><ele>158.5</ele><time>2026-05-01T09:13:00.099Z</time></trkpt><trkpt lat="44.817115" lon="8.8291483"><ele>158.0</ele><time>2026-05-01T09:13:01.099Z</time></trkpt><trkpt lat="44.8173917" lon="8.8291133"><ele>157.0</ele><time>2026-05-01T09:13:02.1Z</time></trkpt><trkpt lat="44.8176717" lon="8.8290817"><ele>156.0</ele><time>2026-05-01T09:13:03.1Z</time></trkpt><trkpt lat="44.8179467" lon="8.82906"><ele>156.0</ele><time>2026-05-01T09:13:04.1Z</time></trkpt><trkpt lat="44.818225" lon="8.8290433"><ele>156.0</ele><time>2026-05-01T09:13:05.1Z</time></trkpt><trkpt lat="44.818505" lon="8.8290333"><ele>156.5</ele><time>2026-05-01T09:13:06.099Z</time></trkpt><trkpt lat="44.818785" lon="8.82902"><ele>157.0</ele><time>2026-05-01T09:13:07.1Z</time></trkpt><trkpt lat="44.8190667" lon="8.829"><ele>155.5</ele><time>2026-05-01T09:13:08.1Z</time></trkpt><trkpt lat="44.8193483" lon="8.8289783"><ele>154.0</ele><time>2026-05-01T09:13:09.1Z</time></trkpt><trkpt lat="44.8196267" lon="8.8289517"><ele>154.0</ele><time>2026-05-01T09:13:10.1Z</time></trkpt><trkpt lat="44.8199017" lon="8.8289217"><ele>154.0</ele><time>2026-05-01T09:13:11.099Z</time></trkpt><trkpt lat="44.820465" lon="8.8288717"><ele>154.0</ele><time>2026-05-01T09:13:13.099Z</time></trkpt><trkpt lat="44.8207433" lon="8.8288433"><ele>154.0</ele><time>2026-05-01T09:13:14.1Z</time></trkpt><trkpt lat="44.8210167" lon="8.8288183"><ele>153.5</ele><time>2026-05-01T09:13:15.1Z</time></trkpt><trkpt lat="44.82129" lon="8.8287983"><ele>153.0</ele><time>2026-05-01T09:13:16.099Z</time></trkpt><trkpt lat="44.8215567" lon="8.828775"><ele>154.0</ele><time>2026-05-01T09:13:17.1Z</time></trkpt><trkpt lat="44.8218183" lon="8.8287433"><ele>155.0</ele><time>2026-05-01T09:13:18.099Z</time></trkpt><trkpt lat="44.8220817" lon="8.8287183"><ele>155.0</ele><time>2026-05-01T09:13:19.099Z</time></trkpt><trkpt lat="44.8223417" lon="8.8286883"><ele>155.0</ele><time>2026-05-01T09:13:20.099Z</time></trkpt><trkpt lat="44.8226017" lon="8.8286583"><ele>154.0</ele><time>2026-05-01T09:13:21.099Z</time></trkpt><trkpt lat="44.8228617" lon="8.8286333"><ele>153.0</ele><time>2026-05-01T09:13:22.099Z</time></trkpt><trkpt lat="44.82312" lon="8.82861"><ele>153.0</ele><time>2026-05-01T09:13:23.1Z</time></trkpt><trkpt lat="44.8233767" lon="8.8285867"><ele>153.0</ele><time>2026-05-01T09:13:24.099Z</time></trkpt><trkpt lat="44.8236367" lon="8.82857"><ele>152.5</ele><time>2026-05-01T09:13:25.099Z</time></trkpt><trkpt lat="44.823895" lon="8.8285533"><ele>152.0</ele><time>2026-05-01T09:13:26.1Z</time></trkpt><trkpt lat="44.824155" lon="8.8285283"><ele>152.5</ele><time>2026-05-01T09:13:27.1Z</time></trkpt><trkpt lat="44.824415" lon="8.8285083"><ele>153.0</ele><time>2026-05-01T09:13:28.099Z</time></trkpt><trkpt lat="44.82468" lon="8.828485"><ele>152.0</ele><time>2026-05-01T09:13:29.099Z</time></trkpt><trkpt lat="44.8249517" lon="8.8284567"><ele>151.0</ele><time>2026-05-01T09:13:30.1Z</time></trkpt><trkpt lat="44.82522" lon="8.8284317"><ele>150.0</ele><time>2026-05-01T09:13:31.1Z</time></trkpt><trkpt lat="44.8257667" lon="8.82838"><ele>150.5</ele><time>2026-05-01T09:13:33.1Z</time></trkpt><trkpt lat="44.82604" lon="8.828355"><ele>151.0</ele><time>2026-05-01T09:13:34.1Z</time></trkpt><trkpt lat="44.8263133" lon="8.82833"><ele>151.0</ele><time>2026-05-01T09:13:35.1Z</time></trkpt><trkpt lat="44.8265833" lon="8.82831"><ele>151.0</ele><time>2026-05-01T09:13:36.099Z</time></trkpt><trkpt lat="44.82685" lon="8.828295"><ele>149.5</ele><time>2026-05-01T09:13:37.099Z</time></trkpt><trkpt lat="44.8271133" lon="8.8282733"><ele>148.0</ele><time>2026-05-01T09:13:38.1Z</time></trkpt><trkpt lat="44.8273733" lon="8.82827"><ele>148.0</ele><time>2026-05-01T09:13:39.1Z</time></trkpt><trkpt lat="44.827635" lon="8.8282683"><ele>148.0</ele><time>2026-05-01T09:13:40.099Z</time></trkpt><trkpt lat="44.8279" lon="8.8282733"><ele>147.0</ele><time>2026-05-01T09:13:41.099Z</time></trkpt><trkpt lat="44.8281633" lon="8.828275"><ele>146.0</ele><time>2026-05-01T09:13:42.099Z</time></trkpt><trkpt lat="44.8284283" lon="8.8282783"><ele>145.0</ele><time>2026-05-01T09:13:43.1Z</time></trkpt><trkpt lat="44.8286917" lon="8.828285"><ele>144.0</ele><time>2026-05-01T09:13:44.099Z</time></trkpt><trkpt lat="44.8289533" lon="8.8282983"><ele>144.0</ele><time>2026-05-01T09:13:45.1Z</time></trkpt><trkpt lat="44.8292183" lon="8.8283133"><ele>144.0</ele><time>2026-05-01T09:13:46.1Z</time></trkpt><trkpt lat="44.8294833" lon="8.8283283"><ele>144.5</ele><time>2026-05-01T09:13:47.1Z</time></trkpt><trkpt lat="44.8297433" lon="8.8283417"><ele>145.0</ele><time>2026-05-01T09:13:48.1Z</time></trkpt><trkpt lat="44.830005" lon="8.8283533"><ele>144.5</ele><time>2026-05-01T09:13:49.1Z</time></trkpt><trkpt lat="44.8302683" lon="8.8283667"><ele>144.0</ele><time>2026-05-01T09:13:50.1Z</time></trkpt><trkpt lat="44.8305267" lon="8.8283867"><ele>144.0</ele><time>2026-05-01T09:13:51.099Z</time></trkpt><trkpt lat="44.83078" lon="8.828405"><ele>144.0</ele><time>2026-05-01T09:13:52.1Z</time></trkpt><trkpt lat="44.8312933" lon="8.82844"><ele>145.0</ele><time>2026-05-01T09:13:54.099Z</time></trkpt><trkpt lat="44.8315533" lon="8.8284483"><ele>146.0</ele><time>2026-05-01T09:13:55.099Z</time></trkpt><trkpt lat="44.8318233" lon="8.82845"><ele>146.0</ele><time>2026-05-01T09:13:56.1Z</time></trkpt><trkpt lat="44.832085" lon="8.8284633"><ele>146.0</ele><time>2026-05-01T09:13:57.099Z</time></trkpt><trkpt lat="44.8323483" lon="8.82848"><ele>146.0</ele><time>2026-05-01T09:13:58.1Z</time></trkpt><trkpt lat="44.8326067" lon="8.8284983"><ele>146.0</ele><time>2026-05-01T09:13:59.099Z</time></trkpt><trkpt lat="44.832875" lon="8.828515"><ele>146.0</ele><time>2026-05-01T09:14:00.1Z</time></trkpt><trkpt lat="44.83314" lon="8.828535"><ele>146.0</ele><time>2026-05-01T09:14:01.099Z</time></trkpt><trkpt lat="44.8333967" lon="8.8285533"><ele>145.5</ele><time>2026-05-01T09:14:02.099Z</time></trkpt><trkpt lat="44.833665" lon="8.8285683"><ele>145.0</ele><time>2026-05-01T09:14:03.099Z</time></trkpt><trkpt lat="44.8339267" lon="8.8285867"><ele>145.0</ele><time>2026-05-01T09:14:04.099Z</time></trkpt><trkpt lat="44.8341867" lon="8.8286017"><ele>145.0</ele><time>2026-05-01T09:14:05.099Z</time></trkpt><trkpt lat="44.8344467" lon="8.8286067"><ele>143.0</ele><time>2026-05-01T09:14:06.1Z</time></trkpt><trkpt lat="44.834705" lon="8.8286183"><ele>141.0</ele><time>2026-05-01T09:14:07.1Z</time></trkpt><trkpt lat="44.8349583" lon="8.8286267"><ele>141.5</ele><time>2026-05-01T09:14:08.1Z</time></trkpt><trkpt lat="44.8352133" lon="8.8286367"><ele>142.0</ele><time>2026-05-01T09:14:09.1Z</time></trkpt><trkpt lat="44.8354683" lon="8.8286533"><ele>142.0</ele><time>2026-05-01T09:14:10.099Z</time></trkpt><trkpt lat="44.8357233" lon="8.8286667"><ele>142.0</ele><time>2026-05-01T09:14:11.1Z</time></trkpt><trkpt lat="44.8359817" lon="8.8286883"><ele>142.0</ele><time>2026-05-01T09:14:12.1Z</time></trkpt><trkpt lat="44.83624" lon="8.8287117"><ele>142.0</ele><time>2026-05-01T09:14:13.099Z</time></trkpt><trkpt lat="44.8367683" lon="8.8287317"><ele>141.5</ele><time>2026-05-01T09:14:15.1Z</time></trkpt><trkpt lat="44.8370367" lon="8.8287483"><ele>141.0</ele><time>2026-05-01T09:14:16.1Z</time></trkpt><trkpt lat="44.8373033" lon="8.82876"><ele>141.0</ele><time>2026-05-01T09:14:17.1Z</time></trkpt><trkpt lat="44.8375717" lon="8.8287767"><ele>141.0</ele><time>2026-05-01T09:14:18.099Z</time></trkpt><trkpt lat="44.8378367" lon="8.8287833"><ele>142.0</ele><time>2026-05-01T09:14:19.099Z</time></trkpt><trkpt lat="44.8380933" lon="8.8288017"><ele>143.0</ele><time>2026-05-01T09:14:20.099Z</time></trkpt><trkpt lat="44.8383517" lon="8.8288067"><ele>141.5</ele><time>2026-05-01T09:14:21.099Z</time></trkpt><trkpt lat="44.83861" lon="8.8288167"><ele>140.0</ele><time>2026-05-01T09:14:22.1Z</time></trkpt><trkpt lat="44.8388733" lon="8.82883"><ele>140.0</ele><time>2026-05-01T09:14:23.099Z</time></trkpt><trkpt lat="44.8391367" lon="8.828845"><ele>140.0</ele><time>2026-05-01T09:14:24.1Z</time></trkpt><trkpt lat="44.8394" lon="8.8288617"><ele>139.5</ele><time>2026-05-01T09:14:25.1Z</time></trkpt><trkpt lat="44.83967" lon="8.828875"><ele>139.0</ele><time>2026-05-01T09:14:26.099Z</time></trkpt><trkpt lat="44.8399333" lon="8.8288933"><ele>139.5</ele><time>2026-05-01T09:14:27.1Z</time></trkpt><trkpt lat="44.8401917" lon="8.82891"><ele>140.0</ele><time>2026-05-01T09:14:28.1Z</time></trkpt><trkpt lat="44.84045" lon="8.8289283"><ele>140.0</ele><time>2026-05-01T09:14:29.1Z</time></trkpt><trkpt lat="44.840715" lon="8.8289367"><ele>140.0</ele><time>2026-05-01T09:14:30.1Z</time></trkpt><trkpt lat="44.8409867" lon="8.82895"><ele>140.0</ele><time>2026-05-01T09:14:31.099Z</time></trkpt><trkpt lat="44.8412617" lon="8.8289683"><ele>140.0</ele><time>2026-05-01T09:14:32.1Z</time></trkpt><trkpt lat="44.8415233" lon="8.8289883"><ele>140.0</ele><time>2026-05-01T09:14:33.099Z</time></trkpt><trkpt lat="44.841775" lon="8.8290033"><ele>140.0</ele><time>2026-05-01T09:14:34.099Z</time></trkpt><trkpt lat="44.8422617" lon="8.8290383"><ele>139.5</ele><time>2026-05-01T09:14:36.1Z</time></trkpt><trkpt lat="44.8425117" lon="8.8290517"><ele>139.0</ele><time>2026-05-01T09:14:37.1Z</time></trkpt><trkpt lat="44.8427717" lon="8.8290667"><ele>138.5</ele><time>2026-05-01T09:14:38.099Z</time></trkpt><trkpt lat="44.843035" lon="8.829075"><ele>138.0</ele><time>2026-05-01T09:14:39.1Z</time></trkpt><trkpt lat="44.843305" lon="8.829085"><ele>138.0</ele><time>2026-05-01T09:14:40.1Z</time></trkpt><trkpt lat="44.8435817" lon="8.829105"><ele>138.0</ele><time>2026-05-01T09:14:41.099Z</time></trkpt><trkpt lat="44.8438633" lon="8.8291233"><ele>138.0</ele><time>2026-05-01T09:14:42.099Z</time></trkpt><trkpt lat="44.8441383" lon="8.8291433"><ele>138.0</ele><time>2026-05-01T09:14:43.099Z</time></trkpt><trkpt lat="44.8444117" lon="8.829175"><ele>138.0</ele><time>2026-05-01T09:14:44.099Z</time></trkpt><trkpt lat="44.844685" lon="8.8292033"><ele>138.0</ele><time>2026-05-01T09:14:45.099Z</time></trkpt><trkpt lat="44.8449567" lon="8.8292233"><ele>138.0</ele><time>2026-05-01T09:14:46.1Z</time></trkpt><trkpt lat="44.8452233" lon="8.8292383"><ele>138.0</ele><time>2026-05-01T09:14:47.099Z</time></trkpt><trkpt lat="44.8454833" lon="8.8292483"><ele>138.0</ele><time>2026-05-01T09:14:48.1Z</time></trkpt><trkpt lat="44.8457433" lon="8.82926"><ele>138.0</ele><time>2026-05-01T09:14:49.1Z</time></trkpt><trkpt lat="44.8460083" lon="8.8292683"><ele>137.0</ele><time>2026-05-01T09:14:50.099Z</time></trkpt><trkpt lat="44.8462683" lon="8.8292833"><ele>136.0</ele><time>2026-05-01T09:14:51.099Z</time></trkpt><trkpt lat="44.8465367" lon="8.8293067"><ele>136.0</ele><time>2026-05-01T09:14:52.099Z</time></trkpt><trkpt lat="44.8468067" lon="8.8293233"><ele>136.0</ele><time>2026-05-01T09:14:53.099Z</time></trkpt><trkpt lat="44.847075" lon="8.8293333"><ele>136.0</ele><time>2026-05-01T09:14:54.099Z</time></trkpt><trkpt lat="44.84734" lon="8.8293467"><ele>136.0</ele><time>2026-05-01T09:14:55.1Z</time></trkpt><trkpt lat="44.8478817" lon="8.82937"><ele>136.0</ele><time>2026-05-01T09:14:57.1Z</time></trkpt><trkpt lat="44.84815" lon="8.8293883"><ele>136.0</ele><time>2026-05-01T09:14:58.099Z</time></trkpt><trkpt lat="44.8484167" lon="8.8294033"><ele>135.5</ele><time>2026-05-01T09:14:59.1Z</time></trkpt><trkpt lat="44.848685" lon="8.8294233"><ele>135.0</ele><time>2026-05-01T09:15:00.099Z</time></trkpt><trkpt lat="44.8489517" lon="8.8294417"><ele>135.0</ele><time>2026-05-01T09:15:01.1Z</time></trkpt><trkpt lat="44.84922" lon="8.829455"><ele>135.0</ele><time>2026-05-01T09:15:02.099Z</time></trkpt><trkpt lat="44.8494933" lon="8.8294767"><ele>135.0</ele><time>2026-05-01T09:15:03.1Z</time></trkpt><trkpt lat="44.849765" lon="8.8294933"><ele>135.0</ele><time>2026-05-01T09:15:04.099Z</time></trkpt><trkpt lat="44.8500333" lon="8.8295017"><ele>135.5</ele><time>2026-05-01T09:15:05.099Z</time></trkpt><trkpt lat="44.8503" lon="8.8295167"><ele>136.0</ele><time>2026-05-01T09:15:06.099Z</time></trkpt><trkpt lat="44.85057" lon="8.829525"><ele>136.0</ele><time>2026-05-01T09:15:07.1Z</time></trkpt><trkpt lat="44.8508367" lon="8.829535"><ele>136.0</ele><time>2026-05-01T09:15:08.1Z</time></trkpt><trkpt lat="44.8511033" lon="8.8295483"><ele>135.0</ele><time>2026-05-01T09:15:09.1Z</time></trkpt><trkpt lat="44.85137" lon="8.82956"><ele>134.0</ele><time>2026-05-01T09:15:10.1Z</time></trkpt><trkpt lat="44.8516367" lon="8.8295717"><ele>134.0</ele><time>2026-05-01T09:15:11.099Z</time></trkpt><trkpt lat="44.8519017" lon="8.8295917"><ele>134.0</ele><time>2026-05-01T09:15:12.1Z</time></trkpt><trkpt lat="44.85217" lon="8.82961"><ele>134.0</ele><time>2026-05-01T09:15:13.1Z</time></trkpt><trkpt lat="44.8524317" lon="8.8296317"><ele>134.0</ele><time>2026-05-01T09:15:14.1Z</time></trkpt><trkpt lat="44.8527" lon="8.8296433"><ele>134.0</ele><time>2026-05-01T09:15:15.099Z</time></trkpt><trkpt lat="44.8529633" lon="8.8296583"><ele>134.0</ele><time>2026-05-01T09:15:16.1Z</time></trkpt><trkpt lat="44.8534967" lon="8.8296833"><ele>134.0</ele><time>2026-05-01T09:15:18.099Z</time></trkpt><trkpt lat="44.8537667" lon="8.8297017"><ele>134.0</ele><time>2026-05-01T09:15:19.099Z</time></trkpt><trkpt lat="44.8540333" lon="8.829715"><ele>133.0</ele><time>2026-05-01T09:15:20.1Z</time></trkpt><trkpt lat="44.8543067" lon="8.8297283"><ele>132.0</ele><time>2026-05-01T09:15:21.1Z</time></trkpt><trkpt lat="44.8545833" lon="8.8297467"><ele>132.0</ele><time>2026-05-01T09:15:22.1Z</time></trkpt><trkpt lat="44.8548633" lon="8.82976"><ele>132.0</ele><time>2026-05-01T09:15:23.099Z</time></trkpt><trkpt lat="44.8551433" lon="8.8297767"><ele>131.5</ele><time>2026-05-01T09:15:24.1Z</time></trkpt><trkpt lat="44.85542" lon="8.829795"><ele>131.0</ele><time>2026-05-01T09:15:25.099Z</time></trkpt><trkpt lat="44.8556967" lon="8.82981"><ele>130.0</ele><time>2026-05-01T09:15:26.1Z</time></trkpt><trkpt lat="44.8559733" lon="8.829825"><ele>129.0</ele><time>2026-05-01T09:15:27.099Z</time></trkpt><trkpt lat="44.8562533" lon="8.8298433"><ele>129.0</ele><time>2026-05-01T09:15:28.099Z</time></trkpt><trkpt lat="44.85653" lon="8.8298567"><ele>129.0</ele><time>2026-05-01T09:15:29.099Z</time></trkpt><trkpt lat="44.8568117" lon="8.829865"><ele>129.5</ele><time>2026-05-01T09:15:30.099Z</time></trkpt><trkpt lat="44.85709" lon="8.8298767"><ele>130.0</ele><time>2026-05-01T09:15:31.1Z</time></trkpt><trkpt lat="44.8573683" lon="8.8298883"><ele>129.5</ele><time>2026-05-01T09:15:32.099Z</time></trkpt><trkpt lat="44.8576483" lon="8.8299017"><ele>129.0</ele><time>2026-05-01T09:15:33.1Z</time></trkpt><trkpt lat="44.8579283" lon="8.82992"><ele>129.0</ele><time>2026-05-01T09:15:34.099Z</time></trkpt><trkpt lat="44.8582083" lon="8.8299383"><ele>129.0</ele><time>2026-05-01T09:15:35.099Z</time></trkpt><trkpt lat="44.8584883" lon="8.8299517"><ele>129.0</ele><time>2026-05-01T09:15:36.1Z</time></trkpt><trkpt lat="44.85877" lon="8.8299633"><ele>129.0</ele><time>2026-05-01T09:15:37.1Z</time></trkpt><trkpt lat="44.859325" lon="8.83"><ele>129.0</ele><time>2026-05-01T09:15:39.099Z</time></trkpt><trkpt lat="44.8596033" lon="8.830015"><ele>129.0</ele><time>2026-05-01T09:15:40.099Z</time></trkpt><trkpt lat="44.8598817" lon="8.8300333"><ele>129.0</ele><time>2026-05-01T09:15:41.1Z</time></trkpt><trkpt lat="44.8601567" lon="8.8300533"><ele>129.0</ele><time>2026-05-01T09:15:42.099Z</time></trkpt><trkpt lat="44.8604317" lon="8.8300683"><ele>129.0</ele><time>2026-05-01T09:15:43.1Z</time></trkpt><trkpt lat="44.8606983" lon="8.8300833"><ele>129.0</ele><time>2026-05-01T09:15:44.099Z</time></trkpt><trkpt lat="44.8609667" lon="8.830095"><ele>128.0</ele><time>2026-05-01T09:15:45.099Z</time></trkpt><trkpt lat="44.8612283" lon="8.8301033"><ele>127.0</ele><time>2026-05-01T09:15:46.1Z</time></trkpt><trkpt lat="44.861495" lon="8.8301167"><ele>127.0</ele><time>2026-05-01T09:15:47.099Z</time></trkpt><trkpt lat="44.8617667" lon="8.8301333"><ele>127.0</ele><time>2026-05-01T09:15:48.1Z</time></trkpt><trkpt lat="44.8620367" lon="8.8301467"><ele>128.5</ele><time>2026-05-01T09:15:49.099Z</time></trkpt><trkpt lat="44.8623083" lon="8.8301633"><ele>130.0</ele><time>2026-05-01T09:15:50.1Z</time></trkpt><trkpt lat="44.8625817" lon="8.83018"><ele>130.5</ele><time>2026-05-01T09:15:51.099Z</time></trkpt><trkpt lat="44.86285" lon="8.830195"><ele>131.0</ele><time>2026-05-01T09:15:52.1Z</time></trkpt><trkpt lat="44.8631167" lon="8.8302017"><ele>131.0</ele><time>2026-05-01T09:15:53.099Z</time></trkpt><trkpt lat="44.86338" lon="8.830225"><ele>131.0</ele><time>2026-05-01T09:15:54.099Z</time></trkpt><trkpt lat="44.8636533" lon="8.8302433"><ele>129.5</ele><time>2026-05-01T09:15:55.1Z</time></trkpt><trkpt lat="44.863925" lon="8.8302617"><ele>128.0</ele><time>2026-05-01T09:15:56.099Z</time></trkpt><trkpt lat="44.8641933" lon="8.830275"><ele>127.0</ele><time>2026-05-01T09:15:57.1Z</time></trkpt><trkpt lat="44.8647333" lon="8.8303283"><ele>127.0</ele><time>2026-05-01T09:15:59.099Z</time></trkpt><trkpt lat="44.8650033" lon="8.83036"><ele>127.0</ele><time>2026-05-01T09:16:00.099Z</time></trkpt><trkpt lat="44.8652733" lon="8.8303967"><ele>127.0</ele><time>2026-05-01T09:16:01.1Z</time></trkpt><trkpt lat="44.8655417" lon="8.8304417"><ele>127.0</ele><time>2026-05-01T09:16:02.099Z</time></trkpt><trkpt lat="44.8658067" lon="8.8304917"><ele>126.0</ele><time>2026-05-01T09:16:03.1Z</time></trkpt><trkpt lat="44.8660733" lon="8.8305533"><ele>125.0</ele><time>2026-05-01T09:16:04.1Z</time></trkpt><trkpt lat="44.866345" lon="8.8306167"><ele>125.0</ele><time>2026-05-01T09:16:05.099Z</time></trkpt><trkpt lat="44.8666133" lon="8.8306933"><ele>125.0</ele><time>2026-05-01T09:16:06.099Z</time></trkpt><trkpt lat="44.866875" lon="8.8307633"><ele>124.5</ele><time>2026-05-01T09:16:07.1Z</time></trkpt><trkpt lat="44.86714" lon="8.8308383"><ele>124.0</ele><time>2026-05-01T09:16:08.1Z</time></trkpt><trkpt lat="44.86741" lon="8.8309283"><ele>125.0</ele><time>2026-05-01T09:16:09.099Z</time></trkpt><trkpt lat="44.8676733" lon="8.8310267"><ele>126.0</ele><time>2026-05-01T09:16:10.1Z</time></trkpt><trkpt lat="44.8679433" lon="8.8311267"><ele>126.0</ele><time>2026-05-01T09:16:11.1Z</time></trkpt><trkpt lat="44.8682133" lon="8.8312333"><ele>126.0</ele><time>2026-05-01T09:16:12.099Z</time></trkpt><trkpt lat="44.86848" lon="8.8313433"><ele>126.0</ele><time>2026-05-01T09:16:13.099Z</time></trkpt><trkpt lat="44.8687483" lon="8.8314533"><ele>126.0</ele><time>2026-05-01T09:16:14.099Z</time></trkpt><trkpt lat="44.8690167" lon="8.8315667"><ele>125.0</ele><time>2026-05-01T09:16:15.099Z</time></trkpt><trkpt lat="44.8692817" lon="8.8316817"><ele>124.0</ele><time>2026-05-01T09:16:16.1Z</time></trkpt><trkpt lat="44.8695467" lon="8.8317967"><ele>124.0</ele><time>2026-05-01T09:16:17.1Z</time></trkpt><trkpt lat="44.86981" lon="8.8319117"><ele>124.0</ele><time>2026-05-01T09:16:18.1Z</time></trkpt><trkpt lat="44.8703383" lon="8.8321517"><ele>123.5</ele><time>2026-05-01T09:16:20.1Z</time></trkpt><trkpt lat="44.8706033" lon="8.832265"><ele>123.0</ele><time>2026-05-01T09:16:21.099Z</time></trkpt><trkpt lat="44.870865" lon="8.83238"><ele>123.0</ele><time>2026-05-01T09:16:22.099Z</time></trkpt><trkpt lat="44.871125" lon="8.8324917"><ele>123.0</ele><time>2026-05-01T09:16:23.099Z</time></trkpt><trkpt lat="44.8713833" lon="8.8326067"><ele>123.0</ele><time>2026-05-01T09:16:24.099Z</time></trkpt><trkpt lat="44.8716467" lon="8.8327233"><ele>123.0</ele><time>2026-05-01T09:16:25.099Z</time></trkpt><trkpt lat="44.8719067" lon="8.8328367"><ele>123.5</ele><time>2026-05-01T09:16:26.099Z</time></trkpt><trkpt lat="44.872165" lon="8.8329517"><ele>124.0</ele><time>2026-05-01T09:16:27.1Z</time></trkpt><trkpt lat="44.87242" lon="8.8330667"><ele>124.0</ele><time>2026-05-01T09:16:28.1Z</time></trkpt><trkpt lat="44.87268" lon="8.8331783"><ele>124.0</ele><time>2026-05-01T09:16:29.1Z</time></trkpt><trkpt lat="44.8729367" lon="8.8332833"><ele>124.0</ele><time>2026-05-01T09:16:30.099Z</time></trkpt><trkpt lat="44.8731917" lon="8.8333883"><ele>124.0</ele><time>2026-05-01T09:16:31.1Z</time></trkpt><trkpt lat="44.8734467" lon="8.8335017"><ele>124.5</ele><time>2026-05-01T09:16:32.099Z</time></trkpt><trkpt lat="44.8737017" lon="8.8336133"><ele>125.0</ele><time>2026-05-01T09:16:33.099Z</time></trkpt><trkpt lat="44.8739567" lon="8.8337267"><ele>125.0</ele><time>2026-05-01T09:16:34.1Z</time></trkpt><trkpt lat="44.8742133" lon="8.8338417"><ele>125.0</ele><time>2026-05-01T09:16:35.1Z</time></trkpt><trkpt lat="44.8744733" lon="8.8339567"><ele>124.5</ele><time>2026-05-01T09:16:36.1Z</time></trkpt><trkpt lat="44.8747317" lon="8.8340717"><ele>124.0</ele><time>2026-05-01T09:16:37.1Z</time></trkpt><trkpt lat="44.8749917" lon="8.8341817"><ele>124.5</ele><time>2026-05-01T09:16:38.1Z</time></trkpt><trkpt lat="44.8752483" lon="8.8342967"><ele>125.0</ele><time>2026-05-01T09:16:39.099Z</time></trkpt><trkpt lat="44.8757517" lon="8.834505"><ele>123.5</ele><time>2026-05-01T09:16:41.099Z</time></trkpt><trkpt lat="44.876005" lon="8.8346183"><ele>122.0</ele><time>2026-05-01T09:16:42.099Z</time></trkpt><trkpt lat="44.87626" lon="8.8347317"><ele>122.0</ele><time>2026-05-01T09:16:43.099Z</time></trkpt><trkpt lat="44.87651" lon="8.8348383"><ele>122.0</ele><time>2026-05-01T09:16:44.099Z</time></trkpt><trkpt lat="44.8767633" lon="8.834945"><ele>122.5</ele><time>2026-05-01T09:16:45.1Z</time></trkpt><trkpt lat="44.8770183" lon="8.835055"><ele>123.0</ele><time>2026-05-01T09:16:46.1Z</time></trkpt><trkpt lat="44.87727" lon="8.8351717"><ele>123.0</ele><time>2026-05-01T09:16:47.099Z</time></trkpt><trkpt lat="44.8775233" lon="8.8352867"><ele>123.0</ele><time>2026-05-01T09:16:48.099Z</time></trkpt><trkpt lat="44.8777733" lon="8.8354017"><ele>123.0</ele><time>2026-05-01T09:16:49.1Z</time></trkpt><trkpt lat="44.878025" lon="8.8355217"><ele>123.0</ele><time>2026-05-01T09:16:50.099Z</time></trkpt><trkpt lat="44.8782817" lon="8.8356367"><ele>123.5</ele><time>2026-05-01T09:16:51.1Z</time></trkpt><trkpt lat="44.8785417" lon="8.8357583"><ele>124.0</ele><time>2026-05-01T09:16:52.1Z</time></trkpt><trkpt lat="44.8788083" lon="8.8358817"><ele>123.5</ele><time>2026-05-01T09:16:53.099Z</time></trkpt><trkpt lat="44.879075" lon="8.8359983"><ele>123.0</ele><time>2026-05-01T09:16:54.099Z</time></trkpt><trkpt lat="44.8793367" lon="8.836125"><ele>123.0</ele><time>2026-05-01T09:16:55.1Z</time></trkpt><trkpt lat="44.8796033" lon="8.836255"><ele>123.0</ele><time>2026-05-01T09:16:56.099Z</time></trkpt><trkpt lat="44.87987" lon="8.8363817"><ele>122.0</ele><time>2026-05-01T09:16:57.1Z</time></trkpt><trkpt lat="44.8801333" lon="8.836515"><ele>121.0</ele><time>2026-05-01T09:16:58.099Z</time></trkpt><trkpt lat="44.8804017" lon="8.8366433"><ele>121.0</ele><time>2026-05-01T09:16:59.099Z</time></trkpt><trkpt lat="44.8806683" lon="8.83677"><ele>121.0</ele><time>2026-05-01T09:17:00.1Z</time></trkpt><trkpt lat="44.8811967" lon="8.8370133"><ele>119.5</ele><time>2026-05-01T09:17:02.1Z</time></trkpt><trkpt lat="44.8814483" lon="8.837125"><ele>118.0</ele><time>2026-05-01T09:17:03.1Z</time></trkpt><trkpt lat="44.8817033" lon="8.8372383"><ele>119.0</ele><time>2026-05-01T09:17:04.099Z</time></trkpt><trkpt lat="44.881955" lon="8.8373633"><ele>120.0</ele><time>2026-05-01T09:17:05.099Z</time></trkpt><trkpt lat="44.8822217" lon="8.8374867"><ele>120.0</ele><time>2026-05-01T09:17:06.1Z</time></trkpt><trkpt lat="44.8824917" lon="8.8376133"><ele>120.0</ele><time>2026-05-01T09:17:07.099Z</time></trkpt><trkpt lat="44.88276" lon="8.8377367"><ele>120.0</ele><time>2026-05-01T09:17:08.099Z</time></trkpt><trkpt lat="44.883025" lon="8.8378567"><ele>120.0</ele><time>2026-05-01T09:17:09.099Z</time></trkpt><trkpt lat="44.883285" lon="8.837975"><ele>118.5</ele><time>2026-05-01T09:17:10.1Z</time></trkpt><trkpt lat="44.8835433" lon="8.8380933"><ele>117.0</ele><time>2026-05-01T09:17:11.099Z</time></trkpt><trkpt lat="44.8837983" lon="8.8382117"><ele>117.0</ele><time>2026-05-01T09:17:12.099Z</time></trkpt><trkpt lat="44.8840533" lon="8.8383267"><ele>117.0</ele><time>2026-05-01T09:17:13.1Z</time></trkpt><trkpt lat="44.884295" lon="8.83845"><ele>118.5</ele><time>2026-05-01T09:17:14.099Z</time></trkpt><trkpt lat="44.8845383" lon="8.8385733"><ele>120.0</ele><time>2026-05-01T09:17:15.099Z</time></trkpt><trkpt lat="44.884785" lon="8.8387"><ele>120.0</ele><time>2026-05-01T09:17:16.1Z</time></trkpt><trkpt lat="44.8850283" lon="8.8388233"><ele>120.0</ele><time>2026-05-01T09:17:17.099Z</time></trkpt><trkpt lat="44.8852733" lon="8.838945"><ele>119.5</ele><time>2026-05-01T09:17:18.099Z</time></trkpt><trkpt lat="44.88552" lon="8.8390583"><ele>119.0</ele><time>2026-05-01T09:17:19.099Z</time></trkpt><trkpt lat="44.88577" lon="8.8391767"><ele>118.0</ele><time>2026-05-01T09:17:20.099Z</time></trkpt><trkpt lat="44.8860133" lon="8.83929"><ele>117.0</ele><time>2026-05-01T09:17:21.1Z</time></trkpt><trkpt lat="44.8865" lon="8.839515"><ele>117.0</ele><time>2026-05-01T09:17:23.1Z</time></trkpt><trkpt lat="44.8867467" lon="8.839635"><ele>117.0</ele><time>2026-05-01T09:17:24.1Z</time></trkpt><trkpt lat="44.8869983" lon="8.8397567"><ele>117.0</ele><time>2026-05-01T09:17:25.099Z</time></trkpt><trkpt lat="44.8872417" lon="8.8398733"><ele>117.0</ele><time>2026-05-01T09:17:26.099Z</time></trkpt><trkpt lat="44.8874867" lon="8.8399933"><ele>117.0</ele><time>2026-05-01T09:17:27.099Z</time></trkpt><trkpt lat="44.8877367" lon="8.8401117"><ele>117.0</ele><time>2026-05-01T09:17:28.1Z</time></trkpt><trkpt lat="44.887985" lon="8.8402267"><ele>117.0</ele><time>2026-05-01T09:17:29.1Z</time></trkpt><trkpt lat="44.8882367" lon="8.8403333"><ele>117.0</ele><time>2026-05-01T09:17:30.099Z</time></trkpt><trkpt lat="44.888485" lon="8.8404417"><ele>117.0</ele><time>2026-05-01T09:17:31.1Z</time></trkpt><trkpt lat="44.8887383" lon="8.8405483"><ele>117.0</ele><time>2026-05-01T09:17:32.099Z</time></trkpt><trkpt lat="44.8889917" lon="8.84065"><ele>117.0</ele><time>2026-05-01T09:17:33.099Z</time></trkpt><trkpt lat="44.889245" lon="8.840745"><ele>117.0</ele><time>2026-05-01T09:17:34.1Z</time></trkpt><trkpt lat="44.8894983" lon="8.8408417"><ele>117.5</ele><time>2026-05-01T09:17:35.099Z</time></trkpt><trkpt lat="44.889745" lon="8.84092"><ele>118.0</ele><time>2026-05-01T09:17:36.099Z</time></trkpt><trkpt lat="44.8899933" lon="8.8410067"><ele>117.5</ele><time>2026-05-01T09:17:37.1Z</time></trkpt><trkpt lat="44.8902383" lon="8.8410917"><ele>117.0</ele><time>2026-05-01T09:17:38.099Z</time></trkpt><trkpt lat="44.8904783" lon="8.84117"><ele>117.0</ele><time>2026-05-01T09:17:39.1Z</time></trkpt><trkpt lat="44.8907267" lon="8.8412467"><ele>117.0</ele><time>2026-05-01T09:17:40.1Z</time></trkpt><trkpt lat="44.89098" lon="8.8413217"><ele>116.0</ele><time>2026-05-01T09:17:41.099Z</time></trkpt><trkpt lat="44.8912317" lon="8.8413967"><ele>115.0</ele><time>2026-05-01T09:17:42.099Z</time></trkpt><trkpt lat="44.891735" lon="8.8415267"><ele>115.5</ele><time>2026-05-01T09:17:44.1Z</time></trkpt><trkpt lat="44.89199" lon="8.841595"><ele>116.0</ele><time>2026-05-01T09:17:45.099Z</time></trkpt><trkpt lat="44.8922483" lon="8.84165"><ele>116.0</ele><time>2026-05-01T09:17:46.1Z</time></trkpt><trkpt lat="44.8925033" lon="8.841705"><ele>116.0</ele><time>2026-05-01T09:17:47.099Z</time></trkpt><trkpt lat="44.8927533" lon="8.841755"><ele>117.0</ele><time>2026-05-01T09:17:48.099Z</time></trkpt><trkpt lat="44.8930033" lon="8.8418"><ele>118.0</ele><time>2026-05-01T09:17:49.099Z</time></trkpt><trkpt lat="44.8932483" lon="8.84184"><ele>118.0</ele><time>2026-05-01T09:17:50.099Z</time></trkpt><trkpt lat="44.8934917" lon="8.8418833"><ele>118.0</ele><time>2026-05-01T09:17:51.1Z</time></trkpt><trkpt lat="44.8937383" lon="8.8419217"><ele>118.0</ele><time>2026-05-01T09:17:52.1Z</time></trkpt><trkpt lat="44.8939817" lon="8.841955"><ele>118.0</ele><time>2026-05-01T09:17:53.1Z</time></trkpt><trkpt lat="44.8942233" lon="8.841995"><ele>117.0</ele><time>2026-05-01T09:17:54.1Z</time></trkpt><trkpt lat="44.8944683" lon="8.8420383"><ele>116.0</ele><time>2026-05-01T09:17:55.1Z</time></trkpt><trkpt lat="44.8947183" lon="8.8420883"><ele>116.0</ele><time>2026-05-01T09:17:56.1Z</time></trkpt><trkpt lat="44.89497" lon="8.8421317"><ele>116.0</ele><time>2026-05-01T09:17:57.1Z</time></trkpt><trkpt lat="44.895225" lon="8.84217"><ele>116.5</ele><time>2026-05-01T09:17:58.1Z</time></trkpt><trkpt lat="44.8954817" lon="8.842215"><ele>117.0</ele><time>2026-05-01T09:17:59.1Z</time></trkpt><trkpt lat="44.8957417" lon="8.8422617"><ele>115.5</ele><time>2026-05-01T09:18:00.1Z</time></trkpt><trkpt lat="44.896" lon="8.8423067"><ele>114.0</ele><time>2026-05-01T09:18:01.1Z</time></trkpt><trkpt lat="44.896265" lon="8.8423467"><ele>114.0</ele><time>2026-05-01T09:18:02.1Z</time></trkpt><trkpt lat="44.8965233" lon="8.8423833"><ele>114.0</ele><time>2026-05-01T09:18:03.099Z</time></trkpt><trkpt lat="44.8970367" lon="8.8424783"><ele>115.0</ele><time>2026-05-01T09:18:05.099Z</time></trkpt><trkpt lat="44.8972883" lon="8.8425233"><ele>116.0</ele><time>2026-05-01T09:18:06.099Z</time></trkpt><trkpt lat="44.897545" lon="8.84256"><ele>115.5</ele><time>2026-05-01T09:18:07.1Z</time></trkpt><trkpt lat="44.8978033" lon="8.8426083"><ele>115.0</ele><time>2026-05-01T09:18:08.099Z</time></trkpt><trkpt lat="44.89806" lon="8.8426533"><ele>114.0</ele><time>2026-05-01T09:18:09.099Z</time></trkpt><trkpt lat="44.898315" lon="8.8426933"><ele>113.0</ele><time>2026-05-01T09:18:10.1Z</time></trkpt><trkpt lat="44.8985667" lon="8.84273"><ele>112.0</ele><time>2026-05-01T09:18:11.099Z</time></trkpt><trkpt lat="44.8988133" lon="8.8427717"><ele>111.0</ele><time>2026-05-01T09:18:12.099Z</time></trkpt><trkpt lat="44.8990617" lon="8.8428083"><ele>112.0</ele><time>2026-05-01T09:18:13.099Z</time></trkpt><trkpt lat="44.8993133" lon="8.8428517"><ele>113.0</ele><time>2026-05-01T09:18:14.099Z</time></trkpt><trkpt lat="44.89957" lon="8.8428933"><ele>113.0</ele><time>2026-05-01T09:18:15.099Z</time></trkpt><trkpt lat="44.8998233" lon="8.8429317"><ele>113.0</ele><time>2026-05-01T09:18:16.099Z</time></trkpt><trkpt lat="44.9000917" lon="8.8429767"><ele>111.5</ele><time>2026-05-01T09:18:17.1Z</time></trkpt><trkpt lat="44.9003567" lon="8.8430167"><ele>110.0</ele><time>2026-05-01T09:18:18.099Z</time></trkpt><trkpt lat="44.900625" lon="8.8430583"><ele>110.0</ele><time>2026-05-01T09:18:19.1Z</time></trkpt><trkpt lat="44.9008933" lon="8.843105"><ele>110.0</ele><time>2026-05-01T09:18:20.1Z</time></trkpt><trkpt lat="44.9011667" lon="8.8431417"><ele>110.0</ele><time>2026-05-01T09:18:21.099Z</time></trkpt><trkpt lat="44.90144" lon="8.843175"><ele>110.0</ele><time>2026-05-01T09:18:22.099Z</time></trkpt><trkpt lat="44.9017083" lon="8.843205"><ele>111.0</ele><time>2026-05-01T09:18:23.099Z</time></trkpt><trkpt lat="44.9019767" lon="8.8432283"><ele>112.0</ele><time>2026-05-01T09:18:24.1Z</time></trkpt><trkpt lat="44.90251" lon="8.8432767"><ele>110.5</ele><time>2026-05-01T09:18:26.1Z</time></trkpt><trkpt lat="44.9027717" lon="8.8433"><ele>109.0</ele><time>2026-05-01T09:18:27.1Z</time></trkpt><trkpt lat="44.9030333" lon="8.8433283"><ele>109.0</ele><time>2026-05-01T09:18:28.1Z</time></trkpt><trkpt lat="44.903295" lon="8.8433517"><ele>109.0</ele><time>2026-05-01T09:18:29.099Z</time></trkpt><trkpt lat="44.9035533" lon="8.8433733"><ele>110.0</ele><time>2026-05-01T09:18:30.1Z</time></trkpt><trkpt lat="44.90382" lon="8.8433967"><ele>111.0</ele><time>2026-05-01T09:18:31.099Z</time></trkpt><trkpt lat="44.90408" lon="8.84342"><ele>110.0</ele><time>2026-05-01T09:18:32.099Z</time></trkpt><trkpt lat="44.9043417" lon="8.8434467"><ele>109.0</ele><time>2026-05-01T09:18:33.1Z</time></trkpt><trkpt lat="44.9046067" lon="8.8434767"><ele>109.0</ele><time>2026-05-01T09:18:34.1Z</time></trkpt><trkpt lat="44.9048683" lon="8.843505"><ele>109.0</ele><time>2026-05-01T09:18:35.1Z</time></trkpt><trkpt lat="44.9051333" lon="8.8435283"><ele>109.0</ele><time>2026-05-01T09:18:36.1Z</time></trkpt><trkpt lat="44.9053933" lon="8.84355"><ele>109.0</ele><time>2026-05-01T09:18:37.099Z</time></trkpt><trkpt lat="44.905655" lon="8.84357"><ele>109.0</ele><time>2026-05-01T09:18:38.1Z</time></trkpt><trkpt lat="44.9059117" lon="8.8435917"><ele>109.0</ele><time>2026-05-01T09:18:39.1Z</time></trkpt><trkpt lat="44.906175" lon="8.8436117"><ele>109.0</ele><time>2026-05-01T09:18:40.1Z</time></trkpt><trkpt lat="44.906435" lon="8.8436383"><ele>109.0</ele><time>2026-05-01T09:18:41.1Z</time></trkpt><trkpt lat="44.9066983" lon="8.843665"><ele>109.0</ele><time>2026-05-01T09:18:42.1Z</time></trkpt><trkpt lat="44.9069633" lon="8.84369"><ele>109.0</ele><time>2026-05-01T09:18:43.1Z</time></trkpt><trkpt lat="44.907225" lon="8.843715"><ele>109.0</ele><time>2026-05-01T09:18:44.1Z</time></trkpt><trkpt lat="44.9074883" lon="8.843745"><ele>109.0</ele><time>2026-05-01T09:18:45.1Z</time></trkpt><trkpt lat="44.9079933" lon="8.8437867"><ele>109.0</ele><time>2026-05-01T09:18:47.1Z</time></trkpt><trkpt lat="44.9082383" lon="8.8438067"><ele>109.0</ele><time>2026-05-01T09:18:48.099Z</time></trkpt><trkpt lat="44.9084833" lon="8.8438283"><ele>108.5</ele><time>2026-05-01T09:18:49.1Z</time></trkpt><trkpt lat="44.90873" lon="8.8438483"><ele>108.0</ele><time>2026-05-01T09:18:50.1Z</time></trkpt><trkpt lat="44.9089767" lon="8.84387"><ele>108.0</ele><time>2026-05-01T09:18:51.1Z</time></trkpt><trkpt lat="44.9092333" lon="8.8438967"><ele>108.0</ele><time>2026-05-01T09:18:52.099Z</time></trkpt><trkpt lat="44.9094867" lon="8.8439183"><ele>108.0</ele><time>2026-05-01T09:18:53.1Z</time></trkpt><trkpt lat="44.9097433" lon="8.8439433"><ele>108.0</ele><time>2026-05-01T09:18:54.099Z</time></trkpt><trkpt lat="44.90999" lon="8.84397"><ele>107.5</ele><time>2026-05-01T09:18:55.099Z</time></trkpt><trkpt lat="44.9102467" lon="8.84399"><ele>107.0</ele><time>2026-05-01T09:18:56.1Z</time></trkpt><trkpt lat="44.9105" lon="8.84402"><ele>107.0</ele><time>2026-05-01T09:18:57.099Z</time></trkpt><trkpt lat="44.9107517" lon="8.8440533"><ele>107.0</ele><time>2026-05-01T09:18:58.1Z</time></trkpt><trkpt lat="44.910995" lon="8.8440767"><ele>106.0</ele><time>2026-05-01T09:18:59.099Z</time></trkpt><trkpt lat="44.9112333" lon="8.8440983"><ele>105.0</ele><time>2026-05-01T09:19:00.1Z</time></trkpt><trkpt lat="44.9114683" lon="8.8441217"><ele>105.0</ele><time>2026-05-01T09:19:01.1Z</time></trkpt><trkpt lat="44.9116883" lon="8.8441417"><ele>105.0</ele><time>2026-05-01T09:19:02.1Z</time></trkpt><trkpt lat="44.9119033" lon="8.844165"><ele>105.0</ele><time>2026-05-01T09:19:03.1Z</time></trkpt><trkpt lat="44.9121233" lon="8.8441883"><ele>105.0</ele><time>2026-05-01T09:19:04.1Z</time></trkpt><trkpt lat="44.9123483" lon="8.844215"><ele>105.0</ele><time>2026-05-01T09:19:05.099Z</time></trkpt><trkpt lat="44.9125683" lon="8.844245"><ele>105.0</ele><time>2026-05-01T09:19:06.099Z</time></trkpt><trkpt lat="44.9129983" lon="8.8442933"><ele>104.33333333333334</ele><time>2026-05-01T09:19:08.1Z</time></trkpt><trkpt lat="44.9132117" lon="8.8443183"><ele>103.66666666666667</ele><time>2026-05-01T09:19:09.1Z</time></trkpt><trkpt lat="44.9134233" lon="8.8443433"><ele>103.0</ele><time>2026-05-01T09:19:10.099Z</time></trkpt><trkpt lat="44.9136233" lon="8.8443633"><ele>102.66666666666667</ele><time>2026-05-01T09:19:11.099Z</time></trkpt><trkpt lat="44.91382" lon="8.8443883"><ele>102.33333333333334</ele><time>2026-05-01T09:19:12.099Z</time></trkpt><trkpt lat="44.91402" lon="8.8444217"><ele>102.0</ele><time>2026-05-01T09:19:13.1Z</time></trkpt><trkpt lat="44.9142283" lon="8.8444683"><ele>102.33333333333334</ele><time>2026-05-01T09:19:14.099Z</time></trkpt><trkpt lat="44.9144417" lon="8.8445217"><ele>102.66666666666667</ele><time>2026-05-01T09:19:15.099Z</time></trkpt><trkpt lat="44.9146533" lon="8.8445983"><ele>103.0</ele><time>2026-05-01T09:19:16.1Z</time></trkpt><trkpt lat="44.9148733" lon="8.8446817"><ele>104.5</ele><time>2026-05-01T09:19:17.1Z</time></trkpt><trkpt lat="44.915095" lon="8.8447733"><ele>106.0</ele><time>2026-05-01T09:19:18.1Z</time></trkpt><trkpt lat="44.9153183" lon="8.8448767"><ele>106.0</ele><time>2026-05-01T09:19:19.099Z</time></trkpt><trkpt lat="44.91554" lon="8.844995"><ele>106.0</ele><time>2026-05-01T09:19:20.1Z</time></trkpt><trkpt lat="44.9157567" lon="8.8451217"><ele>108.0</ele><time>2026-05-01T09:19:21.1Z</time></trkpt><trkpt lat="44.9159633" lon="8.84527"><ele>110.0</ele><time>2026-05-01T09:19:22.099Z</time></trkpt><trkpt lat="44.9161667" lon="8.8454383"><ele>110.0</ele><time>2026-05-01T09:19:23.1Z</time></trkpt><trkpt lat="44.916355" lon="8.845625"><ele>110.0</ele><time>2026-05-01T09:19:24.099Z</time></trkpt><trkpt lat="44.9165217" lon="8.8458317"><ele>109.66666666666666</ele><time>2026-05-01T09:19:25.099Z</time></trkpt><trkpt lat="44.9166683" lon="8.846065"><ele>109.33333333333334</ele><time>2026-05-01T09:19:26.099Z</time></trkpt><trkpt lat="44.9167983" lon="8.8463217"><ele>109.0</ele><time>2026-05-01T09:19:27.1Z</time></trkpt><trkpt lat="44.9169983" lon="8.8469117"><ele>110.0</ele><time>2026-05-01T09:19:29.1Z</time></trkpt><trkpt lat="44.9170917" lon="8.8472267"><ele>111.0</ele><time>2026-05-01T09:19:30.1Z</time></trkpt><trkpt lat="44.9171883" lon="8.8475517"><ele>109.0</ele><time>2026-05-01T09:19:31.099Z</time></trkpt><trkpt lat="44.9172883" lon="8.84789"><ele>107.0</ele><time>2026-05-01T09:19:32.1Z</time></trkpt><trkpt lat="44.917395" lon="8.8482383"><ele>106.5</ele><time>2026-05-01T09:19:33.1Z</time></trkpt><trkpt lat="44.9174983" lon="8.848595"><ele>106.0</ele><time>2026-05-01T09:19:34.099Z</time></trkpt><trkpt lat="44.9175983" lon="8.8489567"><ele>103.5</ele><time>2026-05-01T09:19:35.099Z</time></trkpt><trkpt lat="44.9176917" lon="8.8493333"><ele>101.0</ele><time>2026-05-01T09:19:36.099Z</time></trkpt><trkpt lat="44.9177917" lon="8.84972"><ele>101.0</ele><time>2026-05-01T09:19:37.099Z</time></trkpt><trkpt lat="44.917895" lon="8.8501133"><ele>101.0</ele><time>2026-05-01T09:19:38.1Z</time></trkpt><trkpt lat="44.91799" lon="8.85049"><ele>100.5</ele><time>2026-05-01T09:19:39.099Z</time></trkpt><trkpt lat="44.9180817" lon="8.850855"><ele>100.0</ele><time>2026-05-01T09:19:40.099Z</time></trkpt><trkpt lat="44.91817" lon="8.8512183"><ele>100.0</ele><time>2026-05-01T09:19:41.099Z</time></trkpt><trkpt lat="44.91826" lon="8.8515833"><ele>100.0</ele><time>2026-05-01T09:19:42.099Z</time></trkpt><trkpt lat="44.91835" lon="8.8519567"><ele>99.5</ele><time>2026-05-01T09:19:43.1Z</time></trkpt><trkpt lat="44.9184433" lon="8.8523283"><ele>99.0</ele><time>2026-05-01T09:19:44.099Z</time></trkpt><trkpt lat="44.9185367" lon="8.852705"><ele>101.5</ele><time>2026-05-01T09:19:45.099Z</time></trkpt><trkpt lat="44.9186267" lon="8.853085"><ele>104.0</ele><time>2026-05-01T09:19:46.1Z</time></trkpt><trkpt lat="44.91872" lon="8.85346"><ele>104.0</ele><time>2026-05-01T09:19:47.1Z</time></trkpt><trkpt lat="44.9188133" lon="8.8538267"><ele>104.0</ele><time>2026-05-01T09:19:48.1Z</time></trkpt><trkpt lat="44.9190017" lon="8.85456"><ele>103.5</ele><time>2026-05-01T09:19:50.099Z</time></trkpt><trkpt lat="44.9190917" lon="8.8549283"><ele>103.0</ele><time>2026-05-01T09:19:51.099Z</time></trkpt><trkpt lat="44.9191883" lon="8.8553"><ele>103.0</ele><time>2026-05-01T09:19:52.1Z</time></trkpt><trkpt lat="44.9192817" lon="8.8556733"><ele>103.0</ele><time>2026-05-01T09:19:53.099Z</time></trkpt><trkpt lat="44.9193767" lon="8.8560517"><ele>103.0</ele><time>2026-05-01T09:19:54.099Z</time></trkpt><trkpt lat="44.91947" lon="8.8564333"><ele>103.0</ele><time>2026-05-01T09:19:55.1Z</time></trkpt><trkpt lat="44.9195617" lon="8.8568183"><ele>103.0</ele><time>2026-05-01T09:19:56.099Z</time></trkpt><trkpt lat="44.9196533" lon="8.8572067"><ele>103.0</ele><time>2026-05-01T09:19:57.1Z</time></trkpt><trkpt lat="44.91975" lon="8.857585"><ele>102.0</ele><time>2026-05-01T09:19:58.1Z</time></trkpt><trkpt lat="44.9198483" lon="8.8579667"><ele>101.0</ele><time>2026-05-01T09:19:59.1Z</time></trkpt><trkpt lat="44.919945" lon="8.8583467"><ele>101.5</ele><time>2026-05-01T09:20:00.099Z</time></trkpt><trkpt lat="44.92004" lon="8.8587217"><ele>102.0</ele><time>2026-05-01T09:20:01.099Z</time></trkpt><trkpt lat="44.9201333" lon="8.8590983"><ele>101.5</ele><time>2026-05-01T09:20:02.1Z</time></trkpt><trkpt lat="44.9202367" lon="8.85947"><ele>101.0</ele><time>2026-05-01T09:20:03.099Z</time></trkpt><trkpt lat="44.9203417" lon="8.8598367"><ele>101.0</ele><time>2026-05-01T09:20:04.099Z</time></trkpt><trkpt lat="44.92045" lon="8.8601983"><ele>101.0</ele><time>2026-05-01T09:20:05.1Z</time></trkpt><trkpt lat="44.92056" lon="8.8605583"><ele>101.0</ele><time>2026-05-01T09:20:06.099Z</time></trkpt><trkpt lat="44.92067" lon="8.860915"><ele>101.0</ele><time>2026-05-01T09:20:07.1Z</time></trkpt><trkpt lat="44.92078" lon="8.8612633"><ele>100.5</ele><time>2026-05-01T09:20:08.099Z</time></trkpt><trkpt lat="44.9208933" lon="8.86161"><ele>100.0</ele><time>2026-05-01T09:20:09.099Z</time></trkpt><trkpt lat="44.9211283" lon="8.86228"><ele>100.5</ele><time>2026-05-01T09:20:11.1Z</time></trkpt><trkpt lat="44.9212467" lon="8.862615"><ele>101.0</ele><time>2026-05-01T09:20:12.099Z</time></trkpt><trkpt lat="44.9213667" lon="8.8629483"><ele>101.0</ele><time>2026-05-01T09:20:13.099Z</time></trkpt><trkpt lat="44.9214867" lon="8.8632767"><ele>101.0</ele><time>2026-05-01T09:20:14.099Z</time></trkpt><trkpt lat="44.9216117" lon="8.8636117"><ele>100.5</ele><time>2026-05-01T09:20:15.1Z</time></trkpt><trkpt lat="44.9217417" lon="8.8639433"><ele>100.0</ele><time>2026-05-01T09:20:16.1Z</time></trkpt><trkpt lat="44.9218733" lon="8.8642817"><ele>101.0</ele><time>2026-05-01T09:20:17.1Z</time></trkpt><trkpt lat="44.92201" lon="8.8646217"><ele>102.0</ele><time>2026-05-01T09:20:18.1Z</time></trkpt><trkpt lat="44.9221567" lon="8.8649583"><ele>102.5</ele><time>2026-05-01T09:20:19.099Z</time></trkpt><trkpt lat="44.9223067" lon="8.8652867"><ele>103.0</ele><time>2026-05-01T09:20:20.099Z</time></trkpt><trkpt lat="44.9224533" lon="8.8656333"><ele>101.0</ele><time>2026-05-01T09:20:21.099Z</time></trkpt><trkpt lat="44.9226033" lon="8.8659683"><ele>99.0</ele><time>2026-05-01T09:20:22.099Z</time></trkpt><trkpt lat="44.9227567" lon="8.8663"><ele>99.0</ele><time>2026-05-01T09:20:23.099Z</time></trkpt><trkpt lat="44.9229083" lon="8.8666317"><ele>99.0</ele><time>2026-05-01T09:20:24.099Z</time></trkpt><trkpt lat="44.923065" lon="8.8669533"><ele>99.0</ele><time>2026-05-01T09:20:25.099Z</time></trkpt><trkpt lat="44.9232217" lon="8.8672733"><ele>99.0</ele><time>2026-05-01T09:20:26.1Z</time></trkpt><trkpt lat="44.9233817" lon="8.8675917"><ele>99.5</ele><time>2026-05-01T09:20:27.099Z</time></trkpt><trkpt lat="44.92354" lon="8.8678967"><ele>100.0</ele><time>2026-05-01T09:20:28.099Z</time></trkpt><trkpt lat="44.9236983" lon="8.8682033"><ele>100.5</ele><time>2026-05-01T09:20:29.099Z</time></trkpt><trkpt lat="44.9238567" lon="8.8685067"><ele>101.0</ele><time>2026-05-01T09:20:30.1Z</time></trkpt><trkpt lat="44.9241867" lon="8.8690917"><ele>101.0</ele><time>2026-05-01T09:20:32.1Z</time></trkpt><trkpt lat="44.9243533" lon="8.8693767"><ele>101.0</ele><time>2026-05-01T09:20:33.1Z</time></trkpt><trkpt lat="44.9245217" lon="8.8696567"><ele>101.0</ele><time>2026-05-01T09:20:34.1Z</time></trkpt><trkpt lat="44.9246883" lon="8.86994"><ele>101.0</ele><time>2026-05-01T09:20:35.1Z</time></trkpt><trkpt lat="44.9248517" lon="8.8702183"><ele>101.5</ele><time>2026-05-01T09:20:36.099Z</time></trkpt><trkpt lat="44.92502" lon="8.87049"><ele>102.0</ele><time>2026-05-01T09:20:37.1Z</time></trkpt><trkpt lat="44.92519" lon="8.8707617"><ele>102.0</ele><time>2026-05-01T09:20:38.1Z</time></trkpt><trkpt lat="44.9253617" lon="8.8710233"><ele>102.0</ele><time>2026-05-01T09:20:39.1Z</time></trkpt><trkpt lat="44.9255333" lon="8.8712833"><ele>102.0</ele><time>2026-05-01T09:20:40.099Z</time></trkpt><trkpt lat="44.9257117" lon="8.8715483"><ele>102.0</ele><time>2026-05-01T09:20:41.099Z</time></trkpt><trkpt lat="44.9258883" lon="8.8718067"><ele>102.5</ele><time>2026-05-01T09:20:42.1Z</time></trkpt><trkpt lat="44.92607" lon="8.872065"><ele>103.0</ele><time>2026-05-01T09:20:43.1Z</time></trkpt><trkpt lat="44.9262533" lon="8.872325"><ele>103.0</ele><time>2026-05-01T09:20:44.1Z</time></trkpt><trkpt lat="44.926435" lon="8.8725867"><ele>103.0</ele><time>2026-05-01T09:20:45.1Z</time></trkpt><trkpt lat="44.9266267" lon="8.872845"><ele>102.5</ele><time>2026-05-01T09:20:46.099Z</time></trkpt><trkpt lat="44.9268083" lon="8.8731133"><ele>102.0</ele><time>2026-05-01T09:20:47.1Z</time></trkpt><trkpt lat="44.9270017" lon="8.873365"><ele>102.0</ele><time>2026-05-01T09:20:48.1Z</time></trkpt><trkpt lat="44.9271917" lon="8.8736217"><ele>102.0</ele><time>2026-05-01T09:20:49.1Z</time></trkpt><trkpt lat="44.9273733" lon="8.8738783"><ele>102.0</ele><time>2026-05-01T09:20:50.099Z</time></trkpt><trkpt lat="44.9275567" lon="8.8741317"><ele>102.0</ele><time>2026-05-01T09:20:51.099Z</time></trkpt><trkpt lat="44.9279183" lon="8.874635"><ele>101.5</ele><time>2026-05-01T09:20:53.099Z</time></trkpt><trkpt lat="44.9281033" lon="8.874885"><ele>101.0</ele><time>2026-05-01T09:20:54.099Z</time></trkpt><trkpt lat="44.9282867" lon="8.8751383"><ele>101.0</ele><time>2026-05-01T09:20:55.099Z</time></trkpt><trkpt lat="44.92847" lon="8.87539"><ele>101.0</ele><time>2026-05-01T09:20:56.099Z</time></trkpt><trkpt lat="44.928655" lon="8.875645"><ele>101.0</ele><time>2026-05-01T09:20:57.099Z</time></trkpt><trkpt lat="44.9288433" lon="8.8759017"><ele>101.0</ele><time>2026-05-01T09:20:58.099Z</time></trkpt><trkpt lat="44.9290333" lon="8.87615"><ele>101.0</ele><time>2026-05-01T09:20:59.1Z</time></trkpt><trkpt lat="44.92922" lon="8.876405"><ele>101.0</ele><time>2026-05-01T09:21:00.1Z</time></trkpt><trkpt lat="44.9294067" lon="8.8766583"><ele>101.0</ele><time>2026-05-01T09:21:01.099Z</time></trkpt><trkpt lat="44.929595" lon="8.8769167"><ele>101.0</ele><time>2026-05-01T09:21:02.099Z</time></trkpt><trkpt lat="44.929785" lon="8.8771717"><ele>101.0</ele><time>2026-05-01T09:21:03.099Z</time></trkpt><trkpt lat="44.929975" lon="8.87743"><ele>101.0</ele><time>2026-05-01T09:21:04.1Z</time></trkpt><trkpt lat="44.93017" lon="8.8776883"><ele>102.0</ele><time>2026-05-01T09:21:05.1Z</time></trkpt><trkpt lat="44.9303667" lon="8.877945"><ele>103.0</ele><time>2026-05-01T09:21:06.099Z</time></trkpt><trkpt lat="44.9305583" lon="8.8782117"><ele>103.0</ele><time>2026-05-01T09:21:07.1Z</time></trkpt><trkpt lat="44.9307517" lon="8.8784783"><ele>103.0</ele><time>2026-05-01T09:21:08.099Z</time></trkpt><trkpt lat="44.9309533" lon="8.8787567"><ele>102.0</ele><time>2026-05-01T09:21:09.099Z</time></trkpt><trkpt lat="44.93115" lon="8.879035"><ele>101.0</ele><time>2026-05-01T09:21:10.099Z</time></trkpt><trkpt lat="44.9313517" lon="8.8793083"><ele>101.0</ele><time>2026-05-01T09:21:11.099Z</time></trkpt><trkpt lat="44.931555" lon="8.8795783"><ele>101.0</ele><time>2026-05-01T09:21:12.099Z</time></trkpt><trkpt lat="44.9319433" lon="8.8801033"><ele>100.0</ele><time>2026-05-01T09:21:14.099Z</time></trkpt><trkpt lat="44.932135" lon="8.8803667"><ele>99.0</ele><time>2026-05-01T09:21:15.1Z</time></trkpt><trkpt lat="44.9323183" lon="8.8806267"><ele>99.0</ele><time>2026-05-01T09:21:16.099Z</time></trkpt><trkpt lat="44.9325033" lon="8.88088"><ele>99.0</ele><time>2026-05-01T09:21:17.1Z</time></trkpt><trkpt lat="44.9326833" lon="8.88113"><ele>99.0</ele><time>2026-05-01T09:21:18.1Z</time></trkpt><trkpt lat="44.93287" lon="8.88138"><ele>99.0</ele><time>2026-05-01T09:21:19.1Z</time></trkpt><trkpt lat="44.9330583" lon="8.8816267"><ele>99.0</ele><time>2026-05-01T09:21:20.099Z</time></trkpt><trkpt lat="44.9332433" lon="8.88188"><ele>99.0</ele><time>2026-05-01T09:21:21.099Z</time></trkpt><trkpt lat="44.9334283" lon="8.8821317"><ele>99.0</ele><time>2026-05-01T09:21:22.099Z</time></trkpt><trkpt lat="44.9336167" lon="8.8823883"><ele>99.0</ele><time>2026-05-01T09:21:23.099Z</time></trkpt><trkpt lat="44.9338033" lon="8.8826467"><ele>100.5</ele><time>2026-05-01T09:21:24.099Z</time></trkpt><trkpt lat="44.9339867" lon="8.882905"><ele>102.0</ele><time>2026-05-01T09:21:25.099Z</time></trkpt><trkpt lat="44.934175" lon="8.88316"><ele>101.5</ele><time>2026-05-01T09:21:26.1Z</time></trkpt><trkpt lat="44.93436" lon="8.883415"><ele>101.0</ele><time>2026-05-01T09:21:27.099Z</time></trkpt><trkpt lat="44.9345467" lon="8.88367"><ele>100.5</ele><time>2026-05-01T09:21:28.1Z</time></trkpt><trkpt lat="44.9347283" lon="8.8839233"><ele>100.0</ele><time>2026-05-01T09:21:29.099Z</time></trkpt><trkpt lat="44.9349133" lon="8.88418"><ele>100.0</ele><time>2026-05-01T09:21:30.1Z</time></trkpt><trkpt lat="44.9350967" lon="8.88443"><ele>100.0</ele><time>2026-05-01T09:21:31.1Z</time></trkpt><trkpt lat="44.935275" lon="8.8846867"><ele>100.0</ele><time>2026-05-01T09:21:32.1Z</time></trkpt><trkpt lat="44.935455" lon="8.88495"><ele>100.0</ele><time>2026-05-01T09:21:33.1Z</time></trkpt><trkpt lat="44.93582" lon="8.8854383"><ele>99.0</ele><time>2026-05-01T09:21:35.099Z</time></trkpt><trkpt lat="44.9359967" lon="8.885685"><ele>98.0</ele><time>2026-05-01T09:21:36.099Z</time></trkpt><trkpt lat="44.9361783" lon="8.8859283"><ele>98.5</ele><time>2026-05-01T09:21:37.1Z</time></trkpt><trkpt lat="44.93636" lon="8.8861667"><ele>99.0</ele><time>2026-05-01T09:21:38.099Z</time></trkpt><trkpt lat="44.9365367" lon="8.886415"><ele>99.0</ele><time>2026-05-01T09:21:39.1Z</time></trkpt><trkpt lat="44.936715" lon="8.8866633"><ele>99.0</ele><time>2026-05-01T09:21:40.1Z</time></trkpt><trkpt lat="44.9368967" lon="8.8869133"><ele>99.0</ele><time>2026-05-01T09:21:41.099Z</time></trkpt><trkpt lat="44.9370833" lon="8.88716"><ele>99.0</ele><time>2026-05-01T09:21:42.099Z</time></trkpt><trkpt lat="44.9372683" lon="8.887415"><ele>99.5</ele><time>2026-05-01T09:21:43.099Z</time></trkpt><trkpt lat="44.9374567" lon="8.88767"><ele>100.0</ele><time>2026-05-01T09:21:44.1Z</time></trkpt><trkpt lat="44.9376533" lon="8.8879233"><ele>100.0</ele><time>2026-05-01T09:21:45.1Z</time></trkpt><trkpt lat="44.93785" lon="8.888185"><ele>100.0</ele><time>2026-05-01T09:21:46.099Z</time></trkpt><trkpt lat="44.9380417" lon="8.8884417"><ele>100.0</ele><time>2026-05-01T09:21:47.1Z</time></trkpt><trkpt lat="44.9382317" lon="8.888705"><ele>100.0</ele><time>2026-05-01T09:21:48.099Z</time></trkpt><trkpt lat="44.9384267" lon="8.8889717"><ele>100.0</ele><time>2026-05-01T09:21:49.1Z</time></trkpt><trkpt lat="44.938625" lon="8.8892383"><ele>100.0</ele><time>2026-05-01T09:21:50.1Z</time></trkpt><trkpt lat="44.9388167" lon="8.88951"><ele>100.0</ele><time>2026-05-01T09:21:51.099Z</time></trkpt><trkpt lat="44.9390133" lon="8.8897867"><ele>100.0</ele><time>2026-05-01T09:21:52.099Z</time></trkpt><trkpt lat="44.9392167" lon="8.8900583"><ele>99.0</ele><time>2026-05-01T09:21:53.099Z</time></trkpt><trkpt lat="44.93962" lon="8.890615"><ele>99.0</ele><time>2026-05-01T09:21:55.1Z</time></trkpt><trkpt lat="44.9398267" lon="8.89089"><ele>99.0</ele><time>2026-05-01T09:21:56.099Z</time></trkpt><trkpt lat="44.940035" lon="8.8911683"><ele>99.5</ele><time>2026-05-01T09:21:57.099Z</time></trkpt><trkpt lat="44.9402383" lon="8.8914467"><ele>100.0</ele><time>2026-05-01T09:21:58.1Z</time></trkpt><trkpt lat="44.9404417" lon="8.8917267"><ele>100.0</ele><time>2026-05-01T09:21:59.099Z</time></trkpt><trkpt lat="44.940645" lon="8.8920083"><ele>100.0</ele><time>2026-05-01T09:22:00.099Z</time></trkpt><trkpt lat="44.9408483" lon="8.892285"><ele>100.0</ele><time>2026-05-01T09:22:01.1Z</time></trkpt><trkpt lat="44.9410483" lon="8.8925567"><ele>100.0</ele><time>2026-05-01T09:22:02.1Z</time></trkpt><trkpt lat="44.9412467" lon="8.892825"><ele>101.0</ele><time>2026-05-01T09:22:03.099Z</time></trkpt><trkpt lat="44.9414483" lon="8.8930933"><ele>102.0</ele><time>2026-05-01T09:22:04.099Z</time></trkpt><trkpt lat="44.9416433" lon="8.8933683"><ele>100.5</ele><time>2026-05-01T09:22:05.099Z</time></trkpt><trkpt lat="44.9418367" lon="8.89364"><ele>99.0</ele><time>2026-05-01T09:22:06.1Z</time></trkpt><trkpt lat="44.9420317" lon="8.8939067"><ele>99.0</ele><time>2026-05-01T09:22:07.099Z</time></trkpt><trkpt lat="44.9422267" lon="8.8941717"><ele>99.0</ele><time>2026-05-01T09:22:08.099Z</time></trkpt><trkpt lat="44.9424217" lon="8.89444"><ele>99.0</ele><time>2026-05-01T09:22:09.1Z</time></trkpt><trkpt lat="44.94262" lon="8.8947083"><ele>99.0</ele><time>2026-05-01T09:22:10.099Z</time></trkpt><trkpt lat="44.9428133" lon="8.8949767"><ele>99.5</ele><time>2026-05-01T09:22:11.1Z</time></trkpt><trkpt lat="44.94301" lon="8.8952483"><ele>100.0</ele><time>2026-05-01T09:22:12.099Z</time></trkpt><trkpt lat="44.9432033" lon="8.8955183"><ele>99.0</ele><time>2026-05-01T09:22:13.099Z</time></trkpt><trkpt lat="44.943405" lon="8.8957867"><ele>98.0</ele><time>2026-05-01T09:22:14.1Z</time></trkpt><trkpt lat="44.9437967" lon="8.89633"><ele>98.0</ele><time>2026-05-01T09:22:16.099Z</time></trkpt><trkpt lat="44.943995" lon="8.8965983"><ele>98.0</ele><time>2026-05-01T09:22:17.1Z</time></trkpt><trkpt lat="44.9441867" lon="8.89685"><ele>98.0</ele><time>2026-05-01T09:22:18.1Z</time></trkpt><trkpt lat="44.9443717" lon="8.8971033"><ele>98.0</ele><time>2026-05-01T09:22:19.099Z</time></trkpt><trkpt lat="44.9445533" lon="8.8973533"><ele>97.5</ele><time>2026-05-01T09:22:20.1Z</time></trkpt><trkpt lat="44.944735" lon="8.8976067"><ele>97.0</ele><time>2026-05-01T09:22:21.1Z</time></trkpt><trkpt lat="44.9449267" lon="8.897855"><ele>96.0</ele><time>2026-05-01T09:22:22.1Z</time></trkpt><trkpt lat="44.9451233" lon="8.8981183"><ele>95.0</ele><time>2026-05-01T09:22:23.099Z</time></trkpt><trkpt lat="44.945325" lon="8.8983833"><ele>96.0</ele><time>2026-05-01T09:22:24.099Z</time></trkpt><trkpt lat="44.94553" lon="8.8986517"><ele>97.0</ele><time>2026-05-01T09:22:25.099Z</time></trkpt><trkpt lat="44.9457367" lon="8.8989217"><ele>96.5</ele><time>2026-05-01T09:22:26.1Z</time></trkpt><trkpt lat="44.94594" lon="8.8991983"><ele>96.0</ele><time>2026-05-01T09:22:27.099Z</time></trkpt><trkpt lat="44.9461483" lon="8.8994817"><ele>96.0</ele><time>2026-05-01T09:22:28.099Z</time></trkpt><trkpt lat="44.946355" lon="8.899765"><ele>96.0</ele><time>2026-05-01T09:22:29.1Z</time></trkpt><trkpt lat="44.9465633" lon="8.9000567"><ele>95.5</ele><time>2026-05-01T09:22:30.1Z</time></trkpt><trkpt lat="44.9467683" lon="8.9003483"><ele>95.0</ele><time>2026-05-01T09:22:31.099Z</time></trkpt><trkpt lat="44.94698" lon="8.9006333"><ele>95.0</ele><time>2026-05-01T09:22:32.099Z</time></trkpt><trkpt lat="44.94719" lon="8.9009183"><ele>95.0</ele><time>2026-05-01T09:22:33.099Z</time></trkpt><trkpt lat="44.947395" lon="8.9012067"><ele>94.0</ele><time>2026-05-01T09:22:34.099Z</time></trkpt><trkpt lat="44.9475933" lon="8.9014833"><ele>93.0</ele><time>2026-05-01T09:22:35.1Z</time></trkpt><trkpt lat="44.94798" lon="8.90202"><ele>93.0</ele><time>2026-05-01T09:22:37.099Z</time></trkpt><trkpt lat="44.9481717" lon="8.9022833"><ele>93.0</ele><time>2026-05-01T09:22:38.1Z</time></trkpt><trkpt lat="44.94836" lon="8.9025467"><ele>93.5</ele><time>2026-05-01T09:22:39.099Z</time></trkpt><trkpt lat="44.9485517" lon="8.90281"><ele>94.0</ele><time>2026-05-01T09:22:40.099Z</time></trkpt><trkpt lat="44.9487483" lon="8.9030717"><ele>94.0</ele><time>2026-05-01T09:22:41.1Z</time></trkpt><trkpt lat="44.94894" lon="8.9033367"><ele>94.0</ele><time>2026-05-01T09:22:42.1Z</time></trkpt><trkpt lat="44.9491333" lon="8.90361"><ele>94.0</ele><time>2026-05-01T09:22:43.1Z</time></trkpt><trkpt lat="44.94933" lon="8.903885"><ele>94.0</ele><time>2026-05-01T09:22:44.099Z</time></trkpt><trkpt lat="44.94953" lon="8.9041567"><ele>94.5</ele><time>2026-05-01T09:22:45.1Z</time></trkpt><trkpt lat="44.9497317" lon="8.9044283"><ele>95.0</ele><time>2026-05-01T09:22:46.099Z</time></trkpt><trkpt lat="44.949935" lon="8.9047083"><ele>94.5</ele><time>2026-05-01T09:22:47.099Z</time></trkpt><trkpt lat="44.9501433" lon="8.9049833"><ele>94.0</ele><time>2026-05-01T09:22:48.1Z</time></trkpt><trkpt lat="44.9503433" lon="8.90526"><ele>95.0</ele><time>2026-05-01T09:22:49.099Z</time></trkpt><trkpt lat="44.9505483" lon="8.90554"><ele>96.0</ele><time>2026-05-01T09:22:50.099Z</time></trkpt><trkpt lat="44.9507517" lon="8.9058167"><ele>94.0</ele><time>2026-05-01T09:22:51.099Z</time></trkpt><trkpt lat="44.9509567" lon="8.9060883"><ele>92.0</ele><time>2026-05-01T09:22:52.1Z</time></trkpt><trkpt lat="44.95116" lon="8.9063667"><ele>92.0</ele><time>2026-05-01T09:22:53.099Z</time></trkpt><trkpt lat="44.9513667" lon="8.9066317"><ele>92.0</ele><time>2026-05-01T09:22:54.099Z</time></trkpt><trkpt lat="44.9515633" lon="8.9068983"><ele>92.0</ele><time>2026-05-01T09:22:55.099Z</time></trkpt><trkpt lat="44.9517567" lon="8.9071617"><ele>92.0</ele><time>2026-05-01T09:22:56.099Z</time></trkpt><trkpt lat="44.952135" lon="8.90768"><ele>93.0</ele><time>2026-05-01T09:22:58.099Z</time></trkpt><trkpt lat="44.9523217" lon="8.907935"><ele>94.0</ele><time>2026-05-01T09:22:59.1Z</time></trkpt><trkpt lat="44.9525033" lon="8.9081967"><ele>95.0</ele><time>2026-05-01T09:23:00.1Z</time></trkpt><trkpt lat="44.9526883" lon="8.9084567"><ele>96.0</ele><time>2026-05-01T09:23:01.099Z</time></trkpt><trkpt lat="44.9528817" lon="8.908715"><ele>96.0</ele><time>2026-05-01T09:23:02.1Z</time></trkpt><trkpt lat="44.9530733" lon="8.9089717"><ele>96.0</ele><time>2026-05-01T09:23:03.1Z</time></trkpt><trkpt lat="44.953265" lon="8.9092367"><ele>96.5</ele><time>2026-05-01T09:23:04.1Z</time></trkpt><trkpt lat="44.9534517" lon="8.9095017"><ele>97.0</ele><time>2026-05-01T09:23:05.1Z</time></trkpt><trkpt lat="44.9536433" lon="8.9097683"><ele>97.0</ele><time>2026-05-01T09:23:06.1Z</time></trkpt><trkpt lat="44.9538433" lon="8.9100417"><ele>97.0</ele><time>2026-05-01T09:23:07.099Z</time></trkpt><trkpt lat="44.9540417" lon="8.91031"><ele>95.5</ele><time>2026-05-01T09:23:08.099Z</time></trkpt><trkpt lat="44.9542483" lon="8.9105867"><ele>94.0</ele><time>2026-05-01T09:23:09.099Z</time></trkpt><trkpt lat="44.9544483" lon="8.9108583"><ele>94.0</ele><time>2026-05-01T09:23:10.099Z</time></trkpt><trkpt lat="44.9546467" lon="8.911135"><ele>94.0</ele><time>2026-05-01T09:23:11.1Z</time></trkpt><trkpt lat="44.9548467" lon="8.911405"><ele>94.0</ele><time>2026-05-01T09:23:12.099Z</time></trkpt><trkpt lat="44.955045" lon="8.9116767"><ele>94.0</ele><time>2026-05-01T09:23:13.099Z</time></trkpt><trkpt lat="44.9552417" lon="8.9119367"><ele>94.0</ele><time>2026-05-01T09:23:14.099Z</time></trkpt><trkpt lat="44.9554367" lon="8.9122"><ele>94.0</ele><time>2026-05-01T09:23:15.099Z</time></trkpt><trkpt lat="44.9556333" lon="8.9124633"><ele>94.0</ele><time>2026-05-01T09:23:16.099Z</time></trkpt><trkpt lat="44.9558233" lon="8.9127367"><ele>94.0</ele><time>2026-05-01T09:23:17.1Z</time></trkpt><trkpt lat="44.9562117" lon="8.9132717"><ele>95.0</ele><time>2026-05-01T09:23:19.099Z</time></trkpt><trkpt lat="44.956405" lon="8.913545"><ele>96.0</ele><time>2026-05-01T09:23:20.1Z</time></trkpt><trkpt lat="44.9566033" lon="8.91381"><ele>96.0</ele><time>2026-05-01T09:23:21.099Z</time></trkpt><trkpt lat="44.9567967" lon="8.91407"><ele>96.0</ele><time>2026-05-01T09:23:22.1Z</time></trkpt><trkpt lat="44.9569917" lon="8.9143333"><ele>96.0</ele><time>2026-05-01T09:23:23.1Z</time></trkpt><trkpt lat="44.9571917" lon="8.9145983"><ele>96.0</ele><time>2026-05-01T09:23:24.099Z</time></trkpt><trkpt lat="44.9573867" lon="8.9148667"><ele>95.5</ele><time>2026-05-01T09:23:25.099Z</time></trkpt><trkpt lat="44.9575783" lon="8.915135"><ele>95.0</ele><time>2026-05-01T09:23:26.1Z</time></trkpt><trkpt lat="44.957775" lon="8.9154033"><ele>95.0</ele><time>2026-05-01T09:23:27.1Z</time></trkpt><trkpt lat="44.9579733" lon="8.915675"><ele>95.0</ele><time>2026-05-01T09:23:28.1Z</time></trkpt><trkpt lat="44.95817" lon="8.91594"><ele>94.5</ele><time>2026-05-01T09:23:29.1Z</time></trkpt><trkpt lat="44.9583617" lon="8.9161967"><ele>94.0</ele><time>2026-05-01T09:23:30.1Z</time></trkpt><trkpt lat="44.9585533" lon="8.9164533"><ele>94.0</ele><time>2026-05-01T09:23:31.099Z</time></trkpt><trkpt lat="44.958745" lon="8.91671"><ele>94.0</ele><time>2026-05-01T09:23:32.099Z</time></trkpt><trkpt lat="44.9589383" lon="8.9169633"><ele>93.5</ele><time>2026-05-01T09:23:33.099Z</time></trkpt><trkpt lat="44.9591333" lon="8.9172233"><ele>93.0</ele><time>2026-05-01T09:23:34.1Z</time></trkpt><trkpt lat="44.9593267" lon="8.9174733"><ele>95.0</ele><time>2026-05-01T09:23:35.099Z</time></trkpt><trkpt lat="44.9595233" lon="8.91773"><ele>97.0</ele><time>2026-05-01T09:23:36.099Z</time></trkpt><trkpt lat="44.9597183" lon="8.9179867"><ele>97.0</ele><time>2026-05-01T09:23:37.1Z</time></trkpt><trkpt lat="44.9599133" lon="8.9182467"><ele>97.0</ele><time>2026-05-01T09:23:38.1Z</time></trkpt><trkpt lat="44.960315" lon="8.9187633"><ele>97.0</ele><time>2026-05-01T09:23:40.1Z</time></trkpt><trkpt lat="44.9605133" lon="8.91903"><ele>97.0</ele><time>2026-05-01T09:23:41.1Z</time></trkpt><trkpt lat="44.960715" lon="8.919295"><ele>96.0</ele><time>2026-05-01T09:23:42.099Z</time></trkpt><trkpt lat="44.9609217" lon="8.9195567"><ele>95.0</ele><time>2026-05-01T09:23:43.099Z</time></trkpt><trkpt lat="44.9611267" lon="8.9198183"><ele>95.0</ele><time>2026-05-01T09:23:44.099Z</time></trkpt><trkpt lat="44.961335" lon="8.9200817"><ele>95.0</ele><time>2026-05-01T09:23:45.099Z</time></trkpt><trkpt lat="44.96154" lon="8.9203417"><ele>93.5</ele><time>2026-05-01T09:23:46.099Z</time></trkpt><trkpt lat="44.9617433" lon="8.9206117"><ele>92.0</ele><time>2026-05-01T09:23:47.099Z</time></trkpt><trkpt lat="44.9619517" lon="8.92087"><ele>93.5</ele><time>2026-05-01T09:23:48.1Z</time></trkpt><trkpt lat="44.962155" lon="8.92114"><ele>95.0</ele><time>2026-05-01T09:23:49.1Z</time></trkpt><trkpt lat="44.9623583" lon="8.921405"><ele>95.5</ele><time>2026-05-01T09:23:50.1Z</time></trkpt><trkpt lat="44.9625667" lon="8.9216667"><ele>96.0</ele><time>2026-05-01T09:23:51.099Z</time></trkpt><trkpt lat="44.96277" lon="8.9219267"><ele>96.0</ele><time>2026-05-01T09:23:52.099Z</time></trkpt><trkpt lat="44.962975" lon="8.9221867"><ele>96.0</ele><time>2026-05-01T09:23:53.099Z</time></trkpt><trkpt lat="44.9631717" lon="8.9224383"><ele>95.0</ele><time>2026-05-01T09:23:54.099Z</time></trkpt><trkpt lat="44.9633717" lon="8.9226867"><ele>94.0</ele><time>2026-05-01T09:23:55.099Z</time></trkpt><trkpt lat="44.9635733" lon="8.9229417"><ele>94.0</ele><time>2026-05-01T09:23:56.1Z</time></trkpt><trkpt lat="44.9637733" lon="8.9232033"><ele>94.0</ele><time>2026-05-01T09:23:57.099Z</time></trkpt><trkpt lat="44.963975" lon="8.9234583"><ele>94.0</ele><time>2026-05-01T09:23:58.099Z</time></trkpt><trkpt lat="44.9641733" lon="8.9237217"><ele>94.0</ele><time>2026-05-01T09:23:59.099Z</time></trkpt><trkpt lat="44.9645783" lon="8.92424"><ele>94.5</ele><time>2026-05-01T09:24:01.099Z</time></trkpt><trkpt lat="44.9647817" lon="8.9244917"><ele>95.0</ele><time>2026-05-01T09:24:02.099Z</time></trkpt><trkpt lat="44.9649783" lon="8.924755"><ele>95.0</ele><time>2026-05-01T09:24:03.1Z</time></trkpt><trkpt lat="44.9651767" lon="8.9250117"><ele>95.0</ele><time>2026-05-01T09:24:04.1Z</time></trkpt><trkpt lat="44.9653767" lon="8.925275"><ele>95.0</ele><time>2026-05-01T09:24:05.099Z</time></trkpt><trkpt lat="44.9655783" lon="8.925535"><ele>95.0</ele><time>2026-05-01T09:24:06.099Z</time></trkpt><trkpt lat="44.9657767" lon="8.92579"><ele>95.5</ele><time>2026-05-01T09:24:07.1Z</time></trkpt><trkpt lat="44.9659717" lon="8.9260467"><ele>96.0</ele><time>2026-05-01T09:24:08.099Z</time></trkpt><trkpt lat="44.966175" lon="8.9262983"><ele>96.0</ele><time>2026-05-01T09:24:09.099Z</time></trkpt><trkpt lat="44.9663817" lon="8.926545"><ele>96.0</ele><time>2026-05-01T09:24:10.099Z</time></trkpt><trkpt lat="44.9665817" lon="8.9268017"><ele>94.5</ele><time>2026-05-01T09:24:11.1Z</time></trkpt><trkpt lat="44.9667883" lon="8.9270633"><ele>93.0</ele><time>2026-05-01T09:24:12.099Z</time></trkpt><trkpt lat="44.966995" lon="8.927325"><ele>93.5</ele><time>2026-05-01T09:24:13.1Z</time></trkpt><trkpt lat="44.9672" lon="8.9275883"><ele>94.0</ele><time>2026-05-01T09:24:14.099Z</time></trkpt><trkpt lat="44.9674067" lon="8.9278533"><ele>93.5</ele><time>2026-05-01T09:24:15.1Z</time></trkpt><trkpt lat="44.9676133" lon="8.928115"><ele>93.0</ele><time>2026-05-01T09:24:16.099Z</time></trkpt><trkpt lat="44.9678217" lon="8.928385"><ele>95.0</ele><time>2026-05-01T09:24:17.099Z</time></trkpt><trkpt lat="44.9680283" lon="8.9286517"><ele>97.0</ele><time>2026-05-01T09:24:18.099Z</time></trkpt><trkpt lat="44.968235" lon="8.92892"><ele>95.5</ele><time>2026-05-01T09:24:19.099Z</time></trkpt><trkpt lat="44.96845" lon="8.929185"><ele>94.0</ele><time>2026-05-01T09:24:20.1Z</time></trkpt><trkpt lat="44.9688683" lon="8.929705"><ele>94.0</ele><time>2026-05-01T09:24:22.099Z</time></trkpt><trkpt lat="44.9690733" lon="8.9299667"><ele>94.0</ele><time>2026-05-01T09:24:23.1Z</time></trkpt><trkpt lat="44.969275" lon="8.9302233"><ele>95.0</ele><time>2026-05-01T09:24:24.1Z</time></trkpt><trkpt lat="44.9694717" lon="8.9304733"><ele>96.0</ele><time>2026-05-01T09:24:25.099Z</time></trkpt><trkpt lat="44.9696617" lon="8.9307283"><ele>95.5</ele><time>2026-05-01T09:24:26.099Z</time></trkpt><trkpt lat="44.96986" lon="8.9309733"><ele>95.0</ele><time>2026-05-01T09:24:27.099Z</time></trkpt><trkpt lat="44.9700567" lon="8.9312283"><ele>94.5</ele><time>2026-05-01T09:24:28.099Z</time></trkpt><trkpt lat="44.9702467" lon="8.9314817"><ele>94.0</ele><time>2026-05-01T09:24:29.099Z</time></trkpt><trkpt lat="44.970445" lon="8.9317283"><ele>94.0</ele><time>2026-05-01T09:24:30.1Z</time></trkpt><trkpt lat="44.9706417" lon="8.9319733"><ele>94.0</ele><time>2026-05-01T09:24:31.099Z</time></trkpt><trkpt lat="44.9708383" lon="8.932225"><ele>94.0</ele><time>2026-05-01T09:24:32.1Z</time></trkpt><trkpt lat="44.9710283" lon="8.9324717"><ele>94.0</ele><time>2026-05-01T09:24:33.099Z</time></trkpt><trkpt lat="44.9712233" lon="8.932725"><ele>94.0</ele><time>2026-05-01T09:24:34.1Z</time></trkpt><trkpt lat="44.9714167" lon="8.93298"><ele>94.0</ele><time>2026-05-01T09:24:35.1Z</time></trkpt><trkpt lat="44.9716183" lon="8.9332367"><ele>95.0</ele><time>2026-05-01T09:24:36.1Z</time></trkpt><trkpt lat="44.97182" lon="8.9334917"><ele>96.0</ele><time>2026-05-01T09:24:37.1Z</time></trkpt><trkpt lat="44.972025" lon="8.933755"><ele>96.0</ele><time>2026-05-01T09:24:38.1Z</time></trkpt><trkpt lat="44.97223" lon="8.9340167"><ele>96.0</ele><time>2026-05-01T09:24:39.1Z</time></trkpt><trkpt lat="44.97243" lon="8.934285"><ele>94.5</ele><time>2026-05-01T09:24:40.1Z</time></trkpt><trkpt lat="44.972625" lon="8.934545"><ele>93.0</ele><time>2026-05-01T09:24:41.099Z</time></trkpt><trkpt lat="44.9730033" lon="8.93505"><ele>93.5</ele><time>2026-05-01T09:24:43.099Z</time></trkpt><trkpt lat="44.9731917" lon="8.9353083"><ele>94.0</ele><time>2026-05-01T09:24:44.099Z</time></trkpt><trkpt lat="44.9733833" lon="8.935565"><ele>94.0</ele><time>2026-05-01T09:24:45.099Z</time></trkpt><trkpt lat="44.9735783" lon="8.9358183"><ele>94.0</ele><time>2026-05-01T09:24:46.1Z</time></trkpt><trkpt lat="44.9737733" lon="8.9360683"><ele>94.0</ele><time>2026-05-01T09:24:47.1Z</time></trkpt><trkpt lat="44.9739683" lon="8.936315"><ele>94.0</ele><time>2026-05-01T09:24:48.1Z</time></trkpt><trkpt lat="44.97416" lon="8.936565"><ele>93.5</ele><time>2026-05-01T09:24:49.1Z</time></trkpt><trkpt lat="44.9743533" lon="8.9368167"><ele>93.0</ele><time>2026-05-01T09:24:50.1Z</time></trkpt><trkpt lat="44.9745483" lon="8.9370767"><ele>93.0</ele><time>2026-05-01T09:24:51.099Z</time></trkpt><trkpt lat="44.974745" lon="8.9373267"><ele>93.0</ele><time>2026-05-01T09:24:52.1Z</time></trkpt><trkpt lat="44.97494" lon="8.9375767"><ele>91.5</ele><time>2026-05-01T09:24:53.099Z</time></trkpt><trkpt lat="44.975135" lon="8.93783"><ele>90.0</ele><time>2026-05-01T09:24:54.099Z</time></trkpt><trkpt lat="44.9753283" lon="8.938085"><ele>90.0</ele><time>2026-05-01T09:24:55.099Z</time></trkpt><trkpt lat="44.9755267" lon="8.9383383"><ele>90.0</ele><time>2026-05-01T09:24:56.1Z</time></trkpt><trkpt lat="44.9757267" lon="8.9385933"><ele>89.5</ele><time>2026-05-01T09:24:57.099Z</time></trkpt><trkpt lat="44.975925" lon="8.9388483"><ele>89.0</ele><time>2026-05-01T09:24:58.099Z</time></trkpt><trkpt lat="44.976125" lon="8.9390967"><ele>89.5</ele><time>2026-05-01T09:24:59.099Z</time></trkpt><trkpt lat="44.976325" lon="8.9393433"><ele>90.0</ele><time>2026-05-01T09:25:00.1Z</time></trkpt><trkpt lat="44.97652" lon="8.93959"><ele>90.0</ele><time>2026-05-01T09:25:01.1Z</time></trkpt><trkpt lat="44.97691" lon="8.940095"><ele>90.0</ele><time>2026-05-01T09:25:03.099Z</time></trkpt><trkpt lat="44.9771067" lon="8.940345"><ele>90.0</ele><time>2026-05-01T09:25:04.099Z</time></trkpt><trkpt lat="44.9773033" lon="8.9405983"><ele>90.0</ele><time>2026-05-01T09:25:05.099Z</time></trkpt><trkpt lat="44.9775017" lon="8.940855"><ele>90.0</ele><time>2026-05-01T09:25:06.099Z</time></trkpt><trkpt lat="44.9777" lon="8.9411133"><ele>89.5</ele><time>2026-05-01T09:25:07.099Z</time></trkpt><trkpt lat="44.9779033" lon="8.9413717"><ele>89.0</ele><time>2026-05-01T09:25:08.1Z</time></trkpt><trkpt lat="44.978105" lon="8.9416367"><ele>89.0</ele><time>2026-05-01T09:25:09.099Z</time></trkpt><trkpt lat="44.97831" lon="8.9419017"><ele>89.0</ele><time>2026-05-01T09:25:10.1Z</time></trkpt><trkpt lat="44.978515" lon="8.9421633"><ele>89.0</ele><time>2026-05-01T09:25:11.1Z</time></trkpt><trkpt lat="44.9787183" lon="8.94243"><ele>89.0</ele><time>2026-05-01T09:25:12.1Z</time></trkpt><trkpt lat="44.9789267" lon="8.9426867"><ele>88.5</ele><time>2026-05-01T09:25:13.099Z</time></trkpt><trkpt lat="44.9791283" lon="8.9429567"><ele>88.0</ele><time>2026-05-01T09:25:14.1Z</time></trkpt><trkpt lat="44.97933" lon="8.9432217"><ele>88.0</ele><time>2026-05-01T09:25:15.099Z</time></trkpt><trkpt lat="44.979535" lon="8.94348"><ele>88.0</ele><time>2026-05-01T09:25:16.099Z</time></trkpt><trkpt lat="44.97974" lon="8.94374"><ele>88.0</ele><time>2026-05-01T09:25:17.1Z</time></trkpt><trkpt lat="44.9799483" lon="8.9440017"><ele>88.0</ele><time>2026-05-01T09:25:18.1Z</time></trkpt><trkpt lat="44.9801533" lon="8.9442683"><ele>88.0</ele><time>2026-05-01T09:25:19.099Z</time></trkpt><trkpt lat="44.9803583" lon="8.9445267"><ele>88.0</ele><time>2026-05-01T09:25:20.1Z</time></trkpt><trkpt lat="44.9805633" lon="8.9447867"><ele>88.5</ele><time>2026-05-01T09:25:21.1Z</time></trkpt><trkpt lat="44.9807683" lon="8.9450483"><ele>89.0</ele><time>2026-05-01T09:25:22.099Z</time></trkpt><trkpt lat="44.9811683" lon="8.9455633"><ele>89.0</ele><time>2026-05-01T09:25:24.1Z</time></trkpt><trkpt lat="44.9813667" lon="8.94582"><ele>89.0</ele><time>2026-05-01T09:25:25.1Z</time></trkpt><trkpt lat="44.9815683" lon="8.9460717"><ele>89.5</ele><time>2026-05-01T09:25:26.099Z</time></trkpt><trkpt lat="44.981765" lon="8.9463233"><ele>90.0</ele><time>2026-05-01T09:25:27.099Z</time></trkpt><trkpt lat="44.981965" lon="8.94658"><ele>89.5</ele><time>2026-05-01T09:25:28.099Z</time></trkpt><trkpt lat="44.9821633" lon="8.9468317"><ele>89.0</ele><time>2026-05-01T09:25:29.099Z</time></trkpt><trkpt lat="44.9823583" lon="8.947085"><ele>89.0</ele><time>2026-05-01T09:25:30.099Z</time></trkpt><trkpt lat="44.9825567" lon="8.9473433"><ele>89.0</ele><time>2026-05-01T09:25:31.099Z</time></trkpt><trkpt lat="44.9827533" lon="8.9476017"><ele>89.0</ele><time>2026-05-01T09:25:32.099Z</time></trkpt><trkpt lat="44.9829533" lon="8.94786"><ele>89.0</ele><time>2026-05-01T09:25:33.099Z</time></trkpt><trkpt lat="44.983155" lon="8.9481217"><ele>87.5</ele><time>2026-05-01T09:25:34.099Z</time></trkpt><trkpt lat="44.9833583" lon="8.948385"><ele>86.0</ele><time>2026-05-01T09:25:35.099Z</time></trkpt><trkpt lat="44.9835617" lon="8.9486467"><ele>86.0</ele><time>2026-05-01T09:25:36.1Z</time></trkpt><trkpt lat="44.9837667" lon="8.9489067"><ele>86.0</ele><time>2026-05-01T09:25:37.1Z</time></trkpt><trkpt lat="44.98397" lon="8.9491667"><ele>86.5</ele><time>2026-05-01T09:25:38.099Z</time></trkpt><trkpt lat="44.984175" lon="8.9494333"><ele>87.0</ele><time>2026-05-01T09:25:39.1Z</time></trkpt><trkpt lat="44.98438" lon="8.949695"><ele>87.0</ele><time>2026-05-01T09:25:40.099Z</time></trkpt><trkpt lat="44.9845883" lon="8.9499567"><ele>87.0</ele><time>2026-05-01T09:25:41.1Z</time></trkpt><trkpt lat="44.984795" lon="8.95022"><ele>86.0</ele><time>2026-05-01T09:25:42.1Z</time></trkpt><trkpt lat="44.9852033" lon="8.9507533"><ele>86.5</ele><time>2026-05-01T09:25:44.099Z</time></trkpt><trkpt lat="44.9854133" lon="8.951015"><ele>87.0</ele><time>2026-05-01T09:25:45.1Z</time></trkpt><trkpt lat="44.9856217" lon="8.95128"><ele>87.0</ele><time>2026-05-01T09:25:46.099Z</time></trkpt><trkpt lat="44.98583" lon="8.9515417"><ele>87.0</ele><time>2026-05-01T09:25:47.1Z</time></trkpt><trkpt lat="44.9860383" lon="8.9518117"><ele>87.5</ele><time>2026-05-01T09:25:48.1Z</time></trkpt><trkpt lat="44.98625" lon="8.9520767"><ele>88.0</ele><time>2026-05-01T09:25:49.1Z</time></trkpt><trkpt lat="44.9864617" lon="8.95234"><ele>88.0</ele><time>2026-05-01T09:25:50.099Z</time></trkpt><trkpt lat="44.986665" lon="8.9526067"><ele>88.0</ele><time>2026-05-01T09:25:51.099Z</time></trkpt><trkpt lat="44.9868617" lon="8.9528617"><ele>86.0</ele><time>2026-05-01T09:25:52.1Z</time></trkpt><trkpt lat="44.9870617" lon="8.95311"><ele>84.0</ele><time>2026-05-01T09:25:53.099Z</time></trkpt><trkpt lat="44.9872567" lon="8.9533667"><ele>85.0</ele><time>2026-05-01T09:25:54.1Z</time></trkpt><trkpt lat="44.9874567" lon="8.9536217"><ele>86.0</ele><time>2026-05-01T09:25:55.099Z</time></trkpt><trkpt lat="44.9876533" lon="8.9538733"><ele>86.0</ele><time>2026-05-01T09:25:56.099Z</time></trkpt><trkpt lat="44.9878517" lon="8.9541267"><ele>86.0</ele><time>2026-05-01T09:25:57.099Z</time></trkpt><trkpt lat="44.9880483" lon="8.9543833"><ele>86.0</ele><time>2026-05-01T09:25:58.099Z</time></trkpt><trkpt lat="44.9882433" lon="8.9546367"><ele>86.0</ele><time>2026-05-01T09:25:59.1Z</time></trkpt><trkpt lat="44.98844" lon="8.954885"><ele>85.5</ele><time>2026-05-01T09:26:00.099Z</time></trkpt><trkpt lat="44.9886367" lon="8.9551333"><ele>85.0</ele><time>2026-05-01T09:26:01.1Z</time></trkpt><trkpt lat="44.9888283" lon="8.9553817"><ele>85.0</ele><time>2026-05-01T09:26:02.1Z</time></trkpt><trkpt lat="44.98902" lon="8.95563"><ele>85.0</ele><time>2026-05-01T09:26:03.1Z</time></trkpt><trkpt lat="44.9894033" lon="8.9561283"><ele>84.5</ele><time>2026-05-01T09:26:05.099Z</time></trkpt><trkpt lat="44.9895967" lon="8.9563833"><ele>84.0</ele><time>2026-05-01T09:26:06.099Z</time></trkpt><trkpt lat="44.98979" lon="8.95664"><ele>85.0</ele><time>2026-05-01T09:26:07.1Z</time></trkpt><trkpt lat="44.989985" lon="8.9568967"><ele>86.0</ele><time>2026-05-01T09:26:08.1Z</time></trkpt><trkpt lat="44.9901783" lon="8.9571583"><ele>86.0</ele><time>2026-05-01T09:26:09.099Z</time></trkpt><trkpt lat="44.9903733" lon="8.9574183"><ele>86.0</ele><time>2026-05-01T09:26:10.1Z</time></trkpt><trkpt lat="44.990565" lon="8.9576833"><ele>86.0</ele><time>2026-05-01T09:26:11.099Z</time></trkpt><trkpt lat="44.9907567" lon="8.95795"><ele>86.0</ele><time>2026-05-01T09:26:12.1Z</time></trkpt><trkpt lat="44.9909483" lon="8.9582083"><ele>86.5</ele><time>2026-05-01T09:26:13.099Z</time></trkpt><trkpt lat="44.9911383" lon="8.9584767"><ele>87.0</ele><time>2026-05-01T09:26:14.099Z</time></trkpt><trkpt lat="44.9913283" lon="8.9587383"><ele>87.0</ele><time>2026-05-01T09:26:15.099Z</time></trkpt><trkpt lat="44.991515" lon="8.95901"><ele>87.0</ele><time>2026-05-01T09:26:16.099Z</time></trkpt><trkpt lat="44.9917017" lon="8.9592733"><ele>86.5</ele><time>2026-05-01T09:26:17.1Z</time></trkpt><trkpt lat="44.9918817" lon="8.95955"><ele>86.0</ele><time>2026-05-01T09:26:18.1Z</time></trkpt><trkpt lat="44.99207" lon="8.9598233"><ele>86.0</ele><time>2026-05-01T09:26:19.099Z</time></trkpt><trkpt lat="44.9922517" lon="8.9600967"><ele>86.0</ele><time>2026-05-01T09:26:20.099Z</time></trkpt><trkpt lat="44.9924383" lon="8.9603667"><ele>86.0</ele><time>2026-05-01T09:26:21.1Z</time></trkpt><trkpt lat="44.99262" lon="8.960635"><ele>86.0</ele><time>2026-05-01T09:26:22.099Z</time></trkpt><trkpt lat="44.9928033" lon="8.9609133"><ele>86.0</ele><time>2026-05-01T09:26:23.1Z</time></trkpt><trkpt lat="44.9929867" lon="8.9611917"><ele>86.0</ele><time>2026-05-01T09:26:24.099Z</time></trkpt><trkpt lat="44.9933567" lon="8.9617533"><ele>86.0</ele><time>2026-05-01T09:26:26.1Z</time></trkpt><trkpt lat="44.9935433" lon="8.96203"><ele>86.0</ele><time>2026-05-01T09:26:27.1Z</time></trkpt><trkpt lat="44.993725" lon="8.9623117"><ele>86.5</ele><time>2026-05-01T09:26:28.099Z</time></trkpt><trkpt lat="44.9939083" lon="8.9625917"><ele>87.0</ele><time>2026-05-01T09:26:29.1Z</time></trkpt><trkpt lat="44.994095" lon="8.9628733"><ele>87.0</ele><time>2026-05-01T09:26:30.1Z</time></trkpt><trkpt lat="44.9942817" lon="8.9631533"><ele>87.0</ele><time>2026-05-01T09:26:31.099Z</time></trkpt><trkpt lat="44.9944733" lon="8.963435"><ele>87.0</ele><time>2026-05-01T09:26:32.099Z</time></trkpt><trkpt lat="44.9946633" lon="8.9637233"><ele>87.0</ele><time>2026-05-01T09:26:33.1Z</time></trkpt><trkpt lat="44.9948517" lon="8.9640067"><ele>86.5</ele><time>2026-05-01T09:26:34.099Z</time></trkpt><trkpt lat="44.9950417" lon="8.9642867"><ele>86.0</ele><time>2026-05-01T09:26:35.099Z</time></trkpt><trkpt lat="44.99523" lon="8.9645717"><ele>86.0</ele><time>2026-05-01T09:26:36.1Z</time></trkpt><trkpt lat="44.9954183" lon="8.96486"><ele>86.0</ele><time>2026-05-01T09:26:37.099Z</time></trkpt><trkpt lat="44.9956033" lon="8.9651467"><ele>86.0</ele><time>2026-05-01T09:26:38.099Z</time></trkpt><trkpt lat="44.9957933" lon="8.9654317"><ele>86.0</ele><time>2026-05-01T09:26:39.1Z</time></trkpt><trkpt lat="44.9959783" lon="8.9657083"><ele>86.5</ele><time>2026-05-01T09:26:40.099Z</time></trkpt><trkpt lat="44.9961617" lon="8.9659883"><ele>87.0</ele><time>2026-05-01T09:26:41.099Z</time></trkpt><trkpt lat="44.9963467" lon="8.9662667"><ele>87.0</ele><time>2026-05-01T09:26:42.1Z</time></trkpt><trkpt lat="44.9965317" lon="8.9665467"><ele>87.0</ele><time>2026-05-01T09:26:43.099Z</time></trkpt><trkpt lat="44.9967133" lon="8.9668283"><ele>87.0</ele><time>2026-05-01T09:26:44.099Z</time></trkpt><trkpt lat="44.9969" lon="8.9671183"><ele>87.0</ele><time>2026-05-01T09:26:45.099Z</time></trkpt><trkpt lat="44.9972783" lon="8.967685"><ele>87.0</ele><time>2026-05-01T09:26:47.1Z</time></trkpt><trkpt lat="44.997465" lon="8.9679717"><ele>87.0</ele><time>2026-05-01T09:26:48.1Z</time></trkpt><trkpt lat="44.997655" lon="8.9682533"><ele>87.0</ele><time>2026-05-01T09:26:49.099Z</time></trkpt><trkpt lat="44.9978417" lon="8.9685383"><ele>87.0</ele><time>2026-05-01T09:26:50.1Z</time></trkpt><trkpt lat="44.998035" lon="8.9688233"><ele>87.0</ele><time>2026-05-01T09:26:51.099Z</time></trkpt><trkpt lat="44.9982233" lon="8.9691117"><ele>87.0</ele><time>2026-05-01T09:26:52.099Z</time></trkpt><trkpt lat="44.9984117" lon="8.9694083"><ele>86.5</ele><time>2026-05-01T09:26:53.099Z</time></trkpt><trkpt lat="44.9986033" lon="8.9696933"><ele>86.0</ele><time>2026-05-01T09:26:54.1Z</time></trkpt><trkpt lat="44.9987867" lon="8.9699833"><ele>86.0</ele><time>2026-05-01T09:26:55.099Z</time></trkpt><trkpt lat="44.9989767" lon="8.9702683"><ele>86.0</ele><time>2026-05-01T09:26:56.1Z</time></trkpt><trkpt lat="44.9991667" lon="8.9705533"><ele>86.0</ele><time>2026-05-01T09:26:57.099Z</time></trkpt><trkpt lat="44.99936" lon="8.9708417"><ele>86.0</ele><time>2026-05-01T09:26:58.099Z</time></trkpt><trkpt lat="44.9995517" lon="8.97113"><ele>86.0</ele><time>2026-05-01T09:26:59.1Z</time></trkpt><trkpt lat="44.9997417" lon="8.9714217"><ele>86.0</ele><time>2026-05-01T09:27:00.1Z</time></trkpt><trkpt lat="44.9999317" lon="8.9717083"><ele>85.5</ele><time>2026-05-01T09:27:01.099Z</time></trkpt><trkpt lat="45.0001233" lon="8.9720033"><ele>85.0</ele><time>2026-05-01T09:27:02.1Z</time></trkpt><trkpt lat="45.0003117" lon="8.9723083"><ele>84.5</ele><time>2026-05-01T09:27:03.1Z</time></trkpt><trkpt lat="45.0004983" lon="8.9726117"><ele>84.0</ele><time>2026-05-01T09:27:04.099Z</time></trkpt><trkpt lat="45.00068" lon="8.9729117"><ele>84.0</ele><time>2026-05-01T09:27:05.1Z</time></trkpt><trkpt lat="45.0008633" lon="8.9732133"><ele>84.0</ele><time>2026-05-01T09:27:06.099Z</time></trkpt><trkpt lat="45.0012117" lon="8.9738267"><ele>84.0</ele><time>2026-05-01T09:27:08.099Z</time></trkpt><trkpt lat="45.00139" lon="8.9741333"><ele>84.0</ele><time>2026-05-01T09:27:09.099Z</time></trkpt><trkpt lat="45.0015567" lon="8.9744333"><ele>84.0</ele><time>2026-05-01T09:27:10.1Z</time></trkpt><trkpt lat="45.00172" lon="8.9747333"><ele>84.0</ele><time>2026-05-01T09:27:11.1Z</time></trkpt><trkpt lat="45.0018817" lon="8.9750333"><ele>82.5</ele><time>2026-05-01T09:27:12.099Z</time></trkpt><trkpt lat="45.00204" lon="8.9753317"><ele>81.0</ele><time>2026-05-01T09:27:13.1Z</time></trkpt><trkpt lat="45.0022067" lon="8.9756417"><ele>81.0</ele><time>2026-05-01T09:27:14.099Z</time></trkpt><trkpt lat="45.0023633" lon="8.9759517"><ele>81.0</ele><time>2026-05-01T09:27:15.099Z</time></trkpt><trkpt lat="45.002525" lon="8.9762633"><ele>81.0</ele><time>2026-05-01T09:27:16.1Z</time></trkpt><trkpt lat="45.0026783" lon="8.976585"><ele>81.0</ele><time>2026-05-01T09:27:17.099Z</time></trkpt><trkpt lat="45.0028317" lon="8.9769033"><ele>81.0</ele><time>2026-05-01T09:27:18.099Z</time></trkpt><trkpt lat="45.00298" lon="8.977225"><ele>81.0</ele><time>2026-05-01T09:27:19.099Z</time></trkpt><trkpt lat="45.003135" lon="8.9775483"><ele>81.5</ele><time>2026-05-01T09:27:20.099Z</time></trkpt><trkpt lat="45.0032917" lon="8.9778767"><ele>82.0</ele><time>2026-05-01T09:27:21.099Z</time></trkpt><trkpt lat="45.0034433" lon="8.9782117"><ele>82.0</ele><time>2026-05-01T09:27:22.099Z</time></trkpt><trkpt lat="45.0035983" lon="8.9785483"><ele>82.0</ele><time>2026-05-01T09:27:23.099Z</time></trkpt><trkpt lat="45.0037483" lon="8.97888"><ele>82.0</ele><time>2026-05-01T09:27:24.1Z</time></trkpt><trkpt lat="45.0038917" lon="8.9791983"><ele>82.0</ele><time>2026-05-01T09:27:25.1Z</time></trkpt><trkpt lat="45.0040333" lon="8.9795167"><ele>82.0</ele><time>2026-05-01T09:27:26.1Z</time></trkpt><trkpt lat="45.00417" lon="8.9798317"><ele>82.0</ele><time>2026-05-01T09:27:27.099Z</time></trkpt><trkpt lat="45.0044317" lon="8.9804617"><ele>82.0</ele><time>2026-05-01T09:27:29.1Z</time></trkpt><trkpt lat="45.004565" lon="8.9807817"><ele>82.0</ele><time>2026-05-01T09:27:30.1Z</time></trkpt><trkpt lat="45.004695" lon="8.9811117"><ele>82.0</ele><time>2026-05-01T09:27:31.1Z</time></trkpt><trkpt lat="45.0048233" lon="8.9814467"><ele>82.0</ele><time>2026-05-01T09:27:32.1Z</time></trkpt><trkpt lat="45.0049583" lon="8.981785"><ele>82.5</ele><time>2026-05-01T09:27:33.1Z</time></trkpt><trkpt lat="45.00509" lon="8.982135"><ele>83.0</ele><time>2026-05-01T09:27:34.099Z</time></trkpt><trkpt lat="45.00522" lon="8.9824867"><ele>82.5</ele><time>2026-05-01T09:27:35.1Z</time></trkpt><trkpt lat="45.0053467" lon="8.9828317"><ele>82.0</ele><time>2026-05-01T09:27:36.099Z</time></trkpt><trkpt lat="45.0054733" lon="8.9831783"><ele>82.0</ele><time>2026-05-01T09:27:37.099Z</time></trkpt><trkpt lat="45.0056" lon="8.9835233"><ele>82.0</ele><time>2026-05-01T09:27:38.099Z</time></trkpt><trkpt lat="45.00573" lon="8.9838617"><ele>81.0</ele><time>2026-05-01T09:27:39.099Z</time></trkpt><trkpt lat="45.0058533" lon="8.984205"><ele>80.0</ele><time>2026-05-01T09:27:40.099Z</time></trkpt><trkpt lat="45.005975" lon="8.9845433"><ele>80.0</ele><time>2026-05-01T09:27:41.099Z</time></trkpt><trkpt lat="45.0061" lon="8.9848817"><ele>80.0</ele><time>2026-05-01T09:27:42.099Z</time></trkpt><trkpt lat="45.0062267" lon="8.9852217"><ele>79.5</ele><time>2026-05-01T09:27:43.099Z</time></trkpt><trkpt lat="45.0063517" lon="8.9855567"><ele>79.0</ele><time>2026-05-01T09:27:44.099Z</time></trkpt><trkpt lat="45.006475" lon="8.9858917"><ele>79.0</ele><time>2026-05-01T09:27:45.1Z</time></trkpt><trkpt lat="45.0066017" lon="8.98623"><ele>79.0</ele><time>2026-05-01T09:27:46.1Z</time></trkpt><trkpt lat="45.0067267" lon="8.9865583"><ele>79.5</ele><time>2026-05-01T09:27:47.099Z</time></trkpt><trkpt lat="45.0068533" lon="8.9868917"><ele>80.0</ele><time>2026-05-01T09:27:48.099Z</time></trkpt><trkpt lat="45.0070967" lon="8.9875683"><ele>80.0</ele><time>2026-05-01T09:27:50.1Z</time></trkpt><trkpt lat="45.0072183" lon="8.9879"><ele>80.0</ele><time>2026-05-01T09:27:51.099Z</time></trkpt><trkpt lat="45.0073367" lon="8.9882333"><ele>80.5</ele><time>2026-05-01T09:27:52.099Z</time></trkpt><trkpt lat="45.0074583" lon="8.9885667"><ele>81.0</ele><time>2026-05-01T09:27:53.099Z</time></trkpt><trkpt lat="45.0075817" lon="8.9888967"><ele>81.5</ele><time>2026-05-01T09:27:54.099Z</time></trkpt><trkpt lat="45.007705" lon="8.9892283"><ele>82.0</ele><time>2026-05-01T09:27:55.099Z</time></trkpt><trkpt lat="45.007835" lon="8.9895583"><ele>82.0</ele><time>2026-05-01T09:27:56.1Z</time></trkpt><trkpt lat="45.0079617" lon="8.9898917"><ele>82.0</ele><time>2026-05-01T09:27:57.099Z</time></trkpt><trkpt lat="45.0080883" lon="8.990225"><ele>82.0</ele><time>2026-05-01T09:27:58.099Z</time></trkpt><trkpt lat="45.0082167" lon="8.9905567"><ele>82.0</ele><time>2026-05-01T09:27:59.1Z</time></trkpt><trkpt lat="45.0083367" lon="8.9909067"><ele>80.0</ele><time>2026-05-01T09:28:00.099Z</time></trkpt><trkpt lat="45.0084667" lon="8.99125"><ele>78.0</ele><time>2026-05-01T09:28:01.099Z</time></trkpt><trkpt lat="45.0085933" lon="8.9915917"><ele>78.5</ele><time>2026-05-01T09:28:02.1Z</time></trkpt><trkpt lat="45.0087167" lon="8.9919367"><ele>79.0</ele><time>2026-05-01T09:28:03.099Z</time></trkpt><trkpt lat="45.0088417" lon="8.9922833"><ele>80.0</ele><time>2026-05-01T09:28:04.1Z</time></trkpt><trkpt lat="45.0089683" lon="8.9926283"><ele>81.0</ele><time>2026-05-01T09:28:05.099Z</time></trkpt><trkpt lat="45.0090967" lon="8.9929783"><ele>82.5</ele><time>2026-05-01T09:28:06.1Z</time></trkpt><trkpt lat="45.00922" lon="8.9933167"><ele>84.0</ele><time>2026-05-01T09:28:07.1Z</time></trkpt><trkpt lat="45.009345" lon="8.99364"><ele>84.0</ele><time>2026-05-01T09:28:08.099Z</time></trkpt><trkpt lat="45.009465" lon="8.99397"><ele>84.0</ele><time>2026-05-01T09:28:09.099Z</time></trkpt><trkpt lat="45.00971" lon="8.9946433"><ele>83.0</ele><time>2026-05-01T09:28:11.1Z</time></trkpt><trkpt lat="45.00984" lon="8.9949817"><ele>82.0</ele><time>2026-05-01T09:28:12.1Z</time></trkpt><trkpt lat="45.0099683" lon="8.99532"><ele>81.5</ele><time>2026-05-01T09:28:13.1Z</time></trkpt><trkpt lat="45.0100917" lon="8.9956517"><ele>81.0</ele><time>2026-05-01T09:28:14.099Z</time></trkpt><trkpt lat="45.0102117" lon="8.9959817"><ele>81.0</ele><time>2026-05-01T09:28:15.099Z</time></trkpt><trkpt lat="45.0103317" lon="8.9963083"><ele>81.0</ele><time>2026-05-01T09:28:16.1Z</time></trkpt><trkpt lat="45.0104517" lon="8.9966333"><ele>81.0</ele><time>2026-05-01T09:28:17.099Z</time></trkpt><trkpt lat="45.0105683" lon="8.99695"><ele>81.0</ele><time>2026-05-01T09:28:18.099Z</time></trkpt><trkpt lat="45.0106867" lon="8.9972733"><ele>80.5</ele><time>2026-05-01T09:28:19.099Z</time></trkpt><trkpt lat="45.0108033" lon="8.9976017"><ele>80.0</ele><time>2026-05-01T09:28:20.1Z</time></trkpt><trkpt lat="45.0109283" lon="8.9979233"><ele>80.0</ele><time>2026-05-01T09:28:21.099Z</time></trkpt><trkpt lat="45.01105" lon="8.99825"><ele>80.0</ele><time>2026-05-01T09:28:22.1Z</time></trkpt><trkpt lat="45.0111717" lon="8.9985783"><ele>80.0</ele><time>2026-05-01T09:28:23.099Z</time></trkpt><trkpt lat="45.0112933" lon="8.9989"><ele>80.0</ele><time>2026-05-01T09:28:24.098Z</time></trkpt><trkpt lat="45.0114133" lon="8.9992267"><ele>80.5</ele><time>2026-05-01T09:28:25.098Z</time></trkpt><trkpt lat="45.0115283" lon="8.99956"><ele>81.0</ele><time>2026-05-01T09:28:26.099Z</time></trkpt><trkpt lat="45.0116483" lon="8.9998983"><ele>81.5</ele><time>2026-05-01T09:28:27.098Z</time></trkpt><trkpt lat="45.01177" lon="9.000235"><ele>82.0</ele><time>2026-05-01T09:28:28.099Z</time></trkpt><trkpt lat="45.0118833" lon="9.0005733"><ele>82.0</ele><time>2026-05-01T09:28:29.099Z</time></trkpt><trkpt lat="45.0119983" lon="9.0009117"><ele>82.0</ele><time>2026-05-01T09:28:30.098Z</time></trkpt><trkpt lat="45.01223" lon="9.0015967"><ele>81.0</ele><time>2026-05-01T09:28:32.099Z</time></trkpt><trkpt lat="45.0123433" lon="9.001945"><ele>80.0</ele><time>2026-05-01T09:28:33.098Z</time></trkpt><trkpt lat="45.0124583" lon="9.0022933"><ele>80.5</ele><time>2026-05-01T09:28:34.098Z</time></trkpt><trkpt lat="45.0125733" lon="9.0026367"><ele>81.0</ele><time>2026-05-01T09:28:35.098Z</time></trkpt><trkpt lat="45.01269" lon="9.0029983"><ele>81.5</ele><time>2026-05-01T09:28:36.098Z</time></trkpt><trkpt lat="45.0128033" lon="9.0033417"><ele>82.0</ele><time>2026-05-01T09:28:37.099Z</time></trkpt><trkpt lat="45.0129117" lon="9.0036933"><ele>82.0</ele><time>2026-05-01T09:28:38.099Z</time></trkpt><trkpt lat="45.0130183" lon="9.0040517"><ele>82.0</ele><time>2026-05-01T09:28:39.098Z</time></trkpt><trkpt lat="45.0131233" lon="9.0044133"><ele>82.0</ele><time>2026-05-01T09:28:40.098Z</time></trkpt><trkpt lat="45.0132267" lon="9.0047783"><ele>82.0</ele><time>2026-05-01T09:28:41.098Z</time></trkpt><trkpt lat="45.0133333" lon="9.00514"><ele>82.0</ele><time>2026-05-01T09:28:42.098Z</time></trkpt><trkpt lat="45.0134383" lon="9.0054917"><ele>82.0</ele><time>2026-05-01T09:28:43.099Z</time></trkpt><trkpt lat="45.0135333" lon="9.0058417"><ele>81.5</ele><time>2026-05-01T09:28:44.099Z</time></trkpt><trkpt lat="45.0136267" lon="9.0061917"><ele>81.0</ele><time>2026-05-01T09:28:45.098Z</time></trkpt><trkpt lat="45.013725" lon="9.0065367"><ele>80.5</ele><time>2026-05-01T09:28:46.098Z</time></trkpt><trkpt lat="45.01382" lon="9.0068917"><ele>80.0</ele><time>2026-05-01T09:28:47.098Z</time></trkpt><trkpt lat="45.0139117" lon="9.00724"><ele>80.0</ele><time>2026-05-01T09:28:48.098Z</time></trkpt><trkpt lat="45.0140083" lon="9.0075883"><ele>80.0</ele><time>2026-05-01T09:28:49.099Z</time></trkpt><trkpt lat="45.0141017" lon="9.0079417"><ele>80.0</ele><time>2026-05-01T09:28:50.098Z</time></trkpt><trkpt lat="45.0141883" lon="9.008295"><ele>80.0</ele><time>2026-05-01T09:28:51.098Z</time></trkpt><trkpt lat="45.0143733" lon="9.0090067"><ele>80.0</ele><time>2026-05-01T09:28:53.099Z</time></trkpt><trkpt lat="45.0144633" lon="9.0093617"><ele>80.0</ele><time>2026-05-01T09:28:54.098Z</time></trkpt><trkpt lat="45.01455" lon="9.0097233"><ele>80.5</ele><time>2026-05-01T09:28:55.098Z</time></trkpt><trkpt lat="45.014635" lon="9.0100833"><ele>81.0</ele><time>2026-05-01T09:28:56.098Z</time></trkpt><trkpt lat="45.0147217" lon="9.010445"><ele>81.0</ele><time>2026-05-01T09:28:57.098Z</time></trkpt><trkpt lat="45.01481" lon="9.0108017"><ele>81.0</ele><time>2026-05-01T09:28:58.098Z</time></trkpt><trkpt lat="45.014895" lon="9.011165"><ele>81.5</ele><time>2026-05-01T09:28:59.098Z</time></trkpt><trkpt lat="45.0149817" lon="9.0115267"><ele>82.0</ele><time>2026-05-01T09:29:00.099Z</time></trkpt><trkpt lat="45.01507" lon="9.01189"><ele>80.5</ele><time>2026-05-01T09:29:01.098Z</time></trkpt><trkpt lat="45.0151567" lon="9.0122517"><ele>79.0</ele><time>2026-05-01T09:29:02.099Z</time></trkpt><trkpt lat="45.015245" lon="9.0126183"><ele>79.0</ele><time>2026-05-01T09:29:03.099Z</time></trkpt><trkpt lat="45.015335" lon="9.0129817"><ele>79.0</ele><time>2026-05-01T09:29:04.098Z</time></trkpt><trkpt lat="45.0154267" lon="9.01335"><ele>79.0</ele><time>2026-05-01T09:29:05.099Z</time></trkpt><trkpt lat="45.0155183" lon="9.0137167"><ele>79.0</ele><time>2026-05-01T09:29:06.098Z</time></trkpt><trkpt lat="45.0156083" lon="9.014085"><ele>78.5</ele><time>2026-05-01T09:29:07.099Z</time></trkpt><trkpt lat="45.0156967" lon="9.01446"><ele>78.0</ele><time>2026-05-01T09:29:08.099Z</time></trkpt><trkpt lat="45.0157833" lon="9.0148333"><ele>78.5</ele><time>2026-05-01T09:29:09.098Z</time></trkpt><trkpt lat="45.0158717" lon="9.0152083"><ele>79.0</ele><time>2026-05-01T09:29:10.099Z</time></trkpt><trkpt lat="45.01596" lon="9.0155817"><ele>79.0</ele><time>2026-05-01T09:29:11.099Z</time></trkpt><trkpt lat="45.0160483" lon="9.0159567"><ele>79.0</ele><time>2026-05-01T09:29:12.099Z</time></trkpt><trkpt lat="45.0162283" lon="9.0167067"><ele>79.0</ele><time>2026-05-01T09:29:14.098Z</time></trkpt><trkpt lat="45.0163133" lon="9.0170817"><ele>79.0</ele><time>2026-05-01T09:29:15.098Z</time></trkpt><trkpt lat="45.016395" lon="9.0174567"><ele>78.5</ele><time>2026-05-01T09:29:16.099Z</time></trkpt><trkpt lat="45.0164767" lon="9.0178317"><ele>78.0</ele><time>2026-05-01T09:29:17.098Z</time></trkpt><trkpt lat="45.0165617" lon="9.0182033"><ele>78.0</ele><time>2026-05-01T09:29:18.099Z</time></trkpt><trkpt lat="45.0166417" lon="9.0185817"><ele>78.0</ele><time>2026-05-01T09:29:19.098Z</time></trkpt><trkpt lat="45.0167233" lon="9.0189567"><ele>78.5</ele><time>2026-05-01T09:29:20.098Z</time></trkpt><trkpt lat="45.016805" lon="9.0193367"><ele>79.0</ele><time>2026-05-01T09:29:21.098Z</time></trkpt><trkpt lat="45.0168917" lon="9.019715"><ele>79.5</ele><time>2026-05-01T09:29:22.099Z</time></trkpt><trkpt lat="45.0169767" lon="9.020095"><ele>80.0</ele><time>2026-05-01T09:29:23.098Z</time></trkpt><trkpt lat="45.01707" lon="9.020465"><ele>80.0</ele><time>2026-05-01T09:29:24.098Z</time></trkpt><trkpt lat="45.01716" lon="9.020845"><ele>80.0</ele><time>2026-05-01T09:29:25.099Z</time></trkpt><trkpt lat="45.0172433" lon="9.0212133"><ele>80.0</ele><time>2026-05-01T09:29:26.098Z</time></trkpt><trkpt lat="45.0173317" lon="9.021575"><ele>80.0</ele><time>2026-05-01T09:29:27.098Z</time></trkpt><trkpt lat="45.0174167" lon="9.0219317"><ele>79.0</ele><time>2026-05-01T09:29:28.098Z</time></trkpt><trkpt lat="45.0174983" lon="9.0222817"><ele>78.0</ele><time>2026-05-01T09:29:29.099Z</time></trkpt><trkpt lat="45.0175767" lon="9.022625"><ele>77.5</ele><time>2026-05-01T09:29:30.098Z</time></trkpt><trkpt lat="45.0176533" lon="9.0229667"><ele>77.0</ele><time>2026-05-01T09:29:31.098Z</time></trkpt><trkpt lat="45.01773" lon="9.0233"><ele>77.0</ele><time>2026-05-01T09:29:32.099Z</time></trkpt><trkpt lat="45.0178" lon="9.0236333"><ele>77.0</ele><time>2026-05-01T09:29:33.099Z</time></trkpt><trkpt lat="45.01796" lon="9.024295"><ele>77.0</ele><time>2026-05-01T09:29:35.098Z</time></trkpt><trkpt lat="45.01804" lon="9.0246317"><ele>77.0</ele><time>2026-05-01T09:29:36.099Z</time></trkpt><trkpt lat="45.0181217" lon="9.0249767"><ele>77.0</ele><time>2026-05-01T09:29:37.099Z</time></trkpt><trkpt lat="45.0182033" lon="9.025325"><ele>77.0</ele><time>2026-05-01T09:29:38.099Z</time></trkpt><trkpt lat="45.0182817" lon="9.0256733"><ele>77.5</ele><time>2026-05-01T09:29:39.099Z</time></trkpt><trkpt lat="45.01836" lon="9.0260233"><ele>78.0</ele><time>2026-05-01T09:29:40.098Z</time></trkpt><trkpt lat="45.018445" lon="9.0263817"><ele>77.5</ele><time>2026-05-01T09:29:41.098Z</time></trkpt><trkpt lat="45.0185283" lon="9.02674"><ele>77.0</ele><time>2026-05-01T09:29:42.099Z</time></trkpt><trkpt lat="45.018615" lon="9.0270983"><ele>77.0</ele><time>2026-05-01T09:29:43.098Z</time></trkpt><trkpt lat="45.0187033" lon="9.0274617"><ele>77.0</ele><time>2026-05-01T09:29:44.098Z</time></trkpt><trkpt lat="45.01879" lon="9.0278267"><ele>77.5</ele><time>2026-05-01T09:29:45.099Z</time></trkpt><trkpt lat="45.0188783" lon="9.028195"><ele>78.0</ele><time>2026-05-01T09:29:46.099Z</time></trkpt><trkpt lat="45.0189667" lon="9.0285667"><ele>78.0</ele><time>2026-05-01T09:29:47.099Z</time></trkpt><trkpt lat="45.0190517" lon="9.0289367"><ele>78.0</ele><time>2026-05-01T09:29:48.099Z</time></trkpt><trkpt lat="45.0191333" lon="9.02929"><ele>77.5</ele><time>2026-05-01T09:29:49.099Z</time></trkpt><trkpt lat="45.019215" lon="9.0296417"><ele>77.0</ele><time>2026-05-01T09:29:50.098Z</time></trkpt><trkpt lat="45.0192933" lon="9.02999"><ele>77.0</ele><time>2026-05-01T09:29:51.099Z</time></trkpt><trkpt lat="45.0193733" lon="9.0303383"><ele>77.0</ele><time>2026-05-01T09:29:52.099Z</time></trkpt><trkpt lat="45.019455" lon="9.0306833"><ele>77.0</ele><time>2026-05-01T09:29:53.098Z</time></trkpt><trkpt lat="45.0195383" lon="9.031035"><ele>77.0</ele><time>2026-05-01T09:29:54.099Z</time></trkpt><trkpt lat="45.0197" lon="9.0317333"><ele>78.0</ele><time>2026-05-01T09:29:56.098Z</time></trkpt><trkpt lat="45.0197833" lon="9.0320817"><ele>79.0</ele><time>2026-05-01T09:29:57.098Z</time></trkpt><trkpt lat="45.0198683" lon="9.0324367"><ele>79.0</ele><time>2026-05-01T09:29:58.098Z</time></trkpt><trkpt lat="45.0199533" lon="9.0327917"><ele>79.0</ele><time>2026-05-01T09:29:59.098Z</time></trkpt><trkpt lat="45.0200367" lon="9.033145"><ele>79.5</ele><time>2026-05-01T09:30:00.098Z</time></trkpt><trkpt lat="45.0201233" lon="9.0334967"><ele>80.0</ele><time>2026-05-01T09:30:01.098Z</time></trkpt><trkpt lat="45.0202033" lon="9.0338483"><ele>80.0</ele><time>2026-05-01T09:30:02.097Z</time></trkpt><trkpt lat="45.020285" lon="9.0342033"><ele>80.0</ele><time>2026-05-01T09:30:03.099Z</time></trkpt><trkpt lat="45.0203617" lon="9.03456"><ele>80.0</ele><time>2026-05-01T09:30:04.098Z</time></trkpt><trkpt lat="45.0204433" lon="9.03491"><ele>80.0</ele><time>2026-05-01T09:30:05.099Z</time></trkpt><trkpt lat="45.0205283" lon="9.0352633"><ele>80.0</ele><time>2026-05-01T09:30:06.099Z</time></trkpt><trkpt lat="45.0206083" lon="9.0356183"><ele>80.0</ele><time>2026-05-01T09:30:07.099Z</time></trkpt><trkpt lat="45.02069" lon="9.0359667"><ele>80.5</ele><time>2026-05-01T09:30:08.098Z</time></trkpt><trkpt lat="45.020775" lon="9.036315"><ele>81.0</ele><time>2026-05-01T09:30:09.098Z</time></trkpt><trkpt lat="45.0208583" lon="9.0366667"><ele>81.5</ele><time>2026-05-01T09:30:10.098Z</time></trkpt><trkpt lat="45.0209417" lon="9.0370217"><ele>82.0</ele><time>2026-05-01T09:30:11.098Z</time></trkpt><trkpt lat="45.0210267" lon="9.037375"><ele>82.5</ele><time>2026-05-01T09:30:12.098Z</time></trkpt><trkpt lat="45.02111" lon="9.03773"><ele>83.0</ele><time>2026-05-01T09:30:13.098Z</time></trkpt><trkpt lat="45.0211917" lon="9.038085"><ele>82.5</ele><time>2026-05-01T09:30:14.098Z</time></trkpt><trkpt lat="45.021275" lon="9.038435"><ele>82.0</ele><time>2026-05-01T09:30:15.098Z</time></trkpt><trkpt lat="45.0214433" lon="9.0391283"><ele>80.5</ele><time>2026-05-01T09:30:17.099Z</time></trkpt><trkpt lat="45.021525" lon="9.0394767"><ele>79.0</ele><time>2026-05-01T09:30:18.098Z</time></trkpt><trkpt lat="45.0216067" lon="9.03983"><ele>80.0</ele><time>2026-05-01T09:30:19.098Z</time></trkpt><trkpt lat="45.02169" lon="9.0401767"><ele>81.0</ele><time>2026-05-01T09:30:20.099Z</time></trkpt><trkpt lat="45.02177" lon="9.040535"><ele>81.5</ele><time>2026-05-01T09:30:21.099Z</time></trkpt><trkpt lat="45.0218517" lon="9.04089"><ele>82.0</ele><time>2026-05-01T09:30:22.098Z</time></trkpt><trkpt lat="45.0219367" lon="9.04125"><ele>82.0</ele><time>2026-05-01T09:30:23.098Z</time></trkpt><trkpt lat="45.0220167" lon="9.0416083"><ele>82.0</ele><time>2026-05-01T09:30:24.098Z</time></trkpt><trkpt lat="45.022095" lon="9.0419567"><ele>82.0</ele><time>2026-05-01T09:30:25.098Z</time></trkpt><trkpt lat="45.02217" lon="9.04231"><ele>82.0</ele><time>2026-05-01T09:30:26.099Z</time></trkpt><trkpt lat="45.022245" lon="9.0426667"><ele>82.0</ele><time>2026-05-01T09:30:27.099Z</time></trkpt><trkpt lat="45.0223183" lon="9.04302"><ele>82.0</ele><time>2026-05-01T09:30:28.099Z</time></trkpt><trkpt lat="45.0223867" lon="9.0433783"><ele>81.5</ele><time>2026-05-01T09:30:29.099Z</time></trkpt><trkpt lat="45.02246" lon="9.0437317"><ele>81.0</ele><time>2026-05-01T09:30:30.099Z</time></trkpt><trkpt lat="45.0225317" lon="9.04409"><ele>82.0</ele><time>2026-05-01T09:30:31.098Z</time></trkpt><trkpt lat="45.0225983" lon="9.0444517"><ele>83.0</ele><time>2026-05-01T09:30:32.098Z</time></trkpt><trkpt lat="45.0226667" lon="9.044815"><ele>82.5</ele><time>2026-05-01T09:30:33.098Z</time></trkpt><trkpt lat="45.02273" lon="9.045175"><ele>82.0</ele><time>2026-05-01T09:30:34.099Z</time></trkpt><trkpt lat="45.022795" lon="9.0455367"><ele>80.0</ele><time>2026-05-01T09:30:35.099Z</time></trkpt><trkpt lat="45.0229233" lon="9.0462617"><ele>80.0</ele><time>2026-05-01T09:30:37.098Z</time></trkpt><trkpt lat="45.0229817" lon="9.0466267"><ele>80.0</ele><time>2026-05-01T09:30:38.099Z</time></trkpt><trkpt lat="45.0230367" lon="9.04699"><ele>78.5</ele><time>2026-05-01T09:30:39.098Z</time></trkpt><trkpt lat="45.0230917" lon="9.047355"><ele>77.0</ele><time>2026-05-01T09:30:40.098Z</time></trkpt><trkpt lat="45.0231433" lon="9.0477183"><ele>77.0</ele><time>2026-05-01T09:30:41.099Z</time></trkpt><trkpt lat="45.023195" lon="9.0480833"><ele>77.0</ele><time>2026-05-01T09:30:42.098Z</time></trkpt><trkpt lat="45.0232467" lon="9.04845"><ele>77.0</ele><time>2026-05-01T09:30:43.099Z</time></trkpt><trkpt lat="45.0232967" lon="9.0488133"><ele>77.0</ele><time>2026-05-01T09:30:44.098Z</time></trkpt><trkpt lat="45.0233483" lon="9.04917"><ele>77.5</ele><time>2026-05-01T09:30:45.098Z</time></trkpt><trkpt lat="45.023395" lon="9.0495333"><ele>78.0</ele><time>2026-05-01T09:30:46.099Z</time></trkpt><trkpt lat="45.02344" lon="9.0498983"><ele>78.0</ele><time>2026-05-01T09:30:47.099Z</time></trkpt><trkpt lat="45.023485" lon="9.0502583"><ele>78.0</ele><time>2026-05-01T09:30:48.099Z</time></trkpt><trkpt lat="45.0235233" lon="9.0506217"><ele>77.5</ele><time>2026-05-01T09:30:49.099Z</time></trkpt><trkpt lat="45.0235667" lon="9.0509883"><ele>77.0</ele><time>2026-05-01T09:30:50.098Z</time></trkpt><trkpt lat="45.02361" lon="9.0513567"><ele>77.0</ele><time>2026-05-01T09:30:51.098Z</time></trkpt><trkpt lat="45.0236517" lon="9.0517233"><ele>77.0</ele><time>2026-05-01T09:30:52.099Z</time></trkpt><trkpt lat="45.0236833" lon="9.05209"><ele>77.0</ele><time>2026-05-01T09:30:53.098Z</time></trkpt><trkpt lat="45.0237183" lon="9.05246"><ele>77.0</ele><time>2026-05-01T09:30:54.098Z</time></trkpt><trkpt lat="45.0237533" lon="9.0528267"><ele>77.0</ele><time>2026-05-01T09:30:55.099Z</time></trkpt><trkpt lat="45.0237867" lon="9.0531933"><ele>77.0</ele><time>2026-05-01T09:30:56.098Z</time></trkpt><trkpt lat="45.0238433" lon="9.053935"><ele>76.0</ele><time>2026-05-01T09:30:58.099Z</time></trkpt><trkpt lat="45.0238717" lon="9.0543067"><ele>75.0</ele><time>2026-05-01T09:30:59.098Z</time></trkpt><trkpt lat="45.0238967" lon="9.0546783"><ele>75.5</ele><time>2026-05-01T09:31:00.099Z</time></trkpt><trkpt lat="45.0239183" lon="9.0550483"><ele>76.0</ele><time>2026-05-01T09:31:01.099Z</time></trkpt><trkpt lat="45.0239417" lon="9.05541"><ele>76.0</ele><time>2026-05-01T09:31:02.099Z</time></trkpt><trkpt lat="45.0239733" lon="9.0557817"><ele>76.0</ele><time>2026-05-01T09:31:03.098Z</time></trkpt><trkpt lat="45.024005" lon="9.056155"><ele>76.5</ele><time>2026-05-01T09:31:04.099Z</time></trkpt><trkpt lat="45.0240333" lon="9.0565267"><ele>77.0</ele><time>2026-05-01T09:31:05.099Z</time></trkpt><trkpt lat="45.0240583" lon="9.0568983"><ele>75.5</ele><time>2026-05-01T09:31:06.099Z</time></trkpt><trkpt lat="45.024085" lon="9.0572683"><ele>74.0</ele><time>2026-05-01T09:31:07.099Z</time></trkpt><trkpt lat="45.0241167" lon="9.0576367"><ele>73.5</ele><time>2026-05-01T09:31:08.099Z</time></trkpt><trkpt lat="45.0241433" lon="9.0580117"><ele>73.0</ele><time>2026-05-01T09:31:09.099Z</time></trkpt><trkpt lat="45.0241717" lon="9.0583783"><ele>74.5</ele><time>2026-05-01T09:31:10.099Z</time></trkpt><trkpt lat="45.0242017" lon="9.05874"><ele>76.0</ele><time>2026-05-01T09:31:11.098Z</time></trkpt><trkpt lat="45.0242317" lon="9.0591083"><ele>76.0</ele><time>2026-05-01T09:31:12.098Z</time></trkpt><trkpt lat="45.02426" lon="9.05948"><ele>76.0</ele><time>2026-05-01T09:31:13.099Z</time></trkpt><trkpt lat="45.0242917" lon="9.0598517"><ele>77.0</ele><time>2026-05-01T09:31:14.099Z</time></trkpt><trkpt lat="45.0243233" lon="9.060225"><ele>78.0</ele><time>2026-05-01T09:31:15.098Z</time></trkpt><trkpt lat="45.0243483" lon="9.060595"><ele>77.5</ele><time>2026-05-01T09:31:16.098Z</time></trkpt><trkpt lat="45.02438" lon="9.0609583"><ele>77.0</ele><time>2026-05-01T09:31:17.098Z</time></trkpt><trkpt lat="45.024445" lon="9.0616983"><ele>76.0</ele><time>2026-05-01T09:31:19.098Z</time></trkpt><trkpt lat="45.0244833" lon="9.06206"><ele>75.0</ele><time>2026-05-01T09:31:20.099Z</time></trkpt><trkpt lat="45.0245217" lon="9.0624317"><ele>76.5</ele><time>2026-05-01T09:31:21.099Z</time></trkpt><trkpt lat="45.0245583" lon="9.0628033"><ele>78.0</ele><time>2026-05-01T09:31:22.099Z</time></trkpt><trkpt lat="45.024595" lon="9.0631733"><ele>77.5</ele><time>2026-05-01T09:31:23.098Z</time></trkpt><trkpt lat="45.0246333" lon="9.0635417"><ele>77.0</ele><time>2026-05-01T09:31:24.099Z</time></trkpt><trkpt lat="45.0246767" lon="9.0639017"><ele>77.0</ele><time>2026-05-01T09:31:25.098Z</time></trkpt><trkpt lat="45.0247167" lon="9.06427"><ele>77.0</ele><time>2026-05-01T09:31:26.098Z</time></trkpt><trkpt lat="45.0247567" lon="9.0646333"><ele>76.5</ele><time>2026-05-01T09:31:27.098Z</time></trkpt><trkpt lat="45.0247983" lon="9.0650033"><ele>76.0</ele><time>2026-05-01T09:31:28.099Z</time></trkpt><trkpt lat="45.0248433" lon="9.06537"><ele>76.0</ele><time>2026-05-01T09:31:29.098Z</time></trkpt><trkpt lat="45.0248867" lon="9.0657333"><ele>76.0</ele><time>2026-05-01T09:31:30.098Z</time></trkpt><trkpt lat="45.0249333" lon="9.0660967"><ele>75.5</ele><time>2026-05-01T09:31:31.098Z</time></trkpt><trkpt lat="45.0249783" lon="9.0664567"><ele>75.0</ele><time>2026-05-01T09:31:32.099Z</time></trkpt><trkpt lat="45.025025" lon="9.0668183"><ele>75.0</ele><time>2026-05-01T09:31:33.098Z</time></trkpt><trkpt lat="45.025075" lon="9.0671817"><ele>75.0</ele><time>2026-05-01T09:31:34.098Z</time></trkpt><trkpt lat="45.0251283" lon="9.0675517"><ele>75.5</ele><time>2026-05-01T09:31:35.098Z</time></trkpt><trkpt lat="45.0251817" lon="9.0679217"><ele>76.0</ele><time>2026-05-01T09:31:36.098Z</time></trkpt><trkpt lat="45.0252333" lon="9.0682883"><ele>76.0</ele><time>2026-05-01T09:31:37.098Z</time></trkpt><trkpt lat="45.025285" lon="9.0686517"><ele>76.0</ele><time>2026-05-01T09:31:38.098Z</time></trkpt><trkpt lat="45.0253867" lon="9.06937"><ele>76.0</ele><time>2026-05-01T09:31:40.099Z</time></trkpt><trkpt lat="45.02544" lon="9.069735"><ele>76.0</ele><time>2026-05-01T09:31:41.099Z</time></trkpt><trkpt lat="45.025495" lon="9.0701033"><ele>76.0</ele><time>2026-05-01T09:31:42.099Z</time></trkpt><trkpt lat="45.02555" lon="9.0704733"><ele>76.0</ele><time>2026-05-01T09:31:43.098Z</time></trkpt><trkpt lat="45.0256033" lon="9.0708367"><ele>75.0</ele><time>2026-05-01T09:31:44.099Z</time></trkpt><trkpt lat="45.0256533" lon="9.0712033"><ele>74.0</ele><time>2026-05-01T09:31:45.098Z</time></trkpt><trkpt lat="45.0257067" lon="9.071565"><ele>73.5</ele><time>2026-05-01T09:31:46.099Z</time></trkpt><trkpt lat="45.0257617" lon="9.0719267"><ele>73.0</ele><time>2026-05-01T09:31:47.099Z</time></trkpt><trkpt lat="45.025815" lon="9.07229"><ele>74.5</ele><time>2026-05-01T09:31:48.098Z</time></trkpt><trkpt lat="45.025865" lon="9.0726583"><ele>76.0</ele><time>2026-05-01T09:31:49.098Z</time></trkpt><trkpt lat="45.025915" lon="9.0730233"><ele>76.0</ele><time>2026-05-01T09:31:50.098Z</time></trkpt><trkpt lat="45.0259633" lon="9.0733833"><ele>76.0</ele><time>2026-05-01T09:31:51.099Z</time></trkpt><trkpt lat="45.0260133" lon="9.0737517"><ele>75.5</ele><time>2026-05-01T09:31:52.098Z</time></trkpt><trkpt lat="45.0260683" lon="9.0741133"><ele>75.0</ele><time>2026-05-01T09:31:53.099Z</time></trkpt><trkpt lat="45.0261217" lon="9.0744717"><ele>75.0</ele><time>2026-05-01T09:31:54.099Z</time></trkpt><trkpt lat="45.026175" lon="9.07484"><ele>75.0</ele><time>2026-05-01T09:31:55.098Z</time></trkpt><trkpt lat="45.0262317" lon="9.075205"><ele>75.0</ele><time>2026-05-01T09:31:56.099Z</time></trkpt><trkpt lat="45.0262833" lon="9.0755683"><ele>75.0</ele><time>2026-05-01T09:31:57.098Z</time></trkpt><trkpt lat="45.0263317" lon="9.0759317"><ele>74.5</ele><time>2026-05-01T09:31:58.099Z</time></trkpt><trkpt lat="45.026385" lon="9.0762967"><ele>74.0</ele><time>2026-05-01T09:31:59.098Z</time></trkpt><trkpt lat="45.0264933" lon="9.0770267"><ele>74.0</ele><time>2026-05-01T09:32:01.098Z</time></trkpt><trkpt lat="45.0265467" lon="9.0773883"><ele>74.0</ele><time>2026-05-01T09:32:02.099Z</time></trkpt><trkpt lat="45.0265967" lon="9.07776"><ele>75.0</ele><time>2026-05-01T09:32:03.098Z</time></trkpt><trkpt lat="45.0266433" lon="9.0781183"><ele>76.0</ele><time>2026-05-01T09:32:04.099Z</time></trkpt><trkpt lat="45.0267" lon="9.078485"><ele>76.0</ele><time>2026-05-01T09:32:05.099Z</time></trkpt><trkpt lat="45.0267533" lon="9.0788483"><ele>76.0</ele><time>2026-05-01T09:32:06.099Z</time></trkpt><trkpt lat="45.02681" lon="9.07921"><ele>75.5</ele><time>2026-05-01T09:32:07.098Z</time></trkpt><trkpt lat="45.026865" lon="9.0795667"><ele>75.0</ele><time>2026-05-01T09:32:08.098Z</time></trkpt><trkpt lat="45.026925" lon="9.07993"><ele>76.0</ele><time>2026-05-01T09:32:09.099Z</time></trkpt><trkpt lat="45.0269867" lon="9.0803167"><ele>77.0</ele><time>2026-05-01T09:32:10.098Z</time></trkpt><trkpt lat="45.0270483" lon="9.0807167"><ele>78.0</ele><time>2026-05-01T09:32:11.099Z</time></trkpt><trkpt lat="45.02711" lon="9.0811417"><ele>79.0</ele><time>2026-05-01T09:32:12.098Z</time></trkpt><trkpt lat="45.0271617" lon="9.0815683"><ele>78.0</ele><time>2026-05-01T09:32:13.098Z</time></trkpt><trkpt lat="45.027215" lon="9.0819783"><ele>77.0</ele><time>2026-05-01T09:32:14.099Z</time></trkpt><trkpt lat="45.027265" lon="9.0823667"><ele>77.0</ele><time>2026-05-01T09:32:15.098Z</time></trkpt><trkpt lat="45.02731" lon="9.0827367"><ele>77.0</ele><time>2026-05-01T09:32:16.099Z</time></trkpt><trkpt lat="45.027365" lon="9.0831033"><ele>75.5</ele><time>2026-05-01T09:32:17.099Z</time></trkpt><trkpt lat="45.0274183" lon="9.083475"><ele>74.0</ele><time>2026-05-01T09:32:18.099Z</time></trkpt><trkpt lat="45.02747" lon="9.0838517"><ele>74.0</ele><time>2026-05-01T09:32:19.099Z</time></trkpt><trkpt lat="45.0275217" lon="9.0842133"><ele>74.0</ele><time>2026-05-01T09:32:20.099Z</time></trkpt><trkpt lat="45.0276317" lon="9.0849283"><ele>74.5</ele><time>2026-05-01T09:32:22.098Z</time></trkpt><trkpt lat="45.0276833" lon="9.0852833"><ele>75.0</ele><time>2026-05-01T09:32:23.098Z</time></trkpt><trkpt lat="45.0277333" lon="9.0856417"><ele>75.5</ele><time>2026-05-01T09:32:24.098Z</time></trkpt><trkpt lat="45.027785" lon="9.086005"><ele>76.0</ele><time>2026-05-01T09:32:25.098Z</time></trkpt><trkpt lat="45.02784" lon="9.0863633"><ele>76.5</ele><time>2026-05-01T09:32:26.099Z</time></trkpt><trkpt lat="45.0278967" lon="9.0867233"><ele>77.0</ele><time>2026-05-01T09:32:27.099Z</time></trkpt><trkpt lat="45.0279533" lon="9.08708"><ele>76.5</ele><time>2026-05-01T09:32:28.098Z</time></trkpt><trkpt lat="45.0280117" lon="9.0874383"><ele>76.0</ele><time>2026-05-01T09:32:29.099Z</time></trkpt><trkpt lat="45.0280717" lon="9.0878033"><ele>76.0</ele><time>2026-05-01T09:32:30.098Z</time></trkpt><trkpt lat="45.02813" lon="9.0881683"><ele>76.0</ele><time>2026-05-01T09:32:31.099Z</time></trkpt><trkpt lat="45.028195" lon="9.08853"><ele>75.5</ele><time>2026-05-01T09:32:32.099Z</time></trkpt><trkpt lat="45.0282583" lon="9.0888967"><ele>75.0</ele><time>2026-05-01T09:32:33.099Z</time></trkpt><trkpt lat="45.02832" lon="9.0892617"><ele>75.0</ele><time>2026-05-01T09:32:34.099Z</time></trkpt><trkpt lat="45.0283833" lon="9.0896183"><ele>75.0</ele><time>2026-05-01T09:32:35.099Z</time></trkpt><trkpt lat="45.0284467" lon="9.0899717"><ele>76.5</ele><time>2026-05-01T09:32:36.098Z</time></trkpt><trkpt lat="45.02851" lon="9.0903317"><ele>78.0</ele><time>2026-05-01T09:32:37.098Z</time></trkpt><trkpt lat="45.0285717" lon="9.0906917"><ele>77.5</ele><time>2026-05-01T09:32:38.099Z</time></trkpt><trkpt lat="45.0286317" lon="9.0910517"><ele>77.0</ele><time>2026-05-01T09:32:39.098Z</time></trkpt><trkpt lat="45.028695" lon="9.0914133"><ele>76.0</ele><time>2026-05-01T09:32:40.099Z</time></trkpt><trkpt lat="45.0287617" lon="9.0917733"><ele>75.0</ele><time>2026-05-01T09:32:41.099Z</time></trkpt><trkpt lat="45.0288933" lon="9.0924933"><ele>74.0</ele><time>2026-05-01T09:32:43.099Z</time></trkpt><trkpt lat="45.02896" lon="9.0928533"><ele>73.0</ele><time>2026-05-01T09:32:44.098Z</time></trkpt><trkpt lat="45.0290283" lon="9.0932167"><ele>73.5</ele><time>2026-05-01T09:32:45.099Z</time></trkpt><trkpt lat="45.0291017" lon="9.0935767"><ele>74.0</ele><time>2026-05-01T09:32:46.098Z</time></trkpt><trkpt lat="45.0291717" lon="9.093935"><ele>74.5</ele><time>2026-05-01T09:32:47.098Z</time></trkpt><trkpt lat="45.0292367" lon="9.094295"><ele>75.0</ele><time>2026-05-01T09:32:48.098Z</time></trkpt><trkpt lat="45.0293033" lon="9.0946583"><ele>74.5</ele><time>2026-05-01T09:32:49.098Z</time></trkpt><trkpt lat="45.0293717" lon="9.095015"><ele>74.0</ele><time>2026-05-01T09:32:50.099Z</time></trkpt><trkpt lat="45.0294367" lon="9.095375"><ele>74.0</ele><time>2026-05-01T09:32:51.099Z</time></trkpt><trkpt lat="45.0295033" lon="9.0957333"><ele>74.0</ele><time>2026-05-01T09:32:52.099Z</time></trkpt><trkpt lat="45.0295683" lon="9.096095"><ele>74.0</ele><time>2026-05-01T09:32:53.098Z</time></trkpt><trkpt lat="45.0296333" lon="9.0964567"><ele>74.0</ele><time>2026-05-01T09:32:54.099Z</time></trkpt><trkpt lat="45.0297017" lon="9.0968117"><ele>74.0</ele><time>2026-05-01T09:32:55.099Z</time></trkpt><trkpt lat="45.0297667" lon="9.0971683"><ele>74.0</ele><time>2026-05-01T09:32:56.099Z</time></trkpt><trkpt lat="45.0298333" lon="9.097525"><ele>74.5</ele><time>2026-05-01T09:32:57.099Z</time></trkpt><trkpt lat="45.0299017" lon="9.0978867"><ele>75.0</ele><time>2026-05-01T09:32:58.098Z</time></trkpt><trkpt lat="45.0299633" lon="9.0982567"><ele>76.5</ele><time>2026-05-01T09:32:59.099Z</time></trkpt><trkpt lat="45.030035" lon="9.0986133"><ele>78.0</ele><time>2026-05-01T09:33:00.099Z</time></trkpt><trkpt lat="45.030105" lon="9.0989733"><ele>77.5</ele><time>2026-05-01T09:33:01.098Z</time></trkpt><trkpt lat="45.03018" lon="9.09933"><ele>77.0</ele><time>2026-05-01T09:33:02.098Z</time></trkpt><trkpt lat="45.0303133" lon="9.1000517"><ele>75.5</ele><time>2026-05-01T09:33:04.098Z</time></trkpt><trkpt lat="45.0303833" lon="9.10041"><ele>74.0</ele><time>2026-05-01T09:33:05.099Z</time></trkpt><trkpt lat="45.0304483" lon="9.10077"><ele>73.5</ele><time>2026-05-01T09:33:06.099Z</time></trkpt><trkpt lat="45.0305117" lon="9.1011267"><ele>73.0</ele><time>2026-05-01T09:33:07.098Z</time></trkpt><trkpt lat="45.0305767" lon="9.1014833"><ele>73.5</ele><time>2026-05-01T09:33:08.098Z</time></trkpt><trkpt lat="45.0306433" lon="9.10184"><ele>74.0</ele><time>2026-05-01T09:33:09.098Z</time></trkpt><trkpt lat="45.0307083" lon="9.1022"><ele>74.0</ele><time>2026-05-01T09:33:10.099Z</time></trkpt><trkpt lat="45.0307733" lon="9.10256"><ele>74.0</ele><time>2026-05-01T09:33:11.099Z</time></trkpt><trkpt lat="45.03084" lon="9.1029217"><ele>73.5</ele><time>2026-05-01T09:33:12.099Z</time></trkpt><trkpt lat="45.0309067" lon="9.10328"><ele>73.0</ele><time>2026-05-01T09:33:13.099Z</time></trkpt><trkpt lat="45.03097" lon="9.1036433"><ele>73.0</ele><time>2026-05-01T09:33:14.098Z</time></trkpt><trkpt lat="45.031035" lon="9.1040033"><ele>73.0</ele><time>2026-05-01T09:33:15.099Z</time></trkpt><trkpt lat="45.0311017" lon="9.1043583"><ele>73.5</ele><time>2026-05-01T09:33:16.099Z</time></trkpt><trkpt lat="45.03117" lon="9.104715"><ele>74.0</ele><time>2026-05-01T09:33:17.098Z</time></trkpt><trkpt lat="45.031235" lon="9.105075"><ele>74.0</ele><time>2026-05-01T09:33:18.098Z</time></trkpt><trkpt lat="45.0312983" lon="9.1054417"><ele>74.0</ele><time>2026-05-01T09:33:19.099Z</time></trkpt><trkpt lat="45.0313667" lon="9.1058033"><ele>74.0</ele><time>2026-05-01T09:33:20.098Z</time></trkpt><trkpt lat="45.0314333" lon="9.10616"><ele>74.0</ele><time>2026-05-01T09:33:21.099Z</time></trkpt><trkpt lat="45.0315" lon="9.10652"><ele>74.0</ele><time>2026-05-01T09:33:22.099Z</time></trkpt><trkpt lat="45.03157" lon="9.1068817"><ele>74.0</ele><time>2026-05-01T09:33:23.099Z</time></trkpt><trkpt lat="45.0317067" lon="9.107595"><ele>74.5</ele><time>2026-05-01T09:33:25.099Z</time></trkpt><trkpt lat="45.0317717" lon="9.1079483"><ele>75.0</ele><time>2026-05-01T09:33:26.098Z</time></trkpt><trkpt lat="45.03184" lon="9.1083"><ele>75.0</ele><time>2026-05-01T09:33:27.098Z</time></trkpt><trkpt lat="45.031905" lon="9.1086617"><ele>75.0</ele><time>2026-05-01T09:33:28.098Z</time></trkpt><trkpt lat="45.0319717" lon="9.1090183"><ele>75.5</ele><time>2026-05-01T09:33:29.098Z</time></trkpt><trkpt lat="45.0320383" lon="9.1093767"><ele>76.0</ele><time>2026-05-01T09:33:30.098Z</time></trkpt><trkpt lat="45.032105" lon="9.1097367"><ele>76.5</ele><time>2026-05-01T09:33:31.098Z</time></trkpt><trkpt lat="45.032175" lon="9.1100917"><ele>77.0</ele><time>2026-05-01T09:33:32.098Z</time></trkpt><trkpt lat="45.032245" lon="9.1104533"><ele>76.5</ele><time>2026-05-01T09:33:33.098Z</time></trkpt><trkpt lat="45.03231" lon="9.110815"><ele>76.0</ele><time>2026-05-01T09:33:34.099Z</time></trkpt><trkpt lat="45.0323767" lon="9.1111733"><ele>76.0</ele><time>2026-05-01T09:33:35.098Z</time></trkpt><trkpt lat="45.032445" lon="9.1115317"><ele>76.0</ele><time>2026-05-01T09:33:36.099Z</time></trkpt><trkpt lat="45.0325133" lon="9.1118983"><ele>76.5</ele><time>2026-05-01T09:33:37.098Z</time></trkpt><trkpt lat="45.0325783" lon="9.112255"><ele>77.0</ele><time>2026-05-01T09:33:38.099Z</time></trkpt><trkpt lat="45.0326467" lon="9.11262"><ele>77.5</ele><time>2026-05-01T09:33:39.099Z</time></trkpt><trkpt lat="45.0327083" lon="9.11298"><ele>78.0</ele><time>2026-05-01T09:33:40.099Z</time></trkpt><trkpt lat="45.032775" lon="9.1133367"><ele>78.0</ele><time>2026-05-01T09:33:41.098Z</time></trkpt><trkpt lat="45.03284" lon="9.1136933"><ele>78.0</ele><time>2026-05-01T09:33:42.098Z</time></trkpt><trkpt lat="45.0329067" lon="9.11405"><ele>77.0</ele><time>2026-05-01T09:33:43.099Z</time></trkpt><trkpt lat="45.0329733" lon="9.1144067"><ele>76.0</ele><time>2026-05-01T09:33:44.098Z</time></trkpt><trkpt lat="45.033045" lon="9.114765"><ele>77.0</ele><time>2026-05-01T09:33:45.098Z</time></trkpt><trkpt lat="45.0331783" lon="9.11549"><ele>77.0</ele><time>2026-05-01T09:33:47.099Z</time></trkpt><trkpt lat="45.0332433" lon="9.11585"><ele>77.0</ele><time>2026-05-01T09:33:48.099Z</time></trkpt><trkpt lat="45.03331" lon="9.1162117"><ele>77.5</ele><time>2026-05-01T09:33:49.098Z</time></trkpt><trkpt lat="45.0333733" lon="9.1165717"><ele>78.0</ele><time>2026-05-01T09:33:50.098Z</time></trkpt><trkpt lat="45.03344" lon="9.1169317"><ele>78.0</ele><time>2026-05-01T09:33:51.099Z</time></trkpt><trkpt lat="45.0335017" lon="9.1172883"><ele>78.0</ele><time>2026-05-01T09:33:52.098Z</time></trkpt><trkpt lat="45.0335683" lon="9.1176417"><ele>78.0</ele><time>2026-05-01T09:33:53.098Z</time></trkpt><trkpt lat="45.0336333" lon="9.118"><ele>78.0</ele><time>2026-05-01T09:33:54.099Z</time></trkpt><trkpt lat="45.0337" lon="9.1183583"><ele>77.5</ele><time>2026-05-01T09:33:55.098Z</time></trkpt><trkpt lat="45.03377" lon="9.11871"><ele>77.0</ele><time>2026-05-01T09:33:56.099Z</time></trkpt><trkpt lat="45.033835" lon="9.1190683"><ele>77.0</ele><time>2026-05-01T09:33:57.099Z</time></trkpt><trkpt lat="45.0339017" lon="9.119425"><ele>77.0</ele><time>2026-05-01T09:33:58.099Z</time></trkpt><trkpt lat="45.0339733" lon="9.1197733"><ele>78.0</ele><time>2026-05-01T09:33:59.099Z</time></trkpt><trkpt lat="45.0340433" lon="9.120125"><ele>79.0</ele><time>2026-05-01T09:34:00.099Z</time></trkpt><trkpt lat="45.034115" lon="9.1204783"><ele>79.0</ele><time>2026-05-01T09:34:01.099Z</time></trkpt><trkpt lat="45.03419" lon="9.1208367"><ele>79.0</ele><time>2026-05-01T09:34:02.098Z</time></trkpt><trkpt lat="45.0342633" lon="9.1211983"><ele>79.0</ele><time>2026-05-01T09:34:03.099Z</time></trkpt><trkpt lat="45.0343367" lon="9.121555"><ele>79.0</ele><time>2026-05-01T09:34:04.099Z</time></trkpt><trkpt lat="45.03441" lon="9.1219183"><ele>78.5</ele><time>2026-05-01T09:34:05.098Z</time></trkpt><trkpt lat="45.03449" lon="9.1222683"><ele>78.0</ele><time>2026-05-01T09:34:06.099Z</time></trkpt><trkpt lat="45.0346417" lon="9.1229617"><ele>78.0</ele><time>2026-05-01T09:34:08.099Z</time></trkpt><trkpt lat="45.0347267" lon="9.1233"><ele>78.0</ele><time>2026-05-01T09:34:09.098Z</time></trkpt><trkpt lat="45.03481" lon="9.1236433"><ele>78.0</ele><time>2026-05-01T09:34:10.099Z</time></trkpt><trkpt lat="45.034895" lon="9.12398"><ele>78.0</ele><time>2026-05-01T09:34:11.099Z</time></trkpt><trkpt lat="45.0349783" lon="9.124325"><ele>78.0</ele><time>2026-05-01T09:34:12.099Z</time></trkpt><trkpt lat="45.0350617" lon="9.12467"><ele>78.0</ele><time>2026-05-01T09:34:13.098Z</time></trkpt><trkpt lat="45.0351483" lon="9.12501"><ele>78.0</ele><time>2026-05-01T09:34:14.098Z</time></trkpt><trkpt lat="45.0352383" lon="9.1253517"><ele>78.0</ele><time>2026-05-01T09:34:15.099Z</time></trkpt><trkpt lat="45.0353283" lon="9.12569"><ele>77.5</ele><time>2026-05-01T09:34:16.098Z</time></trkpt><trkpt lat="45.0354183" lon="9.1260317"><ele>77.0</ele><time>2026-05-01T09:34:17.098Z</time></trkpt><trkpt lat="45.035515" lon="9.1263717"><ele>77.0</ele><time>2026-05-01T09:34:18.099Z</time></trkpt><trkpt lat="45.0356083" lon="9.1267067"><ele>77.0</ele><time>2026-05-01T09:34:19.099Z</time></trkpt><trkpt lat="45.0356983" lon="9.12704"><ele>77.0</ele><time>2026-05-01T09:34:20.098Z</time></trkpt><trkpt lat="45.0357933" lon="9.1273767"><ele>77.0</ele><time>2026-05-01T09:34:21.099Z</time></trkpt><trkpt lat="45.0358933" lon="9.1277067"><ele>76.0</ele><time>2026-05-01T09:34:22.098Z</time></trkpt><trkpt lat="45.035995" lon="9.12804"><ele>75.0</ele><time>2026-05-01T09:34:23.099Z</time></trkpt><trkpt lat="45.036095" lon="9.1283767"><ele>74.0</ele><time>2026-05-01T09:34:24.098Z</time></trkpt><trkpt lat="45.0361967" lon="9.1287083"><ele>73.0</ele><time>2026-05-01T09:34:25.098Z</time></trkpt><trkpt lat="45.0362983" lon="9.12905"><ele>73.0</ele><time>2026-05-01T09:34:26.098Z</time></trkpt><trkpt lat="45.0364" lon="9.12939"><ele>73.0</ele><time>2026-05-01T09:34:27.099Z</time></trkpt><trkpt lat="45.0366033" lon="9.1300633"><ele>74.5</ele><time>2026-05-01T09:34:29.098Z</time></trkpt><trkpt lat="45.036705" lon="9.1304033"><ele>76.0</ele><time>2026-05-01T09:34:30.098Z</time></trkpt><trkpt lat="45.0368033" lon="9.1307433"><ele>76.5</ele><time>2026-05-01T09:34:31.099Z</time></trkpt><trkpt lat="45.0369033" lon="9.1310833"><ele>77.0</ele><time>2026-05-01T09:34:32.099Z</time></trkpt><trkpt lat="45.03701" lon="9.1314133"><ele>76.5</ele><time>2026-05-01T09:34:33.098Z</time></trkpt><trkpt lat="45.0371017" lon="9.1317583"><ele>76.0</ele><time>2026-05-01T09:34:34.098Z</time></trkpt><trkpt lat="45.0372017" lon="9.132105"><ele>75.0</ele><time>2026-05-01T09:34:35.099Z</time></trkpt><trkpt lat="45.0373067" lon="9.1324467"><ele>74.0</ele><time>2026-05-01T09:34:36.099Z</time></trkpt><trkpt lat="45.03741" lon="9.13278"><ele>75.0</ele><time>2026-05-01T09:34:37.098Z</time></trkpt><trkpt lat="45.03751" lon="9.133115"><ele>76.0</ele><time>2026-05-01T09:34:38.098Z</time></trkpt><trkpt lat="45.03761" lon="9.1334567"><ele>76.0</ele><time>2026-05-01T09:34:39.098Z</time></trkpt><trkpt lat="45.03771" lon="9.1337983"><ele>76.0</ele><time>2026-05-01T09:34:40.099Z</time></trkpt><trkpt lat="45.03781" lon="9.134135"><ele>76.5</ele><time>2026-05-01T09:34:41.098Z</time></trkpt><trkpt lat="45.037915" lon="9.1344767"><ele>77.0</ele><time>2026-05-01T09:34:42.099Z</time></trkpt><trkpt lat="45.0380117" lon="9.134815"><ele>76.5</ele><time>2026-05-01T09:34:43.098Z</time></trkpt><trkpt lat="45.0381067" lon="9.1351467"><ele>76.0</ele><time>2026-05-01T09:34:44.099Z</time></trkpt><trkpt lat="45.0382083" lon="9.13548"><ele>75.0</ele><time>2026-05-01T09:34:45.098Z</time></trkpt><trkpt lat="45.0383083" lon="9.135815"><ele>74.0</ele><time>2026-05-01T09:34:46.098Z</time></trkpt><trkpt lat="45.0384067" lon="9.1361483"><ele>74.0</ele><time>2026-05-01T09:34:47.098Z</time></trkpt><trkpt lat="45.0385083" lon="9.136485"><ele>74.0</ele><time>2026-05-01T09:34:48.099Z</time></trkpt><trkpt lat="45.038705" lon="9.1371583"><ele>74.0</ele><time>2026-05-01T09:34:50.099Z</time></trkpt><trkpt lat="45.038805" lon="9.1374933"><ele>74.0</ele><time>2026-05-01T09:34:51.099Z</time></trkpt><trkpt lat="45.0389033" lon="9.137835"><ele>74.0</ele><time>2026-05-01T09:34:52.098Z</time></trkpt><trkpt lat="45.039005" lon="9.138175"><ele>74.0</ele><time>2026-05-01T09:34:53.098Z</time></trkpt><trkpt lat="45.0391067" lon="9.1385117"><ele>73.5</ele><time>2026-05-01T09:34:54.098Z</time></trkpt><trkpt lat="45.039205" lon="9.1388467"><ele>73.0</ele><time>2026-05-01T09:34:55.099Z</time></trkpt><trkpt lat="45.0393067" lon="9.1391833"><ele>73.0</ele><time>2026-05-01T09:34:56.099Z</time></trkpt><trkpt lat="45.03941" lon="9.1395217"><ele>73.0</ele><time>2026-05-01T09:34:57.098Z</time></trkpt><trkpt lat="45.0395117" lon="9.13986"><ele>73.0</ele><time>2026-05-01T09:34:58.099Z</time></trkpt><trkpt lat="45.039615" lon="9.1401917"><ele>73.0</ele><time>2026-05-01T09:34:59.099Z</time></trkpt><trkpt lat="45.03971" lon="9.140535"><ele>75.0</ele><time>2026-05-01T09:35:00.098Z</time></trkpt><trkpt lat="45.03981" lon="9.1408717"><ele>77.0</ele><time>2026-05-01T09:35:01.098Z</time></trkpt><trkpt lat="45.0399083" lon="9.1412083"><ele>75.0</ele><time>2026-05-01T09:35:02.099Z</time></trkpt><trkpt lat="45.0400083" lon="9.1415467"><ele>73.0</ele><time>2026-05-01T09:35:03.098Z</time></trkpt><trkpt lat="45.0401083" lon="9.14189"><ele>73.0</ele><time>2026-05-01T09:35:04.099Z</time></trkpt><trkpt lat="45.04021" lon="9.14223"><ele>73.0</ele><time>2026-05-01T09:35:05.098Z</time></trkpt><trkpt lat="45.0403133" lon="9.1425683"><ele>73.5</ele><time>2026-05-01T09:35:06.099Z</time></trkpt><trkpt lat="45.040415" lon="9.142905"><ele>74.0</ele><time>2026-05-01T09:35:07.099Z</time></trkpt><trkpt lat="45.0405117" lon="9.14324"><ele>74.0</ele><time>2026-05-01T09:35:08.098Z</time></trkpt><trkpt lat="45.04061" lon="9.1435717"><ele>74.0</ele><time>2026-05-01T09:35:09.099Z</time></trkpt><trkpt lat="45.0408117" lon="9.14425"><ele>74.0</ele><time>2026-05-01T09:35:11.099Z</time></trkpt><trkpt lat="45.040915" lon="9.1445933"><ele>74.0</ele><time>2026-05-01T09:35:12.099Z</time></trkpt><trkpt lat="45.04102" lon="9.1449367"><ele>74.0</ele><time>2026-05-01T09:35:13.098Z</time></trkpt><trkpt lat="45.04112" lon="9.1452867"><ele>74.0</ele><time>2026-05-01T09:35:14.098Z</time></trkpt><trkpt lat="45.0412183" lon="9.1456383"><ele>74.0</ele><time>2026-05-01T09:35:15.098Z</time></trkpt><trkpt lat="45.0413217" lon="9.1459867"><ele>74.0</ele><time>2026-05-01T09:35:16.098Z</time></trkpt><trkpt lat="45.041425" lon="9.14633"><ele>73.0</ele><time>2026-05-01T09:35:17.098Z</time></trkpt><trkpt lat="45.0415233" lon="9.1466767"><ele>72.0</ele><time>2026-05-01T09:35:18.098Z</time></trkpt><trkpt lat="45.041625" lon="9.14702"><ele>72.5</ele><time>2026-05-01T09:35:19.098Z</time></trkpt><trkpt lat="45.0417267" lon="9.147365"><ele>73.0</ele><time>2026-05-01T09:35:20.098Z</time></trkpt><trkpt lat="45.0418283" lon="9.147705"><ele>73.5</ele><time>2026-05-01T09:35:21.098Z</time></trkpt><trkpt lat="45.0419333" lon="9.1480467"><ele>74.0</ele><time>2026-05-01T09:35:22.099Z</time></trkpt><trkpt lat="45.0420333" lon="9.1483883"><ele>74.0</ele><time>2026-05-01T09:35:23.099Z</time></trkpt><trkpt lat="45.0421333" lon="9.1487283"><ele>74.0</ele><time>2026-05-01T09:35:24.099Z</time></trkpt><trkpt lat="45.0422367" lon="9.14907"><ele>74.0</ele><time>2026-05-01T09:35:25.099Z</time></trkpt><trkpt lat="45.042345" lon="9.1494117"><ele>74.0</ele><time>2026-05-01T09:35:26.098Z</time></trkpt><trkpt lat="45.04245" lon="9.149765"><ele>74.5</ele><time>2026-05-01T09:35:27.099Z</time></trkpt><trkpt lat="45.042555" lon="9.150105"><ele>75.0</ele><time>2026-05-01T09:35:28.099Z</time></trkpt><trkpt lat="45.042665" lon="9.1504483"><ele>74.0</ele><time>2026-05-01T09:35:29.099Z</time></trkpt><trkpt lat="45.0427683" lon="9.1507817"><ele>73.0</ele><time>2026-05-01T09:35:30.098Z</time></trkpt><trkpt lat="45.0429767" lon="9.1514667"><ele>72.5</ele><time>2026-05-01T09:35:32.099Z</time></trkpt><trkpt lat="45.043085" lon="9.1518117"><ele>72.0</ele><time>2026-05-01T09:35:33.098Z</time></trkpt><trkpt lat="45.04319" lon="9.152155"><ele>72.0</ele><time>2026-05-01T09:35:34.098Z</time></trkpt><trkpt lat="45.0432933" lon="9.1524983"><ele>72.0</ele><time>2026-05-01T09:35:35.098Z</time></trkpt><trkpt lat="45.0433933" lon="9.152835"><ele>73.0</ele><time>2026-05-01T09:35:36.099Z</time></trkpt><trkpt lat="45.0434917" lon="9.1531767"><ele>74.0</ele><time>2026-05-01T09:35:37.098Z</time></trkpt><trkpt lat="45.0435883" lon="9.1535217"><ele>74.5</ele><time>2026-05-01T09:35:38.098Z</time></trkpt><trkpt lat="45.043685" lon="9.1538683"><ele>75.0</ele><time>2026-05-01T09:35:39.099Z</time></trkpt><trkpt lat="45.04378" lon="9.154215"><ele>74.0</ele><time>2026-05-01T09:35:40.098Z</time></trkpt><trkpt lat="45.0438783" lon="9.1545667"><ele>73.0</ele><time>2026-05-01T09:35:41.098Z</time></trkpt><trkpt lat="45.0439817" lon="9.1549117"><ele>72.5</ele><time>2026-05-01T09:35:42.099Z</time></trkpt><trkpt lat="45.0440833" lon="9.15526"><ele>72.0</ele><time>2026-05-01T09:35:43.098Z</time></trkpt><trkpt lat="45.044185" lon="9.1556083"><ele>72.5</ele><time>2026-05-01T09:35:44.099Z</time></trkpt><trkpt lat="45.044285" lon="9.155945"><ele>73.0</ele><time>2026-05-01T09:35:45.099Z</time></trkpt><trkpt lat="45.044385" lon="9.15629"><ele>72.5</ele><time>2026-05-01T09:35:46.098Z</time></trkpt><trkpt lat="45.0444833" lon="9.1566317"><ele>72.0</ele><time>2026-05-01T09:35:47.099Z</time></trkpt><trkpt lat="45.0445833" lon="9.1569767"><ele>72.0</ele><time>2026-05-01T09:35:48.098Z</time></trkpt><trkpt lat="45.04468" lon="9.15732"><ele>72.0</ele><time>2026-05-01T09:35:49.098Z</time></trkpt><trkpt lat="45.04478" lon="9.1576633"><ele>72.5</ele><time>2026-05-01T09:35:50.098Z</time></trkpt><trkpt lat="45.0448817" lon="9.1580133"><ele>73.0</ele><time>2026-05-01T09:35:51.098Z</time></trkpt><trkpt lat="45.045085" lon="9.1586967"><ele>72.5</ele><time>2026-05-01T09:35:53.099Z</time></trkpt><trkpt lat="45.0451883" lon="9.15904"><ele>72.0</ele><time>2026-05-01T09:35:54.099Z</time></trkpt><trkpt lat="45.0452867" lon="9.1593883"><ele>72.0</ele><time>2026-05-01T09:35:55.098Z</time></trkpt><trkpt lat="45.04539" lon="9.1597333"><ele>72.0</ele><time>2026-05-01T09:35:56.098Z</time></trkpt><trkpt lat="45.045495" lon="9.1600717"><ele>72.5</ele><time>2026-05-01T09:35:57.098Z</time></trkpt><trkpt lat="45.0455983" lon="9.1604117"><ele>73.0</ele><time>2026-05-01T09:35:58.099Z</time></trkpt><trkpt lat="45.0457" lon="9.1607567"><ele>71.0</ele><time>2026-05-01T09:35:59.098Z</time></trkpt><trkpt lat="45.0458067" lon="9.1610983"><ele>69.0</ele><time>2026-05-01T09:36:00.098Z</time></trkpt><trkpt lat="45.0459117" lon="9.16144"><ele>68.5</ele><time>2026-05-01T09:36:01.099Z</time></trkpt><trkpt lat="45.0460167" lon="9.16178"><ele>68.0</ele><time>2026-05-01T09:36:02.099Z</time></trkpt><trkpt lat="45.0461183" lon="9.1621217"><ele>69.0</ele><time>2026-05-01T09:36:03.099Z</time></trkpt><trkpt lat="45.04622" lon="9.162465"><ele>70.0</ele><time>2026-05-01T09:36:04.099Z</time></trkpt><trkpt lat="45.046325" lon="9.1628033"><ele>70.0</ele><time>2026-05-01T09:36:05.099Z</time></trkpt><trkpt lat="45.046425" lon="9.1631483"><ele>70.0</ele><time>2026-05-01T09:36:06.098Z</time></trkpt><trkpt lat="45.0465283" lon="9.1634917"><ele>71.5</ele><time>2026-05-01T09:36:07.099Z</time></trkpt><trkpt lat="45.0466333" lon="9.1638383"><ele>73.0</ele><time>2026-05-01T09:36:08.098Z</time></trkpt><trkpt lat="45.0467367" lon="9.164185"><ele>73.0</ele><time>2026-05-01T09:36:09.098Z</time></trkpt><trkpt lat="45.04684" lon="9.16453"><ele>73.0</ele><time>2026-05-01T09:36:10.099Z</time></trkpt><trkpt lat="45.04694" lon="9.1648817"><ele>72.5</ele><time>2026-05-01T09:36:11.098Z</time></trkpt><trkpt lat="45.04704" lon="9.1652267"><ele>72.0</ele><time>2026-05-01T09:36:12.098Z</time></trkpt><trkpt lat="45.0472467" lon="9.16592"><ele>72.0</ele><time>2026-05-01T09:36:14.099Z</time></trkpt><trkpt lat="45.0473467" lon="9.16627"><ele>72.0</ele><time>2026-05-01T09:36:15.099Z</time></trkpt><trkpt lat="45.0474483" lon="9.1666167"><ele>72.5</ele><time>2026-05-01T09:36:16.098Z</time></trkpt><trkpt lat="45.0475533" lon="9.1669583"><ele>73.0</ele><time>2026-05-01T09:36:17.098Z</time></trkpt><trkpt lat="45.0476583" lon="9.167295"><ele>71.5</ele><time>2026-05-01T09:36:18.098Z</time></trkpt><trkpt lat="45.0477617" lon="9.1676383"><ele>70.0</ele><time>2026-05-01T09:36:19.098Z</time></trkpt><trkpt lat="45.0478617" lon="9.1679833"><ele>70.0</ele><time>2026-05-01T09:36:20.098Z</time></trkpt><trkpt lat="45.0479617" lon="9.1683317"><ele>70.0</ele><time>2026-05-01T09:36:21.098Z</time></trkpt><trkpt lat="45.0480617" lon="9.1686767"><ele>70.0</ele><time>2026-05-01T09:36:22.098Z</time></trkpt><trkpt lat="45.048165" lon="9.16902"><ele>70.0</ele><time>2026-05-01T09:36:23.098Z</time></trkpt><trkpt lat="45.0482667" lon="9.169365"><ele>70.0</ele><time>2026-05-01T09:36:24.098Z</time></trkpt><trkpt lat="45.0483633" lon="9.1697083"><ele>70.0</ele><time>2026-05-01T09:36:25.099Z</time></trkpt><trkpt lat="45.0484633" lon="9.1700517"><ele>70.0</ele><time>2026-05-01T09:36:26.099Z</time></trkpt><trkpt lat="45.0485667" lon="9.170395"><ele>70.0</ele><time>2026-05-01T09:36:27.098Z</time></trkpt><trkpt lat="45.04867" lon="9.170735"><ele>69.5</ele><time>2026-05-01T09:36:28.098Z</time></trkpt><trkpt lat="45.0487683" lon="9.171075"><ele>69.0</ele><time>2026-05-01T09:36:29.099Z</time></trkpt><trkpt lat="45.0488683" lon="9.1714217"><ele>68.0</ele><time>2026-05-01T09:36:30.098Z</time></trkpt><trkpt lat="45.0489717" lon="9.1717683"><ele>67.0</ele><time>2026-05-01T09:36:31.099Z</time></trkpt><trkpt lat="45.049075" lon="9.1721183"><ele>68.0</ele><time>2026-05-01T09:36:32.098Z</time></trkpt><trkpt lat="45.0491783" lon="9.17246"><ele>69.0</ele><time>2026-05-01T09:36:33.099Z</time></trkpt><trkpt lat="45.0493867" lon="9.1731483"><ele>69.0</ele><time>2026-05-01T09:36:35.099Z</time></trkpt><trkpt lat="45.049485" lon="9.1734967"><ele>69.0</ele><time>2026-05-01T09:36:36.099Z</time></trkpt><trkpt lat="45.0495883" lon="9.17384"><ele>68.5</ele><time>2026-05-01T09:36:37.099Z</time></trkpt><trkpt lat="45.0496917" lon="9.174185"><ele>68.0</ele><time>2026-05-01T09:36:38.098Z</time></trkpt><trkpt lat="45.0497917" lon="9.1745317"><ele>68.0</ele><time>2026-05-01T09:36:39.098Z</time></trkpt><trkpt lat="45.049895" lon="9.17488"><ele>68.0</ele><time>2026-05-01T09:36:40.099Z</time></trkpt><trkpt lat="45.0499967" lon="9.1752267"><ele>68.0</ele><time>2026-05-01T09:36:41.098Z</time></trkpt><trkpt lat="45.0500983" lon="9.175575"><ele>68.0</ele><time>2026-05-01T09:36:42.098Z</time></trkpt><trkpt lat="45.0502017" lon="9.1759183"><ele>67.0</ele><time>2026-05-01T09:36:43.099Z</time></trkpt><trkpt lat="45.050305" lon="9.1762667"><ele>66.0</ele><time>2026-05-01T09:36:44.098Z</time></trkpt><trkpt lat="45.0504083" lon="9.176615"><ele>66.0</ele><time>2026-05-01T09:36:45.099Z</time></trkpt><trkpt lat="45.050505" lon="9.1769667"><ele>66.0</ele><time>2026-05-01T09:36:46.099Z</time></trkpt><trkpt lat="45.0506067" lon="9.1773117"><ele>66.0</ele><time>2026-05-01T09:36:47.099Z</time></trkpt><trkpt lat="45.0507117" lon="9.1776533"><ele>66.0</ele><time>2026-05-01T09:36:48.099Z</time></trkpt><trkpt lat="45.050815" lon="9.1779983"><ele>66.0</ele><time>2026-05-01T09:36:49.098Z</time></trkpt><trkpt lat="45.0509133" lon="9.17835"><ele>66.0</ele><time>2026-05-01T09:36:50.099Z</time></trkpt><trkpt lat="45.051015" lon="9.1786983"><ele>66.0</ele><time>2026-05-01T09:36:51.098Z</time></trkpt><trkpt lat="45.05112" lon="9.1790433"><ele>66.0</ele><time>2026-05-01T09:36:52.098Z</time></trkpt><trkpt lat="45.0512233" lon="9.1793917"><ele>66.0</ele><time>2026-05-01T09:36:53.098Z</time></trkpt><trkpt lat="45.0513267" lon="9.1797333"><ele>66.0</ele><time>2026-05-01T09:36:54.098Z</time></trkpt><trkpt lat="45.051535" lon="9.1804283"><ele>66.5</ele><time>2026-05-01T09:36:56.099Z</time></trkpt><trkpt lat="45.0516367" lon="9.1807767"><ele>67.0</ele><time>2026-05-01T09:36:57.098Z</time></trkpt><trkpt lat="45.0517367" lon="9.1811267"><ele>67.0</ele><time>2026-05-01T09:36:58.099Z</time></trkpt><trkpt lat="45.0518367" lon="9.1814783"><ele>67.0</ele><time>2026-05-01T09:36:59.098Z</time></trkpt><trkpt lat="45.0519417" lon="9.1818283"><ele>67.0</ele><time>2026-05-01T09:37:00.098Z</time></trkpt><trkpt lat="45.0520467" lon="9.182175"><ele>67.0</ele><time>2026-05-01T09:37:01.099Z</time></trkpt><trkpt lat="45.05215" lon="9.1825217"><ele>66.5</ele><time>2026-05-01T09:37:02.098Z</time></trkpt><trkpt lat="45.0522533" lon="9.1828683"><ele>66.0</ele><time>2026-05-01T09:37:03.098Z</time></trkpt><trkpt lat="45.0523583" lon="9.183215"><ele>65.5</ele><time>2026-05-01T09:37:04.098Z</time></trkpt><trkpt lat="45.052465" lon="9.18356"><ele>65.0</ele><time>2026-05-01T09:37:05.098Z</time></trkpt><trkpt lat="45.05257" lon="9.1839067"><ele>64.5</ele><time>2026-05-01T09:37:06.098Z</time></trkpt><trkpt lat="45.0526733" lon="9.184255"><ele>64.0</ele><time>2026-05-01T09:37:07.099Z</time></trkpt><trkpt lat="45.0527767" lon="9.1846033"><ele>65.5</ele><time>2026-05-01T09:37:08.098Z</time></trkpt><trkpt lat="45.0528817" lon="9.1849517"><ele>67.0</ele><time>2026-05-01T09:37:09.098Z</time></trkpt><trkpt lat="45.05298" lon="9.18531"><ele>67.0</ele><time>2026-05-01T09:37:10.099Z</time></trkpt><trkpt lat="45.0530833" lon="9.1856567"><ele>67.0</ele><time>2026-05-01T09:37:11.098Z</time></trkpt><trkpt lat="45.0531817" lon="9.1860033"><ele>68.0</ele><time>2026-05-01T09:37:12.099Z</time></trkpt><trkpt lat="45.0532833" lon="9.1863517"><ele>69.0</ele><time>2026-05-01T09:37:13.098Z</time></trkpt><trkpt lat="45.053385" lon="9.1867017"><ele>67.0</ele><time>2026-05-01T09:37:14.098Z</time></trkpt><trkpt lat="45.0534867" lon="9.187045"><ele>65.0</ele><time>2026-05-01T09:37:15.099Z</time></trkpt><trkpt lat="45.0536933" lon="9.18773"><ele>64.0</ele><time>2026-05-01T09:37:17.099Z</time></trkpt><trkpt lat="45.0537967" lon="9.1880783"><ele>63.0</ele><time>2026-05-01T09:37:18.099Z</time></trkpt><trkpt lat="45.0539" lon="9.188425"><ele>63.0</ele><time>2026-05-01T09:37:19.099Z</time></trkpt><trkpt lat="45.0540067" lon="9.1887733"><ele>63.0</ele><time>2026-05-01T09:37:20.098Z</time></trkpt><trkpt lat="45.0541167" lon="9.1891133"><ele>63.5</ele><time>2026-05-01T09:37:21.098Z</time></trkpt><trkpt lat="45.0542133" lon="9.1894617"><ele>64.0</ele><time>2026-05-01T09:37:22.098Z</time></trkpt><trkpt lat="45.0543167" lon="9.1898083"><ele>63.5</ele><time>2026-05-01T09:37:23.098Z</time></trkpt><trkpt lat="45.0544183" lon="9.1901583"><ele>63.0</ele><time>2026-05-01T09:37:24.099Z</time></trkpt><trkpt lat="45.0545183" lon="9.1905033"><ele>63.5</ele><time>2026-05-01T09:37:25.099Z</time></trkpt><trkpt lat="45.05462" lon="9.19085"><ele>64.0</ele><time>2026-05-01T09:37:26.098Z</time></trkpt><trkpt lat="45.0547233" lon="9.19119"><ele>64.5</ele><time>2026-05-01T09:37:27.099Z</time></trkpt><trkpt lat="45.0548283" lon="9.1915367"><ele>65.0</ele><time>2026-05-01T09:37:28.098Z</time></trkpt><trkpt lat="45.054935" lon="9.191885"><ele>65.0</ele><time>2026-05-01T09:37:29.099Z</time></trkpt><trkpt lat="45.05504" lon="9.1922333"><ele>65.0</ele><time>2026-05-01T09:37:30.098Z</time></trkpt><trkpt lat="45.0551483" lon="9.1925833"><ele>65.0</ele><time>2026-05-01T09:37:31.099Z</time></trkpt><trkpt lat="45.0552483" lon="9.19293"><ele>65.0</ele><time>2026-05-01T09:37:32.099Z</time></trkpt><trkpt lat="45.0553533" lon="9.1932783"><ele>64.5</ele><time>2026-05-01T09:37:33.099Z</time></trkpt><trkpt lat="45.0554583" lon="9.193625"><ele>64.0</ele><time>2026-05-01T09:37:34.098Z</time></trkpt><trkpt lat="45.0555633" lon="9.1939767"><ele>64.0</ele><time>2026-05-01T09:37:35.098Z</time></trkpt><trkpt lat="45.055665" lon="9.1943317"><ele>64.0</ele><time>2026-05-01T09:37:36.098Z</time></trkpt><trkpt lat="45.0558683" lon="9.1950383"><ele>64.0</ele><time>2026-05-01T09:37:38.099Z</time></trkpt><trkpt lat="45.0559733" lon="9.1953883"><ele>64.0</ele><time>2026-05-01T09:37:39.098Z</time></trkpt><trkpt lat="45.0560717" lon="9.1957367"><ele>63.5</ele><time>2026-05-01T09:37:40.099Z</time></trkpt><trkpt lat="45.05618" lon="9.1960867"><ele>63.0</ele><time>2026-05-01T09:37:41.098Z</time></trkpt><trkpt lat="45.0562833" lon="9.196435"><ele>62.5</ele><time>2026-05-01T09:37:42.099Z</time></trkpt><trkpt lat="45.056385" lon="9.19678"><ele>62.0</ele><time>2026-05-01T09:37:43.099Z</time></trkpt><trkpt lat="45.056485" lon="9.197125"><ele>62.5</ele><time>2026-05-01T09:37:44.099Z</time></trkpt><trkpt lat="45.0565867" lon="9.1974733"><ele>63.0</ele><time>2026-05-01T09:37:45.099Z</time></trkpt><trkpt lat="45.056695" lon="9.1978133"><ele>64.0</ele><time>2026-05-01T09:37:46.098Z</time></trkpt><trkpt lat="45.0567983" lon="9.1981583"><ele>65.0</ele><time>2026-05-01T09:37:47.099Z</time></trkpt><trkpt lat="45.0569017" lon="9.1985117"><ele>65.0</ele><time>2026-05-01T09:37:48.098Z</time></trkpt><trkpt lat="45.0570017" lon="9.1988667"><ele>65.0</ele><time>2026-05-01T09:37:49.098Z</time></trkpt><trkpt lat="45.0571133" lon="9.1992167"><ele>65.0</ele><time>2026-05-01T09:37:50.098Z</time></trkpt><trkpt lat="45.057225" lon="9.1995617"><ele>65.0</ele><time>2026-05-01T09:37:51.099Z</time></trkpt><trkpt lat="45.0573383" lon="9.1999083"><ele>65.5</ele><time>2026-05-01T09:37:52.098Z</time></trkpt><trkpt lat="45.0574483" lon="9.2002583"><ele>66.0</ele><time>2026-05-01T09:37:53.098Z</time></trkpt><trkpt lat="45.0575617" lon="9.20061"><ele>65.0</ele><time>2026-05-01T09:37:54.099Z</time></trkpt><trkpt lat="45.0576783" lon="9.2009533"><ele>64.0</ele><time>2026-05-01T09:37:55.098Z</time></trkpt><trkpt lat="45.0577917" lon="9.2013033"><ele>64.0</ele><time>2026-05-01T09:37:56.098Z</time></trkpt><trkpt lat="45.0579033" lon="9.2016517"><ele>64.0</ele><time>2026-05-01T09:37:57.098Z</time></trkpt><trkpt lat="45.0581417" lon="9.2023333"><ele>65.0</ele><time>2026-05-01T09:37:59.099Z</time></trkpt><trkpt lat="45.058255" lon="9.2026717"><ele>66.0</ele><time>2026-05-01T09:38:00.098Z</time></trkpt><trkpt lat="45.0583667" lon="9.2030083"><ele>66.5</ele><time>2026-05-01T09:38:01.099Z</time></trkpt><trkpt lat="45.0584883" lon="9.2033483"><ele>67.0</ele><time>2026-05-01T09:38:02.098Z</time></trkpt><trkpt lat="45.0586017" lon="9.2036917"><ele>66.0</ele><time>2026-05-01T09:38:03.099Z</time></trkpt><trkpt lat="45.05872" lon="9.2040383"><ele>65.0</ele><time>2026-05-01T09:38:04.098Z</time></trkpt><trkpt lat="45.0588383" lon="9.2043817"><ele>65.0</ele><time>2026-05-01T09:38:05.098Z</time></trkpt><trkpt lat="45.058955" lon="9.2047233"><ele>65.0</ele><time>2026-05-01T09:38:06.099Z</time></trkpt><trkpt lat="45.059075" lon="9.2050667"><ele>64.5</ele><time>2026-05-01T09:38:07.098Z</time></trkpt><trkpt lat="45.0591967" lon="9.205405"><ele>64.0</ele><time>2026-05-01T09:38:08.098Z</time></trkpt><trkpt lat="45.05932" lon="9.2057433"><ele>65.5</ele><time>2026-05-01T09:38:09.098Z</time></trkpt><trkpt lat="45.0594433" lon="9.2060833"><ele>67.0</ele><time>2026-05-01T09:38:10.098Z</time></trkpt><trkpt lat="45.059565" lon="9.20642"><ele>66.0</ele><time>2026-05-01T09:38:11.098Z</time></trkpt><trkpt lat="45.0596917" lon="9.2067583"><ele>65.0</ele><time>2026-05-01T09:38:12.098Z</time></trkpt><trkpt lat="45.0598167" lon="9.2070933"><ele>64.0</ele><time>2026-05-01T09:38:13.099Z</time></trkpt><trkpt lat="45.0599433" lon="9.2074283"><ele>63.0</ele><time>2026-05-01T09:38:14.098Z</time></trkpt><trkpt lat="45.060065" lon="9.2077667"><ele>62.5</ele><time>2026-05-01T09:38:15.099Z</time></trkpt><trkpt lat="45.0601917" lon="9.2081033"><ele>62.0</ele><time>2026-05-01T09:38:16.099Z</time></trkpt><trkpt lat="45.0603217" lon="9.20844"><ele>64.5</ele><time>2026-05-01T09:38:17.098Z</time></trkpt><trkpt lat="45.06045" lon="9.20878"><ele>67.0</ele><time>2026-05-01T09:38:18.099Z</time></trkpt><trkpt lat="45.0607033" lon="9.2094633"><ele>66.5</ele><time>2026-05-01T09:38:20.099Z</time></trkpt><trkpt lat="45.060835" lon="9.209815"><ele>66.0</ele><time>2026-05-01T09:38:21.098Z</time></trkpt><trkpt lat="45.0609667" lon="9.2101683"><ele>66.0</ele><time>2026-05-01T09:38:22.098Z</time></trkpt><trkpt lat="45.061095" lon="9.2105183"><ele>66.0</ele><time>2026-05-01T09:38:23.099Z</time></trkpt><trkpt lat="45.061225" lon="9.2108667"><ele>66.0</ele><time>2026-05-01T09:38:24.099Z</time></trkpt><trkpt lat="45.061355" lon="9.211215"><ele>66.0</ele><time>2026-05-01T09:38:25.098Z</time></trkpt><trkpt lat="45.0614883" lon="9.2115583"><ele>66.0</ele><time>2026-05-01T09:38:26.099Z</time></trkpt><trkpt lat="45.061615" lon="9.2119033"><ele>66.0</ele><time>2026-05-01T09:38:27.098Z</time></trkpt><trkpt lat="45.061745" lon="9.2122483"><ele>66.5</ele><time>2026-05-01T09:38:28.098Z</time></trkpt><trkpt lat="45.0618733" lon="9.2125933"><ele>67.0</ele><time>2026-05-01T09:38:29.099Z</time></trkpt><trkpt lat="45.0620067" lon="9.2129317"><ele>68.5</ele><time>2026-05-01T09:38:30.098Z</time></trkpt><trkpt lat="45.0621333" lon="9.2132767"><ele>70.0</ele><time>2026-05-01T09:38:31.098Z</time></trkpt><trkpt lat="45.062265" lon="9.21362"><ele>70.0</ele><time>2026-05-01T09:38:32.098Z</time></trkpt><trkpt lat="45.0623933" lon="9.21396"><ele>70.0</ele><time>2026-05-01T09:38:33.098Z</time></trkpt><trkpt lat="45.0625233" lon="9.2143033"><ele>69.5</ele><time>2026-05-01T09:38:34.099Z</time></trkpt><trkpt lat="45.062655" lon="9.2146483"><ele>69.0</ele><time>2026-05-01T09:38:35.098Z</time></trkpt><trkpt lat="45.0627833" lon="9.2149917"><ele>69.0</ele><time>2026-05-01T09:38:36.099Z</time></trkpt><trkpt lat="45.06291" lon="9.215335"><ele>69.0</ele><time>2026-05-01T09:38:37.099Z</time></trkpt><trkpt lat="45.0630367" lon="9.2156717"><ele>69.0</ele><time>2026-05-01T09:38:38.098Z</time></trkpt><trkpt lat="45.0631633" lon="9.2160117"><ele>69.0</ele><time>2026-05-01T09:38:39.099Z</time></trkpt><trkpt lat="45.0634233" lon="9.2166983"><ele>69.0</ele><time>2026-05-01T09:38:41.098Z</time></trkpt><trkpt lat="45.0635533" lon="9.217045"><ele>69.0</ele><time>2026-05-01T09:38:42.099Z</time></trkpt><trkpt lat="45.0636833" lon="9.2173883"><ele>68.5</ele><time>2026-05-01T09:38:43.098Z</time></trkpt><trkpt lat="45.0638133" lon="9.2177333"><ele>68.0</ele><time>2026-05-01T09:38:44.098Z</time></trkpt><trkpt lat="45.0639417" lon="9.2180867"><ele>68.0</ele><time>2026-05-01T09:38:45.098Z</time></trkpt><trkpt lat="45.06407" lon="9.2184367"><ele>68.0</ele><time>2026-05-01T09:38:46.099Z</time></trkpt><trkpt lat="45.0642" lon="9.2187867"><ele>70.0</ele><time>2026-05-01T09:38:47.099Z</time></trkpt><trkpt lat="45.0643333" lon="9.21913"><ele>72.0</ele><time>2026-05-01T09:38:48.099Z</time></trkpt><trkpt lat="45.064465" lon="9.2194717"><ele>72.0</ele><time>2026-05-01T09:38:49.099Z</time></trkpt><trkpt lat="45.0645933" lon="9.2198133"><ele>72.0</ele><time>2026-05-01T09:38:50.098Z</time></trkpt><trkpt lat="45.064725" lon="9.2201517"><ele>72.0</ele><time>2026-05-01T09:38:51.099Z</time></trkpt><trkpt lat="45.06485" lon="9.2204983"><ele>72.0</ele><time>2026-05-01T09:38:52.099Z</time></trkpt><trkpt lat="45.0649767" lon="9.2208417"><ele>72.5</ele><time>2026-05-01T09:38:53.098Z</time></trkpt><trkpt lat="45.0651067" lon="9.2211833"><ele>73.0</ele><time>2026-05-01T09:38:54.098Z</time></trkpt><trkpt lat="45.065235" lon="9.2215283"><ele>73.0</ele><time>2026-05-01T09:38:55.099Z</time></trkpt><trkpt lat="45.0653633" lon="9.22187"><ele>73.0</ele><time>2026-05-01T09:38:56.098Z</time></trkpt><trkpt lat="45.065495" lon="9.2222133"><ele>72.5</ele><time>2026-05-01T09:38:57.098Z</time></trkpt><trkpt lat="45.065625" lon="9.2225617"><ele>72.0</ele><time>2026-05-01T09:38:58.098Z</time></trkpt><trkpt lat="45.065755" lon="9.2229183"><ele>74.5</ele><time>2026-05-01T09:38:59.098Z</time></trkpt><trkpt lat="45.0658883" lon="9.223265"><ele>77.0</ele><time>2026-05-01T09:39:00.098Z</time></trkpt><trkpt lat="45.0661467" lon="9.223955"><ele>77.0</ele><time>2026-05-01T09:39:02.098Z</time></trkpt><trkpt lat="45.0662767" lon="9.2242983"><ele>77.0</ele><time>2026-05-01T09:39:03.099Z</time></trkpt><trkpt lat="45.0664017" lon="9.2246383"><ele>76.5</ele><time>2026-05-01T09:39:04.099Z</time></trkpt><trkpt lat="45.066535" lon="9.2249833"><ele>76.0</ele><time>2026-05-01T09:39:05.099Z</time></trkpt><trkpt lat="45.0666633" lon="9.2253283"><ele>76.0</ele><time>2026-05-01T09:39:06.099Z</time></trkpt><trkpt lat="45.06679" lon="9.2256783"><ele>76.0</ele><time>2026-05-01T09:39:07.098Z</time></trkpt><trkpt lat="45.0669217" lon="9.226025"><ele>76.0</ele><time>2026-05-01T09:39:08.099Z</time></trkpt><trkpt lat="45.0670533" lon="9.2263733"><ele>76.0</ele><time>2026-05-01T09:39:09.098Z</time></trkpt><trkpt lat="45.06718" lon="9.2267233"><ele>75.5</ele><time>2026-05-01T09:39:10.098Z</time></trkpt><trkpt lat="45.0673083" lon="9.22707"><ele>75.0</ele><time>2026-05-01T09:39:11.098Z</time></trkpt><trkpt lat="45.0674367" lon="9.227415"><ele>76.0</ele><time>2026-05-01T09:39:12.099Z</time></trkpt><trkpt lat="45.0675617" lon="9.227765"><ele>77.0</ele><time>2026-05-01T09:39:13.098Z</time></trkpt><trkpt lat="45.0676833" lon="9.2281167"><ele>75.5</ele><time>2026-05-01T09:39:14.098Z</time></trkpt><trkpt lat="45.067805" lon="9.22846"><ele>74.0</ele><time>2026-05-01T09:39:15.099Z</time></trkpt><trkpt lat="45.06792" lon="9.22881"><ele>73.0</ele><time>2026-05-01T09:39:16.098Z</time></trkpt><trkpt lat="45.0680383" lon="9.2291533"><ele>72.0</ele><time>2026-05-01T09:39:17.098Z</time></trkpt><trkpt lat="45.068155" lon="9.2294983"><ele>72.5</ele><time>2026-05-01T09:39:18.099Z</time></trkpt><trkpt lat="45.06827" lon="9.22985"><ele>73.0</ele><time>2026-05-01T09:39:19.099Z</time></trkpt><trkpt lat="45.068385" lon="9.2302033"><ele>73.5</ele><time>2026-05-01T09:39:20.099Z</time></trkpt><trkpt lat="45.0685017" lon="9.2305633"><ele>74.0</ele><time>2026-05-01T09:39:21.098Z</time></trkpt><trkpt lat="45.0687317" lon="9.23128"><ele>72.5</ele><time>2026-05-01T09:39:23.098Z</time></trkpt><trkpt lat="45.068845" lon="9.2316367"><ele>71.0</ele><time>2026-05-01T09:39:24.098Z</time></trkpt><trkpt lat="45.068955" lon="9.2319933"><ele>71.0</ele><time>2026-05-01T09:39:25.098Z</time></trkpt><trkpt lat="45.06906" lon="9.2323467"><ele>71.0</ele><time>2026-05-01T09:39:26.098Z</time></trkpt><trkpt lat="45.0691667" lon="9.2327033"><ele>71.5</ele><time>2026-05-01T09:39:27.099Z</time></trkpt><trkpt lat="45.0692733" lon="9.2330617"><ele>72.0</ele><time>2026-05-01T09:39:28.098Z</time></trkpt><trkpt lat="45.0693783" lon="9.2334183"><ele>70.5</ele><time>2026-05-01T09:39:29.099Z</time></trkpt><trkpt lat="45.0694817" lon="9.2337783"><ele>69.0</ele><time>2026-05-01T09:39:30.099Z</time></trkpt><trkpt lat="45.069585" lon="9.234135"><ele>68.5</ele><time>2026-05-01T09:39:31.098Z</time></trkpt><trkpt lat="45.0696833" lon="9.2345017"><ele>68.0</ele><time>2026-05-01T09:39:32.098Z</time></trkpt><trkpt lat="45.0697833" lon="9.234865"><ele>67.5</ele><time>2026-05-01T09:39:33.099Z</time></trkpt><trkpt lat="45.06988" lon="9.235235"><ele>67.0</ele><time>2026-05-01T09:39:34.098Z</time></trkpt><trkpt lat="45.069975" lon="9.2356"><ele>69.0</ele><time>2026-05-01T09:39:35.099Z</time></trkpt><trkpt lat="45.070075" lon="9.2359633"><ele>71.0</ele><time>2026-05-01T09:39:36.098Z</time></trkpt><trkpt lat="45.0701683" lon="9.2363333"><ele>70.5</ele><time>2026-05-01T09:39:37.098Z</time></trkpt><trkpt lat="45.0702633" lon="9.236695"><ele>70.0</ele><time>2026-05-01T09:39:38.098Z</time></trkpt><trkpt lat="45.0703517" lon="9.2370633"><ele>69.5</ele><time>2026-05-01T09:39:39.099Z</time></trkpt><trkpt lat="45.07044" lon="9.237435"><ele>69.0</ele><time>2026-05-01T09:39:40.099Z</time></trkpt><trkpt lat="45.0705333" lon="9.2378083"><ele>69.5</ele><time>2026-05-01T09:39:41.098Z</time></trkpt><trkpt lat="45.070625" lon="9.2381733"><ele>70.0</ele><time>2026-05-01T09:39:42.098Z</time></trkpt><trkpt lat="45.07081" lon="9.23891"><ele>69.5</ele><time>2026-05-01T09:39:44.099Z</time></trkpt><trkpt lat="45.0709" lon="9.2392783"><ele>69.0</ele><time>2026-05-01T09:39:45.098Z</time></trkpt><trkpt lat="45.0709867" lon="9.23965"><ele>70.0</ele><time>2026-05-01T09:39:46.099Z</time></trkpt><trkpt lat="45.071075" lon="9.24002"><ele>71.0</ele><time>2026-05-01T09:39:47.099Z</time></trkpt><trkpt lat="45.0711617" lon="9.2403917"><ele>71.5</ele><time>2026-05-01T09:39:48.098Z</time></trkpt><trkpt lat="45.0712517" lon="9.2407583"><ele>72.0</ele><time>2026-05-01T09:39:49.098Z</time></trkpt><trkpt lat="45.07134" lon="9.2411317"><ele>71.5</ele><time>2026-05-01T09:39:50.099Z</time></trkpt><trkpt lat="45.0714333" lon="9.2415017"><ele>71.0</ele><time>2026-05-01T09:39:51.098Z</time></trkpt><trkpt lat="45.0715267" lon="9.241875"><ele>71.0</ele><time>2026-05-01T09:39:52.098Z</time></trkpt><trkpt lat="45.0716183" lon="9.24224"><ele>71.0</ele><time>2026-05-01T09:39:53.098Z</time></trkpt><trkpt lat="45.07171" lon="9.2426017"><ele>71.0</ele><time>2026-05-01T09:39:54.099Z</time></trkpt><trkpt lat="45.0718" lon="9.2429667"><ele>71.0</ele><time>2026-05-01T09:39:55.098Z</time></trkpt><trkpt lat="45.07189" lon="9.2433333"><ele>71.0</ele><time>2026-05-01T09:39:56.098Z</time></trkpt><trkpt lat="45.0719767" lon="9.2437033"><ele>71.0</ele><time>2026-05-01T09:39:57.098Z</time></trkpt><trkpt lat="45.0720667" lon="9.24407"><ele>70.5</ele><time>2026-05-01T09:39:58.098Z</time></trkpt><trkpt lat="45.072155" lon="9.2444417"><ele>70.0</ele><time>2026-05-01T09:39:59.098Z</time></trkpt><trkpt lat="45.0722467" lon="9.24481"><ele>70.0</ele><time>2026-05-01T09:40:00.098Z</time></trkpt><trkpt lat="45.0723333" lon="9.2451867"><ele>70.0</ele><time>2026-05-01T09:40:01.098Z</time></trkpt><trkpt lat="45.0724233" lon="9.245555"><ele>70.0</ele><time>2026-05-01T09:40:02.098Z</time></trkpt><trkpt lat="45.0725133" lon="9.24592"><ele>70.0</ele><time>2026-05-01T09:40:03.099Z</time></trkpt><trkpt lat="45.0726917" lon="9.2466567"><ele>70.0</ele><time>2026-05-01T09:40:05.099Z</time></trkpt><trkpt lat="45.07278" lon="9.247025"><ele>70.0</ele><time>2026-05-01T09:40:06.099Z</time></trkpt><trkpt lat="45.07287" lon="9.24739"><ele>70.5</ele><time>2026-05-01T09:40:07.098Z</time></trkpt><trkpt lat="45.0729617" lon="9.2477533"><ele>71.0</ele><time>2026-05-01T09:40:08.098Z</time></trkpt><trkpt lat="45.073055" lon="9.2481217"><ele>72.0</ele><time>2026-05-01T09:40:09.099Z</time></trkpt><trkpt lat="45.0731483" lon="9.2484933"><ele>73.0</ele><time>2026-05-01T09:40:10.098Z</time></trkpt><trkpt lat="45.0732383" lon="9.248865"><ele>72.0</ele><time>2026-05-01T09:40:11.098Z</time></trkpt><trkpt lat="45.0733267" lon="9.2492417"><ele>71.0</ele><time>2026-05-01T09:40:12.099Z</time></trkpt><trkpt lat="45.0734133" lon="9.2496083"><ele>70.5</ele><time>2026-05-01T09:40:13.099Z</time></trkpt><trkpt lat="45.0735033" lon="9.249975"><ele>70.0</ele><time>2026-05-01T09:40:14.098Z</time></trkpt><trkpt lat="45.07359" lon="9.2503467"><ele>70.0</ele><time>2026-05-01T09:40:15.099Z</time></trkpt><trkpt lat="45.0736767" lon="9.250715"><ele>70.0</ele><time>2026-05-01T09:40:16.099Z</time></trkpt><trkpt lat="45.0737617" lon="9.2510817"><ele>70.0</ele><time>2026-05-01T09:40:17.098Z</time></trkpt><trkpt lat="45.0738533" lon="9.2514517"><ele>70.0</ele><time>2026-05-01T09:40:18.098Z</time></trkpt><trkpt lat="45.073945" lon="9.2518233"><ele>69.5</ele><time>2026-05-01T09:40:19.099Z</time></trkpt><trkpt lat="45.0740383" lon="9.2521917"><ele>69.0</ele><time>2026-05-01T09:40:20.098Z</time></trkpt><trkpt lat="45.074135" lon="9.2525517"><ele>70.0</ele><time>2026-05-01T09:40:21.098Z</time></trkpt><trkpt lat="45.0742233" lon="9.2529217"><ele>71.0</ele><time>2026-05-01T09:40:22.098Z</time></trkpt><trkpt lat="45.07431" lon="9.25329"><ele>71.0</ele><time>2026-05-01T09:40:23.099Z</time></trkpt><trkpt lat="45.0744017" lon="9.2536567"><ele>71.0</ele><time>2026-05-01T09:40:24.099Z</time></trkpt><trkpt lat="45.07458" lon="9.2543883"><ele>70.0</ele><time>2026-05-01T09:40:26.099Z</time></trkpt><trkpt lat="45.074665" lon="9.2547583"><ele>69.0</ele><time>2026-05-01T09:40:27.099Z</time></trkpt><trkpt lat="45.07476" lon="9.2551283"><ele>68.5</ele><time>2026-05-01T09:40:28.098Z</time></trkpt><trkpt lat="45.0748483" lon="9.2555"><ele>68.0</ele><time>2026-05-01T09:40:29.098Z</time></trkpt><trkpt lat="45.0749383" lon="9.2558683"><ele>70.5</ele><time>2026-05-01T09:40:30.099Z</time></trkpt><trkpt lat="45.0750333" lon="9.2562367"><ele>73.0</ele><time>2026-05-01T09:40:31.098Z</time></trkpt><trkpt lat="45.0751233" lon="9.2566117"><ele>73.0</ele><time>2026-05-01T09:40:32.098Z</time></trkpt><trkpt lat="45.0752083" lon="9.2569833"><ele>73.0</ele><time>2026-05-01T09:40:33.098Z</time></trkpt><trkpt lat="45.0752967" lon="9.25735"><ele>71.5</ele><time>2026-05-01T09:40:34.099Z</time></trkpt><trkpt lat="45.0753817" lon="9.2577133"><ele>70.0</ele><time>2026-05-01T09:40:35.098Z</time></trkpt><trkpt lat="45.0754683" lon="9.2580783"><ele>71.0</ele><time>2026-05-01T09:40:36.098Z</time></trkpt><trkpt lat="45.0755533" lon="9.2584483"><ele>72.0</ele><time>2026-05-01T09:40:37.098Z</time></trkpt><trkpt lat="45.07564" lon="9.2588083"><ele>73.0</ele><time>2026-05-01T09:40:38.098Z</time></trkpt><trkpt lat="45.0757333" lon="9.2591717"><ele>74.0</ele><time>2026-05-01T09:40:39.099Z</time></trkpt><trkpt lat="45.075825" lon="9.2595333"><ele>73.0</ele><time>2026-05-01T09:40:40.099Z</time></trkpt><trkpt lat="45.0759183" lon="9.2599"><ele>72.0</ele><time>2026-05-01T09:40:41.098Z</time></trkpt><trkpt lat="45.0760083" lon="9.260265"><ele>72.0</ele><time>2026-05-01T09:40:42.098Z</time></trkpt><trkpt lat="45.0761" lon="9.2606367"><ele>72.0</ele><time>2026-05-01T09:40:43.098Z</time></trkpt><trkpt lat="45.076185" lon="9.26101"><ele>72.0</ele><time>2026-05-01T09:40:44.099Z</time></trkpt><trkpt lat="45.076275" lon="9.261385"><ele>72.0</ele><time>2026-05-01T09:40:45.098Z</time></trkpt><trkpt lat="45.0764567" lon="9.26213"><ele>72.0</ele><time>2026-05-01T09:40:47.099Z</time></trkpt><trkpt lat="45.076545" lon="9.2625"><ele>72.0</ele><time>2026-05-01T09:40:48.098Z</time></trkpt><trkpt lat="45.0766367" lon="9.2628617"><ele>71.5</ele><time>2026-05-01T09:40:49.099Z</time></trkpt><trkpt lat="45.076725" lon="9.2632317"><ele>71.0</ele><time>2026-05-01T09:40:50.098Z</time></trkpt><trkpt lat="45.076815" lon="9.2636"><ele>70.5</ele><time>2026-05-01T09:40:51.099Z</time></trkpt><trkpt lat="45.076905" lon="9.26397"><ele>70.0</ele><time>2026-05-01T09:40:52.098Z</time></trkpt><trkpt lat="45.0769967" lon="9.2643367"><ele>70.0</ele><time>2026-05-01T09:40:53.099Z</time></trkpt><trkpt lat="45.077085" lon="9.2647033"><ele>70.0</ele><time>2026-05-01T09:40:54.099Z</time></trkpt><trkpt lat="45.0771733" lon="9.2650733"><ele>70.0</ele><time>2026-05-01T09:40:55.099Z</time></trkpt><trkpt lat="45.077265" lon="9.2654417"><ele>70.0</ele><time>2026-05-01T09:40:56.099Z</time></trkpt><trkpt lat="45.0773567" lon="9.2658083"><ele>69.0</ele><time>2026-05-01T09:40:57.099Z</time></trkpt><trkpt lat="45.0774433" lon="9.2661783"><ele>68.0</ele><time>2026-05-01T09:40:58.098Z</time></trkpt><trkpt lat="45.07753" lon="9.2665467"><ele>68.0</ele><time>2026-05-01T09:40:59.098Z</time></trkpt><trkpt lat="45.0776183" lon="9.26692"><ele>68.0</ele><time>2026-05-01T09:41:00.099Z</time></trkpt><trkpt lat="45.0777083" lon="9.2672933"><ele>68.0</ele><time>2026-05-01T09:41:01.098Z</time></trkpt><trkpt lat="45.077795" lon="9.26766"><ele>68.0</ele><time>2026-05-01T09:41:02.099Z</time></trkpt><trkpt lat="45.077875" lon="9.2680317"><ele>67.5</ele><time>2026-05-01T09:41:03.098Z</time></trkpt><trkpt lat="45.0779567" lon="9.2684017"><ele>67.0</ele><time>2026-05-01T09:41:04.098Z</time></trkpt><trkpt lat="45.07804" lon="9.2687717"><ele>67.0</ele><time>2026-05-01T09:41:05.099Z</time></trkpt><trkpt lat="45.0781217" lon="9.2691467"><ele>67.0</ele><time>2026-05-01T09:41:06.098Z</time></trkpt><trkpt lat="45.0782783" lon="9.2698767"><ele>67.5</ele><time>2026-05-01T09:41:08.098Z</time></trkpt><trkpt lat="45.078355" lon="9.2702333"><ele>68.0</ele><time>2026-05-01T09:41:09.099Z</time></trkpt><trkpt lat="45.0784333" lon="9.2705883"><ele>67.0</ele><time>2026-05-01T09:41:10.098Z</time></trkpt><trkpt lat="45.0785083" lon="9.27095"><ele>66.0</ele><time>2026-05-01T09:41:11.099Z</time></trkpt><trkpt lat="45.0785817" lon="9.27132"><ele>66.0</ele><time>2026-05-01T09:41:12.098Z</time></trkpt><trkpt lat="45.0786567" lon="9.2716833"><ele>66.0</ele><time>2026-05-01T09:41:13.099Z</time></trkpt><trkpt lat="45.0787283" lon="9.2720483"><ele>68.0</ele><time>2026-05-01T09:41:14.098Z</time></trkpt><trkpt lat="45.0787933" lon="9.2724"><ele>70.0</ele><time>2026-05-01T09:41:15.098Z</time></trkpt><trkpt lat="45.07886" lon="9.272735"><ele>70.0</ele><time>2026-05-01T09:41:16.098Z</time></trkpt><trkpt lat="45.0789333" lon="9.273085"><ele>70.0</ele><time>2026-05-01T09:41:17.099Z</time></trkpt><trkpt lat="45.0790067" lon="9.2734433"><ele>70.5</ele><time>2026-05-01T09:41:18.099Z</time></trkpt><trkpt lat="45.079085" lon="9.27381"><ele>71.0</ele><time>2026-05-01T09:41:19.099Z</time></trkpt><trkpt lat="45.07916" lon="9.27418"><ele>69.0</ele><time>2026-05-01T09:41:20.099Z</time></trkpt><trkpt lat="45.0792417" lon="9.274555"><ele>67.0</ele><time>2026-05-01T09:41:21.098Z</time></trkpt><trkpt lat="45.0793183" lon="9.2749333"><ele>67.0</ele><time>2026-05-01T09:41:22.098Z</time></trkpt><trkpt lat="45.0793967" lon="9.275295"><ele>67.0</ele><time>2026-05-01T09:41:23.099Z</time></trkpt><trkpt lat="45.0794717" lon="9.2756567"><ele>67.5</ele><time>2026-05-01T09:41:24.099Z</time></trkpt><trkpt lat="45.0795467" lon="9.27601"><ele>68.0</ele><time>2026-05-01T09:41:25.098Z</time></trkpt><trkpt lat="45.0796183" lon="9.276375"><ele>68.0</ele><time>2026-05-01T09:41:26.098Z</time></trkpt><trkpt lat="45.0797533" lon="9.2771067"><ele>68.5</ele><time>2026-05-01T09:41:28.099Z</time></trkpt><trkpt lat="45.0798183" lon="9.277465"><ele>69.0</ele><time>2026-05-01T09:41:29.099Z</time></trkpt><trkpt lat="45.0798833" lon="9.2778283"><ele>68.5</ele><time>2026-05-01T09:41:30.099Z</time></trkpt><trkpt lat="45.0799467" lon="9.278195"><ele>68.0</ele><time>2026-05-01T09:41:31.098Z</time></trkpt><trkpt lat="45.08001" lon="9.27855"><ele>68.0</ele><time>2026-05-01T09:41:32.098Z</time></trkpt><trkpt lat="45.0800783" lon="9.2789"><ele>68.0</ele><time>2026-05-01T09:41:33.099Z</time></trkpt><trkpt lat="45.0801467" lon="9.2792483"><ele>68.0</ele><time>2026-05-01T09:41:34.099Z</time></trkpt><trkpt lat="45.0802183" lon="9.27959"><ele>68.0</ele><time>2026-05-01T09:41:35.098Z</time></trkpt><trkpt lat="45.0802883" lon="9.27994"><ele>68.0</ele><time>2026-05-01T09:41:36.099Z</time></trkpt><trkpt lat="45.0803567" lon="9.2802867"><ele>68.0</ele><time>2026-05-01T09:41:37.098Z</time></trkpt><trkpt lat="45.080425" lon="9.2806333"><ele>68.5</ele><time>2026-05-01T09:41:38.099Z</time></trkpt><trkpt lat="45.0804933" lon="9.280985"><ele>69.0</ele><time>2026-05-01T09:41:39.098Z</time></trkpt><trkpt lat="45.0805633" lon="9.2813317"><ele>69.0</ele><time>2026-05-01T09:41:40.098Z</time></trkpt><trkpt lat="45.0806333" lon="9.2816833"><ele>69.0</ele><time>2026-05-01T09:41:41.099Z</time></trkpt><trkpt lat="45.0807033" lon="9.2820383"><ele>69.0</ele><time>2026-05-01T09:41:42.099Z</time></trkpt><trkpt lat="45.0807767" lon="9.28239"><ele>69.0</ele><time>2026-05-01T09:41:43.098Z</time></trkpt><trkpt lat="45.080855" lon="9.2827417"><ele>69.0</ele><time>2026-05-01T09:41:44.098Z</time></trkpt><trkpt lat="45.0809283" lon="9.2830933"><ele>69.0</ele><time>2026-05-01T09:41:45.098Z</time></trkpt><trkpt lat="45.081005" lon="9.2834517"><ele>68.5</ele><time>2026-05-01T09:41:46.098Z</time></trkpt><trkpt lat="45.0810817" lon="9.2838083"><ele>68.0</ele><time>2026-05-01T09:41:47.098Z</time></trkpt><trkpt lat="45.0812283" lon="9.2845283"><ele>67.0</ele><time>2026-05-01T09:41:49.098Z</time></trkpt><trkpt lat="45.0813" lon="9.2848767"><ele>66.0</ele><time>2026-05-01T09:41:50.098Z</time></trkpt><trkpt lat="45.0813667" lon="9.2852133"><ele>66.0</ele><time>2026-05-01T09:41:51.098Z</time></trkpt><trkpt lat="45.081435" lon="9.2855633"><ele>66.0</ele><time>2026-05-01T09:41:52.098Z</time></trkpt><trkpt lat="45.081505" lon="9.2859117"><ele>66.5</ele><time>2026-05-01T09:41:53.098Z</time></trkpt><trkpt lat="45.0815783" lon="9.2862567"><ele>67.0</ele><time>2026-05-01T09:41:54.099Z</time></trkpt><trkpt lat="45.0816417" lon="9.2866033"><ele>67.0</ele><time>2026-05-01T09:41:55.098Z</time></trkpt><trkpt lat="45.0817017" lon="9.2869483"><ele>67.0</ele><time>2026-05-01T09:41:56.099Z</time></trkpt><trkpt lat="45.0817617" lon="9.2872917"><ele>69.5</ele><time>2026-05-01T09:41:57.099Z</time></trkpt><trkpt lat="45.0818267" lon="9.287635"><ele>72.0</ele><time>2026-05-01T09:41:58.099Z</time></trkpt><trkpt lat="45.0818867" lon="9.2879833"><ele>72.0</ele><time>2026-05-01T09:41:59.099Z</time></trkpt><trkpt lat="45.0819533" lon="9.2883367"><ele>72.0</ele><time>2026-05-01T09:42:00.098Z</time></trkpt><trkpt lat="45.0820233" lon="9.28869"><ele>71.0</ele><time>2026-05-01T09:42:01.098Z</time></trkpt><trkpt lat="45.0820983" lon="9.289045"><ele>70.0</ele><time>2026-05-01T09:42:02.098Z</time></trkpt><trkpt lat="45.08217" lon="9.2893983"><ele>70.0</ele><time>2026-05-01T09:42:03.099Z</time></trkpt><trkpt lat="45.0822333" lon="9.2897617"><ele>70.0</ele><time>2026-05-01T09:42:04.098Z</time></trkpt><trkpt lat="45.082295" lon="9.290125"><ele>70.0</ele><time>2026-05-01T09:42:05.098Z</time></trkpt><trkpt lat="45.0823533" lon="9.29049"><ele>70.0</ele><time>2026-05-01T09:42:06.099Z</time></trkpt><trkpt lat="45.0824067" lon="9.2908533"><ele>70.0</ele><time>2026-05-01T09:42:07.099Z</time></trkpt><trkpt lat="45.0824567" lon="9.2912183"><ele>70.0</ele><time>2026-05-01T09:42:08.098Z</time></trkpt><trkpt lat="45.082555" lon="9.291935"><ele>70.5</ele><time>2026-05-01T09:42:10.098Z</time></trkpt><trkpt lat="45.0826033" lon="9.2922967"><ele>71.0</ele><time>2026-05-01T09:42:11.098Z</time></trkpt><trkpt lat="45.0826483" lon="9.2926533"><ele>71.0</ele><time>2026-05-01T09:42:12.099Z</time></trkpt><trkpt lat="45.0826883" lon="9.2930117"><ele>71.0</ele><time>2026-05-01T09:42:13.099Z</time></trkpt><trkpt lat="45.082725" lon="9.29337"><ele>71.0</ele><time>2026-05-01T09:42:14.098Z</time></trkpt><trkpt lat="45.0827617" lon="9.293725"><ele>71.0</ele><time>2026-05-01T09:42:15.098Z</time></trkpt><trkpt lat="45.0827933" lon="9.2940767"><ele>71.0</ele><time>2026-05-01T09:42:16.099Z</time></trkpt><trkpt lat="45.082825" lon="9.29443"><ele>71.0</ele><time>2026-05-01T09:42:17.098Z</time></trkpt><trkpt lat="45.0828533" lon="9.2947783"><ele>71.0</ele><time>2026-05-01T09:42:18.098Z</time></trkpt><trkpt lat="45.0828767" lon="9.29513"><ele>71.0</ele><time>2026-05-01T09:42:19.098Z</time></trkpt><trkpt lat="45.0829033" lon="9.2954733"><ele>70.5</ele><time>2026-05-01T09:42:20.099Z</time></trkpt><trkpt lat="45.0829267" lon="9.295825"><ele>70.0</ele><time>2026-05-01T09:42:21.098Z</time></trkpt><trkpt lat="45.0829483" lon="9.2961733"><ele>70.0</ele><time>2026-05-01T09:42:22.098Z</time></trkpt><trkpt lat="45.0829633" lon="9.2965217"><ele>70.0</ele><time>2026-05-01T09:42:23.099Z</time></trkpt><trkpt lat="45.0829717" lon="9.2968767"><ele>70.0</ele><time>2026-05-01T09:42:24.098Z</time></trkpt><trkpt lat="45.0829817" lon="9.29723"><ele>70.0</ele><time>2026-05-01T09:42:25.099Z</time></trkpt><trkpt lat="45.0829883" lon="9.2975833"><ele>69.5</ele><time>2026-05-01T09:42:26.098Z</time></trkpt><trkpt lat="45.0829933" lon="9.2979367"><ele>69.0</ele><time>2026-05-01T09:42:27.099Z</time></trkpt><trkpt lat="45.0829967" lon="9.2982933"><ele>68.5</ele><time>2026-05-01T09:42:28.099Z</time></trkpt><trkpt lat="45.0830017" lon="9.2986467"><ele>68.0</ele><time>2026-05-01T09:42:29.098Z</time></trkpt><trkpt lat="45.0830117" lon="9.2993533"><ele>68.0</ele><time>2026-05-01T09:42:31.098Z</time></trkpt><trkpt lat="45.0830183" lon="9.2997017"><ele>68.0</ele><time>2026-05-01T09:42:32.098Z</time></trkpt><trkpt lat="45.083025" lon="9.3000517"><ele>68.0</ele><time>2026-05-01T09:42:33.098Z</time></trkpt><trkpt lat="45.0830283" lon="9.3004017"><ele>68.0</ele><time>2026-05-01T09:42:34.099Z</time></trkpt><trkpt lat="45.0830333" lon="9.3007567"><ele>69.0</ele><time>2026-05-01T09:42:35.098Z</time></trkpt><trkpt lat="45.0830367" lon="9.301105"><ele>70.0</ele><time>2026-05-01T09:42:36.099Z</time></trkpt><trkpt lat="45.08304" lon="9.301455"><ele>71.0</ele><time>2026-05-01T09:42:37.098Z</time></trkpt><trkpt lat="45.0830467" lon="9.3018133"><ele>72.0</ele><time>2026-05-01T09:42:38.098Z</time></trkpt><trkpt lat="45.0830517" lon="9.30218"><ele>72.5</ele><time>2026-05-01T09:42:39.098Z</time></trkpt><trkpt lat="45.0830567" lon="9.302545"><ele>73.0</ele><time>2026-05-01T09:42:40.099Z</time></trkpt><trkpt lat="45.08306" lon="9.302905"><ele>73.5</ele><time>2026-05-01T09:42:41.098Z</time></trkpt><trkpt lat="45.0830683" lon="9.303275"><ele>74.0</ele><time>2026-05-01T09:42:42.098Z</time></trkpt><trkpt lat="45.0830783" lon="9.3036417"><ele>72.5</ele><time>2026-05-01T09:42:43.098Z</time></trkpt><trkpt lat="45.0830833" lon="9.3040067"><ele>71.0</ele><time>2026-05-01T09:42:44.099Z</time></trkpt><trkpt lat="45.0830933" lon="9.3043733"><ele>71.0</ele><time>2026-05-01T09:42:45.099Z</time></trkpt><trkpt lat="45.0831" lon="9.3047367"><ele>71.0</ele><time>2026-05-01T09:42:46.099Z</time></trkpt><trkpt lat="45.0831083" lon="9.3050983"><ele>71.0</ele><time>2026-05-01T09:42:47.098Z</time></trkpt><trkpt lat="45.0831117" lon="9.30546"><ele>71.0</ele><time>2026-05-01T09:42:48.098Z</time></trkpt><trkpt lat="45.0831167" lon="9.30582"><ele>70.5</ele><time>2026-05-01T09:42:49.099Z</time></trkpt><trkpt lat="45.0831183" lon="9.306185"><ele>70.0</ele><time>2026-05-01T09:42:50.098Z</time></trkpt><trkpt lat="45.0831367" lon="9.30691"><ele>71.0</ele><time>2026-05-01T09:42:52.099Z</time></trkpt><trkpt lat="45.08314" lon="9.307275"><ele>72.0</ele><time>2026-05-01T09:42:53.099Z</time></trkpt><trkpt lat="45.083145" lon="9.3076383"><ele>72.0</ele><time>2026-05-01T09:42:54.099Z</time></trkpt><trkpt lat="45.0831483" lon="9.3080017"><ele>72.0</ele><time>2026-05-01T09:42:55.098Z</time></trkpt><trkpt lat="45.0831533" lon="9.308365"><ele>71.5</ele><time>2026-05-01T09:42:56.099Z</time></trkpt><trkpt lat="45.0831583" lon="9.3087283"><ele>71.0</ele><time>2026-05-01T09:42:57.099Z</time></trkpt><trkpt lat="45.0831667" lon="9.309085"><ele>70.5</ele><time>2026-05-01T09:42:58.099Z</time></trkpt><trkpt lat="45.08317" lon="9.3094467"><ele>70.0</ele><time>2026-05-01T09:42:59.098Z</time></trkpt><trkpt lat="45.083175" lon="9.3098117"><ele>70.0</ele><time>2026-05-01T09:43:00.099Z</time></trkpt><trkpt lat="45.0831783" lon="9.310175"><ele>70.0</ele><time>2026-05-01T09:43:01.098Z</time></trkpt><trkpt lat="45.0831867" lon="9.3105367"><ele>70.0</ele><time>2026-05-01T09:43:02.099Z</time></trkpt><trkpt lat="45.083195" lon="9.3108983"><ele>70.0</ele><time>2026-05-01T09:43:03.098Z</time></trkpt><trkpt lat="45.0831967" lon="9.3112583"><ele>69.5</ele><time>2026-05-01T09:43:04.098Z</time></trkpt><trkpt lat="45.0832017" lon="9.31162"><ele>69.0</ele><time>2026-05-01T09:43:05.098Z</time></trkpt><trkpt lat="45.08321" lon="9.3119817"><ele>69.0</ele><time>2026-05-01T09:43:06.099Z</time></trkpt><trkpt lat="45.0832183" lon="9.3123433"><ele>69.0</ele><time>2026-05-01T09:43:07.098Z</time></trkpt><trkpt lat="45.0832217" lon="9.3127033"><ele>69.0</ele><time>2026-05-01T09:43:08.098Z</time></trkpt><trkpt lat="45.083225" lon="9.31307"><ele>69.0</ele><time>2026-05-01T09:43:09.098Z</time></trkpt><trkpt lat="45.08323" lon="9.3134383"><ele>68.5</ele><time>2026-05-01T09:43:10.098Z</time></trkpt><trkpt lat="45.0832367" lon="9.3138"><ele>68.0</ele><time>2026-05-01T09:43:11.099Z</time></trkpt><trkpt lat="45.08325" lon="9.3145283"><ele>70.0</ele><time>2026-05-01T09:43:13.099Z</time></trkpt><trkpt lat="45.0832533" lon="9.3148917"><ele>72.0</ele><time>2026-05-01T09:43:14.098Z</time></trkpt><trkpt lat="45.0832583" lon="9.3152533"><ele>72.0</ele><time>2026-05-01T09:43:15.098Z</time></trkpt><trkpt lat="45.0832633" lon="9.3156167"><ele>72.0</ele><time>2026-05-01T09:43:16.098Z</time></trkpt><trkpt lat="45.0832633" lon="9.31598"><ele>72.0</ele><time>2026-05-01T09:43:17.098Z</time></trkpt><trkpt lat="45.0832683" lon="9.3163433"><ele>72.0</ele><time>2026-05-01T09:43:18.097Z</time></trkpt><trkpt lat="45.083275" lon="9.3167067"><ele>72.5</ele><time>2026-05-01T09:43:19.097Z</time></trkpt><trkpt lat="45.083285" lon="9.3170733"><ele>73.0</ele><time>2026-05-01T09:43:20.098Z</time></trkpt><trkpt lat="45.0832933" lon="9.3174383"><ele>73.0</ele><time>2026-05-01T09:43:21.098Z</time></trkpt><trkpt lat="45.0832917" lon="9.317805"><ele>73.0</ele><time>2026-05-01T09:43:22.097Z</time></trkpt><trkpt lat="45.0833067" lon="9.3181617"><ele>71.0</ele><time>2026-05-01T09:43:23.098Z</time></trkpt><trkpt lat="45.0833067" lon="9.318525"><ele>69.0</ele><time>2026-05-01T09:43:24.097Z</time></trkpt><trkpt lat="45.0833083" lon="9.31889"><ele>69.0</ele><time>2026-05-01T09:43:25.097Z</time></trkpt><trkpt lat="45.083315" lon="9.3192567"><ele>69.0</ele><time>2026-05-01T09:43:26.098Z</time></trkpt><trkpt lat="45.0833217" lon="9.3196167"><ele>69.0</ele><time>2026-05-01T09:43:27.098Z</time></trkpt><trkpt lat="45.0833283" lon="9.3199783"><ele>69.0</ele><time>2026-05-01T09:43:28.098Z</time></trkpt><trkpt lat="45.0833333" lon="9.3203483"><ele>69.0</ele><time>2026-05-01T09:43:29.097Z</time></trkpt><trkpt lat="45.0833417" lon="9.3207117"><ele>69.0</ele><time>2026-05-01T09:43:30.097Z</time></trkpt><trkpt lat="45.0833533" lon="9.321075"><ele>69.5</ele><time>2026-05-01T09:43:31.097Z</time></trkpt><trkpt lat="45.0833617" lon="9.32143"><ele>70.0</ele><time>2026-05-01T09:43:32.097Z</time></trkpt><trkpt lat="45.0833733" lon="9.3221533"><ele>68.5</ele><time>2026-05-01T09:43:34.097Z</time></trkpt><trkpt lat="45.0833783" lon="9.3225167"><ele>67.0</ele><time>2026-05-01T09:43:35.097Z</time></trkpt><trkpt lat="45.0833883" lon="9.3228783"><ele>66.0</ele><time>2026-05-01T09:43:36.097Z</time></trkpt><trkpt lat="45.0833933" lon="9.3232417"><ele>65.0</ele><time>2026-05-01T09:43:37.098Z</time></trkpt><trkpt lat="45.0833967" lon="9.3236067"><ele>65.0</ele><time>2026-05-01T09:43:38.097Z</time></trkpt><trkpt lat="45.0834033" lon="9.3239717"><ele>65.0</ele><time>2026-05-01T09:43:39.097Z</time></trkpt><trkpt lat="45.0834067" lon="9.3243333"><ele>65.0</ele><time>2026-05-01T09:43:40.098Z</time></trkpt><trkpt lat="45.0834133" lon="9.3246967"><ele>65.0</ele><time>2026-05-01T09:43:41.098Z</time></trkpt><trkpt lat="45.083415" lon="9.325065"><ele>65.0</ele><time>2026-05-01T09:43:42.098Z</time></trkpt><trkpt lat="45.08342" lon="9.32543"><ele>65.0</ele><time>2026-05-01T09:43:43.098Z</time></trkpt><trkpt lat="45.0834267" lon="9.325795"><ele>65.5</ele><time>2026-05-01T09:43:44.097Z</time></trkpt><trkpt lat="45.08343" lon="9.32616"><ele>66.0</ele><time>2026-05-01T09:43:45.097Z</time></trkpt><trkpt lat="45.083435" lon="9.326525"><ele>66.0</ele><time>2026-05-01T09:43:46.097Z</time></trkpt><trkpt lat="45.0834417" lon="9.326885"><ele>66.0</ele><time>2026-05-01T09:43:47.097Z</time></trkpt><trkpt lat="45.0834483" lon="9.327245"><ele>67.0</ele><time>2026-05-01T09:43:48.098Z</time></trkpt><trkpt lat="45.083455" lon="9.3276067"><ele>68.0</ele><time>2026-05-01T09:43:49.097Z</time></trkpt><trkpt lat="45.0834617" lon="9.32797"><ele>68.5</ele><time>2026-05-01T09:43:50.097Z</time></trkpt><trkpt lat="45.0834667" lon="9.3283417"><ele>69.0</ele><time>2026-05-01T09:43:51.097Z</time></trkpt><trkpt lat="45.083475" lon="9.328705"><ele>69.0</ele><time>2026-05-01T09:43:52.097Z</time></trkpt><trkpt lat="45.08348" lon="9.3290683"><ele>69.0</ele><time>2026-05-01T09:43:53.098Z</time></trkpt><trkpt lat="45.0834883" lon="9.3297917"><ele>68.0</ele><time>2026-05-01T09:43:55.097Z</time></trkpt><trkpt lat="45.0834983" lon="9.3301517"><ele>67.0</ele><time>2026-05-01T09:43:56.097Z</time></trkpt><trkpt lat="45.08351" lon="9.33051"><ele>67.0</ele><time>2026-05-01T09:43:57.098Z</time></trkpt><trkpt lat="45.0835217" lon="9.3308717"><ele>67.0</ele><time>2026-05-01T09:43:58.098Z</time></trkpt><trkpt lat="45.0835333" lon="9.3312283"><ele>67.5</ele><time>2026-05-01T09:43:59.098Z</time></trkpt><trkpt lat="45.0835467" lon="9.3315917"><ele>68.0</ele><time>2026-05-01T09:44:00.097Z</time></trkpt><trkpt lat="45.0835583" lon="9.33196"><ele>68.5</ele><time>2026-05-01T09:44:01.098Z</time></trkpt><trkpt lat="45.0835717" lon="9.3323233"><ele>69.0</ele><time>2026-05-01T09:44:02.097Z</time></trkpt><trkpt lat="45.083585" lon="9.3326883"><ele>69.0</ele><time>2026-05-01T09:44:03.098Z</time></trkpt><trkpt lat="45.0835983" lon="9.3330533"><ele>69.0</ele><time>2026-05-01T09:44:04.098Z</time></trkpt><trkpt lat="45.0836083" lon="9.3334117"><ele>67.5</ele><time>2026-05-01T09:44:05.098Z</time></trkpt><trkpt lat="45.08362" lon="9.33377"><ele>66.0</ele><time>2026-05-01T09:44:06.097Z</time></trkpt><trkpt lat="45.083635" lon="9.3341317"><ele>66.0</ele><time>2026-05-01T09:44:07.097Z</time></trkpt><trkpt lat="45.0836433" lon="9.3344967"><ele>66.0</ele><time>2026-05-01T09:44:08.097Z</time></trkpt><trkpt lat="45.0836533" lon="9.3348583"><ele>66.5</ele><time>2026-05-01T09:44:09.098Z</time></trkpt><trkpt lat="45.0836633" lon="9.33522"><ele>67.0</ele><time>2026-05-01T09:44:10.097Z</time></trkpt><trkpt lat="45.083675" lon="9.3355817"><ele>68.5</ele><time>2026-05-01T09:44:11.098Z</time></trkpt><trkpt lat="45.083685" lon="9.3359417"><ele>70.0</ele><time>2026-05-01T09:44:12.097Z</time></trkpt><trkpt lat="45.083695" lon="9.336305"><ele>69.0</ele><time>2026-05-01T09:44:13.097Z</time></trkpt><trkpt lat="45.0837033" lon="9.3366667"><ele>68.0</ele><time>2026-05-01T09:44:14.098Z</time></trkpt><trkpt lat="45.0837267" lon="9.3373933"><ele>67.5</ele><time>2026-05-01T09:44:16.097Z</time></trkpt><trkpt lat="45.0837367" lon="9.3377583"><ele>67.0</ele><time>2026-05-01T09:44:17.098Z</time></trkpt><trkpt lat="45.083755" lon="9.3381233"><ele>68.0</ele><time>2026-05-01T09:44:18.097Z</time></trkpt><trkpt lat="45.083775" lon="9.338485"><ele>69.0</ele><time>2026-05-01T09:44:19.098Z</time></trkpt><trkpt lat="45.0837883" lon="9.3388517"><ele>69.0</ele><time>2026-05-01T09:44:20.098Z</time></trkpt><trkpt lat="45.0838" lon="9.3392167"><ele>69.0</ele><time>2026-05-01T09:44:21.098Z</time></trkpt><trkpt lat="45.0838117" lon="9.3395783"><ele>68.5</ele><time>2026-05-01T09:44:22.097Z</time></trkpt><trkpt lat="45.083825" lon="9.33994"><ele>68.0</ele><time>2026-05-01T09:44:23.098Z</time></trkpt><trkpt lat="45.0838333" lon="9.3403017"><ele>67.0</ele><time>2026-05-01T09:44:24.097Z</time></trkpt><trkpt lat="45.0838383" lon="9.3406683"><ele>66.0</ele><time>2026-05-01T09:44:25.098Z</time></trkpt><trkpt lat="45.0838467" lon="9.341035"><ele>66.0</ele><time>2026-05-01T09:44:26.098Z</time></trkpt><trkpt lat="45.0838567" lon="9.3414033"><ele>66.0</ele><time>2026-05-01T09:44:27.098Z</time></trkpt><trkpt lat="45.08387" lon="9.3417683"><ele>66.0</ele><time>2026-05-01T09:44:28.098Z</time></trkpt><trkpt lat="45.0838783" lon="9.3421417"><ele>66.0</ele><time>2026-05-01T09:44:29.097Z</time></trkpt><trkpt lat="45.08389" lon="9.3425083"><ele>66.5</ele><time>2026-05-01T09:44:30.097Z</time></trkpt><trkpt lat="45.0839017" lon="9.342885"><ele>67.0</ele><time>2026-05-01T09:44:31.097Z</time></trkpt><trkpt lat="45.0839133" lon="9.3432567"><ele>67.0</ele><time>2026-05-01T09:44:32.097Z</time></trkpt><trkpt lat="45.0839283" lon="9.3436333"><ele>67.0</ele><time>2026-05-01T09:44:33.098Z</time></trkpt><trkpt lat="45.0839367" lon="9.3440017"><ele>67.0</ele><time>2026-05-01T09:44:34.098Z</time></trkpt><trkpt lat="45.08395" lon="9.344375"><ele>67.0</ele><time>2026-05-01T09:44:35.097Z</time></trkpt><trkpt lat="45.08398" lon="9.3451083"><ele>67.0</ele><time>2026-05-01T09:44:37.097Z</time></trkpt><trkpt lat="45.0839917" lon="9.3454717"><ele>67.0</ele><time>2026-05-01T09:44:38.098Z</time></trkpt><trkpt lat="45.0840017" lon="9.3458417"><ele>66.5</ele><time>2026-05-01T09:44:39.097Z</time></trkpt><trkpt lat="45.0840133" lon="9.3462133"><ele>66.0</ele><time>2026-05-01T09:44:40.098Z</time></trkpt><trkpt lat="45.0840233" lon="9.3465817"><ele>65.5</ele><time>2026-05-01T09:44:41.098Z</time></trkpt><trkpt lat="45.084035" lon="9.34695"><ele>65.0</ele><time>2026-05-01T09:44:42.097Z</time></trkpt><trkpt lat="45.0840483" lon="9.34732"><ele>65.0</ele><time>2026-05-01T09:44:43.097Z</time></trkpt><trkpt lat="45.0840567" lon="9.3476917"><ele>65.0</ele><time>2026-05-01T09:44:44.097Z</time></trkpt><trkpt lat="45.0840683" lon="9.34806"><ele>64.5</ele><time>2026-05-01T09:44:45.098Z</time></trkpt><trkpt lat="45.084075" lon="9.3484267"><ele>64.0</ele><time>2026-05-01T09:44:46.097Z</time></trkpt><trkpt lat="45.0840883" lon="9.348795"><ele>63.5</ele><time>2026-05-01T09:44:47.097Z</time></trkpt><trkpt lat="45.0841" lon="9.349165"><ele>63.0</ele><time>2026-05-01T09:44:48.097Z</time></trkpt><trkpt lat="45.08411" lon="9.3495283"><ele>63.0</ele><time>2026-05-01T09:44:49.097Z</time></trkpt><trkpt lat="45.08412" lon="9.3498967"><ele>63.0</ele><time>2026-05-01T09:44:50.098Z</time></trkpt><trkpt lat="45.0841333" lon="9.35027"><ele>62.5</ele><time>2026-05-01T09:44:51.097Z</time></trkpt><trkpt lat="45.0841467" lon="9.3506367"><ele>62.0</ele><time>2026-05-01T09:44:52.098Z</time></trkpt><trkpt lat="45.0841583" lon="9.3510083"><ele>61.5</ele><time>2026-05-01T09:44:53.098Z</time></trkpt><trkpt lat="45.0841733" lon="9.351375"><ele>61.0</ele><time>2026-05-01T09:44:54.098Z</time></trkpt><trkpt lat="45.0841867" lon="9.351745"><ele>61.0</ele><time>2026-05-01T09:44:55.097Z</time></trkpt><trkpt lat="45.0841983" lon="9.3521167"><ele>61.0</ele><time>2026-05-01T09:44:56.097Z</time></trkpt><trkpt lat="45.0842217" lon="9.352855"><ele>61.0</ele><time>2026-05-01T09:44:58.098Z</time></trkpt><trkpt lat="45.0842317" lon="9.3532183"><ele>61.0</ele><time>2026-05-01T09:44:59.097Z</time></trkpt><trkpt lat="45.08424" lon="9.3535883"><ele>61.0</ele><time>2026-05-01T09:45:00.097Z</time></trkpt><trkpt lat="45.08425" lon="9.3539617"><ele>61.0</ele><time>2026-05-01T09:45:01.098Z</time></trkpt><trkpt lat="45.0842633" lon="9.3543317"><ele>61.0</ele><time>2026-05-01T09:45:02.097Z</time></trkpt><trkpt lat="45.0842717" lon="9.3547017"><ele>61.0</ele><time>2026-05-01T09:45:03.097Z</time></trkpt><trkpt lat="45.0842783" lon="9.355075"><ele>61.5</ele><time>2026-05-01T09:45:04.097Z</time></trkpt><trkpt lat="45.0842967" lon="9.3554483"><ele>62.0</ele><time>2026-05-01T09:45:05.098Z</time></trkpt><trkpt lat="45.084315" lon="9.3558183"><ele>62.0</ele><time>2026-05-01T09:45:06.098Z</time></trkpt><trkpt lat="45.0843267" lon="9.3561883"><ele>62.0</ele><time>2026-05-01T09:45:07.098Z</time></trkpt><trkpt lat="45.0843417" lon="9.356555"><ele>61.5</ele><time>2026-05-01T09:45:08.097Z</time></trkpt><trkpt lat="45.0843517" lon="9.3569217"><ele>61.0</ele><time>2026-05-01T09:45:09.097Z</time></trkpt><trkpt lat="45.0843617" lon="9.35729"><ele>61.0</ele><time>2026-05-01T09:45:10.097Z</time></trkpt><trkpt lat="45.0843733" lon="9.3576567"><ele>61.0</ele><time>2026-05-01T09:45:11.097Z</time></trkpt><trkpt lat="45.0843817" lon="9.3580283"><ele>61.5</ele><time>2026-05-01T09:45:12.097Z</time></trkpt><trkpt lat="45.08439" lon="9.3583983"><ele>62.0</ele><time>2026-05-01T09:45:13.098Z</time></trkpt><trkpt lat="45.0844017" lon="9.3587733"><ele>62.5</ele><time>2026-05-01T09:45:14.098Z</time></trkpt><trkpt lat="45.0844167" lon="9.3591417"><ele>63.0</ele><time>2026-05-01T09:45:15.098Z</time></trkpt><trkpt lat="45.0844267" lon="9.35951"><ele>62.5</ele><time>2026-05-01T09:45:16.098Z</time></trkpt><trkpt lat="45.0844367" lon="9.35988"><ele>62.0</ele><time>2026-05-01T09:45:17.097Z</time></trkpt><trkpt lat="45.0844467" lon="9.3602517"><ele>63.0</ele><time>2026-05-01T09:45:18.097Z</time></trkpt><trkpt lat="45.0844783" lon="9.360985"><ele>63.0</ele><time>2026-05-01T09:45:20.097Z</time></trkpt><trkpt lat="45.0844917" lon="9.361345"><ele>63.0</ele><time>2026-05-01T09:45:21.098Z</time></trkpt><trkpt lat="45.0845067" lon="9.3617117"><ele>62.5</ele><time>2026-05-01T09:45:22.098Z</time></trkpt><trkpt lat="45.0845217" lon="9.3620817"><ele>62.0</ele><time>2026-05-01T09:45:23.098Z</time></trkpt><trkpt lat="45.0845417" lon="9.36245"><ele>62.0</ele><time>2026-05-01T09:45:24.097Z</time></trkpt><trkpt lat="45.0845617" lon="9.3628167"><ele>62.0</ele><time>2026-05-01T09:45:25.097Z</time></trkpt><trkpt lat="45.0845783" lon="9.3631883"><ele>62.5</ele><time>2026-05-01T09:45:26.097Z</time></trkpt><trkpt lat="45.0845917" lon="9.3635633"><ele>63.0</ele><time>2026-05-01T09:45:27.098Z</time></trkpt><trkpt lat="45.0846083" lon="9.3639383"><ele>63.0</ele><time>2026-05-01T09:45:28.097Z</time></trkpt><trkpt lat="45.0846233" lon="9.3643083"><ele>63.0</ele><time>2026-05-01T09:45:29.098Z</time></trkpt><trkpt lat="45.084635" lon="9.364675"><ele>63.0</ele><time>2026-05-01T09:45:30.098Z</time></trkpt><trkpt lat="45.08465" lon="9.3650483"><ele>63.0</ele><time>2026-05-01T09:45:31.097Z</time></trkpt><trkpt lat="45.0846667" lon="9.3654083"><ele>63.0</ele><time>2026-05-01T09:45:32.097Z</time></trkpt><trkpt lat="45.08468" lon="9.3657717"><ele>63.0</ele><time>2026-05-01T09:45:33.098Z</time></trkpt><trkpt lat="45.0846917" lon="9.36614"><ele>63.0</ele><time>2026-05-01T09:45:34.098Z</time></trkpt><trkpt lat="45.0847083" lon="9.3665067"><ele>63.0</ele><time>2026-05-01T09:45:35.098Z</time></trkpt><trkpt lat="45.084725" lon="9.3668767"><ele>63.5</ele><time>2026-05-01T09:45:36.097Z</time></trkpt><trkpt lat="45.0847367" lon="9.3672467"><ele>64.0</ele><time>2026-05-01T09:45:37.097Z</time></trkpt><trkpt lat="45.0847483" lon="9.3676183"><ele>64.0</ele><time>2026-05-01T09:45:38.097Z</time></trkpt><trkpt lat="45.0847633" lon="9.3679883"><ele>64.0</ele><time>2026-05-01T09:45:39.097Z</time></trkpt><trkpt lat="45.0848017" lon="9.3687267"><ele>64.0</ele><time>2026-05-01T09:45:41.097Z</time></trkpt><trkpt lat="45.084815" lon="9.3690967"><ele>64.0</ele><time>2026-05-01T09:45:42.098Z</time></trkpt><trkpt lat="45.084835" lon="9.3694683"><ele>64.0</ele><time>2026-05-01T09:45:43.097Z</time></trkpt><trkpt lat="45.0848517" lon="9.3698383"><ele>64.0</ele><time>2026-05-01T09:45:44.098Z</time></trkpt><trkpt lat="45.08487" lon="9.3702067"><ele>64.0</ele><time>2026-05-01T09:45:45.097Z</time></trkpt><trkpt lat="45.0848833" lon="9.3705783"><ele>64.0</ele><time>2026-05-01T09:45:46.098Z</time></trkpt><trkpt lat="45.0848967" lon="9.3709517"><ele>64.0</ele><time>2026-05-01T09:45:47.098Z</time></trkpt><trkpt lat="45.0849083" lon="9.3713183"><ele>64.0</ele><time>2026-05-01T09:45:48.098Z</time></trkpt><trkpt lat="45.0849217" lon="9.371685"><ele>63.0</ele><time>2026-05-01T09:45:49.097Z</time></trkpt><trkpt lat="45.0849333" lon="9.3720533"><ele>62.0</ele><time>2026-05-01T09:45:50.097Z</time></trkpt><trkpt lat="45.08495" lon="9.3724167"><ele>62.0</ele><time>2026-05-01T09:45:51.097Z</time></trkpt><trkpt lat="45.08496" lon="9.3727767"><ele>62.0</ele><time>2026-05-01T09:45:52.097Z</time></trkpt><trkpt lat="45.0849767" lon="9.3731383"><ele>63.0</ele><time>2026-05-01T09:45:53.098Z</time></trkpt><trkpt lat="45.0849933" lon="9.3735033"><ele>64.0</ele><time>2026-05-01T09:45:54.098Z</time></trkpt><trkpt lat="45.0850083" lon="9.3738717"><ele>65.0</ele><time>2026-05-01T09:45:55.098Z</time></trkpt><trkpt lat="45.0850267" lon="9.374235"><ele>66.0</ele><time>2026-05-01T09:45:56.097Z</time></trkpt><trkpt lat="45.0850383" lon="9.3746033"><ele>65.5</ele><time>2026-05-01T09:45:57.098Z</time></trkpt><trkpt lat="45.0850533" lon="9.37497"><ele>65.0</ele><time>2026-05-01T09:45:58.097Z</time></trkpt><trkpt lat="45.0850683" lon="9.37534"><ele>64.0</ele><time>2026-05-01T09:45:59.098Z</time></trkpt><trkpt lat="45.085085" lon="9.37571"><ele>63.0</ele><time>2026-05-01T09:46:00.097Z</time></trkpt><trkpt lat="45.0851133" lon="9.37644"><ele>63.0</ele><time>2026-05-01T09:46:02.097Z</time></trkpt><trkpt lat="45.085125" lon="9.3768017"><ele>63.0</ele><time>2026-05-01T09:46:03.097Z</time></trkpt><trkpt lat="45.0851383" lon="9.377165"><ele>62.5</ele><time>2026-05-01T09:46:04.098Z</time></trkpt><trkpt lat="45.0851517" lon="9.37753"><ele>62.0</ele><time>2026-05-01T09:46:05.097Z</time></trkpt><trkpt lat="45.0851667" lon="9.3778983"><ele>62.0</ele><time>2026-05-01T09:46:06.097Z</time></trkpt><trkpt lat="45.0851817" lon="9.3782683"><ele>62.0</ele><time>2026-05-01T09:46:07.098Z</time></trkpt><trkpt lat="45.0851983" lon="9.3786333"><ele>62.0</ele><time>2026-05-01T09:46:08.098Z</time></trkpt><trkpt lat="45.085215" lon="9.379"><ele>62.0</ele><time>2026-05-01T09:46:09.097Z</time></trkpt><trkpt lat="45.085235" lon="9.3793633"><ele>61.5</ele><time>2026-05-01T09:46:10.098Z</time></trkpt><trkpt lat="45.085255" lon="9.3797267"><ele>61.0</ele><time>2026-05-01T09:46:11.097Z</time></trkpt><trkpt lat="45.0852733" lon="9.38009"><ele>61.0</ele><time>2026-05-01T09:46:12.097Z</time></trkpt><trkpt lat="45.085285" lon="9.3804517"><ele>61.0</ele><time>2026-05-01T09:46:13.098Z</time></trkpt><trkpt lat="45.0852967" lon="9.3808217"><ele>61.5</ele><time>2026-05-01T09:46:14.097Z</time></trkpt><trkpt lat="45.0853067" lon="9.3811917"><ele>62.0</ele><time>2026-05-01T09:46:15.097Z</time></trkpt><trkpt lat="45.0853217" lon="9.3815617"><ele>62.0</ele><time>2026-05-01T09:46:16.098Z</time></trkpt><trkpt lat="45.0853367" lon="9.3819233"><ele>62.0</ele><time>2026-05-01T09:46:17.098Z</time></trkpt><trkpt lat="45.085355" lon="9.38229"><ele>62.0</ele><time>2026-05-01T09:46:18.097Z</time></trkpt><trkpt lat="45.08537" lon="9.3826583"><ele>62.0</ele><time>2026-05-01T09:46:19.097Z</time></trkpt><trkpt lat="45.0853883" lon="9.3830283"><ele>61.5</ele><time>2026-05-01T09:46:20.097Z</time></trkpt><trkpt lat="45.0854033" lon="9.3833917"><ele>61.0</ele><time>2026-05-01T09:46:21.097Z</time></trkpt><trkpt lat="45.085445" lon="9.384135"><ele>61.0</ele><time>2026-05-01T09:46:23.097Z</time></trkpt><trkpt lat="45.085465" lon="9.3844983"><ele>61.0</ele><time>2026-05-01T09:46:24.097Z</time></trkpt><trkpt lat="45.08548" lon="9.3848717"><ele>61.0</ele><time>2026-05-01T09:46:25.097Z</time></trkpt><trkpt lat="45.0854867" lon="9.3852517"><ele>61.0</ele><time>2026-05-01T09:46:26.097Z</time></trkpt><trkpt lat="45.085485" lon="9.38563"><ele>61.0</ele><time>2026-05-01T09:46:27.098Z</time></trkpt><trkpt lat="45.08548" lon="9.3860017"><ele>61.0</ele><time>2026-05-01T09:46:28.097Z</time></trkpt><trkpt lat="45.08547" lon="9.3863767"><ele>60.5</ele><time>2026-05-01T09:46:29.098Z</time></trkpt><trkpt lat="45.0854583" lon="9.3867467"><ele>60.0</ele><time>2026-05-01T09:46:30.098Z</time></trkpt><trkpt lat="45.0854417" lon="9.3871217"><ele>59.5</ele><time>2026-05-01T09:46:31.097Z</time></trkpt><trkpt lat="45.0854167" lon="9.3874883"><ele>59.0</ele><time>2026-05-01T09:46:32.098Z</time></trkpt><trkpt lat="45.0853917" lon="9.3878583"><ele>58.5</ele><time>2026-05-01T09:46:33.098Z</time></trkpt><trkpt lat="45.0853617" lon="9.3882267"><ele>58.0</ele><time>2026-05-01T09:46:34.097Z</time></trkpt><trkpt lat="45.0853267" lon="9.3886"><ele>58.0</ele><time>2026-05-01T09:46:35.097Z</time></trkpt><trkpt lat="45.08529" lon="9.38897"><ele>58.0</ele><time>2026-05-01T09:46:36.097Z</time></trkpt><trkpt lat="45.085255" lon="9.3893333"><ele>58.5</ele><time>2026-05-01T09:46:37.097Z</time></trkpt><trkpt lat="45.08521" lon="9.389705"><ele>59.0</ele><time>2026-05-01T09:46:38.097Z</time></trkpt><trkpt lat="45.0851617" lon="9.3900667"><ele>59.0</ele><time>2026-05-01T09:46:39.097Z</time></trkpt><trkpt lat="45.0851083" lon="9.39043"><ele>59.0</ele><time>2026-05-01T09:46:40.098Z</time></trkpt><trkpt lat="45.08505" lon="9.390795"><ele>58.5</ele><time>2026-05-01T09:46:41.097Z</time></trkpt><trkpt lat="45.084985" lon="9.3911567"><ele>58.0</ele><time>2026-05-01T09:46:42.098Z</time></trkpt><trkpt lat="45.084845" lon="9.3918833"><ele>58.0</ele><time>2026-05-01T09:46:44.097Z</time></trkpt><trkpt lat="45.0847717" lon="9.392245"><ele>58.0</ele><time>2026-05-01T09:46:45.098Z</time></trkpt><trkpt lat="45.0846983" lon="9.3926083"><ele>58.0</ele><time>2026-05-01T09:46:46.097Z</time></trkpt><trkpt lat="45.0846233" lon="9.3929633"><ele>58.0</ele><time>2026-05-01T09:46:47.097Z</time></trkpt><trkpt lat="45.0845417" lon="9.3933167"><ele>58.0</ele><time>2026-05-01T09:46:48.098Z</time></trkpt><trkpt lat="45.0844583" lon="9.3936667"><ele>58.0</ele><time>2026-05-01T09:46:49.098Z</time></trkpt><trkpt lat="45.084365" lon="9.3940117"><ele>58.0</ele><time>2026-05-01T09:46:50.098Z</time></trkpt><trkpt lat="45.08427" lon="9.3943583"><ele>58.0</ele><time>2026-05-01T09:46:51.097Z</time></trkpt><trkpt lat="45.0841767" lon="9.3947083"><ele>60.5</ele><time>2026-05-01T09:46:52.097Z</time></trkpt><trkpt lat="45.0840767" lon="9.3950583"><ele>63.0</ele><time>2026-05-01T09:46:53.097Z</time></trkpt><trkpt lat="45.0839817" lon="9.3954033"><ele>63.5</ele><time>2026-05-01T09:46:54.098Z</time></trkpt><trkpt lat="45.0838883" lon="9.3957467"><ele>64.0</ele><time>2026-05-01T09:46:55.097Z</time></trkpt><trkpt lat="45.083795" lon="9.3960983"><ele>62.5</ele><time>2026-05-01T09:46:56.098Z</time></trkpt><trkpt lat="45.0836983" lon="9.396455"><ele>61.0</ele><time>2026-05-01T09:46:57.097Z</time></trkpt><trkpt lat="45.0836067" lon="9.3968067"><ele>61.0</ele><time>2026-05-01T09:46:58.097Z</time></trkpt><trkpt lat="45.08352" lon="9.3971583"><ele>61.0</ele><time>2026-05-01T09:46:59.097Z</time></trkpt><trkpt lat="45.0834367" lon="9.3975133"><ele>60.5</ele><time>2026-05-01T09:47:00.097Z</time></trkpt><trkpt lat="45.0833517" lon="9.3978683"><ele>60.0</ele><time>2026-05-01T09:47:01.097Z</time></trkpt><trkpt lat="45.0832683" lon="9.39822"><ele>60.0</ele><time>2026-05-01T09:47:02.097Z</time></trkpt><trkpt lat="45.0831867" lon="9.39858"><ele>60.0</ele><time>2026-05-01T09:47:03.098Z</time></trkpt><trkpt lat="45.083035" lon="9.3993"><ele>60.0</ele><time>2026-05-01T09:47:05.098Z</time></trkpt><trkpt lat="45.0829617" lon="9.3996533"><ele>60.0</ele><time>2026-05-01T09:47:06.098Z</time></trkpt><trkpt lat="45.0828883" lon="9.4000167"><ele>60.0</ele><time>2026-05-01T09:47:07.097Z</time></trkpt><trkpt lat="45.0828183" lon="9.4003783"><ele>60.0</ele><time>2026-05-01T09:47:08.097Z</time></trkpt><trkpt lat="45.08275" lon="9.4007383"><ele>60.5</ele><time>2026-05-01T09:47:09.098Z</time></trkpt><trkpt lat="45.0826867" lon="9.4010967"><ele>61.0</ele><time>2026-05-01T09:47:10.097Z</time></trkpt><trkpt lat="45.082625" lon="9.401455"><ele>61.0</ele><time>2026-05-01T09:47:11.098Z</time></trkpt><trkpt lat="45.0825683" lon="9.401815"><ele>61.0</ele><time>2026-05-01T09:47:12.098Z</time></trkpt><trkpt lat="45.082515" lon="9.4021783"><ele>60.5</ele><time>2026-05-01T09:47:13.097Z</time></trkpt><trkpt lat="45.082465" lon="9.402545"><ele>60.0</ele><time>2026-05-01T09:47:14.097Z</time></trkpt><trkpt lat="45.0824133" lon="9.4029117"><ele>59.5</ele><time>2026-05-01T09:47:15.098Z</time></trkpt><trkpt lat="45.082365" lon="9.40328"><ele>59.0</ele><time>2026-05-01T09:47:16.098Z</time></trkpt><trkpt lat="45.0823183" lon="9.4036483"><ele>59.0</ele><time>2026-05-01T09:47:17.097Z</time></trkpt><trkpt lat="45.0822717" lon="9.4040167"><ele>59.0</ele><time>2026-05-01T09:47:18.097Z</time></trkpt><trkpt lat="45.0822267" lon="9.4043833"><ele>59.0</ele><time>2026-05-01T09:47:19.097Z</time></trkpt><trkpt lat="45.0821783" lon="9.4047533"><ele>59.0</ele><time>2026-05-01T09:47:20.097Z</time></trkpt><trkpt lat="45.0821317" lon="9.4051217"><ele>59.0</ele><time>2026-05-01T09:47:21.098Z</time></trkpt><trkpt lat="45.08208" lon="9.4054883"><ele>59.0</ele><time>2026-05-01T09:47:22.098Z</time></trkpt><trkpt lat="45.0820333" lon="9.4058367"><ele>59.0</ele><time>2026-05-01T09:47:23.098Z</time></trkpt><trkpt lat="45.08199" lon="9.4061783"><ele>59.0</ele><time>2026-05-01T09:47:24.097Z</time></trkpt><trkpt lat="45.081905" lon="9.4068717"><ele>60.0</ele><time>2026-05-01T09:47:26.098Z</time></trkpt><trkpt lat="45.08186" lon="9.4072233"><ele>61.0</ele><time>2026-05-01T09:47:27.097Z</time></trkpt><trkpt lat="45.081815" lon="9.40757"><ele>61.0</ele><time>2026-05-01T09:47:28.097Z</time></trkpt><trkpt lat="45.081775" lon="9.4079083"><ele>61.0</ele><time>2026-05-01T09:47:29.098Z</time></trkpt><trkpt lat="45.08173" lon="9.4082333"><ele>61.666666666666664</ele><time>2026-05-01T09:47:30.097Z</time></trkpt><trkpt lat="45.0816917" lon="9.4085483"><ele>62.33333333333333</ele><time>2026-05-01T09:47:31.098Z</time></trkpt><trkpt lat="45.08165" lon="9.408855"><ele>63.0</ele><time>2026-05-01T09:47:32.098Z</time></trkpt><trkpt lat="45.08161" lon="9.4091483"><ele>62.33333333333333</ele><time>2026-05-01T09:47:33.097Z</time></trkpt><trkpt lat="45.0815767" lon="9.40944"><ele>61.666666666666664</ele><time>2026-05-01T09:47:34.098Z</time></trkpt><trkpt lat="45.0815433" lon="9.40973"><ele>61.0</ele><time>2026-05-01T09:47:35.098Z</time></trkpt><trkpt lat="45.081505" lon="9.410025"><ele>61.0</ele><time>2026-05-01T09:47:36.097Z</time></trkpt><trkpt lat="45.08147" lon="9.4103167"><ele>61.0</ele><time>2026-05-01T09:47:37.098Z</time></trkpt><trkpt lat="45.0814333" lon="9.4106083"><ele>61.0</ele><time>2026-05-01T09:47:38.097Z</time></trkpt><trkpt lat="45.0813983" lon="9.4109"><ele>61.0</ele><time>2026-05-01T09:47:39.097Z</time></trkpt><trkpt lat="45.08136" lon="9.4111883"><ele>61.0</ele><time>2026-05-01T09:47:40.097Z</time></trkpt><trkpt lat="45.081325" lon="9.4114717"><ele>61.0</ele><time>2026-05-01T09:47:41.097Z</time></trkpt><trkpt lat="45.0812917" lon="9.41176"><ele>60.666666666666664</ele><time>2026-05-01T09:47:42.097Z</time></trkpt><trkpt lat="45.0812517" lon="9.4120567"><ele>60.33333333333333</ele><time>2026-05-01T09:47:43.097Z</time></trkpt><trkpt lat="45.081215" lon="9.4123567"><ele>60.0</ele><time>2026-05-01T09:47:44.097Z</time></trkpt><trkpt lat="45.0811767" lon="9.4126717"><ele>63.0</ele><time>2026-05-01T09:47:45.098Z</time></trkpt><trkpt lat="45.0811033" lon="9.4133183"><ele>63.0</ele><time>2026-05-01T09:47:47.098Z</time></trkpt><trkpt lat="45.0810683" lon="9.413645"><ele>63.0</ele><time>2026-05-01T09:47:48.097Z</time></trkpt><trkpt lat="45.081025" lon="9.4139783"><ele>62.5</ele><time>2026-05-01T09:47:49.098Z</time></trkpt><trkpt lat="45.0809817" lon="9.4143217"><ele>62.0</ele><time>2026-05-01T09:47:50.097Z</time></trkpt><trkpt lat="45.0809417" lon="9.4146683"><ele>61.5</ele><time>2026-05-01T09:47:51.097Z</time></trkpt><trkpt lat="45.080895" lon="9.41502"><ele>61.0</ele><time>2026-05-01T09:47:52.097Z</time></trkpt><trkpt lat="45.080845" lon="9.4153733"><ele>62.5</ele><time>2026-05-01T09:47:53.097Z</time></trkpt><trkpt lat="45.0808017" lon="9.4157233"><ele>64.0</ele><time>2026-05-01T09:47:54.098Z</time></trkpt><trkpt lat="45.0807567" lon="9.4160767"><ele>63.5</ele><time>2026-05-01T09:47:55.097Z</time></trkpt><trkpt lat="45.080715" lon="9.41643"><ele>63.0</ele><time>2026-05-01T09:47:56.097Z</time></trkpt><trkpt lat="45.0806667" lon="9.416775"><ele>63.0</ele><time>2026-05-01T09:47:57.097Z</time></trkpt><trkpt lat="45.080625" lon="9.41711"><ele>63.0</ele><time>2026-05-01T09:47:58.097Z</time></trkpt><trkpt lat="45.0805833" lon="9.417455"><ele>62.5</ele><time>2026-05-01T09:47:59.097Z</time></trkpt><trkpt lat="45.0805367" lon="9.4177983"><ele>62.0</ele><time>2026-05-01T09:48:00.098Z</time></trkpt><trkpt lat="45.08049" lon="9.4181417"><ele>61.5</ele><time>2026-05-01T09:48:01.097Z</time></trkpt><trkpt lat="45.080445" lon="9.4184867"><ele>61.0</ele><time>2026-05-01T09:48:02.098Z</time></trkpt><trkpt lat="45.0804017" lon="9.41884"><ele>61.0</ele><time>2026-05-01T09:48:03.097Z</time></trkpt><trkpt lat="45.08035" lon="9.4191867"><ele>61.0</ele><time>2026-05-01T09:48:04.097Z</time></trkpt><trkpt lat="45.080295" lon="9.4195383"><ele>61.0</ele><time>2026-05-01T09:48:05.098Z</time></trkpt><trkpt lat="45.080245" lon="9.41989"><ele>61.0</ele><time>2026-05-01T09:48:06.097Z</time></trkpt><trkpt lat="45.0801483" lon="9.4205967"><ele>60.5</ele><time>2026-05-01T09:48:08.097Z</time></trkpt><trkpt lat="45.0801017" lon="9.4209467"><ele>60.0</ele><time>2026-05-01T09:48:09.098Z</time></trkpt><trkpt lat="45.0800583" lon="9.4212933"><ele>60.5</ele><time>2026-05-01T09:48:10.097Z</time></trkpt><trkpt lat="45.0800083" lon="9.42165"><ele>61.0</ele><time>2026-05-01T09:48:11.098Z</time></trkpt><trkpt lat="45.0799633" lon="9.4220067"><ele>60.5</ele><time>2026-05-01T09:48:12.098Z</time></trkpt><trkpt lat="45.079915" lon="9.422365"><ele>60.0</ele><time>2026-05-01T09:48:13.097Z</time></trkpt><trkpt lat="45.0798667" lon="9.4227217"><ele>59.5</ele><time>2026-05-01T09:48:14.098Z</time></trkpt><trkpt lat="45.0798217" lon="9.423085"><ele>59.0</ele><time>2026-05-01T09:48:15.098Z</time></trkpt><trkpt lat="45.0797733" lon="9.4234517"><ele>59.5</ele><time>2026-05-01T09:48:16.098Z</time></trkpt><trkpt lat="45.07973" lon="9.4238183"><ele>60.0</ele><time>2026-05-01T09:48:17.097Z</time></trkpt><trkpt lat="45.07968" lon="9.4241917"><ele>60.0</ele><time>2026-05-01T09:48:18.098Z</time></trkpt><trkpt lat="45.0796367" lon="9.424565"><ele>60.0</ele><time>2026-05-01T09:48:19.097Z</time></trkpt><trkpt lat="45.079595" lon="9.424935"><ele>59.0</ele><time>2026-05-01T09:48:20.098Z</time></trkpt><trkpt lat="45.07955" lon="9.4253017"><ele>58.0</ele><time>2026-05-01T09:48:21.097Z</time></trkpt><trkpt lat="45.0795033" lon="9.4256617"><ele>58.0</ele><time>2026-05-01T09:48:22.098Z</time></trkpt><trkpt lat="45.0794567" lon="9.426025"><ele>58.0</ele><time>2026-05-01T09:48:23.097Z</time></trkpt><trkpt lat="45.0794083" lon="9.4263967"><ele>59.5</ele><time>2026-05-01T09:48:24.098Z</time></trkpt><trkpt lat="45.0793617" lon="9.4267667"><ele>61.0</ele><time>2026-05-01T09:48:25.097Z</time></trkpt><trkpt lat="45.079315" lon="9.4271283"><ele>61.0</ele><time>2026-05-01T09:48:26.098Z</time></trkpt><trkpt lat="45.079265" lon="9.4274983"><ele>61.0</ele><time>2026-05-01T09:48:27.098Z</time></trkpt><trkpt lat="45.0791717" lon="9.4282367"><ele>60.0</ele><time>2026-05-01T09:48:29.098Z</time></trkpt><trkpt lat="45.079125" lon="9.4286"><ele>59.0</ele><time>2026-05-01T09:48:30.097Z</time></trkpt><trkpt lat="45.0790767" lon="9.4289633"><ele>59.0</ele><time>2026-05-01T09:48:31.098Z</time></trkpt><trkpt lat="45.0790317" lon="9.429325"><ele>59.0</ele><time>2026-05-01T09:48:32.097Z</time></trkpt><trkpt lat="45.0789833" lon="9.4296917"><ele>59.5</ele><time>2026-05-01T09:48:33.098Z</time></trkpt><trkpt lat="45.0789317" lon="9.430065"><ele>60.0</ele><time>2026-05-01T09:48:34.098Z</time></trkpt><trkpt lat="45.07888" lon="9.4304283"><ele>59.5</ele><time>2026-05-01T09:48:35.097Z</time></trkpt><trkpt lat="45.0788283" lon="9.4307967"><ele>59.0</ele><time>2026-05-01T09:48:36.097Z</time></trkpt><trkpt lat="45.0787733" lon="9.4311617"><ele>58.0</ele><time>2026-05-01T09:48:37.097Z</time></trkpt><trkpt lat="45.0787133" lon="9.4315283"><ele>57.0</ele><time>2026-05-01T09:48:38.097Z</time></trkpt><trkpt lat="45.0786483" lon="9.4318883"><ele>56.5</ele><time>2026-05-01T09:48:39.097Z</time></trkpt><trkpt lat="45.0785867" lon="9.432245"><ele>56.0</ele><time>2026-05-01T09:48:40.097Z</time></trkpt><trkpt lat="45.0785233" lon="9.4326033"><ele>56.0</ele><time>2026-05-01T09:48:41.097Z</time></trkpt><trkpt lat="45.0784617" lon="9.43296"><ele>56.0</ele><time>2026-05-01T09:48:42.097Z</time></trkpt><trkpt lat="45.078395" lon="9.43332"><ele>56.5</ele><time>2026-05-01T09:48:43.097Z</time></trkpt><trkpt lat="45.0783267" lon="9.4336783"><ele>57.0</ele><time>2026-05-01T09:48:44.098Z</time></trkpt><trkpt lat="45.0782567" lon="9.4340367"><ele>57.0</ele><time>2026-05-01T09:48:45.098Z</time></trkpt><trkpt lat="45.07818" lon="9.4343983"><ele>57.0</ele><time>2026-05-01T09:48:46.097Z</time></trkpt><trkpt lat="45.078105" lon="9.4347633"><ele>57.0</ele><time>2026-05-01T09:48:47.097Z</time></trkpt><trkpt lat="45.078035" lon="9.4351317"><ele>57.0</ele><time>2026-05-01T09:48:48.097Z</time></trkpt><trkpt lat="45.0778883" lon="9.4358483"><ele>57.0</ele><time>2026-05-01T09:48:50.098Z</time></trkpt><trkpt lat="45.0778133" lon="9.4362067"><ele>57.0</ele><time>2026-05-01T09:48:51.097Z</time></trkpt><trkpt lat="45.07774" lon="9.4365617"><ele>58.0</ele><time>2026-05-01T09:48:52.097Z</time></trkpt><trkpt lat="45.0776667" lon="9.43692"><ele>59.0</ele><time>2026-05-01T09:48:53.097Z</time></trkpt><trkpt lat="45.0775917" lon="9.4372783"><ele>59.0</ele><time>2026-05-01T09:48:54.097Z</time></trkpt><trkpt lat="45.0775183" lon="9.4376367"><ele>59.0</ele><time>2026-05-01T09:48:55.097Z</time></trkpt><trkpt lat="45.0774517" lon="9.4379917"><ele>60.5</ele><time>2026-05-01T09:48:56.097Z</time></trkpt><trkpt lat="45.0773783" lon="9.4383533"><ele>62.0</ele><time>2026-05-01T09:48:57.097Z</time></trkpt><trkpt lat="45.0773083" lon="9.4387067"><ele>60.0</ele><time>2026-05-01T09:48:58.097Z</time></trkpt><trkpt lat="45.0772383" lon="9.439045"><ele>58.0</ele><time>2026-05-01T09:48:59.097Z</time></trkpt><trkpt lat="45.07717" lon="9.4393833"><ele>58.5</ele><time>2026-05-01T09:49:00.098Z</time></trkpt><trkpt lat="45.0771" lon="9.4397283"><ele>59.0</ele><time>2026-05-01T09:49:01.097Z</time></trkpt><trkpt lat="45.077035" lon="9.4400733"><ele>59.0</ele><time>2026-05-01T09:49:02.098Z</time></trkpt><trkpt lat="45.0769633" lon="9.440425"><ele>59.0</ele><time>2026-05-01T09:49:03.098Z</time></trkpt><trkpt lat="45.076895" lon="9.440775"><ele>58.5</ele><time>2026-05-01T09:49:04.097Z</time></trkpt><trkpt lat="45.0768283" lon="9.4411317"><ele>58.0</ele><time>2026-05-01T09:49:05.098Z</time></trkpt><trkpt lat="45.0767633" lon="9.4414867"><ele>58.0</ele><time>2026-05-01T09:49:06.097Z</time></trkpt><trkpt lat="45.076705" lon="9.44185"><ele>58.0</ele><time>2026-05-01T09:49:07.097Z</time></trkpt><trkpt lat="45.076645" lon="9.442215"><ele>59.0</ele><time>2026-05-01T09:49:08.097Z</time></trkpt><trkpt lat="45.076585" lon="9.4425767"><ele>60.0</ele><time>2026-05-01T09:49:09.098Z</time></trkpt><trkpt lat="45.0764667" lon="9.4433033"><ele>60.0</ele><time>2026-05-01T09:49:11.097Z</time></trkpt><trkpt lat="45.0764083" lon="9.4436667"><ele>60.0</ele><time>2026-05-01T09:49:12.097Z</time></trkpt><trkpt lat="45.0763517" lon="9.4440267"><ele>59.5</ele><time>2026-05-01T09:49:13.098Z</time></trkpt><trkpt lat="45.0763" lon="9.4443883"><ele>59.0</ele><time>2026-05-01T09:49:14.097Z</time></trkpt><trkpt lat="45.0762517" lon="9.4447517"><ele>58.5</ele><time>2026-05-01T09:49:15.098Z</time></trkpt><trkpt lat="45.0762017" lon="9.445105"><ele>58.0</ele><time>2026-05-01T09:49:16.098Z</time></trkpt><trkpt lat="45.076155" lon="9.445455"><ele>57.5</ele><time>2026-05-01T09:49:17.097Z</time></trkpt><trkpt lat="45.0761117" lon="9.4458067"><ele>57.0</ele><time>2026-05-01T09:49:18.098Z</time></trkpt><trkpt lat="45.0760667" lon="9.4461633"><ele>57.0</ele><time>2026-05-01T09:49:19.098Z</time></trkpt><trkpt lat="45.0760233" lon="9.4465167"><ele>57.0</ele><time>2026-05-01T09:49:20.097Z</time></trkpt><trkpt lat="45.0759817" lon="9.44687"><ele>58.0</ele><time>2026-05-01T09:49:21.097Z</time></trkpt><trkpt lat="45.075935" lon="9.4472267"><ele>59.0</ele><time>2026-05-01T09:49:22.098Z</time></trkpt><trkpt lat="45.0758983" lon="9.4475767"><ele>59.0</ele><time>2026-05-01T09:49:23.098Z</time></trkpt><trkpt lat="45.0758483" lon="9.4479383"><ele>59.0</ele><time>2026-05-01T09:49:24.097Z</time></trkpt><trkpt lat="45.0758083" lon="9.4483017"><ele>58.5</ele><time>2026-05-01T09:49:25.098Z</time></trkpt><trkpt lat="45.0757717" lon="9.4486533"><ele>58.0</ele><time>2026-05-01T09:49:26.097Z</time></trkpt><trkpt lat="45.07573" lon="9.4490083"><ele>58.0</ele><time>2026-05-01T09:49:27.097Z</time></trkpt><trkpt lat="45.075685" lon="9.4493667"><ele>58.0</ele><time>2026-05-01T09:49:28.098Z</time></trkpt><trkpt lat="45.0756417" lon="9.4497267"><ele>57.5</ele><time>2026-05-01T09:49:29.098Z</time></trkpt><trkpt lat="45.075595" lon="9.4500833"><ele>57.0</ele><time>2026-05-01T09:49:30.098Z</time></trkpt><trkpt lat="45.0755117" lon="9.4508017"><ele>57.0</ele><time>2026-05-01T09:49:32.097Z</time></trkpt><trkpt lat="45.0754667" lon="9.4511667"><ele>57.0</ele><time>2026-05-01T09:49:33.097Z</time></trkpt><trkpt lat="45.0754233" lon="9.4515233"><ele>57.0</ele><time>2026-05-01T09:49:34.098Z</time></trkpt><trkpt lat="45.0753767" lon="9.4518833"><ele>57.0</ele><time>2026-05-01T09:49:35.098Z</time></trkpt><trkpt lat="45.0753333" lon="9.4522417"><ele>57.0</ele><time>2026-05-01T09:49:36.097Z</time></trkpt><trkpt lat="45.0752917" lon="9.4525983"><ele>57.0</ele><time>2026-05-01T09:49:37.097Z</time></trkpt><trkpt lat="45.0752467" lon="9.4529583"><ele>57.0</ele><time>2026-05-01T09:49:38.098Z</time></trkpt><trkpt lat="45.075205" lon="9.45331"><ele>57.0</ele><time>2026-05-01T09:49:39.098Z</time></trkpt><trkpt lat="45.075165" lon="9.453665"><ele>56.5</ele><time>2026-05-01T09:49:40.097Z</time></trkpt><trkpt lat="45.0751267" lon="9.4540183"><ele>56.0</ele><time>2026-05-01T09:49:41.097Z</time></trkpt><trkpt lat="45.0750833" lon="9.4543733"><ele>54.5</ele><time>2026-05-01T09:49:42.098Z</time></trkpt><trkpt lat="45.0750383" lon="9.4547283"><ele>53.0</ele><time>2026-05-01T09:49:43.098Z</time></trkpt><trkpt lat="45.074995" lon="9.4550817"><ele>53.0</ele><time>2026-05-01T09:49:44.098Z</time></trkpt><trkpt lat="45.0749517" lon="9.4554283"><ele>53.0</ele><time>2026-05-01T09:49:45.097Z</time></trkpt><trkpt lat="45.07491" lon="9.4557833"><ele>53.0</ele><time>2026-05-01T09:49:46.097Z</time></trkpt><trkpt lat="45.074865" lon="9.456145"><ele>53.0</ele><time>2026-05-01T09:49:47.097Z</time></trkpt><trkpt lat="45.0748183" lon="9.4565"><ele>53.0</ele><time>2026-05-01T09:49:48.098Z</time></trkpt><trkpt lat="45.0747733" lon="9.4568583"><ele>53.0</ele><time>2026-05-01T09:49:49.097Z</time></trkpt><trkpt lat="45.0747317" lon="9.4572167"><ele>53.5</ele><time>2026-05-01T09:49:50.097Z</time></trkpt><trkpt lat="45.074685" lon="9.4575767"><ele>54.0</ele><time>2026-05-01T09:49:51.098Z</time></trkpt><trkpt lat="45.0746033" lon="9.458295"><ele>54.5</ele><time>2026-05-01T09:49:53.098Z</time></trkpt><trkpt lat="45.0745583" lon="9.4586617"><ele>55.0</ele><time>2026-05-01T09:49:54.098Z</time></trkpt><trkpt lat="45.0745167" lon="9.4590217"><ele>55.5</ele><time>2026-05-01T09:49:55.098Z</time></trkpt><trkpt lat="45.0744733" lon="9.4593833"><ele>56.0</ele><time>2026-05-01T09:49:56.098Z</time></trkpt><trkpt lat="45.0744267" lon="9.45975"><ele>56.0</ele><time>2026-05-01T09:49:57.098Z</time></trkpt><trkpt lat="45.07438" lon="9.460105"><ele>56.0</ele><time>2026-05-01T09:49:58.097Z</time></trkpt><trkpt lat="45.07434" lon="9.4604533"><ele>54.5</ele><time>2026-05-01T09:49:59.097Z</time></trkpt><trkpt lat="45.0743" lon="9.4608017"><ele>53.0</ele><time>2026-05-01T09:50:00.098Z</time></trkpt><trkpt lat="45.0742533" lon="9.46115"><ele>52.5</ele><time>2026-05-01T09:50:01.098Z</time></trkpt><trkpt lat="45.0742117" lon="9.4614983"><ele>52.0</ele><time>2026-05-01T09:50:02.098Z</time></trkpt><trkpt lat="45.0741717" lon="9.4618517"><ele>52.5</ele><time>2026-05-01T09:50:03.098Z</time></trkpt><trkpt lat="45.07413" lon="9.4622067"><ele>53.0</ele><time>2026-05-01T09:50:04.097Z</time></trkpt><trkpt lat="45.0740883" lon="9.4625617"><ele>53.5</ele><time>2026-05-01T09:50:05.097Z</time></trkpt><trkpt lat="45.074045" lon="9.462915"><ele>54.0</ele><time>2026-05-01T09:50:06.098Z</time></trkpt><trkpt lat="45.0740033" lon="9.4632733"><ele>54.5</ele><time>2026-05-01T09:50:07.098Z</time></trkpt><trkpt lat="45.0739567" lon="9.4636333"><ele>55.0</ele><time>2026-05-01T09:50:08.097Z</time></trkpt><trkpt lat="45.0739117" lon="9.4639967"><ele>55.0</ele><time>2026-05-01T09:50:09.098Z</time></trkpt><trkpt lat="45.0738717" lon="9.4643583"><ele>55.0</ele><time>2026-05-01T09:50:10.097Z</time></trkpt><trkpt lat="45.0738283" lon="9.464725"><ele>53.5</ele><time>2026-05-01T09:50:11.097Z</time></trkpt><trkpt lat="45.0737833" lon="9.4650983"><ele>52.0</ele><time>2026-05-01T09:50:12.097Z</time></trkpt><trkpt lat="45.0737" lon="9.4658233"><ele>52.0</ele><time>2026-05-01T09:50:14.098Z</time></trkpt><trkpt lat="45.0736583" lon="9.4661817"><ele>52.0</ele><time>2026-05-01T09:50:15.098Z</time></trkpt><trkpt lat="45.073615" lon="9.46654"><ele>52.0</ele><time>2026-05-01T09:50:16.097Z</time></trkpt><trkpt lat="45.0735733" lon="9.466895"><ele>52.0</ele><time>2026-05-01T09:50:17.098Z</time></trkpt><trkpt lat="45.0735283" lon="9.4672517"><ele>52.0</ele><time>2026-05-01T09:50:18.097Z</time></trkpt><trkpt lat="45.0734867" lon="9.467605"><ele>52.0</ele><time>2026-05-01T09:50:19.098Z</time></trkpt><trkpt lat="45.0734417" lon="9.467955"><ele>52.5</ele><time>2026-05-01T09:50:20.097Z</time></trkpt><trkpt lat="45.0734017" lon="9.4683067"><ele>53.0</ele><time>2026-05-01T09:50:21.098Z</time></trkpt><trkpt lat="45.0733583" lon="9.468665"><ele>52.5</ele><time>2026-05-01T09:50:22.098Z</time></trkpt><trkpt lat="45.0733133" lon="9.4690233"><ele>52.0</ele><time>2026-05-01T09:50:23.097Z</time></trkpt><trkpt lat="45.0732683" lon="9.4693833"><ele>52.0</ele><time>2026-05-01T09:50:24.098Z</time></trkpt><trkpt lat="45.0732233" lon="9.4697433"><ele>52.0</ele><time>2026-05-01T09:50:25.097Z</time></trkpt><trkpt lat="45.0731783" lon="9.470105"><ele>51.5</ele><time>2026-05-01T09:50:26.097Z</time></trkpt><trkpt lat="45.0731367" lon="9.470465"><ele>51.0</ele><time>2026-05-01T09:50:27.097Z</time></trkpt><trkpt lat="45.073095" lon="9.47082"><ele>51.0</ele><time>2026-05-01T09:50:28.097Z</time></trkpt><trkpt lat="45.073055" lon="9.4711733"><ele>51.0</ele><time>2026-05-01T09:50:29.097Z</time></trkpt><trkpt lat="45.0730067" lon="9.4715367"><ele>51.0</ele><time>2026-05-01T09:50:30.097Z</time></trkpt><trkpt lat="45.0729633" lon="9.4718933"><ele>51.0</ele><time>2026-05-01T09:50:31.097Z</time></trkpt><trkpt lat="45.0729217" lon="9.4722483"><ele>51.5</ele><time>2026-05-01T09:50:32.097Z</time></trkpt><trkpt lat="45.0728783" lon="9.4725967"><ele>52.0</ele><time>2026-05-01T09:50:33.097Z</time></trkpt><trkpt lat="45.072795" lon="9.4732833"><ele>52.0</ele><time>2026-05-01T09:50:35.097Z</time></trkpt><trkpt lat="45.072755" lon="9.473625"><ele>52.0</ele><time>2026-05-01T09:50:36.098Z</time></trkpt><trkpt lat="45.0727133" lon="9.4739633"><ele>52.0</ele><time>2026-05-01T09:50:37.098Z</time></trkpt><trkpt lat="45.0726733" lon="9.474305"><ele>52.0</ele><time>2026-05-01T09:50:38.098Z</time></trkpt><trkpt lat="45.07263" lon="9.47465"><ele>52.0</ele><time>2026-05-01T09:50:39.098Z</time></trkpt><trkpt lat="45.07259" lon="9.475"><ele>52.0</ele><time>2026-05-01T09:50:40.098Z</time></trkpt><trkpt lat="45.0725467" lon="9.4753433"><ele>51.5</ele><time>2026-05-01T09:50:41.098Z</time></trkpt><trkpt lat="45.0725067" lon="9.4756867"><ele>51.0</ele><time>2026-05-01T09:50:42.098Z</time></trkpt><trkpt lat="45.0724633" lon="9.4760417"><ele>51.5</ele><time>2026-05-01T09:50:43.097Z</time></trkpt><trkpt lat="45.0724217" lon="9.4764033"><ele>52.0</ele><time>2026-05-01T09:50:44.097Z</time></trkpt><trkpt lat="45.0723783" lon="9.4767683"><ele>51.5</ele><time>2026-05-01T09:50:45.098Z</time></trkpt><trkpt lat="45.0723333" lon="9.4771317"><ele>51.0</ele><time>2026-05-01T09:50:46.098Z</time></trkpt><trkpt lat="45.0722883" lon="9.4775017"><ele>51.0</ele><time>2026-05-01T09:50:47.097Z</time></trkpt><trkpt lat="45.0722417" lon="9.4778717"><ele>51.0</ele><time>2026-05-01T09:50:48.098Z</time></trkpt><trkpt lat="45.0721983" lon="9.4782483"><ele>51.0</ele><time>2026-05-01T09:50:49.097Z</time></trkpt><trkpt lat="45.0721533" lon="9.47862"><ele>51.0</ele><time>2026-05-01T09:50:50.098Z</time></trkpt><trkpt lat="45.072105" lon="9.4789983"><ele>51.0</ele><time>2026-05-01T09:50:51.098Z</time></trkpt><trkpt lat="45.07206" lon="9.4793767"><ele>51.0</ele><time>2026-05-01T09:50:52.097Z</time></trkpt><trkpt lat="45.0720133" lon="9.479755"><ele>51.5</ele><time>2026-05-01T09:50:53.097Z</time></trkpt><trkpt lat="45.0719717" lon="9.4801317"><ele>52.0</ele><time>2026-05-01T09:50:54.098Z</time></trkpt><trkpt lat="45.0718817" lon="9.4808817"><ele>52.0</ele><time>2026-05-01T09:50:56.098Z</time></trkpt><trkpt lat="45.071835" lon="9.4812583"><ele>52.0</ele><time>2026-05-01T09:50:57.098Z</time></trkpt><trkpt lat="45.0717883" lon="9.481635"><ele>52.0</ele><time>2026-05-01T09:50:58.098Z</time></trkpt><trkpt lat="45.0717433" lon="9.4820117"><ele>52.0</ele><time>2026-05-01T09:50:59.097Z</time></trkpt><trkpt lat="45.0716933" lon="9.4823867"><ele>52.0</ele><time>2026-05-01T09:51:00.098Z</time></trkpt><trkpt lat="45.0716483" lon="9.482755"><ele>52.0</ele><time>2026-05-01T09:51:01.097Z</time></trkpt><trkpt lat="45.071605" lon="9.48312"><ele>52.0</ele><time>2026-05-01T09:51:02.098Z</time></trkpt><trkpt lat="45.0715617" lon="9.4834817"><ele>52.0</ele><time>2026-05-01T09:51:03.097Z</time></trkpt><trkpt lat="45.0715167" lon="9.48384"><ele>51.5</ele><time>2026-05-01T09:51:04.098Z</time></trkpt><trkpt lat="45.071475" lon="9.4841983"><ele>51.0</ele><time>2026-05-01T09:51:05.097Z</time></trkpt><trkpt lat="45.0714333" lon="9.4845567"><ele>51.5</ele><time>2026-05-01T09:51:06.097Z</time></trkpt><trkpt lat="45.0713917" lon="9.484915"><ele>52.0</ele><time>2026-05-01T09:51:07.098Z</time></trkpt><trkpt lat="45.07135" lon="9.4852683"><ele>52.5</ele><time>2026-05-01T09:51:08.097Z</time></trkpt><trkpt lat="45.0713033" lon="9.4856217"><ele>53.0</ele><time>2026-05-01T09:51:09.097Z</time></trkpt><trkpt lat="45.0712583" lon="9.4859767"><ele>53.0</ele><time>2026-05-01T09:51:10.097Z</time></trkpt><trkpt lat="45.0712167" lon="9.4863283"><ele>53.0</ele><time>2026-05-01T09:51:11.098Z</time></trkpt><trkpt lat="45.071175" lon="9.486675"><ele>53.0</ele><time>2026-05-01T09:51:12.097Z</time></trkpt><trkpt lat="45.071135" lon="9.4870267"><ele>53.0</ele><time>2026-05-01T09:51:13.097Z</time></trkpt><trkpt lat="45.071095" lon="9.4873767"><ele>52.5</ele><time>2026-05-01T09:51:14.098Z</time></trkpt><trkpt lat="45.0710533" lon="9.48773"><ele>52.0</ele><time>2026-05-01T09:51:15.097Z</time></trkpt><trkpt lat="45.0709667" lon="9.4884333"><ele>52.0</ele><time>2026-05-01T09:51:17.098Z</time></trkpt><trkpt lat="45.070925" lon="9.4887833"><ele>52.0</ele><time>2026-05-01T09:51:18.097Z</time></trkpt><trkpt lat="45.0708833" lon="9.489135"><ele>52.0</ele><time>2026-05-01T09:51:19.098Z</time></trkpt><trkpt lat="45.0708433" lon="9.4894867"><ele>52.0</ele><time>2026-05-01T09:51:20.098Z</time></trkpt><trkpt lat="45.0708033" lon="9.48984"><ele>52.0</ele><time>2026-05-01T09:51:21.097Z</time></trkpt><trkpt lat="45.07076" lon="9.49019"><ele>52.0</ele><time>2026-05-01T09:51:22.098Z</time></trkpt><trkpt lat="45.0707183" lon="9.4905417"><ele>52.0</ele><time>2026-05-01T09:51:23.097Z</time></trkpt><trkpt lat="45.0706733" lon="9.4908967"><ele>52.0</ele><time>2026-05-01T09:51:24.098Z</time></trkpt><trkpt lat="45.0706267" lon="9.4912467"><ele>52.5</ele><time>2026-05-01T09:51:25.098Z</time></trkpt><trkpt lat="45.0705833" lon="9.4915983"><ele>53.0</ele><time>2026-05-01T09:51:26.097Z</time></trkpt><trkpt lat="45.0705433" lon="9.4919517"><ele>53.5</ele><time>2026-05-01T09:51:27.097Z</time></trkpt><trkpt lat="45.070505" lon="9.4923"><ele>54.0</ele><time>2026-05-01T09:51:28.098Z</time></trkpt><trkpt lat="45.070465" lon="9.49265"><ele>54.0</ele><time>2026-05-01T09:51:29.097Z</time></trkpt><trkpt lat="45.0704217" lon="9.493"><ele>54.0</ele><time>2026-05-01T09:51:30.097Z</time></trkpt><trkpt lat="45.070375" lon="9.49335"><ele>54.0</ele><time>2026-05-01T09:51:31.097Z</time></trkpt><trkpt lat="45.0703317" lon="9.4936933"><ele>54.0</ele><time>2026-05-01T09:51:32.098Z</time></trkpt><trkpt lat="45.07029" lon="9.49404"><ele>54.0</ele><time>2026-05-01T09:51:33.097Z</time></trkpt><trkpt lat="45.070245" lon="9.494385"><ele>54.0</ele><time>2026-05-01T09:51:34.097Z</time></trkpt><trkpt lat="45.0702033" lon="9.49472"><ele>54.0</ele><time>2026-05-01T09:51:35.097Z</time></trkpt><trkpt lat="45.0701683" lon="9.4950533"><ele>54.0</ele><time>2026-05-01T09:51:36.098Z</time></trkpt><trkpt lat="45.0700917" lon="9.49572"><ele>53.0</ele><time>2026-05-01T09:51:38.098Z</time></trkpt><trkpt lat="45.0700483" lon="9.496065"><ele>52.0</ele><time>2026-05-01T09:51:39.098Z</time></trkpt><trkpt lat="45.07001" lon="9.4964083"><ele>52.0</ele><time>2026-05-01T09:51:40.097Z</time></trkpt><trkpt lat="45.0699683" lon="9.4967567"><ele>52.0</ele><time>2026-05-01T09:51:41.098Z</time></trkpt><trkpt lat="45.0699267" lon="9.4971133"><ele>52.0</ele><time>2026-05-01T09:51:42.097Z</time></trkpt><trkpt lat="45.0698817" lon="9.4974683"><ele>52.0</ele><time>2026-05-01T09:51:43.097Z</time></trkpt><trkpt lat="45.0698367" lon="9.4978283"><ele>52.0</ele><time>2026-05-01T09:51:44.097Z</time></trkpt><trkpt lat="45.0697883" lon="9.49819"><ele>52.0</ele><time>2026-05-01T09:51:45.097Z</time></trkpt><trkpt lat="45.069745" lon="9.4985617"><ele>52.5</ele><time>2026-05-01T09:51:46.098Z</time></trkpt><trkpt lat="45.0696983" lon="9.4989333"><ele>53.0</ele><time>2026-05-01T09:51:47.097Z</time></trkpt><trkpt lat="45.0696583" lon="9.4993067"><ele>53.0</ele><time>2026-05-01T09:51:48.097Z</time></trkpt><trkpt lat="45.0696133" lon="9.4996833"><ele>53.0</ele><time>2026-05-01T09:51:49.097Z</time></trkpt><trkpt lat="45.0695717" lon="9.50006"><ele>54.0</ele><time>2026-05-01T09:51:50.098Z</time></trkpt><trkpt lat="45.0695267" lon="9.5004383"><ele>55.0</ele><time>2026-05-01T09:51:51.097Z</time></trkpt><trkpt lat="45.069485" lon="9.50082"><ele>55.0</ele><time>2026-05-01T09:51:52.098Z</time></trkpt><trkpt lat="45.0694383" lon="9.5011983"><ele>55.0</ele><time>2026-05-01T09:51:53.097Z</time></trkpt><trkpt lat="45.06939" lon="9.50158"><ele>55.5</ele><time>2026-05-01T09:51:54.097Z</time></trkpt><trkpt lat="45.0693383" lon="9.5019617"><ele>56.0</ele><time>2026-05-01T09:51:55.097Z</time></trkpt><trkpt lat="45.06929" lon="9.5023483"><ele>56.0</ele><time>2026-05-01T09:51:56.098Z</time></trkpt><trkpt lat="45.0692433" lon="9.5027317"><ele>56.0</ele><time>2026-05-01T09:51:57.097Z</time></trkpt><trkpt lat="45.06915" lon="9.5034683"><ele>56.0</ele><time>2026-05-01T09:51:59.097Z</time></trkpt><trkpt lat="45.069105" lon="9.5038283"><ele>56.0</ele><time>2026-05-01T09:52:00.097Z</time></trkpt><trkpt lat="45.0690567" lon="9.5041917"><ele>56.0</ele><time>2026-05-01T09:52:01.097Z</time></trkpt><trkpt lat="45.0690133" lon="9.50456"><ele>56.0</ele><time>2026-05-01T09:52:02.098Z</time></trkpt><trkpt lat="45.0689667" lon="9.50494"><ele>56.0</ele><time>2026-05-01T09:52:03.097Z</time></trkpt><trkpt lat="45.0689233" lon="9.5053033"><ele>56.0</ele><time>2026-05-01T09:52:04.098Z</time></trkpt><trkpt lat="45.06888" lon="9.50567"><ele>56.0</ele><time>2026-05-01T09:52:05.097Z</time></trkpt><trkpt lat="45.0688367" lon="9.5060383"><ele>56.0</ele><time>2026-05-01T09:52:06.098Z</time></trkpt><trkpt lat="45.0687917" lon="9.5064017"><ele>56.0</ele><time>2026-05-01T09:52:07.098Z</time></trkpt><trkpt lat="45.0687483" lon="9.5067667"><ele>56.0</ele><time>2026-05-01T09:52:08.097Z</time></trkpt><trkpt lat="45.0687033" lon="9.50713"><ele>55.0</ele><time>2026-05-01T09:52:09.098Z</time></trkpt><trkpt lat="45.06866" lon="9.5074933"><ele>54.0</ele><time>2026-05-01T09:52:10.098Z</time></trkpt><trkpt lat="45.068615" lon="9.5078533"><ele>54.0</ele><time>2026-05-01T09:52:11.097Z</time></trkpt><trkpt lat="45.0685717" lon="9.50822"><ele>54.0</ele><time>2026-05-01T09:52:12.098Z</time></trkpt><trkpt lat="45.0685267" lon="9.5085883"><ele>54.5</ele><time>2026-05-01T09:52:13.097Z</time></trkpt><trkpt lat="45.068485" lon="9.5089633"><ele>55.0</ele><time>2026-05-01T09:52:14.097Z</time></trkpt><trkpt lat="45.068435" lon="9.5093367"><ele>55.0</ele><time>2026-05-01T09:52:15.098Z</time></trkpt><trkpt lat="45.0683917" lon="9.5097167"><ele>55.0</ele><time>2026-05-01T09:52:16.098Z</time></trkpt><trkpt lat="45.0683467" lon="9.5100933"><ele>55.0</ele><time>2026-05-01T09:52:17.097Z</time></trkpt><trkpt lat="45.0683017" lon="9.5104717"><ele>55.0</ele><time>2026-05-01T09:52:18.098Z</time></trkpt><trkpt lat="45.0682133" lon="9.5112317"><ele>54.0</ele><time>2026-05-01T09:52:20.097Z</time></trkpt><trkpt lat="45.068165" lon="9.5116117"><ele>53.0</ele><time>2026-05-01T09:52:21.098Z</time></trkpt><trkpt lat="45.068115" lon="9.5119933"><ele>52.5</ele><time>2026-05-01T09:52:22.098Z</time></trkpt><trkpt lat="45.0680667" lon="9.5123733"><ele>52.0</ele><time>2026-05-01T09:52:23.097Z</time></trkpt><trkpt lat="45.06802" lon="9.51275"><ele>53.0</ele><time>2026-05-01T09:52:24.097Z</time></trkpt><trkpt lat="45.067975" lon="9.5131283"><ele>54.0</ele><time>2026-05-01T09:52:25.098Z</time></trkpt><trkpt lat="45.0679333" lon="9.5134967"><ele>54.0</ele><time>2026-05-01T09:52:26.097Z</time></trkpt><trkpt lat="45.06789" lon="9.513865"><ele>54.0</ele><time>2026-05-01T09:52:27.098Z</time></trkpt><trkpt lat="45.0678483" lon="9.5142333"><ele>56.0</ele><time>2026-05-01T09:52:28.097Z</time></trkpt><trkpt lat="45.0678067" lon="9.5146033"><ele>58.0</ele><time>2026-05-01T09:52:29.098Z</time></trkpt><trkpt lat="45.0677583" lon="9.51497"><ele>58.0</ele><time>2026-05-01T09:52:30.098Z</time></trkpt><trkpt lat="45.067715" lon="9.5153267"><ele>58.0</ele><time>2026-05-01T09:52:31.097Z</time></trkpt><trkpt lat="45.06767" lon="9.5156817"><ele>57.0</ele><time>2026-05-01T09:52:32.098Z</time></trkpt><trkpt lat="45.06763" lon="9.5160433"><ele>56.0</ele><time>2026-05-01T09:52:33.097Z</time></trkpt><trkpt lat="45.067585" lon="9.516405"><ele>56.0</ele><time>2026-05-01T09:52:34.097Z</time></trkpt><trkpt lat="45.0675417" lon="9.51676"><ele>56.0</ele><time>2026-05-01T09:52:35.097Z</time></trkpt><trkpt lat="45.0675017" lon="9.5171117"><ele>56.0</ele><time>2026-05-01T09:52:36.097Z</time></trkpt><trkpt lat="45.0674583" lon="9.5174633"><ele>56.0</ele><time>2026-05-01T09:52:37.098Z</time></trkpt><trkpt lat="45.0674183" lon="9.5178083"><ele>56.0</ele><time>2026-05-01T09:52:38.097Z</time></trkpt><trkpt lat="45.0673767" lon="9.5181583"><ele>56.0</ele><time>2026-05-01T09:52:39.098Z</time></trkpt><trkpt lat="45.0672917" lon="9.5188633"><ele>56.0</ele><time>2026-05-01T09:52:41.098Z</time></trkpt><trkpt lat="45.0672467" lon="9.5192233"><ele>56.0</ele><time>2026-05-01T09:52:42.097Z</time></trkpt><trkpt lat="45.067205" lon="9.5195833"><ele>55.5</ele><time>2026-05-01T09:52:43.097Z</time></trkpt><trkpt lat="45.06716" lon="9.5199433"><ele>55.0</ele><time>2026-05-01T09:52:44.097Z</time></trkpt><trkpt lat="45.0671167" lon="9.5203083"><ele>55.5</ele><time>2026-05-01T09:52:45.097Z</time></trkpt><trkpt lat="45.0670717" lon="9.5206717"><ele>56.0</ele><time>2026-05-01T09:52:46.097Z</time></trkpt><trkpt lat="45.0670283" lon="9.5210333"><ele>57.5</ele><time>2026-05-01T09:52:47.098Z</time></trkpt><trkpt lat="45.066985" lon="9.5213917"><ele>59.0</ele><time>2026-05-01T09:52:48.097Z</time></trkpt><trkpt lat="45.0669367" lon="9.5217517"><ele>59.0</ele><time>2026-05-01T09:52:49.097Z</time></trkpt><trkpt lat="45.0668967" lon="9.5221183"><ele>59.0</ele><time>2026-05-01T09:52:50.097Z</time></trkpt><trkpt lat="45.06685" lon="9.5224883"><ele>59.0</ele><time>2026-05-01T09:52:51.097Z</time></trkpt><trkpt lat="45.066805" lon="9.52285"><ele>59.0</ele><time>2026-05-01T09:52:52.098Z</time></trkpt><trkpt lat="45.0667633" lon="9.523215"><ele>59.0</ele><time>2026-05-01T09:52:53.097Z</time></trkpt><trkpt lat="45.0667167" lon="9.5235783"><ele>59.0</ele><time>2026-05-01T09:52:54.097Z</time></trkpt><trkpt lat="45.0666733" lon="9.523935"><ele>58.5</ele><time>2026-05-01T09:52:55.098Z</time></trkpt><trkpt lat="45.0666317" lon="9.5242883"><ele>58.0</ele><time>2026-05-01T09:52:56.098Z</time></trkpt><trkpt lat="45.0665883" lon="9.5246433"><ele>59.5</ele><time>2026-05-01T09:52:57.097Z</time></trkpt><trkpt lat="45.0665467" lon="9.5249933"><ele>61.0</ele><time>2026-05-01T09:52:58.097Z</time></trkpt><trkpt lat="45.0664983" lon="9.5253433"><ele>62.0</ele><time>2026-05-01T09:52:59.098Z</time></trkpt><trkpt lat="45.0664533" lon="9.5257017"><ele>63.0</ele><time>2026-05-01T09:53:00.097Z</time></trkpt><trkpt lat="45.0663717" lon="9.5264217"><ele>63.0</ele><time>2026-05-01T09:53:02.097Z</time></trkpt><trkpt lat="45.0663333" lon="9.5267883"><ele>63.0</ele><time>2026-05-01T09:53:03.098Z</time></trkpt><trkpt lat="45.0662917" lon="9.5271533"><ele>60.5</ele><time>2026-05-01T09:53:04.098Z</time></trkpt><trkpt lat="45.0662467" lon="9.5275183"><ele>58.0</ele><time>2026-05-01T09:53:05.097Z</time></trkpt><trkpt lat="45.0662067" lon="9.527885"><ele>56.5</ele><time>2026-05-01T09:53:06.097Z</time></trkpt><trkpt lat="45.066165" lon="9.5282483"><ele>55.0</ele><time>2026-05-01T09:53:07.098Z</time></trkpt><trkpt lat="45.06613" lon="9.528605"><ele>56.0</ele><time>2026-05-01T09:53:08.098Z</time></trkpt><trkpt lat="45.06609" lon="9.52897"><ele>57.0</ele><time>2026-05-01T09:53:09.097Z</time></trkpt><trkpt lat="45.0660533" lon="9.52934"><ele>57.5</ele><time>2026-05-01T09:53:10.097Z</time></trkpt><trkpt lat="45.0660167" lon="9.5297067"><ele>58.0</ele><time>2026-05-01T09:53:11.097Z</time></trkpt><trkpt lat="45.0659817" lon="9.5300717"><ele>58.0</ele><time>2026-05-01T09:53:12.098Z</time></trkpt><trkpt lat="45.0659517" lon="9.53044"><ele>58.0</ele><time>2026-05-01T09:53:13.098Z</time></trkpt><trkpt lat="45.065925" lon="9.5308167"><ele>58.0</ele><time>2026-05-01T09:53:14.097Z</time></trkpt><trkpt lat="45.065905" lon="9.5311817"><ele>58.0</ele><time>2026-05-01T09:53:15.098Z</time></trkpt><trkpt lat="45.06588" lon="9.53154"><ele>58.5</ele><time>2026-05-01T09:53:16.098Z</time></trkpt><trkpt lat="45.06585" lon="9.5319067"><ele>59.0</ele><time>2026-05-01T09:53:17.098Z</time></trkpt><trkpt lat="45.06583" lon="9.53226"><ele>58.0</ele><time>2026-05-01T09:53:18.097Z</time></trkpt><trkpt lat="45.0658083" lon="9.5326133"><ele>57.0</ele><time>2026-05-01T09:53:19.097Z</time></trkpt><trkpt lat="45.0657883" lon="9.5329583"><ele>56.5</ele><time>2026-05-01T09:53:20.098Z</time></trkpt><trkpt lat="45.0657667" lon="9.533305"><ele>56.0</ele><time>2026-05-01T09:53:21.097Z</time></trkpt><trkpt lat="45.06573" lon="9.5340083"><ele>56.0</ele><time>2026-05-01T09:53:23.097Z</time></trkpt><trkpt lat="45.0657133" lon="9.5343667"><ele>56.0</ele><time>2026-05-01T09:53:24.097Z</time></trkpt><trkpt lat="45.0657017" lon="9.5347267"><ele>56.0</ele><time>2026-05-01T09:53:25.097Z</time></trkpt><trkpt lat="45.06569" lon="9.5350917"><ele>56.0</ele><time>2026-05-01T09:53:26.098Z</time></trkpt><trkpt lat="45.06568" lon="9.535455"><ele>57.0</ele><time>2026-05-01T09:53:27.098Z</time></trkpt><trkpt lat="45.0656667" lon="9.5358183"><ele>58.0</ele><time>2026-05-01T09:53:28.098Z</time></trkpt><trkpt lat="45.06566" lon="9.5361767"><ele>58.0</ele><time>2026-05-01T09:53:29.097Z</time></trkpt><trkpt lat="45.06565" lon="9.5365383"><ele>58.0</ele><time>2026-05-01T09:53:30.098Z</time></trkpt><trkpt lat="45.065635" lon="9.5369083"><ele>57.5</ele><time>2026-05-01T09:53:31.097Z</time></trkpt><trkpt lat="45.0656217" lon="9.5372717"><ele>57.0</ele><time>2026-05-01T09:53:32.097Z</time></trkpt><trkpt lat="45.06561" lon="9.53764"><ele>57.0</ele><time>2026-05-01T09:53:33.098Z</time></trkpt><trkpt lat="45.0655983" lon="9.5380083"><ele>57.0</ele><time>2026-05-01T09:53:34.097Z</time></trkpt><trkpt lat="45.0655867" lon="9.53837"><ele>57.0</ele><time>2026-05-01T09:53:35.097Z</time></trkpt><trkpt lat="45.065575" lon="9.538735"><ele>57.0</ele><time>2026-05-01T09:53:36.097Z</time></trkpt><trkpt lat="45.065565" lon="9.5391083"><ele>57.0</ele><time>2026-05-01T09:53:37.097Z</time></trkpt><trkpt lat="45.065555" lon="9.5394833"><ele>57.0</ele><time>2026-05-01T09:53:38.098Z</time></trkpt><trkpt lat="45.06555" lon="9.5398567"><ele>57.0</ele><time>2026-05-01T09:53:39.097Z</time></trkpt><trkpt lat="45.065545" lon="9.5402283"><ele>57.0</ele><time>2026-05-01T09:53:40.098Z</time></trkpt><trkpt lat="45.0655383" lon="9.5406017"><ele>57.0</ele><time>2026-05-01T09:53:41.097Z</time></trkpt><trkpt lat="45.0655283" lon="9.540975"><ele>57.0</ele><time>2026-05-01T09:53:42.097Z</time></trkpt><trkpt lat="45.0655083" lon="9.5417"><ele>58.0</ele><time>2026-05-01T09:53:44.097Z</time></trkpt><trkpt lat="45.0655" lon="9.54206"><ele>59.0</ele><time>2026-05-01T09:53:45.098Z</time></trkpt><trkpt lat="45.065495" lon="9.5424183"><ele>59.0</ele><time>2026-05-01T09:53:46.098Z</time></trkpt><trkpt lat="45.0654883" lon="9.5427733"><ele>59.0</ele><time>2026-05-01T09:53:47.097Z</time></trkpt><trkpt lat="45.0654817" lon="9.5431333"><ele>59.0</ele><time>2026-05-01T09:53:48.097Z</time></trkpt><trkpt lat="45.0654767" lon="9.5434933"><ele>59.0</ele><time>2026-05-01T09:53:49.097Z</time></trkpt><trkpt lat="45.0654733" lon="9.54385"><ele>58.5</ele><time>2026-05-01T09:53:50.098Z</time></trkpt><trkpt lat="45.0654617" lon="9.54421"><ele>58.0</ele><time>2026-05-01T09:53:51.097Z</time></trkpt><trkpt lat="45.0654467" lon="9.5445767"><ele>58.0</ele><time>2026-05-01T09:53:52.098Z</time></trkpt><trkpt lat="45.0654283" lon="9.5449367"><ele>58.0</ele><time>2026-05-01T09:53:53.097Z</time></trkpt><trkpt lat="45.06541" lon="9.5453017"><ele>58.5</ele><time>2026-05-01T09:53:54.098Z</time></trkpt><trkpt lat="45.0653883" lon="9.54566"><ele>59.0</ele><time>2026-05-01T09:53:55.097Z</time></trkpt><trkpt lat="45.06537" lon="9.5460167"><ele>58.0</ele><time>2026-05-01T09:53:56.097Z</time></trkpt><trkpt lat="45.065355" lon="9.5463767"><ele>57.0</ele><time>2026-05-01T09:53:57.098Z</time></trkpt><trkpt lat="45.065335" lon="9.5467433"><ele>57.0</ele><time>2026-05-01T09:53:58.097Z</time></trkpt><trkpt lat="45.0653267" lon="9.5470983"><ele>57.0</ele><time>2026-05-01T09:53:59.097Z</time></trkpt><trkpt lat="45.0653217" lon="9.547445"><ele>57.0</ele><time>2026-05-01T09:54:00.098Z</time></trkpt><trkpt lat="45.0653167" lon="9.5477967"><ele>57.0</ele><time>2026-05-01T09:54:01.098Z</time></trkpt><trkpt lat="45.0653033" lon="9.5481517"><ele>57.0</ele><time>2026-05-01T09:54:02.097Z</time></trkpt><trkpt lat="45.0652917" lon="9.5485083"><ele>57.0</ele><time>2026-05-01T09:54:03.097Z</time></trkpt><trkpt lat="45.0652683" lon="9.5492217"><ele>58.0</ele><time>2026-05-01T09:54:05.097Z</time></trkpt><trkpt lat="45.0652583" lon="9.5495817"><ele>59.0</ele><time>2026-05-01T09:54:06.097Z</time></trkpt><trkpt lat="45.0652483" lon="9.5499417"><ele>59.0</ele><time>2026-05-01T09:54:07.098Z</time></trkpt><trkpt lat="45.0652367" lon="9.5503067"><ele>59.0</ele><time>2026-05-01T09:54:08.098Z</time></trkpt><trkpt lat="45.0652267" lon="9.55067"><ele>59.0</ele><time>2026-05-01T09:54:09.097Z</time></trkpt><trkpt lat="45.0652133" lon="9.5510433"><ele>59.0</ele><time>2026-05-01T09:54:10.097Z</time></trkpt><trkpt lat="45.0652017" lon="9.5514083"><ele>59.0</ele><time>2026-05-01T09:54:11.098Z</time></trkpt><trkpt lat="45.0651883" lon="9.5517783"><ele>59.0</ele><time>2026-05-01T09:54:12.097Z</time></trkpt><trkpt lat="45.0651767" lon="9.5521417"><ele>58.5</ele><time>2026-05-01T09:54:13.098Z</time></trkpt><trkpt lat="45.0651683" lon="9.5525033"><ele>58.0</ele><time>2026-05-01T09:54:14.097Z</time></trkpt><trkpt lat="45.0651583" lon="9.55287"><ele>58.0</ele><time>2026-05-01T09:54:15.098Z</time></trkpt><trkpt lat="45.0651483" lon="9.5532383"><ele>58.0</ele><time>2026-05-01T09:54:16.097Z</time></trkpt><trkpt lat="45.0651367" lon="9.553605"><ele>57.5</ele><time>2026-05-01T09:54:17.097Z</time></trkpt><trkpt lat="45.065125" lon="9.5539733"><ele>57.0</ele><time>2026-05-01T09:54:18.097Z</time></trkpt><trkpt lat="45.0651183" lon="9.5543433"><ele>58.0</ele><time>2026-05-01T09:54:19.097Z</time></trkpt><trkpt lat="45.06511" lon="9.5547167"><ele>59.0</ele><time>2026-05-01T09:54:20.097Z</time></trkpt><trkpt lat="45.0650983" lon="9.5550867"><ele>58.5</ele><time>2026-05-01T09:54:21.098Z</time></trkpt><trkpt lat="45.0650883" lon="9.5554483"><ele>58.0</ele><time>2026-05-01T09:54:22.098Z</time></trkpt><trkpt lat="45.0650783" lon="9.5557983"><ele>58.0</ele><time>2026-05-01T09:54:23.097Z</time></trkpt><trkpt lat="45.0650667" lon="9.5561483"><ele>58.0</ele><time>2026-05-01T09:54:24.098Z</time></trkpt><trkpt lat="45.0650467" lon="9.5568367"><ele>59.0</ele><time>2026-05-01T09:54:26.098Z</time></trkpt><trkpt lat="45.0650383" lon="9.5571733"><ele>60.0</ele><time>2026-05-01T09:54:27.097Z</time></trkpt><trkpt lat="45.0650283" lon="9.5575117"><ele>60.0</ele><time>2026-05-01T09:54:28.098Z</time></trkpt><trkpt lat="45.0650217" lon="9.5578433"><ele>60.0</ele><time>2026-05-01T09:54:29.097Z</time></trkpt><trkpt lat="45.06501" lon="9.558165"><ele>59.5</ele><time>2026-05-01T09:54:30.097Z</time></trkpt><trkpt lat="45.065" lon="9.5584833"><ele>59.0</ele><time>2026-05-01T09:54:31.098Z</time></trkpt><trkpt lat="45.064985" lon="9.5588017"><ele>59.0</ele><time>2026-05-01T09:54:32.097Z</time></trkpt><trkpt lat="45.0649733" lon="9.55912"><ele>59.0</ele><time>2026-05-01T09:54:33.097Z</time></trkpt><trkpt lat="45.0649617" lon="9.559435"><ele>59.0</ele><time>2026-05-01T09:54:34.098Z</time></trkpt><trkpt lat="45.064955" lon="9.55976"><ele>59.0</ele><time>2026-05-01T09:54:35.097Z</time></trkpt><trkpt lat="45.0649467" lon="9.56009"><ele>59.0</ele><time>2026-05-01T09:54:36.097Z</time></trkpt><trkpt lat="45.0649433" lon="9.5604317"><ele>58.5</ele><time>2026-05-01T09:54:37.097Z</time></trkpt><trkpt lat="45.0649383" lon="9.56078"><ele>58.0</ele><time>2026-05-01T09:54:38.098Z</time></trkpt><trkpt lat="45.06493" lon="9.5611283"><ele>59.0</ele><time>2026-05-01T09:54:39.097Z</time></trkpt><trkpt lat="45.064925" lon="9.561485"><ele>60.0</ele><time>2026-05-01T09:54:40.098Z</time></trkpt><trkpt lat="45.0649217" lon="9.5618467"><ele>60.5</ele><time>2026-05-01T09:54:41.097Z</time></trkpt><trkpt lat="45.0649067" lon="9.5622167"><ele>61.0</ele><time>2026-05-01T09:54:42.097Z</time></trkpt><trkpt lat="45.0648967" lon="9.5626"><ele>59.5</ele><time>2026-05-01T09:54:43.098Z</time></trkpt><trkpt lat="45.0648833" lon="9.5629833"><ele>58.0</ele><time>2026-05-01T09:54:44.097Z</time></trkpt><trkpt lat="45.0648717" lon="9.56336"><ele>58.0</ele><time>2026-05-01T09:54:45.097Z</time></trkpt><trkpt lat="45.06485" lon="9.5641167"><ele>58.0</ele><time>2026-05-01T09:54:47.098Z</time></trkpt><trkpt lat="45.0648367" lon="9.564495"><ele>58.0</ele><time>2026-05-01T09:54:48.097Z</time></trkpt><trkpt lat="45.0648267" lon="9.5648667"><ele>58.5</ele><time>2026-05-01T09:54:49.098Z</time></trkpt><trkpt lat="45.0648133" lon="9.565215"><ele>59.0</ele><time>2026-05-01T09:54:50.097Z</time></trkpt><trkpt lat="45.064795" lon="9.5655617"><ele>59.0</ele><time>2026-05-01T09:54:51.097Z</time></trkpt><trkpt lat="45.0647783" lon="9.5659067"><ele>59.0</ele><time>2026-05-01T09:54:52.097Z</time></trkpt><trkpt lat="45.064765" lon="9.566245"><ele>60.0</ele><time>2026-05-01T09:54:53.098Z</time></trkpt><trkpt lat="45.0647533" lon="9.5665767"><ele>61.0</ele><time>2026-05-01T09:54:54.098Z</time></trkpt><trkpt lat="45.0647433" lon="9.5668967"><ele>60.666666666666664</ele><time>2026-05-01T09:54:55.098Z</time></trkpt><trkpt lat="45.064735" lon="9.5672083"><ele>60.33333333333333</ele><time>2026-05-01T09:54:56.098Z</time></trkpt><trkpt lat="45.0647267" lon="9.5675167"><ele>60.0</ele><time>2026-05-01T09:54:57.097Z</time></trkpt><trkpt lat="45.064715" lon="9.5678333"><ele>59.66666666666667</ele><time>2026-05-01T09:54:58.098Z</time></trkpt><trkpt lat="45.0647067" lon="9.5681433"><ele>59.333333333333336</ele><time>2026-05-01T09:54:59.097Z</time></trkpt><trkpt lat="45.064695" lon="9.568455"><ele>59.0</ele><time>2026-05-01T09:55:00.097Z</time></trkpt><trkpt lat="45.0646883" lon="9.5687833"><ele>60.5</ele><time>2026-05-01T09:55:01.097Z</time></trkpt><trkpt lat="45.064685" lon="9.5691233"><ele>62.0</ele><time>2026-05-01T09:55:02.097Z</time></trkpt><trkpt lat="45.06468" lon="9.569475"><ele>61.0</ele><time>2026-05-01T09:55:03.098Z</time></trkpt><trkpt lat="45.0646767" lon="9.5698383"><ele>60.0</ele><time>2026-05-01T09:55:04.097Z</time></trkpt><trkpt lat="45.0646733" lon="9.5702183"><ele>59.5</ele><time>2026-05-01T09:55:05.098Z</time></trkpt><trkpt lat="45.0646667" lon="9.57059"><ele>59.0</ele><time>2026-05-01T09:55:06.097Z</time></trkpt><trkpt lat="45.0646417" lon="9.5713117"><ele>59.0</ele><time>2026-05-01T09:55:08.098Z</time></trkpt><trkpt lat="45.0646283" lon="9.57168"><ele>59.0</ele><time>2026-05-01T09:55:09.097Z</time></trkpt><trkpt lat="45.0646183" lon="9.57206"><ele>58.5</ele><time>2026-05-01T09:55:10.098Z</time></trkpt><trkpt lat="45.0646033" lon="9.57244"><ele>58.0</ele><time>2026-05-01T09:55:11.097Z</time></trkpt><trkpt lat="45.0645917" lon="9.5728083"><ele>59.0</ele><time>2026-05-01T09:55:12.097Z</time></trkpt><trkpt lat="45.0645767" lon="9.573165"><ele>60.0</ele><time>2026-05-01T09:55:13.097Z</time></trkpt><trkpt lat="45.0645567" lon="9.5735133"><ele>60.0</ele><time>2026-05-01T09:55:14.098Z</time></trkpt><trkpt lat="45.06454" lon="9.5738667"><ele>60.0</ele><time>2026-05-01T09:55:15.097Z</time></trkpt><trkpt lat="45.0645317" lon="9.574225"><ele>59.5</ele><time>2026-05-01T09:55:16.098Z</time></trkpt><trkpt lat="45.06452" lon="9.57457"><ele>59.0</ele><time>2026-05-01T09:55:17.097Z</time></trkpt><trkpt lat="45.0645067" lon="9.5749133"><ele>59.0</ele><time>2026-05-01T09:55:18.098Z</time></trkpt><trkpt lat="45.0644933" lon="9.5752583"><ele>59.0</ele><time>2026-05-01T09:55:19.097Z</time></trkpt><trkpt lat="45.0644833" lon="9.5756017"><ele>58.5</ele><time>2026-05-01T09:55:20.098Z</time></trkpt><trkpt lat="45.0644717" lon="9.5759483"><ele>58.0</ele><time>2026-05-01T09:55:21.098Z</time></trkpt><trkpt lat="45.06446" lon="9.5763"><ele>58.0</ele><time>2026-05-01T09:55:22.098Z</time></trkpt><trkpt lat="45.06445" lon="9.5766517"><ele>58.0</ele><time>2026-05-01T09:55:23.098Z</time></trkpt><trkpt lat="45.06444" lon="9.5770083"><ele>58.0</ele><time>2026-05-01T09:55:24.098Z</time></trkpt><trkpt lat="45.0644317" lon="9.5773683"><ele>58.0</ele><time>2026-05-01T09:55:25.097Z</time></trkpt><trkpt lat="45.06442" lon="9.57773"><ele>57.0</ele><time>2026-05-01T09:55:26.098Z</time></trkpt><trkpt lat="45.0644067" lon="9.5780883"><ele>56.0</ele><time>2026-05-01T09:55:27.098Z</time></trkpt><trkpt lat="45.0643867" lon="9.5787917"><ele>56.0</ele><time>2026-05-01T09:55:29.097Z</time></trkpt><trkpt lat="45.06438" lon="9.579135"><ele>56.0</ele><time>2026-05-01T09:55:30.097Z</time></trkpt><trkpt lat="45.0643683" lon="9.5794683"><ele>55.5</ele><time>2026-05-01T09:55:31.097Z</time></trkpt><trkpt lat="45.0643617" lon="9.579805"><ele>55.0</ele><time>2026-05-01T09:55:32.098Z</time></trkpt><trkpt lat="45.0643517" lon="9.5801433"><ele>55.0</ele><time>2026-05-01T09:55:33.098Z</time></trkpt><trkpt lat="45.0643467" lon="9.5804883"><ele>55.0</ele><time>2026-05-01T09:55:34.097Z</time></trkpt><trkpt lat="45.0643383" lon="9.5808267"><ele>55.0</ele><time>2026-05-01T09:55:35.098Z</time></trkpt><trkpt lat="45.0643333" lon="9.5811633"><ele>55.0</ele><time>2026-05-01T09:55:36.098Z</time></trkpt><trkpt lat="45.0643217" lon="9.5814917"><ele>56.0</ele><time>2026-05-01T09:55:37.098Z</time></trkpt><trkpt lat="45.0643167" lon="9.5818233"><ele>57.0</ele><time>2026-05-01T09:55:38.097Z</time></trkpt><trkpt lat="45.0643" lon="9.5821617"><ele>57.0</ele><time>2026-05-01T09:55:39.098Z</time></trkpt><trkpt lat="45.06429" lon="9.5825017"><ele>57.0</ele><time>2026-05-01T09:55:40.098Z</time></trkpt><trkpt lat="45.06428" lon="9.582845"><ele>57.0</ele><time>2026-05-01T09:55:41.098Z</time></trkpt><trkpt lat="45.0642683" lon="9.583195"><ele>57.0</ele><time>2026-05-01T09:55:42.097Z</time></trkpt><trkpt lat="45.0642583" lon="9.5835467"><ele>56.0</ele><time>2026-05-01T09:55:43.097Z</time></trkpt><trkpt lat="45.064245" lon="9.583905"><ele>55.0</ele><time>2026-05-01T09:55:44.098Z</time></trkpt><trkpt lat="45.0642333" lon="9.5842633"><ele>55.5</ele><time>2026-05-01T09:55:45.098Z</time></trkpt><trkpt lat="45.0642217" lon="9.5846183"><ele>56.0</ele><time>2026-05-01T09:55:46.098Z</time></trkpt><trkpt lat="45.0642083" lon="9.5849817"><ele>56.5</ele><time>2026-05-01T09:55:47.097Z</time></trkpt><trkpt lat="45.0641983" lon="9.5853483"><ele>57.0</ele><time>2026-05-01T09:55:48.097Z</time></trkpt><trkpt lat="45.064185" lon="9.58607"><ele>56.5</ele><time>2026-05-01T09:55:50.097Z</time></trkpt><trkpt lat="45.064175" lon="9.5864283"><ele>56.0</ele><time>2026-05-01T09:55:51.098Z</time></trkpt><trkpt lat="45.0641617" lon="9.586785"><ele>56.5</ele><time>2026-05-01T09:55:52.097Z</time></trkpt><trkpt lat="45.0641517" lon="9.5871417"><ele>57.0</ele><time>2026-05-01T09:55:53.098Z</time></trkpt><trkpt lat="45.064135" lon="9.5875033"><ele>57.0</ele><time>2026-05-01T09:55:54.097Z</time></trkpt><trkpt lat="45.06412" lon="9.5878667"><ele>57.0</ele><time>2026-05-01T09:55:55.097Z</time></trkpt><trkpt lat="45.06411" lon="9.5882217"><ele>57.0</ele><time>2026-05-01T09:55:56.097Z</time></trkpt><trkpt lat="45.0641017" lon="9.5885783"><ele>57.0</ele><time>2026-05-01T09:55:57.098Z</time></trkpt><trkpt lat="45.06409" lon="9.5889367"><ele>57.0</ele><time>2026-05-01T09:55:58.098Z</time></trkpt><trkpt lat="45.0640783" lon="9.5892983"><ele>57.0</ele><time>2026-05-01T09:55:59.097Z</time></trkpt><trkpt lat="45.06407" lon="9.5896567"><ele>56.5</ele><time>2026-05-01T09:56:00.097Z</time></trkpt><trkpt lat="45.0640617" lon="9.5900083"><ele>56.0</ele><time>2026-05-01T09:56:01.097Z</time></trkpt><trkpt lat="45.0640533" lon="9.5903617"><ele>56.0</ele><time>2026-05-01T09:56:02.097Z</time></trkpt><trkpt lat="45.064045" lon="9.5907133"><ele>56.0</ele><time>2026-05-01T09:56:03.098Z</time></trkpt><trkpt lat="45.064035" lon="9.591065"><ele>55.5</ele><time>2026-05-01T09:56:04.097Z</time></trkpt><trkpt lat="45.0640233" lon="9.5914217"><ele>55.0</ele><time>2026-05-01T09:56:05.097Z</time></trkpt><trkpt lat="45.06401" lon="9.59178"><ele>54.5</ele><time>2026-05-01T09:56:06.098Z</time></trkpt><trkpt lat="45.0639967" lon="9.5921333"><ele>54.0</ele><time>2026-05-01T09:56:07.097Z</time></trkpt><trkpt lat="45.063985" lon="9.5924783"><ele>54.0</ele><time>2026-05-01T09:56:08.098Z</time></trkpt><trkpt lat="45.0639767" lon="9.5928183"><ele>54.0</ele><time>2026-05-01T09:56:09.097Z</time></trkpt><trkpt lat="45.0639583" lon="9.5934833"><ele>55.0</ele><time>2026-05-01T09:56:11.097Z</time></trkpt><trkpt lat="45.0639467" lon="9.59382"><ele>56.0</ele><time>2026-05-01T09:56:12.098Z</time></trkpt><trkpt lat="45.0639333" lon="9.5941583"><ele>56.0</ele><time>2026-05-01T09:56:13.097Z</time></trkpt><trkpt lat="45.063925" lon="9.594495"><ele>56.0</ele><time>2026-05-01T09:56:14.097Z</time></trkpt><trkpt lat="45.0639167" lon="9.5948383"><ele>56.0</ele><time>2026-05-01T09:56:15.098Z</time></trkpt><trkpt lat="45.0639" lon="9.59519"><ele>56.0</ele><time>2026-05-01T09:56:16.097Z</time></trkpt><trkpt lat="45.0638883" lon="9.5955433"><ele>56.5</ele><time>2026-05-01T09:56:17.098Z</time></trkpt><trkpt lat="45.0638767" lon="9.595895"><ele>57.0</ele><time>2026-05-01T09:56:18.097Z</time></trkpt><trkpt lat="45.0638583" lon="9.5962417"><ele>56.0</ele><time>2026-05-01T09:56:19.097Z</time></trkpt><trkpt lat="45.06385" lon="9.5965917"><ele>55.0</ele><time>2026-05-01T09:56:20.098Z</time></trkpt><trkpt lat="45.0638367" lon="9.5969383"><ele>55.5</ele><time>2026-05-01T09:56:21.097Z</time></trkpt><trkpt lat="45.0638217" lon="9.59728"><ele>56.0</ele><time>2026-05-01T09:56:22.097Z</time></trkpt><trkpt lat="45.06381" lon="9.597615"><ele>57.0</ele><time>2026-05-01T09:56:23.097Z</time></trkpt><trkpt lat="45.063795" lon="9.5979617"><ele>58.0</ele><time>2026-05-01T09:56:24.098Z</time></trkpt><trkpt lat="45.0637817" lon="9.5983067"><ele>58.0</ele><time>2026-05-01T09:56:25.098Z</time></trkpt><trkpt lat="45.06377" lon="9.5986533"><ele>58.0</ele><time>2026-05-01T09:56:26.098Z</time></trkpt><trkpt lat="45.0637583" lon="9.5990017"><ele>57.5</ele><time>2026-05-01T09:56:27.098Z</time></trkpt><trkpt lat="45.06374" lon="9.599355"><ele>57.0</ele><time>2026-05-01T09:56:28.098Z</time></trkpt><trkpt lat="45.0637183" lon="9.5997083"><ele>56.5</ele><time>2026-05-01T09:56:29.098Z</time></trkpt><trkpt lat="45.0637" lon="9.6000533"><ele>56.0</ele><time>2026-05-01T09:56:30.097Z</time></trkpt><trkpt lat="45.06367" lon="9.6007433"><ele>56.0</ele><time>2026-05-01T09:56:32.098Z</time></trkpt><trkpt lat="45.0636583" lon="9.60108"><ele>56.0</ele><time>2026-05-01T09:56:33.098Z</time></trkpt><trkpt lat="45.0636417" lon="9.6014217"><ele>55.5</ele><time>2026-05-01T09:56:34.098Z</time></trkpt><trkpt lat="45.0636233" lon="9.60176"><ele>55.0</ele><time>2026-05-01T09:56:35.097Z</time></trkpt><trkpt lat="45.0636067" lon="9.6020983"><ele>54.5</ele><time>2026-05-01T09:56:36.097Z</time></trkpt><trkpt lat="45.0635917" lon="9.6024317"><ele>54.0</ele><time>2026-05-01T09:56:37.098Z</time></trkpt><trkpt lat="45.063575" lon="9.6027683"><ele>55.0</ele><time>2026-05-01T09:56:38.097Z</time></trkpt><trkpt lat="45.0635583" lon="9.6031083"><ele>56.0</ele><time>2026-05-01T09:56:39.097Z</time></trkpt><trkpt lat="45.06355" lon="9.6034467"><ele>56.0</ele><time>2026-05-01T09:56:40.097Z</time></trkpt><trkpt lat="45.063535" lon="9.6037867"><ele>56.0</ele><time>2026-05-01T09:56:41.098Z</time></trkpt><trkpt lat="45.0635233" lon="9.6041267"><ele>56.0</ele><time>2026-05-01T09:56:42.097Z</time></trkpt><trkpt lat="45.063515" lon="9.604465"><ele>56.0</ele><time>2026-05-01T09:56:43.097Z</time></trkpt><trkpt lat="45.0635017" lon="9.6048033"><ele>55.5</ele><time>2026-05-01T09:56:44.098Z</time></trkpt><trkpt lat="45.0634883" lon="9.6051367"><ele>55.0</ele><time>2026-05-01T09:56:45.098Z</time></trkpt><trkpt lat="45.0634717" lon="9.60547"><ele>55.0</ele><time>2026-05-01T09:56:46.098Z</time></trkpt><trkpt lat="45.06345" lon="9.60581"><ele>55.0</ele><time>2026-05-01T09:56:47.097Z</time></trkpt><trkpt lat="45.0634367" lon="9.6061417"><ele>54.5</ele><time>2026-05-01T09:56:48.097Z</time></trkpt><trkpt lat="45.0634283" lon="9.6064717"><ele>54.0</ele><time>2026-05-01T09:56:49.098Z</time></trkpt><trkpt lat="45.0634133" lon="9.606805"><ele>54.0</ele><time>2026-05-01T09:56:50.098Z</time></trkpt><trkpt lat="45.063385" lon="9.6074783"><ele>54.0</ele><time>2026-05-01T09:56:52.097Z</time></trkpt><trkpt lat="45.0633667" lon="9.6078183"><ele>54.0</ele><time>2026-05-01T09:56:53.097Z</time></trkpt><trkpt lat="45.0633517" lon="9.6081583"><ele>54.5</ele><time>2026-05-01T09:56:54.097Z</time></trkpt><trkpt lat="45.0633333" lon="9.6084967"><ele>55.0</ele><time>2026-05-01T09:56:55.098Z</time></trkpt><trkpt lat="45.06332" lon="9.6088367"><ele>56.0</ele><time>2026-05-01T09:56:56.097Z</time></trkpt><trkpt lat="45.0633083" lon="9.6091767"><ele>57.0</ele><time>2026-05-01T09:56:57.097Z</time></trkpt><trkpt lat="45.06329" lon="9.60952"><ele>57.5</ele><time>2026-05-01T09:56:58.097Z</time></trkpt><trkpt lat="45.0632783" lon="9.60986"><ele>58.0</ele><time>2026-05-01T09:56:59.098Z</time></trkpt><trkpt lat="45.0632583" lon="9.6102117"><ele>57.5</ele><time>2026-05-01T09:57:00.098Z</time></trkpt><trkpt lat="45.0632383" lon="9.61057"><ele>57.0</ele><time>2026-05-01T09:57:01.097Z</time></trkpt><trkpt lat="45.06323" lon="9.6109217"><ele>56.0</ele><time>2026-05-01T09:57:02.098Z</time></trkpt><trkpt lat="45.0632167" lon="9.6112733"><ele>55.0</ele><time>2026-05-01T09:57:03.097Z</time></trkpt><trkpt lat="45.0632033" lon="9.6116367"><ele>54.5</ele><time>2026-05-01T09:57:04.097Z</time></trkpt><trkpt lat="45.0631883" lon="9.6120017"><ele>54.0</ele><time>2026-05-01T09:57:05.098Z</time></trkpt><trkpt lat="45.0631733" lon="9.612375"><ele>54.0</ele><time>2026-05-01T09:57:06.098Z</time></trkpt><trkpt lat="45.0631567" lon="9.61275"><ele>54.0</ele><time>2026-05-01T09:57:07.097Z</time></trkpt><trkpt lat="45.06314" lon="9.61312"><ele>54.0</ele><time>2026-05-01T09:57:08.097Z</time></trkpt><trkpt lat="45.0631267" lon="9.61349"><ele>54.0</ele><time>2026-05-01T09:57:09.097Z</time></trkpt><trkpt lat="45.0631083" lon="9.6138617"><ele>54.0</ele><time>2026-05-01T09:57:10.097Z</time></trkpt><trkpt lat="45.06309" lon="9.6142383"><ele>54.0</ele><time>2026-05-01T09:57:11.098Z</time></trkpt><trkpt lat="45.063055" lon="9.614955"><ele>54.0</ele><time>2026-05-01T09:57:13.097Z</time></trkpt><trkpt lat="45.0630433" lon="9.6153133"><ele>54.0</ele><time>2026-05-01T09:57:14.098Z</time></trkpt><trkpt lat="45.0630267" lon="9.6156717"><ele>53.5</ele><time>2026-05-01T09:57:15.097Z</time></trkpt><trkpt lat="45.0630083" lon="9.6160317"><ele>53.0</ele><time>2026-05-01T09:57:16.098Z</time></trkpt><trkpt lat="45.062995" lon="9.616385"><ele>54.0</ele><time>2026-05-01T09:57:17.097Z</time></trkpt><trkpt lat="45.0629783" lon="9.616735"><ele>55.0</ele><time>2026-05-01T09:57:18.097Z</time></trkpt><trkpt lat="45.0629617" lon="9.6170983"><ele>55.0</ele><time>2026-05-01T09:57:19.098Z</time></trkpt><trkpt lat="45.0629483" lon="9.617455"><ele>55.0</ele><time>2026-05-01T09:57:20.098Z</time></trkpt><trkpt lat="45.0629317" lon="9.6178117"><ele>54.5</ele><time>2026-05-01T09:57:21.097Z</time></trkpt><trkpt lat="45.0629167" lon="9.6181683"><ele>54.0</ele><time>2026-05-01T09:57:22.097Z</time></trkpt><trkpt lat="45.0628983" lon="9.6185233"><ele>54.0</ele><time>2026-05-01T09:57:23.098Z</time></trkpt><trkpt lat="45.0628817" lon="9.618875"><ele>54.0</ele><time>2026-05-01T09:57:24.097Z</time></trkpt><trkpt lat="45.062865" lon="9.6192233"><ele>53.5</ele><time>2026-05-01T09:57:25.097Z</time></trkpt><trkpt lat="45.0628483" lon="9.6195783"><ele>53.0</ele><time>2026-05-01T09:57:26.098Z</time></trkpt><trkpt lat="45.0628333" lon="9.6199283"><ele>53.0</ele><time>2026-05-01T09:57:27.097Z</time></trkpt><trkpt lat="45.0628233" lon="9.62028"><ele>53.0</ele><time>2026-05-01T09:57:28.098Z</time></trkpt><trkpt lat="45.0628067" lon="9.6206267"><ele>52.0</ele><time>2026-05-01T09:57:29.097Z</time></trkpt><trkpt lat="45.0627917" lon="9.6209733"><ele>51.0</ele><time>2026-05-01T09:57:30.097Z</time></trkpt><trkpt lat="45.062775" lon="9.6213183"><ele>51.0</ele><time>2026-05-01T09:57:31.098Z</time></trkpt><trkpt lat="45.0627583" lon="9.6216633"><ele>51.0</ele><time>2026-05-01T09:57:32.098Z</time></trkpt><trkpt lat="45.0627267" lon="9.6223617"><ele>51.0</ele><time>2026-05-01T09:57:34.097Z</time></trkpt><trkpt lat="45.0627133" lon="9.6227067"><ele>51.0</ele><time>2026-05-01T09:57:35.098Z</time></trkpt><trkpt lat="45.0626967" lon="9.623055"><ele>52.0</ele><time>2026-05-01T09:57:36.098Z</time></trkpt><trkpt lat="45.062685" lon="9.6233967"><ele>53.0</ele><time>2026-05-01T09:57:37.097Z</time></trkpt><trkpt lat="45.06267" lon="9.6237417"><ele>54.0</ele><time>2026-05-01T09:57:38.097Z</time></trkpt><trkpt lat="45.0626567" lon="9.6240833"><ele>55.0</ele><time>2026-05-01T09:57:39.097Z</time></trkpt><trkpt lat="45.0626417" lon="9.6244333"><ele>53.5</ele><time>2026-05-01T09:57:40.098Z</time></trkpt><trkpt lat="45.062625" lon="9.6247817"><ele>52.0</ele><time>2026-05-01T09:57:41.098Z</time></trkpt><trkpt lat="45.0626083" lon="9.6251267"><ele>51.5</ele><time>2026-05-01T09:57:42.098Z</time></trkpt><trkpt lat="45.0625967" lon="9.6254583"><ele>51.0</ele><time>2026-05-01T09:57:43.097Z</time></trkpt><trkpt lat="45.0625783" lon="9.6257933"><ele>51.0</ele><time>2026-05-01T09:57:44.097Z</time></trkpt><trkpt lat="45.0625617" lon="9.62613"><ele>51.0</ele><time>2026-05-01T09:57:45.097Z</time></trkpt><trkpt lat="45.0625467" lon="9.6264683"><ele>51.5</ele><time>2026-05-01T09:57:46.097Z</time></trkpt><trkpt lat="45.0625317" lon="9.6268017"><ele>52.0</ele><time>2026-05-01T09:57:47.098Z</time></trkpt><trkpt lat="45.06252" lon="9.6271433"><ele>52.5</ele><time>2026-05-01T09:57:48.097Z</time></trkpt><trkpt lat="45.0625033" lon="9.6274833"><ele>53.0</ele><time>2026-05-01T09:57:49.098Z</time></trkpt><trkpt lat="45.0624883" lon="9.627825"><ele>53.0</ele><time>2026-05-01T09:57:50.097Z</time></trkpt><trkpt lat="45.0624717" lon="9.6281583"><ele>53.0</ele><time>2026-05-01T09:57:51.097Z</time></trkpt><trkpt lat="45.0624567" lon="9.62849"><ele>53.5</ele><time>2026-05-01T09:57:52.097Z</time></trkpt><trkpt lat="45.0624433" lon="9.62883"><ele>54.0</ele><time>2026-05-01T09:57:53.097Z</time></trkpt><trkpt lat="45.0624117" lon="9.629505"><ele>54.0</ele><time>2026-05-01T09:57:55.097Z</time></trkpt><trkpt lat="45.062395" lon="9.6298367"><ele>54.0</ele><time>2026-05-01T09:57:56.097Z</time></trkpt><trkpt lat="45.06238" lon="9.63017"><ele>55.0</ele><time>2026-05-01T09:57:57.097Z</time></trkpt><trkpt lat="45.062365" lon="9.630505"><ele>56.0</ele><time>2026-05-01T09:57:58.097Z</time></trkpt><trkpt lat="45.0623517" lon="9.63084"><ele>56.0</ele><time>2026-05-01T09:57:59.097Z</time></trkpt><trkpt lat="45.0623383" lon="9.631175"><ele>56.0</ele><time>2026-05-01T09:58:00.096Z</time></trkpt><trkpt lat="45.062325" lon="9.63151"><ele>56.0</ele><time>2026-05-01T09:58:01.096Z</time></trkpt><trkpt lat="45.0623083" lon="9.6318483"><ele>56.0</ele><time>2026-05-01T09:58:02.096Z</time></trkpt><trkpt lat="45.06229" lon="9.6321917"><ele>54.5</ele><time>2026-05-01T09:58:03.096Z</time></trkpt><trkpt lat="45.0622767" lon="9.632545"><ele>53.0</ele><time>2026-05-01T09:58:04.097Z</time></trkpt><trkpt lat="45.0622617" lon="9.6328967"><ele>52.5</ele><time>2026-05-01T09:58:05.096Z</time></trkpt><trkpt lat="45.062245" lon="9.6332517"><ele>52.0</ele><time>2026-05-01T09:58:06.096Z</time></trkpt><trkpt lat="45.0622283" lon="9.6336083"><ele>52.5</ele><time>2026-05-01T09:58:07.096Z</time></trkpt><trkpt lat="45.0622133" lon="9.6339583"><ele>53.0</ele><time>2026-05-01T09:58:08.096Z</time></trkpt><trkpt lat="45.0622017" lon="9.6343117"><ele>53.0</ele><time>2026-05-01T09:58:09.096Z</time></trkpt><trkpt lat="45.0621867" lon="9.6346667"><ele>53.0</ele><time>2026-05-01T09:58:10.096Z</time></trkpt><trkpt lat="45.0621683" lon="9.6350233"><ele>53.5</ele><time>2026-05-01T09:58:11.096Z</time></trkpt><trkpt lat="45.0621533" lon="9.63538"><ele>54.0</ele><time>2026-05-01T09:58:12.097Z</time></trkpt><trkpt lat="45.0621367" lon="9.635735"><ele>54.0</ele><time>2026-05-01T09:58:13.097Z</time></trkpt><trkpt lat="45.0621217" lon="9.636085"><ele>54.0</ele><time>2026-05-01T09:58:14.096Z</time></trkpt><trkpt lat="45.0620933" lon="9.6367683"><ele>52.5</ele><time>2026-05-01T09:58:16.097Z</time></trkpt><trkpt lat="45.062075" lon="9.6371117"><ele>51.0</ele><time>2026-05-01T09:58:17.096Z</time></trkpt><trkpt lat="45.0620583" lon="9.637455"><ele>51.0</ele><time>2026-05-01T09:58:18.096Z</time></trkpt><trkpt lat="45.0620417" lon="9.6378"><ele>51.0</ele><time>2026-05-01T09:58:19.096Z</time></trkpt><trkpt lat="45.0620217" lon="9.6381433"><ele>51.0</ele><time>2026-05-01T09:58:20.097Z</time></trkpt><trkpt lat="45.0620067" lon="9.638485"><ele>51.0</ele><time>2026-05-01T09:58:21.096Z</time></trkpt><trkpt lat="45.0619933" lon="9.6388283"><ele>51.0</ele><time>2026-05-01T09:58:22.096Z</time></trkpt><trkpt lat="45.0619767" lon="9.6391717"><ele>51.0</ele><time>2026-05-01T09:58:23.096Z</time></trkpt><trkpt lat="45.061965" lon="9.639515"><ele>51.0</ele><time>2026-05-01T09:58:24.096Z</time></trkpt><trkpt lat="45.06195" lon="9.6398567"><ele>51.0</ele><time>2026-05-01T09:58:25.097Z</time></trkpt><trkpt lat="45.06193" lon="9.6401983"><ele>49.5</ele><time>2026-05-01T09:58:26.097Z</time></trkpt><trkpt lat="45.0619117" lon="9.6405367"><ele>48.0</ele><time>2026-05-01T09:58:27.096Z</time></trkpt><trkpt lat="45.0618983" lon="9.640875"><ele>47.5</ele><time>2026-05-01T09:58:28.097Z</time></trkpt><trkpt lat="45.0618867" lon="9.6412133"><ele>47.0</ele><time>2026-05-01T09:58:29.097Z</time></trkpt><trkpt lat="45.06187" lon="9.6415533"><ele>47.0</ele><time>2026-05-01T09:58:30.097Z</time></trkpt><trkpt lat="45.0618567" lon="9.6418883"><ele>47.0</ele><time>2026-05-01T09:58:31.096Z</time></trkpt><trkpt lat="45.06184" lon="9.6422283"><ele>46.5</ele><time>2026-05-01T09:58:32.097Z</time></trkpt><trkpt lat="45.0618267" lon="9.6425683"><ele>46.0</ele><time>2026-05-01T09:58:33.097Z</time></trkpt><trkpt lat="45.0618117" lon="9.6429083"><ele>47.5</ele><time>2026-05-01T09:58:34.096Z</time></trkpt><trkpt lat="45.061795" lon="9.64325"><ele>49.0</ele><time>2026-05-01T09:58:35.097Z</time></trkpt><trkpt lat="45.0617683" lon="9.6439383"><ele>51.0</ele><time>2026-05-01T09:58:37.096Z</time></trkpt><trkpt lat="45.0617517" lon="9.6442783"><ele>53.0</ele><time>2026-05-01T09:58:38.096Z</time></trkpt><trkpt lat="45.061735" lon="9.6446217"><ele>53.0</ele><time>2026-05-01T09:58:39.096Z</time></trkpt><trkpt lat="45.06172" lon="9.6449683"><ele>53.0</ele><time>2026-05-01T09:58:40.097Z</time></trkpt><trkpt lat="45.061705" lon="9.6453217"><ele>53.0</ele><time>2026-05-01T09:58:41.097Z</time></trkpt><trkpt lat="45.0616917" lon="9.6456683"><ele>53.0</ele><time>2026-05-01T09:58:42.097Z</time></trkpt><trkpt lat="45.061675" lon="9.6460133"><ele>52.5</ele><time>2026-05-01T09:58:43.096Z</time></trkpt><trkpt lat="45.0616667" lon="9.6463533"><ele>52.0</ele><time>2026-05-01T09:58:44.097Z</time></trkpt><trkpt lat="45.0616483" lon="9.6466967"><ele>52.5</ele><time>2026-05-01T09:58:45.097Z</time></trkpt><trkpt lat="45.0616317" lon="9.6470417"><ele>53.0</ele><time>2026-05-01T09:58:46.097Z</time></trkpt><trkpt lat="45.0616167" lon="9.6473867"><ele>53.0</ele><time>2026-05-01T09:58:47.097Z</time></trkpt><trkpt lat="45.0616017" lon="9.6477283"><ele>53.0</ele><time>2026-05-01T09:58:48.096Z</time></trkpt><trkpt lat="45.06158" lon="9.6480783"><ele>52.5</ele><time>2026-05-01T09:58:49.096Z</time></trkpt><trkpt lat="45.061565" lon="9.6484233"><ele>52.0</ele><time>2026-05-01T09:58:50.097Z</time></trkpt><trkpt lat="45.0615483" lon="9.648765"><ele>53.0</ele><time>2026-05-01T09:58:51.097Z</time></trkpt><trkpt lat="45.0615333" lon="9.649105"><ele>54.0</ele><time>2026-05-01T09:58:52.097Z</time></trkpt><trkpt lat="45.06152" lon="9.6494467"><ele>54.5</ele><time>2026-05-01T09:58:53.096Z</time></trkpt><trkpt lat="45.0615067" lon="9.649785"><ele>55.0</ele><time>2026-05-01T09:58:54.096Z</time></trkpt><trkpt lat="45.061485" lon="9.6501333"><ele>55.0</ele><time>2026-05-01T09:58:55.096Z</time></trkpt><trkpt lat="45.0614817" lon="9.6504817"><ele>55.0</ele><time>2026-05-01T09:58:56.097Z</time></trkpt><trkpt lat="45.0614483" lon="9.6511767"><ele>55.0</ele><time>2026-05-01T09:58:58.097Z</time></trkpt><trkpt lat="45.0614283" lon="9.6515267"><ele>55.0</ele><time>2026-05-01T09:58:59.096Z</time></trkpt><trkpt lat="45.0614117" lon="9.65188"><ele>55.5</ele><time>2026-05-01T09:59:00.096Z</time></trkpt><trkpt lat="45.0613967" lon="9.6522333"><ele>56.0</ele><time>2026-05-01T09:59:01.096Z</time></trkpt><trkpt lat="45.06138" lon="9.652585"><ele>55.5</ele><time>2026-05-01T09:59:02.096Z</time></trkpt><trkpt lat="45.061365" lon="9.6529383"><ele>55.0</ele><time>2026-05-01T09:59:03.097Z</time></trkpt><trkpt lat="45.06135" lon="9.6532917"><ele>55.0</ele><time>2026-05-01T09:59:04.097Z</time></trkpt><trkpt lat="45.061335" lon="9.6536367"><ele>55.0</ele><time>2026-05-01T09:59:05.096Z</time></trkpt><trkpt lat="45.0613233" lon="9.6539817"><ele>55.0</ele><time>2026-05-01T09:59:06.097Z</time></trkpt><trkpt lat="45.0613067" lon="9.6543267"><ele>55.0</ele><time>2026-05-01T09:59:07.097Z</time></trkpt><trkpt lat="45.0612917" lon="9.654665"><ele>55.0</ele><time>2026-05-01T09:59:08.096Z</time></trkpt><trkpt lat="45.0612767" lon="9.6550033"><ele>55.0</ele><time>2026-05-01T09:59:09.097Z</time></trkpt><trkpt lat="45.0612617" lon="9.6553467"><ele>55.0</ele><time>2026-05-01T09:59:10.097Z</time></trkpt><trkpt lat="45.0612483" lon="9.6556883"><ele>55.0</ele><time>2026-05-01T09:59:11.097Z</time></trkpt><trkpt lat="45.0612367" lon="9.656025"><ele>53.5</ele><time>2026-05-01T09:59:12.096Z</time></trkpt><trkpt lat="45.0612233" lon="9.6563683"><ele>52.0</ele><time>2026-05-01T09:59:13.096Z</time></trkpt><trkpt lat="45.06121" lon="9.6567083"><ele>52.5</ele><time>2026-05-01T09:59:14.096Z</time></trkpt><trkpt lat="45.0611933" lon="9.65705"><ele>53.0</ele><time>2026-05-01T09:59:15.097Z</time></trkpt><trkpt lat="45.061175" lon="9.6573917"><ele>53.0</ele><time>2026-05-01T09:59:16.097Z</time></trkpt><trkpt lat="45.061155" lon="9.6577333"><ele>53.0</ele><time>2026-05-01T09:59:17.097Z</time></trkpt><trkpt lat="45.0611267" lon="9.658415"><ele>55.0</ele><time>2026-05-01T09:59:19.097Z</time></trkpt><trkpt lat="45.0611117" lon="9.6587533"><ele>57.0</ele><time>2026-05-01T09:59:20.096Z</time></trkpt><trkpt lat="45.0610967" lon="9.6590917"><ele>57.0</ele><time>2026-05-01T09:59:21.096Z</time></trkpt><trkpt lat="45.0610817" lon="9.6594383"><ele>57.0</ele><time>2026-05-01T09:59:22.097Z</time></trkpt><trkpt lat="45.061075" lon="9.6597783"><ele>57.0</ele><time>2026-05-01T09:59:23.096Z</time></trkpt><trkpt lat="45.0610733" lon="9.6601117"><ele>57.0</ele><time>2026-05-01T09:59:24.097Z</time></trkpt><trkpt lat="45.0610683" lon="9.66045"><ele>57.0</ele><time>2026-05-01T09:59:25.096Z</time></trkpt><trkpt lat="45.0610617" lon="9.660795"><ele>57.0</ele><time>2026-05-01T09:59:26.097Z</time></trkpt><trkpt lat="45.0610567" lon="9.6611417"><ele>56.5</ele><time>2026-05-01T09:59:27.096Z</time></trkpt><trkpt lat="45.061055" lon="9.6614967"><ele>56.0</ele><time>2026-05-01T09:59:28.097Z</time></trkpt><trkpt lat="45.0610533" lon="9.6618517"><ele>56.5</ele><time>2026-05-01T09:59:29.097Z</time></trkpt><trkpt lat="45.061055" lon="9.6622083"><ele>57.0</ele><time>2026-05-01T09:59:30.096Z</time></trkpt><trkpt lat="45.0610617" lon="9.66257"><ele>56.0</ele><time>2026-05-01T09:59:31.096Z</time></trkpt><trkpt lat="45.0610583" lon="9.6629383"><ele>55.0</ele><time>2026-05-01T09:59:32.097Z</time></trkpt><trkpt lat="45.06106" lon="9.6633067"><ele>56.0</ele><time>2026-05-01T09:59:33.096Z</time></trkpt><trkpt lat="45.0610667" lon="9.6636733"><ele>57.0</ele><time>2026-05-01T09:59:34.097Z</time></trkpt><trkpt lat="45.0610767" lon="9.6640367"><ele>57.0</ele><time>2026-05-01T09:59:35.097Z</time></trkpt><trkpt lat="45.0610833" lon="9.66441"><ele>57.0</ele><time>2026-05-01T09:59:36.096Z</time></trkpt><trkpt lat="45.0610933" lon="9.6647783"><ele>55.0</ele><time>2026-05-01T09:59:37.097Z</time></trkpt><trkpt lat="45.0611017" lon="9.6651467"><ele>53.0</ele><time>2026-05-01T09:59:38.096Z</time></trkpt><trkpt lat="45.061135" lon="9.665875"><ele>52.5</ele><time>2026-05-01T09:59:40.096Z</time></trkpt><trkpt lat="45.061155" lon="9.6662333"><ele>52.0</ele><time>2026-05-01T09:59:41.096Z</time></trkpt><trkpt lat="45.0611783" lon="9.6665933"><ele>52.0</ele><time>2026-05-01T09:59:42.096Z</time></trkpt><trkpt lat="45.0611983" lon="9.6669483"><ele>52.0</ele><time>2026-05-01T09:59:43.096Z</time></trkpt><trkpt lat="45.061215" lon="9.6673033"><ele>52.0</ele><time>2026-05-01T09:59:44.096Z</time></trkpt><trkpt lat="45.061235" lon="9.6676533"><ele>52.0</ele><time>2026-05-01T09:59:45.096Z</time></trkpt><trkpt lat="45.0612617" lon="9.6680017"><ele>52.0</ele><time>2026-05-01T09:59:46.097Z</time></trkpt><trkpt lat="45.0612867" lon="9.66834"><ele>52.0</ele><time>2026-05-01T09:59:47.097Z</time></trkpt><trkpt lat="45.06131" lon="9.6686817"><ele>52.0</ele><time>2026-05-01T09:59:48.096Z</time></trkpt><trkpt lat="45.0613283" lon="9.6690183"><ele>52.0</ele><time>2026-05-01T09:59:49.096Z</time></trkpt><trkpt lat="45.0613483" lon="9.6693533"><ele>52.5</ele><time>2026-05-01T09:59:50.096Z</time></trkpt><trkpt lat="45.0613683" lon="9.6696883"><ele>53.0</ele><time>2026-05-01T09:59:51.097Z</time></trkpt><trkpt lat="45.0613933" lon="9.67002"><ele>52.0</ele><time>2026-05-01T09:59:52.097Z</time></trkpt><trkpt lat="45.0614133" lon="9.6703533"><ele>51.0</ele><time>2026-05-01T09:59:53.097Z</time></trkpt><trkpt lat="45.0614333" lon="9.6706833"><ele>51.0</ele><time>2026-05-01T09:59:54.096Z</time></trkpt><trkpt lat="45.0614517" lon="9.6710133"><ele>51.0</ele><time>2026-05-01T09:59:55.096Z</time></trkpt><trkpt lat="45.0614717" lon="9.6713483"><ele>50.5</ele><time>2026-05-01T09:59:56.096Z</time></trkpt><trkpt lat="45.0614967" lon="9.6716817"><ele>50.0</ele><time>2026-05-01T09:59:57.097Z</time></trkpt><trkpt lat="45.061515" lon="9.672025"><ele>49.5</ele><time>2026-05-01T09:59:58.097Z</time></trkpt><trkpt lat="45.0615333" lon="9.6723717"><ele>49.0</ele><time>2026-05-01T09:59:59.097Z</time></trkpt><trkpt lat="45.061575" lon="9.6730633"><ele>49.0</ele><time>2026-05-01T10:00:01.096Z</time></trkpt><trkpt lat="45.0615983" lon="9.6734083"><ele>49.0</ele><time>2026-05-01T10:00:02.096Z</time></trkpt><trkpt lat="45.0616167" lon="9.6737583"><ele>49.0</ele><time>2026-05-01T10:00:03.096Z</time></trkpt><trkpt lat="45.0616317" lon="9.67411"><ele>49.0</ele><time>2026-05-01T10:00:04.096Z</time></trkpt><trkpt lat="45.061645" lon="9.67447"><ele>49.0</ele><time>2026-05-01T10:00:05.097Z</time></trkpt><trkpt lat="45.061655" lon="9.6748317"><ele>49.0</ele><time>2026-05-01T10:00:06.096Z</time></trkpt><trkpt lat="45.0616667" lon="9.67519"><ele>50.5</ele><time>2026-05-01T10:00:07.096Z</time></trkpt><trkpt lat="45.0616783" lon="9.67555"><ele>52.0</ele><time>2026-05-01T10:00:08.097Z</time></trkpt><trkpt lat="45.0616867" lon="9.6759033"><ele>51.5</ele><time>2026-05-01T10:00:09.097Z</time></trkpt><trkpt lat="45.061695" lon="9.67627"><ele>51.0</ele><time>2026-05-01T10:00:10.096Z</time></trkpt><trkpt lat="45.0616967" lon="9.676635"><ele>50.0</ele><time>2026-05-01T10:00:11.096Z</time></trkpt><trkpt lat="45.0617033" lon="9.6770017"><ele>49.0</ele><time>2026-05-01T10:00:12.096Z</time></trkpt><trkpt lat="45.06171" lon="9.6773633"><ele>49.0</ele><time>2026-05-01T10:00:13.096Z</time></trkpt><trkpt lat="45.0617083" lon="9.67773"><ele>49.0</ele><time>2026-05-01T10:00:14.097Z</time></trkpt><trkpt lat="45.06171" lon="9.6781"><ele>50.0</ele><time>2026-05-01T10:00:15.097Z</time></trkpt><trkpt lat="45.06171" lon="9.6784683"><ele>51.0</ele><time>2026-05-01T10:00:16.097Z</time></trkpt><trkpt lat="45.0617067" lon="9.6788367"><ele>51.0</ele><time>2026-05-01T10:00:17.096Z</time></trkpt><trkpt lat="45.0617017" lon="9.6792067"><ele>51.0</ele><time>2026-05-01T10:00:18.096Z</time></trkpt><trkpt lat="45.0616967" lon="9.6795733"><ele>49.5</ele><time>2026-05-01T10:00:19.096Z</time></trkpt><trkpt lat="45.0616917" lon="9.6799467"><ele>48.0</ele><time>2026-05-01T10:00:20.097Z</time></trkpt><trkpt lat="45.0616783" lon="9.680685"><ele>47.0</ele><time>2026-05-01T10:00:22.096Z</time></trkpt><trkpt lat="45.061665" lon="9.6810567"><ele>46.0</ele><time>2026-05-01T10:00:23.096Z</time></trkpt><trkpt lat="45.0616467" lon="9.6814333"><ele>45.5</ele><time>2026-05-01T10:00:24.096Z</time></trkpt><trkpt lat="45.0616283" lon="9.6818133"><ele>45.0</ele><time>2026-05-01T10:00:25.097Z</time></trkpt><trkpt lat="45.061605" lon="9.6821983"><ele>46.0</ele><time>2026-05-01T10:00:26.097Z</time></trkpt><trkpt lat="45.0615883" lon="9.6825783"><ele>47.0</ele><time>2026-05-01T10:00:27.096Z</time></trkpt><trkpt lat="45.06157" lon="9.682955"><ele>48.0</ele><time>2026-05-01T10:00:28.096Z</time></trkpt><trkpt lat="45.0615517" lon="9.6833183"><ele>49.0</ele><time>2026-05-01T10:00:29.096Z</time></trkpt><trkpt lat="45.0615333" lon="9.683675"><ele>50.0</ele><time>2026-05-01T10:00:30.097Z</time></trkpt><trkpt lat="45.0615133" lon="9.6840367"><ele>51.0</ele><time>2026-05-01T10:00:31.096Z</time></trkpt><trkpt lat="45.061495" lon="9.6844017"><ele>49.0</ele><time>2026-05-01T10:00:32.097Z</time></trkpt><trkpt lat="45.061475" lon="9.6847617"><ele>47.0</ele><time>2026-05-01T10:00:33.096Z</time></trkpt><trkpt lat="45.0614567" lon="9.68513"><ele>47.5</ele><time>2026-05-01T10:00:34.097Z</time></trkpt><trkpt lat="45.0614367" lon="9.6854983"><ele>48.0</ele><time>2026-05-01T10:00:35.096Z</time></trkpt><trkpt lat="45.0614133" lon="9.685865"><ele>47.5</ele><time>2026-05-01T10:00:36.096Z</time></trkpt><trkpt lat="45.061395" lon="9.6862267"><ele>47.0</ele><time>2026-05-01T10:00:37.097Z</time></trkpt><trkpt lat="45.0613767" lon="9.6865883"><ele>47.0</ele><time>2026-05-01T10:00:38.096Z</time></trkpt><trkpt lat="45.06136" lon="9.68694"><ele>47.0</ele><time>2026-05-01T10:00:39.096Z</time></trkpt><trkpt lat="45.0613433" lon="9.6873017"><ele>47.0</ele><time>2026-05-01T10:00:40.096Z</time></trkpt><trkpt lat="45.0613283" lon="9.6876617"><ele>47.0</ele><time>2026-05-01T10:00:41.096Z</time></trkpt><trkpt lat="45.0612883" lon="9.68839"><ele>47.0</ele><time>2026-05-01T10:00:43.096Z</time></trkpt><trkpt lat="45.06127" lon="9.688755"><ele>47.0</ele><time>2026-05-01T10:00:44.096Z</time></trkpt><trkpt lat="45.0612483" lon="9.6891233"><ele>47.0</ele><time>2026-05-01T10:00:45.096Z</time></trkpt><trkpt lat="45.06123" lon="9.68948"><ele>47.0</ele><time>2026-05-01T10:00:46.097Z</time></trkpt><trkpt lat="45.0612083" lon="9.689835"><ele>47.0</ele><time>2026-05-01T10:00:47.096Z</time></trkpt><trkpt lat="45.061185" lon="9.6901817"><ele>47.0</ele><time>2026-05-01T10:00:48.096Z</time></trkpt><trkpt lat="45.06117" lon="9.6905283"><ele>47.0</ele><time>2026-05-01T10:00:49.096Z</time></trkpt><trkpt lat="45.0611567" lon="9.6908783"><ele>47.0</ele><time>2026-05-01T10:00:50.097Z</time></trkpt><trkpt lat="45.0611417" lon="9.6912233"><ele>48.0</ele><time>2026-05-01T10:00:51.097Z</time></trkpt><trkpt lat="45.0611217" lon="9.6915767"><ele>49.0</ele><time>2026-05-01T10:00:52.097Z</time></trkpt><trkpt lat="45.061105" lon="9.6919283"><ele>49.0</ele><time>2026-05-01T10:00:53.097Z</time></trkpt><trkpt lat="45.06108" lon="9.692275"><ele>49.0</ele><time>2026-05-01T10:00:54.096Z</time></trkpt><trkpt lat="45.0610617" lon="9.6926333"><ele>49.5</ele><time>2026-05-01T10:00:55.096Z</time></trkpt><trkpt lat="45.0610417" lon="9.6929933"><ele>50.0</ele><time>2026-05-01T10:00:56.096Z</time></trkpt><trkpt lat="45.06102" lon="9.6933533"><ele>50.5</ele><time>2026-05-01T10:00:57.096Z</time></trkpt><trkpt lat="45.0609967" lon="9.6937117"><ele>51.0</ele><time>2026-05-01T10:00:58.097Z</time></trkpt><trkpt lat="45.0609733" lon="9.6940717"><ele>51.0</ele><time>2026-05-01T10:00:59.096Z</time></trkpt><trkpt lat="45.06094" lon="9.6944283"><ele>51.0</ele><time>2026-05-01T10:01:00.096Z</time></trkpt><trkpt lat="45.060905" lon="9.69478"><ele>51.0</ele><time>2026-05-01T10:01:01.097Z</time></trkpt><trkpt lat="45.0608683" lon="9.6951283"><ele>51.0</ele><time>2026-05-01T10:01:02.096Z</time></trkpt><trkpt lat="45.060775" lon="9.6958133"><ele>50.0</ele><time>2026-05-01T10:01:04.097Z</time></trkpt><trkpt lat="45.06072" lon="9.6961517"><ele>49.0</ele><time>2026-05-01T10:01:05.096Z</time></trkpt><trkpt lat="45.0606583" lon="9.6964833"><ele>49.0</ele><time>2026-05-01T10:01:06.096Z</time></trkpt><trkpt lat="45.0605883" lon="9.69681"><ele>49.0</ele><time>2026-05-01T10:01:07.096Z</time></trkpt><trkpt lat="45.06052" lon="9.6971333"><ele>48.5</ele><time>2026-05-01T10:01:08.096Z</time></trkpt><trkpt lat="45.0604367" lon="9.6974517"><ele>48.0</ele><time>2026-05-01T10:01:09.096Z</time></trkpt><trkpt lat="45.0603533" lon="9.69777"><ele>49.5</ele><time>2026-05-01T10:01:10.097Z</time></trkpt><trkpt lat="45.060265" lon="9.698085"><ele>51.0</ele><time>2026-05-01T10:01:11.096Z</time></trkpt><trkpt lat="45.0601783" lon="9.6983967"><ele>50.5</ele><time>2026-05-01T10:01:12.096Z</time></trkpt><trkpt lat="45.0600783" lon="9.69871"><ele>50.0</ele><time>2026-05-01T10:01:13.096Z</time></trkpt><trkpt lat="45.05998" lon="9.6990233"><ele>49.5</ele><time>2026-05-01T10:01:14.096Z</time></trkpt><trkpt lat="45.0598833" lon="9.6993283"><ele>49.0</ele><time>2026-05-01T10:01:15.097Z</time></trkpt><trkpt lat="45.0597833" lon="9.69962"><ele>49.0</ele><time>2026-05-01T10:01:16.096Z</time></trkpt><trkpt lat="45.0596717" lon="9.6999033"><ele>49.0</ele><time>2026-05-01T10:01:17.096Z</time></trkpt><trkpt lat="45.05956" lon="9.700175"><ele>50.0</ele><time>2026-05-01T10:01:18.097Z</time></trkpt><trkpt lat="45.0594367" lon="9.7004467"><ele>51.0</ele><time>2026-05-01T10:01:19.096Z</time></trkpt><trkpt lat="45.0593133" lon="9.70071"><ele>51.0</ele><time>2026-05-01T10:01:20.097Z</time></trkpt><trkpt lat="45.059185" lon="9.700985"><ele>51.0</ele><time>2026-05-01T10:01:21.096Z</time></trkpt><trkpt lat="45.0590617" lon="9.701255"><ele>51.0</ele><time>2026-05-01T10:01:22.097Z</time></trkpt><trkpt lat="45.058925" lon="9.7015183"><ele>51.0</ele><time>2026-05-01T10:01:23.097Z</time></trkpt><trkpt lat="45.0586567" lon="9.7020367"><ele>51.33333333333333</ele><time>2026-05-01T10:01:25.097Z</time></trkpt><trkpt lat="45.058525" lon="9.7022817"><ele>51.666666666666664</ele><time>2026-05-01T10:01:26.097Z</time></trkpt><trkpt lat="45.0583933" lon="9.7025217"><ele>52.0</ele><time>2026-05-01T10:01:27.096Z</time></trkpt><trkpt lat="45.058265" lon="9.7027683"><ele>52.33333333333333</ele><time>2026-05-01T10:01:28.097Z</time></trkpt><trkpt lat="45.0581417" lon="9.7030117"><ele>52.66666666666667</ele><time>2026-05-01T10:01:29.096Z</time></trkpt><trkpt lat="45.058015" lon="9.703265"><ele>53.0</ele><time>2026-05-01T10:01:30.096Z</time></trkpt><trkpt lat="45.0578817" lon="9.7035117"><ele>53.333333333333336</ele><time>2026-05-01T10:01:31.096Z</time></trkpt><trkpt lat="45.0577533" lon="9.7037533"><ele>53.66666666666667</ele><time>2026-05-01T10:01:32.097Z</time></trkpt><trkpt lat="45.0576183" lon="9.7039967"><ele>54.0</ele><time>2026-05-01T10:01:33.096Z</time></trkpt><trkpt lat="45.0574733" lon="9.7042333"><ele>53.33333333333333</ele><time>2026-05-01T10:01:34.096Z</time></trkpt><trkpt lat="45.0573217" lon="9.7044617"><ele>52.666666666666664</ele><time>2026-05-01T10:01:35.096Z</time></trkpt><trkpt lat="45.0571583" lon="9.7046833"><ele>52.0</ele><time>2026-05-01T10:01:36.097Z</time></trkpt><trkpt lat="45.0569933" lon="9.7049017"><ele>52.0</ele><time>2026-05-01T10:01:37.096Z</time></trkpt><trkpt lat="45.05681" lon="9.7051083"><ele>52.0</ele><time>2026-05-01T10:01:38.097Z</time></trkpt><trkpt lat="45.05662" lon="9.705305"><ele>52.5</ele><time>2026-05-01T10:01:39.096Z</time></trkpt><trkpt lat="45.0564217" lon="9.7055033"><ele>53.0</ele><time>2026-05-01T10:01:40.096Z</time></trkpt><trkpt lat="45.056215" lon="9.7056883"><ele>53.0</ele><time>2026-05-01T10:01:41.096Z</time></trkpt><trkpt lat="45.0560067" lon="9.70586"><ele>53.0</ele><time>2026-05-01T10:01:42.096Z</time></trkpt><trkpt lat="45.0557883" lon="9.70603"><ele>56.0</ele><time>2026-05-01T10:01:43.096Z</time></trkpt><trkpt lat="45.05557" lon="9.70619"><ele>59.0</ele><time>2026-05-01T10:01:44.097Z</time></trkpt><trkpt lat="45.0551317" lon="9.706485"><ele>55.5</ele><time>2026-05-01T10:01:46.096Z</time></trkpt><trkpt lat="45.0549033" lon="9.7066417"><ele>52.0</ele><time>2026-05-01T10:01:47.097Z</time></trkpt><trkpt lat="45.0546683" lon="9.7068167"><ele>53.0</ele><time>2026-05-01T10:01:48.096Z</time></trkpt><trkpt lat="45.054435" lon="9.707"><ele>54.0</ele><time>2026-05-01T10:01:49.096Z</time></trkpt><trkpt lat="45.0542117" lon="9.7072"><ele>53.5</ele><time>2026-05-01T10:01:50.097Z</time></trkpt><trkpt lat="45.0540117" lon="9.707415"><ele>53.0</ele><time>2026-05-01T10:01:51.097Z</time></trkpt><trkpt lat="45.0538283" lon="9.7076383"><ele>53.5</ele><time>2026-05-01T10:01:52.097Z</time></trkpt><trkpt lat="45.0536667" lon="9.7078817"><ele>54.0</ele><time>2026-05-01T10:01:53.096Z</time></trkpt><trkpt lat="45.05351" lon="9.7081483"><ele>54.0</ele><time>2026-05-01T10:01:54.096Z</time></trkpt><trkpt lat="45.0533683" lon="9.7084317"><ele>54.0</ele><time>2026-05-01T10:01:55.096Z</time></trkpt><trkpt lat="45.0532417" lon="9.7087167"><ele>53.5</ele><time>2026-05-01T10:01:56.097Z</time></trkpt><trkpt lat="45.053135" lon="9.709"><ele>53.0</ele><time>2026-05-01T10:01:57.097Z</time></trkpt><trkpt lat="45.0530367" lon="9.7092967"><ele>52.5</ele><time>2026-05-01T10:01:58.096Z</time></trkpt><trkpt lat="45.0529533" lon="9.7096017"><ele>52.0</ele><time>2026-05-01T10:01:59.096Z</time></trkpt><trkpt lat="45.0528817" lon="9.7099233"><ele>52.5</ele><time>2026-05-01T10:02:00.096Z</time></trkpt><trkpt lat="45.052825" lon="9.7102567"><ele>53.0</ele><time>2026-05-01T10:02:01.096Z</time></trkpt><trkpt lat="45.05279" lon="9.7106"><ele>53.0</ele><time>2026-05-01T10:02:02.097Z</time></trkpt><trkpt lat="45.0527617" lon="9.7109383"><ele>53.0</ele><time>2026-05-01T10:02:03.097Z</time></trkpt><trkpt lat="45.0527567" lon="9.7112817"><ele>52.5</ele><time>2026-05-01T10:02:04.096Z</time></trkpt><trkpt lat="45.0527633" lon="9.7116217"><ele>52.0</ele><time>2026-05-01T10:02:05.096Z</time></trkpt><trkpt lat="45.0528283" lon="9.712295"><ele>52.0</ele><time>2026-05-01T10:02:07.096Z</time></trkpt><trkpt lat="45.052885" lon="9.7126233"><ele>52.0</ele><time>2026-05-01T10:02:08.097Z</time></trkpt><trkpt lat="45.0529617" lon="9.712945"><ele>52.0</ele><time>2026-05-01T10:02:09.097Z</time></trkpt><trkpt lat="45.05305" lon="9.7132583"><ele>52.0</ele><time>2026-05-01T10:02:10.097Z</time></trkpt><trkpt lat="45.0531517" lon="9.7135667"><ele>52.0</ele><time>2026-05-01T10:02:11.096Z</time></trkpt><trkpt lat="45.0532733" lon="9.7138733"><ele>52.0</ele><time>2026-05-01T10:02:12.096Z</time></trkpt><trkpt lat="45.0533983" lon="9.7141783"><ele>51.5</ele><time>2026-05-01T10:02:13.096Z</time></trkpt><trkpt lat="45.0535417" lon="9.7144767"><ele>51.0</ele><time>2026-05-01T10:02:14.096Z</time></trkpt><trkpt lat="45.0536883" lon="9.7147833"><ele>51.0</ele><time>2026-05-01T10:02:15.096Z</time></trkpt><trkpt lat="45.053835" lon="9.715095"><ele>51.0</ele><time>2026-05-01T10:02:16.096Z</time></trkpt><trkpt lat="45.053985" lon="9.7153967"><ele>50.5</ele><time>2026-05-01T10:02:17.097Z</time></trkpt><trkpt lat="45.0541283" lon="9.7156917"><ele>50.0</ele><time>2026-05-01T10:02:18.096Z</time></trkpt><trkpt lat="45.05427" lon="9.71598"><ele>49.5</ele><time>2026-05-01T10:02:19.097Z</time></trkpt><trkpt lat="45.0544033" lon="9.7162833"><ele>49.0</ele><time>2026-05-01T10:02:20.097Z</time></trkpt><trkpt lat="45.054535" lon="9.7165833"><ele>49.0</ele><time>2026-05-01T10:02:21.097Z</time></trkpt><trkpt lat="45.0546533" lon="9.7168833"><ele>49.0</ele><time>2026-05-01T10:02:22.097Z</time></trkpt><trkpt lat="45.0547583" lon="9.7171867"><ele>48.5</ele><time>2026-05-01T10:02:23.096Z</time></trkpt><trkpt lat="45.054855" lon="9.7175067"><ele>48.0</ele><time>2026-05-01T10:02:24.097Z</time></trkpt><trkpt lat="45.0549367" lon="9.7178383"><ele>48.5</ele><time>2026-05-01T10:02:25.097Z</time></trkpt><trkpt lat="45.05501" lon="9.7181817"><ele>49.0</ele><time>2026-05-01T10:02:26.096Z</time></trkpt><trkpt lat="45.05512" lon="9.7189"><ele>49.0</ele><time>2026-05-01T10:02:28.096Z</time></trkpt><trkpt lat="45.05515" lon="9.7192583"><ele>49.0</ele><time>2026-05-01T10:02:29.097Z</time></trkpt><trkpt lat="45.0551617" lon="9.719615"><ele>48.0</ele><time>2026-05-01T10:02:30.096Z</time></trkpt><trkpt lat="45.0551617" lon="9.7199583"><ele>47.0</ele><time>2026-05-01T10:02:31.097Z</time></trkpt><trkpt lat="45.05515" lon="9.7203"><ele>47.0</ele><time>2026-05-01T10:02:32.096Z</time></trkpt><trkpt lat="45.0551267" lon="9.7206483"><ele>47.0</ele><time>2026-05-01T10:02:33.096Z</time></trkpt><trkpt lat="45.0550917" lon="9.721005"><ele>46.0</ele><time>2026-05-01T10:02:34.096Z</time></trkpt><trkpt lat="45.0550467" lon="9.7213633"><ele>45.0</ele><time>2026-05-01T10:02:35.097Z</time></trkpt><trkpt lat="45.0549967" lon="9.72172"><ele>46.0</ele><time>2026-05-01T10:02:36.096Z</time></trkpt><trkpt lat="45.0549483" lon="9.7220667"><ele>47.0</ele><time>2026-05-01T10:02:37.097Z</time></trkpt><trkpt lat="45.0549017" lon="9.7223983"><ele>47.0</ele><time>2026-05-01T10:02:38.097Z</time></trkpt><trkpt lat="45.0548567" lon="9.7227283"><ele>47.0</ele><time>2026-05-01T10:02:39.096Z</time></trkpt><trkpt lat="45.0548133" lon="9.72306"><ele>48.0</ele><time>2026-05-01T10:02:40.096Z</time></trkpt><trkpt lat="45.0547667" lon="9.7234"><ele>49.0</ele><time>2026-05-01T10:02:41.097Z</time></trkpt><trkpt lat="45.0547217" lon="9.7237333"><ele>49.5</ele><time>2026-05-01T10:02:42.096Z</time></trkpt><trkpt lat="45.054675" lon="9.7240733"><ele>50.0</ele><time>2026-05-01T10:02:43.097Z</time></trkpt><trkpt lat="45.0546283" lon="9.724405"><ele>50.0</ele><time>2026-05-01T10:02:44.096Z</time></trkpt><trkpt lat="45.054585" lon="9.7247367"><ele>50.0</ele><time>2026-05-01T10:02:45.096Z</time></trkpt><trkpt lat="45.0545417" lon="9.7250733"><ele>49.5</ele><time>2026-05-01T10:02:46.096Z</time></trkpt><trkpt lat="45.0544967" lon="9.7254167"><ele>49.0</ele><time>2026-05-01T10:02:47.097Z</time></trkpt><trkpt lat="45.0544067" lon="9.7261167"><ele>48.0</ele><time>2026-05-01T10:02:49.096Z</time></trkpt><trkpt lat="45.0543617" lon="9.7264733"><ele>47.0</ele><time>2026-05-01T10:02:50.096Z</time></trkpt><trkpt lat="45.054315" lon="9.7268217"><ele>47.0</ele><time>2026-05-01T10:02:51.097Z</time></trkpt><trkpt lat="45.0542717" lon="9.7271633"><ele>47.0</ele><time>2026-05-01T10:02:52.097Z</time></trkpt><trkpt lat="45.0542283" lon="9.7274867"><ele>48.5</ele><time>2026-05-01T10:02:53.097Z</time></trkpt><trkpt lat="45.0541817" lon="9.7278117"><ele>50.0</ele><time>2026-05-01T10:02:54.097Z</time></trkpt><trkpt lat="45.054135" lon="9.7281467"><ele>49.0</ele><time>2026-05-01T10:02:55.097Z</time></trkpt><trkpt lat="45.054085" lon="9.7284817"><ele>48.0</ele><time>2026-05-01T10:02:56.097Z</time></trkpt><trkpt lat="45.0540367" lon="9.7288083"><ele>48.0</ele><time>2026-05-01T10:02:57.097Z</time></trkpt><trkpt lat="45.053985" lon="9.7291333"><ele>48.0</ele><time>2026-05-01T10:02:58.097Z</time></trkpt><trkpt lat="45.053935" lon="9.7294583"><ele>48.0</ele><time>2026-05-01T10:02:59.096Z</time></trkpt><trkpt lat="45.0538883" lon="9.7297833"><ele>48.0</ele><time>2026-05-01T10:03:00.096Z</time></trkpt><trkpt lat="45.053845" lon="9.7301083"><ele>47.5</ele><time>2026-05-01T10:03:01.097Z</time></trkpt><trkpt lat="45.0538033" lon="9.7304267"><ele>47.0</ele><time>2026-05-01T10:03:02.097Z</time></trkpt><trkpt lat="45.05376" lon="9.7307433"><ele>46.5</ele><time>2026-05-01T10:03:03.097Z</time></trkpt><trkpt lat="45.0537183" lon="9.7310633"><ele>46.0</ele><time>2026-05-01T10:03:04.097Z</time></trkpt><trkpt lat="45.0536783" lon="9.7313883"><ele>46.0</ele><time>2026-05-01T10:03:05.096Z</time></trkpt><trkpt lat="45.05364" lon="9.7317167"><ele>46.0</ele><time>2026-05-01T10:03:06.096Z</time></trkpt><trkpt lat="45.0535983" lon="9.73205"><ele>45.5</ele><time>2026-05-01T10:03:07.096Z</time></trkpt><trkpt lat="45.0535583" lon="9.7323917"><ele>45.0</ele><time>2026-05-01T10:03:08.097Z</time></trkpt><trkpt lat="45.0534767" lon="9.733075"><ele>45.0</ele><time>2026-05-01T10:03:10.097Z</time></trkpt><trkpt lat="45.0534383" lon="9.7334167"><ele>45.0</ele><time>2026-05-01T10:03:11.097Z</time></trkpt><trkpt lat="45.0534" lon="9.73376"><ele>46.0</ele><time>2026-05-01T10:03:12.097Z</time></trkpt><trkpt lat="45.0533633" lon="9.7341083"><ele>47.0</ele><time>2026-05-01T10:03:13.096Z</time></trkpt><trkpt lat="45.0533267" lon="9.7344583"><ele>43.0</ele><time>2026-05-01T10:03:14.096Z</time></trkpt><trkpt lat="45.0532867" lon="9.734815"><ele>39.0</ele><time>2026-05-01T10:03:15.096Z</time></trkpt><trkpt lat="45.05325" lon="9.7351783"><ele>41.5</ele><time>2026-05-01T10:03:16.096Z</time></trkpt><trkpt lat="45.05321" lon="9.7355517"><ele>44.0</ele><time>2026-05-01T10:03:17.097Z</time></trkpt><trkpt lat="45.0531717" lon="9.7359333"><ele>46.5</ele><time>2026-05-01T10:03:18.096Z</time></trkpt><trkpt lat="45.0531333" lon="9.7363117"><ele>49.0</ele><time>2026-05-01T10:03:19.097Z</time></trkpt><trkpt lat="45.053095" lon="9.7366833"><ele>47.5</ele><time>2026-05-01T10:03:20.097Z</time></trkpt><trkpt lat="45.05306" lon="9.7370533"><ele>46.0</ele><time>2026-05-01T10:03:21.097Z</time></trkpt><trkpt lat="45.053025" lon="9.737415"><ele>45.0</ele><time>2026-05-01T10:03:22.097Z</time></trkpt><trkpt lat="45.0529917" lon="9.737775"><ele>44.0</ele><time>2026-05-01T10:03:23.096Z</time></trkpt><trkpt lat="45.05296" lon="9.7381333"><ele>44.0</ele><time>2026-05-01T10:03:24.096Z</time></trkpt><trkpt lat="45.05293" lon="9.7384833"><ele>44.0</ele><time>2026-05-01T10:03:25.096Z</time></trkpt><trkpt lat="45.0529" lon="9.73883"><ele>44.0</ele><time>2026-05-01T10:03:26.096Z</time></trkpt><trkpt lat="45.0528683" lon="9.7391733"><ele>44.0</ele><time>2026-05-01T10:03:27.096Z</time></trkpt><trkpt lat="45.052835" lon="9.7395167"><ele>44.0</ele><time>2026-05-01T10:03:28.096Z</time></trkpt><trkpt lat="45.0528017" lon="9.7398517"><ele>44.0</ele><time>2026-05-01T10:03:29.097Z</time></trkpt><trkpt lat="45.0527367" lon="9.7405067"><ele>45.0</ele><time>2026-05-01T10:03:31.097Z</time></trkpt><trkpt lat="45.052705" lon="9.7408233"><ele>46.0</ele><time>2026-05-01T10:03:32.097Z</time></trkpt><trkpt lat="45.052675" lon="9.74114"><ele>47.0</ele><time>2026-05-01T10:03:33.097Z</time></trkpt><trkpt lat="45.0526383" lon="9.7414567"><ele>48.0</ele><time>2026-05-01T10:03:34.097Z</time></trkpt><trkpt lat="45.0526033" lon="9.7417733"><ele>48.0</ele><time>2026-05-01T10:03:35.097Z</time></trkpt><trkpt lat="45.05257" lon="9.74209"><ele>48.0</ele><time>2026-05-01T10:03:36.096Z</time></trkpt><trkpt lat="45.05254" lon="9.7424117"><ele>48.5</ele><time>2026-05-01T10:03:37.096Z</time></trkpt><trkpt lat="45.05251" lon="9.7427333"><ele>49.0</ele><time>2026-05-01T10:03:38.096Z</time></trkpt><trkpt lat="45.0524767" lon="9.7430567"><ele>48.5</ele><time>2026-05-01T10:03:39.096Z</time></trkpt><trkpt lat="45.0524417" lon="9.7433833"><ele>48.0</ele><time>2026-05-01T10:03:40.096Z</time></trkpt><trkpt lat="45.05241" lon="9.7437133"><ele>48.0</ele><time>2026-05-01T10:03:41.097Z</time></trkpt><trkpt lat="45.0523783" lon="9.7440433"><ele>48.0</ele><time>2026-05-01T10:03:42.096Z</time></trkpt><trkpt lat="45.0523467" lon="9.7443717"><ele>48.0</ele><time>2026-05-01T10:03:43.097Z</time></trkpt><trkpt lat="45.0523167" lon="9.7447083"><ele>48.0</ele><time>2026-05-01T10:03:44.096Z</time></trkpt><trkpt lat="45.0522883" lon="9.7450417"><ele>47.5</ele><time>2026-05-01T10:03:45.097Z</time></trkpt><trkpt lat="45.0522583" lon="9.745375"><ele>47.0</ele><time>2026-05-01T10:03:46.097Z</time></trkpt><trkpt lat="45.0522267" lon="9.7457133"><ele>46.5</ele><time>2026-05-01T10:03:47.096Z</time></trkpt><trkpt lat="45.0521917" lon="9.7460567"><ele>46.0</ele><time>2026-05-01T10:03:48.097Z</time></trkpt><trkpt lat="45.0521617" lon="9.7464017"><ele>46.0</ele><time>2026-05-01T10:03:49.097Z</time></trkpt><trkpt lat="45.0521233" lon="9.74675"><ele>46.0</ele><time>2026-05-01T10:03:50.096Z</time></trkpt><trkpt lat="45.0520517" lon="9.7474517"><ele>46.5</ele><time>2026-05-01T10:03:52.096Z</time></trkpt><trkpt lat="45.0520183" lon="9.7478083"><ele>47.0</ele><time>2026-05-01T10:03:53.097Z</time></trkpt><trkpt lat="45.0519867" lon="9.7481633"><ele>47.0</ele><time>2026-05-01T10:03:54.096Z</time></trkpt><trkpt lat="45.0519533" lon="9.7485117"><ele>47.0</ele><time>2026-05-01T10:03:55.096Z</time></trkpt><trkpt lat="45.051925" lon="9.7488583"><ele>47.0</ele><time>2026-05-01T10:03:56.096Z</time></trkpt><trkpt lat="45.05189" lon="9.749195"><ele>47.0</ele><time>2026-05-01T10:03:57.097Z</time></trkpt><trkpt lat="45.05186" lon="9.7495167"><ele>47.0</ele><time>2026-05-01T10:03:58.096Z</time></trkpt><trkpt lat="45.0518217" lon="9.7498383"><ele>47.0</ele><time>2026-05-01T10:03:59.096Z</time></trkpt><trkpt lat="45.0517917" lon="9.750165"><ele>45.5</ele><time>2026-05-01T10:04:00.097Z</time></trkpt><trkpt lat="45.05176" lon="9.7505067"><ele>44.0</ele><time>2026-05-01T10:04:01.096Z</time></trkpt><trkpt lat="45.0517283" lon="9.750855"><ele>44.5</ele><time>2026-05-01T10:04:02.096Z</time></trkpt><trkpt lat="45.051695" lon="9.7512067"><ele>45.0</ele><time>2026-05-01T10:04:03.097Z</time></trkpt><trkpt lat="45.05166" lon="9.7515617"><ele>45.0</ele><time>2026-05-01T10:04:04.096Z</time></trkpt><trkpt lat="45.0516267" lon="9.7519217"><ele>45.0</ele><time>2026-05-01T10:04:05.097Z</time></trkpt><trkpt lat="45.0515917" lon="9.7522817"><ele>45.5</ele><time>2026-05-01T10:04:06.096Z</time></trkpt><trkpt lat="45.05156" lon="9.752645"><ele>46.0</ele><time>2026-05-01T10:04:07.096Z</time></trkpt><trkpt lat="45.051525" lon="9.7529917"><ele>46.0</ele><time>2026-05-01T10:04:08.097Z</time></trkpt><trkpt lat="45.0514983" lon="9.753335"><ele>46.0</ele><time>2026-05-01T10:04:09.097Z</time></trkpt><trkpt lat="45.0514717" lon="9.7536867"><ele>46.0</ele><time>2026-05-01T10:04:10.096Z</time></trkpt><trkpt lat="45.0514417" lon="9.754045"><ele>46.0</ele><time>2026-05-01T10:04:11.096Z</time></trkpt><trkpt lat="45.05136" lon="9.7547933"><ele>46.0</ele><time>2026-05-01T10:04:13.096Z</time></trkpt><trkpt lat="45.0513133" lon="9.7551717"><ele>46.0</ele><time>2026-05-01T10:04:14.096Z</time></trkpt><trkpt lat="45.0512733" lon="9.7555517"><ele>45.5</ele><time>2026-05-01T10:04:15.096Z</time></trkpt><trkpt lat="45.051235" lon="9.7559333"><ele>45.0</ele><time>2026-05-01T10:04:16.096Z</time></trkpt><trkpt lat="45.0512" lon="9.7563"><ele>44.5</ele><time>2026-05-01T10:04:17.097Z</time></trkpt><trkpt lat="45.0511633" lon="9.7566583"><ele>44.0</ele><time>2026-05-01T10:04:18.096Z</time></trkpt><trkpt lat="45.0511283" lon="9.75701"><ele>44.5</ele><time>2026-05-01T10:04:19.097Z</time></trkpt><trkpt lat="45.0510983" lon="9.7573583"><ele>45.0</ele><time>2026-05-01T10:04:20.096Z</time></trkpt><trkpt lat="45.0510617" lon="9.7577033"><ele>45.0</ele><time>2026-05-01T10:04:21.096Z</time></trkpt><trkpt lat="45.051035" lon="9.758045"><ele>45.0</ele><time>2026-05-01T10:04:22.097Z</time></trkpt><trkpt lat="45.051005" lon="9.75838"><ele>45.0</ele><time>2026-05-01T10:04:23.096Z</time></trkpt><trkpt lat="45.050975" lon="9.75871"><ele>45.0</ele><time>2026-05-01T10:04:24.096Z</time></trkpt><trkpt lat="45.05094" lon="9.7590433"><ele>45.0</ele><time>2026-05-01T10:04:25.097Z</time></trkpt><trkpt lat="45.0509083" lon="9.759375"><ele>45.0</ele><time>2026-05-01T10:04:26.096Z</time></trkpt><trkpt lat="45.0508767" lon="9.7597033"><ele>45.0</ele><time>2026-05-01T10:04:27.097Z</time></trkpt><trkpt lat="45.0508467" lon="9.760025"><ele>45.0</ele><time>2026-05-01T10:04:28.096Z</time></trkpt><trkpt lat="45.050815" lon="9.7603633"><ele>45.5</ele><time>2026-05-01T10:04:29.097Z</time></trkpt><trkpt lat="45.05078" lon="9.760705"><ele>46.0</ele><time>2026-05-01T10:04:30.097Z</time></trkpt><trkpt lat="45.0507433" lon="9.7610583"><ele>46.0</ele><time>2026-05-01T10:04:31.096Z</time></trkpt><trkpt lat="45.0507067" lon="9.7614117"><ele>46.0</ele><time>2026-05-01T10:04:32.097Z</time></trkpt><trkpt lat="45.0506383" lon="9.7621333"><ele>46.0</ele><time>2026-05-01T10:04:34.096Z</time></trkpt><trkpt lat="45.0506067" lon="9.7625017"><ele>46.0</ele><time>2026-05-01T10:04:35.096Z</time></trkpt><trkpt lat="45.0505817" lon="9.7628683"><ele>45.0</ele><time>2026-05-01T10:04:36.096Z</time></trkpt><trkpt lat="45.0505483" lon="9.763245"><ele>44.0</ele><time>2026-05-01T10:04:37.097Z</time></trkpt><trkpt lat="45.0505233" lon="9.7636217"><ele>44.0</ele><time>2026-05-01T10:04:38.096Z</time></trkpt><trkpt lat="45.0504983" lon="9.7639983"><ele>44.0</ele><time>2026-05-01T10:04:39.097Z</time></trkpt><trkpt lat="45.0504733" lon="9.7643783"><ele>44.5</ele><time>2026-05-01T10:04:40.096Z</time></trkpt><trkpt lat="45.0504467" lon="9.7647617"><ele>45.0</ele><time>2026-05-01T10:04:41.096Z</time></trkpt><trkpt lat="45.05042" lon="9.76514"><ele>45.5</ele><time>2026-05-01T10:04:42.097Z</time></trkpt><trkpt lat="45.0504" lon="9.765515"><ele>46.0</ele><time>2026-05-01T10:04:43.096Z</time></trkpt><trkpt lat="45.050385" lon="9.765885"><ele>45.0</ele><time>2026-05-01T10:04:44.096Z</time></trkpt><trkpt lat="45.0503683" lon="9.7662483"><ele>44.0</ele><time>2026-05-01T10:04:45.096Z</time></trkpt><trkpt lat="45.0503517" lon="9.7666083"><ele>44.0</ele><time>2026-05-01T10:04:46.097Z</time></trkpt><trkpt lat="45.0503367" lon="9.76697"><ele>44.0</ele><time>2026-05-01T10:04:47.096Z</time></trkpt><trkpt lat="45.0503183" lon="9.7673283"><ele>44.0</ele><time>2026-05-01T10:04:48.097Z</time></trkpt><trkpt lat="45.0502983" lon="9.7676833"><ele>44.0</ele><time>2026-05-01T10:04:49.097Z</time></trkpt><trkpt lat="45.050285" lon="9.768035"><ele>44.5</ele><time>2026-05-01T10:04:50.096Z</time></trkpt><trkpt lat="45.0502667" lon="9.76839"><ele>45.0</ele><time>2026-05-01T10:04:51.096Z</time></trkpt><trkpt lat="45.0502467" lon="9.7687417"><ele>46.0</ele><time>2026-05-01T10:04:52.096Z</time></trkpt><trkpt lat="45.05021" lon="9.7694367"><ele>46.0</ele><time>2026-05-01T10:04:54.096Z</time></trkpt><trkpt lat="45.050195" lon="9.7697867"><ele>46.0</ele><time>2026-05-01T10:04:55.097Z</time></trkpt><trkpt lat="45.0501783" lon="9.7701333"><ele>45.5</ele><time>2026-05-01T10:04:56.096Z</time></trkpt><trkpt lat="45.050165" lon="9.7704817"><ele>45.0</ele><time>2026-05-01T10:04:57.096Z</time></trkpt><trkpt lat="45.050145" lon="9.7708283"><ele>45.0</ele><time>2026-05-01T10:04:58.096Z</time></trkpt><trkpt lat="45.0501283" lon="9.7711683"><ele>45.0</ele><time>2026-05-01T10:04:59.097Z</time></trkpt><trkpt lat="45.0501117" lon="9.77151"><ele>45.0</ele><time>2026-05-01T10:05:00.097Z</time></trkpt><trkpt lat="45.0500917" lon="9.7718483"><ele>45.0</ele><time>2026-05-01T10:05:01.096Z</time></trkpt><trkpt lat="45.0500733" lon="9.7721917"><ele>45.0</ele><time>2026-05-01T10:05:02.097Z</time></trkpt><trkpt lat="45.0500567" lon="9.7725317"><ele>45.0</ele><time>2026-05-01T10:05:03.096Z</time></trkpt><trkpt lat="45.0500383" lon="9.77287"><ele>44.0</ele><time>2026-05-01T10:05:04.096Z</time></trkpt><trkpt lat="45.05002" lon="9.77321"><ele>43.0</ele><time>2026-05-01T10:05:05.097Z</time></trkpt><trkpt lat="45.05001" lon="9.773555"><ele>43.0</ele><time>2026-05-01T10:05:06.096Z</time></trkpt><trkpt lat="45.04999" lon="9.773905"><ele>43.0</ele><time>2026-05-01T10:05:07.096Z</time></trkpt><trkpt lat="45.0499717" lon="9.77426"><ele>43.0</ele><time>2026-05-01T10:05:08.096Z</time></trkpt><trkpt lat="45.0499483" lon="9.7746133"><ele>43.0</ele><time>2026-05-01T10:05:09.097Z</time></trkpt><trkpt lat="45.0499317" lon="9.7749733"><ele>43.0</ele><time>2026-05-01T10:05:10.096Z</time></trkpt><trkpt lat="45.0499167" lon="9.7753367"><ele>43.0</ele><time>2026-05-01T10:05:11.097Z</time></trkpt><trkpt lat="45.0499017" lon="9.7757"><ele>43.5</ele><time>2026-05-01T10:05:12.096Z</time></trkpt><trkpt lat="45.0498883" lon="9.7760683"><ele>44.0</ele><time>2026-05-01T10:05:13.097Z</time></trkpt><trkpt lat="45.0498533" lon="9.7768067"><ele>44.0</ele><time>2026-05-01T10:05:15.096Z</time></trkpt><trkpt lat="45.049835" lon="9.77718"><ele>44.0</ele><time>2026-05-01T10:05:16.097Z</time></trkpt><trkpt lat="45.0498133" lon="9.777555"><ele>44.5</ele><time>2026-05-01T10:05:17.096Z</time></trkpt><trkpt lat="45.0497967" lon="9.7779283"><ele>45.0</ele><time>2026-05-01T10:05:18.097Z</time></trkpt><trkpt lat="45.0497833" lon="9.778295"><ele>45.5</ele><time>2026-05-01T10:05:19.096Z</time></trkpt><trkpt lat="45.049765" lon="9.7786633"><ele>46.0</ele><time>2026-05-01T10:05:20.097Z</time></trkpt><trkpt lat="45.0497467" lon="9.7790367"><ele>46.0</ele><time>2026-05-01T10:05:21.096Z</time></trkpt><trkpt lat="45.04973" lon="9.7793983"><ele>46.0</ele><time>2026-05-01T10:05:22.097Z</time></trkpt><trkpt lat="45.0497133" lon="9.779755"><ele>46.0</ele><time>2026-05-01T10:05:23.096Z</time></trkpt><trkpt lat="45.0496983" lon="9.780115"><ele>46.0</ele><time>2026-05-01T10:05:24.097Z</time></trkpt><trkpt lat="45.0496767" lon="9.7804683"><ele>46.5</ele><time>2026-05-01T10:05:25.097Z</time></trkpt><trkpt lat="45.0496583" lon="9.7808283"><ele>47.0</ele><time>2026-05-01T10:05:26.096Z</time></trkpt><trkpt lat="45.0496417" lon="9.7811917"><ele>46.0</ele><time>2026-05-01T10:05:27.097Z</time></trkpt><trkpt lat="45.0496233" lon="9.78155"><ele>45.0</ele><time>2026-05-01T10:05:28.096Z</time></trkpt><trkpt lat="45.0496083" lon="9.7819117"><ele>44.5</ele><time>2026-05-01T10:05:29.096Z</time></trkpt><trkpt lat="45.0495917" lon="9.7822733"><ele>44.0</ele><time>2026-05-01T10:05:30.097Z</time></trkpt><trkpt lat="45.049575" lon="9.7826333"><ele>44.5</ele><time>2026-05-01T10:05:31.096Z</time></trkpt><trkpt lat="45.04956" lon="9.7829883"><ele>45.0</ele><time>2026-05-01T10:05:32.096Z</time></trkpt><trkpt lat="45.0495417" lon="9.7833417"><ele>45.0</ele><time>2026-05-01T10:05:33.097Z</time></trkpt><trkpt lat="45.0495233" lon="9.7837033"><ele>45.0</ele><time>2026-05-01T10:05:34.096Z</time></trkpt><trkpt lat="45.049485" lon="9.7844333"><ele>45.0</ele><time>2026-05-01T10:05:36.096Z</time></trkpt><trkpt lat="45.049465" lon="9.7848033"><ele>45.0</ele><time>2026-05-01T10:05:37.096Z</time></trkpt><trkpt lat="45.0494417" lon="9.78517"><ele>44.5</ele><time>2026-05-01T10:05:38.096Z</time></trkpt><trkpt lat="45.0494167" lon="9.7855433"><ele>44.0</ele><time>2026-05-01T10:05:39.097Z</time></trkpt><trkpt lat="45.0493967" lon="9.785915"><ele>44.0</ele><time>2026-05-01T10:05:40.096Z</time></trkpt><trkpt lat="45.0493767" lon="9.786285"><ele>44.0</ele><time>2026-05-01T10:05:41.096Z</time></trkpt><trkpt lat="45.0493583" lon="9.78666"><ele>44.5</ele><time>2026-05-01T10:05:42.096Z</time></trkpt><trkpt lat="45.04933" lon="9.7870333"><ele>45.0</ele><time>2026-05-01T10:05:43.096Z</time></trkpt><trkpt lat="45.049305" lon="9.7874"><ele>45.5</ele><time>2026-05-01T10:05:44.097Z</time></trkpt><trkpt lat="45.04928" lon="9.78776"><ele>46.0</ele><time>2026-05-01T10:05:45.097Z</time></trkpt><trkpt lat="45.049255" lon="9.7881233"><ele>46.0</ele><time>2026-05-01T10:05:46.096Z</time></trkpt><trkpt lat="45.049225" lon="9.788485"><ele>46.0</ele><time>2026-05-01T10:05:47.097Z</time></trkpt><trkpt lat="45.04919" lon="9.7888467"><ele>45.5</ele><time>2026-05-01T10:05:48.096Z</time></trkpt><trkpt lat="45.0491517" lon="9.7892117"><ele>45.0</ele><time>2026-05-01T10:05:49.097Z</time></trkpt><trkpt lat="45.0491083" lon="9.7895767"><ele>45.0</ele><time>2026-05-01T10:05:50.097Z</time></trkpt><trkpt lat="45.0490567" lon="9.7899383"><ele>45.0</ele><time>2026-05-01T10:05:51.096Z</time></trkpt><trkpt lat="45.0490033" lon="9.7902933"><ele>45.0</ele><time>2026-05-01T10:05:52.096Z</time></trkpt><trkpt lat="45.0489467" lon="9.790645"><ele>45.0</ele><time>2026-05-01T10:05:53.097Z</time></trkpt><trkpt lat="45.0488867" lon="9.7909917"><ele>45.0</ele><time>2026-05-01T10:05:54.096Z</time></trkpt><trkpt lat="45.0488317" lon="9.79134"><ele>45.0</ele><time>2026-05-01T10:05:55.097Z</time></trkpt><trkpt lat="45.048695" lon="9.7920483"><ele>45.0</ele><time>2026-05-01T10:05:57.097Z</time></trkpt><trkpt lat="45.0486267" lon="9.7924033"><ele>45.0</ele><time>2026-05-01T10:05:58.096Z</time></trkpt><trkpt lat="45.0485483" lon="9.7927533"><ele>45.0</ele><time>2026-05-01T10:05:59.096Z</time></trkpt><trkpt lat="45.0484683" lon="9.793105"><ele>45.0</ele><time>2026-05-01T10:06:00.097Z</time></trkpt><trkpt lat="45.048385" lon="9.7934533"><ele>44.5</ele><time>2026-05-01T10:06:01.096Z</time></trkpt><trkpt lat="45.0483017" lon="9.7937983"><ele>44.0</ele><time>2026-05-01T10:06:02.096Z</time></trkpt><trkpt lat="45.0482133" lon="9.7941433"><ele>45.5</ele><time>2026-05-01T10:06:03.097Z</time></trkpt><trkpt lat="45.0481233" lon="9.7944833"><ele>47.0</ele><time>2026-05-01T10:06:04.097Z</time></trkpt><trkpt lat="45.04803" lon="9.794825"><ele>47.0</ele><time>2026-05-01T10:06:05.096Z</time></trkpt><trkpt lat="45.0479367" lon="9.79517"><ele>47.0</ele><time>2026-05-01T10:06:06.096Z</time></trkpt><trkpt lat="45.0478467" lon="9.7955183"><ele>46.5</ele><time>2026-05-01T10:06:07.096Z</time></trkpt><trkpt lat="45.0477533" lon="9.7958667"><ele>46.0</ele><time>2026-05-01T10:06:08.096Z</time></trkpt><trkpt lat="45.0476533" lon="9.7962167"><ele>46.0</ele><time>2026-05-01T10:06:09.097Z</time></trkpt><trkpt lat="45.0475567" lon="9.7965683"><ele>46.0</ele><time>2026-05-01T10:06:10.097Z</time></trkpt><trkpt lat="45.0474633" lon="9.7969167"><ele>46.0</ele><time>2026-05-01T10:06:11.097Z</time></trkpt><trkpt lat="45.04736" lon="9.7972717"><ele>46.0</ele><time>2026-05-01T10:06:12.096Z</time></trkpt><trkpt lat="45.04726" lon="9.7976283"><ele>46.0</ele><time>2026-05-01T10:06:13.097Z</time></trkpt><trkpt lat="45.0471583" lon="9.79798"><ele>46.0</ele><time>2026-05-01T10:06:14.097Z</time></trkpt><trkpt lat="45.0470583" lon="9.79833"><ele>46.5</ele><time>2026-05-01T10:06:15.096Z</time></trkpt><trkpt lat="45.0469617" lon="9.7986783"><ele>47.0</ele><time>2026-05-01T10:06:16.097Z</time></trkpt><trkpt lat="45.0467683" lon="9.7993717"><ele>47.0</ele><time>2026-05-01T10:06:18.097Z</time></trkpt><trkpt lat="45.04667" lon="9.79972"><ele>47.0</ele><time>2026-05-01T10:06:19.096Z</time></trkpt><trkpt lat="45.0465733" lon="9.8000633"><ele>46.0</ele><time>2026-05-01T10:06:20.097Z</time></trkpt><trkpt lat="45.0464783" lon="9.800405"><ele>45.0</ele><time>2026-05-01T10:06:21.097Z</time></trkpt><trkpt lat="45.0463833" lon="9.8007367"><ele>44.5</ele><time>2026-05-01T10:06:22.096Z</time></trkpt><trkpt lat="45.0462883" lon="9.801065"><ele>44.0</ele><time>2026-05-01T10:06:23.097Z</time></trkpt><trkpt lat="45.0461933" lon="9.8013867"><ele>44.0</ele><time>2026-05-01T10:06:24.097Z</time></trkpt><trkpt lat="45.0461017" lon="9.8017033"><ele>44.0</ele><time>2026-05-01T10:06:25.097Z</time></trkpt><trkpt lat="45.0460133" lon="9.802025"><ele>45.5</ele><time>2026-05-01T10:06:26.096Z</time></trkpt><trkpt lat="45.045925" lon="9.80234"><ele>47.0</ele><time>2026-05-01T10:06:27.096Z</time></trkpt><trkpt lat="45.0458333" lon="9.8026667"><ele>47.5</ele><time>2026-05-01T10:06:28.096Z</time></trkpt><trkpt lat="45.0457483" lon="9.80299"><ele>48.0</ele><time>2026-05-01T10:06:29.097Z</time></trkpt><trkpt lat="45.0456583" lon="9.8033167"><ele>48.0</ele><time>2026-05-01T10:06:30.096Z</time></trkpt><trkpt lat="45.045565" lon="9.8036467"><ele>48.0</ele><time>2026-05-01T10:06:31.096Z</time></trkpt><trkpt lat="45.0454733" lon="9.8039833"><ele>48.0</ele><time>2026-05-01T10:06:32.097Z</time></trkpt><trkpt lat="45.045385" lon="9.8043167"><ele>48.0</ele><time>2026-05-01T10:06:33.096Z</time></trkpt><trkpt lat="45.04529" lon="9.8046517"><ele>48.0</ele><time>2026-05-01T10:06:34.096Z</time></trkpt><trkpt lat="45.045195" lon="9.8049933"><ele>48.0</ele><time>2026-05-01T10:06:35.096Z</time></trkpt><trkpt lat="45.045105" lon="9.8053383"><ele>48.0</ele><time>2026-05-01T10:06:36.097Z</time></trkpt><trkpt lat="45.04502" lon="9.805685"><ele>48.0</ele><time>2026-05-01T10:06:37.097Z</time></trkpt><trkpt lat="45.0448533" lon="9.80639"><ele>48.0</ele><time>2026-05-01T10:06:39.096Z</time></trkpt><trkpt lat="45.04478" lon="9.8067583"><ele>48.0</ele><time>2026-05-01T10:06:40.096Z</time></trkpt><trkpt lat="45.0447167" lon="9.8071283"><ele>48.0</ele><time>2026-05-01T10:06:41.097Z</time></trkpt><trkpt lat="45.044655" lon="9.8075017"><ele>48.0</ele><time>2026-05-01T10:06:42.097Z</time></trkpt><trkpt lat="45.0445983" lon="9.8078817"><ele>48.0</ele><time>2026-05-01T10:06:43.097Z</time></trkpt><trkpt lat="45.0445433" lon="9.8082667"><ele>48.0</ele><time>2026-05-01T10:06:44.096Z</time></trkpt><trkpt lat="45.044495" lon="9.8086483"><ele>48.0</ele><time>2026-05-01T10:06:45.096Z</time></trkpt><trkpt lat="45.0444517" lon="9.80902"><ele>48.0</ele><time>2026-05-01T10:06:46.097Z</time></trkpt><trkpt lat="45.0444167" lon="9.809385"><ele>47.5</ele><time>2026-05-01T10:06:47.096Z</time></trkpt><trkpt lat="45.0443867" lon="9.8097483"><ele>47.0</ele><time>2026-05-01T10:06:48.097Z</time></trkpt><trkpt lat="45.0443633" lon="9.8101133"><ele>47.0</ele><time>2026-05-01T10:06:49.097Z</time></trkpt><trkpt lat="45.0443483" lon="9.81047"><ele>47.0</ele><time>2026-05-01T10:06:50.097Z</time></trkpt><trkpt lat="45.0443383" lon="9.8108317"><ele>47.5</ele><time>2026-05-01T10:06:51.097Z</time></trkpt><trkpt lat="45.0443367" lon="9.8111883"><ele>48.0</ele><time>2026-05-01T10:06:52.096Z</time></trkpt><trkpt lat="45.0443383" lon="9.8115417"><ele>48.0</ele><time>2026-05-01T10:06:53.097Z</time></trkpt><trkpt lat="45.0443483" lon="9.8118917"><ele>48.0</ele><time>2026-05-01T10:06:54.096Z</time></trkpt><trkpt lat="45.0443633" lon="9.8122467"><ele>48.0</ele><time>2026-05-01T10:06:55.096Z</time></trkpt><trkpt lat="45.044385" lon="9.8126033"><ele>48.0</ele><time>2026-05-01T10:06:56.097Z</time></trkpt><trkpt lat="45.04441" lon="9.812965"><ele>48.0</ele><time>2026-05-01T10:06:57.096Z</time></trkpt><trkpt lat="45.0444417" lon="9.8133267"><ele>48.0</ele><time>2026-05-01T10:06:58.096Z</time></trkpt><trkpt lat="45.044525" lon="9.8140617"><ele>47.0</ele><time>2026-05-01T10:07:00.096Z</time></trkpt><trkpt lat="45.0445683" lon="9.8144333"><ele>46.0</ele><time>2026-05-01T10:07:01.096Z</time></trkpt><trkpt lat="45.0446067" lon="9.8148083"><ele>46.0</ele><time>2026-05-01T10:07:02.097Z</time></trkpt><trkpt lat="45.0446483" lon="9.8151817"><ele>46.0</ele><time>2026-05-01T10:07:03.097Z</time></trkpt><trkpt lat="45.044695" lon="9.815555"><ele>46.0</ele><time>2026-05-01T10:07:04.097Z</time></trkpt><trkpt lat="45.04474" lon="9.8159217"><ele>46.0</ele><time>2026-05-01T10:07:05.097Z</time></trkpt><trkpt lat="45.0447867" lon="9.8162867"><ele>45.5</ele><time>2026-05-01T10:07:06.096Z</time></trkpt><trkpt lat="45.04483" lon="9.8166467"><ele>45.0</ele><time>2026-05-01T10:07:07.097Z</time></trkpt><trkpt lat="45.0448717" lon="9.817015"><ele>43.0</ele><time>2026-05-01T10:07:08.097Z</time></trkpt><trkpt lat="45.0449117" lon="9.8173783"><ele>41.0</ele><time>2026-05-01T10:07:09.096Z</time></trkpt><trkpt lat="45.044955" lon="9.817745"><ele>42.5</ele><time>2026-05-01T10:07:10.097Z</time></trkpt><trkpt lat="45.0449967" lon="9.8181183"><ele>44.0</ele><time>2026-05-01T10:07:11.097Z</time></trkpt><trkpt lat="45.0450367" lon="9.8184883"><ele>44.0</ele><time>2026-05-01T10:07:12.096Z</time></trkpt><trkpt lat="45.0450767" lon="9.8188617"><ele>44.0</ele><time>2026-05-01T10:07:13.096Z</time></trkpt><trkpt lat="45.0451183" lon="9.8192433"><ele>44.0</ele><time>2026-05-01T10:07:14.097Z</time></trkpt><trkpt lat="45.0451617" lon="9.8196217"><ele>44.0</ele><time>2026-05-01T10:07:15.097Z</time></trkpt><trkpt lat="45.045205" lon="9.8200033"><ele>44.5</ele><time>2026-05-01T10:07:16.096Z</time></trkpt><trkpt lat="45.045245" lon="9.8203833"><ele>45.0</ele><time>2026-05-01T10:07:17.096Z</time></trkpt><trkpt lat="45.04529" lon="9.8207667"><ele>46.0</ele><time>2026-05-01T10:07:18.097Z</time></trkpt><trkpt lat="45.0453317" lon="9.821155"><ele>47.0</ele><time>2026-05-01T10:07:19.097Z</time></trkpt><trkpt lat="45.0453733" lon="9.8215383"><ele>45.0</ele><time>2026-05-01T10:07:20.096Z</time></trkpt><trkpt lat="45.0454433" lon="9.8223183"><ele>45.5</ele><time>2026-05-01T10:07:22.096Z</time></trkpt><trkpt lat="45.0454783" lon="9.8226983"><ele>46.0</ele><time>2026-05-01T10:07:23.097Z</time></trkpt><trkpt lat="45.04551" lon="9.823075"><ele>46.0</ele><time>2026-05-01T10:07:24.096Z</time></trkpt><trkpt lat="45.0455383" lon="9.8234483"><ele>46.0</ele><time>2026-05-01T10:07:25.097Z</time></trkpt><trkpt lat="45.0455633" lon="9.8238167"><ele>46.5</ele><time>2026-05-01T10:07:26.097Z</time></trkpt><trkpt lat="45.0455833" lon="9.8241817"><ele>47.0</ele><time>2026-05-01T10:07:27.096Z</time></trkpt><trkpt lat="45.0455983" lon="9.8245483"><ele>47.0</ele><time>2026-05-01T10:07:28.097Z</time></trkpt><trkpt lat="45.0456117" lon="9.824905"><ele>47.0</ele><time>2026-05-01T10:07:29.097Z</time></trkpt><trkpt lat="45.0456283" lon="9.825265"><ele>46.0</ele><time>2026-05-01T10:07:30.097Z</time></trkpt><trkpt lat="45.04564" lon="9.8256317"><ele>45.0</ele><time>2026-05-01T10:07:31.096Z</time></trkpt><trkpt lat="45.045655" lon="9.82635"><ele>45.0</ele><time>2026-05-01T10:07:33.097Z</time></trkpt><trkpt lat="45.0456617" lon="9.8267083"><ele>45.0</ele><time>2026-05-01T10:07:34.097Z</time></trkpt><trkpt lat="45.0456633" lon="9.827075"><ele>44.0</ele><time>2026-05-01T10:07:35.097Z</time></trkpt><trkpt lat="45.045675" lon="9.8274417"><ele>43.0</ele><time>2026-05-01T10:07:36.096Z</time></trkpt><trkpt lat="45.0456833" lon="9.8278167"><ele>42.5</ele><time>2026-05-01T10:07:37.097Z</time></trkpt><trkpt lat="45.0456883" lon="9.8281933"><ele>42.0</ele><time>2026-05-01T10:07:38.096Z</time></trkpt><trkpt lat="45.045685" lon="9.8285683"><ele>41.5</ele><time>2026-05-01T10:07:39.096Z</time></trkpt><trkpt lat="45.045685" lon="9.8289433"><ele>41.0</ele><time>2026-05-01T10:07:40.097Z</time></trkpt><trkpt lat="45.045685" lon="9.8293117"><ele>39.0</ele><time>2026-05-01T10:07:41.096Z</time></trkpt><trkpt lat="45.045685" lon="9.830065"><ele>38.5</ele><time>2026-05-01T10:07:43.096Z</time></trkpt><trkpt lat="45.0456833" lon="9.8304267"><ele>38.0</ele><time>2026-05-01T10:07:44.096Z</time></trkpt><trkpt lat="45.0456733" lon="9.8307983"><ele>40.0</ele><time>2026-05-01T10:07:45.097Z</time></trkpt><trkpt lat="45.0456567" lon="9.83117"><ele>42.0</ele><time>2026-05-01T10:07:46.097Z</time></trkpt><trkpt lat="45.0456417" lon="9.8315417"><ele>43.0</ele><time>2026-05-01T10:07:47.097Z</time></trkpt><trkpt lat="45.045625" lon="9.8319117"><ele>44.0</ele><time>2026-05-01T10:07:48.096Z</time></trkpt><trkpt lat="45.045615" lon="9.8322783"><ele>43.0</ele><time>2026-05-01T10:07:49.096Z</time></trkpt><trkpt lat="45.0456117" lon="9.8326433"><ele>42.0</ele><time>2026-05-01T10:07:50.096Z</time></trkpt><trkpt lat="45.045605" lon="9.8330017"><ele>42.0</ele><time>2026-05-01T10:07:51.096Z</time></trkpt><trkpt lat="45.0456033" lon="9.8333617"><ele>42.0</ele><time>2026-05-01T10:07:52.097Z</time></trkpt><trkpt lat="45.0456" lon="9.8337183"><ele>42.0</ele><time>2026-05-01T10:07:53.097Z</time></trkpt><trkpt lat="45.0455983" lon="9.8340683"><ele>42.0</ele><time>2026-05-01T10:07:54.096Z</time></trkpt><trkpt lat="45.0455983" lon="9.8344217"><ele>41.5</ele><time>2026-05-01T10:07:55.097Z</time></trkpt><trkpt lat="45.0455967" lon="9.8347733"><ele>41.0</ele><time>2026-05-01T10:07:56.096Z</time></trkpt><trkpt lat="45.04559" lon="9.8351283"><ele>41.0</ele><time>2026-05-01T10:07:57.096Z</time></trkpt><trkpt lat="45.0455833" lon="9.8354867"><ele>41.0</ele><time>2026-05-01T10:07:58.096Z</time></trkpt><trkpt lat="45.045575" lon="9.8358467"><ele>40.5</ele><time>2026-05-01T10:07:59.097Z</time></trkpt><trkpt lat="45.045575" lon="9.8362033"><ele>40.0</ele><time>2026-05-01T10:08:00.097Z</time></trkpt><trkpt lat="45.0455683" lon="9.836555"><ele>40.5</ele><time>2026-05-01T10:08:01.096Z</time></trkpt><trkpt lat="45.0455667" lon="9.836915"><ele>41.0</ele><time>2026-05-01T10:08:02.097Z</time></trkpt><trkpt lat="45.045565" lon="9.837645"><ele>42.5</ele><time>2026-05-01T10:08:04.097Z</time></trkpt><trkpt lat="45.04556" lon="9.8380067"><ele>44.0</ele><time>2026-05-01T10:08:05.097Z</time></trkpt><trkpt lat="45.0455583" lon="9.8383717"><ele>45.0</ele><time>2026-05-01T10:08:06.097Z</time></trkpt><trkpt lat="45.0455633" lon="9.8387383"><ele>46.0</ele><time>2026-05-01T10:08:07.097Z</time></trkpt><trkpt lat="45.0455683" lon="9.8391033"><ele>47.0</ele><time>2026-05-01T10:08:08.097Z</time></trkpt><trkpt lat="45.0455717" lon="9.8394683"><ele>48.0</ele><time>2026-05-01T10:08:09.097Z</time></trkpt><trkpt lat="45.0455817" lon="9.8398317"><ele>47.5</ele><time>2026-05-01T10:08:10.096Z</time></trkpt><trkpt lat="45.0456017" lon="9.84019"><ele>47.0</ele><time>2026-05-01T10:08:11.097Z</time></trkpt><trkpt lat="45.0456167" lon="9.8405433"><ele>47.0</ele><time>2026-05-01T10:08:12.096Z</time></trkpt><trkpt lat="45.045635" lon="9.8408967"><ele>47.0</ele><time>2026-05-01T10:08:13.096Z</time></trkpt><trkpt lat="45.0456533" lon="9.8412417"><ele>46.5</ele><time>2026-05-01T10:08:14.097Z</time></trkpt><trkpt lat="45.045675" lon="9.84159"><ele>46.0</ele><time>2026-05-01T10:08:15.097Z</time></trkpt><trkpt lat="45.0456983" lon="9.84194"><ele>45.0</ele><time>2026-05-01T10:08:16.097Z</time></trkpt><trkpt lat="45.0457283" lon="9.8422933"><ele>44.0</ele><time>2026-05-01T10:08:17.097Z</time></trkpt><trkpt lat="45.0457583" lon="9.84265"><ele>44.0</ele><time>2026-05-01T10:08:18.096Z</time></trkpt><trkpt lat="45.0457917" lon="9.8430067"><ele>44.0</ele><time>2026-05-01T10:08:19.097Z</time></trkpt><trkpt lat="45.04583" lon="9.8433683"><ele>43.0</ele><time>2026-05-01T10:08:20.096Z</time></trkpt><trkpt lat="45.0458683" lon="9.8437317"><ele>42.0</ele><time>2026-05-01T10:08:21.097Z</time></trkpt><trkpt lat="45.0459117" lon="9.8440933"><ele>42.5</ele><time>2026-05-01T10:08:22.096Z</time></trkpt><trkpt lat="45.0459567" lon="9.84446"><ele>43.0</ele><time>2026-05-01T10:08:23.097Z</time></trkpt><trkpt lat="45.0460133" lon="9.844825"><ele>43.0</ele><time>2026-05-01T10:08:24.096Z</time></trkpt><trkpt lat="45.0461267" lon="9.8455533"><ele>43.0</ele><time>2026-05-01T10:08:26.096Z</time></trkpt><trkpt lat="45.0461917" lon="9.8459167"><ele>43.0</ele><time>2026-05-01T10:08:27.096Z</time></trkpt><trkpt lat="45.0462567" lon="9.8462833"><ele>42.5</ele><time>2026-05-01T10:08:28.097Z</time></trkpt><trkpt lat="45.0463283" lon="9.8466483"><ele>42.0</ele><time>2026-05-01T10:08:29.096Z</time></trkpt><trkpt lat="45.0464017" lon="9.8470133"><ele>43.0</ele><time>2026-05-01T10:08:30.096Z</time></trkpt><trkpt lat="45.046475" lon="9.8473767"><ele>44.0</ele><time>2026-05-01T10:08:31.097Z</time></trkpt><trkpt lat="45.0465467" lon="9.8477417"><ele>44.0</ele><time>2026-05-01T10:08:32.097Z</time></trkpt><trkpt lat="45.046625" lon="9.848095"><ele>44.0</ele><time>2026-05-01T10:08:33.097Z</time></trkpt><trkpt lat="45.0467033" lon="9.8484433"><ele>43.5</ele><time>2026-05-01T10:08:34.097Z</time></trkpt><trkpt lat="45.0467833" lon="9.8487833"><ele>43.0</ele><time>2026-05-01T10:08:35.097Z</time></trkpt><trkpt lat="45.04687" lon="9.8491183"><ele>43.0</ele><time>2026-05-01T10:08:36.097Z</time></trkpt><trkpt lat="45.0469567" lon="9.849455"><ele>43.0</ele><time>2026-05-01T10:08:37.096Z</time></trkpt><trkpt lat="45.0470433" lon="9.8497917"><ele>43.5</ele><time>2026-05-01T10:08:38.096Z</time></trkpt><trkpt lat="45.0471367" lon="9.8501267"><ele>44.0</ele><time>2026-05-01T10:08:39.097Z</time></trkpt><trkpt lat="45.047225" lon="9.85046"><ele>44.0</ele><time>2026-05-01T10:08:40.096Z</time></trkpt><trkpt lat="45.0473167" lon="9.8507917"><ele>44.0</ele><time>2026-05-01T10:08:41.097Z</time></trkpt><trkpt lat="45.047415" lon="9.8511167"><ele>43.0</ele><time>2026-05-01T10:08:42.097Z</time></trkpt><trkpt lat="45.0475083" lon="9.85144"><ele>42.0</ele><time>2026-05-01T10:08:43.096Z</time></trkpt><trkpt lat="45.0476017" lon="9.8517617"><ele>42.0</ele><time>2026-05-01T10:08:44.097Z</time></trkpt><trkpt lat="45.0476983" lon="9.8520883"><ele>42.0</ele><time>2026-05-01T10:08:45.097Z</time></trkpt><trkpt lat="45.047905" lon="9.8527517"><ele>41.5</ele><time>2026-05-01T10:08:47.097Z</time></trkpt><trkpt lat="45.0480033" lon="9.853085"><ele>41.0</ele><time>2026-05-01T10:08:48.097Z</time></trkpt><trkpt lat="45.04811" lon="9.85342"><ele>41.5</ele><time>2026-05-01T10:08:49.097Z</time></trkpt><trkpt lat="45.0482167" lon="9.8537567"><ele>42.0</ele><time>2026-05-01T10:08:50.097Z</time></trkpt><trkpt lat="45.0483183" lon="9.854095"><ele>42.0</ele><time>2026-05-01T10:08:51.096Z</time></trkpt><trkpt lat="45.0484167" lon="9.854435"><ele>42.0</ele><time>2026-05-01T10:08:52.096Z</time></trkpt><trkpt lat="45.0485217" lon="9.8547717"><ele>42.0</ele><time>2026-05-01T10:08:53.097Z</time></trkpt><trkpt lat="45.048625" lon="9.85511"><ele>42.0</ele><time>2026-05-01T10:08:54.096Z</time></trkpt><trkpt lat="45.048725" lon="9.8554467"><ele>42.5</ele><time>2026-05-01T10:08:55.096Z</time></trkpt><trkpt lat="45.0488267" lon="9.855785"><ele>43.0</ele><time>2026-05-01T10:08:56.097Z</time></trkpt><trkpt lat="45.0489317" lon="9.8561233"><ele>43.5</ele><time>2026-05-01T10:08:57.096Z</time></trkpt><trkpt lat="45.0490417" lon="9.8564583"><ele>44.0</ele><time>2026-05-01T10:08:58.097Z</time></trkpt><trkpt lat="45.049145" lon="9.8568"><ele>42.0</ele><time>2026-05-01T10:08:59.096Z</time></trkpt><trkpt lat="45.0492483" lon="9.857145"><ele>40.0</ele><time>2026-05-01T10:09:00.096Z</time></trkpt><trkpt lat="45.04935" lon="9.8574883"><ele>40.0</ele><time>2026-05-01T10:09:01.096Z</time></trkpt><trkpt lat="45.0494617" lon="9.8578267"><ele>40.0</ele><time>2026-05-01T10:09:02.097Z</time></trkpt><trkpt lat="45.049565" lon="9.85817"><ele>40.0</ele><time>2026-05-01T10:09:03.096Z</time></trkpt><trkpt lat="45.04967" lon="9.8585117"><ele>40.0</ele><time>2026-05-01T10:09:04.097Z</time></trkpt><trkpt lat="45.0497683" lon="9.8588467"><ele>40.0</ele><time>2026-05-01T10:09:05.097Z</time></trkpt><trkpt lat="45.0498717" lon="9.8591817"><ele>40.0</ele><time>2026-05-01T10:09:06.096Z</time></trkpt><trkpt lat="45.05008" lon="9.85986"><ele>39.5</ele><time>2026-05-01T10:09:08.096Z</time></trkpt><trkpt lat="45.0501783" lon="9.8601983"><ele>39.0</ele><time>2026-05-01T10:09:09.096Z</time></trkpt><trkpt lat="45.05028" lon="9.86054"><ele>39.0</ele><time>2026-05-01T10:09:10.096Z</time></trkpt><trkpt lat="45.0503867" lon="9.8608767"><ele>39.0</ele><time>2026-05-01T10:09:11.097Z</time></trkpt><trkpt lat="45.05049" lon="9.8612117"><ele>41.5</ele><time>2026-05-01T10:09:12.096Z</time></trkpt><trkpt lat="45.05059" lon="9.86155"><ele>44.0</ele><time>2026-05-01T10:09:13.096Z</time></trkpt><trkpt lat="45.05069" lon="9.861885"><ele>43.5</ele><time>2026-05-01T10:09:14.096Z</time></trkpt><trkpt lat="45.0507883" lon="9.8622167"><ele>43.0</ele><time>2026-05-01T10:09:15.097Z</time></trkpt><trkpt lat="45.050895" lon="9.8625583"><ele>42.5</ele><time>2026-05-01T10:09:16.097Z</time></trkpt><trkpt lat="45.0509933" lon="9.862895"><ele>42.0</ele><time>2026-05-01T10:09:17.097Z</time></trkpt><trkpt lat="45.0510917" lon="9.8632383"><ele>43.0</ele><time>2026-05-01T10:09:18.096Z</time></trkpt><trkpt lat="45.051195" lon="9.8635783"><ele>44.0</ele><time>2026-05-01T10:09:19.096Z</time></trkpt><trkpt lat="45.0512933" lon="9.8639233"><ele>44.0</ele><time>2026-05-01T10:09:20.096Z</time></trkpt><trkpt lat="45.0513983" lon="9.8642633"><ele>44.0</ele><time>2026-05-01T10:09:21.097Z</time></trkpt><trkpt lat="45.0514967" lon="9.86461"><ele>43.5</ele><time>2026-05-01T10:09:22.096Z</time></trkpt><trkpt lat="45.05159" lon="9.8649667"><ele>43.0</ele><time>2026-05-01T10:09:23.096Z</time></trkpt><trkpt lat="45.05168" lon="9.865325"><ele>43.0</ele><time>2026-05-01T10:09:24.097Z</time></trkpt><trkpt lat="45.0517717" lon="9.8656783"><ele>43.0</ele><time>2026-05-01T10:09:25.097Z</time></trkpt><trkpt lat="45.0518617" lon="9.8660317"><ele>43.0</ele><time>2026-05-01T10:09:26.096Z</time></trkpt><trkpt lat="45.051955" lon="9.8663933"><ele>43.0</ele><time>2026-05-01T10:09:27.097Z</time></trkpt><trkpt lat="45.0521367" lon="9.8671183"><ele>43.5</ele><time>2026-05-01T10:09:29.096Z</time></trkpt><trkpt lat="45.0522217" lon="9.8674833"><ele>44.0</ele><time>2026-05-01T10:09:30.097Z</time></trkpt><trkpt lat="45.052305" lon="9.8678467"><ele>44.0</ele><time>2026-05-01T10:09:31.097Z</time></trkpt><trkpt lat="45.0523883" lon="9.8682183"><ele>44.0</ele><time>2026-05-01T10:09:32.097Z</time></trkpt><trkpt lat="45.0524667" lon="9.8685917"><ele>44.0</ele><time>2026-05-01T10:09:33.096Z</time></trkpt><trkpt lat="45.052545" lon="9.8689667"><ele>44.0</ele><time>2026-05-01T10:09:34.097Z</time></trkpt><trkpt lat="45.05262" lon="9.86934"><ele>44.0</ele><time>2026-05-01T10:09:35.097Z</time></trkpt><trkpt lat="45.052695" lon="9.8697067"><ele>44.0</ele><time>2026-05-01T10:09:36.096Z</time></trkpt><trkpt lat="45.0527683" lon="9.8700767"><ele>44.5</ele><time>2026-05-01T10:09:37.097Z</time></trkpt><trkpt lat="45.0528433" lon="9.87044"><ele>45.0</ele><time>2026-05-01T10:09:38.096Z</time></trkpt><trkpt lat="45.0529133" lon="9.8708117"><ele>44.0</ele><time>2026-05-01T10:09:39.097Z</time></trkpt><trkpt lat="45.05299" lon="9.8711783"><ele>43.0</ele><time>2026-05-01T10:09:40.096Z</time></trkpt><trkpt lat="45.05307" lon="9.87154"><ele>42.0</ele><time>2026-05-01T10:09:41.096Z</time></trkpt><trkpt lat="45.0531467" lon="9.8719033"><ele>41.0</ele><time>2026-05-01T10:09:42.096Z</time></trkpt><trkpt lat="45.0532233" lon="9.8722583"><ele>42.5</ele><time>2026-05-01T10:09:43.097Z</time></trkpt><trkpt lat="45.0532917" lon="9.8726367"><ele>44.0</ele><time>2026-05-01T10:09:44.097Z</time></trkpt><trkpt lat="45.0533683" lon="9.8729983"><ele>44.0</ele><time>2026-05-01T10:09:45.097Z</time></trkpt><trkpt lat="45.0534433" lon="9.8733633"><ele>44.0</ele><time>2026-05-01T10:09:46.096Z</time></trkpt><trkpt lat="45.053515" lon="9.87373"><ele>44.5</ele><time>2026-05-01T10:09:47.096Z</time></trkpt><trkpt lat="45.0535883" lon="9.874095"><ele>45.0</ele><time>2026-05-01T10:09:48.096Z</time></trkpt><trkpt lat="45.0537333" lon="9.87482"><ele>44.0</ele><time>2026-05-01T10:09:50.096Z</time></trkpt><trkpt lat="45.053805" lon="9.8751783"><ele>43.0</ele><time>2026-05-01T10:09:51.096Z</time></trkpt><trkpt lat="45.053875" lon="9.8755367"><ele>43.0</ele><time>2026-05-01T10:09:52.096Z</time></trkpt><trkpt lat="45.0539417" lon="9.87589"><ele>43.0</ele><time>2026-05-01T10:09:53.097Z</time></trkpt><trkpt lat="45.054005" lon="9.8762367"><ele>43.5</ele><time>2026-05-01T10:09:54.096Z</time></trkpt><trkpt lat="45.0540833" lon="9.876585"><ele>44.0</ele><time>2026-05-01T10:09:55.097Z</time></trkpt><trkpt lat="45.0541517" lon="9.8769383"><ele>44.0</ele><time>2026-05-01T10:09:56.097Z</time></trkpt><trkpt lat="45.0542233" lon="9.87729"><ele>44.0</ele><time>2026-05-01T10:09:57.096Z</time></trkpt><trkpt lat="45.0542983" lon="9.87764"><ele>44.0</ele><time>2026-05-01T10:09:58.097Z</time></trkpt><trkpt lat="45.0543717" lon="9.8780017"><ele>44.0</ele><time>2026-05-01T10:09:59.096Z</time></trkpt><trkpt lat="45.0544433" lon="9.87836"><ele>44.0</ele><time>2026-05-01T10:10:00.096Z</time></trkpt><trkpt lat="45.0545183" lon="9.8787133"><ele>44.0</ele><time>2026-05-01T10:10:01.096Z</time></trkpt><trkpt lat="45.0545933" lon="9.8790667"><ele>43.0</ele><time>2026-05-01T10:10:02.097Z</time></trkpt><trkpt lat="45.054675" lon="9.8794117"><ele>42.0</ele><time>2026-05-01T10:10:03.096Z</time></trkpt><trkpt lat="45.0547483" lon="9.8797617"><ele>42.0</ele><time>2026-05-01T10:10:04.096Z</time></trkpt><trkpt lat="45.05482" lon="9.8800983"><ele>42.0</ele><time>2026-05-01T10:10:05.096Z</time></trkpt><trkpt lat="45.0548917" lon="9.8804383"><ele>43.5</ele><time>2026-05-01T10:10:06.096Z</time></trkpt><trkpt lat="45.0549583" lon="9.8807833"><ele>45.0</ele><time>2026-05-01T10:10:07.096Z</time></trkpt><trkpt lat="45.0550283" lon="9.8811267"><ele>45.5</ele><time>2026-05-01T10:10:08.096Z</time></trkpt><trkpt lat="45.0550983" lon="9.8814717"><ele>46.0</ele><time>2026-05-01T10:10:09.096Z</time></trkpt><trkpt lat="45.0552367" lon="9.8821667"><ele>46.0</ele><time>2026-05-01T10:10:11.097Z</time></trkpt><trkpt lat="45.0553083" lon="9.8825083"><ele>46.0</ele><time>2026-05-01T10:10:12.097Z</time></trkpt><trkpt lat="45.0553733" lon="9.88285"><ele>45.0</ele><time>2026-05-01T10:10:13.096Z</time></trkpt><trkpt lat="45.0554433" lon="9.8831883"><ele>44.0</ele><time>2026-05-01T10:10:14.096Z</time></trkpt><trkpt lat="45.055515" lon="9.883525"><ele>42.0</ele><time>2026-05-01T10:10:15.097Z</time></trkpt><trkpt lat="45.0555883" lon="9.8838717"><ele>40.0</ele><time>2026-05-01T10:10:16.097Z</time></trkpt><trkpt lat="45.05566" lon="9.8842233"><ele>40.5</ele><time>2026-05-01T10:10:17.096Z</time></trkpt><trkpt lat="45.0557283" lon="9.8845783"><ele>41.0</ele><time>2026-05-01T10:10:18.096Z</time></trkpt><trkpt lat="45.0558033" lon="9.8849317"><ele>41.0</ele><time>2026-05-01T10:10:19.096Z</time></trkpt><trkpt lat="45.0558733" lon="9.8852833"><ele>41.0</ele><time>2026-05-01T10:10:20.096Z</time></trkpt><trkpt lat="45.0559467" lon="9.88563"><ele>41.0</ele><time>2026-05-01T10:10:21.096Z</time></trkpt><trkpt lat="45.05602" lon="9.8859817"><ele>41.0</ele><time>2026-05-01T10:10:22.096Z</time></trkpt><trkpt lat="45.05609" lon="9.8863317"><ele>41.0</ele><time>2026-05-01T10:10:23.096Z</time></trkpt><trkpt lat="45.05616" lon="9.8866883"><ele>41.0</ele><time>2026-05-01T10:10:24.097Z</time></trkpt><trkpt lat="45.0562283" lon="9.887045"><ele>41.0</ele><time>2026-05-01T10:10:25.096Z</time></trkpt><trkpt lat="45.0563" lon="9.8873983"><ele>41.0</ele><time>2026-05-01T10:10:26.096Z</time></trkpt><trkpt lat="45.0563733" lon="9.8877533"><ele>41.0</ele><time>2026-05-01T10:10:27.097Z</time></trkpt><trkpt lat="45.0564483" lon="9.888105"><ele>41.0</ele><time>2026-05-01T10:10:28.097Z</time></trkpt><trkpt lat="45.05652" lon="9.88846"><ele>41.0</ele><time>2026-05-01T10:10:29.097Z</time></trkpt><trkpt lat="45.056585" lon="9.888815"><ele>41.0</ele><time>2026-05-01T10:10:30.097Z</time></trkpt><trkpt lat="45.0566533" lon="9.8891733"><ele>41.0</ele><time>2026-05-01T10:10:31.096Z</time></trkpt><trkpt lat="45.0567867" lon="9.8899"><ele>41.0</ele><time>2026-05-01T10:10:33.097Z</time></trkpt><trkpt lat="45.05685" lon="9.890265"><ele>41.0</ele><time>2026-05-01T10:10:34.096Z</time></trkpt><trkpt lat="45.0569133" lon="9.8906233"><ele>41.0</ele><time>2026-05-01T10:10:35.097Z</time></trkpt><trkpt lat="45.056975" lon="9.8909767"><ele>41.0</ele><time>2026-05-01T10:10:36.097Z</time></trkpt><trkpt lat="45.0570317" lon="9.891325"><ele>41.0</ele><time>2026-05-01T10:10:37.097Z</time></trkpt><trkpt lat="45.057085" lon="9.89168"><ele>41.0</ele><time>2026-05-01T10:10:38.097Z</time></trkpt><trkpt lat="45.057135" lon="9.89204"><ele>40.5</ele><time>2026-05-01T10:10:39.096Z</time></trkpt><trkpt lat="45.057185" lon="9.8923967"><ele>40.0</ele><time>2026-05-01T10:10:40.097Z</time></trkpt><trkpt lat="45.05723" lon="9.89276"><ele>40.0</ele><time>2026-05-01T10:10:41.096Z</time></trkpt><trkpt lat="45.0572783" lon="9.89312"><ele>40.0</ele><time>2026-05-01T10:10:42.096Z</time></trkpt><trkpt lat="45.057325" lon="9.8934867"><ele>41.0</ele><time>2026-05-01T10:10:43.096Z</time></trkpt><trkpt lat="45.0573683" lon="9.893855"><ele>42.0</ele><time>2026-05-01T10:10:44.096Z</time></trkpt><trkpt lat="45.0574117" lon="9.894225"><ele>42.0</ele><time>2026-05-01T10:10:45.097Z</time></trkpt><trkpt lat="45.0574517" lon="9.8945883"><ele>42.0</ele><time>2026-05-01T10:10:46.096Z</time></trkpt><trkpt lat="45.0574917" lon="9.8949583"><ele>42.0</ele><time>2026-05-01T10:10:47.097Z</time></trkpt><trkpt lat="45.0575283" lon="9.8953233"><ele>42.0</ele><time>2026-05-01T10:10:48.097Z</time></trkpt><trkpt lat="45.057565" lon="9.8956883"><ele>40.5</ele><time>2026-05-01T10:10:49.097Z</time></trkpt><trkpt lat="45.0575967" lon="9.8960483"><ele>39.0</ele><time>2026-05-01T10:10:50.096Z</time></trkpt><trkpt lat="45.057625" lon="9.8964083"><ele>40.0</ele><time>2026-05-01T10:10:51.095Z</time></trkpt><trkpt lat="45.0576517" lon="9.8967633"><ele>41.0</ele><time>2026-05-01T10:10:52.096Z</time></trkpt><trkpt lat="45.0577017" lon="9.8974667"><ele>41.0</ele><time>2026-05-01T10:10:54.095Z</time></trkpt><trkpt lat="45.057725" lon="9.8978117"><ele>41.0</ele><time>2026-05-01T10:10:55.095Z</time></trkpt><trkpt lat="45.0577467" lon="9.8981617"><ele>41.0</ele><time>2026-05-01T10:10:56.096Z</time></trkpt><trkpt lat="45.0577683" lon="9.8985117"><ele>41.0</ele><time>2026-05-01T10:10:57.096Z</time></trkpt><trkpt lat="45.0577817" lon="9.8988633"><ele>41.0</ele><time>2026-05-01T10:10:58.096Z</time></trkpt><trkpt lat="45.0578" lon="9.89922"><ele>41.0</ele><time>2026-05-01T10:10:59.095Z</time></trkpt><trkpt lat="45.0578133" lon="9.899575"><ele>40.5</ele><time>2026-05-01T10:11:00.095Z</time></trkpt><trkpt lat="45.0578233" lon="9.8999333"><ele>40.0</ele><time>2026-05-01T10:11:01.095Z</time></trkpt><trkpt lat="45.0578317" lon="9.9002933"><ele>39.5</ele><time>2026-05-01T10:11:02.095Z</time></trkpt><trkpt lat="45.05784" lon="9.900655"><ele>39.0</ele><time>2026-05-01T10:11:03.095Z</time></trkpt><trkpt lat="45.057845" lon="9.9010183"><ele>39.0</ele><time>2026-05-01T10:11:04.096Z</time></trkpt><trkpt lat="45.05785" lon="9.9013833"><ele>39.0</ele><time>2026-05-01T10:11:05.096Z</time></trkpt><trkpt lat="45.05785" lon="9.9017533"><ele>39.0</ele><time>2026-05-01T10:11:06.095Z</time></trkpt><trkpt lat="45.05785" lon="9.902125"><ele>39.0</ele><time>2026-05-01T10:11:07.095Z</time></trkpt><trkpt lat="45.0578517" lon="9.902495"><ele>39.5</ele><time>2026-05-01T10:11:08.096Z</time></trkpt><trkpt lat="45.0578517" lon="9.9028683"><ele>40.0</ele><time>2026-05-01T10:11:09.095Z</time></trkpt><trkpt lat="45.0578483" lon="9.9032383"><ele>41.0</ele><time>2026-05-01T10:11:10.096Z</time></trkpt><trkpt lat="45.0578433" lon="9.9036"><ele>42.0</ele><time>2026-05-01T10:11:11.096Z</time></trkpt><trkpt lat="45.0578367" lon="9.9039583"><ele>41.0</ele><time>2026-05-01T10:11:12.095Z</time></trkpt><trkpt lat="45.05783" lon="9.9046667"><ele>41.0</ele><time>2026-05-01T10:11:14.095Z</time></trkpt><trkpt lat="45.057825" lon="9.9050217"><ele>41.0</ele><time>2026-05-01T10:11:15.096Z</time></trkpt><trkpt lat="45.05782" lon="9.9053767"><ele>41.0</ele><time>2026-05-01T10:11:16.096Z</time></trkpt><trkpt lat="45.0578133" lon="9.9057283"><ele>41.0</ele><time>2026-05-01T10:11:17.095Z</time></trkpt><trkpt lat="45.05781" lon="9.906085"><ele>41.0</ele><time>2026-05-01T10:11:18.095Z</time></trkpt><trkpt lat="45.0578067" lon="9.9064383"><ele>41.0</ele><time>2026-05-01T10:11:19.096Z</time></trkpt><trkpt lat="45.0578" lon="9.9067983"><ele>42.0</ele><time>2026-05-01T10:11:20.096Z</time></trkpt><trkpt lat="45.057795" lon="9.9071667"><ele>43.0</ele><time>2026-05-01T10:11:21.095Z</time></trkpt><trkpt lat="45.0577917" lon="9.9075333"><ele>43.5</ele><time>2026-05-01T10:11:22.096Z</time></trkpt><trkpt lat="45.05779" lon="9.9079083"><ele>44.0</ele><time>2026-05-01T10:11:23.095Z</time></trkpt><trkpt lat="45.057785" lon="9.908285"><ele>44.0</ele><time>2026-05-01T10:11:24.096Z</time></trkpt><trkpt lat="45.0577767" lon="9.9086633"><ele>44.0</ele><time>2026-05-01T10:11:25.096Z</time></trkpt><trkpt lat="45.0577717" lon="9.9090467"><ele>43.0</ele><time>2026-05-01T10:11:26.096Z</time></trkpt><trkpt lat="45.0577667" lon="9.9094333"><ele>42.0</ele><time>2026-05-01T10:11:27.096Z</time></trkpt><trkpt lat="45.0577617" lon="9.909825"><ele>42.5</ele><time>2026-05-01T10:11:28.096Z</time></trkpt><trkpt lat="45.0577617" lon="9.9102017"><ele>43.0</ele><time>2026-05-01T10:11:29.095Z</time></trkpt><trkpt lat="45.0577583" lon="9.9105683"><ele>43.5</ele><time>2026-05-01T10:11:30.096Z</time></trkpt><trkpt lat="45.057755" lon="9.9109333"><ele>44.0</ele><time>2026-05-01T10:11:31.096Z</time></trkpt><trkpt lat="45.0577517" lon="9.9113"><ele>44.0</ele><time>2026-05-01T10:11:32.095Z</time></trkpt><trkpt lat="45.0577483" lon="9.9116717"><ele>44.0</ele><time>2026-05-01T10:11:33.096Z</time></trkpt><trkpt lat="45.0577567" lon="9.9124183"><ele>42.0</ele><time>2026-05-01T10:11:35.095Z</time></trkpt><trkpt lat="45.0577583" lon="9.9128017"><ele>40.0</ele><time>2026-05-01T10:11:36.096Z</time></trkpt><trkpt lat="45.05777" lon="9.91318"><ele>40.0</ele><time>2026-05-01T10:11:37.095Z</time></trkpt><trkpt lat="45.0577867" lon="9.9135617"><ele>40.0</ele><time>2026-05-01T10:11:38.096Z</time></trkpt><trkpt lat="45.0578017" lon="9.9139333"><ele>40.5</ele><time>2026-05-01T10:11:39.095Z</time></trkpt><trkpt lat="45.0578183" lon="9.9143"><ele>41.0</ele><time>2026-05-01T10:11:40.095Z</time></trkpt><trkpt lat="45.0578317" lon="9.91466"><ele>41.0</ele><time>2026-05-01T10:11:41.095Z</time></trkpt><trkpt lat="45.0578467" lon="9.915015"><ele>41.0</ele><time>2026-05-01T10:11:42.096Z</time></trkpt><trkpt lat="45.05786" lon="9.9153717"><ele>41.0</ele><time>2026-05-01T10:11:43.096Z</time></trkpt><trkpt lat="45.0578733" lon="9.9157283"><ele>41.0</ele><time>2026-05-01T10:11:44.095Z</time></trkpt><trkpt lat="45.0578917" lon="9.9160833"><ele>41.0</ele><time>2026-05-01T10:11:45.096Z</time></trkpt><trkpt lat="45.0579067" lon="9.9164417"><ele>41.0</ele><time>2026-05-01T10:11:46.095Z</time></trkpt><trkpt lat="45.0579233" lon="9.9168033"><ele>40.5</ele><time>2026-05-01T10:11:47.095Z</time></trkpt><trkpt lat="45.05794" lon="9.9171733"><ele>40.0</ele><time>2026-05-01T10:11:48.096Z</time></trkpt><trkpt lat="45.05796" lon="9.917545"><ele>39.5</ele><time>2026-05-01T10:11:49.095Z</time></trkpt><trkpt lat="45.0579817" lon="9.9179117"><ele>39.0</ele><time>2026-05-01T10:11:50.095Z</time></trkpt><trkpt lat="45.0580067" lon="9.918275"><ele>40.0</ele><time>2026-05-01T10:11:51.095Z</time></trkpt><trkpt lat="45.05803" lon="9.9186283"><ele>41.0</ele><time>2026-05-01T10:11:52.095Z</time></trkpt><trkpt lat="45.05806" lon="9.91898"><ele>41.0</ele><time>2026-05-01T10:11:53.096Z</time></trkpt><trkpt lat="45.0580917" lon="9.9193317"><ele>41.0</ele><time>2026-05-01T10:11:54.096Z</time></trkpt><trkpt lat="45.0581583" lon="9.92004"><ele>40.5</ele><time>2026-05-01T10:11:56.095Z</time></trkpt><trkpt lat="45.058195" lon="9.9203983"><ele>40.0</ele><time>2026-05-01T10:11:57.096Z</time></trkpt><trkpt lat="45.0582283" lon="9.9207633"><ele>39.5</ele><time>2026-05-01T10:11:58.096Z</time></trkpt><trkpt lat="45.0582667" lon="9.9211267"><ele>39.0</ele><time>2026-05-01T10:11:59.095Z</time></trkpt><trkpt lat="45.0583033" lon="9.9214967"><ele>39.0</ele><time>2026-05-01T10:12:00.096Z</time></trkpt><trkpt lat="45.0583383" lon="9.921865"><ele>39.0</ele><time>2026-05-01T10:12:01.095Z</time></trkpt><trkpt lat="45.05837" lon="9.9222367"><ele>39.0</ele><time>2026-05-01T10:12:02.095Z</time></trkpt><trkpt lat="45.0584033" lon="9.9226083"><ele>39.0</ele><time>2026-05-01T10:12:03.095Z</time></trkpt><trkpt lat="45.05844" lon="9.92298"><ele>39.0</ele><time>2026-05-01T10:12:04.095Z</time></trkpt><trkpt lat="45.0584767" lon="9.9233583"><ele>39.0</ele><time>2026-05-01T10:12:05.095Z</time></trkpt><trkpt lat="45.0585117" lon="9.92374"><ele>38.5</ele><time>2026-05-01T10:12:06.095Z</time></trkpt><trkpt lat="45.0585517" lon="9.9241233"><ele>38.0</ele><time>2026-05-01T10:12:07.095Z</time></trkpt><trkpt lat="45.058585" lon="9.9244983"><ele>38.0</ele><time>2026-05-01T10:12:08.096Z</time></trkpt><trkpt lat="45.0586167" lon="9.9248733"><ele>38.0</ele><time>2026-05-01T10:12:09.096Z</time></trkpt><trkpt lat="45.0586517" lon="9.9252417"><ele>39.0</ele><time>2026-05-01T10:12:10.096Z</time></trkpt><trkpt lat="45.0586883" lon="9.9256033"><ele>40.0</ele><time>2026-05-01T10:12:11.096Z</time></trkpt><trkpt lat="45.05872" lon="9.9259617"><ele>40.0</ele><time>2026-05-01T10:12:12.096Z</time></trkpt><trkpt lat="45.0587483" lon="9.9263233"><ele>40.0</ele><time>2026-05-01T10:12:13.095Z</time></trkpt><trkpt lat="45.058785" lon="9.926675"><ele>39.5</ele><time>2026-05-01T10:12:14.095Z</time></trkpt><trkpt lat="45.058815" lon="9.9270283"><ele>39.0</ele><time>2026-05-01T10:12:15.095Z</time></trkpt><trkpt lat="45.058885" lon="9.927725"><ele>38.5</ele><time>2026-05-01T10:12:17.095Z</time></trkpt><trkpt lat="45.0589183" lon="9.92807"><ele>38.0</ele><time>2026-05-01T10:12:18.095Z</time></trkpt><trkpt lat="45.05895" lon="9.928415"><ele>38.0</ele><time>2026-05-01T10:12:19.096Z</time></trkpt><trkpt lat="45.058985" lon="9.92876"><ele>38.0</ele><time>2026-05-01T10:12:20.096Z</time></trkpt><trkpt lat="45.0590167" lon="9.929105"><ele>38.0</ele><time>2026-05-01T10:12:21.096Z</time></trkpt><trkpt lat="45.0590483" lon="9.9294533"><ele>38.0</ele><time>2026-05-01T10:12:22.095Z</time></trkpt><trkpt lat="45.0590783" lon="9.9297983"><ele>39.0</ele><time>2026-05-01T10:12:23.096Z</time></trkpt><trkpt lat="45.0591117" lon="9.9301467"><ele>40.0</ele><time>2026-05-01T10:12:24.095Z</time></trkpt><trkpt lat="45.0591433" lon="9.9304983"><ele>40.0</ele><time>2026-05-01T10:12:25.095Z</time></trkpt><trkpt lat="45.0591767" lon="9.930855"><ele>40.0</ele><time>2026-05-01T10:12:26.095Z</time></trkpt><trkpt lat="45.0592117" lon="9.93121"><ele>40.0</ele><time>2026-05-01T10:12:27.096Z</time></trkpt><trkpt lat="45.0592467" lon="9.9315617"><ele>40.0</ele><time>2026-05-01T10:12:28.096Z</time></trkpt><trkpt lat="45.0592833" lon="9.9319167"><ele>39.0</ele><time>2026-05-01T10:12:29.095Z</time></trkpt><trkpt lat="45.0593183" lon="9.9322817"><ele>38.0</ele><time>2026-05-01T10:12:30.096Z</time></trkpt><trkpt lat="45.0593567" lon="9.9326433"><ele>37.5</ele><time>2026-05-01T10:12:31.095Z</time></trkpt><trkpt lat="45.0593983" lon="9.9330083"><ele>37.0</ele><time>2026-05-01T10:12:32.096Z</time></trkpt><trkpt lat="45.0594433" lon="9.9333717"><ele>37.5</ele><time>2026-05-01T10:12:33.096Z</time></trkpt><trkpt lat="45.0594883" lon="9.9337383"><ele>38.0</ele><time>2026-05-01T10:12:34.096Z</time></trkpt><trkpt lat="45.05954" lon="9.934105"><ele>39.0</ele><time>2026-05-01T10:12:35.095Z</time></trkpt><trkpt lat="45.0596467" lon="9.93485"><ele>38.5</ele><time>2026-05-01T10:12:37.096Z</time></trkpt><trkpt lat="45.0597017" lon="9.9352267"><ele>38.0</ele><time>2026-05-01T10:12:38.096Z</time></trkpt><trkpt lat="45.059755" lon="9.9355917"><ele>37.5</ele><time>2026-05-01T10:12:39.095Z</time></trkpt><trkpt lat="45.0598133" lon="9.9359517"><ele>37.0</ele><time>2026-05-01T10:12:40.096Z</time></trkpt><trkpt lat="45.059875" lon="9.9363067"><ele>37.0</ele><time>2026-05-01T10:12:41.095Z</time></trkpt><trkpt lat="45.0599383" lon="9.93666"><ele>37.0</ele><time>2026-05-01T10:12:42.095Z</time></trkpt><trkpt lat="45.06" lon="9.9370183"><ele>37.0</ele><time>2026-05-01T10:12:43.096Z</time></trkpt><trkpt lat="45.0600667" lon="9.9373783"><ele>37.0</ele><time>2026-05-01T10:12:44.096Z</time></trkpt><trkpt lat="45.0601333" lon="9.9377417"><ele>37.0</ele><time>2026-05-01T10:12:45.096Z</time></trkpt><trkpt lat="45.0602017" lon="9.9381067"><ele>37.0</ele><time>2026-05-01T10:12:46.096Z</time></trkpt><trkpt lat="45.060275" lon="9.93847"><ele>37.0</ele><time>2026-05-01T10:12:47.095Z</time></trkpt><trkpt lat="45.0603517" lon="9.93884"><ele>37.0</ele><time>2026-05-01T10:12:48.095Z</time></trkpt><trkpt lat="45.060425" lon="9.93921"><ele>38.5</ele><time>2026-05-01T10:12:49.096Z</time></trkpt><trkpt lat="45.0605" lon="9.9395833"><ele>40.0</ele><time>2026-05-01T10:12:50.095Z</time></trkpt><trkpt lat="45.0605783" lon="9.9399633"><ele>39.5</ele><time>2026-05-01T10:12:51.095Z</time></trkpt><trkpt lat="45.0606583" lon="9.94034"><ele>39.0</ele><time>2026-05-01T10:12:52.095Z</time></trkpt><trkpt lat="45.0607517" lon="9.9407083"><ele>38.5</ele><time>2026-05-01T10:12:53.095Z</time></trkpt><trkpt lat="45.0608433" lon="9.9410867"><ele>38.0</ele><time>2026-05-01T10:12:54.096Z</time></trkpt><trkpt lat="45.0609333" lon="9.9414617"><ele>38.5</ele><time>2026-05-01T10:12:55.095Z</time></trkpt><trkpt lat="45.0610233" lon="9.9418333"><ele>39.0</ele><time>2026-05-01T10:12:56.096Z</time></trkpt><trkpt lat="45.0612133" lon="9.9425683"><ele>37.5</ele><time>2026-05-01T10:12:58.096Z</time></trkpt><trkpt lat="45.0613083" lon="9.9429417"><ele>36.0</ele><time>2026-05-01T10:12:59.095Z</time></trkpt><trkpt lat="45.0614067" lon="9.9433133"><ele>35.5</ele><time>2026-05-01T10:13:00.096Z</time></trkpt><trkpt lat="45.0615117" lon="9.943685"><ele>35.0</ele><time>2026-05-01T10:13:01.095Z</time></trkpt><trkpt lat="45.0616183" lon="9.944055"><ele>36.5</ele><time>2026-05-01T10:13:02.096Z</time></trkpt><trkpt lat="45.061725" lon="9.9444283"><ele>38.0</ele><time>2026-05-01T10:13:03.095Z</time></trkpt><trkpt lat="45.0618367" lon="9.9447983"><ele>39.5</ele><time>2026-05-01T10:13:04.095Z</time></trkpt><trkpt lat="45.061945" lon="9.9451667"><ele>41.0</ele><time>2026-05-01T10:13:05.095Z</time></trkpt><trkpt lat="45.0620533" lon="9.9455133"><ele>41.0</ele><time>2026-05-01T10:13:06.096Z</time></trkpt><trkpt lat="45.0621583" lon="9.94585"><ele>41.0</ele><time>2026-05-01T10:13:07.096Z</time></trkpt><trkpt lat="45.0622683" lon="9.946185"><ele>40.5</ele><time>2026-05-01T10:13:08.096Z</time></trkpt><trkpt lat="45.0623833" lon="9.9465217"><ele>40.0</ele><time>2026-05-01T10:13:09.096Z</time></trkpt><trkpt lat="45.0624967" lon="9.9468583"><ele>41.0</ele><time>2026-05-01T10:13:10.095Z</time></trkpt><trkpt lat="45.0626133" lon="9.94719"><ele>42.0</ele><time>2026-05-01T10:13:11.096Z</time></trkpt><trkpt lat="45.06273" lon="9.9475283"><ele>41.5</ele><time>2026-05-01T10:13:12.096Z</time></trkpt><trkpt lat="45.0628467" lon="9.9478733"><ele>41.0</ele><time>2026-05-01T10:13:13.095Z</time></trkpt><trkpt lat="45.0629617" lon="9.9482067"><ele>39.0</ele><time>2026-05-01T10:13:14.095Z</time></trkpt><trkpt lat="45.063085" lon="9.9485417"><ele>37.0</ele><time>2026-05-01T10:13:15.095Z</time></trkpt><trkpt lat="45.0632117" lon="9.9488767"><ele>38.0</ele><time>2026-05-01T10:13:16.095Z</time></trkpt><trkpt lat="45.063345" lon="9.9492167"><ele>39.0</ele><time>2026-05-01T10:13:17.096Z</time></trkpt><trkpt lat="45.0636167" lon="9.9498983"><ele>39.0</ele><time>2026-05-01T10:13:19.095Z</time></trkpt><trkpt lat="45.0637617" lon="9.9502417"><ele>39.0</ele><time>2026-05-01T10:13:20.095Z</time></trkpt><trkpt lat="45.063905" lon="9.9505883"><ele>38.5</ele><time>2026-05-01T10:13:21.096Z</time></trkpt><trkpt lat="45.06405" lon="9.9509283"><ele>38.0</ele><time>2026-05-01T10:13:22.095Z</time></trkpt><trkpt lat="45.0641933" lon="9.9512733"><ele>39.0</ele><time>2026-05-01T10:13:23.096Z</time></trkpt><trkpt lat="45.06434" lon="9.9516167"><ele>40.0</ele><time>2026-05-01T10:13:24.096Z</time></trkpt><trkpt lat="45.0644983" lon="9.951945"><ele>38.0</ele><time>2026-05-01T10:13:25.095Z</time></trkpt><trkpt lat="45.0646533" lon="9.952275"><ele>36.0</ele><time>2026-05-01T10:13:26.096Z</time></trkpt><trkpt lat="45.0648117" lon="9.9526133"><ele>35.5</ele><time>2026-05-01T10:13:27.096Z</time></trkpt><trkpt lat="45.0649683" lon="9.9529483"><ele>35.0</ele><time>2026-05-01T10:13:28.096Z</time></trkpt><trkpt lat="45.0651267" lon="9.9532783"><ele>34.5</ele><time>2026-05-01T10:13:29.095Z</time></trkpt><trkpt lat="45.0652867" lon="9.953605"><ele>34.0</ele><time>2026-05-01T10:13:30.095Z</time></trkpt><trkpt lat="45.0654483" lon="9.9539333"><ele>33.5</ele><time>2026-05-01T10:13:31.095Z</time></trkpt><trkpt lat="45.06561" lon="9.9542617"><ele>33.0</ele><time>2026-05-01T10:13:32.095Z</time></trkpt><trkpt lat="45.0657733" lon="9.9545867"><ele>33.5</ele><time>2026-05-01T10:13:33.095Z</time></trkpt><trkpt lat="45.0659417" lon="9.9549067"><ele>34.0</ele><time>2026-05-01T10:13:34.095Z</time></trkpt><trkpt lat="45.0661117" lon="9.9552233"><ele>34.0</ele><time>2026-05-01T10:13:35.096Z</time></trkpt><trkpt lat="45.0662817" lon="9.9555417"><ele>34.0</ele><time>2026-05-01T10:13:36.096Z</time></trkpt><trkpt lat="45.066455" lon="9.9558583"><ele>35.0</ele><time>2026-05-01T10:13:37.096Z</time></trkpt><trkpt lat="45.0666283" lon="9.9561717"><ele>36.0</ele><time>2026-05-01T10:13:38.096Z</time></trkpt><trkpt lat="45.0669783" lon="9.9567883"><ele>36.0</ele><time>2026-05-01T10:13:40.095Z</time></trkpt><trkpt lat="45.0671467" lon="9.9570867"><ele>36.0</ele><time>2026-05-01T10:13:41.095Z</time></trkpt><trkpt lat="45.06731" lon="9.9573717"><ele>36.0</ele><time>2026-05-01T10:13:42.096Z</time></trkpt><trkpt lat="45.0674767" lon="9.9576567"><ele>36.0</ele><time>2026-05-01T10:13:43.096Z</time></trkpt><trkpt lat="45.06765" lon="9.9579383"><ele>36.0</ele><time>2026-05-01T10:13:44.095Z</time></trkpt><trkpt lat="45.0678283" lon="9.9582183"><ele>36.0</ele><time>2026-05-01T10:13:45.095Z</time></trkpt><trkpt lat="45.0680067" lon="9.9585"><ele>35.5</ele><time>2026-05-01T10:13:46.095Z</time></trkpt><trkpt lat="45.0681867" lon="9.95878"><ele>35.0</ele><time>2026-05-01T10:13:47.096Z</time></trkpt><trkpt lat="45.068365" lon="9.95906"><ele>36.5</ele><time>2026-05-01T10:13:48.096Z</time></trkpt><trkpt lat="45.068545" lon="9.959335"><ele>38.0</ele><time>2026-05-01T10:13:49.095Z</time></trkpt><trkpt lat="45.0687217" lon="9.9596083"><ele>38.0</ele><time>2026-05-01T10:13:50.095Z</time></trkpt><trkpt lat="45.0688983" lon="9.95988"><ele>38.0</ele><time>2026-05-01T10:13:51.096Z</time></trkpt><trkpt lat="45.0690783" lon="9.9601483"><ele>38.5</ele><time>2026-05-01T10:13:52.096Z</time></trkpt><trkpt lat="45.0692567" lon="9.960415"><ele>39.0</ele><time>2026-05-01T10:13:53.095Z</time></trkpt><trkpt lat="45.0694383" lon="9.960685"><ele>39.0</ele><time>2026-05-01T10:13:54.096Z</time></trkpt><trkpt lat="45.0696183" lon="9.9609567"><ele>39.0</ele><time>2026-05-01T10:13:55.096Z</time></trkpt><trkpt lat="45.0697933" lon="9.961225"><ele>39.0</ele><time>2026-05-01T10:13:56.096Z</time></trkpt><trkpt lat="45.0699733" lon="9.9615017"><ele>39.0</ele><time>2026-05-01T10:13:57.095Z</time></trkpt><trkpt lat="45.0701517" lon="9.9617733"><ele>39.0</ele><time>2026-05-01T10:13:58.095Z</time></trkpt><trkpt lat="45.0703283" lon="9.962035"><ele>39.0</ele><time>2026-05-01T10:13:59.095Z</time></trkpt><trkpt lat="45.0706633" lon="9.9625417"><ele>37.5</ele><time>2026-05-01T10:14:01.095Z</time></trkpt><trkpt lat="45.07083" lon="9.96279"><ele>36.0</ele><time>2026-05-01T10:14:02.095Z</time></trkpt><trkpt lat="45.0709967" lon="9.9630383"><ele>36.0</ele><time>2026-05-01T10:14:03.095Z</time></trkpt><trkpt lat="45.071165" lon="9.9632883"><ele>36.0</ele><time>2026-05-01T10:14:04.096Z</time></trkpt><trkpt lat="45.0713317" lon="9.96354"><ele>36.0</ele><time>2026-05-01T10:14:05.096Z</time></trkpt><trkpt lat="45.071505" lon="9.96379"><ele>36.0</ele><time>2026-05-01T10:14:06.095Z</time></trkpt><trkpt lat="45.0716733" lon="9.9640483"><ele>36.0</ele><time>2026-05-01T10:14:07.095Z</time></trkpt><trkpt lat="45.0718467" lon="9.9643083"><ele>36.0</ele><time>2026-05-01T10:14:08.095Z</time></trkpt><trkpt lat="45.0720217" lon="9.9645683"><ele>36.0</ele><time>2026-05-01T10:14:09.096Z</time></trkpt><trkpt lat="45.072195" lon="9.9648283"><ele>36.0</ele><time>2026-05-01T10:14:10.096Z</time></trkpt><trkpt lat="45.07237" lon="9.9650867"><ele>36.0</ele><time>2026-05-01T10:14:11.096Z</time></trkpt><trkpt lat="45.072545" lon="9.9653483"><ele>36.0</ele><time>2026-05-01T10:14:12.095Z</time></trkpt><trkpt lat="45.07272" lon="9.9656167"><ele>36.0</ele><time>2026-05-01T10:14:13.095Z</time></trkpt><trkpt lat="45.0728983" lon="9.9658883"><ele>36.0</ele><time>2026-05-01T10:14:14.096Z</time></trkpt><trkpt lat="45.0730783" lon="9.966155"><ele>36.0</ele><time>2026-05-01T10:14:15.095Z</time></trkpt><trkpt lat="45.07326" lon="9.9664317"><ele>36.0</ele><time>2026-05-01T10:14:16.095Z</time></trkpt><trkpt lat="45.0734417" lon="9.966715"><ele>36.5</ele><time>2026-05-01T10:14:17.095Z</time></trkpt><trkpt lat="45.07363" lon="9.9669967"><ele>37.0</ele><time>2026-05-01T10:14:18.095Z</time></trkpt><trkpt lat="45.07382" lon="9.967275"><ele>37.0</ele><time>2026-05-01T10:14:19.095Z</time></trkpt><trkpt lat="45.0740083" lon="9.9675533"><ele>37.0</ele><time>2026-05-01T10:14:20.096Z</time></trkpt><trkpt lat="45.0743767" lon="9.968115"><ele>36.0</ele><time>2026-05-01T10:14:22.095Z</time></trkpt><trkpt lat="45.07456" lon="9.9683883"><ele>35.0</ele><time>2026-05-01T10:14:23.096Z</time></trkpt><trkpt lat="45.0747417" lon="9.9686617"><ele>35.0</ele><time>2026-05-01T10:14:24.095Z</time></trkpt><trkpt lat="45.0749267" lon="9.9689383"><ele>35.0</ele><time>2026-05-01T10:14:25.096Z</time></trkpt><trkpt lat="45.0751117" lon="9.969215"><ele>35.0</ele><time>2026-05-01T10:14:26.096Z</time></trkpt><trkpt lat="45.075295" lon="9.969495"><ele>35.0</ele><time>2026-05-01T10:14:27.096Z</time></trkpt><trkpt lat="45.075475" lon="9.9697733"><ele>35.5</ele><time>2026-05-01T10:14:28.095Z</time></trkpt><trkpt lat="45.07566" lon="9.9700483"><ele>36.0</ele><time>2026-05-01T10:14:29.096Z</time></trkpt><trkpt lat="45.075845" lon="9.9703267"><ele>35.0</ele><time>2026-05-01T10:14:30.096Z</time></trkpt><trkpt lat="45.07603" lon="9.9706033"><ele>34.0</ele><time>2026-05-01T10:14:31.095Z</time></trkpt><trkpt lat="45.0762167" lon="9.9708833"><ele>33.5</ele><time>2026-05-01T10:14:32.095Z</time></trkpt><trkpt lat="45.0764067" lon="9.9711667"><ele>33.0</ele><time>2026-05-01T10:14:33.096Z</time></trkpt><trkpt lat="45.0765933" lon="9.9714533"><ele>33.5</ele><time>2026-05-01T10:14:34.095Z</time></trkpt><trkpt lat="45.0767783" lon="9.9717433"><ele>34.0</ele><time>2026-05-01T10:14:35.095Z</time></trkpt><trkpt lat="45.07696" lon="9.9720333"><ele>34.0</ele><time>2026-05-01T10:14:36.095Z</time></trkpt><trkpt lat="45.0771433" lon="9.9723233"><ele>34.0</ele><time>2026-05-01T10:14:37.096Z</time></trkpt><trkpt lat="45.0773233" lon="9.972615"><ele>34.5</ele><time>2026-05-01T10:14:38.096Z</time></trkpt><trkpt lat="45.0775033" lon="9.9729117"><ele>35.0</ele><time>2026-05-01T10:14:39.096Z</time></trkpt><trkpt lat="45.07768" lon="9.9732133"><ele>34.0</ele><time>2026-05-01T10:14:40.096Z</time></trkpt><trkpt lat="45.0778517" lon="9.973525"><ele>33.0</ele><time>2026-05-01T10:14:41.095Z</time></trkpt><trkpt lat="45.078195" lon="9.974155"><ele>33.5</ele><time>2026-05-01T10:14:43.095Z</time></trkpt><trkpt lat="45.0783583" lon="9.9744633"><ele>34.0</ele><time>2026-05-01T10:14:44.095Z</time></trkpt><trkpt lat="45.07852" lon="9.974765"><ele>34.5</ele><time>2026-05-01T10:14:45.095Z</time></trkpt><trkpt lat="45.0786733" lon="9.9750717"><ele>35.0</ele><time>2026-05-01T10:14:46.096Z</time></trkpt><trkpt lat="45.07882" lon="9.97538"><ele>35.0</ele><time>2026-05-01T10:14:47.096Z</time></trkpt><trkpt lat="45.07897" lon="9.9756833"><ele>35.0</ele><time>2026-05-01T10:14:48.096Z</time></trkpt><trkpt lat="45.07912" lon="9.9759867"><ele>37.5</ele><time>2026-05-01T10:14:49.095Z</time></trkpt><trkpt lat="45.0792683" lon="9.9762967"><ele>40.0</ele><time>2026-05-01T10:14:50.096Z</time></trkpt><trkpt lat="45.0794117" lon="9.9766033"><ele>38.5</ele><time>2026-05-01T10:14:51.095Z</time></trkpt><trkpt lat="45.0795467" lon="9.9769133"><ele>37.0</ele><time>2026-05-01T10:14:52.096Z</time></trkpt><trkpt lat="45.0796917" lon="9.9772283"><ele>37.0</ele><time>2026-05-01T10:14:53.095Z</time></trkpt><trkpt lat="45.0798317" lon="9.97754"><ele>37.0</ele><time>2026-05-01T10:14:54.095Z</time></trkpt><trkpt lat="45.0799667" lon="9.9778583"><ele>37.0</ele><time>2026-05-01T10:14:55.095Z</time></trkpt><trkpt lat="45.0801017" lon="9.9781767"><ele>37.0</ele><time>2026-05-01T10:14:56.095Z</time></trkpt><trkpt lat="45.08024" lon="9.9784917"><ele>36.5</ele><time>2026-05-01T10:14:57.095Z</time></trkpt><trkpt lat="45.0803767" lon="9.978805"><ele>36.0</ele><time>2026-05-01T10:14:58.095Z</time></trkpt><trkpt lat="45.0805067" lon="9.97912"><ele>35.5</ele><time>2026-05-01T10:14:59.095Z</time></trkpt><trkpt lat="45.0806283" lon="9.9794283"><ele>35.0</ele><time>2026-05-01T10:15:00.096Z</time></trkpt><trkpt lat="45.0807533" lon="9.9797317"><ele>36.0</ele><time>2026-05-01T10:15:01.095Z</time></trkpt><trkpt lat="45.08087" lon="9.9800417"><ele>37.0</ele><time>2026-05-01T10:15:02.096Z</time></trkpt><trkpt lat="45.0811117" lon="9.9806833"><ele>36.5</ele><time>2026-05-01T10:15:04.095Z</time></trkpt><trkpt lat="45.0812367" lon="9.981"><ele>36.0</ele><time>2026-05-01T10:15:05.095Z</time></trkpt><trkpt lat="45.0813583" lon="9.9813283"><ele>36.0</ele><time>2026-05-01T10:15:06.096Z</time></trkpt><trkpt lat="45.08149" lon="9.9816633"><ele>36.0</ele><time>2026-05-01T10:15:07.095Z</time></trkpt><trkpt lat="45.0816217" lon="9.981995"><ele>36.5</ele><time>2026-05-01T10:15:08.095Z</time></trkpt><trkpt lat="45.0817533" lon="9.9823333"><ele>37.0</ele><time>2026-05-01T10:15:09.095Z</time></trkpt><trkpt lat="45.0818783" lon="9.9826633"><ele>37.5</ele><time>2026-05-01T10:15:10.096Z</time></trkpt><trkpt lat="45.0820017" lon="9.9829883"><ele>38.0</ele><time>2026-05-01T10:15:11.096Z</time></trkpt><trkpt lat="45.082125" lon="9.9833117"><ele>37.5</ele><time>2026-05-01T10:15:12.096Z</time></trkpt><trkpt lat="45.0822467" lon="9.9836383"><ele>37.0</ele><time>2026-05-01T10:15:13.096Z</time></trkpt><trkpt lat="45.0823717" lon="9.983965"><ele>38.0</ele><time>2026-05-01T10:15:14.095Z</time></trkpt><trkpt lat="45.0824917" lon="9.9843017"><ele>39.0</ele><time>2026-05-01T10:15:15.096Z</time></trkpt><trkpt lat="45.08261" lon="9.98463"><ele>39.0</ele><time>2026-05-01T10:15:16.096Z</time></trkpt><trkpt lat="45.08273" lon="9.98497"><ele>39.0</ele><time>2026-05-01T10:15:17.095Z</time></trkpt><trkpt lat="45.0828433" lon="9.9853183"><ele>37.5</ele><time>2026-05-01T10:15:18.096Z</time></trkpt><trkpt lat="45.082955" lon="9.98566"><ele>36.0</ele><time>2026-05-01T10:15:19.095Z</time></trkpt><trkpt lat="45.0830667" lon="9.9859967"><ele>36.0</ele><time>2026-05-01T10:15:20.096Z</time></trkpt><trkpt lat="45.0831817" lon="9.9863333"><ele>36.0</ele><time>2026-05-01T10:15:21.095Z</time></trkpt><trkpt lat="45.0833033" lon="9.9866567"><ele>36.5</ele><time>2026-05-01T10:15:22.095Z</time></trkpt><trkpt lat="45.0834267" lon="9.98699"><ele>37.0</ele><time>2026-05-01T10:15:23.096Z</time></trkpt><trkpt lat="45.08368" lon="9.9876317"><ele>37.0</ele><time>2026-05-01T10:15:25.095Z</time></trkpt><trkpt lat="45.083805" lon="9.9879533"><ele>37.0</ele><time>2026-05-01T10:15:26.095Z</time></trkpt><trkpt lat="45.08392" lon="9.9882817"><ele>37.0</ele><time>2026-05-01T10:15:27.096Z</time></trkpt><trkpt lat="45.0840433" lon="9.9886083"><ele>37.0</ele><time>2026-05-01T10:15:28.095Z</time></trkpt><trkpt lat="45.0841667" lon="9.98893"><ele>36.5</ele><time>2026-05-01T10:15:29.095Z</time></trkpt><trkpt lat="45.0842933" lon="9.9892483"><ele>36.0</ele><time>2026-05-01T10:15:30.095Z</time></trkpt><trkpt lat="45.0844183" lon="9.9895733"><ele>36.0</ele><time>2026-05-01T10:15:31.096Z</time></trkpt><trkpt lat="45.084545" lon="9.989895"><ele>36.0</ele><time>2026-05-01T10:15:32.095Z</time></trkpt><trkpt lat="45.08467" lon="9.9902117"><ele>36.0</ele><time>2026-05-01T10:15:33.095Z</time></trkpt><trkpt lat="45.0848033" lon="9.9905217"><ele>36.0</ele><time>2026-05-01T10:15:34.095Z</time></trkpt><trkpt lat="45.0849367" lon="9.9908283"><ele>37.0</ele><time>2026-05-01T10:15:35.095Z</time></trkpt><trkpt lat="45.0850667" lon="9.9911383"><ele>38.0</ele><time>2026-05-01T10:15:36.096Z</time></trkpt><trkpt lat="45.0851917" lon="9.9914467"><ele>38.0</ele><time>2026-05-01T10:15:37.096Z</time></trkpt><trkpt lat="45.0853217" lon="9.9917517"><ele>38.0</ele><time>2026-05-01T10:15:38.096Z</time></trkpt><trkpt lat="45.0854517" lon="9.9920633"><ele>38.0</ele><time>2026-05-01T10:15:39.096Z</time></trkpt><trkpt lat="45.0855817" lon="9.992375"><ele>38.0</ele><time>2026-05-01T10:15:40.095Z</time></trkpt><trkpt lat="45.0857183" lon="9.992685"><ele>37.5</ele><time>2026-05-01T10:15:41.096Z</time></trkpt><trkpt lat="45.08586" lon="9.993005"><ele>37.0</ele><time>2026-05-01T10:15:42.096Z</time></trkpt><trkpt lat="45.0860083" lon="9.9933233"><ele>37.0</ele><time>2026-05-01T10:15:43.095Z</time></trkpt><trkpt lat="45.0861633" lon="9.99365"><ele>37.0</ele><time>2026-05-01T10:15:44.096Z</time></trkpt><trkpt lat="45.0864817" lon="9.994315"><ele>37.0</ele><time>2026-05-01T10:15:46.095Z</time></trkpt><trkpt lat="45.0866433" lon="9.9946517"><ele>37.0</ele><time>2026-05-01T10:15:47.095Z</time></trkpt><trkpt lat="45.0868033" lon="9.9949933"><ele>36.5</ele><time>2026-05-01T10:15:48.096Z</time></trkpt><trkpt lat="45.0869667" lon="9.9953317"><ele>36.0</ele><time>2026-05-01T10:15:49.096Z</time></trkpt><trkpt lat="45.0871283" lon="9.99567"><ele>36.5</ele><time>2026-05-01T10:15:50.095Z</time></trkpt><trkpt lat="45.0872917" lon="9.99601"><ele>37.0</ele><time>2026-05-01T10:15:51.095Z</time></trkpt><trkpt lat="45.0874517" lon="9.9963517"><ele>36.5</ele><time>2026-05-01T10:15:52.096Z</time></trkpt><trkpt lat="45.0876117" lon="9.9966833"><ele>36.0</ele><time>2026-05-01T10:15:53.095Z</time></trkpt><trkpt lat="45.0877617" lon="9.9970017"><ele>36.0</ele><time>2026-05-01T10:15:54.096Z</time></trkpt><trkpt lat="45.087915" lon="9.9973183"><ele>36.0</ele><time>2026-05-01T10:15:55.095Z</time></trkpt><trkpt lat="45.0880667" lon="9.9976433"><ele>36.5</ele><time>2026-05-01T10:15:56.095Z</time></trkpt><trkpt lat="45.08822" lon="9.9979567"><ele>37.0</ele><time>2026-05-01T10:15:57.096Z</time></trkpt><trkpt lat="45.0883767" lon="9.9982733"><ele>36.0</ele><time>2026-05-01T10:15:58.095Z</time></trkpt><trkpt lat="45.08853" lon="9.9985833"><ele>35.0</ele><time>2026-05-01T10:15:59.096Z</time></trkpt><trkpt lat="45.0886783" lon="9.9988833"><ele>35.0</ele><time>2026-05-01T10:16:00.095Z</time></trkpt><trkpt lat="45.0888233" lon="9.9991767"><ele>35.0</ele><time>2026-05-01T10:16:01.096Z</time></trkpt><trkpt lat="45.0889667" lon="9.9994733"><ele>34.5</ele><time>2026-05-01T10:16:02.095Z</time></trkpt><trkpt lat="45.0891133" lon="9.9997833"><ele>34.0</ele><time>2026-05-01T10:16:03.095Z</time></trkpt><trkpt lat="45.0892583" lon="10.000095"><ele>34.0</ele><time>2026-05-01T10:16:04.096Z</time></trkpt><trkpt lat="45.0894117" lon="10.000405"><ele>34.0</ele><time>2026-05-01T10:16:05.095Z</time></trkpt><trkpt lat="45.089715" lon="10.001035"><ele>34.0</ele><time>2026-05-01T10:16:07.095Z</time></trkpt><trkpt lat="45.0898667" lon="10.001355"><ele>34.0</ele><time>2026-05-01T10:16:08.095Z</time></trkpt><trkpt lat="45.09002" lon="10.001675"><ele>35.0</ele><time>2026-05-01T10:16:09.096Z</time></trkpt><trkpt lat="45.0901683" lon="10.002"><ele>36.0</ele><time>2026-05-01T10:16:10.096Z</time></trkpt><trkpt lat="45.0903217" lon="10.0023267"><ele>36.5</ele><time>2026-05-01T10:16:11.096Z</time></trkpt><trkpt lat="45.090475" lon="10.00265"><ele>37.0</ele><time>2026-05-01T10:16:12.095Z</time></trkpt><trkpt lat="45.0906317" lon="10.0029733"><ele>37.0</ele><time>2026-05-01T10:16:13.096Z</time></trkpt><trkpt lat="45.0907917" lon="10.0032967"><ele>37.0</ele><time>2026-05-01T10:16:14.095Z</time></trkpt><trkpt lat="45.09095" lon="10.003615"><ele>37.0</ele><time>2026-05-01T10:16:15.096Z</time></trkpt><trkpt lat="45.091105" lon="10.0039333"><ele>37.0</ele><time>2026-05-01T10:16:16.095Z</time></trkpt><trkpt lat="45.09126" lon="10.00426"><ele>37.0</ele><time>2026-05-01T10:16:17.095Z</time></trkpt><trkpt lat="45.0914117" lon="10.0045767"><ele>37.0</ele><time>2026-05-01T10:16:18.095Z</time></trkpt><trkpt lat="45.0915617" lon="10.0048967"><ele>36.5</ele><time>2026-05-01T10:16:19.096Z</time></trkpt><trkpt lat="45.0917117" lon="10.0052133"><ele>36.0</ele><time>2026-05-01T10:16:20.095Z</time></trkpt><trkpt lat="45.09186" lon="10.00552"><ele>36.0</ele><time>2026-05-01T10:16:21.096Z</time></trkpt><trkpt lat="45.0920033" lon="10.0058233"><ele>36.0</ele><time>2026-05-01T10:16:22.096Z</time></trkpt><trkpt lat="45.0921533" lon="10.0061267"><ele>36.5</ele><time>2026-05-01T10:16:23.096Z</time></trkpt><trkpt lat="45.0923" lon="10.0064233"><ele>37.0</ele><time>2026-05-01T10:16:24.095Z</time></trkpt><trkpt lat="45.0924467" lon="10.00672"><ele>37.0</ele><time>2026-05-01T10:16:25.095Z</time></trkpt><trkpt lat="45.0925883" lon="10.00702"><ele>37.0</ele><time>2026-05-01T10:16:26.095Z</time></trkpt><trkpt lat="45.0928767" lon="10.0076033"><ele>36.0</ele><time>2026-05-01T10:16:28.095Z</time></trkpt><trkpt lat="45.093025" lon="10.007895"><ele>35.0</ele><time>2026-05-01T10:16:29.096Z</time></trkpt><trkpt lat="45.09317" lon="10.0081867"><ele>36.0</ele><time>2026-05-01T10:16:30.096Z</time></trkpt><trkpt lat="45.0933167" lon="10.0084833"><ele>37.0</ele><time>2026-05-01T10:16:31.095Z</time></trkpt><trkpt lat="45.0934667" lon="10.008785"><ele>37.0</ele><time>2026-05-01T10:16:32.096Z</time></trkpt><trkpt lat="45.0936167" lon="10.00909"><ele>37.0</ele><time>2026-05-01T10:16:33.096Z</time></trkpt><trkpt lat="45.093765" lon="10.0093967"><ele>36.5</ele><time>2026-05-01T10:16:34.096Z</time></trkpt><trkpt lat="45.0939167" lon="10.0097083"><ele>36.0</ele><time>2026-05-01T10:16:35.095Z</time></trkpt><trkpt lat="45.0940633" lon="10.0100267"><ele>37.0</ele><time>2026-05-01T10:16:36.096Z</time></trkpt><trkpt lat="45.0942133" lon="10.01034"><ele>38.0</ele><time>2026-05-01T10:16:37.095Z</time></trkpt><trkpt lat="45.0943633" lon="10.010655"><ele>38.0</ele><time>2026-05-01T10:16:38.095Z</time></trkpt><trkpt lat="45.094515" lon="10.0109667"><ele>38.0</ele><time>2026-05-01T10:16:39.096Z</time></trkpt><trkpt lat="45.0946667" lon="10.011275"><ele>38.0</ele><time>2026-05-01T10:16:40.095Z</time></trkpt><trkpt lat="45.0948183" lon="10.0115883"><ele>38.0</ele><time>2026-05-01T10:16:41.096Z</time></trkpt><trkpt lat="45.094965" lon="10.0118983"><ele>37.5</ele><time>2026-05-01T10:16:42.095Z</time></trkpt><trkpt lat="45.0951117" lon="10.0122033"><ele>37.0</ele><time>2026-05-01T10:16:43.095Z</time></trkpt><trkpt lat="45.09526" lon="10.0125067"><ele>36.5</ele><time>2026-05-01T10:16:44.095Z</time></trkpt><trkpt lat="45.0954083" lon="10.0128067"><ele>36.0</ele><time>2026-05-01T10:16:45.095Z</time></trkpt><trkpt lat="45.0955517" lon="10.0131083"><ele>36.0</ele><time>2026-05-01T10:16:46.095Z</time></trkpt><trkpt lat="45.0957" lon="10.013415"><ele>36.0</ele><time>2026-05-01T10:16:47.095Z</time></trkpt><trkpt lat="45.0959983" lon="10.0140267"><ele>36.0</ele><time>2026-05-01T10:16:49.096Z</time></trkpt><trkpt lat="45.0961433" lon="10.014335"><ele>36.0</ele><time>2026-05-01T10:16:50.095Z</time></trkpt><trkpt lat="45.09629" lon="10.0146483"><ele>36.0</ele><time>2026-05-01T10:16:51.095Z</time></trkpt><trkpt lat="45.09644" lon="10.0149583"><ele>36.0</ele><time>2026-05-01T10:16:52.096Z</time></trkpt><trkpt lat="45.0965883" lon="10.0152717"><ele>36.0</ele><time>2026-05-01T10:16:53.095Z</time></trkpt><trkpt lat="45.0967317" lon="10.0155817"><ele>36.0</ele><time>2026-05-01T10:16:54.095Z</time></trkpt><trkpt lat="45.0968783" lon="10.01589"><ele>35.0</ele><time>2026-05-01T10:16:55.096Z</time></trkpt><trkpt lat="45.0970267" lon="10.0161967"><ele>34.0</ele><time>2026-05-01T10:16:56.095Z</time></trkpt><trkpt lat="45.0971717" lon="10.0164983"><ele>33.5</ele><time>2026-05-01T10:16:57.096Z</time></trkpt><trkpt lat="45.0973183" lon="10.0168"><ele>33.0</ele><time>2026-05-01T10:16:58.096Z</time></trkpt><trkpt lat="45.09746" lon="10.0170967"><ele>33.0</ele><time>2026-05-01T10:16:59.095Z</time></trkpt><trkpt lat="45.097605" lon="10.0173917"><ele>33.0</ele><time>2026-05-01T10:17:00.095Z</time></trkpt><trkpt lat="45.0977467" lon="10.0176917"><ele>34.5</ele><time>2026-05-01T10:17:01.095Z</time></trkpt><trkpt lat="45.0978883" lon="10.0179867"><ele>36.0</ele><time>2026-05-01T10:17:02.096Z</time></trkpt><trkpt lat="45.098035" lon="10.018285"><ele>36.0</ele><time>2026-05-01T10:17:03.095Z</time></trkpt><trkpt lat="45.0981833" lon="10.018575"><ele>36.0</ele><time>2026-05-01T10:17:04.095Z</time></trkpt><trkpt lat="45.098325" lon="10.0188783"><ele>36.5</ele><time>2026-05-01T10:17:05.096Z</time></trkpt><trkpt lat="45.0984667" lon="10.0191767"><ele>37.0</ele><time>2026-05-01T10:17:06.095Z</time></trkpt><trkpt lat="45.0986033" lon="10.0194633"><ele>37.0</ele><time>2026-05-01T10:17:07.095Z</time></trkpt><trkpt lat="45.098735" lon="10.0197583"><ele>37.0</ele><time>2026-05-01T10:17:08.096Z</time></trkpt><trkpt lat="45.0990183" lon="10.0203367"><ele>37.0</ele><time>2026-05-01T10:17:10.095Z</time></trkpt><trkpt lat="45.099155" lon="10.0206333"><ele>37.0</ele><time>2026-05-01T10:17:11.095Z</time></trkpt><trkpt lat="45.0992967" lon="10.0209333"><ele>37.0</ele><time>2026-05-01T10:17:12.096Z</time></trkpt><trkpt lat="45.09944" lon="10.0212283"><ele>37.0</ele><time>2026-05-01T10:17:13.096Z</time></trkpt><trkpt lat="45.0995867" lon="10.0215367"><ele>35.5</ele><time>2026-05-01T10:17:14.096Z</time></trkpt><trkpt lat="45.0997367" lon="10.02184"><ele>34.0</ele><time>2026-05-01T10:17:15.096Z</time></trkpt><trkpt lat="45.0998867" lon="10.02215"><ele>35.0</ele><time>2026-05-01T10:17:16.095Z</time></trkpt><trkpt lat="45.10004" lon="10.0224617"><ele>36.0</ele><time>2026-05-01T10:17:17.095Z</time></trkpt><trkpt lat="45.1001917" lon="10.0227767"><ele>36.0</ele><time>2026-05-01T10:17:18.096Z</time></trkpt><trkpt lat="45.100345" lon="10.02309"><ele>36.0</ele><time>2026-05-01T10:17:19.095Z</time></trkpt><trkpt lat="45.1006483" lon="10.0237267"><ele>33.5</ele><time>2026-05-01T10:17:21.095Z</time></trkpt><trkpt lat="45.1007967" lon="10.02404"><ele>31.0</ele><time>2026-05-01T10:17:22.096Z</time></trkpt><trkpt lat="45.1009433" lon="10.0243467"><ele>30.5</ele><time>2026-05-01T10:17:23.095Z</time></trkpt><trkpt lat="45.101085" lon="10.02465"><ele>30.0</ele><time>2026-05-01T10:17:24.095Z</time></trkpt><trkpt lat="45.1012283" lon="10.0249483"><ele>30.0</ele><time>2026-05-01T10:17:25.096Z</time></trkpt><trkpt lat="45.1013667" lon="10.0252433"><ele>30.0</ele><time>2026-05-01T10:17:26.095Z</time></trkpt><trkpt lat="45.1015033" lon="10.0255333"><ele>28.5</ele><time>2026-05-01T10:17:27.095Z</time></trkpt><trkpt lat="45.1016417" lon="10.0258233"><ele>27.0</ele><time>2026-05-01T10:17:28.096Z</time></trkpt><trkpt lat="45.101785" lon="10.0261167"><ele>27.0</ele><time>2026-05-01T10:17:29.095Z</time></trkpt><trkpt lat="45.102075" lon="10.0267067"><ele>27.0</ele><time>2026-05-01T10:17:31.095Z</time></trkpt><trkpt lat="45.102215" lon="10.0270033"><ele>27.0</ele><time>2026-05-01T10:17:32.095Z</time></trkpt><trkpt lat="45.1023567" lon="10.0272967"><ele>29.0</ele><time>2026-05-01T10:17:33.095Z</time></trkpt><trkpt lat="45.1024983" lon="10.02759"><ele>31.0</ele><time>2026-05-01T10:17:34.095Z</time></trkpt><trkpt lat="45.1026367" lon="10.0278933"><ele>31.0</ele><time>2026-05-01T10:17:35.095Z</time></trkpt><trkpt lat="45.1027833" lon="10.0281917"><ele>31.0</ele><time>2026-05-01T10:17:36.096Z</time></trkpt><trkpt lat="45.1029283" lon="10.0284933"><ele>32.0</ele><time>2026-05-01T10:17:37.096Z</time></trkpt><trkpt lat="45.10307" lon="10.0287817"><ele>33.0</ele><time>2026-05-01T10:17:38.095Z</time></trkpt><trkpt lat="45.1032033" lon="10.0290717"><ele>37.0</ele><time>2026-05-01T10:17:39.095Z</time></trkpt><trkpt lat="45.10334" lon="10.0293567"><ele>41.0</ele><time>2026-05-01T10:17:40.096Z</time></trkpt><trkpt lat="45.103475" lon="10.0296383"><ele>41.0</ele><time>2026-05-01T10:17:41.095Z</time></trkpt><trkpt lat="45.1036067" lon="10.0299233"><ele>41.0</ele><time>2026-05-01T10:17:42.095Z</time></trkpt><trkpt lat="45.1037317" lon="10.0302117"><ele>40.0</ele><time>2026-05-01T10:17:43.095Z</time></trkpt><trkpt lat="45.103985" lon="10.0308"><ele>39.0</ele><time>2026-05-01T10:17:45.095Z</time></trkpt><trkpt lat="45.104105" lon="10.0311117"><ele>38.0</ele><time>2026-05-01T10:17:46.096Z</time></trkpt><trkpt lat="45.1042283" lon="10.0314283"><ele>38.0</ele><time>2026-05-01T10:17:47.096Z</time></trkpt><trkpt lat="45.104345" lon="10.0317483"><ele>38.0</ele><time>2026-05-01T10:17:48.095Z</time></trkpt><trkpt lat="45.1044633" lon="10.032075"><ele>38.0</ele><time>2026-05-01T10:17:49.095Z</time></trkpt><trkpt lat="45.1045783" lon="10.0324083"><ele>38.0</ele><time>2026-05-01T10:17:50.096Z</time></trkpt><trkpt lat="45.1048133" lon="10.03308"><ele>37.5</ele><time>2026-05-01T10:17:52.095Z</time></trkpt><trkpt lat="45.1049233" lon="10.0333983"><ele>37.0</ele><time>2026-05-01T10:17:53.096Z</time></trkpt><trkpt lat="45.1050317" lon="10.033715"><ele>37.0</ele><time>2026-05-01T10:17:54.095Z</time></trkpt><trkpt lat="45.10514" lon="10.0340267"><ele>37.0</ele><time>2026-05-01T10:17:55.096Z</time></trkpt><trkpt lat="45.1052467" lon="10.0343383"><ele>37.0</ele><time>2026-05-01T10:17:56.095Z</time></trkpt><trkpt lat="45.1053483" lon="10.0346433"><ele>37.0</ele><time>2026-05-01T10:17:57.095Z</time></trkpt><trkpt lat="45.1055583" lon="10.03525"><ele>36.0</ele><time>2026-05-01T10:17:59.096Z</time></trkpt><trkpt lat="45.105665" lon="10.03555"><ele>35.0</ele><time>2026-05-01T10:18:00.095Z</time></trkpt><trkpt lat="45.1057683" lon="10.0358533"><ele>35.0</ele><time>2026-05-01T10:18:01.095Z</time></trkpt><trkpt lat="45.10588" lon="10.0361633"><ele>35.0</ele><time>2026-05-01T10:18:02.095Z</time></trkpt><trkpt lat="45.10598" lon="10.036485"><ele>35.5</ele><time>2026-05-01T10:18:03.096Z</time></trkpt><trkpt lat="45.10608" lon="10.036805"><ele>36.0</ele><time>2026-05-01T10:18:04.095Z</time></trkpt><trkpt lat="45.1061883" lon="10.0371283"><ele>36.0</ele><time>2026-05-01T10:18:05.095Z</time></trkpt><trkpt lat="45.1063" lon="10.0374483"><ele>36.0</ele><time>2026-05-01T10:18:06.096Z</time></trkpt><trkpt lat="45.10641" lon="10.0377717"><ele>35.0</ele><time>2026-05-01T10:18:07.095Z</time></trkpt><trkpt lat="45.1065183" lon="10.0381017"><ele>34.0</ele><time>2026-05-01T10:18:08.095Z</time></trkpt><trkpt lat="45.1066267" lon="10.03843"><ele>36.5</ele><time>2026-05-01T10:18:09.096Z</time></trkpt><trkpt lat="45.1067467" lon="10.0387583"><ele>39.0</ele><time>2026-05-01T10:18:10.096Z</time></trkpt><trkpt lat="45.1068583" lon="10.0390983"><ele>39.0</ele><time>2026-05-01T10:18:11.096Z</time></trkpt><trkpt lat="45.1070817" lon="10.03977"><ele>38.5</ele><time>2026-05-01T10:18:13.095Z</time></trkpt><trkpt lat="45.1071933" lon="10.040105"><ele>38.0</ele><time>2026-05-01T10:18:14.096Z</time></trkpt><trkpt lat="45.107305" lon="10.0404483"><ele>38.0</ele><time>2026-05-01T10:18:15.096Z</time></trkpt><trkpt lat="45.1074183" lon="10.040785"><ele>38.0</ele><time>2026-05-01T10:18:16.096Z</time></trkpt><trkpt lat="45.1075333" lon="10.041125"><ele>37.0</ele><time>2026-05-01T10:18:17.095Z</time></trkpt><trkpt lat="45.10765" lon="10.0414683"><ele>36.0</ele><time>2026-05-01T10:18:18.095Z</time></trkpt><trkpt lat="45.1077617" lon="10.0418133"><ele>36.0</ele><time>2026-05-01T10:18:19.095Z</time></trkpt><trkpt lat="45.107875" lon="10.0421667"><ele>36.0</ele><time>2026-05-01T10:18:20.096Z</time></trkpt><trkpt lat="45.1079933" lon="10.042505"><ele>35.5</ele><time>2026-05-01T10:18:21.096Z</time></trkpt><trkpt lat="45.1081133" lon="10.0428383"><ele>35.0</ele><time>2026-05-01T10:18:22.095Z</time></trkpt><trkpt lat="45.108235" lon="10.0431783"><ele>34.5</ele><time>2026-05-01T10:18:23.095Z</time></trkpt><trkpt lat="45.1083567" lon="10.0435167"><ele>34.0</ele><time>2026-05-01T10:18:24.096Z</time></trkpt><trkpt lat="45.108475" lon="10.0438567"><ele>35.0</ele><time>2026-05-01T10:18:25.095Z</time></trkpt><trkpt lat="45.1087033" lon="10.0445267"><ele>35.0</ele><time>2026-05-01T10:18:27.095Z</time></trkpt><trkpt lat="45.108815" lon="10.044855"><ele>35.0</ele><time>2026-05-01T10:18:28.096Z</time></trkpt><trkpt lat="45.1089283" lon="10.0451783"><ele>34.0</ele><time>2026-05-01T10:18:29.096Z</time></trkpt><trkpt lat="45.1091483" lon="10.045825"><ele>34.0</ele><time>2026-05-01T10:18:31.095Z</time></trkpt><trkpt lat="45.10926" lon="10.0461467"><ele>34.0</ele><time>2026-05-01T10:18:32.095Z</time></trkpt><trkpt lat="45.1094817" lon="10.0467917"><ele>33.5</ele><time>2026-05-01T10:18:34.095Z</time></trkpt><trkpt lat="45.1095933" lon="10.0471167"><ele>33.0</ele><time>2026-05-01T10:18:35.095Z</time></trkpt><trkpt lat="45.109705" lon="10.0474367"><ele>33.5</ele><time>2026-05-01T10:18:36.096Z</time></trkpt><trkpt lat="45.1098167" lon="10.047765"><ele>34.0</ele><time>2026-05-01T10:18:37.095Z</time></trkpt><trkpt lat="45.1100417" lon="10.0484083"><ele>35.5</ele><time>2026-05-01T10:18:39.096Z</time></trkpt><trkpt lat="45.11016" lon="10.0487267"><ele>37.0</ele><time>2026-05-01T10:18:40.095Z</time></trkpt><trkpt lat="45.110275" lon="10.0490417"><ele>37.5</ele><time>2026-05-01T10:18:41.096Z</time></trkpt><trkpt lat="45.1103967" lon="10.0493433"><ele>38.0</ele><time>2026-05-01T10:18:42.095Z</time></trkpt><trkpt lat="45.110515" lon="10.049645"><ele>38.0</ele><time>2026-05-01T10:18:43.096Z</time></trkpt><trkpt lat="45.11063" lon="10.0499417"><ele>38.0</ele><time>2026-05-01T10:18:44.095Z</time></trkpt><trkpt lat="45.11074" lon="10.050245"><ele>37.5</ele><time>2026-05-01T10:18:45.095Z</time></trkpt><trkpt lat="45.1108567" lon="10.050535"><ele>37.0</ele><time>2026-05-01T10:18:46.095Z</time></trkpt><trkpt lat="45.11098" lon="10.0508267"><ele>36.5</ele><time>2026-05-01T10:18:47.095Z</time></trkpt><trkpt lat="45.1111067" lon="10.0511133"><ele>36.0</ele><time>2026-05-01T10:18:48.096Z</time></trkpt><trkpt lat="45.111235" lon="10.0514033"><ele>36.5</ele><time>2026-05-01T10:18:49.095Z</time></trkpt><trkpt lat="45.1113767" lon="10.051685"><ele>37.0</ele><time>2026-05-01T10:18:50.095Z</time></trkpt><trkpt lat="45.111515" lon="10.051965"><ele>37.0</ele><time>2026-05-01T10:18:51.095Z</time></trkpt><trkpt lat="45.111655" lon="10.052245"><ele>37.0</ele><time>2026-05-01T10:18:52.096Z</time></trkpt><trkpt lat="45.1118017" lon="10.0525283"><ele>36.0</ele><time>2026-05-01T10:18:53.095Z</time></trkpt><trkpt lat="45.1121067" lon="10.0530967"><ele>36.0</ele><time>2026-05-01T10:18:55.096Z</time></trkpt><trkpt lat="45.1124367" lon="10.0536567"><ele>36.0</ele><time>2026-05-01T10:18:57.095Z</time></trkpt><trkpt lat="45.1126033" lon="10.05394"><ele>36.0</ele><time>2026-05-01T10:18:58.096Z</time></trkpt><trkpt lat="45.112775" lon="10.054225"><ele>36.0</ele><time>2026-05-01T10:18:59.096Z</time></trkpt><trkpt lat="45.11295" lon="10.0545083"><ele>36.0</ele><time>2026-05-01T10:19:00.095Z</time></trkpt><trkpt lat="45.1131333" lon="10.0547867"><ele>36.0</ele><time>2026-05-01T10:19:01.095Z</time></trkpt><trkpt lat="45.1133183" lon="10.0550617"><ele>36.0</ele><time>2026-05-01T10:19:02.095Z</time></trkpt><trkpt lat="45.1135033" lon="10.0553433"><ele>36.0</ele><time>2026-05-01T10:19:03.095Z</time></trkpt><trkpt lat="45.1136933" lon="10.05562"><ele>36.0</ele><time>2026-05-01T10:19:04.095Z</time></trkpt><trkpt lat="45.1138867" lon="10.055885"><ele>35.5</ele><time>2026-05-01T10:19:05.095Z</time></trkpt><trkpt lat="45.1140767" lon="10.0561433"><ele>35.0</ele><time>2026-05-01T10:19:06.095Z</time></trkpt><trkpt lat="45.1142717" lon="10.0563917"><ele>36.5</ele><time>2026-05-01T10:19:07.096Z</time></trkpt><trkpt lat="45.1144683" lon="10.0566417"><ele>38.0</ele><time>2026-05-01T10:19:08.095Z</time></trkpt><trkpt lat="45.11467" lon="10.05688"><ele>38.0</ele><time>2026-05-01T10:19:09.095Z</time></trkpt><trkpt lat="45.1148767" lon="10.0571217"><ele>38.0</ele><time>2026-05-01T10:19:10.095Z</time></trkpt><trkpt lat="45.1150783" lon="10.0573567"><ele>37.0</ele><time>2026-05-01T10:19:11.095Z</time></trkpt><trkpt lat="45.11528" lon="10.0575867"><ele>36.0</ele><time>2026-05-01T10:19:12.095Z</time></trkpt><trkpt lat="45.115485" lon="10.0578067"><ele>36.0</ele><time>2026-05-01T10:19:13.095Z</time></trkpt><trkpt lat="45.1156933" lon="10.0580233"><ele>36.0</ele><time>2026-05-01T10:19:14.095Z</time></trkpt><trkpt lat="45.11612" lon="10.05844"><ele>36.0</ele><time>2026-05-01T10:19:16.096Z</time></trkpt><trkpt lat="45.1163367" lon="10.05865"><ele>36.0</ele><time>2026-05-01T10:19:17.096Z</time></trkpt><trkpt lat="45.116555" lon="10.058855"><ele>36.0</ele><time>2026-05-01T10:19:18.096Z</time></trkpt><trkpt lat="45.1167667" lon="10.05906"><ele>36.0</ele><time>2026-05-01T10:19:19.096Z</time></trkpt><trkpt lat="45.116985" lon="10.05926"><ele>36.0</ele><time>2026-05-01T10:19:20.096Z</time></trkpt><trkpt lat="45.1172067" lon="10.059455"><ele>36.0</ele><time>2026-05-01T10:19:21.095Z</time></trkpt><trkpt lat="45.117435" lon="10.059645"><ele>36.0</ele><time>2026-05-01T10:19:22.095Z</time></trkpt><trkpt lat="45.1176617" lon="10.059825"><ele>36.0</ele><time>2026-05-01T10:19:23.095Z</time></trkpt><trkpt lat="45.1178833" lon="10.0599917"><ele>36.0</ele><time>2026-05-01T10:19:24.095Z</time></trkpt><trkpt lat="45.118115" lon="10.0601583"><ele>36.0</ele><time>2026-05-01T10:19:25.095Z</time></trkpt><trkpt lat="45.1183383" lon="10.0603217"><ele>37.0</ele><time>2026-05-01T10:19:26.096Z</time></trkpt><trkpt lat="45.118565" lon="10.0604817"><ele>38.0</ele><time>2026-05-01T10:19:27.095Z</time></trkpt><trkpt lat="45.1187967" lon="10.0606333"><ele>38.0</ele><time>2026-05-01T10:19:28.095Z</time></trkpt><trkpt lat="45.1190367" lon="10.060785"><ele>38.0</ele><time>2026-05-01T10:19:29.095Z</time></trkpt><trkpt lat="45.1192767" lon="10.060935"><ele>38.0</ele><time>2026-05-01T10:19:30.095Z</time></trkpt><trkpt lat="45.11952" lon="10.0610817"><ele>38.0</ele><time>2026-05-01T10:19:31.096Z</time></trkpt><trkpt lat="45.119765" lon="10.0612267"><ele>39.0</ele><time>2026-05-01T10:19:32.095Z</time></trkpt><trkpt lat="45.120005" lon="10.0613717"><ele>40.0</ele><time>2026-05-01T10:19:33.096Z</time></trkpt><trkpt lat="45.1202533" lon="10.06151"><ele>39.5</ele><time>2026-05-01T10:19:34.095Z</time></trkpt><trkpt lat="45.1205033" lon="10.0616467"><ele>39.0</ele><time>2026-05-01T10:19:35.096Z</time></trkpt><trkpt lat="45.1209967" lon="10.0619217"><ele>39.0</ele><time>2026-05-01T10:19:37.096Z</time></trkpt><trkpt lat="45.12124" lon="10.062065"><ele>39.0</ele><time>2026-05-01T10:19:38.095Z</time></trkpt><trkpt lat="45.1214833" lon="10.062205"><ele>39.5</ele><time>2026-05-01T10:19:39.096Z</time></trkpt><trkpt lat="45.1217233" lon="10.062345"><ele>40.0</ele><time>2026-05-01T10:19:40.095Z</time></trkpt><trkpt lat="45.1219617" lon="10.06248"><ele>40.0</ele><time>2026-05-01T10:19:41.096Z</time></trkpt><trkpt lat="45.1222033" lon="10.0626083"><ele>40.0</ele><time>2026-05-01T10:19:42.096Z</time></trkpt><trkpt lat="45.122445" lon="10.0627417"><ele>40.0</ele><time>2026-05-01T10:19:43.096Z</time></trkpt><trkpt lat="45.12268" lon="10.0628817"><ele>40.0</ele><time>2026-05-01T10:19:44.096Z</time></trkpt><trkpt lat="45.122915" lon="10.0630183"><ele>40.0</ele><time>2026-05-01T10:19:45.095Z</time></trkpt><trkpt lat="45.12316" lon="10.0631517"><ele>40.0</ele><time>2026-05-01T10:19:46.095Z</time></trkpt><trkpt lat="45.1233967" lon="10.0632883"><ele>39.5</ele><time>2026-05-01T10:19:47.096Z</time></trkpt><trkpt lat="45.1236367" lon="10.0634267"><ele>39.0</ele><time>2026-05-01T10:19:48.096Z</time></trkpt><trkpt lat="45.12388" lon="10.0635617"><ele>39.5</ele><time>2026-05-01T10:19:49.095Z</time></trkpt><trkpt lat="45.1241217" lon="10.0636933"><ele>40.0</ele><time>2026-05-01T10:19:50.096Z</time></trkpt><trkpt lat="45.1243583" lon="10.063835"><ele>40.0</ele><time>2026-05-01T10:19:51.095Z</time></trkpt><trkpt lat="45.1246033" lon="10.0639567"><ele>40.0</ele><time>2026-05-01T10:19:52.095Z</time></trkpt><trkpt lat="45.124845" lon="10.0640933"><ele>40.5</ele><time>2026-05-01T10:19:53.096Z</time></trkpt><trkpt lat="45.1250833" lon="10.06423"><ele>41.0</ele><time>2026-05-01T10:19:54.095Z</time></trkpt><trkpt lat="45.1253183" lon="10.064375"><ele>41.0</ele><time>2026-05-01T10:19:55.095Z</time></trkpt><trkpt lat="45.1255567" lon="10.064515"><ele>41.0</ele><time>2026-05-01T10:19:56.095Z</time></trkpt><trkpt lat="45.1260333" lon="10.064785"><ele>40.5</ele><time>2026-05-01T10:19:58.096Z</time></trkpt><trkpt lat="45.1262667" lon="10.064925"><ele>40.0</ele><time>2026-05-01T10:19:59.096Z</time></trkpt><trkpt lat="45.1265033" lon="10.0650583"><ele>40.5</ele><time>2026-05-01T10:20:00.096Z</time></trkpt><trkpt lat="45.1267367" lon="10.0651917"><ele>41.0</ele><time>2026-05-01T10:20:01.096Z</time></trkpt><trkpt lat="45.1269717" lon="10.06532"><ele>41.0</ele><time>2026-05-01T10:20:02.096Z</time></trkpt><trkpt lat="45.1272033" lon="10.0654517"><ele>41.0</ele><time>2026-05-01T10:20:03.095Z</time></trkpt><trkpt lat="45.1274317" lon="10.06558"><ele>41.0</ele><time>2026-05-01T10:20:04.096Z</time></trkpt><trkpt lat="45.1276583" lon="10.0657133"><ele>41.0</ele><time>2026-05-01T10:20:05.095Z</time></trkpt><trkpt lat="45.127885" lon="10.0658483"><ele>41.0</ele><time>2026-05-01T10:20:06.095Z</time></trkpt><trkpt lat="45.128115" lon="10.06598"><ele>41.0</ele><time>2026-05-01T10:20:07.096Z</time></trkpt><trkpt lat="45.1283467" lon="10.0661133"><ele>41.0</ele><time>2026-05-01T10:20:08.095Z</time></trkpt><trkpt lat="45.1285833" lon="10.066245"><ele>41.0</ele><time>2026-05-01T10:20:09.096Z</time></trkpt><trkpt lat="45.1288233" lon="10.0663767"><ele>40.5</ele><time>2026-05-01T10:20:10.096Z</time></trkpt><trkpt lat="45.1290667" lon="10.0665083"><ele>40.0</ele><time>2026-05-01T10:20:11.095Z</time></trkpt><trkpt lat="45.12931" lon="10.066645"><ele>40.0</ele><time>2026-05-01T10:20:12.096Z</time></trkpt><trkpt lat="45.1295517" lon="10.0667833"><ele>40.0</ele><time>2026-05-01T10:20:13.095Z</time></trkpt><trkpt lat="45.1297933" lon="10.0669233"><ele>40.0</ele><time>2026-05-01T10:20:14.095Z</time></trkpt><trkpt lat="45.1300383" lon="10.067065"><ele>40.0</ele><time>2026-05-01T10:20:15.095Z</time></trkpt><trkpt lat="45.1302833" lon="10.06721"><ele>40.0</ele><time>2026-05-01T10:20:16.096Z</time></trkpt><trkpt lat="45.1305267" lon="10.067355"><ele>40.0</ele><time>2026-05-01T10:20:17.095Z</time></trkpt><trkpt lat="45.1310283" lon="10.0676367"><ele>40.5</ele><time>2026-05-01T10:20:19.095Z</time></trkpt><trkpt lat="45.13128" lon="10.0677767"><ele>41.0</ele><time>2026-05-01T10:20:20.095Z</time></trkpt><trkpt lat="45.1315267" lon="10.067915"><ele>41.0</ele><time>2026-05-01T10:20:21.095Z</time></trkpt><trkpt lat="45.13177" lon="10.0680517"><ele>41.0</ele><time>2026-05-01T10:20:22.096Z</time></trkpt><trkpt lat="45.1320167" lon="10.068185"><ele>40.5</ele><time>2026-05-01T10:20:23.095Z</time></trkpt><trkpt lat="45.132255" lon="10.0683217"><ele>40.0</ele><time>2026-05-01T10:20:24.095Z</time></trkpt><trkpt lat="45.13249" lon="10.06845"><ele>41.5</ele><time>2026-05-01T10:20:25.095Z</time></trkpt><trkpt lat="45.1327217" lon="10.06857"><ele>43.0</ele><time>2026-05-01T10:20:26.095Z</time></trkpt><trkpt lat="45.132955" lon="10.068695"><ele>43.0</ele><time>2026-05-01T10:20:27.096Z</time></trkpt><trkpt lat="45.133185" lon="10.06882"><ele>43.0</ele><time>2026-05-01T10:20:28.095Z</time></trkpt><trkpt lat="45.1334117" lon="10.06894"><ele>43.0</ele><time>2026-05-01T10:20:29.095Z</time></trkpt><trkpt lat="45.133645" lon="10.069055"><ele>43.0</ele><time>2026-05-01T10:20:30.096Z</time></trkpt><trkpt lat="45.1338867" lon="10.0691617"><ele>43.5</ele><time>2026-05-01T10:20:31.096Z</time></trkpt><trkpt lat="45.134135" lon="10.0692667"><ele>44.0</ele><time>2026-05-01T10:20:32.095Z</time></trkpt><trkpt lat="45.1343867" lon="10.069365"><ele>44.0</ele><time>2026-05-01T10:20:33.096Z</time></trkpt><trkpt lat="45.1346433" lon="10.0694633"><ele>44.0</ele><time>2026-05-01T10:20:34.095Z</time></trkpt><trkpt lat="45.134905" lon="10.06956"><ele>43.5</ele><time>2026-05-01T10:20:35.095Z</time></trkpt><trkpt lat="45.1351667" lon="10.069655"><ele>43.0</ele><time>2026-05-01T10:20:36.095Z</time></trkpt><trkpt lat="45.13542" lon="10.0697417"><ele>43.0</ele><time>2026-05-01T10:20:37.095Z</time></trkpt><trkpt lat="45.135665" lon="10.06983"><ele>43.0</ele><time>2026-05-01T10:20:38.096Z</time></trkpt><trkpt lat="45.136155" lon="10.0699867"><ele>43.0</ele><time>2026-05-01T10:20:40.096Z</time></trkpt><trkpt lat="45.1364" lon="10.0700667"><ele>43.0</ele><time>2026-05-01T10:20:41.095Z</time></trkpt><trkpt lat="45.136645" lon="10.0701433"><ele>43.0</ele><time>2026-05-01T10:20:42.095Z</time></trkpt><trkpt lat="45.136895" lon="10.0702267"><ele>43.0</ele><time>2026-05-01T10:20:43.095Z</time></trkpt><trkpt lat="45.1371483" lon="10.0703067"><ele>43.5</ele><time>2026-05-01T10:20:44.095Z</time></trkpt><trkpt lat="45.1374067" lon="10.0703767"><ele>44.0</ele><time>2026-05-01T10:20:45.096Z</time></trkpt><trkpt lat="45.1376667" lon="10.0704417"><ele>44.0</ele><time>2026-05-01T10:20:46.095Z</time></trkpt><trkpt lat="45.1379333" lon="10.0705133"><ele>44.0</ele><time>2026-05-01T10:20:47.095Z</time></trkpt><trkpt lat="45.1381967" lon="10.0705917"><ele>43.5</ele><time>2026-05-01T10:20:48.096Z</time></trkpt><trkpt lat="45.13846" lon="10.0706717"><ele>43.0</ele><time>2026-05-01T10:20:49.095Z</time></trkpt><trkpt lat="45.1387233" lon="10.0707517"><ele>43.0</ele><time>2026-05-01T10:20:50.095Z</time></trkpt><trkpt lat="45.1389783" lon="10.0708367"><ele>43.0</ele><time>2026-05-01T10:20:51.095Z</time></trkpt><trkpt lat="45.1392433" lon="10.0709217"><ele>43.5</ele><time>2026-05-01T10:20:52.095Z</time></trkpt><trkpt lat="45.1395067" lon="10.070995"><ele>44.0</ele><time>2026-05-01T10:20:53.095Z</time></trkpt><trkpt lat="45.1397667" lon="10.0710667"><ele>45.5</ele><time>2026-05-01T10:20:54.095Z</time></trkpt><trkpt lat="45.1400183" lon="10.07114"><ele>47.0</ele><time>2026-05-01T10:20:55.096Z</time></trkpt><trkpt lat="45.1402683" lon="10.0712167"><ele>47.0</ele><time>2026-05-01T10:20:56.096Z</time></trkpt><trkpt lat="45.1405233" lon="10.0712983"><ele>47.0</ele><time>2026-05-01T10:20:57.096Z</time></trkpt><trkpt lat="45.14078" lon="10.0713783"><ele>47.0</ele><time>2026-05-01T10:20:58.095Z</time></trkpt><trkpt lat="45.1410333" lon="10.0714533"><ele>47.0</ele><time>2026-05-01T10:20:59.096Z</time></trkpt><trkpt lat="45.14154" lon="10.0716017"><ele>46.5</ele><time>2026-05-01T10:21:01.096Z</time></trkpt><trkpt lat="45.14179" lon="10.071675"><ele>46.0</ele><time>2026-05-01T10:21:02.096Z</time></trkpt><trkpt lat="45.1420467" lon="10.0717483"><ele>46.0</ele><time>2026-05-01T10:21:03.096Z</time></trkpt><trkpt lat="45.1422967" lon="10.071825"><ele>46.0</ele><time>2026-05-01T10:21:04.096Z</time></trkpt><trkpt lat="45.1425483" lon="10.0719"><ele>46.5</ele><time>2026-05-01T10:21:05.095Z</time></trkpt><trkpt lat="45.1428017" lon="10.07197"><ele>47.0</ele><time>2026-05-01T10:21:06.095Z</time></trkpt><trkpt lat="45.1430533" lon="10.0720367"><ele>47.0</ele><time>2026-05-01T10:21:07.095Z</time></trkpt><trkpt lat="45.1433083" lon="10.0721033"><ele>47.0</ele><time>2026-05-01T10:21:08.096Z</time></trkpt><trkpt lat="45.1435667" lon="10.0721733"><ele>47.0</ele><time>2026-05-01T10:21:09.096Z</time></trkpt><trkpt lat="45.14382" lon="10.0722467"><ele>47.0</ele><time>2026-05-01T10:21:10.095Z</time></trkpt><trkpt lat="45.1440717" lon="10.0723217"><ele>45.5</ele><time>2026-05-01T10:21:11.095Z</time></trkpt><trkpt lat="45.1443283" lon="10.0723983"><ele>44.0</ele><time>2026-05-01T10:21:12.096Z</time></trkpt><trkpt lat="45.1445917" lon="10.0724717"><ele>43.5</ele><time>2026-05-01T10:21:13.096Z</time></trkpt><trkpt lat="45.14485" lon="10.0725467"><ele>43.0</ele><time>2026-05-01T10:21:14.095Z</time></trkpt><trkpt lat="45.1451083" lon="10.0726183"><ele>43.0</ele><time>2026-05-01T10:21:15.096Z</time></trkpt><trkpt lat="45.1453717" lon="10.0726833"><ele>43.0</ele><time>2026-05-01T10:21:16.096Z</time></trkpt><trkpt lat="45.14564" lon="10.0727567"><ele>43.0</ele><time>2026-05-01T10:21:17.095Z</time></trkpt><trkpt lat="45.14591" lon="10.07283"><ele>43.0</ele><time>2026-05-01T10:21:18.095Z</time></trkpt><trkpt lat="45.1461767" lon="10.0729067"><ele>43.0</ele><time>2026-05-01T10:21:19.096Z</time></trkpt><trkpt lat="45.1464417" lon="10.0729867"><ele>43.0</ele><time>2026-05-01T10:21:20.095Z</time></trkpt><trkpt lat="45.1469733" lon="10.0731383"><ele>43.0</ele><time>2026-05-01T10:21:22.096Z</time></trkpt><trkpt lat="45.147235" lon="10.073215"><ele>43.0</ele><time>2026-05-01T10:21:23.095Z</time></trkpt><trkpt lat="45.147495" lon="10.0732883"><ele>43.0</ele><time>2026-05-01T10:21:24.095Z</time></trkpt><trkpt lat="45.147755" lon="10.0733617"><ele>43.0</ele><time>2026-05-01T10:21:25.095Z</time></trkpt><trkpt lat="45.14801" lon="10.0734367"><ele>43.0</ele><time>2026-05-01T10:21:26.095Z</time></trkpt><trkpt lat="45.1482683" lon="10.0735117"><ele>43.0</ele><time>2026-05-01T10:21:27.095Z</time></trkpt><trkpt lat="45.1485233" lon="10.0735917"><ele>43.0</ele><time>2026-05-01T10:21:28.095Z</time></trkpt><trkpt lat="45.1487833" lon="10.0736733"><ele>43.0</ele><time>2026-05-01T10:21:29.095Z</time></trkpt><trkpt lat="45.1490383" lon="10.07374"><ele>43.0</ele><time>2026-05-01T10:21:30.096Z</time></trkpt><trkpt lat="45.1492933" lon="10.0738017"><ele>43.0</ele><time>2026-05-01T10:21:31.096Z</time></trkpt><trkpt lat="45.1495417" lon="10.0738667"><ele>43.0</ele><time>2026-05-01T10:21:32.095Z</time></trkpt><trkpt lat="45.1497983" lon="10.0739283"><ele>43.0</ele><time>2026-05-01T10:21:33.096Z</time></trkpt><trkpt lat="45.1500483" lon="10.0739983"><ele>42.5</ele><time>2026-05-01T10:21:34.096Z</time></trkpt><trkpt lat="45.1503033" lon="10.0740683"><ele>42.0</ele><time>2026-05-01T10:21:35.096Z</time></trkpt><trkpt lat="45.1505583" lon="10.0741383"><ele>41.5</ele><time>2026-05-01T10:21:36.095Z</time></trkpt><trkpt lat="45.150805" lon="10.0742133"><ele>41.0</ele><time>2026-05-01T10:21:37.095Z</time></trkpt><trkpt lat="45.1510483" lon="10.074285"><ele>41.0</ele><time>2026-05-01T10:21:38.095Z</time></trkpt><trkpt lat="45.1512883" lon="10.07435"><ele>41.0</ele><time>2026-05-01T10:21:39.095Z</time></trkpt><trkpt lat="45.15153" lon="10.074415"><ele>41.0</ele><time>2026-05-01T10:21:40.096Z</time></trkpt><trkpt lat="45.15177" lon="10.074485"><ele>42.0</ele><time>2026-05-01T10:21:41.095Z</time></trkpt></trkseg><trkseg><trkpt lat="45.16994" lon="10.0839433"><ele>44.0</ele><time>2026-05-01T10:22:57.101Z</time></trkpt><trkpt lat="45.1701767" lon="10.0840817"><ele>44.0</ele><time>2026-05-01T10:22:58.101Z</time></trkpt><trkpt lat="45.1704183" lon="10.08422"><ele>43.0</ele><time>2026-05-01T10:22:59.102Z</time></trkpt><trkpt lat="45.1706567" lon="10.084355"><ele>42.0</ele><time>2026-05-01T10:23:00.102Z</time></trkpt><trkpt lat="45.170895" lon="10.0844883"><ele>42.0</ele><time>2026-05-01T10:23:01.101Z</time></trkpt><trkpt lat="45.171135" lon="10.08462"><ele>42.0</ele><time>2026-05-01T10:23:02.101Z</time></trkpt><trkpt lat="45.1713733" lon="10.0847533"><ele>43.5</ele><time>2026-05-01T10:23:03.102Z</time></trkpt><trkpt lat="45.1716117" lon="10.0848867"><ele>45.0</ele><time>2026-05-01T10:23:04.102Z</time></trkpt><trkpt lat="45.17185" lon="10.085025"><ele>45.0</ele><time>2026-05-01T10:23:05.101Z</time></trkpt><trkpt lat="45.17209" lon="10.0851633"><ele>45.0</ele><time>2026-05-01T10:23:06.102Z</time></trkpt><trkpt lat="45.1723333" lon="10.0853"><ele>45.5</ele><time>2026-05-01T10:23:07.101Z</time></trkpt><trkpt lat="45.172575" lon="10.0854417"><ele>46.0</ele><time>2026-05-01T10:23:08.102Z</time></trkpt><trkpt lat="45.1728167" lon="10.0855817"><ele>46.0</ele><time>2026-05-01T10:23:09.101Z</time></trkpt><trkpt lat="45.173055" lon="10.08572"><ele>46.0</ele><time>2026-05-01T10:23:10.102Z</time></trkpt><trkpt lat="45.1733" lon="10.0858583"><ele>45.5</ele><time>2026-05-01T10:23:11.101Z</time></trkpt><trkpt lat="45.1735383" lon="10.0860033"><ele>45.0</ele><time>2026-05-01T10:23:12.101Z</time></trkpt><trkpt lat="45.1737767" lon="10.0861367"><ele>45.0</ele><time>2026-05-01T10:23:13.101Z</time></trkpt><trkpt lat="45.174015" lon="10.0862717"><ele>45.0</ele><time>2026-05-01T10:23:14.102Z</time></trkpt><trkpt lat="45.1742533" lon="10.086415"><ele>44.0</ele><time>2026-05-01T10:23:15.101Z</time></trkpt><trkpt lat="45.174495" lon="10.0865533"><ele>43.0</ele><time>2026-05-01T10:23:16.102Z</time></trkpt><trkpt lat="45.1747367" lon="10.086685"><ele>43.0</ele><time>2026-05-01T10:23:17.102Z</time></trkpt><trkpt lat="45.1749733" lon="10.086815"><ele>43.0</ele><time>2026-05-01T10:23:18.101Z</time></trkpt><trkpt lat="45.1752083" lon="10.0869483"><ele>43.0</ele><time>2026-05-01T10:23:19.101Z</time></trkpt><trkpt lat="45.1754467" lon="10.08709"><ele>43.0</ele><time>2026-05-01T10:23:20.101Z</time></trkpt><trkpt lat="45.1756917" lon="10.0872267"><ele>43.5</ele><time>2026-05-01T10:23:21.101Z</time></trkpt><trkpt lat="45.1759333" lon="10.0873617"><ele>44.0</ele><time>2026-05-01T10:23:22.102Z</time></trkpt><trkpt lat="45.1764167" lon="10.0876283"><ele>44.0</ele><time>2026-05-01T10:23:24.101Z</time></trkpt><trkpt lat="45.1766567" lon="10.087765"><ele>44.0</ele><time>2026-05-01T10:23:25.101Z</time></trkpt><trkpt lat="45.1769" lon="10.0879"><ele>44.0</ele><time>2026-05-01T10:23:26.101Z</time></trkpt><trkpt lat="45.17714" lon="10.08804"><ele>44.0</ele><time>2026-05-01T10:23:27.101Z</time></trkpt><trkpt lat="45.1773783" lon="10.088175"><ele>43.5</ele><time>2026-05-01T10:23:28.102Z</time></trkpt><trkpt lat="45.1776183" lon="10.0883133"><ele>43.0</ele><time>2026-05-01T10:23:29.101Z</time></trkpt><trkpt lat="45.1778567" lon="10.0884483"><ele>43.0</ele><time>2026-05-01T10:23:30.101Z</time></trkpt><trkpt lat="45.1780967" lon="10.0885817"><ele>43.0</ele><time>2026-05-01T10:23:31.101Z</time></trkpt><trkpt lat="45.1783367" lon="10.0887183"><ele>44.0</ele><time>2026-05-01T10:23:32.102Z</time></trkpt><trkpt lat="45.1785767" lon="10.0888517"><ele>45.0</ele><time>2026-05-01T10:23:33.102Z</time></trkpt><trkpt lat="45.1788183" lon="10.0889917"><ele>44.0</ele><time>2026-05-01T10:23:34.101Z</time></trkpt><trkpt lat="45.1790617" lon="10.0891233"><ele>43.0</ele><time>2026-05-01T10:23:35.102Z</time></trkpt><trkpt lat="45.1793033" lon="10.0892583"><ele>43.0</ele><time>2026-05-01T10:23:36.102Z</time></trkpt><trkpt lat="45.179545" lon="10.0893967"><ele>43.0</ele><time>2026-05-01T10:23:37.101Z</time></trkpt><trkpt lat="45.1797883" lon="10.0895317"><ele>43.5</ele><time>2026-05-01T10:23:38.102Z</time></trkpt><trkpt lat="45.1800267" lon="10.08967"><ele>44.0</ele><time>2026-05-01T10:23:39.102Z</time></trkpt><trkpt lat="45.1802683" lon="10.0898133"><ele>43.5</ele><time>2026-05-01T10:23:40.101Z</time></trkpt><trkpt lat="45.18051" lon="10.08995"><ele>43.0</ele><time>2026-05-01T10:23:41.101Z</time></trkpt><trkpt lat="45.1807467" lon="10.09009"><ele>44.0</ele><time>2026-05-01T10:23:42.101Z</time></trkpt><trkpt lat="45.1809833" lon="10.0902283"><ele>45.0</ele><time>2026-05-01T10:23:43.101Z</time></trkpt><trkpt lat="45.1812217" lon="10.0903617"><ele>45.0</ele><time>2026-05-01T10:23:44.102Z</time></trkpt><trkpt lat="45.1814683" lon="10.0904933"><ele>45.0</ele><time>2026-05-01T10:23:45.101Z</time></trkpt><trkpt lat="45.18171" lon="10.090625"><ele>44.5</ele><time>2026-05-01T10:23:46.101Z</time></trkpt><trkpt lat="45.18195" lon="10.0907633"><ele>44.0</ele><time>2026-05-01T10:23:47.102Z</time></trkpt><trkpt lat="45.18219" lon="10.0909033"><ele>44.0</ele><time>2026-05-01T10:23:48.101Z</time></trkpt><trkpt lat="45.1824333" lon="10.09104"><ele>44.0</ele><time>2026-05-01T10:23:49.101Z</time></trkpt><trkpt lat="45.1826767" lon="10.0911817"><ele>44.0</ele><time>2026-05-01T10:23:50.102Z</time></trkpt><trkpt lat="45.18292" lon="10.09132"><ele>44.0</ele><time>2026-05-01T10:23:51.102Z</time></trkpt><trkpt lat="45.1831583" lon="10.0914533"><ele>43.5</ele><time>2026-05-01T10:23:52.102Z</time></trkpt><trkpt lat="45.1833983" lon="10.0915867"><ele>43.0</ele><time>2026-05-01T10:23:53.101Z</time></trkpt><trkpt lat="45.1836367" lon="10.0917217"><ele>43.5</ele><time>2026-05-01T10:23:54.102Z</time></trkpt><trkpt lat="45.1838733" lon="10.091855"><ele>44.0</ele><time>2026-05-01T10:23:55.101Z</time></trkpt><trkpt lat="45.1841133" lon="10.0919917"><ele>44.0</ele><time>2026-05-01T10:23:56.101Z</time></trkpt><trkpt lat="45.1843583" lon="10.0921267"><ele>44.0</ele><time>2026-05-01T10:23:57.102Z</time></trkpt><trkpt lat="45.1846" lon="10.092265"><ele>44.0</ele><time>2026-05-01T10:23:58.101Z</time></trkpt><trkpt lat="45.18484" lon="10.092405"><ele>44.0</ele><time>2026-05-01T10:23:59.101Z</time></trkpt><trkpt lat="45.1850767" lon="10.09254"><ele>44.5</ele><time>2026-05-01T10:24:00.101Z</time></trkpt><trkpt lat="45.18532" lon="10.0926783"><ele>45.0</ele><time>2026-05-01T10:24:01.101Z</time></trkpt><trkpt lat="45.18556" lon="10.0928183"><ele>45.0</ele><time>2026-05-01T10:24:02.101Z</time></trkpt><trkpt lat="45.1858" lon="10.0929433"><ele>45.0</ele><time>2026-05-01T10:24:03.101Z</time></trkpt><trkpt lat="45.1860383" lon="10.0930883"><ele>45.0</ele><time>2026-05-01T10:24:04.101Z</time></trkpt><trkpt lat="45.1862783" lon="10.093225"><ele>45.0</ele><time>2026-05-01T10:24:05.101Z</time></trkpt><trkpt lat="45.1865167" lon="10.0933617"><ele>45.0</ele><time>2026-05-01T10:24:06.102Z</time></trkpt><trkpt lat="45.18699" lon="10.0936333"><ele>45.0</ele><time>2026-05-01T10:24:08.102Z</time></trkpt><trkpt lat="45.187235" lon="10.093765"><ele>45.0</ele><time>2026-05-01T10:24:09.102Z</time></trkpt><trkpt lat="45.1874767" lon="10.0939017"><ele>45.0</ele><time>2026-05-01T10:24:10.101Z</time></trkpt><trkpt lat="45.18772" lon="10.0940383"><ele>45.0</ele><time>2026-05-01T10:24:11.101Z</time></trkpt><trkpt lat="45.18796" lon="10.0941733"><ele>44.5</ele><time>2026-05-01T10:24:12.102Z</time></trkpt><trkpt lat="45.188205" lon="10.0943133"><ele>44.0</ele><time>2026-05-01T10:24:13.101Z</time></trkpt><trkpt lat="45.1884433" lon="10.0944517"><ele>44.0</ele><time>2026-05-01T10:24:14.101Z</time></trkpt><trkpt lat="45.1886817" lon="10.0945867"><ele>44.0</ele><time>2026-05-01T10:24:15.102Z</time></trkpt><trkpt lat="45.1889217" lon="10.0947183"><ele>43.5</ele><time>2026-05-01T10:24:16.102Z</time></trkpt><trkpt lat="45.1891633" lon="10.0948533"><ele>43.0</ele><time>2026-05-01T10:24:17.102Z</time></trkpt><trkpt lat="45.1894033" lon="10.0949917"><ele>44.5</ele><time>2026-05-01T10:24:18.101Z</time></trkpt><trkpt lat="45.18964" lon="10.0951317"><ele>46.0</ele><time>2026-05-01T10:24:19.102Z</time></trkpt><trkpt lat="45.18988" lon="10.0952717"><ele>46.0</ele><time>2026-05-01T10:24:20.101Z</time></trkpt><trkpt lat="45.1901183" lon="10.09541"><ele>46.0</ele><time>2026-05-01T10:24:21.101Z</time></trkpt><trkpt lat="45.1903567" lon="10.0955517"><ele>46.0</ele><time>2026-05-01T10:24:22.101Z</time></trkpt><trkpt lat="45.1906" lon="10.0956967"><ele>46.0</ele><time>2026-05-01T10:24:23.102Z</time></trkpt><trkpt lat="45.1908433" lon="10.0958383"><ele>46.0</ele><time>2026-05-01T10:24:24.101Z</time></trkpt><trkpt lat="45.191085" lon="10.0959683"><ele>46.0</ele><time>2026-05-01T10:24:25.101Z</time></trkpt><trkpt lat="45.191325" lon="10.0961017"><ele>45.5</ele><time>2026-05-01T10:24:26.101Z</time></trkpt><trkpt lat="45.19157" lon="10.0962317"><ele>45.0</ele><time>2026-05-01T10:24:27.102Z</time></trkpt><trkpt lat="45.1918083" lon="10.0963717"><ele>45.0</ele><time>2026-05-01T10:24:28.102Z</time></trkpt><trkpt lat="45.1920483" lon="10.09651"><ele>45.0</ele><time>2026-05-01T10:24:29.102Z</time></trkpt><trkpt lat="45.1922917" lon="10.0966467"><ele>45.0</ele><time>2026-05-01T10:24:30.102Z</time></trkpt><trkpt lat="45.1925333" lon="10.0967817"><ele>45.0</ele><time>2026-05-01T10:24:31.102Z</time></trkpt><trkpt lat="45.1927733" lon="10.09692"><ele>45.0</ele><time>2026-05-01T10:24:32.101Z</time></trkpt><trkpt lat="45.1930133" lon="10.0970517"><ele>45.0</ele><time>2026-05-01T10:24:33.101Z</time></trkpt><trkpt lat="45.1932533" lon="10.0971883"><ele>45.0</ele><time>2026-05-01T10:24:34.101Z</time></trkpt><trkpt lat="45.1934883" lon="10.0973283"><ele>45.0</ele><time>2026-05-01T10:24:35.101Z</time></trkpt><trkpt lat="45.1937233" lon="10.097465"><ele>45.0</ele><time>2026-05-01T10:24:36.102Z</time></trkpt><trkpt lat="45.1939583" lon="10.0976017"><ele>45.0</ele><time>2026-05-01T10:24:37.102Z</time></trkpt><trkpt lat="45.1942" lon="10.0977383"><ele>45.0</ele><time>2026-05-01T10:24:38.101Z</time></trkpt><trkpt lat="45.19444" lon="10.097875"><ele>45.0</ele><time>2026-05-01T10:24:39.102Z</time></trkpt><trkpt lat="45.1946783" lon="10.09801"><ele>45.0</ele><time>2026-05-01T10:24:40.101Z</time></trkpt><trkpt lat="45.1949083" lon="10.0981417"><ele>45.0</ele><time>2026-05-01T10:24:41.102Z</time></trkpt><trkpt lat="45.1951383" lon="10.0982717"><ele>45.0</ele><time>2026-05-01T10:24:42.101Z</time></trkpt><trkpt lat="45.1953717" lon="10.0984033"><ele>45.0</ele><time>2026-05-01T10:24:43.102Z</time></trkpt><trkpt lat="45.1956067" lon="10.098535"><ele>45.0</ele><time>2026-05-01T10:24:44.101Z</time></trkpt><trkpt lat="45.19584" lon="10.0986617"><ele>45.0</ele><time>2026-05-01T10:24:45.101Z</time></trkpt><trkpt lat="45.1960717" lon="10.0988"><ele>45.0</ele><time>2026-05-01T10:24:46.101Z</time></trkpt><trkpt lat="45.19631" lon="10.0989333"><ele>45.0</ele><time>2026-05-01T10:24:47.101Z</time></trkpt><trkpt lat="45.1965417" lon="10.09907"><ele>45.0</ele><time>2026-05-01T10:24:48.102Z</time></trkpt><trkpt lat="45.1967767" lon="10.0992017"><ele>45.0</ele><time>2026-05-01T10:24:49.101Z</time></trkpt><trkpt lat="45.19702" lon="10.0993383"><ele>45.0</ele><time>2026-05-01T10:24:50.102Z</time></trkpt><trkpt lat="45.1972633" lon="10.0994783"><ele>45.0</ele><time>2026-05-01T10:24:51.102Z</time></trkpt><trkpt lat="45.1975083" lon="10.0996167"><ele>45.0</ele><time>2026-05-01T10:24:52.101Z</time></trkpt><trkpt lat="45.1977533" lon="10.0997517"><ele>45.0</ele><time>2026-05-01T10:24:53.101Z</time></trkpt><trkpt lat="45.1980017" lon="10.0998933"><ele>45.5</ele><time>2026-05-01T10:24:54.101Z</time></trkpt><trkpt lat="45.19825" lon="10.1000333"><ele>46.0</ele><time>2026-05-01T10:24:55.101Z</time></trkpt><trkpt lat="45.1985" lon="10.10018"><ele>46.0</ele><time>2026-05-01T10:24:56.102Z</time></trkpt><trkpt lat="45.1987517" lon="10.1003217"><ele>46.0</ele><time>2026-05-01T10:24:57.101Z</time></trkpt><trkpt lat="45.1990017" lon="10.1004683"><ele>46.0</ele><time>2026-05-01T10:24:58.102Z</time></trkpt><trkpt lat="45.1992517" lon="10.1006083"><ele>46.0</ele><time>2026-05-01T10:24:59.101Z</time></trkpt><trkpt lat="45.1994983" lon="10.1007533"><ele>46.0</ele><time>2026-05-01T10:25:00.101Z</time></trkpt><trkpt lat="45.1997517" lon="10.1008983"><ele>46.0</ele><time>2026-05-01T10:25:01.101Z</time></trkpt><trkpt lat="45.1999967" lon="10.1010333"><ele>46.5</ele><time>2026-05-01T10:25:02.101Z</time></trkpt><trkpt lat="45.20024" lon="10.1011717"><ele>47.0</ele><time>2026-05-01T10:25:03.102Z</time></trkpt><trkpt lat="45.20048" lon="10.1013067"><ele>45.0</ele><time>2026-05-01T10:25:04.102Z</time></trkpt><trkpt lat="45.200965" lon="10.1015833"><ele>45.0</ele><time>2026-05-01T10:25:06.101Z</time></trkpt><trkpt lat="45.2012083" lon="10.1017217"><ele>45.0</ele><time>2026-05-01T10:25:07.101Z</time></trkpt><trkpt lat="45.201445" lon="10.1018633"><ele>45.0</ele><time>2026-05-01T10:25:08.102Z</time></trkpt><trkpt lat="45.2016817" lon="10.102"><ele>45.0</ele><time>2026-05-01T10:25:09.102Z</time></trkpt><trkpt lat="45.2019217" lon="10.1021333"><ele>45.0</ele><time>2026-05-01T10:25:10.101Z</time></trkpt><trkpt lat="45.2021617" lon="10.1022667"><ele>45.0</ele><time>2026-05-01T10:25:11.101Z</time></trkpt><trkpt lat="45.202405" lon="10.1024067"><ele>45.0</ele><time>2026-05-01T10:25:12.101Z</time></trkpt><trkpt lat="45.2026483" lon="10.1025467"><ele>45.0</ele><time>2026-05-01T10:25:13.101Z</time></trkpt><trkpt lat="45.202895" lon="10.1026867"><ele>45.0</ele><time>2026-05-01T10:25:14.101Z</time></trkpt><trkpt lat="45.20314" lon="10.1028233"><ele>45.0</ele><time>2026-05-01T10:25:15.102Z</time></trkpt><trkpt lat="45.2033933" lon="10.10296"><ele>45.5</ele><time>2026-05-01T10:25:16.101Z</time></trkpt><trkpt lat="45.2036467" lon="10.1031017"><ele>46.0</ele><time>2026-05-01T10:25:17.101Z</time></trkpt><trkpt lat="45.203895" lon="10.103245"><ele>45.5</ele><time>2026-05-01T10:25:18.102Z</time></trkpt><trkpt lat="45.2041433" lon="10.1033883"><ele>45.0</ele><time>2026-05-01T10:25:19.101Z</time></trkpt><trkpt lat="45.20439" lon="10.1035217"><ele>45.0</ele><time>2026-05-01T10:25:20.101Z</time></trkpt><trkpt lat="45.2046333" lon="10.1036567"><ele>45.0</ele><time>2026-05-01T10:25:21.102Z</time></trkpt><trkpt lat="45.20512" lon="10.10393"><ele>45.0</ele><time>2026-05-01T10:25:23.102Z</time></trkpt><trkpt lat="45.20536" lon="10.1040617"><ele>45.0</ele><time>2026-05-01T10:25:24.102Z</time></trkpt><trkpt lat="45.2055983" lon="10.1042033"><ele>45.5</ele><time>2026-05-01T10:25:25.102Z</time></trkpt><trkpt lat="45.2058383" lon="10.1043383"><ele>46.0</ele><time>2026-05-01T10:25:26.101Z</time></trkpt><trkpt lat="45.2063067" lon="10.1046183"><ele>46.0</ele><time>2026-05-01T10:25:28.101Z</time></trkpt><trkpt lat="45.2065417" lon="10.1047617"><ele>46.0</ele><time>2026-05-01T10:25:29.101Z</time></trkpt><trkpt lat="45.2067833" lon="10.1048967"><ele>46.5</ele><time>2026-05-01T10:25:30.102Z</time></trkpt><trkpt lat="45.2070183" lon="10.1050333"><ele>47.0</ele><time>2026-05-01T10:25:31.102Z</time></trkpt><trkpt lat="45.207495" lon="10.1052967"><ele>47.5</ele><time>2026-05-01T10:25:33.102Z</time></trkpt><trkpt lat="45.207735" lon="10.1054283"><ele>48.0</ele><time>2026-05-01T10:25:34.101Z</time></trkpt><trkpt lat="45.2079783" lon="10.1055633"><ele>47.5</ele><time>2026-05-01T10:25:35.101Z</time></trkpt><trkpt lat="45.2082117" lon="10.1057067"><ele>47.0</ele><time>2026-05-01T10:25:36.101Z</time></trkpt><trkpt lat="45.208445" lon="10.105845"><ele>47.0</ele><time>2026-05-01T10:25:37.102Z</time></trkpt><trkpt lat="45.2086883" lon="10.105985"><ele>47.0</ele><time>2026-05-01T10:25:38.101Z</time></trkpt><trkpt lat="45.2089317" lon="10.1061267"><ele>47.5</ele><time>2026-05-01T10:25:39.101Z</time></trkpt><trkpt lat="45.20918" lon="10.106265"><ele>48.0</ele><time>2026-05-01T10:25:40.102Z</time></trkpt><trkpt lat="45.2094267" lon="10.1064033"><ele>48.0</ele><time>2026-05-01T10:25:41.101Z</time></trkpt><trkpt lat="45.2096717" lon="10.10654"><ele>48.0</ele><time>2026-05-01T10:25:42.101Z</time></trkpt><trkpt lat="45.2099183" lon="10.10668"><ele>48.5</ele><time>2026-05-01T10:25:43.101Z</time></trkpt><trkpt lat="45.2101667" lon="10.1068233"><ele>49.0</ele><time>2026-05-01T10:25:44.102Z</time></trkpt><trkpt lat="45.2104167" lon="10.1069683"><ele>48.0</ele><time>2026-05-01T10:25:45.101Z</time></trkpt><trkpt lat="45.210665" lon="10.1071117"><ele>47.0</ele><time>2026-05-01T10:25:46.102Z</time></trkpt><trkpt lat="45.21091" lon="10.1072483"><ele>47.0</ele><time>2026-05-01T10:25:47.102Z</time></trkpt><trkpt lat="45.21115" lon="10.1073883"><ele>47.0</ele><time>2026-05-01T10:25:48.101Z</time></trkpt><trkpt lat="45.21139" lon="10.107525"><ele>47.5</ele><time>2026-05-01T10:25:49.101Z</time></trkpt><trkpt lat="45.2116367" lon="10.10766"><ele>48.0</ele><time>2026-05-01T10:25:50.102Z</time></trkpt><trkpt lat="45.2118833" lon="10.1077933"><ele>48.0</ele><time>2026-05-01T10:25:51.101Z</time></trkpt><trkpt lat="45.2121267" lon="10.1079333"><ele>48.0</ele><time>2026-05-01T10:25:52.101Z</time></trkpt><trkpt lat="45.212365" lon="10.10807"><ele>48.0</ele><time>2026-05-01T10:25:53.101Z</time></trkpt><trkpt lat="45.2126067" lon="10.1082033"><ele>48.0</ele><time>2026-05-01T10:25:54.101Z</time></trkpt><trkpt lat="45.212845" lon="10.1083383"><ele>48.5</ele><time>2026-05-01T10:25:55.102Z</time></trkpt><trkpt lat="45.2130883" lon="10.1084767"><ele>49.0</ele><time>2026-05-01T10:25:56.102Z</time></trkpt><trkpt lat="45.2133333" lon="10.1086167"><ele>48.0</ele><time>2026-05-01T10:25:57.102Z</time></trkpt><trkpt lat="45.213575" lon="10.1087583"><ele>47.0</ele><time>2026-05-01T10:25:58.102Z</time></trkpt><trkpt lat="45.2138183" lon="10.1089033"><ele>47.5</ele><time>2026-05-01T10:25:59.101Z</time></trkpt><trkpt lat="45.2140633" lon="10.1090467"><ele>48.0</ele><time>2026-05-01T10:26:00.102Z</time></trkpt><trkpt lat="45.2143117" lon="10.1091817"><ele>48.5</ele><time>2026-05-01T10:26:01.101Z</time></trkpt><trkpt lat="45.2145583" lon="10.1093117"><ele>49.0</ele><time>2026-05-01T10:26:02.101Z</time></trkpt><trkpt lat="45.2148017" lon="10.109455"><ele>48.5</ele><time>2026-05-01T10:26:03.102Z</time></trkpt><trkpt lat="45.215045" lon="10.1096"><ele>48.0</ele><time>2026-05-01T10:26:04.101Z</time></trkpt><trkpt lat="45.21529" lon="10.1097433"><ele>48.0</ele><time>2026-05-01T10:26:05.101Z</time></trkpt><trkpt lat="45.21553" lon="10.1098817"><ele>48.0</ele><time>2026-05-01T10:26:06.102Z</time></trkpt><trkpt lat="45.2157683" lon="10.1100183"><ele>48.0</ele><time>2026-05-01T10:26:07.102Z</time></trkpt><trkpt lat="45.2160067" lon="10.1101533"><ele>48.0</ele><time>2026-05-01T10:26:08.102Z</time></trkpt><trkpt lat="45.2162483" lon="10.110285"><ele>47.5</ele><time>2026-05-01T10:26:09.101Z</time></trkpt><trkpt lat="45.2164883" lon="10.1104217"><ele>47.0</ele><time>2026-05-01T10:26:10.101Z</time></trkpt><trkpt lat="45.2167283" lon="10.1105583"><ele>47.0</ele><time>2026-05-01T10:26:11.102Z</time></trkpt><trkpt lat="45.2169667" lon="10.1106917"><ele>47.0</ele><time>2026-05-01T10:26:12.101Z</time></trkpt><trkpt lat="45.2172067" lon="10.110825"><ele>46.0</ele><time>2026-05-01T10:26:13.101Z</time></trkpt><trkpt lat="45.217445" lon="10.11096"><ele>45.0</ele><time>2026-05-01T10:26:14.101Z</time></trkpt><trkpt lat="45.21768" lon="10.1110967"><ele>45.0</ele><time>2026-05-01T10:26:15.101Z</time></trkpt><trkpt lat="45.2179167" lon="10.1112333"><ele>45.0</ele><time>2026-05-01T10:26:16.101Z</time></trkpt><trkpt lat="45.218155" lon="10.1113683"><ele>45.0</ele><time>2026-05-01T10:26:17.102Z</time></trkpt><trkpt lat="45.21839" lon="10.1115067"><ele>45.0</ele><time>2026-05-01T10:26:18.101Z</time></trkpt><trkpt lat="45.21863" lon="10.1116433"><ele>45.0</ele><time>2026-05-01T10:26:19.102Z</time></trkpt><trkpt lat="45.2188717" lon="10.1117767"><ele>45.0</ele><time>2026-05-01T10:26:20.102Z</time></trkpt><trkpt lat="45.21912" lon="10.1119133"><ele>45.0</ele><time>2026-05-01T10:26:21.102Z</time></trkpt><trkpt lat="45.2193683" lon="10.1120533"><ele>45.0</ele><time>2026-05-01T10:26:22.101Z</time></trkpt><trkpt lat="45.2196217" lon="10.1121917"><ele>44.5</ele><time>2026-05-01T10:26:23.101Z</time></trkpt><trkpt lat="45.2198717" lon="10.112335"><ele>44.0</ele><time>2026-05-01T10:26:24.102Z</time></trkpt><trkpt lat="45.2201317" lon="10.1124683"><ele>44.0</ele><time>2026-05-01T10:26:25.101Z</time></trkpt><trkpt lat="45.22039" lon="10.1125983"><ele>44.0</ele><time>2026-05-01T10:26:26.102Z</time></trkpt><trkpt lat="45.2206517" lon="10.1127217"><ele>45.5</ele><time>2026-05-01T10:26:27.102Z</time></trkpt><trkpt lat="45.220915" lon="10.1128517"><ele>47.0</ele><time>2026-05-01T10:26:28.102Z</time></trkpt><trkpt lat="45.2211783" lon="10.1129733"><ele>47.0</ele><time>2026-05-01T10:26:29.102Z</time></trkpt><trkpt lat="45.22144" lon="10.113085"><ele>47.0</ele><time>2026-05-01T10:26:30.102Z</time></trkpt><trkpt lat="45.2217017" lon="10.1131983"><ele>46.5</ele><time>2026-05-01T10:26:31.102Z</time></trkpt><trkpt lat="45.22196" lon="10.1133033"><ele>46.0</ele><time>2026-05-01T10:26:32.101Z</time></trkpt><trkpt lat="45.2222133" lon="10.113405"><ele>46.5</ele><time>2026-05-01T10:26:33.101Z</time></trkpt><trkpt lat="45.2224633" lon="10.1135067"><ele>47.0</ele><time>2026-05-01T10:26:34.102Z</time></trkpt><trkpt lat="45.2227133" lon="10.1136"><ele>47.0</ele><time>2026-05-01T10:26:35.102Z</time></trkpt><trkpt lat="45.222965" lon="10.1136867"><ele>47.0</ele><time>2026-05-01T10:26:36.101Z</time></trkpt><trkpt lat="45.22322" lon="10.1137767"><ele>47.0</ele><time>2026-05-01T10:26:37.102Z</time></trkpt><trkpt lat="45.2234767" lon="10.1138583"><ele>47.0</ele><time>2026-05-01T10:26:38.101Z</time></trkpt><trkpt lat="45.2237367" lon="10.1139417"><ele>47.0</ele><time>2026-05-01T10:26:39.101Z</time></trkpt><trkpt lat="45.224" lon="10.114025"><ele>47.0</ele><time>2026-05-01T10:26:40.102Z</time></trkpt><trkpt lat="45.224255" lon="10.11411"><ele>47.0</ele><time>2026-05-01T10:26:41.101Z</time></trkpt><trkpt lat="45.2245117" lon="10.1141967"><ele>47.0</ele><time>2026-05-01T10:26:42.101Z</time></trkpt><trkpt lat="45.2247733" lon="10.1142767"><ele>47.0</ele><time>2026-05-01T10:26:43.101Z</time></trkpt><trkpt lat="45.22503" lon="10.1143617"><ele>47.0</ele><time>2026-05-01T10:26:44.101Z</time></trkpt><trkpt lat="45.2252867" lon="10.1144483"><ele>47.0</ele><time>2026-05-01T10:26:45.101Z</time></trkpt><trkpt lat="45.2255433" lon="10.1145317"><ele>47.0</ele><time>2026-05-01T10:26:46.101Z</time></trkpt><trkpt lat="45.2258017" lon="10.114605"><ele>46.5</ele><time>2026-05-01T10:26:47.102Z</time></trkpt><trkpt lat="45.2260583" lon="10.1146833"><ele>46.0</ele><time>2026-05-01T10:26:48.101Z</time></trkpt><trkpt lat="45.226315" lon="10.11476"><ele>46.0</ele><time>2026-05-01T10:26:49.101Z</time></trkpt><trkpt lat="45.2265733" lon="10.1148383"><ele>46.0</ele><time>2026-05-01T10:26:50.101Z</time></trkpt><trkpt lat="45.226815" lon="10.1149183"><ele>45.5</ele><time>2026-05-01T10:26:51.102Z</time></trkpt><trkpt lat="45.2270567" lon="10.1149967"><ele>45.0</ele><time>2026-05-01T10:26:52.101Z</time></trkpt><trkpt lat="45.2273017" lon="10.1150767"><ele>46.0</ele><time>2026-05-01T10:26:53.101Z</time></trkpt><trkpt lat="45.2275483" lon="10.115155"><ele>47.0</ele><time>2026-05-01T10:26:54.101Z</time></trkpt><trkpt lat="45.2277933" lon="10.1152383"><ele>47.0</ele><time>2026-05-01T10:26:55.101Z</time></trkpt><trkpt lat="45.2280367" lon="10.1153167"><ele>47.0</ele><time>2026-05-01T10:26:56.102Z</time></trkpt><trkpt lat="45.22828" lon="10.115395"><ele>47.0</ele><time>2026-05-01T10:26:57.101Z</time></trkpt><trkpt lat="45.228525" lon="10.1154717"><ele>47.0</ele><time>2026-05-01T10:26:58.101Z</time></trkpt><trkpt lat="45.228775" lon="10.115545"><ele>47.0</ele><time>2026-05-01T10:26:59.101Z</time></trkpt><trkpt lat="45.2290233" lon="10.11562"><ele>47.0</ele><time>2026-05-01T10:27:00.101Z</time></trkpt><trkpt lat="45.2292617" lon="10.1157033"><ele>47.5</ele><time>2026-05-01T10:27:01.102Z</time></trkpt><trkpt lat="45.2295" lon="10.1157833"><ele>48.0</ele><time>2026-05-01T10:27:02.102Z</time></trkpt><trkpt lat="45.2297417" lon="10.1158617"><ele>48.5</ele><time>2026-05-01T10:27:03.101Z</time></trkpt><trkpt lat="45.22998" lon="10.1159333"><ele>49.0</ele><time>2026-05-01T10:27:04.102Z</time></trkpt><trkpt lat="45.2302167" lon="10.1160117"><ele>49.0</ele><time>2026-05-01T10:27:05.102Z</time></trkpt><trkpt lat="45.2304583" lon="10.1160883"><ele>49.0</ele><time>2026-05-01T10:27:06.101Z</time></trkpt><trkpt lat="45.2307033" lon="10.1161667"><ele>49.5</ele><time>2026-05-01T10:27:07.101Z</time></trkpt><trkpt lat="45.230945" lon="10.116245"><ele>50.0</ele><time>2026-05-01T10:27:08.101Z</time></trkpt><trkpt lat="45.2311917" lon="10.1163167"><ele>50.0</ele><time>2026-05-01T10:27:09.101Z</time></trkpt><trkpt lat="45.2314367" lon="10.1163917"><ele>50.0</ele><time>2026-05-01T10:27:10.102Z</time></trkpt><trkpt lat="45.231685" lon="10.1164717"><ele>50.0</ele><time>2026-05-01T10:27:11.102Z</time></trkpt><trkpt lat="45.23217" lon="10.116615"><ele>49.5</ele><time>2026-05-01T10:27:13.101Z</time></trkpt><trkpt lat="45.2324033" lon="10.11669"><ele>49.0</ele><time>2026-05-01T10:27:14.101Z</time></trkpt><trkpt lat="45.2326417" lon="10.1167717"><ele>49.0</ele><time>2026-05-01T10:27:15.102Z</time></trkpt><trkpt lat="45.2328833" lon="10.116855"><ele>49.0</ele><time>2026-05-01T10:27:16.101Z</time></trkpt><trkpt lat="45.2331217" lon="10.116935"><ele>48.5</ele><time>2026-05-01T10:27:17.102Z</time></trkpt><trkpt lat="45.2333683" lon="10.1170167"><ele>48.0</ele><time>2026-05-01T10:27:18.102Z</time></trkpt><trkpt lat="45.23361" lon="10.1170967"><ele>48.0</ele><time>2026-05-01T10:27:19.102Z</time></trkpt><trkpt lat="45.23385" lon="10.1171733"><ele>48.0</ele><time>2026-05-01T10:27:20.102Z</time></trkpt><trkpt lat="45.23409" lon="10.1172483"><ele>47.5</ele><time>2026-05-01T10:27:21.101Z</time></trkpt><trkpt lat="45.2343317" lon="10.1173283"><ele>47.0</ele><time>2026-05-01T10:27:22.101Z</time></trkpt><trkpt lat="45.2345833" lon="10.11741"><ele>48.0</ele><time>2026-05-01T10:27:23.101Z</time></trkpt><trkpt lat="45.2348333" lon="10.1174867"><ele>49.0</ele><time>2026-05-01T10:27:24.101Z</time></trkpt><trkpt lat="45.23508" lon="10.11757"><ele>49.0</ele><time>2026-05-01T10:27:25.101Z</time></trkpt><trkpt lat="45.2353267" lon="10.1176467"><ele>49.0</ele><time>2026-05-01T10:27:26.101Z</time></trkpt><trkpt lat="45.2355717" lon="10.117725"><ele>48.5</ele><time>2026-05-01T10:27:27.101Z</time></trkpt><trkpt lat="45.2358167" lon="10.117805"><ele>48.0</ele><time>2026-05-01T10:27:28.102Z</time></trkpt><trkpt lat="45.236065" lon="10.117885"><ele>48.0</ele><time>2026-05-01T10:27:29.101Z</time></trkpt><trkpt lat="45.2363183" lon="10.1179667"><ele>48.0</ele><time>2026-05-01T10:27:30.102Z</time></trkpt><trkpt lat="45.2365683" lon="10.11805"><ele>49.0</ele><time>2026-05-01T10:27:31.101Z</time></trkpt><trkpt lat="45.236825" lon="10.1181233"><ele>50.0</ele><time>2026-05-01T10:27:32.101Z</time></trkpt><trkpt lat="45.2370883" lon="10.1182067"><ele>49.5</ele><time>2026-05-01T10:27:33.101Z</time></trkpt><trkpt lat="45.2373483" lon="10.1182917"><ele>49.0</ele><time>2026-05-01T10:27:34.101Z</time></trkpt><trkpt lat="45.2376133" lon="10.1183733"><ele>49.0</ele><time>2026-05-01T10:27:35.101Z</time></trkpt><trkpt lat="45.2378833" lon="10.11846"><ele>49.0</ele><time>2026-05-01T10:27:36.101Z</time></trkpt><trkpt lat="45.2381483" lon="10.118545"><ele>48.5</ele><time>2026-05-01T10:27:37.102Z</time></trkpt><trkpt lat="45.2384133" lon="10.1186283"><ele>48.0</ele><time>2026-05-01T10:27:38.102Z</time></trkpt><trkpt lat="45.2386717" lon="10.1187067"><ele>48.0</ele><time>2026-05-01T10:27:39.102Z</time></trkpt><trkpt lat="45.2389317" lon="10.1187933"><ele>48.0</ele><time>2026-05-01T10:27:40.102Z</time></trkpt><trkpt lat="45.2391933" lon="10.118875"><ele>48.0</ele><time>2026-05-01T10:27:41.101Z</time></trkpt><trkpt lat="45.2394567" lon="10.1189533"><ele>48.0</ele><time>2026-05-01T10:27:42.101Z</time></trkpt><trkpt lat="45.239715" lon="10.1190417"><ele>47.0</ele><time>2026-05-01T10:27:43.101Z</time></trkpt><trkpt lat="45.2399767" lon="10.1191283"><ele>46.0</ele><time>2026-05-01T10:27:44.102Z</time></trkpt><trkpt lat="45.2402417" lon="10.11921"><ele>46.0</ele><time>2026-05-01T10:27:45.101Z</time></trkpt><trkpt lat="45.240505" lon="10.119295"><ele>46.0</ele><time>2026-05-01T10:27:46.101Z</time></trkpt><trkpt lat="45.2407733" lon="10.11938"><ele>43.5</ele><time>2026-05-01T10:27:47.101Z</time></trkpt><trkpt lat="45.2410367" lon="10.119465"><ele>41.0</ele><time>2026-05-01T10:27:48.101Z</time></trkpt><trkpt lat="45.2413017" lon="10.119545"><ele>40.5</ele><time>2026-05-01T10:27:49.102Z</time></trkpt><trkpt lat="45.2415633" lon="10.1196283"><ele>40.0</ele><time>2026-05-01T10:27:50.101Z</time></trkpt><trkpt lat="45.2418217" lon="10.11971"><ele>40.0</ele><time>2026-05-01T10:27:51.101Z</time></trkpt><trkpt lat="45.24208" lon="10.11979"><ele>40.0</ele><time>2026-05-01T10:27:52.101Z</time></trkpt><trkpt lat="45.2423333" lon="10.119875"><ele>40.0</ele><time>2026-05-01T10:27:53.101Z</time></trkpt><trkpt lat="45.242595" lon="10.11995"><ele>40.0</ele><time>2026-05-01T10:27:54.102Z</time></trkpt><trkpt lat="45.2428567" lon="10.120035"><ele>40.0</ele><time>2026-05-01T10:27:55.102Z</time></trkpt><trkpt lat="45.243115" lon="10.12012"><ele>40.0</ele><time>2026-05-01T10:27:56.102Z</time></trkpt><trkpt lat="45.243375" lon="10.1202067"><ele>39.0</ele><time>2026-05-01T10:27:57.102Z</time></trkpt><trkpt lat="45.2436383" lon="10.1202967"><ele>38.0</ele><time>2026-05-01T10:27:58.102Z</time></trkpt><trkpt lat="45.2438983" lon="10.1203783"><ele>38.5</ele><time>2026-05-01T10:27:59.102Z</time></trkpt><trkpt lat="45.2441583" lon="10.1204583"><ele>39.0</ele><time>2026-05-01T10:28:00.101Z</time></trkpt><trkpt lat="45.24442" lon="10.1205383"><ele>39.0</ele><time>2026-05-01T10:28:01.101Z</time></trkpt><trkpt lat="45.2446833" lon="10.1206233"><ele>39.0</ele><time>2026-05-01T10:28:02.101Z</time></trkpt><trkpt lat="45.2449467" lon="10.120705"><ele>39.5</ele><time>2026-05-01T10:28:03.102Z</time></trkpt><trkpt lat="45.2452083" lon="10.120785"><ele>40.0</ele><time>2026-05-01T10:28:04.101Z</time></trkpt><trkpt lat="45.245465" lon="10.120865"><ele>40.0</ele><time>2026-05-01T10:28:05.102Z</time></trkpt><trkpt lat="45.2457183" lon="10.1209483"><ele>40.0</ele><time>2026-05-01T10:28:06.102Z</time></trkpt><trkpt lat="45.2459717" lon="10.1210317"><ele>40.0</ele><time>2026-05-01T10:28:07.101Z</time></trkpt><trkpt lat="45.2462233" lon="10.121115"><ele>40.0</ele><time>2026-05-01T10:28:08.101Z</time></trkpt><trkpt lat="45.246475" lon="10.1211967"><ele>39.5</ele><time>2026-05-01T10:28:09.101Z</time></trkpt><trkpt lat="45.24673" lon="10.1212817"><ele>39.0</ele><time>2026-05-01T10:28:10.101Z</time></trkpt><trkpt lat="45.2469867" lon="10.121365"><ele>39.0</ele><time>2026-05-01T10:28:11.101Z</time></trkpt><trkpt lat="45.24725" lon="10.121455"><ele>39.0</ele><time>2026-05-01T10:28:12.101Z</time></trkpt><trkpt lat="45.247515" lon="10.1215333"><ele>37.5</ele><time>2026-05-01T10:28:13.101Z</time></trkpt><trkpt lat="45.247775" lon="10.1216183"><ele>36.0</ele><time>2026-05-01T10:28:14.101Z</time></trkpt><trkpt lat="45.2480367" lon="10.121705"><ele>37.5</ele><time>2026-05-01T10:28:15.102Z</time></trkpt><trkpt lat="45.2482967" lon="10.121785"><ele>39.0</ele><time>2026-05-01T10:28:16.101Z</time></trkpt><trkpt lat="45.248555" lon="10.1218683"><ele>39.0</ele><time>2026-05-01T10:28:17.101Z</time></trkpt><trkpt lat="45.2488183" lon="10.1219467"><ele>39.0</ele><time>2026-05-01T10:28:18.101Z</time></trkpt><trkpt lat="45.2490783" lon="10.122025"><ele>39.0</ele><time>2026-05-01T10:28:19.101Z</time></trkpt><trkpt lat="45.24934" lon="10.1221083"><ele>39.0</ele><time>2026-05-01T10:28:20.101Z</time></trkpt><trkpt lat="45.2496017" lon="10.1221917"><ele>39.0</ele><time>2026-05-01T10:28:21.101Z</time></trkpt><trkpt lat="45.2498617" lon="10.122275"><ele>39.0</ele><time>2026-05-01T10:28:22.102Z</time></trkpt><trkpt lat="45.25012" lon="10.122355"><ele>39.0</ele><time>2026-05-01T10:28:23.101Z</time></trkpt><trkpt lat="45.2503767" lon="10.1224333"><ele>39.0</ele><time>2026-05-01T10:28:24.101Z</time></trkpt><trkpt lat="45.25063" lon="10.1225167"><ele>39.0</ele><time>2026-05-01T10:28:25.102Z</time></trkpt><trkpt lat="45.250885" lon="10.1225967"><ele>39.0</ele><time>2026-05-01T10:28:26.101Z</time></trkpt><trkpt lat="45.2511367" lon="10.1226767"><ele>39.0</ele><time>2026-05-01T10:28:27.102Z</time></trkpt><trkpt lat="45.2513883" lon="10.1227567"><ele>39.0</ele><time>2026-05-01T10:28:28.101Z</time></trkpt><trkpt lat="45.251645" lon="10.1228333"><ele>38.5</ele><time>2026-05-01T10:28:29.102Z</time></trkpt><trkpt lat="45.2518983" lon="10.1229117"><ele>38.0</ele><time>2026-05-01T10:28:30.102Z</time></trkpt><trkpt lat="45.2521517" lon="10.1229883"><ele>39.0</ele><time>2026-05-01T10:28:31.102Z</time></trkpt><trkpt lat="45.2526617" lon="10.1231517"><ele>39.0</ele><time>2026-05-01T10:28:33.102Z</time></trkpt><trkpt lat="45.2529217" lon="10.1232317"><ele>39.0</ele><time>2026-05-01T10:28:34.102Z</time></trkpt><trkpt lat="45.2531783" lon="10.1233133"><ele>38.5</ele><time>2026-05-01T10:28:35.101Z</time></trkpt><trkpt lat="45.2534317" lon="10.1233967"><ele>38.0</ele><time>2026-05-01T10:28:36.102Z</time></trkpt><trkpt lat="45.2536833" lon="10.1234817"><ele>38.0</ele><time>2026-05-01T10:28:37.102Z</time></trkpt><trkpt lat="45.2539333" lon="10.1235567"><ele>38.0</ele><time>2026-05-01T10:28:38.102Z</time></trkpt><trkpt lat="45.254185" lon="10.123635"><ele>38.5</ele><time>2026-05-01T10:28:39.101Z</time></trkpt><trkpt lat="45.2544333" lon="10.1237117"><ele>39.0</ele><time>2026-05-01T10:28:40.101Z</time></trkpt><trkpt lat="45.2546867" lon="10.1237917"><ele>39.5</ele><time>2026-05-01T10:28:41.101Z</time></trkpt><trkpt lat="45.2549383" lon="10.1238717"><ele>40.0</ele><time>2026-05-01T10:28:42.101Z</time></trkpt><trkpt lat="45.2551917" lon="10.123955"><ele>40.0</ele><time>2026-05-01T10:28:43.101Z</time></trkpt><trkpt lat="45.2554417" lon="10.1240367"><ele>40.0</ele><time>2026-05-01T10:28:44.101Z</time></trkpt><trkpt lat="45.255695" lon="10.1241283"><ele>39.5</ele><time>2026-05-01T10:28:45.101Z</time></trkpt><trkpt lat="45.255945" lon="10.12421"><ele>39.0</ele><time>2026-05-01T10:28:46.102Z</time></trkpt><trkpt lat="45.2562" lon="10.1242867"><ele>39.0</ele><time>2026-05-01T10:28:47.102Z</time></trkpt><trkpt lat="45.2564533" lon="10.12437"><ele>39.0</ele><time>2026-05-01T10:28:48.102Z</time></trkpt><trkpt lat="45.2569583" lon="10.1245233"><ele>39.0</ele><time>2026-05-01T10:28:50.101Z</time></trkpt><trkpt lat="45.2572117" lon="10.1245983"><ele>39.0</ele><time>2026-05-01T10:28:51.101Z</time></trkpt><trkpt lat="45.2574683" lon="10.1246833"><ele>39.5</ele><time>2026-05-01T10:28:52.102Z</time></trkpt><trkpt lat="45.25772" lon="10.124775"><ele>40.0</ele><time>2026-05-01T10:28:53.101Z</time></trkpt><trkpt lat="45.2579717" lon="10.12486"><ele>40.5</ele><time>2026-05-01T10:28:54.101Z</time></trkpt><trkpt lat="45.2582217" lon="10.124945"><ele>41.0</ele><time>2026-05-01T10:28:55.102Z</time></trkpt><trkpt lat="45.25847" lon="10.1250233"><ele>41.0</ele><time>2026-05-01T10:28:56.102Z</time></trkpt><trkpt lat="45.2587117" lon="10.1250983"><ele>41.0</ele><time>2026-05-01T10:28:57.101Z</time></trkpt><trkpt lat="45.2589533" lon="10.125185"><ele>41.5</ele><time>2026-05-01T10:28:58.101Z</time></trkpt><trkpt lat="45.2591933" lon="10.125265"><ele>42.0</ele><time>2026-05-01T10:28:59.101Z</time></trkpt><trkpt lat="45.25944" lon="10.1253367"><ele>42.0</ele><time>2026-05-01T10:29:00.102Z</time></trkpt><trkpt lat="45.2596883" lon="10.1254067"><ele>42.0</ele><time>2026-05-01T10:29:01.102Z</time></trkpt><trkpt lat="45.2599367" lon="10.1254783"><ele>43.0</ele><time>2026-05-01T10:29:02.101Z</time></trkpt><trkpt lat="45.26018" lon="10.1255533"><ele>44.0</ele><time>2026-05-01T10:29:03.102Z</time></trkpt><trkpt lat="45.260415" lon="10.1256283"><ele>43.5</ele><time>2026-05-01T10:29:04.102Z</time></trkpt><trkpt lat="45.2606533" lon="10.1257017"><ele>43.0</ele><time>2026-05-01T10:29:05.101Z</time></trkpt><trkpt lat="45.26089" lon="10.1257817"><ele>43.0</ele><time>2026-05-01T10:29:06.101Z</time></trkpt><trkpt lat="45.2611283" lon="10.1258583"><ele>43.0</ele><time>2026-05-01T10:29:07.102Z</time></trkpt><trkpt lat="45.2613733" lon="10.1259333"><ele>44.5</ele><time>2026-05-01T10:29:08.102Z</time></trkpt><trkpt lat="45.2616133" lon="10.1260117"><ele>46.0</ele><time>2026-05-01T10:29:09.102Z</time></trkpt><trkpt lat="45.261855" lon="10.1260917"><ele>46.0</ele><time>2026-05-01T10:29:10.101Z</time></trkpt><trkpt lat="45.2621" lon="10.1261683"><ele>46.0</ele><time>2026-05-01T10:29:11.101Z</time></trkpt><trkpt lat="45.26234" lon="10.1262433"><ele>47.0</ele><time>2026-05-01T10:29:12.101Z</time></trkpt><trkpt lat="45.26258" lon="10.1263133"><ele>48.0</ele><time>2026-05-01T10:29:13.102Z</time></trkpt><trkpt lat="45.2628167" lon="10.1263933"><ele>48.0</ele><time>2026-05-01T10:29:14.101Z</time></trkpt><trkpt lat="45.2630567" lon="10.126465"><ele>48.0</ele><time>2026-05-01T10:29:15.101Z</time></trkpt><trkpt lat="45.2632933" lon="10.1265433"><ele>48.5</ele><time>2026-05-01T10:29:16.102Z</time></trkpt><trkpt lat="45.263535" lon="10.1266183"><ele>49.0</ele><time>2026-05-01T10:29:17.101Z</time></trkpt><trkpt lat="45.263765" lon="10.1267"><ele>50.0</ele><time>2026-05-01T10:29:18.101Z</time></trkpt><trkpt lat="45.2639967" lon="10.1267783"><ele>51.0</ele><time>2026-05-01T10:29:19.101Z</time></trkpt><trkpt lat="45.2642317" lon="10.1268533"><ele>51.0</ele><time>2026-05-01T10:29:20.102Z</time></trkpt><trkpt lat="45.2644767" lon="10.12693"><ele>51.0</ele><time>2026-05-01T10:29:21.102Z</time></trkpt><trkpt lat="45.2647217" lon="10.127005"><ele>50.5</ele><time>2026-05-01T10:29:22.102Z</time></trkpt><trkpt lat="45.26497" lon="10.1270833"><ele>50.0</ele><time>2026-05-01T10:29:23.101Z</time></trkpt><trkpt lat="45.26522" lon="10.12717"><ele>50.0</ele><time>2026-05-01T10:29:24.101Z</time></trkpt><trkpt lat="45.2654717" lon="10.1272483"><ele>50.0</ele><time>2026-05-01T10:29:25.101Z</time></trkpt><trkpt lat="45.26572" lon="10.1273333"><ele>50.5</ele><time>2026-05-01T10:29:26.102Z</time></trkpt><trkpt lat="45.2659733" lon="10.1274183"><ele>51.0</ele><time>2026-05-01T10:29:27.102Z</time></trkpt><trkpt lat="45.266225" lon="10.1275017"><ele>51.0</ele><time>2026-05-01T10:29:28.101Z</time></trkpt><trkpt lat="45.2664683" lon="10.127575"><ele>51.0</ele><time>2026-05-01T10:29:29.102Z</time></trkpt><trkpt lat="45.2667133" lon="10.1276533"><ele>51.0</ele><time>2026-05-01T10:29:30.102Z</time></trkpt><trkpt lat="45.2669583" lon="10.1277283"><ele>51.0</ele><time>2026-05-01T10:29:31.101Z</time></trkpt><trkpt lat="45.2672" lon="10.1278017"><ele>52.0</ele><time>2026-05-01T10:29:32.102Z</time></trkpt><trkpt lat="45.267445" lon="10.1278783"><ele>53.0</ele><time>2026-05-01T10:29:33.102Z</time></trkpt><trkpt lat="45.2676883" lon="10.1279583"><ele>53.0</ele><time>2026-05-01T10:29:34.101Z</time></trkpt><trkpt lat="45.267935" lon="10.1280417"><ele>53.0</ele><time>2026-05-01T10:29:35.101Z</time></trkpt><trkpt lat="45.2681767" lon="10.1281117"><ele>53.0</ele><time>2026-05-01T10:29:36.101Z</time></trkpt><trkpt lat="45.26842" lon="10.12819"><ele>53.0</ele><time>2026-05-01T10:29:37.101Z</time></trkpt><trkpt lat="45.268665" lon="10.1282683"><ele>53.0</ele><time>2026-05-01T10:29:38.101Z</time></trkpt><trkpt lat="45.2689083" lon="10.1283467"><ele>53.0</ele><time>2026-05-01T10:29:39.102Z</time></trkpt><trkpt lat="45.2691517" lon="10.128425"><ele>53.0</ele><time>2026-05-01T10:29:40.102Z</time></trkpt><trkpt lat="45.2693933" lon="10.1285067"><ele>53.0</ele><time>2026-05-01T10:29:41.102Z</time></trkpt><trkpt lat="45.2696333" lon="10.1285833"><ele>52.5</ele><time>2026-05-01T10:29:42.101Z</time></trkpt><trkpt lat="45.269875" lon="10.1286567"><ele>52.0</ele><time>2026-05-01T10:29:43.101Z</time></trkpt><trkpt lat="45.27011" lon="10.128735"><ele>52.0</ele><time>2026-05-01T10:29:44.101Z</time></trkpt><trkpt lat="45.2703483" lon="10.1288117"><ele>52.0</ele><time>2026-05-01T10:29:45.101Z</time></trkpt><trkpt lat="45.2705933" lon="10.12889"><ele>51.0</ele><time>2026-05-01T10:29:46.101Z</time></trkpt><trkpt lat="45.2708383" lon="10.12897"><ele>50.0</ele><time>2026-05-01T10:29:47.101Z</time></trkpt><trkpt lat="45.2710833" lon="10.1290517"><ele>51.0</ele><time>2026-05-01T10:29:48.101Z</time></trkpt><trkpt lat="45.2715617" lon="10.1292017"><ele>51.0</ele><time>2026-05-01T10:29:50.101Z</time></trkpt><trkpt lat="45.271795" lon="10.1292733"><ele>51.0</ele><time>2026-05-01T10:29:51.101Z</time></trkpt><trkpt lat="45.27203" lon="10.12935"><ele>52.5</ele><time>2026-05-01T10:29:52.101Z</time></trkpt><trkpt lat="45.27228" lon="10.129415"><ele>54.0</ele><time>2026-05-01T10:29:53.101Z</time></trkpt><trkpt lat="45.2725267" lon="10.1294933"><ele>54.0</ele><time>2026-05-01T10:29:54.101Z</time></trkpt><trkpt lat="45.27278" lon="10.1295733"><ele>54.0</ele><time>2026-05-01T10:29:55.101Z</time></trkpt><trkpt lat="45.2730283" lon="10.1296533"><ele>52.5</ele><time>2026-05-01T10:29:56.101Z</time></trkpt><trkpt lat="45.2732767" lon="10.1297317"><ele>51.0</ele><time>2026-05-01T10:29:57.101Z</time></trkpt><trkpt lat="45.2735217" lon="10.1298083"><ele>51.0</ele><time>2026-05-01T10:29:58.102Z</time></trkpt><trkpt lat="45.2737667" lon="10.1298883"><ele>51.0</ele><time>2026-05-01T10:29:59.102Z</time></trkpt><trkpt lat="45.2740083" lon="10.1299683"><ele>51.5</ele><time>2026-05-01T10:30:00.101Z</time></trkpt><trkpt lat="45.27425" lon="10.1300417"><ele>52.0</ele><time>2026-05-01T10:30:01.101Z</time></trkpt><trkpt lat="45.27449" lon="10.13012"><ele>52.0</ele><time>2026-05-01T10:30:02.101Z</time></trkpt><trkpt lat="45.2747367" lon="10.1302"><ele>52.0</ele><time>2026-05-01T10:30:03.102Z</time></trkpt><trkpt lat="45.2749833" lon="10.13028"><ele>52.0</ele><time>2026-05-01T10:30:04.101Z</time></trkpt><trkpt lat="45.2752317" lon="10.13036"><ele>52.0</ele><time>2026-05-01T10:30:05.102Z</time></trkpt><trkpt lat="45.2757383" lon="10.13052"><ele>51.5</ele><time>2026-05-01T10:30:07.101Z</time></trkpt><trkpt lat="45.2759933" lon="10.1305967"><ele>51.0</ele><time>2026-05-01T10:30:08.101Z</time></trkpt><trkpt lat="45.2762383" lon="10.1306717"><ele>50.5</ele><time>2026-05-01T10:30:09.101Z</time></trkpt><trkpt lat="45.276485" lon="10.1307533"><ele>50.0</ele><time>2026-05-01T10:30:10.102Z</time></trkpt><trkpt lat="45.2767233" lon="10.130835"><ele>50.0</ele><time>2026-05-01T10:30:11.101Z</time></trkpt><trkpt lat="45.2772083" lon="10.13099"><ele>50.0</ele><time>2026-05-01T10:30:13.102Z</time></trkpt><trkpt lat="45.277455" lon="10.1310633"><ele>50.0</ele><time>2026-05-01T10:30:14.101Z</time></trkpt><trkpt lat="45.2776967" lon="10.1311417"><ele>50.0</ele><time>2026-05-01T10:30:15.102Z</time></trkpt><trkpt lat="45.2779417" lon="10.13122"><ele>50.0</ele><time>2026-05-01T10:30:16.101Z</time></trkpt><trkpt lat="45.2781917" lon="10.1313067"><ele>50.5</ele><time>2026-05-01T10:30:17.102Z</time></trkpt><trkpt lat="45.27844" lon="10.1313867"><ele>51.0</ele><time>2026-05-01T10:30:18.101Z</time></trkpt><trkpt lat="45.2786967" lon="10.1314667"><ele>51.5</ele><time>2026-05-01T10:30:19.101Z</time></trkpt><trkpt lat="45.27895" lon="10.1315517"><ele>52.0</ele><time>2026-05-01T10:30:20.101Z</time></trkpt><trkpt lat="45.2792017" lon="10.1316333"><ele>52.5</ele><time>2026-05-01T10:30:21.101Z</time></trkpt><trkpt lat="45.279455" lon="10.1317183"><ele>53.0</ele><time>2026-05-01T10:30:22.101Z</time></trkpt><trkpt lat="45.279705" lon="10.131805"><ele>53.0</ele><time>2026-05-01T10:30:23.102Z</time></trkpt><trkpt lat="45.2799533" lon="10.1318783"><ele>53.0</ele><time>2026-05-01T10:30:24.102Z</time></trkpt><trkpt lat="45.2801967" lon="10.1319483"><ele>53.0</ele><time>2026-05-01T10:30:25.101Z</time></trkpt><trkpt lat="45.2804417" lon="10.132025"><ele>53.0</ele><time>2026-05-01T10:30:26.102Z</time></trkpt><trkpt lat="45.2806833" lon="10.1321"><ele>52.5</ele><time>2026-05-01T10:30:27.101Z</time></trkpt><trkpt lat="45.2809283" lon="10.1321767"><ele>52.0</ele><time>2026-05-01T10:30:28.102Z</time></trkpt><trkpt lat="45.2811667" lon="10.1322533"><ele>52.0</ele><time>2026-05-01T10:30:29.101Z</time></trkpt><trkpt lat="45.2814083" lon="10.1323317"><ele>52.0</ele><time>2026-05-01T10:30:30.101Z</time></trkpt><trkpt lat="45.2816517" lon="10.1324133"><ele>52.5</ele><time>2026-05-01T10:30:31.101Z</time></trkpt><trkpt lat="45.2818983" lon="10.1324967"><ele>53.0</ele><time>2026-05-01T10:30:32.101Z</time></trkpt><trkpt lat="45.28214" lon="10.1325783"><ele>54.0</ele><time>2026-05-01T10:30:33.101Z</time></trkpt><trkpt lat="45.2823917" lon="10.132655"><ele>55.0</ele><time>2026-05-01T10:30:34.102Z</time></trkpt><trkpt lat="45.2826417" lon="10.1327217"><ele>55.0</ele><time>2026-05-01T10:30:35.101Z</time></trkpt><trkpt lat="45.2828917" lon="10.1327983"><ele>55.0</ele><time>2026-05-01T10:30:36.102Z</time></trkpt><trkpt lat="45.2831383" lon="10.1328833"><ele>54.0</ele><time>2026-05-01T10:30:37.102Z</time></trkpt><trkpt lat="45.2833867" lon="10.1329617"><ele>53.0</ele><time>2026-05-01T10:30:38.102Z</time></trkpt><trkpt lat="45.2836333" lon="10.1330417"><ele>53.0</ele><time>2026-05-01T10:30:39.102Z</time></trkpt><trkpt lat="45.283875" lon="10.1331167"><ele>53.0</ele><time>2026-05-01T10:30:40.101Z</time></trkpt><trkpt lat="45.2841133" lon="10.133195"><ele>53.0</ele><time>2026-05-01T10:30:41.101Z</time></trkpt><trkpt lat="45.2843517" lon="10.13327"><ele>53.0</ele><time>2026-05-01T10:30:42.102Z</time></trkpt><trkpt lat="45.2845883" lon="10.133345"><ele>53.0</ele><time>2026-05-01T10:30:43.101Z</time></trkpt><trkpt lat="45.28483" lon="10.1334233"><ele>53.0</ele><time>2026-05-01T10:30:44.102Z</time></trkpt><trkpt lat="45.2850717" lon="10.1334983"><ele>53.0</ele><time>2026-05-01T10:30:45.102Z</time></trkpt><trkpt lat="45.2853167" lon="10.1335767"><ele>53.0</ele><time>2026-05-01T10:30:46.102Z</time></trkpt><trkpt lat="45.2855567" lon="10.1336583"><ele>52.5</ele><time>2026-05-01T10:30:47.101Z</time></trkpt><trkpt lat="45.285805" lon="10.1337333"><ele>52.0</ele><time>2026-05-01T10:30:48.101Z</time></trkpt><trkpt lat="45.2860517" lon="10.13381"><ele>52.0</ele><time>2026-05-01T10:30:49.102Z</time></trkpt><trkpt lat="45.2863" lon="10.1338867"><ele>52.0</ele><time>2026-05-01T10:30:50.101Z</time></trkpt><trkpt lat="45.2865567" lon="10.1339617"><ele>53.0</ele><time>2026-05-01T10:30:51.102Z</time></trkpt><trkpt lat="45.2870567" lon="10.13412"><ele>54.0</ele><time>2026-05-01T10:30:53.101Z</time></trkpt><trkpt lat="45.28731" lon="10.1342017"><ele>55.0</ele><time>2026-05-01T10:30:54.102Z</time></trkpt><trkpt lat="45.2875633" lon="10.1342767"><ele>55.0</ele><time>2026-05-01T10:30:55.101Z</time></trkpt><trkpt lat="45.2880867" lon="10.1344367"><ele>54.5</ele><time>2026-05-01T10:30:57.101Z</time></trkpt><trkpt lat="45.288345" lon="10.1345167"><ele>54.0</ele><time>2026-05-01T10:30:58.102Z</time></trkpt><trkpt lat="45.2886" lon="10.1346067"><ele>54.0</ele><time>2026-05-01T10:30:59.102Z</time></trkpt><trkpt lat="45.28886" lon="10.1346967"><ele>54.0</ele><time>2026-05-01T10:31:00.102Z</time></trkpt><trkpt lat="45.2891217" lon="10.134785"><ele>54.0</ele><time>2026-05-01T10:31:01.101Z</time></trkpt><trkpt lat="45.2893833" lon="10.1348667"><ele>54.0</ele><time>2026-05-01T10:31:02.102Z</time></trkpt><trkpt lat="45.289645" lon="10.1349517"><ele>54.5</ele><time>2026-05-01T10:31:03.102Z</time></trkpt><trkpt lat="45.2899033" lon="10.1350333"><ele>55.0</ele><time>2026-05-01T10:31:04.101Z</time></trkpt><trkpt lat="45.2901533" lon="10.1351167"><ele>55.0</ele><time>2026-05-01T10:31:05.102Z</time></trkpt><trkpt lat="45.2904033" lon="10.1352033"><ele>55.0</ele><time>2026-05-01T10:31:06.101Z</time></trkpt><trkpt lat="45.2906567" lon="10.1352817"><ele>55.0</ele><time>2026-05-01T10:31:07.101Z</time></trkpt><trkpt lat="45.2908983" lon="10.1353617"><ele>55.0</ele><time>2026-05-01T10:31:08.101Z</time></trkpt><trkpt lat="45.2911417" lon="10.1354383"><ele>55.0</ele><time>2026-05-01T10:31:09.102Z</time></trkpt><trkpt lat="45.2913833" lon="10.1355167"><ele>55.0</ele><time>2026-05-01T10:31:10.101Z</time></trkpt><trkpt lat="45.291625" lon="10.1355983"><ele>55.0</ele><time>2026-05-01T10:31:11.101Z</time></trkpt><trkpt lat="45.2918667" lon="10.1356767"><ele>55.0</ele><time>2026-05-01T10:31:12.102Z</time></trkpt><trkpt lat="45.29211" lon="10.135755"><ele>54.5</ele><time>2026-05-01T10:31:13.102Z</time></trkpt><trkpt lat="45.292355" lon="10.1358317"><ele>54.0</ele><time>2026-05-01T10:31:14.102Z</time></trkpt><trkpt lat="45.2926017" lon="10.1359117"><ele>54.0</ele><time>2026-05-01T10:31:15.101Z</time></trkpt><trkpt lat="45.2928467" lon="10.1359867"><ele>54.0</ele><time>2026-05-01T10:31:16.101Z</time></trkpt><trkpt lat="45.293095" lon="10.1360667"><ele>55.0</ele><time>2026-05-01T10:31:17.102Z</time></trkpt><trkpt lat="45.29334" lon="10.13615"><ele>56.0</ele><time>2026-05-01T10:31:18.101Z</time></trkpt><trkpt lat="45.2935867" lon="10.136225"><ele>56.0</ele><time>2026-05-01T10:31:19.101Z</time></trkpt><trkpt lat="45.2938367" lon="10.1363033"><ele>56.0</ele><time>2026-05-01T10:31:20.101Z</time></trkpt><trkpt lat="45.2940883" lon="10.1363867"><ele>55.5</ele><time>2026-05-01T10:31:21.101Z</time></trkpt><trkpt lat="45.29434" lon="10.13646"><ele>55.0</ele><time>2026-05-01T10:31:22.101Z</time></trkpt><trkpt lat="45.2945883" lon="10.1365383"><ele>54.5</ele><time>2026-05-01T10:31:23.101Z</time></trkpt><trkpt lat="45.2948367" lon="10.1366233"><ele>54.0</ele><time>2026-05-01T10:31:24.101Z</time></trkpt><trkpt lat="45.295085" lon="10.1367017"><ele>54.0</ele><time>2026-05-01T10:31:25.101Z</time></trkpt><trkpt lat="45.295335" lon="10.1367717"><ele>54.0</ele><time>2026-05-01T10:31:26.101Z</time></trkpt><trkpt lat="45.29583" lon="10.1369267"><ele>54.5</ele><time>2026-05-01T10:31:28.101Z</time></trkpt><trkpt lat="45.296075" lon="10.13701"><ele>55.0</ele><time>2026-05-01T10:31:29.102Z</time></trkpt><trkpt lat="45.2963183" lon="10.1370883"><ele>55.5</ele><time>2026-05-01T10:31:30.101Z</time></trkpt><trkpt lat="45.2965633" lon="10.1371683"><ele>56.0</ele><time>2026-05-01T10:31:31.101Z</time></trkpt><trkpt lat="45.2968067" lon="10.1372483"><ele>56.0</ele><time>2026-05-01T10:31:32.101Z</time></trkpt><trkpt lat="45.2970467" lon="10.1373267"><ele>56.0</ele><time>2026-05-01T10:31:33.102Z</time></trkpt><trkpt lat="45.2972867" lon="10.1374033"><ele>55.5</ele><time>2026-05-01T10:31:34.101Z</time></trkpt><trkpt lat="45.29753" lon="10.1374817"><ele>55.0</ele><time>2026-05-01T10:31:35.102Z</time></trkpt><trkpt lat="45.29777" lon="10.13756"><ele>55.0</ele><time>2026-05-01T10:31:36.102Z</time></trkpt><trkpt lat="45.298015" lon="10.1376433"><ele>55.0</ele><time>2026-05-01T10:31:37.101Z</time></trkpt><trkpt lat="45.29826" lon="10.13772"><ele>54.5</ele><time>2026-05-01T10:31:38.102Z</time></trkpt><trkpt lat="45.2985033" lon="10.1378"><ele>54.0</ele><time>2026-05-01T10:31:39.101Z</time></trkpt><trkpt lat="45.29874" lon="10.1378783"><ele>55.0</ele><time>2026-05-01T10:31:40.102Z</time></trkpt><trkpt lat="45.2989817" lon="10.1379567"><ele>56.0</ele><time>2026-05-01T10:31:41.101Z</time></trkpt><trkpt lat="45.299225" lon="10.1380367"><ele>56.0</ele><time>2026-05-01T10:31:42.102Z</time></trkpt><trkpt lat="45.2994717" lon="10.1381167"><ele>56.0</ele><time>2026-05-01T10:31:43.101Z</time></trkpt><trkpt lat="45.2997167" lon="10.1381967"><ele>56.0</ele><time>2026-05-01T10:31:44.102Z</time></trkpt><trkpt lat="45.2999667" lon="10.1382767"><ele>56.0</ele><time>2026-05-01T10:31:45.102Z</time></trkpt><trkpt lat="45.30022" lon="10.1383583"><ele>56.0</ele><time>2026-05-01T10:31:46.101Z</time></trkpt><trkpt lat="45.300475" lon="10.138435"><ele>56.0</ele><time>2026-05-01T10:31:47.101Z</time></trkpt><trkpt lat="45.3007283" lon="10.1385183"><ele>55.5</ele><time>2026-05-01T10:31:48.101Z</time></trkpt><trkpt lat="45.30099" lon="10.1386017"><ele>55.0</ele><time>2026-05-01T10:31:49.102Z</time></trkpt><trkpt lat="45.30125" lon="10.13868"><ele>55.5</ele><time>2026-05-01T10:31:50.102Z</time></trkpt><trkpt lat="45.3015017" lon="10.1387583"><ele>56.0</ele><time>2026-05-01T10:31:51.101Z</time></trkpt><trkpt lat="45.3017567" lon="10.138835"><ele>56.0</ele><time>2026-05-01T10:31:52.102Z</time></trkpt><trkpt lat="45.3020117" lon="10.13891"><ele>56.0</ele><time>2026-05-01T10:31:53.101Z</time></trkpt><trkpt lat="45.3022617" lon="10.1389917"><ele>56.0</ele><time>2026-05-01T10:31:54.101Z</time></trkpt><trkpt lat="45.302505" lon="10.1390783"><ele>56.0</ele><time>2026-05-01T10:31:55.101Z</time></trkpt><trkpt lat="45.30275" lon="10.1391583"><ele>56.0</ele><time>2026-05-01T10:31:56.102Z</time></trkpt><trkpt lat="45.3029967" lon="10.139245"><ele>56.0</ele><time>2026-05-01T10:31:57.101Z</time></trkpt><trkpt lat="45.3032417" lon="10.13932"><ele>55.5</ele><time>2026-05-01T10:31:58.101Z</time></trkpt><trkpt lat="45.30349" lon="10.1393983"><ele>55.0</ele><time>2026-05-01T10:31:59.102Z</time></trkpt><trkpt lat="45.30374" lon="10.1394833"><ele>55.5</ele><time>2026-05-01T10:32:00.101Z</time></trkpt><trkpt lat="45.303985" lon="10.13956"><ele>56.0</ele><time>2026-05-01T10:32:01.101Z</time></trkpt><trkpt lat="45.3042317" lon="10.139645"><ele>56.0</ele><time>2026-05-01T10:32:02.101Z</time></trkpt><trkpt lat="45.3044767" lon="10.1397333"><ele>56.0</ele><time>2026-05-01T10:32:03.102Z</time></trkpt><trkpt lat="45.3047233" lon="10.139825"><ele>55.5</ele><time>2026-05-01T10:32:04.102Z</time></trkpt><trkpt lat="45.304975" lon="10.13991"><ele>55.0</ele><time>2026-05-01T10:32:05.101Z</time></trkpt><trkpt lat="45.3052233" lon="10.1400083"><ele>55.0</ele><time>2026-05-01T10:32:06.101Z</time></trkpt><trkpt lat="45.305475" lon="10.1401033"><ele>55.0</ele><time>2026-05-01T10:32:07.101Z</time></trkpt><trkpt lat="45.3057217" lon="10.14021"><ele>55.0</ele><time>2026-05-01T10:32:08.102Z</time></trkpt><trkpt lat="45.3059717" lon="10.140315"><ele>55.0</ele><time>2026-05-01T10:32:09.102Z</time></trkpt><trkpt lat="45.306225" lon="10.1404283"><ele>55.5</ele><time>2026-05-01T10:32:10.102Z</time></trkpt><trkpt lat="45.3064733" lon="10.14054"><ele>56.0</ele><time>2026-05-01T10:32:11.101Z</time></trkpt><trkpt lat="45.3067233" lon="10.14066"><ele>57.0</ele><time>2026-05-01T10:32:12.102Z</time></trkpt><trkpt lat="45.306965" lon="10.14078"><ele>58.0</ele><time>2026-05-01T10:32:13.101Z</time></trkpt><trkpt lat="45.3072167" lon="10.1408967"><ele>59.0</ele><time>2026-05-01T10:32:14.101Z</time></trkpt><trkpt lat="45.3074583" lon="10.1410267"><ele>60.0</ele><time>2026-05-01T10:32:15.102Z</time></trkpt><trkpt lat="45.307705" lon="10.1411417"><ele>60.0</ele><time>2026-05-01T10:32:16.102Z</time></trkpt><trkpt lat="45.30795" lon="10.141255"><ele>60.0</ele><time>2026-05-01T10:32:17.101Z</time></trkpt><trkpt lat="45.3081933" lon="10.1413767"><ele>59.0</ele><time>2026-05-01T10:32:18.101Z</time></trkpt><trkpt lat="45.3084333" lon="10.1415017"><ele>58.0</ele><time>2026-05-01T10:32:19.101Z</time></trkpt><trkpt lat="45.308675" lon="10.1416117"><ele>58.0</ele><time>2026-05-01T10:32:20.101Z</time></trkpt><trkpt lat="45.3089217" lon="10.1417317"><ele>58.0</ele><time>2026-05-01T10:32:21.101Z</time></trkpt><trkpt lat="45.3091667" lon="10.1418467"><ele>58.0</ele><time>2026-05-01T10:32:22.102Z</time></trkpt><trkpt lat="45.30941" lon="10.141965"><ele>58.0</ele><time>2026-05-01T10:32:23.102Z</time></trkpt><trkpt lat="45.3096517" lon="10.1420833"><ele>58.0</ele><time>2026-05-01T10:32:24.101Z</time></trkpt><trkpt lat="45.3098917" lon="10.1422067"><ele>58.0</ele><time>2026-05-01T10:32:25.101Z</time></trkpt><trkpt lat="45.310135" lon="10.1423267"><ele>58.0</ele><time>2026-05-01T10:32:26.102Z</time></trkpt><trkpt lat="45.3103783" lon="10.1424467"><ele>58.0</ele><time>2026-05-01T10:32:27.102Z</time></trkpt><trkpt lat="45.3106167" lon="10.1425633"><ele>58.0</ele><time>2026-05-01T10:32:28.101Z</time></trkpt><trkpt lat="45.3108533" lon="10.14268"><ele>58.0</ele><time>2026-05-01T10:32:29.102Z</time></trkpt><trkpt lat="45.3110967" lon="10.1428017"><ele>58.0</ele><time>2026-05-01T10:32:30.102Z</time></trkpt><trkpt lat="45.3113417" lon="10.1429267"><ele>58.0</ele><time>2026-05-01T10:32:31.102Z</time></trkpt><trkpt lat="45.3115833" lon="10.1430533"><ele>58.0</ele><time>2026-05-01T10:32:32.101Z</time></trkpt><trkpt lat="45.3118267" lon="10.1431767"><ele>58.0</ele><time>2026-05-01T10:32:33.102Z</time></trkpt><trkpt lat="45.3120717" lon="10.1432967"><ele>57.5</ele><time>2026-05-01T10:32:34.101Z</time></trkpt><trkpt lat="45.3123167" lon="10.14342"><ele>57.0</ele><time>2026-05-01T10:32:35.101Z</time></trkpt><trkpt lat="45.31256" lon="10.14354"><ele>57.0</ele><time>2026-05-01T10:32:36.101Z</time></trkpt><trkpt lat="45.3127983" lon="10.1436583"><ele>57.0</ele><time>2026-05-01T10:32:37.101Z</time></trkpt><trkpt lat="45.313035" lon="10.1437733"><ele>57.5</ele><time>2026-05-01T10:32:38.101Z</time></trkpt><trkpt lat="45.313275" lon="10.143895"><ele>58.0</ele><time>2026-05-01T10:32:39.101Z</time></trkpt><trkpt lat="45.3135167" lon="10.1440117"><ele>58.0</ele><time>2026-05-01T10:32:40.101Z</time></trkpt><trkpt lat="45.3137583" lon="10.14413"><ele>58.0</ele><time>2026-05-01T10:32:41.102Z</time></trkpt><trkpt lat="45.314" lon="10.14425"><ele>58.0</ele><time>2026-05-01T10:32:42.102Z</time></trkpt><trkpt lat="45.3142367" lon="10.144365"><ele>58.0</ele><time>2026-05-01T10:32:43.102Z</time></trkpt><trkpt lat="45.3144767" lon="10.1444833"><ele>58.0</ele><time>2026-05-01T10:32:44.101Z</time></trkpt><trkpt lat="45.31472" lon="10.1446"><ele>58.0</ele><time>2026-05-01T10:32:45.101Z</time></trkpt><trkpt lat="45.3149583" lon="10.1447183"><ele>57.5</ele><time>2026-05-01T10:32:46.101Z</time></trkpt><trkpt lat="45.3151967" lon="10.14484"><ele>57.0</ele><time>2026-05-01T10:32:47.102Z</time></trkpt><trkpt lat="45.3154367" lon="10.1449617"><ele>57.5</ele><time>2026-05-01T10:32:48.102Z</time></trkpt><trkpt lat="45.3156733" lon="10.1450833"><ele>58.0</ele><time>2026-05-01T10:32:49.102Z</time></trkpt><trkpt lat="45.3159117" lon="10.1451983"><ele>58.0</ele><time>2026-05-01T10:32:50.101Z</time></trkpt><trkpt lat="45.3161467" lon="10.1453133"><ele>58.0</ele><time>2026-05-01T10:32:51.102Z</time></trkpt><trkpt lat="45.3163833" lon="10.1454333"><ele>58.5</ele><time>2026-05-01T10:32:52.101Z</time></trkpt><trkpt lat="45.3166233" lon="10.1455533"><ele>59.0</ele><time>2026-05-01T10:32:53.101Z</time></trkpt><trkpt lat="45.3168667" lon="10.1456717"><ele>59.0</ele><time>2026-05-01T10:32:54.101Z</time></trkpt><trkpt lat="45.317105" lon="10.14579"><ele>59.0</ele><time>2026-05-01T10:32:55.102Z</time></trkpt><trkpt lat="45.317345" lon="10.1459133"><ele>59.0</ele><time>2026-05-01T10:32:56.102Z</time></trkpt><trkpt lat="45.3175917" lon="10.1460367"><ele>59.0</ele><time>2026-05-01T10:32:57.101Z</time></trkpt><trkpt lat="45.317845" lon="10.1461567"><ele>59.5</ele><time>2026-05-01T10:32:58.102Z</time></trkpt><trkpt lat="45.31809" lon="10.1462817"><ele>60.0</ele><time>2026-05-01T10:32:59.102Z</time></trkpt><trkpt lat="45.3183367" lon="10.1464033"><ele>60.0</ele><time>2026-05-01T10:33:00.102Z</time></trkpt><trkpt lat="45.3185817" lon="10.1465233"><ele>60.0</ele><time>2026-05-01T10:33:01.101Z</time></trkpt><trkpt lat="45.3188233" lon="10.146645"><ele>59.5</ele><time>2026-05-01T10:33:02.101Z</time></trkpt><trkpt lat="45.3190683" lon="10.146765"><ele>59.0</ele><time>2026-05-01T10:33:03.102Z</time></trkpt><trkpt lat="45.31931" lon="10.1468767"><ele>59.0</ele><time>2026-05-01T10:33:04.101Z</time></trkpt><trkpt lat="45.3195483" lon="10.1470017"><ele>59.0</ele><time>2026-05-01T10:33:05.101Z</time></trkpt><trkpt lat="45.3197833" lon="10.1471167"><ele>59.0</ele><time>2026-05-01T10:33:06.102Z</time></trkpt><trkpt lat="45.3200233" lon="10.1472283"><ele>59.0</ele><time>2026-05-01T10:33:07.102Z</time></trkpt><trkpt lat="45.3202583" lon="10.147345"><ele>59.0</ele><time>2026-05-01T10:33:08.101Z</time></trkpt><trkpt lat="45.3204933" lon="10.1474667"><ele>59.0</ele><time>2026-05-01T10:33:09.102Z</time></trkpt><trkpt lat="45.320725" lon="10.1475783"><ele>59.5</ele><time>2026-05-01T10:33:10.101Z</time></trkpt><trkpt lat="45.3209583" lon="10.1476967"><ele>60.0</ele><time>2026-05-01T10:33:11.102Z</time></trkpt><trkpt lat="45.32119" lon="10.1478067"><ele>60.0</ele><time>2026-05-01T10:33:12.102Z</time></trkpt><trkpt lat="45.32142" lon="10.1479317"><ele>60.0</ele><time>2026-05-01T10:33:13.102Z</time></trkpt><trkpt lat="45.32165" lon="10.1480483"><ele>60.0</ele><time>2026-05-01T10:33:14.101Z</time></trkpt><trkpt lat="45.3218817" lon="10.1481683"><ele>60.0</ele><time>2026-05-01T10:33:15.102Z</time></trkpt><trkpt lat="45.3221133" lon="10.1482833"><ele>60.0</ele><time>2026-05-01T10:33:16.101Z</time></trkpt><trkpt lat="45.3223467" lon="10.1483983"><ele>60.0</ele><time>2026-05-01T10:33:17.101Z</time></trkpt><trkpt lat="45.3225767" lon="10.1485167"><ele>60.0</ele><time>2026-05-01T10:33:18.101Z</time></trkpt><trkpt lat="45.32281" lon="10.1486283"><ele>60.0</ele><time>2026-05-01T10:33:19.101Z</time></trkpt><trkpt lat="45.3230433" lon="10.148745"><ele>60.0</ele><time>2026-05-01T10:33:20.102Z</time></trkpt><trkpt lat="45.32328" lon="10.148855"><ele>60.0</ele><time>2026-05-01T10:33:21.102Z</time></trkpt><trkpt lat="45.32352" lon="10.1489683"><ele>60.0</ele><time>2026-05-01T10:33:22.101Z</time></trkpt><trkpt lat="45.323755" lon="10.1490867"><ele>60.0</ele><time>2026-05-01T10:33:23.102Z</time></trkpt><trkpt lat="45.32399" lon="10.1492083"><ele>61.0</ele><time>2026-05-01T10:33:24.101Z</time></trkpt><trkpt lat="45.324225" lon="10.1493283"><ele>62.0</ele><time>2026-05-01T10:33:25.102Z</time></trkpt><trkpt lat="45.32447" lon="10.1494483"><ele>62.0</ele><time>2026-05-01T10:33:26.101Z</time></trkpt><trkpt lat="45.32471" lon="10.149565"><ele>62.0</ele><time>2026-05-01T10:33:27.102Z</time></trkpt><trkpt lat="45.324955" lon="10.149685"><ele>62.5</ele><time>2026-05-01T10:33:28.101Z</time></trkpt><trkpt lat="45.3251933" lon="10.149805"><ele>63.0</ele><time>2026-05-01T10:33:29.102Z</time></trkpt><trkpt lat="45.3254383" lon="10.1499183"><ele>62.0</ele><time>2026-05-01T10:33:30.102Z</time></trkpt><trkpt lat="45.3256767" lon="10.1500433"><ele>61.0</ele><time>2026-05-01T10:33:31.102Z</time></trkpt><trkpt lat="45.3259183" lon="10.1501667"><ele>61.0</ele><time>2026-05-01T10:33:32.101Z</time></trkpt><trkpt lat="45.3261617" lon="10.1502867"><ele>61.0</ele><time>2026-05-01T10:33:33.102Z</time></trkpt><trkpt lat="45.3264033" lon="10.1504083"><ele>61.5</ele><time>2026-05-01T10:33:34.101Z</time></trkpt><trkpt lat="45.3266467" lon="10.1505317"><ele>62.0</ele><time>2026-05-01T10:33:35.101Z</time></trkpt><trkpt lat="45.32689" lon="10.15065"><ele>62.0</ele><time>2026-05-01T10:33:36.102Z</time></trkpt><trkpt lat="45.3271383" lon="10.1507683"><ele>62.0</ele><time>2026-05-01T10:33:37.101Z</time></trkpt><trkpt lat="45.327385" lon="10.1508917"><ele>62.0</ele><time>2026-05-01T10:33:38.102Z</time></trkpt><trkpt lat="45.3276317" lon="10.15101"><ele>62.0</ele><time>2026-05-01T10:33:39.101Z</time></trkpt><trkpt lat="45.3278833" lon="10.15113"><ele>62.5</ele><time>2026-05-01T10:33:40.102Z</time></trkpt><trkpt lat="45.3281333" lon="10.1512533"><ele>63.0</ele><time>2026-05-01T10:33:41.101Z</time></trkpt><trkpt lat="45.3286317" lon="10.1515017"><ele>62.0</ele><time>2026-05-01T10:33:43.102Z</time></trkpt><trkpt lat="45.328885" lon="10.151625"><ele>61.0</ele><time>2026-05-01T10:33:44.102Z</time></trkpt><trkpt lat="45.3291367" lon="10.151755"><ele>61.0</ele><time>2026-05-01T10:33:45.101Z</time></trkpt><trkpt lat="45.3293917" lon="10.1518783"><ele>61.0</ele><time>2026-05-01T10:33:46.101Z</time></trkpt><trkpt lat="45.3296433" lon="10.1520033"><ele>61.0</ele><time>2026-05-01T10:33:47.102Z</time></trkpt><trkpt lat="45.3298967" lon="10.1521233"><ele>61.0</ele><time>2026-05-01T10:33:48.101Z</time></trkpt><trkpt lat="45.330145" lon="10.1522483"><ele>61.0</ele><time>2026-05-01T10:33:49.101Z</time></trkpt><trkpt lat="45.33039" lon="10.1523767"><ele>61.0</ele><time>2026-05-01T10:33:50.101Z</time></trkpt><trkpt lat="45.3306383" lon="10.1525017"><ele>60.5</ele><time>2026-05-01T10:33:51.101Z</time></trkpt><trkpt lat="45.3308883" lon="10.1526217"><ele>60.0</ele><time>2026-05-01T10:33:52.101Z</time></trkpt><trkpt lat="45.3311333" lon="10.1527467"><ele>60.0</ele><time>2026-05-01T10:33:53.101Z</time></trkpt><trkpt lat="45.3313733" lon="10.152875"><ele>60.0</ele><time>2026-05-01T10:33:54.101Z</time></trkpt><trkpt lat="45.331615" lon="10.1529967"><ele>60.0</ele><time>2026-05-01T10:33:55.101Z</time></trkpt><trkpt lat="45.3318567" lon="10.1531183"><ele>60.0</ele><time>2026-05-01T10:33:56.101Z</time></trkpt><trkpt lat="45.3321033" lon="10.1532317"><ele>60.0</ele><time>2026-05-01T10:33:57.102Z</time></trkpt><trkpt lat="45.332345" lon="10.15335"><ele>60.0</ele><time>2026-05-01T10:33:58.101Z</time></trkpt><trkpt lat="45.3325933" lon="10.15347"><ele>60.0</ele><time>2026-05-01T10:33:59.102Z</time></trkpt><trkpt lat="45.3328417" lon="10.153595"><ele>60.0</ele><time>2026-05-01T10:34:00.102Z</time></trkpt><trkpt lat="45.3330917" lon="10.1537217"><ele>61.5</ele><time>2026-05-01T10:34:01.101Z</time></trkpt><trkpt lat="45.3333433" lon="10.153845"><ele>63.0</ele><time>2026-05-01T10:34:02.102Z</time></trkpt><trkpt lat="45.333595" lon="10.1539717"><ele>63.0</ele><time>2026-05-01T10:34:03.102Z</time></trkpt><trkpt lat="45.3338433" lon="10.1541"><ele>63.0</ele><time>2026-05-01T10:34:04.1Z</time></trkpt><trkpt lat="45.3340967" lon="10.1542217"><ele>62.5</ele><time>2026-05-01T10:34:05.101Z</time></trkpt><trkpt lat="45.33434" lon="10.1543433"><ele>62.0</ele><time>2026-05-01T10:34:06.101Z</time></trkpt><trkpt lat="45.3345833" lon="10.1544633"><ele>61.5</ele><time>2026-05-01T10:34:07.1Z</time></trkpt><trkpt lat="45.3348267" lon="10.1545817"><ele>61.0</ele><time>2026-05-01T10:34:08.1Z</time></trkpt><trkpt lat="45.3350667" lon="10.1546983"><ele>61.0</ele><time>2026-05-01T10:34:09.1Z</time></trkpt><trkpt lat="45.3353017" lon="10.15481"><ele>61.0</ele><time>2026-05-01T10:34:10.1Z</time></trkpt><trkpt lat="45.3355417" lon="10.154925"><ele>61.0</ele><time>2026-05-01T10:34:11.1Z</time></trkpt><trkpt lat="45.335785" lon="10.155045"><ele>61.0</ele><time>2026-05-01T10:34:12.1Z</time></trkpt><trkpt lat="45.3360233" lon="10.1551583"><ele>61.0</ele><time>2026-05-01T10:34:13.1Z</time></trkpt><trkpt lat="45.3362583" lon="10.15528"><ele>61.0</ele><time>2026-05-01T10:34:14.1Z</time></trkpt><trkpt lat="45.3364983" lon="10.1553983"><ele>62.0</ele><time>2026-05-01T10:34:15.101Z</time></trkpt><trkpt lat="45.3367333" lon="10.1555167"><ele>63.0</ele><time>2026-05-01T10:34:16.1Z</time></trkpt><trkpt lat="45.3369633" lon="10.155635"><ele>63.0</ele><time>2026-05-01T10:34:17.101Z</time></trkpt><trkpt lat="45.3371933" lon="10.1557467"><ele>63.0</ele><time>2026-05-01T10:34:18.1Z</time></trkpt><trkpt lat="45.33743" lon="10.1558667"><ele>62.5</ele><time>2026-05-01T10:34:19.101Z</time></trkpt><trkpt lat="45.33767" lon="10.155985"><ele>62.0</ele><time>2026-05-01T10:34:20.1Z</time></trkpt><trkpt lat="45.3379083" lon="10.1561017"><ele>63.0</ele><time>2026-05-01T10:34:21.101Z</time></trkpt><trkpt lat="45.3381517" lon="10.1562217"><ele>64.0</ele><time>2026-05-01T10:34:22.1Z</time></trkpt><trkpt lat="45.3383967" lon="10.1563433"><ele>64.0</ele><time>2026-05-01T10:34:23.101Z</time></trkpt><trkpt lat="45.3386417" lon="10.1564667"><ele>64.0</ele><time>2026-05-01T10:34:24.1Z</time></trkpt><trkpt lat="45.3388883" lon="10.1565917"><ele>64.5</ele><time>2026-05-01T10:34:25.1Z</time></trkpt><trkpt lat="45.3391383" lon="10.1567167"><ele>65.0</ele><time>2026-05-01T10:34:26.1Z</time></trkpt><trkpt lat="45.33938" lon="10.1568333"><ele>65.0</ele><time>2026-05-01T10:34:27.1Z</time></trkpt><trkpt lat="45.3396233" lon="10.15695"><ele>65.0</ele><time>2026-05-01T10:34:28.1Z</time></trkpt><trkpt lat="45.3398617" lon="10.1570633"><ele>64.0</ele><time>2026-05-01T10:34:29.1Z</time></trkpt><trkpt lat="45.3400983" lon="10.1571817"><ele>63.0</ele><time>2026-05-01T10:34:30.101Z</time></trkpt><trkpt lat="45.3403317" lon="10.1572983"><ele>63.0</ele><time>2026-05-01T10:34:31.101Z</time></trkpt><trkpt lat="45.3405667" lon="10.1574183"><ele>63.0</ele><time>2026-05-01T10:34:32.1Z</time></trkpt><trkpt lat="45.3408017" lon="10.15754"><ele>63.0</ele><time>2026-05-01T10:34:33.1Z</time></trkpt><trkpt lat="45.341035" lon="10.1576583"><ele>63.0</ele><time>2026-05-01T10:34:34.1Z</time></trkpt><trkpt lat="45.341265" lon="10.157775"><ele>62.5</ele><time>2026-05-01T10:34:35.1Z</time></trkpt><trkpt lat="45.3415033" lon="10.15789"><ele>62.0</ele><time>2026-05-01T10:34:36.101Z</time></trkpt><trkpt lat="45.3417383" lon="10.1580017"><ele>62.0</ele><time>2026-05-01T10:34:37.101Z</time></trkpt><trkpt lat="45.3419783" lon="10.1581183"><ele>62.0</ele><time>2026-05-01T10:34:38.1Z</time></trkpt><trkpt lat="45.3422217" lon="10.158235"><ele>63.5</ele><time>2026-05-01T10:34:39.1Z</time></trkpt><trkpt lat="45.3424683" lon="10.158355"><ele>65.0</ele><time>2026-05-01T10:34:40.101Z</time></trkpt><trkpt lat="45.3427083" lon="10.1584817"><ele>64.0</ele><time>2026-05-01T10:34:41.1Z</time></trkpt><trkpt lat="45.343195" lon="10.1587283"><ele>64.0</ele><time>2026-05-01T10:34:43.1Z</time></trkpt><trkpt lat="45.3434383" lon="10.1588467"><ele>64.0</ele><time>2026-05-01T10:34:44.101Z</time></trkpt><trkpt lat="45.3436867" lon="10.1589683"><ele>63.5</ele><time>2026-05-01T10:34:45.1Z</time></trkpt><trkpt lat="45.3439333" lon="10.1590933"><ele>63.0</ele><time>2026-05-01T10:34:46.1Z</time></trkpt><trkpt lat="45.344175" lon="10.159215"><ele>63.0</ele><time>2026-05-01T10:34:47.1Z</time></trkpt><trkpt lat="45.3444133" lon="10.1593333"><ele>63.0</ele><time>2026-05-01T10:34:48.101Z</time></trkpt><trkpt lat="45.3446533" lon="10.1594483"><ele>62.5</ele><time>2026-05-01T10:34:49.101Z</time></trkpt><trkpt lat="45.34489" lon="10.15956"><ele>62.0</ele><time>2026-05-01T10:34:50.101Z</time></trkpt><trkpt lat="45.3451217" lon="10.159675"><ele>62.0</ele><time>2026-05-01T10:34:51.101Z</time></trkpt><trkpt lat="45.3453583" lon="10.1597933"><ele>62.0</ele><time>2026-05-01T10:34:52.1Z</time></trkpt><trkpt lat="45.3455983" lon="10.159915"><ele>63.0</ele><time>2026-05-01T10:34:53.1Z</time></trkpt><trkpt lat="45.3458333" lon="10.160035"><ele>64.0</ele><time>2026-05-01T10:34:54.1Z</time></trkpt><trkpt lat="45.3460683" lon="10.1601567"><ele>64.0</ele><time>2026-05-01T10:34:55.1Z</time></trkpt><trkpt lat="45.3463067" lon="10.1602717"><ele>64.0</ele><time>2026-05-01T10:34:56.101Z</time></trkpt><trkpt lat="45.346545" lon="10.1603867"><ele>64.5</ele><time>2026-05-01T10:34:57.101Z</time></trkpt><trkpt lat="45.3467867" lon="10.1605067"><ele>65.0</ele><time>2026-05-01T10:34:58.1Z</time></trkpt><trkpt lat="45.347025" lon="10.1606233"><ele>65.0</ele><time>2026-05-01T10:34:59.1Z</time></trkpt><trkpt lat="45.3472633" lon="10.1607383"><ele>65.0</ele><time>2026-05-01T10:35:00.1Z</time></trkpt><trkpt lat="45.3475017" lon="10.1608583"><ele>65.0</ele><time>2026-05-01T10:35:01.1Z</time></trkpt><trkpt lat="45.3477317" lon="10.1609733"><ele>65.0</ele><time>2026-05-01T10:35:02.1Z</time></trkpt><trkpt lat="45.3479717" lon="10.16109"><ele>64.0</ele><time>2026-05-01T10:35:03.1Z</time></trkpt><trkpt lat="45.3482017" lon="10.16121"><ele>63.0</ele><time>2026-05-01T10:35:04.1Z</time></trkpt><trkpt lat="45.3484433" lon="10.16133"><ele>63.0</ele><time>2026-05-01T10:35:05.1Z</time></trkpt><trkpt lat="45.3486783" lon="10.16145"><ele>63.0</ele><time>2026-05-01T10:35:06.101Z</time></trkpt><trkpt lat="45.3489167" lon="10.1615683"><ele>63.5</ele><time>2026-05-01T10:35:07.1Z</time></trkpt><trkpt lat="45.3491617" lon="10.1616817"><ele>64.0</ele><time>2026-05-01T10:35:08.1Z</time></trkpt><trkpt lat="45.3494017" lon="10.1618017"><ele>64.0</ele><time>2026-05-01T10:35:09.1Z</time></trkpt><trkpt lat="45.3496417" lon="10.161925"><ele>64.0</ele><time>2026-05-01T10:35:10.101Z</time></trkpt><trkpt lat="45.3498883" lon="10.1620433"><ele>62.5</ele><time>2026-05-01T10:35:11.1Z</time></trkpt><trkpt lat="45.3501367" lon="10.1621633"><ele>61.0</ele><time>2026-05-01T10:35:12.101Z</time></trkpt><trkpt lat="45.3503867" lon="10.1622833"><ele>62.0</ele><time>2026-05-01T10:35:13.1Z</time></trkpt><trkpt lat="45.3506367" lon="10.16241"><ele>63.0</ele><time>2026-05-01T10:35:14.1Z</time></trkpt><trkpt lat="45.3508883" lon="10.1625383"><ele>63.0</ele><time>2026-05-01T10:35:15.1Z</time></trkpt><trkpt lat="45.351135" lon="10.1626583"><ele>63.0</ele><time>2026-05-01T10:35:16.1Z</time></trkpt><trkpt lat="45.3513767" lon="10.1627817"><ele>62.5</ele><time>2026-05-01T10:35:17.1Z</time></trkpt><trkpt lat="45.35162" lon="10.1629"><ele>62.0</ele><time>2026-05-01T10:35:18.1Z</time></trkpt><trkpt lat="45.3518633" lon="10.16302"><ele>62.0</ele><time>2026-05-01T10:35:19.1Z</time></trkpt><trkpt lat="45.3521017" lon="10.163145"><ele>62.0</ele><time>2026-05-01T10:35:20.101Z</time></trkpt><trkpt lat="45.35234" lon="10.1632617"><ele>59.5</ele><time>2026-05-01T10:35:21.1Z</time></trkpt><trkpt lat="45.352575" lon="10.1633817"><ele>57.0</ele><time>2026-05-01T10:35:22.101Z</time></trkpt><trkpt lat="45.35281" lon="10.1634917"><ele>55.5</ele><time>2026-05-01T10:35:23.1Z</time></trkpt><trkpt lat="45.3530483" lon="10.1636183"><ele>54.0</ele><time>2026-05-01T10:35:24.101Z</time></trkpt><trkpt lat="45.3532883" lon="10.163735"><ele>54.0</ele><time>2026-05-01T10:35:25.1Z</time></trkpt><trkpt lat="45.3535333" lon="10.1638533"><ele>54.0</ele><time>2026-05-01T10:35:26.101Z</time></trkpt><trkpt lat="45.35378" lon="10.163975"><ele>55.0</ele><time>2026-05-01T10:35:27.1Z</time></trkpt><trkpt lat="45.3540217" lon="10.1640967"><ele>56.0</ele><time>2026-05-01T10:35:28.1Z</time></trkpt><trkpt lat="45.3542667" lon="10.16422"><ele>56.0</ele><time>2026-05-01T10:35:29.1Z</time></trkpt><trkpt lat="45.3545117" lon="10.1643417"><ele>56.0</ele><time>2026-05-01T10:35:30.101Z</time></trkpt><trkpt lat="45.3547517" lon="10.164465"><ele>55.5</ele><time>2026-05-01T10:35:31.101Z</time></trkpt><trkpt lat="45.3549933" lon="10.1645883"><ele>55.0</ele><time>2026-05-01T10:35:32.101Z</time></trkpt><trkpt lat="45.355225" lon="10.1647067"><ele>55.0</ele><time>2026-05-01T10:35:33.1Z</time></trkpt><trkpt lat="45.3554583" lon="10.164825"><ele>55.0</ele><time>2026-05-01T10:35:34.1Z</time></trkpt><trkpt lat="45.3556883" lon="10.164945"><ele>54.0</ele><time>2026-05-01T10:35:35.101Z</time></trkpt><trkpt lat="45.3559183" lon="10.16506"><ele>53.0</ele><time>2026-05-01T10:35:36.1Z</time></trkpt><trkpt lat="45.3561517" lon="10.1651767"><ele>55.5</ele><time>2026-05-01T10:35:37.101Z</time></trkpt><trkpt lat="45.356385" lon="10.1652917"><ele>58.0</ele><time>2026-05-01T10:35:38.1Z</time></trkpt><trkpt lat="45.3566217" lon="10.1654067"><ele>58.0</ele><time>2026-05-01T10:35:39.1Z</time></trkpt><trkpt lat="45.3568667" lon="10.1655183"><ele>58.0</ele><time>2026-05-01T10:35:40.1Z</time></trkpt><trkpt lat="45.3571083" lon="10.165635"><ele>59.0</ele><time>2026-05-01T10:35:41.1Z</time></trkpt><trkpt lat="45.3573467" lon="10.1657517"><ele>60.0</ele><time>2026-05-01T10:35:42.101Z</time></trkpt><trkpt lat="45.3575883" lon="10.165875"><ele>60.0</ele><time>2026-05-01T10:35:43.1Z</time></trkpt><trkpt lat="45.3578267" lon="10.1659967"><ele>60.0</ele><time>2026-05-01T10:35:44.1Z</time></trkpt><trkpt lat="45.35806" lon="10.16612"><ele>60.0</ele><time>2026-05-01T10:35:45.1Z</time></trkpt><trkpt lat="45.3583" lon="10.1662367"><ele>60.0</ele><time>2026-05-01T10:35:46.1Z</time></trkpt><trkpt lat="45.3585367" lon="10.1663533"><ele>60.0</ele><time>2026-05-01T10:35:47.1Z</time></trkpt><trkpt lat="45.3587767" lon="10.1664683"><ele>60.0</ele><time>2026-05-01T10:35:48.1Z</time></trkpt><trkpt lat="45.35902" lon="10.16659"><ele>59.5</ele><time>2026-05-01T10:35:49.101Z</time></trkpt><trkpt lat="45.359265" lon="10.166705"><ele>59.0</ele><time>2026-05-01T10:35:50.101Z</time></trkpt><trkpt lat="45.359515" lon="10.1668283"><ele>60.0</ele><time>2026-05-01T10:35:51.1Z</time></trkpt><trkpt lat="45.3597667" lon="10.166955"><ele>61.0</ele><time>2026-05-01T10:35:52.101Z</time></trkpt><trkpt lat="45.360015" lon="10.1670833"><ele>61.0</ele><time>2026-05-01T10:35:53.1Z</time></trkpt><trkpt lat="45.360265" lon="10.167205"><ele>61.0</ele><time>2026-05-01T10:35:54.1Z</time></trkpt><trkpt lat="45.36051" lon="10.167325"><ele>62.5</ele><time>2026-05-01T10:35:55.101Z</time></trkpt><trkpt lat="45.3607483" lon="10.1674517"><ele>64.0</ele><time>2026-05-01T10:35:56.1Z</time></trkpt><trkpt lat="45.3609867" lon="10.167575"><ele>64.0</ele><time>2026-05-01T10:35:57.1Z</time></trkpt><trkpt lat="45.3612217" lon="10.1676917"><ele>64.0</ele><time>2026-05-01T10:35:58.1Z</time></trkpt><trkpt lat="45.3614533" lon="10.1678083"><ele>63.5</ele><time>2026-05-01T10:35:59.101Z</time></trkpt><trkpt lat="45.36169" lon="10.167925"><ele>63.0</ele><time>2026-05-01T10:36:00.1Z</time></trkpt><trkpt lat="45.3619267" lon="10.16804"><ele>63.0</ele><time>2026-05-01T10:36:01.101Z</time></trkpt><trkpt lat="45.36216" lon="10.1681533"><ele>63.0</ele><time>2026-05-01T10:36:02.1Z</time></trkpt><trkpt lat="45.3623933" lon="10.16827"><ele>64.0</ele><time>2026-05-01T10:36:03.101Z</time></trkpt><trkpt lat="45.3626283" lon="10.1683867"><ele>65.0</ele><time>2026-05-01T10:36:04.101Z</time></trkpt><trkpt lat="45.3628617" lon="10.168505"><ele>64.5</ele><time>2026-05-01T10:36:05.101Z</time></trkpt><trkpt lat="45.363095" lon="10.1686233"><ele>64.0</ele><time>2026-05-01T10:36:06.1Z</time></trkpt><trkpt lat="45.3633333" lon="10.1687467"><ele>64.0</ele><time>2026-05-01T10:36:07.1Z</time></trkpt><trkpt lat="45.3635683" lon="10.1688733"><ele>64.0</ele><time>2026-05-01T10:36:08.1Z</time></trkpt><trkpt lat="45.3638083" lon="10.16899"><ele>64.5</ele><time>2026-05-01T10:36:09.1Z</time></trkpt><trkpt lat="45.3640483" lon="10.169105"><ele>65.0</ele><time>2026-05-01T10:36:10.101Z</time></trkpt><trkpt lat="45.36429" lon="10.1692233"><ele>65.0</ele><time>2026-05-01T10:36:11.1Z</time></trkpt><trkpt lat="45.3645317" lon="10.1693367"><ele>65.0</ele><time>2026-05-01T10:36:12.101Z</time></trkpt><trkpt lat="45.3647717" lon="10.169455"><ele>66.0</ele><time>2026-05-01T10:36:13.101Z</time></trkpt><trkpt lat="45.3650117" lon="10.169575"><ele>67.0</ele><time>2026-05-01T10:36:14.1Z</time></trkpt><trkpt lat="45.36525" lon="10.1697017"><ele>67.0</ele><time>2026-05-01T10:36:15.1Z</time></trkpt><trkpt lat="45.3654933" lon="10.1698167"><ele>67.0</ele><time>2026-05-01T10:36:16.101Z</time></trkpt><trkpt lat="45.3657317" lon="10.16993"><ele>67.0</ele><time>2026-05-01T10:36:17.101Z</time></trkpt><trkpt lat="45.365965" lon="10.1700467"><ele>67.0</ele><time>2026-05-01T10:36:18.101Z</time></trkpt><trkpt lat="45.3662" lon="10.1701717"><ele>66.0</ele><time>2026-05-01T10:36:19.1Z</time></trkpt><trkpt lat="45.36644" lon="10.170295"><ele>65.0</ele><time>2026-05-01T10:36:20.1Z</time></trkpt><trkpt lat="45.3666833" lon="10.1704183"><ele>65.0</ele><time>2026-05-01T10:36:21.101Z</time></trkpt><trkpt lat="45.3669233" lon="10.1705467"><ele>65.0</ele><time>2026-05-01T10:36:22.1Z</time></trkpt><trkpt lat="45.3671617" lon="10.1706733"><ele>65.5</ele><time>2026-05-01T10:36:23.101Z</time></trkpt><trkpt lat="45.3674017" lon="10.1707933"><ele>66.0</ele><time>2026-05-01T10:36:24.1Z</time></trkpt><trkpt lat="45.3676417" lon="10.1709133"><ele>66.0</ele><time>2026-05-01T10:36:25.1Z</time></trkpt><trkpt lat="45.36788" lon="10.1710383"><ele>66.0</ele><time>2026-05-01T10:36:26.1Z</time></trkpt><trkpt lat="45.3681233" lon="10.17116"><ele>66.0</ele><time>2026-05-01T10:36:27.101Z</time></trkpt><trkpt lat="45.368365" lon="10.1712833"><ele>66.0</ele><time>2026-05-01T10:36:28.1Z</time></trkpt><trkpt lat="45.368605" lon="10.1714117"><ele>65.5</ele><time>2026-05-01T10:36:29.1Z</time></trkpt><trkpt lat="45.3688483" lon="10.1715367"><ele>65.0</ele><time>2026-05-01T10:36:30.101Z</time></trkpt><trkpt lat="45.3690883" lon="10.1716633"><ele>65.0</ele><time>2026-05-01T10:36:31.101Z</time></trkpt><trkpt lat="45.3693267" lon="10.17179"><ele>65.0</ele><time>2026-05-01T10:36:32.1Z</time></trkpt><trkpt lat="45.36957" lon="10.171915"><ele>65.5</ele><time>2026-05-01T10:36:33.1Z</time></trkpt><trkpt lat="45.3698117" lon="10.172035"><ele>66.0</ele><time>2026-05-01T10:36:34.1Z</time></trkpt><trkpt lat="45.370055" lon="10.1721567"><ele>66.0</ele><time>2026-05-01T10:36:35.1Z</time></trkpt><trkpt lat="45.3702967" lon="10.17228"><ele>66.0</ele><time>2026-05-01T10:36:36.101Z</time></trkpt><trkpt lat="45.37054" lon="10.1723983"><ele>67.5</ele><time>2026-05-01T10:36:37.1Z</time></trkpt><trkpt lat="45.3707767" lon="10.1725283"><ele>69.0</ele><time>2026-05-01T10:36:38.1Z</time></trkpt><trkpt lat="45.3710067" lon="10.1726567"><ele>69.0</ele><time>2026-05-01T10:36:39.1Z</time></trkpt><trkpt lat="45.3712467" lon="10.17278"><ele>69.0</ele><time>2026-05-01T10:36:40.1Z</time></trkpt><trkpt lat="45.3714883" lon="10.1728983"><ele>68.0</ele><time>2026-05-01T10:36:41.1Z</time></trkpt><trkpt lat="45.3717267" lon="10.1730217"><ele>67.0</ele><time>2026-05-01T10:36:42.1Z</time></trkpt><trkpt lat="45.3719667" lon="10.173145"><ele>68.0</ele><time>2026-05-01T10:36:43.1Z</time></trkpt><trkpt lat="45.3722117" lon="10.1732683"><ele>69.0</ele><time>2026-05-01T10:36:44.1Z</time></trkpt><trkpt lat="45.3724467" lon="10.1733917"><ele>69.0</ele><time>2026-05-01T10:36:45.1Z</time></trkpt><trkpt lat="45.372695" lon="10.1735183"><ele>69.0</ele><time>2026-05-01T10:36:46.1Z</time></trkpt><trkpt lat="45.372935" lon="10.1736483"><ele>68.5</ele><time>2026-05-01T10:36:47.101Z</time></trkpt><trkpt lat="45.3731667" lon="10.1737733"><ele>68.0</ele><time>2026-05-01T10:36:48.101Z</time></trkpt><trkpt lat="45.3734083" lon="10.1738933"><ele>68.0</ele><time>2026-05-01T10:36:49.101Z</time></trkpt><trkpt lat="45.373645" lon="10.1740167"><ele>68.0</ele><time>2026-05-01T10:36:50.101Z</time></trkpt><trkpt lat="45.3738917" lon="10.1741417"><ele>68.5</ele><time>2026-05-01T10:36:51.101Z</time></trkpt><trkpt lat="45.3741433" lon="10.174265"><ele>69.0</ele><time>2026-05-01T10:36:52.1Z</time></trkpt><trkpt lat="45.37439" lon="10.1743917"><ele>69.0</ele><time>2026-05-01T10:36:53.101Z</time></trkpt><trkpt lat="45.3746333" lon="10.17452"><ele>69.0</ele><time>2026-05-01T10:36:54.101Z</time></trkpt><trkpt lat="45.3748783" lon="10.1746483"><ele>68.0</ele><time>2026-05-01T10:36:55.1Z</time></trkpt><trkpt lat="45.3751233" lon="10.1747717"><ele>67.0</ele><time>2026-05-01T10:36:56.1Z</time></trkpt><trkpt lat="45.3753717" lon="10.174895"><ele>66.5</ele><time>2026-05-01T10:36:57.101Z</time></trkpt><trkpt lat="45.3756133" lon="10.1750233"><ele>66.0</ele><time>2026-05-01T10:36:58.1Z</time></trkpt><trkpt lat="45.3758517" lon="10.1751483"><ele>66.0</ele><time>2026-05-01T10:36:59.101Z</time></trkpt><trkpt lat="45.3760867" lon="10.1752733"><ele>66.0</ele><time>2026-05-01T10:37:00.1Z</time></trkpt><trkpt lat="45.3763217" lon="10.1753917"><ele>68.0</ele><time>2026-05-01T10:37:01.1Z</time></trkpt><trkpt lat="45.376555" lon="10.1755117"><ele>70.0</ele><time>2026-05-01T10:37:02.101Z</time></trkpt><trkpt lat="45.3767817" lon="10.1756383"><ele>69.0</ele><time>2026-05-01T10:37:03.101Z</time></trkpt><trkpt lat="45.37702" lon="10.1757667"><ele>68.0</ele><time>2026-05-01T10:37:04.101Z</time></trkpt><trkpt lat="45.3772633" lon="10.1758867"><ele>67.5</ele><time>2026-05-01T10:37:05.1Z</time></trkpt><trkpt lat="45.3775" lon="10.1760083"><ele>67.0</ele><time>2026-05-01T10:37:06.101Z</time></trkpt><trkpt lat="45.37774" lon="10.1761317"><ele>67.0</ele><time>2026-05-01T10:37:07.1Z</time></trkpt><trkpt lat="45.378225" lon="10.176385"><ele>67.0</ele><time>2026-05-01T10:37:09.1Z</time></trkpt><trkpt lat="45.3784683" lon="10.1765167"><ele>67.0</ele><time>2026-05-01T10:37:10.1Z</time></trkpt><trkpt lat="45.37871" lon="10.1766417"><ele>67.5</ele><time>2026-05-01T10:37:11.101Z</time></trkpt><trkpt lat="45.3789517" lon="10.17677"><ele>68.0</ele><time>2026-05-01T10:37:12.101Z</time></trkpt><trkpt lat="45.379195" lon="10.176895"><ele>68.0</ele><time>2026-05-01T10:37:13.1Z</time></trkpt><trkpt lat="45.3794383" lon="10.1770183"><ele>68.0</ele><time>2026-05-01T10:37:14.101Z</time></trkpt><trkpt lat="45.3796833" lon="10.1771467"><ele>67.5</ele><time>2026-05-01T10:37:15.101Z</time></trkpt><trkpt lat="45.379925" lon="10.1772733"><ele>67.0</ele><time>2026-05-01T10:37:16.101Z</time></trkpt><trkpt lat="45.38017" lon="10.1773967"><ele>67.5</ele><time>2026-05-01T10:37:17.1Z</time></trkpt><trkpt lat="45.3804117" lon="10.1775233"><ele>68.0</ele><time>2026-05-01T10:37:18.101Z</time></trkpt><trkpt lat="45.3806517" lon="10.177645"><ele>68.0</ele><time>2026-05-01T10:37:19.101Z</time></trkpt><trkpt lat="45.3808883" lon="10.1777617"><ele>68.0</ele><time>2026-05-01T10:37:20.1Z</time></trkpt><trkpt lat="45.38112" lon="10.1778817"><ele>69.0</ele><time>2026-05-01T10:37:21.101Z</time></trkpt><trkpt lat="45.3813533" lon="10.1780017"><ele>70.0</ele><time>2026-05-01T10:37:22.1Z</time></trkpt><trkpt lat="45.3815867" lon="10.1781267"><ele>69.0</ele><time>2026-05-01T10:37:23.1Z</time></trkpt><trkpt lat="45.381815" lon="10.1782517"><ele>68.0</ele><time>2026-05-01T10:37:24.1Z</time></trkpt><trkpt lat="45.38205" lon="10.178375"><ele>68.0</ele><time>2026-05-01T10:37:25.101Z</time></trkpt><trkpt lat="45.382275" lon="10.17849"><ele>68.0</ele><time>2026-05-01T10:37:26.1Z</time></trkpt><trkpt lat="45.3825067" lon="10.178615"><ele>68.0</ele><time>2026-05-01T10:37:27.1Z</time></trkpt><trkpt lat="45.3827383" lon="10.1787283"><ele>68.0</ele><time>2026-05-01T10:37:28.1Z</time></trkpt><trkpt lat="45.38297" lon="10.178845"><ele>68.0</ele><time>2026-05-01T10:37:29.1Z</time></trkpt><trkpt lat="45.3831967" lon="10.1789617"><ele>68.0</ele><time>2026-05-01T10:37:30.1Z</time></trkpt><trkpt lat="45.383425" lon="10.1790767"><ele>68.0</ele><time>2026-05-01T10:37:31.1Z</time></trkpt><trkpt lat="45.3836567" lon="10.1791917"><ele>68.0</ele><time>2026-05-01T10:37:32.1Z</time></trkpt><trkpt lat="45.3838867" lon="10.179305"><ele>68.0</ele><time>2026-05-01T10:37:33.1Z</time></trkpt><trkpt lat="45.38411" lon="10.17943"><ele>68.0</ele><time>2026-05-01T10:37:34.101Z</time></trkpt><trkpt lat="45.3843417" lon="10.1795517"><ele>68.0</ele><time>2026-05-01T10:37:35.101Z</time></trkpt><trkpt lat="45.384575" lon="10.1796767"><ele>68.0</ele><time>2026-05-01T10:37:36.101Z</time></trkpt><trkpt lat="45.3848083" lon="10.179795"><ele>68.5</ele><time>2026-05-01T10:37:37.101Z</time></trkpt><trkpt lat="45.3850383" lon="10.1799167"><ele>69.0</ele><time>2026-05-01T10:37:38.101Z</time></trkpt><trkpt lat="45.38527" lon="10.1800383"><ele>69.0</ele><time>2026-05-01T10:37:39.1Z</time></trkpt><trkpt lat="45.385505" lon="10.18016"><ele>69.0</ele><time>2026-05-01T10:37:40.1Z</time></trkpt><trkpt lat="45.3857367" lon="10.1802783"><ele>69.5</ele><time>2026-05-01T10:37:41.1Z</time></trkpt><trkpt lat="45.3859667" lon="10.1803967"><ele>70.0</ele><time>2026-05-01T10:37:42.101Z</time></trkpt><trkpt lat="45.3862017" lon="10.180515"><ele>69.0</ele><time>2026-05-01T10:37:43.1Z</time></trkpt><trkpt lat="45.3866683" lon="10.180765"><ele>69.0</ele><time>2026-05-01T10:37:45.101Z</time></trkpt><trkpt lat="45.386905" lon="10.180885"><ele>69.0</ele><time>2026-05-01T10:37:46.1Z</time></trkpt><trkpt lat="45.3871483" lon="10.1810067"><ele>70.0</ele><time>2026-05-01T10:37:47.1Z</time></trkpt><trkpt lat="45.3873917" lon="10.181135"><ele>71.0</ele><time>2026-05-01T10:37:48.1Z</time></trkpt><trkpt lat="45.3876417" lon="10.1812617"><ele>71.0</ele><time>2026-05-01T10:37:49.101Z</time></trkpt><trkpt lat="45.3878983" lon="10.1813883"><ele>71.0</ele><time>2026-05-01T10:37:50.1Z</time></trkpt><trkpt lat="45.3881517" lon="10.1815267"><ele>70.5</ele><time>2026-05-01T10:37:51.1Z</time></trkpt><trkpt lat="45.3884117" lon="10.18166"><ele>70.0</ele><time>2026-05-01T10:37:52.1Z</time></trkpt><trkpt lat="45.3886667" lon="10.1817917"><ele>70.5</ele><time>2026-05-01T10:37:53.1Z</time></trkpt><trkpt lat="45.3889267" lon="10.1819283"><ele>71.0</ele><time>2026-05-01T10:37:54.101Z</time></trkpt><trkpt lat="45.3891867" lon="10.1820617"><ele>71.0</ele><time>2026-05-01T10:37:55.1Z</time></trkpt><trkpt lat="45.38944" lon="10.182195"><ele>71.0</ele><time>2026-05-01T10:37:56.1Z</time></trkpt><trkpt lat="45.38969" lon="10.18233"><ele>72.0</ele><time>2026-05-01T10:37:57.1Z</time></trkpt><trkpt lat="45.3899383" lon="10.1824633"><ele>73.0</ele><time>2026-05-01T10:37:58.1Z</time></trkpt><trkpt lat="45.3901917" lon="10.18259"><ele>73.0</ele><time>2026-05-01T10:37:59.1Z</time></trkpt><trkpt lat="45.39044" lon="10.18273"><ele>73.0</ele><time>2026-05-01T10:38:00.1Z</time></trkpt><trkpt lat="45.3906917" lon="10.1828583"><ele>72.5</ele><time>2026-05-01T10:38:01.1Z</time></trkpt><trkpt lat="45.3909383" lon="10.1829833"><ele>72.0</ele><time>2026-05-01T10:38:02.1Z</time></trkpt><trkpt lat="45.3911917" lon="10.18311"><ele>72.0</ele><time>2026-05-01T10:38:03.1Z</time></trkpt><trkpt lat="45.391435" lon="10.1832433"><ele>72.0</ele><time>2026-05-01T10:38:04.1Z</time></trkpt><trkpt lat="45.3916883" lon="10.1833717"><ele>72.0</ele><time>2026-05-01T10:38:05.101Z</time></trkpt><trkpt lat="45.3919383" lon="10.18349"><ele>72.0</ele><time>2026-05-01T10:38:06.1Z</time></trkpt><trkpt lat="45.3921783" lon="10.1836133"><ele>72.0</ele><time>2026-05-01T10:38:07.101Z</time></trkpt><trkpt lat="45.39242" lon="10.1837367"><ele>72.0</ele><time>2026-05-01T10:38:08.101Z</time></trkpt><trkpt lat="45.392665" lon="10.183855"><ele>70.0</ele><time>2026-05-01T10:38:09.1Z</time></trkpt><trkpt lat="45.393145" lon="10.184095"><ele>70.0</ele><time>2026-05-01T10:38:11.1Z</time></trkpt><trkpt lat="45.3933817" lon="10.1842117"><ele>70.0</ele><time>2026-05-01T10:38:12.1Z</time></trkpt><trkpt lat="45.3936167" lon="10.1843317"><ele>70.5</ele><time>2026-05-01T10:38:13.1Z</time></trkpt><trkpt lat="45.3938533" lon="10.1844467"><ele>71.0</ele><time>2026-05-01T10:38:14.101Z</time></trkpt><trkpt lat="45.394085" lon="10.184555"><ele>71.0</ele><time>2026-05-01T10:38:15.101Z</time></trkpt><trkpt lat="45.39432" lon="10.1846733"><ele>71.0</ele><time>2026-05-01T10:38:16.101Z</time></trkpt><trkpt lat="45.3945483" lon="10.1847867"><ele>70.5</ele><time>2026-05-01T10:38:17.101Z</time></trkpt><trkpt lat="45.39478" lon="10.1849033"><ele>70.0</ele><time>2026-05-01T10:38:18.101Z</time></trkpt><trkpt lat="45.3952417" lon="10.1851417"><ele>70.0</ele><time>2026-05-01T10:38:20.1Z</time></trkpt><trkpt lat="45.395475" lon="10.1852567"><ele>70.0</ele><time>2026-05-01T10:38:21.1Z</time></trkpt><trkpt lat="45.3957117" lon="10.1853733"><ele>70.0</ele><time>2026-05-01T10:38:22.1Z</time></trkpt><trkpt lat="45.3959483" lon="10.185495"><ele>70.0</ele><time>2026-05-01T10:38:23.101Z</time></trkpt><trkpt lat="45.3961883" lon="10.1856217"><ele>70.5</ele><time>2026-05-01T10:38:24.1Z</time></trkpt><trkpt lat="45.39643" lon="10.1857417"><ele>71.0</ele><time>2026-05-01T10:38:25.1Z</time></trkpt><trkpt lat="45.3966733" lon="10.1858717"><ele>71.0</ele><time>2026-05-01T10:38:26.101Z</time></trkpt><trkpt lat="45.3969183" lon="10.185995"><ele>71.0</ele><time>2026-05-01T10:38:27.101Z</time></trkpt><trkpt lat="45.397165" lon="10.186115"><ele>70.0</ele><time>2026-05-01T10:38:28.101Z</time></trkpt><trkpt lat="45.3974133" lon="10.1862367"><ele>69.0</ele><time>2026-05-01T10:38:29.101Z</time></trkpt><trkpt lat="45.39766" lon="10.1863533"><ele>69.0</ele><time>2026-05-01T10:38:30.1Z</time></trkpt><trkpt lat="45.3979033" lon="10.1864733"><ele>69.0</ele><time>2026-05-01T10:38:31.101Z</time></trkpt><trkpt lat="45.39815" lon="10.1865967"><ele>69.5</ele><time>2026-05-01T10:38:32.101Z</time></trkpt><trkpt lat="45.3983983" lon="10.18672"><ele>70.0</ele><time>2026-05-01T10:38:33.1Z</time></trkpt><trkpt lat="45.398645" lon="10.1868433"><ele>70.5</ele><time>2026-05-01T10:38:34.1Z</time></trkpt><trkpt lat="45.3988967" lon="10.1869767"><ele>71.0</ele><time>2026-05-01T10:38:35.101Z</time></trkpt><trkpt lat="45.39915" lon="10.1871033"><ele>71.0</ele><time>2026-05-01T10:38:36.1Z</time></trkpt><trkpt lat="45.399405" lon="10.187225"><ele>71.0</ele><time>2026-05-01T10:38:37.1Z</time></trkpt><trkpt lat="45.3996617" lon="10.1873483"><ele>71.5</ele><time>2026-05-01T10:38:38.101Z</time></trkpt><trkpt lat="45.3999183" lon="10.18747"><ele>72.0</ele><time>2026-05-01T10:38:39.1Z</time></trkpt><trkpt lat="45.4001667" lon="10.1875983"><ele>72.0</ele><time>2026-05-01T10:38:40.1Z</time></trkpt><trkpt lat="45.4004117" lon="10.1877233"><ele>72.0</ele><time>2026-05-01T10:38:41.1Z</time></trkpt><trkpt lat="45.4006583" lon="10.187845"><ele>71.0</ele><time>2026-05-01T10:38:42.1Z</time></trkpt><trkpt lat="45.4008983" lon="10.1879717"><ele>70.0</ele><time>2026-05-01T10:38:43.101Z</time></trkpt><trkpt lat="45.4011383" lon="10.188085"><ele>70.5</ele><time>2026-05-01T10:38:44.101Z</time></trkpt><trkpt lat="45.4013767" lon="10.188215"><ele>71.0</ele><time>2026-05-01T10:38:45.101Z</time></trkpt><trkpt lat="45.4016183" lon="10.1883283"><ele>71.0</ele><time>2026-05-01T10:38:46.1Z</time></trkpt><trkpt lat="45.4021067" lon="10.18858"><ele>71.5</ele><time>2026-05-01T10:38:48.1Z</time></trkpt><trkpt lat="45.4023533" lon="10.1887067"><ele>72.0</ele><time>2026-05-01T10:38:49.1Z</time></trkpt><trkpt lat="45.4026017" lon="10.1888333"><ele>72.0</ele><time>2026-05-01T10:38:50.101Z</time></trkpt><trkpt lat="45.4028467" lon="10.1889567"><ele>72.0</ele><time>2026-05-01T10:38:51.101Z</time></trkpt><trkpt lat="45.4030917" lon="10.1890783"><ele>72.5</ele><time>2026-05-01T10:38:52.101Z</time></trkpt><trkpt lat="45.403335" lon="10.1892"><ele>73.0</ele><time>2026-05-01T10:38:53.101Z</time></trkpt><trkpt lat="45.4035733" lon="10.1893167"><ele>73.0</ele><time>2026-05-01T10:38:54.1Z</time></trkpt><trkpt lat="45.4038133" lon="10.1894367"><ele>73.0</ele><time>2026-05-01T10:38:55.101Z</time></trkpt><trkpt lat="45.4040483" lon="10.1895533"><ele>73.5</ele><time>2026-05-01T10:38:56.101Z</time></trkpt><trkpt lat="45.4042817" lon="10.1896667"><ele>74.0</ele><time>2026-05-01T10:38:57.1Z</time></trkpt><trkpt lat="45.4045117" lon="10.1897883"><ele>74.0</ele><time>2026-05-01T10:38:58.1Z</time></trkpt><trkpt lat="45.4047467" lon="10.1899067"><ele>74.0</ele><time>2026-05-01T10:38:59.1Z</time></trkpt><trkpt lat="45.4049817" lon="10.1900267"><ele>74.0</ele><time>2026-05-01T10:39:00.1Z</time></trkpt><trkpt lat="45.4052233" lon="10.1901483"><ele>74.0</ele><time>2026-05-01T10:39:01.101Z</time></trkpt><trkpt lat="45.4054717" lon="10.190275"><ele>75.5</ele><time>2026-05-01T10:39:02.1Z</time></trkpt><trkpt lat="45.40572" lon="10.1904017"><ele>77.0</ele><time>2026-05-01T10:39:03.101Z</time></trkpt><trkpt lat="45.4059667" lon="10.19053"><ele>77.0</ele><time>2026-05-01T10:39:04.1Z</time></trkpt><trkpt lat="45.4062267" lon="10.1906567"><ele>77.0</ele><time>2026-05-01T10:39:05.101Z</time></trkpt><trkpt lat="45.4064767" lon="10.1907783"><ele>75.5</ele><time>2026-05-01T10:39:06.1Z</time></trkpt><trkpt lat="45.4067167" lon="10.1909033"><ele>74.0</ele><time>2026-05-01T10:39:07.101Z</time></trkpt><trkpt lat="45.40696" lon="10.1910283"><ele>74.0</ele><time>2026-05-01T10:39:08.101Z</time></trkpt><trkpt lat="45.4072017" lon="10.1911483"><ele>74.0</ele><time>2026-05-01T10:39:09.1Z</time></trkpt><trkpt lat="45.4074383" lon="10.1912633"><ele>74.0</ele><time>2026-05-01T10:39:10.1Z</time></trkpt><trkpt lat="45.4076667" lon="10.1913717"><ele>74.0</ele><time>2026-05-01T10:39:11.101Z</time></trkpt><trkpt lat="45.407895" lon="10.19149"><ele>74.5</ele><time>2026-05-01T10:39:12.101Z</time></trkpt><trkpt lat="45.4081167" lon="10.191605"><ele>75.0</ele><time>2026-05-01T10:39:13.101Z</time></trkpt><trkpt lat="45.408335" lon="10.1917167"><ele>75.0</ele><time>2026-05-01T10:39:14.101Z</time></trkpt><trkpt lat="45.4085567" lon="10.1918267"><ele>75.0</ele><time>2026-05-01T10:39:15.1Z</time></trkpt><trkpt lat="45.4087833" lon="10.1919333"><ele>75.0</ele><time>2026-05-01T10:39:16.101Z</time></trkpt><trkpt lat="45.4090083" lon="10.192045"><ele>75.0</ele><time>2026-05-01T10:39:17.101Z</time></trkpt><trkpt lat="45.4092383" lon="10.1921583"><ele>75.0</ele><time>2026-05-01T10:39:18.1Z</time></trkpt><trkpt lat="45.4094683" lon="10.1922733"><ele>75.0</ele><time>2026-05-01T10:39:19.1Z</time></trkpt><trkpt lat="45.4096983" lon="10.1923917"><ele>75.5</ele><time>2026-05-01T10:39:20.101Z</time></trkpt><trkpt lat="45.4099317" lon="10.1925017"><ele>76.0</ele><time>2026-05-01T10:39:21.1Z</time></trkpt><trkpt lat="45.4101617" lon="10.192625"><ele>76.0</ele><time>2026-05-01T10:39:22.101Z</time></trkpt><trkpt lat="45.410395" lon="10.1927433"><ele>76.0</ele><time>2026-05-01T10:39:23.101Z</time></trkpt><trkpt lat="45.4106333" lon="10.1928567"><ele>77.0</ele><time>2026-05-01T10:39:24.101Z</time></trkpt><trkpt lat="45.4108717" lon="10.1929767"><ele>78.0</ele><time>2026-05-01T10:39:25.101Z</time></trkpt><trkpt lat="45.4111133" lon="10.1931"><ele>78.5</ele><time>2026-05-01T10:39:26.101Z</time></trkpt><trkpt lat="45.4113583" lon="10.1932283"><ele>79.0</ele><time>2026-05-01T10:39:27.1Z</time></trkpt><trkpt lat="45.4118483" lon="10.1934767"><ele>79.0</ele><time>2026-05-01T10:39:29.1Z</time></trkpt><trkpt lat="45.4120967" lon="10.193605"><ele>79.0</ele><time>2026-05-01T10:39:30.1Z</time></trkpt><trkpt lat="45.412345" lon="10.19373"><ele>77.0</ele><time>2026-05-01T10:39:31.1Z</time></trkpt><trkpt lat="45.412845" lon="10.1939667"><ele>77.5</ele><time>2026-05-01T10:39:33.101Z</time></trkpt><trkpt lat="45.4130917" lon="10.1940917"><ele>78.0</ele><time>2026-05-01T10:39:34.1Z</time></trkpt><trkpt lat="45.4133283" lon="10.19422"><ele>78.0</ele><time>2026-05-01T10:39:35.101Z</time></trkpt><trkpt lat="45.4135733" lon="10.194335"><ele>78.0</ele><time>2026-05-01T10:39:36.101Z</time></trkpt><trkpt lat="45.4138133" lon="10.1944483"><ele>78.5</ele><time>2026-05-01T10:39:37.1Z</time></trkpt><trkpt lat="45.4140483" lon="10.19457"><ele>79.0</ele><time>2026-05-01T10:39:38.1Z</time></trkpt><trkpt lat="45.41428" lon="10.1946933"><ele>79.0</ele><time>2026-05-01T10:39:39.101Z</time></trkpt><trkpt lat="45.41452" lon="10.1948133"><ele>79.0</ele><time>2026-05-01T10:39:40.1Z</time></trkpt><trkpt lat="45.4147583" lon="10.194935"><ele>78.5</ele><time>2026-05-01T10:39:41.1Z</time></trkpt><trkpt lat="45.4150033" lon="10.195055"><ele>78.0</ele><time>2026-05-01T10:39:42.1Z</time></trkpt><trkpt lat="45.41525" lon="10.1951817"><ele>79.5</ele><time>2026-05-01T10:39:43.1Z</time></trkpt><trkpt lat="45.4154983" lon="10.1953067"><ele>81.0</ele><time>2026-05-01T10:39:44.1Z</time></trkpt><trkpt lat="45.4157467" lon="10.1954317"><ele>81.0</ele><time>2026-05-01T10:39:45.1Z</time></trkpt><trkpt lat="45.4160033" lon="10.1955633"><ele>81.0</ele><time>2026-05-01T10:39:46.101Z</time></trkpt><trkpt lat="45.41626" lon="10.1956917"><ele>81.0</ele><time>2026-05-01T10:39:47.1Z</time></trkpt><trkpt lat="45.4165167" lon="10.1958167"><ele>81.0</ele><time>2026-05-01T10:39:48.101Z</time></trkpt><trkpt lat="45.416775" lon="10.19594"><ele>81.0</ele><time>2026-05-01T10:39:49.101Z</time></trkpt><trkpt lat="45.4170367" lon="10.19606"><ele>81.0</ele><time>2026-05-01T10:39:50.1Z</time></trkpt><trkpt lat="45.4172967" lon="10.196195"><ele>80.5</ele><time>2026-05-01T10:39:51.101Z</time></trkpt><trkpt lat="45.417555" lon="10.19633"><ele>80.0</ele><time>2026-05-01T10:39:52.1Z</time></trkpt><trkpt lat="45.4178017" lon="10.1964567"><ele>80.5</ele><time>2026-05-01T10:39:53.1Z</time></trkpt><trkpt lat="45.4180383" lon="10.196575"><ele>81.0</ele><time>2026-05-01T10:39:54.1Z</time></trkpt><trkpt lat="45.4182633" lon="10.19669"><ele>81.0</ele><time>2026-05-01T10:39:55.1Z</time></trkpt><trkpt lat="45.41849" lon="10.1968033"><ele>81.0</ele><time>2026-05-01T10:39:56.1Z</time></trkpt><trkpt lat="45.41871" lon="10.1969117"><ele>81.5</ele><time>2026-05-01T10:39:57.1Z</time></trkpt><trkpt lat="45.4189317" lon="10.1970267"><ele>82.0</ele><time>2026-05-01T10:39:58.1Z</time></trkpt><trkpt lat="45.419375" lon="10.1972533"><ele>81.5</ele><time>2026-05-01T10:40:00.1Z</time></trkpt><trkpt lat="45.4195983" lon="10.197365"><ele>81.0</ele><time>2026-05-01T10:40:01.101Z</time></trkpt><trkpt lat="45.419825" lon="10.1974817"><ele>82.0</ele><time>2026-05-01T10:40:02.1Z</time></trkpt><trkpt lat="45.420055" lon="10.1976"><ele>83.0</ele><time>2026-05-01T10:40:03.101Z</time></trkpt><trkpt lat="45.4202883" lon="10.1977183"><ele>83.0</ele><time>2026-05-01T10:40:04.1Z</time></trkpt><trkpt lat="45.4205267" lon="10.1978317"><ele>83.0</ele><time>2026-05-01T10:40:05.101Z</time></trkpt><trkpt lat="45.4207667" lon="10.1979433"><ele>83.0</ele><time>2026-05-01T10:40:06.101Z</time></trkpt><trkpt lat="45.4210067" lon="10.19806"><ele>83.0</ele><time>2026-05-01T10:40:07.1Z</time></trkpt><trkpt lat="45.421245" lon="10.1981733"><ele>82.0</ele><time>2026-05-01T10:40:08.101Z</time></trkpt><trkpt lat="45.4214833" lon="10.1982967"><ele>81.0</ele><time>2026-05-01T10:40:09.1Z</time></trkpt><trkpt lat="45.4217233" lon="10.1984217"><ele>81.0</ele><time>2026-05-01T10:40:10.1Z</time></trkpt><trkpt lat="45.4219683" lon="10.198545"><ele>81.0</ele><time>2026-05-01T10:40:11.101Z</time></trkpt><trkpt lat="45.422205" lon="10.1986667"><ele>83.0</ele><time>2026-05-01T10:40:12.1Z</time></trkpt><trkpt lat="45.4224467" lon="10.19879"><ele>85.0</ele><time>2026-05-01T10:40:13.1Z</time></trkpt><trkpt lat="45.4226883" lon="10.1989067"><ele>84.0</ele><time>2026-05-01T10:40:14.101Z</time></trkpt><trkpt lat="45.42293" lon="10.1990283"><ele>83.0</ele><time>2026-05-01T10:40:15.1Z</time></trkpt><trkpt lat="45.4231733" lon="10.1991467"><ele>83.0</ele><time>2026-05-01T10:40:16.1Z</time></trkpt><trkpt lat="45.4234167" lon="10.1992683"><ele>83.0</ele><time>2026-05-01T10:40:17.101Z</time></trkpt><trkpt lat="45.42366" lon="10.1993967"><ele>83.0</ele><time>2026-05-01T10:40:18.101Z</time></trkpt><trkpt lat="45.423905" lon="10.1995217"><ele>83.0</ele><time>2026-05-01T10:40:19.1Z</time></trkpt><trkpt lat="45.4241433" lon="10.1996467"><ele>83.0</ele><time>2026-05-01T10:40:20.101Z</time></trkpt><trkpt lat="45.424385" lon="10.19977"><ele>83.0</ele><time>2026-05-01T10:40:21.1Z</time></trkpt><trkpt lat="45.42463" lon="10.1998933"><ele>84.5</ele><time>2026-05-01T10:40:22.101Z</time></trkpt><trkpt lat="45.4248717" lon="10.200015"><ele>86.0</ele><time>2026-05-01T10:40:23.1Z</time></trkpt><trkpt lat="45.4251183" lon="10.2001333"><ele>86.0</ele><time>2026-05-01T10:40:24.1Z</time></trkpt><trkpt lat="45.4253633" lon="10.2002517"><ele>86.0</ele><time>2026-05-01T10:40:25.1Z</time></trkpt><trkpt lat="45.42561" lon="10.20037"><ele>85.5</ele><time>2026-05-01T10:40:26.1Z</time></trkpt><trkpt lat="45.4258517" lon="10.2004933"><ele>85.0</ele><time>2026-05-01T10:40:27.1Z</time></trkpt><trkpt lat="45.4260967" lon="10.2006167"><ele>85.0</ele><time>2026-05-01T10:40:28.101Z</time></trkpt><trkpt lat="45.4263383" lon="10.20074"><ele>85.0</ele><time>2026-05-01T10:40:29.101Z</time></trkpt><trkpt lat="45.4265817" lon="10.200865"><ele>85.0</ele><time>2026-05-01T10:40:30.1Z</time></trkpt><trkpt lat="45.426825" lon="10.200985"><ele>85.0</ele><time>2026-05-01T10:40:31.1Z</time></trkpt><trkpt lat="45.4270683" lon="10.2011083"><ele>86.0</ele><time>2026-05-01T10:40:32.1Z</time></trkpt><trkpt lat="45.42731" lon="10.2012333"><ele>87.0</ele><time>2026-05-01T10:40:33.101Z</time></trkpt><trkpt lat="45.4275467" lon="10.20135"><ele>87.0</ele><time>2026-05-01T10:40:34.1Z</time></trkpt><trkpt lat="45.4278" lon="10.201475"><ele>87.0</ele><time>2026-05-01T10:40:35.1Z</time></trkpt><trkpt lat="45.428045" lon="10.2015983"><ele>86.0</ele><time>2026-05-01T10:40:36.101Z</time></trkpt><trkpt lat="45.4282867" lon="10.2017167"><ele>85.0</ele><time>2026-05-01T10:40:37.101Z</time></trkpt><trkpt lat="45.4285267" lon="10.20184"><ele>85.0</ele><time>2026-05-01T10:40:38.1Z</time></trkpt><trkpt lat="45.4287667" lon="10.2019567"><ele>85.0</ele><time>2026-05-01T10:40:39.1Z</time></trkpt><trkpt lat="45.4290067" lon="10.2020783"><ele>86.0</ele><time>2026-05-01T10:40:40.101Z</time></trkpt><trkpt lat="45.4292417" lon="10.2021983"><ele>87.0</ele><time>2026-05-01T10:40:41.101Z</time></trkpt><trkpt lat="45.4294783" lon="10.20232"><ele>86.5</ele><time>2026-05-01T10:40:42.101Z</time></trkpt><trkpt lat="45.4297133" lon="10.2024433"><ele>86.0</ele><time>2026-05-01T10:40:43.101Z</time></trkpt><trkpt lat="45.4299533" lon="10.20256"><ele>86.0</ele><time>2026-05-01T10:40:44.101Z</time></trkpt><trkpt lat="45.4301917" lon="10.202675"><ele>86.0</ele><time>2026-05-01T10:40:45.1Z</time></trkpt><trkpt lat="45.4304317" lon="10.2027883"><ele>86.0</ele><time>2026-05-01T10:40:46.1Z</time></trkpt><trkpt lat="45.4306683" lon="10.202905"><ele>86.0</ele><time>2026-05-01T10:40:47.101Z</time></trkpt><trkpt lat="45.4309017" lon="10.2030267"><ele>86.0</ele><time>2026-05-01T10:40:48.1Z</time></trkpt><trkpt lat="45.4311383" lon="10.2031467"><ele>86.0</ele><time>2026-05-01T10:40:49.101Z</time></trkpt><trkpt lat="45.4313717" lon="10.203265"><ele>86.5</ele><time>2026-05-01T10:40:50.1Z</time></trkpt><trkpt lat="45.431605" lon="10.2033833"><ele>87.0</ele><time>2026-05-01T10:40:51.1Z</time></trkpt><trkpt lat="45.431835" lon="10.2035033"><ele>87.0</ele><time>2026-05-01T10:40:52.1Z</time></trkpt><trkpt lat="45.4320667" lon="10.2036233"><ele>87.0</ele><time>2026-05-01T10:40:53.1Z</time></trkpt><trkpt lat="45.4323033" lon="10.2037417"><ele>90.0</ele><time>2026-05-01T10:40:54.101Z</time></trkpt><trkpt lat="45.43277" lon="10.2039717"><ele>90.0</ele><time>2026-05-01T10:40:56.101Z</time></trkpt><trkpt lat="45.4330033" lon="10.20409"><ele>90.0</ele><time>2026-05-01T10:40:57.1Z</time></trkpt><trkpt lat="45.4332383" lon="10.2042183"><ele>90.0</ele><time>2026-05-01T10:40:58.1Z</time></trkpt><trkpt lat="45.4337167" lon="10.2044433"><ele>89.5</ele><time>2026-05-01T10:41:00.101Z</time></trkpt><trkpt lat="45.43396" lon="10.2045567"><ele>89.0</ele><time>2026-05-01T10:41:01.1Z</time></trkpt><trkpt lat="45.4342083" lon="10.2046683"><ele>89.0</ele><time>2026-05-01T10:41:02.1Z</time></trkpt><trkpt lat="45.4344567" lon="10.2047817"><ele>89.0</ele><time>2026-05-01T10:41:03.1Z</time></trkpt><trkpt lat="45.4347017" lon="10.2048933"><ele>89.5</ele><time>2026-05-01T10:41:04.101Z</time></trkpt><trkpt lat="45.4349483" lon="10.205005"><ele>90.0</ele><time>2026-05-01T10:41:05.1Z</time></trkpt><trkpt lat="45.4351833" lon="10.2051267"><ele>90.0</ele><time>2026-05-01T10:41:06.1Z</time></trkpt><trkpt lat="45.4354217" lon="10.2052417"><ele>90.0</ele><time>2026-05-01T10:41:07.101Z</time></trkpt><trkpt lat="45.4356683" lon="10.2053483"><ele>90.0</ele><time>2026-05-01T10:41:08.1Z</time></trkpt><trkpt lat="45.43591" lon="10.20547"><ele>90.0</ele><time>2026-05-01T10:41:09.101Z</time></trkpt><trkpt lat="45.4361533" lon="10.2055733"><ele>90.5</ele><time>2026-05-01T10:41:10.1Z</time></trkpt><trkpt lat="45.4363883" lon="10.2056917"><ele>91.0</ele><time>2026-05-01T10:41:11.1Z</time></trkpt><trkpt lat="45.4366267" lon="10.205795"><ele>91.0</ele><time>2026-05-01T10:41:12.101Z</time></trkpt><trkpt lat="45.4368633" lon="10.205905"><ele>91.0</ele><time>2026-05-01T10:41:13.1Z</time></trkpt><trkpt lat="45.4370967" lon="10.20602"><ele>90.5</ele><time>2026-05-01T10:41:14.101Z</time></trkpt><trkpt lat="45.4373317" lon="10.2061233"><ele>90.0</ele><time>2026-05-01T10:41:15.101Z</time></trkpt><trkpt lat="45.4375633" lon="10.20623"><ele>90.0</ele><time>2026-05-01T10:41:16.1Z</time></trkpt><trkpt lat="45.4377983" lon="10.20634"><ele>90.0</ele><time>2026-05-01T10:41:17.1Z</time></trkpt><trkpt lat="45.4380283" lon="10.2064517"><ele>90.5</ele><time>2026-05-01T10:41:18.1Z</time></trkpt><trkpt lat="45.4382567" lon="10.2065633"><ele>91.0</ele><time>2026-05-01T10:41:19.1Z</time></trkpt><trkpt lat="45.43849" lon="10.2066733"><ele>91.0</ele><time>2026-05-01T10:41:20.101Z</time></trkpt><trkpt lat="45.4387317" lon="10.2067867"><ele>91.0</ele><time>2026-05-01T10:41:21.101Z</time></trkpt><trkpt lat="45.4392167" lon="10.2070217"><ele>92.5</ele><time>2026-05-01T10:41:23.1Z</time></trkpt><trkpt lat="45.4394633" lon="10.2071383"><ele>94.0</ele><time>2026-05-01T10:41:24.101Z</time></trkpt><trkpt lat="45.43969" lon="10.207245"><ele>93.5</ele><time>2026-05-01T10:41:25.1Z</time></trkpt><trkpt lat="45.439925" lon="10.20736"><ele>93.0</ele><time>2026-05-01T10:41:26.1Z</time></trkpt><trkpt lat="45.440165" lon="10.2074767"><ele>93.0</ele><time>2026-05-01T10:41:27.101Z</time></trkpt><trkpt lat="45.440405" lon="10.2075917"><ele>93.0</ele><time>2026-05-01T10:41:28.1Z</time></trkpt><trkpt lat="45.4406467" lon="10.2077033"><ele>92.0</ele><time>2026-05-01T10:41:29.101Z</time></trkpt><trkpt lat="45.4408833" lon="10.2078017"><ele>91.0</ele><time>2026-05-01T10:41:30.1Z</time></trkpt><trkpt lat="45.4411083" lon="10.207915"><ele>91.5</ele><time>2026-05-01T10:41:31.1Z</time></trkpt><trkpt lat="45.441345" lon="10.20802"><ele>92.0</ele><time>2026-05-01T10:41:32.1Z</time></trkpt><trkpt lat="45.441575" lon="10.2081283"><ele>93.0</ele><time>2026-05-01T10:41:33.1Z</time></trkpt><trkpt lat="45.4418017" lon="10.2082483"><ele>94.0</ele><time>2026-05-01T10:41:34.101Z</time></trkpt><trkpt lat="45.4420267" lon="10.2083617"><ele>93.5</ele><time>2026-05-01T10:41:35.1Z</time></trkpt><trkpt lat="45.4422583" lon="10.2084617"><ele>93.0</ele><time>2026-05-01T10:41:36.101Z</time></trkpt><trkpt lat="45.4424683" lon="10.20857"><ele>93.0</ele><time>2026-05-01T10:41:37.1Z</time></trkpt><trkpt lat="45.4426733" lon="10.2086683"><ele>93.0</ele><time>2026-05-01T10:41:38.101Z</time></trkpt><trkpt lat="45.4428783" lon="10.2087567"><ele>93.0</ele><time>2026-05-01T10:41:39.101Z</time></trkpt><trkpt lat="45.4432683" lon="10.2089533"><ele>93.0</ele><time>2026-05-01T10:41:41.101Z</time></trkpt><trkpt lat="45.4434533" lon="10.2090433"><ele>93.0</ele><time>2026-05-01T10:41:42.101Z</time></trkpt><trkpt lat="45.443635" lon="10.2091283"><ele>93.0</ele><time>2026-05-01T10:41:43.101Z</time></trkpt><trkpt lat="45.4438117" lon="10.2092117"><ele>93.33333333333333</ele><time>2026-05-01T10:41:44.101Z</time></trkpt><trkpt lat="45.44398" lon="10.2092917"><ele>93.66666666666666</ele><time>2026-05-01T10:41:45.1Z</time></trkpt><trkpt lat="45.4441433" lon="10.2093717"><ele>94.0</ele><time>2026-05-01T10:41:46.1Z</time></trkpt><trkpt lat="45.444455" lon="10.2095183"><ele>94.0</ele><time>2026-05-01T10:41:48.1Z</time></trkpt><trkpt lat="45.4445983" lon="10.2095917"><ele>94.0</ele><time>2026-05-01T10:41:49.1Z</time></trkpt><trkpt lat="45.4447433" lon="10.2096633"><ele>94.0</ele><time>2026-05-01T10:41:50.101Z</time></trkpt><trkpt lat="45.44488" lon="10.20973"><ele>93.75</ele><time>2026-05-01T10:41:51.1Z</time></trkpt><trkpt lat="45.4450117" lon="10.2097983"><ele>93.5</ele><time>2026-05-01T10:41:52.101Z</time></trkpt><trkpt lat="45.4451467" lon="10.209855"><ele>93.25</ele><time>2026-05-01T10:41:53.1Z</time></trkpt><trkpt lat="45.4452667" lon="10.209935"><ele>93.0</ele><time>2026-05-01T10:41:54.1Z</time></trkpt><trkpt lat="45.4453783" lon="10.210035"><ele>93.4</ele><time>2026-05-01T10:41:55.101Z</time></trkpt><trkpt lat="45.44549" lon="10.2101317"><ele>93.80000000000001</ele><time>2026-05-01T10:41:56.101Z</time></trkpt><trkpt lat="45.4455867" lon="10.21022"><ele>94.2</ele><time>2026-05-01T10:41:57.101Z</time></trkpt><trkpt lat="45.4456767" lon="10.2102867"><ele>94.6</ele><time>2026-05-01T10:41:58.101Z</time></trkpt><trkpt lat="45.4457667" lon="10.2103333"><ele>95.0</ele><time>2026-05-01T10:41:59.1Z</time></trkpt><trkpt lat="45.4458533" lon="10.2103733"><ele>95.0</ele><time>2026-05-01T10:42:00.1Z</time></trkpt><trkpt lat="45.4459367" lon="10.21041"><ele>95.0</ele><time>2026-05-01T10:42:01.101Z</time></trkpt><trkpt lat="45.44601" lon="10.21045"><ele>95.0</ele><time>2026-05-01T10:42:02.101Z</time></trkpt><trkpt lat="45.44608" lon="10.2104917"><ele>95.0</ele><time>2026-05-01T10:42:03.1Z</time></trkpt><trkpt lat="45.44615" lon="10.2105333"><ele>95.0</ele><time>2026-05-01T10:42:04.1Z</time></trkpt><trkpt lat="45.4462117" lon="10.2105683"><ele>95.0</ele><time>2026-05-01T10:42:05.1Z</time></trkpt><trkpt lat="45.4463067" lon="10.2106467"><ele>95.5</ele><time>2026-05-01T10:42:07.101Z</time></trkpt><trkpt lat="45.4463867" lon="10.2107467"><ele>96.0</ele><time>2026-05-01T10:42:09.1Z</time></trkpt><trkpt lat="45.4464367" lon="10.210845"><ele>96.5</ele><time>2026-05-01T10:42:11.1Z</time></trkpt><trkpt lat="45.446465" lon="10.21094"><ele>97.0</ele><time>2026-05-01T10:42:13.1Z</time></trkpt><trkpt lat="45.4464867" lon="10.211035"><ele>97.49999999999999</ele><time>2026-05-01T10:42:15.1Z</time></trkpt><trkpt lat="45.4465167" lon="10.2111333"><ele>98.0</ele><time>2026-05-01T10:42:18.101Z</time></trkpt><trkpt lat="45.4465583" lon="10.2112317"><ele>97.99999999999999</ele><time>2026-05-01T10:42:22.101Z</time></trkpt><trkpt lat="45.4466217" lon="10.211285"><ele>98.0</ele><time>2026-05-01T10:42:26.101Z</time></trkpt><trkpt lat="45.446735" lon="10.2113317"><ele>98.0</ele><time>2026-05-01T10:43:24.1Z</time></trkpt><trkpt lat="45.4468133" lon="10.2113717"><ele>98.0</ele><time>2026-05-01T11:14:54.099Z</time></trkpt><trkpt lat="45.4468567" lon="10.2112633"><ele>97.99999999999999</ele><time>2026-05-01T11:14:56.099Z</time></trkpt><trkpt lat="45.4469117" lon="10.2111783"><ele>98.0</ele><time>2026-05-01T11:14:58.099Z</time></trkpt><trkpt lat="45.4470517" lon="10.21107"><ele>98.0</ele><time>2026-05-01T11:15:01.1Z</time></trkpt><trkpt lat="45.447125" lon="10.2110717"><ele>98.0</ele><time>2026-05-01T11:15:02.099Z</time></trkpt><trkpt lat="45.4472083" lon="10.2110683"><ele>98.0</ele><time>2026-05-01T11:15:03.1Z</time></trkpt><trkpt lat="45.4473" lon="10.2110667"><ele>98.0</ele><time>2026-05-01T11:15:04.099Z</time></trkpt><trkpt lat="45.4474083" lon="10.211055"><ele>98.0</ele><time>2026-05-01T11:15:05.1Z</time></trkpt><trkpt lat="45.44752" lon="10.211045"><ele>97.75</ele><time>2026-05-01T11:15:06.099Z</time></trkpt><trkpt lat="45.4476483" lon="10.21105"><ele>97.5</ele><time>2026-05-01T11:15:07.099Z</time></trkpt><trkpt lat="45.4477917" lon="10.2110883"><ele>97.25</ele><time>2026-05-01T11:15:08.099Z</time></trkpt><trkpt lat="45.44795" lon="10.21116"><ele>97.0</ele><time>2026-05-01T11:15:09.1Z</time></trkpt><trkpt lat="45.4481167" lon="10.2112367"><ele>97.0</ele><time>2026-05-01T11:15:10.1Z</time></trkpt><trkpt lat="45.4482933" lon="10.2113183"><ele>97.0</ele><time>2026-05-01T11:15:11.099Z</time></trkpt><trkpt lat="45.4484617" lon="10.2113883"><ele>97.0</ele><time>2026-05-01T11:15:12.099Z</time></trkpt><trkpt lat="45.44863" lon="10.21146"><ele>96.66666666666667</ele><time>2026-05-01T11:15:13.1Z</time></trkpt><trkpt lat="45.4488033" lon="10.2115317"><ele>96.33333333333334</ele><time>2026-05-01T11:15:14.1Z</time></trkpt><trkpt lat="45.44898" lon="10.2116083"><ele>96.0</ele><time>2026-05-01T11:15:15.099Z</time></trkpt><trkpt lat="45.4491583" lon="10.2116917"><ele>96.0</ele><time>2026-05-01T11:15:16.099Z</time></trkpt><trkpt lat="45.4493433" lon="10.2117817"><ele>96.0</ele><time>2026-05-01T11:15:17.099Z</time></trkpt><trkpt lat="45.4495283" lon="10.21187"><ele>96.0</ele><time>2026-05-01T11:15:18.099Z</time></trkpt><trkpt lat="45.4497083" lon="10.2119567"><ele>96.66666666666666</ele><time>2026-05-01T11:15:19.1Z</time></trkpt><trkpt lat="45.4498867" lon="10.21204"><ele>97.33333333333333</ele><time>2026-05-01T11:15:20.099Z</time></trkpt><trkpt lat="45.4500633" lon="10.2121283"><ele>98.0</ele><time>2026-05-01T11:15:21.099Z</time></trkpt><trkpt lat="45.4502483" lon="10.2122117"><ele>98.0</ele><time>2026-05-01T11:15:22.099Z</time></trkpt><trkpt lat="45.4504333" lon="10.2122933"><ele>98.0</ele><time>2026-05-01T11:15:23.1Z</time></trkpt><trkpt lat="45.4508083" lon="10.2124717"><ele>97.66666666666666</ele><time>2026-05-01T11:15:25.1Z</time></trkpt><trkpt lat="45.4509967" lon="10.2125533"><ele>97.33333333333334</ele><time>2026-05-01T11:15:26.1Z</time></trkpt><trkpt lat="45.4511833" lon="10.21264"><ele>97.0</ele><time>2026-05-01T11:15:27.099Z</time></trkpt><trkpt lat="45.4513733" lon="10.2127333"><ele>97.66666666666667</ele><time>2026-05-01T11:15:28.099Z</time></trkpt><trkpt lat="45.4515583" lon="10.2128183"><ele>98.33333333333334</ele><time>2026-05-01T11:15:29.1Z</time></trkpt><trkpt lat="45.4517517" lon="10.212905"><ele>99.0</ele><time>2026-05-01T11:15:30.099Z</time></trkpt><trkpt lat="45.4519533" lon="10.213005"><ele>98.66666666666666</ele><time>2026-05-01T11:15:31.099Z</time></trkpt><trkpt lat="45.45216" lon="10.2131"><ele>98.33333333333333</ele><time>2026-05-01T11:15:32.1Z</time></trkpt><trkpt lat="45.4523683" lon="10.2132083"><ele>98.0</ele><time>2026-05-01T11:15:33.1Z</time></trkpt><trkpt lat="45.4525833" lon="10.2133117"><ele>98.0</ele><time>2026-05-01T11:15:34.1Z</time></trkpt><trkpt lat="45.4527833" lon="10.2134133"><ele>98.0</ele><time>2026-05-01T11:15:35.099Z</time></trkpt><trkpt lat="45.452985" lon="10.2135067"><ele>98.0</ele><time>2026-05-01T11:15:36.099Z</time></trkpt><trkpt lat="45.4531817" lon="10.2135983"><ele>98.0</ele><time>2026-05-01T11:15:37.099Z</time></trkpt><trkpt lat="45.4533817" lon="10.2136933"><ele>98.0</ele><time>2026-05-01T11:15:38.1Z</time></trkpt><trkpt lat="45.4535883" lon="10.2137883"><ele>98.0</ele><time>2026-05-01T11:15:39.1Z</time></trkpt><trkpt lat="45.4538033" lon="10.2138883"><ele>99.0</ele><time>2026-05-01T11:15:40.099Z</time></trkpt><trkpt lat="45.45403" lon="10.21399"><ele>100.0</ele><time>2026-05-01T11:15:41.1Z</time></trkpt><trkpt lat="45.454255" lon="10.2140933"><ele>100.0</ele><time>2026-05-01T11:15:42.099Z</time></trkpt><trkpt lat="45.4544783" lon="10.2141933"><ele>100.0</ele><time>2026-05-01T11:15:43.1Z</time></trkpt><trkpt lat="45.45469" lon="10.2142983"><ele>100.0</ele><time>2026-05-01T11:15:44.099Z</time></trkpt><trkpt lat="45.4548983" lon="10.2143883"><ele>100.0</ele><time>2026-05-01T11:15:45.099Z</time></trkpt><trkpt lat="45.45511" lon="10.2144883"><ele>100.0</ele><time>2026-05-01T11:15:46.099Z</time></trkpt><trkpt lat="45.4553283" lon="10.2145933"><ele>100.0</ele><time>2026-05-01T11:15:47.099Z</time></trkpt><trkpt lat="45.4555467" lon="10.214695"><ele>100.0</ele><time>2026-05-01T11:15:48.1Z</time></trkpt><trkpt lat="45.4557667" lon="10.2147983"><ele>99.5</ele><time>2026-05-01T11:15:49.099Z</time></trkpt><trkpt lat="45.45598" lon="10.2149017"><ele>99.0</ele><time>2026-05-01T11:15:50.1Z</time></trkpt><trkpt lat="45.456195" lon="10.2150083"><ele>99.0</ele><time>2026-05-01T11:15:51.1Z</time></trkpt><trkpt lat="45.45641" lon="10.21511"><ele>99.0</ele><time>2026-05-01T11:15:52.099Z</time></trkpt><trkpt lat="45.4566233" lon="10.2152067"><ele>99.0</ele><time>2026-05-01T11:15:53.099Z</time></trkpt><trkpt lat="45.4568383" lon="10.21531"><ele>99.0</ele><time>2026-05-01T11:15:54.099Z</time></trkpt><trkpt lat="45.4570467" lon="10.2154117"><ele>99.0</ele><time>2026-05-01T11:15:55.099Z</time></trkpt><trkpt lat="45.4572617" lon="10.2155133"><ele>98.66666666666666</ele><time>2026-05-01T11:15:56.1Z</time></trkpt><trkpt lat="45.4574733" lon="10.215615"><ele>98.33333333333333</ele><time>2026-05-01T11:15:57.099Z</time></trkpt><trkpt lat="45.45768" lon="10.2157117"><ele>98.0</ele><time>2026-05-01T11:15:58.099Z</time></trkpt><trkpt lat="45.45789" lon="10.215805"><ele>98.0</ele><time>2026-05-01T11:15:59.099Z</time></trkpt><trkpt lat="45.4580933" lon="10.2159017"><ele>98.0</ele><time>2026-05-01T11:16:00.099Z</time></trkpt><trkpt lat="45.4585167" lon="10.216105"><ele>98.0</ele><time>2026-05-01T11:16:02.1Z</time></trkpt><trkpt lat="45.4587317" lon="10.2162033"><ele>98.0</ele><time>2026-05-01T11:16:03.099Z</time></trkpt><trkpt lat="45.4589467" lon="10.2163033"><ele>99.0</ele><time>2026-05-01T11:16:04.1Z</time></trkpt><trkpt lat="45.4591617" lon="10.2164017"><ele>100.0</ele><time>2026-05-01T11:16:05.099Z</time></trkpt><trkpt lat="45.4593833" lon="10.2165033"><ele>100.0</ele><time>2026-05-01T11:16:06.099Z</time></trkpt><trkpt lat="45.459605" lon="10.216605"><ele>100.0</ele><time>2026-05-01T11:16:07.099Z</time></trkpt><trkpt lat="45.459815" lon="10.216705"><ele>100.0</ele><time>2026-05-01T11:16:08.1Z</time></trkpt><trkpt lat="45.4600233" lon="10.2168"><ele>100.0</ele><time>2026-05-01T11:16:09.099Z</time></trkpt><trkpt lat="45.4602333" lon="10.2168983"><ele>100.0</ele><time>2026-05-01T11:16:10.099Z</time></trkpt><trkpt lat="45.46045" lon="10.2169967"><ele>99.5</ele><time>2026-05-01T11:16:11.1Z</time></trkpt><trkpt lat="45.4606633" lon="10.2170967"><ele>99.0</ele><time>2026-05-01T11:16:12.099Z</time></trkpt><trkpt lat="45.4608817" lon="10.2171983"><ele>99.0</ele><time>2026-05-01T11:16:13.1Z</time></trkpt><trkpt lat="45.4611017" lon="10.2173017"><ele>99.0</ele><time>2026-05-01T11:16:14.099Z</time></trkpt><trkpt lat="45.4613217" lon="10.2174083"><ele>100.0</ele><time>2026-05-01T11:16:15.1Z</time></trkpt><trkpt lat="45.461545" lon="10.2175167"><ele>101.0</ele><time>2026-05-01T11:16:16.099Z</time></trkpt><trkpt lat="45.4617733" lon="10.21762"><ele>101.0</ele><time>2026-05-01T11:16:17.1Z</time></trkpt><trkpt lat="45.462005" lon="10.2177267"><ele>101.0</ele><time>2026-05-01T11:16:18.099Z</time></trkpt><trkpt lat="45.4622267" lon="10.2178333"><ele>101.33333333333333</ele><time>2026-05-01T11:16:19.1Z</time></trkpt><trkpt lat="45.4624367" lon="10.2179283"><ele>101.66666666666666</ele><time>2026-05-01T11:16:20.1Z</time></trkpt><trkpt lat="45.4626417" lon="10.2180167"><ele>102.0</ele><time>2026-05-01T11:16:21.099Z</time></trkpt><trkpt lat="45.46285" lon="10.2181067"><ele>103.5</ele><time>2026-05-01T11:16:22.099Z</time></trkpt><trkpt lat="45.4630667" lon="10.2181933"><ele>105.0</ele><time>2026-05-01T11:16:23.1Z</time></trkpt><trkpt lat="45.463285" lon="10.2182867"><ele>105.0</ele><time>2026-05-01T11:16:24.099Z</time></trkpt><trkpt lat="45.463505" lon="10.2183967"><ele>105.0</ele><time>2026-05-01T11:16:25.1Z</time></trkpt><trkpt lat="45.4637283" lon="10.2185067"><ele>104.0</ele><time>2026-05-01T11:16:26.1Z</time></trkpt><trkpt lat="45.4639617" lon="10.2186"><ele>103.0</ele><time>2026-05-01T11:16:27.099Z</time></trkpt><trkpt lat="45.46419" lon="10.2186867"><ele>103.0</ele><time>2026-05-01T11:16:28.099Z</time></trkpt><trkpt lat="45.4644117" lon="10.2187683"><ele>103.0</ele><time>2026-05-01T11:16:29.1Z</time></trkpt><trkpt lat="45.46463" lon="10.2188517"><ele>103.0</ele><time>2026-05-01T11:16:30.099Z</time></trkpt><trkpt lat="45.4648517" lon="10.2189383"><ele>103.0</ele><time>2026-05-01T11:16:31.1Z</time></trkpt><trkpt lat="45.465075" lon="10.2190133"><ele>103.0</ele><time>2026-05-01T11:16:32.099Z</time></trkpt><trkpt lat="45.4653033" lon="10.21909"><ele>103.0</ele><time>2026-05-01T11:16:33.1Z</time></trkpt><trkpt lat="45.4655333" lon="10.2191633"><ele>103.0</ele><time>2026-05-01T11:16:34.1Z</time></trkpt><trkpt lat="45.4657667" lon="10.2192433"><ele>103.0</ele><time>2026-05-01T11:16:35.099Z</time></trkpt><trkpt lat="45.4659983" lon="10.219325"><ele>103.0</ele><time>2026-05-01T11:16:36.099Z</time></trkpt><trkpt lat="45.46623" lon="10.219405"><ele>103.0</ele><time>2026-05-01T11:16:37.099Z</time></trkpt><trkpt lat="45.46646" lon="10.2194817"><ele>103.5</ele><time>2026-05-01T11:16:38.1Z</time></trkpt><trkpt lat="45.4666933" lon="10.2195617"><ele>104.0</ele><time>2026-05-01T11:16:39.099Z</time></trkpt><trkpt lat="45.4669283" lon="10.2196433"><ele>104.0</ele><time>2026-05-01T11:16:40.099Z</time></trkpt><trkpt lat="45.4671683" lon="10.2197167"><ele>104.0</ele><time>2026-05-01T11:16:41.099Z</time></trkpt><trkpt lat="45.46741" lon="10.2197917"><ele>103.5</ele><time>2026-05-01T11:16:42.1Z</time></trkpt><trkpt lat="45.467655" lon="10.21987"><ele>103.0</ele><time>2026-05-01T11:16:43.1Z</time></trkpt><trkpt lat="45.4678983" lon="10.2199517"><ele>103.0</ele><time>2026-05-01T11:16:44.1Z</time></trkpt><trkpt lat="45.4681433" lon="10.2200283"><ele>103.0</ele><time>2026-05-01T11:16:45.099Z</time></trkpt><trkpt lat="45.468385" lon="10.2201117"><ele>103.0</ele><time>2026-05-01T11:16:46.099Z</time></trkpt><trkpt lat="45.4686267" lon="10.2201883"><ele>103.0</ele><time>2026-05-01T11:16:47.099Z</time></trkpt><trkpt lat="45.4688667" lon="10.2202683"><ele>104.0</ele><time>2026-05-01T11:16:48.099Z</time></trkpt><trkpt lat="45.469105" lon="10.22035"><ele>105.0</ele><time>2026-05-01T11:16:49.099Z</time></trkpt><trkpt lat="45.469345" lon="10.2204317"><ele>105.0</ele><time>2026-05-01T11:16:50.1Z</time></trkpt><trkpt lat="45.469585" lon="10.220515"><ele>105.0</ele><time>2026-05-01T11:16:51.099Z</time></trkpt><trkpt lat="45.4698233" lon="10.2205983"><ele>105.5</ele><time>2026-05-01T11:16:52.099Z</time></trkpt><trkpt lat="45.4700617" lon="10.220675"><ele>106.0</ele><time>2026-05-01T11:16:53.1Z</time></trkpt><trkpt lat="45.4703" lon="10.22075"><ele>106.5</ele><time>2026-05-01T11:16:54.1Z</time></trkpt><trkpt lat="45.470535" lon="10.2208317"><ele>107.0</ele><time>2026-05-01T11:16:55.099Z</time></trkpt><trkpt lat="45.4707633" lon="10.2209117"><ele>107.0</ele><time>2026-05-01T11:16:56.1Z</time></trkpt><trkpt lat="45.470985" lon="10.22098"><ele>107.0</ele><time>2026-05-01T11:16:57.1Z</time></trkpt><trkpt lat="45.4712" lon="10.221055"><ele>107.0</ele><time>2026-05-01T11:16:58.099Z</time></trkpt><trkpt lat="45.4714183" lon="10.2211283"><ele>107.33333333333333</ele><time>2026-05-01T11:16:59.099Z</time></trkpt><trkpt lat="45.471635" lon="10.2212017"><ele>107.66666666666666</ele><time>2026-05-01T11:17:00.1Z</time></trkpt><trkpt lat="45.471855" lon="10.2212717"><ele>108.0</ele><time>2026-05-01T11:17:01.099Z</time></trkpt><trkpt lat="45.4720783" lon="10.2213433"><ele>107.0</ele><time>2026-05-01T11:17:02.099Z</time></trkpt><trkpt lat="45.4723017" lon="10.22142"><ele>106.0</ele><time>2026-05-01T11:17:03.099Z</time></trkpt><trkpt lat="45.4725283" lon="10.22149"><ele>106.0</ele><time>2026-05-01T11:17:04.1Z</time></trkpt><trkpt lat="45.472755" lon="10.2215683"><ele>106.0</ele><time>2026-05-01T11:17:05.1Z</time></trkpt><trkpt lat="45.4729833" lon="10.2216467"><ele>106.0</ele><time>2026-05-01T11:17:06.099Z</time></trkpt><trkpt lat="45.4732133" lon="10.221725"><ele>106.0</ele><time>2026-05-01T11:17:07.1Z</time></trkpt><trkpt lat="45.473445" lon="10.2218067"><ele>106.0</ele><time>2026-05-01T11:17:08.1Z</time></trkpt><trkpt lat="45.47368" lon="10.22188"><ele>106.0</ele><time>2026-05-01T11:17:09.099Z</time></trkpt><trkpt lat="45.473915" lon="10.221955"><ele>106.5</ele><time>2026-05-01T11:17:10.099Z</time></trkpt><trkpt lat="45.4741517" lon="10.2220317"><ele>107.0</ele><time>2026-05-01T11:17:11.099Z</time></trkpt><trkpt lat="45.4743917" lon="10.2221133"><ele>106.5</ele><time>2026-05-01T11:17:12.1Z</time></trkpt><trkpt lat="45.474635" lon="10.2221933"><ele>106.0</ele><time>2026-05-01T11:17:13.1Z</time></trkpt><trkpt lat="45.4748817" lon="10.2222733"><ele>104.5</ele><time>2026-05-01T11:17:14.099Z</time></trkpt><trkpt lat="45.47513" lon="10.22235"><ele>103.0</ele><time>2026-05-01T11:17:15.099Z</time></trkpt><trkpt lat="45.4753717" lon="10.2224283"><ele>107.0</ele><time>2026-05-01T11:17:16.099Z</time></trkpt><trkpt lat="45.4758267" lon="10.22258"><ele>107.0</ele><time>2026-05-01T11:17:18.1Z</time></trkpt><trkpt lat="45.476045" lon="10.22266"><ele>107.0</ele><time>2026-05-01T11:17:19.1Z</time></trkpt><trkpt lat="45.47626" lon="10.2227333"><ele>107.0</ele><time>2026-05-01T11:17:20.099Z</time></trkpt><trkpt lat="45.476475" lon="10.22281"><ele>107.0</ele><time>2026-05-01T11:17:21.1Z</time></trkpt><trkpt lat="45.4766917" lon="10.2228867"><ele>107.0</ele><time>2026-05-01T11:17:22.099Z</time></trkpt><trkpt lat="45.4769117" lon="10.2229583"><ele>107.0</ele><time>2026-05-01T11:17:23.1Z</time></trkpt><trkpt lat="45.4771333" lon="10.2230317"><ele>107.0</ele><time>2026-05-01T11:17:24.1Z</time></trkpt><trkpt lat="45.4773517" lon="10.223105"><ele>107.0</ele><time>2026-05-01T11:17:25.099Z</time></trkpt><trkpt lat="45.4775683" lon="10.2231767"><ele>107.0</ele><time>2026-05-01T11:17:26.1Z</time></trkpt><trkpt lat="45.47779" lon="10.2232483"><ele>106.5</ele><time>2026-05-01T11:17:27.1Z</time></trkpt><trkpt lat="45.4780117" lon="10.2233283"><ele>106.0</ele><time>2026-05-01T11:17:28.1Z</time></trkpt><trkpt lat="45.4782417" lon="10.223405"><ele>106.0</ele><time>2026-05-01T11:17:29.099Z</time></trkpt><trkpt lat="45.478475" lon="10.22348"><ele>106.0</ele><time>2026-05-01T11:17:30.099Z</time></trkpt><trkpt lat="45.4787083" lon="10.2235583"><ele>104.5</ele><time>2026-05-01T11:17:31.1Z</time></trkpt><trkpt lat="45.47895" lon="10.2236433"><ele>103.0</ele><time>2026-05-01T11:17:32.099Z</time></trkpt><trkpt lat="45.47919" lon="10.2237233"><ele>103.0</ele><time>2026-05-01T11:17:33.099Z</time></trkpt><trkpt lat="45.4794317" lon="10.223805"><ele>103.0</ele><time>2026-05-01T11:17:34.099Z</time></trkpt><trkpt lat="45.4796733" lon="10.2238883"><ele>103.5</ele><time>2026-05-01T11:17:35.1Z</time></trkpt><trkpt lat="45.47992" lon="10.223965"><ele>104.0</ele><time>2026-05-01T11:17:36.1Z</time></trkpt><trkpt lat="45.4801683" lon="10.2240433"><ele>104.0</ele><time>2026-05-01T11:17:37.099Z</time></trkpt><trkpt lat="45.4804217" lon="10.22412"><ele>104.0</ele><time>2026-05-01T11:17:38.1Z</time></trkpt><trkpt lat="45.48067" lon="10.2242033"><ele>103.5</ele><time>2026-05-01T11:17:39.099Z</time></trkpt><trkpt lat="45.48092" lon="10.22429"><ele>103.0</ele><time>2026-05-01T11:17:40.099Z</time></trkpt><trkpt lat="45.4811667" lon="10.224365"><ele>103.0</ele><time>2026-05-01T11:17:41.099Z</time></trkpt><trkpt lat="45.481415" lon="10.2244433"><ele>103.0</ele><time>2026-05-01T11:17:42.1Z</time></trkpt><trkpt lat="45.4816633" lon="10.2245317"><ele>103.0</ele><time>2026-05-01T11:17:43.1Z</time></trkpt><trkpt lat="45.481915" lon="10.2246067"><ele>103.0</ele><time>2026-05-01T11:17:44.099Z</time></trkpt><trkpt lat="45.4821583" lon="10.22468"><ele>105.0</ele><time>2026-05-01T11:17:45.1Z</time></trkpt><trkpt lat="45.482405" lon="10.22476"><ele>107.0</ele><time>2026-05-01T11:17:46.099Z</time></trkpt><trkpt lat="45.4826517" lon="10.2248433"><ele>107.0</ele><time>2026-05-01T11:17:47.099Z</time></trkpt><trkpt lat="45.4828967" lon="10.2249267"><ele>107.0</ele><time>2026-05-01T11:17:48.099Z</time></trkpt><trkpt lat="45.4831433" lon="10.2250083"><ele>106.5</ele><time>2026-05-01T11:17:49.1Z</time></trkpt><trkpt lat="45.4833883" lon="10.2250967"><ele>106.0</ele><time>2026-05-01T11:17:50.099Z</time></trkpt><trkpt lat="45.483635" lon="10.22518"><ele>106.5</ele><time>2026-05-01T11:17:51.1Z</time></trkpt><trkpt lat="45.4838833" lon="10.225255"><ele>107.0</ele><time>2026-05-01T11:17:52.1Z</time></trkpt><trkpt lat="45.48413" lon="10.2253367"><ele>107.0</ele><time>2026-05-01T11:17:53.099Z</time></trkpt><trkpt lat="45.484375" lon="10.22542"><ele>107.0</ele><time>2026-05-01T11:17:54.099Z</time></trkpt><trkpt lat="45.4846217" lon="10.225505"><ele>107.0</ele><time>2026-05-01T11:17:55.1Z</time></trkpt><trkpt lat="45.4848667" lon="10.2255883"><ele>107.0</ele><time>2026-05-01T11:17:56.099Z</time></trkpt><trkpt lat="45.4851167" lon="10.2256717"><ele>107.5</ele><time>2026-05-01T11:17:57.099Z</time></trkpt><trkpt lat="45.4853617" lon="10.2257567"><ele>108.0</ele><time>2026-05-01T11:17:58.099Z</time></trkpt><trkpt lat="45.4856067" lon="10.2258417"><ele>108.5</ele><time>2026-05-01T11:17:59.099Z</time></trkpt><trkpt lat="45.4858533" lon="10.2259233"><ele>109.0</ele><time>2026-05-01T11:18:00.1Z</time></trkpt><trkpt lat="45.4861033" lon="10.2260017"><ele>108.5</ele><time>2026-05-01T11:18:01.1Z</time></trkpt><trkpt lat="45.486355" lon="10.2260767"><ele>108.0</ele><time>2026-05-01T11:18:02.099Z</time></trkpt><trkpt lat="45.4866033" lon="10.2261617"><ele>108.0</ele><time>2026-05-01T11:18:03.1Z</time></trkpt><trkpt lat="45.4868467" lon="10.2262483"><ele>108.0</ele><time>2026-05-01T11:18:04.1Z</time></trkpt><trkpt lat="45.487095" lon="10.2263383"><ele>107.5</ele><time>2026-05-01T11:18:05.1Z</time></trkpt><trkpt lat="45.4873433" lon="10.2264233"><ele>107.0</ele><time>2026-05-01T11:18:06.1Z</time></trkpt><trkpt lat="45.4875933" lon="10.226505"><ele>107.0</ele><time>2026-05-01T11:18:07.099Z</time></trkpt><trkpt lat="45.4878417" lon="10.2265883"><ele>107.0</ele><time>2026-05-01T11:18:08.1Z</time></trkpt><trkpt lat="45.4880883" lon="10.2266733"><ele>107.5</ele><time>2026-05-01T11:18:09.1Z</time></trkpt><trkpt lat="45.4883383" lon="10.2267583"><ele>108.0</ele><time>2026-05-01T11:18:10.1Z</time></trkpt><trkpt lat="45.4885867" lon="10.2268383"><ele>108.0</ele><time>2026-05-01T11:18:11.099Z</time></trkpt><trkpt lat="45.4888383" lon="10.22692"><ele>108.0</ele><time>2026-05-01T11:18:12.1Z</time></trkpt><trkpt lat="45.48909" lon="10.2269983"><ele>108.0</ele><time>2026-05-01T11:18:13.1Z</time></trkpt><trkpt lat="45.4893433" lon="10.2270817"><ele>108.0</ele><time>2026-05-01T11:18:14.1Z</time></trkpt><trkpt lat="45.4898417" lon="10.2272583"><ele>108.0</ele><time>2026-05-01T11:18:16.1Z</time></trkpt><trkpt lat="45.4900933" lon="10.2273417"><ele>108.0</ele><time>2026-05-01T11:18:17.099Z</time></trkpt><trkpt lat="45.490345" lon="10.2274233"><ele>109.0</ele><time>2026-05-01T11:18:18.099Z</time></trkpt><trkpt lat="45.4905983" lon="10.2275083"><ele>110.0</ele><time>2026-05-01T11:18:19.1Z</time></trkpt><trkpt lat="45.4908517" lon="10.22759"><ele>110.0</ele><time>2026-05-01T11:18:20.099Z</time></trkpt><trkpt lat="45.491105" lon="10.2276733"><ele>110.0</ele><time>2026-05-01T11:18:21.099Z</time></trkpt><trkpt lat="45.4913583" lon="10.2277533"><ele>110.5</ele><time>2026-05-01T11:18:22.099Z</time></trkpt><trkpt lat="45.491615" lon="10.2278383"><ele>111.0</ele><time>2026-05-01T11:18:23.099Z</time></trkpt><trkpt lat="45.4918717" lon="10.2279283"><ele>110.0</ele><time>2026-05-01T11:18:24.1Z</time></trkpt><trkpt lat="45.4921283" lon="10.2280133"><ele>109.0</ele><time>2026-05-01T11:18:25.099Z</time></trkpt><trkpt lat="45.4923867" lon="10.2280983"><ele>106.5</ele><time>2026-05-01T11:18:26.099Z</time></trkpt><trkpt lat="45.4926417" lon="10.2281883"><ele>104.0</ele><time>2026-05-01T11:18:27.099Z</time></trkpt><trkpt lat="45.4928967" lon="10.2282767"><ele>106.5</ele><time>2026-05-01T11:18:28.1Z</time></trkpt><trkpt lat="45.4931483" lon="10.2283683"><ele>109.0</ele><time>2026-05-01T11:18:29.1Z</time></trkpt><trkpt lat="45.4934017" lon="10.22846"><ele>109.0</ele><time>2026-05-01T11:18:30.099Z</time></trkpt><trkpt lat="45.4936583" lon="10.2285633"><ele>109.0</ele><time>2026-05-01T11:18:31.099Z</time></trkpt><trkpt lat="45.4939067" lon="10.2286867"><ele>109.5</ele><time>2026-05-01T11:18:32.099Z</time></trkpt><trkpt lat="45.4941567" lon="10.2288167"><ele>110.0</ele><time>2026-05-01T11:18:33.099Z</time></trkpt><trkpt lat="45.4944033" lon="10.2289433"><ele>110.5</ele><time>2026-05-01T11:18:34.099Z</time></trkpt><trkpt lat="45.4946483" lon="10.2290733"><ele>111.0</ele><time>2026-05-01T11:18:35.1Z</time></trkpt><trkpt lat="45.494895" lon="10.22921"><ele>111.0</ele><time>2026-05-01T11:18:36.099Z</time></trkpt><trkpt lat="45.495135" lon="10.229355"><ele>111.0</ele><time>2026-05-01T11:18:37.099Z</time></trkpt><trkpt lat="45.4953767" lon="10.2295133"><ele>111.0</ele><time>2026-05-01T11:18:38.1Z</time></trkpt><trkpt lat="45.4956167" lon="10.2296817"><ele>111.0</ele><time>2026-05-01T11:18:39.1Z</time></trkpt><trkpt lat="45.495855" lon="10.2298517"><ele>111.0</ele><time>2026-05-01T11:18:40.099Z</time></trkpt><trkpt lat="45.4960967" lon="10.2300283"><ele>111.0</ele><time>2026-05-01T11:18:41.099Z</time></trkpt><trkpt lat="45.4963333" lon="10.2302067"><ele>111.0</ele><time>2026-05-01T11:18:42.099Z</time></trkpt><trkpt lat="45.49679" lon="10.2305833"><ele>111.5</ele><time>2026-05-01T11:18:44.099Z</time></trkpt><trkpt lat="45.4970067" lon="10.2307733"><ele>112.0</ele><time>2026-05-01T11:18:45.099Z</time></trkpt><trkpt lat="45.49722" lon="10.2309567"><ele>112.0</ele><time>2026-05-01T11:18:46.099Z</time></trkpt><trkpt lat="45.4974233" lon="10.2311533"><ele>112.0</ele><time>2026-05-01T11:18:47.099Z</time></trkpt><trkpt lat="45.4976283" lon="10.231355"><ele>113.0</ele><time>2026-05-01T11:18:48.1Z</time></trkpt><trkpt lat="45.4978317" lon="10.2315683"><ele>114.0</ele><time>2026-05-01T11:18:49.099Z</time></trkpt><trkpt lat="45.4980283" lon="10.23178"><ele>114.0</ele><time>2026-05-01T11:18:50.099Z</time></trkpt><trkpt lat="45.498225" lon="10.231995"><ele>114.0</ele><time>2026-05-01T11:18:51.1Z</time></trkpt><trkpt lat="45.4984183" lon="10.232215"><ele>114.0</ele><time>2026-05-01T11:18:52.1Z</time></trkpt><trkpt lat="45.4986083" lon="10.2324367"><ele>114.0</ele><time>2026-05-01T11:18:53.1Z</time></trkpt><trkpt lat="45.4987917" lon="10.2326667"><ele>114.0</ele><time>2026-05-01T11:18:54.099Z</time></trkpt><trkpt lat="45.498975" lon="10.2329"><ele>114.0</ele><time>2026-05-01T11:18:55.099Z</time></trkpt><trkpt lat="45.4991583" lon="10.2331283"><ele>113.5</ele><time>2026-05-01T11:18:56.1Z</time></trkpt><trkpt lat="45.4993417" lon="10.2333583"><ele>113.0</ele><time>2026-05-01T11:18:57.099Z</time></trkpt><trkpt lat="45.499525" lon="10.2335917"><ele>113.0</ele><time>2026-05-01T11:18:58.099Z</time></trkpt><trkpt lat="45.4997117" lon="10.2338233"><ele>113.0</ele><time>2026-05-01T11:18:59.099Z</time></trkpt><trkpt lat="45.4998983" lon="10.234065"><ele>113.0</ele><time>2026-05-01T11:19:00.099Z</time></trkpt><trkpt lat="45.5000867" lon="10.2343"><ele>113.0</ele><time>2026-05-01T11:19:01.1Z</time></trkpt><trkpt lat="45.5002667" lon="10.2345333"><ele>113.0</ele><time>2026-05-01T11:19:02.099Z</time></trkpt><trkpt lat="45.5004467" lon="10.2347483"><ele>113.0</ele><time>2026-05-01T11:19:03.1Z</time></trkpt><trkpt lat="45.5006167" lon="10.234965"><ele>113.0</ele><time>2026-05-01T11:19:04.1Z</time></trkpt><trkpt lat="45.5007833" lon="10.2351683"><ele>113.0</ele><time>2026-05-01T11:19:05.1Z</time></trkpt><trkpt lat="45.5009483" lon="10.2353767"><ele>113.0</ele><time>2026-05-01T11:19:06.099Z</time></trkpt><trkpt lat="45.501105" lon="10.23559"><ele>113.66666666666666</ele><time>2026-05-01T11:19:07.099Z</time></trkpt><trkpt lat="45.5012533" lon="10.2358083"><ele>114.33333333333334</ele><time>2026-05-01T11:19:08.1Z</time></trkpt><trkpt lat="45.5013967" lon="10.2360367"><ele>115.0</ele><time>2026-05-01T11:19:09.099Z</time></trkpt><trkpt lat="45.5015317" lon="10.236265"><ele>115.33333333333334</ele><time>2026-05-01T11:19:10.099Z</time></trkpt><trkpt lat="45.5016617" lon="10.2364933"><ele>115.66666666666666</ele><time>2026-05-01T11:19:11.099Z</time></trkpt><trkpt lat="45.5017883" lon="10.2367233"><ele>116.0</ele><time>2026-05-01T11:19:12.099Z</time></trkpt><trkpt lat="45.5020367" lon="10.2371867"><ele>116.66666666666666</ele><time>2026-05-01T11:19:14.099Z</time></trkpt><trkpt lat="45.5021633" lon="10.2374267"><ele>117.33333333333334</ele><time>2026-05-01T11:19:15.099Z</time></trkpt><trkpt lat="45.5022917" lon="10.2376633"><ele>118.0</ele><time>2026-05-01T11:19:16.099Z</time></trkpt><trkpt lat="45.502425" lon="10.2379"><ele>118.66666666666667</ele><time>2026-05-01T11:19:17.1Z</time></trkpt><trkpt lat="45.5025567" lon="10.2381467"><ele>119.33333333333334</ele><time>2026-05-01T11:19:18.099Z</time></trkpt><trkpt lat="45.50269" lon="10.23839"><ele>120.0</ele><time>2026-05-01T11:19:19.1Z</time></trkpt><trkpt lat="45.50283" lon="10.238635"><ele>120.0</ele><time>2026-05-01T11:19:20.1Z</time></trkpt><trkpt lat="45.5029583" lon="10.2388767"><ele>120.0</ele><time>2026-05-01T11:19:21.1Z</time></trkpt><trkpt lat="45.5030867" lon="10.23911"><ele>120.0</ele><time>2026-05-01T11:19:22.099Z</time></trkpt><trkpt lat="45.5033217" lon="10.23954"><ele>120.0</ele><time>2026-05-01T11:19:24.099Z</time></trkpt><trkpt lat="45.50343" lon="10.2397383"><ele>120.0</ele><time>2026-05-01T11:19:25.099Z</time></trkpt><trkpt lat="45.5035317" lon="10.239925"><ele>120.0</ele><time>2026-05-01T11:19:26.099Z</time></trkpt><trkpt lat="45.50362" lon="10.2401033"><ele>120.0</ele><time>2026-05-01T11:19:27.099Z</time></trkpt><trkpt lat="45.5036933" lon="10.240285"><ele>120.0</ele><time>2026-05-01T11:19:28.1Z</time></trkpt><trkpt lat="45.5037533" lon="10.240455"><ele>120.0</ele><time>2026-05-01T11:19:29.1Z</time></trkpt><trkpt lat="45.5038033" lon="10.2406317"><ele>120.0</ele><time>2026-05-01T11:19:30.099Z</time></trkpt><trkpt lat="45.5038417" lon="10.2408017"><ele>119.75</ele><time>2026-05-01T11:19:31.099Z</time></trkpt><trkpt lat="45.5038733" lon="10.2409667"><ele>119.5</ele><time>2026-05-01T11:19:32.099Z</time></trkpt><trkpt lat="45.5038917" lon="10.2411333"><ele>119.25</ele><time>2026-05-01T11:19:33.099Z</time></trkpt><trkpt lat="45.5039017" lon="10.2413"><ele>119.0</ele><time>2026-05-01T11:19:34.1Z</time></trkpt><trkpt lat="45.5039" lon="10.2414583"><ele>118.2</ele><time>2026-05-01T11:19:35.099Z</time></trkpt><trkpt lat="45.5038933" lon="10.2416067"><ele>117.4</ele><time>2026-05-01T11:19:36.1Z</time></trkpt><trkpt lat="45.5038817" lon="10.241745"><ele>116.6</ele><time>2026-05-01T11:19:37.099Z</time></trkpt><trkpt lat="45.50387" lon="10.2418717"><ele>115.8</ele><time>2026-05-01T11:19:38.1Z</time></trkpt><trkpt lat="45.5038517" lon="10.2419917"><ele>115.0</ele><time>2026-05-01T11:19:39.099Z</time></trkpt><trkpt lat="45.5038267" lon="10.2421117"><ele>115.0</ele><time>2026-05-01T11:19:40.1Z</time></trkpt><trkpt lat="45.5037983" lon="10.2422333"><ele>115.0</ele><time>2026-05-01T11:19:41.099Z</time></trkpt><trkpt lat="45.5037683" lon="10.2423683"><ele>115.0</ele><time>2026-05-01T11:19:42.1Z</time></trkpt><trkpt lat="45.5037317" lon="10.2425233"><ele>115.0</ele><time>2026-05-01T11:19:43.099Z</time></trkpt><trkpt lat="45.5036917" lon="10.2426933"><ele>115.0</ele><time>2026-05-01T11:19:44.1Z</time></trkpt><trkpt lat="45.5036533" lon="10.2428683"><ele>115.75</ele><time>2026-05-01T11:19:45.099Z</time></trkpt><trkpt lat="45.50362" lon="10.243035"><ele>116.5</ele><time>2026-05-01T11:19:46.099Z</time></trkpt><trkpt lat="45.50359" lon="10.2431917"><ele>117.25</ele><time>2026-05-01T11:19:47.1Z</time></trkpt><trkpt lat="45.5035517" lon="10.2433533"><ele>118.0</ele><time>2026-05-01T11:19:48.099Z</time></trkpt><trkpt lat="45.5035183" lon="10.24352"><ele>118.25</ele><time>2026-05-01T11:19:49.1Z</time></trkpt><trkpt lat="45.5034817" lon="10.2437033"><ele>118.5</ele><time>2026-05-01T11:19:50.099Z</time></trkpt><trkpt lat="45.5034467" lon="10.2438933"><ele>118.75</ele><time>2026-05-01T11:19:51.1Z</time></trkpt><trkpt lat="45.503405" lon="10.2440833"><ele>119.0</ele><time>2026-05-01T11:19:52.1Z</time></trkpt><trkpt lat="45.5033583" lon="10.2442833"><ele>119.0</ele><time>2026-05-01T11:19:53.099Z</time></trkpt><trkpt lat="45.5033133" lon="10.2444783"><ele>119.0</ele><time>2026-05-01T11:19:54.099Z</time></trkpt><trkpt lat="45.5032667" lon="10.2446683"><ele>119.0</ele><time>2026-05-01T11:19:55.099Z</time></trkpt><trkpt lat="45.503225" lon="10.2448483"><ele>119.0</ele><time>2026-05-01T11:19:56.1Z</time></trkpt><trkpt lat="45.5031817" lon="10.2450217"><ele>119.0</ele><time>2026-05-01T11:19:57.1Z</time></trkpt><trkpt lat="45.5031417" lon="10.2452"><ele>119.0</ele><time>2026-05-01T11:19:58.099Z</time></trkpt><trkpt lat="45.5031017" lon="10.24538"><ele>119.0</ele><time>2026-05-01T11:19:59.1Z</time></trkpt><trkpt lat="45.5030633" lon="10.245555"><ele>119.0</ele><time>2026-05-01T11:20:00.1Z</time></trkpt><trkpt lat="45.5030183" lon="10.24574"><ele>119.0</ele><time>2026-05-01T11:20:01.099Z</time></trkpt><trkpt lat="45.502975" lon="10.24592"><ele>119.0</ele><time>2026-05-01T11:20:02.099Z</time></trkpt><trkpt lat="45.5029317" lon="10.2461067"><ele>119.0</ele><time>2026-05-01T11:20:03.099Z</time></trkpt><trkpt lat="45.5028933" lon="10.246295"><ele>119.0</ele><time>2026-05-01T11:20:04.099Z</time></trkpt><trkpt lat="45.5028467" lon="10.246495"><ele>118.0</ele><time>2026-05-01T11:20:05.099Z</time></trkpt><trkpt lat="45.5027967" lon="10.2467017"><ele>117.0</ele><time>2026-05-01T11:20:06.099Z</time></trkpt><trkpt lat="45.5027467" lon="10.24691"><ele>116.0</ele><time>2026-05-01T11:20:07.099Z</time></trkpt><trkpt lat="45.5026967" lon="10.2471283"><ele>116.0</ele><time>2026-05-01T11:20:08.1Z</time></trkpt><trkpt lat="45.5026467" lon="10.2473467"><ele>116.0</ele><time>2026-05-01T11:20:09.099Z</time></trkpt><trkpt lat="45.5025933" lon="10.247575"><ele>116.0</ele><time>2026-05-01T11:20:10.099Z</time></trkpt><trkpt lat="45.502545" lon="10.2478"><ele>116.0</ele><time>2026-05-01T11:20:11.1Z</time></trkpt><trkpt lat="45.5024967" lon="10.2480317"><ele>116.0</ele><time>2026-05-01T11:20:12.099Z</time></trkpt><trkpt lat="45.502445" lon="10.2482667"><ele>116.0</ele><time>2026-05-01T11:20:13.099Z</time></trkpt><trkpt lat="45.50239" lon="10.2485017"><ele>117.0</ele><time>2026-05-01T11:20:14.099Z</time></trkpt><trkpt lat="45.5022817" lon="10.2489867"><ele>118.0</ele><time>2026-05-01T11:20:16.1Z</time></trkpt><trkpt lat="45.5022283" lon="10.2492333"><ele>118.0</ele><time>2026-05-01T11:20:17.099Z</time></trkpt><trkpt lat="45.50217" lon="10.249475"><ele>118.0</ele><time>2026-05-01T11:20:18.099Z</time></trkpt><trkpt lat="45.50211" lon="10.2497183"><ele>118.0</ele><time>2026-05-01T11:20:19.1Z</time></trkpt><trkpt lat="45.5020433" lon="10.2499617"><ele>118.33333333333334</ele><time>2026-05-01T11:20:20.099Z</time></trkpt><trkpt lat="45.501975" lon="10.25021"><ele>118.66666666666666</ele><time>2026-05-01T11:20:21.099Z</time></trkpt><trkpt lat="45.5019067" lon="10.25046"><ele>119.0</ele><time>2026-05-01T11:20:22.1Z</time></trkpt><trkpt lat="45.5018333" lon="10.250705"><ele>118.33333333333333</ele><time>2026-05-01T11:20:23.1Z</time></trkpt><trkpt lat="45.5017633" lon="10.250955"><ele>117.66666666666666</ele><time>2026-05-01T11:20:24.1Z</time></trkpt><trkpt lat="45.5016917" lon="10.2512017"><ele>117.0</ele><time>2026-05-01T11:20:25.099Z</time></trkpt><trkpt lat="45.501625" lon="10.2514517"><ele>117.0</ele><time>2026-05-01T11:20:26.1Z</time></trkpt><trkpt lat="45.5015617" lon="10.2516933"><ele>117.0</ele><time>2026-05-01T11:20:27.1Z</time></trkpt><trkpt lat="45.5015" lon="10.25193"><ele>117.0</ele><time>2026-05-01T11:20:28.1Z</time></trkpt><trkpt lat="45.5014433" lon="10.2521767"><ele>117.0</ele><time>2026-05-01T11:20:29.1Z</time></trkpt><trkpt lat="45.5013817" lon="10.252415"><ele>117.0</ele><time>2026-05-01T11:20:30.099Z</time></trkpt><trkpt lat="45.5013217" lon="10.2526417"><ele>117.0</ele><time>2026-05-01T11:20:31.1Z</time></trkpt><trkpt lat="45.5012617" lon="10.252855"><ele>117.33333333333334</ele><time>2026-05-01T11:20:32.1Z</time></trkpt><trkpt lat="45.5012033" lon="10.253065"><ele>117.66666666666667</ele><time>2026-05-01T11:20:33.099Z</time></trkpt><trkpt lat="45.5011417" lon="10.253265"><ele>118.0</ele><time>2026-05-01T11:20:34.1Z</time></trkpt><trkpt lat="45.5010767" lon="10.2534633"><ele>117.66666666666667</ele><time>2026-05-01T11:20:35.099Z</time></trkpt><trkpt lat="45.5010083" lon="10.25367"><ele>117.33333333333334</ele><time>2026-05-01T11:20:36.1Z</time></trkpt><trkpt lat="45.5009433" lon="10.2538833"><ele>117.0</ele><time>2026-05-01T11:20:37.099Z</time></trkpt><trkpt lat="45.5008767" lon="10.254115"><ele>117.0</ele><time>2026-05-01T11:20:38.099Z</time></trkpt><trkpt lat="45.5008067" lon="10.25436"><ele>117.0</ele><time>2026-05-01T11:20:39.1Z</time></trkpt><trkpt lat="45.50074" lon="10.254605"><ele>117.0</ele><time>2026-05-01T11:20:40.099Z</time></trkpt><trkpt lat="45.5006717" lon="10.2548417"><ele>117.33333333333334</ele><time>2026-05-01T11:20:41.099Z</time></trkpt><trkpt lat="45.5006017" lon="10.2550733"><ele>117.66666666666667</ele><time>2026-05-01T11:20:42.1Z</time></trkpt><trkpt lat="45.5005333" lon="10.2553067"><ele>118.0</ele><time>2026-05-01T11:20:43.1Z</time></trkpt><trkpt lat="45.5004683" lon="10.25554"><ele>117.66666666666667</ele><time>2026-05-01T11:20:44.1Z</time></trkpt><trkpt lat="45.5004033" lon="10.2557767"><ele>117.33333333333334</ele><time>2026-05-01T11:20:45.1Z</time></trkpt><trkpt lat="45.50034" lon="10.256015"><ele>117.0</ele><time>2026-05-01T11:20:46.099Z</time></trkpt><trkpt lat="45.5002717" lon="10.256245"><ele>118.0</ele><time>2026-05-01T11:20:47.099Z</time></trkpt><trkpt lat="45.5002067" lon="10.2564717"><ele>119.0</ele><time>2026-05-01T11:20:48.099Z</time></trkpt><trkpt lat="45.5001417" lon="10.2567017"><ele>120.0</ele><time>2026-05-01T11:20:49.1Z</time></trkpt><trkpt lat="45.5000783" lon="10.25693"><ele>120.0</ele><time>2026-05-01T11:20:50.099Z</time></trkpt><trkpt lat="45.500015" lon="10.2571517"><ele>120.0</ele><time>2026-05-01T11:20:51.099Z</time></trkpt><trkpt lat="45.49995" lon="10.25738"><ele>120.0</ele><time>2026-05-01T11:20:52.099Z</time></trkpt><trkpt lat="45.499885" lon="10.2576133"><ele>120.66666666666666</ele><time>2026-05-01T11:20:53.099Z</time></trkpt><trkpt lat="45.499815" lon="10.2578483"><ele>121.33333333333333</ele><time>2026-05-01T11:20:54.1Z</time></trkpt><trkpt lat="45.4997517" lon="10.2580783"><ele>122.0</ele><time>2026-05-01T11:20:55.1Z</time></trkpt><trkpt lat="45.4996917" lon="10.258295"><ele>122.0</ele><time>2026-05-01T11:20:56.1Z</time></trkpt><trkpt lat="45.4996283" lon="10.2585167"><ele>122.0</ele><time>2026-05-01T11:20:57.1Z</time></trkpt><trkpt lat="45.4995667" lon="10.2587367"><ele>122.0</ele><time>2026-05-01T11:20:58.1Z</time></trkpt><trkpt lat="45.4995033" lon="10.258955"><ele>122.0</ele><time>2026-05-01T11:20:59.1Z</time></trkpt><trkpt lat="45.4994467" lon="10.2591717"><ele>122.0</ele><time>2026-05-01T11:21:00.1Z</time></trkpt><trkpt lat="45.499325" lon="10.25962"><ele>121.33333333333333</ele><time>2026-05-01T11:21:02.099Z</time></trkpt><trkpt lat="45.4992667" lon="10.2598333"><ele>120.66666666666666</ele><time>2026-05-01T11:21:03.099Z</time></trkpt><trkpt lat="45.4992083" lon="10.2600467"><ele>120.0</ele><time>2026-05-01T11:21:04.099Z</time></trkpt><trkpt lat="45.4991467" lon="10.2602617"><ele>120.0</ele><time>2026-05-01T11:21:05.099Z</time></trkpt><trkpt lat="45.4990867" lon="10.260465"><ele>120.0</ele><time>2026-05-01T11:21:06.099Z</time></trkpt><trkpt lat="45.4990367" lon="10.2606633"><ele>120.0</ele><time>2026-05-01T11:21:07.099Z</time></trkpt><trkpt lat="45.4989767" lon="10.2608533"><ele>120.0</ele><time>2026-05-01T11:21:08.1Z</time></trkpt><trkpt lat="45.4989233" lon="10.2610417"><ele>119.75</ele><time>2026-05-01T11:21:09.1Z</time></trkpt><trkpt lat="45.498875" lon="10.261225"><ele>119.5</ele><time>2026-05-01T11:21:10.099Z</time></trkpt><trkpt lat="45.4988217" lon="10.2614067"><ele>119.25</ele><time>2026-05-01T11:21:11.099Z</time></trkpt><trkpt lat="45.4987683" lon="10.2615917"><ele>119.0</ele><time>2026-05-01T11:21:12.1Z</time></trkpt><trkpt lat="45.498715" lon="10.2617783"><ele>118.66666666666666</ele><time>2026-05-01T11:21:13.1Z</time></trkpt><trkpt lat="45.4986583" lon="10.2619767"><ele>118.33333333333334</ele><time>2026-05-01T11:21:14.099Z</time></trkpt><trkpt lat="45.4986033" lon="10.2621783"><ele>118.0</ele><time>2026-05-01T11:21:15.099Z</time></trkpt><trkpt lat="45.4985433" lon="10.2623867"><ele>118.0</ele><time>2026-05-01T11:21:16.099Z</time></trkpt><trkpt lat="45.4984833" lon="10.2626033"><ele>118.0</ele><time>2026-05-01T11:21:17.1Z</time></trkpt><trkpt lat="45.4983633" lon="10.2630383"><ele>118.5</ele><time>2026-05-01T11:21:19.1Z</time></trkpt><trkpt lat="45.49831" lon="10.2632383"><ele>119.0</ele><time>2026-05-01T11:21:20.099Z</time></trkpt><trkpt lat="45.498255" lon="10.2634317"><ele>119.5</ele><time>2026-05-01T11:21:21.099Z</time></trkpt><trkpt lat="45.4982" lon="10.2636283"><ele>120.0</ele><time>2026-05-01T11:21:22.099Z</time></trkpt><trkpt lat="45.498145" lon="10.2638267"><ele>120.0</ele><time>2026-05-01T11:21:23.1Z</time></trkpt><trkpt lat="45.4980867" lon="10.2640233"><ele>120.0</ele><time>2026-05-01T11:21:24.098Z</time></trkpt><trkpt lat="45.4980317" lon="10.2642267"><ele>120.0</ele><time>2026-05-01T11:21:25.098Z</time></trkpt><trkpt lat="45.4979767" lon="10.264435"><ele>120.0</ele><time>2026-05-01T11:21:26.098Z</time></trkpt><trkpt lat="45.4979217" lon="10.26463"><ele>120.0</ele><time>2026-05-01T11:21:27.099Z</time></trkpt><trkpt lat="45.497865" lon="10.2648333"><ele>120.0</ele><time>2026-05-01T11:21:28.098Z</time></trkpt><trkpt lat="45.4978" lon="10.2650367"><ele>120.0</ele><time>2026-05-01T11:21:29.098Z</time></trkpt><trkpt lat="45.4977417" lon="10.2652417"><ele>120.0</ele><time>2026-05-01T11:21:30.098Z</time></trkpt><trkpt lat="45.4976833" lon="10.26545"><ele>120.0</ele><time>2026-05-01T11:21:31.099Z</time></trkpt><trkpt lat="45.4976267" lon="10.265655"><ele>120.0</ele><time>2026-05-01T11:21:32.098Z</time></trkpt><trkpt lat="45.4975633" lon="10.2658633"><ele>120.0</ele><time>2026-05-01T11:21:33.099Z</time></trkpt><trkpt lat="45.4975033" lon="10.2660783"><ele>120.0</ele><time>2026-05-01T11:21:34.098Z</time></trkpt><trkpt lat="45.4974467" lon="10.26629"><ele>120.5</ele><time>2026-05-01T11:21:35.099Z</time></trkpt><trkpt lat="45.49739" lon="10.266485"><ele>121.0</ele><time>2026-05-01T11:21:36.098Z</time></trkpt><trkpt lat="45.497335" lon="10.2666767"><ele>121.5</ele><time>2026-05-01T11:21:37.098Z</time></trkpt><trkpt lat="45.497285" lon="10.26686"><ele>122.0</ele><time>2026-05-01T11:21:38.098Z</time></trkpt><trkpt lat="45.4972367" lon="10.267035"><ele>122.0</ele><time>2026-05-01T11:21:39.098Z</time></trkpt><trkpt lat="45.4971883" lon="10.26722"><ele>122.0</ele><time>2026-05-01T11:21:40.098Z</time></trkpt><trkpt lat="45.497135" lon="10.2674067"><ele>122.0</ele><time>2026-05-01T11:21:41.099Z</time></trkpt><trkpt lat="45.4970783" lon="10.2675933"><ele>122.0</ele><time>2026-05-01T11:21:42.099Z</time></trkpt><trkpt lat="45.497025" lon="10.267775"><ele>123.0</ele><time>2026-05-01T11:21:43.099Z</time></trkpt><trkpt lat="45.4969883" lon="10.2679567"><ele>124.0</ele><time>2026-05-01T11:21:44.098Z</time></trkpt><trkpt lat="45.4969483" lon="10.2681233"><ele>125.0</ele><time>2026-05-01T11:21:45.099Z</time></trkpt><trkpt lat="45.496905" lon="10.2683083"><ele>126.0</ele><time>2026-05-01T11:21:46.098Z</time></trkpt><trkpt lat="45.4968633" lon="10.2685017"><ele>126.0</ele><time>2026-05-01T11:21:47.098Z</time></trkpt><trkpt lat="45.496795" lon="10.26868"><ele>126.0</ele><time>2026-05-01T11:21:48.098Z</time></trkpt><trkpt lat="45.4967333" lon="10.268865"><ele>126.0</ele><time>2026-05-01T11:21:49.098Z</time></trkpt><trkpt lat="45.4966833" lon="10.26908"><ele>126.0</ele><time>2026-05-01T11:21:50.099Z</time></trkpt><trkpt lat="45.4966367" lon="10.269295"><ele>125.66666666666666</ele><time>2026-05-01T11:21:51.099Z</time></trkpt><trkpt lat="45.4965817" lon="10.2695117"><ele>125.33333333333333</ele><time>2026-05-01T11:21:52.099Z</time></trkpt><trkpt lat="45.4965267" lon="10.269725"><ele>125.0</ele><time>2026-05-01T11:21:53.099Z</time></trkpt><trkpt lat="45.4964683" lon="10.2699417"><ele>125.0</ele><time>2026-05-01T11:21:54.098Z</time></trkpt><trkpt lat="45.496405" lon="10.2701583"><ele>125.0</ele><time>2026-05-01T11:21:55.099Z</time></trkpt><trkpt lat="45.49634" lon="10.2703867"><ele>125.0</ele><time>2026-05-01T11:21:56.099Z</time></trkpt><trkpt lat="45.4962717" lon="10.2706167"><ele>124.66666666666666</ele><time>2026-05-01T11:21:57.099Z</time></trkpt><trkpt lat="45.4961933" lon="10.270855"><ele>124.33333333333334</ele><time>2026-05-01T11:21:58.098Z</time></trkpt><trkpt lat="45.4961217" lon="10.2710967"><ele>124.0</ele><time>2026-05-01T11:21:59.098Z</time></trkpt><trkpt lat="45.49605" lon="10.271345"><ele>124.0</ele><time>2026-05-01T11:22:00.099Z</time></trkpt><trkpt lat="45.495975" lon="10.2715983"><ele>124.0</ele><time>2026-05-01T11:22:01.098Z</time></trkpt><trkpt lat="45.4959033" lon="10.2718583"><ele>124.0</ele><time>2026-05-01T11:22:02.098Z</time></trkpt><trkpt lat="45.495835" lon="10.2721083"><ele>124.33333333333334</ele><time>2026-05-01T11:22:03.098Z</time></trkpt><trkpt lat="45.49577" lon="10.2723383"><ele>124.66666666666666</ele><time>2026-05-01T11:22:04.098Z</time></trkpt><trkpt lat="45.4957117" lon="10.2725717"><ele>125.0</ele><time>2026-05-01T11:22:05.098Z</time></trkpt><trkpt lat="45.4956483" lon="10.27279"><ele>125.0</ele><time>2026-05-01T11:22:06.098Z</time></trkpt><trkpt lat="45.49558" lon="10.2729983"><ele>125.0</ele><time>2026-05-01T11:22:07.098Z</time></trkpt><trkpt lat="45.495525" lon="10.2731933"><ele>125.0</ele><time>2026-05-01T11:22:08.098Z</time></trkpt><trkpt lat="45.495465" lon="10.2733967"><ele>125.5</ele><time>2026-05-01T11:22:09.099Z</time></trkpt><trkpt lat="45.49541" lon="10.2735883"><ele>126.0</ele><time>2026-05-01T11:22:10.098Z</time></trkpt><trkpt lat="45.4953533" lon="10.2737583"><ele>126.5</ele><time>2026-05-01T11:22:11.099Z</time></trkpt><trkpt lat="45.4953067" lon="10.273915"><ele>127.0</ele><time>2026-05-01T11:22:12.099Z</time></trkpt><trkpt lat="45.4952617" lon="10.2740633"><ele>127.00000000000001</ele><time>2026-05-01T11:22:13.098Z</time></trkpt><trkpt lat="45.4952233" lon="10.2741967"><ele>127.0</ele><time>2026-05-01T11:22:14.098Z</time></trkpt><trkpt lat="45.4951867" lon="10.274315"><ele>127.0</ele><time>2026-05-01T11:22:15.098Z</time></trkpt><trkpt lat="45.495155" lon="10.2744267"><ele>127.0</ele><time>2026-05-01T11:22:16.099Z</time></trkpt><trkpt lat="45.495125" lon="10.2745333"><ele>127.00000000000001</ele><time>2026-05-01T11:22:17.099Z</time></trkpt><trkpt lat="45.4950967" lon="10.2746367"><ele>127.0</ele><time>2026-05-01T11:22:18.098Z</time></trkpt><trkpt lat="45.4950683" lon="10.2747367"><ele>127.16666666666667</ele><time>2026-05-01T11:22:19.099Z</time></trkpt><trkpt lat="45.49504" lon="10.2748333"><ele>127.33333333333334</ele><time>2026-05-01T11:22:20.099Z</time></trkpt><trkpt lat="45.4950117" lon="10.27494"><ele>127.5</ele><time>2026-05-01T11:22:21.099Z</time></trkpt><trkpt lat="45.4949783" lon="10.2750617"><ele>127.66666666666666</ele><time>2026-05-01T11:22:22.099Z</time></trkpt><trkpt lat="45.4949433" lon="10.2751883"><ele>127.83333333333333</ele><time>2026-05-01T11:22:23.098Z</time></trkpt><trkpt lat="45.4949033" lon="10.275315"><ele>128.0</ele><time>2026-05-01T11:22:24.098Z</time></trkpt><trkpt lat="45.494865" lon="10.275435"><ele>128.0</ele><time>2026-05-01T11:22:25.099Z</time></trkpt><trkpt lat="45.49483" lon="10.2755517"><ele>128.0</ele><time>2026-05-01T11:22:26.099Z</time></trkpt><trkpt lat="45.4947867" lon="10.275665"><ele>128.0</ele><time>2026-05-01T11:22:27.099Z</time></trkpt><trkpt lat="45.4947467" lon="10.275795"><ele>128.0</ele><time>2026-05-01T11:22:28.099Z</time></trkpt><trkpt lat="45.4947067" lon="10.2759233"><ele>128.0</ele><time>2026-05-01T11:22:29.098Z</time></trkpt><trkpt lat="45.4946667" lon="10.27605"><ele>128.0</ele><time>2026-05-01T11:22:30.098Z</time></trkpt><trkpt lat="45.4946183" lon="10.2761917"><ele>128.0</ele><time>2026-05-01T11:22:31.099Z</time></trkpt><trkpt lat="45.4945733" lon="10.27633"><ele>128.0</ele><time>2026-05-01T11:22:32.098Z</time></trkpt><trkpt lat="45.4945267" lon="10.27647"><ele>128.0</ele><time>2026-05-01T11:22:33.099Z</time></trkpt><trkpt lat="45.4944783" lon="10.2766167"><ele>128.0</ele><time>2026-05-01T11:22:34.098Z</time></trkpt><trkpt lat="45.4944267" lon="10.2767667"><ele>127.75</ele><time>2026-05-01T11:22:35.098Z</time></trkpt><trkpt lat="45.4943767" lon="10.27692"><ele>127.5</ele><time>2026-05-01T11:22:36.098Z</time></trkpt><trkpt lat="45.4943283" lon="10.2770833"><ele>127.25</ele><time>2026-05-01T11:22:37.098Z</time></trkpt><trkpt lat="45.494275" lon="10.2772433"><ele>127.0</ele><time>2026-05-01T11:22:38.099Z</time></trkpt><trkpt lat="45.494225" lon="10.2774067"><ele>127.25</ele><time>2026-05-01T11:22:39.099Z</time></trkpt><trkpt lat="45.4941717" lon="10.2775717"><ele>127.5</ele><time>2026-05-01T11:22:40.099Z</time></trkpt><trkpt lat="45.4941133" lon="10.2777517"><ele>127.75</ele><time>2026-05-01T11:22:41.099Z</time></trkpt><trkpt lat="45.4940533" lon="10.277945"><ele>128.0</ele><time>2026-05-01T11:22:42.098Z</time></trkpt><trkpt lat="45.4939233" lon="10.278355"><ele>128.0</ele><time>2026-05-01T11:22:44.098Z</time></trkpt><trkpt lat="45.493865" lon="10.2785617"><ele>128.0</ele><time>2026-05-01T11:22:45.099Z</time></trkpt><trkpt lat="45.4938" lon="10.27876"><ele>128.0</ele><time>2026-05-01T11:22:46.099Z</time></trkpt><trkpt lat="45.493745" lon="10.2789467"><ele>128.0</ele><time>2026-05-01T11:22:47.099Z</time></trkpt><trkpt lat="45.4936933" lon="10.2791167"><ele>128.0</ele><time>2026-05-01T11:22:48.098Z</time></trkpt><trkpt lat="45.4936467" lon="10.2792767"><ele>128.0</ele><time>2026-05-01T11:22:49.098Z</time></trkpt><trkpt lat="45.493595" lon="10.2794233"><ele>128.0</ele><time>2026-05-01T11:22:50.099Z</time></trkpt><trkpt lat="45.4935533" lon="10.2795467"><ele>127.99999999999999</ele><time>2026-05-01T11:22:51.099Z</time></trkpt><trkpt lat="45.493525" lon="10.2796417"><ele>128.0</ele><time>2026-05-01T11:22:52.099Z</time></trkpt><trkpt lat="45.4934783" lon="10.2797733"><ele>128.0</ele><time>2026-05-01T11:22:54.099Z</time></trkpt><trkpt lat="45.4934367" lon="10.2798933"><ele>128.0</ele><time>2026-05-01T11:22:56.099Z</time></trkpt><trkpt lat="45.4934033" lon="10.28001"><ele>127.99999999999999</ele><time>2026-05-01T11:22:58.098Z</time></trkpt><trkpt lat="45.4933683" lon="10.280115"><ele>128.0</ele><time>2026-05-01T11:23:00.099Z</time></trkpt><trkpt lat="45.493335" lon="10.28022"><ele>128.16666666666666</ele><time>2026-05-01T11:23:02.098Z</time></trkpt><trkpt lat="45.4932883" lon="10.28034"><ele>128.33333333333331</ele><time>2026-05-01T11:23:04.098Z</time></trkpt><trkpt lat="45.4932417" lon="10.28048"><ele>128.5</ele><time>2026-05-01T11:23:06.098Z</time></trkpt><trkpt lat="45.4932133" lon="10.2805733"><ele>128.66666666666666</ele><time>2026-05-01T11:23:07.098Z</time></trkpt><trkpt lat="45.4931817" lon="10.28068"><ele>128.83333333333334</ele><time>2026-05-01T11:23:08.098Z</time></trkpt><trkpt lat="45.493145" lon="10.2807983"><ele>129.0</ele><time>2026-05-01T11:23:09.099Z</time></trkpt><trkpt lat="45.4930983" lon="10.2809283"><ele>129.0</ele><time>2026-05-01T11:23:10.098Z</time></trkpt><trkpt lat="45.4930567" lon="10.281065"><ele>129.0</ele><time>2026-05-01T11:23:11.098Z</time></trkpt><trkpt lat="45.4930033" lon="10.28121"><ele>129.0</ele><time>2026-05-01T11:23:12.098Z</time></trkpt><trkpt lat="45.4929517" lon="10.2813517"><ele>129.0</ele><time>2026-05-01T11:23:13.098Z</time></trkpt><trkpt lat="45.4929033" lon="10.2814983"><ele>129.0</ele><time>2026-05-01T11:23:14.098Z</time></trkpt><trkpt lat="45.4928617" lon="10.2816567"><ele>129.25</ele><time>2026-05-01T11:23:15.098Z</time></trkpt><trkpt lat="45.4928133" lon="10.2818233"><ele>129.5</ele><time>2026-05-01T11:23:16.099Z</time></trkpt><trkpt lat="45.49276" lon="10.282"><ele>129.75</ele><time>2026-05-01T11:23:17.098Z</time></trkpt><trkpt lat="45.492705" lon="10.2821717"><ele>130.0</ele><time>2026-05-01T11:23:18.098Z</time></trkpt><trkpt lat="45.4926483" lon="10.2823417"><ele>129.25</ele><time>2026-05-01T11:23:19.098Z</time></trkpt><trkpt lat="45.4925883" lon="10.2825133"><ele>128.5</ele><time>2026-05-01T11:23:20.099Z</time></trkpt><trkpt lat="45.492525" lon="10.2826783"><ele>127.75</ele><time>2026-05-01T11:23:21.098Z</time></trkpt><trkpt lat="45.4924667" lon="10.2828317"><ele>127.0</ele><time>2026-05-01T11:23:22.099Z</time></trkpt><trkpt lat="45.49241" lon="10.2829833"><ele>127.0</ele><time>2026-05-01T11:23:23.099Z</time></trkpt><trkpt lat="45.492345" lon="10.2831433"><ele>127.0</ele><time>2026-05-01T11:23:24.098Z</time></trkpt><trkpt lat="45.4922783" lon="10.28332"><ele>127.0</ele><time>2026-05-01T11:23:25.098Z</time></trkpt><trkpt lat="45.49221" lon="10.283515"><ele>127.0</ele><time>2026-05-01T11:23:26.098Z</time></trkpt><trkpt lat="45.4921467" lon="10.28372"><ele>127.33333333333334</ele><time>2026-05-01T11:23:27.098Z</time></trkpt><trkpt lat="45.4920767" lon="10.28393"><ele>127.66666666666666</ele><time>2026-05-01T11:23:28.099Z</time></trkpt><trkpt lat="45.4920067" lon="10.28413"><ele>128.0</ele><time>2026-05-01T11:23:29.099Z</time></trkpt><trkpt lat="45.4919417" lon="10.2843233"><ele>128.0</ele><time>2026-05-01T11:23:30.098Z</time></trkpt><trkpt lat="45.49188" lon="10.28451"><ele>128.0</ele><time>2026-05-01T11:23:31.099Z</time></trkpt><trkpt lat="45.4918167" lon="10.2846917"><ele>128.0</ele><time>2026-05-01T11:23:32.098Z</time></trkpt><trkpt lat="45.49176" lon="10.28487"><ele>128.0</ele><time>2026-05-01T11:23:33.098Z</time></trkpt><trkpt lat="45.491705" lon="10.2850533"><ele>128.0</ele><time>2026-05-01T11:23:34.098Z</time></trkpt><trkpt lat="45.49165" lon="10.28524"><ele>128.0</ele><time>2026-05-01T11:23:35.099Z</time></trkpt><trkpt lat="45.4915917" lon="10.2854283"><ele>128.0</ele><time>2026-05-01T11:23:36.099Z</time></trkpt><trkpt lat="45.4915317" lon="10.28562"><ele>128.0</ele><time>2026-05-01T11:23:37.099Z</time></trkpt><trkpt lat="45.4914683" lon="10.2858183"><ele>127.66666666666666</ele><time>2026-05-01T11:23:38.099Z</time></trkpt><trkpt lat="45.491405" lon="10.2860167"><ele>127.33333333333334</ele><time>2026-05-01T11:23:39.099Z</time></trkpt><trkpt lat="45.4913367" lon="10.2862167"><ele>127.0</ele><time>2026-05-01T11:23:40.098Z</time></trkpt><trkpt lat="45.4912683" lon="10.28642"><ele>127.33333333333334</ele><time>2026-05-01T11:23:41.099Z</time></trkpt><trkpt lat="45.4911967" lon="10.2866317"><ele>127.66666666666666</ele><time>2026-05-01T11:23:42.098Z</time></trkpt><trkpt lat="45.4911233" lon="10.28685"><ele>128.0</ele><time>2026-05-01T11:23:43.099Z</time></trkpt><trkpt lat="45.4910533" lon="10.287075"><ele>128.33333333333331</ele><time>2026-05-01T11:23:44.098Z</time></trkpt><trkpt lat="45.4909783" lon="10.287305"><ele>128.66666666666666</ele><time>2026-05-01T11:23:45.098Z</time></trkpt><trkpt lat="45.490905" lon="10.28753"><ele>129.0</ele><time>2026-05-01T11:23:46.099Z</time></trkpt><trkpt lat="45.4908383" lon="10.2877433"><ele>129.0</ele><time>2026-05-01T11:23:47.099Z</time></trkpt><trkpt lat="45.4907717" lon="10.287945"><ele>129.0</ele><time>2026-05-01T11:23:48.099Z</time></trkpt><trkpt lat="45.4907083" lon="10.2881417"><ele>129.0</ele><time>2026-05-01T11:23:49.099Z</time></trkpt><trkpt lat="45.490645" lon="10.2883317"><ele>128.75</ele><time>2026-05-01T11:23:50.098Z</time></trkpt><trkpt lat="45.4905867" lon="10.288515"><ele>128.5</ele><time>2026-05-01T11:23:51.098Z</time></trkpt><trkpt lat="45.4905283" lon="10.2886883"><ele>128.25</ele><time>2026-05-01T11:23:52.098Z</time></trkpt><trkpt lat="45.4904717" lon="10.2888533"><ele>128.0</ele><time>2026-05-01T11:23:53.099Z</time></trkpt><trkpt lat="45.4904167" lon="10.2890167"><ele>129.0</ele><time>2026-05-01T11:23:54.099Z</time></trkpt><trkpt lat="45.49036" lon="10.2891817"><ele>130.0</ele><time>2026-05-01T11:23:55.099Z</time></trkpt><trkpt lat="45.4903033" lon="10.289355"><ele>131.0</ele><time>2026-05-01T11:23:56.099Z</time></trkpt><trkpt lat="45.4902483" lon="10.2895283"><ele>132.0</ele><time>2026-05-01T11:23:57.098Z</time></trkpt><trkpt lat="45.4901917" lon="10.2897067"><ele>131.5</ele><time>2026-05-01T11:23:58.099Z</time></trkpt><trkpt lat="45.4901333" lon="10.2898883"><ele>131.0</ele><time>2026-05-01T11:23:59.098Z</time></trkpt><trkpt lat="45.4900767" lon="10.2900733"><ele>130.5</ele><time>2026-05-01T11:24:00.098Z</time></trkpt><trkpt lat="45.4900183" lon="10.2902583"><ele>130.0</ele><time>2026-05-01T11:24:01.098Z</time></trkpt><trkpt lat="45.4899617" lon="10.2904483"><ele>129.66666666666669</ele><time>2026-05-01T11:24:02.098Z</time></trkpt><trkpt lat="45.4899067" lon="10.290645"><ele>129.33333333333334</ele><time>2026-05-01T11:24:03.099Z</time></trkpt><trkpt lat="45.48985" lon="10.29085"><ele>129.0</ele><time>2026-05-01T11:24:04.098Z</time></trkpt><trkpt lat="45.489795" lon="10.291065"><ele>129.0</ele><time>2026-05-01T11:24:05.098Z</time></trkpt><trkpt lat="45.48974" lon="10.291285"><ele>129.0</ele><time>2026-05-01T11:24:06.098Z</time></trkpt><trkpt lat="45.48968" lon="10.2915"><ele>129.0</ele><time>2026-05-01T11:24:07.098Z</time></trkpt><trkpt lat="45.4896267" lon="10.2917267"><ele>129.0</ele><time>2026-05-01T11:24:08.099Z</time></trkpt><trkpt lat="45.4895683" lon="10.2919617"><ele>129.0</ele><time>2026-05-01T11:24:09.098Z</time></trkpt><trkpt lat="45.4895067" lon="10.2921983"><ele>129.0</ele><time>2026-05-01T11:24:10.099Z</time></trkpt><trkpt lat="45.4894433" lon="10.292435"><ele>129.0</ele><time>2026-05-01T11:24:11.098Z</time></trkpt><trkpt lat="45.4893817" lon="10.2926767"><ele>129.0</ele><time>2026-05-01T11:24:12.099Z</time></trkpt><trkpt lat="45.4893167" lon="10.2929183"><ele>129.0</ele><time>2026-05-01T11:24:13.098Z</time></trkpt><trkpt lat="45.489255" lon="10.293165"><ele>129.66666666666666</ele><time>2026-05-01T11:24:14.099Z</time></trkpt><trkpt lat="45.4891967" lon="10.2934217"><ele>130.33333333333331</ele><time>2026-05-01T11:24:15.098Z</time></trkpt><trkpt lat="45.4891367" lon="10.293675"><ele>131.0</ele><time>2026-05-01T11:24:16.099Z</time></trkpt><trkpt lat="45.4890767" lon="10.2939117"><ele>130.66666666666666</ele><time>2026-05-01T11:24:17.098Z</time></trkpt><trkpt lat="45.48902" lon="10.2941383"><ele>130.33333333333334</ele><time>2026-05-01T11:24:18.099Z</time></trkpt><trkpt lat="45.4889617" lon="10.294365"><ele>130.0</ele><time>2026-05-01T11:24:19.098Z</time></trkpt><trkpt lat="45.4889067" lon="10.2945967"><ele>130.0</ele><time>2026-05-01T11:24:20.099Z</time></trkpt><trkpt lat="45.4888517" lon="10.2948367"><ele>130.0</ele><time>2026-05-01T11:24:21.098Z</time></trkpt><trkpt lat="45.48879" lon="10.2950767"><ele>130.0</ele><time>2026-05-01T11:24:22.098Z</time></trkpt><trkpt lat="45.4887283" lon="10.2953183"><ele>130.0</ele><time>2026-05-01T11:24:23.098Z</time></trkpt><trkpt lat="45.488665" lon="10.2955583"><ele>130.0</ele><time>2026-05-01T11:24:24.099Z</time></trkpt><trkpt lat="45.4886017" lon="10.295805"><ele>130.0</ele><time>2026-05-01T11:24:25.098Z</time></trkpt><trkpt lat="45.4885383" lon="10.2960517"><ele>130.0</ele><time>2026-05-01T11:24:26.098Z</time></trkpt><trkpt lat="45.4884833" lon="10.2962883"><ele>130.0</ele><time>2026-05-01T11:24:27.099Z</time></trkpt><trkpt lat="45.4884233" lon="10.2965183"><ele>130.0</ele><time>2026-05-01T11:24:28.099Z</time></trkpt><trkpt lat="45.4883683" lon="10.29675"><ele>130.33333333333334</ele><time>2026-05-01T11:24:29.098Z</time></trkpt><trkpt lat="45.4883083" lon="10.2969883"><ele>130.66666666666666</ele><time>2026-05-01T11:24:30.098Z</time></trkpt><trkpt lat="45.4882467" lon="10.2972333"><ele>131.0</ele><time>2026-05-01T11:24:31.098Z</time></trkpt><trkpt lat="45.48819" lon="10.2974683"><ele>131.0</ele><time>2026-05-01T11:24:32.098Z</time></trkpt><trkpt lat="45.4881333" lon="10.297695"><ele>131.0</ele><time>2026-05-01T11:24:33.098Z</time></trkpt><trkpt lat="45.4880733" lon="10.2979233"><ele>131.0</ele><time>2026-05-01T11:24:34.098Z</time></trkpt><trkpt lat="45.4880183" lon="10.2981467"><ele>131.0</ele><time>2026-05-01T11:24:35.099Z</time></trkpt><trkpt lat="45.4879633" lon="10.29837"><ele>131.0</ele><time>2026-05-01T11:24:36.099Z</time></trkpt><trkpt lat="45.487915" lon="10.29859"><ele>131.0</ele><time>2026-05-01T11:24:37.099Z</time></trkpt><trkpt lat="45.4878617" lon="10.2988067"><ele>131.66666666666666</ele><time>2026-05-01T11:24:38.099Z</time></trkpt><trkpt lat="45.487805" lon="10.299025"><ele>132.33333333333334</ele><time>2026-05-01T11:24:39.099Z</time></trkpt><trkpt lat="45.48775" lon="10.2992417"><ele>133.0</ele><time>2026-05-01T11:24:40.099Z</time></trkpt><trkpt lat="45.487695" lon="10.299455"><ele>133.0</ele><time>2026-05-01T11:24:41.098Z</time></trkpt><trkpt lat="45.487645" lon="10.2996633"><ele>133.0</ele><time>2026-05-01T11:24:42.099Z</time></trkpt><trkpt lat="45.4875917" lon="10.2998667"><ele>133.0</ele><time>2026-05-01T11:24:43.098Z</time></trkpt><trkpt lat="45.487545" lon="10.30007"><ele>132.33333333333334</ele><time>2026-05-01T11:24:44.098Z</time></trkpt><trkpt lat="45.4874917" lon="10.3002733"><ele>131.66666666666666</ele><time>2026-05-01T11:24:45.099Z</time></trkpt><trkpt lat="45.48744" lon="10.300475"><ele>131.0</ele><time>2026-05-01T11:24:46.098Z</time></trkpt><trkpt lat="45.4873917" lon="10.30068"><ele>131.0</ele><time>2026-05-01T11:24:47.099Z</time></trkpt><trkpt lat="45.4873383" lon="10.300885"><ele>131.0</ele><time>2026-05-01T11:24:48.099Z</time></trkpt><trkpt lat="45.4872817" lon="10.3010967"><ele>131.0</ele><time>2026-05-01T11:24:49.099Z</time></trkpt><trkpt lat="45.48723" lon="10.3013117"><ele>131.0</ele><time>2026-05-01T11:24:50.098Z</time></trkpt><trkpt lat="45.4871733" lon="10.3015317"><ele>131.0</ele><time>2026-05-01T11:24:51.098Z</time></trkpt><trkpt lat="45.48712" lon="10.3017517"><ele>131.0</ele><time>2026-05-01T11:24:52.099Z</time></trkpt><trkpt lat="45.4870683" lon="10.3019667"><ele>131.0</ele><time>2026-05-01T11:24:53.098Z</time></trkpt><trkpt lat="45.487015" lon="10.30217"><ele>131.0</ele><time>2026-05-01T11:24:54.099Z</time></trkpt><trkpt lat="45.4869633" lon="10.3023733"><ele>131.0</ele><time>2026-05-01T11:24:55.098Z</time></trkpt><trkpt lat="45.4869133" lon="10.302585"><ele>131.0</ele><time>2026-05-01T11:24:56.099Z</time></trkpt><trkpt lat="45.4868067" lon="10.3030033"><ele>131.0</ele><time>2026-05-01T11:24:58.099Z</time></trkpt><trkpt lat="45.4867533" lon="10.3032183"><ele>131.5</ele><time>2026-05-01T11:24:59.099Z</time></trkpt><trkpt lat="45.4867017" lon="10.3034383"><ele>132.0</ele><time>2026-05-01T11:25:00.099Z</time></trkpt><trkpt lat="45.4865833" lon="10.30389"><ele>132.33333333333334</ele><time>2026-05-01T11:25:02.098Z</time></trkpt><trkpt lat="45.4865283" lon="10.304115"><ele>132.66666666666669</ele><time>2026-05-01T11:25:03.098Z</time></trkpt><trkpt lat="45.4864683" lon="10.3043317"><ele>133.0</ele><time>2026-05-01T11:25:04.099Z</time></trkpt><trkpt lat="45.4864183" lon="10.304545"><ele>133.0</ele><time>2026-05-01T11:25:05.098Z</time></trkpt><trkpt lat="45.4863667" lon="10.3047533"><ele>133.0</ele><time>2026-05-01T11:25:06.099Z</time></trkpt><trkpt lat="45.4863183" lon="10.3049583"><ele>133.0</ele><time>2026-05-01T11:25:07.099Z</time></trkpt><trkpt lat="45.4862733" lon="10.3051467"><ele>133.0</ele><time>2026-05-01T11:25:08.098Z</time></trkpt><trkpt lat="45.4862367" lon="10.3053233"><ele>133.0</ele><time>2026-05-01T11:25:09.099Z</time></trkpt><trkpt lat="45.4862017" lon="10.3054883"><ele>133.0</ele><time>2026-05-01T11:25:10.098Z</time></trkpt><trkpt lat="45.4861683" lon="10.3056483"><ele>133.0</ele><time>2026-05-01T11:25:11.099Z</time></trkpt><trkpt lat="45.4861367" lon="10.3058017"><ele>133.0</ele><time>2026-05-01T11:25:12.099Z</time></trkpt><trkpt lat="45.4861017" lon="10.3059533"><ele>133.0</ele><time>2026-05-01T11:25:13.098Z</time></trkpt><trkpt lat="45.4860583" lon="10.306135"><ele>133.0</ele><time>2026-05-01T11:25:14.099Z</time></trkpt><trkpt lat="45.486005" lon="10.30634"><ele>133.0</ele><time>2026-05-01T11:25:15.098Z</time></trkpt><trkpt lat="45.485955" lon="10.30656"><ele>132.5</ele><time>2026-05-01T11:25:16.099Z</time></trkpt><trkpt lat="45.48584" lon="10.3069633"><ele>132.0</ele><time>2026-05-01T11:25:18.099Z</time></trkpt><trkpt lat="45.4857817" lon="10.3071583"><ele>132.33333333333334</ele><time>2026-05-01T11:25:19.098Z</time></trkpt><trkpt lat="45.4857233" lon="10.30736"><ele>132.66666666666669</ele><time>2026-05-01T11:25:20.099Z</time></trkpt><trkpt lat="45.48566" lon="10.307585"><ele>133.0</ele><time>2026-05-01T11:25:21.098Z</time></trkpt><trkpt lat="45.4855283" lon="10.3080783"><ele>133.33333333333334</ele><time>2026-05-01T11:25:23.098Z</time></trkpt><trkpt lat="45.4854683" lon="10.3083317"><ele>133.66666666666666</ele><time>2026-05-01T11:25:24.099Z</time></trkpt><trkpt lat="45.4854133" lon="10.3085717"><ele>134.0</ele><time>2026-05-01T11:25:25.099Z</time></trkpt><trkpt lat="45.4853583" lon="10.30881"><ele>134.33333333333331</ele><time>2026-05-01T11:25:26.098Z</time></trkpt><trkpt lat="45.4853033" lon="10.309055"><ele>134.66666666666666</ele><time>2026-05-01T11:25:27.098Z</time></trkpt><trkpt lat="45.485245" lon="10.3092933"><ele>135.0</ele><time>2026-05-01T11:25:28.099Z</time></trkpt><trkpt lat="45.4851917" lon="10.3095133"><ele>135.33333333333334</ele><time>2026-05-01T11:25:29.098Z</time></trkpt><trkpt lat="45.4850867" lon="10.30992"><ele>135.66666666666669</ele><time>2026-05-01T11:25:31.099Z</time></trkpt><trkpt lat="45.4850483" lon="10.3101083"><ele>136.0</ele><time>2026-05-01T11:25:32.099Z</time></trkpt><trkpt lat="45.485015" lon="10.3102733"><ele>136.0</ele><time>2026-05-01T11:25:33.098Z</time></trkpt><trkpt lat="45.48498" lon="10.31042"><ele>136.0</ele><time>2026-05-01T11:25:34.098Z</time></trkpt><trkpt lat="45.4849317" lon="10.31059"><ele>136.0</ele><time>2026-05-01T11:25:35.098Z</time></trkpt><trkpt lat="45.4848817" lon="10.3107833"><ele>136.0</ele><time>2026-05-01T11:25:36.098Z</time></trkpt><trkpt lat="45.484825" lon="10.31099"><ele>136.0</ele><time>2026-05-01T11:25:37.098Z</time></trkpt><trkpt lat="45.4847633" lon="10.3111967"><ele>136.0</ele><time>2026-05-01T11:25:38.098Z</time></trkpt><trkpt lat="45.484705" lon="10.3113967"><ele>136.0</ele><time>2026-05-01T11:25:39.099Z</time></trkpt><trkpt lat="45.4846533" lon="10.311595"><ele>136.0</ele><time>2026-05-01T11:25:40.098Z</time></trkpt><trkpt lat="45.4846017" lon="10.3118033"><ele>136.0</ele><time>2026-05-01T11:25:41.098Z</time></trkpt><trkpt lat="45.4845533" lon="10.312015"><ele>136.0</ele><time>2026-05-01T11:25:42.099Z</time></trkpt><trkpt lat="45.4845083" lon="10.3122167"><ele>135.5</ele><time>2026-05-01T11:25:43.098Z</time></trkpt><trkpt lat="45.48446" lon="10.3124067"><ele>135.0</ele><time>2026-05-01T11:25:44.098Z</time></trkpt><trkpt lat="45.4844133" lon="10.3125917"><ele>134.5</ele><time>2026-05-01T11:25:45.099Z</time></trkpt><trkpt lat="45.4843667" lon="10.3127733"><ele>134.0</ele><time>2026-05-01T11:25:46.099Z</time></trkpt><trkpt lat="45.48432" lon="10.3129633"><ele>134.25</ele><time>2026-05-01T11:25:47.098Z</time></trkpt><trkpt lat="45.484275" lon="10.3131533"><ele>134.5</ele><time>2026-05-01T11:25:48.099Z</time></trkpt><trkpt lat="45.4842233" lon="10.3133383"><ele>134.75</ele><time>2026-05-01T11:25:49.099Z</time></trkpt><trkpt lat="45.484175" lon="10.3135317"><ele>135.0</ele><time>2026-05-01T11:25:50.099Z</time></trkpt><trkpt lat="45.4841267" lon="10.31373"><ele>135.25</ele><time>2026-05-01T11:25:51.098Z</time></trkpt><trkpt lat="45.4840783" lon="10.313925"><ele>135.5</ele><time>2026-05-01T11:25:52.098Z</time></trkpt><trkpt lat="45.4840283" lon="10.314125"><ele>135.75</ele><time>2026-05-01T11:25:53.098Z</time></trkpt><trkpt lat="45.4839833" lon="10.31433"><ele>136.0</ele><time>2026-05-01T11:25:54.099Z</time></trkpt><trkpt lat="45.4839333" lon="10.314525"><ele>136.0</ele><time>2026-05-01T11:25:55.098Z</time></trkpt><trkpt lat="45.4838833" lon="10.314725"><ele>136.0</ele><time>2026-05-01T11:25:56.099Z</time></trkpt><trkpt lat="45.4838333" lon="10.3149183"><ele>136.0</ele><time>2026-05-01T11:25:57.099Z</time></trkpt><trkpt lat="45.4837917" lon="10.3151283"><ele>136.0</ele><time>2026-05-01T11:25:58.098Z</time></trkpt><trkpt lat="45.4837383" lon="10.3153417"><ele>136.33333333333334</ele><time>2026-05-01T11:25:59.098Z</time></trkpt><trkpt lat="45.4836833" lon="10.3155667"><ele>136.66666666666666</ele><time>2026-05-01T11:26:00.098Z</time></trkpt><trkpt lat="45.48363" lon="10.3157817"><ele>137.0</ele><time>2026-05-01T11:26:01.099Z</time></trkpt><trkpt lat="45.4835267" lon="10.3162"><ele>136.0</ele><time>2026-05-01T11:26:03.098Z</time></trkpt><trkpt lat="45.48348" lon="10.316415"><ele>135.0</ele><time>2026-05-01T11:26:04.098Z</time></trkpt><trkpt lat="45.4834283" lon="10.3166383"><ele>134.0</ele><time>2026-05-01T11:26:05.098Z</time></trkpt><trkpt lat="45.483375" lon="10.3168667"><ele>134.0</ele><time>2026-05-01T11:26:06.098Z</time></trkpt><trkpt lat="45.4833233" lon="10.317105"><ele>134.0</ele><time>2026-05-01T11:26:07.098Z</time></trkpt><trkpt lat="45.4832683" lon="10.3173483"><ele>134.0</ele><time>2026-05-01T11:26:08.098Z</time></trkpt><trkpt lat="45.4832167" lon="10.3175867"><ele>134.0</ele><time>2026-05-01T11:26:09.098Z</time></trkpt><trkpt lat="45.4831667" lon="10.3178283"><ele>134.0</ele><time>2026-05-01T11:26:10.098Z</time></trkpt><trkpt lat="45.4831133" lon="10.3180683"><ele>134.0</ele><time>2026-05-01T11:26:11.099Z</time></trkpt><trkpt lat="45.4830567" lon="10.3183183"><ele>134.0</ele><time>2026-05-01T11:26:12.099Z</time></trkpt><trkpt lat="45.48299" lon="10.3185883"><ele>134.0</ele><time>2026-05-01T11:26:13.099Z</time></trkpt><trkpt lat="45.48293" lon="10.3188617"><ele>134.0</ele><time>2026-05-01T11:26:14.099Z</time></trkpt><trkpt lat="45.4828667" lon="10.3191467"><ele>134.0</ele><time>2026-05-01T11:26:15.099Z</time></trkpt><trkpt lat="45.482805" lon="10.3194267"><ele>134.0</ele><time>2026-05-01T11:26:16.099Z</time></trkpt><trkpt lat="45.4827483" lon="10.319695"><ele>134.0</ele><time>2026-05-01T11:26:17.099Z</time></trkpt><trkpt lat="45.4826933" lon="10.319955"><ele>134.33333333333331</ele><time>2026-05-01T11:26:18.098Z</time></trkpt><trkpt lat="45.4826367" lon="10.32022"><ele>134.66666666666666</ele><time>2026-05-01T11:26:19.099Z</time></trkpt><trkpt lat="45.4825717" lon="10.3204933"><ele>135.0</ele><time>2026-05-01T11:26:20.099Z</time></trkpt><trkpt lat="45.4825" lon="10.320775"><ele>135.0</ele><time>2026-05-01T11:26:21.099Z</time></trkpt><trkpt lat="45.4823767" lon="10.3213667"><ele>135.0</ele><time>2026-05-01T11:26:23.099Z</time></trkpt><trkpt lat="45.4823217" lon="10.321645"><ele>135.0</ele><time>2026-05-01T11:26:24.098Z</time></trkpt><trkpt lat="45.4822683" lon="10.3219067"><ele>135.0</ele><time>2026-05-01T11:26:25.099Z</time></trkpt><trkpt lat="45.48221" lon="10.3221733"><ele>135.0</ele><time>2026-05-01T11:26:26.099Z</time></trkpt><trkpt lat="45.48215" lon="10.32245"><ele>135.0</ele><time>2026-05-01T11:26:27.098Z</time></trkpt><trkpt lat="45.4820883" lon="10.3227283"><ele>135.0</ele><time>2026-05-01T11:26:28.098Z</time></trkpt><trkpt lat="45.4820283" lon="10.3230167"><ele>135.0</ele><time>2026-05-01T11:26:29.099Z</time></trkpt><trkpt lat="45.481965" lon="10.32331"><ele>135.0</ele><time>2026-05-01T11:26:30.099Z</time></trkpt><trkpt lat="45.4818967" lon="10.3236033"><ele>135.0</ele><time>2026-05-01T11:26:31.099Z</time></trkpt><trkpt lat="45.4818333" lon="10.3238883"><ele>135.0</ele><time>2026-05-01T11:26:32.098Z</time></trkpt><trkpt lat="45.4817717" lon="10.3241633"><ele>135.0</ele><time>2026-05-01T11:26:33.098Z</time></trkpt><trkpt lat="45.48171" lon="10.3244267"><ele>135.0</ele><time>2026-05-01T11:26:34.098Z</time></trkpt><trkpt lat="45.4816533" lon="10.3246833"><ele>135.0</ele><time>2026-05-01T11:26:35.099Z</time></trkpt><trkpt lat="45.4815967" lon="10.3249317"><ele>135.33333333333334</ele><time>2026-05-01T11:26:36.099Z</time></trkpt><trkpt lat="45.481545" lon="10.32517"><ele>135.66666666666669</ele><time>2026-05-01T11:26:37.099Z</time></trkpt><trkpt lat="45.4814917" lon="10.3254367"><ele>136.0</ele><time>2026-05-01T11:26:38.098Z</time></trkpt><trkpt lat="45.4814367" lon="10.3256983"><ele>136.33333333333334</ele><time>2026-05-01T11:26:39.098Z</time></trkpt><trkpt lat="45.4813717" lon="10.3259717"><ele>136.66666666666666</ele><time>2026-05-01T11:26:40.099Z</time></trkpt><trkpt lat="45.4813067" lon="10.3262467"><ele>137.0</ele><time>2026-05-01T11:26:41.098Z</time></trkpt><trkpt lat="45.4812417" lon="10.3265183"><ele>136.66666666666666</ele><time>2026-05-01T11:26:42.099Z</time></trkpt><trkpt lat="45.4811833" lon="10.3267833"><ele>136.33333333333334</ele><time>2026-05-01T11:26:43.098Z</time></trkpt><trkpt lat="45.4811217" lon="10.3270333"><ele>136.0</ele><time>2026-05-01T11:26:44.099Z</time></trkpt><trkpt lat="45.481065" lon="10.3272817"><ele>136.0</ele><time>2026-05-01T11:26:45.098Z</time></trkpt><trkpt lat="45.4810067" lon="10.3275233"><ele>136.0</ele><time>2026-05-01T11:26:46.099Z</time></trkpt><trkpt lat="45.4809567" lon="10.32776"><ele>136.0</ele><time>2026-05-01T11:26:47.099Z</time></trkpt><trkpt lat="45.480905" lon="10.327995"><ele>136.0</ele><time>2026-05-01T11:26:48.098Z</time></trkpt><trkpt lat="45.4808567" lon="10.3282217"><ele>136.0</ele><time>2026-05-01T11:26:49.098Z</time></trkpt><trkpt lat="45.480805" lon="10.32845"><ele>136.0</ele><time>2026-05-01T11:26:50.099Z</time></trkpt><trkpt lat="45.48075" lon="10.3286817"><ele>136.0</ele><time>2026-05-01T11:26:51.099Z</time></trkpt><trkpt lat="45.480695" lon="10.3289067"><ele>136.0</ele><time>2026-05-01T11:26:52.099Z</time></trkpt><trkpt lat="45.4806417" lon="10.329125"><ele>136.0</ele><time>2026-05-01T11:26:53.098Z</time></trkpt><trkpt lat="45.48059" lon="10.3293467"><ele>136.0</ele><time>2026-05-01T11:26:54.099Z</time></trkpt><trkpt lat="45.4805367" lon="10.3295667"><ele>136.0</ele><time>2026-05-01T11:26:55.098Z</time></trkpt><trkpt lat="45.4804883" lon="10.3297767"><ele>136.0</ele><time>2026-05-01T11:26:56.098Z</time></trkpt><trkpt lat="45.4804433" lon="10.3299883"><ele>136.0</ele><time>2026-05-01T11:26:57.099Z</time></trkpt><trkpt lat="45.4803967" lon="10.3302017"><ele>136.0</ele><time>2026-05-01T11:26:58.099Z</time></trkpt><trkpt lat="45.48035" lon="10.3304117"><ele>136.0</ele><time>2026-05-01T11:26:59.098Z</time></trkpt><trkpt lat="45.4802983" lon="10.3306133"><ele>136.5</ele><time>2026-05-01T11:27:00.098Z</time></trkpt><trkpt lat="45.480245" lon="10.3308017"><ele>137.0</ele><time>2026-05-01T11:27:01.098Z</time></trkpt><trkpt lat="45.4801983" lon="10.3309917"><ele>137.5</ele><time>2026-05-01T11:27:02.098Z</time></trkpt><trkpt lat="45.480155" lon="10.33117"><ele>138.0</ele><time>2026-05-01T11:27:03.098Z</time></trkpt><trkpt lat="45.48011" lon="10.33135"><ele>137.5</ele><time>2026-05-01T11:27:04.099Z</time></trkpt><trkpt lat="45.4800667" lon="10.33154"><ele>137.0</ele><time>2026-05-01T11:27:05.099Z</time></trkpt><trkpt lat="45.480025" lon="10.3317317"><ele>136.5</ele><time>2026-05-01T11:27:06.098Z</time></trkpt><trkpt lat="45.4799833" lon="10.3319267"><ele>136.0</ele><time>2026-05-01T11:27:07.098Z</time></trkpt><trkpt lat="45.4799433" lon="10.33212"><ele>135.5</ele><time>2026-05-01T11:27:08.099Z</time></trkpt><trkpt lat="45.4798983" lon="10.3323067"><ele>135.0</ele><time>2026-05-01T11:27:09.098Z</time></trkpt><trkpt lat="45.479855" lon="10.3324917"><ele>134.5</ele><time>2026-05-01T11:27:10.098Z</time></trkpt><trkpt lat="45.4798133" lon="10.3326817"><ele>134.0</ele><time>2026-05-01T11:27:11.098Z</time></trkpt><trkpt lat="45.479765" lon="10.3328833"><ele>135.0</ele><time>2026-05-01T11:27:12.098Z</time></trkpt><trkpt lat="45.4797217" lon="10.3330833"><ele>136.0</ele><time>2026-05-01T11:27:13.099Z</time></trkpt><trkpt lat="45.479675" lon="10.333305"><ele>137.0</ele><time>2026-05-01T11:27:14.099Z</time></trkpt><trkpt lat="45.4796267" lon="10.3335333"><ele>137.0</ele><time>2026-05-01T11:27:15.098Z</time></trkpt><trkpt lat="45.4795733" lon="10.3337567"><ele>137.0</ele><time>2026-05-01T11:27:16.098Z</time></trkpt><trkpt lat="45.479525" lon="10.3339767"><ele>137.0</ele><time>2026-05-01T11:27:17.098Z</time></trkpt><trkpt lat="45.4794783" lon="10.3341867"><ele>137.0</ele><time>2026-05-01T11:27:18.098Z</time></trkpt><trkpt lat="45.4794267" lon="10.3343933"><ele>137.0</ele><time>2026-05-01T11:27:19.098Z</time></trkpt><trkpt lat="45.47938" lon="10.3346"><ele>137.0</ele><time>2026-05-01T11:27:20.098Z</time></trkpt><trkpt lat="45.4793283" lon="10.3348117"><ele>137.0</ele><time>2026-05-01T11:27:21.098Z</time></trkpt><trkpt lat="45.4792817" lon="10.3350283"><ele>137.0</ele><time>2026-05-01T11:27:22.098Z</time></trkpt><trkpt lat="45.4792333" lon="10.3352417"><ele>137.0</ele><time>2026-05-01T11:27:23.098Z</time></trkpt><trkpt lat="45.4791883" lon="10.3354483"><ele>136.66666666666666</ele><time>2026-05-01T11:27:24.098Z</time></trkpt><trkpt lat="45.4791417" lon="10.3356567"><ele>136.33333333333334</ele><time>2026-05-01T11:27:25.098Z</time></trkpt><trkpt lat="45.4790933" lon="10.33587"><ele>136.0</ele><time>2026-05-01T11:27:26.099Z</time></trkpt><trkpt lat="45.479045" lon="10.3360933"><ele>136.0</ele><time>2026-05-01T11:27:27.098Z</time></trkpt><trkpt lat="45.4789967" lon="10.3363183"><ele>136.0</ele><time>2026-05-01T11:27:28.099Z</time></trkpt><trkpt lat="45.4789483" lon="10.336545"><ele>136.0</ele><time>2026-05-01T11:27:29.099Z</time></trkpt><trkpt lat="45.4788933" lon="10.3367767"><ele>136.0</ele><time>2026-05-01T11:27:30.098Z</time></trkpt><trkpt lat="45.4788383" lon="10.3370117"><ele>136.0</ele><time>2026-05-01T11:27:31.098Z</time></trkpt><trkpt lat="45.47878" lon="10.3372417"><ele>136.0</ele><time>2026-05-01T11:27:32.099Z</time></trkpt><trkpt lat="45.47873" lon="10.337465"><ele>136.0</ele><time>2026-05-01T11:27:33.099Z</time></trkpt><trkpt lat="45.4786767" lon="10.3376867"><ele>136.0</ele><time>2026-05-01T11:27:34.098Z</time></trkpt><trkpt lat="45.4786283" lon="10.337915"><ele>136.0</ele><time>2026-05-01T11:27:35.098Z</time></trkpt><trkpt lat="45.4785767" lon="10.3381467"><ele>136.0</ele><time>2026-05-01T11:27:36.099Z</time></trkpt><trkpt lat="45.47852" lon="10.3383817"><ele>136.0</ele><time>2026-05-01T11:27:37.098Z</time></trkpt><trkpt lat="45.47841" lon="10.3388717"><ele>136.66666666666669</ele><time>2026-05-01T11:27:39.098Z</time></trkpt><trkpt lat="45.478355" lon="10.339115"><ele>137.33333333333334</ele><time>2026-05-01T11:27:40.099Z</time></trkpt><trkpt lat="45.4783117" lon="10.339345"><ele>138.0</ele><time>2026-05-01T11:27:41.098Z</time></trkpt><trkpt lat="45.4782633" lon="10.3395633"><ele>137.33333333333334</ele><time>2026-05-01T11:27:42.099Z</time></trkpt><trkpt lat="45.4782183" lon="10.33978"><ele>136.66666666666669</ele><time>2026-05-01T11:27:43.099Z</time></trkpt><trkpt lat="45.4781767" lon="10.3399967"><ele>136.0</ele><time>2026-05-01T11:27:44.098Z</time></trkpt><trkpt lat="45.4781317" lon="10.3402133"><ele>136.0</ele><time>2026-05-01T11:27:45.098Z</time></trkpt><trkpt lat="45.478085" lon="10.340425"><ele>136.0</ele><time>2026-05-01T11:27:46.098Z</time></trkpt><trkpt lat="45.4780333" lon="10.3406433"><ele>136.0</ele><time>2026-05-01T11:27:47.098Z</time></trkpt><trkpt lat="45.4779783" lon="10.3408733"><ele>136.0</ele><time>2026-05-01T11:27:48.099Z</time></trkpt><trkpt lat="45.47792" lon="10.34111"><ele>136.0</ele><time>2026-05-01T11:27:49.098Z</time></trkpt><trkpt lat="45.47786" lon="10.3413567"><ele>136.0</ele><time>2026-05-01T11:27:50.098Z</time></trkpt><trkpt lat="45.4778017" lon="10.3416067"><ele>136.0</ele><time>2026-05-01T11:27:51.098Z</time></trkpt><trkpt lat="45.477745" lon="10.3418533"><ele>136.0</ele><time>2026-05-01T11:27:52.099Z</time></trkpt><trkpt lat="45.4776933" lon="10.342085"><ele>136.0</ele><time>2026-05-01T11:27:53.098Z</time></trkpt><trkpt lat="45.4776467" lon="10.3423117"><ele>135.66666666666669</ele><time>2026-05-01T11:27:54.099Z</time></trkpt><trkpt lat="45.477595" lon="10.34254"><ele>135.33333333333334</ele><time>2026-05-01T11:27:55.098Z</time></trkpt><trkpt lat="45.4775417" lon="10.3427717"><ele>135.0</ele><time>2026-05-01T11:27:56.099Z</time></trkpt><trkpt lat="45.4774883" lon="10.3430117"><ele>135.0</ele><time>2026-05-01T11:27:57.098Z</time></trkpt><trkpt lat="45.4774317" lon="10.3432567"><ele>135.0</ele><time>2026-05-01T11:27:58.098Z</time></trkpt><trkpt lat="45.4773767" lon="10.3435017"><ele>135.0</ele><time>2026-05-01T11:27:59.098Z</time></trkpt><trkpt lat="45.47732" lon="10.343755"><ele>135.66666666666666</ele><time>2026-05-01T11:28:00.098Z</time></trkpt><trkpt lat="45.4772667" lon="10.344"><ele>136.33333333333331</ele><time>2026-05-01T11:28:01.099Z</time></trkpt><trkpt lat="45.4772117" lon="10.3442317"><ele>137.0</ele><time>2026-05-01T11:28:02.098Z</time></trkpt><trkpt lat="45.4771633" lon="10.34446"><ele>137.0</ele><time>2026-05-01T11:28:03.098Z</time></trkpt><trkpt lat="45.4771117" lon="10.344685"><ele>137.0</ele><time>2026-05-01T11:28:04.098Z</time></trkpt><trkpt lat="45.4770583" lon="10.3449167"><ele>137.0</ele><time>2026-05-01T11:28:05.099Z</time></trkpt><trkpt lat="45.4770017" lon="10.34516"><ele>136.33333333333331</ele><time>2026-05-01T11:28:06.098Z</time></trkpt><trkpt lat="45.4769483" lon="10.3454117"><ele>135.66666666666666</ele><time>2026-05-01T11:28:07.098Z</time></trkpt><trkpt lat="45.4768917" lon="10.345665"><ele>135.0</ele><time>2026-05-01T11:28:08.098Z</time></trkpt><trkpt lat="45.47684" lon="10.3459133"><ele>135.5</ele><time>2026-05-01T11:28:09.099Z</time></trkpt><trkpt lat="45.4767317" lon="10.3463867"><ele>136.0</ele><time>2026-05-01T11:28:11.099Z</time></trkpt><trkpt lat="45.47668" lon="10.34662"><ele>136.0</ele><time>2026-05-01T11:28:12.098Z</time></trkpt><trkpt lat="45.4766283" lon="10.3468567"><ele>136.0</ele><time>2026-05-01T11:28:13.098Z</time></trkpt><trkpt lat="45.4765717" lon="10.3470933"><ele>136.0</ele><time>2026-05-01T11:28:14.098Z</time></trkpt><trkpt lat="45.4765117" lon="10.3473367"><ele>136.33333333333334</ele><time>2026-05-01T11:28:15.099Z</time></trkpt><trkpt lat="45.4764583" lon="10.3475767"><ele>136.66666666666666</ele><time>2026-05-01T11:28:16.098Z</time></trkpt><trkpt lat="45.4764083" lon="10.3478167"><ele>137.0</ele><time>2026-05-01T11:28:17.098Z</time></trkpt><trkpt lat="45.4763533" lon="10.3480533"><ele>137.0</ele><time>2026-05-01T11:28:18.099Z</time></trkpt><trkpt lat="45.4762967" lon="10.3482883"><ele>137.0</ele><time>2026-05-01T11:28:19.099Z</time></trkpt><trkpt lat="45.4762417" lon="10.3485267"><ele>137.0</ele><time>2026-05-01T11:28:20.099Z</time></trkpt><trkpt lat="45.4761867" lon="10.3487683"><ele>136.66666666666666</ele><time>2026-05-01T11:28:21.099Z</time></trkpt><trkpt lat="45.4761283" lon="10.3490083"><ele>136.33333333333334</ele><time>2026-05-01T11:28:22.099Z</time></trkpt><trkpt lat="45.4760733" lon="10.3492483"><ele>136.0</ele><time>2026-05-01T11:28:23.098Z</time></trkpt><trkpt lat="45.4760217" lon="10.349495"><ele>136.33333333333334</ele><time>2026-05-01T11:28:24.099Z</time></trkpt><trkpt lat="45.4759667" lon="10.3497367"><ele>136.66666666666666</ele><time>2026-05-01T11:28:25.098Z</time></trkpt><trkpt lat="45.4759133" lon="10.3499817"><ele>137.0</ele><time>2026-05-01T11:28:26.098Z</time></trkpt><trkpt lat="45.4758583" lon="10.3502317"><ele>137.0</ele><time>2026-05-01T11:28:27.098Z</time></trkpt><trkpt lat="45.4758033" lon="10.3504783"><ele>137.0</ele><time>2026-05-01T11:28:28.098Z</time></trkpt><trkpt lat="45.4757483" lon="10.3507233"><ele>137.0</ele><time>2026-05-01T11:28:29.098Z</time></trkpt><trkpt lat="45.475695" lon="10.3509683"><ele>137.0</ele><time>2026-05-01T11:28:30.099Z</time></trkpt><trkpt lat="45.4756367" lon="10.351215"><ele>137.0</ele><time>2026-05-01T11:28:31.098Z</time></trkpt><trkpt lat="45.4755817" lon="10.3514617"><ele>137.0</ele><time>2026-05-01T11:28:32.098Z</time></trkpt><trkpt lat="45.4755233" lon="10.3517083"><ele>137.0</ele><time>2026-05-01T11:28:33.099Z</time></trkpt><trkpt lat="45.4754717" lon="10.3519567"><ele>137.0</ele><time>2026-05-01T11:28:34.099Z</time></trkpt><trkpt lat="45.4754167" lon="10.3522033"><ele>137.0</ele><time>2026-05-01T11:28:35.098Z</time></trkpt><trkpt lat="45.4753617" lon="10.3524483"><ele>137.0</ele><time>2026-05-01T11:28:36.098Z</time></trkpt><trkpt lat="45.4753083" lon="10.352695"><ele>137.0</ele><time>2026-05-01T11:28:37.099Z</time></trkpt><trkpt lat="45.4752517" lon="10.3529417"><ele>137.0</ele><time>2026-05-01T11:28:38.098Z</time></trkpt><trkpt lat="45.4751917" lon="10.353185"><ele>137.0</ele><time>2026-05-01T11:28:39.099Z</time></trkpt><trkpt lat="45.4751367" lon="10.3534417"><ele>137.0</ele><time>2026-05-01T11:28:40.099Z</time></trkpt><trkpt lat="45.4750817" lon="10.3536933"><ele>137.0</ele><time>2026-05-01T11:28:41.099Z</time></trkpt><trkpt lat="45.4750233" lon="10.3539417"><ele>137.0</ele><time>2026-05-01T11:28:42.098Z</time></trkpt><trkpt lat="45.4749633" lon="10.3541933"><ele>137.0</ele><time>2026-05-01T11:28:43.099Z</time></trkpt><trkpt lat="45.4749033" lon="10.3544583"><ele>137.0</ele><time>2026-05-01T11:28:44.098Z</time></trkpt><trkpt lat="45.4748367" lon="10.3547333"><ele>137.0</ele><time>2026-05-01T11:28:45.098Z</time></trkpt><trkpt lat="45.4747683" lon="10.35503"><ele>137.0</ele><time>2026-05-01T11:28:46.098Z</time></trkpt><trkpt lat="45.4747033" lon="10.3553433"><ele>137.0</ele><time>2026-05-01T11:28:47.098Z</time></trkpt><trkpt lat="45.4746383" lon="10.3556567"><ele>136.0</ele><time>2026-05-01T11:28:48.098Z</time></trkpt><trkpt lat="45.47457" lon="10.3559767"><ele>135.0</ele><time>2026-05-01T11:28:49.098Z</time></trkpt><trkpt lat="45.4745083" lon="10.3562817"><ele>135.0</ele><time>2026-05-01T11:28:50.098Z</time></trkpt><trkpt lat="45.474445" lon="10.35658"><ele>135.0</ele><time>2026-05-01T11:28:51.098Z</time></trkpt><trkpt lat="45.4743783" lon="10.3568867"><ele>135.0</ele><time>2026-05-01T11:28:52.099Z</time></trkpt><trkpt lat="45.47431" lon="10.3571917"><ele>135.0</ele><time>2026-05-01T11:28:53.098Z</time></trkpt><trkpt lat="45.4742417" lon="10.3574883"><ele>135.0</ele><time>2026-05-01T11:28:54.099Z</time></trkpt><trkpt lat="45.4741783" lon="10.35777"><ele>135.0</ele><time>2026-05-01T11:28:55.099Z</time></trkpt><trkpt lat="45.4741217" lon="10.358045"><ele>135.0</ele><time>2026-05-01T11:28:56.098Z</time></trkpt><trkpt lat="45.474065" lon="10.3583083"><ele>135.0</ele><time>2026-05-01T11:28:57.098Z</time></trkpt><trkpt lat="45.474005" lon="10.3585667"><ele>135.0</ele><time>2026-05-01T11:28:58.098Z</time></trkpt><trkpt lat="45.473945" lon="10.3588283"><ele>135.33333333333334</ele><time>2026-05-01T11:28:59.098Z</time></trkpt><trkpt lat="45.4738883" lon="10.359095"><ele>135.66666666666669</ele><time>2026-05-01T11:29:00.098Z</time></trkpt><trkpt lat="45.47383" lon="10.3593517"><ele>136.0</ele><time>2026-05-01T11:29:01.099Z</time></trkpt><trkpt lat="45.4737717" lon="10.359605"><ele>136.0</ele><time>2026-05-01T11:29:02.098Z</time></trkpt><trkpt lat="45.47371" lon="10.3598433"><ele>136.0</ele><time>2026-05-01T11:29:03.098Z</time></trkpt><trkpt lat="45.4736517" lon="10.360085"><ele>136.0</ele><time>2026-05-01T11:29:04.099Z</time></trkpt><trkpt lat="45.47359" lon="10.3603333"><ele>135.66666666666669</ele><time>2026-05-01T11:29:05.099Z</time></trkpt><trkpt lat="45.4735317" lon="10.3605733"><ele>135.33333333333334</ele><time>2026-05-01T11:29:06.098Z</time></trkpt><trkpt lat="45.473475" lon="10.360815"><ele>135.0</ele><time>2026-05-01T11:29:07.098Z</time></trkpt><trkpt lat="45.4734167" lon="10.36106"><ele>135.0</ele><time>2026-05-01T11:29:08.099Z</time></trkpt><trkpt lat="45.4733617" lon="10.3612983"><ele>135.0</ele><time>2026-05-01T11:29:09.099Z</time></trkpt><trkpt lat="45.47331" lon="10.3615367"><ele>135.0</ele><time>2026-05-01T11:29:10.098Z</time></trkpt><trkpt lat="45.4732633" lon="10.3617617"><ele>135.0</ele><time>2026-05-01T11:29:11.098Z</time></trkpt><trkpt lat="45.4732183" lon="10.36198"><ele>135.0</ele><time>2026-05-01T11:29:12.099Z</time></trkpt><trkpt lat="45.4731717" lon="10.3621883"><ele>135.0</ele><time>2026-05-01T11:29:13.098Z</time></trkpt><trkpt lat="45.4731267" lon="10.36239"><ele>135.0</ele><time>2026-05-01T11:29:14.099Z</time></trkpt><trkpt lat="45.473085" lon="10.3625767"><ele>135.0</ele><time>2026-05-01T11:29:15.098Z</time></trkpt><trkpt lat="45.47304" lon="10.36276"><ele>135.0</ele><time>2026-05-01T11:29:16.098Z</time></trkpt><trkpt lat="45.472995" lon="10.3629367"><ele>135.0</ele><time>2026-05-01T11:29:17.098Z</time></trkpt><trkpt lat="45.4729067" lon="10.3633133"><ele>135.0</ele><time>2026-05-01T11:29:19.098Z</time></trkpt><trkpt lat="45.47286" lon="10.3635117"><ele>135.0</ele><time>2026-05-01T11:29:20.098Z</time></trkpt><trkpt lat="45.472815" lon="10.363715"><ele>135.0</ele><time>2026-05-01T11:29:21.098Z</time></trkpt><trkpt lat="45.4727683" lon="10.363915"><ele>135.0</ele><time>2026-05-01T11:29:22.099Z</time></trkpt><trkpt lat="45.472725" lon="10.3641033"><ele>135.0</ele><time>2026-05-01T11:29:23.099Z</time></trkpt><trkpt lat="45.4726833" lon="10.3642867"><ele>135.0</ele><time>2026-05-01T11:29:24.098Z</time></trkpt><trkpt lat="45.4726417" lon="10.3644667"><ele>135.0</ele><time>2026-05-01T11:29:25.099Z</time></trkpt><trkpt lat="45.472605" lon="10.3646517"><ele>135.0</ele><time>2026-05-01T11:29:26.099Z</time></trkpt><trkpt lat="45.4725667" lon="10.364835"><ele>135.0</ele><time>2026-05-01T11:29:27.099Z</time></trkpt><trkpt lat="45.4725233" lon="10.365015"><ele>135.0</ele><time>2026-05-01T11:29:28.099Z</time></trkpt><trkpt lat="45.4724817" lon="10.3651917"><ele>135.0</ele><time>2026-05-01T11:29:29.098Z</time></trkpt><trkpt lat="45.472435" lon="10.36538"><ele>135.0</ele><time>2026-05-01T11:29:30.098Z</time></trkpt><trkpt lat="45.4723933" lon="10.3655733"><ele>135.25</ele><time>2026-05-01T11:29:31.098Z</time></trkpt><trkpt lat="45.4723533" lon="10.36577"><ele>135.5</ele><time>2026-05-01T11:29:32.098Z</time></trkpt><trkpt lat="45.4723067" lon="10.365965"><ele>135.75</ele><time>2026-05-01T11:29:33.098Z</time></trkpt><trkpt lat="45.4722633" lon="10.3661583"><ele>136.0</ele><time>2026-05-01T11:29:34.099Z</time></trkpt><trkpt lat="45.4722217" lon="10.3663533"><ele>136.0</ele><time>2026-05-01T11:29:35.098Z</time></trkpt><trkpt lat="45.4721767" lon="10.36655"><ele>136.0</ele><time>2026-05-01T11:29:36.099Z</time></trkpt><trkpt lat="45.4721283" lon="10.3667583"><ele>136.0</ele><time>2026-05-01T11:29:37.099Z</time></trkpt><trkpt lat="45.4720817" lon="10.3669667"><ele>135.66666666666669</ele><time>2026-05-01T11:29:38.098Z</time></trkpt><trkpt lat="45.4720333" lon="10.3671767"><ele>135.33333333333334</ele><time>2026-05-01T11:29:39.099Z</time></trkpt><trkpt lat="45.4719817" lon="10.3673867"><ele>135.0</ele><time>2026-05-01T11:29:40.099Z</time></trkpt><trkpt lat="45.471935" lon="10.3675983"><ele>135.0</ele><time>2026-05-01T11:29:41.098Z</time></trkpt><trkpt lat="45.4718867" lon="10.36781"><ele>135.0</ele><time>2026-05-01T11:29:42.099Z</time></trkpt><trkpt lat="45.4718367" lon="10.3680217"><ele>135.0</ele><time>2026-05-01T11:29:43.099Z</time></trkpt><trkpt lat="45.4717917" lon="10.3682383"><ele>135.33333333333334</ele><time>2026-05-01T11:29:44.099Z</time></trkpt><trkpt lat="45.4717467" lon="10.3684533"><ele>135.66666666666669</ele><time>2026-05-01T11:29:45.099Z</time></trkpt><trkpt lat="45.4717" lon="10.36867"><ele>136.0</ele><time>2026-05-01T11:29:46.099Z</time></trkpt><trkpt lat="45.4716533" lon="10.3688883"><ele>136.0</ele><time>2026-05-01T11:29:47.098Z</time></trkpt><trkpt lat="45.4715967" lon="10.3691067"><ele>136.0</ele><time>2026-05-01T11:29:48.098Z</time></trkpt><trkpt lat="45.4715433" lon="10.3693417"><ele>136.0</ele><time>2026-05-01T11:29:49.098Z</time></trkpt><trkpt lat="45.4714883" lon="10.3695817"><ele>136.33333333333334</ele><time>2026-05-01T11:29:50.099Z</time></trkpt><trkpt lat="45.4714333" lon="10.369825"><ele>136.66666666666666</ele><time>2026-05-01T11:29:51.098Z</time></trkpt><trkpt lat="45.47138" lon="10.37006"><ele>137.0</ele><time>2026-05-01T11:29:52.098Z</time></trkpt><trkpt lat="45.471325" lon="10.370295"><ele>136.66666666666666</ele><time>2026-05-01T11:29:53.098Z</time></trkpt><trkpt lat="45.471275" lon="10.3705267"><ele>136.33333333333334</ele><time>2026-05-01T11:29:54.098Z</time></trkpt><trkpt lat="45.471225" lon="10.370755"><ele>136.0</ele><time>2026-05-01T11:29:55.099Z</time></trkpt><trkpt lat="45.4711733" lon="10.3709983"><ele>135.5</ele><time>2026-05-01T11:29:56.099Z</time></trkpt><trkpt lat="45.4711217" lon="10.3712467"><ele>135.0</ele><time>2026-05-01T11:29:57.099Z</time></trkpt><trkpt lat="45.471025" lon="10.3717067"><ele>135.0</ele><time>2026-05-01T11:29:59.099Z</time></trkpt><trkpt lat="45.4709933" lon="10.3719017"><ele>135.0</ele><time>2026-05-01T11:30:00.098Z</time></trkpt><trkpt lat="45.470965" lon="10.3720833"><ele>135.0</ele><time>2026-05-01T11:30:01.098Z</time></trkpt><trkpt lat="45.47093" lon="10.37227"><ele>135.0</ele><time>2026-05-01T11:30:02.099Z</time></trkpt><trkpt lat="45.4708917" lon="10.3724883"><ele>135.0</ele><time>2026-05-01T11:30:03.099Z</time></trkpt><trkpt lat="45.4708383" lon="10.3727417"><ele>135.0</ele><time>2026-05-01T11:30:04.099Z</time></trkpt><trkpt lat="45.470775" lon="10.3730233"><ele>135.0</ele><time>2026-05-01T11:30:05.098Z</time></trkpt><trkpt lat="45.4707133" lon="10.3733233"><ele>135.0</ele><time>2026-05-01T11:30:06.098Z</time></trkpt><trkpt lat="45.470635" lon="10.373635"><ele>135.0</ele><time>2026-05-01T11:30:07.099Z</time></trkpt><trkpt lat="45.4705517" lon="10.3739567"><ele>135.0</ele><time>2026-05-01T11:30:08.098Z</time></trkpt><trkpt lat="45.4704817" lon="10.37428"><ele>135.0</ele><time>2026-05-01T11:30:09.099Z</time></trkpt><trkpt lat="45.470405" lon="10.3746"><ele>135.0</ele><time>2026-05-01T11:30:10.098Z</time></trkpt><trkpt lat="45.4703367" lon="10.3749183"><ele>135.0</ele><time>2026-05-01T11:30:11.098Z</time></trkpt><trkpt lat="45.470265" lon="10.3752417"><ele>135.0</ele><time>2026-05-01T11:30:12.098Z</time></trkpt><trkpt lat="45.470195" lon="10.3755667"><ele>135.0</ele><time>2026-05-01T11:30:13.099Z</time></trkpt><trkpt lat="45.4701117" lon="10.37589"><ele>135.0</ele><time>2026-05-01T11:30:14.098Z</time></trkpt><trkpt lat="45.4700433" lon="10.3762233"><ele>135.0</ele><time>2026-05-01T11:30:15.098Z</time></trkpt><trkpt lat="45.4699633" lon="10.3765617"><ele>135.0</ele><time>2026-05-01T11:30:16.099Z</time></trkpt><trkpt lat="45.4698833" lon="10.3768983"><ele>135.0</ele><time>2026-05-01T11:30:17.099Z</time></trkpt><trkpt lat="45.4698133" lon="10.3772333"><ele>135.5</ele><time>2026-05-01T11:30:18.099Z</time></trkpt><trkpt lat="45.4697367" lon="10.3775633"><ele>136.0</ele><time>2026-05-01T11:30:19.099Z</time></trkpt><trkpt lat="45.46966" lon="10.37789"><ele>135.0</ele><time>2026-05-01T11:30:20.098Z</time></trkpt><trkpt lat="45.469585" lon="10.3782167"><ele>134.0</ele><time>2026-05-01T11:30:21.099Z</time></trkpt><trkpt lat="45.4695067" lon="10.378545"><ele>135.0</ele><time>2026-05-01T11:30:22.098Z</time></trkpt><trkpt lat="45.46943" lon="10.3788633"><ele>136.0</ele><time>2026-05-01T11:30:23.099Z</time></trkpt><trkpt lat="45.46936" lon="10.3791717"><ele>136.0</ele><time>2026-05-01T11:30:24.099Z</time></trkpt><trkpt lat="45.4692917" lon="10.3794783"><ele>136.0</ele><time>2026-05-01T11:30:25.098Z</time></trkpt><trkpt lat="45.469225" lon="10.3797867"><ele>135.0</ele><time>2026-05-01T11:30:26.099Z</time></trkpt><trkpt lat="45.4691517" lon="10.3801017"><ele>134.0</ele><time>2026-05-01T11:30:27.099Z</time></trkpt><trkpt lat="45.46908" lon="10.380415"><ele>134.5</ele><time>2026-05-01T11:30:28.098Z</time></trkpt><trkpt lat="45.4690133" lon="10.3807267"><ele>135.0</ele><time>2026-05-01T11:30:29.098Z</time></trkpt><trkpt lat="45.4689433" lon="10.3810367"><ele>135.5</ele><time>2026-05-01T11:30:30.098Z</time></trkpt><trkpt lat="45.4688717" lon="10.3813533"><ele>136.0</ele><time>2026-05-01T11:30:31.098Z</time></trkpt><trkpt lat="45.4687933" lon="10.3816783"><ele>135.5</ele><time>2026-05-01T11:30:32.099Z</time></trkpt><trkpt lat="45.4687167" lon="10.382005"><ele>135.0</ele><time>2026-05-01T11:30:33.098Z</time></trkpt><trkpt lat="45.4686417" lon="10.3823367"><ele>135.0</ele><time>2026-05-01T11:30:34.099Z</time></trkpt><trkpt lat="45.4685667" lon="10.38267"><ele>135.0</ele><time>2026-05-01T11:30:35.098Z</time></trkpt><trkpt lat="45.4684767" lon="10.383015"><ele>135.0</ele><time>2026-05-01T11:30:36.098Z</time></trkpt><trkpt lat="45.4684067" lon="10.3833667"><ele>135.0</ele><time>2026-05-01T11:30:37.099Z</time></trkpt><trkpt lat="45.46833" lon="10.3837217"><ele>134.5</ele><time>2026-05-01T11:30:38.098Z</time></trkpt><trkpt lat="45.468255" lon="10.3840783"><ele>134.0</ele><time>2026-05-01T11:30:39.099Z</time></trkpt><trkpt lat="45.4681833" lon="10.3844283"><ele>133.5</ele><time>2026-05-01T11:30:40.098Z</time></trkpt><trkpt lat="45.4681183" lon="10.3847667"><ele>133.0</ele><time>2026-05-01T11:30:41.098Z</time></trkpt><trkpt lat="45.4680633" lon="10.3851"><ele>133.0</ele><time>2026-05-01T11:30:42.099Z</time></trkpt><trkpt lat="45.468005" lon="10.38543"><ele>133.0</ele><time>2026-05-01T11:30:43.098Z</time></trkpt><trkpt lat="45.4679483" lon="10.3857667"><ele>133.0</ele><time>2026-05-01T11:30:44.099Z</time></trkpt><trkpt lat="45.4678967" lon="10.3861017"><ele>133.0</ele><time>2026-05-01T11:30:45.098Z</time></trkpt><trkpt lat="45.4678433" lon="10.3864433"><ele>133.0</ele><time>2026-05-01T11:30:46.099Z</time></trkpt><trkpt lat="45.4677883" lon="10.3867767"><ele>133.0</ele><time>2026-05-01T11:30:47.098Z</time></trkpt><trkpt lat="45.4677317" lon="10.38711"><ele>133.0</ele><time>2026-05-01T11:30:48.099Z</time></trkpt><trkpt lat="45.467675" lon="10.3874417"><ele>133.0</ele><time>2026-05-01T11:30:49.098Z</time></trkpt><trkpt lat="45.4676183" lon="10.38777"><ele>132.5</ele><time>2026-05-01T11:30:50.098Z</time></trkpt><trkpt lat="45.4675667" lon="10.3880933"><ele>132.0</ele><time>2026-05-01T11:30:51.099Z</time></trkpt><trkpt lat="45.4675133" lon="10.3884183"><ele>132.0</ele><time>2026-05-01T11:30:52.098Z</time></trkpt><trkpt lat="45.4674633" lon="10.38874"><ele>132.0</ele><time>2026-05-01T11:30:53.099Z</time></trkpt><trkpt lat="45.4674083" lon="10.3890517"><ele>132.0</ele><time>2026-05-01T11:30:54.098Z</time></trkpt><trkpt lat="45.46735" lon="10.3893633"><ele>132.0</ele><time>2026-05-01T11:30:55.099Z</time></trkpt><trkpt lat="45.4672983" lon="10.3896717"><ele>132.0</ele><time>2026-05-01T11:30:56.098Z</time></trkpt><trkpt lat="45.4672483" lon="10.389985"><ele>132.0</ele><time>2026-05-01T11:30:57.099Z</time></trkpt><trkpt lat="45.4671983" lon="10.3903017"><ele>132.0</ele><time>2026-05-01T11:30:58.098Z</time></trkpt><trkpt lat="45.4671433" lon="10.3906233"><ele>131.0</ele><time>2026-05-01T11:30:59.098Z</time></trkpt><trkpt lat="45.467095" lon="10.3909467"><ele>130.0</ele><time>2026-05-01T11:31:00.098Z</time></trkpt><trkpt lat="45.4670417" lon="10.3912717"><ele>130.5</ele><time>2026-05-01T11:31:01.098Z</time></trkpt><trkpt lat="45.4669883" lon="10.391595"><ele>131.0</ele><time>2026-05-01T11:31:02.098Z</time></trkpt><trkpt lat="45.466935" lon="10.3919183"><ele>130.5</ele><time>2026-05-01T11:31:03.098Z</time></trkpt><trkpt lat="45.46688" lon="10.39224"><ele>130.0</ele><time>2026-05-01T11:31:04.098Z</time></trkpt><trkpt lat="45.4668233" lon="10.392555"><ele>130.0</ele><time>2026-05-01T11:31:05.099Z</time></trkpt><trkpt lat="45.4667717" lon="10.3928633"><ele>130.0</ele><time>2026-05-01T11:31:06.099Z</time></trkpt><trkpt lat="45.4667217" lon="10.393165"><ele>130.0</ele><time>2026-05-01T11:31:07.098Z</time></trkpt><trkpt lat="45.4666683" lon="10.3934633"><ele>130.0</ele><time>2026-05-01T11:31:08.099Z</time></trkpt><trkpt lat="45.466615" lon="10.3937733"><ele>130.0</ele><time>2026-05-01T11:31:09.099Z</time></trkpt><trkpt lat="45.466565" lon="10.3940783"><ele>130.0</ele><time>2026-05-01T11:31:10.099Z</time></trkpt><trkpt lat="45.4665167" lon="10.39439"><ele>129.66666666666669</ele><time>2026-05-01T11:31:11.098Z</time></trkpt><trkpt lat="45.46647" lon="10.394695"><ele>129.33333333333334</ele><time>2026-05-01T11:31:12.098Z</time></trkpt><trkpt lat="45.466415" lon="10.3949833"><ele>129.0</ele><time>2026-05-01T11:31:13.099Z</time></trkpt><trkpt lat="45.4663633" lon="10.39528"><ele>129.0</ele><time>2026-05-01T11:31:14.098Z</time></trkpt><trkpt lat="45.466315" lon="10.39558"><ele>129.0</ele><time>2026-05-01T11:31:15.098Z</time></trkpt><trkpt lat="45.466265" lon="10.39589"><ele>129.0</ele><time>2026-05-01T11:31:16.099Z</time></trkpt><trkpt lat="45.4662133" lon="10.3961933"><ele>129.33333333333334</ele><time>2026-05-01T11:31:17.098Z</time></trkpt><trkpt lat="45.4661667" lon="10.3964933"><ele>129.66666666666669</ele><time>2026-05-01T11:31:18.098Z</time></trkpt><trkpt lat="45.466115" lon="10.3967917"><ele>130.0</ele><time>2026-05-01T11:31:19.099Z</time></trkpt><trkpt lat="45.466065" lon="10.39709"><ele>130.0</ele><time>2026-05-01T11:31:20.098Z</time></trkpt><trkpt lat="45.466015" lon="10.39739"><ele>130.0</ele><time>2026-05-01T11:31:21.099Z</time></trkpt><trkpt lat="45.46596" lon="10.3976967"><ele>130.0</ele><time>2026-05-01T11:31:22.098Z</time></trkpt><trkpt lat="45.465905" lon="10.3980033"><ele>130.0</ele><time>2026-05-01T11:31:23.098Z</time></trkpt><trkpt lat="45.4658533" lon="10.3983167"><ele>130.0</ele><time>2026-05-01T11:31:24.099Z</time></trkpt><trkpt lat="45.4658067" lon="10.39863"><ele>130.0</ele><time>2026-05-01T11:31:25.098Z</time></trkpt><trkpt lat="45.465755" lon="10.39895"><ele>130.0</ele><time>2026-05-01T11:31:26.099Z</time></trkpt><trkpt lat="45.465705" lon="10.3992817"><ele>130.0</ele><time>2026-05-01T11:31:27.098Z</time></trkpt><trkpt lat="45.46566" lon="10.3996067"><ele>130.0</ele><time>2026-05-01T11:31:28.098Z</time></trkpt><trkpt lat="45.4656183" lon="10.39992"><ele>130.33333333333334</ele><time>2026-05-01T11:31:29.098Z</time></trkpt><trkpt lat="45.4655783" lon="10.4002317"><ele>130.66666666666666</ele><time>2026-05-01T11:31:30.098Z</time></trkpt><trkpt lat="45.46554" lon="10.4005467"><ele>131.0</ele><time>2026-05-01T11:31:31.098Z</time></trkpt><trkpt lat="45.465515" lon="10.4008433"><ele>131.5</ele><time>2026-05-01T11:31:32.098Z</time></trkpt><trkpt lat="45.465485" lon="10.4011417"><ele>132.0</ele><time>2026-05-01T11:31:33.099Z</time></trkpt><trkpt lat="45.465435" lon="10.4016933"><ele>130.33333333333334</ele><time>2026-05-01T11:31:35.099Z</time></trkpt><trkpt lat="45.4654167" lon="10.40196"><ele>128.66666666666669</ele><time>2026-05-01T11:31:36.099Z</time></trkpt><trkpt lat="45.4653933" lon="10.4022183"><ele>127.0</ele><time>2026-05-01T11:31:37.098Z</time></trkpt><trkpt lat="45.4653717" lon="10.4024733"><ele>127.0</ele><time>2026-05-01T11:31:38.098Z</time></trkpt><trkpt lat="45.4653517" lon="10.4027133"><ele>127.0</ele><time>2026-05-01T11:31:39.098Z</time></trkpt><trkpt lat="45.46533" lon="10.4029467"><ele>127.0</ele><time>2026-05-01T11:31:40.098Z</time></trkpt><trkpt lat="45.46531" lon="10.4031867"><ele>127.0</ele><time>2026-05-01T11:31:41.099Z</time></trkpt><trkpt lat="45.46529" lon="10.4034333"><ele>127.0</ele><time>2026-05-01T11:31:42.099Z</time></trkpt><trkpt lat="45.4652717" lon="10.4036783"><ele>127.0</ele><time>2026-05-01T11:31:43.098Z</time></trkpt><trkpt lat="45.4652467" lon="10.403925"><ele>126.66666666666667</ele><time>2026-05-01T11:31:44.098Z</time></trkpt><trkpt lat="45.4652283" lon="10.40416"><ele>126.33333333333334</ele><time>2026-05-01T11:31:45.099Z</time></trkpt><trkpt lat="45.4652133" lon="10.404395"><ele>126.0</ele><time>2026-05-01T11:31:46.098Z</time></trkpt><trkpt lat="45.4651967" lon="10.4046333"><ele>125.66666666666666</ele><time>2026-05-01T11:31:47.098Z</time></trkpt><trkpt lat="45.4651783" lon="10.4048717"><ele>125.33333333333333</ele><time>2026-05-01T11:31:48.098Z</time></trkpt><trkpt lat="45.4651567" lon="10.4051117"><ele>125.0</ele><time>2026-05-01T11:31:49.098Z</time></trkpt><trkpt lat="45.4651367" lon="10.4053567"><ele>125.33333333333333</ele><time>2026-05-01T11:31:50.098Z</time></trkpt><trkpt lat="45.4651133" lon="10.4056117"><ele>125.66666666666666</ele><time>2026-05-01T11:31:51.099Z</time></trkpt><trkpt lat="45.4650917" lon="10.4058717"><ele>126.0</ele><time>2026-05-01T11:31:52.099Z</time></trkpt><trkpt lat="45.4650683" lon="10.4061367"><ele>126.33333333333334</ele><time>2026-05-01T11:31:53.098Z</time></trkpt><trkpt lat="45.4650417" lon="10.4064083"><ele>126.66666666666667</ele><time>2026-05-01T11:31:54.099Z</time></trkpt><trkpt lat="45.465015" lon="10.4066883"><ele>127.0</ele><time>2026-05-01T11:31:55.099Z</time></trkpt><trkpt lat="45.46499" lon="10.4069667"><ele>128.0</ele><time>2026-05-01T11:31:56.098Z</time></trkpt><trkpt lat="45.4649617" lon="10.407255"><ele>129.0</ele><time>2026-05-01T11:31:57.099Z</time></trkpt><trkpt lat="45.464935" lon="10.4075383"><ele>130.0</ele><time>2026-05-01T11:31:58.098Z</time></trkpt><trkpt lat="45.4649083" lon="10.4078233"><ele>130.0</ele><time>2026-05-01T11:31:59.099Z</time></trkpt><trkpt lat="45.4648883" lon="10.4081083"><ele>130.0</ele><time>2026-05-01T11:32:00.099Z</time></trkpt><trkpt lat="45.4648633" lon="10.4083933"><ele>130.0</ele><time>2026-05-01T11:32:01.099Z</time></trkpt><trkpt lat="45.4648433" lon="10.40868"><ele>130.33333333333334</ele><time>2026-05-01T11:32:02.099Z</time></trkpt><trkpt lat="45.464815" lon="10.4089883"><ele>130.66666666666666</ele><time>2026-05-01T11:32:03.098Z</time></trkpt><trkpt lat="45.46479" lon="10.4092933"><ele>131.0</ele><time>2026-05-01T11:32:04.099Z</time></trkpt><trkpt lat="45.46476" lon="10.409605"><ele>131.66666666666666</ele><time>2026-05-01T11:32:05.099Z</time></trkpt><trkpt lat="45.4647367" lon="10.4099233"><ele>132.33333333333334</ele><time>2026-05-01T11:32:06.098Z</time></trkpt><trkpt lat="45.464715" lon="10.41024"><ele>133.0</ele><time>2026-05-01T11:32:07.098Z</time></trkpt><trkpt lat="45.46469" lon="10.41054"><ele>134.0</ele><time>2026-05-01T11:32:08.099Z</time></trkpt><trkpt lat="45.4646633" lon="10.4108383"><ele>135.0</ele><time>2026-05-01T11:32:09.098Z</time></trkpt><trkpt lat="45.4646433" lon="10.4111367"><ele>136.0</ele><time>2026-05-01T11:32:10.098Z</time></trkpt><trkpt lat="45.4646267" lon="10.4114317"><ele>136.66666666666669</ele><time>2026-05-01T11:32:11.098Z</time></trkpt><trkpt lat="45.4646017" lon="10.41173"><ele>137.33333333333334</ele><time>2026-05-01T11:32:12.098Z</time></trkpt><trkpt lat="45.46458" lon="10.4120367"><ele>138.0</ele><time>2026-05-01T11:32:13.099Z</time></trkpt><trkpt lat="45.464555" lon="10.4123417"><ele>138.0</ele><time>2026-05-01T11:32:14.098Z</time></trkpt><trkpt lat="45.46453" lon="10.4126517"><ele>138.0</ele><time>2026-05-01T11:32:15.098Z</time></trkpt><trkpt lat="45.4645017" lon="10.41296"><ele>138.0</ele><time>2026-05-01T11:32:16.098Z</time></trkpt><trkpt lat="45.46448" lon="10.41326"><ele>138.0</ele><time>2026-05-01T11:32:17.098Z</time></trkpt><trkpt lat="45.4644583" lon="10.41355"><ele>138.0</ele><time>2026-05-01T11:32:18.099Z</time></trkpt><trkpt lat="45.464435" lon="10.4138283"><ele>138.0</ele><time>2026-05-01T11:32:19.098Z</time></trkpt><trkpt lat="45.464415" lon="10.4140983"><ele>138.0</ele><time>2026-05-01T11:32:20.099Z</time></trkpt><trkpt lat="45.4643933" lon="10.41437"><ele>138.0</ele><time>2026-05-01T11:32:21.099Z</time></trkpt><trkpt lat="45.464365" lon="10.41466"><ele>138.0</ele><time>2026-05-01T11:32:22.098Z</time></trkpt><trkpt lat="45.46434" lon="10.4149633"><ele>140.0</ele><time>2026-05-01T11:32:23.098Z</time></trkpt><trkpt lat="45.46431" lon="10.41528"><ele>142.0</ele><time>2026-05-01T11:32:24.099Z</time></trkpt><trkpt lat="45.464285" lon="10.4156017"><ele>144.5</ele><time>2026-05-01T11:32:25.099Z</time></trkpt><trkpt lat="45.4642633" lon="10.4159267"><ele>147.0</ele><time>2026-05-01T11:32:26.098Z</time></trkpt><trkpt lat="45.464245" lon="10.4162433"><ele>148.0</ele><time>2026-05-01T11:32:27.099Z</time></trkpt><trkpt lat="45.464195" lon="10.41684"><ele>149.0</ele><time>2026-05-01T11:32:29.098Z</time></trkpt><trkpt lat="45.4641717" lon="10.417125"><ele>149.0</ele><time>2026-05-01T11:32:30.098Z</time></trkpt><trkpt lat="45.46415" lon="10.4173967"><ele>149.0</ele><time>2026-05-01T11:32:31.099Z</time></trkpt><trkpt lat="45.4641217" lon="10.4176483"><ele>149.0</ele><time>2026-05-01T11:32:32.099Z</time></trkpt><trkpt lat="45.4641083" lon="10.4178917"><ele>149.66666666666666</ele><time>2026-05-01T11:32:33.098Z</time></trkpt><trkpt lat="45.464085" lon="10.41813"><ele>150.33333333333334</ele><time>2026-05-01T11:32:34.098Z</time></trkpt><trkpt lat="45.46407" lon="10.4183617"><ele>151.0</ele><time>2026-05-01T11:32:35.098Z</time></trkpt><trkpt lat="45.46405" lon="10.4185817"><ele>151.0</ele><time>2026-05-01T11:32:36.099Z</time></trkpt><trkpt lat="45.46403" lon="10.4187983"><ele>151.0</ele><time>2026-05-01T11:32:37.098Z</time></trkpt><trkpt lat="45.4640117" lon="10.419005"><ele>151.0</ele><time>2026-05-01T11:32:38.098Z</time></trkpt><trkpt lat="45.46399" lon="10.4192067"><ele>151.0</ele><time>2026-05-01T11:32:39.098Z</time></trkpt><trkpt lat="45.46397" lon="10.4194033"><ele>152.25</ele><time>2026-05-01T11:32:40.098Z</time></trkpt><trkpt lat="45.46396" lon="10.4195917"><ele>153.5</ele><time>2026-05-01T11:32:41.098Z</time></trkpt><trkpt lat="45.4639467" lon="10.4197783"><ele>154.75</ele><time>2026-05-01T11:32:42.098Z</time></trkpt><trkpt lat="45.4639317" lon="10.4199667"><ele>156.0</ele><time>2026-05-01T11:32:43.098Z</time></trkpt><trkpt lat="45.4639167" lon="10.420145"><ele>156.75</ele><time>2026-05-01T11:32:44.099Z</time></trkpt><trkpt lat="45.4639" lon="10.4203217"><ele>157.5</ele><time>2026-05-01T11:32:45.098Z</time></trkpt><trkpt lat="45.4638867" lon="10.4204967"><ele>158.25</ele><time>2026-05-01T11:32:46.098Z</time></trkpt><trkpt lat="45.4638767" lon="10.4206667"><ele>159.0</ele><time>2026-05-01T11:32:47.099Z</time></trkpt><trkpt lat="45.4638633" lon="10.4208433"><ele>157.25</ele><time>2026-05-01T11:32:48.099Z</time></trkpt><trkpt lat="45.4638467" lon="10.42103"><ele>155.5</ele><time>2026-05-01T11:32:49.098Z</time></trkpt><trkpt lat="45.4638333" lon="10.4212183"><ele>153.75</ele><time>2026-05-01T11:32:50.098Z</time></trkpt><trkpt lat="45.46381" lon="10.4214167"><ele>152.0</ele><time>2026-05-01T11:32:51.098Z</time></trkpt><trkpt lat="45.46379" lon="10.421615"><ele>150.33333333333331</ele><time>2026-05-01T11:32:52.098Z</time></trkpt><trkpt lat="45.4637717" lon="10.4218217"><ele>148.66666666666666</ele><time>2026-05-01T11:32:53.099Z</time></trkpt><trkpt lat="45.46375" lon="10.42204"><ele>147.0</ele><time>2026-05-01T11:32:54.098Z</time></trkpt><trkpt lat="45.4637283" lon="10.42228"><ele>144.66666666666666</ele><time>2026-05-01T11:32:55.098Z</time></trkpt><trkpt lat="45.4637067" lon="10.4225417"><ele>142.33333333333331</ele><time>2026-05-01T11:32:56.098Z</time></trkpt><trkpt lat="45.46369" lon="10.422805"><ele>140.0</ele><time>2026-05-01T11:32:57.099Z</time></trkpt><trkpt lat="45.4636767" lon="10.42306"><ele>138.66666666666666</ele><time>2026-05-01T11:32:58.098Z</time></trkpt><trkpt lat="45.46366" lon="10.4233"><ele>137.33333333333334</ele><time>2026-05-01T11:32:59.099Z</time></trkpt><trkpt lat="45.4636417" lon="10.42354"><ele>136.0</ele><time>2026-05-01T11:33:00.098Z</time></trkpt><trkpt lat="45.46361" lon="10.423995"><ele>135.33333333333334</ele><time>2026-05-01T11:33:02.099Z</time></trkpt><trkpt lat="45.4635917" lon="10.424235"><ele>134.66666666666666</ele><time>2026-05-01T11:33:03.099Z</time></trkpt><trkpt lat="45.46357" lon="10.4244783"><ele>134.0</ele><time>2026-05-01T11:33:04.098Z</time></trkpt><trkpt lat="45.4635533" lon="10.424725"><ele>132.66666666666666</ele><time>2026-05-01T11:33:05.098Z</time></trkpt><trkpt lat="45.4635317" lon="10.4249867"><ele>131.33333333333334</ele><time>2026-05-01T11:33:06.099Z</time></trkpt><trkpt lat="45.4635117" lon="10.4252533"><ele>130.0</ele><time>2026-05-01T11:33:07.098Z</time></trkpt><trkpt lat="45.4634883" lon="10.4255333"><ele>130.0</ele><time>2026-05-01T11:33:08.098Z</time></trkpt><trkpt lat="45.4634667" lon="10.4258233"><ele>130.0</ele><time>2026-05-01T11:33:09.099Z</time></trkpt><trkpt lat="45.4634417" lon="10.4261217"><ele>130.0</ele><time>2026-05-01T11:33:10.098Z</time></trkpt><trkpt lat="45.4634117" lon="10.4264267"><ele>130.5</ele><time>2026-05-01T11:33:11.099Z</time></trkpt><trkpt lat="45.4633833" lon="10.4267467"><ele>131.0</ele><time>2026-05-01T11:33:12.099Z</time></trkpt><trkpt lat="45.4633583" lon="10.42707"><ele>131.33333333333331</ele><time>2026-05-01T11:33:13.099Z</time></trkpt><trkpt lat="45.463335" lon="10.4273933"><ele>131.66666666666666</ele><time>2026-05-01T11:33:14.098Z</time></trkpt><trkpt lat="45.46331" lon="10.4277067"><ele>132.0</ele><time>2026-05-01T11:33:15.099Z</time></trkpt><trkpt lat="45.463285" lon="10.42801"><ele>132.0</ele><time>2026-05-01T11:33:16.099Z</time></trkpt><trkpt lat="45.4632633" lon="10.4283117"><ele>132.0</ele><time>2026-05-01T11:33:17.099Z</time></trkpt><trkpt lat="45.4632417" lon="10.42862"><ele>132.0</ele><time>2026-05-01T11:33:18.098Z</time></trkpt><trkpt lat="45.4632167" lon="10.42893"><ele>132.0</ele><time>2026-05-01T11:33:19.098Z</time></trkpt><trkpt lat="45.4631883" lon="10.429245"><ele>132.0</ele><time>2026-05-01T11:33:20.098Z</time></trkpt><trkpt lat="45.4631567" lon="10.42956"><ele>132.0</ele><time>2026-05-01T11:33:21.099Z</time></trkpt><trkpt lat="45.4631217" lon="10.4298733"><ele>132.0</ele><time>2026-05-01T11:33:22.099Z</time></trkpt><trkpt lat="45.4630817" lon="10.43019"><ele>132.0</ele><time>2026-05-01T11:33:23.098Z</time></trkpt><trkpt lat="45.463045" lon="10.4305033"><ele>132.0</ele><time>2026-05-01T11:33:24.098Z</time></trkpt><trkpt lat="45.4630017" lon="10.43082"><ele>132.0</ele><time>2026-05-01T11:33:25.098Z</time></trkpt><trkpt lat="45.4629583" lon="10.43114"><ele>132.0</ele><time>2026-05-01T11:33:26.098Z</time></trkpt><trkpt lat="45.4629133" lon="10.4314583"><ele>132.5</ele><time>2026-05-01T11:33:27.098Z</time></trkpt><trkpt lat="45.4628633" lon="10.4317767"><ele>133.0</ele><time>2026-05-01T11:33:28.098Z</time></trkpt><trkpt lat="45.4628067" lon="10.4320983"><ele>133.0</ele><time>2026-05-01T11:33:29.098Z</time></trkpt><trkpt lat="45.4627517" lon="10.4324183"><ele>133.0</ele><time>2026-05-01T11:33:30.098Z</time></trkpt><trkpt lat="45.462695" lon="10.4327383"><ele>132.0</ele><time>2026-05-01T11:33:31.098Z</time></trkpt><trkpt lat="45.4626283" lon="10.43306"><ele>131.0</ele><time>2026-05-01T11:33:32.099Z</time></trkpt><trkpt lat="45.462565" lon="10.4333833"><ele>131.0</ele><time>2026-05-01T11:33:33.099Z</time></trkpt><trkpt lat="45.462495" lon="10.4337083"><ele>131.0</ele><time>2026-05-01T11:33:34.098Z</time></trkpt><trkpt lat="45.462425" lon="10.4340283"><ele>131.33333333333331</ele><time>2026-05-01T11:33:35.098Z</time></trkpt><trkpt lat="45.4623633" lon="10.4343383"><ele>131.66666666666666</ele><time>2026-05-01T11:33:36.099Z</time></trkpt><trkpt lat="45.4623017" lon="10.434635"><ele>132.0</ele><time>2026-05-01T11:33:37.098Z</time></trkpt><trkpt lat="45.462245" lon="10.4349233"><ele>132.0</ele><time>2026-05-01T11:33:38.099Z</time></trkpt><trkpt lat="45.4621833" lon="10.435215"><ele>132.0</ele><time>2026-05-01T11:33:39.099Z</time></trkpt><trkpt lat="45.4621233" lon="10.4355017"><ele>132.0</ele><time>2026-05-01T11:33:40.099Z</time></trkpt><trkpt lat="45.4620667" lon="10.4357817"><ele>131.66666666666666</ele><time>2026-05-01T11:33:41.099Z</time></trkpt><trkpt lat="45.4620133" lon="10.4360483"><ele>131.33333333333331</ele><time>2026-05-01T11:33:42.099Z</time></trkpt><trkpt lat="45.46196" lon="10.4363017"><ele>131.0</ele><time>2026-05-01T11:33:43.098Z</time></trkpt><trkpt lat="45.4619033" lon="10.4365533"><ele>131.0</ele><time>2026-05-01T11:33:44.098Z</time></trkpt><trkpt lat="45.4618533" lon="10.4368017"><ele>131.0</ele><time>2026-05-01T11:33:45.099Z</time></trkpt><trkpt lat="45.4618" lon="10.4370533"><ele>131.0</ele><time>2026-05-01T11:33:46.098Z</time></trkpt><trkpt lat="45.4617483" lon="10.4373083"><ele>131.0</ele><time>2026-05-01T11:33:47.099Z</time></trkpt><trkpt lat="45.461695" lon="10.4375567"><ele>131.0</ele><time>2026-05-01T11:33:48.098Z</time></trkpt><trkpt lat="45.4616367" lon="10.437805"><ele>131.0</ele><time>2026-05-01T11:33:49.098Z</time></trkpt><trkpt lat="45.461585" lon="10.4380517"><ele>130.66666666666666</ele><time>2026-05-01T11:33:50.099Z</time></trkpt><trkpt lat="45.4615383" lon="10.4382817"><ele>130.33333333333334</ele><time>2026-05-01T11:33:51.099Z</time></trkpt><trkpt lat="45.46149" lon="10.4385"><ele>130.0</ele><time>2026-05-01T11:33:52.098Z</time></trkpt><trkpt lat="45.461445" lon="10.43871"><ele>130.33333333333334</ele><time>2026-05-01T11:33:53.098Z</time></trkpt><trkpt lat="45.4614" lon="10.438915"><ele>130.66666666666666</ele><time>2026-05-01T11:33:54.098Z</time></trkpt><trkpt lat="45.461355" lon="10.43912"><ele>131.0</ele><time>2026-05-01T11:33:55.099Z</time></trkpt><trkpt lat="45.4613117" lon="10.4393283"><ele>131.0</ele><time>2026-05-01T11:33:56.099Z</time></trkpt><trkpt lat="45.4612617" lon="10.4395383"><ele>131.0</ele><time>2026-05-01T11:33:57.099Z</time></trkpt><trkpt lat="45.4612133" lon="10.4397583"><ele>131.0</ele><time>2026-05-01T11:33:58.098Z</time></trkpt><trkpt lat="45.4611667" lon="10.4399867"><ele>131.0</ele><time>2026-05-01T11:33:59.098Z</time></trkpt><trkpt lat="45.4611167" lon="10.4402217"><ele>131.0</ele><time>2026-05-01T11:34:00.098Z</time></trkpt><trkpt lat="45.461065" lon="10.4404633"><ele>131.0</ele><time>2026-05-01T11:34:01.099Z</time></trkpt><trkpt lat="45.4610133" lon="10.4407117"><ele>131.66666666666666</ele><time>2026-05-01T11:34:02.098Z</time></trkpt><trkpt lat="45.460965" lon="10.4409517"><ele>132.33333333333334</ele><time>2026-05-01T11:34:03.098Z</time></trkpt><trkpt lat="45.46091" lon="10.441185"><ele>133.0</ele><time>2026-05-01T11:34:04.098Z</time></trkpt><trkpt lat="45.4608083" lon="10.4416717"><ele>133.0</ele><time>2026-05-01T11:34:06.098Z</time></trkpt><trkpt lat="45.4607667" lon="10.4419083"><ele>133.0</ele><time>2026-05-01T11:34:07.098Z</time></trkpt><trkpt lat="45.4607167" lon="10.4421417"><ele>133.0</ele><time>2026-05-01T11:34:08.098Z</time></trkpt><trkpt lat="45.4606667" lon="10.44238"><ele>133.33333333333334</ele><time>2026-05-01T11:34:09.099Z</time></trkpt><trkpt lat="45.46062" lon="10.442625"><ele>133.66666666666666</ele><time>2026-05-01T11:34:10.098Z</time></trkpt><trkpt lat="45.4605667" lon="10.4428817"><ele>134.0</ele><time>2026-05-01T11:34:11.098Z</time></trkpt><trkpt lat="45.46051" lon="10.443135"><ele>134.0</ele><time>2026-05-01T11:34:12.098Z</time></trkpt><trkpt lat="45.4604533" lon="10.443395"><ele>134.0</ele><time>2026-05-01T11:34:13.099Z</time></trkpt><trkpt lat="45.4604" lon="10.4436583"><ele>134.0</ele><time>2026-05-01T11:34:14.099Z</time></trkpt><trkpt lat="45.4602867" lon="10.4441983"><ele>133.66666666666666</ele><time>2026-05-01T11:34:16.098Z</time></trkpt><trkpt lat="45.4602333" lon="10.4444767"><ele>133.33333333333334</ele><time>2026-05-01T11:34:17.098Z</time></trkpt><trkpt lat="45.4601817" lon="10.4447483"><ele>133.0</ele><time>2026-05-01T11:34:18.099Z</time></trkpt><trkpt lat="45.46013" lon="10.445005"><ele>133.0</ele><time>2026-05-01T11:34:19.099Z</time></trkpt><trkpt lat="45.4600833" lon="10.4452517"><ele>133.0</ele><time>2026-05-01T11:34:20.098Z</time></trkpt><trkpt lat="45.4600333" lon="10.4454967"><ele>133.0</ele><time>2026-05-01T11:34:21.098Z</time></trkpt><trkpt lat="45.459985" lon="10.445735"><ele>132.66666666666669</ele><time>2026-05-01T11:34:22.097Z</time></trkpt><trkpt lat="45.459935" lon="10.4459733"><ele>132.33333333333334</ele><time>2026-05-01T11:34:23.097Z</time></trkpt><trkpt lat="45.459885" lon="10.4462133"><ele>132.0</ele><time>2026-05-01T11:34:24.098Z</time></trkpt><trkpt lat="45.4598383" lon="10.44645"><ele>132.0</ele><time>2026-05-01T11:34:25.097Z</time></trkpt><trkpt lat="45.4597917" lon="10.4466833"><ele>132.0</ele><time>2026-05-01T11:34:26.098Z</time></trkpt><trkpt lat="45.45974" lon="10.446905"><ele>132.0</ele><time>2026-05-01T11:34:27.098Z</time></trkpt><trkpt lat="45.4596867" lon="10.447135"><ele>132.0</ele><time>2026-05-01T11:34:28.097Z</time></trkpt><trkpt lat="45.4596367" lon="10.447375"><ele>132.0</ele><time>2026-05-01T11:34:29.097Z</time></trkpt><trkpt lat="45.45958" lon="10.4476167"><ele>132.0</ele><time>2026-05-01T11:34:30.097Z</time></trkpt><trkpt lat="45.4595233" lon="10.4478683"><ele>132.33333333333334</ele><time>2026-05-01T11:34:31.098Z</time></trkpt><trkpt lat="45.4594667" lon="10.4481233"><ele>132.66666666666669</ele><time>2026-05-01T11:34:32.097Z</time></trkpt><trkpt lat="45.4594117" lon="10.4483867"><ele>133.0</ele><time>2026-05-01T11:34:33.098Z</time></trkpt><trkpt lat="45.4593567" lon="10.44865"><ele>133.33333333333334</ele><time>2026-05-01T11:34:34.098Z</time></trkpt><trkpt lat="45.459305" lon="10.4489033"><ele>133.66666666666666</ele><time>2026-05-01T11:34:35.098Z</time></trkpt><trkpt lat="45.4592533" lon="10.4491417"><ele>134.0</ele><time>2026-05-01T11:34:36.097Z</time></trkpt><trkpt lat="45.459205" lon="10.44938"><ele>134.0</ele><time>2026-05-01T11:34:37.098Z</time></trkpt><trkpt lat="45.4591583" lon="10.4496183"><ele>134.0</ele><time>2026-05-01T11:34:38.098Z</time></trkpt><trkpt lat="45.4591083" lon="10.4498583"><ele>134.0</ele><time>2026-05-01T11:34:39.098Z</time></trkpt><trkpt lat="45.45906" lon="10.4500983"><ele>134.33333333333331</ele><time>2026-05-01T11:34:40.098Z</time></trkpt><trkpt lat="45.4590117" lon="10.45034"><ele>134.66666666666666</ele><time>2026-05-01T11:34:41.098Z</time></trkpt><trkpt lat="45.45896" lon="10.450585"><ele>135.0</ele><time>2026-05-01T11:34:42.098Z</time></trkpt><trkpt lat="45.4589067" lon="10.450835"><ele>135.0</ele><time>2026-05-01T11:34:43.097Z</time></trkpt><trkpt lat="45.45886" lon="10.45109"><ele>135.0</ele><time>2026-05-01T11:34:44.098Z</time></trkpt><trkpt lat="45.4588067" lon="10.4513483"><ele>135.0</ele><time>2026-05-01T11:34:45.098Z</time></trkpt><trkpt lat="45.458755" lon="10.4516083"><ele>134.5</ele><time>2026-05-01T11:34:46.098Z</time></trkpt><trkpt lat="45.4587033" lon="10.45187"><ele>134.0</ele><time>2026-05-01T11:34:47.097Z</time></trkpt><trkpt lat="45.4585917" lon="10.4524133"><ele>134.66666666666666</ele><time>2026-05-01T11:34:49.097Z</time></trkpt><trkpt lat="45.458535" lon="10.4526867"><ele>135.33333333333334</ele><time>2026-05-01T11:34:50.097Z</time></trkpt><trkpt lat="45.4584783" lon="10.4529583"><ele>136.0</ele><time>2026-05-01T11:34:51.098Z</time></trkpt><trkpt lat="45.4584167" lon="10.4532367"><ele>136.33333333333334</ele><time>2026-05-01T11:34:52.098Z</time></trkpt><trkpt lat="45.4583533" lon="10.4535133"><ele>136.66666666666666</ele><time>2026-05-01T11:34:53.097Z</time></trkpt><trkpt lat="45.4582867" lon="10.4537933"><ele>137.0</ele><time>2026-05-01T11:34:54.098Z</time></trkpt><trkpt lat="45.4582233" lon="10.45407"><ele>137.33333333333331</ele><time>2026-05-01T11:34:55.098Z</time></trkpt><trkpt lat="45.458155" lon="10.45435"><ele>137.66666666666666</ele><time>2026-05-01T11:34:56.097Z</time></trkpt><trkpt lat="45.4580867" lon="10.454635"><ele>138.0</ele><time>2026-05-01T11:34:57.097Z</time></trkpt><trkpt lat="45.4580133" lon="10.454925"><ele>137.33333333333334</ele><time>2026-05-01T11:34:58.097Z</time></trkpt><trkpt lat="45.45794" lon="10.4552233"><ele>136.66666666666669</ele><time>2026-05-01T11:34:59.097Z</time></trkpt><trkpt lat="45.45787" lon="10.4555167"><ele>136.0</ele><time>2026-05-01T11:35:00.097Z</time></trkpt><trkpt lat="45.457795" lon="10.455815"><ele>136.0</ele><time>2026-05-01T11:35:01.098Z</time></trkpt><trkpt lat="45.4577217" lon="10.4561133"><ele>136.0</ele><time>2026-05-01T11:35:02.098Z</time></trkpt><trkpt lat="45.457645" lon="10.4564183"><ele>136.0</ele><time>2026-05-01T11:35:03.097Z</time></trkpt><trkpt lat="45.45757" lon="10.4567267"><ele>137.0</ele><time>2026-05-01T11:35:04.097Z</time></trkpt><trkpt lat="45.457495" lon="10.4570317"><ele>138.0</ele><time>2026-05-01T11:35:05.098Z</time></trkpt><trkpt lat="45.45742" lon="10.4573267"><ele>139.0</ele><time>2026-05-01T11:35:06.097Z</time></trkpt><trkpt lat="45.4573467" lon="10.4576183"><ele>139.66666666666669</ele><time>2026-05-01T11:35:07.097Z</time></trkpt><trkpt lat="45.457275" lon="10.4579133"><ele>140.33333333333334</ele><time>2026-05-01T11:35:08.098Z</time></trkpt><trkpt lat="45.4572" lon="10.4582133"><ele>141.0</ele><time>2026-05-01T11:35:09.097Z</time></trkpt><trkpt lat="45.4571267" lon="10.4585183"><ele>141.5</ele><time>2026-05-01T11:35:10.098Z</time></trkpt><trkpt lat="45.4570533" lon="10.458825"><ele>142.0</ele><time>2026-05-01T11:35:11.097Z</time></trkpt><trkpt lat="45.4569733" lon="10.459135"><ele>142.0</ele><time>2026-05-01T11:35:12.097Z</time></trkpt><trkpt lat="45.4568967" lon="10.4594483"><ele>142.0</ele><time>2026-05-01T11:35:13.097Z</time></trkpt><trkpt lat="45.4568233" lon="10.4597583"><ele>141.33333333333334</ele><time>2026-05-01T11:35:14.098Z</time></trkpt><trkpt lat="45.4567517" lon="10.4600633"><ele>140.66666666666666</ele><time>2026-05-01T11:35:15.097Z</time></trkpt><trkpt lat="45.4566833" lon="10.460355"><ele>140.0</ele><time>2026-05-01T11:35:16.097Z</time></trkpt><trkpt lat="45.4566133" lon="10.4606383"><ele>139.66666666666666</ele><time>2026-05-01T11:35:17.097Z</time></trkpt><trkpt lat="45.4565467" lon="10.4609267"><ele>139.33333333333334</ele><time>2026-05-01T11:35:18.097Z</time></trkpt><trkpt lat="45.4564717" lon="10.46121"><ele>139.0</ele><time>2026-05-01T11:35:19.098Z</time></trkpt><trkpt lat="45.4563983" lon="10.4614933"><ele>139.0</ele><time>2026-05-01T11:35:20.097Z</time></trkpt><trkpt lat="45.456325" lon="10.46177"><ele>139.0</ele><time>2026-05-01T11:35:21.097Z</time></trkpt><trkpt lat="45.456255" lon="10.4620517"><ele>139.0</ele><time>2026-05-01T11:35:22.097Z</time></trkpt><trkpt lat="45.456185" lon="10.46233"><ele>139.33333333333334</ele><time>2026-05-01T11:35:23.097Z</time></trkpt><trkpt lat="45.4561183" lon="10.4626133"><ele>139.66666666666666</ele><time>2026-05-01T11:35:24.097Z</time></trkpt><trkpt lat="45.45605" lon="10.462895"><ele>140.0</ele><time>2026-05-01T11:35:25.098Z</time></trkpt><trkpt lat="45.4559783" lon="10.463175"><ele>140.33333333333331</ele><time>2026-05-01T11:35:26.098Z</time></trkpt><trkpt lat="45.45591" lon="10.46346"><ele>140.66666666666666</ele><time>2026-05-01T11:35:27.097Z</time></trkpt><trkpt lat="45.4558383" lon="10.4637467"><ele>141.0</ele><time>2026-05-01T11:35:28.097Z</time></trkpt><trkpt lat="45.4557633" lon="10.4640367"><ele>141.66666666666666</ele><time>2026-05-01T11:35:29.098Z</time></trkpt><trkpt lat="45.4556933" lon="10.4643317"><ele>142.33333333333331</ele><time>2026-05-01T11:35:30.097Z</time></trkpt><trkpt lat="45.4556183" lon="10.4646383"><ele>143.0</ele><time>2026-05-01T11:35:31.098Z</time></trkpt><trkpt lat="45.4555433" lon="10.4649433"><ele>143.0</ele><time>2026-05-01T11:35:32.098Z</time></trkpt><trkpt lat="45.4554633" lon="10.465245"><ele>143.0</ele><time>2026-05-01T11:35:33.098Z</time></trkpt><trkpt lat="45.45539" lon="10.4655483"><ele>143.5</ele><time>2026-05-01T11:35:34.097Z</time></trkpt><trkpt lat="45.4553167" lon="10.4658567"><ele>144.0</ele><time>2026-05-01T11:35:35.097Z</time></trkpt><trkpt lat="45.4552383" lon="10.46617"><ele>144.0</ele><time>2026-05-01T11:35:36.097Z</time></trkpt><trkpt lat="45.4551583" lon="10.4664817"><ele>144.0</ele><time>2026-05-01T11:35:37.098Z</time></trkpt><trkpt lat="45.45508" lon="10.466795"><ele>144.0</ele><time>2026-05-01T11:35:38.097Z</time></trkpt><trkpt lat="45.4550067" lon="10.4671083"><ele>144.0</ele><time>2026-05-01T11:35:39.098Z</time></trkpt><trkpt lat="45.4549267" lon="10.467425"><ele>143.5</ele><time>2026-05-01T11:35:40.097Z</time></trkpt><trkpt lat="45.4548517" lon="10.4677383"><ele>143.0</ele><time>2026-05-01T11:35:41.098Z</time></trkpt><trkpt lat="45.4547767" lon="10.46805"><ele>143.0</ele><time>2026-05-01T11:35:42.097Z</time></trkpt><trkpt lat="45.4547" lon="10.4683617"><ele>143.0</ele><time>2026-05-01T11:35:43.098Z</time></trkpt><trkpt lat="45.4546283" lon="10.468675"><ele>144.0</ele><time>2026-05-01T11:35:44.097Z</time></trkpt><trkpt lat="45.45456" lon="10.4689967"><ele>145.0</ele><time>2026-05-01T11:35:45.098Z</time></trkpt><trkpt lat="45.454495" lon="10.4693183"><ele>145.0</ele><time>2026-05-01T11:35:46.098Z</time></trkpt><trkpt lat="45.454435" lon="10.4696417"><ele>145.0</ele><time>2026-05-01T11:35:47.097Z</time></trkpt><trkpt lat="45.45437" lon="10.4699683"><ele>145.0</ele><time>2026-05-01T11:35:48.098Z</time></trkpt><trkpt lat="45.45431" lon="10.4702933"><ele>145.0</ele><time>2026-05-01T11:35:49.098Z</time></trkpt><trkpt lat="45.4542583" lon="10.4706233"><ele>145.0</ele><time>2026-05-01T11:35:50.097Z</time></trkpt><trkpt lat="45.4542117" lon="10.4709517"><ele>145.0</ele><time>2026-05-01T11:35:51.097Z</time></trkpt><trkpt lat="45.45416" lon="10.47129"><ele>146.0</ele><time>2026-05-01T11:35:52.097Z</time></trkpt><trkpt lat="45.4541167" lon="10.4716233"><ele>147.0</ele><time>2026-05-01T11:35:53.098Z</time></trkpt><trkpt lat="45.4540817" lon="10.47196"><ele>146.0</ele><time>2026-05-01T11:35:54.097Z</time></trkpt><trkpt lat="45.454045" lon="10.4723017"><ele>145.0</ele><time>2026-05-01T11:35:55.098Z</time></trkpt><trkpt lat="45.4540067" lon="10.47264"><ele>146.0</ele><time>2026-05-01T11:35:56.097Z</time></trkpt><trkpt lat="45.4539717" lon="10.4729767"><ele>147.0</ele><time>2026-05-01T11:35:57.098Z</time></trkpt><trkpt lat="45.45394" lon="10.4733067"><ele>147.0</ele><time>2026-05-01T11:35:58.098Z</time></trkpt><trkpt lat="45.45391" lon="10.4736333"><ele>147.0</ele><time>2026-05-01T11:35:59.097Z</time></trkpt><trkpt lat="45.4538833" lon="10.4739667"><ele>147.0</ele><time>2026-05-01T11:36:00.097Z</time></trkpt><trkpt lat="45.45385" lon="10.474295"><ele>147.0</ele><time>2026-05-01T11:36:01.097Z</time></trkpt><trkpt lat="45.4538217" lon="10.474625"><ele>147.0</ele><time>2026-05-01T11:36:02.097Z</time></trkpt><trkpt lat="45.4537883" lon="10.4749583"><ele>147.0</ele><time>2026-05-01T11:36:03.097Z</time></trkpt><trkpt lat="45.4537583" lon="10.475285"><ele>147.5</ele><time>2026-05-01T11:36:04.097Z</time></trkpt><trkpt lat="45.4537317" lon="10.4756117"><ele>148.0</ele><time>2026-05-01T11:36:05.097Z</time></trkpt><trkpt lat="45.45371" lon="10.475935"><ele>148.0</ele><time>2026-05-01T11:36:06.097Z</time></trkpt><trkpt lat="45.4536933" lon="10.4762617"><ele>148.0</ele><time>2026-05-01T11:36:07.098Z</time></trkpt><trkpt lat="45.4536767" lon="10.4765917"><ele>149.0</ele><time>2026-05-01T11:36:08.098Z</time></trkpt><trkpt lat="45.4536633" lon="10.4769217"><ele>150.0</ele><time>2026-05-01T11:36:09.097Z</time></trkpt><trkpt lat="45.4536483" lon="10.477255"><ele>150.0</ele><time>2026-05-01T11:36:10.097Z</time></trkpt><trkpt lat="45.4536333" lon="10.47759"><ele>150.0</ele><time>2026-05-01T11:36:11.097Z</time></trkpt><trkpt lat="45.453615" lon="10.477925"><ele>149.5</ele><time>2026-05-01T11:36:12.097Z</time></trkpt><trkpt lat="45.4536017" lon="10.478265"><ele>149.0</ele><time>2026-05-01T11:36:13.097Z</time></trkpt><trkpt lat="45.4535917" lon="10.4785983"><ele>148.5</ele><time>2026-05-01T11:36:14.097Z</time></trkpt><trkpt lat="45.4535767" lon="10.4789367"><ele>148.0</ele><time>2026-05-01T11:36:15.098Z</time></trkpt><trkpt lat="45.45356" lon="10.4792833"><ele>147.0</ele><time>2026-05-01T11:36:16.097Z</time></trkpt><trkpt lat="45.4535433" lon="10.4796217"><ele>146.0</ele><time>2026-05-01T11:36:17.097Z</time></trkpt><trkpt lat="45.4535283" lon="10.4799567"><ele>146.0</ele><time>2026-05-01T11:36:18.098Z</time></trkpt><trkpt lat="45.453515" lon="10.4802783"><ele>146.0</ele><time>2026-05-01T11:36:19.098Z</time></trkpt><trkpt lat="45.4535017" lon="10.4805917"><ele>146.0</ele><time>2026-05-01T11:36:20.097Z</time></trkpt><trkpt lat="45.45349" lon="10.480895"><ele>146.0</ele><time>2026-05-01T11:36:21.097Z</time></trkpt><trkpt lat="45.45348" lon="10.4812"><ele>146.0</ele><time>2026-05-01T11:36:22.097Z</time></trkpt><trkpt lat="45.4534667" lon="10.481505"><ele>146.0</ele><time>2026-05-01T11:36:23.097Z</time></trkpt><trkpt lat="45.4534517" lon="10.481815"><ele>146.5</ele><time>2026-05-01T11:36:24.097Z</time></trkpt><trkpt lat="45.45343" lon="10.4821267"><ele>147.0</ele><time>2026-05-01T11:36:25.098Z</time></trkpt><trkpt lat="45.4533817" lon="10.4827617"><ele>147.66666666666666</ele><time>2026-05-01T11:36:27.097Z</time></trkpt><trkpt lat="45.45336" lon="10.4830783"><ele>148.33333333333331</ele><time>2026-05-01T11:36:28.098Z</time></trkpt><trkpt lat="45.4533333" lon="10.483395"><ele>149.0</ele><time>2026-05-01T11:36:29.098Z</time></trkpt><trkpt lat="45.4533" lon="10.483715"><ele>150.0</ele><time>2026-05-01T11:36:30.097Z</time></trkpt><trkpt lat="45.453265" lon="10.48403"><ele>151.0</ele><time>2026-05-01T11:36:31.097Z</time></trkpt><trkpt lat="45.4532283" lon="10.4843433"><ele>152.0</ele><time>2026-05-01T11:36:32.097Z</time></trkpt><trkpt lat="45.4531933" lon="10.484655"><ele>152.66666666666666</ele><time>2026-05-01T11:36:33.097Z</time></trkpt><trkpt lat="45.453155" lon="10.484965"><ele>153.33333333333334</ele><time>2026-05-01T11:36:34.098Z</time></trkpt><trkpt lat="45.45312" lon="10.4852783"><ele>154.0</ele><time>2026-05-01T11:36:35.097Z</time></trkpt><trkpt lat="45.4530867" lon="10.48559"><ele>157.0</ele><time>2026-05-01T11:36:36.098Z</time></trkpt><trkpt lat="45.4530167" lon="10.4862167"><ele>160.0</ele><time>2026-05-01T11:36:38.097Z</time></trkpt><trkpt lat="45.4529783" lon="10.48653"><ele>160.66666666666669</ele><time>2026-05-01T11:36:39.098Z</time></trkpt><trkpt lat="45.452945" lon="10.4868433"><ele>161.33333333333334</ele><time>2026-05-01T11:36:40.098Z</time></trkpt><trkpt lat="45.4529067" lon="10.48716"><ele>162.0</ele><time>2026-05-01T11:36:41.097Z</time></trkpt><trkpt lat="45.4528683" lon="10.48748"><ele>163.0</ele><time>2026-05-01T11:36:42.097Z</time></trkpt><trkpt lat="45.45283" lon="10.4877933"><ele>164.0</ele><time>2026-05-01T11:36:43.097Z</time></trkpt><trkpt lat="45.4527967" lon="10.4881117"><ele>165.0</ele><time>2026-05-01T11:36:44.098Z</time></trkpt><trkpt lat="45.452765" lon="10.48843"><ele>165.0</ele><time>2026-05-01T11:36:45.097Z</time></trkpt><trkpt lat="45.4527283" lon="10.48875"><ele>165.0</ele><time>2026-05-01T11:36:46.098Z</time></trkpt><trkpt lat="45.4526933" lon="10.4890683"><ele>165.0</ele><time>2026-05-01T11:36:47.098Z</time></trkpt><trkpt lat="45.4526567" lon="10.489385"><ele>165.0</ele><time>2026-05-01T11:36:48.098Z</time></trkpt><trkpt lat="45.4526167" lon="10.4897083"><ele>166.0</ele><time>2026-05-01T11:36:49.097Z</time></trkpt><trkpt lat="45.4525767" lon="10.49002"><ele>167.0</ele><time>2026-05-01T11:36:50.098Z</time></trkpt><trkpt lat="45.45254" lon="10.490335"><ele>168.0</ele><time>2026-05-01T11:36:51.098Z</time></trkpt><trkpt lat="45.4525" lon="10.4906483"><ele>168.66666666666666</ele><time>2026-05-01T11:36:52.098Z</time></trkpt><trkpt lat="45.4524633" lon="10.4909617"><ele>169.33333333333331</ele><time>2026-05-01T11:36:53.098Z</time></trkpt><trkpt lat="45.45243" lon="10.4912783"><ele>170.0</ele><time>2026-05-01T11:36:54.097Z</time></trkpt><trkpt lat="45.452395" lon="10.491595"><ele>170.0</ele><time>2026-05-01T11:36:55.098Z</time></trkpt><trkpt lat="45.45236" lon="10.4919133"><ele>170.0</ele><time>2026-05-01T11:36:56.097Z</time></trkpt><trkpt lat="45.45232" lon="10.4922317"><ele>170.5</ele><time>2026-05-01T11:36:57.097Z</time></trkpt><trkpt lat="45.4522817" lon="10.4925483"><ele>171.0</ele><time>2026-05-01T11:36:58.097Z</time></trkpt><trkpt lat="45.4522467" lon="10.4928667"><ele>173.0</ele><time>2026-05-01T11:36:59.097Z</time></trkpt><trkpt lat="45.452205" lon="10.493185"><ele>175.0</ele><time>2026-05-01T11:37:00.098Z</time></trkpt><trkpt lat="45.4521617" lon="10.4935083"><ele>177.0</ele><time>2026-05-01T11:37:01.098Z</time></trkpt><trkpt lat="45.4521283" lon="10.493835"><ele>179.0</ele><time>2026-05-01T11:37:02.098Z</time></trkpt><trkpt lat="45.45209" lon="10.49416"><ele>179.0</ele><time>2026-05-01T11:37:03.098Z</time></trkpt><trkpt lat="45.4520533" lon="10.4944833"><ele>179.0</ele><time>2026-05-01T11:37:04.097Z</time></trkpt><trkpt lat="45.4520183" lon="10.4948167"><ele>178.5</ele><time>2026-05-01T11:37:05.097Z</time></trkpt><trkpt lat="45.451975" lon="10.4951483"><ele>178.0</ele><time>2026-05-01T11:37:06.098Z</time></trkpt><trkpt lat="45.4519467" lon="10.4954783"><ele>180.0</ele><time>2026-05-01T11:37:07.098Z</time></trkpt><trkpt lat="45.4519033" lon="10.49581"><ele>182.0</ele><time>2026-05-01T11:37:08.098Z</time></trkpt><trkpt lat="45.4518583" lon="10.4961433"><ele>185.0</ele><time>2026-05-01T11:37:09.097Z</time></trkpt><trkpt lat="45.4518167" lon="10.4964817"><ele>188.0</ele><time>2026-05-01T11:37:10.097Z</time></trkpt><trkpt lat="45.4517717" lon="10.4968267"><ele>190.0</ele><time>2026-05-01T11:37:11.098Z</time></trkpt><trkpt lat="45.4517283" lon="10.497165"><ele>192.0</ele><time>2026-05-01T11:37:12.097Z</time></trkpt><trkpt lat="45.4516933" lon="10.4974933"><ele>192.0</ele><time>2026-05-01T11:37:13.098Z</time></trkpt><trkpt lat="45.4516617" lon="10.4978217"><ele>192.0</ele><time>2026-05-01T11:37:14.098Z</time></trkpt><trkpt lat="45.4516333" lon="10.4981433"><ele>191.0</ele><time>2026-05-01T11:37:15.097Z</time></trkpt><trkpt lat="45.4515967" lon="10.4984717"><ele>190.0</ele><time>2026-05-01T11:37:16.098Z</time></trkpt><trkpt lat="45.4515667" lon="10.4988083"><ele>186.5</ele><time>2026-05-01T11:37:17.097Z</time></trkpt><trkpt lat="45.4515433" lon="10.4991433"><ele>183.0</ele><time>2026-05-01T11:37:18.097Z</time></trkpt><trkpt lat="45.4515167" lon="10.4994817"><ele>180.5</ele><time>2026-05-01T11:37:19.098Z</time></trkpt><trkpt lat="45.451475" lon="10.499825"><ele>178.0</ele><time>2026-05-01T11:37:20.098Z</time></trkpt><trkpt lat="45.4514383" lon="10.5001833"><ele>177.0</ele><time>2026-05-01T11:37:21.097Z</time></trkpt><trkpt lat="45.4514067" lon="10.5005333"><ele>176.0</ele><time>2026-05-01T11:37:22.098Z</time></trkpt><trkpt lat="45.45138" lon="10.5008833"><ele>176.0</ele><time>2026-05-01T11:37:23.098Z</time></trkpt><trkpt lat="45.4513467" lon="10.5012217"><ele>176.0</ele><time>2026-05-01T11:37:24.097Z</time></trkpt><trkpt lat="45.451315" lon="10.50156"><ele>173.0</ele><time>2026-05-01T11:37:25.098Z</time></trkpt><trkpt lat="45.4512817" lon="10.5018883"><ele>170.0</ele><time>2026-05-01T11:37:26.097Z</time></trkpt><trkpt lat="45.451255" lon="10.5022167"><ele>170.0</ele><time>2026-05-01T11:37:27.097Z</time></trkpt><trkpt lat="45.4512267" lon="10.502555"><ele>170.0</ele><time>2026-05-01T11:37:28.097Z</time></trkpt><trkpt lat="45.4511917" lon="10.5028967"><ele>171.0</ele><time>2026-05-01T11:37:29.097Z</time></trkpt><trkpt lat="45.4511567" lon="10.5032367"><ele>172.0</ele><time>2026-05-01T11:37:30.097Z</time></trkpt><trkpt lat="45.45113" lon="10.5035733"><ele>171.0</ele><time>2026-05-01T11:37:31.097Z</time></trkpt><trkpt lat="45.4510933" lon="10.50392"><ele>170.0</ele><time>2026-05-01T11:37:32.097Z</time></trkpt><trkpt lat="45.4510617" lon="10.504265"><ele>168.5</ele><time>2026-05-01T11:37:33.097Z</time></trkpt><trkpt lat="45.45103" lon="10.50462"><ele>167.0</ele><time>2026-05-01T11:37:34.097Z</time></trkpt><trkpt lat="45.4509933" lon="10.5049717"><ele>167.0</ele><time>2026-05-01T11:37:35.098Z</time></trkpt><trkpt lat="45.4509583" lon="10.505315"><ele>167.0</ele><time>2026-05-01T11:37:36.098Z</time></trkpt><trkpt lat="45.45089" lon="10.50601"><ele>166.0</ele><time>2026-05-01T11:37:38.097Z</time></trkpt><trkpt lat="45.45086" lon="10.50635"><ele>165.0</ele><time>2026-05-01T11:37:39.097Z</time></trkpt><trkpt lat="45.45083" lon="10.5066817"><ele>165.0</ele><time>2026-05-01T11:37:40.098Z</time></trkpt><trkpt lat="45.4508033" lon="10.50701"><ele>165.0</ele><time>2026-05-01T11:37:41.097Z</time></trkpt><trkpt lat="45.450775" lon="10.5073383"><ele>164.5</ele><time>2026-05-01T11:37:42.098Z</time></trkpt><trkpt lat="45.4507467" lon="10.5076667"><ele>164.0</ele><time>2026-05-01T11:37:43.097Z</time></trkpt><trkpt lat="45.4507117" lon="10.508"><ele>163.5</ele><time>2026-05-01T11:37:44.097Z</time></trkpt><trkpt lat="45.4506783" lon="10.5083367"><ele>163.0</ele><time>2026-05-01T11:37:45.097Z</time></trkpt><trkpt lat="45.450645" lon="10.50868"><ele>162.0</ele><time>2026-05-01T11:37:46.097Z</time></trkpt><trkpt lat="45.4506133" lon="10.50902"><ele>161.0</ele><time>2026-05-01T11:37:47.098Z</time></trkpt><trkpt lat="45.45058" lon="10.5093567"><ele>159.0</ele><time>2026-05-01T11:37:48.097Z</time></trkpt><trkpt lat="45.450555" lon="10.5096933"><ele>157.0</ele><time>2026-05-01T11:37:49.098Z</time></trkpt><trkpt lat="45.4505283" lon="10.51003"><ele>157.0</ele><time>2026-05-01T11:37:50.098Z</time></trkpt><trkpt lat="45.45049" lon="10.510365"><ele>157.0</ele><time>2026-05-01T11:37:51.098Z</time></trkpt><trkpt lat="45.4504567" lon="10.5107033"><ele>152.5</ele><time>2026-05-01T11:37:52.097Z</time></trkpt><trkpt lat="45.4504233" lon="10.511045"><ele>148.0</ele><time>2026-05-01T11:37:53.097Z</time></trkpt><trkpt lat="45.4503867" lon="10.5113883"><ele>146.5</ele><time>2026-05-01T11:37:54.098Z</time></trkpt><trkpt lat="45.4503533" lon="10.51174"><ele>145.0</ele><time>2026-05-01T11:37:55.097Z</time></trkpt><trkpt lat="45.450315" lon="10.5120967"><ele>142.5</ele><time>2026-05-01T11:37:56.097Z</time></trkpt><trkpt lat="45.4502783" lon="10.5124467"><ele>140.0</ele><time>2026-05-01T11:37:57.098Z</time></trkpt><trkpt lat="45.4502183" lon="10.5131417"><ele>139.5</ele><time>2026-05-01T11:37:59.098Z</time></trkpt><trkpt lat="45.4501933" lon="10.5134767"><ele>139.0</ele><time>2026-05-01T11:38:00.097Z</time></trkpt><trkpt lat="45.4501633" lon="10.5138183"><ele>137.5</ele><time>2026-05-01T11:38:01.098Z</time></trkpt><trkpt lat="45.4501317" lon="10.5141583"><ele>136.0</ele><time>2026-05-01T11:38:02.098Z</time></trkpt><trkpt lat="45.4500967" lon="10.514505"><ele>135.5</ele><time>2026-05-01T11:38:03.098Z</time></trkpt><trkpt lat="45.450065" lon="10.5148533"><ele>135.0</ele><time>2026-05-01T11:38:04.098Z</time></trkpt><trkpt lat="45.4500333" lon="10.5152033"><ele>135.0</ele><time>2026-05-01T11:38:05.097Z</time></trkpt><trkpt lat="45.4499983" lon="10.515555"><ele>135.0</ele><time>2026-05-01T11:38:06.097Z</time></trkpt><trkpt lat="45.4499617" lon="10.5159117"><ele>134.5</ele><time>2026-05-01T11:38:07.098Z</time></trkpt><trkpt lat="45.449925" lon="10.5162667"><ele>134.0</ele><time>2026-05-01T11:38:08.098Z</time></trkpt><trkpt lat="45.44989" lon="10.51662"><ele>134.0</ele><time>2026-05-01T11:38:09.097Z</time></trkpt><trkpt lat="45.4498483" lon="10.516975"><ele>134.0</ele><time>2026-05-01T11:38:10.097Z</time></trkpt><trkpt lat="45.44982" lon="10.517325"><ele>133.5</ele><time>2026-05-01T11:38:11.098Z</time></trkpt><trkpt lat="45.44979" lon="10.51767"><ele>133.0</ele><time>2026-05-01T11:38:12.098Z</time></trkpt><trkpt lat="45.449755" lon="10.51802"><ele>133.0</ele><time>2026-05-01T11:38:13.097Z</time></trkpt><trkpt lat="45.44972" lon="10.51837"><ele>133.0</ele><time>2026-05-01T11:38:14.097Z</time></trkpt><trkpt lat="45.44969" lon="10.5187233"><ele>134.0</ele><time>2026-05-01T11:38:15.097Z</time></trkpt><trkpt lat="45.4496583" lon="10.5190683"><ele>135.0</ele><time>2026-05-01T11:38:16.097Z</time></trkpt><trkpt lat="45.4496267" lon="10.5194183"><ele>135.0</ele><time>2026-05-01T11:38:17.097Z</time></trkpt><trkpt lat="45.4495983" lon="10.519765"><ele>135.0</ele><time>2026-05-01T11:38:18.097Z</time></trkpt><trkpt lat="45.449565" lon="10.52011"><ele>137.0</ele><time>2026-05-01T11:38:19.097Z</time></trkpt><trkpt lat="45.4495017" lon="10.5207917"><ele>137.0</ele><time>2026-05-01T11:38:21.098Z</time></trkpt><trkpt lat="45.4494617" lon="10.521145"><ele>137.0</ele><time>2026-05-01T11:38:22.098Z</time></trkpt><trkpt lat="45.449425" lon="10.5215033"><ele>136.0</ele><time>2026-05-01T11:38:23.097Z</time></trkpt><trkpt lat="45.4493883" lon="10.5218617"><ele>135.0</ele><time>2026-05-01T11:38:24.097Z</time></trkpt><trkpt lat="45.4493567" lon="10.52222"><ele>134.5</ele><time>2026-05-01T11:38:25.098Z</time></trkpt><trkpt lat="45.4493183" lon="10.5225817"><ele>134.0</ele><time>2026-05-01T11:38:26.097Z</time></trkpt><trkpt lat="45.449275" lon="10.5229517"><ele>134.0</ele><time>2026-05-01T11:38:27.098Z</time></trkpt><trkpt lat="45.4492283" lon="10.5233267"><ele>134.0</ele><time>2026-05-01T11:38:28.098Z</time></trkpt><trkpt lat="45.4491767" lon="10.5236983"><ele>137.0</ele><time>2026-05-01T11:38:29.098Z</time></trkpt><trkpt lat="45.4491283" lon="10.5240717"><ele>140.0</ele><time>2026-05-01T11:38:30.098Z</time></trkpt><trkpt lat="45.4490783" lon="10.5244533"><ele>138.5</ele><time>2026-05-01T11:38:31.097Z</time></trkpt><trkpt lat="45.4490233" lon="10.524835"><ele>137.0</ele><time>2026-05-01T11:38:32.098Z</time></trkpt><trkpt lat="45.448965" lon="10.5252133"><ele>132.0</ele><time>2026-05-01T11:38:33.097Z</time></trkpt><trkpt lat="45.4489033" lon="10.525595"><ele>127.0</ele><time>2026-05-01T11:38:34.098Z</time></trkpt><trkpt lat="45.4488383" lon="10.5259717"><ele>123.5</ele><time>2026-05-01T11:38:35.097Z</time></trkpt><trkpt lat="45.4487733" lon="10.5263383"><ele>120.0</ele><time>2026-05-01T11:38:36.097Z</time></trkpt><trkpt lat="45.44871" lon="10.5267017"><ele>119.0</ele><time>2026-05-01T11:38:37.098Z</time></trkpt><trkpt lat="45.4486383" lon="10.5270617"><ele>118.0</ele><time>2026-05-01T11:38:38.097Z</time></trkpt><trkpt lat="45.4485683" lon="10.52741"><ele>118.0</ele><time>2026-05-01T11:38:39.098Z</time></trkpt><trkpt lat="45.4484883" lon="10.52775"><ele>118.0</ele><time>2026-05-01T11:38:40.097Z</time></trkpt><trkpt lat="45.448415" lon="10.5280917"><ele>117.5</ele><time>2026-05-01T11:38:41.097Z</time></trkpt><trkpt lat="45.4483367" lon="10.52844"><ele>117.0</ele><time>2026-05-01T11:38:42.098Z</time></trkpt><trkpt lat="45.4482617" lon="10.5287733"><ele>116.0</ele><time>2026-05-01T11:38:43.098Z</time></trkpt><trkpt lat="45.448185" lon="10.5291017"><ele>115.0</ele><time>2026-05-01T11:38:44.098Z</time></trkpt><trkpt lat="45.4481017" lon="10.529435"><ele>115.0</ele><time>2026-05-01T11:38:45.098Z</time></trkpt><trkpt lat="45.44802" lon="10.52978"><ele>115.0</ele><time>2026-05-01T11:38:46.097Z</time></trkpt><trkpt lat="45.4479333" lon="10.5301083"><ele>115.0</ele><time>2026-05-01T11:38:47.098Z</time></trkpt><trkpt lat="45.4477533" lon="10.53077"><ele>115.0</ele><time>2026-05-01T11:38:49.097Z</time></trkpt><trkpt lat="45.4476667" lon="10.5311017"><ele>115.0</ele><time>2026-05-01T11:38:50.097Z</time></trkpt><trkpt lat="45.4475733" lon="10.5314433"><ele>115.0</ele><time>2026-05-01T11:38:51.097Z</time></trkpt><trkpt lat="45.4474717" lon="10.531785"><ele>115.0</ele><time>2026-05-01T11:38:52.097Z</time></trkpt><trkpt lat="45.4473617" lon="10.5321267"><ele>114.0</ele><time>2026-05-01T11:38:53.098Z</time></trkpt><trkpt lat="45.4472533" lon="10.53247"><ele>113.0</ele><time>2026-05-01T11:38:54.098Z</time></trkpt><trkpt lat="45.4471467" lon="10.5328083"><ele>113.0</ele><time>2026-05-01T11:38:55.098Z</time></trkpt><trkpt lat="45.4470417" lon="10.533145"><ele>113.0</ele><time>2026-05-01T11:38:56.097Z</time></trkpt><trkpt lat="45.4469383" lon="10.5334833"><ele>113.0</ele><time>2026-05-01T11:38:57.098Z</time></trkpt><trkpt lat="45.446835" lon="10.5338133"><ele>113.0</ele><time>2026-05-01T11:38:58.098Z</time></trkpt><trkpt lat="45.446735" lon="10.53414"><ele>113.0</ele><time>2026-05-01T11:38:59.097Z</time></trkpt><trkpt lat="45.446635" lon="10.5344633"><ele>113.0</ele><time>2026-05-01T11:39:00.097Z</time></trkpt><trkpt lat="45.44654" lon="10.5347883"><ele>114.0</ele><time>2026-05-01T11:39:01.097Z</time></trkpt><trkpt lat="45.446445" lon="10.5351083"><ele>115.0</ele><time>2026-05-01T11:39:02.097Z</time></trkpt><trkpt lat="45.4463533" lon="10.5354217"><ele>114.0</ele><time>2026-05-01T11:39:03.098Z</time></trkpt><trkpt lat="45.446255" lon="10.5357383"><ele>113.0</ele><time>2026-05-01T11:39:04.097Z</time></trkpt><trkpt lat="45.4461717" lon="10.536065"><ele>114.0</ele><time>2026-05-01T11:39:05.097Z</time></trkpt><trkpt lat="45.4460883" lon="10.536395"><ele>115.0</ele><time>2026-05-01T11:39:06.097Z</time></trkpt><trkpt lat="45.445995" lon="10.5367317"><ele>114.0</ele><time>2026-05-01T11:39:07.097Z</time></trkpt><trkpt lat="45.44591" lon="10.53708"><ele>113.0</ele><time>2026-05-01T11:39:08.098Z</time></trkpt><trkpt lat="45.445825" lon="10.5374333"><ele>113.0</ele><time>2026-05-01T11:39:09.097Z</time></trkpt><trkpt lat="45.4457417" lon="10.5377833"><ele>113.0</ele><time>2026-05-01T11:39:10.097Z</time></trkpt><trkpt lat="45.4456583" lon="10.538145"><ele>111.5</ele><time>2026-05-01T11:39:11.097Z</time></trkpt><trkpt lat="45.4455817" lon="10.5384967"><ele>110.0</ele><time>2026-05-01T11:39:12.097Z</time></trkpt><trkpt lat="45.4455133" lon="10.5388467"><ele>111.0</ele><time>2026-05-01T11:39:13.098Z</time></trkpt><trkpt lat="45.4454433" lon="10.5391983"><ele>112.0</ele><time>2026-05-01T11:39:14.098Z</time></trkpt><trkpt lat="45.4453683" lon="10.539555"><ele>110.0</ele><time>2026-05-01T11:39:15.097Z</time></trkpt><trkpt lat="45.445305" lon="10.5399083"><ele>108.0</ele><time>2026-05-01T11:39:16.097Z</time></trkpt><trkpt lat="45.4452367" lon="10.5402567"><ele>106.0</ele><time>2026-05-01T11:39:17.097Z</time></trkpt><trkpt lat="45.445175" lon="10.5406033"><ele>104.0</ele><time>2026-05-01T11:39:18.097Z</time></trkpt><trkpt lat="45.4450433" lon="10.5413017"><ele>103.0</ele><time>2026-05-01T11:39:20.098Z</time></trkpt><trkpt lat="45.44498" lon="10.5416517"><ele>102.0</ele><time>2026-05-01T11:39:21.097Z</time></trkpt><trkpt lat="45.4449133" lon="10.5419917"><ele>102.5</ele><time>2026-05-01T11:39:22.097Z</time></trkpt><trkpt lat="45.4448533" lon="10.5423333"><ele>103.0</ele><time>2026-05-01T11:39:23.097Z</time></trkpt><trkpt lat="45.4447917" lon="10.5426733"><ele>102.0</ele><time>2026-05-01T11:39:24.098Z</time></trkpt><trkpt lat="45.44473" lon="10.5430083"><ele>101.0</ele><time>2026-05-01T11:39:25.097Z</time></trkpt><trkpt lat="45.444665" lon="10.54334"><ele>101.5</ele><time>2026-05-01T11:39:26.097Z</time></trkpt><trkpt lat="45.4446017" lon="10.54368"><ele>102.0</ele><time>2026-05-01T11:39:27.098Z</time></trkpt><trkpt lat="45.44454" lon="10.544015"><ele>102.5</ele><time>2026-05-01T11:39:28.098Z</time></trkpt><trkpt lat="45.4444767" lon="10.5443517"><ele>103.0</ele><time>2026-05-01T11:39:29.098Z</time></trkpt><trkpt lat="45.4444167" lon="10.5446917"><ele>103.5</ele><time>2026-05-01T11:39:30.098Z</time></trkpt><trkpt lat="45.4443567" lon="10.54503"><ele>104.0</ele><time>2026-05-01T11:39:31.097Z</time></trkpt><trkpt lat="45.4442933" lon="10.545375"><ele>103.5</ele><time>2026-05-01T11:39:32.098Z</time></trkpt><trkpt lat="45.44423" lon="10.5457233"><ele>103.0</ele><time>2026-05-01T11:39:33.097Z</time></trkpt><trkpt lat="45.444165" lon="10.546075"><ele>101.0</ele><time>2026-05-01T11:39:34.098Z</time></trkpt><trkpt lat="45.444105" lon="10.5464233"><ele>99.0</ele><time>2026-05-01T11:39:35.098Z</time></trkpt><trkpt lat="45.4440367" lon="10.5467783"><ele>97.0</ele><time>2026-05-01T11:39:36.098Z</time></trkpt><trkpt lat="45.44397" lon="10.5471417"><ele>95.0</ele><time>2026-05-01T11:39:37.097Z</time></trkpt><trkpt lat="45.4438967" lon="10.5475017"><ele>95.0</ele><time>2026-05-01T11:39:38.097Z</time></trkpt><trkpt lat="45.44383" lon="10.5478567"><ele>95.0</ele><time>2026-05-01T11:39:39.097Z</time></trkpt><trkpt lat="45.4437633" lon="10.548205"><ele>93.0</ele><time>2026-05-01T11:39:40.097Z</time></trkpt><trkpt lat="45.4437017" lon="10.5485367"><ele>91.0</ele><time>2026-05-01T11:39:41.098Z</time></trkpt><trkpt lat="45.4436383" lon="10.548865"><ele>90.5</ele><time>2026-05-01T11:39:42.097Z</time></trkpt><trkpt lat="45.4435733" lon="10.549195"><ele>90.0</ele><time>2026-05-01T11:39:43.098Z</time></trkpt><trkpt lat="45.4435083" lon="10.5495267"><ele>89.5</ele><time>2026-05-01T11:39:44.098Z</time></trkpt><trkpt lat="45.44345" lon="10.5498583"><ele>89.0</ele><time>2026-05-01T11:39:45.097Z</time></trkpt><trkpt lat="45.44339" lon="10.550185"><ele>89.0</ele><time>2026-05-01T11:39:46.098Z</time></trkpt><trkpt lat="45.4433267" lon="10.5505217"><ele>89.0</ele><time>2026-05-01T11:39:47.098Z</time></trkpt><trkpt lat="45.4432617" lon="10.5508567"><ele>89.0</ele><time>2026-05-01T11:39:48.098Z</time></trkpt><trkpt lat="45.4432017" lon="10.5511883"><ele>89.0</ele><time>2026-05-01T11:39:49.097Z</time></trkpt><trkpt lat="45.4431433" lon="10.551525"><ele>89.0</ele><time>2026-05-01T11:39:50.098Z</time></trkpt><trkpt lat="45.4430783" lon="10.55186"><ele>89.0</ele><time>2026-05-01T11:39:51.098Z</time></trkpt><trkpt lat="45.4430217" lon="10.5521933"><ele>89.0</ele><time>2026-05-01T11:39:52.097Z</time></trkpt><trkpt lat="45.442965" lon="10.552525"><ele>89.0</ele><time>2026-05-01T11:39:53.098Z</time></trkpt><trkpt lat="45.442905" lon="10.5528583"><ele>88.5</ele><time>2026-05-01T11:39:54.098Z</time></trkpt><trkpt lat="45.4428367" lon="10.5532017"><ele>88.0</ele><time>2026-05-01T11:39:55.097Z</time></trkpt><trkpt lat="45.4427733" lon="10.5535517"><ele>88.0</ele><time>2026-05-01T11:39:56.098Z</time></trkpt><trkpt lat="45.4427117" lon="10.5538983"><ele>88.0</ele><time>2026-05-01T11:39:57.097Z</time></trkpt><trkpt lat="45.44265" lon="10.5542483"><ele>88.0</ele><time>2026-05-01T11:39:58.098Z</time></trkpt><trkpt lat="45.4425833" lon="10.5546017"><ele>88.0</ele><time>2026-05-01T11:39:59.098Z</time></trkpt><trkpt lat="45.442515" lon="10.55496"><ele>88.0</ele><time>2026-05-01T11:40:00.097Z</time></trkpt><trkpt lat="45.44245" lon="10.555315"><ele>88.0</ele><time>2026-05-01T11:40:01.098Z</time></trkpt><trkpt lat="45.4423817" lon="10.555665"><ele>88.0</ele><time>2026-05-01T11:40:02.098Z</time></trkpt><trkpt lat="45.4423117" lon="10.5560183"><ele>88.0</ele><time>2026-05-01T11:40:03.098Z</time></trkpt><trkpt lat="45.4422483" lon="10.5563667"><ele>87.0</ele><time>2026-05-01T11:40:04.097Z</time></trkpt><trkpt lat="45.4421867" lon="10.5567083"><ele>86.0</ele><time>2026-05-01T11:40:05.097Z</time></trkpt><trkpt lat="45.442125" lon="10.5570517"><ele>85.5</ele><time>2026-05-01T11:40:06.097Z</time></trkpt><trkpt lat="45.4420667" lon="10.5573967"><ele>85.0</ele><time>2026-05-01T11:40:07.097Z</time></trkpt><trkpt lat="45.4420033" lon="10.5577433"><ele>85.0</ele><time>2026-05-01T11:40:08.097Z</time></trkpt><trkpt lat="45.4419367" lon="10.55809"><ele>85.0</ele><time>2026-05-01T11:40:09.098Z</time></trkpt><trkpt lat="45.4418733" lon="10.5584383"><ele>86.0</ele><time>2026-05-01T11:40:10.098Z</time></trkpt><trkpt lat="45.4418067" lon="10.55879"><ele>87.0</ele><time>2026-05-01T11:40:11.098Z</time></trkpt><trkpt lat="45.4417417" lon="10.5591383"><ele>87.0</ele><time>2026-05-01T11:40:12.098Z</time></trkpt><trkpt lat="45.4416783" lon="10.559485"><ele>87.0</ele><time>2026-05-01T11:40:13.097Z</time></trkpt><trkpt lat="45.4416033" lon="10.5598383"><ele>87.0</ele><time>2026-05-01T11:40:14.098Z</time></trkpt><trkpt lat="45.4415417" lon="10.56019"><ele>87.0</ele><time>2026-05-01T11:40:15.097Z</time></trkpt><trkpt lat="45.44141" lon="10.5608933"><ele>87.0</ele><time>2026-05-01T11:40:17.098Z</time></trkpt><trkpt lat="45.4413467" lon="10.5612483"><ele>87.0</ele><time>2026-05-01T11:40:18.098Z</time></trkpt><trkpt lat="45.44128" lon="10.561605"><ele>88.5</ele><time>2026-05-01T11:40:19.098Z</time></trkpt><trkpt lat="45.4412133" lon="10.5619617"><ele>90.0</ele><time>2026-05-01T11:40:20.098Z</time></trkpt><trkpt lat="45.4411467" lon="10.562315"><ele>90.0</ele><time>2026-05-01T11:40:21.097Z</time></trkpt><trkpt lat="45.4410783" lon="10.562675"><ele>90.0</ele><time>2026-05-01T11:40:22.097Z</time></trkpt><trkpt lat="45.4410117" lon="10.563035"><ele>89.5</ele><time>2026-05-01T11:40:23.098Z</time></trkpt><trkpt lat="45.4409483" lon="10.563395"><ele>89.0</ele><time>2026-05-01T11:40:24.097Z</time></trkpt><trkpt lat="45.44088" lon="10.5637517"><ele>88.0</ele><time>2026-05-01T11:40:25.098Z</time></trkpt><trkpt lat="45.4408133" lon="10.56411"><ele>87.0</ele><time>2026-05-01T11:40:26.098Z</time></trkpt><trkpt lat="45.4407467" lon="10.5644617"><ele>88.0</ele><time>2026-05-01T11:40:27.097Z</time></trkpt><trkpt lat="45.440615" lon="10.56517"><ele>88.0</ele><time>2026-05-01T11:40:29.097Z</time></trkpt><trkpt lat="45.4405517" lon="10.5655217"><ele>88.0</ele><time>2026-05-01T11:40:30.097Z</time></trkpt><trkpt lat="45.4404833" lon="10.5658767"><ele>87.0</ele><time>2026-05-01T11:40:31.097Z</time></trkpt><trkpt lat="45.4404183" lon="10.5662383"><ele>86.0</ele><time>2026-05-01T11:40:32.098Z</time></trkpt><trkpt lat="45.4403517" lon="10.5665917"><ele>86.0</ele><time>2026-05-01T11:40:33.097Z</time></trkpt><trkpt lat="45.4402883" lon="10.566945"><ele>86.0</ele><time>2026-05-01T11:40:34.097Z</time></trkpt><trkpt lat="45.440225" lon="10.5672917"><ele>86.5</ele><time>2026-05-01T11:40:35.097Z</time></trkpt><trkpt lat="45.4401633" lon="10.5676267"><ele>87.0</ele><time>2026-05-01T11:40:36.098Z</time></trkpt><trkpt lat="45.4400983" lon="10.5679683"><ele>88.0</ele><time>2026-05-01T11:40:37.097Z</time></trkpt><trkpt lat="45.4400317" lon="10.5683083"><ele>89.0</ele><time>2026-05-01T11:40:38.097Z</time></trkpt><trkpt lat="45.43997" lon="10.568655"><ele>88.5</ele><time>2026-05-01T11:40:39.097Z</time></trkpt><trkpt lat="45.4399083" lon="10.569005"><ele>88.0</ele><time>2026-05-01T11:40:40.097Z</time></trkpt><trkpt lat="45.4398467" lon="10.5693467"><ele>88.0</ele><time>2026-05-01T11:40:41.097Z</time></trkpt><trkpt lat="45.4397817" lon="10.5696933"><ele>88.0</ele><time>2026-05-01T11:40:42.098Z</time></trkpt><trkpt lat="45.4397167" lon="10.57004"><ele>87.5</ele><time>2026-05-01T11:40:43.098Z</time></trkpt><trkpt lat="45.4396517" lon="10.5703883"><ele>87.0</ele><time>2026-05-01T11:40:44.098Z</time></trkpt><trkpt lat="45.43959" lon="10.570735"><ele>87.0</ele><time>2026-05-01T11:40:45.097Z</time></trkpt><trkpt lat="45.4395217" lon="10.5710867"><ele>87.0</ele><time>2026-05-01T11:40:46.097Z</time></trkpt><trkpt lat="45.4394533" lon="10.5714417"><ele>86.0</ele><time>2026-05-01T11:40:47.097Z</time></trkpt><trkpt lat="45.4393867" lon="10.5717933"><ele>85.0</ele><time>2026-05-01T11:40:48.097Z</time></trkpt><trkpt lat="45.4393217" lon="10.5721467"><ele>85.0</ele><time>2026-05-01T11:40:49.097Z</time></trkpt><trkpt lat="45.4391933" lon="10.5728533"><ele>86.0</ele><time>2026-05-01T11:40:51.097Z</time></trkpt><trkpt lat="45.4391267" lon="10.5732067"><ele>87.0</ele><time>2026-05-01T11:40:52.097Z</time></trkpt><trkpt lat="45.4390617" lon="10.5735583"><ele>86.5</ele><time>2026-05-01T11:40:53.098Z</time></trkpt><trkpt lat="45.4389983" lon="10.5739117"><ele>86.0</ele><time>2026-05-01T11:40:54.097Z</time></trkpt><trkpt lat="45.4388667" lon="10.574605"><ele>86.0</ele><time>2026-05-01T11:40:56.098Z</time></trkpt><trkpt lat="45.4388033" lon="10.5749467"><ele>86.0</ele><time>2026-05-01T11:40:57.097Z</time></trkpt><trkpt lat="45.43874" lon="10.57529"><ele>87.0</ele><time>2026-05-01T11:40:58.097Z</time></trkpt><trkpt lat="45.438675" lon="10.57564"><ele>88.0</ele><time>2026-05-01T11:40:59.097Z</time></trkpt><trkpt lat="45.43861" lon="10.57599"><ele>87.5</ele><time>2026-05-01T11:41:00.097Z</time></trkpt><trkpt lat="45.438545" lon="10.576335"><ele>87.0</ele><time>2026-05-01T11:41:01.097Z</time></trkpt><trkpt lat="45.4384833" lon="10.576675"><ele>87.0</ele><time>2026-05-01T11:41:02.098Z</time></trkpt><trkpt lat="45.438425" lon="10.5770083"><ele>87.0</ele><time>2026-05-01T11:41:03.097Z</time></trkpt><trkpt lat="45.4383617" lon="10.577345"><ele>86.5</ele><time>2026-05-01T11:41:04.097Z</time></trkpt><trkpt lat="45.4382967" lon="10.5776783"><ele>86.0</ele><time>2026-05-01T11:41:05.097Z</time></trkpt><trkpt lat="45.438235" lon="10.578015"><ele>86.0</ele><time>2026-05-01T11:41:06.098Z</time></trkpt><trkpt lat="45.438175" lon="10.57835"><ele>86.0</ele><time>2026-05-01T11:41:07.097Z</time></trkpt><trkpt lat="45.4381083" lon="10.5786867"><ele>86.5</ele><time>2026-05-01T11:41:08.097Z</time></trkpt><trkpt lat="45.4380383" lon="10.57903"><ele>87.0</ele><time>2026-05-01T11:41:09.098Z</time></trkpt><trkpt lat="45.4379767" lon="10.57938"><ele>85.0</ele><time>2026-05-01T11:41:10.097Z</time></trkpt><trkpt lat="45.437915" lon="10.5797317"><ele>83.0</ele><time>2026-05-01T11:41:11.098Z</time></trkpt><trkpt lat="45.43785" lon="10.5800883"><ele>83.0</ele><time>2026-05-01T11:41:12.097Z</time></trkpt><trkpt lat="45.4377817" lon="10.5804483"><ele>83.0</ele><time>2026-05-01T11:41:13.097Z</time></trkpt><trkpt lat="45.437715" lon="10.58081"><ele>83.0</ele><time>2026-05-01T11:41:14.097Z</time></trkpt><trkpt lat="45.43765" lon="10.581175"><ele>83.0</ele><time>2026-05-01T11:41:15.098Z</time></trkpt><trkpt lat="45.4375833" lon="10.5815467"><ele>83.0</ele><time>2026-05-01T11:41:16.098Z</time></trkpt><trkpt lat="45.437515" lon="10.5819167"><ele>83.0</ele><time>2026-05-01T11:41:17.097Z</time></trkpt><trkpt lat="45.4374417" lon="10.5822783"><ele>83.0</ele><time>2026-05-01T11:41:18.097Z</time></trkpt><trkpt lat="45.4373767" lon="10.5826233"><ele>83.0</ele><time>2026-05-01T11:41:19.097Z</time></trkpt><trkpt lat="45.4373133" lon="10.5829617"><ele>83.0</ele><time>2026-05-01T11:41:20.098Z</time></trkpt><trkpt lat="45.4372483" lon="10.5833033"><ele>83.0</ele><time>2026-05-01T11:41:21.098Z</time></trkpt><trkpt lat="45.4371817" lon="10.58365"><ele>83.0</ele><time>2026-05-01T11:41:22.097Z</time></trkpt><trkpt lat="45.4371183" lon="10.5839967"><ele>83.0</ele><time>2026-05-01T11:41:23.097Z</time></trkpt><trkpt lat="45.437055" lon="10.58435"><ele>83.0</ele><time>2026-05-01T11:41:24.098Z</time></trkpt><trkpt lat="45.4369933" lon="10.5847067"><ele>83.0</ele><time>2026-05-01T11:41:25.097Z</time></trkpt><trkpt lat="45.4369283" lon="10.5850633"><ele>82.5</ele><time>2026-05-01T11:41:26.097Z</time></trkpt><trkpt lat="45.4368633" lon="10.5854233"><ele>82.0</ele><time>2026-05-01T11:41:27.098Z</time></trkpt><trkpt lat="45.4367983" lon="10.5857817"><ele>82.0</ele><time>2026-05-01T11:41:28.097Z</time></trkpt><trkpt lat="45.43673" lon="10.5861367"><ele>82.0</ele><time>2026-05-01T11:41:29.098Z</time></trkpt><trkpt lat="45.4366617" lon="10.5864917"><ele>82.5</ele><time>2026-05-01T11:41:30.098Z</time></trkpt><trkpt lat="45.4365983" lon="10.5868367"><ele>83.0</ele><time>2026-05-01T11:41:31.098Z</time></trkpt><trkpt lat="45.436535" lon="10.58717"><ele>82.0</ele><time>2026-05-01T11:41:32.098Z</time></trkpt><trkpt lat="45.436475" lon="10.5875083"><ele>81.0</ele><time>2026-05-01T11:41:33.098Z</time></trkpt><trkpt lat="45.4364117" lon="10.58785"><ele>81.0</ele><time>2026-05-01T11:41:34.098Z</time></trkpt><trkpt lat="45.4363433" lon="10.5881967"><ele>81.0</ele><time>2026-05-01T11:41:35.098Z</time></trkpt><trkpt lat="45.4362833" lon="10.5885467"><ele>82.0</ele><time>2026-05-01T11:41:36.097Z</time></trkpt><trkpt lat="45.43622" lon="10.5889017"><ele>83.0</ele><time>2026-05-01T11:41:37.097Z</time></trkpt><trkpt lat="45.43616" lon="10.5892533"><ele>84.0</ele><time>2026-05-01T11:41:38.097Z</time></trkpt><trkpt lat="45.436095" lon="10.5896083"><ele>85.0</ele><time>2026-05-01T11:41:39.097Z</time></trkpt><trkpt lat="45.4360317" lon="10.5899683"><ele>85.0</ele><time>2026-05-01T11:41:40.097Z</time></trkpt><trkpt lat="45.4359717" lon="10.59033"><ele>85.0</ele><time>2026-05-01T11:41:41.097Z</time></trkpt><trkpt lat="45.4358983" lon="10.59069"><ele>85.5</ele><time>2026-05-01T11:41:42.097Z</time></trkpt><trkpt lat="45.4358433" lon="10.5910433"><ele>86.0</ele><time>2026-05-01T11:41:43.097Z</time></trkpt><trkpt lat="45.43578" lon="10.5913817"><ele>84.5</ele><time>2026-05-01T11:41:44.097Z</time></trkpt><trkpt lat="45.4357183" lon="10.591715"><ele>83.0</ele><time>2026-05-01T11:41:45.098Z</time></trkpt><trkpt lat="45.4355817" lon="10.5923967"><ele>83.0</ele><time>2026-05-01T11:41:47.097Z</time></trkpt><trkpt lat="45.4355167" lon="10.592745"><ele>83.0</ele><time>2026-05-01T11:41:48.097Z</time></trkpt><trkpt lat="45.4354533" lon="10.5930933"><ele>83.5</ele><time>2026-05-01T11:41:49.098Z</time></trkpt><trkpt lat="45.43539" lon="10.5934367"><ele>84.0</ele><time>2026-05-01T11:41:50.097Z</time></trkpt><trkpt lat="45.4353283" lon="10.5937833"><ele>85.0</ele><time>2026-05-01T11:41:51.097Z</time></trkpt><trkpt lat="45.435265" lon="10.594125"><ele>86.0</ele><time>2026-05-01T11:41:52.097Z</time></trkpt><trkpt lat="45.4352017" lon="10.5944717"><ele>85.5</ele><time>2026-05-01T11:41:53.097Z</time></trkpt><trkpt lat="45.4351333" lon="10.5948183"><ele>85.0</ele><time>2026-05-01T11:41:54.098Z</time></trkpt><trkpt lat="45.43507" lon="10.5951583"><ele>85.0</ele><time>2026-05-01T11:41:55.098Z</time></trkpt><trkpt lat="45.4350083" lon="10.5954967"><ele>85.0</ele><time>2026-05-01T11:41:56.098Z</time></trkpt><trkpt lat="45.434945" lon="10.595835"><ele>84.5</ele><time>2026-05-01T11:41:57.097Z</time></trkpt><trkpt lat="45.434885" lon="10.5961783"><ele>84.0</ele><time>2026-05-01T11:41:58.098Z</time></trkpt><trkpt lat="45.4347583" lon="10.5968567"><ele>84.5</ele><time>2026-05-01T11:42:00.097Z</time></trkpt><trkpt lat="45.4347033" lon="10.5971933"><ele>85.0</ele><time>2026-05-01T11:42:01.098Z</time></trkpt><trkpt lat="45.43465" lon="10.5975383"><ele>84.0</ele><time>2026-05-01T11:42:02.097Z</time></trkpt><trkpt lat="45.4346" lon="10.5978917"><ele>83.0</ele><time>2026-05-01T11:42:03.098Z</time></trkpt><trkpt lat="45.4345483" lon="10.5982467"><ele>83.0</ele><time>2026-05-01T11:42:04.098Z</time></trkpt><trkpt lat="45.434495" lon="10.598605"><ele>83.0</ele><time>2026-05-01T11:42:05.098Z</time></trkpt><trkpt lat="45.4344467" lon="10.5989683"><ele>83.0</ele><time>2026-05-01T11:42:06.098Z</time></trkpt><trkpt lat="45.434405" lon="10.5993267"><ele>83.0</ele><time>2026-05-01T11:42:07.098Z</time></trkpt><trkpt lat="45.4343633" lon="10.599695"><ele>82.5</ele><time>2026-05-01T11:42:08.097Z</time></trkpt><trkpt lat="45.434325" lon="10.6000617"><ele>82.0</ele><time>2026-05-01T11:42:09.098Z</time></trkpt><trkpt lat="45.43429" lon="10.600435"><ele>83.0</ele><time>2026-05-01T11:42:10.097Z</time></trkpt><trkpt lat="45.434255" lon="10.6008083"><ele>84.0</ele><time>2026-05-01T11:42:11.097Z</time></trkpt><trkpt lat="45.4342217" lon="10.6011783"><ele>84.0</ele><time>2026-05-01T11:42:12.098Z</time></trkpt><trkpt lat="45.4341917" lon="10.6015467"><ele>84.0</ele><time>2026-05-01T11:42:13.097Z</time></trkpt><trkpt lat="45.4341617" lon="10.6019167"><ele>84.5</ele><time>2026-05-01T11:42:14.098Z</time></trkpt><trkpt lat="45.4341367" lon="10.6022833"><ele>85.0</ele><time>2026-05-01T11:42:15.097Z</time></trkpt><trkpt lat="45.4341117" lon="10.6026567"><ele>84.5</ele><time>2026-05-01T11:42:16.098Z</time></trkpt><trkpt lat="45.434095" lon="10.60303"><ele>84.0</ele><time>2026-05-01T11:42:17.097Z</time></trkpt><trkpt lat="45.4340817" lon="10.6034083"><ele>85.0</ele><time>2026-05-01T11:42:18.098Z</time></trkpt><trkpt lat="45.4340633" lon="10.60379"><ele>86.0</ele><time>2026-05-01T11:42:19.098Z</time></trkpt><trkpt lat="45.434045" lon="10.6041633"><ele>86.0</ele><time>2026-05-01T11:42:20.098Z</time></trkpt><trkpt lat="45.4340283" lon="10.60453"><ele>86.0</ele><time>2026-05-01T11:42:21.097Z</time></trkpt><trkpt lat="45.43401" lon="10.6048967"><ele>86.0</ele><time>2026-05-01T11:42:22.097Z</time></trkpt><trkpt lat="45.4339917" lon="10.605265"><ele>86.0</ele><time>2026-05-01T11:42:23.097Z</time></trkpt><trkpt lat="45.433975" lon="10.6056283"><ele>86.5</ele><time>2026-05-01T11:42:24.098Z</time></trkpt><trkpt lat="45.4339633" lon="10.60599"><ele>87.0</ele><time>2026-05-01T11:42:25.098Z</time></trkpt><trkpt lat="45.43394" lon="10.6063733"><ele>85.5</ele><time>2026-05-01T11:42:26.098Z</time></trkpt><trkpt lat="45.4339233" lon="10.6067433"><ele>84.0</ele><time>2026-05-01T11:42:27.098Z</time></trkpt><trkpt lat="45.433915" lon="10.6071083"><ele>84.0</ele><time>2026-05-01T11:42:28.098Z</time></trkpt><trkpt lat="45.4339017" lon="10.6074817"><ele>84.0</ele><time>2026-05-01T11:42:29.098Z</time></trkpt><trkpt lat="45.4338733" lon="10.60786"><ele>83.5</ele><time>2026-05-01T11:42:30.098Z</time></trkpt><trkpt lat="45.4338433" lon="10.6082433"><ele>83.0</ele><time>2026-05-01T11:42:31.098Z</time></trkpt><trkpt lat="45.433825" lon="10.6086283"><ele>83.5</ele><time>2026-05-01T11:42:32.097Z</time></trkpt><trkpt lat="45.4338033" lon="10.60901"><ele>84.0</ele><time>2026-05-01T11:42:33.097Z</time></trkpt><trkpt lat="45.4337867" lon="10.6093883"><ele>84.5</ele><time>2026-05-01T11:42:34.098Z</time></trkpt><trkpt lat="45.4337683" lon="10.60976"><ele>85.0</ele><time>2026-05-01T11:42:35.098Z</time></trkpt><trkpt lat="45.43375" lon="10.6101183"><ele>84.5</ele><time>2026-05-01T11:42:36.097Z</time></trkpt><trkpt lat="45.4337233" lon="10.6104717"><ele>84.0</ele><time>2026-05-01T11:42:37.097Z</time></trkpt><trkpt lat="45.4337083" lon="10.61082"><ele>84.0</ele><time>2026-05-01T11:42:38.097Z</time></trkpt><trkpt lat="45.43369" lon="10.6111717"><ele>84.0</ele><time>2026-05-01T11:42:39.097Z</time></trkpt><trkpt lat="45.4336717" lon="10.6115267"><ele>84.0</ele><time>2026-05-01T11:42:40.098Z</time></trkpt><trkpt lat="45.4336567" lon="10.6118733"><ele>84.0</ele><time>2026-05-01T11:42:41.097Z</time></trkpt><trkpt lat="45.43364" lon="10.6122117"><ele>83.5</ele><time>2026-05-01T11:42:42.098Z</time></trkpt><trkpt lat="45.4336233" lon="10.6125533"><ele>83.0</ele><time>2026-05-01T11:42:43.097Z</time></trkpt><trkpt lat="45.4336067" lon="10.6128933"><ele>83.0</ele><time>2026-05-01T11:42:44.098Z</time></trkpt><trkpt lat="45.4335917" lon="10.6132067"><ele>83.0</ele><time>2026-05-01T11:42:45.097Z</time></trkpt><trkpt lat="45.43358" lon="10.6134967"><ele>83.0</ele><time>2026-05-01T11:42:46.097Z</time></trkpt><trkpt lat="45.433565" lon="10.6137633"><ele>83.0</ele><time>2026-05-01T11:42:47.097Z</time></trkpt><trkpt lat="45.433555" lon="10.614015"><ele>83.0</ele><time>2026-05-01T11:42:48.097Z</time></trkpt><trkpt lat="45.433545" lon="10.61426"><ele>83.0</ele><time>2026-05-01T11:42:49.097Z</time></trkpt><trkpt lat="45.4335333" lon="10.6145117"><ele>83.0</ele><time>2026-05-01T11:42:50.097Z</time></trkpt><trkpt lat="45.4335183" lon="10.6147733"><ele>83.0</ele><time>2026-05-01T11:42:51.097Z</time></trkpt><trkpt lat="45.4335033" lon="10.61504"><ele>83.0</ele><time>2026-05-01T11:42:52.097Z</time></trkpt><trkpt lat="45.4334867" lon="10.6153117"><ele>83.0</ele><time>2026-05-01T11:42:53.097Z</time></trkpt><trkpt lat="45.4334717" lon="10.6155817"><ele>83.0</ele><time>2026-05-01T11:42:54.097Z</time></trkpt><trkpt lat="45.43346" lon="10.6158433"><ele>83.0</ele><time>2026-05-01T11:42:55.097Z</time></trkpt><trkpt lat="45.433445" lon="10.6161067"><ele>83.0</ele><time>2026-05-01T11:42:56.097Z</time></trkpt><trkpt lat="45.4334333" lon="10.6163717"><ele>83.0</ele><time>2026-05-01T11:42:57.097Z</time></trkpt><trkpt lat="45.4334233" lon="10.61664"><ele>83.0</ele><time>2026-05-01T11:42:58.098Z</time></trkpt><trkpt lat="45.43341" lon="10.6169033"><ele>82.33333333333334</ele><time>2026-05-01T11:42:59.097Z</time></trkpt><trkpt lat="45.4333967" lon="10.617175"><ele>81.66666666666667</ele><time>2026-05-01T11:43:00.098Z</time></trkpt><trkpt lat="45.43338" lon="10.617455"><ele>81.0</ele><time>2026-05-01T11:43:01.097Z</time></trkpt><trkpt lat="45.433365" lon="10.61773"><ele>80.33333333333333</ele><time>2026-05-01T11:43:02.097Z</time></trkpt><trkpt lat="45.4333533" lon="10.6179883"><ele>79.66666666666666</ele><time>2026-05-01T11:43:03.098Z</time></trkpt><trkpt lat="45.43334" lon="10.6182383"><ele>79.0</ele><time>2026-05-01T11:43:04.098Z</time></trkpt><trkpt lat="45.433325" lon="10.618485"><ele>78.66666666666666</ele><time>2026-05-01T11:43:05.097Z</time></trkpt><trkpt lat="45.433315" lon="10.6187317"><ele>78.33333333333333</ele><time>2026-05-01T11:43:06.097Z</time></trkpt><trkpt lat="45.4333067" lon="10.6189833"><ele>78.0</ele><time>2026-05-01T11:43:07.098Z</time></trkpt><trkpt lat="45.4332933" lon="10.619245"><ele>77.5</ele><time>2026-05-01T11:43:08.098Z</time></trkpt><trkpt lat="45.4332633" lon="10.6197867"><ele>77.0</ele><time>2026-05-01T11:43:10.097Z</time></trkpt><trkpt lat="45.43325" lon="10.620045"><ele>77.0</ele><time>2026-05-01T11:43:11.097Z</time></trkpt><trkpt lat="45.4332383" lon="10.6203033"><ele>77.0</ele><time>2026-05-01T11:43:12.097Z</time></trkpt><trkpt lat="45.4332317" lon="10.6205633"><ele>77.0</ele><time>2026-05-01T11:43:13.097Z</time></trkpt><trkpt lat="45.4332183" lon="10.6208233"><ele>76.66666666666667</ele><time>2026-05-01T11:43:14.098Z</time></trkpt><trkpt lat="45.433205" lon="10.6210783"><ele>76.33333333333333</ele><time>2026-05-01T11:43:15.097Z</time></trkpt><trkpt lat="45.433195" lon="10.6213217"><ele>76.0</ele><time>2026-05-01T11:43:16.098Z</time></trkpt><trkpt lat="45.4331817" lon="10.62158"><ele>76.66666666666666</ele><time>2026-05-01T11:43:17.098Z</time></trkpt><trkpt lat="45.433175" lon="10.6218367"><ele>77.33333333333333</ele><time>2026-05-01T11:43:18.097Z</time></trkpt><trkpt lat="45.4331583" lon="10.622105"><ele>78.0</ele><time>2026-05-01T11:43:19.097Z</time></trkpt><trkpt lat="45.43315" lon="10.6223683"><ele>78.0</ele><time>2026-05-01T11:43:20.098Z</time></trkpt><trkpt lat="45.433135" lon="10.6226267"><ele>78.0</ele><time>2026-05-01T11:43:21.097Z</time></trkpt><trkpt lat="45.4331233" lon="10.6228833"><ele>78.0</ele><time>2026-05-01T11:43:22.097Z</time></trkpt><trkpt lat="45.4331083" lon="10.623135"><ele>78.0</ele><time>2026-05-01T11:43:23.097Z</time></trkpt><trkpt lat="45.4330783" lon="10.6236433"><ele>78.0</ele><time>2026-05-01T11:43:25.098Z</time></trkpt><trkpt lat="45.4330683" lon="10.6239067"><ele>78.0</ele><time>2026-05-01T11:43:26.097Z</time></trkpt><trkpt lat="45.4330567" lon="10.6241683"><ele>78.0</ele><time>2026-05-01T11:43:27.097Z</time></trkpt><trkpt lat="45.4330467" lon="10.6244367"><ele>78.0</ele><time>2026-05-01T11:43:28.097Z</time></trkpt><trkpt lat="45.433035" lon="10.6247117"><ele>77.33333333333333</ele><time>2026-05-01T11:43:29.097Z</time></trkpt><trkpt lat="45.4330233" lon="10.6249883"><ele>76.66666666666666</ele><time>2026-05-01T11:43:30.098Z</time></trkpt><trkpt lat="45.43301" lon="10.6252683"><ele>76.0</ele><time>2026-05-01T11:43:31.097Z</time></trkpt><trkpt lat="45.432995" lon="10.62554"><ele>75.66666666666666</ele><time>2026-05-01T11:43:32.097Z</time></trkpt><trkpt lat="45.432985" lon="10.6258"><ele>75.33333333333333</ele><time>2026-05-01T11:43:33.098Z</time></trkpt><trkpt lat="45.4329717" lon="10.6260467"><ele>75.0</ele><time>2026-05-01T11:43:34.097Z</time></trkpt><trkpt lat="45.43296" lon="10.626285"><ele>75.66666666666667</ele><time>2026-05-01T11:43:35.098Z</time></trkpt><trkpt lat="45.4329483" lon="10.6265133"><ele>76.33333333333334</ele><time>2026-05-01T11:43:36.097Z</time></trkpt><trkpt lat="45.432935" lon="10.62675"><ele>77.0</ele><time>2026-05-01T11:43:37.098Z</time></trkpt><trkpt lat="45.4329217" lon="10.627"><ele>77.0</ele><time>2026-05-01T11:43:38.097Z</time></trkpt><trkpt lat="45.4328983" lon="10.62751"><ele>77.0</ele><time>2026-05-01T11:43:40.097Z</time></trkpt><trkpt lat="45.4328867" lon="10.6277733"><ele>77.0</ele><time>2026-05-01T11:43:41.098Z</time></trkpt><trkpt lat="45.4328733" lon="10.6280367"><ele>77.0</ele><time>2026-05-01T11:43:42.097Z</time></trkpt><trkpt lat="45.432865" lon="10.6282933"><ele>77.0</ele><time>2026-05-01T11:43:43.098Z</time></trkpt><trkpt lat="45.4328517" lon="10.6285567"><ele>77.0</ele><time>2026-05-01T11:43:44.097Z</time></trkpt><trkpt lat="45.4328367" lon="10.6288167"><ele>77.0</ele><time>2026-05-01T11:43:45.098Z</time></trkpt><trkpt lat="45.4328283" lon="10.62907"><ele>77.0</ele><time>2026-05-01T11:43:46.097Z</time></trkpt><trkpt lat="45.4328167" lon="10.6293267"><ele>77.0</ele><time>2026-05-01T11:43:47.098Z</time></trkpt><trkpt lat="45.432805" lon="10.62959"><ele>77.0</ele><time>2026-05-01T11:43:48.098Z</time></trkpt><trkpt lat="45.4327917" lon="10.629855"><ele>77.0</ele><time>2026-05-01T11:43:49.097Z</time></trkpt><trkpt lat="45.432775" lon="10.6301367"><ele>76.66666666666667</ele><time>2026-05-01T11:43:50.097Z</time></trkpt><trkpt lat="45.4327617" lon="10.6304233"><ele>76.33333333333333</ele><time>2026-05-01T11:43:51.098Z</time></trkpt><trkpt lat="45.4327467" lon="10.630705"><ele>76.0</ele><time>2026-05-01T11:43:52.097Z</time></trkpt><trkpt lat="45.4327317" lon="10.63098"><ele>75.66666666666666</ele><time>2026-05-01T11:43:53.097Z</time></trkpt><trkpt lat="45.43272" lon="10.6312467"><ele>75.33333333333333</ele><time>2026-05-01T11:43:54.097Z</time></trkpt><trkpt lat="45.432705" lon="10.631505"><ele>75.0</ele><time>2026-05-01T11:43:55.098Z</time></trkpt><trkpt lat="45.4326767" lon="10.6320267"><ele>75.0</ele><time>2026-05-01T11:43:57.098Z</time></trkpt><trkpt lat="45.43266" lon="10.632295"><ele>75.0</ele><time>2026-05-01T11:43:58.098Z</time></trkpt><trkpt lat="45.432645" lon="10.6325667"><ele>75.0</ele><time>2026-05-01T11:43:59.098Z</time></trkpt><trkpt lat="45.4326333" lon="10.63285"><ele>75.33333333333333</ele><time>2026-05-01T11:44:00.098Z</time></trkpt><trkpt lat="45.43262" lon="10.6331417"><ele>75.66666666666666</ele><time>2026-05-01T11:44:01.097Z</time></trkpt><trkpt lat="45.43261" lon="10.6334417"><ele>76.0</ele><time>2026-05-01T11:44:02.098Z</time></trkpt><trkpt lat="45.432595" lon="10.6337583"><ele>77.0</ele><time>2026-05-01T11:44:03.097Z</time></trkpt><trkpt lat="45.4325767" lon="10.6340667"><ele>78.0</ele><time>2026-05-01T11:44:04.098Z</time></trkpt><trkpt lat="45.4325567" lon="10.6343717"><ele>79.0</ele><time>2026-05-01T11:44:05.097Z</time></trkpt><trkpt lat="45.4325417" lon="10.6346683"><ele>79.0</ele><time>2026-05-01T11:44:06.097Z</time></trkpt><trkpt lat="45.4325267" lon="10.6349633"><ele>79.0</ele><time>2026-05-01T11:44:07.097Z</time></trkpt><trkpt lat="45.4325083" lon="10.635255"><ele>79.0</ele><time>2026-05-01T11:44:08.097Z</time></trkpt><trkpt lat="45.4325" lon="10.6355333"><ele>78.66666666666666</ele><time>2026-05-01T11:44:09.098Z</time></trkpt><trkpt lat="45.4324817" lon="10.635815"><ele>78.33333333333333</ele><time>2026-05-01T11:44:10.098Z</time></trkpt><trkpt lat="45.43247" lon="10.6361033"><ele>78.0</ele><time>2026-05-01T11:44:11.098Z</time></trkpt><trkpt lat="45.4324567" lon="10.636385"><ele>79.0</ele><time>2026-05-01T11:44:12.098Z</time></trkpt><trkpt lat="45.4324433" lon="10.6366783"><ele>80.0</ele><time>2026-05-01T11:44:13.098Z</time></trkpt><trkpt lat="45.4324333" lon="10.63696"><ele>81.0</ele><time>2026-05-01T11:44:14.097Z</time></trkpt><trkpt lat="45.4324067" lon="10.63724"><ele>81.0</ele><time>2026-05-01T11:44:15.097Z</time></trkpt><trkpt lat="45.4323967" lon="10.63752"><ele>81.0</ele><time>2026-05-01T11:44:16.097Z</time></trkpt><trkpt lat="45.4323833" lon="10.6377783"><ele>81.0</ele><time>2026-05-01T11:44:17.097Z</time></trkpt><trkpt lat="45.43237" lon="10.63804"><ele>80.0</ele><time>2026-05-01T11:44:18.098Z</time></trkpt><trkpt lat="45.43236" lon="10.6383"><ele>79.0</ele><time>2026-05-01T11:44:19.097Z</time></trkpt><trkpt lat="45.4323467" lon="10.6385667"><ele>78.0</ele><time>2026-05-01T11:44:20.098Z</time></trkpt><trkpt lat="45.4323317" lon="10.6388267"><ele>77.33333333333333</ele><time>2026-05-01T11:44:21.097Z</time></trkpt><trkpt lat="45.4323183" lon="10.639085"><ele>76.66666666666666</ele><time>2026-05-01T11:44:22.097Z</time></trkpt><trkpt lat="45.4323067" lon="10.6393483"><ele>76.0</ele><time>2026-05-01T11:44:23.098Z</time></trkpt><trkpt lat="45.4322917" lon="10.6396067"><ele>76.0</ele><time>2026-05-01T11:44:24.097Z</time></trkpt><trkpt lat="45.4322733" lon="10.63987"><ele>76.0</ele><time>2026-05-01T11:44:25.097Z</time></trkpt><trkpt lat="45.432255" lon="10.6401417"><ele>76.0</ele><time>2026-05-01T11:44:26.097Z</time></trkpt><trkpt lat="45.4322183" lon="10.6406983"><ele>76.0</ele><time>2026-05-01T11:44:28.098Z</time></trkpt><trkpt lat="45.4321983" lon="10.6409783"><ele>76.0</ele><time>2026-05-01T11:44:29.098Z</time></trkpt><trkpt lat="45.4321817" lon="10.64125"><ele>76.0</ele><time>2026-05-01T11:44:30.097Z</time></trkpt><trkpt lat="45.432165" lon="10.6415267"><ele>76.0</ele><time>2026-05-01T11:44:31.098Z</time></trkpt><trkpt lat="45.43215" lon="10.6418117"><ele>76.0</ele><time>2026-05-01T11:44:32.098Z</time></trkpt><trkpt lat="45.4321333" lon="10.6420967"><ele>76.0</ele><time>2026-05-01T11:44:33.098Z</time></trkpt><trkpt lat="45.432115" lon="10.6423833"><ele>76.33333333333333</ele><time>2026-05-01T11:44:34.097Z</time></trkpt><trkpt lat="45.4320983" lon="10.6426717"><ele>76.66666666666667</ele><time>2026-05-01T11:44:35.098Z</time></trkpt><trkpt lat="45.4320767" lon="10.6429667"><ele>77.0</ele><time>2026-05-01T11:44:36.098Z</time></trkpt><trkpt lat="45.4320383" lon="10.643555"><ele>77.0</ele><time>2026-05-01T11:44:38.097Z</time></trkpt><trkpt lat="45.43202" lon="10.6438467"><ele>77.0</ele><time>2026-05-01T11:44:39.097Z</time></trkpt><trkpt lat="45.4319983" lon="10.644145"><ele>77.0</ele><time>2026-05-01T11:44:40.097Z</time></trkpt><trkpt lat="45.4319817" lon="10.6444417"><ele>76.33333333333334</ele><time>2026-05-01T11:44:41.097Z</time></trkpt><trkpt lat="45.4319633" lon="10.6447367"><ele>75.66666666666667</ele><time>2026-05-01T11:44:42.097Z</time></trkpt><trkpt lat="45.4319417" lon="10.6450333"><ele>75.0</ele><time>2026-05-01T11:44:43.097Z</time></trkpt><trkpt lat="45.4319217" lon="10.6453233"><ele>75.0</ele><time>2026-05-01T11:44:44.097Z</time></trkpt><trkpt lat="45.431885" lon="10.6458933"><ele>75.0</ele><time>2026-05-01T11:44:46.098Z</time></trkpt><trkpt lat="45.431865" lon="10.646175"><ele>75.0</ele><time>2026-05-01T11:44:47.097Z</time></trkpt><trkpt lat="45.4318483" lon="10.64646"><ele>75.0</ele><time>2026-05-01T11:44:48.098Z</time></trkpt><trkpt lat="45.43183" lon="10.6467417"><ele>75.0</ele><time>2026-05-01T11:44:49.098Z</time></trkpt><trkpt lat="45.4318133" lon="10.6470267"><ele>75.0</ele><time>2026-05-01T11:44:50.097Z</time></trkpt><trkpt lat="45.4318" lon="10.6473167"><ele>75.0</ele><time>2026-05-01T11:44:51.098Z</time></trkpt><trkpt lat="45.4317883" lon="10.6476217"><ele>75.0</ele><time>2026-05-01T11:44:52.097Z</time></trkpt><trkpt lat="45.4317767" lon="10.6479483"><ele>75.0</ele><time>2026-05-01T11:44:53.097Z</time></trkpt><trkpt lat="45.4317533" lon="10.64828"><ele>75.0</ele><time>2026-05-01T11:44:54.098Z</time></trkpt><trkpt lat="45.4317233" lon="10.648625"><ele>75.0</ele><time>2026-05-01T11:44:55.097Z</time></trkpt><trkpt lat="45.4316967" lon="10.648975"><ele>75.0</ele><time>2026-05-01T11:44:56.098Z</time></trkpt><trkpt lat="45.43167" lon="10.649315"><ele>75.5</ele><time>2026-05-01T11:44:57.097Z</time></trkpt><trkpt lat="45.431625" lon="10.6499517"><ele>76.0</ele><time>2026-05-01T11:44:59.097Z</time></trkpt><trkpt lat="45.4316033" lon="10.65027"><ele>76.0</ele><time>2026-05-01T11:45:00.097Z</time></trkpt><trkpt lat="45.4315833" lon="10.6505817"><ele>76.0</ele><time>2026-05-01T11:45:01.097Z</time></trkpt><trkpt lat="45.43156" lon="10.6508867"><ele>76.0</ele><time>2026-05-01T11:45:02.098Z</time></trkpt><trkpt lat="45.4315433" lon="10.6511867"><ele>76.0</ele><time>2026-05-01T11:45:03.097Z</time></trkpt><trkpt lat="45.4315133" lon="10.65148"><ele>76.0</ele><time>2026-05-01T11:45:04.098Z</time></trkpt><trkpt lat="45.431495" lon="10.651775"><ele>76.0</ele><time>2026-05-01T11:45:05.097Z</time></trkpt><trkpt lat="45.431475" lon="10.652065"><ele>76.0</ele><time>2026-05-01T11:45:06.098Z</time></trkpt><trkpt lat="45.4314567" lon="10.6523383"><ele>76.0</ele><time>2026-05-01T11:45:07.097Z</time></trkpt><trkpt lat="45.4314367" lon="10.6526117"><ele>76.0</ele><time>2026-05-01T11:45:08.097Z</time></trkpt><trkpt lat="45.4314217" lon="10.6528817"><ele>76.0</ele><time>2026-05-01T11:45:09.097Z</time></trkpt><trkpt lat="45.4314017" lon="10.6531583"><ele>76.0</ele><time>2026-05-01T11:45:10.098Z</time></trkpt><trkpt lat="45.4313867" lon="10.65343"><ele>76.0</ele><time>2026-05-01T11:45:11.097Z</time></trkpt><trkpt lat="45.4313567" lon="10.6539833"><ele>76.0</ele><time>2026-05-01T11:45:13.097Z</time></trkpt><trkpt lat="45.4313383" lon="10.654265"><ele>76.0</ele><time>2026-05-01T11:45:14.097Z</time></trkpt><trkpt lat="45.4313217" lon="10.6545483"><ele>76.0</ele><time>2026-05-01T11:45:15.097Z</time></trkpt><trkpt lat="45.4313017" lon="10.65483"><ele>76.66666666666666</ele><time>2026-05-01T11:45:16.098Z</time></trkpt><trkpt lat="45.4312867" lon="10.655115"><ele>77.33333333333333</ele><time>2026-05-01T11:45:17.098Z</time></trkpt><trkpt lat="45.4312717" lon="10.655395"><ele>78.0</ele><time>2026-05-01T11:45:18.097Z</time></trkpt><trkpt lat="45.4312533" lon="10.65568"><ele>79.0</ele><time>2026-05-01T11:45:19.098Z</time></trkpt><trkpt lat="45.4312367" lon="10.6559617"><ele>80.0</ele><time>2026-05-01T11:45:20.097Z</time></trkpt><trkpt lat="45.43122" lon="10.6562383"><ele>81.0</ele><time>2026-05-01T11:45:21.097Z</time></trkpt><trkpt lat="45.4311983" lon="10.6565167"><ele>81.0</ele><time>2026-05-01T11:45:22.098Z</time></trkpt><trkpt lat="45.431175" lon="10.65681"><ele>81.0</ele><time>2026-05-01T11:45:23.097Z</time></trkpt><trkpt lat="45.4311517" lon="10.6571133"><ele>81.0</ele><time>2026-05-01T11:45:24.097Z</time></trkpt><trkpt lat="45.4311317" lon="10.6574367"><ele>82.0</ele><time>2026-05-01T11:45:25.098Z</time></trkpt><trkpt lat="45.4311117" lon="10.657755"><ele>83.0</ele><time>2026-05-01T11:45:26.097Z</time></trkpt><trkpt lat="45.4310967" lon="10.6580667"><ele>84.0</ele><time>2026-05-01T11:45:27.097Z</time></trkpt><trkpt lat="45.43108" lon="10.6583967"><ele>85.0</ele><time>2026-05-01T11:45:28.097Z</time></trkpt><trkpt lat="45.4310617" lon="10.65874"><ele>86.0</ele><time>2026-05-01T11:45:29.097Z</time></trkpt><trkpt lat="45.43104" lon="10.6590917"><ele>84.5</ele><time>2026-05-01T11:45:30.097Z</time></trkpt><trkpt lat="45.43102" lon="10.6594567"><ele>83.0</ele><time>2026-05-01T11:45:31.097Z</time></trkpt><trkpt lat="45.430995" lon="10.6598283"><ele>83.0</ele><time>2026-05-01T11:45:32.098Z</time></trkpt><trkpt lat="45.4309717" lon="10.660205"><ele>83.0</ele><time>2026-05-01T11:45:33.098Z</time></trkpt><trkpt lat="45.4309483" lon="10.6605567"><ele>81.0</ele><time>2026-05-01T11:45:34.098Z</time></trkpt><trkpt lat="45.4309283" lon="10.6608933"><ele>79.0</ele><time>2026-05-01T11:45:35.097Z</time></trkpt><trkpt lat="45.4309067" lon="10.661235"><ele>77.5</ele><time>2026-05-01T11:45:36.097Z</time></trkpt><trkpt lat="45.4308867" lon="10.66158"><ele>76.0</ele><time>2026-05-01T11:45:37.097Z</time></trkpt><trkpt lat="45.4308633" lon="10.6619333"><ele>76.0</ele><time>2026-05-01T11:45:38.098Z</time></trkpt><trkpt lat="45.4308417" lon="10.66229"><ele>76.0</ele><time>2026-05-01T11:45:39.097Z</time></trkpt><trkpt lat="45.4308217" lon="10.662645"><ele>75.5</ele><time>2026-05-01T11:45:40.098Z</time></trkpt><trkpt lat="45.4307983" lon="10.6629967"><ele>75.0</ele><time>2026-05-01T11:45:41.098Z</time></trkpt><trkpt lat="45.4307733" lon="10.6633533"><ele>75.0</ele><time>2026-05-01T11:45:42.098Z</time></trkpt><trkpt lat="45.4307483" lon="10.6637067"><ele>75.0</ele><time>2026-05-01T11:45:43.097Z</time></trkpt><trkpt lat="45.430725" lon="10.664065"><ele>75.0</ele><time>2026-05-01T11:45:44.098Z</time></trkpt><trkpt lat="45.43069" lon="10.6644283"><ele>75.0</ele><time>2026-05-01T11:45:45.098Z</time></trkpt><trkpt lat="45.43066" lon="10.6647983"><ele>75.5</ele><time>2026-05-01T11:45:46.098Z</time></trkpt><trkpt lat="45.4306433" lon="10.6651683"><ele>76.0</ele><time>2026-05-01T11:45:47.098Z</time></trkpt><trkpt lat="45.430625" lon="10.665545"><ele>82.0</ele><time>2026-05-01T11:45:48.098Z</time></trkpt><trkpt lat="45.430575" lon="10.666295"><ele>82.0</ele><time>2026-05-01T11:45:50.097Z</time></trkpt><trkpt lat="45.4305483" lon="10.66665"><ele>82.0</ele><time>2026-05-01T11:45:51.098Z</time></trkpt><trkpt lat="45.4305217" lon="10.666995"><ele>83.0</ele><time>2026-05-01T11:45:52.097Z</time></trkpt><trkpt lat="45.4304967" lon="10.6673483"><ele>84.0</ele><time>2026-05-01T11:45:53.098Z</time></trkpt><trkpt lat="45.4304717" lon="10.6677017"><ele>86.0</ele><time>2026-05-01T11:45:54.097Z</time></trkpt><trkpt lat="45.4304467" lon="10.66806"><ele>88.0</ele><time>2026-05-01T11:45:55.098Z</time></trkpt><trkpt lat="45.43042" lon="10.6684233"><ele>88.5</ele><time>2026-05-01T11:45:56.098Z</time></trkpt><trkpt lat="45.4303917" lon="10.6687917"><ele>89.0</ele><time>2026-05-01T11:45:57.098Z</time></trkpt><trkpt lat="45.4303667" lon="10.66916"><ele>88.5</ele><time>2026-05-01T11:45:58.097Z</time></trkpt><trkpt lat="45.4303367" lon="10.6695333"><ele>88.0</ele><time>2026-05-01T11:45:59.098Z</time></trkpt><trkpt lat="45.4303133" lon="10.669905"><ele>86.0</ele><time>2026-05-01T11:46:00.098Z</time></trkpt><trkpt lat="45.43029" lon="10.6702767"><ele>84.0</ele><time>2026-05-01T11:46:01.098Z</time></trkpt><trkpt lat="45.43027" lon="10.670645"><ele>84.0</ele><time>2026-05-01T11:46:02.098Z</time></trkpt><trkpt lat="45.430255" lon="10.670995"><ele>84.0</ele><time>2026-05-01T11:46:03.098Z</time></trkpt><trkpt lat="45.4302417" lon="10.671345"><ele>83.0</ele><time>2026-05-01T11:46:04.098Z</time></trkpt><trkpt lat="45.4302217" lon="10.6716917"><ele>82.0</ele><time>2026-05-01T11:46:05.097Z</time></trkpt><trkpt lat="45.4301967" lon="10.67204"><ele>82.0</ele><time>2026-05-01T11:46:06.098Z</time></trkpt><trkpt lat="45.4301783" lon="10.672385"><ele>82.0</ele><time>2026-05-01T11:46:07.097Z</time></trkpt><trkpt lat="45.4301583" lon="10.6727233"><ele>82.5</ele><time>2026-05-01T11:46:08.097Z</time></trkpt><trkpt lat="45.4301367" lon="10.6730617"><ele>83.0</ele><time>2026-05-01T11:46:09.098Z</time></trkpt><trkpt lat="45.4301133" lon="10.6734033"><ele>84.0</ele><time>2026-05-01T11:46:10.098Z</time></trkpt><trkpt lat="45.4300883" lon="10.6737467"><ele>85.0</ele><time>2026-05-01T11:46:11.097Z</time></trkpt><trkpt lat="45.43007" lon="10.6740817"><ele>85.0</ele><time>2026-05-01T11:46:12.097Z</time></trkpt><trkpt lat="45.43005" lon="10.67442"><ele>85.0</ele><time>2026-05-01T11:46:13.097Z</time></trkpt><trkpt lat="45.4300317" lon="10.67476"><ele>85.0</ele><time>2026-05-01T11:46:14.097Z</time></trkpt><trkpt lat="45.4300083" lon="10.6750933"><ele>85.0</ele><time>2026-05-01T11:46:15.098Z</time></trkpt><trkpt lat="45.4299817" lon="10.6754433"><ele>84.5</ele><time>2026-05-01T11:46:16.098Z</time></trkpt><trkpt lat="45.429965" lon="10.6757933"><ele>84.0</ele><time>2026-05-01T11:46:17.098Z</time></trkpt><trkpt lat="45.4299417" lon="10.6761433"><ele>83.5</ele><time>2026-05-01T11:46:18.098Z</time></trkpt><trkpt lat="45.42992" lon="10.6765017"><ele>83.0</ele><time>2026-05-01T11:46:19.097Z</time></trkpt><trkpt lat="45.4299" lon="10.6768633"><ele>83.0</ele><time>2026-05-01T11:46:20.098Z</time></trkpt><trkpt lat="45.4298517" lon="10.6776083"><ele>84.0</ele><time>2026-05-01T11:46:22.098Z</time></trkpt><trkpt lat="45.4298267" lon="10.6779783"><ele>85.0</ele><time>2026-05-01T11:46:23.098Z</time></trkpt><trkpt lat="45.4297983" lon="10.6783467"><ele>85.0</ele><time>2026-05-01T11:46:24.098Z</time></trkpt><trkpt lat="45.429775" lon="10.67871"><ele>85.0</ele><time>2026-05-01T11:46:25.098Z</time></trkpt><trkpt lat="45.4297533" lon="10.679075"><ele>85.5</ele><time>2026-05-01T11:46:26.098Z</time></trkpt><trkpt lat="45.4297267" lon="10.67944"><ele>86.0</ele><time>2026-05-01T11:46:27.097Z</time></trkpt><trkpt lat="45.4296983" lon="10.6798083"><ele>86.0</ele><time>2026-05-01T11:46:28.097Z</time></trkpt><trkpt lat="45.4296683" lon="10.6801817"><ele>86.0</ele><time>2026-05-01T11:46:29.098Z</time></trkpt><trkpt lat="45.4296433" lon="10.68056"><ele>86.0</ele><time>2026-05-01T11:46:30.098Z</time></trkpt><trkpt lat="45.4296133" lon="10.68093"><ele>86.0</ele><time>2026-05-01T11:46:31.097Z</time></trkpt><trkpt lat="45.4295883" lon="10.6812783"><ele>87.0</ele><time>2026-05-01T11:46:32.098Z</time></trkpt><trkpt lat="45.4295667" lon="10.6816217"><ele>88.0</ele><time>2026-05-01T11:46:33.098Z</time></trkpt><trkpt lat="45.4295467" lon="10.6819683"><ele>91.0</ele><time>2026-05-01T11:46:34.097Z</time></trkpt><trkpt lat="45.429525" lon="10.682315"><ele>94.0</ele><time>2026-05-01T11:46:35.097Z</time></trkpt><trkpt lat="45.4295" lon="10.682665"><ele>95.5</ele><time>2026-05-01T11:46:36.097Z</time></trkpt><trkpt lat="45.4294733" lon="10.6830217"><ele>97.0</ele><time>2026-05-01T11:46:37.097Z</time></trkpt><trkpt lat="45.4294483" lon="10.6833883"><ele>94.5</ele><time>2026-05-01T11:46:38.097Z</time></trkpt><trkpt lat="45.4294233" lon="10.6837533"><ele>92.0</ele><time>2026-05-01T11:46:39.098Z</time></trkpt><trkpt lat="45.42939" lon="10.6841083"><ele>90.0</ele><time>2026-05-01T11:46:40.098Z</time></trkpt><trkpt lat="45.4293667" lon="10.68445"><ele>88.0</ele><time>2026-05-01T11:46:41.097Z</time></trkpt><trkpt lat="45.429335" lon="10.684805"><ele>88.0</ele><time>2026-05-01T11:46:42.098Z</time></trkpt><trkpt lat="45.4293167" lon="10.685145"><ele>88.0</ele><time>2026-05-01T11:46:43.098Z</time></trkpt><trkpt lat="45.4293017" lon="10.6854867"><ele>86.5</ele><time>2026-05-01T11:46:44.098Z</time></trkpt><trkpt lat="45.429285" lon="10.685835"><ele>85.0</ele><time>2026-05-01T11:46:45.097Z</time></trkpt><trkpt lat="45.4292667" lon="10.6861917"><ele>84.5</ele><time>2026-05-01T11:46:46.097Z</time></trkpt><trkpt lat="45.4292517" lon="10.6865517"><ele>84.0</ele><time>2026-05-01T11:46:47.097Z</time></trkpt><trkpt lat="45.4292333" lon="10.6869083"><ele>84.5</ele><time>2026-05-01T11:46:48.098Z</time></trkpt><trkpt lat="45.4292183" lon="10.6872717"><ele>85.0</ele><time>2026-05-01T11:46:49.097Z</time></trkpt><trkpt lat="45.4292067" lon="10.68763"><ele>84.5</ele><time>2026-05-01T11:46:50.097Z</time></trkpt><trkpt lat="45.429195" lon="10.6879767"><ele>84.0</ele><time>2026-05-01T11:46:51.097Z</time></trkpt><trkpt lat="45.429185" lon="10.688315"><ele>83.0</ele><time>2026-05-01T11:46:52.097Z</time></trkpt><trkpt lat="45.429175" lon="10.688655"><ele>82.0</ele><time>2026-05-01T11:46:53.097Z</time></trkpt><trkpt lat="45.4291683" lon="10.6889917"><ele>82.0</ele><time>2026-05-01T11:46:54.097Z</time></trkpt><trkpt lat="45.4291583" lon="10.689335"><ele>82.0</ele><time>2026-05-01T11:46:55.098Z</time></trkpt><trkpt lat="45.4291517" lon="10.6896833"><ele>82.0</ele><time>2026-05-01T11:46:56.098Z</time></trkpt><trkpt lat="45.4291467" lon="10.6900317"><ele>82.0</ele><time>2026-05-01T11:46:57.097Z</time></trkpt><trkpt lat="45.429145" lon="10.6903833"><ele>82.5</ele><time>2026-05-01T11:46:58.097Z</time></trkpt><trkpt lat="45.429145" lon="10.69073"><ele>83.0</ele><time>2026-05-01T11:46:59.097Z</time></trkpt><trkpt lat="45.4291483" lon="10.6910733"><ele>84.0</ele><time>2026-05-01T11:47:00.097Z</time></trkpt><trkpt lat="45.4291483" lon="10.6914183"><ele>85.0</ele><time>2026-05-01T11:47:01.097Z</time></trkpt><trkpt lat="45.4291517" lon="10.6917583"><ele>83.5</ele><time>2026-05-01T11:47:02.097Z</time></trkpt><trkpt lat="45.4291583" lon="10.6920933"><ele>82.0</ele><time>2026-05-01T11:47:03.098Z</time></trkpt><trkpt lat="45.4291567" lon="10.6924267"><ele>83.0</ele><time>2026-05-01T11:47:04.097Z</time></trkpt><trkpt lat="45.4291533" lon="10.69309"><ele>83.0</ele><time>2026-05-01T11:47:06.098Z</time></trkpt><trkpt lat="45.42915" lon="10.6934167"><ele>83.0</ele><time>2026-05-01T11:47:07.097Z</time></trkpt><trkpt lat="45.429155" lon="10.6937383"><ele>82.66666666666667</ele><time>2026-05-01T11:47:08.097Z</time></trkpt><trkpt lat="45.4291567" lon="10.69405"><ele>82.33333333333333</ele><time>2026-05-01T11:47:09.097Z</time></trkpt><trkpt lat="45.4291583" lon="10.6943667"><ele>82.0</ele><time>2026-05-01T11:47:10.098Z</time></trkpt><trkpt lat="45.4291617" lon="10.694675"><ele>81.66666666666666</ele><time>2026-05-01T11:47:11.097Z</time></trkpt><trkpt lat="45.429165" lon="10.694985"><ele>81.33333333333333</ele><time>2026-05-01T11:47:12.098Z</time></trkpt><trkpt lat="45.4291667" lon="10.695305"><ele>81.0</ele><time>2026-05-01T11:47:13.098Z</time></trkpt><trkpt lat="45.4291733" lon="10.6956267"><ele>80.5</ele><time>2026-05-01T11:47:14.097Z</time></trkpt><trkpt lat="45.4291717" lon="10.6959517"><ele>80.0</ele><time>2026-05-01T11:47:15.097Z</time></trkpt><trkpt lat="45.4291767" lon="10.69627"><ele>79.0</ele><time>2026-05-01T11:47:16.096Z</time></trkpt><trkpt lat="45.4291783" lon="10.6965883"><ele>78.0</ele><time>2026-05-01T11:47:17.097Z</time></trkpt><trkpt lat="45.42918" lon="10.696895"><ele>77.0</ele><time>2026-05-01T11:47:18.097Z</time></trkpt><trkpt lat="45.429185" lon="10.6971983"><ele>76.33333333333334</ele><time>2026-05-01T11:47:19.096Z</time></trkpt><trkpt lat="45.4291883" lon="10.6974967"><ele>75.66666666666667</ele><time>2026-05-01T11:47:20.097Z</time></trkpt><trkpt lat="45.4291933" lon="10.69779"><ele>75.0</ele><time>2026-05-01T11:47:21.096Z</time></trkpt><trkpt lat="45.4291933" lon="10.6980833"><ele>74.33333333333333</ele><time>2026-05-01T11:47:22.096Z</time></trkpt><trkpt lat="45.4291933" lon="10.698385"><ele>73.66666666666666</ele><time>2026-05-01T11:47:23.097Z</time></trkpt><trkpt lat="45.4291933" lon="10.698685"><ele>73.0</ele><time>2026-05-01T11:47:24.097Z</time></trkpt><trkpt lat="45.4291983" lon="10.6989933"><ele>72.66666666666666</ele><time>2026-05-01T11:47:25.097Z</time></trkpt><trkpt lat="45.429195" lon="10.699305"><ele>72.33333333333333</ele><time>2026-05-01T11:47:26.097Z</time></trkpt><trkpt lat="45.4291967" lon="10.6996233"><ele>72.0</ele><time>2026-05-01T11:47:27.096Z</time></trkpt><trkpt lat="45.4291967" lon="10.6999517"><ele>59.0</ele><time>2026-05-01T11:47:28.097Z</time></trkpt><trkpt lat="45.4291983" lon="10.7006117"><ele>59.0</ele><time>2026-05-01T11:47:30.097Z</time></trkpt><trkpt lat="45.4292" lon="10.700935"><ele>59.0</ele><time>2026-05-01T11:47:31.096Z</time></trkpt><trkpt lat="45.429205" lon="10.7012533"><ele>62.5</ele><time>2026-05-01T11:47:32.097Z</time></trkpt><trkpt lat="45.4292083" lon="10.7015717"><ele>66.0</ele><time>2026-05-01T11:47:33.096Z</time></trkpt><trkpt lat="45.4292133" lon="10.7018983"><ele>68.0</ele><time>2026-05-01T11:47:34.096Z</time></trkpt><trkpt lat="45.4292167" lon="10.702235"><ele>70.0</ele><time>2026-05-01T11:47:35.096Z</time></trkpt><trkpt lat="45.4292133" lon="10.70257"><ele>72.0</ele><time>2026-05-01T11:47:36.097Z</time></trkpt><trkpt lat="45.4292167" lon="10.7028967"><ele>74.0</ele><time>2026-05-01T11:47:37.096Z</time></trkpt><trkpt lat="45.42922" lon="10.703235"><ele>74.0</ele><time>2026-05-01T11:47:38.096Z</time></trkpt><trkpt lat="45.429225" lon="10.7035617"><ele>74.0</ele><time>2026-05-01T11:47:39.097Z</time></trkpt><trkpt lat="45.429225" lon="10.7038833"><ele>75.0</ele><time>2026-05-01T11:47:40.096Z</time></trkpt><trkpt lat="45.4292283" lon="10.7041967"><ele>76.0</ele><time>2026-05-01T11:47:41.096Z</time></trkpt><trkpt lat="45.4292317" lon="10.70451"><ele>77.0</ele><time>2026-05-01T11:47:42.096Z</time></trkpt><trkpt lat="45.4292367" lon="10.7048283"><ele>78.5</ele><time>2026-05-01T11:47:43.097Z</time></trkpt><trkpt lat="45.4292417" lon="10.70515"><ele>80.0</ele><time>2026-05-01T11:47:44.096Z</time></trkpt><trkpt lat="45.429245" lon="10.7054717"><ele>81.0</ele><time>2026-05-01T11:47:45.097Z</time></trkpt><trkpt lat="45.4292467" lon="10.7057967"><ele>82.0</ele><time>2026-05-01T11:47:46.096Z</time></trkpt><trkpt lat="45.4292517" lon="10.7061183"><ele>82.0</ele><time>2026-05-01T11:47:47.096Z</time></trkpt><trkpt lat="45.4292567" lon="10.7064417"><ele>82.0</ele><time>2026-05-01T11:47:48.096Z</time></trkpt><trkpt lat="45.4292567" lon="10.7067667"><ele>83.0</ele><time>2026-05-01T11:47:49.096Z</time></trkpt><trkpt lat="45.4292533" lon="10.707095"><ele>84.0</ele><time>2026-05-01T11:47:50.097Z</time></trkpt><trkpt lat="45.4292567" lon="10.7074267"><ele>84.5</ele><time>2026-05-01T11:47:51.096Z</time></trkpt><trkpt lat="45.42926" lon="10.7077583"><ele>85.0</ele><time>2026-05-01T11:47:52.097Z</time></trkpt><trkpt lat="45.4292633" lon="10.7080917"><ele>85.0</ele><time>2026-05-01T11:47:53.096Z</time></trkpt><trkpt lat="45.4292633" lon="10.7084283"><ele>85.0</ele><time>2026-05-01T11:47:54.096Z</time></trkpt><trkpt lat="45.4292667" lon="10.7087683"><ele>86.0</ele><time>2026-05-01T11:47:55.096Z</time></trkpt><trkpt lat="45.4292667" lon="10.7091067"><ele>87.0</ele><time>2026-05-01T11:47:56.096Z</time></trkpt><trkpt lat="45.4292667" lon="10.7094533"><ele>90.0</ele><time>2026-05-01T11:47:57.096Z</time></trkpt><trkpt lat="45.4292667" lon="10.7101483"><ele>91.5</ele><time>2026-05-01T11:47:59.096Z</time></trkpt><trkpt lat="45.42927" lon="10.710495"><ele>93.0</ele><time>2026-05-01T11:48:00.097Z</time></trkpt><trkpt lat="45.4292733" lon="10.7108383"><ele>95.0</ele><time>2026-05-01T11:48:01.097Z</time></trkpt><trkpt lat="45.4292767" lon="10.71118"><ele>97.0</ele><time>2026-05-01T11:48:02.097Z</time></trkpt><trkpt lat="45.4292783" lon="10.7115217"><ele>97.0</ele><time>2026-05-01T11:48:03.096Z</time></trkpt><trkpt lat="45.42928" lon="10.7118633"><ele>97.0</ele><time>2026-05-01T11:48:04.096Z</time></trkpt><trkpt lat="45.4292833" lon="10.7122133"><ele>98.0</ele><time>2026-05-01T11:48:05.097Z</time></trkpt><trkpt lat="45.429285" lon="10.712555"><ele>99.0</ele><time>2026-05-01T11:48:06.096Z</time></trkpt><trkpt lat="45.4292883" lon="10.7128967"><ele>103.0</ele><time>2026-05-01T11:48:07.096Z</time></trkpt><trkpt lat="45.4292933" lon="10.713575"><ele>103.0</ele><time>2026-05-01T11:48:09.096Z</time></trkpt><trkpt lat="45.4292933" lon="10.7139017"><ele>103.0</ele><time>2026-05-01T11:48:10.096Z</time></trkpt><trkpt lat="45.429295" lon="10.7142217"><ele>102.0</ele><time>2026-05-01T11:48:11.096Z</time></trkpt><trkpt lat="45.4292967" lon="10.7145467"><ele>101.0</ele><time>2026-05-01T11:48:12.096Z</time></trkpt><trkpt lat="45.4292983" lon="10.7148767"><ele>101.0</ele><time>2026-05-01T11:48:13.096Z</time></trkpt><trkpt lat="45.4293033" lon="10.7152133"><ele>101.0</ele><time>2026-05-01T11:48:14.096Z</time></trkpt><trkpt lat="45.4293033" lon="10.7155517"><ele>100.0</ele><time>2026-05-01T11:48:15.096Z</time></trkpt><trkpt lat="45.429305" lon="10.7158933"><ele>99.0</ele><time>2026-05-01T11:48:16.097Z</time></trkpt><trkpt lat="45.429305" lon="10.7162417"><ele>99.0</ele><time>2026-05-01T11:48:17.097Z</time></trkpt><trkpt lat="45.429305" lon="10.716595"><ele>99.0</ele><time>2026-05-01T11:48:18.097Z</time></trkpt><trkpt lat="45.4293067" lon="10.71695"><ele>98.5</ele><time>2026-05-01T11:48:19.097Z</time></trkpt><trkpt lat="45.42931" lon="10.7172967"><ele>98.0</ele><time>2026-05-01T11:48:20.096Z</time></trkpt><trkpt lat="45.429315" lon="10.7176267"><ele>98.0</ele><time>2026-05-01T11:48:21.096Z</time></trkpt><trkpt lat="45.4293167" lon="10.717955"><ele>98.0</ele><time>2026-05-01T11:48:22.097Z</time></trkpt><trkpt lat="45.42932" lon="10.718275"><ele>98.5</ele><time>2026-05-01T11:48:23.097Z</time></trkpt><trkpt lat="45.4293217" lon="10.7185967"><ele>99.0</ele><time>2026-05-01T11:48:24.096Z</time></trkpt><trkpt lat="45.4293233" lon="10.7189183"><ele>99.0</ele><time>2026-05-01T11:48:25.097Z</time></trkpt><trkpt lat="45.429325" lon="10.7192367"><ele>99.0</ele><time>2026-05-01T11:48:26.096Z</time></trkpt><trkpt lat="45.4293267" lon="10.719555"><ele>99.0</ele><time>2026-05-01T11:48:27.097Z</time></trkpt><trkpt lat="45.42933" lon="10.71987"><ele>99.5</ele><time>2026-05-01T11:48:28.096Z</time></trkpt><trkpt lat="45.42933" lon="10.7201883"><ele>100.0</ele><time>2026-05-01T11:48:29.096Z</time></trkpt><trkpt lat="45.4293333" lon="10.7205133"><ele>100.0</ele><time>2026-05-01T11:48:30.096Z</time></trkpt><trkpt lat="45.429335" lon="10.72085"><ele>100.0</ele><time>2026-05-01T11:48:31.096Z</time></trkpt><trkpt lat="45.4293383" lon="10.7211783"><ele>100.5</ele><time>2026-05-01T11:48:32.097Z</time></trkpt><trkpt lat="45.4293417" lon="10.7215133"><ele>101.0</ele><time>2026-05-01T11:48:33.096Z</time></trkpt><trkpt lat="45.4293433" lon="10.7218517"><ele>102.0</ele><time>2026-05-01T11:48:34.096Z</time></trkpt><trkpt lat="45.4293467" lon="10.7221933"><ele>103.0</ele><time>2026-05-01T11:48:35.096Z</time></trkpt><trkpt lat="45.42935" lon="10.72254"><ele>104.0</ele><time>2026-05-01T11:48:36.097Z</time></trkpt><trkpt lat="45.429355" lon="10.7228883"><ele>105.0</ele><time>2026-05-01T11:48:37.096Z</time></trkpt><trkpt lat="45.42936" lon="10.7232433"><ele>105.5</ele><time>2026-05-01T11:48:38.097Z</time></trkpt><trkpt lat="45.4293617" lon="10.7235867"><ele>106.0</ele><time>2026-05-01T11:48:39.097Z</time></trkpt><trkpt lat="45.42936" lon="10.7239233"><ele>106.0</ele><time>2026-05-01T11:48:40.097Z</time></trkpt><trkpt lat="45.4293583" lon="10.7242533"><ele>106.0</ele><time>2026-05-01T11:48:41.097Z</time></trkpt><trkpt lat="45.42936" lon="10.7245833"><ele>107.0</ele><time>2026-05-01T11:48:42.096Z</time></trkpt><trkpt lat="45.4293617" lon="10.7249133"><ele>108.0</ele><time>2026-05-01T11:48:43.096Z</time></trkpt><trkpt lat="45.4293633" lon="10.7252417"><ele>108.5</ele><time>2026-05-01T11:48:44.097Z</time></trkpt><trkpt lat="45.429365" lon="10.7255717"><ele>109.0</ele><time>2026-05-01T11:48:45.096Z</time></trkpt><trkpt lat="45.4293633" lon="10.725905"><ele>111.0</ele><time>2026-05-01T11:48:46.096Z</time></trkpt><trkpt lat="45.4293617" lon="10.7262383"><ele>113.0</ele><time>2026-05-01T11:48:47.096Z</time></trkpt><trkpt lat="45.42936" lon="10.7265717"><ele>111.5</ele><time>2026-05-01T11:48:48.096Z</time></trkpt><trkpt lat="45.429345" lon="10.72691"><ele>110.0</ele><time>2026-05-01T11:48:49.097Z</time></trkpt><trkpt lat="45.4293283" lon="10.7272467"><ele>110.0</ele><time>2026-05-01T11:48:50.097Z</time></trkpt><trkpt lat="45.4293133" lon="10.7275967"><ele>110.0</ele><time>2026-05-01T11:48:51.096Z</time></trkpt><trkpt lat="45.429305" lon="10.727945"><ele>108.0</ele><time>2026-05-01T11:48:52.096Z</time></trkpt><trkpt lat="45.4292983" lon="10.7282983"><ele>106.0</ele><time>2026-05-01T11:48:53.097Z</time></trkpt><trkpt lat="45.4292817" lon="10.7286583"><ele>104.0</ele><time>2026-05-01T11:48:54.097Z</time></trkpt><trkpt lat="45.4292633" lon="10.72902"><ele>102.0</ele><time>2026-05-01T11:48:55.096Z</time></trkpt><trkpt lat="45.4292417" lon="10.72938"><ele>102.0</ele><time>2026-05-01T11:48:56.096Z</time></trkpt><trkpt lat="45.4292217" lon="10.7297383"><ele>102.0</ele><time>2026-05-01T11:48:57.097Z</time></trkpt><trkpt lat="45.4291983" lon="10.7301033"><ele>102.0</ele><time>2026-05-01T11:48:58.096Z</time></trkpt><trkpt lat="45.429175" lon="10.73047"><ele>102.0</ele><time>2026-05-01T11:48:59.097Z</time></trkpt><trkpt lat="45.4291483" lon="10.7308267"><ele>102.5</ele><time>2026-05-01T11:49:00.096Z</time></trkpt><trkpt lat="45.4291233" lon="10.7311867"><ele>103.0</ele><time>2026-05-01T11:49:01.096Z</time></trkpt><trkpt lat="45.4290967" lon="10.731535"><ele>103.0</ele><time>2026-05-01T11:49:02.096Z</time></trkpt><trkpt lat="45.4290683" lon="10.7318817"><ele>103.0</ele><time>2026-05-01T11:49:03.096Z</time></trkpt><trkpt lat="45.429035" lon="10.73223"><ele>103.0</ele><time>2026-05-01T11:49:04.097Z</time></trkpt><trkpt lat="45.4290017" lon="10.732575"><ele>103.0</ele><time>2026-05-01T11:49:05.096Z</time></trkpt><trkpt lat="45.4289667" lon="10.7329183"><ele>103.5</ele><time>2026-05-01T11:49:06.097Z</time></trkpt><trkpt lat="45.4289367" lon="10.733265"><ele>104.0</ele><time>2026-05-01T11:49:07.096Z</time></trkpt><trkpt lat="45.4289033" lon="10.7336083"><ele>101.5</ele><time>2026-05-01T11:49:08.096Z</time></trkpt><trkpt lat="45.42887" lon="10.733955"><ele>99.0</ele><time>2026-05-01T11:49:09.097Z</time></trkpt><trkpt lat="45.4288317" lon="10.7343"><ele>98.5</ele><time>2026-05-01T11:49:10.096Z</time></trkpt><trkpt lat="45.4287967" lon="10.7346483"><ele>98.0</ele><time>2026-05-01T11:49:11.097Z</time></trkpt><trkpt lat="45.4287617" lon="10.735"><ele>98.5</ele><time>2026-05-01T11:49:12.096Z</time></trkpt><trkpt lat="45.428725" lon="10.7353567"><ele>99.0</ele><time>2026-05-01T11:49:13.096Z</time></trkpt><trkpt lat="45.4286867" lon="10.7357067"><ele>100.0</ele><time>2026-05-01T11:49:14.097Z</time></trkpt><trkpt lat="45.4286183" lon="10.7364017"><ele>100.0</ele><time>2026-05-01T11:49:16.096Z</time></trkpt><trkpt lat="45.4285833" lon="10.736745"><ele>100.0</ele><time>2026-05-01T11:49:17.096Z</time></trkpt><trkpt lat="45.4285483" lon="10.7370867"><ele>98.5</ele><time>2026-05-01T11:49:18.097Z</time></trkpt><trkpt lat="45.42851" lon="10.73743"><ele>97.0</ele><time>2026-05-01T11:49:19.097Z</time></trkpt><trkpt lat="45.4284733" lon="10.7377767"><ele>97.0</ele><time>2026-05-01T11:49:20.096Z</time></trkpt><trkpt lat="45.42844" lon="10.7381283"><ele>97.0</ele><time>2026-05-01T11:49:21.097Z</time></trkpt><trkpt lat="45.4284017" lon="10.7384733"><ele>96.5</ele><time>2026-05-01T11:49:22.097Z</time></trkpt><trkpt lat="45.4283633" lon="10.7388217"><ele>96.0</ele><time>2026-05-01T11:49:23.097Z</time></trkpt><trkpt lat="45.4283233" lon="10.7391717"><ele>96.0</ele><time>2026-05-01T11:49:24.096Z</time></trkpt><trkpt lat="45.428285" lon="10.73952"><ele>96.0</ele><time>2026-05-01T11:49:25.096Z</time></trkpt><trkpt lat="45.4282483" lon="10.739865"><ele>96.5</ele><time>2026-05-01T11:49:26.096Z</time></trkpt><trkpt lat="45.4282083" lon="10.7402233"><ele>97.0</ele><time>2026-05-01T11:49:27.096Z</time></trkpt><trkpt lat="45.4281683" lon="10.7405783"><ele>97.0</ele><time>2026-05-01T11:49:28.096Z</time></trkpt><trkpt lat="45.4281317" lon="10.7409367"><ele>97.0</ele><time>2026-05-01T11:49:29.096Z</time></trkpt><trkpt lat="45.4280967" lon="10.7412983"><ele>97.0</ele><time>2026-05-01T11:49:30.096Z</time></trkpt><trkpt lat="45.4280567" lon="10.7416617"><ele>97.0</ele><time>2026-05-01T11:49:31.096Z</time></trkpt><trkpt lat="45.4280217" lon="10.7420217"><ele>97.0</ele><time>2026-05-01T11:49:32.097Z</time></trkpt><trkpt lat="45.4279867" lon="10.742365"><ele>97.0</ele><time>2026-05-01T11:49:33.096Z</time></trkpt><trkpt lat="45.4279533" lon="10.7427067"><ele>95.5</ele><time>2026-05-01T11:49:34.097Z</time></trkpt><trkpt lat="45.4279217" lon="10.7430433"><ele>94.0</ele><time>2026-05-01T11:49:35.096Z</time></trkpt><trkpt lat="45.42789" lon="10.7433767"><ele>93.0</ele><time>2026-05-01T11:49:36.096Z</time></trkpt><trkpt lat="45.42786" lon="10.7437067"><ele>92.0</ele><time>2026-05-01T11:49:37.096Z</time></trkpt><trkpt lat="45.42783" lon="10.7440467"><ele>92.0</ele><time>2026-05-01T11:49:38.096Z</time></trkpt><trkpt lat="45.4277967" lon="10.744375"><ele>92.0</ele><time>2026-05-01T11:49:39.096Z</time></trkpt><trkpt lat="45.4277633" lon="10.744705"><ele>93.0</ele><time>2026-05-01T11:49:40.096Z</time></trkpt><trkpt lat="45.4277333" lon="10.7450333"><ele>94.0</ele><time>2026-05-01T11:49:41.097Z</time></trkpt><trkpt lat="45.4277033" lon="10.74536"><ele>94.0</ele><time>2026-05-01T11:49:42.096Z</time></trkpt><trkpt lat="45.4276717" lon="10.7456917"><ele>94.0</ele><time>2026-05-01T11:49:43.097Z</time></trkpt><trkpt lat="45.42764" lon="10.746025"><ele>94.5</ele><time>2026-05-01T11:49:44.096Z</time></trkpt><trkpt lat="45.427605" lon="10.7463533"><ele>95.0</ele><time>2026-05-01T11:49:45.096Z</time></trkpt><trkpt lat="45.4275717" lon="10.7466883"><ele>96.0</ele><time>2026-05-01T11:49:46.096Z</time></trkpt><trkpt lat="45.4275383" lon="10.7470133"><ele>97.0</ele><time>2026-05-01T11:49:47.096Z</time></trkpt><trkpt lat="45.4275067" lon="10.7473417"><ele>97.0</ele><time>2026-05-01T11:49:48.096Z</time></trkpt><trkpt lat="45.4274733" lon="10.74767"><ele>97.0</ele><time>2026-05-01T11:49:49.096Z</time></trkpt><trkpt lat="45.4274083" lon="10.74832"><ele>99.0</ele><time>2026-05-01T11:49:51.097Z</time></trkpt><trkpt lat="45.427375" lon="10.7486483"><ele>101.0</ele><time>2026-05-01T11:49:52.096Z</time></trkpt><trkpt lat="45.4273417" lon="10.74898"><ele>103.0</ele><time>2026-05-01T11:49:53.096Z</time></trkpt><trkpt lat="45.4272683" lon="10.74966"><ele>103.0</ele><time>2026-05-01T11:49:55.096Z</time></trkpt><trkpt lat="45.4272317" lon="10.75"><ele>103.0</ele><time>2026-05-01T11:49:56.097Z</time></trkpt><trkpt lat="45.4271967" lon="10.750335"><ele>103.5</ele><time>2026-05-01T11:49:57.096Z</time></trkpt><trkpt lat="45.42716" lon="10.7506733"><ele>104.0</ele><time>2026-05-01T11:49:58.097Z</time></trkpt><trkpt lat="45.427125" lon="10.7510183"><ele>104.0</ele><time>2026-05-01T11:49:59.096Z</time></trkpt><trkpt lat="45.42709" lon="10.7513583"><ele>104.0</ele><time>2026-05-01T11:50:00.097Z</time></trkpt><trkpt lat="45.427055" lon="10.7517"><ele>103.0</ele><time>2026-05-01T11:50:01.096Z</time></trkpt><trkpt lat="45.4270217" lon="10.7520483"><ele>102.0</ele><time>2026-05-01T11:50:02.096Z</time></trkpt><trkpt lat="45.42699" lon="10.7523967"><ele>101.5</ele><time>2026-05-01T11:50:03.097Z</time></trkpt><trkpt lat="45.4269467" lon="10.75276"><ele>101.0</ele><time>2026-05-01T11:50:04.096Z</time></trkpt><trkpt lat="45.4269117" lon="10.7531017"><ele>101.0</ele><time>2026-05-01T11:50:05.097Z</time></trkpt><trkpt lat="45.4268717" lon="10.7534567"><ele>101.0</ele><time>2026-05-01T11:50:06.097Z</time></trkpt><trkpt lat="45.426835" lon="10.7538167"><ele>101.0</ele><time>2026-05-01T11:50:07.096Z</time></trkpt><trkpt lat="45.4268033" lon="10.754175"><ele>101.0</ele><time>2026-05-01T11:50:08.096Z</time></trkpt><trkpt lat="45.42677" lon="10.7545367"><ele>101.0</ele><time>2026-05-01T11:50:09.096Z</time></trkpt><trkpt lat="45.4267333" lon="10.7549017"><ele>101.0</ele><time>2026-05-01T11:50:10.096Z</time></trkpt><trkpt lat="45.4266967" lon="10.75527"><ele>101.0</ele><time>2026-05-01T11:50:11.097Z</time></trkpt><trkpt lat="45.4266583" lon="10.7556183"><ele>101.0</ele><time>2026-05-01T11:50:12.096Z</time></trkpt><trkpt lat="45.4266267" lon="10.7559483"><ele>101.0</ele><time>2026-05-01T11:50:13.096Z</time></trkpt><trkpt lat="45.426595" lon="10.7562867"><ele>101.0</ele><time>2026-05-01T11:50:14.096Z</time></trkpt><trkpt lat="45.426555" lon="10.7566317"><ele>100.5</ele><time>2026-05-01T11:50:15.097Z</time></trkpt><trkpt lat="45.4265217" lon="10.7569567"><ele>100.0</ele><time>2026-05-01T11:50:16.097Z</time></trkpt><trkpt lat="45.4264883" lon="10.7573"><ele>100.0</ele><time>2026-05-01T11:50:17.096Z</time></trkpt><trkpt lat="45.4264483" lon="10.7576533"><ele>100.0</ele><time>2026-05-01T11:50:18.097Z</time></trkpt><trkpt lat="45.42641" lon="10.7580083"><ele>101.0</ele><time>2026-05-01T11:50:19.097Z</time></trkpt><trkpt lat="45.4263717" lon="10.75836"><ele>102.0</ele><time>2026-05-01T11:50:20.096Z</time></trkpt><trkpt lat="45.426335" lon="10.75872"><ele>103.0</ele><time>2026-05-01T11:50:21.096Z</time></trkpt><trkpt lat="45.4263" lon="10.7590817"><ele>104.0</ele><time>2026-05-01T11:50:22.096Z</time></trkpt><trkpt lat="45.4262633" lon="10.75944"><ele>104.0</ele><time>2026-05-01T11:50:23.096Z</time></trkpt><trkpt lat="45.426235" lon="10.7597917"><ele>104.0</ele><time>2026-05-01T11:50:24.096Z</time></trkpt><trkpt lat="45.4262033" lon="10.7601317"><ele>103.0</ele><time>2026-05-01T11:50:25.097Z</time></trkpt><trkpt lat="45.4261617" lon="10.7604717"><ele>102.0</ele><time>2026-05-01T11:50:26.096Z</time></trkpt><trkpt lat="45.42613" lon="10.7608067"><ele>101.5</ele><time>2026-05-01T11:50:27.097Z</time></trkpt><trkpt lat="45.4260983" lon="10.76115"><ele>101.0</ele><time>2026-05-01T11:50:28.096Z</time></trkpt><trkpt lat="45.4260283" lon="10.761855"><ele>102.0</ele><time>2026-05-01T11:50:30.097Z</time></trkpt><trkpt lat="45.4259867" lon="10.762215"><ele>103.0</ele><time>2026-05-01T11:50:31.096Z</time></trkpt><trkpt lat="45.4259467" lon="10.7625817"><ele>103.0</ele><time>2026-05-01T11:50:32.096Z</time></trkpt><trkpt lat="45.4259083" lon="10.7629567"><ele>103.0</ele><time>2026-05-01T11:50:33.097Z</time></trkpt><trkpt lat="45.42587" lon="10.76334"><ele>102.0</ele><time>2026-05-01T11:50:34.097Z</time></trkpt><trkpt lat="45.4258317" lon="10.7637083"><ele>101.0</ele><time>2026-05-01T11:50:35.096Z</time></trkpt><trkpt lat="45.4257933" lon="10.7640583"><ele>100.0</ele><time>2026-05-01T11:50:36.097Z</time></trkpt><trkpt lat="45.4257583" lon="10.764405"><ele>99.0</ele><time>2026-05-01T11:50:37.097Z</time></trkpt><trkpt lat="45.425725" lon="10.7647533"><ele>99.0</ele><time>2026-05-01T11:50:38.097Z</time></trkpt><trkpt lat="45.4256867" lon="10.7650983"><ele>99.0</ele><time>2026-05-01T11:50:39.096Z</time></trkpt><trkpt lat="45.4256483" lon="10.76544"><ele>98.5</ele><time>2026-05-01T11:50:40.096Z</time></trkpt><trkpt lat="45.4256083" lon="10.765785"><ele>98.0</ele><time>2026-05-01T11:50:41.096Z</time></trkpt><trkpt lat="45.425575" lon="10.7661267"><ele>99.0</ele><time>2026-05-01T11:50:42.096Z</time></trkpt><trkpt lat="45.4255367" lon="10.7664683"><ele>100.0</ele><time>2026-05-01T11:50:43.096Z</time></trkpt><trkpt lat="45.4254983" lon="10.7668017"><ele>99.5</ele><time>2026-05-01T11:50:44.097Z</time></trkpt><trkpt lat="45.425465" lon="10.7671433"><ele>99.0</ele><time>2026-05-01T11:50:45.096Z</time></trkpt><trkpt lat="45.4254267" lon="10.7674867"><ele>101.5</ele><time>2026-05-01T11:50:46.096Z</time></trkpt><trkpt lat="45.4253883" lon="10.76783"><ele>104.0</ele><time>2026-05-01T11:50:47.097Z</time></trkpt><trkpt lat="45.4253517" lon="10.7681733"><ele>104.0</ele><time>2026-05-01T11:50:48.096Z</time></trkpt><trkpt lat="45.425315" lon="10.76852"><ele>104.0</ele><time>2026-05-01T11:50:49.096Z</time></trkpt><trkpt lat="45.4252733" lon="10.768875"><ele>104.0</ele><time>2026-05-01T11:50:50.097Z</time></trkpt><trkpt lat="45.4252217" lon="10.769225"><ele>104.0</ele><time>2026-05-01T11:50:51.096Z</time></trkpt><trkpt lat="45.42517" lon="10.7695767"><ele>103.5</ele><time>2026-05-01T11:50:52.096Z</time></trkpt><trkpt lat="45.425115" lon="10.7699333"><ele>103.0</ele><time>2026-05-01T11:50:53.096Z</time></trkpt><trkpt lat="45.425055" lon="10.7702917"><ele>103.0</ele><time>2026-05-01T11:50:54.097Z</time></trkpt><trkpt lat="45.4249967" lon="10.7706483"><ele>103.0</ele><time>2026-05-01T11:50:55.097Z</time></trkpt><trkpt lat="45.4249317" lon="10.771005"><ele>104.0</ele><time>2026-05-01T11:50:56.097Z</time></trkpt><trkpt lat="45.4248617" lon="10.7713517"><ele>105.0</ele><time>2026-05-01T11:50:57.096Z</time></trkpt><trkpt lat="45.424785" lon="10.7716967"><ele>104.5</ele><time>2026-05-01T11:50:58.097Z</time></trkpt><trkpt lat="45.4247017" lon="10.7720383"><ele>104.0</ele><time>2026-05-01T11:50:59.096Z</time></trkpt><trkpt lat="45.4246183" lon="10.7723783"><ele>103.0</ele><time>2026-05-01T11:51:00.096Z</time></trkpt><trkpt lat="45.4245333" lon="10.7727117"><ele>102.0</ele><time>2026-05-01T11:51:01.096Z</time></trkpt><trkpt lat="45.4244467" lon="10.7730417"><ele>102.0</ele><time>2026-05-01T11:51:02.096Z</time></trkpt><trkpt lat="45.4243617" lon="10.7733667"><ele>102.0</ele><time>2026-05-01T11:51:03.096Z</time></trkpt><trkpt lat="45.4242767" lon="10.773685"><ele>104.0</ele><time>2026-05-01T11:51:04.097Z</time></trkpt><trkpt lat="45.4241817" lon="10.774005"><ele>106.0</ele><time>2026-05-01T11:51:05.096Z</time></trkpt><trkpt lat="45.4240883" lon="10.774325"><ele>107.0</ele><time>2026-05-01T11:51:06.096Z</time></trkpt><trkpt lat="45.4239767" lon="10.7746467"><ele>108.0</ele><time>2026-05-01T11:51:07.096Z</time></trkpt><trkpt lat="45.4238717" lon="10.77497"><ele>112.0</ele><time>2026-05-01T11:51:08.097Z</time></trkpt><trkpt lat="45.4237667" lon="10.775285"><ele>116.0</ele><time>2026-05-01T11:51:09.097Z</time></trkpt><trkpt lat="45.423545" lon="10.7759"><ele>117.0</ele><time>2026-05-01T11:51:11.097Z</time></trkpt><trkpt lat="45.423435" lon="10.7761967"><ele>118.0</ele><time>2026-05-01T11:51:12.096Z</time></trkpt><trkpt lat="45.4233217" lon="10.7764917"><ele>118.0</ele><time>2026-05-01T11:51:13.096Z</time></trkpt><trkpt lat="45.4232083" lon="10.77678"><ele>118.0</ele><time>2026-05-01T11:51:14.096Z</time></trkpt><trkpt lat="45.4230933" lon="10.7770717"><ele>119.5</ele><time>2026-05-01T11:51:15.096Z</time></trkpt><trkpt lat="45.422975" lon="10.7773667"><ele>121.0</ele><time>2026-05-01T11:51:16.096Z</time></trkpt><trkpt lat="45.4228567" lon="10.777665"><ele>123.0</ele><time>2026-05-01T11:51:17.097Z</time></trkpt><trkpt lat="45.4227417" lon="10.7779567"><ele>125.0</ele><time>2026-05-01T11:51:18.097Z</time></trkpt><trkpt lat="45.4226267" lon="10.7782483"><ele>126.0</ele><time>2026-05-01T11:51:19.096Z</time></trkpt><trkpt lat="45.4225167" lon="10.7785383"><ele>127.0</ele><time>2026-05-01T11:51:20.096Z</time></trkpt><trkpt lat="45.4223967" lon="10.7788283"><ele>127.0</ele><time>2026-05-01T11:51:21.096Z</time></trkpt><trkpt lat="45.42228" lon="10.7791267"><ele>127.0</ele><time>2026-05-01T11:51:22.096Z</time></trkpt><trkpt lat="45.4221633" lon="10.7794217"><ele>126.0</ele><time>2026-05-01T11:51:23.096Z</time></trkpt><trkpt lat="45.4220517" lon="10.77972"><ele>125.0</ele><time>2026-05-01T11:51:24.097Z</time></trkpt><trkpt lat="45.42194" lon="10.780015"><ele>125.0</ele><time>2026-05-01T11:51:25.096Z</time></trkpt><trkpt lat="45.42182" lon="10.7803083"><ele>125.0</ele><time>2026-05-01T11:51:26.096Z</time></trkpt><trkpt lat="45.4215883" lon="10.7808733"><ele>124.5</ele><time>2026-05-01T11:51:28.097Z</time></trkpt><trkpt lat="45.4214833" lon="10.7811633"><ele>124.0</ele><time>2026-05-01T11:51:29.096Z</time></trkpt><trkpt lat="45.4213667" lon="10.7814567"><ele>124.0</ele><time>2026-05-01T11:51:30.097Z</time></trkpt><trkpt lat="45.421255" lon="10.78175"><ele>124.0</ele><time>2026-05-01T11:51:31.097Z</time></trkpt><trkpt lat="45.4211483" lon="10.7820433"><ele>123.0</ele><time>2026-05-01T11:51:32.097Z</time></trkpt><trkpt lat="45.4210417" lon="10.7823317"><ele>122.0</ele><time>2026-05-01T11:51:33.096Z</time></trkpt><trkpt lat="45.4209383" lon="10.7826233"><ele>123.5</ele><time>2026-05-01T11:51:34.096Z</time></trkpt><trkpt lat="45.420835" lon="10.7829233"><ele>125.0</ele><time>2026-05-01T11:51:35.097Z</time></trkpt><trkpt lat="45.4207317" lon="10.7832217"><ele>124.5</ele><time>2026-05-01T11:51:36.096Z</time></trkpt><trkpt lat="45.4206317" lon="10.78352"><ele>124.0</ele><time>2026-05-01T11:51:37.097Z</time></trkpt><trkpt lat="45.4205267" lon="10.78382"><ele>124.0</ele><time>2026-05-01T11:51:38.096Z</time></trkpt><trkpt lat="45.420425" lon="10.7841267"><ele>124.0</ele><time>2026-05-01T11:51:39.096Z</time></trkpt><trkpt lat="45.4203233" lon="10.7844383"><ele>124.0</ele><time>2026-05-01T11:51:40.097Z</time></trkpt><trkpt lat="45.4202183" lon="10.784755"><ele>124.0</ele><time>2026-05-01T11:51:41.097Z</time></trkpt><trkpt lat="45.420115" lon="10.7850833"><ele>124.5</ele><time>2026-05-01T11:51:42.096Z</time></trkpt><trkpt lat="45.4200117" lon="10.78542"><ele>125.0</ele><time>2026-05-01T11:51:43.096Z</time></trkpt><trkpt lat="45.4199117" lon="10.7857617"><ele>126.0</ele><time>2026-05-01T11:51:44.096Z</time></trkpt><trkpt lat="45.4198067" lon="10.7861067"><ele>127.0</ele><time>2026-05-01T11:51:45.097Z</time></trkpt><trkpt lat="45.41971" lon="10.7864617"><ele>128.0</ele><time>2026-05-01T11:51:46.096Z</time></trkpt><trkpt lat="45.4196133" lon="10.7868183"><ele>129.0</ele><time>2026-05-01T11:51:47.096Z</time></trkpt><trkpt lat="45.4195117" lon="10.78719"><ele>126.0</ele><time>2026-05-01T11:51:48.096Z</time></trkpt><trkpt lat="45.4194083" lon="10.7875567"><ele>123.0</ele><time>2026-05-01T11:51:49.097Z</time></trkpt><trkpt lat="45.4193167" lon="10.7879"><ele>123.0</ele><time>2026-05-01T11:51:50.096Z</time></trkpt><trkpt lat="45.419225" lon="10.7882383"><ele>123.0</ele><time>2026-05-01T11:51:51.097Z</time></trkpt><trkpt lat="45.4191333" lon="10.78858"><ele>123.0</ele><time>2026-05-01T11:51:52.097Z</time></trkpt><trkpt lat="45.4190417" lon="10.7889167"><ele>123.0</ele><time>2026-05-01T11:51:53.096Z</time></trkpt><trkpt lat="45.4189517" lon="10.7892567"><ele>125.0</ele><time>2026-05-01T11:51:54.096Z</time></trkpt><trkpt lat="45.4188717" lon="10.7896017"><ele>127.0</ele><time>2026-05-01T11:51:55.096Z</time></trkpt><trkpt lat="45.4187883" lon="10.7899467"><ele>127.0</ele><time>2026-05-01T11:51:56.096Z</time></trkpt><trkpt lat="45.4186333" lon="10.7906183"><ele>127.0</ele><time>2026-05-01T11:51:58.096Z</time></trkpt><trkpt lat="45.4185617" lon="10.7909633"><ele>127.0</ele><time>2026-05-01T11:51:59.096Z</time></trkpt><trkpt lat="45.41849" lon="10.79131"><ele>126.5</ele><time>2026-05-01T11:52:00.096Z</time></trkpt><trkpt lat="45.4184217" lon="10.79166"><ele>126.0</ele><time>2026-05-01T11:52:01.096Z</time></trkpt><trkpt lat="45.4182917" lon="10.792365"><ele>125.5</ele><time>2026-05-01T11:52:03.097Z</time></trkpt><trkpt lat="45.4182283" lon="10.7927183"><ele>125.0</ele><time>2026-05-01T11:52:04.097Z</time></trkpt><trkpt lat="45.4181667" lon="10.79307"><ele>125.0</ele><time>2026-05-01T11:52:05.097Z</time></trkpt><trkpt lat="45.418095" lon="10.79342"><ele>125.0</ele><time>2026-05-01T11:52:06.097Z</time></trkpt><trkpt lat="45.4180267" lon="10.793775"><ele>122.0</ele><time>2026-05-01T11:52:07.097Z</time></trkpt><trkpt lat="45.4179667" lon="10.7941367"><ele>119.0</ele><time>2026-05-01T11:52:08.096Z</time></trkpt><trkpt lat="45.41791" lon="10.7945017"><ele>118.5</ele><time>2026-05-01T11:52:09.097Z</time></trkpt><trkpt lat="45.4178517" lon="10.7948717"><ele>118.0</ele><time>2026-05-01T11:52:10.096Z</time></trkpt><trkpt lat="45.4177417" lon="10.795605"><ele>118.0</ele><time>2026-05-01T11:52:12.097Z</time></trkpt><trkpt lat="45.4176917" lon="10.79597"><ele>118.0</ele><time>2026-05-01T11:52:13.096Z</time></trkpt><trkpt lat="45.4176383" lon="10.7963367"><ele>118.0</ele><time>2026-05-01T11:52:14.096Z</time></trkpt><trkpt lat="45.4175917" lon="10.7967017"><ele>118.0</ele><time>2026-05-01T11:52:15.096Z</time></trkpt><trkpt lat="45.4175467" lon="10.7970683"><ele>118.0</ele><time>2026-05-01T11:52:16.096Z</time></trkpt><trkpt lat="45.4174983" lon="10.7974317"><ele>118.0</ele><time>2026-05-01T11:52:17.097Z</time></trkpt><trkpt lat="45.4174567" lon="10.797795"><ele>118.5</ele><time>2026-05-01T11:52:18.097Z</time></trkpt><trkpt lat="45.4174183" lon="10.7981617"><ele>119.0</ele><time>2026-05-01T11:52:19.096Z</time></trkpt><trkpt lat="45.4173833" lon="10.7985267"><ele>120.0</ele><time>2026-05-01T11:52:20.096Z</time></trkpt><trkpt lat="45.4173417" lon="10.7989033"><ele>121.0</ele><time>2026-05-01T11:52:21.096Z</time></trkpt><trkpt lat="45.4173033" lon="10.7992667"><ele>119.5</ele><time>2026-05-01T11:52:22.096Z</time></trkpt><trkpt lat="45.4172683" lon="10.799635"><ele>118.0</ele><time>2026-05-01T11:52:23.096Z</time></trkpt><trkpt lat="45.41723" lon="10.8000083"><ele>116.5</ele><time>2026-05-01T11:52:24.097Z</time></trkpt><trkpt lat="45.4171883" lon="10.8003817"><ele>115.0</ele><time>2026-05-01T11:52:25.096Z</time></trkpt><trkpt lat="45.4171483" lon="10.800755"><ele>114.5</ele><time>2026-05-01T11:52:26.096Z</time></trkpt><trkpt lat="45.41711" lon="10.801135"><ele>114.0</ele><time>2026-05-01T11:52:27.097Z</time></trkpt><trkpt lat="45.4170667" lon="10.8015133"><ele>114.5</ele><time>2026-05-01T11:52:28.097Z</time></trkpt><trkpt lat="45.417025" lon="10.8018833"><ele>115.0</ele><time>2026-05-01T11:52:29.097Z</time></trkpt><trkpt lat="45.416985" lon="10.802255"><ele>115.0</ele><time>2026-05-01T11:52:30.097Z</time></trkpt><trkpt lat="45.4169433" lon="10.8026133"><ele>115.0</ele><time>2026-05-01T11:52:31.096Z</time></trkpt><trkpt lat="45.4169067" lon="10.8029717"><ele>114.5</ele><time>2026-05-01T11:52:32.097Z</time></trkpt><trkpt lat="45.4168717" lon="10.8033217"><ele>114.0</ele><time>2026-05-01T11:52:33.096Z</time></trkpt><trkpt lat="45.4168333" lon="10.8036717"><ele>113.5</ele><time>2026-05-01T11:52:34.096Z</time></trkpt><trkpt lat="45.4167967" lon="10.8040183"><ele>113.0</ele><time>2026-05-01T11:52:35.096Z</time></trkpt><trkpt lat="45.4167267" lon="10.804715"><ele>113.0</ele><time>2026-05-01T11:52:37.096Z</time></trkpt><trkpt lat="45.4166867" lon="10.8050633"><ele>113.0</ele><time>2026-05-01T11:52:38.096Z</time></trkpt><trkpt lat="45.4166467" lon="10.8054167"><ele>114.0</ele><time>2026-05-01T11:52:39.096Z</time></trkpt><trkpt lat="45.4166083" lon="10.8057767"><ele>115.0</ele><time>2026-05-01T11:52:40.096Z</time></trkpt><trkpt lat="45.41657" lon="10.8061317"><ele>115.0</ele><time>2026-05-01T11:52:41.096Z</time></trkpt><trkpt lat="45.416535" lon="10.8064833"><ele>115.0</ele><time>2026-05-01T11:52:42.097Z</time></trkpt><trkpt lat="45.4165" lon="10.8068367"><ele>115.0</ele><time>2026-05-01T11:52:43.097Z</time></trkpt><trkpt lat="45.4164617" lon="10.8071867"><ele>115.0</ele><time>2026-05-01T11:52:44.096Z</time></trkpt><trkpt lat="45.416425" lon="10.807535"><ele>115.0</ele><time>2026-05-01T11:52:45.096Z</time></trkpt><trkpt lat="45.416385" lon="10.80788"><ele>115.0</ele><time>2026-05-01T11:52:46.096Z</time></trkpt><trkpt lat="45.4163517" lon="10.8082117"><ele>120.5</ele><time>2026-05-01T11:52:47.096Z</time></trkpt><trkpt lat="45.4163117" lon="10.8085433"><ele>126.0</ele><time>2026-05-01T11:52:48.096Z</time></trkpt><trkpt lat="45.4162767" lon="10.808885"><ele>126.0</ele><time>2026-05-01T11:52:49.096Z</time></trkpt><trkpt lat="45.416245" lon="10.80923"><ele>126.0</ele><time>2026-05-01T11:52:50.097Z</time></trkpt><trkpt lat="45.4162167" lon="10.8095783"><ele>126.0</ele><time>2026-05-01T11:52:51.096Z</time></trkpt><trkpt lat="45.4161917" lon="10.809935"><ele>126.0</ele><time>2026-05-01T11:52:52.096Z</time></trkpt><trkpt lat="45.4161767" lon="10.810295"><ele>126.0</ele><time>2026-05-01T11:52:53.096Z</time></trkpt><trkpt lat="45.4161683" lon="10.81066"><ele>126.0</ele><time>2026-05-01T11:52:54.096Z</time></trkpt><trkpt lat="45.41616" lon="10.8110283"><ele>124.0</ele><time>2026-05-01T11:52:55.096Z</time></trkpt><trkpt lat="45.4161517" lon="10.8114017"><ele>122.0</ele><time>2026-05-01T11:52:56.097Z</time></trkpt><trkpt lat="45.4161433" lon="10.8117817"><ele>121.0</ele><time>2026-05-01T11:52:57.097Z</time></trkpt><trkpt lat="45.4161417" lon="10.8121617"><ele>120.0</ele><time>2026-05-01T11:52:58.097Z</time></trkpt><trkpt lat="45.416145" lon="10.812535"><ele>120.0</ele><time>2026-05-01T11:52:59.096Z</time></trkpt><trkpt lat="45.41615" lon="10.8128983"><ele>120.0</ele><time>2026-05-01T11:53:00.096Z</time></trkpt><trkpt lat="45.4161583" lon="10.8132667"><ele>119.5</ele><time>2026-05-01T11:53:01.097Z</time></trkpt><trkpt lat="45.41617" lon="10.8136333"><ele>119.0</ele><time>2026-05-01T11:53:02.097Z</time></trkpt><trkpt lat="45.4161883" lon="10.8139967"><ele>120.0</ele><time>2026-05-01T11:53:03.096Z</time></trkpt><trkpt lat="45.4162333" lon="10.81473"><ele>120.0</ele><time>2026-05-01T11:53:05.097Z</time></trkpt><trkpt lat="45.4162617" lon="10.815095"><ele>120.0</ele><time>2026-05-01T11:53:06.097Z</time></trkpt><trkpt lat="45.416285" lon="10.815465"><ele>120.0</ele><time>2026-05-01T11:53:07.097Z</time></trkpt><trkpt lat="45.4163133" lon="10.815845"><ele>120.0</ele><time>2026-05-01T11:53:08.097Z</time></trkpt><trkpt lat="45.4163433" lon="10.8162267"><ele>120.5</ele><time>2026-05-01T11:53:09.097Z</time></trkpt><trkpt lat="45.4163683" lon="10.8166117"><ele>121.0</ele><time>2026-05-01T11:53:10.097Z</time></trkpt><trkpt lat="45.4163933" lon="10.817005"><ele>119.0</ele><time>2026-05-01T11:53:11.096Z</time></trkpt><trkpt lat="45.416425" lon="10.8174017"><ele>117.0</ele><time>2026-05-01T11:53:12.097Z</time></trkpt><trkpt lat="45.4164517" lon="10.8177767"><ele>115.5</ele><time>2026-05-01T11:53:13.097Z</time></trkpt><trkpt lat="45.41648" lon="10.8181367"><ele>114.0</ele><time>2026-05-01T11:53:14.096Z</time></trkpt><trkpt lat="45.4165083" lon="10.81849"><ele>113.0</ele><time>2026-05-01T11:53:15.097Z</time></trkpt><trkpt lat="45.4165367" lon="10.81884"><ele>112.0</ele><time>2026-05-01T11:53:16.096Z</time></trkpt><trkpt lat="45.416565" lon="10.8191967"><ele>111.5</ele><time>2026-05-01T11:53:17.096Z</time></trkpt><trkpt lat="45.416595" lon="10.8195517"><ele>111.0</ele><time>2026-05-01T11:53:18.096Z</time></trkpt><trkpt lat="45.416625" lon="10.8199133"><ele>110.0</ele><time>2026-05-01T11:53:19.097Z</time></trkpt><trkpt lat="45.41665" lon="10.8202783"><ele>109.0</ele><time>2026-05-01T11:53:20.097Z</time></trkpt><trkpt lat="45.41668" lon="10.8206483"><ele>108.5</ele><time>2026-05-01T11:53:21.096Z</time></trkpt><trkpt lat="45.41671" lon="10.8210183"><ele>108.0</ele><time>2026-05-01T11:53:22.096Z</time></trkpt><trkpt lat="45.4167367" lon="10.8213883"><ele>108.0</ele><time>2026-05-01T11:53:23.096Z</time></trkpt><trkpt lat="45.4167633" lon="10.8217583"><ele>108.0</ele><time>2026-05-01T11:53:24.096Z</time></trkpt><trkpt lat="45.4167883" lon="10.82213"><ele>107.0</ele><time>2026-05-01T11:53:25.096Z</time></trkpt><trkpt lat="45.41681" lon="10.8224933"><ele>106.0</ele><time>2026-05-01T11:53:26.097Z</time></trkpt><trkpt lat="45.4168333" lon="10.822855"><ele>106.0</ele><time>2026-05-01T11:53:27.097Z</time></trkpt><trkpt lat="45.4168583" lon="10.8232133"><ele>106.0</ele><time>2026-05-01T11:53:28.096Z</time></trkpt><trkpt lat="45.4168917" lon="10.8235667"><ele>107.0</ele><time>2026-05-01T11:53:29.096Z</time></trkpt><trkpt lat="45.4169183" lon="10.8239183"><ele>108.0</ele><time>2026-05-01T11:53:30.097Z</time></trkpt><trkpt lat="45.4169467" lon="10.824275"><ele>108.5</ele><time>2026-05-01T11:53:31.097Z</time></trkpt><trkpt lat="45.4169733" lon="10.824635"><ele>109.0</ele><time>2026-05-01T11:53:32.097Z</time></trkpt><trkpt lat="45.4170017" lon="10.825"><ele>107.5</ele><time>2026-05-01T11:53:33.096Z</time></trkpt><trkpt lat="45.4170333" lon="10.8253633"><ele>106.0</ele><time>2026-05-01T11:53:34.097Z</time></trkpt><trkpt lat="45.417065" lon="10.8257417"><ele>106.5</ele><time>2026-05-01T11:53:35.096Z</time></trkpt><trkpt lat="45.4170917" lon="10.8261183"><ele>107.0</ele><time>2026-05-01T11:53:36.096Z</time></trkpt><trkpt lat="45.4171217" lon="10.8264833"><ele>107.0</ele><time>2026-05-01T11:53:37.096Z</time></trkpt><trkpt lat="45.41715" lon="10.8268333"><ele>107.0</ele><time>2026-05-01T11:53:38.096Z</time></trkpt><trkpt lat="45.4171767" lon="10.8271867"><ele>107.0</ele><time>2026-05-01T11:53:39.097Z</time></trkpt><trkpt lat="45.417205" lon="10.82754"><ele>107.0</ele><time>2026-05-01T11:53:40.096Z</time></trkpt><trkpt lat="45.41723" lon="10.827905"><ele>106.0</ele><time>2026-05-01T11:53:41.096Z</time></trkpt><trkpt lat="45.4172533" lon="10.8282733"><ele>105.0</ele><time>2026-05-01T11:53:42.097Z</time></trkpt><trkpt lat="45.4172817" lon="10.8286433"><ele>104.0</ele><time>2026-05-01T11:53:43.096Z</time></trkpt><trkpt lat="45.4173283" lon="10.8293867"><ele>104.0</ele><time>2026-05-01T11:53:45.096Z</time></trkpt><trkpt lat="45.4173533" lon="10.8297533"><ele>104.0</ele><time>2026-05-01T11:53:46.096Z</time></trkpt><trkpt lat="45.4173783" lon="10.8301133"><ele>104.5</ele><time>2026-05-01T11:53:47.097Z</time></trkpt><trkpt lat="45.417405" lon="10.83046"><ele>105.0</ele><time>2026-05-01T11:53:48.096Z</time></trkpt><trkpt lat="45.4174317" lon="10.830805"><ele>105.0</ele><time>2026-05-01T11:53:49.097Z</time></trkpt><trkpt lat="45.4174533" lon="10.83115"><ele>105.0</ele><time>2026-05-01T11:53:50.097Z</time></trkpt><trkpt lat="45.4174767" lon="10.8314933"><ele>106.5</ele><time>2026-05-01T11:53:51.096Z</time></trkpt><trkpt lat="45.4175" lon="10.831835"><ele>108.0</ele><time>2026-05-01T11:53:52.096Z</time></trkpt><trkpt lat="45.4175233" lon="10.8321783"><ele>108.0</ele><time>2026-05-01T11:53:53.097Z</time></trkpt><trkpt lat="45.4175467" lon="10.8325217"><ele>108.0</ele><time>2026-05-01T11:53:54.097Z</time></trkpt><trkpt lat="45.4175683" lon="10.8328683"><ele>109.5</ele><time>2026-05-01T11:53:55.096Z</time></trkpt><trkpt lat="45.4175933" lon="10.8332083"><ele>111.0</ele><time>2026-05-01T11:53:56.097Z</time></trkpt><trkpt lat="45.417625" lon="10.833545"><ele>111.0</ele><time>2026-05-01T11:53:57.097Z</time></trkpt><trkpt lat="45.41765" lon="10.8338833"><ele>111.0</ele><time>2026-05-01T11:53:58.096Z</time></trkpt><trkpt lat="45.4176733" lon="10.834225"><ele>112.0</ele><time>2026-05-01T11:53:59.097Z</time></trkpt><trkpt lat="45.4177" lon="10.8345667"><ele>113.0</ele><time>2026-05-01T11:54:00.097Z</time></trkpt><trkpt lat="45.4177233" lon="10.8349083"><ele>113.0</ele><time>2026-05-01T11:54:01.096Z</time></trkpt><trkpt lat="45.4177433" lon="10.8352567"><ele>113.0</ele><time>2026-05-01T11:54:02.096Z</time></trkpt><trkpt lat="45.4177633" lon="10.8356017"><ele>113.0</ele><time>2026-05-01T11:54:03.097Z</time></trkpt><trkpt lat="45.4177783" lon="10.8359533"><ele>113.0</ele><time>2026-05-01T11:54:04.097Z</time></trkpt><trkpt lat="45.417795" lon="10.8363067"><ele>114.0</ele><time>2026-05-01T11:54:05.096Z</time></trkpt><trkpt lat="45.4178067" lon="10.8366683"><ele>115.0</ele><time>2026-05-01T11:54:06.096Z</time></trkpt><trkpt lat="45.4178167" lon="10.8370267"><ele>115.0</ele><time>2026-05-01T11:54:07.097Z</time></trkpt><trkpt lat="45.4178217" lon="10.8373933"><ele>115.0</ele><time>2026-05-01T11:54:08.096Z</time></trkpt><trkpt lat="45.4178267" lon="10.8377567"><ele>114.5</ele><time>2026-05-01T11:54:09.097Z</time></trkpt><trkpt lat="45.41783" lon="10.8381267"><ele>114.0</ele><time>2026-05-01T11:54:10.097Z</time></trkpt><trkpt lat="45.417835" lon="10.8385"><ele>115.0</ele><time>2026-05-01T11:54:11.097Z</time></trkpt><trkpt lat="45.417835" lon="10.8388767"><ele>116.0</ele><time>2026-05-01T11:54:12.097Z</time></trkpt><trkpt lat="45.4178333" lon="10.8392517"><ele>115.5</ele><time>2026-05-01T11:54:13.097Z</time></trkpt><trkpt lat="45.4178217" lon="10.8396333"><ele>115.0</ele><time>2026-05-01T11:54:14.096Z</time></trkpt><trkpt lat="45.417815" lon="10.8400217"><ele>115.5</ele><time>2026-05-01T11:54:15.096Z</time></trkpt><trkpt lat="45.417805" lon="10.8404067"><ele>116.0</ele><time>2026-05-01T11:54:16.096Z</time></trkpt><trkpt lat="45.4177733" lon="10.841165"><ele>116.0</ele><time>2026-05-01T11:54:18.097Z</time></trkpt><trkpt lat="45.41775" lon="10.84154"><ele>116.0</ele><time>2026-05-01T11:54:19.096Z</time></trkpt><trkpt lat="45.417725" lon="10.8419117"><ele>115.5</ele><time>2026-05-01T11:54:20.096Z</time></trkpt><trkpt lat="45.4176967" lon="10.8422717"><ele>115.0</ele><time>2026-05-01T11:54:21.096Z</time></trkpt><trkpt lat="45.4176717" lon="10.8426333"><ele>113.0</ele><time>2026-05-01T11:54:22.096Z</time></trkpt><trkpt lat="45.417645" lon="10.842995"><ele>111.0</ele><time>2026-05-01T11:54:23.097Z</time></trkpt><trkpt lat="45.4176133" lon="10.8433583"><ele>109.0</ele><time>2026-05-01T11:54:24.096Z</time></trkpt><trkpt lat="45.4175733" lon="10.843725"><ele>107.0</ele><time>2026-05-01T11:54:25.096Z</time></trkpt><trkpt lat="45.4175317" lon="10.8440933"><ele>107.5</ele><time>2026-05-01T11:54:26.097Z</time></trkpt><trkpt lat="45.417495" lon="10.8444617"><ele>108.0</ele><time>2026-05-01T11:54:27.096Z</time></trkpt><trkpt lat="45.4174567" lon="10.8448383"><ele>106.0</ele><time>2026-05-01T11:54:28.096Z</time></trkpt><trkpt lat="45.4174133" lon="10.8452233"><ele>104.0</ele><time>2026-05-01T11:54:29.096Z</time></trkpt><trkpt lat="45.417365" lon="10.84561"><ele>103.0</ele><time>2026-05-01T11:54:30.096Z</time></trkpt><trkpt lat="45.4173133" lon="10.8460083"><ele>102.0</ele><time>2026-05-01T11:54:31.097Z</time></trkpt><trkpt lat="45.4172617" lon="10.8464"><ele>102.0</ele><time>2026-05-01T11:54:32.097Z</time></trkpt><trkpt lat="45.4172033" lon="10.84678"><ele>102.0</ele><time>2026-05-01T11:54:33.096Z</time></trkpt><trkpt lat="45.4171417" lon="10.847145"><ele>100.0</ele><time>2026-05-01T11:54:34.096Z</time></trkpt><trkpt lat="45.4170817" lon="10.847505"><ele>98.0</ele><time>2026-05-01T11:54:35.096Z</time></trkpt><trkpt lat="45.4170183" lon="10.847865"><ele>97.5</ele><time>2026-05-01T11:54:36.097Z</time></trkpt><trkpt lat="45.4169467" lon="10.848225"><ele>97.0</ele><time>2026-05-01T11:54:37.096Z</time></trkpt><trkpt lat="45.4168833" lon="10.8485883"><ele>96.5</ele><time>2026-05-01T11:54:38.097Z</time></trkpt><trkpt lat="45.4168167" lon="10.8489533"><ele>96.0</ele><time>2026-05-01T11:54:39.096Z</time></trkpt><trkpt lat="45.4167533" lon="10.8493117"><ele>95.5</ele><time>2026-05-01T11:54:40.096Z</time></trkpt><trkpt lat="45.4166867" lon="10.8496717"><ele>95.0</ele><time>2026-05-01T11:54:41.097Z</time></trkpt><trkpt lat="45.4166217" lon="10.85003"><ele>94.5</ele><time>2026-05-01T11:54:42.097Z</time></trkpt><trkpt lat="45.41656" lon="10.85039"><ele>94.0</ele><time>2026-05-01T11:54:43.097Z</time></trkpt><trkpt lat="45.4165017" lon="10.850745"><ele>93.0</ele><time>2026-05-01T11:54:44.096Z</time></trkpt><trkpt lat="45.4164367" lon="10.8511283"><ele>92.0</ele><time>2026-05-01T11:54:45.096Z</time></trkpt><trkpt lat="45.4163733" lon="10.8514867"><ele>91.5</ele><time>2026-05-01T11:54:46.096Z</time></trkpt><trkpt lat="45.4163083" lon="10.85185"><ele>91.0</ele><time>2026-05-01T11:54:47.097Z</time></trkpt><trkpt lat="45.4161817" lon="10.8525783"><ele>90.5</ele><time>2026-05-01T11:54:49.096Z</time></trkpt><trkpt lat="45.4161267" lon="10.852935"><ele>90.0</ele><time>2026-05-01T11:54:50.096Z</time></trkpt><trkpt lat="45.4160583" lon="10.85331"><ele>89.5</ele><time>2026-05-01T11:54:51.097Z</time></trkpt><trkpt lat="45.4159883" lon="10.8536717"><ele>89.0</ele><time>2026-05-01T11:54:52.096Z</time></trkpt><trkpt lat="45.4159233" lon="10.854035"><ele>89.0</ele><time>2026-05-01T11:54:53.097Z</time></trkpt><trkpt lat="45.41586" lon="10.8543983"><ele>89.0</ele><time>2026-05-01T11:54:54.097Z</time></trkpt><trkpt lat="45.415795" lon="10.8547633"><ele>89.5</ele><time>2026-05-01T11:54:55.097Z</time></trkpt><trkpt lat="45.41573" lon="10.8551217"><ele>90.0</ele><time>2026-05-01T11:54:56.096Z</time></trkpt><trkpt lat="45.4156667" lon="10.8554833"><ele>90.0</ele><time>2026-05-01T11:54:57.096Z</time></trkpt><trkpt lat="45.415605" lon="10.8558417"><ele>90.0</ele><time>2026-05-01T11:54:58.097Z</time></trkpt><trkpt lat="45.4155417" lon="10.8562"><ele>89.0</ele><time>2026-05-01T11:54:59.096Z</time></trkpt><trkpt lat="45.41548" lon="10.8565567"><ele>88.0</ele><time>2026-05-01T11:55:00.096Z</time></trkpt><trkpt lat="45.4154217" lon="10.8569133"><ele>88.0</ele><time>2026-05-01T11:55:01.096Z</time></trkpt><trkpt lat="45.4153617" lon="10.8572667"><ele>88.0</ele><time>2026-05-01T11:55:02.097Z</time></trkpt><trkpt lat="45.415305" lon="10.857625"><ele>87.5</ele><time>2026-05-01T11:55:03.097Z</time></trkpt><trkpt lat="45.4152483" lon="10.8579917"><ele>87.0</ele><time>2026-05-01T11:55:04.096Z</time></trkpt><trkpt lat="45.4151567" lon="10.85873"><ele>86.5</ele><time>2026-05-01T11:55:06.097Z</time></trkpt><trkpt lat="45.4151133" lon="10.8590883"><ele>86.0</ele><time>2026-05-01T11:55:07.096Z</time></trkpt><trkpt lat="45.4150683" lon="10.85945"><ele>84.0</ele><time>2026-05-01T11:55:08.097Z</time></trkpt><trkpt lat="45.4149983" lon="10.860165"><ele>84.0</ele><time>2026-05-01T11:55:10.096Z</time></trkpt><trkpt lat="45.41496" lon="10.8605217"><ele>84.0</ele><time>2026-05-01T11:55:11.096Z</time></trkpt><trkpt lat="45.4149267" lon="10.8608733"><ele>83.5</ele><time>2026-05-01T11:55:12.096Z</time></trkpt><trkpt lat="45.414895" lon="10.861225"><ele>83.0</ele><time>2026-05-01T11:55:13.096Z</time></trkpt><trkpt lat="45.41487" lon="10.8615767"><ele>83.0</ele><time>2026-05-01T11:55:14.097Z</time></trkpt><trkpt lat="45.414845" lon="10.8619333"><ele>83.0</ele><time>2026-05-01T11:55:15.096Z</time></trkpt><trkpt lat="45.4148217" lon="10.8622917"><ele>83.0</ele><time>2026-05-01T11:55:16.096Z</time></trkpt><trkpt lat="45.4147983" lon="10.8626483"><ele>83.0</ele><time>2026-05-01T11:55:17.097Z</time></trkpt><trkpt lat="45.4147817" lon="10.8630083"><ele>82.0</ele><time>2026-05-01T11:55:18.097Z</time></trkpt><trkpt lat="45.4147383" lon="10.8637233"><ele>82.0</ele><time>2026-05-01T11:55:20.097Z</time></trkpt><trkpt lat="45.414715" lon="10.8640833"><ele>82.0</ele><time>2026-05-01T11:55:21.097Z</time></trkpt><trkpt lat="45.41469" lon="10.864445"><ele>82.0</ele><time>2026-05-01T11:55:22.096Z</time></trkpt><trkpt lat="45.4146683" lon="10.8648067"><ele>82.0</ele><time>2026-05-01T11:55:23.097Z</time></trkpt><trkpt lat="45.4146483" lon="10.865165"><ele>82.5</ele><time>2026-05-01T11:55:24.097Z</time></trkpt><trkpt lat="45.414625" lon="10.8655183"><ele>83.0</ele><time>2026-05-01T11:55:25.096Z</time></trkpt><trkpt lat="45.4146067" lon="10.8658783"><ele>82.5</ele><time>2026-05-01T11:55:26.097Z</time></trkpt><trkpt lat="45.4145883" lon="10.86624"><ele>82.0</ele><time>2026-05-01T11:55:27.097Z</time></trkpt><trkpt lat="45.4145717" lon="10.8666"><ele>81.0</ele><time>2026-05-01T11:55:28.097Z</time></trkpt><trkpt lat="45.4145533" lon="10.8669683"><ele>80.0</ele><time>2026-05-01T11:55:29.097Z</time></trkpt><trkpt lat="45.41453" lon="10.8673467"><ele>80.5</ele><time>2026-05-01T11:55:30.097Z</time></trkpt><trkpt lat="45.41451" lon="10.8677317"><ele>81.0</ele><time>2026-05-01T11:55:31.096Z</time></trkpt><trkpt lat="45.4144867" lon="10.8681217"><ele>81.5</ele><time>2026-05-01T11:55:32.096Z</time></trkpt><trkpt lat="45.4144667" lon="10.86852"><ele>82.0</ele><time>2026-05-01T11:55:33.096Z</time></trkpt><trkpt lat="45.41445" lon="10.8689233"><ele>82.5</ele><time>2026-05-01T11:55:34.096Z</time></trkpt><trkpt lat="45.4144317" lon="10.8693283"><ele>83.0</ele><time>2026-05-01T11:55:35.096Z</time></trkpt><trkpt lat="45.4144183" lon="10.86972"><ele>83.0</ele><time>2026-05-01T11:55:36.097Z</time></trkpt><trkpt lat="45.4143983" lon="10.870095"><ele>83.0</ele><time>2026-05-01T11:55:37.096Z</time></trkpt><trkpt lat="45.414375" lon="10.8704717"><ele>83.0</ele><time>2026-05-01T11:55:38.096Z</time></trkpt><trkpt lat="45.4143517" lon="10.8708567"><ele>83.0</ele><time>2026-05-01T11:55:39.096Z</time></trkpt><trkpt lat="45.4143317" lon="10.8712267"><ele>82.5</ele><time>2026-05-01T11:55:40.097Z</time></trkpt><trkpt lat="45.4143117" lon="10.8715967"><ele>82.0</ele><time>2026-05-01T11:55:41.097Z</time></trkpt><trkpt lat="45.4142967" lon="10.871965"><ele>81.5</ele><time>2026-05-01T11:55:42.096Z</time></trkpt><trkpt lat="45.414275" lon="10.8723183"><ele>81.0</ele><time>2026-05-01T11:55:43.096Z</time></trkpt><trkpt lat="45.414255" lon="10.87266"><ele>81.0</ele><time>2026-05-01T11:55:44.097Z</time></trkpt><trkpt lat="45.41424" lon="10.87301"><ele>81.0</ele><time>2026-05-01T11:55:45.096Z</time></trkpt><trkpt lat="45.41422" lon="10.87336"><ele>80.5</ele><time>2026-05-01T11:55:46.096Z</time></trkpt><trkpt lat="45.4141967" lon="10.8737217"><ele>80.0</ele><time>2026-05-01T11:55:47.096Z</time></trkpt><trkpt lat="45.4141717" lon="10.87409"><ele>81.0</ele><time>2026-05-01T11:55:48.097Z</time></trkpt><trkpt lat="45.4141467" lon="10.8744617"><ele>82.0</ele><time>2026-05-01T11:55:49.096Z</time></trkpt><trkpt lat="45.4141233" lon="10.874845"><ele>83.0</ele><time>2026-05-01T11:55:50.097Z</time></trkpt><trkpt lat="45.4140967" lon="10.8752317"><ele>84.0</ele><time>2026-05-01T11:55:51.096Z</time></trkpt><trkpt lat="45.4140667" lon="10.8756183"><ele>82.5</ele><time>2026-05-01T11:55:52.096Z</time></trkpt><trkpt lat="45.4140417" lon="10.8760083"><ele>81.0</ele><time>2026-05-01T11:55:53.096Z</time></trkpt><trkpt lat="45.4140167" lon="10.8763967"><ele>81.0</ele><time>2026-05-01T11:55:54.097Z</time></trkpt><trkpt lat="45.4139983" lon="10.8767767"><ele>81.0</ele><time>2026-05-01T11:55:55.096Z</time></trkpt><trkpt lat="45.4139717" lon="10.877145"><ele>81.0</ele><time>2026-05-01T11:55:56.097Z</time></trkpt><trkpt lat="45.4139483" lon="10.8774917"><ele>81.0</ele><time>2026-05-01T11:55:57.096Z</time></trkpt><trkpt lat="45.4139" lon="10.87819"><ele>81.5</ele><time>2026-05-01T11:55:59.096Z</time></trkpt><trkpt lat="45.4138767" lon="10.8785367"><ele>82.0</ele><time>2026-05-01T11:56:00.097Z</time></trkpt><trkpt lat="45.4138567" lon="10.87888"><ele>82.0</ele><time>2026-05-01T11:56:01.096Z</time></trkpt><trkpt lat="45.413835" lon="10.8792217"><ele>82.0</ele><time>2026-05-01T11:56:02.096Z</time></trkpt><trkpt lat="45.4138117" lon="10.879565"><ele>81.5</ele><time>2026-05-01T11:56:03.096Z</time></trkpt><trkpt lat="45.4137933" lon="10.8799083"><ele>81.0</ele><time>2026-05-01T11:56:04.097Z</time></trkpt><trkpt lat="45.4137717" lon="10.8802517"><ele>80.5</ele><time>2026-05-01T11:56:05.096Z</time></trkpt><trkpt lat="45.4137517" lon="10.8805967"><ele>80.0</ele><time>2026-05-01T11:56:06.096Z</time></trkpt><trkpt lat="45.4137317" lon="10.8809417"><ele>80.0</ele><time>2026-05-01T11:56:07.097Z</time></trkpt><trkpt lat="45.4137133" lon="10.88128"><ele>80.0</ele><time>2026-05-01T11:56:08.096Z</time></trkpt><trkpt lat="45.4136933" lon="10.8816167"><ele>80.5</ele><time>2026-05-01T11:56:09.096Z</time></trkpt><trkpt lat="45.413675" lon="10.8819533"><ele>81.0</ele><time>2026-05-01T11:56:10.097Z</time></trkpt><trkpt lat="45.4136567" lon="10.8823"><ele>80.0</ele><time>2026-05-01T11:56:11.096Z</time></trkpt><trkpt lat="45.41361" lon="10.8830133"><ele>80.0</ele><time>2026-05-01T11:56:13.096Z</time></trkpt><trkpt lat="45.4135883" lon="10.883375"><ele>80.0</ele><time>2026-05-01T11:56:14.097Z</time></trkpt><trkpt lat="45.4135667" lon="10.88374"><ele>80.5</ele><time>2026-05-01T11:56:15.097Z</time></trkpt><trkpt lat="45.41355" lon="10.884105"><ele>81.0</ele><time>2026-05-01T11:56:16.096Z</time></trkpt><trkpt lat="45.413525" lon="10.884475"><ele>80.5</ele><time>2026-05-01T11:56:17.096Z</time></trkpt><trkpt lat="45.413505" lon="10.884845"><ele>80.0</ele><time>2026-05-01T11:56:18.097Z</time></trkpt><trkpt lat="45.413485" lon="10.8852133"><ele>80.0</ele><time>2026-05-01T11:56:19.097Z</time></trkpt><trkpt lat="45.4134667" lon="10.885575"><ele>80.0</ele><time>2026-05-01T11:56:20.097Z</time></trkpt><trkpt lat="45.4134483" lon="10.8859367"><ele>79.5</ele><time>2026-05-01T11:56:21.096Z</time></trkpt><trkpt lat="45.4134267" lon="10.8862967"><ele>79.0</ele><time>2026-05-01T11:56:22.096Z</time></trkpt><trkpt lat="45.4134067" lon="10.886655"><ele>79.5</ele><time>2026-05-01T11:56:23.097Z</time></trkpt><trkpt lat="45.4133867" lon="10.8870083"><ele>80.0</ele><time>2026-05-01T11:56:24.096Z</time></trkpt><trkpt lat="45.4133683" lon="10.887365"><ele>80.0</ele><time>2026-05-01T11:56:25.096Z</time></trkpt><trkpt lat="45.4133433" lon="10.8877167"><ele>80.0</ele><time>2026-05-01T11:56:26.096Z</time></trkpt><trkpt lat="45.41332" lon="10.888075"><ele>79.5</ele><time>2026-05-01T11:56:27.096Z</time></trkpt><trkpt lat="45.413295" lon="10.8884317"><ele>79.0</ele><time>2026-05-01T11:56:28.096Z</time></trkpt><trkpt lat="45.41327" lon="10.8887917"><ele>79.0</ele><time>2026-05-01T11:56:29.096Z</time></trkpt><trkpt lat="45.4132467" lon="10.88915"><ele>79.0</ele><time>2026-05-01T11:56:30.097Z</time></trkpt><trkpt lat="45.4132267" lon="10.8895067"><ele>79.0</ele><time>2026-05-01T11:56:31.096Z</time></trkpt><trkpt lat="45.4132067" lon="10.889865"><ele>79.0</ele><time>2026-05-01T11:56:32.096Z</time></trkpt><trkpt lat="45.4131817" lon="10.8902233"><ele>78.5</ele><time>2026-05-01T11:56:33.097Z</time></trkpt><trkpt lat="45.4131567" lon="10.8905783"><ele>78.0</ele><time>2026-05-01T11:56:34.097Z</time></trkpt><trkpt lat="45.4131267" lon="10.8909367"><ele>78.0</ele><time>2026-05-01T11:56:35.096Z</time></trkpt><trkpt lat="45.413095" lon="10.8912933"><ele>78.0</ele><time>2026-05-01T11:56:36.097Z</time></trkpt><trkpt lat="45.4130567" lon="10.8916467"><ele>78.0</ele><time>2026-05-01T11:56:37.096Z</time></trkpt><trkpt lat="45.4130167" lon="10.8920017"><ele>78.0</ele><time>2026-05-01T11:56:38.097Z</time></trkpt><trkpt lat="45.412975" lon="10.8923567"><ele>77.5</ele><time>2026-05-01T11:56:39.097Z</time></trkpt><trkpt lat="45.4129317" lon="10.8927117"><ele>77.0</ele><time>2026-05-01T11:56:40.096Z</time></trkpt><trkpt lat="45.412885" lon="10.8930667"><ele>77.0</ele><time>2026-05-01T11:56:41.097Z</time></trkpt><trkpt lat="45.41284" lon="10.8934133"><ele>77.0</ele><time>2026-05-01T11:56:42.097Z</time></trkpt><trkpt lat="45.4127933" lon="10.89376"><ele>77.0</ele><time>2026-05-01T11:56:43.096Z</time></trkpt><trkpt lat="45.4127417" lon="10.89411"><ele>77.0</ele><time>2026-05-01T11:56:44.097Z</time></trkpt><trkpt lat="45.41269" lon="10.8944633"><ele>77.0</ele><time>2026-05-01T11:56:45.096Z</time></trkpt><trkpt lat="45.4126317" lon="10.8948167"><ele>77.0</ele><time>2026-05-01T11:56:46.097Z</time></trkpt><trkpt lat="45.412575" lon="10.8951683"><ele>77.0</ele><time>2026-05-01T11:56:47.096Z</time></trkpt><trkpt lat="45.4125133" lon="10.89551"><ele>77.0</ele><time>2026-05-01T11:56:48.096Z</time></trkpt><trkpt lat="45.41245" lon="10.8958633"><ele>76.0</ele><time>2026-05-01T11:56:49.096Z</time></trkpt><trkpt lat="45.4123867" lon="10.8962033"><ele>75.0</ele><time>2026-05-01T11:56:50.097Z</time></trkpt><trkpt lat="45.4123183" lon="10.8965483"><ele>76.0</ele><time>2026-05-01T11:56:51.096Z</time></trkpt><trkpt lat="45.4122433" lon="10.8968983"><ele>77.0</ele><time>2026-05-01T11:56:52.096Z</time></trkpt><trkpt lat="45.4121683" lon="10.8972367"><ele>76.5</ele><time>2026-05-01T11:56:53.097Z</time></trkpt><trkpt lat="45.412095" lon="10.8975733"><ele>76.0</ele><time>2026-05-01T11:56:54.097Z</time></trkpt><trkpt lat="45.4120167" lon="10.8979133"><ele>76.0</ele><time>2026-05-01T11:56:55.096Z</time></trkpt><trkpt lat="45.4119383" lon="10.8982517"><ele>76.0</ele><time>2026-05-01T11:56:56.097Z</time></trkpt><trkpt lat="45.4117783" lon="10.8989233"><ele>75.5</ele><time>2026-05-01T11:56:58.097Z</time></trkpt><trkpt lat="45.411695" lon="10.8992567"><ele>75.0</ele><time>2026-05-01T11:56:59.097Z</time></trkpt><trkpt lat="45.4116067" lon="10.8995917"><ele>75.0</ele><time>2026-05-01T11:57:00.096Z</time></trkpt><trkpt lat="45.4115133" lon="10.8999267"><ele>75.0</ele><time>2026-05-01T11:57:01.096Z</time></trkpt><trkpt lat="45.4114233" lon="10.9002633"><ele>75.0</ele><time>2026-05-01T11:57:02.096Z</time></trkpt><trkpt lat="45.4113333" lon="10.9005967"><ele>75.0</ele><time>2026-05-01T11:57:03.097Z</time></trkpt><trkpt lat="45.4112433" lon="10.9009283"><ele>75.0</ele><time>2026-05-01T11:57:04.096Z</time></trkpt><trkpt lat="45.4111533" lon="10.9012617"><ele>75.0</ele><time>2026-05-01T11:57:05.097Z</time></trkpt><trkpt lat="45.4110617" lon="10.9015983"><ele>75.5</ele><time>2026-05-01T11:57:06.097Z</time></trkpt><trkpt lat="45.4109717" lon="10.9019367"><ele>76.0</ele><time>2026-05-01T11:57:07.096Z</time></trkpt><trkpt lat="45.41088" lon="10.90227"><ele>75.5</ele><time>2026-05-01T11:57:08.097Z</time></trkpt><trkpt lat="45.410785" lon="10.9026033"><ele>75.0</ele><time>2026-05-01T11:57:09.097Z</time></trkpt><trkpt lat="45.4106867" lon="10.9029317"><ele>75.0</ele><time>2026-05-01T11:57:10.096Z</time></trkpt><trkpt lat="45.4105967" lon="10.903265"><ele>75.0</ele><time>2026-05-01T11:57:11.097Z</time></trkpt><trkpt lat="45.4105083" lon="10.9036033"><ele>74.0</ele><time>2026-05-01T11:57:12.097Z</time></trkpt><trkpt lat="45.4104117" lon="10.9039367"><ele>73.0</ele><time>2026-05-01T11:57:13.096Z</time></trkpt><trkpt lat="45.4103217" lon="10.9042717"><ele>73.0</ele><time>2026-05-01T11:57:14.096Z</time></trkpt><trkpt lat="45.4102267" lon="10.904615"><ele>73.0</ele><time>2026-05-01T11:57:15.097Z</time></trkpt><trkpt lat="45.4101317" lon="10.9049733"><ele>73.5</ele><time>2026-05-01T11:57:16.097Z</time></trkpt><trkpt lat="45.4100383" lon="10.9053367"><ele>74.0</ele><time>2026-05-01T11:57:17.097Z</time></trkpt><trkpt lat="45.40994" lon="10.90571"><ele>73.0</ele><time>2026-05-01T11:57:18.096Z</time></trkpt><trkpt lat="45.40984" lon="10.906095"><ele>72.0</ele><time>2026-05-01T11:57:19.096Z</time></trkpt><trkpt lat="45.4097367" lon="10.90649"><ele>72.0</ele><time>2026-05-01T11:57:20.096Z</time></trkpt><trkpt lat="45.409635" lon="10.9068767"><ele>72.0</ele><time>2026-05-01T11:57:21.096Z</time></trkpt><trkpt lat="45.4095367" lon="10.9072467"><ele>74.0</ele><time>2026-05-01T11:57:22.096Z</time></trkpt><trkpt lat="45.4093383" lon="10.9079967"><ele>74.0</ele><time>2026-05-01T11:57:24.097Z</time></trkpt><trkpt lat="45.4092383" lon="10.908375"><ele>74.0</ele><time>2026-05-01T11:57:25.096Z</time></trkpt><trkpt lat="45.4091333" lon="10.9087583"><ele>74.0</ele><time>2026-05-01T11:57:26.097Z</time></trkpt><trkpt lat="45.4090317" lon="10.909145"><ele>74.0</ele><time>2026-05-01T11:57:27.097Z</time></trkpt><trkpt lat="45.408925" lon="10.9095367"><ele>73.0</ele><time>2026-05-01T11:57:28.096Z</time></trkpt><trkpt lat="45.4088217" lon="10.9099283"><ele>72.0</ele><time>2026-05-01T11:57:29.097Z</time></trkpt><trkpt lat="45.4086" lon="10.9107167"><ele>71.0</ele><time>2026-05-01T11:57:31.096Z</time></trkpt><trkpt lat="45.4084833" lon="10.91111"><ele>70.0</ele><time>2026-05-01T11:57:32.097Z</time></trkpt><trkpt lat="45.40837" lon="10.9114933"><ele>69.5</ele><time>2026-05-01T11:57:33.096Z</time></trkpt><trkpt lat="45.4082667" lon="10.9118567"><ele>69.0</ele><time>2026-05-01T11:57:34.096Z</time></trkpt><trkpt lat="45.408165" lon="10.9122083"><ele>69.0</ele><time>2026-05-01T11:57:35.096Z</time></trkpt><trkpt lat="45.40807" lon="10.9125483"><ele>69.0</ele><time>2026-05-01T11:57:36.097Z</time></trkpt><trkpt lat="45.4079733" lon="10.9129033"><ele>70.5</ele><time>2026-05-01T11:57:37.097Z</time></trkpt><trkpt lat="45.40788" lon="10.9132583"><ele>72.0</ele><time>2026-05-01T11:57:38.097Z</time></trkpt><trkpt lat="45.407785" lon="10.9136"><ele>72.0</ele><time>2026-05-01T11:57:39.096Z</time></trkpt><trkpt lat="45.4076917" lon="10.9139417"><ele>72.0</ele><time>2026-05-01T11:57:40.096Z</time></trkpt><trkpt lat="45.4076" lon="10.9142767"><ele>71.5</ele><time>2026-05-01T11:57:41.096Z</time></trkpt><trkpt lat="45.4075067" lon="10.9146167"><ele>71.0</ele><time>2026-05-01T11:57:42.096Z</time></trkpt><trkpt lat="45.4074133" lon="10.9149667"><ele>71.0</ele><time>2026-05-01T11:57:43.096Z</time></trkpt><trkpt lat="45.40732" lon="10.9153117"><ele>71.0</ele><time>2026-05-01T11:57:44.097Z</time></trkpt><trkpt lat="45.4072283" lon="10.9156617"><ele>69.0</ele><time>2026-05-01T11:57:45.097Z</time></trkpt><trkpt lat="45.407045" lon="10.916365"><ele>69.0</ele><time>2026-05-01T11:57:47.096Z</time></trkpt><trkpt lat="45.4069483" lon="10.9167117"><ele>69.0</ele><time>2026-05-01T11:57:48.096Z</time></trkpt><trkpt lat="45.406855" lon="10.9170517"><ele>69.0</ele><time>2026-05-01T11:57:49.096Z</time></trkpt><trkpt lat="45.4067617" lon="10.9173933"><ele>69.0</ele><time>2026-05-01T11:57:50.096Z</time></trkpt><trkpt lat="45.406665" lon="10.9177283"><ele>69.0</ele><time>2026-05-01T11:57:51.096Z</time></trkpt><trkpt lat="45.4065717" lon="10.918065"><ele>69.0</ele><time>2026-05-01T11:57:52.097Z</time></trkpt><trkpt lat="45.4064767" lon="10.918405"><ele>69.0</ele><time>2026-05-01T11:57:53.096Z</time></trkpt><trkpt lat="45.4063833" lon="10.9187417"><ele>69.0</ele><time>2026-05-01T11:57:54.096Z</time></trkpt><trkpt lat="45.4062883" lon="10.919075"><ele>68.0</ele><time>2026-05-01T11:57:55.096Z</time></trkpt><trkpt lat="45.4061933" lon="10.9194067"><ele>67.0</ele><time>2026-05-01T11:57:56.096Z</time></trkpt><trkpt lat="45.4061033" lon="10.9197433"><ele>66.5</ele><time>2026-05-01T11:57:57.096Z</time></trkpt><trkpt lat="45.4060117" lon="10.920075"><ele>66.0</ele><time>2026-05-01T11:57:58.097Z</time></trkpt><trkpt lat="45.405925" lon="10.9204067"><ele>66.0</ele><time>2026-05-01T11:57:59.096Z</time></trkpt><trkpt lat="45.4058383" lon="10.92074"><ele>66.0</ele><time>2026-05-01T11:58:00.096Z</time></trkpt><trkpt lat="45.405745" lon="10.9210733"><ele>66.0</ele><time>2026-05-01T11:58:01.097Z</time></trkpt><trkpt lat="45.405655" lon="10.9214067"><ele>66.0</ele><time>2026-05-01T11:58:02.097Z</time></trkpt><trkpt lat="45.40556" lon="10.9217483"><ele>66.5</ele><time>2026-05-01T11:58:03.096Z</time></trkpt><trkpt lat="45.4054683" lon="10.9220917"><ele>67.0</ele><time>2026-05-01T11:58:04.096Z</time></trkpt><trkpt lat="45.4053733" lon="10.9224317"><ele>66.0</ele><time>2026-05-01T11:58:05.097Z</time></trkpt><trkpt lat="45.4052783" lon="10.9227767"><ele>65.0</ele><time>2026-05-01T11:58:06.096Z</time></trkpt><trkpt lat="45.405185" lon="10.9231183"><ele>64.5</ele><time>2026-05-01T11:58:07.096Z</time></trkpt><trkpt lat="45.4050883" lon="10.92346"><ele>64.0</ele><time>2026-05-01T11:58:08.096Z</time></trkpt><trkpt lat="45.4049967" lon="10.9238033"><ele>64.0</ele><time>2026-05-01T11:58:09.096Z</time></trkpt><trkpt lat="45.404905" lon="10.9241383"><ele>64.0</ele><time>2026-05-01T11:58:10.096Z</time></trkpt><trkpt lat="45.4048133" lon="10.9244783"><ele>64.0</ele><time>2026-05-01T11:58:11.096Z</time></trkpt><trkpt lat="45.404725" lon="10.9248167"><ele>64.0</ele><time>2026-05-01T11:58:12.097Z</time></trkpt><trkpt lat="45.40463" lon="10.9251617"><ele>65.5</ele><time>2026-05-01T11:58:13.096Z</time></trkpt><trkpt lat="45.40454" lon="10.92551"><ele>67.0</ele><time>2026-05-01T11:58:14.097Z</time></trkpt><trkpt lat="45.4044467" lon="10.925865"><ele>67.5</ele><time>2026-05-01T11:58:15.097Z</time></trkpt><trkpt lat="45.4043467" lon="10.92622"><ele>68.0</ele><time>2026-05-01T11:58:16.096Z</time></trkpt><trkpt lat="45.4042517" lon="10.9265883"><ele>67.0</ele><time>2026-05-01T11:58:17.097Z</time></trkpt><trkpt lat="45.4041717" lon="10.9269483"><ele>66.0</ele><time>2026-05-01T11:58:18.097Z</time></trkpt><trkpt lat="45.404095" lon="10.927305"><ele>66.0</ele><time>2026-05-01T11:58:19.096Z</time></trkpt><trkpt lat="45.4040217" lon="10.9276583"><ele>66.0</ele><time>2026-05-01T11:58:20.097Z</time></trkpt><trkpt lat="45.4039533" lon="10.9280067"><ele>66.0</ele><time>2026-05-01T11:58:21.096Z</time></trkpt><trkpt lat="45.4038817" lon="10.9283533"><ele>66.0</ele><time>2026-05-01T11:58:22.097Z</time></trkpt><trkpt lat="45.4038167" lon="10.9286983"><ele>65.0</ele><time>2026-05-01T11:58:23.097Z</time></trkpt><trkpt lat="45.4037483" lon="10.9290467"><ele>64.0</ele><time>2026-05-01T11:58:24.096Z</time></trkpt><trkpt lat="45.4036033" lon="10.92974"><ele>66.5</ele><time>2026-05-01T11:58:26.097Z</time></trkpt><trkpt lat="45.4035333" lon="10.9300833"><ele>69.0</ele><time>2026-05-01T11:58:27.097Z</time></trkpt><trkpt lat="45.4034683" lon="10.930425"><ele>69.0</ele><time>2026-05-01T11:58:28.096Z</time></trkpt><trkpt lat="45.4034017" lon="10.9307717"><ele>69.0</ele><time>2026-05-01T11:58:29.096Z</time></trkpt><trkpt lat="45.4033333" lon="10.9311167"><ele>68.5</ele><time>2026-05-01T11:58:30.096Z</time></trkpt><trkpt lat="45.4032633" lon="10.9314667"><ele>68.0</ele><time>2026-05-01T11:58:31.096Z</time></trkpt><trkpt lat="45.4031883" lon="10.9318167"><ele>66.5</ele><time>2026-05-01T11:58:32.097Z</time></trkpt><trkpt lat="45.4031167" lon="10.9321617"><ele>65.0</ele><time>2026-05-01T11:58:33.096Z</time></trkpt><trkpt lat="45.4030467" lon="10.9325083"><ele>64.5</ele><time>2026-05-01T11:58:34.096Z</time></trkpt><trkpt lat="45.4029783" lon="10.9328517"><ele>64.0</ele><time>2026-05-01T11:58:35.097Z</time></trkpt><trkpt lat="45.4029083" lon="10.933205"><ele>64.0</ele><time>2026-05-01T11:58:36.097Z</time></trkpt><trkpt lat="45.4028367" lon="10.9335533"><ele>64.0</ele><time>2026-05-01T11:58:37.096Z</time></trkpt><trkpt lat="45.4027633" lon="10.9339067"><ele>64.0</ele><time>2026-05-01T11:58:38.096Z</time></trkpt><trkpt lat="45.4026883" lon="10.934255"><ele>64.0</ele><time>2026-05-01T11:58:39.096Z</time></trkpt><trkpt lat="45.4026183" lon="10.9346133"><ele>64.0</ele><time>2026-05-01T11:58:40.096Z</time></trkpt><trkpt lat="45.4025483" lon="10.934965"><ele>64.0</ele><time>2026-05-01T11:58:41.097Z</time></trkpt><trkpt lat="45.4024783" lon="10.9353217"><ele>64.0</ele><time>2026-05-01T11:58:42.096Z</time></trkpt><trkpt lat="45.4024083" lon="10.93568"><ele>64.0</ele><time>2026-05-01T11:58:43.096Z</time></trkpt><trkpt lat="45.402335" lon="10.9360433"><ele>64.0</ele><time>2026-05-01T11:58:44.096Z</time></trkpt><trkpt lat="45.4022617" lon="10.9363933"><ele>64.0</ele><time>2026-05-01T11:58:45.096Z</time></trkpt><trkpt lat="45.4021133" lon="10.9371"><ele>63.0</ele><time>2026-05-01T11:58:47.096Z</time></trkpt><trkpt lat="45.4020467" lon="10.9374517"><ele>62.0</ele><time>2026-05-01T11:58:48.096Z</time></trkpt><trkpt lat="45.4019783" lon="10.9378033"><ele>62.0</ele><time>2026-05-01T11:58:49.096Z</time></trkpt><trkpt lat="45.401905" lon="10.93815"><ele>62.0</ele><time>2026-05-01T11:58:50.097Z</time></trkpt><trkpt lat="45.401835" lon="10.9384817"><ele>61.5</ele><time>2026-05-01T11:58:51.096Z</time></trkpt><trkpt lat="45.40177" lon="10.938815"><ele>61.0</ele><time>2026-05-01T11:58:52.097Z</time></trkpt><trkpt lat="45.4017" lon="10.9391533"><ele>60.0</ele><time>2026-05-01T11:58:53.096Z</time></trkpt><trkpt lat="45.40163" lon="10.9395033"><ele>59.0</ele><time>2026-05-01T11:58:54.097Z</time></trkpt><trkpt lat="45.40156" lon="10.9398483"><ele>60.0</ele><time>2026-05-01T11:58:55.096Z</time></trkpt><trkpt lat="45.4014917" lon="10.9401783"><ele>61.0</ele><time>2026-05-01T11:58:56.097Z</time></trkpt><trkpt lat="45.4013683" lon="10.940815"><ele>60.0</ele><time>2026-05-01T11:58:58.096Z</time></trkpt><trkpt lat="45.4013033" lon="10.9411367"><ele>59.0</ele><time>2026-05-01T11:58:59.096Z</time></trkpt><trkpt lat="45.4012367" lon="10.9414633"><ele>60.0</ele><time>2026-05-01T11:59:00.097Z</time></trkpt><trkpt lat="45.40117" lon="10.9417883"><ele>61.0</ele><time>2026-05-01T11:59:01.096Z</time></trkpt><trkpt lat="45.4011033" lon="10.94212"><ele>61.0</ele><time>2026-05-01T11:59:02.096Z</time></trkpt><trkpt lat="45.4010383" lon="10.9424633"><ele>61.0</ele><time>2026-05-01T11:59:03.096Z</time></trkpt><trkpt lat="45.400965" lon="10.942835"><ele>60.5</ele><time>2026-05-01T11:59:04.096Z</time></trkpt><trkpt lat="45.4009" lon="10.943225"><ele>60.0</ele><time>2026-05-01T11:59:05.096Z</time></trkpt><trkpt lat="45.40083" lon="10.9436083"><ele>60.0</ele><time>2026-05-01T11:59:06.096Z</time></trkpt><trkpt lat="45.400755" lon="10.9439967"><ele>60.0</ele><time>2026-05-01T11:59:07.096Z</time></trkpt><trkpt lat="45.400675" lon="10.9443667"><ele>60.0</ele><time>2026-05-01T11:59:08.096Z</time></trkpt><trkpt lat="45.4005917" lon="10.944725"><ele>60.0</ele><time>2026-05-01T11:59:09.097Z</time></trkpt><trkpt lat="45.400505" lon="10.945085"><ele>60.0</ele><time>2026-05-01T11:59:10.096Z</time></trkpt><trkpt lat="45.4004217" lon="10.9454467"><ele>60.0</ele><time>2026-05-01T11:59:11.096Z</time></trkpt><trkpt lat="45.4003433" lon="10.9458167"><ele>60.5</ele><time>2026-05-01T11:59:12.096Z</time></trkpt><trkpt lat="45.4002717" lon="10.9461833"><ele>61.0</ele><time>2026-05-01T11:59:13.097Z</time></trkpt><trkpt lat="45.4002033" lon="10.9465383"><ele>60.0</ele><time>2026-05-01T11:59:14.096Z</time></trkpt><trkpt lat="45.4001383" lon="10.9468883"><ele>59.0</ele><time>2026-05-01T11:59:15.097Z</time></trkpt><trkpt lat="45.4000667" lon="10.9472383"><ele>58.5</ele><time>2026-05-01T11:59:16.097Z</time></trkpt><trkpt lat="45.3999933" lon="10.9475867"><ele>58.0</ele><time>2026-05-01T11:59:17.097Z</time></trkpt><trkpt lat="45.3999283" lon="10.9479217"><ele>58.0</ele><time>2026-05-01T11:59:18.096Z</time></trkpt><trkpt lat="45.39986" lon="10.948255"><ele>58.0</ele><time>2026-05-01T11:59:19.096Z</time></trkpt><trkpt lat="45.39979" lon="10.948585"><ele>58.5</ele><time>2026-05-01T11:59:20.096Z</time></trkpt><trkpt lat="45.39972" lon="10.9489133"><ele>59.0</ele><time>2026-05-01T11:59:21.097Z</time></trkpt><trkpt lat="45.3996533" lon="10.9492433"><ele>57.0</ele><time>2026-05-01T11:59:22.096Z</time></trkpt><trkpt lat="45.39952" lon="10.9498917"><ele>58.5</ele><time>2026-05-01T11:59:24.096Z</time></trkpt><trkpt lat="45.399455" lon="10.95021"><ele>60.0</ele><time>2026-05-01T11:59:25.097Z</time></trkpt><trkpt lat="45.3993933" lon="10.95053"><ele>60.0</ele><time>2026-05-01T11:59:26.096Z</time></trkpt><trkpt lat="45.399335" lon="10.95085"><ele>60.0</ele><time>2026-05-01T11:59:27.096Z</time></trkpt><trkpt lat="45.3992683" lon="10.95117"><ele>60.5</ele><time>2026-05-01T11:59:28.096Z</time></trkpt><trkpt lat="45.3992017" lon="10.95149"><ele>61.0</ele><time>2026-05-01T11:59:29.097Z</time></trkpt><trkpt lat="45.3991317" lon="10.9518167"><ele>61.0</ele><time>2026-05-01T11:59:30.096Z</time></trkpt><trkpt lat="45.39906" lon="10.9521467"><ele>61.0</ele><time>2026-05-01T11:59:31.097Z</time></trkpt><trkpt lat="45.39899" lon="10.952475"><ele>60.5</ele><time>2026-05-01T11:59:32.096Z</time></trkpt><trkpt lat="45.398925" lon="10.95281"><ele>60.0</ele><time>2026-05-01T11:59:33.097Z</time></trkpt><trkpt lat="45.3988633" lon="10.9531433"><ele>59.0</ele><time>2026-05-01T11:59:34.096Z</time></trkpt><trkpt lat="45.39873" lon="10.9538233"><ele>59.0</ele><time>2026-05-01T11:59:36.097Z</time></trkpt><trkpt lat="45.398655" lon="10.9541667"><ele>59.0</ele><time>2026-05-01T11:59:37.096Z</time></trkpt><trkpt lat="45.398585" lon="10.9545083"><ele>60.5</ele><time>2026-05-01T11:59:38.097Z</time></trkpt><trkpt lat="45.3985183" lon="10.954855"><ele>62.0</ele><time>2026-05-01T11:59:39.096Z</time></trkpt><trkpt lat="45.3984467" lon="10.9552033"><ele>62.0</ele><time>2026-05-01T11:59:40.096Z</time></trkpt><trkpt lat="45.3983817" lon="10.9555483"><ele>62.0</ele><time>2026-05-01T11:59:41.097Z</time></trkpt><trkpt lat="45.3983217" lon="10.9558933"><ele>61.0</ele><time>2026-05-01T11:59:42.097Z</time></trkpt><trkpt lat="45.3982733" lon="10.9562317"><ele>60.0</ele><time>2026-05-01T11:59:43.097Z</time></trkpt><trkpt lat="45.3982267" lon="10.95656"><ele>60.0</ele><time>2026-05-01T11:59:44.097Z</time></trkpt><trkpt lat="45.39818" lon="10.9568967"><ele>60.0</ele><time>2026-05-01T11:59:45.096Z</time></trkpt><trkpt lat="45.3981367" lon="10.9572333"><ele>60.0</ele><time>2026-05-01T11:59:46.096Z</time></trkpt><trkpt lat="45.3980983" lon="10.9575717"><ele>60.0</ele><time>2026-05-01T11:59:47.097Z</time></trkpt><trkpt lat="45.3980617" lon="10.957915"><ele>60.0</ele><time>2026-05-01T11:59:48.096Z</time></trkpt><trkpt lat="45.3980267" lon="10.958265"><ele>60.0</ele><time>2026-05-01T11:59:49.097Z</time></trkpt><trkpt lat="45.3979883" lon="10.9586167"><ele>59.5</ele><time>2026-05-01T11:59:50.096Z</time></trkpt><trkpt lat="45.3979533" lon="10.9589583"><ele>59.0</ele><time>2026-05-01T11:59:51.097Z</time></trkpt><trkpt lat="45.3979083" lon="10.9592867"><ele>59.0</ele><time>2026-05-01T11:59:52.096Z</time></trkpt><trkpt lat="45.39787" lon="10.9596"><ele>59.0</ele><time>2026-05-01T11:59:53.097Z</time></trkpt><trkpt lat="45.3978333" lon="10.9598933"><ele>59.0</ele><time>2026-05-01T11:59:54.096Z</time></trkpt><trkpt lat="45.3978017" lon="10.96017"><ele>59.333333333333336</ele><time>2026-05-01T11:59:55.097Z</time></trkpt><trkpt lat="45.3977683" lon="10.960435"><ele>59.66666666666667</ele><time>2026-05-01T11:59:56.095Z</time></trkpt><trkpt lat="45.3977383" lon="10.9607083"><ele>60.0</ele><time>2026-05-01T11:59:57.095Z</time></trkpt><trkpt lat="45.3977083" lon="10.9609883"><ele>60.0</ele><time>2026-05-01T11:59:58.096Z</time></trkpt><trkpt lat="45.39768" lon="10.96128"><ele>60.0</ele><time>2026-05-01T11:59:59.096Z</time></trkpt><trkpt lat="45.3976267" lon="10.9618933"><ele>59.0</ele><time>2026-05-01T12:00:01.095Z</time></trkpt><trkpt lat="45.3976083" lon="10.9622133"><ele>58.0</ele><time>2026-05-01T12:00:02.095Z</time></trkpt><trkpt lat="45.3975933" lon="10.9625317"><ele>58.0</ele><time>2026-05-01T12:00:03.095Z</time></trkpt><trkpt lat="45.3975783" lon="10.9628467"><ele>58.0</ele><time>2026-05-01T12:00:04.096Z</time></trkpt><trkpt lat="45.3975633" lon="10.963165"><ele>58.0</ele><time>2026-05-01T12:00:05.095Z</time></trkpt><trkpt lat="45.3975483" lon="10.9634917"><ele>58.0</ele><time>2026-05-01T12:00:06.095Z</time></trkpt><trkpt lat="45.3975383" lon="10.963825"><ele>58.0</ele><time>2026-05-01T12:00:07.096Z</time></trkpt><trkpt lat="45.3975267" lon="10.9641583"><ele>58.0</ele><time>2026-05-01T12:00:08.095Z</time></trkpt><trkpt lat="45.3975167" lon="10.9644767"><ele>58.0</ele><time>2026-05-01T12:00:09.095Z</time></trkpt><trkpt lat="45.3974933" lon="10.9651317"><ele>57.5</ele><time>2026-05-01T12:00:11.096Z</time></trkpt><trkpt lat="45.39748" lon="10.96547"><ele>57.0</ele><time>2026-05-01T12:00:12.096Z</time></trkpt><trkpt lat="45.3974617" lon="10.9658067"><ele>56.5</ele><time>2026-05-01T12:00:13.095Z</time></trkpt><trkpt lat="45.3974483" lon="10.9661367"><ele>56.0</ele><time>2026-05-01T12:00:14.096Z</time></trkpt><trkpt lat="45.397435" lon="10.96646"><ele>56.66666666666667</ele><time>2026-05-01T12:00:15.096Z</time></trkpt><trkpt lat="45.397425" lon="10.9667717"><ele>57.33333333333333</ele><time>2026-05-01T12:00:16.095Z</time></trkpt><trkpt lat="45.3974133" lon="10.9670817"><ele>58.0</ele><time>2026-05-01T12:00:17.095Z</time></trkpt><trkpt lat="45.3973883" lon="10.9677167"><ele>55.5</ele><time>2026-05-01T12:00:19.095Z</time></trkpt><trkpt lat="45.397375" lon="10.9680333"><ele>53.0</ele><time>2026-05-01T12:00:20.096Z</time></trkpt><trkpt lat="45.3973583" lon="10.9683567"><ele>53.5</ele><time>2026-05-01T12:00:21.095Z</time></trkpt><trkpt lat="45.3973417" lon="10.9686883"><ele>54.0</ele><time>2026-05-01T12:00:22.095Z</time></trkpt><trkpt lat="45.3973283" lon="10.9690167"><ele>55.5</ele><time>2026-05-01T12:00:23.095Z</time></trkpt><trkpt lat="45.3973133" lon="10.969345"><ele>57.0</ele><time>2026-05-01T12:00:24.095Z</time></trkpt><trkpt lat="45.3973" lon="10.96967"><ele>57.0</ele><time>2026-05-01T12:00:25.095Z</time></trkpt><trkpt lat="45.3972867" lon="10.9699983"><ele>57.0</ele><time>2026-05-01T12:00:26.095Z</time></trkpt><trkpt lat="45.3972767" lon="10.97033"><ele>57.5</ele><time>2026-05-01T12:00:27.095Z</time></trkpt><trkpt lat="45.3972617" lon="10.97065"><ele>58.0</ele><time>2026-05-01T12:00:28.095Z</time></trkpt><trkpt lat="45.397255" lon="10.9709867"><ele>56.5</ele><time>2026-05-01T12:00:29.095Z</time></trkpt><trkpt lat="45.39724" lon="10.9713117"><ele>55.0</ele><time>2026-05-01T12:00:30.096Z</time></trkpt><trkpt lat="45.3972283" lon="10.9716383"><ele>55.0</ele><time>2026-05-01T12:00:31.095Z</time></trkpt><trkpt lat="45.3972117" lon="10.971965"><ele>55.0</ele><time>2026-05-01T12:00:32.095Z</time></trkpt><trkpt lat="45.397195" lon="10.9722883"><ele>55.0</ele><time>2026-05-01T12:00:33.095Z</time></trkpt><trkpt lat="45.3971667" lon="10.9729233"><ele>55.0</ele><time>2026-05-01T12:00:35.096Z</time></trkpt><trkpt lat="45.3971517" lon="10.97324"><ele>55.33333333333333</ele><time>2026-05-01T12:00:36.095Z</time></trkpt><trkpt lat="45.3971367" lon="10.9735533"><ele>55.66666666666667</ele><time>2026-05-01T12:00:37.095Z</time></trkpt><trkpt lat="45.3971233" lon="10.9738683"><ele>56.0</ele><time>2026-05-01T12:00:38.096Z</time></trkpt><trkpt lat="45.3971117" lon="10.974185"><ele>56.0</ele><time>2026-05-01T12:00:39.096Z</time></trkpt><trkpt lat="45.3970933" lon="10.974505"><ele>56.0</ele><time>2026-05-01T12:00:40.095Z</time></trkpt><trkpt lat="45.3970817" lon="10.974825"><ele>55.5</ele><time>2026-05-01T12:00:41.096Z</time></trkpt><trkpt lat="45.397065" lon="10.97515"><ele>55.0</ele><time>2026-05-01T12:00:42.096Z</time></trkpt><trkpt lat="45.39705" lon="10.975475"><ele>55.0</ele><time>2026-05-01T12:00:43.095Z</time></trkpt><trkpt lat="45.3970367" lon="10.9758033"><ele>55.0</ele><time>2026-05-01T12:00:44.096Z</time></trkpt><trkpt lat="45.3970233" lon="10.976135"><ele>55.0</ele><time>2026-05-01T12:00:45.096Z</time></trkpt><trkpt lat="45.3970083" lon="10.9764683"><ele>55.0</ele><time>2026-05-01T12:00:46.095Z</time></trkpt><trkpt lat="45.396995" lon="10.9768033"><ele>53.0</ele><time>2026-05-01T12:00:47.096Z</time></trkpt><trkpt lat="45.3969817" lon="10.9771383"><ele>51.0</ele><time>2026-05-01T12:00:48.096Z</time></trkpt><trkpt lat="45.3969683" lon="10.9774817"><ele>51.0</ele><time>2026-05-01T12:00:49.095Z</time></trkpt><trkpt lat="45.396955" lon="10.977825"><ele>51.0</ele><time>2026-05-01T12:00:50.095Z</time></trkpt><trkpt lat="45.396945" lon="10.9781667"><ele>51.5</ele><time>2026-05-01T12:00:51.096Z</time></trkpt><trkpt lat="45.396935" lon="10.97851"><ele>52.0</ele><time>2026-05-01T12:00:52.096Z</time></trkpt><trkpt lat="45.3969233" lon="10.978855"><ele>51.0</ele><time>2026-05-01T12:00:53.095Z</time></trkpt><trkpt lat="45.3969133" lon="10.9791967"><ele>50.0</ele><time>2026-05-01T12:00:54.096Z</time></trkpt><trkpt lat="45.3969083" lon="10.9795483"><ele>50.0</ele><time>2026-05-01T12:00:55.095Z</time></trkpt><trkpt lat="45.39691" lon="10.9799"><ele>50.0</ele><time>2026-05-01T12:00:56.095Z</time></trkpt><trkpt lat="45.3969133" lon="10.9802433"><ele>50.0</ele><time>2026-05-01T12:00:57.096Z</time></trkpt><trkpt lat="45.3969183" lon="10.98059"><ele>50.0</ele><time>2026-05-01T12:00:58.095Z</time></trkpt><trkpt lat="45.39693" lon="10.980935"><ele>50.0</ele><time>2026-05-01T12:00:59.095Z</time></trkpt><trkpt lat="45.39694" lon="10.9812833"><ele>50.0</ele><time>2026-05-01T12:01:00.095Z</time></trkpt><trkpt lat="45.3969533" lon="10.9816233"><ele>50.0</ele><time>2026-05-01T12:01:01.096Z</time></trkpt><trkpt lat="45.396985" lon="10.9822817"><ele>51.0</ele><time>2026-05-01T12:01:03.095Z</time></trkpt><trkpt lat="45.3970067" lon="10.9826033"><ele>52.0</ele><time>2026-05-01T12:01:04.096Z</time></trkpt><trkpt lat="45.39703" lon="10.9829283"><ele>52.0</ele><time>2026-05-01T12:01:05.095Z</time></trkpt><trkpt lat="45.3970533" lon="10.9832567"><ele>52.0</ele><time>2026-05-01T12:01:06.095Z</time></trkpt><trkpt lat="45.3970783" lon="10.9835833"><ele>53.0</ele><time>2026-05-01T12:01:07.096Z</time></trkpt><trkpt lat="45.397105" lon="10.983915"><ele>54.0</ele><time>2026-05-01T12:01:08.096Z</time></trkpt><trkpt lat="45.3971367" lon="10.9842483"><ele>54.0</ele><time>2026-05-01T12:01:09.095Z</time></trkpt><trkpt lat="45.3971667" lon="10.98458"><ele>54.0</ele><time>2026-05-01T12:01:10.095Z</time></trkpt><trkpt lat="45.3972033" lon="10.98491"><ele>55.5</ele><time>2026-05-01T12:01:11.096Z</time></trkpt><trkpt lat="45.3972417" lon="10.9852333"><ele>57.0</ele><time>2026-05-01T12:01:12.096Z</time></trkpt><trkpt lat="45.3972817" lon="10.9855467"><ele>57.33333333333333</ele><time>2026-05-01T12:01:13.096Z</time></trkpt><trkpt lat="45.39732" lon="10.98585"><ele>57.666666666666664</ele><time>2026-05-01T12:01:14.095Z</time></trkpt><trkpt lat="45.3973617" lon="10.986155"><ele>58.0</ele><time>2026-05-01T12:01:15.096Z</time></trkpt><trkpt lat="45.397405" lon="10.9864517"><ele>57.666666666666664</ele><time>2026-05-01T12:01:16.095Z</time></trkpt><trkpt lat="45.3974467" lon="10.9867517"><ele>57.33333333333333</ele><time>2026-05-01T12:01:17.096Z</time></trkpt><trkpt lat="45.397495" lon="10.98705"><ele>57.0</ele><time>2026-05-01T12:01:18.095Z</time></trkpt><trkpt lat="45.39754" lon="10.9873533"><ele>56.66666666666667</ele><time>2026-05-01T12:01:19.096Z</time></trkpt><trkpt lat="45.3975883" lon="10.9876567"><ele>56.333333333333336</ele><time>2026-05-01T12:01:20.096Z</time></trkpt><trkpt lat="45.3976367" lon="10.9879617"><ele>56.0</ele><time>2026-05-01T12:01:21.096Z</time></trkpt><trkpt lat="45.397685" lon="10.98827"><ele>55.333333333333336</ele><time>2026-05-01T12:01:22.095Z</time></trkpt><trkpt lat="45.39773" lon="10.9885833"><ele>54.66666666666667</ele><time>2026-05-01T12:01:23.096Z</time></trkpt><trkpt lat="45.39777" lon="10.9888967"><ele>54.0</ele><time>2026-05-01T12:01:24.096Z</time></trkpt><trkpt lat="45.397815" lon="10.9892083"><ele>53.0</ele><time>2026-05-01T12:01:25.095Z</time></trkpt><trkpt lat="45.3978617" lon="10.989525"><ele>52.0</ele><time>2026-05-01T12:01:26.095Z</time></trkpt><trkpt lat="45.3979033" lon="10.9898483"><ele>51.5</ele><time>2026-05-01T12:01:27.095Z</time></trkpt><trkpt lat="45.3979517" lon="10.9901667"><ele>51.0</ele><time>2026-05-01T12:01:28.096Z</time></trkpt><trkpt lat="45.3980433" lon="10.9908083"><ele>53.0</ele><time>2026-05-01T12:01:30.095Z</time></trkpt><trkpt lat="45.3980833" lon="10.9911317"><ele>55.0</ele><time>2026-05-01T12:01:31.096Z</time></trkpt><trkpt lat="45.39812" lon="10.9914533"><ele>55.5</ele><time>2026-05-01T12:01:32.096Z</time></trkpt><trkpt lat="45.398155" lon="10.9917717"><ele>56.0</ele><time>2026-05-01T12:01:33.096Z</time></trkpt><trkpt lat="45.3982117" lon="10.9924233"><ele>55.5</ele><time>2026-05-01T12:01:35.095Z</time></trkpt><trkpt lat="45.39824" lon="10.9927567"><ele>55.0</ele><time>2026-05-01T12:01:36.095Z</time></trkpt><trkpt lat="45.398275" lon="10.99309"><ele>55.0</ele><time>2026-05-01T12:01:37.095Z</time></trkpt><trkpt lat="45.3983067" lon="10.9934367"><ele>55.0</ele><time>2026-05-01T12:01:38.095Z</time></trkpt><trkpt lat="45.3983417" lon="10.9937733"><ele>55.0</ele><time>2026-05-01T12:01:39.095Z</time></trkpt><trkpt lat="45.3983767" lon="10.9941117"><ele>55.0</ele><time>2026-05-01T12:01:40.095Z</time></trkpt><trkpt lat="45.39841" lon="10.9944417"><ele>55.0</ele><time>2026-05-01T12:01:41.096Z</time></trkpt><trkpt lat="45.39844" lon="10.9947683"><ele>55.0</ele><time>2026-05-01T12:01:42.096Z</time></trkpt><trkpt lat="45.3984733" lon="10.9950983"><ele>55.0</ele><time>2026-05-01T12:01:43.096Z</time></trkpt><trkpt lat="45.3985067" lon="10.9954233"><ele>55.0</ele><time>2026-05-01T12:01:44.095Z</time></trkpt><trkpt lat="45.39854" lon="10.99575"><ele>55.0</ele><time>2026-05-01T12:01:45.096Z</time></trkpt><trkpt lat="45.39857" lon="10.99608"><ele>55.0</ele><time>2026-05-01T12:01:46.095Z</time></trkpt><trkpt lat="45.398595" lon="10.9964183"><ele>53.5</ele><time>2026-05-01T12:01:47.095Z</time></trkpt><trkpt lat="45.3986167" lon="10.9967583"><ele>52.0</ele><time>2026-05-01T12:01:48.096Z</time></trkpt><trkpt lat="45.3986417" lon="10.9970867"><ele>52.0</ele><time>2026-05-01T12:01:49.095Z</time></trkpt><trkpt lat="45.3986617" lon="10.9974133"><ele>52.0</ele><time>2026-05-01T12:01:50.096Z</time></trkpt><trkpt lat="45.3986817" lon="10.997745"><ele>50.5</ele><time>2026-05-01T12:01:51.096Z</time></trkpt><trkpt lat="45.3987067" lon="10.99808"><ele>49.0</ele><time>2026-05-01T12:01:52.095Z</time></trkpt><trkpt lat="45.3987333" lon="10.99842"><ele>49.0</ele><time>2026-05-01T12:01:53.095Z</time></trkpt><trkpt lat="45.3987567" lon="10.9987667"><ele>49.0</ele><time>2026-05-01T12:01:54.096Z</time></trkpt><trkpt lat="45.3987817" lon="10.9991183"><ele>48.5</ele><time>2026-05-01T12:01:55.095Z</time></trkpt><trkpt lat="45.398805" lon="10.9994767"><ele>48.0</ele><time>2026-05-01T12:01:56.096Z</time></trkpt><trkpt lat="45.3988283" lon="10.9998417"><ele>48.5</ele><time>2026-05-01T12:01:57.096Z</time></trkpt><trkpt lat="45.3988567" lon="11.0002033"><ele>49.0</ele><time>2026-05-01T12:01:58.095Z</time></trkpt><trkpt lat="45.39889" lon="11.0005567"><ele>48.0</ele><time>2026-05-01T12:01:59.096Z</time></trkpt><trkpt lat="45.39892" lon="11.0009083"><ele>47.0</ele><time>2026-05-01T12:02:00.096Z</time></trkpt><trkpt lat="45.39896" lon="11.001255"><ele>47.0</ele><time>2026-05-01T12:02:01.096Z</time></trkpt><trkpt lat="45.3989967" lon="11.0015967"><ele>47.0</ele><time>2026-05-01T12:02:02.095Z</time></trkpt><trkpt lat="45.3990317" lon="11.0019433"><ele>49.0</ele><time>2026-05-01T12:02:03.096Z</time></trkpt><trkpt lat="45.3990667" lon="11.0022917"><ele>51.0</ele><time>2026-05-01T12:02:04.095Z</time></trkpt><trkpt lat="45.3990967" lon="11.0026433"><ele>51.0</ele><time>2026-05-01T12:02:05.095Z</time></trkpt><trkpt lat="45.3991283" lon="11.0029933"><ele>51.0</ele><time>2026-05-01T12:02:06.095Z</time></trkpt><trkpt lat="45.3991983" lon="11.003685"><ele>51.0</ele><time>2026-05-01T12:02:08.095Z</time></trkpt><trkpt lat="45.3992283" lon="11.0040283"><ele>51.0</ele><time>2026-05-01T12:02:09.095Z</time></trkpt><trkpt lat="45.399265" lon="11.0043733"><ele>51.0</ele><time>2026-05-01T12:02:10.095Z</time></trkpt><trkpt lat="45.3993017" lon="11.0047183"><ele>51.0</ele><time>2026-05-01T12:02:11.095Z</time></trkpt><trkpt lat="45.3993367" lon="11.00506"><ele>51.0</ele><time>2026-05-01T12:02:12.096Z</time></trkpt><trkpt lat="45.3993733" lon="11.0054083"><ele>51.0</ele><time>2026-05-01T12:02:13.095Z</time></trkpt><trkpt lat="45.3994033" lon="11.005755"><ele>50.0</ele><time>2026-05-01T12:02:14.095Z</time></trkpt><trkpt lat="45.3994333" lon="11.0061067"><ele>49.0</ele><time>2026-05-01T12:02:15.096Z</time></trkpt><trkpt lat="45.3994667" lon="11.0064617"><ele>49.0</ele><time>2026-05-01T12:02:16.096Z</time></trkpt><trkpt lat="45.399535" lon="11.007165"><ele>49.5</ele><time>2026-05-01T12:02:18.096Z</time></trkpt><trkpt lat="45.3995733" lon="11.0075"><ele>50.0</ele><time>2026-05-01T12:02:19.096Z</time></trkpt><trkpt lat="45.3996083" lon="11.0078317"><ele>50.0</ele><time>2026-05-01T12:02:20.096Z</time></trkpt><trkpt lat="45.3996383" lon="11.0081617"><ele>50.0</ele><time>2026-05-01T12:02:21.096Z</time></trkpt><trkpt lat="45.3996733" lon="11.0084983"><ele>51.0</ele><time>2026-05-01T12:02:22.095Z</time></trkpt><trkpt lat="45.399705" lon="11.0088367"><ele>52.0</ele><time>2026-05-01T12:02:23.095Z</time></trkpt><trkpt lat="45.3997367" lon="11.0091783"><ele>52.0</ele><time>2026-05-01T12:02:24.095Z</time></trkpt><trkpt lat="45.39977" lon="11.009525"><ele>52.0</ele><time>2026-05-01T12:02:25.095Z</time></trkpt><trkpt lat="45.399805" lon="11.0098717"><ele>52.5</ele><time>2026-05-01T12:02:26.095Z</time></trkpt><trkpt lat="45.39984" lon="11.0102267"><ele>53.0</ele><time>2026-05-01T12:02:27.096Z</time></trkpt><trkpt lat="45.3998783" lon="11.0105833"><ele>53.0</ele><time>2026-05-01T12:02:28.096Z</time></trkpt><trkpt lat="45.3999183" lon="11.01094"><ele>53.0</ele><time>2026-05-01T12:02:29.095Z</time></trkpt><trkpt lat="45.3999517" lon="11.0112967"><ele>53.0</ele><time>2026-05-01T12:02:30.096Z</time></trkpt><trkpt lat="45.39999" lon="11.0116467"><ele>53.0</ele><time>2026-05-01T12:02:31.095Z</time></trkpt><trkpt lat="45.400025" lon="11.01199"><ele>51.5</ele><time>2026-05-01T12:02:32.095Z</time></trkpt><trkpt lat="45.400055" lon="11.0123233"><ele>50.0</ele><time>2026-05-01T12:02:33.096Z</time></trkpt><trkpt lat="45.4000867" lon="11.012655"><ele>49.0</ele><time>2026-05-01T12:02:34.095Z</time></trkpt><trkpt lat="45.4001233" lon="11.0129917"><ele>48.0</ele><time>2026-05-01T12:02:35.095Z</time></trkpt><trkpt lat="45.4001567" lon="11.0133317"><ele>48.0</ele><time>2026-05-01T12:02:36.096Z</time></trkpt><trkpt lat="45.4001933" lon="11.01367"><ele>48.0</ele><time>2026-05-01T12:02:37.095Z</time></trkpt><trkpt lat="45.4002267" lon="11.0139983"><ele>48.5</ele><time>2026-05-01T12:02:38.095Z</time></trkpt><trkpt lat="45.4002583" lon="11.014325"><ele>49.0</ele><time>2026-05-01T12:02:39.096Z</time></trkpt><trkpt lat="45.40029" lon="11.014655"><ele>49.0</ele><time>2026-05-01T12:02:40.095Z</time></trkpt><trkpt lat="45.4003233" lon="11.0149833"><ele>49.0</ele><time>2026-05-01T12:02:41.096Z</time></trkpt><trkpt lat="45.4003533" lon="11.015315"><ele>49.5</ele><time>2026-05-01T12:02:42.095Z</time></trkpt><trkpt lat="45.4003867" lon="11.0156533"><ele>50.0</ele><time>2026-05-01T12:02:43.095Z</time></trkpt><trkpt lat="45.4004233" lon="11.0159917"><ele>49.5</ele><time>2026-05-01T12:02:44.095Z</time></trkpt><trkpt lat="45.4004517" lon="11.0163367"><ele>49.0</ele><time>2026-05-01T12:02:45.096Z</time></trkpt><trkpt lat="45.400485" lon="11.0166833"><ele>51.0</ele><time>2026-05-01T12:02:46.096Z</time></trkpt><trkpt lat="45.40052" lon="11.01703"><ele>53.0</ele><time>2026-05-01T12:02:47.095Z</time></trkpt><trkpt lat="45.400555" lon="11.01738"><ele>54.5</ele><time>2026-05-01T12:02:48.095Z</time></trkpt><trkpt lat="45.4005867" lon="11.0177267"><ele>56.0</ele><time>2026-05-01T12:02:49.096Z</time></trkpt><trkpt lat="45.4006217" lon="11.0180733"><ele>56.0</ele><time>2026-05-01T12:02:50.096Z</time></trkpt><trkpt lat="45.4006567" lon="11.0184333"><ele>56.0</ele><time>2026-05-01T12:02:51.096Z</time></trkpt><trkpt lat="45.40069" lon="11.0187883"><ele>56.0</ele><time>2026-05-01T12:02:52.095Z</time></trkpt><trkpt lat="45.400725" lon="11.019145"><ele>56.0</ele><time>2026-05-01T12:02:53.096Z</time></trkpt><trkpt lat="45.4007633" lon="11.0195017"><ele>55.0</ele><time>2026-05-01T12:02:54.095Z</time></trkpt><trkpt lat="45.4007983" lon="11.01986"><ele>54.0</ele><time>2026-05-01T12:02:55.096Z</time></trkpt><trkpt lat="45.4008717" lon="11.0205817"><ele>52.5</ele><time>2026-05-01T12:02:57.095Z</time></trkpt><trkpt lat="45.40091" lon="11.02095"><ele>51.0</ele><time>2026-05-01T12:02:58.096Z</time></trkpt><trkpt lat="45.4009467" lon="11.0213133"><ele>51.0</ele><time>2026-05-01T12:02:59.096Z</time></trkpt><trkpt lat="45.4009817" lon="11.02168"><ele>51.0</ele><time>2026-05-01T12:03:00.095Z</time></trkpt><trkpt lat="45.401015" lon="11.0220417"><ele>51.0</ele><time>2026-05-01T12:03:01.096Z</time></trkpt><trkpt lat="45.4010533" lon="11.022405"><ele>51.0</ele><time>2026-05-01T12:03:02.096Z</time></trkpt><trkpt lat="45.4010917" lon="11.0227667"><ele>51.5</ele><time>2026-05-01T12:03:03.096Z</time></trkpt><trkpt lat="45.4011333" lon="11.023125"><ele>52.0</ele><time>2026-05-01T12:03:04.095Z</time></trkpt><trkpt lat="45.4011717" lon="11.0234833"><ele>52.5</ele><time>2026-05-01T12:03:05.095Z</time></trkpt><trkpt lat="45.4012167" lon="11.0238383"><ele>53.0</ele><time>2026-05-01T12:03:06.096Z</time></trkpt><trkpt lat="45.4012617" lon="11.024195"><ele>53.5</ele><time>2026-05-01T12:03:07.095Z</time></trkpt><trkpt lat="45.4013067" lon="11.02455"><ele>54.0</ele><time>2026-05-01T12:03:08.096Z</time></trkpt><trkpt lat="45.4013567" lon="11.0249117"><ele>51.5</ele><time>2026-05-01T12:03:09.095Z</time></trkpt><trkpt lat="45.401405" lon="11.02527"><ele>49.0</ele><time>2026-05-01T12:03:10.096Z</time></trkpt><trkpt lat="45.401455" lon="11.025635"><ele>50.0</ele><time>2026-05-01T12:03:11.095Z</time></trkpt><trkpt lat="45.401505" lon="11.025995"><ele>51.0</ele><time>2026-05-01T12:03:12.095Z</time></trkpt><trkpt lat="45.4015567" lon="11.0263583"><ele>51.5</ele><time>2026-05-01T12:03:13.095Z</time></trkpt><trkpt lat="45.4015933" lon="11.0267283"><ele>52.0</ele><time>2026-05-01T12:03:14.095Z</time></trkpt><trkpt lat="45.4016333" lon="11.0270967"><ele>52.0</ele><time>2026-05-01T12:03:15.096Z</time></trkpt><trkpt lat="45.4016717" lon="11.027455"><ele>52.0</ele><time>2026-05-01T12:03:16.095Z</time></trkpt><trkpt lat="45.4017067" lon="11.02781"><ele>51.0</ele><time>2026-05-01T12:03:17.096Z</time></trkpt><trkpt lat="45.4017417" lon="11.02816"><ele>50.0</ele><time>2026-05-01T12:03:18.096Z</time></trkpt><trkpt lat="45.401775" lon="11.0285133"><ele>49.5</ele><time>2026-05-01T12:03:19.095Z</time></trkpt><trkpt lat="45.401815" lon="11.0288617"><ele>49.0</ele><time>2026-05-01T12:03:20.096Z</time></trkpt><trkpt lat="45.4018533" lon="11.02921"><ele>47.5</ele><time>2026-05-01T12:03:21.096Z</time></trkpt><trkpt lat="45.4018883" lon="11.02956"><ele>46.0</ele><time>2026-05-01T12:03:22.095Z</time></trkpt><trkpt lat="45.4019217" lon="11.02992"><ele>45.5</ele><time>2026-05-01T12:03:23.095Z</time></trkpt><trkpt lat="45.40196" lon="11.03028"><ele>45.0</ele><time>2026-05-01T12:03:24.095Z</time></trkpt><trkpt lat="45.4019917" lon="11.0306417"><ele>44.0</ele><time>2026-05-01T12:03:25.095Z</time></trkpt><trkpt lat="45.40203" lon="11.031005"><ele>43.0</ele><time>2026-05-01T12:03:26.095Z</time></trkpt><trkpt lat="45.40207" lon="11.03137"><ele>37.0</ele><time>2026-05-01T12:03:27.095Z</time></trkpt><trkpt lat="45.4021417" lon="11.03211"><ele>39.0</ele><time>2026-05-01T12:03:29.096Z</time></trkpt><trkpt lat="45.4021783" lon="11.0324833"><ele>41.0</ele><time>2026-05-01T12:03:30.095Z</time></trkpt><trkpt lat="45.402215" lon="11.032855"><ele>41.0</ele><time>2026-05-01T12:03:31.096Z</time></trkpt><trkpt lat="45.4022467" lon="11.0332333"><ele>41.0</ele><time>2026-05-01T12:03:32.096Z</time></trkpt><trkpt lat="45.4022817" lon="11.0336067"><ele>41.0</ele><time>2026-05-01T12:03:33.096Z</time></trkpt><trkpt lat="45.4023217" lon="11.0339783"><ele>41.0</ele><time>2026-05-01T12:03:34.096Z</time></trkpt><trkpt lat="45.4023583" lon="11.0343533"><ele>41.0</ele><time>2026-05-01T12:03:35.096Z</time></trkpt><trkpt lat="45.4023917" lon="11.03473"><ele>41.0</ele><time>2026-05-01T12:03:36.096Z</time></trkpt><trkpt lat="45.4024183" lon="11.0351083"><ele>40.5</ele><time>2026-05-01T12:03:37.096Z</time></trkpt><trkpt lat="45.4024467" lon="11.03548"><ele>40.0</ele><time>2026-05-01T12:03:38.095Z</time></trkpt><trkpt lat="45.4024683" lon="11.0358483"><ele>39.5</ele><time>2026-05-01T12:03:39.095Z</time></trkpt><trkpt lat="45.4024883" lon="11.03622"><ele>39.0</ele><time>2026-05-01T12:03:40.095Z</time></trkpt><trkpt lat="45.4025067" lon="11.036595"><ele>40.0</ele><time>2026-05-01T12:03:41.095Z</time></trkpt><trkpt lat="45.4025267" lon="11.0369683"><ele>41.0</ele><time>2026-05-01T12:03:42.095Z</time></trkpt><trkpt lat="45.402545" lon="11.037345"><ele>41.5</ele><time>2026-05-01T12:03:43.095Z</time></trkpt><trkpt lat="45.4025683" lon="11.0377217"><ele>42.0</ele><time>2026-05-01T12:03:44.096Z</time></trkpt><trkpt lat="45.4025933" lon="11.0380967"><ele>43.0</ele><time>2026-05-01T12:03:45.095Z</time></trkpt><trkpt lat="45.40263" lon="11.0384783"><ele>44.0</ele><time>2026-05-01T12:03:46.096Z</time></trkpt><trkpt lat="45.40265" lon="11.038855"><ele>43.0</ele><time>2026-05-01T12:03:47.095Z</time></trkpt><trkpt lat="45.4026917" lon="11.0392133"><ele>42.0</ele><time>2026-05-01T12:03:48.095Z</time></trkpt><trkpt lat="45.4027233" lon="11.03956"><ele>42.0</ele><time>2026-05-01T12:03:49.095Z</time></trkpt><trkpt lat="45.402755" lon="11.0399067"><ele>42.0</ele><time>2026-05-01T12:03:50.095Z</time></trkpt><trkpt lat="45.402785" lon="11.0402533"><ele>41.5</ele><time>2026-05-01T12:03:51.096Z</time></trkpt><trkpt lat="45.4028217" lon="11.0405983"><ele>41.0</ele><time>2026-05-01T12:03:52.095Z</time></trkpt><trkpt lat="45.4028567" lon="11.04095"><ele>39.5</ele><time>2026-05-01T12:03:53.095Z</time></trkpt><trkpt lat="45.402895" lon="11.0413017"><ele>38.0</ele><time>2026-05-01T12:03:54.096Z</time></trkpt><trkpt lat="45.4029317" lon="11.0416533"><ele>38.0</ele><time>2026-05-01T12:03:55.095Z</time></trkpt><trkpt lat="45.4029667" lon="11.0420067"><ele>38.0</ele><time>2026-05-01T12:03:56.096Z</time></trkpt><trkpt lat="45.403" lon="11.0423633"><ele>38.0</ele><time>2026-05-01T12:03:57.095Z</time></trkpt><trkpt lat="45.4030317" lon="11.0427217"><ele>38.0</ele><time>2026-05-01T12:03:58.096Z</time></trkpt><trkpt lat="45.403065" lon="11.0430783"><ele>37.0</ele><time>2026-05-01T12:03:59.095Z</time></trkpt><trkpt lat="45.4031017" lon="11.0434367"><ele>36.0</ele><time>2026-05-01T12:04:00.095Z</time></trkpt><trkpt lat="45.4031383" lon="11.0437933"><ele>37.5</ele><time>2026-05-01T12:04:01.095Z</time></trkpt><trkpt lat="45.4031767" lon="11.04414"><ele>39.0</ele><time>2026-05-01T12:04:02.095Z</time></trkpt><trkpt lat="45.4032083" lon="11.0444883"><ele>39.0</ele><time>2026-05-01T12:04:03.096Z</time></trkpt><trkpt lat="45.403245" lon="11.0448467"><ele>39.0</ele><time>2026-05-01T12:04:04.095Z</time></trkpt><trkpt lat="45.4032817" lon="11.0452"><ele>39.0</ele><time>2026-05-01T12:04:05.096Z</time></trkpt><trkpt lat="45.4033183" lon="11.0455567"><ele>39.0</ele><time>2026-05-01T12:04:06.095Z</time></trkpt><trkpt lat="45.403355" lon="11.045925"><ele>39.0</ele><time>2026-05-01T12:04:07.096Z</time></trkpt><trkpt lat="45.4033917" lon="11.0462967"><ele>39.0</ele><time>2026-05-01T12:04:08.096Z</time></trkpt><trkpt lat="45.4034283" lon="11.0466767"><ele>38.0</ele><time>2026-05-01T12:04:09.095Z</time></trkpt><trkpt lat="45.4034683" lon="11.04705"><ele>37.0</ele><time>2026-05-01T12:04:10.096Z</time></trkpt><trkpt lat="45.4035067" lon="11.04742"><ele>37.0</ele><time>2026-05-01T12:04:11.095Z</time></trkpt><trkpt lat="45.4035433" lon="11.0477733"><ele>37.0</ele><time>2026-05-01T12:04:12.096Z</time></trkpt><trkpt lat="45.4035783" lon="11.0481333"><ele>37.0</ele><time>2026-05-01T12:04:13.095Z</time></trkpt><trkpt lat="45.40361" lon="11.0484917"><ele>37.0</ele><time>2026-05-01T12:04:14.096Z</time></trkpt><trkpt lat="45.4036483" lon="11.048845"><ele>37.0</ele><time>2026-05-01T12:04:15.095Z</time></trkpt><trkpt lat="45.4037283" lon="11.0495417"><ele>37.0</ele><time>2026-05-01T12:04:17.096Z</time></trkpt><trkpt lat="45.4037633" lon="11.04989"><ele>37.0</ele><time>2026-05-01T12:04:18.095Z</time></trkpt><trkpt lat="45.4037967" lon="11.0502383"><ele>37.5</ele><time>2026-05-01T12:04:19.096Z</time></trkpt><trkpt lat="45.4038317" lon="11.0505833"><ele>38.0</ele><time>2026-05-01T12:04:20.096Z</time></trkpt><trkpt lat="45.403865" lon="11.050935"><ele>38.0</ele><time>2026-05-01T12:04:21.095Z</time></trkpt><trkpt lat="45.4039" lon="11.05129"><ele>38.0</ele><time>2026-05-01T12:04:22.096Z</time></trkpt><trkpt lat="45.403935" lon="11.0516467"><ele>37.5</ele><time>2026-05-01T12:04:23.096Z</time></trkpt><trkpt lat="45.4039717" lon="11.052015"><ele>37.0</ele><time>2026-05-01T12:04:24.095Z</time></trkpt><trkpt lat="45.4040083" lon="11.0523767"><ele>37.5</ele><time>2026-05-01T12:04:25.095Z</time></trkpt><trkpt lat="45.4040417" lon="11.0527383"><ele>38.0</ele><time>2026-05-01T12:04:26.096Z</time></trkpt><trkpt lat="45.4040783" lon="11.053095"><ele>38.0</ele><time>2026-05-01T12:04:27.095Z</time></trkpt><trkpt lat="45.4041117" lon="11.0534467"><ele>38.0</ele><time>2026-05-01T12:04:28.096Z</time></trkpt><trkpt lat="45.404145" lon="11.0537983"><ele>37.5</ele><time>2026-05-01T12:04:29.096Z</time></trkpt><trkpt lat="45.404175" lon="11.0541433"><ele>37.0</ele><time>2026-05-01T12:04:30.096Z</time></trkpt><trkpt lat="45.404205" lon="11.054495"><ele>37.0</ele><time>2026-05-01T12:04:31.095Z</time></trkpt><trkpt lat="45.4042317" lon="11.0548483"><ele>37.0</ele><time>2026-05-01T12:04:32.095Z</time></trkpt><trkpt lat="45.40426" lon="11.0552117"><ele>36.5</ele><time>2026-05-01T12:04:33.095Z</time></trkpt><trkpt lat="45.4042883" lon="11.055575"><ele>36.0</ele><time>2026-05-01T12:04:34.095Z</time></trkpt><trkpt lat="45.4043183" lon="11.05594"><ele>37.0</ele><time>2026-05-01T12:04:35.095Z</time></trkpt><trkpt lat="45.4043467" lon="11.0563083"><ele>38.0</ele><time>2026-05-01T12:04:36.095Z</time></trkpt><trkpt lat="45.4043817" lon="11.0566733"><ele>38.0</ele><time>2026-05-01T12:04:37.096Z</time></trkpt><trkpt lat="45.4044133" lon="11.0570317"><ele>38.0</ele><time>2026-05-01T12:04:38.095Z</time></trkpt><trkpt lat="45.40444" lon="11.057385"><ele>38.0</ele><time>2026-05-01T12:04:39.095Z</time></trkpt><trkpt lat="45.4044667" lon="11.057735"><ele>38.0</ele><time>2026-05-01T12:04:40.095Z</time></trkpt><trkpt lat="45.404495" lon="11.05808"><ele>37.5</ele><time>2026-05-01T12:04:41.095Z</time></trkpt><trkpt lat="45.404525" lon="11.0584267"><ele>37.0</ele><time>2026-05-01T12:04:42.095Z</time></trkpt><trkpt lat="45.404555" lon="11.05877"><ele>37.0</ele><time>2026-05-01T12:04:43.096Z</time></trkpt><trkpt lat="45.4045867" lon="11.0591117"><ele>37.0</ele><time>2026-05-01T12:04:44.095Z</time></trkpt><trkpt lat="45.404615" lon="11.0594617"><ele>37.0</ele><time>2026-05-01T12:04:45.096Z</time></trkpt><trkpt lat="45.4046433" lon="11.0598183"><ele>37.0</ele><time>2026-05-01T12:04:46.095Z</time></trkpt><trkpt lat="45.4046717" lon="11.0601767"><ele>37.0</ele><time>2026-05-01T12:04:47.096Z</time></trkpt><trkpt lat="45.404705" lon="11.060535"><ele>37.0</ele><time>2026-05-01T12:04:48.096Z</time></trkpt><trkpt lat="45.404735" lon="11.0608917"><ele>37.5</ele><time>2026-05-01T12:04:49.096Z</time></trkpt><trkpt lat="45.4047667" lon="11.061255"><ele>38.0</ele><time>2026-05-01T12:04:50.096Z</time></trkpt><trkpt lat="45.4047983" lon="11.061615"><ele>38.0</ele><time>2026-05-01T12:04:51.096Z</time></trkpt><trkpt lat="45.404855" lon="11.0623467"><ele>37.0</ele><time>2026-05-01T12:04:53.096Z</time></trkpt><trkpt lat="45.4048833" lon="11.0627183"><ele>36.0</ele><time>2026-05-01T12:04:54.096Z</time></trkpt><trkpt lat="45.4049117" lon="11.0630917"><ele>36.5</ele><time>2026-05-01T12:04:55.095Z</time></trkpt><trkpt lat="45.4049417" lon="11.063465"><ele>37.0</ele><time>2026-05-01T12:04:56.095Z</time></trkpt><trkpt lat="45.4049733" lon="11.06384"><ele>36.5</ele><time>2026-05-01T12:04:57.095Z</time></trkpt><trkpt lat="45.4050017" lon="11.064215"><ele>36.0</ele><time>2026-05-01T12:04:58.095Z</time></trkpt><trkpt lat="45.4050333" lon="11.0645933"><ele>35.5</ele><time>2026-05-01T12:04:59.095Z</time></trkpt><trkpt lat="45.4050633" lon="11.06497"><ele>35.0</ele><time>2026-05-01T12:05:00.095Z</time></trkpt><trkpt lat="45.405095" lon="11.06535"><ele>35.0</ele><time>2026-05-01T12:05:01.095Z</time></trkpt><trkpt lat="45.405125" lon="11.0657283"><ele>35.0</ele><time>2026-05-01T12:05:02.095Z</time></trkpt><trkpt lat="45.405155" lon="11.0661067"><ele>36.0</ele><time>2026-05-01T12:05:03.096Z</time></trkpt><trkpt lat="45.405185" lon="11.0664867"><ele>37.0</ele><time>2026-05-01T12:05:04.095Z</time></trkpt><trkpt lat="45.4052217" lon="11.0668583"><ele>37.0</ele><time>2026-05-01T12:05:05.095Z</time></trkpt><trkpt lat="45.4052567" lon="11.0672367"><ele>37.0</ele><time>2026-05-01T12:05:06.095Z</time></trkpt><trkpt lat="45.4052917" lon="11.0676117"><ele>37.0</ele><time>2026-05-01T12:05:07.095Z</time></trkpt><trkpt lat="45.405325" lon="11.0679817"><ele>37.0</ele><time>2026-05-01T12:05:08.095Z</time></trkpt><trkpt lat="45.4053583" lon="11.0683417"><ele>38.0</ele><time>2026-05-01T12:05:09.096Z</time></trkpt><trkpt lat="45.4053917" lon="11.0686983"><ele>39.0</ele><time>2026-05-01T12:05:10.096Z</time></trkpt><trkpt lat="45.4054267" lon="11.0690567"><ele>39.0</ele><time>2026-05-01T12:05:11.096Z</time></trkpt><trkpt lat="45.4054633" lon="11.0694133"><ele>39.0</ele><time>2026-05-01T12:05:12.095Z</time></trkpt><trkpt lat="45.405505" lon="11.0697717"><ele>39.5</ele><time>2026-05-01T12:05:13.096Z</time></trkpt><trkpt lat="45.4055567" lon="11.0701367"><ele>40.0</ele><time>2026-05-01T12:05:14.096Z</time></trkpt><trkpt lat="45.40561" lon="11.0705"><ele>40.0</ele><time>2026-05-01T12:05:15.095Z</time></trkpt><trkpt lat="45.4056617" lon="11.0708733"><ele>40.0</ele><time>2026-05-01T12:05:16.095Z</time></trkpt><trkpt lat="45.4057233" lon="11.0712467"><ele>40.5</ele><time>2026-05-01T12:05:17.095Z</time></trkpt><trkpt lat="45.405785" lon="11.0716183"><ele>41.0</ele><time>2026-05-01T12:05:18.095Z</time></trkpt><trkpt lat="45.40586" lon="11.0719883"><ele>41.0</ele><time>2026-05-01T12:05:19.095Z</time></trkpt><trkpt lat="45.4059333" lon="11.0723567"><ele>41.0</ele><time>2026-05-01T12:05:20.095Z</time></trkpt><trkpt lat="45.40601" lon="11.072715"><ele>41.0</ele><time>2026-05-01T12:05:21.095Z</time></trkpt><trkpt lat="45.4060867" lon="11.0730667"><ele>41.0</ele><time>2026-05-01T12:05:22.096Z</time></trkpt><trkpt lat="45.4061717" lon="11.0734233"><ele>41.0</ele><time>2026-05-01T12:05:23.095Z</time></trkpt><trkpt lat="45.4062583" lon="11.0737817"><ele>41.0</ele><time>2026-05-01T12:05:24.095Z</time></trkpt><trkpt lat="45.4063467" lon="11.0741383"><ele>41.0</ele><time>2026-05-01T12:05:25.096Z</time></trkpt><trkpt lat="45.406435" lon="11.07449"><ele>41.0</ele><time>2026-05-01T12:05:26.095Z</time></trkpt><trkpt lat="45.406525" lon="11.07484"><ele>41.0</ele><time>2026-05-01T12:05:27.096Z</time></trkpt><trkpt lat="45.406615" lon="11.0751917"><ele>41.0</ele><time>2026-05-01T12:05:28.095Z</time></trkpt><trkpt lat="45.4067033" lon="11.07554"><ele>42.0</ele><time>2026-05-01T12:05:29.095Z</time></trkpt><trkpt lat="45.4067883" lon="11.075885"><ele>43.0</ele><time>2026-05-01T12:05:30.096Z</time></trkpt><trkpt lat="45.40688" lon="11.0762233"><ele>43.0</ele><time>2026-05-01T12:05:31.095Z</time></trkpt><trkpt lat="45.4069733" lon="11.076565"><ele>43.0</ele><time>2026-05-01T12:05:32.095Z</time></trkpt><trkpt lat="45.4070633" lon="11.0769"><ele>43.5</ele><time>2026-05-01T12:05:33.095Z</time></trkpt><trkpt lat="45.4071517" lon="11.0772417"><ele>44.0</ele><time>2026-05-01T12:05:34.095Z</time></trkpt><trkpt lat="45.40724" lon="11.07758"><ele>44.0</ele><time>2026-05-01T12:05:35.095Z</time></trkpt><trkpt lat="45.4073283" lon="11.07792"><ele>44.0</ele><time>2026-05-01T12:05:36.095Z</time></trkpt><trkpt lat="45.40751" lon="11.078585"><ele>43.5</ele><time>2026-05-01T12:05:38.095Z</time></trkpt><trkpt lat="45.4076017" lon="11.0789183"><ele>43.0</ele><time>2026-05-01T12:05:39.095Z</time></trkpt><trkpt lat="45.40778" lon="11.0795933"><ele>41.5</ele><time>2026-05-01T12:05:41.095Z</time></trkpt><trkpt lat="45.4078717" lon="11.0799317"><ele>40.0</ele><time>2026-05-01T12:05:42.095Z</time></trkpt><trkpt lat="45.4079583" lon="11.0802683"><ele>41.5</ele><time>2026-05-01T12:05:43.095Z</time></trkpt><trkpt lat="45.40805" lon="11.080605"><ele>43.0</ele><time>2026-05-01T12:05:44.095Z</time></trkpt><trkpt lat="45.4081433" lon="11.0809417"><ele>43.0</ele><time>2026-05-01T12:05:45.095Z</time></trkpt><trkpt lat="45.408235" lon="11.0812767"><ele>43.0</ele><time>2026-05-01T12:05:46.096Z</time></trkpt><trkpt lat="45.408325" lon="11.0816167"><ele>43.0</ele><time>2026-05-01T12:05:47.096Z</time></trkpt><trkpt lat="45.4084133" lon="11.0819517"><ele>43.0</ele><time>2026-05-01T12:05:48.095Z</time></trkpt><trkpt lat="45.4084983" lon="11.0822883"><ele>44.0</ele><time>2026-05-01T12:05:49.096Z</time></trkpt><trkpt lat="45.4085917" lon="11.0826267"><ele>45.0</ele><time>2026-05-01T12:05:50.096Z</time></trkpt><trkpt lat="45.40868" lon="11.0829567"><ele>44.5</ele><time>2026-05-01T12:05:51.095Z</time></trkpt><trkpt lat="45.4087683" lon="11.083285"><ele>44.0</ele><time>2026-05-01T12:05:52.096Z</time></trkpt><trkpt lat="45.4088567" lon="11.0836083"><ele>44.0</ele><time>2026-05-01T12:05:53.095Z</time></trkpt><trkpt lat="45.4089417" lon="11.08393"><ele>44.0</ele><time>2026-05-01T12:05:54.096Z</time></trkpt><trkpt lat="45.4090283" lon="11.0842483"><ele>44.0</ele><time>2026-05-01T12:05:55.096Z</time></trkpt><trkpt lat="45.40911" lon="11.084565"><ele>44.0</ele><time>2026-05-01T12:05:56.096Z</time></trkpt><trkpt lat="45.40919" lon="11.08488"><ele>44.0</ele><time>2026-05-01T12:05:57.095Z</time></trkpt><trkpt lat="45.4092683" lon="11.0851967"><ele>44.0</ele><time>2026-05-01T12:05:58.095Z</time></trkpt><trkpt lat="45.4093517" lon="11.0855067"><ele>44.0</ele><time>2026-05-01T12:05:59.095Z</time></trkpt><trkpt lat="45.4094383" lon="11.0858117"><ele>44.0</ele><time>2026-05-01T12:06:00.096Z</time></trkpt><trkpt lat="45.4095217" lon="11.0861083"><ele>44.0</ele><time>2026-05-01T12:06:01.095Z</time></trkpt><trkpt lat="45.4096033" lon="11.0864017"><ele>44.0</ele><time>2026-05-01T12:06:02.096Z</time></trkpt><trkpt lat="45.409685" lon="11.0866933"><ele>44.0</ele><time>2026-05-01T12:06:03.095Z</time></trkpt><trkpt lat="45.4097683" lon="11.0869833"><ele>44.33333333333333</ele><time>2026-05-01T12:06:04.096Z</time></trkpt><trkpt lat="45.4098417" lon="11.08727"><ele>44.666666666666664</ele><time>2026-05-01T12:06:05.096Z</time></trkpt><trkpt lat="45.4099233" lon="11.087575"><ele>45.0</ele><time>2026-05-01T12:06:06.095Z</time></trkpt><trkpt lat="45.41" lon="11.08787"><ele>45.0</ele><time>2026-05-01T12:06:07.095Z</time></trkpt><trkpt lat="45.4100783" lon="11.088165"><ele>45.0</ele><time>2026-05-01T12:06:08.095Z</time></trkpt><trkpt lat="45.4101617" lon="11.088465"><ele>45.0</ele><time>2026-05-01T12:06:09.095Z</time></trkpt><trkpt lat="45.41024" lon="11.08876"><ele>44.666666666666664</ele><time>2026-05-01T12:06:10.095Z</time></trkpt><trkpt lat="45.4103183" lon="11.0890517"><ele>44.33333333333333</ele><time>2026-05-01T12:06:11.095Z</time></trkpt><trkpt lat="45.4103983" lon="11.0893483"><ele>44.0</ele><time>2026-05-01T12:06:12.095Z</time></trkpt><trkpt lat="45.4104783" lon="11.0896467"><ele>44.0</ele><time>2026-05-01T12:06:13.096Z</time></trkpt><trkpt lat="45.4105617" lon="11.08995"><ele>44.0</ele><time>2026-05-01T12:06:14.095Z</time></trkpt><trkpt lat="45.410645" lon="11.09025"><ele>44.0</ele><time>2026-05-01T12:06:15.095Z</time></trkpt><trkpt lat="45.4107217" lon="11.0905583"><ele>44.0</ele><time>2026-05-01T12:06:16.096Z</time></trkpt><trkpt lat="45.4108033" lon="11.0908617"><ele>45.5</ele><time>2026-05-01T12:06:17.096Z</time></trkpt><trkpt lat="45.4108817" lon="11.0911633"><ele>47.0</ele><time>2026-05-01T12:06:18.096Z</time></trkpt><trkpt lat="45.4109617" lon="11.0914633"><ele>47.5</ele><time>2026-05-01T12:06:19.096Z</time></trkpt><trkpt lat="45.411045" lon="11.0917717"><ele>48.0</ele><time>2026-05-01T12:06:20.096Z</time></trkpt><trkpt lat="45.411125" lon="11.0920783"><ele>48.0</ele><time>2026-05-01T12:06:21.096Z</time></trkpt><trkpt lat="45.411205" lon="11.092385"><ele>48.0</ele><time>2026-05-01T12:06:22.096Z</time></trkpt><trkpt lat="45.4112883" lon="11.0927067"><ele>47.0</ele><time>2026-05-01T12:06:23.095Z</time></trkpt><trkpt lat="45.4113767" lon="11.093045"><ele>46.0</ele><time>2026-05-01T12:06:24.095Z</time></trkpt><trkpt lat="45.4114733" lon="11.0934033"><ele>46.0</ele><time>2026-05-01T12:06:25.095Z</time></trkpt><trkpt lat="45.4115783" lon="11.093775"><ele>46.0</ele><time>2026-05-01T12:06:26.095Z</time></trkpt><trkpt lat="45.4116833" lon="11.09414"><ele>47.0</ele><time>2026-05-01T12:06:27.095Z</time></trkpt><trkpt lat="45.41178" lon="11.0944917"><ele>48.0</ele><time>2026-05-01T12:06:28.095Z</time></trkpt><trkpt lat="45.4118767" lon="11.0948517"><ele>48.0</ele><time>2026-05-01T12:06:29.095Z</time></trkpt><trkpt lat="45.411975" lon="11.09521"><ele>48.0</ele><time>2026-05-01T12:06:30.096Z</time></trkpt><trkpt lat="45.4120767" lon="11.095575"><ele>48.0</ele><time>2026-05-01T12:06:31.095Z</time></trkpt><trkpt lat="45.41218" lon="11.09594"><ele>48.0</ele><time>2026-05-01T12:06:32.096Z</time></trkpt><trkpt lat="45.4122767" lon="11.096315"><ele>47.0</ele><time>2026-05-01T12:06:33.096Z</time></trkpt><trkpt lat="45.412375" lon="11.0967"><ele>46.0</ele><time>2026-05-01T12:06:34.096Z</time></trkpt><trkpt lat="45.4124733" lon="11.097075"><ele>45.5</ele><time>2026-05-01T12:06:35.095Z</time></trkpt><trkpt lat="45.4125667" lon="11.09746"><ele>45.0</ele><time>2026-05-01T12:06:36.095Z</time></trkpt><trkpt lat="45.4126583" lon="11.0978383"><ele>45.0</ele><time>2026-05-01T12:06:37.095Z</time></trkpt><trkpt lat="45.4127467" lon="11.0981967"><ele>45.0</ele><time>2026-05-01T12:06:38.096Z</time></trkpt><trkpt lat="45.4128333" lon="11.0985383"><ele>45.5</ele><time>2026-05-01T12:06:39.095Z</time></trkpt><trkpt lat="45.412925" lon="11.09888"><ele>46.0</ele><time>2026-05-01T12:06:40.095Z</time></trkpt><trkpt lat="45.41302" lon="11.0992233"><ele>46.0</ele><time>2026-05-01T12:06:41.095Z</time></trkpt><trkpt lat="45.413115" lon="11.0995617"><ele>46.0</ele><time>2026-05-01T12:06:42.095Z</time></trkpt><trkpt lat="45.4132083" lon="11.0999017"><ele>45.0</ele><time>2026-05-01T12:06:43.095Z</time></trkpt><trkpt lat="45.4132917" lon="11.1002383"><ele>44.0</ele><time>2026-05-01T12:06:44.096Z</time></trkpt><trkpt lat="45.4133783" lon="11.1005733"><ele>43.5</ele><time>2026-05-01T12:06:45.096Z</time></trkpt><trkpt lat="45.4134667" lon="11.1009033"><ele>43.0</ele><time>2026-05-01T12:06:46.095Z</time></trkpt><trkpt lat="45.4135617" lon="11.10123"><ele>43.0</ele><time>2026-05-01T12:06:47.095Z</time></trkpt><trkpt lat="45.4136533" lon="11.101555"><ele>43.0</ele><time>2026-05-01T12:06:48.096Z</time></trkpt><trkpt lat="45.413745" lon="11.1018867"><ele>43.0</ele><time>2026-05-01T12:06:49.096Z</time></trkpt><trkpt lat="45.4138333" lon="11.1022183"><ele>43.0</ele><time>2026-05-01T12:06:50.095Z</time></trkpt><trkpt lat="45.41392" lon="11.1025567"><ele>43.0</ele><time>2026-05-01T12:06:51.096Z</time></trkpt><trkpt lat="45.41401" lon="11.102895"><ele>43.0</ele><time>2026-05-01T12:06:52.096Z</time></trkpt><trkpt lat="45.4141017" lon="11.1032333"><ele>43.5</ele><time>2026-05-01T12:06:53.095Z</time></trkpt><trkpt lat="45.4141867" lon="11.1035817"><ele>44.0</ele><time>2026-05-01T12:06:54.095Z</time></trkpt><trkpt lat="45.4143683" lon="11.1042817"><ele>44.0</ele><time>2026-05-01T12:06:56.095Z</time></trkpt><trkpt lat="45.4144667" lon="11.1046383"><ele>44.0</ele><time>2026-05-01T12:06:57.096Z</time></trkpt><trkpt lat="45.4145683" lon="11.1049983"><ele>43.0</ele><time>2026-05-01T12:06:58.095Z</time></trkpt><trkpt lat="45.4146667" lon="11.1053617"><ele>42.0</ele><time>2026-05-01T12:06:59.096Z</time></trkpt><trkpt lat="45.4147633" lon="11.10572"><ele>43.0</ele><time>2026-05-01T12:07:00.095Z</time></trkpt><trkpt lat="45.4148617" lon="11.1060767"><ele>44.0</ele><time>2026-05-01T12:07:01.095Z</time></trkpt><trkpt lat="45.4149633" lon="11.1064433"><ele>44.0</ele><time>2026-05-01T12:07:02.095Z</time></trkpt><trkpt lat="45.4150683" lon="11.1068"><ele>44.0</ele><time>2026-05-01T12:07:03.095Z</time></trkpt><trkpt lat="45.41517" lon="11.1071583"><ele>42.5</ele><time>2026-05-01T12:07:04.096Z</time></trkpt><trkpt lat="45.4152717" lon="11.10752"><ele>41.0</ele><time>2026-05-01T12:07:05.096Z</time></trkpt><trkpt lat="45.4153683" lon="11.1078867"><ele>41.0</ele><time>2026-05-01T12:07:06.095Z</time></trkpt><trkpt lat="45.41547" lon="11.1082467"><ele>41.0</ele><time>2026-05-01T12:07:07.096Z</time></trkpt><trkpt lat="45.415575" lon="11.1086067"><ele>41.0</ele><time>2026-05-01T12:07:08.096Z</time></trkpt><trkpt lat="45.4156817" lon="11.1089667"><ele>41.0</ele><time>2026-05-01T12:07:09.096Z</time></trkpt><trkpt lat="45.4157967" lon="11.1093267"><ele>41.0</ele><time>2026-05-01T12:07:10.096Z</time></trkpt><trkpt lat="45.41592" lon="11.1096817"><ele>41.0</ele><time>2026-05-01T12:07:11.095Z</time></trkpt><trkpt lat="45.4160367" lon="11.1100317"><ele>40.5</ele><time>2026-05-01T12:07:12.095Z</time></trkpt><trkpt lat="45.416155" lon="11.1103733"><ele>40.0</ele><time>2026-05-01T12:07:13.095Z</time></trkpt><trkpt lat="45.416275" lon="11.1107133"><ele>41.0</ele><time>2026-05-01T12:07:14.095Z</time></trkpt><trkpt lat="45.416395" lon="11.111045"><ele>42.0</ele><time>2026-05-01T12:07:15.096Z</time></trkpt><trkpt lat="45.416515" lon="11.1113733"><ele>42.0</ele><time>2026-05-01T12:07:16.095Z</time></trkpt><trkpt lat="45.4166317" lon="11.1117"><ele>42.0</ele><time>2026-05-01T12:07:17.095Z</time></trkpt><trkpt lat="45.4167417" lon="11.112025"><ele>42.0</ele><time>2026-05-01T12:07:18.095Z</time></trkpt><trkpt lat="45.4169733" lon="11.11268"><ele>42.0</ele><time>2026-05-01T12:07:20.095Z</time></trkpt><trkpt lat="45.417085" lon="11.1130067"><ele>42.0</ele><time>2026-05-01T12:07:21.096Z</time></trkpt><trkpt lat="45.4171967" lon="11.1133333"><ele>44.0</ele><time>2026-05-01T12:07:22.095Z</time></trkpt><trkpt lat="45.4173017" lon="11.1136517"><ele>46.0</ele><time>2026-05-01T12:07:23.096Z</time></trkpt><trkpt lat="45.4174117" lon="11.1139817"><ele>45.5</ele><time>2026-05-01T12:07:24.096Z</time></trkpt><trkpt lat="45.417525" lon="11.1143083"><ele>45.0</ele><time>2026-05-01T12:07:25.096Z</time></trkpt><trkpt lat="45.4176333" lon="11.1146367"><ele>45.0</ele><time>2026-05-01T12:07:26.095Z</time></trkpt><trkpt lat="45.417745" lon="11.1149533"><ele>45.0</ele><time>2026-05-01T12:07:27.096Z</time></trkpt><trkpt lat="45.4178567" lon="11.1152667"><ele>45.0</ele><time>2026-05-01T12:07:28.096Z</time></trkpt><trkpt lat="45.41797" lon="11.115585"><ele>45.0</ele><time>2026-05-01T12:07:29.096Z</time></trkpt><trkpt lat="45.4180783" lon="11.1159"><ele>46.5</ele><time>2026-05-01T12:07:30.096Z</time></trkpt><trkpt lat="45.4181883" lon="11.1162167"><ele>48.0</ele><time>2026-05-01T12:07:31.095Z</time></trkpt><trkpt lat="45.4182933" lon="11.1165317"><ele>47.0</ele><time>2026-05-01T12:07:32.095Z</time></trkpt><trkpt lat="45.4184" lon="11.1168483"><ele>46.0</ele><time>2026-05-01T12:07:33.095Z</time></trkpt><trkpt lat="45.418515" lon="11.1171617"><ele>45.0</ele><time>2026-05-01T12:07:34.096Z</time></trkpt><trkpt lat="45.4186283" lon="11.11748"><ele>44.0</ele><time>2026-05-01T12:07:35.096Z</time></trkpt><trkpt lat="45.41875" lon="11.1178067"><ele>45.0</ele><time>2026-05-01T12:07:36.095Z</time></trkpt><trkpt lat="45.41887" lon="11.1181317"><ele>46.0</ele><time>2026-05-01T12:07:37.095Z</time></trkpt><trkpt lat="45.4189917" lon="11.11846"><ele>46.0</ele><time>2026-05-01T12:07:38.095Z</time></trkpt><trkpt lat="45.4191183" lon="11.1187917"><ele>46.0</ele><time>2026-05-01T12:07:39.096Z</time></trkpt><trkpt lat="45.4192483" lon="11.119125"><ele>45.5</ele><time>2026-05-01T12:07:40.095Z</time></trkpt><trkpt lat="45.4193733" lon="11.1194633"><ele>45.0</ele><time>2026-05-01T12:07:41.095Z</time></trkpt><trkpt lat="45.4194967" lon="11.11981"><ele>43.0</ele><time>2026-05-01T12:07:42.095Z</time></trkpt><trkpt lat="45.419735" lon="11.1205"><ele>42.0</ele><time>2026-05-01T12:07:44.096Z</time></trkpt><trkpt lat="45.4198467" lon="11.12083"><ele>41.0</ele><time>2026-05-01T12:07:45.096Z</time></trkpt><trkpt lat="45.41996" lon="11.12116"><ele>41.0</ele><time>2026-05-01T12:07:46.096Z</time></trkpt><trkpt lat="45.42007" lon="11.121485"><ele>41.0</ele><time>2026-05-01T12:07:47.095Z</time></trkpt><trkpt lat="45.42018" lon="11.1218"><ele>41.0</ele><time>2026-05-01T12:07:48.095Z</time></trkpt><trkpt lat="45.4202883" lon="11.1221167"><ele>41.0</ele><time>2026-05-01T12:07:49.096Z</time></trkpt><trkpt lat="45.4203933" lon="11.1224383"><ele>44.5</ele><time>2026-05-01T12:07:50.096Z</time></trkpt><trkpt lat="45.4204917" lon="11.1227633"><ele>48.0</ele><time>2026-05-01T12:07:51.095Z</time></trkpt><trkpt lat="45.4205883" lon="11.123095"><ele>47.0</ele><time>2026-05-01T12:07:52.095Z</time></trkpt><trkpt lat="45.4206833" lon="11.12343"><ele>46.0</ele><time>2026-05-01T12:07:53.095Z</time></trkpt><trkpt lat="45.42077" lon="11.12377"><ele>45.5</ele><time>2026-05-01T12:07:54.095Z</time></trkpt><trkpt lat="45.4208533" lon="11.1241133"><ele>45.0</ele><time>2026-05-01T12:07:55.096Z</time></trkpt><trkpt lat="45.4209383" lon="11.1244483"><ele>45.0</ele><time>2026-05-01T12:07:56.095Z</time></trkpt><trkpt lat="45.4210233" lon="11.1247833"><ele>45.0</ele><time>2026-05-01T12:07:57.095Z</time></trkpt><trkpt lat="45.4211017" lon="11.12511"><ele>43.5</ele><time>2026-05-01T12:07:58.095Z</time></trkpt><trkpt lat="45.4211767" lon="11.1254417"><ele>42.0</ele><time>2026-05-01T12:07:59.095Z</time></trkpt><trkpt lat="45.4212483" lon="11.12578"><ele>42.0</ele><time>2026-05-01T12:08:00.096Z</time></trkpt><trkpt lat="45.4213117" lon="11.1261217"><ele>42.0</ele><time>2026-05-01T12:08:01.096Z</time></trkpt><trkpt lat="45.4213733" lon="11.1264633"><ele>42.0</ele><time>2026-05-01T12:08:02.096Z</time></trkpt><trkpt lat="45.421435" lon="11.1268067"><ele>42.0</ele><time>2026-05-01T12:08:03.096Z</time></trkpt><trkpt lat="45.421495" lon="11.127155"><ele>41.5</ele><time>2026-05-01T12:08:04.096Z</time></trkpt><trkpt lat="45.4215433" lon="11.1275033"><ele>41.0</ele><time>2026-05-01T12:08:05.095Z</time></trkpt><trkpt lat="45.4215883" lon="11.1278567"><ele>41.0</ele><time>2026-05-01T12:08:06.095Z</time></trkpt><trkpt lat="45.4216283" lon="11.1282133"><ele>41.0</ele><time>2026-05-01T12:08:07.096Z</time></trkpt><trkpt lat="45.4216717" lon="11.12857"><ele>41.5</ele><time>2026-05-01T12:08:08.095Z</time></trkpt><trkpt lat="45.4217133" lon="11.12893"><ele>42.0</ele><time>2026-05-01T12:08:09.096Z</time></trkpt><trkpt lat="45.4217467" lon="11.129285"><ele>42.0</ele><time>2026-05-01T12:08:10.096Z</time></trkpt><trkpt lat="45.4218067" lon="11.1300233"><ele>42.0</ele><time>2026-05-01T12:08:12.096Z</time></trkpt><trkpt lat="45.42183" lon="11.1304"><ele>42.0</ele><time>2026-05-01T12:08:13.096Z</time></trkpt><trkpt lat="45.4218517" lon="11.1307833"><ele>42.0</ele><time>2026-05-01T12:08:14.096Z</time></trkpt><trkpt lat="45.4218717" lon="11.1311717"><ele>42.0</ele><time>2026-05-01T12:08:15.095Z</time></trkpt><trkpt lat="45.4218883" lon="11.13156"><ele>42.0</ele><time>2026-05-01T12:08:16.096Z</time></trkpt><trkpt lat="45.4219" lon="11.1319433"><ele>42.0</ele><time>2026-05-01T12:08:17.096Z</time></trkpt><trkpt lat="45.4219067" lon="11.1323117"><ele>43.0</ele><time>2026-05-01T12:08:18.096Z</time></trkpt><trkpt lat="45.4219067" lon="11.1326783"><ele>44.0</ele><time>2026-05-01T12:08:19.095Z</time></trkpt><trkpt lat="45.4219067" lon="11.1330383"><ele>45.5</ele><time>2026-05-01T12:08:20.095Z</time></trkpt><trkpt lat="45.4219033" lon="11.1334"><ele>47.0</ele><time>2026-05-01T12:08:21.095Z</time></trkpt><trkpt lat="45.4218967" lon="11.1337567"><ele>45.5</ele><time>2026-05-01T12:08:22.095Z</time></trkpt><trkpt lat="45.4218817" lon="11.13412"><ele>44.0</ele><time>2026-05-01T12:08:23.095Z</time></trkpt><trkpt lat="45.4218583" lon="11.1344767"><ele>44.0</ele><time>2026-05-01T12:08:24.096Z</time></trkpt><trkpt lat="45.4218317" lon="11.1348317"><ele>44.0</ele><time>2026-05-01T12:08:25.096Z</time></trkpt><trkpt lat="45.4218033" lon="11.1351917"><ele>44.5</ele><time>2026-05-01T12:08:26.096Z</time></trkpt><trkpt lat="45.4217783" lon="11.13555"><ele>45.0</ele><time>2026-05-01T12:08:27.096Z</time></trkpt><trkpt lat="45.4217617" lon="11.1359067"><ele>45.0</ele><time>2026-05-01T12:08:28.095Z</time></trkpt><trkpt lat="45.4217367" lon="11.136265"><ele>45.0</ele><time>2026-05-01T12:08:29.095Z</time></trkpt><trkpt lat="45.4217067" lon="11.136625"><ele>45.5</ele><time>2026-05-01T12:08:30.096Z</time></trkpt><trkpt lat="45.4216717" lon="11.136985"><ele>46.0</ele><time>2026-05-01T12:08:31.096Z</time></trkpt><trkpt lat="45.421635" lon="11.1373367"><ele>46.5</ele><time>2026-05-01T12:08:32.096Z</time></trkpt><trkpt lat="45.4216017" lon="11.1376867"><ele>47.0</ele><time>2026-05-01T12:08:33.095Z</time></trkpt><trkpt lat="45.4215733" lon="11.1380467"><ele>46.5</ele><time>2026-05-01T12:08:34.095Z</time></trkpt><trkpt lat="45.4215433" lon="11.1384"><ele>46.0</ele><time>2026-05-01T12:08:35.096Z</time></trkpt><trkpt lat="45.4215133" lon="11.1387483"><ele>46.5</ele><time>2026-05-01T12:08:36.096Z</time></trkpt><trkpt lat="45.4214767" lon="11.1390917"><ele>47.0</ele><time>2026-05-01T12:08:37.095Z</time></trkpt><trkpt lat="45.42145" lon="11.1394383"><ele>47.0</ele><time>2026-05-01T12:08:38.096Z</time></trkpt><trkpt lat="45.4214217" lon="11.1397883"><ele>47.0</ele><time>2026-05-01T12:08:39.096Z</time></trkpt><trkpt lat="45.4213917" lon="11.14014"><ele>47.0</ele><time>2026-05-01T12:08:40.096Z</time></trkpt><trkpt lat="45.4213667" lon="11.1404817"><ele>47.0</ele><time>2026-05-01T12:08:41.096Z</time></trkpt><trkpt lat="45.42134" lon="11.140815"><ele>46.0</ele><time>2026-05-01T12:08:42.096Z</time></trkpt><trkpt lat="45.4213167" lon="11.1411517"><ele>45.0</ele><time>2026-05-01T12:08:43.095Z</time></trkpt><trkpt lat="45.4212883" lon="11.1414883"><ele>45.0</ele><time>2026-05-01T12:08:44.095Z</time></trkpt><trkpt lat="45.421265" lon="11.14182"><ele>45.0</ele><time>2026-05-01T12:08:45.095Z</time></trkpt><trkpt lat="45.4212383" lon="11.1421583"><ele>45.5</ele><time>2026-05-01T12:08:46.095Z</time></trkpt><trkpt lat="45.4212117" lon="11.1424867"><ele>46.0</ele><time>2026-05-01T12:08:47.095Z</time></trkpt><trkpt lat="45.4211867" lon="11.1428167"><ele>46.0</ele><time>2026-05-01T12:08:48.095Z</time></trkpt><trkpt lat="45.4211567" lon="11.1431583"><ele>46.0</ele><time>2026-05-01T12:08:49.096Z</time></trkpt><trkpt lat="45.4211267" lon="11.143495"><ele>46.0</ele><time>2026-05-01T12:08:50.095Z</time></trkpt><trkpt lat="45.4211033" lon="11.1438267"><ele>46.0</ele><time>2026-05-01T12:08:51.096Z</time></trkpt><trkpt lat="45.42108" lon="11.1441633"><ele>46.5</ele><time>2026-05-01T12:08:52.095Z</time></trkpt><trkpt lat="45.4210533" lon="11.1445067"><ele>47.0</ele><time>2026-05-01T12:08:53.096Z</time></trkpt><trkpt lat="45.42102" lon="11.144855"><ele>47.0</ele><time>2026-05-01T12:08:54.095Z</time></trkpt><trkpt lat="45.4209883" lon="11.1452017"><ele>47.0</ele><time>2026-05-01T12:08:55.095Z</time></trkpt><trkpt lat="45.4209617" lon="11.145545"><ele>46.5</ele><time>2026-05-01T12:08:56.096Z</time></trkpt><trkpt lat="45.4209333" lon="11.14589"><ele>46.0</ele><time>2026-05-01T12:08:57.096Z</time></trkpt><trkpt lat="45.420905" lon="11.146235"><ele>46.0</ele><time>2026-05-01T12:08:58.095Z</time></trkpt><trkpt lat="45.420875" lon="11.1465783"><ele>46.0</ele><time>2026-05-01T12:08:59.096Z</time></trkpt><trkpt lat="45.42085" lon="11.1469233"><ele>46.0</ele><time>2026-05-01T12:09:00.095Z</time></trkpt><trkpt lat="45.4208233" lon="11.1472717"><ele>46.0</ele><time>2026-05-01T12:09:01.095Z</time></trkpt><trkpt lat="45.420795" lon="11.147625"><ele>45.5</ele><time>2026-05-01T12:09:02.095Z</time></trkpt><trkpt lat="45.4207617" lon="11.14798"><ele>45.0</ele><time>2026-05-01T12:09:03.095Z</time></trkpt><trkpt lat="45.4207333" lon="11.1483417"><ele>46.0</ele><time>2026-05-01T12:09:04.095Z</time></trkpt><trkpt lat="45.4207017" lon="11.148705"><ele>47.0</ele><time>2026-05-01T12:09:05.095Z</time></trkpt><trkpt lat="45.4206717" lon="11.14908"><ele>48.0</ele><time>2026-05-01T12:09:06.095Z</time></trkpt><trkpt lat="45.42064" lon="11.14944"><ele>49.0</ele><time>2026-05-01T12:09:07.095Z</time></trkpt><trkpt lat="45.4206067" lon="11.1497867"><ele>48.5</ele><time>2026-05-01T12:09:08.095Z</time></trkpt><trkpt lat="45.420575" lon="11.1501383"><ele>48.0</ele><time>2026-05-01T12:09:09.095Z</time></trkpt><trkpt lat="45.420545" lon="11.1504917"><ele>48.5</ele><time>2026-05-01T12:09:10.095Z</time></trkpt><trkpt lat="45.4205217" lon="11.1508517"><ele>49.0</ele><time>2026-05-01T12:09:11.095Z</time></trkpt><trkpt lat="45.4204883" lon="11.15121"><ele>49.0</ele><time>2026-05-01T12:09:12.095Z</time></trkpt><trkpt lat="45.4204617" lon="11.1515667"><ele>49.0</ele><time>2026-05-01T12:09:13.095Z</time></trkpt><trkpt lat="45.420435" lon="11.1519267"><ele>49.0</ele><time>2026-05-01T12:09:14.095Z</time></trkpt><trkpt lat="45.42041" lon="11.1522933"><ele>49.0</ele><time>2026-05-01T12:09:15.096Z</time></trkpt><trkpt lat="45.4203817" lon="11.1526617"><ele>48.0</ele><time>2026-05-01T12:09:16.095Z</time></trkpt><trkpt lat="45.4203533" lon="11.1530233"><ele>47.0</ele><time>2026-05-01T12:09:17.096Z</time></trkpt><trkpt lat="45.420325" lon="11.15337"><ele>47.0</ele><time>2026-05-01T12:09:18.096Z</time></trkpt><trkpt lat="45.4202933" lon="11.1537067"><ele>47.0</ele><time>2026-05-01T12:09:19.096Z</time></trkpt><trkpt lat="45.4202683" lon="11.1540483"><ele>48.0</ele><time>2026-05-01T12:09:20.096Z</time></trkpt><trkpt lat="45.4202417" lon="11.1543883"><ele>49.0</ele><time>2026-05-01T12:09:21.096Z</time></trkpt><trkpt lat="45.4202183" lon="11.1547267"><ele>49.0</ele><time>2026-05-01T12:09:22.096Z</time></trkpt><trkpt lat="45.4201867" lon="11.1550667"><ele>49.0</ele><time>2026-05-01T12:09:23.096Z</time></trkpt><trkpt lat="45.420155" lon="11.1554133"><ele>49.0</ele><time>2026-05-01T12:09:24.096Z</time></trkpt><trkpt lat="45.4201283" lon="11.1557617"><ele>49.0</ele><time>2026-05-01T12:09:25.095Z</time></trkpt><trkpt lat="45.4201017" lon="11.1561117"><ele>49.0</ele><time>2026-05-01T12:09:26.096Z</time></trkpt><trkpt lat="45.420075" lon="11.1564733"><ele>49.0</ele><time>2026-05-01T12:09:27.095Z</time></trkpt><trkpt lat="45.4200467" lon="11.1568317"><ele>49.0</ele><time>2026-05-01T12:09:28.096Z</time></trkpt><trkpt lat="45.4200183" lon="11.1572"><ele>49.0</ele><time>2026-05-01T12:09:29.096Z</time></trkpt><trkpt lat="45.41999" lon="11.157565"><ele>49.5</ele><time>2026-05-01T12:09:30.095Z</time></trkpt><trkpt lat="45.4199667" lon="11.157925"><ele>50.0</ele><time>2026-05-01T12:09:31.096Z</time></trkpt><trkpt lat="45.4199417" lon="11.1582783"><ele>50.5</ele><time>2026-05-01T12:09:32.095Z</time></trkpt><trkpt lat="45.41992" lon="11.1586317"><ele>51.0</ele><time>2026-05-01T12:09:33.095Z</time></trkpt><trkpt lat="45.4199033" lon="11.15898"><ele>51.0</ele><time>2026-05-01T12:09:34.095Z</time></trkpt><trkpt lat="45.4198917" lon="11.1593317"><ele>51.0</ele><time>2026-05-01T12:09:35.096Z</time></trkpt><trkpt lat="45.4198733" lon="11.1596833"><ele>51.0</ele><time>2026-05-01T12:09:36.096Z</time></trkpt><trkpt lat="45.4198567" lon="11.1600333"><ele>51.0</ele><time>2026-05-01T12:09:37.095Z</time></trkpt><trkpt lat="45.4198317" lon="11.16038"><ele>50.5</ele><time>2026-05-01T12:09:38.096Z</time></trkpt><trkpt lat="45.4198183" lon="11.1607317"><ele>50.0</ele><time>2026-05-01T12:09:39.096Z</time></trkpt><trkpt lat="45.4197983" lon="11.16108"><ele>50.0</ele><time>2026-05-01T12:09:40.095Z</time></trkpt><trkpt lat="45.4197783" lon="11.16143"><ele>50.0</ele><time>2026-05-01T12:09:41.095Z</time></trkpt><trkpt lat="45.4197617" lon="11.161775"><ele>50.0</ele><time>2026-05-01T12:09:42.095Z</time></trkpt><trkpt lat="45.4197467" lon="11.1621283"><ele>50.0</ele><time>2026-05-01T12:09:43.095Z</time></trkpt><trkpt lat="45.41973" lon="11.1624883"><ele>50.0</ele><time>2026-05-01T12:09:44.096Z</time></trkpt><trkpt lat="45.4197133" lon="11.1628483"><ele>50.0</ele><time>2026-05-01T12:09:45.095Z</time></trkpt><trkpt lat="45.4197017" lon="11.1632083"><ele>50.5</ele><time>2026-05-01T12:09:46.095Z</time></trkpt><trkpt lat="45.4196817" lon="11.163575"><ele>51.0</ele><time>2026-05-01T12:09:47.095Z</time></trkpt><trkpt lat="45.4196683" lon="11.16394"><ele>51.0</ele><time>2026-05-01T12:09:48.095Z</time></trkpt><trkpt lat="45.419655" lon="11.164305"><ele>51.0</ele><time>2026-05-01T12:09:49.096Z</time></trkpt><trkpt lat="45.4196367" lon="11.1646583"><ele>51.0</ele><time>2026-05-01T12:09:50.095Z</time></trkpt><trkpt lat="45.41962" lon="11.16501"><ele>51.0</ele><time>2026-05-01T12:09:51.095Z</time></trkpt><trkpt lat="45.419605" lon="11.1653517"><ele>51.0</ele><time>2026-05-01T12:09:52.095Z</time></trkpt><trkpt lat="45.4195883" lon="11.1656883"><ele>51.0</ele><time>2026-05-01T12:09:53.096Z</time></trkpt><trkpt lat="45.4195717" lon="11.1660267"><ele>51.0</ele><time>2026-05-01T12:09:54.096Z</time></trkpt><trkpt lat="45.4195517" lon="11.166365"><ele>51.0</ele><time>2026-05-01T12:09:55.096Z</time></trkpt><trkpt lat="45.4195367" lon="11.1667083"><ele>50.0</ele><time>2026-05-01T12:09:56.095Z</time></trkpt><trkpt lat="45.4195233" lon="11.167055"><ele>49.0</ele><time>2026-05-01T12:09:57.095Z</time></trkpt><trkpt lat="45.4195083" lon="11.1674033"><ele>48.5</ele><time>2026-05-01T12:09:58.095Z</time></trkpt><trkpt lat="45.41949" lon="11.1677483"><ele>48.0</ele><time>2026-05-01T12:09:59.096Z</time></trkpt><trkpt lat="45.4194717" lon="11.1680967"><ele>47.5</ele><time>2026-05-01T12:10:00.095Z</time></trkpt><trkpt lat="45.4194583" lon="11.168435"><ele>47.0</ele><time>2026-05-01T12:10:01.095Z</time></trkpt><trkpt lat="45.419445" lon="11.1687667"><ele>48.0</ele><time>2026-05-01T12:10:02.096Z</time></trkpt><trkpt lat="45.419405" lon="11.1694283"><ele>48.0</ele><time>2026-05-01T12:10:04.096Z</time></trkpt><trkpt lat="45.4193883" lon="11.16976"><ele>48.0</ele><time>2026-05-01T12:10:05.096Z</time></trkpt><trkpt lat="45.4193817" lon="11.1700967"><ele>47.5</ele><time>2026-05-01T12:10:06.096Z</time></trkpt><trkpt lat="45.4193683" lon="11.1704317"><ele>47.0</ele><time>2026-05-01T12:10:07.095Z</time></trkpt><trkpt lat="45.419355" lon="11.1707617"><ele>48.0</ele><time>2026-05-01T12:10:08.096Z</time></trkpt><trkpt lat="45.419335" lon="11.1710867"><ele>49.0</ele><time>2026-05-01T12:10:09.096Z</time></trkpt><trkpt lat="45.4193167" lon="11.1714083"><ele>51.0</ele><time>2026-05-01T12:10:10.095Z</time></trkpt><trkpt lat="45.4192683" lon="11.1720467"><ele>52.0</ele><time>2026-05-01T12:10:12.096Z</time></trkpt><trkpt lat="45.4192367" lon="11.1723683"><ele>53.0</ele><time>2026-05-01T12:10:13.096Z</time></trkpt><trkpt lat="45.4192033" lon="11.1726933"><ele>53.0</ele><time>2026-05-01T12:10:14.096Z</time></trkpt><trkpt lat="45.419165" lon="11.1730183"><ele>53.0</ele><time>2026-05-01T12:10:15.096Z</time></trkpt><trkpt lat="45.4191267" lon="11.1733517"><ele>52.5</ele><time>2026-05-01T12:10:16.095Z</time></trkpt><trkpt lat="45.4190833" lon="11.173685"><ele>52.0</ele><time>2026-05-01T12:10:17.096Z</time></trkpt><trkpt lat="45.4190367" lon="11.1740217"><ele>51.0</ele><time>2026-05-01T12:10:18.096Z</time></trkpt><trkpt lat="45.418935" lon="11.1747083"><ele>51.0</ele><time>2026-05-01T12:10:20.095Z</time></trkpt><trkpt lat="45.4188767" lon="11.1750517"><ele>51.0</ele><time>2026-05-01T12:10:21.095Z</time></trkpt><trkpt lat="45.41882" lon="11.1753967"><ele>52.0</ele><time>2026-05-01T12:10:22.096Z</time></trkpt><trkpt lat="45.4187567" lon="11.1757383"><ele>53.0</ele><time>2026-05-01T12:10:23.095Z</time></trkpt><trkpt lat="45.4186917" lon="11.1760833"><ele>53.0</ele><time>2026-05-01T12:10:24.096Z</time></trkpt><trkpt lat="45.4186217" lon="11.1764283"><ele>53.0</ele><time>2026-05-01T12:10:25.095Z</time></trkpt><trkpt lat="45.41855" lon="11.1767717"><ele>52.0</ele><time>2026-05-01T12:10:26.095Z</time></trkpt><trkpt lat="45.4184717" lon="11.1771167"><ele>51.0</ele><time>2026-05-01T12:10:27.096Z</time></trkpt><trkpt lat="45.4183933" lon="11.1774583"><ele>51.0</ele><time>2026-05-01T12:10:28.095Z</time></trkpt><trkpt lat="45.418315" lon="11.177785"><ele>51.0</ele><time>2026-05-01T12:10:29.095Z</time></trkpt><trkpt lat="45.4182417" lon="11.1781067"><ele>51.5</ele><time>2026-05-01T12:10:30.096Z</time></trkpt><trkpt lat="45.41817" lon="11.1784267"><ele>52.0</ele><time>2026-05-01T12:10:31.096Z</time></trkpt><trkpt lat="45.4180933" lon="11.1787483"><ele>52.0</ele><time>2026-05-01T12:10:32.096Z</time></trkpt><trkpt lat="45.41802" lon="11.17907"><ele>52.0</ele><time>2026-05-01T12:10:33.095Z</time></trkpt><trkpt lat="45.417945" lon="11.1793967"><ele>51.5</ele><time>2026-05-01T12:10:34.096Z</time></trkpt><trkpt lat="45.41786" lon="11.179725"><ele>51.0</ele><time>2026-05-01T12:10:35.095Z</time></trkpt><trkpt lat="45.4177783" lon="11.1800533"><ele>51.0</ele><time>2026-05-01T12:10:36.095Z</time></trkpt><trkpt lat="45.4177017" lon="11.1803767"><ele>51.0</ele><time>2026-05-01T12:10:37.095Z</time></trkpt><trkpt lat="45.417625" lon="11.18071"><ele>51.5</ele><time>2026-05-01T12:10:38.096Z</time></trkpt><trkpt lat="45.4175483" lon="11.1810383"><ele>52.0</ele><time>2026-05-01T12:10:39.095Z</time></trkpt><trkpt lat="45.4174683" lon="11.181365"><ele>52.0</ele><time>2026-05-01T12:10:40.095Z</time></trkpt><trkpt lat="45.4173917" lon="11.1816933"><ele>52.0</ele><time>2026-05-01T12:10:41.096Z</time></trkpt><trkpt lat="45.4173133" lon="11.1820267"><ele>51.5</ele><time>2026-05-01T12:10:42.096Z</time></trkpt><trkpt lat="45.4172333" lon="11.1823667"><ele>51.0</ele><time>2026-05-01T12:10:43.095Z</time></trkpt><trkpt lat="45.4171533" lon="11.18271"><ele>51.0</ele><time>2026-05-01T12:10:44.096Z</time></trkpt><trkpt lat="45.4170733" lon="11.18305"><ele>51.0</ele><time>2026-05-01T12:10:45.096Z</time></trkpt><trkpt lat="45.4170017" lon="11.1833983"><ele>50.5</ele><time>2026-05-01T12:10:46.095Z</time></trkpt><trkpt lat="45.416925" lon="11.18374"><ele>50.0</ele><time>2026-05-01T12:10:47.096Z</time></trkpt><trkpt lat="45.4168417" lon="11.18409"><ele>50.0</ele><time>2026-05-01T12:10:48.095Z</time></trkpt><trkpt lat="45.4167617" lon="11.1844383"><ele>50.0</ele><time>2026-05-01T12:10:49.095Z</time></trkpt><trkpt lat="45.4166817" lon="11.184785"><ele>51.0</ele><time>2026-05-01T12:10:50.095Z</time></trkpt><trkpt lat="45.416605" lon="11.1851317"><ele>52.0</ele><time>2026-05-01T12:10:51.095Z</time></trkpt><trkpt lat="45.4165333" lon="11.1854767"><ele>54.5</ele><time>2026-05-01T12:10:52.096Z</time></trkpt><trkpt lat="45.4164583" lon="11.1858133"><ele>57.0</ele><time>2026-05-01T12:10:53.095Z</time></trkpt><trkpt lat="45.4163783" lon="11.1861383"><ele>54.0</ele><time>2026-05-01T12:10:54.096Z</time></trkpt><trkpt lat="45.4163133" lon="11.18647"><ele>51.0</ele><time>2026-05-01T12:10:55.095Z</time></trkpt><trkpt lat="45.4162367" lon="11.1867917"><ele>51.0</ele><time>2026-05-01T12:10:56.095Z</time></trkpt><trkpt lat="45.4161683" lon="11.1871367"><ele>51.0</ele><time>2026-05-01T12:10:57.095Z</time></trkpt><trkpt lat="45.4160967" lon="11.18747"><ele>51.0</ele><time>2026-05-01T12:10:58.096Z</time></trkpt><trkpt lat="45.416025" lon="11.187805"><ele>51.0</ele><time>2026-05-01T12:10:59.096Z</time></trkpt><trkpt lat="45.4159483" lon="11.1881317"><ele>51.0</ele><time>2026-05-01T12:11:00.095Z</time></trkpt><trkpt lat="45.415865" lon="11.188465"><ele>51.0</ele><time>2026-05-01T12:11:01.095Z</time></trkpt><trkpt lat="45.415785" lon="11.188795"><ele>50.0</ele><time>2026-05-01T12:11:02.096Z</time></trkpt><trkpt lat="45.41571" lon="11.1891233"><ele>49.0</ele><time>2026-05-01T12:11:03.095Z</time></trkpt><trkpt lat="45.4156467" lon="11.189455"><ele>49.0</ele><time>2026-05-01T12:11:04.095Z</time></trkpt><trkpt lat="45.4155717" lon="11.189795"><ele>49.0</ele><time>2026-05-01T12:11:05.095Z</time></trkpt><trkpt lat="45.4155" lon="11.1901317"><ele>47.0</ele><time>2026-05-01T12:11:06.094Z</time></trkpt><trkpt lat="45.415425" lon="11.1904683"><ele>45.0</ele><time>2026-05-01T12:11:07.094Z</time></trkpt><trkpt lat="45.415355" lon="11.1908117"><ele>44.0</ele><time>2026-05-01T12:11:08.094Z</time></trkpt><trkpt lat="45.41528" lon="11.1911533"><ele>43.0</ele><time>2026-05-01T12:11:09.094Z</time></trkpt><trkpt lat="45.4152183" lon="11.1914933"><ele>44.0</ele><time>2026-05-01T12:11:10.094Z</time></trkpt><trkpt lat="45.41516" lon="11.1918333"><ele>45.0</ele><time>2026-05-01T12:11:11.095Z</time></trkpt><trkpt lat="45.415095" lon="11.1921817"><ele>44.5</ele><time>2026-05-01T12:11:12.095Z</time></trkpt><trkpt lat="45.415045" lon="11.1925317"><ele>44.0</ele><time>2026-05-01T12:11:13.095Z</time></trkpt><trkpt lat="45.4149783" lon="11.1928817"><ele>42.5</ele><time>2026-05-01T12:11:14.095Z</time></trkpt><trkpt lat="45.4149183" lon="11.1932333"><ele>41.0</ele><time>2026-05-01T12:11:15.095Z</time></trkpt><trkpt lat="45.4148667" lon="11.1935883"><ele>41.0</ele><time>2026-05-01T12:11:16.095Z</time></trkpt><trkpt lat="45.4148167" lon="11.193945"><ele>41.0</ele><time>2026-05-01T12:11:17.094Z</time></trkpt><trkpt lat="45.414775" lon="11.1943083"><ele>40.0</ele><time>2026-05-01T12:11:18.095Z</time></trkpt><trkpt lat="45.4147283" lon="11.19467"><ele>39.0</ele><time>2026-05-01T12:11:19.095Z</time></trkpt><trkpt lat="45.4146883" lon="11.1950383"><ele>39.0</ele><time>2026-05-01T12:11:20.095Z</time></trkpt><trkpt lat="45.4146517" lon="11.1954183"><ele>39.0</ele><time>2026-05-01T12:11:21.095Z</time></trkpt><trkpt lat="45.4146183" lon="11.1957983"><ele>38.0</ele><time>2026-05-01T12:11:22.095Z</time></trkpt><trkpt lat="45.41458" lon="11.1961783"><ele>37.0</ele><time>2026-05-01T12:11:23.095Z</time></trkpt><trkpt lat="45.414545" lon="11.19656"><ele>36.5</ele><time>2026-05-01T12:11:24.094Z</time></trkpt><trkpt lat="45.4145083" lon="11.1969417"><ele>36.0</ele><time>2026-05-01T12:11:25.095Z</time></trkpt><trkpt lat="45.414465" lon="11.197315"><ele>36.0</ele><time>2026-05-01T12:11:26.094Z</time></trkpt><trkpt lat="45.41442" lon="11.1976867"><ele>36.0</ele><time>2026-05-01T12:11:27.094Z</time></trkpt><trkpt lat="45.414375" lon="11.1980483"><ele>36.0</ele><time>2026-05-01T12:11:28.094Z</time></trkpt><trkpt lat="45.414335" lon="11.1984183"><ele>36.0</ele><time>2026-05-01T12:11:29.095Z</time></trkpt><trkpt lat="45.4142933" lon="11.1987833"><ele>35.5</ele><time>2026-05-01T12:11:30.094Z</time></trkpt><trkpt lat="45.414265" lon="11.1991483"><ele>35.0</ele><time>2026-05-01T12:11:31.095Z</time></trkpt><trkpt lat="45.4142317" lon="11.1995117"><ele>34.0</ele><time>2026-05-01T12:11:32.095Z</time></trkpt><trkpt lat="45.4142017" lon="11.1998733"><ele>33.0</ele><time>2026-05-01T12:11:33.095Z</time></trkpt><trkpt lat="45.41417" lon="11.200235"><ele>33.0</ele><time>2026-05-01T12:11:34.094Z</time></trkpt><trkpt lat="45.4141417" lon="11.2005917"><ele>33.0</ele><time>2026-05-01T12:11:35.094Z</time></trkpt><trkpt lat="45.4141067" lon="11.2009483"><ele>32.5</ele><time>2026-05-01T12:11:36.094Z</time></trkpt><trkpt lat="45.414075" lon="11.2013017"><ele>32.0</ele><time>2026-05-01T12:11:37.094Z</time></trkpt><trkpt lat="45.41404" lon="11.201655"><ele>31.5</ele><time>2026-05-01T12:11:38.094Z</time></trkpt><trkpt lat="45.4140017" lon="11.202005"><ele>31.0</ele><time>2026-05-01T12:11:39.094Z</time></trkpt><trkpt lat="45.413965" lon="11.2023583"><ele>30.5</ele><time>2026-05-01T12:11:40.094Z</time></trkpt><trkpt lat="45.41393" lon="11.2027083"><ele>30.0</ele><time>2026-05-01T12:11:41.095Z</time></trkpt><trkpt lat="45.4138983" lon="11.2030533"><ele>30.0</ele><time>2026-05-01T12:11:42.095Z</time></trkpt><trkpt lat="45.413865" lon="11.2034033"><ele>30.0</ele><time>2026-05-01T12:11:43.094Z</time></trkpt><trkpt lat="45.4138333" lon="11.203755"><ele>28.0</ele><time>2026-05-01T12:11:44.094Z</time></trkpt><trkpt lat="45.4138" lon="11.2041017"><ele>26.0</ele><time>2026-05-01T12:11:45.094Z</time></trkpt><trkpt lat="45.413765" lon="11.2044517"><ele>26.0</ele><time>2026-05-01T12:11:46.095Z</time></trkpt><trkpt lat="45.4137317" lon="11.2047983"><ele>26.0</ele><time>2026-05-01T12:11:47.094Z</time></trkpt><trkpt lat="45.413695" lon="11.205145"><ele>26.5</ele><time>2026-05-01T12:11:48.095Z</time></trkpt><trkpt lat="45.41366" lon="11.2054867"><ele>27.0</ele><time>2026-05-01T12:11:49.094Z</time></trkpt><trkpt lat="45.413625" lon="11.20583"><ele>27.0</ele><time>2026-05-01T12:11:50.094Z</time></trkpt><trkpt lat="45.4135917" lon="11.2061683"><ele>27.0</ele><time>2026-05-01T12:11:51.094Z</time></trkpt><trkpt lat="45.4135583" lon="11.20651"><ele>27.5</ele><time>2026-05-01T12:11:52.094Z</time></trkpt><trkpt lat="45.4135267" lon="11.2068567"><ele>28.0</ele><time>2026-05-01T12:11:53.095Z</time></trkpt><trkpt lat="45.4134933" lon="11.2072017"><ele>28.0</ele><time>2026-05-01T12:11:54.094Z</time></trkpt><trkpt lat="45.4134567" lon="11.20755"><ele>28.0</ele><time>2026-05-01T12:11:55.094Z</time></trkpt><trkpt lat="45.4134233" lon="11.2078967"><ele>28.0</ele><time>2026-05-01T12:11:56.095Z</time></trkpt><trkpt lat="45.4133883" lon="11.20825"><ele>28.0</ele><time>2026-05-01T12:11:57.095Z</time></trkpt><trkpt lat="45.4133533" lon="11.2085983"><ele>28.0</ele><time>2026-05-01T12:11:58.094Z</time></trkpt><trkpt lat="45.4133217" lon="11.2089517"><ele>28.0</ele><time>2026-05-01T12:11:59.095Z</time></trkpt><trkpt lat="45.41329" lon="11.2092967"><ele>28.5</ele><time>2026-05-01T12:12:00.094Z</time></trkpt><trkpt lat="45.4132533" lon="11.2096433"><ele>29.0</ele><time>2026-05-01T12:12:01.094Z</time></trkpt><trkpt lat="45.4132233" lon="11.20999"><ele>29.0</ele><time>2026-05-01T12:12:02.094Z</time></trkpt><trkpt lat="45.4131883" lon="11.21034"><ele>29.0</ele><time>2026-05-01T12:12:03.095Z</time></trkpt><trkpt lat="45.4131567" lon="11.210685"><ele>29.5</ele><time>2026-05-01T12:12:04.094Z</time></trkpt><trkpt lat="45.41312" lon="11.21103"><ele>30.0</ele><time>2026-05-01T12:12:05.094Z</time></trkpt><trkpt lat="45.4130867" lon="11.211375"><ele>30.0</ele><time>2026-05-01T12:12:06.094Z</time></trkpt><trkpt lat="45.4130517" lon="11.2117217"><ele>30.0</ele><time>2026-05-01T12:12:07.095Z</time></trkpt><trkpt lat="45.41302" lon="11.21207"><ele>29.0</ele><time>2026-05-01T12:12:08.094Z</time></trkpt><trkpt lat="45.4129883" lon="11.2124133"><ele>28.0</ele><time>2026-05-01T12:12:09.094Z</time></trkpt><trkpt lat="45.4129533" lon="11.2127617"><ele>28.0</ele><time>2026-05-01T12:12:10.095Z</time></trkpt><trkpt lat="45.4128817" lon="11.2134567"><ele>28.0</ele><time>2026-05-01T12:12:12.095Z</time></trkpt><trkpt lat="45.4128517" lon="11.2138117"><ele>28.0</ele><time>2026-05-01T12:12:13.094Z</time></trkpt><trkpt lat="45.4128167" lon="11.2141633"><ele>29.0</ele><time>2026-05-01T12:12:14.095Z</time></trkpt><trkpt lat="45.4127783" lon="11.2145167"><ele>30.0</ele><time>2026-05-01T12:12:15.095Z</time></trkpt><trkpt lat="45.4127433" lon="11.21486"><ele>30.0</ele><time>2026-05-01T12:12:16.094Z</time></trkpt><trkpt lat="45.4127083" lon="11.2152083"><ele>30.0</ele><time>2026-05-01T12:12:17.095Z</time></trkpt><trkpt lat="45.4126767" lon="11.21555"><ele>29.5</ele><time>2026-05-01T12:12:18.094Z</time></trkpt><trkpt lat="45.4126483" lon="11.215895"><ele>29.0</ele><time>2026-05-01T12:12:19.094Z</time></trkpt><trkpt lat="45.4126183" lon="11.216245"><ele>29.5</ele><time>2026-05-01T12:12:20.095Z</time></trkpt><trkpt lat="45.4125817" lon="11.21659"><ele>30.0</ele><time>2026-05-01T12:12:21.094Z</time></trkpt><trkpt lat="45.4125467" lon="11.216935"><ele>30.0</ele><time>2026-05-01T12:12:22.095Z</time></trkpt><trkpt lat="45.4125117" lon="11.21728"><ele>30.0</ele><time>2026-05-01T12:12:23.095Z</time></trkpt><trkpt lat="45.4124783" lon="11.217625"><ele>30.0</ele><time>2026-05-01T12:12:24.094Z</time></trkpt><trkpt lat="45.4124467" lon="11.2179617"><ele>30.0</ele><time>2026-05-01T12:12:25.095Z</time></trkpt><trkpt lat="45.412415" lon="11.2182967"><ele>30.0</ele><time>2026-05-01T12:12:26.095Z</time></trkpt><trkpt lat="45.412385" lon="11.2186367"><ele>30.0</ele><time>2026-05-01T12:12:27.094Z</time></trkpt><trkpt lat="45.41235" lon="11.2189733"><ele>30.5</ele><time>2026-05-01T12:12:28.094Z</time></trkpt><trkpt lat="45.412315" lon="11.2193117"><ele>31.0</ele><time>2026-05-01T12:12:29.094Z</time></trkpt><trkpt lat="45.4122833" lon="11.2196533"><ele>31.5</ele><time>2026-05-01T12:12:30.095Z</time></trkpt><trkpt lat="45.41225" lon="11.2199967"><ele>32.0</ele><time>2026-05-01T12:12:31.095Z</time></trkpt><trkpt lat="45.412215" lon="11.2203467"><ele>32.0</ele><time>2026-05-01T12:12:32.094Z</time></trkpt><trkpt lat="45.41218" lon="11.2206933"><ele>32.0</ele><time>2026-05-01T12:12:33.094Z</time></trkpt><trkpt lat="45.4121467" lon="11.2210433"><ele>31.5</ele><time>2026-05-01T12:12:34.095Z</time></trkpt><trkpt lat="45.4121133" lon="11.2213983"><ele>31.0</ele><time>2026-05-01T12:12:35.094Z</time></trkpt><trkpt lat="45.4120767" lon="11.221755"><ele>30.5</ele><time>2026-05-01T12:12:36.094Z</time></trkpt><trkpt lat="45.4120417" lon="11.22211"><ele>30.0</ele><time>2026-05-01T12:12:37.094Z</time></trkpt><trkpt lat="45.4120033" lon="11.2224767"><ele>29.5</ele><time>2026-05-01T12:12:38.094Z</time></trkpt><trkpt lat="45.4119733" lon="11.22284"><ele>29.0</ele><time>2026-05-01T12:12:39.095Z</time></trkpt><trkpt lat="45.411935" lon="11.2232017"><ele>30.0</ele><time>2026-05-01T12:12:40.094Z</time></trkpt><trkpt lat="45.4118983" lon="11.223565"><ele>31.0</ele><time>2026-05-01T12:12:41.094Z</time></trkpt><trkpt lat="45.4118683" lon="11.2239233"><ele>30.5</ele><time>2026-05-01T12:12:42.094Z</time></trkpt><trkpt lat="45.4118333" lon="11.2242833"><ele>30.0</ele><time>2026-05-01T12:12:43.095Z</time></trkpt><trkpt lat="45.4117983" lon="11.224645"><ele>30.5</ele><time>2026-05-01T12:12:44.094Z</time></trkpt><trkpt lat="45.4117617" lon="11.2250033"><ele>31.0</ele><time>2026-05-01T12:12:45.094Z</time></trkpt><trkpt lat="45.4117283" lon="11.2253617"><ele>31.5</ele><time>2026-05-01T12:12:46.094Z</time></trkpt><trkpt lat="45.4116917" lon="11.2257233"><ele>32.0</ele><time>2026-05-01T12:12:47.095Z</time></trkpt><trkpt lat="45.411655" lon="11.22608"><ele>32.0</ele><time>2026-05-01T12:12:48.094Z</time></trkpt><trkpt lat="45.4116167" lon="11.2264417"><ele>32.0</ele><time>2026-05-01T12:12:49.094Z</time></trkpt><trkpt lat="45.4115833" lon="11.2268"><ele>30.5</ele><time>2026-05-01T12:12:50.095Z</time></trkpt><trkpt lat="45.41155" lon="11.2271533"><ele>29.0</ele><time>2026-05-01T12:12:51.095Z</time></trkpt><trkpt lat="45.41152" lon="11.227505"><ele>28.5</ele><time>2026-05-01T12:12:52.094Z</time></trkpt><trkpt lat="45.4114917" lon="11.22784"><ele>28.0</ele><time>2026-05-01T12:12:53.094Z</time></trkpt><trkpt lat="45.41146" lon="11.2281617"><ele>28.0</ele><time>2026-05-01T12:12:54.094Z</time></trkpt><trkpt lat="45.4114333" lon="11.228475"><ele>28.0</ele><time>2026-05-01T12:12:55.094Z</time></trkpt><trkpt lat="45.411405" lon="11.228775"><ele>28.0</ele><time>2026-05-01T12:12:56.095Z</time></trkpt><trkpt lat="45.4113717" lon="11.229075"><ele>27.666666666666668</ele><time>2026-05-01T12:12:57.094Z</time></trkpt><trkpt lat="45.411345" lon="11.22937"><ele>27.333333333333336</ele><time>2026-05-01T12:12:58.095Z</time></trkpt><trkpt lat="45.4113133" lon="11.2296583"><ele>27.0</ele><time>2026-05-01T12:12:59.094Z</time></trkpt><trkpt lat="45.411285" lon="11.2299333"><ele>27.666666666666664</ele><time>2026-05-01T12:13:00.094Z</time></trkpt><trkpt lat="45.4112583" lon="11.2302"><ele>28.333333333333332</ele><time>2026-05-01T12:13:01.094Z</time></trkpt><trkpt lat="45.41123" lon="11.2304533"><ele>29.0</ele><time>2026-05-01T12:13:02.094Z</time></trkpt><trkpt lat="45.4112033" lon="11.2306883"><ele>29.0</ele><time>2026-05-01T12:13:03.095Z</time></trkpt><trkpt lat="45.4111783" lon="11.2308917"><ele>29.0</ele><time>2026-05-01T12:13:04.094Z</time></trkpt><trkpt lat="45.41115" lon="11.2310817"><ele>29.0</ele><time>2026-05-01T12:13:05.095Z</time></trkpt><trkpt lat="45.4111117" lon="11.2312467"><ele>29.0</ele><time>2026-05-01T12:13:06.094Z</time></trkpt><trkpt lat="45.4110733" lon="11.2313833"><ele>29.166666666666664</ele><time>2026-05-01T12:13:07.094Z</time></trkpt><trkpt lat="45.4110333" lon="11.2315"><ele>29.333333333333332</ele><time>2026-05-01T12:13:08.095Z</time></trkpt><trkpt lat="45.4109883" lon="11.2316067"><ele>29.5</ele><time>2026-05-01T12:13:09.095Z</time></trkpt><trkpt lat="45.410935" lon="11.2316983"><ele>29.666666666666664</ele><time>2026-05-01T12:13:10.094Z</time></trkpt><trkpt lat="45.41089" lon="11.2317783"><ele>29.833333333333332</ele><time>2026-05-01T12:13:11.094Z</time></trkpt><trkpt lat="45.4108467" lon="11.2318533"><ele>30.0</ele><time>2026-05-01T12:13:12.095Z</time></trkpt><trkpt lat="45.41081" lon="11.2319283"><ele>30.0</ele><time>2026-05-01T12:13:13.094Z</time></trkpt><trkpt lat="45.41074" lon="11.232065"><ele>30.0</ele><time>2026-05-01T12:13:15.094Z</time></trkpt><trkpt lat="45.4106717" lon="11.2321933"><ele>30.0</ele><time>2026-05-01T12:13:17.095Z</time></trkpt><trkpt lat="45.4106283" lon="11.2322667"><ele>30.0</ele><time>2026-05-01T12:13:18.095Z</time></trkpt><trkpt lat="45.41059" lon="11.2323433"><ele>30.0</ele><time>2026-05-01T12:13:19.095Z</time></trkpt><trkpt lat="45.4105567" lon="11.2324217"><ele>30.0</ele><time>2026-05-01T12:13:20.094Z</time></trkpt><trkpt lat="45.4105083" lon="11.23257"><ele>30.0</ele><time>2026-05-01T12:13:22.094Z</time></trkpt><trkpt lat="45.4104833" lon="11.2327183"><ele>30.0</ele><time>2026-05-01T12:13:24.095Z</time></trkpt><trkpt lat="45.4104633" lon="11.2329117"><ele>30.0</ele><time>2026-05-01T12:13:27.095Z</time></trkpt><trkpt lat="45.410455" lon="11.2330317"><ele>30.0</ele><time>2026-05-01T12:13:29.095Z</time></trkpt><trkpt lat="45.4104533" lon="11.2331617"><ele>30.0</ele><time>2026-05-01T12:13:31.095Z</time></trkpt><trkpt lat="45.4104383" lon="11.2333133"><ele>30.166666666666668</ele><time>2026-05-01T12:13:33.094Z</time></trkpt><trkpt lat="45.4104133" lon="11.233445"><ele>30.333333333333336</ele><time>2026-05-01T12:13:35.095Z</time></trkpt><trkpt lat="45.41041" lon="11.2335833"><ele>30.5</ele><time>2026-05-01T12:13:37.094Z</time></trkpt><trkpt lat="45.4104267" lon="11.233705"><ele>30.666666666666668</ele><time>2026-05-01T12:13:39.094Z</time></trkpt><trkpt lat="45.4104583" lon="11.2338183"><ele>30.833333333333336</ele><time>2026-05-01T12:13:41.094Z</time></trkpt><trkpt lat="45.4104967" lon="11.233905"><ele>31.0</ele><time>2026-05-01T12:13:43.094Z</time></trkpt><trkpt lat="45.4105483" lon="11.23401"><ele>31.0</ele><time>2026-05-01T12:13:46.095Z</time></trkpt><trkpt lat="45.4105533" lon="11.2341283"><ele>31.0</ele><time>2026-05-01T12:13:50.095Z</time></trkpt><trkpt lat="45.41054" lon="11.2342433"><ele>31.0</ele><time>2026-05-01T12:13:53.094Z</time></trkpt><trkpt lat="45.4105617" lon="11.2344017"><ele>31.0</ele><time>2026-05-01T12:13:57.094Z</time></trkpt><trkpt lat="45.410585" lon="11.23456"><ele>31.0</ele><time>2026-05-01T12:21:12.093Z</time></trkpt><trkpt lat="45.4105933" lon="11.2346517"><ele>31.000000000000004</ele><time>2026-05-01T12:21:13.093Z</time></trkpt><trkpt lat="45.4105983" lon="11.23481"><ele>31.0</ele><time>2026-05-01T12:21:15.093Z</time></trkpt><trkpt lat="45.410615" lon="11.2349417"><ele>31.0</ele><time>2026-05-01T12:21:17.093Z</time></trkpt><trkpt lat="45.4106267" lon="11.23503"><ele>31.0</ele><time>2026-05-01T12:21:19.094Z</time></trkpt><trkpt lat="45.4106267" lon="11.2351233"><ele>31.000000000000004</ele><time>2026-05-01T12:21:22.093Z</time></trkpt><trkpt lat="45.4106117" lon="11.235215"><ele>31.0</ele><time>2026-05-01T12:21:25.094Z</time></trkpt><trkpt lat="45.4105983" lon="11.23531"><ele>31.0</ele><time>2026-05-01T12:21:28.094Z</time></trkpt><trkpt lat="45.4105883" lon="11.2354233"><ele>31.0</ele><time>2026-05-01T12:21:31.094Z</time></trkpt><trkpt lat="45.4105967" lon="11.235525"><ele>31.0</ele><time>2026-05-01T12:21:33.094Z</time></trkpt><trkpt lat="45.4106233" lon="11.2357167"><ele>31.0</ele><time>2026-05-01T12:21:35.094Z</time></trkpt><trkpt lat="45.410645" lon="11.2358433"><ele>31.0</ele><time>2026-05-01T12:21:36.093Z</time></trkpt><trkpt lat="45.4106567" lon="11.235995"><ele>30.25</ele><time>2026-05-01T12:21:37.093Z</time></trkpt><trkpt lat="45.4106617" lon="11.2361617"><ele>29.5</ele><time>2026-05-01T12:21:38.093Z</time></trkpt><trkpt lat="45.4106533" lon="11.23634"><ele>28.75</ele><time>2026-05-01T12:21:39.093Z</time></trkpt><trkpt lat="45.4106383" lon="11.23653"><ele>28.0</ele><time>2026-05-01T12:21:40.094Z</time></trkpt><trkpt lat="45.41062" lon="11.23672"><ele>27.666666666666668</ele><time>2026-05-01T12:21:41.094Z</time></trkpt><trkpt lat="45.4106033" lon="11.2369283"><ele>27.333333333333336</ele><time>2026-05-01T12:21:42.093Z</time></trkpt><trkpt lat="45.4105817" lon="11.2371567"><ele>27.0</ele><time>2026-05-01T12:21:43.093Z</time></trkpt><trkpt lat="45.4105667" lon="11.2373967"><ele>27.0</ele><time>2026-05-01T12:21:44.093Z</time></trkpt><trkpt lat="45.4105483" lon="11.2376317"><ele>27.0</ele><time>2026-05-01T12:21:45.093Z</time></trkpt><trkpt lat="45.410535" lon="11.2378733"><ele>27.0</ele><time>2026-05-01T12:21:46.093Z</time></trkpt><trkpt lat="45.4105167" lon="11.2381333"><ele>27.333333333333336</ele><time>2026-05-01T12:21:47.094Z</time></trkpt><trkpt lat="45.4105" lon="11.238405"><ele>27.666666666666668</ele><time>2026-05-01T12:21:48.093Z</time></trkpt><trkpt lat="45.4104783" lon="11.2386933"><ele>28.0</ele><time>2026-05-01T12:21:49.094Z</time></trkpt><trkpt lat="45.410455" lon="11.2389883"><ele>28.666666666666668</ele><time>2026-05-01T12:21:50.094Z</time></trkpt><trkpt lat="45.4104333" lon="11.2392767"><ele>29.333333333333336</ele><time>2026-05-01T12:21:51.093Z</time></trkpt><trkpt lat="45.410405" lon="11.2395517"><ele>30.0</ele><time>2026-05-01T12:21:52.093Z</time></trkpt><trkpt lat="45.4103767" lon="11.2398333"><ele>30.0</ele><time>2026-05-01T12:21:53.094Z</time></trkpt><trkpt lat="45.4103433" lon="11.2401233"><ele>30.0</ele><time>2026-05-01T12:21:54.093Z</time></trkpt><trkpt lat="45.410315" lon="11.2404217"><ele>30.0</ele><time>2026-05-01T12:21:55.093Z</time></trkpt><trkpt lat="45.410285" lon="11.2407317"><ele>30.0</ele><time>2026-05-01T12:21:56.094Z</time></trkpt><trkpt lat="45.4102533" lon="11.2410517"><ele>30.0</ele><time>2026-05-01T12:21:57.094Z</time></trkpt><trkpt lat="45.4102233" lon="11.2413833"><ele>29.5</ele><time>2026-05-01T12:21:58.093Z</time></trkpt><trkpt lat="45.4101883" lon="11.2417217"><ele>29.0</ele><time>2026-05-01T12:21:59.094Z</time></trkpt><trkpt lat="45.4101533" lon="11.2420667"><ele>28.0</ele><time>2026-05-01T12:22:00.094Z</time></trkpt><trkpt lat="45.4101183" lon="11.24242"><ele>27.0</ele><time>2026-05-01T12:22:01.094Z</time></trkpt><trkpt lat="45.410085" lon="11.24277"><ele>27.0</ele><time>2026-05-01T12:22:02.094Z</time></trkpt><trkpt lat="45.4100533" lon="11.2431217"><ele>27.0</ele><time>2026-05-01T12:22:03.094Z</time></trkpt><trkpt lat="45.4100233" lon="11.2434683"><ele>28.0</ele><time>2026-05-01T12:22:04.094Z</time></trkpt><trkpt lat="45.4099917" lon="11.2438183"><ele>29.0</ele><time>2026-05-01T12:22:05.093Z</time></trkpt><trkpt lat="45.4099567" lon="11.244175"><ele>29.5</ele><time>2026-05-01T12:22:06.093Z</time></trkpt><trkpt lat="45.4099217" lon="11.2445267"><ele>30.0</ele><time>2026-05-01T12:22:07.094Z</time></trkpt><trkpt lat="45.40989" lon="11.2448617"><ele>30.0</ele><time>2026-05-01T12:22:08.093Z</time></trkpt><trkpt lat="45.4098567" lon="11.2452"><ele>30.0</ele><time>2026-05-01T12:22:09.093Z</time></trkpt><trkpt lat="45.4098233" lon="11.24554"><ele>29.0</ele><time>2026-05-01T12:22:10.094Z</time></trkpt><trkpt lat="45.4097917" lon="11.2458933"><ele>28.0</ele><time>2026-05-01T12:22:11.093Z</time></trkpt><trkpt lat="45.4097583" lon="11.2462467"><ele>28.5</ele><time>2026-05-01T12:22:12.093Z</time></trkpt><trkpt lat="45.409725" lon="11.24658"><ele>29.0</ele><time>2026-05-01T12:22:13.094Z</time></trkpt><trkpt lat="45.409695" lon="11.2469133"><ele>29.0</ele><time>2026-05-01T12:22:14.093Z</time></trkpt><trkpt lat="45.4096633" lon="11.2472567"><ele>29.0</ele><time>2026-05-01T12:22:15.094Z</time></trkpt><trkpt lat="45.4096267" lon="11.2475967"><ele>30.5</ele><time>2026-05-01T12:22:16.094Z</time></trkpt><trkpt lat="45.4095917" lon="11.2479367"><ele>32.0</ele><time>2026-05-01T12:22:17.094Z</time></trkpt><trkpt lat="45.4095583" lon="11.2482783"><ele>32.0</ele><time>2026-05-01T12:22:18.094Z</time></trkpt><trkpt lat="45.409515" lon="11.2486233"><ele>32.0</ele><time>2026-05-01T12:22:19.094Z</time></trkpt><trkpt lat="45.40948" lon="11.2489683"><ele>32.0</ele><time>2026-05-01T12:22:20.093Z</time></trkpt><trkpt lat="45.4094517" lon="11.2493183"><ele>32.0</ele><time>2026-05-01T12:22:21.093Z</time></trkpt><trkpt lat="45.4094183" lon="11.2496717"><ele>32.0</ele><time>2026-05-01T12:22:22.093Z</time></trkpt><trkpt lat="45.409385" lon="11.2500267"><ele>32.0</ele><time>2026-05-01T12:22:23.093Z</time></trkpt><trkpt lat="45.40935" lon="11.2503917"><ele>31.5</ele><time>2026-05-01T12:22:24.094Z</time></trkpt><trkpt lat="45.4093133" lon="11.2507483"><ele>31.0</ele><time>2026-05-01T12:22:25.093Z</time></trkpt><trkpt lat="45.40928" lon="11.251105"><ele>31.0</ele><time>2026-05-01T12:22:26.093Z</time></trkpt><trkpt lat="45.4092467" lon="11.2514483"><ele>31.0</ele><time>2026-05-01T12:22:27.094Z</time></trkpt><trkpt lat="45.409215" lon="11.2517917"><ele>31.0</ele><time>2026-05-01T12:22:28.093Z</time></trkpt><trkpt lat="45.4091833" lon="11.2521317"><ele>31.0</ele><time>2026-05-01T12:22:29.094Z</time></trkpt><trkpt lat="45.4091517" lon="11.252475"><ele>31.0</ele><time>2026-05-01T12:22:30.094Z</time></trkpt><trkpt lat="45.4091167" lon="11.252825"><ele>31.0</ele><time>2026-05-01T12:22:31.093Z</time></trkpt><trkpt lat="45.4090817" lon="11.25317"><ele>31.0</ele><time>2026-05-01T12:22:32.094Z</time></trkpt><trkpt lat="45.4090483" lon="11.2535167"><ele>31.0</ele><time>2026-05-01T12:22:33.093Z</time></trkpt><trkpt lat="45.40901" lon="11.253865"><ele>30.0</ele><time>2026-05-01T12:22:34.093Z</time></trkpt><trkpt lat="45.408975" lon="11.2542133"><ele>29.0</ele><time>2026-05-01T12:22:35.094Z</time></trkpt><trkpt lat="45.4089433" lon="11.25457"><ele>29.0</ele><time>2026-05-01T12:22:36.093Z</time></trkpt><trkpt lat="45.4089083" lon="11.2549283"><ele>29.0</ele><time>2026-05-01T12:22:37.094Z</time></trkpt><trkpt lat="45.4088733" lon="11.2552867"><ele>28.5</ele><time>2026-05-01T12:22:38.093Z</time></trkpt><trkpt lat="45.40884" lon="11.2556483"><ele>28.0</ele><time>2026-05-01T12:22:39.093Z</time></trkpt><trkpt lat="45.4088067" lon="11.25601"><ele>28.0</ele><time>2026-05-01T12:22:40.094Z</time></trkpt><trkpt lat="45.4087733" lon="11.2563683"><ele>28.0</ele><time>2026-05-01T12:22:41.094Z</time></trkpt><trkpt lat="45.4087417" lon="11.256715"><ele>28.5</ele><time>2026-05-01T12:22:42.093Z</time></trkpt><trkpt lat="45.4087133" lon="11.257065"><ele>29.0</ele><time>2026-05-01T12:22:43.093Z</time></trkpt><trkpt lat="45.4086883" lon="11.2574083"><ele>29.5</ele><time>2026-05-01T12:22:44.093Z</time></trkpt><trkpt lat="45.408665" lon="11.25776"><ele>30.0</ele><time>2026-05-01T12:22:45.094Z</time></trkpt><trkpt lat="45.408645" lon="11.2581133"><ele>30.5</ele><time>2026-05-01T12:22:46.093Z</time></trkpt><trkpt lat="45.4086417" lon="11.2584667"><ele>31.0</ele><time>2026-05-01T12:22:47.093Z</time></trkpt><trkpt lat="45.4086317" lon="11.2588083"><ele>30.5</ele><time>2026-05-01T12:22:48.094Z</time></trkpt><trkpt lat="45.4086267" lon="11.2591533"><ele>30.0</ele><time>2026-05-01T12:22:49.093Z</time></trkpt><trkpt lat="45.4086233" lon="11.259495"><ele>31.0</ele><time>2026-05-01T12:22:50.093Z</time></trkpt><trkpt lat="45.4086267" lon="11.259835"><ele>32.0</ele><time>2026-05-01T12:22:51.093Z</time></trkpt><trkpt lat="45.40863" lon="11.2601683"><ele>32.0</ele><time>2026-05-01T12:22:52.093Z</time></trkpt><trkpt lat="45.4086367" lon="11.260505"><ele>32.0</ele><time>2026-05-01T12:22:53.093Z</time></trkpt><trkpt lat="45.4086367" lon="11.2608483"><ele>32.0</ele><time>2026-05-01T12:22:54.093Z</time></trkpt><trkpt lat="45.4086383" lon="11.261195"><ele>32.0</ele><time>2026-05-01T12:22:55.093Z</time></trkpt><trkpt lat="45.40864" lon="11.26155"><ele>32.0</ele><time>2026-05-01T12:22:56.093Z</time></trkpt><trkpt lat="45.4086483" lon="11.261905"><ele>32.0</ele><time>2026-05-01T12:22:57.094Z</time></trkpt><trkpt lat="45.4086517" lon="11.2622633"><ele>31.0</ele><time>2026-05-01T12:22:58.094Z</time></trkpt><trkpt lat="45.4086417" lon="11.2626283"><ele>30.0</ele><time>2026-05-01T12:22:59.093Z</time></trkpt><trkpt lat="45.4086617" lon="11.262995"><ele>28.5</ele><time>2026-05-01T12:23:00.094Z</time></trkpt><trkpt lat="45.408675" lon="11.2633617"><ele>27.0</ele><time>2026-05-01T12:23:01.094Z</time></trkpt><trkpt lat="45.4086883" lon="11.2637217"><ele>27.0</ele><time>2026-05-01T12:23:02.094Z</time></trkpt><trkpt lat="45.4087" lon="11.2640867"><ele>27.0</ele><time>2026-05-01T12:23:03.093Z</time></trkpt><trkpt lat="45.40871" lon="11.2644517"><ele>26.5</ele><time>2026-05-01T12:23:04.094Z</time></trkpt><trkpt lat="45.4087167" lon="11.2648183"><ele>26.0</ele><time>2026-05-01T12:23:05.093Z</time></trkpt><trkpt lat="45.408725" lon="11.2651917"><ele>26.0</ele><time>2026-05-01T12:23:06.093Z</time></trkpt><trkpt lat="45.4087367" lon="11.2655567"><ele>26.0</ele><time>2026-05-01T12:23:07.093Z</time></trkpt><trkpt lat="45.4087467" lon="11.26591"><ele>26.5</ele><time>2026-05-01T12:23:08.093Z</time></trkpt><trkpt lat="45.4087567" lon="11.2662483"><ele>27.0</ele><time>2026-05-01T12:23:09.093Z</time></trkpt><trkpt lat="45.4087617" lon="11.2665917"><ele>27.0</ele><time>2026-05-01T12:23:10.093Z</time></trkpt><trkpt lat="45.40877" lon="11.2669367"><ele>27.0</ele><time>2026-05-01T12:23:11.093Z</time></trkpt><trkpt lat="45.408775" lon="11.2672867"><ele>27.0</ele><time>2026-05-01T12:23:12.094Z</time></trkpt><trkpt lat="45.4087833" lon="11.2676333"><ele>27.0</ele><time>2026-05-01T12:23:13.093Z</time></trkpt><trkpt lat="45.40879" lon="11.26798"><ele>28.0</ele><time>2026-05-01T12:23:14.093Z</time></trkpt><trkpt lat="45.4088033" lon="11.268335"><ele>29.0</ele><time>2026-05-01T12:23:15.093Z</time></trkpt><trkpt lat="45.40882" lon="11.26869"><ele>28.0</ele><time>2026-05-01T12:23:16.094Z</time></trkpt><trkpt lat="45.40884" lon="11.26905"><ele>27.0</ele><time>2026-05-01T12:23:17.093Z</time></trkpt><trkpt lat="45.4088633" lon="11.269415"><ele>28.0</ele><time>2026-05-01T12:23:18.093Z</time></trkpt><trkpt lat="45.4088933" lon="11.2697817"><ele>29.0</ele><time>2026-05-01T12:23:19.093Z</time></trkpt><trkpt lat="45.408925" lon="11.2701467"><ele>29.0</ele><time>2026-05-01T12:23:20.093Z</time></trkpt><trkpt lat="45.408965" lon="11.2705133"><ele>29.0</ele><time>2026-05-01T12:23:21.094Z</time></trkpt><trkpt lat="45.4090067" lon="11.2708783"><ele>29.0</ele><time>2026-05-01T12:23:22.094Z</time></trkpt><trkpt lat="45.40905" lon="11.27125"><ele>29.0</ele><time>2026-05-01T12:23:23.094Z</time></trkpt><trkpt lat="45.409095" lon="11.2716233"><ele>29.0</ele><time>2026-05-01T12:23:24.093Z</time></trkpt><trkpt lat="45.4091467" lon="11.2719967"><ele>29.0</ele><time>2026-05-01T12:23:25.093Z</time></trkpt><trkpt lat="45.4091983" lon="11.2723783"><ele>29.0</ele><time>2026-05-01T12:23:26.093Z</time></trkpt><trkpt lat="45.4092583" lon="11.272755"><ele>29.0</ele><time>2026-05-01T12:23:27.094Z</time></trkpt><trkpt lat="45.4093217" lon="11.2731367"><ele>28.5</ele><time>2026-05-01T12:23:28.093Z</time></trkpt><trkpt lat="45.4093933" lon="11.2735167"><ele>28.0</ele><time>2026-05-01T12:23:29.094Z</time></trkpt><trkpt lat="45.409465" lon="11.2738967"><ele>28.0</ele><time>2026-05-01T12:23:30.093Z</time></trkpt><trkpt lat="45.4095367" lon="11.27428"><ele>28.0</ele><time>2026-05-01T12:23:31.093Z</time></trkpt><trkpt lat="45.40962" lon="11.274655"><ele>28.5</ele><time>2026-05-01T12:23:32.093Z</time></trkpt><trkpt lat="45.40971" lon="11.2750317"><ele>29.0</ele><time>2026-05-01T12:23:33.093Z</time></trkpt><trkpt lat="45.4097967" lon="11.2754"><ele>29.0</ele><time>2026-05-01T12:23:34.093Z</time></trkpt><trkpt lat="45.40988" lon="11.2757467"><ele>29.0</ele><time>2026-05-01T12:23:35.093Z</time></trkpt><trkpt lat="45.409965" lon="11.2760917"><ele>29.5</ele><time>2026-05-01T12:23:36.093Z</time></trkpt><trkpt lat="45.41005" lon="11.27644"><ele>30.0</ele><time>2026-05-01T12:23:37.094Z</time></trkpt><trkpt lat="45.4101333" lon="11.2767933"><ele>30.0</ele><time>2026-05-01T12:23:38.093Z</time></trkpt><trkpt lat="45.4102133" lon="11.277145"><ele>30.0</ele><time>2026-05-01T12:23:39.094Z</time></trkpt><trkpt lat="45.4102983" lon="11.2774983"><ele>30.5</ele><time>2026-05-01T12:23:40.093Z</time></trkpt><trkpt lat="45.41038" lon="11.277855"><ele>31.0</ele><time>2026-05-01T12:23:41.093Z</time></trkpt><trkpt lat="45.4104617" lon="11.2782083"><ele>31.5</ele><time>2026-05-01T12:23:42.093Z</time></trkpt><trkpt lat="45.4105467" lon="11.2785633"><ele>32.0</ele><time>2026-05-01T12:23:43.093Z</time></trkpt><trkpt lat="45.4106333" lon="11.2789183"><ele>31.0</ele><time>2026-05-01T12:23:44.094Z</time></trkpt><trkpt lat="45.4107183" lon="11.279275"><ele>30.0</ele><time>2026-05-01T12:23:45.093Z</time></trkpt><trkpt lat="45.4108017" lon="11.2796267"><ele>29.5</ele><time>2026-05-01T12:23:46.093Z</time></trkpt><trkpt lat="45.4108883" lon="11.2799833"><ele>29.0</ele><time>2026-05-01T12:23:47.094Z</time></trkpt><trkpt lat="45.4109717" lon="11.2803383"><ele>29.5</ele><time>2026-05-01T12:23:48.094Z</time></trkpt><trkpt lat="45.4110533" lon="11.2806967"><ele>30.0</ele><time>2026-05-01T12:23:49.093Z</time></trkpt><trkpt lat="45.4111367" lon="11.2810517"><ele>30.0</ele><time>2026-05-01T12:23:50.094Z</time></trkpt><trkpt lat="45.41122" lon="11.2814133"><ele>30.0</ele><time>2026-05-01T12:23:51.094Z</time></trkpt><trkpt lat="45.4113033" lon="11.281775"><ele>30.5</ele><time>2026-05-01T12:23:52.093Z</time></trkpt><trkpt lat="45.4113833" lon="11.2821433"><ele>31.0</ele><time>2026-05-01T12:23:53.094Z</time></trkpt><trkpt lat="45.4114683" lon="11.2825167"><ele>30.5</ele><time>2026-05-01T12:23:54.094Z</time></trkpt><trkpt lat="45.4115583" lon="11.2828833"><ele>30.0</ele><time>2026-05-01T12:23:55.093Z</time></trkpt><trkpt lat="45.4116467" lon="11.28325"><ele>30.0</ele><time>2026-05-01T12:23:56.093Z</time></trkpt><trkpt lat="45.4117367" lon="11.2836183"><ele>30.0</ele><time>2026-05-01T12:23:57.093Z</time></trkpt><trkpt lat="45.4118233" lon="11.2839917"><ele>31.0</ele><time>2026-05-01T12:23:58.093Z</time></trkpt><trkpt lat="45.4119083" lon="11.2843483"><ele>32.0</ele><time>2026-05-01T12:23:59.093Z</time></trkpt><trkpt lat="45.41199" lon="11.2847"><ele>32.0</ele><time>2026-05-01T12:24:00.094Z</time></trkpt><trkpt lat="45.4120733" lon="11.28505"><ele>32.0</ele><time>2026-05-01T12:24:01.093Z</time></trkpt><trkpt lat="45.4121533" lon="11.2854017"><ele>33.0</ele><time>2026-05-01T12:24:02.093Z</time></trkpt><trkpt lat="45.4122333" lon="11.2857533"><ele>34.0</ele><time>2026-05-01T12:24:03.093Z</time></trkpt><trkpt lat="45.41232" lon="11.2861033"><ele>33.5</ele><time>2026-05-01T12:24:04.094Z</time></trkpt><trkpt lat="45.4124033" lon="11.2864533"><ele>33.0</ele><time>2026-05-01T12:24:05.093Z</time></trkpt><trkpt lat="45.4124867" lon="11.2868017"><ele>33.0</ele><time>2026-05-01T12:24:06.094Z</time></trkpt><trkpt lat="45.4125733" lon="11.2871583"><ele>33.0</ele><time>2026-05-01T12:24:07.093Z</time></trkpt><trkpt lat="45.4126583" lon="11.2875183"><ele>32.5</ele><time>2026-05-01T12:24:08.093Z</time></trkpt><trkpt lat="45.4127483" lon="11.2878833"><ele>32.0</ele><time>2026-05-01T12:24:09.093Z</time></trkpt><trkpt lat="45.412835" lon="11.2882583"><ele>32.0</ele><time>2026-05-01T12:24:10.094Z</time></trkpt><trkpt lat="45.4129217" lon="11.28863"><ele>32.0</ele><time>2026-05-01T12:24:11.093Z</time></trkpt><trkpt lat="45.4130133" lon="11.2890033"><ele>32.0</ele><time>2026-05-01T12:24:12.094Z</time></trkpt><trkpt lat="45.4131033" lon="11.2893833"><ele>32.0</ele><time>2026-05-01T12:24:13.093Z</time></trkpt><trkpt lat="45.4131933" lon="11.2897633"><ele>32.0</ele><time>2026-05-01T12:24:14.093Z</time></trkpt><trkpt lat="45.413285" lon="11.2901467"><ele>32.0</ele><time>2026-05-01T12:24:15.093Z</time></trkpt><trkpt lat="45.41338" lon="11.2905383"><ele>31.0</ele><time>2026-05-01T12:24:16.093Z</time></trkpt><trkpt lat="45.4134667" lon="11.290915"><ele>30.0</ele><time>2026-05-01T12:24:17.094Z</time></trkpt><trkpt lat="45.4135533" lon="11.291275"><ele>30.0</ele><time>2026-05-01T12:24:18.094Z</time></trkpt><trkpt lat="45.413635" lon="11.2916383"><ele>30.0</ele><time>2026-05-01T12:24:19.093Z</time></trkpt><trkpt lat="45.41372" lon="11.292"><ele>29.5</ele><time>2026-05-01T12:24:20.093Z</time></trkpt><trkpt lat="45.4138067" lon="11.29237"><ele>29.0</ele><time>2026-05-01T12:24:21.094Z</time></trkpt><trkpt lat="45.4138917" lon="11.2927283"><ele>30.0</ele><time>2026-05-01T12:24:22.093Z</time></trkpt><trkpt lat="45.4139733" lon="11.293085"><ele>31.0</ele><time>2026-05-01T12:24:23.093Z</time></trkpt><trkpt lat="45.4140583" lon="11.2934333"><ele>31.0</ele><time>2026-05-01T12:24:24.093Z</time></trkpt><trkpt lat="45.414145" lon="11.293775"><ele>31.0</ele><time>2026-05-01T12:24:25.094Z</time></trkpt><trkpt lat="45.4142267" lon="11.2941117"><ele>30.5</ele><time>2026-05-01T12:24:26.093Z</time></trkpt><trkpt lat="45.4143117" lon="11.2944533"><ele>30.0</ele><time>2026-05-01T12:24:27.093Z</time></trkpt><trkpt lat="45.414395" lon="11.2948"><ele>29.5</ele><time>2026-05-01T12:24:28.093Z</time></trkpt><trkpt lat="45.414475" lon="11.2951483"><ele>29.0</ele><time>2026-05-01T12:24:29.093Z</time></trkpt><trkpt lat="45.4145517" lon="11.2955017"><ele>30.5</ele><time>2026-05-01T12:24:30.093Z</time></trkpt><trkpt lat="45.4146317" lon="11.2958533"><ele>32.0</ele><time>2026-05-01T12:24:31.094Z</time></trkpt><trkpt lat="45.4147167" lon="11.2962083"><ele>33.0</ele><time>2026-05-01T12:24:32.094Z</time></trkpt><trkpt lat="45.4148017" lon="11.29656"><ele>34.0</ele><time>2026-05-01T12:24:33.094Z</time></trkpt><trkpt lat="45.414885" lon="11.2969167"><ele>33.5</ele><time>2026-05-01T12:24:34.093Z</time></trkpt><trkpt lat="45.4149717" lon="11.2972833"><ele>33.0</ele><time>2026-05-01T12:24:35.093Z</time></trkpt><trkpt lat="45.4150583" lon="11.2976467"><ele>33.0</ele><time>2026-05-01T12:24:36.094Z</time></trkpt><trkpt lat="45.4151467" lon="11.2980067"><ele>33.0</ele><time>2026-05-01T12:24:37.094Z</time></trkpt><trkpt lat="45.41523" lon="11.298375"><ele>32.0</ele><time>2026-05-01T12:24:38.094Z</time></trkpt><trkpt lat="45.415315" lon="11.29875"><ele>31.0</ele><time>2026-05-01T12:24:39.093Z</time></trkpt><trkpt lat="45.4154033" lon="11.2991217"><ele>31.5</ele><time>2026-05-01T12:24:40.094Z</time></trkpt><trkpt lat="45.41549" lon="11.2994983"><ele>32.0</ele><time>2026-05-01T12:24:41.093Z</time></trkpt><trkpt lat="45.4155783" lon="11.299875"><ele>32.0</ele><time>2026-05-01T12:24:42.093Z</time></trkpt><trkpt lat="45.4156683" lon="11.3002533"><ele>32.0</ele><time>2026-05-01T12:24:43.094Z</time></trkpt><trkpt lat="45.4157567" lon="11.30062"><ele>32.5</ele><time>2026-05-01T12:24:44.094Z</time></trkpt><trkpt lat="45.4158417" lon="11.300965"><ele>33.0</ele><time>2026-05-01T12:24:45.093Z</time></trkpt><trkpt lat="45.4159217" lon="11.3013017"><ele>32.0</ele><time>2026-05-01T12:24:46.094Z</time></trkpt><trkpt lat="45.4159983" lon="11.3016383"><ele>31.0</ele><time>2026-05-01T12:24:47.094Z</time></trkpt><trkpt lat="45.4160783" lon="11.301975"><ele>30.5</ele><time>2026-05-01T12:24:48.094Z</time></trkpt><trkpt lat="45.4161617" lon="11.3023183"><ele>30.0</ele><time>2026-05-01T12:24:49.093Z</time></trkpt><trkpt lat="45.4162433" lon="11.3026683"><ele>30.0</ele><time>2026-05-01T12:24:50.094Z</time></trkpt><trkpt lat="45.41633" lon="11.3030183"><ele>30.0</ele><time>2026-05-01T12:24:51.094Z</time></trkpt><trkpt lat="45.4164133" lon="11.3033717"><ele>30.0</ele><time>2026-05-01T12:24:52.093Z</time></trkpt><trkpt lat="45.416495" lon="11.3037317"><ele>30.0</ele><time>2026-05-01T12:24:53.093Z</time></trkpt><trkpt lat="45.41658" lon="11.30409"><ele>30.0</ele><time>2026-05-01T12:24:54.093Z</time></trkpt><trkpt lat="45.4166667" lon="11.3044517"><ele>30.0</ele><time>2026-05-01T12:24:55.093Z</time></trkpt><trkpt lat="45.4167533" lon="11.3048067"><ele>30.5</ele><time>2026-05-01T12:24:56.093Z</time></trkpt><trkpt lat="45.4168367" lon="11.3051583"><ele>31.0</ele><time>2026-05-01T12:24:57.093Z</time></trkpt><trkpt lat="45.4169233" lon="11.3055083"><ele>31.0</ele><time>2026-05-01T12:24:58.094Z</time></trkpt><trkpt lat="45.4170067" lon="11.30586"><ele>31.0</ele><time>2026-05-01T12:24:59.094Z</time></trkpt><trkpt lat="45.4170917" lon="11.30621"><ele>32.0</ele><time>2026-05-01T12:25:00.094Z</time></trkpt><trkpt lat="45.4171733" lon="11.306565"><ele>33.0</ele><time>2026-05-01T12:25:01.093Z</time></trkpt><trkpt lat="45.417255" lon="11.30692"><ele>32.0</ele><time>2026-05-01T12:25:02.094Z</time></trkpt><trkpt lat="45.417335" lon="11.307275"><ele>31.0</ele><time>2026-05-01T12:25:03.093Z</time></trkpt><trkpt lat="45.4174133" lon="11.3076333"><ele>31.0</ele><time>2026-05-01T12:25:04.093Z</time></trkpt><trkpt lat="45.417495" lon="11.3079917"><ele>31.0</ele><time>2026-05-01T12:25:05.094Z</time></trkpt><trkpt lat="45.4175783" lon="11.3083467"><ele>31.0</ele><time>2026-05-01T12:25:06.094Z</time></trkpt><trkpt lat="45.4176617" lon="11.308705"><ele>31.0</ele><time>2026-05-01T12:25:07.094Z</time></trkpt><trkpt lat="45.4177467" lon="11.3090667"><ele>30.5</ele><time>2026-05-01T12:25:08.093Z</time></trkpt><trkpt lat="45.417835" lon="11.309425"><ele>30.0</ele><time>2026-05-01T12:25:09.094Z</time></trkpt><trkpt lat="45.4179233" lon="11.3097883"><ele>30.0</ele><time>2026-05-01T12:25:10.093Z</time></trkpt><trkpt lat="45.4180117" lon="11.3101567"><ele>30.0</ele><time>2026-05-01T12:25:11.093Z</time></trkpt><trkpt lat="45.4181017" lon="11.3105233"><ele>30.0</ele><time>2026-05-01T12:25:12.094Z</time></trkpt><trkpt lat="45.41819" lon="11.3108917"><ele>30.0</ele><time>2026-05-01T12:25:13.094Z</time></trkpt><trkpt lat="45.4182767" lon="11.3112567"><ele>29.5</ele><time>2026-05-01T12:25:14.094Z</time></trkpt><trkpt lat="45.4183633" lon="11.311625"><ele>29.0</ele><time>2026-05-01T12:25:15.093Z</time></trkpt><trkpt lat="45.418445" lon="11.3119983"><ele>30.0</ele><time>2026-05-01T12:25:16.093Z</time></trkpt><trkpt lat="45.4185283" lon="11.3123683"><ele>31.0</ele><time>2026-05-01T12:25:17.094Z</time></trkpt><trkpt lat="45.4186117" lon="11.31274"><ele>30.0</ele><time>2026-05-01T12:25:18.094Z</time></trkpt><trkpt lat="45.4186983" lon="11.3131067"><ele>29.0</ele><time>2026-05-01T12:25:19.093Z</time></trkpt><trkpt lat="45.418785" lon="11.3134733"><ele>29.5</ele><time>2026-05-01T12:25:20.093Z</time></trkpt><trkpt lat="45.41887" lon="11.31383"><ele>30.0</ele><time>2026-05-01T12:25:21.093Z</time></trkpt><trkpt lat="45.4189533" lon="11.31418"><ele>30.5</ele><time>2026-05-01T12:25:22.093Z</time></trkpt><trkpt lat="45.4190333" lon="11.31453"><ele>31.0</ele><time>2026-05-01T12:25:23.093Z</time></trkpt><trkpt lat="45.419115" lon="11.314885"><ele>31.0</ele><time>2026-05-01T12:25:24.094Z</time></trkpt><trkpt lat="45.4192033" lon="11.315235"><ele>31.0</ele><time>2026-05-01T12:25:25.094Z</time></trkpt><trkpt lat="45.4192917" lon="11.315585"><ele>30.5</ele><time>2026-05-01T12:25:26.094Z</time></trkpt><trkpt lat="45.41938" lon="11.3159317"><ele>30.0</ele><time>2026-05-01T12:25:27.093Z</time></trkpt><trkpt lat="45.4194717" lon="11.3162767"><ele>30.5</ele><time>2026-05-01T12:25:28.092Z</time></trkpt><trkpt lat="45.41957" lon="11.3166167"><ele>31.0</ele><time>2026-05-01T12:25:29.092Z</time></trkpt><trkpt lat="45.4196733" lon="11.316955"><ele>32.0</ele><time>2026-05-01T12:25:30.092Z</time></trkpt><trkpt lat="45.419775" lon="11.3172967"><ele>33.0</ele><time>2026-05-01T12:25:31.093Z</time></trkpt><trkpt lat="45.4198817" lon="11.3176317"><ele>33.0</ele><time>2026-05-01T12:25:32.093Z</time></trkpt><trkpt lat="45.4199933" lon="11.3179633"><ele>33.0</ele><time>2026-05-01T12:25:33.092Z</time></trkpt><trkpt lat="45.4201067" lon="11.318295"><ele>32.0</ele><time>2026-05-01T12:25:34.093Z</time></trkpt><trkpt lat="45.4202283" lon="11.3186267"><ele>31.0</ele><time>2026-05-01T12:25:35.093Z</time></trkpt><trkpt lat="45.4203567" lon="11.3189533"><ele>31.5</ele><time>2026-05-01T12:25:36.093Z</time></trkpt><trkpt lat="45.420485" lon="11.319285"><ele>32.0</ele><time>2026-05-01T12:25:37.092Z</time></trkpt><trkpt lat="45.42062" lon="11.3196167"><ele>32.0</ele><time>2026-05-01T12:25:38.093Z</time></trkpt><trkpt lat="45.4207533" lon="11.3199467"><ele>32.0</ele><time>2026-05-01T12:25:39.092Z</time></trkpt><trkpt lat="45.4208917" lon="11.320275"><ele>32.0</ele><time>2026-05-01T12:25:40.093Z</time></trkpt><trkpt lat="45.421035" lon="11.320605"><ele>32.0</ele><time>2026-05-01T12:25:41.092Z</time></trkpt><trkpt lat="45.4211783" lon="11.3209433"><ele>32.5</ele><time>2026-05-01T12:25:42.092Z</time></trkpt><trkpt lat="45.42132" lon="11.321275"><ele>33.0</ele><time>2026-05-01T12:25:43.092Z</time></trkpt><trkpt lat="45.4214633" lon="11.3216117"><ele>33.5</ele><time>2026-05-01T12:25:44.092Z</time></trkpt><trkpt lat="45.421605" lon="11.32194"><ele>34.0</ele><time>2026-05-01T12:25:45.092Z</time></trkpt><trkpt lat="45.4217467" lon="11.32226"><ele>34.0</ele><time>2026-05-01T12:25:46.093Z</time></trkpt><trkpt lat="45.4218833" lon="11.3225767"><ele>34.0</ele><time>2026-05-01T12:25:47.092Z</time></trkpt><trkpt lat="45.4220183" lon="11.32289"><ele>34.5</ele><time>2026-05-01T12:25:48.093Z</time></trkpt><trkpt lat="45.4221517" lon="11.3232083"><ele>35.0</ele><time>2026-05-01T12:25:49.093Z</time></trkpt><trkpt lat="45.4222867" lon="11.3235183"><ele>35.0</ele><time>2026-05-01T12:25:50.092Z</time></trkpt><trkpt lat="45.4224183" lon="11.3238317"><ele>35.0</ele><time>2026-05-01T12:25:51.092Z</time></trkpt><trkpt lat="45.42255" lon="11.3241483"><ele>35.0</ele><time>2026-05-01T12:25:52.092Z</time></trkpt><trkpt lat="45.4226833" lon="11.32446"><ele>35.0</ele><time>2026-05-01T12:25:53.093Z</time></trkpt><trkpt lat="45.42282" lon="11.3247767"><ele>35.5</ele><time>2026-05-01T12:25:54.093Z</time></trkpt><trkpt lat="45.4229533" lon="11.3251067"><ele>36.0</ele><time>2026-05-01T12:25:55.093Z</time></trkpt><trkpt lat="45.4230933" lon="11.3254283"><ele>37.0</ele><time>2026-05-01T12:25:56.093Z</time></trkpt><trkpt lat="45.423235" lon="11.32576"><ele>38.0</ele><time>2026-05-01T12:25:57.093Z</time></trkpt><trkpt lat="45.423375" lon="11.32608"><ele>36.0</ele><time>2026-05-01T12:25:58.092Z</time></trkpt><trkpt lat="45.4235117" lon="11.3264033"><ele>34.0</ele><time>2026-05-01T12:25:59.093Z</time></trkpt><trkpt lat="45.4236467" lon="11.326725"><ele>34.0</ele><time>2026-05-01T12:26:00.092Z</time></trkpt><trkpt lat="45.4237833" lon="11.3270433"><ele>34.0</ele><time>2026-05-01T12:26:01.093Z</time></trkpt><trkpt lat="45.4239217" lon="11.3273583"><ele>34.5</ele><time>2026-05-01T12:26:02.092Z</time></trkpt><trkpt lat="45.4240617" lon="11.327675"><ele>35.0</ele><time>2026-05-01T12:26:03.092Z</time></trkpt><trkpt lat="45.4242017" lon="11.3279967"><ele>33.5</ele><time>2026-05-01T12:26:04.093Z</time></trkpt><trkpt lat="45.42434" lon="11.3283167"><ele>32.0</ele><time>2026-05-01T12:26:05.093Z</time></trkpt><trkpt lat="45.4244767" lon="11.3286383"><ele>32.0</ele><time>2026-05-01T12:26:06.092Z</time></trkpt><trkpt lat="45.4246167" lon="11.3289617"><ele>32.0</ele><time>2026-05-01T12:26:07.092Z</time></trkpt><trkpt lat="45.424755" lon="11.32929"><ele>32.0</ele><time>2026-05-01T12:26:08.092Z</time></trkpt><trkpt lat="45.4248917" lon="11.3296167"><ele>32.0</ele><time>2026-05-01T12:26:09.092Z</time></trkpt><trkpt lat="45.4250317" lon="11.3299467"><ele>31.5</ele><time>2026-05-01T12:26:10.092Z</time></trkpt><trkpt lat="45.425175" lon="11.3302733"><ele>31.0</ele><time>2026-05-01T12:26:11.092Z</time></trkpt><trkpt lat="45.4253167" lon="11.3306033"><ele>30.0</ele><time>2026-05-01T12:26:12.092Z</time></trkpt><trkpt lat="45.4254583" lon="11.3309283"><ele>29.0</ele><time>2026-05-01T12:26:13.092Z</time></trkpt><trkpt lat="45.4256017" lon="11.3312517"><ele>31.5</ele><time>2026-05-01T12:26:14.092Z</time></trkpt><trkpt lat="45.4257433" lon="11.331585"><ele>34.0</ele><time>2026-05-01T12:26:15.092Z</time></trkpt><trkpt lat="45.4258833" lon="11.3319133"><ele>32.5</ele><time>2026-05-01T12:26:16.093Z</time></trkpt><trkpt lat="45.4260267" lon="11.3322467"><ele>31.0</ele><time>2026-05-01T12:26:17.093Z</time></trkpt><trkpt lat="45.4261717" lon="11.3325867"><ele>33.0</ele><time>2026-05-01T12:26:18.092Z</time></trkpt><trkpt lat="45.4263133" lon="11.3329233"><ele>35.0</ele><time>2026-05-01T12:26:19.093Z</time></trkpt><trkpt lat="45.4264567" lon="11.33326"><ele>35.0</ele><time>2026-05-01T12:26:20.092Z</time></trkpt><trkpt lat="45.4265967" lon="11.3335917"><ele>35.0</ele><time>2026-05-01T12:26:21.093Z</time></trkpt><trkpt lat="45.4267333" lon="11.33392"><ele>34.5</ele><time>2026-05-01T12:26:22.092Z</time></trkpt><trkpt lat="45.426875" lon="11.334255"><ele>34.0</ele><time>2026-05-01T12:26:23.093Z</time></trkpt><trkpt lat="45.427015" lon="11.3345817"><ele>34.5</ele><time>2026-05-01T12:26:24.093Z</time></trkpt><trkpt lat="45.4271533" lon="11.3349017"><ele>35.0</ele><time>2026-05-01T12:26:25.092Z</time></trkpt><trkpt lat="45.4272967" lon="11.3352183"><ele>35.0</ele><time>2026-05-01T12:26:26.093Z</time></trkpt><trkpt lat="45.4274333" lon="11.335535"><ele>35.0</ele><time>2026-05-01T12:26:27.093Z</time></trkpt><trkpt lat="45.4275717" lon="11.3358517"><ele>34.5</ele><time>2026-05-01T12:26:28.092Z</time></trkpt><trkpt lat="45.427715" lon="11.3361717"><ele>34.0</ele><time>2026-05-01T12:26:29.092Z</time></trkpt><trkpt lat="45.4278517" lon="11.3364933"><ele>34.0</ele><time>2026-05-01T12:26:30.093Z</time></trkpt><trkpt lat="45.4279867" lon="11.336815"><ele>34.0</ele><time>2026-05-01T12:26:31.093Z</time></trkpt><trkpt lat="45.4281217" lon="11.33713"><ele>34.0</ele><time>2026-05-01T12:26:32.093Z</time></trkpt><trkpt lat="45.42826" lon="11.3374517"><ele>34.0</ele><time>2026-05-01T12:26:33.092Z</time></trkpt><trkpt lat="45.4283967" lon="11.3377667"><ele>34.0</ele><time>2026-05-01T12:26:34.092Z</time></trkpt><trkpt lat="45.4285317" lon="11.3380867"><ele>34.0</ele><time>2026-05-01T12:26:35.093Z</time></trkpt><trkpt lat="45.4286667" lon="11.3384033"><ele>34.0</ele><time>2026-05-01T12:26:36.092Z</time></trkpt><trkpt lat="45.428805" lon="11.3387267"><ele>34.0</ele><time>2026-05-01T12:26:37.092Z</time></trkpt><trkpt lat="45.4289417" lon="11.3390417"><ele>34.5</ele><time>2026-05-01T12:26:38.092Z</time></trkpt><trkpt lat="45.429075" lon="11.339355"><ele>35.0</ele><time>2026-05-01T12:26:39.092Z</time></trkpt><trkpt lat="45.4292117" lon="11.3396667"><ele>35.5</ele><time>2026-05-01T12:26:40.093Z</time></trkpt><trkpt lat="45.4293483" lon="11.3399817"><ele>36.0</ele><time>2026-05-01T12:26:41.092Z</time></trkpt><trkpt lat="45.4294833" lon="11.3402967"><ele>36.5</ele><time>2026-05-01T12:26:42.093Z</time></trkpt><trkpt lat="45.42962" lon="11.3406167"><ele>37.0</ele><time>2026-05-01T12:26:43.092Z</time></trkpt><trkpt lat="45.4297533" lon="11.3409367"><ele>36.0</ele><time>2026-05-01T12:26:44.092Z</time></trkpt><trkpt lat="45.42989" lon="11.341255"><ele>35.0</ele><time>2026-05-01T12:26:45.092Z</time></trkpt><trkpt lat="45.4300267" lon="11.34157"><ele>34.5</ele><time>2026-05-01T12:26:46.092Z</time></trkpt><trkpt lat="45.4301617" lon="11.341895"><ele>34.0</ele><time>2026-05-01T12:26:47.093Z</time></trkpt><trkpt lat="45.4302933" lon="11.3422133"><ele>34.5</ele><time>2026-05-01T12:26:48.093Z</time></trkpt><trkpt lat="45.4304317" lon="11.3425267"><ele>35.0</ele><time>2026-05-01T12:26:49.093Z</time></trkpt><trkpt lat="45.430565" lon="11.3428417"><ele>35.5</ele><time>2026-05-01T12:26:50.093Z</time></trkpt><trkpt lat="45.4306967" lon="11.3431533"><ele>36.0</ele><time>2026-05-01T12:26:51.092Z</time></trkpt><trkpt lat="45.430835" lon="11.3434633"><ele>36.0</ele><time>2026-05-01T12:26:52.093Z</time></trkpt><trkpt lat="45.43097" lon="11.3437783"><ele>36.0</ele><time>2026-05-01T12:26:53.092Z</time></trkpt><trkpt lat="45.4311117" lon="11.3440933"><ele>35.0</ele><time>2026-05-01T12:26:54.093Z</time></trkpt><trkpt lat="45.4312483" lon="11.3444067"><ele>34.0</ele><time>2026-05-01T12:26:55.093Z</time></trkpt><trkpt lat="45.4313917" lon="11.344725"><ele>33.5</ele><time>2026-05-01T12:26:56.093Z</time></trkpt><trkpt lat="45.4315283" lon="11.3450467"><ele>33.0</ele><time>2026-05-01T12:26:57.093Z</time></trkpt><trkpt lat="45.431665" lon="11.3453683"><ele>35.0</ele><time>2026-05-01T12:26:58.092Z</time></trkpt><trkpt lat="45.4317967" lon="11.34569"><ele>37.0</ele><time>2026-05-01T12:26:59.093Z</time></trkpt><trkpt lat="45.4319367" lon="11.34601"><ele>37.0</ele><time>2026-05-01T12:27:00.092Z</time></trkpt><trkpt lat="45.4320683" lon="11.3463217"><ele>37.0</ele><time>2026-05-01T12:27:01.092Z</time></trkpt><trkpt lat="45.432205" lon="11.3466317"><ele>36.5</ele><time>2026-05-01T12:27:02.092Z</time></trkpt><trkpt lat="45.4323367" lon="11.3469417"><ele>36.0</ele><time>2026-05-01T12:27:03.093Z</time></trkpt><trkpt lat="45.43247" lon="11.3472533"><ele>35.0</ele><time>2026-05-01T12:27:04.092Z</time></trkpt><trkpt lat="45.432605" lon="11.347565"><ele>34.0</ele><time>2026-05-01T12:27:05.093Z</time></trkpt><trkpt lat="45.4327317" lon="11.3478717"><ele>35.0</ele><time>2026-05-01T12:27:06.092Z</time></trkpt><trkpt lat="45.4328667" lon="11.3481733"><ele>36.0</ele><time>2026-05-01T12:27:07.093Z</time></trkpt><trkpt lat="45.4329933" lon="11.34847"><ele>36.5</ele><time>2026-05-01T12:27:08.093Z</time></trkpt><trkpt lat="45.433125" lon="11.3487683"><ele>37.0</ele><time>2026-05-01T12:27:09.092Z</time></trkpt><trkpt lat="45.433255" lon="11.34907"><ele>37.5</ele><time>2026-05-01T12:27:10.092Z</time></trkpt><trkpt lat="45.4333917" lon="11.3493717"><ele>38.0</ele><time>2026-05-01T12:27:11.092Z</time></trkpt><trkpt lat="45.433525" lon="11.3496817"><ele>37.5</ele><time>2026-05-01T12:27:12.093Z</time></trkpt><trkpt lat="45.433655" lon="11.34999"><ele>37.0</ele><time>2026-05-01T12:27:13.093Z</time></trkpt><trkpt lat="45.433785" lon="11.3502933"><ele>37.0</ele><time>2026-05-01T12:27:14.092Z</time></trkpt><trkpt lat="45.4339217" lon="11.3506033"><ele>37.0</ele><time>2026-05-01T12:27:15.092Z</time></trkpt><trkpt lat="45.4340633" lon="11.3509117"><ele>37.0</ele><time>2026-05-01T12:27:16.093Z</time></trkpt><trkpt lat="45.4341983" lon="11.3512183"><ele>37.0</ele><time>2026-05-01T12:27:17.093Z</time></trkpt><trkpt lat="45.4343367" lon="11.3515317"><ele>36.5</ele><time>2026-05-01T12:27:18.092Z</time></trkpt><trkpt lat="45.4344783" lon="11.3518467"><ele>36.0</ele><time>2026-05-01T12:27:19.093Z</time></trkpt><trkpt lat="45.4346233" lon="11.3521617"><ele>37.5</ele><time>2026-05-01T12:27:20.093Z</time></trkpt><trkpt lat="45.43477" lon="11.3524817"><ele>39.0</ele><time>2026-05-01T12:27:21.092Z</time></trkpt><trkpt lat="45.434915" lon="11.3528033"><ele>37.5</ele><time>2026-05-01T12:27:22.093Z</time></trkpt><trkpt lat="45.4350567" lon="11.3531267"><ele>36.0</ele><time>2026-05-01T12:27:23.092Z</time></trkpt><trkpt lat="45.435195" lon="11.3534483"><ele>36.0</ele><time>2026-05-01T12:27:24.093Z</time></trkpt><trkpt lat="45.435325" lon="11.353775"><ele>36.0</ele><time>2026-05-01T12:27:25.092Z</time></trkpt><trkpt lat="45.43546" lon="11.3541"><ele>36.5</ele><time>2026-05-01T12:27:26.093Z</time></trkpt><trkpt lat="45.4355983" lon="11.3544233"><ele>37.0</ele><time>2026-05-01T12:27:27.093Z</time></trkpt><trkpt lat="45.435745" lon="11.3547433"><ele>38.5</ele><time>2026-05-01T12:27:28.092Z</time></trkpt><trkpt lat="45.4358817" lon="11.3550583"><ele>40.0</ele><time>2026-05-01T12:27:29.093Z</time></trkpt><trkpt lat="45.436005" lon="11.3553767"><ele>40.5</ele><time>2026-05-01T12:27:30.093Z</time></trkpt><trkpt lat="45.4361433" lon="11.3556933"><ele>41.0</ele><time>2026-05-01T12:27:31.092Z</time></trkpt><trkpt lat="45.4362767" lon="11.3560167"><ele>39.5</ele><time>2026-05-01T12:27:32.092Z</time></trkpt><trkpt lat="45.4364083" lon="11.3563517"><ele>38.0</ele><time>2026-05-01T12:27:33.092Z</time></trkpt><trkpt lat="45.4365517" lon="11.3566833"><ele>38.0</ele><time>2026-05-01T12:27:34.093Z</time></trkpt><trkpt lat="45.43669" lon="11.35701"><ele>38.0</ele><time>2026-05-01T12:27:35.092Z</time></trkpt><trkpt lat="45.4368233" lon="11.3573333"><ele>37.5</ele><time>2026-05-01T12:27:36.092Z</time></trkpt><trkpt lat="45.4369617" lon="11.3576567"><ele>37.0</ele><time>2026-05-01T12:27:37.092Z</time></trkpt><trkpt lat="45.4370983" lon="11.3579733"><ele>37.5</ele><time>2026-05-01T12:27:38.093Z</time></trkpt><trkpt lat="45.437235" lon="11.3582917"><ele>38.0</ele><time>2026-05-01T12:27:39.092Z</time></trkpt><trkpt lat="45.4373717" lon="11.3586067"><ele>38.0</ele><time>2026-05-01T12:27:40.092Z</time></trkpt><trkpt lat="45.4375067" lon="11.3589267"><ele>38.0</ele><time>2026-05-01T12:27:41.092Z</time></trkpt><trkpt lat="45.437645" lon="11.3592433"><ele>38.0</ele><time>2026-05-01T12:27:42.092Z</time></trkpt><trkpt lat="45.437775" lon="11.3595583"><ele>38.0</ele><time>2026-05-01T12:27:43.093Z</time></trkpt><trkpt lat="45.4379133" lon="11.3598783"><ele>38.0</ele><time>2026-05-01T12:27:44.092Z</time></trkpt><trkpt lat="45.43805" lon="11.36019"><ele>38.0</ele><time>2026-05-01T12:27:45.092Z</time></trkpt><trkpt lat="45.438185" lon="11.3604917"><ele>39.0</ele><time>2026-05-01T12:27:46.092Z</time></trkpt><trkpt lat="45.43832" lon="11.3608"><ele>40.0</ele><time>2026-05-01T12:27:47.092Z</time></trkpt><trkpt lat="45.438455" lon="11.3611183"><ele>38.5</ele><time>2026-05-01T12:27:48.092Z</time></trkpt><trkpt lat="45.4385917" lon="11.3614333"><ele>37.0</ele><time>2026-05-01T12:27:49.092Z</time></trkpt><trkpt lat="45.438725" lon="11.3617583"><ele>37.5</ele><time>2026-05-01T12:27:50.092Z</time></trkpt><trkpt lat="45.4388583" lon="11.3620783"><ele>38.0</ele><time>2026-05-01T12:27:51.093Z</time></trkpt><trkpt lat="45.4389917" lon="11.3624033"><ele>38.0</ele><time>2026-05-01T12:27:52.092Z</time></trkpt><trkpt lat="45.439125" lon="11.36272"><ele>38.0</ele><time>2026-05-01T12:27:53.092Z</time></trkpt><trkpt lat="45.439255" lon="11.3630467"><ele>38.0</ele><time>2026-05-01T12:27:54.092Z</time></trkpt><trkpt lat="45.43938" lon="11.36338"><ele>38.0</ele><time>2026-05-01T12:27:55.092Z</time></trkpt><trkpt lat="45.439505" lon="11.3637183"><ele>37.5</ele><time>2026-05-01T12:27:56.093Z</time></trkpt><trkpt lat="45.4396217" lon="11.3640617"><ele>37.0</ele><time>2026-05-01T12:27:57.093Z</time></trkpt><trkpt lat="45.4397333" lon="11.3644033"><ele>39.0</ele><time>2026-05-01T12:27:58.092Z</time></trkpt><trkpt lat="45.4398433" lon="11.3647417"><ele>41.0</ele><time>2026-05-01T12:27:59.093Z</time></trkpt><trkpt lat="45.4399517" lon="11.3650867"><ele>41.0</ele><time>2026-05-01T12:28:00.093Z</time></trkpt><trkpt lat="45.4400567" lon="11.3654417"><ele>41.0</ele><time>2026-05-01T12:28:01.092Z</time></trkpt><trkpt lat="45.44016" lon="11.365795"><ele>40.5</ele><time>2026-05-01T12:28:02.092Z</time></trkpt><trkpt lat="45.4402617" lon="11.3661583"><ele>40.0</ele><time>2026-05-01T12:28:03.092Z</time></trkpt><trkpt lat="45.440365" lon="11.3665283"><ele>39.5</ele><time>2026-05-01T12:28:04.092Z</time></trkpt><trkpt lat="45.4404633" lon="11.366895"><ele>39.0</ele><time>2026-05-01T12:28:05.092Z</time></trkpt><trkpt lat="45.4405533" lon="11.36725"><ele>41.0</ele><time>2026-05-01T12:28:06.093Z</time></trkpt><trkpt lat="45.440645" lon="11.3676017"><ele>43.0</ele><time>2026-05-01T12:28:07.093Z</time></trkpt><trkpt lat="45.44073" lon="11.36795"><ele>42.5</ele><time>2026-05-01T12:28:08.093Z</time></trkpt><trkpt lat="45.440815" lon="11.3682983"><ele>42.0</ele><time>2026-05-01T12:28:09.092Z</time></trkpt><trkpt lat="45.4409033" lon="11.3686383"><ele>41.5</ele><time>2026-05-01T12:28:10.092Z</time></trkpt><trkpt lat="45.44099" lon="11.368975"><ele>41.0</ele><time>2026-05-01T12:28:11.093Z</time></trkpt><trkpt lat="45.4410733" lon="11.369315"><ele>41.0</ele><time>2026-05-01T12:28:12.092Z</time></trkpt><trkpt lat="45.4411567" lon="11.3696433"><ele>41.0</ele><time>2026-05-01T12:28:13.092Z</time></trkpt><trkpt lat="45.44124" lon="11.36998"><ele>41.5</ele><time>2026-05-01T12:28:14.092Z</time></trkpt><trkpt lat="45.44131" lon="11.370325"><ele>42.0</ele><time>2026-05-01T12:28:15.092Z</time></trkpt><trkpt lat="45.4414083" lon="11.3706567"><ele>42.5</ele><time>2026-05-01T12:28:16.092Z</time></trkpt><trkpt lat="45.441495" lon="11.371"><ele>43.0</ele><time>2026-05-01T12:28:17.092Z</time></trkpt><trkpt lat="45.4415883" lon="11.37134"><ele>42.0</ele><time>2026-05-01T12:28:18.093Z</time></trkpt><trkpt lat="45.441685" lon="11.371675"><ele>41.0</ele><time>2026-05-01T12:28:19.093Z</time></trkpt><trkpt lat="45.4417883" lon="11.3720133"><ele>40.0</ele><time>2026-05-01T12:28:20.093Z</time></trkpt><trkpt lat="45.4418917" lon="11.3723533"><ele>39.0</ele><time>2026-05-01T12:28:21.092Z</time></trkpt><trkpt lat="45.4420067" lon="11.3726933"><ele>40.0</ele><time>2026-05-01T12:28:22.093Z</time></trkpt><trkpt lat="45.44212" lon="11.3730267"><ele>41.0</ele><time>2026-05-01T12:28:23.093Z</time></trkpt><trkpt lat="45.44224" lon="11.3733633"><ele>42.0</ele><time>2026-05-01T12:28:24.092Z</time></trkpt><trkpt lat="45.4423667" lon="11.3737"><ele>43.0</ele><time>2026-05-01T12:28:25.092Z</time></trkpt><trkpt lat="45.4424917" lon="11.374035"><ele>43.0</ele><time>2026-05-01T12:28:26.093Z</time></trkpt><trkpt lat="45.4426217" lon="11.374365"><ele>43.0</ele><time>2026-05-01T12:28:27.093Z</time></trkpt><trkpt lat="45.44276" lon="11.374695"><ele>43.0</ele><time>2026-05-01T12:28:28.092Z</time></trkpt><trkpt lat="45.4428933" lon="11.3750283"><ele>43.0</ele><time>2026-05-01T12:28:29.093Z</time></trkpt><trkpt lat="45.4430283" lon="11.3753533"><ele>42.5</ele><time>2026-05-01T12:28:30.092Z</time></trkpt><trkpt lat="45.44317" lon="11.3756817"><ele>42.0</ele><time>2026-05-01T12:28:31.092Z</time></trkpt><trkpt lat="45.4433183" lon="11.376005"><ele>42.0</ele><time>2026-05-01T12:28:32.092Z</time></trkpt><trkpt lat="45.4434717" lon="11.3763217"><ele>42.0</ele><time>2026-05-01T12:28:33.093Z</time></trkpt><trkpt lat="45.443625" lon="11.376635"><ele>43.0</ele><time>2026-05-01T12:28:34.092Z</time></trkpt><trkpt lat="45.4437867" lon="11.3769483"><ele>44.0</ele><time>2026-05-01T12:28:35.093Z</time></trkpt><trkpt lat="45.4439517" lon="11.377255"><ele>44.5</ele><time>2026-05-01T12:28:36.092Z</time></trkpt><trkpt lat="45.4441167" lon="11.3775567"><ele>45.0</ele><time>2026-05-01T12:28:37.092Z</time></trkpt><trkpt lat="45.4442833" lon="11.3778567"><ele>45.0</ele><time>2026-05-01T12:28:38.092Z</time></trkpt><trkpt lat="45.4444567" lon="11.3781517"><ele>45.0</ele><time>2026-05-01T12:28:39.092Z</time></trkpt><trkpt lat="45.4446267" lon="11.3784383"><ele>44.0</ele><time>2026-05-01T12:28:40.093Z</time></trkpt><trkpt lat="45.4447983" lon="11.3787217"><ele>43.0</ele><time>2026-05-01T12:28:41.092Z</time></trkpt><trkpt lat="45.4449667" lon="11.379005"><ele>43.0</ele><time>2026-05-01T12:28:42.092Z</time></trkpt><trkpt lat="45.4451433" lon="11.37928"><ele>43.0</ele><time>2026-05-01T12:28:43.092Z</time></trkpt><trkpt lat="45.4453267" lon="11.379555"><ele>44.0</ele><time>2026-05-01T12:28:44.092Z</time></trkpt><trkpt lat="45.44551" lon="11.3798267"><ele>45.0</ele><time>2026-05-01T12:28:45.092Z</time></trkpt><trkpt lat="45.4456983" lon="11.38009"><ele>45.0</ele><time>2026-05-01T12:28:46.092Z</time></trkpt><trkpt lat="45.4458917" lon="11.380345"><ele>45.0</ele><time>2026-05-01T12:28:47.093Z</time></trkpt><trkpt lat="45.4460933" lon="11.3806117"><ele>44.5</ele><time>2026-05-01T12:28:48.093Z</time></trkpt><trkpt lat="45.4462917" lon="11.380865"><ele>44.0</ele><time>2026-05-01T12:28:49.092Z</time></trkpt><trkpt lat="45.446495" lon="11.381125"><ele>45.0</ele><time>2026-05-01T12:28:50.092Z</time></trkpt><trkpt lat="45.44669" lon="11.381395"><ele>46.0</ele><time>2026-05-01T12:28:51.093Z</time></trkpt><trkpt lat="45.4468883" lon="11.3816517"><ele>46.0</ele><time>2026-05-01T12:28:52.093Z</time></trkpt><trkpt lat="45.44708" lon="11.38191"><ele>46.0</ele><time>2026-05-01T12:28:53.093Z</time></trkpt><trkpt lat="45.44727" lon="11.3821667"><ele>46.0</ele><time>2026-05-01T12:28:54.092Z</time></trkpt><trkpt lat="45.4474633" lon="11.3824283"><ele>46.0</ele><time>2026-05-01T12:28:55.092Z</time></trkpt><trkpt lat="45.44766" lon="11.3826833"><ele>46.0</ele><time>2026-05-01T12:28:56.093Z</time></trkpt><trkpt lat="45.447855" lon="11.3829483"><ele>46.0</ele><time>2026-05-01T12:28:57.093Z</time></trkpt><trkpt lat="45.4480567" lon="11.3832067"><ele>46.0</ele><time>2026-05-01T12:28:58.093Z</time></trkpt><trkpt lat="45.4482583" lon="11.383465"><ele>46.0</ele><time>2026-05-01T12:28:59.092Z</time></trkpt><trkpt lat="45.4484583" lon="11.3837283"><ele>45.5</ele><time>2026-05-01T12:29:00.092Z</time></trkpt><trkpt lat="45.4486617" lon="11.383995"><ele>45.0</ele><time>2026-05-01T12:29:01.093Z</time></trkpt><trkpt lat="45.4488633" lon="11.38426"><ele>44.5</ele><time>2026-05-01T12:29:02.092Z</time></trkpt><trkpt lat="45.4490683" lon="11.3845283"><ele>44.0</ele><time>2026-05-01T12:29:03.093Z</time></trkpt><trkpt lat="45.44927" lon="11.3848"><ele>44.0</ele><time>2026-05-01T12:29:04.092Z</time></trkpt><trkpt lat="45.4494733" lon="11.3850683"><ele>44.0</ele><time>2026-05-01T12:29:05.092Z</time></trkpt><trkpt lat="45.4496767" lon="11.38534"><ele>45.5</ele><time>2026-05-01T12:29:06.093Z</time></trkpt><trkpt lat="45.4498833" lon="11.3856083"><ele>47.0</ele><time>2026-05-01T12:29:07.092Z</time></trkpt><trkpt lat="45.4500883" lon="11.3858733"><ele>47.0</ele><time>2026-05-01T12:29:08.093Z</time></trkpt><trkpt lat="45.450295" lon="11.3861417"><ele>47.0</ele><time>2026-05-01T12:29:09.092Z</time></trkpt><trkpt lat="45.4504983" lon="11.3864083"><ele>47.0</ele><time>2026-05-01T12:29:10.092Z</time></trkpt><trkpt lat="45.4506983" lon="11.386665"><ele>47.0</ele><time>2026-05-01T12:29:11.093Z</time></trkpt><trkpt lat="45.4508967" lon="11.3869217"><ele>47.0</ele><time>2026-05-01T12:29:12.092Z</time></trkpt><trkpt lat="45.45109" lon="11.3871833"><ele>47.0</ele><time>2026-05-01T12:29:13.092Z</time></trkpt><trkpt lat="45.4512767" lon="11.3874467"><ele>47.0</ele><time>2026-05-01T12:29:14.092Z</time></trkpt><trkpt lat="45.4514583" lon="11.3877133"><ele>47.0</ele><time>2026-05-01T12:29:15.092Z</time></trkpt><trkpt lat="45.4516433" lon="11.3879833"><ele>47.5</ele><time>2026-05-01T12:29:16.093Z</time></trkpt><trkpt lat="45.4518283" lon="11.3882583"><ele>48.0</ele><time>2026-05-01T12:29:17.092Z</time></trkpt><trkpt lat="45.4520117" lon="11.3885483"><ele>48.5</ele><time>2026-05-01T12:29:18.092Z</time></trkpt><trkpt lat="45.45219" lon="11.3888417"><ele>49.0</ele><time>2026-05-01T12:29:19.092Z</time></trkpt><trkpt lat="45.4523717" lon="11.38913"><ele>49.0</ele><time>2026-05-01T12:29:20.093Z</time></trkpt><trkpt lat="45.4525417" lon="11.389445"><ele>49.0</ele><time>2026-05-01T12:29:21.093Z</time></trkpt><trkpt lat="45.4527217" lon="11.3897533"><ele>49.5</ele><time>2026-05-01T12:29:22.093Z</time></trkpt><trkpt lat="45.4529" lon="11.3900617"><ele>50.0</ele><time>2026-05-01T12:29:23.092Z</time></trkpt><trkpt lat="45.4530717" lon="11.39038"><ele>50.5</ele><time>2026-05-01T12:29:24.093Z</time></trkpt><trkpt lat="45.45323" lon="11.390695"><ele>51.0</ele><time>2026-05-01T12:29:25.093Z</time></trkpt><trkpt lat="45.4533833" lon="11.3910183"><ele>51.0</ele><time>2026-05-01T12:29:26.092Z</time></trkpt><trkpt lat="45.4535333" lon="11.39134"><ele>51.0</ele><time>2026-05-01T12:29:27.092Z</time></trkpt><trkpt lat="45.4536817" lon="11.3916583"><ele>51.5</ele><time>2026-05-01T12:29:28.092Z</time></trkpt><trkpt lat="45.4538217" lon="11.3919683"><ele>52.0</ele><time>2026-05-01T12:29:29.092Z</time></trkpt><trkpt lat="45.4539567" lon="11.39228"><ele>51.0</ele><time>2026-05-01T12:29:30.093Z</time></trkpt><trkpt lat="45.4540867" lon="11.3925967"><ele>50.0</ele><time>2026-05-01T12:29:31.092Z</time></trkpt><trkpt lat="45.4542167" lon="11.3929067"><ele>50.0</ele><time>2026-05-01T12:29:32.092Z</time></trkpt><trkpt lat="45.4543383" lon="11.3932"><ele>50.0</ele><time>2026-05-01T12:29:33.092Z</time></trkpt><trkpt lat="45.4544633" lon="11.3934967"><ele>50.0</ele><time>2026-05-01T12:29:34.092Z</time></trkpt><trkpt lat="45.454585" lon="11.3938017"><ele>50.0</ele><time>2026-05-01T12:29:35.092Z</time></trkpt><trkpt lat="45.4547117" lon="11.3941133"><ele>50.0</ele><time>2026-05-01T12:29:36.092Z</time></trkpt><trkpt lat="45.4548317" lon="11.394425"><ele>50.0</ele><time>2026-05-01T12:29:37.092Z</time></trkpt><trkpt lat="45.4549517" lon="11.3947383"><ele>49.5</ele><time>2026-05-01T12:29:38.093Z</time></trkpt><trkpt lat="45.45507" lon="11.39505"><ele>49.0</ele><time>2026-05-01T12:29:39.092Z</time></trkpt><trkpt lat="45.455195" lon="11.3953633"><ele>50.5</ele><time>2026-05-01T12:29:40.092Z</time></trkpt><trkpt lat="45.4553183" lon="11.3956717"><ele>52.0</ele><time>2026-05-01T12:29:41.092Z</time></trkpt><trkpt lat="45.45545" lon="11.39598"><ele>52.5</ele><time>2026-05-01T12:29:42.092Z</time></trkpt><trkpt lat="45.4555867" lon="11.3962767"><ele>53.0</ele><time>2026-05-01T12:29:43.093Z</time></trkpt><trkpt lat="45.4557217" lon="11.39657"><ele>53.5</ele><time>2026-05-01T12:29:44.092Z</time></trkpt><trkpt lat="45.4558617" lon="11.3968667"><ele>54.0</ele><time>2026-05-01T12:29:45.093Z</time></trkpt><trkpt lat="45.4560133" lon="11.39716"><ele>53.0</ele><time>2026-05-01T12:29:46.092Z</time></trkpt><trkpt lat="45.4561583" lon="11.397455"><ele>52.0</ele><time>2026-05-01T12:29:47.092Z</time></trkpt><trkpt lat="45.4563083" lon="11.3977467"><ele>52.5</ele><time>2026-05-01T12:29:48.093Z</time></trkpt><trkpt lat="45.45646" lon="11.3980367"><ele>53.0</ele><time>2026-05-01T12:29:49.092Z</time></trkpt><trkpt lat="45.456615" lon="11.3983267"><ele>53.0</ele><time>2026-05-01T12:29:50.092Z</time></trkpt><trkpt lat="45.4567783" lon="11.3986083"><ele>53.0</ele><time>2026-05-01T12:29:51.093Z</time></trkpt><trkpt lat="45.4569467" lon="11.3988867"><ele>53.5</ele><time>2026-05-01T12:29:52.092Z</time></trkpt><trkpt lat="45.4571133" lon="11.3991567"><ele>54.0</ele><time>2026-05-01T12:29:53.093Z</time></trkpt><trkpt lat="45.4572833" lon="11.399425"><ele>55.5</ele><time>2026-05-01T12:29:54.093Z</time></trkpt><trkpt lat="45.4574533" lon="11.399695"><ele>57.0</ele><time>2026-05-01T12:29:55.092Z</time></trkpt><trkpt lat="45.4576283" lon="11.39996"><ele>57.0</ele><time>2026-05-01T12:29:56.092Z</time></trkpt><trkpt lat="45.4578083" lon="11.4002217"><ele>57.0</ele><time>2026-05-01T12:29:57.092Z</time></trkpt><trkpt lat="45.4579933" lon="11.400485"><ele>58.0</ele><time>2026-05-01T12:29:58.092Z</time></trkpt><trkpt lat="45.4581833" lon="11.4007467"><ele>59.0</ele><time>2026-05-01T12:29:59.093Z</time></trkpt><trkpt lat="45.458375" lon="11.4010033"><ele>59.0</ele><time>2026-05-01T12:30:00.093Z</time></trkpt><trkpt lat="45.4585717" lon="11.40126"><ele>59.0</ele><time>2026-05-01T12:30:01.093Z</time></trkpt><trkpt lat="45.458775" lon="11.4015117"><ele>57.5</ele><time>2026-05-01T12:30:02.093Z</time></trkpt><trkpt lat="45.4589817" lon="11.4017667"><ele>56.0</ele><time>2026-05-01T12:30:03.093Z</time></trkpt><trkpt lat="45.4591883" lon="11.40202"><ele>55.0</ele><time>2026-05-01T12:30:04.093Z</time></trkpt><trkpt lat="45.4593883" lon="11.4022667"><ele>54.0</ele><time>2026-05-01T12:30:05.092Z</time></trkpt><trkpt lat="45.4595867" lon="11.4025017"><ele>55.0</ele><time>2026-05-01T12:30:06.093Z</time></trkpt><trkpt lat="45.45979" lon="11.4027417"><ele>56.0</ele><time>2026-05-01T12:30:07.092Z</time></trkpt><trkpt lat="45.4599933" lon="11.4029833"><ele>55.5</ele><time>2026-05-01T12:30:08.092Z</time></trkpt><trkpt lat="45.4602" lon="11.4032233"><ele>55.0</ele><time>2026-05-01T12:30:09.093Z</time></trkpt><trkpt lat="45.4604117" lon="11.40347"><ele>55.5</ele><time>2026-05-01T12:30:10.092Z</time></trkpt><trkpt lat="45.4606267" lon="11.4037167"><ele>56.0</ele><time>2026-05-01T12:30:11.092Z</time></trkpt><trkpt lat="45.4608417" lon="11.4039717"><ele>56.0</ele><time>2026-05-01T12:30:12.092Z</time></trkpt><trkpt lat="45.4610567" lon="11.404225"><ele>56.0</ele><time>2026-05-01T12:30:13.093Z</time></trkpt><trkpt lat="45.4612667" lon="11.4044733"><ele>55.0</ele><time>2026-05-01T12:30:14.092Z</time></trkpt><trkpt lat="45.4614667" lon="11.4047083"><ele>54.0</ele><time>2026-05-01T12:30:15.092Z</time></trkpt><trkpt lat="45.4616533" lon="11.4049417"><ele>54.0</ele><time>2026-05-01T12:30:16.093Z</time></trkpt><trkpt lat="45.461845" lon="11.4051717"><ele>54.0</ele><time>2026-05-01T12:30:17.092Z</time></trkpt><trkpt lat="45.4620367" lon="11.4054033"><ele>54.0</ele><time>2026-05-01T12:30:18.093Z</time></trkpt><trkpt lat="45.4622367" lon="11.4056283"><ele>54.0</ele><time>2026-05-01T12:30:19.092Z</time></trkpt><trkpt lat="45.4624367" lon="11.4058617"><ele>54.0</ele><time>2026-05-01T12:30:20.092Z</time></trkpt><trkpt lat="45.4626367" lon="11.406095"><ele>54.0</ele><time>2026-05-01T12:30:21.092Z</time></trkpt><trkpt lat="45.4628333" lon="11.4063367"><ele>54.0</ele><time>2026-05-01T12:30:22.093Z</time></trkpt><trkpt lat="45.463035" lon="11.4065917"><ele>54.0</ele><time>2026-05-01T12:30:23.092Z</time></trkpt><trkpt lat="45.4632333" lon="11.406855"><ele>54.0</ele><time>2026-05-01T12:30:24.093Z</time></trkpt><trkpt lat="45.4634317" lon="11.40712"><ele>54.0</ele><time>2026-05-01T12:30:25.093Z</time></trkpt><trkpt lat="45.4636217" lon="11.407395"><ele>53.0</ele><time>2026-05-01T12:30:26.092Z</time></trkpt><trkpt lat="45.4638133" lon="11.407675"><ele>52.0</ele><time>2026-05-01T12:30:27.093Z</time></trkpt><trkpt lat="45.464005" lon="11.4079567"><ele>52.0</ele><time>2026-05-01T12:30:28.092Z</time></trkpt><trkpt lat="45.4641967" lon="11.4082367"><ele>52.0</ele><time>2026-05-01T12:30:29.093Z</time></trkpt><trkpt lat="45.464385" lon="11.4085183"><ele>52.0</ele><time>2026-05-01T12:30:30.092Z</time></trkpt><trkpt lat="45.4645767" lon="11.4087917"><ele>52.0</ele><time>2026-05-01T12:30:31.092Z</time></trkpt><trkpt lat="45.4647667" lon="11.4090683"><ele>51.0</ele><time>2026-05-01T12:30:32.092Z</time></trkpt><trkpt lat="45.4649533" lon="11.40935"><ele>50.0</ele><time>2026-05-01T12:30:33.092Z</time></trkpt><trkpt lat="45.4651483" lon="11.409625"><ele>50.0</ele><time>2026-05-01T12:30:34.092Z</time></trkpt><trkpt lat="45.4653383" lon="11.4099083"><ele>50.0</ele><time>2026-05-01T12:30:35.093Z</time></trkpt><trkpt lat="45.4655233" lon="11.4101833"><ele>50.5</ele><time>2026-05-01T12:30:36.093Z</time></trkpt><trkpt lat="45.4657033" lon="11.4104567"><ele>51.0</ele><time>2026-05-01T12:30:37.092Z</time></trkpt><trkpt lat="45.46588" lon="11.410725"><ele>51.0</ele><time>2026-05-01T12:30:38.093Z</time></trkpt><trkpt lat="45.4660583" lon="11.4109833"><ele>51.0</ele><time>2026-05-01T12:30:39.093Z</time></trkpt><trkpt lat="45.466235" lon="11.411245"><ele>52.0</ele><time>2026-05-01T12:30:40.092Z</time></trkpt><trkpt lat="45.4664167" lon="11.4115017"><ele>53.0</ele><time>2026-05-01T12:30:41.093Z</time></trkpt><trkpt lat="45.4665933" lon="11.41176"><ele>53.0</ele><time>2026-05-01T12:30:42.093Z</time></trkpt><trkpt lat="45.46677" lon="11.4120217"><ele>53.0</ele><time>2026-05-01T12:30:43.093Z</time></trkpt><trkpt lat="45.4669483" lon="11.4122817"><ele>51.0</ele><time>2026-05-01T12:30:44.093Z</time></trkpt><trkpt lat="45.46713" lon="11.41254"><ele>49.0</ele><time>2026-05-01T12:30:45.093Z</time></trkpt><trkpt lat="45.4673033" lon="11.4128033"><ele>50.0</ele><time>2026-05-01T12:30:46.092Z</time></trkpt><trkpt lat="45.46748" lon="11.4130633"><ele>51.0</ele><time>2026-05-01T12:30:47.092Z</time></trkpt><trkpt lat="45.4676517" lon="11.41332"><ele>51.0</ele><time>2026-05-01T12:30:48.093Z</time></trkpt><trkpt lat="45.4678283" lon="11.4135783"><ele>51.0</ele><time>2026-05-01T12:30:49.092Z</time></trkpt><trkpt lat="45.468005" lon="11.4138383"><ele>49.5</ele><time>2026-05-01T12:30:50.093Z</time></trkpt><trkpt lat="45.46818" lon="11.4141"><ele>48.0</ele><time>2026-05-01T12:30:51.092Z</time></trkpt><trkpt lat="45.46836" lon="11.4143633"><ele>48.0</ele><time>2026-05-01T12:30:52.092Z</time></trkpt><trkpt lat="45.4685433" lon="11.4146233"><ele>48.0</ele><time>2026-05-01T12:30:53.093Z</time></trkpt><trkpt lat="45.46872" lon="11.414885"><ele>48.0</ele><time>2026-05-01T12:30:54.092Z</time></trkpt><trkpt lat="45.4688983" lon="11.4151367"><ele>48.0</ele><time>2026-05-01T12:30:55.093Z</time></trkpt><trkpt lat="45.4690733" lon="11.4153867"><ele>49.5</ele><time>2026-05-01T12:30:56.093Z</time></trkpt><trkpt lat="45.4692467" lon="11.4156467"><ele>51.0</ele><time>2026-05-01T12:30:57.092Z</time></trkpt><trkpt lat="45.46942" lon="11.4159017"><ele>51.0</ele><time>2026-05-01T12:30:58.093Z</time></trkpt><trkpt lat="45.4695917" lon="11.4161567"><ele>51.0</ele><time>2026-05-01T12:30:59.093Z</time></trkpt><trkpt lat="45.4697617" lon="11.4164133"><ele>51.0</ele><time>2026-05-01T12:31:00.093Z</time></trkpt><trkpt lat="45.4699317" lon="11.41667"><ele>51.0</ele><time>2026-05-01T12:31:01.092Z</time></trkpt><trkpt lat="45.4700983" lon="11.4169317"><ele>50.5</ele><time>2026-05-01T12:31:02.093Z</time></trkpt><trkpt lat="45.47027" lon="11.41719"><ele>50.0</ele><time>2026-05-01T12:31:03.093Z</time></trkpt><trkpt lat="45.4704433" lon="11.417455"><ele>51.0</ele><time>2026-05-01T12:31:04.092Z</time></trkpt><trkpt lat="45.4706217" lon="11.4177233"><ele>52.0</ele><time>2026-05-01T12:31:05.093Z</time></trkpt><trkpt lat="45.4707983" lon="11.4180017"><ele>52.5</ele><time>2026-05-01T12:31:06.093Z</time></trkpt><trkpt lat="45.4709733" lon="11.4182933"><ele>53.0</ele><time>2026-05-01T12:31:07.093Z</time></trkpt><trkpt lat="45.471155" lon="11.41859"><ele>54.5</ele><time>2026-05-01T12:31:08.092Z</time></trkpt><trkpt lat="45.4713383" lon="11.4188733"><ele>56.0</ele><time>2026-05-01T12:31:09.092Z</time></trkpt><trkpt lat="45.4715217" lon="11.4191633"><ele>56.0</ele><time>2026-05-01T12:31:10.092Z</time></trkpt><trkpt lat="45.4717017" lon="11.4194583"><ele>56.0</ele><time>2026-05-01T12:31:11.092Z</time></trkpt><trkpt lat="45.4718833" lon="11.41976"><ele>55.5</ele><time>2026-05-01T12:31:12.093Z</time></trkpt><trkpt lat="45.47206" lon="11.420065"><ele>55.0</ele><time>2026-05-01T12:31:13.093Z</time></trkpt><trkpt lat="45.4722383" lon="11.42037"><ele>55.5</ele><time>2026-05-01T12:31:14.092Z</time></trkpt><trkpt lat="45.4724167" lon="11.420675"><ele>56.0</ele><time>2026-05-01T12:31:15.092Z</time></trkpt><trkpt lat="45.4725967" lon="11.42098"><ele>56.0</ele><time>2026-05-01T12:31:16.093Z</time></trkpt><trkpt lat="45.4727767" lon="11.4212783"><ele>56.0</ele><time>2026-05-01T12:31:17.093Z</time></trkpt><trkpt lat="45.47296" lon="11.421575"><ele>56.0</ele><time>2026-05-01T12:31:18.093Z</time></trkpt><trkpt lat="45.4731517" lon="11.4218617"><ele>56.0</ele><time>2026-05-01T12:31:19.093Z</time></trkpt><trkpt lat="45.4733367" lon="11.4221567"><ele>53.0</ele><time>2026-05-01T12:31:20.093Z</time></trkpt><trkpt lat="45.4735233" lon="11.42245"><ele>50.0</ele><time>2026-05-01T12:31:21.093Z</time></trkpt><trkpt lat="45.4737067" lon="11.422755"><ele>51.5</ele><time>2026-05-01T12:31:22.092Z</time></trkpt><trkpt lat="45.473895" lon="11.4230617"><ele>53.0</ele><time>2026-05-01T12:31:23.092Z</time></trkpt><trkpt lat="45.474085" lon="11.4233683"><ele>53.0</ele><time>2026-05-01T12:31:24.092Z</time></trkpt><trkpt lat="45.4742767" lon="11.4236717"><ele>53.0</ele><time>2026-05-01T12:31:25.092Z</time></trkpt><trkpt lat="45.4744683" lon="11.4239717"><ele>53.0</ele><time>2026-05-01T12:31:26.092Z</time></trkpt><trkpt lat="45.4746683" lon="11.424275"><ele>53.0</ele><time>2026-05-01T12:31:27.092Z</time></trkpt><trkpt lat="45.474875" lon="11.424575"><ele>53.0</ele><time>2026-05-01T12:31:28.093Z</time></trkpt><trkpt lat="45.4750817" lon="11.4248717"><ele>53.0</ele><time>2026-05-01T12:31:29.092Z</time></trkpt><trkpt lat="45.4752883" lon="11.4251717"><ele>53.0</ele><time>2026-05-01T12:31:30.092Z</time></trkpt><trkpt lat="45.4755033" lon="11.4254617"><ele>53.0</ele><time>2026-05-01T12:31:31.092Z</time></trkpt><trkpt lat="45.475725" lon="11.4257467"><ele>55.5</ele><time>2026-05-01T12:31:32.092Z</time></trkpt><trkpt lat="45.4759667" lon="11.4260067"><ele>58.0</ele><time>2026-05-01T12:31:33.093Z</time></trkpt><trkpt lat="45.4762033" lon="11.4262733"><ele>57.5</ele><time>2026-05-01T12:31:34.092Z</time></trkpt><trkpt lat="45.4764383" lon="11.42654"><ele>57.0</ele><time>2026-05-01T12:31:35.092Z</time></trkpt><trkpt lat="45.476675" lon="11.4268017"><ele>57.0</ele><time>2026-05-01T12:31:36.093Z</time></trkpt><trkpt lat="45.47691" lon="11.4270583"><ele>57.0</ele><time>2026-05-01T12:31:37.093Z</time></trkpt><trkpt lat="45.477135" lon="11.4273183"><ele>54.0</ele><time>2026-05-01T12:31:38.092Z</time></trkpt><trkpt lat="45.477365" lon="11.4275833"><ele>51.0</ele><time>2026-05-01T12:31:39.092Z</time></trkpt><trkpt lat="45.4775967" lon="11.4278433"><ele>51.0</ele><time>2026-05-01T12:31:40.092Z</time></trkpt><trkpt lat="45.4778317" lon="11.4281083"><ele>51.0</ele><time>2026-05-01T12:31:41.092Z</time></trkpt><trkpt lat="45.4780683" lon="11.4283717"><ele>51.0</ele><time>2026-05-01T12:31:42.093Z</time></trkpt><trkpt lat="45.4783033" lon="11.4286333"><ele>51.0</ele><time>2026-05-01T12:31:43.092Z</time></trkpt><trkpt lat="45.47854" lon="11.4289067"><ele>51.0</ele><time>2026-05-01T12:31:44.093Z</time></trkpt><trkpt lat="45.4787767" lon="11.429175"><ele>51.0</ele><time>2026-05-01T12:31:45.092Z</time></trkpt><trkpt lat="45.4790183" lon="11.42944"><ele>50.0</ele><time>2026-05-01T12:31:46.093Z</time></trkpt><trkpt lat="45.4792617" lon="11.429715"><ele>49.0</ele><time>2026-05-01T12:31:47.092Z</time></trkpt><trkpt lat="45.4795" lon="11.4299783"><ele>49.5</ele><time>2026-05-01T12:31:48.092Z</time></trkpt><trkpt lat="45.4797417" lon="11.430245"><ele>50.0</ele><time>2026-05-01T12:31:49.092Z</time></trkpt><trkpt lat="45.4799833" lon="11.430515"><ele>49.0</ele><time>2026-05-01T12:31:50.093Z</time></trkpt><trkpt lat="45.48023" lon="11.43078"><ele>48.0</ele><time>2026-05-01T12:31:51.093Z</time></trkpt><trkpt lat="45.4804717" lon="11.4310483"><ele>48.5</ele><time>2026-05-01T12:31:52.093Z</time></trkpt><trkpt lat="45.48071" lon="11.4313167"><ele>49.0</ele><time>2026-05-01T12:31:53.092Z</time></trkpt><trkpt lat="45.4809433" lon="11.431585"><ele>49.0</ele><time>2026-05-01T12:31:54.092Z</time></trkpt><trkpt lat="45.4811783" lon="11.4318567"><ele>49.0</ele><time>2026-05-01T12:31:55.092Z</time></trkpt><trkpt lat="45.4814117" lon="11.432125"><ele>49.5</ele><time>2026-05-01T12:31:56.093Z</time></trkpt><trkpt lat="45.4816517" lon="11.4323917"><ele>50.0</ele><time>2026-05-01T12:31:57.093Z</time></trkpt><trkpt lat="45.4818917" lon="11.4326683"><ele>50.5</ele><time>2026-05-01T12:31:58.092Z</time></trkpt><trkpt lat="45.48213" lon="11.4329317"><ele>51.0</ele><time>2026-05-01T12:31:59.093Z</time></trkpt><trkpt lat="45.482365" lon="11.4332017"><ele>51.0</ele><time>2026-05-01T12:32:00.093Z</time></trkpt><trkpt lat="45.4825967" lon="11.4334583"><ele>51.0</ele><time>2026-05-01T12:32:01.092Z</time></trkpt><trkpt lat="45.4828233" lon="11.4337183"><ele>51.0</ele><time>2026-05-01T12:32:02.092Z</time></trkpt><trkpt lat="45.4830583" lon="11.4339783"><ele>51.0</ele><time>2026-05-01T12:32:03.093Z</time></trkpt><trkpt lat="45.4832883" lon="11.4342417"><ele>51.0</ele><time>2026-05-01T12:32:04.092Z</time></trkpt><trkpt lat="45.4835167" lon="11.4345033"><ele>51.0</ele><time>2026-05-01T12:32:05.093Z</time></trkpt><trkpt lat="45.4837467" lon="11.4347633"><ele>52.0</ele><time>2026-05-01T12:32:06.093Z</time></trkpt><trkpt lat="45.4839717" lon="11.4350183"><ele>53.0</ele><time>2026-05-01T12:32:07.092Z</time></trkpt><trkpt lat="45.4842033" lon="11.4352767"><ele>52.5</ele><time>2026-05-01T12:32:08.092Z</time></trkpt><trkpt lat="45.4844333" lon="11.4355367"><ele>52.0</ele><time>2026-05-01T12:32:09.092Z</time></trkpt><trkpt lat="45.4846617" lon="11.435795"><ele>51.5</ele><time>2026-05-01T12:32:10.092Z</time></trkpt><trkpt lat="45.4848967" lon="11.436055"><ele>51.0</ele><time>2026-05-01T12:32:11.093Z</time></trkpt><trkpt lat="45.485125" lon="11.43631"><ele>51.5</ele><time>2026-05-01T12:32:12.093Z</time></trkpt><trkpt lat="45.4853583" lon="11.4365633"><ele>52.0</ele><time>2026-05-01T12:32:13.093Z</time></trkpt><trkpt lat="45.4855883" lon="11.4368233"><ele>52.0</ele><time>2026-05-01T12:32:14.093Z</time></trkpt><trkpt lat="45.485815" lon="11.4370783"><ele>52.0</ele><time>2026-05-01T12:32:15.092Z</time></trkpt><trkpt lat="45.486045" lon="11.4373333"><ele>52.5</ele><time>2026-05-01T12:32:16.092Z</time></trkpt><trkpt lat="45.486275" lon="11.4375933"><ele>53.0</ele><time>2026-05-01T12:32:17.092Z</time></trkpt><trkpt lat="45.486505" lon="11.43786"><ele>52.5</ele><time>2026-05-01T12:32:18.091Z</time></trkpt><trkpt lat="45.4867383" lon="11.4381183"><ele>52.0</ele><time>2026-05-01T12:32:19.092Z</time></trkpt><trkpt lat="45.4869567" lon="11.4383817"><ele>52.0</ele><time>2026-05-01T12:32:20.091Z</time></trkpt><trkpt lat="45.4872" lon="11.4386483"><ele>52.0</ele><time>2026-05-01T12:32:21.091Z</time></trkpt><trkpt lat="45.4874433" lon="11.43891"><ele>52.0</ele><time>2026-05-01T12:32:22.092Z</time></trkpt><trkpt lat="45.4876867" lon="11.43917"><ele>52.0</ele><time>2026-05-01T12:32:23.092Z</time></trkpt><trkpt lat="45.4879267" lon="11.4394317"><ele>52.0</ele><time>2026-05-01T12:32:24.091Z</time></trkpt><trkpt lat="45.4881633" lon="11.4396883"><ele>52.0</ele><time>2026-05-01T12:32:25.092Z</time></trkpt><trkpt lat="45.4883933" lon="11.439955"><ele>52.0</ele><time>2026-05-01T12:32:26.092Z</time></trkpt><trkpt lat="45.488615" lon="11.4402167"><ele>52.0</ele><time>2026-05-01T12:32:27.092Z</time></trkpt><trkpt lat="45.4888383" lon="11.440475"><ele>52.5</ele><time>2026-05-01T12:32:28.092Z</time></trkpt><trkpt lat="45.48906" lon="11.44073"><ele>53.0</ele><time>2026-05-01T12:32:29.092Z</time></trkpt><trkpt lat="45.489285" lon="11.4409833"><ele>53.0</ele><time>2026-05-01T12:32:30.092Z</time></trkpt><trkpt lat="45.48951" lon="11.4412367"><ele>53.0</ele><time>2026-05-01T12:32:31.092Z</time></trkpt><trkpt lat="45.48973" lon="11.4414917"><ele>54.5</ele><time>2026-05-01T12:32:32.091Z</time></trkpt><trkpt lat="45.489955" lon="11.4417383"><ele>56.0</ele><time>2026-05-01T12:32:33.092Z</time></trkpt><trkpt lat="45.4901817" lon="11.4419933"><ele>56.0</ele><time>2026-05-01T12:32:34.091Z</time></trkpt><trkpt lat="45.490415" lon="11.4422483"><ele>56.0</ele><time>2026-05-01T12:32:35.091Z</time></trkpt><trkpt lat="45.490645" lon="11.44251"><ele>55.0</ele><time>2026-05-01T12:32:36.092Z</time></trkpt><trkpt lat="45.4908767" lon="11.442775"><ele>54.0</ele><time>2026-05-01T12:32:37.092Z</time></trkpt><trkpt lat="45.4911133" lon="11.44304"><ele>53.0</ele><time>2026-05-01T12:32:38.092Z</time></trkpt><trkpt lat="45.491355" lon="11.4433033"><ele>52.0</ele><time>2026-05-01T12:32:39.091Z</time></trkpt><trkpt lat="45.491595" lon="11.4435683"><ele>53.5</ele><time>2026-05-01T12:32:40.092Z</time></trkpt><trkpt lat="45.4918333" lon="11.4438433"><ele>55.0</ele><time>2026-05-01T12:32:41.092Z</time></trkpt><trkpt lat="45.492075" lon="11.4441183"><ele>54.5</ele><time>2026-05-01T12:32:42.092Z</time></trkpt><trkpt lat="45.4923217" lon="11.4443967"><ele>54.0</ele><time>2026-05-01T12:32:43.091Z</time></trkpt><trkpt lat="45.4925617" lon="11.4446733"><ele>53.5</ele><time>2026-05-01T12:32:44.092Z</time></trkpt><trkpt lat="45.4927967" lon="11.4449433"><ele>53.0</ele><time>2026-05-01T12:32:45.091Z</time></trkpt><trkpt lat="45.4930383" lon="11.44522"><ele>53.5</ele><time>2026-05-01T12:32:46.092Z</time></trkpt><trkpt lat="45.4932767" lon="11.4454833"><ele>54.0</ele><time>2026-05-01T12:32:47.091Z</time></trkpt><trkpt lat="45.4935117" lon="11.44574"><ele>54.0</ele><time>2026-05-01T12:32:48.091Z</time></trkpt><trkpt lat="45.493745" lon="11.4459983"><ele>54.0</ele><time>2026-05-01T12:32:49.091Z</time></trkpt><trkpt lat="45.49398" lon="11.4462567"><ele>54.0</ele><time>2026-05-01T12:32:50.091Z</time></trkpt><trkpt lat="45.4942117" lon="11.44652"><ele>54.0</ele><time>2026-05-01T12:32:51.092Z</time></trkpt><trkpt lat="45.494445" lon="11.446785"><ele>54.0</ele><time>2026-05-01T12:32:52.092Z</time></trkpt><trkpt lat="45.4946783" lon="11.4470517"><ele>54.0</ele><time>2026-05-01T12:32:53.091Z</time></trkpt><trkpt lat="45.49491" lon="11.4473267"><ele>54.0</ele><time>2026-05-01T12:32:54.092Z</time></trkpt><trkpt lat="45.495145" lon="11.4475883"><ele>54.0</ele><time>2026-05-01T12:32:55.091Z</time></trkpt><trkpt lat="45.4953833" lon="11.447855"><ele>54.0</ele><time>2026-05-01T12:32:56.092Z</time></trkpt><trkpt lat="45.4956267" lon="11.4481217"><ele>54.0</ele><time>2026-05-01T12:32:57.092Z</time></trkpt><trkpt lat="45.495865" lon="11.44839"><ele>54.0</ele><time>2026-05-01T12:32:58.092Z</time></trkpt><trkpt lat="45.4961033" lon="11.4486583"><ele>54.0</ele><time>2026-05-01T12:32:59.091Z</time></trkpt><trkpt lat="45.4963433" lon="11.44893"><ele>54.5</ele><time>2026-05-01T12:33:00.092Z</time></trkpt><trkpt lat="45.4965833" lon="11.4491983"><ele>55.0</ele><time>2026-05-01T12:33:01.091Z</time></trkpt><trkpt lat="45.4968217" lon="11.4494617"><ele>56.0</ele><time>2026-05-01T12:33:02.092Z</time></trkpt><trkpt lat="45.4970517" lon="11.4497333"><ele>57.0</ele><time>2026-05-01T12:33:03.092Z</time></trkpt><trkpt lat="45.49729" lon="11.4500033"><ele>55.5</ele><time>2026-05-01T12:33:04.092Z</time></trkpt><trkpt lat="45.4975233" lon="11.4502667"><ele>54.0</ele><time>2026-05-01T12:33:05.091Z</time></trkpt><trkpt lat="45.4977617" lon="11.4505333"><ele>52.5</ele><time>2026-05-01T12:33:06.091Z</time></trkpt><trkpt lat="45.498" lon="11.4508017"><ele>51.0</ele><time>2026-05-01T12:33:07.091Z</time></trkpt><trkpt lat="45.49824" lon="11.4510667"><ele>51.5</ele><time>2026-05-01T12:33:08.091Z</time></trkpt><trkpt lat="45.49847" lon="11.4513417"><ele>52.0</ele><time>2026-05-01T12:33:09.091Z</time></trkpt><trkpt lat="45.4987033" lon="11.451605"><ele>51.0</ele><time>2026-05-01T12:33:10.091Z</time></trkpt><trkpt lat="45.498935" lon="11.45187"><ele>50.0</ele><time>2026-05-01T12:33:11.091Z</time></trkpt><trkpt lat="45.4991617" lon="11.4521233"><ele>50.0</ele><time>2026-05-01T12:33:12.092Z</time></trkpt><trkpt lat="45.49939" lon="11.4523767"><ele>50.0</ele><time>2026-05-01T12:33:13.091Z</time></trkpt><trkpt lat="45.4996217" lon="11.452635"><ele>50.0</ele><time>2026-05-01T12:33:14.091Z</time></trkpt><trkpt lat="45.499855" lon="11.45289"><ele>50.0</ele><time>2026-05-01T12:33:15.092Z</time></trkpt><trkpt lat="45.5000883" lon="11.4531633"><ele>50.5</ele><time>2026-05-01T12:33:16.091Z</time></trkpt><trkpt lat="45.5003133" lon="11.4534333"><ele>51.0</ele><time>2026-05-01T12:33:17.091Z</time></trkpt><trkpt lat="45.50054" lon="11.45372"><ele>52.5</ele><time>2026-05-01T12:33:18.091Z</time></trkpt><trkpt lat="45.5007617" lon="11.4540083"><ele>54.0</ele><time>2026-05-01T12:33:19.091Z</time></trkpt><trkpt lat="45.5009833" lon="11.4543017"><ele>54.0</ele><time>2026-05-01T12:33:20.091Z</time></trkpt><trkpt lat="45.501195" lon="11.454605"><ele>54.0</ele><time>2026-05-01T12:33:21.092Z</time></trkpt><trkpt lat="45.501405" lon="11.454905"><ele>54.5</ele><time>2026-05-01T12:33:22.091Z</time></trkpt><trkpt lat="45.5016117" lon="11.4552183"><ele>55.0</ele><time>2026-05-01T12:33:23.092Z</time></trkpt><trkpt lat="45.5018183" lon="11.4555383"><ele>55.0</ele><time>2026-05-01T12:33:24.091Z</time></trkpt><trkpt lat="45.5020217" lon="11.4558633"><ele>55.0</ele><time>2026-05-01T12:33:25.092Z</time></trkpt><trkpt lat="45.5022233" lon="11.4561967"><ele>52.5</ele><time>2026-05-01T12:33:26.092Z</time></trkpt><trkpt lat="45.5024133" lon="11.4565383"><ele>50.0</ele><time>2026-05-01T12:33:27.091Z</time></trkpt><trkpt lat="45.5026033" lon="11.4568817"><ele>48.5</ele><time>2026-05-01T12:33:28.091Z</time></trkpt><trkpt lat="45.5027883" lon="11.4572367"><ele>47.0</ele><time>2026-05-01T12:33:29.091Z</time></trkpt><trkpt lat="45.5029683" lon="11.4576017"><ele>49.0</ele><time>2026-05-01T12:33:30.092Z</time></trkpt><trkpt lat="45.5031433" lon="11.4579767"><ele>51.0</ele><time>2026-05-01T12:33:31.091Z</time></trkpt><trkpt lat="45.50331" lon="11.4583517"><ele>51.0</ele><time>2026-05-01T12:33:32.092Z</time></trkpt><trkpt lat="45.5034633" lon="11.4587233"><ele>51.0</ele><time>2026-05-01T12:33:33.092Z</time></trkpt><trkpt lat="45.50361" lon="11.4590917"><ele>51.0</ele><time>2026-05-01T12:33:34.091Z</time></trkpt><trkpt lat="45.5037517" lon="11.4594583"><ele>51.0</ele><time>2026-05-01T12:33:35.091Z</time></trkpt><trkpt lat="45.5038983" lon="11.4598283"><ele>51.0</ele><time>2026-05-01T12:33:36.091Z</time></trkpt><trkpt lat="45.5040367" lon="11.4601983"><ele>51.0</ele><time>2026-05-01T12:33:37.091Z</time></trkpt><trkpt lat="45.5041883" lon="11.460575"><ele>52.5</ele><time>2026-05-01T12:33:38.092Z</time></trkpt><trkpt lat="45.5043267" lon="11.46095"><ele>54.0</ele><time>2026-05-01T12:33:39.092Z</time></trkpt><trkpt lat="45.5044633" lon="11.4613283"><ele>49.5</ele><time>2026-05-01T12:33:40.091Z</time></trkpt><trkpt lat="45.5045933" lon="11.4617083"><ele>45.0</ele><time>2026-05-01T12:33:41.091Z</time></trkpt><trkpt lat="45.50471" lon="11.462095"><ele>45.5</ele><time>2026-05-01T12:33:42.092Z</time></trkpt><trkpt lat="45.5048217" lon="11.4624883"><ele>46.0</ele><time>2026-05-01T12:33:43.092Z</time></trkpt><trkpt lat="45.5049367" lon="11.4628867"><ele>46.0</ele><time>2026-05-01T12:33:44.091Z</time></trkpt><trkpt lat="45.5050467" lon="11.463285"><ele>46.0</ele><time>2026-05-01T12:33:45.091Z</time></trkpt><trkpt lat="45.5051567" lon="11.4636867"><ele>44.5</ele><time>2026-05-01T12:33:46.091Z</time></trkpt><trkpt lat="45.5052583" lon="11.46409"><ele>43.0</ele><time>2026-05-01T12:33:47.091Z</time></trkpt><trkpt lat="45.5053567" lon="11.46449"><ele>43.5</ele><time>2026-05-01T12:33:48.092Z</time></trkpt><trkpt lat="45.5054483" lon="11.4648883"><ele>44.0</ele><time>2026-05-01T12:33:49.091Z</time></trkpt><trkpt lat="45.505535" lon="11.465285"><ele>44.0</ele><time>2026-05-01T12:33:50.091Z</time></trkpt><trkpt lat="45.5056233" lon="11.4656767"><ele>44.0</ele><time>2026-05-01T12:33:51.092Z</time></trkpt><trkpt lat="45.50571" lon="11.46607"><ele>43.5</ele><time>2026-05-01T12:33:52.091Z</time></trkpt><trkpt lat="45.50581" lon="11.4664717"><ele>43.0</ele><time>2026-05-01T12:33:53.091Z</time></trkpt><trkpt lat="45.5058983" lon="11.4668683"><ele>42.5</ele><time>2026-05-01T12:33:54.092Z</time></trkpt><trkpt lat="45.505995" lon="11.4672667"><ele>42.0</ele><time>2026-05-01T12:33:55.092Z</time></trkpt><trkpt lat="45.5060883" lon="11.467665"><ele>42.5</ele><time>2026-05-01T12:33:56.092Z</time></trkpt><trkpt lat="45.5061917" lon="11.46807"><ele>43.0</ele><time>2026-05-01T12:33:57.092Z</time></trkpt><trkpt lat="45.506305" lon="11.4684667"><ele>43.0</ele><time>2026-05-01T12:33:58.092Z</time></trkpt><trkpt lat="45.5064167" lon="11.46886"><ele>43.0</ele><time>2026-05-01T12:33:59.091Z</time></trkpt><trkpt lat="45.50653" lon="11.46925"><ele>42.5</ele><time>2026-05-01T12:34:00.091Z</time></trkpt><trkpt lat="45.5066483" lon="11.469645"><ele>42.0</ele><time>2026-05-01T12:34:01.091Z</time></trkpt><trkpt lat="45.506775" lon="11.4700333"><ele>42.0</ele><time>2026-05-01T12:34:02.092Z</time></trkpt><trkpt lat="45.5069117" lon="11.4704183"><ele>42.0</ele><time>2026-05-01T12:34:03.091Z</time></trkpt><trkpt lat="45.5070417" lon="11.470805"><ele>42.0</ele><time>2026-05-01T12:34:04.091Z</time></trkpt><trkpt lat="45.5071817" lon="11.4711883"><ele>42.0</ele><time>2026-05-01T12:34:05.092Z</time></trkpt><trkpt lat="45.5073183" lon="11.471575"><ele>42.0</ele><time>2026-05-01T12:34:06.091Z</time></trkpt><trkpt lat="45.50746" lon="11.47196"><ele>42.0</ele><time>2026-05-01T12:34:07.091Z</time></trkpt><trkpt lat="45.5076" lon="11.4723567"><ele>41.0</ele><time>2026-05-01T12:34:08.092Z</time></trkpt><trkpt lat="45.5077367" lon="11.4727517"><ele>40.0</ele><time>2026-05-01T12:34:09.091Z</time></trkpt><trkpt lat="45.5078817" lon="11.4731433"><ele>40.0</ele><time>2026-05-01T12:34:10.092Z</time></trkpt><trkpt lat="45.50802" lon="11.4735333"><ele>40.0</ele><time>2026-05-01T12:34:11.092Z</time></trkpt><trkpt lat="45.5081517" lon="11.4739333"><ele>39.0</ele><time>2026-05-01T12:34:12.092Z</time></trkpt><trkpt lat="45.508285" lon="11.4743367"><ele>38.0</ele><time>2026-05-01T12:34:13.091Z</time></trkpt><trkpt lat="45.5084183" lon="11.4747383"><ele>38.0</ele><time>2026-05-01T12:34:14.091Z</time></trkpt><trkpt lat="45.5085483" lon="11.4751217"><ele>38.0</ele><time>2026-05-01T12:34:15.091Z</time></trkpt><trkpt lat="45.50868" lon="11.4755083"><ele>38.0</ele><time>2026-05-01T12:34:16.092Z</time></trkpt><trkpt lat="45.5088133" lon="11.47589"><ele>38.0</ele><time>2026-05-01T12:34:17.092Z</time></trkpt><trkpt lat="45.5089467" lon="11.4762683"><ele>38.0</ele><time>2026-05-01T12:34:18.091Z</time></trkpt><trkpt lat="45.5090783" lon="11.476655"><ele>38.0</ele><time>2026-05-01T12:34:19.091Z</time></trkpt><trkpt lat="45.5092183" lon="11.4770367"><ele>37.5</ele><time>2026-05-01T12:34:20.091Z</time></trkpt><trkpt lat="45.5093567" lon="11.4774233"><ele>37.0</ele><time>2026-05-01T12:34:21.091Z</time></trkpt><trkpt lat="45.5095" lon="11.477805"><ele>36.5</ele><time>2026-05-01T12:34:22.092Z</time></trkpt><trkpt lat="45.509635" lon="11.47819"><ele>36.0</ele><time>2026-05-01T12:34:23.091Z</time></trkpt><trkpt lat="45.5097717" lon="11.47857"><ele>35.5</ele><time>2026-05-01T12:34:24.091Z</time></trkpt><trkpt lat="45.5099067" lon="11.4789467"><ele>35.0</ele><time>2026-05-01T12:34:25.091Z</time></trkpt><trkpt lat="45.5100383" lon="11.479315"><ele>36.0</ele><time>2026-05-01T12:34:26.091Z</time></trkpt><trkpt lat="45.5101767" lon="11.4796967"><ele>37.0</ele><time>2026-05-01T12:34:27.091Z</time></trkpt><trkpt lat="45.51031" lon="11.480075"><ele>37.0</ele><time>2026-05-01T12:34:28.092Z</time></trkpt><trkpt lat="45.510445" lon="11.480455"><ele>37.0</ele><time>2026-05-01T12:34:29.092Z</time></trkpt><trkpt lat="45.5105867" lon="11.4808433"><ele>37.0</ele><time>2026-05-01T12:34:30.091Z</time></trkpt><trkpt lat="45.5107283" lon="11.48123"><ele>37.0</ele><time>2026-05-01T12:34:31.092Z</time></trkpt><trkpt lat="45.5108683" lon="11.4816183"><ele>37.5</ele><time>2026-05-01T12:34:32.092Z</time></trkpt><trkpt lat="45.5110067" lon="11.4820067"><ele>38.0</ele><time>2026-05-01T12:34:33.091Z</time></trkpt><trkpt lat="45.5111433" lon="11.4823917"><ele>37.5</ele><time>2026-05-01T12:34:34.092Z</time></trkpt><trkpt lat="45.5112783" lon="11.4827733"><ele>37.0</ele><time>2026-05-01T12:34:35.091Z</time></trkpt><trkpt lat="45.5114167" lon="11.4831483"><ele>35.5</ele><time>2026-05-01T12:34:36.091Z</time></trkpt><trkpt lat="45.511555" lon="11.483525"><ele>34.0</ele><time>2026-05-01T12:34:37.092Z</time></trkpt><trkpt lat="45.511695" lon="11.4839"><ele>32.0</ele><time>2026-05-01T12:34:38.091Z</time></trkpt><trkpt lat="45.5118317" lon="11.4842717"><ele>30.0</ele><time>2026-05-01T12:34:39.091Z</time></trkpt><trkpt lat="45.51197" lon="11.48465"><ele>31.0</ele><time>2026-05-01T12:34:40.091Z</time></trkpt><trkpt lat="45.5121117" lon="11.4850267"><ele>32.0</ele><time>2026-05-01T12:34:41.092Z</time></trkpt><trkpt lat="45.5122533" lon="11.4854067"><ele>32.0</ele><time>2026-05-01T12:34:42.091Z</time></trkpt><trkpt lat="45.5123917" lon="11.4857967"><ele>32.0</ele><time>2026-05-01T12:34:43.091Z</time></trkpt><trkpt lat="45.512535" lon="11.4861717"><ele>30.0</ele><time>2026-05-01T12:34:44.091Z</time></trkpt><trkpt lat="45.5126767" lon="11.486555"><ele>28.0</ele><time>2026-05-01T12:34:45.091Z</time></trkpt><trkpt lat="45.512815" lon="11.4869383"><ele>32.0</ele><time>2026-05-01T12:34:46.092Z</time></trkpt><trkpt lat="45.5129533" lon="11.4873167"><ele>36.0</ele><time>2026-05-01T12:34:47.091Z</time></trkpt><trkpt lat="45.51309" lon="11.4877"><ele>35.0</ele><time>2026-05-01T12:34:48.092Z</time></trkpt><trkpt lat="45.51323" lon="11.4880817"><ele>34.0</ele><time>2026-05-01T12:34:49.091Z</time></trkpt><trkpt lat="45.5133667" lon="11.4884683"><ele>32.5</ele><time>2026-05-01T12:34:50.091Z</time></trkpt><trkpt lat="45.513505" lon="11.488855"><ele>31.0</ele><time>2026-05-01T12:34:51.091Z</time></trkpt><trkpt lat="45.5136417" lon="11.48924"><ele>32.0</ele><time>2026-05-01T12:34:52.091Z</time></trkpt><trkpt lat="45.5137767" lon="11.4896283"><ele>33.0</ele><time>2026-05-01T12:34:53.092Z</time></trkpt><trkpt lat="45.51391" lon="11.49001"><ele>33.0</ele><time>2026-05-01T12:34:54.092Z</time></trkpt><trkpt lat="45.5140383" lon="11.49039"><ele>33.0</ele><time>2026-05-01T12:34:55.092Z</time></trkpt><trkpt lat="45.5141667" lon="11.4907683"><ele>32.5</ele><time>2026-05-01T12:34:56.091Z</time></trkpt><trkpt lat="45.514295" lon="11.4911467"><ele>32.0</ele><time>2026-05-01T12:34:57.091Z</time></trkpt><trkpt lat="45.51443" lon="11.4915217"><ele>31.5</ele><time>2026-05-01T12:34:58.091Z</time></trkpt><trkpt lat="45.5145683" lon="11.4918983"><ele>31.0</ele><time>2026-05-01T12:34:59.091Z</time></trkpt><trkpt lat="45.5147017" lon="11.49227"><ele>31.0</ele><time>2026-05-01T12:35:00.092Z</time></trkpt><trkpt lat="45.5148283" lon="11.4926367"><ele>31.0</ele><time>2026-05-01T12:35:01.092Z</time></trkpt><trkpt lat="45.5149583" lon="11.4930083"><ele>31.0</ele><time>2026-05-01T12:35:02.092Z</time></trkpt><trkpt lat="45.5150867" lon="11.4933783"><ele>31.0</ele><time>2026-05-01T12:35:03.091Z</time></trkpt><trkpt lat="45.5152167" lon="11.49374"><ele>31.5</ele><time>2026-05-01T12:35:04.092Z</time></trkpt><trkpt lat="45.5153483" lon="11.49411"><ele>32.0</ele><time>2026-05-01T12:35:05.091Z</time></trkpt><trkpt lat="45.5154767" lon="11.4944817"><ele>32.5</ele><time>2026-05-01T12:35:06.091Z</time></trkpt><trkpt lat="45.5156017" lon="11.4948583"><ele>33.0</ele><time>2026-05-01T12:35:07.092Z</time></trkpt><trkpt lat="45.5157283" lon="11.495235"><ele>32.5</ele><time>2026-05-01T12:35:08.092Z</time></trkpt><trkpt lat="45.5158567" lon="11.4956183"><ele>32.0</ele><time>2026-05-01T12:35:09.091Z</time></trkpt><trkpt lat="45.5159817" lon="11.4960033"><ele>31.0</ele><time>2026-05-01T12:35:10.092Z</time></trkpt><trkpt lat="45.5161133" lon="11.4963817"><ele>30.0</ele><time>2026-05-01T12:35:11.091Z</time></trkpt><trkpt lat="45.51624" lon="11.496755"><ele>31.5</ele><time>2026-05-01T12:35:12.091Z</time></trkpt><trkpt lat="45.5163717" lon="11.4971283"><ele>33.0</ele><time>2026-05-01T12:35:13.091Z</time></trkpt><trkpt lat="45.5165" lon="11.4975"><ele>33.0</ele><time>2026-05-01T12:35:14.091Z</time></trkpt><trkpt lat="45.5166317" lon="11.4978783"><ele>33.0</ele><time>2026-05-01T12:35:15.091Z</time></trkpt><trkpt lat="45.51676" lon="11.4982483"><ele>32.0</ele><time>2026-05-01T12:35:16.091Z</time></trkpt><trkpt lat="45.5168817" lon="11.4986283"><ele>31.0</ele><time>2026-05-01T12:35:17.092Z</time></trkpt><trkpt lat="45.5170033" lon="11.4990167"><ele>31.5</ele><time>2026-05-01T12:35:18.091Z</time></trkpt><trkpt lat="45.5171233" lon="11.499405"><ele>32.0</ele><time>2026-05-01T12:35:19.092Z</time></trkpt><trkpt lat="45.5172333" lon="11.4997983"><ele>32.0</ele><time>2026-05-01T12:35:20.092Z</time></trkpt><trkpt lat="45.5173383" lon="11.5001983"><ele>32.0</ele><time>2026-05-01T12:35:21.092Z</time></trkpt><trkpt lat="45.5174267" lon="11.5006"><ele>31.5</ele><time>2026-05-01T12:35:22.091Z</time></trkpt><trkpt lat="45.517505" lon="11.5010017"><ele>31.0</ele><time>2026-05-01T12:35:23.092Z</time></trkpt><trkpt lat="45.517575" lon="11.5014117"><ele>31.0</ele><time>2026-05-01T12:35:24.091Z</time></trkpt><trkpt lat="45.5176317" lon="11.5018283"><ele>31.0</ele><time>2026-05-01T12:35:25.092Z</time></trkpt><trkpt lat="45.5176783" lon="11.50225"><ele>30.5</ele><time>2026-05-01T12:35:26.091Z</time></trkpt><trkpt lat="45.5177117" lon="11.5026767"><ele>30.0</ele><time>2026-05-01T12:35:27.092Z</time></trkpt><trkpt lat="45.5177483" lon="11.5031083"><ele>30.0</ele><time>2026-05-01T12:35:28.091Z</time></trkpt><trkpt lat="45.5177717" lon="11.5035383"><ele>30.0</ele><time>2026-05-01T12:35:29.091Z</time></trkpt><trkpt lat="45.5177933" lon="11.503975"><ele>30.0</ele><time>2026-05-01T12:35:30.091Z</time></trkpt><trkpt lat="45.517805" lon="11.504415"><ele>30.0</ele><time>2026-05-01T12:35:31.091Z</time></trkpt><trkpt lat="45.517815" lon="11.504855"><ele>28.5</ele><time>2026-05-01T12:35:32.092Z</time></trkpt><trkpt lat="45.5178217" lon="11.5053033"><ele>27.0</ele><time>2026-05-01T12:35:33.092Z</time></trkpt><trkpt lat="45.51783" lon="11.5057467"><ele>27.0</ele><time>2026-05-01T12:35:34.091Z</time></trkpt><trkpt lat="45.51784" lon="11.5061883"><ele>27.0</ele><time>2026-05-01T12:35:35.091Z</time></trkpt><trkpt lat="45.5178483" lon="11.50664"><ele>28.0</ele><time>2026-05-01T12:35:36.091Z</time></trkpt><trkpt lat="45.5178633" lon="11.5070617"><ele>29.0</ele><time>2026-05-01T12:35:37.092Z</time></trkpt><trkpt lat="45.5178783" lon="11.5074817"><ele>29.0</ele><time>2026-05-01T12:35:38.091Z</time></trkpt><trkpt lat="45.51788" lon="11.5079033"><ele>29.0</ele><time>2026-05-01T12:35:39.091Z</time></trkpt><trkpt lat="45.5178833" lon="11.5083233"><ele>29.5</ele><time>2026-05-01T12:35:40.091Z</time></trkpt><trkpt lat="45.5178917" lon="11.50874"><ele>30.0</ele><time>2026-05-01T12:35:41.091Z</time></trkpt><trkpt lat="45.5179033" lon="11.5091483"><ele>30.5</ele><time>2026-05-01T12:35:42.091Z</time></trkpt><trkpt lat="45.5179117" lon="11.509565"><ele>31.0</ele><time>2026-05-01T12:35:43.092Z</time></trkpt><trkpt lat="45.5179133" lon="11.5099767"><ele>31.0</ele><time>2026-05-01T12:35:44.092Z</time></trkpt><trkpt lat="45.5179133" lon="11.5103917"><ele>31.0</ele><time>2026-05-01T12:35:45.091Z</time></trkpt><trkpt lat="45.51791" lon="11.51081"><ele>31.0</ele><time>2026-05-01T12:35:46.091Z</time></trkpt><trkpt lat="45.51791" lon="11.511225"><ele>31.0</ele><time>2026-05-01T12:35:47.091Z</time></trkpt><trkpt lat="45.5179133" lon="11.5116367"><ele>31.0</ele><time>2026-05-01T12:35:48.091Z</time></trkpt><trkpt lat="45.517915" lon="11.5120617"><ele>31.0</ele><time>2026-05-01T12:35:49.092Z</time></trkpt><trkpt lat="45.5179217" lon="11.5124833"><ele>32.5</ele><time>2026-05-01T12:35:50.091Z</time></trkpt><trkpt lat="45.517925" lon="11.51291"><ele>34.0</ele><time>2026-05-01T12:35:51.092Z</time></trkpt><trkpt lat="45.5179267" lon="11.51334"><ele>33.0</ele><time>2026-05-01T12:35:52.092Z</time></trkpt><trkpt lat="45.51793" lon="11.5137717"><ele>32.0</ele><time>2026-05-01T12:35:53.092Z</time></trkpt><trkpt lat="45.5179333" lon="11.5142017"><ele>30.5</ele><time>2026-05-01T12:35:54.092Z</time></trkpt><trkpt lat="45.5179383" lon="11.514635"><ele>29.0</ele><time>2026-05-01T12:35:55.091Z</time></trkpt><trkpt lat="45.5179433" lon="11.51507"><ele>29.0</ele><time>2026-05-01T12:35:56.092Z</time></trkpt><trkpt lat="45.5179517" lon="11.515505"><ele>29.0</ele><time>2026-05-01T12:35:57.091Z</time></trkpt><trkpt lat="45.51796" lon="11.51594"><ele>28.5</ele><time>2026-05-01T12:35:58.091Z</time></trkpt><trkpt lat="45.517965" lon="11.5163783"><ele>28.0</ele><time>2026-05-01T12:35:59.091Z</time></trkpt><trkpt lat="45.5179683" lon="11.5168133"><ele>29.0</ele><time>2026-05-01T12:36:00.091Z</time></trkpt><trkpt lat="45.5179717" lon="11.51725"><ele>30.0</ele><time>2026-05-01T12:36:01.091Z</time></trkpt><trkpt lat="45.5179783" lon="11.5176833"><ele>29.0</ele><time>2026-05-01T12:36:02.092Z</time></trkpt><trkpt lat="45.5179833" lon="11.5181233"><ele>28.0</ele><time>2026-05-01T12:36:03.091Z</time></trkpt><trkpt lat="45.51799" lon="11.51856"><ele>28.0</ele><time>2026-05-01T12:36:04.091Z</time></trkpt><trkpt lat="45.51799" lon="11.519"><ele>28.0</ele><time>2026-05-01T12:36:05.092Z</time></trkpt><trkpt lat="45.5179917" lon="11.519435"><ele>29.5</ele><time>2026-05-01T12:36:06.092Z</time></trkpt><trkpt lat="45.5179933" lon="11.519875"><ele>31.0</ele><time>2026-05-01T12:36:07.092Z</time></trkpt><trkpt lat="45.5179967" lon="11.5203367"><ele>31.0</ele><time>2026-05-01T12:36:08.092Z</time></trkpt><trkpt lat="45.5179983" lon="11.5208067"><ele>31.0</ele><time>2026-05-01T12:36:09.091Z</time></trkpt><trkpt lat="45.518" lon="11.5212633"><ele>31.0</ele><time>2026-05-01T12:36:10.091Z</time></trkpt><trkpt lat="45.5180017" lon="11.5217033"><ele>31.0</ele><time>2026-05-01T12:36:11.092Z</time></trkpt><trkpt lat="45.5179983" lon="11.5221333"><ele>30.5</ele><time>2026-05-01T12:36:12.092Z</time></trkpt><trkpt lat="45.5179967" lon="11.52256"><ele>30.0</ele><time>2026-05-01T12:36:13.092Z</time></trkpt><trkpt lat="45.5179883" lon="11.5229917"><ele>29.5</ele><time>2026-05-01T12:36:14.091Z</time></trkpt><trkpt lat="45.51798" lon="11.52342"><ele>29.0</ele><time>2026-05-01T12:36:15.091Z</time></trkpt><trkpt lat="45.5179683" lon="11.5238433"><ele>29.0</ele><time>2026-05-01T12:36:16.091Z</time></trkpt><trkpt lat="45.517955" lon="11.5242683"><ele>29.0</ele><time>2026-05-01T12:36:17.092Z</time></trkpt><trkpt lat="45.517895" lon="11.5251117"><ele>29.5</ele><time>2026-05-01T12:36:19.092Z</time></trkpt><trkpt lat="45.51786" lon="11.5255417"><ele>30.0</ele><time>2026-05-01T12:36:20.091Z</time></trkpt><trkpt lat="45.5178217" lon="11.525965"><ele>29.5</ele><time>2026-05-01T12:36:21.091Z</time></trkpt><trkpt lat="45.5177767" lon="11.52639"><ele>29.0</ele><time>2026-05-01T12:36:22.092Z</time></trkpt><trkpt lat="45.5177283" lon="11.5268167"><ele>29.0</ele><time>2026-05-01T12:36:23.091Z</time></trkpt><trkpt lat="45.517675" lon="11.5272433"><ele>29.0</ele><time>2026-05-01T12:36:24.092Z</time></trkpt><trkpt lat="45.517615" lon="11.5276683"><ele>30.0</ele><time>2026-05-01T12:36:25.092Z</time></trkpt><trkpt lat="45.5175517" lon="11.52809"><ele>31.0</ele><time>2026-05-01T12:36:26.092Z</time></trkpt><trkpt lat="45.5174883" lon="11.5285133"><ele>32.0</ele><time>2026-05-01T12:36:27.092Z</time></trkpt><trkpt lat="45.5174167" lon="11.5289317"><ele>33.0</ele><time>2026-05-01T12:36:28.091Z</time></trkpt><trkpt lat="45.517345" lon="11.5293483"><ele>31.5</ele><time>2026-05-01T12:36:29.092Z</time></trkpt><trkpt lat="45.5172767" lon="11.52977"><ele>30.0</ele><time>2026-05-01T12:36:30.091Z</time></trkpt><trkpt lat="45.51721" lon="11.5301917"><ele>29.0</ele><time>2026-05-01T12:36:31.091Z</time></trkpt><trkpt lat="45.5171517" lon="11.530615"><ele>28.0</ele><time>2026-05-01T12:36:32.092Z</time></trkpt><trkpt lat="45.517105" lon="11.53103"><ele>30.0</ele><time>2026-05-01T12:36:33.092Z</time></trkpt><trkpt lat="45.51706" lon="11.5314333"><ele>32.0</ele><time>2026-05-01T12:36:34.091Z</time></trkpt><trkpt lat="45.5170167" lon="11.53184"><ele>33.5</ele><time>2026-05-01T12:36:35.092Z</time></trkpt><trkpt lat="45.5169833" lon="11.5322433"><ele>35.0</ele><time>2026-05-01T12:36:36.091Z</time></trkpt><trkpt lat="45.5169417" lon="11.5326467"><ele>46.0</ele><time>2026-05-01T12:36:37.092Z</time></trkpt><trkpt lat="45.51691" lon="11.5330667"><ele>57.0</ele><time>2026-05-01T12:36:38.091Z</time></trkpt><trkpt lat="45.516865" lon="11.53349"><ele>64.5</ele><time>2026-05-01T12:36:39.092Z</time></trkpt><trkpt lat="45.516835" lon="11.533905"><ele>72.0</ele><time>2026-05-01T12:36:40.092Z</time></trkpt><trkpt lat="45.5168" lon="11.53432"><ele>76.5</ele><time>2026-05-01T12:36:41.092Z</time></trkpt><trkpt lat="45.5167583" lon="11.5347367"><ele>81.0</ele><time>2026-05-01T12:36:42.091Z</time></trkpt><trkpt lat="45.5167233" lon="11.5351433"><ele>78.5</ele><time>2026-05-01T12:36:43.092Z</time></trkpt><trkpt lat="45.51669" lon="11.53555"><ele>76.0</ele><time>2026-05-01T12:36:44.092Z</time></trkpt><trkpt lat="45.516655" lon="11.5359567"><ele>67.0</ele><time>2026-05-01T12:36:45.092Z</time></trkpt><trkpt lat="45.5166217" lon="11.5363633"><ele>58.0</ele><time>2026-05-01T12:36:46.091Z</time></trkpt><trkpt lat="45.51659" lon="11.5367833"><ele>48.0</ele><time>2026-05-01T12:36:47.092Z</time></trkpt><trkpt lat="45.5165883" lon="11.5372833"><ele>38.0</ele><time>2026-05-01T12:36:48.091Z</time></trkpt><trkpt lat="45.516575" lon="11.5377583"><ele>38.0</ele><time>2026-05-01T12:36:49.091Z</time></trkpt><trkpt lat="45.5165367" lon="11.5382467"><ele>38.0</ele><time>2026-05-01T12:36:50.091Z</time></trkpt><trkpt lat="45.5165083" lon="11.53874"><ele>39.0</ele><time>2026-05-01T12:36:51.092Z</time></trkpt><trkpt lat="45.5164617" lon="11.539225"><ele>40.0</ele><time>2026-05-01T12:36:52.092Z</time></trkpt><trkpt lat="45.516415" lon="11.5396983"><ele>40.0</ele><time>2026-05-01T12:36:53.091Z</time></trkpt><trkpt lat="45.516365" lon="11.5401467"><ele>40.0</ele><time>2026-05-01T12:36:54.092Z</time></trkpt><trkpt lat="45.5163267" lon="11.540575"><ele>42.5</ele><time>2026-05-01T12:36:55.091Z</time></trkpt><trkpt lat="45.51629" lon="11.541"><ele>45.0</ele><time>2026-05-01T12:36:56.092Z</time></trkpt><trkpt lat="45.516255" lon="11.5414217"><ele>57.0</ele><time>2026-05-01T12:36:57.092Z</time></trkpt><trkpt lat="45.5162267" lon="11.5418433"><ele>69.0</ele><time>2026-05-01T12:36:58.092Z</time></trkpt><trkpt lat="45.5162067" lon="11.5422767"><ele>76.0</ele><time>2026-05-01T12:36:59.092Z</time></trkpt><trkpt lat="45.51618" lon="11.542695"><ele>83.0</ele><time>2026-05-01T12:37:00.091Z</time></trkpt><trkpt lat="45.5161583" lon="11.5431167"><ele>93.0</ele><time>2026-05-01T12:37:01.092Z</time></trkpt><trkpt lat="45.51614" lon="11.5435617"><ele>103.0</ele><time>2026-05-01T12:37:02.091Z</time></trkpt><trkpt lat="45.516135" lon="11.544005"><ele>114.0</ele><time>2026-05-01T12:37:03.091Z</time></trkpt><trkpt lat="45.5161283" lon="11.544455"><ele>125.0</ele><time>2026-05-01T12:37:04.091Z</time></trkpt><trkpt lat="45.5161267" lon="11.5448917"><ele>131.5</ele><time>2026-05-01T12:37:05.092Z</time></trkpt><trkpt lat="45.5161133" lon="11.545335"><ele>138.0</ele><time>2026-05-01T12:37:06.091Z</time></trkpt><trkpt lat="45.5161" lon="11.54578"><ele>127.5</ele><time>2026-05-01T12:37:07.091Z</time></trkpt><trkpt lat="45.5160867" lon="11.546225"><ele>117.0</ele><time>2026-05-01T12:37:08.091Z</time></trkpt><trkpt lat="45.5160733" lon="11.5466683"><ele>52.0</ele><time>2026-05-01T12:37:09.092Z</time></trkpt><trkpt lat="45.5159983" lon="11.54891"><ele>52.0</ele><time>2026-05-01T12:37:14.102Z</time></trkpt><trkpt lat="45.515795" lon="11.54925"><ele>52.0</ele><time>2026-05-01T12:37:15.102Z</time></trkpt><trkpt lat="45.5156633" lon="11.5497167"><ele>49.0</ele><time>2026-05-01T12:37:16.103Z</time></trkpt><trkpt lat="45.51563" lon="11.5501367"><ele>46.0</ele><time>2026-05-01T12:37:17.103Z</time></trkpt><trkpt lat="45.51561" lon="11.55057"><ele>43.5</ele><time>2026-05-01T12:37:18.103Z</time></trkpt><trkpt lat="45.5156033" lon="11.5509967"><ele>41.0</ele><time>2026-05-01T12:37:19.102Z</time></trkpt><trkpt lat="45.5156033" lon="11.5514283"><ele>39.5</ele><time>2026-05-01T12:37:20.103Z</time></trkpt><trkpt lat="45.5156117" lon="11.5518483"><ele>38.0</ele><time>2026-05-01T12:37:21.103Z</time></trkpt><trkpt lat="45.51563" lon="11.5522783"><ele>37.5</ele><time>2026-05-01T12:37:22.103Z</time></trkpt><trkpt lat="45.5156417" lon="11.552715"><ele>37.0</ele><time>2026-05-01T12:37:23.102Z</time></trkpt><trkpt lat="45.5156617" lon="11.5531383"><ele>36.5</ele><time>2026-05-01T12:37:24.103Z</time></trkpt><trkpt lat="45.515685" lon="11.5535583"><ele>36.0</ele><time>2026-05-01T12:37:25.102Z</time></trkpt><trkpt lat="45.5157067" lon="11.553985"><ele>36.0</ele><time>2026-05-01T12:37:26.103Z</time></trkpt><trkpt lat="45.51573" lon="11.55442"><ele>36.0</ele><time>2026-05-01T12:37:27.102Z</time></trkpt><trkpt lat="45.5157417" lon="11.5548617"><ele>36.5</ele><time>2026-05-01T12:37:28.102Z</time></trkpt><trkpt lat="45.5157483" lon="11.555305"><ele>37.0</ele><time>2026-05-01T12:37:29.103Z</time></trkpt><trkpt lat="45.51575" lon="11.5557467"><ele>37.5</ele><time>2026-05-01T12:37:30.102Z</time></trkpt><trkpt lat="45.515745" lon="11.556185"><ele>38.0</ele><time>2026-05-01T12:37:31.102Z</time></trkpt><trkpt lat="45.515735" lon="11.5566183"><ele>36.5</ele><time>2026-05-01T12:37:32.103Z</time></trkpt><trkpt lat="45.51573" lon="11.5570433"><ele>35.0</ele><time>2026-05-01T12:37:33.102Z</time></trkpt><trkpt lat="45.5157133" lon="11.557465"><ele>33.5</ele><time>2026-05-01T12:37:34.102Z</time></trkpt><trkpt lat="45.5156983" lon="11.557885"><ele>32.0</ele><time>2026-05-01T12:37:35.102Z</time></trkpt><trkpt lat="45.5156733" lon="11.5583017"><ele>31.5</ele><time>2026-05-01T12:37:36.103Z</time></trkpt><trkpt lat="45.5156533" lon="11.5587233"><ele>31.0</ele><time>2026-05-01T12:37:37.102Z</time></trkpt><trkpt lat="45.515635" lon="11.559145"><ele>30.5</ele><time>2026-05-01T12:37:38.102Z</time></trkpt><trkpt lat="45.51562" lon="11.55957"><ele>30.0</ele><time>2026-05-01T12:37:39.103Z</time></trkpt><trkpt lat="45.5156167" lon="11.559995"><ele>31.0</ele><time>2026-05-01T12:37:40.102Z</time></trkpt><trkpt lat="45.51562" lon="11.5604217"><ele>32.0</ele><time>2026-05-01T12:37:41.103Z</time></trkpt><trkpt lat="45.5156317" lon="11.5608567"><ele>31.5</ele><time>2026-05-01T12:37:42.103Z</time></trkpt><trkpt lat="45.5156517" lon="11.56129"><ele>31.0</ele><time>2026-05-01T12:37:43.103Z</time></trkpt><trkpt lat="45.5156817" lon="11.561725"><ele>30.0</ele><time>2026-05-01T12:37:44.102Z</time></trkpt><trkpt lat="45.5157117" lon="11.5621583"><ele>29.0</ele><time>2026-05-01T12:37:45.103Z</time></trkpt><trkpt lat="45.5157317" lon="11.5625833"><ele>29.0</ele><time>2026-05-01T12:37:46.103Z</time></trkpt><trkpt lat="45.5157483" lon="11.5630133"><ele>29.0</ele><time>2026-05-01T12:37:47.103Z</time></trkpt><trkpt lat="45.5157667" lon="11.5634483"><ele>30.0</ele><time>2026-05-01T12:37:48.103Z</time></trkpt><trkpt lat="45.5157933" lon="11.56388"><ele>31.0</ele><time>2026-05-01T12:37:49.103Z</time></trkpt><trkpt lat="45.5158183" lon="11.5643067"><ele>30.5</ele><time>2026-05-01T12:37:50.102Z</time></trkpt><trkpt lat="45.5158417" lon="11.5647433"><ele>30.0</ele><time>2026-05-01T12:37:51.103Z</time></trkpt><trkpt lat="45.5158717" lon="11.565175"><ele>30.5</ele><time>2026-05-01T12:37:52.102Z</time></trkpt><trkpt lat="45.515905" lon="11.5656"><ele>31.0</ele><time>2026-05-01T12:37:53.102Z</time></trkpt><trkpt lat="45.5159417" lon="11.5660283"><ele>31.0</ele><time>2026-05-01T12:37:54.102Z</time></trkpt><trkpt lat="45.51598" lon="11.56645"><ele>31.0</ele><time>2026-05-01T12:37:55.103Z</time></trkpt><trkpt lat="45.5160217" lon="11.5668667"><ele>30.5</ele><time>2026-05-01T12:37:56.103Z</time></trkpt><trkpt lat="45.5160567" lon="11.567295"><ele>30.0</ele><time>2026-05-01T12:37:57.102Z</time></trkpt><trkpt lat="45.5161017" lon="11.5677133"><ele>29.5</ele><time>2026-05-01T12:37:58.102Z</time></trkpt><trkpt lat="45.516155" lon="11.5681333"><ele>29.0</ele><time>2026-05-01T12:37:59.102Z</time></trkpt><trkpt lat="45.5162067" lon="11.5685483"><ele>30.0</ele><time>2026-05-01T12:38:00.102Z</time></trkpt><trkpt lat="45.5162567" lon="11.5689767"><ele>31.0</ele><time>2026-05-01T12:38:01.102Z</time></trkpt><trkpt lat="45.5163017" lon="11.5693967"><ele>31.0</ele><time>2026-05-01T12:38:02.102Z</time></trkpt><trkpt lat="45.5163383" lon="11.56982"><ele>31.0</ele><time>2026-05-01T12:38:03.102Z</time></trkpt><trkpt lat="45.5163683" lon="11.5702533"><ele>31.0</ele><time>2026-05-01T12:38:04.102Z</time></trkpt><trkpt lat="45.5164" lon="11.5706917"><ele>31.0</ele><time>2026-05-01T12:38:05.102Z</time></trkpt><trkpt lat="45.5164333" lon="11.5711383"><ele>31.0</ele><time>2026-05-01T12:38:06.103Z</time></trkpt><trkpt lat="45.5164667" lon="11.5715733"><ele>31.0</ele><time>2026-05-01T12:38:07.102Z</time></trkpt><trkpt lat="45.51649" lon="11.5719883"><ele>30.5</ele><time>2026-05-01T12:38:08.103Z</time></trkpt><trkpt lat="45.5165217" lon="11.5723967"><ele>30.0</ele><time>2026-05-01T12:38:09.103Z</time></trkpt><trkpt lat="45.5165617" lon="11.57279"><ele>29.5</ele><time>2026-05-01T12:38:10.103Z</time></trkpt><trkpt lat="45.5165883" lon="11.573205"><ele>29.0</ele><time>2026-05-01T12:38:11.103Z</time></trkpt><trkpt lat="45.5166217" lon="11.5736283"><ele>29.0</ele><time>2026-05-01T12:38:12.102Z</time></trkpt><trkpt lat="45.5166483" lon="11.5740517"><ele>29.0</ele><time>2026-05-01T12:38:13.103Z</time></trkpt><trkpt lat="45.5166783" lon="11.57448"><ele>28.0</ele><time>2026-05-01T12:38:14.103Z</time></trkpt><trkpt lat="45.5167167" lon="11.5749133"><ele>27.0</ele><time>2026-05-01T12:38:15.103Z</time></trkpt><trkpt lat="45.5167517" lon="11.57533"><ele>26.5</ele><time>2026-05-01T12:38:16.102Z</time></trkpt><trkpt lat="45.5167917" lon="11.5757417"><ele>26.0</ele><time>2026-05-01T12:38:17.103Z</time></trkpt><trkpt lat="45.51683" lon="11.5761583"><ele>27.0</ele><time>2026-05-01T12:38:18.103Z</time></trkpt><trkpt lat="45.5168617" lon="11.5765883"><ele>28.0</ele><time>2026-05-01T12:38:19.102Z</time></trkpt><trkpt lat="45.5168967" lon="11.5770233"><ele>28.0</ele><time>2026-05-01T12:38:20.102Z</time></trkpt><trkpt lat="45.5169267" lon="11.5774617"><ele>28.0</ele><time>2026-05-01T12:38:21.102Z</time></trkpt><trkpt lat="45.51695" lon="11.577905"><ele>27.5</ele><time>2026-05-01T12:38:22.103Z</time></trkpt><trkpt lat="45.5169733" lon="11.5783583"><ele>27.0</ele><time>2026-05-01T12:38:23.103Z</time></trkpt><trkpt lat="45.5169983" lon="11.5788117"><ele>26.5</ele><time>2026-05-01T12:38:24.102Z</time></trkpt><trkpt lat="45.51702" lon="11.5792583"><ele>26.0</ele><time>2026-05-01T12:38:25.103Z</time></trkpt><trkpt lat="45.517035" lon="11.5796983"><ele>27.0</ele><time>2026-05-01T12:38:26.102Z</time></trkpt><trkpt lat="45.51704" lon="11.580145"><ele>28.0</ele><time>2026-05-01T12:38:27.103Z</time></trkpt><trkpt lat="45.5170317" lon="11.5805933"><ele>28.5</ele><time>2026-05-01T12:38:28.103Z</time></trkpt><trkpt lat="45.5170117" lon="11.5810383"><ele>29.0</ele><time>2026-05-01T12:38:29.102Z</time></trkpt><trkpt lat="45.5169817" lon="11.5814917"><ele>29.0</ele><time>2026-05-01T12:38:30.103Z</time></trkpt><trkpt lat="45.5169417" lon="11.581935"><ele>29.0</ele><time>2026-05-01T12:38:31.102Z</time></trkpt><trkpt lat="45.5168883" lon="11.5823667"><ele>29.0</ele><time>2026-05-01T12:38:32.102Z</time></trkpt><trkpt lat="45.51683" lon="11.5827933"><ele>29.0</ele><time>2026-05-01T12:38:33.103Z</time></trkpt><trkpt lat="45.5167583" lon="11.5832167"><ele>29.0</ele><time>2026-05-01T12:38:34.102Z</time></trkpt><trkpt lat="45.51668" lon="11.5836317"><ele>29.0</ele><time>2026-05-01T12:38:35.103Z</time></trkpt><trkpt lat="45.5165883" lon="11.5840383"><ele>29.5</ele><time>2026-05-01T12:38:36.102Z</time></trkpt><trkpt lat="45.5164817" lon="11.5844383"><ele>30.0</ele><time>2026-05-01T12:38:37.102Z</time></trkpt><trkpt lat="45.516375" lon="11.5848367"><ele>30.0</ele><time>2026-05-01T12:38:38.102Z</time></trkpt><trkpt lat="45.51627" lon="11.5852233"><ele>30.0</ele><time>2026-05-01T12:38:39.103Z</time></trkpt><trkpt lat="45.51617" lon="11.5856167"><ele>29.5</ele><time>2026-05-01T12:38:40.103Z</time></trkpt><trkpt lat="45.5160533" lon="11.5860083"><ele>29.0</ele><time>2026-05-01T12:38:41.102Z</time></trkpt><trkpt lat="45.51594" lon="11.5863983"><ele>28.0</ele><time>2026-05-01T12:38:42.102Z</time></trkpt><trkpt lat="45.5158283" lon="11.5867983"><ele>27.0</ele><time>2026-05-01T12:38:43.103Z</time></trkpt><trkpt lat="45.5157167" lon="11.5872"><ele>27.0</ele><time>2026-05-01T12:38:44.103Z</time></trkpt><trkpt lat="45.5156033" lon="11.5876"><ele>27.0</ele><time>2026-05-01T12:38:45.103Z</time></trkpt><trkpt lat="45.5154867" lon="11.5880033"><ele>27.0</ele><time>2026-05-01T12:38:46.103Z</time></trkpt><trkpt lat="45.5153633" lon="11.5884067"><ele>27.0</ele><time>2026-05-01T12:38:47.103Z</time></trkpt><trkpt lat="45.5152467" lon="11.5888083"><ele>27.0</ele><time>2026-05-01T12:38:48.102Z</time></trkpt><trkpt lat="45.5151233" lon="11.58921"><ele>27.0</ele><time>2026-05-01T12:38:49.102Z</time></trkpt><trkpt lat="45.5150033" lon="11.5896083"><ele>27.0</ele><time>2026-05-01T12:38:50.103Z</time></trkpt><trkpt lat="45.5148783" lon="11.5900083"><ele>27.0</ele><time>2026-05-01T12:38:51.103Z</time></trkpt><trkpt lat="45.5147633" lon="11.5904"><ele>26.5</ele><time>2026-05-01T12:38:52.103Z</time></trkpt><trkpt lat="45.5146483" lon="11.5907933"><ele>26.0</ele><time>2026-05-01T12:38:53.102Z</time></trkpt><trkpt lat="45.514535" lon="11.591185"><ele>25.5</ele><time>2026-05-01T12:38:54.102Z</time></trkpt><trkpt lat="45.5144233" lon="11.59157"><ele>25.0</ele><time>2026-05-01T12:38:55.102Z</time></trkpt><trkpt lat="45.5143117" lon="11.5919567"><ele>25.5</ele><time>2026-05-01T12:38:56.103Z</time></trkpt><trkpt lat="45.5141983" lon="11.5923433"><ele>26.0</ele><time>2026-05-01T12:38:57.103Z</time></trkpt><trkpt lat="45.5140867" lon="11.5927283"><ele>26.5</ele><time>2026-05-01T12:38:58.103Z</time></trkpt><trkpt lat="45.5139767" lon="11.593105"><ele>27.0</ele><time>2026-05-01T12:38:59.103Z</time></trkpt><trkpt lat="45.5138683" lon="11.5934817"><ele>27.0</ele><time>2026-05-01T12:39:00.103Z</time></trkpt><trkpt lat="45.51376" lon="11.5938667"><ele>27.0</ele><time>2026-05-01T12:39:01.103Z</time></trkpt><trkpt lat="45.5136467" lon="11.5942683"><ele>26.0</ele><time>2026-05-01T12:39:02.102Z</time></trkpt><trkpt lat="45.5135317" lon="11.5946917"><ele>25.0</ele><time>2026-05-01T12:39:03.103Z</time></trkpt><trkpt lat="45.5134133" lon="11.59512"><ele>25.5</ele><time>2026-05-01T12:39:04.102Z</time></trkpt><trkpt lat="45.5132867" lon="11.59556"><ele>26.0</ele><time>2026-05-01T12:39:05.102Z</time></trkpt><trkpt lat="45.5131583" lon="11.5960083"><ele>26.0</ele><time>2026-05-01T12:39:06.102Z</time></trkpt><trkpt lat="45.5130267" lon="11.5964567"><ele>26.0</ele><time>2026-05-01T12:39:07.103Z</time></trkpt><trkpt lat="45.5128967" lon="11.596895"><ele>27.5</ele><time>2026-05-01T12:39:08.103Z</time></trkpt><trkpt lat="45.51277" lon="11.59731"><ele>29.0</ele><time>2026-05-01T12:39:09.102Z</time></trkpt><trkpt lat="45.5126483" lon="11.59771"><ele>29.5</ele><time>2026-05-01T12:39:10.103Z</time></trkpt><trkpt lat="45.51253" lon="11.598105"><ele>30.0</ele><time>2026-05-01T12:39:11.102Z</time></trkpt><trkpt lat="45.5124217" lon="11.5985133"><ele>29.5</ele><time>2026-05-01T12:39:12.103Z</time></trkpt><trkpt lat="45.5122983" lon="11.5989117"><ele>29.0</ele><time>2026-05-01T12:39:13.102Z</time></trkpt><trkpt lat="45.5121717" lon="11.5993133"><ele>27.5</ele><time>2026-05-01T12:39:14.102Z</time></trkpt><trkpt lat="45.5120533" lon="11.5997217"><ele>26.0</ele><time>2026-05-01T12:39:15.102Z</time></trkpt><trkpt lat="45.5119317" lon="11.60013"><ele>27.5</ele><time>2026-05-01T12:39:16.103Z</time></trkpt><trkpt lat="45.51181" lon="11.6005383"><ele>29.0</ele><time>2026-05-01T12:39:17.102Z</time></trkpt><trkpt lat="45.5116917" lon="11.6009467"><ele>29.5</ele><time>2026-05-01T12:39:18.103Z</time></trkpt><trkpt lat="45.5115683" lon="11.6013467"><ele>30.0</ele><time>2026-05-01T12:39:19.103Z</time></trkpt><trkpt lat="45.5114483" lon="11.60176"><ele>29.0</ele><time>2026-05-01T12:39:20.102Z</time></trkpt><trkpt lat="45.51133" lon="11.6021717"><ele>28.0</ele><time>2026-05-01T12:39:21.103Z</time></trkpt><trkpt lat="45.511215" lon="11.60258"><ele>28.5</ele><time>2026-05-01T12:39:22.103Z</time></trkpt><trkpt lat="45.5110983" lon="11.6029867"><ele>29.0</ele><time>2026-05-01T12:39:23.102Z</time></trkpt><trkpt lat="45.5109817" lon="11.6033883"><ele>28.5</ele><time>2026-05-01T12:39:24.103Z</time></trkpt><trkpt lat="45.5108617" lon="11.6037833"><ele>28.0</ele><time>2026-05-01T12:39:25.102Z</time></trkpt><trkpt lat="45.5107483" lon="11.6041767"><ele>27.5</ele><time>2026-05-01T12:39:26.103Z</time></trkpt><trkpt lat="45.5106367" lon="11.6045683"><ele>27.0</ele><time>2026-05-01T12:39:27.103Z</time></trkpt><trkpt lat="45.5105283" lon="11.6049583"><ele>27.0</ele><time>2026-05-01T12:39:28.102Z</time></trkpt><trkpt lat="45.5104133" lon="11.6053483"><ele>27.0</ele><time>2026-05-01T12:39:29.102Z</time></trkpt><trkpt lat="45.5103017" lon="11.6057367"><ele>27.0</ele><time>2026-05-01T12:39:30.103Z</time></trkpt><trkpt lat="45.51019" lon="11.6061267"><ele>27.0</ele><time>2026-05-01T12:39:31.103Z</time></trkpt><trkpt lat="45.510075" lon="11.606515"><ele>27.0</ele><time>2026-05-01T12:39:32.102Z</time></trkpt><trkpt lat="45.50996" lon="11.6068967"><ele>27.0</ele><time>2026-05-01T12:39:33.103Z</time></trkpt><trkpt lat="45.5098433" lon="11.6072817"><ele>27.0</ele><time>2026-05-01T12:39:34.103Z</time></trkpt><trkpt lat="45.5097267" lon="11.6076683"><ele>27.0</ele><time>2026-05-01T12:39:35.102Z</time></trkpt><trkpt lat="45.5096117" lon="11.608055"><ele>26.5</ele><time>2026-05-01T12:39:36.102Z</time></trkpt><trkpt lat="45.509495" lon="11.6084467"><ele>26.0</ele><time>2026-05-01T12:39:37.102Z</time></trkpt><trkpt lat="45.50938" lon="11.6088367"><ele>26.5</ele><time>2026-05-01T12:39:38.102Z</time></trkpt><trkpt lat="45.5092667" lon="11.609215"><ele>27.0</ele><time>2026-05-01T12:39:39.102Z</time></trkpt><trkpt lat="45.5091533" lon="11.60959"><ele>27.0</ele><time>2026-05-01T12:39:40.102Z</time></trkpt><trkpt lat="45.5090417" lon="11.609965"><ele>27.0</ele><time>2026-05-01T12:39:41.103Z</time></trkpt><trkpt lat="45.5089333" lon="11.6103417"><ele>27.0</ele><time>2026-05-01T12:39:42.103Z</time></trkpt><trkpt lat="45.5088217" lon="11.610715"><ele>27.0</ele><time>2026-05-01T12:39:43.103Z</time></trkpt><trkpt lat="45.50871" lon="11.6110867"><ele>29.0</ele><time>2026-05-01T12:39:44.103Z</time></trkpt><trkpt lat="45.5085983" lon="11.6114533"><ele>31.0</ele><time>2026-05-01T12:39:45.102Z</time></trkpt><trkpt lat="45.50849" lon="11.6118217"><ele>29.5</ele><time>2026-05-01T12:39:46.102Z</time></trkpt><trkpt lat="45.5083833" lon="11.6121867"><ele>28.0</ele><time>2026-05-01T12:39:47.103Z</time></trkpt><trkpt lat="45.5082833" lon="11.6125467"><ele>27.5</ele><time>2026-05-01T12:39:48.102Z</time></trkpt><trkpt lat="45.5081783" lon="11.6129017"><ele>27.0</ele><time>2026-05-01T12:39:49.102Z</time></trkpt><trkpt lat="45.508075" lon="11.61324"><ele>27.0</ele><time>2026-05-01T12:39:50.103Z</time></trkpt><trkpt lat="45.5079783" lon="11.6135817"><ele>27.0</ele><time>2026-05-01T12:39:51.102Z</time></trkpt><trkpt lat="45.5078783" lon="11.6139267"><ele>27.0</ele><time>2026-05-01T12:39:52.102Z</time></trkpt><trkpt lat="45.5077783" lon="11.6142767"><ele>27.0</ele><time>2026-05-01T12:39:53.102Z</time></trkpt><trkpt lat="45.5076733" lon="11.6146433"><ele>27.0</ele><time>2026-05-01T12:39:54.102Z</time></trkpt><trkpt lat="45.5075733" lon="11.6150233"><ele>27.0</ele><time>2026-05-01T12:39:55.103Z</time></trkpt><trkpt lat="45.5074683" lon="11.6154017"><ele>27.5</ele><time>2026-05-01T12:39:56.102Z</time></trkpt><trkpt lat="45.5073517" lon="11.615785"><ele>28.0</ele><time>2026-05-01T12:39:57.103Z</time></trkpt><trkpt lat="45.5072417" lon="11.616175"><ele>28.0</ele><time>2026-05-01T12:39:58.102Z</time></trkpt><trkpt lat="45.507125" lon="11.6165667"><ele>28.0</ele><time>2026-05-01T12:39:59.103Z</time></trkpt><trkpt lat="45.5070133" lon="11.6169617"><ele>25.5</ele><time>2026-05-01T12:40:00.103Z</time></trkpt><trkpt lat="45.5069033" lon="11.6173583"><ele>23.0</ele><time>2026-05-01T12:40:01.102Z</time></trkpt><trkpt lat="45.506795" lon="11.6177633"><ele>24.0</ele><time>2026-05-01T12:40:02.102Z</time></trkpt><trkpt lat="45.5066733" lon="11.6181733"><ele>25.0</ele><time>2026-05-01T12:40:03.102Z</time></trkpt><trkpt lat="45.5065567" lon="11.6185617"><ele>26.0</ele><time>2026-05-01T12:40:04.101Z</time></trkpt><trkpt lat="45.50644" lon="11.6189517"><ele>27.0</ele><time>2026-05-01T12:40:05.101Z</time></trkpt><trkpt lat="45.506325" lon="11.6193467"><ele>27.5</ele><time>2026-05-01T12:40:06.101Z</time></trkpt><trkpt lat="45.5062083" lon="11.6197467"><ele>28.0</ele><time>2026-05-01T12:40:07.102Z</time></trkpt><trkpt lat="45.50609" lon="11.62015"><ele>27.0</ele><time>2026-05-01T12:40:08.102Z</time></trkpt><trkpt lat="45.5059683" lon="11.6205583"><ele>26.0</ele><time>2026-05-01T12:40:09.101Z</time></trkpt><trkpt lat="45.505845" lon="11.6209683"><ele>25.5</ele><time>2026-05-01T12:40:10.102Z</time></trkpt><trkpt lat="45.5057233" lon="11.62138"><ele>25.0</ele><time>2026-05-01T12:40:11.101Z</time></trkpt><trkpt lat="45.5056067" lon="11.6217867"><ele>24.5</ele><time>2026-05-01T12:40:12.102Z</time></trkpt><trkpt lat="45.5054933" lon="11.6221917"><ele>24.0</ele><time>2026-05-01T12:40:13.102Z</time></trkpt><trkpt lat="45.50537" lon="11.6225967"><ele>25.0</ele><time>2026-05-01T12:40:14.102Z</time></trkpt><trkpt lat="45.505255" lon="11.6229933"><ele>26.0</ele><time>2026-05-01T12:40:15.102Z</time></trkpt><trkpt lat="45.5051417" lon="11.6233867"><ele>27.0</ele><time>2026-05-01T12:40:16.101Z</time></trkpt><trkpt lat="45.5050317" lon="11.6237833"><ele>28.0</ele><time>2026-05-01T12:40:17.102Z</time></trkpt><trkpt lat="45.5049217" lon="11.6241767"><ele>27.5</ele><time>2026-05-01T12:40:18.101Z</time></trkpt><trkpt lat="45.5048067" lon="11.624565"><ele>27.0</ele><time>2026-05-01T12:40:19.102Z</time></trkpt><trkpt lat="45.5046917" lon="11.624945"><ele>27.5</ele><time>2026-05-01T12:40:20.101Z</time></trkpt><trkpt lat="45.50457" lon="11.6253267"><ele>28.0</ele><time>2026-05-01T12:40:21.101Z</time></trkpt><trkpt lat="45.50445" lon="11.6257117"><ele>28.0</ele><time>2026-05-01T12:40:22.101Z</time></trkpt><trkpt lat="45.50434" lon="11.6260933"><ele>28.0</ele><time>2026-05-01T12:40:23.102Z</time></trkpt><trkpt lat="45.5042333" lon="11.62646"><ele>27.5</ele><time>2026-05-01T12:40:24.102Z</time></trkpt><trkpt lat="45.50413" lon="11.6268233"><ele>27.0</ele><time>2026-05-01T12:40:25.102Z</time></trkpt><trkpt lat="45.5040333" lon="11.627185"><ele>27.0</ele><time>2026-05-01T12:40:26.101Z</time></trkpt><trkpt lat="45.5039383" lon="11.62754"><ele>27.0</ele><time>2026-05-01T12:40:27.101Z</time></trkpt><trkpt lat="45.503845" lon="11.62788"><ele>26.5</ele><time>2026-05-01T12:40:28.102Z</time></trkpt><trkpt lat="45.5037567" lon="11.628205"><ele>26.0</ele><time>2026-05-01T12:40:29.102Z</time></trkpt><trkpt lat="45.5036667" lon="11.6285183"><ele>27.0</ele><time>2026-05-01T12:40:30.101Z</time></trkpt><trkpt lat="45.5035767" lon="11.6288267"><ele>28.0</ele><time>2026-05-01T12:40:31.101Z</time></trkpt><trkpt lat="45.5034833" lon="11.6291333"><ele>28.0</ele><time>2026-05-01T12:40:32.101Z</time></trkpt><trkpt lat="45.50339" lon="11.6294417"><ele>28.0</ele><time>2026-05-01T12:40:33.101Z</time></trkpt><trkpt lat="45.5032967" lon="11.6297583"><ele>28.0</ele><time>2026-05-01T12:40:34.101Z</time></trkpt><trkpt lat="45.5032" lon="11.6300883"><ele>28.0</ele><time>2026-05-01T12:40:35.102Z</time></trkpt><trkpt lat="45.5031017" lon="11.6304183"><ele>28.0</ele><time>2026-05-01T12:40:36.101Z</time></trkpt><trkpt lat="45.5030067" lon="11.630755"><ele>28.0</ele><time>2026-05-01T12:40:37.102Z</time></trkpt><trkpt lat="45.5029117" lon="11.63109"><ele>27.0</ele><time>2026-05-01T12:40:38.101Z</time></trkpt><trkpt lat="45.502815" lon="11.6314283"><ele>26.0</ele><time>2026-05-01T12:40:39.101Z</time></trkpt><trkpt lat="45.502715" lon="11.6317683"><ele>26.0</ele><time>2026-05-01T12:40:40.102Z</time></trkpt><trkpt lat="45.5026117" lon="11.6321183"><ele>26.0</ele><time>2026-05-01T12:40:41.101Z</time></trkpt><trkpt lat="45.50251" lon="11.6324667"><ele>26.5</ele><time>2026-05-01T12:40:42.101Z</time></trkpt><trkpt lat="45.5024083" lon="11.6328183"><ele>27.0</ele><time>2026-05-01T12:40:43.101Z</time></trkpt><trkpt lat="45.5023067" lon="11.6331667"><ele>27.0</ele><time>2026-05-01T12:40:44.102Z</time></trkpt><trkpt lat="45.502195" lon="11.6335167"><ele>27.0</ele><time>2026-05-01T12:40:45.101Z</time></trkpt><trkpt lat="45.50208" lon="11.6338767"><ele>26.5</ele><time>2026-05-01T12:40:46.102Z</time></trkpt><trkpt lat="45.5019617" lon="11.6342467"><ele>26.0</ele><time>2026-05-01T12:40:47.101Z</time></trkpt><trkpt lat="45.501845" lon="11.6346283"><ele>26.5</ele><time>2026-05-01T12:40:48.102Z</time></trkpt><trkpt lat="45.5017333" lon="11.6350067"><ele>27.0</ele><time>2026-05-01T12:40:49.102Z</time></trkpt><trkpt lat="45.5016233" lon="11.6353767"><ele>27.0</ele><time>2026-05-01T12:40:50.102Z</time></trkpt><trkpt lat="45.501515" lon="11.6357333"><ele>27.0</ele><time>2026-05-01T12:40:51.102Z</time></trkpt><trkpt lat="45.5014083" lon="11.6360883"><ele>27.0</ele><time>2026-05-01T12:40:52.101Z</time></trkpt><trkpt lat="45.5012967" lon="11.6364383"><ele>27.0</ele><time>2026-05-01T12:40:53.101Z</time></trkpt><trkpt lat="45.50118" lon="11.636795"><ele>26.0</ele><time>2026-05-01T12:40:54.101Z</time></trkpt><trkpt lat="45.5010583" lon="11.6371483"><ele>25.0</ele><time>2026-05-01T12:40:55.101Z</time></trkpt><trkpt lat="45.5009433" lon="11.637475"><ele>25.0</ele><time>2026-05-01T12:40:56.101Z</time></trkpt><trkpt lat="45.5008317" lon="11.6377883"><ele>25.0</ele><time>2026-05-01T12:40:57.101Z</time></trkpt><trkpt lat="45.5007233" lon="11.6381033"><ele>25.0</ele><time>2026-05-01T12:40:58.101Z</time></trkpt><trkpt lat="45.500615" lon="11.6384233"><ele>25.0</ele><time>2026-05-01T12:40:59.102Z</time></trkpt><trkpt lat="45.5005" lon="11.6387533"><ele>25.0</ele><time>2026-05-01T12:41:00.102Z</time></trkpt><trkpt lat="45.5003833" lon="11.639085"><ele>25.0</ele><time>2026-05-01T12:41:01.102Z</time></trkpt><trkpt lat="45.500265" lon="11.6394283"><ele>24.5</ele><time>2026-05-01T12:41:02.101Z</time></trkpt><trkpt lat="45.5001417" lon="11.639765"><ele>24.0</ele><time>2026-05-01T12:41:03.101Z</time></trkpt><trkpt lat="45.500025" lon="11.640105"><ele>24.5</ele><time>2026-05-01T12:41:04.101Z</time></trkpt><trkpt lat="45.4999017" lon="11.6404517"><ele>25.0</ele><time>2026-05-01T12:41:05.102Z</time></trkpt><trkpt lat="45.49978" lon="11.6408017"><ele>25.5</ele><time>2026-05-01T12:41:06.101Z</time></trkpt><trkpt lat="45.4996517" lon="11.6411567"><ele>26.0</ele><time>2026-05-01T12:41:07.101Z</time></trkpt><trkpt lat="45.499525" lon="11.6415117"><ele>26.0</ele><time>2026-05-01T12:41:08.101Z</time></trkpt><trkpt lat="45.4994017" lon="11.6418683"><ele>26.0</ele><time>2026-05-01T12:41:09.101Z</time></trkpt><trkpt lat="45.4992767" lon="11.6422217"><ele>25.5</ele><time>2026-05-01T12:41:10.102Z</time></trkpt><trkpt lat="45.499155" lon="11.642575"><ele>25.0</ele><time>2026-05-01T12:41:11.102Z</time></trkpt><trkpt lat="45.499035" lon="11.6429183"><ele>26.0</ele><time>2026-05-01T12:41:12.101Z</time></trkpt><trkpt lat="45.498915" lon="11.6432667"><ele>27.0</ele><time>2026-05-01T12:41:13.102Z</time></trkpt><trkpt lat="45.4988" lon="11.6436083"><ele>26.5</ele><time>2026-05-01T12:41:14.101Z</time></trkpt><trkpt lat="45.4986867" lon="11.6439433"><ele>26.0</ele><time>2026-05-01T12:41:15.102Z</time></trkpt><trkpt lat="45.49857" lon="11.6442833"><ele>26.0</ele><time>2026-05-01T12:41:16.102Z</time></trkpt><trkpt lat="45.4984517" lon="11.6446183"><ele>26.0</ele><time>2026-05-01T12:41:17.102Z</time></trkpt><trkpt lat="45.4983367" lon="11.64495"><ele>26.0</ele><time>2026-05-01T12:41:18.101Z</time></trkpt><trkpt lat="45.49822" lon="11.6452817"><ele>26.0</ele><time>2026-05-01T12:41:19.101Z</time></trkpt><trkpt lat="45.4981067" lon="11.645615"><ele>26.5</ele><time>2026-05-01T12:41:20.101Z</time></trkpt><trkpt lat="45.4979883" lon="11.645945"><ele>27.0</ele><time>2026-05-01T12:41:21.101Z</time></trkpt><trkpt lat="45.49787" lon="11.6462783"><ele>26.0</ele><time>2026-05-01T12:41:22.101Z</time></trkpt><trkpt lat="45.4977567" lon="11.6466133"><ele>25.0</ele><time>2026-05-01T12:41:23.102Z</time></trkpt><trkpt lat="45.4976417" lon="11.6469417"><ele>25.0</ele><time>2026-05-01T12:41:24.101Z</time></trkpt><trkpt lat="45.4975283" lon="11.6472633"><ele>25.0</ele><time>2026-05-01T12:41:25.101Z</time></trkpt><trkpt lat="45.497415" lon="11.6475833"><ele>25.0</ele><time>2026-05-01T12:41:26.101Z</time></trkpt><trkpt lat="45.497305" lon="11.6478967"><ele>25.0</ele><time>2026-05-01T12:41:27.102Z</time></trkpt><trkpt lat="45.497195" lon="11.6482167"><ele>25.0</ele><time>2026-05-01T12:41:28.101Z</time></trkpt><trkpt lat="45.49708" lon="11.64854"><ele>25.0</ele><time>2026-05-01T12:41:29.101Z</time></trkpt><trkpt lat="45.496965" lon="11.648865"><ele>26.0</ele><time>2026-05-01T12:41:30.102Z</time></trkpt><trkpt lat="45.4968517" lon="11.64919"><ele>27.0</ele><time>2026-05-01T12:41:31.101Z</time></trkpt><trkpt lat="45.496735" lon="11.6495167"><ele>27.0</ele><time>2026-05-01T12:41:32.102Z</time></trkpt><trkpt lat="45.4966233" lon="11.6498467"><ele>27.0</ele><time>2026-05-01T12:41:33.101Z</time></trkpt><trkpt lat="45.49651" lon="11.6501783"><ele>27.0</ele><time>2026-05-01T12:41:34.101Z</time></trkpt><trkpt lat="45.4963933" lon="11.6505167"><ele>27.0</ele><time>2026-05-01T12:41:35.102Z</time></trkpt><trkpt lat="45.4962783" lon="11.650855"><ele>26.0</ele><time>2026-05-01T12:41:36.101Z</time></trkpt><trkpt lat="45.49616" lon="11.6511933"><ele>25.0</ele><time>2026-05-01T12:41:37.101Z</time></trkpt><trkpt lat="45.4960433" lon="11.6515383"><ele>25.0</ele><time>2026-05-01T12:41:38.101Z</time></trkpt><trkpt lat="45.495925" lon="11.651875"><ele>25.0</ele><time>2026-05-01T12:41:39.101Z</time></trkpt><trkpt lat="45.495805" lon="11.6522083"><ele>26.0</ele><time>2026-05-01T12:41:40.101Z</time></trkpt><trkpt lat="45.4956833" lon="11.6525483"><ele>27.0</ele><time>2026-05-01T12:41:41.101Z</time></trkpt><trkpt lat="45.4955667" lon="11.6528833"><ele>27.0</ele><time>2026-05-01T12:41:42.101Z</time></trkpt><trkpt lat="45.49545" lon="11.6532183"><ele>27.0</ele><time>2026-05-01T12:41:43.102Z</time></trkpt><trkpt lat="45.4953283" lon="11.6535617"><ele>26.5</ele><time>2026-05-01T12:41:44.101Z</time></trkpt><trkpt lat="45.4952117" lon="11.653905"><ele>26.0</ele><time>2026-05-01T12:41:45.101Z</time></trkpt><trkpt lat="45.4950917" lon="11.6542483"><ele>26.5</ele><time>2026-05-01T12:41:46.102Z</time></trkpt><trkpt lat="45.49497" lon="11.65459"><ele>27.0</ele><time>2026-05-01T12:41:47.101Z</time></trkpt><trkpt lat="45.4948533" lon="11.6549283"><ele>27.0</ele><time>2026-05-01T12:41:48.101Z</time></trkpt><trkpt lat="45.4947367" lon="11.655265"><ele>27.0</ele><time>2026-05-01T12:41:49.102Z</time></trkpt><trkpt lat="45.4946183" lon="11.6556117"><ele>25.5</ele><time>2026-05-01T12:41:50.101Z</time></trkpt><trkpt lat="45.4944967" lon="11.6559633"><ele>24.0</ele><time>2026-05-01T12:41:51.102Z</time></trkpt><trkpt lat="45.4943783" lon="11.6563117"><ele>24.0</ele><time>2026-05-01T12:41:52.101Z</time></trkpt><trkpt lat="45.4942567" lon="11.6566567"><ele>24.0</ele><time>2026-05-01T12:41:53.102Z</time></trkpt><trkpt lat="45.4941417" lon="11.657"><ele>24.0</ele><time>2026-05-01T12:41:54.101Z</time></trkpt><trkpt lat="45.494025" lon="11.6573417"><ele>24.0</ele><time>2026-05-01T12:41:55.101Z</time></trkpt><trkpt lat="45.4939117" lon="11.6576817"><ele>24.0</ele><time>2026-05-01T12:41:56.102Z</time></trkpt><trkpt lat="45.493795" lon="11.6580217"><ele>24.0</ele><time>2026-05-01T12:41:57.102Z</time></trkpt><trkpt lat="45.49368" lon="11.6583617"><ele>24.5</ele><time>2026-05-01T12:41:58.102Z</time></trkpt><trkpt lat="45.4935617" lon="11.658705"><ele>25.0</ele><time>2026-05-01T12:41:59.101Z</time></trkpt><trkpt lat="45.49344" lon="11.6590533"><ele>25.0</ele><time>2026-05-01T12:42:00.101Z</time></trkpt><trkpt lat="45.49332" lon="11.659405"><ele>25.0</ele><time>2026-05-01T12:42:01.101Z</time></trkpt><trkpt lat="45.4931967" lon="11.6597567"><ele>25.5</ele><time>2026-05-01T12:42:02.102Z</time></trkpt><trkpt lat="45.4930733" lon="11.660115"><ele>26.0</ele><time>2026-05-01T12:42:03.101Z</time></trkpt><trkpt lat="45.49295" lon="11.6604767"><ele>26.0</ele><time>2026-05-01T12:42:04.102Z</time></trkpt><trkpt lat="45.4928333" lon="11.66084"><ele>26.0</ele><time>2026-05-01T12:42:05.102Z</time></trkpt><trkpt lat="45.4927233" lon="11.66121"><ele>25.5</ele><time>2026-05-01T12:42:06.102Z</time></trkpt><trkpt lat="45.4926183" lon="11.66158"><ele>25.0</ele><time>2026-05-01T12:42:07.101Z</time></trkpt><trkpt lat="45.492515" lon="11.6619467"><ele>25.0</ele><time>2026-05-01T12:42:08.102Z</time></trkpt><trkpt lat="45.4924117" lon="11.662315"><ele>25.0</ele><time>2026-05-01T12:42:09.101Z</time></trkpt><trkpt lat="45.4923083" lon="11.6626817"><ele>25.5</ele><time>2026-05-01T12:42:10.101Z</time></trkpt><trkpt lat="45.4922067" lon="11.6630367"><ele>26.0</ele><time>2026-05-01T12:42:11.101Z</time></trkpt><trkpt lat="45.4921083" lon="11.66339"><ele>26.0</ele><time>2026-05-01T12:42:12.101Z</time></trkpt><trkpt lat="45.49202" lon="11.6637483"><ele>26.0</ele><time>2026-05-01T12:42:13.101Z</time></trkpt><trkpt lat="45.4919183" lon="11.6641083"><ele>25.5</ele><time>2026-05-01T12:42:14.101Z</time></trkpt><trkpt lat="45.4918267" lon="11.6644733"><ele>25.0</ele><time>2026-05-01T12:42:15.102Z</time></trkpt><trkpt lat="45.4917417" lon="11.6648617"><ele>25.0</ele><time>2026-05-01T12:42:16.101Z</time></trkpt><trkpt lat="45.491635" lon="11.6652433"><ele>25.0</ele><time>2026-05-01T12:42:17.101Z</time></trkpt><trkpt lat="45.4915267" lon="11.6656333"><ele>24.5</ele><time>2026-05-01T12:42:18.102Z</time></trkpt><trkpt lat="45.4914183" lon="11.6660317"><ele>24.0</ele><time>2026-05-01T12:42:19.101Z</time></trkpt><trkpt lat="45.491305" lon="11.666435"><ele>24.0</ele><time>2026-05-01T12:42:20.101Z</time></trkpt><trkpt lat="45.4911967" lon="11.6668467"><ele>24.0</ele><time>2026-05-01T12:42:21.102Z</time></trkpt><trkpt lat="45.4910883" lon="11.6672767"><ele>24.0</ele><time>2026-05-01T12:42:22.102Z</time></trkpt><trkpt lat="45.49097" lon="11.6677267"><ele>24.0</ele><time>2026-05-01T12:42:23.101Z</time></trkpt><trkpt lat="45.4908467" lon="11.668175"><ele>23.0</ele><time>2026-05-01T12:42:24.102Z</time></trkpt><trkpt lat="45.490725" lon="11.6686117"><ele>22.0</ele><time>2026-05-01T12:42:25.102Z</time></trkpt><trkpt lat="45.4906017" lon="11.6690267"><ele>22.0</ele><time>2026-05-01T12:42:26.102Z</time></trkpt><trkpt lat="45.4904817" lon="11.6694233"><ele>22.0</ele><time>2026-05-01T12:42:27.101Z</time></trkpt><trkpt lat="45.4903617" lon="11.6698283"><ele>22.0</ele><time>2026-05-01T12:42:28.101Z</time></trkpt><trkpt lat="45.4902467" lon="11.670235"><ele>22.0</ele><time>2026-05-01T12:42:29.102Z</time></trkpt><trkpt lat="45.4901317" lon="11.670645"><ele>22.0</ele><time>2026-05-01T12:42:30.102Z</time></trkpt><trkpt lat="45.4900233" lon="11.6710483"><ele>22.0</ele><time>2026-05-01T12:42:31.101Z</time></trkpt><trkpt lat="45.4899133" lon="11.67145"><ele>21.5</ele><time>2026-05-01T12:42:32.101Z</time></trkpt><trkpt lat="45.4898017" lon="11.6718517"><ele>21.0</ele><time>2026-05-01T12:42:33.102Z</time></trkpt><trkpt lat="45.4896917" lon="11.67225"><ele>21.0</ele><time>2026-05-01T12:42:34.102Z</time></trkpt><trkpt lat="45.48958" lon="11.6726533"><ele>21.0</ele><time>2026-05-01T12:42:35.101Z</time></trkpt><trkpt lat="45.48947" lon="11.67305"><ele>20.5</ele><time>2026-05-01T12:42:36.102Z</time></trkpt><trkpt lat="45.4893583" lon="11.6734433"><ele>20.0</ele><time>2026-05-01T12:42:37.101Z</time></trkpt><trkpt lat="45.4892483" lon="11.6738367"><ele>20.0</ele><time>2026-05-01T12:42:38.101Z</time></trkpt><trkpt lat="45.4891367" lon="11.674235"><ele>20.0</ele><time>2026-05-01T12:42:39.101Z</time></trkpt><trkpt lat="45.4890283" lon="11.6746317"><ele>20.0</ele><time>2026-05-01T12:42:40.102Z</time></trkpt><trkpt lat="45.48892" lon="11.6750267"><ele>20.0</ele><time>2026-05-01T12:42:41.101Z</time></trkpt><trkpt lat="45.4888167" lon="11.675415"><ele>20.5</ele><time>2026-05-01T12:42:42.102Z</time></trkpt><trkpt lat="45.488715" lon="11.6758033"><ele>21.0</ele><time>2026-05-01T12:42:43.102Z</time></trkpt><trkpt lat="45.48861" lon="11.676195"><ele>21.0</ele><time>2026-05-01T12:42:44.101Z</time></trkpt><trkpt lat="45.488505" lon="11.6765767"><ele>21.0</ele><time>2026-05-01T12:42:45.101Z</time></trkpt><trkpt lat="45.4884033" lon="11.6769417"><ele>21.5</ele><time>2026-05-01T12:42:46.102Z</time></trkpt><trkpt lat="45.488295" lon="11.6773017"><ele>22.0</ele><time>2026-05-01T12:42:47.101Z</time></trkpt><trkpt lat="45.4881883" lon="11.6776683"><ele>22.0</ele><time>2026-05-01T12:42:48.102Z</time></trkpt><trkpt lat="45.4880767" lon="11.6780383"><ele>22.0</ele><time>2026-05-01T12:42:49.101Z</time></trkpt><trkpt lat="45.4879633" lon="11.678415"><ele>21.5</ele><time>2026-05-01T12:42:50.101Z</time></trkpt><trkpt lat="45.48785" lon="11.6787917"><ele>21.0</ele><time>2026-05-01T12:42:51.101Z</time></trkpt><trkpt lat="45.4877267" lon="11.6791667"><ele>20.5</ele><time>2026-05-01T12:42:52.102Z</time></trkpt><trkpt lat="45.4876" lon="11.6795417"><ele>20.0</ele><time>2026-05-01T12:42:53.102Z</time></trkpt><trkpt lat="45.4874717" lon="11.67992"><ele>20.0</ele><time>2026-05-01T12:42:54.101Z</time></trkpt><trkpt lat="45.48734" lon="11.6802917"><ele>20.0</ele><time>2026-05-01T12:42:55.102Z</time></trkpt><trkpt lat="45.487205" lon="11.6806667"><ele>20.0</ele><time>2026-05-01T12:42:56.102Z</time></trkpt><trkpt lat="45.48707" lon="11.6810367"><ele>20.0</ele><time>2026-05-01T12:42:57.101Z</time></trkpt><trkpt lat="45.48693" lon="11.681405"><ele>20.5</ele><time>2026-05-01T12:42:58.102Z</time></trkpt><trkpt lat="45.4867917" lon="11.68177"><ele>21.0</ele><time>2026-05-01T12:42:59.101Z</time></trkpt><trkpt lat="45.4866567" lon="11.68213"><ele>21.5</ele><time>2026-05-01T12:43:00.102Z</time></trkpt><trkpt lat="45.486525" lon="11.6824883"><ele>22.0</ele><time>2026-05-01T12:43:01.102Z</time></trkpt><trkpt lat="45.48639" lon="11.6828467"><ele>23.0</ele><time>2026-05-01T12:43:02.101Z</time></trkpt><trkpt lat="45.486255" lon="11.6832033"><ele>24.0</ele><time>2026-05-01T12:43:03.102Z</time></trkpt><trkpt lat="45.4861183" lon="11.6835667"><ele>23.5</ele><time>2026-05-01T12:43:04.101Z</time></trkpt><trkpt lat="45.485985" lon="11.6839333"><ele>23.0</ele><time>2026-05-01T12:43:05.101Z</time></trkpt><trkpt lat="45.48585" lon="11.6843017"><ele>23.0</ele><time>2026-05-01T12:43:06.101Z</time></trkpt><trkpt lat="45.4857183" lon="11.6846683"><ele>23.0</ele><time>2026-05-01T12:43:07.102Z</time></trkpt><trkpt lat="45.4855883" lon="11.6850433"><ele>22.5</ele><time>2026-05-01T12:43:08.101Z</time></trkpt><trkpt lat="45.485455" lon="11.6854117"><ele>22.0</ele><time>2026-05-01T12:43:09.102Z</time></trkpt><trkpt lat="45.4853233" lon="11.68578"><ele>22.0</ele><time>2026-05-01T12:43:10.102Z</time></trkpt><trkpt lat="45.4851883" lon="11.6861417"><ele>22.0</ele><time>2026-05-01T12:43:11.102Z</time></trkpt><trkpt lat="45.4850633" lon="11.6864833"><ele>22.0</ele><time>2026-05-01T12:43:12.101Z</time></trkpt><trkpt lat="45.4849383" lon="11.6868183"><ele>22.0</ele><time>2026-05-01T12:43:13.102Z</time></trkpt><trkpt lat="45.48481" lon="11.6871533"><ele>22.0</ele><time>2026-05-01T12:43:14.101Z</time></trkpt><trkpt lat="45.4846833" lon="11.687485"><ele>22.0</ele><time>2026-05-01T12:43:15.101Z</time></trkpt><trkpt lat="45.4845567" lon="11.6878183"><ele>22.0</ele><time>2026-05-01T12:43:16.102Z</time></trkpt><trkpt lat="45.4844333" lon="11.68815"><ele>22.0</ele><time>2026-05-01T12:43:17.102Z</time></trkpt><trkpt lat="45.4843083" lon="11.68849"><ele>22.0</ele><time>2026-05-01T12:43:18.102Z</time></trkpt><trkpt lat="45.4841767" lon="11.6888317"><ele>22.0</ele><time>2026-05-01T12:43:19.102Z</time></trkpt><trkpt lat="45.484045" lon="11.6891767"><ele>21.5</ele><time>2026-05-01T12:43:20.102Z</time></trkpt><trkpt lat="45.483915" lon="11.6895283"><ele>21.0</ele><time>2026-05-01T12:43:21.101Z</time></trkpt><trkpt lat="45.4837883" lon="11.6898817"><ele>21.0</ele><time>2026-05-01T12:43:22.102Z</time></trkpt><trkpt lat="45.4836567" lon="11.6902333"><ele>21.0</ele><time>2026-05-01T12:43:23.101Z</time></trkpt><trkpt lat="45.483525" lon="11.69059"><ele>21.0</ele><time>2026-05-01T12:43:24.101Z</time></trkpt><trkpt lat="45.4834017" lon="11.6909433"><ele>21.0</ele><time>2026-05-01T12:43:25.101Z</time></trkpt><trkpt lat="45.48328" lon="11.691295"><ele>21.0</ele><time>2026-05-01T12:43:26.102Z</time></trkpt><trkpt lat="45.483165" lon="11.6916383"><ele>21.0</ele><time>2026-05-01T12:43:27.101Z</time></trkpt><trkpt lat="45.4830533" lon="11.69199"><ele>21.5</ele><time>2026-05-01T12:43:28.101Z</time></trkpt><trkpt lat="45.48294" lon="11.6923367"><ele>22.0</ele><time>2026-05-01T12:43:29.102Z</time></trkpt><trkpt lat="45.482825" lon="11.6926817"><ele>22.0</ele><time>2026-05-01T12:43:30.101Z</time></trkpt><trkpt lat="45.4827167" lon="11.69303"><ele>22.0</ele><time>2026-05-01T12:43:31.101Z</time></trkpt><trkpt lat="45.48261" lon="11.6933833"><ele>22.5</ele><time>2026-05-01T12:43:32.102Z</time></trkpt><trkpt lat="45.4824983" lon="11.6937383"><ele>23.0</ele><time>2026-05-01T12:43:33.101Z</time></trkpt><trkpt lat="45.4823817" lon="11.694085"><ele>22.5</ele><time>2026-05-01T12:43:34.102Z</time></trkpt><trkpt lat="45.4822683" lon="11.6944317"><ele>22.0</ele><time>2026-05-01T12:43:35.102Z</time></trkpt><trkpt lat="45.4821617" lon="11.6947633"><ele>22.0</ele><time>2026-05-01T12:43:36.101Z</time></trkpt><trkpt lat="45.482055" lon="11.695095"><ele>22.0</ele><time>2026-05-01T12:43:37.102Z</time></trkpt><trkpt lat="45.4819483" lon="11.6954267"><ele>21.5</ele><time>2026-05-01T12:43:38.101Z</time></trkpt><trkpt lat="45.4818417" lon="11.6957517"><ele>21.0</ele><time>2026-05-01T12:43:39.101Z</time></trkpt><trkpt lat="45.481735" lon="11.6960817"><ele>21.0</ele><time>2026-05-01T12:43:40.101Z</time></trkpt><trkpt lat="45.4816333" lon="11.6964083"><ele>21.0</ele><time>2026-05-01T12:43:41.102Z</time></trkpt><trkpt lat="45.4815283" lon="11.696735"><ele>21.5</ele><time>2026-05-01T12:43:42.102Z</time></trkpt><trkpt lat="45.48142" lon="11.697065"><ele>22.0</ele><time>2026-05-01T12:43:43.101Z</time></trkpt><trkpt lat="45.481305" lon="11.6974033"><ele>21.5</ele><time>2026-05-01T12:43:44.101Z</time></trkpt><trkpt lat="45.4811917" lon="11.6977383"><ele>21.0</ele><time>2026-05-01T12:43:45.101Z</time></trkpt><trkpt lat="45.4810817" lon="11.6980683"><ele>21.0</ele><time>2026-05-01T12:43:46.102Z</time></trkpt><trkpt lat="45.480985" lon="11.6983867"><ele>21.0</ele><time>2026-05-01T12:43:47.101Z</time></trkpt><trkpt lat="45.48088" lon="11.6987017"><ele>21.0</ele><time>2026-05-01T12:43:48.102Z</time></trkpt><trkpt lat="45.480775" lon="11.6990183"><ele>21.0</ele><time>2026-05-01T12:43:49.101Z</time></trkpt><trkpt lat="45.48067" lon="11.69934"><ele>21.0</ele><time>2026-05-01T12:43:50.101Z</time></trkpt><trkpt lat="45.4805617" lon="11.6996667"><ele>21.0</ele><time>2026-05-01T12:43:51.102Z</time></trkpt><trkpt lat="45.4804583" lon="11.6999867"><ele>22.0</ele><time>2026-05-01T12:43:52.101Z</time></trkpt><trkpt lat="45.480355" lon="11.7003"><ele>23.0</ele><time>2026-05-01T12:43:53.101Z</time></trkpt><trkpt lat="45.4802517" lon="11.700615"><ele>23.0</ele><time>2026-05-01T12:43:54.101Z</time></trkpt><trkpt lat="45.4801417" lon="11.700925"><ele>23.0</ele><time>2026-05-01T12:43:55.101Z</time></trkpt><trkpt lat="45.4800417" lon="11.7012433"><ele>22.5</ele><time>2026-05-01T12:43:56.101Z</time></trkpt><trkpt lat="45.479945" lon="11.7015733"><ele>22.0</ele><time>2026-05-01T12:43:57.102Z</time></trkpt><trkpt lat="45.479845" lon="11.70192"><ele>22.0</ele><time>2026-05-01T12:43:58.102Z</time></trkpt><trkpt lat="45.47974" lon="11.70227"><ele>22.0</ele><time>2026-05-01T12:43:59.101Z</time></trkpt><trkpt lat="45.4796317" lon="11.702615"><ele>23.0</ele><time>2026-05-01T12:44:00.102Z</time></trkpt><trkpt lat="45.4795233" lon="11.702955"><ele>24.0</ele><time>2026-05-01T12:44:01.101Z</time></trkpt><trkpt lat="45.4794167" lon="11.70328"><ele>24.5</ele><time>2026-05-01T12:44:02.102Z</time></trkpt><trkpt lat="45.4793083" lon="11.7036017"><ele>25.0</ele><time>2026-05-01T12:44:03.102Z</time></trkpt><trkpt lat="45.4792017" lon="11.7039333"><ele>25.0</ele><time>2026-05-01T12:44:04.101Z</time></trkpt><trkpt lat="45.4791" lon="11.7042767"><ele>25.0</ele><time>2026-05-01T12:44:05.101Z</time></trkpt><trkpt lat="45.47899" lon="11.7046267"><ele>24.0</ele><time>2026-05-01T12:44:06.102Z</time></trkpt><trkpt lat="45.4788733" lon="11.7049717"><ele>23.0</ele><time>2026-05-01T12:44:07.102Z</time></trkpt><trkpt lat="45.4787567" lon="11.70532"><ele>23.0</ele><time>2026-05-01T12:44:08.102Z</time></trkpt><trkpt lat="45.4786467" lon="11.7056683"><ele>23.0</ele><time>2026-05-01T12:44:09.102Z</time></trkpt><trkpt lat="45.4785367" lon="11.7060133"><ele>23.0</ele><time>2026-05-01T12:44:10.101Z</time></trkpt><trkpt lat="45.4784317" lon="11.706355"><ele>23.0</ele><time>2026-05-01T12:44:11.101Z</time></trkpt><trkpt lat="45.4783133" lon="11.706715"><ele>22.5</ele><time>2026-05-01T12:44:12.101Z</time></trkpt><trkpt lat="45.4782" lon="11.7070733"><ele>22.0</ele><time>2026-05-01T12:44:13.101Z</time></trkpt><trkpt lat="45.4780733" lon="11.7074517"><ele>22.0</ele><time>2026-05-01T12:44:14.102Z</time></trkpt><trkpt lat="45.4779467" lon="11.7078367"><ele>22.0</ele><time>2026-05-01T12:44:15.102Z</time></trkpt><trkpt lat="45.4778183" lon="11.7082333"><ele>22.5</ele><time>2026-05-01T12:44:16.101Z</time></trkpt><trkpt lat="45.4776917" lon="11.7086367"><ele>23.0</ele><time>2026-05-01T12:44:17.101Z</time></trkpt><trkpt lat="45.4775633" lon="11.7090433"><ele>22.0</ele><time>2026-05-01T12:44:18.101Z</time></trkpt><trkpt lat="45.4774333" lon="11.7094517"><ele>21.0</ele><time>2026-05-01T12:44:19.102Z</time></trkpt><trkpt lat="45.4772983" lon="11.7098633"><ele>21.0</ele><time>2026-05-01T12:44:20.102Z</time></trkpt><trkpt lat="45.4771617" lon="11.7102633"><ele>21.0</ele><time>2026-05-01T12:44:21.101Z</time></trkpt><trkpt lat="45.4770217" lon="11.710655"><ele>21.0</ele><time>2026-05-01T12:44:22.102Z</time></trkpt><trkpt lat="45.476885" lon="11.711045"><ele>21.0</ele><time>2026-05-01T12:44:23.101Z</time></trkpt><trkpt lat="45.47675" lon="11.711435"><ele>21.0</ele><time>2026-05-01T12:44:24.101Z</time></trkpt><trkpt lat="45.4766133" lon="11.71183"><ele>21.0</ele><time>2026-05-01T12:44:25.101Z</time></trkpt><trkpt lat="45.47648" lon="11.7122233"><ele>21.0</ele><time>2026-05-01T12:44:26.101Z</time></trkpt><trkpt lat="45.476345" lon="11.71261"><ele>21.0</ele><time>2026-05-01T12:44:27.101Z</time></trkpt><trkpt lat="45.4762133" lon="11.7129983"><ele>21.0</ele><time>2026-05-01T12:44:28.102Z</time></trkpt><trkpt lat="45.4760817" lon="11.7133833"><ele>21.0</ele><time>2026-05-01T12:44:29.101Z</time></trkpt><trkpt lat="45.4759567" lon="11.7137683"><ele>21.0</ele><time>2026-05-01T12:44:30.101Z</time></trkpt><trkpt lat="45.4758317" lon="11.7141567"><ele>21.0</ele><time>2026-05-01T12:44:31.101Z</time></trkpt><trkpt lat="45.4757083" lon="11.7145417"><ele>21.5</ele><time>2026-05-01T12:44:32.102Z</time></trkpt><trkpt lat="45.475585" lon="11.714925"><ele>22.0</ele><time>2026-05-01T12:44:33.102Z</time></trkpt><trkpt lat="45.4754633" lon="11.7153033"><ele>21.5</ele><time>2026-05-01T12:44:34.101Z</time></trkpt><trkpt lat="45.4753417" lon="11.7156833"><ele>21.0</ele><time>2026-05-01T12:44:35.102Z</time></trkpt><trkpt lat="45.47522" lon="11.71606"><ele>20.5</ele><time>2026-05-01T12:44:36.102Z</time></trkpt><trkpt lat="45.4750967" lon="11.7164433"><ele>20.0</ele><time>2026-05-01T12:44:37.101Z</time></trkpt><trkpt lat="45.4749767" lon="11.7168283"><ele>19.5</ele><time>2026-05-01T12:44:38.102Z</time></trkpt><trkpt lat="45.47485" lon="11.7172083"><ele>19.0</ele><time>2026-05-01T12:44:39.101Z</time></trkpt><trkpt lat="45.4747233" lon="11.7175917"><ele>19.0</ele><time>2026-05-01T12:44:40.101Z</time></trkpt><trkpt lat="45.4746033" lon="11.7179783"><ele>19.0</ele><time>2026-05-01T12:44:41.102Z</time></trkpt><trkpt lat="45.474475" lon="11.718365"><ele>19.5</ele><time>2026-05-01T12:44:42.101Z</time></trkpt><trkpt lat="45.4743433" lon="11.7187533"><ele>20.0</ele><time>2026-05-01T12:44:43.101Z</time></trkpt><trkpt lat="45.4742117" lon="11.7191483"><ele>19.5</ele><time>2026-05-01T12:44:44.102Z</time></trkpt><trkpt lat="45.47408" lon="11.7195483"><ele>19.0</ele><time>2026-05-01T12:44:45.101Z</time></trkpt><trkpt lat="45.47395" lon="11.7199583"><ele>19.0</ele><time>2026-05-01T12:44:46.101Z</time></trkpt><trkpt lat="45.4738167" lon="11.7203667"><ele>19.0</ele><time>2026-05-01T12:44:47.102Z</time></trkpt><trkpt lat="45.473685" lon="11.720775"><ele>20.0</ele><time>2026-05-01T12:44:48.102Z</time></trkpt><trkpt lat="45.4735533" lon="11.7211883"><ele>21.0</ele><time>2026-05-01T12:44:49.102Z</time></trkpt><trkpt lat="45.4734183" lon="11.7216033"><ele>20.0</ele><time>2026-05-01T12:44:50.102Z</time></trkpt><trkpt lat="45.4732833" lon="11.72202"><ele>19.0</ele><time>2026-05-01T12:44:51.102Z</time></trkpt><trkpt lat="45.473145" lon="11.7224383"><ele>19.0</ele><time>2026-05-01T12:44:52.102Z</time></trkpt><trkpt lat="45.4730083" lon="11.72286"><ele>19.0</ele><time>2026-05-01T12:44:53.101Z</time></trkpt><trkpt lat="45.472875" lon="11.7232783"><ele>19.0</ele><time>2026-05-01T12:44:54.101Z</time></trkpt><trkpt lat="45.4727383" lon="11.7237017"><ele>19.0</ele><time>2026-05-01T12:44:55.102Z</time></trkpt><trkpt lat="45.472605" lon="11.7241183"><ele>18.5</ele><time>2026-05-01T12:44:56.101Z</time></trkpt><trkpt lat="45.4724733" lon="11.72452"><ele>18.0</ele><time>2026-05-01T12:44:57.102Z</time></trkpt><trkpt lat="45.4723483" lon="11.7249067"><ele>18.0</ele><time>2026-05-01T12:44:58.102Z</time></trkpt><trkpt lat="45.4722267" lon="11.7252933"><ele>18.0</ele><time>2026-05-01T12:44:59.102Z</time></trkpt><trkpt lat="45.472095" lon="11.7256783"><ele>18.5</ele><time>2026-05-01T12:45:00.101Z</time></trkpt><trkpt lat="45.4719683" lon="11.7260617"><ele>19.0</ele><time>2026-05-01T12:45:01.101Z</time></trkpt><trkpt lat="45.471845" lon="11.7264467"><ele>19.0</ele><time>2026-05-01T12:45:02.101Z</time></trkpt><trkpt lat="45.4717233" lon="11.7268383"><ele>19.0</ele><time>2026-05-01T12:45:03.101Z</time></trkpt><trkpt lat="45.4716017" lon="11.7272367"><ele>19.0</ele><time>2026-05-01T12:45:04.102Z</time></trkpt><trkpt lat="45.471475" lon="11.7276333"><ele>19.0</ele><time>2026-05-01T12:45:05.101Z</time></trkpt><trkpt lat="45.4713483" lon="11.728035"><ele>18.5</ele><time>2026-05-01T12:45:06.101Z</time></trkpt><trkpt lat="45.4712183" lon="11.728435"><ele>18.0</ele><time>2026-05-01T12:45:07.101Z</time></trkpt><trkpt lat="45.4710883" lon="11.7288417"><ele>18.0</ele><time>2026-05-01T12:45:08.102Z</time></trkpt><trkpt lat="45.4709583" lon="11.72925"><ele>18.0</ele><time>2026-05-01T12:45:09.102Z</time></trkpt><trkpt lat="45.4708333" lon="11.7296467"><ele>18.0</ele><time>2026-05-01T12:45:10.102Z</time></trkpt><trkpt lat="45.47071" lon="11.730035"><ele>18.0</ele><time>2026-05-01T12:45:11.101Z</time></trkpt><trkpt lat="45.4705767" lon="11.730425"><ele>17.5</ele><time>2026-05-01T12:45:12.101Z</time></trkpt><trkpt lat="45.47045" lon="11.73082"><ele>17.0</ele><time>2026-05-01T12:45:13.101Z</time></trkpt><trkpt lat="45.4703217" lon="11.7312183"><ele>18.0</ele><time>2026-05-01T12:45:14.102Z</time></trkpt><trkpt lat="45.470195" lon="11.73161"><ele>19.0</ele><time>2026-05-01T12:45:15.102Z</time></trkpt><trkpt lat="45.4700633" lon="11.7320083"><ele>19.0</ele><time>2026-05-01T12:45:16.101Z</time></trkpt><trkpt lat="45.46994" lon="11.7324"><ele>19.0</ele><time>2026-05-01T12:45:17.102Z</time></trkpt><trkpt lat="45.46981" lon="11.7327867"><ele>18.5</ele><time>2026-05-01T12:45:18.101Z</time></trkpt><trkpt lat="45.46968" lon="11.7331733"><ele>18.0</ele><time>2026-05-01T12:45:19.101Z</time></trkpt><trkpt lat="45.4695483" lon="11.73356"><ele>18.0</ele><time>2026-05-01T12:45:20.102Z</time></trkpt><trkpt lat="45.469425" lon="11.733955"><ele>18.0</ele><time>2026-05-01T12:45:21.102Z</time></trkpt><trkpt lat="45.4693067" lon="11.7343517"><ele>18.0</ele><time>2026-05-01T12:45:22.101Z</time></trkpt><trkpt lat="45.4691967" lon="11.7347567"><ele>18.0</ele><time>2026-05-01T12:45:23.101Z</time></trkpt><trkpt lat="45.4690917" lon="11.7351667"><ele>17.5</ele><time>2026-05-01T12:45:24.101Z</time></trkpt><trkpt lat="45.4689917" lon="11.7355833"><ele>17.0</ele><time>2026-05-01T12:45:25.101Z</time></trkpt><trkpt lat="45.4688983" lon="11.7360017"><ele>17.0</ele><time>2026-05-01T12:45:26.101Z</time></trkpt><trkpt lat="45.468805" lon="11.7364267"><ele>17.0</ele><time>2026-05-01T12:45:27.101Z</time></trkpt><trkpt lat="45.4687167" lon="11.73685"><ele>16.5</ele><time>2026-05-01T12:45:28.102Z</time></trkpt><trkpt lat="45.468635" lon="11.7372783"><ele>16.0</ele><time>2026-05-01T12:45:29.102Z</time></trkpt><trkpt lat="45.4685567" lon="11.73771"><ele>16.5</ele><time>2026-05-01T12:45:30.102Z</time></trkpt><trkpt lat="45.4684817" lon="11.738145"><ele>17.0</ele><time>2026-05-01T12:45:31.101Z</time></trkpt><trkpt lat="45.4684083" lon="11.7385817"><ele>17.0</ele><time>2026-05-01T12:45:32.101Z</time></trkpt><trkpt lat="45.46834" lon="11.73902"><ele>17.0</ele><time>2026-05-01T12:45:33.102Z</time></trkpt><trkpt lat="45.46827" lon="11.7394617"><ele>17.0</ele><time>2026-05-01T12:45:34.101Z</time></trkpt><trkpt lat="45.4682" lon="11.7399033"><ele>17.0</ele><time>2026-05-01T12:45:35.101Z</time></trkpt><trkpt lat="45.4681217" lon="11.7403467"><ele>17.0</ele><time>2026-05-01T12:45:36.102Z</time></trkpt><trkpt lat="45.4680517" lon="11.7407917"><ele>17.0</ele><time>2026-05-01T12:45:37.102Z</time></trkpt><trkpt lat="45.4679783" lon="11.7412267"><ele>17.0</ele><time>2026-05-01T12:45:38.101Z</time></trkpt><trkpt lat="45.467905" lon="11.7416533"><ele>17.0</ele><time>2026-05-01T12:45:39.101Z</time></trkpt><trkpt lat="45.46784" lon="11.7420717"><ele>17.0</ele><time>2026-05-01T12:45:40.102Z</time></trkpt><trkpt lat="45.4677717" lon="11.7424917"><ele>17.0</ele><time>2026-05-01T12:45:41.102Z</time></trkpt><trkpt lat="45.467705" lon="11.74291"><ele>16.5</ele><time>2026-05-01T12:45:42.101Z</time></trkpt><trkpt lat="45.4676383" lon="11.74333"><ele>16.0</ele><time>2026-05-01T12:45:43.102Z</time></trkpt><trkpt lat="45.46757" lon="11.743755"><ele>16.0</ele><time>2026-05-01T12:45:44.102Z</time></trkpt><trkpt lat="45.4675" lon="11.7441733"><ele>16.0</ele><time>2026-05-01T12:45:45.102Z</time></trkpt><trkpt lat="45.4674333" lon="11.7445917"><ele>17.0</ele><time>2026-05-01T12:45:46.102Z</time></trkpt><trkpt lat="45.4673667" lon="11.7450067"><ele>18.0</ele><time>2026-05-01T12:45:47.102Z</time></trkpt><trkpt lat="45.4673017" lon="11.74542"><ele>18.5</ele><time>2026-05-01T12:45:48.101Z</time></trkpt><trkpt lat="45.4672317" lon="11.7458383"><ele>19.0</ele><time>2026-05-01T12:45:49.101Z</time></trkpt><trkpt lat="45.4671667" lon="11.7462567"><ele>19.0</ele><time>2026-05-01T12:45:50.102Z</time></trkpt><trkpt lat="45.4671" lon="11.746675"><ele>19.0</ele><time>2026-05-01T12:45:51.102Z</time></trkpt><trkpt lat="45.4670333" lon="11.7470933"><ele>19.0</ele><time>2026-05-01T12:45:52.101Z</time></trkpt><trkpt lat="45.4669633" lon="11.7475167"><ele>19.0</ele><time>2026-05-01T12:45:53.102Z</time></trkpt><trkpt lat="45.4668933" lon="11.74794"><ele>19.0</ele><time>2026-05-01T12:45:54.101Z</time></trkpt><trkpt lat="45.466825" lon="11.7483583"><ele>19.0</ele><time>2026-05-01T12:45:55.102Z</time></trkpt><trkpt lat="45.466755" lon="11.748785"><ele>19.0</ele><time>2026-05-01T12:45:56.101Z</time></trkpt><trkpt lat="45.4666833" lon="11.7492133"><ele>19.0</ele><time>2026-05-01T12:45:57.101Z</time></trkpt><trkpt lat="45.4666133" lon="11.7496417"><ele>19.5</ele><time>2026-05-01T12:45:58.101Z</time></trkpt><trkpt lat="45.4665483" lon="11.750075"><ele>20.0</ele><time>2026-05-01T12:45:59.101Z</time></trkpt><trkpt lat="45.4664817" lon="11.7505017"><ele>20.5</ele><time>2026-05-01T12:46:00.101Z</time></trkpt><trkpt lat="45.4664133" lon="11.7509233"><ele>21.0</ele><time>2026-05-01T12:46:01.101Z</time></trkpt><trkpt lat="45.466345" lon="11.7513417"><ele>21.0</ele><time>2026-05-01T12:46:02.101Z</time></trkpt><trkpt lat="45.4662783" lon="11.751755"><ele>21.0</ele><time>2026-05-01T12:46:03.101Z</time></trkpt><trkpt lat="45.466215" lon="11.7521683"><ele>20.5</ele><time>2026-05-01T12:46:04.101Z</time></trkpt><trkpt lat="45.4661483" lon="11.7525867"><ele>20.0</ele><time>2026-05-01T12:46:05.101Z</time></trkpt><trkpt lat="45.4660817" lon="11.7530133"><ele>20.0</ele><time>2026-05-01T12:46:06.101Z</time></trkpt><trkpt lat="45.4660117" lon="11.753445"><ele>20.0</ele><time>2026-05-01T12:46:07.102Z</time></trkpt><trkpt lat="45.4659417" lon="11.7538833"><ele>20.5</ele><time>2026-05-01T12:46:08.101Z</time></trkpt><trkpt lat="45.46587" lon="11.75432"><ele>21.0</ele><time>2026-05-01T12:46:09.101Z</time></trkpt><trkpt lat="45.4657983" lon="11.7547717"><ele>21.0</ele><time>2026-05-01T12:46:10.102Z</time></trkpt><trkpt lat="45.4657267" lon="11.7552217"><ele>21.0</ele><time>2026-05-01T12:46:11.101Z</time></trkpt><trkpt lat="45.46565" lon="11.7556783"><ele>20.5</ele><time>2026-05-01T12:46:12.101Z</time></trkpt><trkpt lat="45.4655817" lon="11.7561233"><ele>20.0</ele><time>2026-05-01T12:46:13.101Z</time></trkpt><trkpt lat="45.46551" lon="11.7565483"><ele>20.0</ele><time>2026-05-01T12:46:14.102Z</time></trkpt><trkpt lat="45.4654467" lon="11.7569717"><ele>20.0</ele><time>2026-05-01T12:46:15.101Z</time></trkpt><trkpt lat="45.4653767" lon="11.7573933"><ele>20.5</ele><time>2026-05-01T12:46:16.101Z</time></trkpt><trkpt lat="45.4653033" lon="11.7578117"><ele>21.0</ele><time>2026-05-01T12:46:17.102Z</time></trkpt><trkpt lat="45.4652333" lon="11.7582333"><ele>21.0</ele><time>2026-05-01T12:46:18.101Z</time></trkpt><trkpt lat="45.4651633" lon="11.7586583"><ele>21.0</ele><time>2026-05-01T12:46:19.102Z</time></trkpt><trkpt lat="45.4650967" lon="11.7590833"><ele>20.0</ele><time>2026-05-01T12:46:20.102Z</time></trkpt><trkpt lat="45.4650317" lon="11.75951"><ele>19.0</ele><time>2026-05-01T12:46:21.102Z</time></trkpt><trkpt lat="45.464965" lon="11.7599367"><ele>18.5</ele><time>2026-05-01T12:46:22.101Z</time></trkpt><trkpt lat="45.4648983" lon="11.7603633"><ele>18.0</ele><time>2026-05-01T12:46:23.102Z</time></trkpt><trkpt lat="45.4648333" lon="11.7607867"><ele>17.5</ele><time>2026-05-01T12:46:24.101Z</time></trkpt><trkpt lat="45.464765" lon="11.7612033"><ele>17.0</ele><time>2026-05-01T12:46:25.101Z</time></trkpt><trkpt lat="45.4646933" lon="11.7616167"><ele>17.5</ele><time>2026-05-01T12:46:26.101Z</time></trkpt><trkpt lat="45.4646233" lon="11.7620283"><ele>18.0</ele><time>2026-05-01T12:46:27.101Z</time></trkpt><trkpt lat="45.46455" lon="11.7624417"><ele>18.5</ele><time>2026-05-01T12:46:28.101Z</time></trkpt><trkpt lat="45.4644767" lon="11.76285"><ele>19.0</ele><time>2026-05-01T12:46:29.102Z</time></trkpt><trkpt lat="45.464395" lon="11.7632667"><ele>18.5</ele><time>2026-05-01T12:46:30.102Z</time></trkpt><trkpt lat="45.464305" lon="11.7636817"><ele>18.0</ele><time>2026-05-01T12:46:31.101Z</time></trkpt><trkpt lat="45.4642067" lon="11.7641017"><ele>18.0</ele><time>2026-05-01T12:46:32.102Z</time></trkpt><trkpt lat="45.464105" lon="11.764515"><ele>18.0</ele><time>2026-05-01T12:46:33.102Z</time></trkpt><trkpt lat="45.463995" lon="11.764935"><ele>18.0</ele><time>2026-05-01T12:46:34.102Z</time></trkpt><trkpt lat="45.46388" lon="11.765355"><ele>18.0</ele><time>2026-05-01T12:46:35.102Z</time></trkpt><trkpt lat="45.4637617" lon="11.7657683"><ele>17.5</ele><time>2026-05-01T12:46:36.101Z</time></trkpt><trkpt lat="45.4636367" lon="11.7661683"><ele>17.0</ele><time>2026-05-01T12:46:37.102Z</time></trkpt><trkpt lat="45.463515" lon="11.7665633"><ele>17.5</ele><time>2026-05-01T12:46:38.102Z</time></trkpt><trkpt lat="45.463395" lon="11.7669533"><ele>18.0</ele><time>2026-05-01T12:46:39.101Z</time></trkpt><trkpt lat="45.4632733" lon="11.767345"><ele>17.5</ele><time>2026-05-01T12:46:40.102Z</time></trkpt><trkpt lat="45.4631533" lon="11.76774"><ele>17.0</ele><time>2026-05-01T12:46:41.102Z</time></trkpt><trkpt lat="45.4630317" lon="11.7681333"><ele>16.5</ele><time>2026-05-01T12:46:42.101Z</time></trkpt><trkpt lat="45.462915" lon="11.7685283"><ele>16.0</ele><time>2026-05-01T12:46:43.101Z</time></trkpt><trkpt lat="45.4627967" lon="11.76892"><ele>16.0</ele><time>2026-05-01T12:46:44.102Z</time></trkpt><trkpt lat="45.46268" lon="11.7693083"><ele>16.0</ele><time>2026-05-01T12:46:45.102Z</time></trkpt><trkpt lat="45.4625633" lon="11.7696967"><ele>16.5</ele><time>2026-05-01T12:46:46.102Z</time></trkpt><trkpt lat="45.4624433" lon="11.77009"><ele>17.0</ele><time>2026-05-01T12:46:47.101Z</time></trkpt><trkpt lat="45.462325" lon="11.7704817"><ele>17.5</ele><time>2026-05-01T12:46:48.101Z</time></trkpt><trkpt lat="45.4622067" lon="11.7708767"><ele>18.0</ele><time>2026-05-01T12:46:49.101Z</time></trkpt><trkpt lat="45.4620883" lon="11.771275"><ele>18.0</ele><time>2026-05-01T12:46:50.101Z</time></trkpt><trkpt lat="45.4619633" lon="11.7716717"><ele>18.0</ele><time>2026-05-01T12:46:51.102Z</time></trkpt><trkpt lat="45.4618433" lon="11.7720733"><ele>18.0</ele><time>2026-05-01T12:46:52.101Z</time></trkpt><trkpt lat="45.461725" lon="11.7724783"><ele>18.0</ele><time>2026-05-01T12:46:53.102Z</time></trkpt><trkpt lat="45.4615983" lon="11.7728833"><ele>18.0</ele><time>2026-05-01T12:46:54.102Z</time></trkpt><trkpt lat="45.461475" lon="11.7732933"><ele>18.0</ele><time>2026-05-01T12:46:55.101Z</time></trkpt><trkpt lat="45.4613483" lon="11.773705"><ele>17.5</ele><time>2026-05-01T12:46:56.102Z</time></trkpt><trkpt lat="45.4612233" lon="11.7741167"><ele>17.0</ele><time>2026-05-01T12:46:57.102Z</time></trkpt><trkpt lat="45.4610967" lon="11.774525"><ele>16.5</ele><time>2026-05-01T12:46:58.101Z</time></trkpt><trkpt lat="45.4609717" lon="11.7749333"><ele>16.0</ele><time>2026-05-01T12:46:59.102Z</time></trkpt><trkpt lat="45.460845" lon="11.7753367"><ele>17.0</ele><time>2026-05-01T12:47:00.101Z</time></trkpt><trkpt lat="45.4607233" lon="11.7757417"><ele>18.0</ele><time>2026-05-01T12:47:01.102Z</time></trkpt><trkpt lat="45.4606" lon="11.7761433"><ele>18.0</ele><time>2026-05-01T12:47:02.101Z</time></trkpt><trkpt lat="45.460475" lon="11.7765417"><ele>18.0</ele><time>2026-05-01T12:47:03.102Z</time></trkpt><trkpt lat="45.4603517" lon="11.776945"><ele>18.0</ele><time>2026-05-01T12:47:04.101Z</time></trkpt><trkpt lat="45.46023" lon="11.7773567"><ele>18.0</ele><time>2026-05-01T12:47:05.102Z</time></trkpt><trkpt lat="45.4601083" lon="11.7777567"><ele>18.0</ele><time>2026-05-01T12:47:06.101Z</time></trkpt><trkpt lat="45.46388" lon="11.765355"><ele>17.5</ele><time>2026-05-01T12:46:35.102Z</time></trkpt><trkpt lat="45.4637617" lon="11.7657683"><ele>17.0</ele><time>2026-05-01T12:46:36.101Z</time></trkpt><trkpt lat="45.4636367" lon="11.7661683"><ele>17.0</ele><time>2026-05-01T12:46:37.102Z</time></trkpt><trkpt lat="45.463515" lon="11.7665633"><ele>17.0</ele><time>2026-05-01T12:46:38.102Z</time></trkpt><trkpt lat="45.463395" lon="11.7669533"><ele>17.0</ele><time>2026-05-01T12:46:39.101Z</time></trkpt><trkpt lat="45.4632733" lon="11.767345"><ele>17.0</ele><time>2026-05-01T12:46:40.102Z</time></trkpt><trkpt lat="45.4631533" lon="11.76774"><ele>17.0</ele><time>2026-05-01T12:46:41.102Z</time></trkpt><trkpt lat="45.4630317" lon="11.7681333"><ele>17.0</ele><time>2026-05-01T12:46:42.101Z</time></trkpt><trkpt lat="45.462915" lon="11.7685283"><ele>16.5</ele><time>2026-05-01T12:46:43.101Z</time></trkpt><trkpt lat="45.4627967" lon="11.76892"><ele>16.0</ele><time>2026-05-01T12:46:44.102Z</time></trkpt><trkpt lat="45.46268" lon="11.7693083"><ele>16.5</ele><time>2026-05-01T12:46:45.102Z</time></trkpt><trkpt lat="45.4625633" lon="11.7696967"><ele>17.0</ele><time>2026-05-01T12:46:46.102Z</time></trkpt><trkpt lat="45.4624433" lon="11.77009"><ele>17.5</ele><time>2026-05-01T12:46:47.101Z</time></trkpt><trkpt lat="45.462325" lon="11.7704817"><ele>18.0</ele><time>2026-05-01T12:46:48.101Z</time></trkpt><trkpt lat="45.4622067" lon="11.7708767"><ele>18.0</ele><time>2026-05-01T12:46:49.101Z</time></trkpt><trkpt lat="45.4620883" lon="11.771275"><ele>18.0</ele><time>2026-05-01T12:46:50.101Z</time></trkpt><trkpt lat="45.4619633" lon="11.7716717"><ele>18.0</ele><time>2026-05-01T12:46:51.102Z</time></trkpt><trkpt lat="45.4618433" lon="11.7720733"><ele>18.0</ele><time>2026-05-01T12:46:52.101Z</time></trkpt><trkpt lat="45.461725" lon="11.7724783"><ele>18.0</ele><time>2026-05-01T12:46:53.102Z</time></trkpt><trkpt lat="45.4615983" lon="11.7728833"><ele>18.0</ele><time>2026-05-01T12:46:54.102Z</time></trkpt><trkpt lat="45.461475" lon="11.7732933"><ele>18.0</ele><time>2026-05-01T12:46:55.101Z</time></trkpt><trkpt lat="45.4613483" lon="11.773705"><ele>18.0</ele><time>2026-05-01T12:46:56.102Z</time></trkpt><trkpt lat="45.4612233" lon="11.7741167"><ele>17.0</ele><time>2026-05-01T12:46:57.102Z</time></trkpt><trkpt lat="45.4610967" lon="11.774525"><ele>16.0</ele><time>2026-05-01T12:46:58.101Z</time></trkpt><trkpt lat="45.4609717" lon="11.7749333"><ele>17.0</ele><time>2026-05-01T12:46:59.102Z</time></trkpt><trkpt lat="45.460845" lon="11.7753367"><ele>18.0</ele><time>2026-05-01T12:47:00.101Z</time></trkpt><trkpt lat="45.4607233" lon="11.7757417"><ele>19.0</ele><time>2026-05-01T12:47:01.102Z</time></trkpt><trkpt lat="45.4606" lon="11.7761433"><ele>20.0</ele><time>2026-05-01T12:47:02.101Z</time></trkpt><trkpt lat="45.460475" lon="11.7765417"><ele>19.0</ele><time>2026-05-01T12:47:03.102Z</time></trkpt><trkpt lat="45.4603517" lon="11.776945"><ele>18.0</ele><time>2026-05-01T12:47:04.101Z</time></trkpt><trkpt lat="45.46023" lon="11.7773567"><ele>18.0</ele><time>2026-05-01T12:47:05.102Z</time></trkpt><trkpt lat="45.4601083" lon="11.7777567"><ele>18.0</ele><time>2026-05-01T12:47:06.101Z</time></trkpt><trkpt lat="45.4599867" lon="11.7781617"><ele>17.5</ele><time>2026-05-01T12:47:07.101Z</time></trkpt><trkpt lat="45.4598683" lon="11.7785667"><ele>17.0</ele><time>2026-05-01T12:47:08.101Z</time></trkpt><trkpt lat="45.4597483" lon="11.7789683"><ele>17.0</ele><time>2026-05-01T12:47:09.101Z</time></trkpt><trkpt lat="45.4596283" lon="11.7793717"><ele>17.0</ele><time>2026-05-01T12:47:10.101Z</time></trkpt><trkpt lat="45.45951" lon="11.7797767"><ele>17.0</ele><time>2026-05-01T12:47:11.101Z</time></trkpt><trkpt lat="45.4593883" lon="11.7801767"><ele>17.0</ele><time>2026-05-01T12:47:12.101Z</time></trkpt><trkpt lat="45.45927" lon="11.7805767"><ele>17.0</ele><time>2026-05-01T12:47:13.101Z</time></trkpt><trkpt lat="45.4591517" lon="11.7809683"><ele>17.0</ele><time>2026-05-01T12:47:14.102Z</time></trkpt><trkpt lat="45.459035" lon="11.7813617"><ele>17.0</ele><time>2026-05-01T12:47:15.101Z</time></trkpt><trkpt lat="45.4589217" lon="11.7817417"><ele>17.0</ele><time>2026-05-01T12:47:16.101Z</time></trkpt><trkpt lat="45.45881" lon="11.7820983"><ele>16.5</ele><time>2026-05-01T12:47:17.101Z</time></trkpt><trkpt lat="45.4587067" lon="11.7824467"><ele>16.0</ele><time>2026-05-01T12:47:18.101Z</time></trkpt><trkpt lat="45.4586033" lon="11.7827917"><ele>16.0</ele><time>2026-05-01T12:47:19.102Z</time></trkpt><trkpt lat="45.4585" lon="11.783145"><ele>16.0</ele><time>2026-05-01T12:47:20.102Z</time></trkpt><trkpt lat="45.4583933" lon="11.783495"><ele>16.5</ele><time>2026-05-01T12:47:21.102Z</time></trkpt><trkpt lat="45.4582917" lon="11.7838383"><ele>17.0</ele><time>2026-05-01T12:47:22.101Z</time></trkpt><trkpt lat="45.4581917" lon="11.784165"><ele>16.0</ele><time>2026-05-01T12:47:23.102Z</time></trkpt><trkpt lat="45.4580983" lon="11.7844817"><ele>15.0</ele><time>2026-05-01T12:47:24.101Z</time></trkpt><trkpt lat="45.4580017" lon="11.7847933"><ele>15.5</ele><time>2026-05-01T12:47:25.102Z</time></trkpt><trkpt lat="45.4579083" lon="11.7850983"><ele>16.0</ele><time>2026-05-01T12:47:26.102Z</time></trkpt><trkpt lat="45.45782" lon="11.7854067"><ele>16.0</ele><time>2026-05-01T12:47:27.102Z</time></trkpt><trkpt lat="45.45772" lon="11.7857283"><ele>16.0</ele><time>2026-05-01T12:47:28.101Z</time></trkpt><trkpt lat="45.4576167" lon="11.786055"><ele>17.0</ele><time>2026-05-01T12:47:29.102Z</time></trkpt><trkpt lat="45.4575067" lon="11.7863933"><ele>18.0</ele><time>2026-05-01T12:47:30.101Z</time></trkpt><trkpt lat="45.4574033" lon="11.7867317"><ele>17.0</ele><time>2026-05-01T12:47:31.101Z</time></trkpt><trkpt lat="45.4572983" lon="11.7870767"><ele>16.0</ele><time>2026-05-01T12:47:32.102Z</time></trkpt><trkpt lat="45.4571967" lon="11.78743"><ele>16.0</ele><time>2026-05-01T12:47:33.101Z</time></trkpt><trkpt lat="45.4570933" lon="11.7877867"><ele>16.0</ele><time>2026-05-01T12:47:34.102Z</time></trkpt><trkpt lat="45.456985" lon="11.7881467"><ele>16.0</ele><time>2026-05-01T12:47:35.101Z</time></trkpt><trkpt lat="45.45688" lon="11.7885083"><ele>16.0</ele><time>2026-05-01T12:47:36.102Z</time></trkpt><trkpt lat="45.45677" lon="11.7888667"><ele>16.0</ele><time>2026-05-01T12:47:37.101Z</time></trkpt><trkpt lat="45.4566667" lon="11.7892333"><ele>16.0</ele><time>2026-05-01T12:47:38.101Z</time></trkpt><trkpt lat="45.4565667" lon="11.789605"><ele>16.0</ele><time>2026-05-01T12:47:39.101Z</time></trkpt><trkpt lat="45.45646" lon="11.789975"><ele>16.0</ele><time>2026-05-01T12:47:40.102Z</time></trkpt><trkpt lat="45.45636" lon="11.7903517"><ele>15.5</ele><time>2026-05-01T12:47:41.101Z</time></trkpt><trkpt lat="45.4562617" lon="11.790735"><ele>15.0</ele><time>2026-05-01T12:47:42.101Z</time></trkpt><trkpt lat="45.45617" lon="11.79112"><ele>15.0</ele><time>2026-05-01T12:47:43.102Z</time></trkpt><trkpt lat="45.45608" lon="11.7915083"><ele>15.0</ele><time>2026-05-01T12:47:44.101Z</time></trkpt><trkpt lat="45.456005" lon="11.791905"><ele>15.0</ele><time>2026-05-01T12:47:45.101Z</time></trkpt><trkpt lat="45.455935" lon="11.7923033"><ele>15.0</ele><time>2026-05-01T12:47:46.102Z</time></trkpt><trkpt lat="45.45587" lon="11.7927017"><ele>15.0</ele><time>2026-05-01T12:47:47.101Z</time></trkpt><trkpt lat="45.4558017" lon="11.7931"><ele>15.0</ele><time>2026-05-01T12:47:48.101Z</time></trkpt><trkpt lat="45.45573" lon="11.7935067"><ele>15.5</ele><time>2026-05-01T12:47:49.102Z</time></trkpt><trkpt lat="45.455665" lon="11.79391"><ele>16.0</ele><time>2026-05-01T12:47:50.101Z</time></trkpt><trkpt lat="45.45561" lon="11.79431"><ele>15.5</ele><time>2026-05-01T12:47:51.101Z</time></trkpt><trkpt lat="45.4555567" lon="11.7947117"><ele>15.0</ele><time>2026-05-01T12:47:52.101Z</time></trkpt><trkpt lat="45.4555067" lon="11.795115"><ele>15.0</ele><time>2026-05-01T12:47:53.102Z</time></trkpt><trkpt lat="45.4554517" lon="11.795515"><ele>15.0</ele><time>2026-05-01T12:47:54.102Z</time></trkpt><trkpt lat="45.455395" lon="11.7959033"><ele>16.0</ele><time>2026-05-01T12:47:55.102Z</time></trkpt><trkpt lat="45.45534" lon="11.79629"><ele>17.0</ele><time>2026-05-01T12:47:56.102Z</time></trkpt><trkpt lat="45.4552883" lon="11.79666"><ele>17.0</ele><time>2026-05-01T12:47:57.101Z</time></trkpt><trkpt lat="45.4552367" lon="11.7970317"><ele>17.0</ele><time>2026-05-01T12:47:58.102Z</time></trkpt><trkpt lat="45.4551867" lon="11.7974083"><ele>17.0</ele><time>2026-05-01T12:47:59.101Z</time></trkpt><trkpt lat="45.45514" lon="11.7977833"><ele>17.0</ele><time>2026-05-01T12:48:00.102Z</time></trkpt><trkpt lat="45.455095" lon="11.7981583"><ele>17.5</ele><time>2026-05-01T12:48:01.101Z</time></trkpt><trkpt lat="45.455045" lon="11.79854"><ele>18.0</ele><time>2026-05-01T12:48:02.101Z</time></trkpt><trkpt lat="45.4549967" lon="11.7989183"><ele>18.0</ele><time>2026-05-01T12:48:03.102Z</time></trkpt><trkpt lat="45.4549517" lon="11.7993"><ele>18.0</ele><time>2026-05-01T12:48:04.102Z</time></trkpt><trkpt lat="45.454905" lon="11.7996817"><ele>17.0</ele><time>2026-05-01T12:48:05.101Z</time></trkpt><trkpt lat="45.4548533" lon="11.800065"><ele>16.0</ele><time>2026-05-01T12:48:06.101Z</time></trkpt><trkpt lat="45.4547983" lon="11.8004517"><ele>16.0</ele><time>2026-05-01T12:48:07.102Z</time></trkpt><trkpt lat="45.4547417" lon="11.8008383"><ele>16.0</ele><time>2026-05-01T12:48:08.102Z</time></trkpt><trkpt lat="45.4546833" lon="11.80122"><ele>16.5</ele><time>2026-05-01T12:48:09.101Z</time></trkpt><trkpt lat="45.45463" lon="11.8016167"><ele>17.0</ele><time>2026-05-01T12:48:10.101Z</time></trkpt><trkpt lat="45.4545783" lon="11.8020367"><ele>17.0</ele><time>2026-05-01T12:48:11.101Z</time></trkpt><trkpt lat="45.45452" lon="11.80247"><ele>17.0</ele><time>2026-05-01T12:48:12.101Z</time></trkpt><trkpt lat="45.4544567" lon="11.8029117"><ele>17.0</ele><time>2026-05-01T12:48:13.102Z</time></trkpt><trkpt lat="45.4543967" lon="11.80336"><ele>17.0</ele><time>2026-05-01T12:48:14.101Z</time></trkpt><trkpt lat="45.45434" lon="11.8038217"><ele>17.0</ele><time>2026-05-01T12:48:15.102Z</time></trkpt><trkpt lat="45.4542783" lon="11.8043083"><ele>17.0</ele><time>2026-05-01T12:48:16.101Z</time></trkpt><trkpt lat="45.4542167" lon="11.8047983"><ele>16.5</ele><time>2026-05-01T12:48:17.102Z</time></trkpt><trkpt lat="45.4541567" lon="11.8052733"><ele>16.0</ele><time>2026-05-01T12:48:18.101Z</time></trkpt><trkpt lat="45.45409" lon="11.80573"><ele>16.0</ele><time>2026-05-01T12:48:19.102Z</time></trkpt><trkpt lat="45.454025" lon="11.8061833"><ele>16.0</ele><time>2026-05-01T12:48:20.101Z</time></trkpt><trkpt lat="45.453965" lon="11.8066383"><ele>15.5</ele><time>2026-05-01T12:48:21.101Z</time></trkpt><trkpt lat="45.4539" lon="11.8070917"><ele>15.0</ele><time>2026-05-01T12:48:22.101Z</time></trkpt><trkpt lat="45.4538383" lon="11.807545"><ele>16.0</ele><time>2026-05-01T12:48:23.102Z</time></trkpt><trkpt lat="45.4537783" lon="11.8080033"><ele>17.0</ele><time>2026-05-01T12:48:24.102Z</time></trkpt><trkpt lat="45.4537083" lon="11.8084617"><ele>16.5</ele><time>2026-05-01T12:48:25.101Z</time></trkpt><trkpt lat="45.4536417" lon="11.8089367"><ele>16.0</ele><time>2026-05-01T12:48:26.101Z</time></trkpt><trkpt lat="45.4535733" lon="11.80943"><ele>15.5</ele><time>2026-05-01T12:48:27.101Z</time></trkpt><trkpt lat="45.4535033" lon="11.809935"><ele>15.0</ele><time>2026-05-01T12:48:28.102Z</time></trkpt><trkpt lat="45.4534367" lon="11.8104317"><ele>15.0</ele><time>2026-05-01T12:48:29.101Z</time></trkpt><trkpt lat="45.4533683" lon="11.8109233"><ele>15.0</ele><time>2026-05-01T12:48:30.102Z</time></trkpt><trkpt lat="45.4533" lon="11.8114083"><ele>15.5</ele><time>2026-05-01T12:48:31.102Z</time></trkpt><trkpt lat="45.4532283" lon="11.8118867"><ele>16.0</ele><time>2026-05-01T12:48:32.101Z</time></trkpt><trkpt lat="45.45316" lon="11.8123633"><ele>16.5</ele><time>2026-05-01T12:48:33.102Z</time></trkpt><trkpt lat="45.4530917" lon="11.8128367"><ele>17.0</ele><time>2026-05-01T12:48:34.101Z</time></trkpt><trkpt lat="45.4530217" lon="11.8133067"><ele>17.0</ele><time>2026-05-01T12:48:35.101Z</time></trkpt><trkpt lat="45.4529583" lon="11.81378"><ele>17.0</ele><time>2026-05-01T12:48:36.102Z</time></trkpt><trkpt lat="45.4529" lon="11.8142783"><ele>16.0</ele><time>2026-05-01T12:48:37.101Z</time></trkpt><trkpt lat="45.4528333" lon="11.8147967"><ele>15.0</ele><time>2026-05-01T12:48:38.101Z</time></trkpt><trkpt lat="45.4527617" lon="11.8153267"><ele>15.0</ele><time>2026-05-01T12:48:39.102Z</time></trkpt><trkpt lat="45.4526917" lon="11.8158533"><ele>15.0</ele><time>2026-05-01T12:48:40.102Z</time></trkpt><trkpt lat="45.45262" lon="11.8163733"><ele>15.5</ele><time>2026-05-01T12:48:41.101Z</time></trkpt><trkpt lat="45.452545" lon="11.8168917"><ele>16.0</ele><time>2026-05-01T12:48:42.102Z</time></trkpt><trkpt lat="45.4524717" lon="11.817405"><ele>17.0</ele><time>2026-05-01T12:48:43.101Z</time></trkpt><trkpt lat="45.4523983" lon="11.81792"><ele>18.0</ele><time>2026-05-01T12:48:44.101Z</time></trkpt><trkpt lat="45.452315" lon="11.818435"><ele>16.5</ele><time>2026-05-01T12:48:45.102Z</time></trkpt><trkpt lat="45.45224" lon="11.818945"><ele>15.0</ele><time>2026-05-01T12:48:46.102Z</time></trkpt><trkpt lat="45.4521667" lon="11.81945"><ele>15.0</ele><time>2026-05-01T12:48:47.1Z</time></trkpt><trkpt lat="45.452105" lon="11.81994"><ele>15.0</ele><time>2026-05-01T12:48:48.101Z</time></trkpt><trkpt lat="45.4520483" lon="11.820405"><ele>14.5</ele><time>2026-05-01T12:48:49.101Z</time></trkpt><trkpt lat="45.45199" lon="11.82085"><ele>14.0</ele><time>2026-05-01T12:48:50.101Z</time></trkpt><trkpt lat="45.45193" lon="11.8212917"><ele>14.0</ele><time>2026-05-01T12:48:51.101Z</time></trkpt><trkpt lat="45.4518683" lon="11.82173"><ele>14.0</ele><time>2026-05-01T12:48:52.1Z</time></trkpt><trkpt lat="45.4518083" lon="11.8221583"><ele>13.5</ele><time>2026-05-01T12:48:53.101Z</time></trkpt><trkpt lat="45.45175" lon="11.8225867"><ele>13.0</ele><time>2026-05-01T12:48:54.101Z</time></trkpt><trkpt lat="45.4516917" lon="11.8230067"><ele>13.0</ele><time>2026-05-01T12:48:55.1Z</time></trkpt><trkpt lat="45.4516383" lon="11.8234283"><ele>13.0</ele><time>2026-05-01T12:48:56.1Z</time></trkpt><trkpt lat="45.4515833" lon="11.82385"><ele>14.0</ele><time>2026-05-01T12:48:57.1Z</time></trkpt><trkpt lat="45.4515283" lon="11.8242667"><ele>15.0</ele><time>2026-05-01T12:48:58.101Z</time></trkpt><trkpt lat="45.4514733" lon="11.8246783"><ele>15.5</ele><time>2026-05-01T12:48:59.1Z</time></trkpt><trkpt lat="45.4514167" lon="11.8250883"><ele>16.0</ele><time>2026-05-01T12:49:00.1Z</time></trkpt><trkpt lat="45.4513583" lon="11.825495"><ele>16.5</ele><time>2026-05-01T12:49:01.1Z</time></trkpt><trkpt lat="45.4513033" lon="11.8258967"><ele>17.0</ele><time>2026-05-01T12:49:02.1Z</time></trkpt><trkpt lat="45.4512533" lon="11.826305"><ele>16.5</ele><time>2026-05-01T12:49:03.101Z</time></trkpt><trkpt lat="45.451205" lon="11.82674"><ele>16.0</ele><time>2026-05-01T12:49:04.1Z</time></trkpt><trkpt lat="45.4511533" lon="11.8271967"><ele>16.0</ele><time>2026-05-01T12:49:05.1Z</time></trkpt><trkpt lat="45.451095" lon="11.8276567"><ele>16.0</ele><time>2026-05-01T12:49:06.101Z</time></trkpt><trkpt lat="45.451035" lon="11.8281133"><ele>16.5</ele><time>2026-05-01T12:49:07.1Z</time></trkpt><trkpt lat="45.4509717" lon="11.8285683"><ele>17.0</ele><time>2026-05-01T12:49:08.1Z</time></trkpt><trkpt lat="45.450905" lon="11.8290217"><ele>17.5</ele><time>2026-05-01T12:49:09.1Z</time></trkpt><trkpt lat="45.4508383" lon="11.82948"><ele>18.0</ele><time>2026-05-01T12:49:10.1Z</time></trkpt><trkpt lat="45.4507783" lon="11.8299417"><ele>18.5</ele><time>2026-05-01T12:49:11.1Z</time></trkpt><trkpt lat="45.4507183" lon="11.8304067"><ele>19.0</ele><time>2026-05-01T12:49:12.1Z</time></trkpt><trkpt lat="45.4506533" lon="11.83088"><ele>19.0</ele><time>2026-05-01T12:49:13.101Z</time></trkpt><trkpt lat="45.4505867" lon="11.831355"><ele>19.0</ele><time>2026-05-01T12:49:14.1Z</time></trkpt><trkpt lat="45.450515" lon="11.8318317"><ele>17.5</ele><time>2026-05-01T12:49:15.101Z</time></trkpt><trkpt lat="45.4504417" lon="11.8323017"><ele>16.0</ele><time>2026-05-01T12:49:16.101Z</time></trkpt><trkpt lat="45.45037" lon="11.8327667"><ele>15.5</ele><time>2026-05-01T12:49:17.101Z</time></trkpt><trkpt lat="45.4503067" lon="11.8332333"><ele>15.0</ele><time>2026-05-01T12:49:18.1Z</time></trkpt><trkpt lat="45.4502367" lon="11.8336983"><ele>15.5</ele><time>2026-05-01T12:49:19.1Z</time></trkpt><trkpt lat="45.4501683" lon="11.8341617"><ele>16.0</ele><time>2026-05-01T12:49:20.101Z</time></trkpt><trkpt lat="45.4500967" lon="11.8346283"><ele>16.0</ele><time>2026-05-01T12:49:21.1Z</time></trkpt><trkpt lat="45.4500333" lon="11.835085"><ele>16.0</ele><time>2026-05-01T12:49:22.101Z</time></trkpt><trkpt lat="45.4499683" lon="11.8355367"><ele>15.0</ele><time>2026-05-01T12:49:23.1Z</time></trkpt><trkpt lat="45.449905" lon="11.8359833"><ele>14.0</ele><time>2026-05-01T12:49:24.1Z</time></trkpt><trkpt lat="45.44984" lon="11.8364333"><ele>14.5</ele><time>2026-05-01T12:49:25.101Z</time></trkpt><trkpt lat="45.44978" lon="11.8368783"><ele>15.0</ele><time>2026-05-01T12:49:26.101Z</time></trkpt><trkpt lat="45.4497167" lon="11.837325"><ele>14.0</ele><time>2026-05-01T12:49:27.101Z</time></trkpt><trkpt lat="45.449655" lon="11.8377617"><ele>13.0</ele><time>2026-05-01T12:49:28.1Z</time></trkpt><trkpt lat="45.4495933" lon="11.8381983"><ele>13.0</ele><time>2026-05-01T12:49:29.1Z</time></trkpt><trkpt lat="45.44953" lon="11.838635"><ele>13.0</ele><time>2026-05-01T12:49:30.1Z</time></trkpt><trkpt lat="45.4494633" lon="11.8390717"><ele>13.5</ele><time>2026-05-01T12:49:31.101Z</time></trkpt><trkpt lat="45.4493983" lon="11.8395117"><ele>14.0</ele><time>2026-05-01T12:49:32.1Z</time></trkpt><trkpt lat="45.4493333" lon="11.8399517"><ele>14.0</ele><time>2026-05-01T12:49:33.101Z</time></trkpt><trkpt lat="45.449275" lon="11.8403867"><ele>14.0</ele><time>2026-05-01T12:49:34.1Z</time></trkpt><trkpt lat="45.4492167" lon="11.8408233"><ele>13.5</ele><time>2026-05-01T12:49:35.1Z</time></trkpt><trkpt lat="45.4491583" lon="11.841255"><ele>13.0</ele><time>2026-05-01T12:49:36.101Z</time></trkpt><trkpt lat="45.4491017" lon="11.8416767"><ele>13.5</ele><time>2026-05-01T12:49:37.1Z</time></trkpt><trkpt lat="45.4490467" lon="11.84211"><ele>14.0</ele><time>2026-05-01T12:49:38.1Z</time></trkpt><trkpt lat="45.4489933" lon="11.8425417"><ele>14.0</ele><time>2026-05-01T12:49:39.101Z</time></trkpt><trkpt lat="45.44894" lon="11.8429817"><ele>14.0</ele><time>2026-05-01T12:49:40.1Z</time></trkpt><trkpt lat="45.4488867" lon="11.8434267"><ele>14.5</ele><time>2026-05-01T12:49:41.101Z</time></trkpt><trkpt lat="45.448825" lon="11.8438717"><ele>15.0</ele><time>2026-05-01T12:49:42.1Z</time></trkpt><trkpt lat="45.4487583" lon="11.844315"><ele>15.0</ele><time>2026-05-01T12:49:43.1Z</time></trkpt><trkpt lat="45.4486883" lon="11.8447633"><ele>15.0</ele><time>2026-05-01T12:49:44.1Z</time></trkpt><trkpt lat="45.4486283" lon="11.84521"><ele>15.0</ele><time>2026-05-01T12:49:45.101Z</time></trkpt><trkpt lat="45.4485667" lon="11.8456333"><ele>15.0</ele><time>2026-05-01T12:49:46.1Z</time></trkpt><trkpt lat="45.4485" lon="11.8460533"><ele>14.5</ele><time>2026-05-01T12:49:47.101Z</time></trkpt><trkpt lat="45.4484433" lon="11.8464817"><ele>14.0</ele><time>2026-05-01T12:49:48.101Z</time></trkpt><trkpt lat="45.4483833" lon="11.84691"><ele>14.0</ele><time>2026-05-01T12:49:49.1Z</time></trkpt><trkpt lat="45.448325" lon="11.8473333"><ele>14.0</ele><time>2026-05-01T12:49:50.1Z</time></trkpt><trkpt lat="45.4482667" lon="11.8477567"><ele>14.0</ele><time>2026-05-01T12:49:51.1Z</time></trkpt><trkpt lat="45.4482083" lon="11.8481783"><ele>14.0</ele><time>2026-05-01T12:49:52.1Z</time></trkpt><trkpt lat="45.4481517" lon="11.8486017"><ele>14.5</ele><time>2026-05-01T12:49:53.1Z</time></trkpt><trkpt lat="45.448085" lon="11.849025"><ele>15.0</ele><time>2026-05-01T12:49:54.1Z</time></trkpt><trkpt lat="45.44802" lon="11.849445"><ele>14.5</ele><time>2026-05-01T12:49:55.101Z</time></trkpt><trkpt lat="45.44795" lon="11.849865"><ele>14.0</ele><time>2026-05-01T12:49:56.1Z</time></trkpt><trkpt lat="45.4478783" lon="11.850285"><ele>14.0</ele><time>2026-05-01T12:49:57.101Z</time></trkpt><trkpt lat="45.447805" lon="11.8507033"><ele>14.0</ele><time>2026-05-01T12:49:58.1Z</time></trkpt><trkpt lat="45.44773" lon="11.8511267"><ele>13.0</ele><time>2026-05-01T12:49:59.1Z</time></trkpt><trkpt lat="45.44758" lon="11.8519717"><ele>13.0</ele><time>2026-05-01T12:50:01.1Z</time></trkpt><trkpt lat="45.447505" lon="11.852385"><ele>13.0</ele><time>2026-05-01T12:50:02.1Z</time></trkpt><trkpt lat="45.4474333" lon="11.8528"><ele>13.0</ele><time>2026-05-01T12:50:03.1Z</time></trkpt><trkpt lat="45.4473617" lon="11.8532183"><ele>13.0</ele><time>2026-05-01T12:50:04.101Z</time></trkpt><trkpt lat="45.447285" lon="11.8536317"><ele>13.0</ele><time>2026-05-01T12:50:05.1Z</time></trkpt><trkpt lat="45.44721" lon="11.8540467"><ele>13.0</ele><time>2026-05-01T12:50:06.1Z</time></trkpt><trkpt lat="45.4471317" lon="11.8544683"><ele>13.0</ele><time>2026-05-01T12:50:07.101Z</time></trkpt><trkpt lat="45.4470467" lon="11.8548883"><ele>13.0</ele><time>2026-05-01T12:50:08.1Z</time></trkpt><trkpt lat="45.4469583" lon="11.8553167"><ele>13.0</ele><time>2026-05-01T12:50:09.1Z</time></trkpt><trkpt lat="45.4468733" lon="11.8557533"><ele>13.0</ele><time>2026-05-01T12:50:10.101Z</time></trkpt><trkpt lat="45.4467883" lon="11.8561917"><ele>12.5</ele><time>2026-05-01T12:50:11.1Z</time></trkpt><trkpt lat="45.446705" lon="11.8566233"><ele>12.0</ele><time>2026-05-01T12:50:12.1Z</time></trkpt><trkpt lat="45.446625" lon="11.85707"><ele>12.0</ele><time>2026-05-01T12:50:13.1Z</time></trkpt><trkpt lat="45.446545" lon="11.8575"><ele>12.0</ele><time>2026-05-01T12:50:14.1Z</time></trkpt><trkpt lat="45.44647" lon="11.8579333"><ele>12.5</ele><time>2026-05-01T12:50:15.1Z</time></trkpt><trkpt lat="45.4463883" lon="11.8583617"><ele>13.0</ele><time>2026-05-01T12:50:16.1Z</time></trkpt><trkpt lat="45.4463033" lon="11.858785"><ele>12.5</ele><time>2026-05-01T12:50:17.101Z</time></trkpt><trkpt lat="45.446215" lon="11.8592133"><ele>12.0</ele><time>2026-05-01T12:50:18.1Z</time></trkpt><trkpt lat="45.4461233" lon="11.85964"><ele>13.0</ele><time>2026-05-01T12:50:19.1Z</time></trkpt><trkpt lat="45.4460367" lon="11.8600683"><ele>14.0</ele><time>2026-05-01T12:50:20.1Z</time></trkpt><trkpt lat="45.4459567" lon="11.8604967"><ele>14.0</ele><time>2026-05-01T12:50:21.1Z</time></trkpt><trkpt lat="45.445875" lon="11.8609233"><ele>14.0</ele><time>2026-05-01T12:50:22.101Z</time></trkpt><trkpt lat="45.4457983" lon="11.861355"><ele>14.0</ele><time>2026-05-01T12:50:23.1Z</time></trkpt><trkpt lat="45.4457217" lon="11.8617817"><ele>14.0</ele><time>2026-05-01T12:50:24.1Z</time></trkpt><trkpt lat="45.4456417" lon="11.8622083"><ele>14.5</ele><time>2026-05-01T12:50:25.1Z</time></trkpt><trkpt lat="45.4455567" lon="11.862635"><ele>15.0</ele><time>2026-05-01T12:50:26.101Z</time></trkpt><trkpt lat="45.4454767" lon="11.8630583"><ele>15.5</ele><time>2026-05-01T12:50:27.1Z</time></trkpt><trkpt lat="45.4453983" lon="11.8634733"><ele>16.0</ele><time>2026-05-01T12:50:28.1Z</time></trkpt><trkpt lat="45.4453267" lon="11.8638833"><ele>15.5</ele><time>2026-05-01T12:50:29.101Z</time></trkpt><trkpt lat="45.4452533" lon="11.8642883"><ele>15.0</ele><time>2026-05-01T12:50:30.101Z</time></trkpt><trkpt lat="45.4451833" lon="11.86469"><ele>15.0</ele><time>2026-05-01T12:50:31.101Z</time></trkpt><trkpt lat="45.4451117" lon="11.8650967"><ele>15.0</ele><time>2026-05-01T12:50:32.1Z</time></trkpt><trkpt lat="45.44504" lon="11.8655"><ele>14.5</ele><time>2026-05-01T12:50:33.1Z</time></trkpt><trkpt lat="45.444965" lon="11.8659083"><ele>14.0</ele><time>2026-05-01T12:50:34.1Z</time></trkpt><trkpt lat="45.44489" lon="11.866315"><ele>13.5</ele><time>2026-05-01T12:50:35.1Z</time></trkpt><trkpt lat="45.4448133" lon="11.86672"><ele>13.0</ele><time>2026-05-01T12:50:36.101Z</time></trkpt><trkpt lat="45.4447333" lon="11.8671267"><ele>13.0</ele><time>2026-05-01T12:50:37.101Z</time></trkpt><trkpt lat="45.44466" lon="11.867535"><ele>13.0</ele><time>2026-05-01T12:50:38.101Z</time></trkpt><trkpt lat="45.4445833" lon="11.86794"><ele>12.5</ele><time>2026-05-01T12:50:39.1Z</time></trkpt><trkpt lat="45.4445067" lon="11.8683467"><ele>12.0</ele><time>2026-05-01T12:50:40.101Z</time></trkpt><trkpt lat="45.4444317" lon="11.8687517"><ele>12.0</ele><time>2026-05-01T12:50:41.101Z</time></trkpt><trkpt lat="45.444355" lon="11.869155"><ele>12.0</ele><time>2026-05-01T12:50:42.101Z</time></trkpt><trkpt lat="45.4442767" lon="11.86956"><ele>11.5</ele><time>2026-05-01T12:50:43.101Z</time></trkpt><trkpt lat="45.444195" lon="11.86996"><ele>11.0</ele><time>2026-05-01T12:50:44.101Z</time></trkpt><trkpt lat="45.4441183" lon="11.870365"><ele>13.0</ele><time>2026-05-01T12:50:45.1Z</time></trkpt><trkpt lat="45.44404" lon="11.8707733"><ele>15.0</ele><time>2026-05-01T12:50:46.1Z</time></trkpt><trkpt lat="45.443965" lon="11.871185"><ele>15.5</ele><time>2026-05-01T12:50:47.101Z</time></trkpt><trkpt lat="45.4438883" lon="11.8716067"><ele>16.0</ele><time>2026-05-01T12:50:48.101Z</time></trkpt><trkpt lat="45.4438117" lon="11.8720167"><ele>16.0</ele><time>2026-05-01T12:50:49.1Z</time></trkpt><trkpt lat="45.443735" lon="11.8724333"><ele>16.0</ele><time>2026-05-01T12:50:50.1Z</time></trkpt><trkpt lat="45.44366" lon="11.8728483"><ele>14.5</ele><time>2026-05-01T12:50:51.1Z</time></trkpt><trkpt lat="45.4435883" lon="11.87325"><ele>13.0</ele><time>2026-05-01T12:50:52.101Z</time></trkpt><trkpt lat="45.4435183" lon="11.873645"><ele>13.0</ele><time>2026-05-01T12:50:53.1Z</time></trkpt><trkpt lat="45.44345" lon="11.8740383"><ele>13.0</ele><time>2026-05-01T12:50:54.101Z</time></trkpt><trkpt lat="45.44338" lon="11.87444"><ele>13.0</ele><time>2026-05-01T12:50:55.101Z</time></trkpt><trkpt lat="45.4433083" lon="11.87484"><ele>13.0</ele><time>2026-05-01T12:50:56.1Z</time></trkpt><trkpt lat="45.44323" lon="11.8752417"><ele>13.0</ele><time>2026-05-01T12:50:57.1Z</time></trkpt><trkpt lat="45.443155" lon="11.8756483"><ele>13.0</ele><time>2026-05-01T12:50:58.1Z</time></trkpt><trkpt lat="45.4430783" lon="11.876065"><ele>12.5</ele><time>2026-05-01T12:50:59.1Z</time></trkpt><trkpt lat="45.4429967" lon="11.876485"><ele>12.0</ele><time>2026-05-01T12:51:00.1Z</time></trkpt><trkpt lat="45.4429167" lon="11.8769067"><ele>12.0</ele><time>2026-05-01T12:51:01.1Z</time></trkpt><trkpt lat="45.4428383" lon="11.8773333"><ele>12.0</ele><time>2026-05-01T12:51:02.1Z</time></trkpt><trkpt lat="45.4427533" lon="11.877765"><ele>12.0</ele><time>2026-05-01T12:51:03.101Z</time></trkpt><trkpt lat="45.4426633" lon="11.878195"><ele>12.0</ele><time>2026-05-01T12:51:04.1Z</time></trkpt><trkpt lat="45.4425783" lon="11.878625"><ele>12.0</ele><time>2026-05-01T12:51:05.1Z</time></trkpt><trkpt lat="45.44249" lon="11.879055"><ele>12.0</ele><time>2026-05-01T12:51:06.101Z</time></trkpt><trkpt lat="45.4424033" lon="11.8794883"><ele>11.5</ele><time>2026-05-01T12:51:07.1Z</time></trkpt><trkpt lat="45.442315" lon="11.8799183"><ele>11.0</ele><time>2026-05-01T12:51:08.1Z</time></trkpt><trkpt lat="45.442235" lon="11.88035"><ele>11.0</ele><time>2026-05-01T12:51:09.1Z</time></trkpt><trkpt lat="45.4421517" lon="11.8807817"><ele>11.0</ele><time>2026-05-01T12:51:10.1Z</time></trkpt><trkpt lat="45.4420667" lon="11.8812117"><ele>11.5</ele><time>2026-05-01T12:51:11.1Z</time></trkpt><trkpt lat="45.4419833" lon="11.8816417"><ele>12.0</ele><time>2026-05-01T12:51:12.1Z</time></trkpt><trkpt lat="45.4419017" lon="11.8820667"><ele>12.5</ele><time>2026-05-01T12:51:13.101Z</time></trkpt><trkpt lat="45.4418167" lon="11.8824967"><ele>13.0</ele><time>2026-05-01T12:51:14.101Z</time></trkpt><trkpt lat="45.4417367" lon="11.882925"><ele>13.0</ele><time>2026-05-01T12:51:15.101Z</time></trkpt><trkpt lat="45.4416567" lon="11.883355"><ele>13.0</ele><time>2026-05-01T12:51:16.1Z</time></trkpt><trkpt lat="45.4415767" lon="11.8837783"><ele>9.0</ele><time>2026-05-01T12:51:17.1Z</time></trkpt><trkpt lat="45.4414167" lon="11.8846233"><ele>9.0</ele><time>2026-05-01T12:51:19.101Z</time></trkpt><trkpt lat="45.4413383" lon="11.885045"><ele>9.0</ele><time>2026-05-01T12:51:20.101Z</time></trkpt><trkpt lat="45.4412517" lon="11.8854633"><ele>10.5</ele><time>2026-05-01T12:51:21.1Z</time></trkpt><trkpt lat="45.4411617" lon="11.8858817"><ele>12.0</ele><time>2026-05-01T12:51:22.1Z</time></trkpt><trkpt lat="45.4410733" lon="11.886305"><ele>12.0</ele><time>2026-05-01T12:51:23.101Z</time></trkpt><trkpt lat="45.4409867" lon="11.88673"><ele>12.0</ele><time>2026-05-01T12:51:24.101Z</time></trkpt><trkpt lat="45.4408967" lon="11.8871483"><ele>12.0</ele><time>2026-05-01T12:51:25.1Z</time></trkpt><trkpt lat="45.4408067" lon="11.8875533"><ele>12.0</ele><time>2026-05-01T12:51:26.1Z</time></trkpt><trkpt lat="45.440705" lon="11.8879583"><ele>12.0</ele><time>2026-05-01T12:51:27.1Z</time></trkpt><trkpt lat="45.4405983" lon="11.8883633"><ele>12.0</ele><time>2026-05-01T12:51:28.1Z</time></trkpt><trkpt lat="45.4404867" lon="11.8887633"><ele>12.5</ele><time>2026-05-01T12:51:29.101Z</time></trkpt><trkpt lat="45.440375" lon="11.8891583"><ele>13.0</ele><time>2026-05-01T12:51:30.101Z</time></trkpt><trkpt lat="45.44026" lon="11.889545"><ele>13.0</ele><time>2026-05-01T12:51:31.1Z</time></trkpt><trkpt lat="45.4401433" lon="11.8899333"><ele>13.0</ele><time>2026-05-01T12:51:32.1Z</time></trkpt><trkpt lat="45.4400233" lon="11.8903117"><ele>13.0</ele><time>2026-05-01T12:51:33.101Z</time></trkpt><trkpt lat="45.4398983" lon="11.8906833"><ele>13.0</ele><time>2026-05-01T12:51:34.101Z</time></trkpt><trkpt lat="45.4397683" lon="11.8910567"><ele>12.5</ele><time>2026-05-01T12:51:35.1Z</time></trkpt><trkpt lat="45.43964" lon="11.8914283"><ele>12.0</ele><time>2026-05-01T12:51:36.1Z</time></trkpt><trkpt lat="45.43951" lon="11.8918"><ele>13.0</ele><time>2026-05-01T12:51:37.1Z</time></trkpt><trkpt lat="45.4393817" lon="11.892175"><ele>14.0</ele><time>2026-05-01T12:51:38.1Z</time></trkpt><trkpt lat="45.4392533" lon="11.89255"><ele>15.0</ele><time>2026-05-01T12:51:39.101Z</time></trkpt><trkpt lat="45.4389917" lon="11.893305"><ele>15.0</ele><time>2026-05-01T12:51:41.101Z</time></trkpt><trkpt lat="45.43886" lon="11.89368"><ele>15.0</ele><time>2026-05-01T12:51:42.101Z</time></trkpt><trkpt lat="45.4387317" lon="11.8940617"><ele>14.5</ele><time>2026-05-01T12:51:43.1Z</time></trkpt><trkpt lat="45.4386017" lon="11.894445"><ele>14.0</ele><time>2026-05-01T12:51:44.1Z</time></trkpt><trkpt lat="45.4384717" lon="11.8948283"><ele>14.0</ele><time>2026-05-01T12:51:45.1Z</time></trkpt><trkpt lat="45.4383417" lon="11.895215"><ele>14.0</ele><time>2026-05-01T12:51:46.101Z</time></trkpt><trkpt lat="45.4382067" lon="11.8956067"><ele>13.5</ele><time>2026-05-01T12:51:47.101Z</time></trkpt><trkpt lat="45.4380733" lon="11.8959933"><ele>13.0</ele><time>2026-05-01T12:51:48.1Z</time></trkpt><trkpt lat="45.4379383" lon="11.8963817"><ele>12.5</ele><time>2026-05-01T12:51:49.1Z</time></trkpt><trkpt lat="45.4378033" lon="11.896775"><ele>12.0</ele><time>2026-05-01T12:51:50.101Z</time></trkpt><trkpt lat="45.4376683" lon="11.8971683"><ele>12.0</ele><time>2026-05-01T12:51:51.1Z</time></trkpt><trkpt lat="45.437535" lon="11.8975667"><ele>12.0</ele><time>2026-05-01T12:51:52.1Z</time></trkpt><trkpt lat="45.43739" lon="11.8979633"><ele>12.5</ele><time>2026-05-01T12:51:53.1Z</time></trkpt><trkpt lat="45.43725" lon="11.89836"><ele>13.0</ele><time>2026-05-01T12:51:54.101Z</time></trkpt><trkpt lat="45.43712" lon="11.89876"><ele>11.5</ele><time>2026-05-01T12:51:55.1Z</time></trkpt><trkpt lat="45.4369867" lon="11.89915"><ele>10.0</ele><time>2026-05-01T12:51:56.101Z</time></trkpt><trkpt lat="45.4368583" lon="11.8995517"><ele>9.5</ele><time>2026-05-01T12:51:57.101Z</time></trkpt><trkpt lat="45.436725" lon="11.8999433"><ele>9.0</ele><time>2026-05-01T12:51:58.1Z</time></trkpt><trkpt lat="45.43659" lon="11.900335"><ele>9.5</ele><time>2026-05-01T12:51:59.1Z</time></trkpt><trkpt lat="45.4364517" lon="11.90072"><ele>10.0</ele><time>2026-05-01T12:52:00.101Z</time></trkpt><trkpt lat="45.4361883" lon="11.9014983"><ele>12.0</ele><time>2026-05-01T12:52:02.1Z</time></trkpt><trkpt lat="45.436055" lon="11.901885"><ele>14.0</ele><time>2026-05-01T12:52:03.1Z</time></trkpt><trkpt lat="45.4359217" lon="11.9022633"><ele>13.0</ele><time>2026-05-01T12:52:04.101Z</time></trkpt><trkpt lat="45.4357833" lon="11.902645"><ele>12.0</ele><time>2026-05-01T12:52:05.1Z</time></trkpt><trkpt lat="45.43564" lon="11.90302"><ele>12.0</ele><time>2026-05-01T12:52:06.1Z</time></trkpt><trkpt lat="45.435495" lon="11.9033983"><ele>12.0</ele><time>2026-05-01T12:52:07.101Z</time></trkpt><trkpt lat="45.4353467" lon="11.9037717"><ele>11.0</ele><time>2026-05-01T12:52:08.1Z</time></trkpt><trkpt lat="45.4351967" lon="11.9041433"><ele>10.0</ele><time>2026-05-01T12:52:09.101Z</time></trkpt><trkpt lat="45.4350483" lon="11.9045167"><ele>10.0</ele><time>2026-05-01T12:52:10.1Z</time></trkpt><trkpt lat="45.4349" lon="11.904895"><ele>10.0</ele><time>2026-05-01T12:52:11.101Z</time></trkpt><trkpt lat="45.4347467" lon="11.9052683"><ele>10.0</ele><time>2026-05-01T12:52:12.1Z</time></trkpt><trkpt lat="45.4346017" lon="11.9056467"><ele>10.0</ele><time>2026-05-01T12:52:13.101Z</time></trkpt><trkpt lat="45.434455" lon="11.906025"><ele>10.0</ele><time>2026-05-01T12:52:14.101Z</time></trkpt><trkpt lat="45.4343067" lon="11.90641"><ele>10.0</ele><time>2026-05-01T12:52:15.1Z</time></trkpt><trkpt lat="45.434155" lon="11.90679"><ele>11.0</ele><time>2026-05-01T12:52:16.1Z</time></trkpt><trkpt lat="45.434" lon="11.90717"><ele>12.0</ele><time>2026-05-01T12:52:17.1Z</time></trkpt><trkpt lat="45.43385" lon="11.9075533"><ele>10.5</ele><time>2026-05-01T12:52:18.1Z</time></trkpt><trkpt lat="45.433695" lon="11.907935"><ele>9.0</ele><time>2026-05-01T12:52:19.101Z</time></trkpt><trkpt lat="45.43354" lon="11.9083167"><ele>8.5</ele><time>2026-05-01T12:52:20.1Z</time></trkpt><trkpt lat="45.433385" lon="11.908695"><ele>8.0</ele><time>2026-05-01T12:52:21.101Z</time></trkpt><trkpt lat="45.433235" lon="11.9090683"><ele>8.5</ele><time>2026-05-01T12:52:22.1Z</time></trkpt><trkpt lat="45.43309" lon="11.9094467"><ele>9.0</ele><time>2026-05-01T12:52:23.1Z</time></trkpt><trkpt lat="45.432945" lon="11.9098217"><ele>8.0</ele><time>2026-05-01T12:52:24.1Z</time></trkpt><trkpt lat="45.4327983" lon="11.9101933"><ele>7.0</ele><time>2026-05-01T12:52:25.101Z</time></trkpt><trkpt lat="45.4326533" lon="11.9105633"><ele>7.5</ele><time>2026-05-01T12:52:26.1Z</time></trkpt><trkpt lat="45.432505" lon="11.9109333"><ele>8.0</ele><time>2026-05-01T12:52:27.101Z</time></trkpt><trkpt lat="45.4323567" lon="11.9113"><ele>8.0</ele><time>2026-05-01T12:52:28.1Z</time></trkpt><trkpt lat="45.4322117" lon="11.9116633"><ele>8.0</ele><time>2026-05-01T12:52:29.1Z</time></trkpt><trkpt lat="45.4319183" lon="11.9123833"><ele>8.5</ele><time>2026-05-01T12:52:31.101Z</time></trkpt><trkpt lat="45.431775" lon="11.9127467"><ele>9.0</ele><time>2026-05-01T12:52:32.1Z</time></trkpt><trkpt lat="45.4316233" lon="11.9131067"><ele>9.5</ele><time>2026-05-01T12:52:33.101Z</time></trkpt><trkpt lat="45.4314767" lon="11.9134683"><ele>10.0</ele><time>2026-05-01T12:52:34.101Z</time></trkpt><trkpt lat="45.43133" lon="11.913835"><ele>10.5</ele><time>2026-05-01T12:52:35.101Z</time></trkpt><trkpt lat="45.4312033" lon="11.9142117"><ele>11.0</ele><time>2026-05-01T12:52:36.101Z</time></trkpt><trkpt lat="45.431055" lon="11.91458"><ele>11.0</ele><time>2026-05-01T12:52:37.101Z</time></trkpt><trkpt lat="45.4309017" lon="11.9149517"><ele>11.0</ele><time>2026-05-01T12:52:38.1Z</time></trkpt><trkpt lat="45.4307567" lon="11.9153183"><ele>10.5</ele><time>2026-05-01T12:52:39.1Z</time></trkpt><trkpt lat="45.4306083" lon="11.915685"><ele>10.0</ele><time>2026-05-01T12:52:40.101Z</time></trkpt><trkpt lat="45.4304633" lon="11.9160567"><ele>10.0</ele><time>2026-05-01T12:52:41.1Z</time></trkpt><trkpt lat="45.4303217" lon="11.9164283"><ele>10.0</ele><time>2026-05-01T12:52:42.1Z</time></trkpt><trkpt lat="45.4301767" lon="11.9168017"><ele>9.5</ele><time>2026-05-01T12:52:43.101Z</time></trkpt><trkpt lat="45.43002" lon="11.91717"><ele>9.0</ele><time>2026-05-01T12:52:44.1Z</time></trkpt><trkpt lat="45.429865" lon="11.91754"><ele>8.5</ele><time>2026-05-01T12:52:45.1Z</time></trkpt><trkpt lat="45.4297033" lon="11.9179067"><ele>8.0</ele><time>2026-05-01T12:52:46.1Z</time></trkpt><trkpt lat="45.42954" lon="11.9182617"><ele>8.0</ele><time>2026-05-01T12:52:47.101Z</time></trkpt><trkpt lat="45.4293733" lon="11.918615"><ele>8.0</ele><time>2026-05-01T12:52:48.101Z</time></trkpt><trkpt lat="45.4292" lon="11.9189583"><ele>8.5</ele><time>2026-05-01T12:52:49.101Z</time></trkpt><trkpt lat="45.4290233" lon="11.9193117"><ele>9.0</ele><time>2026-05-01T12:52:50.1Z</time></trkpt><trkpt lat="45.4288467" lon="11.9196583"><ele>9.0</ele><time>2026-05-01T12:52:51.1Z</time></trkpt><trkpt lat="45.42867" lon="11.920005"><ele>9.0</ele><time>2026-05-01T12:52:52.101Z</time></trkpt><trkpt lat="45.4284883" lon="11.9203483"><ele>9.0</ele><time>2026-05-01T12:52:53.101Z</time></trkpt><trkpt lat="45.42831" lon="11.92069"><ele>9.0</ele><time>2026-05-01T12:52:54.1Z</time></trkpt><trkpt lat="45.428125" lon="11.9210217"><ele>9.5</ele><time>2026-05-01T12:52:55.1Z</time></trkpt><trkpt lat="45.427945" lon="11.9213667"><ele>10.0</ele><time>2026-05-01T12:52:56.1Z</time></trkpt><trkpt lat="45.4277633" lon="11.9217"><ele>9.5</ele><time>2026-05-01T12:52:57.1Z</time></trkpt><trkpt lat="45.4275833" lon="11.9220333"><ele>9.0</ele><time>2026-05-01T12:52:58.1Z</time></trkpt><trkpt lat="45.4274033" lon="11.9223683"><ele>9.0</ele><time>2026-05-01T12:52:59.1Z</time></trkpt><trkpt lat="45.4272267" lon="11.9227033"><ele>9.0</ele><time>2026-05-01T12:53:00.1Z</time></trkpt><trkpt lat="45.4270517" lon="11.9230333"><ele>9.0</ele><time>2026-05-01T12:53:01.101Z</time></trkpt><trkpt lat="45.426875" lon="11.9233583"><ele>9.0</ele><time>2026-05-01T12:53:02.101Z</time></trkpt><trkpt lat="45.426695" lon="11.9236817"><ele>9.0</ele><time>2026-05-01T12:53:03.101Z</time></trkpt><trkpt lat="45.426515" lon="11.9240033"><ele>9.0</ele><time>2026-05-01T12:53:04.1Z</time></trkpt><trkpt lat="45.426345" lon="11.9243333"><ele>10.5</ele><time>2026-05-01T12:53:05.1Z</time></trkpt><trkpt lat="45.4261683" lon="11.9246517"><ele>12.0</ele><time>2026-05-01T12:53:06.101Z</time></trkpt><trkpt lat="45.42599" lon="11.9249733"><ele>12.0</ele><time>2026-05-01T12:53:07.1Z</time></trkpt><trkpt lat="45.4258133" lon="11.9252983"><ele>12.0</ele><time>2026-05-01T12:53:08.1Z</time></trkpt><trkpt lat="45.4256367" lon="11.9256267"><ele>12.0</ele><time>2026-05-01T12:53:09.1Z</time></trkpt><trkpt lat="45.425465" lon="11.9259567"><ele>12.0</ele><time>2026-05-01T12:53:10.1Z</time></trkpt><trkpt lat="45.42529" lon="11.9262883"><ele>12.0</ele><time>2026-05-01T12:53:11.101Z</time></trkpt><trkpt lat="45.4251117" lon="11.92662"><ele>12.0</ele><time>2026-05-01T12:53:12.101Z</time></trkpt><trkpt lat="45.424935" lon="11.9269517"><ele>12.0</ele><time>2026-05-01T12:53:13.101Z</time></trkpt><trkpt lat="45.4247567" lon="11.9272883"><ele>12.0</ele><time>2026-05-01T12:53:14.1Z</time></trkpt><trkpt lat="45.4245783" lon="11.927625"><ele>11.5</ele><time>2026-05-01T12:53:15.1Z</time></trkpt><trkpt lat="45.4244033" lon="11.92797"><ele>11.0</ele><time>2026-05-01T12:53:16.1Z</time></trkpt><trkpt lat="45.4242283" lon="11.9283083"><ele>10.0</ele><time>2026-05-01T12:53:17.101Z</time></trkpt><trkpt lat="45.4240467" lon="11.928645"><ele>9.0</ele><time>2026-05-01T12:53:18.101Z</time></trkpt><trkpt lat="45.4238683" lon="11.9289833"><ele>9.5</ele><time>2026-05-01T12:53:19.1Z</time></trkpt><trkpt lat="45.42369" lon="11.92932"><ele>10.0</ele><time>2026-05-01T12:53:20.101Z</time></trkpt><trkpt lat="45.42351" lon="11.9296533"><ele>10.0</ele><time>2026-05-01T12:53:21.101Z</time></trkpt><trkpt lat="45.4233317" lon="11.929985"><ele>10.0</ele><time>2026-05-01T12:53:22.101Z</time></trkpt><trkpt lat="45.423155" lon="11.9303217"><ele>10.0</ele><time>2026-05-01T12:53:23.101Z</time></trkpt><trkpt lat="45.422975" lon="11.9306567"><ele>10.0</ele><time>2026-05-01T12:53:24.101Z</time></trkpt><trkpt lat="45.422795" lon="11.930995"><ele>10.0</ele><time>2026-05-01T12:53:25.1Z</time></trkpt><trkpt lat="45.422615" lon="11.9313333"><ele>10.0</ele><time>2026-05-01T12:53:26.1Z</time></trkpt><trkpt lat="45.4224333" lon="11.9316767"><ele>9.5</ele><time>2026-05-01T12:53:27.1Z</time></trkpt><trkpt lat="45.4222467" lon="11.9320183"><ele>9.0</ele><time>2026-05-01T12:53:28.1Z</time></trkpt><trkpt lat="45.4220583" lon="11.93236"><ele>8.5</ele><time>2026-05-01T12:53:29.101Z</time></trkpt><trkpt lat="45.4218733" lon="11.9327033"><ele>8.0</ele><time>2026-05-01T12:53:30.1Z</time></trkpt><trkpt lat="45.4216883" lon="11.93305"><ele>8.5</ele><time>2026-05-01T12:53:31.101Z</time></trkpt><trkpt lat="45.4214983" lon="11.9333933"><ele>9.0</ele><time>2026-05-01T12:53:32.1Z</time></trkpt><trkpt lat="45.4213133" lon="11.9337383"><ele>10.0</ele><time>2026-05-01T12:53:33.1Z</time></trkpt><trkpt lat="45.4211233" lon="11.9340783"><ele>11.0</ele><time>2026-05-01T12:53:34.101Z</time></trkpt><trkpt lat="45.4209367" lon="11.9344133"><ele>11.5</ele><time>2026-05-01T12:53:35.1Z</time></trkpt><trkpt lat="45.4207483" lon="11.9347533"><ele>12.0</ele><time>2026-05-01T12:53:36.101Z</time></trkpt><trkpt lat="45.4205617" lon="11.9351"><ele>11.0</ele><time>2026-05-01T12:53:37.1Z</time></trkpt><trkpt lat="45.4203883" lon="11.935445"><ele>10.0</ele><time>2026-05-01T12:53:38.1Z</time></trkpt><trkpt lat="45.42022" lon="11.9357967"><ele>8.5</ele><time>2026-05-01T12:53:39.1Z</time></trkpt><trkpt lat="45.4200567" lon="11.9361583"><ele>7.0</ele><time>2026-05-01T12:53:40.101Z</time></trkpt><trkpt lat="45.419905" lon="11.9365317"><ele>7.0</ele><time>2026-05-01T12:53:41.1Z</time></trkpt><trkpt lat="45.41977" lon="11.9369133"><ele>7.0</ele><time>2026-05-01T12:53:42.101Z</time></trkpt><trkpt lat="45.4196433" lon="11.9373033"><ele>8.5</ele><time>2026-05-01T12:53:43.101Z</time></trkpt><trkpt lat="45.41953" lon="11.937695"><ele>10.0</ele><time>2026-05-01T12:53:44.1Z</time></trkpt><trkpt lat="45.4194283" lon="11.9380967"><ele>9.0</ele><time>2026-05-01T12:53:45.101Z</time></trkpt><trkpt lat="45.4193333" lon="11.93851"><ele>8.0</ele><time>2026-05-01T12:53:46.101Z</time></trkpt><trkpt lat="45.4192567" lon="11.9389217"><ele>7.5</ele><time>2026-05-01T12:53:47.101Z</time></trkpt><trkpt lat="45.4191883" lon="11.9393333"><ele>7.0</ele><time>2026-05-01T12:53:48.1Z</time></trkpt><trkpt lat="45.419135" lon="11.9397517"><ele>6.5</ele><time>2026-05-01T12:53:49.1Z</time></trkpt><trkpt lat="45.4190917" lon="11.9401733"><ele>6.0</ele><time>2026-05-01T12:53:50.101Z</time></trkpt><trkpt lat="45.4190633" lon="11.9405967"><ele>6.5</ele><time>2026-05-01T12:53:51.101Z</time></trkpt><trkpt lat="45.4190417" lon="11.9410233"><ele>7.0</ele><time>2026-05-01T12:53:52.1Z</time></trkpt><trkpt lat="45.4190367" lon="11.9414433"><ele>7.5</ele><time>2026-05-01T12:53:53.101Z</time></trkpt><trkpt lat="45.4190483" lon="11.941865"><ele>8.0</ele><time>2026-05-01T12:53:54.1Z</time></trkpt><trkpt lat="45.4190683" lon="11.9422883"><ele>7.5</ele><time>2026-05-01T12:53:55.101Z</time></trkpt><trkpt lat="45.4191083" lon="11.9427117"><ele>7.0</ele><time>2026-05-01T12:53:56.1Z</time></trkpt><trkpt lat="45.4191517" lon="11.9431267"><ele>8.0</ele><time>2026-05-01T12:53:57.101Z</time></trkpt><trkpt lat="45.4192117" lon="11.9435417"><ele>9.0</ele><time>2026-05-01T12:53:58.101Z</time></trkpt><trkpt lat="45.41928" lon="11.9439317"><ele>9.5</ele><time>2026-05-01T12:53:59.1Z</time></trkpt><trkpt lat="45.4193467" lon="11.9442833"><ele>10.0</ele><time>2026-05-01T12:54:00.101Z</time></trkpt><trkpt lat="45.4194217" lon="11.944635"><ele>10.0</ele><time>2026-05-01T12:54:01.101Z</time></trkpt><trkpt lat="45.4194933" lon="11.94498"><ele>10.0</ele><time>2026-05-01T12:54:02.1Z</time></trkpt><trkpt lat="45.419565" lon="11.9453233"><ele>10.0</ele><time>2026-05-01T12:54:03.1Z</time></trkpt><trkpt lat="45.41964" lon="11.945675"><ele>10.0</ele><time>2026-05-01T12:54:04.101Z</time></trkpt><trkpt lat="45.4197167" lon="11.9460333"><ele>10.0</ele><time>2026-05-01T12:54:05.1Z</time></trkpt><trkpt lat="45.4197967" lon="11.9464017"><ele>10.0</ele><time>2026-05-01T12:54:06.101Z</time></trkpt><trkpt lat="45.419875" lon="11.94678"><ele>10.5</ele><time>2026-05-01T12:54:07.101Z</time></trkpt><trkpt lat="45.4199567" lon="11.9471617"><ele>11.0</ele><time>2026-05-01T12:54:08.101Z</time></trkpt><trkpt lat="45.420035" lon="11.9475517"><ele>12.0</ele><time>2026-05-01T12:54:09.1Z</time></trkpt><trkpt lat="45.4201133" lon="11.9479517"><ele>13.0</ele><time>2026-05-01T12:54:10.101Z</time></trkpt><trkpt lat="45.4201967" lon="11.9483533"><ele>12.5</ele><time>2026-05-01T12:54:11.1Z</time></trkpt><trkpt lat="45.4202733" lon="11.9487483"><ele>12.0</ele><time>2026-05-01T12:54:12.1Z</time></trkpt><trkpt lat="45.4203483" lon="11.9491433"><ele>11.5</ele><time>2026-05-01T12:54:13.1Z</time></trkpt><trkpt lat="45.4204317" lon="11.949535"><ele>11.0</ele><time>2026-05-01T12:54:14.101Z</time></trkpt><trkpt lat="45.4205133" lon="11.94992"><ele>11.5</ele><time>2026-05-01T12:54:15.1Z</time></trkpt><trkpt lat="45.4205967" lon="11.9503117"><ele>12.0</ele><time>2026-05-01T12:54:16.1Z</time></trkpt><trkpt lat="45.4206817" lon="11.9507017"><ele>12.5</ele><time>2026-05-01T12:54:17.1Z</time></trkpt><trkpt lat="45.420765" lon="11.9510933"><ele>13.0</ele><time>2026-05-01T12:54:18.1Z</time></trkpt><trkpt lat="45.420845" lon="11.95149"><ele>12.5</ele><time>2026-05-01T12:54:19.101Z</time></trkpt><trkpt lat="45.4209267" lon="11.95189"><ele>12.0</ele><time>2026-05-01T12:54:20.1Z</time></trkpt><trkpt lat="45.4210133" lon="11.9522817"><ele>12.0</ele><time>2026-05-01T12:54:21.1Z</time></trkpt><trkpt lat="45.4210983" lon="11.952685"><ele>12.0</ele><time>2026-05-01T12:54:22.1Z</time></trkpt><trkpt lat="45.421185" lon="11.95309"><ele>12.0</ele><time>2026-05-01T12:54:23.1Z</time></trkpt><trkpt lat="45.4212733" lon="11.9534967"><ele>12.0</ele><time>2026-05-01T12:54:24.101Z</time></trkpt><trkpt lat="45.4213533" lon="11.9539033"><ele>11.5</ele><time>2026-05-01T12:54:25.1Z</time></trkpt><trkpt lat="45.4214383" lon="11.954315"><ele>11.0</ele><time>2026-05-01T12:54:26.101Z</time></trkpt><trkpt lat="45.4215233" lon="11.954725"><ele>11.0</ele><time>2026-05-01T12:54:27.101Z</time></trkpt><trkpt lat="45.4216083" lon="11.95513"><ele>11.0</ele><time>2026-05-01T12:54:28.101Z</time></trkpt><trkpt lat="45.4216917" lon="11.9555383"><ele>9.5</ele><time>2026-05-01T12:54:29.1Z</time></trkpt><trkpt lat="45.421785" lon="11.955975"><ele>8.0</ele><time>2026-05-01T12:54:30.101Z</time></trkpt><trkpt lat="45.4218667" lon="11.9563683"><ele>8.0</ele><time>2026-05-01T12:54:31.1Z</time></trkpt><trkpt lat="45.4219517" lon="11.95677"><ele>8.0</ele><time>2026-05-01T12:54:32.1Z</time></trkpt><trkpt lat="45.42203" lon="11.957155"><ele>8.0</ele><time>2026-05-01T12:54:33.1Z</time></trkpt><trkpt lat="45.4221083" lon="11.9575433"><ele>8.0</ele><time>2026-05-01T12:54:34.1Z</time></trkpt><trkpt lat="45.4221867" lon="11.95793"><ele>8.5</ele><time>2026-05-01T12:54:35.1Z</time></trkpt><trkpt lat="45.4222667" lon="11.9583167"><ele>9.0</ele><time>2026-05-01T12:54:36.101Z</time></trkpt><trkpt lat="45.4223483" lon="11.9587067"><ele>9.5</ele><time>2026-05-01T12:54:37.101Z</time></trkpt><trkpt lat="45.4224333" lon="11.9590933"><ele>10.0</ele><time>2026-05-01T12:54:38.1Z</time></trkpt><trkpt lat="45.42252" lon="11.959475"><ele>10.0</ele><time>2026-05-01T12:54:39.101Z</time></trkpt><trkpt lat="45.4225983" lon="11.9598533"><ele>10.0</ele><time>2026-05-01T12:54:40.1Z</time></trkpt><trkpt lat="45.4226733" lon="11.9602167"><ele>10.0</ele><time>2026-05-01T12:54:41.1Z</time></trkpt><trkpt lat="45.42275" lon="11.960565"><ele>10.0</ele><time>2026-05-01T12:54:42.1Z</time></trkpt><trkpt lat="45.42282" lon="11.960905"><ele>9.5</ele><time>2026-05-01T12:54:43.101Z</time></trkpt><trkpt lat="45.422895" lon="11.9612533"><ele>9.0</ele><time>2026-05-01T12:54:44.1Z</time></trkpt><trkpt lat="45.4229733" lon="11.96161"><ele>6.0</ele><time>2026-05-01T12:54:45.1Z</time></trkpt><trkpt lat="45.42305" lon="11.9619733"><ele>3.0</ele><time>2026-05-01T12:54:46.101Z</time></trkpt><trkpt lat="45.4231333" lon="11.9623533"><ele>3.0</ele><time>2026-05-01T12:54:47.1Z</time></trkpt><trkpt lat="45.4232083" lon="11.9627317"><ele>3.0</ele><time>2026-05-01T12:54:48.101Z</time></trkpt><trkpt lat="45.423275" lon="11.9631067"><ele>5.5</ele><time>2026-05-01T12:54:49.1Z</time></trkpt><trkpt lat="45.42335" lon="11.9634783"><ele>8.0</ele><time>2026-05-01T12:54:50.1Z</time></trkpt><trkpt lat="45.423425" lon="11.9638467"><ele>8.5</ele><time>2026-05-01T12:54:51.101Z</time></trkpt><trkpt lat="45.4235067" lon="11.9642217"><ele>9.0</ele><time>2026-05-01T12:54:52.101Z</time></trkpt><trkpt lat="45.42359" lon="11.9645933"><ele>9.0</ele><time>2026-05-01T12:54:53.1Z</time></trkpt><trkpt lat="45.4236783" lon="11.96499"><ele>9.0</ele><time>2026-05-01T12:54:54.101Z</time></trkpt><trkpt lat="45.4237633" lon="11.9654133"><ele>10.5</ele><time>2026-05-01T12:54:55.101Z</time></trkpt><trkpt lat="45.4238567" lon="11.9658633"><ele>12.0</ele><time>2026-05-01T12:54:56.1Z</time></trkpt><trkpt lat="45.4239483" lon="11.9663"><ele>11.5</ele><time>2026-05-01T12:54:57.101Z</time></trkpt><trkpt lat="45.4240383" lon="11.96673"><ele>11.0</ele><time>2026-05-01T12:54:58.101Z</time></trkpt><trkpt lat="45.42413" lon="11.9671617"><ele>9.0</ele><time>2026-05-01T12:54:59.1Z</time></trkpt><trkpt lat="45.4242983" lon="11.9680033"><ele>8.5</ele><time>2026-05-01T12:55:01.1Z</time></trkpt><trkpt lat="45.42438" lon="11.9684217"><ele>8.0</ele><time>2026-05-01T12:55:02.1Z</time></trkpt><trkpt lat="45.4244667" lon="11.9688317"><ele>8.5</ele><time>2026-05-01T12:55:03.1Z</time></trkpt><trkpt lat="45.4245533" lon="11.96924"><ele>9.0</ele><time>2026-05-01T12:55:04.101Z</time></trkpt><trkpt lat="45.424635" lon="11.9696467"><ele>9.5</ele><time>2026-05-01T12:55:05.1Z</time></trkpt><trkpt lat="45.4247167" lon="11.970055"><ele>10.0</ele><time>2026-05-01T12:55:06.1Z</time></trkpt><trkpt lat="45.4248033" lon="11.9704533"><ele>10.0</ele><time>2026-05-01T12:55:07.1Z</time></trkpt><trkpt lat="45.4248867" lon="11.970855"><ele>10.0</ele><time>2026-05-01T12:55:08.1Z</time></trkpt><trkpt lat="45.4249667" lon="11.9712617"><ele>9.0</ele><time>2026-05-01T12:55:09.1Z</time></trkpt><trkpt lat="45.4250483" lon="11.9716633"><ele>8.0</ele><time>2026-05-01T12:55:10.101Z</time></trkpt><trkpt lat="45.425135" lon="11.9720633"><ele>8.0</ele><time>2026-05-01T12:55:11.101Z</time></trkpt><trkpt lat="45.4253" lon="11.9728717"><ele>8.0</ele><time>2026-05-01T12:55:13.1Z</time></trkpt><trkpt lat="45.4253933" lon="11.9732833"><ele>8.0</ele><time>2026-05-01T12:55:14.101Z</time></trkpt><trkpt lat="45.425475" lon="11.97369"><ele>8.0</ele><time>2026-05-01T12:55:15.1Z</time></trkpt><trkpt lat="45.42556" lon="11.9740917"><ele>8.0</ele><time>2026-05-01T12:55:16.101Z</time></trkpt><trkpt lat="45.4257267" lon="11.9749167"><ele>8.5</ele><time>2026-05-01T12:55:18.1Z</time></trkpt><trkpt lat="45.4258083" lon="11.9753267"><ele>9.0</ele><time>2026-05-01T12:55:19.1Z</time></trkpt><trkpt lat="45.4258883" lon="11.9757417"><ele>9.0</ele><time>2026-05-01T12:55:20.101Z</time></trkpt><trkpt lat="45.4259733" lon="11.97615"><ele>9.0</ele><time>2026-05-01T12:55:21.101Z</time></trkpt><trkpt lat="45.4260583" lon="11.9765533"><ele>8.5</ele><time>2026-05-01T12:55:22.1Z</time></trkpt><trkpt lat="45.426145" lon="11.9769567"><ele>8.0</ele><time>2026-05-01T12:55:23.1Z</time></trkpt><trkpt lat="45.42623" lon="11.977355"><ele>7.5</ele><time>2026-05-01T12:55:24.1Z</time></trkpt><trkpt lat="45.4263117" lon="11.9777533"><ele>7.0</ele><time>2026-05-01T12:55:25.1Z</time></trkpt><trkpt lat="45.4263917" lon="11.97815"><ele>6.5</ele><time>2026-05-01T12:55:26.1Z</time></trkpt><trkpt lat="45.4264717" lon="11.9785467"><ele>6.0</ele><time>2026-05-01T12:55:27.101Z</time></trkpt><trkpt lat="45.42655" lon="11.9789433"><ele>6.5</ele><time>2026-05-01T12:55:28.101Z</time></trkpt><trkpt lat="45.42663" lon="11.9793483"><ele>7.0</ele><time>2026-05-01T12:55:29.1Z</time></trkpt><trkpt lat="45.4267117" lon="11.9797533"><ele>7.0</ele><time>2026-05-01T12:55:30.101Z</time></trkpt><trkpt lat="45.4267883" lon="11.9801567"><ele>7.0</ele><time>2026-05-01T12:55:31.1Z</time></trkpt><trkpt lat="45.42687" lon="11.980565"><ele>6.5</ele><time>2026-05-01T12:55:32.1Z</time></trkpt><trkpt lat="45.42696" lon="11.9809783"><ele>6.0</ele><time>2026-05-01T12:55:33.1Z</time></trkpt><trkpt lat="45.4270467" lon="11.9813867"><ele>5.5</ele><time>2026-05-01T12:55:34.101Z</time></trkpt><trkpt lat="45.42713" lon="11.9817883"><ele>5.0</ele><time>2026-05-01T12:55:35.101Z</time></trkpt><trkpt lat="45.427215" lon="11.9821967"><ele>5.5</ele><time>2026-05-01T12:55:36.1Z</time></trkpt><trkpt lat="45.427295" lon="11.9826017"><ele>6.0</ele><time>2026-05-01T12:55:37.1Z</time></trkpt><trkpt lat="45.4273783" lon="11.9830167"><ele>5.5</ele><time>2026-05-01T12:55:38.1Z</time></trkpt><trkpt lat="45.4274617" lon="11.983425"><ele>5.0</ele><time>2026-05-01T12:55:39.1Z</time></trkpt><trkpt lat="45.4275483" lon="11.9838367"><ele>4.5</ele><time>2026-05-01T12:55:40.1Z</time></trkpt><trkpt lat="45.4276383" lon="11.9842483"><ele>4.0</ele><time>2026-05-01T12:55:41.101Z</time></trkpt><trkpt lat="45.4277233" lon="11.98466"><ele>4.5</ele><time>2026-05-01T12:55:42.1Z</time></trkpt><trkpt lat="45.4278083" lon="11.9850717"><ele>5.0</ele><time>2026-05-01T12:55:43.101Z</time></trkpt><trkpt lat="45.42789" lon="11.98548"><ele>5.0</ele><time>2026-05-01T12:55:44.101Z</time></trkpt><trkpt lat="45.4279767" lon="11.9858867"><ele>5.0</ele><time>2026-05-01T12:55:45.1Z</time></trkpt><trkpt lat="45.4280617" lon="11.9862967"><ele>5.0</ele><time>2026-05-01T12:55:46.101Z</time></trkpt><trkpt lat="45.4281367" lon="11.9867067"><ele>5.0</ele><time>2026-05-01T12:55:47.1Z</time></trkpt><trkpt lat="45.4282233" lon="11.9871133"><ele>5.0</ele><time>2026-05-01T12:55:48.101Z</time></trkpt><trkpt lat="45.4283" lon="11.98752"><ele>5.0</ele><time>2026-05-01T12:55:49.1Z</time></trkpt><trkpt lat="45.4283867" lon="11.98792"><ele>5.0</ele><time>2026-05-01T12:55:50.1Z</time></trkpt><trkpt lat="45.4284683" lon="11.9883183"><ele>5.0</ele><time>2026-05-01T12:55:51.1Z</time></trkpt><trkpt lat="45.4285483" lon="11.988715"><ele>5.0</ele><time>2026-05-01T12:55:52.101Z</time></trkpt><trkpt lat="45.4286317" lon="11.9891133"><ele>5.0</ele><time>2026-05-01T12:55:53.1Z</time></trkpt><trkpt lat="45.428715" lon="11.9895133"><ele>5.0</ele><time>2026-05-01T12:55:54.1Z</time></trkpt><trkpt lat="45.4287967" lon="11.9899117"><ele>5.0</ele><time>2026-05-01T12:55:55.101Z</time></trkpt><trkpt lat="45.4288817" lon="11.99031"><ele>4.5</ele><time>2026-05-01T12:55:56.101Z</time></trkpt><trkpt lat="45.4289633" lon="11.9907133"><ele>4.0</ele><time>2026-05-01T12:55:57.1Z</time></trkpt><trkpt lat="45.4290467" lon="11.991115"><ele>5.0</ele><time>2026-05-01T12:55:58.101Z</time></trkpt><trkpt lat="45.42913" lon="11.9915183"><ele>6.0</ele><time>2026-05-01T12:55:59.1Z</time></trkpt><trkpt lat="45.429215" lon="11.9919217"><ele>6.0</ele><time>2026-05-01T12:56:00.1Z</time></trkpt><trkpt lat="45.4292967" lon="11.9923233"><ele>6.0</ele><time>2026-05-01T12:56:01.101Z</time></trkpt><trkpt lat="45.4293767" lon="11.9927233"><ele>5.0</ele><time>2026-05-01T12:56:02.1Z</time></trkpt><trkpt lat="45.4294583" lon="11.99312"><ele>4.0</ele><time>2026-05-01T12:56:03.1Z</time></trkpt><trkpt lat="45.42954" lon="11.9935233"><ele>4.0</ele><time>2026-05-01T12:56:04.1Z</time></trkpt><trkpt lat="45.4296217" lon="11.99393"><ele>4.0</ele><time>2026-05-01T12:56:05.101Z</time></trkpt><trkpt lat="45.4297067" lon="11.9943367"><ele>4.5</ele><time>2026-05-01T12:56:06.1Z</time></trkpt><trkpt lat="45.4297917" lon="11.994745"><ele>5.0</ele><time>2026-05-01T12:56:07.1Z</time></trkpt><trkpt lat="45.4298767" lon="11.995155"><ele>5.0</ele><time>2026-05-01T12:56:08.101Z</time></trkpt><trkpt lat="45.42996" lon="11.99557"><ele>5.0</ele><time>2026-05-01T12:56:09.101Z</time></trkpt><trkpt lat="45.430045" lon="11.9959867"><ele>5.0</ele><time>2026-05-01T12:56:10.101Z</time></trkpt><trkpt lat="45.4301283" lon="11.9964"><ele>5.0</ele><time>2026-05-01T12:56:11.1Z</time></trkpt><trkpt lat="45.4302183" lon="11.9968167"><ele>5.0</ele><time>2026-05-01T12:56:12.101Z</time></trkpt><trkpt lat="45.4303067" lon="11.9972383"><ele>5.0</ele><time>2026-05-01T12:56:13.1Z</time></trkpt><trkpt lat="45.4304" lon="11.9976583"><ele>5.5</ele><time>2026-05-01T12:56:14.1Z</time></trkpt><trkpt lat="45.4304883" lon="11.99808"><ele>6.0</ele><time>2026-05-01T12:56:15.1Z</time></trkpt><trkpt lat="45.43057" lon="11.9985067"><ele>6.0</ele><time>2026-05-01T12:56:16.101Z</time></trkpt><trkpt lat="45.4306583" lon="11.998935"><ele>6.0</ele><time>2026-05-01T12:56:17.1Z</time></trkpt><trkpt lat="45.4307433" lon="11.999335"><ele>5.5</ele><time>2026-05-01T12:56:18.1Z</time></trkpt><trkpt lat="45.4308267" lon="11.99974"><ele>5.0</ele><time>2026-05-01T12:56:19.101Z</time></trkpt><trkpt lat="45.4309133" lon="12.0001483"><ele>5.0</ele><time>2026-05-01T12:56:20.1Z</time></trkpt><trkpt lat="45.4309983" lon="12.0005633"><ele>5.0</ele><time>2026-05-01T12:56:21.1Z</time></trkpt><trkpt lat="45.4310833" lon="12.0009733"><ele>4.0</ele><time>2026-05-01T12:56:22.101Z</time></trkpt><trkpt lat="45.431165" lon="12.001395"><ele>3.0</ele><time>2026-05-01T12:56:23.101Z</time></trkpt><trkpt lat="45.43125" lon="12.0018217"><ele>4.0</ele><time>2026-05-01T12:56:24.1Z</time></trkpt><trkpt lat="45.4313317" lon="12.0022383"><ele>5.0</ele><time>2026-05-01T12:56:25.101Z</time></trkpt><trkpt lat="45.43142" lon="12.002655"><ele>5.0</ele><time>2026-05-01T12:56:26.1Z</time></trkpt><trkpt lat="45.431505" lon="12.0030717"><ele>5.0</ele><time>2026-05-01T12:56:27.101Z</time></trkpt><trkpt lat="45.4315917" lon="12.00348"><ele>4.5</ele><time>2026-05-01T12:56:28.101Z</time></trkpt><trkpt lat="45.4316833" lon="12.00389"><ele>4.0</ele><time>2026-05-01T12:56:29.101Z</time></trkpt><trkpt lat="45.4317783" lon="12.0043033"><ele>3.5</ele><time>2026-05-01T12:56:30.101Z</time></trkpt><trkpt lat="45.4318717" lon="12.0047133"><ele>3.0</ele><time>2026-05-01T12:56:31.101Z</time></trkpt><trkpt lat="45.43196" lon="12.0051317"><ele>4.0</ele><time>2026-05-01T12:56:32.101Z</time></trkpt><trkpt lat="45.432045" lon="12.0055533"><ele>5.0</ele><time>2026-05-01T12:56:33.1Z</time></trkpt><trkpt lat="45.432135" lon="12.005975"><ele>4.5</ele><time>2026-05-01T12:56:34.101Z</time></trkpt><trkpt lat="45.432225" lon="12.0064"><ele>4.0</ele><time>2026-05-01T12:56:35.101Z</time></trkpt><trkpt lat="45.432315" lon="12.006825"><ele>4.0</ele><time>2026-05-01T12:56:36.101Z</time></trkpt><trkpt lat="45.4324" lon="12.007255"><ele>4.0</ele><time>2026-05-01T12:56:37.1Z</time></trkpt><trkpt lat="45.4324867" lon="12.0076867"><ele>4.0</ele><time>2026-05-01T12:56:38.1Z</time></trkpt><trkpt lat="45.432575" lon="12.00812"><ele>4.0</ele><time>2026-05-01T12:56:39.1Z</time></trkpt><trkpt lat="45.432665" lon="12.0085517"><ele>4.0</ele><time>2026-05-01T12:56:40.101Z</time></trkpt><trkpt lat="45.432755" lon="12.0089833"><ele>4.0</ele><time>2026-05-01T12:56:41.101Z</time></trkpt><trkpt lat="45.4328433" lon="12.009415"><ele>4.0</ele><time>2026-05-01T12:56:42.1Z</time></trkpt><trkpt lat="45.4329333" lon="12.0098467"><ele>4.0</ele><time>2026-05-01T12:56:43.1Z</time></trkpt><trkpt lat="45.4330233" lon="12.010275"><ele>3.5</ele><time>2026-05-01T12:56:44.101Z</time></trkpt><trkpt lat="45.4331083" lon="12.0107"><ele>3.0</ele><time>2026-05-01T12:56:45.101Z</time></trkpt><trkpt lat="45.433195" lon="12.0111267"><ele>3.0</ele><time>2026-05-01T12:56:46.1Z</time></trkpt><trkpt lat="45.4332817" lon="12.01155"><ele>3.0</ele><time>2026-05-01T12:56:47.1Z</time></trkpt><trkpt lat="45.4333683" lon="12.0119717"><ele>3.0</ele><time>2026-05-01T12:56:48.101Z</time></trkpt><trkpt lat="45.4334517" lon="12.0123983"><ele>3.0</ele><time>2026-05-01T12:56:49.101Z</time></trkpt><trkpt lat="45.4335367" lon="12.0128267"><ele>3.0</ele><time>2026-05-01T12:56:50.1Z</time></trkpt><trkpt lat="45.43362" lon="12.013255"><ele>3.0</ele><time>2026-05-01T12:56:51.101Z</time></trkpt><trkpt lat="45.4337033" lon="12.0136583"><ele>3.5</ele><time>2026-05-01T12:56:52.101Z</time></trkpt><trkpt lat="45.43378" lon="12.0140567"><ele>4.0</ele><time>2026-05-01T12:56:53.1Z</time></trkpt><trkpt lat="45.43386" lon="12.014445"><ele>4.0</ele><time>2026-05-01T12:56:54.101Z</time></trkpt><trkpt lat="45.4339367" lon="12.0148367"><ele>4.0</ele><time>2026-05-01T12:56:55.1Z</time></trkpt><trkpt lat="45.4340133" lon="12.015225"><ele>5.0</ele><time>2026-05-01T12:56:56.1Z</time></trkpt><trkpt lat="45.4341033" lon="12.0156133"><ele>6.0</ele><time>2026-05-01T12:56:57.101Z</time></trkpt><trkpt lat="45.4341817" lon="12.0160067"><ele>7.0</ele><time>2026-05-01T12:56:58.101Z</time></trkpt><trkpt lat="45.4342633" lon="12.0163983"><ele>8.0</ele><time>2026-05-01T12:56:59.1Z</time></trkpt><trkpt lat="45.4343433" lon="12.0167933"><ele>6.0</ele><time>2026-05-01T12:57:00.1Z</time></trkpt><trkpt lat="45.4344233" lon="12.01719"><ele>4.0</ele><time>2026-05-01T12:57:01.1Z</time></trkpt><trkpt lat="45.4345067" lon="12.0175883"><ele>4.0</ele><time>2026-05-01T12:57:02.1Z</time></trkpt><trkpt lat="45.43459" lon="12.0179867"><ele>4.0</ele><time>2026-05-01T12:57:03.101Z</time></trkpt><trkpt lat="45.4346733" lon="12.018375"><ele>4.0</ele><time>2026-05-01T12:57:04.1Z</time></trkpt><trkpt lat="45.4347533" lon="12.0187683"><ele>4.0</ele><time>2026-05-01T12:57:05.1Z</time></trkpt><trkpt lat="45.4348317" lon="12.01916"><ele>4.0</ele><time>2026-05-01T12:57:06.1Z</time></trkpt><trkpt lat="45.4349083" lon="12.0195517"><ele>4.0</ele><time>2026-05-01T12:57:07.101Z</time></trkpt><trkpt lat="45.4349933" lon="12.0199433"><ele>4.0</ele><time>2026-05-01T12:57:08.1Z</time></trkpt><trkpt lat="45.4350767" lon="12.020335"><ele>4.0</ele><time>2026-05-01T12:57:09.101Z</time></trkpt><trkpt lat="45.43516" lon="12.02073"><ele>3.5</ele><time>2026-05-01T12:57:10.1Z</time></trkpt><trkpt lat="45.43524" lon="12.02112"><ele>3.0</ele><time>2026-05-01T12:57:11.1Z</time></trkpt><trkpt lat="45.4353183" lon="12.0215167"><ele>2.5</ele><time>2026-05-01T12:57:12.1Z</time></trkpt><trkpt lat="45.4353983" lon="12.021905"><ele>2.0</ele><time>2026-05-01T12:57:13.101Z</time></trkpt><trkpt lat="45.435485" lon="12.02229"><ele>3.0</ele><time>2026-05-01T12:57:14.1Z</time></trkpt><trkpt lat="45.4355667" lon="12.0226817"><ele>4.0</ele><time>2026-05-01T12:57:15.1Z</time></trkpt><trkpt lat="45.4356517" lon="12.023075"><ele>4.5</ele><time>2026-05-01T12:57:16.101Z</time></trkpt><trkpt lat="45.4357367" lon="12.02347"><ele>5.0</ele><time>2026-05-01T12:57:17.1Z</time></trkpt><trkpt lat="45.4358217" lon="12.0238717"><ele>4.5</ele><time>2026-05-01T12:57:18.1Z</time></trkpt><trkpt lat="45.4359083" lon="12.0242867"><ele>4.0</ele><time>2026-05-01T12:57:19.1Z</time></trkpt><trkpt lat="45.4359967" lon="12.0247033"><ele>4.5</ele><time>2026-05-01T12:57:20.1Z</time></trkpt><trkpt lat="45.43608" lon="12.0251267"><ele>5.0</ele><time>2026-05-01T12:57:21.101Z</time></trkpt><trkpt lat="45.436165" lon="12.02555"><ele>4.5</ele><time>2026-05-01T12:57:22.1Z</time></trkpt><trkpt lat="45.4362517" lon="12.0259783"><ele>4.0</ele><time>2026-05-01T12:57:23.101Z</time></trkpt><trkpt lat="45.436335" lon="12.02641"><ele>4.5</ele><time>2026-05-01T12:57:24.1Z</time></trkpt><trkpt lat="45.4364183" lon="12.0268433"><ele>5.0</ele><time>2026-05-01T12:57:25.1Z</time></trkpt><trkpt lat="45.4365" lon="12.0272683"><ele>4.5</ele><time>2026-05-01T12:57:26.101Z</time></trkpt><trkpt lat="45.4365867" lon="12.027695"><ele>4.0</ele><time>2026-05-01T12:57:27.101Z</time></trkpt><trkpt lat="45.4366733" lon="12.028115"><ele>3.5</ele><time>2026-05-01T12:57:28.101Z</time></trkpt><trkpt lat="45.4367567" lon="12.0285283"><ele>3.0</ele><time>2026-05-01T12:57:29.101Z</time></trkpt><trkpt lat="45.4368383" lon="12.0289417"><ele>3.5</ele><time>2026-05-01T12:57:30.1Z</time></trkpt><trkpt lat="45.4369233" lon="12.0293533"><ele>4.0</ele><time>2026-05-01T12:57:31.101Z</time></trkpt><trkpt lat="45.4370067" lon="12.0297617"><ele>4.0</ele><time>2026-05-01T12:57:32.101Z</time></trkpt><trkpt lat="45.43709" lon="12.0301683"><ele>4.0</ele><time>2026-05-01T12:57:33.1Z</time></trkpt><trkpt lat="45.4371767" lon="12.0305717"><ele>4.0</ele><time>2026-05-01T12:57:34.101Z</time></trkpt><trkpt lat="45.4372633" lon="12.0309817"><ele>4.0</ele><time>2026-05-01T12:57:35.1Z</time></trkpt><trkpt lat="45.4373483" lon="12.031395"><ele>4.5</ele><time>2026-05-01T12:57:36.1Z</time></trkpt><trkpt lat="45.43743" lon="12.0318117"><ele>5.0</ele><time>2026-05-01T12:57:37.1Z</time></trkpt><trkpt lat="45.4375117" lon="12.032225"><ele>4.5</ele><time>2026-05-01T12:57:38.101Z</time></trkpt><trkpt lat="45.4375967" lon="12.032645"><ele>4.0</ele><time>2026-05-01T12:57:39.1Z</time></trkpt><trkpt lat="45.4376917" lon="12.0330617"><ele>4.0</ele><time>2026-05-01T12:57:40.101Z</time></trkpt><trkpt lat="45.437775" lon="12.0334783"><ele>4.0</ele><time>2026-05-01T12:57:41.1Z</time></trkpt><trkpt lat="45.4378567" lon="12.0338933"><ele>4.5</ele><time>2026-05-01T12:57:42.1Z</time></trkpt><trkpt lat="45.4379383" lon="12.0343167"><ele>5.0</ele><time>2026-05-01T12:57:43.1Z</time></trkpt><trkpt lat="45.438025" lon="12.0347367"><ele>5.0</ele><time>2026-05-01T12:57:44.1Z</time></trkpt><trkpt lat="45.4381083" lon="12.035155"><ele>5.0</ele><time>2026-05-01T12:57:45.101Z</time></trkpt><trkpt lat="45.43819" lon="12.035545"><ele>4.5</ele><time>2026-05-01T12:57:46.1Z</time></trkpt><trkpt lat="45.4382667" lon="12.035935"><ele>4.0</ele><time>2026-05-01T12:57:47.1Z</time></trkpt><trkpt lat="45.4383467" lon="12.036325"><ele>3.5</ele><time>2026-05-01T12:57:48.1Z</time></trkpt><trkpt lat="45.438425" lon="12.0367183"><ele>3.0</ele><time>2026-05-01T12:57:49.101Z</time></trkpt><trkpt lat="45.4385017" lon="12.0371117"><ele>4.0</ele><time>2026-05-01T12:57:50.101Z</time></trkpt><trkpt lat="45.4385817" lon="12.0375033"><ele>5.0</ele><time>2026-05-01T12:57:51.1Z</time></trkpt><trkpt lat="45.4386617" lon="12.0378933"><ele>5.0</ele><time>2026-05-01T12:57:52.101Z</time></trkpt><trkpt lat="45.4387467" lon="12.0382817"><ele>5.0</ele><time>2026-05-01T12:57:53.1Z</time></trkpt><trkpt lat="45.4388267" lon="12.0386633"><ele>4.5</ele><time>2026-05-01T12:57:54.101Z</time></trkpt><trkpt lat="45.43891" lon="12.0390467"><ele>4.0</ele><time>2026-05-01T12:57:55.1Z</time></trkpt><trkpt lat="45.438985" lon="12.0394283"><ele>4.0</ele><time>2026-05-01T12:57:56.1Z</time></trkpt><trkpt lat="45.4390617" lon="12.039815"><ele>4.0</ele><time>2026-05-01T12:57:57.1Z</time></trkpt><trkpt lat="45.4391367" lon="12.0401933"><ele>4.0</ele><time>2026-05-01T12:57:58.1Z</time></trkpt><trkpt lat="45.4392117" lon="12.0405683"><ele>4.0</ele><time>2026-05-01T12:57:59.1Z</time></trkpt><trkpt lat="45.43929" lon="12.04094"><ele>4.0</ele><time>2026-05-01T12:58:00.101Z</time></trkpt><trkpt lat="45.4393733" lon="12.0413167"><ele>4.0</ele><time>2026-05-01T12:58:01.1Z</time></trkpt><trkpt lat="45.4394533" lon="12.0416967"><ele>4.0</ele><time>2026-05-01T12:58:02.1Z</time></trkpt><trkpt lat="45.4395383" lon="12.0420833"><ele>4.0</ele><time>2026-05-01T12:58:03.1Z</time></trkpt><trkpt lat="45.439615" lon="12.042465"><ele>4.0</ele><time>2026-05-01T12:58:04.1Z</time></trkpt><trkpt lat="45.4396833" lon="12.0428483"><ele>4.0</ele><time>2026-05-01T12:58:05.1Z</time></trkpt><trkpt lat="45.439755" lon="12.0432283"><ele>4.5</ele><time>2026-05-01T12:58:06.101Z</time></trkpt><trkpt lat="45.43983" lon="12.04361"><ele>5.0</ele><time>2026-05-01T12:58:07.1Z</time></trkpt><trkpt lat="45.4399067" lon="12.0439967"><ele>5.0</ele><time>2026-05-01T12:58:08.1Z</time></trkpt><trkpt lat="45.4399867" lon="12.0443817"><ele>5.0</ele><time>2026-05-01T12:58:09.1Z</time></trkpt><trkpt lat="45.440065" lon="12.0447633"><ele>5.5</ele><time>2026-05-01T12:58:10.101Z</time></trkpt><trkpt lat="45.44014" lon="12.04515"><ele>6.0</ele><time>2026-05-01T12:58:11.101Z</time></trkpt><trkpt lat="45.4402267" lon="12.0455433"><ele>6.5</ele><time>2026-05-01T12:58:12.101Z</time></trkpt><trkpt lat="45.4403" lon="12.045935"><ele>7.0</ele><time>2026-05-01T12:58:13.1Z</time></trkpt><trkpt lat="45.4403767" lon="12.04632"><ele>6.0</ele><time>2026-05-01T12:58:14.101Z</time></trkpt><trkpt lat="45.440455" lon="12.0467067"><ele>5.0</ele><time>2026-05-01T12:58:15.1Z</time></trkpt><trkpt lat="45.4405333" lon="12.0470967"><ele>4.0</ele><time>2026-05-01T12:58:16.1Z</time></trkpt><trkpt lat="45.4406117" lon="12.0474883"><ele>3.0</ele><time>2026-05-01T12:58:17.101Z</time></trkpt><trkpt lat="45.4406867" lon="12.047875"><ele>3.0</ele><time>2026-05-01T12:58:18.1Z</time></trkpt><trkpt lat="45.44076" lon="12.0482467"><ele>3.0</ele><time>2026-05-01T12:58:19.1Z</time></trkpt><trkpt lat="45.4408283" lon="12.0486"><ele>2.5</ele><time>2026-05-01T12:58:20.101Z</time></trkpt><trkpt lat="45.4408933" lon="12.0489367"><ele>2.0</ele><time>2026-05-01T12:58:21.1Z</time></trkpt><trkpt lat="45.44096" lon="12.0492567"><ele>2.0</ele><time>2026-05-01T12:58:22.101Z</time></trkpt><trkpt lat="45.4410233" lon="12.049565"><ele>2.0</ele><time>2026-05-01T12:58:23.101Z</time></trkpt><trkpt lat="45.441085" lon="12.049865"><ele>2.0</ele><time>2026-05-01T12:58:24.1Z</time></trkpt><trkpt lat="45.4411417" lon="12.0501433"><ele>2.333333333333333</ele><time>2026-05-01T12:58:25.099Z</time></trkpt><trkpt lat="45.4411933" lon="12.0504067"><ele>2.6666666666666665</ele><time>2026-05-01T12:58:26.1Z</time></trkpt><trkpt lat="45.4412283" lon="12.0506583"><ele>3.0</ele><time>2026-05-01T12:58:27.1Z</time></trkpt><trkpt lat="45.4412483" lon="12.0511133"><ele>3.0</ele><time>2026-05-01T12:58:29.099Z</time></trkpt><trkpt lat="45.4412333" lon="12.0513167"><ele>3.0</ele><time>2026-05-01T12:58:30.099Z</time></trkpt><trkpt lat="45.4412233" lon="12.0515"><ele>3.0</ele><time>2026-05-01T12:58:31.1Z</time></trkpt><trkpt lat="45.4412367" lon="12.0516633"><ele>3.0</ele><time>2026-05-01T12:58:32.1Z</time></trkpt><trkpt lat="45.4412667" lon="12.051815"><ele>3.0</ele><time>2026-05-01T12:58:33.1Z</time></trkpt><trkpt lat="45.441315" lon="12.0519583"><ele>3.0</ele><time>2026-05-01T12:58:34.099Z</time></trkpt><trkpt lat="45.44138" lon="12.052105"><ele>3.0</ele><time>2026-05-01T12:58:35.1Z</time></trkpt><trkpt lat="45.4414383" lon="12.0522633"><ele>3.0</ele><time>2026-05-01T12:58:36.099Z</time></trkpt><trkpt lat="45.44149" lon="12.052415"><ele>3.25</ele><time>2026-05-01T12:58:37.1Z</time></trkpt><trkpt lat="45.44154" lon="12.0525683"><ele>3.5</ele><time>2026-05-01T12:58:38.099Z</time></trkpt><trkpt lat="45.4415833" lon="12.0527233"><ele>3.75</ele><time>2026-05-01T12:58:39.1Z</time></trkpt><trkpt lat="45.441625" lon="12.05288"><ele>4.0</ele><time>2026-05-01T12:58:40.1Z</time></trkpt><trkpt lat="45.4416583" lon="12.0530433"><ele>4.0</ele><time>2026-05-01T12:58:41.099Z</time></trkpt><trkpt lat="45.4416867" lon="12.0531967"><ele>4.0</ele><time>2026-05-01T12:58:42.1Z</time></trkpt><trkpt lat="45.4417117" lon="12.05335"><ele>4.0</ele><time>2026-05-01T12:58:43.099Z</time></trkpt><trkpt lat="45.4417417" lon="12.0534883"><ele>4.0</ele><time>2026-05-01T12:58:44.099Z</time></trkpt><trkpt lat="45.4417683" lon="12.053625"><ele>4.0</ele><time>2026-05-01T12:58:45.099Z</time></trkpt><trkpt lat="45.4417917" lon="12.0537533"><ele>3.833333333333333</ele><time>2026-05-01T12:58:46.1Z</time></trkpt><trkpt lat="45.4418183" lon="12.053875"><ele>3.6666666666666665</ele><time>2026-05-01T12:58:47.1Z</time></trkpt><trkpt lat="45.44184" lon="12.0539883"><ele>3.5</ele><time>2026-05-01T12:58:48.099Z</time></trkpt><trkpt lat="45.441855" lon="12.0541017"><ele>3.333333333333333</ele><time>2026-05-01T12:58:49.099Z</time></trkpt><trkpt lat="45.4418617" lon="12.0542133"><ele>3.1666666666666665</ele><time>2026-05-01T12:58:50.099Z</time></trkpt><trkpt lat="45.4418517" lon="12.0543183"><ele>3.0</ele><time>2026-05-01T12:58:51.1Z</time></trkpt><trkpt lat="45.4418317" lon="12.0544133"><ele>3.1666666666666665</ele><time>2026-05-01T12:58:52.1Z</time></trkpt><trkpt lat="45.4418133" lon="12.0545133"><ele>3.333333333333333</ele><time>2026-05-01T12:58:53.099Z</time></trkpt><trkpt lat="45.4418117" lon="12.0546217"><ele>3.5</ele><time>2026-05-01T12:58:54.1Z</time></trkpt><trkpt lat="45.4418283" lon="12.0547333"><ele>3.6666666666666665</ele><time>2026-05-01T12:58:55.1Z</time></trkpt><trkpt lat="45.4418533" lon="12.0548483"><ele>3.833333333333333</ele><time>2026-05-01T12:58:56.099Z</time></trkpt><trkpt lat="45.441875" lon="12.0549617"><ele>4.0</ele><time>2026-05-01T12:58:57.1Z</time></trkpt><trkpt lat="45.441895" lon="12.0550633"><ele>3.9999999999999996</ele><time>2026-05-01T12:58:58.1Z</time></trkpt><trkpt lat="45.44192" lon="12.05516"><ele>4.0</ele><time>2026-05-01T12:58:59.1Z</time></trkpt><trkpt lat="45.441935" lon="12.0552533"><ele>4.0</ele><time>2026-05-01T12:59:00.099Z</time></trkpt><trkpt lat="45.4419533" lon="12.0553417"><ele>4.0</ele><time>2026-05-01T12:59:01.1Z</time></trkpt><trkpt lat="45.4419717" lon="12.0554283"><ele>3.9999999999999996</ele><time>2026-05-01T12:59:02.099Z</time></trkpt><trkpt lat="45.4420033" lon="12.0555983"><ele>4.0</ele><time>2026-05-01T12:59:04.099Z</time></trkpt><trkpt lat="45.4420217" lon="12.0557467"><ele>4.0</ele><time>2026-05-01T12:59:06.099Z</time></trkpt><trkpt lat="45.4420583" lon="12.05588"><ele>4.0</ele><time>2026-05-01T12:59:08.099Z</time></trkpt><trkpt lat="45.4421" lon="12.055995"><ele>4.0</ele><time>2026-05-01T12:59:10.099Z</time></trkpt><trkpt lat="45.4421267" lon="12.0560833"><ele>4.0</ele><time>2026-05-01T12:59:12.099Z</time></trkpt><trkpt lat="45.4421617" lon="12.0562083"><ele>4.0</ele><time>2026-05-01T13:03:51.1Z</time></trkpt><trkpt lat="45.442175" lon="12.0563517"><ele>3.9999999999999996</ele><time>2026-05-01T13:03:53.1Z</time></trkpt><trkpt lat="45.4422083" lon="12.0564317"><ele>4.0</ele><time>2026-05-01T13:03:54.099Z</time></trkpt><trkpt lat="45.44225" lon="12.056505"><ele>4.0</ele><time>2026-05-01T13:03:55.099Z</time></trkpt><trkpt lat="45.4422933" lon="12.0565817"><ele>4.0</ele><time>2026-05-01T13:03:56.099Z</time></trkpt><trkpt lat="45.442335" lon="12.0566767"><ele>3.9999999999999996</ele><time>2026-05-01T13:03:57.1Z</time></trkpt><trkpt lat="45.442375" lon="12.0568"><ele>4.0</ele><time>2026-05-01T13:03:58.099Z</time></trkpt><trkpt lat="45.4424217" lon="12.0569133"><ele>3.833333333333333</ele><time>2026-05-01T13:03:59.1Z</time></trkpt><trkpt lat="45.4424417" lon="12.05702"><ele>3.6666666666666665</ele><time>2026-05-01T13:04:00.1Z</time></trkpt><trkpt lat="45.442455" lon="12.05713"><ele>3.5</ele><time>2026-05-01T13:04:01.099Z</time></trkpt><trkpt lat="45.4424683" lon="12.057245"><ele>3.333333333333333</ele><time>2026-05-01T13:04:02.099Z</time></trkpt><trkpt lat="45.442475" lon="12.05736"><ele>3.1666666666666665</ele><time>2026-05-01T13:04:03.099Z</time></trkpt><trkpt lat="45.4424933" lon="12.057465"><ele>3.0</ele><time>2026-05-01T13:04:04.1Z</time></trkpt><trkpt lat="45.44251" lon="12.0575617"><ele>3.0</ele><time>2026-05-01T13:04:05.099Z</time></trkpt><trkpt lat="45.4425267" lon="12.057655"><ele>3.0</ele><time>2026-05-01T13:04:06.099Z</time></trkpt><trkpt lat="45.44256" lon="12.057815"><ele>3.0</ele><time>2026-05-01T13:04:08.1Z</time></trkpt><trkpt lat="45.4426317" lon="12.057965"><ele>3.0</ele><time>2026-05-01T13:04:10.1Z</time></trkpt><trkpt lat="45.44268" lon="12.0580583"><ele>3.0</ele><time>2026-05-01T13:04:11.099Z</time></trkpt><trkpt lat="45.4427333" lon="12.0581733"><ele>2.75</ele><time>2026-05-01T13:04:12.099Z</time></trkpt><trkpt lat="45.4427883" lon="12.0583083"><ele>2.5</ele><time>2026-05-01T13:04:13.099Z</time></trkpt><trkpt lat="45.4428267" lon="12.05846"><ele>2.25</ele><time>2026-05-01T13:04:14.099Z</time></trkpt><trkpt lat="45.44287" lon="12.05862"><ele>2.0</ele><time>2026-05-01T13:04:15.1Z</time></trkpt><trkpt lat="45.4429117" lon="12.058795"><ele>2.0</ele><time>2026-05-01T13:04:16.099Z</time></trkpt><trkpt lat="45.4429567" lon="12.0589867"><ele>2.0</ele><time>2026-05-01T13:04:17.1Z</time></trkpt><trkpt lat="45.443" lon="12.0591867"><ele>2.0</ele><time>2026-05-01T13:04:18.1Z</time></trkpt><trkpt lat="45.443045" lon="12.0593917"><ele>2.0</ele><time>2026-05-01T13:04:19.1Z</time></trkpt><trkpt lat="45.443095" lon="12.0596067"><ele>2.0</ele><time>2026-05-01T13:04:20.099Z</time></trkpt><trkpt lat="45.4431417" lon="12.0598383"><ele>2.0</ele><time>2026-05-01T13:04:21.1Z</time></trkpt><trkpt lat="45.4431967" lon="12.0600833"><ele>2.0</ele><time>2026-05-01T13:04:22.1Z</time></trkpt><trkpt lat="45.44325" lon="12.0603383"><ele>2.0</ele><time>2026-05-01T13:04:23.1Z</time></trkpt><trkpt lat="45.44331" lon="12.0606083"><ele>2.0</ele><time>2026-05-01T13:04:24.1Z</time></trkpt><trkpt lat="45.4433717" lon="12.06089"><ele>2.0</ele><time>2026-05-01T13:04:25.099Z</time></trkpt><trkpt lat="45.4434317" lon="12.061175"><ele>2.0</ele><time>2026-05-01T13:04:26.099Z</time></trkpt><trkpt lat="45.4434883" lon="12.0614517"><ele>2.0</ele><time>2026-05-01T13:04:27.1Z</time></trkpt><trkpt lat="45.4435467" lon="12.0617267"><ele>2.0</ele><time>2026-05-01T13:04:28.099Z</time></trkpt><trkpt lat="45.443605" lon="12.0619967"><ele>2.0</ele><time>2026-05-01T13:04:29.099Z</time></trkpt><trkpt lat="45.443665" lon="12.0622783"><ele>2.0</ele><time>2026-05-01T13:04:30.1Z</time></trkpt><trkpt lat="45.4437233" lon="12.0625733"><ele>2.0</ele><time>2026-05-01T13:04:31.099Z</time></trkpt><trkpt lat="45.443785" lon="12.0628683"><ele>2.0</ele><time>2026-05-01T13:04:32.099Z</time></trkpt><trkpt lat="45.4438433" lon="12.06316"><ele>2.0</ele><time>2026-05-01T13:04:33.099Z</time></trkpt><trkpt lat="45.4439017" lon="12.0634617"><ele>2.0</ele><time>2026-05-01T13:04:34.1Z</time></trkpt><trkpt lat="45.4439633" lon="12.063765"><ele>2.5</ele><time>2026-05-01T13:04:35.099Z</time></trkpt><trkpt lat="45.4440283" lon="12.064075"><ele>3.0</ele><time>2026-05-01T13:04:36.099Z</time></trkpt><trkpt lat="45.444095" lon="12.0643833"><ele>3.0</ele><time>2026-05-01T13:04:37.099Z</time></trkpt><trkpt lat="45.4441633" lon="12.0646817"><ele>3.0</ele><time>2026-05-01T13:04:38.099Z</time></trkpt><trkpt lat="45.444225" lon="12.0649767"><ele>3.0</ele><time>2026-05-01T13:04:39.1Z</time></trkpt><trkpt lat="45.4442883" lon="12.065275"><ele>2.5</ele><time>2026-05-01T13:04:40.099Z</time></trkpt><trkpt lat="45.444355" lon="12.0655867"><ele>2.0</ele><time>2026-05-01T13:04:41.099Z</time></trkpt><trkpt lat="45.4444183" lon="12.0659133"><ele>2.0</ele><time>2026-05-01T13:04:42.1Z</time></trkpt><trkpt lat="45.4444833" lon="12.06624"><ele>2.0</ele><time>2026-05-01T13:04:43.1Z</time></trkpt><trkpt lat="45.4445517" lon="12.0665733"><ele>2.0</ele><time>2026-05-01T13:04:44.099Z</time></trkpt><trkpt lat="45.44462" lon="12.0669133"><ele>2.0</ele><time>2026-05-01T13:04:45.1Z</time></trkpt><trkpt lat="45.44469" lon="12.0672583"><ele>2.5</ele><time>2026-05-01T13:04:46.1Z</time></trkpt><trkpt lat="45.4447617" lon="12.0675917"><ele>3.0</ele><time>2026-05-01T13:04:47.099Z</time></trkpt><trkpt lat="45.4448317" lon="12.0679183"><ele>3.0</ele><time>2026-05-01T13:04:48.099Z</time></trkpt><trkpt lat="45.4449" lon="12.068255"><ele>3.0</ele><time>2026-05-01T13:04:49.099Z</time></trkpt><trkpt lat="45.44497" lon="12.0685933"><ele>3.0</ele><time>2026-05-01T13:04:50.099Z</time></trkpt><trkpt lat="45.4450433" lon="12.0689317"><ele>3.0</ele><time>2026-05-01T13:04:51.099Z</time></trkpt><trkpt lat="45.4451167" lon="12.06928"><ele>4.0</ele><time>2026-05-01T13:04:52.099Z</time></trkpt><trkpt lat="45.4452733" lon="12.07001"><ele>4.0</ele><time>2026-05-01T13:04:54.099Z</time></trkpt><trkpt lat="45.445355" lon="12.0703833"><ele>4.0</ele><time>2026-05-01T13:04:55.1Z</time></trkpt><trkpt lat="45.44543" lon="12.0707583"><ele>4.5</ele><time>2026-05-01T13:04:56.099Z</time></trkpt><trkpt lat="45.445505" lon="12.07114"><ele>5.0</ele><time>2026-05-01T13:04:57.099Z</time></trkpt><trkpt lat="45.445575" lon="12.0715283"><ele>4.5</ele><time>2026-05-01T13:04:58.1Z</time></trkpt><trkpt lat="45.4456467" lon="12.0719133"><ele>4.0</ele><time>2026-05-01T13:04:59.1Z</time></trkpt><trkpt lat="45.4457233" lon="12.0723017"><ele>4.5</ele><time>2026-05-01T13:05:00.1Z</time></trkpt><trkpt lat="45.4458" lon="12.072695"><ele>5.0</ele><time>2026-05-01T13:05:01.1Z</time></trkpt><trkpt lat="45.445875" lon="12.07308"><ele>5.5</ele><time>2026-05-01T13:05:02.099Z</time></trkpt><trkpt lat="45.44596" lon="12.0734683"><ele>6.0</ele><time>2026-05-01T13:05:03.1Z</time></trkpt><trkpt lat="45.4460383" lon="12.0738733"><ele>5.0</ele><time>2026-05-01T13:05:04.1Z</time></trkpt><trkpt lat="45.4461117" lon="12.0742917"><ele>4.0</ele><time>2026-05-01T13:05:05.1Z</time></trkpt><trkpt lat="45.4461883" lon="12.0747067"><ele>4.0</ele><time>2026-05-01T13:05:06.1Z</time></trkpt><trkpt lat="45.4462617" lon="12.0751"><ele>4.0</ele><time>2026-05-01T13:05:07.099Z</time></trkpt><trkpt lat="45.4463333" lon="12.0754833"><ele>4.0</ele><time>2026-05-01T13:05:08.1Z</time></trkpt><trkpt lat="45.4464" lon="12.07586"><ele>4.0</ele><time>2026-05-01T13:05:09.099Z</time></trkpt><trkpt lat="45.44647" lon="12.076235"><ele>4.0</ele><time>2026-05-01T13:05:10.1Z</time></trkpt><trkpt lat="45.4465417" lon="12.0766067"><ele>4.0</ele><time>2026-05-01T13:05:11.1Z</time></trkpt><trkpt lat="45.446615" lon="12.0769783"><ele>4.0</ele><time>2026-05-01T13:05:12.099Z</time></trkpt><trkpt lat="45.4466883" lon="12.0773433"><ele>4.0</ele><time>2026-05-01T13:05:13.1Z</time></trkpt><trkpt lat="45.446765" lon="12.0777067"><ele>3.5</ele><time>2026-05-01T13:05:14.099Z</time></trkpt><trkpt lat="45.4468417" lon="12.0780733"><ele>3.0</ele><time>2026-05-01T13:05:15.1Z</time></trkpt><trkpt lat="45.4469167" lon="12.078445"><ele>3.0</ele><time>2026-05-01T13:05:16.1Z</time></trkpt><trkpt lat="45.446995" lon="12.07882"><ele>3.0</ele><time>2026-05-01T13:05:17.099Z</time></trkpt><trkpt lat="45.447075" lon="12.0791983"><ele>3.0</ele><time>2026-05-01T13:05:18.1Z</time></trkpt><trkpt lat="45.4471483" lon="12.0795767"><ele>3.0</ele><time>2026-05-01T13:05:19.1Z</time></trkpt><trkpt lat="45.4472267" lon="12.079965"><ele>3.0</ele><time>2026-05-01T13:05:20.1Z</time></trkpt><trkpt lat="45.4473" lon="12.0803583"><ele>3.0</ele><time>2026-05-01T13:05:21.1Z</time></trkpt><trkpt lat="45.4473767" lon="12.08076"><ele>3.5</ele><time>2026-05-01T13:05:22.099Z</time></trkpt><trkpt lat="45.447455" lon="12.081165"><ele>4.0</ele><time>2026-05-01T13:05:23.099Z</time></trkpt><trkpt lat="45.4475367" lon="12.0815733"><ele>3.0</ele><time>2026-05-01T13:05:24.1Z</time></trkpt><trkpt lat="45.4476133" lon="12.08199"><ele>2.0</ele><time>2026-05-01T13:05:25.099Z</time></trkpt><trkpt lat="45.4476967" lon="12.08241"><ele>2.0</ele><time>2026-05-01T13:05:26.1Z</time></trkpt><trkpt lat="45.44786" lon="12.0832517"><ele>2.0</ele><time>2026-05-01T13:05:28.099Z</time></trkpt><trkpt lat="45.447945" lon="12.083675"><ele>2.0</ele><time>2026-05-01T13:05:29.099Z</time></trkpt><trkpt lat="45.448025" lon="12.0841"><ele>3.5</ele><time>2026-05-01T13:05:30.099Z</time></trkpt><trkpt lat="45.4481117" lon="12.0845267"><ele>5.0</ele><time>2026-05-01T13:05:31.1Z</time></trkpt><trkpt lat="45.4482067" lon="12.084955"><ele>5.0</ele><time>2026-05-01T13:05:32.099Z</time></trkpt><trkpt lat="45.4483167" lon="12.0853917"><ele>5.0</ele><time>2026-05-01T13:05:33.1Z</time></trkpt><trkpt lat="45.448425" lon="12.0858083"><ele>4.5</ele><time>2026-05-01T13:05:34.099Z</time></trkpt><trkpt lat="45.4485417" lon="12.08623"><ele>4.0</ele><time>2026-05-01T13:05:35.099Z</time></trkpt><trkpt lat="45.44866" lon="12.0866567"><ele>3.5</ele><time>2026-05-01T13:05:36.1Z</time></trkpt><trkpt lat="45.4487817" lon="12.0870933"><ele>3.0</ele><time>2026-05-01T13:05:37.099Z</time></trkpt><trkpt lat="45.4489883" lon="12.0879817"><ele>3.0</ele><time>2026-05-01T13:05:39.1Z</time></trkpt><trkpt lat="45.4490917" lon="12.0884233"><ele>3.0</ele><time>2026-05-01T13:05:40.099Z</time></trkpt><trkpt lat="45.4491917" lon="12.0888667"><ele>3.5</ele><time>2026-05-01T13:05:41.099Z</time></trkpt><trkpt lat="45.4492867" lon="12.0893183"><ele>4.0</ele><time>2026-05-01T13:05:42.099Z</time></trkpt><trkpt lat="45.449375" lon="12.0897733"><ele>4.5</ele><time>2026-05-01T13:05:43.1Z</time></trkpt><trkpt lat="45.4494633" lon="12.0902233"><ele>5.0</ele><time>2026-05-01T13:05:44.1Z</time></trkpt><trkpt lat="45.4495533" lon="12.0906767"><ele>3.0</ele><time>2026-05-01T13:05:45.099Z</time></trkpt><trkpt lat="45.449645" lon="12.0911317"><ele>1.0</ele><time>2026-05-01T13:05:46.099Z</time></trkpt><trkpt lat="45.449735" lon="12.09158"><ele>0.0</ele><time>2026-05-01T13:05:47.1Z</time></trkpt><trkpt lat="45.44983" lon="12.0920283"><ele>-1.0</ele><time>2026-05-01T13:05:48.1Z</time></trkpt><trkpt lat="45.4499217" lon="12.0924833"><ele>-1.0</ele><time>2026-05-01T13:05:49.099Z</time></trkpt><trkpt lat="45.4500133" lon="12.092935"><ele>-1.0</ele><time>2026-05-01T13:05:50.1Z</time></trkpt><trkpt lat="45.4501083" lon="12.09339"><ele>0.5</ele><time>2026-05-01T13:05:51.1Z</time></trkpt><trkpt lat="45.4502" lon="12.0938583"><ele>2.0</ele><time>2026-05-01T13:05:52.1Z</time></trkpt><trkpt lat="45.450295" lon="12.0943283"><ele>2.0</ele><time>2026-05-01T13:05:53.1Z</time></trkpt><trkpt lat="45.4503883" lon="12.0947967"><ele>2.0</ele><time>2026-05-01T13:05:54.099Z</time></trkpt><trkpt lat="45.45048" lon="12.0952717"><ele>1.5</ele><time>2026-05-01T13:05:55.1Z</time></trkpt><trkpt lat="45.4505867" lon="12.09575"><ele>1.0</ele><time>2026-05-01T13:05:56.1Z</time></trkpt><trkpt lat="45.4506867" lon="12.096215"><ele>1.0</ele><time>2026-05-01T13:05:57.099Z</time></trkpt><trkpt lat="45.45078" lon="12.0966867"><ele>1.0</ele><time>2026-05-01T13:05:58.1Z</time></trkpt><trkpt lat="45.4508667" lon="12.0971467"><ele>2.0</ele><time>2026-05-01T13:05:59.1Z</time></trkpt><trkpt lat="45.4510283" lon="12.0980333"><ele>2.5</ele><time>2026-05-01T13:06:01.099Z</time></trkpt><trkpt lat="45.45112" lon="12.0984683"><ele>3.0</ele><time>2026-05-01T13:06:02.098Z</time></trkpt><trkpt lat="45.4512133" lon="12.0989033"><ele>2.0</ele><time>2026-05-01T13:06:03.098Z</time></trkpt><trkpt lat="45.4513117" lon="12.0993433"><ele>1.0</ele><time>2026-05-01T13:06:04.099Z</time></trkpt><trkpt lat="45.451495" lon="12.1002233"><ele>1.0</ele><time>2026-05-01T13:06:06.099Z</time></trkpt><trkpt lat="45.4515917" lon="12.10068"><ele>1.0</ele><time>2026-05-01T13:06:07.099Z</time></trkpt><trkpt lat="45.451685" lon="12.1011183"><ele>1.0</ele><time>2026-05-01T13:06:08.099Z</time></trkpt><trkpt lat="45.45177" lon="12.101545"><ele>1.0</ele><time>2026-05-01T13:06:09.098Z</time></trkpt><trkpt lat="45.4518517" lon="12.1019567"><ele>1.0</ele><time>2026-05-01T13:06:10.098Z</time></trkpt><trkpt lat="45.4519333" lon="12.1023617"><ele>1.0</ele><time>2026-05-01T13:06:11.098Z</time></trkpt><trkpt lat="45.452015" lon="12.1027767"><ele>1.0</ele><time>2026-05-01T13:06:12.099Z</time></trkpt><trkpt lat="45.4521" lon="12.1031967"><ele>1.0</ele><time>2026-05-01T13:06:13.099Z</time></trkpt><trkpt lat="45.452185" lon="12.1036167"><ele>1.0</ele><time>2026-05-01T13:06:14.098Z</time></trkpt><trkpt lat="45.4522683" lon="12.1040317"><ele>1.0</ele><time>2026-05-01T13:06:15.099Z</time></trkpt><trkpt lat="45.4523567" lon="12.1044567"><ele>0.5</ele><time>2026-05-01T13:06:16.098Z</time></trkpt><trkpt lat="45.4524467" lon="12.1048817"><ele>0.0</ele><time>2026-05-01T13:06:17.098Z</time></trkpt><trkpt lat="45.452535" lon="12.1053117"><ele>0.5</ele><time>2026-05-01T13:06:18.098Z</time></trkpt><trkpt lat="45.4526233" lon="12.1057433"><ele>1.0</ele><time>2026-05-01T13:06:19.098Z</time></trkpt><trkpt lat="45.4527117" lon="12.1061817"><ele>0.0</ele><time>2026-05-01T13:06:20.099Z</time></trkpt><trkpt lat="45.452805" lon="12.1066133"><ele>-1.0</ele><time>2026-05-01T13:06:21.099Z</time></trkpt><trkpt lat="45.45289" lon="12.1070467"><ele>0.0</ele><time>2026-05-01T13:06:22.098Z</time></trkpt><trkpt lat="45.45298" lon="12.1074767"><ele>1.0</ele><time>2026-05-01T13:06:23.099Z</time></trkpt><trkpt lat="45.453065" lon="12.107905"><ele>1.0</ele><time>2026-05-01T13:06:24.098Z</time></trkpt><trkpt lat="45.4531567" lon="12.108345"><ele>1.0</ele><time>2026-05-01T13:06:25.099Z</time></trkpt><trkpt lat="45.45324" lon="12.1087717"><ele>0.5</ele><time>2026-05-01T13:06:26.098Z</time></trkpt><trkpt lat="45.4533217" lon="12.109195"><ele>0.0</ele><time>2026-05-01T13:06:27.099Z</time></trkpt><trkpt lat="45.4534033" lon="12.1096117"><ele>0.0</ele><time>2026-05-01T13:06:28.098Z</time></trkpt><trkpt lat="45.4534817" lon="12.1100333"><ele>0.0</ele><time>2026-05-01T13:06:29.098Z</time></trkpt><trkpt lat="45.45356" lon="12.1104483"><ele>1.0</ele><time>2026-05-01T13:06:30.098Z</time></trkpt><trkpt lat="45.4536383" lon="12.11084"><ele>2.0</ele><time>2026-05-01T13:06:31.098Z</time></trkpt><trkpt lat="45.45371" lon="12.1112317"><ele>1.5</ele><time>2026-05-01T13:06:32.099Z</time></trkpt><trkpt lat="45.4537867" lon="12.1116183"><ele>1.0</ele><time>2026-05-01T13:06:33.098Z</time></trkpt><trkpt lat="45.45386" lon="12.1119867"><ele>1.0</ele><time>2026-05-01T13:06:34.098Z</time></trkpt><trkpt lat="45.4539283" lon="12.1123383"><ele>1.0</ele><time>2026-05-01T13:06:35.099Z</time></trkpt><trkpt lat="45.4539933" lon="12.1126717"><ele>0.5</ele><time>2026-05-01T13:06:36.099Z</time></trkpt><trkpt lat="45.4540567" lon="12.1129917"><ele>0.0</ele><time>2026-05-01T13:06:37.099Z</time></trkpt><trkpt lat="45.454115" lon="12.1133033"><ele>-0.3333333333333333</ele><time>2026-05-01T13:06:38.099Z</time></trkpt><trkpt lat="45.4541733" lon="12.11359"><ele>-0.6666666666666666</ele><time>2026-05-01T13:06:39.098Z</time></trkpt><trkpt lat="45.4542233" lon="12.113875"><ele>-1.0</ele><time>2026-05-01T13:06:40.099Z</time></trkpt><trkpt lat="45.4542617" lon="12.1141383"><ele>-1.0</ele><time>2026-05-01T13:06:41.099Z</time></trkpt><trkpt lat="45.454285" lon="12.1143783"><ele>-1.0</ele><time>2026-05-01T13:06:42.098Z</time></trkpt><trkpt lat="45.4542767" lon="12.1145883"><ele>-1.0</ele><time>2026-05-01T13:06:43.098Z</time></trkpt><trkpt lat="45.45423" lon="12.1147783"><ele>-1.25</ele><time>2026-05-01T13:06:44.099Z</time></trkpt><trkpt lat="45.454155" lon="12.1149433"><ele>-1.5</ele><time>2026-05-01T13:06:45.099Z</time></trkpt><trkpt lat="45.454065" lon="12.115065"><ele>-1.75</ele><time>2026-05-01T13:06:46.099Z</time></trkpt><trkpt lat="45.4539467" lon="12.1151533"><ele>-2.0</ele><time>2026-05-01T13:06:47.099Z</time></trkpt><trkpt lat="45.453815" lon="12.1152083"><ele>-2.0</ele><time>2026-05-01T13:06:48.099Z</time></trkpt><trkpt lat="45.453685" lon="12.115225"><ele>-2.0</ele><time>2026-05-01T13:06:49.099Z</time></trkpt><trkpt lat="45.45355" lon="12.115195"><ele>-2.0</ele><time>2026-05-01T13:06:50.099Z</time></trkpt><trkpt lat="45.4534283" lon="12.11512"><ele>-2.0</ele><time>2026-05-01T13:06:51.098Z</time></trkpt><trkpt lat="45.4533217" lon="12.115015"><ele>-2.0</ele><time>2026-05-01T13:06:52.098Z</time></trkpt><trkpt lat="45.4532383" lon="12.1148583"><ele>-2.0</ele><time>2026-05-01T13:06:53.099Z</time></trkpt><trkpt lat="45.4531867" lon="12.114675"><ele>-2.0</ele><time>2026-05-01T13:06:54.098Z</time></trkpt><trkpt lat="45.4531683" lon="12.1144733"><ele>-2.0</ele><time>2026-05-01T13:06:55.099Z</time></trkpt><trkpt lat="45.4531917" lon="12.1142667"><ele>-2.0</ele><time>2026-05-01T13:06:56.099Z</time></trkpt><trkpt lat="45.4532483" lon="12.1140683"><ele>-2.0</ele><time>2026-05-01T13:06:57.098Z</time></trkpt><trkpt lat="45.45333" lon="12.1138817"><ele>-2.0</ele><time>2026-05-01T13:06:58.098Z</time></trkpt><trkpt lat="45.4534633" lon="12.113735"><ele>-2.0</ele><time>2026-05-01T13:06:59.098Z</time></trkpt><trkpt lat="45.4536233" lon="12.1136267"><ele>-2.0</ele><time>2026-05-01T13:07:00.098Z</time></trkpt><trkpt lat="45.4538067" lon="12.113535"><ele>-2.0</ele><time>2026-05-01T13:07:01.099Z</time></trkpt><trkpt lat="45.4540083" lon="12.1134583"><ele>-1.6666666666666665</ele><time>2026-05-01T13:07:02.098Z</time></trkpt><trkpt lat="45.4542133" lon="12.1133717"><ele>-1.3333333333333333</ele><time>2026-05-01T13:07:03.098Z</time></trkpt><trkpt lat="45.45442" lon="12.1132883"><ele>-1.0</ele><time>2026-05-01T13:07:04.098Z</time></trkpt><trkpt lat="45.454615" lon="12.113205"><ele>-1.3333333333333333</ele><time>2026-05-01T13:07:05.098Z</time></trkpt><trkpt lat="45.4548" lon="12.113125"><ele>-1.6666666666666665</ele><time>2026-05-01T13:07:06.099Z</time></trkpt><trkpt lat="45.4549817" lon="12.1130483"><ele>-2.0</ele><time>2026-05-01T13:07:07.098Z</time></trkpt><trkpt lat="45.4551633" lon="12.11298"><ele>-2.0</ele><time>2026-05-01T13:07:08.099Z</time></trkpt><trkpt lat="45.455335" lon="12.112915"><ele>-2.0</ele><time>2026-05-01T13:07:09.099Z</time></trkpt><trkpt lat="45.4554983" lon="12.112845"><ele>-2.0</ele><time>2026-05-01T13:07:10.098Z</time></trkpt><trkpt lat="45.4556583" lon="12.1127767"><ele>-1.6666666666666665</ele><time>2026-05-01T13:07:11.098Z</time></trkpt><trkpt lat="45.455815" lon="12.1127117"><ele>-1.3333333333333333</ele><time>2026-05-01T13:07:12.098Z</time></trkpt><trkpt lat="45.4559667" lon="12.1126483"><ele>-1.0</ele><time>2026-05-01T13:07:13.099Z</time></trkpt><trkpt lat="45.4561183" lon="12.11258"><ele>-1.0</ele><time>2026-05-01T13:07:14.099Z</time></trkpt><trkpt lat="45.4562617" lon="12.1125133"><ele>-1.0</ele><time>2026-05-01T13:07:15.098Z</time></trkpt><trkpt lat="45.4564017" lon="12.11244"><ele>-1.0</ele><time>2026-05-01T13:07:16.099Z</time></trkpt><trkpt lat="45.4565333" lon="12.112355"><ele>-1.0</ele><time>2026-05-01T13:07:17.099Z</time></trkpt><trkpt lat="45.4566567" lon="12.112265"><ele>-0.75</ele><time>2026-05-01T13:07:18.099Z</time></trkpt><trkpt lat="45.4567683" lon="12.1121717"><ele>-0.5</ele><time>2026-05-01T13:07:19.098Z</time></trkpt><trkpt lat="45.45687" lon="12.1120817"><ele>-0.25</ele><time>2026-05-01T13:07:20.098Z</time></trkpt><trkpt lat="45.4569683" lon="12.1120033"><ele>0.0</ele><time>2026-05-01T13:07:21.099Z</time></trkpt><trkpt lat="45.45706" lon="12.1119267"><ele>0.0</ele><time>2026-05-01T13:07:22.099Z</time></trkpt><trkpt lat="45.4571483" lon="12.1118617"><ele>0.0</ele><time>2026-05-01T13:07:23.098Z</time></trkpt><trkpt lat="45.457225" lon="12.111805"><ele>0.0</ele><time>2026-05-01T13:07:24.098Z</time></trkpt><trkpt lat="45.45729" lon="12.11176"><ele>0.0</ele><time>2026-05-01T13:07:25.098Z</time></trkpt><trkpt lat="45.4573833" lon="12.1116917"><ele>0.0</ele><time>2026-05-01T13:07:27.099Z</time></trkpt><trkpt lat="45.4574517" lon="12.111635"><ele>0.0</ele><time>2026-05-01T13:07:29.098Z</time></trkpt><trkpt lat="45.457545" lon="12.1114983"><ele>0.0</ele><time>2026-05-01T13:08:11.098Z</time></trkpt><trkpt lat="45.45764" lon="12.1114667"><ele>0.0</ele><time>2026-05-01T13:08:12.099Z</time></trkpt><trkpt lat="45.45777" lon="12.1114133"><ele>0.0</ele><time>2026-05-01T13:08:13.098Z</time></trkpt><trkpt lat="45.4579267" lon="12.1113317"><ele>0.0</ele><time>2026-05-01T13:08:14.099Z</time></trkpt><trkpt lat="45.458085" lon="12.11124"><ele>0.0</ele><time>2026-05-01T13:08:15.099Z</time></trkpt><trkpt lat="45.4582467" lon="12.1111367"><ele>0.0</ele><time>2026-05-01T13:08:16.098Z</time></trkpt><trkpt lat="45.4584067" lon="12.1110317"><ele>0.0</ele><time>2026-05-01T13:08:17.098Z</time></trkpt><trkpt lat="45.4585567" lon="12.1109283"><ele>0.0</ele><time>2026-05-01T13:08:18.098Z</time></trkpt><trkpt lat="45.45869" lon="12.1108333"><ele>0.0</ele><time>2026-05-01T13:08:19.099Z</time></trkpt><trkpt lat="45.4588" lon="12.1107483"><ele>0.0</ele><time>2026-05-01T13:08:20.098Z</time></trkpt><trkpt lat="45.4588917" lon="12.11068"><ele>0.0</ele><time>2026-05-01T13:08:21.098Z</time></trkpt><trkpt lat="45.4589533" lon="12.1106267"><ele>0.0</ele><time>2026-05-01T13:08:22.099Z</time></trkpt><trkpt lat="45.459015" lon="12.1105667"><ele>0.0</ele><time>2026-05-01T13:08:24.098Z</time></trkpt><trkpt lat="45.4590783" lon="12.1104983"><ele>0.0</ele><time>2026-05-01T13:08:54.098Z</time></trkpt><trkpt lat="45.4591583" lon="12.110425"><ele>0.0</ele><time>2026-05-01T13:08:55.098Z</time></trkpt><trkpt lat="45.459265" lon="12.11034"><ele>0.0</ele><time>2026-05-01T13:08:56.099Z</time></trkpt><trkpt lat="45.459395" lon="12.1102233"><ele>0.0</ele><time>2026-05-01T13:08:57.098Z</time></trkpt><trkpt lat="45.4595367" lon="12.110095"><ele>0.0</ele><time>2026-05-01T13:08:58.099Z</time></trkpt><trkpt lat="45.4597017" lon="12.1099583"><ele>0.0</ele><time>2026-05-01T13:08:59.098Z</time></trkpt><trkpt lat="45.4598633" lon="12.1098083"><ele>0.0</ele><time>2026-05-01T13:09:00.098Z</time></trkpt><trkpt lat="45.460025" lon="12.1096733"><ele>0.0</ele><time>2026-05-01T13:09:01.099Z</time></trkpt><trkpt lat="45.460185" lon="12.10954"><ele>0.0</ele><time>2026-05-01T13:09:02.098Z</time></trkpt><trkpt lat="45.4603283" lon="12.109405"><ele>0.0</ele><time>2026-05-01T13:09:03.099Z</time></trkpt><trkpt lat="45.46048" lon="12.1092817"><ele>0.0</ele><time>2026-05-01T13:09:04.098Z</time></trkpt><trkpt lat="45.4606317" lon="12.1091483"><ele>0.0</ele><time>2026-05-01T13:09:05.098Z</time></trkpt><trkpt lat="45.4607867" lon="12.109015"><ele>0.0</ele><time>2026-05-01T13:09:06.098Z</time></trkpt><trkpt lat="45.4609417" lon="12.1088867"><ele>0.0</ele><time>2026-05-01T13:09:07.098Z</time></trkpt><trkpt lat="45.4611" lon="12.108765"><ele>0.0</ele><time>2026-05-01T13:09:08.098Z</time></trkpt><trkpt lat="45.4612417" lon="12.1086367"><ele>0.0</ele><time>2026-05-01T13:09:09.099Z</time></trkpt><trkpt lat="45.4613867" lon="12.1085"><ele>0.0</ele><time>2026-05-01T13:09:10.098Z</time></trkpt><trkpt lat="45.461525" lon="12.1083633"><ele>0.0</ele><time>2026-05-01T13:09:11.098Z</time></trkpt><trkpt lat="45.4616567" lon="12.1082417"><ele>0.25</ele><time>2026-05-01T13:09:12.098Z</time></trkpt><trkpt lat="45.4617867" lon="12.1081233"><ele>0.5</ele><time>2026-05-01T13:09:13.099Z</time></trkpt><trkpt lat="45.4619083" lon="12.1080217"><ele>0.75</ele><time>2026-05-01T13:09:14.098Z</time></trkpt><trkpt lat="45.4620367" lon="12.1079417"><ele>1.0</ele><time>2026-05-01T13:09:15.099Z</time></trkpt><trkpt lat="45.4621567" lon="12.1078783"><ele>0.6000000000000001</ele><time>2026-05-01T13:09:16.099Z</time></trkpt><trkpt lat="45.4622717" lon="12.1078367"><ele>0.20000000000000007</ele><time>2026-05-01T13:09:17.099Z</time></trkpt><trkpt lat="45.462385" lon="12.10781"><ele>-0.20000000000000007</ele><time>2026-05-01T13:09:18.098Z</time></trkpt><trkpt lat="45.4624933" lon="12.1077917"><ele>-0.6000000000000001</ele><time>2026-05-01T13:09:19.098Z</time></trkpt><trkpt lat="45.4626" lon="12.10779"><ele>-1.0</ele><time>2026-05-01T13:09:20.099Z</time></trkpt><trkpt lat="45.4626967" lon="12.1078233"><ele>-1.0</ele><time>2026-05-01T13:09:21.098Z</time></trkpt><trkpt lat="45.4627833" lon="12.1078883"><ele>-1.0</ele><time>2026-05-01T13:09:22.098Z</time></trkpt><trkpt lat="45.4628617" lon="12.1079733"><ele>-1.0</ele><time>2026-05-01T13:09:23.099Z</time></trkpt><trkpt lat="45.462945" lon="12.108025"><ele>-1.0</ele><time>2026-05-01T13:09:24.098Z</time></trkpt><trkpt lat="45.4630267" lon="12.1080383"><ele>-1.0</ele><time>2026-05-01T13:09:25.099Z</time></trkpt><trkpt lat="45.4631083" lon="12.1080183"><ele>-0.4</ele><time>2026-05-01T13:09:26.098Z</time></trkpt><trkpt lat="45.463185" lon="12.1079583"><ele>0.19999999999999996</ele><time>2026-05-01T13:09:27.098Z</time></trkpt><trkpt lat="45.46325" lon="12.1078683"><ele>0.8000000000000002</ele><time>2026-05-01T13:09:28.098Z</time></trkpt><trkpt lat="45.4633033" lon="12.1077517"><ele>1.4000000000000001</ele><time>2026-05-01T13:09:29.098Z</time></trkpt><trkpt lat="45.463355" lon="12.1076283"><ele>2.0</ele><time>2026-05-01T13:09:30.099Z</time></trkpt><trkpt lat="45.463435" lon="12.1075233"><ele>2.0</ele><time>2026-05-01T13:09:31.099Z</time></trkpt><trkpt lat="45.463555" lon="12.1074617"><ele>2.0</ele><time>2026-05-01T13:09:32.098Z</time></trkpt><trkpt lat="45.4637" lon="12.1074283"><ele>2.0</ele><time>2026-05-01T13:09:33.099Z</time></trkpt><trkpt lat="45.4638667" lon="12.1074417"><ele>2.0</ele><time>2026-05-01T13:09:34.099Z</time></trkpt><trkpt lat="45.464045" lon="12.1074633"><ele>2.0</ele><time>2026-05-01T13:09:35.098Z</time></trkpt><trkpt lat="45.46423" lon="12.1074967"><ele>2.0</ele><time>2026-05-01T13:09:36.099Z</time></trkpt><trkpt lat="45.4644117" lon="12.1075383"><ele>2.0</ele><time>2026-05-01T13:09:37.098Z</time></trkpt><trkpt lat="45.4645817" lon="12.107575"><ele>1.0</ele><time>2026-05-01T13:09:38.098Z</time></trkpt><trkpt lat="45.4647583" lon="12.1076067"><ele>0.0</ele><time>2026-05-01T13:09:39.099Z</time></trkpt><trkpt lat="45.46493" lon="12.1076367"><ele>-1.0</ele><time>2026-05-01T13:09:40.098Z</time></trkpt><trkpt lat="45.4650983" lon="12.1076667"><ele>-1.0</ele><time>2026-05-01T13:09:41.098Z</time></trkpt><trkpt lat="45.46527" lon="12.1077033"><ele>-1.0</ele><time>2026-05-01T13:09:42.099Z</time></trkpt><trkpt lat="45.465445" lon="12.107745"><ele>-1.0</ele><time>2026-05-01T13:09:43.099Z</time></trkpt><trkpt lat="45.4656133" lon="12.1077917"><ele>-0.3333333333333333</ele><time>2026-05-01T13:09:44.099Z</time></trkpt><trkpt lat="45.4657817" lon="12.107845"><ele>0.3333333333333333</ele><time>2026-05-01T13:09:45.098Z</time></trkpt><trkpt lat="45.4659483" lon="12.107895"><ele>1.0</ele><time>2026-05-01T13:09:46.098Z</time></trkpt><trkpt lat="45.4661167" lon="12.1079467"><ele>1.0</ele><time>2026-05-01T13:09:47.098Z</time></trkpt><trkpt lat="45.4662717" lon="12.1079967"><ele>1.0</ele><time>2026-05-01T13:09:48.098Z</time></trkpt><trkpt lat="45.4664267" lon="12.1080433"><ele>1.0</ele><time>2026-05-01T13:09:49.098Z</time></trkpt><trkpt lat="45.4665783" lon="12.1080883"><ele>0.3333333333333333</ele><time>2026-05-01T13:09:50.098Z</time></trkpt><trkpt lat="45.4667267" lon="12.1081367"><ele>-0.3333333333333333</ele><time>2026-05-01T13:09:51.098Z</time></trkpt><trkpt lat="45.466875" lon="12.10818"><ele>-1.0</ele><time>2026-05-01T13:09:52.098Z</time></trkpt><trkpt lat="45.4670233" lon="12.1082267"><ele>-0.75</ele><time>2026-05-01T13:09:53.099Z</time></trkpt><trkpt lat="45.467165" lon="12.1082683"><ele>-0.5</ele><time>2026-05-01T13:09:54.099Z</time></trkpt><trkpt lat="45.467295" lon="12.1083067"><ele>-0.25</ele><time>2026-05-01T13:09:55.098Z</time></trkpt><trkpt lat="45.4674133" lon="12.1083483"><ele>0.0</ele><time>2026-05-01T13:09:56.098Z</time></trkpt><trkpt lat="45.467495" lon="12.108395"><ele>0.0</ele><time>2026-05-01T13:09:57.099Z</time></trkpt><trkpt lat="45.46756" lon="12.108465"><ele>0.0</ele><time>2026-05-01T13:09:58.099Z</time></trkpt><trkpt lat="45.467585" lon="12.1085533"><ele>0.0</ele><time>2026-05-01T13:09:59.098Z</time></trkpt><trkpt lat="45.467585" lon="12.1086517"><ele>0.0</ele><time>2026-05-01T13:10:00.098Z</time></trkpt><trkpt lat="45.4675467" lon="12.1087683"><ele>0.0</ele><time>2026-05-01T13:10:01.098Z</time></trkpt><trkpt lat="45.4674883" lon="12.1089033"><ele>0.0</ele><time>2026-05-01T13:10:02.099Z</time></trkpt><trkpt lat="45.467395" lon="12.1090683"><ele>0.0</ele><time>2026-05-01T13:10:03.099Z</time></trkpt><trkpt lat="45.46728" lon="12.1092633"><ele>0.0</ele><time>2026-05-01T13:10:04.098Z</time></trkpt><trkpt lat="45.4671617" lon="12.1094783"><ele>0.0</ele><time>2026-05-01T13:10:05.098Z</time></trkpt><trkpt lat="45.4670583" lon="12.109695"><ele>0.3333333333333333</ele><time>2026-05-01T13:10:06.098Z</time></trkpt><trkpt lat="45.46697" lon="12.1099167"><ele>0.6666666666666666</ele><time>2026-05-01T13:10:07.098Z</time></trkpt><trkpt lat="45.4668983" lon="12.11014"><ele>1.0</ele><time>2026-05-01T13:10:08.098Z</time></trkpt><trkpt lat="45.4668217" lon="12.1103583"><ele>1.0</ele><time>2026-05-01T13:10:09.098Z</time></trkpt><trkpt lat="45.4667583" lon="12.11058"><ele>1.0</ele><time>2026-05-01T13:10:10.099Z</time></trkpt><trkpt lat="45.4667033" lon="12.1107917"><ele>1.0</ele><time>2026-05-01T13:10:11.099Z</time></trkpt><trkpt lat="45.46664" lon="12.11099"><ele>1.0</ele><time>2026-05-01T13:10:12.098Z</time></trkpt><trkpt lat="45.4665833" lon="12.11119"><ele>1.0</ele><time>2026-05-01T13:10:13.099Z</time></trkpt><trkpt lat="45.4665233" lon="12.1113833"><ele>1.0</ele><time>2026-05-01T13:10:14.098Z</time></trkpt><trkpt lat="45.4664667" lon="12.1115733"><ele>1.0</ele><time>2026-05-01T13:10:15.099Z</time></trkpt><trkpt lat="45.4664083" lon="12.1117683"><ele>1.5</ele><time>2026-05-01T13:10:16.098Z</time></trkpt><trkpt lat="45.4663483" lon="12.111955"><ele>2.0</ele><time>2026-05-01T13:10:17.098Z</time></trkpt><trkpt lat="45.4662933" lon="12.11214"><ele>2.5</ele><time>2026-05-01T13:10:18.098Z</time></trkpt><trkpt lat="45.4662467" lon="12.1123183"><ele>3.0</ele><time>2026-05-01T13:10:19.098Z</time></trkpt><trkpt lat="45.4661883" lon="12.1125"><ele>3.25</ele><time>2026-05-01T13:10:20.098Z</time></trkpt><trkpt lat="45.4661267" lon="12.11268"><ele>3.5</ele><time>2026-05-01T13:10:21.099Z</time></trkpt><trkpt lat="45.4660717" lon="12.112865"><ele>3.75</ele><time>2026-05-01T13:10:22.098Z</time></trkpt><trkpt lat="45.4660083" lon="12.1130467"><ele>4.0</ele><time>2026-05-01T13:10:23.099Z</time></trkpt><trkpt lat="45.4659483" lon="12.1132283"><ele>3.75</ele><time>2026-05-01T13:10:24.099Z</time></trkpt><trkpt lat="45.4658967" lon="12.113405"><ele>3.5</ele><time>2026-05-01T13:10:25.099Z</time></trkpt><trkpt lat="45.4658367" lon="12.1135767"><ele>3.25</ele><time>2026-05-01T13:10:26.099Z</time></trkpt><trkpt lat="45.4657833" lon="12.11375"><ele>3.0</ele><time>2026-05-01T13:10:27.099Z</time></trkpt><trkpt lat="45.4657333" lon="12.11392"><ele>3.25</ele><time>2026-05-01T13:10:28.098Z</time></trkpt><trkpt lat="45.4656933" lon="12.114095"><ele>3.5</ele><time>2026-05-01T13:10:29.099Z</time></trkpt><trkpt lat="45.4656583" lon="12.1142733"><ele>3.75</ele><time>2026-05-01T13:10:30.099Z</time></trkpt><trkpt lat="45.4656217" lon="12.114445"><ele>4.0</ele><time>2026-05-01T13:10:31.098Z</time></trkpt><trkpt lat="45.465585" lon="12.1146117"><ele>4.0</ele><time>2026-05-01T13:10:32.098Z</time></trkpt><trkpt lat="45.4655517" lon="12.11478"><ele>4.0</ele><time>2026-05-01T13:10:33.099Z</time></trkpt><trkpt lat="45.4655233" lon="12.1149417"><ele>4.0</ele><time>2026-05-01T13:10:34.099Z</time></trkpt><trkpt lat="45.4654933" lon="12.1150983"><ele>4.0</ele><time>2026-05-01T13:10:35.099Z</time></trkpt><trkpt lat="45.4654633" lon="12.11526"><ele>3.5</ele><time>2026-05-01T13:10:36.098Z</time></trkpt><trkpt lat="45.4654367" lon="12.1154267"><ele>3.0</ele><time>2026-05-01T13:10:37.098Z</time></trkpt><trkpt lat="45.46541" lon="12.1155883"><ele>2.5</ele><time>2026-05-01T13:10:38.099Z</time></trkpt><trkpt lat="45.465385" lon="12.1157483"><ele>2.0</ele><time>2026-05-01T13:10:39.098Z</time></trkpt><trkpt lat="45.4653633" lon="12.11591"><ele>2.0</ele><time>2026-05-01T13:10:40.098Z</time></trkpt><trkpt lat="45.465345" lon="12.1160683"><ele>2.0</ele><time>2026-05-01T13:10:41.099Z</time></trkpt><trkpt lat="45.465325" lon="12.1162283"><ele>2.0</ele><time>2026-05-01T13:10:42.098Z</time></trkpt><trkpt lat="45.4653" lon="12.11639"><ele>2.0</ele><time>2026-05-01T13:10:43.098Z</time></trkpt><trkpt lat="45.4652767" lon="12.1165483"><ele>2.25</ele><time>2026-05-01T13:10:44.099Z</time></trkpt><trkpt lat="45.46526" lon="12.1167117"><ele>2.5</ele><time>2026-05-01T13:10:45.099Z</time></trkpt><trkpt lat="45.4652417" lon="12.11687"><ele>2.75</ele><time>2026-05-01T13:10:46.098Z</time></trkpt><trkpt lat="45.4652267" lon="12.1170267"><ele>3.0</ele><time>2026-05-01T13:10:47.098Z</time></trkpt><trkpt lat="45.46521" lon="12.1171833"><ele>3.0</ele><time>2026-05-01T13:10:48.099Z</time></trkpt><trkpt lat="45.4651883" lon="12.1173367"><ele>3.0</ele><time>2026-05-01T13:10:49.098Z</time></trkpt><trkpt lat="45.465155" lon="12.117475"><ele>3.0</ele><time>2026-05-01T13:10:50.098Z</time></trkpt><trkpt lat="45.46511" lon="12.1176183"><ele>3.0</ele><time>2026-05-01T13:10:51.099Z</time></trkpt><trkpt lat="45.4650533" lon="12.117745"><ele>3.0</ele><time>2026-05-01T13:10:52.099Z</time></trkpt><trkpt lat="45.46498" lon="12.1178667"><ele>3.2</ele><time>2026-05-01T13:10:53.098Z</time></trkpt><trkpt lat="45.4649133" lon="12.117985"><ele>3.4</ele><time>2026-05-01T13:10:54.099Z</time></trkpt><trkpt lat="45.464845" lon="12.1181"><ele>3.6000000000000005</ele><time>2026-05-01T13:10:55.098Z</time></trkpt><trkpt lat="45.4647867" lon="12.118215"><ele>3.8000000000000003</ele><time>2026-05-01T13:10:56.098Z</time></trkpt><trkpt lat="45.46472" lon="12.1183333"><ele>4.0</ele><time>2026-05-01T13:10:57.099Z</time></trkpt><trkpt lat="45.4646467" lon="12.1184533"><ele>3.75</ele><time>2026-05-01T13:10:58.099Z</time></trkpt><trkpt lat="45.4645717" lon="12.1185817"><ele>3.5</ele><time>2026-05-01T13:10:59.098Z</time></trkpt><trkpt lat="45.4644967" lon="12.118725"><ele>3.25</ele><time>2026-05-01T13:11:00.099Z</time></trkpt><trkpt lat="45.4644117" lon="12.118865"><ele>3.0</ele><time>2026-05-01T13:11:01.098Z</time></trkpt><trkpt lat="45.4643233" lon="12.1190117"><ele>3.5</ele><time>2026-05-01T13:11:02.099Z</time></trkpt><trkpt lat="45.4642467" lon="12.1191633"><ele>4.0</ele><time>2026-05-01T13:11:03.099Z</time></trkpt><trkpt lat="45.464155" lon="12.119315"><ele>4.5</ele><time>2026-05-01T13:11:04.099Z</time></trkpt><trkpt lat="45.46408" lon="12.1194683"><ele>5.0</ele><time>2026-05-01T13:11:05.098Z</time></trkpt><trkpt lat="45.4640083" lon="12.11962"><ele>5.0</ele><time>2026-05-01T13:11:06.098Z</time></trkpt><trkpt lat="45.4639483" lon="12.1197833"><ele>5.0</ele><time>2026-05-01T13:11:07.098Z</time></trkpt><trkpt lat="45.4638917" lon="12.1199483"><ele>5.0</ele><time>2026-05-01T13:11:08.099Z</time></trkpt><trkpt lat="45.4638433" lon="12.1201167"><ele>5.0</ele><time>2026-05-01T13:11:09.098Z</time></trkpt><trkpt lat="45.463795" lon="12.1202867"><ele>5.25</ele><time>2026-05-01T13:11:10.099Z</time></trkpt><trkpt lat="45.46375" lon="12.1204533"><ele>5.5</ele><time>2026-05-01T13:11:11.098Z</time></trkpt><trkpt lat="45.4637067" lon="12.1206167"><ele>5.75</ele><time>2026-05-01T13:11:12.098Z</time></trkpt><trkpt lat="45.463635" lon="12.1207683"><ele>6.0</ele><time>2026-05-01T13:11:13.098Z</time></trkpt><trkpt lat="45.463555" lon="12.1209217"><ele>6.0</ele><time>2026-05-01T13:11:14.099Z</time></trkpt><trkpt lat="45.4634717" lon="12.121075"><ele>6.0</ele><time>2026-05-01T13:11:15.098Z</time></trkpt><trkpt lat="45.4633783" lon="12.1212433"><ele>6.0</ele><time>2026-05-01T13:11:16.099Z</time></trkpt><trkpt lat="45.46322" lon="12.121435"><ele>6.0</ele><time>2026-05-01T13:11:17.099Z</time></trkpt><trkpt lat="45.4631133" lon="12.1215817"><ele>6.0</ele><time>2026-05-01T13:11:18.099Z</time></trkpt><trkpt lat="45.4630183" lon="12.1217483"><ele>6.0</ele><time>2026-05-01T13:11:19.099Z</time></trkpt><trkpt lat="45.4629317" lon="12.1219367"><ele>6.333333333333334</ele><time>2026-05-01T13:11:20.099Z</time></trkpt><trkpt lat="45.4628633" lon="12.1221483"><ele>6.666666666666667</ele><time>2026-05-01T13:11:21.098Z</time></trkpt><trkpt lat="45.4627983" lon="12.12237"><ele>7.0</ele><time>2026-05-01T13:11:22.099Z</time></trkpt><trkpt lat="45.46273" lon="12.1226033"><ele>7.0</ele><time>2026-05-01T13:11:23.099Z</time></trkpt><trkpt lat="45.4626733" lon="12.1228217"><ele>7.0</ele><time>2026-05-01T13:11:24.099Z</time></trkpt><trkpt lat="45.4626067" lon="12.1230283"><ele>7.0</ele><time>2026-05-01T13:11:25.098Z</time></trkpt><trkpt lat="45.4625317" lon="12.1232017"><ele>6.25</ele><time>2026-05-01T13:11:26.098Z</time></trkpt><trkpt lat="45.46245" lon="12.123365"><ele>5.5</ele><time>2026-05-01T13:11:27.098Z</time></trkpt><trkpt lat="45.4623717" lon="12.123525"><ele>4.75</ele><time>2026-05-01T13:11:28.098Z</time></trkpt><trkpt lat="45.4623" lon="12.1236867"><ele>4.0</ele><time>2026-05-01T13:11:29.098Z</time></trkpt><trkpt lat="45.46223" lon="12.1238283"><ele>4.0</ele><time>2026-05-01T13:11:30.098Z</time></trkpt><trkpt lat="45.4621533" lon="12.1239633"><ele>4.0</ele><time>2026-05-01T13:11:31.098Z</time></trkpt><trkpt lat="45.4620733" lon="12.1240967"><ele>4.0</ele><time>2026-05-01T13:11:32.099Z</time></trkpt><trkpt lat="45.462" lon="12.1242183"><ele>4.0</ele><time>2026-05-01T13:11:33.098Z</time></trkpt><trkpt lat="45.4619217" lon="12.1243433"><ele>3.5</ele><time>2026-05-01T13:11:34.098Z</time></trkpt><trkpt lat="45.4618417" lon="12.124485"><ele>3.0</ele><time>2026-05-01T13:11:35.098Z</time></trkpt><trkpt lat="45.4617533" lon="12.1246417"><ele>2.5</ele><time>2026-05-01T13:11:36.098Z</time></trkpt><trkpt lat="45.4616617" lon="12.124815"><ele>2.0</ele><time>2026-05-01T13:11:37.098Z</time></trkpt><trkpt lat="45.4615417" lon="12.1249967"><ele>1.3333333333333333</ele><time>2026-05-01T13:11:38.098Z</time></trkpt><trkpt lat="45.4614283" lon="12.1251867"><ele>0.6666666666666666</ele><time>2026-05-01T13:11:39.098Z</time></trkpt><trkpt lat="45.461305" lon="12.12539"><ele>0.0</ele><time>2026-05-01T13:11:40.098Z</time></trkpt><trkpt lat="45.46119" lon="12.125605"><ele>2.0</ele><time>2026-05-01T13:11:41.098Z</time></trkpt><trkpt lat="45.461075" lon="12.1258367"><ele>4.0</ele><time>2026-05-01T13:11:42.099Z</time></trkpt><trkpt lat="45.4609533" lon="12.126075"><ele>6.0</ele><time>2026-05-01T13:11:43.099Z</time></trkpt><trkpt lat="45.4608483" lon="12.1263017"><ele>6.0</ele><time>2026-05-01T13:11:44.098Z</time></trkpt><trkpt lat="45.4607467" lon="12.1265233"><ele>6.0</ele><time>2026-05-01T13:11:45.098Z</time></trkpt><trkpt lat="45.4606367" lon="12.1267383"><ele>6.0</ele><time>2026-05-01T13:11:46.099Z</time></trkpt><trkpt lat="45.4605233" lon="12.1269417"><ele>4.333333333333333</ele><time>2026-05-01T13:11:47.098Z</time></trkpt><trkpt lat="45.460405" lon="12.1271433"><ele>2.6666666666666665</ele><time>2026-05-01T13:11:48.098Z</time></trkpt><trkpt lat="45.4602917" lon="12.1273417"><ele>1.0</ele><time>2026-05-01T13:11:49.098Z</time></trkpt><trkpt lat="45.46017" lon="12.1275317"><ele>1.0</ele><time>2026-05-01T13:11:50.099Z</time></trkpt><trkpt lat="45.4600433" lon="12.127715"><ele>1.0</ele><time>2026-05-01T13:11:51.099Z</time></trkpt><trkpt lat="45.45991" lon="12.1278883"><ele>1.0</ele><time>2026-05-01T13:11:52.098Z</time></trkpt><trkpt lat="45.4597767" lon="12.1280433"><ele>1.0</ele><time>2026-05-01T13:11:53.098Z</time></trkpt><trkpt lat="45.4596367" lon="12.1281917"><ele>1.0</ele><time>2026-05-01T13:11:54.099Z</time></trkpt><trkpt lat="45.4594817" lon="12.1283233"><ele>1.0</ele><time>2026-05-01T13:11:55.099Z</time></trkpt><trkpt lat="45.4593217" lon="12.128445"><ele>1.3333333333333333</ele><time>2026-05-01T13:11:56.098Z</time></trkpt><trkpt lat="45.459165" lon="12.12855"><ele>1.6666666666666665</ele><time>2026-05-01T13:11:57.099Z</time></trkpt><trkpt lat="45.4590067" lon="12.1286567"><ele>2.0</ele><time>2026-05-01T13:11:58.098Z</time></trkpt><trkpt lat="45.4588383" lon="12.1287533"><ele>1.6666666666666665</ele><time>2026-05-01T13:11:59.099Z</time></trkpt><trkpt lat="45.45867" lon="12.1288417"><ele>1.3333333333333333</ele><time>2026-05-01T13:12:00.099Z</time></trkpt><trkpt lat="45.4585033" lon="12.128925"><ele>1.0</ele><time>2026-05-01T13:12:01.098Z</time></trkpt><trkpt lat="45.45834" lon="12.1290033"><ele>1.6666666666666665</ele><time>2026-05-01T13:12:02.098Z</time></trkpt><trkpt lat="45.4581733" lon="12.129075"><ele>2.3333333333333335</ele><time>2026-05-01T13:12:03.098Z</time></trkpt><trkpt lat="45.4580067" lon="12.129135"><ele>3.0</ele><time>2026-05-01T13:12:04.099Z</time></trkpt><trkpt lat="45.4578367" lon="12.1291983"><ele>3.333333333333333</ele><time>2026-05-01T13:12:05.099Z</time></trkpt><trkpt lat="45.45767" lon="12.1292683"><ele>3.6666666666666665</ele><time>2026-05-01T13:12:06.098Z</time></trkpt><trkpt lat="45.4575183" lon="12.129335"><ele>4.0</ele><time>2026-05-01T13:12:07.099Z</time></trkpt><trkpt lat="45.4573717" lon="12.1293967"><ele>4.0</ele><time>2026-05-01T13:12:08.099Z</time></trkpt><trkpt lat="45.4572317" lon="12.1294533"><ele>4.0</ele><time>2026-05-01T13:12:09.099Z</time></trkpt><trkpt lat="45.4570983" lon="12.1295367"><ele>4.0</ele><time>2026-05-01T13:12:10.098Z</time></trkpt><trkpt lat="45.4569817" lon="12.129655"><ele>4.0</ele><time>2026-05-01T13:12:11.098Z</time></trkpt><trkpt lat="45.4568833" lon="12.129815"><ele>3.333333333333333</ele><time>2026-05-01T13:12:12.099Z</time></trkpt><trkpt lat="45.4568083" lon="12.1300133"><ele>2.6666666666666665</ele><time>2026-05-01T13:12:13.098Z</time></trkpt><trkpt lat="45.45676" lon="12.13024"><ele>2.0</ele><time>2026-05-01T13:12:14.098Z</time></trkpt><trkpt lat="45.4567217" lon="12.13048"><ele>1.6666666666666665</ele><time>2026-05-01T13:12:15.098Z</time></trkpt><trkpt lat="45.45669" lon="12.1307267"><ele>1.3333333333333333</ele><time>2026-05-01T13:12:16.098Z</time></trkpt><trkpt lat="45.4566483" lon="12.1309667"><ele>1.0</ele><time>2026-05-01T13:12:17.099Z</time></trkpt><trkpt lat="45.4566017" lon="12.131205"><ele>1.0</ele><time>2026-05-01T13:12:18.099Z</time></trkpt><trkpt lat="45.4565483" lon="12.1314383"><ele>1.0</ele><time>2026-05-01T13:12:19.098Z</time></trkpt><trkpt lat="45.45649" lon="12.1316783"><ele>1.0</ele><time>2026-05-01T13:12:20.099Z</time></trkpt><trkpt lat="45.4564283" lon="12.1319033"><ele>1.3333333333333333</ele><time>2026-05-01T13:12:21.098Z</time></trkpt><trkpt lat="45.4563667" lon="12.132125"><ele>1.6666666666666665</ele><time>2026-05-01T13:12:22.099Z</time></trkpt><trkpt lat="45.45628" lon="12.132335"><ele>2.0</ele><time>2026-05-01T13:12:23.098Z</time></trkpt><trkpt lat="45.4561883" lon="12.132535"><ele>2.6666666666666665</ele><time>2026-05-01T13:12:24.099Z</time></trkpt><trkpt lat="45.4560933" lon="12.1327283"><ele>3.333333333333333</ele><time>2026-05-01T13:12:25.099Z</time></trkpt><trkpt lat="45.4559983" lon="12.1329233"><ele>4.0</ele><time>2026-05-01T13:12:26.099Z</time></trkpt><trkpt lat="45.4559033" lon="12.1331083"><ele>3.0</ele><time>2026-05-01T13:12:27.099Z</time></trkpt><trkpt lat="45.4558083" lon="12.1332767"><ele>2.0</ele><time>2026-05-01T13:12:28.098Z</time></trkpt><trkpt lat="45.4557133" lon="12.13345"><ele>1.0</ele><time>2026-05-01T13:12:29.098Z</time></trkpt><trkpt lat="45.45562" lon="12.133625"><ele>1.0</ele><time>2026-05-01T13:12:30.098Z</time></trkpt><trkpt lat="45.4555267" lon="12.1338117"><ele>1.0</ele><time>2026-05-01T13:12:31.099Z</time></trkpt><trkpt lat="45.455425" lon="12.1340033"><ele>1.0</ele><time>2026-05-01T13:12:32.098Z</time></trkpt><trkpt lat="45.4553267" lon="12.1342"><ele>0.6666666666666666</ele><time>2026-05-01T13:12:33.098Z</time></trkpt><trkpt lat="45.4552233" lon="12.1343967"><ele>0.3333333333333333</ele><time>2026-05-01T13:12:34.099Z</time></trkpt><trkpt lat="45.4551233" lon="12.1346033"><ele>0.0</ele><time>2026-05-01T13:12:35.098Z</time></trkpt><trkpt lat="45.455025" lon="12.1348133"><ele>0.6666666666666666</ele><time>2026-05-01T13:12:36.099Z</time></trkpt><trkpt lat="45.4549283" lon="12.13503"><ele>1.3333333333333333</ele><time>2026-05-01T13:12:37.099Z</time></trkpt><trkpt lat="45.4548367" lon="12.1352533"><ele>2.0</ele><time>2026-05-01T13:12:38.099Z</time></trkpt><trkpt lat="45.4547533" lon="12.135485"><ele>2.0</ele><time>2026-05-01T13:12:39.098Z</time></trkpt><trkpt lat="45.4546683" lon="12.1357117"><ele>2.0</ele><time>2026-05-01T13:12:40.098Z</time></trkpt><trkpt lat="45.454585" lon="12.1359367"><ele>2.0</ele><time>2026-05-01T13:12:41.099Z</time></trkpt><trkpt lat="45.4545067" lon="12.1361583"><ele>2.0</ele><time>2026-05-01T13:12:42.098Z</time></trkpt><trkpt lat="45.454435" lon="12.136385"><ele>2.0</ele><time>2026-05-01T13:12:43.098Z</time></trkpt><trkpt lat="45.4543617" lon="12.136615"><ele>2.0</ele><time>2026-05-01T13:12:44.098Z</time></trkpt><trkpt lat="45.4542917" lon="12.1368417"><ele>2.0</ele><time>2026-05-01T13:12:45.099Z</time></trkpt><trkpt lat="45.454225" lon="12.13706"><ele>2.0</ele><time>2026-05-01T13:12:46.099Z</time></trkpt><trkpt lat="45.4541683" lon="12.1372767"><ele>2.0</ele><time>2026-05-01T13:12:47.099Z</time></trkpt><trkpt lat="45.45412" lon="12.1374917"><ele>1.3333333333333333</ele><time>2026-05-01T13:12:48.099Z</time></trkpt><trkpt lat="45.454075" lon="12.137705"><ele>0.6666666666666666</ele><time>2026-05-01T13:12:49.099Z</time></trkpt><trkpt lat="45.4540417" lon="12.13792"><ele>0.0</ele><time>2026-05-01T13:12:50.099Z</time></trkpt><trkpt lat="45.4540167" lon="12.1381467"><ele>0.3333333333333333</ele><time>2026-05-01T13:12:51.098Z</time></trkpt><trkpt lat="45.45399" lon="12.13837"><ele>0.6666666666666666</ele><time>2026-05-01T13:12:52.098Z</time></trkpt><trkpt lat="45.4539683" lon="12.1385833"><ele>1.0</ele><time>2026-05-01T13:12:53.098Z</time></trkpt><trkpt lat="45.4539483" lon="12.1387933"><ele>1.0</ele><time>2026-05-01T13:12:54.098Z</time></trkpt><trkpt lat="45.4539217" lon="12.139"><ele>1.0</ele><time>2026-05-01T13:12:55.098Z</time></trkpt><trkpt lat="45.453895" lon="12.139215"><ele>1.0</ele><time>2026-05-01T13:12:56.099Z</time></trkpt><trkpt lat="45.453865" lon="12.1394333"><ele>0.6666666666666666</ele><time>2026-05-01T13:12:57.099Z</time></trkpt><trkpt lat="45.4538283" lon="12.139655"><ele>0.3333333333333333</ele><time>2026-05-01T13:12:58.099Z</time></trkpt><trkpt lat="45.4537933" lon="12.1398783"><ele>0.0</ele><time>2026-05-01T13:12:59.098Z</time></trkpt><trkpt lat="45.45375" lon="12.1401033"><ele>1.3333333333333333</ele><time>2026-05-01T13:13:00.099Z</time></trkpt><trkpt lat="45.4537033" lon="12.1403333"><ele>2.6666666666666665</ele><time>2026-05-01T13:13:01.099Z</time></trkpt><trkpt lat="45.453655" lon="12.1405617"><ele>4.0</ele><time>2026-05-01T13:13:02.099Z</time></trkpt><trkpt lat="45.453615" lon="12.1407983"><ele>4.0</ele><time>2026-05-01T13:13:03.098Z</time></trkpt><trkpt lat="45.4535717" lon="12.1410383"><ele>4.0</ele><time>2026-05-01T13:13:04.099Z</time></trkpt><trkpt lat="45.453525" lon="12.1412833"><ele>4.0</ele><time>2026-05-01T13:13:05.098Z</time></trkpt><trkpt lat="45.4534767" lon="12.1415283"><ele>3.333333333333333</ele><time>2026-05-01T13:13:06.099Z</time></trkpt><trkpt lat="45.4534317" lon="12.1417733"><ele>2.6666666666666665</ele><time>2026-05-01T13:13:07.098Z</time></trkpt><trkpt lat="45.4533933" lon="12.1420167"><ele>2.0</ele><time>2026-05-01T13:13:08.098Z</time></trkpt><trkpt lat="45.453365" lon="12.14225"><ele>2.333333333333333</ele><time>2026-05-01T13:13:09.099Z</time></trkpt><trkpt lat="45.4533367" lon="12.1424733"><ele>2.6666666666666665</ele><time>2026-05-01T13:13:10.098Z</time></trkpt><trkpt lat="45.453315" lon="12.1426917"><ele>3.0</ele><time>2026-05-01T13:13:11.097Z</time></trkpt><trkpt lat="45.4532983" lon="12.142905"><ele>3.0</ele><time>2026-05-01T13:13:12.097Z</time></trkpt><trkpt lat="45.45329" lon="12.1431167"><ele>3.0</ele><time>2026-05-01T13:13:13.097Z</time></trkpt><trkpt lat="45.453275" lon="12.1433317"><ele>3.0</ele><time>2026-05-01T13:13:14.097Z</time></trkpt><trkpt lat="45.453265" lon="12.1435267"><ele>3.0</ele><time>2026-05-01T13:13:15.097Z</time></trkpt><trkpt lat="45.4532583" lon="12.1437183"><ele>2.6</ele><time>2026-05-01T13:13:16.097Z</time></trkpt><trkpt lat="45.4532467" lon="12.1438983"><ele>2.1999999999999997</ele><time>2026-05-01T13:13:17.097Z</time></trkpt><trkpt lat="45.4532467" lon="12.1440383"><ele>1.8</ele><time>2026-05-01T13:13:18.097Z</time></trkpt><trkpt lat="45.4532367" lon="12.1441433"><ele>1.4</ele><time>2026-05-01T13:13:19.098Z</time></trkpt><trkpt lat="45.453185" lon="12.14427"><ele>1.0</ele><time>2026-05-01T13:13:21.098Z</time></trkpt><trkpt lat="45.453045" lon="12.1442767"><ele>0.75</ele><time>2026-05-01T13:13:23.098Z</time></trkpt><trkpt lat="45.4529367" lon="12.144245"><ele>0.5</ele><time>2026-05-01T13:13:24.097Z</time></trkpt><trkpt lat="45.45281" lon="12.1442217"><ele>0.25</ele><time>2026-05-01T13:13:25.097Z</time></trkpt><trkpt lat="45.4526783" lon="12.14421"><ele>0.0</ele><time>2026-05-01T13:13:26.098Z</time></trkpt><trkpt lat="45.4525333" lon="12.144195"><ele>0.0</ele><time>2026-05-01T13:13:27.098Z</time></trkpt><trkpt lat="45.4523867" lon="12.14417"><ele>0.0</ele><time>2026-05-01T13:13:28.098Z</time></trkpt><trkpt lat="45.4522283" lon="12.144145"><ele>0.0</ele><time>2026-05-01T13:13:29.097Z</time></trkpt><trkpt lat="45.45206" lon="12.144115"><ele>0.3333333333333333</ele><time>2026-05-01T13:13:30.098Z</time></trkpt><trkpt lat="45.4518967" lon="12.1440833"><ele>0.6666666666666666</ele><time>2026-05-01T13:13:31.098Z</time></trkpt><trkpt lat="45.4517367" lon="12.14405"><ele>1.0</ele><time>2026-05-01T13:13:32.097Z</time></trkpt><trkpt lat="45.4515633" lon="12.1439867"><ele>1.3333333333333333</ele><time>2026-05-01T13:13:33.098Z</time></trkpt><trkpt lat="45.451385" lon="12.1439083"><ele>1.6666666666666665</ele><time>2026-05-01T13:13:34.098Z</time></trkpt><trkpt lat="45.4512017" lon="12.14382"><ele>2.0</ele><time>2026-05-01T13:13:35.098Z</time></trkpt><trkpt lat="45.451015" lon="12.1437233"><ele>1.3333333333333333</ele><time>2026-05-01T13:13:36.097Z</time></trkpt><trkpt lat="45.450825" lon="12.1436317"><ele>0.6666666666666666</ele><time>2026-05-01T13:13:37.097Z</time></trkpt><trkpt lat="45.45064" lon="12.1435433"><ele>0.0</ele><time>2026-05-01T13:13:38.097Z</time></trkpt><trkpt lat="45.4504617" lon="12.143455"><ele>0.0</ele><time>2026-05-01T13:13:39.098Z</time></trkpt><trkpt lat="45.4502783" lon="12.1433617"><ele>0.0</ele><time>2026-05-01T13:13:40.098Z</time></trkpt><trkpt lat="45.4500967" lon="12.14327"><ele>0.0</ele><time>2026-05-01T13:13:41.098Z</time></trkpt><trkpt lat="45.449915" lon="12.1431717"><ele>-0.3333333333333333</ele><time>2026-05-01T13:13:42.097Z</time></trkpt><trkpt lat="45.4497383" lon="12.1430733"><ele>-0.6666666666666666</ele><time>2026-05-01T13:13:43.097Z</time></trkpt><trkpt lat="45.4495633" lon="12.1429783"><ele>-1.0</ele><time>2026-05-01T13:13:44.098Z</time></trkpt><trkpt lat="45.4493833" lon="12.142885"><ele>-1.0</ele><time>2026-05-01T13:13:45.097Z</time></trkpt><trkpt lat="45.4492033" lon="12.1427867"><ele>-1.0</ele><time>2026-05-01T13:13:46.098Z</time></trkpt><trkpt lat="45.4490267" lon="12.1426917"><ele>-1.0</ele><time>2026-05-01T13:13:47.098Z</time></trkpt><trkpt lat="45.448845" lon="12.1426017"><ele>-0.6666666666666666</ele><time>2026-05-01T13:13:48.098Z</time></trkpt><trkpt lat="45.4486667" lon="12.1425033"><ele>-0.3333333333333333</ele><time>2026-05-01T13:13:49.098Z</time></trkpt><trkpt lat="45.4484867" lon="12.1424067"><ele>0.0</ele><time>2026-05-01T13:13:50.097Z</time></trkpt><trkpt lat="45.4483083" lon="12.1423133"><ele>0.0</ele><time>2026-05-01T13:13:51.098Z</time></trkpt><trkpt lat="45.4481333" lon="12.1422167"><ele>0.0</ele><time>2026-05-01T13:13:52.098Z</time></trkpt><trkpt lat="45.4479617" lon="12.14213"><ele>0.0</ele><time>2026-05-01T13:13:53.098Z</time></trkpt><trkpt lat="45.447795" lon="12.142045"><ele>0.3333333333333333</ele><time>2026-05-01T13:13:54.097Z</time></trkpt><trkpt lat="45.4476433" lon="12.1419617"><ele>0.6666666666666666</ele><time>2026-05-01T13:13:55.097Z</time></trkpt><trkpt lat="45.447495" lon="12.1418783"><ele>1.0</ele><time>2026-05-01T13:13:56.097Z</time></trkpt><trkpt lat="45.4473567" lon="12.14181"><ele>1.0</ele><time>2026-05-01T13:13:57.097Z</time></trkpt><trkpt lat="45.4472367" lon="12.14176"><ele>1.0</ele><time>2026-05-01T13:13:58.098Z</time></trkpt><trkpt lat="45.4471067" lon="12.1417267"><ele>1.0</ele><time>2026-05-01T13:13:59.098Z</time></trkpt><trkpt lat="45.446975" lon="12.1417067"><ele>1.0</ele><time>2026-05-01T13:14:00.098Z</time></trkpt><trkpt lat="45.44684" lon="12.1417017"><ele>0.75</ele><time>2026-05-01T13:14:01.097Z</time></trkpt><trkpt lat="45.4466983" lon="12.1417083"><ele>0.5</ele><time>2026-05-01T13:14:02.098Z</time></trkpt><trkpt lat="45.4465517" lon="12.1417133"><ele>0.25</ele><time>2026-05-01T13:14:03.098Z</time></trkpt><trkpt lat="45.4464017" lon="12.141715"><ele>0.0</ele><time>2026-05-01T13:14:04.097Z</time></trkpt><trkpt lat="45.44625" lon="12.141715"><ele>0.0</ele><time>2026-05-01T13:14:05.098Z</time></trkpt><trkpt lat="45.4460967" lon="12.1417167"><ele>0.0</ele><time>2026-05-01T13:14:06.098Z</time></trkpt><trkpt lat="45.4459467" lon="12.1417267"><ele>0.0</ele><time>2026-05-01T13:14:07.098Z</time></trkpt><trkpt lat="45.4458" lon="12.1417333"><ele>0.0</ele><time>2026-05-01T13:14:08.098Z</time></trkpt><trkpt lat="45.445655" lon="12.1417433"><ele>0.0</ele><time>2026-05-01T13:14:09.097Z</time></trkpt><trkpt lat="45.4455183" lon="12.1417467"><ele>0.0</ele><time>2026-05-01T13:14:10.097Z</time></trkpt><trkpt lat="45.445395" lon="12.1417533"><ele>0.0</ele><time>2026-05-01T13:14:11.097Z</time></trkpt><trkpt lat="45.4452717" lon="12.141755"><ele>0.0</ele><time>2026-05-01T13:14:12.098Z</time></trkpt><trkpt lat="45.445155" lon="12.1417533"><ele>0.0</ele><time>2026-05-01T13:14:13.097Z</time></trkpt><trkpt lat="45.445045" lon="12.141755"><ele>0.0</ele><time>2026-05-01T13:14:14.097Z</time></trkpt><trkpt lat="45.4449383" lon="12.1417633"><ele>0.0</ele><time>2026-05-01T13:14:15.097Z</time></trkpt><trkpt lat="45.4448433" lon="12.141785"><ele>0.0</ele><time>2026-05-01T13:14:16.097Z</time></trkpt><trkpt lat="45.4447567" lon="12.14183"><ele>0.0</ele><time>2026-05-01T13:14:17.098Z</time></trkpt><trkpt lat="45.4446983" lon="12.1419133"><ele>0.0</ele><time>2026-05-01T13:14:18.098Z</time></trkpt><trkpt lat="45.444665" lon="12.142025"><ele>0.0</ele><time>2026-05-01T13:14:19.098Z</time></trkpt><trkpt lat="45.4446633" lon="12.1421433"><ele>0.0</ele><time>2026-05-01T13:14:20.098Z</time></trkpt><trkpt lat="45.44469" lon="12.1422517"><ele>0.0</ele><time>2026-05-01T13:14:21.097Z</time></trkpt><trkpt lat="45.4446983" lon="12.1423567"><ele>0.0</ele><time>2026-05-01T13:14:22.097Z</time></trkpt><trkpt lat="45.4446717" lon="12.1424967"><ele>0.2</ele><time>2026-05-01T13:14:24.098Z</time></trkpt><trkpt lat="45.4445617" lon="12.142535"><ele>0.4</ele><time>2026-05-01T13:14:26.098Z</time></trkpt><trkpt lat="45.4444683" lon="12.142535"><ele>0.6000000000000001</ele><time>2026-05-01T13:14:27.097Z</time></trkpt><trkpt lat="45.4443633" lon="12.1425233"><ele>0.8</ele><time>2026-05-01T13:14:28.097Z</time></trkpt><trkpt lat="45.4442283" lon="12.1425067"><ele>1.0</ele><time>2026-05-01T13:14:29.097Z</time></trkpt><trkpt lat="45.4440883" lon="12.1424633"><ele>1.0</ele><time>2026-05-01T13:14:30.097Z</time></trkpt><trkpt lat="45.443945" lon="12.142405"><ele>1.0</ele><time>2026-05-01T13:14:31.098Z</time></trkpt><trkpt lat="45.4437983" lon="12.142325"><ele>1.0</ele><time>2026-05-01T13:14:32.097Z</time></trkpt><trkpt lat="45.4436467" lon="12.14224"><ele>1.3333333333333333</ele><time>2026-05-01T13:14:33.097Z</time></trkpt><trkpt lat="45.4434883" lon="12.1421517"><ele>1.6666666666666665</ele><time>2026-05-01T13:14:34.098Z</time></trkpt><trkpt lat="45.4433367" lon="12.1420483"><ele>2.0</ele><time>2026-05-01T13:14:35.097Z</time></trkpt><trkpt lat="45.4431917" lon="12.1419617"><ele>2.0</ele><time>2026-05-01T13:14:36.098Z</time></trkpt><trkpt lat="45.4430517" lon="12.1418533"><ele>2.0</ele><time>2026-05-01T13:14:37.097Z</time></trkpt><trkpt lat="45.4429167" lon="12.1417283"><ele>2.0</ele><time>2026-05-01T13:14:38.097Z</time></trkpt><trkpt lat="45.4427783" lon="12.14161"><ele>2.0</ele><time>2026-05-01T13:14:39.098Z</time></trkpt><trkpt lat="45.4426383" lon="12.141495"><ele>2.0</ele><time>2026-05-01T13:14:40.098Z</time></trkpt><trkpt lat="45.44249" lon="12.1413933"><ele>2.0</ele><time>2026-05-01T13:14:41.097Z</time></trkpt><trkpt lat="45.4423367" lon="12.1413133"><ele>2.0</ele><time>2026-05-01T13:14:42.097Z</time></trkpt><trkpt lat="45.4421867" lon="12.1412317"><ele>2.0</ele><time>2026-05-01T13:14:43.097Z</time></trkpt><trkpt lat="45.4420383" lon="12.1411567"><ele>2.0</ele><time>2026-05-01T13:14:44.098Z</time></trkpt><trkpt lat="45.441885" lon="12.141085"><ele>2.25</ele><time>2026-05-01T13:14:45.098Z</time></trkpt><trkpt lat="45.4417467" lon="12.1410133"><ele>2.5</ele><time>2026-05-01T13:14:46.097Z</time></trkpt><trkpt lat="45.4416117" lon="12.1409417"><ele>2.75</ele><time>2026-05-01T13:14:47.098Z</time></trkpt><trkpt lat="45.4414817" lon="12.140865"><ele>3.0</ele><time>2026-05-01T13:14:48.098Z</time></trkpt><trkpt lat="45.4413567" lon="12.1407767"><ele>2.75</ele><time>2026-05-01T13:14:49.097Z</time></trkpt><trkpt lat="45.4412367" lon="12.140665"><ele>2.5</ele><time>2026-05-01T13:14:50.098Z</time></trkpt><trkpt lat="45.4411067" lon="12.14056"><ele>2.25</ele><time>2026-05-01T13:14:51.098Z</time></trkpt><trkpt lat="45.4409833" lon="12.14045"><ele>2.0</ele><time>2026-05-01T13:14:52.097Z</time></trkpt><trkpt lat="45.44087" lon="12.1403433"><ele>2.0</ele><time>2026-05-01T13:14:53.098Z</time></trkpt><trkpt lat="45.4407617" lon="12.1402417"><ele>2.0</ele><time>2026-05-01T13:14:54.098Z</time></trkpt><trkpt lat="45.44066" lon="12.1401383"><ele>2.0</ele><time>2026-05-01T13:14:55.097Z</time></trkpt><trkpt lat="45.44057" lon="12.1400483"><ele>2.0</ele><time>2026-05-01T13:14:56.098Z</time></trkpt><trkpt lat="45.44049" lon="12.1399667"><ele>2.2</ele><time>2026-05-01T13:14:57.097Z</time></trkpt><trkpt lat="45.4404217" lon="12.139905"><ele>2.4000000000000004</ele><time>2026-05-01T13:14:58.098Z</time></trkpt><trkpt lat="45.44032" lon="12.1398417"><ele>2.5999999999999996</ele><time>2026-05-01T13:15:00.097Z</time></trkpt><trkpt lat="45.4402417" lon="12.1397933"><ele>2.8</ele><time>2026-05-01T13:15:47.098Z</time></trkpt><trkpt lat="45.4401533" lon="12.1398267"><ele>3.0</ele><time>2026-05-01T13:15:49.098Z</time></trkpt><trkpt lat="45.4401" lon="12.1399717"><ele>3.2</ele><time>2026-05-01T13:15:51.098Z</time></trkpt><trkpt lat="45.4400983" lon="12.1400767"><ele>3.4</ele><time>2026-05-01T13:15:52.098Z</time></trkpt><trkpt lat="45.440115" lon="12.1401967"><ele>3.6000000000000005</ele><time>2026-05-01T13:15:53.098Z</time></trkpt><trkpt lat="45.4401433" lon="12.1403383"><ele>3.8000000000000003</ele><time>2026-05-01T13:15:54.098Z</time></trkpt><trkpt lat="45.44018" lon="12.1404833"><ele>4.0</ele><time>2026-05-01T13:15:55.097Z</time></trkpt><trkpt lat="45.4402117" lon="12.1406383"><ele>3.5</ele><time>2026-05-01T13:15:56.097Z</time></trkpt><trkpt lat="45.4402367" lon="12.1407967"><ele>3.0</ele><time>2026-05-01T13:15:57.097Z</time></trkpt><trkpt lat="45.4402633" lon="12.1409683"><ele>2.5</ele><time>2026-05-01T13:15:58.097Z</time></trkpt><trkpt lat="45.4402883" lon="12.141135"><ele>2.0</ele><time>2026-05-01T13:15:59.098Z</time></trkpt><trkpt lat="45.4403133" lon="12.1413083"><ele>2.0</ele><time>2026-05-01T13:16:00.097Z</time></trkpt><trkpt lat="45.4403417" lon="12.1414933"><ele>2.0</ele><time>2026-05-01T13:16:01.097Z</time></trkpt><trkpt lat="45.4403767" lon="12.1416717"><ele>2.0</ele><time>2026-05-01T13:16:02.097Z</time></trkpt><trkpt lat="45.4404083" lon="12.14185"><ele>2.0</ele><time>2026-05-01T13:16:03.097Z</time></trkpt><trkpt lat="45.44044" lon="12.142025"><ele>2.0</ele><time>2026-05-01T13:16:04.097Z</time></trkpt><trkpt lat="45.4404733" lon="12.1422067"><ele>2.0</ele><time>2026-05-01T13:16:05.097Z</time></trkpt><trkpt lat="45.44051" lon="12.14239"><ele>2.0</ele><time>2026-05-01T13:16:06.098Z</time></trkpt><trkpt lat="45.4405433" lon="12.1425817"><ele>2.0</ele><time>2026-05-01T13:16:07.098Z</time></trkpt><trkpt lat="45.4405717" lon="12.1427633"><ele>2.0</ele><time>2026-05-01T13:16:08.098Z</time></trkpt><trkpt lat="45.4406" lon="12.1429483"><ele>2.0</ele><time>2026-05-01T13:16:09.098Z</time></trkpt><trkpt lat="45.4406367" lon="12.14313"><ele>2.0</ele><time>2026-05-01T13:16:10.097Z</time></trkpt><trkpt lat="45.4406767" lon="12.1433017"><ele>2.0</ele><time>2026-05-01T13:16:11.097Z</time></trkpt><trkpt lat="45.440715" lon="12.1434683"><ele>2.2</ele><time>2026-05-01T13:16:12.098Z</time></trkpt><trkpt lat="45.4407517" lon="12.1436167"><ele>2.4000000000000004</ele><time>2026-05-01T13:16:13.098Z</time></trkpt><trkpt lat="45.4407867" lon="12.1437517"><ele>2.5999999999999996</ele><time>2026-05-01T13:16:14.098Z</time></trkpt><trkpt lat="45.4408033" lon="12.1438633"><ele>2.8</ele><time>2026-05-01T13:16:15.098Z</time></trkpt><trkpt lat="45.440775" lon="12.1439683"><ele>3.0</ele><time>2026-05-01T13:16:17.097Z</time></trkpt><trkpt lat="45.4406767" lon="12.143945"><ele>3.0</ele><time>2026-05-01T13:16:19.097Z</time></trkpt><trkpt lat="45.4406083" lon="12.143875"><ele>3.0</ele><time>2026-05-01T13:16:20.098Z</time></trkpt><trkpt lat="45.440535" lon="12.1437817"><ele>3.0</ele><time>2026-05-01T13:16:21.098Z</time></trkpt><trkpt lat="45.440435" lon="12.1436983"><ele>3.0</ele><time>2026-05-01T13:16:22.097Z</time></trkpt><trkpt lat="45.4403167" lon="12.1436467"><ele>3.0</ele><time>2026-05-01T13:16:23.098Z</time></trkpt><trkpt lat="45.4401933" lon="12.1436167"><ele>3.0</ele><time>2026-05-01T13:16:24.097Z</time></trkpt><trkpt lat="45.4400717" lon="12.143615"><ele>3.0</ele><time>2026-05-01T13:16:25.097Z</time></trkpt><trkpt lat="45.4399467" lon="12.1436417"><ele>3.0</ele><time>2026-05-01T13:16:26.097Z</time></trkpt><trkpt lat="45.4398283" lon="12.1436833"><ele>3.0</ele><time>2026-05-01T13:16:27.098Z</time></trkpt><trkpt lat="45.4397033" lon="12.1437383"><ele>3.25</ele><time>2026-05-01T13:16:28.098Z</time></trkpt><trkpt lat="45.4395767" lon="12.14381"><ele>3.5</ele><time>2026-05-01T13:16:29.097Z</time></trkpt><trkpt lat="45.4394517" lon="12.14388"><ele>3.75</ele><time>2026-05-01T13:16:30.097Z</time></trkpt><trkpt lat="45.4393283" lon="12.1439483"><ele>4.0</ele><time>2026-05-01T13:16:31.098Z</time></trkpt><trkpt lat="45.43921" lon="12.1440067"><ele>4.25</ele><time>2026-05-01T13:16:32.097Z</time></trkpt><trkpt lat="45.4390817" lon="12.1440683"><ele>4.5</ele><time>2026-05-01T13:16:33.098Z</time></trkpt><trkpt lat="45.4389467" lon="12.1440967"><ele>4.75</ele><time>2026-05-01T13:16:34.098Z</time></trkpt><trkpt lat="45.4388133" lon="12.144095"><ele>5.0</ele><time>2026-05-01T13:16:35.097Z</time></trkpt><trkpt lat="45.4386667" lon="12.1440383"><ele>5.0</ele><time>2026-05-01T13:16:36.098Z</time></trkpt><trkpt lat="45.4385233" lon="12.1439517"><ele>5.0</ele><time>2026-05-01T13:16:37.097Z</time></trkpt><trkpt lat="45.4383933" lon="12.143835"><ele>5.0</ele><time>2026-05-01T13:16:38.097Z</time></trkpt><trkpt lat="45.4382817" lon="12.143695"><ele>5.0</ele><time>2026-05-01T13:16:39.098Z</time></trkpt><trkpt lat="45.4381867" lon="12.1435333"><ele>5.0</ele><time>2026-05-01T13:16:40.097Z</time></trkpt><trkpt lat="45.4381017" lon="12.1433467"><ele>5.0</ele><time>2026-05-01T13:16:41.098Z</time></trkpt><trkpt lat="45.43803" lon="12.1431467"><ele>5.0</ele><time>2026-05-01T13:16:42.098Z</time></trkpt><trkpt lat="45.4379667" lon="12.142945"><ele>5.0</ele><time>2026-05-01T13:16:43.097Z</time></trkpt><trkpt lat="45.4379067" lon="12.1427483"><ele>5.0</ele><time>2026-05-01T13:16:44.098Z</time></trkpt><trkpt lat="45.4378533" lon="12.142555"><ele>5.0</ele><time>2026-05-01T13:16:45.098Z</time></trkpt><trkpt lat="45.4378117" lon="12.1423533"><ele>5.0</ele><time>2026-05-01T13:16:46.098Z</time></trkpt><trkpt lat="45.437775" lon="12.1421583"><ele>5.0</ele><time>2026-05-01T13:16:47.097Z</time></trkpt><trkpt lat="45.437755" lon="12.1419617"><ele>5.0</ele><time>2026-05-01T13:16:48.097Z</time></trkpt><trkpt lat="45.437755" lon="12.1417583"><ele>5.0</ele><time>2026-05-01T13:16:49.097Z</time></trkpt><trkpt lat="45.43777" lon="12.1415517"><ele>5.0</ele><time>2026-05-01T13:16:50.098Z</time></trkpt><trkpt lat="45.437795" lon="12.1413567"><ele>5.0</ele><time>2026-05-01T13:16:51.097Z</time></trkpt><trkpt lat="45.437825" lon="12.1411517"><ele>5.0</ele><time>2026-05-01T13:16:52.097Z</time></trkpt><trkpt lat="45.43787" lon="12.1409617"><ele>4.75</ele><time>2026-05-01T13:16:53.097Z</time></trkpt><trkpt lat="45.43792" lon="12.140785"><ele>4.5</ele><time>2026-05-01T13:16:54.097Z</time></trkpt><trkpt lat="45.43799" lon="12.14063"><ele>4.25</ele><time>2026-05-01T13:16:55.097Z</time></trkpt><trkpt lat="45.4380583" lon="12.1404817"><ele>4.0</ele><time>2026-05-01T13:16:56.098Z</time></trkpt><trkpt lat="45.438135" lon="12.1403483"><ele>4.0</ele><time>2026-05-01T13:16:57.097Z</time></trkpt><trkpt lat="45.438205" lon="12.1402167"><ele>4.0</ele><time>2026-05-01T13:16:58.097Z</time></trkpt><trkpt lat="45.43827" lon="12.1400917"><ele>4.0</ele><time>2026-05-01T13:16:59.097Z</time></trkpt><trkpt lat="45.4383283" lon="12.1399717"><ele>4.0</ele><time>2026-05-01T13:17:00.098Z</time></trkpt><trkpt lat="45.4383867" lon="12.1398467"><ele>4.0</ele><time>2026-05-01T13:17:01.098Z</time></trkpt><trkpt lat="45.4384317" lon="12.139715"><ele>3.9999999999999996</ele><time>2026-05-01T13:17:02.098Z</time></trkpt><trkpt lat="45.4384767" lon="12.1396083"><ele>4.0</ele><time>2026-05-01T13:17:03.098Z</time></trkpt><trkpt lat="45.4385167" lon="12.139495"><ele>4.0</ele><time>2026-05-01T13:17:04.097Z</time></trkpt><trkpt lat="45.438555" lon="12.13939"><ele>4.0</ele><time>2026-05-01T13:17:05.097Z</time></trkpt><trkpt lat="45.4385933" lon="12.1392867"><ele>3.9999999999999996</ele><time>2026-05-01T13:17:06.098Z</time></trkpt><trkpt lat="45.438625" lon="12.1391867"><ele>4.0</ele><time>2026-05-01T13:17:07.097Z</time></trkpt><trkpt lat="45.43865" lon="12.13909"><ele>3.9999999999999996</ele><time>2026-05-01T13:17:08.098Z</time></trkpt><trkpt lat="45.438655" lon="12.1389967"><ele>4.0</ele><time>2026-05-01T13:17:09.097Z</time></trkpt><trkpt lat="45.4386517" lon="12.1389067"><ele>4.0</ele><time>2026-05-01T13:17:10.097Z</time></trkpt><trkpt lat="45.4386517" lon="12.1387633"><ele>4.0</ele><time>2026-05-01T13:17:12.097Z</time></trkpt><trkpt lat="45.4385883" lon="12.1386933"><ele>3.9999999999999996</ele><time>2026-05-01T13:17:14.098Z</time></trkpt><trkpt lat="45.4384633" lon="12.13871"><ele>4.0</ele><time>2026-05-01T13:17:16.097Z</time></trkpt><trkpt lat="45.4384" lon="12.1387317"><ele>4.0</ele><time>2026-05-01T13:17:17.097Z</time></trkpt><trkpt lat="45.4382817" lon="12.138755"><ele>4.0</ele><time>2026-05-01T13:17:19.098Z</time></trkpt><trkpt lat="45.438215" lon="12.13876"><ele>4.0</ele><time>2026-05-01T13:17:20.097Z</time></trkpt><trkpt lat="45.43815" lon="12.1387633"><ele>4.0</ele><time>2026-05-01T13:17:21.098Z</time></trkpt><trkpt lat="45.43802" lon="12.13877"><ele>4.0</ele><time>2026-05-01T13:17:23.097Z</time></trkpt><trkpt lat="45.4379517" lon="12.1387817"><ele>4.166666666666666</ele><time>2026-05-01T13:17:24.097Z</time></trkpt><trkpt lat="45.4378833" lon="12.1387983"><ele>4.333333333333333</ele><time>2026-05-01T13:17:25.097Z</time></trkpt><trkpt lat="45.4378083" lon="12.1388267"><ele>4.5</ele><time>2026-05-01T13:17:26.098Z</time></trkpt><trkpt lat="45.4377333" lon="12.1388517"><ele>4.666666666666667</ele><time>2026-05-01T13:17:27.097Z</time></trkpt><trkpt lat="45.437655" lon="12.1388717"><ele>4.833333333333334</ele><time>2026-05-01T13:17:28.097Z</time></trkpt><trkpt lat="45.4375767" lon="12.1389183"><ele>5.0</ele><time>2026-05-01T13:17:29.098Z</time></trkpt><trkpt lat="45.4374967" lon="12.13895"><ele>5.0</ele><time>2026-05-01T13:17:30.097Z</time></trkpt><trkpt lat="45.4374117" lon="12.13899"><ele>5.0</ele><time>2026-05-01T13:17:31.097Z</time></trkpt><trkpt lat="45.4373283" lon="12.1390217"><ele>5.0</ele><time>2026-05-01T13:17:32.097Z</time></trkpt><trkpt lat="45.4372467" lon="12.1390517"><ele>5.0</ele><time>2026-05-01T13:17:33.097Z</time></trkpt><trkpt lat="45.4371733" lon="12.1390717"><ele>5.0</ele><time>2026-05-01T13:17:34.097Z</time></trkpt><trkpt lat="45.4370933" lon="12.1390933"><ele>5.0</ele><time>2026-05-01T13:17:35.098Z</time></trkpt><trkpt lat="45.4370233" lon="12.1391333"><ele>4.666666666666667</ele><time>2026-05-01T13:17:36.097Z</time></trkpt><trkpt lat="45.4369567" lon="12.1391617"><ele>4.333333333333334</ele><time>2026-05-01T13:17:37.097Z</time></trkpt><trkpt lat="45.4368867" lon="12.139205"><ele>4.0</ele><time>2026-05-01T13:17:38.097Z</time></trkpt><trkpt lat="45.4368183" lon="12.1392617"><ele>3.666666666666667</ele><time>2026-05-01T13:17:39.098Z</time></trkpt><trkpt lat="45.4367567" lon="12.1393317"><ele>3.3333333333333335</ele><time>2026-05-01T13:17:40.097Z</time></trkpt><trkpt lat="45.4366933" lon="12.1393983"><ele>3.0</ele><time>2026-05-01T13:17:41.097Z</time></trkpt><trkpt lat="45.4366383" lon="12.13947"><ele>3.0</ele><time>2026-05-01T13:17:42.097Z</time></trkpt><trkpt lat="45.4365883" lon="12.139535"><ele>3.0</ele><time>2026-05-01T13:17:43.097Z</time></trkpt><trkpt lat="45.43654" lon="12.1395983"><ele>3.0</ele><time>2026-05-01T13:17:44.098Z</time></trkpt><trkpt lat="45.4364683" lon="12.1397083"><ele>3.0</ele><time>2026-05-01T13:17:46.098Z</time></trkpt><trkpt lat="45.4364217" lon="12.13977"><ele>3.0</ele><time>2026-05-01T13:17:47.097Z</time></trkpt><trkpt lat="45.436375" lon="12.1398333"><ele>3.0</ele><time>2026-05-01T13:17:48.097Z</time></trkpt><trkpt lat="45.4363" lon="12.1399433"><ele>2.8333333333333335</ele><time>2026-05-01T13:17:50.097Z</time></trkpt><trkpt lat="45.4362383" lon="12.1399967"><ele>2.6666666666666665</ele><time>2026-05-01T13:17:52.098Z</time></trkpt><trkpt lat="45.4361683" lon="12.1399817"><ele>2.5</ele><time>2026-05-01T13:17:54.097Z</time></trkpt><trkpt lat="45.4361017" lon="12.13992"><ele>2.333333333333333</ele><time>2026-05-01T13:17:56.097Z</time></trkpt><trkpt lat="45.4360383" lon="12.13983"><ele>2.1666666666666665</ele><time>2026-05-01T13:17:58.098Z</time></trkpt><trkpt lat="45.4359467" lon="12.1397067"><ele>2.0</ele><time>2026-05-01T13:18:00.097Z</time></trkpt><trkpt lat="45.4358817" lon="12.1396233"><ele>1.8333333333333333</ele><time>2026-05-01T13:18:01.098Z</time></trkpt><trkpt lat="45.4358117" lon="12.1395367"><ele>1.6666666666666665</ele><time>2026-05-01T13:18:02.097Z</time></trkpt><trkpt lat="45.4357533" lon="12.1394483"><ele>1.5</ele><time>2026-05-01T13:18:03.098Z</time></trkpt><trkpt lat="45.4357017" lon="12.1393783"><ele>1.3333333333333333</ele><time>2026-05-01T13:18:04.097Z</time></trkpt><trkpt lat="45.4356217" lon="12.1393317"><ele>1.1666666666666665</ele><time>2026-05-01T13:18:06.098Z</time></trkpt><trkpt lat="45.4356183" lon="12.1394383"><ele>1.0</ele><time>2026-05-01T13:18:09.097Z</time></trkpt><trkpt lat="45.4357033" lon="12.139555"><ele>1.0</ele><time>2026-05-01T13:18:11.097Z</time></trkpt><trkpt lat="45.43578" lon="12.139645"><ele>1.0</ele><time>2026-05-01T13:18:12.097Z</time></trkpt><trkpt lat="45.4358683" lon="12.13976"><ele>1.0</ele><time>2026-05-01T13:18:13.098Z</time></trkpt><trkpt lat="45.4359517" lon="12.1398867"><ele>1.0</ele><time>2026-05-01T13:18:14.097Z</time></trkpt><trkpt lat="45.436025" lon="12.1399883"><ele>1.0</ele><time>2026-05-01T13:18:15.097Z</time></trkpt><trkpt lat="45.4360817" lon="12.14008"><ele>1.2000000000000002</ele><time>2026-05-01T13:18:16.097Z</time></trkpt><trkpt lat="45.4361333" lon="12.1401483"><ele>1.4000000000000001</ele><time>2026-05-01T13:18:17.097Z</time></trkpt><trkpt lat="45.43616" lon="12.140255"><ele>1.6</ele><time>2026-05-01T13:18:19.097Z</time></trkpt><trkpt lat="45.4360667" lon="12.1403383"><ele>1.8</ele><time>2026-05-01T13:18:21.097Z</time></trkpt><trkpt lat="45.4359533" lon="12.1403433"><ele>2.0</ele><time>2026-05-01T13:18:22.098Z</time></trkpt><trkpt lat="45.43582" lon="12.14032"><ele>2.0</ele><time>2026-05-01T13:18:23.098Z</time></trkpt><trkpt lat="45.4356817" lon="12.1402983"><ele>2.0</ele><time>2026-05-01T13:18:24.097Z</time></trkpt><trkpt lat="45.4355783" lon="12.140295"><ele>2.0</ele><time>2026-05-01T13:18:25.097Z</time></trkpt><trkpt lat="45.435485" lon="12.1402933"><ele>2.0</ele><time>2026-05-01T13:18:26.097Z</time></trkpt><trkpt lat="45.435425" lon="12.1403383"><ele>2.0</ele><time>2026-05-01T13:18:27.098Z</time></trkpt><trkpt lat="45.4353867" lon="12.14041"><ele>2.25</ele><time>2026-05-01T13:18:28.098Z</time></trkpt><trkpt lat="45.4353733" lon="12.1405283"><ele>2.5</ele><time>2026-05-01T13:18:29.098Z</time></trkpt><trkpt lat="45.4353783" lon="12.1406883"><ele>2.75</ele><time>2026-05-01T13:18:30.097Z</time></trkpt><trkpt lat="45.4353967" lon="12.140905"><ele>3.0</ele><time>2026-05-01T13:18:31.097Z</time></trkpt><trkpt lat="45.4354067" lon="12.1411267"><ele>3.0</ele><time>2026-05-01T13:18:32.098Z</time></trkpt><trkpt lat="45.4354" lon="12.1413217"><ele>3.0</ele><time>2026-05-01T13:18:33.097Z</time></trkpt><trkpt lat="45.4354033" lon="12.141515"><ele>3.0</ele><time>2026-05-01T13:18:34.098Z</time></trkpt><trkpt lat="45.4353983" lon="12.1416967"><ele>3.0</ele><time>2026-05-01T13:18:35.097Z</time></trkpt><trkpt lat="45.4353983" lon="12.1418667"><ele>3.0</ele><time>2026-05-01T13:18:36.097Z</time></trkpt><trkpt lat="45.435395" lon="12.14203"><ele>3.0</ele><time>2026-05-01T13:18:37.098Z</time></trkpt><trkpt lat="45.435405" lon="12.14218"><ele>3.0</ele><time>2026-05-01T13:18:38.097Z</time></trkpt><trkpt lat="45.435395" lon="12.14231"><ele>3.0</ele><time>2026-05-01T13:18:39.098Z</time></trkpt><trkpt lat="45.4353917" lon="12.14241"><ele>3.0</ele><time>2026-05-01T13:18:40.098Z</time></trkpt><trkpt lat="45.43534" lon="12.1424967"><ele>2.8</ele><time>2026-05-01T13:18:42.098Z</time></trkpt><trkpt lat="45.4351933" lon="12.1425183"><ele>2.5999999999999996</ele><time>2026-05-01T13:18:44.097Z</time></trkpt><trkpt lat="45.4350967" lon="12.1425083"><ele>2.4000000000000004</ele><time>2026-05-01T13:18:45.098Z</time></trkpt><trkpt lat="45.4349983" lon="12.1425033"><ele>2.2</ele><time>2026-05-01T13:18:46.098Z</time></trkpt><trkpt lat="45.4349067" lon="12.142495"><ele>2.0</ele><time>2026-05-01T13:18:47.097Z</time></trkpt><trkpt lat="45.4348217" lon="12.1425"><ele>2.0</ele><time>2026-05-01T13:18:48.098Z</time></trkpt><trkpt lat="45.434745" lon="12.1425017"><ele>1.9999999999999998</ele><time>2026-05-01T13:18:49.097Z</time></trkpt><trkpt lat="45.4346717" lon="12.142495"><ele>2.0</ele><time>2026-05-01T13:18:50.097Z</time></trkpt><trkpt lat="45.4345983" lon="12.1424933"><ele>2.0</ele><time>2026-05-01T13:18:51.097Z</time></trkpt><trkpt lat="45.434525" lon="12.1424933"><ele>1.9999999999999998</ele><time>2026-05-01T13:18:52.097Z</time></trkpt><trkpt lat="45.434455" lon="12.1424967"><ele>2.0</ele><time>2026-05-01T13:18:53.098Z</time></trkpt><trkpt lat="45.4343883" lon="12.1424967"><ele>2.0</ele><time>2026-05-01T13:18:54.097Z</time></trkpt><trkpt lat="45.434325" lon="12.1425"><ele>2.2</ele><time>2026-05-01T13:18:55.097Z</time></trkpt><trkpt lat="45.4341983" lon="12.1424833"><ele>2.4000000000000004</ele><time>2026-05-01T13:18:57.098Z</time></trkpt><trkpt lat="45.4341317" lon="12.14248"><ele>2.5999999999999996</ele><time>2026-05-01T13:18:58.097Z</time></trkpt><trkpt lat="45.434015" lon="12.1424983"><ele>2.8</ele><time>2026-05-01T13:19:00.098Z</time></trkpt><trkpt lat="45.4339383" lon="12.142595"><ele>3.0</ele><time>2026-05-01T13:19:02.098Z</time></trkpt><trkpt lat="45.4339417" lon="12.14273"><ele>3.0</ele><time>2026-05-01T13:19:04.098Z</time></trkpt><trkpt lat="45.4339667" lon="12.142845"><ele>3.0</ele><time>2026-05-01T13:19:06.097Z</time></trkpt><trkpt lat="45.4339783" lon="12.1429617"><ele>3.0</ele><time>2026-05-01T13:19:09.098Z</time></trkpt><trkpt lat="45.4339783" lon="12.1429617"><ele>3.0</ele><time>2026-05-01T13:19:09.098Z</time></trkpt><trkpt lat="45.4339783" lon="12.1429617"><ele>3.0</ele><time>2026-05-01T13:19:09.098Z</time></trkpt><trkpt lat="45.4339783" lon="12.1429617"><ele>3.0</ele><time>2026-05-01T13:19:09.098Z</time></trkpt><trkpt lat="45.4339783" lon="12.1429617"><ele>3.0</ele><time>2026-05-01T13:19:09.098Z</time></trkpt><trkpt lat="45.4339783" lon="12.1429617"><ele>3.0</ele><time>2026-05-01T13:19:09.098Z</time></trkpt><trkpt lat="45.4339783" lon="12.1429617"><ele>3.0</ele><time>2026-05-01T13:19:09.098Z</time></trkpt></trkseg></trk></gpx>